//0
//<Encoding>UTF-8</Encoding>
//File updated on 11/18/2025 14:03
//WMO ID: 4902554
//MBARI ID: ODV4902554
//Data source: 4902554_Sprof.nc
//DAC: meds
//Float type: ARVOR
//
//PLEASE READ:
//Data for this file has been extracted from the Synthetic profiles (*SProf.nc)
//Only RAW data parameters were used
//Missing Float profile(s) for station(s): 74 75 76 85 86 101 107 108 109 110 111 112 113 114 115 
//
//Missing data value = -1e10
//Argo to ODV QF conversion: Argo 0|99 => ODV 1, Argo 1|2|8 => ODV 0, Argo 3|5 => ODV 4, Argo 4 => ODV 8
//Data quality flags: 0=Good, 4=Questionable, 8=Bad, 1=Missing or not inspected 
Cruise	Station	Type	mon/day/yr	hh:mm	Lon [°E]	Lat [°N]	QF	Pressure[dbar]	QF	Temperature[°C]	QF	Salinity[pss]	QF	Sigma_theta[kg/m^3]	QF	Depth[m]	QF	Oxygen[µmol/kg]	QF	OxygenSat[%]	QF	Nitrate[µmol/kg]	QF	Chl_a[mg/m^3]	QF	b_bp700[1/m]	QF	CDOM[ppb]	QF	pHinsitu[Total]	QF	CP660[1/m]	QF
4902554	1	C	02/10/2021	08:58	-138.619	49.580	0	0.40	0	7.4270	0	32.3340	0	25.262	0	0.397	0	279.9	4	94.5	4	-1E+10	1	-1E+10	1	-1E+10	1	-1E+10	1	-1E+10	1	-1E+10	1
4902554	1	C	02/10/2021	08:58	-138.619	49.580	0	1.00	0	7.4270	0	32.3330	0	25.261	0	0.991	0	279.9	4	94.5	4	-1E+10	1	-1E+10	1	-1E+10	1	-1E+10	1	-1E+10	1	-1E+10	1
4902554	1	C	02/10/2021	08:58	-138.619	49.580	0	2.00	0	7.4270	0	32.3330	0	25.261	0	1.983	0	280.0	4	94.5	4	-1E+10	1	-1E+10	1	-1E+10	1	-1E+10	1	-1E+10	1	-1E+10	1
4902554	1	C	02/10/2021	08:58	-138.619	49.580	0	2.90	0	7.4280	0	32.3330	0	25.261	0	2.875	0	280.0	4	94.5	4	-1E+10	1	-1E+10	1	-1E+10	1	-1E+10	1	-1E+10	1	-1E+10	1
4902554	1	C	02/10/2021	08:58	-138.619	49.580	0	3.90	0	7.4280	0	32.3340	0	25.262	0	3.867	0	280.0	4	94.5	4	-1E+10	1	-1E+10	1	-1E+10	1	-1E+10	1	-1E+10	1	-1E+10	1
4902554	1	C	02/10/2021	08:58	-138.619	49.580	0	5.00	0	7.4280	0	32.3340	0	25.262	0	4.957	0	280.0	4	94.5	4	-1E+10	1	-1E+10	1	-1E+10	1	-1E+10	1	-1E+10	1	-1E+10	1
4902554	1	C	02/10/2021	08:58	-138.619	49.580	0	6.10	0	7.4280	0	32.3340	0	25.262	0	6.048	0	279.9	4	94.5	4	-1E+10	1	-1E+10	1	-1E+10	1	-1E+10	1	-1E+10	1	-1E+10	1
4902554	1	C	02/10/2021	08:58	-138.619	49.580	0	6.90	0	7.4290	0	32.3340	0	25.261	0	6.841	0	280.0	4	94.5	4	-1E+10	1	-1E+10	1	-1E+10	1	-1E+10	1	-1E+10	1	-1E+10	1
4902554	1	C	02/10/2021	08:58	-138.619	49.580	0	7.90	0	7.4280	0	32.3340	0	25.262	0	7.832	0	280.0	4	94.5	4	-1E+10	1	-1E+10	1	-1E+10	1	-1E+10	1	-1E+10	1	-1E+10	1
4902554	1	C	02/10/2021	08:58	-138.619	49.580	0	9.10	0	7.4280	0	32.3340	0	25.262	0	9.022	0	280.0	4	94.5	4	-1E+10	1	-1E+10	1	-1E+10	1	-1E+10	1	-1E+10	1	-1E+10	1
4902554	1	C	02/10/2021	08:58	-138.619	49.580	0	9.90	0	7.4280	0	32.3340	0	25.262	0	9.815	0	279.9	4	94.5	4	-1E+10	1	-1E+10	1	-1E+10	1	-1E+10	1	-1E+10	1	-1E+10	1
4902554	1	C	02/10/2021	08:58	-138.619	49.580	0	15.50	0	7.4270	0	32.3330	0	25.261	0	15.367	0	279.8	4	94.4	4	-1E+10	1	-1E+10	1	-1E+10	1	-1E+10	1	-1E+10	1	-1E+10	1
4902554	1	C	02/10/2021	08:58	-138.619	49.580	0	25.80	0	7.4290	0	32.3330	0	25.261	0	25.578	0	279.6	4	94.4	4	-1E+10	1	-1E+10	1	-1E+10	1	-1E+10	1	-1E+10	1	-1E+10	1
4902554	1	C	02/10/2021	08:58	-138.619	49.580	0	35.40	0	7.4310	0	32.3330	0	25.261	0	35.095	0	279.5	4	94.3	4	-1E+10	1	-1E+10	1	-1E+10	1	-1E+10	1	-1E+10	1	-1E+10	1
4902554	1	C	02/10/2021	08:58	-138.619	49.580	0	45.00	0	7.4300	0	32.3330	0	25.261	0	44.611	0	279.3	4	94.3	4	-1E+10	1	-1E+10	1	-1E+10	1	-1E+10	1	-1E+10	1	-1E+10	1
4902554	1	C	02/10/2021	08:58	-138.619	49.580	0	55.70	0	7.4310	0	32.3330	0	25.261	0	55.217	0	278.9	4	94.1	4	-1E+10	1	-1E+10	1	-1E+10	1	-1E+10	1	-1E+10	1	-1E+10	1
4902554	1	C	02/10/2021	08:58	-138.619	49.580	0	65.70	0	7.4310	0	32.3340	0	25.262	0	65.129	0	278.1	4	93.8	4	-1E+10	1	-1E+10	1	-1E+10	1	-1E+10	1	-1E+10	1	-1E+10	1
4902554	1	C	02/10/2021	08:58	-138.619	49.580	0	75.30	0	7.4300	0	32.3340	0	25.262	0	74.644	0	276.4	4	93.3	4	-1E+10	1	-1E+10	1	-1E+10	1	-1E+10	1	-1E+10	1	-1E+10	1
4902554	1	C	02/10/2021	08:58	-138.619	49.580	0	85.60	0	7.3780	0	32.3420	0	25.276	0	84.852	0	271.0	4	91.3	4	-1E+10	1	-1E+10	1	-1E+10	1	-1E+10	1	-1E+10	1	-1E+10	1
4902554	1	C	02/10/2021	08:58	-138.619	49.580	0	95.30	0	7.2840	0	32.3800	0	25.319	0	94.465	0	263.6	4	88.7	4	-1E+10	1	-1E+10	1	-1E+10	1	-1E+10	1	-1E+10	1	-1E+10	1
4902554	1	C	02/10/2021	08:58	-138.619	49.580	0	105.50	0	7.1530	0	32.5730	0	25.488	0	104.573	0	236.1	4	79.3	4	-1E+10	1	-1E+10	1	-1E+10	1	-1E+10	1	-1E+10	1	-1E+10	1
4902554	1	C	02/10/2021	08:58	-138.619	49.580	0	115.20	0	6.7750	0	33.0600	0	25.922	0	114.185	0	201.3	4	67.3	4	-1E+10	1	-1E+10	1	-1E+10	1	-1E+10	1	-1E+10	1	-1E+10	1
4902554	1	C	02/10/2021	08:58	-138.619	49.580	0	125.40	0	6.5350	0	33.3150	0	26.155	0	124.292	0	183.8	4	61.2	4	-1E+10	1	-1E+10	1	-1E+10	1	-1E+10	1	-1E+10	1	-1E+10	1
4902554	1	C	02/10/2021	08:58	-138.619	49.580	0	135.10	0	6.4570	0	33.4490	0	26.271	0	133.903	0	167.3	4	55.7	4	-1E+10	1	-1E+10	1	-1E+10	1	-1E+10	1	-1E+10	1	-1E+10	1
4902554	1	C	02/10/2021	08:58	-138.619	49.580	0	145.10	0	6.3550	0	33.5670	0	26.377	0	143.811	0	152.5	4	50.7	4	-1E+10	1	-1E+10	1	-1E+10	1	-1E+10	1	-1E+10	1	-1E+10	1
4902554	1	C	02/10/2021	08:58	-138.619	49.580	0	155.10	0	6.1410	0	33.6800	0	26.494	0	153.718	0	143.7	4	47.5	4	-1E+10	1	-1E+10	1	-1E+10	1	-1E+10	1	-1E+10	1	-1E+10	1
4902554	1	C	02/10/2021	08:58	-138.619	49.580	0	165.30	0	6.0390	0	33.7130	0	26.533	0	163.824	0	139.6	4	46.1	4	-1E+10	1	-1E+10	1	-1E+10	1	-1E+10	1	-1E+10	1	-1E+10	1
4902554	1	C	02/10/2021	08:58	-138.619	49.580	0	175.30	0	5.9620	0	33.7290	0	26.555	0	173.730	0	136.5	4	45.0	4	-1E+10	1	-1E+10	1	-1E+10	1	-1E+10	1	-1E+10	1	-1E+10	1
4902554	1	C	02/10/2021	08:58	-138.619	49.580	0	185.00	0	5.8240	0	33.7470	0	26.586	0	183.339	0	132.4	4	43.5	4	-1E+10	1	-1E+10	1	-1E+10	1	-1E+10	1	-1E+10	1	-1E+10	1
4902554	1	C	02/10/2021	08:58	-138.619	49.580	0	195.10	0	5.7550	0	33.7630	0	26.608	0	193.343	0	126.0	4	41.3	4	-1E+10	1	-1E+10	1	-1E+10	1	-1E+10	1	-1E+10	1	-1E+10	1
4902554	1	C	02/10/2021	08:58	-138.619	49.580	0	212.90	0	5.6520	0	33.8000	0	26.650	0	210.974	0	113.1	4	37.0	4	-1E+10	1	-1E+10	1	-1E+10	1	-1E+10	1	-1E+10	1	-1E+10	1
4902554	1	C	02/10/2021	08:58	-138.619	49.580	0	237.90	0	5.4890	0	33.8330	0	26.695	0	235.734	0	100.5	4	32.8	4	-1E+10	1	-1E+10	1	-1E+10	1	-1E+10	1	-1E+10	1	-1E+10	1
4902554	1	C	02/10/2021	08:58	-138.619	49.580	0	263.00	0	5.3360	0	33.8560	0	26.732	0	260.589	0	88.9	4	28.9	4	-1E+10	1	-1E+10	1	-1E+10	1	-1E+10	1	-1E+10	1	-1E+10	1
4902554	1	C	02/10/2021	08:58	-138.619	49.580	0	288.00	0	5.0930	0	33.8800	0	26.779	0	285.343	0	77.8	4	25.2	4	-1E+10	1	-1E+10	1	-1E+10	1	-1E+10	1	-1E+10	1	-1E+10	1
4902554	1	C	02/10/2021	08:58	-138.619	49.580	0	313.90	0	4.8090	0	33.8840	0	26.815	0	310.985	0	72.0	4	23.1	4	-1E+10	1	-1E+10	1	-1E+10	1	-1E+10	1	-1E+10	1	-1E+10	1
4902554	1	C	02/10/2021	08:58	-138.619	49.580	0	337.90	0	4.6950	0	33.9030	0	26.843	0	334.742	0	64.1	4	20.5	4	-1E+10	1	-1E+10	1	-1E+10	1	-1E+10	1	-1E+10	1	-1E+10	1
4902554	1	C	02/10/2021	08:58	-138.619	49.580	0	362.80	0	4.6160	0	33.9310	0	26.874	0	359.388	0	56.2	4	18.0	4	-1E+10	1	-1E+10	1	-1E+10	1	-1E+10	1	-1E+10	1	-1E+10	1
4902554	1	C	02/10/2021	08:58	-138.619	49.580	0	387.90	0	4.5680	0	33.9650	0	26.906	0	384.229	0	48.5	4	15.5	4	-1E+10	1	-1E+10	1	-1E+10	1	-1E+10	1	-1E+10	1	-1E+10	1
4902554	1	C	02/10/2021	08:58	-138.619	49.580	0	412.80	0	4.5240	0	33.9930	0	26.933	0	408.869	0	43.0	4	13.7	4	-1E+10	1	-1E+10	1	-1E+10	1	-1E+10	1	-1E+10	1	-1E+10	1
4902554	1	C	02/10/2021	08:58	-138.619	49.580	0	437.60	0	4.4140	0	34.0120	0	26.960	0	433.407	0	39.4	4	12.6	4	-1E+10	1	-1E+10	1	-1E+10	1	-1E+10	1	-1E+10	1	-1E+10	1
4902554	1	C	02/10/2021	08:58	-138.619	49.580	0	462.60	0	4.3580	0	34.0380	0	26.987	0	458.139	0	34.6	4	11.0	4	-1E+10	1	-1E+10	1	-1E+10	1	-1E+10	1	-1E+10	1	-1E+10	1
4902554	1	C	02/10/2021	08:58	-138.619	49.580	0	487.70	0	4.2600	0	34.0610	0	27.016	0	482.968	0	31.6	4	10.0	4	-1E+10	1	-1E+10	1	-1E+10	1	-1E+10	1	-1E+10	1	-1E+10	1
4902554	1	C	02/10/2021	08:58	-138.619	49.580	0	513.00	0	4.1880	0	34.0860	0	27.044	0	507.992	0	27.7	4	8.8	4	-1E+10	1	-1E+10	1	-1E+10	1	-1E+10	1	-1E+10	1	-1E+10	1
4902554	1	C	02/10/2021	08:58	-138.619	49.580	0	538.60	0	4.1170	0	34.1100	0	27.070	0	533.309	0	24.8	4	7.8	4	-1E+10	1	-1E+10	1	-1E+10	1	-1E+10	1	-1E+10	1	-1E+10	1
4902554	1	C	02/10/2021	08:58	-138.619	49.580	0	562.80	0	4.0400	0	34.1350	0	27.098	0	557.239	0	22.3	4	7.0	4	-1E+10	1	-1E+10	1	-1E+10	1	-1E+10	1	-1E+10	1	-1E+10	1
4902554	1	C	02/10/2021	08:58	-138.619	49.580	0	587.60	0	3.9520	0	34.1570	0	27.125	0	581.759	0	20.6	4	6.5	4	-1E+10	1	-1E+10	1	-1E+10	1	-1E+10	1	-1E+10	1	-1E+10	1
4902554	1	C	02/10/2021	08:58	-138.619	49.580	0	612.80	0	3.8740	0	34.1770	0	27.149	0	606.672	0	19.2	4	6.1	4	-1E+10	1	-1E+10	1	-1E+10	1	-1E+10	1	-1E+10	1	-1E+10	1
4902554	1	C	02/10/2021	08:58	-138.619	49.580	0	638.10	0	3.8350	0	34.1880	0	27.162	0	631.681	0	18.4	4	5.8	4	-1E+10	1	-1E+10	1	-1E+10	1	-1E+10	1	-1E+10	1	-1E+10	1
4902554	1	C	02/10/2021	08:58	-138.619	49.580	0	663.00	0	3.7780	0	34.2050	0	27.181	0	656.291	0	17.2	4	5.4	4	-1E+10	1	-1E+10	1	-1E+10	1	-1E+10	1	-1E+10	1	-1E+10	1
4902554	1	C	02/10/2021	08:58	-138.619	49.580	0	688.60	0	3.7310	0	34.2190	0	27.197	0	681.590	0	16.3	4	5.1	4	-1E+10	1	-1E+10	1	-1E+10	1	-1E+10	1	-1E+10	1	-1E+10	1
4902554	1	C	02/10/2021	08:58	-138.619	49.580	0	712.80	0	3.6820	0	34.2340	0	27.214	0	705.503	0	15.6	4	4.9	4	-1E+10	1	-1E+10	1	-1E+10	1	-1E+10	1	-1E+10	1	-1E+10	1
4902554	1	C	02/10/2021	08:58	-138.619	49.580	0	737.90	0	3.6280	0	34.2510	0	27.233	0	730.302	0	14.7	4	4.6	4	-1E+10	1	-1E+10	1	-1E+10	1	-1E+10	1	-1E+10	1	-1E+10	1
4902554	1	C	02/10/2021	08:58	-138.619	49.580	0	762.90	0	3.5560	0	34.2700	0	27.255	0	754.999	0	14.2	4	4.4	4	-1E+10	1	-1E+10	1	-1E+10	1	-1E+10	1	-1E+10	1	-1E+10	1
4902554	1	C	02/10/2021	08:58	-138.619	49.580	0	787.80	0	3.4970	0	34.2810	0	27.270	0	779.595	0	14.2	4	4.4	4	-1E+10	1	-1E+10	1	-1E+10	1	-1E+10	1	-1E+10	1	-1E+10	1
4902554	1	C	02/10/2021	08:58	-138.619	49.580	0	812.40	0	3.4440	0	34.2910	0	27.283	0	803.892	0	14.1	4	4.4	4	-1E+10	1	-1E+10	1	-1E+10	1	-1E+10	1	-1E+10	1	-1E+10	1
4902554	1	C	02/10/2021	08:58	-138.619	49.580	0	837.90	0	3.3780	0	34.3040	0	27.300	0	829.074	0	13.9	4	4.3	4	-1E+10	1	-1E+10	1	-1E+10	1	-1E+10	1	-1E+10	1	-1E+10	1
4902554	1	C	02/10/2021	08:58	-138.619	49.580	0	863.30	0	3.3110	0	34.3160	0	27.316	0	854.154	0	14.0	4	4.4	4	-1E+10	1	-1E+10	1	-1E+10	1	-1E+10	1	-1E+10	1	-1E+10	1
4902554	1	C	02/10/2021	08:58	-138.619	49.580	0	888.90	0	3.2380	0	34.3280	0	27.332	0	879.429	0	14.1	4	4.4	4	-1E+10	1	-1E+10	1	-1E+10	1	-1E+10	1	-1E+10	1	-1E+10	1
4902554	1	C	02/10/2021	08:58	-138.619	49.580	0	913.00	0	3.1660	0	34.3380	0	27.347	0	903.221	0	14.1	4	4.4	4	-1E+10	1	-1E+10	1	-1E+10	1	-1E+10	1	-1E+10	1	-1E+10	1
4902554	1	C	02/10/2021	08:58	-138.619	49.580	0	938.00	0	3.1260	0	34.3460	0	27.357	0	927.898	0	14.1	4	4.4	4	-1E+10	1	-1E+10	1	-1E+10	1	-1E+10	1	-1E+10	1	-1E+10	1
4902554	1	C	02/10/2021	08:58	-138.619	49.580	0	962.80	0	3.0900	0	34.3530	0	27.366	0	952.374	0	14.0	4	4.3	4	-1E+10	1	-1E+10	1	-1E+10	1	-1E+10	1	-1E+10	1	-1E+10	1
4902554	1	C	02/10/2021	08:58	-138.619	49.580	0	987.80	0	3.0450	0	34.3610	0	27.377	0	977.045	0	13.8	4	4.3	4	-1E+10	1	-1E+10	1	-1E+10	1	-1E+10	1	-1E+10	1	-1E+10	1
4902554	1	C	02/10/2021	08:58	-138.619	49.580	0	1012.70	0	2.9980	0	34.3710	0	27.389	0	1001.614	0	13.8	4	4.2	4	-1E+10	1	-1E+10	1	-1E+10	1	-1E+10	1	-1E+10	1	-1E+10	1
4902554	1	C	02/10/2021	08:58	-138.619	49.580	0	1037.90	0	2.9630	0	34.3780	0	27.398	0	1026.477	0	13.8	4	4.3	4	-1E+10	1	-1E+10	1	-1E+10	1	-1E+10	1	-1E+10	1	-1E+10	1
4902554	1	C	02/10/2021	08:58	-138.619	49.580	0	1063.00	0	2.9120	0	34.3870	0	27.410	0	1051.238	0	13.8	4	4.2	4	-1E+10	1	-1E+10	1	-1E+10	1	-1E+10	1	-1E+10	1	-1E+10	1
4902554	1	C	02/10/2021	08:58	-138.619	49.580	0	1088.80	0	2.8760	0	34.3950	0	27.420	0	1076.686	0	13.7	4	4.2	4	-1E+10	1	-1E+10	1	-1E+10	1	-1E+10	1	-1E+10	1	-1E+10	1
4902554	1	C	02/10/2021	08:58	-138.619	49.580	0	1113.10	0	2.8390	0	34.4020	0	27.429	0	1100.652	0	13.7	4	4.2	4	-1E+10	1	-1E+10	1	-1E+10	1	-1E+10	1	-1E+10	1	-1E+10	1
4902554	1	C	02/10/2021	08:58	-138.619	49.580	0	1137.90	0	2.8010	0	34.4110	0	27.440	0	1125.108	0	13.4	4	4.1	4	-1E+10	1	-1E+10	1	-1E+10	1	-1E+10	1	-1E+10	1	-1E+10	1
4902554	1	C	02/10/2021	08:58	-138.619	49.580	0	1162.50	0	2.7680	0	34.4190	0	27.449	0	1149.365	0	13.2	4	4.1	4	-1E+10	1	-1E+10	1	-1E+10	1	-1E+10	1	-1E+10	1	-1E+10	1
4902554	1	C	02/10/2021	08:58	-138.619	49.580	0	1187.70	0	2.7270	0	34.4280	0	27.460	0	1174.209	0	13.2	4	4.1	4	-1E+10	1	-1E+10	1	-1E+10	1	-1E+10	1	-1E+10	1	-1E+10	1
4902554	1	C	02/10/2021	08:58	-138.619	49.580	0	1213.10	0	2.6910	0	34.4350	0	27.469	0	1199.249	0	13.5	4	4.1	4	-1E+10	1	-1E+10	1	-1E+10	1	-1E+10	1	-1E+10	1	-1E+10	1
4902554	1	C	02/10/2021	08:58	-138.619	49.580	0	1238.10	0	2.6620	0	34.4400	0	27.475	0	1223.890	0	13.9	4	4.3	4	-1E+10	1	-1E+10	1	-1E+10	1	-1E+10	1	-1E+10	1	-1E+10	1
4902554	1	C	02/10/2021	08:58	-138.619	49.580	0	1263.90	0	2.6320	0	34.4460	0	27.483	0	1249.318	0	14.3	4	4.4	4	-1E+10	1	-1E+10	1	-1E+10	1	-1E+10	1	-1E+10	1	-1E+10	1
4902554	1	C	02/10/2021	08:58	-138.619	49.580	0	1287.90	0	2.6000	0	34.4510	0	27.490	0	1272.968	0	14.7	4	4.5	4	-1E+10	1	-1E+10	1	-1E+10	1	-1E+10	1	-1E+10	1	-1E+10	1
4902554	1	C	02/10/2021	08:58	-138.619	49.580	0	1313.00	0	2.5690	0	34.4570	0	27.497	0	1297.700	0	15.2	4	4.6	4	-1E+10	1	-1E+10	1	-1E+10	1	-1E+10	1	-1E+10	1	-1E+10	1
4902554	1	C	02/10/2021	08:58	-138.619	49.580	0	1338.00	0	2.5330	0	34.4640	0	27.506	0	1322.330	0	15.8	4	4.8	4	-1E+10	1	-1E+10	1	-1E+10	1	-1E+10	1	-1E+10	1	-1E+10	1
4902554	1	C	02/10/2021	08:58	-138.619	49.580	0	1362.80	0	2.5030	0	34.4690	0	27.513	0	1346.761	0	16.4	4	5.0	4	-1E+10	1	-1E+10	1	-1E+10	1	-1E+10	1	-1E+10	1	-1E+10	1
4902554	1	C	02/10/2021	08:58	-138.619	49.580	0	1388.00	0	2.4770	0	34.4740	0	27.519	0	1371.582	0	17.0	4	5.2	4	-1E+10	1	-1E+10	1	-1E+10	1	-1E+10	1	-1E+10	1	-1E+10	1
4902554	1	C	02/10/2021	08:58	-138.619	49.580	0	1412.90	0	2.4540	0	34.4800	0	27.526	0	1396.105	0	17.6	4	5.4	4	-1E+10	1	-1E+10	1	-1E+10	1	-1E+10	1	-1E+10	1	-1E+10	1
4902554	1	C	02/10/2021	08:58	-138.619	49.580	0	1437.90	0	2.4290	0	34.4840	0	27.531	0	1420.724	0	18.4	4	5.6	4	-1E+10	1	-1E+10	1	-1E+10	1	-1E+10	1	-1E+10	1	-1E+10	1
4902554	1	C	02/10/2021	08:58	-138.619	49.580	0	1463.10	0	2.4020	0	34.4900	0	27.539	0	1445.537	0	19.1	4	5.8	4	-1E+10	1	-1E+10	1	-1E+10	1	-1E+10	1	-1E+10	1	-1E+10	1
4902554	1	C	02/10/2021	08:58	-138.619	49.580	0	1488.00	0	2.3740	0	34.4960	0	27.546	0	1470.052	0	20.1	4	6.1	4	-1E+10	1	-1E+10	1	-1E+10	1	-1E+10	1	-1E+10	1	-1E+10	1
4902554	1	C	02/10/2021	08:58	-138.619	49.580	0	1512.70	0	2.3440	0	34.5020	0	27.553	0	1494.366	0	21.4	4	6.5	4	-1E+10	1	-1E+10	1	-1E+10	1	-1E+10	1	-1E+10	1	-1E+10	1
4902554	1	C	02/10/2021	08:58	-138.619	49.580	0	1537.60	0	2.3170	0	34.5070	0	27.560	0	1518.875	0	22.6	4	6.9	4	-1E+10	1	-1E+10	1	-1E+10	1	-1E+10	1	-1E+10	1	-1E+10	1
4902554	1	C	02/10/2021	08:58	-138.619	49.580	0	1562.90	0	2.2930	0	34.5120	0	27.566	0	1543.775	0	24.0	4	7.3	4	-1E+10	1	-1E+10	1	-1E+10	1	-1E+10	1	-1E+10	1	-1E+10	1
4902554	1	C	02/10/2021	08:58	-138.619	49.580	0	1587.60	0	2.2660	0	34.5170	0	27.572	0	1568.081	0	25.4	4	7.7	4	-1E+10	1	-1E+10	1	-1E+10	1	-1E+10	1	-1E+10	1	-1E+10	1
4902554	1	C	02/10/2021	08:58	-138.619	49.580	0	1612.40	0	2.2440	0	34.5210	0	27.577	0	1592.483	0	26.8	4	8.1	4	-1E+10	1	-1E+10	1	-1E+10	1	-1E+10	1	-1E+10	1	-1E+10	1
4902554	1	C	02/10/2021	08:58	-138.619	49.580	0	1638.00	0	2.2200	0	34.5260	0	27.583	0	1617.669	0	28.2	4	8.5	4	-1E+10	1	-1E+10	1	-1E+10	1	-1E+10	1	-1E+10	1	-1E+10	1
4902554	1	C	02/10/2021	08:58	-138.619	49.580	0	1662.80	0	2.1990	0	34.5310	0	27.589	0	1642.065	0	29.5	4	8.9	4	-1E+10	1	-1E+10	1	-1E+10	1	-1E+10	1	-1E+10	1	-1E+10	1
4902554	1	C	02/10/2021	08:58	-138.619	49.580	0	1687.40	0	2.1790	0	34.5350	0	27.594	0	1666.262	0	30.9	4	9.4	4	-1E+10	1	-1E+10	1	-1E+10	1	-1E+10	1	-1E+10	1	-1E+10	1
4902554	1	C	02/10/2021	08:58	-138.619	49.580	0	1712.50	0	2.1590	0	34.5390	0	27.599	0	1690.947	0	32.3	4	9.8	4	-1E+10	1	-1E+10	1	-1E+10	1	-1E+10	1	-1E+10	1	-1E+10	1
4902554	1	C	02/10/2021	08:58	-138.619	49.580	0	1737.90	0	2.1410	0	34.5430	0	27.604	0	1715.925	0	33.6	4	10.2	4	-1E+10	1	-1E+10	1	-1E+10	1	-1E+10	1	-1E+10	1	-1E+10	1
4902554	1	C	02/10/2021	08:58	-138.619	49.580	0	1763.00	0	2.1240	0	34.5460	0	27.608	0	1740.605	0	35.0	4	10.6	4	-1E+10	1	-1E+10	1	-1E+10	1	-1E+10	1	-1E+10	1	-1E+10	1
4902554	1	C	02/10/2021	08:58	-138.619	49.580	0	1788.00	0	2.1050	0	34.5500	0	27.612	0	1765.183	0	36.6	4	11.1	4	-1E+10	1	-1E+10	1	-1E+10	1	-1E+10	1	-1E+10	1	-1E+10	1
4902554	1	C	02/10/2021	08:58	-138.619	49.580	0	1813.20	0	2.0830	0	34.5540	0	27.617	0	1789.956	0	38.3	4	11.6	4	-1E+10	1	-1E+10	1	-1E+10	1	-1E+10	1	-1E+10	1	-1E+10	1
4902554	1	C	02/10/2021	08:58	-138.619	49.580	0	1838.30	0	2.0630	0	34.5590	0	27.623	0	1814.627	0	39.9	4	12.1	4	-1E+10	1	-1E+10	1	-1E+10	1	-1E+10	1	-1E+10	1	-1E+10	1
4902554	1	C	02/10/2021	08:58	-138.619	49.580	0	1862.70	0	2.0440	0	34.5620	0	27.627	0	1838.607	0	41.5	4	12.5	4	-1E+10	1	-1E+10	1	-1E+10	1	-1E+10	1	-1E+10	1	-1E+10	1
4902554	1	C	02/10/2021	08:58	-138.619	49.580	0	1887.70	0	2.0270	0	34.5660	0	27.632	0	1863.174	0	43.1	4	13.0	4	-1E+10	1	-1E+10	1	-1E+10	1	-1E+10	1	-1E+10	1	-1E+10	1
4902554	1	C	02/10/2021	08:58	-138.619	49.580	0	1913.20	0	2.0060	0	34.5700	0	27.637	0	1888.230	0	45.0	4	13.6	4	-1E+10	1	-1E+10	1	-1E+10	1	-1E+10	1	-1E+10	1	-1E+10	1
4902554	1	C	02/10/2021	08:58	-138.619	49.580	0	1938.90	0	1.9860	0	34.5740	0	27.642	0	1913.479	0	46.8	4	14.1	4	-1E+10	1	-1E+10	1	-1E+10	1	-1E+10	1	-1E+10	1	-1E+10	1
4902554	1	C	02/10/2021	08:58	-138.619	49.580	0	1962.90	0	1.9680	0	34.5770	0	27.646	0	1937.055	0	48.4	4	14.6	4	-1E+10	1	-1E+10	1	-1E+10	1	-1E+10	1	-1E+10	1	-1E+10	1
4902554	1	C	02/10/2021	08:58	-138.619	49.580	0	1987.80	0	1.9500	0	34.5810	0	27.650	0	1961.513	0	50.0	4	15.1	4	-1E+10	1	-1E+10	1	-1E+10	1	-1E+10	1	-1E+10	1	-1E+10	1
4902554	1	C	02/10/2021	08:58	-138.619	49.580	0	2011.80	0	1.9360	0	34.5840	0	27.654	0	1985.084	0	50.7	4	15.3	4	-1E+10	1	-1E+10	1	-1E+10	1	-1E+10	1	-1E+10	1	-1E+10	1
4902554	1	C	02/10/2021	08:58	-138.619	49.580	0																										
4902554	2	C	02/20/2021	08:52	-138.300	49.557	0	0.20	0	7.1390	0	32.3530	0	25.316	0	0.198	0	279.8	4	93.8	4	-1E+10	1	-1E+10	1	-1E+10	1	-1E+10	1	-1E+10	1	-1E+10	1
4902554	2	C	02/20/2021	08:52	-138.300	49.557	0	0.80	0	7.1410	0	32.3520	0	25.315	0	0.793	0	279.8	4	93.8	4	-1E+10	1	-1E+10	1	-1E+10	1	-1E+10	1	-1E+10	1	-1E+10	1
4902554	2	C	02/20/2021	08:52	-138.300	49.557	0	1.90	0	7.1410	0	32.3530	0	25.316	0	1.884	0	279.7	4	93.8	4	-1E+10	1	-1E+10	1	-1E+10	1	-1E+10	1	-1E+10	1	-1E+10	1
4902554	2	C	02/20/2021	08:52	-138.300	49.557	0	3.00	0	7.1410	0	32.3530	0	25.316	0	2.974	0	279.8	4	93.8	4	-1E+10	1	-1E+10	1	-1E+10	1	-1E+10	1	-1E+10	1	-1E+10	1
4902554	2	C	02/20/2021	08:52	-138.300	49.557	0	4.00	0	7.1410	0	32.3530	0	25.316	0	3.966	0	279.8	4	93.8	4	-1E+10	1	-1E+10	1	-1E+10	1	-1E+10	1	-1E+10	1	-1E+10	1
4902554	2	C	02/20/2021	08:52	-138.300	49.557	0	5.00	0	7.1410	0	32.3530	0	25.316	0	4.957	0	279.7	4	93.8	4	-1E+10	1	-1E+10	1	-1E+10	1	-1E+10	1	-1E+10	1	-1E+10	1
4902554	2	C	02/20/2021	08:52	-138.300	49.557	0	5.80	0	7.1420	0	32.3530	0	25.315	0	5.750	0	279.7	4	93.8	4	-1E+10	1	-1E+10	1	-1E+10	1	-1E+10	1	-1E+10	1	-1E+10	1
4902554	2	C	02/20/2021	08:52	-138.300	49.557	0	7.00	0	7.1420	0	32.3530	0	25.315	0	6.940	0	279.6	4	93.8	4	-1E+10	1	-1E+10	1	-1E+10	1	-1E+10	1	-1E+10	1	-1E+10	1
4902554	2	C	02/20/2021	08:52	-138.300	49.557	0	8.00	0	7.1420	0	32.3530	0	25.315	0	7.932	0	279.6	4	93.8	4	-1E+10	1	-1E+10	1	-1E+10	1	-1E+10	1	-1E+10	1	-1E+10	1
4902554	2	C	02/20/2021	08:52	-138.300	49.557	0	9.00	0	7.1400	0	32.3530	0	25.316	0	8.923	0	279.7	4	93.8	4	-1E+10	1	-1E+10	1	-1E+10	1	-1E+10	1	-1E+10	1	-1E+10	1
4902554	2	C	02/20/2021	08:52	-138.300	49.557	0	10.10	0	7.1400	0	32.3540	0	25.317	0	10.014	0	279.7	4	93.8	4	-1E+10	1	-1E+10	1	-1E+10	1	-1E+10	1	-1E+10	1	-1E+10	1
4902554	2	C	02/20/2021	08:52	-138.300	49.557	0	15.20	0	7.1410	0	32.3530	0	25.316	0	15.070	0	279.6	4	93.7	4	-1E+10	1	-1E+10	1	-1E+10	1	-1E+10	1	-1E+10	1	-1E+10	1
4902554	2	C	02/20/2021	08:52	-138.300	49.557	0	25.10	0	7.1430	0	32.3530	0	25.316	0	24.884	0	279.5	4	93.7	4	-1E+10	1	-1E+10	1	-1E+10	1	-1E+10	1	-1E+10	1	-1E+10	1
4902554	2	C	02/20/2021	08:52	-138.300	49.557	0	35.40	0	7.1450	0	32.3530	0	25.315	0	35.095	0	279.4	4	93.7	4	-1E+10	1	-1E+10	1	-1E+10	1	-1E+10	1	-1E+10	1	-1E+10	1
4902554	2	C	02/20/2021	08:52	-138.300	49.557	0	45.70	0	7.1470	0	32.3530	0	25.315	0	45.305	0	279.3	4	93.7	4	-1E+10	1	-1E+10	1	-1E+10	1	-1E+10	1	-1E+10	1	-1E+10	1
4902554	2	C	02/20/2021	08:52	-138.300	49.557	0	55.60	0	7.1460	0	32.3530	0	25.316	0	55.118	0	279.2	4	93.6	4	-1E+10	1	-1E+10	1	-1E+10	1	-1E+10	1	-1E+10	1	-1E+10	1
4902554	2	C	02/20/2021	08:52	-138.300	49.557	0	65.80	0	7.1470	0	32.3530	0	25.315	0	65.228	0	279.1	4	93.6	4	-1E+10	1	-1E+10	1	-1E+10	1	-1E+10	1	-1E+10	1	-1E+10	1
4902554	2	C	02/20/2021	08:52	-138.300	49.557	0	75.30	0	7.1480	0	32.3530	0	25.315	0	74.644	0	278.6	4	93.4	4	-1E+10	1	-1E+10	1	-1E+10	1	-1E+10	1	-1E+10	1	-1E+10	1
4902554	2	C	02/20/2021	08:52	-138.300	49.557	0	85.40	0	7.1480	0	32.3530	0	25.316	0	84.654	0	278.0	4	93.2	4	-1E+10	1	-1E+10	1	-1E+10	1	-1E+10	1	-1E+10	1	-1E+10	1
4902554	2	C	02/20/2021	08:52	-138.300	49.557	0	95.60	0	7.1490	0	32.3530	0	25.316	0	94.762	0	276.4	4	92.7	4	-1E+10	1	-1E+10	1	-1E+10	1	-1E+10	1	-1E+10	1	-1E+10	1
4902554	2	C	02/20/2021	08:52	-138.300	49.557	0	105.30	0	7.1510	0	32.3530	0	25.315	0	104.375	0	270.0	4	90.6	4	-1E+10	1	-1E+10	1	-1E+10	1	-1E+10	1	-1E+10	1	-1E+10	1
4902554	2	C	02/20/2021	08:52	-138.300	49.557	0	115.70	0	6.9870	0	32.6430	0	25.566	0	114.681	0	224.5	4	75.2	4	-1E+10	1	-1E+10	1	-1E+10	1	-1E+10	1	-1E+10	1	-1E+10	1
4902554	2	C	02/20/2021	08:52	-138.300	49.557	0	125.20	0	6.5550	0	33.2830	0	26.127	0	124.094	0	182.8	4	60.9	4	-1E+10	1	-1E+10	1	-1E+10	1	-1E+10	1	-1E+10	1	-1E+10	1
4902554	2	C	02/20/2021	08:52	-138.300	49.557	0	135.10	0	6.4210	0	33.4760	0	26.297	0	133.903	0	164.8	4	54.8	4	-1E+10	1	-1E+10	1	-1E+10	1	-1E+10	1	-1E+10	1	-1E+10	1
4902554	2	C	02/20/2021	08:52	-138.300	49.557	0	145.10	0	6.3350	0	33.5790	0	26.389	0	143.811	0	155.6	4	51.7	4	-1E+10	1	-1E+10	1	-1E+10	1	-1E+10	1	-1E+10	1	-1E+10	1
4902554	2	C	02/20/2021	08:52	-138.300	49.557	0	155.10	0	6.2530	0	33.6360	0	26.445	0	153.719	0	148.5	4	49.3	4	-1E+10	1	-1E+10	1	-1E+10	1	-1E+10	1	-1E+10	1	-1E+10	1
4902554	2	C	02/20/2021	08:52	-138.300	49.557	0	165.40	0	6.1750	0	33.6750	0	26.486	0	163.923	0	143.5	4	47.5	4	-1E+10	1	-1E+10	1	-1E+10	1	-1E+10	1	-1E+10	1	-1E+10	1
4902554	2	C	02/20/2021	08:52	-138.300	49.557	0	175.40	0	6.0140	0	33.7130	0	26.536	0	173.829	0	137.8	4	45.5	4	-1E+10	1	-1E+10	1	-1E+10	1	-1E+10	1	-1E+10	1	-1E+10	1
4902554	2	C	02/20/2021	08:52	-138.300	49.557	0	185.50	0	5.9230	0	33.7480	0	26.575	0	183.835	0	128.7	4	42.4	4	-1E+10	1	-1E+10	1	-1E+10	1	-1E+10	1	-1E+10	1	-1E+10	1
4902554	2	C	02/20/2021	08:52	-138.300	49.557	0	195.40	0	5.8180	0	33.7710	0	26.606	0	193.641	0	123.5	4	40.6	4	-1E+10	1	-1E+10	1	-1E+10	1	-1E+10	1	-1E+10	1	-1E+10	1
4902554	2	C	02/20/2021	08:52	-138.300	49.557	0	212.80	0	5.5640	0	33.7960	0	26.657	0	210.876	0	114.6	4	37.4	4	-1E+10	1	-1E+10	1	-1E+10	1	-1E+10	1	-1E+10	1	-1E+10	1
4902554	2	C	02/20/2021	08:52	-138.300	49.557	0	238.20	0	5.3350	0	33.8220	0	26.705	0	236.031	0	102.9	4	33.4	4	-1E+10	1	-1E+10	1	-1E+10	1	-1E+10	1	-1E+10	1	-1E+10	1
4902554	2	C	02/20/2021	08:52	-138.300	49.557	0	263.30	0	5.1470	0	33.8410	0	26.742	0	260.887	0	91.1	4	29.5	4	-1E+10	1	-1E+10	1	-1E+10	1	-1E+10	1	-1E+10	1	-1E+10	1
4902554	2	C	02/20/2021	08:52	-138.300	49.557	0	287.80	0	4.8930	0	33.8600	0	26.786	0	285.146	0	79.4	4	25.6	4	-1E+10	1	-1E+10	1	-1E+10	1	-1E+10	1	-1E+10	1	-1E+10	1
4902554	2	C	02/20/2021	08:52	-138.300	49.557	0	312.60	0	4.7170	0	33.8920	0	26.831	0	309.698	0	66.8	4	21.4	4	-1E+10	1	-1E+10	1	-1E+10	1	-1E+10	1	-1E+10	1	-1E+10	1
4902554	2	C	02/20/2021	08:52	-138.300	49.557	0	337.50	0	4.6170	0	33.9290	0	26.872	0	334.347	0	56.3	4	18.0	4	-1E+10	1	-1E+10	1	-1E+10	1	-1E+10	1	-1E+10	1	-1E+10	1
4902554	2	C	02/20/2021	08:52	-138.300	49.557	0	362.70	0	4.5630	0	33.9640	0	26.906	0	359.290	0	48.6	4	15.5	4	-1E+10	1	-1E+10	1	-1E+10	1	-1E+10	1	-1E+10	1	-1E+10	1
4902554	2	C	02/20/2021	08:52	-138.300	49.557	0	387.90	0	4.4990	0	33.9910	0	26.934	0	384.230	0	43.6	4	13.9	4	-1E+10	1	-1E+10	1	-1E+10	1	-1E+10	1	-1E+10	1	-1E+10	1
4902554	2	C	02/20/2021	08:52	-138.300	49.557	0	413.10	0	4.4210	0	34.0100	0	26.958	0	409.166	0	40.0	4	12.7	4	-1E+10	1	-1E+10	1	-1E+10	1	-1E+10	1	-1E+10	1	-1E+10	1
4902554	2	C	02/20/2021	08:52	-138.300	49.557	0	438.20	0	4.3340	0	34.0310	0	26.984	0	434.001	0	36.2	4	11.5	4	-1E+10	1	-1E+10	1	-1E+10	1	-1E+10	1	-1E+10	1	-1E+10	1
4902554	2	C	02/20/2021	08:52	-138.300	49.557	0	463.10	0	4.2590	0	34.0570	0	27.013	0	458.635	0	32.4	4	10.3	4	-1E+10	1	-1E+10	1	-1E+10	1	-1E+10	1	-1E+10	1	-1E+10	1
4902554	2	C	02/20/2021	08:52	-138.300	49.557	0	488.20	0	4.1980	0	34.0810	0	27.038	0	483.464	0	28.7	4	9.1	4	-1E+10	1	-1E+10	1	-1E+10	1	-1E+10	1	-1E+10	1	-1E+10	1
4902554	2	C	02/20/2021	08:52	-138.300	49.557	0	512.70	0	4.1410	0	34.1020	0	27.061	0	507.696	0	25.8	4	8.2	4	-1E+10	1	-1E+10	1	-1E+10	1	-1E+10	1	-1E+10	1	-1E+10	1
4902554	2	C	02/20/2021	08:52	-138.300	49.557	0	537.90	0	4.0710	0	34.1240	0	27.086	0	532.618	0	23.8	4	7.5	4	-1E+10	1	-1E+10	1	-1E+10	1	-1E+10	1	-1E+10	1	-1E+10	1
4902554	2	C	02/20/2021	08:52	-138.300	49.557	0	562.60	0	4.0000	0	34.1360	0	27.103	0	557.042	0	22.8	4	7.2	4	-1E+10	1	-1E+10	1	-1E+10	1	-1E+10	1	-1E+10	1	-1E+10	1
4902554	2	C	02/20/2021	08:52	-138.300	49.557	0	587.70	0	3.9270	0	34.1520	0	27.123	0	581.859	0	21.6	4	6.8	4	-1E+10	1	-1E+10	1	-1E+10	1	-1E+10	1	-1E+10	1	-1E+10	1
4902554	2	C	02/20/2021	08:52	-138.300	49.557	0	612.90	0	3.9030	0	34.1650	0	27.136	0	606.772	0	20.2	4	6.3	4	-1E+10	1	-1E+10	1	-1E+10	1	-1E+10	1	-1E+10	1	-1E+10	1
4902554	2	C	02/20/2021	08:52	-138.300	49.557	0	637.70	0	3.8570	0	34.1790	0	27.152	0	631.287	0	19.1	4	6.0	4	-1E+10	1	-1E+10	1	-1E+10	1	-1E+10	1	-1E+10	1	-1E+10	1
4902554	2	C	02/20/2021	08:52	-138.300	49.557	0	663.10	0	3.8230	0	34.1920	0	27.166	0	656.391	0	18.0	4	5.7	4	-1E+10	1	-1E+10	1	-1E+10	1	-1E+10	1	-1E+10	1	-1E+10	1
4902554	2	C	02/20/2021	08:52	-138.300	49.557	0	688.20	0	3.7860	0	34.2050	0	27.180	0	681.196	0	17.0	4	5.3	4	-1E+10	1	-1E+10	1	-1E+10	1	-1E+10	1	-1E+10	1	-1E+10	1
4902554	2	C	02/20/2021	08:52	-138.300	49.557	0	713.20	0	3.7150	0	34.2260	0	27.204	0	705.900	0	15.9	4	5.0	4	-1E+10	1	-1E+10	1	-1E+10	1	-1E+10	1	-1E+10	1	-1E+10	1
4902554	2	C	02/20/2021	08:52	-138.300	49.557	0	738.20	0	3.6560	0	34.2420	0	27.223	0	730.600	0	15.1	4	4.7	4	-1E+10	1	-1E+10	1	-1E+10	1	-1E+10	1	-1E+10	1	-1E+10	1
4902554	2	C	02/20/2021	08:52	-138.300	49.557	0	763.00	0	3.6030	0	34.2590	0	27.242	0	755.100	0	14.4	4	4.5	4	-1E+10	1	-1E+10	1	-1E+10	1	-1E+10	1	-1E+10	1	-1E+10	1
4902554	2	C	02/20/2021	08:52	-138.300	49.557	0	787.80	0	3.5520	0	34.2720	0	27.257	0	779.597	0	14.1	4	4.4	4	-1E+10	1	-1E+10	1	-1E+10	1	-1E+10	1	-1E+10	1	-1E+10	1
4902554	2	C	02/20/2021	08:52	-138.300	49.557	0	812.40	0	3.4870	0	34.2850	0	27.274	0	803.893	0	13.9	4	4.4	4	-1E+10	1	-1E+10	1	-1E+10	1	-1E+10	1	-1E+10	1	-1E+10	1
4902554	2	C	02/20/2021	08:52	-138.300	49.557	0	837.80	0	3.4170	0	34.2970	0	27.291	0	828.977	0	13.8	4	4.3	4	-1E+10	1	-1E+10	1	-1E+10	1	-1E+10	1	-1E+10	1	-1E+10	1
4902554	2	C	02/20/2021	08:52	-138.300	49.557	0	862.40	0	3.3580	0	34.3100	0	27.307	0	853.268	0	13.6	4	4.2	4	-1E+10	1	-1E+10	1	-1E+10	1	-1E+10	1	-1E+10	1	-1E+10	1
4902554	2	C	02/20/2021	08:52	-138.300	49.557	0	887.70	0	3.3130	0	34.3190	0	27.318	0	878.247	0	13.6	4	4.2	4	-1E+10	1	-1E+10	1	-1E+10	1	-1E+10	1	-1E+10	1	-1E+10	1
4902554	2	C	02/20/2021	08:52	-138.300	49.557	0	913.00	0	3.2670	0	34.3270	0	27.329	0	903.223	0	13.7	4	4.3	4	-1E+10	1	-1E+10	1	-1E+10	1	-1E+10	1	-1E+10	1	-1E+10	1
4902554	2	C	02/20/2021	08:52	-138.300	49.557	0	938.00	0	3.2150	0	34.3350	0	27.340	0	927.899	0	13.9	4	4.3	4	-1E+10	1	-1E+10	1	-1E+10	1	-1E+10	1	-1E+10	1	-1E+10	1
4902554	2	C	02/20/2021	08:52	-138.300	49.557	0	962.70	0	3.1700	0	34.3420	0	27.350	0	952.277	0	14.0	4	4.3	4	-1E+10	1	-1E+10	1	-1E+10	1	-1E+10	1	-1E+10	1	-1E+10	1
4902554	2	C	02/20/2021	08:52	-138.300	49.557	0	987.80	0	3.1230	0	34.3520	0	27.363	0	977.047	0	14.1	4	4.4	4	-1E+10	1	-1E+10	1	-1E+10	1	-1E+10	1	-1E+10	1	-1E+10	1
4902554	2	C	02/20/2021	08:52	-138.300	49.557	0	1013.00	0	3.0680	0	34.3620	0	27.376	0	1001.913	0	14.3	4	4.4	4	-1E+10	1	-1E+10	1	-1E+10	1	-1E+10	1	-1E+10	1	-1E+10	1
4902554	2	C	02/20/2021	08:52	-138.300	49.557	0	1037.70	0	3.0200	0	34.3700	0	27.387	0	1026.282	0	14.1	4	4.4	4	-1E+10	1	-1E+10	1	-1E+10	1	-1E+10	1	-1E+10	1	-1E+10	1
4902554	2	C	02/20/2021	08:52	-138.300	49.557	0	1062.90	0	2.9690	0	34.3790	0	27.399	0	1051.141	0	13.8	4	4.3	4	-1E+10	1	-1E+10	1	-1E+10	1	-1E+10	1	-1E+10	1	-1E+10	1
4902554	2	C	02/20/2021	08:52	-138.300	49.557	0	1087.90	0	2.9340	0	34.3860	0	27.408	0	1075.801	0	13.7	4	4.2	4	-1E+10	1	-1E+10	1	-1E+10	1	-1E+10	1	-1E+10	1	-1E+10	1
4902554	2	C	02/20/2021	08:52	-138.300	49.557	0	1113.00	0	2.8920	0	34.3930	0	27.417	0	1100.556	0	13.6	4	4.2	4	-1E+10	1	-1E+10	1	-1E+10	1	-1E+10	1	-1E+10	1	-1E+10	1
4902554	2	C	02/20/2021	08:52	-138.300	49.557	0	1138.00	0	2.8510	0	34.4020	0	27.428	0	1125.209	0	13.8	4	4.2	4	-1E+10	1	-1E+10	1	-1E+10	1	-1E+10	1	-1E+10	1	-1E+10	1
4902554	2	C	02/20/2021	08:52	-138.300	49.557	0	1162.80	0	2.8120	0	34.4100	0	27.438	0	1149.663	0	13.9	4	4.3	4	-1E+10	1	-1E+10	1	-1E+10	1	-1E+10	1	-1E+10	1	-1E+10	1
4902554	2	C	02/20/2021	08:52	-138.300	49.557	0	1187.90	0	2.7730	0	34.4170	0	27.447	0	1174.409	0	13.7	4	4.2	4	-1E+10	1	-1E+10	1	-1E+10	1	-1E+10	1	-1E+10	1	-1E+10	1
4902554	2	C	02/20/2021	08:52	-138.300	49.557	0	1213.10	0	2.7370	0	34.4260	0	27.458	0	1199.251	0	13.5	4	4.1	4	-1E+10	1	-1E+10	1	-1E+10	1	-1E+10	1	-1E+10	1	-1E+10	1
4902554	2	C	02/20/2021	08:52	-138.300	49.557	0	1238.20	0	2.7020	0	34.4330	0	27.466	0	1223.992	0	13.6	4	4.2	4	-1E+10	1	-1E+10	1	-1E+10	1	-1E+10	1	-1E+10	1	-1E+10	1
4902554	2	C	02/20/2021	08:52	-138.300	49.557	0	1262.80	0	2.6690	0	34.4390	0	27.474	0	1248.236	0	14.0	4	4.3	4	-1E+10	1	-1E+10	1	-1E+10	1	-1E+10	1	-1E+10	1	-1E+10	1
4902554	2	C	02/20/2021	08:52	-138.300	49.557	0	1287.90	0	2.6340	0	34.4460	0	27.483	0	1272.971	0	14.4	4	4.4	4	-1E+10	1	-1E+10	1	-1E+10	1	-1E+10	1	-1E+10	1	-1E+10	1
4902554	2	C	02/20/2021	08:52	-138.300	49.557	0	1313.10	0	2.6050	0	34.4510	0	27.490	0	1297.801	0	14.8	4	4.5	4	-1E+10	1	-1E+10	1	-1E+10	1	-1E+10	1	-1E+10	1	-1E+10	1
4902554	2	C	02/20/2021	08:52	-138.300	49.557	0	1338.00	0	2.5710	0	34.4580	0	27.498	0	1322.333	0	15.3	4	4.7	4	-1E+10	1	-1E+10	1	-1E+10	1	-1E+10	1	-1E+10	1	-1E+10	1
4902554	2	C	02/20/2021	08:52	-138.300	49.557	0	1362.80	0	2.5320	0	34.4650	0	27.507	0	1346.764	0	16.0	4	4.9	4	-1E+10	1	-1E+10	1	-1E+10	1	-1E+10	1	-1E+10	1	-1E+10	1
4902554	2	C	02/20/2021	08:52	-138.300	49.557	0	1387.60	0	2.4950	0	34.4720	0	27.516	0	1371.191	0	16.7	4	5.1	4	-1E+10	1	-1E+10	1	-1E+10	1	-1E+10	1	-1E+10	1	-1E+10	1
4902554	2	C	02/20/2021	08:52	-138.300	49.557	0	1413.60	0	2.4640	0	34.4780	0	27.524	0	1396.798	0	17.4	4	5.3	4	-1E+10	1	-1E+10	1	-1E+10	1	-1E+10	1	-1E+10	1	-1E+10	1
4902554	2	C	02/20/2021	08:52	-138.300	49.557	0	1437.70	0	2.4320	0	34.4850	0	27.532	0	1420.530	0	18.5	4	5.6	4	-1E+10	1	-1E+10	1	-1E+10	1	-1E+10	1	-1E+10	1	-1E+10	1
4902554	2	C	02/20/2021	08:52	-138.300	49.557	0	1462.60	0	2.3910	0	34.4920	0	27.541	0	1445.048	0	20.1	4	6.1	4	-1E+10	1	-1E+10	1	-1E+10	1	-1E+10	1	-1E+10	1	-1E+10	1
4902554	2	C	02/20/2021	08:52	-138.300	49.557	0	1487.40	0	2.3590	0	34.4980	0	27.549	0	1469.464	0	21.5	4	6.5	4	-1E+10	1	-1E+10	1	-1E+10	1	-1E+10	1	-1E+10	1	-1E+10	1
4902554	2	C	02/20/2021	08:52	-138.300	49.557	0	1512.50	0	2.3240	0	34.5050	0	27.557	0	1494.173	0	22.9	4	6.9	4	-1E+10	1	-1E+10	1	-1E+10	1	-1E+10	1	-1E+10	1	-1E+10	1
4902554	2	C	02/20/2021	08:52	-138.300	49.557	0	1537.50	0	2.2940	0	34.5110	0	27.565	0	1518.780	0	24.2	4	7.3	4	-1E+10	1	-1E+10	1	-1E+10	1	-1E+10	1	-1E+10	1	-1E+10	1
4902554	2	C	02/20/2021	08:52	-138.300	49.557	0	1562.50	0	2.2680	0	34.5170	0	27.572	0	1543.384	0	25.7	4	7.8	4	-1E+10	1	-1E+10	1	-1E+10	1	-1E+10	1	-1E+10	1	-1E+10	1
4902554	2	C	02/20/2021	08:52	-138.300	49.557	0	1587.80	0	2.2370	0	34.5230	0	27.579	0	1568.281	0	27.2	4	8.2	4	-1E+10	1	-1E+10	1	-1E+10	1	-1E+10	1	-1E+10	1	-1E+10	1
4902554	2	C	02/20/2021	08:52	-138.300	49.557	0	1612.80	0	2.2070	0	34.5290	0	27.586	0	1592.880	0	29.1	4	8.8	4	-1E+10	1	-1E+10	1	-1E+10	1	-1E+10	1	-1E+10	1	-1E+10	1
4902554	2	C	02/20/2021	08:52	-138.300	49.557	0	1637.90	0	2.1790	0	34.5340	0	27.593	0	1617.574	0	30.7	4	9.3	4	-1E+10	1	-1E+10	1	-1E+10	1	-1E+10	1	-1E+10	1	-1E+10	1
4902554	2	C	02/20/2021	08:52	-138.300	49.557	0	1663.30	0	2.1580	0	34.5390	0	27.599	0	1642.560	0	32.1	4	9.7	4	-1E+10	1	-1E+10	1	-1E+10	1	-1E+10	1	-1E+10	1	-1E+10	1
4902554	2	C	02/20/2021	08:52	-138.300	49.557	0	1687.50	0	2.1430	0	34.5420	0	27.602	0	1666.364	0	33.0	4	10.0	4	-1E+10	1	-1E+10	1	-1E+10	1	-1E+10	1	-1E+10	1	-1E+10	1
4902554	2	C	02/20/2021	08:52	-138.300	49.557	0	1712.70	0	2.1330	0	34.5440	0	27.605	0	1691.147	0	34.0	4	10.3	4	-1E+10	1	-1E+10	1	-1E+10	1	-1E+10	1	-1E+10	1	-1E+10	1
4902554	2	C	02/20/2021	08:52	-138.300	49.557	0	1737.90	0	2.1130	0	34.5480	0	27.610	0	1715.929	0	35.6	4	10.8	4	-1E+10	1	-1E+10	1	-1E+10	1	-1E+10	1	-1E+10	1	-1E+10	1
4902554	2	C	02/20/2021	08:52	-138.300	49.557	0	1762.80	0	2.0950	0	34.5520	0	27.615	0	1740.412	0	37.3	4	11.3	4	-1E+10	1	-1E+10	1	-1E+10	1	-1E+10	1	-1E+10	1	-1E+10	1
4902554	2	C	02/20/2021	08:52	-138.300	49.557	0	1787.80	0	2.0760	0	34.5560	0	27.619	0	1764.990	0	38.9	4	11.8	4	-1E+10	1	-1E+10	1	-1E+10	1	-1E+10	1	-1E+10	1	-1E+10	1
4902554	2	C	02/20/2021	08:52	-138.300	49.557	0	1812.80	0	2.0580	0	34.5590	0	27.623	0	1789.566	0	40.2	4	12.1	4	-1E+10	1	-1E+10	1	-1E+10	1	-1E+10	1	-1E+10	1	-1E+10	1
4902554	2	C	02/20/2021	08:52	-138.300	49.557	0	1837.90	0	2.0440	0	34.5620	0	27.627	0	1814.237	0	41.3	4	12.5	4	-1E+10	1	-1E+10	1	-1E+10	1	-1E+10	1	-1E+10	1	-1E+10	1
4902554	2	C	02/20/2021	08:52	-138.300	49.557	0	1862.90	0	2.0300	0	34.5650	0	27.631	0	1838.807	0	42.6	4	12.8	4	-1E+10	1	-1E+10	1	-1E+10	1	-1E+10	1	-1E+10	1	-1E+10	1
4902554	2	C	02/20/2021	08:52	-138.300	49.557	0	1888.00	0	2.0180	0	34.5680	0	27.634	0	1863.473	0	43.8	4	13.2	4	-1E+10	1	-1E+10	1	-1E+10	1	-1E+10	1	-1E+10	1	-1E+10	1
4902554	2	C	02/20/2021	08:52	-138.300	49.557	0	1912.80	0	2.0000	0	34.5720	0	27.639	0	1887.841	0	45.5	4	13.7	4	-1E+10	1	-1E+10	1	-1E+10	1	-1E+10	1	-1E+10	1	-1E+10	1
4902554	2	C	02/20/2021	08:52	-138.300	49.557	0	1937.60	0	1.9780	0	34.5760	0	27.644	0	1912.206	0	47.3	4	14.3	4	-1E+10	1	-1E+10	1	-1E+10	1	-1E+10	1	-1E+10	1	-1E+10	1
4902554	2	C	02/20/2021	08:52	-138.300	49.557	0	1962.60	0	1.9620	0	34.5790	0	27.648	0	1936.765	0	48.7	4	14.7	4	-1E+10	1	-1E+10	1	-1E+10	1	-1E+10	1	-1E+10	1	-1E+10	1
4902554	2	C	02/20/2021	08:52	-138.300	49.557	0	1988.10	0	1.9460	0	34.5820	0	27.651	0	1961.812	0	50.0	4	15.1	4	-1E+10	1	-1E+10	1	-1E+10	1	-1E+10	1	-1E+10	1	-1E+10	1
4902554	2	C	02/20/2021	08:52	-138.300	49.557	0	2006.50	0	1.9350	0	34.5850	0	27.655	0	1979.883	0	50.6	4	15.2	4	-1E+10	1	-1E+10	1	-1E+10	1	-1E+10	1	-1E+10	1	-1E+10	1
4902554	2	C	02/20/2021	08:52	-138.300	49.557	0																										
4902554	3	C	03/02/2021	08:48	-137.969	49.448	0	2.20	0	6.9970	0	32.3690	0	25.347	0	2.181	0	283.2	4	94.7	4	-1E+10	1	-1E+10	1	-1E+10	1	-1E+10	1	-1E+10	1	-1E+10	1
4902554	3	C	03/02/2021	08:48	-137.969	49.448	0	2.90	0	6.9990	0	32.3690	0	25.347	0	2.875	0	283.3	4	94.7	4	-1E+10	1	-1E+10	1	-1E+10	1	-1E+10	1	-1E+10	1	-1E+10	1
4902554	3	C	03/02/2021	08:48	-137.969	49.448	0	4.00	0	6.9990	0	32.3700	0	25.348	0	3.966	0	283.2	4	94.6	4	-1E+10	1	-1E+10	1	-1E+10	1	-1E+10	1	-1E+10	1	-1E+10	1
4902554	3	C	03/02/2021	08:48	-137.969	49.448	0	5.00	0	7.0000	0	32.3710	0	25.349	0	4.957	0	283.0	4	94.6	4	-1E+10	1	-1E+10	1	-1E+10	1	-1E+10	1	-1E+10	1	-1E+10	1
4902554	3	C	03/02/2021	08:48	-137.969	49.448	0	6.00	0	7.0000	0	32.3720	0	25.349	0	5.949	0	283.0	4	94.6	4	-1E+10	1	-1E+10	1	-1E+10	1	-1E+10	1	-1E+10	1	-1E+10	1
4902554	3	C	03/02/2021	08:48	-137.969	49.448	0	6.80	0	6.9990	0	32.3720	0	25.350	0	6.742	0	282.9	4	94.6	4	-1E+10	1	-1E+10	1	-1E+10	1	-1E+10	1	-1E+10	1	-1E+10	1
4902554	3	C	03/02/2021	08:48	-137.969	49.448	0	7.90	0	6.9990	0	32.3720	0	25.350	0	7.833	0	282.9	4	94.6	4	-1E+10	1	-1E+10	1	-1E+10	1	-1E+10	1	-1E+10	1	-1E+10	1
4902554	3	C	03/02/2021	08:48	-137.969	49.448	0	9.00	0	6.9970	0	32.3720	0	25.350	0	8.923	0	282.9	4	94.6	4	-1E+10	1	-1E+10	1	-1E+10	1	-1E+10	1	-1E+10	1	-1E+10	1
4902554	3	C	03/02/2021	08:48	-137.969	49.448	0	10.00	0	6.9960	0	32.3720	0	25.350	0	9.915	0	282.9	4	94.5	4	-1E+10	1	-1E+10	1	-1E+10	1	-1E+10	1	-1E+10	1	-1E+10	1
4902554	3	C	03/02/2021	08:48	-137.969	49.448	0	15.50	0	6.9850	0	32.3730	0	25.352	0	15.367	0	282.6	4	94.4	4	-1E+10	1	-1E+10	1	-1E+10	1	-1E+10	1	-1E+10	1	-1E+10	1
4902554	3	C	03/02/2021	08:48	-137.969	49.448	0	25.70	0	6.9570	0	32.3780	0	25.360	0	25.479	0	282.4	4	94.3	4	-1E+10	1	-1E+10	1	-1E+10	1	-1E+10	1	-1E+10	1	-1E+10	1
4902554	3	C	03/02/2021	08:48	-137.969	49.448	0	35.20	0	6.9530	0	32.3780	0	25.361	0	34.897	0	282.1	4	94.2	4	-1E+10	1	-1E+10	1	-1E+10	1	-1E+10	1	-1E+10	1	-1E+10	1
4902554	3	C	03/02/2021	08:48	-137.969	49.448	0	45.20	0	6.9680	0	32.3760	0	25.357	0	44.810	0	281.9	4	94.2	4	-1E+10	1	-1E+10	1	-1E+10	1	-1E+10	1	-1E+10	1	-1E+10	1
4902554	3	C	03/02/2021	08:48	-137.969	49.448	0	55.10	0	6.9630	0	32.3770	0	25.359	0	54.623	0	281.6	4	94.0	4	-1E+10	1	-1E+10	1	-1E+10	1	-1E+10	1	-1E+10	1	-1E+10	1
4902554	3	C	03/02/2021	08:48	-137.969	49.448	0	65.60	0	6.9400	0	32.3820	0	25.366	0	65.031	0	281.2	4	93.9	4	-1E+10	1	-1E+10	1	-1E+10	1	-1E+10	1	-1E+10	1	-1E+10	1
4902554	3	C	03/02/2021	08:48	-137.969	49.448	0	75.80	0	6.9400	0	32.3820	0	25.366	0	75.140	0	280.7	4	93.7	4	-1E+10	1	-1E+10	1	-1E+10	1	-1E+10	1	-1E+10	1	-1E+10	1
4902554	3	C	03/02/2021	08:48	-137.969	49.448	0	85.60	0	6.9410	0	32.3820	0	25.366	0	84.853	0	279.8	4	93.4	4	-1E+10	1	-1E+10	1	-1E+10	1	-1E+10	1	-1E+10	1	-1E+10	1
4902554	3	C	03/02/2021	08:48	-137.969	49.448	0	95.80	0	6.9430	0	32.3820	0	25.366	0	94.961	0	278.3	4	92.9	4	-1E+10	1	-1E+10	1	-1E+10	1	-1E+10	1	-1E+10	1	-1E+10	1
4902554	3	C	03/02/2021	08:48	-137.969	49.448	0	105.50	0	6.9430	0	32.3830	0	25.367	0	104.574	0	272.8	4	91.1	4	-1E+10	1	-1E+10	1	-1E+10	1	-1E+10	1	-1E+10	1	-1E+10	1
4902554	3	C	03/02/2021	08:48	-137.969	49.448	0	115.10	0	6.8950	0	32.5400	0	25.497	0	114.087	0	231.7	4	77.4	4	-1E+10	1	-1E+10	1	-1E+10	1	-1E+10	1	-1E+10	1	-1E+10	1
4902554	3	C	03/02/2021	08:48	-137.969	49.448	0	125.00	0	6.5960	0	33.2120	0	26.066	0	123.897	0	179.8	4	59.9	4	-1E+10	1	-1E+10	1	-1E+10	1	-1E+10	1	-1E+10	1	-1E+10	1
4902554	3	C	03/02/2021	08:48	-137.969	49.448	0	135.10	0	6.4110	0	33.4970	0	26.315	0	133.905	0	162.1	4	53.9	4	-1E+10	1	-1E+10	1	-1E+10	1	-1E+10	1	-1E+10	1	-1E+10	1
4902554	3	C	03/02/2021	08:48	-137.969	49.448	0	145.20	0	6.3180	0	33.5890	0	26.399	0	143.912	0	153.4	4	50.9	4	-1E+10	1	-1E+10	1	-1E+10	1	-1E+10	1	-1E+10	1	-1E+10	1
4902554	3	C	03/02/2021	08:48	-137.969	49.448	0	155.50	0	6.2250	0	33.6450	0	26.455	0	154.117	0	147.0	4	48.7	4	-1E+10	1	-1E+10	1	-1E+10	1	-1E+10	1	-1E+10	1	-1E+10	1
4902554	3	C	03/02/2021	08:48	-137.969	49.448	0	166.10	0	6.1280	0	33.6880	0	26.502	0	164.618	0	140.6	4	46.5	4	-1E+10	1	-1E+10	1	-1E+10	1	-1E+10	1	-1E+10	1	-1E+10	1
4902554	3	C	03/02/2021	08:48	-137.969	49.448	0	175.60	0	5.9960	0	33.7260	0	26.548	0	174.029	0	132.6	4	43.7	4	-1E+10	1	-1E+10	1	-1E+10	1	-1E+10	1	-1E+10	1	-1E+10	1
4902554	3	C	03/02/2021	08:48	-137.969	49.448	0	185.40	0	5.9240	0	33.7620	0	26.586	0	183.737	0	123.4	4	40.7	4	-1E+10	1	-1E+10	1	-1E+10	1	-1E+10	1	-1E+10	1	-1E+10	1
4902554	3	C	03/02/2021	08:48	-137.969	49.448	0	195.20	0	5.8240	0	33.7890	0	26.620	0	193.445	0	115.2	4	37.9	4	-1E+10	1	-1E+10	1	-1E+10	1	-1E+10	1	-1E+10	1	-1E+10	1
4902554	3	C	03/02/2021	08:48	-137.969	49.448	0	212.30	0	5.6310	0	33.8250	0	26.672	0	210.382	0	103.9	4	34.0	4	-1E+10	1	-1E+10	1	-1E+10	1	-1E+10	1	-1E+10	1	-1E+10	1
4902554	3	C	03/02/2021	08:48	-137.969	49.448	0	237.90	0	5.3330	0	33.8470	0	26.725	0	235.737	0	92.6	4	30.1	4	-1E+10	1	-1E+10	1	-1E+10	1	-1E+10	1	-1E+10	1	-1E+10	1
4902554	3	C	03/02/2021	08:48	-137.969	49.448	0	263.10	0	5.0290	0	33.8630	0	26.773	0	260.692	0	81.5	4	26.3	4	-1E+10	1	-1E+10	1	-1E+10	1	-1E+10	1	-1E+10	1	-1E+10	1
4902554	3	C	03/02/2021	08:48	-137.969	49.448	0	288.80	0	4.8220	0	33.8750	0	26.806	0	286.139	0	74.0	4	23.8	4	-1E+10	1	-1E+10	1	-1E+10	1	-1E+10	1	-1E+10	1	-1E+10	1
4902554	3	C	03/02/2021	08:48	-137.969	49.448	0	312.70	0	4.7070	0	33.8990	0	26.838	0	309.800	0	65.2	4	20.9	4	-1E+10	1	-1E+10	1	-1E+10	1	-1E+10	1	-1E+10	1	-1E+10	1
4902554	3	C	03/02/2021	08:48	-137.969	49.448	0	337.70	0	4.6140	0	33.9250	0	26.869	0	334.548	0	57.4	4	18.4	4	-1E+10	1	-1E+10	1	-1E+10	1	-1E+10	1	-1E+10	1	-1E+10	1
4902554	3	C	03/02/2021	08:48	-137.969	49.448	0	363.00	0	4.5600	0	33.9560	0	26.900	0	359.590	0	50.2	4	16.0	4	-1E+10	1	-1E+10	1	-1E+10	1	-1E+10	1	-1E+10	1	-1E+10	1
4902554	3	C	03/02/2021	08:48	-137.969	49.448	0	387.90	0	4.5170	0	33.9840	0	26.927	0	384.233	0	44.5	4	14.2	4	-1E+10	1	-1E+10	1	-1E+10	1	-1E+10	1	-1E+10	1	-1E+10	1
4902554	3	C	03/02/2021	08:48	-137.969	49.448	0	412.60	0	4.4140	0	34.0120	0	26.960	0	408.676	0	39.3	4	12.5	4	-1E+10	1	-1E+10	1	-1E+10	1	-1E+10	1	-1E+10	1	-1E+10	1
4902554	3	C	03/02/2021	08:48	-137.969	49.448	0	437.40	0	4.3100	0	34.0400	0	26.994	0	433.214	0	34.8	4	11.1	4	-1E+10	1	-1E+10	1	-1E+10	1	-1E+10	1	-1E+10	1	-1E+10	1
4902554	3	C	03/02/2021	08:48	-137.969	49.448	0	463.20	0	4.2580	0	34.0640	0	27.018	0	458.739	0	30.9	4	9.8	4	-1E+10	1	-1E+10	1	-1E+10	1	-1E+10	1	-1E+10	1	-1E+10	1
4902554	3	C	03/02/2021	08:48	-137.969	49.448	0	487.90	0	4.1990	0	34.0850	0	27.041	0	483.172	0	27.9	4	8.9	4	-1E+10	1	-1E+10	1	-1E+10	1	-1E+10	1	-1E+10	1	-1E+10	1
4902554	3	C	03/02/2021	08:48	-137.969	49.448	0	512.80	0	4.1240	0	34.1050	0	27.065	0	507.800	0	25.8	4	8.2	4	-1E+10	1	-1E+10	1	-1E+10	1	-1E+10	1	-1E+10	1	-1E+10	1
4902554	3	C	03/02/2021	08:48	-137.969	49.448	0	537.90	0	4.0840	0	34.1200	0	27.082	0	532.623	0	24.0	4	7.6	4	-1E+10	1	-1E+10	1	-1E+10	1	-1E+10	1	-1E+10	1	-1E+10	1
4902554	3	C	03/02/2021	08:48	-137.969	49.448	0	563.30	0	4.0260	0	34.1340	0	27.099	0	557.740	0	22.8	4	7.2	4	-1E+10	1	-1E+10	1	-1E+10	1	-1E+10	1	-1E+10	1	-1E+10	1
4902554	3	C	03/02/2021	08:48	-137.969	49.448	0	587.90	0	3.9340	0	34.1510	0	27.122	0	582.063	0	21.6	4	6.8	4	-1E+10	1	-1E+10	1	-1E+10	1	-1E+10	1	-1E+10	1	-1E+10	1
4902554	3	C	03/02/2021	08:48	-137.969	49.448	0	612.90	0	3.8790	0	34.1670	0	27.140	0	606.778	0	20.3	4	6.4	4	-1E+10	1	-1E+10	1	-1E+10	1	-1E+10	1	-1E+10	1	-1E+10	1
4902554	3	C	03/02/2021	08:48	-137.969	49.448	0	638.00	0	3.8170	0	34.1850	0	27.161	0	631.590	0	18.7	4	5.9	4	-1E+10	1	-1E+10	1	-1E+10	1	-1E+10	1	-1E+10	1	-1E+10	1
4902554	3	C	03/02/2021	08:48	-137.969	49.448	0	662.60	0	3.7930	0	34.2020	0	27.177	0	655.904	0	17.3	4	5.4	4	-1E+10	1	-1E+10	1	-1E+10	1	-1E+10	1	-1E+10	1	-1E+10	1
4902554	3	C	03/02/2021	08:48	-137.969	49.448	0	687.60	0	3.7490	0	34.2170	0	27.194	0	680.610	0	16.3	4	5.1	4	-1E+10	1	-1E+10	1	-1E+10	1	-1E+10	1	-1E+10	1	-1E+10	1
4902554	3	C	03/02/2021	08:48	-137.969	49.448	0	713.40	0	3.6770	0	34.2360	0	27.216	0	706.104	0	15.4	4	4.8	4	-1E+10	1	-1E+10	1	-1E+10	1	-1E+10	1	-1E+10	1	-1E+10	1
4902554	3	C	03/02/2021	08:48	-137.969	49.448	0	738.00	0	3.6150	0	34.2550	0	27.237	0	730.410	0	14.6	4	4.6	4	-1E+10	1	-1E+10	1	-1E+10	1	-1E+10	1	-1E+10	1	-1E+10	1
4902554	3	C	03/02/2021	08:48	-137.969	49.448	0	763.00	0	3.5630	0	34.2680	0	27.253	0	755.107	0	14.3	4	4.5	4	-1E+10	1	-1E+10	1	-1E+10	1	-1E+10	1	-1E+10	1	-1E+10	1
4902554	3	C	03/02/2021	08:48	-137.969	49.448	0	787.90	0	3.5110	0	34.2790	0	27.267	0	779.703	0	14.2	4	4.4	4	-1E+10	1	-1E+10	1	-1E+10	1	-1E+10	1	-1E+10	1	-1E+10	1
4902554	3	C	03/02/2021	08:48	-137.969	49.448	0	813.00	0	3.4660	0	34.2880	0	27.279	0	804.494	0	14.0	4	4.4	4	-1E+10	1	-1E+10	1	-1E+10	1	-1E+10	1	-1E+10	1	-1E+10	1
4902554	3	C	03/02/2021	08:48	-137.969	49.448	0	837.90	0	3.4070	0	34.2980	0	27.292	0	829.084	0	14.0	4	4.4	4	-1E+10	1	-1E+10	1	-1E+10	1	-1E+10	1	-1E+10	1	-1E+10	1
4902554	3	C	03/02/2021	08:48	-137.969	49.448	0	862.90	0	3.3550	0	34.3080	0	27.305	0	853.770	0	13.9	4	4.3	4	-1E+10	1	-1E+10	1	-1E+10	1	-1E+10	1	-1E+10	1	-1E+10	1
4902554	3	C	03/02/2021	08:48	-137.969	49.448	0	888.00	0	3.2910	0	34.3190	0	27.320	0	878.552	0	14.0	4	4.4	4	-1E+10	1	-1E+10	1	-1E+10	1	-1E+10	1	-1E+10	1	-1E+10	1
4902554	3	C	03/02/2021	08:48	-137.969	49.448	0	913.20	0	3.2330	0	34.3310	0	27.335	0	903.429	0	13.8	4	4.3	4	-1E+10	1	-1E+10	1	-1E+10	1	-1E+10	1	-1E+10	1	-1E+10	1
4902554	3	C	03/02/2021	08:48	-137.969	49.448	0	938.10	0	3.1800	0	34.3400	0	27.348	0	928.007	0	13.9	4	4.3	4	-1E+10	1	-1E+10	1	-1E+10	1	-1E+10	1	-1E+10	1	-1E+10	1
4902554	3	C	03/02/2021	08:48	-137.969	49.448	0	962.80	0	3.1200	0	34.3490	0	27.361	0	952.386	0	14.0	4	4.3	4	-1E+10	1	-1E+10	1	-1E+10	1	-1E+10	1	-1E+10	1	-1E+10	1
4902554	3	C	03/02/2021	08:48	-137.969	49.448	0	988.00	0	3.0650	0	34.3590	0	27.374	0	977.254	0	13.9	4	4.3	4	-1E+10	1	-1E+10	1	-1E+10	1	-1E+10	1	-1E+10	1	-1E+10	1
4902554	3	C	03/02/2021	08:48	-137.969	49.448	0	1012.70	0	3.0230	0	34.3660	0	27.383	0	1001.627	0	13.9	4	4.3	4	-1E+10	1	-1E+10	1	-1E+10	1	-1E+10	1	-1E+10	1	-1E+10	1
4902554	3	C	03/02/2021	08:48	-137.969	49.448	0	1037.40	0	2.9790	0	34.3750	0	27.394	0	1025.996	0	13.8	4	4.3	4	-1E+10	1	-1E+10	1	-1E+10	1	-1E+10	1	-1E+10	1	-1E+10	1
4902554	3	C	03/02/2021	08:48	-137.969	49.448	0	1062.50	0	2.9340	0	34.3840	0	27.406	0	1050.757	0	13.8	4	4.2	4	-1E+10	1	-1E+10	1	-1E+10	1	-1E+10	1	-1E+10	1	-1E+10	1
4902554	3	C	03/02/2021	08:48	-137.969	49.448	0	1088.50	0	2.8880	0	34.3930	0	27.417	0	1076.403	0	13.7	4	4.2	4	-1E+10	1	-1E+10	1	-1E+10	1	-1E+10	1	-1E+10	1	-1E+10	1
4902554	3	C	03/02/2021	08:48	-137.969	49.448	0	1112.80	0	2.8530	0	34.4010	0	27.427	0	1100.370	0	13.6	4	4.2	4	-1E+10	1	-1E+10	1	-1E+10	1	-1E+10	1	-1E+10	1	-1E+10	1
4902554	3	C	03/02/2021	08:48	-137.969	49.448	0	1137.90	0	2.8250	0	34.4070	0	27.434	0	1125.122	0	13.5	4	4.2	4	-1E+10	1	-1E+10	1	-1E+10	1	-1E+10	1	-1E+10	1	-1E+10	1
4902554	3	C	03/02/2021	08:48	-137.969	49.448	0	1163.10	0	2.7890	0	34.4140	0	27.443	0	1149.970	0	13.3	4	4.1	4	-1E+10	1	-1E+10	1	-1E+10	1	-1E+10	1	-1E+10	1	-1E+10	1
4902554	3	C	03/02/2021	08:48	-137.969	49.448	0	1188.20	0	2.7570	0	34.4220	0	27.453	0	1174.717	0	13.3	4	4.1	4	-1E+10	1	-1E+10	1	-1E+10	1	-1E+10	1	-1E+10	1	-1E+10	1
4902554	3	C	03/02/2021	08:48	-137.969	49.448	0	1213.20	0	2.7250	0	34.4290	0	27.461	0	1199.362	0	13.5	4	4.1	4	-1E+10	1	-1E+10	1	-1E+10	1	-1E+10	1	-1E+10	1	-1E+10	1
4902554	3	C	03/02/2021	08:48	-137.969	49.448	0	1238.20	0	2.6840	0	34.4360	0	27.470	0	1224.004	0	13.9	4	4.3	4	-1E+10	1	-1E+10	1	-1E+10	1	-1E+10	1	-1E+10	1	-1E+10	1
4902554	3	C	03/02/2021	08:48	-137.969	49.448	0	1263.00	0	2.6530	0	34.4420	0	27.478	0	1248.446	0	14.3	4	4.4	4	-1E+10	1	-1E+10	1	-1E+10	1	-1E+10	1	-1E+10	1	-1E+10	1
4902554	3	C	03/02/2021	08:48	-137.969	49.448	0	1288.00	0	2.6170	0	34.4490	0	27.487	0	1273.082	0	14.6	4	4.5	4	-1E+10	1	-1E+10	1	-1E+10	1	-1E+10	1	-1E+10	1	-1E+10	1
4902554	3	C	03/02/2021	08:48	-137.969	49.448	0	1313.60	0	2.5840	0	34.4550	0	27.494	0	1298.307	0	15.2	4	4.7	4	-1E+10	1	-1E+10	1	-1E+10	1	-1E+10	1	-1E+10	1	-1E+10	1
4902554	3	C	03/02/2021	08:48	-137.969	49.448	0	1337.80	0	2.5530	0	34.4610	0	27.502	0	1322.149	0	15.9	4	4.9	4	-1E+10	1	-1E+10	1	-1E+10	1	-1E+10	1	-1E+10	1	-1E+10	1
4902554	3	C	03/02/2021	08:48	-137.969	49.448	0	1363.00	0	2.5130	0	34.4680	0	27.511	0	1346.974	0	16.6	4	5.1	4	-1E+10	1	-1E+10	1	-1E+10	1	-1E+10	1	-1E+10	1	-1E+10	1
4902554	3	C	03/02/2021	08:48	-137.969	49.448	0	1387.90	0	2.4860	0	34.4740	0	27.518	0	1371.500	0	17.1	4	5.2	4	-1E+10	1	-1E+10	1	-1E+10	1	-1E+10	1	-1E+10	1	-1E+10	1
4902554	3	C	03/02/2021	08:48	-137.969	49.448	0	1412.70	0	2.4610	0	34.4790	0	27.525	0	1395.925	0	18.1	4	5.5	4	-1E+10	1	-1E+10	1	-1E+10	1	-1E+10	1	-1E+10	1	-1E+10	1
4902554	3	C	03/02/2021	08:48	-137.969	49.448	0	1438.30	0	2.4260	0	34.4860	0	27.533	0	1421.135	0	19.3	4	5.9	4	-1E+10	1	-1E+10	1	-1E+10	1	-1E+10	1	-1E+10	1	-1E+10	1
4902554	3	C	03/02/2021	08:48	-137.969	49.448	0	1462.60	0	2.4000	0	34.4910	0	27.540	0	1445.062	0	19.9	4	6.1	4	-1E+10	1	-1E+10	1	-1E+10	1	-1E+10	1	-1E+10	1	-1E+10	1
4902554	3	C	03/02/2021	08:48	-137.969	49.448	0	1488.00	0	2.3730	0	34.4960	0	27.546	0	1470.069	0	20.7	4	6.3	4	-1E+10	1	-1E+10	1	-1E+10	1	-1E+10	1	-1E+10	1	-1E+10	1
4902554	3	C	03/02/2021	08:48	-137.969	49.448	0	1513.20	0	2.3530	0	34.5000	0	27.551	0	1494.876	0	21.4	4	6.5	4	-1E+10	1	-1E+10	1	-1E+10	1	-1E+10	1	-1E+10	1	-1E+10	1
4902554	3	C	03/02/2021	08:48	-137.969	49.448	0	1537.80	0	2.3330	0	34.5040	0	27.556	0	1519.090	0	22.4	4	6.8	4	-1E+10	1	-1E+10	1	-1E+10	1	-1E+10	1	-1E+10	1	-1E+10	1
4902554	3	C	03/02/2021	08:48	-137.969	49.448	0	1562.80	0	2.3090	0	34.5090	0	27.562	0	1543.695	0	23.3	4	7.1	4	-1E+10	1	-1E+10	1	-1E+10	1	-1E+10	1	-1E+10	1	-1E+10	1
4902554	3	C	03/02/2021	08:48	-137.969	49.448	0	1587.90	0	2.2910	0	34.5130	0	27.567	0	1568.395	0	24.4	4	7.4	4	-1E+10	1	-1E+10	1	-1E+10	1	-1E+10	1	-1E+10	1	-1E+10	1
4902554	3	C	03/02/2021	08:48	-137.969	49.448	0	1612.60	0	2.2690	0	34.5170	0	27.572	0	1592.699	0	25.5	4	7.7	4	-1E+10	1	-1E+10	1	-1E+10	1	-1E+10	1	-1E+10	1	-1E+10	1
4902554	3	C	03/02/2021	08:48	-137.969	49.448	0	1637.90	0	2.2440	0	34.5220	0	27.578	0	1617.590	0	27.0	4	8.2	4	-1E+10	1	-1E+10	1	-1E+10	1	-1E+10	1	-1E+10	1	-1E+10	1
4902554	3	C	03/02/2021	08:48	-137.969	49.448	0	1662.90	0	2.2180	0	34.5280	0	27.585	0	1642.183	0	28.6	4	8.7	4	-1E+10	1	-1E+10	1	-1E+10	1	-1E+10	1	-1E+10	1	-1E+10	1
4902554	3	C	03/02/2021	08:48	-137.969	49.448	0	1688.20	0	2.1980	0	34.5320	0	27.590	0	1667.069	0	29.9	4	9.1	4	-1E+10	1	-1E+10	1	-1E+10	1	-1E+10	1	-1E+10	1	-1E+10	1
4902554	3	C	03/02/2021	08:48	-137.969	49.448	0	1713.40	0	2.1770	0	34.5360	0	27.595	0	1691.853	0	31.2	4	9.5	4	-1E+10	1	-1E+10	1	-1E+10	1	-1E+10	1	-1E+10	1	-1E+10	1
4902554	3	C	03/02/2021	08:48	-137.969	49.448	0	1738.10	0	2.1530	0	34.5410	0	27.601	0	1716.142	0	33.2	4	10.0	4	-1E+10	1	-1E+10	1	-1E+10	1	-1E+10	1	-1E+10	1	-1E+10	1
4902554	3	C	03/02/2021	08:48	-137.969	49.448	0	1762.70	0	2.1310	0	34.5460	0	27.607	0	1740.331	0	34.8	4	10.5	4	-1E+10	1	-1E+10	1	-1E+10	1	-1E+10	1	-1E+10	1	-1E+10	1
4902554	3	C	03/02/2021	08:48	-137.969	49.448	0	1787.20	0	2.1100	0	34.5500	0	27.612	0	1764.418	0	36.5	4	11.0	4	-1E+10	1	-1E+10	1	-1E+10	1	-1E+10	1	-1E+10	1	-1E+10	1
4902554	3	C	03/02/2021	08:48	-137.969	49.448	0	1813.20	0	2.0860	0	34.5550	0	27.618	0	1789.977	0	38.3	4	11.6	4	-1E+10	1	-1E+10	1	-1E+10	1	-1E+10	1	-1E+10	1	-1E+10	1
4902554	3	C	03/02/2021	08:48	-137.969	49.448	0	1838.00	0	2.0660	0	34.5590	0	27.623	0	1814.354	0	39.8	4	12.0	4	-1E+10	1	-1E+10	1	-1E+10	1	-1E+10	1	-1E+10	1	-1E+10	1
4902554	3	C	03/02/2021	08:48	-137.969	49.448	0	1863.00	0	2.0480	0	34.5620	0	27.627	0	1838.924	0	41.3	4	12.5	4	-1E+10	1	-1E+10	1	-1E+10	1	-1E+10	1	-1E+10	1	-1E+10	1
4902554	3	C	03/02/2021	08:48	-137.969	49.448	0	1887.70	0	2.0330	0	34.5650	0	27.631	0	1863.197	0	42.5	4	12.8	4	-1E+10	1	-1E+10	1	-1E+10	1	-1E+10	1	-1E+10	1	-1E+10	1
4902554	3	C	03/02/2021	08:48	-137.969	49.448	0	1913.00	0	2.0190	0	34.5680	0	27.634	0	1888.056	0	43.9	4	13.2	4	-1E+10	1	-1E+10	1	-1E+10	1	-1E+10	1	-1E+10	1	-1E+10	1
4902554	3	C	03/02/2021	08:48	-137.969	49.448	0	1938.10	0	1.9960	0	34.5730	0	27.640	0	1912.716	0	45.5	4	13.7	4	-1E+10	1	-1E+10	1	-1E+10	1	-1E+10	1	-1E+10	1	-1E+10	1
4902554	3	C	03/02/2021	08:48	-137.969	49.448	0	1958.60	0	1.9830	0	34.5750	0	27.643	0	1932.855	0	45.7	4	13.8	4	-1E+10	1	-1E+10	1	-1E+10	1	-1E+10	1	-1E+10	1	-1E+10	1
4902554	3	C	03/02/2021	08:48	-137.969	49.448	0																										
4902554	4	C	03/12/2021	09:00	-137.681	49.455	0	1.30	0	7.0770	0	32.3610	0	25.330	0	1.289	0	284.0	4	95.1	4	-1E+10	1	-1E+10	1	-1E+10	1	-1E+10	1	-1E+10	1	-1E+10	1
4902554	4	C	03/12/2021	09:00	-137.681	49.455	0	2.10	0	7.0770	0	32.3610	0	25.330	0	2.082	0	284.0	4	95.1	4	-1E+10	1	-1E+10	1	-1E+10	1	-1E+10	1	-1E+10	1	-1E+10	1
4902554	4	C	03/12/2021	09:00	-137.681	49.455	0	3.00	0	7.0760	0	32.3620	0	25.331	0	2.974	0	283.9	4	95.1	4	-1E+10	1	-1E+10	1	-1E+10	1	-1E+10	1	-1E+10	1	-1E+10	1
4902554	4	C	03/12/2021	09:00	-137.681	49.455	0	4.00	0	7.0760	0	32.3630	0	25.332	0	3.966	0	283.9	4	95.0	4	-1E+10	1	-1E+10	1	-1E+10	1	-1E+10	1	-1E+10	1	-1E+10	1
4902554	4	C	03/12/2021	09:00	-137.681	49.455	0	5.10	0	7.0770	0	32.3630	0	25.332	0	5.056	0	283.8	4	95.0	4	-1E+10	1	-1E+10	1	-1E+10	1	-1E+10	1	-1E+10	1	-1E+10	1
4902554	4	C	03/12/2021	09:00	-137.681	49.455	0	6.10	0	7.0770	0	32.3630	0	25.332	0	6.048	0	283.8	4	95.0	4	-1E+10	1	-1E+10	1	-1E+10	1	-1E+10	1	-1E+10	1	-1E+10	1
4902554	4	C	03/12/2021	09:00	-137.681	49.455	0	7.00	0	7.0770	0	32.3620	0	25.331	0	6.940	0	283.7	4	95.0	4	-1E+10	1	-1E+10	1	-1E+10	1	-1E+10	1	-1E+10	1	-1E+10	1
4902554	4	C	03/12/2021	09:00	-137.681	49.455	0	8.10	0	7.0770	0	32.3630	0	25.332	0	8.031	0	283.7	4	95.0	4	-1E+10	1	-1E+10	1	-1E+10	1	-1E+10	1	-1E+10	1	-1E+10	1
4902554	4	C	03/12/2021	09:00	-137.681	49.455	0	9.10	0	7.0760	0	32.3630	0	25.332	0	9.022	0	283.7	4	95.0	4	-1E+10	1	-1E+10	1	-1E+10	1	-1E+10	1	-1E+10	1	-1E+10	1
4902554	4	C	03/12/2021	09:00	-137.681	49.455	0	10.00	0	7.0750	0	32.3630	0	25.332	0	9.915	0	283.6	4	95.0	4	-1E+10	1	-1E+10	1	-1E+10	1	-1E+10	1	-1E+10	1	-1E+10	1
4902554	4	C	03/12/2021	09:00	-137.681	49.455	0	15.30	0	7.0690	0	32.3640	0	25.334	0	15.169	0	283.3	4	94.8	4	-1E+10	1	-1E+10	1	-1E+10	1	-1E+10	1	-1E+10	1	-1E+10	1
4902554	4	C	03/12/2021	09:00	-137.681	49.455	0	25.40	0	7.0230	0	32.3700	0	25.345	0	25.182	0	282.2	4	94.4	4	-1E+10	1	-1E+10	1	-1E+10	1	-1E+10	1	-1E+10	1	-1E+10	1
4902554	4	C	03/12/2021	09:00	-137.681	49.455	0	35.80	0	6.9820	0	32.3760	0	25.355	0	35.492	0	281.1	4	93.9	4	-1E+10	1	-1E+10	1	-1E+10	1	-1E+10	1	-1E+10	1	-1E+10	1
4902554	4	C	03/12/2021	09:00	-137.681	49.455	0	45.10	0	6.9720	0	32.3770	0	25.358	0	44.711	0	280.8	4	93.8	4	-1E+10	1	-1E+10	1	-1E+10	1	-1E+10	1	-1E+10	1	-1E+10	1
4902554	4	C	03/12/2021	09:00	-137.681	49.455	0	55.20	0	6.9670	0	32.3780	0	25.359	0	54.722	0	280.4	4	93.6	4	-1E+10	1	-1E+10	1	-1E+10	1	-1E+10	1	-1E+10	1	-1E+10	1
4902554	4	C	03/12/2021	09:00	-137.681	49.455	0	65.60	0	6.9620	0	32.3790	0	25.361	0	65.031	0	279.9	4	93.5	4	-1E+10	1	-1E+10	1	-1E+10	1	-1E+10	1	-1E+10	1	-1E+10	1
4902554	4	C	03/12/2021	09:00	-137.681	49.455	0	75.70	0	6.9450	0	32.3820	0	25.365	0	75.041	0	279.0	4	93.2	4	-1E+10	1	-1E+10	1	-1E+10	1	-1E+10	1	-1E+10	1	-1E+10	1
4902554	4	C	03/12/2021	09:00	-137.681	49.455	0	85.60	0	6.9410	0	32.3860	0	25.369	0	84.853	0	277.4	4	92.6	4	-1E+10	1	-1E+10	1	-1E+10	1	-1E+10	1	-1E+10	1	-1E+10	1
4902554	4	C	03/12/2021	09:00	-137.681	49.455	0	95.50	0	6.9370	0	32.3950	0	25.377	0	94.664	0	274.3	4	91.6	4	-1E+10	1	-1E+10	1	-1E+10	1	-1E+10	1	-1E+10	1	-1E+10	1
4902554	4	C	03/12/2021	09:00	-137.681	49.455	0	106.00	0	6.8890	0	32.4240	0	25.406	0	105.070	0	261.8	4	87.3	4	-1E+10	1	-1E+10	1	-1E+10	1	-1E+10	1	-1E+10	1	-1E+10	1
4902554	4	C	03/12/2021	09:00	-137.681	49.455	0	115.70	0	6.7550	0	32.6870	0	25.631	0	114.682	0	220.4	4	73.4	4	-1E+10	1	-1E+10	1	-1E+10	1	-1E+10	1	-1E+10	1	-1E+10	1
4902554	4	C	03/12/2021	09:00	-137.681	49.455	0	125.60	0	6.4140	0	33.2240	0	26.099	0	124.492	0	174.4	4	57.9	4	-1E+10	1	-1E+10	1	-1E+10	1	-1E+10	1	-1E+10	1	-1E+10	1
4902554	4	C	03/12/2021	09:00	-137.681	49.455	0	135.50	0	6.2980	0	33.5040	0	26.335	0	134.301	0	155.2	4	51.5	4	-1E+10	1	-1E+10	1	-1E+10	1	-1E+10	1	-1E+10	1	-1E+10	1
4902554	4	C	03/12/2021	09:00	-137.681	49.455	0	145.50	0	6.2310	0	33.6190	0	26.434	0	144.209	0	144.9	4	48.0	4	-1E+10	1	-1E+10	1	-1E+10	1	-1E+10	1	-1E+10	1	-1E+10	1
4902554	4	C	03/12/2021	09:00	-137.681	49.455	0	155.60	0	6.1160	0	33.6960	0	26.510	0	154.216	0	137.8	4	45.6	4	-1E+10	1	-1E+10	1	-1E+10	1	-1E+10	1	-1E+10	1	-1E+10	1
4902554	4	C	03/12/2021	09:00	-137.681	49.455	0	165.70	0	6.0280	0	33.7230	0	26.542	0	164.222	0	132.4	4	43.7	4	-1E+10	1	-1E+10	1	-1E+10	1	-1E+10	1	-1E+10	1	-1E+10	1
4902554	4	C	03/12/2021	09:00	-137.681	49.455	0	175.60	0	5.8760	0	33.7550	0	26.586	0	174.029	0	126.6	4	41.6	4	-1E+10	1	-1E+10	1	-1E+10	1	-1E+10	1	-1E+10	1	-1E+10	1
4902554	4	C	03/12/2021	09:00	-137.681	49.455	0	185.10	0	5.7900	0	33.7700	0	26.609	0	183.440	0	119.5	4	39.2	4	-1E+10	1	-1E+10	1	-1E+10	1	-1E+10	1	-1E+10	1	-1E+10	1
4902554	4	C	03/12/2021	09:00	-137.681	49.455	0	195.10	0	5.6940	0	33.8030	0	26.647	0	193.346	0	110.9	4	36.3	4	-1E+10	1	-1E+10	1	-1E+10	1	-1E+10	1	-1E+10	1	-1E+10	1
4902554	4	C	03/12/2021	09:00	-137.681	49.455	0	212.80	0	5.5170	0	33.8280	0	26.688	0	210.878	0	101.0	4	33.0	4	-1E+10	1	-1E+10	1	-1E+10	1	-1E+10	1	-1E+10	1	-1E+10	1
4902554	4	C	03/12/2021	09:00	-137.681	49.455	0	238.10	0	5.2810	0	33.8530	0	26.736	0	235.935	0	89.9	4	29.2	4	-1E+10	1	-1E+10	1	-1E+10	1	-1E+10	1	-1E+10	1	-1E+10	1
4902554	4	C	03/12/2021	09:00	-137.681	49.455	0	263.00	0	5.0440	0	33.8580	0	26.767	0	260.592	0	83.4	4	26.9	4	-1E+10	1	-1E+10	1	-1E+10	1	-1E+10	1	-1E+10	1	-1E+10	1
4902554	4	C	03/12/2021	09:00	-137.681	49.455	0	288.20	0	4.8830	0	33.8770	0	26.801	0	285.544	0	74.2	4	23.9	4	-1E+10	1	-1E+10	1	-1E+10	1	-1E+10	1	-1E+10	1	-1E+10	1
4902554	4	C	03/12/2021	09:00	-137.681	49.455	0	313.80	0	4.7620	0	33.9000	0	26.833	0	310.889	0	65.0	4	20.9	4	-1E+10	1	-1E+10	1	-1E+10	1	-1E+10	1	-1E+10	1	-1E+10	1
4902554	4	C	03/12/2021	09:00	-137.681	49.455	0	337.50	0	4.6520	0	33.9350	0	26.873	0	334.350	0	55.3	4	17.7	4	-1E+10	1	-1E+10	1	-1E+10	1	-1E+10	1	-1E+10	1	-1E+10	1
4902554	4	C	03/12/2021	09:00	-137.681	49.455	0	362.40	0	4.5630	0	33.9650	0	26.906	0	358.996	0	48.5	4	15.5	4	-1E+10	1	-1E+10	1	-1E+10	1	-1E+10	1	-1E+10	1	-1E+10	1
4902554	4	C	03/12/2021	09:00	-137.681	49.455	0	387.60	0	4.4960	0	33.9890	0	26.933	0	383.936	0	44.0	4	14.0	4	-1E+10	1	-1E+10	1	-1E+10	1	-1E+10	1	-1E+10	1	-1E+10	1
4902554	4	C	03/12/2021	09:00	-137.681	49.455	0	412.70	0	4.4410	0	34.0050	0	26.952	0	408.774	0	40.9	4	13.0	4	-1E+10	1	-1E+10	1	-1E+10	1	-1E+10	1	-1E+10	1	-1E+10	1
4902554	4	C	03/12/2021	09:00	-137.681	49.455	0	437.80	0	4.3640	0	34.0250	0	26.976	0	433.609	0	37.3	4	11.9	4	-1E+10	1	-1E+10	1	-1E+10	1	-1E+10	1	-1E+10	1	-1E+10	1
4902554	4	C	03/12/2021	09:00	-137.681	49.455	0	462.90	0	4.2950	0	34.0480	0	27.002	0	458.441	0	33.3	4	10.6	4	-1E+10	1	-1E+10	1	-1E+10	1	-1E+10	1	-1E+10	1	-1E+10	1
4902554	4	C	03/12/2021	09:00	-137.681	49.455	0	488.10	0	4.2370	0	34.0700	0	27.026	0	483.369	0	30.1	4	9.5	4	-1E+10	1	-1E+10	1	-1E+10	1	-1E+10	1	-1E+10	1	-1E+10	1
4902554	4	C	03/12/2021	09:00	-137.681	49.455	0	513.00	0	4.1770	0	34.0900	0	27.048	0	507.998	0	27.2	4	8.6	4	-1E+10	1	-1E+10	1	-1E+10	1	-1E+10	1	-1E+10	1	-1E+10	1
4902554	4	C	03/12/2021	09:00	-137.681	49.455	0	538.00	0	4.0970	0	34.1130	0	27.075	0	532.722	0	24.7	4	7.8	4	-1E+10	1	-1E+10	1	-1E+10	1	-1E+10	1	-1E+10	1	-1E+10	1
4902554	4	C	03/12/2021	09:00	-137.681	49.455	0	563.60	0	4.0360	0	34.1340	0	27.098	0	558.036	0	22.6	4	7.1	4	-1E+10	1	-1E+10	1	-1E+10	1	-1E+10	1	-1E+10	1	-1E+10	1
4902554	4	C	03/12/2021	09:00	-137.681	49.455	0	587.60	0	3.9530	0	34.1520	0	27.121	0	581.766	0	21.3	4	6.7	4	-1E+10	1	-1E+10	1	-1E+10	1	-1E+10	1	-1E+10	1	-1E+10	1
4902554	4	C	03/12/2021	09:00	-137.681	49.455	0	612.90	0	3.8790	0	34.1670	0	27.140	0	606.778	0	20.1	4	6.3	4	-1E+10	1	-1E+10	1	-1E+10	1	-1E+10	1	-1E+10	1	-1E+10	1
4902554	4	C	03/12/2021	09:00	-137.681	49.455	0	637.60	0	3.8260	0	34.1880	0	27.163	0	631.194	0	18.3	4	5.7	4	-1E+10	1	-1E+10	1	-1E+10	1	-1E+10	1	-1E+10	1	-1E+10	1
4902554	4	C	03/12/2021	09:00	-137.681	49.455	0	662.90	0	3.7770	0	34.2070	0	27.183	0	656.200	0	17.0	4	5.3	4	-1E+10	1	-1E+10	1	-1E+10	1	-1E+10	1	-1E+10	1	-1E+10	1
4902554	4	C	03/12/2021	09:00	-137.681	49.455	0	687.50	0	3.7270	0	34.2220	0	27.200	0	680.511	0	16.2	4	5.1	4	-1E+10	1	-1E+10	1	-1E+10	1	-1E+10	1	-1E+10	1	-1E+10	1
4902554	4	C	03/12/2021	09:00	-137.681	49.455	0	712.60	0	3.6860	0	34.2350	0	27.214	0	705.313	0	15.5	4	4.8	4	-1E+10	1	-1E+10	1	-1E+10	1	-1E+10	1	-1E+10	1	-1E+10	1
4902554	4	C	03/12/2021	09:00	-137.681	49.455	0	737.90	0	3.6320	0	34.2500	0	27.232	0	730.310	0	14.9	4	4.7	4	-1E+10	1	-1E+10	1	-1E+10	1	-1E+10	1	-1E+10	1	-1E+10	1
4902554	4	C	03/12/2021	09:00	-137.681	49.455	0	763.10	0	3.5700	0	34.2660	0	27.251	0	755.206	0	14.3	4	4.5	4	-1E+10	1	-1E+10	1	-1E+10	1	-1E+10	1	-1E+10	1	-1E+10	1
4902554	4	C	03/12/2021	09:00	-137.681	49.455	0	787.90	0	3.5100	0	34.2790	0	27.267	0	779.703	0	14.1	4	4.4	4	-1E+10	1	-1E+10	1	-1E+10	1	-1E+10	1	-1E+10	1	-1E+10	1
4902554	4	C	03/12/2021	09:00	-137.681	49.455	0	812.50	0	3.4550	0	34.2900	0	27.281	0	803.999	0	14.0	4	4.4	4	-1E+10	1	-1E+10	1	-1E+10	1	-1E+10	1	-1E+10	1	-1E+10	1
4902554	4	C	03/12/2021	09:00	-137.681	49.455	0	837.60	0	3.4050	0	34.3000	0	27.294	0	828.787	0	13.7	4	4.3	4	-1E+10	1	-1E+10	1	-1E+10	1	-1E+10	1	-1E+10	1	-1E+10	1
4902554	4	C	03/12/2021	09:00	-137.681	49.455	0	862.80	0	3.3540	0	34.3110	0	27.308	0	853.670	0	13.6	4	4.2	4	-1E+10	1	-1E+10	1	-1E+10	1	-1E+10	1	-1E+10	1	-1E+10	1
4902554	4	C	03/12/2021	09:00	-137.681	49.455	0	887.90	0	3.3020	0	34.3220	0	27.322	0	878.452	0	13.5	4	4.2	4	-1E+10	1	-1E+10	1	-1E+10	1	-1E+10	1	-1E+10	1	-1E+10	1
4902554	4	C	03/12/2021	09:00	-137.681	49.455	0	913.40	0	3.2380	0	34.3300	0	27.334	0	903.626	0	13.8	4	4.3	4	-1E+10	1	-1E+10	1	-1E+10	1	-1E+10	1	-1E+10	1	-1E+10	1
4902554	4	C	03/12/2021	09:00	-137.681	49.455	0	937.50	0	3.1760	0	34.3410	0	27.349	0	927.415	0	13.9	4	4.3	4	-1E+10	1	-1E+10	1	-1E+10	1	-1E+10	1	-1E+10	1	-1E+10	1
4902554	4	C	03/12/2021	09:00	-137.681	49.455	0	963.00	0	3.1260	0	34.3500	0	27.361	0	952.582	0	14.0	4	4.3	4	-1E+10	1	-1E+10	1	-1E+10	1	-1E+10	1	-1E+10	1	-1E+10	1
4902554	4	C	03/12/2021	09:00	-137.681	49.455	0	988.60	0	3.0850	0	34.3580	0	27.371	0	977.846	0	14.0	4	4.3	4	-1E+10	1	-1E+10	1	-1E+10	1	-1E+10	1	-1E+10	1	-1E+10	1
4902554	4	C	03/12/2021	09:00	-137.681	49.455	0	1012.60	0	3.0400	0	34.3650	0	27.381	0	1001.527	0	14.0	4	4.3	4	-1E+10	1	-1E+10	1	-1E+10	1	-1E+10	1	-1E+10	1	-1E+10	1
4902554	4	C	03/12/2021	09:00	-137.681	49.455	0	1038.10	0	2.9980	0	34.3730	0	27.391	0	1026.686	0	13.9	4	4.3	4	-1E+10	1	-1E+10	1	-1E+10	1	-1E+10	1	-1E+10	1	-1E+10	1
4902554	4	C	03/12/2021	09:00	-137.681	49.455	0	1062.90	0	2.9650	0	34.3800	0	27.400	0	1051.151	0	14.0	4	4.3	4	-1E+10	1	-1E+10	1	-1E+10	1	-1E+10	1	-1E+10	1	-1E+10	1
4902554	4	C	03/12/2021	09:00	-137.681	49.455	0	1087.70	0	2.9310	0	34.3880	0	27.409	0	1075.613	0	14.0	4	4.3	4	-1E+10	1	-1E+10	1	-1E+10	1	-1E+10	1	-1E+10	1	-1E+10	1
4902554	4	C	03/12/2021	09:00	-137.681	49.455	0	1113.20	0	2.8910	0	34.3950	0	27.419	0	1100.763	0	13.9	4	4.3	4	-1E+10	1	-1E+10	1	-1E+10	1	-1E+10	1	-1E+10	1	-1E+10	1
4902554	4	C	03/12/2021	09:00	-137.681	49.455	0	1138.10	0	2.8540	0	34.4020	0	27.428	0	1125.318	0	13.6	4	4.2	4	-1E+10	1	-1E+10	1	-1E+10	1	-1E+10	1	-1E+10	1	-1E+10	1
4902554	4	C	03/12/2021	09:00	-137.681	49.455	0	1163.00	0	2.8110	0	34.4100	0	27.438	0	1149.871	0	13.2	4	4.1	4	-1E+10	1	-1E+10	1	-1E+10	1	-1E+10	1	-1E+10	1	-1E+10	1
4902554	4	C	03/12/2021	09:00	-137.681	49.455	0	1188.30	0	2.7770	0	34.4180	0	27.448	0	1174.814	0	13.3	4	4.1	4	-1E+10	1	-1E+10	1	-1E+10	1	-1E+10	1	-1E+10	1	-1E+10	1
4902554	4	C	03/12/2021	09:00	-137.681	49.455	0	1213.00	0	2.7470	0	34.4240	0	27.455	0	1199.164	0	13.6	4	4.2	4	-1E+10	1	-1E+10	1	-1E+10	1	-1E+10	1	-1E+10	1	-1E+10	1
4902554	4	C	03/12/2021	09:00	-137.681	49.455	0	1237.90	0	2.7150	0	34.4310	0	27.464	0	1223.707	0	13.8	4	4.2	4	-1E+10	1	-1E+10	1	-1E+10	1	-1E+10	1	-1E+10	1	-1E+10	1
4902554	4	C	03/12/2021	09:00	-137.681	49.455	0	1262.80	0	2.6810	0	34.4370	0	27.472	0	1248.248	0	14.0	4	4.3	4	-1E+10	1	-1E+10	1	-1E+10	1	-1E+10	1	-1E+10	1	-1E+10	1
4902554	4	C	03/12/2021	09:00	-137.681	49.455	0	1287.60	0	2.6490	0	34.4430	0	27.479	0	1272.687	0	14.3	4	4.4	4	-1E+10	1	-1E+10	1	-1E+10	1	-1E+10	1	-1E+10	1	-1E+10	1
4902554	4	C	03/12/2021	09:00	-137.681	49.455	0	1313.60	0	2.6100	0	34.4510	0	27.489	0	1298.306	0	14.8	4	4.5	4	-1E+10	1	-1E+10	1	-1E+10	1	-1E+10	1	-1E+10	1	-1E+10	1
4902554	4	C	03/12/2021	09:00	-137.681	49.455	0	1337.90	0	2.5760	0	34.4570	0	27.497	0	1322.247	0	15.3	4	4.7	4	-1E+10	1	-1E+10	1	-1E+10	1	-1E+10	1	-1E+10	1	-1E+10	1
4902554	4	C	03/12/2021	09:00	-137.681	49.455	0	1362.70	0	2.5440	0	34.4630	0	27.505	0	1346.678	0	16.1	4	4.9	4	-1E+10	1	-1E+10	1	-1E+10	1	-1E+10	1	-1E+10	1	-1E+10	1
4902554	4	C	03/12/2021	09:00	-137.681	49.455	0	1387.80	0	2.5170	0	34.4680	0	27.511	0	1371.401	0	16.8	4	5.1	4	-1E+10	1	-1E+10	1	-1E+10	1	-1E+10	1	-1E+10	1	-1E+10	1
4902554	4	C	03/12/2021	09:00	-137.681	49.455	0	1413.00	0	2.4810	0	34.4750	0	27.520	0	1396.220	0	18.0	4	5.5	4	-1E+10	1	-1E+10	1	-1E+10	1	-1E+10	1	-1E+10	1	-1E+10	1
4902554	4	C	03/12/2021	09:00	-137.681	49.455	0	1438.20	0	2.4440	0	34.4820	0	27.529	0	1421.036	0	18.9	4	5.8	4	-1E+10	1	-1E+10	1	-1E+10	1	-1E+10	1	-1E+10	1	-1E+10	1
4902554	4	C	03/12/2021	09:00	-137.681	49.455	0	1463.00	0	2.4160	0	34.4880	0	27.536	0	1445.455	0	19.7	4	6.0	4	-1E+10	1	-1E+10	1	-1E+10	1	-1E+10	1	-1E+10	1	-1E+10	1
4902554	4	C	03/12/2021	09:00	-137.681	49.455	0	1488.30	0	2.3890	0	34.4930	0	27.542	0	1470.364	0	20.6	4	6.3	4	-1E+10	1	-1E+10	1	-1E+10	1	-1E+10	1	-1E+10	1	-1E+10	1
4902554	4	C	03/12/2021	09:00	-137.681	49.455	0	1512.70	0	2.3600	0	34.4990	0	27.550	0	1494.383	0	21.4	4	6.5	4	-1E+10	1	-1E+10	1	-1E+10	1	-1E+10	1	-1E+10	1	-1E+10	1
4902554	4	C	03/12/2021	09:00	-137.681	49.455	0	1538.20	0	2.3330	0	34.5050	0	27.557	0	1519.483	0	22.4	4	6.8	4	-1E+10	1	-1E+10	1	-1E+10	1	-1E+10	1	-1E+10	1	-1E+10	1
4902554	4	C	03/12/2021	09:00	-137.681	49.455	0	1563.20	0	2.3050	0	34.5100	0	27.563	0	1544.088	0	23.6	4	7.2	4	-1E+10	1	-1E+10	1	-1E+10	1	-1E+10	1	-1E+10	1	-1E+10	1
4902554	4	C	03/12/2021	09:00	-137.681	49.455	0	1588.10	0	2.2800	0	34.5150	0	27.569	0	1568.591	0	24.8	4	7.5	4	-1E+10	1	-1E+10	1	-1E+10	1	-1E+10	1	-1E+10	1	-1E+10	1
4902554	4	C	03/12/2021	09:00	-137.681	49.455	0	1612.90	0	2.2580	0	34.5200	0	27.575	0	1592.993	0	26.0	4	7.9	4	-1E+10	1	-1E+10	1	-1E+10	1	-1E+10	1	-1E+10	1	-1E+10	1
4902554	4	C	03/12/2021	09:00	-137.681	49.455	0	1637.70	0	2.2340	0	34.5240	0	27.580	0	1617.392	0	27.5	4	8.3	4	-1E+10	1	-1E+10	1	-1E+10	1	-1E+10	1	-1E+10	1	-1E+10	1
4902554	4	C	03/12/2021	09:00	-137.681	49.455	0	1662.70	0	2.2070	0	34.5300	0	27.588	0	1641.985	0	29.1	4	8.8	4	-1E+10	1	-1E+10	1	-1E+10	1	-1E+10	1	-1E+10	1	-1E+10	1
4902554	4	C	03/12/2021	09:00	-137.681	49.455	0	1687.80	0	2.1830	0	34.5350	0	27.594	0	1666.674	0	30.8	4	9.3	4	-1E+10	1	-1E+10	1	-1E+10	1	-1E+10	1	-1E+10	1	-1E+10	1
4902554	4	C	03/12/2021	09:00	-137.681	49.455	0	1713.70	0	2.1590	0	34.5400	0	27.600	0	1692.147	0	32.8	4	9.9	4	-1E+10	1	-1E+10	1	-1E+10	1	-1E+10	1	-1E+10	1	-1E+10	1
4902554	4	C	03/12/2021	09:00	-137.681	49.455	0	1738.00	0	2.1370	0	34.5440	0	27.605	0	1716.043	0	34.4	4	10.4	4	-1E+10	1	-1E+10	1	-1E+10	1	-1E+10	1	-1E+10	1	-1E+10	1
4902554	4	C	03/12/2021	09:00	-137.681	49.455	0	1763.10	0	2.1120	0	34.5490	0	27.611	0	1740.723	0	36.1	4	10.9	4	-1E+10	1	-1E+10	1	-1E+10	1	-1E+10	1	-1E+10	1	-1E+10	1
4902554	4	C	03/12/2021	09:00	-137.681	49.455	0	1787.90	0	2.0900	0	34.5540	0	27.617	0	1765.105	0	37.8	4	11.4	4	-1E+10	1	-1E+10	1	-1E+10	1	-1E+10	1	-1E+10	1	-1E+10	1
4902554	4	C	03/12/2021	09:00	-137.681	49.455	0	1812.60	0	2.0710	0	34.5580	0	27.622	0	1789.386	0	39.3	4	11.9	4	-1E+10	1	-1E+10	1	-1E+10	1	-1E+10	1	-1E+10	1	-1E+10	1
4902554	4	C	03/12/2021	09:00	-137.681	49.455	0	1837.50	0	2.0510	0	34.5620	0	27.626	0	1813.861	0	40.6	4	12.3	4	-1E+10	1	-1E+10	1	-1E+10	1	-1E+10	1	-1E+10	1	-1E+10	1
4902554	4	C	03/12/2021	09:00	-137.681	49.455	0	1863.00	0	2.0290	0	34.5660	0	27.632	0	1838.923	0	42.5	4	12.8	4	-1E+10	1	-1E+10	1	-1E+10	1	-1E+10	1	-1E+10	1	-1E+10	1
4902554	4	C	03/12/2021	09:00	-137.681	49.455	0	1887.60	0	2.0110	0	34.5700	0	27.636	0	1863.097	0	43.9	4	13.2	4	-1E+10	1	-1E+10	1	-1E+10	1	-1E+10	1	-1E+10	1	-1E+10	1
4902554	4	C	03/12/2021	09:00	-137.681	49.455	0	1912.80	0	2.0000	0	34.5720	0	27.639	0	1887.858	0	45.0	4	13.6	4	-1E+10	1	-1E+10	1	-1E+10	1	-1E+10	1	-1E+10	1	-1E+10	1
4902554	4	C	03/12/2021	09:00	-137.681	49.455	0	1938.00	0	1.9870	0	34.5750	0	27.642	0	1912.617	0	46.2	4	13.9	4	-1E+10	1	-1E+10	1	-1E+10	1	-1E+10	1	-1E+10	1	-1E+10	1
4902554	4	C	03/12/2021	09:00	-137.681	49.455	0	1962.70	0	1.9750	0	34.5780	0	27.646	0	1936.881	0	47.3	4	14.3	4	-1E+10	1	-1E+10	1	-1E+10	1	-1E+10	1	-1E+10	1	-1E+10	1
4902554	4	C	03/12/2021	09:00	-137.681	49.455	0	1987.20	0	1.9600	0	34.5800	0	27.649	0	1960.946	0	48.1	4	14.5	4	-1E+10	1	-1E+10	1	-1E+10	1	-1E+10	1	-1E+10	1	-1E+10	1
4902554	4	C	03/12/2021	09:00	-137.681	49.455	0																										
4902554	5	C	03/22/2021	09:05	-137.520	49.522	0	0.40	0	6.6450	0	32.3820	0	25.404	0	0.397	0	285.1	4	94.5	4	-1E+10	1	-1E+10	1	-1E+10	1	-1E+10	1	-1E+10	1	-1E+10	1
4902554	5	C	03/22/2021	09:05	-137.520	49.522	0	1.10	0	6.6460	0	32.3830	0	25.404	0	1.091	0	285.1	4	94.5	4	-1E+10	1	-1E+10	1	-1E+10	1	-1E+10	1	-1E+10	1	-1E+10	1
4902554	5	C	03/22/2021	09:05	-137.520	49.522	0	2.00	0	6.6490	0	32.3810	0	25.402	0	1.983	0	285.0	4	94.5	4	-1E+10	1	-1E+10	1	-1E+10	1	-1E+10	1	-1E+10	1	-1E+10	1
4902554	5	C	03/22/2021	09:05	-137.520	49.522	0	2.90	0	6.6500	0	32.3810	0	25.402	0	2.875	0	285.0	4	94.5	4	-1E+10	1	-1E+10	1	-1E+10	1	-1E+10	1	-1E+10	1	-1E+10	1
4902554	5	C	03/22/2021	09:05	-137.520	49.522	0	3.90	0	6.6500	0	32.3820	0	25.403	0	3.867	0	284.9	4	94.5	4	-1E+10	1	-1E+10	1	-1E+10	1	-1E+10	1	-1E+10	1	-1E+10	1
4902554	5	C	03/22/2021	09:05	-137.520	49.522	0	5.10	0	6.6510	0	32.3820	0	25.403	0	5.056	0	284.8	4	94.5	4	-1E+10	1	-1E+10	1	-1E+10	1	-1E+10	1	-1E+10	1	-1E+10	1
4902554	5	C	03/22/2021	09:05	-137.520	49.522	0	6.20	0	6.6510	0	32.3820	0	25.403	0	6.147	0	284.8	4	94.5	4	-1E+10	1	-1E+10	1	-1E+10	1	-1E+10	1	-1E+10	1	-1E+10	1
4902554	5	C	03/22/2021	09:05	-137.520	49.522	0	6.90	0	6.6510	0	32.3820	0	25.403	0	6.841	0	284.7	4	94.4	4	-1E+10	1	-1E+10	1	-1E+10	1	-1E+10	1	-1E+10	1	-1E+10	1
4902554	5	C	03/22/2021	09:05	-137.520	49.522	0	8.20	0	6.6520	0	32.3820	0	25.403	0	8.130	0	284.7	4	94.4	4	-1E+10	1	-1E+10	1	-1E+10	1	-1E+10	1	-1E+10	1	-1E+10	1
4902554	5	C	03/22/2021	09:05	-137.520	49.522	0	9.00	0	6.6520	0	32.3820	0	25.403	0	8.923	0	284.7	4	94.4	4	-1E+10	1	-1E+10	1	-1E+10	1	-1E+10	1	-1E+10	1	-1E+10	1
4902554	5	C	03/22/2021	09:05	-137.520	49.522	0	10.10	0	6.6530	0	32.3820	0	25.403	0	10.014	0	284.6	4	94.4	4	-1E+10	1	-1E+10	1	-1E+10	1	-1E+10	1	-1E+10	1	-1E+10	1
4902554	5	C	03/22/2021	09:05	-137.520	49.522	0	15.50	0	6.6540	0	32.3820	0	25.403	0	15.367	0	284.5	4	94.4	4	-1E+10	1	-1E+10	1	-1E+10	1	-1E+10	1	-1E+10	1	-1E+10	1
4902554	5	C	03/22/2021	09:05	-137.520	49.522	0	25.20	0	6.6550	0	32.3810	0	25.402	0	24.984	0	284.4	4	94.3	4	-1E+10	1	-1E+10	1	-1E+10	1	-1E+10	1	-1E+10	1	-1E+10	1
4902554	5	C	03/22/2021	09:05	-137.520	49.522	0	35.60	0	6.6550	0	32.3820	0	25.403	0	35.293	0	284.2	4	94.3	4	-1E+10	1	-1E+10	1	-1E+10	1	-1E+10	1	-1E+10	1	-1E+10	1
4902554	5	C	03/22/2021	09:05	-137.520	49.522	0	44.90	0	6.6530	0	32.3810	0	25.402	0	44.512	0	283.9	4	94.2	4	-1E+10	1	-1E+10	1	-1E+10	1	-1E+10	1	-1E+10	1	-1E+10	1
4902554	5	C	03/22/2021	09:05	-137.520	49.522	0	55.60	0	6.6540	0	32.3820	0	25.403	0	55.118	0	283.5	4	94.0	4	-1E+10	1	-1E+10	1	-1E+10	1	-1E+10	1	-1E+10	1	-1E+10	1
4902554	5	C	03/22/2021	09:05	-137.520	49.522	0	65.30	0	6.6550	0	32.3820	0	25.403	0	64.733	0	282.8	4	93.8	4	-1E+10	1	-1E+10	1	-1E+10	1	-1E+10	1	-1E+10	1	-1E+10	1
4902554	5	C	03/22/2021	09:05	-137.520	49.522	0	75.40	0	6.6540	0	32.3820	0	25.403	0	74.743	0	281.6	4	93.4	4	-1E+10	1	-1E+10	1	-1E+10	1	-1E+10	1	-1E+10	1	-1E+10	1
4902554	5	C	03/22/2021	09:05	-137.520	49.522	0	85.40	0	6.6540	0	32.3810	0	25.403	0	84.654	0	279.3	4	92.6	4	-1E+10	1	-1E+10	1	-1E+10	1	-1E+10	1	-1E+10	1	-1E+10	1
4902554	5	C	03/22/2021	09:05	-137.520	49.522	0	95.20	0	6.6520	0	32.3830	0	25.405	0	94.366	0	270.3	4	89.7	4	-1E+10	1	-1E+10	1	-1E+10	1	-1E+10	1	-1E+10	1	-1E+10	1
4902554	5	C	03/22/2021	09:05	-137.520	49.522	0	105.60	0	6.5860	0	32.6590	0	25.631	0	104.672	0	216.9	8	72.0	8	-1E+10	1	-1E+10	1	-1E+10	1	-1E+10	1	-1E+10	1	-1E+10	1
4902554	5	C	03/22/2021	09:05	-137.520	49.522	0	115.70	0	6.3190	0	33.3490	0	26.209	0	114.681	0	166.2	4	55.1	4	-1E+10	1	-1E+10	1	-1E+10	1	-1E+10	1	-1E+10	1	-1E+10	1
4902554	5	C	03/22/2021	09:05	-137.520	49.522	0	125.10	0	6.2450	0	33.5170	0	26.352	0	123.995	0	154.3	4	51.1	4	-1E+10	1	-1E+10	1	-1E+10	1	-1E+10	1	-1E+10	1	-1E+10	1
4902554	5	C	03/22/2021	09:05	-137.520	49.522	0	135.50	0	6.1950	0	33.5990	0	26.423	0	134.300	0	145.5	4	48.2	4	-1E+10	1	-1E+10	1	-1E+10	1	-1E+10	1	-1E+10	1	-1E+10	1
4902554	5	C	03/22/2021	09:05	-137.520	49.522	0	145.40	0	6.1070	0	33.6790	0	26.497	0	144.109	0	138.4	4	45.7	4	-1E+10	1	-1E+10	1	-1E+10	1	-1E+10	1	-1E+10	1	-1E+10	1
4902554	5	C	03/22/2021	09:05	-137.520	49.522	0	155.20	0	6.0220	0	33.7170	0	26.538	0	153.818	0	131.8	4	43.5	4	-1E+10	1	-1E+10	1	-1E+10	1	-1E+10	1	-1E+10	1	-1E+10	1
4902554	5	C	03/22/2021	09:05	-137.520	49.522	0	165.30	0	5.8340	0	33.7590	0	26.594	0	163.824	0	124.9	4	41.1	4	-1E+10	1	-1E+10	1	-1E+10	1	-1E+10	1	-1E+10	1	-1E+10	1
4902554	5	C	03/22/2021	09:05	-137.520	49.522	0	175.60	0	5.7030	0	33.7800	0	26.627	0	174.028	0	119.8	4	39.3	4	-1E+10	1	-1E+10	1	-1E+10	1	-1E+10	1	-1E+10	1	-1E+10	1
4902554	5	C	03/22/2021	09:05	-137.520	49.522	0	185.80	0	5.5990	0	33.7920	0	26.649	0	184.132	0	115.0	4	37.6	4	-1E+10	1	-1E+10	1	-1E+10	1	-1E+10	1	-1E+10	1	-1E+10	1
4902554	5	C	03/22/2021	09:05	-137.520	49.522	0	195.70	0	5.5050	0	33.8050	0	26.671	0	193.939	0	110.0	4	35.9	4	-1E+10	1	-1E+10	1	-1E+10	1	-1E+10	1	-1E+10	1	-1E+10	1
4902554	5	C	03/22/2021	09:05	-137.520	49.522	0	212.80	0	5.4230	0	33.8230	0	26.695	0	210.876	0	102.5	4	33.4	4	-1E+10	1	-1E+10	1	-1E+10	1	-1E+10	1	-1E+10	1	-1E+10	1
4902554	5	C	03/22/2021	09:05	-137.520	49.522	0	237.80	0	5.2480	0	33.8490	0	26.736	0	235.636	0	89.0	4	28.9	4	-1E+10	1	-1E+10	1	-1E+10	1	-1E+10	1	-1E+10	1	-1E+10	1
4902554	5	C	03/22/2021	09:05	-137.520	49.522	0	263.20	0	4.9730	0	33.8660	0	26.782	0	260.789	0	78.7	4	25.4	4	-1E+10	1	-1E+10	1	-1E+10	1	-1E+10	1	-1E+10	1	-1E+10	1
4902554	5	C	03/22/2021	09:05	-137.520	49.522	0	288.50	0	4.8280	0	33.8940	0	26.820	0	285.840	0	67.7	4	21.8	4	-1E+10	1	-1E+10	1	-1E+10	1	-1E+10	1	-1E+10	1	-1E+10	1
4902554	5	C	03/22/2021	09:05	-137.520	49.522	0	313.10	0	4.7240	0	33.9170	0	26.850	0	310.194	0	61.0	4	19.5	4	-1E+10	1	-1E+10	1	-1E+10	1	-1E+10	1	-1E+10	1	-1E+10	1
4902554	5	C	03/22/2021	09:05	-137.520	49.522	0	337.80	0	4.6500	0	33.9370	0	26.875	0	334.645	0	54.8	4	17.6	4	-1E+10	1	-1E+10	1	-1E+10	1	-1E+10	1	-1E+10	1	-1E+10	1
4902554	5	C	03/22/2021	09:05	-137.520	49.522	0	362.70	0	4.5680	0	33.9640	0	26.905	0	359.291	0	48.9	4	15.6	4	-1E+10	1	-1E+10	1	-1E+10	1	-1E+10	1	-1E+10	1	-1E+10	1
4902554	5	C	03/22/2021	09:05	-137.520	49.522	0	387.80	0	4.4760	0	33.9850	0	26.932	0	384.132	0	44.7	4	14.3	4	-1E+10	1	-1E+10	1	-1E+10	1	-1E+10	1	-1E+10	1	-1E+10	1
4902554	5	C	03/22/2021	09:05	-137.520	49.522	0	412.70	0	4.3990	0	34.0070	0	26.958	0	408.772	0	41.0	4	13.0	4	-1E+10	1	-1E+10	1	-1E+10	1	-1E+10	1	-1E+10	1	-1E+10	1
4902554	5	C	03/22/2021	09:05	-137.520	49.522	0	437.90	0	4.3340	0	34.0310	0	26.984	0	433.706	0	35.9	4	11.4	4	-1E+10	1	-1E+10	1	-1E+10	1	-1E+10	1	-1E+10	1	-1E+10	1
4902554	5	C	03/22/2021	09:05	-137.520	49.522	0	462.90	0	4.2600	0	34.0590	0	27.014	0	458.439	0	31.7	4	10.1	4	-1E+10	1	-1E+10	1	-1E+10	1	-1E+10	1	-1E+10	1	-1E+10	1
4902554	5	C	03/22/2021	09:05	-137.520	49.522	0	487.60	0	4.1800	0	34.0860	0	27.044	0	482.872	0	27.8	4	8.8	4	-1E+10	1	-1E+10	1	-1E+10	1	-1E+10	1	-1E+10	1	-1E+10	1
4902554	5	C	03/22/2021	09:05	-137.520	49.522	0	512.70	0	4.0860	0	34.1120	0	27.075	0	507.698	0	24.9	4	7.9	4	-1E+10	1	-1E+10	1	-1E+10	1	-1E+10	1	-1E+10	1	-1E+10	1
4902554	5	C	03/22/2021	09:05	-137.520	49.522	0	537.40	0	3.9900	0	34.1380	0	27.105	0	532.125	0	22.6	4	7.1	4	-1E+10	1	-1E+10	1	-1E+10	1	-1E+10	1	-1E+10	1	-1E+10	1
4902554	5	C	03/22/2021	09:05	-137.520	49.522	0	562.20	0	3.9330	0	34.1550	0	27.125	0	556.649	0	21.0	4	6.6	4	-1E+10	1	-1E+10	1	-1E+10	1	-1E+10	1	-1E+10	1	-1E+10	1
4902554	5	C	03/22/2021	09:05	-137.520	49.522	0	588.60	0	3.8860	0	34.1700	0	27.142	0	582.751	0	19.8	4	6.2	4	-1E+10	1	-1E+10	1	-1E+10	1	-1E+10	1	-1E+10	1	-1E+10	1
4902554	5	C	03/22/2021	09:05	-137.520	49.522	0	612.90	0	3.8480	0	34.1830	0	27.156	0	606.774	0	18.7	4	5.9	4	-1E+10	1	-1E+10	1	-1E+10	1	-1E+10	1	-1E+10	1	-1E+10	1
4902554	5	C	03/22/2021	09:05	-137.520	49.522	0	637.70	0	3.7940	0	34.1990	0	27.174	0	631.289	0	17.8	4	5.6	4	-1E+10	1	-1E+10	1	-1E+10	1	-1E+10	1	-1E+10	1	-1E+10	1
4902554	5	C	03/22/2021	09:05	-137.520	49.522	0	662.90	0	3.7410	0	34.2120	0	27.190	0	656.196	0	17.1	4	5.4	4	-1E+10	1	-1E+10	1	-1E+10	1	-1E+10	1	-1E+10	1	-1E+10	1
4902554	5	C	03/22/2021	09:05	-137.520	49.522	0	687.90	0	3.6960	0	34.2270	0	27.207	0	680.902	0	16.2	4	5.1	4	-1E+10	1	-1E+10	1	-1E+10	1	-1E+10	1	-1E+10	1	-1E+10	1
4902554	5	C	03/22/2021	09:05	-137.520	49.522	0	712.90	0	3.6430	0	34.2440	0	27.226	0	705.605	0	15.4	4	4.8	4	-1E+10	1	-1E+10	1	-1E+10	1	-1E+10	1	-1E+10	1	-1E+10	1
4902554	5	C	03/22/2021	09:05	-137.520	49.522	0	737.80	0	3.5970	0	34.2570	0	27.241	0	730.207	0	14.8	4	4.6	4	-1E+10	1	-1E+10	1	-1E+10	1	-1E+10	1	-1E+10	1	-1E+10	1
4902554	5	C	03/22/2021	09:05	-137.520	49.522	0	762.50	0	3.5450	0	34.2700	0	27.256	0	754.608	0	14.2	4	4.5	4	-1E+10	1	-1E+10	1	-1E+10	1	-1E+10	1	-1E+10	1	-1E+10	1
4902554	5	C	03/22/2021	09:05	-137.520	49.522	0	787.40	0	3.4940	0	34.2830	0	27.272	0	779.204	0	14.0	4	4.4	4	-1E+10	1	-1E+10	1	-1E+10	1	-1E+10	1	-1E+10	1	-1E+10	1
4902554	5	C	03/22/2021	09:05	-137.520	49.522	0	813.70	0	3.4300	0	34.2950	0	27.288	0	805.180	0	13.8	4	4.3	4	-1E+10	1	-1E+10	1	-1E+10	1	-1E+10	1	-1E+10	1	-1E+10	1
4902554	5	C	03/22/2021	09:05	-137.520	49.522	0	837.80	0	3.3860	0	34.3030	0	27.298	0	828.979	0	13.8	4	4.3	4	-1E+10	1	-1E+10	1	-1E+10	1	-1E+10	1	-1E+10	1	-1E+10	1
4902554	5	C	03/22/2021	09:05	-137.520	49.522	0	862.90	0	3.3410	0	34.3130	0	27.311	0	853.764	0	13.6	4	4.2	4	-1E+10	1	-1E+10	1	-1E+10	1	-1E+10	1	-1E+10	1	-1E+10	1
4902554	5	C	03/22/2021	09:05	-137.520	49.522	0	888.00	0	3.2930	0	34.3230	0	27.323	0	878.546	0	13.5	4	4.2	4	-1E+10	1	-1E+10	1	-1E+10	1	-1E+10	1	-1E+10	1	-1E+10	1
4902554	5	C	03/22/2021	09:05	-137.520	49.522	0	912.70	0	3.2380	0	34.3310	0	27.335	0	902.929	0	13.7	4	4.3	4	-1E+10	1	-1E+10	1	-1E+10	1	-1E+10	1	-1E+10	1	-1E+10	1
4902554	5	C	03/22/2021	09:05	-137.520	49.522	0	937.60	0	3.1760	0	34.3410	0	27.349	0	927.508	0	13.9	4	4.3	4	-1E+10	1	-1E+10	1	-1E+10	1	-1E+10	1	-1E+10	1	-1E+10	1
4902554	5	C	03/22/2021	09:05	-137.520	49.522	0	963.00	0	3.1250	0	34.3490	0	27.360	0	952.576	0	14.0	4	4.3	4	-1E+10	1	-1E+10	1	-1E+10	1	-1E+10	1	-1E+10	1	-1E+10	1
4902554	5	C	03/22/2021	09:05	-137.520	49.522	0	988.20	0	3.0860	0	34.3570	0	27.370	0	977.445	0	14.0	4	4.3	4	-1E+10	1	-1E+10	1	-1E+10	1	-1E+10	1	-1E+10	1	-1E+10	1
4902554	5	C	03/22/2021	09:05	-137.520	49.522	0	1012.90	0	3.0420	0	34.3650	0	27.381	0	1001.817	0	14.0	4	4.3	4	-1E+10	1	-1E+10	1	-1E+10	1	-1E+10	1	-1E+10	1	-1E+10	1
4902554	5	C	03/22/2021	09:05	-137.520	49.522	0	1037.70	0	2.9960	0	34.3720	0	27.391	0	1026.285	0	13.8	4	4.3	4	-1E+10	1	-1E+10	1	-1E+10	1	-1E+10	1	-1E+10	1	-1E+10	1
4902554	5	C	03/22/2021	09:05	-137.520	49.522	0	1063.80	0	2.9550	0	34.3800	0	27.401	0	1052.033	0	13.8	4	4.3	4	-1E+10	1	-1E+10	1	-1E+10	1	-1E+10	1	-1E+10	1	-1E+10	1
4902554	5	C	03/22/2021	09:05	-137.520	49.522	0	1088.00	0	2.9240	0	34.3870	0	27.409	0	1075.903	0	13.7	4	4.2	4	-1E+10	1	-1E+10	1	-1E+10	1	-1E+10	1	-1E+10	1	-1E+10	1
4902554	5	C	03/22/2021	09:05	-137.520	49.522	0	1112.70	0	2.8850	0	34.3950	0	27.419	0	1100.263	0	13.7	4	4.2	4	-1E+10	1	-1E+10	1	-1E+10	1	-1E+10	1	-1E+10	1	-1E+10	1
4902554	5	C	03/22/2021	09:05	-137.520	49.522	0	1137.60	0	2.8480	0	34.4020	0	27.428	0	1124.818	0	13.7	4	4.2	4	-1E+10	1	-1E+10	1	-1E+10	1	-1E+10	1	-1E+10	1	-1E+10	1
4902554	5	C	03/22/2021	09:05	-137.520	49.522	0	1162.80	0	2.8120	0	34.4100	0	27.438	0	1149.667	0	13.7	4	4.2	4	-1E+10	1	-1E+10	1	-1E+10	1	-1E+10	1	-1E+10	1	-1E+10	1
4902554	5	C	03/22/2021	09:05	-137.520	49.522	0	1188.10	0	2.7770	0	34.4170	0	27.447	0	1174.610	0	13.8	4	4.2	4	-1E+10	1	-1E+10	1	-1E+10	1	-1E+10	1	-1E+10	1	-1E+10	1
4902554	5	C	03/22/2021	09:05	-137.520	49.522	0	1213.10	0	2.7380	0	34.4250	0	27.457	0	1199.255	0	14.0	4	4.3	4	-1E+10	1	-1E+10	1	-1E+10	1	-1E+10	1	-1E+10	1	-1E+10	1
4902554	5	C	03/22/2021	09:05	-137.520	49.522	0	1237.80	0	2.6950	0	34.4330	0	27.467	0	1223.601	0	14.3	4	4.4	4	-1E+10	1	-1E+10	1	-1E+10	1	-1E+10	1	-1E+10	1	-1E+10	1
4902554	5	C	03/22/2021	09:05	-137.520	49.522	0	1263.10	0	2.6620	0	34.4400	0	27.476	0	1248.536	0	14.5	4	4.5	4	-1E+10	1	-1E+10	1	-1E+10	1	-1E+10	1	-1E+10	1	-1E+10	1
4902554	5	C	03/22/2021	09:05	-137.520	49.522	0	1287.50	0	2.6350	0	34.4450	0	27.482	0	1272.581	0	14.8	4	4.5	4	-1E+10	1	-1E+10	1	-1E+10	1	-1E+10	1	-1E+10	1	-1E+10	1
4902554	5	C	03/22/2021	09:05	-137.520	49.522	0	1312.90	0	2.5970	0	34.4530	0	27.492	0	1297.608	0	15.2	4	4.7	4	-1E+10	1	-1E+10	1	-1E+10	1	-1E+10	1	-1E+10	1	-1E+10	1
4902554	5	C	03/22/2021	09:05	-137.520	49.522	0	1338.20	0	2.5670	0	34.4590	0	27.499	0	1322.534	0	15.7	4	4.8	4	-1E+10	1	-1E+10	1	-1E+10	1	-1E+10	1	-1E+10	1	-1E+10	1
4902554	5	C	03/22/2021	09:05	-137.520	49.522	0	1362.90	0	2.5260	0	34.4670	0	27.509	0	1346.866	0	16.5	4	5.0	4	-1E+10	1	-1E+10	1	-1E+10	1	-1E+10	1	-1E+10	1	-1E+10	1
4902554	5	C	03/22/2021	09:05	-137.520	49.522	0	1387.70	0	2.4810	0	34.4750	0	27.520	0	1371.294	0	17.4	4	5.3	4	-1E+10	1	-1E+10	1	-1E+10	1	-1E+10	1	-1E+10	1	-1E+10	1
4902554	5	C	03/22/2021	09:05	-137.520	49.522	0	1413.00	0	2.4430	0	34.4820	0	27.528	0	1396.211	0	18.3	4	5.6	4	-1E+10	1	-1E+10	1	-1E+10	1	-1E+10	1	-1E+10	1	-1E+10	1
4902554	5	C	03/22/2021	09:05	-137.520	49.522	0	1438.20	0	2.4150	0	34.4880	0	27.536	0	1421.027	0	19.0	4	5.8	4	-1E+10	1	-1E+10	1	-1E+10	1	-1E+10	1	-1E+10	1	-1E+10	1
4902554	5	C	03/22/2021	09:05	-137.520	49.522	0	1463.00	0	2.3880	0	34.4930	0	27.542	0	1445.446	0	19.7	4	6.0	4	-1E+10	1	-1E+10	1	-1E+10	1	-1E+10	1	-1E+10	1	-1E+10	1
4902554	5	C	03/22/2021	09:05	-137.520	49.522	0	1488.10	0	2.3710	0	34.4970	0	27.547	0	1470.158	0	20.4	4	6.2	4	-1E+10	1	-1E+10	1	-1E+10	1	-1E+10	1	-1E+10	1	-1E+10	1
4902554	5	C	03/22/2021	09:05	-137.520	49.522	0	1513.00	0	2.3460	0	34.5020	0	27.553	0	1494.669	0	21.3	4	6.5	4	-1E+10	1	-1E+10	1	-1E+10	1	-1E+10	1	-1E+10	1	-1E+10	1
4902554	5	C	03/22/2021	09:05	-137.520	49.522	0	1538.10	0	2.3210	0	34.5070	0	27.559	0	1519.375	0	22.6	4	6.9	4	-1E+10	1	-1E+10	1	-1E+10	1	-1E+10	1	-1E+10	1	-1E+10	1
4902554	5	C	03/22/2021	09:05	-137.520	49.522	0	1563.10	0	2.2960	0	34.5130	0	27.566	0	1543.980	0	24.0	4	7.3	4	-1E+10	1	-1E+10	1	-1E+10	1	-1E+10	1	-1E+10	1	-1E+10	1
4902554	5	C	03/22/2021	09:05	-137.520	49.522	0	1588.10	0	2.2720	0	34.5180	0	27.572	0	1568.581	0	25.1	4	7.6	4	-1E+10	1	-1E+10	1	-1E+10	1	-1E+10	1	-1E+10	1	-1E+10	1
4902554	5	C	03/22/2021	09:05	-137.520	49.522	0	1612.70	0	2.2480	0	34.5220	0	27.578	0	1592.786	0	26.5	4	8.0	4	-1E+10	1	-1E+10	1	-1E+10	1	-1E+10	1	-1E+10	1	-1E+10	1
4902554	5	C	03/22/2021	09:05	-137.520	49.522	0	1637.40	0	2.2210	0	34.5280	0	27.585	0	1617.087	0	28.0	4	8.5	4	-1E+10	1	-1E+10	1	-1E+10	1	-1E+10	1	-1E+10	1	-1E+10	1
4902554	5	C	03/22/2021	09:05	-137.520	49.522	0	1662.50	0	2.2020	0	34.5320	0	27.590	0	1641.779	0	29.3	4	8.9	4	-1E+10	1	-1E+10	1	-1E+10	1	-1E+10	1	-1E+10	1	-1E+10	1
4902554	5	C	03/22/2021	09:05	-137.520	49.522	0	1688.70	0	2.1770	0	34.5370	0	27.596	0	1667.549	0	31.0	4	9.4	4	-1E+10	1	-1E+10	1	-1E+10	1	-1E+10	1	-1E+10	1	-1E+10	1
4902554	5	C	03/22/2021	09:05	-137.520	49.522	0	1713.00	0	2.1530	0	34.5410	0	27.601	0	1691.448	0	32.7	4	9.9	4	-1E+10	1	-1E+10	1	-1E+10	1	-1E+10	1	-1E+10	1	-1E+10	1
4902554	5	C	03/22/2021	09:05	-137.520	49.522	0	1737.60	0	2.1280	0	34.5470	0	27.608	0	1715.639	0	34.6	4	10.5	4	-1E+10	1	-1E+10	1	-1E+10	1	-1E+10	1	-1E+10	1	-1E+10	1
4902554	5	C	03/22/2021	09:05	-137.520	49.522	0	1762.80	0	2.1060	0	34.5510	0	27.613	0	1740.417	0	36.4	4	11.0	4	-1E+10	1	-1E+10	1	-1E+10	1	-1E+10	1	-1E+10	1	-1E+10	1
4902554	5	C	03/22/2021	09:05	-137.520	49.522	0	1788.00	0	2.0830	0	34.5560	0	27.619	0	1765.193	0	38.0	4	11.5	4	-1E+10	1	-1E+10	1	-1E+10	1	-1E+10	1	-1E+10	1	-1E+10	1
4902554	5	C	03/22/2021	09:05	-137.520	49.522	0	1812.90	0	2.0670	0	34.5590	0	27.623	0	1789.670	0	39.4	4	11.9	4	-1E+10	1	-1E+10	1	-1E+10	1	-1E+10	1	-1E+10	1	-1E+10	1
4902554	5	C	03/22/2021	09:05	-137.520	49.522	0	1837.90	0	2.0510	0	34.5620	0	27.626	0	1814.243	0	40.8	4	12.3	4	-1E+10	1	-1E+10	1	-1E+10	1	-1E+10	1	-1E+10	1	-1E+10	1
4902554	5	C	03/22/2021	09:05	-137.520	49.522	0	1863.60	0	2.0340	0	34.5660	0	27.631	0	1839.501	0	42.2	4	12.7	4	-1E+10	1	-1E+10	1	-1E+10	1	-1E+10	1	-1E+10	1	-1E+10	1
4902554	5	C	03/22/2021	09:05	-137.520	49.522	0	1887.50	0	2.0180	0	34.5690	0	27.635	0	1862.988	0	43.6	4	13.2	4	-1E+10	1	-1E+10	1	-1E+10	1	-1E+10	1	-1E+10	1	-1E+10	1
4902554	5	C	03/22/2021	09:05	-137.520	49.522	0	1912.60	0	2.0000	0	34.5730	0	27.640	0	1887.650	0	45.3	4	13.7	4	-1E+10	1	-1E+10	1	-1E+10	1	-1E+10	1	-1E+10	1	-1E+10	1
4902554	5	C	03/22/2021	09:05	-137.520	49.522	0	1937.70	0	1.9790	0	34.5770	0	27.645	0	1912.310	0	46.9	4	14.1	4	-1E+10	1	-1E+10	1	-1E+10	1	-1E+10	1	-1E+10	1	-1E+10	1
4902554	5	C	03/22/2021	09:05	-137.520	49.522	0	1962.90	0	1.9630	0	34.5810	0	27.649	0	1937.065	0	48.4	4	14.6	4	-1E+10	1	-1E+10	1	-1E+10	1	-1E+10	1	-1E+10	1	-1E+10	1
4902554	5	C	03/22/2021	09:05	-137.520	49.522	0	1985.80	0	1.9470	0	34.5840	0	27.653	0	1959.559	0	49.5	4	14.9	4	-1E+10	1	-1E+10	1	-1E+10	1	-1E+10	1	-1E+10	1	-1E+10	1
4902554	5	C	03/22/2021	09:05	-137.520	49.522	0																										
4902554	6	C	04/01/2021	09:06	-137.338	49.519	0	0.10	0	6.5910	0	32.4030	0	25.427	0	0.099	0	288.4	4	95.5	4	-1E+10	1	-1E+10	1	-1E+10	1	-1E+10	1	-1E+10	1	-1E+10	1
4902554	6	C	04/01/2021	09:06	-137.338	49.519	0	1.10	0	6.5890	0	32.4080	0	25.431	0	1.091	0	288.3	4	95.5	4	-1E+10	1	-1E+10	1	-1E+10	1	-1E+10	1	-1E+10	1	-1E+10	1
4902554	6	C	04/01/2021	09:06	-137.338	49.519	0	1.90	0	6.5890	0	32.4090	0	25.432	0	1.884	0	288.3	4	95.5	4	-1E+10	1	-1E+10	1	-1E+10	1	-1E+10	1	-1E+10	1	-1E+10	1
4902554	6	C	04/01/2021	09:06	-137.338	49.519	0	3.10	0	6.5890	0	32.4110	0	25.434	0	3.074	0	288.3	4	95.5	4	-1E+10	1	-1E+10	1	-1E+10	1	-1E+10	1	-1E+10	1	-1E+10	1
4902554	6	C	04/01/2021	09:06	-137.338	49.519	0	3.90	0	6.5960	0	32.4040	0	25.427	0	3.867	0	288.3	4	95.5	4	-1E+10	1	-1E+10	1	-1E+10	1	-1E+10	1	-1E+10	1	-1E+10	1
4902554	6	C	04/01/2021	09:06	-137.338	49.519	0	5.10	0	6.5960	0	32.4050	0	25.428	0	5.056	0	288.3	4	95.5	4	-1E+10	1	-1E+10	1	-1E+10	1	-1E+10	1	-1E+10	1	-1E+10	1
4902554	6	C	04/01/2021	09:06	-137.338	49.519	0	6.10	0	6.5970	0	32.4050	0	25.428	0	6.048	0	288.3	4	95.5	4	-1E+10	1	-1E+10	1	-1E+10	1	-1E+10	1	-1E+10	1	-1E+10	1
4902554	6	C	04/01/2021	09:06	-137.338	49.519	0	7.40	0	6.5960	0	32.4050	0	25.428	0	7.337	0	288.2	4	95.5	4	-1E+10	1	-1E+10	1	-1E+10	1	-1E+10	1	-1E+10	1	-1E+10	1
4902554	6	C	04/01/2021	09:06	-137.338	49.519	0	8.10	0	6.5970	0	32.4040	0	25.427	0	8.031	0	288.2	4	95.5	4	-1E+10	1	-1E+10	1	-1E+10	1	-1E+10	1	-1E+10	1	-1E+10	1
4902554	6	C	04/01/2021	09:06	-137.338	49.519	0	9.00	0	6.5980	0	32.4040	0	25.427	0	8.923	0	288.2	4	95.5	4	-1E+10	1	-1E+10	1	-1E+10	1	-1E+10	1	-1E+10	1	-1E+10	1
4902554	6	C	04/01/2021	09:06	-137.338	49.519	0	10.20	0	6.6030	0	32.4040	0	25.427	0	10.113	0	288.2	4	95.5	4	-1E+10	1	-1E+10	1	-1E+10	1	-1E+10	1	-1E+10	1	-1E+10	1
4902554	6	C	04/01/2021	09:06	-137.338	49.519	0	15.40	0	6.5980	0	32.4040	0	25.427	0	15.268	0	288.1	4	95.4	4	-1E+10	1	-1E+10	1	-1E+10	1	-1E+10	1	-1E+10	1	-1E+10	1
4902554	6	C	04/01/2021	09:06	-137.338	49.519	0	25.30	0	6.5950	0	32.4050	0	25.429	0	25.083	0	287.8	4	95.3	4	-1E+10	1	-1E+10	1	-1E+10	1	-1E+10	1	-1E+10	1	-1E+10	1
4902554	6	C	04/01/2021	09:06	-137.338	49.519	0	35.30	0	6.5740	0	32.4080	0	25.434	0	34.996	0	287.7	4	95.3	4	-1E+10	1	-1E+10	1	-1E+10	1	-1E+10	1	-1E+10	1	-1E+10	1
4902554	6	C	04/01/2021	09:06	-137.338	49.519	0	45.70	0	6.5680	0	32.4090	0	25.435	0	45.305	0	287.3	4	95.1	4	-1E+10	1	-1E+10	1	-1E+10	1	-1E+10	1	-1E+10	1	-1E+10	1
4902554	6	C	04/01/2021	09:06	-137.338	49.519	0	55.40	0	6.5650	0	32.4100	0	25.437	0	54.920	0	286.8	4	94.9	4	-1E+10	1	-1E+10	1	-1E+10	1	-1E+10	1	-1E+10	1	-1E+10	1
4902554	6	C	04/01/2021	09:06	-137.338	49.519	0	65.80	0	6.5300	0	32.4140	0	25.444	0	65.228	0	285.5	4	94.4	4	-1E+10	1	-1E+10	1	-1E+10	1	-1E+10	1	-1E+10	1	-1E+10	1
4902554	6	C	04/01/2021	09:06	-137.338	49.519	0	75.50	0	6.4130	0	32.4200	0	25.464	0	74.842	0	284.6	4	93.9	4	-1E+10	1	-1E+10	1	-1E+10	1	-1E+10	1	-1E+10	1	-1E+10	1
4902554	6	C	04/01/2021	09:06	-137.338	49.519	0	85.40	0	6.3160	0	32.4230	0	25.479	0	84.654	0	283.5	4	93.3	4	-1E+10	1	-1E+10	1	-1E+10	1	-1E+10	1	-1E+10	1	-1E+10	1
4902554	6	C	04/01/2021	09:06	-137.338	49.519	0	95.20	0	6.2420	0	32.4290	0	25.493	0	94.366	0	280.4	4	92.2	4	-1E+10	1	-1E+10	1	-1E+10	1	-1E+10	1	-1E+10	1	-1E+10	1
4902554	6	C	04/01/2021	09:06	-137.338	49.519	0	105.40	0	6.1980	0	32.4340	0	25.502	0	104.474	0	265.8	4	87.3	4	-1E+10	1	-1E+10	1	-1E+10	1	-1E+10	1	-1E+10	1	-1E+10	1
4902554	6	C	04/01/2021	09:06	-137.338	49.519	0	115.50	0	6.3290	0	32.8090	0	25.782	0	114.483	0	204.4	4	67.5	4	-1E+10	1	-1E+10	1	-1E+10	1	-1E+10	1	-1E+10	1	-1E+10	1
4902554	6	C	04/01/2021	09:06	-137.338	49.519	0	124.90	0	6.2470	0	33.4070	0	26.264	0	123.797	0	159.3	4	52.7	4	-1E+10	1	-1E+10	1	-1E+10	1	-1E+10	1	-1E+10	1	-1E+10	1
4902554	6	C	04/01/2021	09:06	-137.338	49.519	0	135.10	0	6.2200	0	33.5500	0	26.381	0	133.904	0	154.7	4	51.2	4	-1E+10	1	-1E+10	1	-1E+10	1	-1E+10	1	-1E+10	1	-1E+10	1
4902554	6	C	04/01/2021	09:06	-137.338	49.519	0	145.30	0	6.1520	0	33.6290	0	26.452	0	144.010	0	145.2	4	48.0	4	-1E+10	1	-1E+10	1	-1E+10	1	-1E+10	1	-1E+10	1	-1E+10	1
4902554	6	C	04/01/2021	09:06	-137.338	49.519	0	155.40	0	5.9640	0	33.6940	0	26.527	0	154.017	0	133.7	4	44.1	4	-1E+10	1	-1E+10	1	-1E+10	1	-1E+10	1	-1E+10	1	-1E+10	1
4902554	6	C	04/01/2021	09:06	-137.338	49.519	0	165.40	0	5.8120	0	33.7510	0	26.591	0	163.924	0	124.1	4	40.8	4	-1E+10	1	-1E+10	1	-1E+10	1	-1E+10	1	-1E+10	1	-1E+10	1
4902554	6	C	04/01/2021	09:06	-137.338	49.519	0	175.60	0	5.7390	0	33.7820	0	26.624	0	174.028	0	117.3	4	38.5	4	-1E+10	1	-1E+10	1	-1E+10	1	-1E+10	1	-1E+10	1	-1E+10	1
4902554	6	C	04/01/2021	09:06	-137.338	49.519	0	185.40	0	5.6090	0	33.7980	0	26.653	0	183.736	0	111.6	4	36.5	4	-1E+10	1	-1E+10	1	-1E+10	1	-1E+10	1	-1E+10	1	-1E+10	1
4902554	6	C	04/01/2021	09:06	-137.338	49.519	0	195.30	0	5.5060	0	33.8100	0	26.675	0	193.543	0	105.5	4	34.4	4	-1E+10	1	-1E+10	1	-1E+10	1	-1E+10	1	-1E+10	1	-1E+10	1
4902554	6	C	04/01/2021	09:06	-137.338	49.519	0	212.60	0	5.3440	0	33.8320	0	26.712	0	210.678	0	97.5	4	31.7	4	-1E+10	1	-1E+10	1	-1E+10	1	-1E+10	1	-1E+10	1	-1E+10	1
4902554	6	C	04/01/2021	09:06	-137.338	49.519	0	237.70	0	5.1900	0	33.8470	0	26.742	0	235.537	0	89.0	4	28.8	4	-1E+10	1	-1E+10	1	-1E+10	1	-1E+10	1	-1E+10	1	-1E+10	1
4902554	6	C	04/01/2021	09:06	-137.338	49.519	0	263.10	0	4.9990	0	33.8670	0	26.780	0	260.690	0	78.2	4	25.2	4	-1E+10	1	-1E+10	1	-1E+10	1	-1E+10	1	-1E+10	1	-1E+10	1
4902554	6	C	04/01/2021	09:06	-137.338	49.519	0	288.80	0	4.8520	0	33.8920	0	26.816	0	286.137	0	68.9	4	22.2	4	-1E+10	1	-1E+10	1	-1E+10	1	-1E+10	1	-1E+10	1	-1E+10	1
4902554	6	C	04/01/2021	09:06	-137.338	49.519	0	312.80	0	4.7160	0	33.9100	0	26.846	0	309.897	0	61.9	4	19.9	4	-1E+10	1	-1E+10	1	-1E+10	1	-1E+10	1	-1E+10	1	-1E+10	1
4902554	6	C	04/01/2021	09:06	-137.338	49.519	0	337.70	0	4.5980	0	33.9310	0	26.875	0	334.546	0	55.8	4	17.8	4	-1E+10	1	-1E+10	1	-1E+10	1	-1E+10	1	-1E+10	1	-1E+10	1
4902554	6	C	04/01/2021	09:06	-137.338	49.519	0	362.80	0	4.5250	0	33.9580	0	26.905	0	359.390	0	49.6	4	15.8	4	-1E+10	1	-1E+10	1	-1E+10	1	-1E+10	1	-1E+10	1	-1E+10	1
4902554	6	C	04/01/2021	09:06	-137.338	49.519	0	387.70	0	4.4760	0	33.9850	0	26.932	0	384.033	0	44.4	4	14.2	4	-1E+10	1	-1E+10	1	-1E+10	1	-1E+10	1	-1E+10	1	-1E+10	1
4902554	6	C	04/01/2021	09:06	-137.338	49.519	0	412.90	0	4.4110	0	34.0060	0	26.956	0	408.970	0	40.8	4	13.0	4	-1E+10	1	-1E+10	1	-1E+10	1	-1E+10	1	-1E+10	1	-1E+10	1
4902554	6	C	04/01/2021	09:06	-137.338	49.519	0	437.70	0	4.3340	0	34.0280	0	26.982	0	433.508	0	36.9	4	11.7	4	-1E+10	1	-1E+10	1	-1E+10	1	-1E+10	1	-1E+10	1	-1E+10	1
4902554	6	C	04/01/2021	09:06	-137.338	49.519	0	462.70	0	4.2690	0	34.0520	0	27.008	0	458.241	0	32.8	4	10.4	4	-1E+10	1	-1E+10	1	-1E+10	1	-1E+10	1	-1E+10	1	-1E+10	1
4902554	6	C	04/01/2021	09:06	-137.338	49.519	0	487.70	0	4.2070	0	34.0770	0	27.034	0	482.971	0	29.4	4	9.3	4	-1E+10	1	-1E+10	1	-1E+10	1	-1E+10	1	-1E+10	1	-1E+10	1
4902554	6	C	04/01/2021	09:06	-137.338	49.519	0	513.00	0	4.1540	0	34.0930	0	27.053	0	507.995	0	27.2	4	8.6	4	-1E+10	1	-1E+10	1	-1E+10	1	-1E+10	1	-1E+10	1	-1E+10	1
4902554	6	C	04/01/2021	09:06	-137.338	49.519	0	537.70	0	4.0830	0	34.1140	0	27.077	0	532.422	0	24.5	4	7.7	4	-1E+10	1	-1E+10	1	-1E+10	1	-1E+10	1	-1E+10	1	-1E+10	1
4902554	6	C	04/01/2021	09:06	-137.338	49.519	0	562.80	0	3.9990	0	34.1370	0	27.104	0	557.242	0	22.6	4	7.1	4	-1E+10	1	-1E+10	1	-1E+10	1	-1E+10	1	-1E+10	1	-1E+10	1
4902554	6	C	04/01/2021	09:06	-137.338	49.519	0	587.90	0	3.9360	0	34.1540	0	27.124	0	582.059	0	21.2	4	6.7	4	-1E+10	1	-1E+10	1	-1E+10	1	-1E+10	1	-1E+10	1	-1E+10	1
4902554	6	C	04/01/2021	09:06	-137.338	49.519	0	612.80	0	3.8890	0	34.1680	0	27.140	0	606.675	0	19.9	4	6.3	4	-1E+10	1	-1E+10	1	-1E+10	1	-1E+10	1	-1E+10	1	-1E+10	1
4902554	6	C	04/01/2021	09:06	-137.338	49.519	0	637.80	0	3.8250	0	34.1870	0	27.162	0	631.388	0	18.6	4	5.8	4	-1E+10	1	-1E+10	1	-1E+10	1	-1E+10	1	-1E+10	1	-1E+10	1
4902554	6	C	04/01/2021	09:06	-137.338	49.519	0	663.70	0	3.7770	0	34.2010	0	27.178	0	656.987	0	17.7	4	5.5	4	-1E+10	1	-1E+10	1	-1E+10	1	-1E+10	1	-1E+10	1	-1E+10	1
4902554	6	C	04/01/2021	09:06	-137.338	49.519	0	687.90	0	3.7210	0	34.2180	0	27.197	0	680.902	0	16.8	4	5.3	4	-1E+10	1	-1E+10	1	-1E+10	1	-1E+10	1	-1E+10	1	-1E+10	1
4902554	6	C	04/01/2021	09:06	-137.338	49.519	0	712.90	0	3.6880	0	34.2290	0	27.209	0	705.606	0	16.1	4	5.1	4	-1E+10	1	-1E+10	1	-1E+10	1	-1E+10	1	-1E+10	1	-1E+10	1
4902554	6	C	04/01/2021	09:06	-137.338	49.519	0	737.70	0	3.6460	0	34.2420	0	27.224	0	730.108	0	15.5	4	4.9	4	-1E+10	1	-1E+10	1	-1E+10	1	-1E+10	1	-1E+10	1	-1E+10	1
4902554	6	C	04/01/2021	09:06	-137.338	49.519	0	762.60	0	3.5760	0	34.2610	0	27.246	0	754.707	0	14.8	4	4.6	4	-1E+10	1	-1E+10	1	-1E+10	1	-1E+10	1	-1E+10	1	-1E+10	1
4902554	6	C	04/01/2021	09:06	-137.338	49.519	0	787.90	0	3.5230	0	34.2740	0	27.262	0	779.698	0	14.4	4	4.5	4	-1E+10	1	-1E+10	1	-1E+10	1	-1E+10	1	-1E+10	1	-1E+10	1
4902554	6	C	04/01/2021	09:06	-137.338	49.519	0	812.90	0	3.4630	0	34.2870	0	27.278	0	804.390	0	14.1	4	4.4	4	-1E+10	1	-1E+10	1	-1E+10	1	-1E+10	1	-1E+10	1	-1E+10	1
4902554	6	C	04/01/2021	09:06	-137.338	49.519	0	837.60	0	3.3970	0	34.3000	0	27.295	0	828.782	0	14.0	4	4.3	4	-1E+10	1	-1E+10	1	-1E+10	1	-1E+10	1	-1E+10	1	-1E+10	1
4902554	6	C	04/01/2021	09:06	-137.338	49.519	0	863.00	0	3.3350	0	34.3130	0	27.311	0	853.863	0	13.7	4	4.3	4	-1E+10	1	-1E+10	1	-1E+10	1	-1E+10	1	-1E+10	1	-1E+10	1
4902554	6	C	04/01/2021	09:06	-137.338	49.519	0	887.40	0	3.2900	0	34.3220	0	27.323	0	877.953	0	13.8	4	4.3	4	-1E+10	1	-1E+10	1	-1E+10	1	-1E+10	1	-1E+10	1	-1E+10	1
4902554	6	C	04/01/2021	09:06	-137.338	49.519	0	912.70	0	3.2390	0	34.3290	0	27.333	0	902.930	0	13.9	4	4.3	4	-1E+10	1	-1E+10	1	-1E+10	1	-1E+10	1	-1E+10	1	-1E+10	1
4902554	6	C	04/01/2021	09:06	-137.338	49.519	0	937.70	0	3.1820	0	34.3390	0	27.347	0	927.607	0	14.0	4	4.3	4	-1E+10	1	-1E+10	1	-1E+10	1	-1E+10	1	-1E+10	1	-1E+10	1
4902554	6	C	04/01/2021	09:06	-137.338	49.519	0	962.70	0	3.1230	0	34.3480	0	27.359	0	952.281	0	14.0	4	4.3	4	-1E+10	1	-1E+10	1	-1E+10	1	-1E+10	1	-1E+10	1	-1E+10	1
4902554	6	C	04/01/2021	09:06	-137.338	49.519	0	988.30	0	3.0710	0	34.3580	0	27.372	0	977.544	0	13.9	4	4.3	4	-1E+10	1	-1E+10	1	-1E+10	1	-1E+10	1	-1E+10	1	-1E+10	1
4902554	6	C	04/01/2021	09:06	-137.338	49.519	0	1013.30	0	3.0300	0	34.3660	0	27.383	0	1002.212	0	13.9	4	4.3	4	-1E+10	1	-1E+10	1	-1E+10	1	-1E+10	1	-1E+10	1	-1E+10	1
4902554	6	C	04/01/2021	09:06	-137.338	49.519	0	1037.90	0	2.9850	0	34.3740	0	27.393	0	1026.483	0	13.8	4	4.3	4	-1E+10	1	-1E+10	1	-1E+10	1	-1E+10	1	-1E+10	1	-1E+10	1
4902554	6	C	04/01/2021	09:06	-137.338	49.519	0	1062.60	0	2.9350	0	34.3840	0	27.406	0	1050.849	0	13.7	4	4.2	4	-1E+10	1	-1E+10	1	-1E+10	1	-1E+10	1	-1E+10	1	-1E+10	1
4902554	6	C	04/01/2021	09:06	-137.338	49.519	0	1087.50	0	2.8960	0	34.3930	0	27.417	0	1075.410	0	13.6	4	4.2	4	-1E+10	1	-1E+10	1	-1E+10	1	-1E+10	1	-1E+10	1	-1E+10	1
4902554	6	C	04/01/2021	09:06	-137.338	49.519	0	1113.60	0	2.8530	0	34.4010	0	27.427	0	1101.151	0	13.7	4	4.2	4	-1E+10	1	-1E+10	1	-1E+10	1	-1E+10	1	-1E+10	1	-1E+10	1
4902554	6	C	04/01/2021	09:06	-137.338	49.519	0	1137.90	0	2.8040	0	34.4110	0	27.439	0	1125.115	0	13.9	4	4.3	4	-1E+10	1	-1E+10	1	-1E+10	1	-1E+10	1	-1E+10	1	-1E+10	1
4902554	6	C	04/01/2021	09:06	-137.338	49.519	0	1162.60	0	2.7620	0	34.4190	0	27.450	0	1149.470	0	14.0	4	4.3	4	-1E+10	1	-1E+10	1	-1E+10	1	-1E+10	1	-1E+10	1	-1E+10	1
4902554	6	C	04/01/2021	09:06	-137.338	49.519	0	1187.70	0	2.7360	0	34.4240	0	27.456	0	1174.216	0	14.1	4	4.3	4	-1E+10	1	-1E+10	1	-1E+10	1	-1E+10	1	-1E+10	1	-1E+10	1
4902554	6	C	04/01/2021	09:06	-137.338	49.519	0	1213.20	0	2.7030	0	34.4310	0	27.465	0	1199.354	0	14.2	4	4.4	4	-1E+10	1	-1E+10	1	-1E+10	1	-1E+10	1	-1E+10	1	-1E+10	1
4902554	6	C	04/01/2021	09:06	-137.338	49.519	0	1238.20	0	2.6770	0	34.4370	0	27.472	0	1223.996	0	14.3	4	4.4	4	-1E+10	1	-1E+10	1	-1E+10	1	-1E+10	1	-1E+10	1	-1E+10	1
4902554	6	C	04/01/2021	09:06	-137.338	49.519	0	1263.20	0	2.6480	0	34.4430	0	27.479	0	1248.635	0	14.4	4	4.4	4	-1E+10	1	-1E+10	1	-1E+10	1	-1E+10	1	-1E+10	1	-1E+10	1
4902554	6	C	04/01/2021	09:06	-137.338	49.519	0	1287.50	0	2.6240	0	34.4470	0	27.485	0	1272.581	0	14.7	4	4.5	4	-1E+10	1	-1E+10	1	-1E+10	1	-1E+10	1	-1E+10	1	-1E+10	1
4902554	6	C	04/01/2021	09:06	-137.338	49.519	0	1312.90	0	2.5940	0	34.4530	0	27.492	0	1297.609	0	15.0	4	4.6	4	-1E+10	1	-1E+10	1	-1E+10	1	-1E+10	1	-1E+10	1	-1E+10	1
4902554	6	C	04/01/2021	09:06	-137.338	49.519	0	1337.90	0	2.5720	0	34.4580	0	27.498	0	1322.239	0	15.4	4	4.7	4	-1E+10	1	-1E+10	1	-1E+10	1	-1E+10	1	-1E+10	1	-1E+10	1
4902554	6	C	04/01/2021	09:06	-137.338	49.519	0	1362.60	0	2.5380	0	34.4640	0	27.506	0	1346.571	0	16.3	4	5.0	4	-1E+10	1	-1E+10	1	-1E+10	1	-1E+10	1	-1E+10	1	-1E+10	1
4902554	6	C	04/01/2021	09:06	-137.338	49.519	0	1387.70	0	2.4970	0	34.4720	0	27.516	0	1371.294	0	17.0	4	5.2	4	-1E+10	1	-1E+10	1	-1E+10	1	-1E+10	1	-1E+10	1	-1E+10	1
4902554	6	C	04/01/2021	09:06	-137.338	49.519	0	1412.60	0	2.4690	0	34.4770	0	27.522	0	1395.818	0	17.7	4	5.4	4	-1E+10	1	-1E+10	1	-1E+10	1	-1E+10	1	-1E+10	1	-1E+10	1
4902554	6	C	04/01/2021	09:06	-137.338	49.519	0	1437.80	0	2.4360	0	34.4840	0	27.531	0	1420.634	0	18.5	4	5.6	4	-1E+10	1	-1E+10	1	-1E+10	1	-1E+10	1	-1E+10	1	-1E+10	1
4902554	6	C	04/01/2021	09:06	-137.338	49.519	0	1463.00	0	2.4100	0	34.4890	0	27.537	0	1445.447	0	19.2	4	5.8	4	-1E+10	1	-1E+10	1	-1E+10	1	-1E+10	1	-1E+10	1	-1E+10	1
4902554	6	C	04/01/2021	09:06	-137.338	49.519	0	1487.90	0	2.3850	0	34.4940	0	27.543	0	1469.961	0	20.2	4	6.1	4	-1E+10	1	-1E+10	1	-1E+10	1	-1E+10	1	-1E+10	1	-1E+10	1
4902554	6	C	04/01/2021	09:06	-137.338	49.519	0	1513.50	0	2.3560	0	34.5000	0	27.551	0	1495.162	0	21.3	4	6.5	4	-1E+10	1	-1E+10	1	-1E+10	1	-1E+10	1	-1E+10	1	-1E+10	1
4902554	6	C	04/01/2021	09:06	-137.338	49.519	0	1537.80	0	2.3290	0	34.5060	0	27.558	0	1519.080	0	22.5	4	6.8	4	-1E+10	1	-1E+10	1	-1E+10	1	-1E+10	1	-1E+10	1	-1E+10	1
4902554	6	C	04/01/2021	09:06	-137.338	49.519	0	1562.80	0	2.3040	0	34.5110	0	27.564	0	1543.685	0	23.7	4	7.2	4	-1E+10	1	-1E+10	1	-1E+10	1	-1E+10	1	-1E+10	1	-1E+10	1
4902554	6	C	04/01/2021	09:06	-137.338	49.519	0	1587.50	0	2.2780	0	34.5170	0	27.571	0	1567.991	0	24.9	4	7.6	4	-1E+10	1	-1E+10	1	-1E+10	1	-1E+10	1	-1E+10	1	-1E+10	1
4902554	6	C	04/01/2021	09:06	-137.338	49.519	0	1612.90	0	2.2510	0	34.5220	0	27.577	0	1592.984	0	26.4	4	8.0	4	-1E+10	1	-1E+10	1	-1E+10	1	-1E+10	1	-1E+10	1	-1E+10	1
4902554	6	C	04/01/2021	09:06	-137.338	49.519	0	1637.90	0	2.2260	0	34.5270	0	27.583	0	1617.580	0	27.9	4	8.5	4	-1E+10	1	-1E+10	1	-1E+10	1	-1E+10	1	-1E+10	1	-1E+10	1
4902554	6	C	04/01/2021	09:06	-137.338	49.519	0	1662.80	0	2.1970	0	34.5330	0	27.591	0	1642.074	0	30.0	4	9.1	4	-1E+10	1	-1E+10	1	-1E+10	1	-1E+10	1	-1E+10	1	-1E+10	1
4902554	6	C	04/01/2021	09:06	-137.338	49.519	0	1687.80	0	2.1620	0	34.5400	0	27.599	0	1666.664	0	32.2	4	9.8	4	-1E+10	1	-1E+10	1	-1E+10	1	-1E+10	1	-1E+10	1	-1E+10	1
4902554	6	C	04/01/2021	09:06	-137.338	49.519	0	1713.70	0	2.1430	0	34.5440	0	27.604	0	1692.137	0	33.4	4	10.1	4	-1E+10	1	-1E+10	1	-1E+10	1	-1E+10	1	-1E+10	1	-1E+10	1
4902554	6	C	04/01/2021	09:06	-137.338	49.519	0	1738.00	0	2.1250	0	34.5480	0	27.609	0	1716.033	0	34.8	4	10.5	4	-1E+10	1	-1E+10	1	-1E+10	1	-1E+10	1	-1E+10	1	-1E+10	1
4902554	6	C	04/01/2021	09:06	-137.338	49.519	0	1762.90	0	2.1080	0	34.5510	0	27.613	0	1740.516	0	36.1	4	10.9	4	-1E+10	1	-1E+10	1	-1E+10	1	-1E+10	1	-1E+10	1	-1E+10	1
4902554	6	C	04/01/2021	09:06	-137.338	49.519	0	1787.90	0	2.0910	0	34.5550	0	27.617	0	1765.095	0	37.7	4	11.4	4	-1E+10	1	-1E+10	1	-1E+10	1	-1E+10	1	-1E+10	1	-1E+10	1
4902554	6	C	04/01/2021	09:06	-137.338	49.519	0	1812.90	0	2.0630	0	34.5600	0	27.624	0	1789.671	0	39.8	4	12.0	4	-1E+10	1	-1E+10	1	-1E+10	1	-1E+10	1	-1E+10	1	-1E+10	1
4902554	6	C	04/01/2021	09:06	-137.338	49.519	0	1838.70	0	2.0430	0	34.5640	0	27.629	0	1815.030	0	41.3	4	12.4	4	-1E+10	1	-1E+10	1	-1E+10	1	-1E+10	1	-1E+10	1	-1E+10	1
4902554	6	C	04/01/2021	09:06	-137.338	49.519	0	1862.50	0	2.0270	0	34.5670	0	27.632	0	1838.421	0	42.5	4	12.8	4	-1E+10	1	-1E+10	1	-1E+10	1	-1E+10	1	-1E+10	1	-1E+10	1
4902554	6	C	04/01/2021	09:06	-137.338	49.519	0	1887.50	0	2.0180	0	34.5690	0	27.635	0	1862.988	0	43.5	4	13.1	4	-1E+10	1	-1E+10	1	-1E+10	1	-1E+10	1	-1E+10	1	-1E+10	1
4902554	6	C	04/01/2021	09:06	-137.338	49.519	0	1912.60	0	2.0030	0	34.5720	0	27.639	0	1887.651	0	44.9	4	13.5	4	-1E+10	1	-1E+10	1	-1E+10	1	-1E+10	1	-1E+10	1	-1E+10	1
4902554	6	C	04/01/2021	09:06	-137.338	49.519	0	1937.90	0	1.9850	0	34.5760	0	27.643	0	1912.507	0	46.4	4	14.0	4	-1E+10	1	-1E+10	1	-1E+10	1	-1E+10	1	-1E+10	1	-1E+10	1
4902554	6	C	04/01/2021	09:06	-137.338	49.519	0	1962.90	0	1.9700	0	34.5790	0	27.647	0	1937.066	0	47.7	4	14.4	4	-1E+10	1	-1E+10	1	-1E+10	1	-1E+10	1	-1E+10	1	-1E+10	1
4902554	6	C	04/01/2021	09:06	-137.338	49.519	0	1988.00	0	1.9560	0	34.5820	0	27.651	0	1961.720	0	49.0	4	14.8	4	-1E+10	1	-1E+10	1	-1E+10	1	-1E+10	1	-1E+10	1	-1E+10	1
4902554	6	C	04/01/2021	09:06	-137.338	49.519	0	2004.00	0	1.9460	0	34.5840	0	27.653	0	1977.434	0	49.6	4	14.9	4	-1E+10	1	-1E+10	1	-1E+10	1	-1E+10	1	-1E+10	1	-1E+10	1
4902554	6	C	04/01/2021	09:06	-137.338	49.519	0																										
4902554	7	C	04/11/2021	08:58	-137.218	49.498	0	1.10	0	6.5220	0	32.4300	0	25.457	0	1.091	0	289.0	4	95.6	4	-1E+10	1	-1E+10	1	-1E+10	1	-1E+10	1	-1E+10	1	-1E+10	1
4902554	7	C	04/11/2021	08:58	-137.218	49.498	0	2.00	0	6.5280	0	32.4250	0	25.453	0	1.983	0	288.8	4	95.5	4	-1E+10	1	-1E+10	1	-1E+10	1	-1E+10	1	-1E+10	1	-1E+10	1
4902554	7	C	04/11/2021	08:58	-137.218	49.498	0	3.10	0	6.5290	0	32.4250	0	25.453	0	3.074	0	288.8	4	95.5	4	-1E+10	1	-1E+10	1	-1E+10	1	-1E+10	1	-1E+10	1	-1E+10	1
4902554	7	C	04/11/2021	08:58	-137.218	49.498	0	4.00	0	6.5290	0	32.4270	0	25.454	0	3.966	0	288.8	4	95.5	4	-1E+10	1	-1E+10	1	-1E+10	1	-1E+10	1	-1E+10	1	-1E+10	1
4902554	7	C	04/11/2021	08:58	-137.218	49.498	0	5.10	0	6.5290	0	32.4270	0	25.454	0	5.056	0	288.8	4	95.5	4	-1E+10	1	-1E+10	1	-1E+10	1	-1E+10	1	-1E+10	1	-1E+10	1
4902554	7	C	04/11/2021	08:58	-137.218	49.498	0	6.10	0	6.5300	0	32.4270	0	25.454	0	6.048	0	288.7	4	95.5	4	-1E+10	1	-1E+10	1	-1E+10	1	-1E+10	1	-1E+10	1	-1E+10	1
4902554	7	C	04/11/2021	08:58	-137.218	49.498	0	6.90	0	6.5310	0	32.4270	0	25.454	0	6.841	0	288.7	4	95.5	4	-1E+10	1	-1E+10	1	-1E+10	1	-1E+10	1	-1E+10	1	-1E+10	1
4902554	7	C	04/11/2021	08:58	-137.218	49.498	0	8.10	0	6.5330	0	32.4270	0	25.454	0	8.031	0	288.6	4	95.5	4	-1E+10	1	-1E+10	1	-1E+10	1	-1E+10	1	-1E+10	1	-1E+10	1
4902554	7	C	04/11/2021	08:58	-137.218	49.498	0	9.00	0	6.5340	0	32.4270	0	25.454	0	8.923	0	288.6	4	95.5	4	-1E+10	1	-1E+10	1	-1E+10	1	-1E+10	1	-1E+10	1	-1E+10	1
4902554	7	C	04/11/2021	08:58	-137.218	49.498	0	10.00	0	6.5330	0	32.4260	0	25.453	0	9.914	0	288.6	4	95.5	4	-1E+10	1	-1E+10	1	-1E+10	1	-1E+10	1	-1E+10	1	-1E+10	1
4902554	7	C	04/11/2021	08:58	-137.218	49.498	0	15.20	0	6.5210	0	32.4270	0	25.455	0	15.070	0	288.3	4	95.4	4	-1E+10	1	-1E+10	1	-1E+10	1	-1E+10	1	-1E+10	1	-1E+10	1
4902554	7	C	04/11/2021	08:58	-137.218	49.498	0	25.50	0	6.4570	0	32.4270	0	25.464	0	25.281	0	287.9	4	95.1	4	-1E+10	1	-1E+10	1	-1E+10	1	-1E+10	1	-1E+10	1	-1E+10	1
4902554	7	C	04/11/2021	08:58	-137.218	49.498	0	35.50	0	6.4010	0	32.4280	0	25.471	0	35.194	0	287.9	4	95.0	4	-1E+10	1	-1E+10	1	-1E+10	1	-1E+10	1	-1E+10	1	-1E+10	1
4902554	7	C	04/11/2021	08:58	-137.218	49.498	0	45.40	0	6.3760	0	32.4290	0	25.476	0	45.008	0	288.0	4	94.9	4	-1E+10	1	-1E+10	1	-1E+10	1	-1E+10	1	-1E+10	1	-1E+10	1
4902554	7	C	04/11/2021	08:58	-137.218	49.498	0	55.20	0	6.3620	0	32.4300	0	25.478	0	54.722	0	287.7	4	94.8	4	-1E+10	1	-1E+10	1	-1E+10	1	-1E+10	1	-1E+10	1	-1E+10	1
4902554	7	C	04/11/2021	08:58	-137.218	49.498	0	65.20	0	6.3540	0	32.4310	0	25.480	0	64.634	0	287.0	4	94.6	4	-1E+10	1	-1E+10	1	-1E+10	1	-1E+10	1	-1E+10	1	-1E+10	1
4902554	7	C	04/11/2021	08:58	-137.218	49.498	0	75.30	0	6.3530	0	32.4310	0	25.480	0	74.644	0	286.2	4	94.3	4	-1E+10	1	-1E+10	1	-1E+10	1	-1E+10	1	-1E+10	1	-1E+10	1
4902554	7	C	04/11/2021	08:58	-137.218	49.498	0	85.50	0	6.3510	0	32.4320	0	25.481	0	84.753	0	284.8	4	93.8	4	-1E+10	1	-1E+10	1	-1E+10	1	-1E+10	1	-1E+10	1	-1E+10	1
4902554	7	C	04/11/2021	08:58	-137.218	49.498	0	95.50	0	6.3500	0	32.4320	0	25.482	0	94.664	0	281.1	4	92.6	4	-1E+10	1	-1E+10	1	-1E+10	1	-1E+10	1	-1E+10	1	-1E+10	1
4902554	7	C	04/11/2021	08:58	-137.218	49.498	0	105.40	0	6.3530	0	32.4430	0	25.490	0	104.475	0	265.3	4	87.4	4	-1E+10	1	-1E+10	1	-1E+10	1	-1E+10	1	-1E+10	1	-1E+10	1
4902554	7	C	04/11/2021	08:58	-137.218	49.498	0	115.40	0	6.4140	0	32.8330	0	25.790	0	114.384	0	204.0	4	67.5	4	-1E+10	1	-1E+10	1	-1E+10	1	-1E+10	1	-1E+10	1	-1E+10	1
4902554	7	C	04/11/2021	08:58	-137.218	49.498	0	125.20	0	6.3680	0	33.4070	0	26.249	0	124.095	0	165.5	4	54.9	4	-1E+10	1	-1E+10	1	-1E+10	1	-1E+10	1	-1E+10	1	-1E+10	1
4902554	7	C	04/11/2021	08:58	-137.218	49.498	0	135.30	0	6.2250	0	33.5630	0	26.390	0	134.102	0	147.9	4	49.0	4	-1E+10	1	-1E+10	1	-1E+10	1	-1E+10	1	-1E+10	1	-1E+10	1
4902554	7	C	04/11/2021	08:58	-137.218	49.498	0	145.10	0	6.1120	0	33.6170	0	26.448	0	143.812	0	137.9	4	45.6	4	-1E+10	1	-1E+10	1	-1E+10	1	-1E+10	1	-1E+10	1	-1E+10	1
4902554	7	C	04/11/2021	08:58	-137.218	49.498	0	155.40	0	5.9930	0	33.6880	0	26.519	0	154.017	0	129.1	4	42.6	4	-1E+10	1	-1E+10	1	-1E+10	1	-1E+10	1	-1E+10	1	-1E+10	1
4902554	7	C	04/11/2021	08:58	-137.218	49.498	0	165.60	0	5.8330	0	33.7330	0	26.574	0	164.122	0	120.7	4	39.7	4	-1E+10	1	-1E+10	1	-1E+10	1	-1E+10	1	-1E+10	1	-1E+10	1
4902554	7	C	04/11/2021	08:58	-137.218	49.498	0	175.50	0	5.6910	0	33.7790	0	26.628	0	173.929	0	114.6	4	37.5	4	-1E+10	1	-1E+10	1	-1E+10	1	-1E+10	1	-1E+10	1	-1E+10	1
4902554	7	C	04/11/2021	08:58	-137.218	49.498	0	185.60	0	5.5930	0	33.7960	0	26.653	0	183.935	0	109.4	4	35.8	4	-1E+10	1	-1E+10	1	-1E+10	1	-1E+10	1	-1E+10	1	-1E+10	1
4902554	7	C	04/11/2021	08:58	-137.218	49.498	0	195.70	0	5.4480	0	33.8090	0	26.681	0	193.939	0	104.3	4	34.0	4	-1E+10	1	-1E+10	1	-1E+10	1	-1E+10	1	-1E+10	1	-1E+10	1
4902554	7	C	04/11/2021	08:58	-137.218	49.498	0	212.80	0	5.2330	0	33.8220	0	26.717	0	210.877	0	96.2	4	31.2	4	-1E+10	1	-1E+10	1	-1E+10	1	-1E+10	1	-1E+10	1	-1E+10	1
4902554	7	C	04/11/2021	08:58	-137.218	49.498	0	237.50	0	5.0060	0	33.8480	0	26.763	0	235.339	0	83.8	4	27.0	4	-1E+10	1	-1E+10	1	-1E+10	1	-1E+10	1	-1E+10	1	-1E+10	1
4902554	7	C	04/11/2021	08:58	-137.218	49.498	0	262.60	0	4.8510	0	33.8700	0	26.799	0	260.195	0	74.4	4	23.9	4	-1E+10	1	-1E+10	1	-1E+10	1	-1E+10	1	-1E+10	1	-1E+10	1
4902554	7	C	04/11/2021	08:58	-137.218	49.498	0	287.80	0	4.7080	0	33.8870	0	26.828	0	285.147	0	68.2	4	21.9	4	-1E+10	1	-1E+10	1	-1E+10	1	-1E+10	1	-1E+10	1	-1E+10	1
4902554	7	C	04/11/2021	08:58	-137.218	49.498	0	312.70	0	4.5950	0	33.9030	0	26.853	0	309.799	0	64.6	4	20.6	4	-1E+10	1	-1E+10	1	-1E+10	1	-1E+10	1	-1E+10	1	-1E+10	1
4902554	7	C	04/11/2021	08:58	-137.218	49.498	0	337.70	0	4.5110	0	33.9240	0	26.879	0	334.547	0	57.9	4	18.5	4	-1E+10	1	-1E+10	1	-1E+10	1	-1E+10	1	-1E+10	1	-1E+10	1
4902554	7	C	04/11/2021	08:58	-137.218	49.498	0	362.70	0	4.4400	0	33.9560	0	26.913	0	359.292	0	50.2	4	16.0	4	-1E+10	1	-1E+10	1	-1E+10	1	-1E+10	1	-1E+10	1	-1E+10	1
4902554	7	C	04/11/2021	08:58	-137.218	49.498	0	387.90	0	4.3860	0	33.9880	0	26.944	0	384.232	0	44.3	4	14.1	4	-1E+10	1	-1E+10	1	-1E+10	1	-1E+10	1	-1E+10	1	-1E+10	1
4902554	7	C	04/11/2021	08:58	-137.218	49.498	0	412.70	0	4.3330	0	34.0160	0	26.972	0	408.773	0	38.7	4	12.3	4	-1E+10	1	-1E+10	1	-1E+10	1	-1E+10	1	-1E+10	1	-1E+10	1
4902554	7	C	04/11/2021	08:58	-137.218	49.498	0	437.50	0	4.2600	0	34.0470	0	27.004	0	433.311	0	33.5	4	10.6	4	-1E+10	1	-1E+10	1	-1E+10	1	-1E+10	1	-1E+10	1	-1E+10	1
4902554	7	C	04/11/2021	08:58	-137.218	49.498	0	462.90	0	4.1870	0	34.0700	0	27.031	0	458.440	0	30.1	4	9.5	4	-1E+10	1	-1E+10	1	-1E+10	1	-1E+10	1	-1E+10	1	-1E+10	1
4902554	7	C	04/11/2021	08:58	-137.218	49.498	0	488.80	0	4.1350	0	34.0920	0	27.054	0	484.060	0	27.3	4	8.6	4	-1E+10	1	-1E+10	1	-1E+10	1	-1E+10	1	-1E+10	1	-1E+10	1
4902554	7	C	04/11/2021	08:58	-137.218	49.498	0	512.50	0	4.1010	0	34.1100	0	27.072	0	507.501	0	25.1	4	8.0	4	-1E+10	1	-1E+10	1	-1E+10	1	-1E+10	1	-1E+10	1	-1E+10	1
4902554	7	C	04/11/2021	08:58	-137.218	49.498	0	537.40	0	4.0580	0	34.1250	0	27.088	0	532.126	0	23.6	4	7.5	4	-1E+10	1	-1E+10	1	-1E+10	1	-1E+10	1	-1E+10	1	-1E+10	1
4902554	7	C	04/11/2021	08:58	-137.218	49.498	0	562.70	0	4.0100	0	34.1390	0	27.104	0	557.144	0	22.3	4	7.0	4	-1E+10	1	-1E+10	1	-1E+10	1	-1E+10	1	-1E+10	1	-1E+10	1
4902554	7	C	04/11/2021	08:58	-137.218	49.498	0	587.70	0	3.9640	0	34.1520	0	27.120	0	581.863	0	21.0	4	6.6	4	-1E+10	1	-1E+10	1	-1E+10	1	-1E+10	1	-1E+10	1	-1E+10	1
4902554	7	C	04/11/2021	08:58	-137.218	49.498	0	612.70	0	3.9270	0	34.1650	0	27.134	0	606.578	0	19.9	4	6.3	4	-1E+10	1	-1E+10	1	-1E+10	1	-1E+10	1	-1E+10	1	-1E+10	1
4902554	7	C	04/11/2021	08:58	-137.218	49.498	0	638.10	0	3.8840	0	34.1790	0	27.150	0	631.685	0	18.8	4	5.9	4	-1E+10	1	-1E+10	1	-1E+10	1	-1E+10	1	-1E+10	1	-1E+10	1
4902554	7	C	04/11/2021	08:58	-137.218	49.498	0	663.30	0	3.8300	0	34.1940	0	27.167	0	656.592	0	17.7	4	5.6	4	-1E+10	1	-1E+10	1	-1E+10	1	-1E+10	1	-1E+10	1	-1E+10	1
4902554	7	C	04/11/2021	08:58	-137.218	49.498	0	688.00	0	3.7480	0	34.2150	0	27.192	0	681.002	0	16.6	4	5.2	4	-1E+10	1	-1E+10	1	-1E+10	1	-1E+10	1	-1E+10	1	-1E+10	1
4902554	7	C	04/11/2021	08:58	-137.218	49.498	0	713.00	0	3.6670	0	34.2360	0	27.217	0	705.706	0	15.8	4	5.0	4	-1E+10	1	-1E+10	1	-1E+10	1	-1E+10	1	-1E+10	1	-1E+10	1
4902554	7	C	04/11/2021	08:58	-137.218	49.498	0	737.60	0	3.5980	0	34.2540	0	27.238	0	730.011	0	15.1	4	4.7	4	-1E+10	1	-1E+10	1	-1E+10	1	-1E+10	1	-1E+10	1	-1E+10	1
4902554	7	C	04/11/2021	08:58	-137.218	49.498	0	763.00	0	3.5530	0	34.2670	0	27.253	0	755.104	0	14.5	4	4.5	4	-1E+10	1	-1E+10	1	-1E+10	1	-1E+10	1	-1E+10	1	-1E+10	1
4902554	7	C	04/11/2021	08:58	-137.218	49.498	0	788.40	0	3.4980	0	34.2810	0	27.270	0	780.194	0	14.1	4	4.4	4	-1E+10	1	-1E+10	1	-1E+10	1	-1E+10	1	-1E+10	1	-1E+10	1
4902554	7	C	04/11/2021	08:58	-137.218	49.498	0	812.80	0	3.4440	0	34.2920	0	27.284	0	804.293	0	14.0	4	4.4	4	-1E+10	1	-1E+10	1	-1E+10	1	-1E+10	1	-1E+10	1	-1E+10	1
4902554	7	C	04/11/2021	08:58	-137.218	49.498	0	837.60	0	3.3870	0	34.3030	0	27.298	0	828.784	0	13.7	4	4.3	4	-1E+10	1	-1E+10	1	-1E+10	1	-1E+10	1	-1E+10	1	-1E+10	1
4902554	7	C	04/11/2021	08:58	-137.218	49.498	0	862.40	0	3.3390	0	34.3150	0	27.312	0	853.272	0	13.4	4	4.2	4	-1E+10	1	-1E+10	1	-1E+10	1	-1E+10	1	-1E+10	1	-1E+10	1
4902554	7	C	04/11/2021	08:58	-137.218	49.498	0	887.40	0	3.2860	0	34.3260	0	27.326	0	877.955	0	13.2	4	4.1	4	-1E+10	1	-1E+10	1	-1E+10	1	-1E+10	1	-1E+10	1	-1E+10	1
4902554	7	C	04/11/2021	08:58	-137.218	49.498	0	912.70	0	3.2360	0	34.3360	0	27.339	0	902.931	0	13.2	4	4.1	4	-1E+10	1	-1E+10	1	-1E+10	1	-1E+10	1	-1E+10	1	-1E+10	1
4902554	7	C	04/11/2021	08:58	-137.218	49.498	0	938.00	0	3.1780	0	34.3460	0	27.353	0	927.904	0	13.5	4	4.2	4	-1E+10	1	-1E+10	1	-1E+10	1	-1E+10	1	-1E+10	1	-1E+10	1
4902554	7	C	04/11/2021	08:58	-137.218	49.498	0	962.80	0	3.1240	0	34.3530	0	27.363	0	952.381	0	13.9	4	4.3	4	-1E+10	1	-1E+10	1	-1E+10	1	-1E+10	1	-1E+10	1	-1E+10	1
4902554	7	C	04/11/2021	08:58	-137.218	49.498	0	987.70	0	3.0700	0	34.3620	0	27.376	0	976.954	0	14.1	4	4.3	4	-1E+10	1	-1E+10	1	-1E+10	1	-1E+10	1	-1E+10	1	-1E+10	1
4902554	7	C	04/11/2021	08:58	-137.218	49.498	0	1012.90	0	3.0100	0	34.3720	0	27.389	0	1001.819	0	14.2	4	4.4	4	-1E+10	1	-1E+10	1	-1E+10	1	-1E+10	1	-1E+10	1	-1E+10	1
4902554	7	C	04/11/2021	08:58	-137.218	49.498	0	1037.80	0	2.9500	0	34.3830	0	27.403	0	1026.386	0	14.0	4	4.3	4	-1E+10	1	-1E+10	1	-1E+10	1	-1E+10	1	-1E+10	1	-1E+10	1
4902554	7	C	04/11/2021	08:58	-137.218	49.498	0	1062.90	0	2.9140	0	34.3900	0	27.412	0	1051.147	0	13.8	4	4.3	4	-1E+10	1	-1E+10	1	-1E+10	1	-1E+10	1	-1E+10	1	-1E+10	1
4902554	7	C	04/11/2021	08:58	-137.218	49.498	0	1087.90	0	2.8680	0	34.3980	0	27.423	0	1075.807	0	13.5	4	4.2	4	-1E+10	1	-1E+10	1	-1E+10	1	-1E+10	1	-1E+10	1	-1E+10	1
4902554	7	C	04/11/2021	08:58	-137.218	49.498	0	1113.10	0	2.8290	0	34.4060	0	27.433	0	1100.660	0	13.6	4	4.2	4	-1E+10	1	-1E+10	1	-1E+10	1	-1E+10	1	-1E+10	1	-1E+10	1
4902554	7	C	04/11/2021	08:58	-137.218	49.498	0	1138.20	0	2.7870	0	34.4140	0	27.443	0	1125.413	0	13.8	4	4.2	4	-1E+10	1	-1E+10	1	-1E+10	1	-1E+10	1	-1E+10	1	-1E+10	1
4902554	7	C	04/11/2021	08:58	-137.218	49.498	0	1162.80	0	2.7450	0	34.4230	0	27.454	0	1149.669	0	13.9	4	4.3	4	-1E+10	1	-1E+10	1	-1E+10	1	-1E+10	1	-1E+10	1	-1E+10	1
4902554	7	C	04/11/2021	08:58	-137.218	49.498	0	1187.90	0	2.7030	0	34.4310	0	27.464	0	1174.415	0	14.1	4	4.3	4	-1E+10	1	-1E+10	1	-1E+10	1	-1E+10	1	-1E+10	1	-1E+10	1
4902554	7	C	04/11/2021	08:58	-137.218	49.498	0	1212.40	0	2.6550	0	34.4410	0	27.477	0	1198.568	0	14.5	4	4.4	4	-1E+10	1	-1E+10	1	-1E+10	1	-1E+10	1	-1E+10	1	-1E+10	1
4902554	7	C	04/11/2021	08:58	-137.218	49.498	0	1238.20	0	2.6200	0	34.4470	0	27.485	0	1223.998	0	14.8	4	4.5	4	-1E+10	1	-1E+10	1	-1E+10	1	-1E+10	1	-1E+10	1	-1E+10	1
4902554	7	C	04/11/2021	08:58	-137.218	49.498	0	1262.30	0	2.5940	0	34.4520	0	27.491	0	1247.750	0	15.2	4	4.6	4	-1E+10	1	-1E+10	1	-1E+10	1	-1E+10	1	-1E+10	1	-1E+10	1
4902554	7	C	04/11/2021	08:58	-137.218	49.498	0	1287.50	0	2.5690	0	34.4570	0	27.497	0	1272.584	0	15.6	4	4.8	4	-1E+10	1	-1E+10	1	-1E+10	1	-1E+10	1	-1E+10	1	-1E+10	1
4902554	7	C	04/11/2021	08:58	-137.218	49.498	0	1313.00	0	2.5390	0	34.4630	0	27.505	0	1297.710	0	16.0	4	4.9	4	-1E+10	1	-1E+10	1	-1E+10	1	-1E+10	1	-1E+10	1	-1E+10	1
4902554	7	C	04/11/2021	08:58	-137.218	49.498	0	1337.90	0	2.5220	0	34.4670	0	27.509	0	1322.242	0	16.3	4	5.0	4	-1E+10	1	-1E+10	1	-1E+10	1	-1E+10	1	-1E+10	1	-1E+10	1
4902554	7	C	04/11/2021	08:58	-137.218	49.498	0	1362.60	0	2.5060	0	34.4700	0	27.513	0	1346.574	0	16.7	4	5.1	4	-1E+10	1	-1E+10	1	-1E+10	1	-1E+10	1	-1E+10	1	-1E+10	1
4902554	7	C	04/11/2021	08:58	-137.218	49.498	0	1387.70	0	2.4810	0	34.4750	0	27.520	0	1371.297	0	17.4	4	5.3	4	-1E+10	1	-1E+10	1	-1E+10	1	-1E+10	1	-1E+10	1	-1E+10	1
4902554	7	C	04/11/2021	08:58	-137.218	49.498	0	1412.90	0	2.4480	0	34.4820	0	27.528	0	1396.116	0	18.3	4	5.6	4	-1E+10	1	-1E+10	1	-1E+10	1	-1E+10	1	-1E+10	1	-1E+10	1
4902554	7	C	04/11/2021	08:58	-137.218	49.498	0	1437.90	0	2.4150	0	34.4880	0	27.536	0	1420.735	0	19.3	4	5.9	4	-1E+10	1	-1E+10	1	-1E+10	1	-1E+10	1	-1E+10	1	-1E+10	1
4902554	7	C	04/11/2021	08:58	-137.218	49.498	0	1463.20	0	2.3890	0	34.4940	0	27.543	0	1445.646	0	20.1	4	6.1	4	-1E+10	1	-1E+10	1	-1E+10	1	-1E+10	1	-1E+10	1	-1E+10	1
4902554	7	C	04/11/2021	08:58	-137.218	49.498	0	1487.70	0	2.3670	0	34.4980	0	27.548	0	1469.767	0	21.1	4	6.4	4	-1E+10	1	-1E+10	1	-1E+10	1	-1E+10	1	-1E+10	1	-1E+10	1
4902554	7	C	04/11/2021	08:58	-137.218	49.498	0	1512.40	0	2.3270	0	34.5060	0	27.558	0	1494.082	0	22.7	4	6.9	4	-1E+10	1	-1E+10	1	-1E+10	1	-1E+10	1	-1E+10	1	-1E+10	1
4902554	7	C	04/11/2021	08:58	-137.218	49.498	0	1537.70	0	2.2920	0	34.5140	0	27.567	0	1518.985	0	24.2	4	7.3	4	-1E+10	1	-1E+10	1	-1E+10	1	-1E+10	1	-1E+10	1	-1E+10	1
4902554	7	C	04/11/2021	08:58	-137.218	49.498	0	1563.40	0	2.2680	0	34.5180	0	27.572	0	1544.278	0	25.3	4	7.7	4	-1E+10	1	-1E+10	1	-1E+10	1	-1E+10	1	-1E+10	1	-1E+10	1
4902554	7	C	04/11/2021	08:58	-137.218	49.498	0	1587.80	0	2.2500	0	34.5220	0	27.577	0	1568.290	0	26.2	4	7.9	4	-1E+10	1	-1E+10	1	-1E+10	1	-1E+10	1	-1E+10	1	-1E+10	1
4902554	7	C	04/11/2021	08:58	-137.218	49.498	0	1612.70	0	2.2440	0	34.5230	0	27.579	0	1592.790	0	26.7	4	8.1	4	-1E+10	1	-1E+10	1	-1E+10	1	-1E+10	1	-1E+10	1	-1E+10	1
4902554	7	C	04/11/2021	08:58	-137.218	49.498	0	1638.00	0	2.2310	0	34.5260	0	27.582	0	1617.681	0	27.7	4	8.4	4	-1E+10	1	-1E+10	1	-1E+10	1	-1E+10	1	-1E+10	1	-1E+10	1
4902554	7	C	04/11/2021	08:58	-137.218	49.498	0	1663.10	0	2.2150	0	34.5290	0	27.586	0	1642.372	0	28.7	4	8.7	4	-1E+10	1	-1E+10	1	-1E+10	1	-1E+10	1	-1E+10	1	-1E+10	1
4902554	7	C	04/11/2021	08:58	-137.218	49.498	0	1688.00	0	2.1960	0	34.5330	0	27.591	0	1666.864	0	30.2	4	9.1	4	-1E+10	1	-1E+10	1	-1E+10	1	-1E+10	1	-1E+10	1	-1E+10	1
4902554	7	C	04/11/2021	08:58	-137.218	49.498	0	1712.70	0	2.1720	0	34.5380	0	27.597	0	1691.157	0	31.7	4	9.6	4	-1E+10	1	-1E+10	1	-1E+10	1	-1E+10	1	-1E+10	1	-1E+10	1
4902554	7	C	04/11/2021	08:58	-137.218	49.498	0	1737.80	0	2.1500	0	34.5430	0	27.603	0	1715.839	0	33.1	4	10.0	4	-1E+10	1	-1E+10	1	-1E+10	1	-1E+10	1	-1E+10	1	-1E+10	1
4902554	7	C	04/11/2021	08:58	-137.218	49.498	0	1762.90	0	2.1320	0	34.5470	0	27.608	0	1740.519	0	34.6	4	10.5	4	-1E+10	1	-1E+10	1	-1E+10	1	-1E+10	1	-1E+10	1	-1E+10	1
4902554	7	C	04/11/2021	08:58	-137.218	49.498	0	1787.50	0	2.1100	0	34.5510	0	27.613	0	1764.705	0	36.1	4	10.9	4	-1E+10	1	-1E+10	1	-1E+10	1	-1E+10	1	-1E+10	1	-1E+10	1
4902554	7	C	04/11/2021	08:58	-137.218	49.498	0	1812.60	0	2.0960	0	34.5540	0	27.616	0	1789.379	0	37.2	4	11.2	4	-1E+10	1	-1E+10	1	-1E+10	1	-1E+10	1	-1E+10	1	-1E+10	1
4902554	7	C	04/11/2021	08:58	-137.218	49.498	0	1837.50	0	2.0770	0	34.5580	0	27.621	0	1813.854	0	39.0	4	11.8	4	-1E+10	1	-1E+10	1	-1E+10	1	-1E+10	1	-1E+10	1	-1E+10	1
4902554	7	C	04/11/2021	08:58	-137.218	49.498	0	1862.50	0	2.0550	0	34.5620	0	27.626	0	1838.424	0	40.6	4	12.2	4	-1E+10	1	-1E+10	1	-1E+10	1	-1E+10	1	-1E+10	1	-1E+10	1
4902554	7	C	04/11/2021	08:58	-137.218	49.498	0	1888.10	0	2.0370	0	34.5660	0	27.631	0	1863.581	0	42.0	4	12.7	4	-1E+10	1	-1E+10	1	-1E+10	1	-1E+10	1	-1E+10	1	-1E+10	1
4902554	7	C	04/11/2021	08:58	-137.218	49.498	0	1912.80	0	2.0250	0	34.5690	0	27.635	0	1887.851	0	43.1	4	13.0	4	-1E+10	1	-1E+10	1	-1E+10	1	-1E+10	1	-1E+10	1	-1E+10	1
4902554	7	C	04/11/2021	08:58	-137.218	49.498	0	1937.70	0	2.0110	0	34.5720	0	27.638	0	1912.314	0	44.4	4	13.4	4	-1E+10	1	-1E+10	1	-1E+10	1	-1E+10	1	-1E+10	1	-1E+10	1
4902554	7	C	04/11/2021	08:58	-137.218	49.498	0	1962.60	0	1.9960	0	34.5750	0	27.642	0	1936.775	0	45.7	4	13.8	4	-1E+10	1	-1E+10	1	-1E+10	1	-1E+10	1	-1E+10	1	-1E+10	1
4902554	7	C	04/11/2021	08:58	-137.218	49.498	0	1987.90	0	1.9830	0	34.5780	0	27.645	0	1961.626	0	47.0	4	14.2	4	-1E+10	1	-1E+10	1	-1E+10	1	-1E+10	1	-1E+10	1	-1E+10	1
4902554	7	C	04/11/2021	08:58	-137.218	49.498	0	2009.10	0	1.9660	0	34.5810	0	27.649	0	1982.447	0	48.1	4	14.5	4	-1E+10	1	-1E+10	1	-1E+10	1	-1E+10	1	-1E+10	1	-1E+10	1
4902554	7	C	04/11/2021	08:58	-137.218	49.498	0																										
4902554	8	C	04/21/2021	09:04	-137.093	49.522	0	0.30	0	8.3920	8	31.8710	8	24.761	0	0.297	0	291.0	4	100.0	4	-1E+10	1	-1E+10	1	-1E+10	1	-1E+10	1	-1E+10	1	-1E+10	1
4902554	8	C	04/21/2021	09:04	-137.093	49.522	0	0.90	0	8.1490	8	32.0660	8	24.949	0	0.892	0	291.3	4	99.7	4	-1E+10	1	-1E+10	1	-1E+10	1	-1E+10	1	-1E+10	1	-1E+10	1
4902554	8	C	04/21/2021	09:04	-137.093	49.522	0	1.90	0	7.9120	8	32.2570	8	25.133	0	1.884	0	290.9	4	99.2	4	-1E+10	1	-1E+10	1	-1E+10	1	-1E+10	1	-1E+10	1	-1E+10	1
4902554	8	C	04/21/2021	09:04	-137.093	49.522	0	3.00	0	7.8260	0	32.3270	0	25.200	0	2.974	0	290.8	4	99.0	4	-1E+10	1	-1E+10	1	-1E+10	1	-1E+10	1	-1E+10	1	-1E+10	1
4902554	8	C	04/21/2021	09:04	-137.093	49.522	0	4.20	0	7.7660	0	32.3850	0	25.254	0	4.164	0	290.8	4	98.9	4	-1E+10	1	-1E+10	1	-1E+10	1	-1E+10	1	-1E+10	1	-1E+10	1
4902554	8	C	04/21/2021	09:04	-137.093	49.522	0	5.10	0	7.7500	0	32.3980	0	25.267	0	5.056	0	290.7	4	98.9	4	-1E+10	1	-1E+10	1	-1E+10	1	-1E+10	1	-1E+10	1	-1E+10	1
4902554	8	C	04/21/2021	09:04	-137.093	49.522	0	6.10	0	7.7390	0	32.3950	0	25.266	0	6.048	0	290.6	4	98.8	4	-1E+10	1	-1E+10	1	-1E+10	1	-1E+10	1	-1E+10	1	-1E+10	1
4902554	8	C	04/21/2021	09:04	-137.093	49.522	0	7.20	0	7.7260	0	32.3950	0	25.268	0	7.138	0	290.8	4	98.8	4	-1E+10	1	-1E+10	1	-1E+10	1	-1E+10	1	-1E+10	1	-1E+10	1
4902554	8	C	04/21/2021	09:04	-137.093	49.522	0	7.90	0	7.7150	0	32.3940	0	25.269	0	7.832	0	290.8	4	98.8	4	-1E+10	1	-1E+10	1	-1E+10	1	-1E+10	1	-1E+10	1	-1E+10	1
4902554	8	C	04/21/2021	09:04	-137.093	49.522	0	9.10	0	7.6990	0	32.3930	0	25.270	0	9.022	0	291.3	4	98.9	4	-1E+10	1	-1E+10	1	-1E+10	1	-1E+10	1	-1E+10	1	-1E+10	1
4902554	8	C	04/21/2021	09:04	-137.093	49.522	0	10.00	0	7.5880	0	32.3940	0	25.287	0	9.914	0	291.2	4	98.7	4	-1E+10	1	-1E+10	1	-1E+10	1	-1E+10	1	-1E+10	1	-1E+10	1
4902554	8	C	04/21/2021	09:04	-137.093	49.522	0	15.60	0	7.2540	0	32.3960	0	25.334	0	15.466	0	291.7	4	98.1	4	-1E+10	1	-1E+10	1	-1E+10	1	-1E+10	1	-1E+10	1	-1E+10	1
4902554	8	C	04/21/2021	09:04	-137.093	49.522	0	25.90	0	6.7780	0	32.4120	0	25.410	0	25.677	0	291.0	4	96.8	4	-1E+10	1	-1E+10	1	-1E+10	1	-1E+10	1	-1E+10	1	-1E+10	1
4902554	8	C	04/21/2021	09:04	-137.093	49.522	0	35.40	0	6.6580	0	32.4160	0	25.429	0	35.095	0	289.7	4	96.1	4	-1E+10	1	-1E+10	1	-1E+10	1	-1E+10	1	-1E+10	1	-1E+10	1
4902554	8	C	04/21/2021	09:04	-137.093	49.522	0	45.30	0	6.5530	0	32.4190	0	25.445	0	44.909	0	287.5	4	95.1	4	-1E+10	1	-1E+10	1	-1E+10	1	-1E+10	1	-1E+10	1	-1E+10	1
4902554	8	C	04/21/2021	09:04	-137.093	49.522	0	55.10	0	6.4700	0	32.4280	0	25.463	0	54.623	0	287.9	4	95.1	4	-1E+10	1	-1E+10	1	-1E+10	1	-1E+10	1	-1E+10	1	-1E+10	1
4902554	8	C	04/21/2021	09:04	-137.093	49.522	0	65.30	0	6.3530	0	32.4340	0	25.483	0	64.733	0	289.5	4	95.4	4	-1E+10	1	-1E+10	1	-1E+10	1	-1E+10	1	-1E+10	1	-1E+10	1
4902554	8	C	04/21/2021	09:04	-137.093	49.522	0	75.80	0	6.3030	0	32.4500	0	25.502	0	75.140	0	289.9	4	95.4	4	-1E+10	1	-1E+10	1	-1E+10	1	-1E+10	1	-1E+10	1	-1E+10	1
4902554	8	C	04/21/2021	09:04	-137.093	49.522	0	85.50	0	6.2550	0	32.4500	0	25.508	0	84.753	0	288.1	4	94.7	4	-1E+10	1	-1E+10	1	-1E+10	1	-1E+10	1	-1E+10	1	-1E+10	1
4902554	8	C	04/21/2021	09:04	-137.093	49.522	0	95.60	0	6.1900	0	32.4510	0	25.517	0	94.763	0	286.1	4	93.9	4	-1E+10	1	-1E+10	1	-1E+10	1	-1E+10	1	-1E+10	1	-1E+10	1
4902554	8	C	04/21/2021	09:04	-137.093	49.522	0	105.50	0	6.1470	0	32.4530	0	25.524	0	104.573	0	282.8	4	92.8	4	-1E+10	1	-1E+10	1	-1E+10	1	-1E+10	1	-1E+10	1	-1E+10	1
4902554	8	C	04/21/2021	09:04	-137.093	49.522	0	115.70	0	6.1180	0	32.4580	0	25.531	0	114.681	0	275.3	4	90.2	4	-1E+10	1	-1E+10	1	-1E+10	1	-1E+10	1	-1E+10	1	-1E+10	1
4902554	8	C	04/21/2021	09:04	-137.093	49.522	0	125.40	0	6.1140	0	32.4770	0	25.547	0	124.293	0	251.5	4	82.4	4	-1E+10	1	-1E+10	1	-1E+10	1	-1E+10	1	-1E+10	1	-1E+10	1
4902554	8	C	04/21/2021	09:04	-137.093	49.522	0	135.30	0	6.1700	0	32.7700	0	25.771	0	134.102	0	202.9	4	66.7	4	-1E+10	1	-1E+10	1	-1E+10	1	-1E+10	1	-1E+10	1	-1E+10	1
4902554	8	C	04/21/2021	09:04	-137.093	49.522	0	145.40	0	6.3100	0	33.1800	0	26.077	0	144.109	0	165.7	4	54.8	4	-1E+10	1	-1E+10	1	-1E+10	1	-1E+10	1	-1E+10	1	-1E+10	1
4902554	8	C	04/21/2021	09:04	-137.093	49.522	0	155.60	0	6.1930	0	33.4830	0	26.332	0	154.215	0	143.6	4	47.5	4	-1E+10	1	-1E+10	1	-1E+10	1	-1E+10	1	-1E+10	1	-1E+10	1
4902554	8	C	04/21/2021	09:04	-137.093	49.522	0	164.90	0	6.0660	0	33.6410	0	26.472	0	163.428	0	130.2	4	43.0	4	-1E+10	1	-1E+10	1	-1E+10	1	-1E+10	1	-1E+10	1	-1E+10	1
4902554	8	C	04/21/2021	09:04	-137.093	49.522	0	175.00	0	5.9950	0	33.7200	0	26.544	0	173.434	0	123.8	4	40.8	4	-1E+10	1	-1E+10	1	-1E+10	1	-1E+10	1	-1E+10	1	-1E+10	1
4902554	8	C	04/21/2021	09:04	-137.093	49.522	0	185.10	0	5.8730	0	33.7530	0	26.585	0	183.439	0	119.6	4	39.4	4	-1E+10	1	-1E+10	1	-1E+10	1	-1E+10	1	-1E+10	1	-1E+10	1
4902554	8	C	04/21/2021	09:04	-137.093	49.522	0	195.50	0	5.7410	0	33.7740	0	26.618	0	193.741	0	115.9	4	38.0	4	-1E+10	1	-1E+10	1	-1E+10	1	-1E+10	1	-1E+10	1	-1E+10	1
4902554	8	C	04/21/2021	09:04	-137.093	49.522	0	212.90	0	5.5670	0	33.7960	0	26.657	0	210.975	0	108.7	4	35.5	4	-1E+10	1	-1E+10	1	-1E+10	1	-1E+10	1	-1E+10	1	-1E+10	1
4902554	8	C	04/21/2021	09:04	-137.093	49.522	0	237.90	0	5.2840	0	33.8220	0	26.711	0	235.735	0	98.9	4	32.1	4	-1E+10	1	-1E+10	1	-1E+10	1	-1E+10	1	-1E+10	1	-1E+10	1
4902554	8	C	04/21/2021	09:04	-137.093	49.522	0	262.90	0	5.0870	0	33.8450	0	26.752	0	260.492	0	87.2	4	28.2	4	-1E+10	1	-1E+10	1	-1E+10	1	-1E+10	1	-1E+10	1	-1E+10	1
4902554	8	C	04/21/2021	09:04	-137.093	49.522	0	288.00	0	4.8880	0	33.8660	0	26.791	0	285.345	0	76.0	4	24.5	4	-1E+10	1	-1E+10	1	-1E+10	1	-1E+10	1	-1E+10	1	-1E+10	1
4902554	8	C	04/21/2021	09:04	-137.093	49.522	0	312.40	0	4.6520	0	33.8920	0	26.838	0	309.501	0	66.6	4	21.3	4	-1E+10	1	-1E+10	1	-1E+10	1	-1E+10	1	-1E+10	1	-1E+10	1
4902554	8	C	04/21/2021	09:04	-137.093	49.522	0	337.80	0	4.5240	0	33.9210	0	26.876	0	334.645	0	57.5	4	18.3	4	-1E+10	1	-1E+10	1	-1E+10	1	-1E+10	1	-1E+10	1	-1E+10	1
4902554	8	C	04/21/2021	09:04	-137.093	49.522	0	363.00	0	4.4320	0	33.9490	0	26.908	0	359.588	0	51.1	4	16.3	4	-1E+10	1	-1E+10	1	-1E+10	1	-1E+10	1	-1E+10	1	-1E+10	1
4902554	8	C	04/21/2021	09:04	-137.093	49.522	0	387.80	0	4.3390	0	33.9770	0	26.940	0	384.132	0	45.0	4	14.3	4	-1E+10	1	-1E+10	1	-1E+10	1	-1E+10	1	-1E+10	1	-1E+10	1
4902554	8	C	04/21/2021	09:04	-137.093	49.522	0	412.70	0	4.2940	0	34.0060	0	26.968	0	408.772	0	40.3	4	12.8	4	-1E+10	1	-1E+10	1	-1E+10	1	-1E+10	1	-1E+10	1	-1E+10	1
4902554	8	C	04/21/2021	09:04	-137.093	49.522	0	438.90	0	4.2350	0	34.0420	0	27.003	0	434.695	0	36.0	4	11.4	4	-1E+10	1	-1E+10	1	-1E+10	1	-1E+10	1	-1E+10	1	-1E+10	1
4902554	8	C	04/21/2021	09:04	-137.093	49.522	0	462.80	0	4.2020	0	34.0590	0	27.020	0	458.340	0	32.5	4	10.3	4	-1E+10	1	-1E+10	1	-1E+10	1	-1E+10	1	-1E+10	1	-1E+10	1
4902554	8	C	04/21/2021	09:04	-137.093	49.522	0	487.80	0	4.1510	0	34.0820	0	27.044	0	483.070	0	29.1	4	9.2	4	-1E+10	1	-1E+10	1	-1E+10	1	-1E+10	1	-1E+10	1	-1E+10	1
4902554	8	C	04/21/2021	09:04	-137.093	49.522	0	512.50	0	4.1020	0	34.1040	0	27.067	0	507.500	0	26.3	4	8.3	4	-1E+10	1	-1E+10	1	-1E+10	1	-1E+10	1	-1E+10	1	-1E+10	1
4902554	8	C	04/21/2021	09:04	-137.093	49.522	0	537.60	0	4.0650	0	34.1180	0	27.082	0	532.323	0	24.3	4	7.7	4	-1E+10	1	-1E+10	1	-1E+10	1	-1E+10	1	-1E+10	1	-1E+10	1
4902554	8	C	04/21/2021	09:04	-137.093	49.522	0	562.90	0	4.0120	0	34.1380	0	27.103	0	557.341	0	22.3	4	7.0	4	-1E+10	1	-1E+10	1	-1E+10	1	-1E+10	1	-1E+10	1	-1E+10	1
4902554	8	C	04/21/2021	09:04	-137.093	49.522	0	587.70	0	3.9560	0	34.1570	0	27.124	0	581.861	0	20.7	4	6.5	4	-1E+10	1	-1E+10	1	-1E+10	1	-1E+10	1	-1E+10	1	-1E+10	1
4902554	8	C	04/21/2021	09:04	-137.093	49.522	0	612.80	0	3.8990	0	34.1740	0	27.144	0	606.675	0	19.5	4	6.1	4	-1E+10	1	-1E+10	1	-1E+10	1	-1E+10	1	-1E+10	1	-1E+10	1
4902554	8	C	04/21/2021	09:04	-137.093	49.522	0	638.00	0	3.8390	0	34.1890	0	27.162	0	631.585	0	18.7	4	5.9	4	-1E+10	1	-1E+10	1	-1E+10	1	-1E+10	1	-1E+10	1	-1E+10	1
4902554	8	C	04/21/2021	09:04	-137.093	49.522	0	663.00	0	3.7810	0	34.2030	0	27.179	0	656.295	0	17.9	4	5.6	4	-1E+10	1	-1E+10	1	-1E+10	1	-1E+10	1	-1E+10	1	-1E+10	1
4902554	8	C	04/21/2021	09:04	-137.093	49.522	0	688.40	0	3.7080	0	34.2220	0	27.202	0	681.396	0	17.0	4	5.3	4	-1E+10	1	-1E+10	1	-1E+10	1	-1E+10	1	-1E+10	1	-1E+10	1
4902554	8	C	04/21/2021	09:04	-137.093	49.522	0	712.80	0	3.6650	0	34.2350	0	27.216	0	705.507	0	16.1	4	5.1	4	-1E+10	1	-1E+10	1	-1E+10	1	-1E+10	1	-1E+10	1	-1E+10	1
4902554	8	C	04/21/2021	09:04	-137.093	49.522	0	737.70	0	3.6090	0	34.2490	0	27.233	0	730.108	0	15.6	4	4.9	4	-1E+10	1	-1E+10	1	-1E+10	1	-1E+10	1	-1E+10	1	-1E+10	1
4902554	8	C	04/21/2021	09:04	-137.093	49.522	0	762.70	0	3.5460	0	34.2650	0	27.252	0	754.806	0	15.0	4	4.7	4	-1E+10	1	-1E+10	1	-1E+10	1	-1E+10	1	-1E+10	1	-1E+10	1
4902554	8	C	04/21/2021	09:04	-137.093	49.522	0	787.80	0	3.5120	0	34.2760	0	27.264	0	779.599	0	14.4	4	4.5	4	-1E+10	1	-1E+10	1	-1E+10	1	-1E+10	1	-1E+10	1	-1E+10	1
4902554	8	C	04/21/2021	09:04	-137.093	49.522	0	812.40	0	3.4470	0	34.2920	0	27.284	0	803.896	0	13.8	4	4.3	4	-1E+10	1	-1E+10	1	-1E+10	1	-1E+10	1	-1E+10	1	-1E+10	1
4902554	8	C	04/21/2021	09:04	-137.093	49.522	0	837.50	0	3.3770	0	34.3060	0	27.302	0	828.683	0	13.6	4	4.2	4	-1E+10	1	-1E+10	1	-1E+10	1	-1E+10	1	-1E+10	1	-1E+10	1
4902554	8	C	04/21/2021	09:04	-137.093	49.522	0	863.30	0	3.3090	0	34.3180	0	27.318	0	854.159	0	13.6	4	4.2	4	-1E+10	1	-1E+10	1	-1E+10	1	-1E+10	1	-1E+10	1	-1E+10	1
4902554	8	C	04/21/2021	09:04	-137.093	49.522	0	888.00	0	3.2440	0	34.3310	0	27.334	0	878.546	0	13.6	4	4.2	4	-1E+10	1	-1E+10	1	-1E+10	1	-1E+10	1	-1E+10	1	-1E+10	1
4902554	8	C	04/21/2021	09:04	-137.093	49.522	0	912.70	0	3.2010	0	34.3390	0	27.345	0	902.929	0	13.7	4	4.2	4	-1E+10	1	-1E+10	1	-1E+10	1	-1E+10	1	-1E+10	1	-1E+10	1
4902554	8	C	04/21/2021	09:04	-137.093	49.522	0	938.00	0	3.1660	0	34.3450	0	27.353	0	927.902	0	13.8	4	4.3	4	-1E+10	1	-1E+10	1	-1E+10	1	-1E+10	1	-1E+10	1	-1E+10	1
4902554	8	C	04/21/2021	09:04	-137.093	49.522	0	962.80	0	3.1110	0	34.3520	0	27.364	0	952.379	0	13.9	4	4.3	4	-1E+10	1	-1E+10	1	-1E+10	1	-1E+10	1	-1E+10	1	-1E+10	1
4902554	8	C	04/21/2021	09:04	-137.093	49.522	0	987.60	0	3.0520	0	34.3620	0	27.377	0	976.853	0	13.8	4	4.3	4	-1E+10	1	-1E+10	1	-1E+10	1	-1E+10	1	-1E+10	1	-1E+10	1
4902554	8	C	04/21/2021	09:04	-137.093	49.522	0	1012.50	0	3.0100	0	34.3700	0	27.388	0	1001.422	0	13.8	4	4.2	4	-1E+10	1	-1E+10	1	-1E+10	1	-1E+10	1	-1E+10	1	-1E+10	1
4902554	8	C	04/21/2021	09:04	-137.093	49.522	0	1037.90	0	2.9740	0	34.3770	0	27.397	0	1026.482	0	13.6	4	4.2	4	-1E+10	1	-1E+10	1	-1E+10	1	-1E+10	1	-1E+10	1	-1E+10	1
4902554	8	C	04/21/2021	09:04	-137.093	49.522	0	1063.90	0	2.9300	0	34.3860	0	27.408	0	1052.131	0	13.6	4	4.2	4	-1E+10	1	-1E+10	1	-1E+10	1	-1E+10	1	-1E+10	1	-1E+10	1
4902554	8	C	04/21/2021	09:04	-137.093	49.522	0	1087.70	0	2.8910	0	34.3940	0	27.418	0	1075.607	0	13.6	4	4.2	4	-1E+10	1	-1E+10	1	-1E+10	1	-1E+10	1	-1E+10	1	-1E+10	1
4902554	8	C	04/21/2021	09:04	-137.093	49.522	0	1112.80	0	2.8370	0	34.4050	0	27.431	0	1100.362	0	13.6	4	4.2	4	-1E+10	1	-1E+10	1	-1E+10	1	-1E+10	1	-1E+10	1	-1E+10	1
4902554	8	C	04/21/2021	09:04	-137.093	49.522	0	1137.90	0	2.8070	0	34.4110	0	27.439	0	1125.114	0	13.6	4	4.2	4	-1E+10	1	-1E+10	1	-1E+10	1	-1E+10	1	-1E+10	1	-1E+10	1
4902554	8	C	04/21/2021	09:04	-137.093	49.522	0	1163.00	0	2.7790	0	34.4180	0	27.447	0	1149.864	0	13.6	4	4.2	4	-1E+10	1	-1E+10	1	-1E+10	1	-1E+10	1	-1E+10	1	-1E+10	1
4902554	8	C	04/21/2021	09:04	-137.093	49.522	0	1187.80	0	2.7570	0	34.4210	0	27.452	0	1174.314	0	13.8	4	4.2	4	-1E+10	1	-1E+10	1	-1E+10	1	-1E+10	1	-1E+10	1	-1E+10	1
4902554	8	C	04/21/2021	09:04	-137.093	49.522	0	1212.80	0	2.7310	0	34.4270	0	27.459	0	1198.959	0	13.9	4	4.3	4	-1E+10	1	-1E+10	1	-1E+10	1	-1E+10	1	-1E+10	1	-1E+10	1
4902554	8	C	04/21/2021	09:04	-137.093	49.522	0	1238.30	0	2.6960	0	34.4340	0	27.468	0	1224.094	0	14.1	4	4.3	4	-1E+10	1	-1E+10	1	-1E+10	1	-1E+10	1	-1E+10	1	-1E+10	1
4902554	8	C	04/21/2021	09:04	-137.093	49.522	0	1263.40	0	2.6640	0	34.4400	0	27.475	0	1248.832	0	14.3	4	4.4	4	-1E+10	1	-1E+10	1	-1E+10	1	-1E+10	1	-1E+10	1	-1E+10	1
4902554	8	C	04/21/2021	09:04	-137.093	49.522	0	1288.20	0	2.6340	0	34.4460	0	27.483	0	1273.271	0	14.6	4	4.5	4	-1E+10	1	-1E+10	1	-1E+10	1	-1E+10	1	-1E+10	1	-1E+10	1
4902554	8	C	04/21/2021	09:04	-137.093	49.522	0	1312.60	0	2.6020	0	34.4530	0	27.491	0	1297.313	0	14.9	4	4.5	4	-1E+10	1	-1E+10	1	-1E+10	1	-1E+10	1	-1E+10	1	-1E+10	1
4902554	8	C	04/21/2021	09:04	-137.093	49.522	0	1337.40	0	2.5790	0	34.4580	0	27.497	0	1321.746	0	14.9	4	4.6	4	-1E+10	1	-1E+10	1	-1E+10	1	-1E+10	1	-1E+10	1	-1E+10	1
4902554	8	C	04/21/2021	09:04	-137.093	49.522	0	1363.10	0	2.5290	0	34.4680	0	27.510	0	1347.063	0	16.0	4	4.9	4	-1E+10	1	-1E+10	1	-1E+10	1	-1E+10	1	-1E+10	1	-1E+10	1
4902554	8	C	04/21/2021	09:04	-137.093	49.522	0	1387.50	0	2.4940	0	34.4730	0	27.517	0	1371.097	0	16.9	4	5.1	4	-1E+10	1	-1E+10	1	-1E+10	1	-1E+10	1	-1E+10	1	-1E+10	1
4902554	8	C	04/21/2021	09:04	-137.093	49.522	0	1412.70	0	2.4680	0	34.4790	0	27.524	0	1395.916	0	17.5	4	5.3	4	-1E+10	1	-1E+10	1	-1E+10	1	-1E+10	1	-1E+10	1	-1E+10	1
4902554	8	C	04/21/2021	09:04	-137.093	49.522	0	1438.40	0	2.4340	0	34.4860	0	27.533	0	1421.224	0	18.5	4	5.6	4	-1E+10	1	-1E+10	1	-1E+10	1	-1E+10	1	-1E+10	1	-1E+10	1
4902554	8	C	04/21/2021	09:04	-137.093	49.522	0	1463.00	0	2.4090	0	34.4910	0	27.539	0	1445.446	0	19.2	4	5.8	4	-1E+10	1	-1E+10	1	-1E+10	1	-1E+10	1	-1E+10	1	-1E+10	1
4902554	8	C	04/21/2021	09:04	-137.093	49.522	0	1487.80	0	2.3920	0	34.4950	0	27.544	0	1469.862	0	19.9	4	6.1	4	-1E+10	1	-1E+10	1	-1E+10	1	-1E+10	1	-1E+10	1	-1E+10	1
4902554	8	C	04/21/2021	09:04	-137.093	49.522	0	1512.70	0	2.3650	0	34.5000	0	27.550	0	1494.374	0	21.0	4	6.4	4	-1E+10	1	-1E+10	1	-1E+10	1	-1E+10	1	-1E+10	1	-1E+10	1
4902554	8	C	04/21/2021	09:04	-137.093	49.522	0	1537.70	0	2.3330	0	34.5060	0	27.557	0	1518.982	0	22.4	4	6.8	4	-1E+10	1	-1E+10	1	-1E+10	1	-1E+10	1	-1E+10	1	-1E+10	1
4902554	8	C	04/21/2021	09:04	-137.093	49.522	0	1563.00	0	2.3020	0	34.5130	0	27.566	0	1543.881	0	23.8	4	7.2	4	-1E+10	1	-1E+10	1	-1E+10	1	-1E+10	1	-1E+10	1	-1E+10	1
4902554	8	C	04/21/2021	09:04	-137.093	49.522	0	1587.80	0	2.2760	0	34.5180	0	27.572	0	1568.286	0	25.1	4	7.6	4	-1E+10	1	-1E+10	1	-1E+10	1	-1E+10	1	-1E+10	1	-1E+10	1
4902554	8	C	04/21/2021	09:04	-137.093	49.522	0	1612.60	0	2.2520	0	34.5220	0	27.577	0	1592.688	0	26.7	4	8.1	4	-1E+10	1	-1E+10	1	-1E+10	1	-1E+10	1	-1E+10	1	-1E+10	1
4902554	8	C	04/21/2021	09:04	-137.093	49.522	0	1637.50	0	2.2180	0	34.5290	0	27.586	0	1617.186	0	28.6	4	8.7	4	-1E+10	1	-1E+10	1	-1E+10	1	-1E+10	1	-1E+10	1	-1E+10	1
4902554	8	C	04/21/2021	09:04	-137.093	49.522	0	1662.40	0	2.1940	0	34.5340	0	27.592	0	1641.680	0	30.0	4	9.1	4	-1E+10	1	-1E+10	1	-1E+10	1	-1E+10	1	-1E+10	1	-1E+10	1
4902554	8	C	04/21/2021	09:04	-137.093	49.522	0	1687.50	0	2.1700	0	34.5390	0	27.598	0	1666.369	0	31.9	4	9.6	4	-1E+10	1	-1E+10	1	-1E+10	1	-1E+10	1	-1E+10	1	-1E+10	1
4902554	8	C	04/21/2021	09:04	-137.093	49.522	0	1712.80	0	2.1370	0	34.5450	0	27.605	0	1691.251	0	34.2	4	10.3	4	-1E+10	1	-1E+10	1	-1E+10	1	-1E+10	1	-1E+10	1	-1E+10	1
4902554	8	C	04/21/2021	09:04	-137.093	49.522	0	1737.60	0	2.1050	0	34.5510	0	27.613	0	1715.639	0	36.3	4	11.0	4	-1E+10	1	-1E+10	1	-1E+10	1	-1E+10	1	-1E+10	1	-1E+10	1
4902554	8	C	04/21/2021	09:04	-137.093	49.522	0	1762.60	0	2.0830	0	34.5560	0	27.619	0	1740.221	0	38.0	4	11.5	4	-1E+10	1	-1E+10	1	-1E+10	1	-1E+10	1	-1E+10	1	-1E+10	1
4902554	8	C	04/21/2021	09:04	-137.093	49.522	0	1787.70	0	2.0550	0	34.5610	0	27.625	0	1764.898	0	40.5	4	12.2	4	-1E+10	1	-1E+10	1	-1E+10	1	-1E+10	1	-1E+10	1	-1E+10	1
4902554	8	C	04/21/2021	09:04	-137.093	49.522	0	1814.00	0	2.0260	0	34.5670	0	27.632	0	1790.751	0	42.4	4	12.8	4	-1E+10	1	-1E+10	1	-1E+10	1	-1E+10	1	-1E+10	1	-1E+10	1
4902554	8	C	04/21/2021	09:04	-137.093	49.522	0	1837.60	0	2.0150	0	34.5690	0	27.635	0	1813.948	0	43.3	4	13.1	4	-1E+10	1	-1E+10	1	-1E+10	1	-1E+10	1	-1E+10	1	-1E+10	1
4902554	8	C	04/21/2021	09:04	-137.093	49.522	0	1862.70	0	2.0030	0	34.5720	0	27.638	0	1838.617	0	44.6	4	13.5	4	-1E+10	1	-1E+10	1	-1E+10	1	-1E+10	1	-1E+10	1	-1E+10	1
4902554	8	C	04/21/2021	09:04	-137.093	49.522	0	1888.10	0	1.9890	0	34.5750	0	27.642	0	1863.577	0	45.5	4	13.7	4	-1E+10	1	-1E+10	1	-1E+10	1	-1E+10	1	-1E+10	1	-1E+10	1
4902554	8	C	04/21/2021	09:04	-137.093	49.522	0	1913.10	0	1.9840	0	34.5760	0	27.643	0	1888.142	0	46.2	4	13.9	4	-1E+10	1	-1E+10	1	-1E+10	1	-1E+10	1	-1E+10	1	-1E+10	1
4902554	8	C	04/21/2021	09:04	-137.093	49.522	0	1938.00	0	1.9750	0	34.5790	0	27.647	0	1912.605	0	47.2	4	14.2	4	-1E+10	1	-1E+10	1	-1E+10	1	-1E+10	1	-1E+10	1	-1E+10	1
4902554	8	C	04/21/2021	09:04	-137.093	49.522	0	1962.70	0	1.9620	0	34.5810	0	27.649	0	1936.869	0	48.1	4	14.5	4	-1E+10	1	-1E+10	1	-1E+10	1	-1E+10	1	-1E+10	1	-1E+10	1
4902554	8	C	04/21/2021	09:04	-137.093	49.522	0	1983.40	0	1.9560	0	34.5820	0	27.651	0	1957.202	0	48.3	4	14.5	4	-1E+10	1	-1E+10	1	-1E+10	1	-1E+10	1	-1E+10	1	-1E+10	1
4902554	8	C	04/21/2021	09:04	-137.093	49.522	0																										
4902554	9	C	05/01/2021	08:57	-136.932	49.560	0	0.40	0	7.8170	0	32.3720	0	25.237	0	0.397	0	288.0	4	98.1	4	-1E+10	1	-1E+10	1	-1E+10	1	-1E+10	1	-1E+10	1	-1E+10	1
4902554	9	C	05/01/2021	08:57	-136.932	49.560	0	1.10	0	7.8180	0	32.3820	0	25.245	0	1.091	0	287.9	4	98.0	4	-1E+10	1	-1E+10	1	-1E+10	1	-1E+10	1	-1E+10	1	-1E+10	1
4902554	9	C	05/01/2021	08:57	-136.932	49.560	0	2.00	0	7.8180	0	32.3830	0	25.245	0	1.983	0	287.9	4	98.0	4	-1E+10	1	-1E+10	1	-1E+10	1	-1E+10	1	-1E+10	1	-1E+10	1
4902554	9	C	05/01/2021	08:57	-136.932	49.560	0	3.00	0	7.8210	0	32.3820	0	25.244	0	2.974	0	287.8	4	98.0	4	-1E+10	1	-1E+10	1	-1E+10	1	-1E+10	1	-1E+10	1	-1E+10	1
4902554	9	C	05/01/2021	08:57	-136.932	49.560	0	3.90	0	7.8210	0	32.3810	0	25.243	0	3.867	0	287.9	4	98.0	4	-1E+10	1	-1E+10	1	-1E+10	1	-1E+10	1	-1E+10	1	-1E+10	1
4902554	9	C	05/01/2021	08:57	-136.932	49.560	0	5.00	0	7.8180	0	32.3850	0	25.247	0	4.957	0	287.9	4	98.0	4	-1E+10	1	-1E+10	1	-1E+10	1	-1E+10	1	-1E+10	1	-1E+10	1
4902554	9	C	05/01/2021	08:57	-136.932	49.560	0	6.00	0	7.8130	0	32.3860	0	25.249	0	5.949	0	288.0	4	98.1	4	-1E+10	1	-1E+10	1	-1E+10	1	-1E+10	1	-1E+10	1	-1E+10	1
4902554	9	C	05/01/2021	08:57	-136.932	49.560	0	7.10	0	7.7940	0	32.3850	0	25.250	0	7.039	0	288.2	4	98.1	4	-1E+10	1	-1E+10	1	-1E+10	1	-1E+10	1	-1E+10	1	-1E+10	1
4902554	9	C	05/01/2021	08:57	-136.932	49.560	0	7.90	0	7.7500	0	32.3820	0	25.254	0	7.832	0	288.2	4	98.0	4	-1E+10	1	-1E+10	1	-1E+10	1	-1E+10	1	-1E+10	1	-1E+10	1
4902554	9	C	05/01/2021	08:57	-136.932	49.560	0	9.10	0	7.7220	0	32.3840	0	25.260	0	9.022	0	288.3	4	98.0	4	-1E+10	1	-1E+10	1	-1E+10	1	-1E+10	1	-1E+10	1	-1E+10	1
4902554	9	C	05/01/2021	08:57	-136.932	49.560	0	10.10	0	7.7110	0	32.3830	0	25.261	0	10.014	0	288.1	4	97.9	4	-1E+10	1	-1E+10	1	-1E+10	1	-1E+10	1	-1E+10	1	-1E+10	1
4902554	9	C	05/01/2021	08:57	-136.932	49.560	0	15.50	0	7.6530	0	32.3850	0	25.270	0	15.367	0	288.2	4	97.8	4	-1E+10	1	-1E+10	1	-1E+10	1	-1E+10	1	-1E+10	1	-1E+10	1
4902554	9	C	05/01/2021	08:57	-136.932	49.560	0	25.20	0	7.5590	0	32.3880	0	25.286	0	24.983	0	288.1	4	97.6	4	-1E+10	1	-1E+10	1	-1E+10	1	-1E+10	1	-1E+10	1	-1E+10	1
4902554	9	C	05/01/2021	08:57	-136.932	49.560	0	35.40	0	7.2740	0	32.3920	0	25.329	0	35.095	0	287.9	4	96.8	4	-1E+10	1	-1E+10	1	-1E+10	1	-1E+10	1	-1E+10	1	-1E+10	1
4902554	9	C	05/01/2021	08:57	-136.932	49.560	0	45.20	0	6.9160	0	32.4020	0	25.385	0	44.809	0	285.2	4	95.2	4	-1E+10	1	-1E+10	1	-1E+10	1	-1E+10	1	-1E+10	1	-1E+10	1
4902554	9	C	05/01/2021	08:57	-136.932	49.560	0	55.30	0	6.6800	0	32.4130	0	25.424	0	54.821	0	285.1	4	94.6	4	-1E+10	1	-1E+10	1	-1E+10	1	-1E+10	1	-1E+10	1	-1E+10	1
4902554	9	C	05/01/2021	08:57	-136.932	49.560	0	65.50	0	6.5190	0	32.4180	0	25.449	0	64.931	0	284.2	4	94.0	4	-1E+10	1	-1E+10	1	-1E+10	1	-1E+10	1	-1E+10	1	-1E+10	1
4902554	9	C	05/01/2021	08:57	-136.932	49.560	0	75.40	0	6.4320	0	32.4250	0	25.466	0	74.743	0	282.6	4	93.3	4	-1E+10	1	-1E+10	1	-1E+10	1	-1E+10	1	-1E+10	1	-1E+10	1
4902554	9	C	05/01/2021	08:57	-136.932	49.560	0	85.30	0	6.3680	0	32.4410	0	25.486	0	84.555	0	279.9	4	92.2	4	-1E+10	1	-1E+10	1	-1E+10	1	-1E+10	1	-1E+10	1	-1E+10	1
4902554	9	C	05/01/2021	08:57	-136.932	49.560	0	95.70	0	6.1780	0	32.4510	0	25.518	0	94.861	0	270.0	4	88.6	4	-1E+10	1	-1E+10	1	-1E+10	1	-1E+10	1	-1E+10	1	-1E+10	1
4902554	9	C	05/01/2021	08:57	-136.932	49.560	0	105.30	0	6.2010	0	32.5790	0	25.616	0	104.375	0	237.6	4	78.1	4	-1E+10	1	-1E+10	1	-1E+10	1	-1E+10	1	-1E+10	1	-1E+10	1
4902554	9	C	05/01/2021	08:57	-136.932	49.560	0	115.20	0	6.2430	0	32.9550	0	25.908	0	114.185	0	189.3	4	62.4	4	-1E+10	1	-1E+10	1	-1E+10	1	-1E+10	1	-1E+10	1	-1E+10	1
4902554	9	C	05/01/2021	08:57	-136.932	49.560	0	125.20	0	6.2640	0	33.3510	0	26.218	0	124.094	0	153.0	4	50.6	4	-1E+10	1	-1E+10	1	-1E+10	1	-1E+10	1	-1E+10	1	-1E+10	1
4902554	9	C	05/01/2021	08:57	-136.932	49.560	0	135.20	0	6.2990	0	33.5470	0	26.368	0	134.002	0	137.6	4	45.6	4	-1E+10	1	-1E+10	1	-1E+10	1	-1E+10	1	-1E+10	1	-1E+10	1
4902554	9	C	05/01/2021	08:57	-136.932	49.560	0	145.10	0	6.2210	0	33.6460	0	26.457	0	143.811	0	130.0	4	43.1	4	-1E+10	1	-1E+10	1	-1E+10	1	-1E+10	1	-1E+10	1	-1E+10	1
4902554	9	C	05/01/2021	08:57	-136.932	49.560	0	155.10	0	6.1630	0	33.7080	0	26.513	0	153.719	0	125.1	4	41.4	4	-1E+10	1	-1E+10	1	-1E+10	1	-1E+10	1	-1E+10	1	-1E+10	1
4902554	9	C	05/01/2021	08:57	-136.932	49.560	0	165.20	0	5.9780	0	33.7340	0	26.557	0	163.725	0	121.6	4	40.1	4	-1E+10	1	-1E+10	1	-1E+10	1	-1E+10	1	-1E+10	1	-1E+10	1
4902554	9	C	05/01/2021	08:57	-136.932	49.560	0	175.40	0	5.8620	0	33.7640	0	26.595	0	173.829	0	117.0	4	38.5	4	-1E+10	1	-1E+10	1	-1E+10	1	-1E+10	1	-1E+10	1	-1E+10	1
4902554	9	C	05/01/2021	08:57	-136.932	49.560	0	185.80	0	5.7770	0	33.7810	0	26.619	0	184.132	0	113.2	4	37.2	4	-1E+10	1	-1E+10	1	-1E+10	1	-1E+10	1	-1E+10	1	-1E+10	1
4902554	9	C	05/01/2021	08:57	-136.932	49.560	0	195.40	0	5.6590	0	33.7970	0	26.646	0	193.641	0	108.4	4	35.5	4	-1E+10	1	-1E+10	1	-1E+10	1	-1E+10	1	-1E+10	1	-1E+10	1
4902554	9	C	05/01/2021	08:57	-136.932	49.560	0	212.90	0	5.4370	0	33.8170	0	26.689	0	210.975	0	100.6	4	32.8	4	-1E+10	1	-1E+10	1	-1E+10	1	-1E+10	1	-1E+10	1	-1E+10	1
4902554	9	C	05/01/2021	08:57	-136.932	49.560	0	238.00	0	5.1570	0	33.8340	0	26.735	0	235.833	0	90.7	4	29.4	4	-1E+10	1	-1E+10	1	-1E+10	1	-1E+10	1	-1E+10	1	-1E+10	1
4902554	9	C	05/01/2021	08:57	-136.932	49.560	0	263.00	0	4.9700	0	33.8520	0	26.771	0	260.590	0	79.9	4	25.7	4	-1E+10	1	-1E+10	1	-1E+10	1	-1E+10	1	-1E+10	1	-1E+10	1
4902554	9	C	05/01/2021	08:57	-136.932	49.560	0	288.70	0	4.7830	0	33.8780	0	26.813	0	286.037	0	69.7	4	22.4	4	-1E+10	1	-1E+10	1	-1E+10	1	-1E+10	1	-1E+10	1	-1E+10	1
4902554	9	C	05/01/2021	08:57	-136.932	49.560	0	312.70	0	4.6280	0	33.9030	0	26.850	0	309.797	0	62.2	4	19.9	4	-1E+10	1	-1E+10	1	-1E+10	1	-1E+10	1	-1E+10	1	-1E+10	1
4902554	9	C	05/01/2021	08:57	-136.932	49.560	0	337.90	0	4.5110	0	33.9270	0	26.882	0	334.743	0	56.2	4	17.9	4	-1E+10	1	-1E+10	1	-1E+10	1	-1E+10	1	-1E+10	1	-1E+10	1
4902554	9	C	05/01/2021	08:57	-136.932	49.560	0	363.10	0	4.4490	0	33.9480	0	26.905	0	359.686	0	52.5	4	16.7	4	-1E+10	1	-1E+10	1	-1E+10	1	-1E+10	1	-1E+10	1	-1E+10	1
4902554	9	C	05/01/2021	08:57	-136.932	49.560	0	388.10	0	4.3940	0	33.9700	0	26.929	0	384.427	0	48.0	4	15.3	4	-1E+10	1	-1E+10	1	-1E+10	1	-1E+10	1	-1E+10	1	-1E+10	1
4902554	9	C	05/01/2021	08:57	-136.932	49.560	0	413.30	0	4.3470	0	33.9970	0	26.955	0	409.364	0	43.1	4	13.7	4	-1E+10	1	-1E+10	1	-1E+10	1	-1E+10	1	-1E+10	1	-1E+10	1
4902554	9	C	05/01/2021	08:57	-136.932	49.560	0	438.00	0	4.2770	0	34.0250	0	26.985	0	433.803	0	38.3	4	12.2	4	-1E+10	1	-1E+10	1	-1E+10	1	-1E+10	1	-1E+10	1	-1E+10	1
4902554	9	C	05/01/2021	08:57	-136.932	49.560	0	463.20	0	4.2070	0	34.0550	0	27.017	0	458.734	0	33.0	4	10.5	4	-1E+10	1	-1E+10	1	-1E+10	1	-1E+10	1	-1E+10	1	-1E+10	1
4902554	9	C	05/01/2021	08:57	-136.932	49.560	0	487.90	0	4.1450	0	34.0840	0	27.046	0	483.167	0	28.4	4	9.0	4	-1E+10	1	-1E+10	1	-1E+10	1	-1E+10	1	-1E+10	1	-1E+10	1
4902554	9	C	05/01/2021	08:57	-136.932	49.560	0	513.10	0	4.0940	0	34.1080	0	27.071	0	508.092	0	25.5	4	8.1	4	-1E+10	1	-1E+10	1	-1E+10	1	-1E+10	1	-1E+10	1	-1E+10	1
4902554	9	C	05/01/2021	08:57	-136.932	49.560	0	538.20	0	4.0430	0	34.1260	0	27.091	0	532.915	0	23.4	4	7.4	4	-1E+10	1	-1E+10	1	-1E+10	1	-1E+10	1	-1E+10	1	-1E+10	1
4902554	9	C	05/01/2021	08:57	-136.932	49.560	0	563.30	0	3.9890	0	34.1440	0	27.111	0	557.734	0	21.8	4	6.9	4	-1E+10	1	-1E+10	1	-1E+10	1	-1E+10	1	-1E+10	1	-1E+10	1
4902554	9	C	05/01/2021	08:57	-136.932	49.560	0	588.30	0	3.9450	0	34.1590	0	27.127	0	582.452	0	20.6	4	6.5	4	-1E+10	1	-1E+10	1	-1E+10	1	-1E+10	1	-1E+10	1	-1E+10	1
4902554	9	C	05/01/2021	08:57	-136.932	49.560	0	613.20	0	3.8770	0	34.1780	0	27.149	0	607.069	0	19.4	4	6.1	4	-1E+10	1	-1E+10	1	-1E+10	1	-1E+10	1	-1E+10	1	-1E+10	1
4902554	9	C	05/01/2021	08:57	-136.932	49.560	0	637.80	0	3.8350	0	34.1920	0	27.165	0	631.385	0	18.3	4	5.8	4	-1E+10	1	-1E+10	1	-1E+10	1	-1E+10	1	-1E+10	1	-1E+10	1
4902554	9	C	05/01/2021	08:57	-136.932	49.560	0	662.90	0	3.7930	0	34.2040	0	27.179	0	656.193	0	17.8	4	5.6	4	-1E+10	1	-1E+10	1	-1E+10	1	-1E+10	1	-1E+10	1	-1E+10	1
4902554	9	C	05/01/2021	08:57	-136.932	49.560	0	688.20	0	3.7140	0	34.2200	0	27.199	0	681.196	0	17.2	4	5.4	4	-1E+10	1	-1E+10	1	-1E+10	1	-1E+10	1	-1E+10	1	-1E+10	1
4902554	9	C	05/01/2021	08:57	-136.932	49.560	0	713.90	0	3.6440	0	34.2360	0	27.219	0	706.591	0	16.5	4	5.2	4	-1E+10	1	-1E+10	1	-1E+10	1	-1E+10	1	-1E+10	1	-1E+10	1
4902554	9	C	05/01/2021	08:57	-136.932	49.560	0	737.80	0	3.5530	0	34.2580	0	27.246	0	730.205	0	15.7	4	4.9	4	-1E+10	1	-1E+10	1	-1E+10	1	-1E+10	1	-1E+10	1	-1E+10	1
4902554	9	C	05/01/2021	08:57	-136.932	49.560	0	762.30	0	3.5040	0	34.2740	0	27.263	0	754.408	0	14.7	4	4.6	4	-1E+10	1	-1E+10	1	-1E+10	1	-1E+10	1	-1E+10	1	-1E+10	1
4902554	9	C	05/01/2021	08:57	-136.932	49.560	0	788.30	0	3.4400	0	34.2900	0	27.282	0	780.090	0	14.2	4	4.4	4	-1E+10	1	-1E+10	1	-1E+10	1	-1E+10	1	-1E+10	1	-1E+10	1
4902554	9	C	05/01/2021	08:57	-136.932	49.560	0	812.80	0	3.3960	0	34.3010	0	27.296	0	804.288	0	13.9	4	4.3	4	-1E+10	1	-1E+10	1	-1E+10	1	-1E+10	1	-1E+10	1	-1E+10	1
4902554	9	C	05/01/2021	08:57	-136.932	49.560	0	838.10	0	3.3620	0	34.3090	0	27.305	0	829.273	0	13.8	4	4.3	4	-1E+10	1	-1E+10	1	-1E+10	1	-1E+10	1	-1E+10	1	-1E+10	1
4902554	9	C	05/01/2021	08:57	-136.932	49.560	0	863.00	0	3.3250	0	34.3170	0	27.315	0	853.860	0	13.7	4	4.3	4	-1E+10	1	-1E+10	1	-1E+10	1	-1E+10	1	-1E+10	1	-1E+10	1
4902554	9	C	05/01/2021	08:57	-136.932	49.560	0	887.60	0	3.2790	0	34.3240	0	27.325	0	878.148	0	13.8	4	4.3	4	-1E+10	1	-1E+10	1	-1E+10	1	-1E+10	1	-1E+10	1	-1E+10	1
4902554	9	C	05/01/2021	08:57	-136.932	49.560	0	912.90	0	3.2280	0	34.3320	0	27.337	0	903.124	0	13.7	4	4.2	4	-1E+10	1	-1E+10	1	-1E+10	1	-1E+10	1	-1E+10	1	-1E+10	1
4902554	9	C	05/01/2021	08:57	-136.932	49.560	0	937.90	0	3.1840	0	34.3430	0	27.350	0	927.801	0	13.5	4	4.2	4	-1E+10	1	-1E+10	1	-1E+10	1	-1E+10	1	-1E+10	1	-1E+10	1
4902554	9	C	05/01/2021	08:57	-136.932	49.560	0	962.50	0	3.1070	0	34.3560	0	27.367	0	952.080	0	13.8	4	4.3	4	-1E+10	1	-1E+10	1	-1E+10	1	-1E+10	1	-1E+10	1	-1E+10	1
4902554	9	C	05/01/2021	08:57	-136.932	49.560	0	987.70	0	3.0340	0	34.3660	0	27.382	0	976.948	0	13.8	4	4.3	4	-1E+10	1	-1E+10	1	-1E+10	1	-1E+10	1	-1E+10	1	-1E+10	1
4902554	9	C	05/01/2021	08:57	-136.932	49.560	0	1013.40	0	2.9920	0	34.3740	0	27.392	0	1002.307	0	13.5	4	4.2	4	-1E+10	1	-1E+10	1	-1E+10	1	-1E+10	1	-1E+10	1	-1E+10	1
4902554	9	C	05/01/2021	08:57	-136.932	49.560	0	1037.70	0	2.9550	0	34.3810	0	27.401	0	1026.281	0	13.5	4	4.2	4	-1E+10	1	-1E+10	1	-1E+10	1	-1E+10	1	-1E+10	1	-1E+10	1
4902554	9	C	05/01/2021	08:57	-136.932	49.560	0	1062.70	0	2.9040	0	34.3910	0	27.414	0	1050.944	0	13.5	4	4.2	4	-1E+10	1	-1E+10	1	-1E+10	1	-1E+10	1	-1E+10	1	-1E+10	1
4902554	9	C	05/01/2021	08:57	-136.932	49.560	0	1087.90	0	2.8700	0	34.3990	0	27.424	0	1075.800	0	13.4	4	4.1	4	-1E+10	1	-1E+10	1	-1E+10	1	-1E+10	1	-1E+10	1	-1E+10	1
4902554	9	C	05/01/2021	08:57	-136.932	49.560	0	1113.20	0	2.8450	0	34.4040	0	27.430	0	1100.753	0	13.4	4	4.1	4	-1E+10	1	-1E+10	1	-1E+10	1	-1E+10	1	-1E+10	1	-1E+10	1
4902554	9	C	05/01/2021	08:57	-136.932	49.560	0	1138.20	0	2.8150	0	34.4110	0	27.438	0	1125.406	0	13.5	4	4.1	4	-1E+10	1	-1E+10	1	-1E+10	1	-1E+10	1	-1E+10	1	-1E+10	1
4902554	9	C	05/01/2021	08:57	-136.932	49.560	0	1162.70	0	2.7780	0	34.4180	0	27.447	0	1149.564	0	13.6	4	4.2	4	-1E+10	1	-1E+10	1	-1E+10	1	-1E+10	1	-1E+10	1	-1E+10	1
4902554	9	C	05/01/2021	08:57	-136.932	49.560	0	1187.60	0	2.7380	0	34.4260	0	27.457	0	1174.113	0	13.7	4	4.2	4	-1E+10	1	-1E+10	1	-1E+10	1	-1E+10	1	-1E+10	1	-1E+10	1
4902554	9	C	05/01/2021	08:57	-136.932	49.560	0	1212.60	0	2.6970	0	34.4340	0	27.467	0	1198.758	0	13.9	4	4.2	4	-1E+10	1	-1E+10	1	-1E+10	1	-1E+10	1	-1E+10	1	-1E+10	1
4902554	9	C	05/01/2021	08:57	-136.932	49.560	0	1237.60	0	2.6440	0	34.4450	0	27.481	0	1223.400	0	14.1	4	4.3	4	-1E+10	1	-1E+10	1	-1E+10	1	-1E+10	1	-1E+10	1	-1E+10	1
4902554	9	C	05/01/2021	08:57	-136.932	49.560	0	1262.80	0	2.6160	0	34.4500	0	27.487	0	1248.236	0	14.5	4	4.4	4	-1E+10	1	-1E+10	1	-1E+10	1	-1E+10	1	-1E+10	1	-1E+10	1
4902554	9	C	05/01/2021	08:57	-136.932	49.560	0	1287.90	0	2.5900	0	34.4550	0	27.494	0	1272.971	0	14.8	4	4.5	4	-1E+10	1	-1E+10	1	-1E+10	1	-1E+10	1	-1E+10	1	-1E+10	1
4902554	9	C	05/01/2021	08:57	-136.932	49.560	0	1312.80	0	2.5610	0	34.4610	0	27.501	0	1297.506	0	15.2	4	4.6	4	-1E+10	1	-1E+10	1	-1E+10	1	-1E+10	1	-1E+10	1	-1E+10	1
4902554	9	C	05/01/2021	08:57	-136.932	49.560	0	1337.90	0	2.5420	0	34.4650	0	27.506	0	1322.234	0	15.5	4	4.7	4	-1E+10	1	-1E+10	1	-1E+10	1	-1E+10	1	-1E+10	1	-1E+10	1
4902554	9	C	05/01/2021	08:57	-136.932	49.560	0	1363.20	0	2.5080	0	34.4720	0	27.515	0	1347.157	0	16.2	4	4.9	4	-1E+10	1	-1E+10	1	-1E+10	1	-1E+10	1	-1E+10	1	-1E+10	1
4902554	9	C	05/01/2021	08:57	-136.932	49.560	0	1388.10	0	2.4730	0	34.4790	0	27.523	0	1371.683	0	17.1	4	5.2	4	-1E+10	1	-1E+10	1	-1E+10	1	-1E+10	1	-1E+10	1	-1E+10	1
4902554	9	C	05/01/2021	08:57	-136.932	49.560	0	1413.00	0	2.4460	0	34.4830	0	27.529	0	1396.206	0	17.8	4	5.4	4	-1E+10	1	-1E+10	1	-1E+10	1	-1E+10	1	-1E+10	1	-1E+10	1
4902554	9	C	05/01/2021	08:57	-136.932	49.560	0	1438.20	0	2.4180	0	34.4890	0	27.536	0	1421.022	0	18.9	4	5.7	4	-1E+10	1	-1E+10	1	-1E+10	1	-1E+10	1	-1E+10	1	-1E+10	1
4902554	9	C	05/01/2021	08:57	-136.932	49.560	0	1462.70	0	2.3760	0	34.4970	0	27.546	0	1445.146	0	20.3	4	6.2	4	-1E+10	1	-1E+10	1	-1E+10	1	-1E+10	1	-1E+10	1	-1E+10	1
4902554	9	C	05/01/2021	08:57	-136.932	49.560	0	1487.70	0	2.3400	0	34.5040	0	27.555	0	1469.759	0	21.8	4	6.6	4	-1E+10	1	-1E+10	1	-1E+10	1	-1E+10	1	-1E+10	1	-1E+10	1
4902554	9	C	05/01/2021	08:57	-136.932	49.560	0	1513.00	0	2.3120	0	34.5100	0	27.562	0	1494.664	0	22.9	4	7.0	4	-1E+10	1	-1E+10	1	-1E+10	1	-1E+10	1	-1E+10	1	-1E+10	1
4902554	9	C	05/01/2021	08:57	-136.932	49.560	0	1538.20	0	2.2960	0	34.5130	0	27.566	0	1519.468	0	23.9	4	7.3	4	-1E+10	1	-1E+10	1	-1E+10	1	-1E+10	1	-1E+10	1	-1E+10	1
4902554	9	C	05/01/2021	08:57	-136.932	49.560	0	1562.70	0	2.2710	0	34.5180	0	27.572	0	1543.581	0	25.1	4	7.6	4	-1E+10	1	-1E+10	1	-1E+10	1	-1E+10	1	-1E+10	1	-1E+10	1
4902554	9	C	05/01/2021	08:57	-136.932	49.560	0	1587.60	0	2.2520	0	34.5220	0	27.577	0	1568.084	0	26.2	4	8.0	4	-1E+10	1	-1E+10	1	-1E+10	1	-1E+10	1	-1E+10	1	-1E+10	1
4902554	9	C	05/01/2021	08:57	-136.932	49.560	0	1612.70	0	2.2330	0	34.5260	0	27.582	0	1592.781	0	27.4	4	8.3	4	-1E+10	1	-1E+10	1	-1E+10	1	-1E+10	1	-1E+10	1	-1E+10	1
4902554	9	C	05/01/2021	08:57	-136.932	49.560	0	1638.20	0	2.2160	0	34.5290	0	27.586	0	1617.869	0	28.5	4	8.6	4	-1E+10	1	-1E+10	1	-1E+10	1	-1E+10	1	-1E+10	1	-1E+10	1
4902554	9	C	05/01/2021	08:57	-136.932	49.560	0	1662.90	0	2.1920	0	34.5340	0	27.592	0	1642.166	0	30.2	4	9.1	4	-1E+10	1	-1E+10	1	-1E+10	1	-1E+10	1	-1E+10	1	-1E+10	1
4902554	9	C	05/01/2021	08:57	-136.932	49.560	0	1687.70	0	2.1620	0	34.5400	0	27.599	0	1666.560	0	32.0	4	9.7	4	-1E+10	1	-1E+10	1	-1E+10	1	-1E+10	1	-1E+10	1	-1E+10	1
4902554	9	C	05/01/2021	08:57	-136.932	49.560	0	1712.70	0	2.1480	0	34.5430	0	27.603	0	1691.147	0	32.9	4	10.0	4	-1E+10	1	-1E+10	1	-1E+10	1	-1E+10	1	-1E+10	1	-1E+10	1
4902554	9	C	05/01/2021	08:57	-136.932	49.560	0	1737.60	0	2.1350	0	34.5460	0	27.607	0	1715.633	0	34.2	4	10.3	4	-1E+10	1	-1E+10	1	-1E+10	1	-1E+10	1	-1E+10	1	-1E+10	1
4902554	9	C	05/01/2021	08:57	-136.932	49.560	0	1762.90	0	2.1180	0	34.5490	0	27.610	0	1740.510	0	35.3	4	10.7	4	-1E+10	1	-1E+10	1	-1E+10	1	-1E+10	1	-1E+10	1	-1E+10	1
4902554	9	C	05/01/2021	08:57	-136.932	49.560	0	1787.90	0	2.1040	0	34.5520	0	27.614	0	1765.088	0	36.6	4	11.1	4	-1E+10	1	-1E+10	1	-1E+10	1	-1E+10	1	-1E+10	1	-1E+10	1
4902554	9	C	05/01/2021	08:57	-136.932	49.560	0	1812.50	0	2.0880	0	34.5560	0	27.619	0	1789.271	0	37.9	4	11.5	4	-1E+10	1	-1E+10	1	-1E+10	1	-1E+10	1	-1E+10	1	-1E+10	1
4902554	9	C	05/01/2021	08:57	-136.932	49.560	0	1837.50	0	2.0680	0	34.5600	0	27.624	0	1813.844	0	39.6	4	12.0	4	-1E+10	1	-1E+10	1	-1E+10	1	-1E+10	1	-1E+10	1	-1E+10	1
4902554	9	C	05/01/2021	08:57	-136.932	49.560	0	1862.70	0	2.0460	0	34.5640	0	27.629	0	1838.610	0	41.5	4	12.5	4	-1E+10	1	-1E+10	1	-1E+10	1	-1E+10	1	-1E+10	1	-1E+10	1
4902554	9	C	05/01/2021	08:57	-136.932	49.560	0	1887.80	0	2.0250	0	34.5680	0	27.634	0	1863.276	0	43.2	4	13.0	4	-1E+10	1	-1E+10	1	-1E+10	1	-1E+10	1	-1E+10	1	-1E+10	1
4902554	9	C	05/01/2021	08:57	-136.932	49.560	0	1912.80	0	2.0040	0	34.5730	0	27.639	0	1887.840	0	45.1	4	13.6	4	-1E+10	1	-1E+10	1	-1E+10	1	-1E+10	1	-1E+10	1	-1E+10	1
4902554	9	C	05/01/2021	08:57	-136.932	49.560	0	1937.90	0	1.9770	0	34.5780	0	27.646	0	1912.500	0	47.3	4	14.3	4	-1E+10	1	-1E+10	1	-1E+10	1	-1E+10	1	-1E+10	1	-1E+10	1
4902554	9	C	05/01/2021	08:57	-136.932	49.560	0	1963.10	0	1.9560	0	34.5820	0	27.651	0	1937.255	0	48.7	4	14.7	4	-1E+10	1	-1E+10	1	-1E+10	1	-1E+10	1	-1E+10	1	-1E+10	1
4902554	9	C	05/01/2021	08:57	-136.932	49.560	0																										
4902554	10	C	05/11/2021	09:05	-136.860	49.558	0	0.30	0	7.8740	0	32.3460	0	25.208	0	0.297	0	285.5	4	97.3	4	-1E+10	1	-1E+10	1	-1E+10	1	-1E+10	1	-1E+10	1	-1E+10	1
4902554	10	C	05/11/2021	09:05	-136.860	49.558	0	1.00	0	7.8720	0	32.3560	0	25.217	0	0.991	0	285.4	4	97.3	4	-1E+10	1	-1E+10	1	-1E+10	1	-1E+10	1	-1E+10	1	-1E+10	1
4902554	10	C	05/11/2021	09:05	-136.860	49.558	0	2.00	0	7.8760	0	32.3420	0	25.205	0	1.983	0	285.5	4	97.3	4	-1E+10	1	-1E+10	1	-1E+10	1	-1E+10	1	-1E+10	1	-1E+10	1
4902554	10	C	05/11/2021	09:05	-136.860	49.558	0	3.10	0	7.8590	0	32.3440	0	25.209	0	3.074	0	285.6	4	97.3	4	-1E+10	1	-1E+10	1	-1E+10	1	-1E+10	1	-1E+10	1	-1E+10	1
4902554	10	C	05/11/2021	09:05	-136.860	49.558	0	4.10	0	7.8370	0	32.3650	0	25.229	0	4.065	0	285.8	4	97.4	4	-1E+10	1	-1E+10	1	-1E+10	1	-1E+10	1	-1E+10	1	-1E+10	1
4902554	10	C	05/11/2021	09:05	-136.860	49.558	0	4.90	0	7.8260	0	32.3810	0	25.243	0	4.858	0	285.7	4	97.3	4	-1E+10	1	-1E+10	1	-1E+10	1	-1E+10	1	-1E+10	1	-1E+10	1
4902554	10	C	05/11/2021	09:05	-136.860	49.558	0	6.00	0	7.7860	0	32.3840	0	25.251	0	5.949	0	285.7	4	97.2	4	-1E+10	1	-1E+10	1	-1E+10	1	-1E+10	1	-1E+10	1	-1E+10	1
4902554	10	C	05/11/2021	09:05	-136.860	49.558	0	6.90	0	7.7660	0	32.3840	0	25.254	0	6.841	0	285.7	4	97.2	4	-1E+10	1	-1E+10	1	-1E+10	1	-1E+10	1	-1E+10	1	-1E+10	1
4902554	10	C	05/11/2021	09:05	-136.860	49.558	0	8.00	0	7.7370	0	32.3850	0	25.259	0	7.932	0	285.8	4	97.1	4	-1E+10	1	-1E+10	1	-1E+10	1	-1E+10	1	-1E+10	1	-1E+10	1
4902554	10	C	05/11/2021	09:05	-136.860	49.558	0	8.90	0	7.7130	0	32.3830	0	25.260	0	8.824	0	285.8	4	97.1	4	-1E+10	1	-1E+10	1	-1E+10	1	-1E+10	1	-1E+10	1	-1E+10	1
4902554	10	C	05/11/2021	09:05	-136.860	49.558	0	10.00	0	7.6820	0	32.3830	0	25.265	0	9.914	0	285.7	4	97.0	4	-1E+10	1	-1E+10	1	-1E+10	1	-1E+10	1	-1E+10	1	-1E+10	1
4902554	10	C	05/11/2021	09:05	-136.860	49.558	0	15.40	0	7.6510	0	32.3850	0	25.271	0	15.268	0	285.6	4	96.9	4	-1E+10	1	-1E+10	1	-1E+10	1	-1E+10	1	-1E+10	1	-1E+10	1
4902554	10	C	05/11/2021	09:05	-136.860	49.558	0	25.20	0	7.6050	0	32.3860	0	25.278	0	24.983	0	285.4	4	96.7	4	-1E+10	1	-1E+10	1	-1E+10	1	-1E+10	1	-1E+10	1	-1E+10	1
4902554	10	C	05/11/2021	09:05	-136.860	49.558	0	35.40	0	7.5150	0	32.3910	0	25.295	0	35.095	0	285.3	4	96.5	4	-1E+10	1	-1E+10	1	-1E+10	1	-1E+10	1	-1E+10	1	-1E+10	1
4902554	10	C	05/11/2021	09:05	-136.860	49.558	0	45.60	0	7.3310	0	32.3970	0	25.325	0	45.206	0	284.2	4	95.8	4	-1E+10	1	-1E+10	1	-1E+10	1	-1E+10	1	-1E+10	1	-1E+10	1
4902554	10	C	05/11/2021	09:05	-136.860	49.558	0	55.60	0	6.9620	0	32.4040	0	25.380	0	55.118	0	282.3	4	94.3	4	-1E+10	1	-1E+10	1	-1E+10	1	-1E+10	1	-1E+10	1	-1E+10	1
4902554	10	C	05/11/2021	09:05	-136.860	49.558	0	65.40	0	6.6000	0	32.4230	0	25.443	0	64.832	0	280.7	4	93.0	4	-1E+10	1	-1E+10	1	-1E+10	1	-1E+10	1	-1E+10	1	-1E+10	1
4902554	10	C	05/11/2021	09:05	-136.860	49.558	0	75.30	0	6.3410	0	32.4470	0	25.494	0	74.644	0	278.3	4	91.7	4	-1E+10	1	-1E+10	1	-1E+10	1	-1E+10	1	-1E+10	1	-1E+10	1
4902554	10	C	05/11/2021	09:05	-136.860	49.558	0	85.20	0	6.2250	0	32.4550	0	25.515	0	84.456	0	271.2	4	89.1	4	-1E+10	1	-1E+10	1	-1E+10	1	-1E+10	1	-1E+10	1	-1E+10	1
4902554	10	C	05/11/2021	09:05	-136.860	49.558	0	95.30	0	6.3420	0	32.6440	0	25.650	0	94.465	0	234.2	4	77.3	4	-1E+10	1	-1E+10	1	-1E+10	1	-1E+10	1	-1E+10	1	-1E+10	1
4902554	10	C	05/11/2021	09:05	-136.860	49.558	0	105.30	0	6.5420	0	33.0260	0	25.926	0	104.375	0	200.3	4	66.6	4	-1E+10	1	-1E+10	1	-1E+10	1	-1E+10	1	-1E+10	1	-1E+10	1
4902554	10	C	05/11/2021	09:05	-136.860	49.558	0	115.60	0	6.4600	0	33.3160	0	26.165	0	114.581	0	167.5	4	55.7	4	-1E+10	1	-1E+10	1	-1E+10	1	-1E+10	1	-1E+10	1	-1E+10	1
4902554	10	C	05/11/2021	09:05	-136.860	49.558	0	125.40	0	6.2660	0	33.5610	0	26.384	0	124.292	0	145.6	4	48.3	4	-1E+10	1	-1E+10	1	-1E+10	1	-1E+10	1	-1E+10	1	-1E+10	1
4902554	10	C	05/11/2021	09:05	-136.860	49.558	0	135.50	0	6.2250	0	33.6350	0	26.447	0	134.300	0	136.2	4	45.1	4	-1E+10	1	-1E+10	1	-1E+10	1	-1E+10	1	-1E+10	1	-1E+10	1
4902554	10	C	05/11/2021	09:05	-136.860	49.558	0	145.50	0	6.1080	0	33.6830	0	26.500	0	144.208	0	130.1	4	43.0	4	-1E+10	1	-1E+10	1	-1E+10	1	-1E+10	1	-1E+10	1	-1E+10	1
4902554	10	C	05/11/2021	09:05	-136.860	49.558	0	155.60	0	6.0120	0	33.7150	0	26.538	0	154.214	0	124.6	4	41.1	4	-1E+10	1	-1E+10	1	-1E+10	1	-1E+10	1	-1E+10	1	-1E+10	1
4902554	10	C	05/11/2021	09:05	-136.860	49.558	0	165.50	0	5.9220	0	33.7450	0	26.573	0	164.022	0	118.8	4	39.1	4	-1E+10	1	-1E+10	1	-1E+10	1	-1E+10	1	-1E+10	1	-1E+10	1
4902554	10	C	05/11/2021	09:05	-136.860	49.558	0	175.40	0	5.7640	0	33.7780	0	26.618	0	173.829	0	114.0	4	37.4	4	-1E+10	1	-1E+10	1	-1E+10	1	-1E+10	1	-1E+10	1	-1E+10	1
4902554	10	C	05/11/2021	09:05	-136.860	49.558	0	185.50	0	5.6240	0	33.7890	0	26.644	0	183.835	0	109.9	4	36.0	4	-1E+10	1	-1E+10	1	-1E+10	1	-1E+10	1	-1E+10	1	-1E+10	1
4902554	10	C	05/11/2021	09:05	-136.860	49.558	0	195.60	0	5.5120	0	33.8050	0	26.670	0	193.839	0	105.2	4	34.3	4	-1E+10	1	-1E+10	1	-1E+10	1	-1E+10	1	-1E+10	1	-1E+10	1
4902554	10	C	05/11/2021	09:05	-136.860	49.558	0	212.70	0	5.3170	0	33.8190	0	26.704	0	210.776	0	97.9	4	31.8	4	-1E+10	1	-1E+10	1	-1E+10	1	-1E+10	1	-1E+10	1	-1E+10	1
4902554	10	C	05/11/2021	09:05	-136.860	49.558	0	237.70	0	5.0980	0	33.8400	0	26.747	0	235.536	0	86.9	4	28.1	4	-1E+10	1	-1E+10	1	-1E+10	1	-1E+10	1	-1E+10	1	-1E+10	1
4902554	10	C	05/11/2021	09:05	-136.860	49.558	0	263.60	0	4.8990	0	33.8610	0	26.786	0	261.184	0	76.0	4	24.5	4	-1E+10	1	-1E+10	1	-1E+10	1	-1E+10	1	-1E+10	1	-1E+10	1
4902554	10	C	05/11/2021	09:05	-136.860	49.558	0	287.50	0	4.7420	0	33.8790	0	26.818	0	284.849	0	68.9	4	22.1	4	-1E+10	1	-1E+10	1	-1E+10	1	-1E+10	1	-1E+10	1	-1E+10	1
4902554	10	C	05/11/2021	09:05	-136.860	49.558	0	312.90	0	4.6460	0	33.8990	0	26.845	0	309.995	0	62.2	4	19.9	4	-1E+10	1	-1E+10	1	-1E+10	1	-1E+10	1	-1E+10	1	-1E+10	1
4902554	10	C	05/11/2021	09:05	-136.860	49.558	0	338.10	0	4.5430	0	33.9240	0	26.876	0	334.941	0	55.1	4	17.6	4	-1E+10	1	-1E+10	1	-1E+10	1	-1E+10	1	-1E+10	1	-1E+10	1
4902554	10	C	05/11/2021	09:05	-136.860	49.558	0	362.70	0	4.4300	0	33.9490	0	26.908	0	359.290	0	49.7	4	15.8	4	-1E+10	1	-1E+10	1	-1E+10	1	-1E+10	1	-1E+10	1	-1E+10	1
4902554	10	C	05/11/2021	09:05	-136.860	49.558	0	387.30	0	4.3500	0	33.9730	0	26.936	0	383.636	0	45.2	4	14.4	4	-1E+10	1	-1E+10	1	-1E+10	1	-1E+10	1	-1E+10	1	-1E+10	1
4902554	10	C	05/11/2021	09:05	-136.860	49.558	0	412.30	0	4.3010	0	34.0000	0	26.963	0	408.375	0	41.1	4	13.0	4	-1E+10	1	-1E+10	1	-1E+10	1	-1E+10	1	-1E+10	1	-1E+10	1
4902554	10	C	05/11/2021	09:05	-136.860	49.558	0	438.60	0	4.2690	0	34.0270	0	26.988	0	434.397	0	36.8	4	11.7	4	-1E+10	1	-1E+10	1	-1E+10	1	-1E+10	1	-1E+10	1	-1E+10	1
4902554	10	C	05/11/2021	09:05	-136.860	49.558	0	463.00	0	4.2310	0	34.0510	0	27.011	0	458.536	0	32.6	4	10.3	4	-1E+10	1	-1E+10	1	-1E+10	1	-1E+10	1	-1E+10	1	-1E+10	1
4902554	10	C	05/11/2021	09:05	-136.860	49.558	0	488.10	0	4.1860	0	34.0750	0	27.035	0	483.365	0	29.5	4	9.3	4	-1E+10	1	-1E+10	1	-1E+10	1	-1E+10	1	-1E+10	1	-1E+10	1
4902554	10	C	05/11/2021	09:05	-136.860	49.558	0	512.80	0	4.1280	0	34.0960	0	27.058	0	507.795	0	26.7	4	8.4	4	-1E+10	1	-1E+10	1	-1E+10	1	-1E+10	1	-1E+10	1	-1E+10	1
4902554	10	C	05/11/2021	09:05	-136.860	49.558	0	537.50	0	4.0750	0	34.1160	0	27.079	0	532.222	0	24.3	4	7.7	4	-1E+10	1	-1E+10	1	-1E+10	1	-1E+10	1	-1E+10	1	-1E+10	1
4902554	10	C	05/11/2021	09:05	-136.860	49.558	0	562.70	0	4.0050	0	34.1380	0	27.104	0	557.141	0	22.1	4	7.0	4	-1E+10	1	-1E+10	1	-1E+10	1	-1E+10	1	-1E+10	1	-1E+10	1
4902554	10	C	05/11/2021	09:05	-136.860	49.558	0	587.90	0	3.9480	0	34.1580	0	27.126	0	582.057	0	20.6	4	6.5	4	-1E+10	1	-1E+10	1	-1E+10	1	-1E+10	1	-1E+10	1	-1E+10	1
4902554	10	C	05/11/2021	09:05	-136.860	49.558	0	612.80	0	3.8980	0	34.1750	0	27.145	0	606.673	0	19.2	4	6.0	4	-1E+10	1	-1E+10	1	-1E+10	1	-1E+10	1	-1E+10	1	-1E+10	1
4902554	10	C	05/11/2021	09:05	-136.860	49.558	0	638.00	0	3.8420	0	34.1910	0	27.163	0	631.583	0	18.3	4	5.8	4	-1E+10	1	-1E+10	1	-1E+10	1	-1E+10	1	-1E+10	1	-1E+10	1
4902554	10	C	05/11/2021	09:05	-136.860	49.558	0	663.90	0	3.7830	0	34.2060	0	27.181	0	657.182	0	17.8	4	5.6	4	-1E+10	1	-1E+10	1	-1E+10	1	-1E+10	1	-1E+10	1	-1E+10	1
4902554	10	C	05/11/2021	09:05	-136.860	49.558	0	687.70	0	3.7240	0	34.2190	0	27.198	0	680.702	0	17.2	4	5.4	4	-1E+10	1	-1E+10	1	-1E+10	1	-1E+10	1	-1E+10	1	-1E+10	1
4902554	10	C	05/11/2021	09:05	-136.860	49.558	0	712.60	0	3.6530	0	34.2360	0	27.218	0	705.307	0	16.6	4	5.2	4	-1E+10	1	-1E+10	1	-1E+10	1	-1E+10	1	-1E+10	1	-1E+10	1
4902554	10	C	05/11/2021	09:05	-136.860	49.558	0	737.80	0	3.5800	0	34.2520	0	27.238	0	730.205	0	16.1	4	5.0	4	-1E+10	1	-1E+10	1	-1E+10	1	-1E+10	1	-1E+10	1	-1E+10	1
4902554	10	C	05/11/2021	09:05	-136.860	49.558	0	762.80	0	3.5210	0	34.2630	0	27.253	0	754.902	0	16.0	4	5.0	4	-1E+10	1	-1E+10	1	-1E+10	1	-1E+10	1	-1E+10	1	-1E+10	1
4902554	10	C	05/11/2021	09:05	-136.860	49.558	0	787.80	0	3.4800	0	34.2720	0	27.264	0	779.597	0	15.6	4	4.9	4	-1E+10	1	-1E+10	1	-1E+10	1	-1E+10	1	-1E+10	1	-1E+10	1
4902554	10	C	05/11/2021	09:05	-136.860	49.558	0	813.00	0	3.4220	0	34.2860	0	27.281	0	804.486	0	15.1	4	4.7	4	-1E+10	1	-1E+10	1	-1E+10	1	-1E+10	1	-1E+10	1	-1E+10	1
4902554	10	C	05/11/2021	09:05	-136.860	49.558	0	837.60	0	3.3650	0	34.2980	0	27.296	0	828.779	0	14.8	4	4.6	4	-1E+10	1	-1E+10	1	-1E+10	1	-1E+10	1	-1E+10	1	-1E+10	1
4902554	10	C	05/11/2021	09:05	-136.860	49.558	0	862.80	0	3.3260	0	34.3070	0	27.307	0	853.662	0	14.6	4	4.5	4	-1E+10	1	-1E+10	1	-1E+10	1	-1E+10	1	-1E+10	1	-1E+10	1
4902554	10	C	05/11/2021	09:05	-136.860	49.558	0	887.70	0	3.2770	0	34.3190	0	27.322	0	878.247	0	14.2	4	4.4	4	-1E+10	1	-1E+10	1	-1E+10	1	-1E+10	1	-1E+10	1	-1E+10	1
4902554	10	C	05/11/2021	09:05	-136.860	49.558	0	912.70	0	3.2400	0	34.3310	0	27.335	0	902.926	0	13.7	4	4.2	4	-1E+10	1	-1E+10	1	-1E+10	1	-1E+10	1	-1E+10	1	-1E+10	1
4902554	10	C	05/11/2021	09:05	-136.860	49.558	0	937.80	0	3.2040	0	34.3390	0	27.345	0	927.702	0	13.5	4	4.2	4	-1E+10	1	-1E+10	1	-1E+10	1	-1E+10	1	-1E+10	1	-1E+10	1
4902554	10	C	05/11/2021	09:05	-136.860	49.558	0	963.00	0	3.1680	0	34.3460	0	27.354	0	952.573	0	13.6	4	4.2	4	-1E+10	1	-1E+10	1	-1E+10	1	-1E+10	1	-1E+10	1	-1E+10	1
4902554	10	C	05/11/2021	09:05	-136.860	49.558	0	988.00	0	3.1250	0	34.3510	0	27.362	0	977.244	0	13.8	4	4.3	4	-1E+10	1	-1E+10	1	-1E+10	1	-1E+10	1	-1E+10	1	-1E+10	1
4902554	10	C	05/11/2021	09:05	-136.860	49.558	0	1012.50	0	3.0630	0	34.3620	0	27.376	0	1001.419	0	13.8	4	4.3	4	-1E+10	1	-1E+10	1	-1E+10	1	-1E+10	1	-1E+10	1	-1E+10	1
4902554	10	C	05/11/2021	09:05	-136.860	49.558	0	1037.90	0	3.0060	0	34.3710	0	27.389	0	1026.479	0	13.7	4	4.2	4	-1E+10	1	-1E+10	1	-1E+10	1	-1E+10	1	-1E+10	1	-1E+10	1
4902554	10	C	05/11/2021	09:05	-136.860	49.558	0	1063.50	0	2.9540	0	34.3820	0	27.402	0	1051.733	0	13.6	4	4.2	4	-1E+10	1	-1E+10	1	-1E+10	1	-1E+10	1	-1E+10	1	-1E+10	1
4902554	10	C	05/11/2021	09:05	-136.860	49.558	0	1087.40	0	2.9160	0	34.3890	0	27.412	0	1075.308	0	13.6	4	4.2	4	-1E+10	1	-1E+10	1	-1E+10	1	-1E+10	1	-1E+10	1	-1E+10	1
4902554	10	C	05/11/2021	09:05	-136.860	49.558	0	1112.50	0	2.8640	0	34.3990	0	27.424	0	1100.063	0	13.6	4	4.2	4	-1E+10	1	-1E+10	1	-1E+10	1	-1E+10	1	-1E+10	1	-1E+10	1
4902554	10	C	05/11/2021	09:05	-136.860	49.558	0	1137.50	0	2.8220	0	34.4080	0	27.435	0	1124.716	0	13.6	4	4.2	4	-1E+10	1	-1E+10	1	-1E+10	1	-1E+10	1	-1E+10	1	-1E+10	1
4902554	10	C	05/11/2021	09:05	-136.860	49.558	0	1162.70	0	2.7830	0	34.4160	0	27.445	0	1149.564	0	13.7	4	4.2	4	-1E+10	1	-1E+10	1	-1E+10	1	-1E+10	1	-1E+10	1	-1E+10	1
4902554	10	C	05/11/2021	09:05	-136.860	49.558	0	1187.70	0	2.7460	0	34.4240	0	27.455	0	1174.212	0	13.7	4	4.2	4	-1E+10	1	-1E+10	1	-1E+10	1	-1E+10	1	-1E+10	1	-1E+10	1
4902554	10	C	05/11/2021	09:05	-136.860	49.558	0	1212.80	0	2.7170	0	34.4300	0	27.463	0	1198.955	0	13.8	4	4.2	4	-1E+10	1	-1E+10	1	-1E+10	1	-1E+10	1	-1E+10	1	-1E+10	1
4902554	10	C	05/11/2021	09:05	-136.860	49.558	0	1237.90	0	2.6830	0	34.4370	0	27.471	0	1223.696	0	13.9	4	4.3	4	-1E+10	1	-1E+10	1	-1E+10	1	-1E+10	1	-1E+10	1	-1E+10	1
4902554	10	C	05/11/2021	09:05	-136.860	49.558	0	1262.60	0	2.6440	0	34.4440	0	27.480	0	1248.039	0	14.4	4	4.4	4	-1E+10	1	-1E+10	1	-1E+10	1	-1E+10	1	-1E+10	1	-1E+10	1
4902554	10	C	05/11/2021	09:05	-136.860	49.558	0	1287.40	0	2.6050	0	34.4520	0	27.490	0	1272.478	0	14.9	4	4.6	4	-1E+10	1	-1E+10	1	-1E+10	1	-1E+10	1	-1E+10	1	-1E+10	1
4902554	10	C	05/11/2021	09:05	-136.860	49.558	0	1312.80	0	2.5640	0	34.4590	0	27.499	0	1297.506	0	15.5	4	4.7	4	-1E+10	1	-1E+10	1	-1E+10	1	-1E+10	1	-1E+10	1	-1E+10	1
4902554	10	C	05/11/2021	09:05	-136.860	49.558	0	1337.80	0	2.5400	0	34.4640	0	27.506	0	1322.136	0	15.8	4	4.8	4	-1E+10	1	-1E+10	1	-1E+10	1	-1E+10	1	-1E+10	1	-1E+10	1
4902554	10	C	05/11/2021	09:05	-136.860	49.558	0	1362.70	0	2.5170	0	34.4690	0	27.512	0	1346.665	0	16.3	4	5.0	4	-1E+10	1	-1E+10	1	-1E+10	1	-1E+10	1	-1E+10	1	-1E+10	1
4902554	10	C	05/11/2021	09:05	-136.860	49.558	0	1387.90	0	2.4880	0	34.4750	0	27.519	0	1371.487	0	16.9	4	5.1	4	-1E+10	1	-1E+10	1	-1E+10	1	-1E+10	1	-1E+10	1	-1E+10	1
4902554	10	C	05/11/2021	09:05	-136.860	49.558	0	1412.50	0	2.4690	0	34.4790	0	27.524	0	1395.714	0	17.3	4	5.3	4	-1E+10	1	-1E+10	1	-1E+10	1	-1E+10	1	-1E+10	1	-1E+10	1
4902554	10	C	05/11/2021	09:05	-136.860	49.558	0	1437.60	0	2.4500	0	34.4830	0	27.529	0	1420.432	0	17.8	4	5.4	4	-1E+10	1	-1E+10	1	-1E+10	1	-1E+10	1	-1E+10	1	-1E+10	1
4902554	10	C	05/11/2021	09:05	-136.860	49.558	0	1462.70	0	2.4250	0	34.4880	0	27.535	0	1445.146	0	18.6	4	5.7	4	-1E+10	1	-1E+10	1	-1E+10	1	-1E+10	1	-1E+10	1	-1E+10	1
4902554	10	C	05/11/2021	09:05	-136.860	49.558	0	1487.80	0	2.4060	0	34.4920	0	27.540	0	1469.858	0	19.3	4	5.9	4	-1E+10	1	-1E+10	1	-1E+10	1	-1E+10	1	-1E+10	1	-1E+10	1
4902554	10	C	05/11/2021	09:05	-136.860	49.558	0	1513.20	0	2.3730	0	34.4990	0	27.548	0	1494.861	0	20.5	4	6.2	4	-1E+10	1	-1E+10	1	-1E+10	1	-1E+10	1	-1E+10	1	-1E+10	1
4902554	10	C	05/11/2021	09:05	-136.860	49.558	0	1538.20	0	2.3520	0	34.5030	0	27.554	0	1519.469	0	21.5	4	6.5	4	-1E+10	1	-1E+10	1	-1E+10	1	-1E+10	1	-1E+10	1	-1E+10	1
4902554	10	C	05/11/2021	09:05	-136.860	49.558	0	1562.80	0	2.3200	0	34.5090	0	27.561	0	1543.679	0	22.9	4	7.0	4	-1E+10	1	-1E+10	1	-1E+10	1	-1E+10	1	-1E+10	1	-1E+10	1
4902554	10	C	05/11/2021	09:05	-136.860	49.558	0	1587.70	0	2.2940	0	34.5140	0	27.567	0	1568.182	0	24.1	4	7.3	4	-1E+10	1	-1E+10	1	-1E+10	1	-1E+10	1	-1E+10	1	-1E+10	1
4902554	10	C	05/11/2021	09:05	-136.860	49.558	0	1613.00	0	2.2730	0	34.5180	0	27.572	0	1593.076	0	25.4	4	7.7	4	-1E+10	1	-1E+10	1	-1E+10	1	-1E+10	1	-1E+10	1	-1E+10	1
4902554	10	C	05/11/2021	09:05	-136.860	49.558	0	1638.20	0	2.2360	0	34.5260	0	27.582	0	1617.869	0	27.5	4	8.3	4	-1E+10	1	-1E+10	1	-1E+10	1	-1E+10	1	-1E+10	1	-1E+10	1
4902554	10	C	05/11/2021	09:05	-136.860	49.558	0	1663.20	0	2.2100	0	34.5310	0	27.588	0	1642.462	0	29.1	4	8.8	4	-1E+10	1	-1E+10	1	-1E+10	1	-1E+10	1	-1E+10	1	-1E+10	1
4902554	10	C	05/11/2021	09:05	-136.860	49.558	0	1688.10	0	2.1800	0	34.5370	0	27.595	0	1666.953	0	31.2	4	9.4	4	-1E+10	1	-1E+10	1	-1E+10	1	-1E+10	1	-1E+10	1	-1E+10	1
4902554	10	C	05/11/2021	09:05	-136.860	49.558	0	1713.10	0	2.1500	0	34.5430	0	27.603	0	1691.541	0	33.0	4	10.0	4	-1E+10	1	-1E+10	1	-1E+10	1	-1E+10	1	-1E+10	1	-1E+10	1
4902554	10	C	05/11/2021	09:05	-136.860	49.558	0	1738.60	0	2.1270	0	34.5480	0	27.609	0	1716.617	0	34.7	4	10.5	4	-1E+10	1	-1E+10	1	-1E+10	1	-1E+10	1	-1E+10	1	-1E+10	1
4902554	10	C	05/11/2021	09:05	-136.860	49.558	0	1762.90	0	2.1020	0	34.5520	0	27.614	0	1740.510	0	36.7	4	11.1	4	-1E+10	1	-1E+10	1	-1E+10	1	-1E+10	1	-1E+10	1	-1E+10	1
4902554	10	C	05/11/2021	09:05	-136.860	49.558	0	1787.90	0	2.0790	0	34.5570	0	27.620	0	1765.088	0	38.4	4	11.6	4	-1E+10	1	-1E+10	1	-1E+10	1	-1E+10	1	-1E+10	1	-1E+10	1
4902554	10	C	05/11/2021	09:05	-136.860	49.558	0	1813.00	0	2.0590	0	34.5610	0	27.625	0	1789.763	0	40.0	4	12.1	4	-1E+10	1	-1E+10	1	-1E+10	1	-1E+10	1	-1E+10	1	-1E+10	1
4902554	10	C	05/11/2021	09:05	-136.860	49.558	0	1838.90	0	2.0390	0	34.5650	0	27.630	0	1815.220	0	41.6	4	12.6	4	-1E+10	1	-1E+10	1	-1E+10	1	-1E+10	1	-1E+10	1	-1E+10	1
4902554	10	C	05/11/2021	09:05	-136.860	49.558	0	1863.10	0	2.0230	0	34.5680	0	27.634	0	1839.004	0	43.0	4	13.0	4	-1E+10	1	-1E+10	1	-1E+10	1	-1E+10	1	-1E+10	1	-1E+10	1
4902554	10	C	05/11/2021	09:05	-136.860	49.558	0	1888.10	0	2.0100	0	34.5710	0	27.637	0	1863.571	0	44.0	4	13.3	4	-1E+10	1	-1E+10	1	-1E+10	1	-1E+10	1	-1E+10	1	-1E+10	1
4902554	10	C	05/11/2021	09:05	-136.860	49.558	0	1912.80	0	2.0000	0	34.5730	0	27.640	0	1887.841	0	45.0	4	13.6	4	-1E+10	1	-1E+10	1	-1E+10	1	-1E+10	1	-1E+10	1	-1E+10	1
4902554	10	C	05/11/2021	09:05	-136.860	49.558	0	1937.90	0	1.9870	0	34.5760	0	27.643	0	1912.500	0	46.2	4	13.9	4	-1E+10	1	-1E+10	1	-1E+10	1	-1E+10	1	-1E+10	1	-1E+10	1
4902554	10	C	05/11/2021	09:05	-136.860	49.558	0	1963.30	0	1.9740	0	34.5790	0	27.647	0	1937.452	0	47.5	4	14.3	4	-1E+10	1	-1E+10	1	-1E+10	1	-1E+10	1	-1E+10	1	-1E+10	1
4902554	10	C	05/11/2021	09:05	-136.860	49.558	0	1988.00	0	1.9590	0	34.5820	0	27.651	0	1961.713	0	48.8	4	14.7	4	-1E+10	1	-1E+10	1	-1E+10	1	-1E+10	1	-1E+10	1	-1E+10	1
4902554	10	C	05/11/2021	09:05	-136.860	49.558	0	2009.90	0	1.9450	0	34.5850	0	27.654	0	1983.222	0	50.0	4	15.1	4	-1E+10	1	-1E+10	1	-1E+10	1	-1E+10	1	-1E+10	1	-1E+10	1
4902554	10	C	05/11/2021	09:05	-136.860	49.558	0																										
4902554	11	C	05/21/2021	09:13	-136.770	49.562	0	0.20	0	8.9080	0	32.3390	0	25.050	0	0.198	0	285.5	4	99.6	4	-1E+10	1	-1E+10	1	-1E+10	1	-1E+10	1	-1E+10	1	-1E+10	1
4902554	11	C	05/21/2021	09:13	-136.770	49.562	0	1.10	0	8.9060	0	32.3490	0	25.058	0	1.091	0	285.4	4	99.6	4	-1E+10	1	-1E+10	1	-1E+10	1	-1E+10	1	-1E+10	1	-1E+10	1
4902554	11	C	05/21/2021	09:13	-136.770	49.562	0	1.80	0	8.9080	0	32.3570	0	25.064	0	1.785	0	285.4	4	99.6	4	-1E+10	1	-1E+10	1	-1E+10	1	-1E+10	1	-1E+10	1	-1E+10	1
4902554	11	C	05/21/2021	09:13	-136.770	49.562	0	2.80	0	8.9110	0	32.3560	0	25.062	0	2.776	0	285.3	4	99.5	4	-1E+10	1	-1E+10	1	-1E+10	1	-1E+10	1	-1E+10	1	-1E+10	1
4902554	11	C	05/21/2021	09:13	-136.770	49.562	0	3.90	0	8.9110	0	32.3560	0	25.062	0	3.867	0	285.2	4	99.5	4	-1E+10	1	-1E+10	1	-1E+10	1	-1E+10	1	-1E+10	1	-1E+10	1
4902554	11	C	05/21/2021	09:13	-136.770	49.562	0	5.00	0	8.9110	0	32.3590	0	25.065	0	4.957	0	285.3	4	99.5	4	-1E+10	1	-1E+10	1	-1E+10	1	-1E+10	1	-1E+10	1	-1E+10	1
4902554	11	C	05/21/2021	09:13	-136.770	49.562	0	6.10	0	8.9120	0	32.3590	0	25.065	0	6.048	0	285.3	4	99.5	4	-1E+10	1	-1E+10	1	-1E+10	1	-1E+10	1	-1E+10	1	-1E+10	1
4902554	11	C	05/21/2021	09:13	-136.770	49.562	0	6.90	0	8.9120	0	32.3590	0	25.065	0	6.841	0	285.3	4	99.5	4	-1E+10	1	-1E+10	1	-1E+10	1	-1E+10	1	-1E+10	1	-1E+10	1
4902554	11	C	05/21/2021	09:13	-136.770	49.562	0	8.00	0	8.9090	0	32.3600	0	25.066	0	7.932	0	285.4	4	99.6	4	-1E+10	1	-1E+10	1	-1E+10	1	-1E+10	1	-1E+10	1	-1E+10	1
4902554	11	C	05/21/2021	09:13	-136.770	49.562	0	9.10	0	8.9080	0	32.3600	0	25.066	0	9.022	0	285.5	4	99.6	4	-1E+10	1	-1E+10	1	-1E+10	1	-1E+10	1	-1E+10	1	-1E+10	1
4902554	11	C	05/21/2021	09:13	-136.770	49.562	0	10.10	0	8.9100	0	32.3590	0	25.065	0	10.014	0	285.7	4	99.7	4	-1E+10	1	-1E+10	1	-1E+10	1	-1E+10	1	-1E+10	1	-1E+10	1
4902554	11	C	05/21/2021	09:13	-136.770	49.562	0	15.40	0	8.6610	0	32.3630	0	25.106	0	15.268	0	288.3	4	100.0	4	-1E+10	1	-1E+10	1	-1E+10	1	-1E+10	1	-1E+10	1	-1E+10	1
4902554	11	C	05/21/2021	09:13	-136.770	49.562	0	25.10	0	7.7980	0	32.3790	0	25.245	0	24.884	0	289.0	4	98.4	4	-1E+10	1	-1E+10	1	-1E+10	1	-1E+10	1	-1E+10	1	-1E+10	1
4902554	11	C	05/21/2021	09:13	-136.770	49.562	0	35.50	0	7.3830	0	32.3900	0	25.312	0	35.194	0	288.0	4	97.1	4	-1E+10	1	-1E+10	1	-1E+10	1	-1E+10	1	-1E+10	1	-1E+10	1
4902554	11	C	05/21/2021	09:13	-136.770	49.562	0	45.40	0	7.2110	0	32.3930	0	25.338	0	45.008	0	286.8	4	96.4	4	-1E+10	1	-1E+10	1	-1E+10	1	-1E+10	1	-1E+10	1	-1E+10	1
4902554	11	C	05/21/2021	09:13	-136.770	49.562	0	55.60	0	7.0450	0	32.4040	0	25.369	0	55.118	0	285.6	4	95.6	4	-1E+10	1	-1E+10	1	-1E+10	1	-1E+10	1	-1E+10	1	-1E+10	1
4902554	11	C	05/21/2021	09:13	-136.770	49.562	0	65.50	0	6.8380	0	32.4180	0	25.408	0	64.931	0	284.6	4	94.8	4	-1E+10	1	-1E+10	1	-1E+10	1	-1E+10	1	-1E+10	1	-1E+10	1
4902554	11	C	05/21/2021	09:13	-136.770	49.562	0	75.30	0	6.6120	0	32.4290	0	25.446	0	74.644	0	282.8	4	93.7	4	-1E+10	1	-1E+10	1	-1E+10	1	-1E+10	1	-1E+10	1	-1E+10	1
4902554	11	C	05/21/2021	09:13	-136.770	49.562	0	85.50	0	6.2990	0	32.4510	0	25.503	0	84.753	0	279.9	4	92.1	4	-1E+10	1	-1E+10	1	-1E+10	1	-1E+10	1	-1E+10	1	-1E+10	1
4902554	11	C	05/21/2021	09:13	-136.770	49.562	0	95.50	0	6.1440	0	32.4830	0	25.548	0	94.663	0	269.8	4	88.5	4	-1E+10	1	-1E+10	1	-1E+10	1	-1E+10	1	-1E+10	1	-1E+10	1
4902554	11	C	05/21/2021	09:13	-136.770	49.562	0	105.40	0	6.1700	0	32.6200	0	25.653	0	104.474	0	240.5	4	79.0	4	-1E+10	1	-1E+10	1	-1E+10	1	-1E+10	1	-1E+10	1	-1E+10	1
4902554	11	C	05/21/2021	09:13	-136.770	49.562	0	115.40	0	6.2220	0	32.8800	0	25.851	0	114.383	0	202.5	4	66.7	4	-1E+10	1	-1E+10	1	-1E+10	1	-1E+10	1	-1E+10	1	-1E+10	1
4902554	11	C	05/21/2021	09:13	-136.770	49.562	0	125.70	0	6.2290	0	33.2030	0	26.106	0	124.589	0	160.9	4	53.2	4	-1E+10	1	-1E+10	1	-1E+10	1	-1E+10	1	-1E+10	1	-1E+10	1
4902554	11	C	05/21/2021	09:13	-136.770	49.562	0	135.50	0	6.3220	0	33.5210	0	26.345	0	134.300	0	136.2	4	45.2	4	-1E+10	1	-1E+10	1	-1E+10	1	-1E+10	1	-1E+10	1	-1E+10	1
4902554	11	C	05/21/2021	09:13	-136.770	49.562	0	145.40	0	6.4370	0	33.6620	0	26.442	0	144.108	0	120.1	4	40.0	4	-1E+10	1	-1E+10	1	-1E+10	1	-1E+10	1	-1E+10	1	-1E+10	1
4902554	11	C	05/21/2021	09:13	-136.770	49.562	0	155.30	0	6.4700	0	33.7710	0	26.523	0	153.917	0	110.7	4	36.9	4	-1E+10	1	-1E+10	1	-1E+10	1	-1E+10	1	-1E+10	1	-1E+10	1
4902554	11	C	05/21/2021	09:13	-136.770	49.562	0	165.20	0	6.3720	0	33.8200	0	26.575	0	163.725	0	106.0	4	35.3	4	-1E+10	1	-1E+10	1	-1E+10	1	-1E+10	1	-1E+10	1	-1E+10	1
4902554	11	C	05/21/2021	09:13	-136.770	49.562	0	175.30	0	6.2240	0	33.8410	0	26.611	0	173.730	0	102.9	4	34.1	4	-1E+10	1	-1E+10	1	-1E+10	1	-1E+10	1	-1E+10	1	-1E+10	1
4902554	11	C	05/21/2021	09:13	-136.770	49.562	0	185.30	0	6.0660	0	33.8460	0	26.635	0	183.636	0	100.5	4	33.2	4	-1E+10	1	-1E+10	1	-1E+10	1	-1E+10	1	-1E+10	1	-1E+10	1
4902554	11	C	05/21/2021	09:13	-136.770	49.562	0	195.50	0	5.9700	0	33.8520	0	26.651	0	193.740	0	97.3	4	32.1	4	-1E+10	1	-1E+10	1	-1E+10	1	-1E+10	1	-1E+10	1	-1E+10	1
4902554	11	C	05/21/2021	09:13	-136.770	49.562	0	213.10	0	5.8040	0	33.8680	0	26.685	0	211.173	0	90.0	4	29.6	4	-1E+10	1	-1E+10	1	-1E+10	1	-1E+10	1	-1E+10	1	-1E+10	1
4902554	11	C	05/21/2021	09:13	-136.770	49.562	0	237.90	0	5.5890	0	33.8870	0	26.726	0	235.734	0	81.1	4	26.5	4	-1E+10	1	-1E+10	1	-1E+10	1	-1E+10	1	-1E+10	1	-1E+10	1
4902554	11	C	05/21/2021	09:13	-136.770	49.562	0	263.10	0	5.3840	0	33.9010	0	26.762	0	260.689	0	71.6	4	23.3	4	-1E+10	1	-1E+10	1	-1E+10	1	-1E+10	1	-1E+10	1	-1E+10	1
4902554	11	C	05/21/2021	09:13	-136.770	49.562	0	287.90	0	5.1670	0	33.9210	0	26.803	0	285.245	0	62.7	4	20.3	4	-1E+10	1	-1E+10	1	-1E+10	1	-1E+10	1	-1E+10	1	-1E+10	1
4902554	11	C	05/21/2021	09:13	-136.770	49.562	0	313.60	0	5.0260	0	33.9360	0	26.832	0	310.688	0	57.5	4	18.6	4	-1E+10	1	-1E+10	1	-1E+10	1	-1E+10	1	-1E+10	1	-1E+10	1
4902554	11	C	05/21/2021	09:13	-136.770	49.562	0	337.90	0	4.8680	0	33.9500	0	26.861	0	334.743	0	52.2	4	16.8	4	-1E+10	1	-1E+10	1	-1E+10	1	-1E+10	1	-1E+10	1	-1E+10	1
4902554	11	C	05/21/2021	09:13	-136.770	49.562	0	363.00	0	4.7460	0	33.9670	0	26.888	0	359.587	0	47.6	4	15.3	4	-1E+10	1	-1E+10	1	-1E+10	1	-1E+10	1	-1E+10	1	-1E+10	1
4902554	11	C	05/21/2021	09:13	-136.770	49.562	0	388.00	0	4.5590	0	33.9800	0	26.919	0	384.328	0	44.1	4	14.1	4	-1E+10	1	-1E+10	1	-1E+10	1	-1E+10	1	-1E+10	1	-1E+10	1
4902554	11	C	05/21/2021	09:13	-136.770	49.562	0	413.00	0	4.4540	0	34.0110	0	26.955	0	409.067	0	37.9	4	12.1	4	-1E+10	1	-1E+10	1	-1E+10	1	-1E+10	1	-1E+10	1	-1E+10	1
4902554	11	C	05/21/2021	09:13	-136.770	49.562	0	438.10	0	4.2990	0	34.0390	0	26.994	0	433.902	0	35.0	4	11.1	4	-1E+10	1	-1E+10	1	-1E+10	1	-1E+10	1	-1E+10	1	-1E+10	1
4902554	11	C	05/21/2021	09:13	-136.770	49.562	0	463.10	0	4.2360	0	34.0550	0	27.014	0	458.635	0	32.2	4	10.2	4	-1E+10	1	-1E+10	1	-1E+10	1	-1E+10	1	-1E+10	1	-1E+10	1
4902554	11	C	05/21/2021	09:13	-136.770	49.562	0	487.70	0	4.1810	0	34.0770	0	27.037	0	482.969	0	29.0	4	9.2	4	-1E+10	1	-1E+10	1	-1E+10	1	-1E+10	1	-1E+10	1	-1E+10	1
4902554	11	C	05/21/2021	09:13	-136.770	49.562	0	512.80	0	4.1260	0	34.0970	0	27.059	0	507.795	0	26.5	4	8.4	4	-1E+10	1	-1E+10	1	-1E+10	1	-1E+10	1	-1E+10	1	-1E+10	1
4902554	11	C	05/21/2021	09:13	-136.770	49.562	0	537.70	0	4.0680	0	34.1150	0	27.079	0	532.420	0	24.5	4	7.8	4	-1E+10	1	-1E+10	1	-1E+10	1	-1E+10	1	-1E+10	1	-1E+10	1
4902554	11	C	05/21/2021	09:13	-136.770	49.562	0	563.00	0	4.0120	0	34.1340	0	27.100	0	557.438	0	22.7	4	7.2	4	-1E+10	1	-1E+10	1	-1E+10	1	-1E+10	1	-1E+10	1	-1E+10	1
4902554	11	C	05/21/2021	09:13	-136.770	49.562	0	588.00	0	3.9580	0	34.1520	0	27.120	0	582.156	0	21.0	4	6.6	4	-1E+10	1	-1E+10	1	-1E+10	1	-1E+10	1	-1E+10	1	-1E+10	1
4902554	11	C	05/21/2021	09:13	-136.770	49.562	0	612.90	0	3.8980	0	34.1720	0	27.142	0	606.772	0	19.3	4	6.1	4	-1E+10	1	-1E+10	1	-1E+10	1	-1E+10	1	-1E+10	1	-1E+10	1
4902554	11	C	05/21/2021	09:13	-136.770	49.562	0	638.30	0	3.8240	0	34.1950	0	27.168	0	631.879	0	18.1	4	5.7	4	-1E+10	1	-1E+10	1	-1E+10	1	-1E+10	1	-1E+10	1	-1E+10	1
4902554	11	C	05/21/2021	09:13	-136.770	49.562	0	662.40	0	3.7650	0	34.2090	0	27.186	0	655.699	0	17.5	4	5.5	4	-1E+10	1	-1E+10	1	-1E+10	1	-1E+10	1	-1E+10	1	-1E+10	1
4902554	11	C	05/21/2021	09:13	-136.770	49.562	0	687.50	0	3.6980	0	34.2250	0	27.205	0	680.504	0	16.9	4	5.3	4	-1E+10	1	-1E+10	1	-1E+10	1	-1E+10	1	-1E+10	1	-1E+10	1
4902554	11	C	05/21/2021	09:13	-136.770	49.562	0	713.00	0	3.6150	0	34.2430	0	27.228	0	705.702	0	16.4	4	5.1	4	-1E+10	1	-1E+10	1	-1E+10	1	-1E+10	1	-1E+10	1	-1E+10	1
4902554	11	C	05/21/2021	09:13	-136.770	49.562	0	737.80	0	3.5360	0	34.2600	0	27.249	0	730.204	0	15.8	4	4.9	4	-1E+10	1	-1E+10	1	-1E+10	1	-1E+10	1	-1E+10	1	-1E+10	1
4902554	11	C	05/21/2021	09:13	-136.770	49.562	0	762.80	0	3.4920	0	34.2720	0	27.263	0	754.902	0	15.3	4	4.8	4	-1E+10	1	-1E+10	1	-1E+10	1	-1E+10	1	-1E+10	1	-1E+10	1
4902554	11	C	05/21/2021	09:13	-136.770	49.562	0	787.80	0	3.4480	0	34.2840	0	27.277	0	779.596	0	14.9	4	4.6	4	-1E+10	1	-1E+10	1	-1E+10	1	-1E+10	1	-1E+10	1	-1E+10	1
4902554	11	C	05/21/2021	09:13	-136.770	49.562	0	813.00	0	3.3950	0	34.2940	0	27.290	0	804.485	0	14.8	4	4.6	4	-1E+10	1	-1E+10	1	-1E+10	1	-1E+10	1	-1E+10	1	-1E+10	1
4902554	11	C	05/21/2021	09:13	-136.770	49.562	0	837.80	0	3.3460	0	34.3030	0	27.302	0	828.976	0	14.7	4	4.6	4	-1E+10	1	-1E+10	1	-1E+10	1	-1E+10	1	-1E+10	1	-1E+10	1
4902554	11	C	05/21/2021	09:13	-136.770	49.562	0	863.40	0	3.3080	0	34.3110	0	27.312	0	854.255	0	14.4	4	4.5	4	-1E+10	1	-1E+10	1	-1E+10	1	-1E+10	1	-1E+10	1	-1E+10	1
4902554	11	C	05/21/2021	09:13	-136.770	49.562	0	887.70	0	3.2710	0	34.3210	0	27.324	0	878.246	0	14.1	4	4.4	4	-1E+10	1	-1E+10	1	-1E+10	1	-1E+10	1	-1E+10	1	-1E+10	1
4902554	11	C	05/21/2021	09:13	-136.770	49.562	0	912.70	0	3.2380	0	34.3300	0	27.334	0	902.926	0	13.8	4	4.3	4	-1E+10	1	-1E+10	1	-1E+10	1	-1E+10	1	-1E+10	1	-1E+10	1
4902554	11	C	05/21/2021	09:13	-136.770	49.562	0	937.70	0	3.1740	0	34.3420	0	27.350	0	927.603	0	13.7	4	4.2	4	-1E+10	1	-1E+10	1	-1E+10	1	-1E+10	1	-1E+10	1	-1E+10	1
4902554	11	C	05/21/2021	09:13	-136.770	49.562	0	963.00	0	3.1030	0	34.3550	0	27.367	0	952.573	0	13.8	4	4.3	4	-1E+10	1	-1E+10	1	-1E+10	1	-1E+10	1	-1E+10	1	-1E+10	1
4902554	11	C	05/21/2021	09:13	-136.770	49.562	0	987.70	0	3.0490	0	34.3630	0	27.378	0	976.948	0	13.8	4	4.3	4	-1E+10	1	-1E+10	1	-1E+10	1	-1E+10	1	-1E+10	1	-1E+10	1
4902554	11	C	05/21/2021	09:13	-136.770	49.562	0	1012.80	0	3.0140	0	34.3700	0	27.387	0	1001.715	0	13.7	4	4.2	4	-1E+10	1	-1E+10	1	-1E+10	1	-1E+10	1	-1E+10	1	-1E+10	1
4902554	11	C	05/21/2021	09:13	-136.770	49.562	0	1037.90	0	2.9670	0	34.3790	0	27.399	0	1026.479	0	13.6	4	4.2	4	-1E+10	1	-1E+10	1	-1E+10	1	-1E+10	1	-1E+10	1	-1E+10	1
4902554	11	C	05/21/2021	09:13	-136.770	49.562	0	1062.60	0	2.9330	0	34.3860	0	27.408	0	1050.845	0	13.4	4	4.1	4	-1E+10	1	-1E+10	1	-1E+10	1	-1E+10	1	-1E+10	1	-1E+10	1
4902554	11	C	05/21/2021	09:13	-136.770	49.562	0	1087.70	0	2.8900	0	34.3950	0	27.419	0	1075.603	0	13.4	4	4.1	4	-1E+10	1	-1E+10	1	-1E+10	1	-1E+10	1	-1E+10	1	-1E+10	1
4902554	11	C	05/21/2021	09:13	-136.770	49.562	0	1112.70	0	2.8510	0	34.4030	0	27.429	0	1100.259	0	13.4	4	4.1	4	-1E+10	1	-1E+10	1	-1E+10	1	-1E+10	1	-1E+10	1	-1E+10	1
4902554	11	C	05/21/2021	09:13	-136.770	49.562	0	1137.70	0	2.8140	0	34.4100	0	27.438	0	1124.913	0	13.5	4	4.1	4	-1E+10	1	-1E+10	1	-1E+10	1	-1E+10	1	-1E+10	1	-1E+10	1
4902554	11	C	05/21/2021	09:13	-136.770	49.562	0	1162.90	0	2.7820	0	34.4170	0	27.446	0	1149.761	0	13.5	4	4.2	4	-1E+10	1	-1E+10	1	-1E+10	1	-1E+10	1	-1E+10	1	-1E+10	1
4902554	11	C	05/21/2021	09:13	-136.770	49.562	0	1187.80	0	2.7540	0	34.4230	0	27.454	0	1174.310	0	13.6	4	4.2	4	-1E+10	1	-1E+10	1	-1E+10	1	-1E+10	1	-1E+10	1	-1E+10	1
4902554	11	C	05/21/2021	09:13	-136.770	49.562	0	1212.70	0	2.7220	0	34.4290	0	27.461	0	1198.856	0	13.7	4	4.2	4	-1E+10	1	-1E+10	1	-1E+10	1	-1E+10	1	-1E+10	1	-1E+10	1
4902554	11	C	05/21/2021	09:13	-136.770	49.562	0	1238.70	0	2.6880	0	34.4360	0	27.470	0	1224.484	0	13.8	4	4.2	4	-1E+10	1	-1E+10	1	-1E+10	1	-1E+10	1	-1E+10	1	-1E+10	1
4902554	11	C	05/21/2021	09:13	-136.770	49.562	0	1262.90	0	2.6690	0	34.4400	0	27.475	0	1248.334	0	14.0	4	4.3	4	-1E+10	1	-1E+10	1	-1E+10	1	-1E+10	1	-1E+10	1	-1E+10	1
4902554	11	C	05/21/2021	09:13	-136.770	49.562	0	1287.90	0	2.6410	0	34.4450	0	27.482	0	1272.971	0	14.4	4	4.4	4	-1E+10	1	-1E+10	1	-1E+10	1	-1E+10	1	-1E+10	1	-1E+10	1
4902554	11	C	05/21/2021	09:13	-136.770	49.562	0	1312.80	0	2.6110	0	34.4510	0	27.489	0	1297.505	0	14.8	4	4.5	4	-1E+10	1	-1E+10	1	-1E+10	1	-1E+10	1	-1E+10	1	-1E+10	1
4902554	11	C	05/21/2021	09:13	-136.770	49.562	0	1337.70	0	2.5740	0	34.4580	0	27.498	0	1322.037	0	15.4	4	4.7	4	-1E+10	1	-1E+10	1	-1E+10	1	-1E+10	1	-1E+10	1	-1E+10	1
4902554	11	C	05/21/2021	09:13	-136.770	49.562	0	1362.80	0	2.5500	0	34.4630	0	27.504	0	1346.763	0	15.7	4	4.8	4	-1E+10	1	-1E+10	1	-1E+10	1	-1E+10	1	-1E+10	1	-1E+10	1
4902554	11	C	05/21/2021	09:13	-136.770	49.562	0	1387.90	0	2.5250	0	34.4680	0	27.510	0	1371.486	0	16.2	4	4.9	4	-1E+10	1	-1E+10	1	-1E+10	1	-1E+10	1	-1E+10	1	-1E+10	1
4902554	11	C	05/21/2021	09:13	-136.770	49.562	0	1412.80	0	2.4910	0	34.4750	0	27.519	0	1396.009	0	16.9	4	5.2	4	-1E+10	1	-1E+10	1	-1E+10	1	-1E+10	1	-1E+10	1	-1E+10	1
4902554	11	C	05/21/2021	09:13	-136.770	49.562	0	1437.80	0	2.4630	0	34.4800	0	27.525	0	1420.628	0	17.7	4	5.4	4	-1E+10	1	-1E+10	1	-1E+10	1	-1E+10	1	-1E+10	1	-1E+10	1
4902554	11	C	05/21/2021	09:13	-136.770	49.562	0	1463.00	0	2.4220	0	34.4880	0	27.535	0	1445.441	0	18.8	4	5.7	4	-1E+10	1	-1E+10	1	-1E+10	1	-1E+10	1	-1E+10	1	-1E+10	1
4902554	11	C	05/21/2021	09:13	-136.770	49.562	0	1487.90	0	2.3950	0	34.4940	0	27.542	0	1469.956	0	19.6	4	6.0	4	-1E+10	1	-1E+10	1	-1E+10	1	-1E+10	1	-1E+10	1	-1E+10	1
4902554	11	C	05/21/2021	09:13	-136.770	49.562	0	1513.00	0	2.3690	0	34.4990	0	27.549	0	1494.664	0	20.7	4	6.3	4	-1E+10	1	-1E+10	1	-1E+10	1	-1E+10	1	-1E+10	1	-1E+10	1
4902554	11	C	05/21/2021	09:13	-136.770	49.562	0	1538.10	0	2.3400	0	34.5040	0	27.555	0	1519.370	0	21.8	4	6.6	4	-1E+10	1	-1E+10	1	-1E+10	1	-1E+10	1	-1E+10	1	-1E+10	1
4902554	11	C	05/21/2021	09:13	-136.770	49.562	0	1563.10	0	2.3160	0	34.5090	0	27.561	0	1543.974	0	23.0	4	7.0	4	-1E+10	1	-1E+10	1	-1E+10	1	-1E+10	1	-1E+10	1	-1E+10	1
4902554	11	C	05/21/2021	09:13	-136.770	49.562	0	1587.70	0	2.2900	0	34.5140	0	27.568	0	1568.182	0	24.4	4	7.4	4	-1E+10	1	-1E+10	1	-1E+10	1	-1E+10	1	-1E+10	1	-1E+10	1
4902554	11	C	05/21/2021	09:13	-136.770	49.562	0	1612.40	0	2.2630	0	34.5200	0	27.575	0	1592.486	0	25.9	4	7.9	4	-1E+10	1	-1E+10	1	-1E+10	1	-1E+10	1	-1E+10	1	-1E+10	1
4902554	11	C	05/21/2021	09:13	-136.770	49.562	0	1638.00	0	2.2330	0	34.5260	0	27.582	0	1617.672	0	27.6	4	8.4	4	-1E+10	1	-1E+10	1	-1E+10	1	-1E+10	1	-1E+10	1	-1E+10	1
4902554	11	C	05/21/2021	09:13	-136.770	49.562	0	1662.90	0	2.2130	0	34.5300	0	27.587	0	1642.166	0	28.9	4	8.7	4	-1E+10	1	-1E+10	1	-1E+10	1	-1E+10	1	-1E+10	1	-1E+10	1
4902554	11	C	05/21/2021	09:13	-136.770	49.562	0	1688.00	0	2.1890	0	34.5350	0	27.593	0	1666.855	0	30.3	4	9.2	4	-1E+10	1	-1E+10	1	-1E+10	1	-1E+10	1	-1E+10	1	-1E+10	1
4902554	11	C	05/21/2021	09:13	-136.770	49.562	0	1712.70	0	2.1680	0	34.5390	0	27.598	0	1691.147	0	31.9	4	9.7	4	-1E+10	1	-1E+10	1	-1E+10	1	-1E+10	1	-1E+10	1	-1E+10	1
4902554	11	C	05/21/2021	09:13	-136.770	49.562	0	1737.80	0	2.1430	0	34.5450	0	27.605	0	1715.829	0	33.6	4	10.2	4	-1E+10	1	-1E+10	1	-1E+10	1	-1E+10	1	-1E+10	1	-1E+10	1
4902554	11	C	05/21/2021	09:13	-136.770	49.562	0	1762.80	0	2.1230	0	34.5490	0	27.610	0	1740.411	0	35.0	4	10.6	4	-1E+10	1	-1E+10	1	-1E+10	1	-1E+10	1	-1E+10	1	-1E+10	1
4902554	11	C	05/21/2021	09:13	-136.770	49.562	0	1787.70	0	2.1070	0	34.5520	0	27.614	0	1764.891	0	36.4	4	11.0	4	-1E+10	1	-1E+10	1	-1E+10	1	-1E+10	1	-1E+10	1	-1E+10	1
4902554	11	C	05/21/2021	09:13	-136.770	49.562	0	1813.10	0	2.0860	0	34.5560	0	27.619	0	1789.860	0	38.2	4	11.5	4	-1E+10	1	-1E+10	1	-1E+10	1	-1E+10	1	-1E+10	1	-1E+10	1
4902554	11	C	05/21/2021	09:13	-136.770	49.562	0	1838.10	0	2.0580	0	34.5610	0	27.625	0	1814.433	0	40.4	4	12.2	4	-1E+10	1	-1E+10	1	-1E+10	1	-1E+10	1	-1E+10	1	-1E+10	1
4902554	11	C	05/21/2021	09:13	-136.770	49.562	0	1863.10	0	2.0350	0	34.5660	0	27.631	0	1839.003	0	42.2	4	12.7	4	-1E+10	1	-1E+10	1	-1E+10	1	-1E+10	1	-1E+10	1	-1E+10	1
4902554	11	C	05/21/2021	09:13	-136.770	49.562	0	1887.80	0	2.0140	0	34.5700	0	27.636	0	1863.276	0	43.8	4	13.2	4	-1E+10	1	-1E+10	1	-1E+10	1	-1E+10	1	-1E+10	1	-1E+10	1
4902554	11	C	05/21/2021	09:13	-136.770	49.562	0	1913.40	0	2.0010	0	34.5730	0	27.640	0	1888.429	0	45.0	4	13.6	4	-1E+10	1	-1E+10	1	-1E+10	1	-1E+10	1	-1E+10	1	-1E+10	1
4902554	11	C	05/21/2021	09:13	-136.770	49.562	0	1938.00	0	1.9850	0	34.5760	0	27.643	0	1912.598	0	46.3	4	14.0	4	-1E+10	1	-1E+10	1	-1E+10	1	-1E+10	1	-1E+10	1	-1E+10	1
4902554	11	C	05/21/2021	09:13	-136.770	49.562	0	1962.70	0	1.9740	0	34.5790	0	27.647	0	1936.862	0	47.3	4	14.2	4	-1E+10	1	-1E+10	1	-1E+10	1	-1E+10	1	-1E+10	1	-1E+10	1
4902554	11	C	05/21/2021	09:13	-136.770	49.562	0	1987.50	0	1.9630	0	34.5810	0	27.649	0	1961.221	0	48.3	4	14.5	4	-1E+10	1	-1E+10	1	-1E+10	1	-1E+10	1	-1E+10	1	-1E+10	1
4902554	11	C	05/21/2021	09:13	-136.770	49.562	0	2008.40	0	1.9540	0	34.5830	0	27.652	0	1981.748	0	48.8	4	14.7	4	-1E+10	1	-1E+10	1	-1E+10	1	-1E+10	1	-1E+10	1	-1E+10	1
4902554	11	C	05/21/2021	09:13	-136.770	49.562	0																										
4902554	12	C	05/31/2021	08:49	-136.695	49.581	0	0.20	0	9.0740	0	32.3360	0	25.022	0	0.198	0	281.8	4	98.7	4	-1E+10	1	-1E+10	1	-1E+10	1	-1E+10	1	-1E+10	1	-1E+10	1
4902554	12	C	05/31/2021	08:49	-136.695	49.581	0	1.00	0	9.0740	0	32.3340	0	25.020	0	0.991	0	281.8	4	98.7	4	-1E+10	1	-1E+10	1	-1E+10	1	-1E+10	1	-1E+10	1	-1E+10	1
4902554	12	C	05/31/2021	08:49	-136.695	49.581	0	2.10	0	9.0690	0	32.3330	0	25.020	0	2.082	0	281.9	4	98.7	4	-1E+10	1	-1E+10	1	-1E+10	1	-1E+10	1	-1E+10	1	-1E+10	1
4902554	12	C	05/31/2021	08:49	-136.695	49.581	0	3.10	0	9.0670	0	32.3360	0	25.023	0	3.074	0	281.9	4	98.7	4	-1E+10	1	-1E+10	1	-1E+10	1	-1E+10	1	-1E+10	1	-1E+10	1
4902554	12	C	05/31/2021	08:49	-136.695	49.581	0	4.40	0	9.0660	0	32.3440	0	25.029	0	4.362	0	281.8	4	98.7	4	-1E+10	1	-1E+10	1	-1E+10	1	-1E+10	1	-1E+10	1	-1E+10	1
4902554	12	C	05/31/2021	08:49	-136.695	49.581	0	5.10	0	9.0650	0	32.3440	0	25.029	0	5.056	0	281.9	4	98.7	4	-1E+10	1	-1E+10	1	-1E+10	1	-1E+10	1	-1E+10	1	-1E+10	1
4902554	12	C	05/31/2021	08:49	-136.695	49.581	0	6.30	0	9.0600	0	32.3450	0	25.031	0	6.246	0	281.9	4	98.7	4	-1E+10	1	-1E+10	1	-1E+10	1	-1E+10	1	-1E+10	1	-1E+10	1
4902554	12	C	05/31/2021	08:49	-136.695	49.581	0	7.00	0	9.0570	0	32.3430	0	25.030	0	6.940	0	282.0	4	98.7	4	-1E+10	1	-1E+10	1	-1E+10	1	-1E+10	1	-1E+10	1	-1E+10	1
4902554	12	C	05/31/2021	08:49	-136.695	49.581	0	7.90	0	9.0500	0	32.3470	0	25.034	0	7.832	0	281.9	4	98.6	4	-1E+10	1	-1E+10	1	-1E+10	1	-1E+10	1	-1E+10	1	-1E+10	1
4902554	12	C	05/31/2021	08:49	-136.695	49.581	0	8.90	0	9.0490	0	32.3440	0	25.032	0	8.824	0	281.9	4	98.6	4	-1E+10	1	-1E+10	1	-1E+10	1	-1E+10	1	-1E+10	1	-1E+10	1
4902554	12	C	05/31/2021	08:49	-136.695	49.581	0	10.00	0	9.0580	0	32.3450	0	25.031	0	9.914	0	281.7	4	98.6	4	-1E+10	1	-1E+10	1	-1E+10	1	-1E+10	1	-1E+10	1	-1E+10	1
4902554	12	C	05/31/2021	08:49	-136.695	49.581	0	15.30	0	9.0600	0	32.3430	0	25.029	0	15.169	0	282.1	4	98.7	4	-1E+10	1	-1E+10	1	-1E+10	1	-1E+10	1	-1E+10	1	-1E+10	1
4902554	12	C	05/31/2021	08:49	-136.695	49.581	0	25.30	0	8.9010	0	32.3490	0	25.059	0	25.083	0	284.1	4	99.1	4	-1E+10	1	-1E+10	1	-1E+10	1	-1E+10	1	-1E+10	1	-1E+10	1
4902554	12	C	05/31/2021	08:49	-136.695	49.581	0	35.40	0	8.5950	0	32.3610	0	25.115	0	35.095	0	285.7	4	99.0	4	-1E+10	1	-1E+10	1	-1E+10	1	-1E+10	1	-1E+10	1	-1E+10	1
4902554	12	C	05/31/2021	08:49	-136.695	49.581	0	45.50	0	8.0500	0	32.3740	0	25.206	0	45.107	0	287.7	4	98.5	4	-1E+10	1	-1E+10	1	-1E+10	1	-1E+10	1	-1E+10	1	-1E+10	1
4902554	12	C	05/31/2021	08:49	-136.695	49.581	0	55.40	0	7.2210	0	32.3980	0	25.341	0	54.920	0	287.1	4	96.5	4	-1E+10	1	-1E+10	1	-1E+10	1	-1E+10	1	-1E+10	1	-1E+10	1
4902554	12	C	05/31/2021	08:49	-136.695	49.581	0	65.50	0	7.0330	0	32.4080	0	25.374	0	64.931	0	285.3	4	95.5	4	-1E+10	1	-1E+10	1	-1E+10	1	-1E+10	1	-1E+10	1	-1E+10	1
4902554	12	C	05/31/2021	08:49	-136.695	49.581	0	75.40	0	6.8430	0	32.4180	0	25.407	0	74.743	0	283.6	4	94.5	4	-1E+10	1	-1E+10	1	-1E+10	1	-1E+10	1	-1E+10	1	-1E+10	1
4902554	12	C	05/31/2021	08:49	-136.695	49.581	0	85.20	0	6.5860	0	32.4330	0	25.452	0	84.455	0	281.7	4	93.3	4	-1E+10	1	-1E+10	1	-1E+10	1	-1E+10	1	-1E+10	1	-1E+10	1
4902554	12	C	05/31/2021	08:49	-136.695	49.581	0	95.50	0	6.2750	0	32.4560	0	25.510	0	94.663	0	275.6	4	90.6	4	-1E+10	1	-1E+10	1	-1E+10	1	-1E+10	1	-1E+10	1	-1E+10	1
4902554	12	C	05/31/2021	08:49	-136.695	49.581	0	105.10	0	6.1300	0	32.5250	0	25.583	0	104.176	0	250.5	4	82.1	4	-1E+10	1	-1E+10	1	-1E+10	1	-1E+10	1	-1E+10	1	-1E+10	1
4902554	12	C	05/31/2021	08:49	-136.695	49.581	0	115.10	0	6.3150	0	32.8790	0	25.839	0	114.086	0	203.2	4	67.1	4	-1E+10	1	-1E+10	1	-1E+10	1	-1E+10	1	-1E+10	1	-1E+10	1
4902554	12	C	05/31/2021	08:49	-136.695	49.581	0	125.20	0	6.3030	0	33.3880	0	26.242	0	124.094	0	159.1	4	52.7	4	-1E+10	1	-1E+10	1	-1E+10	1	-1E+10	1	-1E+10	1	-1E+10	1
4902554	12	C	05/31/2021	08:49	-136.695	49.581	0	135.00	0	6.2750	0	33.5800	0	26.398	0	133.804	0	147.0	4	48.8	4	-1E+10	1	-1E+10	1	-1E+10	1	-1E+10	1	-1E+10	1	-1E+10	1
4902554	12	C	05/31/2021	08:49	-136.695	49.581	0	145.10	0	6.1310	0	33.6620	0	26.481	0	143.811	0	140.3	4	46.4	4	-1E+10	1	-1E+10	1	-1E+10	1	-1E+10	1	-1E+10	1	-1E+10	1
4902554	12	C	05/31/2021	08:49	-136.695	49.581	0	155.30	0	6.0090	0	33.7110	0	26.535	0	153.917	0	133.6	4	44.1	4	-1E+10	1	-1E+10	1	-1E+10	1	-1E+10	1	-1E+10	1	-1E+10	1
4902554	12	C	05/31/2021	08:49	-136.695	49.581	0	165.20	0	5.8870	0	33.7460	0	26.578	0	163.725	0	125.0	4	41.1	4	-1E+10	1	-1E+10	1	-1E+10	1	-1E+10	1	-1E+10	1	-1E+10	1
4902554	12	C	05/31/2021	08:49	-136.695	49.581	0	175.40	0	5.8210	0	33.7730	0	26.607	0	173.829	0	120.1	4	39.5	4	-1E+10	1	-1E+10	1	-1E+10	1	-1E+10	1	-1E+10	1	-1E+10	1
4902554	12	C	05/31/2021	08:49	-136.695	49.581	0	185.50	0	5.6820	0	33.7880	0	26.636	0	183.834	0	116.9	4	38.3	4	-1E+10	1	-1E+10	1	-1E+10	1	-1E+10	1	-1E+10	1	-1E+10	1
4902554	12	C	05/31/2021	08:49	-136.695	49.581	0	195.60	0	5.5620	0	33.7950	0	26.656	0	193.839	0	112.8	4	36.9	4	-1E+10	1	-1E+10	1	-1E+10	1	-1E+10	1	-1E+10	1	-1E+10	1
4902554	12	C	05/31/2021	08:49	-136.695	49.581	0	213.20	0	5.4090	0	33.8110	0	26.687	0	211.271	0	103.9	4	33.8	4	-1E+10	1	-1E+10	1	-1E+10	1	-1E+10	1	-1E+10	1	-1E+10	1
4902554	12	C	05/31/2021	08:49	-136.695	49.581	0	237.70	0	5.1270	0	33.8350	0	26.739	0	235.536	0	88.9	4	28.7	4	-1E+10	1	-1E+10	1	-1E+10	1	-1E+10	1	-1E+10	1	-1E+10	1
4902554	12	C	05/31/2021	08:49	-136.695	49.581	0	262.60	0	5.0160	0	33.8700	0	26.780	0	260.193	0	73.4	4	23.7	4	-1E+10	1	-1E+10	1	-1E+10	1	-1E+10	1	-1E+10	1	-1E+10	1
4902554	12	C	05/31/2021	08:49	-136.695	49.581	0	287.90	0	5.0250	0	33.9190	0	26.818	0	285.244	0	61.4	4	19.8	4	-1E+10	1	-1E+10	1	-1E+10	1	-1E+10	1	-1E+10	1	-1E+10	1
4902554	12	C	05/31/2021	08:49	-136.695	49.581	0	313.50	0	4.8720	0	33.9320	0	26.846	0	310.589	0	57.8	4	18.6	4	-1E+10	1	-1E+10	1	-1E+10	1	-1E+10	1	-1E+10	1	-1E+10	1
4902554	12	C	05/31/2021	08:49	-136.695	49.581	0	337.70	0	4.5860	0	33.9320	0	26.878	0	334.544	0	53.5	4	17.1	4	-1E+10	1	-1E+10	1	-1E+10	1	-1E+10	1	-1E+10	1	-1E+10	1
4902554	12	C	05/31/2021	08:49	-136.695	49.581	0	362.70	0	4.5330	0	33.9610	0	26.907	0	359.289	0	47.9	4	15.3	4	-1E+10	1	-1E+10	1	-1E+10	1	-1E+10	1	-1E+10	1	-1E+10	1
4902554	12	C	05/31/2021	08:49	-136.695	49.581	0	387.80	0	4.4760	0	33.9800	0	26.928	0	384.130	0	44.1	4	14.0	4	-1E+10	1	-1E+10	1	-1E+10	1	-1E+10	1	-1E+10	1	-1E+10	1
4902554	12	C	05/31/2021	08:49	-136.695	49.581	0	413.20	0	4.4040	0	34.0040	0	26.955	0	409.264	0	39.9	4	12.7	4	-1E+10	1	-1E+10	1	-1E+10	1	-1E+10	1	-1E+10	1	-1E+10	1
4902554	12	C	05/31/2021	08:49	-136.695	49.581	0	438.70	0	4.3780	0	34.0280	0	26.977	0	434.495	0	35.5	4	11.3	4	-1E+10	1	-1E+10	1	-1E+10	1	-1E+10	1	-1E+10	1	-1E+10	1
4902554	12	C	05/31/2021	08:49	-136.695	49.581	0	462.70	0	4.3060	0	34.0460	0	26.999	0	458.238	0	33.0	4	10.5	4	-1E+10	1	-1E+10	1	-1E+10	1	-1E+10	1	-1E+10	1	-1E+10	1
4902554	12	C	05/31/2021	08:49	-136.695	49.581	0	487.70	0	4.2310	0	34.0670	0	27.024	0	482.968	0	30.1	4	9.5	4	-1E+10	1	-1E+10	1	-1E+10	1	-1E+10	1	-1E+10	1	-1E+10	1
4902554	12	C	05/31/2021	08:49	-136.695	49.581	0	513.00	0	4.1710	0	34.0850	0	27.045	0	507.992	0	27.5	4	8.7	4	-1E+10	1	-1E+10	1	-1E+10	1	-1E+10	1	-1E+10	1	-1E+10	1
4902554	12	C	05/31/2021	08:49	-136.695	49.581	0	538.00	0	4.1070	0	34.1070	0	27.069	0	532.716	0	25.2	4	8.0	4	-1E+10	1	-1E+10	1	-1E+10	1	-1E+10	1	-1E+10	1	-1E+10	1
4902554	12	C	05/31/2021	08:49	-136.695	49.581	0	562.50	0	4.0160	0	34.1270	0	27.094	0	556.942	0	23.3	4	7.3	4	-1E+10	1	-1E+10	1	-1E+10	1	-1E+10	1	-1E+10	1	-1E+10	1
4902554	12	C	05/31/2021	08:49	-136.695	49.581	0	587.50	0	3.9450	0	34.1510	0	27.121	0	581.660	0	21.1	4	6.7	4	-1E+10	1	-1E+10	1	-1E+10	1	-1E+10	1	-1E+10	1	-1E+10	1
4902554	12	C	05/31/2021	08:49	-136.695	49.581	0	612.60	0	3.8860	0	34.1720	0	27.144	0	606.474	0	19.5	4	6.1	4	-1E+10	1	-1E+10	1	-1E+10	1	-1E+10	1	-1E+10	1	-1E+10	1
4902554	12	C	05/31/2021	08:49	-136.695	49.581	0	637.70	0	3.8370	0	34.1870	0	27.161	0	631.285	0	18.5	4	5.8	4	-1E+10	1	-1E+10	1	-1E+10	1	-1E+10	1	-1E+10	1	-1E+10	1
4902554	12	C	05/31/2021	08:49	-136.695	49.581	0	663.80	0	3.7810	0	34.2040	0	27.180	0	657.082	0	17.6	4	5.5	4	-1E+10	1	-1E+10	1	-1E+10	1	-1E+10	1	-1E+10	1	-1E+10	1
4902554	12	C	05/31/2021	08:49	-136.695	49.581	0	688.00	0	3.7280	0	34.2200	0	27.198	0	680.997	0	16.9	4	5.3	4	-1E+10	1	-1E+10	1	-1E+10	1	-1E+10	1	-1E+10	1	-1E+10	1
4902554	12	C	05/31/2021	08:49	-136.695	49.581	0	712.60	0	3.6760	0	34.2310	0	27.212	0	705.305	0	16.6	4	5.2	4	-1E+10	1	-1E+10	1	-1E+10	1	-1E+10	1	-1E+10	1	-1E+10	1
4902554	12	C	05/31/2021	08:49	-136.695	49.581	0	737.50	0	3.6230	0	34.2430	0	27.227	0	729.907	0	16.2	4	5.1	4	-1E+10	1	-1E+10	1	-1E+10	1	-1E+10	1	-1E+10	1	-1E+10	1
4902554	12	C	05/31/2021	08:49	-136.695	49.581	0	762.50	0	3.5680	0	34.2550	0	27.242	0	754.604	0	15.9	4	5.0	4	-1E+10	1	-1E+10	1	-1E+10	1	-1E+10	1	-1E+10	1	-1E+10	1
4902554	12	C	05/31/2021	08:49	-136.695	49.581	0	787.70	0	3.5200	0	34.2650	0	27.255	0	779.496	0	15.6	4	4.9	4	-1E+10	1	-1E+10	1	-1E+10	1	-1E+10	1	-1E+10	1	-1E+10	1
4902554	12	C	05/31/2021	08:49	-136.695	49.581	0	812.90	0	3.4560	0	34.2790	0	27.272	0	804.385	0	15.2	4	4.8	4	-1E+10	1	-1E+10	1	-1E+10	1	-1E+10	1	-1E+10	1	-1E+10	1
4902554	12	C	05/31/2021	08:49	-136.695	49.581	0	838.00	0	3.4110	0	34.2900	0	27.286	0	829.173	0	14.8	4	4.6	4	-1E+10	1	-1E+10	1	-1E+10	1	-1E+10	1	-1E+10	1	-1E+10	1
4902554	12	C	05/31/2021	08:49	-136.695	49.581	0	863.40	0	3.3740	0	34.3010	0	27.298	0	854.253	0	14.3	4	4.5	4	-1E+10	1	-1E+10	1	-1E+10	1	-1E+10	1	-1E+10	1	-1E+10	1
4902554	12	C	05/31/2021	08:49	-136.695	49.581	0	888.30	0	3.3280	0	34.3110	0	27.310	0	878.837	0	14.0	4	4.4	4	-1E+10	1	-1E+10	1	-1E+10	1	-1E+10	1	-1E+10	1	-1E+10	1
4902554	12	C	05/31/2021	08:49	-136.695	49.581	0	912.90	0	3.2870	0	34.3230	0	27.324	0	903.122	0	13.7	4	4.2	4	-1E+10	1	-1E+10	1	-1E+10	1	-1E+10	1	-1E+10	1	-1E+10	1
4902554	12	C	05/31/2021	08:49	-136.695	49.581	0	937.80	0	3.2130	0	34.3350	0	27.341	0	927.700	0	13.7	4	4.3	4	-1E+10	1	-1E+10	1	-1E+10	1	-1E+10	1	-1E+10	1	-1E+10	1
4902554	12	C	05/31/2021	08:49	-136.695	49.581	0	962.90	0	3.1450	0	34.3480	0	27.357	0	952.473	0	13.7	4	4.3	4	-1E+10	1	-1E+10	1	-1E+10	1	-1E+10	1	-1E+10	1	-1E+10	1
4902554	12	C	05/31/2021	08:49	-136.695	49.581	0	987.90	0	3.0950	0	34.3570	0	27.369	0	977.144	0	13.8	4	4.3	4	-1E+10	1	-1E+10	1	-1E+10	1	-1E+10	1	-1E+10	1	-1E+10	1
4902554	12	C	05/31/2021	08:49	-136.695	49.581	0	1013.00	0	3.0300	0	34.3690	0	27.385	0	1001.910	0	13.8	4	4.3	4	-1E+10	1	-1E+10	1	-1E+10	1	-1E+10	1	-1E+10	1	-1E+10	1
4902554	12	C	05/31/2021	08:49	-136.695	49.581	0	1038.60	0	2.9880	0	34.3760	0	27.394	0	1027.167	0	13.6	4	4.2	4	-1E+10	1	-1E+10	1	-1E+10	1	-1E+10	1	-1E+10	1	-1E+10	1
4902554	12	C	05/31/2021	08:49	-136.695	49.581	0	1062.70	0	2.9450	0	34.3840	0	27.405	0	1050.942	0	13.6	4	4.2	4	-1E+10	1	-1E+10	1	-1E+10	1	-1E+10	1	-1E+10	1	-1E+10	1
4902554	12	C	05/31/2021	08:49	-136.695	49.581	0	1087.80	0	2.9040	0	34.3920	0	27.415	0	1075.700	0	13.4	4	4.1	4	-1E+10	1	-1E+10	1	-1E+10	1	-1E+10	1	-1E+10	1	-1E+10	1
4902554	12	C	05/31/2021	08:49	-136.695	49.581	0	1112.80	0	2.8650	0	34.4000	0	27.425	0	1100.356	0	13.6	4	4.2	4	-1E+10	1	-1E+10	1	-1E+10	1	-1E+10	1	-1E+10	1	-1E+10	1
4902554	12	C	05/31/2021	08:49	-136.695	49.581	0	1137.90	0	2.8220	0	34.4080	0	27.435	0	1125.108	0	13.6	4	4.2	4	-1E+10	1	-1E+10	1	-1E+10	1	-1E+10	1	-1E+10	1	-1E+10	1
4902554	12	C	05/31/2021	08:49	-136.695	49.581	0	1162.90	0	2.7860	0	34.4150	0	27.444	0	1149.759	0	13.7	4	4.2	4	-1E+10	1	-1E+10	1	-1E+10	1	-1E+10	1	-1E+10	1	-1E+10	1
4902554	12	C	05/31/2021	08:49	-136.695	49.581	0	1187.80	0	2.7660	0	34.4200	0	27.450	0	1174.308	0	13.7	4	4.2	4	-1E+10	1	-1E+10	1	-1E+10	1	-1E+10	1	-1E+10	1	-1E+10	1
4902554	12	C	05/31/2021	08:49	-136.695	49.581	0	1213.00	0	2.7240	0	34.4290	0	27.461	0	1199.150	0	13.8	4	4.2	4	-1E+10	1	-1E+10	1	-1E+10	1	-1E+10	1	-1E+10	1	-1E+10	1
4902554	12	C	05/31/2021	08:49	-136.695	49.581	0	1238.00	0	2.6790	0	34.4370	0	27.472	0	1223.792	0	14.0	4	4.3	4	-1E+10	1	-1E+10	1	-1E+10	1	-1E+10	1	-1E+10	1	-1E+10	1
4902554	12	C	05/31/2021	08:49	-136.695	49.581	0	1262.70	0	2.6480	0	34.4440	0	27.480	0	1248.135	0	14.2	4	4.4	4	-1E+10	1	-1E+10	1	-1E+10	1	-1E+10	1	-1E+10	1	-1E+10	1
4902554	12	C	05/31/2021	08:49	-136.695	49.581	0	1288.20	0	2.6180	0	34.4500	0	27.487	0	1273.264	0	14.6	4	4.5	4	-1E+10	1	-1E+10	1	-1E+10	1	-1E+10	1	-1E+10	1	-1E+10	1
4902554	12	C	05/31/2021	08:49	-136.695	49.581	0	1312.80	0	2.5810	0	34.4570	0	27.496	0	1297.503	0	15.1	4	4.6	4	-1E+10	1	-1E+10	1	-1E+10	1	-1E+10	1	-1E+10	1	-1E+10	1
4902554	12	C	05/31/2021	08:49	-136.695	49.581	0	1337.60	0	2.5450	0	34.4640	0	27.505	0	1321.936	0	15.7	4	4.8	4	-1E+10	1	-1E+10	1	-1E+10	1	-1E+10	1	-1E+10	1	-1E+10	1
4902554	12	C	05/31/2021	08:49	-136.695	49.581	0	1362.70	0	2.5090	0	34.4710	0	27.514	0	1346.662	0	16.4	4	5.0	4	-1E+10	1	-1E+10	1	-1E+10	1	-1E+10	1	-1E+10	1	-1E+10	1
4902554	12	C	05/31/2021	08:49	-136.695	49.581	0	1387.90	0	2.4790	0	34.4760	0	27.521	0	1371.484	0	17.1	4	5.2	4	-1E+10	1	-1E+10	1	-1E+10	1	-1E+10	1	-1E+10	1	-1E+10	1
4902554	12	C	05/31/2021	08:49	-136.695	49.581	0	1412.60	0	2.4510	0	34.4820	0	27.528	0	1395.810	0	17.7	4	5.4	4	-1E+10	1	-1E+10	1	-1E+10	1	-1E+10	1	-1E+10	1	-1E+10	1
4902554	12	C	05/31/2021	08:49	-136.695	49.581	0	1437.90	0	2.4250	0	34.4870	0	27.534	0	1420.724	0	18.4	4	5.6	4	-1E+10	1	-1E+10	1	-1E+10	1	-1E+10	1	-1E+10	1	-1E+10	1
4902554	12	C	05/31/2021	08:49	-136.695	49.581	0	1462.80	0	2.4000	0	34.4920	0	27.540	0	1445.242	0	19.3	4	5.9	4	-1E+10	1	-1E+10	1	-1E+10	1	-1E+10	1	-1E+10	1	-1E+10	1
4902554	12	C	05/31/2021	08:49	-136.695	49.581	0	1487.50	0	2.3800	0	34.4960	0	27.545	0	1469.559	0	20.1	4	6.1	4	-1E+10	1	-1E+10	1	-1E+10	1	-1E+10	1	-1E+10	1	-1E+10	1
4902554	12	C	05/31/2021	08:49	-136.695	49.581	0	1512.50	0	2.3560	0	34.5010	0	27.551	0	1494.169	0	21.1	4	6.4	4	-1E+10	1	-1E+10	1	-1E+10	1	-1E+10	1	-1E+10	1	-1E+10	1
4902554	12	C	05/31/2021	08:49	-136.695	49.581	0	1537.90	0	2.3290	0	34.5070	0	27.559	0	1519.170	0	22.3	4	6.8	4	-1E+10	1	-1E+10	1	-1E+10	1	-1E+10	1	-1E+10	1	-1E+10	1
4902554	12	C	05/31/2021	08:49	-136.695	49.581	0	1563.20	0	2.3010	0	34.5120	0	27.565	0	1544.070	0	23.8	4	7.2	4	-1E+10	1	-1E+10	1	-1E+10	1	-1E+10	1	-1E+10	1	-1E+10	1
4902554	12	C	05/31/2021	08:49	-136.695	49.581	0	1587.80	0	2.2720	0	34.5180	0	27.572	0	1568.278	0	25.2	4	7.6	4	-1E+10	1	-1E+10	1	-1E+10	1	-1E+10	1	-1E+10	1	-1E+10	1
4902554	12	C	05/31/2021	08:49	-136.695	49.581	0	1612.80	0	2.2480	0	34.5230	0	27.578	0	1592.876	0	26.5	4	8.1	4	-1E+10	1	-1E+10	1	-1E+10	1	-1E+10	1	-1E+10	1	-1E+10	1
4902554	12	C	05/31/2021	08:49	-136.695	49.581	0	1637.90	0	2.2270	0	34.5270	0	27.583	0	1617.571	0	27.9	4	8.4	4	-1E+10	1	-1E+10	1	-1E+10	1	-1E+10	1	-1E+10	1	-1E+10	1
4902554	12	C	05/31/2021	08:49	-136.695	49.581	0	1662.70	0	2.2040	0	34.5320	0	27.589	0	1641.967	0	29.4	4	8.9	4	-1E+10	1	-1E+10	1	-1E+10	1	-1E+10	1	-1E+10	1	-1E+10	1
4902554	12	C	05/31/2021	08:49	-136.695	49.581	0	1687.70	0	2.1820	0	34.5370	0	27.595	0	1666.557	0	30.7	4	9.3	4	-1E+10	1	-1E+10	1	-1E+10	1	-1E+10	1	-1E+10	1	-1E+10	1
4902554	12	C	05/31/2021	08:49	-136.695	49.581	0	1712.60	0	2.1640	0	34.5400	0	27.599	0	1691.045	0	32.0	4	9.7	4	-1E+10	1	-1E+10	1	-1E+10	1	-1E+10	1	-1E+10	1	-1E+10	1
4902554	12	C	05/31/2021	08:49	-136.695	49.581	0	1737.60	0	2.1420	0	34.5450	0	27.605	0	1715.630	0	33.7	4	10.2	4	-1E+10	1	-1E+10	1	-1E+10	1	-1E+10	1	-1E+10	1	-1E+10	1
4902554	12	C	05/31/2021	08:49	-136.695	49.581	0	1762.60	0	2.1170	0	34.5500	0	27.611	0	1740.211	0	35.6	4	10.8	4	-1E+10	1	-1E+10	1	-1E+10	1	-1E+10	1	-1E+10	1	-1E+10	1
4902554	12	C	05/31/2021	08:49	-136.695	49.581	0	1787.90	0	2.0910	0	34.5550	0	27.617	0	1765.085	0	37.4	4	11.3	4	-1E+10	1	-1E+10	1	-1E+10	1	-1E+10	1	-1E+10	1	-1E+10	1
4902554	12	C	05/31/2021	08:49	-136.695	49.581	0	1813.10	0	2.0730	0	34.5580	0	27.621	0	1789.857	0	38.9	4	11.8	4	-1E+10	1	-1E+10	1	-1E+10	1	-1E+10	1	-1E+10	1	-1E+10	1
4902554	12	C	05/31/2021	08:49	-136.695	49.581	0	1838.00	0	2.0520	0	34.5630	0	27.627	0	1814.332	0	40.7	4	12.3	4	-1E+10	1	-1E+10	1	-1E+10	1	-1E+10	1	-1E+10	1	-1E+10	1
4902554	12	C	05/31/2021	08:49	-136.695	49.581	0	1863.20	0	2.0310	0	34.5670	0	27.632	0	1839.098	0	42.2	4	12.7	4	-1E+10	1	-1E+10	1	-1E+10	1	-1E+10	1	-1E+10	1	-1E+10	1
4902554	12	C	05/31/2021	08:49	-136.695	49.581	0	1888.30	0	2.0220	0	34.5690	0	27.635	0	1863.764	0	43.3	4	13.1	4	-1E+10	1	-1E+10	1	-1E+10	1	-1E+10	1	-1E+10	1	-1E+10	1
4902554	12	C	05/31/2021	08:49	-136.695	49.581	0	1913.20	0	2.0030	0	34.5730	0	27.639	0	1888.230	0	45.0	4	13.6	4	-1E+10	1	-1E+10	1	-1E+10	1	-1E+10	1	-1E+10	1	-1E+10	1
4902554	12	C	05/31/2021	08:49	-136.695	49.581	0	1938.20	0	1.9850	0	34.5760	0	27.643	0	1912.791	0	46.5	4	14.0	4	-1E+10	1	-1E+10	1	-1E+10	1	-1E+10	1	-1E+10	1	-1E+10	1
4902554	12	C	05/31/2021	08:49	-136.695	49.581	0	1962.90	0	1.9700	0	34.5790	0	27.647	0	1937.055	0	47.8	4	14.4	4	-1E+10	1	-1E+10	1	-1E+10	1	-1E+10	1	-1E+10	1	-1E+10	1
4902554	12	C	05/31/2021	08:49	-136.695	49.581	0	1987.60	0	1.9540	0	34.5830	0	27.652	0	1961.316	0	49.3	4	14.8	4	-1E+10	1	-1E+10	1	-1E+10	1	-1E+10	1	-1E+10	1	-1E+10	1
4902554	12	C	05/31/2021	08:49	-136.695	49.581	0	2010.90	0	1.9360	0	34.5860	0	27.656	0	1984.200	0	50.7	4	15.3	4	-1E+10	1	-1E+10	1	-1E+10	1	-1E+10	1	-1E+10	1	-1E+10	1
4902554	12	C	05/31/2021	08:49	-136.695	49.581	0																										
4902554	13	C	06/10/2021	14:07	-136.604	49.578	0	0.20	0	9.4430	0	32.3460	0	24.971	0	0.198	0	274.6	4	96.9	4	-1E+10	1	-1E+10	1	-1E+10	1	-1E+10	1	-1E+10	1	-1E+10	1
4902554	13	C	06/10/2021	14:07	-136.604	49.578	0	0.80	0	9.4450	0	32.3490	0	24.973	0	0.793	0	274.7	4	97.0	4	-1E+10	1	-1E+10	1	-1E+10	1	-1E+10	1	-1E+10	1	-1E+10	1
4902554	13	C	06/10/2021	14:07	-136.604	49.578	0	1.80	0	9.4450	0	32.3480	0	24.972	0	1.785	0	274.7	4	97.0	4	-1E+10	1	-1E+10	1	-1E+10	1	-1E+10	1	-1E+10	1	-1E+10	1
4902554	13	C	06/10/2021	14:07	-136.604	49.578	0	3.00	0	9.4450	0	32.3520	0	24.976	0	2.974	0	274.7	4	97.0	4	-1E+10	1	-1E+10	1	-1E+10	1	-1E+10	1	-1E+10	1	-1E+10	1
4902554	13	C	06/10/2021	14:07	-136.604	49.578	0	4.00	0	9.4450	0	32.3520	0	24.976	0	3.966	0	274.7	4	97.0	4	-1E+10	1	-1E+10	1	-1E+10	1	-1E+10	1	-1E+10	1	-1E+10	1
4902554	13	C	06/10/2021	14:07	-136.604	49.578	0	5.00	0	9.4460	0	32.3530	0	24.976	0	4.957	0	274.6	4	96.9	4	-1E+10	1	-1E+10	1	-1E+10	1	-1E+10	1	-1E+10	1	-1E+10	1
4902554	13	C	06/10/2021	14:07	-136.604	49.578	0	6.10	0	9.4460	0	32.3530	0	24.976	0	6.048	0	274.6	4	96.9	4	-1E+10	1	-1E+10	1	-1E+10	1	-1E+10	1	-1E+10	1	-1E+10	1
4902554	13	C	06/10/2021	14:07	-136.604	49.578	0	6.90	0	9.4460	0	32.3530	0	24.976	0	6.841	0	274.6	4	97.0	4	-1E+10	1	-1E+10	1	-1E+10	1	-1E+10	1	-1E+10	1	-1E+10	1
4902554	13	C	06/10/2021	14:07	-136.604	49.578	0	8.00	0	9.4460	0	32.3530	0	24.976	0	7.932	0	274.6	4	96.9	4	-1E+10	1	-1E+10	1	-1E+10	1	-1E+10	1	-1E+10	1	-1E+10	1
4902554	13	C	06/10/2021	14:07	-136.604	49.578	0	9.00	0	9.4460	0	32.3530	0	24.976	0	8.923	0	274.5	4	96.9	4	-1E+10	1	-1E+10	1	-1E+10	1	-1E+10	1	-1E+10	1	-1E+10	1
4902554	13	C	06/10/2021	14:07	-136.604	49.578	0	10.10	0	9.4460	0	32.3530	0	24.976	0	10.014	0	274.6	4	96.9	4	-1E+10	1	-1E+10	1	-1E+10	1	-1E+10	1	-1E+10	1	-1E+10	1
4902554	13	C	06/10/2021	14:07	-136.604	49.578	0	10.90	0	9.4460	0	32.3530	0	24.976	0	10.807	0	274.5	4	96.9	4	-1E+10	1	-1E+10	1	-1E+10	1	-1E+10	1	-1E+10	1	-1E+10	1
4902554	13	C	06/10/2021	14:07	-136.604	49.578	0	11.80	0	9.4460	0	32.3530	0	24.976	0	11.699	0	274.5	4	96.9	4	-1E+10	1	-1E+10	1	-1E+10	1	-1E+10	1	-1E+10	1	-1E+10	1
4902554	13	C	06/10/2021	14:07	-136.604	49.578	0	13.10	0	9.4460	0	32.3530	0	24.976	0	12.988	0	274.6	4	96.9	4	-1E+10	1	-1E+10	1	-1E+10	1	-1E+10	1	-1E+10	1	-1E+10	1
4902554	13	C	06/10/2021	14:07	-136.604	49.578	0	14.00	0	9.4460	0	32.3540	0	24.977	0	13.880	0	274.6	4	96.9	4	-1E+10	1	-1E+10	1	-1E+10	1	-1E+10	1	-1E+10	1	-1E+10	1
4902554	13	C	06/10/2021	14:07	-136.604	49.578	0	14.80	0	9.4460	0	32.3540	0	24.977	0	14.673	0	274.6	4	97.0	4	-1E+10	1	-1E+10	1	-1E+10	1	-1E+10	1	-1E+10	1	-1E+10	1
4902554	13	C	06/10/2021	14:07	-136.604	49.578	0	16.00	0	9.4460	0	32.3540	0	24.977	0	15.863	0	274.7	4	97.0	4	-1E+10	1	-1E+10	1	-1E+10	1	-1E+10	1	-1E+10	1	-1E+10	1
4902554	13	C	06/10/2021	14:07	-136.604	49.578	0	16.90	0	9.4460	0	32.3530	0	24.976	0	16.755	0	274.8	4	97.0	4	-1E+10	1	-1E+10	1	-1E+10	1	-1E+10	1	-1E+10	1	-1E+10	1
4902554	13	C	06/10/2021	14:07	-136.604	49.578	0	18.00	0	9.4470	0	32.3530	0	24.976	0	17.846	0	274.9	4	97.0	4	-1E+10	1	-1E+10	1	-1E+10	1	-1E+10	1	-1E+10	1	-1E+10	1
4902554	13	C	06/10/2021	14:07	-136.604	49.578	0	19.30	0	9.4400	0	32.3540	0	24.978	0	19.134	0	275.0	4	97.1	4	-1E+10	1	-1E+10	1	-1E+10	1	-1E+10	1	-1E+10	1	-1E+10	1
4902554	13	C	06/10/2021	14:07	-136.604	49.578	0	20.30	0	9.4410	0	32.3560	0	24.980	0	20.126	0	275.3	4	97.2	4	-1E+10	1	-1E+10	1	-1E+10	1	-1E+10	1	-1E+10	1	-1E+10	1
4902554	13	C	06/10/2021	14:07	-136.604	49.578	0	21.00	0	9.4390	0	32.3540	0	24.978	0	20.820	0	275.4	4	97.2	4	-1E+10	1	-1E+10	1	-1E+10	1	-1E+10	1	-1E+10	1	-1E+10	1
4902554	13	C	06/10/2021	14:07	-136.604	49.578	0	21.90	0	9.4320	0	32.3510	0	24.977	0	21.712	0	275.8	4	97.3	4	-1E+10	1	-1E+10	1	-1E+10	1	-1E+10	1	-1E+10	1	-1E+10	1
4902554	13	C	06/10/2021	14:07	-136.604	49.578	0	23.10	0	9.3860	0	32.3590	0	24.991	0	22.902	0	276.2	4	97.4	4	-1E+10	1	-1E+10	1	-1E+10	1	-1E+10	1	-1E+10	1	-1E+10	1
4902554	13	C	06/10/2021	14:07	-136.604	49.578	0	23.70	0	9.3840	0	32.3550	0	24.988	0	23.496	0	276.5	4	97.5	4	-1E+10	1	-1E+10	1	-1E+10	1	-1E+10	1	-1E+10	1	-1E+10	1
4902554	13	C	06/10/2021	14:07	-136.604	49.578	0	24.70	0	9.3030	0	32.3560	0	25.002	0	24.488	0	276.9	4	97.5	4	-1E+10	1	-1E+10	1	-1E+10	1	-1E+10	1	-1E+10	1	-1E+10	1
4902554	13	C	06/10/2021	14:07	-136.604	49.578	0	25.80	0	9.2380	0	32.3600	0	25.015	0	25.578	0	277.2	4	97.4	4	-1E+10	1	-1E+10	1	-1E+10	1	-1E+10	1	-1E+10	1	-1E+10	1
4902554	13	C	06/10/2021	14:07	-136.604	49.578	0	27.00	0	9.1850	0	32.3600	0	25.023	0	26.768	0	277.3	4	97.3	4	-1E+10	1	-1E+10	1	-1E+10	1	-1E+10	1	-1E+10	1	-1E+10	1
4902554	13	C	06/10/2021	14:07	-136.604	49.578	0	28.00	0	9.1630	0	32.3650	0	25.031	0	27.759	0	277.4	4	97.3	4	-1E+10	1	-1E+10	1	-1E+10	1	-1E+10	1	-1E+10	1	-1E+10	1
4902554	13	C	06/10/2021	14:07	-136.604	49.578	0	28.80	0	9.1380	0	32.3610	0	25.032	0	28.552	0	277.4	4	97.3	4	-1E+10	1	-1E+10	1	-1E+10	1	-1E+10	1	-1E+10	1	-1E+10	1
4902554	13	C	06/10/2021	14:07	-136.604	49.578	0	30.00	0	9.1200	0	32.3610	0	25.034	0	29.742	0	277.6	4	97.3	4	-1E+10	1	-1E+10	1	-1E+10	1	-1E+10	1	-1E+10	1	-1E+10	1
4902554	13	C	06/10/2021	14:07	-136.604	49.578	0	30.90	0	9.1100	0	32.3600	0	25.035	0	30.634	0	277.8	4	97.3	4	-1E+10	1	-1E+10	1	-1E+10	1	-1E+10	1	-1E+10	1	-1E+10	1
4902554	13	C	06/10/2021	14:07	-136.604	49.578	0	31.80	0	9.0940	0	32.3620	0	25.039	0	31.526	0	278.0	4	97.4	4	-1E+10	1	-1E+10	1	-1E+10	1	-1E+10	1	-1E+10	1	-1E+10	1
4902554	13	C	06/10/2021	14:07	-136.604	49.578	0	33.00	0	9.0460	0	32.3630	0	25.048	0	32.716	0	278.3	4	97.4	4	-1E+10	1	-1E+10	1	-1E+10	1	-1E+10	1	-1E+10	1	-1E+10	1
4902554	13	C	06/10/2021	14:07	-136.604	49.578	0	33.90	0	8.9810	0	32.3620	0	25.057	0	33.608	0	278.4	4	97.3	4	-1E+10	1	-1E+10	1	-1E+10	1	-1E+10	1	-1E+10	1	-1E+10	1
4902554	13	C	06/10/2021	14:07	-136.604	49.578	0	34.70	0	8.9650	0	32.3620	0	25.059	0	34.401	0	278.4	4	97.3	4	-1E+10	1	-1E+10	1	-1E+10	1	-1E+10	1	-1E+10	1	-1E+10	1
4902554	13	C	06/10/2021	14:07	-136.604	49.578	0	35.90	0	8.9410	0	32.3650	0	25.065	0	35.591	0	278.7	4	97.3	4	-1E+10	1	-1E+10	1	-1E+10	1	-1E+10	1	-1E+10	1	-1E+10	1
4902554	13	C	06/10/2021	14:07	-136.604	49.578	0	37.00	0	8.9230	0	32.3640	0	25.067	0	36.681	0	278.8	4	97.3	4	-1E+10	1	-1E+10	1	-1E+10	1	-1E+10	1	-1E+10	1	-1E+10	1
4902554	13	C	06/10/2021	14:07	-136.604	49.578	0	38.10	0	8.9030	0	32.3640	0	25.070	0	37.771	0	279.2	4	97.4	4	-1E+10	1	-1E+10	1	-1E+10	1	-1E+10	1	-1E+10	1	-1E+10	1
4902554	13	C	06/10/2021	14:07	-136.604	49.578	0	39.10	0	8.8600	0	32.3690	0	25.081	0	38.763	0	279.5	4	97.4	4	-1E+10	1	-1E+10	1	-1E+10	1	-1E+10	1	-1E+10	1	-1E+10	1
4902554	13	C	06/10/2021	14:07	-136.604	49.578	0	40.10	0	8.7790	0	32.3690	0	25.093	0	39.754	0	279.8	4	97.4	4	-1E+10	1	-1E+10	1	-1E+10	1	-1E+10	1	-1E+10	1	-1E+10	1
4902554	13	C	06/10/2021	14:07	-136.604	49.578	0	41.10	0	8.7210	0	32.3700	0	25.103	0	40.745	0	280.1	4	97.3	4	-1E+10	1	-1E+10	1	-1E+10	1	-1E+10	1	-1E+10	1	-1E+10	1
4902554	13	C	06/10/2021	14:07	-136.604	49.578	0	42.10	0	8.6360	0	32.3710	0	25.117	0	41.736	0	280.9	4	97.4	4	-1E+10	1	-1E+10	1	-1E+10	1	-1E+10	1	-1E+10	1	-1E+10	1
4902554	13	C	06/10/2021	14:07	-136.604	49.578	0	43.00	0	8.4420	0	32.3770	0	25.151	0	42.629	0	281.5	4	97.2	4	-1E+10	1	-1E+10	1	-1E+10	1	-1E+10	1	-1E+10	1	-1E+10	1
4902554	13	C	06/10/2021	14:07	-136.604	49.578	0	44.10	0	8.3020	0	32.3820	0	25.175	0	43.719	0	282.3	4	97.2	4	-1E+10	1	-1E+10	1	-1E+10	1	-1E+10	1	-1E+10	1	-1E+10	1
4902554	13	C	06/10/2021	14:07	-136.604	49.578	0	45.00	0	8.1360	0	32.3870	0	25.203	0	44.611	0	282.4	4	96.9	4	-1E+10	1	-1E+10	1	-1E+10	1	-1E+10	1	-1E+10	1	-1E+10	1
4902554	13	C	06/10/2021	14:07	-136.604	49.578	0	46.10	0	8.0790	0	32.3910	0	25.215	0	45.701	0	282.4	4	96.7	4	-1E+10	1	-1E+10	1	-1E+10	1	-1E+10	1	-1E+10	1	-1E+10	1
4902554	13	C	06/10/2021	14:07	-136.604	49.578	0	47.10	0	8.0630	0	32.3900	0	25.216	0	46.693	0	282.6	4	96.8	4	-1E+10	1	-1E+10	1	-1E+10	1	-1E+10	1	-1E+10	1	-1E+10	1
4902554	13	C	06/10/2021	14:07	-136.604	49.578	0	47.80	0	8.0350	0	32.3920	0	25.222	0	47.387	0	282.8	4	96.8	4	-1E+10	1	-1E+10	1	-1E+10	1	-1E+10	1	-1E+10	1	-1E+10	1
4902554	13	C	06/10/2021	14:07	-136.604	49.578	0	48.90	0	7.9540	0	32.3920	0	25.234	0	48.477	0	283.2	4	96.8	4	-1E+10	1	-1E+10	1	-1E+10	1	-1E+10	1	-1E+10	1	-1E+10	1
4902554	13	C	06/10/2021	14:07	-136.604	49.578	0	50.00	0	7.8760	0	32.3920	0	25.245	0	49.567	0	283.4	4	96.7	4	-1E+10	1	-1E+10	1	-1E+10	1	-1E+10	1	-1E+10	1	-1E+10	1
4902554	13	C	06/10/2021	14:07	-136.604	49.578	0	51.10	0	7.8280	0	32.3950	0	25.254	0	50.658	0	283.9	4	96.7	4	-1E+10	1	-1E+10	1	-1E+10	1	-1E+10	1	-1E+10	1	-1E+10	1
4902554	13	C	06/10/2021	14:07	-136.604	49.578	0	51.90	0	7.7390	0	32.3990	0	25.270	0	51.451	0	284.0	4	96.5	4	-1E+10	1	-1E+10	1	-1E+10	1	-1E+10	1	-1E+10	1	-1E+10	1
4902554	13	C	06/10/2021	14:07	-136.604	49.578	0	53.10	0	7.6670	0	32.4020	0	25.282	0	52.640	0	284.1	4	96.4	4	-1E+10	1	-1E+10	1	-1E+10	1	-1E+10	1	-1E+10	1	-1E+10	1
4902554	13	C	06/10/2021	14:07	-136.604	49.578	0	53.90	0	7.6550	0	32.4010	0	25.283	0	53.433	0	284.3	4	96.5	4	-1E+10	1	-1E+10	1	-1E+10	1	-1E+10	1	-1E+10	1	-1E+10	1
4902554	13	C	06/10/2021	14:07	-136.604	49.578	0	55.10	0	7.5640	0	32.4030	0	25.298	0	54.622	0	284.6	4	96.4	4	-1E+10	1	-1E+10	1	-1E+10	1	-1E+10	1	-1E+10	1	-1E+10	1
4902554	13	C	06/10/2021	14:07	-136.604	49.578	0	56.00	0	7.4980	0	32.4090	0	25.311	0	55.515	0	284.6	4	96.2	4	-1E+10	1	-1E+10	1	-1E+10	1	-1E+10	1	-1E+10	1	-1E+10	1
4902554	13	C	06/10/2021	14:07	-136.604	49.578	0	57.20	0	7.4450	0	32.4120	0	25.321	0	56.704	0	284.4	4	96.1	4	-1E+10	1	-1E+10	1	-1E+10	1	-1E+10	1	-1E+10	1	-1E+10	1
4902554	13	C	06/10/2021	14:07	-136.604	49.578	0	58.00	0	7.4390	0	32.4090	0	25.320	0	57.497	0	284.5	4	96.1	4	-1E+10	1	-1E+10	1	-1E+10	1	-1E+10	1	-1E+10	1	-1E+10	1
4902554	13	C	06/10/2021	14:07	-136.604	49.578	0	58.90	0	7.3740	0	32.4150	0	25.333	0	58.389	0	284.5	4	96.0	4	-1E+10	1	-1E+10	1	-1E+10	1	-1E+10	1	-1E+10	1	-1E+10	1
4902554	13	C	06/10/2021	14:07	-136.604	49.578	0	60.00	0	7.3360	0	32.4070	0	25.332	0	59.479	0	284.7	4	95.9	4	-1E+10	1	-1E+10	1	-1E+10	1	-1E+10	1	-1E+10	1	-1E+10	1
4902554	13	C	06/10/2021	14:07	-136.604	49.578	0	61.00	0	7.1980	0	32.4110	0	25.354	0	60.470	0	284.6	4	95.6	4	-1E+10	1	-1E+10	1	-1E+10	1	-1E+10	1	-1E+10	1	-1E+10	1
4902554	13	C	06/10/2021	14:07	-136.604	49.578	0	62.10	0	7.0510	0	32.4200	0	25.381	0	61.561	0	284.4	4	95.2	4	-1E+10	1	-1E+10	1	-1E+10	1	-1E+10	1	-1E+10	1	-1E+10	1
4902554	13	C	06/10/2021	14:07	-136.604	49.578	0	63.00	0	7.0130	0	32.4110	0	25.379	0	62.453	0	284.3	4	95.1	4	-1E+10	1	-1E+10	1	-1E+10	1	-1E+10	1	-1E+10	1	-1E+10	1
4902554	13	C	06/10/2021	14:07	-136.604	49.578	0	63.70	0	6.9710	0	32.4230	0	25.394	0	63.147	0	284.2	4	95.0	4	-1E+10	1	-1E+10	1	-1E+10	1	-1E+10	1	-1E+10	1	-1E+10	1
4902554	13	C	06/10/2021	14:07	-136.604	49.578	0	64.80	0	6.9490	0	32.4230	0	25.397	0	64.237	0	284.1	4	94.9	4	-1E+10	1	-1E+10	1	-1E+10	1	-1E+10	1	-1E+10	1	-1E+10	1
4902554	13	C	06/10/2021	14:07	-136.604	49.578	0	65.90	0	6.9050	0	32.4260	0	25.405	0	65.327	0	283.9	4	94.7	4	-1E+10	1	-1E+10	1	-1E+10	1	-1E+10	1	-1E+10	1	-1E+10	1
4902554	13	C	06/10/2021	14:07	-136.604	49.578	0	67.00	0	6.8830	0	32.4260	0	25.408	0	66.417	0	283.7	4	94.6	4	-1E+10	1	-1E+10	1	-1E+10	1	-1E+10	1	-1E+10	1	-1E+10	1
4902554	13	C	06/10/2021	14:07	-136.604	49.578	0	68.10	0	6.8620	0	32.4270	0	25.412	0	67.508	0	283.6	4	94.5	4	-1E+10	1	-1E+10	1	-1E+10	1	-1E+10	1	-1E+10	1	-1E+10	1
4902554	13	C	06/10/2021	14:07	-136.604	49.578	0	69.00	0	6.8370	0	32.4290	0	25.417	0	68.400	0	283.6	4	94.5	4	-1E+10	1	-1E+10	1	-1E+10	1	-1E+10	1	-1E+10	1	-1E+10	1
4902554	13	C	06/10/2021	14:07	-136.604	49.578	0	69.80	0	6.8180	0	32.4300	0	25.420	0	69.193	0	283.6	4	94.4	4	-1E+10	1	-1E+10	1	-1E+10	1	-1E+10	1	-1E+10	1	-1E+10	1
4902554	13	C	06/10/2021	14:07	-136.604	49.578	0	70.90	0	6.7690	0	32.4340	0	25.429	0	70.283	0	283.5	4	94.3	4	-1E+10	1	-1E+10	1	-1E+10	1	-1E+10	1	-1E+10	1	-1E+10	1
4902554	13	C	06/10/2021	14:07	-136.604	49.578	0	72.00	0	6.7560	0	32.4340	0	25.431	0	71.373	0	283.4	4	94.2	4	-1E+10	1	-1E+10	1	-1E+10	1	-1E+10	1	-1E+10	1	-1E+10	1
4902554	13	C	06/10/2021	14:07	-136.604	49.578	0	72.90	0	6.7480	0	32.4350	0	25.433	0	72.265	0	283.4	4	94.2	4	-1E+10	1	-1E+10	1	-1E+10	1	-1E+10	1	-1E+10	1	-1E+10	1
4902554	13	C	06/10/2021	14:07	-136.604	49.578	0	73.80	0	6.7390	0	32.4360	0	25.435	0	73.157	0	283.3	4	94.2	4	-1E+10	1	-1E+10	1	-1E+10	1	-1E+10	1	-1E+10	1	-1E+10	1
4902554	13	C	06/10/2021	14:07	-136.604	49.578	0	74.90	0	6.7120	0	32.4380	0	25.440	0	74.247	0	283.2	4	94.1	4	-1E+10	1	-1E+10	1	-1E+10	1	-1E+10	1	-1E+10	1	-1E+10	1
4902554	13	C	06/10/2021	14:07	-136.604	49.578	0	76.00	0	6.6880	0	32.4390	0	25.444	0	75.337	0	283.0	4	94.0	4	-1E+10	1	-1E+10	1	-1E+10	1	-1E+10	1	-1E+10	1	-1E+10	1
4902554	13	C	06/10/2021	14:07	-136.604	49.578	0	77.10	0	6.6700	0	32.4400	0	25.447	0	76.428	0	283.0	4	93.9	4	-1E+10	1	-1E+10	1	-1E+10	1	-1E+10	1	-1E+10	1	-1E+10	1
4902554	13	C	06/10/2021	14:07	-136.604	49.578	0	78.00	0	6.6260	0	32.4440	0	25.456	0	77.320	0	282.8	4	93.8	4	-1E+10	1	-1E+10	1	-1E+10	1	-1E+10	1	-1E+10	1	-1E+10	1
4902554	13	C	06/10/2021	14:07	-136.604	49.578	0	78.90	0	6.5970	0	32.4460	0	25.461	0	78.212	0	282.5	4	93.6	4	-1E+10	1	-1E+10	1	-1E+10	1	-1E+10	1	-1E+10	1	-1E+10	1
4902554	13	C	06/10/2021	14:07	-136.604	49.578	0	80.10	0	6.5830	0	32.4460	0	25.463	0	79.401	0	282.4	4	93.5	4	-1E+10	1	-1E+10	1	-1E+10	1	-1E+10	1	-1E+10	1	-1E+10	1
4902554	13	C	06/10/2021	14:07	-136.604	49.578	0	80.90	0	6.5790	0	32.4450	0	25.463	0	80.194	0	282.3	4	93.5	4	-1E+10	1	-1E+10	1	-1E+10	1	-1E+10	1	-1E+10	1	-1E+10	1
4902554	13	C	06/10/2021	14:07	-136.604	49.578	0	81.80	0	6.5060	0	32.4540	0	25.479	0	81.086	0	282.1	4	93.3	4	-1E+10	1	-1E+10	1	-1E+10	1	-1E+10	1	-1E+10	1	-1E+10	1
4902554	13	C	06/10/2021	14:07	-136.604	49.578	0	83.00	0	6.4780	0	32.4540	0	25.483	0	82.275	0	281.9	4	93.2	4	-1E+10	1	-1E+10	1	-1E+10	1	-1E+10	1	-1E+10	1	-1E+10	1
4902554	13	C	06/10/2021	14:07	-136.604	49.578	0	83.90	0	6.4660	0	32.4540	0	25.484	0	83.167	0	281.7	4	93.1	4	-1E+10	1	-1E+10	1	-1E+10	1	-1E+10	1	-1E+10	1	-1E+10	1
4902554	13	C	06/10/2021	14:07	-136.604	49.578	0	84.80	0	6.4610	0	32.4540	0	25.485	0	84.059	0	281.5	4	93.0	4	-1E+10	1	-1E+10	1	-1E+10	1	-1E+10	1	-1E+10	1	-1E+10	1
4902554	13	C	06/10/2021	14:07	-136.604	49.578	0	85.90	0	6.4540	0	32.4550	0	25.487	0	85.149	0	281.4	4	92.9	4	-1E+10	1	-1E+10	1	-1E+10	1	-1E+10	1	-1E+10	1	-1E+10	1
4902554	13	C	06/10/2021	14:07	-136.604	49.578	0	87.10	0	6.4460	0	32.4540	0	25.487	0	86.338	0	281.2	4	92.9	4	-1E+10	1	-1E+10	1	-1E+10	1	-1E+10	1	-1E+10	1	-1E+10	1
4902554	13	C	06/10/2021	14:07	-136.604	49.578	0	87.90	0	6.4280	0	32.4550	0	25.490	0	87.131	0	281.1	4	92.8	4	-1E+10	1	-1E+10	1	-1E+10	1	-1E+10	1	-1E+10	1	-1E+10	1
4902554	13	C	06/10/2021	14:07	-136.604	49.578	0	88.90	0	6.3790	0	32.4600	0	25.500	0	88.122	0	280.9	4	92.6	4	-1E+10	1	-1E+10	1	-1E+10	1	-1E+10	1	-1E+10	1	-1E+10	1
4902554	13	C	06/10/2021	14:07	-136.604	49.578	0	90.10	0	6.3420	0	32.4640	0	25.508	0	89.312	0	280.7	4	92.5	4	-1E+10	1	-1E+10	1	-1E+10	1	-1E+10	1	-1E+10	1	-1E+10	1
4902554	13	C	06/10/2021	14:07	-136.604	49.578	0	91.10	0	6.3330	0	32.4650	0	25.510	0	90.303	0	280.4	4	92.4	4	-1E+10	1	-1E+10	1	-1E+10	1	-1E+10	1	-1E+10	1	-1E+10	1
4902554	13	C	06/10/2021	14:07	-136.604	49.578	0	92.10	0	6.3190	0	32.4650	0	25.512	0	91.294	0	280.3	4	92.3	4	-1E+10	1	-1E+10	1	-1E+10	1	-1E+10	1	-1E+10	1	-1E+10	1
4902554	13	C	06/10/2021	14:07	-136.604	49.578	0	93.10	0	6.3100	0	32.4660	0	25.514	0	92.285	0	280.1	4	92.2	4	-1E+10	1	-1E+10	1	-1E+10	1	-1E+10	1	-1E+10	1	-1E+10	1
4902554	13	C	06/10/2021	14:07	-136.604	49.578	0	94.00	0	6.3010	0	32.4660	0	25.515	0	93.177	0	279.9	4	92.1	4	-1E+10	1	-1E+10	1	-1E+10	1	-1E+10	1	-1E+10	1	-1E+10	1
4902554	13	C	06/10/2021	14:07	-136.604	49.578	0	95.00	0	6.2950	0	32.4660	0	25.515	0	94.168	0	279.7	4	92.0	4	-1E+10	1	-1E+10	1	-1E+10	1	-1E+10	1	-1E+10	1	-1E+10	1
4902554	13	C	06/10/2021	14:07	-136.604	49.578	0	96.00	0	6.2730	0	32.4690	0	25.521	0	95.159	0	279.4	4	91.9	4	-1E+10	1	-1E+10	1	-1E+10	1	-1E+10	1	-1E+10	1	-1E+10	1
4902554	13	C	06/10/2021	14:07	-136.604	49.578	0	97.10	0	6.2380	0	32.4740	0	25.529	0	96.249	0	279.1	4	91.7	4	-1E+10	1	-1E+10	1	-1E+10	1	-1E+10	1	-1E+10	1	-1E+10	1
4902554	13	C	06/10/2021	14:07	-136.604	49.578	0	97.80	0	6.2220	0	32.4730	0	25.530	0	96.942	0	278.9	4	91.6	4	-1E+10	1	-1E+10	1	-1E+10	1	-1E+10	1	-1E+10	1	-1E+10	1
4902554	13	C	06/10/2021	14:07	-136.604	49.578	0	98.80	0	6.2200	0	32.4730	0	25.530	0	97.933	0	278.5	4	91.5	4	-1E+10	1	-1E+10	1	-1E+10	1	-1E+10	1	-1E+10	1	-1E+10	1
4902554	13	C	06/10/2021	14:07	-136.604	49.578	0	99.90	0	6.2190	0	32.4730	0	25.530	0	99.023	0	278.1	4	91.4	4	-1E+10	1	-1E+10	1	-1E+10	1	-1E+10	1	-1E+10	1	-1E+10	1
4902554	13	C	06/10/2021	14:07	-136.604	49.578	0	100.90	0	6.2180	0	32.4720	0	25.530	0	100.014	0	277.5	4	91.2	4	-1E+10	1	-1E+10	1	-1E+10	1	-1E+10	1	-1E+10	1	-1E+10	1
4902554	13	C	06/10/2021	14:07	-136.604	49.578	0	102.00	0	6.2170	0	32.4730	0	25.531	0	101.104	0	277.0	4	91.0	4	-1E+10	1	-1E+10	1	-1E+10	1	-1E+10	1	-1E+10	1	-1E+10	1
4902554	13	C	06/10/2021	14:07	-136.604	49.578	0	103.00	0	6.2140	0	32.4730	0	25.531	0	102.095	0	276.5	4	90.8	4	-1E+10	1	-1E+10	1	-1E+10	1	-1E+10	1	-1E+10	1	-1E+10	1
4902554	13	C	06/10/2021	14:07	-136.604	49.578	0	104.10	0	6.1950	0	32.4730	0	25.533	0	103.186	0	276.0	4	90.6	4	-1E+10	1	-1E+10	1	-1E+10	1	-1E+10	1	-1E+10	1	-1E+10	1
4902554	13	C	06/10/2021	14:07	-136.604	49.578	0	104.80	0	6.1940	0	32.4740	0	25.534	0	103.879	0	275.5	4	90.5	4	-1E+10	1	-1E+10	1	-1E+10	1	-1E+10	1	-1E+10	1	-1E+10	1
4902554	13	C	06/10/2021	14:07	-136.604	49.578	0	105.90	0	6.1780	0	32.4760	0	25.538	0	104.969	0	274.9	4	90.2	4	-1E+10	1	-1E+10	1	-1E+10	1	-1E+10	1	-1E+10	1	-1E+10	1
4902554	13	C	06/10/2021	14:07	-136.604	49.578	0	107.00	0	6.1460	0	32.4800	0	25.545	0	106.059	0	274.1	4	89.9	4	-1E+10	1	-1E+10	1	-1E+10	1	-1E+10	1	-1E+10	1	-1E+10	1
4902554	13	C	06/10/2021	14:07	-136.604	49.578	0	107.70	0	6.1480	0	32.4790	0	25.544	0	106.753	0	273.6	4	89.7	4	-1E+10	1	-1E+10	1	-1E+10	1	-1E+10	1	-1E+10	1	-1E+10	1
4902554	13	C	06/10/2021	14:07	-136.604	49.578	0	108.80	0	6.1380	0	32.4810	0	25.547	0	107.843	0	272.6	4	89.4	4	-1E+10	1	-1E+10	1	-1E+10	1	-1E+10	1	-1E+10	1	-1E+10	1
4902554	13	C	06/10/2021	14:07	-136.604	49.578	0	109.90	0	6.1320	0	32.4830	0	25.549	0	108.933	0	271.6	4	89.1	4	-1E+10	1	-1E+10	1	-1E+10	1	-1E+10	1	-1E+10	1	-1E+10	1
4902554	13	C	06/10/2021	14:07	-136.604	49.578	0	110.90	0	6.1360	0	32.4830	0	25.549	0	109.924	0	270.6	4	88.8	4	-1E+10	1	-1E+10	1	-1E+10	1	-1E+10	1	-1E+10	1	-1E+10	1
4902554	13	C	06/10/2021	14:07	-136.604	49.578	0	112.00	0	6.1270	0	32.4850	0	25.551	0	111.014	0	269.6	4	88.4	4	-1E+10	1	-1E+10	1	-1E+10	1	-1E+10	1	-1E+10	1	-1E+10	1
4902554	13	C	06/10/2021	14:07	-136.604	49.578	0	112.90	0	6.0880	0	32.4900	0	25.560	0	111.906	0	268.4	4	87.9	4	-1E+10	1	-1E+10	1	-1E+10	1	-1E+10	1	-1E+10	1	-1E+10	1
4902554	13	C	06/10/2021	14:07	-136.604	49.578	0	114.30	0	6.0350	0	32.4930	0	25.569	0	113.293	0	266.0	4	87.0	4	-1E+10	1	-1E+10	1	-1E+10	1	-1E+10	1	-1E+10	1	-1E+10	1
4902554	13	C	06/10/2021	14:07	-136.604	49.578	0	115.10	0	6.0200	0	32.4980	0	25.575	0	114.086	0	264.1	4	86.4	4	-1E+10	1	-1E+10	1	-1E+10	1	-1E+10	1	-1E+10	1	-1E+10	1
4902554	13	C	06/10/2021	14:07	-136.604	49.578	0	116.00	0	6.0070	0	32.5040	0	25.581	0	114.978	0	261.2	4	85.4	4	-1E+10	1	-1E+10	1	-1E+10	1	-1E+10	1	-1E+10	1	-1E+10	1
4902554	13	C	06/10/2021	14:07	-136.604	49.578	0	117.00	0	5.9880	0	32.5070	0	25.586	0	115.969	0	257.5	4	84.2	4	-1E+10	1	-1E+10	1	-1E+10	1	-1E+10	1	-1E+10	1	-1E+10	1
4902554	13	C	06/10/2021	14:07	-136.604	49.578	0	118.10	0	5.9620	0	32.5170	0	25.597	0	117.059	0	252.1	4	82.3	4	-1E+10	1	-1E+10	1	-1E+10	1	-1E+10	1	-1E+10	1	-1E+10	1
4902554	13	C	06/10/2021	14:07	-136.604	49.578	0	119.00	0	5.9640	0	32.5450	0	25.619	0	117.950	0	247.9	4	81.0	4	-1E+10	1	-1E+10	1	-1E+10	1	-1E+10	1	-1E+10	1	-1E+10	1
4902554	13	C	06/10/2021	14:07	-136.604	49.578	0	120.00	0	5.9630	0	32.5730	0	25.641	0	118.941	0	242.9	4	79.4	4	-1E+10	1	-1E+10	1	-1E+10	1	-1E+10	1	-1E+10	1	-1E+10	1
4902554	13	C	06/10/2021	14:07	-136.604	49.578	0	121.00	0	5.9930	0	32.5960	0	25.656	0	119.932	0	236.8	4	77.5	4	-1E+10	1	-1E+10	1	-1E+10	1	-1E+10	1	-1E+10	1	-1E+10	1
4902554	13	C	06/10/2021	14:07	-136.604	49.578	0	122.20	0	6.0650	0	32.6440	0	25.685	0	121.121	0	230.7	4	75.6	4	-1E+10	1	-1E+10	1	-1E+10	1	-1E+10	1	-1E+10	1	-1E+10	1
4902554	13	C	06/10/2021	14:07	-136.604	49.578	0	123.00	0	6.1480	0	32.6740	0	25.698	0	121.914	0	227.0	4	74.6	4	-1E+10	1	-1E+10	1	-1E+10	1	-1E+10	1	-1E+10	1	-1E+10	1
4902554	13	C	06/10/2021	14:07	-136.604	49.578	0	124.00	0	6.1290	0	32.7050	0	25.725	0	122.905	0	222.2	4	73.0	4	-1E+10	1	-1E+10	1	-1E+10	1	-1E+10	1	-1E+10	1	-1E+10	1
4902554	13	C	06/10/2021	14:07	-136.604	49.578	0	125.20	0	6.1270	0	32.7420	0	25.754	0	124.094	0	216.6	4	71.2	4	-1E+10	1	-1E+10	1	-1E+10	1	-1E+10	1	-1E+10	1	-1E+10	1
4902554	13	C	06/10/2021	14:07	-136.604	49.578	0	125.90	0	6.1220	0	32.7670	0	25.775	0	124.787	0	212.8	4	69.9	4	-1E+10	1	-1E+10	1	-1E+10	1	-1E+10	1	-1E+10	1	-1E+10	1
4902554	13	C	06/10/2021	14:07	-136.604	49.578	0	127.00	0	6.2530	0	32.8180	0	25.799	0	125.877	0	207.7	4	68.5	4	-1E+10	1	-1E+10	1	-1E+10	1	-1E+10	1	-1E+10	1	-1E+10	1
4902554	13	C	06/10/2021	14:07	-136.604	49.578	0	128.10	0	6.3970	0	32.9020	0	25.847	0	126.967	0	200.8	4	66.5	4	-1E+10	1	-1E+10	1	-1E+10	1	-1E+10	1	-1E+10	1	-1E+10	1
4902554	13	C	06/10/2021	14:07	-136.604	49.578	0	129.00	0	6.4080	0	32.9240	0	25.863	0	127.859	0	192.1	4	63.6	4	-1E+10	1	-1E+10	1	-1E+10	1	-1E+10	1	-1E+10	1	-1E+10	1
4902554	13	C	06/10/2021	14:07	-136.604	49.578	0	130.00	0	6.4270	0	33.0160	0	25.933	0	128.850	0	184.8	4	61.2	4	-1E+10	1	-1E+10	1	-1E+10	1	-1E+10	1	-1E+10	1	-1E+10	1
4902554	13	C	06/10/2021	14:07	-136.604	49.578	0	131.00	0	6.4370	0	33.0990	0	25.997	0	129.841	0	179.0	4	59.4	4	-1E+10	1	-1E+10	1	-1E+10	1	-1E+10	1	-1E+10	1	-1E+10	1
4902554	13	C	06/10/2021	14:07	-136.604	49.578	0	132.00	0	6.4330	0	33.1500	0	26.038	0	130.832	0	174.2	4	57.8	4	-1E+10	1	-1E+10	1	-1E+10	1	-1E+10	1	-1E+10	1	-1E+10	1
4902554	13	C	06/10/2021	14:07	-136.604	49.578	0	133.20	0	6.3750	0	33.2390	0	26.116	0	132.021	0	170.2	4	56.4	4	-1E+10	1	-1E+10	1	-1E+10	1	-1E+10	1	-1E+10	1	-1E+10	1
4902554	13	C	06/10/2021	14:07	-136.604	49.578	0	134.00	0	6.3730	0	33.2500	0	26.125	0	132.813	0	167.7	4	55.6	4	-1E+10	1	-1E+10	1	-1E+10	1	-1E+10	1	-1E+10	1	-1E+10	1
4902554	13	C	06/10/2021	14:07	-136.604	49.578	0	134.90	0	6.3720	0	33.2780	0	26.147	0	133.705	0	165.4	4	54.9	4	-1E+10	1	-1E+10	1	-1E+10	1	-1E+10	1	-1E+10	1	-1E+10	1
4902554	13	C	06/10/2021	14:07	-136.604	49.578	0	135.80	0	6.3720	0	33.3270	0	26.185	0	134.597	0	163.6	4	54.3	4	-1E+10	1	-1E+10	1	-1E+10	1	-1E+10	1	-1E+10	1	-1E+10	1
4902554	13	C	06/10/2021	14:07	-136.604	49.578	0	136.80	0	6.3580	0	33.3770	0	26.227	0	135.588	0	162.2	4	53.8	4	-1E+10	1	-1E+10	1	-1E+10	1	-1E+10	1	-1E+10	1	-1E+10	1
4902554	13	C	06/10/2021	14:07	-136.604	49.578	0	137.80	0	6.3520	0	33.4090	0	26.253	0	136.578	0	160.8	4	53.4	4	-1E+10	1	-1E+10	1	-1E+10	1	-1E+10	1	-1E+10	1	-1E+10	1
4902554	13	C	06/10/2021	14:07	-136.604	49.578	0	138.90	0	6.3560	0	33.4360	0	26.274	0	137.668	0	159.2	4	52.8	4	-1E+10	1	-1E+10	1	-1E+10	1	-1E+10	1	-1E+10	1	-1E+10	1
4902554	13	C	06/10/2021	14:07	-136.604	49.578	0	140.00	0	6.3490	0	33.4730	0	26.304	0	138.758	0	157.6	4	52.3	4	-1E+10	1	-1E+10	1	-1E+10	1	-1E+10	1	-1E+10	1	-1E+10	1
4902554	13	C	06/10/2021	14:07	-136.604	49.578	0	141.20	0	6.3450	0	33.4970	0	26.323	0	139.947	0	155.7	4	51.7	4	-1E+10	1	-1E+10	1	-1E+10	1	-1E+10	1	-1E+10	1	-1E+10	1
4902554	13	C	06/10/2021	14:07	-136.604	49.578	0	142.00	0	6.3400	8	33.5130	8	26.336	0	140.740	0	154.5	4	51.3	4	-1E+10	1	-1E+10	1	-1E+10	1	-1E+10	1	-1E+10	1	-1E+10	1
4902554	13	C	06/10/2021	14:07	-136.604	49.578	0	142.80	0	6.3250	0	33.5270	0	26.349	0	141.532	0	153.4	4	50.9	4	-1E+10	1	-1E+10	1	-1E+10	1	-1E+10	1	-1E+10	1	-1E+10	1
4902554	13	C	06/10/2021	14:07	-136.604	49.578	0	143.60	0	6.3140	0	33.5330	0	26.356	0	142.325	0	152.4	4	50.6	4	-1E+10	1	-1E+10	1	-1E+10	1	-1E+10	1	-1E+10	1	-1E+10	1
4902554	13	C	06/10/2021	14:07	-136.604	49.578	0	144.90	0	6.3110	0	33.5570	0	26.375	0	143.613	0	150.6	4	50.0	4	-1E+10	1	-1E+10	1	-1E+10	1	-1E+10	1	-1E+10	1	-1E+10	1
4902554	13	C	06/10/2021	14:07	-136.604	49.578	0	146.10	0	6.3170	0	33.5610	0	26.377	0	144.802	0	148.5	4	49.3	4	-1E+10	1	-1E+10	1	-1E+10	1	-1E+10	1	-1E+10	1	-1E+10	1
4902554	13	C	06/10/2021	14:07	-136.604	49.578	0	146.90	0	6.3030	0	33.5710	0	26.387	0	145.594	0	147.1	4	48.8	4	-1E+10	1	-1E+10	1	-1E+10	1	-1E+10	1	-1E+10	1	-1E+10	1
4902554	13	C	06/10/2021	14:07	-136.604	49.578	0	147.80	0	6.2780	0	33.5860	0	26.402	0	146.486	0	145.9	4	48.4	4	-1E+10	1	-1E+10	1	-1E+10	1	-1E+10	1	-1E+10	1	-1E+10	1
4902554	13	C	06/10/2021	14:07	-136.604	49.578	0	148.60	0	6.2390	0	33.6120	0	26.428	0	147.279	0	144.9	4	48.0	4	-1E+10	1	-1E+10	1	-1E+10	1	-1E+10	1	-1E+10	1	-1E+10	1
4902554	13	C	06/10/2021	14:07	-136.604	49.578	0	149.90	0	6.2270	0	33.6180	0	26.434	0	148.567	0	143.7	4	47.6	4	-1E+10	1	-1E+10	1	-1E+10	1	-1E+10	1	-1E+10	1	-1E+10	1
4902554	13	C	06/10/2021	14:07	-136.604	49.578	0	151.20	0	6.2160	0	33.6240	0	26.440	0	149.855	0	142.4	4	47.2	4	-1E+10	1	-1E+10	1	-1E+10	1	-1E+10	1	-1E+10	1	-1E+10	1
4902554	13	C	06/10/2021	14:07	-136.604	49.578	0	152.00	0	6.2120	0	33.6260	0	26.442	0	150.647	0	141.6	4	46.9	4	-1E+10	1	-1E+10	1	-1E+10	1	-1E+10	1	-1E+10	1	-1E+10	1
4902554	13	C	06/10/2021	14:07	-136.604	49.578	0	152.90	0	6.2100	0	33.6270	0	26.443	0	151.539	0	140.5	4	46.6	4	-1E+10	1	-1E+10	1	-1E+10	1	-1E+10	1	-1E+10	1	-1E+10	1
4902554	13	C	06/10/2021	14:07	-136.604	49.578	0	153.70	0	6.2040	0	33.6300	0	26.446	0	152.331	0	139.5	4	46.2	4	-1E+10	1	-1E+10	1	-1E+10	1	-1E+10	1	-1E+10	1	-1E+10	1
4902554	13	C	06/10/2021	14:07	-136.604	49.578	0	154.60	0	6.1900	0	33.6370	0	26.454	0	153.223	0	138.5	4	45.9	4	-1E+10	1	-1E+10	1	-1E+10	1	-1E+10	1	-1E+10	1	-1E+10	1
4902554	13	C	06/10/2021	14:07	-136.604	49.578	0	155.90	0	6.1740	0	33.6470	0	26.464	0	154.511	0	136.9	4	45.3	4	-1E+10	1	-1E+10	1	-1E+10	1	-1E+10	1	-1E+10	1	-1E+10	1
4902554	13	C	06/10/2021	14:07	-136.604	49.578	0	157.30	0	6.1380	0	33.6660	0	26.483	0	155.898	0	135.3	4	44.8	4	-1E+10	1	-1E+10	1	-1E+10	1	-1E+10	1	-1E+10	1	-1E+10	1
4902554	13	C	06/10/2021	14:07	-136.604	49.578	0	158.20	0	6.1140	0	33.6770	0	26.495	0	156.790	0	134.4	4	44.5	4	-1E+10	1	-1E+10	1	-1E+10	1	-1E+10	1	-1E+10	1	-1E+10	1
4902554	13	C	06/10/2021	14:07	-136.604	49.578	0	159.10	0	6.1200	0	33.6830	0	26.499	0	157.681	0	133.7	4	44.2	4	-1E+10	1	-1E+10	1	-1E+10	1	-1E+10	1	-1E+10	1	-1E+10	1
4902554	13	C	06/10/2021	14:07	-136.604	49.578	0	160.00	0	6.1260	0	33.6920	0	26.505	0	158.573	0	133.3	4	44.1	4	-1E+10	1	-1E+10	1	-1E+10	1	-1E+10	1	-1E+10	1	-1E+10	1
4902554	13	C	06/10/2021	14:07	-136.604	49.578	0	161.00	0	6.1240	0	33.6940	0	26.507	0	159.564	0	133.2	4	44.0	4	-1E+10	1	-1E+10	1	-1E+10	1	-1E+10	1	-1E+10	1	-1E+10	1
4902554	13	C	06/10/2021	14:07	-136.604	49.578	0	161.90	0	6.1170	0	33.6990	0	26.512	0	160.455	0	133.0	4	44.0	4	-1E+10	1	-1E+10	1	-1E+10	1	-1E+10	1	-1E+10	1	-1E+10	1
4902554	13	C	06/10/2021	14:07	-136.604	49.578	0	162.80	0	6.0890	0	33.7040	0	26.519	0	161.347	0	132.8	4	43.9	4	-1E+10	1	-1E+10	1	-1E+10	1	-1E+10	1	-1E+10	1	-1E+10	1
4902554	13	C	06/10/2021	14:07	-136.604	49.578	0	163.80	0	6.0720	0	33.7100	0	26.526	0	162.338	0	132.5	4	43.8	4	-1E+10	1	-1E+10	1	-1E+10	1	-1E+10	1	-1E+10	1	-1E+10	1
4902554	13	C	06/10/2021	14:07	-136.604	49.578	0	164.70	0	6.0540	0	33.7130	0	26.531	0	163.229	0	132.2	4	43.7	4	-1E+10	1	-1E+10	1	-1E+10	1	-1E+10	1	-1E+10	1	-1E+10	1
4902554	13	C	06/10/2021	14:07	-136.604	49.578	0	165.70	0	6.0460	0	33.7140	0	26.533	0	164.220	0	131.9	4	43.5	4	-1E+10	1	-1E+10	1	-1E+10	1	-1E+10	1	-1E+10	1	-1E+10	1
4902554	13	C	06/10/2021	14:07	-136.604	49.578	0	166.60	0	6.0430	0	33.7150	0	26.534	0	165.111	0	131.5	4	43.4	4	-1E+10	1	-1E+10	1	-1E+10	1	-1E+10	1	-1E+10	1	-1E+10	1
4902554	13	C	06/10/2021	14:07	-136.604	49.578	0	167.60	0	6.0400	0	33.7160	0	26.535	0	166.102	0	131.1	4	43.3	4	-1E+10	1	-1E+10	1	-1E+10	1	-1E+10	1	-1E+10	1	-1E+10	1
4902554	13	C	06/10/2021	14:07	-136.604	49.578	0	168.50	0	6.0330	0	33.7160	0	26.536	0	166.994	0	130.8	4	43.2	4	-1E+10	1	-1E+10	1	-1E+10	1	-1E+10	1	-1E+10	1	-1E+10	1
4902554	13	C	06/10/2021	14:07	-136.604	49.578	0	169.50	0	6.0170	0	33.7220	0	26.543	0	167.984	0	130.3	4	43.0	4	-1E+10	1	-1E+10	1	-1E+10	1	-1E+10	1	-1E+10	1	-1E+10	1
4902554	13	C	06/10/2021	14:07	-136.604	49.578	0	170.90	0	5.9920	0	33.7240	0	26.547	0	169.371	0	129.6	4	42.8	4	-1E+10	1	-1E+10	1	-1E+10	1	-1E+10	1	-1E+10	1	-1E+10	1
4902554	13	C	06/10/2021	14:07	-136.604	49.578	0	172.40	0	5.9660	0	33.7310	0	26.556	0	170.857	0	128.9	4	42.5	4	-1E+10	1	-1E+10	1	-1E+10	1	-1E+10	1	-1E+10	1	-1E+10	1
4902554	13	C	06/10/2021	14:07	-136.604	49.578	0	173.30	0	5.9540	0	33.7340	0	26.560	0	171.749	0	128.4	4	42.3	4	-1E+10	1	-1E+10	1	-1E+10	1	-1E+10	1	-1E+10	1	-1E+10	1
4902554	13	C	06/10/2021	14:07	-136.604	49.578	0	174.30	0	5.9480	0	33.7350	0	26.562	0	172.739	0	127.9	4	42.2	4	-1E+10	1	-1E+10	1	-1E+10	1	-1E+10	1	-1E+10	1	-1E+10	1
4902554	13	C	06/10/2021	14:07	-136.604	49.578	0	175.30	0	5.9400	0	33.7380	0	26.565	0	173.730	0	127.5	4	42.0	4	-1E+10	1	-1E+10	1	-1E+10	1	-1E+10	1	-1E+10	1	-1E+10	1
4902554	13	C	06/10/2021	14:07	-136.604	49.578	0	176.20	0	5.9260	0	33.7420	0	26.570	0	174.622	0	127.1	4	41.9	4	-1E+10	1	-1E+10	1	-1E+10	1	-1E+10	1	-1E+10	1	-1E+10	1
4902554	13	C	06/10/2021	14:07	-136.604	49.578	0	177.20	0	5.9110	0	33.7420	0	26.572	0	175.612	0	126.5	4	41.7	4	-1E+10	1	-1E+10	1	-1E+10	1	-1E+10	1	-1E+10	1	-1E+10	1
4902554	13	C	06/10/2021	14:07	-136.604	49.578	0	178.10	0	5.8760	0	33.7480	0	26.581	0	176.504	0	125.9	4	41.4	4	-1E+10	1	-1E+10	1	-1E+10	1	-1E+10	1	-1E+10	1	-1E+10	1
4902554	13	C	06/10/2021	14:07	-136.604	49.578	0	179.10	0	5.8600	0	33.7490	0	26.584	0	177.494	0	125.3	4	41.2	4	-1E+10	1	-1E+10	1	-1E+10	1	-1E+10	1	-1E+10	1	-1E+10	1
4902554	13	C	06/10/2021	14:07	-136.604	49.578	0	180.00	0	5.8590	0	33.7500	0	26.584	0	178.386	0	124.7	4	41.0	4	-1E+10	1	-1E+10	1	-1E+10	1	-1E+10	1	-1E+10	1	-1E+10	1
4902554	13	C	06/10/2021	14:07	-136.604	49.578	0	181.00	0	5.8570	0	33.7520	0	26.586	0	179.377	0	124.1	4	40.8	4	-1E+10	1	-1E+10	1	-1E+10	1	-1E+10	1	-1E+10	1	-1E+10	1
4902554	13	C	06/10/2021	14:07	-136.604	49.578	0	181.90	0	5.8500	0	33.7530	0	26.588	0	180.268	0	123.5	4	40.6	4	-1E+10	1	-1E+10	1	-1E+10	1	-1E+10	1	-1E+10	1	-1E+10	1
4902554	13	C	06/10/2021	14:07	-136.604	49.578	0	182.80	0	5.8400	0	33.7540	0	26.590	0	181.160	0	122.8	4	40.4	4	-1E+10	1	-1E+10	1	-1E+10	1	-1E+10	1	-1E+10	1	-1E+10	1
4902554	13	C	06/10/2021	14:07	-136.604	49.578	0	183.80	0	5.8350	0	33.7560	0	26.592	0	182.150	0	122.3	4	40.2	4	-1E+10	1	-1E+10	1	-1E+10	1	-1E+10	1	-1E+10	1	-1E+10	1
4902554	13	C	06/10/2021	14:07	-136.604	49.578	0	184.80	0	5.8260	0	33.7600	0	26.596	0	183.141	0	121.7	4	40.0	4	-1E+10	1	-1E+10	1	-1E+10	1	-1E+10	1	-1E+10	1	-1E+10	1
4902554	13	C	06/10/2021	14:07	-136.604	49.578	0	185.70	0	5.8100	0	33.7610	0	26.599	0	184.032	0	121.2	4	39.8	4	-1E+10	1	-1E+10	1	-1E+10	1	-1E+10	1	-1E+10	1	-1E+10	1
4902554	13	C	06/10/2021	14:07	-136.604	49.578	0	186.60	0	5.7950	0	33.7620	0	26.602	0	184.924	0	120.6	4	39.6	4	-1E+10	1	-1E+10	1	-1E+10	1	-1E+10	1	-1E+10	1	-1E+10	1
4902554	13	C	06/10/2021	14:07	-136.604	49.578	0	187.60	0	5.7860	0	33.7640	0	26.605	0	185.914	0	120.1	4	39.4	4	-1E+10	1	-1E+10	1	-1E+10	1	-1E+10	1	-1E+10	1	-1E+10	1
4902554	13	C	06/10/2021	14:07	-136.604	49.578	0	188.50	0	5.7730	0	33.7660	0	26.608	0	186.806	0	119.5	4	39.2	4	-1E+10	1	-1E+10	1	-1E+10	1	-1E+10	1	-1E+10	1	-1E+10	1
4902554	13	C	06/10/2021	14:07	-136.604	49.578	0	189.90	0	5.7460	0	33.7710	0	26.615	0	188.193	0	118.6	4	38.9	4	-1E+10	1	-1E+10	1	-1E+10	1	-1E+10	1	-1E+10	1	-1E+10	1
4902554	13	C	06/10/2021	14:07	-136.604	49.578	0	191.40	0	5.7200	0	33.7750	0	26.621	0	189.679	0	117.8	4	38.6	4	-1E+10	1	-1E+10	1	-1E+10	1	-1E+10	1	-1E+10	1	-1E+10	1
4902554	13	C	06/10/2021	14:07	-136.604	49.578	0	192.40	0	5.7140	0	33.7770	0	26.624	0	190.669	0	117.2	4	38.4	4	-1E+10	1	-1E+10	1	-1E+10	1	-1E+10	1	-1E+10	1	-1E+10	1
4902554	13	C	06/10/2021	14:07	-136.604	49.578	0	193.30	0	5.7130	0	33.7760	0	26.623	0	191.561	0	116.5	4	38.2	4	-1E+10	1	-1E+10	1	-1E+10	1	-1E+10	1	-1E+10	1	-1E+10	1
4902554	13	C	06/10/2021	14:07	-136.604	49.578	0	194.30	0	5.6970	0	33.7800	0	26.628	0	192.551	0	115.9	4	38.0	4	-1E+10	1	-1E+10	1	-1E+10	1	-1E+10	1	-1E+10	1	-1E+10	1
4902554	13	C	06/10/2021	14:07	-136.604	49.578	0	195.20	0	5.6820	0	33.7810	0	26.631	0	193.443	0	115.2	4	37.8	4	-1E+10	1	-1E+10	1	-1E+10	1	-1E+10	1	-1E+10	1	-1E+10	1
4902554	13	C	06/10/2021	14:07	-136.604	49.578	0	196.20	0	5.6720	0	33.7820	0	26.633	0	194.433	0	114.6	4	37.5	4	-1E+10	1	-1E+10	1	-1E+10	1	-1E+10	1	-1E+10	1	-1E+10	1
4902554	13	C	06/10/2021	14:07	-136.604	49.578	0	197.20	0	5.6690	0	33.7830	0	26.634	0	195.424	0	114.0	4	37.3	4	-1E+10	1	-1E+10	1	-1E+10	1	-1E+10	1	-1E+10	1	-1E+10	1
4902554	13	C	06/10/2021	14:07	-136.604	49.578	0	198.20	0	5.6590	0	33.7840	0	26.636	0	196.414	0	113.4	4	37.1	4	-1E+10	1	-1E+10	1	-1E+10	1	-1E+10	1	-1E+10	1	-1E+10	1
4902554	13	C	06/10/2021	14:07	-136.604	49.578	0	199.20	0	5.6310	0	33.7890	0	26.643	0	197.405	0	112.8	4	36.9	4	-1E+10	1	-1E+10	1	-1E+10	1	-1E+10	1	-1E+10	1	-1E+10	1
4902554	13	C	06/10/2021	14:07	-136.604	49.578	0	200.10	0	5.6250	0	33.7900	0	26.645	0	198.296	0	112.2	4	36.7	4	-1E+10	1	-1E+10	1	-1E+10	1	-1E+10	1	-1E+10	1	-1E+10	1
4902554	13	C	06/10/2021	14:07	-136.604	49.578	0	201.20	0	5.6180	0	33.7910	0	26.646	0	199.386	0	111.7	4	36.5	4	-1E+10	1	-1E+10	1	-1E+10	1	-1E+10	1	-1E+10	1	-1E+10	1
4902554	13	C	06/10/2021	14:07	-136.604	49.578	0	202.10	0	5.6130	0	33.7910	0	26.647	0	200.277	0	111.1	4	36.3	4	-1E+10	1	-1E+10	1	-1E+10	1	-1E+10	1	-1E+10	1	-1E+10	1
4902554	13	C	06/10/2021	14:07	-136.604	49.578	0	203.10	0	5.5960	0	33.7940	0	26.651	0	201.268	0	110.5	4	36.1	4	-1E+10	1	-1E+10	1	-1E+10	1	-1E+10	1	-1E+10	1	-1E+10	1
4902554	13	C	06/10/2021	14:07	-136.604	49.578	0	204.10	0	5.5820	0	33.7950	0	26.654	0	202.258	0	109.9	4	35.9	4	-1E+10	1	-1E+10	1	-1E+10	1	-1E+10	1	-1E+10	1	-1E+10	1
4902554	13	C	06/10/2021	14:07	-136.604	49.578	0	205.10	0	5.5560	0	33.7970	0	26.659	0	203.249	0	109.2	4	35.7	4	-1E+10	1	-1E+10	1	-1E+10	1	-1E+10	1	-1E+10	1	-1E+10	1
4902554	13	C	06/10/2021	14:07	-136.604	49.578	0	206.10	0	5.5390	0	33.8000	0	26.663	0	204.239	0	108.6	4	35.5	4	-1E+10	1	-1E+10	1	-1E+10	1	-1E+10	1	-1E+10	1	-1E+10	1
4902554	13	C	06/10/2021	14:07	-136.604	49.578	0	207.10	0	5.5330	0	33.8020	0	26.665	0	205.230	0	108.1	4	35.3	4	-1E+10	1	-1E+10	1	-1E+10	1	-1E+10	1	-1E+10	1	-1E+10	1
4902554	13	C	06/10/2021	14:07	-136.604	49.578	0	208.10	0	5.5270	0	33.8030	0	26.667	0	206.220	0	107.6	4	35.1	4	-1E+10	1	-1E+10	1	-1E+10	1	-1E+10	1	-1E+10	1	-1E+10	1
4902554	13	C	06/10/2021	14:07	-136.604	49.578	0	209.20	0	5.5230	0	33.8030	0	26.667	0	207.310	0	107.2	4	35.0	4	-1E+10	1	-1E+10	1	-1E+10	1	-1E+10	1	-1E+10	1	-1E+10	1
4902554	13	C	06/10/2021	14:07	-136.604	49.578	0	210.20	0	5.5190	0	33.8030	0	26.668	0	208.300	0	106.6	4	34.8	4	-1E+10	1	-1E+10	1	-1E+10	1	-1E+10	1	-1E+10	1	-1E+10	1
4902554	13	C	06/10/2021	14:07	-136.604	49.578	0	211.20	0	5.5010	0	33.8060	0	26.672	0	209.290	0	106.1	4	34.6	4	-1E+10	1	-1E+10	1	-1E+10	1	-1E+10	1	-1E+10	1	-1E+10	1
4902554	13	C	06/10/2021	14:07	-136.604	49.578	0	212.20	0	5.4980	0	33.8060	0	26.673	0	210.281	0	105.5	4	34.4	4	-1E+10	1	-1E+10	1	-1E+10	1	-1E+10	1	-1E+10	1	-1E+10	1
4902554	13	C	06/10/2021	14:07	-136.604	49.578	0	213.20	0	5.4950	0	33.8060	0	26.673	0	211.271	0	104.9	4	34.2	4	-1E+10	1	-1E+10	1	-1E+10	1	-1E+10	1	-1E+10	1	-1E+10	1
4902554	13	C	06/10/2021	14:07	-136.604	49.578	0	214.20	0	5.4880	0	33.8070	0	26.675	0	212.262	0	104.2	4	34.0	4	-1E+10	1	-1E+10	1	-1E+10	1	-1E+10	1	-1E+10	1	-1E+10	1
4902554	13	C	06/10/2021	14:07	-136.604	49.578	0	215.20	0	5.4770	0	33.8080	0	26.677	0	213.252	0	103.5	4	33.7	4	-1E+10	1	-1E+10	1	-1E+10	1	-1E+10	1	-1E+10	1	-1E+10	1
4902554	13	C	06/10/2021	14:07	-136.604	49.578	0	216.20	0	5.4650	0	33.8080	0	26.678	0	214.243	0	102.6	4	33.4	4	-1E+10	1	-1E+10	1	-1E+10	1	-1E+10	1	-1E+10	1	-1E+10	1
4902554	13	C	06/10/2021	14:07	-136.604	49.578	0	217.20	0	5.4540	0	33.8090	0	26.680	0	215.233	0	101.8	4	33.2	4	-1E+10	1	-1E+10	1	-1E+10	1	-1E+10	1	-1E+10	1	-1E+10	1
4902554	13	C	06/10/2021	14:07	-136.604	49.578	0	218.20	0	5.4360	0	33.8100	0	26.683	0	216.223	0	100.8	4	32.8	4	-1E+10	1	-1E+10	1	-1E+10	1	-1E+10	1	-1E+10	1	-1E+10	1
4902554	13	C	06/10/2021	14:07	-136.604	49.578	0	219.20	0	5.4300	0	33.8100	0	26.684	0	217.214	0	99.6	4	32.5	4	-1E+10	1	-1E+10	1	-1E+10	1	-1E+10	1	-1E+10	1	-1E+10	1
4902554	13	C	06/10/2021	14:07	-136.604	49.578	0	220.20	0	5.4200	0	33.8130	0	26.688	0	218.204	0	98.4	4	32.0	4	-1E+10	1	-1E+10	1	-1E+10	1	-1E+10	1	-1E+10	1	-1E+10	1
4902554	13	C	06/10/2021	14:07	-136.604	49.578	0	221.20	0	5.4110	0	33.8120	0	26.688	0	219.195	0	97.1	4	31.6	4	-1E+10	1	-1E+10	1	-1E+10	1	-1E+10	1	-1E+10	1	-1E+10	1
4902554	13	C	06/10/2021	14:07	-136.604	49.578	0	222.20	0	5.3930	0	33.8150	0	26.692	0	220.185	0	95.7	4	31.2	4	-1E+10	1	-1E+10	1	-1E+10	1	-1E+10	1	-1E+10	1	-1E+10	1
4902554	13	C	06/10/2021	14:07	-136.604	49.578	0	223.20	0	5.3910	0	33.8170	0	26.694	0	221.176	0	94.3	4	30.7	4	-1E+10	1	-1E+10	1	-1E+10	1	-1E+10	1	-1E+10	1	-1E+10	1
4902554	13	C	06/10/2021	14:07	-136.604	49.578	0	224.20	0	5.3900	0	33.8210	0	26.698	0	222.166	0	92.9	4	30.2	4	-1E+10	1	-1E+10	1	-1E+10	1	-1E+10	1	-1E+10	1	-1E+10	1
4902554	13	C	06/10/2021	14:07	-136.604	49.578	0	225.20	0	5.4100	0	33.8270	0	26.700	0	223.156	0	91.5	4	29.8	4	-1E+10	1	-1E+10	1	-1E+10	1	-1E+10	1	-1E+10	1	-1E+10	1
4902554	13	C	06/10/2021	14:07	-136.604	49.578	0	226.30	0	5.4340	0	33.8350	0	26.703	0	224.246	0	90.0	4	29.3	4	-1E+10	1	-1E+10	1	-1E+10	1	-1E+10	1	-1E+10	1	-1E+10	1
4902554	13	C	06/10/2021	14:07	-136.604	49.578	0	227.30	0	5.4570	0	33.8280	0	26.695	0	225.236	0	88.5	4	28.9	4	-1E+10	1	-1E+10	1	-1E+10	1	-1E+10	1	-1E+10	1	-1E+10	1
4902554	13	C	06/10/2021	14:07	-136.604	49.578	0	228.30	0	5.4900	0	33.8440	0	26.704	0	226.226	0	87.3	4	28.5	4	-1E+10	1	-1E+10	1	-1E+10	1	-1E+10	1	-1E+10	1	-1E+10	1
4902554	13	C	06/10/2021	14:07	-136.604	49.578	0	229.30	0	5.5660	0	33.8640	0	26.711	0	227.217	0	86.8	4	28.4	4	-1E+10	1	-1E+10	1	-1E+10	1	-1E+10	1	-1E+10	1	-1E+10	1
4902554	13	C	06/10/2021	14:07	-136.604	49.578	0	230.30	0	5.5970	0	33.8700	0	26.712	0	228.207	0	86.4	4	28.3	4	-1E+10	1	-1E+10	1	-1E+10	1	-1E+10	1	-1E+10	1	-1E+10	1
4902554	13	C	06/10/2021	14:07	-136.604	49.578	0	231.30	0	5.5900	0	33.8730	0	26.715	0	229.198	0	86.3	4	28.2	4	-1E+10	1	-1E+10	1	-1E+10	1	-1E+10	1	-1E+10	1	-1E+10	1
4902554	13	C	06/10/2021	14:07	-136.604	49.578	0	232.30	0	5.5620	0	33.8730	0	26.718	0	230.188	0	85.9	4	28.1	4	-1E+10	1	-1E+10	1	-1E+10	1	-1E+10	1	-1E+10	1	-1E+10	1
4902554	13	C	06/10/2021	14:07	-136.604	49.578	0	233.30	0	5.5490	0	33.8680	0	26.716	0	231.178	0	85.6	4	28.0	4	-1E+10	1	-1E+10	1	-1E+10	1	-1E+10	1	-1E+10	1	-1E+10	1
4902554	13	C	06/10/2021	14:07	-136.604	49.578	0	234.30	0	5.5420	0	33.8670	0	26.716	0	232.169	0	85.1	4	27.8	4	-1E+10	1	-1E+10	1	-1E+10	1	-1E+10	1	-1E+10	1	-1E+10	1
4902554	13	C	06/10/2021	14:07	-136.604	49.578	0	235.30	0	5.5380	0	33.8680	0	26.717	0	233.159	0	84.6	4	27.6	4	-1E+10	1	-1E+10	1	-1E+10	1	-1E+10	1	-1E+10	1	-1E+10	1
4902554	13	C	06/10/2021	14:07	-136.604	49.578	0	236.30	0	5.5310	0	33.8690	0	26.719	0	234.149	0	84.1	4	27.5	4	-1E+10	1	-1E+10	1	-1E+10	1	-1E+10	1	-1E+10	1	-1E+10	1
4902554	13	C	06/10/2021	14:07	-136.604	49.578	0	237.30	0	5.5310	0	33.8720	0	26.721	0	235.140	0	83.6	4	27.3	4	-1E+10	1	-1E+10	1	-1E+10	1	-1E+10	1	-1E+10	1	-1E+10	1
4902554	13	C	06/10/2021	14:07	-136.604	49.578	0	238.40	0	5.5310	0	33.8710	0	26.721	0	236.229	0	83.2	4	27.2	4	-1E+10	1	-1E+10	1	-1E+10	1	-1E+10	1	-1E+10	1	-1E+10	1
4902554	13	C	06/10/2021	14:07	-136.604	49.578	0	239.40	0	5.5490	0	33.8750	0	26.722	0	237.219	0	82.9	4	27.1	4	-1E+10	1	-1E+10	1	-1E+10	1	-1E+10	1	-1E+10	1	-1E+10	1
4902554	13	C	06/10/2021	14:07	-136.604	49.578	0	240.40	0	5.5270	0	33.8750	0	26.724	0	238.210	0	82.6	4	27.0	4	-1E+10	1	-1E+10	1	-1E+10	1	-1E+10	1	-1E+10	1	-1E+10	1
4902554	13	C	06/10/2021	14:07	-136.604	49.578	0	241.40	0	5.5030	0	33.8740	0	26.726	0	239.200	0	82.1	4	26.8	4	-1E+10	1	-1E+10	1	-1E+10	1	-1E+10	1	-1E+10	1	-1E+10	1
4902554	13	C	06/10/2021	14:07	-136.604	49.578	0	242.40	0	5.3730	0	33.8670	0	26.736	0	240.190	0	81.3	4	26.4	4	-1E+10	1	-1E+10	1	-1E+10	1	-1E+10	1	-1E+10	1	-1E+10	1
4902554	13	C	06/10/2021	14:07	-136.604	49.578	0	243.40	0	5.3490	0	33.8590	0	26.733	0	241.181	0	80.2	4	26.1	4	-1E+10	1	-1E+10	1	-1E+10	1	-1E+10	1	-1E+10	1	-1E+10	1
4902554	13	C	06/10/2021	14:07	-136.604	49.578	0	244.50	0	5.3270	0	33.8620	0	26.738	0	242.270	0	79.2	4	25.7	4	-1E+10	1	-1E+10	1	-1E+10	1	-1E+10	1	-1E+10	1	-1E+10	1
4902554	13	C	06/10/2021	14:07	-136.604	49.578	0	245.50	0	5.3220	0	33.8590	0	26.736	0	243.260	0	78.2	4	25.4	4	-1E+10	1	-1E+10	1	-1E+10	1	-1E+10	1	-1E+10	1	-1E+10	1
4902554	13	C	06/10/2021	14:07	-136.604	49.578	0	246.50	0	5.3460	0	33.8700	0	26.742	0	244.250	0	77.4	4	25.2	4	-1E+10	1	-1E+10	1	-1E+10	1	-1E+10	1	-1E+10	1	-1E+10	1
4902554	13	C	06/10/2021	14:07	-136.604	49.578	0	247.50	0	5.4170	0	33.8860	0	26.746	0	245.241	0	77.0	4	25.1	4	-1E+10	1	-1E+10	1	-1E+10	1	-1E+10	1	-1E+10	1	-1E+10	1
4902554	13	C	06/10/2021	14:07	-136.604	49.578	0	248.50	0	5.4150	0	33.8880	0	26.748	0	246.231	0	76.7	4	25.0	4	-1E+10	1	-1E+10	1	-1E+10	1	-1E+10	1	-1E+10	1	-1E+10	1
4902554	13	C	06/10/2021	14:07	-136.604	49.578	0	249.60	0	5.4080	0	33.8890	0	26.750	0	247.320	0	76.4	4	24.9	4	-1E+10	1	-1E+10	1	-1E+10	1	-1E+10	1	-1E+10	1	-1E+10	1
4902554	13	C	06/10/2021	14:07	-136.604	49.578	0	250.60	0	5.4040	0	33.8890	0	26.750	0	248.311	0	76.1	4	24.8	4	-1E+10	1	-1E+10	1	-1E+10	1	-1E+10	1	-1E+10	1	-1E+10	1
4902554	13	C	06/10/2021	14:07	-136.604	49.578	0	251.70	0	5.4000	0	33.8880	0	26.750	0	249.400	0	75.8	4	24.7	4	-1E+10	1	-1E+10	1	-1E+10	1	-1E+10	1	-1E+10	1	-1E+10	1
4902554	13	C	06/10/2021	14:07	-136.604	49.578	0	252.70	0	5.3850	0	33.8890	0	26.752	0	250.390	0	75.4	4	24.5	4	-1E+10	1	-1E+10	1	-1E+10	1	-1E+10	1	-1E+10	1	-1E+10	1
4902554	13	C	06/10/2021	14:07	-136.604	49.578	0	253.70	0	5.3820	0	33.8880	0	26.752	0	251.380	0	75.0	4	24.4	4	-1E+10	1	-1E+10	1	-1E+10	1	-1E+10	1	-1E+10	1	-1E+10	1
4902554	13	C	06/10/2021	14:07	-136.604	49.578	0	254.80	0	5.3680	0	33.8900	0	26.755	0	252.470	0	74.6	4	24.3	4	-1E+10	1	-1E+10	1	-1E+10	1	-1E+10	1	-1E+10	1	-1E+10	1
4902554	13	C	06/10/2021	14:07	-136.604	49.578	0	255.80	0	5.3460	0	33.8890	0	26.757	0	253.460	0	74.1	4	24.1	4	-1E+10	1	-1E+10	1	-1E+10	1	-1E+10	1	-1E+10	1	-1E+10	1
4902554	13	C	06/10/2021	14:07	-136.604	49.578	0	256.80	0	5.3230	0	33.8910	0	26.761	0	254.450	0	73.7	4	24.0	4	-1E+10	1	-1E+10	1	-1E+10	1	-1E+10	1	-1E+10	1	-1E+10	1
4902554	13	C	06/10/2021	14:07	-136.604	49.578	0	257.80	0	5.3200	0	33.8920	0	26.762	0	255.440	0	73.4	4	23.9	4	-1E+10	1	-1E+10	1	-1E+10	1	-1E+10	1	-1E+10	1	-1E+10	1
4902554	13	C	06/10/2021	14:07	-136.604	49.578	0	258.90	0	5.3170	0	33.8930	0	26.763	0	256.530	0	73.0	4	23.7	4	-1E+10	1	-1E+10	1	-1E+10	1	-1E+10	1	-1E+10	1	-1E+10	1
4902554	13	C	06/10/2021	14:07	-136.604	49.578	0	260.00	0	5.3000	0	33.8930	0	26.765	0	257.619	0	72.6	4	23.6	4	-1E+10	1	-1E+10	1	-1E+10	1	-1E+10	1	-1E+10	1	-1E+10	1
4902554	13	C	06/10/2021	14:07	-136.604	49.578	0	261.20	0	5.2680	0	33.8920	0	26.768	0	258.807	0	72.1	4	23.4	4	-1E+10	1	-1E+10	1	-1E+10	1	-1E+10	1	-1E+10	1	-1E+10	1
4902554	13	C	06/10/2021	14:07	-136.604	49.578	0	262.00	0	5.2550	0	33.8920	0	26.770	0	259.599	0	71.7	4	23.3	4	-1E+10	1	-1E+10	1	-1E+10	1	-1E+10	1	-1E+10	1	-1E+10	1
4902554	13	C	06/10/2021	14:07	-136.604	49.578	0	262.80	0	5.2420	0	33.8920	0	26.771	0	260.391	0	71.3	4	23.1	4	-1E+10	1	-1E+10	1	-1E+10	1	-1E+10	1	-1E+10	1	-1E+10	1
4902554	13	C	06/10/2021	14:07	-136.604	49.578	0	263.90	0	5.2360	0	33.8930	0	26.773	0	261.481	0	70.8	4	23.0	4	-1E+10	1	-1E+10	1	-1E+10	1	-1E+10	1	-1E+10	1	-1E+10	1
4902554	13	C	06/10/2021	14:07	-136.604	49.578	0	265.10	0	5.2210	0	33.8950	0	26.776	0	262.669	0	70.2	4	22.8	4	-1E+10	1	-1E+10	1	-1E+10	1	-1E+10	1	-1E+10	1	-1E+10	1
4902554	13	C	06/10/2021	14:07	-136.604	49.578	0	265.90	0	5.2050	0	33.8950	0	26.778	0	263.461	0	69.8	4	22.6	4	-1E+10	1	-1E+10	1	-1E+10	1	-1E+10	1	-1E+10	1	-1E+10	1
4902554	13	C	06/10/2021	14:07	-136.604	49.578	0	266.70	0	5.1960	0	33.8940	0	26.778	0	264.253	0	69.4	4	22.5	4	-1E+10	1	-1E+10	1	-1E+10	1	-1E+10	1	-1E+10	1	-1E+10	1
4902554	13	C	06/10/2021	14:07	-136.604	49.578	0	267.90	0	5.1890	0	33.8950	0	26.780	0	265.441	0	68.7	4	22.3	4	-1E+10	1	-1E+10	1	-1E+10	1	-1E+10	1	-1E+10	1	-1E+10	1
4902554	13	C	06/10/2021	14:07	-136.604	49.578	0	269.10	0	5.1910	0	33.8930	0	26.778	0	266.630	0	68.0	4	22.0	4	-1E+10	1	-1E+10	1	-1E+10	1	-1E+10	1	-1E+10	1	-1E+10	1
4902554	13	C	06/10/2021	14:07	-136.604	49.578	0	269.90	0	5.1940	0	33.9000	0	26.783	0	267.422	0	67.5	4	21.9	4	-1E+10	1	-1E+10	1	-1E+10	1	-1E+10	1	-1E+10	1	-1E+10	1
4902554	13	C	06/10/2021	14:07	-136.604	49.578	0	270.70	0	5.2430	0	33.9090	0	26.785	0	268.214	0	67.3	4	21.8	4	-1E+10	1	-1E+10	1	-1E+10	1	-1E+10	1	-1E+10	1	-1E+10	1
4902554	13	C	06/10/2021	14:07	-136.604	49.578	0	271.90	0	5.2350	0	33.9080	0	26.785	0	269.402	0	66.9	4	21.7	4	-1E+10	1	-1E+10	1	-1E+10	1	-1E+10	1	-1E+10	1	-1E+10	1
4902554	13	C	06/10/2021	14:07	-136.604	49.578	0	273.10	0	5.2180	0	33.9060	0	26.785	0	270.590	0	66.4	4	21.5	4	-1E+10	1	-1E+10	1	-1E+10	1	-1E+10	1	-1E+10	1	-1E+10	1
4902554	13	C	06/10/2021	14:07	-136.604	49.578	0	273.90	0	5.2240	0	33.9090	0	26.787	0	271.382	0	66.1	4	21.4	4	-1E+10	1	-1E+10	1	-1E+10	1	-1E+10	1	-1E+10	1	-1E+10	1
4902554	13	C	06/10/2021	14:07	-136.604	49.578	0	274.80	0	5.2100	0	33.9090	0	26.789	0	272.274	0	65.8	4	21.3	4	-1E+10	1	-1E+10	1	-1E+10	1	-1E+10	1	-1E+10	1	-1E+10	1
4902554	13	C	06/10/2021	14:07	-136.604	49.578	0	276.00	0	5.1970	0	33.9100	0	26.791	0	273.462	0	65.3	4	21.2	4	-1E+10	1	-1E+10	1	-1E+10	1	-1E+10	1	-1E+10	1	-1E+10	1
4902554	13	C	06/10/2021	14:07	-136.604	49.578	0	277.20	0	5.2110	0	33.9130	0	26.792	0	274.650	0	64.9	4	21.1	4	-1E+10	1	-1E+10	1	-1E+10	1	-1E+10	1	-1E+10	1	-1E+10	1
4902554	13	C	06/10/2021	14:07	-136.604	49.578	0	278.00	0	5.2020	0	33.9150	0	26.794	0	275.442	0	64.8	4	21.0	4	-1E+10	1	-1E+10	1	-1E+10	1	-1E+10	1	-1E+10	1	-1E+10	1
4902554	13	C	06/10/2021	14:07	-136.604	49.578	0	278.90	0	5.2000	0	33.9150	0	26.795	0	276.333	0	64.6	4	20.9	4	-1E+10	1	-1E+10	1	-1E+10	1	-1E+10	1	-1E+10	1	-1E+10	1
4902554	13	C	06/10/2021	14:07	-136.604	49.578	0	279.70	0	5.1950	0	33.9160	0	26.796	0	277.125	0	64.4	4	20.9	4	-1E+10	1	-1E+10	1	-1E+10	1	-1E+10	1	-1E+10	1	-1E+10	1
4902554	13	C	06/10/2021	14:07	-136.604	49.578	0	280.90	0	5.1900	0	33.9170	0	26.797	0	278.313	0	64.1	4	20.8	4	-1E+10	1	-1E+10	1	-1E+10	1	-1E+10	1	-1E+10	1	-1E+10	1
4902554	13	C	06/10/2021	14:07	-136.604	49.578	0	282.20	0	5.1750	0	33.9170	0	26.799	0	279.601	0	63.7	4	20.7	4	-1E+10	1	-1E+10	1	-1E+10	1	-1E+10	1	-1E+10	1	-1E+10	1
4902554	13	C	06/10/2021	14:07	-136.604	49.578	0	283.10	0	5.1700	0	33.9170	0	26.800	0	280.492	0	63.5	4	20.6	4	-1E+10	1	-1E+10	1	-1E+10	1	-1E+10	1	-1E+10	1	-1E+10	1
4902554	13	C	06/10/2021	14:07	-136.604	49.578	0	283.90	0	5.1650	0	33.9180	0	26.801	0	281.284	0	63.4	4	20.5	4	-1E+10	1	-1E+10	1	-1E+10	1	-1E+10	1	-1E+10	1	-1E+10	1
4902554	13	C	06/10/2021	14:07	-136.604	49.578	0	284.80	0	5.1600	0	33.9180	0	26.802	0	282.175	0	63.1	4	20.4	4	-1E+10	1	-1E+10	1	-1E+10	1	-1E+10	1	-1E+10	1	-1E+10	1
4902554	13	C	06/10/2021	14:07	-136.604	49.578	0	285.60	0	5.1590	0	33.9180	0	26.802	0	282.967	0	62.9	4	20.4	4	-1E+10	1	-1E+10	1	-1E+10	1	-1E+10	1	-1E+10	1	-1E+10	1
4902554	13	C	06/10/2021	14:07	-136.604	49.578	0	286.90	0	5.1520	0	33.9200	0	26.804	0	284.254	0	62.6	4	20.3	4	-1E+10	1	-1E+10	1	-1E+10	1	-1E+10	1	-1E+10	1	-1E+10	1
4902554	13	C	06/10/2021	14:07	-136.604	49.578	0	288.20	0	5.1210	0	33.9210	0	26.809	0	285.541	0	62.3	4	20.2	4	-1E+10	1	-1E+10	1	-1E+10	1	-1E+10	1	-1E+10	1	-1E+10	1
4902554	13	C	06/10/2021	14:07	-136.604	49.578	0	289.00	0	5.1240	0	33.9170	0	26.805	0	286.333	0	62.0	4	20.1	4	-1E+10	1	-1E+10	1	-1E+10	1	-1E+10	1	-1E+10	1	-1E+10	1
4902554	13	C	06/10/2021	14:07	-136.604	49.578	0	289.90	0	5.1230	0	33.9210	0	26.808	0	287.224	0	61.8	4	20.0	4	-1E+10	1	-1E+10	1	-1E+10	1	-1E+10	1	-1E+10	1	-1E+10	1
4902554	13	C	06/10/2021	14:07	-136.604	49.578	0	290.80	0	5.1180	0	33.9210	0	26.809	0	288.115	0	61.5	4	19.9	4	-1E+10	1	-1E+10	1	-1E+10	1	-1E+10	1	-1E+10	1	-1E+10	1
4902554	13	C	06/10/2021	14:07	-136.604	49.578	0	291.70	0	5.1050	0	33.9210	0	26.811	0	289.006	0	61.2	4	19.8	4	-1E+10	1	-1E+10	1	-1E+10	1	-1E+10	1	-1E+10	1	-1E+10	1
4902554	13	C	06/10/2021	14:07	-136.604	49.578	0	292.90	0	5.1050	0	33.9230	0	26.812	0	290.194	0	60.8	4	19.7	4	-1E+10	1	-1E+10	1	-1E+10	1	-1E+10	1	-1E+10	1	-1E+10	1
4902554	13	C	06/10/2021	14:07	-136.604	49.578	0	294.30	0	5.1100	0	33.9280	0	26.816	0	291.581	0	60.5	4	19.6	4	-1E+10	1	-1E+10	1	-1E+10	1	-1E+10	1	-1E+10	1	-1E+10	1
4902554	13	C	06/10/2021	14:07	-136.604	49.578	0	295.20	0	5.1080	0	33.9280	0	26.816	0	292.472	0	60.4	4	19.5	4	-1E+10	1	-1E+10	1	-1E+10	1	-1E+10	1	-1E+10	1	-1E+10	1
4902554	13	C	06/10/2021	14:07	-136.604	49.578	0	296.10	0	5.1060	0	33.9270	0	26.815	0	293.363	0	60.2	4	19.5	4	-1E+10	1	-1E+10	1	-1E+10	1	-1E+10	1	-1E+10	1	-1E+10	1
4902554	13	C	06/10/2021	14:07	-136.604	49.578	0	296.90	0	5.1020	0	33.9270	0	26.816	0	294.155	0	60.1	4	19.4	4	-1E+10	1	-1E+10	1	-1E+10	1	-1E+10	1	-1E+10	1	-1E+10	1
4902554	13	C	06/10/2021	14:07	-136.604	49.578	0	297.80	0	5.0890	0	33.9320	0	26.821	0	295.046	0	59.9	4	19.4	4	-1E+10	1	-1E+10	1	-1E+10	1	-1E+10	1	-1E+10	1	-1E+10	1
4902554	13	C	06/10/2021	14:07	-136.604	49.578	0	298.80	0	5.0630	0	33.9320	0	26.824	0	296.036	0	59.8	4	19.3	4	-1E+10	1	-1E+10	1	-1E+10	1	-1E+10	1	-1E+10	1	-1E+10	1
4902554	13	C	06/10/2021	14:07	-136.604	49.578	0	299.60	0	5.0600	0	33.9290	0	26.822	0	296.828	0	59.8	4	19.3	4	-1E+10	1	-1E+10	1	-1E+10	1	-1E+10	1	-1E+10	1	-1E+10	1
4902554	13	C	06/10/2021	14:07	-136.604	49.578	0	300.90	0	5.0510	0	33.9290	0	26.823	0	298.115	0	59.6	4	19.3	4	-1E+10	1	-1E+10	1	-1E+10	1	-1E+10	1	-1E+10	1	-1E+10	1
4902554	13	C	06/10/2021	14:07	-136.604	49.578	0	302.30	0	5.0300	0	33.9290	0	26.826	0	299.501	0	59.4	4	19.2	4	-1E+10	1	-1E+10	1	-1E+10	1	-1E+10	1	-1E+10	1	-1E+10	1
4902554	13	C	06/10/2021	14:07	-136.604	49.578	0	303.20	0	5.0140	0	33.9290	0	26.827	0	300.392	0	59.2	4	19.1	4	-1E+10	1	-1E+10	1	-1E+10	1	-1E+10	1	-1E+10	1	-1E+10	1
4902554	13	C	06/10/2021	14:07	-136.604	49.578	0	304.20	0	4.9900	0	33.9280	0	26.829	0	301.382	0	59.0	4	19.0	4	-1E+10	1	-1E+10	1	-1E+10	1	-1E+10	1	-1E+10	1	-1E+10	1
4902554	13	C	06/10/2021	14:07	-136.604	49.578	0	305.10	0	4.9860	0	33.9280	0	26.830	0	302.273	0	58.8	4	19.0	4	-1E+10	1	-1E+10	1	-1E+10	1	-1E+10	1	-1E+10	1	-1E+10	1
4902554	13	C	06/10/2021	14:07	-136.604	49.578	0	306.00	0	4.9870	0	33.9280	0	26.830	0	303.164	0	58.6	4	18.9	4	-1E+10	1	-1E+10	1	-1E+10	1	-1E+10	1	-1E+10	1	-1E+10	1
4902554	13	C	06/10/2021	14:07	-136.604	49.578	0	306.90	0	4.9870	0	33.9280	0	26.830	0	304.055	0	58.4	4	18.8	4	-1E+10	1	-1E+10	1	-1E+10	1	-1E+10	1	-1E+10	1	-1E+10	1
4902554	13	C	06/10/2021	14:07	-136.604	49.578	0	307.90	0	4.9900	0	33.9290	0	26.830	0	305.045	0	58.2	4	18.8	4	-1E+10	1	-1E+10	1	-1E+10	1	-1E+10	1	-1E+10	1	-1E+10	1
4902554	13	C	06/10/2021	14:07	-136.604	49.578	0	308.80	0	4.9760	0	33.9310	0	26.833	0	305.936	0	58.0	4	18.7	4	-1E+10	1	-1E+10	1	-1E+10	1	-1E+10	1	-1E+10	1	-1E+10	1
4902554	13	C	06/10/2021	14:07	-136.604	49.578	0	309.70	0	4.9750	0	33.9320	0	26.834	0	306.827	0	57.9	4	18.7	4	-1E+10	1	-1E+10	1	-1E+10	1	-1E+10	1	-1E+10	1	-1E+10	1
4902554	13	C	06/10/2021	14:07	-136.604	49.578	0	310.70	0	4.9730	0	33.9320	0	26.834	0	307.817	0	57.7	4	18.6	4	-1E+10	1	-1E+10	1	-1E+10	1	-1E+10	1	-1E+10	1	-1E+10	1
4902554	13	C	06/10/2021	14:07	-136.604	49.578	0	311.60	0	4.9710	0	33.9320	0	26.835	0	308.708	0	57.6	4	18.6	4	-1E+10	1	-1E+10	1	-1E+10	1	-1E+10	1	-1E+10	1	-1E+10	1
4902554	13	C	06/10/2021	14:07	-136.604	49.578	0	312.50	0	4.9660	0	33.9340	0	26.837	0	309.599	0	57.5	4	18.5	4	-1E+10	1	-1E+10	1	-1E+10	1	-1E+10	1	-1E+10	1	-1E+10	1
4902554	13	C	06/10/2021	14:07	-136.604	49.578	0	313.90	0	4.9410	0	33.9350	0	26.840	0	310.985	0	57.4	4	18.5	4	-1E+10	1	-1E+10	1	-1E+10	1	-1E+10	1	-1E+10	1	-1E+10	1
4902554	13	C	06/10/2021	14:07	-136.604	49.578	0	315.30	0	4.9310	0	33.9360	0	26.842	0	312.371	0	57.4	4	18.5	4	-1E+10	1	-1E+10	1	-1E+10	1	-1E+10	1	-1E+10	1	-1E+10	1
4902554	13	C	06/10/2021	14:07	-136.604	49.578	0	316.30	0	4.8990	0	33.9310	0	26.842	0	313.361	0	57.3	4	18.5	4	-1E+10	1	-1E+10	1	-1E+10	1	-1E+10	1	-1E+10	1	-1E+10	1
4902554	13	C	06/10/2021	14:07	-136.604	49.578	0	317.20	0	4.9120	0	33.9360	0	26.845	0	314.252	0	57.4	4	18.5	4	-1E+10	1	-1E+10	1	-1E+10	1	-1E+10	1	-1E+10	1	-1E+10	1
4902554	13	C	06/10/2021	14:07	-136.604	49.578	0	318.20	0	4.8770	0	33.9340	0	26.847	0	315.242	0	57.4	4	18.5	4	-1E+10	1	-1E+10	1	-1E+10	1	-1E+10	1	-1E+10	1	-1E+10	1
4902554	13	C	06/10/2021	14:07	-136.604	49.578	0	319.10	0	4.8480	0	33.9330	0	26.849	0	316.132	0	57.4	4	18.5	4	-1E+10	1	-1E+10	1	-1E+10	1	-1E+10	1	-1E+10	1	-1E+10	1
4902554	13	C	06/10/2021	14:07	-136.604	49.578	0	320.10	0	4.8290	0	33.9340	0	26.852	0	317.122	0	57.4	4	18.4	4	-1E+10	1	-1E+10	1	-1E+10	1	-1E+10	1	-1E+10	1	-1E+10	1
4902554	13	C	06/10/2021	14:07	-136.604	49.578	0	321.10	0	4.8240	0	33.9310	0	26.850	0	318.112	0	57.4	4	18.4	4	-1E+10	1	-1E+10	1	-1E+10	1	-1E+10	1	-1E+10	1	-1E+10	1
4902554	13	C	06/10/2021	14:07	-136.604	49.578	0	322.00	0	4.8090	0	33.9310	0	26.852	0	319.003	0	57.3	4	18.4	4	-1E+10	1	-1E+10	1	-1E+10	1	-1E+10	1	-1E+10	1	-1E+10	1
4902554	13	C	06/10/2021	14:07	-136.604	49.578	0	323.00	0	4.7970	0	33.9300	0	26.853	0	319.993	0	57.2	4	18.4	4	-1E+10	1	-1E+10	1	-1E+10	1	-1E+10	1	-1E+10	1	-1E+10	1
4902554	13	C	06/10/2021	14:07	-136.604	49.578	0	324.00	0	4.7880	0	33.9300	0	26.854	0	320.983	0	57.1	4	18.3	4	-1E+10	1	-1E+10	1	-1E+10	1	-1E+10	1	-1E+10	1	-1E+10	1
4902554	13	C	06/10/2021	14:07	-136.604	49.578	0	325.00	0	4.7940	0	33.9310	0	26.854	0	321.973	0	57.0	4	18.3	4	-1E+10	1	-1E+10	1	-1E+10	1	-1E+10	1	-1E+10	1	-1E+10	1
4902554	13	C	06/10/2021	14:07	-136.604	49.578	0	325.90	0	4.7970	0	33.9300	0	26.853	0	322.864	0	57.0	4	18.3	4	-1E+10	1	-1E+10	1	-1E+10	1	-1E+10	1	-1E+10	1	-1E+10	1
4902554	13	C	06/10/2021	14:07	-136.604	49.578	0	326.90	0	4.7650	0	33.9270	0	26.854	0	323.854	0	56.9	4	18.3	4	-1E+10	1	-1E+10	1	-1E+10	1	-1E+10	1	-1E+10	1	-1E+10	1
4902554	13	C	06/10/2021	14:07	-136.604	49.578	0	327.90	0	4.7410	0	33.9260	0	26.856	0	324.844	0	56.8	4	18.2	4	-1E+10	1	-1E+10	1	-1E+10	1	-1E+10	1	-1E+10	1	-1E+10	1
4902554	13	C	06/10/2021	14:07	-136.604	49.578	0	328.90	0	4.7210	0	33.9230	0	26.856	0	325.834	0	56.7	4	18.2	4	-1E+10	1	-1E+10	1	-1E+10	1	-1E+10	1	-1E+10	1	-1E+10	1
4902554	13	C	06/10/2021	14:07	-136.604	49.578	0	329.90	0	4.7490	0	33.9330	0	26.860	0	326.824	0	56.7	4	18.2	4	-1E+10	1	-1E+10	1	-1E+10	1	-1E+10	1	-1E+10	1	-1E+10	1
4902554	13	C	06/10/2021	14:07	-136.604	49.578	0	330.90	0	4.7460	0	33.9310	0	26.859	0	327.813	0	56.7	4	18.2	4	-1E+10	1	-1E+10	1	-1E+10	1	-1E+10	1	-1E+10	1	-1E+10	1
4902554	13	C	06/10/2021	14:07	-136.604	49.578	0	331.80	0	4.7180	0	33.9330	0	26.864	0	328.704	0	56.7	4	18.2	4	-1E+10	1	-1E+10	1	-1E+10	1	-1E+10	1	-1E+10	1	-1E+10	1
4902554	13	C	06/10/2021	14:07	-136.604	49.578	0	332.80	0	4.6690	0	33.9260	0	26.864	0	329.694	0	56.6	4	18.1	4	-1E+10	1	-1E+10	1	-1E+10	1	-1E+10	1	-1E+10	1	-1E+10	1
4902554	13	C	06/10/2021	14:07	-136.604	49.578	0	333.80	0	4.6330	0	33.9240	0	26.866	0	330.684	0	56.3	4	18.0	4	-1E+10	1	-1E+10	1	-1E+10	1	-1E+10	1	-1E+10	1	-1E+10	1
4902554	13	C	06/10/2021	14:07	-136.604	49.578	0	334.80	0	4.6210	0	33.9240	0	26.867	0	331.674	0	56.1	4	18.0	4	-1E+10	1	-1E+10	1	-1E+10	1	-1E+10	1	-1E+10	1	-1E+10	1
4902554	13	C	06/10/2021	14:07	-136.604	49.578	0	335.80	0	4.6190	0	33.9250	0	26.868	0	332.664	0	55.9	4	17.9	4	-1E+10	1	-1E+10	1	-1E+10	1	-1E+10	1	-1E+10	1	-1E+10	1
4902554	13	C	06/10/2021	14:07	-136.604	49.578	0	336.70	0	4.6180	0	33.9250	0	26.869	0	333.555	0	55.7	4	17.8	4	-1E+10	1	-1E+10	1	-1E+10	1	-1E+10	1	-1E+10	1	-1E+10	1
4902554	13	C	06/10/2021	14:07	-136.604	49.578	0	337.70	0	4.6180	0	33.9260	0	26.869	0	334.544	0	55.5	4	17.8	4	-1E+10	1	-1E+10	1	-1E+10	1	-1E+10	1	-1E+10	1	-1E+10	1
4902554	13	C	06/10/2021	14:07	-136.604	49.578	0	338.70	0	4.6200	0	33.9260	0	26.869	0	335.534	0	55.3	4	17.7	4	-1E+10	1	-1E+10	1	-1E+10	1	-1E+10	1	-1E+10	1	-1E+10	1
4902554	13	C	06/10/2021	14:07	-136.604	49.578	0	339.70	0	4.6190	0	33.9270	0	26.870	0	336.524	0	55.1	4	17.6	4	-1E+10	1	-1E+10	1	-1E+10	1	-1E+10	1	-1E+10	1	-1E+10	1
4902554	13	C	06/10/2021	14:07	-136.604	49.578	0	340.70	0	4.6180	0	33.9270	0	26.870	0	337.514	0	54.8	4	17.5	4	-1E+10	1	-1E+10	1	-1E+10	1	-1E+10	1	-1E+10	1	-1E+10	1
4902554	13	C	06/10/2021	14:07	-136.604	49.578	0	341.70	0	4.6100	0	33.9280	0	26.872	0	338.504	0	54.5	4	17.4	4	-1E+10	1	-1E+10	1	-1E+10	1	-1E+10	1	-1E+10	1	-1E+10	1
4902554	13	C	06/10/2021	14:07	-136.604	49.578	0	342.70	0	4.5950	0	33.9280	0	26.873	0	339.494	0	54.2	4	17.3	4	-1E+10	1	-1E+10	1	-1E+10	1	-1E+10	1	-1E+10	1	-1E+10	1
4902554	13	C	06/10/2021	14:07	-136.604	49.578	0	343.70	0	4.5930	0	33.9280	0	26.874	0	340.484	0	53.9	4	17.2	4	-1E+10	1	-1E+10	1	-1E+10	1	-1E+10	1	-1E+10	1	-1E+10	1
4902554	13	C	06/10/2021	14:07	-136.604	49.578	0	344.70	0	4.5940	0	33.9290	0	26.874	0	341.473	0	53.5	4	17.1	4	-1E+10	1	-1E+10	1	-1E+10	1	-1E+10	1	-1E+10	1	-1E+10	1
4902554	13	C	06/10/2021	14:07	-136.604	49.578	0	345.70	0	4.5950	0	33.9310	0	26.876	0	342.463	0	53.2	4	17.0	4	-1E+10	1	-1E+10	1	-1E+10	1	-1E+10	1	-1E+10	1	-1E+10	1
4902554	13	C	06/10/2021	14:07	-136.604	49.578	0	346.70	0	4.5950	0	33.9330	0	26.877	0	343.453	0	53.0	4	16.9	4	-1E+10	1	-1E+10	1	-1E+10	1	-1E+10	1	-1E+10	1	-1E+10	1
4902554	13	C	06/10/2021	14:07	-136.604	49.578	0	347.70	0	4.5950	0	33.9340	0	26.878	0	344.443	0	52.7	4	16.8	4	-1E+10	1	-1E+10	1	-1E+10	1	-1E+10	1	-1E+10	1	-1E+10	1
4902554	13	C	06/10/2021	14:07	-136.604	49.578	0	348.70	0	4.5920	0	33.9360	0	26.880	0	345.433	0	52.4	4	16.8	4	-1E+10	1	-1E+10	1	-1E+10	1	-1E+10	1	-1E+10	1	-1E+10	1
4902554	13	C	06/10/2021	14:07	-136.604	49.578	0	349.70	0	4.5860	0	33.9380	0	26.882	0	346.422	0	52.2	4	16.7	4	-1E+10	1	-1E+10	1	-1E+10	1	-1E+10	1	-1E+10	1	-1E+10	1
4902554	13	C	06/10/2021	14:07	-136.604	49.578	0	352.70	0	4.5710	0	33.9390	0	26.885	0	349.392	0	51.7	4	16.5	4	-1E+10	1	-1E+10	1	-1E+10	1	-1E+10	1	-1E+10	1	-1E+10	1
4902554	13	C	06/10/2021	14:07	-136.604	49.578	0	357.80	0	4.5450	0	33.9420	0	26.890	0	354.439	0	50.8	4	16.2	4	-1E+10	1	-1E+10	1	-1E+10	1	-1E+10	1	-1E+10	1	-1E+10	1
4902554	13	C	06/10/2021	14:07	-136.604	49.578	0	362.80	0	4.5360	0	33.9450	0	26.893	0	359.388	0	49.9	4	15.9	4	-1E+10	1	-1E+10	1	-1E+10	1	-1E+10	1	-1E+10	1	-1E+10	1
4902554	13	C	06/10/2021	14:07	-136.604	49.578	0	367.90	0	4.5030	0	33.9470	0	26.899	0	364.436	0	48.6	4	15.5	4	-1E+10	1	-1E+10	1	-1E+10	1	-1E+10	1	-1E+10	1	-1E+10	1
4902554	13	C	06/10/2021	14:07	-136.604	49.578	0	373.00	0	4.5040	0	33.9570	0	26.907	0	369.483	0	47.1	4	15.0	4	-1E+10	1	-1E+10	1	-1E+10	1	-1E+10	1	-1E+10	1	-1E+10	1
4902554	13	C	06/10/2021	14:07	-136.604	49.578	0	378.10	0	4.5100	0	33.9650	0	26.912	0	374.531	0	46.0	4	14.7	4	-1E+10	1	-1E+10	1	-1E+10	1	-1E+10	1	-1E+10	1	-1E+10	1
4902554	13	C	06/10/2021	14:07	-136.604	49.578	0	383.30	0	4.5030	0	33.9700	0	26.917	0	379.677	0	44.9	4	14.3	4	-1E+10	1	-1E+10	1	-1E+10	1	-1E+10	1	-1E+10	1	-1E+10	1
4902554	13	C	06/10/2021	14:07	-136.604	49.578	0	387.90	0	4.4850	0	33.9750	0	26.923	0	384.229	0	44.3	4	14.1	4	-1E+10	1	-1E+10	1	-1E+10	1	-1E+10	1	-1E+10	1	-1E+10	1
4902554	13	C	06/10/2021	14:07	-136.604	49.578	0	392.60	0	4.4280	0	33.9800	0	26.933	0	388.880	0	43.7	4	13.9	4	-1E+10	1	-1E+10	1	-1E+10	1	-1E+10	1	-1E+10	1	-1E+10	1
4902554	13	C	06/10/2021	14:07	-136.604	49.578	0	397.80	0	4.4080	0	33.9870	0	26.941	0	394.026	0	42.8	4	13.6	4	-1E+10	1	-1E+10	1	-1E+10	1	-1E+10	1	-1E+10	1	-1E+10	1
4902554	13	C	06/10/2021	14:07	-136.604	49.578	0	403.00	0	4.3810	0	33.9920	0	26.948	0	399.171	0	41.9	4	13.3	4	-1E+10	1	-1E+10	1	-1E+10	1	-1E+10	1	-1E+10	1	-1E+10	1
4902554	13	C	06/10/2021	14:07	-136.604	49.578	0	408.20	0	4.3560	0	33.9970	0	26.954	0	404.317	0	41.0	4	13.0	4	-1E+10	1	-1E+10	1	-1E+10	1	-1E+10	1	-1E+10	1	-1E+10	1
4902554	13	C	06/10/2021	14:07	-136.604	49.578	0	413.30	0	4.3390	0	34.0030	0	26.961	0	409.363	0	40.2	4	12.8	4	-1E+10	1	-1E+10	1	-1E+10	1	-1E+10	1	-1E+10	1	-1E+10	1
4902554	13	C	06/10/2021	14:07	-136.604	49.578	0	418.00	0	4.3290	0	34.0060	0	26.964	0	414.014	0	39.2	4	12.5	4	-1E+10	1	-1E+10	1	-1E+10	1	-1E+10	1	-1E+10	1	-1E+10	1
4902554	13	C	06/10/2021	14:07	-136.604	49.578	0	422.70	0	4.3140	0	34.0130	0	26.972	0	418.664	0	38.2	4	12.1	4	-1E+10	1	-1E+10	1	-1E+10	1	-1E+10	1	-1E+10	1	-1E+10	1
4902554	13	C	06/10/2021	14:07	-136.604	49.578	0	427.90	0	4.3060	0	34.0200	0	26.978	0	423.809	0	37.2	4	11.8	4	-1E+10	1	-1E+10	1	-1E+10	1	-1E+10	1	-1E+10	1	-1E+10	1
4902554	13	C	06/10/2021	14:07	-136.604	49.578	0	433.10	0	4.2890	0	34.0260	0	26.985	0	428.954	0	36.2	4	11.5	4	-1E+10	1	-1E+10	1	-1E+10	1	-1E+10	1	-1E+10	1	-1E+10	1
4902554	13	C	06/10/2021	14:07	-136.604	49.578	0	437.80	0	4.2770	0	34.0310	0	26.990	0	433.605	0	35.4	4	11.3	4	-1E+10	1	-1E+10	1	-1E+10	1	-1E+10	1	-1E+10	1	-1E+10	1
4902554	13	C	06/10/2021	14:07	-136.604	49.578	0	442.50	0	4.2620	0	34.0370	0	26.996	0	438.255	0	34.7	4	11.0	4	-1E+10	1	-1E+10	1	-1E+10	1	-1E+10	1	-1E+10	1	-1E+10	1
4902554	13	C	06/10/2021	14:07	-136.604	49.578	0	447.80	0	4.2520	0	34.0410	0	27.001	0	443.498	0	34.1	4	10.8	4	-1E+10	1	-1E+10	1	-1E+10	1	-1E+10	1	-1E+10	1	-1E+10	1
4902554	13	C	06/10/2021	14:07	-136.604	49.578	0	453.10	0	4.2450	0	34.0450	0	27.005	0	448.741	0	33.3	4	10.6	4	-1E+10	1	-1E+10	1	-1E+10	1	-1E+10	1	-1E+10	1	-1E+10	1
4902554	13	C	06/10/2021	14:07	-136.604	49.578	0	458.30	0	4.2380	0	34.0490	0	27.009	0	453.886	0	32.5	4	10.3	4	-1E+10	1	-1E+10	1	-1E+10	1	-1E+10	1	-1E+10	1	-1E+10	1
4902554	13	C	06/10/2021	14:07	-136.604	49.578	0	463.00	0	4.2280	0	34.0540	0	27.014	0	458.535	0	31.8	4	10.1	4	-1E+10	1	-1E+10	1	-1E+10	1	-1E+10	1	-1E+10	1	-1E+10	1
4902554	13	C	06/10/2021	14:07	-136.604	49.578	0	467.70	0	4.2190	0	34.0590	0	27.019	0	463.185	0	31.3	4	9.9	4	-1E+10	1	-1E+10	1	-1E+10	1	-1E+10	1	-1E+10	1	-1E+10	1
4902554	13	C	06/10/2021	14:07	-136.604	49.578	0	472.80	0	4.2050	0	34.0630	0	27.023	0	468.230	0	30.6	4	9.7	4	-1E+10	1	-1E+10	1	-1E+10	1	-1E+10	1	-1E+10	1	-1E+10	1
4902554	13	C	06/10/2021	14:07	-136.604	49.578	0	478.00	0	4.1930	0	34.0680	0	27.028	0	473.373	0	30.0	4	9.5	4	-1E+10	1	-1E+10	1	-1E+10	1	-1E+10	1	-1E+10	1	-1E+10	1
4902554	13	C	06/10/2021	14:07	-136.604	49.578	0	482.80	0	4.1760	0	34.0730	0	27.034	0	478.121	0	29.3	4	9.3	4	-1E+10	1	-1E+10	1	-1E+10	1	-1E+10	1	-1E+10	1	-1E+10	1
4902554	13	C	06/10/2021	14:07	-136.604	49.578	0	487.70	0	4.1620	0	34.0790	0	27.041	0	482.968	0	28.7	4	9.1	4	-1E+10	1	-1E+10	1	-1E+10	1	-1E+10	1	-1E+10	1	-1E+10	1
4902554	13	C	06/10/2021	14:07	-136.604	49.578	0	492.70	0	4.1530	0	34.0830	0	27.045	0	487.914	0	28.0	4	8.9	4	-1E+10	1	-1E+10	1	-1E+10	1	-1E+10	1	-1E+10	1	-1E+10	1
4902554	13	C	06/10/2021	14:07	-136.604	49.578	0	497.70	0	4.1380	0	34.0880	0	27.050	0	492.859	0	27.6	4	8.7	4	-1E+10	1	-1E+10	1	-1E+10	1	-1E+10	1	-1E+10	1	-1E+10	1
4902554	13	C	06/10/2021	14:07	-136.604	49.578	0	502.70	0	4.1280	0	34.0910	0	27.054	0	497.805	0	27.1	4	8.6	4	-1E+10	1	-1E+10	1	-1E+10	1	-1E+10	1	-1E+10	1	-1E+10	1
4902554	13	C	06/10/2021	14:07	-136.604	49.578	0	507.90	0	4.1140	0	34.0950	0	27.058	0	502.948	0	26.5	4	8.4	4	-1E+10	1	-1E+10	1	-1E+10	1	-1E+10	1	-1E+10	1	-1E+10	1
4902554	13	C	06/10/2021	14:07	-136.604	49.578	0	513.00	0	4.1010	0	34.0990	0	27.063	0	507.992	0	26.0	4	8.2	4	-1E+10	1	-1E+10	1	-1E+10	1	-1E+10	1	-1E+10	1	-1E+10	1
4902554	13	C	06/10/2021	14:07	-136.604	49.578	0	518.00	0	4.0890	0	34.1040	0	27.068	0	512.937	0	25.5	4	8.1	4	-1E+10	1	-1E+10	1	-1E+10	1	-1E+10	1	-1E+10	1	-1E+10	1
4902554	13	C	06/10/2021	14:07	-136.604	49.578	0	522.80	0	4.0720	0	34.1090	0	27.074	0	517.684	0	25.0	4	7.9	4	-1E+10	1	-1E+10	1	-1E+10	1	-1E+10	1	-1E+10	1	-1E+10	1
4902554	13	C	06/10/2021	14:07	-136.604	49.578	0	528.10	0	4.0570	0	34.1140	0	27.079	0	522.926	0	24.5	4	7.8	4	-1E+10	1	-1E+10	1	-1E+10	1	-1E+10	1	-1E+10	1	-1E+10	1
4902554	13	C	06/10/2021	14:07	-136.604	49.578	0	533.10	0	4.0490	0	34.1180	0	27.084	0	527.870	0	24.1	4	7.6	4	-1E+10	1	-1E+10	1	-1E+10	1	-1E+10	1	-1E+10	1	-1E+10	1
4902554	13	C	06/10/2021	14:07	-136.604	49.578	0	537.80	0	4.0360	0	34.1210	0	27.087	0	532.518	0	23.7	4	7.5	4	-1E+10	1	-1E+10	1	-1E+10	1	-1E+10	1	-1E+10	1	-1E+10	1
4902554	13	C	06/10/2021	14:07	-136.604	49.578	0	542.90	0	4.0180	0	34.1250	0	27.092	0	537.561	0	23.1	4	7.3	4	-1E+10	1	-1E+10	1	-1E+10	1	-1E+10	1	-1E+10	1	-1E+10	1
4902554	13	C	06/10/2021	14:07	-136.604	49.578	0	547.90	0	4.0010	0	34.1310	0	27.099	0	542.506	0	22.6	4	7.1	4	-1E+10	1	-1E+10	1	-1E+10	1	-1E+10	1	-1E+10	1	-1E+10	1
4902554	13	C	06/10/2021	14:07	-136.604	49.578	0	552.90	0	3.9830	0	34.1370	0	27.106	0	547.450	0	22.1	4	7.0	4	-1E+10	1	-1E+10	1	-1E+10	1	-1E+10	1	-1E+10	1	-1E+10	1
4902554	13	C	06/10/2021	14:07	-136.604	49.578	0	557.70	0	3.9630	0	34.1430	0	27.112	0	552.196	0	21.7	4	6.8	4	-1E+10	1	-1E+10	1	-1E+10	1	-1E+10	1	-1E+10	1	-1E+10	1
4902554	13	C	06/10/2021	14:07	-136.604	49.578	0	563.00	0	3.9490	0	34.1480	0	27.118	0	557.437	0	21.3	4	6.7	4	-1E+10	1	-1E+10	1	-1E+10	1	-1E+10	1	-1E+10	1	-1E+10	1
4902554	13	C	06/10/2021	14:07	-136.604	49.578	0	568.30	0	3.9480	0	34.1520	0	27.121	0	562.677	0	21.0	4	6.6	4	-1E+10	1	-1E+10	1	-1E+10	1	-1E+10	1	-1E+10	1	-1E+10	1
4902554	13	C	06/10/2021	14:07	-136.604	49.578	0	573.30	0	3.9360	0	34.1560	0	27.126	0	567.621	0	20.6	4	6.5	4	-1E+10	1	-1E+10	1	-1E+10	1	-1E+10	1	-1E+10	1	-1E+10	1
4902554	13	C	06/10/2021	14:07	-136.604	49.578	0	577.90	0	3.9230	0	34.1600	0	27.130	0	572.169	0	20.4	4	6.4	4	-1E+10	1	-1E+10	1	-1E+10	1	-1E+10	1	-1E+10	1	-1E+10	1
4902554	13	C	06/10/2021	14:07	-136.604	49.578	0	582.40	0	3.9180	0	34.1630	0	27.133	0	576.618	0	20.2	4	6.4	4	-1E+10	1	-1E+10	1	-1E+10	1	-1E+10	1	-1E+10	1	-1E+10	1
4902554	13	C	06/10/2021	14:07	-136.604	49.578	0	587.50	0	3.9110	0	34.1650	0	27.135	0	581.661	0	20.0	4	6.3	4	-1E+10	1	-1E+10	1	-1E+10	1	-1E+10	1	-1E+10	1	-1E+10	1
4902554	13	C	06/10/2021	14:07	-136.604	49.578	0	592.50	0	3.9010	0	34.1680	0	27.139	0	586.604	0	19.8	4	6.2	4	-1E+10	1	-1E+10	1	-1E+10	1	-1E+10	1	-1E+10	1	-1E+10	1
4902554	13	C	06/10/2021	14:07	-136.604	49.578	0	597.60	0	3.8940	0	34.1710	0	27.142	0	591.646	0	19.6	4	6.2	4	-1E+10	1	-1E+10	1	-1E+10	1	-1E+10	1	-1E+10	1	-1E+10	1
4902554	13	C	06/10/2021	14:07	-136.604	49.578	0	602.80	0	3.8840	0	34.1740	0	27.145	0	596.787	0	19.4	4	6.1	4	-1E+10	1	-1E+10	1	-1E+10	1	-1E+10	1	-1E+10	1	-1E+10	1
4902554	13	C	06/10/2021	14:07	-136.604	49.578	0	608.00	0	3.8800	0	34.1750	0	27.147	0	601.927	0	19.3	4	6.1	4	-1E+10	1	-1E+10	1	-1E+10	1	-1E+10	1	-1E+10	1	-1E+10	1
4902554	13	C	06/10/2021	14:07	-136.604	49.578	0	613.20	0	3.8740	0	34.1770	0	27.149	0	607.068	0	19.2	4	6.0	4	-1E+10	1	-1E+10	1	-1E+10	1	-1E+10	1	-1E+10	1	-1E+10	1
4902554	13	C	06/10/2021	14:07	-136.604	49.578	0	618.30	0	3.8690	0	34.1790	0	27.151	0	612.109	0	19.1	4	6.0	4	-1E+10	1	-1E+10	1	-1E+10	1	-1E+10	1	-1E+10	1	-1E+10	1
4902554	13	C	06/10/2021	14:07	-136.604	49.578	0	622.90	0	3.8660	0	34.1800	0	27.152	0	616.656	0	18.9	4	5.9	4	-1E+10	1	-1E+10	1	-1E+10	1	-1E+10	1	-1E+10	1	-1E+10	1
4902554	13	C	06/10/2021	14:07	-136.604	49.578	0	627.60	0	3.8600	0	34.1820	0	27.154	0	621.302	0	18.7	4	5.9	4	-1E+10	1	-1E+10	1	-1E+10	1	-1E+10	1	-1E+10	1	-1E+10	1
4902554	13	C	06/10/2021	14:07	-136.604	49.578	0	632.70	0	3.8500	0	34.1850	0	27.158	0	626.343	0	18.5	4	5.8	4	-1E+10	1	-1E+10	1	-1E+10	1	-1E+10	1	-1E+10	1	-1E+10	1
4902554	13	C	06/10/2021	14:07	-136.604	49.578	0	637.90	0	3.8350	0	34.1890	0	27.162	0	631.483	0	18.4	4	5.8	4	-1E+10	1	-1E+10	1	-1E+10	1	-1E+10	1	-1E+10	1	-1E+10	1
4902554	13	C	06/10/2021	14:07	-136.604	49.578	0	642.80	0	3.8270	0	34.1910	0	27.165	0	636.326	0	18.2	4	5.7	4	-1E+10	1	-1E+10	1	-1E+10	1	-1E+10	1	-1E+10	1	-1E+10	1
4902554	13	C	06/10/2021	14:07	-136.604	49.578	0	647.90	0	3.8200	0	34.1940	0	27.168	0	641.367	0	18.1	4	5.7	4	-1E+10	1	-1E+10	1	-1E+10	1	-1E+10	1	-1E+10	1	-1E+10	1
4902554	13	C	06/10/2021	14:07	-136.604	49.578	0	653.10	0	3.8080	0	34.1970	0	27.172	0	646.507	0	17.9	4	5.6	4	-1E+10	1	-1E+10	1	-1E+10	1	-1E+10	1	-1E+10	1	-1E+10	1
4902554	13	C	06/10/2021	14:07	-136.604	49.578	0	658.10	0	3.8000	0	34.2000	0	27.175	0	651.448	0	17.7	4	5.6	4	-1E+10	1	-1E+10	1	-1E+10	1	-1E+10	1	-1E+10	1	-1E+10	1
4902554	13	C	06/10/2021	14:07	-136.604	49.578	0	663.10	0	3.7840	0	34.2030	0	27.179	0	656.390	0	17.5	4	5.5	4	-1E+10	1	-1E+10	1	-1E+10	1	-1E+10	1	-1E+10	1	-1E+10	1
4902554	13	C	06/10/2021	14:07	-136.604	49.578	0	668.30	0	3.7760	0	34.2060	0	27.182	0	661.529	0	17.3	4	5.4	4	-1E+10	1	-1E+10	1	-1E+10	1	-1E+10	1	-1E+10	1	-1E+10	1
4902554	13	C	06/10/2021	14:07	-136.604	49.578	0	673.00	0	3.7580	0	34.2120	0	27.189	0	666.174	0	17.1	4	5.4	4	-1E+10	1	-1E+10	1	-1E+10	1	-1E+10	1	-1E+10	1	-1E+10	1
4902554	13	C	06/10/2021	14:07	-136.604	49.578	0	677.80	0	3.7480	0	34.2140	0	27.191	0	670.918	0	17.0	4	5.3	4	-1E+10	1	-1E+10	1	-1E+10	1	-1E+10	1	-1E+10	1	-1E+10	1
4902554	13	C	06/10/2021	14:07	-136.604	49.578	0	683.00	0	3.7380	0	34.2170	0	27.195	0	676.056	0	16.8	4	5.3	4	-1E+10	1	-1E+10	1	-1E+10	1	-1E+10	1	-1E+10	1	-1E+10	1
4902554	13	C	06/10/2021	14:07	-136.604	49.578	0	688.20	0	3.7210	0	34.2210	0	27.200	0	681.195	0	16.7	4	5.2	4	-1E+10	1	-1E+10	1	-1E+10	1	-1E+10	1	-1E+10	1	-1E+10	1
4902554	13	C	06/10/2021	14:07	-136.604	49.578	0	693.10	0	3.7010	0	34.2260	0	27.206	0	686.037	0	16.6	4	5.2	4	-1E+10	1	-1E+10	1	-1E+10	1	-1E+10	1	-1E+10	1	-1E+10	1
4902554	13	C	06/10/2021	14:07	-136.604	49.578	0	697.90	0	3.6880	0	34.2290	0	27.209	0	690.780	0	16.5	4	5.2	4	-1E+10	1	-1E+10	1	-1E+10	1	-1E+10	1	-1E+10	1	-1E+10	1
4902554	13	C	06/10/2021	14:07	-136.604	49.578	0	702.80	0	3.6750	0	34.2320	0	27.213	0	695.622	0	16.4	4	5.1	4	-1E+10	1	-1E+10	1	-1E+10	1	-1E+10	1	-1E+10	1	-1E+10	1
4902554	13	C	06/10/2021	14:07	-136.604	49.578	0	707.70	0	3.6680	0	34.2340	0	27.215	0	700.464	0	16.4	4	5.1	4	-1E+10	1	-1E+10	1	-1E+10	1	-1E+10	1	-1E+10	1	-1E+10	1
4902554	13	C	06/10/2021	14:07	-136.604	49.578	0	713.00	0	3.6510	0	34.2370	0	27.219	0	705.701	0	16.3	4	5.1	4	-1E+10	1	-1E+10	1	-1E+10	1	-1E+10	1	-1E+10	1	-1E+10	1
4902554	13	C	06/10/2021	14:07	-136.604	49.578	0	717.80	0	3.6370	0	34.2400	0	27.223	0	710.443	0	16.2	4	5.1	4	-1E+10	1	-1E+10	1	-1E+10	1	-1E+10	1	-1E+10	1	-1E+10	1
4902554	13	C	06/10/2021	14:07	-136.604	49.578	0	722.60	0	3.6200	0	34.2430	0	27.227	0	715.186	0	16.1	4	5.0	4	-1E+10	1	-1E+10	1	-1E+10	1	-1E+10	1	-1E+10	1	-1E+10	1
4902554	13	C	06/10/2021	14:07	-136.604	49.578	0	727.80	0	3.5960	0	34.2480	0	27.234	0	720.324	0	16.0	4	5.0	4	-1E+10	1	-1E+10	1	-1E+10	1	-1E+10	1	-1E+10	1	-1E+10	1
4902554	13	C	06/10/2021	14:07	-136.604	49.578	0	733.10	0	3.5790	0	34.2530	0	27.239	0	725.560	0	15.9	4	5.0	4	-1E+10	1	-1E+10	1	-1E+10	1	-1E+10	1	-1E+10	1	-1E+10	1
4902554	13	C	06/10/2021	14:07	-136.604	49.578	0	738.00	0	3.5700	0	34.2550	0	27.242	0	730.401	0	15.9	4	5.0	4	-1E+10	1	-1E+10	1	-1E+10	1	-1E+10	1	-1E+10	1	-1E+10	1
4902554	13	C	06/10/2021	14:07	-136.604	49.578	0	742.90	0	3.5590	0	34.2570	0	27.244	0	735.242	0	15.9	4	5.0	4	-1E+10	1	-1E+10	1	-1E+10	1	-1E+10	1	-1E+10	1	-1E+10	1
4902554	13	C	06/10/2021	14:07	-136.604	49.578	0	747.80	0	3.5460	0	34.2590	0	27.247	0	740.083	0	15.7	4	4.9	4	-1E+10	1	-1E+10	1	-1E+10	1	-1E+10	1	-1E+10	1	-1E+10	1
4902554	13	C	06/10/2021	14:07	-136.604	49.578	0	752.70	0	3.5300	0	34.2630	0	27.252	0	744.923	0	15.7	4	4.9	4	-1E+10	1	-1E+10	1	-1E+10	1	-1E+10	1	-1E+10	1	-1E+10	1
4902554	13	C	06/10/2021	14:07	-136.604	49.578	0	758.10	0	3.5190	0	34.2650	0	27.255	0	750.258	0	15.6	4	4.9	4	-1E+10	1	-1E+10	1	-1E+10	1	-1E+10	1	-1E+10	1	-1E+10	1
4902554	13	C	06/10/2021	14:07	-136.604	49.578	0	763.00	0	3.5040	0	34.2680	0	27.259	0	755.098	0	15.4	4	4.8	4	-1E+10	1	-1E+10	1	-1E+10	1	-1E+10	1	-1E+10	1	-1E+10	1
4902554	13	C	06/10/2021	14:07	-136.604	49.578	0	767.90	0	3.4840	0	34.2720	0	27.264	0	759.939	0	15.3	4	4.8	4	-1E+10	1	-1E+10	1	-1E+10	1	-1E+10	1	-1E+10	1	-1E+10	1
4902554	13	C	06/10/2021	14:07	-136.604	49.578	0	772.80	0	3.4690	0	34.2760	0	27.268	0	764.779	0	15.2	4	4.7	4	-1E+10	1	-1E+10	1	-1E+10	1	-1E+10	1	-1E+10	1	-1E+10	1
4902554	13	C	06/10/2021	14:07	-136.604	49.578	0	777.70	0	3.4510	0	34.2810	0	27.274	0	769.619	0	15.1	4	4.7	4	-1E+10	1	-1E+10	1	-1E+10	1	-1E+10	1	-1E+10	1	-1E+10	1
4902554	13	C	06/10/2021	14:07	-136.604	49.578	0	783.10	0	3.4450	0	34.2820	0	27.276	0	774.953	0	14.9	4	4.7	4	-1E+10	1	-1E+10	1	-1E+10	1	-1E+10	1	-1E+10	1	-1E+10	1
4902554	13	C	06/10/2021	14:07	-136.604	49.578	0	788.10	0	3.4420	0	34.2840	0	27.277	0	779.891	0	14.9	4	4.6	4	-1E+10	1	-1E+10	1	-1E+10	1	-1E+10	1	-1E+10	1	-1E+10	1
4902554	13	C	06/10/2021	14:07	-136.604	49.578	0	792.70	0	3.4310	0	34.2860	0	27.280	0	784.435	0	14.8	4	4.6	4	-1E+10	1	-1E+10	1	-1E+10	1	-1E+10	1	-1E+10	1	-1E+10	1
4902554	13	C	06/10/2021	14:07	-136.604	49.578	0	797.90	0	3.4190	0	34.2890	0	27.284	0	789.571	0	14.7	4	4.6	4	-1E+10	1	-1E+10	1	-1E+10	1	-1E+10	1	-1E+10	1	-1E+10	1
4902554	13	C	06/10/2021	14:07	-136.604	49.578	0	803.10	0	3.4130	0	34.2900	0	27.285	0	794.707	0	14.6	4	4.6	4	-1E+10	1	-1E+10	1	-1E+10	1	-1E+10	1	-1E+10	1	-1E+10	1
4902554	13	C	06/10/2021	14:07	-136.604	49.578	0	808.00	0	3.3980	0	34.2940	0	27.290	0	799.546	0	14.5	4	4.5	4	-1E+10	1	-1E+10	1	-1E+10	1	-1E+10	1	-1E+10	1	-1E+10	1
4902554	13	C	06/10/2021	14:07	-136.604	49.578	0	813.00	0	3.3860	0	34.2970	0	27.293	0	804.484	0	14.5	4	4.5	4	-1E+10	1	-1E+10	1	-1E+10	1	-1E+10	1	-1E+10	1	-1E+10	1
4902554	13	C	06/10/2021	14:07	-136.604	49.578	0	818.00	0	3.3810	0	34.2980	0	27.295	0	809.422	0	14.4	4	4.5	4	-1E+10	1	-1E+10	1	-1E+10	1	-1E+10	1	-1E+10	1	-1E+10	1
4902554	13	C	06/10/2021	14:07	-136.604	49.578	0	823.00	0	3.3770	0	34.2990	0	27.296	0	814.360	0	14.4	4	4.5	4	-1E+10	1	-1E+10	1	-1E+10	1	-1E+10	1	-1E+10	1	-1E+10	1
4902554	13	C	06/10/2021	14:07	-136.604	49.578	0	827.90	0	3.3600	0	34.3020	0	27.300	0	819.199	0	14.4	4	4.5	4	-1E+10	1	-1E+10	1	-1E+10	1	-1E+10	1	-1E+10	1	-1E+10	1
4902554	13	C	06/10/2021	14:07	-136.604	49.578	0	832.80	0	3.3440	0	34.3050	0	27.304	0	824.038	0	14.3	4	4.4	4	-1E+10	1	-1E+10	1	-1E+10	1	-1E+10	1	-1E+10	1	-1E+10	1
4902554	13	C	06/10/2021	14:07	-136.604	49.578	0	837.80	0	3.3290	0	34.3080	0	27.308	0	828.975	0	14.2	4	4.4	4	-1E+10	1	-1E+10	1	-1E+10	1	-1E+10	1	-1E+10	1	-1E+10	1
4902554	13	C	06/10/2021	14:07	-136.604	49.578	0	842.60	0	3.3180	0	34.3120	0	27.312	0	833.715	0	14.1	4	4.4	4	-1E+10	1	-1E+10	1	-1E+10	1	-1E+10	1	-1E+10	1	-1E+10	1
4902554	13	C	06/10/2021	14:07	-136.604	49.578	0	847.90	0	3.3120	0	34.3130	0	27.313	0	838.949	0	14.0	4	4.4	4	-1E+10	1	-1E+10	1	-1E+10	1	-1E+10	1	-1E+10	1	-1E+10	1
4902554	13	C	06/10/2021	14:07	-136.604	49.578	0	853.30	0	3.3040	0	34.3160	0	27.316	0	844.281	0	14.0	4	4.3	4	-1E+10	1	-1E+10	1	-1E+10	1	-1E+10	1	-1E+10	1	-1E+10	1
4902554	13	C	06/10/2021	14:07	-136.604	49.578	0	858.30	0	3.2930	0	34.3170	0	27.318	0	849.218	0	14.0	4	4.3	4	-1E+10	1	-1E+10	1	-1E+10	1	-1E+10	1	-1E+10	1	-1E+10	1
4902554	13	C	06/10/2021	14:07	-136.604	49.578	0	863.30	0	3.2850	0	34.3190	0	27.321	0	854.155	0	13.9	4	4.3	4	-1E+10	1	-1E+10	1	-1E+10	1	-1E+10	1	-1E+10	1	-1E+10	1
4902554	13	C	06/10/2021	14:07	-136.604	49.578	0	868.00	0	3.2750	0	34.3210	0	27.323	0	858.795	0	13.8	4	4.3	4	-1E+10	1	-1E+10	1	-1E+10	1	-1E+10	1	-1E+10	1	-1E+10	1
4902554	13	C	06/10/2021	14:07	-136.604	49.578	0	872.70	0	3.2680	0	34.3230	0	27.326	0	863.436	0	13.8	4	4.3	4	-1E+10	1	-1E+10	1	-1E+10	1	-1E+10	1	-1E+10	1	-1E+10	1
4902554	13	C	06/10/2021	14:07	-136.604	49.578	0	877.90	0	3.2650	0	34.3240	0	27.327	0	868.570	0	13.8	4	4.3	4	-1E+10	1	-1E+10	1	-1E+10	1	-1E+10	1	-1E+10	1	-1E+10	1
4902554	13	C	06/10/2021	14:07	-136.604	49.578	0	883.20	0	3.2520	0	34.3260	0	27.329	0	873.802	0	13.8	4	4.3	4	-1E+10	1	-1E+10	1	-1E+10	1	-1E+10	1	-1E+10	1	-1E+10	1
4902554	13	C	06/10/2021	14:07	-136.604	49.578	0	888.00	0	3.2410	0	34.3290	0	27.333	0	878.541	0	13.8	4	4.3	4	-1E+10	1	-1E+10	1	-1E+10	1	-1E+10	1	-1E+10	1	-1E+10	1
4902554	13	C	06/10/2021	14:07	-136.604	49.578	0	892.80	0	3.2290	0	34.3310	0	27.336	0	883.280	0	13.8	4	4.3	4	-1E+10	1	-1E+10	1	-1E+10	1	-1E+10	1	-1E+10	1	-1E+10	1
4902554	13	C	06/10/2021	14:07	-136.604	49.578	0	898.00	0	3.2200	0	34.3330	0	27.338	0	888.413	0	13.7	4	4.3	4	-1E+10	1	-1E+10	1	-1E+10	1	-1E+10	1	-1E+10	1	-1E+10	1
4902554	13	C	06/10/2021	14:07	-136.604	49.578	0	902.90	0	3.2070	0	34.3350	0	27.341	0	893.251	0	13.7	4	4.3	4	-1E+10	1	-1E+10	1	-1E+10	1	-1E+10	1	-1E+10	1	-1E+10	1
4902554	13	C	06/10/2021	14:07	-136.604	49.578	0	907.80	0	3.1980	0	34.3370	0	27.343	0	898.088	0	13.7	4	4.2	4	-1E+10	1	-1E+10	1	-1E+10	1	-1E+10	1	-1E+10	1	-1E+10	1
4902554	13	C	06/10/2021	14:07	-136.604	49.578	0	913.10	0	3.1880	0	34.3390	0	27.346	0	903.320	0	13.7	4	4.2	4	-1E+10	1	-1E+10	1	-1E+10	1	-1E+10	1	-1E+10	1	-1E+10	1
4902554	13	C	06/10/2021	14:07	-136.604	49.578	0	918.00	0	3.1810	0	34.3400	0	27.347	0	908.156	0	13.7	4	4.2	4	-1E+10	1	-1E+10	1	-1E+10	1	-1E+10	1	-1E+10	1	-1E+10	1
4902554	13	C	06/10/2021	14:07	-136.604	49.578	0	922.90	0	3.1760	0	34.3410	0	27.349	0	912.993	0	13.7	4	4.2	4	-1E+10	1	-1E+10	1	-1E+10	1	-1E+10	1	-1E+10	1	-1E+10	1
4902554	13	C	06/10/2021	14:07	-136.604	49.578	0	927.80	0	3.1670	0	34.3430	0	27.351	0	917.830	0	13.7	4	4.2	4	-1E+10	1	-1E+10	1	-1E+10	1	-1E+10	1	-1E+10	1	-1E+10	1
4902554	13	C	06/10/2021	14:07	-136.604	49.578	0	932.80	0	3.1530	0	34.3460	0	27.355	0	922.765	0	13.7	4	4.2	4	-1E+10	1	-1E+10	1	-1E+10	1	-1E+10	1	-1E+10	1	-1E+10	1
4902554	13	C	06/10/2021	14:07	-136.604	49.578	0	938.10	0	3.1350	0	34.3490	0	27.359	0	927.996	0	13.7	4	4.2	4	-1E+10	1	-1E+10	1	-1E+10	1	-1E+10	1	-1E+10	1	-1E+10	1
4902554	13	C	06/10/2021	14:07	-136.604	49.578	0	943.00	0	3.1280	0	34.3510	0	27.361	0	932.833	0	13.7	4	4.2	4	-1E+10	1	-1E+10	1	-1E+10	1	-1E+10	1	-1E+10	1	-1E+10	1
4902554	13	C	06/10/2021	14:07	-136.604	49.578	0	948.00	0	3.1160	0	34.3530	0	27.364	0	937.768	0	13.7	4	4.2	4	-1E+10	1	-1E+10	1	-1E+10	1	-1E+10	1	-1E+10	1	-1E+10	1
4902554	13	C	06/10/2021	14:07	-136.604	49.578	0	952.90	0	3.1040	0	34.3560	0	27.367	0	942.604	0	13.7	4	4.3	4	-1E+10	1	-1E+10	1	-1E+10	1	-1E+10	1	-1E+10	1	-1E+10	1
4902554	13	C	06/10/2021	14:07	-136.604	49.578	0	957.90	0	3.0960	0	34.3570	0	27.369	0	947.538	0	13.7	4	4.3	4	-1E+10	1	-1E+10	1	-1E+10	1	-1E+10	1	-1E+10	1	-1E+10	1
4902554	13	C	06/10/2021	14:07	-136.604	49.578	0	963.00	0	3.0920	0	34.3580	0	27.370	0	952.572	0	13.8	4	4.3	4	-1E+10	1	-1E+10	1	-1E+10	1	-1E+10	1	-1E+10	1	-1E+10	1
4902554	13	C	06/10/2021	14:07	-136.604	49.578	0	967.90	0	3.0780	0	34.3600	0	27.373	0	957.407	0	13.8	4	4.3	4	-1E+10	1	-1E+10	1	-1E+10	1	-1E+10	1	-1E+10	1	-1E+10	1
4902554	13	C	06/10/2021	14:07	-136.604	49.578	0	972.90	0	3.0680	0	34.3620	0	27.376	0	962.342	0	13.8	4	4.3	4	-1E+10	1	-1E+10	1	-1E+10	1	-1E+10	1	-1E+10	1	-1E+10	1
4902554	13	C	06/10/2021	14:07	-136.604	49.578	0	977.90	0	3.0560	0	34.3650	0	27.379	0	967.276	0	13.8	4	4.3	4	-1E+10	1	-1E+10	1	-1E+10	1	-1E+10	1	-1E+10	1	-1E+10	1
4902554	13	C	06/10/2021	14:07	-136.604	49.578	0	983.00	0	3.0460	0	34.3660	0	27.381	0	972.309	0	13.8	4	4.3	4	-1E+10	1	-1E+10	1	-1E+10	1	-1E+10	1	-1E+10	1	-1E+10	1
4902554	13	C	06/10/2021	14:07	-136.604	49.578	0	988.00	0	3.0380	0	34.3680	0	27.383	0	977.243	0	13.8	4	4.3	4	-1E+10	1	-1E+10	1	-1E+10	1	-1E+10	1	-1E+10	1	-1E+10	1
4902554	13	C	06/10/2021	14:07	-136.604	49.578	0	993.20	0	3.0300	0	34.3690	0	27.385	0	982.374	0	13.8	4	4.3	4	-1E+10	1	-1E+10	1	-1E+10	1	-1E+10	1	-1E+10	1	-1E+10	1
4902554	13	C	06/10/2021	14:07	-136.604	49.578	0	997.90	0	3.0190	0	34.3720	0	27.388	0	987.011	0	13.8	4	4.3	4	-1E+10	1	-1E+10	1	-1E+10	1	-1E+10	1	-1E+10	1	-1E+10	1
4902554	13	C	06/10/2021	14:07	-136.604	49.578	0	1005.10	0	3.0070	0	34.3730	0	27.390	0	994.116	0	13.8	4	4.3	4	-1E+10	1	-1E+10	1	-1E+10	1	-1E+10	1	-1E+10	1	-1E+10	1
4902554	13	C	06/10/2021	14:07	-136.604	49.578	0	1015.10	0	2.9900	0	34.3760	0	27.394	0	1003.983	0	13.8	4	4.2	4	-1E+10	1	-1E+10	1	-1E+10	1	-1E+10	1	-1E+10	1	-1E+10	1
4902554	13	C	06/10/2021	14:07	-136.604	49.578	0	1025.20	0	2.9730	0	34.3790	0	27.398	0	1013.948	0	13.6	4	4.2	4	-1E+10	1	-1E+10	1	-1E+10	1	-1E+10	1	-1E+10	1	-1E+10	1
4902554	13	C	06/10/2021	14:07	-136.604	49.578	0	1035.40	0	2.9520	0	34.3820	0	27.402	0	1024.011	0	13.5	4	4.2	4	-1E+10	1	-1E+10	1	-1E+10	1	-1E+10	1	-1E+10	1	-1E+10	1
4902554	13	C	06/10/2021	14:07	-136.604	49.578	0	1045.70	0	2.9290	0	34.3870	0	27.409	0	1034.172	0	13.5	4	4.2	4	-1E+10	1	-1E+10	1	-1E+10	1	-1E+10	1	-1E+10	1	-1E+10	1
4902554	13	C	06/10/2021	14:07	-136.604	49.578	0	1055.30	0	2.9150	0	34.3890	0	27.411	0	1043.642	0	13.6	4	4.2	4	-1E+10	1	-1E+10	1	-1E+10	1	-1E+10	1	-1E+10	1	-1E+10	1
4902554	13	C	06/10/2021	14:07	-136.604	49.578	0	1065.20	0	2.9020	0	34.3920	0	27.415	0	1053.408	0	13.4	4	4.1	4	-1E+10	1	-1E+10	1	-1E+10	1	-1E+10	1	-1E+10	1	-1E+10	1
4902554	13	C	06/10/2021	14:07	-136.604	49.578	0	1075.50	0	2.8900	0	34.3950	0	27.419	0	1063.568	0	13.4	4	4.1	4	-1E+10	1	-1E+10	1	-1E+10	1	-1E+10	1	-1E+10	1	-1E+10	1
4902554	13	C	06/10/2021	14:07	-136.604	49.578	0	1085.60	0	2.8820	0	34.3960	0	27.420	0	1073.530	0	13.4	4	4.1	4	-1E+10	1	-1E+10	1	-1E+10	1	-1E+10	1	-1E+10	1	-1E+10	1
4902554	13	C	06/10/2021	14:07	-136.604	49.578	0	1095.30	0	2.8680	0	34.3990	0	27.424	0	1083.097	0	13.4	4	4.1	4	-1E+10	1	-1E+10	1	-1E+10	1	-1E+10	1	-1E+10	1	-1E+10	1
4902554	13	C	06/10/2021	14:07	-136.604	49.578	0	1105.20	0	2.8520	0	34.4020	0	27.428	0	1092.861	0	13.4	4	4.1	4	-1E+10	1	-1E+10	1	-1E+10	1	-1E+10	1	-1E+10	1	-1E+10	1
4902554	13	C	06/10/2021	14:07	-136.604	49.578	0	1115.40	0	2.8410	0	34.4040	0	27.430	0	1102.921	0	13.5	4	4.2	4	-1E+10	1	-1E+10	1	-1E+10	1	-1E+10	1	-1E+10	1	-1E+10	1
4902554	13	C	06/10/2021	14:07	-136.604	49.578	0	1125.60	0	2.8250	0	34.4070	0	27.434	0	1112.979	0	13.6	4	4.2	4	-1E+10	1	-1E+10	1	-1E+10	1	-1E+10	1	-1E+10	1	-1E+10	1
4902554	13	C	06/10/2021	14:07	-136.604	49.578	0	1135.60	0	2.8100	0	34.4100	0	27.438	0	1122.841	0	13.6	4	4.2	4	-1E+10	1	-1E+10	1	-1E+10	1	-1E+10	1	-1E+10	1	-1E+10	1
4902554	13	C	06/10/2021	14:07	-136.604	49.578	0	1145.40	0	2.8010	0	34.4120	0	27.440	0	1132.504	0	13.6	4	4.2	4	-1E+10	1	-1E+10	1	-1E+10	1	-1E+10	1	-1E+10	1	-1E+10	1
4902554	13	C	06/10/2021	14:07	-136.604	49.578	0	1155.30	0	2.7940	0	34.4140	0	27.443	0	1142.266	0	13.7	4	4.2	4	-1E+10	1	-1E+10	1	-1E+10	1	-1E+10	1	-1E+10	1	-1E+10	1
4902554	13	C	06/10/2021	14:07	-136.604	49.578	0	1165.20	0	2.7800	0	34.4170	0	27.446	0	1152.027	0	13.7	4	4.2	4	-1E+10	1	-1E+10	1	-1E+10	1	-1E+10	1	-1E+10	1	-1E+10	1
4902554	13	C	06/10/2021	14:07	-136.604	49.578	0	1175.20	0	2.7650	0	34.4200	0	27.450	0	1161.886	0	13.6	4	4.2	4	-1E+10	1	-1E+10	1	-1E+10	1	-1E+10	1	-1E+10	1	-1E+10	1
4902554	13	C	06/10/2021	14:07	-136.604	49.578	0	1185.30	0	2.7480	0	34.4240	0	27.455	0	1171.844	0	13.6	4	4.2	4	-1E+10	1	-1E+10	1	-1E+10	1	-1E+10	1	-1E+10	1	-1E+10	1
4902554	13	C	06/10/2021	14:07	-136.604	49.578	0	1195.30	0	2.7350	0	34.4260	0	27.458	0	1181.702	0	13.7	4	4.2	4	-1E+10	1	-1E+10	1	-1E+10	1	-1E+10	1	-1E+10	1	-1E+10	1
4902554	13	C	06/10/2021	14:07	-136.604	49.578	0	1205.20	0	2.7170	0	34.4290	0	27.462	0	1191.461	0	13.8	4	4.2	4	-1E+10	1	-1E+10	1	-1E+10	1	-1E+10	1	-1E+10	1	-1E+10	1
4902554	13	C	06/10/2021	14:07	-136.604	49.578	0	1215.20	0	2.7090	0	34.4310	0	27.464	0	1201.319	0	13.8	4	4.2	4	-1E+10	1	-1E+10	1	-1E+10	1	-1E+10	1	-1E+10	1	-1E+10	1
4902554	13	C	06/10/2021	14:07	-136.604	49.578	0	1225.30	0	2.6960	0	34.4340	0	27.468	0	1211.274	0	13.9	4	4.2	4	-1E+10	1	-1E+10	1	-1E+10	1	-1E+10	1	-1E+10	1	-1E+10	1
4902554	13	C	06/10/2021	14:07	-136.604	49.578	0	1235.50	0	2.6810	0	34.4370	0	27.471	0	1221.328	0	13.9	4	4.3	4	-1E+10	1	-1E+10	1	-1E+10	1	-1E+10	1	-1E+10	1	-1E+10	1
4902554	13	C	06/10/2021	14:07	-136.604	49.578	0	1245.40	0	2.6660	0	34.4400	0	27.475	0	1231.086	0	14.1	4	4.3	4	-1E+10	1	-1E+10	1	-1E+10	1	-1E+10	1	-1E+10	1	-1E+10	1
4902554	13	C	06/10/2021	14:07	-136.604	49.578	0	1255.30	0	2.6490	0	34.4430	0	27.479	0	1240.843	0	14.2	4	4.4	4	-1E+10	1	-1E+10	1	-1E+10	1	-1E+10	1	-1E+10	1	-1E+10	1
4902554	13	C	06/10/2021	14:07	-136.604	49.578	0	1265.70	0	2.6340	0	34.4460	0	27.483	0	1251.092	0	14.4	4	4.4	4	-1E+10	1	-1E+10	1	-1E+10	1	-1E+10	1	-1E+10	1	-1E+10	1
4902554	13	C	06/10/2021	14:07	-136.604	49.578	0	1275.80	0	2.6210	0	34.4490	0	27.486	0	1261.045	0	14.6	4	4.5	4	-1E+10	1	-1E+10	1	-1E+10	1	-1E+10	1	-1E+10	1	-1E+10	1
4902554	13	C	06/10/2021	14:07	-136.604	49.578	0	1285.90	0	2.6140	0	34.4500	0	27.488	0	1270.998	0	14.7	4	4.5	4	-1E+10	1	-1E+10	1	-1E+10	1	-1E+10	1	-1E+10	1	-1E+10	1
4902554	13	C	06/10/2021	14:07	-136.604	49.578	0	1295.70	0	2.6010	0	34.4520	0	27.491	0	1280.654	0	14.9	4	4.6	4	-1E+10	1	-1E+10	1	-1E+10	1	-1E+10	1	-1E+10	1	-1E+10	1
4902554	13	C	06/10/2021	14:07	-136.604	49.578	0	1305.60	0	2.5870	0	34.4550	0	27.494	0	1290.409	0	15.1	4	4.6	4	-1E+10	1	-1E+10	1	-1E+10	1	-1E+10	1	-1E+10	1	-1E+10	1
4902554	13	C	06/10/2021	14:07	-136.604	49.578	0	1315.40	0	2.5700	0	34.4580	0	27.498	0	1300.065	0	15.3	4	4.7	4	-1E+10	1	-1E+10	1	-1E+10	1	-1E+10	1	-1E+10	1	-1E+10	1
4902554	13	C	06/10/2021	14:07	-136.604	49.578	0	1325.50	0	2.5590	0	34.4600	0	27.501	0	1310.016	0	15.4	4	4.7	4	-1E+10	1	-1E+10	1	-1E+10	1	-1E+10	1	-1E+10	1	-1E+10	1
4902554	13	C	06/10/2021	14:07	-136.604	49.578	0	1335.30	0	2.5490	0	34.4620	0	27.503	0	1319.671	0	15.6	4	4.8	4	-1E+10	1	-1E+10	1	-1E+10	1	-1E+10	1	-1E+10	1	-1E+10	1
4902554	13	C	06/10/2021	14:07	-136.604	49.578	0	1345.30	0	2.5390	0	34.4650	0	27.506	0	1329.522	0	15.8	4	4.8	4	-1E+10	1	-1E+10	1	-1E+10	1	-1E+10	1	-1E+10	1	-1E+10	1
4902554	13	C	06/10/2021	14:07	-136.604	49.578	0	1355.50	0	2.5260	0	34.4670	0	27.509	0	1339.570	0	16.0	4	4.9	4	-1E+10	1	-1E+10	1	-1E+10	1	-1E+10	1	-1E+10	1	-1E+10	1
4902554	13	C	06/10/2021	14:07	-136.604	49.578	0	1365.50	0	2.5140	0	34.4690	0	27.512	0	1349.421	0	16.2	4	4.9	4	-1E+10	1	-1E+10	1	-1E+10	1	-1E+10	1	-1E+10	1	-1E+10	1
4902554	13	C	06/10/2021	14:07	-136.604	49.578	0	1375.60	0	2.5070	0	34.4710	0	27.514	0	1359.369	0	16.4	4	5.0	4	-1E+10	1	-1E+10	1	-1E+10	1	-1E+10	1	-1E+10	1	-1E+10	1
4902554	13	C	06/10/2021	14:07	-136.604	49.578	0	1385.40	0	2.4990	0	34.4720	0	27.516	0	1369.022	0	16.6	4	5.1	4	-1E+10	1	-1E+10	1	-1E+10	1	-1E+10	1	-1E+10	1	-1E+10	1
4902554	13	C	06/10/2021	14:07	-136.604	49.578	0	1395.10	0	2.4880	0	34.4750	0	27.519	0	1378.575	0	16.8	4	5.1	4	-1E+10	1	-1E+10	1	-1E+10	1	-1E+10	1	-1E+10	1	-1E+10	1
4902554	13	C	06/10/2021	14:07	-136.604	49.578	0	1405.50	0	2.4770	0	34.4770	0	27.522	0	1388.818	0	17.1	4	5.2	4	-1E+10	1	-1E+10	1	-1E+10	1	-1E+10	1	-1E+10	1	-1E+10	1
4902554	13	C	06/10/2021	14:07	-136.604	49.578	0	1415.90	0	2.4660	0	34.4790	0	27.524	0	1399.060	0	17.4	4	5.3	4	-1E+10	1	-1E+10	1	-1E+10	1	-1E+10	1	-1E+10	1	-1E+10	1
4902554	13	C	06/10/2021	14:07	-136.604	49.578	0	1425.50	0	2.4500	0	34.4820	0	27.528	0	1408.514	0	17.8	4	5.4	4	-1E+10	1	-1E+10	1	-1E+10	1	-1E+10	1	-1E+10	1	-1E+10	1
4902554	13	C	06/10/2021	14:07	-136.604	49.578	0	1435.30	0	2.4380	0	34.4850	0	27.531	0	1418.164	0	18.1	4	5.5	4	-1E+10	1	-1E+10	1	-1E+10	1	-1E+10	1	-1E+10	1	-1E+10	1
4902554	13	C	06/10/2021	14:07	-136.604	49.578	0	1445.30	0	2.4270	0	34.4870	0	27.534	0	1428.011	0	18.4	4	5.6	4	-1E+10	1	-1E+10	1	-1E+10	1	-1E+10	1	-1E+10	1	-1E+10	1
4902554	13	C	06/10/2021	14:07	-136.604	49.578	0	1455.60	0	2.4200	0	34.4880	0	27.535	0	1438.153	0	18.7	4	5.7	4	-1E+10	1	-1E+10	1	-1E+10	1	-1E+10	1	-1E+10	1	-1E+10	1
4902554	13	C	06/10/2021	14:07	-136.604	49.578	0	1465.40	0	2.4100	0	34.4900	0	27.538	0	1447.802	0	19.1	4	5.8	4	-1E+10	1	-1E+10	1	-1E+10	1	-1E+10	1	-1E+10	1	-1E+10	1
4902554	13	C	06/10/2021	14:07	-136.604	49.578	0	1475.40	0	2.3970	0	34.4930	0	27.541	0	1457.647	0	19.5	4	5.9	4	-1E+10	1	-1E+10	1	-1E+10	1	-1E+10	1	-1E+10	1	-1E+10	1
4902554	13	C	06/10/2021	14:07	-136.604	49.578	0	1485.50	0	2.3880	0	34.4950	0	27.544	0	1467.591	0	19.7	4	6.0	4	-1E+10	1	-1E+10	1	-1E+10	1	-1E+10	1	-1E+10	1	-1E+10	1
4902554	13	C	06/10/2021	14:07	-136.604	49.578	0	1495.20	0	2.3830	0	34.4960	0	27.545	0	1477.140	0	20.0	4	6.1	4	-1E+10	1	-1E+10	1	-1E+10	1	-1E+10	1	-1E+10	1	-1E+10	1
4902554	13	C	06/10/2021	14:07	-136.604	49.578	0	1505.50	0	2.3730	0	34.4980	0	27.548	0	1487.279	0	20.4	4	6.2	4	-1E+10	1	-1E+10	1	-1E+10	1	-1E+10	1	-1E+10	1	-1E+10	1
4902554	13	C	06/10/2021	14:07	-136.604	49.578	0	1515.70	0	2.3630	0	34.5000	0	27.550	0	1497.320	0	20.8	4	6.3	4	-1E+10	1	-1E+10	1	-1E+10	1	-1E+10	1	-1E+10	1	-1E+10	1
4902554	13	C	06/10/2021	14:07	-136.604	49.578	0	1525.60	0	2.3510	0	34.5030	0	27.554	0	1507.064	0	21.2	4	6.5	4	-1E+10	1	-1E+10	1	-1E+10	1	-1E+10	1	-1E+10	1	-1E+10	1
4902554	13	C	06/10/2021	14:07	-136.604	49.578	0	1535.40	0	2.3430	0	34.5040	0	27.555	0	1516.710	0	21.6	4	6.6	4	-1E+10	1	-1E+10	1	-1E+10	1	-1E+10	1	-1E+10	1	-1E+10	1
4902554	13	C	06/10/2021	14:07	-136.604	49.578	0	1545.30	0	2.3350	0	34.5060	0	27.557	0	1526.454	0	22.0	4	6.7	4	-1E+10	1	-1E+10	1	-1E+10	1	-1E+10	1	-1E+10	1	-1E+10	1
4902554	13	C	06/10/2021	14:07	-136.604	49.578	0	1555.50	0	2.3280	0	34.5070	0	27.559	0	1536.492	0	22.5	4	6.8	4	-1E+10	1	-1E+10	1	-1E+10	1	-1E+10	1	-1E+10	1	-1E+10	1
4902554	13	C	06/10/2021	14:07	-136.604	49.578	0	1565.70	0	2.3160	0	34.5100	0	27.562	0	1546.530	0	23.2	4	7.0	4	-1E+10	1	-1E+10	1	-1E+10	1	-1E+10	1	-1E+10	1	-1E+10	1
4902554	13	C	06/10/2021	14:07	-136.604	49.578	0	1575.30	0	2.3010	0	34.5130	0	27.566	0	1555.978	0	23.9	4	7.2	4	-1E+10	1	-1E+10	1	-1E+10	1	-1E+10	1	-1E+10	1	-1E+10	1
4902554	13	C	06/10/2021	14:07	-136.604	49.578	0	1585.30	0	2.2870	0	34.5150	0	27.569	0	1565.818	0	24.5	4	7.4	4	-1E+10	1	-1E+10	1	-1E+10	1	-1E+10	1	-1E+10	1	-1E+10	1
4902554	13	C	06/10/2021	14:07	-136.604	49.578	0	1595.30	0	2.2750	0	34.5180	0	27.572	0	1575.658	0	25.0	4	7.6	4	-1E+10	1	-1E+10	1	-1E+10	1	-1E+10	1	-1E+10	1	-1E+10	1
4902554	13	C	06/10/2021	14:07	-136.604	49.578	0	1605.50	0	2.2660	0	34.5200	0	27.574	0	1585.694	0	25.6	4	7.8	4	-1E+10	1	-1E+10	1	-1E+10	1	-1E+10	1	-1E+10	1	-1E+10	1
4902554	13	C	06/10/2021	14:07	-136.604	49.578	0	1615.70	0	2.2560	0	34.5210	0	27.576	0	1595.730	0	26.3	4	8.0	4	-1E+10	1	-1E+10	1	-1E+10	1	-1E+10	1	-1E+10	1	-1E+10	1
4902554	13	C	06/10/2021	14:07	-136.604	49.578	0	1625.60	0	2.2430	0	34.5240	0	27.580	0	1605.470	0	27.0	4	8.2	4	-1E+10	1	-1E+10	1	-1E+10	1	-1E+10	1	-1E+10	1	-1E+10	1
4902554	13	C	06/10/2021	14:07	-136.604	49.578	0	1635.60	0	2.2310	0	34.5270	0	27.583	0	1615.308	0	27.6	4	8.4	4	-1E+10	1	-1E+10	1	-1E+10	1	-1E+10	1	-1E+10	1	-1E+10	1
4902554	13	C	06/10/2021	14:07	-136.604	49.578	0	1645.40	0	2.2220	0	34.5280	0	27.585	0	1624.949	0	28.1	4	8.5	4	-1E+10	1	-1E+10	1	-1E+10	1	-1E+10	1	-1E+10	1	-1E+10	1
4902554	13	C	06/10/2021	14:07	-136.604	49.578	0	1655.50	0	2.2130	0	34.5300	0	27.587	0	1634.885	0	28.6	4	8.7	4	-1E+10	1	-1E+10	1	-1E+10	1	-1E+10	1	-1E+10	1	-1E+10	1
4902554	13	C	06/10/2021	14:07	-136.604	49.578	0	1665.70	0	2.2070	0	34.5320	0	27.589	0	1644.918	0	29.1	4	8.8	4	-1E+10	1	-1E+10	1	-1E+10	1	-1E+10	1	-1E+10	1	-1E+10	1
4902554	13	C	06/10/2021	14:07	-136.604	49.578	0	1675.50	0	2.2000	0	34.5330	0	27.591	0	1654.557	0	29.7	4	9.0	4	-1E+10	1	-1E+10	1	-1E+10	1	-1E+10	1	-1E+10	1	-1E+10	1
4902554	13	C	06/10/2021	14:07	-136.604	49.578	0	1685.50	0	2.1890	0	34.5350	0	27.593	0	1664.393	0	30.4	4	9.2	4	-1E+10	1	-1E+10	1	-1E+10	1	-1E+10	1	-1E+10	1	-1E+10	1
4902554	13	C	06/10/2021	14:07	-136.604	49.578	0	1695.70	0	2.1770	0	34.5370	0	27.596	0	1674.425	0	31.2	4	9.5	4	-1E+10	1	-1E+10	1	-1E+10	1	-1E+10	1	-1E+10	1	-1E+10	1
4902554	13	C	06/10/2021	14:07	-136.604	49.578	0	1705.30	0	2.1650	0	34.5400	0	27.599	0	1683.867	0	31.9	4	9.7	4	-1E+10	1	-1E+10	1	-1E+10	1	-1E+10	1	-1E+10	1	-1E+10	1
4902554	13	C	06/10/2021	14:07	-136.604	49.578	0	1715.20	0	2.1550	0	34.5420	0	27.602	0	1693.603	0	32.6	4	9.9	4	-1E+10	1	-1E+10	1	-1E+10	1	-1E+10	1	-1E+10	1	-1E+10	1
4902554	13	C	06/10/2021	14:07	-136.604	49.578	0	1725.30	0	2.1470	0	34.5440	0	27.604	0	1703.535	0	33.2	4	10.1	4	-1E+10	1	-1E+10	1	-1E+10	1	-1E+10	1	-1E+10	1	-1E+10	1
4902554	13	C	06/10/2021	14:07	-136.604	49.578	0	1735.30	0	2.1370	0	34.5460	0	27.606	0	1713.369	0	33.9	4	10.3	4	-1E+10	1	-1E+10	1	-1E+10	1	-1E+10	1	-1E+10	1	-1E+10	1
4902554	13	C	06/10/2021	14:07	-136.604	49.578	0	1745.60	0	2.1280	0	34.5470	0	27.608	0	1723.497	0	34.6	4	10.5	4	-1E+10	1	-1E+10	1	-1E+10	1	-1E+10	1	-1E+10	1	-1E+10	1
4902554	13	C	06/10/2021	14:07	-136.604	49.578	0	1755.70	0	2.1190	0	34.5490	0	27.610	0	1733.427	0	35.2	4	10.7	4	-1E+10	1	-1E+10	1	-1E+10	1	-1E+10	1	-1E+10	1	-1E+10	1
4902554	13	C	06/10/2021	14:07	-136.604	49.578	0	1765.70	0	2.1110	0	34.5510	0	27.613	0	1743.260	0	35.9	4	10.9	4	-1E+10	1	-1E+10	1	-1E+10	1	-1E+10	1	-1E+10	1	-1E+10	1
4902554	13	C	06/10/2021	14:07	-136.604	49.578	0	1775.40	0	2.1030	0	34.5520	0	27.614	0	1752.796	0	36.5	4	11.0	4	-1E+10	1	-1E+10	1	-1E+10	1	-1E+10	1	-1E+10	1	-1E+10	1
4902554	13	C	06/10/2021	14:07	-136.604	49.578	0	1785.30	0	2.0960	0	34.5540	0	27.616	0	1762.529	0	37.1	4	11.2	4	-1E+10	1	-1E+10	1	-1E+10	1	-1E+10	1	-1E+10	1	-1E+10	1
4902554	13	C	06/10/2021	14:07	-136.604	49.578	0	1795.30	0	2.0880	0	34.5550	0	27.618	0	1772.360	0	37.7	4	11.4	4	-1E+10	1	-1E+10	1	-1E+10	1	-1E+10	1	-1E+10	1	-1E+10	1
4902554	13	C	06/10/2021	14:07	-136.604	49.578	0	1805.40	0	2.0810	0	34.5570	0	27.620	0	1782.289	0	38.4	4	11.6	4	-1E+10	1	-1E+10	1	-1E+10	1	-1E+10	1	-1E+10	1	-1E+10	1
4902554	13	C	06/10/2021	14:07	-136.604	49.578	0	1815.60	0	2.0700	0	34.5590	0	27.622	0	1792.315	0	39.2	4	11.8	4	-1E+10	1	-1E+10	1	-1E+10	1	-1E+10	1	-1E+10	1	-1E+10	1
4902554	13	C	06/10/2021	14:07	-136.604	49.578	0	1825.40	0	2.0620	0	34.5600	0	27.624	0	1801.948	0	39.8	4	12.0	4	-1E+10	1	-1E+10	1	-1E+10	1	-1E+10	1	-1E+10	1	-1E+10	1
4902554	13	C	06/10/2021	14:07	-136.604	49.578	0	1835.30	0	2.0540	0	34.5620	0	27.626	0	1811.678	0	40.5	4	12.2	4	-1E+10	1	-1E+10	1	-1E+10	1	-1E+10	1	-1E+10	1	-1E+10	1
4902554	13	C	06/10/2021	14:07	-136.604	49.578	0	1845.40	0	2.0460	0	34.5640	0	27.629	0	1821.605	0	41.1	4	12.4	4	-1E+10	1	-1E+10	1	-1E+10	1	-1E+10	1	-1E+10	1	-1E+10	1
4902554	13	C	06/10/2021	14:07	-136.604	49.578	0	1855.50	0	2.0390	0	34.5650	0	27.630	0	1831.531	0	41.8	4	12.6	4	-1E+10	1	-1E+10	1	-1E+10	1	-1E+10	1	-1E+10	1	-1E+10	1
4902554	13	C	06/10/2021	14:07	-136.604	49.578	0	1865.70	0	2.0290	0	34.5670	0	27.632	0	1841.556	0	42.5	4	12.8	4	-1E+10	1	-1E+10	1	-1E+10	1	-1E+10	1	-1E+10	1	-1E+10	1
4902554	13	C	06/10/2021	14:07	-136.604	49.578	0	1875.40	0	2.0220	0	34.5680	0	27.634	0	1851.088	0	43.0	4	13.0	4	-1E+10	1	-1E+10	1	-1E+10	1	-1E+10	1	-1E+10	1	-1E+10	1
4902554	13	C	06/10/2021	14:07	-136.604	49.578	0	1885.50	0	2.0160	0	34.5700	0	27.636	0	1861.013	0	43.5	4	13.1	4	-1E+10	1	-1E+10	1	-1E+10	1	-1E+10	1	-1E+10	1	-1E+10	1
4902554	13	C	06/10/2021	14:07	-136.604	49.578	0	1895.50	0	2.0110	0	34.5710	0	27.637	0	1870.839	0	44.1	4	13.3	4	-1E+10	1	-1E+10	1	-1E+10	1	-1E+10	1	-1E+10	1	-1E+10	1
4902554	13	C	06/10/2021	14:07	-136.604	49.578	0	1905.60	0	2.0030	0	34.5720	0	27.639	0	1880.763	0	44.7	4	13.5	4	-1E+10	1	-1E+10	1	-1E+10	1	-1E+10	1	-1E+10	1	-1E+10	1
4902554	13	C	06/10/2021	14:07	-136.604	49.578	0	1915.60	0	1.9950	0	34.5740	0	27.641	0	1890.588	0	45.3	4	13.6	4	-1E+10	1	-1E+10	1	-1E+10	1	-1E+10	1	-1E+10	1	-1E+10	1
4902554	13	C	06/10/2021	14:07	-136.604	49.578	0	1925.40	0	1.9910	0	34.5750	0	27.642	0	1900.217	0	45.8	4	13.8	4	-1E+10	1	-1E+10	1	-1E+10	1	-1E+10	1	-1E+10	1	-1E+10	1
4902554	13	C	06/10/2021	14:07	-136.604	49.578	0	1935.30	0	1.9840	0	34.5760	0	27.643	0	1909.943	0	46.3	4	14.0	4	-1E+10	1	-1E+10	1	-1E+10	1	-1E+10	1	-1E+10	1	-1E+10	1
4902554	13	C	06/10/2021	14:07	-136.604	49.578	0	1945.50	0	1.9790	0	34.5770	0	27.645	0	1919.963	0	46.9	4	14.1	4	-1E+10	1	-1E+10	1	-1E+10	1	-1E+10	1	-1E+10	1	-1E+10	1
4902554	13	C	06/10/2021	14:07	-136.604	49.578	0	1955.50	0	1.9710	0	34.5790	0	27.647	0	1929.787	0	47.5	4	14.3	4	-1E+10	1	-1E+10	1	-1E+10	1	-1E+10	1	-1E+10	1	-1E+10	1
4902554	13	C	06/10/2021	14:07	-136.604	49.578	0	1965.70	0	1.9640	0	34.5800	0	27.648	0	1939.806	0	48.1	4	14.5	4	-1E+10	1	-1E+10	1	-1E+10	1	-1E+10	1	-1E+10	1	-1E+10	1
4902554	13	C	06/10/2021	14:07	-136.604	49.578	0	1975.50	0	1.9580	0	34.5820	0	27.650	0	1949.432	0	48.7	4	14.7	4	-1E+10	1	-1E+10	1	-1E+10	1	-1E+10	1	-1E+10	1	-1E+10	1
4902554	13	C	06/10/2021	14:07	-136.604	49.578	0	1985.40	0	1.9500	0	34.5830	0	27.652	0	1959.156	0	49.1	4	14.8	4	-1E+10	1	-1E+10	1	-1E+10	1	-1E+10	1	-1E+10	1	-1E+10	1
4902554	13	C	06/10/2021	14:07	-136.604	49.578	0	1994.70	0	1.9450	0	34.5840	0	27.653	0	1968.290	0	48.8	4	14.7	4	-1E+10	1	-1E+10	1	-1E+10	1	-1E+10	1	-1E+10	1	-1E+10	1
4902554	13	C	06/10/2021	14:07	-136.604	49.578	0																										
4902554	14	C	06/20/2021	19:07	-136.524	49.608	0	0.40	0	10.5310	0	32.2710	0	24.733	0	0.397	0	-1e10	8	-1e10	8	-1E+10	1	-1E+10	1	-1E+10	1	-1E+10	1	-1E+10	1	-1E+10	1
4902554	14	C	06/20/2021	19:07	-136.524	49.608	0	1.00	0	10.5140	0	32.2840	0	24.746	0	0.991	0	-1e10	8	-1e10	8	-1E+10	1	-1E+10	1	-1E+10	1	-1E+10	1	-1E+10	1	-1E+10	1
4902554	14	C	06/20/2021	19:07	-136.524	49.608	0	1.90	0	10.5060	0	32.2860	0	24.749	0	1.884	0	-1e10	8	-1e10	8	-1E+10	1	-1E+10	1	-1E+10	1	-1E+10	1	-1E+10	1	-1E+10	1
4902554	14	C	06/20/2021	19:07	-136.524	49.608	0	2.90	0	10.5030	0	32.2850	0	24.749	0	2.875	0	-1e10	8	-1e10	8	-1E+10	1	-1E+10	1	-1E+10	1	-1E+10	1	-1E+10	1	-1E+10	1
4902554	14	C	06/20/2021	19:07	-136.524	49.608	0	4.00	0	10.4980	0	32.2910	0	24.754	0	3.966	0	-1e10	8	-1e10	8	-1E+10	1	-1E+10	1	-1E+10	1	-1E+10	1	-1E+10	1	-1E+10	1
4902554	14	C	06/20/2021	19:07	-136.524	49.608	0	5.10	0	10.4830	0	32.3040	0	24.767	0	5.056	0	-1e10	8	-1e10	8	-1E+10	1	-1E+10	1	-1E+10	1	-1E+10	1	-1E+10	1	-1E+10	1
4902554	14	C	06/20/2021	19:07	-136.524	49.608	0	5.90	0	10.4750	0	32.3020	0	24.767	0	5.850	0	-1e10	8	-1e10	8	-1E+10	1	-1E+10	1	-1E+10	1	-1E+10	1	-1E+10	1	-1E+10	1
4902554	14	C	06/20/2021	19:07	-136.524	49.608	0	7.00	0	10.4570	0	32.3030	0	24.771	0	6.940	0	-1e10	8	-1e10	8	-1E+10	1	-1E+10	1	-1E+10	1	-1E+10	1	-1E+10	1	-1E+10	1
4902554	14	C	06/20/2021	19:07	-136.524	49.608	0	8.10	0	10.4370	0	32.3040	0	24.775	0	8.031	0	-1e10	8	-1e10	8	-1E+10	1	-1E+10	1	-1E+10	1	-1E+10	1	-1E+10	1	-1E+10	1
4902554	14	C	06/20/2021	19:07	-136.524	49.608	0	9.20	0	10.4270	0	32.3050	0	24.777	0	9.121	0	-1e10	8	-1e10	8	-1E+10	1	-1E+10	1	-1E+10	1	-1E+10	1	-1E+10	1	-1E+10	1
4902554	14	C	06/20/2021	19:07	-136.524	49.608	0	9.90	0	10.4250	0	32.3030	0	24.776	0	9.815	0	-1e10	8	-1e10	8	-1E+10	1	-1E+10	1	-1E+10	1	-1E+10	1	-1E+10	1	-1E+10	1
4902554	14	C	06/20/2021	19:07	-136.524	49.608	0	10.90	0	10.4220	0	32.3050	0	24.778	0	10.807	0	-1e10	8	-1e10	8	-1E+10	1	-1E+10	1	-1E+10	1	-1E+10	1	-1E+10	1	-1E+10	1
4902554	14	C	06/20/2021	19:07	-136.524	49.608	0	11.90	0	10.4170	0	32.3040	0	24.778	0	11.798	0	-1e10	8	-1e10	8	-1E+10	1	-1E+10	1	-1E+10	1	-1E+10	1	-1E+10	1	-1E+10	1
4902554	14	C	06/20/2021	19:07	-136.524	49.608	0	12.90	0	10.4150	0	32.3040	0	24.779	0	12.789	0	-1e10	8	-1e10	8	-1E+10	1	-1E+10	1	-1E+10	1	-1E+10	1	-1E+10	1	-1E+10	1
4902554	14	C	06/20/2021	19:07	-136.524	49.608	0	13.90	0	10.4160	0	32.3040	0	24.778	0	13.781	0	-1e10	8	-1e10	8	-1E+10	1	-1E+10	1	-1E+10	1	-1E+10	1	-1E+10	1	-1E+10	1
4902554	14	C	06/20/2021	19:07	-136.524	49.608	0	14.90	0	10.4140	0	32.3020	0	24.777	0	14.772	0	-1e10	8	-1e10	8	-1E+10	1	-1E+10	1	-1E+10	1	-1E+10	1	-1E+10	1	-1E+10	1
4902554	14	C	06/20/2021	19:07	-136.524	49.608	0	15.80	0	10.4070	0	32.3040	0	24.780	0	15.665	0	-1e10	8	-1e10	8	-1E+10	1	-1E+10	1	-1E+10	1	-1E+10	1	-1E+10	1	-1E+10	1
4902554	14	C	06/20/2021	19:07	-136.524	49.608	0	17.00	0	10.4010	0	32.3050	0	24.782	0	16.854	0	-1e10	8	-1e10	8	-1E+10	1	-1E+10	1	-1E+10	1	-1E+10	1	-1E+10	1	-1E+10	1
4902554	14	C	06/20/2021	19:07	-136.524	49.608	0	17.90	0	10.4000	0	32.3050	0	24.782	0	17.746	0	-1e10	8	-1e10	8	-1E+10	1	-1E+10	1	-1E+10	1	-1E+10	1	-1E+10	1	-1E+10	1
4902554	14	C	06/20/2021	19:07	-136.524	49.608	0	19.10	0	10.3980	0	32.3050	0	24.782	0	18.936	0	-1e10	8	-1e10	8	-1E+10	1	-1E+10	1	-1E+10	1	-1E+10	1	-1E+10	1	-1E+10	1
4902554	14	C	06/20/2021	19:07	-136.524	49.608	0	20.30	0	10.3950	0	32.3040	0	24.782	0	20.126	0	-1e10	8	-1e10	8	-1E+10	1	-1E+10	1	-1E+10	1	-1E+10	1	-1E+10	1	-1E+10	1
4902554	14	C	06/20/2021	19:07	-136.524	49.608	0	21.20	0	10.3910	0	32.3050	0	24.784	0	21.018	0	-1e10	8	-1e10	8	-1E+10	1	-1E+10	1	-1E+10	1	-1E+10	1	-1E+10	1	-1E+10	1
4902554	14	C	06/20/2021	19:07	-136.524	49.608	0	21.80	0	10.3880	0	32.3040	0	24.783	0	21.613	0	-1e10	8	-1e10	8	-1E+10	1	-1E+10	1	-1E+10	1	-1E+10	1	-1E+10	1	-1E+10	1
4902554	14	C	06/20/2021	19:07	-136.524	49.608	0	22.80	0	10.3830	0	32.3040	0	24.784	0	22.604	0	-1e10	8	-1e10	8	-1E+10	1	-1E+10	1	-1E+10	1	-1E+10	1	-1E+10	1	-1E+10	1
4902554	14	C	06/20/2021	19:07	-136.524	49.608	0	23.90	0	10.3670	0	32.3060	0	24.788	0	23.695	0	-1e10	8	-1e10	8	-1E+10	1	-1E+10	1	-1E+10	1	-1E+10	1	-1E+10	1	-1E+10	1
4902554	14	C	06/20/2021	19:07	-136.524	49.608	0	24.90	0	10.3230	0	32.3040	0	24.794	0	24.686	0	-1e10	8	-1e10	8	-1E+10	1	-1E+10	1	-1E+10	1	-1E+10	1	-1E+10	1	-1E+10	1
4902554	14	C	06/20/2021	19:07	-136.524	49.608	0	26.00	0	10.2020	0	32.3100	0	24.819	0	25.776	0	-1e10	8	-1e10	8	-1E+10	1	-1E+10	1	-1E+10	1	-1E+10	1	-1E+10	1	-1E+10	1
4902554	14	C	06/20/2021	19:07	-136.524	49.608	0	27.20	0	9.9530	0	32.3260	0	24.873	0	26.966	0	-1e10	8	-1e10	8	-1E+10	1	-1E+10	1	-1E+10	1	-1E+10	1	-1E+10	1	-1E+10	1
4902554	14	C	06/20/2021	19:07	-136.524	49.608	0	28.00	0	9.8910	0	32.3300	0	24.887	0	27.759	0	-1e10	8	-1e10	8	-1E+10	1	-1E+10	1	-1E+10	1	-1E+10	1	-1E+10	1	-1E+10	1
4902554	14	C	06/20/2021	19:07	-136.524	49.608	0	28.70	0	9.7120	0	32.3460	0	24.928	0	28.453	0	-1e10	8	-1e10	8	-1E+10	1	-1E+10	1	-1E+10	1	-1E+10	1	-1E+10	1	-1E+10	1
4902554	14	C	06/20/2021	19:07	-136.524	49.608	0	29.80	0	9.2900	0	32.3690	0	25.014	0	29.543	0	-1e10	8	-1e10	8	-1E+10	1	-1E+10	1	-1E+10	1	-1E+10	1	-1E+10	1	-1E+10	1
4902554	14	C	06/20/2021	19:07	-136.524	49.608	0	31.00	0	9.1490	0	32.3520	0	25.023	0	30.733	0	-1e10	8	-1e10	8	-1E+10	1	-1E+10	1	-1E+10	1	-1E+10	1	-1E+10	1	-1E+10	1
4902554	14	C	06/20/2021	19:07	-136.524	49.608	0	31.90	0	9.0410	0	32.3580	0	25.044	0	31.625	0	-1e10	8	-1e10	8	-1E+10	1	-1E+10	1	-1E+10	1	-1E+10	1	-1E+10	1	-1E+10	1
4902554	14	C	06/20/2021	19:07	-136.524	49.608	0	32.80	0	8.9950	0	32.3570	0	25.051	0	32.517	0	-1e10	8	-1e10	8	-1E+10	1	-1E+10	1	-1E+10	1	-1E+10	1	-1E+10	1	-1E+10	1
4902554	14	C	06/20/2021	19:07	-136.524	49.608	0	34.00	0	8.9190	0	32.3550	0	25.061	0	33.707	0	-1e10	8	-1e10	8	-1E+10	1	-1E+10	1	-1E+10	1	-1E+10	1	-1E+10	1	-1E+10	1
4902554	14	C	06/20/2021	19:07	-136.524	49.608	0	34.90	0	8.8620	0	32.3570	0	25.071	0	34.599	0	-1e10	8	-1e10	8	-1E+10	1	-1E+10	1	-1E+10	1	-1E+10	1	-1E+10	1	-1E+10	1
4902554	14	C	06/20/2021	19:07	-136.524	49.608	0	35.70	0	8.8130	0	32.3600	0	25.081	0	35.392	0	-1e10	8	-1e10	8	-1E+10	1	-1E+10	1	-1E+10	1	-1E+10	1	-1E+10	1	-1E+10	1
4902554	14	C	06/20/2021	19:07	-136.524	49.608	0	37.10	0	8.7360	0	32.3620	0	25.094	0	36.780	0	-1e10	8	-1e10	8	-1E+10	1	-1E+10	1	-1E+10	1	-1E+10	1	-1E+10	1	-1E+10	1
4902554	14	C	06/20/2021	19:07	-136.524	49.608	0	38.00	0	8.7270	0	32.3610	0	25.095	0	37.672	0	-1e10	8	-1e10	8	-1E+10	1	-1E+10	1	-1E+10	1	-1E+10	1	-1E+10	1	-1E+10	1
4902554	14	C	06/20/2021	19:07	-136.524	49.608	0	39.10	0	8.7230	0	32.3600	0	25.095	0	38.763	0	-1e10	8	-1e10	8	-1E+10	1	-1E+10	1	-1E+10	1	-1E+10	1	-1E+10	1	-1E+10	1
4902554	14	C	06/20/2021	19:07	-136.524	49.608	0	40.10	0	8.6920	0	32.3610	0	25.100	0	39.754	0	-1e10	8	-1e10	8	-1E+10	1	-1E+10	1	-1E+10	1	-1E+10	1	-1E+10	1	-1E+10	1
4902554	14	C	06/20/2021	19:07	-136.524	49.608	0	40.90	0	8.6270	0	32.3630	0	25.112	0	40.547	0	-1e10	8	-1e10	8	-1E+10	1	-1E+10	1	-1E+10	1	-1E+10	1	-1E+10	1	-1E+10	1
4902554	14	C	06/20/2021	19:07	-136.524	49.608	0	41.80	0	8.5240	0	32.3640	0	25.128	0	41.439	0	-1e10	8	-1e10	8	-1E+10	1	-1E+10	1	-1E+10	1	-1E+10	1	-1E+10	1	-1E+10	1
4902554	14	C	06/20/2021	19:07	-136.524	49.608	0	43.10	0	8.3220	0	32.3730	0	25.165	0	42.728	0	-1e10	8	-1e10	8	-1E+10	1	-1E+10	1	-1E+10	1	-1E+10	1	-1E+10	1	-1E+10	1
4902554	14	C	06/20/2021	19:07	-136.524	49.608	0	44.10	0	8.2330	0	32.3750	0	25.180	0	43.719	0	-1e10	8	-1e10	8	-1E+10	1	-1E+10	1	-1E+10	1	-1E+10	1	-1E+10	1	-1E+10	1
4902554	14	C	06/20/2021	19:07	-136.524	49.608	0	45.00	0	8.1720	0	32.3790	0	25.192	0	44.611	0	-1e10	8	-1e10	8	-1E+10	1	-1E+10	1	-1E+10	1	-1E+10	1	-1E+10	1	-1E+10	1
4902554	14	C	06/20/2021	19:07	-136.524	49.608	0	46.00	0	8.1190	0	32.3740	0	25.196	0	45.602	0	-1e10	8	-1e10	8	-1E+10	1	-1E+10	1	-1E+10	1	-1E+10	1	-1E+10	1	-1E+10	1
4902554	14	C	06/20/2021	19:07	-136.524	49.608	0	47.20	0	7.9270	0	32.3920	0	25.238	0	46.792	0	-1e10	8	-1e10	8	-1E+10	1	-1E+10	1	-1E+10	1	-1E+10	1	-1E+10	1	-1E+10	1
4902554	14	C	06/20/2021	19:07	-136.524	49.608	0	48.00	0	7.8030	0	32.3930	0	25.256	0	47.585	0	-1e10	8	-1e10	8	-1E+10	1	-1E+10	1	-1E+10	1	-1E+10	1	-1E+10	1	-1E+10	1
4902554	14	C	06/20/2021	19:07	-136.524	49.608	0	49.20	0	7.7440	0	32.3930	0	25.264	0	48.774	0	-1e10	8	-1e10	8	-1E+10	1	-1E+10	1	-1E+10	1	-1E+10	1	-1E+10	1	-1E+10	1
4902554	14	C	06/20/2021	19:07	-136.524	49.608	0	49.90	0	7.6960	0	32.3950	0	25.273	0	49.468	0	-1e10	8	-1e10	8	-1E+10	1	-1E+10	1	-1E+10	1	-1E+10	1	-1E+10	1	-1E+10	1
4902554	14	C	06/20/2021	19:07	-136.524	49.608	0	51.10	0	7.6240	0	32.3960	0	25.284	0	50.657	0	-1e10	8	-1e10	8	-1E+10	1	-1E+10	1	-1E+10	1	-1E+10	1	-1E+10	1	-1E+10	1
4902554	14	C	06/20/2021	19:07	-136.524	49.608	0	52.10	0	7.4480	0	32.4160	0	25.324	0	51.649	0	-1e10	8	-1e10	8	-1E+10	1	-1E+10	1	-1E+10	1	-1E+10	1	-1E+10	1	-1E+10	1
4902554	14	C	06/20/2021	19:07	-136.524	49.608	0	53.00	0	7.3650	0	32.4140	0	25.334	0	52.541	0	-1e10	8	-1e10	8	-1E+10	1	-1E+10	1	-1E+10	1	-1E+10	1	-1E+10	1	-1E+10	1
4902554	14	C	06/20/2021	19:07	-136.524	49.608	0	54.10	0	7.3130	0	32.4180	0	25.344	0	53.631	0	-1e10	8	-1e10	8	-1E+10	1	-1E+10	1	-1E+10	1	-1E+10	1	-1E+10	1	-1E+10	1
4902554	14	C	06/20/2021	19:07	-136.524	49.608	0	55.00	0	7.2900	0	32.4130	0	25.343	0	54.523	0	-1e10	8	-1e10	8	-1E+10	1	-1E+10	1	-1E+10	1	-1E+10	1	-1E+10	1	-1E+10	1
4902554	14	C	06/20/2021	19:07	-136.524	49.608	0	56.20	0	7.2520	0	32.4160	0	25.351	0	55.713	0	-1e10	8	-1e10	8	-1E+10	1	-1E+10	1	-1E+10	1	-1E+10	1	-1E+10	1	-1E+10	1
4902554	14	C	06/20/2021	19:07	-136.524	49.608	0	57.00	0	7.1400	0	32.4270	0	25.375	0	56.506	0	-1e10	8	-1e10	8	-1E+10	1	-1E+10	1	-1E+10	1	-1E+10	1	-1E+10	1	-1E+10	1
4902554	14	C	06/20/2021	19:07	-136.524	49.608	0	58.20	0	7.0520	0	32.4210	0	25.382	0	57.695	0	-1e10	8	-1e10	8	-1E+10	1	-1E+10	1	-1E+10	1	-1E+10	1	-1E+10	1	-1E+10	1
4902554	14	C	06/20/2021	19:07	-136.524	49.608	0	59.00	0	6.9690	0	32.4280	0	25.398	0	58.488	0	-1e10	8	-1e10	8	-1E+10	1	-1E+10	1	-1E+10	1	-1E+10	1	-1E+10	1	-1E+10	1
4902554	14	C	06/20/2021	19:07	-136.524	49.608	0	60.00	0	6.8930	0	32.4340	0	25.413	0	59.479	0	-1e10	8	-1e10	8	-1E+10	1	-1E+10	1	-1E+10	1	-1E+10	1	-1E+10	1	-1E+10	1
4902554	14	C	06/20/2021	19:07	-136.524	49.608	0	60.90	0	6.6980	0	32.4480	0	25.450	0	60.371	0	-1e10	8	-1e10	8	-1E+10	1	-1E+10	1	-1E+10	1	-1E+10	1	-1E+10	1	-1E+10	1
4902554	14	C	06/20/2021	19:07	-136.524	49.608	0	61.90	0	6.6090	0	32.4450	0	25.459	0	61.362	0	-1e10	8	-1e10	8	-1E+10	1	-1E+10	1	-1E+10	1	-1E+10	1	-1E+10	1	-1E+10	1
4902554	14	C	06/20/2021	19:07	-136.524	49.608	0	63.10	0	6.6010	0	32.4430	0	25.458	0	62.552	0	-1e10	8	-1e10	8	-1E+10	1	-1E+10	1	-1E+10	1	-1E+10	1	-1E+10	1	-1E+10	1
4902554	14	C	06/20/2021	19:07	-136.524	49.608	0	63.80	0	6.5950	0	32.4400	0	25.457	0	63.246	0	-1e10	8	-1e10	8	-1E+10	1	-1E+10	1	-1E+10	1	-1E+10	1	-1E+10	1	-1E+10	1
4902554	14	C	06/20/2021	19:07	-136.524	49.608	0	64.80	0	6.5830	0	32.4430	0	25.460	0	64.237	0	-1e10	8	-1e10	8	-1E+10	1	-1E+10	1	-1E+10	1	-1E+10	1	-1E+10	1	-1E+10	1
4902554	14	C	06/20/2021	19:07	-136.524	49.608	0	65.80	0	6.5690	0	32.4410	0	25.461	0	65.228	0	-1e10	8	-1e10	8	-1E+10	1	-1E+10	1	-1E+10	1	-1E+10	1	-1E+10	1	-1E+10	1
4902554	14	C	06/20/2021	19:07	-136.524	49.608	0	66.90	0	6.5450	0	32.4450	0	25.467	0	66.318	0	-1e10	8	-1e10	8	-1E+10	1	-1E+10	1	-1E+10	1	-1E+10	1	-1E+10	1	-1E+10	1
4902554	14	C	06/20/2021	19:07	-136.524	49.608	0	68.00	0	6.5180	0	32.4450	0	25.470	0	67.408	0	-1e10	8	-1e10	8	-1E+10	1	-1E+10	1	-1E+10	1	-1E+10	1	-1E+10	1	-1E+10	1
4902554	14	C	06/20/2021	19:07	-136.524	49.608	0	68.90	0	6.5050	0	32.4470	0	25.474	0	68.300	0	-1e10	8	-1e10	8	-1E+10	1	-1E+10	1	-1E+10	1	-1E+10	1	-1E+10	1	-1E+10	1
4902554	14	C	06/20/2021	19:07	-136.524	49.608	0	69.70	0	6.4860	0	32.4470	0	25.476	0	69.093	0	-1e10	8	-1e10	8	-1E+10	1	-1E+10	1	-1E+10	1	-1E+10	1	-1E+10	1	-1E+10	1
4902554	14	C	06/20/2021	19:07	-136.524	49.608	0	70.90	0	6.4410	0	32.4500	0	25.484	0	70.283	0	-1e10	8	-1e10	8	-1E+10	1	-1E+10	1	-1E+10	1	-1E+10	1	-1E+10	1	-1E+10	1
4902554	14	C	06/20/2021	19:07	-136.524	49.608	0	72.10	0	6.4320	0	32.4500	0	25.485	0	71.472	0	-1e10	8	-1e10	8	-1E+10	1	-1E+10	1	-1E+10	1	-1E+10	1	-1E+10	1	-1E+10	1
4902554	14	C	06/20/2021	19:07	-136.524	49.608	0	73.00	0	6.4260	0	32.4490	0	25.485	0	72.364	0	-1e10	8	-1e10	8	-1E+10	1	-1E+10	1	-1E+10	1	-1E+10	1	-1E+10	1	-1E+10	1
4902554	14	C	06/20/2021	19:07	-136.524	49.608	0	74.00	0	6.4200	0	32.4500	0	25.487	0	73.355	0	-1e10	8	-1e10	8	-1E+10	1	-1E+10	1	-1E+10	1	-1E+10	1	-1E+10	1	-1E+10	1
4902554	14	C	06/20/2021	19:07	-136.524	49.608	0	74.90	0	6.4180	0	32.4510	0	25.488	0	74.247	0	-1e10	8	-1e10	8	-1E+10	1	-1E+10	1	-1E+10	1	-1E+10	1	-1E+10	1	-1E+10	1
4902554	14	C	06/20/2021	19:07	-136.524	49.608	0	75.80	0	6.4090	0	32.4520	0	25.490	0	75.139	0	-1e10	8	-1e10	8	-1E+10	1	-1E+10	1	-1E+10	1	-1E+10	1	-1E+10	1	-1E+10	1
4902554	14	C	06/20/2021	19:07	-136.524	49.608	0	77.00	0	6.3800	0	32.4560	0	25.497	0	76.328	0	-1e10	8	-1e10	8	-1E+10	1	-1E+10	1	-1E+10	1	-1E+10	1	-1E+10	1	-1E+10	1
4902554	14	C	06/20/2021	19:07	-136.524	49.608	0	77.90	0	6.3640	0	32.4580	0	25.500	0	77.220	0	-1e10	8	-1e10	8	-1E+10	1	-1E+10	1	-1E+10	1	-1E+10	1	-1E+10	1	-1E+10	1
4902554	14	C	06/20/2021	19:07	-136.524	49.608	0	78.80	0	6.3510	0	32.4600	0	25.503	0	78.112	0	-1e10	8	-1e10	8	-1E+10	1	-1E+10	1	-1E+10	1	-1E+10	1	-1E+10	1	-1E+10	1
4902554	14	C	06/20/2021	19:07	-136.524	49.608	0	80.00	0	6.3380	0	32.4620	0	25.507	0	79.302	0	-1e10	8	-1e10	8	-1E+10	1	-1E+10	1	-1E+10	1	-1E+10	1	-1E+10	1	-1E+10	1
4902554	14	C	06/20/2021	19:07	-136.524	49.608	0	80.90	0	6.3390	0	32.4620	0	25.507	0	80.194	0	-1e10	8	-1e10	8	-1E+10	1	-1E+10	1	-1E+10	1	-1E+10	1	-1E+10	1	-1E+10	1
4902554	14	C	06/20/2021	19:07	-136.524	49.608	0	81.80	0	6.3360	0	32.4620	0	25.507	0	81.086	0	-1e10	8	-1e10	8	-1E+10	1	-1E+10	1	-1E+10	1	-1E+10	1	-1E+10	1	-1E+10	1
4902554	14	C	06/20/2021	19:07	-136.524	49.608	0	83.10	0	6.3310	0	32.4640	0	25.509	0	82.374	0	-1e10	8	-1e10	8	-1E+10	1	-1E+10	1	-1E+10	1	-1E+10	1	-1E+10	1	-1E+10	1
4902554	14	C	06/20/2021	19:07	-136.524	49.608	0	84.00	0	6.3270	0	32.4640	0	25.510	0	83.266	0	-1e10	8	-1e10	8	-1E+10	1	-1E+10	1	-1E+10	1	-1E+10	1	-1E+10	1	-1E+10	1
4902554	14	C	06/20/2021	19:07	-136.524	49.608	0	84.90	0	6.3090	0	32.4660	0	25.514	0	84.158	0	-1e10	8	-1e10	8	-1E+10	1	-1E+10	1	-1E+10	1	-1E+10	1	-1E+10	1	-1E+10	1
4902554	14	C	06/20/2021	19:07	-136.524	49.608	0	86.10	0	6.2740	0	32.4670	0	25.519	0	85.347	0	-1e10	8	-1e10	8	-1E+10	1	-1E+10	1	-1E+10	1	-1E+10	1	-1E+10	1	-1E+10	1
4902554	14	C	06/20/2021	19:07	-136.524	49.608	0	87.00	0	6.2660	0	32.4680	0	25.521	0	86.239	0	-1e10	8	-1e10	8	-1E+10	1	-1E+10	1	-1E+10	1	-1E+10	1	-1E+10	1	-1E+10	1
4902554	14	C	06/20/2021	19:07	-136.524	49.608	0	87.90	0	6.2920	0	32.4740	0	25.522	0	87.131	0	-1e10	8	-1e10	8	-1E+10	1	-1E+10	1	-1E+10	1	-1E+10	1	-1E+10	1	-1E+10	1
4902554	14	C	06/20/2021	19:07	-136.524	49.608	0	89.10	0	6.3040	0	32.4790	0	25.524	0	88.320	0	-1e10	8	-1e10	8	-1E+10	1	-1E+10	1	-1E+10	1	-1E+10	1	-1E+10	1	-1E+10	1
4902554	14	C	06/20/2021	19:07	-136.524	49.608	0	90.20	0	6.2710	0	32.4820	0	25.531	0	89.410	0	-1e10	8	-1e10	8	-1E+10	1	-1E+10	1	-1E+10	1	-1E+10	1	-1E+10	1	-1E+10	1
4902554	14	C	06/20/2021	19:07	-136.524	49.608	0	90.90	0	6.2490	0	32.4790	0	25.531	0	90.104	0	-1e10	8	-1e10	8	-1E+10	1	-1E+10	1	-1E+10	1	-1E+10	1	-1E+10	1	-1E+10	1
4902554	14	C	06/20/2021	19:07	-136.524	49.608	0	92.00	0	6.1820	0	32.4820	0	25.542	0	91.194	0	-1e10	8	-1e10	8	-1E+10	1	-1E+10	1	-1E+10	1	-1E+10	1	-1E+10	1	-1E+10	1
4902554	14	C	06/20/2021	19:07	-136.524	49.608	0	92.90	0	6.1570	0	32.4820	0	25.545	0	92.086	0	-1e10	8	-1e10	8	-1E+10	1	-1E+10	1	-1E+10	1	-1E+10	1	-1E+10	1	-1E+10	1
4902554	14	C	06/20/2021	19:07	-136.524	49.608	0	93.80	0	6.1320	0	32.4840	0	25.550	0	92.978	0	-1e10	8	-1e10	8	-1E+10	1	-1E+10	1	-1E+10	1	-1E+10	1	-1E+10	1	-1E+10	1
4902554	14	C	06/20/2021	19:07	-136.524	49.608	0	94.80	0	6.1190	0	32.4850	0	25.552	0	93.969	0	-1e10	8	-1e10	8	-1E+10	1	-1E+10	1	-1E+10	1	-1E+10	1	-1E+10	1	-1E+10	1
4902554	14	C	06/20/2021	19:07	-136.524	49.608	0	95.90	0	6.1030	0	32.4890	0	25.557	0	95.059	0	-1e10	8	-1e10	8	-1E+10	1	-1E+10	1	-1E+10	1	-1E+10	1	-1E+10	1	-1E+10	1
4902554	14	C	06/20/2021	19:07	-136.524	49.608	0	97.10	0	6.0640	0	32.4920	0	25.565	0	96.248	0	-1e10	8	-1e10	8	-1E+10	1	-1E+10	1	-1E+10	1	-1E+10	1	-1E+10	1	-1E+10	1
4902554	14	C	06/20/2021	19:07	-136.524	49.608	0	97.90	0	6.0530	0	32.4940	0	25.567	0	97.041	0	-1e10	8	-1e10	8	-1E+10	1	-1E+10	1	-1E+10	1	-1E+10	1	-1E+10	1	-1E+10	1
4902554	14	C	06/20/2021	19:07	-136.524	49.608	0	99.10	0	6.0340	0	32.4990	0	25.574	0	98.230	0	-1e10	8	-1e10	8	-1E+10	1	-1E+10	1	-1E+10	1	-1E+10	1	-1E+10	1	-1E+10	1
4902554	14	C	06/20/2021	19:07	-136.524	49.608	0	99.80	0	6.0190	0	32.5020	0	25.578	0	98.924	0	-1e10	8	-1e10	8	-1E+10	1	-1E+10	1	-1E+10	1	-1E+10	1	-1E+10	1	-1E+10	1
4902554	14	C	06/20/2021	19:07	-136.524	49.608	0	101.00	0	6.0240	0	32.5120	0	25.585	0	100.113	0	-1e10	8	-1e10	8	-1E+10	1	-1E+10	1	-1E+10	1	-1E+10	1	-1E+10	1	-1E+10	1
4902554	14	C	06/20/2021	19:07	-136.524	49.608	0	102.20	0	6.0320	0	32.5150	0	25.587	0	101.302	0	-1e10	8	-1e10	8	-1E+10	1	-1E+10	1	-1E+10	1	-1E+10	1	-1E+10	1	-1E+10	1
4902554	14	C	06/20/2021	19:07	-136.524	49.608	0	102.80	0	6.0340	0	32.5170	0	25.588	0	101.897	0	-1e10	8	-1e10	8	-1E+10	1	-1E+10	1	-1E+10	1	-1E+10	1	-1E+10	1	-1E+10	1
4902554	14	C	06/20/2021	19:07	-136.524	49.608	0	103.90	0	6.0260	0	32.5270	0	25.597	0	102.987	0	-1e10	8	-1e10	8	-1E+10	1	-1E+10	1	-1E+10	1	-1E+10	1	-1E+10	1	-1E+10	1
4902554	14	C	06/20/2021	19:07	-136.524	49.608	0	105.10	0	6.0180	0	32.5420	0	25.610	0	104.176	0	-1e10	8	-1e10	8	-1E+10	1	-1E+10	1	-1E+10	1	-1E+10	1	-1E+10	1	-1E+10	1
4902554	14	C	06/20/2021	19:07	-136.524	49.608	0	105.90	0	6.0130	0	32.5490	0	25.616	0	104.969	0	-1e10	8	-1e10	8	-1E+10	1	-1E+10	1	-1E+10	1	-1E+10	1	-1E+10	1	-1E+10	1
4902554	14	C	06/20/2021	19:07	-136.524	49.608	0	107.00	0	6.0220	0	32.5790	0	25.638	0	106.059	0	-1e10	8	-1e10	8	-1E+10	1	-1E+10	1	-1E+10	1	-1E+10	1	-1E+10	1	-1E+10	1
4902554	14	C	06/20/2021	19:07	-136.524	49.608	0	108.20	0	6.0260	0	32.5870	0	25.644	0	107.248	0	-1e10	8	-1e10	8	-1E+10	1	-1E+10	1	-1E+10	1	-1E+10	1	-1E+10	1	-1E+10	1
4902554	14	C	06/20/2021	19:07	-136.524	49.608	0	108.90	0	6.0330	0	32.5960	0	25.651	0	107.942	0	-1e10	8	-1e10	8	-1E+10	1	-1E+10	1	-1E+10	1	-1E+10	1	-1E+10	1	-1E+10	1
4902554	14	C	06/20/2021	19:07	-136.524	49.608	0	109.90	0	6.0560	0	32.6160	0	25.664	0	108.933	0	-1e10	8	-1e10	8	-1E+10	1	-1E+10	1	-1E+10	1	-1E+10	1	-1E+10	1	-1E+10	1
4902554	14	C	06/20/2021	19:07	-136.524	49.608	0	111.00	0	6.0830	0	32.6630	0	25.697	0	110.023	0	-1e10	8	-1e10	8	-1E+10	1	-1E+10	1	-1E+10	1	-1E+10	1	-1E+10	1	-1E+10	1
4902554	14	C	06/20/2021	19:07	-136.524	49.608	0	112.00	0	6.0840	0	32.6740	0	25.706	0	111.014	0	-1e10	8	-1e10	8	-1E+10	1	-1E+10	1	-1E+10	1	-1E+10	1	-1E+10	1	-1E+10	1
4902554	14	C	06/20/2021	19:07	-136.524	49.608	0	112.90	0	6.0930	0	32.7000	0	25.725	0	111.906	0	-1e10	8	-1e10	8	-1E+10	1	-1E+10	1	-1E+10	1	-1E+10	1	-1E+10	1	-1E+10	1
4902554	14	C	06/20/2021	19:07	-136.524	49.608	0	114.10	0	6.1070	0	32.7350	0	25.751	0	113.095	0	-1e10	8	-1e10	8	-1E+10	1	-1E+10	1	-1E+10	1	-1E+10	1	-1E+10	1	-1E+10	1
4902554	14	C	06/20/2021	19:07	-136.524	49.608	0	115.10	0	6.1080	0	32.7690	0	25.778	0	114.086	0	-1e10	8	-1e10	8	-1E+10	1	-1E+10	1	-1E+10	1	-1E+10	1	-1E+10	1	-1E+10	1
4902554	14	C	06/20/2021	19:07	-136.524	49.608	0	116.10	0	6.1130	0	32.8180	0	25.816	0	115.076	0	-1e10	8	-1e10	8	-1E+10	1	-1E+10	1	-1E+10	1	-1E+10	1	-1E+10	1	-1E+10	1
4902554	14	C	06/20/2021	19:07	-136.524	49.608	0	117.00	0	6.1140	0	32.8410	0	25.834	0	115.968	0	-1e10	8	-1e10	8	-1E+10	1	-1E+10	1	-1E+10	1	-1E+10	1	-1E+10	1	-1E+10	1
4902554	14	C	06/20/2021	19:07	-136.524	49.608	0	118.10	0	6.1160	0	32.8590	0	25.848	0	117.058	0	-1e10	8	-1e10	8	-1E+10	1	-1E+10	1	-1E+10	1	-1E+10	1	-1E+10	1	-1E+10	1
4902554	14	C	06/20/2021	19:07	-136.524	49.608	0	119.10	0	6.1160	0	32.8820	0	25.866	0	118.049	0	-1e10	8	-1e10	8	-1E+10	1	-1E+10	1	-1E+10	1	-1E+10	1	-1E+10	1	-1E+10	1
4902554	14	C	06/20/2021	19:07	-136.524	49.608	0	120.00	0	6.1200	0	32.9410	0	25.912	0	118.941	0	-1e10	8	-1e10	8	-1E+10	1	-1E+10	1	-1E+10	1	-1E+10	1	-1E+10	1	-1E+10	1
4902554	14	C	06/20/2021	19:07	-136.524	49.608	0	120.90	0	6.1280	0	32.9910	0	25.951	0	119.833	0	-1e10	8	-1e10	8	-1E+10	1	-1E+10	1	-1E+10	1	-1E+10	1	-1E+10	1	-1E+10	1
4902554	14	C	06/20/2021	19:07	-136.524	49.608	0	121.90	0	6.1230	0	33.0310	0	25.983	0	120.824	0	-1e10	8	-1e10	8	-1E+10	1	-1E+10	1	-1E+10	1	-1E+10	1	-1E+10	1	-1E+10	1
4902554	14	C	06/20/2021	19:07	-136.524	49.608	0	123.00	0	6.1240	0	33.0520	0	26.000	0	121.914	0	-1e10	8	-1e10	8	-1E+10	1	-1E+10	1	-1E+10	1	-1E+10	1	-1E+10	1	-1E+10	1
4902554	14	C	06/20/2021	19:07	-136.524	49.608	0	124.10	0	6.1240	0	33.0610	0	26.007	0	123.004	0	-1e10	8	-1e10	8	-1E+10	1	-1E+10	1	-1E+10	1	-1E+10	1	-1E+10	1	-1E+10	1
4902554	14	C	06/20/2021	19:07	-136.524	49.608	0	124.90	0	6.1280	0	33.0850	0	26.025	0	123.796	0	-1e10	8	-1e10	8	-1E+10	1	-1E+10	1	-1E+10	1	-1E+10	1	-1E+10	1	-1E+10	1
4902554	14	C	06/20/2021	19:07	-136.524	49.608	0	125.80	0	6.1330	0	33.1020	0	26.038	0	124.688	0	-1e10	8	-1e10	8	-1E+10	1	-1E+10	1	-1E+10	1	-1E+10	1	-1E+10	1	-1E+10	1
4902554	14	C	06/20/2021	19:07	-136.524	49.608	0	126.90	0	6.1470	0	33.1800	0	26.098	0	125.778	0	-1e10	8	-1e10	8	-1E+10	1	-1E+10	1	-1E+10	1	-1E+10	1	-1E+10	1	-1E+10	1
4902554	14	C	06/20/2021	19:07	-136.524	49.608	0	128.10	0	6.1340	0	33.2540	0	26.158	0	126.967	0	-1e10	8	-1e10	8	-1E+10	1	-1E+10	1	-1E+10	1	-1E+10	1	-1E+10	1	-1E+10	1
4902554	14	C	06/20/2021	19:07	-136.524	49.608	0	129.10	0	6.1330	0	33.2810	0	26.179	0	127.958	0	-1e10	8	-1e10	8	-1E+10	1	-1E+10	1	-1E+10	1	-1E+10	1	-1E+10	1	-1E+10	1
4902554	14	C	06/20/2021	19:07	-136.524	49.608	0	130.00	0	6.1340	0	33.3080	0	26.201	0	128.850	0	-1e10	8	-1e10	8	-1E+10	1	-1E+10	1	-1E+10	1	-1E+10	1	-1E+10	1	-1E+10	1
4902554	14	C	06/20/2021	19:07	-136.524	49.608	0	131.00	0	6.1270	0	33.3370	0	26.224	0	129.840	0	-1e10	8	-1e10	8	-1E+10	1	-1E+10	1	-1E+10	1	-1E+10	1	-1E+10	1	-1E+10	1
4902554	14	C	06/20/2021	19:07	-136.524	49.608	0	132.00	0	6.1470	0	33.3600	0	26.240	0	130.831	0	-1e10	8	-1e10	8	-1E+10	1	-1E+10	1	-1E+10	1	-1E+10	1	-1E+10	1	-1E+10	1
4902554	14	C	06/20/2021	19:07	-136.524	49.608	0	133.00	0	6.1830	0	33.4070	0	26.273	0	131.822	0	-1e10	8	-1e10	8	-1E+10	1	-1E+10	1	-1E+10	1	-1E+10	1	-1E+10	1	-1E+10	1
4902554	14	C	06/20/2021	19:07	-136.524	49.608	0	134.00	0	6.1740	0	33.4340	0	26.295	0	132.813	0	-1e10	8	-1e10	8	-1E+10	1	-1E+10	1	-1E+10	1	-1E+10	1	-1E+10	1	-1E+10	1
4902554	14	C	06/20/2021	19:07	-136.524	49.608	0	135.20	0	6.1750	0	33.4480	0	26.306	0	134.002	0	-1e10	8	-1e10	8	-1E+10	1	-1E+10	1	-1E+10	1	-1E+10	1	-1E+10	1	-1E+10	1
4902554	14	C	06/20/2021	19:07	-136.524	49.608	0	135.90	0	6.1820	0	33.4580	0	26.313	0	134.695	0	-1e10	8	-1e10	8	-1E+10	1	-1E+10	1	-1E+10	1	-1E+10	1	-1E+10	1	-1E+10	1
4902554	14	C	06/20/2021	19:07	-136.524	49.608	0	136.70	0	6.2410	0	33.4710	0	26.316	0	135.488	0	-1e10	8	-1e10	8	-1E+10	1	-1E+10	1	-1E+10	1	-1E+10	1	-1E+10	1	-1E+10	1
4902554	14	C	06/20/2021	19:07	-136.524	49.608	0	137.90	0	6.2760	0	33.5090	0	26.341	0	136.677	0	-1e10	8	-1e10	8	-1E+10	1	-1E+10	1	-1E+10	1	-1E+10	1	-1E+10	1	-1E+10	1
4902554	14	C	06/20/2021	19:07	-136.524	49.608	0	139.10	0	6.3200	0	33.5430	0	26.363	0	137.866	0	-1e10	8	-1e10	8	-1E+10	1	-1E+10	1	-1E+10	1	-1E+10	1	-1E+10	1	-1E+10	1
4902554	14	C	06/20/2021	19:07	-136.524	49.608	0	139.90	0	6.2810	0	33.5980	0	26.411	0	138.659	0	-1e10	8	-1e10	8	-1E+10	1	-1E+10	1	-1E+10	1	-1E+10	1	-1E+10	1	-1E+10	1
4902554	14	C	06/20/2021	19:07	-136.524	49.608	0	140.80	0	6.2190	0	33.6270	0	26.442	0	139.550	0	-1e10	8	-1e10	8	-1E+10	1	-1E+10	1	-1E+10	1	-1E+10	1	-1E+10	1	-1E+10	1
4902554	14	C	06/20/2021	19:07	-136.524	49.608	0	141.60	0	6.2070	0	33.6170	0	26.435	0	140.343	0	-1e10	8	-1e10	8	-1E+10	1	-1E+10	1	-1E+10	1	-1E+10	1	-1E+10	1	-1E+10	1
4902554	14	C	06/20/2021	19:07	-136.524	49.608	0	142.90	0	6.2370	0	33.6310	0	26.443	0	141.631	0	-1e10	8	-1e10	8	-1E+10	1	-1E+10	1	-1E+10	1	-1E+10	1	-1E+10	1	-1E+10	1
4902554	14	C	06/20/2021	19:07	-136.524	49.608	0	144.30	0	6.2550	0	33.6330	0	26.442	0	143.018	0	-1e10	8	-1e10	8	-1E+10	1	-1E+10	1	-1E+10	1	-1E+10	1	-1E+10	1	-1E+10	1
4902554	14	C	06/20/2021	19:07	-136.524	49.608	0	145.20	0	6.2690	0	33.6460	0	26.451	0	143.910	0	-1e10	8	-1e10	8	-1E+10	1	-1E+10	1	-1E+10	1	-1E+10	1	-1E+10	1	-1E+10	1
4902554	14	C	06/20/2021	19:07	-136.524	49.608	0	146.10	0	6.2720	0	33.6520	0	26.455	0	144.801	0	-1e10	8	-1e10	8	-1E+10	1	-1E+10	1	-1E+10	1	-1E+10	1	-1E+10	1	-1E+10	1
4902554	14	C	06/20/2021	19:07	-136.524	49.608	0	147.00	0	6.2660	0	33.6550	0	26.458	0	145.693	0	-1e10	8	-1e10	8	-1E+10	1	-1E+10	1	-1E+10	1	-1E+10	1	-1E+10	1	-1E+10	1
4902554	14	C	06/20/2021	19:07	-136.524	49.608	0	147.90	0	6.2550	0	33.6600	0	26.463	0	146.585	0	-1e10	8	-1e10	8	-1E+10	1	-1E+10	1	-1E+10	1	-1E+10	1	-1E+10	1	-1E+10	1
4902554	14	C	06/20/2021	19:07	-136.524	49.608	0	148.70	0	6.2530	0	33.6630	0	26.466	0	147.377	0	-1e10	8	-1e10	8	-1E+10	1	-1E+10	1	-1E+10	1	-1E+10	1	-1E+10	1	-1E+10	1
4902554	14	C	06/20/2021	19:07	-136.524	49.608	0	149.60	0	6.2540	0	33.6640	0	26.467	0	148.269	0	-1e10	8	-1e10	8	-1E+10	1	-1E+10	1	-1E+10	1	-1E+10	1	-1E+10	1	-1E+10	1
4902554	14	C	06/20/2021	19:07	-136.524	49.608	0	150.90	0	6.2360	0	33.6700	0	26.474	0	149.557	0	-1e10	8	-1e10	8	-1E+10	1	-1E+10	1	-1E+10	1	-1E+10	1	-1E+10	1	-1E+10	1
4902554	14	C	06/20/2021	19:07	-136.524	49.608	0	152.30	0	6.2040	0	33.6710	0	26.479	0	150.944	0	-1e10	8	-1e10	8	-1E+10	1	-1E+10	1	-1E+10	1	-1E+10	1	-1E+10	1	-1E+10	1
4902554	14	C	06/20/2021	19:07	-136.524	49.608	0	153.20	0	6.1250	0	33.6620	0	26.482	0	151.836	0	-1e10	8	-1e10	8	-1E+10	1	-1E+10	1	-1E+10	1	-1E+10	1	-1E+10	1	-1E+10	1
4902554	14	C	06/20/2021	19:07	-136.524	49.608	0	154.10	0	6.1160	0	33.6750	0	26.493	0	152.727	0	-1e10	8	-1e10	8	-1E+10	1	-1E+10	1	-1E+10	1	-1E+10	1	-1E+10	1	-1E+10	1
4902554	14	C	06/20/2021	19:07	-136.524	49.608	0	154.90	0	6.1160	0	33.6680	0	26.487	0	153.520	0	-1e10	8	-1e10	8	-1E+10	1	-1E+10	1	-1E+10	1	-1E+10	1	-1E+10	1	-1E+10	1
4902554	14	C	06/20/2021	19:07	-136.524	49.608	0	155.80	0	6.1180	0	33.6760	0	26.493	0	154.412	0	-1e10	8	-1e10	8	-1E+10	1	-1E+10	1	-1E+10	1	-1E+10	1	-1E+10	1	-1E+10	1
4902554	14	C	06/20/2021	19:07	-136.524	49.608	0	156.70	0	6.0990	0	33.6760	0	26.496	0	155.303	0	-1e10	8	-1e10	8	-1E+10	1	-1E+10	1	-1E+10	1	-1E+10	1	-1E+10	1	-1E+10	1
4902554	14	C	06/20/2021	19:07	-136.524	49.608	0	157.90	0	6.1160	0	33.6790	0	26.496	0	156.492	0	-1e10	8	-1e10	8	-1E+10	1	-1E+10	1	-1E+10	1	-1E+10	1	-1E+10	1	-1E+10	1
4902554	14	C	06/20/2021	19:07	-136.524	49.608	0	159.30	0	6.1180	0	33.7000	0	26.512	0	157.879	0	-1e10	8	-1e10	8	-1E+10	1	-1E+10	1	-1E+10	1	-1E+10	1	-1E+10	1	-1E+10	1
4902554	14	C	06/20/2021	19:07	-136.524	49.608	0	160.20	0	6.1450	0	33.7050	0	26.513	0	158.771	0	-1e10	8	-1e10	8	-1E+10	1	-1E+10	1	-1E+10	1	-1E+10	1	-1E+10	1	-1E+10	1
4902554	14	C	06/20/2021	19:07	-136.524	49.608	0	161.00	0	6.1430	0	33.7090	0	26.516	0	159.563	0	-1e10	8	-1e10	8	-1E+10	1	-1E+10	1	-1E+10	1	-1E+10	1	-1E+10	1	-1E+10	1
4902554	14	C	06/20/2021	19:07	-136.524	49.608	0	161.90	0	6.1160	0	33.7080	0	26.519	0	160.455	0	-1e10	8	-1e10	8	-1E+10	1	-1E+10	1	-1E+10	1	-1E+10	1	-1E+10	1	-1E+10	1
4902554	14	C	06/20/2021	19:07	-136.524	49.608	0	162.80	0	6.0930	0	33.7140	0	26.527	0	161.346	0	-1e10	8	-1e10	8	-1E+10	1	-1E+10	1	-1E+10	1	-1E+10	1	-1E+10	1	-1E+10	1
4902554	14	C	06/20/2021	19:07	-136.524	49.608	0	163.70	0	6.0940	0	33.7130	0	26.526	0	162.238	0	-1e10	8	-1e10	8	-1E+10	1	-1E+10	1	-1E+10	1	-1E+10	1	-1E+10	1	-1E+10	1
4902554	14	C	06/20/2021	19:07	-136.524	49.608	0	165.00	0	6.1170	0	33.7160	0	26.525	0	163.526	0	-1e10	8	-1e10	8	-1E+10	1	-1E+10	1	-1E+10	1	-1E+10	1	-1E+10	1	-1E+10	1
4902554	14	C	06/20/2021	19:07	-136.524	49.608	0	166.30	0	6.1260	0	33.7230	0	26.530	0	164.814	0	-1e10	8	-1e10	8	-1E+10	1	-1E+10	1	-1E+10	1	-1E+10	1	-1E+10	1	-1E+10	1
4902554	14	C	06/20/2021	19:07	-136.524	49.608	0	167.20	0	6.1190	0	33.7290	0	26.535	0	165.705	0	-1e10	8	-1e10	8	-1E+10	1	-1E+10	1	-1E+10	1	-1E+10	1	-1E+10	1	-1E+10	1
4902554	14	C	06/20/2021	19:07	-136.524	49.608	0	168.00	0	6.1060	0	33.7290	0	26.537	0	166.498	0	-1e10	8	-1e10	8	-1E+10	1	-1E+10	1	-1E+10	1	-1E+10	1	-1E+10	1	-1E+10	1
4902554	14	C	06/20/2021	19:07	-136.524	49.608	0	168.90	0	6.0860	0	33.7300	0	26.540	0	167.390	0	-1e10	8	-1e10	8	-1E+10	1	-1E+10	1	-1E+10	1	-1E+10	1	-1E+10	1	-1E+10	1
4902554	14	C	06/20/2021	19:07	-136.524	49.608	0	169.80	0	6.0640	0	33.7320	0	26.545	0	168.281	0	-1e10	8	-1e10	8	-1E+10	1	-1E+10	1	-1E+10	1	-1E+10	1	-1E+10	1	-1E+10	1
4902554	14	C	06/20/2021	19:07	-136.524	49.608	0	170.60	0	6.0520	0	33.7380	0	26.551	0	169.074	0	-1e10	8	-1e10	8	-1E+10	1	-1E+10	1	-1E+10	1	-1E+10	1	-1E+10	1	-1E+10	1
4902554	14	C	06/20/2021	19:07	-136.524	49.608	0	171.90	0	5.9970	8	33.7470	8	26.565	0	170.361	0	-1e10	8	-1e10	8	-1E+10	1	-1E+10	1	-1E+10	1	-1E+10	1	-1E+10	1	-1E+10	1
4902554	14	C	06/20/2021	19:07	-136.524	49.608	0	173.10	0	6.0530	8	33.7010	8	26.522	0	171.550	0	-1e10	8	-1e10	8	-1E+10	1	-1E+10	1	-1E+10	1	-1E+10	1	-1E+10	1	-1E+10	1
4902554	14	C	06/20/2021	19:07	-136.524	49.608	0	174.00	0	6.0750	0	33.7770	0	26.579	0	172.442	0	-1e10	8	-1e10	8	-1E+10	1	-1E+10	1	-1E+10	1	-1E+10	1	-1E+10	1	-1E+10	1
4902554	14	C	06/20/2021	19:07	-136.524	49.608	0	174.90	0	6.0390	0	33.7860	0	26.590	0	173.333	0	-1e10	8	-1e10	8	-1E+10	1	-1E+10	1	-1E+10	1	-1E+10	1	-1E+10	1	-1E+10	1
4902554	14	C	06/20/2021	19:07	-136.524	49.608	0	175.70	0	6.0010	0	33.7820	0	26.592	0	174.126	0	-1e10	8	-1e10	8	-1E+10	1	-1E+10	1	-1E+10	1	-1E+10	1	-1E+10	1	-1E+10	1
4902554	14	C	06/20/2021	19:07	-136.524	49.608	0	177.00	0	5.9740	0	33.7800	0	26.594	0	175.414	0	-1e10	8	-1e10	8	-1E+10	1	-1E+10	1	-1E+10	1	-1E+10	1	-1E+10	1	-1E+10	1
4902554	14	C	06/20/2021	19:07	-136.524	49.608	0	178.30	0	5.9400	0	33.7780	0	26.597	0	176.701	0	-1e10	8	-1e10	8	-1E+10	1	-1E+10	1	-1E+10	1	-1E+10	1	-1E+10	1	-1E+10	1
4902554	14	C	06/20/2021	19:07	-136.524	49.608	0	179.20	0	5.9530	0	33.7800	0	26.597	0	177.593	0	-1e10	8	-1e10	8	-1E+10	1	-1E+10	1	-1E+10	1	-1E+10	1	-1E+10	1	-1E+10	1
4902554	14	C	06/20/2021	19:07	-136.524	49.608	0	180.00	0	5.9510	0	33.7880	0	26.603	0	178.385	0	-1e10	8	-1e10	8	-1E+10	1	-1E+10	1	-1E+10	1	-1E+10	1	-1E+10	1	-1E+10	1
4902554	14	C	06/20/2021	19:07	-136.524	49.608	0	180.80	0	5.9460	0	33.7890	0	26.605	0	179.178	0	-1e10	8	-1e10	8	-1E+10	1	-1E+10	1	-1E+10	1	-1E+10	1	-1E+10	1	-1E+10	1
4902554	14	C	06/20/2021	19:07	-136.524	49.608	0	181.70	0	5.9350	0	33.7890	0	26.606	0	180.070	0	-1e10	8	-1e10	8	-1E+10	1	-1E+10	1	-1E+10	1	-1E+10	1	-1E+10	1	-1E+10	1
4902554	14	C	06/20/2021	19:07	-136.524	49.608	0	183.00	0	5.8770	0	33.7930	0	26.616	0	181.357	0	-1e10	8	-1e10	8	-1E+10	1	-1E+10	1	-1E+10	1	-1E+10	1	-1E+10	1	-1E+10	1
4902554	14	C	06/20/2021	19:07	-136.524	49.608	0	184.20	0	5.8160	0	33.7950	0	26.625	0	182.546	0	-1e10	8	-1e10	8	-1E+10	1	-1E+10	1	-1E+10	1	-1E+10	1	-1E+10	1	-1E+10	1
4902554	14	C	06/20/2021	19:07	-136.524	49.608	0	185.10	0	5.7630	0	33.7840	0	26.623	0	183.437	0	-1e10	8	-1e10	8	-1E+10	1	-1E+10	1	-1E+10	1	-1E+10	1	-1E+10	1	-1E+10	1
4902554	14	C	06/20/2021	19:07	-136.524	49.608	0	185.90	0	5.7560	0	33.7820	0	26.622	0	184.230	0	-1e10	8	-1e10	8	-1E+10	1	-1E+10	1	-1E+10	1	-1E+10	1	-1E+10	1	-1E+10	1
4902554	14	C	06/20/2021	19:07	-136.524	49.608	0	186.80	0	5.7610	0	33.7810	0	26.621	0	185.121	0	-1e10	8	-1e10	8	-1E+10	1	-1E+10	1	-1E+10	1	-1E+10	1	-1E+10	1	-1E+10	1
4902554	14	C	06/20/2021	19:07	-136.524	49.608	0	188.00	0	5.7740	0	33.7940	0	26.630	0	186.310	0	-1e10	8	-1e10	8	-1E+10	1	-1E+10	1	-1E+10	1	-1E+10	1	-1E+10	1	-1E+10	1
4902554	14	C	06/20/2021	19:07	-136.524	49.608	0	189.20	0	5.7800	0	33.7840	0	26.621	0	187.499	0	-1e10	8	-1e10	8	-1E+10	1	-1E+10	1	-1E+10	1	-1E+10	1	-1E+10	1	-1E+10	1
4902554	14	C	06/20/2021	19:07	-136.524	49.608	0	190.00	0	5.8240	0	33.7960	0	26.625	0	188.291	0	-1e10	8	-1e10	8	-1E+10	1	-1E+10	1	-1E+10	1	-1E+10	1	-1E+10	1	-1E+10	1
4902554	14	C	06/20/2021	19:07	-136.524	49.608	0	190.80	0	5.8530	0	33.8090	0	26.632	0	189.084	0	-1e10	8	-1e10	8	-1E+10	1	-1E+10	1	-1E+10	1	-1E+10	1	-1E+10	1	-1E+10	1
4902554	14	C	06/20/2021	19:07	-136.524	49.608	0	191.70	0	5.8580	0	33.8160	0	26.637	0	189.975	0	-1e10	8	-1e10	8	-1E+10	1	-1E+10	1	-1E+10	1	-1E+10	1	-1E+10	1	-1E+10	1
4902554	14	C	06/20/2021	19:07	-136.524	49.608	0	192.90	0	5.8470	0	33.8190	0	26.641	0	191.164	0	-1e10	8	-1e10	8	-1E+10	1	-1E+10	1	-1E+10	1	-1E+10	1	-1E+10	1	-1E+10	1
4902554	14	C	06/20/2021	19:07	-136.524	49.608	0	194.20	0	5.8350	0	33.8190	0	26.642	0	192.452	0	-1e10	8	-1e10	8	-1E+10	1	-1E+10	1	-1E+10	1	-1E+10	1	-1E+10	1	-1E+10	1
4902554	14	C	06/20/2021	19:07	-136.524	49.608	0	195.10	0	5.8510	0	33.8120	0	26.635	0	193.343	0	-1e10	8	-1e10	8	-1E+10	1	-1E+10	1	-1E+10	1	-1E+10	1	-1E+10	1	-1E+10	1
4902554	14	C	06/20/2021	19:07	-136.524	49.608	0	195.90	0	5.8720	0	33.8360	0	26.651	0	194.135	0	-1e10	8	-1e10	8	-1E+10	1	-1E+10	1	-1E+10	1	-1E+10	1	-1E+10	1	-1E+10	1
4902554	14	C	06/20/2021	19:07	-136.524	49.608	0	196.70	0	5.8930	0	33.8370	0	26.649	0	194.928	0	-1e10	8	-1e10	8	-1E+10	1	-1E+10	1	-1E+10	1	-1E+10	1	-1E+10	1	-1E+10	1
4902554	14	C	06/20/2021	19:07	-136.524	49.608	0	197.60	0	5.8350	0	33.8530	0	26.669	0	195.819	0	-1e10	8	-1e10	8	-1E+10	1	-1E+10	1	-1E+10	1	-1E+10	1	-1E+10	1	-1E+10	1
4902554	14	C	06/20/2021	19:07	-136.524	49.608	0	198.90	0	5.8300	0	33.8350	0	26.655	0	197.107	0	-1e10	8	-1e10	8	-1E+10	1	-1E+10	1	-1E+10	1	-1E+10	1	-1E+10	1	-1E+10	1
4902554	14	C	06/20/2021	19:07	-136.524	49.608	0	200.10	0	5.8310	0	33.8540	0	26.670	0	198.296	0	-1e10	8	-1e10	8	-1E+10	1	-1E+10	1	-1E+10	1	-1E+10	1	-1E+10	1	-1E+10	1
4902554	14	C	06/20/2021	19:07	-136.524	49.608	0	201.00	0	5.8180	0	33.8610	0	26.677	0	199.187	0	-1e10	8	-1e10	8	-1E+10	1	-1E+10	1	-1E+10	1	-1E+10	1	-1E+10	1	-1E+10	1
4902554	14	C	06/20/2021	19:07	-136.524	49.608	0	201.80	0	5.7780	0	33.8560	0	26.678	0	199.979	0	-1e10	8	-1e10	8	-1E+10	1	-1E+10	1	-1E+10	1	-1E+10	1	-1E+10	1	-1E+10	1
4902554	14	C	06/20/2021	19:07	-136.524	49.608	0	202.70	0	5.7430	0	33.8580	0	26.684	0	200.871	0	-1e10	8	-1e10	8	-1E+10	1	-1E+10	1	-1E+10	1	-1E+10	1	-1E+10	1	-1E+10	1
4902554	14	C	06/20/2021	19:07	-136.524	49.608	0	203.60	0	5.7190	0	33.8600	0	26.689	0	201.762	0	-1e10	8	-1e10	8	-1E+10	1	-1E+10	1	-1E+10	1	-1E+10	1	-1E+10	1	-1E+10	1
4902554	14	C	06/20/2021	19:07	-136.524	49.608	0	204.90	0	5.6960	0	33.8590	0	26.691	0	203.050	0	-1e10	8	-1e10	8	-1E+10	1	-1E+10	1	-1E+10	1	-1E+10	1	-1E+10	1	-1E+10	1
4902554	14	C	06/20/2021	19:07	-136.524	49.608	0	206.30	0	5.6720	0	33.8620	0	26.696	0	204.437	0	-1e10	8	-1e10	8	-1E+10	1	-1E+10	1	-1E+10	1	-1E+10	1	-1E+10	1	-1E+10	1
4902554	14	C	06/20/2021	19:07	-136.524	49.608	0	207.20	0	5.6660	0	33.8610	0	26.696	0	205.328	0	-1e10	8	-1e10	8	-1E+10	1	-1E+10	1	-1E+10	1	-1E+10	1	-1E+10	1	-1E+10	1
4902554	14	C	06/20/2021	19:07	-136.524	49.608	0	208.10	0	5.6640	0	33.8610	0	26.696	0	206.219	0	-1e10	8	-1e10	8	-1E+10	1	-1E+10	1	-1E+10	1	-1E+10	1	-1E+10	1	-1E+10	1
4902554	14	C	06/20/2021	19:07	-136.524	49.608	0	209.00	0	5.6590	0	33.8630	0	26.699	0	207.111	0	-1e10	8	-1e10	8	-1E+10	1	-1E+10	1	-1E+10	1	-1E+10	1	-1E+10	1	-1E+10	1
4902554	14	C	06/20/2021	19:07	-136.524	49.608	0	209.90	0	5.6490	0	33.8620	0	26.699	0	208.002	0	-1e10	8	-1e10	8	-1E+10	1	-1E+10	1	-1E+10	1	-1E+10	1	-1E+10	1	-1E+10	1
4902554	14	C	06/20/2021	19:07	-136.524	49.608	0	210.80	0	5.6450	0	33.8610	0	26.699	0	208.894	0	-1e10	8	-1e10	8	-1E+10	1	-1E+10	1	-1E+10	1	-1E+10	1	-1E+10	1	-1E+10	1
4902554	14	C	06/20/2021	19:07	-136.524	49.608	0	211.70	0	5.6450	0	33.8610	0	26.699	0	209.785	0	-1e10	8	-1e10	8	-1E+10	1	-1E+10	1	-1E+10	1	-1E+10	1	-1E+10	1	-1E+10	1
4902554	14	C	06/20/2021	19:07	-136.524	49.608	0	212.60	0	5.6360	0	33.8620	0	26.701	0	210.676	0	-1e10	8	-1e10	8	-1E+10	1	-1E+10	1	-1E+10	1	-1E+10	1	-1E+10	1	-1E+10	1
4902554	14	C	06/20/2021	19:07	-136.524	49.608	0	213.90	0	5.6330	0	33.8630	0	26.702	0	211.964	0	-1e10	8	-1e10	8	-1E+10	1	-1E+10	1	-1E+10	1	-1E+10	1	-1E+10	1	-1E+10	1
4902554	14	C	06/20/2021	19:07	-136.524	49.608	0	215.40	0	5.6270	0	33.8630	0	26.702	0	213.450	0	-1e10	8	-1e10	8	-1E+10	1	-1E+10	1	-1E+10	1	-1E+10	1	-1E+10	1	-1E+10	1
4902554	14	C	06/20/2021	19:07	-136.524	49.608	0	216.30	0	5.6180	0	33.8670	0	26.707	0	214.341	0	-1e10	8	-1e10	8	-1E+10	1	-1E+10	1	-1E+10	1	-1E+10	1	-1E+10	1	-1E+10	1
4902554	14	C	06/20/2021	19:07	-136.524	49.608	0	217.20	0	5.5730	0	33.8730	0	26.717	0	215.232	0	-1e10	8	-1e10	8	-1E+10	1	-1E+10	1	-1E+10	1	-1E+10	1	-1E+10	1	-1E+10	1
4902554	14	C	06/20/2021	19:07	-136.524	49.608	0	218.20	0	5.5440	0	33.8670	0	26.716	0	216.223	0	-1e10	8	-1e10	8	-1E+10	1	-1E+10	1	-1E+10	1	-1E+10	1	-1E+10	1	-1E+10	1
4902554	14	C	06/20/2021	19:07	-136.524	49.608	0	219.10	0	5.5160	0	33.8660	0	26.718	0	217.114	0	-1e10	8	-1e10	8	-1E+10	1	-1E+10	1	-1E+10	1	-1E+10	1	-1E+10	1	-1E+10	1
4902554	14	C	06/20/2021	19:07	-136.524	49.608	0	220.10	0	5.5020	0	33.8630	0	26.717	0	218.105	0	-1e10	8	-1e10	8	-1E+10	1	-1E+10	1	-1E+10	1	-1E+10	1	-1E+10	1	-1E+10	1
4902554	14	C	06/20/2021	19:07	-136.524	49.608	0	221.10	0	5.4930	0	33.8640	0	26.719	0	219.095	0	-1e10	8	-1e10	8	-1E+10	1	-1E+10	1	-1E+10	1	-1E+10	1	-1E+10	1	-1E+10	1
4902554	14	C	06/20/2021	19:07	-136.524	49.608	0	222.10	0	5.4910	0	33.8650	0	26.720	0	220.085	0	-1e10	8	-1e10	8	-1E+10	1	-1E+10	1	-1E+10	1	-1E+10	1	-1E+10	1	-1E+10	1
4902554	14	C	06/20/2021	19:07	-136.524	49.608	0	223.00	0	5.4820	0	33.8670	0	26.723	0	220.977	0	-1e10	8	-1e10	8	-1E+10	1	-1E+10	1	-1E+10	1	-1E+10	1	-1E+10	1	-1E+10	1
4902554	14	C	06/20/2021	19:07	-136.524	49.608	0	224.00	0	5.4710	0	33.8660	0	26.724	0	221.967	0	-1e10	8	-1e10	8	-1E+10	1	-1E+10	1	-1E+10	1	-1E+10	1	-1E+10	1	-1E+10	1
4902554	14	C	06/20/2021	19:07	-136.524	49.608	0	225.00	0	5.4630	0	33.8670	0	26.725	0	222.958	0	-1e10	8	-1e10	8	-1E+10	1	-1E+10	1	-1E+10	1	-1E+10	1	-1E+10	1	-1E+10	1
4902554	14	C	06/20/2021	19:07	-136.524	49.608	0	226.00	0	5.4530	0	33.8690	0	26.728	0	223.948	0	-1e10	8	-1e10	8	-1E+10	1	-1E+10	1	-1E+10	1	-1E+10	1	-1E+10	1	-1E+10	1
4902554	14	C	06/20/2021	19:07	-136.524	49.608	0	227.00	0	5.4270	0	33.8690	0	26.731	0	224.938	0	-1e10	8	-1e10	8	-1E+10	1	-1E+10	1	-1E+10	1	-1E+10	1	-1E+10	1	-1E+10	1
4902554	14	C	06/20/2021	19:07	-136.524	49.608	0	228.00	0	5.4020	0	33.8700	0	26.735	0	225.929	0	-1e10	8	-1e10	8	-1E+10	1	-1E+10	1	-1E+10	1	-1E+10	1	-1E+10	1	-1E+10	1
4902554	14	C	06/20/2021	19:07	-136.524	49.608	0	229.00	0	5.3920	0	33.8690	0	26.735	0	226.919	0	-1e10	8	-1e10	8	-1E+10	1	-1E+10	1	-1E+10	1	-1E+10	1	-1E+10	1	-1E+10	1
4902554	14	C	06/20/2021	19:07	-136.524	49.608	0	230.10	0	5.3710	0	33.8730	0	26.741	0	228.009	0	-1e10	8	-1e10	8	-1E+10	1	-1E+10	1	-1E+10	1	-1E+10	1	-1E+10	1	-1E+10	1
4902554	14	C	06/20/2021	19:07	-136.524	49.608	0	231.10	0	5.3560	0	33.8710	0	26.741	0	228.999	0	-1e10	8	-1e10	8	-1E+10	1	-1E+10	1	-1E+10	1	-1E+10	1	-1E+10	1	-1E+10	1
4902554	14	C	06/20/2021	19:07	-136.524	49.608	0	232.10	0	5.3450	0	33.8710	0	26.743	0	229.989	0	-1e10	8	-1e10	8	-1E+10	1	-1E+10	1	-1E+10	1	-1E+10	1	-1E+10	1	-1E+10	1
4902554	14	C	06/20/2021	19:07	-136.524	49.608	0	233.10	0	5.3220	0	33.8750	0	26.748	0	230.980	0	-1e10	8	-1e10	8	-1E+10	1	-1E+10	1	-1E+10	1	-1E+10	1	-1E+10	1	-1E+10	1
4902554	14	C	06/20/2021	19:07	-136.524	49.608	0	234.20	0	5.3150	0	33.8720	0	26.747	0	232.069	0	-1e10	8	-1e10	8	-1E+10	1	-1E+10	1	-1E+10	1	-1E+10	1	-1E+10	1	-1E+10	1
4902554	14	C	06/20/2021	19:07	-136.524	49.608	0	235.20	0	5.3070	0	33.8730	0	26.749	0	233.059	0	-1e10	8	-1e10	8	-1E+10	1	-1E+10	1	-1E+10	1	-1E+10	1	-1E+10	1	-1E+10	1
4902554	14	C	06/20/2021	19:07	-136.524	49.608	0	236.30	0	5.3030	0	33.8720	0	26.748	0	234.149	0	-1e10	8	-1e10	8	-1E+10	1	-1E+10	1	-1E+10	1	-1E+10	1	-1E+10	1	-1E+10	1
4902554	14	C	06/20/2021	19:07	-136.524	49.608	0	237.40	0	5.2910	0	33.8780	0	26.754	0	235.238	0	-1e10	8	-1e10	8	-1E+10	1	-1E+10	1	-1E+10	1	-1E+10	1	-1E+10	1	-1E+10	1
4902554	14	C	06/20/2021	19:07	-136.524	49.608	0	238.50	0	5.2730	0	33.8740	0	26.753	0	236.327	0	-1e10	8	-1e10	8	-1E+10	1	-1E+10	1	-1E+10	1	-1E+10	1	-1E+10	1	-1E+10	1
4902554	14	C	06/20/2021	19:07	-136.524	49.608	0	239.60	0	5.2700	0	33.8720	0	26.752	0	237.417	0	-1e10	8	-1e10	8	-1E+10	1	-1E+10	1	-1E+10	1	-1E+10	1	-1E+10	1	-1E+10	1
4902554	14	C	06/20/2021	19:07	-136.524	49.608	0	240.70	0	5.2660	0	33.8750	0	26.755	0	238.506	0	-1e10	8	-1e10	8	-1E+10	1	-1E+10	1	-1E+10	1	-1E+10	1	-1E+10	1	-1E+10	1
4902554	14	C	06/20/2021	19:07	-136.524	49.608	0	241.80	0	5.2620	0	33.8750	0	26.755	0	239.595	0	-1e10	8	-1e10	8	-1E+10	1	-1E+10	1	-1E+10	1	-1E+10	1	-1E+10	1	-1E+10	1
4902554	14	C	06/20/2021	19:07	-136.524	49.608	0	242.90	0	5.2590	0	33.8750	0	26.756	0	240.685	0	-1e10	8	-1e10	8	-1E+10	1	-1E+10	1	-1E+10	1	-1E+10	1	-1E+10	1	-1E+10	1
4902554	14	C	06/20/2021	19:07	-136.524	49.608	0	244.00	0	5.2540	0	33.8750	0	26.756	0	241.774	0	-1e10	8	-1e10	8	-1E+10	1	-1E+10	1	-1E+10	1	-1E+10	1	-1E+10	1	-1E+10	1
4902554	14	C	06/20/2021	19:07	-136.524	49.608	0	245.10	0	5.2520	0	33.8750	0	26.757	0	242.863	0	-1e10	8	-1e10	8	-1E+10	1	-1E+10	1	-1E+10	1	-1E+10	1	-1E+10	1	-1E+10	1
4902554	14	C	06/20/2021	19:07	-136.524	49.608	0	246.20	0	5.2500	0	33.8770	0	26.759	0	243.953	0	-1e10	8	-1e10	8	-1E+10	1	-1E+10	1	-1E+10	1	-1E+10	1	-1E+10	1	-1E+10	1
4902554	14	C	06/20/2021	19:07	-136.524	49.608	0	247.30	0	5.2480	0	33.8780	0	26.760	0	245.042	0	-1e10	8	-1e10	8	-1E+10	1	-1E+10	1	-1E+10	1	-1E+10	1	-1E+10	1	-1E+10	1
4902554	14	C	06/20/2021	19:07	-136.524	49.608	0	248.40	0	5.2450	0	33.8790	0	26.761	0	246.131	0	-1e10	8	-1e10	8	-1E+10	1	-1E+10	1	-1E+10	1	-1E+10	1	-1E+10	1	-1E+10	1
4902554	14	C	06/20/2021	19:07	-136.524	49.608	0	249.50	0	5.2320	0	33.8830	0	26.765	0	247.221	0	-1e10	8	-1e10	8	-1E+10	1	-1E+10	1	-1E+10	1	-1E+10	1	-1E+10	1	-1E+10	1
4902554	14	C	06/20/2021	19:07	-136.524	49.608	0	250.60	0	5.2230	0	33.8830	0	26.766	0	248.310	0	-1e10	8	-1e10	8	-1E+10	1	-1E+10	1	-1E+10	1	-1E+10	1	-1E+10	1	-1E+10	1
4902554	14	C	06/20/2021	19:07	-136.524	49.608	0	251.70	0	5.2120	0	33.8820	0	26.767	0	249.399	0	-1e10	8	-1e10	8	-1E+10	1	-1E+10	1	-1E+10	1	-1E+10	1	-1E+10	1	-1E+10	1
4902554	14	C	06/20/2021	19:07	-136.524	49.608	0	252.80	0	5.2050	0	33.8840	0	26.769	0	250.488	0	-1e10	8	-1e10	8	-1E+10	1	-1E+10	1	-1E+10	1	-1E+10	1	-1E+10	1	-1E+10	1
4902554	14	C	06/20/2021	19:07	-136.524	49.608	0	253.90	0	5.1940	0	33.8830	0	26.770	0	251.578	0	-1e10	8	-1e10	8	-1E+10	1	-1E+10	1	-1E+10	1	-1E+10	1	-1E+10	1	-1E+10	1
4902554	14	C	06/20/2021	19:07	-136.524	49.608	0	255.00	0	5.1940	0	33.8820	0	26.769	0	252.667	0	-1e10	8	-1e10	8	-1E+10	1	-1E+10	1	-1E+10	1	-1E+10	1	-1E+10	1	-1E+10	1
4902554	14	C	06/20/2021	19:07	-136.524	49.608	0	256.10	0	5.1940	0	33.8810	0	26.768	0	253.756	0	-1e10	8	-1e10	8	-1E+10	1	-1E+10	1	-1E+10	1	-1E+10	1	-1E+10	1	-1E+10	1
4902554	14	C	06/20/2021	19:07	-136.524	49.608	0	257.20	0	5.1940	0	33.8820	0	26.769	0	254.846	0	-1e10	8	-1e10	8	-1E+10	1	-1E+10	1	-1E+10	1	-1E+10	1	-1E+10	1	-1E+10	1
4902554	14	C	06/20/2021	19:07	-136.524	49.608	0	258.30	0	5.1940	0	33.8820	0	26.769	0	255.935	0	-1e10	8	-1e10	8	-1E+10	1	-1E+10	1	-1E+10	1	-1E+10	1	-1E+10	1	-1E+10	1
4902554	14	C	06/20/2021	19:07	-136.524	49.608	0	259.40	0	5.1930	0	33.8820	0	26.769	0	257.024	0	-1e10	8	-1e10	8	-1E+10	1	-1E+10	1	-1E+10	1	-1E+10	1	-1E+10	1	-1E+10	1
4902554	14	C	06/20/2021	19:07	-136.524	49.608	0	260.40	0	5.1750	0	33.8910	0	26.778	0	258.014	0	-1e10	8	-1e10	8	-1E+10	1	-1E+10	1	-1E+10	1	-1E+10	1	-1E+10	1	-1E+10	1
4902554	14	C	06/20/2021	19:07	-136.524	49.608	0	261.50	0	5.1540	0	33.8850	0	26.776	0	259.103	0	-1e10	8	-1e10	8	-1E+10	1	-1E+10	1	-1E+10	1	-1E+10	1	-1E+10	1	-1E+10	1
4902554	14	C	06/20/2021	19:07	-136.524	49.608	0	262.50	0	5.1450	0	33.8860	0	26.778	0	260.094	0	-1e10	8	-1e10	8	-1E+10	1	-1E+10	1	-1E+10	1	-1E+10	1	-1E+10	1	-1E+10	1
4902554	14	C	06/20/2021	19:07	-136.524	49.608	0	263.90	0	5.1310	0	33.8850	0	26.779	0	261.480	0	-1e10	8	-1e10	8	-1E+10	1	-1E+10	1	-1E+10	1	-1E+10	1	-1E+10	1	-1E+10	1
4902554	14	C	06/20/2021	19:07	-136.524	49.608	0	265.20	0	5.1300	0	33.8860	0	26.780	0	262.767	0	-1e10	8	-1e10	8	-1E+10	1	-1E+10	1	-1E+10	1	-1E+10	1	-1E+10	1	-1E+10	1
4902554	14	C	06/20/2021	19:07	-136.524	49.608	0	266.00	0	5.1210	0	33.8870	0	26.782	0	263.559	0	-1e10	8	-1e10	8	-1E+10	1	-1E+10	1	-1E+10	1	-1E+10	1	-1E+10	1	-1E+10	1
4902554	14	C	06/20/2021	19:07	-136.524	49.608	0	266.80	0	5.1170	0	33.8870	0	26.782	0	264.351	0	-1e10	8	-1e10	8	-1E+10	1	-1E+10	1	-1E+10	1	-1E+10	1	-1E+10	1	-1E+10	1
4902554	14	C	06/20/2021	19:07	-136.524	49.608	0	267.70	0	5.1110	0	33.8870	0	26.783	0	265.243	0	-1e10	8	-1e10	8	-1E+10	1	-1E+10	1	-1E+10	1	-1E+10	1	-1E+10	1	-1E+10	1
4902554	14	C	06/20/2021	19:07	-136.524	49.608	0	268.90	0	5.1050	0	33.8860	0	26.783	0	266.431	0	-1e10	8	-1e10	8	-1E+10	1	-1E+10	1	-1E+10	1	-1E+10	1	-1E+10	1	-1E+10	1
4902554	14	C	06/20/2021	19:07	-136.524	49.608	0	270.10	0	5.1030	0	33.8860	0	26.783	0	267.619	0	-1e10	8	-1e10	8	-1E+10	1	-1E+10	1	-1E+10	1	-1E+10	1	-1E+10	1	-1E+10	1
4902554	14	C	06/20/2021	19:07	-136.524	49.608	0	270.90	0	5.1020	0	33.8860	0	26.783	0	268.411	0	-1e10	8	-1e10	8	-1E+10	1	-1E+10	1	-1E+10	1	-1E+10	1	-1E+10	1	-1E+10	1
4902554	14	C	06/20/2021	19:07	-136.524	49.608	0	271.70	0	5.1000	0	33.8860	0	26.783	0	269.203	0	-1e10	8	-1e10	8	-1E+10	1	-1E+10	1	-1E+10	1	-1E+10	1	-1E+10	1	-1E+10	1
4902554	14	C	06/20/2021	19:07	-136.524	49.608	0	272.90	0	5.0890	0	33.8880	0	26.786	0	270.392	0	-1e10	8	-1e10	8	-1E+10	1	-1E+10	1	-1E+10	1	-1E+10	1	-1E+10	1	-1E+10	1
4902554	14	C	06/20/2021	19:07	-136.524	49.608	0	274.20	0	5.0280	0	33.8930	0	26.797	0	271.679	0	-1e10	8	-1e10	8	-1E+10	1	-1E+10	1	-1E+10	1	-1E+10	1	-1E+10	1	-1E+10	1
4902554	14	C	06/20/2021	19:07	-136.524	49.608	0	275.00	0	5.0250	0	33.8870	0	26.793	0	272.471	0	-1e10	8	-1e10	8	-1E+10	1	-1E+10	1	-1E+10	1	-1E+10	1	-1E+10	1	-1E+10	1
4902554	14	C	06/20/2021	19:07	-136.524	49.608	0	275.80	0	5.0180	0	33.8870	0	26.793	0	273.263	0	-1e10	8	-1e10	8	-1E+10	1	-1E+10	1	-1E+10	1	-1E+10	1	-1E+10	1	-1E+10	1
4902554	14	C	06/20/2021	19:07	-136.524	49.608	0	277.00	0	5.0140	0	33.8850	0	26.792	0	274.451	0	-1e10	8	-1e10	8	-1E+10	1	-1E+10	1	-1E+10	1	-1E+10	1	-1E+10	1	-1E+10	1
4902554	14	C	06/20/2021	19:07	-136.524	49.608	0	278.30	0	5.0010	0	33.8860	0	26.795	0	275.738	0	-1e10	8	-1e10	8	-1E+10	1	-1E+10	1	-1E+10	1	-1E+10	1	-1E+10	1	-1E+10	1
4902554	14	C	06/20/2021	19:07	-136.524	49.608	0	279.10	0	4.9990	0	33.8860	0	26.795	0	276.530	0	-1e10	8	-1e10	8	-1E+10	1	-1E+10	1	-1E+10	1	-1E+10	1	-1E+10	1	-1E+10	1
4902554	14	C	06/20/2021	19:07	-136.524	49.608	0	279.90	0	4.9970	0	33.8860	0	26.795	0	277.322	0	-1e10	8	-1e10	8	-1E+10	1	-1E+10	1	-1E+10	1	-1E+10	1	-1E+10	1	-1E+10	1
4902554	14	C	06/20/2021	19:07	-136.524	49.608	0	280.70	0	4.9930	0	33.8870	0	26.796	0	278.115	0	-1e10	8	-1e10	8	-1E+10	1	-1E+10	1	-1E+10	1	-1E+10	1	-1E+10	1	-1E+10	1
4902554	14	C	06/20/2021	19:07	-136.524	49.608	0	281.90	0	4.9830	0	33.8870	0	26.797	0	279.303	0	-1e10	8	-1e10	8	-1E+10	1	-1E+10	1	-1E+10	1	-1E+10	1	-1E+10	1	-1E+10	1
4902554	14	C	06/20/2021	19:07	-136.524	49.608	0	283.10	0	4.9770	0	33.8880	0	26.799	0	280.491	0	-1e10	8	-1e10	8	-1E+10	1	-1E+10	1	-1E+10	1	-1E+10	1	-1E+10	1	-1E+10	1
4902554	14	C	06/20/2021	19:07	-136.524	49.608	0	283.90	0	4.9740	0	33.8880	0	26.799	0	281.283	0	-1e10	8	-1e10	8	-1E+10	1	-1E+10	1	-1E+10	1	-1E+10	1	-1E+10	1	-1E+10	1
4902554	14	C	06/20/2021	19:07	-136.524	49.608	0	284.70	0	4.9690	0	33.8880	0	26.800	0	282.075	0	-1e10	8	-1e10	8	-1E+10	1	-1E+10	1	-1E+10	1	-1E+10	1	-1E+10	1	-1E+10	1
4902554	14	C	06/20/2021	19:07	-136.524	49.608	0	285.90	0	4.9650	0	33.8890	0	26.801	0	283.263	0	-1e10	8	-1e10	8	-1E+10	1	-1E+10	1	-1E+10	1	-1E+10	1	-1E+10	1	-1E+10	1
4902554	14	C	06/20/2021	19:07	-136.524	49.608	0	287.20	0	4.9530	0	33.8940	0	26.806	0	284.550	0	-1e10	8	-1e10	8	-1E+10	1	-1E+10	1	-1E+10	1	-1E+10	1	-1E+10	1	-1E+10	1
4902554	14	C	06/20/2021	19:07	-136.524	49.608	0	288.00	0	4.9490	0	33.8930	0	26.806	0	285.342	0	-1e10	8	-1e10	8	-1E+10	1	-1E+10	1	-1E+10	1	-1E+10	1	-1E+10	1	-1E+10	1
4902554	14	C	06/20/2021	19:07	-136.524	49.608	0	288.80	0	4.9300	0	33.8940	0	26.809	0	286.134	0	-1e10	8	-1e10	8	-1E+10	1	-1E+10	1	-1E+10	1	-1E+10	1	-1E+10	1	-1E+10	1
4902554	14	C	06/20/2021	19:07	-136.524	49.608	0	290.00	0	4.9150	0	33.8910	0	26.808	0	287.322	0	-1e10	8	-1e10	8	-1E+10	1	-1E+10	1	-1E+10	1	-1E+10	1	-1E+10	1	-1E+10	1
4902554	14	C	06/20/2021	19:07	-136.524	49.608	0	291.20	0	4.9000	0	33.8920	0	26.811	0	288.511	0	-1e10	8	-1e10	8	-1E+10	1	-1E+10	1	-1E+10	1	-1E+10	1	-1E+10	1	-1E+10	1
4902554	14	C	06/20/2021	19:07	-136.524	49.608	0	292.10	0	4.9000	0	33.8920	0	26.811	0	289.402	0	-1e10	8	-1e10	8	-1E+10	1	-1E+10	1	-1E+10	1	-1E+10	1	-1E+10	1	-1E+10	1
4902554	14	C	06/20/2021	19:07	-136.524	49.608	0	292.90	0	4.8900	0	33.8930	0	26.813	0	290.194	0	-1e10	8	-1e10	8	-1E+10	1	-1E+10	1	-1E+10	1	-1E+10	1	-1E+10	1	-1E+10	1
4902554	14	C	06/20/2021	19:07	-136.524	49.608	0	293.70	0	4.8970	0	33.8930	0	26.812	0	290.986	0	-1e10	8	-1e10	8	-1E+10	1	-1E+10	1	-1E+10	1	-1E+10	1	-1E+10	1	-1E+10	1
4902554	14	C	06/20/2021	19:07	-136.524	49.608	0	295.00	0	4.9000	0	33.8990	0	26.816	0	292.273	0	-1e10	8	-1e10	8	-1E+10	1	-1E+10	1	-1E+10	1	-1E+10	1	-1E+10	1	-1E+10	1
4902554	14	C	06/20/2021	19:07	-136.524	49.608	0	296.20	0	4.8840	0	33.8990	0	26.818	0	293.461	0	-1e10	8	-1e10	8	-1E+10	1	-1E+10	1	-1E+10	1	-1E+10	1	-1E+10	1	-1E+10	1
4902554	14	C	06/20/2021	19:07	-136.524	49.608	0	297.00	0	4.8720	0	33.8990	0	26.820	0	294.253	0	-1e10	8	-1e10	8	-1E+10	1	-1E+10	1	-1E+10	1	-1E+10	1	-1E+10	1	-1E+10	1
4902554	14	C	06/20/2021	19:07	-136.524	49.608	0	297.90	0	4.8550	0	33.8990	0	26.821	0	295.144	0	-1e10	8	-1e10	8	-1E+10	1	-1E+10	1	-1E+10	1	-1E+10	1	-1E+10	1	-1E+10	1
4902554	14	C	06/20/2021	19:07	-136.524	49.608	0	298.70	0	4.8540	0	33.8990	0	26.822	0	295.936	0	-1e10	8	-1e10	8	-1E+10	1	-1E+10	1	-1E+10	1	-1E+10	1	-1E+10	1	-1E+10	1
4902554	14	C	06/20/2021	19:07	-136.524	49.608	0	299.90	0	4.8540	0	33.9030	0	26.825	0	297.124	0	-1e10	8	-1e10	8	-1E+10	1	-1E+10	1	-1E+10	1	-1E+10	1	-1E+10	1	-1E+10	1
4902554	14	C	06/20/2021	19:07	-136.524	49.608	0	301.20	0	4.8510	0	33.9040	0	26.826	0	298.411	0	-1e10	8	-1e10	8	-1E+10	1	-1E+10	1	-1E+10	1	-1E+10	1	-1E+10	1	-1E+10	1
4902554	14	C	06/20/2021	19:07	-136.524	49.608	0	302.00	0	4.8440	0	33.9060	0	26.828	0	299.203	0	-1e10	8	-1e10	8	-1E+10	1	-1E+10	1	-1E+10	1	-1E+10	1	-1E+10	1	-1E+10	1
4902554	14	C	06/20/2021	19:07	-136.524	49.608	0	302.90	0	4.8390	0	33.9050	0	26.828	0	300.094	0	-1e10	8	-1e10	8	-1E+10	1	-1E+10	1	-1E+10	1	-1E+10	1	-1E+10	1	-1E+10	1
4902554	14	C	06/20/2021	19:07	-136.524	49.608	0	303.70	0	4.8290	0	33.9050	0	26.829	0	300.886	0	-1e10	8	-1e10	8	-1E+10	1	-1E+10	1	-1E+10	1	-1E+10	1	-1E+10	1	-1E+10	1
4902554	14	C	06/20/2021	19:07	-136.524	49.608	0	305.00	0	4.8260	0	33.9050	0	26.829	0	302.173	0	-1e10	8	-1e10	8	-1E+10	1	-1E+10	1	-1E+10	1	-1E+10	1	-1E+10	1	-1E+10	1
4902554	14	C	06/20/2021	19:07	-136.524	49.608	0	306.30	0	4.8180	0	33.9060	0	26.831	0	303.460	0	-1e10	8	-1e10	8	-1E+10	1	-1E+10	1	-1E+10	1	-1E+10	1	-1E+10	1	-1E+10	1
4902554	14	C	06/20/2021	19:07	-136.524	49.608	0	307.10	0	4.8030	0	33.9050	0	26.832	0	304.252	0	-1e10	8	-1e10	8	-1E+10	1	-1E+10	1	-1E+10	1	-1E+10	1	-1E+10	1	-1E+10	1
4902554	14	C	06/20/2021	19:07	-136.524	49.608	0	308.00	0	4.8010	0	33.9050	0	26.832	0	305.143	0	-1e10	8	-1e10	8	-1E+10	1	-1E+10	1	-1E+10	1	-1E+10	1	-1E+10	1	-1E+10	1
4902554	14	C	06/20/2021	19:07	-136.524	49.608	0	308.80	0	4.7990	0	33.9040	0	26.832	0	305.935	0	-1e10	8	-1e10	8	-1E+10	1	-1E+10	1	-1E+10	1	-1E+10	1	-1E+10	1	-1E+10	1
4902554	14	C	06/20/2021	19:07	-136.524	49.608	0	309.70	0	4.7930	0	33.9060	0	26.834	0	306.826	0	-1e10	8	-1e10	8	-1E+10	1	-1E+10	1	-1E+10	1	-1E+10	1	-1E+10	1	-1E+10	1
4902554	14	C	06/20/2021	19:07	-136.524	49.608	0	310.90	0	4.7860	0	33.9070	0	26.836	0	308.014	0	-1e10	8	-1e10	8	-1E+10	1	-1E+10	1	-1E+10	1	-1E+10	1	-1E+10	1	-1E+10	1
4902554	14	C	06/20/2021	19:07	-136.524	49.608	0	312.20	0	4.7780	0	33.9090	0	26.838	0	309.301	0	-1e10	8	-1e10	8	-1E+10	1	-1E+10	1	-1E+10	1	-1E+10	1	-1E+10	1	-1E+10	1
4902554	14	C	06/20/2021	19:07	-136.524	49.608	0	313.10	0	4.7770	0	33.9070	0	26.837	0	310.192	0	-1e10	8	-1e10	8	-1E+10	1	-1E+10	1	-1E+10	1	-1E+10	1	-1E+10	1	-1E+10	1
4902554	14	C	06/20/2021	19:07	-136.524	49.608	0	314.00	0	4.7760	0	33.9080	0	26.837	0	311.083	0	-1e10	8	-1e10	8	-1E+10	1	-1E+10	1	-1E+10	1	-1E+10	1	-1E+10	1	-1E+10	1
4902554	14	C	06/20/2021	19:07	-136.524	49.608	0	314.80	0	4.7760	0	33.9080	0	26.837	0	311.875	0	-1e10	8	-1e10	8	-1E+10	1	-1E+10	1	-1E+10	1	-1E+10	1	-1E+10	1	-1E+10	1
4902554	14	C	06/20/2021	19:07	-136.524	49.608	0	315.70	0	4.7690	0	33.9100	0	26.840	0	312.766	0	-1e10	8	-1e10	8	-1E+10	1	-1E+10	1	-1E+10	1	-1E+10	1	-1E+10	1	-1E+10	1
4902554	14	C	06/20/2021	19:07	-136.524	49.608	0	316.90	0	4.7660	0	33.9110	0	26.841	0	313.954	0	-1e10	8	-1e10	8	-1E+10	1	-1E+10	1	-1E+10	1	-1E+10	1	-1E+10	1	-1E+10	1
4902554	14	C	06/20/2021	19:07	-136.524	49.608	0	318.20	0	4.7650	0	33.9120	0	26.842	0	315.241	0	-1e10	8	-1e10	8	-1E+10	1	-1E+10	1	-1E+10	1	-1E+10	1	-1E+10	1	-1E+10	1
4902554	14	C	06/20/2021	19:07	-136.524	49.608	0	319.10	0	4.7580	0	33.9120	0	26.843	0	316.132	0	-1e10	8	-1e10	8	-1E+10	1	-1E+10	1	-1E+10	1	-1E+10	1	-1E+10	1	-1E+10	1
4902554	14	C	06/20/2021	19:07	-136.524	49.608	0	319.90	0	4.7560	0	33.9120	0	26.843	0	316.924	0	-1e10	8	-1e10	8	-1E+10	1	-1E+10	1	-1E+10	1	-1E+10	1	-1E+10	1	-1E+10	1
4902554	14	C	06/20/2021	19:07	-136.524	49.608	0	320.70	0	4.7530	0	33.9120	0	26.843	0	317.716	0	-1e10	8	-1e10	8	-1E+10	1	-1E+10	1	-1E+10	1	-1E+10	1	-1E+10	1	-1E+10	1
4902554	14	C	06/20/2021	19:07	-136.524	49.608	0	321.60	0	4.7520	0	33.9130	0	26.844	0	318.606	0	-1e10	8	-1e10	8	-1E+10	1	-1E+10	1	-1E+10	1	-1E+10	1	-1E+10	1	-1E+10	1
4902554	14	C	06/20/2021	19:07	-136.524	49.608	0	322.90	0	4.7400	0	33.9140	0	26.846	0	319.893	0	-1e10	8	-1e10	8	-1E+10	1	-1E+10	1	-1E+10	1	-1E+10	1	-1E+10	1	-1E+10	1
4902554	14	C	06/20/2021	19:07	-136.524	49.608	0	324.20	0	4.7340	0	33.9140	0	26.847	0	321.180	0	-1e10	8	-1e10	8	-1E+10	1	-1E+10	1	-1E+10	1	-1E+10	1	-1E+10	1	-1E+10	1
4902554	14	C	06/20/2021	19:07	-136.524	49.608	0	325.10	0	4.7260	0	33.9150	0	26.849	0	322.071	0	-1e10	8	-1e10	8	-1E+10	1	-1E+10	1	-1E+10	1	-1E+10	1	-1E+10	1	-1E+10	1
4902554	14	C	06/20/2021	19:07	-136.524	49.608	0	326.00	0	4.7070	0	33.9160	0	26.852	0	322.962	0	-1e10	8	-1e10	8	-1E+10	1	-1E+10	1	-1E+10	1	-1E+10	1	-1E+10	1	-1E+10	1
4902554	14	C	06/20/2021	19:07	-136.524	49.608	0	326.80	0	4.7020	0	33.9150	0	26.851	0	323.754	0	-1e10	8	-1e10	8	-1E+10	1	-1E+10	1	-1E+10	1	-1E+10	1	-1E+10	1	-1E+10	1
4902554	14	C	06/20/2021	19:07	-136.524	49.608	0	327.70	0	4.7000	0	33.9150	0	26.852	0	324.645	0	-1e10	8	-1e10	8	-1E+10	1	-1E+10	1	-1E+10	1	-1E+10	1	-1E+10	1	-1E+10	1
4902554	14	C	06/20/2021	19:07	-136.524	49.608	0	328.60	0	4.6940	0	33.9160	0	26.853	0	325.536	0	-1e10	8	-1e10	8	-1E+10	1	-1E+10	1	-1E+10	1	-1E+10	1	-1E+10	1	-1E+10	1
4902554	14	C	06/20/2021	19:07	-136.524	49.608	0	329.90	0	4.6840	0	33.9150	0	26.853	0	326.823	0	-1e10	8	-1e10	8	-1E+10	1	-1E+10	1	-1E+10	1	-1E+10	1	-1E+10	1	-1E+10	1
4902554	14	C	06/20/2021	19:07	-136.524	49.608	0	331.30	0	4.6830	0	33.9160	0	26.854	0	328.208	0	-1e10	8	-1e10	8	-1E+10	1	-1E+10	1	-1E+10	1	-1E+10	1	-1E+10	1	-1E+10	1
4902554	14	C	06/20/2021	19:07	-136.524	49.608	0	332.20	0	4.6890	0	33.9160	0	26.854	0	329.099	0	-1e10	8	-1e10	8	-1E+10	1	-1E+10	1	-1E+10	1	-1E+10	1	-1E+10	1	-1E+10	1
4902554	14	C	06/20/2021	19:07	-136.524	49.608	0	333.10	0	4.6880	0	33.9170	0	26.854	0	329.990	0	-1e10	8	-1e10	8	-1E+10	1	-1E+10	1	-1E+10	1	-1E+10	1	-1E+10	1	-1E+10	1
4902554	14	C	06/20/2021	19:07	-136.524	49.608	0	334.00	0	4.6860	0	33.9170	0	26.855	0	330.881	0	-1e10	8	-1e10	8	-1E+10	1	-1E+10	1	-1E+10	1	-1E+10	1	-1E+10	1	-1E+10	1
4902554	14	C	06/20/2021	19:07	-136.524	49.608	0	334.90	0	4.6630	0	33.9160	0	26.856	0	331.772	0	-1e10	8	-1e10	8	-1E+10	1	-1E+10	1	-1E+10	1	-1E+10	1	-1E+10	1	-1E+10	1
4902554	14	C	06/20/2021	19:07	-136.524	49.608	0	335.80	0	4.6500	0	33.9170	0	26.859	0	332.663	0	-1e10	8	-1e10	8	-1E+10	1	-1E+10	1	-1E+10	1	-1E+10	1	-1E+10	1	-1E+10	1
4902554	14	C	06/20/2021	19:07	-136.524	49.608	0	336.70	0	4.6470	0	33.9160	0	26.858	0	333.554	0	-1e10	8	-1e10	8	-1E+10	1	-1E+10	1	-1E+10	1	-1E+10	1	-1E+10	1	-1E+10	1
4902554	14	C	06/20/2021	19:07	-136.524	49.608	0	337.60	0	4.6460	0	33.9170	0	26.859	0	334.445	0	-1e10	8	-1e10	8	-1E+10	1	-1E+10	1	-1E+10	1	-1E+10	1	-1E+10	1	-1E+10	1
4902554	14	C	06/20/2021	19:07	-136.524	49.608	0	338.90	0	4.6400	0	33.9180	0	26.861	0	335.731	0	-1e10	8	-1e10	8	-1E+10	1	-1E+10	1	-1E+10	1	-1E+10	1	-1E+10	1	-1E+10	1
4902554	14	C	06/20/2021	19:07	-136.524	49.608	0	340.30	0	4.6390	0	33.9210	0	26.863	0	337.117	0	-1e10	8	-1e10	8	-1E+10	1	-1E+10	1	-1E+10	1	-1E+10	1	-1E+10	1	-1E+10	1
4902554	14	C	06/20/2021	19:07	-136.524	49.608	0	341.20	0	4.6360	0	33.9230	0	26.865	0	338.008	0	-1e10	8	-1e10	8	-1E+10	1	-1E+10	1	-1E+10	1	-1E+10	1	-1E+10	1	-1E+10	1
4902554	14	C	06/20/2021	19:07	-136.524	49.608	0	342.10	0	4.6630	0	33.9290	0	26.867	0	338.899	0	-1e10	8	-1e10	8	-1E+10	1	-1E+10	1	-1E+10	1	-1E+10	1	-1E+10	1	-1E+10	1
4902554	14	C	06/20/2021	19:07	-136.524	49.608	0	343.10	0	4.6570	0	33.9290	0	26.867	0	339.889	0	-1e10	8	-1e10	8	-1E+10	1	-1E+10	1	-1E+10	1	-1E+10	1	-1E+10	1	-1E+10	1
4902554	14	C	06/20/2021	19:07	-136.524	49.608	0	344.00	0	4.6270	0	33.9290	0	26.871	0	340.780	0	-1e10	8	-1e10	8	-1E+10	1	-1E+10	1	-1E+10	1	-1E+10	1	-1E+10	1	-1E+10	1
4902554	14	C	06/20/2021	19:07	-136.524	49.608	0	344.90	0	4.6280	0	33.9310	0	26.872	0	341.670	0	-1e10	8	-1e10	8	-1E+10	1	-1E+10	1	-1E+10	1	-1E+10	1	-1E+10	1	-1E+10	1
4902554	14	C	06/20/2021	19:07	-136.524	49.608	0	345.80	0	4.6340	0	33.9350	0	26.875	0	342.561	0	-1e10	8	-1e10	8	-1E+10	1	-1E+10	1	-1E+10	1	-1E+10	1	-1E+10	1	-1E+10	1
4902554	14	C	06/20/2021	19:07	-136.524	49.608	0	346.70	0	4.6520	0	33.9400	0	26.877	0	343.452	0	-1e10	8	-1e10	8	-1E+10	1	-1E+10	1	-1E+10	1	-1E+10	1	-1E+10	1	-1E+10	1
4902554	14	C	06/20/2021	19:07	-136.524	49.608	0	347.70	0	4.6540	0	33.9400	0	26.877	0	344.442	0	-1e10	8	-1e10	8	-1E+10	1	-1E+10	1	-1E+10	1	-1E+10	1	-1E+10	1	-1E+10	1
4902554	14	C	06/20/2021	19:07	-136.524	49.608	0	348.60	0	4.6480	0	33.9410	0	26.878	0	345.333	0	-1e10	8	-1e10	8	-1E+10	1	-1E+10	1	-1E+10	1	-1E+10	1	-1E+10	1	-1E+10	1
4902554	14	C	06/20/2021	19:07	-136.524	49.608	0	349.90	0	4.6240	0	33.9400	0	26.880	0	346.619	0	-1e10	8	-1e10	8	-1E+10	1	-1E+10	1	-1E+10	1	-1E+10	1	-1E+10	1	-1E+10	1
4902554	14	C	06/20/2021	19:07	-136.524	49.608	0	353.10	0	4.6100	0	33.9410	0	26.882	0	349.787	0	-1e10	8	-1e10	8	-1E+10	1	-1E+10	1	-1E+10	1	-1E+10	1	-1E+10	1	-1E+10	1
4902554	14	C	06/20/2021	19:07	-136.524	49.608	0	358.10	0	4.6110	0	33.9440	0	26.885	0	354.735	0	-1e10	8	-1e10	8	-1E+10	1	-1E+10	1	-1E+10	1	-1E+10	1	-1E+10	1	-1E+10	1
4902554	14	C	06/20/2021	19:07	-136.524	49.608	0	363.20	0	4.5550	0	33.9470	0	26.893	0	359.783	0	-1e10	8	-1e10	8	-1E+10	1	-1E+10	1	-1E+10	1	-1E+10	1	-1E+10	1	-1E+10	1
4902554	14	C	06/20/2021	19:07	-136.524	49.608	0	368.10	0	4.5190	0	33.9540	0	26.903	0	364.633	0	-1e10	8	-1e10	8	-1E+10	1	-1E+10	1	-1E+10	1	-1E+10	1	-1E+10	1	-1E+10	1
4902554	14	C	06/20/2021	19:07	-136.524	49.608	0	373.10	0	4.4850	0	33.9590	0	26.910	0	369.581	0	-1e10	8	-1e10	8	-1E+10	1	-1E+10	1	-1E+10	1	-1E+10	1	-1E+10	1	-1E+10	1
4902554	14	C	06/20/2021	19:07	-136.524	49.608	0	377.70	0	4.4650	0	33.9630	0	26.916	0	374.134	0	-1e10	8	-1e10	8	-1E+10	1	-1E+10	1	-1E+10	1	-1E+10	1	-1E+10	1	-1E+10	1
4902554	14	C	06/20/2021	19:07	-136.524	49.608	0	382.70	0	4.4500	0	33.9690	0	26.922	0	379.082	0	-1e10	8	-1e10	8	-1E+10	1	-1E+10	1	-1E+10	1	-1E+10	1	-1E+10	1	-1E+10	1
4902554	14	C	06/20/2021	19:07	-136.524	49.608	0	387.90	0	4.4390	0	33.9750	0	26.928	0	384.228	0	-1e10	8	-1e10	8	-1E+10	1	-1E+10	1	-1E+10	1	-1E+10	1	-1E+10	1	-1E+10	1
4902554	14	C	06/20/2021	19:07	-136.524	49.608	0	393.00	0	4.4110	0	33.9770	0	26.933	0	389.275	0	-1e10	8	-1e10	8	-1E+10	1	-1E+10	1	-1E+10	1	-1E+10	1	-1E+10	1	-1E+10	1
4902554	14	C	06/20/2021	19:07	-136.524	49.608	0	398.20	0	4.3890	0	33.9850	0	26.941	0	394.421	0	-1e10	8	-1e10	8	-1E+10	1	-1E+10	1	-1E+10	1	-1E+10	1	-1E+10	1	-1E+10	1
4902554	14	C	06/20/2021	19:07	-136.524	49.608	0	403.00	0	4.3690	0	33.9930	0	26.950	0	399.170	0	-1e10	8	-1e10	8	-1E+10	1	-1E+10	1	-1E+10	1	-1E+10	1	-1E+10	1	-1E+10	1
4902554	14	C	06/20/2021	19:07	-136.524	49.608	0	407.80	0	4.3620	0	33.9960	0	26.953	0	403.920	0	-1e10	8	-1e10	8	-1E+10	1	-1E+10	1	-1E+10	1	-1E+10	1	-1E+10	1	-1E+10	1
4902554	14	C	06/20/2021	19:07	-136.524	49.608	0	412.70	0	4.3570	0	33.9980	0	26.955	0	408.769	0	-1e10	8	-1e10	8	-1E+10	1	-1E+10	1	-1E+10	1	-1E+10	1	-1E+10	1	-1E+10	1
4902554	14	C	06/20/2021	19:07	-136.524	49.608	0	417.60	0	4.3460	0	34.0020	0	26.960	0	413.617	0	-1e10	8	-1e10	8	-1E+10	1	-1E+10	1	-1E+10	1	-1E+10	1	-1E+10	1	-1E+10	1
4902554	14	C	06/20/2021	19:07	-136.524	49.608	0	422.50	0	4.3240	0	34.0110	0	26.969	0	418.465	0	-1e10	8	-1e10	8	-1E+10	1	-1E+10	1	-1E+10	1	-1E+10	1	-1E+10	1	-1E+10	1
4902554	14	C	06/20/2021	19:07	-136.524	49.608	0	427.50	0	4.3170	0	34.0150	0	26.973	0	423.413	0	-1e10	8	-1e10	8	-1E+10	1	-1E+10	1	-1E+10	1	-1E+10	1	-1E+10	1	-1E+10	1
4902554	14	C	06/20/2021	19:07	-136.524	49.608	0	432.80	0	4.3090	0	34.0190	0	26.977	0	428.656	0	-1e10	8	-1e10	8	-1E+10	1	-1E+10	1	-1E+10	1	-1E+10	1	-1E+10	1	-1E+10	1
4902554	14	C	06/20/2021	19:07	-136.524	49.608	0	438.10	0	4.2970	0	34.0230	0	26.982	0	433.900	0	-1e10	8	-1e10	8	-1E+10	1	-1E+10	1	-1E+10	1	-1E+10	1	-1E+10	1	-1E+10	1
4902554	14	C	06/20/2021	19:07	-136.524	49.608	0	443.00	0	4.2870	0	34.0270	0	26.986	0	438.748	0	-1e10	8	-1e10	8	-1E+10	1	-1E+10	1	-1E+10	1	-1E+10	1	-1E+10	1	-1E+10	1
4902554	14	C	06/20/2021	19:07	-136.524	49.608	0	448.00	0	4.2760	0	34.0310	0	26.990	0	443.695	0	-1e10	8	-1e10	8	-1E+10	1	-1E+10	1	-1E+10	1	-1E+10	1	-1E+10	1	-1E+10	1
4902554	14	C	06/20/2021	19:07	-136.524	49.608	0	453.20	0	4.2650	0	34.0360	0	26.995	0	448.839	0	-1e10	8	-1e10	8	-1E+10	1	-1E+10	1	-1E+10	1	-1E+10	1	-1E+10	1	-1E+10	1
4902554	14	C	06/20/2021	19:07	-136.524	49.608	0	458.00	0	4.2490	0	34.0430	0	27.003	0	453.588	0	-1e10	8	-1e10	8	-1E+10	1	-1E+10	1	-1E+10	1	-1E+10	1	-1E+10	1	-1E+10	1
4902554	14	C	06/20/2021	19:07	-136.524	49.608	0	463.00	0	4.2390	0	34.0470	0	27.007	0	458.534	0	-1e10	8	-1e10	8	-1E+10	1	-1E+10	1	-1E+10	1	-1E+10	1	-1E+10	1	-1E+10	1
4902554	14	C	06/20/2021	19:07	-136.524	49.608	0	468.00	0	4.2280	0	34.0510	0	27.011	0	463.480	0	-1e10	8	-1e10	8	-1E+10	1	-1E+10	1	-1E+10	1	-1E+10	1	-1E+10	1	-1E+10	1
4902554	14	C	06/20/2021	19:07	-136.524	49.608	0	473.10	0	4.2200	0	34.0540	0	27.015	0	468.525	0	-1e10	8	-1e10	8	-1E+10	1	-1E+10	1	-1E+10	1	-1E+10	1	-1E+10	1	-1E+10	1
4902554	14	C	06/20/2021	19:07	-136.524	49.608	0	477.90	0	4.2080	0	34.0580	0	27.019	0	473.273	0	-1e10	8	-1e10	8	-1E+10	1	-1E+10	1	-1E+10	1	-1E+10	1	-1E+10	1	-1E+10	1
4902554	14	C	06/20/2021	19:07	-136.524	49.608	0	482.70	0	4.1970	0	34.0620	0	27.023	0	478.021	0	-1e10	8	-1e10	8	-1E+10	1	-1E+10	1	-1E+10	1	-1E+10	1	-1E+10	1	-1E+10	1
4902554	14	C	06/20/2021	19:07	-136.524	49.608	0	488.00	0	4.1860	0	34.0660	0	27.028	0	483.264	0	-1e10	8	-1e10	8	-1E+10	1	-1E+10	1	-1E+10	1	-1E+10	1	-1E+10	1	-1E+10	1
4902554	14	C	06/20/2021	19:07	-136.524	49.608	0	492.90	0	4.1740	0	34.0700	0	27.032	0	488.110	0	-1e10	8	-1e10	8	-1E+10	1	-1E+10	1	-1E+10	1	-1E+10	1	-1E+10	1	-1E+10	1
4902554	14	C	06/20/2021	19:07	-136.524	49.608	0	497.90	0	4.1670	0	34.0720	0	27.035	0	493.056	0	-1e10	8	-1e10	8	-1E+10	1	-1E+10	1	-1E+10	1	-1E+10	1	-1E+10	1	-1E+10	1
4902554	14	C	06/20/2021	19:07	-136.524	49.608	0	503.10	0	4.1570	0	34.0750	0	27.038	0	498.199	0	-1e10	8	-1e10	8	-1E+10	1	-1E+10	1	-1E+10	1	-1E+10	1	-1E+10	1	-1E+10	1
4902554	14	C	06/20/2021	19:07	-136.524	49.608	0	507.80	0	4.1470	0	34.0790	0	27.042	0	502.848	0	-1e10	8	-1e10	8	-1E+10	1	-1E+10	1	-1E+10	1	-1E+10	1	-1E+10	1	-1E+10	1
4902554	14	C	06/20/2021	19:07	-136.524	49.608	0	513.00	0	4.1340	0	34.0830	0	27.047	0	507.991	0	-1e10	8	-1e10	8	-1E+10	1	-1E+10	1	-1E+10	1	-1E+10	1	-1E+10	1	-1E+10	1
4902554	14	C	06/20/2021	19:07	-136.524	49.608	0	518.30	0	4.1260	0	34.0850	0	27.049	0	513.232	0	-1e10	8	-1e10	8	-1E+10	1	-1E+10	1	-1E+10	1	-1E+10	1	-1E+10	1	-1E+10	1
4902554	14	C	06/20/2021	19:07	-136.524	49.608	0	523.10	0	4.1130	0	34.0890	0	27.054	0	517.979	0	-1e10	8	-1e10	8	-1E+10	1	-1E+10	1	-1E+10	1	-1E+10	1	-1E+10	1	-1E+10	1
4902554	14	C	06/20/2021	19:07	-136.524	49.608	0	527.90	0	4.0980	0	34.0960	0	27.061	0	522.726	0	-1e10	8	-1e10	8	-1E+10	1	-1E+10	1	-1E+10	1	-1E+10	1	-1E+10	1	-1E+10	1
4902554	14	C	06/20/2021	19:07	-136.524	49.608	0	532.70	0	4.0830	0	34.1000	0	27.066	0	527.473	0	-1e10	8	-1e10	8	-1E+10	1	-1E+10	1	-1E+10	1	-1E+10	1	-1E+10	1	-1E+10	1
4902554	14	C	06/20/2021	19:07	-136.524	49.608	0	538.00	0	4.0610	0	34.1060	0	27.073	0	532.714	0	-1e10	8	-1e10	8	-1E+10	1	-1E+10	1	-1E+10	1	-1E+10	1	-1E+10	1	-1E+10	1
4902554	14	C	06/20/2021	19:07	-136.524	49.608	0	543.30	0	4.0430	0	34.1120	0	27.079	0	537.956	0	-1e10	8	-1e10	8	-1E+10	1	-1E+10	1	-1E+10	1	-1E+10	1	-1E+10	1	-1E+10	1
4902554	14	C	06/20/2021	19:07	-136.524	49.608	0	548.00	0	4.0340	0	34.1160	0	27.084	0	542.603	0	-1e10	8	-1e10	8	-1E+10	1	-1E+10	1	-1E+10	1	-1E+10	1	-1E+10	1	-1E+10	1
4902554	14	C	06/20/2021	19:07	-136.524	49.608	0	552.80	0	4.0160	0	34.1200	0	27.089	0	547.350	0	-1e10	8	-1e10	8	-1E+10	1	-1E+10	1	-1E+10	1	-1E+10	1	-1E+10	1	-1E+10	1
4902554	14	C	06/20/2021	19:07	-136.524	49.608	0	558.00	0	4.0050	0	34.1250	0	27.094	0	552.491	0	-1e10	8	-1e10	8	-1E+10	1	-1E+10	1	-1E+10	1	-1E+10	1	-1E+10	1	-1E+10	1
4902554	14	C	06/20/2021	19:07	-136.524	49.608	0	563.20	0	3.9960	0	34.1320	0	27.100	0	557.633	0	-1e10	8	-1e10	8	-1E+10	1	-1E+10	1	-1E+10	1	-1E+10	1	-1E+10	1	-1E+10	1
4902554	14	C	06/20/2021	19:07	-136.524	49.608	0	568.00	0	3.9880	0	34.1370	0	27.105	0	562.379	0	-1e10	8	-1e10	8	-1E+10	1	-1E+10	1	-1E+10	1	-1E+10	1	-1E+10	1	-1E+10	1
4902554	14	C	06/20/2021	19:07	-136.524	49.608	0	572.70	0	3.9860	0	34.1390	0	27.107	0	567.026	0	-1e10	8	-1e10	8	-1E+10	1	-1E+10	1	-1E+10	1	-1E+10	1	-1E+10	1	-1E+10	1
4902554	14	C	06/20/2021	19:07	-136.524	49.608	0	578.00	0	3.9800	0	34.1410	0	27.109	0	572.266	0	-1e10	8	-1e10	8	-1E+10	1	-1E+10	1	-1E+10	1	-1E+10	1	-1E+10	1	-1E+10	1
4902554	14	C	06/20/2021	19:07	-136.524	49.608	0	583.20	0	3.9700	0	34.1460	0	27.114	0	577.408	0	-1e10	8	-1e10	8	-1E+10	1	-1E+10	1	-1E+10	1	-1E+10	1	-1E+10	1	-1E+10	1
4902554	14	C	06/20/2021	19:07	-136.524	49.608	0	587.90	0	3.9620	0	34.1480	0	27.117	0	582.054	0	-1e10	8	-1e10	8	-1E+10	1	-1E+10	1	-1E+10	1	-1E+10	1	-1E+10	1	-1E+10	1
4902554	14	C	06/20/2021	19:07	-136.524	49.608	0	593.00	0	3.9520	0	34.1510	0	27.120	0	587.097	0	-1e10	8	-1e10	8	-1E+10	1	-1E+10	1	-1E+10	1	-1E+10	1	-1E+10	1	-1E+10	1
4902554	14	C	06/20/2021	19:07	-136.524	49.608	0	598.10	0	3.9390	0	34.1560	0	27.125	0	592.138	0	-1e10	8	-1e10	8	-1E+10	1	-1E+10	1	-1E+10	1	-1E+10	1	-1E+10	1	-1E+10	1
4902554	14	C	06/20/2021	19:07	-136.524	49.608	0	602.70	0	3.9270	0	34.1590	0	27.129	0	596.686	0	-1e10	8	-1e10	8	-1E+10	1	-1E+10	1	-1E+10	1	-1E+10	1	-1E+10	1	-1E+10	1
4902554	14	C	06/20/2021	19:07	-136.524	49.608	0	607.90	0	3.9130	0	34.1640	0	27.135	0	601.827	0	-1e10	8	-1e10	8	-1E+10	1	-1E+10	1	-1E+10	1	-1E+10	1	-1E+10	1	-1E+10	1
4902554	14	C	06/20/2021	19:07	-136.524	49.608	0	613.10	0	3.8920	0	34.1690	0	27.141	0	606.967	0	-1e10	8	-1e10	8	-1E+10	1	-1E+10	1	-1E+10	1	-1E+10	1	-1E+10	1	-1E+10	1
4902554	14	C	06/20/2021	19:07	-136.524	49.608	0	617.80	0	3.8880	0	34.1690	0	27.141	0	611.613	0	-1e10	8	-1e10	8	-1E+10	1	-1E+10	1	-1E+10	1	-1E+10	1	-1E+10	1	-1E+10	1
4902554	14	C	06/20/2021	19:07	-136.524	49.608	0	622.60	0	3.8730	0	34.1750	0	27.147	0	616.358	0	-1e10	8	-1e10	8	-1E+10	1	-1E+10	1	-1E+10	1	-1E+10	1	-1E+10	1	-1E+10	1
4902554	14	C	06/20/2021	19:07	-136.524	49.608	0	627.60	0	3.8580	0	34.1780	0	27.151	0	621.300	0	-1e10	8	-1e10	8	-1E+10	1	-1E+10	1	-1E+10	1	-1E+10	1	-1E+10	1	-1E+10	1
4902554	14	C	06/20/2021	19:07	-136.524	49.608	0	632.90	0	3.8410	0	34.1840	0	27.158	0	626.539	0	-1e10	8	-1e10	8	-1E+10	1	-1E+10	1	-1E+10	1	-1E+10	1	-1E+10	1	-1E+10	1
4902554	14	C	06/20/2021	19:07	-136.524	49.608	0	638.40	0	3.8280	0	34.1880	0	27.162	0	631.976	0	-1e10	8	-1e10	8	-1E+10	1	-1E+10	1	-1E+10	1	-1E+10	1	-1E+10	1	-1E+10	1
4902554	14	C	06/20/2021	19:07	-136.524	49.608	0	643.40	0	3.8160	0	34.1920	0	27.167	0	636.918	0	-1e10	8	-1e10	8	-1E+10	1	-1E+10	1	-1E+10	1	-1E+10	1	-1E+10	1	-1E+10	1
4902554	14	C	06/20/2021	19:07	-136.524	49.608	0	647.90	0	3.8030	0	34.1960	0	27.171	0	641.365	0	-1e10	8	-1e10	8	-1E+10	1	-1E+10	1	-1E+10	1	-1E+10	1	-1E+10	1	-1E+10	1
4902554	14	C	06/20/2021	19:07	-136.524	49.608	0	652.90	0	3.7940	0	34.1990	0	27.175	0	646.307	0	-1e10	8	-1e10	8	-1E+10	1	-1E+10	1	-1E+10	1	-1E+10	1	-1E+10	1	-1E+10	1
4902554	14	C	06/20/2021	19:07	-136.524	49.608	0	657.90	0	3.7870	0	34.2020	0	27.178	0	651.249	0	-1e10	8	-1e10	8	-1E+10	1	-1E+10	1	-1E+10	1	-1E+10	1	-1E+10	1	-1E+10	1
4902554	14	C	06/20/2021	19:07	-136.524	49.608	0	662.70	0	3.7800	0	34.2040	0	27.180	0	655.993	0	-1e10	8	-1e10	8	-1E+10	1	-1E+10	1	-1E+10	1	-1E+10	1	-1E+10	1	-1E+10	1
4902554	14	C	06/20/2021	19:07	-136.524	49.608	0	667.70	0	3.7690	0	34.2080	0	27.184	0	660.934	0	-1e10	8	-1e10	8	-1E+10	1	-1E+10	1	-1E+10	1	-1E+10	1	-1E+10	1	-1E+10	1
4902554	14	C	06/20/2021	19:07	-136.524	49.608	0	672.70	0	3.7560	0	34.2120	0	27.189	0	665.876	0	-1e10	8	-1e10	8	-1E+10	1	-1E+10	1	-1E+10	1	-1E+10	1	-1E+10	1	-1E+10	1
4902554	14	C	06/20/2021	19:07	-136.524	49.608	0	677.80	0	3.7410	0	34.2150	0	27.193	0	670.916	0	-1e10	8	-1e10	8	-1E+10	1	-1E+10	1	-1E+10	1	-1E+10	1	-1E+10	1	-1E+10	1
4902554	14	C	06/20/2021	19:07	-136.524	49.608	0	683.00	0	3.7320	0	34.2180	0	27.196	0	676.055	0	-1e10	8	-1e10	8	-1E+10	1	-1E+10	1	-1E+10	1	-1E+10	1	-1E+10	1	-1E+10	1
4902554	14	C	06/20/2021	19:07	-136.524	49.608	0	687.80	0	3.7210	0	34.2210	0	27.200	0	680.798	0	-1e10	8	-1e10	8	-1E+10	1	-1E+10	1	-1E+10	1	-1E+10	1	-1E+10	1	-1E+10	1
4902554	14	C	06/20/2021	19:07	-136.524	49.608	0	692.70	0	3.7070	0	34.2240	0	27.203	0	685.640	0	-1e10	8	-1e10	8	-1E+10	1	-1E+10	1	-1E+10	1	-1E+10	1	-1E+10	1	-1E+10	1
4902554	14	C	06/20/2021	19:07	-136.524	49.608	0	697.70	0	3.6980	0	34.2260	0	27.206	0	690.581	0	-1e10	8	-1e10	8	-1E+10	1	-1E+10	1	-1E+10	1	-1E+10	1	-1E+10	1	-1E+10	1
4902554	14	C	06/20/2021	19:07	-136.524	49.608	0	702.80	0	3.6860	0	34.2290	0	27.210	0	695.620	0	-1e10	8	-1e10	8	-1E+10	1	-1E+10	1	-1E+10	1	-1E+10	1	-1E+10	1	-1E+10	1
4902554	14	C	06/20/2021	19:07	-136.524	49.608	0	707.90	0	3.6800	0	34.2300	0	27.211	0	700.660	0	-1e10	8	-1e10	8	-1E+10	1	-1E+10	1	-1E+10	1	-1E+10	1	-1E+10	1	-1E+10	1
4902554	14	C	06/20/2021	19:07	-136.524	49.608	0	712.70	0	3.6650	0	34.2340	0	27.216	0	705.402	0	-1e10	8	-1e10	8	-1E+10	1	-1E+10	1	-1E+10	1	-1E+10	1	-1E+10	1	-1E+10	1
4902554	14	C	06/20/2021	19:07	-136.524	49.608	0	717.60	0	3.6480	0	34.2390	0	27.221	0	710.244	0	-1e10	8	-1e10	8	-1E+10	1	-1E+10	1	-1E+10	1	-1E+10	1	-1E+10	1	-1E+10	1
4902554	14	C	06/20/2021	19:07	-136.524	49.608	0	722.60	0	3.6410	0	34.2400	0	27.223	0	715.184	0	-1e10	8	-1e10	8	-1E+10	1	-1E+10	1	-1E+10	1	-1E+10	1	-1E+10	1	-1E+10	1
4902554	14	C	06/20/2021	19:07	-136.524	49.608	0	727.60	0	3.6310	0	34.2430	0	27.226	0	720.124	0	-1e10	8	-1e10	8	-1E+10	1	-1E+10	1	-1E+10	1	-1E+10	1	-1E+10	1	-1E+10	1
4902554	14	C	06/20/2021	19:07	-136.524	49.608	0	732.60	0	3.6170	0	34.2460	0	27.230	0	725.064	0	-1e10	8	-1e10	8	-1E+10	1	-1E+10	1	-1E+10	1	-1E+10	1	-1E+10	1	-1E+10	1
4902554	14	C	06/20/2021	19:07	-136.524	49.608	0	737.80	0	3.6000	0	34.2500	0	27.235	0	730.201	0	-1e10	8	-1e10	8	-1E+10	1	-1E+10	1	-1E+10	1	-1E+10	1	-1E+10	1	-1E+10	1
4902554	14	C	06/20/2021	19:07	-136.524	49.608	0	743.10	0	3.5880	0	34.2520	0	27.238	0	735.437	0	-1e10	8	-1e10	8	-1E+10	1	-1E+10	1	-1E+10	1	-1E+10	1	-1E+10	1	-1E+10	1
4902554	14	C	06/20/2021	19:07	-136.524	49.608	0	747.90	0	3.5780	0	34.2550	0	27.241	0	740.179	0	-1e10	8	-1e10	8	-1E+10	1	-1E+10	1	-1E+10	1	-1E+10	1	-1E+10	1	-1E+10	1
4902554	14	C	06/20/2021	19:07	-136.524	49.608	0	752.60	0	3.5700	0	34.2560	0	27.243	0	744.823	0	-1e10	8	-1e10	8	-1E+10	1	-1E+10	1	-1E+10	1	-1E+10	1	-1E+10	1	-1E+10	1
4902554	14	C	06/20/2021	19:07	-136.524	49.608	0	757.90	0	3.5630	0	34.2580	0	27.245	0	750.058	0	-1e10	8	-1e10	8	-1E+10	1	-1E+10	1	-1E+10	1	-1E+10	1	-1E+10	1	-1E+10	1
4902554	14	C	06/20/2021	19:07	-136.524	49.608	0	763.30	0	3.5540	0	34.2610	0	27.248	0	755.393	0	-1e10	8	-1e10	8	-1E+10	1	-1E+10	1	-1E+10	1	-1E+10	1	-1E+10	1	-1E+10	1
4902554	14	C	06/20/2021	19:07	-136.524	49.608	0	768.10	0	3.5450	0	34.2630	0	27.251	0	760.134	0	-1e10	8	-1e10	8	-1E+10	1	-1E+10	1	-1E+10	1	-1E+10	1	-1E+10	1	-1E+10	1
4902554	14	C	06/20/2021	19:07	-136.524	49.608	0	772.90	0	3.5400	0	34.2640	0	27.252	0	764.876	0	-1e10	8	-1e10	8	-1E+10	1	-1E+10	1	-1E+10	1	-1E+10	1	-1E+10	1	-1E+10	1
4902554	14	C	06/20/2021	19:07	-136.524	49.608	0	777.80	0	3.5340	0	34.2660	0	27.254	0	769.716	0	-1e10	8	-1e10	8	-1E+10	1	-1E+10	1	-1E+10	1	-1E+10	1	-1E+10	1	-1E+10	1
4902554	14	C	06/20/2021	19:07	-136.524	49.608	0	782.70	0	3.5260	0	34.2680	0	27.257	0	774.556	0	-1e10	8	-1e10	8	-1E+10	1	-1E+10	1	-1E+10	1	-1E+10	1	-1E+10	1	-1E+10	1
4902554	14	C	06/20/2021	19:07	-136.524	49.608	0	788.20	0	3.5170	0	34.2700	0	27.259	0	779.988	0	-1e10	8	-1e10	8	-1E+10	1	-1E+10	1	-1E+10	1	-1E+10	1	-1E+10	1	-1E+10	1
4902554	14	C	06/20/2021	19:07	-136.524	49.608	0	793.10	0	3.5050	0	34.2740	0	27.264	0	784.828	0	-1e10	8	-1e10	8	-1E+10	1	-1E+10	1	-1E+10	1	-1E+10	1	-1E+10	1	-1E+10	1
4902554	14	C	06/20/2021	19:07	-136.524	49.608	0	798.00	0	3.4940	0	34.2750	0	27.265	0	789.668	0	-1e10	8	-1e10	8	-1E+10	1	-1E+10	1	-1E+10	1	-1E+10	1	-1E+10	1	-1E+10	1
4902554	14	C	06/20/2021	19:07	-136.524	49.608	0	802.80	0	3.4880	0	34.2770	0	27.268	0	794.408	0	-1e10	8	-1e10	8	-1E+10	1	-1E+10	1	-1E+10	1	-1E+10	1	-1E+10	1	-1E+10	1
4902554	14	C	06/20/2021	19:07	-136.524	49.608	0	807.70	0	3.4830	0	34.2790	0	27.270	0	799.248	0	-1e10	8	-1e10	8	-1E+10	1	-1E+10	1	-1E+10	1	-1E+10	1	-1E+10	1	-1E+10	1
4902554	14	C	06/20/2021	19:07	-136.524	49.608	0	813.10	0	3.4740	0	34.2820	0	27.273	0	804.581	0	-1e10	8	-1e10	8	-1E+10	1	-1E+10	1	-1E+10	1	-1E+10	1	-1E+10	1	-1E+10	1
4902554	14	C	06/20/2021	19:07	-136.524	49.608	0	818.00	0	3.4610	0	34.2850	0	27.277	0	809.420	0	-1e10	8	-1e10	8	-1E+10	1	-1E+10	1	-1E+10	1	-1E+10	1	-1E+10	1	-1E+10	1
4902554	14	C	06/20/2021	19:07	-136.524	49.608	0	822.80	0	3.4490	0	34.2880	0	27.280	0	814.160	0	-1e10	8	-1e10	8	-1E+10	1	-1E+10	1	-1E+10	1	-1E+10	1	-1E+10	1	-1E+10	1
4902554	14	C	06/20/2021	19:07	-136.524	49.608	0	828.10	0	3.4400	0	34.2900	0	27.283	0	819.394	0	-1e10	8	-1e10	8	-1E+10	1	-1E+10	1	-1E+10	1	-1E+10	1	-1E+10	1	-1E+10	1
4902554	14	C	06/20/2021	19:07	-136.524	49.608	0	833.30	0	3.4340	0	34.2920	0	27.285	0	824.529	0	-1e10	8	-1e10	8	-1E+10	1	-1E+10	1	-1E+10	1	-1E+10	1	-1E+10	1	-1E+10	1
4902554	14	C	06/20/2021	19:07	-136.524	49.608	0	838.00	0	3.4230	0	34.2940	0	27.288	0	829.171	0	-1e10	8	-1e10	8	-1E+10	1	-1E+10	1	-1E+10	1	-1E+10	1	-1E+10	1	-1E+10	1
4902554	14	C	06/20/2021	19:07	-136.524	49.608	0	842.60	0	3.4160	0	34.2950	0	27.289	0	833.713	0	-1e10	8	-1e10	8	-1E+10	1	-1E+10	1	-1E+10	1	-1E+10	1	-1E+10	1	-1E+10	1
4902554	14	C	06/20/2021	19:07	-136.524	49.608	0	847.80	0	3.4110	0	34.2960	0	27.290	0	838.848	0	-1e10	8	-1e10	8	-1E+10	1	-1E+10	1	-1E+10	1	-1E+10	1	-1E+10	1	-1E+10	1
4902554	14	C	06/20/2021	19:07	-136.524	49.608	0	853.00	0	3.4000	0	34.2980	0	27.293	0	843.982	0	-1e10	8	-1e10	8	-1E+10	1	-1E+10	1	-1E+10	1	-1E+10	1	-1E+10	1	-1E+10	1
4902554	14	C	06/20/2021	19:07	-136.524	49.608	0	858.10	0	3.3900	0	34.3010	0	27.296	0	849.018	0	-1e10	8	-1e10	8	-1E+10	1	-1E+10	1	-1E+10	1	-1E+10	1	-1E+10	1	-1E+10	1
4902554	14	C	06/20/2021	19:07	-136.524	49.608	0	863.20	0	3.3780	0	34.3040	0	27.300	0	854.054	0	-1e10	8	-1e10	8	-1E+10	1	-1E+10	1	-1E+10	1	-1E+10	1	-1E+10	1	-1E+10	1
4902554	14	C	06/20/2021	19:07	-136.524	49.608	0	868.00	0	3.3620	0	34.3060	0	27.303	0	858.793	0	-1e10	8	-1e10	8	-1E+10	1	-1E+10	1	-1E+10	1	-1E+10	1	-1E+10	1	-1E+10	1
4902554	14	C	06/20/2021	19:07	-136.524	49.608	0	873.00	0	3.3450	0	34.3080	0	27.306	0	863.729	0	-1e10	8	-1e10	8	-1E+10	1	-1E+10	1	-1E+10	1	-1E+10	1	-1E+10	1	-1E+10	1
4902554	14	C	06/20/2021	19:07	-136.524	49.608	0	878.20	0	3.3250	0	34.3120	0	27.311	0	868.863	0	-1e10	8	-1e10	8	-1E+10	1	-1E+10	1	-1E+10	1	-1E+10	1	-1E+10	1	-1E+10	1
4902554	14	C	06/20/2021	19:07	-136.524	49.608	0	883.00	0	3.3130	0	34.3140	0	27.314	0	873.602	0	-1e10	8	-1e10	8	-1E+10	1	-1E+10	1	-1E+10	1	-1E+10	1	-1E+10	1	-1E+10	1
4902554	14	C	06/20/2021	19:07	-136.524	49.608	0	887.90	0	3.2950	0	34.3170	0	27.318	0	878.440	0	-1e10	8	-1e10	8	-1E+10	1	-1E+10	1	-1E+10	1	-1E+10	1	-1E+10	1	-1E+10	1
4902554	14	C	06/20/2021	19:07	-136.524	49.608	0	892.80	0	3.2830	0	34.3200	0	27.322	0	883.277	0	-1e10	8	-1e10	8	-1E+10	1	-1E+10	1	-1E+10	1	-1E+10	1	-1E+10	1	-1E+10	1
4902554	14	C	06/20/2021	19:07	-136.524	49.608	0	897.90	0	3.2760	0	34.3220	0	27.324	0	888.312	0	-1e10	8	-1e10	8	-1E+10	1	-1E+10	1	-1E+10	1	-1E+10	1	-1E+10	1	-1E+10	1
4902554	14	C	06/20/2021	19:07	-136.524	49.608	0	903.00	0	3.2650	0	34.3240	0	27.327	0	893.347	0	-1e10	8	-1e10	8	-1E+10	1	-1E+10	1	-1E+10	1	-1E+10	1	-1E+10	1	-1E+10	1
4902554	14	C	06/20/2021	19:07	-136.524	49.608	0	908.10	0	3.2500	0	34.3270	0	27.331	0	898.381	0	-1e10	8	-1e10	8	-1E+10	1	-1E+10	1	-1E+10	1	-1E+10	1	-1E+10	1	-1E+10	1
4902554	14	C	06/20/2021	19:07	-136.524	49.608	0	912.90	0	3.2420	0	34.3290	0	27.333	0	903.120	0	-1e10	8	-1e10	8	-1E+10	1	-1E+10	1	-1E+10	1	-1E+10	1	-1E+10	1	-1E+10	1
4902554	14	C	06/20/2021	19:07	-136.524	49.608	0	917.70	0	3.2350	0	34.3310	0	27.335	0	907.858	0	-1e10	8	-1e10	8	-1E+10	1	-1E+10	1	-1E+10	1	-1E+10	1	-1E+10	1	-1E+10	1
4902554	14	C	06/20/2021	19:07	-136.524	49.608	0	923.00	0	3.2210	0	34.3330	0	27.338	0	913.089	0	-1e10	8	-1e10	8	-1E+10	1	-1E+10	1	-1E+10	1	-1E+10	1	-1E+10	1	-1E+10	1
4902554	14	C	06/20/2021	19:07	-136.524	49.608	0	928.00	0	3.2070	0	34.3350	0	27.341	0	918.025	0	-1e10	8	-1e10	8	-1E+10	1	-1E+10	1	-1E+10	1	-1E+10	1	-1E+10	1	-1E+10	1
4902554	14	C	06/20/2021	19:07	-136.524	49.608	0	932.90	0	3.2030	0	34.3370	0	27.343	0	922.861	0	-1e10	8	-1e10	8	-1E+10	1	-1E+10	1	-1E+10	1	-1E+10	1	-1E+10	1	-1E+10	1
4902554	14	C	06/20/2021	19:07	-136.524	49.608	0	938.00	0	3.1910	0	34.3400	0	27.347	0	927.895	0	-1e10	8	-1e10	8	-1E+10	1	-1E+10	1	-1E+10	1	-1E+10	1	-1E+10	1	-1E+10	1
4902554	14	C	06/20/2021	19:07	-136.524	49.608	0	942.70	0	3.1820	0	34.3420	0	27.349	0	932.534	0	-1e10	8	-1e10	8	-1E+10	1	-1E+10	1	-1E+10	1	-1E+10	1	-1E+10	1	-1E+10	1
4902554	14	C	06/20/2021	19:07	-136.524	49.608	0	948.00	0	3.1710	0	34.3440	0	27.352	0	937.765	0	-1e10	8	-1e10	8	-1E+10	1	-1E+10	1	-1E+10	1	-1E+10	1	-1E+10	1	-1E+10	1
4902554	14	C	06/20/2021	19:07	-136.524	49.608	0	953.30	0	3.1640	0	34.3450	0	27.353	0	942.996	0	-1e10	8	-1e10	8	-1E+10	1	-1E+10	1	-1E+10	1	-1E+10	1	-1E+10	1	-1E+10	1
4902554	14	C	06/20/2021	19:07	-136.524	49.608	0	958.30	0	3.1510	0	34.3470	0	27.356	0	947.931	0	-1e10	8	-1e10	8	-1E+10	1	-1E+10	1	-1E+10	1	-1E+10	1	-1E+10	1	-1E+10	1
4902554	14	C	06/20/2021	19:07	-136.524	49.608	0	963.30	0	3.1410	0	34.3490	0	27.359	0	952.865	0	-1e10	8	-1e10	8	-1E+10	1	-1E+10	1	-1E+10	1	-1E+10	1	-1E+10	1	-1E+10	1
4902554	14	C	06/20/2021	19:07	-136.524	49.608	0	968.30	0	3.1280	0	34.3510	0	27.361	0	957.799	0	-1e10	8	-1e10	8	-1E+10	1	-1E+10	1	-1E+10	1	-1E+10	1	-1E+10	1	-1E+10	1
4902554	14	C	06/20/2021	19:07	-136.524	49.608	0	972.90	0	3.1170	0	34.3530	0	27.364	0	962.339	0	-1e10	8	-1e10	8	-1E+10	1	-1E+10	1	-1E+10	1	-1E+10	1	-1E+10	1	-1E+10	1
4902554	14	C	06/20/2021	19:07	-136.524	49.608	0	977.60	0	3.1070	0	34.3550	0	27.367	0	966.977	0	-1e10	8	-1e10	8	-1E+10	1	-1E+10	1	-1E+10	1	-1E+10	1	-1E+10	1	-1E+10	1
4902554	14	C	06/20/2021	19:07	-136.524	49.608	0	982.80	0	3.0930	0	34.3580	0	27.370	0	972.109	0	-1e10	8	-1e10	8	-1E+10	1	-1E+10	1	-1E+10	1	-1E+10	1	-1E+10	1	-1E+10	1
4902554	14	C	06/20/2021	19:07	-136.524	49.608	0	987.90	0	3.0840	0	34.3590	0	27.372	0	977.141	0	-1e10	8	-1e10	8	-1E+10	1	-1E+10	1	-1E+10	1	-1E+10	1	-1E+10	1	-1E+10	1
4902554	14	C	06/20/2021	19:07	-136.524	49.608	0	993.10	0	3.0720	0	34.3610	0	27.375	0	982.272	0	-1e10	8	-1e10	8	-1E+10	1	-1E+10	1	-1E+10	1	-1E+10	1	-1E+10	1	-1E+10	1
4902554	14	C	06/20/2021	19:07	-136.524	49.608	0	997.90	0	3.0610	0	34.3640	0	27.378	0	987.009	0	-1e10	8	-1e10	8	-1E+10	1	-1E+10	1	-1E+10	1	-1E+10	1	-1E+10	1	-1E+10	1
4902554	14	C	06/20/2021	19:07	-136.524	49.608	0	1005.40	0	3.0490	0	34.3660	0	27.381	0	994.409	0	-1e10	8	-1e10	8	-1E+10	1	-1E+10	1	-1E+10	1	-1E+10	1	-1E+10	1	-1E+10	1
4902554	14	C	06/20/2021	19:07	-136.524	49.608	0	1015.50	0	3.0330	0	34.3690	0	27.385	0	1004.375	0	-1e10	8	-1e10	8	-1E+10	1	-1E+10	1	-1E+10	1	-1E+10	1	-1E+10	1	-1E+10	1
4902554	14	C	06/20/2021	19:07	-136.524	49.608	0	1025.40	0	3.0080	0	34.3730	0	27.390	0	1014.142	0	-1e10	8	-1e10	8	-1E+10	1	-1E+10	1	-1E+10	1	-1E+10	1	-1E+10	1	-1E+10	1
4902554	14	C	06/20/2021	19:07	-136.524	49.608	0	1035.20	0	2.9770	0	34.3780	0	27.397	0	1023.811	0	-1e10	8	-1e10	8	-1E+10	1	-1E+10	1	-1E+10	1	-1E+10	1	-1E+10	1	-1E+10	1
4902554	14	C	06/20/2021	19:07	-136.524	49.608	0	1045.60	0	2.9540	0	34.3820	0	27.402	0	1034.071	0	-1e10	8	-1e10	8	-1E+10	1	-1E+10	1	-1E+10	1	-1E+10	1	-1E+10	1	-1E+10	1
4902554	14	C	06/20/2021	19:07	-136.524	49.608	0	1055.50	0	2.9320	0	34.3860	0	27.408	0	1043.837	0	-1e10	8	-1e10	8	-1E+10	1	-1E+10	1	-1E+10	1	-1E+10	1	-1E+10	1	-1E+10	1
4902554	14	C	06/20/2021	19:07	-136.524	49.608	0	1065.40	0	2.9090	0	34.3910	0	27.414	0	1053.603	0	-1e10	8	-1e10	8	-1E+10	1	-1E+10	1	-1E+10	1	-1E+10	1	-1E+10	1	-1E+10	1
4902554	14	C	06/20/2021	19:07	-136.524	49.608	0	1075.30	0	2.8900	0	34.3950	0	27.419	0	1063.368	0	-1e10	8	-1e10	8	-1E+10	1	-1E+10	1	-1E+10	1	-1E+10	1	-1E+10	1	-1E+10	1
4902554	14	C	06/20/2021	19:07	-136.524	49.608	0	1085.20	0	2.8730	0	34.3980	0	27.423	0	1073.133	0	-1e10	8	-1e10	8	-1E+10	1	-1E+10	1	-1E+10	1	-1E+10	1	-1E+10	1	-1E+10	1
4902554	14	C	06/20/2021	19:07	-136.524	49.608	0	1095.60	0	2.8590	0	34.4010	0	27.426	0	1083.390	0	-1e10	8	-1e10	8	-1E+10	1	-1E+10	1	-1E+10	1	-1E+10	1	-1E+10	1	-1E+10	1
4902554	14	C	06/20/2021	19:07	-136.524	49.608	0	1105.60	0	2.8460	0	34.4030	0	27.429	0	1093.253	0	-1e10	8	-1e10	8	-1E+10	1	-1E+10	1	-1E+10	1	-1E+10	1	-1E+10	1	-1E+10	1
4902554	14	C	06/20/2021	19:07	-136.524	49.608	0	1115.20	0	2.8330	0	34.4060	0	27.433	0	1102.720	0	-1e10	8	-1e10	8	-1E+10	1	-1E+10	1	-1E+10	1	-1E+10	1	-1E+10	1	-1E+10	1
4902554	14	C	06/20/2021	19:07	-136.524	49.608	0	1125.30	0	2.8130	0	34.4090	0	27.437	0	1112.681	0	-1e10	8	-1e10	8	-1E+10	1	-1E+10	1	-1E+10	1	-1E+10	1	-1E+10	1	-1E+10	1
4902554	14	C	06/20/2021	19:07	-136.524	49.608	0	1135.40	0	2.7910	0	34.4140	0	27.443	0	1122.640	0	-1e10	8	-1e10	8	-1E+10	1	-1E+10	1	-1E+10	1	-1E+10	1	-1E+10	1	-1E+10	1
4902554	14	C	06/20/2021	19:07	-136.524	49.608	0	1145.50	0	2.7800	0	34.4160	0	27.445	0	1132.600	0	-1e10	8	-1e10	8	-1E+10	1	-1E+10	1	-1E+10	1	-1E+10	1	-1E+10	1	-1E+10	1
4902554	14	C	06/20/2021	19:07	-136.524	49.608	0	1155.40	0	2.7710	0	34.4180	0	27.448	0	1142.361	0	-1e10	8	-1e10	8	-1E+10	1	-1E+10	1	-1E+10	1	-1E+10	1	-1E+10	1	-1E+10	1
4902554	14	C	06/20/2021	19:07	-136.524	49.608	0	1165.40	0	2.7590	0	34.4200	0	27.451	0	1152.221	0	-1e10	8	-1e10	8	-1E+10	1	-1E+10	1	-1E+10	1	-1E+10	1	-1E+10	1	-1E+10	1
4902554	14	C	06/20/2021	19:07	-136.524	49.608	0	1175.40	0	2.7490	0	34.4230	0	27.454	0	1162.080	0	-1e10	8	-1e10	8	-1E+10	1	-1E+10	1	-1E+10	1	-1E+10	1	-1E+10	1	-1E+10	1
4902554	14	C	06/20/2021	19:07	-136.524	49.608	0	1185.30	0	2.7350	0	34.4250	0	27.457	0	1171.841	0	-1e10	8	-1e10	8	-1E+10	1	-1E+10	1	-1E+10	1	-1E+10	1	-1E+10	1	-1E+10	1
4902554	14	C	06/20/2021	19:07	-136.524	49.608	0	1195.40	0	2.7170	0	34.4290	0	27.462	0	1181.797	0	-1e10	8	-1e10	8	-1E+10	1	-1E+10	1	-1E+10	1	-1E+10	1	-1E+10	1	-1E+10	1
4902554	14	C	06/20/2021	19:07	-136.524	49.608	0	1205.30	0	2.7000	0	34.4320	0	27.466	0	1191.557	0	-1e10	8	-1e10	8	-1E+10	1	-1E+10	1	-1E+10	1	-1E+10	1	-1E+10	1	-1E+10	1
4902554	14	C	06/20/2021	19:07	-136.524	49.608	0	1215.30	0	2.6830	0	34.4350	0	27.469	0	1201.414	0	-1e10	8	-1e10	8	-1E+10	1	-1E+10	1	-1E+10	1	-1E+10	1	-1E+10	1	-1E+10	1
4902554	14	C	06/20/2021	19:07	-136.524	49.608	0	1225.60	0	2.6660	0	34.4390	0	27.474	0	1211.567	0	-1e10	8	-1e10	8	-1E+10	1	-1E+10	1	-1E+10	1	-1E+10	1	-1E+10	1	-1E+10	1
4902554	14	C	06/20/2021	19:07	-136.524	49.608	0	1235.70	0	2.6490	0	34.4420	0	27.478	0	1221.522	0	-1e10	8	-1e10	8	-1E+10	1	-1E+10	1	-1E+10	1	-1E+10	1	-1E+10	1	-1E+10	1
4902554	14	C	06/20/2021	19:07	-136.524	49.608	0	1245.60	0	2.6350	0	34.4450	0	27.482	0	1231.279	0	-1e10	8	-1e10	8	-1E+10	1	-1E+10	1	-1E+10	1	-1E+10	1	-1E+10	1	-1E+10	1
4902554	14	C	06/20/2021	19:07	-136.524	49.608	0	1255.30	0	2.6260	0	34.4470	0	27.484	0	1240.839	0	-1e10	8	-1e10	8	-1E+10	1	-1E+10	1	-1E+10	1	-1E+10	1	-1E+10	1	-1E+10	1
4902554	14	C	06/20/2021	19:07	-136.524	49.608	0	1265.20	0	2.6140	0	34.4490	0	27.487	0	1250.596	0	-1e10	8	-1e10	8	-1E+10	1	-1E+10	1	-1E+10	1	-1E+10	1	-1E+10	1	-1E+10	1
4902554	14	C	06/20/2021	19:07	-136.524	49.608	0	1275.40	0	2.5970	0	34.4530	0	27.492	0	1260.648	0	-1e10	8	-1e10	8	-1E+10	1	-1E+10	1	-1E+10	1	-1E+10	1	-1E+10	1	-1E+10	1
4902554	14	C	06/20/2021	19:07	-136.524	49.608	0	1285.70	0	2.5850	0	34.4550	0	27.494	0	1270.797	0	-1e10	8	-1e10	8	-1E+10	1	-1E+10	1	-1E+10	1	-1E+10	1	-1E+10	1	-1E+10	1
4902554	14	C	06/20/2021	19:07	-136.524	49.608	0	1295.30	0	2.5750	0	34.4570	0	27.497	0	1280.257	0	-1e10	8	-1e10	8	-1E+10	1	-1E+10	1	-1E+10	1	-1E+10	1	-1E+10	1	-1E+10	1
4902554	14	C	06/20/2021	19:07	-136.524	49.608	0	1305.20	0	2.5620	0	34.4590	0	27.499	0	1290.012	0	-1e10	8	-1e10	8	-1E+10	1	-1E+10	1	-1E+10	1	-1E+10	1	-1E+10	1	-1E+10	1
4902554	14	C	06/20/2021	19:07	-136.524	49.608	0	1315.10	0	2.5470	0	34.4630	0	27.504	0	1299.766	0	-1e10	8	-1e10	8	-1E+10	1	-1E+10	1	-1E+10	1	-1E+10	1	-1E+10	1	-1E+10	1
4902554	14	C	06/20/2021	19:07	-136.524	49.608	0	1325.50	0	2.5330	0	34.4650	0	27.507	0	1310.012	0	-1e10	8	-1e10	8	-1E+10	1	-1E+10	1	-1E+10	1	-1E+10	1	-1E+10	1	-1E+10	1
4902554	14	C	06/20/2021	19:07	-136.524	49.608	0	1335.70	0	2.5220	0	34.4680	0	27.510	0	1320.061	0	-1e10	8	-1e10	8	-1E+10	1	-1E+10	1	-1E+10	1	-1E+10	1	-1E+10	1	-1E+10	1
4902554	14	C	06/20/2021	19:07	-136.524	49.608	0	1345.50	0	2.5120	0	34.4690	0	27.512	0	1329.716	0	-1e10	8	-1e10	8	-1E+10	1	-1E+10	1	-1E+10	1	-1E+10	1	-1E+10	1	-1E+10	1
4902554	14	C	06/20/2021	19:07	-136.524	49.608	0	1355.50	0	2.4990	0	34.4720	0	27.515	0	1339.567	0	-1e10	8	-1e10	8	-1E+10	1	-1E+10	1	-1E+10	1	-1E+10	1	-1E+10	1	-1E+10	1
4902554	14	C	06/20/2021	19:07	-136.524	49.608	0	1365.60	0	2.4910	0	34.4730	0	27.517	0	1349.515	0	-1e10	8	-1e10	8	-1E+10	1	-1E+10	1	-1E+10	1	-1E+10	1	-1E+10	1	-1E+10	1
4902554	14	C	06/20/2021	19:07	-136.524	49.608	0	1375.50	0	2.4830	0	34.4750	0	27.519	0	1359.267	0	-1e10	8	-1e10	8	-1E+10	1	-1E+10	1	-1E+10	1	-1E+10	1	-1E+10	1	-1E+10	1
4902554	14	C	06/20/2021	19:07	-136.524	49.608	0	1385.60	0	2.4790	0	34.4760	0	27.521	0	1369.215	0	-1e10	8	-1e10	8	-1E+10	1	-1E+10	1	-1E+10	1	-1E+10	1	-1E+10	1	-1E+10	1
4902554	14	C	06/20/2021	19:07	-136.524	49.608	0	1395.90	0	2.4680	0	34.4780	0	27.523	0	1379.360	0	-1e10	8	-1e10	8	-1E+10	1	-1E+10	1	-1E+10	1	-1E+10	1	-1E+10	1	-1E+10	1
4902554	14	C	06/20/2021	19:07	-136.524	49.608	0	1405.40	0	2.4520	0	34.4810	0	27.527	0	1388.716	0	-1e10	8	-1e10	8	-1E+10	1	-1E+10	1	-1E+10	1	-1E+10	1	-1E+10	1	-1E+10	1
4902554	14	C	06/20/2021	19:07	-136.524	49.608	0	1415.30	0	2.4430	0	34.4830	0	27.529	0	1398.466	0	-1e10	8	-1e10	8	-1E+10	1	-1E+10	1	-1E+10	1	-1E+10	1	-1E+10	1	-1E+10	1
4902554	14	C	06/20/2021	19:07	-136.524	49.608	0	1425.00	0	2.4360	0	34.4840	0	27.531	0	1408.018	0	-1e10	8	-1e10	8	-1E+10	1	-1E+10	1	-1E+10	1	-1E+10	1	-1E+10	1	-1E+10	1
4902554	14	C	06/20/2021	19:07	-136.524	49.608	0	1435.10	0	2.4250	0	34.4860	0	27.533	0	1417.963	0	-1e10	8	-1e10	8	-1E+10	1	-1E+10	1	-1E+10	1	-1E+10	1	-1E+10	1	-1E+10	1
4902554	14	C	06/20/2021	19:07	-136.524	49.608	0	1445.50	0	2.4150	0	34.4880	0	27.536	0	1428.204	0	-1e10	8	-1e10	8	-1E+10	1	-1E+10	1	-1E+10	1	-1E+10	1	-1E+10	1	-1E+10	1
4902554	14	C	06/20/2021	19:07	-136.524	49.608	0	1455.70	0	2.4030	0	34.4910	0	27.539	0	1438.247	0	-1e10	8	-1e10	8	-1E+10	1	-1E+10	1	-1E+10	1	-1E+10	1	-1E+10	1	-1E+10	1
4902554	14	C	06/20/2021	19:07	-136.524	49.608	0	1465.70	0	2.3900	0	34.4930	0	27.542	0	1448.093	0	-1e10	8	-1e10	8	-1E+10	1	-1E+10	1	-1E+10	1	-1E+10	1	-1E+10	1	-1E+10	1
4902554	14	C	06/20/2021	19:07	-136.524	49.608	0	1475.50	0	2.3770	0	34.4960	0	27.545	0	1457.742	0	-1e10	8	-1e10	8	-1E+10	1	-1E+10	1	-1E+10	1	-1E+10	1	-1E+10	1	-1E+10	1
4902554	14	C	06/20/2021	19:07	-136.524	49.608	0	1485.50	0	2.3650	0	34.4980	0	27.548	0	1467.587	0	-1e10	8	-1e10	8	-1E+10	1	-1E+10	1	-1E+10	1	-1E+10	1	-1E+10	1	-1E+10	1
4902554	14	C	06/20/2021	19:07	-136.524	49.608	0	1495.80	0	2.3560	0	34.5010	0	27.551	0	1477.726	0	-1e10	8	-1e10	8	-1E+10	1	-1E+10	1	-1E+10	1	-1E+10	1	-1E+10	1	-1E+10	1
4902554	14	C	06/20/2021	19:07	-136.524	49.608	0	1505.70	0	2.3480	0	34.5020	0	27.553	0	1487.472	0	-1e10	8	-1e10	8	-1E+10	1	-1E+10	1	-1E+10	1	-1E+10	1	-1E+10	1	-1E+10	1
4902554	14	C	06/20/2021	19:07	-136.524	49.608	0	1515.70	0	2.3400	0	34.5040	0	27.555	0	1497.315	0	-1e10	8	-1e10	8	-1E+10	1	-1E+10	1	-1E+10	1	-1E+10	1	-1E+10	1	-1E+10	1
4902554	14	C	06/20/2021	19:07	-136.524	49.608	0	1525.40	0	2.3260	0	34.5070	0	27.559	0	1506.863	0	-1e10	8	-1e10	8	-1E+10	1	-1E+10	1	-1E+10	1	-1E+10	1	-1E+10	1	-1E+10	1
4902554	14	C	06/20/2021	19:07	-136.524	49.608	0	1535.10	0	2.3160	0	34.5090	0	27.561	0	1516.411	0	-1e10	8	-1e10	8	-1E+10	1	-1E+10	1	-1E+10	1	-1E+10	1	-1E+10	1	-1E+10	1
4902554	14	C	06/20/2021	19:07	-136.524	49.608	0	1545.30	0	2.3070	0	34.5100	0	27.563	0	1526.450	0	-1e10	8	-1e10	8	-1E+10	1	-1E+10	1	-1E+10	1	-1E+10	1	-1E+10	1	-1E+10	1
4902554	14	C	06/20/2021	19:07	-136.524	49.608	0	1555.60	0	2.2970	0	34.5130	0	27.566	0	1536.587	0	-1e10	8	-1e10	8	-1E+10	1	-1E+10	1	-1E+10	1	-1E+10	1	-1E+10	1	-1E+10	1
4902554	14	C	06/20/2021	19:07	-136.524	49.608	0	1565.40	0	2.2870	0	34.5150	0	27.569	0	1546.231	0	-1e10	8	-1e10	8	-1E+10	1	-1E+10	1	-1E+10	1	-1E+10	1	-1E+10	1	-1E+10	1
4902554	14	C	06/20/2021	19:07	-136.524	49.608	0	1575.40	0	2.2810	0	34.5160	0	27.570	0	1556.072	0	-1e10	8	-1e10	8	-1E+10	1	-1E+10	1	-1E+10	1	-1E+10	1	-1E+10	1	-1E+10	1
4902554	14	C	06/20/2021	19:07	-136.524	49.608	0	1585.30	0	2.2740	0	34.5170	0	27.571	0	1565.814	0	-1e10	8	-1e10	8	-1E+10	1	-1E+10	1	-1E+10	1	-1E+10	1	-1E+10	1	-1E+10	1
4902554	14	C	06/20/2021	19:07	-136.524	49.608	0	1595.30	0	2.2630	0	34.5200	0	27.575	0	1575.654	0	-1e10	8	-1e10	8	-1E+10	1	-1E+10	1	-1E+10	1	-1E+10	1	-1E+10	1	-1E+10	1
4902554	14	C	06/20/2021	19:07	-136.524	49.608	0	1605.30	0	2.2540	0	34.5210	0	27.576	0	1585.493	0	-1e10	8	-1e10	8	-1E+10	1	-1E+10	1	-1E+10	1	-1E+10	1	-1E+10	1	-1E+10	1
4902554	14	C	06/20/2021	19:07	-136.524	49.608	0	1615.40	0	2.2470	0	34.5230	0	27.578	0	1595.431	0	-1e10	8	-1e10	8	-1E+10	1	-1E+10	1	-1E+10	1	-1E+10	1	-1E+10	1	-1E+10	1
4902554	14	C	06/20/2021	19:07	-136.524	49.608	0	1625.50	0	2.2340	0	34.5260	0	27.582	0	1605.367	0	-1e10	8	-1e10	8	-1E+10	1	-1E+10	1	-1E+10	1	-1E+10	1	-1E+10	1	-1E+10	1
4902554	14	C	06/20/2021	19:07	-136.524	49.608	0	1635.40	0	2.2240	0	34.5280	0	27.584	0	1615.107	0	-1e10	8	-1e10	8	-1E+10	1	-1E+10	1	-1E+10	1	-1E+10	1	-1E+10	1	-1E+10	1
4902554	14	C	06/20/2021	19:07	-136.524	49.608	0	1645.40	0	2.2170	0	34.5290	0	27.586	0	1624.945	0	-1e10	8	-1e10	8	-1E+10	1	-1E+10	1	-1E+10	1	-1E+10	1	-1E+10	1	-1E+10	1
4902554	14	C	06/20/2021	19:07	-136.524	49.608	0	1655.40	0	2.2050	0	34.5320	0	27.589	0	1634.782	0	-1e10	8	-1e10	8	-1E+10	1	-1E+10	1	-1E+10	1	-1E+10	1	-1E+10	1	-1E+10	1
4902554	14	C	06/20/2021	19:07	-136.524	49.608	0	1665.40	0	2.1970	0	34.5330	0	27.591	0	1644.618	0	-1e10	8	-1e10	8	-1E+10	1	-1E+10	1	-1E+10	1	-1E+10	1	-1E+10	1	-1E+10	1
4902554	14	C	06/20/2021	19:07	-136.524	49.608	0	1675.20	0	2.1910	0	34.5340	0	27.592	0	1654.258	0	-1e10	8	-1e10	8	-1E+10	1	-1E+10	1	-1E+10	1	-1E+10	1	-1E+10	1	-1E+10	1
4902554	14	C	06/20/2021	19:07	-136.524	49.608	0	1685.50	0	2.1780	0	34.5370	0	27.596	0	1664.389	0	-1e10	8	-1e10	8	-1E+10	1	-1E+10	1	-1E+10	1	-1E+10	1	-1E+10	1	-1E+10	1
4902554	14	C	06/20/2021	19:07	-136.524	49.608	0	1695.30	0	2.1720	0	34.5380	0	27.597	0	1674.027	0	-1e10	8	-1e10	8	-1E+10	1	-1E+10	1	-1E+10	1	-1E+10	1	-1E+10	1	-1E+10	1
4902554	14	C	06/20/2021	19:07	-136.524	49.608	0	1705.10	0	2.1640	0	34.5400	0	27.599	0	1683.665	0	-1e10	8	-1e10	8	-1E+10	1	-1E+10	1	-1E+10	1	-1E+10	1	-1E+10	1	-1E+10	1
4902554	14	C	06/20/2021	19:07	-136.524	49.608	0	1715.40	0	2.1540	0	34.5420	0	27.602	0	1693.795	0	-1e10	8	-1e10	8	-1E+10	1	-1E+10	1	-1E+10	1	-1E+10	1	-1E+10	1	-1E+10	1
4902554	14	C	06/20/2021	19:07	-136.524	49.608	0	1725.80	0	2.1460	0	34.5430	0	27.603	0	1704.022	0	-1e10	8	-1e10	8	-1E+10	1	-1E+10	1	-1E+10	1	-1E+10	1	-1E+10	1	-1E+10	1
4902554	14	C	06/20/2021	19:07	-136.524	49.608	0	1735.50	0	2.1390	0	34.5450	0	27.605	0	1713.561	0	-1e10	8	-1e10	8	-1E+10	1	-1E+10	1	-1E+10	1	-1E+10	1	-1E+10	1	-1E+10	1
4902554	14	C	06/20/2021	19:07	-136.524	49.608	0	1745.20	0	2.1330	0	34.5460	0	27.607	0	1723.099	0	-1e10	8	-1e10	8	-1E+10	1	-1E+10	1	-1E+10	1	-1E+10	1	-1E+10	1	-1E+10	1
4902554	14	C	06/20/2021	19:07	-136.524	49.608	0	1755.40	0	2.1260	0	34.5470	0	27.608	0	1733.128	0	-1e10	8	-1e10	8	-1E+10	1	-1E+10	1	-1E+10	1	-1E+10	1	-1E+10	1	-1E+10	1
4902554	14	C	06/20/2021	19:07	-136.524	49.608	0	1765.40	0	2.1160	0	34.5490	0	27.611	0	1742.960	0	-1e10	8	-1e10	8	-1E+10	1	-1E+10	1	-1E+10	1	-1E+10	1	-1E+10	1	-1E+10	1
4902554	14	C	06/20/2021	19:07	-136.524	49.608	0	1775.20	0	2.1070	0	34.5510	0	27.613	0	1752.595	0	-1e10	8	-1e10	8	-1E+10	1	-1E+10	1	-1E+10	1	-1E+10	1	-1E+10	1	-1E+10	1
4902554	14	C	06/20/2021	19:07	-136.524	49.608	0	1785.20	0	2.1000	0	34.5530	0	27.615	0	1762.426	0	-1e10	8	-1e10	8	-1E+10	1	-1E+10	1	-1E+10	1	-1E+10	1	-1E+10	1	-1E+10	1
4902554	14	C	06/20/2021	19:07	-136.524	49.608	0	1795.30	0	2.0940	0	34.5540	0	27.616	0	1772.355	0	-1e10	8	-1e10	8	-1E+10	1	-1E+10	1	-1E+10	1	-1E+10	1	-1E+10	1	-1E+10	1
4902554	14	C	06/20/2021	19:07	-136.524	49.608	0	1805.60	0	2.0860	0	34.5550	0	27.618	0	1782.480	0	-1e10	8	-1e10	8	-1E+10	1	-1E+10	1	-1E+10	1	-1E+10	1	-1E+10	1	-1E+10	1
4902554	14	C	06/20/2021	19:07	-136.524	49.608	0	1815.60	0	2.0790	0	34.5570	0	27.620	0	1792.310	0	-1e10	8	-1e10	8	-1E+10	1	-1E+10	1	-1E+10	1	-1E+10	1	-1E+10	1	-1E+10	1
4902554	14	C	06/20/2021	19:07	-136.524	49.608	0	1825.20	0	2.0700	0	34.5590	0	27.623	0	1801.746	0	-1e10	8	-1e10	8	-1E+10	1	-1E+10	1	-1E+10	1	-1E+10	1	-1E+10	1	-1E+10	1
4902554	14	C	06/20/2021	19:07	-136.524	49.608	0	1835.40	0	2.0630	0	34.5600	0	27.624	0	1811.772	0	-1e10	8	-1e10	8	-1E+10	1	-1E+10	1	-1E+10	1	-1E+10	1	-1E+10	1	-1E+10	1
4902554	14	C	06/20/2021	19:07	-136.524	49.608	0	1845.70	0	2.0560	0	34.5620	0	27.626	0	1821.895	0	-1e10	8	-1e10	8	-1E+10	1	-1E+10	1	-1E+10	1	-1E+10	1	-1E+10	1	-1E+10	1
4902554	14	C	06/20/2021	19:07	-136.524	49.608	0	1855.40	0	2.0490	0	34.5630	0	27.628	0	1831.428	0	-1e10	8	-1e10	8	-1E+10	1	-1E+10	1	-1E+10	1	-1E+10	1	-1E+10	1	-1E+10	1
4902554	14	C	06/20/2021	19:07	-136.524	49.608	0	1865.20	0	2.0370	0	34.5650	0	27.630	0	1841.059	0	-1e10	8	-1e10	8	-1E+10	1	-1E+10	1	-1E+10	1	-1E+10	1	-1E+10	1	-1E+10	1
4902554	14	C	06/20/2021	19:07	-136.524	49.608	0	1875.70	0	2.0290	0	34.5670	0	27.632	0	1851.378	0	-1e10	8	-1e10	8	-1E+10	1	-1E+10	1	-1E+10	1	-1E+10	1	-1E+10	1	-1E+10	1
4902554	14	C	06/20/2021	19:07	-136.524	49.608	0	1885.50	0	2.0210	0	34.5690	0	27.635	0	1861.008	0	-1e10	8	-1e10	8	-1E+10	1	-1E+10	1	-1E+10	1	-1E+10	1	-1E+10	1	-1E+10	1
4902554	14	C	06/20/2021	19:07	-136.524	49.608	0	1895.50	0	2.0090	0	34.5720	0	27.638	0	1870.834	0	-1e10	8	-1e10	8	-1E+10	1	-1E+10	1	-1E+10	1	-1E+10	1	-1E+10	1	-1E+10	1
4902554	14	C	06/20/2021	19:07	-136.524	49.608	0	1905.30	0	2.0030	0	34.5730	0	27.639	0	1880.463	0	-1e10	8	-1e10	8	-1E+10	1	-1E+10	1	-1E+10	1	-1E+10	1	-1E+10	1	-1E+10	1
4902554	14	C	06/20/2021	19:07	-136.524	49.608	0	1915.20	0	2.0000	0	34.5740	0	27.641	0	1890.190	0	-1e10	8	-1e10	8	-1E+10	1	-1E+10	1	-1E+10	1	-1E+10	1	-1E+10	1	-1E+10	1
4902554	14	C	06/20/2021	19:07	-136.524	49.608	0	1925.50	0	1.9930	0	34.5750	0	27.642	0	1900.310	0	-1e10	8	-1e10	8	-1E+10	1	-1E+10	1	-1E+10	1	-1E+10	1	-1E+10	1	-1E+10	1
4902554	14	C	06/20/2021	19:07	-136.524	49.608	0	1935.40	0	1.9840	0	34.5770	0	27.644	0	1910.036	0	-1e10	8	-1e10	8	-1E+10	1	-1E+10	1	-1E+10	1	-1E+10	1	-1E+10	1	-1E+10	1
4902554	14	C	06/20/2021	19:07	-136.524	49.608	0	1945.50	0	1.9750	0	34.5790	0	27.647	0	1919.958	0	-1e10	8	-1e10	8	-1E+10	1	-1E+10	1	-1E+10	1	-1E+10	1	-1E+10	1	-1E+10	1
4902554	14	C	06/20/2021	19:07	-136.524	49.608	0	1955.40	0	1.9680	0	34.5800	0	27.648	0	1929.683	0	-1e10	8	-1e10	8	-1E+10	1	-1E+10	1	-1E+10	1	-1E+10	1	-1E+10	1	-1E+10	1
4902554	14	C	06/20/2021	19:07	-136.524	49.608	0	1965.40	0	1.9630	0	34.5810	0	27.649	0	1939.506	0	-1e10	8	-1e10	8	-1E+10	1	-1E+10	1	-1E+10	1	-1E+10	1	-1E+10	1	-1E+10	1
4902554	14	C	06/20/2021	19:07	-136.524	49.608	0	1975.50	0	1.9570	0	34.5820	0	27.651	0	1949.427	0	-1e10	8	-1e10	8	-1E+10	1	-1E+10	1	-1E+10	1	-1E+10	1	-1E+10	1	-1E+10	1
4902554	14	C	06/20/2021	19:07	-136.524	49.608	0	1985.10	0	1.9520	0	34.5830	0	27.652	0	1958.856	0	-1e10	8	-1e10	8	-1E+10	1	-1E+10	1	-1E+10	1	-1E+10	1	-1E+10	1	-1E+10	1
4902554	14	C	06/20/2021	19:07	-136.524	49.608	0																										
4902554	15	C	07/01/2021	00:07	-136.483	49.629	0	0.30	0	11.7220	0	32.2740	0	24.524	0	0.297	0	-1e10	8	-1e10	8	-1E+10	1	-1E+10	1	-1E+10	1	-1E+10	1	-1E+10	1	-1E+10	1
4902554	15	C	07/01/2021	00:07	-136.483	49.629	0	1.00	0	11.7320	0	32.2850	0	24.531	0	0.991	0	-1e10	8	-1e10	8	-1E+10	1	-1E+10	1	-1E+10	1	-1E+10	1	-1E+10	1	-1E+10	1
4902554	15	C	07/01/2021	00:07	-136.483	49.629	0	2.30	0	11.7340	0	32.3180	0	24.556	0	2.280	0	-1e10	8	-1e10	8	-1E+10	1	-1E+10	1	-1E+10	1	-1E+10	1	-1E+10	1	-1E+10	1
4902554	15	C	07/01/2021	00:07	-136.483	49.629	0	3.00	0	11.7340	0	32.3170	0	24.556	0	2.974	0	-1e10	8	-1e10	8	-1E+10	1	-1E+10	1	-1E+10	1	-1E+10	1	-1E+10	1	-1E+10	1
4902554	15	C	07/01/2021	00:07	-136.483	49.629	0	3.90	0	11.7330	0	32.3190	0	24.557	0	3.867	0	-1e10	8	-1e10	8	-1E+10	1	-1E+10	1	-1E+10	1	-1E+10	1	-1E+10	1	-1E+10	1
4902554	15	C	07/01/2021	00:07	-136.483	49.629	0	4.80	0	11.7270	0	32.3240	0	24.562	0	4.759	0	-1e10	8	-1e10	8	-1E+10	1	-1E+10	1	-1E+10	1	-1E+10	1	-1E+10	1	-1E+10	1
4902554	15	C	07/01/2021	00:07	-136.483	49.629	0	6.00	0	11.7260	0	32.3230	0	24.562	0	5.949	0	-1e10	8	-1e10	8	-1E+10	1	-1E+10	1	-1E+10	1	-1E+10	1	-1E+10	1	-1E+10	1
4902554	15	C	07/01/2021	00:07	-136.483	49.629	0	6.90	0	11.7220	0	32.3240	0	24.563	0	6.841	0	-1e10	8	-1e10	8	-1E+10	1	-1E+10	1	-1E+10	1	-1E+10	1	-1E+10	1	-1E+10	1
4902554	15	C	07/01/2021	00:07	-136.483	49.629	0	7.90	0	11.7260	0	32.3240	0	24.563	0	7.832	0	-1e10	8	-1e10	8	-1E+10	1	-1E+10	1	-1E+10	1	-1E+10	1	-1E+10	1	-1E+10	1
4902554	15	C	07/01/2021	00:07	-136.483	49.629	0	8.90	0	11.7320	0	32.3230	0	24.561	0	8.824	0	-1e10	8	-1e10	8	-1E+10	1	-1E+10	1	-1E+10	1	-1E+10	1	-1E+10	1	-1E+10	1
4902554	15	C	07/01/2021	00:07	-136.483	49.629	0	9.80	0	11.7330	0	32.3230	0	24.561	0	9.716	0	-1e10	8	-1e10	8	-1E+10	1	-1E+10	1	-1E+10	1	-1E+10	1	-1E+10	1	-1E+10	1
4902554	15	C	07/01/2021	00:07	-136.483	49.629	0	10.90	0	11.7340	0	32.3240	0	24.561	0	10.807	0	-1e10	8	-1e10	8	-1E+10	1	-1E+10	1	-1E+10	1	-1E+10	1	-1E+10	1	-1E+10	1
4902554	15	C	07/01/2021	00:07	-136.483	49.629	0	12.10	0	11.7360	0	32.3230	0	24.560	0	11.996	0	-1e10	8	-1e10	8	-1E+10	1	-1E+10	1	-1E+10	1	-1E+10	1	-1E+10	1	-1E+10	1
4902554	15	C	07/01/2021	00:07	-136.483	49.629	0	12.90	0	11.7370	0	32.3230	0	24.560	0	12.789	0	-1e10	8	-1e10	8	-1E+10	1	-1E+10	1	-1E+10	1	-1E+10	1	-1E+10	1	-1E+10	1
4902554	15	C	07/01/2021	00:07	-136.483	49.629	0	13.80	0	11.7180	0	32.3230	0	24.564	0	13.682	0	-1e10	8	-1e10	8	-1E+10	1	-1E+10	1	-1E+10	1	-1E+10	1	-1E+10	1	-1E+10	1
4902554	15	C	07/01/2021	00:07	-136.483	49.629	0	14.90	0	11.7180	0	32.3230	0	24.564	0	14.772	0	-1e10	8	-1e10	8	-1E+10	1	-1E+10	1	-1E+10	1	-1E+10	1	-1E+10	1	-1E+10	1
4902554	15	C	07/01/2021	00:07	-136.483	49.629	0	16.10	0	11.7120	0	32.3230	0	24.565	0	15.962	0	-1e10	8	-1e10	8	-1E+10	1	-1E+10	1	-1E+10	1	-1E+10	1	-1E+10	1	-1E+10	1
4902554	15	C	07/01/2021	00:07	-136.483	49.629	0	17.00	0	11.7120	0	32.3230	0	24.565	0	16.854	0	-1e10	8	-1e10	8	-1E+10	1	-1E+10	1	-1E+10	1	-1E+10	1	-1E+10	1	-1E+10	1
4902554	15	C	07/01/2021	00:07	-136.483	49.629	0	17.80	0	11.7090	0	32.3230	0	24.565	0	17.647	0	-1e10	8	-1e10	8	-1E+10	1	-1E+10	1	-1E+10	1	-1E+10	1	-1E+10	1	-1E+10	1
4902554	15	C	07/01/2021	00:07	-136.483	49.629	0	18.90	0	11.7060	0	32.3230	0	24.566	0	18.738	0	-1e10	8	-1e10	8	-1E+10	1	-1E+10	1	-1E+10	1	-1E+10	1	-1E+10	1	-1E+10	1
4902554	15	C	07/01/2021	00:07	-136.483	49.629	0	20.00	0	11.6970	0	32.3220	0	24.567	0	19.828	0	-1e10	8	-1e10	8	-1E+10	1	-1E+10	1	-1E+10	1	-1E+10	1	-1E+10	1	-1E+10	1
4902554	15	C	07/01/2021	00:07	-136.483	49.629	0	21.00	0	11.6490	0	32.3150	0	24.570	0	20.820	0	-1e10	8	-1e10	8	-1E+10	1	-1E+10	1	-1E+10	1	-1E+10	1	-1E+10	1	-1E+10	1
4902554	15	C	07/01/2021	00:07	-136.483	49.629	0	21.90	0	11.1980	0	32.3150	0	24.651	0	21.712	0	-1e10	8	-1e10	8	-1E+10	1	-1E+10	1	-1E+10	1	-1E+10	1	-1E+10	1	-1E+10	1
4902554	15	C	07/01/2021	00:07	-136.483	49.629	0	23.00	0	9.9970	0	32.3680	8	24.899	0	22.802	0	-1e10	8	-1e10	8	-1E+10	1	-1E+10	1	-1E+10	1	-1E+10	1	-1E+10	1	-1E+10	1
4902554	15	C	07/01/2021	00:07	-136.483	49.629	0	24.30	0	9.7540	0	32.3350	0	24.913	0	24.091	0	-1e10	8	-1e10	8	-1E+10	1	-1E+10	1	-1E+10	1	-1E+10	1	-1E+10	1	-1E+10	1
4902554	15	C	07/01/2021	00:07	-136.483	49.629	0	25.00	0	9.5720	0	32.3450	0	24.950	0	24.785	0	-1e10	8	-1e10	8	-1E+10	1	-1E+10	1	-1E+10	1	-1E+10	1	-1E+10	1	-1E+10	1
4902554	15	C	07/01/2021	00:07	-136.483	49.629	0	26.20	0	9.3930	0	32.3500	0	24.983	0	25.975	0	-1e10	8	-1e10	8	-1E+10	1	-1E+10	1	-1E+10	1	-1E+10	1	-1E+10	1	-1E+10	1
4902554	15	C	07/01/2021	00:07	-136.483	49.629	0	26.90	0	9.3660	0	32.3510	0	24.988	0	26.669	0	-1e10	8	-1e10	8	-1E+10	1	-1E+10	1	-1E+10	1	-1E+10	1	-1E+10	1	-1E+10	1
4902554	15	C	07/01/2021	00:07	-136.483	49.629	0	27.90	0	9.1340	0	32.3650	0	25.035	0	27.660	0	-1e10	8	-1e10	8	-1E+10	1	-1E+10	1	-1E+10	1	-1E+10	1	-1E+10	1	-1E+10	1
4902554	15	C	07/01/2021	00:07	-136.483	49.629	0	28.90	0	8.9100	0	32.3740	0	25.077	0	28.651	0	-1e10	8	-1e10	8	-1E+10	1	-1E+10	1	-1E+10	1	-1E+10	1	-1E+10	1	-1E+10	1
4902554	15	C	07/01/2021	00:07	-136.483	49.629	0	30.00	0	8.7430	0	32.3850	0	25.111	0	29.742	0	-1e10	8	-1e10	8	-1E+10	1	-1E+10	1	-1E+10	1	-1E+10	1	-1E+10	1	-1E+10	1
4902554	15	C	07/01/2021	00:07	-136.483	49.629	0	31.00	0	8.5720	0	32.3900	0	25.141	0	30.733	0	-1e10	8	-1e10	8	-1E+10	1	-1E+10	1	-1E+10	1	-1E+10	1	-1E+10	1	-1E+10	1
4902554	15	C	07/01/2021	00:07	-136.483	49.629	0	32.00	0	8.4890	0	32.3910	0	25.154	0	31.724	0	-1e10	8	-1e10	8	-1E+10	1	-1E+10	1	-1E+10	1	-1E+10	1	-1E+10	1	-1E+10	1
4902554	15	C	07/01/2021	00:07	-136.483	49.629	0	33.10	0	8.3750	0	32.3930	0	25.173	0	32.815	0	-1e10	8	-1e10	8	-1E+10	1	-1E+10	1	-1E+10	1	-1E+10	1	-1E+10	1	-1E+10	1
4902554	15	C	07/01/2021	00:07	-136.483	49.629	0	34.10	0	8.2080	0	32.4070	0	25.208	0	33.806	0	-1e10	8	-1e10	8	-1E+10	1	-1E+10	1	-1E+10	1	-1E+10	1	-1E+10	1	-1E+10	1
4902554	15	C	07/01/2021	00:07	-136.483	49.629	0	35.00	0	8.0460	0	32.4070	0	25.232	0	34.698	0	-1e10	8	-1e10	8	-1E+10	1	-1E+10	1	-1E+10	1	-1E+10	1	-1E+10	1	-1E+10	1
4902554	15	C	07/01/2021	00:07	-136.483	49.629	0	35.90	0	8.0010	0	32.4080	0	25.239	0	35.590	0	-1e10	8	-1e10	8	-1E+10	1	-1E+10	1	-1E+10	1	-1E+10	1	-1E+10	1	-1E+10	1
4902554	15	C	07/01/2021	00:07	-136.483	49.629	0	36.90	0	7.8960	0	32.4120	0	25.258	0	36.582	0	-1e10	8	-1e10	8	-1E+10	1	-1E+10	1	-1E+10	1	-1E+10	1	-1E+10	1	-1E+10	1
4902554	15	C	07/01/2021	00:07	-136.483	49.629	0	38.00	0	7.8010	0	32.4150	0	25.273	0	37.672	0	-1e10	8	-1e10	8	-1E+10	1	-1E+10	1	-1E+10	1	-1E+10	1	-1E+10	1	-1E+10	1
4902554	15	C	07/01/2021	00:07	-136.483	49.629	0	39.20	0	7.7510	0	32.4160	0	25.281	0	38.862	0	-1e10	8	-1e10	8	-1E+10	1	-1E+10	1	-1E+10	1	-1E+10	1	-1E+10	1	-1E+10	1
4902554	15	C	07/01/2021	00:07	-136.483	49.629	0	40.10	0	7.6990	0	32.4140	0	25.287	0	39.754	0	-1e10	8	-1e10	8	-1E+10	1	-1E+10	1	-1E+10	1	-1E+10	1	-1E+10	1	-1E+10	1
4902554	15	C	07/01/2021	00:07	-136.483	49.629	0	40.70	0	7.6210	0	32.4200	0	25.303	0	40.348	0	-1e10	8	-1e10	8	-1E+10	1	-1E+10	1	-1E+10	1	-1E+10	1	-1E+10	1	-1E+10	1
4902554	15	C	07/01/2021	00:07	-136.483	49.629	0	41.70	0	7.5040	0	32.4270	0	25.325	0	41.340	0	-1e10	8	-1e10	8	-1E+10	1	-1E+10	1	-1E+10	1	-1E+10	1	-1E+10	1	-1E+10	1
4902554	15	C	07/01/2021	00:07	-136.483	49.629	0	42.70	0	7.3920	0	32.4280	0	25.341	0	42.331	0	-1e10	8	-1e10	8	-1E+10	1	-1E+10	1	-1E+10	1	-1E+10	1	-1E+10	1	-1E+10	1
4902554	15	C	07/01/2021	00:07	-136.483	49.629	0	43.70	0	7.3110	0	32.4330	0	25.356	0	43.322	0	-1e10	8	-1e10	8	-1E+10	1	-1E+10	1	-1E+10	1	-1E+10	1	-1E+10	1	-1E+10	1
4902554	15	C	07/01/2021	00:07	-136.483	49.629	0	44.80	0	7.2710	0	32.4320	0	25.361	0	44.413	0	-1e10	8	-1e10	8	-1E+10	1	-1E+10	1	-1E+10	1	-1E+10	1	-1E+10	1	-1E+10	1
4902554	15	C	07/01/2021	00:07	-136.483	49.629	0	45.80	0	7.2460	0	32.4330	0	25.365	0	45.404	0	-1e10	8	-1e10	8	-1E+10	1	-1E+10	1	-1E+10	1	-1E+10	1	-1E+10	1	-1E+10	1
4902554	15	C	07/01/2021	00:07	-136.483	49.629	0	46.80	0	7.2280	0	32.4340	0	25.368	0	46.395	0	-1e10	8	-1e10	8	-1E+10	1	-1E+10	1	-1E+10	1	-1E+10	1	-1E+10	1	-1E+10	1
4902554	15	C	07/01/2021	00:07	-136.483	49.629	0	47.80	0	7.2050	0	32.4340	0	25.371	0	47.386	0	-1e10	8	-1e10	8	-1E+10	1	-1E+10	1	-1E+10	1	-1E+10	1	-1E+10	1	-1E+10	1
4902554	15	C	07/01/2021	00:07	-136.483	49.629	0	48.80	0	7.1550	0	32.4350	0	25.379	0	48.378	0	-1e10	8	-1e10	8	-1E+10	1	-1E+10	1	-1E+10	1	-1E+10	1	-1E+10	1	-1E+10	1
4902554	15	C	07/01/2021	00:07	-136.483	49.629	0	49.90	0	7.0500	0	32.4410	0	25.398	0	49.468	0	-1e10	8	-1e10	8	-1E+10	1	-1E+10	1	-1E+10	1	-1E+10	1	-1E+10	1	-1E+10	1
4902554	15	C	07/01/2021	00:07	-136.483	49.629	0	50.90	0	6.9690	0	32.4400	0	25.408	0	50.459	0	-1e10	8	-1e10	8	-1E+10	1	-1E+10	1	-1E+10	1	-1E+10	1	-1E+10	1	-1E+10	1
4902554	15	C	07/01/2021	00:07	-136.483	49.629	0	52.00	0	6.8790	0	32.4390	0	25.419	0	51.549	0	-1e10	8	-1e10	8	-1E+10	1	-1E+10	1	-1E+10	1	-1E+10	1	-1E+10	1	-1E+10	1
4902554	15	C	07/01/2021	00:07	-136.483	49.629	0	53.10	0	6.8140	0	32.4410	0	25.429	0	52.640	0	-1e10	8	-1e10	8	-1E+10	1	-1E+10	1	-1E+10	1	-1E+10	1	-1E+10	1	-1E+10	1
4902554	15	C	07/01/2021	00:07	-136.483	49.629	0	54.10	0	6.7350	0	32.4420	0	25.440	0	53.631	0	-1e10	8	-1e10	8	-1E+10	1	-1E+10	1	-1E+10	1	-1E+10	1	-1E+10	1	-1E+10	1
4902554	15	C	07/01/2021	00:07	-136.483	49.629	0	55.00	0	6.7290	0	32.4430	0	25.442	0	54.523	0	-1e10	8	-1e10	8	-1E+10	1	-1E+10	1	-1E+10	1	-1E+10	1	-1E+10	1	-1E+10	1
4902554	15	C	07/01/2021	00:07	-136.483	49.629	0	55.70	0	6.7140	0	32.4450	0	25.445	0	55.217	0	-1e10	8	-1e10	8	-1E+10	1	-1E+10	1	-1E+10	1	-1E+10	1	-1E+10	1	-1E+10	1
4902554	15	C	07/01/2021	00:07	-136.483	49.629	0	56.70	0	6.7020	0	32.4450	0	25.447	0	56.208	0	-1e10	8	-1e10	8	-1E+10	1	-1E+10	1	-1E+10	1	-1E+10	1	-1E+10	1	-1E+10	1
4902554	15	C	07/01/2021	00:07	-136.483	49.629	0	57.90	0	6.6760	0	32.4440	0	25.449	0	57.398	0	-1e10	8	-1e10	8	-1E+10	1	-1E+10	1	-1E+10	1	-1E+10	1	-1E+10	1	-1E+10	1
4902554	15	C	07/01/2021	00:07	-136.483	49.629	0	59.30	0	6.6260	0	32.4440	0	25.456	0	58.785	0	-1e10	8	-1e10	8	-1E+10	1	-1E+10	1	-1E+10	1	-1E+10	1	-1E+10	1	-1E+10	1
4902554	15	C	07/01/2021	00:07	-136.483	49.629	0	60.00	0	6.5900	0	32.4470	0	25.463	0	59.479	0	-1e10	8	-1e10	8	-1E+10	1	-1E+10	1	-1E+10	1	-1E+10	1	-1E+10	1	-1E+10	1
4902554	15	C	07/01/2021	00:07	-136.483	49.629	0	61.00	0	6.5410	0	32.4530	0	25.474	0	60.470	0	-1e10	8	-1e10	8	-1E+10	1	-1E+10	1	-1E+10	1	-1E+10	1	-1E+10	1	-1E+10	1
4902554	15	C	07/01/2021	00:07	-136.483	49.629	0	62.00	0	6.5270	0	32.4500	0	25.473	0	61.461	0	-1e10	8	-1e10	8	-1E+10	1	-1E+10	1	-1E+10	1	-1E+10	1	-1E+10	1	-1E+10	1
4902554	15	C	07/01/2021	00:07	-136.483	49.629	0	62.90	0	6.4790	0	32.4560	0	25.484	0	62.353	0	-1e10	8	-1e10	8	-1E+10	1	-1E+10	1	-1E+10	1	-1E+10	1	-1E+10	1	-1E+10	1
4902554	15	C	07/01/2021	00:07	-136.483	49.629	0	63.90	0	6.4250	0	32.4560	0	25.491	0	63.345	0	-1e10	8	-1e10	8	-1E+10	1	-1E+10	1	-1E+10	1	-1E+10	1	-1E+10	1	-1E+10	1
4902554	15	C	07/01/2021	00:07	-136.483	49.629	0	64.90	0	6.3450	0	32.4690	0	25.511	0	64.336	0	-1e10	8	-1e10	8	-1E+10	1	-1E+10	1	-1E+10	1	-1E+10	1	-1E+10	1	-1E+10	1
4902554	15	C	07/01/2021	00:07	-136.483	49.629	0	66.00	0	6.3320	0	32.4620	0	25.507	0	65.426	0	-1e10	8	-1e10	8	-1E+10	1	-1E+10	1	-1E+10	1	-1E+10	1	-1E+10	1	-1E+10	1
4902554	15	C	07/01/2021	00:07	-136.483	49.629	0	67.10	0	6.3100	0	32.4670	0	25.514	0	66.516	0	-1e10	8	-1e10	8	-1E+10	1	-1E+10	1	-1E+10	1	-1E+10	1	-1E+10	1	-1E+10	1
4902554	15	C	07/01/2021	00:07	-136.483	49.629	0	68.10	0	6.2680	0	32.4700	0	25.522	0	67.507	0	-1e10	8	-1e10	8	-1E+10	1	-1E+10	1	-1E+10	1	-1E+10	1	-1E+10	1	-1E+10	1
4902554	15	C	07/01/2021	00:07	-136.483	49.629	0	69.00	0	6.2620	0	32.4690	0	25.522	0	68.399	0	-1e10	8	-1e10	8	-1E+10	1	-1E+10	1	-1E+10	1	-1E+10	1	-1E+10	1	-1E+10	1
4902554	15	C	07/01/2021	00:07	-136.483	49.629	0	69.80	0	6.2410	0	32.4700	0	25.525	0	69.192	0	-1e10	8	-1e10	8	-1E+10	1	-1E+10	1	-1E+10	1	-1E+10	1	-1E+10	1	-1E+10	1
4902554	15	C	07/01/2021	00:07	-136.483	49.629	0	70.90	0	6.1970	0	32.4730	0	25.533	0	70.282	0	-1e10	8	-1e10	8	-1E+10	1	-1E+10	1	-1E+10	1	-1E+10	1	-1E+10	1	-1E+10	1
4902554	15	C	07/01/2021	00:07	-136.483	49.629	0	72.00	0	6.1700	0	32.4720	0	25.535	0	71.373	0	-1e10	8	-1e10	8	-1E+10	1	-1E+10	1	-1E+10	1	-1E+10	1	-1E+10	1	-1E+10	1
4902554	15	C	07/01/2021	00:07	-136.483	49.629	0	73.00	0	6.1650	0	32.4720	0	25.536	0	72.364	0	-1e10	8	-1e10	8	-1E+10	1	-1E+10	1	-1E+10	1	-1E+10	1	-1E+10	1	-1E+10	1
4902554	15	C	07/01/2021	00:07	-136.483	49.629	0	73.90	0	6.1460	0	32.4740	0	25.540	0	73.256	0	-1e10	8	-1e10	8	-1E+10	1	-1E+10	1	-1E+10	1	-1E+10	1	-1E+10	1	-1E+10	1
4902554	15	C	07/01/2021	00:07	-136.483	49.629	0	74.70	0	6.1320	0	32.4730	0	25.541	0	74.049	0	-1e10	8	-1e10	8	-1E+10	1	-1E+10	1	-1E+10	1	-1E+10	1	-1E+10	1	-1E+10	1
4902554	15	C	07/01/2021	00:07	-136.483	49.629	0	75.90	0	6.0980	0	32.4760	0	25.548	0	75.238	0	-1e10	8	-1e10	8	-1E+10	1	-1E+10	1	-1E+10	1	-1E+10	1	-1E+10	1	-1E+10	1
4902554	15	C	07/01/2021	00:07	-136.483	49.629	0	77.00	0	6.0820	0	32.4750	0	25.549	0	76.328	0	-1e10	8	-1e10	8	-1E+10	1	-1E+10	1	-1E+10	1	-1E+10	1	-1E+10	1	-1E+10	1
4902554	15	C	07/01/2021	00:07	-136.483	49.629	0	77.90	0	6.0600	0	32.4800	0	25.555	0	77.220	0	-1e10	8	-1e10	8	-1E+10	1	-1E+10	1	-1E+10	1	-1E+10	1	-1E+10	1	-1E+10	1
4902554	15	C	07/01/2021	00:07	-136.483	49.629	0	78.80	0	6.0510	0	32.4810	0	25.557	0	78.112	0	-1e10	8	-1e10	8	-1E+10	1	-1E+10	1	-1E+10	1	-1E+10	1	-1E+10	1	-1E+10	1
4902554	15	C	07/01/2021	00:07	-136.483	49.629	0	80.00	0	6.0500	0	32.4820	0	25.558	0	79.301	0	-1e10	8	-1e10	8	-1E+10	1	-1E+10	1	-1E+10	1	-1E+10	1	-1E+10	1	-1E+10	1
4902554	15	C	07/01/2021	00:07	-136.483	49.629	0	80.90	0	6.0490	0	32.4830	0	25.559	0	80.193	0	-1e10	8	-1e10	8	-1E+10	1	-1E+10	1	-1E+10	1	-1E+10	1	-1E+10	1	-1E+10	1
4902554	15	C	07/01/2021	00:07	-136.483	49.629	0	81.80	0	6.0160	0	32.4880	0	25.567	0	81.085	0	-1e10	8	-1e10	8	-1E+10	1	-1E+10	1	-1E+10	1	-1E+10	1	-1E+10	1	-1E+10	1
4902554	15	C	07/01/2021	00:07	-136.483	49.629	0	83.10	0	5.9880	0	32.4880	0	25.571	0	82.374	0	-1e10	8	-1e10	8	-1E+10	1	-1E+10	1	-1E+10	1	-1E+10	1	-1E+10	1	-1E+10	1
4902554	15	C	07/01/2021	00:07	-136.483	49.629	0	84.00	0	5.9680	0	32.4890	0	25.574	0	83.266	0	-1e10	8	-1e10	8	-1E+10	1	-1E+10	1	-1E+10	1	-1E+10	1	-1E+10	1	-1E+10	1
4902554	15	C	07/01/2021	00:07	-136.483	49.629	0	85.00	0	5.9300	0	32.4920	0	25.581	0	84.257	0	-1e10	8	-1e10	8	-1E+10	1	-1E+10	1	-1E+10	1	-1E+10	1	-1E+10	1	-1E+10	1
4902554	15	C	07/01/2021	00:07	-136.483	49.629	0	86.00	0	5.9250	0	32.4890	0	25.579	0	85.248	0	-1e10	8	-1e10	8	-1E+10	1	-1E+10	1	-1E+10	1	-1E+10	1	-1E+10	1	-1E+10	1
4902554	15	C	07/01/2021	00:07	-136.483	49.629	0	86.90	0	5.9220	0	32.4880	0	25.579	0	86.140	0	-1e10	8	-1e10	8	-1E+10	1	-1E+10	1	-1E+10	1	-1E+10	1	-1E+10	1	-1E+10	1
4902554	15	C	07/01/2021	00:07	-136.483	49.629	0	87.90	0	5.9210	0	32.4890	0	25.579	0	87.131	0	-1e10	8	-1e10	8	-1E+10	1	-1E+10	1	-1E+10	1	-1E+10	1	-1E+10	1	-1E+10	1
4902554	15	C	07/01/2021	00:07	-136.483	49.629	0	88.80	0	5.9220	0	32.4880	0	25.579	0	88.023	0	-1e10	8	-1e10	8	-1E+10	1	-1E+10	1	-1E+10	1	-1E+10	1	-1E+10	1	-1E+10	1
4902554	15	C	07/01/2021	00:07	-136.483	49.629	0	89.90	0	5.9350	0	32.4940	0	25.582	0	89.113	0	-1e10	8	-1e10	8	-1E+10	1	-1E+10	1	-1E+10	1	-1E+10	1	-1E+10	1	-1E+10	1
4902554	15	C	07/01/2021	00:07	-136.483	49.629	0	91.10	0	5.9170	0	32.4970	0	25.586	0	90.302	0	-1e10	8	-1e10	8	-1E+10	1	-1E+10	1	-1E+10	1	-1E+10	1	-1E+10	1	-1E+10	1
4902554	15	C	07/01/2021	00:07	-136.483	49.629	0	91.90	0	5.9030	0	32.4970	0	25.588	0	91.095	0	-1e10	8	-1e10	8	-1E+10	1	-1E+10	1	-1E+10	1	-1E+10	1	-1E+10	1	-1E+10	1
4902554	15	C	07/01/2021	00:07	-136.483	49.629	0	93.00	0	5.8910	0	32.5010	0	25.593	0	92.185	0	-1e10	8	-1e10	8	-1E+10	1	-1E+10	1	-1E+10	1	-1E+10	1	-1E+10	1	-1E+10	1
4902554	15	C	07/01/2021	00:07	-136.483	49.629	0	93.90	0	5.8840	0	32.5020	0	25.594	0	93.077	0	-1e10	8	-1e10	8	-1E+10	1	-1E+10	1	-1E+10	1	-1E+10	1	-1E+10	1	-1E+10	1
4902554	15	C	07/01/2021	00:07	-136.483	49.629	0	95.00	0	5.8820	0	32.5030	0	25.595	0	94.167	0	-1e10	8	-1e10	8	-1E+10	1	-1E+10	1	-1E+10	1	-1E+10	1	-1E+10	1	-1E+10	1
4902554	15	C	07/01/2021	00:07	-136.483	49.629	0	95.90	0	5.8630	0	32.5040	0	25.598	0	95.059	0	-1e10	8	-1e10	8	-1E+10	1	-1E+10	1	-1E+10	1	-1E+10	1	-1E+10	1	-1E+10	1
4902554	15	C	07/01/2021	00:07	-136.483	49.629	0	96.90	0	5.8470	0	32.5040	0	25.600	0	96.050	0	-1e10	8	-1e10	8	-1E+10	1	-1E+10	1	-1E+10	1	-1E+10	1	-1E+10	1	-1E+10	1
4902554	15	C	07/01/2021	00:07	-136.483	49.629	0	97.90	0	5.8400	0	32.5070	0	25.604	0	97.041	0	-1e10	8	-1e10	8	-1E+10	1	-1E+10	1	-1E+10	1	-1E+10	1	-1E+10	1	-1E+10	1
4902554	15	C	07/01/2021	00:07	-136.483	49.629	0	98.90	0	5.8330	0	32.5120	0	25.608	0	98.032	0	-1e10	8	-1e10	8	-1E+10	1	-1E+10	1	-1E+10	1	-1E+10	1	-1E+10	1	-1E+10	1
4902554	15	C	07/01/2021	00:07	-136.483	49.629	0	100.00	0	5.8460	0	32.5170	0	25.611	0	99.122	0	-1e10	8	-1e10	8	-1E+10	1	-1E+10	1	-1E+10	1	-1E+10	1	-1E+10	1	-1E+10	1
4902554	15	C	07/01/2021	00:07	-136.483	49.629	0	101.10	0	5.8730	0	32.5290	0	25.617	0	100.212	0	-1e10	8	-1e10	8	-1E+10	1	-1E+10	1	-1E+10	1	-1E+10	1	-1E+10	1	-1E+10	1
4902554	15	C	07/01/2021	00:07	-136.483	49.629	0	101.80	0	5.8930	0	32.5340	0	25.619	0	100.906	0	-1e10	8	-1e10	8	-1E+10	1	-1E+10	1	-1E+10	1	-1E+10	1	-1E+10	1	-1E+10	1
4902554	15	C	07/01/2021	00:07	-136.483	49.629	0	102.90	0	5.8890	0	32.5410	0	25.625	0	101.996	0	-1e10	8	-1e10	8	-1E+10	1	-1E+10	1	-1E+10	1	-1E+10	1	-1E+10	1	-1E+10	1
4902554	15	C	07/01/2021	00:07	-136.483	49.629	0	104.10	0	5.8690	0	32.5410	0	25.627	0	103.185	0	-1e10	8	-1e10	8	-1E+10	1	-1E+10	1	-1E+10	1	-1E+10	1	-1E+10	1	-1E+10	1
4902554	15	C	07/01/2021	00:07	-136.483	49.629	0	104.80	0	5.8810	0	32.5470	0	25.630	0	103.879	0	-1e10	8	-1e10	8	-1E+10	1	-1E+10	1	-1E+10	1	-1E+10	1	-1E+10	1	-1E+10	1
4902554	15	C	07/01/2021	00:07	-136.483	49.629	0	105.90	0	5.9080	0	32.5570	0	25.635	0	104.969	0	-1e10	8	-1e10	8	-1E+10	1	-1E+10	1	-1E+10	1	-1E+10	1	-1E+10	1	-1E+10	1
4902554	15	C	07/01/2021	00:07	-136.483	49.629	0	107.00	0	5.9330	0	32.5650	0	25.638	0	106.059	0	-1e10	8	-1e10	8	-1E+10	1	-1E+10	1	-1E+10	1	-1E+10	1	-1E+10	1	-1E+10	1
4902554	15	C	07/01/2021	00:07	-136.483	49.629	0	108.00	0	5.9420	0	32.5890	0	25.656	0	107.050	0	-1e10	8	-1e10	8	-1E+10	1	-1E+10	1	-1E+10	1	-1E+10	1	-1E+10	1	-1E+10	1
4902554	15	C	07/01/2021	00:07	-136.483	49.629	0	109.20	0	5.9590	0	32.6170	0	25.676	0	108.239	0	-1e10	8	-1e10	8	-1E+10	1	-1E+10	1	-1E+10	1	-1E+10	1	-1E+10	1	-1E+10	1
4902554	15	C	07/01/2021	00:07	-136.483	49.629	0	109.90	0	5.9460	0	32.6240	0	25.683	0	108.933	0	-1e10	8	-1e10	8	-1E+10	1	-1E+10	1	-1E+10	1	-1E+10	1	-1E+10	1	-1E+10	1
4902554	15	C	07/01/2021	00:07	-136.483	49.629	0	111.00	0	5.9410	0	32.6530	0	25.707	0	110.023	0	-1e10	8	-1e10	8	-1E+10	1	-1E+10	1	-1E+10	1	-1E+10	1	-1E+10	1	-1E+10	1
4902554	15	C	07/01/2021	00:07	-136.483	49.629	0	112.20	0	5.9500	0	32.6710	0	25.720	0	111.212	0	-1e10	8	-1e10	8	-1E+10	1	-1E+10	1	-1E+10	1	-1E+10	1	-1E+10	1	-1E+10	1
4902554	15	C	07/01/2021	00:07	-136.483	49.629	0	112.90	0	5.9570	0	32.6870	0	25.732	0	111.905	0	-1e10	8	-1e10	8	-1E+10	1	-1E+10	1	-1E+10	1	-1E+10	1	-1E+10	1	-1E+10	1
4902554	15	C	07/01/2021	00:07	-136.483	49.629	0	113.90	0	5.9790	0	32.7170	0	25.753	0	112.896	0	-1e10	8	-1e10	8	-1E+10	1	-1E+10	1	-1E+10	1	-1E+10	1	-1E+10	1	-1E+10	1
4902554	15	C	07/01/2021	00:07	-136.483	49.629	0	114.80	0	6.0020	0	32.7400	0	25.768	0	113.788	0	-1e10	8	-1e10	8	-1E+10	1	-1E+10	1	-1E+10	1	-1E+10	1	-1E+10	1	-1E+10	1
4902554	15	C	07/01/2021	00:07	-136.483	49.629	0	116.00	0	6.0120	0	32.7630	0	25.785	0	114.977	0	-1e10	8	-1e10	8	-1E+10	1	-1E+10	1	-1E+10	1	-1E+10	1	-1E+10	1	-1E+10	1
4902554	15	C	07/01/2021	00:07	-136.483	49.629	0	117.10	0	5.9940	0	32.7940	0	25.812	0	116.067	0	-1e10	8	-1e10	8	-1E+10	1	-1E+10	1	-1E+10	1	-1E+10	1	-1E+10	1	-1E+10	1
4902554	15	C	07/01/2021	00:07	-136.483	49.629	0	118.30	0	5.9910	0	32.8030	0	25.819	0	117.256	0	-1e10	8	-1e10	8	-1E+10	1	-1E+10	1	-1E+10	1	-1E+10	1	-1E+10	1	-1E+10	1
4902554	15	C	07/01/2021	00:07	-136.483	49.629	0	119.00	0	5.9900	0	32.8130	0	25.827	0	117.950	0	-1e10	8	-1e10	8	-1E+10	1	-1E+10	1	-1E+10	1	-1E+10	1	-1E+10	1	-1E+10	1
4902554	15	C	07/01/2021	00:07	-136.483	49.629	0	119.90	0	5.9740	0	32.8470	0	25.856	0	118.842	0	-1e10	8	-1e10	8	-1E+10	1	-1E+10	1	-1E+10	1	-1E+10	1	-1E+10	1	-1E+10	1
4902554	15	C	07/01/2021	00:07	-136.483	49.629	0	120.90	0	5.9420	0	32.8840	0	25.889	0	119.832	0	-1e10	8	-1e10	8	-1E+10	1	-1E+10	1	-1E+10	1	-1E+10	1	-1E+10	1	-1E+10	1
4902554	15	C	07/01/2021	00:07	-136.483	49.629	0	122.10	0	5.9410	0	32.9120	0	25.912	0	121.022	0	-1e10	8	-1e10	8	-1E+10	1	-1E+10	1	-1E+10	1	-1E+10	1	-1E+10	1	-1E+10	1
4902554	15	C	07/01/2021	00:07	-136.483	49.629	0	122.90	0	5.9460	0	32.9320	0	25.927	0	121.814	0	-1e10	8	-1e10	8	-1E+10	1	-1E+10	1	-1E+10	1	-1E+10	1	-1E+10	1	-1E+10	1
4902554	15	C	07/01/2021	00:07	-136.483	49.629	0	123.80	0	5.9890	0	32.9870	0	25.965	0	122.706	0	-1e10	8	-1e10	8	-1E+10	1	-1E+10	1	-1E+10	1	-1E+10	1	-1E+10	1	-1E+10	1
4902554	15	C	07/01/2021	00:07	-136.483	49.629	0	125.00	0	6.0600	0	33.0420	0	26.000	0	123.895	0	-1e10	8	-1e10	8	-1E+10	1	-1E+10	1	-1E+10	1	-1E+10	1	-1E+10	1	-1E+10	1
4902554	15	C	07/01/2021	00:07	-136.483	49.629	0	126.20	0	6.1460	0	33.1410	0	26.067	0	125.084	0	-1e10	8	-1e10	8	-1E+10	1	-1E+10	1	-1E+10	1	-1E+10	1	-1E+10	1	-1E+10	1
4902554	15	C	07/01/2021	00:07	-136.483	49.629	0	127.00	0	6.1510	0	33.1590	0	26.081	0	125.877	0	-1e10	8	-1e10	8	-1E+10	1	-1E+10	1	-1E+10	1	-1E+10	1	-1E+10	1	-1E+10	1
4902554	15	C	07/01/2021	00:07	-136.483	49.629	0	128.20	0	6.1580	0	33.2000	0	26.112	0	127.066	0	-1e10	8	-1e10	8	-1E+10	1	-1E+10	1	-1E+10	1	-1E+10	1	-1E+10	1	-1E+10	1
4902554	15	C	07/01/2021	00:07	-136.483	49.629	0	129.10	0	6.1600	0	33.2280	0	26.134	0	127.958	0	-1e10	8	-1e10	8	-1E+10	1	-1E+10	1	-1E+10	1	-1E+10	1	-1E+10	1	-1E+10	1
4902554	15	C	07/01/2021	00:07	-136.483	49.629	0	130.00	0	6.1620	0	33.2510	0	26.152	0	128.849	0	-1e10	8	-1e10	8	-1E+10	1	-1E+10	1	-1E+10	1	-1E+10	1	-1E+10	1	-1E+10	1
4902554	15	C	07/01/2021	00:07	-136.483	49.629	0	130.70	0	6.1630	0	33.2700	0	26.167	0	129.543	0	-1e10	8	-1e10	8	-1E+10	1	-1E+10	1	-1E+10	1	-1E+10	1	-1E+10	1	-1E+10	1
4902554	15	C	07/01/2021	00:07	-136.483	49.629	0	131.70	0	6.1620	0	33.3310	0	26.215	0	130.534	0	-1e10	8	-1e10	8	-1E+10	1	-1E+10	1	-1E+10	1	-1E+10	1	-1E+10	1	-1E+10	1
4902554	15	C	07/01/2021	00:07	-136.483	49.629	0	132.80	0	6.1670	0	33.3960	0	26.266	0	131.624	0	-1e10	8	-1e10	8	-1E+10	1	-1E+10	1	-1E+10	1	-1E+10	1	-1E+10	1	-1E+10	1
4902554	15	C	07/01/2021	00:07	-136.483	49.629	0	134.00	0	6.1720	0	33.4450	0	26.304	0	132.813	0	-1e10	8	-1e10	8	-1E+10	1	-1E+10	1	-1E+10	1	-1E+10	1	-1E+10	1	-1E+10	1
4902554	15	C	07/01/2021	00:07	-136.483	49.629	0	134.90	0	6.1750	0	33.5040	0	26.350	0	133.704	0	-1e10	8	-1e10	8	-1E+10	1	-1E+10	1	-1E+10	1	-1E+10	1	-1E+10	1	-1E+10	1
4902554	15	C	07/01/2021	00:07	-136.483	49.629	0	135.80	0	6.1740	0	33.5240	0	26.366	0	134.596	0	-1e10	8	-1e10	8	-1E+10	1	-1E+10	1	-1E+10	1	-1E+10	1	-1E+10	1	-1E+10	1
4902554	15	C	07/01/2021	00:07	-136.483	49.629	0	136.80	0	6.1740	0	33.5440	0	26.382	0	135.587	0	-1e10	8	-1e10	8	-1E+10	1	-1E+10	1	-1E+10	1	-1E+10	1	-1E+10	1	-1E+10	1
4902554	15	C	07/01/2021	00:07	-136.483	49.629	0	137.80	0	6.1690	0	33.5750	0	26.407	0	136.578	0	-1e10	8	-1e10	8	-1E+10	1	-1E+10	1	-1E+10	1	-1E+10	1	-1E+10	1	-1E+10	1
4902554	15	C	07/01/2021	00:07	-136.483	49.629	0	138.80	0	6.1610	0	33.5990	0	26.427	0	137.568	0	-1e10	8	-1e10	8	-1E+10	1	-1E+10	1	-1E+10	1	-1E+10	1	-1E+10	1	-1E+10	1
4902554	15	C	07/01/2021	00:07	-136.483	49.629	0	139.80	0	6.1530	0	33.6060	0	26.434	0	138.559	0	-1e10	8	-1e10	8	-1E+10	1	-1E+10	1	-1E+10	1	-1E+10	1	-1E+10	1	-1E+10	1
4902554	15	C	07/01/2021	00:07	-136.483	49.629	0	140.90	0	6.1500	0	33.6100	0	26.437	0	139.649	0	-1e10	8	-1e10	8	-1E+10	1	-1E+10	1	-1E+10	1	-1E+10	1	-1E+10	1	-1E+10	1
4902554	15	C	07/01/2021	00:07	-136.483	49.629	0	141.90	0	6.1440	0	33.6140	0	26.441	0	140.640	0	-1e10	8	-1e10	8	-1E+10	1	-1E+10	1	-1E+10	1	-1E+10	1	-1E+10	1	-1E+10	1
4902554	15	C	07/01/2021	00:07	-136.483	49.629	0	143.00	0	6.1330	0	33.6180	0	26.446	0	141.730	0	-1e10	8	-1e10	8	-1E+10	1	-1E+10	1	-1E+10	1	-1E+10	1	-1E+10	1	-1E+10	1
4902554	15	C	07/01/2021	00:07	-136.483	49.629	0	143.80	0	6.1130	0	33.6450	0	26.469	0	142.522	0	-1e10	8	-1e10	8	-1E+10	1	-1E+10	1	-1E+10	1	-1E+10	1	-1E+10	1	-1E+10	1
4902554	15	C	07/01/2021	00:07	-136.483	49.629	0	144.90	0	6.1080	0	33.6610	0	26.483	0	143.612	0	-1e10	8	-1e10	8	-1E+10	1	-1E+10	1	-1E+10	1	-1E+10	1	-1E+10	1	-1E+10	1
4902554	15	C	07/01/2021	00:07	-136.483	49.629	0	146.10	0	6.1000	0	33.6660	0	26.488	0	144.801	0	-1e10	8	-1e10	8	-1E+10	1	-1E+10	1	-1E+10	1	-1E+10	1	-1E+10	1	-1E+10	1
4902554	15	C	07/01/2021	00:07	-136.483	49.629	0	146.90	0	6.0950	0	33.6690	0	26.491	0	145.594	0	-1e10	8	-1e10	8	-1E+10	1	-1E+10	1	-1E+10	1	-1E+10	1	-1E+10	1	-1E+10	1
4902554	15	C	07/01/2021	00:07	-136.483	49.629	0	148.00	0	6.0840	0	33.6750	0	26.497	0	146.684	0	-1e10	8	-1e10	8	-1E+10	1	-1E+10	1	-1E+10	1	-1E+10	1	-1E+10	1	-1E+10	1
4902554	15	C	07/01/2021	00:07	-136.483	49.629	0	149.20	0	6.0690	0	33.6870	0	26.508	0	147.872	0	-1e10	8	-1e10	8	-1E+10	1	-1E+10	1	-1E+10	1	-1E+10	1	-1E+10	1	-1E+10	1
4902554	15	C	07/01/2021	00:07	-136.483	49.629	0	150.00	0	6.0640	0	33.6910	0	26.512	0	148.665	0	-1e10	8	-1e10	8	-1E+10	1	-1E+10	1	-1E+10	1	-1E+10	1	-1E+10	1	-1E+10	1
4902554	15	C	07/01/2021	00:07	-136.483	49.629	0	150.70	0	6.0520	0	33.6980	0	26.519	0	149.359	0	-1e10	8	-1e10	8	-1E+10	1	-1E+10	1	-1E+10	1	-1E+10	1	-1E+10	1	-1E+10	1
4902554	15	C	07/01/2021	00:07	-136.483	49.629	0	151.90	0	6.0400	0	33.7050	0	26.526	0	150.547	0	-1e10	8	-1e10	8	-1E+10	1	-1E+10	1	-1E+10	1	-1E+10	1	-1E+10	1	-1E+10	1
4902554	15	C	07/01/2021	00:07	-136.483	49.629	0	153.20	0	6.0230	0	33.7230	0	26.542	0	151.835	0	-1e10	8	-1e10	8	-1E+10	1	-1E+10	1	-1E+10	1	-1E+10	1	-1E+10	1	-1E+10	1
4902554	15	C	07/01/2021	00:07	-136.483	49.629	0	154.00	0	6.0100	0	33.7290	0	26.549	0	152.628	0	-1e10	8	-1e10	8	-1E+10	1	-1E+10	1	-1E+10	1	-1E+10	1	-1E+10	1	-1E+10	1
4902554	15	C	07/01/2021	00:07	-136.483	49.629	0	154.80	0	6.0070	0	33.7320	0	26.552	0	153.421	0	-1e10	8	-1e10	8	-1E+10	1	-1E+10	1	-1E+10	1	-1E+10	1	-1E+10	1	-1E+10	1
4902554	15	C	07/01/2021	00:07	-136.483	49.629	0	155.60	0	6.0080	0	33.7320	0	26.551	0	154.213	0	-1e10	8	-1e10	8	-1E+10	1	-1E+10	1	-1E+10	1	-1E+10	1	-1E+10	1	-1E+10	1
4902554	15	C	07/01/2021	00:07	-136.483	49.629	0	156.90	0	6.0060	0	33.7320	0	26.552	0	155.501	0	-1e10	8	-1e10	8	-1E+10	1	-1E+10	1	-1E+10	1	-1E+10	1	-1E+10	1	-1E+10	1
4902554	15	C	07/01/2021	00:07	-136.483	49.629	0	158.10	0	6.0050	0	33.7340	0	26.553	0	156.690	0	-1e10	8	-1e10	8	-1E+10	1	-1E+10	1	-1E+10	1	-1E+10	1	-1E+10	1	-1E+10	1
4902554	15	C	07/01/2021	00:07	-136.483	49.629	0	158.90	0	5.9890	0	33.7370	0	26.558	0	157.482	0	-1e10	8	-1e10	8	-1E+10	1	-1E+10	1	-1E+10	1	-1E+10	1	-1E+10	1	-1E+10	1
4902554	15	C	07/01/2021	00:07	-136.483	49.629	0	159.70	0	5.9730	0	33.7410	0	26.563	0	158.275	0	-1e10	8	-1e10	8	-1E+10	1	-1E+10	1	-1E+10	1	-1E+10	1	-1E+10	1	-1E+10	1
4902554	15	C	07/01/2021	00:07	-136.483	49.629	0	161.00	0	5.9690	0	33.7420	0	26.564	0	159.563	0	-1e10	8	-1e10	8	-1E+10	1	-1E+10	1	-1E+10	1	-1E+10	1	-1E+10	1	-1E+10	1
4902554	15	C	07/01/2021	00:07	-136.483	49.629	0	162.20	0	5.9480	0	33.7470	0	26.571	0	160.752	0	-1e10	8	-1e10	8	-1E+10	1	-1E+10	1	-1E+10	1	-1E+10	1	-1E+10	1	-1E+10	1
4902554	15	C	07/01/2021	00:07	-136.483	49.629	0	163.00	0	5.9400	0	33.7490	0	26.573	0	161.544	0	-1e10	8	-1e10	8	-1E+10	1	-1E+10	1	-1E+10	1	-1E+10	1	-1E+10	1	-1E+10	1
4902554	15	C	07/01/2021	00:07	-136.483	49.629	0	163.90	0	5.9330	0	33.7490	0	26.574	0	162.436	0	-1e10	8	-1e10	8	-1E+10	1	-1E+10	1	-1E+10	1	-1E+10	1	-1E+10	1	-1E+10	1
4902554	15	C	07/01/2021	00:07	-136.483	49.629	0	164.70	0	5.8920	0	33.7570	0	26.586	0	163.228	0	-1e10	8	-1e10	8	-1E+10	1	-1E+10	1	-1E+10	1	-1E+10	1	-1E+10	1	-1E+10	1
4902554	15	C	07/01/2021	00:07	-136.483	49.629	0	166.00	0	5.8770	0	33.7570	0	26.588	0	164.516	0	-1e10	8	-1e10	8	-1E+10	1	-1E+10	1	-1E+10	1	-1E+10	1	-1E+10	1	-1E+10	1
4902554	15	C	07/01/2021	00:07	-136.483	49.629	0	167.20	0	5.8410	0	33.7670	0	26.600	0	165.705	0	-1e10	8	-1e10	8	-1E+10	1	-1E+10	1	-1E+10	1	-1E+10	1	-1E+10	1	-1E+10	1
4902554	15	C	07/01/2021	00:07	-136.483	49.629	0	168.10	0	5.8290	0	33.7700	0	26.604	0	166.597	0	-1e10	8	-1e10	8	-1E+10	1	-1E+10	1	-1E+10	1	-1E+10	1	-1E+10	1	-1E+10	1
4902554	15	C	07/01/2021	00:07	-136.483	49.629	0	169.00	0	5.8240	0	33.7730	0	26.607	0	167.488	0	-1e10	8	-1e10	8	-1E+10	1	-1E+10	1	-1E+10	1	-1E+10	1	-1E+10	1	-1E+10	1
4902554	15	C	07/01/2021	00:07	-136.483	49.629	0	169.80	0	5.8430	0	33.7760	0	26.607	0	168.281	0	-1e10	8	-1e10	8	-1E+10	1	-1E+10	1	-1E+10	1	-1E+10	1	-1E+10	1	-1E+10	1
4902554	15	C	07/01/2021	00:07	-136.483	49.629	0	170.70	0	5.8510	0	33.7760	0	26.606	0	169.172	0	-1e10	8	-1e10	8	-1E+10	1	-1E+10	1	-1E+10	1	-1E+10	1	-1E+10	1	-1E+10	1
4902554	15	C	07/01/2021	00:07	-136.483	49.629	0	171.60	0	5.8500	0	33.7770	0	26.607	0	170.064	0	-1e10	8	-1e10	8	-1E+10	1	-1E+10	1	-1E+10	1	-1E+10	1	-1E+10	1	-1E+10	1
4902554	15	C	07/01/2021	00:07	-136.483	49.629	0	172.90	0	5.8470	0	33.7800	0	26.610	0	171.352	0	-1e10	8	-1e10	8	-1E+10	1	-1E+10	1	-1E+10	1	-1E+10	1	-1E+10	1	-1E+10	1
4902554	15	C	07/01/2021	00:07	-136.483	49.629	0	174.20	0	5.8520	0	33.7800	0	26.609	0	172.640	0	-1e10	8	-1e10	8	-1E+10	1	-1E+10	1	-1E+10	1	-1E+10	1	-1E+10	1	-1E+10	1
4902554	15	C	07/01/2021	00:07	-136.483	49.629	0	175.10	0	5.8450	0	33.7730	0	26.604	0	173.531	0	-1e10	8	-1e10	8	-1E+10	1	-1E+10	1	-1E+10	1	-1E+10	1	-1E+10	1	-1E+10	1
4902554	15	C	07/01/2021	00:07	-136.483	49.629	0	176.00	0	5.7980	0	33.7780	0	26.614	0	174.423	0	-1e10	8	-1e10	8	-1E+10	1	-1E+10	1	-1E+10	1	-1E+10	1	-1E+10	1	-1E+10	1
4902554	15	C	07/01/2021	00:07	-136.483	49.629	0	176.90	0	5.7860	0	33.7750	0	26.613	0	175.314	0	-1e10	8	-1e10	8	-1E+10	1	-1E+10	1	-1E+10	1	-1E+10	1	-1E+10	1	-1E+10	1
4902554	15	C	07/01/2021	00:07	-136.483	49.629	0	177.80	0	5.7650	0	33.7800	0	26.620	0	176.206	0	-1e10	8	-1e10	8	-1E+10	1	-1E+10	1	-1E+10	1	-1E+10	1	-1E+10	1	-1E+10	1
4902554	15	C	07/01/2021	00:07	-136.483	49.629	0	178.70	0	5.7320	0	33.7780	0	26.622	0	177.097	0	-1e10	8	-1e10	8	-1E+10	1	-1E+10	1	-1E+10	1	-1E+10	1	-1E+10	1	-1E+10	1
4902554	15	C	07/01/2021	00:07	-136.483	49.629	0	179.70	0	5.7100	0	33.7820	0	26.628	0	178.088	0	-1e10	8	-1e10	8	-1E+10	1	-1E+10	1	-1E+10	1	-1E+10	1	-1E+10	1	-1E+10	1
4902554	15	C	07/01/2021	00:07	-136.483	49.629	0	180.60	0	5.6980	0	33.7810	0	26.629	0	178.980	0	-1e10	8	-1e10	8	-1E+10	1	-1E+10	1	-1E+10	1	-1E+10	1	-1E+10	1	-1E+10	1
4902554	15	C	07/01/2021	00:07	-136.483	49.629	0	181.90	0	5.6860	0	33.7830	0	26.632	0	180.267	0	-1e10	8	-1e10	8	-1E+10	1	-1E+10	1	-1E+10	1	-1E+10	1	-1E+10	1	-1E+10	1
4902554	15	C	07/01/2021	00:07	-136.483	49.629	0	183.40	0	5.6860	0	33.7830	0	26.632	0	181.753	0	-1e10	8	-1e10	8	-1E+10	1	-1E+10	1	-1E+10	1	-1E+10	1	-1E+10	1	-1E+10	1
4902554	15	C	07/01/2021	00:07	-136.483	49.629	0	184.30	0	5.6860	0	33.7840	0	26.633	0	182.645	0	-1e10	8	-1e10	8	-1E+10	1	-1E+10	1	-1E+10	1	-1E+10	1	-1E+10	1	-1E+10	1
4902554	15	C	07/01/2021	00:07	-136.483	49.629	0	185.20	0	5.6860	0	33.7830	0	26.632	0	183.536	0	-1e10	8	-1e10	8	-1E+10	1	-1E+10	1	-1E+10	1	-1E+10	1	-1E+10	1	-1E+10	1
4902554	15	C	07/01/2021	00:07	-136.483	49.629	0	186.20	0	5.6860	0	33.7840	0	26.633	0	184.527	0	-1e10	8	-1e10	8	-1E+10	1	-1E+10	1	-1E+10	1	-1E+10	1	-1E+10	1	-1E+10	1
4902554	15	C	07/01/2021	00:07	-136.483	49.629	0	187.20	0	5.6840	0	33.7840	0	26.633	0	185.517	0	-1e10	8	-1e10	8	-1E+10	1	-1E+10	1	-1E+10	1	-1E+10	1	-1E+10	1	-1E+10	1
4902554	15	C	07/01/2021	00:07	-136.483	49.629	0	188.10	0	5.6800	0	33.7850	0	26.634	0	186.409	0	-1e10	8	-1e10	8	-1E+10	1	-1E+10	1	-1E+10	1	-1E+10	1	-1E+10	1	-1E+10	1
4902554	15	C	07/01/2021	00:07	-136.483	49.629	0	189.10	0	5.6780	0	33.7850	0	26.634	0	187.399	0	-1e10	8	-1e10	8	-1E+10	1	-1E+10	1	-1E+10	1	-1E+10	1	-1E+10	1	-1E+10	1
4902554	15	C	07/01/2021	00:07	-136.483	49.629	0	190.00	0	5.6740	0	33.7860	0	26.636	0	188.291	0	-1e10	8	-1e10	8	-1E+10	1	-1E+10	1	-1E+10	1	-1E+10	1	-1E+10	1	-1E+10	1
4902554	15	C	07/01/2021	00:07	-136.483	49.629	0	191.00	0	5.6730	0	33.7860	0	26.636	0	189.281	0	-1e10	8	-1e10	8	-1E+10	1	-1E+10	1	-1E+10	1	-1E+10	1	-1E+10	1	-1E+10	1
4902554	15	C	07/01/2021	00:07	-136.483	49.629	0	191.90	0	5.6690	0	33.7860	0	26.636	0	190.173	0	-1e10	8	-1e10	8	-1E+10	1	-1E+10	1	-1E+10	1	-1E+10	1	-1E+10	1	-1E+10	1
4902554	15	C	07/01/2021	00:07	-136.483	49.629	0	192.90	0	5.6630	0	33.7880	0	26.639	0	191.163	0	-1e10	8	-1e10	8	-1E+10	1	-1E+10	1	-1E+10	1	-1E+10	1	-1E+10	1	-1E+10	1
4902554	15	C	07/01/2021	00:07	-136.483	49.629	0	193.80	0	5.6690	0	33.7880	0	26.638	0	192.055	0	-1e10	8	-1e10	8	-1E+10	1	-1E+10	1	-1E+10	1	-1E+10	1	-1E+10	1	-1E+10	1
4902554	15	C	07/01/2021	00:07	-136.483	49.629	0	194.80	0	5.6600	0	33.7920	0	26.642	0	193.045	0	-1e10	8	-1e10	8	-1E+10	1	-1E+10	1	-1E+10	1	-1E+10	1	-1E+10	1	-1E+10	1
4902554	15	C	07/01/2021	00:07	-136.483	49.629	0	195.70	0	5.6460	0	33.7940	0	26.645	0	193.937	0	-1e10	8	-1e10	8	-1E+10	1	-1E+10	1	-1E+10	1	-1E+10	1	-1E+10	1	-1E+10	1
4902554	15	C	07/01/2021	00:07	-136.483	49.629	0	196.70	0	5.6410	0	33.7930	0	26.645	0	194.927	0	-1e10	8	-1e10	8	-1E+10	1	-1E+10	1	-1E+10	1	-1E+10	1	-1E+10	1	-1E+10	1
4902554	15	C	07/01/2021	00:07	-136.483	49.629	0	197.70	0	5.6290	0	33.7930	0	26.647	0	195.918	0	-1e10	8	-1e10	8	-1E+10	1	-1E+10	1	-1E+10	1	-1E+10	1	-1E+10	1	-1E+10	1
4902554	15	C	07/01/2021	00:07	-136.483	49.629	0	198.60	0	5.6100	0	33.7980	0	26.653	0	196.809	0	-1e10	8	-1e10	8	-1E+10	1	-1E+10	1	-1E+10	1	-1E+10	1	-1E+10	1	-1E+10	1
4902554	15	C	07/01/2021	00:07	-136.483	49.629	0	199.60	0	5.6100	0	33.8000	0	26.655	0	197.800	0	-1e10	8	-1e10	8	-1E+10	1	-1E+10	1	-1E+10	1	-1E+10	1	-1E+10	1	-1E+10	1
4902554	15	C	07/01/2021	00:07	-136.483	49.629	0	200.60	0	5.6110	0	33.8010	0	26.655	0	198.790	0	-1e10	8	-1e10	8	-1E+10	1	-1E+10	1	-1E+10	1	-1E+10	1	-1E+10	1	-1E+10	1
4902554	15	C	07/01/2021	00:07	-136.483	49.629	0	201.60	0	5.6130	0	33.8020	0	26.656	0	199.781	0	-1e10	8	-1e10	8	-1E+10	1	-1E+10	1	-1E+10	1	-1E+10	1	-1E+10	1	-1E+10	1
4902554	15	C	07/01/2021	00:07	-136.483	49.629	0	202.60	0	5.6140	0	33.8020	0	26.656	0	200.771	0	-1e10	8	-1e10	8	-1E+10	1	-1E+10	1	-1E+10	1	-1E+10	1	-1E+10	1	-1E+10	1
4902554	15	C	07/01/2021	00:07	-136.483	49.629	0	203.60	0	5.6120	0	33.8020	0	26.656	0	201.762	0	-1e10	8	-1e10	8	-1E+10	1	-1E+10	1	-1E+10	1	-1E+10	1	-1E+10	1	-1E+10	1
4902554	15	C	07/01/2021	00:07	-136.483	49.629	0	204.60	0	5.6060	0	33.8040	0	26.658	0	202.752	0	-1e10	8	-1e10	8	-1E+10	1	-1E+10	1	-1E+10	1	-1E+10	1	-1E+10	1	-1E+10	1
4902554	15	C	07/01/2021	00:07	-136.483	49.629	0	205.50	0	5.6040	0	33.8020	0	26.657	0	203.644	0	-1e10	8	-1e10	8	-1E+10	1	-1E+10	1	-1E+10	1	-1E+10	1	-1E+10	1	-1E+10	1
4902554	15	C	07/01/2021	00:07	-136.483	49.629	0	206.50	0	5.5990	0	33.8040	0	26.659	0	204.634	0	-1e10	8	-1e10	8	-1E+10	1	-1E+10	1	-1E+10	1	-1E+10	1	-1E+10	1	-1E+10	1
4902554	15	C	07/01/2021	00:07	-136.483	49.629	0	207.50	0	5.5950	0	33.8040	0	26.660	0	205.625	0	-1e10	8	-1e10	8	-1E+10	1	-1E+10	1	-1E+10	1	-1E+10	1	-1E+10	1	-1E+10	1
4902554	15	C	07/01/2021	00:07	-136.483	49.629	0	208.50	0	5.5980	0	33.8040	0	26.659	0	206.615	0	-1e10	8	-1e10	8	-1E+10	1	-1E+10	1	-1E+10	1	-1E+10	1	-1E+10	1	-1E+10	1
4902554	15	C	07/01/2021	00:07	-136.483	49.629	0	209.50	0	5.5960	0	33.8050	0	26.660	0	207.606	0	-1e10	8	-1e10	8	-1E+10	1	-1E+10	1	-1E+10	1	-1E+10	1	-1E+10	1	-1E+10	1
4902554	15	C	07/01/2021	00:07	-136.483	49.629	0	210.50	0	5.5830	0	33.8060	0	26.663	0	208.596	0	-1e10	8	-1e10	8	-1E+10	1	-1E+10	1	-1E+10	1	-1E+10	1	-1E+10	1	-1E+10	1
4902554	15	C	07/01/2021	00:07	-136.483	49.629	0	211.50	0	5.5500	0	33.8100	0	26.670	0	209.587	0	-1e10	8	-1e10	8	-1E+10	1	-1E+10	1	-1E+10	1	-1E+10	1	-1E+10	1	-1E+10	1
4902554	15	C	07/01/2021	00:07	-136.483	49.629	0	212.50	0	5.5430	0	33.8130	0	26.673	0	210.577	0	-1e10	8	-1e10	8	-1E+10	1	-1E+10	1	-1E+10	1	-1E+10	1	-1E+10	1	-1E+10	1
4902554	15	C	07/01/2021	00:07	-136.483	49.629	0	213.60	0	5.5420	0	33.8130	0	26.673	0	211.667	0	-1e10	8	-1e10	8	-1E+10	1	-1E+10	1	-1E+10	1	-1E+10	1	-1E+10	1	-1E+10	1
4902554	15	C	07/01/2021	00:07	-136.483	49.629	0	214.60	0	5.5420	0	33.8150	0	26.675	0	212.657	0	-1e10	8	-1e10	8	-1E+10	1	-1E+10	1	-1E+10	1	-1E+10	1	-1E+10	1	-1E+10	1
4902554	15	C	07/01/2021	00:07	-136.483	49.629	0	215.60	0	5.5380	0	33.8190	0	26.678	0	213.647	0	-1e10	8	-1e10	8	-1E+10	1	-1E+10	1	-1E+10	1	-1E+10	1	-1E+10	1	-1E+10	1
4902554	15	C	07/01/2021	00:07	-136.483	49.629	0	216.60	0	5.5330	0	33.8210	0	26.681	0	214.638	0	-1e10	8	-1e10	8	-1E+10	1	-1E+10	1	-1E+10	1	-1E+10	1	-1E+10	1	-1E+10	1
4902554	15	C	07/01/2021	00:07	-136.483	49.629	0	217.60	0	5.5210	0	33.8220	0	26.683	0	215.628	0	-1e10	8	-1e10	8	-1E+10	1	-1E+10	1	-1E+10	1	-1E+10	1	-1E+10	1	-1E+10	1
4902554	15	C	07/01/2021	00:07	-136.483	49.629	0	218.60	0	5.5220	0	33.8250	0	26.685	0	216.619	0	-1e10	8	-1e10	8	-1E+10	1	-1E+10	1	-1E+10	1	-1E+10	1	-1E+10	1	-1E+10	1
4902554	15	C	07/01/2021	00:07	-136.483	49.629	0	219.70	0	5.5270	0	33.8260	0	26.685	0	217.708	0	-1e10	8	-1e10	8	-1E+10	1	-1E+10	1	-1E+10	1	-1E+10	1	-1E+10	1	-1E+10	1
4902554	15	C	07/01/2021	00:07	-136.483	49.629	0	220.70	0	5.5290	0	33.8290	0	26.687	0	218.698	0	-1e10	8	-1e10	8	-1E+10	1	-1E+10	1	-1E+10	1	-1E+10	1	-1E+10	1	-1E+10	1
4902554	15	C	07/01/2021	00:07	-136.483	49.629	0	221.70	0	5.5290	0	33.8310	0	26.689	0	219.689	0	-1e10	8	-1e10	8	-1E+10	1	-1E+10	1	-1E+10	1	-1E+10	1	-1E+10	1	-1E+10	1
4902554	15	C	07/01/2021	00:07	-136.483	49.629	0	222.70	0	5.5300	0	33.8320	0	26.690	0	220.679	0	-1e10	8	-1e10	8	-1E+10	1	-1E+10	1	-1E+10	1	-1E+10	1	-1E+10	1	-1E+10	1
4902554	15	C	07/01/2021	00:07	-136.483	49.629	0	223.70	0	5.5390	0	33.8320	0	26.689	0	221.670	0	-1e10	8	-1e10	8	-1E+10	1	-1E+10	1	-1E+10	1	-1E+10	1	-1E+10	1	-1E+10	1
4902554	15	C	07/01/2021	00:07	-136.483	49.629	0	224.70	0	5.5300	0	33.8380	0	26.694	0	222.660	0	-1e10	8	-1e10	8	-1E+10	1	-1E+10	1	-1E+10	1	-1E+10	1	-1E+10	1	-1E+10	1
4902554	15	C	07/01/2021	00:07	-136.483	49.629	0	225.70	0	5.4920	0	33.8400	0	26.701	0	223.650	0	-1e10	8	-1e10	8	-1E+10	1	-1E+10	1	-1E+10	1	-1E+10	1	-1E+10	1	-1E+10	1
4902554	15	C	07/01/2021	00:07	-136.483	49.629	0	226.70	0	5.4850	0	33.8320	0	26.695	0	224.641	0	-1e10	8	-1e10	8	-1E+10	1	-1E+10	1	-1E+10	1	-1E+10	1	-1E+10	1	-1E+10	1
4902554	15	C	07/01/2021	00:07	-136.483	49.629	0	227.70	0	5.4840	0	33.8340	0	26.697	0	225.631	0	-1e10	8	-1e10	8	-1E+10	1	-1E+10	1	-1E+10	1	-1E+10	1	-1E+10	1	-1E+10	1
4902554	15	C	07/01/2021	00:07	-136.483	49.629	0	228.80	0	5.5130	0	33.8420	0	26.700	0	226.721	0	-1e10	8	-1e10	8	-1E+10	1	-1E+10	1	-1E+10	1	-1E+10	1	-1E+10	1	-1E+10	1
4902554	15	C	07/01/2021	00:07	-136.483	49.629	0	229.70	0	5.4950	0	33.8410	0	26.701	0	227.612	0	-1e10	8	-1e10	8	-1E+10	1	-1E+10	1	-1E+10	1	-1E+10	1	-1E+10	1	-1E+10	1
4902554	15	C	07/01/2021	00:07	-136.483	49.629	0	230.70	0	5.4310	0	33.8380	0	26.706	0	228.602	0	-1e10	8	-1e10	8	-1E+10	1	-1E+10	1	-1E+10	1	-1E+10	1	-1E+10	1	-1E+10	1
4902554	15	C	07/01/2021	00:07	-136.483	49.629	0	231.80	0	5.3600	0	33.8400	0	26.716	0	229.692	0	-1e10	8	-1e10	8	-1E+10	1	-1E+10	1	-1E+10	1	-1E+10	1	-1E+10	1	-1E+10	1
4902554	15	C	07/01/2021	00:07	-136.483	49.629	0	232.80	0	5.3100	0	33.8230	0	26.709	0	230.682	0	-1e10	8	-1e10	8	-1E+10	1	-1E+10	1	-1E+10	1	-1E+10	1	-1E+10	1	-1E+10	1
4902554	15	C	07/01/2021	00:07	-136.483	49.629	0	233.80	0	5.2700	0	33.8270	0	26.716	0	231.672	0	-1e10	8	-1e10	8	-1E+10	1	-1E+10	1	-1E+10	1	-1E+10	1	-1E+10	1	-1E+10	1
4902554	15	C	07/01/2021	00:07	-136.483	49.629	0	234.80	0	5.2130	0	33.8210	0	26.718	0	232.663	0	-1e10	8	-1e10	8	-1E+10	1	-1E+10	1	-1E+10	1	-1E+10	1	-1E+10	1	-1E+10	1
4902554	15	C	07/01/2021	00:07	-136.483	49.629	0	235.80	0	5.1810	0	33.8200	0	26.721	0	233.653	0	-1e10	8	-1e10	8	-1E+10	1	-1E+10	1	-1E+10	1	-1E+10	1	-1E+10	1	-1E+10	1
4902554	15	C	07/01/2021	00:07	-136.483	49.629	0	236.90	0	5.1760	0	33.8200	0	26.722	0	234.742	0	-1e10	8	-1e10	8	-1E+10	1	-1E+10	1	-1E+10	1	-1E+10	1	-1E+10	1	-1E+10	1
4902554	15	C	07/01/2021	00:07	-136.483	49.629	0	237.90	0	5.1600	0	33.8180	0	26.722	0	235.733	0	-1e10	8	-1e10	8	-1E+10	1	-1E+10	1	-1E+10	1	-1E+10	1	-1E+10	1	-1E+10	1
4902554	15	C	07/01/2021	00:07	-136.483	49.629	0	238.90	0	5.1500	0	33.8190	0	26.724	0	236.723	0	-1e10	8	-1e10	8	-1E+10	1	-1E+10	1	-1E+10	1	-1E+10	1	-1E+10	1	-1E+10	1
4902554	15	C	07/01/2021	00:07	-136.483	49.629	0	239.90	0	5.1400	0	33.8180	0	26.724	0	237.713	0	-1e10	8	-1e10	8	-1E+10	1	-1E+10	1	-1E+10	1	-1E+10	1	-1E+10	1	-1E+10	1
4902554	15	C	07/01/2021	00:07	-136.483	49.629	0	240.90	0	5.1340	0	33.8170	0	26.724	0	238.704	0	-1e10	8	-1e10	8	-1E+10	1	-1E+10	1	-1E+10	1	-1E+10	1	-1E+10	1	-1E+10	1
4902554	15	C	07/01/2021	00:07	-136.483	49.629	0	241.90	0	5.0950	0	33.8200	0	26.731	0	239.694	0	-1e10	8	-1e10	8	-1E+10	1	-1E+10	1	-1E+10	1	-1E+10	1	-1E+10	1	-1E+10	1
4902554	15	C	07/01/2021	00:07	-136.483	49.629	0	242.90	0	5.0670	0	33.8200	0	26.734	0	240.684	0	-1e10	8	-1e10	8	-1E+10	1	-1E+10	1	-1E+10	1	-1E+10	1	-1E+10	1	-1E+10	1
4902554	15	C	07/01/2021	00:07	-136.483	49.629	0	243.90	0	5.0430	0	33.8220	0	26.739	0	241.675	0	-1e10	8	-1e10	8	-1E+10	1	-1E+10	1	-1E+10	1	-1E+10	1	-1E+10	1	-1E+10	1
4902554	15	C	07/01/2021	00:07	-136.483	49.629	0	245.00	0	5.0320	0	33.8240	0	26.742	0	242.764	0	-1e10	8	-1e10	8	-1E+10	1	-1E+10	1	-1E+10	1	-1E+10	1	-1E+10	1	-1E+10	1
4902554	15	C	07/01/2021	00:07	-136.483	49.629	0	246.00	0	5.0280	0	33.8240	0	26.742	0	243.754	0	-1e10	8	-1e10	8	-1E+10	1	-1E+10	1	-1E+10	1	-1E+10	1	-1E+10	1	-1E+10	1
4902554	15	C	07/01/2021	00:07	-136.483	49.629	0	247.00	0	5.0230	0	33.8260	0	26.744	0	244.744	0	-1e10	8	-1e10	8	-1E+10	1	-1E+10	1	-1E+10	1	-1E+10	1	-1E+10	1	-1E+10	1
4902554	15	C	07/01/2021	00:07	-136.483	49.629	0	248.10	0	5.0150	0	33.8250	0	26.744	0	245.834	0	-1e10	8	-1e10	8	-1E+10	1	-1E+10	1	-1E+10	1	-1E+10	1	-1E+10	1	-1E+10	1
4902554	15	C	07/01/2021	00:07	-136.483	49.629	0	249.10	0	5.0130	0	33.8250	0	26.745	0	246.824	0	-1e10	8	-1e10	8	-1E+10	1	-1E+10	1	-1E+10	1	-1E+10	1	-1E+10	1	-1E+10	1
4902554	15	C	07/01/2021	00:07	-136.483	49.629	0	250.20	0	5.0110	0	33.8250	0	26.745	0	247.913	0	-1e10	8	-1e10	8	-1E+10	1	-1E+10	1	-1E+10	1	-1E+10	1	-1E+10	1	-1E+10	1
4902554	15	C	07/01/2021	00:07	-136.483	49.629	0	251.20	0	5.0070	0	33.8260	0	26.746	0	248.904	0	-1e10	8	-1e10	8	-1E+10	1	-1E+10	1	-1E+10	1	-1E+10	1	-1E+10	1	-1E+10	1
4902554	15	C	07/01/2021	00:07	-136.483	49.629	0	252.30	0	5.0040	0	33.8260	0	26.746	0	249.993	0	-1e10	8	-1e10	8	-1E+10	1	-1E+10	1	-1E+10	1	-1E+10	1	-1E+10	1	-1E+10	1
4902554	15	C	07/01/2021	00:07	-136.483	49.629	0	253.30	0	5.0020	0	33.8250	0	26.746	0	250.983	0	-1e10	8	-1e10	8	-1E+10	1	-1E+10	1	-1E+10	1	-1E+10	1	-1E+10	1	-1E+10	1
4902554	15	C	07/01/2021	00:07	-136.483	49.629	0	254.30	0	4.9980	0	33.8250	0	26.746	0	251.973	0	-1e10	8	-1e10	8	-1E+10	1	-1E+10	1	-1E+10	1	-1E+10	1	-1E+10	1	-1E+10	1
4902554	15	C	07/01/2021	00:07	-136.483	49.629	0	255.20	0	4.9990	0	33.8280	0	26.749	0	252.865	0	-1e10	8	-1e10	8	-1E+10	1	-1E+10	1	-1E+10	1	-1E+10	1	-1E+10	1	-1E+10	1
4902554	15	C	07/01/2021	00:07	-136.483	49.629	0	256.10	0	4.9810	0	33.8260	0	26.749	0	253.756	0	-1e10	8	-1e10	8	-1E+10	1	-1E+10	1	-1E+10	1	-1E+10	1	-1E+10	1	-1E+10	1
4902554	15	C	07/01/2021	00:07	-136.483	49.629	0	256.90	0	4.9780	0	33.8260	0	26.749	0	254.548	0	-1e10	8	-1e10	8	-1E+10	1	-1E+10	1	-1E+10	1	-1E+10	1	-1E+10	1	-1E+10	1
4902554	15	C	07/01/2021	00:07	-136.483	49.629	0	258.00	0	4.9850	0	33.8290	0	26.751	0	255.637	0	-1e10	8	-1e10	8	-1E+10	1	-1E+10	1	-1E+10	1	-1E+10	1	-1E+10	1	-1E+10	1
4902554	15	C	07/01/2021	00:07	-136.483	49.629	0	259.20	0	4.9750	0	33.8360	0	26.758	0	256.825	0	-1e10	8	-1e10	8	-1E+10	1	-1E+10	1	-1E+10	1	-1E+10	1	-1E+10	1	-1E+10	1
4902554	15	C	07/01/2021	00:07	-136.483	49.629	0	259.90	0	4.9730	0	33.8370	0	26.759	0	257.519	0	-1e10	8	-1e10	8	-1E+10	1	-1E+10	1	-1E+10	1	-1E+10	1	-1E+10	1	-1E+10	1
4902554	15	C	07/01/2021	00:07	-136.483	49.629	0	260.70	0	4.9730	0	33.8370	0	26.759	0	258.311	0	-1e10	8	-1e10	8	-1E+10	1	-1E+10	1	-1E+10	1	-1E+10	1	-1E+10	1	-1E+10	1
4902554	15	C	07/01/2021	00:07	-136.483	49.629	0	261.80	0	4.9740	0	33.8380	0	26.759	0	259.400	0	-1e10	8	-1e10	8	-1E+10	1	-1E+10	1	-1E+10	1	-1E+10	1	-1E+10	1	-1E+10	1
4902554	15	C	07/01/2021	00:07	-136.483	49.629	0	263.00	0	4.9780	0	33.8390	0	26.760	0	260.588	0	-1e10	8	-1e10	8	-1E+10	1	-1E+10	1	-1E+10	1	-1E+10	1	-1E+10	1	-1E+10	1
4902554	15	C	07/01/2021	00:07	-136.483	49.629	0	263.80	0	4.9830	0	33.8440	0	26.763	0	261.380	0	-1e10	8	-1e10	8	-1E+10	1	-1E+10	1	-1E+10	1	-1E+10	1	-1E+10	1	-1E+10	1
4902554	15	C	07/01/2021	00:07	-136.483	49.629	0	265.00	0	4.9910	0	33.8470	0	26.765	0	262.569	0	-1e10	8	-1e10	8	-1E+10	1	-1E+10	1	-1E+10	1	-1E+10	1	-1E+10	1	-1E+10	1
4902554	15	C	07/01/2021	00:07	-136.483	49.629	0	266.20	0	4.9860	0	33.8520	0	26.769	0	263.757	0	-1e10	8	-1e10	8	-1E+10	1	-1E+10	1	-1E+10	1	-1E+10	1	-1E+10	1	-1E+10	1
4902554	15	C	07/01/2021	00:07	-136.483	49.629	0	267.00	0	4.9770	0	33.8530	0	26.771	0	264.549	0	-1e10	8	-1e10	8	-1E+10	1	-1E+10	1	-1E+10	1	-1E+10	1	-1E+10	1	-1E+10	1
4902554	15	C	07/01/2021	00:07	-136.483	49.629	0	267.80	0	4.9800	0	33.8540	0	26.771	0	265.341	0	-1e10	8	-1e10	8	-1E+10	1	-1E+10	1	-1E+10	1	-1E+10	1	-1E+10	1	-1E+10	1
4902554	15	C	07/01/2021	00:07	-136.483	49.629	0	269.00	0	4.9770	0	33.8550	0	26.773	0	266.529	0	-1e10	8	-1e10	8	-1E+10	1	-1E+10	1	-1E+10	1	-1E+10	1	-1E+10	1	-1E+10	1
4902554	15	C	07/01/2021	00:07	-136.483	49.629	0	270.20	0	4.9720	0	33.8560	0	26.774	0	267.718	0	-1e10	8	-1e10	8	-1E+10	1	-1E+10	1	-1E+10	1	-1E+10	1	-1E+10	1	-1E+10	1
4902554	15	C	07/01/2021	00:07	-136.483	49.629	0	271.00	0	4.9690	0	33.8560	0	26.774	0	268.510	0	-1e10	8	-1e10	8	-1E+10	1	-1E+10	1	-1E+10	1	-1E+10	1	-1E+10	1	-1E+10	1
4902554	15	C	07/01/2021	00:07	-136.483	49.629	0	271.90	0	4.9620	0	33.8570	0	26.776	0	269.401	0	-1e10	8	-1e10	8	-1E+10	1	-1E+10	1	-1E+10	1	-1E+10	1	-1E+10	1	-1E+10	1
4902554	15	C	07/01/2021	00:07	-136.483	49.629	0	272.70	0	4.9500	0	33.8600	0	26.780	0	270.193	0	-1e10	8	-1e10	8	-1E+10	1	-1E+10	1	-1E+10	1	-1E+10	1	-1E+10	1	-1E+10	1
4902554	15	C	07/01/2021	00:07	-136.483	49.629	0	273.90	0	4.9440	0	33.8620	0	26.782	0	271.381	0	-1e10	8	-1e10	8	-1E+10	1	-1E+10	1	-1E+10	1	-1E+10	1	-1E+10	1	-1E+10	1
4902554	15	C	07/01/2021	00:07	-136.483	49.629	0	275.20	0	4.9420	0	33.8630	0	26.783	0	272.668	0	-1e10	8	-1e10	8	-1E+10	1	-1E+10	1	-1E+10	1	-1E+10	1	-1E+10	1	-1E+10	1
4902554	15	C	07/01/2021	00:07	-136.483	49.629	0	276.10	0	4.9400	0	33.8630	0	26.783	0	273.559	0	-1e10	8	-1e10	8	-1E+10	1	-1E+10	1	-1E+10	1	-1E+10	1	-1E+10	1	-1E+10	1
4902554	15	C	07/01/2021	00:07	-136.483	49.629	0	276.90	0	4.9380	0	33.8630	0	26.783	0	274.352	0	-1e10	8	-1e10	8	-1E+10	1	-1E+10	1	-1E+10	1	-1E+10	1	-1E+10	1	-1E+10	1
4902554	15	C	07/01/2021	00:07	-136.483	49.629	0	277.80	0	4.9360	0	33.8630	0	26.784	0	275.243	0	-1e10	8	-1e10	8	-1E+10	1	-1E+10	1	-1E+10	1	-1E+10	1	-1E+10	1	-1E+10	1
4902554	15	C	07/01/2021	00:07	-136.483	49.629	0	279.00	0	4.9300	0	33.8650	0	26.786	0	276.431	0	-1e10	8	-1e10	8	-1E+10	1	-1E+10	1	-1E+10	1	-1E+10	1	-1E+10	1	-1E+10	1
4902554	15	C	07/01/2021	00:07	-136.483	49.629	0	280.30	0	4.9290	0	33.8680	0	26.788	0	277.718	0	-1e10	8	-1e10	8	-1E+10	1	-1E+10	1	-1E+10	1	-1E+10	1	-1E+10	1	-1E+10	1
4902554	15	C	07/01/2021	00:07	-136.483	49.629	0	281.10	0	4.9120	0	33.8720	0	26.793	0	278.510	0	-1e10	8	-1e10	8	-1E+10	1	-1E+10	1	-1E+10	1	-1E+10	1	-1E+10	1	-1E+10	1
4902554	15	C	07/01/2021	00:07	-136.483	49.629	0	282.00	0	4.9010	0	33.8690	0	26.792	0	279.401	0	-1e10	8	-1e10	8	-1E+10	1	-1E+10	1	-1E+10	1	-1E+10	1	-1E+10	1	-1E+10	1
4902554	15	C	07/01/2021	00:07	-136.483	49.629	0	282.90	0	4.9100	0	33.8740	0	26.795	0	280.292	0	-1e10	8	-1e10	8	-1E+10	1	-1E+10	1	-1E+10	1	-1E+10	1	-1E+10	1	-1E+10	1
4902554	15	C	07/01/2021	00:07	-136.483	49.629	0	283.70	0	4.9050	0	33.8750	0	26.797	0	281.084	0	-1e10	8	-1e10	8	-1E+10	1	-1E+10	1	-1E+10	1	-1E+10	1	-1E+10	1	-1E+10	1
4902554	15	C	07/01/2021	00:07	-136.483	49.629	0	284.60	0	4.9060	0	33.8760	0	26.797	0	281.975	0	-1e10	8	-1e10	8	-1E+10	1	-1E+10	1	-1E+10	1	-1E+10	1	-1E+10	1	-1E+10	1
4902554	15	C	07/01/2021	00:07	-136.483	49.629	0	285.90	0	4.9040	0	33.8760	0	26.798	0	283.263	0	-1e10	8	-1e10	8	-1E+10	1	-1E+10	1	-1E+10	1	-1E+10	1	-1E+10	1	-1E+10	1
4902554	15	C	07/01/2021	00:07	-136.483	49.629	0	287.30	0	4.9030	0	33.8790	0	26.800	0	284.649	0	-1e10	8	-1e10	8	-1E+10	1	-1E+10	1	-1E+10	1	-1E+10	1	-1E+10	1	-1E+10	1
4902554	15	C	07/01/2021	00:07	-136.483	49.629	0	288.10	0	4.9070	0	33.8800	0	26.800	0	285.441	0	-1e10	8	-1e10	8	-1E+10	1	-1E+10	1	-1E+10	1	-1E+10	1	-1E+10	1	-1E+10	1
4902554	15	C	07/01/2021	00:07	-136.483	49.629	0	289.00	0	4.9110	0	33.8820	0	26.802	0	286.332	0	-1e10	8	-1e10	8	-1E+10	1	-1E+10	1	-1E+10	1	-1E+10	1	-1E+10	1	-1E+10	1
4902554	15	C	07/01/2021	00:07	-136.483	49.629	0	289.90	0	4.9150	0	33.8830	0	26.802	0	287.223	0	-1e10	8	-1e10	8	-1E+10	1	-1E+10	1	-1E+10	1	-1E+10	1	-1E+10	1	-1E+10	1
4902554	15	C	07/01/2021	00:07	-136.483	49.629	0	290.80	0	4.9190	0	33.8830	0	26.802	0	288.114	0	-1e10	8	-1e10	8	-1E+10	1	-1E+10	1	-1E+10	1	-1E+10	1	-1E+10	1	-1E+10	1
4902554	15	C	07/01/2021	00:07	-136.483	49.629	0	291.60	0	4.9150	0	33.8850	0	26.804	0	288.906	0	-1e10	8	-1e10	8	-1E+10	1	-1E+10	1	-1E+10	1	-1E+10	1	-1E+10	1	-1E+10	1
4902554	15	C	07/01/2021	00:07	-136.483	49.629	0	292.90	0	4.9100	0	33.8840	0	26.803	0	290.193	0	-1e10	8	-1e10	8	-1E+10	1	-1E+10	1	-1E+10	1	-1E+10	1	-1E+10	1	-1E+10	1
4902554	15	C	07/01/2021	00:07	-136.483	49.629	0	294.30	0	4.9090	0	33.8860	0	26.805	0	291.579	0	-1e10	8	-1e10	8	-1E+10	1	-1E+10	1	-1E+10	1	-1E+10	1	-1E+10	1	-1E+10	1
4902554	15	C	07/01/2021	00:07	-136.483	49.629	0	295.10	0	4.9050	0	33.8850	0	26.805	0	292.371	0	-1e10	8	-1e10	8	-1E+10	1	-1E+10	1	-1E+10	1	-1E+10	1	-1E+10	1	-1E+10	1
4902554	15	C	07/01/2021	00:07	-136.483	49.629	0	296.00	0	4.8920	0	33.8860	0	26.807	0	293.262	0	-1e10	8	-1e10	8	-1E+10	1	-1E+10	1	-1E+10	1	-1E+10	1	-1E+10	1	-1E+10	1
4902554	15	C	07/01/2021	00:07	-136.483	49.629	0	296.80	0	4.8820	0	33.8860	0	26.808	0	294.054	0	-1e10	8	-1e10	8	-1E+10	1	-1E+10	1	-1E+10	1	-1E+10	1	-1E+10	1	-1E+10	1
4902554	15	C	07/01/2021	00:07	-136.483	49.629	0	297.70	0	4.8990	0	33.8900	0	26.809	0	294.945	0	-1e10	8	-1e10	8	-1E+10	1	-1E+10	1	-1E+10	1	-1E+10	1	-1E+10	1	-1E+10	1
4902554	15	C	07/01/2021	00:07	-136.483	49.629	0	298.60	0	4.9000	0	33.8880	0	26.808	0	295.836	0	-1e10	8	-1e10	8	-1E+10	1	-1E+10	1	-1E+10	1	-1E+10	1	-1E+10	1	-1E+10	1
4902554	15	C	07/01/2021	00:07	-136.483	49.629	0	299.90	0	4.8900	0	33.8910	0	26.811	0	297.123	0	-1e10	8	-1e10	8	-1E+10	1	-1E+10	1	-1E+10	1	-1E+10	1	-1E+10	1	-1E+10	1
4902554	15	C	07/01/2021	00:07	-136.483	49.629	0	301.20	0	4.8740	0	33.8950	0	26.816	0	298.410	0	-1e10	8	-1e10	8	-1E+10	1	-1E+10	1	-1E+10	1	-1E+10	1	-1E+10	1	-1E+10	1
4902554	15	C	07/01/2021	00:07	-136.483	49.629	0	302.10	0	4.8640	0	33.8900	0	26.813	0	299.301	0	-1e10	8	-1e10	8	-1E+10	1	-1E+10	1	-1E+10	1	-1E+10	1	-1E+10	1	-1E+10	1
4902554	15	C	07/01/2021	00:07	-136.483	49.629	0	302.90	0	4.8630	0	33.8900	0	26.813	0	300.093	0	-1e10	8	-1e10	8	-1E+10	1	-1E+10	1	-1E+10	1	-1E+10	1	-1E+10	1	-1E+10	1
4902554	15	C	07/01/2021	00:07	-136.483	49.629	0	303.80	0	4.8460	0	33.8900	0	26.815	0	300.984	0	-1e10	8	-1e10	8	-1E+10	1	-1E+10	1	-1E+10	1	-1E+10	1	-1E+10	1	-1E+10	1
4902554	15	C	07/01/2021	00:07	-136.483	49.629	0	304.70	0	4.8430	0	33.8910	0	26.816	0	301.875	0	-1e10	8	-1e10	8	-1E+10	1	-1E+10	1	-1E+10	1	-1E+10	1	-1E+10	1	-1E+10	1
4902554	15	C	07/01/2021	00:07	-136.483	49.629	0	305.90	0	4.8350	0	33.8960	0	26.821	0	303.063	0	-1e10	8	-1e10	8	-1E+10	1	-1E+10	1	-1E+10	1	-1E+10	1	-1E+10	1	-1E+10	1
4902554	15	C	07/01/2021	00:07	-136.483	49.629	0	307.30	0	4.8330	0	33.8970	0	26.822	0	304.449	0	-1e10	8	-1e10	8	-1E+10	1	-1E+10	1	-1E+10	1	-1E+10	1	-1E+10	1	-1E+10	1
4902554	15	C	07/01/2021	00:07	-136.483	49.629	0	308.10	0	4.8270	0	33.9000	0	26.825	0	305.241	0	-1e10	8	-1e10	8	-1E+10	1	-1E+10	1	-1E+10	1	-1E+10	1	-1E+10	1	-1E+10	1
4902554	15	C	07/01/2021	00:07	-136.483	49.629	0	309.00	0	4.8200	0	33.9040	0	26.829	0	306.132	0	-1e10	8	-1e10	8	-1E+10	1	-1E+10	1	-1E+10	1	-1E+10	1	-1E+10	1	-1E+10	1
4902554	15	C	07/01/2021	00:07	-136.483	49.629	0	309.90	0	4.8180	0	33.9040	0	26.830	0	307.023	0	-1e10	8	-1e10	8	-1E+10	1	-1E+10	1	-1E+10	1	-1E+10	1	-1E+10	1	-1E+10	1
4902554	15	C	07/01/2021	00:07	-136.483	49.629	0	310.70	0	4.8200	0	33.9040	0	26.829	0	307.815	0	-1e10	8	-1e10	8	-1E+10	1	-1E+10	1	-1E+10	1	-1E+10	1	-1E+10	1	-1E+10	1
4902554	15	C	07/01/2021	00:07	-136.483	49.629	0	311.60	0	4.8200	0	33.9050	0	26.830	0	308.706	0	-1e10	8	-1e10	8	-1E+10	1	-1E+10	1	-1E+10	1	-1E+10	1	-1E+10	1	-1E+10	1
4902554	15	C	07/01/2021	00:07	-136.483	49.629	0	312.90	0	4.8180	0	33.9060	0	26.831	0	309.993	0	-1e10	8	-1e10	8	-1E+10	1	-1E+10	1	-1E+10	1	-1E+10	1	-1E+10	1	-1E+10	1
4902554	15	C	07/01/2021	00:07	-136.483	49.629	0	314.20	0	4.8210	0	33.9070	0	26.832	0	311.280	0	-1e10	8	-1e10	8	-1E+10	1	-1E+10	1	-1E+10	1	-1E+10	1	-1E+10	1	-1E+10	1
4902554	15	C	07/01/2021	00:07	-136.483	49.629	0	315.00	0	4.7970	0	33.9110	0	26.838	0	312.072	0	-1e10	8	-1e10	8	-1E+10	1	-1E+10	1	-1E+10	1	-1E+10	1	-1E+10	1	-1E+10	1
4902554	15	C	07/01/2021	00:07	-136.483	49.629	0	315.90	0	4.7890	0	33.9110	0	26.838	0	312.963	0	-1e10	8	-1e10	8	-1E+10	1	-1E+10	1	-1E+10	1	-1E+10	1	-1E+10	1	-1E+10	1
4902554	15	C	07/01/2021	00:07	-136.483	49.629	0	316.80	0	4.7850	0	33.9120	0	26.840	0	313.854	0	-1e10	8	-1e10	8	-1E+10	1	-1E+10	1	-1E+10	1	-1E+10	1	-1E+10	1	-1E+10	1
4902554	15	C	07/01/2021	00:07	-136.483	49.629	0	317.60	0	4.7820	0	33.9120	0	26.840	0	314.646	0	-1e10	8	-1e10	8	-1E+10	1	-1E+10	1	-1E+10	1	-1E+10	1	-1E+10	1	-1E+10	1
4902554	15	C	07/01/2021	00:07	-136.483	49.629	0	318.90	0	4.7770	0	33.9100	0	26.839	0	315.933	0	-1e10	8	-1e10	8	-1E+10	1	-1E+10	1	-1E+10	1	-1E+10	1	-1E+10	1	-1E+10	1
4902554	15	C	07/01/2021	00:07	-136.483	49.629	0	320.20	0	4.7650	0	33.9100	0	26.840	0	317.220	0	-1e10	8	-1e10	8	-1E+10	1	-1E+10	1	-1E+10	1	-1E+10	1	-1E+10	1	-1E+10	1
4902554	15	C	07/01/2021	00:07	-136.483	49.629	0	321.00	0	4.7500	0	33.9110	0	26.843	0	318.012	0	-1e10	8	-1e10	8	-1E+10	1	-1E+10	1	-1E+10	1	-1E+10	1	-1E+10	1	-1E+10	1
4902554	15	C	07/01/2021	00:07	-136.483	49.629	0	321.90	0	4.7180	0	33.9160	0	26.850	0	318.903	0	-1e10	8	-1e10	8	-1E+10	1	-1E+10	1	-1E+10	1	-1E+10	1	-1E+10	1	-1E+10	1
4902554	15	C	07/01/2021	00:07	-136.483	49.629	0	322.70	0	4.7100	0	33.9080	0	26.845	0	319.695	0	-1e10	8	-1e10	8	-1E+10	1	-1E+10	1	-1E+10	1	-1E+10	1	-1E+10	1	-1E+10	1
4902554	15	C	07/01/2021	00:07	-136.483	49.629	0	323.90	0	4.7060	0	33.9080	0	26.845	0	320.883	0	-1e10	8	-1e10	8	-1E+10	1	-1E+10	1	-1E+10	1	-1E+10	1	-1E+10	1	-1E+10	1
4902554	15	C	07/01/2021	00:07	-136.483	49.629	0	325.20	0	4.7060	0	33.9080	0	26.845	0	322.170	0	-1e10	8	-1e10	8	-1E+10	1	-1E+10	1	-1E+10	1	-1E+10	1	-1E+10	1	-1E+10	1
4902554	15	C	07/01/2021	00:07	-136.483	49.629	0	326.10	0	4.6970	0	33.9090	0	26.847	0	323.060	0	-1e10	8	-1e10	8	-1E+10	1	-1E+10	1	-1E+10	1	-1E+10	1	-1E+10	1	-1E+10	1
4902554	15	C	07/01/2021	00:07	-136.483	49.629	0	326.90	0	4.7200	0	33.9120	0	26.847	0	323.852	0	-1e10	8	-1e10	8	-1E+10	1	-1E+10	1	-1E+10	1	-1E+10	1	-1E+10	1	-1E+10	1
4902554	15	C	07/01/2021	00:07	-136.483	49.629	0	327.80	0	4.6880	0	33.9140	0	26.852	0	324.743	0	-1e10	8	-1e10	8	-1E+10	1	-1E+10	1	-1E+10	1	-1E+10	1	-1E+10	1	-1E+10	1
4902554	15	C	07/01/2021	00:07	-136.483	49.629	0	328.60	0	4.6720	0	33.9090	0	26.850	0	325.535	0	-1e10	8	-1e10	8	-1E+10	1	-1E+10	1	-1E+10	1	-1E+10	1	-1E+10	1	-1E+10	1
4902554	15	C	07/01/2021	00:07	-136.483	49.629	0	329.90	0	4.6780	0	33.9120	0	26.852	0	326.822	0	-1e10	8	-1e10	8	-1E+10	1	-1E+10	1	-1E+10	1	-1E+10	1	-1E+10	1	-1E+10	1
4902554	15	C	07/01/2021	00:07	-136.483	49.629	0	331.20	0	4.6800	0	33.9150	0	26.854	0	328.109	0	-1e10	8	-1e10	8	-1E+10	1	-1E+10	1	-1E+10	1	-1E+10	1	-1E+10	1	-1E+10	1
4902554	15	C	07/01/2021	00:07	-136.483	49.629	0	332.00	0	4.6780	0	33.9150	0	26.854	0	328.901	0	-1e10	8	-1e10	8	-1E+10	1	-1E+10	1	-1E+10	1	-1E+10	1	-1E+10	1	-1E+10	1
4902554	15	C	07/01/2021	00:07	-136.483	49.629	0	332.80	0	4.6870	0	33.9170	0	26.855	0	329.693	0	-1e10	8	-1e10	8	-1E+10	1	-1E+10	1	-1E+10	1	-1E+10	1	-1E+10	1	-1E+10	1
4902554	15	C	07/01/2021	00:07	-136.483	49.629	0	333.70	0	4.6930	0	33.9200	0	26.856	0	330.584	0	-1e10	8	-1e10	8	-1E+10	1	-1E+10	1	-1E+10	1	-1E+10	1	-1E+10	1	-1E+10	1
4902554	15	C	07/01/2021	00:07	-136.483	49.629	0	334.90	0	4.6950	0	33.9240	0	26.859	0	331.771	0	-1e10	8	-1e10	8	-1E+10	1	-1E+10	1	-1E+10	1	-1E+10	1	-1E+10	1	-1E+10	1
4902554	15	C	07/01/2021	00:07	-136.483	49.629	0	336.20	0	4.6910	0	33.9280	0	26.863	0	333.058	0	-1e10	8	-1e10	8	-1E+10	1	-1E+10	1	-1E+10	1	-1E+10	1	-1E+10	1	-1E+10	1
4902554	15	C	07/01/2021	00:07	-136.483	49.629	0	337.00	0	4.6790	0	33.9290	0	26.865	0	333.850	0	-1e10	8	-1e10	8	-1E+10	1	-1E+10	1	-1E+10	1	-1E+10	1	-1E+10	1	-1E+10	1
4902554	15	C	07/01/2021	00:07	-136.483	49.629	0	337.80	0	4.6740	0	33.9300	0	26.866	0	334.642	0	-1e10	8	-1e10	8	-1E+10	1	-1E+10	1	-1E+10	1	-1E+10	1	-1E+10	1	-1E+10	1
4902554	15	C	07/01/2021	00:07	-136.483	49.629	0	338.70	0	4.6900	0	33.9280	0	26.863	0	335.533	0	-1e10	8	-1e10	8	-1E+10	1	-1E+10	1	-1E+10	1	-1E+10	1	-1E+10	1	-1E+10	1
4902554	15	C	07/01/2021	00:07	-136.483	49.629	0	340.00	0	4.6930	0	33.9340	0	26.867	0	336.820	0	-1e10	8	-1e10	8	-1E+10	1	-1E+10	1	-1E+10	1	-1E+10	1	-1E+10	1	-1E+10	1
4902554	15	C	07/01/2021	00:07	-136.483	49.629	0	341.20	0	4.6980	0	33.9340	0	26.867	0	338.007	0	-1e10	8	-1e10	8	-1E+10	1	-1E+10	1	-1E+10	1	-1E+10	1	-1E+10	1	-1E+10	1
4902554	15	C	07/01/2021	00:07	-136.483	49.629	0	342.10	0	4.7050	0	33.9340	0	26.866	0	338.898	0	-1e10	8	-1e10	8	-1E+10	1	-1E+10	1	-1E+10	1	-1E+10	1	-1E+10	1	-1E+10	1
4902554	15	C	07/01/2021	00:07	-136.483	49.629	0	342.90	0	4.7040	0	33.9350	0	26.867	0	339.690	0	-1e10	8	-1e10	8	-1E+10	1	-1E+10	1	-1E+10	1	-1E+10	1	-1E+10	1	-1E+10	1
4902554	15	C	07/01/2021	00:07	-136.483	49.629	0	343.70	0	4.7050	0	33.9340	0	26.866	0	340.482	0	-1e10	8	-1e10	8	-1E+10	1	-1E+10	1	-1E+10	1	-1E+10	1	-1E+10	1	-1E+10	1
4902554	15	C	07/01/2021	00:07	-136.483	49.629	0	345.00	0	4.6790	0	33.9360	0	26.871	0	341.769	0	-1e10	8	-1e10	8	-1E+10	1	-1E+10	1	-1E+10	1	-1E+10	1	-1E+10	1	-1E+10	1
4902554	15	C	07/01/2021	00:07	-136.483	49.629	0	346.30	0	4.6830	0	33.9400	0	26.873	0	343.055	0	-1e10	8	-1e10	8	-1E+10	1	-1E+10	1	-1E+10	1	-1E+10	1	-1E+10	1	-1E+10	1
4902554	15	C	07/01/2021	00:07	-136.483	49.629	0	347.10	0	4.6900	0	33.9410	0	26.873	0	343.847	0	-1e10	8	-1e10	8	-1E+10	1	-1E+10	1	-1E+10	1	-1E+10	1	-1E+10	1	-1E+10	1
4902554	15	C	07/01/2021	00:07	-136.483	49.629	0	347.90	0	4.6900	0	33.9410	0	26.873	0	344.639	0	-1e10	8	-1e10	8	-1E+10	1	-1E+10	1	-1E+10	1	-1E+10	1	-1E+10	1	-1E+10	1
4902554	15	C	07/01/2021	00:07	-136.483	49.629	0	348.80	0	4.6890	0	33.9410	0	26.874	0	345.530	0	-1e10	8	-1e10	8	-1E+10	1	-1E+10	1	-1E+10	1	-1E+10	1	-1E+10	1	-1E+10	1
4902554	15	C	07/01/2021	00:07	-136.483	49.629	0	349.60	0	4.6800	0	33.9440	0	26.877	0	346.322	0	-1e10	8	-1e10	8	-1E+10	1	-1E+10	1	-1E+10	1	-1E+10	1	-1E+10	1	-1E+10	1
4902554	15	C	07/01/2021	00:07	-136.483	49.629	0	352.60	0	4.6590	0	33.9470	0	26.882	0	349.291	0	-1e10	8	-1e10	8	-1E+10	1	-1E+10	1	-1E+10	1	-1E+10	1	-1E+10	1	-1E+10	1
4902554	15	C	07/01/2021	00:07	-136.483	49.629	0	357.80	0	4.6530	0	33.9560	0	26.889	0	354.438	0	-1e10	8	-1e10	8	-1E+10	1	-1E+10	1	-1E+10	1	-1E+10	1	-1E+10	1	-1E+10	1
4902554	15	C	07/01/2021	00:07	-136.483	49.629	0	363.10	0	4.6280	0	33.9620	0	26.897	0	359.683	0	-1e10	8	-1e10	8	-1E+10	1	-1E+10	1	-1E+10	1	-1E+10	1	-1E+10	1	-1E+10	1
4902554	15	C	07/01/2021	00:07	-136.483	49.629	0	368.00	0	4.5910	0	33.9680	0	26.906	0	364.533	0	-1e10	8	-1e10	8	-1E+10	1	-1E+10	1	-1E+10	1	-1E+10	1	-1E+10	1	-1E+10	1
4902554	15	C	07/01/2021	00:07	-136.483	49.629	0	372.90	0	4.5610	0	33.9710	0	26.912	0	369.382	0	-1e10	8	-1e10	8	-1E+10	1	-1E+10	1	-1E+10	1	-1E+10	1	-1E+10	1	-1E+10	1
4902554	15	C	07/01/2021	00:07	-136.483	49.629	0	377.90	0	4.5450	0	33.9750	0	26.916	0	374.331	0	-1e10	8	-1e10	8	-1E+10	1	-1E+10	1	-1E+10	1	-1E+10	1	-1E+10	1	-1E+10	1
4902554	15	C	07/01/2021	00:07	-136.483	49.629	0	382.90	0	4.5330	0	33.9770	0	26.919	0	379.279	0	-1e10	8	-1e10	8	-1E+10	1	-1E+10	1	-1E+10	1	-1E+10	1	-1E+10	1	-1E+10	1
4902554	15	C	07/01/2021	00:07	-136.483	49.629	0	387.80	0	4.5330	0	33.9810	0	26.923	0	384.128	0	-1e10	8	-1e10	8	-1E+10	1	-1E+10	1	-1E+10	1	-1E+10	1	-1E+10	1	-1E+10	1
4902554	15	C	07/01/2021	00:07	-136.483	49.629	0	392.80	0	4.5270	0	33.9840	0	26.926	0	389.076	0	-1e10	8	-1e10	8	-1E+10	1	-1E+10	1	-1E+10	1	-1E+10	1	-1E+10	1	-1E+10	1
4902554	15	C	07/01/2021	00:07	-136.483	49.629	0	398.00	0	4.5050	0	33.9890	0	26.932	0	394.222	0	-1e10	8	-1e10	8	-1E+10	1	-1E+10	1	-1E+10	1	-1E+10	1	-1E+10	1	-1E+10	1
4902554	15	C	07/01/2021	00:07	-136.483	49.629	0	402.80	0	4.4830	0	33.9920	0	26.937	0	398.972	0	-1e10	8	-1e10	8	-1E+10	1	-1E+10	1	-1E+10	1	-1E+10	1	-1E+10	1	-1E+10	1
4902554	15	C	07/01/2021	00:07	-136.483	49.629	0	407.60	0	4.4070	0	33.9920	0	26.945	0	403.721	0	-1e10	8	-1e10	8	-1E+10	1	-1E+10	1	-1E+10	1	-1E+10	1	-1E+10	1	-1E+10	1
4902554	15	C	07/01/2021	00:07	-136.483	49.629	0	412.60	0	4.3710	0	33.9990	0	26.954	0	408.669	0	-1e10	8	-1e10	8	-1E+10	1	-1E+10	1	-1E+10	1	-1E+10	1	-1E+10	1	-1E+10	1
4902554	15	C	07/01/2021	00:07	-136.483	49.629	0	417.60	0	4.3730	0	34.0050	0	26.959	0	413.616	0	-1e10	8	-1e10	8	-1E+10	1	-1E+10	1	-1E+10	1	-1E+10	1	-1E+10	1	-1E+10	1
4902554	15	C	07/01/2021	00:07	-136.483	49.629	0	422.80	0	4.3600	0	34.0120	0	26.966	0	418.761	0	-1e10	8	-1e10	8	-1E+10	1	-1E+10	1	-1E+10	1	-1E+10	1	-1E+10	1	-1E+10	1
4902554	15	C	07/01/2021	00:07	-136.483	49.629	0	428.00	0	4.3490	0	34.0210	0	26.974	0	423.906	0	-1e10	8	-1e10	8	-1E+10	1	-1E+10	1	-1E+10	1	-1E+10	1	-1E+10	1	-1E+10	1
4902554	15	C	07/01/2021	00:07	-136.483	49.629	0	432.80	0	4.3420	0	34.0260	0	26.979	0	428.656	0	-1e10	8	-1e10	8	-1E+10	1	-1E+10	1	-1E+10	1	-1E+10	1	-1E+10	1	-1E+10	1
4902554	15	C	07/01/2021	00:07	-136.483	49.629	0	437.80	0	4.3250	0	34.0330	0	26.987	0	433.602	0	-1e10	8	-1e10	8	-1E+10	1	-1E+10	1	-1E+10	1	-1E+10	1	-1E+10	1	-1E+10	1
4902554	15	C	07/01/2021	00:07	-136.483	49.629	0	442.70	0	4.2990	0	34.0370	0	26.992	0	438.450	0	-1e10	8	-1e10	8	-1E+10	1	-1E+10	1	-1E+10	1	-1E+10	1	-1E+10	1	-1E+10	1
4902554	15	C	07/01/2021	00:07	-136.483	49.629	0	447.70	0	4.2830	0	34.0410	0	26.997	0	443.397	0	-1e10	8	-1e10	8	-1E+10	1	-1E+10	1	-1E+10	1	-1E+10	1	-1E+10	1	-1E+10	1
4902554	15	C	07/01/2021	00:07	-136.483	49.629	0	452.60	0	4.2500	0	34.0420	0	27.002	0	448.245	0	-1e10	8	-1e10	8	-1E+10	1	-1E+10	1	-1E+10	1	-1E+10	1	-1E+10	1	-1E+10	1
4902554	15	C	07/01/2021	00:07	-136.483	49.629	0	457.70	0	4.2360	0	34.0440	0	27.005	0	453.290	0	-1e10	8	-1e10	8	-1E+10	1	-1E+10	1	-1E+10	1	-1E+10	1	-1E+10	1	-1E+10	1
4902554	15	C	07/01/2021	00:07	-136.483	49.629	0	462.80	0	4.2170	0	34.0480	0	27.010	0	458.335	0	-1e10	8	-1e10	8	-1E+10	1	-1E+10	1	-1E+10	1	-1E+10	1	-1E+10	1	-1E+10	1
4902554	15	C	07/01/2021	00:07	-136.483	49.629	0	467.90	0	4.2100	0	34.0490	0	27.012	0	463.380	0	-1e10	8	-1e10	8	-1E+10	1	-1E+10	1	-1E+10	1	-1E+10	1	-1E+10	1	-1E+10	1
4902554	15	C	07/01/2021	00:07	-136.483	49.629	0	473.00	0	4.1970	0	34.0510	0	27.015	0	468.425	0	-1e10	8	-1e10	8	-1E+10	1	-1E+10	1	-1E+10	1	-1E+10	1	-1E+10	1	-1E+10	1
4902554	15	C	07/01/2021	00:07	-136.483	49.629	0	478.10	0	4.1890	0	34.0570	0	27.020	0	473.470	0	-1e10	8	-1e10	8	-1E+10	1	-1E+10	1	-1E+10	1	-1E+10	1	-1E+10	1	-1E+10	1
4902554	15	C	07/01/2021	00:07	-136.483	49.629	0	483.20	0	4.1660	0	34.0620	0	27.027	0	478.515	0	-1e10	8	-1e10	8	-1E+10	1	-1E+10	1	-1E+10	1	-1E+10	1	-1E+10	1	-1E+10	1
4902554	15	C	07/01/2021	00:07	-136.483	49.629	0	488.20	0	4.1490	0	34.0670	0	27.032	0	483.461	0	-1e10	8	-1e10	8	-1E+10	1	-1E+10	1	-1E+10	1	-1E+10	1	-1E+10	1	-1E+10	1
4902554	15	C	07/01/2021	00:07	-136.483	49.629	0	493.20	0	4.1290	0	34.0710	0	27.038	0	488.406	0	-1e10	8	-1e10	8	-1E+10	1	-1E+10	1	-1E+10	1	-1E+10	1	-1E+10	1	-1E+10	1
4902554	15	C	07/01/2021	00:07	-136.483	49.629	0	498.20	0	4.1210	0	34.0750	0	27.042	0	493.352	0	-1e10	8	-1e10	8	-1E+10	1	-1E+10	1	-1E+10	1	-1E+10	1	-1E+10	1	-1E+10	1
4902554	15	C	07/01/2021	00:07	-136.483	49.629	0	502.80	0	4.1130	0	34.0790	0	27.046	0	497.901	0	-1e10	8	-1e10	8	-1E+10	1	-1E+10	1	-1E+10	1	-1E+10	1	-1E+10	1	-1E+10	1
4902554	15	C	07/01/2021	00:07	-136.483	49.629	0	507.60	0	4.1110	0	34.0810	0	27.048	0	502.649	0	-1e10	8	-1e10	8	-1E+10	1	-1E+10	1	-1E+10	1	-1E+10	1	-1E+10	1	-1E+10	1
4902554	15	C	07/01/2021	00:07	-136.483	49.629	0	512.60	0	4.1040	0	34.0850	0	27.051	0	507.594	0	-1e10	8	-1e10	8	-1E+10	1	-1E+10	1	-1E+10	1	-1E+10	1	-1E+10	1	-1E+10	1
4902554	15	C	07/01/2021	00:07	-136.483	49.629	0	517.70	0	4.0890	0	34.0910	0	27.058	0	512.638	0	-1e10	8	-1e10	8	-1E+10	1	-1E+10	1	-1E+10	1	-1E+10	1	-1E+10	1	-1E+10	1
4902554	15	C	07/01/2021	00:07	-136.483	49.629	0	522.80	0	4.0840	0	34.0950	0	27.062	0	517.682	0	-1e10	8	-1e10	8	-1E+10	1	-1E+10	1	-1E+10	1	-1E+10	1	-1E+10	1	-1E+10	1
4902554	15	C	07/01/2021	00:07	-136.483	49.629	0	527.90	0	4.0790	0	34.1000	0	27.066	0	522.725	0	-1e10	8	-1e10	8	-1E+10	1	-1E+10	1	-1E+10	1	-1E+10	1	-1E+10	1	-1E+10	1
4902554	15	C	07/01/2021	00:07	-136.483	49.629	0	533.10	0	4.0580	0	34.1030	0	27.071	0	527.868	0	-1e10	8	-1e10	8	-1E+10	1	-1E+10	1	-1E+10	1	-1E+10	1	-1E+10	1	-1E+10	1
4902554	15	C	07/01/2021	00:07	-136.483	49.629	0	537.90	0	4.0420	0	34.1060	0	27.075	0	532.615	0	-1e10	8	-1e10	8	-1E+10	1	-1E+10	1	-1E+10	1	-1E+10	1	-1E+10	1	-1E+10	1
4902554	15	C	07/01/2021	00:07	-136.483	49.629	0	542.70	0	4.0420	0	34.1100	0	27.078	0	537.361	0	-1e10	8	-1e10	8	-1E+10	1	-1E+10	1	-1E+10	1	-1E+10	1	-1E+10	1	-1E+10	1
4902554	15	C	07/01/2021	00:07	-136.483	49.629	0	547.90	0	4.0220	0	34.1150	0	27.084	0	542.503	0	-1e10	8	-1e10	8	-1E+10	1	-1E+10	1	-1E+10	1	-1E+10	1	-1E+10	1	-1E+10	1
4902554	15	C	07/01/2021	00:07	-136.483	49.629	0	552.90	0	4.0080	0	34.1190	0	27.089	0	547.447	0	-1e10	8	-1e10	8	-1E+10	1	-1E+10	1	-1E+10	1	-1E+10	1	-1E+10	1	-1E+10	1
4902554	15	C	07/01/2021	00:07	-136.483	49.629	0	557.80	0	3.9980	0	34.1240	0	27.094	0	552.293	0	-1e10	8	-1e10	8	-1E+10	1	-1E+10	1	-1E+10	1	-1E+10	1	-1E+10	1	-1E+10	1
4902554	15	C	07/01/2021	00:07	-136.483	49.629	0	562.80	0	3.9840	0	34.1270	0	27.098	0	557.236	0	-1e10	8	-1e10	8	-1E+10	1	-1E+10	1	-1E+10	1	-1E+10	1	-1E+10	1	-1E+10	1
4902554	15	C	07/01/2021	00:07	-136.483	49.629	0	567.70	0	3.9760	0	34.1320	0	27.102	0	562.081	0	-1e10	8	-1e10	8	-1E+10	1	-1E+10	1	-1E+10	1	-1E+10	1	-1E+10	1	-1E+10	1
4902554	15	C	07/01/2021	00:07	-136.483	49.629	0	573.00	0	3.9650	0	34.1360	0	27.107	0	567.322	0	-1e10	8	-1e10	8	-1E+10	1	-1E+10	1	-1E+10	1	-1E+10	1	-1E+10	1	-1E+10	1
4902554	15	C	07/01/2021	00:07	-136.483	49.629	0	577.90	0	3.9570	0	34.1380	0	27.109	0	572.166	0	-1e10	8	-1e10	8	-1E+10	1	-1E+10	1	-1E+10	1	-1E+10	1	-1E+10	1	-1E+10	1
4902554	15	C	07/01/2021	00:07	-136.483	49.629	0	582.80	0	3.9500	0	34.1450	0	27.115	0	577.011	0	-1e10	8	-1e10	8	-1E+10	1	-1E+10	1	-1E+10	1	-1E+10	1	-1E+10	1	-1E+10	1
4902554	15	C	07/01/2021	00:07	-136.483	49.629	0	588.10	0	3.9380	0	34.1500	0	27.121	0	582.251	0	-1e10	8	-1e10	8	-1E+10	1	-1E+10	1	-1E+10	1	-1E+10	1	-1E+10	1	-1E+10	1
4902554	15	C	07/01/2021	00:07	-136.483	49.629	0	593.00	0	3.9230	0	34.1530	0	27.125	0	587.095	0	-1e10	8	-1e10	8	-1E+10	1	-1E+10	1	-1E+10	1	-1E+10	1	-1E+10	1	-1E+10	1
4902554	15	C	07/01/2021	00:07	-136.483	49.629	0	597.90	0	3.9210	0	34.1560	0	27.127	0	591.940	0	-1e10	8	-1e10	8	-1E+10	1	-1E+10	1	-1E+10	1	-1E+10	1	-1E+10	1	-1E+10	1
4902554	15	C	07/01/2021	00:07	-136.483	49.629	0	603.00	0	3.9160	0	34.1570	0	27.129	0	596.981	0	-1e10	8	-1e10	8	-1E+10	1	-1E+10	1	-1E+10	1	-1E+10	1	-1E+10	1	-1E+10	1
4902554	15	C	07/01/2021	00:07	-136.483	49.629	0	607.60	0	3.9030	0	34.1620	0	27.134	0	601.529	0	-1e10	8	-1e10	8	-1E+10	1	-1E+10	1	-1E+10	1	-1E+10	1	-1E+10	1	-1E+10	1
4902554	15	C	07/01/2021	00:07	-136.483	49.629	0	612.80	0	3.8980	0	34.1640	0	27.136	0	606.669	0	-1e10	8	-1e10	8	-1E+10	1	-1E+10	1	-1E+10	1	-1E+10	1	-1E+10	1	-1E+10	1
4902554	15	C	07/01/2021	00:07	-136.483	49.629	0	618.10	0	3.8880	0	34.1690	0	27.141	0	611.909	0	-1e10	8	-1e10	8	-1E+10	1	-1E+10	1	-1E+10	1	-1E+10	1	-1E+10	1	-1E+10	1
4902554	15	C	07/01/2021	00:07	-136.483	49.629	0	622.90	0	3.8790	0	34.1730	0	27.145	0	616.653	0	-1e10	8	-1e10	8	-1E+10	1	-1E+10	1	-1E+10	1	-1E+10	1	-1E+10	1	-1E+10	1
4902554	15	C	07/01/2021	00:07	-136.483	49.629	0	627.70	0	3.8710	0	34.1770	0	27.149	0	621.398	0	-1e10	8	-1e10	8	-1E+10	1	-1E+10	1	-1E+10	1	-1E+10	1	-1E+10	1	-1E+10	1
4902554	15	C	07/01/2021	00:07	-136.483	49.629	0	632.60	0	3.8570	0	34.1800	0	27.153	0	626.241	0	-1e10	8	-1e10	8	-1E+10	1	-1E+10	1	-1E+10	1	-1E+10	1	-1E+10	1	-1E+10	1
4902554	15	C	07/01/2021	00:07	-136.483	49.629	0	638.00	0	3.8440	0	34.1860	0	27.159	0	631.579	0	-1e10	8	-1e10	8	-1E+10	1	-1E+10	1	-1E+10	1	-1E+10	1	-1E+10	1	-1E+10	1
4902554	15	C	07/01/2021	00:07	-136.483	49.629	0	643.30	0	3.8340	0	34.1900	0	27.163	0	636.818	0	-1e10	8	-1e10	8	-1E+10	1	-1E+10	1	-1E+10	1	-1E+10	1	-1E+10	1	-1E+10	1
4902554	15	C	07/01/2021	00:07	-136.483	49.629	0	648.20	0	3.8200	0	34.1930	0	27.167	0	641.661	0	-1e10	8	-1e10	8	-1E+10	1	-1E+10	1	-1E+10	1	-1E+10	1	-1E+10	1	-1E+10	1
4902554	15	C	07/01/2021	00:07	-136.483	49.629	0	653.20	0	3.8110	0	34.1960	0	27.171	0	646.603	0	-1e10	8	-1e10	8	-1E+10	1	-1E+10	1	-1E+10	1	-1E+10	1	-1E+10	1	-1E+10	1
4902554	15	C	07/01/2021	00:07	-136.483	49.629	0	658.10	0	3.8050	0	34.2000	0	27.174	0	651.445	0	-1e10	8	-1e10	8	-1E+10	1	-1E+10	1	-1E+10	1	-1E+10	1	-1E+10	1	-1E+10	1
4902554	15	C	07/01/2021	00:07	-136.483	49.629	0	662.80	0	3.8020	0	34.2010	0	27.175	0	656.090	0	-1e10	8	-1e10	8	-1E+10	1	-1E+10	1	-1E+10	1	-1E+10	1	-1E+10	1	-1E+10	1
4902554	15	C	07/01/2021	00:07	-136.483	49.629	0	667.70	0	3.7950	0	34.2030	0	27.178	0	660.933	0	-1e10	8	-1e10	8	-1E+10	1	-1E+10	1	-1E+10	1	-1E+10	1	-1E+10	1	-1E+10	1
4902554	15	C	07/01/2021	00:07	-136.483	49.629	0	672.90	0	3.7840	0	34.2050	0	27.181	0	666.072	0	-1e10	8	-1e10	8	-1E+10	1	-1E+10	1	-1E+10	1	-1E+10	1	-1E+10	1	-1E+10	1
4902554	15	C	07/01/2021	00:07	-136.483	49.629	0	677.70	0	3.7690	0	34.2090	0	27.185	0	670.816	0	-1e10	8	-1e10	8	-1E+10	1	-1E+10	1	-1E+10	1	-1E+10	1	-1E+10	1	-1E+10	1
4902554	15	C	07/01/2021	00:07	-136.483	49.629	0	682.60	0	3.7610	0	34.2120	0	27.188	0	675.658	0	-1e10	8	-1e10	8	-1E+10	1	-1E+10	1	-1E+10	1	-1E+10	1	-1E+10	1	-1E+10	1
4902554	15	C	07/01/2021	00:07	-136.483	49.629	0	687.60	0	3.7550	0	34.2150	0	27.191	0	680.599	0	-1e10	8	-1e10	8	-1E+10	1	-1E+10	1	-1E+10	1	-1E+10	1	-1E+10	1	-1E+10	1
4902554	15	C	07/01/2021	00:07	-136.483	49.629	0	692.70	0	3.7530	0	34.2160	0	27.192	0	685.639	0	-1e10	8	-1e10	8	-1E+10	1	-1E+10	1	-1E+10	1	-1E+10	1	-1E+10	1	-1E+10	1
4902554	15	C	07/01/2021	00:07	-136.483	49.629	0	697.90	0	3.7470	0	34.2190	0	27.196	0	690.777	0	-1e10	8	-1e10	8	-1E+10	1	-1E+10	1	-1E+10	1	-1E+10	1	-1E+10	1	-1E+10	1
4902554	15	C	07/01/2021	00:07	-136.483	49.629	0	703.10	0	3.7320	0	34.2220	0	27.199	0	695.915	0	-1e10	8	-1e10	8	-1E+10	1	-1E+10	1	-1E+10	1	-1E+10	1	-1E+10	1	-1E+10	1
4902554	15	C	07/01/2021	00:07	-136.483	49.629	0	708.10	0	3.7200	0	34.2250	0	27.203	0	700.856	0	-1e10	8	-1e10	8	-1E+10	1	-1E+10	1	-1E+10	1	-1E+10	1	-1E+10	1	-1E+10	1
4902554	15	C	07/01/2021	00:07	-136.483	49.629	0	713.00	0	3.7040	0	34.2290	0	27.208	0	705.697	0	-1e10	8	-1e10	8	-1E+10	1	-1E+10	1	-1E+10	1	-1E+10	1	-1E+10	1	-1E+10	1
4902554	15	C	07/01/2021	00:07	-136.483	49.629	0	718.00	0	3.6980	0	34.2300	0	27.209	0	710.638	0	-1e10	8	-1e10	8	-1E+10	1	-1E+10	1	-1E+10	1	-1E+10	1	-1E+10	1	-1E+10	1
4902554	15	C	07/01/2021	00:07	-136.483	49.629	0	722.60	0	3.6880	0	34.2330	0	27.213	0	715.183	0	-1e10	8	-1e10	8	-1E+10	1	-1E+10	1	-1E+10	1	-1E+10	1	-1E+10	1	-1E+10	1
4902554	15	C	07/01/2021	00:07	-136.483	49.629	0	727.70	0	3.6740	0	34.2370	0	27.217	0	720.221	0	-1e10	8	-1e10	8	-1E+10	1	-1E+10	1	-1E+10	1	-1E+10	1	-1E+10	1	-1E+10	1
4902554	15	C	07/01/2021	00:07	-136.483	49.629	0	732.80	0	3.6560	0	34.2400	0	27.221	0	725.260	0	-1e10	8	-1e10	8	-1E+10	1	-1E+10	1	-1E+10	1	-1E+10	1	-1E+10	1	-1E+10	1
4902554	15	C	07/01/2021	00:07	-136.483	49.629	0	738.00	0	3.6330	0	34.2450	0	27.228	0	730.398	0	-1e10	8	-1e10	8	-1E+10	1	-1E+10	1	-1E+10	1	-1E+10	1	-1E+10	1	-1E+10	1
4902554	15	C	07/01/2021	00:07	-136.483	49.629	0	743.20	0	3.6110	0	34.2490	0	27.233	0	735.535	0	-1e10	8	-1e10	8	-1E+10	1	-1E+10	1	-1E+10	1	-1E+10	1	-1E+10	1	-1E+10	1
4902554	15	C	07/01/2021	00:07	-136.483	49.629	0	747.90	0	3.5990	0	34.2520	0	27.237	0	740.178	0	-1e10	8	-1e10	8	-1E+10	1	-1E+10	1	-1E+10	1	-1E+10	1	-1E+10	1	-1E+10	1
4902554	15	C	07/01/2021	00:07	-136.483	49.629	0	753.10	0	3.5820	0	34.2550	0	27.241	0	745.315	0	-1e10	8	-1e10	8	-1E+10	1	-1E+10	1	-1E+10	1	-1E+10	1	-1E+10	1	-1E+10	1
4902554	15	C	07/01/2021	00:07	-136.483	49.629	0	758.20	0	3.5690	0	34.2580	0	27.244	0	750.353	0	-1e10	8	-1e10	8	-1E+10	1	-1E+10	1	-1E+10	1	-1E+10	1	-1E+10	1	-1E+10	1
4902554	15	C	07/01/2021	00:07	-136.483	49.629	0	762.90	0	3.5530	0	34.2620	0	27.249	0	754.996	0	-1e10	8	-1e10	8	-1E+10	1	-1E+10	1	-1E+10	1	-1E+10	1	-1E+10	1	-1E+10	1
4902554	15	C	07/01/2021	00:07	-136.483	49.629	0	768.00	0	3.5430	0	34.2640	0	27.252	0	760.034	0	-1e10	8	-1e10	8	-1E+10	1	-1E+10	1	-1E+10	1	-1E+10	1	-1E+10	1	-1E+10	1
4902554	15	C	07/01/2021	00:07	-136.483	49.629	0	773.20	0	3.5310	0	34.2670	0	27.255	0	765.170	0	-1e10	8	-1e10	8	-1E+10	1	-1E+10	1	-1E+10	1	-1E+10	1	-1E+10	1	-1E+10	1
4902554	15	C	07/01/2021	00:07	-136.483	49.629	0	777.90	0	3.5210	0	34.2690	0	27.258	0	769.813	0	-1e10	8	-1e10	8	-1E+10	1	-1E+10	1	-1E+10	1	-1E+10	1	-1E+10	1	-1E+10	1
4902554	15	C	07/01/2021	00:07	-136.483	49.629	0	782.60	0	3.5190	0	34.2710	0	27.260	0	774.455	0	-1e10	8	-1e10	8	-1E+10	1	-1E+10	1	-1E+10	1	-1E+10	1	-1E+10	1	-1E+10	1
4902554	15	C	07/01/2021	00:07	-136.483	49.629	0	787.80	0	3.5100	0	34.2740	0	27.263	0	779.592	0	-1e10	8	-1e10	8	-1E+10	1	-1E+10	1	-1E+10	1	-1E+10	1	-1E+10	1	-1E+10	1
4902554	15	C	07/01/2021	00:07	-136.483	49.629	0	793.00	0	3.5020	0	34.2760	0	27.265	0	784.728	0	-1e10	8	-1e10	8	-1E+10	1	-1E+10	1	-1E+10	1	-1E+10	1	-1E+10	1	-1E+10	1
4902554	15	C	07/01/2021	00:07	-136.483	49.629	0	797.70	0	3.4920	0	34.2780	0	27.268	0	789.370	0	-1e10	8	-1e10	8	-1E+10	1	-1E+10	1	-1E+10	1	-1E+10	1	-1E+10	1	-1E+10	1
4902554	15	C	07/01/2021	00:07	-136.483	49.629	0	802.80	0	3.4870	0	34.2790	0	27.269	0	794.407	0	-1e10	8	-1e10	8	-1E+10	1	-1E+10	1	-1E+10	1	-1E+10	1	-1E+10	1	-1E+10	1
4902554	15	C	07/01/2021	00:07	-136.483	49.629	0	808.00	0	3.4720	0	34.2830	0	27.274	0	799.542	0	-1e10	8	-1e10	8	-1E+10	1	-1E+10	1	-1E+10	1	-1E+10	1	-1E+10	1	-1E+10	1
4902554	15	C	07/01/2021	00:07	-136.483	49.629	0	812.70	0	3.4600	0	34.2860	0	27.278	0	804.184	0	-1e10	8	-1e10	8	-1E+10	1	-1E+10	1	-1E+10	1	-1E+10	1	-1E+10	1	-1E+10	1
4902554	15	C	07/01/2021	00:07	-136.483	49.629	0	817.90	0	3.4500	0	34.2880	0	27.280	0	809.320	0	-1e10	8	-1e10	8	-1E+10	1	-1E+10	1	-1E+10	1	-1E+10	1	-1E+10	1	-1E+10	1
4902554	15	C	07/01/2021	00:07	-136.483	49.629	0	823.30	0	3.4310	0	34.2910	0	27.284	0	814.652	0	-1e10	8	-1e10	8	-1E+10	1	-1E+10	1	-1E+10	1	-1E+10	1	-1E+10	1	-1E+10	1
4902554	15	C	07/01/2021	00:07	-136.483	49.629	0	828.10	0	3.4150	0	34.2940	0	27.288	0	819.393	0	-1e10	8	-1e10	8	-1E+10	1	-1E+10	1	-1E+10	1	-1E+10	1	-1E+10	1	-1E+10	1
4902554	15	C	07/01/2021	00:07	-136.483	49.629	0	833.00	0	3.4030	0	34.2970	0	27.292	0	824.231	0	-1e10	8	-1e10	8	-1E+10	1	-1E+10	1	-1E+10	1	-1E+10	1	-1E+10	1	-1E+10	1
4902554	15	C	07/01/2021	00:07	-136.483	49.629	0	838.00	0	3.3850	0	34.3000	0	27.296	0	829.169	0	-1e10	8	-1e10	8	-1E+10	1	-1E+10	1	-1E+10	1	-1E+10	1	-1E+10	1	-1E+10	1
4902554	15	C	07/01/2021	00:07	-136.483	49.629	0	842.90	0	3.3710	0	34.3040	0	27.301	0	834.007	0	-1e10	8	-1e10	8	-1E+10	1	-1E+10	1	-1E+10	1	-1E+10	1	-1E+10	1	-1E+10	1
4902554	15	C	07/01/2021	00:07	-136.483	49.629	0	848.00	0	3.3590	0	34.3060	0	27.303	0	839.043	0	-1e10	8	-1e10	8	-1E+10	1	-1E+10	1	-1E+10	1	-1E+10	1	-1E+10	1	-1E+10	1
4902554	15	C	07/01/2021	00:07	-136.483	49.629	0	853.10	0	3.3460	0	34.3080	0	27.306	0	844.079	0	-1e10	8	-1e10	8	-1E+10	1	-1E+10	1	-1E+10	1	-1E+10	1	-1E+10	1	-1E+10	1
4902554	15	C	07/01/2021	00:07	-136.483	49.629	0	858.20	0	3.3400	0	34.3090	0	27.308	0	849.115	0	-1e10	8	-1e10	8	-1E+10	1	-1E+10	1	-1E+10	1	-1E+10	1	-1E+10	1	-1E+10	1
4902554	15	C	07/01/2021	00:07	-136.483	49.629	0	863.20	0	3.3340	0	34.3100	0	27.309	0	854.052	0	-1e10	8	-1e10	8	-1E+10	1	-1E+10	1	-1E+10	1	-1E+10	1	-1E+10	1	-1E+10	1
4902554	15	C	07/01/2021	00:07	-136.483	49.629	0	868.20	0	3.3210	0	34.3120	0	27.312	0	858.989	0	-1e10	8	-1e10	8	-1E+10	1	-1E+10	1	-1E+10	1	-1E+10	1	-1E+10	1	-1E+10	1
4902554	15	C	07/01/2021	00:07	-136.483	49.629	0	873.20	0	3.3100	0	34.3150	0	27.315	0	863.925	0	-1e10	8	-1e10	8	-1E+10	1	-1E+10	1	-1E+10	1	-1E+10	1	-1E+10	1	-1E+10	1
4902554	15	C	07/01/2021	00:07	-136.483	49.629	0	878.20	0	3.3020	0	34.3170	0	27.318	0	868.862	0	-1e10	8	-1e10	8	-1E+10	1	-1E+10	1	-1E+10	1	-1E+10	1	-1E+10	1	-1E+10	1
4902554	15	C	07/01/2021	00:07	-136.483	49.629	0	883.30	0	3.2950	0	34.3190	0	27.320	0	873.897	0	-1e10	8	-1e10	8	-1E+10	1	-1E+10	1	-1E+10	1	-1E+10	1	-1E+10	1	-1E+10	1
4902554	15	C	07/01/2021	00:07	-136.483	49.629	0	887.90	0	3.2920	0	34.3190	0	27.320	0	878.438	0	-1e10	8	-1e10	8	-1E+10	1	-1E+10	1	-1E+10	1	-1E+10	1	-1E+10	1	-1E+10	1
4902554	15	C	07/01/2021	00:07	-136.483	49.629	0	892.50	0	3.2770	0	34.3220	0	27.324	0	882.980	0	-1e10	8	-1e10	8	-1E+10	1	-1E+10	1	-1E+10	1	-1E+10	1	-1E+10	1	-1E+10	1
4902554	15	C	07/01/2021	00:07	-136.483	49.629	0	897.60	0	3.2650	0	34.3240	0	27.327	0	888.014	0	-1e10	8	-1e10	8	-1E+10	1	-1E+10	1	-1E+10	1	-1E+10	1	-1E+10	1	-1E+10	1
4902554	15	C	07/01/2021	00:07	-136.483	49.629	0	902.60	0	3.2550	0	34.3260	0	27.329	0	892.950	0	-1e10	8	-1e10	8	-1E+10	1	-1E+10	1	-1E+10	1	-1E+10	1	-1E+10	1	-1E+10	1
4902554	15	C	07/01/2021	00:07	-136.483	49.629	0	907.90	0	3.2460	0	34.3280	0	27.332	0	898.182	0	-1e10	8	-1e10	8	-1E+10	1	-1E+10	1	-1E+10	1	-1E+10	1	-1E+10	1	-1E+10	1
4902554	15	C	07/01/2021	00:07	-136.483	49.629	0	912.80	0	3.2370	0	34.3300	0	27.334	0	903.019	0	-1e10	8	-1e10	8	-1E+10	1	-1E+10	1	-1E+10	1	-1E+10	1	-1E+10	1	-1E+10	1
4902554	15	C	07/01/2021	00:07	-136.483	49.629	0	917.60	0	3.2280	0	34.3310	0	27.336	0	907.757	0	-1e10	8	-1e10	8	-1E+10	1	-1E+10	1	-1E+10	1	-1E+10	1	-1E+10	1	-1E+10	1
4902554	15	C	07/01/2021	00:07	-136.483	49.629	0	922.50	0	3.2080	0	34.3350	0	27.341	0	912.594	0	-1e10	8	-1e10	8	-1E+10	1	-1E+10	1	-1E+10	1	-1E+10	1	-1E+10	1	-1E+10	1
4902554	15	C	07/01/2021	00:07	-136.483	49.629	0	927.50	0	3.1970	0	34.3370	0	27.344	0	917.529	0	-1e10	8	-1e10	8	-1E+10	1	-1E+10	1	-1E+10	1	-1E+10	1	-1E+10	1	-1E+10	1
4902554	15	C	07/01/2021	00:07	-136.483	49.629	0	932.50	0	3.1820	0	34.3400	0	27.347	0	922.465	0	-1e10	8	-1e10	8	-1E+10	1	-1E+10	1	-1E+10	1	-1E+10	1	-1E+10	1	-1E+10	1
4902554	15	C	07/01/2021	00:07	-136.483	49.629	0	937.60	0	3.1720	0	34.3420	0	27.350	0	927.498	0	-1e10	8	-1e10	8	-1E+10	1	-1E+10	1	-1E+10	1	-1E+10	1	-1E+10	1	-1E+10	1
4902554	15	C	07/01/2021	00:07	-136.483	49.629	0	942.60	0	3.1610	0	34.3450	0	27.353	0	932.434	0	-1e10	8	-1e10	8	-1E+10	1	-1E+10	1	-1E+10	1	-1E+10	1	-1E+10	1	-1E+10	1
4902554	15	C	07/01/2021	00:07	-136.483	49.629	0	947.60	0	3.1450	0	34.3480	0	27.357	0	937.368	0	-1e10	8	-1e10	8	-1E+10	1	-1E+10	1	-1E+10	1	-1E+10	1	-1E+10	1	-1E+10	1
4902554	15	C	07/01/2021	00:07	-136.483	49.629	0	952.80	0	3.1290	0	34.3500	0	27.360	0	942.501	0	-1e10	8	-1e10	8	-1E+10	1	-1E+10	1	-1E+10	1	-1E+10	1	-1E+10	1	-1E+10	1
4902554	15	C	07/01/2021	00:07	-136.483	49.629	0	958.10	0	3.1200	0	34.3520	0	27.363	0	947.731	0	-1e10	8	-1e10	8	-1E+10	1	-1E+10	1	-1E+10	1	-1E+10	1	-1E+10	1	-1E+10	1
4902554	15	C	07/01/2021	00:07	-136.483	49.629	0	963.00	0	3.1130	0	34.3540	0	27.365	0	952.567	0	-1e10	8	-1e10	8	-1E+10	1	-1E+10	1	-1E+10	1	-1E+10	1	-1E+10	1	-1E+10	1
4902554	15	C	07/01/2021	00:07	-136.483	49.629	0	968.00	0	3.0980	0	34.3560	0	27.368	0	957.502	0	-1e10	8	-1e10	8	-1E+10	1	-1E+10	1	-1E+10	1	-1E+10	1	-1E+10	1	-1E+10	1
4902554	15	C	07/01/2021	00:07	-136.483	49.629	0	973.00	0	3.0850	0	34.3580	0	27.371	0	962.436	0	-1e10	8	-1e10	8	-1E+10	1	-1E+10	1	-1E+10	1	-1E+10	1	-1E+10	1	-1E+10	1
4902554	15	C	07/01/2021	00:07	-136.483	49.629	0	978.00	0	3.0750	0	34.3600	0	27.373	0	967.370	0	-1e10	8	-1e10	8	-1E+10	1	-1E+10	1	-1E+10	1	-1E+10	1	-1E+10	1	-1E+10	1
4902554	15	C	07/01/2021	00:07	-136.483	49.629	0	983.10	0	3.0650	0	34.3630	0	27.377	0	972.403	0	-1e10	8	-1e10	8	-1E+10	1	-1E+10	1	-1E+10	1	-1E+10	1	-1E+10	1	-1E+10	1
4902554	15	C	07/01/2021	00:07	-136.483	49.629	0	987.70	0	3.0590	0	34.3650	0	27.379	0	976.942	0	-1e10	8	-1e10	8	-1E+10	1	-1E+10	1	-1E+10	1	-1E+10	1	-1E+10	1	-1E+10	1
4902554	15	C	07/01/2021	00:07	-136.483	49.629	0	992.80	0	3.0460	0	34.3670	0	27.382	0	981.974	0	-1e10	8	-1e10	8	-1E+10	1	-1E+10	1	-1E+10	1	-1E+10	1	-1E+10	1	-1E+10	1
4902554	15	C	07/01/2021	00:07	-136.483	49.629	0	998.10	0	3.0310	0	34.3680	0	27.384	0	987.204	0	-1e10	8	-1e10	8	-1E+10	1	-1E+10	1	-1E+10	1	-1E+10	1	-1E+10	1	-1E+10	1
4902554	15	C	07/01/2021	00:07	-136.483	49.629	0	1005.40	0	3.0180	0	34.3710	0	27.388	0	994.407	0	-1e10	8	-1e10	8	-1E+10	1	-1E+10	1	-1E+10	1	-1E+10	1	-1E+10	1	-1E+10	1
4902554	15	C	07/01/2021	00:07	-136.483	49.629	0	1015.20	0	3.0050	0	34.3730	0	27.390	0	1004.077	0	-1e10	8	-1e10	8	-1E+10	1	-1E+10	1	-1E+10	1	-1E+10	1	-1E+10	1	-1E+10	1
4902554	15	C	07/01/2021	00:07	-136.483	49.629	0	1025.20	0	2.9870	0	34.3760	0	27.394	0	1013.943	0	-1e10	8	-1e10	8	-1E+10	1	-1E+10	1	-1E+10	1	-1E+10	1	-1E+10	1	-1E+10	1
4902554	15	C	07/01/2021	00:07	-136.483	49.629	0	1035.60	0	2.9710	0	34.3790	0	27.398	0	1024.203	0	-1e10	8	-1e10	8	-1E+10	1	-1E+10	1	-1E+10	1	-1E+10	1	-1E+10	1	-1E+10	1
4902554	15	C	07/01/2021	00:07	-136.483	49.629	0	1045.40	0	2.9540	0	34.3820	0	27.402	0	1033.871	0	-1e10	8	-1e10	8	-1E+10	1	-1E+10	1	-1E+10	1	-1E+10	1	-1E+10	1	-1E+10	1
4902554	15	C	07/01/2021	00:07	-136.483	49.629	0	1055.40	0	2.9340	0	34.3850	0	27.407	0	1043.736	0	-1e10	8	-1e10	8	-1E+10	1	-1E+10	1	-1E+10	1	-1E+10	1	-1E+10	1	-1E+10	1
4902554	15	C	07/01/2021	00:07	-136.483	49.629	0	1065.50	0	2.9190	0	34.3880	0	27.410	0	1053.699	0	-1e10	8	-1e10	8	-1E+10	1	-1E+10	1	-1E+10	1	-1E+10	1	-1E+10	1	-1E+10	1
4902554	15	C	07/01/2021	00:07	-136.483	49.629	0	1075.40	0	2.9060	0	34.3910	0	27.414	0	1063.464	0	-1e10	8	-1e10	8	-1E+10	1	-1E+10	1	-1E+10	1	-1E+10	1	-1E+10	1	-1E+10	1
4902554	15	C	07/01/2021	00:07	-136.483	49.629	0	1085.40	0	2.8900	0	34.3940	0	27.418	0	1073.328	0	-1e10	8	-1e10	8	-1E+10	1	-1E+10	1	-1E+10	1	-1E+10	1	-1E+10	1	-1E+10	1
4902554	15	C	07/01/2021	00:07	-136.483	49.629	0	1095.50	0	2.8760	0	34.3980	0	27.422	0	1083.289	0	-1e10	8	-1e10	8	-1E+10	1	-1E+10	1	-1E+10	1	-1E+10	1	-1E+10	1	-1E+10	1
4902554	15	C	07/01/2021	00:07	-136.483	49.629	0	1105.60	0	2.8670	0	34.4000	0	27.425	0	1093.251	0	-1e10	8	-1e10	8	-1E+10	1	-1E+10	1	-1E+10	1	-1E+10	1	-1E+10	1	-1E+10	1
4902554	15	C	07/01/2021	00:07	-136.483	49.629	0	1115.50	0	2.8610	0	34.4010	0	27.426	0	1103.014	0	-1e10	8	-1e10	8	-1E+10	1	-1E+10	1	-1E+10	1	-1E+10	1	-1E+10	1	-1E+10	1
4902554	15	C	07/01/2021	00:07	-136.483	49.629	0	1125.60	0	2.8480	0	34.4040	0	27.430	0	1112.974	0	-1e10	8	-1e10	8	-1E+10	1	-1E+10	1	-1E+10	1	-1E+10	1	-1E+10	1	-1E+10	1
4902554	15	C	07/01/2021	00:07	-136.483	49.629	0	1135.70	0	2.8380	0	34.4060	0	27.432	0	1122.934	0	-1e10	8	-1e10	8	-1E+10	1	-1E+10	1	-1E+10	1	-1E+10	1	-1E+10	1	-1E+10	1
4902554	15	C	07/01/2021	00:07	-136.483	49.629	0	1145.70	0	2.8260	0	34.4080	0	27.435	0	1132.795	0	-1e10	8	-1e10	8	-1E+10	1	-1E+10	1	-1E+10	1	-1E+10	1	-1E+10	1	-1E+10	1
4902554	15	C	07/01/2021	00:07	-136.483	49.629	0	1155.30	0	2.8100	0	34.4110	0	27.439	0	1142.260	0	-1e10	8	-1e10	8	-1E+10	1	-1E+10	1	-1E+10	1	-1E+10	1	-1E+10	1	-1E+10	1
4902554	15	C	07/01/2021	00:07	-136.483	49.629	0	1165.10	0	2.8020	0	34.4120	0	27.440	0	1151.923	0	-1e10	8	-1e10	8	-1E+10	1	-1E+10	1	-1E+10	1	-1E+10	1	-1E+10	1	-1E+10	1
4902554	15	C	07/01/2021	00:07	-136.483	49.629	0	1175.60	0	2.7920	0	34.4140	0	27.443	0	1162.275	0	-1e10	8	-1e10	8	-1E+10	1	-1E+10	1	-1E+10	1	-1E+10	1	-1E+10	1	-1E+10	1
4902554	15	C	07/01/2021	00:07	-136.483	49.629	0	1185.70	0	2.7830	0	34.4160	0	27.445	0	1172.232	0	-1e10	8	-1e10	8	-1E+10	1	-1E+10	1	-1E+10	1	-1E+10	1	-1E+10	1	-1E+10	1
4902554	15	C	07/01/2021	00:07	-136.483	49.629	0	1195.20	0	2.7760	0	34.4170	0	27.447	0	1181.598	0	-1e10	8	-1e10	8	-1E+10	1	-1E+10	1	-1E+10	1	-1E+10	1	-1E+10	1	-1E+10	1
4902554	15	C	07/01/2021	00:07	-136.483	49.629	0	1205.30	0	2.7670	0	34.4190	0	27.449	0	1191.554	0	-1e10	8	-1e10	8	-1E+10	1	-1E+10	1	-1E+10	1	-1E+10	1	-1E+10	1	-1E+10	1
4902554	15	C	07/01/2021	00:07	-136.483	49.629	0	1215.40	0	2.7480	0	34.4230	0	27.454	0	1201.510	0	-1e10	8	-1e10	8	-1E+10	1	-1E+10	1	-1E+10	1	-1E+10	1	-1E+10	1	-1E+10	1
4902554	15	C	07/01/2021	00:07	-136.483	49.629	0	1225.50	0	2.7330	0	34.4260	0	27.458	0	1211.466	0	-1e10	8	-1e10	8	-1E+10	1	-1E+10	1	-1E+10	1	-1E+10	1	-1E+10	1	-1E+10	1
4902554	15	C	07/01/2021	00:07	-136.483	49.629	0	1235.50	0	2.7150	0	34.4300	0	27.463	0	1221.322	0	-1e10	8	-1e10	8	-1E+10	1	-1E+10	1	-1E+10	1	-1E+10	1	-1E+10	1	-1E+10	1
4902554	15	C	07/01/2021	00:07	-136.483	49.629	0	1245.50	0	2.6940	0	34.4330	0	27.467	0	1231.178	0	-1e10	8	-1e10	8	-1E+10	1	-1E+10	1	-1E+10	1	-1E+10	1	-1E+10	1	-1E+10	1
4902554	15	C	07/01/2021	00:07	-136.483	49.629	0	1255.40	0	2.6780	0	34.4370	0	27.472	0	1240.935	0	-1e10	8	-1e10	8	-1E+10	1	-1E+10	1	-1E+10	1	-1E+10	1	-1E+10	1	-1E+10	1
4902554	15	C	07/01/2021	00:07	-136.483	49.629	0	1265.40	0	2.6580	0	34.4410	0	27.477	0	1250.790	0	-1e10	8	-1e10	8	-1E+10	1	-1E+10	1	-1E+10	1	-1E+10	1	-1E+10	1	-1E+10	1
4902554	15	C	07/01/2021	00:07	-136.483	49.629	0	1275.10	0	2.6450	0	34.4440	0	27.480	0	1260.349	0	-1e10	8	-1e10	8	-1E+10	1	-1E+10	1	-1E+10	1	-1E+10	1	-1E+10	1	-1E+10	1
4902554	15	C	07/01/2021	00:07	-136.483	49.629	0	1285.00	0	2.6280	0	34.4470	0	27.484	0	1270.105	0	-1e10	8	-1e10	8	-1E+10	1	-1E+10	1	-1E+10	1	-1E+10	1	-1E+10	1	-1E+10	1
4902554	15	C	07/01/2021	00:07	-136.483	49.629	0	1295.10	0	2.6080	0	34.4510	0	27.489	0	1280.057	0	-1e10	8	-1e10	8	-1E+10	1	-1E+10	1	-1E+10	1	-1E+10	1	-1E+10	1	-1E+10	1
4902554	15	C	07/01/2021	00:07	-136.483	49.629	0	1305.20	0	2.5910	0	34.4540	0	27.493	0	1290.009	0	-1e10	8	-1e10	8	-1E+10	1	-1E+10	1	-1E+10	1	-1E+10	1	-1E+10	1	-1E+10	1
4902554	15	C	07/01/2021	00:07	-136.483	49.629	0	1315.20	0	2.5770	0	34.4570	0	27.497	0	1299.862	0	-1e10	8	-1e10	8	-1E+10	1	-1E+10	1	-1E+10	1	-1E+10	1	-1E+10	1	-1E+10	1
4902554	15	C	07/01/2021	00:07	-136.483	49.629	0	1325.10	0	2.5570	0	34.4610	0	27.502	0	1309.616	0	-1e10	8	-1e10	8	-1E+10	1	-1E+10	1	-1E+10	1	-1E+10	1	-1E+10	1	-1E+10	1
4902554	15	C	07/01/2021	00:07	-136.483	49.629	0	1335.20	0	2.5420	0	34.4630	0	27.505	0	1319.566	0	-1e10	8	-1e10	8	-1E+10	1	-1E+10	1	-1E+10	1	-1E+10	1	-1E+10	1	-1E+10	1
4902554	15	C	07/01/2021	00:07	-136.483	49.629	0	1345.10	0	2.5290	0	34.4660	0	27.508	0	1329.319	0	-1e10	8	-1e10	8	-1E+10	1	-1E+10	1	-1E+10	1	-1E+10	1	-1E+10	1	-1E+10	1
4902554	15	C	07/01/2021	00:07	-136.483	49.629	0	1355.30	0	2.5140	0	34.4690	0	27.512	0	1339.367	0	-1e10	8	-1e10	8	-1E+10	1	-1E+10	1	-1E+10	1	-1E+10	1	-1E+10	1	-1E+10	1
4902554	15	C	07/01/2021	00:07	-136.483	49.629	0	1365.80	0	2.5010	0	34.4720	0	27.515	0	1349.710	0	-1e10	8	-1e10	8	-1E+10	1	-1E+10	1	-1E+10	1	-1E+10	1	-1E+10	1	-1E+10	1
4902554	15	C	07/01/2021	00:07	-136.483	49.629	0	1375.40	0	2.4970	0	34.4730	0	27.517	0	1359.166	0	-1e10	8	-1e10	8	-1E+10	1	-1E+10	1	-1E+10	1	-1E+10	1	-1E+10	1	-1E+10	1
4902554	15	C	07/01/2021	00:07	-136.483	49.629	0	1385.60	0	2.4890	0	34.4740	0	27.518	0	1369.212	0	-1e10	8	-1e10	8	-1E+10	1	-1E+10	1	-1E+10	1	-1E+10	1	-1E+10	1	-1E+10	1
4902554	15	C	07/01/2021	00:07	-136.483	49.629	0	1395.40	0	2.4790	0	34.4760	0	27.521	0	1378.864	0	-1e10	8	-1e10	8	-1E+10	1	-1E+10	1	-1E+10	1	-1E+10	1	-1E+10	1	-1E+10	1
4902554	15	C	07/01/2021	00:07	-136.483	49.629	0	1405.40	0	2.4740	0	34.4770	0	27.522	0	1388.713	0	-1e10	8	-1e10	8	-1E+10	1	-1E+10	1	-1E+10	1	-1E+10	1	-1E+10	1	-1E+10	1
4902554	15	C	07/01/2021	00:07	-136.483	49.629	0	1415.60	0	2.4620	0	34.4800	0	27.525	0	1398.758	0	-1e10	8	-1e10	8	-1E+10	1	-1E+10	1	-1E+10	1	-1E+10	1	-1E+10	1	-1E+10	1
4902554	15	C	07/01/2021	00:07	-136.483	49.629	0	1425.40	0	2.4500	0	34.4820	0	27.528	0	1408.409	0	-1e10	8	-1e10	8	-1E+10	1	-1E+10	1	-1E+10	1	-1E+10	1	-1E+10	1	-1E+10	1
4902554	15	C	07/01/2021	00:07	-136.483	49.629	0	1435.40	0	2.4400	0	34.4840	0	27.530	0	1418.256	0	-1e10	8	-1e10	8	-1E+10	1	-1E+10	1	-1E+10	1	-1E+10	1	-1E+10	1	-1E+10	1
4902554	15	C	07/01/2021	00:07	-136.483	49.629	0	1445.60	0	2.4330	0	34.4850	0	27.532	0	1428.300	0	-1e10	8	-1e10	8	-1E+10	1	-1E+10	1	-1E+10	1	-1E+10	1	-1E+10	1	-1E+10	1
4902554	15	C	07/01/2021	00:07	-136.483	49.629	0	1455.40	0	2.4260	0	34.4870	0	27.534	0	1437.949	0	-1e10	8	-1e10	8	-1E+10	1	-1E+10	1	-1E+10	1	-1E+10	1	-1E+10	1	-1E+10	1
4902554	15	C	07/01/2021	00:07	-136.483	49.629	0	1465.10	0	2.4150	0	34.4890	0	27.537	0	1447.500	0	-1e10	8	-1e10	8	-1E+10	1	-1E+10	1	-1E+10	1	-1E+10	1	-1E+10	1	-1E+10	1
4902554	15	C	07/01/2021	00:07	-136.483	49.629	0	1475.20	0	2.4010	0	34.4920	0	27.540	0	1457.443	0	-1e10	8	-1e10	8	-1E+10	1	-1E+10	1	-1E+10	1	-1E+10	1	-1E+10	1	-1E+10	1
4902554	15	C	07/01/2021	00:07	-136.483	49.629	0	1485.30	0	2.3860	0	34.4950	0	27.544	0	1467.387	0	-1e10	8	-1e10	8	-1E+10	1	-1E+10	1	-1E+10	1	-1E+10	1	-1E+10	1	-1E+10	1
4902554	15	C	07/01/2021	00:07	-136.483	49.629	0	1495.30	0	2.3790	0	34.4960	0	27.545	0	1477.231	0	-1e10	8	-1e10	8	-1E+10	1	-1E+10	1	-1E+10	1	-1E+10	1	-1E+10	1	-1E+10	1
4902554	15	C	07/01/2021	00:07	-136.483	49.629	0	1505.20	0	2.3690	0	34.4980	0	27.548	0	1486.977	0	-1e10	8	-1e10	8	-1E+10	1	-1E+10	1	-1E+10	1	-1E+10	1	-1E+10	1	-1E+10	1
4902554	15	C	07/01/2021	00:07	-136.483	49.629	0	1515.20	0	2.3590	0	34.5000	0	27.550	0	1496.820	0	-1e10	8	-1e10	8	-1E+10	1	-1E+10	1	-1E+10	1	-1E+10	1	-1E+10	1	-1E+10	1
4902554	15	C	07/01/2021	00:07	-136.483	49.629	0	1525.20	0	2.3470	0	34.5030	0	27.554	0	1506.663	0	-1e10	8	-1e10	8	-1E+10	1	-1E+10	1	-1E+10	1	-1E+10	1	-1E+10	1	-1E+10	1
4902554	15	C	07/01/2021	00:07	-136.483	49.629	0	1535.10	0	2.3280	0	34.5060	0	27.558	0	1516.408	0	-1e10	8	-1e10	8	-1E+10	1	-1E+10	1	-1E+10	1	-1E+10	1	-1E+10	1	-1E+10	1
4902554	15	C	07/01/2021	00:07	-136.483	49.629	0	1545.10	0	2.3100	0	34.5100	0	27.563	0	1526.250	0	-1e10	8	-1e10	8	-1E+10	1	-1E+10	1	-1E+10	1	-1E+10	1	-1E+10	1	-1E+10	1
4902554	15	C	07/01/2021	00:07	-136.483	49.629	0	1555.50	0	2.2960	0	34.5130	0	27.566	0	1536.485	0	-1e10	8	-1e10	8	-1E+10	1	-1E+10	1	-1E+10	1	-1E+10	1	-1E+10	1	-1E+10	1
4902554	15	C	07/01/2021	00:07	-136.483	49.629	0	1565.80	0	2.2890	0	34.5140	0	27.568	0	1546.622	0	-1e10	8	-1e10	8	-1E+10	1	-1E+10	1	-1E+10	1	-1E+10	1	-1E+10	1	-1E+10	1
4902554	15	C	07/01/2021	00:07	-136.483	49.629	0	1575.80	0	2.2850	0	34.5150	0	27.569	0	1556.463	0	-1e10	8	-1e10	8	-1E+10	1	-1E+10	1	-1E+10	1	-1E+10	1	-1E+10	1	-1E+10	1
4902554	15	C	07/01/2021	00:07	-136.483	49.629	0	1585.50	0	2.2740	0	34.5170	0	27.571	0	1566.008	0	-1e10	8	-1e10	8	-1E+10	1	-1E+10	1	-1E+10	1	-1E+10	1	-1E+10	1	-1E+10	1
4902554	15	C	07/01/2021	00:07	-136.483	49.629	0	1595.30	0	2.2620	0	34.5200	0	27.575	0	1575.651	0	-1e10	8	-1e10	8	-1E+10	1	-1E+10	1	-1E+10	1	-1E+10	1	-1E+10	1	-1E+10	1
4902554	15	C	07/01/2021	00:07	-136.483	49.629	0	1605.30	0	2.2500	0	34.5220	0	27.577	0	1585.490	0	-1e10	8	-1e10	8	-1E+10	1	-1E+10	1	-1E+10	1	-1E+10	1	-1E+10	1	-1E+10	1
4902554	15	C	07/01/2021	00:07	-136.483	49.629	0	1615.10	0	2.2430	0	34.5240	0	27.580	0	1595.132	0	-1e10	8	-1e10	8	-1E+10	1	-1E+10	1	-1E+10	1	-1E+10	1	-1E+10	1	-1E+10	1
4902554	15	C	07/01/2021	00:07	-136.483	49.629	0	1625.10	0	2.2340	0	34.5260	0	27.582	0	1604.971	0	-1e10	8	-1e10	8	-1E+10	1	-1E+10	1	-1E+10	1	-1E+10	1	-1E+10	1	-1E+10	1
4902554	15	C	07/01/2021	00:07	-136.483	49.629	0	1635.40	0	2.2200	0	34.5290	0	27.586	0	1615.104	0	-1e10	8	-1e10	8	-1E+10	1	-1E+10	1	-1E+10	1	-1E+10	1	-1E+10	1	-1E+10	1
4902554	15	C	07/01/2021	00:07	-136.483	49.629	0	1645.30	0	2.2120	0	34.5300	0	27.587	0	1624.843	0	-1e10	8	-1e10	8	-1E+10	1	-1E+10	1	-1E+10	1	-1E+10	1	-1E+10	1	-1E+10	1
4902554	15	C	07/01/2021	00:07	-136.483	49.629	0	1655.30	0	2.2020	0	34.5320	0	27.590	0	1634.680	0	-1e10	8	-1e10	8	-1E+10	1	-1E+10	1	-1E+10	1	-1E+10	1	-1E+10	1	-1E+10	1
4902554	15	C	07/01/2021	00:07	-136.483	49.629	0	1665.00	0	2.1970	0	34.5330	0	27.591	0	1644.222	0	-1e10	8	-1e10	8	-1E+10	1	-1E+10	1	-1E+10	1	-1E+10	1	-1E+10	1	-1E+10	1
4902554	15	C	07/01/2021	00:07	-136.483	49.629	0	1675.20	0	2.1910	0	34.5340	0	27.592	0	1654.255	0	-1e10	8	-1e10	8	-1E+10	1	-1E+10	1	-1E+10	1	-1E+10	1	-1E+10	1	-1E+10	1
4902554	15	C	07/01/2021	00:07	-136.483	49.629	0	1685.20	0	2.1840	0	34.5350	0	27.594	0	1664.090	0	-1e10	8	-1e10	8	-1E+10	1	-1E+10	1	-1E+10	1	-1E+10	1	-1E+10	1	-1E+10	1
4902554	15	C	07/01/2021	00:07	-136.483	49.629	0	1695.10	0	2.1760	0	34.5370	0	27.596	0	1673.827	0	-1e10	8	-1e10	8	-1E+10	1	-1E+10	1	-1E+10	1	-1E+10	1	-1E+10	1	-1E+10	1
4902554	15	C	07/01/2021	00:07	-136.483	49.629	0	1705.20	0	2.1700	0	34.5380	0	27.597	0	1683.760	0	-1e10	8	-1e10	8	-1E+10	1	-1E+10	1	-1E+10	1	-1E+10	1	-1E+10	1	-1E+10	1
4902554	15	C	07/01/2021	00:07	-136.483	49.629	0	1715.40	0	2.1660	0	34.5390	0	27.598	0	1693.792	0	-1e10	8	-1e10	8	-1E+10	1	-1E+10	1	-1E+10	1	-1E+10	1	-1E+10	1	-1E+10	1
4902554	15	C	07/01/2021	00:07	-136.483	49.629	0	1725.40	0	2.1590	0	34.5410	0	27.601	0	1703.625	0	-1e10	8	-1e10	8	-1E+10	1	-1E+10	1	-1E+10	1	-1E+10	1	-1E+10	1	-1E+10	1
4902554	15	C	07/01/2021	00:07	-136.483	49.629	0	1735.10	0	2.1550	0	34.5420	0	27.602	0	1713.164	0	-1e10	8	-1e10	8	-1E+10	1	-1E+10	1	-1E+10	1	-1E+10	1	-1E+10	1	-1E+10	1
4902554	15	C	07/01/2021	00:07	-136.483	49.629	0	1744.90	0	2.1470	0	34.5430	0	27.603	0	1722.800	0	-1e10	8	-1e10	8	-1E+10	1	-1E+10	1	-1E+10	1	-1E+10	1	-1E+10	1	-1E+10	1
4902554	15	C	07/01/2021	00:07	-136.483	49.629	0	1754.90	0	2.1360	0	34.5460	0	27.607	0	1732.633	0	-1e10	8	-1e10	8	-1E+10	1	-1E+10	1	-1E+10	1	-1E+10	1	-1E+10	1	-1E+10	1
4902554	15	C	07/01/2021	00:07	-136.483	49.629	0	1765.00	0	2.1280	0	34.5480	0	27.609	0	1742.563	0	-1e10	8	-1e10	8	-1E+10	1	-1E+10	1	-1E+10	1	-1E+10	1	-1E+10	1	-1E+10	1
4902554	15	C	07/01/2021	00:07	-136.483	49.629	0	1775.30	0	2.1160	0	34.5500	0	27.611	0	1752.690	0	-1e10	8	-1e10	8	-1E+10	1	-1E+10	1	-1E+10	1	-1E+10	1	-1E+10	1	-1E+10	1
4902554	15	C	07/01/2021	00:07	-136.483	49.629	0	1785.70	0	2.1100	0	34.5510	0	27.613	0	1762.914	0	-1e10	8	-1e10	8	-1E+10	1	-1E+10	1	-1E+10	1	-1E+10	1	-1E+10	1	-1E+10	1
4902554	15	C	07/01/2021	00:07	-136.483	49.629	0	1795.50	0	2.1050	0	34.5520	0	27.614	0	1772.548	0	-1e10	8	-1e10	8	-1E+10	1	-1E+10	1	-1E+10	1	-1E+10	1	-1E+10	1	-1E+10	1
4902554	15	C	07/01/2021	00:07	-136.483	49.629	0	1805.10	0	2.1000	0	34.5530	0	27.615	0	1781.985	0	-1e10	8	-1e10	8	-1E+10	1	-1E+10	1	-1E+10	1	-1E+10	1	-1E+10	1	-1E+10	1
4902554	15	C	07/01/2021	00:07	-136.483	49.629	0	1815.30	0	2.0920	0	34.5550	0	27.618	0	1792.012	0	-1e10	8	-1e10	8	-1E+10	1	-1E+10	1	-1E+10	1	-1E+10	1	-1E+10	1	-1E+10	1
4902554	15	C	07/01/2021	00:07	-136.483	49.629	0	1825.40	0	2.0880	0	34.5560	0	27.619	0	1801.939	0	-1e10	8	-1e10	8	-1E+10	1	-1E+10	1	-1E+10	1	-1E+10	1	-1E+10	1	-1E+10	1
4902554	15	C	07/01/2021	00:07	-136.483	49.629	0	1835.40	0	2.0820	0	34.5570	0	27.620	0	1811.768	0	-1e10	8	-1e10	8	-1E+10	1	-1E+10	1	-1E+10	1	-1E+10	1	-1E+10	1	-1E+10	1
4902554	15	C	07/01/2021	00:07	-136.483	49.629	0	1845.30	0	2.0710	0	34.5590	0	27.623	0	1821.498	0	-1e10	8	-1e10	8	-1E+10	1	-1E+10	1	-1E+10	1	-1E+10	1	-1E+10	1	-1E+10	1
4902554	15	C	07/01/2021	00:07	-136.483	49.629	0	1855.30	0	2.0580	0	34.5620	0	27.626	0	1831.326	0	-1e10	8	-1e10	8	-1E+10	1	-1E+10	1	-1E+10	1	-1E+10	1	-1E+10	1	-1E+10	1
4902554	15	C	07/01/2021	00:07	-136.483	49.629	0	1865.10	0	2.0530	0	34.5630	0	27.627	0	1840.957	0	-1e10	8	-1e10	8	-1E+10	1	-1E+10	1	-1E+10	1	-1E+10	1	-1E+10	1	-1E+10	1
4902554	15	C	07/01/2021	00:07	-136.483	49.629	0	1875.40	0	2.0480	0	34.5640	0	27.629	0	1851.079	0	-1e10	8	-1e10	8	-1E+10	1	-1E+10	1	-1E+10	1	-1E+10	1	-1E+10	1	-1E+10	1
4902554	15	C	07/01/2021	00:07	-136.483	49.629	0	1885.60	0	2.0400	0	34.5650	0	27.630	0	1861.102	0	-1e10	8	-1e10	8	-1E+10	1	-1E+10	1	-1E+10	1	-1E+10	1	-1E+10	1	-1E+10	1
4902554	15	C	07/01/2021	00:07	-136.483	49.629	0	1895.60	0	2.0350	0	34.5670	0	27.632	0	1870.928	0	-1e10	8	-1e10	8	-1E+10	1	-1E+10	1	-1E+10	1	-1E+10	1	-1E+10	1	-1E+10	1
4902554	15	C	07/01/2021	00:07	-136.483	49.629	0	1905.50	0	2.0270	0	34.5680	0	27.634	0	1880.656	0	-1e10	8	-1e10	8	-1E+10	1	-1E+10	1	-1E+10	1	-1E+10	1	-1E+10	1	-1E+10	1
4902554	15	C	07/01/2021	00:07	-136.483	49.629	0	1915.30	0	2.0170	0	34.5700	0	27.636	0	1890.285	0	-1e10	8	-1e10	8	-1E+10	1	-1E+10	1	-1E+10	1	-1E+10	1	-1E+10	1	-1E+10	1
4902554	15	C	07/01/2021	00:07	-136.483	49.629	0	1925.60	0	2.0110	0	34.5710	0	27.637	0	1900.404	0	-1e10	8	-1e10	8	-1E+10	1	-1E+10	1	-1E+10	1	-1E+10	1	-1E+10	1	-1E+10	1
4902554	15	C	07/01/2021	00:07	-136.483	49.629	0	1935.30	0	2.0060	0	34.5730	0	27.639	0	1909.934	0	-1e10	8	-1e10	8	-1E+10	1	-1E+10	1	-1E+10	1	-1E+10	1	-1E+10	1	-1E+10	1
4902554	15	C	07/01/2021	00:07	-136.483	49.629	0	1945.40	0	1.9990	0	34.5740	0	27.641	0	1919.856	0	-1e10	8	-1e10	8	-1E+10	1	-1E+10	1	-1E+10	1	-1E+10	1	-1E+10	1	-1E+10	1
4902554	15	C	07/01/2021	00:07	-136.483	49.629	0	1955.20	0	1.9900	0	34.5760	0	27.643	0	1929.483	0	-1e10	8	-1e10	8	-1E+10	1	-1E+10	1	-1E+10	1	-1E+10	1	-1E+10	1	-1E+10	1
4902554	15	C	07/01/2021	00:07	-136.483	49.629	0	1965.40	0	1.9840	0	34.5770	0	27.644	0	1939.502	0	-1e10	8	-1e10	8	-1E+10	1	-1E+10	1	-1E+10	1	-1E+10	1	-1E+10	1	-1E+10	1
4902554	15	C	07/01/2021	00:07	-136.483	49.629	0	1975.80	0	1.9770	0	34.5780	0	27.646	0	1949.718	0	-1e10	8	-1e10	8	-1E+10	1	-1E+10	1	-1E+10	1	-1E+10	1	-1E+10	1	-1E+10	1
4902554	15	C	07/01/2021	00:07	-136.483	49.629	0	1985.50	0	1.9730	0	34.5800	0	27.648	0	1959.245	0	-1e10	8	-1e10	8	-1E+10	1	-1E+10	1	-1E+10	1	-1E+10	1	-1E+10	1	-1E+10	1
4902554	15	C	07/01/2021	00:07	-136.483	49.629	0	1995.90	0	1.9650	0	34.5810	0	27.649	0	1969.459	0	-1e10	8	-1e10	8	-1E+10	1	-1E+10	1	-1E+10	1	-1E+10	1	-1E+10	1	-1E+10	1
4902554	15	C	07/01/2021	00:07	-136.483	49.629	0	2001.70	0	1.9620	0	34.5820	0	27.650	0	1975.156	0	-1e10	8	-1e10	8	-1E+10	1	-1E+10	1	-1E+10	1	-1E+10	1	-1E+10	1	-1E+10	1
4902554	15	C	07/01/2021	00:07	-136.483	49.629	0																										
4902554	16	C	07/11/2021	05:08	-136.434	49.640	0	0.40	0	13.6730	0	32.3040	0	24.172	0	0.397	0	-1e10	8	-1e10	8	-1E+10	1	-1E+10	1	-1E+10	1	-1E+10	1	-1E+10	1	-1E+10	1
4902554	16	C	07/11/2021	05:08	-136.434	49.640	0	1.10	0	13.6730	0	32.2920	0	24.163	0	1.091	0	-1e10	8	-1e10	8	-1E+10	1	-1E+10	1	-1E+10	1	-1E+10	1	-1E+10	1	-1E+10	1
4902554	16	C	07/11/2021	05:08	-136.434	49.640	0	1.90	0	13.6700	0	32.2830	0	24.156	0	1.884	0	-1e10	8	-1e10	8	-1E+10	1	-1E+10	1	-1E+10	1	-1E+10	1	-1E+10	1	-1E+10	1
4902554	16	C	07/11/2021	05:08	-136.434	49.640	0	3.10	0	13.6730	0	32.3110	0	24.177	0	3.074	0	-1e10	8	-1e10	8	-1E+10	1	-1E+10	1	-1E+10	1	-1E+10	1	-1E+10	1	-1E+10	1
4902554	16	C	07/11/2021	05:08	-136.434	49.640	0	4.00	0	13.6670	0	32.3150	0	24.182	0	3.966	0	-1e10	8	-1e10	8	-1E+10	1	-1E+10	1	-1E+10	1	-1E+10	1	-1E+10	1	-1E+10	1
4902554	16	C	07/11/2021	05:08	-136.434	49.640	0	4.90	0	13.6620	0	32.3260	0	24.191	0	4.858	0	-1e10	8	-1e10	8	-1E+10	1	-1E+10	1	-1E+10	1	-1E+10	1	-1E+10	1	-1E+10	1
4902554	16	C	07/11/2021	05:08	-136.434	49.640	0	6.10	0	13.6540	0	32.3250	0	24.192	0	6.048	0	-1e10	8	-1e10	8	-1E+10	1	-1E+10	1	-1E+10	1	-1E+10	1	-1E+10	1	-1E+10	1
4902554	16	C	07/11/2021	05:08	-136.434	49.640	0	7.10	0	13.5910	0	32.3310	0	24.209	0	7.039	0	-1e10	8	-1e10	8	-1E+10	1	-1E+10	1	-1E+10	1	-1E+10	1	-1E+10	1	-1E+10	1
4902554	16	C	07/11/2021	05:08	-136.434	49.640	0	8.00	0	13.4250	0	32.3260	0	24.239	0	7.932	0	-1e10	8	-1e10	8	-1E+10	1	-1E+10	1	-1E+10	1	-1E+10	1	-1E+10	1	-1E+10	1
4902554	16	C	07/11/2021	05:08	-136.434	49.640	0	9.00	0	13.2830	0	32.3240	0	24.266	0	8.923	0	-1e10	8	-1e10	8	-1E+10	1	-1E+10	1	-1E+10	1	-1E+10	1	-1E+10	1	-1E+10	1
4902554	16	C	07/11/2021	05:08	-136.434	49.640	0	9.90	0	13.2630	0	32.3240	0	24.270	0	9.815	0	-1e10	8	-1e10	8	-1E+10	1	-1E+10	1	-1E+10	1	-1E+10	1	-1E+10	1	-1E+10	1
4902554	16	C	07/11/2021	05:08	-136.434	49.640	0	10.90	0	13.2470	0	32.3240	0	24.273	0	10.807	0	-1e10	8	-1e10	8	-1E+10	1	-1E+10	1	-1E+10	1	-1E+10	1	-1E+10	1	-1E+10	1
4902554	16	C	07/11/2021	05:08	-136.434	49.640	0	11.80	0	13.2270	0	32.3240	0	24.277	0	11.699	0	-1e10	8	-1e10	8	-1E+10	1	-1E+10	1	-1E+10	1	-1E+10	1	-1E+10	1	-1E+10	1
4902554	16	C	07/11/2021	05:08	-136.434	49.640	0	13.10	0	13.1860	0	32.3220	0	24.283	0	12.988	0	-1e10	8	-1e10	8	-1E+10	1	-1E+10	1	-1E+10	1	-1E+10	1	-1E+10	1	-1E+10	1
4902554	16	C	07/11/2021	05:08	-136.434	49.640	0	14.10	0	13.0520	0	32.3220	0	24.310	0	13.979	0	-1e10	8	-1e10	8	-1E+10	1	-1E+10	1	-1E+10	1	-1E+10	1	-1E+10	1	-1E+10	1
4902554	16	C	07/11/2021	05:08	-136.434	49.640	0	15.10	0	12.9050	0	32.3270	0	24.342	0	14.970	0	-1e10	8	-1e10	8	-1E+10	1	-1E+10	1	-1E+10	1	-1E+10	1	-1E+10	1	-1E+10	1
4902554	16	C	07/11/2021	05:08	-136.434	49.640	0	15.80	0	12.8500	0	32.3260	0	24.352	0	15.664	0	-1e10	8	-1e10	8	-1E+10	1	-1E+10	1	-1E+10	1	-1E+10	1	-1E+10	1	-1E+10	1
4902554	16	C	07/11/2021	05:08	-136.434	49.640	0	16.80	0	12.8240	0	32.3260	0	24.357	0	16.656	0	-1e10	8	-1e10	8	-1E+10	1	-1E+10	1	-1E+10	1	-1E+10	1	-1E+10	1	-1E+10	1
4902554	16	C	07/11/2021	05:08	-136.434	49.640	0	18.10	0	12.7500	0	32.3260	0	24.372	0	17.945	0	-1e10	8	-1e10	8	-1E+10	1	-1E+10	1	-1E+10	1	-1E+10	1	-1E+10	1	-1E+10	1
4902554	16	C	07/11/2021	05:08	-136.434	49.640	0	19.10	0	12.5630	0	32.3350	0	24.415	0	18.936	0	-1e10	8	-1e10	8	-1E+10	1	-1E+10	1	-1E+10	1	-1E+10	1	-1E+10	1	-1E+10	1
4902554	16	C	07/11/2021	05:08	-136.434	49.640	0	20.10	0	12.4600	0	32.3320	0	24.432	0	19.927	0	-1e10	8	-1e10	8	-1E+10	1	-1E+10	1	-1E+10	1	-1E+10	1	-1E+10	1	-1E+10	1
4902554	16	C	07/11/2021	05:08	-136.434	49.640	0	21.00	0	12.4190	0	32.3320	0	24.440	0	20.820	0	-1e10	8	-1e10	8	-1E+10	1	-1E+10	1	-1E+10	1	-1E+10	1	-1E+10	1	-1E+10	1
4902554	16	C	07/11/2021	05:08	-136.434	49.640	0	21.90	0	12.3660	0	32.3300	0	24.448	0	21.712	0	-1e10	8	-1e10	8	-1E+10	1	-1E+10	1	-1E+10	1	-1E+10	1	-1E+10	1	-1E+10	1
4902554	16	C	07/11/2021	05:08	-136.434	49.640	0	22.80	0	12.2940	0	32.3290	0	24.461	0	22.604	0	-1e10	8	-1e10	8	-1E+10	1	-1E+10	1	-1E+10	1	-1E+10	1	-1E+10	1	-1E+10	1
4902554	16	C	07/11/2021	05:08	-136.434	49.640	0	23.80	0	12.0870	0	32.3320	0	24.503	0	23.595	0	-1e10	8	-1e10	8	-1E+10	1	-1E+10	1	-1E+10	1	-1E+10	1	-1E+10	1	-1E+10	1
4902554	16	C	07/11/2021	05:08	-136.434	49.640	0	24.90	0	11.8710	0	32.3290	0	24.540	0	24.686	0	-1e10	8	-1e10	8	-1E+10	1	-1E+10	1	-1E+10	1	-1E+10	1	-1E+10	1	-1E+10	1
4902554	16	C	07/11/2021	05:08	-136.434	49.640	0	25.90	0	11.7940	0	32.3250	0	24.551	0	25.677	0	-1e10	8	-1e10	8	-1E+10	1	-1E+10	1	-1E+10	1	-1E+10	1	-1E+10	1	-1E+10	1
4902554	16	C	07/11/2021	05:08	-136.434	49.640	0	26.90	0	11.6170	0	32.3310	0	24.588	0	26.669	0	-1e10	8	-1e10	8	-1E+10	1	-1E+10	1	-1E+10	1	-1E+10	1	-1E+10	1	-1E+10	1
4902554	16	C	07/11/2021	05:08	-136.434	49.640	0	28.00	0	11.3320	0	32.3310	0	24.640	0	27.759	0	-1e10	8	-1e10	8	-1E+10	1	-1E+10	1	-1E+10	1	-1E+10	1	-1E+10	1	-1E+10	1
4902554	16	C	07/11/2021	05:08	-136.434	49.640	0	29.30	0	10.8780	0	32.3370	0	24.725	0	29.048	0	-1e10	8	-1e10	8	-1E+10	1	-1E+10	1	-1E+10	1	-1E+10	1	-1E+10	1	-1E+10	1
4902554	16	C	07/11/2021	05:08	-136.434	49.640	0	30.20	0	10.4330	0	32.3370	0	24.802	0	29.940	0	-1e10	8	-1e10	8	-1E+10	1	-1E+10	1	-1E+10	1	-1E+10	1	-1E+10	1	-1E+10	1
4902554	16	C	07/11/2021	05:08	-136.434	49.640	0	31.00	0	10.3250	0	32.3390	0	24.821	0	30.733	0	-1e10	8	-1e10	8	-1E+10	1	-1E+10	1	-1E+10	1	-1E+10	1	-1E+10	1	-1E+10	1
4902554	16	C	07/11/2021	05:08	-136.434	49.640	0	32.10	0	10.2250	0	32.3500	0	24.847	0	31.823	0	-1e10	8	-1e10	8	-1E+10	1	-1E+10	1	-1E+10	1	-1E+10	1	-1E+10	1	-1E+10	1
4902554	16	C	07/11/2021	05:08	-136.434	49.640	0	32.90	0	10.0860	0	32.3430	0	24.865	0	32.616	0	-1e10	8	-1e10	8	-1E+10	1	-1E+10	1	-1E+10	1	-1E+10	1	-1E+10	1	-1E+10	1
4902554	16	C	07/11/2021	05:08	-136.434	49.640	0	34.00	0	9.9190	0	32.3500	0	24.898	0	33.707	0	-1e10	8	-1e10	8	-1E+10	1	-1E+10	1	-1E+10	1	-1E+10	1	-1E+10	1	-1E+10	1
4902554	16	C	07/11/2021	05:08	-136.434	49.640	0	35.10	0	9.7450	0	32.3620	0	24.936	0	34.797	0	-1e10	8	-1e10	8	-1E+10	1	-1E+10	1	-1E+10	1	-1E+10	1	-1E+10	1	-1E+10	1
4902554	16	C	07/11/2021	05:08	-136.434	49.640	0	35.90	0	9.6830	0	32.3510	0	24.937	0	35.590	0	-1e10	8	-1e10	8	-1E+10	1	-1E+10	1	-1E+10	1	-1E+10	1	-1E+10	1	-1E+10	1
4902554	16	C	07/11/2021	05:08	-136.434	49.640	0	36.80	0	9.6090	0	32.3500	0	24.948	0	36.482	0	-1e10	8	-1e10	8	-1E+10	1	-1E+10	1	-1E+10	1	-1E+10	1	-1E+10	1	-1E+10	1
4902554	16	C	07/11/2021	05:08	-136.434	49.640	0	37.90	0	9.4730	0	32.3570	0	24.976	0	37.573	0	-1e10	8	-1e10	8	-1E+10	1	-1E+10	1	-1E+10	1	-1E+10	1	-1E+10	1	-1E+10	1
4902554	16	C	07/11/2021	05:08	-136.434	49.640	0	39.00	0	9.1990	0	32.3590	0	25.021	0	38.663	0	-1e10	8	-1e10	8	-1E+10	1	-1E+10	1	-1E+10	1	-1E+10	1	-1E+10	1	-1E+10	1
4902554	16	C	07/11/2021	05:08	-136.434	49.640	0	40.20	0	9.1190	0	32.3690	0	25.041	0	39.853	0	-1e10	8	-1e10	8	-1E+10	1	-1E+10	1	-1E+10	1	-1E+10	1	-1E+10	1	-1E+10	1
4902554	16	C	07/11/2021	05:08	-136.434	49.640	0	40.90	0	9.0850	0	32.3690	0	25.046	0	40.547	0	-1e10	8	-1e10	8	-1E+10	1	-1E+10	1	-1E+10	1	-1E+10	1	-1E+10	1	-1E+10	1
4902554	16	C	07/11/2021	05:08	-136.434	49.640	0	42.00	0	8.9820	0	32.3740	0	25.066	0	41.637	0	-1e10	8	-1e10	8	-1E+10	1	-1E+10	1	-1E+10	1	-1E+10	1	-1E+10	1	-1E+10	1
4902554	16	C	07/11/2021	05:08	-136.434	49.640	0	43.20	0	8.8680	0	32.3760	0	25.085	0	42.827	0	-1e10	8	-1e10	8	-1E+10	1	-1E+10	1	-1E+10	1	-1E+10	1	-1E+10	1	-1E+10	1
4902554	16	C	07/11/2021	05:08	-136.434	49.640	0	44.00	0	8.7910	0	32.3840	0	25.103	0	43.620	0	-1e10	8	-1e10	8	-1E+10	1	-1E+10	1	-1E+10	1	-1E+10	1	-1E+10	1	-1E+10	1
4902554	16	C	07/11/2021	05:08	-136.434	49.640	0	45.00	0	8.7200	0	32.3810	0	25.112	0	44.611	0	-1e10	8	-1e10	8	-1E+10	1	-1E+10	1	-1E+10	1	-1E+10	1	-1E+10	1	-1E+10	1
4902554	16	C	07/11/2021	05:08	-136.434	49.640	0	46.10	0	8.6970	0	32.3810	0	25.115	0	45.701	0	-1e10	8	-1e10	8	-1E+10	1	-1E+10	1	-1E+10	1	-1E+10	1	-1E+10	1	-1E+10	1
4902554	16	C	07/11/2021	05:08	-136.434	49.640	0	46.80	0	8.6640	0	32.3790	0	25.119	0	46.395	0	-1e10	8	-1e10	8	-1E+10	1	-1E+10	1	-1E+10	1	-1E+10	1	-1E+10	1	-1E+10	1
4902554	16	C	07/11/2021	05:08	-136.434	49.640	0	48.00	0	8.4630	0	32.3900	0	25.158	0	47.585	0	-1e10	8	-1e10	8	-1E+10	1	-1E+10	1	-1E+10	1	-1E+10	1	-1E+10	1	-1E+10	1
4902554	16	C	07/11/2021	05:08	-136.434	49.640	0	49.30	0	8.2080	0	32.3990	0	25.202	0	48.873	0	-1e10	8	-1e10	8	-1E+10	1	-1E+10	1	-1E+10	1	-1E+10	1	-1E+10	1	-1E+10	1
4902554	16	C	07/11/2021	05:08	-136.434	49.640	0	50.20	0	8.1920	0	32.3990	0	25.205	0	49.765	0	-1e10	8	-1e10	8	-1E+10	1	-1E+10	1	-1E+10	1	-1E+10	1	-1E+10	1	-1E+10	1
4902554	16	C	07/11/2021	05:08	-136.434	49.640	0	50.80	0	8.1820	0	32.3970	0	25.205	0	50.360	0	-1e10	8	-1e10	8	-1E+10	1	-1E+10	1	-1E+10	1	-1E+10	1	-1E+10	1	-1E+10	1
4902554	16	C	07/11/2021	05:08	-136.434	49.640	0	52.10	0	8.1440	0	32.3990	0	25.212	0	51.649	0	-1e10	8	-1e10	8	-1E+10	1	-1E+10	1	-1E+10	1	-1E+10	1	-1E+10	1	-1E+10	1
4902554	16	C	07/11/2021	05:08	-136.434	49.640	0	53.20	0	8.1240	0	32.3980	0	25.214	0	52.739	0	-1e10	8	-1e10	8	-1E+10	1	-1E+10	1	-1E+10	1	-1E+10	1	-1E+10	1	-1E+10	1
4902554	16	C	07/11/2021	05:08	-136.434	49.640	0	54.00	0	8.1000	0	32.3970	0	25.217	0	53.532	0	-1e10	8	-1e10	8	-1E+10	1	-1E+10	1	-1E+10	1	-1E+10	1	-1E+10	1	-1E+10	1
4902554	16	C	07/11/2021	05:08	-136.434	49.640	0	55.30	0	7.9370	0	32.4100	0	25.250	0	54.820	0	-1e10	8	-1e10	8	-1E+10	1	-1E+10	1	-1E+10	1	-1E+10	1	-1E+10	1	-1E+10	1
4902554	16	C	07/11/2021	05:08	-136.434	49.640	0	56.20	0	7.7640	0	32.4140	0	25.278	0	55.712	0	-1e10	8	-1e10	8	-1E+10	1	-1E+10	1	-1E+10	1	-1E+10	1	-1E+10	1	-1E+10	1
4902554	16	C	07/11/2021	05:08	-136.434	49.640	0	56.90	0	7.6830	0	32.4130	0	25.289	0	56.406	0	-1e10	8	-1e10	8	-1E+10	1	-1E+10	1	-1E+10	1	-1E+10	1	-1E+10	1	-1E+10	1
4902554	16	C	07/11/2021	05:08	-136.434	49.640	0	57.90	0	7.5710	0	32.4220	0	25.312	0	57.397	0	-1e10	8	-1e10	8	-1E+10	1	-1E+10	1	-1E+10	1	-1E+10	1	-1E+10	1	-1E+10	1
4902554	16	C	07/11/2021	05:08	-136.434	49.640	0	58.90	0	7.4100	0	32.4240	0	25.335	0	58.389	0	-1e10	8	-1e10	8	-1E+10	1	-1E+10	1	-1E+10	1	-1E+10	1	-1E+10	1	-1E+10	1
4902554	16	C	07/11/2021	05:08	-136.434	49.640	0	59.90	0	7.3800	0	32.4230	0	25.339	0	59.380	0	-1e10	8	-1e10	8	-1E+10	1	-1E+10	1	-1E+10	1	-1E+10	1	-1E+10	1	-1E+10	1
4902554	16	C	07/11/2021	05:08	-136.434	49.640	0	61.00	0	7.2580	0	32.4260	0	25.358	0	60.470	0	-1e10	8	-1e10	8	-1E+10	1	-1E+10	1	-1E+10	1	-1E+10	1	-1E+10	1	-1E+10	1
4902554	16	C	07/11/2021	05:08	-136.434	49.640	0	62.00	0	7.1370	0	32.4310	0	25.378	0	61.461	0	-1e10	8	-1e10	8	-1E+10	1	-1E+10	1	-1E+10	1	-1E+10	1	-1E+10	1	-1E+10	1
4902554	16	C	07/11/2021	05:08	-136.434	49.640	0	63.10	0	7.0510	0	32.4340	0	25.392	0	62.552	0	-1e10	8	-1e10	8	-1E+10	1	-1E+10	1	-1E+10	1	-1E+10	1	-1E+10	1	-1E+10	1
4902554	16	C	07/11/2021	05:08	-136.434	49.640	0	63.90	0	6.8380	0	32.4610	0	25.442	0	63.344	0	-1e10	8	-1e10	8	-1E+10	1	-1E+10	1	-1E+10	1	-1E+10	1	-1E+10	1	-1E+10	1
4902554	16	C	07/11/2021	05:08	-136.434	49.640	0	64.70	0	6.7830	0	32.4440	0	25.435	0	64.137	0	-1e10	8	-1e10	8	-1E+10	1	-1E+10	1	-1E+10	1	-1E+10	1	-1E+10	1	-1E+10	1
4902554	16	C	07/11/2021	05:08	-136.434	49.640	0	65.90	0	6.7310	0	32.4420	0	25.441	0	65.327	0	-1e10	8	-1e10	8	-1E+10	1	-1E+10	1	-1E+10	1	-1E+10	1	-1E+10	1	-1E+10	1
4902554	16	C	07/11/2021	05:08	-136.434	49.640	0	67.00	0	6.6040	0	32.4470	0	25.461	0	66.417	0	-1e10	8	-1e10	8	-1E+10	1	-1E+10	1	-1E+10	1	-1E+10	1	-1E+10	1	-1E+10	1
4902554	16	C	07/11/2021	05:08	-136.434	49.640	0	67.90	0	6.5770	0	32.4480	0	25.465	0	67.309	0	-1e10	8	-1e10	8	-1E+10	1	-1E+10	1	-1E+10	1	-1E+10	1	-1E+10	1	-1E+10	1
4902554	16	C	07/11/2021	05:08	-136.434	49.640	0	68.70	0	6.5530	0	32.4510	0	25.471	0	68.102	0	-1e10	8	-1e10	8	-1E+10	1	-1E+10	1	-1E+10	1	-1E+10	1	-1E+10	1	-1E+10	1
4902554	16	C	07/11/2021	05:08	-136.434	49.640	0	69.90	0	6.5000	0	32.4500	0	25.477	0	69.291	0	-1e10	8	-1e10	8	-1E+10	1	-1E+10	1	-1E+10	1	-1E+10	1	-1E+10	1	-1E+10	1
4902554	16	C	07/11/2021	05:08	-136.434	49.640	0	71.00	0	6.4500	0	32.4500	0	25.483	0	70.382	0	-1e10	8	-1e10	8	-1E+10	1	-1E+10	1	-1E+10	1	-1E+10	1	-1E+10	1	-1E+10	1
4902554	16	C	07/11/2021	05:08	-136.434	49.640	0	72.10	0	6.4310	0	32.4480	0	25.484	0	71.472	0	-1e10	8	-1e10	8	-1E+10	1	-1E+10	1	-1E+10	1	-1E+10	1	-1E+10	1	-1E+10	1
4902554	16	C	07/11/2021	05:08	-136.434	49.640	0	73.00	0	6.4210	0	32.4490	0	25.486	0	72.364	0	-1e10	8	-1e10	8	-1E+10	1	-1E+10	1	-1E+10	1	-1E+10	1	-1E+10	1	-1E+10	1
4902554	16	C	07/11/2021	05:08	-136.434	49.640	0	73.80	0	6.3900	0	32.4490	0	25.490	0	73.157	0	-1e10	8	-1e10	8	-1E+10	1	-1E+10	1	-1E+10	1	-1E+10	1	-1E+10	1	-1E+10	1
4902554	16	C	07/11/2021	05:08	-136.434	49.640	0	74.90	0	6.3820	0	32.4540	0	25.495	0	74.247	0	-1e10	8	-1e10	8	-1E+10	1	-1E+10	1	-1E+10	1	-1E+10	1	-1E+10	1	-1E+10	1
4902554	16	C	07/11/2021	05:08	-136.434	49.640	0	76.10	0	6.3530	0	32.4590	0	25.502	0	75.436	0	-1e10	8	-1e10	8	-1E+10	1	-1E+10	1	-1E+10	1	-1E+10	1	-1E+10	1	-1E+10	1
4902554	16	C	07/11/2021	05:08	-136.434	49.640	0	76.90	0	6.3490	0	32.4570	0	25.501	0	76.229	0	-1e10	8	-1e10	8	-1E+10	1	-1E+10	1	-1E+10	1	-1E+10	1	-1E+10	1	-1E+10	1
4902554	16	C	07/11/2021	05:08	-136.434	49.640	0	77.80	0	6.3300	0	32.4580	0	25.505	0	77.121	0	-1e10	8	-1e10	8	-1E+10	1	-1E+10	1	-1E+10	1	-1E+10	1	-1E+10	1	-1E+10	1
4902554	16	C	07/11/2021	05:08	-136.434	49.640	0	79.00	0	6.2840	0	32.4610	0	25.513	0	78.310	0	-1e10	8	-1e10	8	-1E+10	1	-1E+10	1	-1E+10	1	-1E+10	1	-1E+10	1	-1E+10	1
4902554	16	C	07/11/2021	05:08	-136.434	49.640	0	79.90	0	6.2470	0	32.4640	0	25.520	0	79.202	0	-1e10	8	-1e10	8	-1E+10	1	-1E+10	1	-1E+10	1	-1E+10	1	-1E+10	1	-1E+10	1
4902554	16	C	07/11/2021	05:08	-136.434	49.640	0	80.70	0	6.2240	0	32.4680	0	25.526	0	79.995	0	-1e10	8	-1e10	8	-1E+10	1	-1E+10	1	-1E+10	1	-1E+10	1	-1E+10	1	-1E+10	1
4902554	16	C	07/11/2021	05:08	-136.434	49.640	0	81.80	0	6.1820	0	32.4700	0	25.532	0	81.085	0	-1e10	8	-1e10	8	-1E+10	1	-1E+10	1	-1E+10	1	-1E+10	1	-1E+10	1	-1E+10	1
4902554	16	C	07/11/2021	05:08	-136.434	49.640	0	83.00	0	6.1710	0	32.4710	0	25.535	0	82.275	0	-1e10	8	-1e10	8	-1E+10	1	-1E+10	1	-1E+10	1	-1E+10	1	-1E+10	1	-1E+10	1
4902554	16	C	07/11/2021	05:08	-136.434	49.640	0	84.00	0	6.1370	0	32.4710	0	25.539	0	83.266	0	-1e10	8	-1e10	8	-1E+10	1	-1E+10	1	-1E+10	1	-1E+10	1	-1E+10	1	-1E+10	1
4902554	16	C	07/11/2021	05:08	-136.434	49.640	0	84.90	0	6.0870	0	32.4740	0	25.547	0	84.158	0	-1e10	8	-1e10	8	-1E+10	1	-1E+10	1	-1E+10	1	-1E+10	1	-1E+10	1	-1E+10	1
4902554	16	C	07/11/2021	05:08	-136.434	49.640	0	86.10	0	6.0450	0	32.4770	0	25.555	0	85.347	0	-1e10	8	-1e10	8	-1E+10	1	-1E+10	1	-1E+10	1	-1E+10	1	-1E+10	1	-1E+10	1
4902554	16	C	07/11/2021	05:08	-136.434	49.640	0	87.00	0	6.0410	0	32.4780	0	25.556	0	86.239	0	-1e10	8	-1e10	8	-1E+10	1	-1E+10	1	-1E+10	1	-1E+10	1	-1E+10	1	-1E+10	1
4902554	16	C	07/11/2021	05:08	-136.434	49.640	0	87.90	0	6.0380	0	32.4780	0	25.557	0	87.131	0	-1e10	8	-1e10	8	-1E+10	1	-1E+10	1	-1E+10	1	-1E+10	1	-1E+10	1	-1E+10	1
4902554	16	C	07/11/2021	05:08	-136.434	49.640	0	88.90	0	6.0300	0	32.4810	0	25.560	0	88.122	0	-1e10	8	-1e10	8	-1E+10	1	-1E+10	1	-1E+10	1	-1E+10	1	-1E+10	1	-1E+10	1
4902554	16	C	07/11/2021	05:08	-136.434	49.640	0	90.00	0	6.0040	0	32.4830	0	25.565	0	89.212	0	-1e10	8	-1e10	8	-1E+10	1	-1E+10	1	-1E+10	1	-1E+10	1	-1E+10	1	-1E+10	1
4902554	16	C	07/11/2021	05:08	-136.434	49.640	0	91.10	0	5.9910	0	32.4850	0	25.568	0	90.302	0	-1e10	8	-1e10	8	-1E+10	1	-1E+10	1	-1E+10	1	-1E+10	1	-1E+10	1	-1E+10	1
4902554	16	C	07/11/2021	05:08	-136.434	49.640	0	91.80	0	5.9840	0	32.4840	0	25.568	0	90.996	0	-1e10	8	-1e10	8	-1E+10	1	-1E+10	1	-1E+10	1	-1E+10	1	-1E+10	1	-1E+10	1
4902554	16	C	07/11/2021	05:08	-136.434	49.640	0	93.00	0	5.9710	0	32.4840	0	25.570	0	92.185	0	-1e10	8	-1e10	8	-1E+10	1	-1E+10	1	-1E+10	1	-1E+10	1	-1E+10	1	-1E+10	1
4902554	16	C	07/11/2021	05:08	-136.434	49.640	0	94.10	0	5.9720	0	32.4900	0	25.574	0	93.275	0	-1e10	8	-1e10	8	-1E+10	1	-1E+10	1	-1E+10	1	-1E+10	1	-1E+10	1	-1E+10	1
4902554	16	C	07/11/2021	05:08	-136.434	49.640	0	94.90	0	5.9640	0	32.4910	0	25.576	0	94.068	0	-1e10	8	-1e10	8	-1E+10	1	-1E+10	1	-1E+10	1	-1E+10	1	-1E+10	1	-1E+10	1
4902554	16	C	07/11/2021	05:08	-136.434	49.640	0	96.10	0	5.9320	0	32.4920	0	25.581	0	95.257	0	-1e10	8	-1e10	8	-1E+10	1	-1E+10	1	-1E+10	1	-1E+10	1	-1E+10	1	-1E+10	1
4902554	16	C	07/11/2021	05:08	-136.434	49.640	0	97.10	0	5.8840	0	32.4880	0	25.583	0	96.248	0	-1e10	8	-1e10	8	-1E+10	1	-1E+10	1	-1E+10	1	-1E+10	1	-1E+10	1	-1E+10	1
4902554	16	C	07/11/2021	05:08	-136.434	49.640	0	98.20	0	5.8900	0	32.4940	0	25.587	0	97.338	0	-1e10	8	-1e10	8	-1E+10	1	-1E+10	1	-1E+10	1	-1E+10	1	-1E+10	1	-1E+10	1
4902554	16	C	07/11/2021	05:08	-136.434	49.640	0	99.10	0	5.8710	0	32.4930	0	25.589	0	98.230	0	-1e10	8	-1e10	8	-1E+10	1	-1E+10	1	-1E+10	1	-1E+10	1	-1E+10	1	-1E+10	1
4902554	16	C	07/11/2021	05:08	-136.434	49.640	0	100.00	0	5.8620	0	32.4930	0	25.590	0	99.122	0	-1e10	8	-1e10	8	-1E+10	1	-1E+10	1	-1E+10	1	-1E+10	1	-1E+10	1	-1E+10	1
4902554	16	C	07/11/2021	05:08	-136.434	49.640	0	101.30	0	5.8470	0	32.4950	0	25.593	0	100.410	0	-1e10	8	-1e10	8	-1E+10	1	-1E+10	1	-1E+10	1	-1E+10	1	-1E+10	1	-1E+10	1
4902554	16	C	07/11/2021	05:08	-136.434	49.640	0	101.90	0	5.8470	0	32.4980	0	25.596	0	101.005	0	-1e10	8	-1e10	8	-1E+10	1	-1E+10	1	-1E+10	1	-1E+10	1	-1E+10	1	-1E+10	1
4902554	16	C	07/11/2021	05:08	-136.434	49.640	0	103.10	0	5.8590	0	32.5070	0	25.601	0	102.194	0	-1e10	8	-1e10	8	-1E+10	1	-1E+10	1	-1E+10	1	-1E+10	1	-1E+10	1	-1E+10	1
4902554	16	C	07/11/2021	05:08	-136.434	49.640	0	103.80	0	5.8710	0	32.5120	0	25.604	0	102.888	0	-1e10	8	-1e10	8	-1E+10	1	-1E+10	1	-1E+10	1	-1E+10	1	-1E+10	1	-1E+10	1
4902554	16	C	07/11/2021	05:08	-136.434	49.640	0	104.90	0	5.8730	0	32.5310	0	25.619	0	103.978	0	-1e10	8	-1e10	8	-1E+10	1	-1E+10	1	-1E+10	1	-1E+10	1	-1E+10	1	-1E+10	1
4902554	16	C	07/11/2021	05:08	-136.434	49.640	0	106.00	0	5.8580	0	32.5570	0	25.641	0	105.068	0	-1e10	8	-1e10	8	-1E+10	1	-1E+10	1	-1E+10	1	-1E+10	1	-1E+10	1	-1E+10	1
4902554	16	C	07/11/2021	05:08	-136.434	49.640	0	107.10	0	5.8690	0	32.5660	0	25.647	0	106.158	0	-1e10	8	-1e10	8	-1E+10	1	-1E+10	1	-1E+10	1	-1E+10	1	-1E+10	1	-1E+10	1
4902554	16	C	07/11/2021	05:08	-136.434	49.640	0	107.90	0	5.8780	0	32.5720	0	25.650	0	106.951	0	-1e10	8	-1e10	8	-1E+10	1	-1E+10	1	-1E+10	1	-1E+10	1	-1E+10	1	-1E+10	1
4902554	16	C	07/11/2021	05:08	-136.434	49.640	0	108.80	0	5.8830	0	32.5760	0	25.653	0	107.842	0	-1e10	8	-1e10	8	-1E+10	1	-1E+10	1	-1E+10	1	-1E+10	1	-1E+10	1	-1E+10	1
4902554	16	C	07/11/2021	05:08	-136.434	49.640	0	109.90	0	5.8890	0	32.5810	0	25.656	0	108.932	0	-1e10	8	-1e10	8	-1E+10	1	-1E+10	1	-1E+10	1	-1E+10	1	-1E+10	1	-1E+10	1
4902554	16	C	07/11/2021	05:08	-136.434	49.640	0	111.10	0	5.8850	0	32.6220	0	25.689	0	110.122	0	-1e10	8	-1e10	8	-1E+10	1	-1E+10	1	-1E+10	1	-1E+10	1	-1E+10	1	-1E+10	1
4902554	16	C	07/11/2021	05:08	-136.434	49.640	0	112.10	0	5.8950	0	32.6540	0	25.713	0	111.112	0	-1e10	8	-1e10	8	-1E+10	1	-1E+10	1	-1E+10	1	-1E+10	1	-1E+10	1	-1E+10	1
4902554	16	C	07/11/2021	05:08	-136.434	49.640	0	113.00	0	5.9080	0	32.6860	0	25.737	0	112.004	0	-1e10	8	-1e10	8	-1E+10	1	-1E+10	1	-1E+10	1	-1E+10	1	-1E+10	1	-1E+10	1
4902554	16	C	07/11/2021	05:08	-136.434	49.640	0	114.10	0	5.9170	0	32.7040	0	25.750	0	113.094	0	-1e10	8	-1e10	8	-1E+10	1	-1E+10	1	-1E+10	1	-1E+10	1	-1E+10	1	-1E+10	1
4902554	16	C	07/11/2021	05:08	-136.434	49.640	0	115.00	0	5.9220	0	32.7320	0	25.772	0	113.986	0	-1e10	8	-1e10	8	-1E+10	1	-1E+10	1	-1E+10	1	-1E+10	1	-1E+10	1	-1E+10	1
4902554	16	C	07/11/2021	05:08	-136.434	49.640	0	116.10	0	5.9390	0	32.7670	0	25.797	0	115.076	0	-1e10	8	-1e10	8	-1E+10	1	-1E+10	1	-1E+10	1	-1E+10	1	-1E+10	1	-1E+10	1
4902554	16	C	07/11/2021	05:08	-136.434	49.640	0	117.10	0	5.9420	0	32.7750	0	25.803	0	116.067	0	-1e10	8	-1e10	8	-1E+10	1	-1E+10	1	-1E+10	1	-1E+10	1	-1E+10	1	-1E+10	1
4902554	16	C	07/11/2021	05:08	-136.434	49.640	0	118.10	0	5.9470	0	32.7910	0	25.815	0	117.058	0	-1e10	8	-1e10	8	-1E+10	1	-1E+10	1	-1E+10	1	-1E+10	1	-1E+10	1	-1E+10	1
4902554	16	C	07/11/2021	05:08	-136.434	49.640	0	119.10	0	5.9550	0	32.8120	0	25.831	0	118.049	0	-1e10	8	-1e10	8	-1E+10	1	-1E+10	1	-1E+10	1	-1E+10	1	-1E+10	1	-1E+10	1
4902554	16	C	07/11/2021	05:08	-136.434	49.640	0	120.20	0	5.9750	0	32.8590	0	25.866	0	119.139	0	-1e10	8	-1e10	8	-1E+10	1	-1E+10	1	-1E+10	1	-1E+10	1	-1E+10	1	-1E+10	1
4902554	16	C	07/11/2021	05:08	-136.434	49.640	0	121.00	0	6.0070	0	32.9390	0	25.925	0	119.931	0	-1e10	8	-1e10	8	-1E+10	1	-1E+10	1	-1E+10	1	-1E+10	1	-1E+10	1	-1E+10	1
4902554	16	C	07/11/2021	05:08	-136.434	49.640	0	121.80	0	6.0240	0	33.0000	0	25.971	0	120.724	0	-1e10	8	-1e10	8	-1E+10	1	-1E+10	1	-1E+10	1	-1E+10	1	-1E+10	1	-1E+10	1
4902554	16	C	07/11/2021	05:08	-136.434	49.640	0	123.00	0	6.0370	0	33.0300	0	25.993	0	121.913	0	-1e10	8	-1e10	8	-1E+10	1	-1E+10	1	-1E+10	1	-1E+10	1	-1E+10	1	-1E+10	1
4902554	16	C	07/11/2021	05:08	-136.434	49.640	0	124.20	0	6.0510	0	33.0610	0	26.016	0	123.102	0	-1e10	8	-1e10	8	-1E+10	1	-1E+10	1	-1E+10	1	-1E+10	1	-1E+10	1	-1E+10	1
4902554	16	C	07/11/2021	05:08	-136.434	49.640	0	125.00	0	6.0550	0	33.0760	0	26.027	0	123.895	0	-1e10	8	-1e10	8	-1E+10	1	-1E+10	1	-1E+10	1	-1E+10	1	-1E+10	1	-1E+10	1
4902554	16	C	07/11/2021	05:08	-136.434	49.640	0	125.80	0	6.0700	0	33.0950	0	26.040	0	124.688	0	-1e10	8	-1e10	8	-1E+10	1	-1E+10	1	-1E+10	1	-1E+10	1	-1E+10	1	-1E+10	1
4902554	16	C	07/11/2021	05:08	-136.434	49.640	0	126.60	0	6.0700	0	33.1130	0	26.055	0	125.480	0	-1e10	8	-1e10	8	-1E+10	1	-1E+10	1	-1E+10	1	-1E+10	1	-1E+10	1	-1E+10	1
4902554	16	C	07/11/2021	05:08	-136.434	49.640	0	127.90	0	6.0750	0	33.1360	0	26.072	0	126.768	0	-1e10	8	-1e10	8	-1E+10	1	-1E+10	1	-1E+10	1	-1E+10	1	-1E+10	1	-1E+10	1
4902554	16	C	07/11/2021	05:08	-136.434	49.640	0	129.10	0	6.0870	0	33.1770	0	26.103	0	127.957	0	-1e10	8	-1e10	8	-1E+10	1	-1E+10	1	-1E+10	1	-1E+10	1	-1E+10	1	-1E+10	1
4902554	16	C	07/11/2021	05:08	-136.434	49.640	0	130.00	0	6.1060	0	33.2240	0	26.138	0	128.849	0	-1e10	8	-1e10	8	-1E+10	1	-1E+10	1	-1E+10	1	-1E+10	1	-1E+10	1	-1E+10	1
4902554	16	C	07/11/2021	05:08	-136.434	49.640	0	130.90	0	6.1360	0	33.2490	0	26.154	0	129.741	0	-1e10	8	-1e10	8	-1E+10	1	-1E+10	1	-1E+10	1	-1E+10	1	-1E+10	1	-1E+10	1
4902554	16	C	07/11/2021	05:08	-136.434	49.640	0	131.80	0	6.1600	0	33.3230	0	26.209	0	130.633	0	-1e10	8	-1e10	8	-1E+10	1	-1E+10	1	-1E+10	1	-1E+10	1	-1E+10	1	-1E+10	1
4902554	16	C	07/11/2021	05:08	-136.434	49.640	0	132.70	0	6.1500	0	33.3280	0	26.214	0	131.524	0	-1e10	8	-1e10	8	-1E+10	1	-1E+10	1	-1E+10	1	-1E+10	1	-1E+10	1	-1E+10	1
4902554	16	C	07/11/2021	05:08	-136.434	49.640	0	134.00	0	6.1540	0	33.3480	0	26.230	0	132.812	0	-1e10	8	-1e10	8	-1E+10	1	-1E+10	1	-1E+10	1	-1E+10	1	-1E+10	1	-1E+10	1
4902554	16	C	07/11/2021	05:08	-136.434	49.640	0	135.30	0	6.1560	0	33.3750	0	26.251	0	134.101	0	-1e10	8	-1e10	8	-1E+10	1	-1E+10	1	-1E+10	1	-1E+10	1	-1E+10	1	-1E+10	1
4902554	16	C	07/11/2021	05:08	-136.434	49.640	0	136.30	0	6.1600	0	33.4330	0	26.296	0	135.091	0	-1e10	8	-1e10	8	-1E+10	1	-1E+10	1	-1E+10	1	-1E+10	1	-1E+10	1	-1E+10	1
4902554	16	C	07/11/2021	05:08	-136.434	49.640	0	137.40	0	6.1590	0	33.4580	0	26.316	0	136.181	0	-1e10	8	-1e10	8	-1E+10	1	-1E+10	1	-1E+10	1	-1E+10	1	-1E+10	1	-1E+10	1
4902554	16	C	07/11/2021	05:08	-136.434	49.640	0	138.30	0	6.1590	0	33.4660	0	26.322	0	137.073	0	-1e10	8	-1e10	8	-1E+10	1	-1E+10	1	-1E+10	1	-1E+10	1	-1E+10	1	-1E+10	1
4902554	16	C	07/11/2021	05:08	-136.434	49.640	0	139.40	0	6.1580	0	33.4790	0	26.333	0	138.163	0	-1e10	8	-1e10	8	-1E+10	1	-1E+10	1	-1E+10	1	-1E+10	1	-1E+10	1	-1E+10	1
4902554	16	C	07/11/2021	05:08	-136.434	49.640	0	140.30	0	6.1590	0	33.4810	0	26.334	0	139.055	0	-1e10	8	-1e10	8	-1E+10	1	-1E+10	1	-1E+10	1	-1E+10	1	-1E+10	1	-1E+10	1
4902554	16	C	07/11/2021	05:08	-136.434	49.640	0	141.40	0	6.1580	0	33.4900	0	26.341	0	140.144	0	-1e10	8	-1e10	8	-1E+10	1	-1E+10	1	-1E+10	1	-1E+10	1	-1E+10	1	-1E+10	1
4902554	16	C	07/11/2021	05:08	-136.434	49.640	0	142.40	0	6.1570	0	33.5040	0	26.353	0	141.135	0	-1e10	8	-1e10	8	-1E+10	1	-1E+10	1	-1E+10	1	-1E+10	1	-1E+10	1	-1E+10	1
4902554	16	C	07/11/2021	05:08	-136.434	49.640	0	143.50	0	6.1620	0	33.5450	0	26.384	0	142.225	0	-1e10	8	-1e10	8	-1E+10	1	-1E+10	1	-1E+10	1	-1E+10	1	-1E+10	1	-1E+10	1
4902554	16	C	07/11/2021	05:08	-136.434	49.640	0	144.50	0	6.1750	0	33.5650	0	26.398	0	143.216	0	-1e10	8	-1e10	8	-1E+10	1	-1E+10	1	-1E+10	1	-1E+10	1	-1E+10	1	-1E+10	1
4902554	16	C	07/11/2021	05:08	-136.434	49.640	0	145.50	0	6.1770	0	33.5680	0	26.401	0	144.207	0	-1e10	8	-1e10	8	-1E+10	1	-1E+10	1	-1E+10	1	-1E+10	1	-1E+10	1	-1E+10	1
4902554	16	C	07/11/2021	05:08	-136.434	49.640	0	146.60	0	6.1750	0	33.5800	0	26.410	0	145.296	0	-1e10	8	-1e10	8	-1E+10	1	-1E+10	1	-1E+10	1	-1E+10	1	-1E+10	1	-1E+10	1
4902554	16	C	07/11/2021	05:08	-136.434	49.640	0	147.60	0	6.1760	0	33.5900	0	26.418	0	146.287	0	-1e10	8	-1e10	8	-1E+10	1	-1E+10	1	-1E+10	1	-1E+10	1	-1E+10	1	-1E+10	1
4902554	16	C	07/11/2021	05:08	-136.434	49.640	0	148.70	0	6.1710	0	33.6060	0	26.431	0	147.377	0	-1e10	8	-1e10	8	-1E+10	1	-1E+10	1	-1E+10	1	-1E+10	1	-1E+10	1	-1E+10	1
4902554	16	C	07/11/2021	05:08	-136.434	49.640	0	149.70	0	6.1610	0	33.6270	0	26.449	0	148.368	0	-1e10	8	-1e10	8	-1E+10	1	-1E+10	1	-1E+10	1	-1E+10	1	-1E+10	1	-1E+10	1
4902554	16	C	07/11/2021	05:08	-136.434	49.640	0	150.80	0	6.1580	0	33.6290	0	26.451	0	149.458	0	-1e10	8	-1e10	8	-1E+10	1	-1E+10	1	-1E+10	1	-1E+10	1	-1E+10	1	-1E+10	1
4902554	16	C	07/11/2021	05:08	-136.434	49.640	0	151.80	0	6.1520	0	33.6320	0	26.454	0	150.448	0	-1e10	8	-1e10	8	-1E+10	1	-1E+10	1	-1E+10	1	-1E+10	1	-1E+10	1	-1E+10	1
4902554	16	C	07/11/2021	05:08	-136.434	49.640	0	152.80	0	6.1360	0	33.6440	0	26.466	0	151.439	0	-1e10	8	-1e10	8	-1E+10	1	-1E+10	1	-1E+10	1	-1E+10	1	-1E+10	1	-1E+10	1
4902554	16	C	07/11/2021	05:08	-136.434	49.640	0	153.80	0	6.1170	0	33.6520	0	26.475	0	152.430	0	-1e10	8	-1e10	8	-1E+10	1	-1E+10	1	-1E+10	1	-1E+10	1	-1E+10	1	-1E+10	1
4902554	16	C	07/11/2021	05:08	-136.434	49.640	0	155.00	0	6.1090	0	33.6630	0	26.484	0	153.619	0	-1e10	8	-1e10	8	-1E+10	1	-1E+10	1	-1E+10	1	-1E+10	1	-1E+10	1	-1E+10	1
4902554	16	C	07/11/2021	05:08	-136.434	49.640	0	156.20	0	6.1000	0	33.6720	0	26.493	0	154.807	0	-1e10	8	-1e10	8	-1E+10	1	-1E+10	1	-1E+10	1	-1E+10	1	-1E+10	1	-1E+10	1
4902554	16	C	07/11/2021	05:08	-136.434	49.640	0	157.00	0	6.0920	0	33.6790	0	26.499	0	155.600	0	-1e10	8	-1e10	8	-1E+10	1	-1E+10	1	-1E+10	1	-1E+10	1	-1E+10	1	-1E+10	1
4902554	16	C	07/11/2021	05:08	-136.434	49.640	0	157.80	0	6.0870	0	33.6820	0	26.502	0	156.393	0	-1e10	8	-1e10	8	-1E+10	1	-1E+10	1	-1E+10	1	-1E+10	1	-1E+10	1	-1E+10	1
4902554	16	C	07/11/2021	05:08	-136.434	49.640	0	158.90	0	6.0910	0	33.6850	0	26.504	0	157.482	0	-1e10	8	-1e10	8	-1E+10	1	-1E+10	1	-1E+10	1	-1E+10	1	-1E+10	1	-1E+10	1
4902554	16	C	07/11/2021	05:08	-136.434	49.640	0	160.10	0	6.0840	0	33.6960	0	26.514	0	158.671	0	-1e10	8	-1e10	8	-1E+10	1	-1E+10	1	-1E+10	1	-1E+10	1	-1E+10	1	-1E+10	1
4902554	16	C	07/11/2021	05:08	-136.434	49.640	0	160.90	0	6.0670	0	33.7120	0	26.528	0	159.464	0	-1e10	8	-1e10	8	-1E+10	1	-1E+10	1	-1E+10	1	-1E+10	1	-1E+10	1	-1E+10	1
4902554	16	C	07/11/2021	05:08	-136.434	49.640	0	161.70	0	6.0440	0	33.7200	0	26.538	0	160.256	0	-1e10	8	-1e10	8	-1E+10	1	-1E+10	1	-1E+10	1	-1E+10	1	-1E+10	1	-1E+10	1
4902554	16	C	07/11/2021	05:08	-136.434	49.640	0	162.90	0	6.0210	0	33.7280	0	26.547	0	161.445	0	-1e10	8	-1e10	8	-1E+10	1	-1E+10	1	-1E+10	1	-1E+10	1	-1E+10	1	-1E+10	1
4902554	16	C	07/11/2021	05:08	-136.434	49.640	0	164.20	0	5.9940	0	33.7370	0	26.557	0	162.733	0	-1e10	8	-1e10	8	-1E+10	1	-1E+10	1	-1E+10	1	-1E+10	1	-1E+10	1	-1E+10	1
4902554	16	C	07/11/2021	05:08	-136.434	49.640	0	165.00	0	5.9900	0	33.7370	0	26.558	0	163.525	0	-1e10	8	-1e10	8	-1E+10	1	-1E+10	1	-1E+10	1	-1E+10	1	-1E+10	1	-1E+10	1
4902554	16	C	07/11/2021	05:08	-136.434	49.640	0	165.80	0	5.9690	0	33.7440	0	26.566	0	164.318	0	-1e10	8	-1e10	8	-1E+10	1	-1E+10	1	-1E+10	1	-1E+10	1	-1E+10	1	-1E+10	1
4902554	16	C	07/11/2021	05:08	-136.434	49.640	0	166.60	0	5.9690	0	33.7420	0	26.564	0	165.111	0	-1e10	8	-1e10	8	-1E+10	1	-1E+10	1	-1E+10	1	-1E+10	1	-1E+10	1	-1E+10	1
4902554	16	C	07/11/2021	05:08	-136.434	49.640	0	167.90	0	5.9520	0	33.7450	0	26.569	0	166.398	0	-1e10	8	-1e10	8	-1E+10	1	-1E+10	1	-1E+10	1	-1E+10	1	-1E+10	1	-1E+10	1
4902554	16	C	07/11/2021	05:08	-136.434	49.640	0	169.10	0	5.9430	0	33.7470	0	26.572	0	167.587	0	-1e10	8	-1e10	8	-1E+10	1	-1E+10	1	-1E+10	1	-1E+10	1	-1E+10	1	-1E+10	1
4902554	16	C	07/11/2021	05:08	-136.434	49.640	0	170.00	0	5.9370	0	33.7480	0	26.573	0	168.479	0	-1e10	8	-1e10	8	-1E+10	1	-1E+10	1	-1E+10	1	-1E+10	1	-1E+10	1	-1E+10	1
4902554	16	C	07/11/2021	05:08	-136.434	49.640	0	170.80	0	5.9220	0	33.7520	0	26.578	0	169.271	0	-1e10	8	-1e10	8	-1E+10	1	-1E+10	1	-1E+10	1	-1E+10	1	-1E+10	1	-1E+10	1
4902554	16	C	07/11/2021	05:08	-136.434	49.640	0	171.70	0	5.9130	0	33.7550	0	26.582	0	170.163	0	-1e10	8	-1e10	8	-1E+10	1	-1E+10	1	-1E+10	1	-1E+10	1	-1E+10	1	-1E+10	1
4902554	16	C	07/11/2021	05:08	-136.434	49.640	0	172.90	0	5.8950	0	33.7550	0	26.584	0	171.352	0	-1e10	8	-1e10	8	-1E+10	1	-1E+10	1	-1E+10	1	-1E+10	1	-1E+10	1	-1E+10	1
4902554	16	C	07/11/2021	05:08	-136.434	49.640	0	174.20	0	5.8800	0	33.7580	0	26.588	0	172.639	0	-1e10	8	-1e10	8	-1E+10	1	-1E+10	1	-1E+10	1	-1E+10	1	-1E+10	1	-1E+10	1
4902554	16	C	07/11/2021	05:08	-136.434	49.640	0	175.10	0	5.8630	0	33.7620	0	26.593	0	173.531	0	-1e10	8	-1e10	8	-1E+10	1	-1E+10	1	-1E+10	1	-1E+10	1	-1E+10	1	-1E+10	1
4902554	16	C	07/11/2021	05:08	-136.434	49.640	0	175.90	0	5.8500	0	33.7640	0	26.597	0	174.323	0	-1e10	8	-1e10	8	-1E+10	1	-1E+10	1	-1E+10	1	-1E+10	1	-1E+10	1	-1E+10	1
4902554	16	C	07/11/2021	05:08	-136.434	49.640	0	176.80	0	5.8400	0	33.7670	0	26.600	0	175.215	0	-1e10	8	-1e10	8	-1E+10	1	-1E+10	1	-1E+10	1	-1E+10	1	-1E+10	1	-1E+10	1
4902554	16	C	07/11/2021	05:08	-136.434	49.640	0	177.70	0	5.8290	0	33.7690	0	26.603	0	176.107	0	-1e10	8	-1e10	8	-1E+10	1	-1E+10	1	-1E+10	1	-1E+10	1	-1E+10	1	-1E+10	1
4902554	16	C	07/11/2021	05:08	-136.434	49.640	0	178.60	0	5.8170	0	33.7760	0	26.610	0	176.998	0	-1e10	8	-1e10	8	-1E+10	1	-1E+10	1	-1E+10	1	-1E+10	1	-1E+10	1	-1E+10	1
4902554	16	C	07/11/2021	05:08	-136.434	49.640	0	179.90	0	5.8100	0	33.7790	0	26.613	0	178.286	0	-1e10	8	-1e10	8	-1E+10	1	-1E+10	1	-1E+10	1	-1E+10	1	-1E+10	1	-1E+10	1
4902554	16	C	07/11/2021	05:08	-136.434	49.640	0	181.30	0	5.8010	0	33.7810	0	26.616	0	179.673	0	-1e10	8	-1e10	8	-1E+10	1	-1E+10	1	-1E+10	1	-1E+10	1	-1E+10	1	-1E+10	1
4902554	16	C	07/11/2021	05:08	-136.434	49.640	0	182.20	0	5.7930	0	33.7830	0	26.619	0	180.564	0	-1e10	8	-1e10	8	-1E+10	1	-1E+10	1	-1E+10	1	-1E+10	1	-1E+10	1	-1E+10	1
4902554	16	C	07/11/2021	05:08	-136.434	49.640	0	183.10	0	5.7910	0	33.7850	0	26.621	0	181.456	0	-1e10	8	-1e10	8	-1E+10	1	-1E+10	1	-1E+10	1	-1E+10	1	-1E+10	1	-1E+10	1
4902554	16	C	07/11/2021	05:08	-136.434	49.640	0	184.00	0	5.7790	0	33.7920	0	26.628	0	182.347	0	-1e10	8	-1e10	8	-1E+10	1	-1E+10	1	-1E+10	1	-1E+10	1	-1E+10	1	-1E+10	1
4902554	16	C	07/11/2021	05:08	-136.434	49.640	0	184.90	0	5.7680	0	33.7910	0	26.628	0	183.239	0	-1e10	8	-1e10	8	-1E+10	1	-1E+10	1	-1E+10	1	-1E+10	1	-1E+10	1	-1E+10	1
4902554	16	C	07/11/2021	05:08	-136.434	49.640	0	185.80	0	5.7540	0	33.7950	0	26.633	0	184.130	0	-1e10	8	-1e10	8	-1E+10	1	-1E+10	1	-1E+10	1	-1E+10	1	-1E+10	1	-1E+10	1
4902554	16	C	07/11/2021	05:08	-136.434	49.640	0	186.70	0	5.7240	0	33.7970	0	26.638	0	185.022	0	-1e10	8	-1e10	8	-1E+10	1	-1E+10	1	-1E+10	1	-1E+10	1	-1E+10	1	-1E+10	1
4902554	16	C	07/11/2021	05:08	-136.434	49.640	0	187.70	0	5.7190	0	33.7960	0	26.638	0	186.012	0	-1e10	8	-1e10	8	-1E+10	1	-1E+10	1	-1E+10	1	-1E+10	1	-1E+10	1	-1E+10	1
4902554	16	C	07/11/2021	05:08	-136.434	49.640	0	188.60	0	5.6740	0	33.8010	0	26.647	0	186.904	0	-1e10	8	-1e10	8	-1E+10	1	-1E+10	1	-1E+10	1	-1E+10	1	-1E+10	1	-1E+10	1
4902554	16	C	07/11/2021	05:08	-136.434	49.640	0	189.60	0	5.6500	0	33.8000	0	26.650	0	187.894	0	-1e10	8	-1e10	8	-1E+10	1	-1E+10	1	-1E+10	1	-1E+10	1	-1E+10	1	-1E+10	1
4902554	16	C	07/11/2021	05:08	-136.434	49.640	0	190.50	0	5.6200	0	33.8020	0	26.655	0	188.786	0	-1e10	8	-1e10	8	-1E+10	1	-1E+10	1	-1E+10	1	-1E+10	1	-1E+10	1	-1E+10	1
4902554	16	C	07/11/2021	05:08	-136.434	49.640	0	191.90	0	5.6000	0	33.8050	0	26.660	0	190.173	0	-1e10	8	-1e10	8	-1E+10	1	-1E+10	1	-1E+10	1	-1E+10	1	-1E+10	1	-1E+10	1
4902554	16	C	07/11/2021	05:08	-136.434	49.640	0	193.40	0	5.5840	0	33.8050	0	26.662	0	191.659	0	-1e10	8	-1e10	8	-1E+10	1	-1E+10	1	-1E+10	1	-1E+10	1	-1E+10	1	-1E+10	1
4902554	16	C	07/11/2021	05:08	-136.434	49.640	0	194.30	0	5.5740	0	33.8040	0	26.662	0	192.550	0	-1e10	8	-1e10	8	-1E+10	1	-1E+10	1	-1E+10	1	-1E+10	1	-1E+10	1	-1E+10	1
4902554	16	C	07/11/2021	05:08	-136.434	49.640	0	195.40	0	5.5610	0	33.8070	0	26.666	0	193.640	0	-1e10	8	-1e10	8	-1E+10	1	-1E+10	1	-1E+10	1	-1E+10	1	-1E+10	1	-1E+10	1
4902554	16	C	07/11/2021	05:08	-136.434	49.640	0	196.30	0	5.5420	0	33.8070	0	26.668	0	194.531	0	-1e10	8	-1e10	8	-1E+10	1	-1E+10	1	-1E+10	1	-1E+10	1	-1E+10	1	-1E+10	1
4902554	16	C	07/11/2021	05:08	-136.434	49.640	0	197.40	0	5.5220	0	33.8050	0	26.669	0	195.621	0	-1e10	8	-1e10	8	-1E+10	1	-1E+10	1	-1E+10	1	-1E+10	1	-1E+10	1	-1E+10	1
4902554	16	C	07/11/2021	05:08	-136.434	49.640	0	198.40	0	5.5220	0	33.8060	0	26.670	0	196.611	0	-1e10	8	-1e10	8	-1E+10	1	-1E+10	1	-1E+10	1	-1E+10	1	-1E+10	1	-1E+10	1
4902554	16	C	07/11/2021	05:08	-136.434	49.640	0	199.40	0	5.5220	0	33.8070	0	26.671	0	197.602	0	-1e10	8	-1e10	8	-1E+10	1	-1E+10	1	-1E+10	1	-1E+10	1	-1E+10	1	-1E+10	1
4902554	16	C	07/11/2021	05:08	-136.434	49.640	0	200.40	0	5.5180	0	33.8060	0	26.670	0	198.592	0	-1e10	8	-1e10	8	-1E+10	1	-1E+10	1	-1E+10	1	-1E+10	1	-1E+10	1	-1E+10	1
4902554	16	C	07/11/2021	05:08	-136.434	49.640	0	201.40	0	5.5190	0	33.8080	0	26.672	0	199.583	0	-1e10	8	-1e10	8	-1E+10	1	-1E+10	1	-1E+10	1	-1E+10	1	-1E+10	1	-1E+10	1
4902554	16	C	07/11/2021	05:08	-136.434	49.640	0	202.40	0	5.5140	0	33.8070	0	26.672	0	200.573	0	-1e10	8	-1e10	8	-1E+10	1	-1E+10	1	-1E+10	1	-1E+10	1	-1E+10	1	-1E+10	1
4902554	16	C	07/11/2021	05:08	-136.434	49.640	0	203.40	0	5.5130	0	33.8080	0	26.672	0	201.564	0	-1e10	8	-1e10	8	-1E+10	1	-1E+10	1	-1E+10	1	-1E+10	1	-1E+10	1	-1E+10	1
4902554	16	C	07/11/2021	05:08	-136.434	49.640	0	204.50	0	5.5150	0	33.8080	0	26.672	0	202.653	0	-1e10	8	-1e10	8	-1E+10	1	-1E+10	1	-1E+10	1	-1E+10	1	-1E+10	1	-1E+10	1
4902554	16	C	07/11/2021	05:08	-136.434	49.640	0	205.50	0	5.5210	0	33.8060	0	26.670	0	203.644	0	-1e10	8	-1e10	8	-1E+10	1	-1E+10	1	-1E+10	1	-1E+10	1	-1E+10	1	-1E+10	1
4902554	16	C	07/11/2021	05:08	-136.434	49.640	0	206.50	0	5.4820	0	33.8170	0	26.683	0	204.634	0	-1e10	8	-1e10	8	-1E+10	1	-1E+10	1	-1E+10	1	-1E+10	1	-1E+10	1	-1E+10	1
4902554	16	C	07/11/2021	05:08	-136.434	49.640	0	207.50	0	5.4280	0	33.8120	0	26.686	0	205.625	0	-1e10	8	-1e10	8	-1E+10	1	-1E+10	1	-1E+10	1	-1E+10	1	-1E+10	1	-1E+10	1
4902554	16	C	07/11/2021	05:08	-136.434	49.640	0	208.60	0	5.4220	0	33.8090	0	26.684	0	206.714	0	-1e10	8	-1e10	8	-1E+10	1	-1E+10	1	-1E+10	1	-1E+10	1	-1E+10	1	-1E+10	1
4902554	16	C	07/11/2021	05:08	-136.434	49.640	0	209.60	0	5.4110	0	33.8080	0	26.685	0	207.705	0	-1e10	8	-1e10	8	-1E+10	1	-1E+10	1	-1E+10	1	-1E+10	1	-1E+10	1	-1E+10	1
4902554	16	C	07/11/2021	05:08	-136.434	49.640	0	210.60	0	5.3800	0	33.8110	0	26.691	0	208.695	0	-1e10	8	-1e10	8	-1E+10	1	-1E+10	1	-1E+10	1	-1E+10	1	-1E+10	1	-1E+10	1
4902554	16	C	07/11/2021	05:08	-136.434	49.640	0	211.60	0	5.3660	0	33.8080	0	26.690	0	209.685	0	-1e10	8	-1e10	8	-1E+10	1	-1E+10	1	-1E+10	1	-1E+10	1	-1E+10	1	-1E+10	1
4902554	16	C	07/11/2021	05:08	-136.434	49.640	0	212.60	0	5.3630	0	33.8080	0	26.690	0	210.676	0	-1e10	8	-1e10	8	-1E+10	1	-1E+10	1	-1E+10	1	-1E+10	1	-1E+10	1	-1E+10	1
4902554	16	C	07/11/2021	05:08	-136.434	49.640	0	213.70	0	5.3400	0	33.8110	0	26.695	0	211.765	0	-1e10	8	-1e10	8	-1E+10	1	-1E+10	1	-1E+10	1	-1E+10	1	-1E+10	1	-1E+10	1
4902554	16	C	07/11/2021	05:08	-136.434	49.640	0	214.70	0	5.3280	0	33.8060	0	26.693	0	212.756	0	-1e10	8	-1e10	8	-1E+10	1	-1E+10	1	-1E+10	1	-1E+10	1	-1E+10	1	-1E+10	1
4902554	16	C	07/11/2021	05:08	-136.434	49.640	0	215.70	0	5.3230	0	33.8080	0	26.695	0	213.746	0	-1e10	8	-1e10	8	-1E+10	1	-1E+10	1	-1E+10	1	-1E+10	1	-1E+10	1	-1E+10	1
4902554	16	C	07/11/2021	05:08	-136.434	49.640	0	216.70	0	5.3090	0	33.8050	0	26.694	0	214.737	0	-1e10	8	-1e10	8	-1E+10	1	-1E+10	1	-1E+10	1	-1E+10	1	-1E+10	1	-1E+10	1
4902554	16	C	07/11/2021	05:08	-136.434	49.640	0	217.80	0	5.2900	0	33.8060	0	26.697	0	215.826	0	-1e10	8	-1e10	8	-1E+10	1	-1E+10	1	-1E+10	1	-1E+10	1	-1E+10	1	-1E+10	1
4902554	16	C	07/11/2021	05:08	-136.434	49.640	0	218.80	0	5.2760	0	33.8080	0	26.701	0	216.817	0	-1e10	8	-1e10	8	-1E+10	1	-1E+10	1	-1E+10	1	-1E+10	1	-1E+10	1	-1E+10	1
4902554	16	C	07/11/2021	05:08	-136.434	49.640	0	219.80	0	5.2730	0	33.8080	0	26.701	0	217.807	0	-1e10	8	-1e10	8	-1E+10	1	-1E+10	1	-1E+10	1	-1E+10	1	-1E+10	1	-1E+10	1
4902554	16	C	07/11/2021	05:08	-136.434	49.640	0	220.80	0	5.2710	0	33.8090	0	26.702	0	218.797	0	-1e10	8	-1e10	8	-1E+10	1	-1E+10	1	-1E+10	1	-1E+10	1	-1E+10	1	-1E+10	1
4902554	16	C	07/11/2021	05:08	-136.434	49.640	0	221.80	0	5.2620	0	33.8110	0	26.705	0	219.788	0	-1e10	8	-1e10	8	-1E+10	1	-1E+10	1	-1E+10	1	-1E+10	1	-1E+10	1	-1E+10	1
4902554	16	C	07/11/2021	05:08	-136.434	49.640	0	222.90	0	5.2420	0	33.8130	0	26.709	0	220.877	0	-1e10	8	-1e10	8	-1E+10	1	-1E+10	1	-1E+10	1	-1E+10	1	-1E+10	1	-1E+10	1
4902554	16	C	07/11/2021	05:08	-136.434	49.640	0	223.90	0	5.2000	0	33.8110	0	26.712	0	221.868	0	-1e10	8	-1e10	8	-1E+10	1	-1E+10	1	-1E+10	1	-1E+10	1	-1E+10	1	-1E+10	1
4902554	16	C	07/11/2021	05:08	-136.434	49.640	0	224.90	0	5.1890	0	33.8110	0	26.713	0	222.858	0	-1e10	8	-1e10	8	-1E+10	1	-1E+10	1	-1E+10	1	-1E+10	1	-1E+10	1	-1E+10	1
4902554	16	C	07/11/2021	05:08	-136.434	49.640	0	226.00	0	5.1840	0	33.8120	0	26.714	0	223.947	0	-1e10	8	-1e10	8	-1E+10	1	-1E+10	1	-1E+10	1	-1E+10	1	-1E+10	1	-1E+10	1
4902554	16	C	07/11/2021	05:08	-136.434	49.640	0	227.00	0	5.1880	0	33.8130	0	26.715	0	224.938	0	-1e10	8	-1e10	8	-1E+10	1	-1E+10	1	-1E+10	1	-1E+10	1	-1E+10	1	-1E+10	1
4902554	16	C	07/11/2021	05:08	-136.434	49.640	0	228.00	0	5.1990	0	33.8150	0	26.715	0	225.928	0	-1e10	8	-1e10	8	-1E+10	1	-1E+10	1	-1E+10	1	-1E+10	1	-1E+10	1	-1E+10	1
4902554	16	C	07/11/2021	05:08	-136.434	49.640	0	229.10	0	5.2170	0	33.8140	0	26.712	0	227.017	0	-1e10	8	-1e10	8	-1E+10	1	-1E+10	1	-1E+10	1	-1E+10	1	-1E+10	1	-1E+10	1
4902554	16	C	07/11/2021	05:08	-136.434	49.640	0	230.10	0	5.2320	0	33.8200	0	26.715	0	228.008	0	-1e10	8	-1e10	8	-1E+10	1	-1E+10	1	-1E+10	1	-1E+10	1	-1E+10	1	-1E+10	1
4902554	16	C	07/11/2021	05:08	-136.434	49.640	0	231.10	0	5.2640	0	33.8140	0	26.707	0	228.998	0	-1e10	8	-1e10	8	-1E+10	1	-1E+10	1	-1E+10	1	-1E+10	1	-1E+10	1	-1E+10	1
4902554	16	C	07/11/2021	05:08	-136.434	49.640	0	232.10	0	5.2540	0	33.8330	0	26.723	0	229.989	0	-1e10	8	-1e10	8	-1E+10	1	-1E+10	1	-1E+10	1	-1E+10	1	-1E+10	1	-1E+10	1
4902554	16	C	07/11/2021	05:08	-136.434	49.640	0	233.20	0	5.2540	0	33.8300	0	26.721	0	231.078	0	-1e10	8	-1e10	8	-1E+10	1	-1E+10	1	-1E+10	1	-1E+10	1	-1E+10	1	-1E+10	1
4902554	16	C	07/11/2021	05:08	-136.434	49.640	0	234.20	0	5.2870	0	33.8290	0	26.716	0	232.068	0	-1e10	8	-1e10	8	-1E+10	1	-1E+10	1	-1E+10	1	-1E+10	1	-1E+10	1	-1E+10	1
4902554	16	C	07/11/2021	05:08	-136.434	49.640	0	235.20	0	5.2860	0	33.8350	0	26.721	0	233.059	0	-1e10	8	-1e10	8	-1E+10	1	-1E+10	1	-1E+10	1	-1E+10	1	-1E+10	1	-1E+10	1
4902554	16	C	07/11/2021	05:08	-136.434	49.640	0	236.20	0	5.3200	0	33.8440	0	26.724	0	234.049	0	-1e10	8	-1e10	8	-1E+10	1	-1E+10	1	-1E+10	1	-1E+10	1	-1E+10	1	-1E+10	1
4902554	16	C	07/11/2021	05:08	-136.434	49.640	0	237.20	0	5.2770	0	33.8400	0	26.726	0	235.039	0	-1e10	8	-1e10	8	-1E+10	1	-1E+10	1	-1E+10	1	-1E+10	1	-1E+10	1	-1E+10	1
4902554	16	C	07/11/2021	05:08	-136.434	49.640	0	238.30	0	5.2650	0	33.8400	0	26.727	0	236.129	0	-1e10	8	-1e10	8	-1E+10	1	-1E+10	1	-1E+10	1	-1E+10	1	-1E+10	1	-1E+10	1
4902554	16	C	07/11/2021	05:08	-136.434	49.640	0	239.20	0	5.2440	0	33.8420	0	26.731	0	237.020	0	-1e10	8	-1e10	8	-1E+10	1	-1E+10	1	-1E+10	1	-1E+10	1	-1E+10	1	-1E+10	1
4902554	16	C	07/11/2021	05:08	-136.434	49.640	0	240.30	0	5.2310	0	33.8410	0	26.732	0	238.109	0	-1e10	8	-1e10	8	-1E+10	1	-1E+10	1	-1E+10	1	-1E+10	1	-1E+10	1	-1E+10	1
4902554	16	C	07/11/2021	05:08	-136.434	49.640	0	241.30	0	5.2290	0	33.8410	0	26.732	0	239.100	0	-1e10	8	-1e10	8	-1E+10	1	-1E+10	1	-1E+10	1	-1E+10	1	-1E+10	1	-1E+10	1
4902554	16	C	07/11/2021	05:08	-136.434	49.640	0	242.30	0	5.2170	0	33.8420	0	26.735	0	240.090	0	-1e10	8	-1e10	8	-1E+10	1	-1E+10	1	-1E+10	1	-1E+10	1	-1E+10	1	-1E+10	1
4902554	16	C	07/11/2021	05:08	-136.434	49.640	0	243.30	0	5.1980	0	33.8490	0	26.742	0	241.080	0	-1e10	8	-1e10	8	-1E+10	1	-1E+10	1	-1E+10	1	-1E+10	1	-1E+10	1	-1E+10	1
4902554	16	C	07/11/2021	05:08	-136.434	49.640	0	244.30	0	5.1910	0	33.8440	0	26.739	0	242.070	0	-1e10	8	-1e10	8	-1E+10	1	-1E+10	1	-1E+10	1	-1E+10	1	-1E+10	1	-1E+10	1
4902554	16	C	07/11/2021	05:08	-136.434	49.640	0	245.30	0	5.1930	0	33.8440	0	26.739	0	243.061	0	-1e10	8	-1e10	8	-1E+10	1	-1E+10	1	-1E+10	1	-1E+10	1	-1E+10	1	-1E+10	1
4902554	16	C	07/11/2021	05:08	-136.434	49.640	0	246.30	0	5.1850	0	33.8450	0	26.741	0	244.051	0	-1e10	8	-1e10	8	-1E+10	1	-1E+10	1	-1E+10	1	-1E+10	1	-1E+10	1	-1E+10	1
4902554	16	C	07/11/2021	05:08	-136.434	49.640	0	247.40	0	5.1820	0	33.8450	0	26.741	0	245.140	0	-1e10	8	-1e10	8	-1E+10	1	-1E+10	1	-1E+10	1	-1E+10	1	-1E+10	1	-1E+10	1
4902554	16	C	07/11/2021	05:08	-136.434	49.640	0	248.40	0	5.1730	0	33.8480	0	26.744	0	246.131	0	-1e10	8	-1e10	8	-1E+10	1	-1E+10	1	-1E+10	1	-1E+10	1	-1E+10	1	-1E+10	1
4902554	16	C	07/11/2021	05:08	-136.434	49.640	0	249.40	0	5.1640	0	33.8480	0	26.746	0	247.121	0	-1e10	8	-1e10	8	-1E+10	1	-1E+10	1	-1E+10	1	-1E+10	1	-1E+10	1	-1E+10	1
4902554	16	C	07/11/2021	05:08	-136.434	49.640	0	250.40	0	5.1680	0	33.8480	0	26.745	0	248.111	0	-1e10	8	-1e10	8	-1E+10	1	-1E+10	1	-1E+10	1	-1E+10	1	-1E+10	1	-1E+10	1
4902554	16	C	07/11/2021	05:08	-136.434	49.640	0	251.40	0	5.1850	0	33.8530	0	26.747	0	249.101	0	-1e10	8	-1e10	8	-1E+10	1	-1E+10	1	-1E+10	1	-1E+10	1	-1E+10	1	-1E+10	1
4902554	16	C	07/11/2021	05:08	-136.434	49.640	0	252.40	0	5.1800	0	33.8530	0	26.748	0	250.092	0	-1e10	8	-1e10	8	-1E+10	1	-1E+10	1	-1E+10	1	-1E+10	1	-1E+10	1	-1E+10	1
4902554	16	C	07/11/2021	05:08	-136.434	49.640	0	253.40	0	5.1710	0	33.8570	0	26.752	0	251.082	0	-1e10	8	-1e10	8	-1E+10	1	-1E+10	1	-1E+10	1	-1E+10	1	-1E+10	1	-1E+10	1
4902554	16	C	07/11/2021	05:08	-136.434	49.640	0	254.40	0	5.1390	0	33.8610	0	26.759	0	252.072	0	-1e10	8	-1e10	8	-1E+10	1	-1E+10	1	-1E+10	1	-1E+10	1	-1E+10	1	-1E+10	1
4902554	16	C	07/11/2021	05:08	-136.434	49.640	0	255.40	0	5.1250	0	33.8590	0	26.759	0	253.062	0	-1e10	8	-1e10	8	-1E+10	1	-1E+10	1	-1E+10	1	-1E+10	1	-1E+10	1	-1E+10	1
4902554	16	C	07/11/2021	05:08	-136.434	49.640	0	256.40	0	5.1180	0	33.8620	0	26.762	0	254.053	0	-1e10	8	-1e10	8	-1E+10	1	-1E+10	1	-1E+10	1	-1E+10	1	-1E+10	1	-1E+10	1
4902554	16	C	07/11/2021	05:08	-136.434	49.640	0	257.40	0	5.0790	0	33.8620	0	26.766	0	255.043	0	-1e10	8	-1e10	8	-1E+10	1	-1E+10	1	-1E+10	1	-1E+10	1	-1E+10	1	-1E+10	1
4902554	16	C	07/11/2021	05:08	-136.434	49.640	0	258.40	0	5.0640	0	33.8590	0	26.766	0	256.033	0	-1e10	8	-1e10	8	-1E+10	1	-1E+10	1	-1E+10	1	-1E+10	1	-1E+10	1	-1E+10	1
4902554	16	C	07/11/2021	05:08	-136.434	49.640	0	259.50	0	5.0610	0	33.8580	0	26.765	0	257.122	0	-1e10	8	-1e10	8	-1E+10	1	-1E+10	1	-1E+10	1	-1E+10	1	-1E+10	1	-1E+10	1
4902554	16	C	07/11/2021	05:08	-136.434	49.640	0	260.50	0	5.0440	0	33.8600	0	26.769	0	258.112	0	-1e10	8	-1e10	8	-1E+10	1	-1E+10	1	-1E+10	1	-1E+10	1	-1E+10	1	-1E+10	1
4902554	16	C	07/11/2021	05:08	-136.434	49.640	0	261.50	0	5.0160	0	33.8610	0	26.773	0	259.103	0	-1e10	8	-1e10	8	-1E+10	1	-1E+10	1	-1E+10	1	-1E+10	1	-1E+10	1	-1E+10	1
4902554	16	C	07/11/2021	05:08	-136.434	49.640	0	262.50	0	4.9980	0	33.8560	0	26.771	0	260.093	0	-1e10	8	-1e10	8	-1E+10	1	-1E+10	1	-1E+10	1	-1E+10	1	-1E+10	1	-1E+10	1
4902554	16	C	07/11/2021	05:08	-136.434	49.640	0	263.60	0	5.0040	0	33.8590	0	26.773	0	261.182	0	-1e10	8	-1e10	8	-1E+10	1	-1E+10	1	-1E+10	1	-1E+10	1	-1E+10	1	-1E+10	1
4902554	16	C	07/11/2021	05:08	-136.434	49.640	0	264.60	0	5.0010	0	33.8650	0	26.778	0	262.172	0	-1e10	8	-1e10	8	-1E+10	1	-1E+10	1	-1E+10	1	-1E+10	1	-1E+10	1	-1E+10	1
4902554	16	C	07/11/2021	05:08	-136.434	49.640	0	265.60	0	4.9790	0	33.8630	0	26.779	0	263.162	0	-1e10	8	-1e10	8	-1E+10	1	-1E+10	1	-1E+10	1	-1E+10	1	-1E+10	1	-1E+10	1
4902554	16	C	07/11/2021	05:08	-136.434	49.640	0	266.60	0	4.9700	0	33.8660	0	26.782	0	264.153	0	-1e10	8	-1e10	8	-1E+10	1	-1E+10	1	-1E+10	1	-1E+10	1	-1E+10	1	-1E+10	1
4902554	16	C	07/11/2021	05:08	-136.434	49.640	0	267.50	0	4.9680	0	33.8660	0	26.782	0	265.044	0	-1e10	8	-1e10	8	-1E+10	1	-1E+10	1	-1E+10	1	-1E+10	1	-1E+10	1	-1E+10	1
4902554	16	C	07/11/2021	05:08	-136.434	49.640	0	268.80	0	4.9670	0	33.8660	0	26.782	0	266.331	0	-1e10	8	-1e10	8	-1E+10	1	-1E+10	1	-1E+10	1	-1E+10	1	-1E+10	1	-1E+10	1
4902554	16	C	07/11/2021	05:08	-136.434	49.640	0	270.00	0	4.9660	0	33.8660	0	26.783	0	267.519	0	-1e10	8	-1e10	8	-1E+10	1	-1E+10	1	-1E+10	1	-1E+10	1	-1E+10	1	-1E+10	1
4902554	16	C	07/11/2021	05:08	-136.434	49.640	0	270.70	0	4.9650	0	33.8670	0	26.783	0	268.212	0	-1e10	8	-1e10	8	-1E+10	1	-1E+10	1	-1E+10	1	-1E+10	1	-1E+10	1	-1E+10	1
4902554	16	C	07/11/2021	05:08	-136.434	49.640	0	271.90	0	4.9630	0	33.8680	0	26.784	0	269.401	0	-1e10	8	-1e10	8	-1E+10	1	-1E+10	1	-1E+10	1	-1E+10	1	-1E+10	1	-1E+10	1
4902554	16	C	07/11/2021	05:08	-136.434	49.640	0	273.10	0	4.9520	0	33.8710	0	26.788	0	270.589	0	-1e10	8	-1e10	8	-1E+10	1	-1E+10	1	-1E+10	1	-1E+10	1	-1E+10	1	-1E+10	1
4902554	16	C	07/11/2021	05:08	-136.434	49.640	0	273.80	0	4.9510	0	33.8710	0	26.788	0	271.282	0	-1e10	8	-1e10	8	-1E+10	1	-1E+10	1	-1E+10	1	-1E+10	1	-1E+10	1	-1E+10	1
4902554	16	C	07/11/2021	05:08	-136.434	49.640	0	275.00	0	4.9490	0	33.8730	0	26.790	0	272.470	0	-1e10	8	-1e10	8	-1E+10	1	-1E+10	1	-1E+10	1	-1E+10	1	-1E+10	1	-1E+10	1
4902554	16	C	07/11/2021	05:08	-136.434	49.640	0	276.20	0	4.9480	0	33.8750	0	26.792	0	273.658	0	-1e10	8	-1e10	8	-1E+10	1	-1E+10	1	-1E+10	1	-1E+10	1	-1E+10	1	-1E+10	1
4902554	16	C	07/11/2021	05:08	-136.434	49.640	0	277.00	0	4.9470	0	33.8750	0	26.792	0	274.450	0	-1e10	8	-1e10	8	-1E+10	1	-1E+10	1	-1E+10	1	-1E+10	1	-1E+10	1	-1E+10	1
4902554	16	C	07/11/2021	05:08	-136.434	49.640	0	277.80	0	4.9450	0	33.8760	0	26.793	0	275.242	0	-1e10	8	-1e10	8	-1E+10	1	-1E+10	1	-1E+10	1	-1E+10	1	-1E+10	1	-1E+10	1
4902554	16	C	07/11/2021	05:08	-136.434	49.640	0	279.00	0	4.9390	0	33.8790	0	26.796	0	276.431	0	-1e10	8	-1e10	8	-1E+10	1	-1E+10	1	-1E+10	1	-1E+10	1	-1E+10	1	-1E+10	1
4902554	16	C	07/11/2021	05:08	-136.434	49.640	0	280.20	0	4.9380	0	33.8790	0	26.796	0	277.619	0	-1e10	8	-1e10	8	-1E+10	1	-1E+10	1	-1E+10	1	-1E+10	1	-1E+10	1	-1E+10	1
4902554	16	C	07/11/2021	05:08	-136.434	49.640	0	281.00	0	4.9380	0	33.8800	0	26.797	0	278.411	0	-1e10	8	-1e10	8	-1E+10	1	-1E+10	1	-1E+10	1	-1E+10	1	-1E+10	1	-1E+10	1
4902554	16	C	07/11/2021	05:08	-136.434	49.640	0	281.80	0	4.9300	0	33.8840	0	26.801	0	279.203	0	-1e10	8	-1e10	8	-1E+10	1	-1E+10	1	-1E+10	1	-1E+10	1	-1E+10	1	-1E+10	1
4902554	16	C	07/11/2021	05:08	-136.434	49.640	0	283.00	0	4.9230	0	33.8850	0	26.803	0	280.391	0	-1e10	8	-1e10	8	-1E+10	1	-1E+10	1	-1E+10	1	-1E+10	1	-1E+10	1	-1E+10	1
4902554	16	C	07/11/2021	05:08	-136.434	49.640	0	284.20	0	4.9190	0	33.8870	0	26.805	0	281.579	0	-1e10	8	-1e10	8	-1E+10	1	-1E+10	1	-1E+10	1	-1E+10	1	-1E+10	1	-1E+10	1
4902554	16	C	07/11/2021	05:08	-136.434	49.640	0	285.00	0	4.9190	0	33.8880	0	26.805	0	282.371	0	-1e10	8	-1e10	8	-1E+10	1	-1E+10	1	-1E+10	1	-1E+10	1	-1E+10	1	-1E+10	1
4902554	16	C	07/11/2021	05:08	-136.434	49.640	0	285.80	0	4.9200	0	33.8890	0	26.806	0	283.163	0	-1e10	8	-1e10	8	-1E+10	1	-1E+10	1	-1E+10	1	-1E+10	1	-1E+10	1	-1E+10	1
4902554	16	C	07/11/2021	05:08	-136.434	49.640	0	286.70	0	4.9220	0	33.8890	0	26.806	0	284.054	0	-1e10	8	-1e10	8	-1E+10	1	-1E+10	1	-1E+10	1	-1E+10	1	-1E+10	1	-1E+10	1
4902554	16	C	07/11/2021	05:08	-136.434	49.640	0	287.90	0	4.9380	0	33.8930	0	26.807	0	285.242	0	-1e10	8	-1e10	8	-1E+10	1	-1E+10	1	-1E+10	1	-1E+10	1	-1E+10	1	-1E+10	1
4902554	16	C	07/11/2021	05:08	-136.434	49.640	0	289.20	0	4.9640	0	33.9000	0	26.810	0	286.530	0	-1e10	8	-1e10	8	-1E+10	1	-1E+10	1	-1E+10	1	-1E+10	1	-1E+10	1	-1E+10	1
4902554	16	C	07/11/2021	05:08	-136.434	49.640	0	290.00	0	4.9610	0	33.9010	0	26.811	0	287.322	0	-1e10	8	-1e10	8	-1E+10	1	-1E+10	1	-1E+10	1	-1E+10	1	-1E+10	1	-1E+10	1
4902554	16	C	07/11/2021	05:08	-136.434	49.640	0	290.80	0	4.9550	0	33.9020	0	26.813	0	288.114	0	-1e10	8	-1e10	8	-1E+10	1	-1E+10	1	-1E+10	1	-1E+10	1	-1E+10	1	-1E+10	1
4902554	16	C	07/11/2021	05:08	-136.434	49.640	0	291.70	0	4.9470	0	33.9020	0	26.813	0	289.005	0	-1e10	8	-1e10	8	-1E+10	1	-1E+10	1	-1E+10	1	-1E+10	1	-1E+10	1	-1E+10	1
4902554	16	C	07/11/2021	05:08	-136.434	49.640	0	292.90	0	4.9370	0	33.9050	0	26.817	0	290.193	0	-1e10	8	-1e10	8	-1E+10	1	-1E+10	1	-1E+10	1	-1E+10	1	-1E+10	1	-1E+10	1
4902554	16	C	07/11/2021	05:08	-136.434	49.640	0	294.20	0	4.9290	0	33.9060	0	26.819	0	291.480	0	-1e10	8	-1e10	8	-1E+10	1	-1E+10	1	-1E+10	1	-1E+10	1	-1E+10	1	-1E+10	1
4902554	16	C	07/11/2021	05:08	-136.434	49.640	0	295.00	0	4.9140	0	33.9030	0	26.818	0	292.272	0	-1e10	8	-1e10	8	-1E+10	1	-1E+10	1	-1E+10	1	-1E+10	1	-1E+10	1	-1E+10	1
4902554	16	C	07/11/2021	05:08	-136.434	49.640	0	295.90	0	4.9190	0	33.9090	0	26.822	0	293.163	0	-1e10	8	-1e10	8	-1E+10	1	-1E+10	1	-1E+10	1	-1E+10	1	-1E+10	1	-1E+10	1
4902554	16	C	07/11/2021	05:08	-136.434	49.640	0	296.70	0	4.9020	0	33.9070	0	26.823	0	293.955	0	-1e10	8	-1e10	8	-1E+10	1	-1E+10	1	-1E+10	1	-1E+10	1	-1E+10	1	-1E+10	1
4902554	16	C	07/11/2021	05:08	-136.434	49.640	0	297.90	0	4.8920	0	33.9070	0	26.824	0	295.143	0	-1e10	8	-1e10	8	-1E+10	1	-1E+10	1	-1E+10	1	-1E+10	1	-1E+10	1	-1E+10	1
4902554	16	C	07/11/2021	05:08	-136.434	49.640	0	299.20	0	4.8710	0	33.9080	0	26.827	0	296.430	0	-1e10	8	-1e10	8	-1E+10	1	-1E+10	1	-1E+10	1	-1E+10	1	-1E+10	1	-1E+10	1
4902554	16	C	07/11/2021	05:08	-136.434	49.640	0	300.10	0	4.8610	0	33.9060	0	26.826	0	297.321	0	-1e10	8	-1e10	8	-1E+10	1	-1E+10	1	-1E+10	1	-1E+10	1	-1E+10	1	-1E+10	1
4902554	16	C	07/11/2021	05:08	-136.434	49.640	0	300.90	0	4.8560	0	33.9060	0	26.827	0	298.113	0	-1e10	8	-1e10	8	-1E+10	1	-1E+10	1	-1E+10	1	-1E+10	1	-1E+10	1	-1E+10	1
4902554	16	C	07/11/2021	05:08	-136.434	49.640	0	301.70	0	4.8520	0	33.9090	0	26.830	0	298.905	0	-1e10	8	-1e10	8	-1E+10	1	-1E+10	1	-1E+10	1	-1E+10	1	-1E+10	1	-1E+10	1
4902554	16	C	07/11/2021	05:08	-136.434	49.640	0	303.00	0	4.8460	0	33.9070	0	26.829	0	300.192	0	-1e10	8	-1e10	8	-1E+10	1	-1E+10	1	-1E+10	1	-1E+10	1	-1E+10	1	-1E+10	1
4902554	16	C	07/11/2021	05:08	-136.434	49.640	0	304.20	0	4.8460	0	33.9080	0	26.830	0	301.380	0	-1e10	8	-1e10	8	-1E+10	1	-1E+10	1	-1E+10	1	-1E+10	1	-1E+10	1	-1E+10	1
4902554	16	C	07/11/2021	05:08	-136.434	49.640	0	305.10	0	4.8280	0	33.9090	0	26.832	0	302.271	0	-1e10	8	-1e10	8	-1E+10	1	-1E+10	1	-1E+10	1	-1E+10	1	-1E+10	1	-1E+10	1
4902554	16	C	07/11/2021	05:08	-136.434	49.640	0	305.90	0	4.8360	0	33.9080	0	26.831	0	303.063	0	-1e10	8	-1e10	8	-1E+10	1	-1E+10	1	-1E+10	1	-1E+10	1	-1E+10	1	-1E+10	1
4902554	16	C	07/11/2021	05:08	-136.434	49.640	0	306.80	0	4.8460	0	33.9070	0	26.829	0	303.954	0	-1e10	8	-1e10	8	-1E+10	1	-1E+10	1	-1E+10	1	-1E+10	1	-1E+10	1	-1E+10	1
4902554	16	C	07/11/2021	05:08	-136.434	49.640	0	307.60	0	4.8590	0	33.9150	0	26.834	0	304.746	0	-1e10	8	-1e10	8	-1E+10	1	-1E+10	1	-1E+10	1	-1E+10	1	-1E+10	1	-1E+10	1
4902554	16	C	07/11/2021	05:08	-136.434	49.640	0	308.90	0	4.8480	0	33.9140	0	26.834	0	306.033	0	-1e10	8	-1e10	8	-1E+10	1	-1E+10	1	-1E+10	1	-1E+10	1	-1E+10	1	-1E+10	1
4902554	16	C	07/11/2021	05:08	-136.434	49.640	0	310.10	0	4.8470	0	33.9160	0	26.836	0	307.221	0	-1e10	8	-1e10	8	-1E+10	1	-1E+10	1	-1E+10	1	-1E+10	1	-1E+10	1	-1E+10	1
4902554	16	C	07/11/2021	05:08	-136.434	49.640	0	311.00	0	4.8430	0	33.9160	0	26.836	0	308.112	0	-1e10	8	-1e10	8	-1E+10	1	-1E+10	1	-1E+10	1	-1E+10	1	-1E+10	1	-1E+10	1
4902554	16	C	07/11/2021	05:08	-136.434	49.640	0	311.80	0	4.8350	0	33.9170	0	26.838	0	308.904	0	-1e10	8	-1e10	8	-1E+10	1	-1E+10	1	-1E+10	1	-1E+10	1	-1E+10	1	-1E+10	1
4902554	16	C	07/11/2021	05:08	-136.434	49.640	0	312.70	0	4.8180	0	33.9170	0	26.840	0	309.795	0	-1e10	8	-1e10	8	-1E+10	1	-1E+10	1	-1E+10	1	-1E+10	1	-1E+10	1	-1E+10	1
4902554	16	C	07/11/2021	05:08	-136.434	49.640	0	313.90	0	4.7770	0	33.9120	0	26.841	0	310.983	0	-1e10	8	-1e10	8	-1E+10	1	-1E+10	1	-1E+10	1	-1E+10	1	-1E+10	1	-1E+10	1
4902554	16	C	07/11/2021	05:08	-136.434	49.640	0	315.20	0	4.7690	0	33.9120	0	26.841	0	312.270	0	-1e10	8	-1e10	8	-1E+10	1	-1E+10	1	-1E+10	1	-1E+10	1	-1E+10	1	-1E+10	1
4902554	16	C	07/11/2021	05:08	-136.434	49.640	0	316.10	0	4.7680	0	33.9130	0	26.842	0	313.161	0	-1e10	8	-1e10	8	-1E+10	1	-1E+10	1	-1E+10	1	-1E+10	1	-1E+10	1	-1E+10	1
4902554	16	C	07/11/2021	05:08	-136.434	49.640	0	316.90	0	4.7660	0	33.9130	0	26.843	0	313.953	0	-1e10	8	-1e10	8	-1E+10	1	-1E+10	1	-1E+10	1	-1E+10	1	-1E+10	1	-1E+10	1
4902554	16	C	07/11/2021	05:08	-136.434	49.640	0	317.80	0	4.7720	0	33.9150	0	26.844	0	314.844	0	-1e10	8	-1e10	8	-1E+10	1	-1E+10	1	-1E+10	1	-1E+10	1	-1E+10	1	-1E+10	1
4902554	16	C	07/11/2021	05:08	-136.434	49.640	0	318.70	0	4.7680	0	33.9170	0	26.846	0	315.735	0	-1e10	8	-1e10	8	-1E+10	1	-1E+10	1	-1E+10	1	-1E+10	1	-1E+10	1	-1E+10	1
4902554	16	C	07/11/2021	05:08	-136.434	49.640	0	320.00	0	4.7580	0	33.9180	0	26.847	0	317.022	0	-1e10	8	-1e10	8	-1E+10	1	-1E+10	1	-1E+10	1	-1E+10	1	-1E+10	1	-1E+10	1
4902554	16	C	07/11/2021	05:08	-136.434	49.640	0	321.30	0	4.7540	0	33.9200	0	26.850	0	318.309	0	-1e10	8	-1e10	8	-1E+10	1	-1E+10	1	-1E+10	1	-1E+10	1	-1E+10	1	-1E+10	1
4902554	16	C	07/11/2021	05:08	-136.434	49.640	0	322.20	0	4.7530	0	33.9200	0	26.850	0	319.199	0	-1e10	8	-1e10	8	-1E+10	1	-1E+10	1	-1E+10	1	-1E+10	1	-1E+10	1	-1E+10	1
4902554	16	C	07/11/2021	05:08	-136.434	49.640	0	323.00	0	4.7530	0	33.9200	0	26.850	0	319.991	0	-1e10	8	-1e10	8	-1E+10	1	-1E+10	1	-1E+10	1	-1E+10	1	-1E+10	1	-1E+10	1
4902554	16	C	07/11/2021	05:08	-136.434	49.640	0	323.90	0	4.7530	0	33.9210	0	26.850	0	320.882	0	-1e10	8	-1e10	8	-1E+10	1	-1E+10	1	-1E+10	1	-1E+10	1	-1E+10	1	-1E+10	1
4902554	16	C	07/11/2021	05:08	-136.434	49.640	0	324.80	0	4.7530	0	33.9210	0	26.850	0	321.773	0	-1e10	8	-1e10	8	-1E+10	1	-1E+10	1	-1E+10	1	-1E+10	1	-1E+10	1	-1E+10	1
4902554	16	C	07/11/2021	05:08	-136.434	49.640	0	325.70	0	4.7530	0	33.9220	0	26.851	0	322.664	0	-1e10	8	-1e10	8	-1E+10	1	-1E+10	1	-1E+10	1	-1E+10	1	-1E+10	1	-1E+10	1
4902554	16	C	07/11/2021	05:08	-136.434	49.640	0	326.90	0	4.7540	0	33.9240	0	26.853	0	323.852	0	-1e10	8	-1e10	8	-1E+10	1	-1E+10	1	-1E+10	1	-1E+10	1	-1E+10	1	-1E+10	1
4902554	16	C	07/11/2021	05:08	-136.434	49.640	0	328.30	0	4.7540	0	33.9260	0	26.854	0	325.238	0	-1e10	8	-1e10	8	-1E+10	1	-1E+10	1	-1E+10	1	-1E+10	1	-1E+10	1	-1E+10	1
4902554	16	C	07/11/2021	05:08	-136.434	49.640	0	329.10	0	4.7610	0	33.9230	0	26.851	0	326.030	0	-1e10	8	-1e10	8	-1E+10	1	-1E+10	1	-1E+10	1	-1E+10	1	-1E+10	1	-1E+10	1
4902554	16	C	07/11/2021	05:08	-136.434	49.640	0	330.00	0	4.7650	0	33.9290	0	26.856	0	326.921	0	-1e10	8	-1e10	8	-1E+10	1	-1E+10	1	-1E+10	1	-1E+10	1	-1E+10	1	-1E+10	1
4902554	16	C	07/11/2021	05:08	-136.434	49.640	0	330.90	0	4.7480	0	33.9310	0	26.859	0	327.812	0	-1e10	8	-1e10	8	-1E+10	1	-1E+10	1	-1E+10	1	-1E+10	1	-1E+10	1	-1E+10	1
4902554	16	C	07/11/2021	05:08	-136.434	49.640	0	331.80	0	4.7370	0	33.9300	0	26.859	0	328.702	0	-1e10	8	-1e10	8	-1E+10	1	-1E+10	1	-1E+10	1	-1E+10	1	-1E+10	1	-1E+10	1
4902554	16	C	07/11/2021	05:08	-136.434	49.640	0	332.70	0	4.7340	0	33.9300	0	26.860	0	329.593	0	-1e10	8	-1e10	8	-1E+10	1	-1E+10	1	-1E+10	1	-1E+10	1	-1E+10	1	-1E+10	1
4902554	16	C	07/11/2021	05:08	-136.434	49.640	0	333.90	0	4.7280	0	33.9320	0	26.862	0	330.781	0	-1e10	8	-1e10	8	-1E+10	1	-1E+10	1	-1E+10	1	-1E+10	1	-1E+10	1	-1E+10	1
4902554	16	C	07/11/2021	05:08	-136.434	49.640	0	335.30	0	4.7220	0	33.9340	0	26.864	0	332.167	0	-1e10	8	-1e10	8	-1E+10	1	-1E+10	1	-1E+10	1	-1E+10	1	-1E+10	1	-1E+10	1
4902554	16	C	07/11/2021	05:08	-136.434	49.640	0	336.20	0	4.7170	0	33.9340	0	26.865	0	333.058	0	-1e10	8	-1e10	8	-1E+10	1	-1E+10	1	-1E+10	1	-1E+10	1	-1E+10	1	-1E+10	1
4902554	16	C	07/11/2021	05:08	-136.434	49.640	0	337.10	0	4.7090	0	33.9360	0	26.867	0	333.949	0	-1e10	8	-1e10	8	-1E+10	1	-1E+10	1	-1E+10	1	-1E+10	1	-1E+10	1	-1E+10	1
4902554	16	C	07/11/2021	05:08	-136.434	49.640	0	337.90	0	4.7070	0	33.9360	0	26.868	0	334.741	0	-1e10	8	-1e10	8	-1E+10	1	-1E+10	1	-1E+10	1	-1E+10	1	-1E+10	1	-1E+10	1
4902554	16	C	07/11/2021	05:08	-136.434	49.640	0	338.90	0	4.7040	0	33.9370	0	26.869	0	335.730	0	-1e10	8	-1e10	8	-1E+10	1	-1E+10	1	-1E+10	1	-1E+10	1	-1E+10	1	-1E+10	1
4902554	16	C	07/11/2021	05:08	-136.434	49.640	0	339.70	0	4.7030	0	33.9370	0	26.869	0	336.522	0	-1e10	8	-1e10	8	-1E+10	1	-1E+10	1	-1E+10	1	-1E+10	1	-1E+10	1	-1E+10	1
4902554	16	C	07/11/2021	05:08	-136.434	49.640	0	340.60	0	4.6860	0	33.9390	0	26.872	0	337.413	0	-1e10	8	-1e10	8	-1E+10	1	-1E+10	1	-1E+10	1	-1E+10	1	-1E+10	1	-1E+10	1
4902554	16	C	07/11/2021	05:08	-136.434	49.640	0	341.90	0	4.6740	0	33.9390	0	26.874	0	338.700	0	-1e10	8	-1e10	8	-1E+10	1	-1E+10	1	-1E+10	1	-1E+10	1	-1E+10	1	-1E+10	1
4902554	16	C	07/11/2021	05:08	-136.434	49.640	0	343.30	0	4.6650	0	33.9400	0	26.875	0	340.086	0	-1e10	8	-1e10	8	-1E+10	1	-1E+10	1	-1E+10	1	-1E+10	1	-1E+10	1	-1E+10	1
4902554	16	C	07/11/2021	05:08	-136.434	49.640	0	344.20	0	4.6630	0	33.9390	0	26.875	0	340.976	0	-1e10	8	-1e10	8	-1E+10	1	-1E+10	1	-1E+10	1	-1E+10	1	-1E+10	1	-1E+10	1
4902554	16	C	07/11/2021	05:08	-136.434	49.640	0	345.00	0	4.6570	0	33.9400	0	26.876	0	341.768	0	-1e10	8	-1e10	8	-1E+10	1	-1E+10	1	-1E+10	1	-1E+10	1	-1E+10	1	-1E+10	1
4902554	16	C	07/11/2021	05:08	-136.434	49.640	0	345.90	0	4.6480	0	33.9410	0	26.878	0	342.659	0	-1e10	8	-1e10	8	-1E+10	1	-1E+10	1	-1E+10	1	-1E+10	1	-1E+10	1	-1E+10	1
4902554	16	C	07/11/2021	05:08	-136.434	49.640	0	346.80	0	4.6470	0	33.9410	0	26.878	0	343.550	0	-1e10	8	-1e10	8	-1E+10	1	-1E+10	1	-1E+10	1	-1E+10	1	-1E+10	1	-1E+10	1
4902554	16	C	07/11/2021	05:08	-136.434	49.640	0	347.70	0	4.6460	0	33.9410	0	26.878	0	344.441	0	-1e10	8	-1e10	8	-1E+10	1	-1E+10	1	-1E+10	1	-1E+10	1	-1E+10	1	-1E+10	1
4902554	16	C	07/11/2021	05:08	-136.434	49.640	0	348.90	0	4.6490	0	33.9420	0	26.879	0	345.629	0	-1e10	8	-1e10	8	-1E+10	1	-1E+10	1	-1E+10	1	-1E+10	1	-1E+10	1	-1E+10	1
4902554	16	C	07/11/2021	05:08	-136.434	49.640	0	350.30	0	4.6460	0	33.9440	0	26.881	0	347.014	0	-1e10	8	-1e10	8	-1E+10	1	-1E+10	1	-1E+10	1	-1E+10	1	-1E+10	1	-1E+10	1
4902554	16	C	07/11/2021	05:08	-136.434	49.640	0	352.90	0	4.6430	0	33.9460	0	26.883	0	349.588	0	-1e10	8	-1e10	8	-1E+10	1	-1E+10	1	-1E+10	1	-1E+10	1	-1E+10	1	-1E+10	1
4902554	16	C	07/11/2021	05:08	-136.434	49.640	0	357.80	0	4.6240	0	33.9520	0	26.889	0	354.437	0	-1e10	8	-1e10	8	-1E+10	1	-1E+10	1	-1E+10	1	-1E+10	1	-1E+10	1	-1E+10	1
4902554	16	C	07/11/2021	05:08	-136.434	49.640	0	362.80	0	4.6020	0	33.9580	0	26.897	0	359.386	0	-1e10	8	-1e10	8	-1E+10	1	-1E+10	1	-1E+10	1	-1E+10	1	-1E+10	1	-1E+10	1
4902554	16	C	07/11/2021	05:08	-136.434	49.640	0	367.60	0	4.5910	0	33.9650	0	26.903	0	364.137	0	-1e10	8	-1e10	8	-1E+10	1	-1E+10	1	-1E+10	1	-1E+10	1	-1E+10	1	-1E+10	1
4902554	16	C	07/11/2021	05:08	-136.434	49.640	0	373.00	0	4.5740	0	33.9710	0	26.910	0	369.481	0	-1e10	8	-1e10	8	-1E+10	1	-1E+10	1	-1E+10	1	-1E+10	1	-1E+10	1	-1E+10	1
4902554	16	C	07/11/2021	05:08	-136.434	49.640	0	377.90	0	4.5470	0	33.9740	0	26.915	0	374.330	0	-1e10	8	-1e10	8	-1E+10	1	-1E+10	1	-1E+10	1	-1E+10	1	-1E+10	1	-1E+10	1
4902554	16	C	07/11/2021	05:08	-136.434	49.640	0	382.90	0	4.5250	0	33.9780	0	26.921	0	379.279	0	-1e10	8	-1e10	8	-1E+10	1	-1E+10	1	-1E+10	1	-1E+10	1	-1E+10	1	-1E+10	1
4902554	16	C	07/11/2021	05:08	-136.434	49.640	0	387.90	0	4.5050	0	33.9820	0	26.926	0	384.227	0	-1e10	8	-1e10	8	-1E+10	1	-1E+10	1	-1E+10	1	-1E+10	1	-1E+10	1	-1E+10	1
4902554	16	C	07/11/2021	05:08	-136.434	49.640	0	393.00	0	4.4840	0	33.9870	0	26.933	0	389.274	0	-1e10	8	-1e10	8	-1E+10	1	-1E+10	1	-1E+10	1	-1E+10	1	-1E+10	1	-1E+10	1
4902554	16	C	07/11/2021	05:08	-136.434	49.640	0	398.10	0	4.4580	0	33.9930	0	26.940	0	394.320	0	-1e10	8	-1e10	8	-1E+10	1	-1E+10	1	-1E+10	1	-1E+10	1	-1E+10	1	-1E+10	1
4902554	16	C	07/11/2021	05:08	-136.434	49.640	0	402.90	0	4.4330	0	33.9980	0	26.947	0	399.070	0	-1e10	8	-1e10	8	-1E+10	1	-1E+10	1	-1E+10	1	-1E+10	1	-1E+10	1	-1E+10	1
4902554	16	C	07/11/2021	05:08	-136.434	49.640	0	407.70	0	4.4180	0	33.9990	0	26.949	0	403.820	0	-1e10	8	-1e10	8	-1E+10	1	-1E+10	1	-1E+10	1	-1E+10	1	-1E+10	1	-1E+10	1
4902554	16	C	07/11/2021	05:08	-136.434	49.640	0	412.50	0	4.3990	0	34.0020	0	26.954	0	408.570	0	-1e10	8	-1e10	8	-1E+10	1	-1E+10	1	-1E+10	1	-1E+10	1	-1E+10	1	-1E+10	1
4902554	16	C	07/11/2021	05:08	-136.434	49.640	0	417.80	0	4.3940	0	34.0070	0	26.958	0	413.814	0	-1e10	8	-1e10	8	-1E+10	1	-1E+10	1	-1E+10	1	-1E+10	1	-1E+10	1	-1E+10	1
4902554	16	C	07/11/2021	05:08	-136.434	49.640	0	423.20	0	4.3970	0	34.0100	0	26.961	0	419.157	0	-1e10	8	-1e10	8	-1E+10	1	-1E+10	1	-1E+10	1	-1E+10	1	-1E+10	1	-1E+10	1
4902554	16	C	07/11/2021	05:08	-136.434	49.640	0	428.00	0	4.3870	0	34.0150	0	26.966	0	423.906	0	-1e10	8	-1e10	8	-1E+10	1	-1E+10	1	-1E+10	1	-1E+10	1	-1E+10	1	-1E+10	1
4902554	16	C	07/11/2021	05:08	-136.434	49.640	0	432.90	0	4.3650	0	34.0180	0	26.970	0	428.754	0	-1e10	8	-1e10	8	-1E+10	1	-1E+10	1	-1E+10	1	-1E+10	1	-1E+10	1	-1E+10	1
4902554	16	C	07/11/2021	05:08	-136.434	49.640	0	437.80	0	4.3590	0	34.0250	0	26.977	0	433.602	0	-1e10	8	-1e10	8	-1E+10	1	-1E+10	1	-1E+10	1	-1E+10	1	-1E+10	1	-1E+10	1
4902554	16	C	07/11/2021	05:08	-136.434	49.640	0	442.70	0	4.3480	0	34.0310	0	26.983	0	438.450	0	-1e10	8	-1e10	8	-1E+10	1	-1E+10	1	-1E+10	1	-1E+10	1	-1E+10	1	-1E+10	1
4902554	16	C	07/11/2021	05:08	-136.434	49.640	0	447.60	0	4.3420	0	34.0360	0	26.987	0	443.298	0	-1e10	8	-1e10	8	-1E+10	1	-1E+10	1	-1E+10	1	-1E+10	1	-1E+10	1	-1E+10	1
4902554	16	C	07/11/2021	05:08	-136.434	49.640	0	452.60	0	4.3110	0	34.0390	0	26.993	0	448.244	0	-1e10	8	-1e10	8	-1E+10	1	-1E+10	1	-1E+10	1	-1E+10	1	-1E+10	1	-1E+10	1
4902554	16	C	07/11/2021	05:08	-136.434	49.640	0	457.60	0	4.3080	0	34.0470	0	27.000	0	453.191	0	-1e10	8	-1e10	8	-1E+10	1	-1E+10	1	-1E+10	1	-1E+10	1	-1E+10	1	-1E+10	1
4902554	16	C	07/11/2021	05:08	-136.434	49.640	0	462.60	0	4.2950	0	34.0530	0	27.006	0	458.137	0	-1e10	8	-1e10	8	-1E+10	1	-1E+10	1	-1E+10	1	-1E+10	1	-1E+10	1	-1E+10	1
4902554	16	C	07/11/2021	05:08	-136.434	49.640	0	467.70	0	4.2420	0	34.0540	0	27.012	0	463.182	0	-1e10	8	-1e10	8	-1E+10	1	-1E+10	1	-1E+10	1	-1E+10	1	-1E+10	1	-1E+10	1
4902554	16	C	07/11/2021	05:08	-136.434	49.640	0	472.70	0	4.2080	0	34.0550	0	27.017	0	468.128	0	-1e10	8	-1e10	8	-1E+10	1	-1E+10	1	-1E+10	1	-1E+10	1	-1E+10	1	-1E+10	1
4902554	16	C	07/11/2021	05:08	-136.434	49.640	0	477.70	0	4.2280	0	34.0640	0	27.022	0	473.074	0	-1e10	8	-1e10	8	-1E+10	1	-1E+10	1	-1E+10	1	-1E+10	1	-1E+10	1	-1E+10	1
4902554	16	C	07/11/2021	05:08	-136.434	49.640	0	482.90	0	4.2240	0	34.0710	0	27.028	0	478.218	0	-1e10	8	-1e10	8	-1E+10	1	-1E+10	1	-1E+10	1	-1E+10	1	-1E+10	1	-1E+10	1
4902554	16	C	07/11/2021	05:08	-136.434	49.640	0	487.80	0	4.2060	0	34.0780	0	27.035	0	483.064	0	-1e10	8	-1e10	8	-1E+10	1	-1E+10	1	-1E+10	1	-1E+10	1	-1E+10	1	-1E+10	1
4902554	16	C	07/11/2021	05:08	-136.434	49.640	0	492.90	0	4.1810	0	34.0800	0	27.039	0	488.109	0	-1e10	8	-1e10	8	-1E+10	1	-1E+10	1	-1E+10	1	-1E+10	1	-1E+10	1	-1E+10	1
4902554	16	C	07/11/2021	05:08	-136.434	49.640	0	498.00	0	4.1680	0	34.0850	0	27.045	0	493.153	0	-1e10	8	-1e10	8	-1E+10	1	-1E+10	1	-1E+10	1	-1E+10	1	-1E+10	1	-1E+10	1
4902554	16	C	07/11/2021	05:08	-136.434	49.640	0	502.80	0	4.1640	0	34.0890	0	27.048	0	497.901	0	-1e10	8	-1e10	8	-1E+10	1	-1E+10	1	-1E+10	1	-1E+10	1	-1E+10	1	-1E+10	1
4902554	16	C	07/11/2021	05:08	-136.434	49.640	0	507.70	0	4.1930	0	34.1000	0	27.054	0	502.747	0	-1e10	8	-1e10	8	-1E+10	1	-1E+10	1	-1E+10	1	-1E+10	1	-1E+10	1	-1E+10	1
4902554	16	C	07/11/2021	05:08	-136.434	49.640	0	512.70	0	4.1900	0	34.1050	0	27.058	0	507.692	0	-1e10	8	-1e10	8	-1E+10	1	-1E+10	1	-1E+10	1	-1E+10	1	-1E+10	1	-1E+10	1
4902554	16	C	07/11/2021	05:08	-136.434	49.640	0	517.80	0	4.1580	0	34.1090	0	27.065	0	512.736	0	-1e10	8	-1e10	8	-1E+10	1	-1E+10	1	-1E+10	1	-1E+10	1	-1E+10	1	-1E+10	1
4902554	16	C	07/11/2021	05:08	-136.434	49.640	0	523.10	0	4.1420	0	34.1130	0	27.070	0	517.978	0	-1e10	8	-1e10	8	-1E+10	1	-1E+10	1	-1E+10	1	-1E+10	1	-1E+10	1	-1E+10	1
4902554	16	C	07/11/2021	05:08	-136.434	49.640	0	527.90	0	4.1200	0	34.1130	0	27.072	0	522.725	0	-1e10	8	-1e10	8	-1E+10	1	-1E+10	1	-1E+10	1	-1E+10	1	-1E+10	1	-1E+10	1
4902554	16	C	07/11/2021	05:08	-136.434	49.640	0	532.80	0	4.0790	0	34.1080	0	27.073	0	527.571	0	-1e10	8	-1e10	8	-1E+10	1	-1E+10	1	-1E+10	1	-1E+10	1	-1E+10	1	-1E+10	1
4902554	16	C	07/11/2021	05:08	-136.434	49.640	0	538.10	0	4.0460	0	34.1100	0	27.078	0	532.812	0	-1e10	8	-1e10	8	-1E+10	1	-1E+10	1	-1E+10	1	-1E+10	1	-1E+10	1	-1E+10	1
4902554	16	C	07/11/2021	05:08	-136.434	49.640	0	543.00	0	4.0350	0	34.1150	0	27.083	0	537.657	0	-1e10	8	-1e10	8	-1E+10	1	-1E+10	1	-1E+10	1	-1E+10	1	-1E+10	1	-1E+10	1
4902554	16	C	07/11/2021	05:08	-136.434	49.640	0	548.00	0	4.0210	0	34.1210	0	27.089	0	542.602	0	-1e10	8	-1e10	8	-1E+10	1	-1E+10	1	-1E+10	1	-1E+10	1	-1E+10	1	-1E+10	1
4902554	16	C	07/11/2021	05:08	-136.434	49.640	0	553.10	0	4.0060	0	34.1260	0	27.094	0	547.645	0	-1e10	8	-1e10	8	-1E+10	1	-1E+10	1	-1E+10	1	-1E+10	1	-1E+10	1	-1E+10	1
4902554	16	C	07/11/2021	05:08	-136.434	49.640	0	557.70	0	3.9940	0	34.1300	0	27.099	0	552.193	0	-1e10	8	-1e10	8	-1E+10	1	-1E+10	1	-1E+10	1	-1E+10	1	-1E+10	1	-1E+10	1
4902554	16	C	07/11/2021	05:08	-136.434	49.640	0	562.80	0	3.9830	0	34.1350	0	27.104	0	557.236	0	-1e10	8	-1e10	8	-1E+10	1	-1E+10	1	-1E+10	1	-1E+10	1	-1E+10	1	-1E+10	1
4902554	16	C	07/11/2021	05:08	-136.434	49.640	0	568.00	0	3.9730	0	34.1420	0	27.111	0	562.377	0	-1e10	8	-1e10	8	-1E+10	1	-1E+10	1	-1E+10	1	-1E+10	1	-1E+10	1	-1E+10	1
4902554	16	C	07/11/2021	05:08	-136.434	49.640	0	572.80	0	3.9500	0	34.1480	0	27.118	0	567.123	0	-1e10	8	-1e10	8	-1E+10	1	-1E+10	1	-1E+10	1	-1E+10	1	-1E+10	1	-1E+10	1
4902554	16	C	07/11/2021	05:08	-136.434	49.640	0	577.60	0	3.9370	0	34.1500	0	27.121	0	571.869	0	-1e10	8	-1e10	8	-1E+10	1	-1E+10	1	-1E+10	1	-1E+10	1	-1E+10	1	-1E+10	1
4902554	16	C	07/11/2021	05:08	-136.434	49.640	0	582.80	0	3.9290	0	34.1520	0	27.123	0	577.010	0	-1e10	8	-1e10	8	-1E+10	1	-1E+10	1	-1E+10	1	-1E+10	1	-1E+10	1	-1E+10	1
4902554	16	C	07/11/2021	05:08	-136.434	49.640	0	588.10	0	3.9210	0	34.1560	0	27.127	0	582.250	0	-1e10	8	-1e10	8	-1E+10	1	-1E+10	1	-1E+10	1	-1E+10	1	-1E+10	1	-1E+10	1
4902554	16	C	07/11/2021	05:08	-136.434	49.640	0	593.00	0	3.9070	0	34.1610	0	27.133	0	587.095	0	-1e10	8	-1e10	8	-1E+10	1	-1E+10	1	-1E+10	1	-1E+10	1	-1E+10	1	-1E+10	1
4902554	16	C	07/11/2021	05:08	-136.434	49.640	0	597.80	0	3.8980	0	34.1630	0	27.135	0	591.840	0	-1e10	8	-1e10	8	-1E+10	1	-1E+10	1	-1E+10	1	-1E+10	1	-1E+10	1	-1E+10	1
4902554	16	C	07/11/2021	05:08	-136.434	49.640	0	602.60	0	3.8970	0	34.1640	0	27.136	0	596.585	0	-1e10	8	-1e10	8	-1E+10	1	-1E+10	1	-1E+10	1	-1E+10	1	-1E+10	1	-1E+10	1
4902554	16	C	07/11/2021	05:08	-136.434	49.640	0	607.60	0	3.8970	0	34.1670	0	27.138	0	601.528	0	-1e10	8	-1e10	8	-1E+10	1	-1E+10	1	-1E+10	1	-1E+10	1	-1E+10	1	-1E+10	1
4902554	16	C	07/11/2021	05:08	-136.434	49.640	0	612.50	0	3.8820	0	34.1720	0	27.144	0	606.372	0	-1e10	8	-1e10	8	-1E+10	1	-1E+10	1	-1E+10	1	-1E+10	1	-1E+10	1	-1E+10	1
4902554	16	C	07/11/2021	05:08	-136.434	49.640	0	617.90	0	3.8710	0	34.1760	0	27.148	0	611.710	0	-1e10	8	-1e10	8	-1E+10	1	-1E+10	1	-1E+10	1	-1E+10	1	-1E+10	1	-1E+10	1
4902554	16	C	07/11/2021	05:08	-136.434	49.640	0	623.40	0	3.8560	0	34.1820	0	27.155	0	617.147	0	-1e10	8	-1e10	8	-1E+10	1	-1E+10	1	-1E+10	1	-1E+10	1	-1E+10	1	-1E+10	1
4902554	16	C	07/11/2021	05:08	-136.434	49.640	0	628.40	0	3.8470	0	34.1840	0	27.157	0	622.089	0	-1e10	8	-1e10	8	-1E+10	1	-1E+10	1	-1E+10	1	-1E+10	1	-1E+10	1	-1E+10	1
4902554	16	C	07/11/2021	05:08	-136.434	49.640	0	633.30	0	3.8390	0	34.1860	0	27.160	0	626.933	0	-1e10	8	-1e10	8	-1E+10	1	-1E+10	1	-1E+10	1	-1E+10	1	-1E+10	1	-1E+10	1
4902554	16	C	07/11/2021	05:08	-136.434	49.640	0	638.30	0	3.8230	0	34.1920	0	27.166	0	631.875	0	-1e10	8	-1e10	8	-1E+10	1	-1E+10	1	-1E+10	1	-1E+10	1	-1E+10	1	-1E+10	1
4902554	16	C	07/11/2021	05:08	-136.434	49.640	0	643.30	0	3.8160	0	34.1950	0	27.169	0	636.817	0	-1e10	8	-1e10	8	-1E+10	1	-1E+10	1	-1E+10	1	-1E+10	1	-1E+10	1	-1E+10	1
4902554	16	C	07/11/2021	05:08	-136.434	49.640	0	648.30	0	3.8040	0	34.1990	0	27.174	0	641.759	0	-1e10	8	-1e10	8	-1E+10	1	-1E+10	1	-1E+10	1	-1E+10	1	-1E+10	1	-1E+10	1
4902554	16	C	07/11/2021	05:08	-136.434	49.640	0	653.30	0	3.7880	0	34.2040	0	27.179	0	646.701	0	-1e10	8	-1e10	8	-1E+10	1	-1E+10	1	-1E+10	1	-1E+10	1	-1E+10	1	-1E+10	1
4902554	16	C	07/11/2021	05:08	-136.434	49.640	0	658.30	0	3.7790	0	34.2060	0	27.182	0	651.642	0	-1e10	8	-1e10	8	-1E+10	1	-1E+10	1	-1E+10	1	-1E+10	1	-1E+10	1	-1E+10	1
4902554	16	C	07/11/2021	05:08	-136.434	49.640	0	663.40	0	3.7660	0	34.2100	0	27.186	0	656.683	0	-1e10	8	-1e10	8	-1E+10	1	-1E+10	1	-1E+10	1	-1E+10	1	-1E+10	1	-1E+10	1
4902554	16	C	07/11/2021	05:08	-136.434	49.640	0	668.00	0	3.7550	0	34.2130	0	27.190	0	661.229	0	-1e10	8	-1e10	8	-1E+10	1	-1E+10	1	-1E+10	1	-1E+10	1	-1E+10	1	-1E+10	1
4902554	16	C	07/11/2021	05:08	-136.434	49.640	0	672.50	0	3.7460	0	34.2170	0	27.194	0	665.676	0	-1e10	8	-1e10	8	-1E+10	1	-1E+10	1	-1E+10	1	-1E+10	1	-1E+10	1	-1E+10	1
4902554	16	C	07/11/2021	05:08	-136.434	49.640	0	677.60	0	3.7320	0	34.2200	0	27.198	0	670.716	0	-1e10	8	-1e10	8	-1E+10	1	-1E+10	1	-1E+10	1	-1E+10	1	-1E+10	1	-1E+10	1
4902554	16	C	07/11/2021	05:08	-136.434	49.640	0	682.60	0	3.7210	0	34.2230	0	27.201	0	675.657	0	-1e10	8	-1e10	8	-1E+10	1	-1E+10	1	-1E+10	1	-1E+10	1	-1E+10	1	-1E+10	1
4902554	16	C	07/11/2021	05:08	-136.434	49.640	0	687.70	0	3.7020	0	34.2270	0	27.206	0	680.697	0	-1e10	8	-1e10	8	-1E+10	1	-1E+10	1	-1E+10	1	-1E+10	1	-1E+10	1	-1E+10	1
4902554	16	C	07/11/2021	05:08	-136.434	49.640	0	692.80	0	3.6910	0	34.2300	0	27.210	0	685.737	0	-1e10	8	-1e10	8	-1E+10	1	-1E+10	1	-1E+10	1	-1E+10	1	-1E+10	1	-1E+10	1
4902554	16	C	07/11/2021	05:08	-136.434	49.640	0	697.80	0	3.6780	0	34.2330	0	27.213	0	690.677	0	-1e10	8	-1e10	8	-1E+10	1	-1E+10	1	-1E+10	1	-1E+10	1	-1E+10	1	-1E+10	1
4902554	16	C	07/11/2021	05:08	-136.434	49.640	0	702.80	0	3.6600	0	34.2380	0	27.219	0	695.618	0	-1e10	8	-1e10	8	-1E+10	1	-1E+10	1	-1E+10	1	-1E+10	1	-1E+10	1	-1E+10	1
4902554	16	C	07/11/2021	05:08	-136.434	49.640	0	707.80	0	3.6420	0	34.2440	0	27.226	0	700.559	0	-1e10	8	-1e10	8	-1E+10	1	-1E+10	1	-1E+10	1	-1E+10	1	-1E+10	1	-1E+10	1
4902554	16	C	07/11/2021	05:08	-136.434	49.640	0	712.80	0	3.6340	0	34.2450	0	27.227	0	705.499	0	-1e10	8	-1e10	8	-1E+10	1	-1E+10	1	-1E+10	1	-1E+10	1	-1E+10	1	-1E+10	1
4902554	16	C	07/11/2021	05:08	-136.434	49.640	0	717.90	0	3.6260	0	34.2470	0	27.230	0	710.538	0	-1e10	8	-1e10	8	-1E+10	1	-1E+10	1	-1E+10	1	-1E+10	1	-1E+10	1	-1E+10	1
4902554	16	C	07/11/2021	05:08	-136.434	49.640	0	722.80	0	3.6120	0	34.2500	0	27.234	0	715.379	0	-1e10	8	-1e10	8	-1E+10	1	-1E+10	1	-1E+10	1	-1E+10	1	-1E+10	1	-1E+10	1
4902554	16	C	07/11/2021	05:08	-136.434	49.640	0	727.90	0	3.5960	0	34.2530	0	27.238	0	720.418	0	-1e10	8	-1e10	8	-1E+10	1	-1E+10	1	-1E+10	1	-1E+10	1	-1E+10	1	-1E+10	1
4902554	16	C	07/11/2021	05:08	-136.434	49.640	0	733.10	0	3.5720	0	34.2580	0	27.244	0	725.556	0	-1e10	8	-1e10	8	-1E+10	1	-1E+10	1	-1E+10	1	-1E+10	1	-1E+10	1	-1E+10	1
4902554	16	C	07/11/2021	05:08	-136.434	49.640	0	738.10	0	3.5500	0	34.2640	0	27.251	0	730.496	0	-1e10	8	-1e10	8	-1E+10	1	-1E+10	1	-1E+10	1	-1E+10	1	-1E+10	1	-1E+10	1
4902554	16	C	07/11/2021	05:08	-136.434	49.640	0	742.80	0	3.5430	0	34.2650	0	27.252	0	735.139	0	-1e10	8	-1e10	8	-1E+10	1	-1E+10	1	-1E+10	1	-1E+10	1	-1E+10	1	-1E+10	1
4902554	16	C	07/11/2021	05:08	-136.434	49.640	0	747.60	0	3.5410	0	34.2670	0	27.254	0	739.881	0	-1e10	8	-1e10	8	-1E+10	1	-1E+10	1	-1E+10	1	-1E+10	1	-1E+10	1	-1E+10	1
4902554	16	C	07/11/2021	05:08	-136.434	49.640	0	752.80	0	3.5300	0	34.2680	0	27.256	0	745.018	0	-1e10	8	-1e10	8	-1E+10	1	-1E+10	1	-1E+10	1	-1E+10	1	-1E+10	1	-1E+10	1
4902554	16	C	07/11/2021	05:08	-136.434	49.640	0	758.10	0	3.5150	0	34.2710	0	27.260	0	750.254	0	-1e10	8	-1e10	8	-1E+10	1	-1E+10	1	-1E+10	1	-1E+10	1	-1E+10	1	-1E+10	1
4902554	16	C	07/11/2021	05:08	-136.434	49.640	0	762.90	0	3.5090	0	34.2740	0	27.263	0	754.995	0	-1e10	8	-1e10	8	-1E+10	1	-1E+10	1	-1E+10	1	-1E+10	1	-1E+10	1	-1E+10	1
4902554	16	C	07/11/2021	05:08	-136.434	49.640	0	767.90	0	3.4960	0	34.2780	0	27.267	0	759.934	0	-1e10	8	-1e10	8	-1E+10	1	-1E+10	1	-1E+10	1	-1E+10	1	-1E+10	1	-1E+10	1
4902554	16	C	07/11/2021	05:08	-136.434	49.640	0	772.90	0	3.4750	0	34.2800	0	27.271	0	764.873	0	-1e10	8	-1e10	8	-1E+10	1	-1E+10	1	-1E+10	1	-1E+10	1	-1E+10	1	-1E+10	1
4902554	16	C	07/11/2021	05:08	-136.434	49.640	0	778.00	0	3.4610	0	34.2820	0	27.274	0	769.911	0	-1e10	8	-1e10	8	-1E+10	1	-1E+10	1	-1E+10	1	-1E+10	1	-1E+10	1	-1E+10	1
4902554	16	C	07/11/2021	05:08	-136.434	49.640	0	783.20	0	3.4540	0	34.2840	0	27.276	0	775.047	0	-1e10	8	-1e10	8	-1E+10	1	-1E+10	1	-1E+10	1	-1E+10	1	-1E+10	1	-1E+10	1
4902554	16	C	07/11/2021	05:08	-136.434	49.640	0	788.00	0	3.4430	0	34.2860	0	27.279	0	779.788	0	-1e10	8	-1e10	8	-1E+10	1	-1E+10	1	-1E+10	1	-1E+10	1	-1E+10	1	-1E+10	1
4902554	16	C	07/11/2021	05:08	-136.434	49.640	0	792.90	0	3.4360	0	34.2890	0	27.282	0	784.628	0	-1e10	8	-1e10	8	-1E+10	1	-1E+10	1	-1E+10	1	-1E+10	1	-1E+10	1	-1E+10	1
4902554	16	C	07/11/2021	05:08	-136.434	49.640	0	797.90	0	3.4220	0	34.2920	0	27.286	0	789.566	0	-1e10	8	-1e10	8	-1E+10	1	-1E+10	1	-1E+10	1	-1E+10	1	-1E+10	1	-1E+10	1
4902554	16	C	07/11/2021	05:08	-136.434	49.640	0	802.90	0	3.4090	0	34.2950	0	27.289	0	794.505	0	-1e10	8	-1e10	8	-1E+10	1	-1E+10	1	-1E+10	1	-1E+10	1	-1E+10	1	-1E+10	1
4902554	16	C	07/11/2021	05:08	-136.434	49.640	0	808.00	0	3.3970	0	34.2980	0	27.293	0	799.542	0	-1e10	8	-1e10	8	-1E+10	1	-1E+10	1	-1E+10	1	-1E+10	1	-1E+10	1	-1E+10	1
4902554	16	C	07/11/2021	05:08	-136.434	49.640	0	813.20	0	3.3850	0	34.3010	0	27.297	0	804.677	0	-1e10	8	-1e10	8	-1E+10	1	-1E+10	1	-1E+10	1	-1E+10	1	-1E+10	1	-1E+10	1
4902554	16	C	07/11/2021	05:08	-136.434	49.640	0	817.90	0	3.3760	0	34.3030	0	27.299	0	809.319	0	-1e10	8	-1e10	8	-1E+10	1	-1E+10	1	-1E+10	1	-1E+10	1	-1E+10	1	-1E+10	1
4902554	16	C	07/11/2021	05:08	-136.434	49.640	0	822.60	0	3.3640	0	34.3050	0	27.302	0	813.960	0	-1e10	8	-1e10	8	-1E+10	1	-1E+10	1	-1E+10	1	-1E+10	1	-1E+10	1	-1E+10	1
4902554	16	C	07/11/2021	05:08	-136.434	49.640	0	828.00	0	3.3510	0	34.3070	0	27.305	0	819.293	0	-1e10	8	-1e10	8	-1E+10	1	-1E+10	1	-1E+10	1	-1E+10	1	-1E+10	1	-1E+10	1
4902554	16	C	07/11/2021	05:08	-136.434	49.640	0	832.90	0	3.3420	0	34.3090	0	27.307	0	824.132	0	-1e10	8	-1e10	8	-1E+10	1	-1E+10	1	-1E+10	1	-1E+10	1	-1E+10	1	-1E+10	1
4902554	16	C	07/11/2021	05:08	-136.434	49.640	0	837.90	0	3.3350	0	34.3100	0	27.309	0	829.069	0	-1e10	8	-1e10	8	-1E+10	1	-1E+10	1	-1E+10	1	-1E+10	1	-1E+10	1	-1E+10	1
4902554	16	C	07/11/2021	05:08	-136.434	49.640	0	842.90	0	3.3190	0	34.3130	0	27.313	0	834.007	0	-1e10	8	-1e10	8	-1E+10	1	-1E+10	1	-1E+10	1	-1E+10	1	-1E+10	1	-1E+10	1
4902554	16	C	07/11/2021	05:08	-136.434	49.640	0	847.80	0	3.3100	0	34.3150	0	27.315	0	838.845	0	-1e10	8	-1e10	8	-1E+10	1	-1E+10	1	-1E+10	1	-1E+10	1	-1E+10	1	-1E+10	1
4902554	16	C	07/11/2021	05:08	-136.434	49.640	0	852.80	0	3.3010	0	34.3170	0	27.318	0	843.782	0	-1e10	8	-1e10	8	-1E+10	1	-1E+10	1	-1E+10	1	-1E+10	1	-1E+10	1	-1E+10	1
4902554	16	C	07/11/2021	05:08	-136.434	49.640	0	857.80	0	3.2940	0	34.3180	0	27.319	0	848.719	0	-1e10	8	-1e10	8	-1E+10	1	-1E+10	1	-1E+10	1	-1E+10	1	-1E+10	1	-1E+10	1
4902554	16	C	07/11/2021	05:08	-136.434	49.640	0	862.90	0	3.2800	0	34.3210	0	27.323	0	853.755	0	-1e10	8	-1e10	8	-1E+10	1	-1E+10	1	-1E+10	1	-1E+10	1	-1E+10	1	-1E+10	1
4902554	16	C	07/11/2021	05:08	-136.434	49.640	0	868.00	0	3.2740	0	34.3230	0	27.325	0	858.790	0	-1e10	8	-1e10	8	-1E+10	1	-1E+10	1	-1E+10	1	-1E+10	1	-1E+10	1	-1E+10	1
4902554	16	C	07/11/2021	05:08	-136.434	49.640	0	873.20	0	3.2700	0	34.3230	0	27.325	0	863.924	0	-1e10	8	-1e10	8	-1E+10	1	-1E+10	1	-1E+10	1	-1E+10	1	-1E+10	1	-1E+10	1
4902554	16	C	07/11/2021	05:08	-136.434	49.640	0	877.90	0	3.2620	0	34.3250	0	27.328	0	868.565	0	-1e10	8	-1e10	8	-1E+10	1	-1E+10	1	-1E+10	1	-1E+10	1	-1E+10	1	-1E+10	1
4902554	16	C	07/11/2021	05:08	-136.434	49.640	0	882.70	0	3.2510	0	34.3270	0	27.330	0	873.304	0	-1e10	8	-1e10	8	-1E+10	1	-1E+10	1	-1E+10	1	-1E+10	1	-1E+10	1	-1E+10	1
4902554	16	C	07/11/2021	05:08	-136.434	49.640	0	887.90	0	3.2440	0	34.3280	0	27.332	0	878.437	0	-1e10	8	-1e10	8	-1E+10	1	-1E+10	1	-1E+10	1	-1E+10	1	-1E+10	1	-1E+10	1
4902554	16	C	07/11/2021	05:08	-136.434	49.640	0	893.10	0	3.2350	0	34.3300	0	27.334	0	883.571	0	-1e10	8	-1e10	8	-1E+10	1	-1E+10	1	-1E+10	1	-1E+10	1	-1E+10	1	-1E+10	1
4902554	16	C	07/11/2021	05:08	-136.434	49.640	0	897.90	0	3.2290	0	34.3310	0	27.336	0	888.310	0	-1e10	8	-1e10	8	-1E+10	1	-1E+10	1	-1E+10	1	-1E+10	1	-1E+10	1	-1E+10	1
4902554	16	C	07/11/2021	05:08	-136.434	49.640	0	902.60	0	3.2200	0	34.3330	0	27.338	0	892.949	0	-1e10	8	-1e10	8	-1E+10	1	-1E+10	1	-1E+10	1	-1E+10	1	-1E+10	1	-1E+10	1
4902554	16	C	07/11/2021	05:08	-136.434	49.640	0	907.90	0	3.2090	0	34.3350	0	27.341	0	898.181	0	-1e10	8	-1e10	8	-1E+10	1	-1E+10	1	-1E+10	1	-1E+10	1	-1E+10	1	-1E+10	1
4902554	16	C	07/11/2021	05:08	-136.434	49.640	0	912.90	0	3.2020	0	34.3360	0	27.342	0	903.117	0	-1e10	8	-1e10	8	-1E+10	1	-1E+10	1	-1E+10	1	-1E+10	1	-1E+10	1	-1E+10	1
4902554	16	C	07/11/2021	05:08	-136.434	49.640	0	918.00	0	3.1960	0	34.3370	0	27.344	0	908.151	0	-1e10	8	-1e10	8	-1E+10	1	-1E+10	1	-1E+10	1	-1E+10	1	-1E+10	1	-1E+10	1
4902554	16	C	07/11/2021	05:08	-136.434	49.640	0	923.00	0	3.1930	0	34.3380	0	27.345	0	913.087	0	-1e10	8	-1e10	8	-1E+10	1	-1E+10	1	-1E+10	1	-1E+10	1	-1E+10	1	-1E+10	1
4902554	16	C	07/11/2021	05:08	-136.434	49.640	0	927.70	0	3.1910	0	34.3380	0	27.345	0	917.726	0	-1e10	8	-1e10	8	-1E+10	1	-1E+10	1	-1E+10	1	-1E+10	1	-1E+10	1	-1E+10	1
4902554	16	C	07/11/2021	05:08	-136.434	49.640	0	932.80	0	3.1860	0	34.3390	0	27.346	0	922.760	0	-1e10	8	-1e10	8	-1E+10	1	-1E+10	1	-1E+10	1	-1E+10	1	-1E+10	1	-1E+10	1
4902554	16	C	07/11/2021	05:08	-136.434	49.640	0	938.10	0	3.1740	0	34.3410	0	27.349	0	927.991	0	-1e10	8	-1e10	8	-1E+10	1	-1E+10	1	-1E+10	1	-1E+10	1	-1E+10	1	-1E+10	1
4902554	16	C	07/11/2021	05:08	-136.434	49.640	0	942.90	0	3.1620	0	34.3430	0	27.352	0	932.729	0	-1e10	8	-1e10	8	-1E+10	1	-1E+10	1	-1E+10	1	-1E+10	1	-1E+10	1	-1E+10	1
4902554	16	C	07/11/2021	05:08	-136.434	49.640	0	947.80	0	3.1480	0	34.3460	0	27.355	0	937.565	0	-1e10	8	-1e10	8	-1E+10	1	-1E+10	1	-1E+10	1	-1E+10	1	-1E+10	1	-1E+10	1
4902554	16	C	07/11/2021	05:08	-136.434	49.640	0	952.80	0	3.1390	0	34.3470	0	27.357	0	942.500	0	-1e10	8	-1e10	8	-1E+10	1	-1E+10	1	-1E+10	1	-1E+10	1	-1E+10	1	-1E+10	1
4902554	16	C	07/11/2021	05:08	-136.434	49.640	0	957.80	0	3.1340	0	34.3480	0	27.358	0	947.434	0	-1e10	8	-1e10	8	-1E+10	1	-1E+10	1	-1E+10	1	-1E+10	1	-1E+10	1	-1E+10	1
4902554	16	C	07/11/2021	05:08	-136.434	49.640	0	962.80	0	3.1320	0	34.3490	0	27.359	0	952.369	0	-1e10	8	-1e10	8	-1E+10	1	-1E+10	1	-1E+10	1	-1E+10	1	-1E+10	1	-1E+10	1
4902554	16	C	07/11/2021	05:08	-136.434	49.640	0	967.90	0	3.1210	0	34.3510	0	27.362	0	957.402	0	-1e10	8	-1e10	8	-1E+10	1	-1E+10	1	-1E+10	1	-1E+10	1	-1E+10	1	-1E+10	1
4902554	16	C	07/11/2021	05:08	-136.434	49.640	0	972.90	0	3.1090	0	34.3540	0	27.366	0	962.336	0	-1e10	8	-1e10	8	-1E+10	1	-1E+10	1	-1E+10	1	-1E+10	1	-1E+10	1	-1E+10	1
4902554	16	C	07/11/2021	05:08	-136.434	49.640	0	978.00	0	3.1000	0	34.3560	0	27.368	0	967.369	0	-1e10	8	-1e10	8	-1E+10	1	-1E+10	1	-1E+10	1	-1E+10	1	-1E+10	1	-1E+10	1
4902554	16	C	07/11/2021	05:08	-136.434	49.640	0	983.10	0	3.0970	0	34.3560	0	27.368	0	972.402	0	-1e10	8	-1e10	8	-1E+10	1	-1E+10	1	-1E+10	1	-1E+10	1	-1E+10	1	-1E+10	1
4902554	16	C	07/11/2021	05:08	-136.434	49.640	0	988.10	0	3.0880	0	34.3580	0	27.371	0	977.336	0	-1e10	8	-1e10	8	-1E+10	1	-1E+10	1	-1E+10	1	-1E+10	1	-1E+10	1	-1E+10	1
4902554	16	C	07/11/2021	05:08	-136.434	49.640	0	993.10	0	3.0790	0	34.3590	0	27.372	0	982.269	0	-1e10	8	-1e10	8	-1E+10	1	-1E+10	1	-1E+10	1	-1E+10	1	-1E+10	1	-1E+10	1
4902554	16	C	07/11/2021	05:08	-136.434	49.640	0	998.00	0	3.0680	0	34.3620	0	27.376	0	987.105	0	-1e10	8	-1e10	8	-1E+10	1	-1E+10	1	-1E+10	1	-1E+10	1	-1E+10	1	-1E+10	1
4902554	16	C	07/11/2021	05:08	-136.434	49.640	0	1005.50	0	3.0540	0	34.3640	0	27.379	0	994.505	0	-1e10	8	-1e10	8	-1E+10	1	-1E+10	1	-1E+10	1	-1E+10	1	-1E+10	1	-1E+10	1
4902554	16	C	07/11/2021	05:08	-136.434	49.640	0	1015.60	0	3.0410	0	34.3670	0	27.382	0	1004.470	0	-1e10	8	-1e10	8	-1E+10	1	-1E+10	1	-1E+10	1	-1E+10	1	-1E+10	1	-1E+10	1
4902554	16	C	07/11/2021	05:08	-136.434	49.640	0	1025.70	0	3.0300	0	34.3700	0	27.386	0	1014.435	0	-1e10	8	-1e10	8	-1E+10	1	-1E+10	1	-1E+10	1	-1E+10	1	-1E+10	1	-1E+10	1
4902554	16	C	07/11/2021	05:08	-136.434	49.640	0	1035.60	0	3.0080	0	34.3740	0	27.391	0	1024.202	0	-1e10	8	-1e10	8	-1E+10	1	-1E+10	1	-1E+10	1	-1E+10	1	-1E+10	1	-1E+10	1
4902554	16	C	07/11/2021	05:08	-136.434	49.640	0	1045.60	0	2.9910	0	34.3760	0	27.394	0	1034.068	0	-1e10	8	-1e10	8	-1E+10	1	-1E+10	1	-1E+10	1	-1E+10	1	-1E+10	1	-1E+10	1
4902554	16	C	07/11/2021	05:08	-136.434	49.640	0	1055.60	0	2.9740	0	34.3790	0	27.398	0	1043.932	0	-1e10	8	-1e10	8	-1E+10	1	-1E+10	1	-1E+10	1	-1E+10	1	-1E+10	1	-1E+10	1
4902554	16	C	07/11/2021	05:08	-136.434	49.640	0	1065.30	0	2.9600	0	34.3810	0	27.401	0	1053.501	0	-1e10	8	-1e10	8	-1E+10	1	-1E+10	1	-1E+10	1	-1E+10	1	-1E+10	1	-1E+10	1
4902554	16	C	07/11/2021	05:08	-136.434	49.640	0	1075.60	0	2.9390	0	34.3850	0	27.406	0	1063.661	0	-1e10	8	-1e10	8	-1E+10	1	-1E+10	1	-1E+10	1	-1E+10	1	-1E+10	1	-1E+10	1
4902554	16	C	07/11/2021	05:08	-136.434	49.640	0	1085.40	0	2.9260	0	34.3880	0	27.410	0	1073.327	0	-1e10	8	-1e10	8	-1E+10	1	-1E+10	1	-1E+10	1	-1E+10	1	-1E+10	1	-1E+10	1
4902554	16	C	07/11/2021	05:08	-136.434	49.640	0	1095.40	0	2.9170	0	34.3900	0	27.412	0	1083.190	0	-1e10	8	-1e10	8	-1E+10	1	-1E+10	1	-1E+10	1	-1E+10	1	-1E+10	1	-1E+10	1
4902554	16	C	07/11/2021	05:08	-136.434	49.640	0	1105.50	0	2.9010	0	34.3940	0	27.417	0	1093.151	0	-1e10	8	-1e10	8	-1E+10	1	-1E+10	1	-1E+10	1	-1E+10	1	-1E+10	1	-1E+10	1
4902554	16	C	07/11/2021	05:08	-136.434	49.640	0	1115.30	0	2.8820	0	34.3970	0	27.421	0	1102.816	0	-1e10	8	-1e10	8	-1E+10	1	-1E+10	1	-1E+10	1	-1E+10	1	-1E+10	1	-1E+10	1
4902554	16	C	07/11/2021	05:08	-136.434	49.640	0	1125.10	0	2.8690	0	34.3990	0	27.424	0	1112.480	0	-1e10	8	-1e10	8	-1E+10	1	-1E+10	1	-1E+10	1	-1E+10	1	-1E+10	1	-1E+10	1
4902554	16	C	07/11/2021	05:08	-136.434	49.640	0	1135.30	0	2.8520	0	34.4030	0	27.429	0	1122.538	0	-1e10	8	-1e10	8	-1E+10	1	-1E+10	1	-1E+10	1	-1E+10	1	-1E+10	1	-1E+10	1
4902554	16	C	07/11/2021	05:08	-136.434	49.640	0	1145.20	0	2.8340	0	34.4060	0	27.433	0	1132.300	0	-1e10	8	-1e10	8	-1E+10	1	-1E+10	1	-1E+10	1	-1E+10	1	-1E+10	1	-1E+10	1
4902554	16	C	07/11/2021	05:08	-136.434	49.640	0	1155.20	0	2.8190	0	34.4090	0	27.437	0	1142.161	0	-1e10	8	-1e10	8	-1E+10	1	-1E+10	1	-1E+10	1	-1E+10	1	-1E+10	1	-1E+10	1
4902554	16	C	07/11/2021	05:08	-136.434	49.640	0	1165.50	0	2.8010	0	34.4120	0	27.441	0	1152.316	0	-1e10	8	-1e10	8	-1E+10	1	-1E+10	1	-1E+10	1	-1E+10	1	-1E+10	1	-1E+10	1
4902554	16	C	07/11/2021	05:08	-136.434	49.640	0	1175.30	0	2.7810	0	34.4160	0	27.446	0	1161.978	0	-1e10	8	-1e10	8	-1E+10	1	-1E+10	1	-1E+10	1	-1E+10	1	-1E+10	1	-1E+10	1
4902554	16	C	07/11/2021	05:08	-136.434	49.640	0	1185.20	0	2.7660	0	34.4180	0	27.449	0	1171.738	0	-1e10	8	-1e10	8	-1E+10	1	-1E+10	1	-1E+10	1	-1E+10	1	-1E+10	1	-1E+10	1
4902554	16	C	07/11/2021	05:08	-136.434	49.640	0	1195.60	0	2.7490	0	34.4220	0	27.453	0	1181.991	0	-1e10	8	-1e10	8	-1E+10	1	-1E+10	1	-1E+10	1	-1E+10	1	-1E+10	1	-1E+10	1
4902554	16	C	07/11/2021	05:08	-136.434	49.640	0	1205.50	0	2.7410	0	34.4230	0	27.455	0	1191.750	0	-1e10	8	-1e10	8	-1E+10	1	-1E+10	1	-1E+10	1	-1E+10	1	-1E+10	1	-1E+10	1
4902554	16	C	07/11/2021	05:08	-136.434	49.640	0	1215.20	0	2.7200	0	34.4270	0	27.460	0	1201.312	0	-1e10	8	-1e10	8	-1E+10	1	-1E+10	1	-1E+10	1	-1E+10	1	-1E+10	1	-1E+10	1
4902554	16	C	07/11/2021	05:08	-136.434	49.640	0	1225.40	0	2.6980	0	34.4320	0	27.466	0	1211.366	0	-1e10	8	-1e10	8	-1E+10	1	-1E+10	1	-1E+10	1	-1E+10	1	-1E+10	1	-1E+10	1
4902554	16	C	07/11/2021	05:08	-136.434	49.640	0	1235.80	0	2.6790	0	34.4360	0	27.471	0	1221.617	0	-1e10	8	-1e10	8	-1E+10	1	-1E+10	1	-1E+10	1	-1E+10	1	-1E+10	1	-1E+10	1
4902554	16	C	07/11/2021	05:08	-136.434	49.640	0	1245.40	0	2.6610	0	34.4400	0	27.476	0	1231.079	0	-1e10	8	-1e10	8	-1E+10	1	-1E+10	1	-1E+10	1	-1E+10	1	-1E+10	1	-1E+10	1
4902554	16	C	07/11/2021	05:08	-136.434	49.640	0	1255.20	0	2.6520	0	34.4410	0	27.477	0	1240.737	0	-1e10	8	-1e10	8	-1E+10	1	-1E+10	1	-1E+10	1	-1E+10	1	-1E+10	1	-1E+10	1
4902554	16	C	07/11/2021	05:08	-136.434	49.640	0	1265.20	0	2.6370	0	34.4450	0	27.482	0	1250.592	0	-1e10	8	-1e10	8	-1E+10	1	-1E+10	1	-1E+10	1	-1E+10	1	-1E+10	1	-1E+10	1
4902554	16	C	07/11/2021	05:08	-136.434	49.640	0	1275.30	0	2.6190	0	34.4480	0	27.486	0	1260.545	0	-1e10	8	-1e10	8	-1E+10	1	-1E+10	1	-1E+10	1	-1E+10	1	-1E+10	1	-1E+10	1
4902554	16	C	07/11/2021	05:08	-136.434	49.640	0	1285.50	0	2.6050	0	34.4510	0	27.489	0	1270.597	0	-1e10	8	-1e10	8	-1E+10	1	-1E+10	1	-1E+10	1	-1E+10	1	-1E+10	1	-1E+10	1
4902554	16	C	07/11/2021	05:08	-136.434	49.640	0	1295.80	0	2.5920	0	34.4530	0	27.492	0	1280.746	0	-1e10	8	-1e10	8	-1E+10	1	-1E+10	1	-1E+10	1	-1E+10	1	-1E+10	1	-1E+10	1
4902554	16	C	07/11/2021	05:08	-136.434	49.640	0	1305.50	0	2.5780	0	34.4560	0	27.496	0	1290.303	0	-1e10	8	-1e10	8	-1E+10	1	-1E+10	1	-1E+10	1	-1E+10	1	-1E+10	1	-1E+10	1
4902554	16	C	07/11/2021	05:08	-136.434	49.640	0	1315.60	0	2.5620	0	34.4590	0	27.500	0	1300.255	0	-1e10	8	-1e10	8	-1E+10	1	-1E+10	1	-1E+10	1	-1E+10	1	-1E+10	1	-1E+10	1
4902554	16	C	07/11/2021	05:08	-136.434	49.640	0	1325.40	0	2.5530	0	34.4610	0	27.502	0	1309.910	0	-1e10	8	-1e10	8	-1E+10	1	-1E+10	1	-1E+10	1	-1E+10	1	-1E+10	1	-1E+10	1
4902554	16	C	07/11/2021	05:08	-136.434	49.640	0	1335.40	0	2.5400	0	34.4630	0	27.505	0	1319.762	0	-1e10	8	-1e10	8	-1E+10	1	-1E+10	1	-1E+10	1	-1E+10	1	-1E+10	1	-1E+10	1
4902554	16	C	07/11/2021	05:08	-136.434	49.640	0	1345.30	0	2.5320	0	34.4650	0	27.507	0	1329.515	0	-1e10	8	-1e10	8	-1E+10	1	-1E+10	1	-1E+10	1	-1E+10	1	-1E+10	1	-1E+10	1
4902554	16	C	07/11/2021	05:08	-136.434	49.640	0	1355.20	0	2.5190	0	34.4670	0	27.510	0	1339.267	0	-1e10	8	-1e10	8	-1E+10	1	-1E+10	1	-1E+10	1	-1E+10	1	-1E+10	1	-1E+10	1
4902554	16	C	07/11/2021	05:08	-136.434	49.640	0	1365.50	0	2.5060	0	34.4700	0	27.513	0	1349.413	0	-1e10	8	-1e10	8	-1E+10	1	-1E+10	1	-1E+10	1	-1E+10	1	-1E+10	1	-1E+10	1
4902554	16	C	07/11/2021	05:08	-136.434	49.640	0	1375.70	0	2.4980	0	34.4720	0	27.516	0	1359.460	0	-1e10	8	-1e10	8	-1E+10	1	-1E+10	1	-1E+10	1	-1E+10	1	-1E+10	1	-1E+10	1
4902554	16	C	07/11/2021	05:08	-136.434	49.640	0	1385.70	0	2.4910	0	34.4730	0	27.517	0	1369.309	0	-1e10	8	-1e10	8	-1E+10	1	-1E+10	1	-1E+10	1	-1E+10	1	-1E+10	1	-1E+10	1
4902554	16	C	07/11/2021	05:08	-136.434	49.640	0	1395.80	0	2.4830	0	34.4750	0	27.519	0	1379.257	0	-1e10	8	-1e10	8	-1E+10	1	-1E+10	1	-1E+10	1	-1E+10	1	-1E+10	1	-1E+10	1
4902554	16	C	07/11/2021	05:08	-136.434	49.640	0	1405.60	0	2.4720	0	34.4770	0	27.522	0	1388.909	0	-1e10	8	-1e10	8	-1E+10	1	-1E+10	1	-1E+10	1	-1E+10	1	-1E+10	1	-1E+10	1
4902554	16	C	07/11/2021	05:08	-136.434	49.640	0	1415.50	0	2.4590	0	34.4800	0	27.526	0	1398.658	0	-1e10	8	-1e10	8	-1E+10	1	-1E+10	1	-1E+10	1	-1E+10	1	-1E+10	1	-1E+10	1
4902554	16	C	07/11/2021	05:08	-136.434	49.640	0	1425.40	0	2.4500	0	34.4820	0	27.528	0	1408.408	0	-1e10	8	-1e10	8	-1E+10	1	-1E+10	1	-1E+10	1	-1E+10	1	-1E+10	1	-1E+10	1
4902554	16	C	07/11/2021	05:08	-136.434	49.640	0	1435.30	0	2.4410	0	34.4840	0	27.530	0	1418.156	0	-1e10	8	-1e10	8	-1E+10	1	-1E+10	1	-1E+10	1	-1E+10	1	-1E+10	1	-1E+10	1
4902554	16	C	07/11/2021	05:08	-136.434	49.640	0	1445.60	0	2.4290	0	34.4860	0	27.533	0	1428.298	0	-1e10	8	-1e10	8	-1E+10	1	-1E+10	1	-1E+10	1	-1E+10	1	-1E+10	1	-1E+10	1
4902554	16	C	07/11/2021	05:08	-136.434	49.640	0	1455.50	0	2.4190	0	34.4880	0	27.536	0	1438.046	0	-1e10	8	-1e10	8	-1E+10	1	-1E+10	1	-1E+10	1	-1E+10	1	-1E+10	1	-1E+10	1
4902554	16	C	07/11/2021	05:08	-136.434	49.640	0	1465.50	0	2.4090	0	34.4900	0	27.538	0	1447.892	0	-1e10	8	-1e10	8	-1E+10	1	-1E+10	1	-1E+10	1	-1E+10	1	-1E+10	1	-1E+10	1
4902554	16	C	07/11/2021	05:08	-136.434	49.640	0	1475.40	0	2.3980	0	34.4920	0	27.541	0	1457.639	0	-1e10	8	-1e10	8	-1E+10	1	-1E+10	1	-1E+10	1	-1E+10	1	-1E+10	1	-1E+10	1
4902554	16	C	07/11/2021	05:08	-136.434	49.640	0	1485.50	0	2.3850	0	34.4950	0	27.544	0	1467.582	0	-1e10	8	-1e10	8	-1E+10	1	-1E+10	1	-1E+10	1	-1E+10	1	-1E+10	1	-1E+10	1
4902554	16	C	07/11/2021	05:08	-136.434	49.640	0	1495.70	0	2.3730	0	34.4980	0	27.548	0	1477.624	0	-1e10	8	-1e10	8	-1E+10	1	-1E+10	1	-1E+10	1	-1E+10	1	-1E+10	1	-1E+10	1
4902554	16	C	07/11/2021	05:08	-136.434	49.640	0	1505.50	0	2.3620	0	34.5000	0	27.550	0	1487.271	0	-1e10	8	-1e10	8	-1E+10	1	-1E+10	1	-1E+10	1	-1E+10	1	-1E+10	1	-1E+10	1
4902554	16	C	07/11/2021	05:08	-136.434	49.640	0	1515.50	0	2.3540	0	34.5020	0	27.552	0	1497.114	0	-1e10	8	-1e10	8	-1E+10	1	-1E+10	1	-1E+10	1	-1E+10	1	-1E+10	1	-1E+10	1
4902554	16	C	07/11/2021	05:08	-136.434	49.640	0	1525.50	0	2.3450	0	34.5030	0	27.554	0	1506.957	0	-1e10	8	-1e10	8	-1E+10	1	-1E+10	1	-1E+10	1	-1E+10	1	-1E+10	1	-1E+10	1
4902554	16	C	07/11/2021	05:08	-136.434	49.640	0	1535.30	0	2.3350	0	34.5050	0	27.556	0	1516.603	0	-1e10	8	-1e10	8	-1E+10	1	-1E+10	1	-1E+10	1	-1E+10	1	-1E+10	1	-1E+10	1
4902554	16	C	07/11/2021	05:08	-136.434	49.640	0	1545.20	0	2.3230	0	34.5080	0	27.560	0	1526.347	0	-1e10	8	-1e10	8	-1E+10	1	-1E+10	1	-1E+10	1	-1E+10	1	-1E+10	1	-1E+10	1
4902554	16	C	07/11/2021	05:08	-136.434	49.640	0	1555.30	0	2.3080	0	34.5100	0	27.563	0	1536.287	0	-1e10	8	-1e10	8	-1E+10	1	-1E+10	1	-1E+10	1	-1E+10	1	-1E+10	1	-1E+10	1
4902554	16	C	07/11/2021	05:08	-136.434	49.640	0	1565.30	0	2.2960	0	34.5130	0	27.566	0	1546.128	0	-1e10	8	-1e10	8	-1E+10	1	-1E+10	1	-1E+10	1	-1E+10	1	-1E+10	1	-1E+10	1
4902554	16	C	07/11/2021	05:08	-136.434	49.640	0	1575.30	0	2.2870	0	34.5150	0	27.569	0	1555.969	0	-1e10	8	-1e10	8	-1E+10	1	-1E+10	1	-1E+10	1	-1E+10	1	-1E+10	1	-1E+10	1
4902554	16	C	07/11/2021	05:08	-136.434	49.640	0	1585.50	0	2.2720	0	34.5180	0	27.572	0	1566.006	0	-1e10	8	-1e10	8	-1E+10	1	-1E+10	1	-1E+10	1	-1E+10	1	-1E+10	1	-1E+10	1
4902554	16	C	07/11/2021	05:08	-136.434	49.640	0	1595.30	0	2.2640	0	34.5200	0	27.575	0	1575.649	0	-1e10	8	-1e10	8	-1E+10	1	-1E+10	1	-1E+10	1	-1E+10	1	-1E+10	1	-1E+10	1
4902554	16	C	07/11/2021	05:08	-136.434	49.640	0	1605.30	0	2.2600	0	34.5210	0	27.576	0	1585.489	0	-1e10	8	-1e10	8	-1E+10	1	-1E+10	1	-1E+10	1	-1E+10	1	-1E+10	1	-1E+10	1
4902554	16	C	07/11/2021	05:08	-136.434	49.640	0	1615.50	0	2.2490	0	34.5230	0	27.578	0	1595.524	0	-1e10	8	-1e10	8	-1E+10	1	-1E+10	1	-1E+10	1	-1E+10	1	-1E+10	1	-1E+10	1
4902554	16	C	07/11/2021	05:08	-136.434	49.640	0	1625.30	0	2.2430	0	34.5240	0	27.580	0	1605.166	0	-1e10	8	-1e10	8	-1E+10	1	-1E+10	1	-1E+10	1	-1E+10	1	-1E+10	1	-1E+10	1
4902554	16	C	07/11/2021	05:08	-136.434	49.640	0	1635.20	0	2.2310	0	34.5270	0	27.583	0	1614.905	0	-1e10	8	-1e10	8	-1E+10	1	-1E+10	1	-1E+10	1	-1E+10	1	-1E+10	1	-1E+10	1
4902554	16	C	07/11/2021	05:08	-136.434	49.640	0	1645.30	0	2.2220	0	34.5280	0	27.585	0	1624.842	0	-1e10	8	-1e10	8	-1E+10	1	-1E+10	1	-1E+10	1	-1E+10	1	-1E+10	1	-1E+10	1
4902554	16	C	07/11/2021	05:08	-136.434	49.640	0	1655.40	0	2.2140	0	34.5300	0	27.587	0	1634.777	0	-1e10	8	-1e10	8	-1E+10	1	-1E+10	1	-1E+10	1	-1E+10	1	-1E+10	1	-1E+10	1
4902554	16	C	07/11/2021	05:08	-136.434	49.640	0	1665.50	0	2.2030	0	34.5320	0	27.589	0	1644.712	0	-1e10	8	-1e10	8	-1E+10	1	-1E+10	1	-1E+10	1	-1E+10	1	-1E+10	1	-1E+10	1
4902554	16	C	07/11/2021	05:08	-136.434	49.640	0	1675.60	0	2.1940	0	34.5340	0	27.592	0	1654.646	0	-1e10	8	-1e10	8	-1E+10	1	-1E+10	1	-1E+10	1	-1E+10	1	-1E+10	1	-1E+10	1
4902554	16	C	07/11/2021	05:08	-136.434	49.640	0	1685.60	0	2.1820	0	34.5360	0	27.594	0	1664.482	0	-1e10	8	-1e10	8	-1E+10	1	-1E+10	1	-1E+10	1	-1E+10	1	-1E+10	1	-1E+10	1
4902554	16	C	07/11/2021	05:08	-136.434	49.640	0	1695.50	0	2.1730	0	34.5380	0	27.597	0	1674.219	0	-1e10	8	-1e10	8	-1E+10	1	-1E+10	1	-1E+10	1	-1E+10	1	-1E+10	1	-1E+10	1
4902554	16	C	07/11/2021	05:08	-136.434	49.640	0	1705.50	0	2.1670	0	34.5390	0	27.598	0	1684.054	0	-1e10	8	-1e10	8	-1E+10	1	-1E+10	1	-1E+10	1	-1E+10	1	-1E+10	1	-1E+10	1
4902554	16	C	07/11/2021	05:08	-136.434	49.640	0	1715.60	0	2.1620	0	34.5400	0	27.599	0	1693.987	0	-1e10	8	-1e10	8	-1E+10	1	-1E+10	1	-1E+10	1	-1E+10	1	-1E+10	1	-1E+10	1
4902554	16	C	07/11/2021	05:08	-136.434	49.640	0	1725.70	0	2.1570	0	34.5410	0	27.601	0	1703.919	0	-1e10	8	-1e10	8	-1E+10	1	-1E+10	1	-1E+10	1	-1E+10	1	-1E+10	1	-1E+10	1
4902554	16	C	07/11/2021	05:08	-136.434	49.640	0	1735.50	0	2.1470	0	34.5430	0	27.603	0	1713.556	0	-1e10	8	-1e10	8	-1E+10	1	-1E+10	1	-1E+10	1	-1E+10	1	-1E+10	1	-1E+10	1
4902554	16	C	07/11/2021	05:08	-136.434	49.640	0	1745.20	0	2.1340	0	34.5460	0	27.607	0	1723.093	0	-1e10	8	-1e10	8	-1E+10	1	-1E+10	1	-1E+10	1	-1E+10	1	-1E+10	1	-1E+10	1
4902554	16	C	07/11/2021	05:08	-136.434	49.640	0	1755.50	0	2.1270	0	34.5470	0	27.608	0	1733.221	0	-1e10	8	-1e10	8	-1E+10	1	-1E+10	1	-1E+10	1	-1E+10	1	-1E+10	1	-1E+10	1
4902554	16	C	07/11/2021	05:08	-136.434	49.640	0	1765.50	0	2.1160	0	34.5490	0	27.611	0	1743.053	0	-1e10	8	-1e10	8	-1E+10	1	-1E+10	1	-1E+10	1	-1E+10	1	-1E+10	1	-1E+10	1
4902554	16	C	07/11/2021	05:08	-136.434	49.640	0	1775.20	0	2.1110	0	34.5510	0	27.613	0	1752.590	0	-1e10	8	-1e10	8	-1E+10	1	-1E+10	1	-1E+10	1	-1E+10	1	-1E+10	1	-1E+10	1
4902554	16	C	07/11/2021	05:08	-136.434	49.640	0	1785.40	0	2.1030	0	34.5520	0	27.614	0	1762.618	0	-1e10	8	-1e10	8	-1E+10	1	-1E+10	1	-1E+10	1	-1E+10	1	-1E+10	1	-1E+10	1
4902554	16	C	07/11/2021	05:08	-136.434	49.640	0	1795.70	0	2.0970	0	34.5530	0	27.615	0	1772.743	0	-1e10	8	-1e10	8	-1E+10	1	-1E+10	1	-1E+10	1	-1E+10	1	-1E+10	1	-1E+10	1
4902554	16	C	07/11/2021	05:08	-136.434	49.640	0	1805.40	0	2.0880	0	34.5550	0	27.618	0	1782.278	0	-1e10	8	-1e10	8	-1E+10	1	-1E+10	1	-1E+10	1	-1E+10	1	-1E+10	1	-1E+10	1
4902554	16	C	07/11/2021	05:08	-136.434	49.640	0	1815.20	0	2.0830	0	34.5560	0	27.619	0	1791.912	0	-1e10	8	-1e10	8	-1E+10	1	-1E+10	1	-1E+10	1	-1E+10	1	-1E+10	1	-1E+10	1
4902554	16	C	07/11/2021	05:08	-136.434	49.640	0	1825.60	0	2.0740	0	34.5580	0	27.621	0	1802.134	0	-1e10	8	-1e10	8	-1E+10	1	-1E+10	1	-1E+10	1	-1E+10	1	-1E+10	1	-1E+10	1
4902554	16	C	07/11/2021	05:08	-136.434	49.640	0	1835.40	0	2.0630	0	34.5600	0	27.624	0	1811.766	0	-1e10	8	-1e10	8	-1E+10	1	-1E+10	1	-1E+10	1	-1E+10	1	-1E+10	1	-1E+10	1
4902554	16	C	07/11/2021	05:08	-136.434	49.640	0	1845.40	0	2.0550	0	34.5620	0	27.626	0	1821.595	0	-1e10	8	-1e10	8	-1E+10	1	-1E+10	1	-1E+10	1	-1E+10	1	-1E+10	1	-1E+10	1
4902554	16	C	07/11/2021	05:08	-136.434	49.640	0	1855.40	0	2.0490	0	34.5630	0	27.628	0	1831.423	0	-1e10	8	-1e10	8	-1E+10	1	-1E+10	1	-1E+10	1	-1E+10	1	-1E+10	1	-1E+10	1
4902554	16	C	07/11/2021	05:08	-136.434	49.640	0	1865.30	0	2.0440	0	34.5640	0	27.629	0	1841.152	0	-1e10	8	-1e10	8	-1E+10	1	-1E+10	1	-1E+10	1	-1E+10	1	-1E+10	1	-1E+10	1
4902554	16	C	07/11/2021	05:08	-136.434	49.640	0	1875.30	0	2.0370	0	34.5660	0	27.631	0	1850.979	0	-1e10	8	-1e10	8	-1E+10	1	-1E+10	1	-1E+10	1	-1E+10	1	-1E+10	1	-1E+10	1
4902554	16	C	07/11/2021	05:08	-136.434	49.640	0	1885.40	0	2.0310	0	34.5670	0	27.632	0	1860.904	0	-1e10	8	-1e10	8	-1E+10	1	-1E+10	1	-1E+10	1	-1E+10	1	-1E+10	1	-1E+10	1
4902554	16	C	07/11/2021	05:08	-136.434	49.640	0	1895.60	0	2.0240	0	34.5680	0	27.634	0	1870.927	0	-1e10	8	-1e10	8	-1E+10	1	-1E+10	1	-1E+10	1	-1E+10	1	-1E+10	1	-1E+10	1
4902554	16	C	07/11/2021	05:08	-136.434	49.640	0	1905.40	0	2.0180	0	34.5700	0	27.636	0	1880.556	0	-1e10	8	-1e10	8	-1E+10	1	-1E+10	1	-1E+10	1	-1E+10	1	-1E+10	1	-1E+10	1
4902554	16	C	07/11/2021	05:08	-136.434	49.640	0	1915.30	0	2.0100	0	34.5710	0	27.637	0	1890.283	0	-1e10	8	-1e10	8	-1E+10	1	-1E+10	1	-1E+10	1	-1E+10	1	-1E+10	1	-1E+10	1
4902554	16	C	07/11/2021	05:08	-136.434	49.640	0	1925.20	0	2.0010	0	34.5730	0	27.640	0	1900.009	0	-1e10	8	-1e10	8	-1E+10	1	-1E+10	1	-1E+10	1	-1E+10	1	-1E+10	1	-1E+10	1
4902554	16	C	07/11/2021	05:08	-136.434	49.640	0	1935.20	0	1.9880	0	34.5760	0	27.643	0	1909.834	0	-1e10	8	-1e10	8	-1E+10	1	-1E+10	1	-1E+10	1	-1E+10	1	-1E+10	1	-1E+10	1
4902554	16	C	07/11/2021	05:08	-136.434	49.640	0	1945.20	0	1.9820	0	34.5770	0	27.644	0	1919.657	0	-1e10	8	-1e10	8	-1E+10	1	-1E+10	1	-1E+10	1	-1E+10	1	-1E+10	1	-1E+10	1
4902554	16	C	07/11/2021	05:08	-136.434	49.640	0	1955.70	0	1.9740	0	34.5780	0	27.646	0	1929.972	0	-1e10	8	-1e10	8	-1E+10	1	-1E+10	1	-1E+10	1	-1E+10	1	-1E+10	1	-1E+10	1
4902554	16	C	07/11/2021	05:08	-136.434	49.640	0	1965.40	0	1.9680	0	34.5800	0	27.648	0	1939.500	0	-1e10	8	-1e10	8	-1E+10	1	-1E+10	1	-1E+10	1	-1E+10	1	-1E+10	1	-1E+10	1
4902554	16	C	07/11/2021	05:08	-136.434	49.640	0	1975.40	0	1.9590	0	34.5820	0	27.650	0	1949.323	0	-1e10	8	-1e10	8	-1E+10	1	-1E+10	1	-1E+10	1	-1E+10	1	-1E+10	1	-1E+10	1
4902554	16	C	07/11/2021	05:08	-136.434	49.640	0	1985.30	0	1.9470	0	34.5840	0	27.653	0	1959.047	0	-1e10	8	-1e10	8	-1E+10	1	-1E+10	1	-1E+10	1	-1E+10	1	-1E+10	1	-1E+10	1
4902554	16	C	07/11/2021	05:08	-136.434	49.640	0	1995.10	0	1.9390	0	34.5850	0	27.654	0	1968.672	0	-1e10	8	-1e10	8	-1E+10	1	-1E+10	1	-1E+10	1	-1E+10	1	-1E+10	1	-1E+10	1
4902554	16	C	07/11/2021	05:08	-136.434	49.640	0	2005.30	0	1.9300	0	34.5870	0	27.657	0	1978.689	0	-1e10	8	-1e10	8	-1E+10	1	-1E+10	1	-1E+10	1	-1E+10	1	-1E+10	1	-1E+10	1
4902554	16	C	07/11/2021	05:08	-136.434	49.640	0																										
4902554	17	C	07/21/2021	10:07	-136.357	49.624	0	0.20	0	13.6520	0	32.3000	0	24.173	0	0.198	0	-1e10	8	-1e10	8	-1E+10	1	-1E+10	1	-1E+10	1	-1E+10	1	-1E+10	1	-1E+10	1
4902554	17	C	07/21/2021	10:07	-136.357	49.624	0	0.90	0	13.6510	0	32.3010	0	24.174	0	0.892	0	-1e10	8	-1e10	8	-1E+10	1	-1E+10	1	-1E+10	1	-1E+10	1	-1E+10	1	-1E+10	1
4902554	17	C	07/21/2021	10:07	-136.357	49.624	0	2.10	0	13.6540	0	32.2990	0	24.172	0	2.082	0	-1e10	8	-1e10	8	-1E+10	1	-1E+10	1	-1E+10	1	-1E+10	1	-1E+10	1	-1E+10	1
4902554	17	C	07/21/2021	10:07	-136.357	49.624	0	2.70	0	13.6530	0	32.2990	0	24.172	0	2.677	0	-1e10	8	-1e10	8	-1E+10	1	-1E+10	1	-1E+10	1	-1E+10	1	-1E+10	1	-1E+10	1
4902554	17	C	07/21/2021	10:07	-136.357	49.624	0	3.80	0	13.6540	0	32.3000	0	24.173	0	3.768	0	-1e10	8	-1e10	8	-1E+10	1	-1E+10	1	-1E+10	1	-1E+10	1	-1E+10	1	-1E+10	1
4902554	17	C	07/21/2021	10:07	-136.357	49.624	0	4.80	0	13.6540	0	32.3030	0	24.175	0	4.759	0	-1e10	8	-1e10	8	-1E+10	1	-1E+10	1	-1E+10	1	-1E+10	1	-1E+10	1	-1E+10	1
4902554	17	C	07/21/2021	10:07	-136.357	49.624	0	6.00	0	13.6520	0	32.3030	0	24.175	0	5.949	0	-1e10	8	-1e10	8	-1E+10	1	-1E+10	1	-1E+10	1	-1E+10	1	-1E+10	1	-1E+10	1
4902554	17	C	07/21/2021	10:07	-136.357	49.624	0	7.00	0	13.6480	0	32.3030	0	24.176	0	6.940	0	-1e10	8	-1e10	8	-1E+10	1	-1E+10	1	-1E+10	1	-1E+10	1	-1E+10	1	-1E+10	1
4902554	17	C	07/21/2021	10:07	-136.357	49.624	0	8.00	0	13.6480	0	32.3030	0	24.176	0	7.932	0	-1e10	8	-1e10	8	-1E+10	1	-1E+10	1	-1E+10	1	-1E+10	1	-1E+10	1	-1E+10	1
4902554	17	C	07/21/2021	10:07	-136.357	49.624	0	9.00	0	13.6250	0	32.3030	0	24.181	0	8.923	0	-1e10	8	-1e10	8	-1E+10	1	-1E+10	1	-1E+10	1	-1E+10	1	-1E+10	1	-1E+10	1
4902554	17	C	07/21/2021	10:07	-136.357	49.624	0	10.20	0	13.6300	0	32.3070	0	24.183	0	10.113	0	-1e10	8	-1e10	8	-1E+10	1	-1E+10	1	-1E+10	1	-1E+10	1	-1E+10	1	-1E+10	1
4902554	17	C	07/21/2021	10:07	-136.357	49.624	0	10.90	0	13.6240	0	32.3090	0	24.186	0	10.807	0	-1e10	8	-1e10	8	-1E+10	1	-1E+10	1	-1E+10	1	-1E+10	1	-1E+10	1	-1E+10	1
4902554	17	C	07/21/2021	10:07	-136.357	49.624	0	11.80	0	13.5490	0	32.3000	0	24.194	0	11.699	0	-1e10	8	-1e10	8	-1E+10	1	-1E+10	1	-1E+10	1	-1E+10	1	-1E+10	1	-1E+10	1
4902554	17	C	07/21/2021	10:07	-136.357	49.624	0	13.00	0	13.5170	0	32.3000	0	24.200	0	12.889	0	-1e10	8	-1e10	8	-1E+10	1	-1E+10	1	-1E+10	1	-1E+10	1	-1E+10	1	-1E+10	1
4902554	17	C	07/21/2021	10:07	-136.357	49.624	0	14.30	0	13.4900	0	32.3060	0	24.211	0	14.177	0	-1e10	8	-1e10	8	-1E+10	1	-1E+10	1	-1E+10	1	-1E+10	1	-1E+10	1	-1E+10	1
4902554	17	C	07/21/2021	10:07	-136.357	49.624	0	15.00	0	13.4560	0	32.3010	0	24.214	0	14.871	0	-1e10	8	-1e10	8	-1E+10	1	-1E+10	1	-1E+10	1	-1E+10	1	-1E+10	1	-1E+10	1
4902554	17	C	07/21/2021	10:07	-136.357	49.624	0	15.90	0	13.4030	0	32.3030	0	24.226	0	15.764	0	-1e10	8	-1e10	8	-1E+10	1	-1E+10	1	-1E+10	1	-1E+10	1	-1E+10	1	-1E+10	1
4902554	17	C	07/21/2021	10:07	-136.357	49.624	0	17.10	0	13.3860	0	32.3030	0	24.229	0	16.953	0	-1e10	8	-1e10	8	-1E+10	1	-1E+10	1	-1E+10	1	-1E+10	1	-1E+10	1	-1E+10	1
4902554	17	C	07/21/2021	10:07	-136.357	49.624	0	17.80	0	13.3790	0	32.3040	0	24.231	0	17.647	0	-1e10	8	-1e10	8	-1E+10	1	-1E+10	1	-1E+10	1	-1E+10	1	-1E+10	1	-1E+10	1
4902554	17	C	07/21/2021	10:07	-136.357	49.624	0	18.90	0	13.3670	0	32.3050	0	24.234	0	18.738	0	-1e10	8	-1e10	8	-1E+10	1	-1E+10	1	-1E+10	1	-1E+10	1	-1E+10	1	-1E+10	1
4902554	17	C	07/21/2021	10:07	-136.357	49.624	0	20.30	0	13.3440	0	32.3060	0	24.240	0	20.126	0	-1e10	8	-1e10	8	-1E+10	1	-1E+10	1	-1E+10	1	-1E+10	1	-1E+10	1	-1E+10	1
4902554	17	C	07/21/2021	10:07	-136.357	49.624	0	21.20	0	13.3280	0	32.3070	0	24.244	0	21.018	0	-1e10	8	-1e10	8	-1E+10	1	-1E+10	1	-1E+10	1	-1E+10	1	-1E+10	1	-1E+10	1
4902554	17	C	07/21/2021	10:07	-136.357	49.624	0	21.90	0	13.3020	0	32.3060	0	24.248	0	21.712	0	-1e10	8	-1e10	8	-1E+10	1	-1E+10	1	-1E+10	1	-1E+10	1	-1E+10	1	-1E+10	1
4902554	17	C	07/21/2021	10:07	-136.357	49.624	0	23.00	0	13.1900	0	32.3040	0	24.269	0	22.802	0	-1e10	8	-1e10	8	-1E+10	1	-1E+10	1	-1E+10	1	-1E+10	1	-1E+10	1	-1E+10	1
4902554	17	C	07/21/2021	10:07	-136.357	49.624	0	24.20	0	12.7100	0	32.3170	0	24.373	0	23.992	0	-1e10	8	-1e10	8	-1E+10	1	-1E+10	1	-1E+10	1	-1E+10	1	-1E+10	1	-1E+10	1
4902554	17	C	07/21/2021	10:07	-136.357	49.624	0	24.80	0	12.4660	0	32.3170	0	24.419	0	24.587	0	-1e10	8	-1e10	8	-1E+10	1	-1E+10	1	-1E+10	1	-1E+10	1	-1E+10	1	-1E+10	1
4902554	17	C	07/21/2021	10:07	-136.357	49.624	0	25.90	0	12.1950	0	32.3120	0	24.467	0	25.677	0	-1e10	8	-1e10	8	-1E+10	1	-1E+10	1	-1E+10	1	-1E+10	1	-1E+10	1	-1E+10	1
4902554	17	C	07/21/2021	10:07	-136.357	49.624	0	27.10	0	11.9350	0	32.3250	0	24.525	0	26.867	0	-1e10	8	-1e10	8	-1E+10	1	-1E+10	1	-1E+10	1	-1E+10	1	-1E+10	1	-1E+10	1
4902554	17	C	07/21/2021	10:07	-136.357	49.624	0	28.30	0	11.8680	0	32.3240	0	24.537	0	28.056	0	-1e10	8	-1e10	8	-1E+10	1	-1E+10	1	-1E+10	1	-1E+10	1	-1E+10	1	-1E+10	1
4902554	17	C	07/21/2021	10:07	-136.357	49.624	0	29.20	0	11.8200	0	32.3220	0	24.544	0	28.949	0	-1e10	8	-1e10	8	-1E+10	1	-1E+10	1	-1E+10	1	-1E+10	1	-1E+10	1	-1E+10	1
4902554	17	C	07/21/2021	10:07	-136.357	49.624	0	30.00	0	11.7660	0	32.3200	0	24.553	0	29.742	0	-1e10	8	-1e10	8	-1E+10	1	-1E+10	1	-1E+10	1	-1E+10	1	-1E+10	1	-1E+10	1
4902554	17	C	07/21/2021	10:07	-136.357	49.624	0	31.00	0	11.3780	0	32.3110	0	24.616	0	30.733	0	-1e10	8	-1e10	8	-1E+10	1	-1E+10	1	-1E+10	1	-1E+10	1	-1E+10	1	-1E+10	1
4902554	17	C	07/21/2021	10:07	-136.357	49.624	0	32.00	0	10.7800	0	32.3160	0	24.726	0	31.724	0	-1e10	8	-1e10	8	-1E+10	1	-1E+10	1	-1E+10	1	-1E+10	1	-1E+10	1	-1E+10	1
4902554	17	C	07/21/2021	10:07	-136.357	49.624	0	33.00	0	10.2230	0	32.3320	0	24.833	0	32.716	0	-1e10	8	-1e10	8	-1E+10	1	-1E+10	1	-1E+10	1	-1E+10	1	-1E+10	1	-1E+10	1
4902554	17	C	07/21/2021	10:07	-136.357	49.624	0	34.20	0	9.7410	0	32.3540	0	24.930	0	33.905	0	-1e10	8	-1e10	8	-1E+10	1	-1E+10	1	-1E+10	1	-1E+10	1	-1E+10	1	-1E+10	1
4902554	17	C	07/21/2021	10:07	-136.357	49.624	0	34.80	0	9.6490	0	32.3510	0	24.943	0	34.500	0	-1e10	8	-1e10	8	-1E+10	1	-1E+10	1	-1E+10	1	-1E+10	1	-1E+10	1	-1E+10	1
4902554	17	C	07/21/2021	10:07	-136.357	49.624	0	35.70	0	9.5260	0	32.3550	0	24.966	0	35.392	0	-1e10	8	-1e10	8	-1E+10	1	-1E+10	1	-1E+10	1	-1E+10	1	-1E+10	1	-1E+10	1
4902554	17	C	07/21/2021	10:07	-136.357	49.624	0	36.80	0	9.3120	0	32.3620	0	25.005	0	36.483	0	-1e10	8	-1e10	8	-1E+10	1	-1E+10	1	-1E+10	1	-1E+10	1	-1E+10	1	-1E+10	1
4902554	17	C	07/21/2021	10:07	-136.357	49.624	0	38.00	0	9.2060	0	32.3630	0	25.023	0	37.672	0	-1e10	8	-1e10	8	-1E+10	1	-1E+10	1	-1E+10	1	-1E+10	1	-1E+10	1	-1E+10	1
4902554	17	C	07/21/2021	10:07	-136.357	49.624	0	38.90	0	9.1210	0	32.3670	0	25.039	0	38.564	0	-1e10	8	-1e10	8	-1E+10	1	-1E+10	1	-1E+10	1	-1E+10	1	-1E+10	1	-1E+10	1
4902554	17	C	07/21/2021	10:07	-136.357	49.624	0	39.80	0	9.0140	0	32.3670	0	25.056	0	39.456	0	-1e10	8	-1e10	8	-1E+10	1	-1E+10	1	-1E+10	1	-1E+10	1	-1E+10	1	-1E+10	1
4902554	17	C	07/21/2021	10:07	-136.357	49.624	0	41.10	0	8.8760	0	32.3690	0	25.079	0	40.745	0	-1e10	8	-1e10	8	-1E+10	1	-1E+10	1	-1E+10	1	-1E+10	1	-1E+10	1	-1E+10	1
4902554	17	C	07/21/2021	10:07	-136.357	49.624	0	42.10	0	8.6870	0	32.3850	0	25.120	0	41.736	0	-1e10	8	-1e10	8	-1E+10	1	-1E+10	1	-1E+10	1	-1E+10	1	-1E+10	1	-1E+10	1
4902554	17	C	07/21/2021	10:07	-136.357	49.624	0	43.00	0	8.5780	0	32.3810	0	25.133	0	42.628	0	-1e10	8	-1e10	8	-1E+10	1	-1E+10	1	-1E+10	1	-1E+10	1	-1E+10	1	-1E+10	1
4902554	17	C	07/21/2021	10:07	-136.357	49.624	0	44.30	0	8.4180	0	32.3770	0	25.154	0	43.917	0	-1e10	8	-1e10	8	-1E+10	1	-1E+10	1	-1E+10	1	-1E+10	1	-1E+10	1	-1E+10	1
4902554	17	C	07/21/2021	10:07	-136.357	49.624	0	45.00	0	8.3590	0	32.3860	0	25.170	0	44.611	0	-1e10	8	-1e10	8	-1E+10	1	-1E+10	1	-1E+10	1	-1E+10	1	-1E+10	1	-1E+10	1
4902554	17	C	07/21/2021	10:07	-136.357	49.624	0	45.90	0	8.2710	0	32.3900	0	25.186	0	45.503	0	-1e10	8	-1e10	8	-1E+10	1	-1E+10	1	-1E+10	1	-1E+10	1	-1E+10	1	-1E+10	1
4902554	17	C	07/21/2021	10:07	-136.357	49.624	0	47.10	0	8.1500	0	32.3970	0	25.209	0	46.692	0	-1e10	8	-1e10	8	-1E+10	1	-1E+10	1	-1E+10	1	-1E+10	1	-1E+10	1	-1E+10	1
4902554	17	C	07/21/2021	10:07	-136.357	49.624	0	48.00	0	8.0560	0	32.3930	0	25.220	0	47.585	0	-1e10	8	-1e10	8	-1E+10	1	-1E+10	1	-1E+10	1	-1E+10	1	-1E+10	1	-1E+10	1
4902554	17	C	07/21/2021	10:07	-136.357	49.624	0	49.00	0	7.9600	0	32.3970	0	25.237	0	48.576	0	-1e10	8	-1e10	8	-1E+10	1	-1E+10	1	-1E+10	1	-1E+10	1	-1E+10	1	-1E+10	1
4902554	17	C	07/21/2021	10:07	-136.357	49.624	0	50.00	0	7.8570	0	32.4030	0	25.256	0	49.567	0	-1e10	8	-1e10	8	-1E+10	1	-1E+10	1	-1E+10	1	-1E+10	1	-1E+10	1	-1E+10	1
4902554	17	C	07/21/2021	10:07	-136.357	49.624	0	51.10	0	7.7600	0	32.4070	0	25.273	0	50.657	0	-1e10	8	-1e10	8	-1E+10	1	-1E+10	1	-1E+10	1	-1E+10	1	-1E+10	1	-1E+10	1
4902554	17	C	07/21/2021	10:07	-136.357	49.624	0	51.90	0	7.6680	0	32.4100	0	25.289	0	51.450	0	-1e10	8	-1e10	8	-1E+10	1	-1E+10	1	-1E+10	1	-1E+10	1	-1E+10	1	-1E+10	1
4902554	17	C	07/21/2021	10:07	-136.357	49.624	0	53.00	0	7.5540	0	32.4190	0	25.312	0	52.541	0	-1e10	8	-1e10	8	-1E+10	1	-1E+10	1	-1E+10	1	-1E+10	1	-1E+10	1	-1E+10	1
4902554	17	C	07/21/2021	10:07	-136.357	49.624	0	54.10	0	7.4530	0	32.4190	0	25.326	0	53.631	0	-1e10	8	-1e10	8	-1E+10	1	-1E+10	1	-1E+10	1	-1E+10	1	-1E+10	1	-1E+10	1
4902554	17	C	07/21/2021	10:07	-136.357	49.624	0	55.00	0	7.4080	0	32.4190	0	25.332	0	54.523	0	-1e10	8	-1e10	8	-1E+10	1	-1E+10	1	-1E+10	1	-1E+10	1	-1E+10	1	-1E+10	1
4902554	17	C	07/21/2021	10:07	-136.357	49.624	0	56.20	0	7.3260	0	32.4210	0	25.345	0	55.713	0	-1e10	8	-1e10	8	-1E+10	1	-1E+10	1	-1E+10	1	-1E+10	1	-1E+10	1	-1E+10	1
4902554	17	C	07/21/2021	10:07	-136.357	49.624	0	56.80	0	7.2590	0	32.4220	0	25.355	0	56.307	0	-1e10	8	-1e10	8	-1E+10	1	-1E+10	1	-1E+10	1	-1E+10	1	-1E+10	1	-1E+10	1
4902554	17	C	07/21/2021	10:07	-136.357	49.624	0	58.10	0	7.0840	0	32.4240	0	25.380	0	57.596	0	-1e10	8	-1e10	8	-1E+10	1	-1E+10	1	-1E+10	1	-1E+10	1	-1E+10	1	-1E+10	1
4902554	17	C	07/21/2021	10:07	-136.357	49.624	0	59.00	0	6.9960	0	32.4330	0	25.399	0	58.488	0	-1e10	8	-1e10	8	-1E+10	1	-1E+10	1	-1E+10	1	-1E+10	1	-1E+10	1	-1E+10	1
4902554	17	C	07/21/2021	10:07	-136.357	49.624	0	60.20	0	6.8610	0	32.4370	0	25.420	0	59.677	0	-1e10	8	-1e10	8	-1E+10	1	-1E+10	1	-1E+10	1	-1E+10	1	-1E+10	1	-1E+10	1
4902554	17	C	07/21/2021	10:07	-136.357	49.624	0	60.90	0	6.8490	0	32.4370	0	25.421	0	60.371	0	-1e10	8	-1e10	8	-1E+10	1	-1E+10	1	-1E+10	1	-1E+10	1	-1E+10	1	-1E+10	1
4902554	17	C	07/21/2021	10:07	-136.357	49.624	0	61.80	0	6.8420	0	32.4360	0	25.421	0	61.263	0	-1e10	8	-1e10	8	-1E+10	1	-1E+10	1	-1E+10	1	-1E+10	1	-1E+10	1	-1E+10	1
4902554	17	C	07/21/2021	10:07	-136.357	49.624	0	63.00	0	6.7620	0	32.4390	0	25.434	0	62.453	0	-1e10	8	-1e10	8	-1E+10	1	-1E+10	1	-1E+10	1	-1E+10	1	-1E+10	1	-1E+10	1
4902554	17	C	07/21/2021	10:07	-136.357	49.624	0	63.70	0	6.7540	0	32.4380	0	25.434	0	63.146	0	-1e10	8	-1e10	8	-1E+10	1	-1E+10	1	-1E+10	1	-1E+10	1	-1E+10	1	-1E+10	1
4902554	17	C	07/21/2021	10:07	-136.357	49.624	0	64.90	0	6.7300	0	32.4380	0	25.438	0	64.336	0	-1e10	8	-1e10	8	-1E+10	1	-1E+10	1	-1E+10	1	-1E+10	1	-1E+10	1	-1E+10	1
4902554	17	C	07/21/2021	10:07	-136.357	49.624	0	66.10	0	6.6930	0	32.4410	0	25.445	0	65.525	0	-1e10	8	-1e10	8	-1E+10	1	-1E+10	1	-1E+10	1	-1E+10	1	-1E+10	1	-1E+10	1
4902554	17	C	07/21/2021	10:07	-136.357	49.624	0	67.10	0	6.6790	0	32.4410	0	25.447	0	66.516	0	-1e10	8	-1e10	8	-1E+10	1	-1E+10	1	-1E+10	1	-1E+10	1	-1E+10	1	-1E+10	1
4902554	17	C	07/21/2021	10:07	-136.357	49.624	0	68.10	0	6.6700	0	32.4410	0	25.448	0	67.507	0	-1e10	8	-1e10	8	-1E+10	1	-1E+10	1	-1E+10	1	-1E+10	1	-1E+10	1	-1E+10	1
4902554	17	C	07/21/2021	10:07	-136.357	49.624	0	69.10	0	6.6430	0	32.4420	0	25.452	0	68.498	0	-1e10	8	-1e10	8	-1E+10	1	-1E+10	1	-1E+10	1	-1E+10	1	-1E+10	1	-1E+10	1
4902554	17	C	07/21/2021	10:07	-136.357	49.624	0	70.10	0	6.6220	0	32.4450	0	25.457	0	69.490	0	-1e10	8	-1e10	8	-1E+10	1	-1E+10	1	-1E+10	1	-1E+10	1	-1E+10	1	-1E+10	1
4902554	17	C	07/21/2021	10:07	-136.357	49.624	0	71.10	0	6.5870	0	32.4470	0	25.463	0	70.481	0	-1e10	8	-1e10	8	-1E+10	1	-1E+10	1	-1E+10	1	-1E+10	1	-1E+10	1	-1E+10	1
4902554	17	C	07/21/2021	10:07	-136.357	49.624	0	72.10	0	6.5570	0	32.4490	0	25.469	0	71.472	0	-1e10	8	-1e10	8	-1E+10	1	-1E+10	1	-1E+10	1	-1E+10	1	-1E+10	1	-1E+10	1
4902554	17	C	07/21/2021	10:07	-136.357	49.624	0	73.10	0	6.5230	0	32.4510	0	25.475	0	72.463	0	-1e10	8	-1e10	8	-1E+10	1	-1E+10	1	-1E+10	1	-1E+10	1	-1E+10	1	-1E+10	1
4902554	17	C	07/21/2021	10:07	-136.357	49.624	0	73.90	0	6.5030	0	32.4510	0	25.477	0	73.256	0	-1e10	8	-1e10	8	-1E+10	1	-1E+10	1	-1E+10	1	-1E+10	1	-1E+10	1	-1E+10	1
4902554	17	C	07/21/2021	10:07	-136.357	49.624	0	74.70	0	6.4920	0	32.4520	0	25.479	0	74.049	0	-1e10	8	-1e10	8	-1E+10	1	-1E+10	1	-1E+10	1	-1E+10	1	-1E+10	1	-1E+10	1
4902554	17	C	07/21/2021	10:07	-136.357	49.624	0	75.80	0	6.4820	0	32.4510	0	25.480	0	75.139	0	-1e10	8	-1e10	8	-1E+10	1	-1E+10	1	-1E+10	1	-1E+10	1	-1E+10	1	-1E+10	1
4902554	17	C	07/21/2021	10:07	-136.357	49.624	0	76.90	0	6.4580	0	32.4530	0	25.484	0	76.229	0	-1e10	8	-1e10	8	-1E+10	1	-1E+10	1	-1E+10	1	-1E+10	1	-1E+10	1	-1E+10	1
4902554	17	C	07/21/2021	10:07	-136.357	49.624	0	78.00	0	6.4110	0	32.4570	0	25.494	0	77.319	0	-1e10	8	-1e10	8	-1E+10	1	-1E+10	1	-1E+10	1	-1E+10	1	-1E+10	1	-1E+10	1
4902554	17	C	07/21/2021	10:07	-136.357	49.624	0	79.10	0	6.3760	0	32.4590	0	25.500	0	78.410	0	-1e10	8	-1e10	8	-1E+10	1	-1E+10	1	-1E+10	1	-1E+10	1	-1E+10	1	-1E+10	1
4902554	17	C	07/21/2021	10:07	-136.357	49.624	0	80.00	0	6.3670	0	32.4580	0	25.500	0	79.302	0	-1e10	8	-1e10	8	-1E+10	1	-1E+10	1	-1E+10	1	-1E+10	1	-1E+10	1	-1E+10	1
4902554	17	C	07/21/2021	10:07	-136.357	49.624	0	80.90	0	6.3500	0	32.4610	0	25.504	0	80.193	0	-1e10	8	-1e10	8	-1E+10	1	-1E+10	1	-1E+10	1	-1E+10	1	-1E+10	1	-1E+10	1
4902554	17	C	07/21/2021	10:07	-136.357	49.624	0	82.00	0	6.3090	0	32.4630	0	25.511	0	81.284	0	-1e10	8	-1e10	8	-1E+10	1	-1E+10	1	-1E+10	1	-1E+10	1	-1E+10	1	-1E+10	1
4902554	17	C	07/21/2021	10:07	-136.357	49.624	0	82.90	0	6.2890	0	32.4680	0	25.518	0	82.176	0	-1e10	8	-1e10	8	-1E+10	1	-1E+10	1	-1E+10	1	-1E+10	1	-1E+10	1	-1E+10	1
4902554	17	C	07/21/2021	10:07	-136.357	49.624	0	83.80	0	6.2570	0	32.4670	0	25.521	0	83.068	0	-1e10	8	-1e10	8	-1E+10	1	-1E+10	1	-1E+10	1	-1E+10	1	-1E+10	1	-1E+10	1
4902554	17	C	07/21/2021	10:07	-136.357	49.624	0	85.00	0	6.2520	0	32.4660	0	25.521	0	84.257	0	-1e10	8	-1e10	8	-1E+10	1	-1E+10	1	-1E+10	1	-1E+10	1	-1E+10	1	-1E+10	1
4902554	17	C	07/21/2021	10:07	-136.357	49.624	0	85.90	0	6.2310	0	32.4720	0	25.528	0	85.149	0	-1e10	8	-1e10	8	-1E+10	1	-1E+10	1	-1E+10	1	-1E+10	1	-1E+10	1	-1E+10	1
4902554	17	C	07/21/2021	10:07	-136.357	49.624	0	86.80	0	6.2140	0	32.4690	0	25.528	0	86.041	0	-1e10	8	-1e10	8	-1E+10	1	-1E+10	1	-1E+10	1	-1E+10	1	-1E+10	1	-1E+10	1
4902554	17	C	07/21/2021	10:07	-136.357	49.624	0	88.10	0	6.2030	0	32.4690	0	25.529	0	87.329	0	-1e10	8	-1e10	8	-1E+10	1	-1E+10	1	-1E+10	1	-1E+10	1	-1E+10	1	-1E+10	1
4902554	17	C	07/21/2021	10:07	-136.357	49.624	0	89.00	0	6.1690	0	32.4720	0	25.536	0	88.221	0	-1e10	8	-1e10	8	-1E+10	1	-1E+10	1	-1E+10	1	-1E+10	1	-1E+10	1	-1E+10	1
4902554	17	C	07/21/2021	10:07	-136.357	49.624	0	89.90	0	6.1610	0	32.4710	0	25.536	0	89.113	0	-1e10	8	-1e10	8	-1E+10	1	-1E+10	1	-1E+10	1	-1E+10	1	-1E+10	1	-1E+10	1
4902554	17	C	07/21/2021	10:07	-136.357	49.624	0	90.80	0	6.1430	0	32.4740	0	25.541	0	90.005	0	-1e10	8	-1e10	8	-1E+10	1	-1E+10	1	-1E+10	1	-1E+10	1	-1E+10	1	-1E+10	1
4902554	17	C	07/21/2021	10:07	-136.357	49.624	0	91.80	0	6.1270	0	32.4740	0	25.543	0	90.996	0	-1e10	8	-1e10	8	-1E+10	1	-1E+10	1	-1E+10	1	-1E+10	1	-1E+10	1	-1E+10	1
4902554	17	C	07/21/2021	10:07	-136.357	49.624	0	93.00	0	6.1090	0	32.4770	0	25.547	0	92.185	0	-1e10	8	-1e10	8	-1E+10	1	-1E+10	1	-1E+10	1	-1E+10	1	-1E+10	1	-1E+10	1
4902554	17	C	07/21/2021	10:07	-136.357	49.624	0	94.00	0	6.1030	0	32.4780	0	25.549	0	93.176	0	-1e10	8	-1e10	8	-1E+10	1	-1E+10	1	-1E+10	1	-1E+10	1	-1E+10	1	-1E+10	1
4902554	17	C	07/21/2021	10:07	-136.357	49.624	0	94.90	0	6.0930	0	32.4790	0	25.551	0	94.068	0	-1e10	8	-1e10	8	-1E+10	1	-1E+10	1	-1E+10	1	-1E+10	1	-1E+10	1	-1E+10	1
4902554	17	C	07/21/2021	10:07	-136.357	49.624	0	95.80	0	6.0780	0	32.4830	0	25.556	0	94.960	0	-1e10	8	-1e10	8	-1E+10	1	-1E+10	1	-1E+10	1	-1E+10	1	-1E+10	1	-1E+10	1
4902554	17	C	07/21/2021	10:07	-136.357	49.624	0	96.80	0	6.0700	0	32.4830	0	25.557	0	95.951	0	-1e10	8	-1e10	8	-1E+10	1	-1E+10	1	-1E+10	1	-1E+10	1	-1E+10	1	-1E+10	1
4902554	17	C	07/21/2021	10:07	-136.357	49.624	0	98.00	0	6.0570	0	32.4840	0	25.559	0	97.140	0	-1e10	8	-1e10	8	-1E+10	1	-1E+10	1	-1E+10	1	-1E+10	1	-1E+10	1	-1E+10	1
4902554	17	C	07/21/2021	10:07	-136.357	49.624	0	99.00	0	6.0450	0	32.4860	0	25.562	0	98.131	0	-1e10	8	-1e10	8	-1E+10	1	-1E+10	1	-1E+10	1	-1E+10	1	-1E+10	1	-1E+10	1
4902554	17	C	07/21/2021	10:07	-136.357	49.624	0	99.90	0	6.0230	0	32.4880	0	25.566	0	99.023	0	-1e10	8	-1e10	8	-1E+10	1	-1E+10	1	-1E+10	1	-1E+10	1	-1E+10	1	-1E+10	1
4902554	17	C	07/21/2021	10:07	-136.357	49.624	0	100.90	0	6.0100	0	32.4910	0	25.570	0	100.014	0	-1e10	8	-1e10	8	-1E+10	1	-1E+10	1	-1E+10	1	-1E+10	1	-1E+10	1	-1E+10	1
4902554	17	C	07/21/2021	10:07	-136.357	49.624	0	101.80	0	5.9950	0	32.4930	0	25.574	0	100.906	0	-1e10	8	-1e10	8	-1E+10	1	-1E+10	1	-1E+10	1	-1E+10	1	-1E+10	1	-1E+10	1
4902554	17	C	07/21/2021	10:07	-136.357	49.624	0	102.80	0	5.9860	0	32.4950	0	25.576	0	101.897	0	-1e10	8	-1e10	8	-1E+10	1	-1E+10	1	-1E+10	1	-1E+10	1	-1E+10	1	-1E+10	1
4902554	17	C	07/21/2021	10:07	-136.357	49.624	0	103.80	0	5.9820	0	32.4970	0	25.579	0	102.888	0	-1e10	8	-1e10	8	-1E+10	1	-1E+10	1	-1E+10	1	-1E+10	1	-1E+10	1	-1E+10	1
4902554	17	C	07/21/2021	10:07	-136.357	49.624	0	105.10	0	5.9770	0	32.5000	0	25.582	0	104.176	0	-1e10	8	-1e10	8	-1E+10	1	-1E+10	1	-1E+10	1	-1E+10	1	-1E+10	1	-1E+10	1
4902554	17	C	07/21/2021	10:07	-136.357	49.624	0	106.10	0	5.9820	0	32.5020	0	25.583	0	105.167	0	-1e10	8	-1e10	8	-1E+10	1	-1E+10	1	-1E+10	1	-1E+10	1	-1E+10	1	-1E+10	1
4902554	17	C	07/21/2021	10:07	-136.357	49.624	0	107.00	0	6.0010	0	32.5100	0	25.587	0	106.059	0	-1e10	8	-1e10	8	-1E+10	1	-1E+10	1	-1E+10	1	-1E+10	1	-1E+10	1	-1E+10	1
4902554	17	C	07/21/2021	10:07	-136.357	49.624	0	108.00	0	6.0080	0	32.5140	0	25.589	0	107.050	0	-1e10	8	-1e10	8	-1E+10	1	-1E+10	1	-1E+10	1	-1E+10	1	-1E+10	1	-1E+10	1
4902554	17	C	07/21/2021	10:07	-136.357	49.624	0	109.00	0	6.0130	0	32.5180	0	25.591	0	108.041	0	-1e10	8	-1e10	8	-1E+10	1	-1E+10	1	-1E+10	1	-1E+10	1	-1E+10	1	-1E+10	1
4902554	17	C	07/21/2021	10:07	-136.357	49.624	0	109.90	0	6.0320	0	32.5250	0	25.595	0	108.933	0	-1e10	8	-1e10	8	-1E+10	1	-1E+10	1	-1E+10	1	-1E+10	1	-1E+10	1	-1E+10	1
4902554	17	C	07/21/2021	10:07	-136.357	49.624	0	110.70	0	6.0510	0	32.5360	0	25.601	0	109.725	0	-1e10	8	-1e10	8	-1E+10	1	-1E+10	1	-1E+10	1	-1E+10	1	-1E+10	1	-1E+10	1
4902554	17	C	07/21/2021	10:07	-136.357	49.624	0	112.10	0	6.0430	0	32.5440	0	25.608	0	111.113	0	-1e10	8	-1e10	8	-1E+10	1	-1E+10	1	-1E+10	1	-1E+10	1	-1E+10	1	-1E+10	1
4902554	17	C	07/21/2021	10:07	-136.357	49.624	0	112.90	0	6.0430	0	32.5450	0	25.609	0	111.905	0	-1e10	8	-1e10	8	-1E+10	1	-1E+10	1	-1E+10	1	-1E+10	1	-1E+10	1	-1E+10	1
4902554	17	C	07/21/2021	10:07	-136.357	49.624	0	114.00	0	6.0460	0	32.5550	0	25.617	0	112.995	0	-1e10	8	-1e10	8	-1E+10	1	-1E+10	1	-1E+10	1	-1E+10	1	-1E+10	1	-1E+10	1
4902554	17	C	07/21/2021	10:07	-136.357	49.624	0	114.90	0	6.0440	0	32.5740	0	25.632	0	113.887	0	-1e10	8	-1e10	8	-1E+10	1	-1E+10	1	-1E+10	1	-1E+10	1	-1E+10	1	-1E+10	1
4902554	17	C	07/21/2021	10:07	-136.357	49.624	0	115.80	0	6.0470	0	32.5990	0	25.651	0	114.779	0	-1e10	8	-1e10	8	-1E+10	1	-1E+10	1	-1E+10	1	-1E+10	1	-1E+10	1	-1E+10	1
4902554	17	C	07/21/2021	10:07	-136.357	49.624	0	117.10	0	6.0480	0	32.6290	0	25.675	0	116.067	0	-1e10	8	-1e10	8	-1E+10	1	-1E+10	1	-1E+10	1	-1E+10	1	-1E+10	1	-1E+10	1
4902554	17	C	07/21/2021	10:07	-136.357	49.624	0	118.10	0	6.0490	0	32.6410	0	25.684	0	117.058	0	-1e10	8	-1e10	8	-1E+10	1	-1E+10	1	-1E+10	1	-1E+10	1	-1E+10	1	-1E+10	1
4902554	17	C	07/21/2021	10:07	-136.357	49.624	0	118.80	0	6.0540	0	32.6500	0	25.691	0	117.752	0	-1e10	8	-1e10	8	-1E+10	1	-1E+10	1	-1E+10	1	-1E+10	1	-1E+10	1	-1E+10	1
4902554	17	C	07/21/2021	10:07	-136.357	49.624	0	119.90	0	6.0580	0	32.6610	0	25.699	0	118.842	0	-1e10	8	-1e10	8	-1E+10	1	-1E+10	1	-1E+10	1	-1E+10	1	-1E+10	1	-1E+10	1
4902554	17	C	07/21/2021	10:07	-136.357	49.624	0	121.00	0	6.0650	0	32.6770	0	25.711	0	119.932	0	-1e10	8	-1e10	8	-1E+10	1	-1E+10	1	-1E+10	1	-1E+10	1	-1E+10	1	-1E+10	1
4902554	17	C	07/21/2021	10:07	-136.357	49.624	0	122.20	0	6.0920	0	32.7540	0	25.768	0	121.121	0	-1e10	8	-1e10	8	-1E+10	1	-1E+10	1	-1E+10	1	-1E+10	1	-1E+10	1	-1E+10	1
4902554	17	C	07/21/2021	10:07	-136.357	49.624	0	122.90	0	6.0960	0	32.8020	0	25.806	0	121.814	0	-1e10	8	-1e10	8	-1E+10	1	-1E+10	1	-1E+10	1	-1E+10	1	-1E+10	1	-1E+10	1
4902554	17	C	07/21/2021	10:07	-136.357	49.624	0	123.90	0	6.0870	0	32.8250	0	25.825	0	122.805	0	-1e10	8	-1e10	8	-1E+10	1	-1E+10	1	-1E+10	1	-1E+10	1	-1E+10	1	-1E+10	1
4902554	17	C	07/21/2021	10:07	-136.357	49.624	0	125.00	0	6.0760	0	32.8450	0	25.842	0	123.895	0	-1e10	8	-1e10	8	-1E+10	1	-1E+10	1	-1E+10	1	-1E+10	1	-1E+10	1	-1E+10	1
4902554	17	C	07/21/2021	10:07	-136.357	49.624	0	126.10	0	6.0480	0	32.8690	0	25.865	0	124.985	0	-1e10	8	-1e10	8	-1E+10	1	-1E+10	1	-1E+10	1	-1E+10	1	-1E+10	1	-1E+10	1
4902554	17	C	07/21/2021	10:07	-136.357	49.624	0	127.00	0	6.0780	0	32.9010	0	25.886	0	125.877	0	-1e10	8	-1e10	8	-1E+10	1	-1E+10	1	-1E+10	1	-1E+10	1	-1E+10	1	-1E+10	1
4902554	17	C	07/21/2021	10:07	-136.357	49.624	0	127.90	0	6.1000	0	32.9170	0	25.896	0	126.769	0	-1e10	8	-1e10	8	-1E+10	1	-1E+10	1	-1E+10	1	-1E+10	1	-1E+10	1	-1E+10	1
4902554	17	C	07/21/2021	10:07	-136.357	49.624	0	129.00	0	6.1040	0	32.9210	0	25.899	0	127.859	0	-1e10	8	-1e10	8	-1E+10	1	-1E+10	1	-1E+10	1	-1E+10	1	-1E+10	1	-1E+10	1
4902554	17	C	07/21/2021	10:07	-136.357	49.624	0	130.10	0	6.1020	0	32.9340	0	25.909	0	128.948	0	-1e10	8	-1e10	8	-1E+10	1	-1E+10	1	-1E+10	1	-1E+10	1	-1E+10	1	-1E+10	1
4902554	17	C	07/21/2021	10:07	-136.357	49.624	0	131.10	0	6.1100	0	32.9420	0	25.915	0	129.939	0	-1e10	8	-1e10	8	-1E+10	1	-1E+10	1	-1E+10	1	-1E+10	1	-1E+10	1	-1E+10	1
4902554	17	C	07/21/2021	10:07	-136.357	49.624	0	132.00	0	6.1160	0	32.9480	0	25.919	0	130.831	0	-1e10	8	-1e10	8	-1E+10	1	-1E+10	1	-1E+10	1	-1E+10	1	-1E+10	1	-1E+10	1
4902554	17	C	07/21/2021	10:07	-136.357	49.624	0	133.10	0	6.1180	0	32.9530	0	25.922	0	131.921	0	-1e10	8	-1e10	8	-1E+10	1	-1E+10	1	-1E+10	1	-1E+10	1	-1E+10	1	-1E+10	1
4902554	17	C	07/21/2021	10:07	-136.357	49.624	0	133.90	0	6.1200	0	32.9590	0	25.927	0	132.714	0	-1e10	8	-1e10	8	-1E+10	1	-1E+10	1	-1E+10	1	-1E+10	1	-1E+10	1	-1E+10	1
4902554	17	C	07/21/2021	10:07	-136.357	49.624	0	135.10	0	6.1210	0	32.9680	0	25.934	0	133.903	0	-1e10	8	-1e10	8	-1E+10	1	-1E+10	1	-1E+10	1	-1E+10	1	-1E+10	1	-1E+10	1
4902554	17	C	07/21/2021	10:07	-136.357	49.624	0	136.00	0	6.0700	0	32.9860	0	25.954	0	134.794	0	-1e10	8	-1e10	8	-1E+10	1	-1E+10	1	-1E+10	1	-1E+10	1	-1E+10	1	-1E+10	1
4902554	17	C	07/21/2021	10:07	-136.357	49.624	0	137.20	0	6.0890	0	33.0030	0	25.965	0	135.983	0	-1e10	8	-1e10	8	-1E+10	1	-1E+10	1	-1E+10	1	-1E+10	1	-1E+10	1	-1E+10	1
4902554	17	C	07/21/2021	10:07	-136.357	49.624	0	138.00	0	6.1040	0	33.0290	0	25.984	0	136.776	0	-1e10	8	-1e10	8	-1E+10	1	-1E+10	1	-1E+10	1	-1E+10	1	-1E+10	1	-1E+10	1
4902554	17	C	07/21/2021	10:07	-136.357	49.624	0	138.70	0	6.1520	0	33.0770	0	26.016	0	137.469	0	-1e10	8	-1e10	8	-1E+10	1	-1E+10	1	-1E+10	1	-1E+10	1	-1E+10	1	-1E+10	1
4902554	17	C	07/21/2021	10:07	-136.357	49.624	0	139.70	0	6.1490	0	33.1370	0	26.064	0	138.460	0	-1e10	8	-1e10	8	-1E+10	1	-1E+10	1	-1E+10	1	-1E+10	1	-1E+10	1	-1E+10	1
4902554	17	C	07/21/2021	10:07	-136.357	49.624	0	140.70	0	6.1640	0	33.1930	0	26.106	0	139.451	0	-1e10	8	-1e10	8	-1E+10	1	-1E+10	1	-1E+10	1	-1E+10	1	-1E+10	1	-1E+10	1
4902554	17	C	07/21/2021	10:07	-136.357	49.624	0	141.80	0	6.1510	0	33.2340	0	26.140	0	140.541	0	-1e10	8	-1e10	8	-1E+10	1	-1E+10	1	-1E+10	1	-1E+10	1	-1E+10	1	-1E+10	1
4902554	17	C	07/21/2021	10:07	-136.357	49.624	0	143.00	0	6.1470	0	33.2990	0	26.192	0	141.730	0	-1e10	8	-1e10	8	-1E+10	1	-1E+10	1	-1E+10	1	-1E+10	1	-1E+10	1	-1E+10	1
4902554	17	C	07/21/2021	10:07	-136.357	49.624	0	144.10	0	6.1540	0	33.3270	0	26.213	0	142.820	0	-1e10	8	-1e10	8	-1E+10	1	-1E+10	1	-1E+10	1	-1E+10	1	-1E+10	1	-1E+10	1
4902554	17	C	07/21/2021	10:07	-136.357	49.624	0	145.00	0	6.1560	0	33.3390	0	26.222	0	143.711	0	-1e10	8	-1e10	8	-1E+10	1	-1E+10	1	-1E+10	1	-1E+10	1	-1E+10	1	-1E+10	1
4902554	17	C	07/21/2021	10:07	-136.357	49.624	0	145.90	0	6.1550	0	33.3730	0	26.249	0	144.603	0	-1e10	8	-1e10	8	-1E+10	1	-1E+10	1	-1E+10	1	-1E+10	1	-1E+10	1	-1E+10	1
4902554	17	C	07/21/2021	10:07	-136.357	49.624	0	147.00	0	6.1570	0	33.3960	0	26.267	0	145.693	0	-1e10	8	-1e10	8	-1E+10	1	-1E+10	1	-1E+10	1	-1E+10	1	-1E+10	1	-1E+10	1
4902554	17	C	07/21/2021	10:07	-136.357	49.624	0	147.90	0	6.1560	0	33.4110	0	26.279	0	146.585	0	-1e10	8	-1e10	8	-1E+10	1	-1E+10	1	-1E+10	1	-1E+10	1	-1E+10	1	-1E+10	1
4902554	17	C	07/21/2021	10:07	-136.357	49.624	0	148.80	0	6.1560	0	33.4160	0	26.283	0	147.476	0	-1e10	8	-1e10	8	-1E+10	1	-1E+10	1	-1E+10	1	-1E+10	1	-1E+10	1	-1E+10	1
4902554	17	C	07/21/2021	10:07	-136.357	49.624	0	149.90	0	6.1560	0	33.4210	0	26.287	0	148.566	0	-1e10	8	-1e10	8	-1E+10	1	-1E+10	1	-1E+10	1	-1E+10	1	-1E+10	1	-1E+10	1
4902554	17	C	07/21/2021	10:07	-136.357	49.624	0	151.10	0	6.1560	0	33.4250	0	26.290	0	149.755	0	-1e10	8	-1e10	8	-1E+10	1	-1E+10	1	-1E+10	1	-1E+10	1	-1E+10	1	-1E+10	1
4902554	17	C	07/21/2021	10:07	-136.357	49.624	0	151.90	0	6.1560	0	33.4290	0	26.294	0	150.548	0	-1e10	8	-1e10	8	-1E+10	1	-1E+10	1	-1E+10	1	-1E+10	1	-1E+10	1	-1E+10	1
4902554	17	C	07/21/2021	10:07	-136.357	49.624	0	152.80	0	6.1740	0	33.4760	0	26.328	0	151.439	0	-1e10	8	-1e10	8	-1E+10	1	-1E+10	1	-1E+10	1	-1E+10	1	-1E+10	1	-1E+10	1
4902554	17	C	07/21/2021	10:07	-136.357	49.624	0	153.80	0	6.1670	0	33.5010	0	26.349	0	152.430	0	-1e10	8	-1e10	8	-1E+10	1	-1E+10	1	-1E+10	1	-1E+10	1	-1E+10	1	-1E+10	1
4902554	17	C	07/21/2021	10:07	-136.357	49.624	0	154.80	0	6.1440	0	33.5350	0	26.379	0	153.421	0	-1e10	8	-1e10	8	-1E+10	1	-1E+10	1	-1E+10	1	-1E+10	1	-1E+10	1	-1E+10	1
4902554	17	C	07/21/2021	10:07	-136.357	49.624	0	155.80	0	6.1390	0	33.5530	0	26.394	0	154.411	0	-1e10	8	-1e10	8	-1E+10	1	-1E+10	1	-1E+10	1	-1E+10	1	-1E+10	1	-1E+10	1
4902554	17	C	07/21/2021	10:07	-136.357	49.624	0	156.90	0	6.1270	0	33.5690	0	26.408	0	155.501	0	-1e10	8	-1e10	8	-1E+10	1	-1E+10	1	-1E+10	1	-1E+10	1	-1E+10	1	-1E+10	1
4902554	17	C	07/21/2021	10:07	-136.357	49.624	0	158.00	0	6.1180	0	33.5850	0	26.422	0	156.591	0	-1e10	8	-1e10	8	-1E+10	1	-1E+10	1	-1E+10	1	-1E+10	1	-1E+10	1	-1E+10	1
4902554	17	C	07/21/2021	10:07	-136.357	49.624	0	159.00	0	6.1160	0	33.5980	0	26.432	0	157.582	0	-1e10	8	-1e10	8	-1E+10	1	-1E+10	1	-1E+10	1	-1E+10	1	-1E+10	1	-1E+10	1
4902554	17	C	07/21/2021	10:07	-136.357	49.624	0	160.20	0	6.1090	0	33.6220	0	26.452	0	158.770	0	-1e10	8	-1e10	8	-1E+10	1	-1E+10	1	-1E+10	1	-1E+10	1	-1E+10	1	-1E+10	1
4902554	17	C	07/21/2021	10:07	-136.357	49.624	0	161.00	0	6.1170	0	33.6490	0	26.472	0	159.563	0	-1e10	8	-1e10	8	-1E+10	1	-1E+10	1	-1E+10	1	-1E+10	1	-1E+10	1	-1E+10	1
4902554	17	C	07/21/2021	10:07	-136.357	49.624	0	161.80	0	6.1070	0	33.6540	0	26.478	0	160.356	0	-1e10	8	-1e10	8	-1E+10	1	-1E+10	1	-1E+10	1	-1E+10	1	-1E+10	1	-1E+10	1
4902554	17	C	07/21/2021	10:07	-136.357	49.624	0	163.00	0	6.1040	0	33.6620	0	26.484	0	161.544	0	-1e10	8	-1e10	8	-1E+10	1	-1E+10	1	-1E+10	1	-1E+10	1	-1E+10	1	-1E+10	1
4902554	17	C	07/21/2021	10:07	-136.357	49.624	0	164.20	0	6.1020	0	33.6670	0	26.488	0	162.733	0	-1e10	8	-1e10	8	-1E+10	1	-1E+10	1	-1E+10	1	-1E+10	1	-1E+10	1	-1E+10	1
4902554	17	C	07/21/2021	10:07	-136.357	49.624	0	165.00	0	6.0930	0	33.6780	0	26.498	0	163.526	0	-1e10	8	-1e10	8	-1E+10	1	-1E+10	1	-1E+10	1	-1E+10	1	-1E+10	1	-1E+10	1
4902554	17	C	07/21/2021	10:07	-136.357	49.624	0	165.90	0	6.0900	0	33.6840	0	26.503	0	164.417	0	-1e10	8	-1e10	8	-1E+10	1	-1E+10	1	-1E+10	1	-1E+10	1	-1E+10	1	-1E+10	1
4902554	17	C	07/21/2021	10:07	-136.357	49.624	0	166.70	0	6.0870	0	33.6860	0	26.505	0	165.210	0	-1e10	8	-1e10	8	-1E+10	1	-1E+10	1	-1E+10	1	-1E+10	1	-1E+10	1	-1E+10	1
4902554	17	C	07/21/2021	10:07	-136.357	49.624	0	168.00	0	6.0810	0	33.6900	0	26.509	0	166.498	0	-1e10	8	-1e10	8	-1E+10	1	-1E+10	1	-1E+10	1	-1E+10	1	-1E+10	1	-1E+10	1
4902554	17	C	07/21/2021	10:07	-136.357	49.624	0	169.30	0	6.0660	0	33.7010	0	26.520	0	167.786	0	-1e10	8	-1e10	8	-1E+10	1	-1E+10	1	-1E+10	1	-1E+10	1	-1E+10	1	-1E+10	1
4902554	17	C	07/21/2021	10:07	-136.357	49.624	0	170.10	0	6.0530	0	33.7040	0	26.524	0	168.578	0	-1e10	8	-1e10	8	-1E+10	1	-1E+10	1	-1E+10	1	-1E+10	1	-1E+10	1	-1E+10	1
4902554	17	C	07/21/2021	10:07	-136.357	49.624	0	171.00	0	6.0520	0	33.7070	0	26.526	0	169.470	0	-1e10	8	-1e10	8	-1E+10	1	-1E+10	1	-1E+10	1	-1E+10	1	-1E+10	1	-1E+10	1
4902554	17	C	07/21/2021	10:07	-136.357	49.624	0	171.90	0	6.0530	0	33.7100	0	26.529	0	170.361	0	-1e10	8	-1e10	8	-1E+10	1	-1E+10	1	-1E+10	1	-1E+10	1	-1E+10	1	-1E+10	1
4902554	17	C	07/21/2021	10:07	-136.357	49.624	0	172.70	0	6.0390	0	33.7170	0	26.536	0	171.154	0	-1e10	8	-1e10	8	-1E+10	1	-1E+10	1	-1E+10	1	-1E+10	1	-1E+10	1	-1E+10	1
4902554	17	C	07/21/2021	10:07	-136.357	49.624	0	173.60	0	6.0320	0	33.7190	0	26.538	0	172.045	0	-1e10	8	-1e10	8	-1E+10	1	-1E+10	1	-1E+10	1	-1E+10	1	-1E+10	1	-1E+10	1
4902554	17	C	07/21/2021	10:07	-136.357	49.624	0	174.90	0	6.0120	0	33.7200	0	26.542	0	173.333	0	-1e10	8	-1e10	8	-1E+10	1	-1E+10	1	-1E+10	1	-1E+10	1	-1E+10	1	-1E+10	1
4902554	17	C	07/21/2021	10:07	-136.357	49.624	0	176.30	0	6.0010	0	33.7220	0	26.545	0	174.720	0	-1e10	8	-1e10	8	-1E+10	1	-1E+10	1	-1E+10	1	-1E+10	1	-1E+10	1	-1E+10	1
4902554	17	C	07/21/2021	10:07	-136.357	49.624	0	177.20	0	5.9900	0	33.7290	0	26.552	0	175.612	0	-1e10	8	-1e10	8	-1E+10	1	-1E+10	1	-1E+10	1	-1E+10	1	-1E+10	1	-1E+10	1
4902554	17	C	07/21/2021	10:07	-136.357	49.624	0	178.10	0	5.9770	0	33.7410	0	26.563	0	176.503	0	-1e10	8	-1e10	8	-1E+10	1	-1E+10	1	-1E+10	1	-1E+10	1	-1E+10	1	-1E+10	1
4902554	17	C	07/21/2021	10:07	-136.357	49.624	0	179.00	0	5.9700	0	33.7480	0	26.569	0	177.395	0	-1e10	8	-1e10	8	-1E+10	1	-1E+10	1	-1E+10	1	-1E+10	1	-1E+10	1	-1E+10	1
4902554	17	C	07/21/2021	10:07	-136.357	49.624	0	179.90	0	5.9730	0	33.7490	0	26.570	0	178.286	0	-1e10	8	-1e10	8	-1E+10	1	-1E+10	1	-1E+10	1	-1E+10	1	-1E+10	1	-1E+10	1
4902554	17	C	07/21/2021	10:07	-136.357	49.624	0	180.80	0	5.9800	0	33.7510	0	26.570	0	179.178	0	-1e10	8	-1e10	8	-1E+10	1	-1E+10	1	-1E+10	1	-1E+10	1	-1E+10	1	-1E+10	1
4902554	17	C	07/21/2021	10:07	-136.357	49.624	0	181.70	0	5.9930	0	33.7590	0	26.575	0	180.069	0	-1e10	8	-1e10	8	-1E+10	1	-1E+10	1	-1E+10	1	-1E+10	1	-1E+10	1	-1E+10	1
4902554	17	C	07/21/2021	10:07	-136.357	49.624	0	182.70	0	5.9890	0	33.7630	0	26.579	0	181.060	0	-1e10	8	-1e10	8	-1E+10	1	-1E+10	1	-1E+10	1	-1E+10	1	-1E+10	1	-1E+10	1
4902554	17	C	07/21/2021	10:07	-136.357	49.624	0	183.60	0	5.9690	0	33.7710	0	26.587	0	181.951	0	-1e10	8	-1e10	8	-1E+10	1	-1E+10	1	-1E+10	1	-1E+10	1	-1E+10	1	-1E+10	1
4902554	17	C	07/21/2021	10:07	-136.357	49.624	0	184.90	0	5.9600	0	33.7730	0	26.590	0	183.239	0	-1e10	8	-1e10	8	-1E+10	1	-1E+10	1	-1E+10	1	-1E+10	1	-1E+10	1	-1E+10	1
4902554	17	C	07/21/2021	10:07	-136.357	49.624	0	186.30	0	5.9490	0	33.7760	0	26.594	0	184.626	0	-1e10	8	-1e10	8	-1E+10	1	-1E+10	1	-1E+10	1	-1E+10	1	-1E+10	1	-1E+10	1
4902554	17	C	07/21/2021	10:07	-136.357	49.624	0	187.20	0	5.9450	0	33.7760	0	26.594	0	185.517	0	-1e10	8	-1e10	8	-1E+10	1	-1E+10	1	-1E+10	1	-1E+10	1	-1E+10	1	-1E+10	1
4902554	17	C	07/21/2021	10:07	-136.357	49.624	0	188.10	0	5.9340	0	33.7770	0	26.597	0	186.409	0	-1e10	8	-1e10	8	-1E+10	1	-1E+10	1	-1E+10	1	-1E+10	1	-1E+10	1	-1E+10	1
4902554	17	C	07/21/2021	10:07	-136.357	49.624	0	188.90	0	5.9280	0	33.7770	0	26.597	0	187.201	0	-1e10	8	-1e10	8	-1E+10	1	-1E+10	1	-1E+10	1	-1E+10	1	-1E+10	1	-1E+10	1
4902554	17	C	07/21/2021	10:07	-136.357	49.624	0	189.80	0	5.9220	0	33.7770	0	26.598	0	188.093	0	-1e10	8	-1e10	8	-1E+10	1	-1E+10	1	-1E+10	1	-1E+10	1	-1E+10	1	-1E+10	1
4902554	17	C	07/21/2021	10:07	-136.357	49.624	0	190.70	0	5.8700	0	33.7770	0	26.605	0	188.984	0	-1e10	8	-1e10	8	-1E+10	1	-1E+10	1	-1E+10	1	-1E+10	1	-1E+10	1	-1E+10	1
4902554	17	C	07/21/2021	10:07	-136.357	49.624	0	191.90	0	5.8170	0	33.7810	0	26.614	0	190.173	0	-1e10	8	-1e10	8	-1E+10	1	-1E+10	1	-1E+10	1	-1E+10	1	-1E+10	1	-1E+10	1
4902554	17	C	07/21/2021	10:07	-136.357	49.624	0	193.20	0	5.8070	0	33.7810	0	26.615	0	191.461	0	-1e10	8	-1e10	8	-1E+10	1	-1E+10	1	-1E+10	1	-1E+10	1	-1E+10	1	-1E+10	1
4902554	17	C	07/21/2021	10:07	-136.357	49.624	0	194.10	0	5.8120	0	33.7840	0	26.617	0	192.352	0	-1e10	8	-1e10	8	-1E+10	1	-1E+10	1	-1E+10	1	-1E+10	1	-1E+10	1	-1E+10	1
4902554	17	C	07/21/2021	10:07	-136.357	49.624	0	195.00	0	5.8070	0	33.7840	0	26.618	0	193.244	0	-1e10	8	-1e10	8	-1E+10	1	-1E+10	1	-1E+10	1	-1E+10	1	-1E+10	1	-1E+10	1
4902554	17	C	07/21/2021	10:07	-136.357	49.624	0	195.80	0	5.7730	0	33.7870	0	26.624	0	194.036	0	-1e10	8	-1e10	8	-1E+10	1	-1E+10	1	-1E+10	1	-1E+10	1	-1E+10	1	-1E+10	1
4902554	17	C	07/21/2021	10:07	-136.357	49.624	0	196.70	0	5.7610	0	33.7930	0	26.631	0	194.928	0	-1e10	8	-1e10	8	-1E+10	1	-1E+10	1	-1E+10	1	-1E+10	1	-1E+10	1	-1E+10	1
4902554	17	C	07/21/2021	10:07	-136.357	49.624	0	198.00	0	5.7140	0	33.7950	0	26.638	0	196.215	0	-1e10	8	-1e10	8	-1E+10	1	-1E+10	1	-1E+10	1	-1E+10	1	-1E+10	1	-1E+10	1
4902554	17	C	07/21/2021	10:07	-136.357	49.624	0	199.30	0	5.7470	0	33.8010	0	26.639	0	197.503	0	-1e10	8	-1e10	8	-1E+10	1	-1E+10	1	-1E+10	1	-1E+10	1	-1E+10	1	-1E+10	1
4902554	17	C	07/21/2021	10:07	-136.357	49.624	0	200.10	0	5.7430	0	33.8070	0	26.644	0	198.295	0	-1e10	8	-1e10	8	-1E+10	1	-1E+10	1	-1E+10	1	-1E+10	1	-1E+10	1	-1E+10	1
4902554	17	C	07/21/2021	10:07	-136.357	49.624	0	201.00	0	5.7340	0	33.8040	0	26.643	0	199.187	0	-1e10	8	-1e10	8	-1E+10	1	-1E+10	1	-1E+10	1	-1E+10	1	-1E+10	1	-1E+10	1
4902554	17	C	07/21/2021	10:07	-136.357	49.624	0	201.90	0	5.7290	0	33.8090	0	26.647	0	200.078	0	-1e10	8	-1e10	8	-1E+10	1	-1E+10	1	-1E+10	1	-1E+10	1	-1E+10	1	-1E+10	1
4902554	17	C	07/21/2021	10:07	-136.357	49.624	0	202.70	0	5.7170	0	33.8100	0	26.650	0	200.871	0	-1e10	8	-1e10	8	-1E+10	1	-1E+10	1	-1E+10	1	-1E+10	1	-1E+10	1	-1E+10	1
4902554	17	C	07/21/2021	10:07	-136.357	49.624	0	203.60	0	5.7090	0	33.8090	0	26.650	0	201.762	0	-1e10	8	-1e10	8	-1E+10	1	-1E+10	1	-1E+10	1	-1E+10	1	-1E+10	1	-1E+10	1
4902554	17	C	07/21/2021	10:07	-136.357	49.624	0	204.90	0	5.6610	0	33.8090	0	26.656	0	203.050	0	-1e10	8	-1e10	8	-1E+10	1	-1E+10	1	-1E+10	1	-1E+10	1	-1E+10	1	-1E+10	1
4902554	17	C	07/21/2021	10:07	-136.357	49.624	0	206.20	0	5.6600	0	33.8140	0	26.660	0	204.337	0	-1e10	8	-1e10	8	-1E+10	1	-1E+10	1	-1E+10	1	-1E+10	1	-1E+10	1	-1E+10	1
4902554	17	C	07/21/2021	10:07	-136.357	49.624	0	207.00	0	5.6440	0	33.8150	0	26.662	0	205.130	0	-1e10	8	-1e10	8	-1E+10	1	-1E+10	1	-1E+10	1	-1E+10	1	-1E+10	1	-1E+10	1
4902554	17	C	07/21/2021	10:07	-136.357	49.624	0	207.90	0	5.6260	0	33.8140	0	26.664	0	206.021	0	-1e10	8	-1e10	8	-1E+10	1	-1E+10	1	-1E+10	1	-1E+10	1	-1E+10	1	-1E+10	1
4902554	17	C	07/21/2021	10:07	-136.357	49.624	0	208.70	0	5.6140	0	33.8160	0	26.667	0	206.813	0	-1e10	8	-1e10	8	-1E+10	1	-1E+10	1	-1E+10	1	-1E+10	1	-1E+10	1	-1E+10	1
4902554	17	C	07/21/2021	10:07	-136.357	49.624	0	209.60	0	5.6130	0	33.8170	0	26.668	0	207.705	0	-1e10	8	-1e10	8	-1E+10	1	-1E+10	1	-1E+10	1	-1E+10	1	-1E+10	1	-1E+10	1
4902554	17	C	07/21/2021	10:07	-136.357	49.624	0	210.90	0	5.5820	0	33.8200	0	26.674	0	208.992	0	-1e10	8	-1e10	8	-1E+10	1	-1E+10	1	-1E+10	1	-1E+10	1	-1E+10	1	-1E+10	1
4902554	17	C	07/21/2021	10:07	-136.357	49.624	0	212.30	0	5.5520	0	33.8220	0	26.679	0	210.379	0	-1e10	8	-1e10	8	-1E+10	1	-1E+10	1	-1E+10	1	-1E+10	1	-1E+10	1	-1E+10	1
4902554	17	C	07/21/2021	10:07	-136.357	49.624	0	213.10	0	5.5320	0	33.8230	0	26.682	0	211.171	0	-1e10	8	-1e10	8	-1E+10	1	-1E+10	1	-1E+10	1	-1E+10	1	-1E+10	1	-1E+10	1
4902554	17	C	07/21/2021	10:07	-136.357	49.624	0	214.00	0	5.5070	0	33.8200	0	26.683	0	212.063	0	-1e10	8	-1e10	8	-1E+10	1	-1E+10	1	-1E+10	1	-1E+10	1	-1E+10	1	-1E+10	1
4902554	17	C	07/21/2021	10:07	-136.357	49.624	0	214.90	0	5.4850	0	33.8240	0	26.689	0	212.954	0	-1e10	8	-1e10	8	-1E+10	1	-1E+10	1	-1E+10	1	-1E+10	1	-1E+10	1	-1E+10	1
4902554	17	C	07/21/2021	10:07	-136.357	49.624	0	215.80	0	5.4510	0	33.8200	0	26.689	0	213.846	0	-1e10	8	-1e10	8	-1E+10	1	-1E+10	1	-1E+10	1	-1E+10	1	-1E+10	1	-1E+10	1
4902554	17	C	07/21/2021	10:07	-136.357	49.624	0	216.70	0	5.4480	0	33.8200	0	26.690	0	214.737	0	-1e10	8	-1e10	8	-1E+10	1	-1E+10	1	-1E+10	1	-1E+10	1	-1E+10	1	-1E+10	1
4902554	17	C	07/21/2021	10:07	-136.357	49.624	0	217.60	0	5.4460	0	33.8200	0	26.690	0	215.628	0	-1e10	8	-1e10	8	-1E+10	1	-1E+10	1	-1E+10	1	-1E+10	1	-1E+10	1	-1E+10	1
4902554	17	C	07/21/2021	10:07	-136.357	49.624	0	218.90	0	5.4120	0	33.8240	0	26.697	0	216.916	0	-1e10	8	-1e10	8	-1E+10	1	-1E+10	1	-1E+10	1	-1E+10	1	-1E+10	1	-1E+10	1
4902554	17	C	07/21/2021	10:07	-136.357	49.624	0	220.30	0	5.3870	0	33.8240	0	26.700	0	218.302	0	-1e10	8	-1e10	8	-1E+10	1	-1E+10	1	-1E+10	1	-1E+10	1	-1E+10	1	-1E+10	1
4902554	17	C	07/21/2021	10:07	-136.357	49.624	0	221.30	0	5.3730	0	33.8250	0	26.703	0	219.293	0	-1e10	8	-1e10	8	-1E+10	1	-1E+10	1	-1E+10	1	-1E+10	1	-1E+10	1	-1E+10	1
4902554	17	C	07/21/2021	10:07	-136.357	49.624	0	222.20	0	5.3620	0	33.8250	0	26.704	0	220.184	0	-1e10	8	-1e10	8	-1E+10	1	-1E+10	1	-1E+10	1	-1E+10	1	-1E+10	1	-1E+10	1
4902554	17	C	07/21/2021	10:07	-136.357	49.624	0	223.10	0	5.3580	0	33.8260	0	26.705	0	221.076	0	-1e10	8	-1e10	8	-1E+10	1	-1E+10	1	-1E+10	1	-1E+10	1	-1E+10	1	-1E+10	1
4902554	17	C	07/21/2021	10:07	-136.357	49.624	0	224.10	0	5.3450	0	33.8260	0	26.707	0	222.066	0	-1e10	8	-1e10	8	-1E+10	1	-1E+10	1	-1E+10	1	-1E+10	1	-1E+10	1	-1E+10	1
4902554	17	C	07/21/2021	10:07	-136.357	49.624	0	225.00	0	5.3290	0	33.8250	0	26.708	0	222.957	0	-1e10	8	-1e10	8	-1E+10	1	-1E+10	1	-1E+10	1	-1E+10	1	-1E+10	1	-1E+10	1
4902554	17	C	07/21/2021	10:07	-136.357	49.624	0	225.90	0	5.3170	0	33.8260	0	26.710	0	223.849	0	-1e10	8	-1e10	8	-1E+10	1	-1E+10	1	-1E+10	1	-1E+10	1	-1E+10	1	-1E+10	1
4902554	17	C	07/21/2021	10:07	-136.357	49.624	0	226.90	0	5.3090	0	33.8240	0	26.709	0	224.839	0	-1e10	8	-1e10	8	-1E+10	1	-1E+10	1	-1E+10	1	-1E+10	1	-1E+10	1	-1E+10	1
4902554	17	C	07/21/2021	10:07	-136.357	49.624	0	227.90	0	5.2950	0	33.8230	0	26.710	0	225.829	0	-1e10	8	-1e10	8	-1E+10	1	-1E+10	1	-1E+10	1	-1E+10	1	-1E+10	1	-1E+10	1
4902554	17	C	07/21/2021	10:07	-136.357	49.624	0	228.80	0	5.2760	0	33.8230	0	26.713	0	226.721	0	-1e10	8	-1e10	8	-1E+10	1	-1E+10	1	-1E+10	1	-1E+10	1	-1E+10	1	-1E+10	1
4902554	17	C	07/21/2021	10:07	-136.357	49.624	0	229.80	0	5.2700	0	33.8240	0	26.714	0	227.711	0	-1e10	8	-1e10	8	-1E+10	1	-1E+10	1	-1E+10	1	-1E+10	1	-1E+10	1	-1E+10	1
4902554	17	C	07/21/2021	10:07	-136.357	49.624	0	230.80	0	5.2450	0	33.8240	0	26.717	0	228.701	0	-1e10	8	-1e10	8	-1E+10	1	-1E+10	1	-1E+10	1	-1E+10	1	-1E+10	1	-1E+10	1
4902554	17	C	07/21/2021	10:07	-136.357	49.624	0	231.80	0	5.2400	0	33.8240	0	26.718	0	229.692	0	-1e10	8	-1e10	8	-1E+10	1	-1E+10	1	-1E+10	1	-1E+10	1	-1E+10	1	-1E+10	1
4902554	17	C	07/21/2021	10:07	-136.357	49.624	0	232.80	0	5.2280	0	33.8260	0	26.721	0	230.682	0	-1e10	8	-1e10	8	-1E+10	1	-1E+10	1	-1E+10	1	-1E+10	1	-1E+10	1	-1E+10	1
4902554	17	C	07/21/2021	10:07	-136.357	49.624	0	233.70	0	5.2150	0	33.8250	0	26.721	0	231.573	0	-1e10	8	-1e10	8	-1E+10	1	-1E+10	1	-1E+10	1	-1E+10	1	-1E+10	1	-1E+10	1
4902554	17	C	07/21/2021	10:07	-136.357	49.624	0	234.70	0	5.2110	0	33.8260	0	26.723	0	232.564	0	-1e10	8	-1e10	8	-1E+10	1	-1E+10	1	-1E+10	1	-1E+10	1	-1E+10	1	-1E+10	1
4902554	17	C	07/21/2021	10:07	-136.357	49.624	0	235.70	0	5.2010	0	33.8270	0	26.724	0	233.554	0	-1e10	8	-1e10	8	-1E+10	1	-1E+10	1	-1E+10	1	-1E+10	1	-1E+10	1	-1E+10	1
4902554	17	C	07/21/2021	10:07	-136.357	49.624	0	236.70	0	5.1930	0	33.8290	0	26.727	0	234.544	0	-1e10	8	-1e10	8	-1E+10	1	-1E+10	1	-1E+10	1	-1E+10	1	-1E+10	1	-1E+10	1
4902554	17	C	07/21/2021	10:07	-136.357	49.624	0	237.70	0	5.1820	0	33.8280	0	26.727	0	235.535	0	-1e10	8	-1e10	8	-1E+10	1	-1E+10	1	-1E+10	1	-1E+10	1	-1E+10	1	-1E+10	1
4902554	17	C	07/21/2021	10:07	-136.357	49.624	0	238.80	0	5.1770	0	33.8320	0	26.731	0	236.624	0	-1e10	8	-1e10	8	-1E+10	1	-1E+10	1	-1E+10	1	-1E+10	1	-1E+10	1	-1E+10	1
4902554	17	C	07/21/2021	10:07	-136.357	49.624	0	239.80	0	5.1610	0	33.8310	0	26.732	0	237.614	0	-1e10	8	-1e10	8	-1E+10	1	-1E+10	1	-1E+10	1	-1E+10	1	-1E+10	1	-1E+10	1
4902554	17	C	07/21/2021	10:07	-136.357	49.624	0	240.80	0	5.1490	0	33.8320	0	26.734	0	238.605	0	-1e10	8	-1e10	8	-1E+10	1	-1E+10	1	-1E+10	1	-1E+10	1	-1E+10	1	-1E+10	1
4902554	17	C	07/21/2021	10:07	-136.357	49.624	0	241.80	0	5.1440	0	33.8350	0	26.737	0	239.595	0	-1e10	8	-1e10	8	-1E+10	1	-1E+10	1	-1E+10	1	-1E+10	1	-1E+10	1	-1E+10	1
4902554	17	C	07/21/2021	10:07	-136.357	49.624	0	242.80	0	5.1460	0	33.8370	0	26.739	0	240.585	0	-1e10	8	-1e10	8	-1E+10	1	-1E+10	1	-1E+10	1	-1E+10	1	-1E+10	1	-1E+10	1
4902554	17	C	07/21/2021	10:07	-136.357	49.624	0	243.90	0	5.1460	0	33.8380	0	26.740	0	241.675	0	-1e10	8	-1e10	8	-1E+10	1	-1E+10	1	-1E+10	1	-1E+10	1	-1E+10	1	-1E+10	1
4902554	17	C	07/21/2021	10:07	-136.357	49.624	0	244.90	0	5.1480	0	33.8390	0	26.740	0	242.665	0	-1e10	8	-1e10	8	-1E+10	1	-1E+10	1	-1E+10	1	-1E+10	1	-1E+10	1	-1E+10	1
4902554	17	C	07/21/2021	10:07	-136.357	49.624	0	245.90	0	5.1600	0	33.8430	0	26.742	0	243.655	0	-1e10	8	-1e10	8	-1E+10	1	-1E+10	1	-1E+10	1	-1E+10	1	-1E+10	1	-1E+10	1
4902554	17	C	07/21/2021	10:07	-136.357	49.624	0	247.00	0	5.1810	0	33.8450	0	26.741	0	244.745	0	-1e10	8	-1e10	8	-1E+10	1	-1E+10	1	-1E+10	1	-1E+10	1	-1E+10	1	-1E+10	1
4902554	17	C	07/21/2021	10:07	-136.357	49.624	0	248.00	0	5.1950	0	33.8560	0	26.748	0	245.735	0	-1e10	8	-1e10	8	-1E+10	1	-1E+10	1	-1E+10	1	-1E+10	1	-1E+10	1	-1E+10	1
4902554	17	C	07/21/2021	10:07	-136.357	49.624	0	249.10	0	5.1940	0	33.8570	0	26.749	0	246.824	0	-1e10	8	-1e10	8	-1E+10	1	-1E+10	1	-1E+10	1	-1E+10	1	-1E+10	1	-1E+10	1
4902554	17	C	07/21/2021	10:07	-136.357	49.624	0	250.10	0	5.1930	0	33.8560	0	26.749	0	247.814	0	-1e10	8	-1e10	8	-1E+10	1	-1E+10	1	-1E+10	1	-1E+10	1	-1E+10	1	-1E+10	1
4902554	17	C	07/21/2021	10:07	-136.357	49.624	0	251.20	0	5.1880	0	33.8580	0	26.751	0	248.904	0	-1e10	8	-1e10	8	-1E+10	1	-1E+10	1	-1E+10	1	-1E+10	1	-1E+10	1	-1E+10	1
4902554	17	C	07/21/2021	10:07	-136.357	49.624	0	252.20	0	5.1710	0	33.8590	0	26.753	0	249.894	0	-1e10	8	-1e10	8	-1E+10	1	-1E+10	1	-1E+10	1	-1E+10	1	-1E+10	1	-1E+10	1
4902554	17	C	07/21/2021	10:07	-136.357	49.624	0	253.20	0	5.1620	0	33.8580	0	26.754	0	250.884	0	-1e10	8	-1e10	8	-1E+10	1	-1E+10	1	-1E+10	1	-1E+10	1	-1E+10	1	-1E+10	1
4902554	17	C	07/21/2021	10:07	-136.357	49.624	0	254.20	0	5.1400	0	33.8610	0	26.759	0	251.874	0	-1e10	8	-1e10	8	-1E+10	1	-1E+10	1	-1E+10	1	-1E+10	1	-1E+10	1	-1E+10	1
4902554	17	C	07/21/2021	10:07	-136.357	49.624	0	255.30	0	5.1340	0	33.8600	0	26.759	0	252.964	0	-1e10	8	-1e10	8	-1E+10	1	-1E+10	1	-1E+10	1	-1E+10	1	-1E+10	1	-1E+10	1
4902554	17	C	07/21/2021	10:07	-136.357	49.624	0	256.30	0	5.1130	0	33.8600	0	26.761	0	253.954	0	-1e10	8	-1e10	8	-1E+10	1	-1E+10	1	-1E+10	1	-1E+10	1	-1E+10	1	-1E+10	1
4902554	17	C	07/21/2021	10:07	-136.357	49.624	0	257.30	0	5.0960	0	33.8590	0	26.762	0	254.944	0	-1e10	8	-1e10	8	-1E+10	1	-1E+10	1	-1E+10	1	-1E+10	1	-1E+10	1	-1E+10	1
4902554	17	C	07/21/2021	10:07	-136.357	49.624	0	258.40	0	5.0950	0	33.8600	0	26.763	0	256.033	0	-1e10	8	-1e10	8	-1E+10	1	-1E+10	1	-1E+10	1	-1E+10	1	-1E+10	1	-1E+10	1
4902554	17	C	07/21/2021	10:07	-136.357	49.624	0	259.40	0	5.0970	0	33.8610	0	26.764	0	257.024	0	-1e10	8	-1e10	8	-1E+10	1	-1E+10	1	-1E+10	1	-1E+10	1	-1E+10	1	-1E+10	1
4902554	17	C	07/21/2021	10:07	-136.357	49.624	0	260.40	0	5.0990	0	33.8610	0	26.763	0	258.014	0	-1e10	8	-1e10	8	-1E+10	1	-1E+10	1	-1E+10	1	-1E+10	1	-1E+10	1	-1E+10	1
4902554	17	C	07/21/2021	10:07	-136.357	49.624	0	261.40	0	5.1030	0	33.8620	0	26.764	0	259.004	0	-1e10	8	-1e10	8	-1E+10	1	-1E+10	1	-1E+10	1	-1E+10	1	-1E+10	1	-1E+10	1
4902554	17	C	07/21/2021	10:07	-136.357	49.624	0	262.50	0	5.1010	0	33.8620	0	26.764	0	260.093	0	-1e10	8	-1e10	8	-1E+10	1	-1E+10	1	-1E+10	1	-1E+10	1	-1E+10	1	-1E+10	1
4902554	17	C	07/21/2021	10:07	-136.357	49.624	0	263.50	0	5.1060	0	33.8650	0	26.766	0	261.083	0	-1e10	8	-1e10	8	-1E+10	1	-1E+10	1	-1E+10	1	-1E+10	1	-1E+10	1	-1E+10	1
4902554	17	C	07/21/2021	10:07	-136.357	49.624	0	264.60	0	5.1040	0	33.8660	0	26.767	0	262.173	0	-1e10	8	-1e10	8	-1E+10	1	-1E+10	1	-1E+10	1	-1E+10	1	-1E+10	1	-1E+10	1
4902554	17	C	07/21/2021	10:07	-136.357	49.624	0	265.60	0	5.0970	0	33.8660	0	26.768	0	263.163	0	-1e10	8	-1e10	8	-1E+10	1	-1E+10	1	-1E+10	1	-1E+10	1	-1E+10	1	-1E+10	1
4902554	17	C	07/21/2021	10:07	-136.357	49.624	0	266.60	0	5.0830	0	33.8670	0	26.770	0	264.153	0	-1e10	8	-1e10	8	-1E+10	1	-1E+10	1	-1E+10	1	-1E+10	1	-1E+10	1	-1E+10	1
4902554	17	C	07/21/2021	10:07	-136.357	49.624	0	267.60	0	5.0770	0	33.8650	0	26.769	0	265.143	0	-1e10	8	-1e10	8	-1E+10	1	-1E+10	1	-1E+10	1	-1E+10	1	-1E+10	1	-1E+10	1
4902554	17	C	07/21/2021	10:07	-136.357	49.624	0	268.60	0	5.0660	0	33.8640	0	26.770	0	266.133	0	-1e10	8	-1e10	8	-1E+10	1	-1E+10	1	-1E+10	1	-1E+10	1	-1E+10	1	-1E+10	1
4902554	17	C	07/21/2021	10:07	-136.357	49.624	0	269.60	0	5.0250	0	33.8650	0	26.775	0	267.124	0	-1e10	8	-1e10	8	-1E+10	1	-1E+10	1	-1E+10	1	-1E+10	1	-1E+10	1	-1E+10	1
4902554	17	C	07/21/2021	10:07	-136.357	49.624	0	270.70	0	5.0210	0	33.8660	0	26.776	0	268.213	0	-1e10	8	-1e10	8	-1E+10	1	-1E+10	1	-1E+10	1	-1E+10	1	-1E+10	1	-1E+10	1
4902554	17	C	07/21/2021	10:07	-136.357	49.624	0	271.70	0	5.0190	0	33.8660	0	26.777	0	269.203	0	-1e10	8	-1e10	8	-1E+10	1	-1E+10	1	-1E+10	1	-1E+10	1	-1E+10	1	-1E+10	1
4902554	17	C	07/21/2021	10:07	-136.357	49.624	0	272.70	0	5.0220	0	33.8650	0	26.775	0	270.193	0	-1e10	8	-1e10	8	-1E+10	1	-1E+10	1	-1E+10	1	-1E+10	1	-1E+10	1	-1E+10	1
4902554	17	C	07/21/2021	10:07	-136.357	49.624	0	273.70	0	5.0320	0	33.8660	0	26.775	0	271.183	0	-1e10	8	-1e10	8	-1E+10	1	-1E+10	1	-1E+10	1	-1E+10	1	-1E+10	1	-1E+10	1
4902554	17	C	07/21/2021	10:07	-136.357	49.624	0	274.70	0	4.9960	0	33.8700	0	26.782	0	272.173	0	-1e10	8	-1e10	8	-1E+10	1	-1E+10	1	-1E+10	1	-1E+10	1	-1E+10	1	-1E+10	1
4902554	17	C	07/21/2021	10:07	-136.357	49.624	0	275.70	0	4.9890	0	33.8690	0	26.782	0	273.164	0	-1e10	8	-1e10	8	-1E+10	1	-1E+10	1	-1E+10	1	-1E+10	1	-1E+10	1	-1E+10	1
4902554	17	C	07/21/2021	10:07	-136.357	49.624	0	276.70	0	4.9910	0	33.8710	0	26.784	0	274.154	0	-1e10	8	-1e10	8	-1E+10	1	-1E+10	1	-1E+10	1	-1E+10	1	-1E+10	1	-1E+10	1
4902554	17	C	07/21/2021	10:07	-136.357	49.624	0	277.70	0	4.9730	0	33.8720	0	26.787	0	275.144	0	-1e10	8	-1e10	8	-1E+10	1	-1E+10	1	-1E+10	1	-1E+10	1	-1E+10	1	-1E+10	1
4902554	17	C	07/21/2021	10:07	-136.357	49.624	0	278.70	0	4.9560	0	33.8720	0	26.789	0	276.134	0	-1e10	8	-1e10	8	-1E+10	1	-1E+10	1	-1E+10	1	-1E+10	1	-1E+10	1	-1E+10	1
4902554	17	C	07/21/2021	10:07	-136.357	49.624	0	279.70	0	4.9450	0	33.8710	0	26.789	0	277.124	0	-1e10	8	-1e10	8	-1E+10	1	-1E+10	1	-1E+10	1	-1E+10	1	-1E+10	1	-1E+10	1
4902554	17	C	07/21/2021	10:07	-136.357	49.624	0	280.70	0	4.9410	0	33.8710	0	26.789	0	278.114	0	-1e10	8	-1e10	8	-1E+10	1	-1E+10	1	-1E+10	1	-1E+10	1	-1E+10	1	-1E+10	1
4902554	17	C	07/21/2021	10:07	-136.357	49.624	0	281.70	0	4.9330	0	33.8730	0	26.792	0	279.104	0	-1e10	8	-1e10	8	-1E+10	1	-1E+10	1	-1E+10	1	-1E+10	1	-1E+10	1	-1E+10	1
4902554	17	C	07/21/2021	10:07	-136.357	49.624	0	282.70	0	4.9420	0	33.8730	0	26.791	0	280.094	0	-1e10	8	-1e10	8	-1E+10	1	-1E+10	1	-1E+10	1	-1E+10	1	-1E+10	1	-1E+10	1
4902554	17	C	07/21/2021	10:07	-136.357	49.624	0	283.70	0	4.9480	0	33.8800	0	26.796	0	281.085	0	-1e10	8	-1e10	8	-1E+10	1	-1E+10	1	-1E+10	1	-1E+10	1	-1E+10	1	-1E+10	1
4902554	17	C	07/21/2021	10:07	-136.357	49.624	0	284.60	0	4.9370	0	33.8800	0	26.797	0	281.976	0	-1e10	8	-1e10	8	-1E+10	1	-1E+10	1	-1E+10	1	-1E+10	1	-1E+10	1	-1E+10	1
4902554	17	C	07/21/2021	10:07	-136.357	49.624	0	285.60	0	4.9110	0	33.8790	0	26.799	0	282.966	0	-1e10	8	-1e10	8	-1E+10	1	-1E+10	1	-1E+10	1	-1E+10	1	-1E+10	1	-1E+10	1
4902554	17	C	07/21/2021	10:07	-136.357	49.624	0	286.60	0	4.9110	0	33.8810	0	26.801	0	283.956	0	-1e10	8	-1e10	8	-1E+10	1	-1E+10	1	-1E+10	1	-1E+10	1	-1E+10	1	-1E+10	1
4902554	17	C	07/21/2021	10:07	-136.357	49.624	0	287.60	0	4.9100	0	33.8800	0	26.800	0	284.946	0	-1e10	8	-1e10	8	-1E+10	1	-1E+10	1	-1E+10	1	-1E+10	1	-1E+10	1	-1E+10	1
4902554	17	C	07/21/2021	10:07	-136.357	49.624	0	288.60	0	4.9120	0	33.8830	0	26.802	0	285.936	0	-1e10	8	-1e10	8	-1E+10	1	-1E+10	1	-1E+10	1	-1E+10	1	-1E+10	1	-1E+10	1
4902554	17	C	07/21/2021	10:07	-136.357	49.624	0	289.60	0	4.9050	0	33.8810	0	26.801	0	286.926	0	-1e10	8	-1e10	8	-1E+10	1	-1E+10	1	-1E+10	1	-1E+10	1	-1E+10	1	-1E+10	1
4902554	17	C	07/21/2021	10:07	-136.357	49.624	0	290.60	0	4.9080	0	33.8830	0	26.803	0	287.916	0	-1e10	8	-1e10	8	-1E+10	1	-1E+10	1	-1E+10	1	-1E+10	1	-1E+10	1	-1E+10	1
4902554	17	C	07/21/2021	10:07	-136.357	49.624	0	291.60	0	4.8660	0	33.8840	0	26.808	0	288.906	0	-1e10	8	-1e10	8	-1E+10	1	-1E+10	1	-1E+10	1	-1E+10	1	-1E+10	1	-1E+10	1
4902554	17	C	07/21/2021	10:07	-136.357	49.624	0	292.60	0	4.8460	0	33.8890	0	26.814	0	289.896	0	-1e10	8	-1e10	8	-1E+10	1	-1E+10	1	-1E+10	1	-1E+10	1	-1E+10	1	-1E+10	1
4902554	17	C	07/21/2021	10:07	-136.357	49.624	0	293.50	0	4.8230	0	33.8850	0	26.814	0	290.787	0	-1e10	8	-1e10	8	-1E+10	1	-1E+10	1	-1E+10	1	-1E+10	1	-1E+10	1	-1E+10	1
4902554	17	C	07/21/2021	10:07	-136.357	49.624	0	294.60	0	4.8120	0	33.8860	0	26.816	0	291.876	0	-1e10	8	-1e10	8	-1E+10	1	-1E+10	1	-1E+10	1	-1E+10	1	-1E+10	1	-1E+10	1
4902554	17	C	07/21/2021	10:07	-136.357	49.624	0	295.60	0	4.8090	0	33.8880	0	26.818	0	292.866	0	-1e10	8	-1e10	8	-1E+10	1	-1E+10	1	-1E+10	1	-1E+10	1	-1E+10	1	-1E+10	1
4902554	17	C	07/21/2021	10:07	-136.357	49.624	0	296.60	0	4.7970	0	33.8930	0	26.823	0	293.856	0	-1e10	8	-1e10	8	-1E+10	1	-1E+10	1	-1E+10	1	-1E+10	1	-1E+10	1	-1E+10	1
4902554	17	C	07/21/2021	10:07	-136.357	49.624	0	297.60	0	4.7850	0	33.8880	0	26.820	0	294.846	0	-1e10	8	-1e10	8	-1E+10	1	-1E+10	1	-1E+10	1	-1E+10	1	-1E+10	1	-1E+10	1
4902554	17	C	07/21/2021	10:07	-136.357	49.624	0	298.60	0	4.7780	0	33.8870	0	26.820	0	295.836	0	-1e10	8	-1e10	8	-1E+10	1	-1E+10	1	-1E+10	1	-1E+10	1	-1E+10	1	-1E+10	1
4902554	17	C	07/21/2021	10:07	-136.357	49.624	0	299.60	0	4.7760	0	33.8880	0	26.821	0	296.827	0	-1e10	8	-1e10	8	-1E+10	1	-1E+10	1	-1E+10	1	-1E+10	1	-1E+10	1	-1E+10	1
4902554	17	C	07/21/2021	10:07	-136.357	49.624	0	300.60	0	4.7750	0	33.8890	0	26.822	0	297.817	0	-1e10	8	-1e10	8	-1E+10	1	-1E+10	1	-1E+10	1	-1E+10	1	-1E+10	1	-1E+10	1
4902554	17	C	07/21/2021	10:07	-136.357	49.624	0	301.60	0	4.7700	0	33.8910	0	26.825	0	298.807	0	-1e10	8	-1e10	8	-1E+10	1	-1E+10	1	-1E+10	1	-1E+10	1	-1E+10	1	-1E+10	1
4902554	17	C	07/21/2021	10:07	-136.357	49.624	0	302.60	0	4.7630	0	33.8930	0	26.827	0	299.797	0	-1e10	8	-1e10	8	-1E+10	1	-1E+10	1	-1E+10	1	-1E+10	1	-1E+10	1	-1E+10	1
4902554	17	C	07/21/2021	10:07	-136.357	49.624	0	303.70	0	4.7580	0	33.8940	0	26.828	0	300.886	0	-1e10	8	-1e10	8	-1E+10	1	-1E+10	1	-1E+10	1	-1E+10	1	-1E+10	1	-1E+10	1
4902554	17	C	07/21/2021	10:07	-136.357	49.624	0	304.70	0	4.7440	0	33.8950	0	26.831	0	301.876	0	-1e10	8	-1e10	8	-1E+10	1	-1E+10	1	-1E+10	1	-1E+10	1	-1E+10	1	-1E+10	1
4902554	17	C	07/21/2021	10:07	-136.357	49.624	0	305.70	0	4.7370	0	33.8960	0	26.832	0	302.866	0	-1e10	8	-1e10	8	-1E+10	1	-1E+10	1	-1E+10	1	-1E+10	1	-1E+10	1	-1E+10	1
4902554	17	C	07/21/2021	10:07	-136.357	49.624	0	306.80	0	4.7310	0	33.8970	0	26.834	0	303.955	0	-1e10	8	-1e10	8	-1E+10	1	-1E+10	1	-1E+10	1	-1E+10	1	-1E+10	1	-1E+10	1
4902554	17	C	07/21/2021	10:07	-136.357	49.624	0	307.80	0	4.7240	0	33.8970	0	26.834	0	304.945	0	-1e10	8	-1e10	8	-1E+10	1	-1E+10	1	-1E+10	1	-1E+10	1	-1E+10	1	-1E+10	1
4902554	17	C	07/21/2021	10:07	-136.357	49.624	0	308.80	0	4.7190	0	33.8980	0	26.836	0	305.935	0	-1e10	8	-1e10	8	-1E+10	1	-1E+10	1	-1E+10	1	-1E+10	1	-1E+10	1	-1E+10	1
4902554	17	C	07/21/2021	10:07	-136.357	49.624	0	309.90	0	4.7170	0	33.8980	0	26.836	0	307.024	0	-1e10	8	-1e10	8	-1E+10	1	-1E+10	1	-1E+10	1	-1E+10	1	-1E+10	1	-1E+10	1
4902554	17	C	07/21/2021	10:07	-136.357	49.624	0	310.90	0	4.7090	0	33.8980	0	26.837	0	308.014	0	-1e10	8	-1e10	8	-1E+10	1	-1E+10	1	-1E+10	1	-1E+10	1	-1E+10	1	-1E+10	1
4902554	17	C	07/21/2021	10:07	-136.357	49.624	0	311.90	0	4.7040	0	33.9000	0	26.839	0	309.003	0	-1e10	8	-1e10	8	-1E+10	1	-1E+10	1	-1E+10	1	-1E+10	1	-1E+10	1	-1E+10	1
4902554	17	C	07/21/2021	10:07	-136.357	49.624	0	313.00	0	4.7010	0	33.9010	0	26.840	0	310.092	0	-1e10	8	-1e10	8	-1E+10	1	-1E+10	1	-1E+10	1	-1E+10	1	-1E+10	1	-1E+10	1
4902554	17	C	07/21/2021	10:07	-136.357	49.624	0	314.00	0	4.6980	0	33.9010	0	26.841	0	311.082	0	-1e10	8	-1e10	8	-1E+10	1	-1E+10	1	-1E+10	1	-1E+10	1	-1E+10	1	-1E+10	1
4902554	17	C	07/21/2021	10:07	-136.357	49.624	0	315.00	0	4.6960	0	33.9020	0	26.842	0	312.072	0	-1e10	8	-1e10	8	-1E+10	1	-1E+10	1	-1E+10	1	-1E+10	1	-1E+10	1	-1E+10	1
4902554	17	C	07/21/2021	10:07	-136.357	49.624	0	315.90	0	4.6950	0	33.9030	0	26.842	0	312.963	0	-1e10	8	-1e10	8	-1E+10	1	-1E+10	1	-1E+10	1	-1E+10	1	-1E+10	1	-1E+10	1
4902554	17	C	07/21/2021	10:07	-136.357	49.624	0	316.90	0	4.6950	0	33.9030	0	26.842	0	313.953	0	-1e10	8	-1e10	8	-1E+10	1	-1E+10	1	-1E+10	1	-1E+10	1	-1E+10	1	-1E+10	1
4902554	17	C	07/21/2021	10:07	-136.357	49.624	0	318.00	0	4.6930	0	33.9030	0	26.843	0	315.042	0	-1e10	8	-1e10	8	-1E+10	1	-1E+10	1	-1E+10	1	-1E+10	1	-1E+10	1	-1E+10	1
4902554	17	C	07/21/2021	10:07	-136.357	49.624	0	319.20	0	4.6860	0	33.9050	0	26.845	0	316.230	0	-1e10	8	-1e10	8	-1E+10	1	-1E+10	1	-1E+10	1	-1E+10	1	-1E+10	1	-1E+10	1
4902554	17	C	07/21/2021	10:07	-136.357	49.624	0	319.90	0	4.6840	0	33.9070	0	26.847	0	316.923	0	-1e10	8	-1e10	8	-1E+10	1	-1E+10	1	-1E+10	1	-1E+10	1	-1E+10	1	-1E+10	1
4902554	17	C	07/21/2021	10:07	-136.357	49.624	0	320.70	0	4.6850	0	33.9080	0	26.848	0	317.715	0	-1e10	8	-1e10	8	-1E+10	1	-1E+10	1	-1E+10	1	-1E+10	1	-1E+10	1	-1E+10	1
4902554	17	C	07/21/2021	10:07	-136.357	49.624	0	321.90	0	4.6890	0	33.9090	0	26.848	0	318.903	0	-1e10	8	-1e10	8	-1E+10	1	-1E+10	1	-1E+10	1	-1E+10	1	-1E+10	1	-1E+10	1
4902554	17	C	07/21/2021	10:07	-136.357	49.624	0	323.10	0	4.6710	0	33.9120	0	26.852	0	320.091	0	-1e10	8	-1e10	8	-1E+10	1	-1E+10	1	-1E+10	1	-1E+10	1	-1E+10	1	-1E+10	1
4902554	17	C	07/21/2021	10:07	-136.357	49.624	0	323.80	0	4.6610	0	33.9140	0	26.855	0	320.784	0	-1e10	8	-1e10	8	-1E+10	1	-1E+10	1	-1E+10	1	-1E+10	1	-1E+10	1	-1E+10	1
4902554	17	C	07/21/2021	10:07	-136.357	49.624	0	325.00	0	4.6780	0	33.9180	0	26.856	0	321.972	0	-1e10	8	-1e10	8	-1E+10	1	-1E+10	1	-1E+10	1	-1E+10	1	-1E+10	1	-1E+10	1
4902554	17	C	07/21/2021	10:07	-136.357	49.624	0	326.20	0	4.7180	0	33.9280	0	26.860	0	323.160	0	-1e10	8	-1e10	8	-1E+10	1	-1E+10	1	-1E+10	1	-1E+10	1	-1E+10	1	-1E+10	1
4902554	17	C	07/21/2021	10:07	-136.357	49.624	0	327.00	0	4.7150	0	33.9290	0	26.861	0	323.951	0	-1e10	8	-1e10	8	-1E+10	1	-1E+10	1	-1E+10	1	-1E+10	1	-1E+10	1	-1E+10	1
4902554	17	C	07/21/2021	10:07	-136.357	49.624	0	327.90	0	4.7070	0	33.9290	0	26.862	0	324.842	0	-1e10	8	-1e10	8	-1E+10	1	-1E+10	1	-1E+10	1	-1E+10	1	-1E+10	1	-1E+10	1
4902554	17	C	07/21/2021	10:07	-136.357	49.624	0	328.70	0	4.7060	0	33.9300	0	26.863	0	325.634	0	-1e10	8	-1e10	8	-1E+10	1	-1E+10	1	-1E+10	1	-1E+10	1	-1E+10	1	-1E+10	1
4902554	17	C	07/21/2021	10:07	-136.357	49.624	0	329.90	0	4.7040	0	33.9300	0	26.863	0	326.822	0	-1e10	8	-1e10	8	-1E+10	1	-1E+10	1	-1E+10	1	-1E+10	1	-1E+10	1	-1E+10	1
4902554	17	C	07/21/2021	10:07	-136.357	49.624	0	331.10	0	4.7040	0	33.9310	0	26.864	0	328.010	0	-1e10	8	-1e10	8	-1E+10	1	-1E+10	1	-1E+10	1	-1E+10	1	-1E+10	1	-1E+10	1
4902554	17	C	07/21/2021	10:07	-136.357	49.624	0	332.00	0	4.7040	0	33.9310	0	26.864	0	328.901	0	-1e10	8	-1e10	8	-1E+10	1	-1E+10	1	-1E+10	1	-1E+10	1	-1E+10	1	-1E+10	1
4902554	17	C	07/21/2021	10:07	-136.357	49.624	0	332.80	0	4.7050	0	33.9310	0	26.864	0	329.693	0	-1e10	8	-1e10	8	-1E+10	1	-1E+10	1	-1E+10	1	-1E+10	1	-1E+10	1	-1E+10	1
4902554	17	C	07/21/2021	10:07	-136.357	49.624	0	333.60	0	4.6990	0	33.9310	0	26.864	0	330.485	0	-1e10	8	-1e10	8	-1E+10	1	-1E+10	1	-1E+10	1	-1E+10	1	-1E+10	1	-1E+10	1
4902554	17	C	07/21/2021	10:07	-136.357	49.624	0	334.90	0	4.6980	0	33.9310	0	26.865	0	331.771	0	-1e10	8	-1e10	8	-1E+10	1	-1E+10	1	-1E+10	1	-1E+10	1	-1E+10	1	-1E+10	1
4902554	17	C	07/21/2021	10:07	-136.357	49.624	0	336.20	0	4.6940	0	33.9330	0	26.867	0	333.058	0	-1e10	8	-1e10	8	-1E+10	1	-1E+10	1	-1E+10	1	-1E+10	1	-1E+10	1	-1E+10	1
4902554	17	C	07/21/2021	10:07	-136.357	49.624	0	337.00	0	4.6850	0	33.9340	0	26.868	0	333.850	0	-1e10	8	-1e10	8	-1E+10	1	-1E+10	1	-1E+10	1	-1E+10	1	-1E+10	1	-1E+10	1
4902554	17	C	07/21/2021	10:07	-136.357	49.624	0	337.90	0	4.6770	0	33.9360	0	26.871	0	334.741	0	-1e10	8	-1e10	8	-1E+10	1	-1E+10	1	-1E+10	1	-1E+10	1	-1E+10	1	-1E+10	1
4902554	17	C	07/21/2021	10:07	-136.357	49.624	0	338.70	0	4.6680	0	33.9370	0	26.873	0	335.533	0	-1e10	8	-1e10	8	-1E+10	1	-1E+10	1	-1E+10	1	-1E+10	1	-1E+10	1	-1E+10	1
4902554	17	C	07/21/2021	10:07	-136.357	49.624	0	339.60	0	4.6490	0	33.9360	0	26.874	0	336.424	0	-1e10	8	-1e10	8	-1E+10	1	-1E+10	1	-1E+10	1	-1E+10	1	-1E+10	1	-1E+10	1
4902554	17	C	07/21/2021	10:07	-136.357	49.624	0	340.90	0	4.6430	0	33.9360	0	26.875	0	337.711	0	-1e10	8	-1e10	8	-1E+10	1	-1E+10	1	-1E+10	1	-1E+10	1	-1E+10	1	-1E+10	1
4902554	17	C	07/21/2021	10:07	-136.357	49.624	0	342.20	0	4.6400	0	33.9360	0	26.875	0	338.997	0	-1e10	8	-1e10	8	-1E+10	1	-1E+10	1	-1E+10	1	-1E+10	1	-1E+10	1	-1E+10	1
4902554	17	C	07/21/2021	10:07	-136.357	49.624	0	343.10	0	4.6390	0	33.9360	0	26.875	0	339.888	0	-1e10	8	-1e10	8	-1E+10	1	-1E+10	1	-1E+10	1	-1E+10	1	-1E+10	1	-1E+10	1
4902554	17	C	07/21/2021	10:07	-136.357	49.624	0	344.00	0	4.6370	0	33.9360	0	26.875	0	340.779	0	-1e10	8	-1e10	8	-1E+10	1	-1E+10	1	-1E+10	1	-1E+10	1	-1E+10	1	-1E+10	1
4902554	17	C	07/21/2021	10:07	-136.357	49.624	0	344.90	0	4.6370	0	33.9360	0	26.875	0	341.670	0	-1e10	8	-1e10	8	-1E+10	1	-1E+10	1	-1E+10	1	-1E+10	1	-1E+10	1	-1E+10	1
4902554	17	C	07/21/2021	10:07	-136.357	49.624	0	345.70	0	4.6200	0	33.9410	0	26.881	0	342.462	0	-1e10	8	-1e10	8	-1E+10	1	-1E+10	1	-1E+10	1	-1E+10	1	-1E+10	1	-1E+10	1
4902554	17	C	07/21/2021	10:07	-136.357	49.624	0	346.70	0	4.6120	0	33.9380	0	26.880	0	343.451	0	-1e10	8	-1e10	8	-1E+10	1	-1E+10	1	-1E+10	1	-1E+10	1	-1E+10	1	-1E+10	1
4902554	17	C	07/21/2021	10:07	-136.357	49.624	0	347.60	0	4.6100	0	33.9380	0	26.880	0	344.342	0	-1e10	8	-1e10	8	-1E+10	1	-1E+10	1	-1E+10	1	-1E+10	1	-1E+10	1	-1E+10	1
4902554	17	C	07/21/2021	10:07	-136.357	49.624	0	348.90	0	4.6080	0	33.9380	0	26.880	0	345.629	0	-1e10	8	-1e10	8	-1E+10	1	-1E+10	1	-1E+10	1	-1E+10	1	-1E+10	1	-1E+10	1
4902554	17	C	07/21/2021	10:07	-136.357	49.624	0	350.30	0	4.6060	0	33.9390	0	26.881	0	347.015	0	-1e10	8	-1e10	8	-1E+10	1	-1E+10	1	-1E+10	1	-1E+10	1	-1E+10	1	-1E+10	1
4902554	17	C	07/21/2021	10:07	-136.357	49.624	0	353.10	0	4.6030	0	33.9390	0	26.881	0	349.786	0	-1e10	8	-1e10	8	-1E+10	1	-1E+10	1	-1E+10	1	-1E+10	1	-1E+10	1	-1E+10	1
4902554	17	C	07/21/2021	10:07	-136.357	49.624	0	357.70	0	4.5940	0	33.9430	0	26.886	0	354.339	0	-1e10	8	-1e10	8	-1E+10	1	-1E+10	1	-1E+10	1	-1E+10	1	-1E+10	1	-1E+10	1
4902554	17	C	07/21/2021	10:07	-136.357	49.624	0	363.00	0	4.5430	0	33.9430	0	26.891	0	359.585	0	-1e10	8	-1e10	8	-1E+10	1	-1E+10	1	-1E+10	1	-1E+10	1	-1E+10	1	-1E+10	1
4902554	17	C	07/21/2021	10:07	-136.357	49.624	0	368.30	0	4.5180	0	33.9470	0	26.897	0	364.830	0	-1e10	8	-1e10	8	-1E+10	1	-1E+10	1	-1E+10	1	-1E+10	1	-1E+10	1	-1E+10	1
4902554	17	C	07/21/2021	10:07	-136.357	49.624	0	373.20	0	4.5170	0	33.9510	0	26.900	0	369.680	0	-1e10	8	-1e10	8	-1E+10	1	-1E+10	1	-1E+10	1	-1E+10	1	-1E+10	1	-1E+10	1
4902554	17	C	07/21/2021	10:07	-136.357	49.624	0	378.10	0	4.5290	0	33.9610	0	26.907	0	374.529	0	-1e10	8	-1e10	8	-1E+10	1	-1E+10	1	-1E+10	1	-1E+10	1	-1E+10	1	-1E+10	1
4902554	17	C	07/21/2021	10:07	-136.357	49.624	0	383.20	0	4.5110	0	33.9650	0	26.912	0	379.576	0	-1e10	8	-1e10	8	-1E+10	1	-1E+10	1	-1E+10	1	-1E+10	1	-1E+10	1	-1E+10	1
4902554	17	C	07/21/2021	10:07	-136.357	49.624	0	388.30	0	4.4880	0	33.9700	0	26.919	0	384.623	0	-1e10	8	-1e10	8	-1E+10	1	-1E+10	1	-1E+10	1	-1E+10	1	-1E+10	1	-1E+10	1
4902554	17	C	07/21/2021	10:07	-136.357	49.624	0	392.90	0	4.4640	0	33.9760	0	26.926	0	389.175	0	-1e10	8	-1e10	8	-1E+10	1	-1E+10	1	-1E+10	1	-1E+10	1	-1E+10	1	-1E+10	1
4902554	17	C	07/21/2021	10:07	-136.357	49.624	0	397.50	0	4.4580	0	33.9800	0	26.930	0	393.727	0	-1e10	8	-1e10	8	-1E+10	1	-1E+10	1	-1E+10	1	-1E+10	1	-1E+10	1	-1E+10	1
4902554	17	C	07/21/2021	10:07	-136.357	49.624	0	402.70	0	4.4320	0	33.9820	0	26.934	0	398.873	0	-1e10	8	-1e10	8	-1E+10	1	-1E+10	1	-1E+10	1	-1E+10	1	-1E+10	1	-1E+10	1
4902554	17	C	07/21/2021	10:07	-136.357	49.624	0	408.00	0	4.4080	0	33.9870	0	26.941	0	404.117	0	-1e10	8	-1e10	8	-1E+10	1	-1E+10	1	-1E+10	1	-1E+10	1	-1E+10	1	-1E+10	1
4902554	17	C	07/21/2021	10:07	-136.357	49.624	0	413.20	0	4.3920	0	33.9890	0	26.944	0	409.263	0	-1e10	8	-1e10	8	-1E+10	1	-1E+10	1	-1E+10	1	-1E+10	1	-1E+10	1	-1E+10	1
4902554	17	C	07/21/2021	10:07	-136.357	49.624	0	418.00	0	4.3660	0	33.9940	0	26.951	0	414.012	0	-1e10	8	-1e10	8	-1E+10	1	-1E+10	1	-1E+10	1	-1E+10	1	-1E+10	1	-1E+10	1
4902554	17	C	07/21/2021	10:07	-136.357	49.624	0	422.80	0	4.3430	0	34.0000	0	26.958	0	418.762	0	-1e10	8	-1e10	8	-1E+10	1	-1E+10	1	-1E+10	1	-1E+10	1	-1E+10	1	-1E+10	1
4902554	17	C	07/21/2021	10:07	-136.357	49.624	0	427.90	0	4.3160	0	34.0050	0	26.965	0	423.808	0	-1e10	8	-1e10	8	-1E+10	1	-1E+10	1	-1E+10	1	-1E+10	1	-1E+10	1	-1E+10	1
4902554	17	C	07/21/2021	10:07	-136.357	49.624	0	433.00	0	4.3060	0	34.0100	0	26.970	0	428.854	0	-1e10	8	-1e10	8	-1E+10	1	-1E+10	1	-1E+10	1	-1E+10	1	-1E+10	1	-1E+10	1
4902554	17	C	07/21/2021	10:07	-136.357	49.624	0	438.20	0	4.2850	0	34.0160	0	26.977	0	433.998	0	-1e10	8	-1e10	8	-1E+10	1	-1E+10	1	-1E+10	1	-1E+10	1	-1E+10	1	-1E+10	1
4902554	17	C	07/21/2021	10:07	-136.357	49.624	0	443.10	0	4.2610	0	34.0210	0	26.984	0	438.846	0	-1e10	8	-1e10	8	-1E+10	1	-1E+10	1	-1E+10	1	-1E+10	1	-1E+10	1	-1E+10	1
4902554	17	C	07/21/2021	10:07	-136.357	49.624	0	448.20	0	4.2380	0	34.0280	0	26.992	0	443.892	0	-1e10	8	-1e10	8	-1E+10	1	-1E+10	1	-1E+10	1	-1E+10	1	-1E+10	1	-1E+10	1
4902554	17	C	07/21/2021	10:07	-136.357	49.624	0	452.90	0	4.2280	0	34.0320	0	26.996	0	448.542	0	-1e10	8	-1e10	8	-1E+10	1	-1E+10	1	-1E+10	1	-1E+10	1	-1E+10	1	-1E+10	1
4902554	17	C	07/21/2021	10:07	-136.357	49.624	0	457.60	0	4.2200	0	34.0340	0	26.998	0	453.191	0	-1e10	8	-1e10	8	-1E+10	1	-1E+10	1	-1E+10	1	-1E+10	1	-1E+10	1	-1E+10	1
4902554	17	C	07/21/2021	10:07	-136.357	49.624	0	462.90	0	4.2110	0	34.0380	0	27.003	0	458.434	0	-1e10	8	-1e10	8	-1E+10	1	-1E+10	1	-1E+10	1	-1E+10	1	-1E+10	1	-1E+10	1
4902554	17	C	07/21/2021	10:07	-136.357	49.624	0	468.20	0	4.2050	0	34.0410	0	27.006	0	463.677	0	-1e10	8	-1e10	8	-1E+10	1	-1E+10	1	-1E+10	1	-1E+10	1	-1E+10	1	-1E+10	1
4902554	17	C	07/21/2021	10:07	-136.357	49.624	0	473.10	0	4.1970	0	34.0450	0	27.010	0	468.524	0	-1e10	8	-1e10	8	-1E+10	1	-1E+10	1	-1E+10	1	-1E+10	1	-1E+10	1	-1E+10	1
4902554	17	C	07/21/2021	10:07	-136.357	49.624	0	477.90	0	4.1850	0	34.0510	0	27.016	0	473.273	0	-1e10	8	-1e10	8	-1E+10	1	-1E+10	1	-1E+10	1	-1E+10	1	-1E+10	1	-1E+10	1
4902554	17	C	07/21/2021	10:07	-136.357	49.624	0	482.90	0	4.1830	0	34.0540	0	27.018	0	478.218	0	-1e10	8	-1e10	8	-1E+10	1	-1E+10	1	-1E+10	1	-1E+10	1	-1E+10	1	-1E+10	1
4902554	17	C	07/21/2021	10:07	-136.357	49.624	0	487.80	0	4.1890	0	34.0610	0	27.023	0	483.065	0	-1e10	8	-1e10	8	-1E+10	1	-1E+10	1	-1E+10	1	-1E+10	1	-1E+10	1	-1E+10	1
4902554	17	C	07/21/2021	10:07	-136.357	49.624	0	493.10	0	4.1770	0	34.0640	0	27.027	0	488.308	0	-1e10	8	-1e10	8	-1E+10	1	-1E+10	1	-1E+10	1	-1E+10	1	-1E+10	1	-1E+10	1
4902554	17	C	07/21/2021	10:07	-136.357	49.624	0	498.10	0	4.1730	0	34.0690	0	27.032	0	493.253	0	-1e10	8	-1e10	8	-1E+10	1	-1E+10	1	-1E+10	1	-1E+10	1	-1E+10	1	-1E+10	1
4902554	17	C	07/21/2021	10:07	-136.357	49.624	0	503.00	0	4.1550	0	34.0710	0	27.035	0	498.099	0	-1e10	8	-1e10	8	-1E+10	1	-1E+10	1	-1E+10	1	-1E+10	1	-1E+10	1	-1E+10	1
4902554	17	C	07/21/2021	10:07	-136.357	49.624	0	508.10	0	4.1320	0	34.0740	0	27.040	0	503.144	0	-1e10	8	-1e10	8	-1E+10	1	-1E+10	1	-1E+10	1	-1E+10	1	-1E+10	1	-1E+10	1
4902554	17	C	07/21/2021	10:07	-136.357	49.624	0	513.00	0	4.1260	0	34.0780	0	27.044	0	507.990	0	-1e10	8	-1e10	8	-1E+10	1	-1E+10	1	-1E+10	1	-1E+10	1	-1E+10	1	-1E+10	1
4902554	17	C	07/21/2021	10:07	-136.357	49.624	0	518.00	0	4.1180	0	34.0820	0	27.048	0	512.935	0	-1e10	8	-1e10	8	-1E+10	1	-1E+10	1	-1E+10	1	-1E+10	1	-1E+10	1	-1E+10	1
4902554	17	C	07/21/2021	10:07	-136.357	49.624	0	522.80	0	4.1100	0	34.0850	0	27.051	0	517.682	0	-1e10	8	-1e10	8	-1E+10	1	-1E+10	1	-1E+10	1	-1E+10	1	-1E+10	1	-1E+10	1
4902554	17	C	07/21/2021	10:07	-136.357	49.624	0	527.80	0	4.0990	0	34.0900	0	27.056	0	522.627	0	-1e10	8	-1e10	8	-1E+10	1	-1E+10	1	-1E+10	1	-1E+10	1	-1E+10	1	-1E+10	1
4902554	17	C	07/21/2021	10:07	-136.357	49.624	0	532.80	0	4.0900	0	34.0950	0	27.061	0	527.571	0	-1e10	8	-1e10	8	-1E+10	1	-1E+10	1	-1E+10	1	-1E+10	1	-1E+10	1	-1E+10	1
4902554	17	C	07/21/2021	10:07	-136.357	49.624	0	537.90	0	4.0840	0	34.0990	0	27.065	0	532.615	0	-1e10	8	-1e10	8	-1E+10	1	-1E+10	1	-1E+10	1	-1E+10	1	-1E+10	1	-1E+10	1
4902554	17	C	07/21/2021	10:07	-136.357	49.624	0	543.10	0	4.0720	0	34.1030	0	27.069	0	537.757	0	-1e10	8	-1e10	8	-1E+10	1	-1E+10	1	-1E+10	1	-1E+10	1	-1E+10	1	-1E+10	1
4902554	17	C	07/21/2021	10:07	-136.357	49.624	0	548.10	0	4.0570	0	34.1070	0	27.074	0	542.701	0	-1e10	8	-1e10	8	-1E+10	1	-1E+10	1	-1E+10	1	-1E+10	1	-1E+10	1	-1E+10	1
4902554	17	C	07/21/2021	10:07	-136.357	49.624	0	552.70	0	4.0430	0	34.1110	0	27.079	0	547.250	0	-1e10	8	-1e10	8	-1E+10	1	-1E+10	1	-1E+10	1	-1E+10	1	-1E+10	1	-1E+10	1
4902554	17	C	07/21/2021	10:07	-136.357	49.624	0	557.90	0	4.0350	0	34.1140	0	27.082	0	552.392	0	-1e10	8	-1e10	8	-1E+10	1	-1E+10	1	-1E+10	1	-1E+10	1	-1E+10	1	-1E+10	1
4902554	17	C	07/21/2021	10:07	-136.357	49.624	0	563.10	0	4.0220	0	34.1160	0	27.085	0	557.533	0	-1e10	8	-1e10	8	-1E+10	1	-1E+10	1	-1E+10	1	-1E+10	1	-1E+10	1	-1E+10	1
4902554	17	C	07/21/2021	10:07	-136.357	49.624	0	567.80	0	4.0090	0	34.1200	0	27.089	0	562.181	0	-1e10	8	-1e10	8	-1E+10	1	-1E+10	1	-1E+10	1	-1E+10	1	-1E+10	1	-1E+10	1
4902554	17	C	07/21/2021	10:07	-136.357	49.624	0	573.00	0	4.0010	0	34.1230	0	27.093	0	567.322	0	-1e10	8	-1e10	8	-1E+10	1	-1E+10	1	-1E+10	1	-1E+10	1	-1E+10	1	-1E+10	1
4902554	17	C	07/21/2021	10:07	-136.357	49.624	0	578.30	0	3.9890	0	34.1280	0	27.098	0	572.562	0	-1e10	8	-1e10	8	-1E+10	1	-1E+10	1	-1E+10	1	-1E+10	1	-1E+10	1	-1E+10	1
4902554	17	C	07/21/2021	10:07	-136.357	49.624	0	583.10	0	3.9840	0	34.1310	0	27.101	0	577.308	0	-1e10	8	-1e10	8	-1E+10	1	-1E+10	1	-1E+10	1	-1E+10	1	-1E+10	1	-1E+10	1
4902554	17	C	07/21/2021	10:07	-136.357	49.624	0	587.80	0	3.9760	0	34.1350	0	27.105	0	581.955	0	-1e10	8	-1e10	8	-1E+10	1	-1E+10	1	-1E+10	1	-1E+10	1	-1E+10	1	-1E+10	1
4902554	17	C	07/21/2021	10:07	-136.357	49.624	0	592.60	0	3.9590	0	34.1430	0	27.113	0	586.700	0	-1e10	8	-1e10	8	-1E+10	1	-1E+10	1	-1E+10	1	-1E+10	1	-1E+10	1	-1E+10	1
4902554	17	C	07/21/2021	10:07	-136.357	49.624	0	597.80	0	3.9540	0	34.1450	0	27.115	0	591.841	0	-1e10	8	-1e10	8	-1E+10	1	-1E+10	1	-1E+10	1	-1E+10	1	-1E+10	1	-1E+10	1
4902554	17	C	07/21/2021	10:07	-136.357	49.624	0	603.10	0	3.9420	0	34.1510	0	27.121	0	597.081	0	-1e10	8	-1e10	8	-1E+10	1	-1E+10	1	-1E+10	1	-1E+10	1	-1E+10	1	-1E+10	1
4902554	17	C	07/21/2021	10:07	-136.357	49.624	0	607.90	0	3.9310	0	34.1550	0	27.126	0	601.826	0	-1e10	8	-1e10	8	-1E+10	1	-1E+10	1	-1E+10	1	-1E+10	1	-1E+10	1	-1E+10	1
4902554	17	C	07/21/2021	10:07	-136.357	49.624	0	612.80	0	3.9260	0	34.1580	0	27.128	0	606.670	0	-1e10	8	-1e10	8	-1E+10	1	-1E+10	1	-1E+10	1	-1E+10	1	-1E+10	1	-1E+10	1
4902554	17	C	07/21/2021	10:07	-136.357	49.624	0	617.70	0	3.9130	0	34.1630	0	27.134	0	611.513	0	-1e10	8	-1e10	8	-1E+10	1	-1E+10	1	-1E+10	1	-1E+10	1	-1E+10	1	-1E+10	1
4902554	17	C	07/21/2021	10:07	-136.357	49.624	0	622.70	0	3.8980	0	34.1680	0	27.139	0	616.456	0	-1e10	8	-1e10	8	-1E+10	1	-1E+10	1	-1E+10	1	-1E+10	1	-1E+10	1	-1E+10	1
4902554	17	C	07/21/2021	10:07	-136.357	49.624	0	627.70	0	3.8850	0	34.1720	0	27.144	0	621.398	0	-1e10	8	-1e10	8	-1E+10	1	-1E+10	1	-1E+10	1	-1E+10	1	-1E+10	1	-1E+10	1
4902554	17	C	07/21/2021	10:07	-136.357	49.624	0	632.70	0	3.8820	0	34.1730	0	27.145	0	626.341	0	-1e10	8	-1e10	8	-1E+10	1	-1E+10	1	-1E+10	1	-1E+10	1	-1E+10	1	-1E+10	1
4902554	17	C	07/21/2021	10:07	-136.357	49.624	0	637.80	0	3.8680	0	34.1790	0	27.151	0	631.382	0	-1e10	8	-1e10	8	-1E+10	1	-1E+10	1	-1E+10	1	-1E+10	1	-1E+10	1	-1E+10	1
4902554	17	C	07/21/2021	10:07	-136.357	49.624	0	643.00	0	3.8570	0	34.1830	0	27.156	0	636.521	0	-1e10	8	-1e10	8	-1E+10	1	-1E+10	1	-1E+10	1	-1E+10	1	-1E+10	1	-1E+10	1
4902554	17	C	07/21/2021	10:07	-136.357	49.624	0	648.10	0	3.8430	0	34.1860	0	27.159	0	641.562	0	-1e10	8	-1e10	8	-1E+10	1	-1E+10	1	-1E+10	1	-1E+10	1	-1E+10	1	-1E+10	1
4902554	17	C	07/21/2021	10:07	-136.357	49.624	0	653.30	0	3.8280	0	34.1910	0	27.165	0	646.702	0	-1e10	8	-1e10	8	-1E+10	1	-1E+10	1	-1E+10	1	-1E+10	1	-1E+10	1	-1E+10	1
4902554	17	C	07/21/2021	10:07	-136.357	49.624	0	658.00	0	3.8170	0	34.1940	0	27.168	0	651.347	0	-1e10	8	-1e10	8	-1E+10	1	-1E+10	1	-1E+10	1	-1E+10	1	-1E+10	1	-1E+10	1
4902554	17	C	07/21/2021	10:07	-136.357	49.624	0	662.70	0	3.8030	0	34.1990	0	27.174	0	655.992	0	-1e10	8	-1e10	8	-1E+10	1	-1E+10	1	-1E+10	1	-1E+10	1	-1E+10	1	-1E+10	1
4902554	17	C	07/21/2021	10:07	-136.357	49.624	0	667.70	0	3.7900	0	34.2030	0	27.178	0	660.933	0	-1e10	8	-1e10	8	-1E+10	1	-1E+10	1	-1E+10	1	-1E+10	1	-1E+10	1	-1E+10	1
4902554	17	C	07/21/2021	10:07	-136.357	49.624	0	673.00	0	3.7720	0	34.2090	0	27.185	0	666.171	0	-1e10	8	-1e10	8	-1E+10	1	-1E+10	1	-1E+10	1	-1E+10	1	-1E+10	1	-1E+10	1
4902554	17	C	07/21/2021	10:07	-136.357	49.624	0	678.30	0	3.7620	0	34.2110	0	27.188	0	671.409	0	-1e10	8	-1e10	8	-1E+10	1	-1E+10	1	-1E+10	1	-1E+10	1	-1E+10	1	-1E+10	1
4902554	17	C	07/21/2021	10:07	-136.357	49.624	0	683.30	0	3.7560	0	34.2130	0	27.190	0	676.350	0	-1e10	8	-1e10	8	-1E+10	1	-1E+10	1	-1E+10	1	-1E+10	1	-1E+10	1	-1E+10	1
4902554	17	C	07/21/2021	10:07	-136.357	49.624	0	687.90	0	3.7410	0	34.2160	0	27.194	0	680.896	0	-1e10	8	-1e10	8	-1E+10	1	-1E+10	1	-1E+10	1	-1E+10	1	-1E+10	1	-1E+10	1
4902554	17	C	07/21/2021	10:07	-136.357	49.624	0	692.60	0	3.7250	0	34.2200	0	27.198	0	685.540	0	-1e10	8	-1e10	8	-1E+10	1	-1E+10	1	-1E+10	1	-1E+10	1	-1E+10	1	-1E+10	1
4902554	17	C	07/21/2021	10:07	-136.357	49.624	0	697.80	0	3.7160	0	34.2230	0	27.202	0	690.678	0	-1e10	8	-1e10	8	-1E+10	1	-1E+10	1	-1E+10	1	-1E+10	1	-1E+10	1	-1E+10	1
4902554	17	C	07/21/2021	10:07	-136.357	49.624	0	703.00	0	3.7010	0	34.2270	0	27.206	0	695.817	0	-1e10	8	-1e10	8	-1E+10	1	-1E+10	1	-1E+10	1	-1E+10	1	-1E+10	1	-1E+10	1
4902554	17	C	07/21/2021	10:07	-136.357	49.624	0	708.00	0	3.6940	0	34.2290	0	27.209	0	700.757	0	-1e10	8	-1e10	8	-1E+10	1	-1E+10	1	-1E+10	1	-1E+10	1	-1E+10	1	-1E+10	1
4902554	17	C	07/21/2021	10:07	-136.357	49.624	0	713.00	0	3.6810	0	34.2320	0	27.212	0	705.698	0	-1e10	8	-1e10	8	-1E+10	1	-1E+10	1	-1E+10	1	-1E+10	1	-1E+10	1	-1E+10	1
4902554	17	C	07/21/2021	10:07	-136.357	49.624	0	718.00	0	3.6660	0	34.2350	0	27.216	0	710.638	0	-1e10	8	-1e10	8	-1E+10	1	-1E+10	1	-1E+10	1	-1E+10	1	-1E+10	1	-1E+10	1
4902554	17	C	07/21/2021	10:07	-136.357	49.624	0	722.70	0	3.6590	0	34.2370	0	27.219	0	715.282	0	-1e10	8	-1e10	8	-1E+10	1	-1E+10	1	-1E+10	1	-1E+10	1	-1E+10	1	-1E+10	1
4902554	17	C	07/21/2021	10:07	-136.357	49.624	0	727.80	0	3.6430	0	34.2420	0	27.224	0	720.320	0	-1e10	8	-1e10	8	-1E+10	1	-1E+10	1	-1E+10	1	-1E+10	1	-1E+10	1	-1E+10	1
4902554	17	C	07/21/2021	10:07	-136.357	49.624	0	733.00	0	3.6390	0	34.2430	0	27.225	0	725.458	0	-1e10	8	-1e10	8	-1E+10	1	-1E+10	1	-1E+10	1	-1E+10	1	-1E+10	1	-1E+10	1
4902554	17	C	07/21/2021	10:07	-136.357	49.624	0	737.70	0	3.6300	0	34.2450	0	27.228	0	730.101	0	-1e10	8	-1e10	8	-1E+10	1	-1E+10	1	-1E+10	1	-1E+10	1	-1E+10	1	-1E+10	1
4902554	17	C	07/21/2021	10:07	-136.357	49.624	0	742.80	0	3.6150	0	34.2490	0	27.233	0	735.140	0	-1e10	8	-1e10	8	-1E+10	1	-1E+10	1	-1E+10	1	-1E+10	1	-1E+10	1	-1E+10	1
4902554	17	C	07/21/2021	10:07	-136.357	49.624	0	748.00	0	3.6010	0	34.2520	0	27.236	0	740.277	0	-1e10	8	-1e10	8	-1E+10	1	-1E+10	1	-1E+10	1	-1E+10	1	-1E+10	1	-1E+10	1
4902554	17	C	07/21/2021	10:07	-136.357	49.624	0	752.80	0	3.5860	0	34.2550	0	27.240	0	745.019	0	-1e10	8	-1e10	8	-1E+10	1	-1E+10	1	-1E+10	1	-1E+10	1	-1E+10	1	-1E+10	1
4902554	17	C	07/21/2021	10:07	-136.357	49.624	0	757.60	0	3.5760	0	34.2570	0	27.243	0	749.761	0	-1e10	8	-1e10	8	-1E+10	1	-1E+10	1	-1E+10	1	-1E+10	1	-1E+10	1	-1E+10	1
4902554	17	C	07/21/2021	10:07	-136.357	49.624	0	762.80	0	3.5610	0	34.2590	0	27.246	0	754.898	0	-1e10	8	-1e10	8	-1E+10	1	-1E+10	1	-1E+10	1	-1E+10	1	-1E+10	1	-1E+10	1
4902554	17	C	07/21/2021	10:07	-136.357	49.624	0	768.10	0	3.5470	0	34.2620	0	27.250	0	760.133	0	-1e10	8	-1e10	8	-1E+10	1	-1E+10	1	-1E+10	1	-1E+10	1	-1E+10	1	-1E+10	1
4902554	17	C	07/21/2021	10:07	-136.357	49.624	0	773.00	0	3.5420	0	34.2660	0	27.253	0	764.973	0	-1e10	8	-1e10	8	-1E+10	1	-1E+10	1	-1E+10	1	-1E+10	1	-1E+10	1	-1E+10	1
4902554	17	C	07/21/2021	10:07	-136.357	49.624	0	777.80	0	3.5350	0	34.2680	0	27.256	0	769.714	0	-1e10	8	-1e10	8	-1E+10	1	-1E+10	1	-1E+10	1	-1E+10	1	-1E+10	1	-1E+10	1
4902554	17	C	07/21/2021	10:07	-136.357	49.624	0	782.80	0	3.5280	0	34.2690	0	27.257	0	774.653	0	-1e10	8	-1e10	8	-1E+10	1	-1E+10	1	-1E+10	1	-1E+10	1	-1E+10	1	-1E+10	1
4902554	17	C	07/21/2021	10:07	-136.357	49.624	0	787.70	0	3.5100	0	34.2730	0	27.262	0	779.493	0	-1e10	8	-1e10	8	-1E+10	1	-1E+10	1	-1E+10	1	-1E+10	1	-1E+10	1	-1E+10	1
4902554	17	C	07/21/2021	10:07	-136.357	49.624	0	792.70	0	3.5020	0	34.2750	0	27.265	0	784.432	0	-1e10	8	-1e10	8	-1E+10	1	-1E+10	1	-1E+10	1	-1E+10	1	-1E+10	1	-1E+10	1
4902554	17	C	07/21/2021	10:07	-136.357	49.624	0	797.80	0	3.4880	0	34.2780	0	27.268	0	789.469	0	-1e10	8	-1e10	8	-1E+10	1	-1E+10	1	-1E+10	1	-1E+10	1	-1E+10	1	-1E+10	1
4902554	17	C	07/21/2021	10:07	-136.357	49.624	0	802.80	0	3.4730	0	34.2810	0	27.272	0	794.407	0	-1e10	8	-1e10	8	-1E+10	1	-1E+10	1	-1E+10	1	-1E+10	1	-1E+10	1	-1E+10	1
4902554	17	C	07/21/2021	10:07	-136.357	49.624	0	807.90	0	3.4610	0	34.2840	0	27.276	0	799.444	0	-1e10	8	-1e10	8	-1E+10	1	-1E+10	1	-1E+10	1	-1E+10	1	-1E+10	1	-1E+10	1
4902554	17	C	07/21/2021	10:07	-136.357	49.624	0	812.90	0	3.4470	0	34.2870	0	27.280	0	804.382	0	-1e10	8	-1e10	8	-1E+10	1	-1E+10	1	-1E+10	1	-1E+10	1	-1E+10	1	-1E+10	1
4902554	17	C	07/21/2021	10:07	-136.357	49.624	0	818.00	0	3.4370	0	34.2890	0	27.282	0	809.419	0	-1e10	8	-1e10	8	-1E+10	1	-1E+10	1	-1E+10	1	-1E+10	1	-1E+10	1	-1E+10	1
4902554	17	C	07/21/2021	10:07	-136.357	49.624	0	823.00	0	3.4220	0	34.2920	0	27.286	0	814.357	0	-1e10	8	-1e10	8	-1E+10	1	-1E+10	1	-1E+10	1	-1E+10	1	-1E+10	1	-1E+10	1
4902554	17	C	07/21/2021	10:07	-136.357	49.624	0	828.00	0	3.4040	0	34.2960	0	27.291	0	819.294	0	-1e10	8	-1e10	8	-1E+10	1	-1E+10	1	-1E+10	1	-1E+10	1	-1E+10	1	-1E+10	1
4902554	17	C	07/21/2021	10:07	-136.357	49.624	0	833.00	0	3.3880	0	34.2990	0	27.295	0	824.232	0	-1e10	8	-1e10	8	-1E+10	1	-1E+10	1	-1E+10	1	-1E+10	1	-1E+10	1	-1E+10	1
4902554	17	C	07/21/2021	10:07	-136.357	49.624	0	838.10	0	3.3750	0	34.3010	0	27.298	0	829.268	0	-1e10	8	-1e10	8	-1E+10	1	-1E+10	1	-1E+10	1	-1E+10	1	-1E+10	1	-1E+10	1
4902554	17	C	07/21/2021	10:07	-136.357	49.624	0	843.20	0	3.3590	0	34.3050	0	27.302	0	834.304	0	-1e10	8	-1e10	8	-1E+10	1	-1E+10	1	-1E+10	1	-1E+10	1	-1E+10	1	-1E+10	1
4902554	17	C	07/21/2021	10:07	-136.357	49.624	0	847.90	0	3.3480	0	34.3070	0	27.305	0	838.945	0	-1e10	8	-1e10	8	-1E+10	1	-1E+10	1	-1E+10	1	-1E+10	1	-1E+10	1	-1E+10	1
4902554	17	C	07/21/2021	10:07	-136.357	49.624	0	852.50	0	3.3320	0	34.3100	0	27.309	0	843.487	0	-1e10	8	-1e10	8	-1E+10	1	-1E+10	1	-1E+10	1	-1E+10	1	-1E+10	1	-1E+10	1
4902554	17	C	07/21/2021	10:07	-136.357	49.624	0	858.00	0	3.3150	0	34.3130	0	27.313	0	848.918	0	-1e10	8	-1e10	8	-1E+10	1	-1E+10	1	-1E+10	1	-1E+10	1	-1E+10	1	-1E+10	1
4902554	17	C	07/21/2021	10:07	-136.357	49.624	0	863.00	0	3.3050	0	34.3160	0	27.316	0	853.855	0	-1e10	8	-1e10	8	-1E+10	1	-1E+10	1	-1E+10	1	-1E+10	1	-1E+10	1	-1E+10	1
4902554	17	C	07/21/2021	10:07	-136.357	49.624	0	867.90	0	3.2930	0	34.3180	0	27.319	0	858.693	0	-1e10	8	-1e10	8	-1E+10	1	-1E+10	1	-1E+10	1	-1E+10	1	-1E+10	1	-1E+10	1
4902554	17	C	07/21/2021	10:07	-136.357	49.624	0	872.90	0	3.2860	0	34.3190	0	27.321	0	863.629	0	-1e10	8	-1e10	8	-1E+10	1	-1E+10	1	-1E+10	1	-1E+10	1	-1E+10	1	-1E+10	1
4902554	17	C	07/21/2021	10:07	-136.357	49.624	0	877.90	0	3.2800	0	34.3210	0	27.323	0	868.566	0	-1e10	8	-1e10	8	-1E+10	1	-1E+10	1	-1E+10	1	-1E+10	1	-1E+10	1	-1E+10	1
4902554	17	C	07/21/2021	10:07	-136.357	49.624	0	882.90	0	3.2670	0	34.3230	0	27.326	0	873.502	0	-1e10	8	-1e10	8	-1E+10	1	-1E+10	1	-1E+10	1	-1E+10	1	-1E+10	1	-1E+10	1
4902554	17	C	07/21/2021	10:07	-136.357	49.624	0	888.00	0	3.2540	0	34.3260	0	27.329	0	878.537	0	-1e10	8	-1e10	8	-1E+10	1	-1E+10	1	-1E+10	1	-1E+10	1	-1E+10	1	-1E+10	1
4902554	17	C	07/21/2021	10:07	-136.357	49.624	0	893.10	0	3.2440	0	34.3280	0	27.332	0	883.572	0	-1e10	8	-1e10	8	-1E+10	1	-1E+10	1	-1E+10	1	-1E+10	1	-1E+10	1	-1E+10	1
4902554	17	C	07/21/2021	10:07	-136.357	49.624	0	897.90	0	3.2400	0	34.3290	0	27.333	0	888.311	0	-1e10	8	-1e10	8	-1E+10	1	-1E+10	1	-1E+10	1	-1E+10	1	-1E+10	1	-1E+10	1
4902554	17	C	07/21/2021	10:07	-136.357	49.624	0	902.80	0	3.2310	0	34.3300	0	27.335	0	893.148	0	-1e10	8	-1e10	8	-1E+10	1	-1E+10	1	-1E+10	1	-1E+10	1	-1E+10	1	-1E+10	1
4902554	17	C	07/21/2021	10:07	-136.357	49.624	0	908.10	0	3.2220	0	34.3320	0	27.337	0	898.380	0	-1e10	8	-1e10	8	-1E+10	1	-1E+10	1	-1E+10	1	-1E+10	1	-1E+10	1	-1E+10	1
4902554	17	C	07/21/2021	10:07	-136.357	49.624	0	913.10	0	3.2140	0	34.3340	0	27.340	0	903.316	0	-1e10	8	-1e10	8	-1E+10	1	-1E+10	1	-1E+10	1	-1E+10	1	-1E+10	1	-1E+10	1
4902554	17	C	07/21/2021	10:07	-136.357	49.624	0	918.10	0	3.1990	0	34.3370	0	27.343	0	908.251	0	-1e10	8	-1e10	8	-1E+10	1	-1E+10	1	-1E+10	1	-1E+10	1	-1E+10	1	-1E+10	1
4902554	17	C	07/21/2021	10:07	-136.357	49.624	0	923.10	0	3.1930	0	34.3380	0	27.345	0	913.187	0	-1e10	8	-1e10	8	-1E+10	1	-1E+10	1	-1E+10	1	-1E+10	1	-1E+10	1	-1E+10	1
4902554	17	C	07/21/2021	10:07	-136.357	49.624	0	927.80	0	3.1870	0	34.3390	0	27.346	0	917.826	0	-1e10	8	-1e10	8	-1E+10	1	-1E+10	1	-1E+10	1	-1E+10	1	-1E+10	1	-1E+10	1
4902554	17	C	07/21/2021	10:07	-136.357	49.624	0	932.90	0	3.1760	0	34.3410	0	27.349	0	922.860	0	-1e10	8	-1e10	8	-1E+10	1	-1E+10	1	-1E+10	1	-1E+10	1	-1E+10	1	-1E+10	1
4902554	17	C	07/21/2021	10:07	-136.357	49.624	0	938.00	0	3.1640	0	34.3430	0	27.352	0	927.894	0	-1e10	8	-1e10	8	-1E+10	1	-1E+10	1	-1E+10	1	-1E+10	1	-1E+10	1	-1E+10	1
4902554	17	C	07/21/2021	10:07	-136.357	49.624	0	942.80	0	3.1580	0	34.3450	0	27.354	0	932.631	0	-1e10	8	-1e10	8	-1E+10	1	-1E+10	1	-1E+10	1	-1E+10	1	-1E+10	1	-1E+10	1
4902554	17	C	07/21/2021	10:07	-136.357	49.624	0	947.70	0	3.1520	0	34.3450	0	27.354	0	937.468	0	-1e10	8	-1e10	8	-1E+10	1	-1E+10	1	-1E+10	1	-1E+10	1	-1E+10	1	-1E+10	1
4902554	17	C	07/21/2021	10:07	-136.357	49.624	0	952.60	0	3.1480	0	34.3470	0	27.356	0	942.304	0	-1e10	8	-1e10	8	-1E+10	1	-1E+10	1	-1E+10	1	-1E+10	1	-1E+10	1	-1E+10	1
4902554	17	C	07/21/2021	10:07	-136.357	49.624	0	957.60	0	3.1410	0	34.3480	0	27.358	0	947.238	0	-1e10	8	-1e10	8	-1E+10	1	-1E+10	1	-1E+10	1	-1E+10	1	-1E+10	1	-1E+10	1
4902554	17	C	07/21/2021	10:07	-136.357	49.624	0	962.60	0	3.1370	0	34.3480	0	27.358	0	952.173	0	-1e10	8	-1e10	8	-1E+10	1	-1E+10	1	-1E+10	1	-1E+10	1	-1E+10	1	-1E+10	1
4902554	17	C	07/21/2021	10:07	-136.357	49.624	0	967.60	0	3.1330	0	34.3490	0	27.359	0	957.107	0	-1e10	8	-1e10	8	-1E+10	1	-1E+10	1	-1E+10	1	-1E+10	1	-1E+10	1	-1E+10	1
4902554	17	C	07/21/2021	10:07	-136.357	49.624	0	972.60	0	3.1240	0	34.3510	0	27.362	0	962.041	0	-1e10	8	-1e10	8	-1E+10	1	-1E+10	1	-1E+10	1	-1E+10	1	-1E+10	1	-1E+10	1
4902554	17	C	07/21/2021	10:07	-136.357	49.624	0	977.60	0	3.1120	0	34.3530	0	27.365	0	966.976	0	-1e10	8	-1e10	8	-1E+10	1	-1E+10	1	-1E+10	1	-1E+10	1	-1E+10	1	-1E+10	1
4902554	17	C	07/21/2021	10:07	-136.357	49.624	0	982.60	0	3.1060	0	34.3540	0	27.366	0	971.910	0	-1e10	8	-1e10	8	-1E+10	1	-1E+10	1	-1E+10	1	-1E+10	1	-1E+10	1	-1E+10	1
4902554	17	C	07/21/2021	10:07	-136.357	49.624	0	987.60	0	3.0960	0	34.3560	0	27.368	0	976.844	0	-1e10	8	-1e10	8	-1E+10	1	-1E+10	1	-1E+10	1	-1E+10	1	-1E+10	1	-1E+10	1
4902554	17	C	07/21/2021	10:07	-136.357	49.624	0	992.70	0	3.0840	0	34.3580	0	27.371	0	981.876	0	-1e10	8	-1e10	8	-1E+10	1	-1E+10	1	-1E+10	1	-1E+10	1	-1E+10	1	-1E+10	1
4902554	17	C	07/21/2021	10:07	-136.357	49.624	0	997.80	0	3.0760	0	34.3590	0	27.373	0	986.909	0	-1e10	8	-1e10	8	-1E+10	1	-1E+10	1	-1E+10	1	-1E+10	1	-1E+10	1	-1E+10	1
4902554	17	C	07/21/2021	10:07	-136.357	49.624	0	1005.50	0	3.0650	0	34.3610	0	27.375	0	994.506	0	-1e10	8	-1e10	8	-1E+10	1	-1E+10	1	-1E+10	1	-1E+10	1	-1E+10	1	-1E+10	1
4902554	17	C	07/21/2021	10:07	-136.357	49.624	0	1015.70	0	3.0520	0	34.3630	0	27.378	0	1004.570	0	-1e10	8	-1e10	8	-1E+10	1	-1E+10	1	-1E+10	1	-1E+10	1	-1E+10	1	-1E+10	1
4902554	17	C	07/21/2021	10:07	-136.357	49.624	0	1025.20	0	3.0370	0	34.3670	0	27.383	0	1013.943	0	-1e10	8	-1e10	8	-1E+10	1	-1E+10	1	-1E+10	1	-1E+10	1	-1E+10	1	-1E+10	1
4902554	17	C	07/21/2021	10:07	-136.357	49.624	0	1035.10	0	3.0210	0	34.3690	0	27.386	0	1023.710	0	-1e10	8	-1e10	8	-1E+10	1	-1E+10	1	-1E+10	1	-1E+10	1	-1E+10	1	-1E+10	1
4902554	17	C	07/21/2021	10:07	-136.357	49.624	0	1045.30	0	3.0090	0	34.3710	0	27.389	0	1033.773	0	-1e10	8	-1e10	8	-1E+10	1	-1E+10	1	-1E+10	1	-1E+10	1	-1E+10	1	-1E+10	1
4902554	17	C	07/21/2021	10:07	-136.357	49.624	0	1055.60	0	2.9880	0	34.3750	0	27.394	0	1043.934	0	-1e10	8	-1e10	8	-1E+10	1	-1E+10	1	-1E+10	1	-1E+10	1	-1E+10	1	-1E+10	1
4902554	17	C	07/21/2021	10:07	-136.357	49.624	0	1065.60	0	2.9690	0	34.3790	0	27.399	0	1053.798	0	-1e10	8	-1e10	8	-1E+10	1	-1E+10	1	-1E+10	1	-1E+10	1	-1E+10	1	-1E+10	1
4902554	17	C	07/21/2021	10:07	-136.357	49.624	0	1075.70	0	2.9520	0	34.3820	0	27.403	0	1063.761	0	-1e10	8	-1e10	8	-1E+10	1	-1E+10	1	-1E+10	1	-1E+10	1	-1E+10	1	-1E+10	1
4902554	17	C	07/21/2021	10:07	-136.357	49.624	0	1085.50	0	2.9360	0	34.3850	0	27.407	0	1073.427	0	-1e10	8	-1e10	8	-1E+10	1	-1E+10	1	-1E+10	1	-1E+10	1	-1E+10	1	-1E+10	1
4902554	17	C	07/21/2021	10:07	-136.357	49.624	0	1095.40	0	2.9150	0	34.3900	0	27.413	0	1083.191	0	-1e10	8	-1e10	8	-1E+10	1	-1E+10	1	-1E+10	1	-1E+10	1	-1E+10	1	-1E+10	1
4902554	17	C	07/21/2021	10:07	-136.357	49.624	0	1105.30	0	2.9040	0	34.3920	0	27.415	0	1092.955	0	-1e10	8	-1e10	8	-1E+10	1	-1E+10	1	-1E+10	1	-1E+10	1	-1E+10	1	-1E+10	1
4902554	17	C	07/21/2021	10:07	-136.357	49.624	0	1115.20	0	2.8930	0	34.3940	0	27.418	0	1102.719	0	-1e10	8	-1e10	8	-1E+10	1	-1E+10	1	-1E+10	1	-1E+10	1	-1E+10	1	-1E+10	1
4902554	17	C	07/21/2021	10:07	-136.357	49.624	0	1125.50	0	2.8720	0	34.3980	0	27.423	0	1112.876	0	-1e10	8	-1e10	8	-1E+10	1	-1E+10	1	-1E+10	1	-1E+10	1	-1E+10	1	-1E+10	1
4902554	17	C	07/21/2021	10:07	-136.357	49.624	0	1135.50	0	2.8530	0	34.4020	0	27.428	0	1122.737	0	-1e10	8	-1e10	8	-1E+10	1	-1E+10	1	-1E+10	1	-1E+10	1	-1E+10	1	-1E+10	1
4902554	17	C	07/21/2021	10:07	-136.357	49.624	0	1145.50	0	2.8370	0	34.4050	0	27.432	0	1132.598	0	-1e10	8	-1e10	8	-1E+10	1	-1E+10	1	-1E+10	1	-1E+10	1	-1E+10	1	-1E+10	1
4902554	17	C	07/21/2021	10:07	-136.357	49.624	0	1155.40	0	2.8250	0	34.4070	0	27.434	0	1142.360	0	-1e10	8	-1e10	8	-1E+10	1	-1E+10	1	-1E+10	1	-1E+10	1	-1E+10	1	-1E+10	1
4902554	17	C	07/21/2021	10:07	-136.357	49.624	0	1165.40	0	2.8120	0	34.4100	0	27.438	0	1152.219	0	-1e10	8	-1e10	8	-1E+10	1	-1E+10	1	-1E+10	1	-1E+10	1	-1E+10	1	-1E+10	1
4902554	17	C	07/21/2021	10:07	-136.357	49.624	0	1175.50	0	2.7970	0	34.4120	0	27.441	0	1162.177	0	-1e10	8	-1e10	8	-1E+10	1	-1E+10	1	-1E+10	1	-1E+10	1	-1E+10	1	-1E+10	1
4902554	17	C	07/21/2021	10:07	-136.357	49.624	0	1185.20	0	2.7770	0	34.4160	0	27.446	0	1171.740	0	-1e10	8	-1e10	8	-1E+10	1	-1E+10	1	-1E+10	1	-1E+10	1	-1E+10	1	-1E+10	1
4902554	17	C	07/21/2021	10:07	-136.357	49.624	0	1195.40	0	2.7630	0	34.4190	0	27.450	0	1181.796	0	-1e10	8	-1e10	8	-1E+10	1	-1E+10	1	-1E+10	1	-1E+10	1	-1E+10	1	-1E+10	1
4902554	17	C	07/21/2021	10:07	-136.357	49.624	0	1205.80	0	2.7480	0	34.4220	0	27.453	0	1192.048	0	-1e10	8	-1e10	8	-1E+10	1	-1E+10	1	-1E+10	1	-1E+10	1	-1E+10	1	-1E+10	1
4902554	17	C	07/21/2021	10:07	-136.357	49.624	0	1215.60	0	2.7320	0	34.4250	0	27.457	0	1201.708	0	-1e10	8	-1e10	8	-1E+10	1	-1E+10	1	-1E+10	1	-1E+10	1	-1E+10	1	-1E+10	1
4902554	17	C	07/21/2021	10:07	-136.357	49.624	0	1225.70	0	2.7110	0	34.4290	0	27.462	0	1211.664	0	-1e10	8	-1e10	8	-1E+10	1	-1E+10	1	-1E+10	1	-1E+10	1	-1E+10	1	-1E+10	1
4902554	17	C	07/21/2021	10:07	-136.357	49.624	0	1235.40	0	2.6960	0	34.4330	0	27.467	0	1221.224	0	-1e10	8	-1e10	8	-1E+10	1	-1E+10	1	-1E+10	1	-1E+10	1	-1E+10	1	-1E+10	1
4902554	17	C	07/21/2021	10:07	-136.357	49.624	0	1245.30	0	2.6820	0	34.4350	0	27.470	0	1230.982	0	-1e10	8	-1e10	8	-1E+10	1	-1E+10	1	-1E+10	1	-1E+10	1	-1E+10	1	-1E+10	1
4902554	17	C	07/21/2021	10:07	-136.357	49.624	0	1255.30	0	2.6690	0	34.4380	0	27.473	0	1240.837	0	-1e10	8	-1e10	8	-1E+10	1	-1E+10	1	-1E+10	1	-1E+10	1	-1E+10	1	-1E+10	1
4902554	17	C	07/21/2021	10:07	-136.357	49.624	0	1265.40	0	2.6580	0	34.4400	0	27.476	0	1250.791	0	-1e10	8	-1e10	8	-1E+10	1	-1E+10	1	-1E+10	1	-1E+10	1	-1E+10	1	-1E+10	1
4902554	17	C	07/21/2021	10:07	-136.357	49.624	0	1275.60	0	2.6450	0	34.4430	0	27.479	0	1260.843	0	-1e10	8	-1e10	8	-1E+10	1	-1E+10	1	-1E+10	1	-1E+10	1	-1E+10	1	-1E+10	1
4902554	17	C	07/21/2021	10:07	-136.357	49.624	0	1285.80	0	2.6290	0	34.4460	0	27.483	0	1270.894	0	-1e10	8	-1e10	8	-1E+10	1	-1E+10	1	-1E+10	1	-1E+10	1	-1E+10	1	-1E+10	1
4902554	17	C	07/21/2021	10:07	-136.357	49.624	0	1295.50	0	2.6130	0	34.4490	0	27.487	0	1280.452	0	-1e10	8	-1e10	8	-1E+10	1	-1E+10	1	-1E+10	1	-1E+10	1	-1E+10	1	-1E+10	1
4902554	17	C	07/21/2021	10:07	-136.357	49.624	0	1305.40	0	2.6030	0	34.4510	0	27.490	0	1290.207	0	-1e10	8	-1e10	8	-1E+10	1	-1E+10	1	-1E+10	1	-1E+10	1	-1E+10	1	-1E+10	1
4902554	17	C	07/21/2021	10:07	-136.357	49.624	0	1315.40	0	2.5920	0	34.4530	0	27.492	0	1300.060	0	-1e10	8	-1e10	8	-1E+10	1	-1E+10	1	-1E+10	1	-1E+10	1	-1E+10	1	-1E+10	1
4902554	17	C	07/21/2021	10:07	-136.357	49.624	0	1325.30	0	2.5810	0	34.4560	0	27.496	0	1309.813	0	-1e10	8	-1e10	8	-1E+10	1	-1E+10	1	-1E+10	1	-1E+10	1	-1E+10	1	-1E+10	1
4902554	17	C	07/21/2021	10:07	-136.357	49.624	0	1335.10	0	2.5690	0	34.4580	0	27.498	0	1319.468	0	-1e10	8	-1e10	8	-1E+10	1	-1E+10	1	-1E+10	1	-1E+10	1	-1E+10	1	-1E+10	1
4902554	17	C	07/21/2021	10:07	-136.357	49.624	0	1345.20	0	2.5570	0	34.4600	0	27.501	0	1329.418	0	-1e10	8	-1e10	8	-1E+10	1	-1E+10	1	-1E+10	1	-1E+10	1	-1E+10	1	-1E+10	1
4902554	17	C	07/21/2021	10:07	-136.357	49.624	0	1355.50	0	2.5440	0	34.4630	0	27.505	0	1339.564	0	-1e10	8	-1e10	8	-1E+10	1	-1E+10	1	-1E+10	1	-1E+10	1	-1E+10	1	-1E+10	1
4902554	17	C	07/21/2021	10:07	-136.357	49.624	0	1365.50	0	2.5300	0	34.4650	0	27.507	0	1349.415	0	-1e10	8	-1e10	8	-1E+10	1	-1E+10	1	-1E+10	1	-1E+10	1	-1E+10	1	-1E+10	1
4902554	17	C	07/21/2021	10:07	-136.357	49.624	0	1375.50	0	2.5220	0	34.4670	0	27.510	0	1359.265	0	-1e10	8	-1e10	8	-1E+10	1	-1E+10	1	-1E+10	1	-1E+10	1	-1E+10	1	-1E+10	1
4902554	17	C	07/21/2021	10:07	-136.357	49.624	0	1385.50	0	2.5130	0	34.4690	0	27.512	0	1369.114	0	-1e10	8	-1e10	8	-1E+10	1	-1E+10	1	-1E+10	1	-1E+10	1	-1E+10	1	-1E+10	1
4902554	17	C	07/21/2021	10:07	-136.357	49.624	0	1395.20	0	2.5060	0	34.4700	0	27.514	0	1378.668	0	-1e10	8	-1e10	8	-1E+10	1	-1E+10	1	-1E+10	1	-1E+10	1	-1E+10	1	-1E+10	1
4902554	17	C	07/21/2021	10:07	-136.357	49.624	0	1405.30	0	2.4880	0	34.4740	0	27.518	0	1388.615	0	-1e10	8	-1e10	8	-1E+10	1	-1E+10	1	-1E+10	1	-1E+10	1	-1E+10	1	-1E+10	1
4902554	17	C	07/21/2021	10:07	-136.357	49.624	0	1415.50	0	2.4740	0	34.4760	0	27.521	0	1398.660	0	-1e10	8	-1e10	8	-1E+10	1	-1E+10	1	-1E+10	1	-1E+10	1	-1E+10	1	-1E+10	1
4902554	17	C	07/21/2021	10:07	-136.357	49.624	0	1425.40	0	2.4620	0	34.4790	0	27.525	0	1408.410	0	-1e10	8	-1e10	8	-1E+10	1	-1E+10	1	-1E+10	1	-1E+10	1	-1E+10	1	-1E+10	1
4902554	17	C	07/21/2021	10:07	-136.357	49.624	0	1435.40	0	2.4480	0	34.4820	0	27.528	0	1418.257	0	-1e10	8	-1e10	8	-1E+10	1	-1E+10	1	-1E+10	1	-1E+10	1	-1E+10	1	-1E+10	1
4902554	17	C	07/21/2021	10:07	-136.357	49.624	0	1445.40	0	2.4370	0	34.4840	0	27.531	0	1428.104	0	-1e10	8	-1e10	8	-1E+10	1	-1E+10	1	-1E+10	1	-1E+10	1	-1E+10	1	-1E+10	1
4902554	17	C	07/21/2021	10:07	-136.357	49.624	0	1455.60	0	2.4300	0	34.4860	0	27.533	0	1438.147	0	-1e10	8	-1e10	8	-1E+10	1	-1E+10	1	-1E+10	1	-1E+10	1	-1E+10	1	-1E+10	1
4902554	17	C	07/21/2021	10:07	-136.357	49.624	0	1465.30	0	2.4200	0	34.4880	0	27.536	0	1447.697	0	-1e10	8	-1e10	8	-1E+10	1	-1E+10	1	-1E+10	1	-1E+10	1	-1E+10	1	-1E+10	1
4902554	17	C	07/21/2021	10:07	-136.357	49.624	0	1475.00	0	2.4080	0	34.4900	0	27.538	0	1457.247	0	-1e10	8	-1e10	8	-1E+10	1	-1E+10	1	-1E+10	1	-1E+10	1	-1E+10	1	-1E+10	1
4902554	17	C	07/21/2021	10:07	-136.357	49.624	0	1485.30	0	2.3970	0	34.4930	0	27.542	0	1467.388	0	-1e10	8	-1e10	8	-1E+10	1	-1E+10	1	-1E+10	1	-1E+10	1	-1E+10	1	-1E+10	1
4902554	17	C	07/21/2021	10:07	-136.357	49.624	0	1495.50	0	2.3880	0	34.4950	0	27.544	0	1477.429	0	-1e10	8	-1e10	8	-1E+10	1	-1E+10	1	-1E+10	1	-1E+10	1	-1E+10	1	-1E+10	1
4902554	17	C	07/21/2021	10:07	-136.357	49.624	0	1505.30	0	2.3670	0	34.4990	0	27.549	0	1487.076	0	-1e10	8	-1e10	8	-1E+10	1	-1E+10	1	-1E+10	1	-1E+10	1	-1E+10	1	-1E+10	1
4902554	17	C	07/21/2021	10:07	-136.357	49.624	0	1515.40	0	2.3570	0	34.5010	0	27.551	0	1497.018	0	-1e10	8	-1e10	8	-1E+10	1	-1E+10	1	-1E+10	1	-1E+10	1	-1E+10	1	-1E+10	1
4902554	17	C	07/21/2021	10:07	-136.357	49.624	0	1525.30	0	2.3440	0	34.5040	0	27.555	0	1506.763	0	-1e10	8	-1e10	8	-1E+10	1	-1E+10	1	-1E+10	1	-1E+10	1	-1E+10	1	-1E+10	1
4902554	17	C	07/21/2021	10:07	-136.357	49.624	0	1535.30	0	2.3340	0	34.5050	0	27.557	0	1516.605	0	-1e10	8	-1e10	8	-1E+10	1	-1E+10	1	-1E+10	1	-1E+10	1	-1E+10	1	-1E+10	1
4902554	17	C	07/21/2021	10:07	-136.357	49.624	0	1545.20	0	2.3210	0	34.5080	0	27.560	0	1526.349	0	-1e10	8	-1e10	8	-1E+10	1	-1E+10	1	-1E+10	1	-1E+10	1	-1E+10	1	-1E+10	1
4902554	17	C	07/21/2021	10:07	-136.357	49.624	0	1555.30	0	2.3130	0	34.5100	0	27.562	0	1536.289	0	-1e10	8	-1e10	8	-1E+10	1	-1E+10	1	-1E+10	1	-1E+10	1	-1E+10	1	-1E+10	1
4902554	17	C	07/21/2021	10:07	-136.357	49.624	0	1565.60	0	2.3040	0	34.5120	0	27.565	0	1546.426	0	-1e10	8	-1e10	8	-1E+10	1	-1E+10	1	-1E+10	1	-1E+10	1	-1E+10	1	-1E+10	1
4902554	17	C	07/21/2021	10:07	-136.357	49.624	0	1575.60	0	2.2950	0	34.5130	0	27.566	0	1556.266	0	-1e10	8	-1e10	8	-1E+10	1	-1E+10	1	-1E+10	1	-1E+10	1	-1E+10	1	-1E+10	1
4902554	17	C	07/21/2021	10:07	-136.357	49.624	0	1585.30	0	2.2840	0	34.5150	0	27.569	0	1565.812	0	-1e10	8	-1e10	8	-1E+10	1	-1E+10	1	-1E+10	1	-1E+10	1	-1E+10	1	-1E+10	1
4902554	17	C	07/21/2021	10:07	-136.357	49.624	0	1595.40	0	2.2750	0	34.5170	0	27.571	0	1575.750	0	-1e10	8	-1e10	8	-1E+10	1	-1E+10	1	-1E+10	1	-1E+10	1	-1E+10	1	-1E+10	1
4902554	17	C	07/21/2021	10:07	-136.357	49.624	0	1605.40	0	2.2610	0	34.5200	0	27.575	0	1585.589	0	-1e10	8	-1e10	8	-1E+10	1	-1E+10	1	-1E+10	1	-1E+10	1	-1E+10	1	-1E+10	1
4902554	17	C	07/21/2021	10:07	-136.357	49.624	0	1615.10	0	2.2510	0	34.5220	0	27.577	0	1595.133	0	-1e10	8	-1e10	8	-1E+10	1	-1E+10	1	-1E+10	1	-1E+10	1	-1E+10	1	-1E+10	1
4902554	17	C	07/21/2021	10:07	-136.357	49.624	0	1625.40	0	2.2370	0	34.5240	0	27.580	0	1605.267	0	-1e10	8	-1e10	8	-1E+10	1	-1E+10	1	-1E+10	1	-1E+10	1	-1E+10	1	-1E+10	1
4902554	17	C	07/21/2021	10:07	-136.357	49.624	0	1635.60	0	2.2270	0	34.5270	0	27.583	0	1615.301	0	-1e10	8	-1e10	8	-1E+10	1	-1E+10	1	-1E+10	1	-1E+10	1	-1E+10	1	-1E+10	1
4902554	17	C	07/21/2021	10:07	-136.357	49.624	0	1645.50	0	2.2200	0	34.5280	0	27.585	0	1625.041	0	-1e10	8	-1e10	8	-1E+10	1	-1E+10	1	-1E+10	1	-1E+10	1	-1E+10	1	-1E+10	1
4902554	17	C	07/21/2021	10:07	-136.357	49.624	0	1655.60	0	2.2130	0	34.5290	0	27.586	0	1634.976	0	-1e10	8	-1e10	8	-1E+10	1	-1E+10	1	-1E+10	1	-1E+10	1	-1E+10	1	-1E+10	1
4902554	17	C	07/21/2021	10:07	-136.357	49.624	0	1665.80	0	2.2050	0	34.5310	0	27.589	0	1645.009	0	-1e10	8	-1e10	8	-1E+10	1	-1E+10	1	-1E+10	1	-1E+10	1	-1E+10	1	-1E+10	1
4902554	17	C	07/21/2021	10:07	-136.357	49.624	0	1675.20	0	2.1950	0	34.5330	0	27.591	0	1654.255	0	-1e10	8	-1e10	8	-1E+10	1	-1E+10	1	-1E+10	1	-1E+10	1	-1E+10	1	-1E+10	1
4902554	17	C	07/21/2021	10:07	-136.357	49.624	0	1685.30	0	2.1800	0	34.5360	0	27.595	0	1664.190	0	-1e10	8	-1e10	8	-1E+10	1	-1E+10	1	-1E+10	1	-1E+10	1	-1E+10	1	-1E+10	1
4902554	17	C	07/21/2021	10:07	-136.357	49.624	0	1695.20	0	2.1690	0	34.5380	0	27.597	0	1673.926	0	-1e10	8	-1e10	8	-1E+10	1	-1E+10	1	-1E+10	1	-1E+10	1	-1E+10	1	-1E+10	1
4902554	17	C	07/21/2021	10:07	-136.357	49.624	0	1705.30	0	2.1610	0	34.5400	0	27.599	0	1683.860	0	-1e10	8	-1e10	8	-1E+10	1	-1E+10	1	-1E+10	1	-1E+10	1	-1E+10	1	-1E+10	1
4902554	17	C	07/21/2021	10:07	-136.357	49.624	0	1715.70	0	2.1560	0	34.5410	0	27.601	0	1694.087	0	-1e10	8	-1e10	8	-1E+10	1	-1E+10	1	-1E+10	1	-1E+10	1	-1E+10	1	-1E+10	1
4902554	17	C	07/21/2021	10:07	-136.357	49.624	0	1725.50	0	2.1520	0	34.5420	0	27.602	0	1703.725	0	-1e10	8	-1e10	8	-1E+10	1	-1E+10	1	-1E+10	1	-1E+10	1	-1E+10	1	-1E+10	1
4902554	17	C	07/21/2021	10:07	-136.357	49.624	0	1735.50	0	2.1460	0	34.5430	0	27.603	0	1713.558	0	-1e10	8	-1e10	8	-1E+10	1	-1E+10	1	-1E+10	1	-1E+10	1	-1E+10	1	-1E+10	1
4902554	17	C	07/21/2021	10:07	-136.357	49.624	0	1745.60	0	2.1390	0	34.5450	0	27.605	0	1723.489	0	-1e10	8	-1e10	8	-1E+10	1	-1E+10	1	-1E+10	1	-1E+10	1	-1E+10	1	-1E+10	1
4902554	17	C	07/21/2021	10:07	-136.357	49.624	0	1755.20	0	2.1280	0	34.5470	0	27.608	0	1732.929	0	-1e10	8	-1e10	8	-1E+10	1	-1E+10	1	-1E+10	1	-1E+10	1	-1E+10	1	-1E+10	1
4902554	17	C	07/21/2021	10:07	-136.357	49.624	0	1765.10	0	2.1210	0	34.5490	0	27.610	0	1742.662	0	-1e10	8	-1e10	8	-1E+10	1	-1E+10	1	-1E+10	1	-1E+10	1	-1E+10	1	-1E+10	1
4902554	17	C	07/21/2021	10:07	-136.357	49.624	0	1775.00	0	2.1110	0	34.5500	0	27.612	0	1752.396	0	-1e10	8	-1e10	8	-1E+10	1	-1E+10	1	-1E+10	1	-1E+10	1	-1E+10	1	-1E+10	1
4902554	17	C	07/21/2021	10:07	-136.357	49.624	0	1785.10	0	2.1040	0	34.5520	0	27.614	0	1762.325	0	-1e10	8	-1e10	8	-1E+10	1	-1E+10	1	-1E+10	1	-1E+10	1	-1E+10	1	-1E+10	1
4902554	17	C	07/21/2021	10:07	-136.357	49.624	0	1795.40	0	2.0970	0	34.5530	0	27.615	0	1772.451	0	-1e10	8	-1e10	8	-1E+10	1	-1E+10	1	-1E+10	1	-1E+10	1	-1E+10	1	-1E+10	1
4902554	17	C	07/21/2021	10:07	-136.357	49.624	0	1805.30	0	2.0900	0	34.5550	0	27.618	0	1782.183	0	-1e10	8	-1e10	8	-1E+10	1	-1E+10	1	-1E+10	1	-1E+10	1	-1E+10	1	-1E+10	1
4902554	17	C	07/21/2021	10:07	-136.357	49.624	0	1815.30	0	2.0810	0	34.5560	0	27.619	0	1792.013	0	-1e10	8	-1e10	8	-1E+10	1	-1E+10	1	-1E+10	1	-1E+10	1	-1E+10	1	-1E+10	1
4902554	17	C	07/21/2021	10:07	-136.357	49.624	0	1825.80	0	2.0730	0	34.5580	0	27.622	0	1802.333	0	-1e10	8	-1e10	8	-1E+10	1	-1E+10	1	-1E+10	1	-1E+10	1	-1E+10	1	-1E+10	1
4902554	17	C	07/21/2021	10:07	-136.357	49.624	0	1835.30	0	2.0680	0	34.5590	0	27.623	0	1811.671	0	-1e10	8	-1e10	8	-1E+10	1	-1E+10	1	-1E+10	1	-1E+10	1	-1E+10	1	-1E+10	1
4902554	17	C	07/21/2021	10:07	-136.357	49.624	0	1845.50	0	2.0640	0	34.5600	0	27.624	0	1821.696	0	-1e10	8	-1e10	8	-1E+10	1	-1E+10	1	-1E+10	1	-1E+10	1	-1E+10	1	-1E+10	1
4902554	17	C	07/21/2021	10:07	-136.357	49.624	0	1855.80	0	2.0590	0	34.5610	0	27.625	0	1831.819	0	-1e10	8	-1e10	8	-1E+10	1	-1E+10	1	-1E+10	1	-1E+10	1	-1E+10	1	-1E+10	1
4902554	17	C	07/21/2021	10:07	-136.357	49.624	0	1865.80	0	2.0470	0	34.5640	0	27.629	0	1841.646	0	-1e10	8	-1e10	8	-1E+10	1	-1E+10	1	-1E+10	1	-1E+10	1	-1E+10	1	-1E+10	1
4902554	17	C	07/21/2021	10:07	-136.357	49.624	0	1875.40	0	2.0400	0	34.5650	0	27.630	0	1851.080	0	-1e10	8	-1e10	8	-1E+10	1	-1E+10	1	-1E+10	1	-1E+10	1	-1E+10	1	-1E+10	1
4902554	17	C	07/21/2021	10:07	-136.357	49.624	0	1885.20	0	2.0300	0	34.5670	0	27.632	0	1860.710	0	-1e10	8	-1e10	8	-1E+10	1	-1E+10	1	-1E+10	1	-1E+10	1	-1E+10	1	-1E+10	1
4902554	17	C	07/21/2021	10:07	-136.357	49.624	0	1895.50	0	2.0230	0	34.5680	0	27.634	0	1870.831	0	-1e10	8	-1e10	8	-1E+10	1	-1E+10	1	-1E+10	1	-1E+10	1	-1E+10	1	-1E+10	1
4902554	17	C	07/21/2021	10:07	-136.357	49.624	0	1905.40	0	2.0140	0	34.5700	0	27.636	0	1880.558	0	-1e10	8	-1e10	8	-1E+10	1	-1E+10	1	-1E+10	1	-1E+10	1	-1E+10	1	-1E+10	1
4902554	17	C	07/21/2021	10:07	-136.357	49.624	0	1915.50	0	2.0070	0	34.5710	0	27.638	0	1890.482	0	-1e10	8	-1e10	8	-1E+10	1	-1E+10	1	-1E+10	1	-1E+10	1	-1E+10	1	-1E+10	1
4902554	17	C	07/21/2021	10:07	-136.357	49.624	0	1925.70	0	1.9980	0	34.5730	0	27.640	0	1900.503	0	-1e10	8	-1e10	8	-1E+10	1	-1E+10	1	-1E+10	1	-1E+10	1	-1E+10	1	-1E+10	1
4902554	17	C	07/21/2021	10:07	-136.357	49.624	0	1935.50	0	1.9940	0	34.5740	0	27.641	0	1910.131	0	-1e10	8	-1e10	8	-1E+10	1	-1E+10	1	-1E+10	1	-1E+10	1	-1E+10	1	-1E+10	1
4902554	17	C	07/21/2021	10:07	-136.357	49.624	0	1945.30	0	1.9850	0	34.5760	0	27.643	0	1919.758	0	-1e10	8	-1e10	8	-1E+10	1	-1E+10	1	-1E+10	1	-1E+10	1	-1E+10	1	-1E+10	1
4902554	17	C	07/21/2021	10:07	-136.357	49.624	0	1955.20	0	1.9760	0	34.5770	0	27.645	0	1929.484	0	-1e10	8	-1e10	8	-1E+10	1	-1E+10	1	-1E+10	1	-1E+10	1	-1E+10	1	-1E+10	1
4902554	17	C	07/21/2021	10:07	-136.357	49.624	0	1965.40	0	1.9670	0	34.5790	0	27.647	0	1939.503	0	-1e10	8	-1e10	8	-1E+10	1	-1E+10	1	-1E+10	1	-1E+10	1	-1E+10	1	-1E+10	1
4902554	17	C	07/21/2021	10:07	-136.357	49.624	0	1975.80	0	1.9580	0	34.5810	0	27.650	0	1949.719	0	-1e10	8	-1e10	8	-1E+10	1	-1E+10	1	-1E+10	1	-1E+10	1	-1E+10	1	-1E+10	1
4902554	17	C	07/21/2021	10:07	-136.357	49.624	0	1985.40	0	1.9540	0	34.5820	0	27.651	0	1959.148	0	-1e10	8	-1e10	8	-1E+10	1	-1E+10	1	-1E+10	1	-1E+10	1	-1E+10	1	-1E+10	1
4902554	17	C	07/21/2021	10:07	-136.357	49.624	0	1995.20	0	1.9470	0	34.5830	0	27.652	0	1968.773	0	-1e10	8	-1e10	8	-1E+10	1	-1E+10	1	-1E+10	1	-1E+10	1	-1E+10	1	-1E+10	1
4902554	17	C	07/21/2021	10:07	-136.357	49.624	0	2005.60	0	1.9380	0	34.5850	0	27.655	0	1978.987	0	-1e10	8	-1e10	8	-1E+10	1	-1E+10	1	-1E+10	1	-1E+10	1	-1E+10	1	-1E+10	1
4902554	17	C	07/21/2021	10:07	-136.357	49.624	0	2011.30	0	1.9340	0	34.5860	0	27.656	0	1984.585	0	-1e10	8	-1e10	8	-1E+10	1	-1E+10	1	-1E+10	1	-1E+10	1	-1E+10	1	-1E+10	1
4902554	17	C	07/21/2021	10:07	-136.357	49.624	0																										
4902554	18	C	07/31/2021	14:57	-136.318	49.611	0	0.20	0	14.7030	0	32.2850	0	23.944	0	0.198	0	-1e10	8	-1e10	8	-1E+10	1	-1E+10	1	-1E+10	1	-1E+10	1	-1E+10	1	-1E+10	1
4902554	18	C	07/31/2021	14:57	-136.318	49.611	0	1.00	0	14.7030	0	32.2830	0	23.942	0	0.991	0	-1e10	8	-1e10	8	-1E+10	1	-1E+10	1	-1E+10	1	-1E+10	1	-1E+10	1	-1E+10	1
4902554	18	C	07/31/2021	14:57	-136.318	49.611	0	2.00	0	14.7040	0	32.2750	0	23.936	0	1.983	0	-1e10	8	-1e10	8	-1E+10	1	-1E+10	1	-1E+10	1	-1E+10	1	-1E+10	1	-1E+10	1
4902554	18	C	07/31/2021	14:57	-136.318	49.611	0	3.00	0	14.7040	0	32.2860	0	23.944	0	2.974	0	-1e10	8	-1e10	8	-1E+10	1	-1E+10	1	-1E+10	1	-1E+10	1	-1E+10	1	-1E+10	1
4902554	18	C	07/31/2021	14:57	-136.318	49.611	0	4.00	0	14.7030	0	32.2870	0	23.945	0	3.966	0	-1e10	8	-1e10	8	-1E+10	1	-1E+10	1	-1E+10	1	-1E+10	1	-1E+10	1	-1E+10	1
4902554	18	C	07/31/2021	14:57	-136.318	49.611	0	5.20	0	14.7040	0	32.2890	0	23.947	0	5.156	0	-1e10	8	-1e10	8	-1E+10	1	-1E+10	1	-1E+10	1	-1E+10	1	-1E+10	1	-1E+10	1
4902554	18	C	07/31/2021	14:57	-136.318	49.611	0	5.90	0	14.7030	0	32.2890	0	23.947	0	5.850	0	-1e10	8	-1e10	8	-1E+10	1	-1E+10	1	-1E+10	1	-1E+10	1	-1E+10	1	-1E+10	1
4902554	18	C	07/31/2021	14:57	-136.318	49.611	0	7.00	0	14.7020	0	32.2900	0	23.948	0	6.940	0	-1e10	8	-1e10	8	-1E+10	1	-1E+10	1	-1E+10	1	-1E+10	1	-1E+10	1	-1E+10	1
4902554	18	C	07/31/2021	14:57	-136.318	49.611	0	8.00	0	14.7030	0	32.2890	0	23.947	0	7.932	0	-1e10	8	-1e10	8	-1E+10	1	-1E+10	1	-1E+10	1	-1E+10	1	-1E+10	1	-1E+10	1
4902554	18	C	07/31/2021	14:57	-136.318	49.611	0	9.00	0	14.7030	0	32.2890	0	23.947	0	8.923	0	-1e10	8	-1e10	8	-1E+10	1	-1E+10	1	-1E+10	1	-1E+10	1	-1E+10	1	-1E+10	1
4902554	18	C	07/31/2021	14:57	-136.318	49.611	0	9.90	0	14.7040	0	32.2890	0	23.947	0	9.815	0	-1e10	8	-1e10	8	-1E+10	1	-1E+10	1	-1E+10	1	-1E+10	1	-1E+10	1	-1E+10	1
4902554	18	C	07/31/2021	14:57	-136.318	49.611	0	10.90	0	14.7020	0	32.2900	0	23.948	0	10.807	0	-1e10	8	-1e10	8	-1E+10	1	-1E+10	1	-1E+10	1	-1E+10	1	-1E+10	1	-1E+10	1
4902554	18	C	07/31/2021	14:57	-136.318	49.611	0	11.90	0	14.6910	0	32.2890	0	23.950	0	11.798	0	-1e10	8	-1e10	8	-1E+10	1	-1E+10	1	-1E+10	1	-1E+10	1	-1E+10	1	-1E+10	1
4902554	18	C	07/31/2021	14:57	-136.318	49.611	0	13.10	0	14.6690	0	32.2870	0	23.953	0	12.988	0	-1e10	8	-1e10	8	-1E+10	1	-1E+10	1	-1E+10	1	-1E+10	1	-1E+10	1	-1E+10	1
4902554	18	C	07/31/2021	14:57	-136.318	49.611	0	14.00	0	14.6340	0	32.2850	0	23.959	0	13.880	0	-1e10	8	-1e10	8	-1E+10	1	-1E+10	1	-1E+10	1	-1E+10	1	-1E+10	1	-1E+10	1
4902554	18	C	07/31/2021	14:57	-136.318	49.611	0	14.90	0	14.5460	0	32.2940	0	23.984	0	14.772	0	-1e10	8	-1e10	8	-1E+10	1	-1E+10	1	-1E+10	1	-1E+10	1	-1E+10	1	-1E+10	1
4902554	18	C	07/31/2021	14:57	-136.318	49.611	0	16.10	0	14.3510	0	32.2930	0	24.024	0	15.962	0	-1e10	8	-1e10	8	-1E+10	1	-1E+10	1	-1E+10	1	-1E+10	1	-1E+10	1	-1E+10	1
4902554	18	C	07/31/2021	14:57	-136.318	49.611	0	16.90	0	14.2210	0	32.2970	0	24.055	0	16.755	0	-1e10	8	-1e10	8	-1E+10	1	-1E+10	1	-1E+10	1	-1E+10	1	-1E+10	1	-1E+10	1
4902554	18	C	07/31/2021	14:57	-136.318	49.611	0	18.10	0	13.9230	0	32.3000	0	24.118	0	17.945	0	-1e10	8	-1e10	8	-1E+10	1	-1E+10	1	-1E+10	1	-1E+10	1	-1E+10	1	-1E+10	1
4902554	18	C	07/31/2021	14:57	-136.318	49.611	0	19.00	0	13.8490	0	32.3100	0	24.141	0	18.837	0	-1e10	8	-1e10	8	-1E+10	1	-1E+10	1	-1E+10	1	-1E+10	1	-1E+10	1	-1E+10	1
4902554	18	C	07/31/2021	14:57	-136.318	49.611	0	19.80	0	13.7560	0	32.3030	0	24.155	0	19.630	0	-1e10	8	-1e10	8	-1E+10	1	-1E+10	1	-1E+10	1	-1E+10	1	-1E+10	1	-1E+10	1
4902554	18	C	07/31/2021	14:57	-136.318	49.611	0	20.90	0	13.6270	0	32.3110	0	24.187	0	20.721	0	-1e10	8	-1e10	8	-1E+10	1	-1E+10	1	-1E+10	1	-1E+10	1	-1E+10	1	-1E+10	1
4902554	18	C	07/31/2021	14:57	-136.318	49.611	0	21.90	0	13.5610	0	32.3120	0	24.201	0	21.712	0	-1e10	8	-1e10	8	-1E+10	1	-1E+10	1	-1E+10	1	-1E+10	1	-1E+10	1	-1E+10	1
4902554	18	C	07/31/2021	14:57	-136.318	49.611	0	22.90	0	13.5150	0	32.3100	0	24.209	0	22.703	0	-1e10	8	-1e10	8	-1E+10	1	-1E+10	1	-1E+10	1	-1E+10	1	-1E+10	1	-1E+10	1
4902554	18	C	07/31/2021	14:57	-136.318	49.611	0	23.90	0	13.4280	0	32.3130	0	24.229	0	23.695	0	-1e10	8	-1e10	8	-1E+10	1	-1E+10	1	-1E+10	1	-1E+10	1	-1E+10	1	-1E+10	1
4902554	18	C	07/31/2021	14:57	-136.318	49.611	0	25.00	0	13.2320	0	32.3170	0	24.271	0	24.785	0	-1e10	8	-1e10	8	-1E+10	1	-1E+10	1	-1E+10	1	-1E+10	1	-1E+10	1	-1E+10	1
4902554	18	C	07/31/2021	14:57	-136.318	49.611	0	26.10	0	12.6060	0	32.3340	0	24.406	0	25.876	0	-1e10	8	-1e10	8	-1E+10	1	-1E+10	1	-1E+10	1	-1E+10	1	-1E+10	1	-1E+10	1
4902554	18	C	07/31/2021	14:57	-136.318	49.611	0	27.10	0	12.3150	0	32.3270	0	24.456	0	26.867	0	-1e10	8	-1e10	8	-1E+10	1	-1E+10	1	-1E+10	1	-1E+10	1	-1E+10	1	-1E+10	1
4902554	18	C	07/31/2021	14:57	-136.318	49.611	0	27.90	0	12.1680	0	32.3340	0	24.489	0	27.660	0	-1e10	8	-1e10	8	-1E+10	1	-1E+10	1	-1E+10	1	-1E+10	1	-1E+10	1	-1E+10	1
4902554	18	C	07/31/2021	14:57	-136.318	49.611	0	29.20	0	12.0720	0	32.3270	0	24.502	0	28.949	0	-1e10	8	-1e10	8	-1E+10	1	-1E+10	1	-1E+10	1	-1E+10	1	-1E+10	1	-1E+10	1
4902554	18	C	07/31/2021	14:57	-136.318	49.611	0	30.00	0	11.9450	0	32.3220	0	24.521	0	29.742	0	-1e10	8	-1e10	8	-1E+10	1	-1E+10	1	-1E+10	1	-1E+10	1	-1E+10	1	-1E+10	1
4902554	18	C	07/31/2021	14:57	-136.318	49.611	0	31.10	0	11.5190	0	32.3270	0	24.603	0	30.832	0	-1e10	8	-1e10	8	-1E+10	1	-1E+10	1	-1E+10	1	-1E+10	1	-1E+10	1	-1E+10	1
4902554	18	C	07/31/2021	14:57	-136.318	49.611	0	32.00	0	11.2820	0	32.3280	0	24.647	0	31.724	0	-1e10	8	-1e10	8	-1E+10	1	-1E+10	1	-1E+10	1	-1E+10	1	-1E+10	1	-1E+10	1
4902554	18	C	07/31/2021	14:57	-136.318	49.611	0	33.00	0	11.0000	0	32.3340	0	24.701	0	32.716	0	-1e10	8	-1e10	8	-1E+10	1	-1E+10	1	-1E+10	1	-1E+10	1	-1E+10	1	-1E+10	1
4902554	18	C	07/31/2021	14:57	-136.318	49.611	0	33.90	0	10.7920	0	32.3350	0	24.738	0	33.608	0	-1e10	8	-1e10	8	-1E+10	1	-1E+10	1	-1E+10	1	-1E+10	1	-1E+10	1	-1E+10	1
4902554	18	C	07/31/2021	14:57	-136.318	49.611	0	34.80	0	10.6090	0	32.3170	0	24.756	0	34.500	0	-1e10	8	-1e10	8	-1E+10	1	-1E+10	1	-1E+10	1	-1E+10	1	-1E+10	1	-1E+10	1
4902554	18	C	07/31/2021	14:57	-136.318	49.611	0	36.00	0	10.0190	0	32.3450	0	24.877	0	35.690	0	-1e10	8	-1e10	8	-1E+10	1	-1E+10	1	-1E+10	1	-1E+10	1	-1E+10	1	-1E+10	1
4902554	18	C	07/31/2021	14:57	-136.318	49.611	0	37.10	0	9.8150	0	32.3490	0	24.914	0	36.780	0	-1e10	8	-1e10	8	-1E+10	1	-1E+10	1	-1E+10	1	-1E+10	1	-1E+10	1	-1E+10	1
4902554	18	C	07/31/2021	14:57	-136.318	49.611	0	38.10	0	9.5060	0	32.3600	0	24.973	0	37.771	0	-1e10	8	-1e10	8	-1E+10	1	-1E+10	1	-1E+10	1	-1E+10	1	-1E+10	1	-1E+10	1
4902554	18	C	07/31/2021	14:57	-136.318	49.611	0	39.10	0	9.3250	0	32.3620	0	25.003	0	38.763	0	-1e10	8	-1e10	8	-1E+10	1	-1E+10	1	-1E+10	1	-1E+10	1	-1E+10	1	-1E+10	1
4902554	18	C	07/31/2021	14:57	-136.318	49.611	0	40.10	0	9.1400	0	32.3690	0	25.038	0	39.754	0	-1e10	8	-1e10	8	-1E+10	1	-1E+10	1	-1E+10	1	-1E+10	1	-1E+10	1	-1E+10	1
4902554	18	C	07/31/2021	14:57	-136.318	49.611	0	41.00	0	8.8810	0	32.3790	0	25.086	0	40.646	0	-1e10	8	-1e10	8	-1E+10	1	-1E+10	1	-1E+10	1	-1E+10	1	-1E+10	1	-1E+10	1
4902554	18	C	07/31/2021	14:57	-136.318	49.611	0	41.90	0	8.8230	0	32.3780	0	25.094	0	41.538	0	-1e10	8	-1e10	8	-1E+10	1	-1E+10	1	-1E+10	1	-1E+10	1	-1E+10	1	-1E+10	1
4902554	18	C	07/31/2021	14:57	-136.318	49.611	0	43.10	0	8.6510	0	32.3820	0	25.123	0	42.728	0	-1e10	8	-1e10	8	-1E+10	1	-1E+10	1	-1E+10	1	-1E+10	1	-1E+10	1	-1E+10	1
4902554	18	C	07/31/2021	14:57	-136.318	49.611	0	44.10	0	8.4790	0	32.3840	0	25.151	0	43.719	0	-1e10	8	-1e10	8	-1E+10	1	-1E+10	1	-1E+10	1	-1E+10	1	-1E+10	1	-1E+10	1
4902554	18	C	07/31/2021	14:57	-136.318	49.611	0	44.90	0	8.2600	0	32.3920	0	25.189	0	44.512	0	-1e10	8	-1e10	8	-1E+10	1	-1E+10	1	-1E+10	1	-1E+10	1	-1E+10	1	-1E+10	1
4902554	18	C	07/31/2021	14:57	-136.318	49.611	0	46.00	0	8.0480	0	32.3980	0	25.225	0	45.602	0	-1e10	8	-1e10	8	-1E+10	1	-1E+10	1	-1E+10	1	-1E+10	1	-1E+10	1	-1E+10	1
4902554	18	C	07/31/2021	14:57	-136.318	49.611	0	47.30	0	7.7680	0	32.4110	0	25.275	0	46.891	0	-1e10	8	-1e10	8	-1E+10	1	-1E+10	1	-1E+10	1	-1E+10	1	-1E+10	1	-1E+10	1
4902554	18	C	07/31/2021	14:57	-136.318	49.611	0	47.90	0	7.6630	0	32.4110	0	25.290	0	47.486	0	-1e10	8	-1e10	8	-1E+10	1	-1E+10	1	-1E+10	1	-1E+10	1	-1E+10	1	-1E+10	1
4902554	18	C	07/31/2021	14:57	-136.318	49.611	0	48.90	0	7.5410	0	32.4140	0	25.309	0	48.477	0	-1e10	8	-1e10	8	-1E+10	1	-1E+10	1	-1E+10	1	-1E+10	1	-1E+10	1	-1E+10	1
4902554	18	C	07/31/2021	14:57	-136.318	49.611	0	49.90	0	7.4220	0	32.4150	0	25.327	0	49.468	0	-1e10	8	-1e10	8	-1E+10	1	-1E+10	1	-1E+10	1	-1E+10	1	-1E+10	1	-1E+10	1
4902554	18	C	07/31/2021	14:57	-136.318	49.611	0	50.90	0	7.2660	0	32.4200	0	25.352	0	50.459	0	-1e10	8	-1e10	8	-1E+10	1	-1E+10	1	-1E+10	1	-1E+10	1	-1E+10	1	-1E+10	1
4902554	18	C	07/31/2021	14:57	-136.318	49.611	0	52.10	0	7.1520	0	32.4250	0	25.371	0	51.649	0	-1e10	8	-1e10	8	-1E+10	1	-1E+10	1	-1E+10	1	-1E+10	1	-1E+10	1	-1E+10	1
4902554	18	C	07/31/2021	14:57	-136.318	49.611	0	53.00	0	7.1040	0	32.4280	0	25.380	0	52.541	0	-1e10	8	-1e10	8	-1E+10	1	-1E+10	1	-1E+10	1	-1E+10	1	-1E+10	1	-1E+10	1
4902554	18	C	07/31/2021	14:57	-136.318	49.611	0	53.80	0	7.0570	0	32.4290	0	25.387	0	53.334	0	-1e10	8	-1e10	8	-1E+10	1	-1E+10	1	-1E+10	1	-1E+10	1	-1E+10	1	-1E+10	1
4902554	18	C	07/31/2021	14:57	-136.318	49.611	0	54.90	0	7.0150	0	32.4300	0	25.394	0	54.424	0	-1e10	8	-1e10	8	-1E+10	1	-1E+10	1	-1E+10	1	-1E+10	1	-1E+10	1	-1E+10	1
4902554	18	C	07/31/2021	14:57	-136.318	49.611	0	56.00	0	6.9870	0	32.4290	0	25.397	0	55.514	0	-1e10	8	-1e10	8	-1E+10	1	-1E+10	1	-1E+10	1	-1E+10	1	-1E+10	1	-1E+10	1
4902554	18	C	07/31/2021	14:57	-136.318	49.611	0	57.10	0	6.9240	0	32.4320	0	25.407	0	56.605	0	-1e10	8	-1e10	8	-1E+10	1	-1E+10	1	-1E+10	1	-1E+10	1	-1E+10	1	-1E+10	1
4902554	18	C	07/31/2021	14:57	-136.318	49.611	0	58.00	0	6.8630	0	32.4330	0	25.416	0	57.497	0	-1e10	8	-1e10	8	-1E+10	1	-1E+10	1	-1E+10	1	-1E+10	1	-1E+10	1	-1E+10	1
4902554	18	C	07/31/2021	14:57	-136.318	49.611	0	58.80	0	6.8160	0	32.4350	0	25.424	0	58.290	0	-1e10	8	-1e10	8	-1E+10	1	-1E+10	1	-1E+10	1	-1E+10	1	-1E+10	1	-1E+10	1
4902554	18	C	07/31/2021	14:57	-136.318	49.611	0	60.00	0	6.7770	0	32.4340	0	25.428	0	59.479	0	-1e10	8	-1e10	8	-1E+10	1	-1E+10	1	-1E+10	1	-1E+10	1	-1E+10	1	-1E+10	1
4902554	18	C	07/31/2021	14:57	-136.318	49.611	0	60.90	0	6.7070	0	32.4420	0	25.444	0	60.371	0	-1e10	8	-1e10	8	-1E+10	1	-1E+10	1	-1E+10	1	-1E+10	1	-1E+10	1	-1E+10	1
4902554	18	C	07/31/2021	14:57	-136.318	49.611	0	61.80	0	6.6440	0	32.4400	0	25.450	0	61.263	0	-1e10	8	-1e10	8	-1E+10	1	-1E+10	1	-1E+10	1	-1E+10	1	-1E+10	1	-1E+10	1
4902554	18	C	07/31/2021	14:57	-136.318	49.611	0	63.00	0	6.5840	0	32.4450	0	25.462	0	62.453	0	-1e10	8	-1e10	8	-1E+10	1	-1E+10	1	-1E+10	1	-1E+10	1	-1E+10	1	-1E+10	1
4902554	18	C	07/31/2021	14:57	-136.318	49.611	0	64.00	0	6.5510	0	32.4440	0	25.465	0	63.444	0	-1e10	8	-1e10	8	-1E+10	1	-1E+10	1	-1E+10	1	-1E+10	1	-1E+10	1	-1E+10	1
4902554	18	C	07/31/2021	14:57	-136.318	49.611	0	64.90	0	6.5270	0	32.4470	0	25.471	0	64.336	0	-1e10	8	-1e10	8	-1E+10	1	-1E+10	1	-1E+10	1	-1E+10	1	-1E+10	1	-1E+10	1
4902554	18	C	07/31/2021	14:57	-136.318	49.611	0	65.80	0	6.5030	0	32.4490	0	25.475	0	65.228	0	-1e10	8	-1e10	8	-1E+10	1	-1E+10	1	-1E+10	1	-1E+10	1	-1E+10	1	-1E+10	1
4902554	18	C	07/31/2021	14:57	-136.318	49.611	0	66.80	0	6.4720	0	32.4500	0	25.480	0	66.219	0	-1e10	8	-1e10	8	-1E+10	1	-1E+10	1	-1E+10	1	-1E+10	1	-1E+10	1	-1E+10	1
4902554	18	C	07/31/2021	14:57	-136.318	49.611	0	68.10	0	6.4550	0	32.4510	0	25.483	0	67.507	0	-1e10	8	-1e10	8	-1E+10	1	-1E+10	1	-1E+10	1	-1E+10	1	-1E+10	1	-1E+10	1
4902554	18	C	07/31/2021	14:57	-136.318	49.611	0	69.10	0	6.4090	0	32.4550	0	25.492	0	68.499	0	-1e10	8	-1e10	8	-1E+10	1	-1E+10	1	-1E+10	1	-1E+10	1	-1E+10	1	-1E+10	1
4902554	18	C	07/31/2021	14:57	-136.318	49.611	0	70.00	0	6.3680	0	32.4580	0	25.500	0	69.391	0	-1e10	8	-1e10	8	-1E+10	1	-1E+10	1	-1E+10	1	-1E+10	1	-1E+10	1	-1E+10	1
4902554	18	C	07/31/2021	14:57	-136.318	49.611	0	71.00	0	6.3390	0	32.4610	0	25.506	0	70.382	0	-1e10	8	-1e10	8	-1E+10	1	-1E+10	1	-1E+10	1	-1E+10	1	-1E+10	1	-1E+10	1
4902554	18	C	07/31/2021	14:57	-136.318	49.611	0	71.90	0	6.3270	0	32.4620	0	25.508	0	71.274	0	-1e10	8	-1e10	8	-1E+10	1	-1E+10	1	-1E+10	1	-1E+10	1	-1E+10	1	-1E+10	1
4902554	18	C	07/31/2021	14:57	-136.318	49.611	0	73.20	0	6.3160	0	32.4620	0	25.509	0	72.562	0	-1e10	8	-1e10	8	-1E+10	1	-1E+10	1	-1E+10	1	-1E+10	1	-1E+10	1	-1E+10	1
4902554	18	C	07/31/2021	14:57	-136.318	49.611	0	73.90	0	6.3080	0	32.4620	0	25.510	0	73.256	0	-1e10	8	-1e10	8	-1E+10	1	-1E+10	1	-1E+10	1	-1E+10	1	-1E+10	1	-1E+10	1
4902554	18	C	07/31/2021	14:57	-136.318	49.611	0	75.00	0	6.2850	0	32.4640	0	25.515	0	74.346	0	-1e10	8	-1e10	8	-1E+10	1	-1E+10	1	-1E+10	1	-1E+10	1	-1E+10	1	-1E+10	1
4902554	18	C	07/31/2021	14:57	-136.318	49.611	0	75.90	0	6.2520	0	32.4660	0	25.521	0	75.238	0	-1e10	8	-1e10	8	-1E+10	1	-1E+10	1	-1E+10	1	-1E+10	1	-1E+10	1	-1E+10	1
4902554	18	C	07/31/2021	14:57	-136.318	49.611	0	77.10	0	6.2150	0	32.4680	0	25.527	0	76.427	0	-1e10	8	-1e10	8	-1E+10	1	-1E+10	1	-1E+10	1	-1E+10	1	-1E+10	1	-1E+10	1
4902554	18	C	07/31/2021	14:57	-136.318	49.611	0	78.00	0	6.2000	0	32.4680	0	25.529	0	77.319	0	-1e10	8	-1e10	8	-1E+10	1	-1E+10	1	-1E+10	1	-1E+10	1	-1E+10	1	-1E+10	1
4902554	18	C	07/31/2021	14:57	-136.318	49.611	0	79.00	0	6.1830	0	32.4700	0	25.532	0	78.311	0	-1e10	8	-1e10	8	-1E+10	1	-1E+10	1	-1E+10	1	-1E+10	1	-1E+10	1	-1E+10	1
4902554	18	C	07/31/2021	14:57	-136.318	49.611	0	79.90	0	6.1580	0	32.4700	0	25.535	0	79.203	0	-1e10	8	-1e10	8	-1E+10	1	-1E+10	1	-1E+10	1	-1E+10	1	-1E+10	1	-1E+10	1
4902554	18	C	07/31/2021	14:57	-136.318	49.611	0	81.00	0	6.1380	0	32.4710	0	25.539	0	80.293	0	-1e10	8	-1e10	8	-1E+10	1	-1E+10	1	-1E+10	1	-1E+10	1	-1E+10	1	-1E+10	1
4902554	18	C	07/31/2021	14:57	-136.318	49.611	0	82.10	0	6.1230	0	32.4740	0	25.543	0	81.383	0	-1e10	8	-1e10	8	-1E+10	1	-1E+10	1	-1E+10	1	-1E+10	1	-1E+10	1	-1E+10	1
4902554	18	C	07/31/2021	14:57	-136.318	49.611	0	82.90	0	6.1180	0	32.4730	0	25.543	0	82.176	0	-1e10	8	-1e10	8	-1E+10	1	-1E+10	1	-1E+10	1	-1E+10	1	-1E+10	1	-1E+10	1
4902554	18	C	07/31/2021	14:57	-136.318	49.611	0	84.10	0	6.1080	0	32.4750	0	25.546	0	83.365	0	-1e10	8	-1e10	8	-1E+10	1	-1E+10	1	-1E+10	1	-1E+10	1	-1E+10	1	-1E+10	1
4902554	18	C	07/31/2021	14:57	-136.318	49.611	0	84.90	0	6.0960	0	32.4750	0	25.547	0	84.158	0	-1e10	8	-1e10	8	-1E+10	1	-1E+10	1	-1E+10	1	-1E+10	1	-1E+10	1	-1E+10	1
4902554	18	C	07/31/2021	14:57	-136.318	49.611	0	86.20	0	6.0670	0	32.4770	0	25.552	0	85.446	0	-1e10	8	-1e10	8	-1E+10	1	-1E+10	1	-1E+10	1	-1E+10	1	-1E+10	1	-1E+10	1
4902554	18	C	07/31/2021	14:57	-136.318	49.611	0	86.90	0	6.0590	0	32.4770	0	25.553	0	86.140	0	-1e10	8	-1e10	8	-1E+10	1	-1E+10	1	-1E+10	1	-1E+10	1	-1E+10	1	-1E+10	1
4902554	18	C	07/31/2021	14:57	-136.318	49.611	0	87.80	0	6.0460	0	32.4780	0	25.556	0	87.032	0	-1e10	8	-1e10	8	-1E+10	1	-1E+10	1	-1E+10	1	-1E+10	1	-1E+10	1	-1E+10	1
4902554	18	C	07/31/2021	14:57	-136.318	49.611	0	88.90	0	6.0390	0	32.4790	0	25.557	0	88.122	0	-1e10	8	-1e10	8	-1E+10	1	-1E+10	1	-1E+10	1	-1E+10	1	-1E+10	1	-1E+10	1
4902554	18	C	07/31/2021	14:57	-136.318	49.611	0	90.10	0	6.0350	0	32.4800	0	25.559	0	89.311	0	-1e10	8	-1e10	8	-1E+10	1	-1E+10	1	-1E+10	1	-1E+10	1	-1E+10	1	-1E+10	1
4902554	18	C	07/31/2021	14:57	-136.318	49.611	0	91.00	0	6.0210	0	32.4820	0	25.562	0	90.203	0	-1e10	8	-1e10	8	-1E+10	1	-1E+10	1	-1E+10	1	-1E+10	1	-1E+10	1	-1E+10	1
4902554	18	C	07/31/2021	14:57	-136.318	49.611	0	92.20	0	6.0010	0	32.4840	0	25.566	0	91.392	0	-1e10	8	-1e10	8	-1E+10	1	-1E+10	1	-1E+10	1	-1E+10	1	-1E+10	1	-1E+10	1
4902554	18	C	07/31/2021	14:57	-136.318	49.611	0	92.90	0	5.9890	0	32.4840	0	25.567	0	92.086	0	-1e10	8	-1e10	8	-1E+10	1	-1E+10	1	-1E+10	1	-1E+10	1	-1E+10	1	-1E+10	1
4902554	18	C	07/31/2021	14:57	-136.318	49.611	0	93.90	0	5.9800	0	32.4850	0	25.569	0	93.077	0	-1e10	8	-1e10	8	-1E+10	1	-1E+10	1	-1E+10	1	-1E+10	1	-1E+10	1	-1E+10	1
4902554	18	C	07/31/2021	14:57	-136.318	49.611	0	94.80	0	5.9610	0	32.4880	0	25.574	0	93.969	0	-1e10	8	-1e10	8	-1E+10	1	-1E+10	1	-1E+10	1	-1E+10	1	-1E+10	1	-1E+10	1
4902554	18	C	07/31/2021	14:57	-136.318	49.611	0	96.00	0	5.9510	0	32.4880	0	25.575	0	95.158	0	-1e10	8	-1e10	8	-1E+10	1	-1E+10	1	-1E+10	1	-1E+10	1	-1E+10	1	-1E+10	1
4902554	18	C	07/31/2021	14:57	-136.318	49.611	0	96.90	0	5.9360	0	32.4890	0	25.578	0	96.050	0	-1e10	8	-1e10	8	-1E+10	1	-1E+10	1	-1E+10	1	-1E+10	1	-1E+10	1	-1E+10	1
4902554	18	C	07/31/2021	14:57	-136.318	49.611	0	98.30	0	5.9170	0	32.4900	0	25.581	0	97.438	0	-1e10	8	-1e10	8	-1E+10	1	-1E+10	1	-1E+10	1	-1E+10	1	-1E+10	1	-1E+10	1
4902554	18	C	07/31/2021	14:57	-136.318	49.611	0	98.90	0	5.9130	0	32.4900	0	25.581	0	98.032	0	-1e10	8	-1e10	8	-1E+10	1	-1E+10	1	-1E+10	1	-1E+10	1	-1E+10	1	-1E+10	1
4902554	18	C	07/31/2021	14:57	-136.318	49.611	0	99.80	0	5.9080	0	32.4900	0	25.582	0	98.924	0	-1e10	8	-1e10	8	-1E+10	1	-1E+10	1	-1E+10	1	-1E+10	1	-1E+10	1	-1E+10	1
4902554	18	C	07/31/2021	14:57	-136.318	49.611	0	101.10	0	5.9030	0	32.4910	0	25.583	0	100.212	0	-1e10	8	-1e10	8	-1E+10	1	-1E+10	1	-1E+10	1	-1E+10	1	-1E+10	1	-1E+10	1
4902554	18	C	07/31/2021	14:57	-136.318	49.611	0	102.00	0	5.8980	0	32.4970	0	25.589	0	101.104	0	-1e10	8	-1e10	8	-1E+10	1	-1E+10	1	-1E+10	1	-1E+10	1	-1E+10	1	-1E+10	1
4902554	18	C	07/31/2021	14:57	-136.318	49.611	0	103.10	0	5.9000	0	32.5060	0	25.596	0	102.194	0	-1e10	8	-1e10	8	-1E+10	1	-1E+10	1	-1E+10	1	-1E+10	1	-1E+10	1	-1E+10	1
4902554	18	C	07/31/2021	14:57	-136.318	49.611	0	104.00	0	5.8960	0	32.5100	0	25.599	0	103.086	0	-1e10	8	-1e10	8	-1E+10	1	-1E+10	1	-1E+10	1	-1E+10	1	-1E+10	1	-1E+10	1
4902554	18	C	07/31/2021	14:57	-136.318	49.611	0	105.10	0	5.8890	0	32.5140	0	25.603	0	104.176	0	-1e10	8	-1e10	8	-1E+10	1	-1E+10	1	-1E+10	1	-1E+10	1	-1E+10	1	-1E+10	1
4902554	18	C	07/31/2021	14:57	-136.318	49.611	0	106.00	0	5.8870	0	32.5210	0	25.609	0	105.068	0	-1e10	8	-1e10	8	-1E+10	1	-1E+10	1	-1E+10	1	-1E+10	1	-1E+10	1	-1E+10	1
4902554	18	C	07/31/2021	14:57	-136.318	49.611	0	107.00	0	5.8860	0	32.5250	0	25.612	0	106.059	0	-1e10	8	-1e10	8	-1E+10	1	-1E+10	1	-1E+10	1	-1E+10	1	-1E+10	1	-1E+10	1
4902554	18	C	07/31/2021	14:57	-136.318	49.611	0	107.90	0	5.8860	0	32.5260	0	25.613	0	106.951	0	-1e10	8	-1e10	8	-1E+10	1	-1E+10	1	-1E+10	1	-1E+10	1	-1E+10	1	-1E+10	1
4902554	18	C	07/31/2021	14:57	-136.318	49.611	0	108.80	0	5.8990	0	32.5320	0	25.616	0	107.843	0	-1e10	8	-1e10	8	-1E+10	1	-1E+10	1	-1E+10	1	-1E+10	1	-1E+10	1	-1E+10	1
4902554	18	C	07/31/2021	14:57	-136.318	49.611	0	110.00	0	5.8980	0	32.5380	0	25.621	0	109.032	0	-1e10	8	-1e10	8	-1E+10	1	-1E+10	1	-1E+10	1	-1E+10	1	-1E+10	1	-1E+10	1
4902554	18	C	07/31/2021	14:57	-136.318	49.611	0	110.70	0	5.8990	0	32.5400	0	25.623	0	109.725	0	-1e10	8	-1e10	8	-1E+10	1	-1E+10	1	-1E+10	1	-1E+10	1	-1E+10	1	-1E+10	1
4902554	18	C	07/31/2021	14:57	-136.318	49.611	0	111.90	0	5.9050	0	32.5500	0	25.630	0	110.915	0	-1e10	8	-1e10	8	-1E+10	1	-1E+10	1	-1E+10	1	-1E+10	1	-1E+10	1	-1E+10	1
4902554	18	C	07/31/2021	14:57	-136.318	49.611	0	113.00	0	5.9110	0	32.5620	0	25.639	0	112.005	0	-1e10	8	-1e10	8	-1E+10	1	-1E+10	1	-1E+10	1	-1E+10	1	-1E+10	1	-1E+10	1
4902554	18	C	07/31/2021	14:57	-136.318	49.611	0	113.70	0	5.9360	0	32.5900	0	25.658	0	112.698	0	-1e10	8	-1e10	8	-1E+10	1	-1E+10	1	-1E+10	1	-1E+10	1	-1E+10	1	-1E+10	1
4902554	18	C	07/31/2021	14:57	-136.318	49.611	0	114.80	0	5.9570	0	32.6190	0	25.678	0	113.788	0	-1e10	8	-1e10	8	-1E+10	1	-1E+10	1	-1E+10	1	-1E+10	1	-1E+10	1	-1E+10	1
4902554	18	C	07/31/2021	14:57	-136.318	49.611	0	115.90	0	5.9640	0	32.6280	0	25.684	0	114.878	0	-1e10	8	-1e10	8	-1E+10	1	-1E+10	1	-1E+10	1	-1E+10	1	-1E+10	1	-1E+10	1
4902554	18	C	07/31/2021	14:57	-136.318	49.611	0	117.00	0	5.9700	0	32.6390	0	25.692	0	115.968	0	-1e10	8	-1e10	8	-1E+10	1	-1E+10	1	-1E+10	1	-1E+10	1	-1E+10	1	-1E+10	1
4902554	18	C	07/31/2021	14:57	-136.318	49.611	0	118.10	0	5.9760	0	32.6460	0	25.697	0	117.058	0	-1e10	8	-1e10	8	-1E+10	1	-1E+10	1	-1E+10	1	-1E+10	1	-1E+10	1	-1E+10	1
4902554	18	C	07/31/2021	14:57	-136.318	49.611	0	119.00	0	5.9980	0	32.6560	0	25.702	0	117.950	0	-1e10	8	-1e10	8	-1E+10	1	-1E+10	1	-1E+10	1	-1E+10	1	-1E+10	1	-1E+10	1
4902554	18	C	07/31/2021	14:57	-136.318	49.611	0	119.90	0	6.0220	0	32.6790	0	25.718	0	118.842	0	-1e10	8	-1e10	8	-1E+10	1	-1E+10	1	-1E+10	1	-1E+10	1	-1E+10	1	-1E+10	1
4902554	18	C	07/31/2021	14:57	-136.318	49.611	0	121.10	0	6.0250	0	32.7000	0	25.734	0	120.031	0	-1e10	8	-1e10	8	-1E+10	1	-1E+10	1	-1E+10	1	-1E+10	1	-1E+10	1	-1E+10	1
4902554	18	C	07/31/2021	14:57	-136.318	49.611	0	122.00	0	6.0210	0	32.7240	0	25.753	0	120.923	0	-1e10	8	-1e10	8	-1E+10	1	-1E+10	1	-1E+10	1	-1E+10	1	-1E+10	1	-1E+10	1
4902554	18	C	07/31/2021	14:57	-136.318	49.611	0	122.90	0	6.0210	0	32.7350	0	25.762	0	121.814	0	-1e10	8	-1e10	8	-1E+10	1	-1E+10	1	-1E+10	1	-1E+10	1	-1E+10	1	-1E+10	1
4902554	18	C	07/31/2021	14:57	-136.318	49.611	0	123.90	0	6.0180	0	32.7650	0	25.786	0	122.805	0	-1e10	8	-1e10	8	-1E+10	1	-1E+10	1	-1E+10	1	-1E+10	1	-1E+10	1	-1E+10	1
4902554	18	C	07/31/2021	14:57	-136.318	49.611	0	124.80	0	6.0220	0	32.7750	0	25.793	0	123.697	0	-1e10	8	-1e10	8	-1E+10	1	-1E+10	1	-1E+10	1	-1E+10	1	-1E+10	1	-1E+10	1
4902554	18	C	07/31/2021	14:57	-136.318	49.611	0	125.80	0	6.0440	0	32.8050	0	25.814	0	124.688	0	-1e10	8	-1e10	8	-1E+10	1	-1E+10	1	-1E+10	1	-1E+10	1	-1E+10	1	-1E+10	1
4902554	18	C	07/31/2021	14:57	-136.318	49.611	0	126.80	0	6.0640	0	32.8450	0	25.844	0	125.679	0	-1e10	8	-1e10	8	-1E+10	1	-1E+10	1	-1E+10	1	-1E+10	1	-1E+10	1	-1E+10	1
4902554	18	C	07/31/2021	14:57	-136.318	49.611	0	128.00	0	6.0590	0	32.8570	0	25.854	0	126.868	0	-1e10	8	-1e10	8	-1E+10	1	-1E+10	1	-1E+10	1	-1E+10	1	-1E+10	1	-1E+10	1
4902554	18	C	07/31/2021	14:57	-136.318	49.611	0	128.70	0	6.0940	0	32.8810	0	25.868	0	127.561	0	-1e10	8	-1e10	8	-1E+10	1	-1E+10	1	-1E+10	1	-1E+10	1	-1E+10	1	-1E+10	1
4902554	18	C	07/31/2021	14:57	-136.318	49.611	0	129.90	0	6.1060	0	32.8970	0	25.879	0	128.750	0	-1e10	8	-1e10	8	-1E+10	1	-1E+10	1	-1E+10	1	-1E+10	1	-1E+10	1	-1E+10	1
4902554	18	C	07/31/2021	14:57	-136.318	49.611	0	131.10	0	6.1400	0	32.9500	0	25.917	0	129.939	0	-1e10	8	-1e10	8	-1E+10	1	-1E+10	1	-1E+10	1	-1E+10	1	-1E+10	1	-1E+10	1
4902554	18	C	07/31/2021	14:57	-136.318	49.611	0	132.00	0	6.1460	0	32.9990	0	25.955	0	130.831	0	-1e10	8	-1e10	8	-1E+10	1	-1E+10	1	-1E+10	1	-1E+10	1	-1E+10	1	-1E+10	1
4902554	18	C	07/31/2021	14:57	-136.318	49.611	0	132.80	0	6.1440	0	33.0190	0	25.971	0	131.624	0	-1e10	8	-1e10	8	-1E+10	1	-1E+10	1	-1E+10	1	-1E+10	1	-1E+10	1	-1E+10	1
4902554	18	C	07/31/2021	14:57	-136.318	49.611	0	133.70	0	6.1230	0	33.0370	0	25.988	0	132.516	0	-1e10	8	-1e10	8	-1E+10	1	-1E+10	1	-1E+10	1	-1E+10	1	-1E+10	1	-1E+10	1
4902554	18	C	07/31/2021	14:57	-136.318	49.611	0	134.90	0	6.1140	0	33.0580	0	26.006	0	133.705	0	-1e10	8	-1e10	8	-1E+10	1	-1E+10	1	-1E+10	1	-1E+10	1	-1E+10	1	-1E+10	1
4902554	18	C	07/31/2021	14:57	-136.318	49.611	0	136.20	0	6.1030	0	33.0800	0	26.024	0	134.993	0	-1e10	8	-1e10	8	-1E+10	1	-1E+10	1	-1E+10	1	-1E+10	1	-1E+10	1	-1E+10	1
4902554	18	C	07/31/2021	14:57	-136.318	49.611	0	137.10	0	6.1060	0	33.0900	0	26.032	0	135.884	0	-1e10	8	-1e10	8	-1E+10	1	-1E+10	1	-1E+10	1	-1E+10	1	-1E+10	1	-1E+10	1
4902554	18	C	07/31/2021	14:57	-136.318	49.611	0	138.00	0	6.1020	0	33.1120	0	26.050	0	136.776	0	-1e10	8	-1e10	8	-1E+10	1	-1E+10	1	-1E+10	1	-1E+10	1	-1E+10	1	-1E+10	1
4902554	18	C	07/31/2021	14:57	-136.318	49.611	0	138.90	0	6.1150	0	33.1280	0	26.061	0	137.668	0	-1e10	8	-1e10	8	-1E+10	1	-1E+10	1	-1E+10	1	-1E+10	1	-1E+10	1	-1E+10	1
4902554	18	C	07/31/2021	14:57	-136.318	49.611	0	139.80	0	6.1410	0	33.1710	0	26.092	0	138.560	0	-1e10	8	-1e10	8	-1E+10	1	-1E+10	1	-1E+10	1	-1E+10	1	-1E+10	1	-1E+10	1
4902554	18	C	07/31/2021	14:57	-136.318	49.611	0	140.70	0	6.1480	0	33.2080	0	26.120	0	139.451	0	-1e10	8	-1e10	8	-1E+10	1	-1E+10	1	-1E+10	1	-1E+10	1	-1E+10	1	-1E+10	1
4902554	18	C	07/31/2021	14:57	-136.318	49.611	0	141.70	0	6.1780	0	33.2610	0	26.158	0	140.442	0	-1e10	8	-1e10	8	-1E+10	1	-1E+10	1	-1E+10	1	-1E+10	1	-1E+10	1	-1E+10	1
4902554	18	C	07/31/2021	14:57	-136.318	49.611	0	142.60	0	6.1620	0	33.2740	0	26.170	0	141.334	0	-1e10	8	-1e10	8	-1E+10	1	-1E+10	1	-1E+10	1	-1E+10	1	-1E+10	1	-1E+10	1
4902554	18	C	07/31/2021	14:57	-136.318	49.611	0	143.60	0	6.1660	0	33.3130	0	26.201	0	142.324	0	-1e10	8	-1e10	8	-1E+10	1	-1E+10	1	-1E+10	1	-1E+10	1	-1E+10	1	-1E+10	1
4902554	18	C	07/31/2021	14:57	-136.318	49.611	0	144.60	0	6.1620	0	33.3530	0	26.233	0	143.315	0	-1e10	8	-1e10	8	-1E+10	1	-1E+10	1	-1E+10	1	-1E+10	1	-1E+10	1	-1E+10	1
4902554	18	C	07/31/2021	14:57	-136.318	49.611	0	145.60	0	6.1620	0	33.3800	0	26.254	0	144.306	0	-1e10	8	-1e10	8	-1E+10	1	-1E+10	1	-1E+10	1	-1E+10	1	-1E+10	1	-1E+10	1
4902554	18	C	07/31/2021	14:57	-136.318	49.611	0	146.70	0	6.1610	0	33.3900	0	26.262	0	145.396	0	-1e10	8	-1e10	8	-1E+10	1	-1E+10	1	-1E+10	1	-1E+10	1	-1E+10	1	-1E+10	1
4902554	18	C	07/31/2021	14:57	-136.318	49.611	0	147.70	0	6.1620	0	33.3980	0	26.268	0	146.387	0	-1e10	8	-1e10	8	-1E+10	1	-1E+10	1	-1E+10	1	-1E+10	1	-1E+10	1	-1E+10	1
4902554	18	C	07/31/2021	14:57	-136.318	49.611	0	148.80	0	6.1610	0	33.4070	0	26.276	0	147.476	0	-1e10	8	-1e10	8	-1E+10	1	-1E+10	1	-1E+10	1	-1E+10	1	-1E+10	1	-1E+10	1
4902554	18	C	07/31/2021	14:57	-136.318	49.611	0	149.80	0	6.1610	0	33.4190	0	26.285	0	148.467	0	-1e10	8	-1e10	8	-1E+10	1	-1E+10	1	-1E+10	1	-1E+10	1	-1E+10	1	-1E+10	1
4902554	18	C	07/31/2021	14:57	-136.318	49.611	0	150.90	0	6.1610	0	33.4280	0	26.292	0	149.557	0	-1e10	8	-1e10	8	-1E+10	1	-1E+10	1	-1E+10	1	-1E+10	1	-1E+10	1	-1E+10	1
4902554	18	C	07/31/2021	14:57	-136.318	49.611	0	151.90	0	6.1610	0	33.4410	0	26.302	0	150.548	0	-1e10	8	-1e10	8	-1E+10	1	-1E+10	1	-1E+10	1	-1E+10	1	-1E+10	1	-1E+10	1
4902554	18	C	07/31/2021	14:57	-136.318	49.611	0	153.00	0	6.1610	0	33.4910	0	26.342	0	151.638	0	-1e10	8	-1e10	8	-1E+10	1	-1E+10	1	-1E+10	1	-1E+10	1	-1E+10	1	-1E+10	1
4902554	18	C	07/31/2021	14:57	-136.318	49.611	0	154.10	0	6.1600	0	33.5170	0	26.363	0	152.727	0	-1e10	8	-1e10	8	-1E+10	1	-1E+10	1	-1E+10	1	-1E+10	1	-1E+10	1	-1E+10	1
4902554	18	C	07/31/2021	14:57	-136.318	49.611	0	155.20	0	6.1520	0	33.5850	0	26.417	0	153.817	0	-1e10	8	-1e10	8	-1E+10	1	-1E+10	1	-1E+10	1	-1E+10	1	-1E+10	1	-1E+10	1
4902554	18	C	07/31/2021	14:57	-136.318	49.611	0	156.30	0	6.1500	0	33.6010	0	26.430	0	154.907	0	-1e10	8	-1e10	8	-1E+10	1	-1E+10	1	-1E+10	1	-1E+10	1	-1E+10	1	-1E+10	1
4902554	18	C	07/31/2021	14:57	-136.318	49.611	0	157.40	0	6.1440	0	33.6180	0	26.444	0	155.997	0	-1e10	8	-1e10	8	-1E+10	1	-1E+10	1	-1E+10	1	-1E+10	1	-1E+10	1	-1E+10	1
4902554	18	C	07/31/2021	14:57	-136.318	49.611	0	158.60	0	6.1430	0	33.6180	0	26.445	0	157.186	0	-1e10	8	-1e10	8	-1E+10	1	-1E+10	1	-1E+10	1	-1E+10	1	-1E+10	1	-1E+10	1
4902554	18	C	07/31/2021	14:57	-136.318	49.611	0	159.70	0	6.1360	0	33.6330	0	26.457	0	158.275	0	-1e10	8	-1e10	8	-1E+10	1	-1E+10	1	-1E+10	1	-1E+10	1	-1E+10	1	-1E+10	1
4902554	18	C	07/31/2021	14:57	-136.318	49.611	0	160.80	0	6.1380	0	33.6360	0	26.459	0	159.365	0	-1e10	8	-1e10	8	-1E+10	1	-1E+10	1	-1E+10	1	-1E+10	1	-1E+10	1	-1E+10	1
4902554	18	C	07/31/2021	14:57	-136.318	49.611	0	161.90	0	6.1320	0	33.6450	0	26.467	0	160.455	0	-1e10	8	-1e10	8	-1E+10	1	-1E+10	1	-1E+10	1	-1E+10	1	-1E+10	1	-1E+10	1
4902554	18	C	07/31/2021	14:57	-136.318	49.611	0	163.10	0	6.1240	0	33.6570	0	26.478	0	161.644	0	-1e10	8	-1e10	8	-1E+10	1	-1E+10	1	-1E+10	1	-1E+10	1	-1E+10	1	-1E+10	1
4902554	18	C	07/31/2021	14:57	-136.318	49.611	0	164.20	0	6.1210	0	33.6610	0	26.481	0	162.733	0	-1e10	8	-1e10	8	-1E+10	1	-1E+10	1	-1E+10	1	-1E+10	1	-1E+10	1	-1E+10	1
4902554	18	C	07/31/2021	14:57	-136.318	49.611	0	165.30	0	6.1190	0	33.6640	0	26.484	0	163.823	0	-1e10	8	-1e10	8	-1E+10	1	-1E+10	1	-1E+10	1	-1E+10	1	-1E+10	1	-1E+10	1
4902554	18	C	07/31/2021	14:57	-136.318	49.611	0	166.40	0	6.1000	0	33.6790	0	26.498	0	164.913	0	-1e10	8	-1e10	8	-1E+10	1	-1E+10	1	-1E+10	1	-1E+10	1	-1E+10	1	-1E+10	1
4902554	18	C	07/31/2021	14:57	-136.318	49.611	0	167.50	0	6.0960	0	33.6920	0	26.509	0	166.003	0	-1e10	8	-1e10	8	-1E+10	1	-1E+10	1	-1E+10	1	-1E+10	1	-1E+10	1	-1E+10	1
4902554	18	C	07/31/2021	14:57	-136.318	49.611	0	168.60	0	6.0710	0	33.7060	0	26.523	0	167.092	0	-1e10	8	-1e10	8	-1E+10	1	-1E+10	1	-1E+10	1	-1E+10	1	-1E+10	1	-1E+10	1
4902554	18	C	07/31/2021	14:57	-136.318	49.611	0	169.80	0	6.0700	0	33.7060	0	26.523	0	168.281	0	-1e10	8	-1e10	8	-1E+10	1	-1E+10	1	-1E+10	1	-1E+10	1	-1E+10	1	-1E+10	1
4902554	18	C	07/31/2021	14:57	-136.318	49.611	0	170.90	0	6.0660	0	33.7090	0	26.526	0	169.371	0	-1e10	8	-1e10	8	-1E+10	1	-1E+10	1	-1E+10	1	-1E+10	1	-1E+10	1	-1E+10	1
4902554	18	C	07/31/2021	14:57	-136.318	49.611	0	172.00	0	6.0650	0	33.7100	0	26.527	0	170.460	0	-1e10	8	-1e10	8	-1E+10	1	-1E+10	1	-1E+10	1	-1E+10	1	-1E+10	1	-1E+10	1
4902554	18	C	07/31/2021	14:57	-136.318	49.611	0	173.10	0	6.0390	0	33.7210	0	26.539	0	171.550	0	-1e10	8	-1e10	8	-1E+10	1	-1E+10	1	-1E+10	1	-1E+10	1	-1E+10	1	-1E+10	1
4902554	18	C	07/31/2021	14:57	-136.318	49.611	0	174.30	0	6.0280	0	33.7230	0	26.542	0	172.739	0	-1e10	8	-1e10	8	-1E+10	1	-1E+10	1	-1E+10	1	-1E+10	1	-1E+10	1	-1E+10	1
4902554	18	C	07/31/2021	14:57	-136.318	49.611	0	175.40	0	6.0210	0	33.7260	0	26.545	0	173.829	0	-1e10	8	-1e10	8	-1E+10	1	-1E+10	1	-1E+10	1	-1E+10	1	-1E+10	1	-1E+10	1
4902554	18	C	07/31/2021	14:57	-136.318	49.611	0	176.50	0	6.0170	0	33.7280	0	26.547	0	174.918	0	-1e10	8	-1e10	8	-1E+10	1	-1E+10	1	-1E+10	1	-1E+10	1	-1E+10	1	-1E+10	1
4902554	18	C	07/31/2021	14:57	-136.318	49.611	0	177.70	0	5.9940	0	33.7400	0	26.560	0	176.107	0	-1e10	8	-1e10	8	-1E+10	1	-1E+10	1	-1E+10	1	-1E+10	1	-1E+10	1	-1E+10	1
4902554	18	C	07/31/2021	14:57	-136.318	49.611	0	178.80	0	5.9750	0	33.7460	0	26.567	0	177.197	0	-1e10	8	-1e10	8	-1E+10	1	-1E+10	1	-1E+10	1	-1E+10	1	-1E+10	1	-1E+10	1
4902554	18	C	07/31/2021	14:57	-136.318	49.611	0	179.90	0	5.9660	0	33.7530	0	26.574	0	178.286	0	-1e10	8	-1e10	8	-1E+10	1	-1E+10	1	-1E+10	1	-1E+10	1	-1E+10	1	-1E+10	1
4902554	18	C	07/31/2021	14:57	-136.318	49.611	0	181.00	0	5.9620	0	33.7540	0	26.575	0	179.376	0	-1e10	8	-1e10	8	-1E+10	1	-1E+10	1	-1E+10	1	-1E+10	1	-1E+10	1	-1E+10	1
4902554	18	C	07/31/2021	14:57	-136.318	49.611	0	182.20	0	5.9600	0	33.7570	0	26.578	0	180.565	0	-1e10	8	-1e10	8	-1E+10	1	-1E+10	1	-1E+10	1	-1E+10	1	-1E+10	1	-1E+10	1
4902554	18	C	07/31/2021	14:57	-136.318	49.611	0	183.30	0	5.9510	0	33.7610	0	26.582	0	181.654	0	-1e10	8	-1e10	8	-1E+10	1	-1E+10	1	-1E+10	1	-1E+10	1	-1E+10	1	-1E+10	1
4902554	18	C	07/31/2021	14:57	-136.318	49.611	0	184.40	0	5.9430	0	33.7630	0	26.584	0	182.744	0	-1e10	8	-1e10	8	-1E+10	1	-1E+10	1	-1E+10	1	-1E+10	1	-1E+10	1	-1E+10	1
4902554	18	C	07/31/2021	14:57	-136.318	49.611	0	185.50	0	5.9380	0	33.7650	0	26.587	0	183.834	0	-1e10	8	-1e10	8	-1E+10	1	-1E+10	1	-1E+10	1	-1E+10	1	-1E+10	1	-1E+10	1
4902554	18	C	07/31/2021	14:57	-136.318	49.611	0	186.50	0	5.9300	0	33.7670	0	26.589	0	184.824	0	-1e10	8	-1e10	8	-1E+10	1	-1E+10	1	-1E+10	1	-1E+10	1	-1E+10	1	-1E+10	1
4902554	18	C	07/31/2021	14:57	-136.318	49.611	0	187.60	0	5.9180	0	33.7720	0	26.595	0	185.914	0	-1e10	8	-1e10	8	-1E+10	1	-1E+10	1	-1E+10	1	-1E+10	1	-1E+10	1	-1E+10	1
4902554	18	C	07/31/2021	14:57	-136.318	49.611	0	188.60	0	5.9100	0	33.7730	0	26.596	0	186.904	0	-1e10	8	-1e10	8	-1E+10	1	-1E+10	1	-1E+10	1	-1E+10	1	-1E+10	1	-1E+10	1
4902554	18	C	07/31/2021	14:57	-136.318	49.611	0	190.00	0	5.9050	0	33.7740	0	26.598	0	188.291	0	-1e10	8	-1e10	8	-1E+10	1	-1E+10	1	-1E+10	1	-1E+10	1	-1E+10	1	-1E+10	1
4902554	18	C	07/31/2021	14:57	-136.318	49.611	0	191.20	0	5.8980	0	33.7750	0	26.600	0	189.480	0	-1e10	8	-1e10	8	-1E+10	1	-1E+10	1	-1E+10	1	-1E+10	1	-1E+10	1	-1E+10	1
4902554	18	C	07/31/2021	14:57	-136.318	49.611	0	192.00	0	5.8940	0	33.7760	0	26.601	0	190.272	0	-1e10	8	-1e10	8	-1E+10	1	-1E+10	1	-1E+10	1	-1E+10	1	-1E+10	1	-1E+10	1
4902554	18	C	07/31/2021	14:57	-136.318	49.611	0	192.80	0	5.8870	0	33.7770	0	26.602	0	191.065	0	-1e10	8	-1e10	8	-1E+10	1	-1E+10	1	-1E+10	1	-1E+10	1	-1E+10	1	-1E+10	1
4902554	18	C	07/31/2021	14:57	-136.318	49.611	0	194.00	0	5.8760	0	33.7790	0	26.605	0	192.253	0	-1e10	8	-1e10	8	-1E+10	1	-1E+10	1	-1E+10	1	-1E+10	1	-1E+10	1	-1E+10	1
4902554	18	C	07/31/2021	14:57	-136.318	49.611	0	195.20	0	5.8650	0	33.7830	0	26.610	0	193.442	0	-1e10	8	-1e10	8	-1E+10	1	-1E+10	1	-1E+10	1	-1E+10	1	-1E+10	1	-1E+10	1
4902554	18	C	07/31/2021	14:57	-136.318	49.611	0	196.00	0	5.8640	0	33.7840	0	26.611	0	194.234	0	-1e10	8	-1e10	8	-1E+10	1	-1E+10	1	-1E+10	1	-1E+10	1	-1E+10	1	-1E+10	1
4902554	18	C	07/31/2021	14:57	-136.318	49.611	0	196.80	0	5.8610	0	33.7840	0	26.611	0	195.027	0	-1e10	8	-1e10	8	-1E+10	1	-1E+10	1	-1E+10	1	-1E+10	1	-1E+10	1	-1E+10	1
4902554	18	C	07/31/2021	14:57	-136.318	49.611	0	198.00	0	5.8310	0	33.7890	0	26.619	0	196.215	0	-1e10	8	-1e10	8	-1E+10	1	-1E+10	1	-1E+10	1	-1E+10	1	-1E+10	1	-1E+10	1
4902554	18	C	07/31/2021	14:57	-136.318	49.611	0	199.10	0	5.8150	0	33.7910	0	26.622	0	197.305	0	-1e10	8	-1e10	8	-1E+10	1	-1E+10	1	-1E+10	1	-1E+10	1	-1E+10	1	-1E+10	1
4902554	18	C	07/31/2021	14:57	-136.318	49.611	0	199.90	0	5.8050	0	33.7940	0	26.626	0	198.097	0	-1e10	8	-1e10	8	-1E+10	1	-1E+10	1	-1E+10	1	-1E+10	1	-1E+10	1	-1E+10	1
4902554	18	C	07/31/2021	14:57	-136.318	49.611	0	200.70	0	5.7650	0	33.7940	0	26.631	0	198.890	0	-1e10	8	-1e10	8	-1E+10	1	-1E+10	1	-1E+10	1	-1E+10	1	-1E+10	1	-1E+10	1
4902554	18	C	07/31/2021	14:57	-136.318	49.611	0	201.90	0	5.7490	0	33.7960	0	26.635	0	200.078	0	-1e10	8	-1e10	8	-1E+10	1	-1E+10	1	-1E+10	1	-1E+10	1	-1E+10	1	-1E+10	1
4902554	18	C	07/31/2021	14:57	-136.318	49.611	0	203.20	0	5.7390	0	33.8030	0	26.641	0	201.366	0	-1e10	8	-1e10	8	-1E+10	1	-1E+10	1	-1E+10	1	-1E+10	1	-1E+10	1	-1E+10	1
4902554	18	C	07/31/2021	14:57	-136.318	49.611	0	204.00	0	5.7200	0	33.8070	0	26.647	0	202.158	0	-1e10	8	-1e10	8	-1E+10	1	-1E+10	1	-1E+10	1	-1E+10	1	-1E+10	1	-1E+10	1
4902554	18	C	07/31/2021	14:57	-136.318	49.611	0	204.80	0	5.7030	0	33.8080	0	26.650	0	202.951	0	-1e10	8	-1e10	8	-1E+10	1	-1E+10	1	-1E+10	1	-1E+10	1	-1E+10	1	-1E+10	1
4902554	18	C	07/31/2021	14:57	-136.318	49.611	0	206.00	0	5.6830	0	33.8100	0	26.654	0	204.139	0	-1e10	8	-1e10	8	-1E+10	1	-1E+10	1	-1E+10	1	-1E+10	1	-1E+10	1	-1E+10	1
4902554	18	C	07/31/2021	14:57	-136.318	49.611	0	207.20	0	5.6510	0	33.8140	0	26.661	0	205.328	0	-1e10	8	-1e10	8	-1E+10	1	-1E+10	1	-1E+10	1	-1E+10	1	-1E+10	1	-1E+10	1
4902554	18	C	07/31/2021	14:57	-136.318	49.611	0	208.00	0	5.6440	0	33.8140	0	26.662	0	206.120	0	-1e10	8	-1e10	8	-1E+10	1	-1E+10	1	-1E+10	1	-1E+10	1	-1E+10	1	-1E+10	1
4902554	18	C	07/31/2021	14:57	-136.318	49.611	0	208.80	0	5.6350	0	33.8160	0	26.664	0	206.913	0	-1e10	8	-1e10	8	-1E+10	1	-1E+10	1	-1E+10	1	-1E+10	1	-1E+10	1	-1E+10	1
4902554	18	C	07/31/2021	14:57	-136.318	49.611	0	209.60	0	5.6120	0	33.8190	0	26.669	0	207.705	0	-1e10	8	-1e10	8	-1E+10	1	-1E+10	1	-1E+10	1	-1E+10	1	-1E+10	1	-1E+10	1
4902554	18	C	07/31/2021	14:57	-136.318	49.611	0	210.90	0	5.5930	0	33.8210	0	26.673	0	208.993	0	-1e10	8	-1e10	8	-1E+10	1	-1E+10	1	-1E+10	1	-1E+10	1	-1E+10	1	-1E+10	1
4902554	18	C	07/31/2021	14:57	-136.318	49.611	0	212.20	0	5.5750	0	33.8230	0	26.677	0	210.280	0	-1e10	8	-1e10	8	-1E+10	1	-1E+10	1	-1E+10	1	-1E+10	1	-1E+10	1	-1E+10	1
4902554	18	C	07/31/2021	14:57	-136.318	49.611	0	213.00	0	5.5700	0	33.8230	0	26.678	0	211.073	0	-1e10	8	-1e10	8	-1E+10	1	-1E+10	1	-1E+10	1	-1E+10	1	-1E+10	1	-1E+10	1
4902554	18	C	07/31/2021	14:57	-136.318	49.611	0	213.90	0	5.5620	0	33.8230	0	26.679	0	211.964	0	-1e10	8	-1e10	8	-1E+10	1	-1E+10	1	-1E+10	1	-1E+10	1	-1E+10	1	-1E+10	1
4902554	18	C	07/31/2021	14:57	-136.318	49.611	0	214.70	0	5.5350	0	33.8240	0	26.683	0	212.756	0	-1e10	8	-1e10	8	-1E+10	1	-1E+10	1	-1E+10	1	-1E+10	1	-1E+10	1	-1E+10	1
4902554	18	C	07/31/2021	14:57	-136.318	49.611	0	215.60	0	5.5210	0	33.8280	0	26.687	0	213.648	0	-1e10	8	-1e10	8	-1E+10	1	-1E+10	1	-1E+10	1	-1E+10	1	-1E+10	1	-1E+10	1
4902554	18	C	07/31/2021	14:57	-136.318	49.611	0	216.90	0	5.4910	0	33.8280	0	26.691	0	214.935	0	-1e10	8	-1e10	8	-1E+10	1	-1E+10	1	-1E+10	1	-1E+10	1	-1E+10	1	-1E+10	1
4902554	18	C	07/31/2021	14:57	-136.318	49.611	0	218.30	0	5.4720	0	33.8280	0	26.693	0	216.322	0	-1e10	8	-1e10	8	-1E+10	1	-1E+10	1	-1E+10	1	-1E+10	1	-1E+10	1	-1E+10	1
4902554	18	C	07/31/2021	14:57	-136.318	49.611	0	219.20	0	5.4740	0	33.8310	0	26.695	0	217.213	0	-1e10	8	-1e10	8	-1E+10	1	-1E+10	1	-1E+10	1	-1E+10	1	-1E+10	1	-1E+10	1
4902554	18	C	07/31/2021	14:57	-136.318	49.611	0	220.10	0	5.4720	0	33.8310	0	26.696	0	218.105	0	-1e10	8	-1e10	8	-1E+10	1	-1E+10	1	-1E+10	1	-1E+10	1	-1E+10	1	-1E+10	1
4902554	18	C	07/31/2021	14:57	-136.318	49.611	0	221.00	0	5.4670	0	33.8310	0	26.696	0	218.996	0	-1e10	8	-1e10	8	-1E+10	1	-1E+10	1	-1E+10	1	-1E+10	1	-1E+10	1	-1E+10	1
4902554	18	C	07/31/2021	14:57	-136.318	49.611	0	221.80	0	5.4560	0	33.8310	0	26.698	0	219.788	0	-1e10	8	-1e10	8	-1E+10	1	-1E+10	1	-1E+10	1	-1E+10	1	-1E+10	1	-1E+10	1
4902554	18	C	07/31/2021	14:57	-136.318	49.611	0	222.80	0	5.4500	0	33.8320	0	26.699	0	220.779	0	-1e10	8	-1e10	8	-1E+10	1	-1E+10	1	-1E+10	1	-1E+10	1	-1E+10	1	-1E+10	1
4902554	18	C	07/31/2021	14:57	-136.318	49.611	0	223.70	0	5.4390	0	33.8350	0	26.703	0	221.670	0	-1e10	8	-1e10	8	-1E+10	1	-1E+10	1	-1E+10	1	-1E+10	1	-1E+10	1	-1E+10	1
4902554	18	C	07/31/2021	14:57	-136.318	49.611	0	224.60	0	5.4320	0	33.8360	0	26.704	0	222.561	0	-1e10	8	-1e10	8	-1E+10	1	-1E+10	1	-1E+10	1	-1E+10	1	-1E+10	1	-1E+10	1
4902554	18	C	07/31/2021	14:57	-136.318	49.611	0	225.60	0	5.4230	0	33.8370	0	26.706	0	223.552	0	-1e10	8	-1e10	8	-1E+10	1	-1E+10	1	-1E+10	1	-1E+10	1	-1E+10	1	-1E+10	1
4902554	18	C	07/31/2021	14:57	-136.318	49.611	0	226.60	0	5.4200	0	33.8380	0	26.708	0	224.542	0	-1e10	8	-1e10	8	-1E+10	1	-1E+10	1	-1E+10	1	-1E+10	1	-1E+10	1	-1E+10	1
4902554	18	C	07/31/2021	14:57	-136.318	49.611	0	227.50	0	5.4120	0	33.8400	0	26.710	0	225.433	0	-1e10	8	-1e10	8	-1E+10	1	-1E+10	1	-1E+10	1	-1E+10	1	-1E+10	1	-1E+10	1
4902554	18	C	07/31/2021	14:57	-136.318	49.611	0	228.50	0	5.4060	0	33.8400	0	26.711	0	226.424	0	-1e10	8	-1e10	8	-1E+10	1	-1E+10	1	-1E+10	1	-1E+10	1	-1E+10	1	-1E+10	1
4902554	18	C	07/31/2021	14:57	-136.318	49.611	0	229.50	0	5.4000	0	33.8410	0	26.712	0	227.414	0	-1e10	8	-1e10	8	-1E+10	1	-1E+10	1	-1E+10	1	-1E+10	1	-1E+10	1	-1E+10	1
4902554	18	C	07/31/2021	14:57	-136.318	49.611	0	230.50	0	5.3920	0	33.8420	0	26.714	0	228.405	0	-1e10	8	-1e10	8	-1E+10	1	-1E+10	1	-1E+10	1	-1E+10	1	-1E+10	1	-1E+10	1
4902554	18	C	07/31/2021	14:57	-136.318	49.611	0	231.50	0	5.3830	0	33.8430	0	26.716	0	229.395	0	-1e10	8	-1e10	8	-1E+10	1	-1E+10	1	-1E+10	1	-1E+10	1	-1E+10	1	-1E+10	1
4902554	18	C	07/31/2021	14:57	-136.318	49.611	0	232.50	0	5.3720	0	33.8450	0	26.719	0	230.385	0	-1e10	8	-1e10	8	-1E+10	1	-1E+10	1	-1E+10	1	-1E+10	1	-1E+10	1	-1E+10	1
4902554	18	C	07/31/2021	14:57	-136.318	49.611	0	233.50	0	5.3590	0	33.8450	0	26.720	0	231.376	0	-1e10	8	-1e10	8	-1E+10	1	-1E+10	1	-1E+10	1	-1E+10	1	-1E+10	1	-1E+10	1
4902554	18	C	07/31/2021	14:57	-136.318	49.611	0	234.50	0	5.3470	0	33.8460	0	26.723	0	232.366	0	-1e10	8	-1e10	8	-1E+10	1	-1E+10	1	-1E+10	1	-1E+10	1	-1E+10	1	-1E+10	1
4902554	18	C	07/31/2021	14:57	-136.318	49.611	0	235.50	0	5.3420	0	33.8460	0	26.723	0	233.356	0	-1e10	8	-1e10	8	-1E+10	1	-1E+10	1	-1E+10	1	-1E+10	1	-1E+10	1	-1E+10	1
4902554	18	C	07/31/2021	14:57	-136.318	49.611	0	236.50	0	5.3270	0	33.8490	0	26.727	0	234.347	0	-1e10	8	-1e10	8	-1E+10	1	-1E+10	1	-1E+10	1	-1E+10	1	-1E+10	1	-1E+10	1
4902554	18	C	07/31/2021	14:57	-136.318	49.611	0	237.50	0	5.3190	0	33.8490	0	26.728	0	235.337	0	-1e10	8	-1e10	8	-1E+10	1	-1E+10	1	-1E+10	1	-1E+10	1	-1E+10	1	-1E+10	1
4902554	18	C	07/31/2021	14:57	-136.318	49.611	0	238.60	0	5.2980	0	33.8510	0	26.732	0	236.426	0	-1e10	8	-1e10	8	-1E+10	1	-1E+10	1	-1E+10	1	-1E+10	1	-1E+10	1	-1E+10	1
4902554	18	C	07/31/2021	14:57	-136.318	49.611	0	239.60	0	5.2910	0	33.8500	0	26.732	0	237.417	0	-1e10	8	-1e10	8	-1E+10	1	-1E+10	1	-1E+10	1	-1E+10	1	-1E+10	1	-1E+10	1
4902554	18	C	07/31/2021	14:57	-136.318	49.611	0	240.70	0	5.2860	0	33.8500	0	26.733	0	238.506	0	-1e10	8	-1e10	8	-1E+10	1	-1E+10	1	-1E+10	1	-1E+10	1	-1E+10	1	-1E+10	1
4902554	18	C	07/31/2021	14:57	-136.318	49.611	0	241.70	0	5.2830	0	33.8510	0	26.734	0	239.496	0	-1e10	8	-1e10	8	-1E+10	1	-1E+10	1	-1E+10	1	-1E+10	1	-1E+10	1	-1E+10	1
4902554	18	C	07/31/2021	14:57	-136.318	49.611	0	242.80	0	5.2800	0	33.8500	0	26.734	0	240.586	0	-1e10	8	-1e10	8	-1E+10	1	-1E+10	1	-1E+10	1	-1E+10	1	-1E+10	1	-1E+10	1
4902554	18	C	07/31/2021	14:57	-136.318	49.611	0	243.80	0	5.2660	0	33.8510	0	26.736	0	241.576	0	-1e10	8	-1e10	8	-1E+10	1	-1E+10	1	-1E+10	1	-1E+10	1	-1E+10	1	-1E+10	1
4902554	18	C	07/31/2021	14:57	-136.318	49.611	0	244.90	0	5.2550	0	33.8520	0	26.738	0	242.665	0	-1e10	8	-1e10	8	-1E+10	1	-1E+10	1	-1E+10	1	-1E+10	1	-1E+10	1	-1E+10	1
4902554	18	C	07/31/2021	14:57	-136.318	49.611	0	246.00	0	5.2310	0	33.8510	0	26.740	0	243.755	0	-1e10	8	-1e10	8	-1E+10	1	-1E+10	1	-1E+10	1	-1E+10	1	-1E+10	1	-1E+10	1
4902554	18	C	07/31/2021	14:57	-136.318	49.611	0	247.00	0	5.2210	0	33.8500	0	26.740	0	244.745	0	-1e10	8	-1e10	8	-1E+10	1	-1E+10	1	-1E+10	1	-1E+10	1	-1E+10	1	-1E+10	1
4902554	18	C	07/31/2021	14:57	-136.318	49.611	0	248.10	0	5.2070	0	33.8510	0	26.743	0	245.834	0	-1e10	8	-1e10	8	-1E+10	1	-1E+10	1	-1E+10	1	-1E+10	1	-1E+10	1	-1E+10	1
4902554	18	C	07/31/2021	14:57	-136.318	49.611	0	249.20	0	5.1950	0	33.8520	0	26.745	0	246.923	0	-1e10	8	-1e10	8	-1E+10	1	-1E+10	1	-1E+10	1	-1E+10	1	-1E+10	1	-1E+10	1
4902554	18	C	07/31/2021	14:57	-136.318	49.611	0	250.30	0	5.1650	0	33.8560	0	26.752	0	248.013	0	-1e10	8	-1e10	8	-1E+10	1	-1E+10	1	-1E+10	1	-1E+10	1	-1E+10	1	-1E+10	1
4902554	18	C	07/31/2021	14:57	-136.318	49.611	0	251.40	0	5.1670	0	33.8570	0	26.752	0	249.102	0	-1e10	8	-1e10	8	-1E+10	1	-1E+10	1	-1E+10	1	-1E+10	1	-1E+10	1	-1E+10	1
4902554	18	C	07/31/2021	14:57	-136.318	49.611	0	252.50	0	5.1580	0	33.8620	0	26.757	0	250.191	0	-1e10	8	-1e10	8	-1E+10	1	-1E+10	1	-1E+10	1	-1E+10	1	-1E+10	1	-1E+10	1
4902554	18	C	07/31/2021	14:57	-136.318	49.611	0	253.60	0	5.1540	0	33.8620	0	26.758	0	251.281	0	-1e10	8	-1e10	8	-1E+10	1	-1E+10	1	-1E+10	1	-1E+10	1	-1E+10	1	-1E+10	1
4902554	18	C	07/31/2021	14:57	-136.318	49.611	0	254.70	0	5.1510	0	33.8620	0	26.758	0	252.370	0	-1e10	8	-1e10	8	-1E+10	1	-1E+10	1	-1E+10	1	-1E+10	1	-1E+10	1	-1E+10	1
4902554	18	C	07/31/2021	14:57	-136.318	49.611	0	255.80	0	5.1350	0	33.8640	0	26.762	0	253.459	0	-1e10	8	-1e10	8	-1E+10	1	-1E+10	1	-1E+10	1	-1E+10	1	-1E+10	1	-1E+10	1
4902554	18	C	07/31/2021	14:57	-136.318	49.611	0	256.90	0	5.1190	0	33.8650	0	26.764	0	254.548	0	-1e10	8	-1e10	8	-1E+10	1	-1E+10	1	-1E+10	1	-1E+10	1	-1E+10	1	-1E+10	1
4902554	18	C	07/31/2021	14:57	-136.318	49.611	0	258.10	0	5.1060	0	33.8660	0	26.767	0	255.737	0	-1e10	8	-1e10	8	-1E+10	1	-1E+10	1	-1E+10	1	-1E+10	1	-1E+10	1	-1E+10	1
4902554	18	C	07/31/2021	14:57	-136.318	49.611	0	259.20	0	5.0880	0	33.8690	0	26.771	0	256.826	0	-1e10	8	-1e10	8	-1E+10	1	-1E+10	1	-1E+10	1	-1E+10	1	-1E+10	1	-1E+10	1
4902554	18	C	07/31/2021	14:57	-136.318	49.611	0	260.30	0	5.0700	0	33.8700	0	26.774	0	257.915	0	-1e10	8	-1e10	8	-1E+10	1	-1E+10	1	-1E+10	1	-1E+10	1	-1E+10	1	-1E+10	1
4902554	18	C	07/31/2021	14:57	-136.318	49.611	0	261.40	0	5.0620	0	33.8690	0	26.774	0	259.004	0	-1e10	8	-1e10	8	-1E+10	1	-1E+10	1	-1E+10	1	-1E+10	1	-1E+10	1	-1E+10	1
4902554	18	C	07/31/2021	14:57	-136.318	49.611	0	262.50	0	5.0460	0	33.8710	0	26.777	0	260.094	0	-1e10	8	-1e10	8	-1E+10	1	-1E+10	1	-1E+10	1	-1E+10	1	-1E+10	1	-1E+10	1
4902554	18	C	07/31/2021	14:57	-136.318	49.611	0	263.60	0	5.0250	0	33.8720	0	26.781	0	261.183	0	-1e10	8	-1e10	8	-1E+10	1	-1E+10	1	-1E+10	1	-1E+10	1	-1E+10	1	-1E+10	1
4902554	18	C	07/31/2021	14:57	-136.318	49.611	0	264.70	0	5.0250	0	33.8720	0	26.781	0	262.272	0	-1e10	8	-1e10	8	-1E+10	1	-1E+10	1	-1E+10	1	-1E+10	1	-1E+10	1	-1E+10	1
4902554	18	C	07/31/2021	14:57	-136.318	49.611	0	265.80	0	5.0210	0	33.8720	0	26.781	0	263.361	0	-1e10	8	-1e10	8	-1E+10	1	-1E+10	1	-1E+10	1	-1E+10	1	-1E+10	1	-1E+10	1
4902554	18	C	07/31/2021	14:57	-136.318	49.611	0	267.00	0	5.0010	0	33.8730	0	26.784	0	264.549	0	-1e10	8	-1e10	8	-1E+10	1	-1E+10	1	-1E+10	1	-1E+10	1	-1E+10	1	-1E+10	1
4902554	18	C	07/31/2021	14:57	-136.318	49.611	0	268.10	0	4.9920	0	33.8740	0	26.786	0	265.639	0	-1e10	8	-1e10	8	-1E+10	1	-1E+10	1	-1E+10	1	-1E+10	1	-1E+10	1	-1E+10	1
4902554	18	C	07/31/2021	14:57	-136.318	49.611	0	269.20	0	4.9810	0	33.8760	0	26.789	0	266.728	0	-1e10	8	-1e10	8	-1E+10	1	-1E+10	1	-1E+10	1	-1E+10	1	-1E+10	1	-1E+10	1
4902554	18	C	07/31/2021	14:57	-136.318	49.611	0	270.40	0	4.9670	0	33.8770	0	26.791	0	267.916	0	-1e10	8	-1e10	8	-1E+10	1	-1E+10	1	-1E+10	1	-1E+10	1	-1E+10	1	-1E+10	1
4902554	18	C	07/31/2021	14:57	-136.318	49.611	0	271.50	0	4.9630	0	33.8770	0	26.792	0	269.005	0	-1e10	8	-1e10	8	-1E+10	1	-1E+10	1	-1E+10	1	-1E+10	1	-1E+10	1	-1E+10	1
4902554	18	C	07/31/2021	14:57	-136.318	49.611	0	272.60	0	4.9390	0	33.8770	0	26.794	0	270.094	0	-1e10	8	-1e10	8	-1E+10	1	-1E+10	1	-1E+10	1	-1E+10	1	-1E+10	1	-1E+10	1
4902554	18	C	07/31/2021	14:57	-136.318	49.611	0	273.80	0	4.9310	0	33.8770	0	26.795	0	271.283	0	-1e10	8	-1e10	8	-1E+10	1	-1E+10	1	-1E+10	1	-1E+10	1	-1E+10	1	-1E+10	1
4902554	18	C	07/31/2021	14:57	-136.318	49.611	0	274.90	0	4.9230	0	33.8770	0	26.796	0	272.372	0	-1e10	8	-1e10	8	-1E+10	1	-1E+10	1	-1E+10	1	-1E+10	1	-1E+10	1	-1E+10	1
4902554	18	C	07/31/2021	14:57	-136.318	49.611	0	276.00	0	4.9130	0	33.8770	0	26.797	0	273.461	0	-1e10	8	-1e10	8	-1E+10	1	-1E+10	1	-1E+10	1	-1E+10	1	-1E+10	1	-1E+10	1
4902554	18	C	07/31/2021	14:57	-136.318	49.611	0	277.20	0	4.9090	0	33.8750	0	26.796	0	274.649	0	-1e10	8	-1e10	8	-1E+10	1	-1E+10	1	-1E+10	1	-1E+10	1	-1E+10	1	-1E+10	1
4902554	18	C	07/31/2021	14:57	-136.318	49.611	0	278.30	0	4.8990	0	33.8760	0	26.798	0	275.738	0	-1e10	8	-1e10	8	-1E+10	1	-1E+10	1	-1E+10	1	-1E+10	1	-1E+10	1	-1E+10	1
4902554	18	C	07/31/2021	14:57	-136.318	49.611	0	279.50	0	4.8900	0	33.8760	0	26.799	0	276.926	0	-1e10	8	-1e10	8	-1E+10	1	-1E+10	1	-1E+10	1	-1E+10	1	-1E+10	1	-1E+10	1
4902554	18	C	07/31/2021	14:57	-136.318	49.611	0	280.60	0	4.8790	0	33.8770	0	26.801	0	278.016	0	-1e10	8	-1e10	8	-1E+10	1	-1E+10	1	-1E+10	1	-1E+10	1	-1E+10	1	-1E+10	1
4902554	18	C	07/31/2021	14:57	-136.318	49.611	0	281.70	0	4.8710	0	33.8770	0	26.802	0	279.105	0	-1e10	8	-1e10	8	-1E+10	1	-1E+10	1	-1E+10	1	-1E+10	1	-1E+10	1	-1E+10	1
4902554	18	C	07/31/2021	14:57	-136.318	49.611	0	282.80	0	4.8670	0	33.8770	0	26.803	0	280.194	0	-1e10	8	-1e10	8	-1E+10	1	-1E+10	1	-1E+10	1	-1E+10	1	-1E+10	1	-1E+10	1
4902554	18	C	07/31/2021	14:57	-136.318	49.611	0	284.00	0	4.8730	0	33.8790	0	26.803	0	281.382	0	-1e10	8	-1e10	8	-1E+10	1	-1E+10	1	-1E+10	1	-1E+10	1	-1E+10	1	-1E+10	1
4902554	18	C	07/31/2021	14:57	-136.318	49.611	0	285.10	0	4.8780	0	33.8820	0	26.805	0	282.471	0	-1e10	8	-1e10	8	-1E+10	1	-1E+10	1	-1E+10	1	-1E+10	1	-1E+10	1	-1E+10	1
4902554	18	C	07/31/2021	14:57	-136.318	49.611	0	286.20	0	4.8740	0	33.8820	0	26.806	0	283.560	0	-1e10	8	-1e10	8	-1E+10	1	-1E+10	1	-1E+10	1	-1E+10	1	-1E+10	1	-1E+10	1
4902554	18	C	07/31/2021	14:57	-136.318	49.611	0	287.40	0	4.8680	0	33.8830	0	26.807	0	284.748	0	-1e10	8	-1e10	8	-1E+10	1	-1E+10	1	-1E+10	1	-1E+10	1	-1E+10	1	-1E+10	1
4902554	18	C	07/31/2021	14:57	-136.318	49.611	0	288.50	0	4.8610	0	33.8830	0	26.808	0	285.837	0	-1e10	8	-1e10	8	-1E+10	1	-1E+10	1	-1E+10	1	-1E+10	1	-1E+10	1	-1E+10	1
4902554	18	C	07/31/2021	14:57	-136.318	49.611	0	289.60	0	4.8490	0	33.8840	0	26.810	0	286.926	0	-1e10	8	-1e10	8	-1E+10	1	-1E+10	1	-1E+10	1	-1E+10	1	-1E+10	1	-1E+10	1
4902554	18	C	07/31/2021	14:57	-136.318	49.611	0	290.80	0	4.8430	0	33.8840	0	26.811	0	288.114	0	-1e10	8	-1e10	8	-1E+10	1	-1E+10	1	-1E+10	1	-1E+10	1	-1E+10	1	-1E+10	1
4902554	18	C	07/31/2021	14:57	-136.318	49.611	0	291.90	0	4.8370	0	33.8840	0	26.811	0	289.204	0	-1e10	8	-1e10	8	-1E+10	1	-1E+10	1	-1E+10	1	-1E+10	1	-1E+10	1	-1E+10	1
4902554	18	C	07/31/2021	14:57	-136.318	49.611	0	293.00	0	4.8220	0	33.8840	0	26.813	0	290.293	0	-1e10	8	-1e10	8	-1E+10	1	-1E+10	1	-1E+10	1	-1E+10	1	-1E+10	1	-1E+10	1
4902554	18	C	07/31/2021	14:57	-136.318	49.611	0	294.10	0	4.8230	0	33.8880	0	26.816	0	291.382	0	-1e10	8	-1e10	8	-1E+10	1	-1E+10	1	-1E+10	1	-1E+10	1	-1E+10	1	-1E+10	1
4902554	18	C	07/31/2021	14:57	-136.318	49.611	0	295.30	0	4.8340	0	33.8930	0	26.819	0	292.570	0	-1e10	8	-1e10	8	-1E+10	1	-1E+10	1	-1E+10	1	-1E+10	1	-1E+10	1	-1E+10	1
4902554	18	C	07/31/2021	14:57	-136.318	49.611	0	296.40	0	4.8330	0	33.8930	0	26.819	0	293.659	0	-1e10	8	-1e10	8	-1E+10	1	-1E+10	1	-1E+10	1	-1E+10	1	-1E+10	1	-1E+10	1
4902554	18	C	07/31/2021	14:57	-136.318	49.611	0	297.50	0	4.8350	0	33.8960	0	26.821	0	294.748	0	-1e10	8	-1e10	8	-1E+10	1	-1E+10	1	-1E+10	1	-1E+10	1	-1E+10	1	-1E+10	1
4902554	18	C	07/31/2021	14:57	-136.318	49.611	0	298.70	0	4.8400	0	33.9010	0	26.825	0	295.936	0	-1e10	8	-1e10	8	-1E+10	1	-1E+10	1	-1E+10	1	-1E+10	1	-1E+10	1	-1E+10	1
4902554	18	C	07/31/2021	14:57	-136.318	49.611	0	299.80	0	4.8230	0	33.9010	0	26.827	0	297.025	0	-1e10	8	-1e10	8	-1E+10	1	-1E+10	1	-1E+10	1	-1E+10	1	-1E+10	1	-1E+10	1
4902554	18	C	07/31/2021	14:57	-136.318	49.611	0	300.90	0	4.8190	0	33.9020	0	26.828	0	298.114	0	-1e10	8	-1e10	8	-1E+10	1	-1E+10	1	-1E+10	1	-1E+10	1	-1E+10	1	-1E+10	1
4902554	18	C	07/31/2021	14:57	-136.318	49.611	0	302.00	0	4.8120	0	33.9030	0	26.829	0	299.203	0	-1e10	8	-1e10	8	-1E+10	1	-1E+10	1	-1E+10	1	-1E+10	1	-1E+10	1	-1E+10	1
4902554	18	C	07/31/2021	14:57	-136.318	49.611	0	303.10	0	4.8040	0	33.9050	0	26.832	0	300.292	0	-1e10	8	-1e10	8	-1E+10	1	-1E+10	1	-1E+10	1	-1E+10	1	-1E+10	1	-1E+10	1
4902554	18	C	07/31/2021	14:57	-136.318	49.611	0	304.30	0	4.7990	0	33.9050	0	26.832	0	301.480	0	-1e10	8	-1e10	8	-1E+10	1	-1E+10	1	-1E+10	1	-1E+10	1	-1E+10	1	-1E+10	1
4902554	18	C	07/31/2021	14:57	-136.318	49.611	0	305.40	0	4.7930	0	33.9060	0	26.834	0	302.569	0	-1e10	8	-1e10	8	-1E+10	1	-1E+10	1	-1E+10	1	-1E+10	1	-1E+10	1	-1E+10	1
4902554	18	C	07/31/2021	14:57	-136.318	49.611	0	306.50	0	4.7840	0	33.9060	0	26.835	0	303.658	0	-1e10	8	-1e10	8	-1E+10	1	-1E+10	1	-1E+10	1	-1E+10	1	-1E+10	1	-1E+10	1
4902554	18	C	07/31/2021	14:57	-136.318	49.611	0	307.70	0	4.7780	0	33.9060	0	26.836	0	304.846	0	-1e10	8	-1e10	8	-1E+10	1	-1E+10	1	-1E+10	1	-1E+10	1	-1E+10	1	-1E+10	1
4902554	18	C	07/31/2021	14:57	-136.318	49.611	0	308.80	0	4.7790	0	33.9060	0	26.836	0	305.935	0	-1e10	8	-1e10	8	-1E+10	1	-1E+10	1	-1E+10	1	-1E+10	1	-1E+10	1	-1E+10	1
4902554	18	C	07/31/2021	14:57	-136.318	49.611	0	310.00	0	4.7650	0	33.9080	0	26.839	0	307.123	0	-1e10	8	-1e10	8	-1E+10	1	-1E+10	1	-1E+10	1	-1E+10	1	-1E+10	1	-1E+10	1
4902554	18	C	07/31/2021	14:57	-136.318	49.611	0	311.10	0	4.7490	0	33.9090	0	26.841	0	308.212	0	-1e10	8	-1e10	8	-1E+10	1	-1E+10	1	-1E+10	1	-1E+10	1	-1E+10	1	-1E+10	1
4902554	18	C	07/31/2021	14:57	-136.318	49.611	0	312.20	0	4.7370	0	33.9110	0	26.844	0	309.301	0	-1e10	8	-1e10	8	-1E+10	1	-1E+10	1	-1E+10	1	-1E+10	1	-1E+10	1	-1E+10	1
4902554	18	C	07/31/2021	14:57	-136.318	49.611	0	313.40	0	4.7280	0	33.9130	0	26.847	0	310.489	0	-1e10	8	-1e10	8	-1E+10	1	-1E+10	1	-1E+10	1	-1E+10	1	-1E+10	1	-1E+10	1
4902554	18	C	07/31/2021	14:57	-136.318	49.611	0	314.50	0	4.7210	0	33.9150	0	26.849	0	311.578	0	-1e10	8	-1e10	8	-1E+10	1	-1E+10	1	-1E+10	1	-1E+10	1	-1E+10	1	-1E+10	1
4902554	18	C	07/31/2021	14:57	-136.318	49.611	0	315.70	0	4.7200	0	33.9150	0	26.849	0	312.766	0	-1e10	8	-1e10	8	-1E+10	1	-1E+10	1	-1E+10	1	-1E+10	1	-1E+10	1	-1E+10	1
4902554	18	C	07/31/2021	14:57	-136.318	49.611	0	316.80	0	4.7190	0	33.9160	0	26.850	0	313.855	0	-1e10	8	-1e10	8	-1E+10	1	-1E+10	1	-1E+10	1	-1E+10	1	-1E+10	1	-1E+10	1
4902554	18	C	07/31/2021	14:57	-136.318	49.611	0	317.90	0	4.7150	0	33.9170	0	26.851	0	314.944	0	-1e10	8	-1e10	8	-1E+10	1	-1E+10	1	-1E+10	1	-1E+10	1	-1E+10	1	-1E+10	1
4902554	18	C	07/31/2021	14:57	-136.318	49.611	0	319.10	0	4.7130	0	33.9170	0	26.852	0	316.132	0	-1e10	8	-1e10	8	-1E+10	1	-1E+10	1	-1E+10	1	-1E+10	1	-1E+10	1	-1E+10	1
4902554	18	C	07/31/2021	14:57	-136.318	49.611	0	320.20	0	4.7100	0	33.9170	0	26.852	0	317.220	0	-1e10	8	-1e10	8	-1E+10	1	-1E+10	1	-1E+10	1	-1E+10	1	-1E+10	1	-1E+10	1
4902554	18	C	07/31/2021	14:57	-136.318	49.611	0	321.30	0	4.7080	0	33.9170	0	26.852	0	318.309	0	-1e10	8	-1e10	8	-1E+10	1	-1E+10	1	-1E+10	1	-1E+10	1	-1E+10	1	-1E+10	1
4902554	18	C	07/31/2021	14:57	-136.318	49.611	0	322.40	0	4.7080	0	33.9190	0	26.854	0	319.398	0	-1e10	8	-1e10	8	-1E+10	1	-1E+10	1	-1E+10	1	-1E+10	1	-1E+10	1	-1E+10	1
4902554	18	C	07/31/2021	14:57	-136.318	49.611	0	323.60	0	4.7040	0	33.9190	0	26.854	0	320.586	0	-1e10	8	-1e10	8	-1E+10	1	-1E+10	1	-1E+10	1	-1E+10	1	-1E+10	1	-1E+10	1
4902554	18	C	07/31/2021	14:57	-136.318	49.611	0	324.70	0	4.7040	0	33.9210	0	26.856	0	321.675	0	-1e10	8	-1e10	8	-1E+10	1	-1E+10	1	-1E+10	1	-1E+10	1	-1E+10	1	-1E+10	1
4902554	18	C	07/31/2021	14:57	-136.318	49.611	0	325.80	0	4.6920	0	33.9220	0	26.858	0	322.764	0	-1e10	8	-1e10	8	-1E+10	1	-1E+10	1	-1E+10	1	-1E+10	1	-1E+10	1	-1E+10	1
4902554	18	C	07/31/2021	14:57	-136.318	49.611	0	326.90	0	4.6900	0	33.9220	0	26.858	0	323.853	0	-1e10	8	-1e10	8	-1E+10	1	-1E+10	1	-1E+10	1	-1E+10	1	-1E+10	1	-1E+10	1
4902554	18	C	07/31/2021	14:57	-136.318	49.611	0	328.00	0	4.6760	0	33.9240	0	26.861	0	324.942	0	-1e10	8	-1e10	8	-1E+10	1	-1E+10	1	-1E+10	1	-1E+10	1	-1E+10	1	-1E+10	1
4902554	18	C	07/31/2021	14:57	-136.318	49.611	0	329.10	0	4.6710	0	33.9230	0	26.861	0	326.031	0	-1e10	8	-1e10	8	-1E+10	1	-1E+10	1	-1E+10	1	-1E+10	1	-1E+10	1	-1E+10	1
4902554	18	C	07/31/2021	14:57	-136.318	49.611	0	330.30	0	4.6590	0	33.9270	0	26.866	0	327.218	0	-1e10	8	-1e10	8	-1E+10	1	-1E+10	1	-1E+10	1	-1E+10	1	-1E+10	1	-1E+10	1
4902554	18	C	07/31/2021	14:57	-136.318	49.611	0	331.30	0	4.6550	0	33.9280	0	26.867	0	328.208	0	-1e10	8	-1e10	8	-1E+10	1	-1E+10	1	-1E+10	1	-1E+10	1	-1E+10	1	-1E+10	1
4902554	18	C	07/31/2021	14:57	-136.318	49.611	0	332.40	0	4.6480	0	33.9290	0	26.868	0	329.297	0	-1e10	8	-1e10	8	-1E+10	1	-1E+10	1	-1E+10	1	-1E+10	1	-1E+10	1	-1E+10	1
4902554	18	C	07/31/2021	14:57	-136.318	49.611	0	333.50	0	4.6430	0	33.9280	0	26.868	0	330.386	0	-1e10	8	-1e10	8	-1E+10	1	-1E+10	1	-1E+10	1	-1E+10	1	-1E+10	1	-1E+10	1
4902554	18	C	07/31/2021	14:57	-136.318	49.611	0	334.60	0	4.6380	0	33.9280	0	26.869	0	331.475	0	-1e10	8	-1e10	8	-1E+10	1	-1E+10	1	-1E+10	1	-1E+10	1	-1E+10	1	-1E+10	1
4902554	18	C	07/31/2021	14:57	-136.318	49.611	0	335.70	0	4.6260	0	33.9310	0	26.872	0	332.564	0	-1e10	8	-1e10	8	-1E+10	1	-1E+10	1	-1E+10	1	-1E+10	1	-1E+10	1	-1E+10	1
4902554	18	C	07/31/2021	14:57	-136.318	49.611	0	336.80	0	4.6190	0	33.9300	0	26.872	0	333.653	0	-1e10	8	-1e10	8	-1E+10	1	-1E+10	1	-1E+10	1	-1E+10	1	-1E+10	1	-1E+10	1
4902554	18	C	07/31/2021	14:57	-136.318	49.611	0	337.90	0	4.6190	0	33.9310	0	26.873	0	334.741	0	-1e10	8	-1e10	8	-1E+10	1	-1E+10	1	-1E+10	1	-1E+10	1	-1E+10	1	-1E+10	1
4902554	18	C	07/31/2021	14:57	-136.318	49.611	0	339.00	0	4.6240	0	33.9340	0	26.875	0	335.830	0	-1e10	8	-1e10	8	-1E+10	1	-1E+10	1	-1E+10	1	-1E+10	1	-1E+10	1	-1E+10	1
4902554	18	C	07/31/2021	14:57	-136.318	49.611	0	340.10	0	4.6140	0	33.9340	0	26.876	0	336.919	0	-1e10	8	-1e10	8	-1E+10	1	-1E+10	1	-1E+10	1	-1E+10	1	-1E+10	1	-1E+10	1
4902554	18	C	07/31/2021	14:57	-136.318	49.611	0	341.20	0	4.6080	0	33.9350	0	26.878	0	338.008	0	-1e10	8	-1e10	8	-1E+10	1	-1E+10	1	-1E+10	1	-1E+10	1	-1E+10	1	-1E+10	1
4902554	18	C	07/31/2021	14:57	-136.318	49.611	0	342.30	0	4.6070	0	33.9370	0	26.879	0	339.097	0	-1e10	8	-1e10	8	-1E+10	1	-1E+10	1	-1E+10	1	-1E+10	1	-1E+10	1	-1E+10	1
4902554	18	C	07/31/2021	14:57	-136.318	49.611	0	343.40	0	4.6060	0	33.9370	0	26.879	0	340.186	0	-1e10	8	-1e10	8	-1E+10	1	-1E+10	1	-1E+10	1	-1E+10	1	-1E+10	1	-1E+10	1
4902554	18	C	07/31/2021	14:57	-136.318	49.611	0	344.50	0	4.5990	0	33.9390	0	26.882	0	341.274	0	-1e10	8	-1e10	8	-1E+10	1	-1E+10	1	-1E+10	1	-1E+10	1	-1E+10	1	-1E+10	1
4902554	18	C	07/31/2021	14:57	-136.318	49.611	0	345.50	0	4.5740	0	33.9390	0	26.884	0	342.264	0	-1e10	8	-1e10	8	-1E+10	1	-1E+10	1	-1E+10	1	-1E+10	1	-1E+10	1	-1E+10	1
4902554	18	C	07/31/2021	14:57	-136.318	49.611	0	346.60	0	4.5680	0	33.9380	0	26.884	0	343.353	0	-1e10	8	-1e10	8	-1E+10	1	-1E+10	1	-1E+10	1	-1E+10	1	-1E+10	1	-1E+10	1
4902554	18	C	07/31/2021	14:57	-136.318	49.611	0	347.70	0	4.5590	0	33.9380	0	26.885	0	344.442	0	-1e10	8	-1e10	8	-1E+10	1	-1E+10	1	-1E+10	1	-1E+10	1	-1E+10	1	-1E+10	1
4902554	18	C	07/31/2021	14:57	-136.318	49.611	0	348.80	0	4.5570	0	33.9390	0	26.886	0	345.530	0	-1e10	8	-1e10	8	-1E+10	1	-1E+10	1	-1E+10	1	-1E+10	1	-1E+10	1	-1E+10	1
4902554	18	C	07/31/2021	14:57	-136.318	49.611	0	349.90	0	4.5570	0	33.9390	0	26.886	0	346.619	0	-1e10	8	-1e10	8	-1E+10	1	-1E+10	1	-1E+10	1	-1E+10	1	-1E+10	1	-1E+10	1
4902554	18	C	07/31/2021	14:57	-136.318	49.611	0	353.00	0	4.5530	0	33.9410	0	26.888	0	349.688	0	-1e10	8	-1e10	8	-1E+10	1	-1E+10	1	-1E+10	1	-1E+10	1	-1E+10	1	-1E+10	1
4902554	18	C	07/31/2021	14:57	-136.318	49.611	0	357.90	0	4.5330	0	33.9450	0	26.894	0	354.537	0	-1e10	8	-1e10	8	-1E+10	1	-1E+10	1	-1E+10	1	-1E+10	1	-1E+10	1	-1E+10	1
4902554	18	C	07/31/2021	14:57	-136.318	49.611	0	362.80	0	4.5010	0	33.9490	0	26.900	0	359.387	0	-1e10	8	-1e10	8	-1E+10	1	-1E+10	1	-1E+10	1	-1E+10	1	-1E+10	1	-1E+10	1
4902554	18	C	07/31/2021	14:57	-136.318	49.611	0	367.80	0	4.4770	0	33.9550	0	26.908	0	364.336	0	-1e10	8	-1e10	8	-1E+10	1	-1E+10	1	-1E+10	1	-1E+10	1	-1E+10	1	-1E+10	1
4902554	18	C	07/31/2021	14:57	-136.318	49.611	0	372.80	0	4.4580	0	33.9580	0	26.912	0	369.284	0	-1e10	8	-1e10	8	-1E+10	1	-1E+10	1	-1E+10	1	-1E+10	1	-1E+10	1	-1E+10	1
4902554	18	C	07/31/2021	14:57	-136.318	49.611	0	377.90	0	4.4340	0	33.9620	0	26.918	0	374.331	0	-1e10	8	-1e10	8	-1E+10	1	-1E+10	1	-1E+10	1	-1E+10	1	-1E+10	1	-1E+10	1
4902554	18	C	07/31/2021	14:57	-136.318	49.611	0	383.00	0	4.4220	0	33.9660	0	26.923	0	379.379	0	-1e10	8	-1e10	8	-1E+10	1	-1E+10	1	-1E+10	1	-1E+10	1	-1E+10	1	-1E+10	1
4902554	18	C	07/31/2021	14:57	-136.318	49.611	0	388.10	0	4.4060	0	33.9710	0	26.928	0	384.426	0	-1e10	8	-1e10	8	-1E+10	1	-1E+10	1	-1E+10	1	-1E+10	1	-1E+10	1	-1E+10	1
4902554	18	C	07/31/2021	14:57	-136.318	49.611	0	392.90	0	4.3870	0	33.9750	0	26.934	0	389.176	0	-1e10	8	-1e10	8	-1E+10	1	-1E+10	1	-1E+10	1	-1E+10	1	-1E+10	1	-1E+10	1
4902554	18	C	07/31/2021	14:57	-136.318	49.611	0	397.90	0	4.3710	0	33.9790	0	26.938	0	394.124	0	-1e10	8	-1e10	8	-1E+10	1	-1E+10	1	-1E+10	1	-1E+10	1	-1E+10	1	-1E+10	1
4902554	18	C	07/31/2021	14:57	-136.318	49.611	0	403.00	0	4.3520	0	33.9840	0	26.944	0	399.170	0	-1e10	8	-1e10	8	-1E+10	1	-1E+10	1	-1E+10	1	-1E+10	1	-1E+10	1	-1E+10	1
4902554	18	C	07/31/2021	14:57	-136.318	49.611	0	407.60	0	4.3390	0	33.9880	0	26.949	0	403.722	0	-1e10	8	-1e10	8	-1E+10	1	-1E+10	1	-1E+10	1	-1E+10	1	-1E+10	1	-1E+10	1
4902554	18	C	07/31/2021	14:57	-136.318	49.611	0	412.80	0	4.3280	0	33.9910	0	26.953	0	408.867	0	-1e10	8	-1e10	8	-1E+10	1	-1E+10	1	-1E+10	1	-1E+10	1	-1E+10	1	-1E+10	1
4902554	18	C	07/31/2021	14:57	-136.318	49.611	0	418.00	0	4.3160	0	33.9950	0	26.957	0	414.013	0	-1e10	8	-1e10	8	-1E+10	1	-1E+10	1	-1E+10	1	-1E+10	1	-1E+10	1	-1E+10	1
4902554	18	C	07/31/2021	14:57	-136.318	49.611	0	422.70	0	4.3100	0	33.9990	0	26.961	0	418.663	0	-1e10	8	-1e10	8	-1E+10	1	-1E+10	1	-1E+10	1	-1E+10	1	-1E+10	1	-1E+10	1
4902554	18	C	07/31/2021	14:57	-136.318	49.611	0	427.80	0	4.3020	0	34.0030	0	26.965	0	423.709	0	-1e10	8	-1e10	8	-1E+10	1	-1E+10	1	-1E+10	1	-1E+10	1	-1E+10	1	-1E+10	1
4902554	18	C	07/31/2021	14:57	-136.318	49.611	0	433.00	0	4.2940	0	34.0070	0	26.969	0	428.854	0	-1e10	8	-1e10	8	-1E+10	1	-1E+10	1	-1E+10	1	-1E+10	1	-1E+10	1	-1E+10	1
4902554	18	C	07/31/2021	14:57	-136.318	49.611	0	437.80	0	4.2910	0	34.0090	0	26.971	0	433.603	0	-1e10	8	-1e10	8	-1E+10	1	-1E+10	1	-1E+10	1	-1E+10	1	-1E+10	1	-1E+10	1
4902554	18	C	07/31/2021	14:57	-136.318	49.611	0	442.60	0	4.2770	0	34.0140	0	26.977	0	438.352	0	-1e10	8	-1e10	8	-1E+10	1	-1E+10	1	-1E+10	1	-1E+10	1	-1E+10	1	-1E+10	1
4902554	18	C	07/31/2021	14:57	-136.318	49.611	0	447.90	0	4.2650	0	34.0190	0	26.982	0	443.596	0	-1e10	8	-1e10	8	-1E+10	1	-1E+10	1	-1E+10	1	-1E+10	1	-1E+10	1	-1E+10	1
4902554	18	C	07/31/2021	14:57	-136.318	49.611	0	453.30	0	4.2560	0	34.0260	0	26.988	0	448.938	0	-1e10	8	-1e10	8	-1E+10	1	-1E+10	1	-1E+10	1	-1E+10	1	-1E+10	1	-1E+10	1
4902554	18	C	07/31/2021	14:57	-136.318	49.611	0	458.20	0	4.2490	0	34.0310	0	26.993	0	453.785	0	-1e10	8	-1e10	8	-1E+10	1	-1E+10	1	-1E+10	1	-1E+10	1	-1E+10	1	-1E+10	1
4902554	18	C	07/31/2021	14:57	-136.318	49.611	0	463.20	0	4.2360	0	34.0370	0	26.999	0	458.732	0	-1e10	8	-1e10	8	-1E+10	1	-1E+10	1	-1E+10	1	-1E+10	1	-1E+10	1	-1E+10	1
4902554	18	C	07/31/2021	14:57	-136.318	49.611	0	468.10	0	4.2280	0	34.0420	0	27.004	0	463.579	0	-1e10	8	-1e10	8	-1E+10	1	-1E+10	1	-1E+10	1	-1E+10	1	-1E+10	1	-1E+10	1
4902554	18	C	07/31/2021	14:57	-136.318	49.611	0	473.10	0	4.2140	0	34.0460	0	27.009	0	468.525	0	-1e10	8	-1e10	8	-1E+10	1	-1E+10	1	-1E+10	1	-1E+10	1	-1E+10	1	-1E+10	1
4902554	18	C	07/31/2021	14:57	-136.318	49.611	0	478.10	0	4.1990	0	34.0500	0	27.014	0	473.471	0	-1e10	8	-1e10	8	-1E+10	1	-1E+10	1	-1E+10	1	-1E+10	1	-1E+10	1	-1E+10	1
4902554	18	C	07/31/2021	14:57	-136.318	49.611	0	483.10	0	4.1810	0	34.0570	0	27.021	0	478.417	0	-1e10	8	-1e10	8	-1E+10	1	-1E+10	1	-1E+10	1	-1E+10	1	-1E+10	1	-1E+10	1
4902554	18	C	07/31/2021	14:57	-136.318	49.611	0	488.20	0	4.1680	0	34.0650	0	27.029	0	483.461	0	-1e10	8	-1e10	8	-1E+10	1	-1E+10	1	-1E+10	1	-1E+10	1	-1E+10	1	-1E+10	1
4902554	18	C	07/31/2021	14:57	-136.318	49.611	0	493.20	0	4.1530	0	34.0700	0	27.034	0	488.407	0	-1e10	8	-1e10	8	-1E+10	1	-1E+10	1	-1E+10	1	-1E+10	1	-1E+10	1	-1E+10	1
4902554	18	C	07/31/2021	14:57	-136.318	49.611	0	498.30	0	4.1380	0	34.0760	0	27.041	0	493.451	0	-1e10	8	-1e10	8	-1E+10	1	-1E+10	1	-1E+10	1	-1E+10	1	-1E+10	1	-1E+10	1
4902554	18	C	07/31/2021	14:57	-136.318	49.611	0	502.90	0	4.1210	0	34.0820	0	27.047	0	498.001	0	-1e10	8	-1e10	8	-1E+10	1	-1E+10	1	-1E+10	1	-1E+10	1	-1E+10	1	-1E+10	1
4902554	18	C	07/31/2021	14:57	-136.318	49.611	0	507.60	0	4.1100	0	34.0860	0	27.052	0	502.650	0	-1e10	8	-1e10	8	-1E+10	1	-1E+10	1	-1E+10	1	-1E+10	1	-1E+10	1	-1E+10	1
4902554	18	C	07/31/2021	14:57	-136.318	49.611	0	512.70	0	4.1020	0	34.0890	0	27.055	0	507.694	0	-1e10	8	-1e10	8	-1E+10	1	-1E+10	1	-1E+10	1	-1E+10	1	-1E+10	1	-1E+10	1
4902554	18	C	07/31/2021	14:57	-136.318	49.611	0	517.90	0	4.0920	0	34.0920	0	27.058	0	512.837	0	-1e10	8	-1e10	8	-1E+10	1	-1E+10	1	-1E+10	1	-1E+10	1	-1E+10	1	-1E+10	1
4902554	18	C	07/31/2021	14:57	-136.318	49.611	0	523.20	0	4.0840	0	34.0980	0	27.064	0	518.078	0	-1e10	8	-1e10	8	-1E+10	1	-1E+10	1	-1E+10	1	-1E+10	1	-1E+10	1	-1E+10	1
4902554	18	C	07/31/2021	14:57	-136.318	49.611	0	527.90	0	4.0780	0	34.1010	0	27.067	0	522.726	0	-1e10	8	-1e10	8	-1E+10	1	-1E+10	1	-1E+10	1	-1E+10	1	-1E+10	1	-1E+10	1
4902554	18	C	07/31/2021	14:57	-136.318	49.611	0	533.00	0	4.0580	0	34.1060	0	27.073	0	527.770	0	-1e10	8	-1e10	8	-1E+10	1	-1E+10	1	-1E+10	1	-1E+10	1	-1E+10	1	-1E+10	1
4902554	18	C	07/31/2021	14:57	-136.318	49.611	0	538.20	0	4.0420	0	34.1110	0	27.079	0	532.912	0	-1e10	8	-1e10	8	-1E+10	1	-1E+10	1	-1E+10	1	-1E+10	1	-1E+10	1	-1E+10	1
4902554	18	C	07/31/2021	14:57	-136.318	49.611	0	543.10	0	4.0270	0	34.1160	0	27.084	0	537.758	0	-1e10	8	-1e10	8	-1E+10	1	-1E+10	1	-1E+10	1	-1E+10	1	-1E+10	1	-1E+10	1
4902554	18	C	07/31/2021	14:57	-136.318	49.611	0	548.10	0	4.0050	0	34.1230	0	27.092	0	542.702	0	-1e10	8	-1e10	8	-1E+10	1	-1E+10	1	-1E+10	1	-1E+10	1	-1E+10	1	-1E+10	1
4902554	18	C	07/31/2021	14:57	-136.318	49.611	0	553.20	0	3.9970	0	34.1270	0	27.096	0	547.745	0	-1e10	8	-1e10	8	-1E+10	1	-1E+10	1	-1E+10	1	-1E+10	1	-1E+10	1	-1E+10	1
4902554	18	C	07/31/2021	14:57	-136.318	49.611	0	557.90	0	3.9860	0	34.1310	0	27.100	0	552.392	0	-1e10	8	-1e10	8	-1E+10	1	-1E+10	1	-1E+10	1	-1E+10	1	-1E+10	1	-1E+10	1
4902554	18	C	07/31/2021	14:57	-136.318	49.611	0	562.70	0	3.9780	0	34.1350	0	27.105	0	557.139	0	-1e10	8	-1e10	8	-1E+10	1	-1E+10	1	-1E+10	1	-1E+10	1	-1E+10	1	-1E+10	1
4902554	18	C	07/31/2021	14:57	-136.318	49.611	0	568.00	0	3.9620	0	34.1420	0	27.112	0	562.379	0	-1e10	8	-1e10	8	-1E+10	1	-1E+10	1	-1E+10	1	-1E+10	1	-1E+10	1	-1E+10	1
4902554	18	C	07/31/2021	14:57	-136.318	49.611	0	573.00	0	3.9510	0	34.1460	0	27.116	0	567.323	0	-1e10	8	-1e10	8	-1E+10	1	-1E+10	1	-1E+10	1	-1E+10	1	-1E+10	1	-1E+10	1
4902554	18	C	07/31/2021	14:57	-136.318	49.611	0	578.00	0	3.9500	0	34.1470	0	27.117	0	572.266	0	-1e10	8	-1e10	8	-1E+10	1	-1E+10	1	-1E+10	1	-1E+10	1	-1E+10	1	-1E+10	1
4902554	18	C	07/31/2021	14:57	-136.318	49.611	0	583.20	0	3.9410	0	34.1500	0	27.120	0	577.407	0	-1e10	8	-1e10	8	-1E+10	1	-1E+10	1	-1E+10	1	-1E+10	1	-1E+10	1	-1E+10	1
4902554	18	C	07/31/2021	14:57	-136.318	49.611	0	587.90	0	3.9290	0	34.1550	0	27.126	0	582.054	0	-1e10	8	-1e10	8	-1E+10	1	-1E+10	1	-1E+10	1	-1E+10	1	-1E+10	1	-1E+10	1
4902554	18	C	07/31/2021	14:57	-136.318	49.611	0	592.70	0	3.9190	0	34.1600	0	27.131	0	586.800	0	-1e10	8	-1e10	8	-1E+10	1	-1E+10	1	-1E+10	1	-1E+10	1	-1E+10	1	-1E+10	1
4902554	18	C	07/31/2021	14:57	-136.318	49.611	0	597.60	0	3.9060	0	34.1650	0	27.136	0	591.644	0	-1e10	8	-1e10	8	-1E+10	1	-1E+10	1	-1E+10	1	-1E+10	1	-1E+10	1	-1E+10	1
4902554	18	C	07/31/2021	14:57	-136.318	49.611	0	602.90	0	3.8980	0	34.1670	0	27.138	0	596.884	0	-1e10	8	-1e10	8	-1E+10	1	-1E+10	1	-1E+10	1	-1E+10	1	-1E+10	1	-1E+10	1
4902554	18	C	07/31/2021	14:57	-136.318	49.611	0	608.30	0	3.8920	0	34.1700	0	27.141	0	602.222	0	-1e10	8	-1e10	8	-1E+10	1	-1E+10	1	-1E+10	1	-1E+10	1	-1E+10	1	-1E+10	1
4902554	18	C	07/31/2021	14:57	-136.318	49.611	0	613.30	0	3.8850	0	34.1720	0	27.144	0	607.165	0	-1e10	8	-1e10	8	-1E+10	1	-1E+10	1	-1E+10	1	-1E+10	1	-1E+10	1	-1E+10	1
4902554	18	C	07/31/2021	14:57	-136.318	49.611	0	618.30	0	3.8750	0	34.1760	0	27.148	0	612.107	0	-1e10	8	-1e10	8	-1E+10	1	-1E+10	1	-1E+10	1	-1E+10	1	-1E+10	1	-1E+10	1
4902554	18	C	07/31/2021	14:57	-136.318	49.611	0	622.90	0	3.8670	0	34.1780	0	27.150	0	616.654	0	-1e10	8	-1e10	8	-1E+10	1	-1E+10	1	-1E+10	1	-1E+10	1	-1E+10	1	-1E+10	1
4902554	18	C	07/31/2021	14:57	-136.318	49.611	0	627.60	0	3.8570	0	34.1810	0	27.154	0	621.300	0	-1e10	8	-1e10	8	-1E+10	1	-1E+10	1	-1E+10	1	-1E+10	1	-1E+10	1	-1E+10	1
4902554	18	C	07/31/2021	14:57	-136.318	49.611	0	632.80	0	3.8420	0	34.1860	0	27.159	0	626.440	0	-1e10	8	-1e10	8	-1E+10	1	-1E+10	1	-1E+10	1	-1E+10	1	-1E+10	1	-1E+10	1
4902554	18	C	07/31/2021	14:57	-136.318	49.611	0	637.90	0	3.8310	0	34.1890	0	27.163	0	631.481	0	-1e10	8	-1e10	8	-1E+10	1	-1E+10	1	-1E+10	1	-1E+10	1	-1E+10	1	-1E+10	1
4902554	18	C	07/31/2021	14:57	-136.318	49.611	0	643.10	0	3.8230	0	34.1920	0	27.166	0	636.621	0	-1e10	8	-1e10	8	-1E+10	1	-1E+10	1	-1E+10	1	-1E+10	1	-1E+10	1	-1E+10	1
4902554	18	C	07/31/2021	14:57	-136.318	49.611	0	648.20	0	3.8120	0	34.1950	0	27.170	0	641.662	0	-1e10	8	-1e10	8	-1E+10	1	-1E+10	1	-1E+10	1	-1E+10	1	-1E+10	1	-1E+10	1
4902554	18	C	07/31/2021	14:57	-136.318	49.611	0	653.30	0	3.8010	0	34.1980	0	27.173	0	646.702	0	-1e10	8	-1e10	8	-1E+10	1	-1E+10	1	-1E+10	1	-1E+10	1	-1E+10	1	-1E+10	1
4902554	18	C	07/31/2021	14:57	-136.318	49.611	0	658.40	0	3.7910	0	34.2010	0	27.177	0	651.743	0	-1e10	8	-1e10	8	-1E+10	1	-1E+10	1	-1E+10	1	-1E+10	1	-1E+10	1	-1E+10	1
4902554	18	C	07/31/2021	14:57	-136.318	49.611	0	663.00	0	3.7820	0	34.2040	0	27.180	0	656.289	0	-1e10	8	-1e10	8	-1E+10	1	-1E+10	1	-1E+10	1	-1E+10	1	-1E+10	1	-1E+10	1
4902554	18	C	07/31/2021	14:57	-136.318	49.611	0	667.70	0	3.7700	0	34.2080	0	27.184	0	660.934	0	-1e10	8	-1e10	8	-1E+10	1	-1E+10	1	-1E+10	1	-1E+10	1	-1E+10	1	-1E+10	1
4902554	18	C	07/31/2021	14:57	-136.318	49.611	0	672.80	0	3.7650	0	34.2090	0	27.186	0	665.974	0	-1e10	8	-1e10	8	-1E+10	1	-1E+10	1	-1E+10	1	-1E+10	1	-1E+10	1	-1E+10	1
4902554	18	C	07/31/2021	14:57	-136.318	49.611	0	677.70	0	3.7540	0	34.2120	0	27.189	0	670.817	0	-1e10	8	-1e10	8	-1E+10	1	-1E+10	1	-1E+10	1	-1E+10	1	-1E+10	1	-1E+10	1
4902554	18	C	07/31/2021	14:57	-136.318	49.611	0	682.60	0	3.7500	0	34.2130	0	27.190	0	675.659	0	-1e10	8	-1e10	8	-1E+10	1	-1E+10	1	-1E+10	1	-1E+10	1	-1E+10	1	-1E+10	1
4902554	18	C	07/31/2021	14:57	-136.318	49.611	0	687.50	0	3.7400	0	34.2160	0	27.194	0	680.501	0	-1e10	8	-1e10	8	-1E+10	1	-1E+10	1	-1E+10	1	-1E+10	1	-1E+10	1	-1E+10	1
4902554	18	C	07/31/2021	14:57	-136.318	49.611	0	692.60	0	3.7280	0	34.2190	0	27.197	0	685.541	0	-1e10	8	-1e10	8	-1E+10	1	-1E+10	1	-1E+10	1	-1E+10	1	-1E+10	1	-1E+10	1
4902554	18	C	07/31/2021	14:57	-136.318	49.611	0	697.70	0	3.7160	0	34.2230	0	27.202	0	690.580	0	-1e10	8	-1e10	8	-1E+10	1	-1E+10	1	-1E+10	1	-1E+10	1	-1E+10	1	-1E+10	1
4902554	18	C	07/31/2021	14:57	-136.318	49.611	0	702.80	0	3.7000	0	34.2260	0	27.206	0	695.620	0	-1e10	8	-1e10	8	-1E+10	1	-1E+10	1	-1E+10	1	-1E+10	1	-1E+10	1	-1E+10	1
4902554	18	C	07/31/2021	14:57	-136.318	49.611	0	708.00	0	3.6900	0	34.2300	0	27.210	0	700.758	0	-1e10	8	-1e10	8	-1E+10	1	-1E+10	1	-1E+10	1	-1E+10	1	-1E+10	1	-1E+10	1
4902554	18	C	07/31/2021	14:57	-136.318	49.611	0	713.10	0	3.6710	0	34.2340	0	27.215	0	705.797	0	-1e10	8	-1e10	8	-1E+10	1	-1E+10	1	-1E+10	1	-1E+10	1	-1E+10	1	-1E+10	1
4902554	18	C	07/31/2021	14:57	-136.318	49.611	0	717.90	0	3.6580	0	34.2370	0	27.219	0	710.540	0	-1e10	8	-1e10	8	-1E+10	1	-1E+10	1	-1E+10	1	-1E+10	1	-1E+10	1	-1E+10	1
4902554	18	C	07/31/2021	14:57	-136.318	49.611	0	722.80	0	3.6490	0	34.2400	0	27.222	0	715.381	0	-1e10	8	-1e10	8	-1E+10	1	-1E+10	1	-1E+10	1	-1E+10	1	-1E+10	1	-1E+10	1
4902554	18	C	07/31/2021	14:57	-136.318	49.611	0	728.10	0	3.6330	0	34.2430	0	27.226	0	720.618	0	-1e10	8	-1e10	8	-1E+10	1	-1E+10	1	-1E+10	1	-1E+10	1	-1E+10	1	-1E+10	1
4902554	18	C	07/31/2021	14:57	-136.318	49.611	0	733.10	0	3.6190	0	34.2460	0	27.230	0	725.558	0	-1e10	8	-1e10	8	-1E+10	1	-1E+10	1	-1E+10	1	-1E+10	1	-1E+10	1	-1E+10	1
4902554	18	C	07/31/2021	14:57	-136.318	49.611	0	737.70	0	3.6100	0	34.2480	0	27.232	0	730.102	0	-1e10	8	-1e10	8	-1E+10	1	-1E+10	1	-1E+10	1	-1E+10	1	-1E+10	1	-1E+10	1
4902554	18	C	07/31/2021	14:57	-136.318	49.611	0	742.80	0	3.5990	0	34.2510	0	27.236	0	735.141	0	-1e10	8	-1e10	8	-1E+10	1	-1E+10	1	-1E+10	1	-1E+10	1	-1E+10	1	-1E+10	1
4902554	18	C	07/31/2021	14:57	-136.318	49.611	0	747.90	0	3.5930	0	34.2520	0	27.237	0	740.179	0	-1e10	8	-1e10	8	-1E+10	1	-1E+10	1	-1E+10	1	-1E+10	1	-1E+10	1	-1E+10	1
4902554	18	C	07/31/2021	14:57	-136.318	49.611	0	753.00	0	3.5820	0	34.2540	0	27.240	0	745.217	0	-1e10	8	-1e10	8	-1E+10	1	-1E+10	1	-1E+10	1	-1E+10	1	-1E+10	1	-1E+10	1
4902554	18	C	07/31/2021	14:57	-136.318	49.611	0	758.20	0	3.5680	0	34.2570	0	27.244	0	750.354	0	-1e10	8	-1e10	8	-1E+10	1	-1E+10	1	-1E+10	1	-1E+10	1	-1E+10	1	-1E+10	1
4902554	18	C	07/31/2021	14:57	-136.318	49.611	0	762.80	0	3.5540	0	34.2600	0	27.247	0	754.898	0	-1e10	8	-1e10	8	-1E+10	1	-1E+10	1	-1E+10	1	-1E+10	1	-1E+10	1	-1E+10	1
4902554	18	C	07/31/2021	14:57	-136.318	49.611	0	767.60	0	3.5430	0	34.2630	0	27.251	0	759.640	0	-1e10	8	-1e10	8	-1E+10	1	-1E+10	1	-1E+10	1	-1E+10	1	-1E+10	1	-1E+10	1
4902554	18	C	07/31/2021	14:57	-136.318	49.611	0	772.80	0	3.5390	0	34.2640	0	27.252	0	764.777	0	-1e10	8	-1e10	8	-1E+10	1	-1E+10	1	-1E+10	1	-1E+10	1	-1E+10	1	-1E+10	1
4902554	18	C	07/31/2021	14:57	-136.318	49.611	0	778.10	0	3.5300	0	34.2650	0	27.254	0	770.012	0	-1e10	8	-1e10	8	-1E+10	1	-1E+10	1	-1E+10	1	-1E+10	1	-1E+10	1	-1E+10	1
4902554	18	C	07/31/2021	14:57	-136.318	49.611	0	782.90	0	3.5150	0	34.2680	0	27.258	0	774.753	0	-1e10	8	-1e10	8	-1E+10	1	-1E+10	1	-1E+10	1	-1E+10	1	-1E+10	1	-1E+10	1
4902554	18	C	07/31/2021	14:57	-136.318	49.611	0	787.70	0	3.5020	0	34.2710	0	27.261	0	779.494	0	-1e10	8	-1e10	8	-1E+10	1	-1E+10	1	-1E+10	1	-1E+10	1	-1E+10	1	-1E+10	1
4902554	18	C	07/31/2021	14:57	-136.318	49.611	0	792.70	0	3.4930	0	34.2730	0	27.264	0	784.433	0	-1e10	8	-1e10	8	-1E+10	1	-1E+10	1	-1E+10	1	-1E+10	1	-1E+10	1	-1E+10	1
4902554	18	C	07/31/2021	14:57	-136.318	49.611	0	797.60	0	3.4750	0	34.2760	0	27.268	0	789.272	0	-1e10	8	-1e10	8	-1E+10	1	-1E+10	1	-1E+10	1	-1E+10	1	-1E+10	1	-1E+10	1
4902554	18	C	07/31/2021	14:57	-136.318	49.611	0	802.50	0	3.4590	0	34.2790	0	27.272	0	794.112	0	-1e10	8	-1e10	8	-1E+10	1	-1E+10	1	-1E+10	1	-1E+10	1	-1E+10	1	-1E+10	1
4902554	18	C	07/31/2021	14:57	-136.318	49.611	0	807.90	0	3.4450	0	34.2820	0	27.276	0	799.445	0	-1e10	8	-1e10	8	-1E+10	1	-1E+10	1	-1E+10	1	-1E+10	1	-1E+10	1	-1E+10	1
4902554	18	C	07/31/2021	14:57	-136.318	49.611	0	813.40	0	3.4310	0	34.2850	0	27.280	0	804.877	0	-1e10	8	-1e10	8	-1E+10	1	-1E+10	1	-1E+10	1	-1E+10	1	-1E+10	1	-1E+10	1
4902554	18	C	07/31/2021	14:57	-136.318	49.611	0	818.30	0	3.4210	0	34.2870	0	27.282	0	809.716	0	-1e10	8	-1e10	8	-1E+10	1	-1E+10	1	-1E+10	1	-1E+10	1	-1E+10	1	-1E+10	1
4902554	18	C	07/31/2021	14:57	-136.318	49.611	0	823.30	0	3.4090	0	34.2910	0	27.286	0	814.654	0	-1e10	8	-1e10	8	-1E+10	1	-1E+10	1	-1E+10	1	-1E+10	1	-1E+10	1	-1E+10	1
4902554	18	C	07/31/2021	14:57	-136.318	49.611	0	827.80	0	3.3990	0	34.2930	0	27.289	0	819.098	0	-1e10	8	-1e10	8	-1E+10	1	-1E+10	1	-1E+10	1	-1E+10	1	-1E+10	1	-1E+10	1
4902554	18	C	07/31/2021	14:57	-136.318	49.611	0	832.80	0	3.3880	0	34.2960	0	27.292	0	824.035	0	-1e10	8	-1e10	8	-1E+10	1	-1E+10	1	-1E+10	1	-1E+10	1	-1E+10	1	-1E+10	1
4902554	18	C	07/31/2021	14:57	-136.318	49.611	0	838.00	0	3.3800	0	34.2990	0	27.296	0	829.170	0	-1e10	8	-1e10	8	-1E+10	1	-1E+10	1	-1E+10	1	-1E+10	1	-1E+10	1	-1E+10	1
4902554	18	C	07/31/2021	14:57	-136.318	49.611	0	842.80	0	3.3710	0	34.3020	0	27.299	0	833.910	0	-1e10	8	-1e10	8	-1E+10	1	-1E+10	1	-1E+10	1	-1E+10	1	-1E+10	1	-1E+10	1
4902554	18	C	07/31/2021	14:57	-136.318	49.611	0	847.70	0	3.3620	0	34.3040	0	27.301	0	838.749	0	-1e10	8	-1e10	8	-1E+10	1	-1E+10	1	-1E+10	1	-1E+10	1	-1E+10	1	-1E+10	1
4902554	18	C	07/31/2021	14:57	-136.318	49.611	0	852.70	0	3.3580	0	34.3050	0	27.303	0	843.686	0	-1e10	8	-1e10	8	-1E+10	1	-1E+10	1	-1E+10	1	-1E+10	1	-1E+10	1	-1E+10	1
4902554	18	C	07/31/2021	14:57	-136.318	49.611	0	857.60	0	3.3460	0	34.3070	0	27.305	0	848.524	0	-1e10	8	-1e10	8	-1E+10	1	-1E+10	1	-1E+10	1	-1E+10	1	-1E+10	1	-1E+10	1
4902554	18	C	07/31/2021	14:57	-136.318	49.611	0	862.90	0	3.3350	0	34.3090	0	27.308	0	853.757	0	-1e10	8	-1e10	8	-1E+10	1	-1E+10	1	-1E+10	1	-1E+10	1	-1E+10	1	-1E+10	1
4902554	18	C	07/31/2021	14:57	-136.318	49.611	0	868.30	0	3.3240	0	34.3110	0	27.311	0	859.089	0	-1e10	8	-1e10	8	-1E+10	1	-1E+10	1	-1E+10	1	-1E+10	1	-1E+10	1	-1E+10	1
4902554	18	C	07/31/2021	14:57	-136.318	49.611	0	872.90	0	3.3160	0	34.3130	0	27.313	0	863.630	0	-1e10	8	-1e10	8	-1E+10	1	-1E+10	1	-1E+10	1	-1E+10	1	-1E+10	1	-1E+10	1
4902554	18	C	07/31/2021	14:57	-136.318	49.611	0	877.50	0	3.3070	0	34.3150	0	27.316	0	868.172	0	-1e10	8	-1e10	8	-1E+10	1	-1E+10	1	-1E+10	1	-1E+10	1	-1E+10	1	-1E+10	1
4902554	18	C	07/31/2021	14:57	-136.318	49.611	0	882.60	0	3.2990	0	34.3170	0	27.318	0	873.207	0	-1e10	8	-1e10	8	-1E+10	1	-1E+10	1	-1E+10	1	-1E+10	1	-1E+10	1	-1E+10	1
4902554	18	C	07/31/2021	14:57	-136.318	49.611	0	887.60	0	3.2910	0	34.3180	0	27.320	0	878.143	0	-1e10	8	-1e10	8	-1E+10	1	-1E+10	1	-1E+10	1	-1E+10	1	-1E+10	1	-1E+10	1
4902554	18	C	07/31/2021	14:57	-136.318	49.611	0	892.80	0	3.2810	0	34.3200	0	27.322	0	883.277	0	-1e10	8	-1e10	8	-1E+10	1	-1E+10	1	-1E+10	1	-1E+10	1	-1E+10	1	-1E+10	1
4902554	18	C	07/31/2021	14:57	-136.318	49.611	0	897.80	0	3.2700	0	34.3220	0	27.325	0	888.213	0	-1e10	8	-1e10	8	-1E+10	1	-1E+10	1	-1E+10	1	-1E+10	1	-1E+10	1	-1E+10	1
4902554	18	C	07/31/2021	14:57	-136.318	49.611	0	902.90	0	3.2590	0	34.3250	0	27.328	0	893.248	0	-1e10	8	-1e10	8	-1E+10	1	-1E+10	1	-1E+10	1	-1E+10	1	-1E+10	1	-1E+10	1
4902554	18	C	07/31/2021	14:57	-136.318	49.611	0	907.90	0	3.2490	0	34.3270	0	27.331	0	898.184	0	-1e10	8	-1e10	8	-1E+10	1	-1E+10	1	-1E+10	1	-1E+10	1	-1E+10	1	-1E+10	1
4902554	18	C	07/31/2021	14:57	-136.318	49.611	0	912.90	0	3.2380	0	34.3290	0	27.333	0	903.119	0	-1e10	8	-1e10	8	-1E+10	1	-1E+10	1	-1E+10	1	-1E+10	1	-1E+10	1	-1E+10	1
4902554	18	C	07/31/2021	14:57	-136.318	49.611	0	917.90	0	3.2270	0	34.3310	0	27.336	0	908.055	0	-1e10	8	-1e10	8	-1E+10	1	-1E+10	1	-1E+10	1	-1E+10	1	-1E+10	1	-1E+10	1
4902554	18	C	07/31/2021	14:57	-136.318	49.611	0	922.90	0	3.2100	0	34.3340	0	27.340	0	912.990	0	-1e10	8	-1e10	8	-1E+10	1	-1E+10	1	-1E+10	1	-1E+10	1	-1E+10	1	-1E+10	1
4902554	18	C	07/31/2021	14:57	-136.318	49.611	0	927.90	0	3.1960	0	34.3370	0	27.344	0	917.926	0	-1e10	8	-1e10	8	-1E+10	1	-1E+10	1	-1E+10	1	-1E+10	1	-1E+10	1	-1E+10	1
4902554	18	C	07/31/2021	14:57	-136.318	49.611	0	932.90	0	3.1830	0	34.3400	0	27.347	0	922.861	0	-1e10	8	-1e10	8	-1E+10	1	-1E+10	1	-1E+10	1	-1E+10	1	-1E+10	1	-1E+10	1
4902554	18	C	07/31/2021	14:57	-136.318	49.611	0	937.90	0	3.1790	0	34.3400	0	27.348	0	927.796	0	-1e10	8	-1e10	8	-1E+10	1	-1E+10	1	-1E+10	1	-1E+10	1	-1E+10	1	-1E+10	1
4902554	18	C	07/31/2021	14:57	-136.318	49.611	0	942.90	0	3.1660	0	34.3430	0	27.351	0	932.731	0	-1e10	8	-1e10	8	-1E+10	1	-1E+10	1	-1E+10	1	-1E+10	1	-1E+10	1	-1E+10	1
4902554	18	C	07/31/2021	14:57	-136.318	49.611	0	948.10	0	3.1580	0	34.3440	0	27.353	0	937.863	0	-1e10	8	-1e10	8	-1E+10	1	-1E+10	1	-1E+10	1	-1E+10	1	-1E+10	1	-1E+10	1
4902554	18	C	07/31/2021	14:57	-136.318	49.611	0	953.20	0	3.1440	0	34.3470	0	27.357	0	942.897	0	-1e10	8	-1e10	8	-1E+10	1	-1E+10	1	-1E+10	1	-1E+10	1	-1E+10	1	-1E+10	1
4902554	18	C	07/31/2021	14:57	-136.318	49.611	0	957.90	0	3.1320	0	34.3490	0	27.359	0	947.535	0	-1e10	8	-1e10	8	-1E+10	1	-1E+10	1	-1E+10	1	-1E+10	1	-1E+10	1	-1E+10	1
4902554	18	C	07/31/2021	14:57	-136.318	49.611	0	962.80	0	3.1260	0	34.3500	0	27.361	0	952.371	0	-1e10	8	-1e10	8	-1E+10	1	-1E+10	1	-1E+10	1	-1E+10	1	-1E+10	1	-1E+10	1
4902554	18	C	07/31/2021	14:57	-136.318	49.611	0	968.10	0	3.1170	0	34.3510	0	27.362	0	957.602	0	-1e10	8	-1e10	8	-1E+10	1	-1E+10	1	-1E+10	1	-1E+10	1	-1E+10	1	-1E+10	1
4902554	18	C	07/31/2021	14:57	-136.318	49.611	0	973.00	0	3.1090	0	34.3530	0	27.365	0	962.437	0	-1e10	8	-1e10	8	-1E+10	1	-1E+10	1	-1E+10	1	-1E+10	1	-1E+10	1	-1E+10	1
4902554	18	C	07/31/2021	14:57	-136.318	49.611	0	978.00	0	3.0960	0	34.3550	0	27.368	0	967.372	0	-1e10	8	-1e10	8	-1E+10	1	-1E+10	1	-1E+10	1	-1E+10	1	-1E+10	1	-1E+10	1
4902554	18	C	07/31/2021	14:57	-136.318	49.611	0	983.00	0	3.0860	0	34.3570	0	27.370	0	972.306	0	-1e10	8	-1e10	8	-1E+10	1	-1E+10	1	-1E+10	1	-1E+10	1	-1E+10	1	-1E+10	1
4902554	18	C	07/31/2021	14:57	-136.318	49.611	0	988.00	0	3.0750	0	34.3600	0	27.374	0	977.240	0	-1e10	8	-1e10	8	-1E+10	1	-1E+10	1	-1E+10	1	-1E+10	1	-1E+10	1	-1E+10	1
4902554	18	C	07/31/2021	14:57	-136.318	49.611	0	993.00	0	3.0650	0	34.3610	0	27.375	0	982.173	0	-1e10	8	-1e10	8	-1E+10	1	-1E+10	1	-1E+10	1	-1E+10	1	-1E+10	1	-1E+10	1
4902554	18	C	07/31/2021	14:57	-136.318	49.611	0	997.70	0	3.0550	0	34.3630	0	27.378	0	986.811	0	-1e10	8	-1e10	8	-1E+10	1	-1E+10	1	-1E+10	1	-1E+10	1	-1E+10	1	-1E+10	1
4902554	18	C	07/31/2021	14:57	-136.318	49.611	0	1005.10	0	3.0440	0	34.3660	0	27.381	0	994.113	0	-1e10	8	-1e10	8	-1E+10	1	-1E+10	1	-1E+10	1	-1E+10	1	-1E+10	1	-1E+10	1
4902554	18	C	07/31/2021	14:57	-136.318	49.611	0	1015.60	0	3.0220	0	34.3700	0	27.386	0	1004.473	0	-1e10	8	-1e10	8	-1E+10	1	-1E+10	1	-1E+10	1	-1E+10	1	-1E+10	1	-1E+10	1
4902554	18	C	07/31/2021	14:57	-136.318	49.611	0	1025.80	0	2.9920	0	34.3740	0	27.392	0	1014.537	0	-1e10	8	-1e10	8	-1E+10	1	-1E+10	1	-1E+10	1	-1E+10	1	-1E+10	1	-1E+10	1
4902554	18	C	07/31/2021	14:57	-136.318	49.611	0	1035.60	0	2.9720	0	34.3780	0	27.397	0	1024.205	0	-1e10	8	-1e10	8	-1E+10	1	-1E+10	1	-1E+10	1	-1E+10	1	-1E+10	1	-1E+10	1
4902554	18	C	07/31/2021	14:57	-136.318	49.611	0	1045.30	0	2.9600	0	34.3810	0	27.401	0	1033.774	0	-1e10	8	-1e10	8	-1E+10	1	-1E+10	1	-1E+10	1	-1E+10	1	-1E+10	1	-1E+10	1
4902554	18	C	07/31/2021	14:57	-136.318	49.611	0	1055.10	0	2.9420	0	34.3840	0	27.405	0	1043.442	0	-1e10	8	-1e10	8	-1E+10	1	-1E+10	1	-1E+10	1	-1E+10	1	-1E+10	1	-1E+10	1
4902554	18	C	07/31/2021	14:57	-136.318	49.611	0	1065.20	0	2.9220	0	34.3880	0	27.410	0	1053.405	0	-1e10	8	-1e10	8	-1E+10	1	-1E+10	1	-1E+10	1	-1E+10	1	-1E+10	1	-1E+10	1
4902554	18	C	07/31/2021	14:57	-136.318	49.611	0	1075.30	0	2.9090	0	34.3900	0	27.413	0	1063.368	0	-1e10	8	-1e10	8	-1E+10	1	-1E+10	1	-1E+10	1	-1E+10	1	-1E+10	1	-1E+10	1
4902554	18	C	07/31/2021	14:57	-136.318	49.611	0	1085.10	0	2.8950	0	34.3930	0	27.417	0	1073.034	0	-1e10	8	-1e10	8	-1E+10	1	-1E+10	1	-1E+10	1	-1E+10	1	-1E+10	1	-1E+10	1
4902554	18	C	07/31/2021	14:57	-136.318	49.611	0	1095.10	0	2.8780	0	34.3960	0	27.421	0	1082.897	0	-1e10	8	-1e10	8	-1E+10	1	-1E+10	1	-1E+10	1	-1E+10	1	-1E+10	1	-1E+10	1
4902554	18	C	07/31/2021	14:57	-136.318	49.611	0	1105.40	0	2.8620	0	34.3990	0	27.424	0	1093.055	0	-1e10	8	-1e10	8	-1E+10	1	-1E+10	1	-1E+10	1	-1E+10	1	-1E+10	1	-1E+10	1
4902554	18	C	07/31/2021	14:57	-136.318	49.611	0	1115.40	0	2.8520	0	34.4010	0	27.427	0	1102.917	0	-1e10	8	-1e10	8	-1E+10	1	-1E+10	1	-1E+10	1	-1E+10	1	-1E+10	1	-1E+10	1
4902554	18	C	07/31/2021	14:57	-136.318	49.611	0	1125.40	0	2.8400	0	34.4040	0	27.431	0	1112.779	0	-1e10	8	-1e10	8	-1E+10	1	-1E+10	1	-1E+10	1	-1E+10	1	-1E+10	1	-1E+10	1
4902554	18	C	07/31/2021	14:57	-136.318	49.611	0	1135.40	0	2.8280	0	34.4060	0	27.433	0	1122.640	0	-1e10	8	-1e10	8	-1E+10	1	-1E+10	1	-1E+10	1	-1E+10	1	-1E+10	1	-1E+10	1
4902554	18	C	07/31/2021	14:57	-136.318	49.611	0	1145.30	0	2.8180	0	34.4080	0	27.436	0	1132.402	0	-1e10	8	-1e10	8	-1E+10	1	-1E+10	1	-1E+10	1	-1E+10	1	-1E+10	1	-1E+10	1
4902554	18	C	07/31/2021	14:57	-136.318	49.611	0	1155.70	0	2.7960	0	34.4120	0	27.441	0	1142.657	0	-1e10	8	-1e10	8	-1E+10	1	-1E+10	1	-1E+10	1	-1E+10	1	-1E+10	1	-1E+10	1
4902554	18	C	07/31/2021	14:57	-136.318	49.611	0	1165.50	0	2.7800	0	34.4160	0	27.446	0	1152.319	0	-1e10	8	-1e10	8	-1E+10	1	-1E+10	1	-1E+10	1	-1E+10	1	-1E+10	1	-1E+10	1
4902554	18	C	07/31/2021	14:57	-136.318	49.611	0	1175.20	0	2.7620	0	34.4190	0	27.450	0	1161.883	0	-1e10	8	-1e10	8	-1E+10	1	-1E+10	1	-1E+10	1	-1E+10	1	-1E+10	1	-1E+10	1
4902554	18	C	07/31/2021	14:57	-136.318	49.611	0	1185.50	0	2.7490	0	34.4220	0	27.453	0	1172.037	0	-1e10	8	-1e10	8	-1E+10	1	-1E+10	1	-1E+10	1	-1E+10	1	-1E+10	1	-1E+10	1
4902554	18	C	07/31/2021	14:57	-136.318	49.611	0	1195.40	0	2.7380	0	34.4240	0	27.456	0	1181.797	0	-1e10	8	-1e10	8	-1E+10	1	-1E+10	1	-1E+10	1	-1E+10	1	-1E+10	1	-1E+10	1
4902554	18	C	07/31/2021	14:57	-136.318	49.611	0	1205.10	0	2.7280	0	34.4260	0	27.458	0	1191.359	0	-1e10	8	-1e10	8	-1E+10	1	-1E+10	1	-1E+10	1	-1E+10	1	-1E+10	1	-1E+10	1
4902554	18	C	07/31/2021	14:57	-136.318	49.611	0	1215.30	0	2.7120	0	34.4290	0	27.462	0	1201.414	0	-1e10	8	-1e10	8	-1E+10	1	-1E+10	1	-1E+10	1	-1E+10	1	-1E+10	1	-1E+10	1
4902554	18	C	07/31/2021	14:57	-136.318	49.611	0	1225.20	0	2.6950	0	34.4330	0	27.467	0	1211.172	0	-1e10	8	-1e10	8	-1E+10	1	-1E+10	1	-1E+10	1	-1E+10	1	-1E+10	1	-1E+10	1
4902554	18	C	07/31/2021	14:57	-136.318	49.611	0	1235.20	0	2.6830	0	34.4350	0	27.470	0	1221.029	0	-1e10	8	-1e10	8	-1E+10	1	-1E+10	1	-1E+10	1	-1E+10	1	-1E+10	1	-1E+10	1
4902554	18	C	07/31/2021	14:57	-136.318	49.611	0	1245.40	0	2.6650	0	34.4380	0	27.474	0	1231.082	0	-1e10	8	-1e10	8	-1E+10	1	-1E+10	1	-1E+10	1	-1E+10	1	-1E+10	1	-1E+10	1
4902554	18	C	07/31/2021	14:57	-136.318	49.611	0	1255.70	0	2.6510	0	34.4410	0	27.477	0	1241.233	0	-1e10	8	-1e10	8	-1E+10	1	-1E+10	1	-1E+10	1	-1E+10	1	-1E+10	1	-1E+10	1
4902554	18	C	07/31/2021	14:57	-136.318	49.611	0	1265.50	0	2.6380	0	34.4440	0	27.481	0	1250.891	0	-1e10	8	-1e10	8	-1E+10	1	-1E+10	1	-1E+10	1	-1E+10	1	-1E+10	1	-1E+10	1
4902554	18	C	07/31/2021	14:57	-136.318	49.611	0	1275.50	0	2.6310	0	34.4450	0	27.482	0	1260.746	0	-1e10	8	-1e10	8	-1E+10	1	-1E+10	1	-1E+10	1	-1E+10	1	-1E+10	1	-1E+10	1
4902554	18	C	07/31/2021	14:57	-136.318	49.611	0	1285.80	0	2.6190	0	34.4470	0	27.485	0	1270.896	0	-1e10	8	-1e10	8	-1E+10	1	-1E+10	1	-1E+10	1	-1E+10	1	-1E+10	1	-1E+10	1
4902554	18	C	07/31/2021	14:57	-136.318	49.611	0	1295.70	0	2.5970	0	34.4520	0	27.491	0	1280.651	0	-1e10	8	-1e10	8	-1E+10	1	-1E+10	1	-1E+10	1	-1E+10	1	-1E+10	1	-1E+10	1
4902554	18	C	07/31/2021	14:57	-136.318	49.611	0	1305.70	0	2.5820	0	34.4550	0	27.495	0	1290.504	0	-1e10	8	-1e10	8	-1E+10	1	-1E+10	1	-1E+10	1	-1E+10	1	-1E+10	1	-1E+10	1
4902554	18	C	07/31/2021	14:57	-136.318	49.611	0	1315.40	0	2.5660	0	34.4580	0	27.498	0	1300.061	0	-1e10	8	-1e10	8	-1E+10	1	-1E+10	1	-1E+10	1	-1E+10	1	-1E+10	1	-1E+10	1
4902554	18	C	07/31/2021	14:57	-136.318	49.611	0	1325.30	0	2.5450	0	34.4620	0	27.503	0	1309.815	0	-1e10	8	-1e10	8	-1E+10	1	-1E+10	1	-1E+10	1	-1E+10	1	-1E+10	1	-1E+10	1
4902554	18	C	07/31/2021	14:57	-136.318	49.611	0	1335.50	0	2.5280	0	34.4650	0	27.507	0	1319.864	0	-1e10	8	-1e10	8	-1E+10	1	-1E+10	1	-1E+10	1	-1E+10	1	-1E+10	1	-1E+10	1
4902554	18	C	07/31/2021	14:57	-136.318	49.611	0	1345.40	0	2.5150	0	34.4680	0	27.511	0	1329.617	0	-1e10	8	-1e10	8	-1E+10	1	-1E+10	1	-1E+10	1	-1E+10	1	-1E+10	1	-1E+10	1
4902554	18	C	07/31/2021	14:57	-136.318	49.611	0	1355.30	0	2.5060	0	34.4700	0	27.513	0	1339.369	0	-1e10	8	-1e10	8	-1E+10	1	-1E+10	1	-1E+10	1	-1E+10	1	-1E+10	1	-1E+10	1
4902554	18	C	07/31/2021	14:57	-136.318	49.611	0	1365.30	0	2.4960	0	34.4710	0	27.515	0	1349.220	0	-1e10	8	-1e10	8	-1E+10	1	-1E+10	1	-1E+10	1	-1E+10	1	-1E+10	1	-1E+10	1
4902554	18	C	07/31/2021	14:57	-136.318	49.611	0	1375.60	0	2.4890	0	34.4730	0	27.517	0	1359.365	0	-1e10	8	-1e10	8	-1E+10	1	-1E+10	1	-1E+10	1	-1E+10	1	-1E+10	1	-1E+10	1
4902554	18	C	07/31/2021	14:57	-136.318	49.611	0	1385.50	0	2.4740	0	34.4760	0	27.521	0	1369.116	0	-1e10	8	-1e10	8	-1E+10	1	-1E+10	1	-1E+10	1	-1E+10	1	-1E+10	1	-1E+10	1
4902554	18	C	07/31/2021	14:57	-136.318	49.611	0	1395.70	0	2.4620	0	34.4780	0	27.524	0	1379.162	0	-1e10	8	-1e10	8	-1E+10	1	-1E+10	1	-1E+10	1	-1E+10	1	-1E+10	1	-1E+10	1
4902554	18	C	07/31/2021	14:57	-136.318	49.611	0	1405.50	0	2.4510	0	34.4800	0	27.526	0	1388.814	0	-1e10	8	-1e10	8	-1E+10	1	-1E+10	1	-1E+10	1	-1E+10	1	-1E+10	1	-1E+10	1
4902554	18	C	07/31/2021	14:57	-136.318	49.611	0	1415.20	0	2.4400	0	34.4830	0	27.530	0	1398.366	0	-1e10	8	-1e10	8	-1E+10	1	-1E+10	1	-1E+10	1	-1E+10	1	-1E+10	1	-1E+10	1
4902554	18	C	07/31/2021	14:57	-136.318	49.611	0	1425.70	0	2.4270	0	34.4860	0	27.533	0	1408.707	0	-1e10	8	-1e10	8	-1E+10	1	-1E+10	1	-1E+10	1	-1E+10	1	-1E+10	1	-1E+10	1
4902554	18	C	07/31/2021	14:57	-136.318	49.611	0	1435.60	0	2.4140	0	34.4890	0	27.537	0	1418.455	0	-1e10	8	-1e10	8	-1E+10	1	-1E+10	1	-1E+10	1	-1E+10	1	-1E+10	1	-1E+10	1
4902554	18	C	07/31/2021	14:57	-136.318	49.611	0	1445.40	0	2.4040	0	34.4900	0	27.538	0	1428.105	0	-1e10	8	-1e10	8	-1E+10	1	-1E+10	1	-1E+10	1	-1E+10	1	-1E+10	1	-1E+10	1
4902554	18	C	07/31/2021	14:57	-136.318	49.611	0	1455.30	0	2.3990	0	34.4920	0	27.540	0	1437.853	0	-1e10	8	-1e10	8	-1E+10	1	-1E+10	1	-1E+10	1	-1E+10	1	-1E+10	1	-1E+10	1
4902554	18	C	07/31/2021	14:57	-136.318	49.611	0	1465.40	0	2.3930	0	34.4930	0	27.542	0	1447.797	0	-1e10	8	-1e10	8	-1E+10	1	-1E+10	1	-1E+10	1	-1E+10	1	-1E+10	1	-1E+10	1
4902554	18	C	07/31/2021	14:57	-136.318	49.611	0	1475.60	0	2.3890	0	34.4940	0	27.543	0	1457.840	0	-1e10	8	-1e10	8	-1E+10	1	-1E+10	1	-1E+10	1	-1E+10	1	-1E+10	1	-1E+10	1
4902554	18	C	07/31/2021	14:57	-136.318	49.611	0	1485.20	0	2.3800	0	34.4960	0	27.545	0	1467.291	0	-1e10	8	-1e10	8	-1E+10	1	-1E+10	1	-1E+10	1	-1E+10	1	-1E+10	1	-1E+10	1
4902554	18	C	07/31/2021	14:57	-136.318	49.611	0	1495.30	0	2.3730	0	34.4970	0	27.547	0	1477.234	0	-1e10	8	-1e10	8	-1E+10	1	-1E+10	1	-1E+10	1	-1E+10	1	-1E+10	1	-1E+10	1
4902554	18	C	07/31/2021	14:57	-136.318	49.611	0	1505.60	0	2.3620	0	34.5000	0	27.550	0	1487.373	0	-1e10	8	-1e10	8	-1E+10	1	-1E+10	1	-1E+10	1	-1E+10	1	-1E+10	1	-1E+10	1
4902554	18	C	07/31/2021	14:57	-136.318	49.611	0	1515.40	0	2.3490	0	34.5020	0	27.553	0	1497.020	0	-1e10	8	-1e10	8	-1E+10	1	-1E+10	1	-1E+10	1	-1E+10	1	-1E+10	1	-1E+10	1
4902554	18	C	07/31/2021	14:57	-136.318	49.611	0	1525.30	0	2.3390	0	34.5040	0	27.555	0	1506.764	0	-1e10	8	-1e10	8	-1E+10	1	-1E+10	1	-1E+10	1	-1E+10	1	-1E+10	1	-1E+10	1
4902554	18	C	07/31/2021	14:57	-136.318	49.611	0	1535.10	0	2.3280	0	34.5060	0	27.558	0	1516.410	0	-1e10	8	-1e10	8	-1E+10	1	-1E+10	1	-1E+10	1	-1E+10	1	-1E+10	1	-1E+10	1
4902554	18	C	07/31/2021	14:57	-136.318	49.611	0	1545.10	0	2.3180	0	34.5070	0	27.560	0	1526.252	0	-1e10	8	-1e10	8	-1E+10	1	-1E+10	1	-1E+10	1	-1E+10	1	-1E+10	1	-1E+10	1
4902554	18	C	07/31/2021	14:57	-136.318	49.611	0	1555.20	0	2.3090	0	34.5090	0	27.562	0	1536.192	0	-1e10	8	-1e10	8	-1E+10	1	-1E+10	1	-1E+10	1	-1E+10	1	-1E+10	1	-1E+10	1
4902554	18	C	07/31/2021	14:57	-136.318	49.611	0	1565.30	0	2.3050	0	34.5100	0	27.563	0	1546.132	0	-1e10	8	-1e10	8	-1E+10	1	-1E+10	1	-1E+10	1	-1E+10	1	-1E+10	1	-1E+10	1
4902554	18	C	07/31/2021	14:57	-136.318	49.611	0	1575.30	0	2.2960	0	34.5120	0	27.565	0	1555.973	0	-1e10	8	-1e10	8	-1E+10	1	-1E+10	1	-1E+10	1	-1E+10	1	-1E+10	1	-1E+10	1
4902554	18	C	07/31/2021	14:57	-136.318	49.611	0	1585.40	0	2.2800	0	34.5160	0	27.570	0	1565.912	0	-1e10	8	-1e10	8	-1E+10	1	-1E+10	1	-1E+10	1	-1E+10	1	-1E+10	1	-1E+10	1
4902554	18	C	07/31/2021	14:57	-136.318	49.611	0	1595.70	0	2.2780	0	34.5160	0	27.570	0	1576.047	0	-1e10	8	-1e10	8	-1E+10	1	-1E+10	1	-1E+10	1	-1E+10	1	-1E+10	1	-1E+10	1
4902554	18	C	07/31/2021	14:57	-136.318	49.611	0	1605.40	0	2.2750	0	34.5170	0	27.571	0	1585.591	0	-1e10	8	-1e10	8	-1E+10	1	-1E+10	1	-1E+10	1	-1E+10	1	-1E+10	1	-1E+10	1
4902554	18	C	07/31/2021	14:57	-136.318	49.611	0	1615.10	0	2.2650	0	34.5190	0	27.574	0	1595.135	0	-1e10	8	-1e10	8	-1E+10	1	-1E+10	1	-1E+10	1	-1E+10	1	-1E+10	1	-1E+10	1
4902554	18	C	07/31/2021	14:57	-136.318	49.611	0	1625.40	0	2.2570	0	34.5200	0	27.575	0	1605.269	0	-1e10	8	-1e10	8	-1E+10	1	-1E+10	1	-1E+10	1	-1E+10	1	-1E+10	1	-1E+10	1
4902554	18	C	07/31/2021	14:57	-136.318	49.611	0	1635.40	0	2.2480	0	34.5220	0	27.578	0	1615.107	0	-1e10	8	-1e10	8	-1E+10	1	-1E+10	1	-1E+10	1	-1E+10	1	-1E+10	1	-1E+10	1
4902554	18	C	07/31/2021	14:57	-136.318	49.611	0	1645.40	0	2.2380	0	34.5240	0	27.580	0	1624.944	0	-1e10	8	-1e10	8	-1E+10	1	-1E+10	1	-1E+10	1	-1E+10	1	-1E+10	1	-1E+10	1
4902554	18	C	07/31/2021	14:57	-136.318	49.611	0	1655.50	0	2.2270	0	34.5260	0	27.583	0	1634.880	0	-1e10	8	-1e10	8	-1E+10	1	-1E+10	1	-1E+10	1	-1E+10	1	-1E+10	1	-1E+10	1
4902554	18	C	07/31/2021	14:57	-136.318	49.611	0	1665.50	0	2.2220	0	34.5280	0	27.585	0	1644.716	0	-1e10	8	-1e10	8	-1E+10	1	-1E+10	1	-1E+10	1	-1E+10	1	-1E+10	1	-1E+10	1
4902554	18	C	07/31/2021	14:57	-136.318	49.611	0	1675.40	0	2.2130	0	34.5290	0	27.586	0	1654.454	0	-1e10	8	-1e10	8	-1E+10	1	-1E+10	1	-1E+10	1	-1E+10	1	-1E+10	1	-1E+10	1
4902554	18	C	07/31/2021	14:57	-136.318	49.611	0	1685.10	0	2.2050	0	34.5310	0	27.589	0	1663.995	0	-1e10	8	-1e10	8	-1E+10	1	-1E+10	1	-1E+10	1	-1E+10	1	-1E+10	1	-1E+10	1
4902554	18	C	07/31/2021	14:57	-136.318	49.611	0	1695.40	0	2.1960	0	34.5330	0	27.591	0	1674.125	0	-1e10	8	-1e10	8	-1E+10	1	-1E+10	1	-1E+10	1	-1E+10	1	-1E+10	1	-1E+10	1
4902554	18	C	07/31/2021	14:57	-136.318	49.611	0	1705.60	0	2.1830	0	34.5360	0	27.595	0	1684.157	0	-1e10	8	-1e10	8	-1E+10	1	-1E+10	1	-1E+10	1	-1E+10	1	-1E+10	1	-1E+10	1
4902554	18	C	07/31/2021	14:57	-136.318	49.611	0	1715.60	0	2.1710	0	34.5380	0	27.597	0	1693.991	0	-1e10	8	-1e10	8	-1E+10	1	-1E+10	1	-1E+10	1	-1E+10	1	-1E+10	1	-1E+10	1
4902554	18	C	07/31/2021	14:57	-136.318	49.611	0	1725.70	0	2.1610	0	34.5400	0	27.600	0	1703.923	0	-1e10	8	-1e10	8	-1E+10	1	-1E+10	1	-1E+10	1	-1E+10	1	-1E+10	1	-1E+10	1
4902554	18	C	07/31/2021	14:57	-136.318	49.611	0	1735.40	0	2.1560	0	34.5410	0	27.601	0	1713.462	0	-1e10	8	-1e10	8	-1E+10	1	-1E+10	1	-1E+10	1	-1E+10	1	-1E+10	1	-1E+10	1
4902554	18	C	07/31/2021	14:57	-136.318	49.611	0	1745.10	0	2.1450	0	34.5430	0	27.603	0	1723.000	0	-1e10	8	-1e10	8	-1E+10	1	-1E+10	1	-1E+10	1	-1E+10	1	-1E+10	1	-1E+10	1
4902554	18	C	07/31/2021	14:57	-136.318	49.611	0	1755.50	0	2.1360	0	34.5450	0	27.606	0	1733.226	0	-1e10	8	-1e10	8	-1E+10	1	-1E+10	1	-1E+10	1	-1E+10	1	-1E+10	1	-1E+10	1
4902554	18	C	07/31/2021	14:57	-136.318	49.611	0	1765.50	0	2.1250	0	34.5470	0	27.608	0	1743.058	0	-1e10	8	-1e10	8	-1E+10	1	-1E+10	1	-1E+10	1	-1E+10	1	-1E+10	1	-1E+10	1
4902554	18	C	07/31/2021	14:57	-136.318	49.611	0	1775.50	0	2.1200	0	34.5490	0	27.610	0	1752.889	0	-1e10	8	-1e10	8	-1E+10	1	-1E+10	1	-1E+10	1	-1E+10	1	-1E+10	1	-1E+10	1
4902554	18	C	07/31/2021	14:57	-136.318	49.611	0	1785.40	0	2.1150	0	34.5490	0	27.611	0	1762.622	0	-1e10	8	-1e10	8	-1E+10	1	-1E+10	1	-1E+10	1	-1E+10	1	-1E+10	1	-1E+10	1
4902554	18	C	07/31/2021	14:57	-136.318	49.611	0	1795.10	0	2.1100	0	34.5510	0	27.613	0	1772.158	0	-1e10	8	-1e10	8	-1E+10	1	-1E+10	1	-1E+10	1	-1E+10	1	-1E+10	1	-1E+10	1
4902554	18	C	07/31/2021	14:57	-136.318	49.611	0	1805.00	0	2.1030	0	34.5520	0	27.614	0	1781.890	0	-1e10	8	-1e10	8	-1E+10	1	-1E+10	1	-1E+10	1	-1E+10	1	-1E+10	1	-1E+10	1
4902554	18	C	07/31/2021	14:57	-136.318	49.611	0	1815.10	0	2.0960	0	34.5530	0	27.616	0	1791.818	0	-1e10	8	-1e10	8	-1E+10	1	-1E+10	1	-1E+10	1	-1E+10	1	-1E+10	1	-1E+10	1
4902554	18	C	07/31/2021	14:57	-136.318	49.611	0	1825.10	0	2.0880	0	34.5550	0	27.618	0	1801.647	0	-1e10	8	-1e10	8	-1E+10	1	-1E+10	1	-1E+10	1	-1E+10	1	-1E+10	1	-1E+10	1
4902554	18	C	07/31/2021	14:57	-136.318	49.611	0	1835.30	0	2.0820	0	34.5560	0	27.619	0	1811.673	0	-1e10	8	-1e10	8	-1E+10	1	-1E+10	1	-1E+10	1	-1E+10	1	-1E+10	1	-1E+10	1
4902554	18	C	07/31/2021	14:57	-136.318	49.611	0	1845.60	0	2.0730	0	34.5580	0	27.622	0	1821.796	0	-1e10	8	-1e10	8	-1E+10	1	-1E+10	1	-1E+10	1	-1E+10	1	-1E+10	1	-1E+10	1
4902554	18	C	07/31/2021	14:57	-136.318	49.611	0	1855.60	0	2.0630	0	34.5600	0	27.624	0	1831.624	0	-1e10	8	-1e10	8	-1E+10	1	-1E+10	1	-1E+10	1	-1E+10	1	-1E+10	1	-1E+10	1
4902554	18	C	07/31/2021	14:57	-136.318	49.611	0	1865.60	0	2.0560	0	34.5620	0	27.626	0	1841.452	0	-1e10	8	-1e10	8	-1E+10	1	-1E+10	1	-1E+10	1	-1E+10	1	-1E+10	1	-1E+10	1
4902554	18	C	07/31/2021	14:57	-136.318	49.611	0	1875.70	0	2.0440	0	34.5640	0	27.629	0	1851.377	0	-1e10	8	-1e10	8	-1E+10	1	-1E+10	1	-1E+10	1	-1E+10	1	-1E+10	1	-1E+10	1
4902554	18	C	07/31/2021	14:57	-136.318	49.611	0	1885.40	0	2.0380	0	34.5650	0	27.630	0	1860.909	0	-1e10	8	-1e10	8	-1E+10	1	-1E+10	1	-1E+10	1	-1E+10	1	-1E+10	1	-1E+10	1
4902554	18	C	07/31/2021	14:57	-136.318	49.611	0	1895.30	0	2.0320	0	34.5660	0	27.632	0	1870.637	0	-1e10	8	-1e10	8	-1E+10	1	-1E+10	1	-1E+10	1	-1E+10	1	-1E+10	1	-1E+10	1
4902554	18	C	07/31/2021	14:57	-136.318	49.611	0	1905.30	0	2.0280	0	34.5670	0	27.633	0	1880.463	0	-1e10	8	-1e10	8	-1E+10	1	-1E+10	1	-1E+10	1	-1E+10	1	-1E+10	1	-1E+10	1
4902554	18	C	07/31/2021	14:57	-136.318	49.611	0	1915.30	0	2.0190	0	34.5690	0	27.635	0	1890.288	0	-1e10	8	-1e10	8	-1E+10	1	-1E+10	1	-1E+10	1	-1E+10	1	-1E+10	1	-1E+10	1
4902554	18	C	07/31/2021	14:57	-136.318	49.611	0	1925.40	0	2.0090	0	34.5710	0	27.637	0	1900.211	0	-1e10	8	-1e10	8	-1E+10	1	-1E+10	1	-1E+10	1	-1E+10	1	-1E+10	1	-1E+10	1
4902554	18	C	07/31/2021	14:57	-136.318	49.611	0	1935.60	0	1.9990	0	34.5730	0	27.640	0	1910.232	0	-1e10	8	-1e10	8	-1E+10	1	-1E+10	1	-1E+10	1	-1E+10	1	-1E+10	1	-1E+10	1
4902554	18	C	07/31/2021	14:57	-136.318	49.611	0	1945.30	0	1.9930	0	34.5740	0	27.641	0	1919.761	0	-1e10	8	-1e10	8	-1E+10	1	-1E+10	1	-1E+10	1	-1E+10	1	-1E+10	1	-1E+10	1
4902554	18	C	07/31/2021	14:57	-136.318	49.611	0	1955.10	0	1.9810	0	34.5760	0	27.644	0	1929.388	0	-1e10	8	-1e10	8	-1E+10	1	-1E+10	1	-1E+10	1	-1E+10	1	-1E+10	1	-1E+10	1
4902554	18	C	07/31/2021	14:57	-136.318	49.611	0	1965.50	0	1.9730	0	34.5780	0	27.646	0	1939.604	0	-1e10	8	-1e10	8	-1E+10	1	-1E+10	1	-1E+10	1	-1E+10	1	-1E+10	1	-1E+10	1
4902554	18	C	07/31/2021	14:57	-136.318	49.611	0	1975.80	0	1.9680	0	34.5790	0	27.647	0	1949.721	0	-1e10	8	-1e10	8	-1E+10	1	-1E+10	1	-1E+10	1	-1E+10	1	-1E+10	1	-1E+10	1
4902554	18	C	07/31/2021	14:57	-136.318	49.611	0	1985.50	0	1.9650	0	34.5800	0	27.648	0	1959.248	0	-1e10	8	-1e10	8	-1E+10	1	-1E+10	1	-1E+10	1	-1E+10	1	-1E+10	1	-1E+10	1
4902554	18	C	07/31/2021	14:57	-136.318	49.611	0	1995.30	0	1.9590	0	34.5810	0	27.650	0	1968.873	0	-1e10	8	-1e10	8	-1E+10	1	-1E+10	1	-1E+10	1	-1E+10	1	-1E+10	1	-1E+10	1
4902554	18	C	07/31/2021	14:57	-136.318	49.611	0	2005.80	0	1.9520	0	34.5830	0	27.652	0	1979.186	0	-1e10	8	-1e10	8	-1E+10	1	-1E+10	1	-1E+10	1	-1E+10	1	-1E+10	1	-1E+10	1
4902554	18	C	07/31/2021	14:57	-136.318	49.611	0	2012.10	0	1.9480	0	34.5840	0	27.653	0	1985.373	0	-1e10	8	-1e10	8	-1E+10	1	-1E+10	1	-1E+10	1	-1E+10	1	-1E+10	1	-1E+10	1
4902554	18	C	07/31/2021	14:57	-136.318	49.611	0																										
4902554	19	C	08/10/2021	20:06	-136.287	49.593	0	0.30	0	15.0160	0	32.1950	0	23.808	0	0.297	0	-1e10	8	-1e10	8	-1E+10	1	-1E+10	1	-1E+10	1	-1E+10	1	-1E+10	1	-1E+10	1
4902554	19	C	08/10/2021	20:06	-136.287	49.593	0	0.80	0	15.0120	0	32.2060	0	23.817	0	0.793	0	-1e10	8	-1e10	8	-1E+10	1	-1E+10	1	-1E+10	1	-1E+10	1	-1E+10	1	-1E+10	1
4902554	19	C	08/10/2021	20:06	-136.287	49.593	0	1.80	0	15.0140	0	32.2090	0	23.819	0	1.785	0	-1e10	8	-1e10	8	-1E+10	1	-1E+10	1	-1E+10	1	-1E+10	1	-1E+10	1	-1E+10	1
4902554	19	C	08/10/2021	20:06	-136.287	49.593	0	2.90	0	15.0090	0	32.2180	0	23.827	0	2.875	0	-1e10	8	-1e10	8	-1E+10	1	-1E+10	1	-1E+10	1	-1E+10	1	-1E+10	1	-1E+10	1
4902554	19	C	08/10/2021	20:06	-136.287	49.593	0	4.00	0	15.0040	0	32.2210	0	23.830	0	3.966	0	-1e10	8	-1e10	8	-1E+10	1	-1E+10	1	-1E+10	1	-1E+10	1	-1E+10	1	-1E+10	1
4902554	19	C	08/10/2021	20:06	-136.287	49.593	0	4.90	0	14.9980	0	32.2270	0	23.836	0	4.858	0	-1e10	8	-1e10	8	-1E+10	1	-1E+10	1	-1E+10	1	-1E+10	1	-1E+10	1	-1E+10	1
4902554	19	C	08/10/2021	20:06	-136.287	49.593	0	5.80	0	14.9960	0	32.2270	0	23.837	0	5.750	0	-1e10	8	-1e10	8	-1E+10	1	-1E+10	1	-1E+10	1	-1E+10	1	-1E+10	1	-1E+10	1
4902554	19	C	08/10/2021	20:06	-136.287	49.593	0	6.90	0	14.9970	0	32.2270	0	23.837	0	6.841	0	-1e10	8	-1e10	8	-1E+10	1	-1E+10	1	-1E+10	1	-1E+10	1	-1E+10	1	-1E+10	1
4902554	19	C	08/10/2021	20:06	-136.287	49.593	0	8.00	0	14.9860	0	32.2300	0	23.841	0	7.932	0	-1e10	8	-1e10	8	-1E+10	1	-1E+10	1	-1E+10	1	-1E+10	1	-1E+10	1	-1E+10	1
4902554	19	C	08/10/2021	20:06	-136.287	49.593	0	9.00	0	14.9610	0	32.2280	0	23.845	0	8.923	0	-1e10	8	-1e10	8	-1E+10	1	-1E+10	1	-1E+10	1	-1E+10	1	-1E+10	1	-1E+10	1
4902554	19	C	08/10/2021	20:06	-136.287	49.593	0	10.10	0	14.9600	0	32.2270	0	23.845	0	10.014	0	-1e10	8	-1e10	8	-1E+10	1	-1E+10	1	-1E+10	1	-1E+10	1	-1E+10	1	-1E+10	1
4902554	19	C	08/10/2021	20:06	-136.287	49.593	0	11.00	0	14.9540	0	32.2300	0	23.848	0	10.906	0	-1e10	8	-1e10	8	-1E+10	1	-1E+10	1	-1E+10	1	-1E+10	1	-1E+10	1	-1E+10	1
4902554	19	C	08/10/2021	20:06	-136.287	49.593	0	12.00	0	14.9420	0	32.2280	0	23.849	0	11.897	0	-1e10	8	-1e10	8	-1E+10	1	-1E+10	1	-1E+10	1	-1E+10	1	-1E+10	1	-1E+10	1
4902554	19	C	08/10/2021	20:06	-136.287	49.593	0	13.00	0	14.9300	0	32.2320	0	23.855	0	12.889	0	-1e10	8	-1e10	8	-1E+10	1	-1E+10	1	-1E+10	1	-1E+10	1	-1E+10	1	-1E+10	1
4902554	19	C	08/10/2021	20:06	-136.287	49.593	0	14.20	0	14.9090	0	32.2340	0	23.861	0	14.078	0	-1e10	8	-1e10	8	-1E+10	1	-1E+10	1	-1E+10	1	-1E+10	1	-1E+10	1	-1E+10	1
4902554	19	C	08/10/2021	20:06	-136.287	49.593	0	15.10	0	14.8150	0	32.2430	0	23.888	0	14.971	0	-1e10	8	-1e10	8	-1E+10	1	-1E+10	1	-1E+10	1	-1E+10	1	-1E+10	1	-1E+10	1
4902554	19	C	08/10/2021	20:06	-136.287	49.593	0	16.10	0	14.3330	0	32.2660	0	24.007	0	15.962	0	-1e10	8	-1e10	8	-1E+10	1	-1E+10	1	-1E+10	1	-1E+10	1	-1E+10	1	-1E+10	1
4902554	19	C	08/10/2021	20:06	-136.287	49.593	0	17.00	0	13.4940	0	32.2860	0	24.194	0	16.854	0	-1e10	8	-1e10	8	-1E+10	1	-1E+10	1	-1E+10	1	-1E+10	1	-1E+10	1	-1E+10	1
4902554	19	C	08/10/2021	20:06	-136.287	49.593	0	18.30	0	12.8140	0	32.3100	0	24.347	0	18.143	0	-1e10	8	-1e10	8	-1E+10	1	-1E+10	1	-1E+10	1	-1E+10	1	-1E+10	1	-1E+10	1
4902554	19	C	08/10/2021	20:06	-136.287	49.593	0	19.20	0	12.6270	0	32.2960	0	24.372	0	19.035	0	-1e10	8	-1e10	8	-1E+10	1	-1E+10	1	-1E+10	1	-1E+10	1	-1E+10	1	-1E+10	1
4902554	19	C	08/10/2021	20:06	-136.287	49.593	0	19.90	0	12.4370	0	32.3080	0	24.418	0	19.729	0	-1e10	8	-1e10	8	-1E+10	1	-1E+10	1	-1E+10	1	-1E+10	1	-1E+10	1	-1E+10	1
4902554	19	C	08/10/2021	20:06	-136.287	49.593	0	21.10	0	12.0230	0	32.3110	0	24.498	0	20.919	0	-1e10	8	-1e10	8	-1E+10	1	-1E+10	1	-1E+10	1	-1E+10	1	-1E+10	1	-1E+10	1
4902554	19	C	08/10/2021	20:06	-136.287	49.593	0	22.10	0	11.8290	0	32.3210	0	24.542	0	21.910	0	-1e10	8	-1e10	8	-1E+10	1	-1E+10	1	-1E+10	1	-1E+10	1	-1E+10	1	-1E+10	1
4902554	19	C	08/10/2021	20:06	-136.287	49.593	0	23.00	0	11.5580	0	32.3260	0	24.595	0	22.802	0	-1e10	8	-1e10	8	-1E+10	1	-1E+10	1	-1E+10	1	-1E+10	1	-1E+10	1	-1E+10	1
4902554	19	C	08/10/2021	20:06	-136.287	49.593	0	23.90	0	11.0890	0	32.3260	0	24.679	0	23.695	0	-1e10	8	-1e10	8	-1E+10	1	-1E+10	1	-1E+10	1	-1E+10	1	-1E+10	1	-1E+10	1
4902554	19	C	08/10/2021	20:06	-136.287	49.593	0	24.80	0	10.6000	0	32.3340	0	24.771	0	24.587	0	-1e10	8	-1e10	8	-1E+10	1	-1E+10	1	-1E+10	1	-1E+10	1	-1E+10	1	-1E+10	1
4902554	19	C	08/10/2021	20:06	-136.287	49.593	0	25.80	0	10.1790	0	32.3460	0	24.851	0	25.578	0	-1e10	8	-1e10	8	-1E+10	1	-1E+10	1	-1E+10	1	-1E+10	1	-1E+10	1	-1E+10	1
4902554	19	C	08/10/2021	20:06	-136.287	49.593	0	27.10	0	9.8720	0	32.3510	0	24.906	0	26.867	0	-1e10	8	-1e10	8	-1E+10	1	-1E+10	1	-1E+10	1	-1E+10	1	-1E+10	1	-1E+10	1
4902554	19	C	08/10/2021	20:06	-136.287	49.593	0	28.10	0	9.6440	0	32.3640	0	24.953	0	27.858	0	-1e10	8	-1e10	8	-1E+10	1	-1E+10	1	-1E+10	1	-1E+10	1	-1E+10	1	-1E+10	1
4902554	19	C	08/10/2021	20:06	-136.287	49.593	0	29.10	0	9.5200	0	32.3630	0	24.973	0	28.850	0	-1e10	8	-1e10	8	-1E+10	1	-1E+10	1	-1E+10	1	-1E+10	1	-1E+10	1	-1E+10	1
4902554	19	C	08/10/2021	20:06	-136.287	49.593	0	30.10	0	9.4810	0	32.3640	0	24.980	0	29.841	0	-1e10	8	-1e10	8	-1E+10	1	-1E+10	1	-1E+10	1	-1E+10	1	-1E+10	1	-1E+10	1
4902554	19	C	08/10/2021	20:06	-136.287	49.593	0	31.30	0	9.4320	0	32.3640	0	24.987	0	31.030	0	-1e10	8	-1e10	8	-1E+10	1	-1E+10	1	-1E+10	1	-1E+10	1	-1E+10	1	-1E+10	1
4902554	19	C	08/10/2021	20:06	-136.287	49.593	0	32.00	0	9.3670	0	32.3660	0	24.999	0	31.724	0	-1e10	8	-1e10	8	-1E+10	1	-1E+10	1	-1E+10	1	-1E+10	1	-1E+10	1	-1E+10	1
4902554	19	C	08/10/2021	20:06	-136.287	49.593	0	33.10	0	9.1240	0	32.3650	0	25.037	0	32.815	0	-1e10	8	-1e10	8	-1E+10	1	-1E+10	1	-1E+10	1	-1E+10	1	-1E+10	1	-1E+10	1
4902554	19	C	08/10/2021	20:06	-136.287	49.593	0	34.00	0	8.8060	0	32.3780	0	25.096	0	33.707	0	-1e10	8	-1e10	8	-1E+10	1	-1E+10	1	-1E+10	1	-1E+10	1	-1E+10	1	-1E+10	1
4902554	19	C	08/10/2021	20:06	-136.287	49.593	0	34.90	0	8.7150	0	32.3810	0	25.112	0	34.599	0	-1e10	8	-1e10	8	-1E+10	1	-1E+10	1	-1E+10	1	-1E+10	1	-1E+10	1	-1E+10	1
4902554	19	C	08/10/2021	20:06	-136.287	49.593	0	36.00	0	8.6180	0	32.3830	0	25.129	0	35.690	0	-1e10	8	-1e10	8	-1E+10	1	-1E+10	1	-1E+10	1	-1E+10	1	-1E+10	1	-1E+10	1
4902554	19	C	08/10/2021	20:06	-136.287	49.593	0	37.00	0	8.4850	0	32.3800	0	25.146	0	36.681	0	-1e10	8	-1e10	8	-1E+10	1	-1E+10	1	-1E+10	1	-1E+10	1	-1E+10	1	-1E+10	1
4902554	19	C	08/10/2021	20:06	-136.287	49.593	0	37.90	0	8.3630	0	32.3870	0	25.170	0	37.573	0	-1e10	8	-1e10	8	-1E+10	1	-1E+10	1	-1E+10	1	-1E+10	1	-1E+10	1	-1E+10	1
4902554	19	C	08/10/2021	20:06	-136.287	49.593	0	39.10	0	8.2560	0	32.3900	0	25.188	0	38.763	0	-1e10	8	-1e10	8	-1E+10	1	-1E+10	1	-1E+10	1	-1E+10	1	-1E+10	1	-1E+10	1
4902554	19	C	08/10/2021	20:06	-136.287	49.593	0	39.90	0	8.1290	0	32.4060	0	25.219	0	39.556	0	-1e10	8	-1e10	8	-1E+10	1	-1E+10	1	-1E+10	1	-1E+10	1	-1E+10	1	-1E+10	1
4902554	19	C	08/10/2021	20:06	-136.287	49.593	0	40.90	0	7.9180	0	32.4050	0	25.249	0	40.547	0	-1e10	8	-1e10	8	-1E+10	1	-1E+10	1	-1E+10	1	-1E+10	1	-1E+10	1	-1E+10	1
4902554	19	C	08/10/2021	20:06	-136.287	49.593	0	42.00	0	7.7970	0	32.4080	0	25.269	0	41.637	0	-1e10	8	-1e10	8	-1E+10	1	-1E+10	1	-1E+10	1	-1E+10	1	-1E+10	1	-1E+10	1
4902554	19	C	08/10/2021	20:06	-136.287	49.593	0	43.10	0	7.7810	0	32.4080	0	25.271	0	42.728	0	-1e10	8	-1e10	8	-1E+10	1	-1E+10	1	-1E+10	1	-1E+10	1	-1E+10	1	-1E+10	1
4902554	19	C	08/10/2021	20:06	-136.287	49.593	0	44.00	0	7.7740	0	32.4050	0	25.270	0	43.620	0	-1e10	8	-1e10	8	-1E+10	1	-1E+10	1	-1E+10	1	-1E+10	1	-1E+10	1	-1E+10	1
4902554	19	C	08/10/2021	20:06	-136.287	49.593	0	45.20	0	7.6430	0	32.4110	0	25.293	0	44.809	0	-1e10	8	-1e10	8	-1E+10	1	-1E+10	1	-1E+10	1	-1E+10	1	-1E+10	1	-1E+10	1
4902554	19	C	08/10/2021	20:06	-136.287	49.593	0	45.90	0	7.5820	0	32.4140	0	25.304	0	45.503	0	-1e10	8	-1e10	8	-1E+10	1	-1E+10	1	-1E+10	1	-1E+10	1	-1E+10	1	-1E+10	1
4902554	19	C	08/10/2021	20:06	-136.287	49.593	0	46.90	0	7.4760	0	32.4170	0	25.321	0	46.494	0	-1e10	8	-1e10	8	-1E+10	1	-1E+10	1	-1E+10	1	-1E+10	1	-1E+10	1	-1E+10	1
4902554	19	C	08/10/2021	20:06	-136.287	49.593	0	47.90	0	7.4030	0	32.4140	0	25.328	0	47.486	0	-1e10	8	-1e10	8	-1E+10	1	-1E+10	1	-1E+10	1	-1E+10	1	-1E+10	1	-1E+10	1
4902554	19	C	08/10/2021	20:06	-136.287	49.593	0	48.90	0	7.3530	0	32.4170	0	25.338	0	48.477	0	-1e10	8	-1e10	8	-1E+10	1	-1E+10	1	-1E+10	1	-1E+10	1	-1E+10	1	-1E+10	1
4902554	19	C	08/10/2021	20:06	-136.287	49.593	0	50.00	0	7.2200	0	32.4250	0	25.362	0	49.567	0	-1e10	8	-1e10	8	-1E+10	1	-1E+10	1	-1E+10	1	-1E+10	1	-1E+10	1	-1E+10	1
4902554	19	C	08/10/2021	20:06	-136.287	49.593	0	51.00	0	7.1740	0	32.4250	0	25.368	0	50.558	0	-1e10	8	-1e10	8	-1E+10	1	-1E+10	1	-1E+10	1	-1E+10	1	-1E+10	1	-1E+10	1
4902554	19	C	08/10/2021	20:06	-136.287	49.593	0	52.00	0	7.1090	0	32.4290	0	25.380	0	51.550	0	-1e10	8	-1e10	8	-1E+10	1	-1E+10	1	-1E+10	1	-1E+10	1	-1E+10	1	-1E+10	1
4902554	19	C	08/10/2021	20:06	-136.287	49.593	0	53.10	0	7.0320	0	32.4310	0	25.392	0	52.640	0	-1e10	8	-1e10	8	-1E+10	1	-1E+10	1	-1E+10	1	-1E+10	1	-1E+10	1	-1E+10	1
4902554	19	C	08/10/2021	20:06	-136.287	49.593	0	54.00	0	6.9500	0	32.4320	0	25.404	0	53.532	0	-1e10	8	-1e10	8	-1E+10	1	-1E+10	1	-1E+10	1	-1E+10	1	-1E+10	1	-1E+10	1
4902554	19	C	08/10/2021	20:06	-136.287	49.593	0	54.70	0	6.8800	0	32.4350	0	25.415	0	54.226	0	-1e10	8	-1e10	8	-1E+10	1	-1E+10	1	-1E+10	1	-1E+10	1	-1E+10	1	-1E+10	1
4902554	19	C	08/10/2021	20:06	-136.287	49.593	0	55.80	0	6.8380	0	32.4370	0	25.423	0	55.316	0	-1e10	8	-1e10	8	-1E+10	1	-1E+10	1	-1E+10	1	-1E+10	1	-1E+10	1	-1E+10	1
4902554	19	C	08/10/2021	20:06	-136.287	49.593	0	56.80	0	6.8050	0	32.4370	0	25.427	0	56.307	0	-1e10	8	-1e10	8	-1E+10	1	-1E+10	1	-1E+10	1	-1E+10	1	-1E+10	1	-1E+10	1
4902554	19	C	08/10/2021	20:06	-136.287	49.593	0	57.90	0	6.7830	0	32.4370	0	25.430	0	57.398	0	-1e10	8	-1e10	8	-1E+10	1	-1E+10	1	-1E+10	1	-1E+10	1	-1E+10	1	-1E+10	1
4902554	19	C	08/10/2021	20:06	-136.287	49.593	0	58.90	0	6.7440	0	32.4400	0	25.437	0	58.389	0	-1e10	8	-1e10	8	-1E+10	1	-1E+10	1	-1E+10	1	-1E+10	1	-1E+10	1	-1E+10	1
4902554	19	C	08/10/2021	20:06	-136.287	49.593	0	59.90	0	6.7130	0	32.4410	0	25.442	0	59.380	0	-1e10	8	-1e10	8	-1E+10	1	-1E+10	1	-1E+10	1	-1E+10	1	-1E+10	1	-1E+10	1
4902554	19	C	08/10/2021	20:06	-136.287	49.593	0	61.00	0	6.6760	0	32.4430	0	25.448	0	60.470	0	-1e10	8	-1e10	8	-1E+10	1	-1E+10	1	-1E+10	1	-1E+10	1	-1E+10	1	-1E+10	1
4902554	19	C	08/10/2021	20:06	-136.287	49.593	0	62.10	0	6.6300	0	32.4450	0	25.456	0	61.561	0	-1e10	8	-1e10	8	-1E+10	1	-1E+10	1	-1E+10	1	-1E+10	1	-1E+10	1	-1E+10	1
4902554	19	C	08/10/2021	20:06	-136.287	49.593	0	62.90	0	6.5990	0	32.4450	0	25.460	0	62.354	0	-1e10	8	-1e10	8	-1E+10	1	-1E+10	1	-1E+10	1	-1E+10	1	-1E+10	1	-1E+10	1
4902554	19	C	08/10/2021	20:06	-136.287	49.593	0	63.70	0	6.5680	0	32.4480	0	25.466	0	63.147	0	-1e10	8	-1e10	8	-1E+10	1	-1E+10	1	-1E+10	1	-1E+10	1	-1E+10	1	-1E+10	1
4902554	19	C	08/10/2021	20:06	-136.287	49.593	0	64.80	0	6.5300	0	32.4500	0	25.473	0	64.237	0	-1e10	8	-1e10	8	-1E+10	1	-1E+10	1	-1E+10	1	-1E+10	1	-1E+10	1	-1E+10	1
4902554	19	C	08/10/2021	20:06	-136.287	49.593	0	66.00	0	6.5040	0	32.4510	0	25.477	0	65.426	0	-1e10	8	-1e10	8	-1E+10	1	-1E+10	1	-1E+10	1	-1E+10	1	-1E+10	1	-1E+10	1
4902554	19	C	08/10/2021	20:06	-136.287	49.593	0	66.90	0	6.4910	0	32.4520	0	25.479	0	66.318	0	-1e10	8	-1e10	8	-1E+10	1	-1E+10	1	-1E+10	1	-1E+10	1	-1E+10	1	-1E+10	1
4902554	19	C	08/10/2021	20:06	-136.287	49.593	0	67.80	0	6.4770	0	32.4520	0	25.481	0	67.210	0	-1e10	8	-1e10	8	-1E+10	1	-1E+10	1	-1E+10	1	-1E+10	1	-1E+10	1	-1E+10	1
4902554	19	C	08/10/2021	20:06	-136.287	49.593	0	69.00	0	6.4460	0	32.4550	0	25.487	0	68.400	0	-1e10	8	-1e10	8	-1E+10	1	-1E+10	1	-1E+10	1	-1E+10	1	-1E+10	1	-1E+10	1
4902554	19	C	08/10/2021	20:06	-136.287	49.593	0	69.90	0	6.4170	0	32.4570	0	25.493	0	69.292	0	-1e10	8	-1e10	8	-1E+10	1	-1E+10	1	-1E+10	1	-1E+10	1	-1E+10	1	-1E+10	1
4902554	19	C	08/10/2021	20:06	-136.287	49.593	0	70.80	0	6.3820	0	32.4590	0	25.499	0	70.184	0	-1e10	8	-1e10	8	-1E+10	1	-1E+10	1	-1E+10	1	-1E+10	1	-1E+10	1	-1E+10	1
4902554	19	C	08/10/2021	20:06	-136.287	49.593	0	71.80	0	6.3500	0	32.4600	0	25.504	0	71.175	0	-1e10	8	-1e10	8	-1E+10	1	-1E+10	1	-1E+10	1	-1E+10	1	-1E+10	1	-1E+10	1
4902554	19	C	08/10/2021	20:06	-136.287	49.593	0	72.80	0	6.3360	0	32.4600	0	25.505	0	72.166	0	-1e10	8	-1e10	8	-1E+10	1	-1E+10	1	-1E+10	1	-1E+10	1	-1E+10	1	-1E+10	1
4902554	19	C	08/10/2021	20:06	-136.287	49.593	0	73.80	0	6.2970	0	32.4660	0	25.515	0	73.157	0	-1e10	8	-1e10	8	-1E+10	1	-1E+10	1	-1E+10	1	-1E+10	1	-1E+10	1	-1E+10	1
4902554	19	C	08/10/2021	20:06	-136.287	49.593	0	74.80	0	6.2630	0	32.4650	0	25.518	0	74.148	0	-1e10	8	-1e10	8	-1E+10	1	-1E+10	1	-1E+10	1	-1E+10	1	-1E+10	1	-1E+10	1
4902554	19	C	08/10/2021	20:06	-136.287	49.593	0	75.80	0	6.2470	0	32.4660	0	25.521	0	75.139	0	-1e10	8	-1e10	8	-1E+10	1	-1E+10	1	-1E+10	1	-1E+10	1	-1E+10	1	-1E+10	1
4902554	19	C	08/10/2021	20:06	-136.287	49.593	0	76.80	0	6.2220	0	32.4670	0	25.525	0	76.130	0	-1e10	8	-1e10	8	-1E+10	1	-1E+10	1	-1E+10	1	-1E+10	1	-1E+10	1	-1E+10	1
4902554	19	C	08/10/2021	20:06	-136.287	49.593	0	78.00	0	6.1910	0	32.4690	0	25.531	0	77.320	0	-1e10	8	-1e10	8	-1E+10	1	-1E+10	1	-1E+10	1	-1E+10	1	-1E+10	1	-1E+10	1
4902554	19	C	08/10/2021	20:06	-136.287	49.593	0	79.00	0	6.1410	0	32.4730	0	25.540	0	78.311	0	-1e10	8	-1e10	8	-1E+10	1	-1E+10	1	-1E+10	1	-1E+10	1	-1E+10	1	-1E+10	1
4902554	19	C	08/10/2021	20:06	-136.287	49.593	0	80.10	0	6.1290	0	32.4730	0	25.541	0	79.401	0	-1e10	8	-1e10	8	-1E+10	1	-1E+10	1	-1E+10	1	-1E+10	1	-1E+10	1	-1E+10	1
4902554	19	C	08/10/2021	20:06	-136.287	49.593	0	80.80	0	6.1270	0	32.4720	0	25.541	0	80.095	0	-1e10	8	-1e10	8	-1E+10	1	-1E+10	1	-1E+10	1	-1E+10	1	-1E+10	1	-1E+10	1
4902554	19	C	08/10/2021	20:06	-136.287	49.593	0	81.90	0	6.1150	0	32.4740	0	25.544	0	81.185	0	-1e10	8	-1e10	8	-1E+10	1	-1E+10	1	-1E+10	1	-1E+10	1	-1E+10	1	-1E+10	1
4902554	19	C	08/10/2021	20:06	-136.287	49.593	0	83.00	0	6.0940	0	32.4740	0	25.547	0	82.275	0	-1e10	8	-1e10	8	-1E+10	1	-1E+10	1	-1E+10	1	-1E+10	1	-1E+10	1	-1E+10	1
4902554	19	C	08/10/2021	20:06	-136.287	49.593	0	83.80	0	6.0870	0	32.4740	0	25.547	0	83.068	0	-1e10	8	-1e10	8	-1E+10	1	-1E+10	1	-1E+10	1	-1E+10	1	-1E+10	1	-1E+10	1
4902554	19	C	08/10/2021	20:06	-136.287	49.593	0	84.80	0	6.0700	0	32.4750	0	25.550	0	84.059	0	-1e10	8	-1e10	8	-1E+10	1	-1E+10	1	-1E+10	1	-1E+10	1	-1E+10	1	-1E+10	1
4902554	19	C	08/10/2021	20:06	-136.287	49.593	0	86.00	0	6.0640	0	32.4750	0	25.551	0	85.248	0	-1e10	8	-1e10	8	-1E+10	1	-1E+10	1	-1E+10	1	-1E+10	1	-1E+10	1	-1E+10	1
4902554	19	C	08/10/2021	20:06	-136.287	49.593	0	87.00	0	6.0590	0	32.4750	0	25.552	0	86.239	0	-1e10	8	-1e10	8	-1E+10	1	-1E+10	1	-1E+10	1	-1E+10	1	-1E+10	1	-1E+10	1
4902554	19	C	08/10/2021	20:06	-136.287	49.593	0	88.10	0	6.0470	0	32.4760	0	25.554	0	87.329	0	-1e10	8	-1e10	8	-1E+10	1	-1E+10	1	-1E+10	1	-1E+10	1	-1E+10	1	-1E+10	1
4902554	19	C	08/10/2021	20:06	-136.287	49.593	0	88.90	0	6.0270	0	32.4770	0	25.557	0	88.122	0	-1e10	8	-1e10	8	-1E+10	1	-1E+10	1	-1E+10	1	-1E+10	1	-1E+10	1	-1E+10	1
4902554	19	C	08/10/2021	20:06	-136.287	49.593	0	89.90	0	6.0140	0	32.4770	0	25.559	0	89.113	0	-1e10	8	-1e10	8	-1E+10	1	-1E+10	1	-1E+10	1	-1E+10	1	-1E+10	1	-1E+10	1
4902554	19	C	08/10/2021	20:06	-136.287	49.593	0	91.00	0	6.0070	0	32.4790	0	25.561	0	90.203	0	-1e10	8	-1e10	8	-1E+10	1	-1E+10	1	-1E+10	1	-1E+10	1	-1E+10	1	-1E+10	1
4902554	19	C	08/10/2021	20:06	-136.287	49.593	0	92.00	0	5.9960	0	32.4810	0	25.564	0	91.194	0	-1e10	8	-1e10	8	-1E+10	1	-1E+10	1	-1E+10	1	-1E+10	1	-1E+10	1	-1E+10	1
4902554	19	C	08/10/2021	20:06	-136.287	49.593	0	93.00	0	5.9900	0	32.4810	0	25.565	0	92.185	0	-1e10	8	-1e10	8	-1E+10	1	-1E+10	1	-1E+10	1	-1E+10	1	-1E+10	1	-1E+10	1
4902554	19	C	08/10/2021	20:06	-136.287	49.593	0	94.00	0	5.9810	0	32.4820	0	25.567	0	93.176	0	-1e10	8	-1e10	8	-1E+10	1	-1E+10	1	-1E+10	1	-1E+10	1	-1E+10	1	-1E+10	1
4902554	19	C	08/10/2021	20:06	-136.287	49.593	0	95.10	0	5.9690	0	32.4830	0	25.569	0	94.266	0	-1e10	8	-1e10	8	-1E+10	1	-1E+10	1	-1E+10	1	-1E+10	1	-1E+10	1	-1E+10	1
4902554	19	C	08/10/2021	20:06	-136.287	49.593	0	96.10	0	5.9440	0	32.4820	0	25.571	0	95.258	0	-1e10	8	-1e10	8	-1E+10	1	-1E+10	1	-1E+10	1	-1E+10	1	-1E+10	1	-1E+10	1
4902554	19	C	08/10/2021	20:06	-136.287	49.593	0	97.00	0	5.9250	0	32.4850	0	25.576	0	96.149	0	-1e10	8	-1e10	8	-1E+10	1	-1E+10	1	-1E+10	1	-1E+10	1	-1E+10	1	-1E+10	1
4902554	19	C	08/10/2021	20:06	-136.287	49.593	0	97.90	0	5.9040	0	32.4850	0	25.578	0	97.041	0	-1e10	8	-1e10	8	-1E+10	1	-1E+10	1	-1E+10	1	-1E+10	1	-1E+10	1	-1E+10	1
4902554	19	C	08/10/2021	20:06	-136.287	49.593	0	99.00	0	5.8810	0	32.4850	0	25.581	0	98.131	0	-1e10	8	-1e10	8	-1E+10	1	-1E+10	1	-1E+10	1	-1E+10	1	-1E+10	1	-1E+10	1
4902554	19	C	08/10/2021	20:06	-136.287	49.593	0	100.10	0	5.8750	0	32.4860	0	25.583	0	99.221	0	-1e10	8	-1e10	8	-1E+10	1	-1E+10	1	-1E+10	1	-1E+10	1	-1E+10	1	-1E+10	1
4902554	19	C	08/10/2021	20:06	-136.287	49.593	0	101.10	0	5.8590	0	32.4890	0	25.587	0	100.212	0	-1e10	8	-1e10	8	-1E+10	1	-1E+10	1	-1E+10	1	-1E+10	1	-1E+10	1	-1E+10	1
4902554	19	C	08/10/2021	20:06	-136.287	49.593	0	102.00	0	5.8580	0	32.4960	0	25.593	0	101.104	0	-1e10	8	-1e10	8	-1E+10	1	-1E+10	1	-1E+10	1	-1E+10	1	-1E+10	1	-1E+10	1
4902554	19	C	08/10/2021	20:06	-136.287	49.593	0	103.00	0	5.8730	0	32.5060	0	25.599	0	102.095	0	-1e10	8	-1e10	8	-1E+10	1	-1E+10	1	-1E+10	1	-1E+10	1	-1E+10	1	-1E+10	1
4902554	19	C	08/10/2021	20:06	-136.287	49.593	0	104.00	0	5.8630	0	32.5090	0	25.602	0	103.086	0	-1e10	8	-1e10	8	-1E+10	1	-1E+10	1	-1E+10	1	-1E+10	1	-1E+10	1	-1E+10	1
4902554	19	C	08/10/2021	20:06	-136.287	49.593	0	104.90	0	5.8550	0	32.5120	0	25.606	0	103.978	0	-1e10	8	-1e10	8	-1E+10	1	-1E+10	1	-1E+10	1	-1E+10	1	-1E+10	1	-1E+10	1
4902554	19	C	08/10/2021	20:06	-136.287	49.593	0	105.80	0	5.8700	0	32.5270	0	25.616	0	104.870	0	-1e10	8	-1e10	8	-1E+10	1	-1E+10	1	-1E+10	1	-1E+10	1	-1E+10	1	-1E+10	1
4902554	19	C	08/10/2021	20:06	-136.287	49.593	0	106.80	0	5.8700	0	32.5360	0	25.623	0	105.861	0	-1e10	8	-1e10	8	-1E+10	1	-1E+10	1	-1E+10	1	-1E+10	1	-1E+10	1	-1E+10	1
4902554	19	C	08/10/2021	20:06	-136.287	49.593	0	108.00	0	5.8730	0	32.5640	0	25.645	0	107.050	0	-1e10	8	-1e10	8	-1E+10	1	-1E+10	1	-1E+10	1	-1E+10	1	-1E+10	1	-1E+10	1
4902554	19	C	08/10/2021	20:06	-136.287	49.593	0	109.30	0	5.8810	0	32.5700	0	25.649	0	108.338	0	-1e10	8	-1e10	8	-1E+10	1	-1E+10	1	-1E+10	1	-1E+10	1	-1E+10	1	-1E+10	1
4902554	19	C	08/10/2021	20:06	-136.287	49.593	0	109.90	0	5.8870	0	32.5760	0	25.653	0	108.933	0	-1e10	8	-1e10	8	-1E+10	1	-1E+10	1	-1E+10	1	-1E+10	1	-1E+10	1	-1E+10	1
4902554	19	C	08/10/2021	20:06	-136.287	49.593	0	110.80	0	5.8930	0	32.5900	0	25.663	0	109.825	0	-1e10	8	-1e10	8	-1E+10	1	-1E+10	1	-1E+10	1	-1E+10	1	-1E+10	1	-1E+10	1
4902554	19	C	08/10/2021	20:06	-136.287	49.593	0	111.70	0	5.8940	0	32.5980	0	25.669	0	110.717	0	-1e10	8	-1e10	8	-1E+10	1	-1E+10	1	-1E+10	1	-1E+10	1	-1E+10	1	-1E+10	1
4902554	19	C	08/10/2021	20:06	-136.287	49.593	0	112.70	0	5.8970	0	32.6010	0	25.671	0	111.707	0	-1e10	8	-1e10	8	-1E+10	1	-1E+10	1	-1E+10	1	-1E+10	1	-1E+10	1	-1E+10	1
4902554	19	C	08/10/2021	20:06	-136.287	49.593	0	113.70	0	5.9160	0	32.6150	0	25.680	0	112.698	0	-1e10	8	-1e10	8	-1E+10	1	-1E+10	1	-1E+10	1	-1E+10	1	-1E+10	1	-1E+10	1
4902554	19	C	08/10/2021	20:06	-136.287	49.593	0	114.90	0	5.9360	0	32.6410	0	25.698	0	113.888	0	-1e10	8	-1e10	8	-1E+10	1	-1E+10	1	-1E+10	1	-1E+10	1	-1E+10	1	-1E+10	1
4902554	19	C	08/10/2021	20:06	-136.287	49.593	0	116.00	0	5.9550	0	32.6680	0	25.717	0	114.978	0	-1e10	8	-1e10	8	-1E+10	1	-1E+10	1	-1E+10	1	-1E+10	1	-1E+10	1	-1E+10	1
4902554	19	C	08/10/2021	20:06	-136.287	49.593	0	116.90	0	5.9610	0	32.6770	0	25.723	0	115.869	0	-1e10	8	-1e10	8	-1E+10	1	-1E+10	1	-1E+10	1	-1E+10	1	-1E+10	1	-1E+10	1
4902554	19	C	08/10/2021	20:06	-136.287	49.593	0	117.80	0	5.9560	0	32.6850	0	25.730	0	116.761	0	-1e10	8	-1e10	8	-1E+10	1	-1E+10	1	-1E+10	1	-1E+10	1	-1E+10	1	-1E+10	1
4902554	19	C	08/10/2021	20:06	-136.287	49.593	0	119.00	0	5.9710	0	32.7190	0	25.755	0	117.950	0	-1e10	8	-1e10	8	-1E+10	1	-1E+10	1	-1E+10	1	-1E+10	1	-1E+10	1	-1E+10	1
4902554	19	C	08/10/2021	20:06	-136.287	49.593	0	119.90	0	5.9830	0	32.7250	0	25.759	0	118.842	0	-1e10	8	-1e10	8	-1E+10	1	-1E+10	1	-1E+10	1	-1E+10	1	-1E+10	1	-1E+10	1
4902554	19	C	08/10/2021	20:06	-136.287	49.593	0	120.80	0	5.9990	0	32.7440	0	25.772	0	119.734	0	-1e10	8	-1e10	8	-1E+10	1	-1E+10	1	-1E+10	1	-1E+10	1	-1E+10	1	-1E+10	1
4902554	19	C	08/10/2021	20:06	-136.287	49.593	0	121.90	0	6.0180	0	32.7820	0	25.799	0	120.824	0	-1e10	8	-1e10	8	-1E+10	1	-1E+10	1	-1E+10	1	-1E+10	1	-1E+10	1	-1E+10	1
4902554	19	C	08/10/2021	20:06	-136.287	49.593	0	123.10	0	6.0410	0	32.8250	0	25.831	0	122.013	0	-1e10	8	-1e10	8	-1E+10	1	-1E+10	1	-1E+10	1	-1E+10	1	-1E+10	1	-1E+10	1
4902554	19	C	08/10/2021	20:06	-136.287	49.593	0	124.10	0	6.0550	0	32.8490	0	25.848	0	123.004	0	-1e10	8	-1e10	8	-1E+10	1	-1E+10	1	-1E+10	1	-1E+10	1	-1E+10	1	-1E+10	1
4902554	19	C	08/10/2021	20:06	-136.287	49.593	0	124.90	0	6.0600	0	32.8550	0	25.852	0	123.796	0	-1e10	8	-1e10	8	-1E+10	1	-1E+10	1	-1E+10	1	-1E+10	1	-1E+10	1	-1E+10	1
4902554	19	C	08/10/2021	20:06	-136.287	49.593	0	126.10	0	6.0750	0	32.8740	0	25.865	0	124.985	0	-1e10	8	-1e10	8	-1E+10	1	-1E+10	1	-1E+10	1	-1E+10	1	-1E+10	1	-1E+10	1
4902554	19	C	08/10/2021	20:06	-136.287	49.593	0	127.00	0	6.0940	0	32.9070	0	25.889	0	125.877	0	-1e10	8	-1e10	8	-1E+10	1	-1E+10	1	-1E+10	1	-1E+10	1	-1E+10	1	-1E+10	1
4902554	19	C	08/10/2021	20:06	-136.287	49.593	0	127.90	0	6.0980	0	32.9300	0	25.907	0	126.769	0	-1e10	8	-1e10	8	-1E+10	1	-1E+10	1	-1E+10	1	-1E+10	1	-1E+10	1	-1E+10	1
4902554	19	C	08/10/2021	20:06	-136.287	49.593	0	128.90	0	6.1080	0	32.9430	0	25.916	0	127.760	0	-1e10	8	-1e10	8	-1E+10	1	-1E+10	1	-1E+10	1	-1E+10	1	-1E+10	1	-1E+10	1
4902554	19	C	08/10/2021	20:06	-136.287	49.593	0	129.80	0	6.1160	0	32.9610	0	25.929	0	128.652	0	-1e10	8	-1e10	8	-1E+10	1	-1E+10	1	-1E+10	1	-1E+10	1	-1E+10	1	-1E+10	1
4902554	19	C	08/10/2021	20:06	-136.287	49.593	0	130.80	0	6.1280	0	32.9950	0	25.954	0	129.642	0	-1e10	8	-1e10	8	-1E+10	1	-1E+10	1	-1E+10	1	-1E+10	1	-1E+10	1	-1E+10	1
4902554	19	C	08/10/2021	20:06	-136.287	49.593	0	131.90	0	6.1440	0	33.0340	0	25.983	0	130.732	0	-1e10	8	-1e10	8	-1E+10	1	-1E+10	1	-1E+10	1	-1E+10	1	-1E+10	1	-1E+10	1
4902554	19	C	08/10/2021	20:06	-136.287	49.593	0	133.10	0	6.1540	0	33.0930	0	26.028	0	131.921	0	-1e10	8	-1e10	8	-1E+10	1	-1E+10	1	-1E+10	1	-1E+10	1	-1E+10	1	-1E+10	1
4902554	19	C	08/10/2021	20:06	-136.287	49.593	0	134.00	0	6.1610	0	33.1250	0	26.053	0	132.813	0	-1e10	8	-1e10	8	-1E+10	1	-1E+10	1	-1E+10	1	-1E+10	1	-1E+10	1	-1E+10	1
4902554	19	C	08/10/2021	20:06	-136.287	49.593	0	135.20	0	6.1620	0	33.1700	0	26.088	0	134.002	0	-1e10	8	-1e10	8	-1E+10	1	-1E+10	1	-1E+10	1	-1E+10	1	-1E+10	1	-1E+10	1
4902554	19	C	08/10/2021	20:06	-136.287	49.593	0	136.10	0	6.1680	0	33.1900	0	26.103	0	134.894	0	-1e10	8	-1e10	8	-1E+10	1	-1E+10	1	-1E+10	1	-1E+10	1	-1E+10	1	-1E+10	1
4902554	19	C	08/10/2021	20:06	-136.287	49.593	0	136.80	0	6.1690	0	33.2040	0	26.114	0	135.587	0	-1e10	8	-1e10	8	-1E+10	1	-1E+10	1	-1E+10	1	-1E+10	1	-1E+10	1	-1E+10	1
4902554	19	C	08/10/2021	20:06	-136.287	49.593	0	137.80	0	6.1740	0	33.2470	0	26.147	0	136.578	0	-1e10	8	-1e10	8	-1E+10	1	-1E+10	1	-1E+10	1	-1E+10	1	-1E+10	1	-1E+10	1
4902554	19	C	08/10/2021	20:06	-136.287	49.593	0	138.80	0	6.2240	0	33.2970	0	26.181	0	137.569	0	-1e10	8	-1e10	8	-1E+10	1	-1E+10	1	-1E+10	1	-1E+10	1	-1E+10	1	-1E+10	1
4902554	19	C	08/10/2021	20:06	-136.287	49.593	0	140.00	0	6.2420	0	33.3390	0	26.212	0	138.758	0	-1e10	8	-1e10	8	-1E+10	1	-1E+10	1	-1E+10	1	-1E+10	1	-1E+10	1	-1E+10	1
4902554	19	C	08/10/2021	20:06	-136.287	49.593	0	141.10	0	6.2450	0	33.3660	0	26.232	0	139.848	0	-1e10	8	-1e10	8	-1E+10	1	-1E+10	1	-1E+10	1	-1E+10	1	-1E+10	1	-1E+10	1
4902554	19	C	08/10/2021	20:06	-136.287	49.593	0	142.00	0	6.2440	0	33.3730	0	26.238	0	140.739	0	-1e10	8	-1e10	8	-1E+10	1	-1E+10	1	-1E+10	1	-1E+10	1	-1E+10	1	-1E+10	1
4902554	19	C	08/10/2021	20:06	-136.287	49.593	0	142.90	0	6.2450	0	33.3880	0	26.250	0	141.631	0	-1e10	8	-1e10	8	-1E+10	1	-1E+10	1	-1E+10	1	-1E+10	1	-1E+10	1	-1E+10	1
4902554	19	C	08/10/2021	20:06	-136.287	49.593	0	144.10	0	6.2440	0	33.4030	0	26.262	0	142.820	0	-1e10	8	-1e10	8	-1E+10	1	-1E+10	1	-1E+10	1	-1E+10	1	-1E+10	1	-1E+10	1
4902554	19	C	08/10/2021	20:06	-136.287	49.593	0	145.10	0	6.2400	0	33.4280	0	26.282	0	143.811	0	-1e10	8	-1e10	8	-1E+10	1	-1E+10	1	-1E+10	1	-1E+10	1	-1E+10	1	-1E+10	1
4902554	19	C	08/10/2021	20:06	-136.287	49.593	0	146.00	0	6.2390	0	33.4330	0	26.286	0	144.703	0	-1e10	8	-1e10	8	-1E+10	1	-1E+10	1	-1E+10	1	-1E+10	1	-1E+10	1	-1E+10	1
4902554	19	C	08/10/2021	20:06	-136.287	49.593	0	147.00	0	6.2280	0	33.4450	0	26.297	0	145.693	0	-1e10	8	-1e10	8	-1E+10	1	-1E+10	1	-1E+10	1	-1E+10	1	-1E+10	1	-1E+10	1
4902554	19	C	08/10/2021	20:06	-136.287	49.593	0	148.00	0	6.2170	0	33.4710	0	26.319	0	146.684	0	-1e10	8	-1e10	8	-1E+10	1	-1E+10	1	-1E+10	1	-1E+10	1	-1E+10	1	-1E+10	1
4902554	19	C	08/10/2021	20:06	-136.287	49.593	0	149.10	0	6.2080	0	33.4910	0	26.336	0	147.774	0	-1e10	8	-1e10	8	-1E+10	1	-1E+10	1	-1E+10	1	-1E+10	1	-1E+10	1	-1E+10	1
4902554	19	C	08/10/2021	20:06	-136.287	49.593	0	149.80	0	6.2070	0	33.4930	0	26.338	0	148.467	0	-1e10	8	-1e10	8	-1E+10	1	-1E+10	1	-1E+10	1	-1E+10	1	-1E+10	1	-1E+10	1
4902554	19	C	08/10/2021	20:06	-136.287	49.593	0	150.90	0	6.2090	0	33.5020	0	26.345	0	149.557	0	-1e10	8	-1e10	8	-1E+10	1	-1E+10	1	-1E+10	1	-1E+10	1	-1E+10	1	-1E+10	1
4902554	19	C	08/10/2021	20:06	-136.287	49.593	0	152.10	0	6.2030	0	33.5220	0	26.361	0	150.746	0	-1e10	8	-1e10	8	-1E+10	1	-1E+10	1	-1E+10	1	-1E+10	1	-1E+10	1	-1E+10	1
4902554	19	C	08/10/2021	20:06	-136.287	49.593	0	152.80	0	6.1880	0	33.5660	0	26.398	0	151.440	0	-1e10	8	-1e10	8	-1E+10	1	-1E+10	1	-1E+10	1	-1E+10	1	-1E+10	1	-1E+10	1
4902554	19	C	08/10/2021	20:06	-136.287	49.593	0	154.00	0	6.1860	0	33.5750	0	26.405	0	152.629	0	-1e10	8	-1e10	8	-1E+10	1	-1E+10	1	-1E+10	1	-1E+10	1	-1E+10	1	-1E+10	1
4902554	19	C	08/10/2021	20:06	-136.287	49.593	0	155.20	0	6.1850	0	33.5780	0	26.408	0	153.817	0	-1e10	8	-1e10	8	-1E+10	1	-1E+10	1	-1E+10	1	-1E+10	1	-1E+10	1	-1E+10	1
4902554	19	C	08/10/2021	20:06	-136.287	49.593	0	155.90	0	6.1830	0	33.5830	0	26.412	0	154.511	0	-1e10	8	-1e10	8	-1E+10	1	-1E+10	1	-1E+10	1	-1E+10	1	-1E+10	1	-1E+10	1
4902554	19	C	08/10/2021	20:06	-136.287	49.593	0	156.70	0	6.1810	0	33.5880	0	26.416	0	155.303	0	-1e10	8	-1e10	8	-1E+10	1	-1E+10	1	-1E+10	1	-1E+10	1	-1E+10	1	-1E+10	1
4902554	19	C	08/10/2021	20:06	-136.287	49.593	0	157.90	0	6.1700	0	33.6220	0	26.444	0	156.492	0	-1e10	8	-1e10	8	-1E+10	1	-1E+10	1	-1E+10	1	-1E+10	1	-1E+10	1	-1E+10	1
4902554	19	C	08/10/2021	20:06	-136.287	49.593	0	159.20	0	6.1570	0	33.6430	0	26.463	0	157.780	0	-1e10	8	-1e10	8	-1E+10	1	-1E+10	1	-1E+10	1	-1E+10	1	-1E+10	1	-1E+10	1
4902554	19	C	08/10/2021	20:06	-136.287	49.593	0	160.00	0	6.1560	0	33.6470	0	26.466	0	158.573	0	-1e10	8	-1e10	8	-1E+10	1	-1E+10	1	-1E+10	1	-1E+10	1	-1E+10	1	-1E+10	1
4902554	19	C	08/10/2021	20:06	-136.287	49.593	0	160.90	0	6.0630	0	33.6580	0	26.486	0	159.464	0	-1e10	8	-1e10	8	-1E+10	1	-1E+10	1	-1E+10	1	-1E+10	1	-1E+10	1	-1E+10	1
4902554	19	C	08/10/2021	20:06	-136.287	49.593	0	161.80	0	6.0620	0	33.6620	0	26.490	0	160.356	0	-1e10	8	-1e10	8	-1E+10	1	-1E+10	1	-1E+10	1	-1E+10	1	-1E+10	1	-1E+10	1
4902554	19	C	08/10/2021	20:06	-136.287	49.593	0	162.60	0	6.0190	0	33.6640	0	26.496	0	161.149	0	-1e10	8	-1e10	8	-1E+10	1	-1E+10	1	-1E+10	1	-1E+10	1	-1E+10	1	-1E+10	1
4902554	19	C	08/10/2021	20:06	-136.287	49.593	0	163.90	0	6.0220	0	33.6690	0	26.500	0	162.436	0	-1e10	8	-1e10	8	-1E+10	1	-1E+10	1	-1E+10	1	-1E+10	1	-1E+10	1	-1E+10	1
4902554	19	C	08/10/2021	20:06	-136.287	49.593	0	165.20	0	6.0200	0	33.6790	0	26.508	0	163.724	0	-1e10	8	-1e10	8	-1E+10	1	-1E+10	1	-1E+10	1	-1E+10	1	-1E+10	1	-1E+10	1
4902554	19	C	08/10/2021	20:06	-136.287	49.593	0	166.10	0	6.0150	0	33.6830	0	26.512	0	164.616	0	-1e10	8	-1e10	8	-1E+10	1	-1E+10	1	-1E+10	1	-1E+10	1	-1E+10	1	-1E+10	1
4902554	19	C	08/10/2021	20:06	-136.287	49.593	0	167.00	0	6.0090	0	33.6840	0	26.514	0	165.508	0	-1e10	8	-1e10	8	-1E+10	1	-1E+10	1	-1E+10	1	-1E+10	1	-1E+10	1	-1E+10	1
4902554	19	C	08/10/2021	20:06	-136.287	49.593	0	167.80	0	6.0210	0	33.6910	0	26.518	0	166.300	0	-1e10	8	-1e10	8	-1E+10	1	-1E+10	1	-1E+10	1	-1E+10	1	-1E+10	1	-1E+10	1
4902554	19	C	08/10/2021	20:06	-136.287	49.593	0	168.70	0	5.9960	0	33.7030	0	26.530	0	167.192	0	-1e10	8	-1e10	8	-1E+10	1	-1E+10	1	-1E+10	1	-1E+10	1	-1E+10	1	-1E+10	1
4902554	19	C	08/10/2021	20:06	-136.287	49.593	0	169.60	0	6.0030	0	33.7110	0	26.536	0	168.083	0	-1e10	8	-1e10	8	-1E+10	1	-1E+10	1	-1E+10	1	-1E+10	1	-1E+10	1	-1E+10	1
4902554	19	C	08/10/2021	20:06	-136.287	49.593	0	170.50	0	5.9020	0	33.7260	0	26.560	0	168.975	0	-1e10	8	-1e10	8	-1E+10	1	-1E+10	1	-1E+10	1	-1E+10	1	-1E+10	1	-1E+10	1
4902554	19	C	08/10/2021	20:06	-136.287	49.593	0	171.90	0	5.9280	0	33.7320	0	26.562	0	170.362	0	-1e10	8	-1e10	8	-1E+10	1	-1E+10	1	-1E+10	1	-1E+10	1	-1E+10	1	-1E+10	1
4902554	19	C	08/10/2021	20:06	-136.287	49.593	0	173.30	0	5.9810	0	33.7520	0	26.571	0	171.749	0	-1e10	8	-1e10	8	-1E+10	1	-1E+10	1	-1E+10	1	-1E+10	1	-1E+10	1	-1E+10	1
4902554	19	C	08/10/2021	20:06	-136.287	49.593	0	174.20	0	5.9800	0	33.7520	0	26.571	0	172.640	0	-1e10	8	-1e10	8	-1E+10	1	-1E+10	1	-1E+10	1	-1E+10	1	-1E+10	1	-1E+10	1
4902554	19	C	08/10/2021	20:06	-136.287	49.593	0	175.10	0	5.9770	0	33.7520	0	26.571	0	173.532	0	-1e10	8	-1e10	8	-1E+10	1	-1E+10	1	-1E+10	1	-1E+10	1	-1E+10	1	-1E+10	1
4902554	19	C	08/10/2021	20:06	-136.287	49.593	0	176.00	0	5.9540	0	33.7550	0	26.577	0	174.423	0	-1e10	8	-1e10	8	-1E+10	1	-1E+10	1	-1E+10	1	-1E+10	1	-1E+10	1	-1E+10	1
4902554	19	C	08/10/2021	20:06	-136.287	49.593	0	176.90	0	5.9680	0	33.7580	0	26.577	0	175.315	0	-1e10	8	-1e10	8	-1E+10	1	-1E+10	1	-1E+10	1	-1E+10	1	-1E+10	1	-1E+10	1
4902554	19	C	08/10/2021	20:06	-136.287	49.593	0	177.80	0	5.9440	0	33.7630	0	26.584	0	176.206	0	-1e10	8	-1e10	8	-1E+10	1	-1E+10	1	-1E+10	1	-1E+10	1	-1E+10	1	-1E+10	1
4902554	19	C	08/10/2021	20:06	-136.287	49.593	0	178.80	0	5.9200	0	33.7650	0	26.589	0	177.197	0	-1e10	8	-1e10	8	-1E+10	1	-1E+10	1	-1E+10	1	-1E+10	1	-1E+10	1	-1E+10	1
4902554	19	C	08/10/2021	20:06	-136.287	49.593	0	179.70	0	5.9060	0	33.7650	0	26.591	0	178.089	0	-1e10	8	-1e10	8	-1E+10	1	-1E+10	1	-1E+10	1	-1E+10	1	-1E+10	1	-1E+10	1
4902554	19	C	08/10/2021	20:06	-136.287	49.593	0	180.60	0	5.9230	0	33.7720	0	26.594	0	178.980	0	-1e10	8	-1e10	8	-1E+10	1	-1E+10	1	-1E+10	1	-1E+10	1	-1E+10	1	-1E+10	1
4902554	19	C	08/10/2021	20:06	-136.287	49.593	0	181.60	0	5.9260	0	33.7780	0	26.598	0	179.971	0	-1e10	8	-1e10	8	-1E+10	1	-1E+10	1	-1E+10	1	-1E+10	1	-1E+10	1	-1E+10	1
4902554	19	C	08/10/2021	20:06	-136.287	49.593	0	182.50	0	5.9180	0	33.7810	0	26.602	0	180.862	0	-1e10	8	-1e10	8	-1E+10	1	-1E+10	1	-1E+10	1	-1E+10	1	-1E+10	1	-1E+10	1
4902554	19	C	08/10/2021	20:06	-136.287	49.593	0	183.90	0	5.9070	0	33.7820	0	26.604	0	182.249	0	-1e10	8	-1e10	8	-1E+10	1	-1E+10	1	-1E+10	1	-1E+10	1	-1E+10	1	-1E+10	1
4902554	19	C	08/10/2021	20:06	-136.287	49.593	0	185.40	0	5.9010	0	33.7820	0	26.605	0	183.735	0	-1e10	8	-1e10	8	-1E+10	1	-1E+10	1	-1E+10	1	-1E+10	1	-1E+10	1	-1E+10	1
4902554	19	C	08/10/2021	20:06	-136.287	49.593	0	186.30	0	5.8870	0	33.7870	0	26.610	0	184.626	0	-1e10	8	-1e10	8	-1E+10	1	-1E+10	1	-1E+10	1	-1E+10	1	-1E+10	1	-1E+10	1
4902554	19	C	08/10/2021	20:06	-136.287	49.593	0	187.30	0	5.8670	0	33.7860	0	26.612	0	185.617	0	-1e10	8	-1e10	8	-1E+10	1	-1E+10	1	-1E+10	1	-1E+10	1	-1E+10	1	-1E+10	1
4902554	19	C	08/10/2021	20:06	-136.287	49.593	0	188.30	0	5.8440	0	33.7920	0	26.620	0	186.608	0	-1e10	8	-1e10	8	-1E+10	1	-1E+10	1	-1E+10	1	-1E+10	1	-1E+10	1	-1E+10	1
4902554	19	C	08/10/2021	20:06	-136.287	49.593	0	189.20	0	5.8210	0	33.7890	0	26.620	0	187.499	0	-1e10	8	-1e10	8	-1E+10	1	-1E+10	1	-1E+10	1	-1E+10	1	-1E+10	1	-1E+10	1
4902554	19	C	08/10/2021	20:06	-136.287	49.593	0	190.20	0	5.8160	0	33.7900	0	26.621	0	188.490	0	-1e10	8	-1e10	8	-1E+10	1	-1E+10	1	-1E+10	1	-1E+10	1	-1E+10	1	-1E+10	1
4902554	19	C	08/10/2021	20:06	-136.287	49.593	0	191.20	0	5.8140	0	33.7900	0	26.622	0	189.480	0	-1e10	8	-1e10	8	-1E+10	1	-1E+10	1	-1E+10	1	-1E+10	1	-1E+10	1	-1E+10	1
4902554	19	C	08/10/2021	20:06	-136.287	49.593	0	192.20	0	5.8090	0	33.7920	0	26.624	0	190.471	0	-1e10	8	-1e10	8	-1E+10	1	-1E+10	1	-1E+10	1	-1E+10	1	-1E+10	1	-1E+10	1
4902554	19	C	08/10/2021	20:06	-136.287	49.593	0	193.20	0	5.8050	0	33.7920	0	26.624	0	191.461	0	-1e10	8	-1e10	8	-1E+10	1	-1E+10	1	-1E+10	1	-1E+10	1	-1E+10	1	-1E+10	1
4902554	19	C	08/10/2021	20:06	-136.287	49.593	0	194.10	0	5.8000	0	33.7930	0	26.626	0	192.353	0	-1e10	8	-1e10	8	-1E+10	1	-1E+10	1	-1E+10	1	-1E+10	1	-1E+10	1	-1E+10	1
4902554	19	C	08/10/2021	20:06	-136.287	49.593	0	195.10	0	5.7920	0	33.7930	0	26.627	0	193.343	0	-1e10	8	-1e10	8	-1E+10	1	-1E+10	1	-1E+10	1	-1E+10	1	-1E+10	1	-1E+10	1
4902554	19	C	08/10/2021	20:06	-136.287	49.593	0	196.10	0	5.7590	0	33.7920	0	26.630	0	194.334	0	-1e10	8	-1e10	8	-1E+10	1	-1E+10	1	-1E+10	1	-1E+10	1	-1E+10	1	-1E+10	1
4902554	19	C	08/10/2021	20:06	-136.287	49.593	0	197.10	0	5.7500	0	33.7940	0	26.633	0	195.324	0	-1e10	8	-1e10	8	-1E+10	1	-1E+10	1	-1E+10	1	-1E+10	1	-1E+10	1	-1E+10	1
4902554	19	C	08/10/2021	20:06	-136.287	49.593	0	198.10	0	5.7450	0	33.7940	0	26.633	0	196.315	0	-1e10	8	-1e10	8	-1E+10	1	-1E+10	1	-1E+10	1	-1E+10	1	-1E+10	1	-1E+10	1
4902554	19	C	08/10/2021	20:06	-136.287	49.593	0	199.10	0	5.7430	0	33.7950	0	26.634	0	197.305	0	-1e10	8	-1e10	8	-1E+10	1	-1E+10	1	-1E+10	1	-1E+10	1	-1E+10	1	-1E+10	1
4902554	19	C	08/10/2021	20:06	-136.287	49.593	0	200.00	0	5.7400	0	33.7970	0	26.636	0	198.197	0	-1e10	8	-1e10	8	-1E+10	1	-1E+10	1	-1E+10	1	-1E+10	1	-1E+10	1	-1E+10	1
4902554	19	C	08/10/2021	20:06	-136.287	49.593	0	201.00	0	5.7350	0	33.7980	0	26.638	0	199.187	0	-1e10	8	-1e10	8	-1E+10	1	-1E+10	1	-1E+10	1	-1E+10	1	-1E+10	1	-1E+10	1
4902554	19	C	08/10/2021	20:06	-136.287	49.593	0	202.00	0	5.7220	0	33.8010	0	26.642	0	200.178	0	-1e10	8	-1e10	8	-1E+10	1	-1E+10	1	-1E+10	1	-1E+10	1	-1E+10	1	-1E+10	1
4902554	19	C	08/10/2021	20:06	-136.287	49.593	0	203.00	0	5.7110	0	33.8050	0	26.646	0	201.168	0	-1e10	8	-1e10	8	-1E+10	1	-1E+10	1	-1E+10	1	-1E+10	1	-1E+10	1	-1E+10	1
4902554	19	C	08/10/2021	20:06	-136.287	49.593	0	204.00	0	5.6970	0	33.8040	0	26.647	0	202.159	0	-1e10	8	-1e10	8	-1E+10	1	-1E+10	1	-1E+10	1	-1E+10	1	-1E+10	1	-1E+10	1
4902554	19	C	08/10/2021	20:06	-136.287	49.593	0	205.00	0	5.6690	0	33.8070	0	26.653	0	203.149	0	-1e10	8	-1e10	8	-1E+10	1	-1E+10	1	-1E+10	1	-1E+10	1	-1E+10	1	-1E+10	1
4902554	19	C	08/10/2021	20:06	-136.287	49.593	0	206.00	0	5.6600	0	33.8080	0	26.655	0	204.140	0	-1e10	8	-1e10	8	-1E+10	1	-1E+10	1	-1E+10	1	-1E+10	1	-1E+10	1	-1E+10	1
4902554	19	C	08/10/2021	20:06	-136.287	49.593	0	207.10	0	5.6560	0	33.8080	0	26.655	0	205.229	0	-1e10	8	-1e10	8	-1E+10	1	-1E+10	1	-1E+10	1	-1E+10	1	-1E+10	1	-1E+10	1
4902554	19	C	08/10/2021	20:06	-136.287	49.593	0	208.10	0	5.6490	0	33.8080	0	26.656	0	206.220	0	-1e10	8	-1e10	8	-1E+10	1	-1E+10	1	-1E+10	1	-1E+10	1	-1E+10	1	-1E+10	1
4902554	19	C	08/10/2021	20:06	-136.287	49.593	0	209.10	0	5.6420	0	33.8090	0	26.658	0	207.210	0	-1e10	8	-1e10	8	-1E+10	1	-1E+10	1	-1E+10	1	-1E+10	1	-1E+10	1	-1E+10	1
4902554	19	C	08/10/2021	20:06	-136.287	49.593	0	210.10	0	5.6380	0	33.8080	0	26.658	0	208.201	0	-1e10	8	-1e10	8	-1E+10	1	-1E+10	1	-1E+10	1	-1E+10	1	-1E+10	1	-1E+10	1
4902554	19	C	08/10/2021	20:06	-136.287	49.593	0	211.20	0	5.6350	0	33.8090	0	26.659	0	209.290	0	-1e10	8	-1e10	8	-1E+10	1	-1E+10	1	-1E+10	1	-1E+10	1	-1E+10	1	-1E+10	1
4902554	19	C	08/10/2021	20:06	-136.287	49.593	0	212.20	0	5.6250	0	33.8080	0	26.659	0	210.281	0	-1e10	8	-1e10	8	-1E+10	1	-1E+10	1	-1E+10	1	-1E+10	1	-1E+10	1	-1E+10	1
4902554	19	C	08/10/2021	20:06	-136.287	49.593	0	213.20	0	5.5950	0	33.8130	0	26.667	0	211.271	0	-1e10	8	-1e10	8	-1E+10	1	-1E+10	1	-1E+10	1	-1E+10	1	-1E+10	1	-1E+10	1
4902554	19	C	08/10/2021	20:06	-136.287	49.593	0	214.20	0	5.5830	0	33.8140	0	26.669	0	212.261	0	-1e10	8	-1e10	8	-1E+10	1	-1E+10	1	-1E+10	1	-1E+10	1	-1E+10	1	-1E+10	1
4902554	19	C	08/10/2021	20:06	-136.287	49.593	0	215.20	0	5.5650	0	33.8160	0	26.673	0	213.252	0	-1e10	8	-1e10	8	-1E+10	1	-1E+10	1	-1E+10	1	-1E+10	1	-1E+10	1	-1E+10	1
4902554	19	C	08/10/2021	20:06	-136.287	49.593	0	216.20	0	5.5470	0	33.8140	0	26.673	0	214.242	0	-1e10	8	-1e10	8	-1E+10	1	-1E+10	1	-1E+10	1	-1E+10	1	-1E+10	1	-1E+10	1
4902554	19	C	08/10/2021	20:06	-136.287	49.593	0	217.20	0	5.5280	0	33.8120	0	26.674	0	215.233	0	-1e10	8	-1e10	8	-1E+10	1	-1E+10	1	-1E+10	1	-1E+10	1	-1E+10	1	-1E+10	1
4902554	19	C	08/10/2021	20:06	-136.287	49.593	0	218.30	0	5.5000	0	33.8130	0	26.678	0	216.322	0	-1e10	8	-1e10	8	-1E+10	1	-1E+10	1	-1E+10	1	-1E+10	1	-1E+10	1	-1E+10	1
4902554	19	C	08/10/2021	20:06	-136.287	49.593	0	219.30	0	5.4730	0	33.8110	0	26.680	0	217.313	0	-1e10	8	-1e10	8	-1E+10	1	-1E+10	1	-1E+10	1	-1E+10	1	-1E+10	1	-1E+10	1
4902554	19	C	08/10/2021	20:06	-136.287	49.593	0	220.30	0	5.4620	0	33.8100	0	26.680	0	218.303	0	-1e10	8	-1e10	8	-1E+10	1	-1E+10	1	-1E+10	1	-1E+10	1	-1E+10	1	-1E+10	1
4902554	19	C	08/10/2021	20:06	-136.287	49.593	0	221.30	0	5.4380	0	33.8090	0	26.682	0	219.293	0	-1e10	8	-1e10	8	-1E+10	1	-1E+10	1	-1E+10	1	-1E+10	1	-1E+10	1	-1E+10	1
4902554	19	C	08/10/2021	20:06	-136.287	49.593	0	222.30	0	5.4090	0	33.8080	0	26.685	0	220.284	0	-1e10	8	-1e10	8	-1E+10	1	-1E+10	1	-1E+10	1	-1E+10	1	-1E+10	1	-1E+10	1
4902554	19	C	08/10/2021	20:06	-136.287	49.593	0	223.40	0	5.3820	0	33.8100	0	26.690	0	221.373	0	-1e10	8	-1e10	8	-1E+10	1	-1E+10	1	-1E+10	1	-1E+10	1	-1E+10	1	-1E+10	1
4902554	19	C	08/10/2021	20:06	-136.287	49.593	0	224.40	0	5.3750	0	33.8090	0	26.690	0	222.364	0	-1e10	8	-1e10	8	-1E+10	1	-1E+10	1	-1E+10	1	-1E+10	1	-1E+10	1	-1E+10	1
4902554	19	C	08/10/2021	20:06	-136.287	49.593	0	225.40	0	5.3730	0	33.8090	0	26.690	0	223.354	0	-1e10	8	-1e10	8	-1E+10	1	-1E+10	1	-1E+10	1	-1E+10	1	-1E+10	1	-1E+10	1
4902554	19	C	08/10/2021	20:06	-136.287	49.593	0	226.40	0	5.3710	0	33.8100	0	26.691	0	224.344	0	-1e10	8	-1e10	8	-1E+10	1	-1E+10	1	-1E+10	1	-1E+10	1	-1E+10	1	-1E+10	1
4902554	19	C	08/10/2021	20:06	-136.287	49.593	0	227.40	0	5.3650	0	33.8120	0	26.693	0	225.335	0	-1e10	8	-1e10	8	-1E+10	1	-1E+10	1	-1E+10	1	-1E+10	1	-1E+10	1	-1E+10	1
4902554	19	C	08/10/2021	20:06	-136.287	49.593	0	228.40	0	5.3950	0	33.8160	0	26.693	0	226.325	0	-1e10	8	-1e10	8	-1E+10	1	-1E+10	1	-1E+10	1	-1E+10	1	-1E+10	1	-1E+10	1
4902554	19	C	08/10/2021	20:06	-136.287	49.593	0	229.40	0	5.3850	0	33.8190	0	26.697	0	227.316	0	-1e10	8	-1e10	8	-1E+10	1	-1E+10	1	-1E+10	1	-1E+10	1	-1E+10	1	-1E+10	1
4902554	19	C	08/10/2021	20:06	-136.287	49.593	0	230.40	0	5.3510	0	33.8140	0	26.697	0	228.306	0	-1e10	8	-1e10	8	-1E+10	1	-1E+10	1	-1E+10	1	-1E+10	1	-1E+10	1	-1E+10	1
4902554	19	C	08/10/2021	20:06	-136.287	49.593	0	231.40	0	5.3440	0	33.8140	0	26.697	0	229.296	0	-1e10	8	-1e10	8	-1E+10	1	-1E+10	1	-1E+10	1	-1E+10	1	-1E+10	1	-1E+10	1
4902554	19	C	08/10/2021	20:06	-136.287	49.593	0	232.40	0	5.3440	0	33.8130	0	26.697	0	230.287	0	-1e10	8	-1e10	8	-1E+10	1	-1E+10	1	-1E+10	1	-1E+10	1	-1E+10	1	-1E+10	1
4902554	19	C	08/10/2021	20:06	-136.287	49.593	0	233.40	0	5.3030	0	33.8120	0	26.701	0	231.277	0	-1e10	8	-1e10	8	-1E+10	1	-1E+10	1	-1E+10	1	-1E+10	1	-1E+10	1	-1E+10	1
4902554	19	C	08/10/2021	20:06	-136.287	49.593	0	234.40	0	5.2930	0	33.8090	0	26.700	0	232.267	0	-1e10	8	-1e10	8	-1E+10	1	-1E+10	1	-1E+10	1	-1E+10	1	-1E+10	1	-1E+10	1
4902554	19	C	08/10/2021	20:06	-136.287	49.593	0	235.40	0	5.2640	0	33.8130	0	26.706	0	233.258	0	-1e10	8	-1e10	8	-1E+10	1	-1E+10	1	-1E+10	1	-1E+10	1	-1E+10	1	-1E+10	1
4902554	19	C	08/10/2021	20:06	-136.287	49.593	0	236.40	0	5.2600	0	33.8150	0	26.708	0	234.248	0	-1e10	8	-1e10	8	-1E+10	1	-1E+10	1	-1E+10	1	-1E+10	1	-1E+10	1	-1E+10	1
4902554	19	C	08/10/2021	20:06	-136.287	49.593	0	237.40	0	5.2630	0	33.8170	0	26.709	0	235.238	0	-1e10	8	-1e10	8	-1E+10	1	-1E+10	1	-1E+10	1	-1E+10	1	-1E+10	1	-1E+10	1
4902554	19	C	08/10/2021	20:06	-136.287	49.593	0	238.40	0	5.2400	0	33.8200	0	26.714	0	236.229	0	-1e10	8	-1e10	8	-1E+10	1	-1E+10	1	-1E+10	1	-1E+10	1	-1E+10	1	-1E+10	1
4902554	19	C	08/10/2021	20:06	-136.287	49.593	0	239.40	0	5.2280	0	33.8190	0	26.715	0	237.219	0	-1e10	8	-1e10	8	-1E+10	1	-1E+10	1	-1E+10	1	-1E+10	1	-1E+10	1	-1E+10	1
4902554	19	C	08/10/2021	20:06	-136.287	49.593	0	240.40	0	5.2240	0	33.8210	0	26.717	0	238.209	0	-1e10	8	-1e10	8	-1E+10	1	-1E+10	1	-1E+10	1	-1E+10	1	-1E+10	1	-1E+10	1
4902554	19	C	08/10/2021	20:06	-136.287	49.593	0	241.40	0	5.2230	0	33.8190	0	26.716	0	239.200	0	-1e10	8	-1e10	8	-1E+10	1	-1E+10	1	-1E+10	1	-1E+10	1	-1E+10	1	-1E+10	1
4902554	19	C	08/10/2021	20:06	-136.287	49.593	0	242.40	0	5.2090	0	33.8190	0	26.717	0	240.190	0	-1e10	8	-1e10	8	-1E+10	1	-1E+10	1	-1E+10	1	-1E+10	1	-1E+10	1	-1E+10	1
4902554	19	C	08/10/2021	20:06	-136.287	49.593	0	243.50	0	5.1990	0	33.8200	0	26.719	0	241.279	0	-1e10	8	-1e10	8	-1E+10	1	-1E+10	1	-1E+10	1	-1E+10	1	-1E+10	1	-1E+10	1
4902554	19	C	08/10/2021	20:06	-136.287	49.593	0	244.50	0	5.1980	0	33.8210	0	26.720	0	242.270	0	-1e10	8	-1e10	8	-1E+10	1	-1E+10	1	-1E+10	1	-1E+10	1	-1E+10	1	-1E+10	1
4902554	19	C	08/10/2021	20:06	-136.287	49.593	0	245.50	0	5.2160	0	33.8280	0	26.724	0	243.260	0	-1e10	8	-1e10	8	-1E+10	1	-1E+10	1	-1E+10	1	-1E+10	1	-1E+10	1	-1E+10	1
4902554	19	C	08/10/2021	20:06	-136.287	49.593	0	246.50	0	5.2470	0	33.8330	0	26.724	0	244.250	0	-1e10	8	-1e10	8	-1E+10	1	-1E+10	1	-1E+10	1	-1E+10	1	-1E+10	1	-1E+10	1
4902554	19	C	08/10/2021	20:06	-136.287	49.593	0	247.60	0	5.2630	0	33.8400	0	26.728	0	245.339	0	-1e10	8	-1e10	8	-1E+10	1	-1E+10	1	-1E+10	1	-1E+10	1	-1E+10	1	-1E+10	1
4902554	19	C	08/10/2021	20:06	-136.287	49.593	0	248.60	0	5.2640	0	33.8400	0	26.728	0	246.330	0	-1e10	8	-1e10	8	-1E+10	1	-1E+10	1	-1E+10	1	-1E+10	1	-1E+10	1	-1E+10	1
4902554	19	C	08/10/2021	20:06	-136.287	49.593	0	249.60	0	5.2540	0	33.8420	0	26.730	0	247.320	0	-1e10	8	-1e10	8	-1E+10	1	-1E+10	1	-1E+10	1	-1E+10	1	-1E+10	1	-1E+10	1
4902554	19	C	08/10/2021	20:06	-136.287	49.593	0	250.70	0	5.2510	0	33.8420	0	26.731	0	248.409	0	-1e10	8	-1e10	8	-1E+10	1	-1E+10	1	-1E+10	1	-1E+10	1	-1E+10	1	-1E+10	1
4902554	19	C	08/10/2021	20:06	-136.287	49.593	0	251.70	0	5.2500	0	33.8410	0	26.730	0	249.399	0	-1e10	8	-1e10	8	-1E+10	1	-1E+10	1	-1E+10	1	-1E+10	1	-1E+10	1	-1E+10	1
4902554	19	C	08/10/2021	20:06	-136.287	49.593	0	252.80	0	5.2470	0	33.8420	0	26.731	0	250.489	0	-1e10	8	-1e10	8	-1E+10	1	-1E+10	1	-1E+10	1	-1E+10	1	-1E+10	1	-1E+10	1
4902554	19	C	08/10/2021	20:06	-136.287	49.593	0	253.80	0	5.2420	0	33.8420	0	26.732	0	251.479	0	-1e10	8	-1e10	8	-1E+10	1	-1E+10	1	-1E+10	1	-1E+10	1	-1E+10	1	-1E+10	1
4902554	19	C	08/10/2021	20:06	-136.287	49.593	0	254.80	0	5.2360	0	33.8430	0	26.733	0	252.469	0	-1e10	8	-1e10	8	-1E+10	1	-1E+10	1	-1E+10	1	-1E+10	1	-1E+10	1	-1E+10	1
4902554	19	C	08/10/2021	20:06	-136.287	49.593	0	255.90	0	5.2200	0	33.8440	0	26.736	0	253.559	0	-1e10	8	-1e10	8	-1E+10	1	-1E+10	1	-1E+10	1	-1E+10	1	-1E+10	1	-1E+10	1
4902554	19	C	08/10/2021	20:06	-136.287	49.593	0	256.90	0	5.2060	0	33.8430	0	26.737	0	254.549	0	-1e10	8	-1e10	8	-1E+10	1	-1E+10	1	-1E+10	1	-1E+10	1	-1E+10	1	-1E+10	1
4902554	19	C	08/10/2021	20:06	-136.287	49.593	0	257.90	0	5.1950	0	33.8430	0	26.738	0	255.539	0	-1e10	8	-1e10	8	-1E+10	1	-1E+10	1	-1E+10	1	-1E+10	1	-1E+10	1	-1E+10	1
4902554	19	C	08/10/2021	20:06	-136.287	49.593	0	259.00	0	5.1820	0	33.8470	0	26.743	0	256.628	0	-1e10	8	-1e10	8	-1E+10	1	-1E+10	1	-1E+10	1	-1E+10	1	-1E+10	1	-1E+10	1
4902554	19	C	08/10/2021	20:06	-136.287	49.593	0	260.00	0	5.1710	0	33.8460	0	26.743	0	257.618	0	-1e10	8	-1e10	8	-1E+10	1	-1E+10	1	-1E+10	1	-1E+10	1	-1E+10	1	-1E+10	1
4902554	19	C	08/10/2021	20:06	-136.287	49.593	0	260.90	0	5.1700	0	33.8460	0	26.743	0	258.510	0	-1e10	8	-1e10	8	-1E+10	1	-1E+10	1	-1E+10	1	-1E+10	1	-1E+10	1	-1E+10	1
4902554	19	C	08/10/2021	20:06	-136.287	49.593	0	261.90	0	5.1630	0	33.8450	0	26.743	0	259.500	0	-1e10	8	-1e10	8	-1E+10	1	-1E+10	1	-1E+10	1	-1E+10	1	-1E+10	1	-1E+10	1
4902554	19	C	08/10/2021	20:06	-136.287	49.593	0	263.00	0	5.1530	0	33.8470	0	26.746	0	260.589	0	-1e10	8	-1e10	8	-1E+10	1	-1E+10	1	-1E+10	1	-1E+10	1	-1E+10	1	-1E+10	1
4902554	19	C	08/10/2021	20:06	-136.287	49.593	0	264.10	0	5.1450	0	33.8490	0	26.749	0	261.678	0	-1e10	8	-1e10	8	-1E+10	1	-1E+10	1	-1E+10	1	-1E+10	1	-1E+10	1	-1E+10	1
4902554	19	C	08/10/2021	20:06	-136.287	49.593	0	264.90	0	5.1470	0	33.8510	0	26.750	0	262.470	0	-1e10	8	-1e10	8	-1E+10	1	-1E+10	1	-1E+10	1	-1E+10	1	-1E+10	1	-1E+10	1
4902554	19	C	08/10/2021	20:06	-136.287	49.593	0	266.00	0	5.1400	0	33.8530	0	26.752	0	263.560	0	-1e10	8	-1e10	8	-1E+10	1	-1E+10	1	-1E+10	1	-1E+10	1	-1E+10	1	-1E+10	1
4902554	19	C	08/10/2021	20:06	-136.287	49.593	0	267.20	0	5.1210	0	33.8550	0	26.756	0	264.748	0	-1e10	8	-1e10	8	-1E+10	1	-1E+10	1	-1E+10	1	-1E+10	1	-1E+10	1	-1E+10	1
4902554	19	C	08/10/2021	20:06	-136.287	49.593	0	267.90	0	5.1150	0	33.8550	0	26.757	0	265.441	0	-1e10	8	-1e10	8	-1E+10	1	-1E+10	1	-1E+10	1	-1E+10	1	-1E+10	1	-1E+10	1
4902554	19	C	08/10/2021	20:06	-136.287	49.593	0	268.70	0	5.1130	0	33.8540	0	26.756	0	266.233	0	-1e10	8	-1e10	8	-1E+10	1	-1E+10	1	-1E+10	1	-1E+10	1	-1E+10	1	-1E+10	1
4902554	19	C	08/10/2021	20:06	-136.287	49.593	0	269.90	0	5.1060	0	33.8560	0	26.759	0	267.421	0	-1e10	8	-1e10	8	-1E+10	1	-1E+10	1	-1E+10	1	-1E+10	1	-1E+10	1	-1E+10	1
4902554	19	C	08/10/2021	20:06	-136.287	49.593	0	271.00	0	5.1020	0	33.8560	0	26.759	0	268.511	0	-1e10	8	-1e10	8	-1E+10	1	-1E+10	1	-1E+10	1	-1E+10	1	-1E+10	1	-1E+10	1
4902554	19	C	08/10/2021	20:06	-136.287	49.593	0	271.80	0	5.1010	0	33.8560	0	26.759	0	269.303	0	-1e10	8	-1e10	8	-1E+10	1	-1E+10	1	-1E+10	1	-1E+10	1	-1E+10	1	-1E+10	1
4902554	19	C	08/10/2021	20:06	-136.287	49.593	0	273.00	0	5.1010	0	33.8570	0	26.760	0	270.491	0	-1e10	8	-1e10	8	-1E+10	1	-1E+10	1	-1E+10	1	-1E+10	1	-1E+10	1	-1E+10	1
4902554	19	C	08/10/2021	20:06	-136.287	49.593	0	274.10	0	5.0960	0	33.8590	0	26.762	0	271.580	0	-1e10	8	-1e10	8	-1E+10	1	-1E+10	1	-1E+10	1	-1E+10	1	-1E+10	1	-1E+10	1
4902554	19	C	08/10/2021	20:06	-136.287	49.593	0	274.90	0	5.0830	0	33.8600	0	26.765	0	272.372	0	-1e10	8	-1e10	8	-1E+10	1	-1E+10	1	-1E+10	1	-1E+10	1	-1E+10	1	-1E+10	1
4902554	19	C	08/10/2021	20:06	-136.287	49.593	0	275.70	0	5.0740	0	33.8590	0	26.765	0	273.164	0	-1e10	8	-1e10	8	-1E+10	1	-1E+10	1	-1E+10	1	-1E+10	1	-1E+10	1	-1E+10	1
4902554	19	C	08/10/2021	20:06	-136.287	49.593	0	276.90	0	5.0550	0	33.8600	0	26.768	0	274.352	0	-1e10	8	-1e10	8	-1E+10	1	-1E+10	1	-1E+10	1	-1E+10	1	-1E+10	1	-1E+10	1
4902554	19	C	08/10/2021	20:06	-136.287	49.593	0	278.10	0	5.0310	0	33.8630	0	26.773	0	275.541	0	-1e10	8	-1e10	8	-1E+10	1	-1E+10	1	-1E+10	1	-1E+10	1	-1E+10	1	-1E+10	1
4902554	19	C	08/10/2021	20:06	-136.287	49.593	0	278.90	0	5.0110	0	33.8620	0	26.774	0	276.333	0	-1e10	8	-1e10	8	-1E+10	1	-1E+10	1	-1E+10	1	-1E+10	1	-1E+10	1	-1E+10	1
4902554	19	C	08/10/2021	20:06	-136.287	49.593	0	279.80	0	5.0130	0	33.8650	0	26.777	0	277.224	0	-1e10	8	-1e10	8	-1E+10	1	-1E+10	1	-1E+10	1	-1E+10	1	-1E+10	1	-1E+10	1
4902554	19	C	08/10/2021	20:06	-136.287	49.593	0	281.00	0	4.9930	0	33.8660	0	26.780	0	278.412	0	-1e10	8	-1e10	8	-1E+10	1	-1E+10	1	-1E+10	1	-1E+10	1	-1E+10	1	-1E+10	1
4902554	19	C	08/10/2021	20:06	-136.287	49.593	0	282.20	0	4.9860	0	33.8660	0	26.780	0	279.600	0	-1e10	8	-1e10	8	-1E+10	1	-1E+10	1	-1E+10	1	-1E+10	1	-1E+10	1	-1E+10	1
4902554	19	C	08/10/2021	20:06	-136.287	49.593	0	283.00	0	4.9810	0	33.8670	0	26.782	0	280.392	0	-1e10	8	-1e10	8	-1E+10	1	-1E+10	1	-1E+10	1	-1E+10	1	-1E+10	1	-1E+10	1
4902554	19	C	08/10/2021	20:06	-136.287	49.593	0	283.90	0	4.9780	0	33.8670	0	26.782	0	281.283	0	-1e10	8	-1e10	8	-1E+10	1	-1E+10	1	-1E+10	1	-1E+10	1	-1E+10	1	-1E+10	1
4902554	19	C	08/10/2021	20:06	-136.287	49.593	0	284.70	0	4.9700	0	33.8680	0	26.784	0	282.075	0	-1e10	8	-1e10	8	-1E+10	1	-1E+10	1	-1E+10	1	-1E+10	1	-1E+10	1	-1E+10	1
4902554	19	C	08/10/2021	20:06	-136.287	49.593	0	285.90	0	4.9420	0	33.8700	0	26.789	0	283.264	0	-1e10	8	-1e10	8	-1E+10	1	-1E+10	1	-1E+10	1	-1E+10	1	-1E+10	1	-1E+10	1
4902554	19	C	08/10/2021	20:06	-136.287	49.593	0	287.20	0	4.9380	0	33.8690	0	26.788	0	284.551	0	-1e10	8	-1e10	8	-1E+10	1	-1E+10	1	-1E+10	1	-1E+10	1	-1E+10	1	-1E+10	1
4902554	19	C	08/10/2021	20:06	-136.287	49.593	0	288.00	0	4.9350	0	33.8700	0	26.789	0	285.343	0	-1e10	8	-1e10	8	-1E+10	1	-1E+10	1	-1E+10	1	-1E+10	1	-1E+10	1	-1E+10	1
4902554	19	C	08/10/2021	20:06	-136.287	49.593	0	288.80	0	4.9320	0	33.8680	0	26.788	0	286.135	0	-1e10	8	-1e10	8	-1E+10	1	-1E+10	1	-1E+10	1	-1E+10	1	-1E+10	1	-1E+10	1
4902554	19	C	08/10/2021	20:06	-136.287	49.593	0	289.70	0	4.9150	0	33.8710	0	26.792	0	287.026	0	-1e10	8	-1e10	8	-1E+10	1	-1E+10	1	-1E+10	1	-1E+10	1	-1E+10	1	-1E+10	1
4902554	19	C	08/10/2021	20:06	-136.287	49.593	0	290.90	0	4.8970	0	33.8720	0	26.795	0	288.214	0	-1e10	8	-1e10	8	-1E+10	1	-1E+10	1	-1E+10	1	-1E+10	1	-1E+10	1	-1E+10	1
4902554	19	C	08/10/2021	20:06	-136.287	49.593	0	292.10	0	4.8820	0	33.8750	0	26.799	0	289.402	0	-1e10	8	-1e10	8	-1E+10	1	-1E+10	1	-1E+10	1	-1E+10	1	-1E+10	1	-1E+10	1
4902554	19	C	08/10/2021	20:06	-136.287	49.593	0	293.00	0	4.8700	0	33.8760	0	26.801	0	290.293	0	-1e10	8	-1e10	8	-1E+10	1	-1E+10	1	-1E+10	1	-1E+10	1	-1E+10	1	-1E+10	1
4902554	19	C	08/10/2021	20:06	-136.287	49.593	0	293.80	0	4.8650	0	33.8760	0	26.802	0	291.085	0	-1e10	8	-1e10	8	-1E+10	1	-1E+10	1	-1E+10	1	-1E+10	1	-1E+10	1	-1E+10	1
4902554	19	C	08/10/2021	20:06	-136.287	49.593	0	294.60	0	4.8550	0	33.8770	0	26.804	0	291.877	0	-1e10	8	-1e10	8	-1E+10	1	-1E+10	1	-1E+10	1	-1E+10	1	-1E+10	1	-1E+10	1
4902554	19	C	08/10/2021	20:06	-136.287	49.593	0	295.90	0	4.8500	0	33.8760	0	26.804	0	293.164	0	-1e10	8	-1e10	8	-1E+10	1	-1E+10	1	-1E+10	1	-1E+10	1	-1E+10	1	-1E+10	1
4902554	19	C	08/10/2021	20:06	-136.287	49.593	0	297.20	0	4.8420	0	33.8770	0	26.805	0	294.451	0	-1e10	8	-1e10	8	-1E+10	1	-1E+10	1	-1E+10	1	-1E+10	1	-1E+10	1	-1E+10	1
4902554	19	C	08/10/2021	20:06	-136.287	49.593	0	298.10	0	4.8390	0	33.8770	0	26.806	0	295.342	0	-1e10	8	-1e10	8	-1E+10	1	-1E+10	1	-1E+10	1	-1E+10	1	-1E+10	1	-1E+10	1
4902554	19	C	08/10/2021	20:06	-136.287	49.593	0	298.90	0	4.8370	0	33.8770	0	26.806	0	296.134	0	-1e10	8	-1e10	8	-1E+10	1	-1E+10	1	-1E+10	1	-1E+10	1	-1E+10	1	-1E+10	1
4902554	19	C	08/10/2021	20:06	-136.287	49.593	0	299.80	0	4.8260	0	33.8790	0	26.809	0	297.025	0	-1e10	8	-1e10	8	-1E+10	1	-1E+10	1	-1E+10	1	-1E+10	1	-1E+10	1	-1E+10	1
4902554	19	C	08/10/2021	20:06	-136.287	49.593	0	300.60	0	4.8180	0	33.8790	0	26.810	0	297.817	0	-1e10	8	-1e10	8	-1E+10	1	-1E+10	1	-1E+10	1	-1E+10	1	-1E+10	1	-1E+10	1
4902554	19	C	08/10/2021	20:06	-136.287	49.593	0	301.90	0	4.8140	0	33.8800	0	26.811	0	299.104	0	-1e10	8	-1e10	8	-1E+10	1	-1E+10	1	-1E+10	1	-1E+10	1	-1E+10	1	-1E+10	1
4902554	19	C	08/10/2021	20:06	-136.287	49.593	0	303.20	0	4.8010	0	33.8800	0	26.812	0	300.391	0	-1e10	8	-1e10	8	-1E+10	1	-1E+10	1	-1E+10	1	-1E+10	1	-1E+10	1	-1E+10	1
4902554	19	C	08/10/2021	20:06	-136.287	49.593	0	304.10	0	4.7970	0	33.8800	0	26.813	0	301.282	0	-1e10	8	-1e10	8	-1E+10	1	-1E+10	1	-1E+10	1	-1E+10	1	-1E+10	1	-1E+10	1
4902554	19	C	08/10/2021	20:06	-136.287	49.593	0	305.00	0	4.7950	0	33.8800	0	26.813	0	302.173	0	-1e10	8	-1e10	8	-1E+10	1	-1E+10	1	-1E+10	1	-1E+10	1	-1E+10	1	-1E+10	1
4902554	19	C	08/10/2021	20:06	-136.287	49.593	0	305.80	0	4.7940	0	33.8810	0	26.814	0	302.965	0	-1e10	8	-1e10	8	-1E+10	1	-1E+10	1	-1E+10	1	-1E+10	1	-1E+10	1	-1E+10	1
4902554	19	C	08/10/2021	20:06	-136.287	49.593	0	306.70	0	4.7910	0	33.8810	0	26.814	0	303.856	0	-1e10	8	-1e10	8	-1E+10	1	-1E+10	1	-1E+10	1	-1E+10	1	-1E+10	1	-1E+10	1
4902554	19	C	08/10/2021	20:06	-136.287	49.593	0	307.60	0	4.7890	0	33.8820	0	26.815	0	304.747	0	-1e10	8	-1e10	8	-1E+10	1	-1E+10	1	-1E+10	1	-1E+10	1	-1E+10	1	-1E+10	1
4902554	19	C	08/10/2021	20:06	-136.287	49.593	0	308.90	0	4.8020	0	33.8860	0	26.817	0	306.034	0	-1e10	8	-1e10	8	-1E+10	1	-1E+10	1	-1E+10	1	-1E+10	1	-1E+10	1	-1E+10	1
4902554	19	C	08/10/2021	20:06	-136.287	49.593	0	310.20	0	4.7950	0	33.8860	0	26.818	0	307.321	0	-1e10	8	-1e10	8	-1E+10	1	-1E+10	1	-1E+10	1	-1E+10	1	-1E+10	1	-1E+10	1
4902554	19	C	08/10/2021	20:06	-136.287	49.593	0	311.10	0	4.7900	0	33.8870	0	26.819	0	308.212	0	-1e10	8	-1e10	8	-1E+10	1	-1E+10	1	-1E+10	1	-1E+10	1	-1E+10	1	-1E+10	1
4902554	19	C	08/10/2021	20:06	-136.287	49.593	0	311.90	0	4.7740	0	33.8870	0	26.821	0	309.004	0	-1e10	8	-1e10	8	-1E+10	1	-1E+10	1	-1E+10	1	-1E+10	1	-1E+10	1	-1E+10	1
4902554	19	C	08/10/2021	20:06	-136.287	49.593	0	312.80	0	4.7710	0	33.8870	0	26.821	0	309.895	0	-1e10	8	-1e10	8	-1E+10	1	-1E+10	1	-1E+10	1	-1E+10	1	-1E+10	1	-1E+10	1
4902554	19	C	08/10/2021	20:06	-136.287	49.593	0	313.70	0	4.7700	0	33.8880	0	26.822	0	310.786	0	-1e10	8	-1e10	8	-1E+10	1	-1E+10	1	-1E+10	1	-1E+10	1	-1E+10	1	-1E+10	1
4902554	19	C	08/10/2021	20:06	-136.287	49.593	0	315.00	0	4.7590	0	33.8890	0	26.824	0	312.073	0	-1e10	8	-1e10	8	-1E+10	1	-1E+10	1	-1E+10	1	-1E+10	1	-1E+10	1	-1E+10	1
4902554	19	C	08/10/2021	20:06	-136.287	49.593	0	316.30	0	4.7530	0	33.8900	0	26.826	0	313.360	0	-1e10	8	-1e10	8	-1E+10	1	-1E+10	1	-1E+10	1	-1E+10	1	-1E+10	1	-1E+10	1
4902554	19	C	08/10/2021	20:06	-136.287	49.593	0	317.20	0	4.7470	0	33.8900	0	26.826	0	314.251	0	-1e10	8	-1e10	8	-1E+10	1	-1E+10	1	-1E+10	1	-1E+10	1	-1E+10	1	-1E+10	1
4902554	19	C	08/10/2021	20:06	-136.287	49.593	0	318.10	0	4.7420	0	33.8910	0	26.828	0	315.142	0	-1e10	8	-1e10	8	-1E+10	1	-1E+10	1	-1E+10	1	-1E+10	1	-1E+10	1	-1E+10	1
4902554	19	C	08/10/2021	20:06	-136.287	49.593	0	318.90	0	4.7330	0	33.8920	0	26.830	0	315.934	0	-1e10	8	-1e10	8	-1E+10	1	-1E+10	1	-1E+10	1	-1E+10	1	-1E+10	1	-1E+10	1
4902554	19	C	08/10/2021	20:06	-136.287	49.593	0	319.80	0	4.7310	0	33.8930	0	26.831	0	316.825	0	-1e10	8	-1e10	8	-1E+10	1	-1E+10	1	-1E+10	1	-1E+10	1	-1E+10	1	-1E+10	1
4902554	19	C	08/10/2021	20:06	-136.287	49.593	0	320.70	0	4.7230	0	33.8940	0	26.832	0	317.716	0	-1e10	8	-1e10	8	-1E+10	1	-1E+10	1	-1E+10	1	-1E+10	1	-1E+10	1	-1E+10	1
4902554	19	C	08/10/2021	20:06	-136.287	49.593	0	322.00	0	4.7130	0	33.8940	0	26.833	0	319.003	0	-1e10	8	-1e10	8	-1E+10	1	-1E+10	1	-1E+10	1	-1E+10	1	-1E+10	1	-1E+10	1
4902554	19	C	08/10/2021	20:06	-136.287	49.593	0	323.30	0	4.7070	0	33.8970	0	26.836	0	320.290	0	-1e10	8	-1e10	8	-1E+10	1	-1E+10	1	-1E+10	1	-1E+10	1	-1E+10	1	-1E+10	1
4902554	19	C	08/10/2021	20:06	-136.287	49.593	0	324.20	0	4.6970	0	33.8970	0	26.838	0	321.181	0	-1e10	8	-1e10	8	-1E+10	1	-1E+10	1	-1E+10	1	-1E+10	1	-1E+10	1	-1E+10	1
4902554	19	C	08/10/2021	20:06	-136.287	49.593	0	325.10	0	4.6930	0	33.8970	0	26.838	0	322.072	0	-1e10	8	-1e10	8	-1E+10	1	-1E+10	1	-1E+10	1	-1E+10	1	-1E+10	1	-1E+10	1
4902554	19	C	08/10/2021	20:06	-136.287	49.593	0	326.00	0	4.6910	0	33.8970	0	26.838	0	322.962	0	-1e10	8	-1e10	8	-1E+10	1	-1E+10	1	-1E+10	1	-1E+10	1	-1E+10	1	-1E+10	1
4902554	19	C	08/10/2021	20:06	-136.287	49.593	0	326.90	0	4.6880	0	33.8970	0	26.839	0	323.853	0	-1e10	8	-1e10	8	-1E+10	1	-1E+10	1	-1E+10	1	-1E+10	1	-1E+10	1	-1E+10	1
4902554	19	C	08/10/2021	20:06	-136.287	49.593	0	327.80	0	4.6870	0	33.8980	0	26.839	0	324.744	0	-1e10	8	-1e10	8	-1E+10	1	-1E+10	1	-1E+10	1	-1E+10	1	-1E+10	1	-1E+10	1
4902554	19	C	08/10/2021	20:06	-136.287	49.593	0	328.70	0	4.6690	0	33.9000	0	26.843	0	325.635	0	-1e10	8	-1e10	8	-1E+10	1	-1E+10	1	-1E+10	1	-1E+10	1	-1E+10	1	-1E+10	1
4902554	19	C	08/10/2021	20:06	-136.287	49.593	0	329.60	0	4.6640	0	33.8990	0	26.843	0	326.526	0	-1e10	8	-1e10	8	-1E+10	1	-1E+10	1	-1E+10	1	-1E+10	1	-1E+10	1	-1E+10	1
4902554	19	C	08/10/2021	20:06	-136.287	49.593	0	330.90	0	4.6550	0	33.9000	0	26.845	0	327.813	0	-1e10	8	-1e10	8	-1E+10	1	-1E+10	1	-1E+10	1	-1E+10	1	-1E+10	1	-1E+10	1
4902554	19	C	08/10/2021	20:06	-136.287	49.593	0	332.30	0	4.6490	0	33.9010	0	26.846	0	329.199	0	-1e10	8	-1e10	8	-1E+10	1	-1E+10	1	-1E+10	1	-1E+10	1	-1E+10	1	-1E+10	1
4902554	19	C	08/10/2021	20:06	-136.287	49.593	0	333.20	0	4.6480	0	33.9010	0	26.846	0	330.090	0	-1e10	8	-1e10	8	-1E+10	1	-1E+10	1	-1E+10	1	-1E+10	1	-1E+10	1	-1E+10	1
4902554	19	C	08/10/2021	20:06	-136.287	49.593	0	334.20	0	4.6460	0	33.9020	0	26.847	0	331.080	0	-1e10	8	-1e10	8	-1E+10	1	-1E+10	1	-1E+10	1	-1E+10	1	-1E+10	1	-1E+10	1
4902554	19	C	08/10/2021	20:06	-136.287	49.593	0	335.10	0	4.6450	0	33.9020	0	26.847	0	331.970	0	-1e10	8	-1e10	8	-1E+10	1	-1E+10	1	-1E+10	1	-1E+10	1	-1E+10	1	-1E+10	1
4902554	19	C	08/10/2021	20:06	-136.287	49.593	0	336.00	0	4.6400	0	33.9030	0	26.849	0	332.861	0	-1e10	8	-1e10	8	-1E+10	1	-1E+10	1	-1E+10	1	-1E+10	1	-1E+10	1	-1E+10	1
4902554	19	C	08/10/2021	20:06	-136.287	49.593	0	336.90	0	4.6350	0	33.9030	0	26.849	0	333.752	0	-1e10	8	-1e10	8	-1E+10	1	-1E+10	1	-1E+10	1	-1E+10	1	-1E+10	1	-1E+10	1
4902554	19	C	08/10/2021	20:06	-136.287	49.593	0	337.80	0	4.6290	0	33.9040	0	26.851	0	334.643	0	-1e10	8	-1e10	8	-1E+10	1	-1E+10	1	-1E+10	1	-1E+10	1	-1E+10	1	-1E+10	1
4902554	19	C	08/10/2021	20:06	-136.287	49.593	0	338.70	0	4.6230	0	33.9050	0	26.852	0	335.534	0	-1e10	8	-1e10	8	-1E+10	1	-1E+10	1	-1E+10	1	-1E+10	1	-1E+10	1	-1E+10	1
4902554	19	C	08/10/2021	20:06	-136.287	49.593	0	339.60	0	4.6220	0	33.9050	0	26.852	0	336.425	0	-1e10	8	-1e10	8	-1E+10	1	-1E+10	1	-1E+10	1	-1E+10	1	-1E+10	1	-1E+10	1
4902554	19	C	08/10/2021	20:06	-136.287	49.593	0	340.50	0	4.6180	0	33.9060	0	26.853	0	337.316	0	-1e10	8	-1e10	8	-1E+10	1	-1E+10	1	-1E+10	1	-1E+10	1	-1E+10	1	-1E+10	1
4902554	19	C	08/10/2021	20:06	-136.287	49.593	0	341.90	0	4.6090	0	33.9080	0	26.856	0	338.701	0	-1e10	8	-1e10	8	-1E+10	1	-1E+10	1	-1E+10	1	-1E+10	1	-1E+10	1	-1E+10	1
4902554	19	C	08/10/2021	20:06	-136.287	49.593	0	343.30	0	4.5960	0	33.9110	0	26.860	0	340.087	0	-1e10	8	-1e10	8	-1E+10	1	-1E+10	1	-1E+10	1	-1E+10	1	-1E+10	1	-1E+10	1
4902554	19	C	08/10/2021	20:06	-136.287	49.593	0	344.20	0	4.5930	0	33.9110	0	26.860	0	340.978	0	-1e10	8	-1e10	8	-1E+10	1	-1E+10	1	-1E+10	1	-1E+10	1	-1E+10	1	-1E+10	1
4902554	19	C	08/10/2021	20:06	-136.287	49.593	0	345.10	0	4.5920	0	33.9120	0	26.861	0	341.869	0	-1e10	8	-1e10	8	-1E+10	1	-1E+10	1	-1E+10	1	-1E+10	1	-1E+10	1	-1E+10	1
4902554	19	C	08/10/2021	20:06	-136.287	49.593	0	346.00	0	4.5940	0	33.9120	0	26.861	0	342.760	0	-1e10	8	-1e10	8	-1E+10	1	-1E+10	1	-1E+10	1	-1E+10	1	-1E+10	1	-1E+10	1
4902554	19	C	08/10/2021	20:06	-136.287	49.593	0	347.00	0	4.5870	0	33.9130	0	26.862	0	343.749	0	-1e10	8	-1e10	8	-1E+10	1	-1E+10	1	-1E+10	1	-1E+10	1	-1E+10	1	-1E+10	1
4902554	19	C	08/10/2021	20:06	-136.287	49.593	0	347.90	0	4.5840	0	33.9130	0	26.863	0	344.640	0	-1e10	8	-1e10	8	-1E+10	1	-1E+10	1	-1E+10	1	-1E+10	1	-1E+10	1	-1E+10	1
4902554	19	C	08/10/2021	20:06	-136.287	49.593	0	348.80	0	4.5660	0	33.9170	0	26.868	0	345.531	0	-1e10	8	-1e10	8	-1E+10	1	-1E+10	1	-1E+10	1	-1E+10	1	-1E+10	1	-1E+10	1
4902554	19	C	08/10/2021	20:06	-136.287	49.593	0	349.70	0	4.5630	0	33.9180	0	26.869	0	346.422	0	-1e10	8	-1e10	8	-1E+10	1	-1E+10	1	-1E+10	1	-1E+10	1	-1E+10	1	-1E+10	1
4902554	19	C	08/10/2021	20:06	-136.287	49.593	0	352.80	0	4.5570	0	33.9200	0	26.871	0	349.490	0	-1e10	8	-1e10	8	-1E+10	1	-1E+10	1	-1E+10	1	-1E+10	1	-1E+10	1	-1E+10	1
4902554	19	C	08/10/2021	20:06	-136.287	49.593	0	358.20	0	4.5430	0	33.9280	0	26.879	0	354.835	0	-1e10	8	-1e10	8	-1E+10	1	-1E+10	1	-1E+10	1	-1E+10	1	-1E+10	1	-1E+10	1
4902554	19	C	08/10/2021	20:06	-136.287	49.593	0	363.00	0	4.5230	0	33.9340	0	26.886	0	359.586	0	-1e10	8	-1e10	8	-1E+10	1	-1E+10	1	-1E+10	1	-1E+10	1	-1E+10	1	-1E+10	1
4902554	19	C	08/10/2021	20:06	-136.287	49.593	0	367.90	0	4.5040	0	33.9400	0	26.893	0	364.435	0	-1e10	8	-1e10	8	-1E+10	1	-1E+10	1	-1E+10	1	-1E+10	1	-1E+10	1	-1E+10	1
4902554	19	C	08/10/2021	20:06	-136.287	49.593	0	373.10	0	4.4870	0	33.9440	0	26.898	0	369.582	0	-1e10	8	-1e10	8	-1E+10	1	-1E+10	1	-1E+10	1	-1E+10	1	-1E+10	1	-1E+10	1
4902554	19	C	08/10/2021	20:06	-136.287	49.593	0	378.00	0	4.4660	0	33.9500	0	26.905	0	374.431	0	-1e10	8	-1e10	8	-1E+10	1	-1E+10	1	-1E+10	1	-1E+10	1	-1E+10	1	-1E+10	1
4902554	19	C	08/10/2021	20:06	-136.287	49.593	0	382.90	0	4.4480	0	33.9550	0	26.911	0	379.280	0	-1e10	8	-1e10	8	-1E+10	1	-1E+10	1	-1E+10	1	-1E+10	1	-1E+10	1	-1E+10	1
4902554	19	C	08/10/2021	20:06	-136.287	49.593	0	387.80	0	4.4210	0	33.9620	0	26.920	0	384.129	0	-1e10	8	-1e10	8	-1E+10	1	-1E+10	1	-1E+10	1	-1E+10	1	-1E+10	1	-1E+10	1
4902554	19	C	08/10/2021	20:06	-136.287	49.593	0	392.60	0	4.3940	0	33.9690	0	26.928	0	388.879	0	-1e10	8	-1e10	8	-1E+10	1	-1E+10	1	-1E+10	1	-1E+10	1	-1E+10	1	-1E+10	1
4902554	19	C	08/10/2021	20:06	-136.287	49.593	0	397.90	0	4.3670	0	33.9770	0	26.937	0	394.124	0	-1e10	8	-1e10	8	-1E+10	1	-1E+10	1	-1E+10	1	-1E+10	1	-1E+10	1	-1E+10	1
4902554	19	C	08/10/2021	20:06	-136.287	49.593	0	402.80	0	4.3560	0	33.9800	0	26.941	0	398.973	0	-1e10	8	-1e10	8	-1E+10	1	-1E+10	1	-1E+10	1	-1E+10	1	-1E+10	1	-1E+10	1
4902554	19	C	08/10/2021	20:06	-136.287	49.593	0	407.70	0	4.3460	0	33.9850	0	26.946	0	403.822	0	-1e10	8	-1e10	8	-1E+10	1	-1E+10	1	-1E+10	1	-1E+10	1	-1E+10	1	-1E+10	1
4902554	19	C	08/10/2021	20:06	-136.287	49.593	0	412.70	0	4.3310	0	33.9900	0	26.952	0	408.769	0	-1e10	8	-1e10	8	-1E+10	1	-1E+10	1	-1E+10	1	-1E+10	1	-1E+10	1	-1E+10	1
4902554	19	C	08/10/2021	20:06	-136.287	49.593	0	417.90	0	4.3150	0	33.9960	0	26.958	0	413.914	0	-1e10	8	-1e10	8	-1E+10	1	-1E+10	1	-1E+10	1	-1E+10	1	-1E+10	1	-1E+10	1
4902554	19	C	08/10/2021	20:06	-136.287	49.593	0	423.30	0	4.2990	0	34.0020	0	26.965	0	419.258	0	-1e10	8	-1e10	8	-1E+10	1	-1E+10	1	-1E+10	1	-1E+10	1	-1E+10	1	-1E+10	1
4902554	19	C	08/10/2021	20:06	-136.287	49.593	0	428.30	0	4.2820	0	34.0110	0	26.973	0	424.205	0	-1e10	8	-1e10	8	-1E+10	1	-1E+10	1	-1E+10	1	-1E+10	1	-1E+10	1	-1E+10	1
4902554	19	C	08/10/2021	20:06	-136.287	49.593	0	432.80	0	4.2740	0	34.0150	0	26.978	0	428.657	0	-1e10	8	-1e10	8	-1E+10	1	-1E+10	1	-1E+10	1	-1E+10	1	-1E+10	1	-1E+10	1
4902554	19	C	08/10/2021	20:06	-136.287	49.593	0	437.50	0	4.2620	0	34.0220	0	26.984	0	433.307	0	-1e10	8	-1e10	8	-1E+10	1	-1E+10	1	-1E+10	1	-1E+10	1	-1E+10	1	-1E+10	1
4902554	19	C	08/10/2021	20:06	-136.287	49.593	0	442.80	0	4.2510	0	34.0270	0	26.990	0	438.551	0	-1e10	8	-1e10	8	-1E+10	1	-1E+10	1	-1E+10	1	-1E+10	1	-1E+10	1	-1E+10	1
4902554	19	C	08/10/2021	20:06	-136.287	49.593	0	448.10	0	4.2350	0	34.0370	0	26.999	0	443.794	0	-1e10	8	-1e10	8	-1E+10	1	-1E+10	1	-1E+10	1	-1E+10	1	-1E+10	1	-1E+10	1
4902554	19	C	08/10/2021	20:06	-136.287	49.593	0	452.90	0	4.2200	0	34.0430	0	27.006	0	448.543	0	-1e10	8	-1e10	8	-1E+10	1	-1E+10	1	-1E+10	1	-1E+10	1	-1E+10	1	-1E+10	1
4902554	19	C	08/10/2021	20:06	-136.287	49.593	0	457.80	0	4.2060	0	34.0460	0	27.009	0	453.390	0	-1e10	8	-1e10	8	-1E+10	1	-1E+10	1	-1E+10	1	-1E+10	1	-1E+10	1	-1E+10	1
4902554	19	C	08/10/2021	20:06	-136.287	49.593	0	463.10	0	4.1990	0	34.0490	0	27.013	0	458.634	0	-1e10	8	-1e10	8	-1E+10	1	-1E+10	1	-1E+10	1	-1E+10	1	-1E+10	1	-1E+10	1
4902554	19	C	08/10/2021	20:06	-136.287	49.593	0	468.00	0	4.1870	0	34.0540	0	27.018	0	463.481	0	-1e10	8	-1e10	8	-1E+10	1	-1E+10	1	-1E+10	1	-1E+10	1	-1E+10	1	-1E+10	1
4902554	19	C	08/10/2021	20:06	-136.287	49.593	0	473.00	0	4.1720	0	34.0600	0	27.024	0	468.427	0	-1e10	8	-1e10	8	-1E+10	1	-1E+10	1	-1E+10	1	-1E+10	1	-1E+10	1	-1E+10	1
4902554	19	C	08/10/2021	20:06	-136.287	49.593	0	477.90	0	4.1600	0	34.0650	0	27.030	0	473.274	0	-1e10	8	-1e10	8	-1E+10	1	-1E+10	1	-1E+10	1	-1E+10	1	-1E+10	1	-1E+10	1
4902554	19	C	08/10/2021	20:06	-136.287	49.593	0	482.70	0	4.1500	0	34.0700	0	27.035	0	478.022	0	-1e10	8	-1e10	8	-1E+10	1	-1E+10	1	-1E+10	1	-1E+10	1	-1E+10	1	-1E+10	1
4902554	19	C	08/10/2021	20:06	-136.287	49.593	0	487.70	0	4.1420	0	34.0750	0	27.039	0	482.968	0	-1e10	8	-1e10	8	-1E+10	1	-1E+10	1	-1E+10	1	-1E+10	1	-1E+10	1	-1E+10	1
4902554	19	C	08/10/2021	20:06	-136.287	49.593	0	492.60	0	4.1390	0	34.0770	0	27.041	0	487.814	0	-1e10	8	-1e10	8	-1E+10	1	-1E+10	1	-1E+10	1	-1E+10	1	-1E+10	1	-1E+10	1
4902554	19	C	08/10/2021	20:06	-136.287	49.593	0	497.60	0	4.1300	0	34.0790	0	27.044	0	492.760	0	-1e10	8	-1e10	8	-1E+10	1	-1E+10	1	-1E+10	1	-1E+10	1	-1E+10	1	-1E+10	1
4902554	19	C	08/10/2021	20:06	-136.287	49.593	0	502.60	0	4.1070	0	34.0880	0	27.053	0	497.705	0	-1e10	8	-1e10	8	-1E+10	1	-1E+10	1	-1E+10	1	-1E+10	1	-1E+10	1	-1E+10	1
4902554	19	C	08/10/2021	20:06	-136.287	49.593	0	507.60	0	4.0930	0	34.0930	0	27.059	0	502.651	0	-1e10	8	-1e10	8	-1E+10	1	-1E+10	1	-1E+10	1	-1E+10	1	-1E+10	1	-1E+10	1
4902554	19	C	08/10/2021	20:06	-136.287	49.593	0	512.70	0	4.0740	0	34.0990	0	27.066	0	507.695	0	-1e10	8	-1e10	8	-1E+10	1	-1E+10	1	-1E+10	1	-1E+10	1	-1E+10	1	-1E+10	1
4902554	19	C	08/10/2021	20:06	-136.287	49.593	0	517.80	0	4.0620	0	34.1030	0	27.070	0	512.738	0	-1e10	8	-1e10	8	-1E+10	1	-1E+10	1	-1E+10	1	-1E+10	1	-1E+10	1	-1E+10	1
4902554	19	C	08/10/2021	20:06	-136.287	49.593	0	522.90	0	4.0460	0	34.1090	0	27.077	0	517.782	0	-1e10	8	-1e10	8	-1E+10	1	-1E+10	1	-1E+10	1	-1E+10	1	-1E+10	1	-1E+10	1
4902554	19	C	08/10/2021	20:06	-136.287	49.593	0	528.10	0	4.0330	0	34.1140	0	27.082	0	522.925	0	-1e10	8	-1e10	8	-1E+10	1	-1E+10	1	-1E+10	1	-1E+10	1	-1E+10	1	-1E+10	1
4902554	19	C	08/10/2021	20:06	-136.287	49.593	0	533.00	0	4.0210	0	34.1170	0	27.086	0	527.771	0	-1e10	8	-1e10	8	-1E+10	1	-1E+10	1	-1E+10	1	-1E+10	1	-1E+10	1	-1E+10	1
4902554	19	C	08/10/2021	20:06	-136.287	49.593	0	537.90	0	4.0040	0	34.1230	0	27.092	0	532.616	0	-1e10	8	-1e10	8	-1E+10	1	-1E+10	1	-1E+10	1	-1E+10	1	-1E+10	1	-1E+10	1
4902554	19	C	08/10/2021	20:06	-136.287	49.593	0	542.80	0	3.9980	0	34.1250	0	27.094	0	537.462	0	-1e10	8	-1e10	8	-1E+10	1	-1E+10	1	-1E+10	1	-1E+10	1	-1E+10	1	-1E+10	1
4902554	19	C	08/10/2021	20:06	-136.287	49.593	0	547.70	0	3.9880	0	34.1290	0	27.099	0	542.307	0	-1e10	8	-1e10	8	-1E+10	1	-1E+10	1	-1E+10	1	-1E+10	1	-1E+10	1	-1E+10	1
4902554	19	C	08/10/2021	20:06	-136.287	49.593	0	553.10	0	3.9680	0	34.1370	0	27.107	0	547.647	0	-1e10	8	-1e10	8	-1E+10	1	-1E+10	1	-1E+10	1	-1E+10	1	-1E+10	1	-1E+10	1
4902554	19	C	08/10/2021	20:06	-136.287	49.593	0	558.10	0	3.9540	0	34.1430	0	27.113	0	552.591	0	-1e10	8	-1e10	8	-1E+10	1	-1E+10	1	-1E+10	1	-1E+10	1	-1E+10	1	-1E+10	1
4902554	19	C	08/10/2021	20:06	-136.287	49.593	0	562.70	0	3.9450	0	34.1470	0	27.117	0	557.139	0	-1e10	8	-1e10	8	-1E+10	1	-1E+10	1	-1E+10	1	-1E+10	1	-1E+10	1	-1E+10	1
4902554	19	C	08/10/2021	20:06	-136.287	49.593	0	567.80	0	3.9400	0	34.1490	0	27.120	0	562.182	0	-1e10	8	-1e10	8	-1E+10	1	-1E+10	1	-1E+10	1	-1E+10	1	-1E+10	1	-1E+10	1
4902554	19	C	08/10/2021	20:06	-136.287	49.593	0	573.00	0	3.9300	0	34.1530	0	27.124	0	567.324	0	-1e10	8	-1e10	8	-1E+10	1	-1E+10	1	-1E+10	1	-1E+10	1	-1E+10	1	-1E+10	1
4902554	19	C	08/10/2021	20:06	-136.287	49.593	0	577.90	0	3.9200	0	34.1570	0	27.128	0	572.168	0	-1e10	8	-1e10	8	-1E+10	1	-1E+10	1	-1E+10	1	-1E+10	1	-1E+10	1	-1E+10	1
4902554	19	C	08/10/2021	20:06	-136.287	49.593	0	582.80	0	3.9150	0	34.1600	0	27.131	0	577.013	0	-1e10	8	-1e10	8	-1E+10	1	-1E+10	1	-1E+10	1	-1E+10	1	-1E+10	1	-1E+10	1
4902554	19	C	08/10/2021	20:06	-136.287	49.593	0	587.70	0	3.9050	0	34.1640	0	27.135	0	581.857	0	-1e10	8	-1e10	8	-1E+10	1	-1E+10	1	-1E+10	1	-1E+10	1	-1E+10	1	-1E+10	1
4902554	19	C	08/10/2021	20:06	-136.287	49.593	0	592.70	0	3.8970	0	34.1680	0	27.139	0	586.801	0	-1e10	8	-1e10	8	-1E+10	1	-1E+10	1	-1E+10	1	-1E+10	1	-1E+10	1	-1E+10	1
4902554	19	C	08/10/2021	20:06	-136.287	49.593	0	597.80	0	3.8920	0	34.1690	0	27.141	0	591.843	0	-1e10	8	-1e10	8	-1E+10	1	-1E+10	1	-1E+10	1	-1E+10	1	-1E+10	1	-1E+10	1
4902554	19	C	08/10/2021	20:06	-136.287	49.593	0	602.90	0	3.8820	0	34.1720	0	27.144	0	596.885	0	-1e10	8	-1e10	8	-1E+10	1	-1E+10	1	-1E+10	1	-1E+10	1	-1E+10	1	-1E+10	1
4902554	19	C	08/10/2021	20:06	-136.287	49.593	0	608.00	0	3.8700	0	34.1770	0	27.149	0	601.926	0	-1e10	8	-1e10	8	-1E+10	1	-1E+10	1	-1E+10	1	-1E+10	1	-1E+10	1	-1E+10	1
4902554	19	C	08/10/2021	20:06	-136.287	49.593	0	613.00	0	3.8640	0	34.1790	0	27.151	0	606.869	0	-1e10	8	-1e10	8	-1E+10	1	-1E+10	1	-1E+10	1	-1E+10	1	-1E+10	1	-1E+10	1
4902554	19	C	08/10/2021	20:06	-136.287	49.593	0	617.70	0	3.8530	0	34.1820	0	27.155	0	611.515	0	-1e10	8	-1e10	8	-1E+10	1	-1E+10	1	-1E+10	1	-1E+10	1	-1E+10	1	-1E+10	1
4902554	19	C	08/10/2021	20:06	-136.287	49.593	0	622.90	0	3.8470	0	34.1840	0	27.157	0	616.655	0	-1e10	8	-1e10	8	-1E+10	1	-1E+10	1	-1E+10	1	-1E+10	1	-1E+10	1	-1E+10	1
4902554	19	C	08/10/2021	20:06	-136.287	49.593	0	628.10	0	3.8390	0	34.1860	0	27.160	0	621.795	0	-1e10	8	-1e10	8	-1E+10	1	-1E+10	1	-1E+10	1	-1E+10	1	-1E+10	1	-1E+10	1
4902554	19	C	08/10/2021	20:06	-136.287	49.593	0	632.90	0	3.8330	0	34.1880	0	27.162	0	626.540	0	-1e10	8	-1e10	8	-1E+10	1	-1E+10	1	-1E+10	1	-1E+10	1	-1E+10	1	-1E+10	1
4902554	19	C	08/10/2021	20:06	-136.287	49.593	0	637.90	0	3.8270	0	34.1910	0	27.165	0	631.482	0	-1e10	8	-1e10	8	-1E+10	1	-1E+10	1	-1E+10	1	-1E+10	1	-1E+10	1	-1E+10	1
4902554	19	C	08/10/2021	20:06	-136.287	49.593	0	643.00	0	3.8200	0	34.1930	0	27.167	0	636.523	0	-1e10	8	-1e10	8	-1E+10	1	-1E+10	1	-1E+10	1	-1E+10	1	-1E+10	1	-1E+10	1
4902554	19	C	08/10/2021	20:06	-136.287	49.593	0	648.10	0	3.8150	0	34.1940	0	27.168	0	641.564	0	-1e10	8	-1e10	8	-1E+10	1	-1E+10	1	-1E+10	1	-1E+10	1	-1E+10	1	-1E+10	1
4902554	19	C	08/10/2021	20:06	-136.287	49.593	0	653.20	0	3.8020	0	34.1970	0	27.172	0	646.605	0	-1e10	8	-1e10	8	-1E+10	1	-1E+10	1	-1E+10	1	-1E+10	1	-1E+10	1	-1E+10	1
4902554	19	C	08/10/2021	20:06	-136.287	49.593	0	657.90	0	3.7900	0	34.2010	0	27.177	0	651.250	0	-1e10	8	-1e10	8	-1E+10	1	-1E+10	1	-1E+10	1	-1E+10	1	-1E+10	1	-1E+10	1
4902554	19	C	08/10/2021	20:06	-136.287	49.593	0	662.60	0	3.7810	0	34.2030	0	27.179	0	655.895	0	-1e10	8	-1e10	8	-1E+10	1	-1E+10	1	-1E+10	1	-1E+10	1	-1E+10	1	-1E+10	1
4902554	19	C	08/10/2021	20:06	-136.287	49.593	0	667.90	0	3.7760	0	34.2050	0	27.181	0	661.133	0	-1e10	8	-1e10	8	-1E+10	1	-1E+10	1	-1E+10	1	-1E+10	1	-1E+10	1	-1E+10	1
4902554	19	C	08/10/2021	20:06	-136.287	49.593	0	673.30	0	3.7690	0	34.2070	0	27.184	0	666.470	0	-1e10	8	-1e10	8	-1E+10	1	-1E+10	1	-1E+10	1	-1E+10	1	-1E+10	1	-1E+10	1
4902554	19	C	08/10/2021	20:06	-136.287	49.593	0	678.10	0	3.7580	0	34.2100	0	27.187	0	671.213	0	-1e10	8	-1e10	8	-1E+10	1	-1E+10	1	-1E+10	1	-1E+10	1	-1E+10	1	-1E+10	1
4902554	19	C	08/10/2021	20:06	-136.287	49.593	0	683.00	0	3.7450	0	34.2140	0	27.192	0	676.055	0	-1e10	8	-1e10	8	-1E+10	1	-1E+10	1	-1E+10	1	-1E+10	1	-1E+10	1	-1E+10	1
4902554	19	C	08/10/2021	20:06	-136.287	49.593	0	687.90	0	3.7360	0	34.2180	0	27.196	0	680.898	0	-1e10	8	-1e10	8	-1E+10	1	-1E+10	1	-1E+10	1	-1E+10	1	-1E+10	1	-1E+10	1
4902554	19	C	08/10/2021	20:06	-136.287	49.593	0	692.80	0	3.7220	0	34.2220	0	27.200	0	685.740	0	-1e10	8	-1e10	8	-1E+10	1	-1E+10	1	-1E+10	1	-1E+10	1	-1E+10	1	-1E+10	1
4902554	19	C	08/10/2021	20:06	-136.287	49.593	0	697.80	0	3.7050	0	34.2260	0	27.205	0	690.680	0	-1e10	8	-1e10	8	-1E+10	1	-1E+10	1	-1E+10	1	-1E+10	1	-1E+10	1	-1E+10	1
4902554	19	C	08/10/2021	20:06	-136.287	49.593	0	702.90	0	3.6920	0	34.2290	0	27.209	0	695.720	0	-1e10	8	-1e10	8	-1E+10	1	-1E+10	1	-1E+10	1	-1E+10	1	-1E+10	1	-1E+10	1
4902554	19	C	08/10/2021	20:06	-136.287	49.593	0	708.10	0	3.6750	0	34.2330	0	27.214	0	700.858	0	-1e10	8	-1e10	8	-1E+10	1	-1E+10	1	-1E+10	1	-1E+10	1	-1E+10	1	-1E+10	1
4902554	19	C	08/10/2021	20:06	-136.287	49.593	0	713.00	0	3.6670	0	34.2350	0	27.216	0	705.700	0	-1e10	8	-1e10	8	-1E+10	1	-1E+10	1	-1E+10	1	-1E+10	1	-1E+10	1	-1E+10	1
4902554	19	C	08/10/2021	20:06	-136.287	49.593	0	718.00	0	3.6520	0	34.2390	0	27.221	0	710.640	0	-1e10	8	-1e10	8	-1E+10	1	-1E+10	1	-1E+10	1	-1E+10	1	-1E+10	1	-1E+10	1
4902554	19	C	08/10/2021	20:06	-136.287	49.593	0	723.00	0	3.6420	0	34.2420	0	27.224	0	715.580	0	-1e10	8	-1e10	8	-1E+10	1	-1E+10	1	-1E+10	1	-1E+10	1	-1E+10	1	-1E+10	1
4902554	19	C	08/10/2021	20:06	-136.287	49.593	0	727.70	0	3.6330	0	34.2440	0	27.227	0	720.224	0	-1e10	8	-1e10	8	-1E+10	1	-1E+10	1	-1E+10	1	-1E+10	1	-1E+10	1	-1E+10	1
4902554	19	C	08/10/2021	20:06	-136.287	49.593	0	733.00	0	3.6210	0	34.2460	0	27.230	0	725.460	0	-1e10	8	-1e10	8	-1E+10	1	-1E+10	1	-1E+10	1	-1E+10	1	-1E+10	1	-1E+10	1
4902554	19	C	08/10/2021	20:06	-136.287	49.593	0	738.30	0	3.6130	0	34.2480	0	27.232	0	730.696	0	-1e10	8	-1e10	8	-1E+10	1	-1E+10	1	-1E+10	1	-1E+10	1	-1E+10	1	-1E+10	1
4902554	19	C	08/10/2021	20:06	-136.287	49.593	0	743.20	0	3.6020	0	34.2510	0	27.236	0	735.537	0	-1e10	8	-1e10	8	-1E+10	1	-1E+10	1	-1E+10	1	-1E+10	1	-1E+10	1	-1E+10	1
4902554	19	C	08/10/2021	20:06	-136.287	49.593	0	748.10	0	3.5900	0	34.2530	0	27.238	0	740.378	0	-1e10	8	-1e10	8	-1E+10	1	-1E+10	1	-1E+10	1	-1E+10	1	-1E+10	1	-1E+10	1
4902554	19	C	08/10/2021	20:06	-136.287	49.593	0	753.10	0	3.5780	0	34.2550	0	27.241	0	745.317	0	-1e10	8	-1e10	8	-1E+10	1	-1E+10	1	-1E+10	1	-1E+10	1	-1E+10	1	-1E+10	1
4902554	19	C	08/10/2021	20:06	-136.287	49.593	0	758.00	0	3.5710	0	34.2560	0	27.243	0	750.158	0	-1e10	8	-1e10	8	-1E+10	1	-1E+10	1	-1E+10	1	-1E+10	1	-1E+10	1	-1E+10	1
4902554	19	C	08/10/2021	20:06	-136.287	49.593	0	763.00	0	3.5550	0	34.2600	0	27.247	0	755.097	0	-1e10	8	-1e10	8	-1E+10	1	-1E+10	1	-1E+10	1	-1E+10	1	-1E+10	1	-1E+10	1
4902554	19	C	08/10/2021	20:06	-136.287	49.593	0	768.10	0	3.5430	0	34.2620	0	27.250	0	760.135	0	-1e10	8	-1e10	8	-1E+10	1	-1E+10	1	-1E+10	1	-1E+10	1	-1E+10	1	-1E+10	1
4902554	19	C	08/10/2021	20:06	-136.287	49.593	0	773.20	0	3.5280	0	34.2660	0	27.255	0	765.173	0	-1e10	8	-1e10	8	-1E+10	1	-1E+10	1	-1E+10	1	-1E+10	1	-1E+10	1	-1E+10	1
4902554	19	C	08/10/2021	20:06	-136.287	49.593	0	778.20	0	3.5160	0	34.2690	0	27.258	0	770.112	0	-1e10	8	-1e10	8	-1E+10	1	-1E+10	1	-1E+10	1	-1E+10	1	-1E+10	1	-1E+10	1
4902554	19	C	08/10/2021	20:06	-136.287	49.593	0	782.80	0	3.5120	0	34.2700	0	27.260	0	774.655	0	-1e10	8	-1e10	8	-1E+10	1	-1E+10	1	-1E+10	1	-1E+10	1	-1E+10	1	-1E+10	1
4902554	19	C	08/10/2021	20:06	-136.287	49.593	0	787.50	0	3.5010	0	34.2720	0	27.262	0	779.298	0	-1e10	8	-1e10	8	-1E+10	1	-1E+10	1	-1E+10	1	-1E+10	1	-1E+10	1	-1E+10	1
4902554	19	C	08/10/2021	20:06	-136.287	49.593	0	792.70	0	3.4920	0	34.2750	0	27.266	0	784.434	0	-1e10	8	-1e10	8	-1E+10	1	-1E+10	1	-1E+10	1	-1E+10	1	-1E+10	1	-1E+10	1
4902554	19	C	08/10/2021	20:06	-136.287	49.593	0	797.90	0	3.4810	0	34.2770	0	27.268	0	789.570	0	-1e10	8	-1e10	8	-1E+10	1	-1E+10	1	-1E+10	1	-1E+10	1	-1E+10	1	-1E+10	1
4902554	19	C	08/10/2021	20:06	-136.287	49.593	0	803.10	0	3.4690	0	34.2800	0	27.272	0	794.706	0	-1e10	8	-1e10	8	-1E+10	1	-1E+10	1	-1E+10	1	-1E+10	1	-1E+10	1	-1E+10	1
4902554	19	C	08/10/2021	20:06	-136.287	49.593	0	808.30	0	3.4510	0	34.2830	0	27.276	0	799.841	0	-1e10	8	-1e10	8	-1E+10	1	-1E+10	1	-1E+10	1	-1E+10	1	-1E+10	1	-1E+10	1
4902554	19	C	08/10/2021	20:06	-136.287	49.593	0	813.00	0	3.4410	0	34.2860	0	27.279	0	804.483	0	-1e10	8	-1e10	8	-1E+10	1	-1E+10	1	-1E+10	1	-1E+10	1	-1E+10	1	-1E+10	1
4902554	19	C	08/10/2021	20:06	-136.287	49.593	0	817.90	0	3.4350	0	34.2880	0	27.282	0	809.322	0	-1e10	8	-1e10	8	-1E+10	1	-1E+10	1	-1E+10	1	-1E+10	1	-1E+10	1	-1E+10	1
4902554	19	C	08/10/2021	20:06	-136.287	49.593	0	822.80	0	3.4330	0	34.2880	0	27.282	0	814.161	0	-1e10	8	-1e10	8	-1E+10	1	-1E+10	1	-1E+10	1	-1E+10	1	-1E+10	1	-1E+10	1
4902554	19	C	08/10/2021	20:06	-136.287	49.593	0	828.00	0	3.4180	0	34.2910	0	27.286	0	819.297	0	-1e10	8	-1e10	8	-1E+10	1	-1E+10	1	-1E+10	1	-1E+10	1	-1E+10	1	-1E+10	1
4902554	19	C	08/10/2021	20:06	-136.287	49.593	0	833.20	0	3.4050	0	34.2940	0	27.289	0	824.432	0	-1e10	8	-1e10	8	-1E+10	1	-1E+10	1	-1E+10	1	-1E+10	1	-1E+10	1	-1E+10	1
4902554	19	C	08/10/2021	20:06	-136.287	49.593	0	838.00	0	3.3920	0	34.2970	0	27.293	0	829.172	0	-1e10	8	-1e10	8	-1E+10	1	-1E+10	1	-1E+10	1	-1E+10	1	-1E+10	1	-1E+10	1
4902554	19	C	08/10/2021	20:06	-136.287	49.593	0	843.00	0	3.3880	0	34.2980	0	27.294	0	834.109	0	-1e10	8	-1e10	8	-1E+10	1	-1E+10	1	-1E+10	1	-1E+10	1	-1E+10	1	-1E+10	1
4902554	19	C	08/10/2021	20:06	-136.287	49.593	0	848.10	0	3.3800	0	34.3000	0	27.297	0	839.145	0	-1e10	8	-1e10	8	-1E+10	1	-1E+10	1	-1E+10	1	-1E+10	1	-1E+10	1	-1E+10	1
4902554	19	C	08/10/2021	20:06	-136.287	49.593	0	853.20	0	3.3720	0	34.3020	0	27.299	0	844.181	0	-1e10	8	-1e10	8	-1E+10	1	-1E+10	1	-1E+10	1	-1E+10	1	-1E+10	1	-1E+10	1
4902554	19	C	08/10/2021	20:06	-136.287	49.593	0	858.30	0	3.3620	0	34.3040	0	27.302	0	849.217	0	-1e10	8	-1e10	8	-1E+10	1	-1E+10	1	-1E+10	1	-1E+10	1	-1E+10	1	-1E+10	1
4902554	19	C	08/10/2021	20:06	-136.287	49.593	0	862.90	0	3.3540	0	34.3050	0	27.303	0	853.759	0	-1e10	8	-1e10	8	-1E+10	1	-1E+10	1	-1E+10	1	-1E+10	1	-1E+10	1	-1E+10	1
4902554	19	C	08/10/2021	20:06	-136.287	49.593	0	867.70	0	3.3470	0	34.3070	0	27.305	0	858.498	0	-1e10	8	-1e10	8	-1E+10	1	-1E+10	1	-1E+10	1	-1E+10	1	-1E+10	1	-1E+10	1
4902554	19	C	08/10/2021	20:06	-136.287	49.593	0	872.90	0	3.3380	0	34.3090	0	27.308	0	863.632	0	-1e10	8	-1e10	8	-1E+10	1	-1E+10	1	-1E+10	1	-1E+10	1	-1E+10	1	-1E+10	1
4902554	19	C	08/10/2021	20:06	-136.287	49.593	0	878.10	0	3.3170	0	34.3130	0	27.313	0	868.766	0	-1e10	8	-1e10	8	-1E+10	1	-1E+10	1	-1E+10	1	-1E+10	1	-1E+10	1	-1E+10	1
4902554	19	C	08/10/2021	20:06	-136.287	49.593	0	882.90	0	3.3030	0	34.3160	0	27.317	0	873.505	0	-1e10	8	-1e10	8	-1E+10	1	-1E+10	1	-1E+10	1	-1E+10	1	-1E+10	1	-1E+10	1
4902554	19	C	08/10/2021	20:06	-136.287	49.593	0	887.80	0	3.2980	0	34.3160	0	27.317	0	878.342	0	-1e10	8	-1e10	8	-1E+10	1	-1E+10	1	-1E+10	1	-1E+10	1	-1E+10	1	-1E+10	1
4902554	19	C	08/10/2021	20:06	-136.287	49.593	0	892.80	0	3.2870	0	34.3190	0	27.321	0	883.279	0	-1e10	8	-1e10	8	-1E+10	1	-1E+10	1	-1E+10	1	-1E+10	1	-1E+10	1	-1E+10	1
4902554	19	C	08/10/2021	20:06	-136.287	49.593	0	897.70	0	3.2780	0	34.3200	0	27.322	0	888.116	0	-1e10	8	-1e10	8	-1E+10	1	-1E+10	1	-1E+10	1	-1E+10	1	-1E+10	1	-1E+10	1
4902554	19	C	08/10/2021	20:06	-136.287	49.593	0	902.80	0	3.2580	0	34.3250	0	27.328	0	893.151	0	-1e10	8	-1e10	8	-1E+10	1	-1E+10	1	-1E+10	1	-1E+10	1	-1E+10	1	-1E+10	1
4902554	19	C	08/10/2021	20:06	-136.287	49.593	0	907.70	0	3.2480	0	34.3260	0	27.330	0	897.988	0	-1e10	8	-1e10	8	-1E+10	1	-1E+10	1	-1E+10	1	-1E+10	1	-1E+10	1	-1E+10	1
4902554	19	C	08/10/2021	20:06	-136.287	49.593	0	913.10	0	3.2370	0	34.3280	0	27.333	0	903.318	0	-1e10	8	-1e10	8	-1E+10	1	-1E+10	1	-1E+10	1	-1E+10	1	-1E+10	1	-1E+10	1
4902554	19	C	08/10/2021	20:06	-136.287	49.593	0	918.10	0	3.2200	0	34.3320	0	27.337	0	908.254	0	-1e10	8	-1e10	8	-1E+10	1	-1E+10	1	-1E+10	1	-1E+10	1	-1E+10	1	-1E+10	1
4902554	19	C	08/10/2021	20:06	-136.287	49.593	0	923.10	0	3.2100	0	34.3340	0	27.340	0	913.189	0	-1e10	8	-1e10	8	-1E+10	1	-1E+10	1	-1E+10	1	-1E+10	1	-1E+10	1	-1E+10	1
4902554	19	C	08/10/2021	20:06	-136.287	49.593	0	928.10	0	3.1980	0	34.3360	0	27.343	0	918.125	0	-1e10	8	-1e10	8	-1E+10	1	-1E+10	1	-1E+10	1	-1E+10	1	-1E+10	1	-1E+10	1
4902554	19	C	08/10/2021	20:06	-136.287	49.593	0	933.00	0	3.1820	0	34.3390	0	27.347	0	922.961	0	-1e10	8	-1e10	8	-1E+10	1	-1E+10	1	-1E+10	1	-1E+10	1	-1E+10	1	-1E+10	1
4902554	19	C	08/10/2021	20:06	-136.287	49.593	0	938.00	0	3.1670	0	34.3410	0	27.350	0	927.896	0	-1e10	8	-1e10	8	-1E+10	1	-1E+10	1	-1E+10	1	-1E+10	1	-1E+10	1	-1E+10	1
4902554	19	C	08/10/2021	20:06	-136.287	49.593	0	943.00	0	3.1530	0	34.3440	0	27.353	0	932.831	0	-1e10	8	-1e10	8	-1E+10	1	-1E+10	1	-1E+10	1	-1E+10	1	-1E+10	1	-1E+10	1
4902554	19	C	08/10/2021	20:06	-136.287	49.593	0	947.90	0	3.1450	0	34.3460	0	27.356	0	937.668	0	-1e10	8	-1e10	8	-1E+10	1	-1E+10	1	-1E+10	1	-1E+10	1	-1E+10	1	-1E+10	1
4902554	19	C	08/10/2021	20:06	-136.287	49.593	0	952.90	0	3.1330	0	34.3490	0	27.359	0	942.602	0	-1e10	8	-1e10	8	-1E+10	1	-1E+10	1	-1E+10	1	-1E+10	1	-1E+10	1	-1E+10	1
4902554	19	C	08/10/2021	20:06	-136.287	49.593	0	957.90	0	3.1300	0	34.3490	0	27.360	0	947.537	0	-1e10	8	-1e10	8	-1E+10	1	-1E+10	1	-1E+10	1	-1E+10	1	-1E+10	1	-1E+10	1
4902554	19	C	08/10/2021	20:06	-136.287	49.593	0	962.80	0	3.1210	0	34.3500	0	27.361	0	952.373	0	-1e10	8	-1e10	8	-1E+10	1	-1E+10	1	-1E+10	1	-1E+10	1	-1E+10	1	-1E+10	1
4902554	19	C	08/10/2021	20:06	-136.287	49.593	0	967.70	0	3.1140	0	34.3520	0	27.363	0	957.209	0	-1e10	8	-1e10	8	-1E+10	1	-1E+10	1	-1E+10	1	-1E+10	1	-1E+10	1	-1E+10	1
4902554	19	C	08/10/2021	20:06	-136.287	49.593	0	972.80	0	3.1020	0	34.3540	0	27.366	0	962.242	0	-1e10	8	-1e10	8	-1E+10	1	-1E+10	1	-1E+10	1	-1E+10	1	-1E+10	1	-1E+10	1
4902554	19	C	08/10/2021	20:06	-136.287	49.593	0	977.90	0	3.0930	0	34.3560	0	27.369	0	967.275	0	-1e10	8	-1e10	8	-1E+10	1	-1E+10	1	-1E+10	1	-1E+10	1	-1E+10	1	-1E+10	1
4902554	19	C	08/10/2021	20:06	-136.287	49.593	0	982.60	0	3.0920	0	34.3560	0	27.369	0	971.913	0	-1e10	8	-1e10	8	-1E+10	1	-1E+10	1	-1E+10	1	-1E+10	1	-1E+10	1	-1E+10	1
4902554	19	C	08/10/2021	20:06	-136.287	49.593	0	987.90	0	3.0820	0	34.3570	0	27.371	0	977.143	0	-1e10	8	-1e10	8	-1E+10	1	-1E+10	1	-1E+10	1	-1E+10	1	-1E+10	1	-1E+10	1
4902554	19	C	08/10/2021	20:06	-136.287	49.593	0	993.30	0	3.0730	0	34.3590	0	27.373	0	982.471	0	-1e10	8	-1e10	8	-1E+10	1	-1E+10	1	-1E+10	1	-1E+10	1	-1E+10	1	-1E+10	1
4902554	19	C	08/10/2021	20:06	-136.287	49.593	0	998.20	0	3.0670	0	34.3600	0	27.374	0	987.306	0	-1e10	8	-1e10	8	-1E+10	1	-1E+10	1	-1E+10	1	-1E+10	1	-1E+10	1	-1E+10	1
4902554	19	C	08/10/2021	20:06	-136.287	49.593	0	1005.60	0	3.0560	0	34.3620	0	27.377	0	994.608	0	-1e10	8	-1e10	8	-1E+10	1	-1E+10	1	-1E+10	1	-1E+10	1	-1E+10	1	-1E+10	1
4902554	19	C	08/10/2021	20:06	-136.287	49.593	0	1015.50	0	3.0380	0	34.3660	0	27.382	0	1004.376	0	-1e10	8	-1e10	8	-1E+10	1	-1E+10	1	-1E+10	1	-1E+10	1	-1E+10	1	-1E+10	1
4902554	19	C	08/10/2021	20:06	-136.287	49.593	0	1025.50	0	3.0140	0	34.3700	0	27.387	0	1014.242	0	-1e10	8	-1e10	8	-1E+10	1	-1E+10	1	-1E+10	1	-1E+10	1	-1E+10	1	-1E+10	1
4902554	19	C	08/10/2021	20:06	-136.287	49.593	0	1035.60	0	2.9920	0	34.3740	0	27.393	0	1024.207	0	-1e10	8	-1e10	8	-1E+10	1	-1E+10	1	-1E+10	1	-1E+10	1	-1E+10	1	-1E+10	1
4902554	19	C	08/10/2021	20:06	-136.287	49.593	0	1045.30	0	2.9760	0	34.3770	0	27.396	0	1033.776	0	-1e10	8	-1e10	8	-1E+10	1	-1E+10	1	-1E+10	1	-1E+10	1	-1E+10	1	-1E+10	1
4902554	19	C	08/10/2021	20:06	-136.287	49.593	0	1055.10	0	2.9550	0	34.3810	0	27.402	0	1043.444	0	-1e10	8	-1e10	8	-1E+10	1	-1E+10	1	-1E+10	1	-1E+10	1	-1E+10	1	-1E+10	1
4902554	19	C	08/10/2021	20:06	-136.287	49.593	0	1065.40	0	2.9330	0	34.3850	0	27.407	0	1053.604	0	-1e10	8	-1e10	8	-1E+10	1	-1E+10	1	-1E+10	1	-1E+10	1	-1E+10	1	-1E+10	1
4902554	19	C	08/10/2021	20:06	-136.287	49.593	0	1075.30	0	2.9150	0	34.3890	0	27.412	0	1063.369	0	-1e10	8	-1e10	8	-1E+10	1	-1E+10	1	-1E+10	1	-1E+10	1	-1E+10	1	-1E+10	1
4902554	19	C	08/10/2021	20:06	-136.287	49.593	0	1085.60	0	2.8960	0	34.3920	0	27.416	0	1073.529	0	-1e10	8	-1e10	8	-1E+10	1	-1E+10	1	-1E+10	1	-1E+10	1	-1E+10	1	-1E+10	1
4902554	19	C	08/10/2021	20:06	-136.287	49.593	0	1095.60	0	2.8770	0	34.3960	0	27.421	0	1083.392	0	-1e10	8	-1e10	8	-1E+10	1	-1E+10	1	-1E+10	1	-1E+10	1	-1E+10	1	-1E+10	1
4902554	19	C	08/10/2021	20:06	-136.287	49.593	0	1105.40	0	2.8480	0	34.4020	0	27.428	0	1093.057	0	-1e10	8	-1e10	8	-1E+10	1	-1E+10	1	-1E+10	1	-1E+10	1	-1E+10	1	-1E+10	1
4902554	19	C	08/10/2021	20:06	-136.287	49.593	0	1115.40	0	2.8330	0	34.4050	0	27.432	0	1102.919	0	-1e10	8	-1e10	8	-1E+10	1	-1E+10	1	-1E+10	1	-1E+10	1	-1E+10	1	-1E+10	1
4902554	19	C	08/10/2021	20:06	-136.287	49.593	0	1125.60	0	2.8180	0	34.4080	0	27.436	0	1112.978	0	-1e10	8	-1e10	8	-1E+10	1	-1E+10	1	-1E+10	1	-1E+10	1	-1E+10	1	-1E+10	1
4902554	19	C	08/10/2021	20:06	-136.287	49.593	0	1135.40	0	2.8020	0	34.4110	0	27.439	0	1122.642	0	-1e10	8	-1e10	8	-1E+10	1	-1E+10	1	-1E+10	1	-1E+10	1	-1E+10	1	-1E+10	1
4902554	19	C	08/10/2021	20:06	-136.287	49.593	0	1145.30	0	2.7860	0	34.4140	0	27.443	0	1132.404	0	-1e10	8	-1e10	8	-1E+10	1	-1E+10	1	-1E+10	1	-1E+10	1	-1E+10	1	-1E+10	1
4902554	19	C	08/10/2021	20:06	-136.287	49.593	0	1155.30	0	2.7700	0	34.4170	0	27.447	0	1142.264	0	-1e10	8	-1e10	8	-1E+10	1	-1E+10	1	-1E+10	1	-1E+10	1	-1E+10	1	-1E+10	1
4902554	19	C	08/10/2021	20:06	-136.287	49.593	0	1165.50	0	2.7510	0	34.4210	0	27.452	0	1152.321	0	-1e10	8	-1e10	8	-1E+10	1	-1E+10	1	-1E+10	1	-1E+10	1	-1E+10	1	-1E+10	1
4902554	19	C	08/10/2021	20:06	-136.287	49.593	0	1175.60	0	2.7420	0	34.4230	0	27.455	0	1162.279	0	-1e10	8	-1e10	8	-1E+10	1	-1E+10	1	-1E+10	1	-1E+10	1	-1E+10	1	-1E+10	1
4902554	19	C	08/10/2021	20:06	-136.287	49.593	0	1185.10	0	2.7320	0	34.4250	0	27.457	0	1171.645	0	-1e10	8	-1e10	8	-1E+10	1	-1E+10	1	-1E+10	1	-1E+10	1	-1E+10	1	-1E+10	1
4902554	19	C	08/10/2021	20:06	-136.287	49.593	0	1195.20	0	2.7170	0	34.4280	0	27.461	0	1181.602	0	-1e10	8	-1e10	8	-1E+10	1	-1E+10	1	-1E+10	1	-1E+10	1	-1E+10	1	-1E+10	1
4902554	19	C	08/10/2021	20:06	-136.287	49.593	0	1205.40	0	2.7020	0	34.4310	0	27.465	0	1191.657	0	-1e10	8	-1e10	8	-1E+10	1	-1E+10	1	-1E+10	1	-1E+10	1	-1E+10	1	-1E+10	1
4902554	19	C	08/10/2021	20:06	-136.287	49.593	0	1215.20	0	2.6890	0	34.4340	0	27.468	0	1201.317	0	-1e10	8	-1e10	8	-1E+10	1	-1E+10	1	-1E+10	1	-1E+10	1	-1E+10	1	-1E+10	1
4902554	19	C	08/10/2021	20:06	-136.287	49.593	0	1225.30	0	2.6750	0	34.4370	0	27.472	0	1211.273	0	-1e10	8	-1e10	8	-1E+10	1	-1E+10	1	-1E+10	1	-1E+10	1	-1E+10	1	-1E+10	1
4902554	19	C	08/10/2021	20:06	-136.287	49.593	0	1235.20	0	2.6560	0	34.4410	0	27.477	0	1221.031	0	-1e10	8	-1e10	8	-1E+10	1	-1E+10	1	-1E+10	1	-1E+10	1	-1E+10	1	-1E+10	1
4902554	19	C	08/10/2021	20:06	-136.287	49.593	0	1245.00	0	2.6420	0	34.4430	0	27.480	0	1230.690	0	-1e10	8	-1e10	8	-1E+10	1	-1E+10	1	-1E+10	1	-1E+10	1	-1E+10	1	-1E+10	1
4902554	19	C	08/10/2021	20:06	-136.287	49.593	0	1255.10	0	2.6360	0	34.4440	0	27.481	0	1240.644	0	-1e10	8	-1e10	8	-1E+10	1	-1E+10	1	-1E+10	1	-1E+10	1	-1E+10	1	-1E+10	1
4902554	19	C	08/10/2021	20:06	-136.287	49.593	0	1265.30	0	2.6310	0	34.4450	0	27.482	0	1250.696	0	-1e10	8	-1e10	8	-1E+10	1	-1E+10	1	-1E+10	1	-1E+10	1	-1E+10	1	-1E+10	1
4902554	19	C	08/10/2021	20:06	-136.287	49.593	0	1275.50	0	2.6190	0	34.4470	0	27.485	0	1260.748	0	-1e10	8	-1e10	8	-1E+10	1	-1E+10	1	-1E+10	1	-1E+10	1	-1E+10	1	-1E+10	1
4902554	19	C	08/10/2021	20:06	-136.287	49.593	0	1285.60	0	2.6050	0	34.4510	0	27.489	0	1270.701	0	-1e10	8	-1e10	8	-1E+10	1	-1E+10	1	-1E+10	1	-1E+10	1	-1E+10	1	-1E+10	1
4902554	19	C	08/10/2021	20:06	-136.287	49.593	0	1295.50	0	2.5990	0	34.4520	0	27.491	0	1280.456	0	-1e10	8	-1e10	8	-1E+10	1	-1E+10	1	-1E+10	1	-1E+10	1	-1E+10	1	-1E+10	1
4902554	19	C	08/10/2021	20:06	-136.287	49.593	0	1305.50	0	2.5870	0	34.4540	0	27.493	0	1290.309	0	-1e10	8	-1e10	8	-1E+10	1	-1E+10	1	-1E+10	1	-1E+10	1	-1E+10	1	-1E+10	1
4902554	19	C	08/10/2021	20:06	-136.287	49.593	0	1315.70	0	2.5770	0	34.4570	0	27.497	0	1300.359	0	-1e10	8	-1e10	8	-1E+10	1	-1E+10	1	-1E+10	1	-1E+10	1	-1E+10	1	-1E+10	1
4902554	19	C	08/10/2021	20:06	-136.287	49.593	0	1325.70	0	2.5710	0	34.4580	0	27.498	0	1310.211	0	-1e10	8	-1e10	8	-1E+10	1	-1E+10	1	-1E+10	1	-1E+10	1	-1E+10	1	-1E+10	1
4902554	19	C	08/10/2021	20:06	-136.287	49.593	0	1335.70	0	2.5610	0	34.4590	0	27.500	0	1320.063	0	-1e10	8	-1e10	8	-1E+10	1	-1E+10	1	-1E+10	1	-1E+10	1	-1E+10	1	-1E+10	1
4902554	19	C	08/10/2021	20:06	-136.287	49.593	0	1345.30	0	2.5500	0	34.4620	0	27.503	0	1329.520	0	-1e10	8	-1e10	8	-1E+10	1	-1E+10	1	-1E+10	1	-1E+10	1	-1E+10	1	-1E+10	1
4902554	19	C	08/10/2021	20:06	-136.287	49.593	0	1355.00	0	2.5440	0	34.4630	0	27.505	0	1339.076	0	-1e10	8	-1e10	8	-1E+10	1	-1E+10	1	-1E+10	1	-1E+10	1	-1E+10	1	-1E+10	1
4902554	19	C	08/10/2021	20:06	-136.287	49.593	0	1365.30	0	2.5340	0	34.4650	0	27.507	0	1349.222	0	-1e10	8	-1e10	8	-1E+10	1	-1E+10	1	-1E+10	1	-1E+10	1	-1E+10	1	-1E+10	1
4902554	19	C	08/10/2021	20:06	-136.287	49.593	0	1375.60	0	2.5210	0	34.4680	0	27.511	0	1359.367	0	-1e10	8	-1e10	8	-1E+10	1	-1E+10	1	-1E+10	1	-1E+10	1	-1E+10	1	-1E+10	1
4902554	19	C	08/10/2021	20:06	-136.287	49.593	0	1385.50	0	2.5060	0	34.4700	0	27.513	0	1369.118	0	-1e10	8	-1e10	8	-1E+10	1	-1E+10	1	-1E+10	1	-1E+10	1	-1E+10	1	-1E+10	1
4902554	19	C	08/10/2021	20:06	-136.287	49.593	0	1395.60	0	2.4950	0	34.4730	0	27.517	0	1379.066	0	-1e10	8	-1e10	8	-1E+10	1	-1E+10	1	-1E+10	1	-1E+10	1	-1E+10	1	-1E+10	1
4902554	19	C	08/10/2021	20:06	-136.287	49.593	0	1405.80	0	2.4860	0	34.4740	0	27.518	0	1389.112	0	-1e10	8	-1e10	8	-1E+10	1	-1E+10	1	-1E+10	1	-1E+10	1	-1E+10	1	-1E+10	1
4902554	19	C	08/10/2021	20:06	-136.287	49.593	0	1415.60	0	2.4750	0	34.4760	0	27.521	0	1398.763	0	-1e10	8	-1e10	8	-1E+10	1	-1E+10	1	-1E+10	1	-1E+10	1	-1E+10	1	-1E+10	1
4902554	19	C	08/10/2021	20:06	-136.287	49.593	0	1425.50	0	2.4600	0	34.4790	0	27.525	0	1408.512	0	-1e10	8	-1e10	8	-1E+10	1	-1E+10	1	-1E+10	1	-1E+10	1	-1E+10	1	-1E+10	1
4902554	19	C	08/10/2021	20:06	-136.287	49.593	0	1435.40	0	2.4480	0	34.4810	0	27.527	0	1418.261	0	-1e10	8	-1e10	8	-1E+10	1	-1E+10	1	-1E+10	1	-1E+10	1	-1E+10	1	-1E+10	1
4902554	19	C	08/10/2021	20:06	-136.287	49.593	0	1445.30	0	2.4330	0	34.4850	0	27.532	0	1428.009	0	-1e10	8	-1e10	8	-1E+10	1	-1E+10	1	-1E+10	1	-1E+10	1	-1E+10	1	-1E+10	1
4902554	19	C	08/10/2021	20:06	-136.287	49.593	0	1455.10	0	2.4230	0	34.4870	0	27.534	0	1437.659	0	-1e10	8	-1e10	8	-1E+10	1	-1E+10	1	-1E+10	1	-1E+10	1	-1E+10	1	-1E+10	1
4902554	19	C	08/10/2021	20:06	-136.287	49.593	0	1465.30	0	2.4050	0	34.4910	0	27.539	0	1447.701	0	-1e10	8	-1e10	8	-1E+10	1	-1E+10	1	-1E+10	1	-1E+10	1	-1E+10	1	-1E+10	1
4902554	19	C	08/10/2021	20:06	-136.287	49.593	0	1475.80	0	2.3870	0	34.4940	0	27.543	0	1458.039	0	-1e10	8	-1e10	8	-1E+10	1	-1E+10	1	-1E+10	1	-1E+10	1	-1E+10	1	-1E+10	1
4902554	19	C	08/10/2021	20:06	-136.287	49.593	0	1485.50	0	2.3680	0	34.4970	0	27.547	0	1467.589	0	-1e10	8	-1e10	8	-1E+10	1	-1E+10	1	-1E+10	1	-1E+10	1	-1E+10	1	-1E+10	1
4902554	19	C	08/10/2021	20:06	-136.287	49.593	0	1495.50	0	2.3580	0	34.5000	0	27.550	0	1477.433	0	-1e10	8	-1e10	8	-1E+10	1	-1E+10	1	-1E+10	1	-1E+10	1	-1E+10	1	-1E+10	1
4902554	19	C	08/10/2021	20:06	-136.287	49.593	0	1505.70	0	2.3480	0	34.5010	0	27.552	0	1487.474	0	-1e10	8	-1e10	8	-1E+10	1	-1E+10	1	-1E+10	1	-1E+10	1	-1E+10	1	-1E+10	1
4902554	19	C	08/10/2021	20:06	-136.287	49.593	0	1515.50	0	2.3420	0	34.5020	0	27.553	0	1497.121	0	-1e10	8	-1e10	8	-1E+10	1	-1E+10	1	-1E+10	1	-1E+10	1	-1E+10	1	-1E+10	1
4902554	19	C	08/10/2021	20:06	-136.287	49.593	0	1525.10	0	2.3300	0	34.5050	0	27.557	0	1506.570	0	-1e10	8	-1e10	8	-1E+10	1	-1E+10	1	-1E+10	1	-1E+10	1	-1E+10	1	-1E+10	1
4902554	19	C	08/10/2021	20:06	-136.287	49.593	0	1535.10	0	2.3210	0	34.5070	0	27.559	0	1516.413	0	-1e10	8	-1e10	8	-1E+10	1	-1E+10	1	-1E+10	1	-1E+10	1	-1E+10	1	-1E+10	1
4902554	19	C	08/10/2021	20:06	-136.287	49.593	0	1545.40	0	2.3150	0	34.5080	0	27.561	0	1526.550	0	-1e10	8	-1e10	8	-1E+10	1	-1E+10	1	-1E+10	1	-1E+10	1	-1E+10	1	-1E+10	1
4902554	19	C	08/10/2021	20:06	-136.287	49.593	0	1555.50	0	2.3040	0	34.5100	0	27.563	0	1536.490	0	-1e10	8	-1e10	8	-1E+10	1	-1E+10	1	-1E+10	1	-1E+10	1	-1E+10	1	-1E+10	1
4902554	19	C	08/10/2021	20:06	-136.287	49.593	0	1565.20	0	2.2880	0	34.5140	0	27.568	0	1546.036	0	-1e10	8	-1e10	8	-1E+10	1	-1E+10	1	-1E+10	1	-1E+10	1	-1E+10	1	-1E+10	1
4902554	19	C	08/10/2021	20:06	-136.287	49.593	0	1575.30	0	2.2800	0	34.5150	0	27.569	0	1555.976	0	-1e10	8	-1e10	8	-1E+10	1	-1E+10	1	-1E+10	1	-1E+10	1	-1E+10	1	-1E+10	1
4902554	19	C	08/10/2021	20:06	-136.287	49.593	0	1585.80	0	2.2740	0	34.5170	0	27.571	0	1566.308	0	-1e10	8	-1e10	8	-1E+10	1	-1E+10	1	-1E+10	1	-1E+10	1	-1E+10	1	-1E+10	1
4902554	19	C	08/10/2021	20:06	-136.287	49.593	0	1595.40	0	2.2620	0	34.5190	0	27.574	0	1575.754	0	-1e10	8	-1e10	8	-1E+10	1	-1E+10	1	-1E+10	1	-1E+10	1	-1E+10	1	-1E+10	1
4902554	19	C	08/10/2021	20:06	-136.287	49.593	0	1605.00	0	2.2560	0	34.5200	0	27.575	0	1585.200	0	-1e10	8	-1e10	8	-1E+10	1	-1E+10	1	-1E+10	1	-1E+10	1	-1E+10	1	-1E+10	1
4902554	19	C	08/10/2021	20:06	-136.287	49.593	0	1615.40	0	2.2450	0	34.5220	0	27.578	0	1595.433	0	-1e10	8	-1e10	8	-1E+10	1	-1E+10	1	-1E+10	1	-1E+10	1	-1E+10	1	-1E+10	1
4902554	19	C	08/10/2021	20:06	-136.287	49.593	0	1625.70	0	2.2280	0	34.5250	0	27.582	0	1605.566	0	-1e10	8	-1e10	8	-1E+10	1	-1E+10	1	-1E+10	1	-1E+10	1	-1E+10	1	-1E+10	1
4902554	19	C	08/10/2021	20:06	-136.287	49.593	0	1635.30	0	2.2200	0	34.5270	0	27.584	0	1615.011	0	-1e10	8	-1e10	8	-1E+10	1	-1E+10	1	-1E+10	1	-1E+10	1	-1E+10	1	-1E+10	1
4902554	19	C	08/10/2021	20:06	-136.287	49.593	0	1645.40	0	2.2110	0	34.5290	0	27.586	0	1624.947	0	-1e10	8	-1e10	8	-1E+10	1	-1E+10	1	-1E+10	1	-1E+10	1	-1E+10	1	-1E+10	1
4902554	19	C	08/10/2021	20:06	-136.287	49.593	0	1655.60	0	2.1990	0	34.5310	0	27.589	0	1634.981	0	-1e10	8	-1e10	8	-1E+10	1	-1E+10	1	-1E+10	1	-1E+10	1	-1E+10	1	-1E+10	1
4902554	19	C	08/10/2021	20:06	-136.287	49.593	0	1665.10	0	2.1940	0	34.5330	0	27.591	0	1644.326	0	-1e10	8	-1e10	8	-1E+10	1	-1E+10	1	-1E+10	1	-1E+10	1	-1E+10	1	-1E+10	1
4902554	19	C	08/10/2021	20:06	-136.287	49.593	0	1675.20	0	2.1840	0	34.5350	0	27.593	0	1654.260	0	-1e10	8	-1e10	8	-1E+10	1	-1E+10	1	-1E+10	1	-1E+10	1	-1E+10	1	-1E+10	1
4902554	19	C	08/10/2021	20:06	-136.287	49.593	0	1685.20	0	2.1740	0	34.5370	0	27.596	0	1664.096	0	-1e10	8	-1e10	8	-1E+10	1	-1E+10	1	-1E+10	1	-1E+10	1	-1E+10	1	-1E+10	1
4902554	19	C	08/10/2021	20:06	-136.287	49.593	0	1695.20	0	2.1720	0	34.5380	0	27.597	0	1673.931	0	-1e10	8	-1e10	8	-1E+10	1	-1E+10	1	-1E+10	1	-1E+10	1	-1E+10	1	-1E+10	1
4902554	19	C	08/10/2021	20:06	-136.287	49.593	0	1705.20	0	2.1630	0	34.5390	0	27.599	0	1683.766	0	-1e10	8	-1e10	8	-1E+10	1	-1E+10	1	-1E+10	1	-1E+10	1	-1E+10	1	-1E+10	1
4902554	19	C	08/10/2021	20:06	-136.287	49.593	0	1715.60	0	2.1520	0	34.5410	0	27.601	0	1693.994	0	-1e10	8	-1e10	8	-1E+10	1	-1E+10	1	-1E+10	1	-1E+10	1	-1E+10	1	-1E+10	1
4902554	19	C	08/10/2021	20:06	-136.287	49.593	0	1725.60	0	2.1480	0	34.5420	0	27.602	0	1703.828	0	-1e10	8	-1e10	8	-1E+10	1	-1E+10	1	-1E+10	1	-1E+10	1	-1E+10	1	-1E+10	1
4902554	19	C	08/10/2021	20:06	-136.287	49.593	0	1735.60	0	2.1420	0	34.5440	0	27.604	0	1713.661	0	-1e10	8	-1e10	8	-1E+10	1	-1E+10	1	-1E+10	1	-1E+10	1	-1E+10	1	-1E+10	1
4902554	19	C	08/10/2021	20:06	-136.287	49.593	0	1745.60	0	2.1280	0	34.5470	0	27.608	0	1723.494	0	-1e10	8	-1e10	8	-1E+10	1	-1E+10	1	-1E+10	1	-1E+10	1	-1E+10	1	-1E+10	1
4902554	19	C	08/10/2021	20:06	-136.287	49.593	0	1755.60	0	2.1160	0	34.5490	0	27.611	0	1733.327	0	-1e10	8	-1e10	8	-1E+10	1	-1E+10	1	-1E+10	1	-1E+10	1	-1E+10	1	-1E+10	1
4902554	19	C	08/10/2021	20:06	-136.287	49.593	0	1765.70	0	2.1020	0	34.5510	0	27.613	0	1743.257	0	-1e10	8	-1e10	8	-1E+10	1	-1E+10	1	-1E+10	1	-1E+10	1	-1E+10	1	-1E+10	1
4902554	19	C	08/10/2021	20:06	-136.287	49.593	0	1775.40	0	2.0790	0	34.5560	0	27.619	0	1752.794	0	-1e10	8	-1e10	8	-1E+10	1	-1E+10	1	-1E+10	1	-1E+10	1	-1E+10	1	-1E+10	1
4902554	19	C	08/10/2021	20:06	-136.287	49.593	0	1785.10	0	2.0750	0	34.5570	0	27.620	0	1762.330	0	-1e10	8	-1e10	8	-1E+10	1	-1E+10	1	-1E+10	1	-1E+10	1	-1E+10	1	-1E+10	1
4902554	19	C	08/10/2021	20:06	-136.287	49.593	0	1795.10	0	2.0730	0	34.5570	0	27.621	0	1772.161	0	-1e10	8	-1e10	8	-1E+10	1	-1E+10	1	-1E+10	1	-1E+10	1	-1E+10	1	-1E+10	1
4902554	19	C	08/10/2021	20:06	-136.287	49.593	0	1805.30	0	2.0700	0	34.5580	0	27.622	0	1782.188	0	-1e10	8	-1e10	8	-1E+10	1	-1E+10	1	-1E+10	1	-1E+10	1	-1E+10	1	-1E+10	1
4902554	19	C	08/10/2021	20:06	-136.287	49.593	0	1815.60	0	2.0660	0	34.5590	0	27.623	0	1792.313	0	-1e10	8	-1e10	8	-1E+10	1	-1E+10	1	-1E+10	1	-1E+10	1	-1E+10	1	-1E+10	1
4902554	19	C	08/10/2021	20:06	-136.287	49.593	0	1825.50	0	2.0540	0	34.5610	0	27.625	0	1802.044	0	-1e10	8	-1e10	8	-1E+10	1	-1E+10	1	-1E+10	1	-1E+10	1	-1E+10	1	-1E+10	1
4902554	19	C	08/10/2021	20:06	-136.287	49.593	0	1835.10	0	2.0460	0	34.5630	0	27.628	0	1811.479	0	-1e10	8	-1e10	8	-1E+10	1	-1E+10	1	-1E+10	1	-1E+10	1	-1E+10	1	-1E+10	1
4902554	19	C	08/10/2021	20:06	-136.287	49.593	0	1845.30	0	2.0400	0	34.5640	0	27.629	0	1821.504	0	-1e10	8	-1e10	8	-1E+10	1	-1E+10	1	-1E+10	1	-1E+10	1	-1E+10	1	-1E+10	1
4902554	19	C	08/10/2021	20:06	-136.287	49.593	0	1855.70	0	2.0310	0	34.5650	0	27.631	0	1831.725	0	-1e10	8	-1e10	8	-1E+10	1	-1E+10	1	-1E+10	1	-1E+10	1	-1E+10	1	-1E+10	1
4902554	19	C	08/10/2021	20:06	-136.287	49.593	0	1865.80	0	2.0280	0	34.5660	0	27.632	0	1841.651	0	-1e10	8	-1e10	8	-1E+10	1	-1E+10	1	-1E+10	1	-1E+10	1	-1E+10	1	-1E+10	1
4902554	19	C	08/10/2021	20:06	-136.287	49.593	0	1875.80	0	2.0190	0	34.5680	0	27.634	0	1851.478	0	-1e10	8	-1e10	8	-1E+10	1	-1E+10	1	-1E+10	1	-1E+10	1	-1E+10	1	-1E+10	1
4902554	19	C	08/10/2021	20:06	-136.287	49.593	0	1885.40	0	2.0150	0	34.5690	0	27.635	0	1860.912	0	-1e10	8	-1e10	8	-1E+10	1	-1E+10	1	-1E+10	1	-1E+10	1	-1E+10	1	-1E+10	1
4902554	19	C	08/10/2021	20:06	-136.287	49.593	0	1895.10	0	2.0080	0	34.5700	0	27.637	0	1870.443	0	-1e10	8	-1e10	8	-1E+10	1	-1E+10	1	-1E+10	1	-1E+10	1	-1E+10	1	-1E+10	1
4902554	19	C	08/10/2021	20:06	-136.287	49.593	0	1905.20	0	1.9950	0	34.5730	0	27.640	0	1880.367	0	-1e10	8	-1e10	8	-1E+10	1	-1E+10	1	-1E+10	1	-1E+10	1	-1E+10	1	-1E+10	1
4902554	19	C	08/10/2021	20:06	-136.287	49.593	0	1915.50	0	1.9860	0	34.5740	0	27.642	0	1890.487	0	-1e10	8	-1e10	8	-1E+10	1	-1E+10	1	-1E+10	1	-1E+10	1	-1E+10	1	-1E+10	1
4902554	19	C	08/10/2021	20:06	-136.287	49.593	0	1925.60	0	1.9780	0	34.5760	0	27.644	0	1900.410	0	-1e10	8	-1e10	8	-1E+10	1	-1E+10	1	-1E+10	1	-1E+10	1	-1E+10	1	-1E+10	1
4902554	19	C	08/10/2021	20:06	-136.287	49.593	0	1935.70	0	1.9700	0	34.5780	0	27.646	0	1910.333	0	-1e10	8	-1e10	8	-1E+10	1	-1E+10	1	-1E+10	1	-1E+10	1	-1E+10	1	-1E+10	1
4902554	19	C	08/10/2021	20:06	-136.287	49.593	0	1945.50	0	1.9660	0	34.5780	0	27.646	0	1919.960	0	-1e10	8	-1e10	8	-1E+10	1	-1E+10	1	-1E+10	1	-1E+10	1	-1E+10	1	-1E+10	1
4902554	19	C	08/10/2021	20:06	-136.287	49.593	0	1955.50	0	1.9590	0	34.5800	0	27.649	0	1929.784	0	-1e10	8	-1e10	8	-1E+10	1	-1E+10	1	-1E+10	1	-1E+10	1	-1E+10	1	-1E+10	1
4902554	19	C	08/10/2021	20:06	-136.287	49.593	0	1965.70	0	1.9500	0	34.5810	0	27.650	0	1939.803	0	-1e10	8	-1e10	8	-1E+10	1	-1E+10	1	-1E+10	1	-1E+10	1	-1E+10	1	-1E+10	1
4902554	19	C	08/10/2021	20:06	-136.287	49.593	0	1975.60	0	1.9440	0	34.5830	0	27.652	0	1949.528	0	-1e10	8	-1e10	8	-1E+10	1	-1E+10	1	-1E+10	1	-1E+10	1	-1E+10	1	-1E+10	1
4902554	19	C	08/10/2021	20:06	-136.287	49.593	0	1985.30	0	1.9430	0	34.5830	0	27.652	0	1959.055	0	-1e10	8	-1e10	8	-1E+10	1	-1E+10	1	-1E+10	1	-1E+10	1	-1E+10	1	-1E+10	1
4902554	19	C	08/10/2021	20:06	-136.287	49.593	0	1995.80	0	1.9370	0	34.5850	0	27.655	0	1969.368	0	-1e10	8	-1e10	8	-1E+10	1	-1E+10	1	-1E+10	1	-1E+10	1	-1E+10	1	-1E+10	1
4902554	19	C	08/10/2021	20:06	-136.287	49.593	0																										
4902554	20	C	08/21/2021	00:56	-136.335	49.553	0	0.10	0	15.4740	0	32.2370	0	23.741	0	0.099	0	-1e10	8	-1e10	8	-1E+10	1	-1E+10	1	-1E+10	1	-1E+10	1	-1E+10	1	-1E+10	1
4902554	20	C	08/21/2021	00:56	-136.335	49.553	0	0.80	0	15.4730	0	32.2490	0	23.750	0	0.793	0	-1e10	8	-1e10	8	-1E+10	1	-1E+10	1	-1E+10	1	-1E+10	1	-1E+10	1	-1E+10	1
4902554	20	C	08/21/2021	00:56	-136.335	49.553	0	2.00	0	15.4760	0	32.2440	0	23.746	0	1.983	0	-1e10	8	-1e10	8	-1E+10	1	-1E+10	1	-1E+10	1	-1E+10	1	-1E+10	1	-1E+10	1
4902554	20	C	08/21/2021	00:56	-136.335	49.553	0	3.10	0	15.4750	0	32.2510	0	23.751	0	3.074	0	-1e10	8	-1e10	8	-1E+10	1	-1E+10	1	-1E+10	1	-1E+10	1	-1E+10	1	-1E+10	1
4902554	20	C	08/21/2021	00:56	-136.335	49.553	0	3.90	0	15.4740	0	32.2510	0	23.752	0	3.867	0	-1e10	8	-1e10	8	-1E+10	1	-1E+10	1	-1E+10	1	-1E+10	1	-1E+10	1	-1E+10	1
4902554	20	C	08/21/2021	00:56	-136.335	49.553	0	5.10	0	15.4680	0	32.2550	0	23.756	0	5.056	0	-1e10	8	-1e10	8	-1E+10	1	-1E+10	1	-1E+10	1	-1E+10	1	-1E+10	1	-1E+10	1
4902554	20	C	08/21/2021	00:56	-136.335	49.553	0	5.80	0	15.4690	0	32.2550	0	23.756	0	5.750	0	-1e10	8	-1e10	8	-1E+10	1	-1E+10	1	-1E+10	1	-1E+10	1	-1E+10	1	-1E+10	1
4902554	20	C	08/21/2021	00:56	-136.335	49.553	0	6.90	0	15.4690	0	32.2550	0	23.756	0	6.841	0	-1e10	8	-1e10	8	-1E+10	1	-1E+10	1	-1E+10	1	-1E+10	1	-1E+10	1	-1E+10	1
4902554	20	C	08/21/2021	00:56	-136.335	49.553	0	8.00	0	15.4690	0	32.2550	0	23.756	0	7.932	0	-1e10	8	-1e10	8	-1E+10	1	-1E+10	1	-1E+10	1	-1E+10	1	-1E+10	1	-1E+10	1
4902554	20	C	08/21/2021	00:56	-136.335	49.553	0	9.00	0	15.4690	0	32.2550	0	23.756	0	8.923	0	-1e10	8	-1e10	8	-1E+10	1	-1E+10	1	-1E+10	1	-1E+10	1	-1E+10	1	-1E+10	1
4902554	20	C	08/21/2021	00:56	-136.335	49.553	0	9.90	0	15.4690	0	32.2560	0	23.757	0	9.815	0	-1e10	8	-1e10	8	-1E+10	1	-1E+10	1	-1E+10	1	-1E+10	1	-1E+10	1	-1E+10	1
4902554	20	C	08/21/2021	00:56	-136.335	49.553	0	10.80	0	15.4640	0	32.2540	0	23.756	0	10.708	0	-1e10	8	-1e10	8	-1E+10	1	-1E+10	1	-1E+10	1	-1E+10	1	-1E+10	1	-1E+10	1
4902554	20	C	08/21/2021	00:56	-136.335	49.553	0	12.00	0	15.4590	0	32.2540	0	23.757	0	11.897	0	-1e10	8	-1e10	8	-1E+10	1	-1E+10	1	-1E+10	1	-1E+10	1	-1E+10	1	-1E+10	1
4902554	20	C	08/21/2021	00:56	-136.335	49.553	0	13.10	0	15.4510	0	32.2540	0	23.759	0	12.988	0	-1e10	8	-1e10	8	-1E+10	1	-1E+10	1	-1E+10	1	-1E+10	1	-1E+10	1	-1E+10	1
4902554	20	C	08/21/2021	00:56	-136.335	49.553	0	14.00	0	15.4490	0	32.2550	0	23.760	0	13.880	0	-1e10	8	-1e10	8	-1E+10	1	-1E+10	1	-1E+10	1	-1E+10	1	-1E+10	1	-1E+10	1
4902554	20	C	08/21/2021	00:56	-136.335	49.553	0	15.00	0	15.4490	0	32.2530	0	23.759	0	14.871	0	-1e10	8	-1e10	8	-1E+10	1	-1E+10	1	-1E+10	1	-1E+10	1	-1E+10	1	-1E+10	1
4902554	20	C	08/21/2021	00:56	-136.335	49.553	0	16.00	0	15.4490	0	32.2550	0	23.761	0	15.863	0	-1e10	8	-1e10	8	-1E+10	1	-1E+10	1	-1E+10	1	-1E+10	1	-1E+10	1	-1E+10	1
4902554	20	C	08/21/2021	00:56	-136.335	49.553	0	17.00	0	15.4400	0	32.2560	0	23.763	0	16.854	0	-1e10	8	-1e10	8	-1E+10	1	-1E+10	1	-1E+10	1	-1E+10	1	-1E+10	1	-1E+10	1
4902554	20	C	08/21/2021	00:56	-136.335	49.553	0	17.90	0	15.4380	0	32.2540	0	23.762	0	17.746	0	-1e10	8	-1e10	8	-1E+10	1	-1E+10	1	-1E+10	1	-1E+10	1	-1E+10	1	-1E+10	1
4902554	20	C	08/21/2021	00:56	-136.335	49.553	0	18.90	0	15.4180	0	32.2550	0	23.767	0	18.738	0	-1e10	8	-1e10	8	-1E+10	1	-1E+10	1	-1E+10	1	-1E+10	1	-1E+10	1	-1E+10	1
4902554	20	C	08/21/2021	00:56	-136.335	49.553	0	19.90	0	15.4110	0	32.2550	0	23.769	0	19.729	0	-1e10	8	-1e10	8	-1E+10	1	-1E+10	1	-1E+10	1	-1E+10	1	-1E+10	1	-1E+10	1
4902554	20	C	08/21/2021	00:56	-136.335	49.553	0	21.10	0	15.3730	0	32.2510	0	23.774	0	20.919	0	-1e10	8	-1e10	8	-1E+10	1	-1E+10	1	-1E+10	1	-1E+10	1	-1E+10	1	-1E+10	1
4902554	20	C	08/21/2021	00:56	-136.335	49.553	0	22.00	0	15.2640	0	32.2410	0	23.790	0	21.811	0	-1e10	8	-1e10	8	-1E+10	1	-1E+10	1	-1E+10	1	-1E+10	1	-1E+10	1	-1E+10	1
4902554	20	C	08/21/2021	00:56	-136.335	49.553	0	23.00	0	14.1970	0	32.3250	0	24.081	0	22.802	0	-1e10	8	-1e10	8	-1E+10	1	-1E+10	1	-1E+10	1	-1E+10	1	-1E+10	1	-1E+10	1
4902554	20	C	08/21/2021	00:56	-136.335	49.553	0	24.20	0	13.1120	0	32.3000	0	24.281	0	23.992	0	-1e10	8	-1e10	8	-1E+10	1	-1E+10	1	-1E+10	1	-1E+10	1	-1E+10	1	-1E+10	1
4902554	20	C	08/21/2021	00:56	-136.335	49.553	0	25.00	0	12.9410	0	32.3000	0	24.315	0	24.785	0	-1e10	8	-1e10	8	-1E+10	1	-1E+10	1	-1E+10	1	-1E+10	1	-1E+10	1	-1E+10	1
4902554	20	C	08/21/2021	00:56	-136.335	49.553	0	26.00	0	12.7180	0	32.2990	0	24.357	0	25.777	0	-1e10	8	-1e10	8	-1E+10	1	-1E+10	1	-1E+10	1	-1E+10	1	-1E+10	1	-1E+10	1
4902554	20	C	08/21/2021	00:56	-136.335	49.553	0	27.10	0	12.5070	0	32.3050	0	24.402	0	26.867	0	-1e10	8	-1e10	8	-1E+10	1	-1E+10	1	-1E+10	1	-1E+10	1	-1E+10	1	-1E+10	1
4902554	20	C	08/21/2021	00:56	-136.335	49.553	0	28.10	0	12.4510	0	32.2950	0	24.405	0	27.858	0	-1e10	8	-1e10	8	-1E+10	1	-1E+10	1	-1E+10	1	-1E+10	1	-1E+10	1	-1E+10	1
4902554	20	C	08/21/2021	00:56	-136.335	49.553	0	29.00	0	12.1860	0	32.2910	0	24.452	0	28.751	0	-1e10	8	-1e10	8	-1E+10	1	-1E+10	1	-1E+10	1	-1E+10	1	-1E+10	1	-1E+10	1
4902554	20	C	08/21/2021	00:56	-136.335	49.553	0	29.90	0	11.8100	0	32.2970	0	24.527	0	29.643	0	-1e10	8	-1e10	8	-1E+10	1	-1E+10	1	-1E+10	1	-1E+10	1	-1E+10	1	-1E+10	1
4902554	20	C	08/21/2021	00:56	-136.335	49.553	0	31.20	0	10.8950	0	32.3240	0	24.712	0	30.931	0	-1e10	8	-1e10	8	-1E+10	1	-1E+10	1	-1E+10	1	-1E+10	1	-1E+10	1	-1E+10	1
4902554	20	C	08/21/2021	00:56	-136.335	49.553	0	31.90	0	10.2890	0	32.3510	0	24.837	0	31.625	0	-1e10	8	-1e10	8	-1E+10	1	-1E+10	1	-1E+10	1	-1E+10	1	-1E+10	1	-1E+10	1
4902554	20	C	08/21/2021	00:56	-136.335	49.553	0	33.00	0	9.9170	0	32.3530	0	24.900	0	32.716	0	-1e10	8	-1e10	8	-1E+10	1	-1E+10	1	-1E+10	1	-1E+10	1	-1E+10	1	-1E+10	1
4902554	20	C	08/21/2021	00:56	-136.335	49.553	0	34.20	0	9.8670	0	32.3510	0	24.907	0	33.905	0	-1e10	8	-1e10	8	-1E+10	1	-1E+10	1	-1E+10	1	-1E+10	1	-1E+10	1	-1E+10	1
4902554	20	C	08/21/2021	00:56	-136.335	49.553	0	34.90	0	9.8390	0	32.3500	0	24.911	0	34.599	0	-1e10	8	-1e10	8	-1E+10	1	-1E+10	1	-1E+10	1	-1E+10	1	-1E+10	1	-1E+10	1
4902554	20	C	08/21/2021	00:56	-136.335	49.553	0	35.90	0	9.5560	0	32.3600	0	24.965	0	35.591	0	-1e10	8	-1e10	8	-1E+10	1	-1E+10	1	-1E+10	1	-1E+10	1	-1E+10	1	-1E+10	1
4902554	20	C	08/21/2021	00:56	-136.335	49.553	0	37.10	0	9.3050	0	32.3620	0	25.006	0	36.780	0	-1e10	8	-1e10	8	-1E+10	1	-1E+10	1	-1E+10	1	-1E+10	1	-1E+10	1	-1E+10	1
4902554	20	C	08/21/2021	00:56	-136.335	49.553	0	38.10	0	8.9600	0	32.3770	0	25.072	0	37.771	0	-1e10	8	-1e10	8	-1E+10	1	-1E+10	1	-1E+10	1	-1E+10	1	-1E+10	1	-1E+10	1
4902554	20	C	08/21/2021	00:56	-136.335	49.553	0	38.90	0	8.7800	0	32.3790	0	25.101	0	38.564	0	-1e10	8	-1e10	8	-1E+10	1	-1E+10	1	-1E+10	1	-1E+10	1	-1E+10	1	-1E+10	1
4902554	20	C	08/21/2021	00:56	-136.335	49.553	0	39.90	0	8.5690	0	32.3860	0	25.139	0	39.556	0	-1e10	8	-1e10	8	-1E+10	1	-1E+10	1	-1E+10	1	-1E+10	1	-1E+10	1	-1E+10	1
4902554	20	C	08/21/2021	00:56	-136.335	49.553	0	41.00	0	8.3700	0	32.3910	0	25.172	0	40.646	0	-1e10	8	-1e10	8	-1E+10	1	-1E+10	1	-1E+10	1	-1E+10	1	-1E+10	1	-1E+10	1
4902554	20	C	08/21/2021	00:56	-136.335	49.553	0	42.20	0	8.3290	0	32.3920	0	25.179	0	41.836	0	-1e10	8	-1e10	8	-1E+10	1	-1E+10	1	-1E+10	1	-1E+10	1	-1E+10	1	-1E+10	1
4902554	20	C	08/21/2021	00:56	-136.335	49.553	0	42.90	0	8.2650	0	32.3940	0	25.190	0	42.530	0	-1e10	8	-1e10	8	-1E+10	1	-1E+10	1	-1E+10	1	-1E+10	1	-1E+10	1	-1E+10	1
4902554	20	C	08/21/2021	00:56	-136.335	49.553	0	44.20	0	8.1820	0	32.3920	0	25.201	0	43.818	0	-1e10	8	-1e10	8	-1E+10	1	-1E+10	1	-1E+10	1	-1E+10	1	-1E+10	1	-1E+10	1
4902554	20	C	08/21/2021	00:56	-136.335	49.553	0	45.10	0	7.9930	0	32.4010	0	25.235	0	44.710	0	-1e10	8	-1e10	8	-1E+10	1	-1E+10	1	-1E+10	1	-1E+10	1	-1E+10	1	-1E+10	1
4902554	20	C	08/21/2021	00:56	-136.335	49.553	0	45.80	0	7.9630	0	32.4020	0	25.240	0	45.404	0	-1e10	8	-1e10	8	-1E+10	1	-1E+10	1	-1E+10	1	-1E+10	1	-1E+10	1	-1E+10	1
4902554	20	C	08/21/2021	00:56	-136.335	49.553	0	46.70	0	7.9300	0	32.4020	0	25.245	0	46.296	0	-1e10	8	-1e10	8	-1E+10	1	-1E+10	1	-1E+10	1	-1E+10	1	-1E+10	1	-1E+10	1
4902554	20	C	08/21/2021	00:56	-136.335	49.553	0	47.80	0	7.8840	0	32.4020	0	25.252	0	47.387	0	-1e10	8	-1e10	8	-1E+10	1	-1E+10	1	-1E+10	1	-1E+10	1	-1E+10	1	-1E+10	1
4902554	20	C	08/21/2021	00:56	-136.335	49.553	0	48.80	0	7.8230	0	32.4050	0	25.263	0	48.378	0	-1e10	8	-1e10	8	-1E+10	1	-1E+10	1	-1E+10	1	-1E+10	1	-1E+10	1	-1E+10	1
4902554	20	C	08/21/2021	00:56	-136.335	49.553	0	49.90	0	7.7290	0	32.4100	0	25.280	0	49.468	0	-1e10	8	-1e10	8	-1E+10	1	-1E+10	1	-1E+10	1	-1E+10	1	-1E+10	1	-1E+10	1
4902554	20	C	08/21/2021	00:56	-136.335	49.553	0	51.00	0	7.6310	0	32.4130	0	25.296	0	50.559	0	-1e10	8	-1e10	8	-1E+10	1	-1E+10	1	-1E+10	1	-1E+10	1	-1E+10	1	-1E+10	1
4902554	20	C	08/21/2021	00:56	-136.335	49.553	0	52.00	0	7.5620	0	32.4130	0	25.306	0	51.550	0	-1e10	8	-1e10	8	-1E+10	1	-1E+10	1	-1E+10	1	-1E+10	1	-1E+10	1	-1E+10	1
4902554	20	C	08/21/2021	00:56	-136.335	49.553	0	52.90	0	7.5020	0	32.4150	0	25.316	0	52.442	0	-1e10	8	-1e10	8	-1E+10	1	-1E+10	1	-1E+10	1	-1E+10	1	-1E+10	1	-1E+10	1
4902554	20	C	08/21/2021	00:56	-136.335	49.553	0	53.70	0	7.4260	0	32.4160	0	25.327	0	53.235	0	-1e10	8	-1e10	8	-1E+10	1	-1E+10	1	-1E+10	1	-1E+10	1	-1E+10	1	-1E+10	1
4902554	20	C	08/21/2021	00:56	-136.335	49.553	0	54.90	0	7.2710	0	32.4240	0	25.354	0	54.424	0	-1e10	8	-1e10	8	-1E+10	1	-1E+10	1	-1E+10	1	-1E+10	1	-1E+10	1	-1E+10	1
4902554	20	C	08/21/2021	00:56	-136.335	49.553	0	55.90	0	7.1530	0	32.4250	0	25.371	0	55.416	0	-1e10	8	-1e10	8	-1E+10	1	-1E+10	1	-1E+10	1	-1E+10	1	-1E+10	1	-1E+10	1
4902554	20	C	08/21/2021	00:56	-136.335	49.553	0	56.80	0	7.1040	0	32.4260	0	25.379	0	56.308	0	-1e10	8	-1e10	8	-1E+10	1	-1E+10	1	-1E+10	1	-1E+10	1	-1E+10	1	-1E+10	1
4902554	20	C	08/21/2021	00:56	-136.335	49.553	0	58.10	0	7.0440	0	32.4290	0	25.389	0	57.596	0	-1e10	8	-1e10	8	-1E+10	1	-1E+10	1	-1E+10	1	-1E+10	1	-1E+10	1	-1E+10	1
4902554	20	C	08/21/2021	00:56	-136.335	49.553	0	59.00	0	7.0010	0	32.4330	0	25.398	0	58.488	0	-1e10	8	-1e10	8	-1E+10	1	-1E+10	1	-1E+10	1	-1E+10	1	-1E+10	1	-1E+10	1
4902554	20	C	08/21/2021	00:56	-136.335	49.553	0	59.90	0	6.9540	0	32.4320	0	25.403	0	59.380	0	-1e10	8	-1e10	8	-1E+10	1	-1E+10	1	-1E+10	1	-1E+10	1	-1E+10	1	-1E+10	1
4902554	20	C	08/21/2021	00:56	-136.335	49.553	0	60.90	0	6.9310	0	32.4320	0	25.406	0	60.371	0	-1e10	8	-1e10	8	-1E+10	1	-1E+10	1	-1E+10	1	-1E+10	1	-1E+10	1	-1E+10	1
4902554	20	C	08/21/2021	00:56	-136.335	49.553	0	61.80	0	6.9100	0	32.4320	0	25.409	0	61.264	0	-1e10	8	-1e10	8	-1E+10	1	-1E+10	1	-1E+10	1	-1E+10	1	-1E+10	1	-1E+10	1
4902554	20	C	08/21/2021	00:56	-136.335	49.553	0	63.00	0	6.8500	0	32.4370	0	25.421	0	62.453	0	-1e10	8	-1e10	8	-1E+10	1	-1E+10	1	-1E+10	1	-1E+10	1	-1E+10	1	-1E+10	1
4902554	20	C	08/21/2021	00:56	-136.335	49.553	0	63.90	0	6.7690	0	32.4370	0	25.432	0	63.345	0	-1e10	8	-1e10	8	-1E+10	1	-1E+10	1	-1E+10	1	-1E+10	1	-1E+10	1	-1E+10	1
4902554	20	C	08/21/2021	00:56	-136.335	49.553	0	64.80	0	6.7580	0	32.4370	0	25.433	0	64.237	0	-1e10	8	-1e10	8	-1E+10	1	-1E+10	1	-1E+10	1	-1E+10	1	-1E+10	1	-1E+10	1
4902554	20	C	08/21/2021	00:56	-136.335	49.553	0	66.10	0	6.7270	0	32.4390	0	25.439	0	65.526	0	-1e10	8	-1e10	8	-1E+10	1	-1E+10	1	-1E+10	1	-1E+10	1	-1E+10	1	-1E+10	1
4902554	20	C	08/21/2021	00:56	-136.335	49.553	0	67.10	0	6.6830	0	32.4420	0	25.447	0	66.517	0	-1e10	8	-1e10	8	-1E+10	1	-1E+10	1	-1E+10	1	-1E+10	1	-1E+10	1	-1E+10	1
4902554	20	C	08/21/2021	00:56	-136.335	49.553	0	68.00	0	6.6580	0	32.4420	0	25.450	0	67.409	0	-1e10	8	-1e10	8	-1E+10	1	-1E+10	1	-1E+10	1	-1E+10	1	-1E+10	1	-1E+10	1
4902554	20	C	08/21/2021	00:56	-136.335	49.553	0	69.10	0	6.6380	0	32.4430	0	25.453	0	68.499	0	-1e10	8	-1e10	8	-1E+10	1	-1E+10	1	-1E+10	1	-1E+10	1	-1E+10	1	-1E+10	1
4902554	20	C	08/21/2021	00:56	-136.335	49.553	0	70.30	0	6.6150	0	32.4440	0	25.457	0	69.688	0	-1e10	8	-1e10	8	-1E+10	1	-1E+10	1	-1E+10	1	-1E+10	1	-1E+10	1	-1E+10	1
4902554	20	C	08/21/2021	00:56	-136.335	49.553	0	71.10	0	6.5990	0	32.4450	0	25.460	0	70.481	0	-1e10	8	-1e10	8	-1E+10	1	-1E+10	1	-1E+10	1	-1E+10	1	-1E+10	1	-1E+10	1
4902554	20	C	08/21/2021	00:56	-136.335	49.553	0	71.90	0	6.5770	0	32.4460	0	25.464	0	71.274	0	-1e10	8	-1e10	8	-1E+10	1	-1E+10	1	-1E+10	1	-1E+10	1	-1E+10	1	-1E+10	1
4902554	20	C	08/21/2021	00:56	-136.335	49.553	0	72.90	0	6.5600	0	32.4480	0	25.467	0	72.265	0	-1e10	8	-1e10	8	-1E+10	1	-1E+10	1	-1E+10	1	-1E+10	1	-1E+10	1	-1E+10	1
4902554	20	C	08/21/2021	00:56	-136.335	49.553	0	73.80	0	6.5410	0	32.4490	0	25.471	0	73.157	0	-1e10	8	-1e10	8	-1E+10	1	-1E+10	1	-1E+10	1	-1E+10	1	-1E+10	1	-1E+10	1
4902554	20	C	08/21/2021	00:56	-136.335	49.553	0	75.00	0	6.5210	0	32.4500	0	25.474	0	74.347	0	-1e10	8	-1e10	8	-1E+10	1	-1E+10	1	-1E+10	1	-1E+10	1	-1E+10	1	-1E+10	1
4902554	20	C	08/21/2021	00:56	-136.335	49.553	0	76.20	0	6.5120	0	32.4510	0	25.476	0	75.536	0	-1e10	8	-1e10	8	-1E+10	1	-1E+10	1	-1E+10	1	-1E+10	1	-1E+10	1	-1E+10	1
4902554	20	C	08/21/2021	00:56	-136.335	49.553	0	77.00	0	6.4800	0	32.4540	0	25.482	0	76.329	0	-1e10	8	-1e10	8	-1E+10	1	-1E+10	1	-1E+10	1	-1E+10	1	-1E+10	1	-1E+10	1
4902554	20	C	08/21/2021	00:56	-136.335	49.553	0	78.10	0	6.4600	0	32.4550	0	25.486	0	77.419	0	-1e10	8	-1e10	8	-1E+10	1	-1E+10	1	-1E+10	1	-1E+10	1	-1E+10	1	-1E+10	1
4902554	20	C	08/21/2021	00:56	-136.335	49.553	0	79.00	0	6.4480	0	32.4550	0	25.487	0	78.311	0	-1e10	8	-1e10	8	-1E+10	1	-1E+10	1	-1E+10	1	-1E+10	1	-1E+10	1	-1E+10	1
4902554	20	C	08/21/2021	00:56	-136.335	49.553	0	80.00	0	6.4300	0	32.4570	0	25.491	0	79.302	0	-1e10	8	-1e10	8	-1E+10	1	-1E+10	1	-1E+10	1	-1E+10	1	-1E+10	1	-1E+10	1
4902554	20	C	08/21/2021	00:56	-136.335	49.553	0	80.90	0	6.4010	0	32.4590	0	25.496	0	80.194	0	-1e10	8	-1e10	8	-1E+10	1	-1E+10	1	-1E+10	1	-1E+10	1	-1E+10	1	-1E+10	1
4902554	20	C	08/21/2021	00:56	-136.335	49.553	0	81.90	0	6.3790	0	32.4610	0	25.501	0	81.185	0	-1e10	8	-1e10	8	-1E+10	1	-1E+10	1	-1E+10	1	-1E+10	1	-1E+10	1	-1E+10	1
4902554	20	C	08/21/2021	00:56	-136.335	49.553	0	82.90	0	6.3640	0	32.4620	0	25.503	0	82.176	0	-1e10	8	-1e10	8	-1E+10	1	-1E+10	1	-1E+10	1	-1E+10	1	-1E+10	1	-1E+10	1
4902554	20	C	08/21/2021	00:56	-136.335	49.553	0	84.10	0	6.3550	0	32.4630	0	25.505	0	83.365	0	-1e10	8	-1e10	8	-1E+10	1	-1E+10	1	-1E+10	1	-1E+10	1	-1E+10	1	-1E+10	1
4902554	20	C	08/21/2021	00:56	-136.335	49.553	0	84.80	0	6.3540	0	32.4630	0	25.506	0	84.059	0	-1e10	8	-1e10	8	-1E+10	1	-1E+10	1	-1E+10	1	-1E+10	1	-1E+10	1	-1E+10	1
4902554	20	C	08/21/2021	00:56	-136.335	49.553	0	86.00	0	6.3480	0	32.4630	0	25.506	0	85.248	0	-1e10	8	-1e10	8	-1E+10	1	-1E+10	1	-1E+10	1	-1E+10	1	-1E+10	1	-1E+10	1
4902554	20	C	08/21/2021	00:56	-136.335	49.553	0	86.90	0	6.3240	0	32.4650	0	25.511	0	86.140	0	-1e10	8	-1e10	8	-1E+10	1	-1E+10	1	-1E+10	1	-1E+10	1	-1E+10	1	-1E+10	1
4902554	20	C	08/21/2021	00:56	-136.335	49.553	0	88.20	0	6.2910	0	32.4660	0	25.516	0	87.429	0	-1e10	8	-1e10	8	-1E+10	1	-1E+10	1	-1E+10	1	-1E+10	1	-1E+10	1	-1E+10	1
4902554	20	C	08/21/2021	00:56	-136.335	49.553	0	89.00	0	6.2680	0	32.4670	0	25.520	0	88.222	0	-1e10	8	-1e10	8	-1E+10	1	-1E+10	1	-1E+10	1	-1E+10	1	-1E+10	1	-1E+10	1
4902554	20	C	08/21/2021	00:56	-136.335	49.553	0	90.20	0	6.2490	0	32.4680	0	25.523	0	89.411	0	-1e10	8	-1e10	8	-1E+10	1	-1E+10	1	-1E+10	1	-1E+10	1	-1E+10	1	-1E+10	1
4902554	20	C	08/21/2021	00:56	-136.335	49.553	0	90.90	0	6.2360	0	32.4680	0	25.524	0	90.105	0	-1e10	8	-1e10	8	-1E+10	1	-1E+10	1	-1E+10	1	-1E+10	1	-1E+10	1	-1E+10	1
4902554	20	C	08/21/2021	00:56	-136.335	49.553	0	92.00	0	6.2230	0	32.4680	0	25.526	0	91.195	0	-1e10	8	-1e10	8	-1E+10	1	-1E+10	1	-1E+10	1	-1E+10	1	-1E+10	1	-1E+10	1
4902554	20	C	08/21/2021	00:56	-136.335	49.553	0	93.00	0	6.2030	0	32.4700	0	25.530	0	92.186	0	-1e10	8	-1e10	8	-1E+10	1	-1E+10	1	-1E+10	1	-1E+10	1	-1E+10	1	-1E+10	1
4902554	20	C	08/21/2021	00:56	-136.335	49.553	0	94.00	0	6.1690	0	32.4710	0	25.535	0	93.177	0	-1e10	8	-1e10	8	-1E+10	1	-1E+10	1	-1E+10	1	-1E+10	1	-1E+10	1	-1E+10	1
4902554	20	C	08/21/2021	00:56	-136.335	49.553	0	95.00	0	6.1440	0	32.4740	0	25.540	0	94.168	0	-1e10	8	-1e10	8	-1E+10	1	-1E+10	1	-1E+10	1	-1E+10	1	-1E+10	1	-1E+10	1
4902554	20	C	08/21/2021	00:56	-136.335	49.553	0	95.90	0	6.1290	0	32.4760	0	25.544	0	95.060	0	-1e10	8	-1e10	8	-1E+10	1	-1E+10	1	-1E+10	1	-1E+10	1	-1E+10	1	-1E+10	1
4902554	20	C	08/21/2021	00:56	-136.335	49.553	0	96.90	0	6.1100	0	32.4780	0	25.548	0	96.051	0	-1e10	8	-1e10	8	-1E+10	1	-1E+10	1	-1E+10	1	-1E+10	1	-1E+10	1	-1E+10	1
4902554	20	C	08/21/2021	00:56	-136.335	49.553	0	98.00	0	6.0960	0	32.4790	0	25.550	0	97.141	0	-1e10	8	-1e10	8	-1E+10	1	-1E+10	1	-1E+10	1	-1E+10	1	-1E+10	1	-1E+10	1
4902554	20	C	08/21/2021	00:56	-136.335	49.553	0	99.10	0	6.0840	0	32.4800	0	25.553	0	98.231	0	-1e10	8	-1e10	8	-1E+10	1	-1E+10	1	-1E+10	1	-1E+10	1	-1E+10	1	-1E+10	1
4902554	20	C	08/21/2021	00:56	-136.335	49.553	0	100.00	0	6.0700	0	32.4810	0	25.555	0	99.123	0	-1e10	8	-1e10	8	-1E+10	1	-1E+10	1	-1E+10	1	-1E+10	1	-1E+10	1	-1E+10	1
4902554	20	C	08/21/2021	00:56	-136.335	49.553	0	101.00	0	6.0540	0	32.4830	0	25.559	0	100.114	0	-1e10	8	-1e10	8	-1E+10	1	-1E+10	1	-1E+10	1	-1E+10	1	-1E+10	1	-1E+10	1
4902554	20	C	08/21/2021	00:56	-136.335	49.553	0	101.90	0	6.0360	0	32.4860	0	25.563	0	101.006	0	-1e10	8	-1e10	8	-1E+10	1	-1E+10	1	-1E+10	1	-1E+10	1	-1E+10	1	-1E+10	1
4902554	20	C	08/21/2021	00:56	-136.335	49.553	0	102.90	0	5.9960	0	32.4900	0	25.571	0	101.997	0	-1e10	8	-1e10	8	-1E+10	1	-1E+10	1	-1E+10	1	-1E+10	1	-1E+10	1	-1E+10	1
4902554	20	C	08/21/2021	00:56	-136.335	49.553	0	103.90	0	5.9580	0	32.4890	0	25.575	0	102.988	0	-1e10	8	-1e10	8	-1E+10	1	-1E+10	1	-1E+10	1	-1E+10	1	-1E+10	1	-1E+10	1
4902554	20	C	08/21/2021	00:56	-136.335	49.553	0	104.90	0	5.9410	0	32.4910	0	25.579	0	103.979	0	-1e10	8	-1e10	8	-1E+10	1	-1E+10	1	-1E+10	1	-1E+10	1	-1E+10	1	-1E+10	1
4902554	20	C	08/21/2021	00:56	-136.335	49.553	0	106.00	0	5.9310	0	32.4930	0	25.582	0	105.069	0	-1e10	8	-1e10	8	-1E+10	1	-1E+10	1	-1E+10	1	-1E+10	1	-1E+10	1	-1E+10	1
4902554	20	C	08/21/2021	00:56	-136.335	49.553	0	107.10	0	5.9190	0	32.4930	0	25.583	0	106.159	0	-1e10	8	-1e10	8	-1E+10	1	-1E+10	1	-1E+10	1	-1E+10	1	-1E+10	1	-1E+10	1
4902554	20	C	08/21/2021	00:56	-136.335	49.553	0	107.90	0	5.8970	0	32.4950	0	25.587	0	106.951	0	-1e10	8	-1e10	8	-1E+10	1	-1E+10	1	-1E+10	1	-1E+10	1	-1E+10	1	-1E+10	1
4902554	20	C	08/21/2021	00:56	-136.335	49.553	0	108.80	0	5.8860	0	32.4970	0	25.590	0	107.843	0	-1e10	8	-1e10	8	-1E+10	1	-1E+10	1	-1E+10	1	-1E+10	1	-1E+10	1	-1E+10	1
4902554	20	C	08/21/2021	00:56	-136.335	49.553	0	109.90	0	5.8730	0	32.5010	0	25.595	0	108.933	0	-1e10	8	-1e10	8	-1E+10	1	-1E+10	1	-1E+10	1	-1E+10	1	-1E+10	1	-1E+10	1
4902554	20	C	08/21/2021	00:56	-136.335	49.553	0	111.10	0	5.8600	0	32.5050	0	25.600	0	110.122	0	-1e10	8	-1e10	8	-1E+10	1	-1E+10	1	-1E+10	1	-1E+10	1	-1E+10	1	-1E+10	1
4902554	20	C	08/21/2021	00:56	-136.335	49.553	0	111.90	0	5.8580	0	32.5100	0	25.604	0	110.915	0	-1e10	8	-1e10	8	-1E+10	1	-1E+10	1	-1E+10	1	-1E+10	1	-1E+10	1	-1E+10	1
4902554	20	C	08/21/2021	00:56	-136.335	49.553	0	112.70	0	5.8610	0	32.5130	0	25.606	0	111.708	0	-1e10	8	-1e10	8	-1E+10	1	-1E+10	1	-1E+10	1	-1E+10	1	-1E+10	1	-1E+10	1
4902554	20	C	08/21/2021	00:56	-136.335	49.553	0	113.80	0	5.8620	0	32.5160	0	25.608	0	112.798	0	-1e10	8	-1e10	8	-1E+10	1	-1E+10	1	-1E+10	1	-1E+10	1	-1E+10	1	-1E+10	1
4902554	20	C	08/21/2021	00:56	-136.335	49.553	0	114.90	0	5.8820	0	32.5370	0	25.622	0	113.888	0	-1e10	8	-1e10	8	-1E+10	1	-1E+10	1	-1E+10	1	-1E+10	1	-1E+10	1	-1E+10	1
4902554	20	C	08/21/2021	00:56	-136.335	49.553	0	116.10	0	5.9190	0	32.5710	0	25.645	0	115.077	0	-1e10	8	-1e10	8	-1E+10	1	-1E+10	1	-1E+10	1	-1E+10	1	-1E+10	1	-1E+10	1
4902554	20	C	08/21/2021	00:56	-136.335	49.553	0	116.90	0	5.9390	0	32.5890	0	25.657	0	115.870	0	-1e10	8	-1e10	8	-1E+10	1	-1E+10	1	-1E+10	1	-1E+10	1	-1E+10	1	-1E+10	1
4902554	20	C	08/21/2021	00:56	-136.335	49.553	0	117.80	0	5.9420	0	32.6000	0	25.665	0	116.762	0	-1e10	8	-1e10	8	-1E+10	1	-1E+10	1	-1E+10	1	-1E+10	1	-1E+10	1	-1E+10	1
4902554	20	C	08/21/2021	00:56	-136.335	49.553	0	119.00	0	5.9440	0	32.6310	0	25.689	0	117.951	0	-1e10	8	-1e10	8	-1E+10	1	-1E+10	1	-1E+10	1	-1E+10	1	-1E+10	1	-1E+10	1
4902554	20	C	08/21/2021	00:56	-136.335	49.553	0	119.90	0	5.9500	0	32.6590	0	25.711	0	118.842	0	-1e10	8	-1e10	8	-1E+10	1	-1E+10	1	-1E+10	1	-1E+10	1	-1E+10	1	-1E+10	1
4902554	20	C	08/21/2021	00:56	-136.335	49.553	0	120.80	0	5.9720	0	32.7020	0	25.742	0	119.734	0	-1e10	8	-1e10	8	-1E+10	1	-1E+10	1	-1E+10	1	-1E+10	1	-1E+10	1	-1E+10	1
4902554	20	C	08/21/2021	00:56	-136.335	49.553	0	122.00	0	6.0030	0	32.7630	0	25.786	0	120.923	0	-1e10	8	-1e10	8	-1E+10	1	-1E+10	1	-1E+10	1	-1E+10	1	-1E+10	1	-1E+10	1
4902554	20	C	08/21/2021	00:56	-136.335	49.553	0	123.10	0	6.0620	0	32.8770	0	25.869	0	122.013	0	-1e10	8	-1e10	8	-1E+10	1	-1E+10	1	-1E+10	1	-1E+10	1	-1E+10	1	-1E+10	1
4902554	20	C	08/21/2021	00:56	-136.335	49.553	0	124.10	0	6.0830	0	32.9360	0	25.913	0	123.004	0	-1e10	8	-1e10	8	-1E+10	1	-1E+10	1	-1E+10	1	-1E+10	1	-1E+10	1	-1E+10	1
4902554	20	C	08/21/2021	00:56	-136.335	49.553	0	125.10	0	6.0880	0	32.9460	0	25.920	0	123.995	0	-1e10	8	-1e10	8	-1E+10	1	-1E+10	1	-1E+10	1	-1E+10	1	-1E+10	1	-1E+10	1
4902554	20	C	08/21/2021	00:56	-136.335	49.553	0	125.80	0	6.0940	0	32.9560	0	25.928	0	124.689	0	-1e10	8	-1e10	8	-1E+10	1	-1E+10	1	-1E+10	1	-1E+10	1	-1E+10	1	-1E+10	1
4902554	20	C	08/21/2021	00:56	-136.335	49.553	0	126.90	0	6.1430	0	33.0410	0	25.989	0	125.779	0	-1e10	8	-1e10	8	-1E+10	1	-1E+10	1	-1E+10	1	-1E+10	1	-1E+10	1	-1E+10	1
4902554	20	C	08/21/2021	00:56	-136.335	49.553	0	128.00	0	6.1810	0	33.1160	0	26.043	0	126.869	0	-1e10	8	-1e10	8	-1E+10	1	-1E+10	1	-1E+10	1	-1E+10	1	-1E+10	1	-1E+10	1
4902554	20	C	08/21/2021	00:56	-136.335	49.553	0	128.80	0	6.1810	0	33.1180	0	26.045	0	127.661	0	-1e10	8	-1e10	8	-1E+10	1	-1E+10	1	-1E+10	1	-1E+10	1	-1E+10	1	-1E+10	1
4902554	20	C	08/21/2021	00:56	-136.335	49.553	0	129.80	0	6.1830	0	33.1250	0	26.050	0	128.652	0	-1e10	8	-1e10	8	-1E+10	1	-1E+10	1	-1E+10	1	-1E+10	1	-1E+10	1	-1E+10	1
4902554	20	C	08/21/2021	00:56	-136.335	49.553	0	130.90	0	6.1950	0	33.1730	0	26.086	0	129.742	0	-1e10	8	-1e10	8	-1E+10	1	-1E+10	1	-1E+10	1	-1E+10	1	-1E+10	1	-1E+10	1
4902554	20	C	08/21/2021	00:56	-136.335	49.553	0	132.00	0	6.2110	0	33.2620	0	26.155	0	130.832	0	-1e10	8	-1e10	8	-1E+10	1	-1E+10	1	-1E+10	1	-1E+10	1	-1E+10	1	-1E+10	1
4902554	20	C	08/21/2021	00:56	-136.335	49.553	0	133.20	0	6.2160	0	33.2970	0	26.182	0	132.021	0	-1e10	8	-1e10	8	-1E+10	1	-1E+10	1	-1E+10	1	-1E+10	1	-1E+10	1	-1E+10	1
4902554	20	C	08/21/2021	00:56	-136.335	49.553	0	134.10	0	6.2240	0	33.3360	0	26.211	0	132.913	0	-1e10	8	-1e10	8	-1E+10	1	-1E+10	1	-1E+10	1	-1E+10	1	-1E+10	1	-1E+10	1
4902554	20	C	08/21/2021	00:56	-136.335	49.553	0	134.90	0	6.2250	0	33.3660	0	26.235	0	133.705	0	-1e10	8	-1e10	8	-1E+10	1	-1E+10	1	-1E+10	1	-1E+10	1	-1E+10	1	-1E+10	1
4902554	20	C	08/21/2021	00:56	-136.335	49.553	0	135.70	0	6.2230	0	33.3750	0	26.242	0	134.498	0	-1e10	8	-1e10	8	-1E+10	1	-1E+10	1	-1E+10	1	-1E+10	1	-1E+10	1	-1E+10	1
4902554	20	C	08/21/2021	00:56	-136.335	49.553	0	136.60	0	6.2220	0	33.4060	0	26.267	0	135.390	0	-1e10	8	-1e10	8	-1E+10	1	-1E+10	1	-1E+10	1	-1E+10	1	-1E+10	1	-1E+10	1
4902554	20	C	08/21/2021	00:56	-136.335	49.553	0	137.90	0	6.2250	0	33.4310	0	26.286	0	136.678	0	-1e10	8	-1e10	8	-1E+10	1	-1E+10	1	-1E+10	1	-1E+10	1	-1E+10	1	-1E+10	1
4902554	20	C	08/21/2021	00:56	-136.335	49.553	0	139.20	0	6.2290	0	33.4520	0	26.302	0	137.966	0	-1e10	8	-1e10	8	-1E+10	1	-1E+10	1	-1E+10	1	-1E+10	1	-1E+10	1	-1E+10	1
4902554	20	C	08/21/2021	00:56	-136.335	49.553	0	140.00	0	6.2290	0	33.4580	0	26.307	0	138.758	0	-1e10	8	-1e10	8	-1E+10	1	-1E+10	1	-1E+10	1	-1E+10	1	-1E+10	1	-1E+10	1
4902554	20	C	08/21/2021	00:56	-136.335	49.553	0	140.90	0	6.2270	0	33.4710	0	26.318	0	139.650	0	-1e10	8	-1e10	8	-1E+10	1	-1E+10	1	-1E+10	1	-1E+10	1	-1E+10	1	-1E+10	1
4902554	20	C	08/21/2021	00:56	-136.335	49.553	0	141.70	0	6.2240	0	33.4860	0	26.330	0	140.443	0	-1e10	8	-1e10	8	-1E+10	1	-1E+10	1	-1E+10	1	-1E+10	1	-1E+10	1	-1E+10	1
4902554	20	C	08/21/2021	00:56	-136.335	49.553	0	142.60	0	6.2190	0	33.5050	0	26.346	0	141.334	0	-1e10	8	-1e10	8	-1E+10	1	-1E+10	1	-1E+10	1	-1E+10	1	-1E+10	1	-1E+10	1
4902554	20	C	08/21/2021	00:56	-136.335	49.553	0	143.90	0	6.1990	0	33.5570	0	26.389	0	142.622	0	-1e10	8	-1e10	8	-1E+10	1	-1E+10	1	-1E+10	1	-1E+10	1	-1E+10	1	-1E+10	1
4902554	20	C	08/21/2021	00:56	-136.335	49.553	0	145.30	0	6.1780	0	33.5840	0	26.413	0	144.010	0	-1e10	8	-1e10	8	-1E+10	1	-1E+10	1	-1E+10	1	-1E+10	1	-1E+10	1	-1E+10	1
4902554	20	C	08/21/2021	00:56	-136.335	49.553	0	146.20	0	6.1680	0	33.5890	0	26.418	0	144.901	0	-1e10	8	-1e10	8	-1E+10	1	-1E+10	1	-1E+10	1	-1E+10	1	-1E+10	1	-1E+10	1
4902554	20	C	08/21/2021	00:56	-136.335	49.553	0	147.10	0	6.1600	0	33.6020	0	26.430	0	145.793	0	-1e10	8	-1e10	8	-1E+10	1	-1E+10	1	-1E+10	1	-1E+10	1	-1E+10	1	-1E+10	1
4902554	20	C	08/21/2021	00:56	-136.335	49.553	0	148.10	0	6.1520	0	33.6170	0	26.443	0	146.784	0	-1e10	8	-1e10	8	-1E+10	1	-1E+10	1	-1E+10	1	-1E+10	1	-1E+10	1	-1E+10	1
4902554	20	C	08/21/2021	00:56	-136.335	49.553	0	149.00	0	6.1530	0	33.6350	0	26.457	0	147.675	0	-1e10	8	-1e10	8	-1E+10	1	-1E+10	1	-1E+10	1	-1E+10	1	-1E+10	1	-1E+10	1
4902554	20	C	08/21/2021	00:56	-136.335	49.553	0	150.00	0	6.1280	0	33.6470	0	26.469	0	148.666	0	-1e10	8	-1e10	8	-1E+10	1	-1E+10	1	-1E+10	1	-1E+10	1	-1E+10	1	-1E+10	1
4902554	20	C	08/21/2021	00:56	-136.335	49.553	0	150.90	0	6.1270	0	33.6510	0	26.473	0	149.558	0	-1e10	8	-1e10	8	-1E+10	1	-1E+10	1	-1E+10	1	-1E+10	1	-1E+10	1	-1E+10	1
4902554	20	C	08/21/2021	00:56	-136.335	49.553	0	151.90	0	6.1240	0	33.6500	0	26.472	0	150.549	0	-1e10	8	-1e10	8	-1E+10	1	-1E+10	1	-1E+10	1	-1E+10	1	-1E+10	1	-1E+10	1
4902554	20	C	08/21/2021	00:56	-136.335	49.553	0	152.80	0	6.1140	0	33.6680	0	26.488	0	151.440	0	-1e10	8	-1e10	8	-1E+10	1	-1E+10	1	-1E+10	1	-1E+10	1	-1E+10	1	-1E+10	1
4902554	20	C	08/21/2021	00:56	-136.335	49.553	0	153.70	0	6.1130	0	33.6760	0	26.494	0	152.332	0	-1e10	8	-1e10	8	-1E+10	1	-1E+10	1	-1E+10	1	-1E+10	1	-1E+10	1	-1E+10	1
4902554	20	C	08/21/2021	00:56	-136.335	49.553	0	155.00	0	6.1060	0	33.6880	0	26.504	0	153.620	0	-1e10	8	-1e10	8	-1E+10	1	-1E+10	1	-1E+10	1	-1E+10	1	-1E+10	1	-1E+10	1
4902554	20	C	08/21/2021	00:56	-136.335	49.553	0	156.10	0	6.0970	0	33.6980	0	26.513	0	154.710	0	-1e10	8	-1e10	8	-1E+10	1	-1E+10	1	-1E+10	1	-1E+10	1	-1E+10	1	-1E+10	1
4902554	20	C	08/21/2021	00:56	-136.335	49.553	0	156.80	0	6.0860	0	33.7060	0	26.521	0	155.403	0	-1e10	8	-1e10	8	-1E+10	1	-1E+10	1	-1E+10	1	-1E+10	1	-1E+10	1	-1E+10	1
4902554	20	C	08/21/2021	00:56	-136.335	49.553	0	157.90	0	6.0730	0	33.7100	0	26.526	0	156.493	0	-1e10	8	-1e10	8	-1E+10	1	-1E+10	1	-1E+10	1	-1E+10	1	-1E+10	1	-1E+10	1
4902554	20	C	08/21/2021	00:56	-136.335	49.553	0	159.10	0	6.0620	0	33.7190	0	26.535	0	157.682	0	-1e10	8	-1e10	8	-1E+10	1	-1E+10	1	-1E+10	1	-1E+10	1	-1E+10	1	-1E+10	1
4902554	20	C	08/21/2021	00:56	-136.335	49.553	0	159.90	0	6.0480	0	33.7240	0	26.540	0	158.474	0	-1e10	8	-1e10	8	-1E+10	1	-1E+10	1	-1E+10	1	-1E+10	1	-1E+10	1	-1E+10	1
4902554	20	C	08/21/2021	00:56	-136.335	49.553	0	160.70	0	6.0410	0	33.7260	0	26.543	0	159.267	0	-1e10	8	-1e10	8	-1E+10	1	-1E+10	1	-1E+10	1	-1E+10	1	-1E+10	1	-1E+10	1
4902554	20	C	08/21/2021	00:56	-136.335	49.553	0	161.90	0	6.0340	0	33.7290	0	26.546	0	160.456	0	-1e10	8	-1e10	8	-1E+10	1	-1E+10	1	-1E+10	1	-1E+10	1	-1E+10	1	-1E+10	1
4902554	20	C	08/21/2021	00:56	-136.335	49.553	0	163.10	0	6.0200	0	33.7340	0	26.552	0	161.645	0	-1e10	8	-1e10	8	-1E+10	1	-1E+10	1	-1E+10	1	-1E+10	1	-1E+10	1	-1E+10	1
4902554	20	C	08/21/2021	00:56	-136.335	49.553	0	163.90	0	6.0060	0	33.7400	0	26.558	0	162.437	0	-1e10	8	-1e10	8	-1E+10	1	-1E+10	1	-1E+10	1	-1E+10	1	-1E+10	1	-1E+10	1
4902554	20	C	08/21/2021	00:56	-136.335	49.553	0	164.70	0	5.9880	0	33.7430	0	26.563	0	163.230	0	-1e10	8	-1e10	8	-1E+10	1	-1E+10	1	-1E+10	1	-1E+10	1	-1E+10	1	-1E+10	1
4902554	20	C	08/21/2021	00:56	-136.335	49.553	0	166.00	0	5.9780	0	33.7450	0	26.566	0	164.517	0	-1e10	8	-1e10	8	-1E+10	1	-1E+10	1	-1E+10	1	-1E+10	1	-1E+10	1	-1E+10	1
4902554	20	C	08/21/2021	00:56	-136.335	49.553	0	167.30	0	5.9710	0	33.7480	0	26.569	0	165.805	0	-1e10	8	-1e10	8	-1E+10	1	-1E+10	1	-1E+10	1	-1E+10	1	-1E+10	1	-1E+10	1
4902554	20	C	08/21/2021	00:56	-136.335	49.553	0	168.20	0	5.9520	0	33.7560	0	26.578	0	166.697	0	-1e10	8	-1e10	8	-1E+10	1	-1E+10	1	-1E+10	1	-1E+10	1	-1E+10	1	-1E+10	1
4902554	20	C	08/21/2021	00:56	-136.335	49.553	0	169.00	0	5.9190	0	33.7590	0	26.584	0	167.489	0	-1e10	8	-1e10	8	-1E+10	1	-1E+10	1	-1E+10	1	-1E+10	1	-1E+10	1	-1E+10	1
4902554	20	C	08/21/2021	00:56	-136.335	49.553	0	169.90	0	5.9190	0	33.7600	0	26.585	0	168.381	0	-1e10	8	-1e10	8	-1E+10	1	-1E+10	1	-1E+10	1	-1E+10	1	-1E+10	1	-1E+10	1
4902554	20	C	08/21/2021	00:56	-136.335	49.553	0	170.80	0	5.9170	0	33.7610	0	26.586	0	169.273	0	-1e10	8	-1e10	8	-1E+10	1	-1E+10	1	-1E+10	1	-1E+10	1	-1E+10	1	-1E+10	1
4902554	20	C	08/21/2021	00:56	-136.335	49.553	0	171.70	0	5.9130	0	33.7610	0	26.586	0	170.164	0	-1e10	8	-1e10	8	-1E+10	1	-1E+10	1	-1E+10	1	-1E+10	1	-1E+10	1	-1E+10	1
4902554	20	C	08/21/2021	00:56	-136.335	49.553	0	172.60	0	5.9150	0	33.7660	0	26.590	0	171.056	0	-1e10	8	-1e10	8	-1E+10	1	-1E+10	1	-1E+10	1	-1E+10	1	-1E+10	1	-1E+10	1
4902554	20	C	08/21/2021	00:56	-136.335	49.553	0	173.60	0	5.9140	0	33.7680	0	26.592	0	172.046	0	-1e10	8	-1e10	8	-1E+10	1	-1E+10	1	-1E+10	1	-1E+10	1	-1E+10	1	-1E+10	1
4902554	20	C	08/21/2021	00:56	-136.335	49.553	0	174.50	0	5.9160	0	33.7670	0	26.591	0	172.938	0	-1e10	8	-1e10	8	-1E+10	1	-1E+10	1	-1E+10	1	-1E+10	1	-1E+10	1	-1E+10	1
4902554	20	C	08/21/2021	00:56	-136.335	49.553	0	175.90	0	5.9070	0	33.7710	0	26.595	0	174.325	0	-1e10	8	-1e10	8	-1E+10	1	-1E+10	1	-1E+10	1	-1E+10	1	-1E+10	1	-1E+10	1
4902554	20	C	08/21/2021	00:56	-136.335	49.553	0	177.40	0	5.9110	0	33.7750	0	26.598	0	175.811	0	-1e10	8	-1e10	8	-1E+10	1	-1E+10	1	-1E+10	1	-1E+10	1	-1E+10	1	-1E+10	1
4902554	20	C	08/21/2021	00:56	-136.335	49.553	0	178.30	0	5.9030	0	33.7770	0	26.600	0	176.702	0	-1e10	8	-1e10	8	-1E+10	1	-1E+10	1	-1E+10	1	-1E+10	1	-1E+10	1	-1E+10	1
4902554	20	C	08/21/2021	00:56	-136.335	49.553	0	179.30	0	5.8930	0	33.7750	0	26.600	0	177.693	0	-1e10	8	-1e10	8	-1E+10	1	-1E+10	1	-1E+10	1	-1E+10	1	-1E+10	1	-1E+10	1
4902554	20	C	08/21/2021	00:56	-136.335	49.553	0	180.20	0	5.8990	0	33.7790	0	26.602	0	178.585	0	-1e10	8	-1e10	8	-1E+10	1	-1E+10	1	-1E+10	1	-1E+10	1	-1E+10	1	-1E+10	1
4902554	20	C	08/21/2021	00:56	-136.335	49.553	0	181.20	0	5.8880	0	33.7820	0	26.606	0	179.575	0	-1e10	8	-1e10	8	-1E+10	1	-1E+10	1	-1E+10	1	-1E+10	1	-1E+10	1	-1E+10	1
4902554	20	C	08/21/2021	00:56	-136.335	49.553	0	182.20	0	5.8700	0	33.7800	0	26.607	0	180.566	0	-1e10	8	-1e10	8	-1E+10	1	-1E+10	1	-1E+10	1	-1E+10	1	-1E+10	1	-1E+10	1
4902554	20	C	08/21/2021	00:56	-136.335	49.553	0	183.20	0	5.8590	0	33.7820	0	26.610	0	181.556	0	-1e10	8	-1e10	8	-1E+10	1	-1E+10	1	-1E+10	1	-1E+10	1	-1E+10	1	-1E+10	1
4902554	20	C	08/21/2021	00:56	-136.335	49.553	0	184.10	0	5.8510	0	33.7820	0	26.611	0	182.448	0	-1e10	8	-1e10	8	-1E+10	1	-1E+10	1	-1E+10	1	-1E+10	1	-1E+10	1	-1E+10	1
4902554	20	C	08/21/2021	00:56	-136.335	49.553	0	185.10	0	5.7990	0	33.7870	0	26.621	0	183.438	0	-1e10	8	-1e10	8	-1E+10	1	-1E+10	1	-1E+10	1	-1E+10	1	-1E+10	1	-1E+10	1
4902554	20	C	08/21/2021	00:56	-136.335	49.553	0	186.10	0	5.7830	0	33.7890	0	26.625	0	184.429	0	-1e10	8	-1e10	8	-1E+10	1	-1E+10	1	-1E+10	1	-1E+10	1	-1E+10	1	-1E+10	1
4902554	20	C	08/21/2021	00:56	-136.335	49.553	0	187.10	0	5.7810	0	33.7900	0	26.626	0	185.420	0	-1e10	8	-1e10	8	-1E+10	1	-1E+10	1	-1E+10	1	-1E+10	1	-1E+10	1	-1E+10	1
4902554	20	C	08/21/2021	00:56	-136.335	49.553	0	188.20	0	5.7720	0	33.7920	0	26.628	0	186.509	0	-1e10	8	-1e10	8	-1E+10	1	-1E+10	1	-1E+10	1	-1E+10	1	-1E+10	1	-1E+10	1
4902554	20	C	08/21/2021	00:56	-136.335	49.553	0	189.20	0	5.7700	0	33.7930	0	26.629	0	187.500	0	-1e10	8	-1e10	8	-1E+10	1	-1E+10	1	-1E+10	1	-1E+10	1	-1E+10	1	-1E+10	1
4902554	20	C	08/21/2021	00:56	-136.335	49.553	0	190.20	0	5.7610	0	33.7930	0	26.631	0	188.490	0	-1e10	8	-1e10	8	-1E+10	1	-1E+10	1	-1E+10	1	-1E+10	1	-1E+10	1	-1E+10	1
4902554	20	C	08/21/2021	00:56	-136.335	49.553	0	191.30	0	5.7490	0	33.7940	0	26.633	0	189.580	0	-1e10	8	-1e10	8	-1E+10	1	-1E+10	1	-1E+10	1	-1E+10	1	-1E+10	1	-1E+10	1
4902554	20	C	08/21/2021	00:56	-136.335	49.553	0	192.30	0	5.7360	0	33.7940	0	26.634	0	190.570	0	-1e10	8	-1e10	8	-1E+10	1	-1E+10	1	-1E+10	1	-1E+10	1	-1E+10	1	-1E+10	1
4902554	20	C	08/21/2021	00:56	-136.335	49.553	0	193.40	0	5.7170	0	33.7970	0	26.639	0	191.660	0	-1e10	8	-1e10	8	-1E+10	1	-1E+10	1	-1E+10	1	-1E+10	1	-1E+10	1	-1E+10	1
4902554	20	C	08/21/2021	00:56	-136.335	49.553	0	194.40	0	5.7030	0	33.7950	0	26.639	0	192.651	0	-1e10	8	-1e10	8	-1E+10	1	-1E+10	1	-1E+10	1	-1E+10	1	-1E+10	1	-1E+10	1
4902554	20	C	08/21/2021	00:56	-136.335	49.553	0	195.40	0	5.6920	0	33.7930	0	26.639	0	193.641	0	-1e10	8	-1e10	8	-1E+10	1	-1E+10	1	-1E+10	1	-1E+10	1	-1E+10	1	-1E+10	1
4902554	20	C	08/21/2021	00:56	-136.335	49.553	0	196.50	0	5.6880	0	33.7930	0	26.640	0	194.731	0	-1e10	8	-1e10	8	-1E+10	1	-1E+10	1	-1E+10	1	-1E+10	1	-1E+10	1	-1E+10	1
4902554	20	C	08/21/2021	00:56	-136.335	49.553	0	197.50	0	5.6830	0	33.7930	0	26.640	0	195.721	0	-1e10	8	-1e10	8	-1E+10	1	-1E+10	1	-1E+10	1	-1E+10	1	-1E+10	1	-1E+10	1
4902554	20	C	08/21/2021	00:56	-136.335	49.553	0	198.50	0	5.6490	0	33.7950	0	26.646	0	196.712	0	-1e10	8	-1e10	8	-1E+10	1	-1E+10	1	-1E+10	1	-1E+10	1	-1E+10	1	-1E+10	1
4902554	20	C	08/21/2021	00:56	-136.335	49.553	0	199.50	0	5.6300	0	33.7960	0	26.649	0	197.702	0	-1e10	8	-1e10	8	-1E+10	1	-1E+10	1	-1E+10	1	-1E+10	1	-1E+10	1	-1E+10	1
4902554	20	C	08/21/2021	00:56	-136.335	49.553	0	200.60	0	5.6050	0	33.7970	0	26.653	0	198.792	0	-1e10	8	-1e10	8	-1E+10	1	-1E+10	1	-1E+10	1	-1E+10	1	-1E+10	1	-1E+10	1
4902554	20	C	08/21/2021	00:56	-136.335	49.553	0	201.60	0	5.5790	0	33.8040	0	26.661	0	199.782	0	-1e10	8	-1e10	8	-1E+10	1	-1E+10	1	-1E+10	1	-1E+10	1	-1E+10	1	-1E+10	1
4902554	20	C	08/21/2021	00:56	-136.335	49.553	0	202.70	0	5.5650	0	33.8060	0	26.665	0	200.872	0	-1e10	8	-1e10	8	-1E+10	1	-1E+10	1	-1E+10	1	-1E+10	1	-1E+10	1	-1E+10	1
4902554	20	C	08/21/2021	00:56	-136.335	49.553	0	203.70	0	5.5640	0	33.8070	0	26.666	0	201.862	0	-1e10	8	-1e10	8	-1E+10	1	-1E+10	1	-1E+10	1	-1E+10	1	-1E+10	1	-1E+10	1
4902554	20	C	08/21/2021	00:56	-136.335	49.553	0	204.70	0	5.5640	0	33.8070	0	26.666	0	202.853	0	-1e10	8	-1e10	8	-1E+10	1	-1E+10	1	-1E+10	1	-1E+10	1	-1E+10	1	-1E+10	1
4902554	20	C	08/21/2021	00:56	-136.335	49.553	0	205.70	0	5.5650	0	33.8070	0	26.666	0	203.843	0	-1e10	8	-1e10	8	-1E+10	1	-1E+10	1	-1E+10	1	-1E+10	1	-1E+10	1	-1E+10	1
4902554	20	C	08/21/2021	00:56	-136.335	49.553	0	206.80	0	5.5650	0	33.8080	0	26.666	0	204.933	0	-1e10	8	-1e10	8	-1E+10	1	-1E+10	1	-1E+10	1	-1E+10	1	-1E+10	1	-1E+10	1
4902554	20	C	08/21/2021	00:56	-136.335	49.553	0	207.80	0	5.5660	0	33.8090	0	26.667	0	205.923	0	-1e10	8	-1e10	8	-1E+10	1	-1E+10	1	-1E+10	1	-1E+10	1	-1E+10	1	-1E+10	1
4902554	20	C	08/21/2021	00:56	-136.335	49.553	0	208.80	0	5.5640	0	33.8100	0	26.668	0	206.914	0	-1e10	8	-1e10	8	-1E+10	1	-1E+10	1	-1E+10	1	-1E+10	1	-1E+10	1	-1E+10	1
4902554	20	C	08/21/2021	00:56	-136.335	49.553	0	209.80	0	5.5550	0	33.8110	0	26.670	0	207.904	0	-1e10	8	-1e10	8	-1E+10	1	-1E+10	1	-1E+10	1	-1E+10	1	-1E+10	1	-1E+10	1
4902554	20	C	08/21/2021	00:56	-136.335	49.553	0	210.80	0	5.5510	0	33.8130	0	26.672	0	208.895	0	-1e10	8	-1e10	8	-1E+10	1	-1E+10	1	-1E+10	1	-1E+10	1	-1E+10	1	-1E+10	1
4902554	20	C	08/21/2021	00:56	-136.335	49.553	0	211.80	0	5.5430	0	33.8140	0	26.674	0	209.885	0	-1e10	8	-1e10	8	-1E+10	1	-1E+10	1	-1E+10	1	-1E+10	1	-1E+10	1	-1E+10	1
4902554	20	C	08/21/2021	00:56	-136.335	49.553	0	212.80	0	5.5380	0	33.8140	0	26.674	0	210.876	0	-1e10	8	-1e10	8	-1E+10	1	-1E+10	1	-1E+10	1	-1E+10	1	-1E+10	1	-1E+10	1
4902554	20	C	08/21/2021	00:56	-136.335	49.553	0	213.80	0	5.5230	0	33.8160	0	26.678	0	211.866	0	-1e10	8	-1e10	8	-1E+10	1	-1E+10	1	-1E+10	1	-1E+10	1	-1E+10	1	-1E+10	1
4902554	20	C	08/21/2021	00:56	-136.335	49.553	0	214.80	0	5.5150	0	33.8150	0	26.678	0	212.857	0	-1e10	8	-1e10	8	-1E+10	1	-1E+10	1	-1E+10	1	-1E+10	1	-1E+10	1	-1E+10	1
4902554	20	C	08/21/2021	00:56	-136.335	49.553	0	215.70	0	5.5010	0	33.8190	0	26.683	0	213.748	0	-1e10	8	-1e10	8	-1E+10	1	-1E+10	1	-1E+10	1	-1E+10	1	-1E+10	1	-1E+10	1
4902554	20	C	08/21/2021	00:56	-136.335	49.553	0	216.70	0	5.4630	0	33.8140	0	26.683	0	214.738	0	-1e10	8	-1e10	8	-1E+10	1	-1E+10	1	-1E+10	1	-1E+10	1	-1E+10	1	-1E+10	1
4902554	20	C	08/21/2021	00:56	-136.335	49.553	0	217.70	0	5.4390	0	33.8120	0	26.685	0	215.729	0	-1e10	8	-1e10	8	-1E+10	1	-1E+10	1	-1E+10	1	-1E+10	1	-1E+10	1	-1E+10	1
4902554	20	C	08/21/2021	00:56	-136.335	49.553	0	218.70	0	5.3910	0	33.8160	0	26.693	0	216.719	0	-1e10	8	-1e10	8	-1E+10	1	-1E+10	1	-1E+10	1	-1E+10	1	-1E+10	1	-1E+10	1
4902554	20	C	08/21/2021	00:56	-136.335	49.553	0	219.70	0	5.3870	0	33.8130	0	26.692	0	217.710	0	-1e10	8	-1e10	8	-1E+10	1	-1E+10	1	-1E+10	1	-1E+10	1	-1E+10	1	-1E+10	1
4902554	20	C	08/21/2021	00:56	-136.335	49.553	0	220.60	0	5.4010	0	33.8170	0	26.693	0	218.601	0	-1e10	8	-1e10	8	-1E+10	1	-1E+10	1	-1E+10	1	-1E+10	1	-1E+10	1	-1E+10	1
4902554	20	C	08/21/2021	00:56	-136.335	49.553	0	221.60	0	5.3990	0	33.8200	0	26.696	0	219.591	0	-1e10	8	-1e10	8	-1E+10	1	-1E+10	1	-1E+10	1	-1E+10	1	-1E+10	1	-1E+10	1
4902554	20	C	08/21/2021	00:56	-136.335	49.553	0	222.60	0	5.3630	0	33.8190	0	26.699	0	220.582	0	-1e10	8	-1e10	8	-1E+10	1	-1E+10	1	-1E+10	1	-1E+10	1	-1E+10	1	-1E+10	1
4902554	20	C	08/21/2021	00:56	-136.335	49.553	0	223.60	0	5.3580	0	33.8130	0	26.695	0	221.572	0	-1e10	8	-1e10	8	-1E+10	1	-1E+10	1	-1E+10	1	-1E+10	1	-1E+10	1	-1E+10	1
4902554	20	C	08/21/2021	00:56	-136.335	49.553	0	224.60	0	5.3620	0	33.8160	0	26.697	0	222.563	0	-1e10	8	-1e10	8	-1E+10	1	-1E+10	1	-1E+10	1	-1E+10	1	-1E+10	1	-1E+10	1
4902554	20	C	08/21/2021	00:56	-136.335	49.553	0	225.60	0	5.3390	0	33.8150	0	26.699	0	223.553	0	-1e10	8	-1e10	8	-1E+10	1	-1E+10	1	-1E+10	1	-1E+10	1	-1E+10	1	-1E+10	1
4902554	20	C	08/21/2021	00:56	-136.335	49.553	0	226.50	0	5.3030	0	33.8170	0	26.705	0	224.444	0	-1e10	8	-1e10	8	-1E+10	1	-1E+10	1	-1E+10	1	-1E+10	1	-1E+10	1	-1E+10	1
4902554	20	C	08/21/2021	00:56	-136.335	49.553	0	227.50	0	5.2630	0	33.8110	0	26.705	0	225.435	0	-1e10	8	-1e10	8	-1E+10	1	-1E+10	1	-1E+10	1	-1E+10	1	-1E+10	1	-1E+10	1
4902554	20	C	08/21/2021	00:56	-136.335	49.553	0	228.50	0	5.2330	0	33.8140	0	26.710	0	226.425	0	-1e10	8	-1e10	8	-1E+10	1	-1E+10	1	-1E+10	1	-1E+10	1	-1E+10	1	-1E+10	1
4902554	20	C	08/21/2021	00:56	-136.335	49.553	0	229.50	0	5.2360	0	33.8100	0	26.707	0	227.415	0	-1e10	8	-1e10	8	-1E+10	1	-1E+10	1	-1E+10	1	-1E+10	1	-1E+10	1	-1E+10	1
4902554	20	C	08/21/2021	00:56	-136.335	49.553	0	230.50	0	5.2280	0	33.8100	0	26.708	0	228.406	0	-1e10	8	-1e10	8	-1E+10	1	-1E+10	1	-1E+10	1	-1E+10	1	-1E+10	1	-1E+10	1
4902554	20	C	08/21/2021	00:56	-136.335	49.553	0	231.50	0	5.2210	0	33.8110	0	26.709	0	229.396	0	-1e10	8	-1e10	8	-1E+10	1	-1E+10	1	-1E+10	1	-1E+10	1	-1E+10	1	-1E+10	1
4902554	20	C	08/21/2021	00:56	-136.335	49.553	0	232.50	0	5.2150	0	33.8140	0	26.713	0	230.387	0	-1e10	8	-1e10	8	-1E+10	1	-1E+10	1	-1E+10	1	-1E+10	1	-1E+10	1	-1E+10	1
4902554	20	C	08/21/2021	00:56	-136.335	49.553	0	233.90	0	5.2070	0	33.8130	0	26.713	0	231.773	0	-1e10	8	-1e10	8	-1E+10	1	-1E+10	1	-1E+10	1	-1E+10	1	-1E+10	1	-1E+10	1
4902554	20	C	08/21/2021	00:56	-136.335	49.553	0	235.90	0	5.2030	0	33.8200	0	26.719	0	233.754	0	-1e10	8	-1e10	8	-1E+10	1	-1E+10	1	-1E+10	1	-1E+10	1	-1E+10	1	-1E+10	1
4902554	20	C	08/21/2021	00:56	-136.335	49.553	0	237.50	0	5.1770	0	33.8220	0	26.723	0	235.338	0	-1e10	8	-1e10	8	-1E+10	1	-1E+10	1	-1E+10	1	-1E+10	1	-1E+10	1	-1E+10	1
4902554	20	C	08/21/2021	00:56	-136.335	49.553	0	238.90	0	5.1540	0	33.8190	0	26.724	0	236.725	0	-1e10	8	-1e10	8	-1E+10	1	-1E+10	1	-1E+10	1	-1E+10	1	-1E+10	1	-1E+10	1
4902554	20	C	08/21/2021	00:56	-136.335	49.553	0	240.40	0	5.1440	0	33.8190	0	26.725	0	238.210	0	-1e10	8	-1e10	8	-1E+10	1	-1E+10	1	-1E+10	1	-1E+10	1	-1E+10	1	-1E+10	1
4902554	20	C	08/21/2021	00:56	-136.335	49.553	0	241.40	0	5.1380	0	33.8200	0	26.726	0	239.200	0	-1e10	8	-1e10	8	-1E+10	1	-1E+10	1	-1E+10	1	-1E+10	1	-1E+10	1	-1E+10	1
4902554	20	C	08/21/2021	00:56	-136.335	49.553	0	242.40	0	5.1110	0	33.8220	0	26.731	0	240.191	0	-1e10	8	-1e10	8	-1E+10	1	-1E+10	1	-1E+10	1	-1E+10	1	-1E+10	1	-1E+10	1
4902554	20	C	08/21/2021	00:56	-136.335	49.553	0	243.90	0	5.1010	0	33.8220	0	26.732	0	241.676	0	-1e10	8	-1e10	8	-1E+10	1	-1E+10	1	-1E+10	1	-1E+10	1	-1E+10	1	-1E+10	1
4902554	20	C	08/21/2021	00:56	-136.335	49.553	0	245.50	0	5.0940	0	33.8230	0	26.734	0	243.261	0	-1e10	8	-1e10	8	-1E+10	1	-1E+10	1	-1E+10	1	-1E+10	1	-1E+10	1	-1E+10	1
4902554	20	C	08/21/2021	00:56	-136.335	49.553	0	246.50	0	5.0900	0	33.8270	0	26.737	0	244.251	0	-1e10	8	-1e10	8	-1E+10	1	-1E+10	1	-1E+10	1	-1E+10	1	-1E+10	1	-1E+10	1
4902554	20	C	08/21/2021	00:56	-136.335	49.553	0	247.50	0	5.0870	0	33.8270	0	26.738	0	245.241	0	-1e10	8	-1e10	8	-1E+10	1	-1E+10	1	-1E+10	1	-1E+10	1	-1E+10	1	-1E+10	1
4902554	20	C	08/21/2021	00:56	-136.335	49.553	0	248.50	0	5.0730	0	33.8280	0	26.740	0	246.232	0	-1e10	8	-1e10	8	-1E+10	1	-1E+10	1	-1E+10	1	-1E+10	1	-1E+10	1	-1E+10	1
4902554	20	C	08/21/2021	00:56	-136.335	49.553	0	249.60	0	5.0590	0	33.8290	0	26.742	0	247.321	0	-1e10	8	-1e10	8	-1E+10	1	-1E+10	1	-1E+10	1	-1E+10	1	-1E+10	1	-1E+10	1
4902554	20	C	08/21/2021	00:56	-136.335	49.553	0	250.60	0	5.0570	0	33.8300	0	26.744	0	248.311	0	-1e10	8	-1e10	8	-1E+10	1	-1E+10	1	-1E+10	1	-1E+10	1	-1E+10	1	-1E+10	1
4902554	20	C	08/21/2021	00:56	-136.335	49.553	0	251.60	0	5.0550	0	33.8320	0	26.745	0	249.301	0	-1e10	8	-1e10	8	-1E+10	1	-1E+10	1	-1E+10	1	-1E+10	1	-1E+10	1	-1E+10	1
4902554	20	C	08/21/2021	00:56	-136.335	49.553	0	252.70	0	5.0520	0	33.8320	0	26.746	0	250.391	0	-1e10	8	-1e10	8	-1E+10	1	-1E+10	1	-1E+10	1	-1E+10	1	-1E+10	1	-1E+10	1
4902554	20	C	08/21/2021	00:56	-136.335	49.553	0	253.70	0	5.0450	0	33.8340	0	26.748	0	251.381	0	-1e10	8	-1e10	8	-1E+10	1	-1E+10	1	-1E+10	1	-1E+10	1	-1E+10	1	-1E+10	1
4902554	20	C	08/21/2021	00:56	-136.335	49.553	0	254.80	0	5.0430	0	33.8370	0	26.751	0	252.470	0	-1e10	8	-1e10	8	-1E+10	1	-1E+10	1	-1E+10	1	-1E+10	1	-1E+10	1	-1E+10	1
4902554	20	C	08/21/2021	00:56	-136.335	49.553	0	255.90	0	5.0390	0	33.8360	0	26.750	0	253.559	0	-1e10	8	-1e10	8	-1E+10	1	-1E+10	1	-1E+10	1	-1E+10	1	-1E+10	1	-1E+10	1
4902554	20	C	08/21/2021	00:56	-136.335	49.553	0	256.90	0	5.0340	0	33.8370	0	26.752	0	254.550	0	-1e10	8	-1e10	8	-1E+10	1	-1E+10	1	-1E+10	1	-1E+10	1	-1E+10	1	-1E+10	1
4902554	20	C	08/21/2021	00:56	-136.335	49.553	0	258.00	0	5.0200	0	33.8370	0	26.753	0	255.639	0	-1e10	8	-1e10	8	-1E+10	1	-1E+10	1	-1E+10	1	-1E+10	1	-1E+10	1	-1E+10	1
4902554	20	C	08/21/2021	00:56	-136.335	49.553	0	259.00	0	5.0100	0	33.8400	0	26.757	0	256.629	0	-1e10	8	-1e10	8	-1E+10	1	-1E+10	1	-1E+10	1	-1E+10	1	-1E+10	1	-1E+10	1
4902554	20	C	08/21/2021	00:56	-136.335	49.553	0	260.10	0	5.0050	0	33.8410	0	26.758	0	257.718	0	-1e10	8	-1e10	8	-1E+10	1	-1E+10	1	-1E+10	1	-1E+10	1	-1E+10	1	-1E+10	1
4902554	20	C	08/21/2021	00:56	-136.335	49.553	0	261.20	0	4.9990	0	33.8400	0	26.758	0	258.808	0	-1e10	8	-1e10	8	-1E+10	1	-1E+10	1	-1E+10	1	-1E+10	1	-1E+10	1	-1E+10	1
4902554	20	C	08/21/2021	00:56	-136.335	49.553	0	262.30	0	4.9970	0	33.8340	0	26.754	0	259.897	0	-1e10	8	-1e10	8	-1E+10	1	-1E+10	1	-1E+10	1	-1E+10	1	-1E+10	1	-1E+10	1
4902554	20	C	08/21/2021	00:56	-136.335	49.553	0	263.40	0	4.9860	0	33.8390	0	26.759	0	260.986	0	-1e10	8	-1e10	8	-1E+10	1	-1E+10	1	-1E+10	1	-1E+10	1	-1E+10	1	-1E+10	1
4902554	20	C	08/21/2021	00:56	-136.335	49.553	0	264.50	0	4.9930	0	33.8410	0	26.760	0	262.075	0	-1e10	8	-1e10	8	-1E+10	1	-1E+10	1	-1E+10	1	-1E+10	1	-1E+10	1	-1E+10	1
4902554	20	C	08/21/2021	00:56	-136.335	49.553	0	265.60	0	4.9920	0	33.8400	0	26.759	0	263.165	0	-1e10	8	-1e10	8	-1E+10	1	-1E+10	1	-1E+10	1	-1E+10	1	-1E+10	1	-1E+10	1
4902554	20	C	08/21/2021	00:56	-136.335	49.553	0	266.60	0	4.9910	0	33.8410	0	26.760	0	264.155	0	-1e10	8	-1e10	8	-1E+10	1	-1E+10	1	-1E+10	1	-1E+10	1	-1E+10	1	-1E+10	1
4902554	20	C	08/21/2021	00:56	-136.335	49.553	0	267.70	0	4.9700	0	33.8470	0	26.767	0	265.244	0	-1e10	8	-1e10	8	-1E+10	1	-1E+10	1	-1E+10	1	-1E+10	1	-1E+10	1	-1E+10	1
4902554	20	C	08/21/2021	00:56	-136.335	49.553	0	268.70	0	4.9610	0	33.8490	0	26.770	0	266.234	0	-1e10	8	-1e10	8	-1E+10	1	-1E+10	1	-1E+10	1	-1E+10	1	-1E+10	1	-1E+10	1
4902554	20	C	08/21/2021	00:56	-136.335	49.553	0	269.70	0	4.9560	0	33.8490	0	26.770	0	267.224	0	-1e10	8	-1e10	8	-1E+10	1	-1E+10	1	-1E+10	1	-1E+10	1	-1E+10	1	-1E+10	1
4902554	20	C	08/21/2021	00:56	-136.335	49.553	0	270.70	0	4.9540	0	33.8490	0	26.770	0	268.215	0	-1e10	8	-1e10	8	-1E+10	1	-1E+10	1	-1E+10	1	-1E+10	1	-1E+10	1	-1E+10	1
4902554	20	C	08/21/2021	00:56	-136.335	49.553	0	272.00	0	4.9450	0	33.8510	0	26.773	0	269.502	0	-1e10	8	-1e10	8	-1E+10	1	-1E+10	1	-1E+10	1	-1E+10	1	-1E+10	1	-1E+10	1
4902554	20	C	08/21/2021	00:56	-136.335	49.553	0	273.20	0	4.9320	0	33.8510	0	26.775	0	270.690	0	-1e10	8	-1e10	8	-1E+10	1	-1E+10	1	-1E+10	1	-1E+10	1	-1E+10	1	-1E+10	1
4902554	20	C	08/21/2021	00:56	-136.335	49.553	0	274.00	0	4.9290	0	33.8520	0	26.776	0	271.482	0	-1e10	8	-1e10	8	-1E+10	1	-1E+10	1	-1E+10	1	-1E+10	1	-1E+10	1	-1E+10	1
4902554	20	C	08/21/2021	00:56	-136.335	49.553	0	274.80	0	4.9060	0	33.8540	0	26.780	0	272.274	0	-1e10	8	-1e10	8	-1E+10	1	-1E+10	1	-1E+10	1	-1E+10	1	-1E+10	1	-1E+10	1
4902554	20	C	08/21/2021	00:56	-136.335	49.553	0	276.00	0	4.8990	0	33.8550	0	26.781	0	273.462	0	-1e10	8	-1e10	8	-1E+10	1	-1E+10	1	-1E+10	1	-1E+10	1	-1E+10	1	-1E+10	1
4902554	20	C	08/21/2021	00:56	-136.335	49.553	0	277.20	0	4.8960	0	33.8570	0	26.783	0	274.651	0	-1e10	8	-1e10	8	-1E+10	1	-1E+10	1	-1E+10	1	-1E+10	1	-1E+10	1	-1E+10	1
4902554	20	C	08/21/2021	00:56	-136.335	49.553	0	278.00	0	4.8930	0	33.8570	0	26.784	0	275.443	0	-1e10	8	-1e10	8	-1E+10	1	-1E+10	1	-1E+10	1	-1E+10	1	-1E+10	1	-1E+10	1
4902554	20	C	08/21/2021	00:56	-136.335	49.553	0	278.80	0	4.8870	0	33.8570	0	26.784	0	276.235	0	-1e10	8	-1e10	8	-1E+10	1	-1E+10	1	-1E+10	1	-1E+10	1	-1E+10	1	-1E+10	1
4902554	20	C	08/21/2021	00:56	-136.335	49.553	0	280.00	0	4.8830	0	33.8580	0	26.786	0	277.423	0	-1e10	8	-1e10	8	-1E+10	1	-1E+10	1	-1E+10	1	-1E+10	1	-1E+10	1	-1E+10	1
4902554	20	C	08/21/2021	00:56	-136.335	49.553	0	281.10	0	4.8800	0	33.8590	0	26.787	0	278.512	0	-1e10	8	-1e10	8	-1E+10	1	-1E+10	1	-1E+10	1	-1E+10	1	-1E+10	1	-1E+10	1
4902554	20	C	08/21/2021	00:56	-136.335	49.553	0	281.90	0	4.8750	0	33.8600	0	26.788	0	279.304	0	-1e10	8	-1e10	8	-1E+10	1	-1E+10	1	-1E+10	1	-1E+10	1	-1E+10	1	-1E+10	1
4902554	20	C	08/21/2021	00:56	-136.335	49.553	0	282.70	0	4.8640	0	33.8590	0	26.789	0	280.096	0	-1e10	8	-1e10	8	-1E+10	1	-1E+10	1	-1E+10	1	-1E+10	1	-1E+10	1	-1E+10	1
4902554	20	C	08/21/2021	00:56	-136.335	49.553	0	283.90	0	4.8460	0	33.8590	0	26.791	0	281.284	0	-1e10	8	-1e10	8	-1E+10	1	-1E+10	1	-1E+10	1	-1E+10	1	-1E+10	1	-1E+10	1
4902554	20	C	08/21/2021	00:56	-136.335	49.553	0	285.10	0	4.8420	0	33.8580	0	26.790	0	282.472	0	-1e10	8	-1e10	8	-1E+10	1	-1E+10	1	-1E+10	1	-1E+10	1	-1E+10	1	-1E+10	1
4902554	20	C	08/21/2021	00:56	-136.335	49.553	0	285.90	0	4.8410	0	33.8570	0	26.790	0	283.265	0	-1e10	8	-1e10	8	-1E+10	1	-1E+10	1	-1E+10	1	-1E+10	1	-1E+10	1	-1E+10	1
4902554	20	C	08/21/2021	00:56	-136.335	49.553	0	286.70	0	4.8400	0	33.8570	0	26.790	0	284.057	0	-1e10	8	-1e10	8	-1E+10	1	-1E+10	1	-1E+10	1	-1E+10	1	-1E+10	1	-1E+10	1
4902554	20	C	08/21/2021	00:56	-136.335	49.553	0	287.90	0	4.8340	0	33.8570	0	26.790	0	285.245	0	-1e10	8	-1e10	8	-1E+10	1	-1E+10	1	-1E+10	1	-1E+10	1	-1E+10	1	-1E+10	1
4902554	20	C	08/21/2021	00:56	-136.335	49.553	0	289.10	0	4.8320	0	33.8590	0	26.792	0	286.433	0	-1e10	8	-1e10	8	-1E+10	1	-1E+10	1	-1E+10	1	-1E+10	1	-1E+10	1	-1E+10	1
4902554	20	C	08/21/2021	00:56	-136.335	49.553	0	289.90	0	4.8110	0	33.8630	0	26.798	0	287.225	0	-1e10	8	-1e10	8	-1E+10	1	-1E+10	1	-1E+10	1	-1E+10	1	-1E+10	1	-1E+10	1
4902554	20	C	08/21/2021	00:56	-136.335	49.553	0	290.70	0	4.8030	0	33.8650	0	26.800	0	288.017	0	-1e10	8	-1e10	8	-1E+10	1	-1E+10	1	-1E+10	1	-1E+10	1	-1E+10	1	-1E+10	1
4902554	20	C	08/21/2021	00:56	-136.335	49.553	0	291.90	0	4.7830	0	33.8660	0	26.803	0	289.205	0	-1e10	8	-1e10	8	-1E+10	1	-1E+10	1	-1E+10	1	-1E+10	1	-1E+10	1	-1E+10	1
4902554	20	C	08/21/2021	00:56	-136.335	49.553	0	293.20	0	4.7660	0	33.8670	0	26.806	0	290.492	0	-1e10	8	-1e10	8	-1E+10	1	-1E+10	1	-1E+10	1	-1E+10	1	-1E+10	1	-1E+10	1
4902554	20	C	08/21/2021	00:56	-136.335	49.553	0	294.00	0	4.7630	0	33.8680	0	26.807	0	291.284	0	-1e10	8	-1e10	8	-1E+10	1	-1E+10	1	-1E+10	1	-1E+10	1	-1E+10	1	-1E+10	1
4902554	20	C	08/21/2021	00:56	-136.335	49.553	0	294.90	0	4.7600	0	33.8680	0	26.807	0	292.175	0	-1e10	8	-1e10	8	-1E+10	1	-1E+10	1	-1E+10	1	-1E+10	1	-1E+10	1	-1E+10	1
4902554	20	C	08/21/2021	00:56	-136.335	49.553	0	295.70	0	4.7560	0	33.8700	0	26.809	0	292.967	0	-1e10	8	-1e10	8	-1E+10	1	-1E+10	1	-1E+10	1	-1E+10	1	-1E+10	1	-1E+10	1
4902554	20	C	08/21/2021	00:56	-136.335	49.553	0	296.90	0	4.7430	0	33.8710	0	26.812	0	294.155	0	-1e10	8	-1e10	8	-1E+10	1	-1E+10	1	-1E+10	1	-1E+10	1	-1E+10	1	-1E+10	1
4902554	20	C	08/21/2021	00:56	-136.335	49.553	0	298.30	0	4.7300	0	33.8740	0	26.815	0	295.541	0	-1e10	8	-1e10	8	-1E+10	1	-1E+10	1	-1E+10	1	-1E+10	1	-1E+10	1	-1E+10	1
4902554	20	C	08/21/2021	00:56	-136.335	49.553	0	299.10	0	4.7260	0	33.8740	0	26.816	0	296.333	0	-1e10	8	-1e10	8	-1E+10	1	-1E+10	1	-1E+10	1	-1E+10	1	-1E+10	1	-1E+10	1
4902554	20	C	08/21/2021	00:56	-136.335	49.553	0	299.90	0	4.7250	0	33.8740	0	26.816	0	297.125	0	-1e10	8	-1e10	8	-1E+10	1	-1E+10	1	-1E+10	1	-1E+10	1	-1E+10	1	-1E+10	1
4902554	20	C	08/21/2021	00:56	-136.335	49.553	0	300.80	0	4.7200	0	33.8750	0	26.817	0	298.016	0	-1e10	8	-1e10	8	-1E+10	1	-1E+10	1	-1E+10	1	-1E+10	1	-1E+10	1	-1E+10	1
4902554	20	C	08/21/2021	00:56	-136.335	49.553	0	301.60	0	4.7160	0	33.8760	0	26.819	0	298.809	0	-1e10	8	-1e10	8	-1E+10	1	-1E+10	1	-1E+10	1	-1E+10	1	-1E+10	1	-1E+10	1
4902554	20	C	08/21/2021	00:56	-136.335	49.553	0	302.90	0	4.7130	0	33.8760	0	26.819	0	300.096	0	-1e10	8	-1e10	8	-1E+10	1	-1E+10	1	-1E+10	1	-1E+10	1	-1E+10	1	-1E+10	1
4902554	20	C	08/21/2021	00:56	-136.335	49.553	0	304.10	0	4.7110	0	33.8770	0	26.820	0	301.284	0	-1e10	8	-1e10	8	-1E+10	1	-1E+10	1	-1E+10	1	-1E+10	1	-1E+10	1	-1E+10	1
4902554	20	C	08/21/2021	00:56	-136.335	49.553	0	304.90	0	4.7130	0	33.8780	0	26.821	0	302.076	0	-1e10	8	-1e10	8	-1E+10	1	-1E+10	1	-1E+10	1	-1E+10	1	-1E+10	1	-1E+10	1
4902554	20	C	08/21/2021	00:56	-136.335	49.553	0	305.80	0	4.7130	0	33.8790	0	26.821	0	302.967	0	-1e10	8	-1e10	8	-1E+10	1	-1E+10	1	-1E+10	1	-1E+10	1	-1E+10	1	-1E+10	1
4902554	20	C	08/21/2021	00:56	-136.335	49.553	0	306.60	0	4.7120	0	33.8800	0	26.822	0	303.759	0	-1e10	8	-1e10	8	-1E+10	1	-1E+10	1	-1E+10	1	-1E+10	1	-1E+10	1	-1E+10	1
4902554	20	C	08/21/2021	00:56	-136.335	49.553	0	307.90	0	4.7120	0	33.8820	0	26.824	0	305.046	0	-1e10	8	-1e10	8	-1E+10	1	-1E+10	1	-1E+10	1	-1E+10	1	-1E+10	1	-1E+10	1
4902554	20	C	08/21/2021	00:56	-136.335	49.553	0	309.10	0	4.7110	0	33.8850	0	26.826	0	306.234	0	-1e10	8	-1e10	8	-1E+10	1	-1E+10	1	-1E+10	1	-1E+10	1	-1E+10	1	-1E+10	1
4902554	20	C	08/21/2021	00:56	-136.335	49.553	0	309.90	0	4.7030	0	33.8860	0	26.828	0	307.026	0	-1e10	8	-1e10	8	-1E+10	1	-1E+10	1	-1E+10	1	-1E+10	1	-1E+10	1	-1E+10	1
4902554	20	C	08/21/2021	00:56	-136.335	49.553	0	310.80	0	4.7000	0	33.8870	0	26.829	0	307.917	0	-1e10	8	-1e10	8	-1E+10	1	-1E+10	1	-1E+10	1	-1E+10	1	-1E+10	1	-1E+10	1
4902554	20	C	08/21/2021	00:56	-136.335	49.553	0	311.60	0	4.6910	0	33.8880	0	26.831	0	308.709	0	-1e10	8	-1e10	8	-1E+10	1	-1E+10	1	-1E+10	1	-1E+10	1	-1E+10	1	-1E+10	1
4902554	20	C	08/21/2021	00:56	-136.335	49.553	0	312.90	0	4.6780	0	33.8910	0	26.835	0	309.995	0	-1e10	8	-1e10	8	-1E+10	1	-1E+10	1	-1E+10	1	-1E+10	1	-1E+10	1	-1E+10	1
4902554	20	C	08/21/2021	00:56	-136.335	49.553	0	314.10	0	4.6710	0	33.8920	0	26.836	0	311.183	0	-1e10	8	-1e10	8	-1E+10	1	-1E+10	1	-1E+10	1	-1E+10	1	-1E+10	1	-1E+10	1
4902554	20	C	08/21/2021	00:56	-136.335	49.553	0	315.00	0	4.6670	0	33.8930	0	26.838	0	312.074	0	-1e10	8	-1e10	8	-1E+10	1	-1E+10	1	-1E+10	1	-1E+10	1	-1E+10	1	-1E+10	1
4902554	20	C	08/21/2021	00:56	-136.335	49.553	0	315.80	0	4.6640	0	33.8940	0	26.839	0	312.866	0	-1e10	8	-1e10	8	-1E+10	1	-1E+10	1	-1E+10	1	-1E+10	1	-1E+10	1	-1E+10	1
4902554	20	C	08/21/2021	00:56	-136.335	49.553	0	316.60	0	4.6580	0	33.8950	0	26.840	0	313.658	0	-1e10	8	-1e10	8	-1E+10	1	-1E+10	1	-1E+10	1	-1E+10	1	-1E+10	1	-1E+10	1
4902554	20	C	08/21/2021	00:56	-136.335	49.553	0	317.90	0	4.6530	0	33.8950	0	26.841	0	314.945	0	-1e10	8	-1e10	8	-1E+10	1	-1E+10	1	-1E+10	1	-1E+10	1	-1E+10	1	-1E+10	1
4902554	20	C	08/21/2021	00:56	-136.335	49.553	0	319.10	0	4.6490	0	33.8960	0	26.842	0	316.133	0	-1e10	8	-1e10	8	-1E+10	1	-1E+10	1	-1E+10	1	-1E+10	1	-1E+10	1	-1E+10	1
4902554	20	C	08/21/2021	00:56	-136.335	49.553	0	320.00	0	4.6420	0	33.8980	0	26.844	0	317.024	0	-1e10	8	-1e10	8	-1E+10	1	-1E+10	1	-1E+10	1	-1E+10	1	-1E+10	1	-1E+10	1
4902554	20	C	08/21/2021	00:56	-136.335	49.553	0	320.80	0	4.6320	0	33.9000	0	26.847	0	317.816	0	-1e10	8	-1e10	8	-1E+10	1	-1E+10	1	-1E+10	1	-1E+10	1	-1E+10	1	-1E+10	1
4902554	20	C	08/21/2021	00:56	-136.335	49.553	0	321.70	0	4.6310	0	33.9000	0	26.847	0	318.707	0	-1e10	8	-1e10	8	-1E+10	1	-1E+10	1	-1E+10	1	-1E+10	1	-1E+10	1	-1E+10	1
4902554	20	C	08/21/2021	00:56	-136.335	49.553	0	322.90	0	4.6260	0	33.9010	0	26.848	0	319.895	0	-1e10	8	-1e10	8	-1E+10	1	-1E+10	1	-1E+10	1	-1E+10	1	-1E+10	1	-1E+10	1
4902554	20	C	08/21/2021	00:56	-136.335	49.553	0	324.20	0	4.6220	0	33.9030	0	26.851	0	321.182	0	-1e10	8	-1e10	8	-1E+10	1	-1E+10	1	-1E+10	1	-1E+10	1	-1E+10	1	-1E+10	1
4902554	20	C	08/21/2021	00:56	-136.335	49.553	0	325.00	0	4.6210	0	33.9030	0	26.851	0	321.974	0	-1e10	8	-1e10	8	-1E+10	1	-1E+10	1	-1E+10	1	-1E+10	1	-1E+10	1	-1E+10	1
4902554	20	C	08/21/2021	00:56	-136.335	49.553	0	325.90	0	4.6190	0	33.9040	0	26.852	0	322.865	0	-1e10	8	-1e10	8	-1E+10	1	-1E+10	1	-1E+10	1	-1E+10	1	-1E+10	1	-1E+10	1
4902554	20	C	08/21/2021	00:56	-136.335	49.553	0	326.70	0	4.6150	0	33.9040	0	26.852	0	323.657	0	-1e10	8	-1e10	8	-1E+10	1	-1E+10	1	-1E+10	1	-1E+10	1	-1E+10	1	-1E+10	1
4902554	20	C	08/21/2021	00:56	-136.335	49.553	0	327.90	0	4.6120	0	33.9050	0	26.853	0	324.844	0	-1e10	8	-1e10	8	-1E+10	1	-1E+10	1	-1E+10	1	-1E+10	1	-1E+10	1	-1E+10	1
4902554	20	C	08/21/2021	00:56	-136.335	49.553	0	329.20	0	4.6060	0	33.9080	0	26.856	0	326.131	0	-1e10	8	-1e10	8	-1E+10	1	-1E+10	1	-1E+10	1	-1E+10	1	-1E+10	1	-1E+10	1
4902554	20	C	08/21/2021	00:56	-136.335	49.553	0	330.00	0	4.6040	0	33.9110	0	26.859	0	326.923	0	-1e10	8	-1e10	8	-1E+10	1	-1E+10	1	-1E+10	1	-1E+10	1	-1E+10	1	-1E+10	1
4902554	20	C	08/21/2021	00:56	-136.335	49.553	0	330.90	0	4.6000	0	33.9120	0	26.860	0	327.814	0	-1e10	8	-1e10	8	-1E+10	1	-1E+10	1	-1E+10	1	-1E+10	1	-1E+10	1	-1E+10	1
4902554	20	C	08/21/2021	00:56	-136.335	49.553	0	331.70	0	4.5990	0	33.9130	0	26.861	0	328.606	0	-1e10	8	-1e10	8	-1E+10	1	-1E+10	1	-1E+10	1	-1E+10	1	-1E+10	1	-1E+10	1
4902554	20	C	08/21/2021	00:56	-136.335	49.553	0	333.00	0	4.5970	0	33.9140	0	26.862	0	329.893	0	-1e10	8	-1e10	8	-1E+10	1	-1E+10	1	-1E+10	1	-1E+10	1	-1E+10	1	-1E+10	1
4902554	20	C	08/21/2021	00:56	-136.335	49.553	0	334.30	0	4.5940	0	33.9140	0	26.862	0	331.180	0	-1e10	8	-1e10	8	-1E+10	1	-1E+10	1	-1E+10	1	-1E+10	1	-1E+10	1	-1E+10	1
4902554	20	C	08/21/2021	00:56	-136.335	49.553	0	335.20	0	4.5930	0	33.9150	0	26.863	0	332.071	0	-1e10	8	-1e10	8	-1E+10	1	-1E+10	1	-1E+10	1	-1E+10	1	-1E+10	1	-1E+10	1
4902554	20	C	08/21/2021	00:56	-136.335	49.553	0	336.00	0	4.5920	0	33.9160	0	26.864	0	332.862	0	-1e10	8	-1e10	8	-1E+10	1	-1E+10	1	-1E+10	1	-1E+10	1	-1E+10	1	-1E+10	1
4902554	20	C	08/21/2021	00:56	-136.335	49.553	0	336.80	0	4.5880	0	33.9170	0	26.865	0	333.654	0	-1e10	8	-1e10	8	-1E+10	1	-1E+10	1	-1E+10	1	-1E+10	1	-1E+10	1	-1E+10	1
4902554	20	C	08/21/2021	00:56	-136.335	49.553	0	337.70	0	4.5850	0	33.9170	0	26.866	0	334.545	0	-1e10	8	-1e10	8	-1E+10	1	-1E+10	1	-1E+10	1	-1E+10	1	-1E+10	1	-1E+10	1
4902554	20	C	08/21/2021	00:56	-136.335	49.553	0	338.90	0	4.5820	0	33.9180	0	26.867	0	335.733	0	-1e10	8	-1e10	8	-1E+10	1	-1E+10	1	-1E+10	1	-1E+10	1	-1E+10	1	-1E+10	1
4902554	20	C	08/21/2021	00:56	-136.335	49.553	0	340.30	0	4.5780	0	33.9180	0	26.867	0	337.119	0	-1e10	8	-1e10	8	-1E+10	1	-1E+10	1	-1E+10	1	-1E+10	1	-1E+10	1	-1E+10	1
4902554	20	C	08/21/2021	00:56	-136.335	49.553	0	341.10	0	4.5780	0	33.9180	0	26.867	0	337.911	0	-1e10	8	-1e10	8	-1E+10	1	-1E+10	1	-1E+10	1	-1E+10	1	-1E+10	1	-1E+10	1
4902554	20	C	08/21/2021	00:56	-136.335	49.553	0	342.00	0	4.5770	0	33.9180	0	26.867	0	338.802	0	-1e10	8	-1e10	8	-1E+10	1	-1E+10	1	-1E+10	1	-1E+10	1	-1E+10	1	-1E+10	1
4902554	20	C	08/21/2021	00:56	-136.335	49.553	0	342.80	0	4.5740	0	33.9190	0	26.869	0	339.593	0	-1e10	8	-1e10	8	-1E+10	1	-1E+10	1	-1E+10	1	-1E+10	1	-1E+10	1	-1E+10	1
4902554	20	C	08/21/2021	00:56	-136.335	49.553	0	343.70	0	4.5650	0	33.9210	0	26.871	0	340.484	0	-1e10	8	-1e10	8	-1E+10	1	-1E+10	1	-1E+10	1	-1E+10	1	-1E+10	1	-1E+10	1
4902554	20	C	08/21/2021	00:56	-136.335	49.553	0	344.90	0	4.5590	0	33.9210	0	26.872	0	341.672	0	-1e10	8	-1e10	8	-1E+10	1	-1E+10	1	-1E+10	1	-1E+10	1	-1E+10	1	-1E+10	1
4902554	20	C	08/21/2021	00:56	-136.335	49.553	0	346.30	0	4.5540	0	33.9220	0	26.873	0	343.058	0	-1e10	8	-1e10	8	-1E+10	1	-1E+10	1	-1E+10	1	-1E+10	1	-1E+10	1	-1E+10	1
4902554	20	C	08/21/2021	00:56	-136.335	49.553	0	347.10	0	4.5550	0	33.9230	0	26.874	0	343.850	0	-1e10	8	-1e10	8	-1E+10	1	-1E+10	1	-1E+10	1	-1E+10	1	-1E+10	1	-1E+10	1
4902554	20	C	08/21/2021	00:56	-136.335	49.553	0	348.00	0	4.5550	0	33.9230	0	26.874	0	344.740	0	-1e10	8	-1e10	8	-1E+10	1	-1E+10	1	-1E+10	1	-1E+10	1	-1E+10	1	-1E+10	1
4902554	20	C	08/21/2021	00:56	-136.335	49.553	0	348.80	0	4.5540	0	33.9230	0	26.874	0	345.532	0	-1e10	8	-1e10	8	-1E+10	1	-1E+10	1	-1E+10	1	-1E+10	1	-1E+10	1	-1E+10	1
4902554	20	C	08/21/2021	00:56	-136.335	49.553	0	349.70	0	4.5540	0	33.9230	0	26.874	0	346.423	0	-1e10	8	-1e10	8	-1E+10	1	-1E+10	1	-1E+10	1	-1E+10	1	-1E+10	1	-1E+10	1
4902554	20	C	08/21/2021	00:56	-136.335	49.553	0	352.60	0	4.5420	0	33.9260	0	26.878	0	349.294	0	-1e10	8	-1e10	8	-1E+10	1	-1E+10	1	-1E+10	1	-1E+10	1	-1E+10	1	-1E+10	1
4902554	20	C	08/21/2021	00:56	-136.335	49.553	0	357.80	0	4.5280	0	33.9300	0	26.882	0	354.440	0	-1e10	8	-1e10	8	-1E+10	1	-1E+10	1	-1E+10	1	-1E+10	1	-1E+10	1	-1E+10	1
4902554	20	C	08/21/2021	00:56	-136.335	49.553	0	363.10	0	4.5010	0	33.9350	0	26.889	0	359.686	0	-1e10	8	-1e10	8	-1E+10	1	-1E+10	1	-1E+10	1	-1E+10	1	-1E+10	1	-1E+10	1
4902554	20	C	08/21/2021	00:56	-136.335	49.553	0	368.10	0	4.4770	0	33.9390	0	26.895	0	364.635	0	-1e10	8	-1e10	8	-1E+10	1	-1E+10	1	-1E+10	1	-1E+10	1	-1E+10	1	-1E+10	1
4902554	20	C	08/21/2021	00:56	-136.335	49.553	0	373.00	0	4.4400	0	33.9470	0	26.905	0	369.484	0	-1e10	8	-1e10	8	-1E+10	1	-1E+10	1	-1E+10	1	-1E+10	1	-1E+10	1	-1E+10	1
4902554	20	C	08/21/2021	00:56	-136.335	49.553	0	378.00	0	4.4180	0	33.9540	0	26.913	0	374.432	0	-1e10	8	-1e10	8	-1E+10	1	-1E+10	1	-1E+10	1	-1E+10	1	-1E+10	1	-1E+10	1
4902554	20	C	08/21/2021	00:56	-136.335	49.553	0	382.70	0	4.4040	0	33.9580	0	26.918	0	379.084	0	-1e10	8	-1e10	8	-1E+10	1	-1E+10	1	-1E+10	1	-1E+10	1	-1E+10	1	-1E+10	1
4902554	20	C	08/21/2021	00:56	-136.335	49.553	0	387.80	0	4.3880	0	33.9640	0	26.925	0	384.131	0	-1e10	8	-1e10	8	-1E+10	1	-1E+10	1	-1E+10	1	-1E+10	1	-1E+10	1	-1E+10	1
4902554	20	C	08/21/2021	00:56	-136.335	49.553	0	393.10	0	4.3700	0	33.9710	0	26.932	0	389.376	0	-1e10	8	-1e10	8	-1E+10	1	-1E+10	1	-1E+10	1	-1E+10	1	-1E+10	1	-1E+10	1
4902554	20	C	08/21/2021	00:56	-136.335	49.553	0	397.80	0	4.3610	0	33.9750	0	26.936	0	394.027	0	-1e10	8	-1e10	8	-1E+10	1	-1E+10	1	-1E+10	1	-1E+10	1	-1E+10	1	-1E+10	1
4902554	20	C	08/21/2021	00:56	-136.335	49.553	0	402.60	0	4.3510	0	33.9790	0	26.941	0	398.777	0	-1e10	8	-1e10	8	-1E+10	1	-1E+10	1	-1E+10	1	-1E+10	1	-1E+10	1	-1E+10	1
4902554	20	C	08/21/2021	00:56	-136.335	49.553	0	407.80	0	4.3420	0	33.9820	0	26.944	0	403.922	0	-1e10	8	-1e10	8	-1E+10	1	-1E+10	1	-1E+10	1	-1E+10	1	-1E+10	1	-1E+10	1
4902554	20	C	08/21/2021	00:56	-136.335	49.553	0	413.10	0	4.3300	0	33.9870	0	26.949	0	409.167	0	-1e10	8	-1e10	8	-1E+10	1	-1E+10	1	-1E+10	1	-1E+10	1	-1E+10	1	-1E+10	1
4902554	20	C	08/21/2021	00:56	-136.335	49.553	0	417.80	0	4.3230	0	33.9900	0	26.952	0	413.817	0	-1e10	8	-1e10	8	-1E+10	1	-1E+10	1	-1E+10	1	-1E+10	1	-1E+10	1	-1E+10	1
4902554	20	C	08/21/2021	00:56	-136.335	49.553	0	422.60	0	4.3140	0	33.9940	0	26.957	0	418.566	0	-1e10	8	-1e10	8	-1E+10	1	-1E+10	1	-1E+10	1	-1E+10	1	-1E+10	1	-1E+10	1
4902554	20	C	08/21/2021	00:56	-136.335	49.553	0	427.90	0	4.3020	0	33.9990	0	26.962	0	423.810	0	-1e10	8	-1e10	8	-1E+10	1	-1E+10	1	-1E+10	1	-1E+10	1	-1E+10	1	-1E+10	1
4902554	20	C	08/21/2021	00:56	-136.335	49.553	0	433.20	0	4.2890	0	34.0050	0	26.968	0	429.054	0	-1e10	8	-1e10	8	-1E+10	1	-1E+10	1	-1E+10	1	-1E+10	1	-1E+10	1	-1E+10	1
4902554	20	C	08/21/2021	00:56	-136.335	49.553	0	438.20	0	4.2800	0	34.0100	0	26.973	0	434.001	0	-1e10	8	-1e10	8	-1E+10	1	-1E+10	1	-1E+10	1	-1E+10	1	-1E+10	1	-1E+10	1
4902554	20	C	08/21/2021	00:56	-136.335	49.553	0	443.10	0	4.2640	0	34.0180	0	26.981	0	438.849	0	-1e10	8	-1e10	8	-1E+10	1	-1E+10	1	-1E+10	1	-1E+10	1	-1E+10	1	-1E+10	1
4902554	20	C	08/21/2021	00:56	-136.335	49.553	0	448.10	0	4.2520	0	34.0240	0	26.987	0	443.796	0	-1e10	8	-1e10	8	-1E+10	1	-1E+10	1	-1E+10	1	-1E+10	1	-1E+10	1	-1E+10	1
4902554	20	C	08/21/2021	00:56	-136.335	49.553	0	453.20	0	4.2500	0	34.0260	0	26.989	0	448.841	0	-1e10	8	-1e10	8	-1E+10	1	-1E+10	1	-1E+10	1	-1E+10	1	-1E+10	1	-1E+10	1
4902554	20	C	08/21/2021	00:56	-136.335	49.553	0	458.20	0	4.2390	0	34.0310	0	26.994	0	453.788	0	-1e10	8	-1e10	8	-1E+10	1	-1E+10	1	-1E+10	1	-1E+10	1	-1E+10	1	-1E+10	1
4902554	20	C	08/21/2021	00:56	-136.335	49.553	0	463.30	0	4.2270	0	34.0370	0	27.000	0	458.833	0	-1e10	8	-1e10	8	-1E+10	1	-1E+10	1	-1E+10	1	-1E+10	1	-1E+10	1	-1E+10	1
4902554	20	C	08/21/2021	00:56	-136.335	49.553	0	467.90	0	4.2190	0	34.0410	0	27.004	0	463.384	0	-1e10	8	-1e10	8	-1E+10	1	-1E+10	1	-1E+10	1	-1E+10	1	-1E+10	1	-1E+10	1
4902554	20	C	08/21/2021	00:56	-136.335	49.553	0	472.50	0	4.2110	0	34.0470	0	27.010	0	467.934	0	-1e10	8	-1e10	8	-1E+10	1	-1E+10	1	-1E+10	1	-1E+10	1	-1E+10	1	-1E+10	1
4902554	20	C	08/21/2021	00:56	-136.335	49.553	0	477.60	0	4.1990	0	34.0510	0	27.014	0	472.979	0	-1e10	8	-1e10	8	-1E+10	1	-1E+10	1	-1E+10	1	-1E+10	1	-1E+10	1	-1E+10	1
4902554	20	C	08/21/2021	00:56	-136.335	49.553	0	482.80	0	4.1860	0	34.0570	0	27.021	0	478.123	0	-1e10	8	-1e10	8	-1E+10	1	-1E+10	1	-1E+10	1	-1E+10	1	-1E+10	1	-1E+10	1
4902554	20	C	08/21/2021	00:56	-136.335	49.553	0	487.90	0	4.1720	0	34.0620	0	27.026	0	483.167	0	-1e10	8	-1e10	8	-1E+10	1	-1E+10	1	-1E+10	1	-1E+10	1	-1E+10	1	-1E+10	1
4902554	20	C	08/21/2021	00:56	-136.335	49.553	0	493.00	0	4.1520	0	34.0710	0	27.035	0	488.212	0	-1e10	8	-1e10	8	-1E+10	1	-1E+10	1	-1E+10	1	-1E+10	1	-1E+10	1	-1E+10	1
4902554	20	C	08/21/2021	00:56	-136.335	49.553	0	498.20	0	4.1420	0	34.0760	0	27.040	0	493.355	0	-1e10	8	-1e10	8	-1E+10	1	-1E+10	1	-1E+10	1	-1E+10	1	-1E+10	1	-1E+10	1
4902554	20	C	08/21/2021	00:56	-136.335	49.553	0	503.10	0	4.1360	0	34.0780	0	27.043	0	498.202	0	-1e10	8	-1e10	8	-1E+10	1	-1E+10	1	-1E+10	1	-1E+10	1	-1E+10	1	-1E+10	1
4902554	20	C	08/21/2021	00:56	-136.335	49.553	0	508.00	0	4.1260	0	34.0830	0	27.048	0	503.048	0	-1e10	8	-1e10	8	-1E+10	1	-1E+10	1	-1E+10	1	-1E+10	1	-1E+10	1	-1E+10	1
4902554	20	C	08/21/2021	00:56	-136.335	49.553	0	513.00	0	4.1160	0	34.0870	0	27.052	0	507.993	0	-1e10	8	-1e10	8	-1E+10	1	-1E+10	1	-1E+10	1	-1E+10	1	-1E+10	1	-1E+10	1
4902554	20	C	08/21/2021	00:56	-136.335	49.553	0	518.20	0	4.1070	0	34.0910	0	27.056	0	513.136	0	-1e10	8	-1e10	8	-1E+10	1	-1E+10	1	-1E+10	1	-1E+10	1	-1E+10	1	-1E+10	1
4902554	20	C	08/21/2021	00:56	-136.335	49.553	0	522.90	0	4.0950	0	34.0940	0	27.060	0	517.784	0	-1e10	8	-1e10	8	-1E+10	1	-1E+10	1	-1E+10	1	-1E+10	1	-1E+10	1	-1E+10	1
4902554	20	C	08/21/2021	00:56	-136.335	49.553	0	527.70	0	4.0800	0	34.0990	0	27.065	0	522.531	0	-1e10	8	-1e10	8	-1E+10	1	-1E+10	1	-1E+10	1	-1E+10	1	-1E+10	1	-1E+10	1
4902554	20	C	08/21/2021	00:56	-136.335	49.553	0	532.90	0	4.0660	0	34.1050	0	27.071	0	527.674	0	-1e10	8	-1e10	8	-1E+10	1	-1E+10	1	-1E+10	1	-1E+10	1	-1E+10	1	-1E+10	1
4902554	20	C	08/21/2021	00:56	-136.335	49.553	0	537.90	0	4.0560	0	34.1090	0	27.076	0	532.618	0	-1e10	8	-1e10	8	-1E+10	1	-1E+10	1	-1E+10	1	-1E+10	1	-1E+10	1	-1E+10	1
4902554	20	C	08/21/2021	00:56	-136.335	49.553	0	542.90	0	4.0450	0	34.1130	0	27.080	0	537.563	0	-1e10	8	-1e10	8	-1E+10	1	-1E+10	1	-1E+10	1	-1E+10	1	-1E+10	1	-1E+10	1
4902554	20	C	08/21/2021	00:56	-136.335	49.553	0	548.00	0	4.0410	0	34.1160	0	27.083	0	542.606	0	-1e10	8	-1e10	8	-1E+10	1	-1E+10	1	-1E+10	1	-1E+10	1	-1E+10	1	-1E+10	1
4902554	20	C	08/21/2021	00:56	-136.335	49.553	0	552.70	0	4.0300	0	34.1230	0	27.090	0	547.253	0	-1e10	8	-1e10	8	-1E+10	1	-1E+10	1	-1E+10	1	-1E+10	1	-1E+10	1	-1E+10	1
4902554	20	C	08/21/2021	00:56	-136.335	49.553	0	557.90	0	4.0180	0	34.1260	0	27.093	0	552.395	0	-1e10	8	-1e10	8	-1E+10	1	-1E+10	1	-1E+10	1	-1E+10	1	-1E+10	1	-1E+10	1
4902554	20	C	08/21/2021	00:56	-136.335	49.553	0	563.10	0	4.0040	0	34.1310	0	27.099	0	557.537	0	-1e10	8	-1e10	8	-1E+10	1	-1E+10	1	-1E+10	1	-1E+10	1	-1E+10	1	-1E+10	1
4902554	20	C	08/21/2021	00:56	-136.335	49.553	0	567.90	0	3.9880	0	34.1330	0	27.102	0	562.283	0	-1e10	8	-1e10	8	-1E+10	1	-1E+10	1	-1E+10	1	-1E+10	1	-1E+10	1	-1E+10	1
4902554	20	C	08/21/2021	00:56	-136.335	49.553	0	572.80	0	3.9720	0	34.1370	0	27.107	0	567.128	0	-1e10	8	-1e10	8	-1E+10	1	-1E+10	1	-1E+10	1	-1E+10	1	-1E+10	1	-1E+10	1
4902554	20	C	08/21/2021	00:56	-136.335	49.553	0	577.70	0	3.9680	0	34.1380	0	27.108	0	571.973	0	-1e10	8	-1e10	8	-1E+10	1	-1E+10	1	-1E+10	1	-1E+10	1	-1E+10	1	-1E+10	1
4902554	20	C	08/21/2021	00:56	-136.335	49.553	0	582.70	0	3.9580	0	34.1410	0	27.111	0	576.916	0	-1e10	8	-1e10	8	-1E+10	1	-1E+10	1	-1E+10	1	-1E+10	1	-1E+10	1	-1E+10	1
4902554	20	C	08/21/2021	00:56	-136.335	49.553	0	587.70	0	3.9420	0	34.1480	0	27.119	0	581.860	0	-1e10	8	-1e10	8	-1E+10	1	-1E+10	1	-1E+10	1	-1E+10	1	-1E+10	1	-1E+10	1
4902554	20	C	08/21/2021	00:56	-136.335	49.553	0	592.80	0	3.9320	0	34.1530	0	27.124	0	586.902	0	-1e10	8	-1e10	8	-1E+10	1	-1E+10	1	-1E+10	1	-1E+10	1	-1E+10	1	-1E+10	1
4902554	20	C	08/21/2021	00:56	-136.335	49.553	0	598.00	0	3.9260	0	34.1550	0	27.126	0	592.043	0	-1e10	8	-1e10	8	-1E+10	1	-1E+10	1	-1E+10	1	-1E+10	1	-1E+10	1	-1E+10	1
4902554	20	C	08/21/2021	00:56	-136.335	49.553	0	602.80	0	3.9230	0	34.1570	0	27.128	0	596.788	0	-1e10	8	-1e10	8	-1E+10	1	-1E+10	1	-1E+10	1	-1E+10	1	-1E+10	1	-1E+10	1
4902554	20	C	08/21/2021	00:56	-136.335	49.553	0	607.60	0	3.9180	0	34.1590	0	27.130	0	601.533	0	-1e10	8	-1e10	8	-1E+10	1	-1E+10	1	-1E+10	1	-1E+10	1	-1E+10	1	-1E+10	1
4902554	20	C	08/21/2021	00:56	-136.335	49.553	0	612.90	0	3.9070	0	34.1640	0	27.135	0	606.772	0	-1e10	8	-1e10	8	-1E+10	1	-1E+10	1	-1E+10	1	-1E+10	1	-1E+10	1	-1E+10	1
4902554	20	C	08/21/2021	00:56	-136.335	49.553	0	617.70	0	3.8930	0	34.1680	0	27.140	0	611.517	0	-1e10	8	-1e10	8	-1E+10	1	-1E+10	1	-1E+10	1	-1E+10	1	-1E+10	1	-1E+10	1
4902554	20	C	08/21/2021	00:56	-136.335	49.553	0	623.00	0	3.8820	0	34.1720	0	27.144	0	616.757	0	-1e10	8	-1e10	8	-1E+10	1	-1E+10	1	-1E+10	1	-1E+10	1	-1E+10	1	-1E+10	1
4902554	20	C	08/21/2021	00:56	-136.335	49.553	0	628.20	0	3.8710	0	34.1760	0	27.148	0	621.897	0	-1e10	8	-1e10	8	-1E+10	1	-1E+10	1	-1E+10	1	-1E+10	1	-1E+10	1	-1E+10	1
4902554	20	C	08/21/2021	00:56	-136.335	49.553	0	633.00	0	3.8590	0	34.1800	0	27.153	0	626.641	0	-1e10	8	-1e10	8	-1E+10	1	-1E+10	1	-1E+10	1	-1E+10	1	-1E+10	1	-1E+10	1
4902554	20	C	08/21/2021	00:56	-136.335	49.553	0	638.00	0	3.8500	0	34.1830	0	27.156	0	631.583	0	-1e10	8	-1e10	8	-1E+10	1	-1E+10	1	-1E+10	1	-1E+10	1	-1E+10	1	-1E+10	1
4902554	20	C	08/21/2021	00:56	-136.335	49.553	0	643.00	0	3.8440	0	34.1850	0	27.158	0	636.526	0	-1e10	8	-1e10	8	-1E+10	1	-1E+10	1	-1E+10	1	-1E+10	1	-1E+10	1	-1E+10	1
4902554	20	C	08/21/2021	00:56	-136.335	49.553	0	648.00	0	3.8320	0	34.1880	0	27.162	0	641.467	0	-1e10	8	-1e10	8	-1E+10	1	-1E+10	1	-1E+10	1	-1E+10	1	-1E+10	1	-1E+10	1
4902554	20	C	08/21/2021	00:56	-136.335	49.553	0	653.10	0	3.8240	0	34.1910	0	27.165	0	646.508	0	-1e10	8	-1e10	8	-1E+10	1	-1E+10	1	-1E+10	1	-1E+10	1	-1E+10	1	-1E+10	1
4902554	20	C	08/21/2021	00:56	-136.335	49.553	0	658.20	0	3.8060	0	34.1960	0	27.171	0	651.549	0	-1e10	8	-1e10	8	-1E+10	1	-1E+10	1	-1E+10	1	-1E+10	1	-1E+10	1	-1E+10	1
4902554	20	C	08/21/2021	00:56	-136.335	49.553	0	662.90	0	3.7990	0	34.1980	0	27.173	0	656.194	0	-1e10	8	-1e10	8	-1E+10	1	-1E+10	1	-1E+10	1	-1E+10	1	-1E+10	1	-1E+10	1
4902554	20	C	08/21/2021	00:56	-136.335	49.553	0	667.60	0	3.7890	0	34.2010	0	27.177	0	660.839	0	-1e10	8	-1e10	8	-1E+10	1	-1E+10	1	-1E+10	1	-1E+10	1	-1E+10	1	-1E+10	1
4902554	20	C	08/21/2021	00:56	-136.335	49.553	0	672.80	0	3.7810	0	34.2030	0	27.179	0	665.978	0	-1e10	8	-1e10	8	-1E+10	1	-1E+10	1	-1E+10	1	-1E+10	1	-1E+10	1	-1E+10	1
4902554	20	C	08/21/2021	00:56	-136.335	49.553	0	677.90	0	3.7650	0	34.2070	0	27.184	0	671.018	0	-1e10	8	-1e10	8	-1E+10	1	-1E+10	1	-1E+10	1	-1E+10	1	-1E+10	1	-1E+10	1
4902554	20	C	08/21/2021	00:56	-136.335	49.553	0	683.00	0	3.7570	0	34.2100	0	27.187	0	676.058	0	-1e10	8	-1e10	8	-1E+10	1	-1E+10	1	-1E+10	1	-1E+10	1	-1E+10	1	-1E+10	1
4902554	20	C	08/21/2021	00:56	-136.335	49.553	0	688.20	0	3.7380	0	34.2150	0	27.193	0	681.197	0	-1e10	8	-1e10	8	-1E+10	1	-1E+10	1	-1E+10	1	-1E+10	1	-1E+10	1	-1E+10	1
4902554	20	C	08/21/2021	00:56	-136.335	49.553	0	693.00	0	3.7240	0	34.2180	0	27.197	0	685.940	0	-1e10	8	-1e10	8	-1E+10	1	-1E+10	1	-1E+10	1	-1E+10	1	-1E+10	1	-1E+10	1
4902554	20	C	08/21/2021	00:56	-136.335	49.553	0	697.80	0	3.7190	0	34.2200	0	27.199	0	690.683	0	-1e10	8	-1e10	8	-1E+10	1	-1E+10	1	-1E+10	1	-1E+10	1	-1E+10	1	-1E+10	1
4902554	20	C	08/21/2021	00:56	-136.335	49.553	0	703.10	0	3.7070	0	34.2240	0	27.203	0	695.920	0	-1e10	8	-1e10	8	-1E+10	1	-1E+10	1	-1E+10	1	-1E+10	1	-1E+10	1	-1E+10	1
4902554	20	C	08/21/2021	00:56	-136.335	49.553	0	708.00	0	3.7010	0	34.2250	0	27.205	0	700.762	0	-1e10	8	-1e10	8	-1E+10	1	-1E+10	1	-1E+10	1	-1E+10	1	-1E+10	1	-1E+10	1
4902554	20	C	08/21/2021	00:56	-136.335	49.553	0	712.90	0	3.6870	0	34.2290	0	27.209	0	705.603	0	-1e10	8	-1e10	8	-1E+10	1	-1E+10	1	-1E+10	1	-1E+10	1	-1E+10	1	-1E+10	1
4902554	20	C	08/21/2021	00:56	-136.335	49.553	0	717.90	0	3.6660	0	34.2340	0	27.216	0	710.544	0	-1e10	8	-1e10	8	-1E+10	1	-1E+10	1	-1E+10	1	-1E+10	1	-1E+10	1	-1E+10	1
4902554	20	C	08/21/2021	00:56	-136.335	49.553	0	722.80	0	3.6540	0	34.2370	0	27.219	0	715.385	0	-1e10	8	-1e10	8	-1E+10	1	-1E+10	1	-1E+10	1	-1E+10	1	-1E+10	1	-1E+10	1
4902554	20	C	08/21/2021	00:56	-136.335	49.553	0	727.90	0	3.6410	0	34.2390	0	27.222	0	720.424	0	-1e10	8	-1e10	8	-1E+10	1	-1E+10	1	-1E+10	1	-1E+10	1	-1E+10	1	-1E+10	1
4902554	20	C	08/21/2021	00:56	-136.335	49.553	0	733.00	0	3.6260	0	34.2440	0	27.228	0	725.463	0	-1e10	8	-1e10	8	-1E+10	1	-1E+10	1	-1E+10	1	-1E+10	1	-1E+10	1	-1E+10	1
4902554	20	C	08/21/2021	00:56	-136.335	49.553	0	738.10	0	3.6150	0	34.2460	0	27.230	0	730.501	0	-1e10	8	-1e10	8	-1E+10	1	-1E+10	1	-1E+10	1	-1E+10	1	-1E+10	1	-1E+10	1
4902554	20	C	08/21/2021	00:56	-136.335	49.553	0	742.90	0	3.6070	0	34.2480	0	27.233	0	735.244	0	-1e10	8	-1e10	8	-1E+10	1	-1E+10	1	-1E+10	1	-1E+10	1	-1E+10	1	-1E+10	1
4902554	20	C	08/21/2021	00:56	-136.335	49.553	0	747.70	0	3.5970	0	34.2500	0	27.235	0	739.986	0	-1e10	8	-1e10	8	-1E+10	1	-1E+10	1	-1E+10	1	-1E+10	1	-1E+10	1	-1E+10	1
4902554	20	C	08/21/2021	00:56	-136.335	49.553	0	752.50	0	3.5900	0	34.2510	0	27.237	0	744.727	0	-1e10	8	-1e10	8	-1E+10	1	-1E+10	1	-1E+10	1	-1E+10	1	-1E+10	1	-1E+10	1
4902554	20	C	08/21/2021	00:56	-136.335	49.553	0	757.90	0	3.5690	0	34.2570	0	27.244	0	750.062	0	-1e10	8	-1e10	8	-1E+10	1	-1E+10	1	-1E+10	1	-1E+10	1	-1E+10	1	-1E+10	1
4902554	20	C	08/21/2021	00:56	-136.335	49.553	0	763.30	0	3.5550	0	34.2600	0	27.247	0	755.396	0	-1e10	8	-1e10	8	-1E+10	1	-1E+10	1	-1E+10	1	-1E+10	1	-1E+10	1	-1E+10	1
4902554	20	C	08/21/2021	00:56	-136.335	49.553	0	768.30	0	3.5470	0	34.2620	0	27.250	0	760.335	0	-1e10	8	-1e10	8	-1E+10	1	-1E+10	1	-1E+10	1	-1E+10	1	-1E+10	1	-1E+10	1
4902554	20	C	08/21/2021	00:56	-136.335	49.553	0	773.30	0	3.5340	0	34.2650	0	27.253	0	765.274	0	-1e10	8	-1e10	8	-1E+10	1	-1E+10	1	-1E+10	1	-1E+10	1	-1E+10	1	-1E+10	1
4902554	20	C	08/21/2021	00:56	-136.335	49.553	0	778.30	0	3.5310	0	34.2660	0	27.255	0	770.213	0	-1e10	8	-1e10	8	-1E+10	1	-1E+10	1	-1E+10	1	-1E+10	1	-1E+10	1	-1E+10	1
4902554	20	C	08/21/2021	00:56	-136.335	49.553	0	783.30	0	3.5220	0	34.2680	0	27.257	0	775.152	0	-1e10	8	-1e10	8	-1E+10	1	-1E+10	1	-1E+10	1	-1E+10	1	-1E+10	1	-1E+10	1
4902554	20	C	08/21/2021	00:56	-136.335	49.553	0	788.30	0	3.5150	0	34.2690	0	27.259	0	780.091	0	-1e10	8	-1e10	8	-1E+10	1	-1E+10	1	-1E+10	1	-1E+10	1	-1E+10	1	-1E+10	1
4902554	20	C	08/21/2021	00:56	-136.335	49.553	0	793.30	0	3.5060	0	34.2720	0	27.262	0	785.029	0	-1e10	8	-1e10	8	-1E+10	1	-1E+10	1	-1E+10	1	-1E+10	1	-1E+10	1	-1E+10	1
4902554	20	C	08/21/2021	00:56	-136.335	49.553	0	797.90	0	3.4990	0	34.2740	0	27.264	0	789.573	0	-1e10	8	-1e10	8	-1E+10	1	-1E+10	1	-1E+10	1	-1E+10	1	-1E+10	1	-1E+10	1
4902554	20	C	08/21/2021	00:56	-136.335	49.553	0	802.50	0	3.4840	0	34.2770	0	27.268	0	794.116	0	-1e10	8	-1e10	8	-1E+10	1	-1E+10	1	-1E+10	1	-1E+10	1	-1E+10	1	-1E+10	1
4902554	20	C	08/21/2021	00:56	-136.335	49.553	0	807.70	0	3.4730	0	34.2780	0	27.270	0	799.252	0	-1e10	8	-1e10	8	-1E+10	1	-1E+10	1	-1E+10	1	-1E+10	1	-1E+10	1	-1E+10	1
4902554	20	C	08/21/2021	00:56	-136.335	49.553	0	812.90	0	3.4620	0	34.2790	0	27.272	0	804.387	0	-1e10	8	-1e10	8	-1E+10	1	-1E+10	1	-1E+10	1	-1E+10	1	-1E+10	1	-1E+10	1
4902554	20	C	08/21/2021	00:56	-136.335	49.553	0	818.20	0	3.4540	0	34.2810	0	27.274	0	809.622	0	-1e10	8	-1e10	8	-1E+10	1	-1E+10	1	-1E+10	1	-1E+10	1	-1E+10	1	-1E+10	1
4902554	20	C	08/21/2021	00:56	-136.335	49.553	0	823.00	0	3.4420	0	34.2840	0	27.278	0	814.362	0	-1e10	8	-1e10	8	-1E+10	1	-1E+10	1	-1E+10	1	-1E+10	1	-1E+10	1	-1E+10	1
4902554	20	C	08/21/2021	00:56	-136.335	49.553	0	827.80	0	3.4320	0	34.2850	0	27.280	0	819.102	0	-1e10	8	-1e10	8	-1E+10	1	-1E+10	1	-1E+10	1	-1E+10	1	-1E+10	1	-1E+10	1
4902554	20	C	08/21/2021	00:56	-136.335	49.553	0	832.70	0	3.4220	0	34.2860	0	27.281	0	823.941	0	-1e10	8	-1e10	8	-1E+10	1	-1E+10	1	-1E+10	1	-1E+10	1	-1E+10	1	-1E+10	1
4902554	20	C	08/21/2021	00:56	-136.335	49.553	0	837.60	0	3.4070	0	34.2890	0	27.285	0	828.780	0	-1e10	8	-1e10	8	-1E+10	1	-1E+10	1	-1E+10	1	-1E+10	1	-1E+10	1	-1E+10	1
4902554	20	C	08/21/2021	00:56	-136.335	49.553	0	843.00	0	3.3900	0	34.2920	0	27.289	0	834.112	0	-1e10	8	-1e10	8	-1E+10	1	-1E+10	1	-1E+10	1	-1E+10	1	-1E+10	1	-1E+10	1
4902554	20	C	08/21/2021	00:56	-136.335	49.553	0	847.80	0	3.3800	0	34.2950	0	27.293	0	838.852	0	-1e10	8	-1e10	8	-1E+10	1	-1E+10	1	-1E+10	1	-1E+10	1	-1E+10	1	-1E+10	1
4902554	20	C	08/21/2021	00:56	-136.335	49.553	0	852.50	0	3.3730	0	34.2960	0	27.294	0	843.493	0	-1e10	8	-1e10	8	-1E+10	1	-1E+10	1	-1E+10	1	-1E+10	1	-1E+10	1	-1E+10	1
4902554	20	C	08/21/2021	00:56	-136.335	49.553	0	857.90	0	3.3630	0	34.2980	0	27.297	0	848.825	0	-1e10	8	-1e10	8	-1E+10	1	-1E+10	1	-1E+10	1	-1E+10	1	-1E+10	1	-1E+10	1
4902554	20	C	08/21/2021	00:56	-136.335	49.553	0	863.20	0	3.3600	0	34.3030	0	27.301	0	854.058	0	-1e10	8	-1e10	8	-1E+10	1	-1E+10	1	-1E+10	1	-1E+10	1	-1E+10	1	-1E+10	1
4902554	20	C	08/21/2021	00:56	-136.335	49.553	0	868.00	0	3.3530	0	34.3050	0	27.303	0	858.797	0	-1e10	8	-1e10	8	-1E+10	1	-1E+10	1	-1E+10	1	-1E+10	1	-1E+10	1	-1E+10	1
4902554	20	C	08/21/2021	00:56	-136.335	49.553	0	872.80	0	3.3470	0	34.3070	0	27.305	0	863.536	0	-1e10	8	-1e10	8	-1E+10	1	-1E+10	1	-1E+10	1	-1E+10	1	-1E+10	1	-1E+10	1
4902554	20	C	08/21/2021	00:56	-136.335	49.553	0	878.10	0	3.3440	0	34.3070	0	27.306	0	868.769	0	-1e10	8	-1e10	8	-1E+10	1	-1E+10	1	-1E+10	1	-1E+10	1	-1E+10	1	-1E+10	1
4902554	20	C	08/21/2021	00:56	-136.335	49.553	0	882.90	0	3.3320	0	34.3100	0	27.309	0	873.508	0	-1e10	8	-1e10	8	-1E+10	1	-1E+10	1	-1E+10	1	-1E+10	1	-1E+10	1	-1E+10	1
4902554	20	C	08/21/2021	00:56	-136.335	49.553	0	887.80	0	3.3210	0	34.3120	0	27.312	0	878.346	0	-1e10	8	-1e10	8	-1E+10	1	-1E+10	1	-1E+10	1	-1E+10	1	-1E+10	1	-1E+10	1
4902554	20	C	08/21/2021	00:56	-136.335	49.553	0	892.70	0	3.3130	0	34.3130	0	27.314	0	883.183	0	-1e10	8	-1e10	8	-1E+10	1	-1E+10	1	-1E+10	1	-1E+10	1	-1E+10	1	-1E+10	1
4902554	20	C	08/21/2021	00:56	-136.335	49.553	0	897.70	0	3.2980	0	34.3160	0	27.317	0	888.119	0	-1e10	8	-1e10	8	-1E+10	1	-1E+10	1	-1E+10	1	-1E+10	1	-1E+10	1	-1E+10	1
4902554	20	C	08/21/2021	00:56	-136.335	49.553	0	902.70	0	3.2810	0	34.3200	0	27.322	0	893.055	0	-1e10	8	-1e10	8	-1E+10	1	-1E+10	1	-1E+10	1	-1E+10	1	-1E+10	1	-1E+10	1
4902554	20	C	08/21/2021	00:56	-136.335	49.553	0	907.90	0	3.2720	0	34.3220	0	27.325	0	898.188	0	-1e10	8	-1e10	8	-1E+10	1	-1E+10	1	-1E+10	1	-1E+10	1	-1E+10	1	-1E+10	1
4902554	20	C	08/21/2021	00:56	-136.335	49.553	0	913.00	0	3.2570	0	34.3240	0	27.328	0	903.223	0	-1e10	8	-1e10	8	-1E+10	1	-1E+10	1	-1E+10	1	-1E+10	1	-1E+10	1	-1E+10	1
4902554	20	C	08/21/2021	00:56	-136.335	49.553	0	918.00	0	3.2460	0	34.3260	0	27.330	0	908.159	0	-1e10	8	-1e10	8	-1E+10	1	-1E+10	1	-1E+10	1	-1E+10	1	-1E+10	1	-1E+10	1
4902554	20	C	08/21/2021	00:56	-136.335	49.553	0	922.90	0	3.2350	0	34.3280	0	27.333	0	912.995	0	-1e10	8	-1e10	8	-1E+10	1	-1E+10	1	-1E+10	1	-1E+10	1	-1E+10	1	-1E+10	1
4902554	20	C	08/21/2021	00:56	-136.335	49.553	0	928.00	0	3.2210	0	34.3310	0	27.337	0	918.029	0	-1e10	8	-1e10	8	-1E+10	1	-1E+10	1	-1E+10	1	-1E+10	1	-1E+10	1	-1E+10	1
4902554	20	C	08/21/2021	00:56	-136.335	49.553	0	932.60	0	3.2150	0	34.3320	0	27.338	0	922.570	0	-1e10	8	-1e10	8	-1E+10	1	-1E+10	1	-1E+10	1	-1E+10	1	-1E+10	1	-1E+10	1
4902554	20	C	08/21/2021	00:56	-136.335	49.553	0	937.80	0	3.2070	0	34.3340	0	27.340	0	927.702	0	-1e10	8	-1e10	8	-1E+10	1	-1E+10	1	-1E+10	1	-1E+10	1	-1E+10	1	-1E+10	1
4902554	20	C	08/21/2021	00:56	-136.335	49.553	0	943.10	0	3.1950	0	34.3360	0	27.343	0	932.933	0	-1e10	8	-1e10	8	-1E+10	1	-1E+10	1	-1E+10	1	-1E+10	1	-1E+10	1	-1E+10	1
4902554	20	C	08/21/2021	00:56	-136.335	49.553	0	948.00	0	3.1840	0	34.3390	0	27.347	0	937.770	0	-1e10	8	-1e10	8	-1E+10	1	-1E+10	1	-1E+10	1	-1E+10	1	-1E+10	1	-1E+10	1
4902554	20	C	08/21/2021	00:56	-136.335	49.553	0	953.00	0	3.1780	0	34.3400	0	27.348	0	942.705	0	-1e10	8	-1e10	8	-1E+10	1	-1E+10	1	-1E+10	1	-1E+10	1	-1E+10	1	-1E+10	1
4902554	20	C	08/21/2021	00:56	-136.335	49.553	0	958.00	0	3.1660	0	34.3420	0	27.351	0	947.639	0	-1e10	8	-1e10	8	-1E+10	1	-1E+10	1	-1E+10	1	-1E+10	1	-1E+10	1	-1E+10	1
4902554	20	C	08/21/2021	00:56	-136.335	49.553	0	963.10	0	3.1510	0	34.3450	0	27.354	0	952.672	0	-1e10	8	-1e10	8	-1E+10	1	-1E+10	1	-1E+10	1	-1E+10	1	-1E+10	1	-1E+10	1
4902554	20	C	08/21/2021	00:56	-136.335	49.553	0	968.20	0	3.1390	0	34.3470	0	27.357	0	957.706	0	-1e10	8	-1e10	8	-1E+10	1	-1E+10	1	-1E+10	1	-1E+10	1	-1E+10	1	-1E+10	1
4902554	20	C	08/21/2021	00:56	-136.335	49.553	0	972.90	0	3.1310	0	34.3480	0	27.359	0	962.344	0	-1e10	8	-1e10	8	-1E+10	1	-1E+10	1	-1E+10	1	-1E+10	1	-1E+10	1	-1E+10	1
4902554	20	C	08/21/2021	00:56	-136.335	49.553	0	977.60	0	3.1210	0	34.3500	0	27.361	0	966.982	0	-1e10	8	-1e10	8	-1E+10	1	-1E+10	1	-1E+10	1	-1E+10	1	-1E+10	1	-1E+10	1
4902554	20	C	08/21/2021	00:56	-136.335	49.553	0	982.90	0	3.1080	0	34.3520	0	27.364	0	972.212	0	-1e10	8	-1e10	8	-1E+10	1	-1E+10	1	-1E+10	1	-1E+10	1	-1E+10	1	-1E+10	1
4902554	20	C	08/21/2021	00:56	-136.335	49.553	0	987.70	0	3.1040	0	34.3530	0	27.365	0	976.949	0	-1e10	8	-1e10	8	-1E+10	1	-1E+10	1	-1E+10	1	-1E+10	1	-1E+10	1	-1E+10	1
4902554	20	C	08/21/2021	00:56	-136.335	49.553	0	992.60	0	3.0990	0	34.3540	0	27.367	0	981.784	0	-1e10	8	-1e10	8	-1E+10	1	-1E+10	1	-1E+10	1	-1E+10	1	-1E+10	1	-1E+10	1
4902554	20	C	08/21/2021	00:56	-136.335	49.553	0	998.00	0	3.0890	0	34.3560	0	27.369	0	987.112	0	-1e10	8	-1e10	8	-1E+10	1	-1E+10	1	-1E+10	1	-1E+10	1	-1E+10	1	-1E+10	1
4902554	20	C	08/21/2021	00:56	-136.335	49.553	0	1005.60	0	3.0710	0	34.3580	0	27.372	0	994.611	0	-1e10	8	-1e10	8	-1E+10	1	-1E+10	1	-1E+10	1	-1E+10	1	-1E+10	1	-1E+10	1
4902554	20	C	08/21/2021	00:56	-136.335	49.553	0	1015.40	0	3.0420	0	34.3640	0	27.380	0	1004.281	0	-1e10	8	-1e10	8	-1E+10	1	-1E+10	1	-1E+10	1	-1E+10	1	-1E+10	1	-1E+10	1
4902554	20	C	08/21/2021	00:56	-136.335	49.553	0	1025.30	0	3.0200	0	34.3680	0	27.385	0	1014.049	0	-1e10	8	-1e10	8	-1E+10	1	-1E+10	1	-1E+10	1	-1E+10	1	-1E+10	1	-1E+10	1
4902554	20	C	08/21/2021	00:56	-136.335	49.553	0	1035.30	0	3.0090	0	34.3700	0	27.388	0	1023.914	0	-1e10	8	-1e10	8	-1E+10	1	-1E+10	1	-1E+10	1	-1E+10	1	-1E+10	1	-1E+10	1
4902554	20	C	08/21/2021	00:56	-136.335	49.553	0	1045.30	0	2.9970	0	34.3730	0	27.391	0	1033.780	0	-1e10	8	-1e10	8	-1E+10	1	-1E+10	1	-1E+10	1	-1E+10	1	-1E+10	1	-1E+10	1
4902554	20	C	08/21/2021	00:56	-136.335	49.553	0	1055.40	0	2.9760	0	34.3770	0	27.396	0	1043.743	0	-1e10	8	-1e10	8	-1E+10	1	-1E+10	1	-1E+10	1	-1E+10	1	-1E+10	1	-1E+10	1
4902554	20	C	08/21/2021	00:56	-136.335	49.553	0	1065.50	0	2.9570	0	34.3810	0	27.401	0	1053.706	0	-1e10	8	-1e10	8	-1E+10	1	-1E+10	1	-1E+10	1	-1E+10	1	-1E+10	1	-1E+10	1
4902554	20	C	08/21/2021	00:56	-136.335	49.553	0	1075.50	0	2.9440	0	34.3840	0	27.405	0	1063.570	0	-1e10	8	-1e10	8	-1E+10	1	-1E+10	1	-1E+10	1	-1E+10	1	-1E+10	1	-1E+10	1
4902554	20	C	08/21/2021	00:56	-136.335	49.553	0	1085.30	0	2.9230	0	34.3870	0	27.409	0	1073.237	0	-1e10	8	-1e10	8	-1E+10	1	-1E+10	1	-1E+10	1	-1E+10	1	-1E+10	1	-1E+10	1
4902554	20	C	08/21/2021	00:56	-136.335	49.553	0	1095.50	0	2.9080	0	34.3900	0	27.413	0	1083.297	0	-1e10	8	-1e10	8	-1E+10	1	-1E+10	1	-1E+10	1	-1E+10	1	-1E+10	1	-1E+10	1
4902554	20	C	08/21/2021	00:56	-136.335	49.553	0	1105.70	0	2.8930	0	34.3930	0	27.417	0	1093.357	0	-1e10	8	-1e10	8	-1E+10	1	-1E+10	1	-1E+10	1	-1E+10	1	-1E+10	1	-1E+10	1
4902554	20	C	08/21/2021	00:56	-136.335	49.553	0	1115.30	0	2.8780	0	34.3960	0	27.421	0	1102.825	0	-1e10	8	-1e10	8	-1E+10	1	-1E+10	1	-1E+10	1	-1E+10	1	-1E+10	1	-1E+10	1
4902554	20	C	08/21/2021	00:56	-136.335	49.553	0	1125.40	0	2.8620	0	34.4000	0	27.425	0	1112.785	0	-1e10	8	-1e10	8	-1E+10	1	-1E+10	1	-1E+10	1	-1E+10	1	-1E+10	1	-1E+10	1
4902554	20	C	08/21/2021	00:56	-136.335	49.553	0	1135.30	0	2.8500	0	34.4020	0	27.428	0	1122.547	0	-1e10	8	-1e10	8	-1E+10	1	-1E+10	1	-1E+10	1	-1E+10	1	-1E+10	1	-1E+10	1
4902554	20	C	08/21/2021	00:56	-136.335	49.553	0	1145.20	0	2.8370	0	34.4050	0	27.432	0	1132.309	0	-1e10	8	-1e10	8	-1E+10	1	-1E+10	1	-1E+10	1	-1E+10	1	-1E+10	1	-1E+10	1
4902554	20	C	08/21/2021	00:56	-136.335	49.553	0	1155.70	0	2.8210	0	34.4080	0	27.436	0	1142.663	0	-1e10	8	-1e10	8	-1E+10	1	-1E+10	1	-1E+10	1	-1E+10	1	-1E+10	1	-1E+10	1
4902554	20	C	08/21/2021	00:56	-136.335	49.553	0	1165.50	0	2.8130	0	34.4100	0	27.438	0	1152.325	0	-1e10	8	-1e10	8	-1E+10	1	-1E+10	1	-1E+10	1	-1E+10	1	-1E+10	1	-1E+10	1
4902554	20	C	08/21/2021	00:56	-136.335	49.553	0	1175.40	0	2.7970	0	34.4130	0	27.442	0	1162.086	0	-1e10	8	-1e10	8	-1E+10	1	-1E+10	1	-1E+10	1	-1E+10	1	-1E+10	1	-1E+10	1
4902554	20	C	08/21/2021	00:56	-136.335	49.553	0	1185.30	0	2.7780	0	34.4170	0	27.447	0	1171.846	0	-1e10	8	-1e10	8	-1E+10	1	-1E+10	1	-1E+10	1	-1E+10	1	-1E+10	1	-1E+10	1
4902554	20	C	08/21/2021	00:56	-136.335	49.553	0	1195.70	0	2.7580	0	34.4210	0	27.452	0	1182.099	0	-1e10	8	-1e10	8	-1E+10	1	-1E+10	1	-1E+10	1	-1E+10	1	-1E+10	1	-1E+10	1
4902554	20	C	08/21/2021	00:56	-136.335	49.553	0	1205.80	0	2.7370	0	34.4250	0	27.457	0	1192.056	0	-1e10	8	-1e10	8	-1E+10	1	-1E+10	1	-1E+10	1	-1E+10	1	-1E+10	1	-1E+10	1
4902554	20	C	08/21/2021	00:56	-136.335	49.553	0	1215.70	0	2.7200	0	34.4280	0	27.461	0	1201.814	0	-1e10	8	-1e10	8	-1E+10	1	-1E+10	1	-1E+10	1	-1E+10	1	-1E+10	1	-1E+10	1
4902554	20	C	08/21/2021	00:56	-136.335	49.553	0	1225.50	0	2.7070	0	34.4310	0	27.464	0	1211.474	0	-1e10	8	-1e10	8	-1E+10	1	-1E+10	1	-1E+10	1	-1E+10	1	-1E+10	1	-1E+10	1
4902554	20	C	08/21/2021	00:56	-136.335	49.553	0	1235.10	0	2.6900	0	34.4340	0	27.468	0	1220.937	0	-1e10	8	-1e10	8	-1E+10	1	-1E+10	1	-1E+10	1	-1E+10	1	-1E+10	1	-1E+10	1
4902554	20	C	08/21/2021	00:56	-136.335	49.553	0	1245.00	0	2.6760	0	34.4370	0	27.472	0	1230.694	0	-1e10	8	-1e10	8	-1E+10	1	-1E+10	1	-1E+10	1	-1E+10	1	-1E+10	1	-1E+10	1
4902554	20	C	08/21/2021	00:56	-136.335	49.553	0	1255.20	0	2.6580	0	34.4400	0	27.476	0	1240.747	0	-1e10	8	-1e10	8	-1E+10	1	-1E+10	1	-1E+10	1	-1E+10	1	-1E+10	1	-1E+10	1
4902554	20	C	08/21/2021	00:56	-136.335	49.553	0	1265.50	0	2.6370	0	34.4440	0	27.481	0	1250.898	0	-1e10	8	-1e10	8	-1E+10	1	-1E+10	1	-1E+10	1	-1E+10	1	-1E+10	1	-1E+10	1
4902554	20	C	08/21/2021	00:56	-136.335	49.553	0	1275.50	0	2.6230	0	34.4470	0	27.485	0	1260.752	0	-1e10	8	-1e10	8	-1E+10	1	-1E+10	1	-1E+10	1	-1E+10	1	-1E+10	1	-1E+10	1
4902554	20	C	08/21/2021	00:56	-136.335	49.553	0	1285.30	0	2.6120	0	34.4490	0	27.487	0	1270.410	0	-1e10	8	-1e10	8	-1E+10	1	-1E+10	1	-1E+10	1	-1E+10	1	-1E+10	1	-1E+10	1
4902554	20	C	08/21/2021	00:56	-136.335	49.553	0	1295.60	0	2.5980	0	34.4520	0	27.491	0	1280.559	0	-1e10	8	-1e10	8	-1E+10	1	-1E+10	1	-1E+10	1	-1E+10	1	-1E+10	1	-1E+10	1
4902554	20	C	08/21/2021	00:56	-136.335	49.553	0	1305.50	0	2.5810	0	34.4550	0	27.495	0	1290.314	0	-1e10	8	-1e10	8	-1E+10	1	-1E+10	1	-1E+10	1	-1E+10	1	-1E+10	1	-1E+10	1
4902554	20	C	08/21/2021	00:56	-136.335	49.553	0	1315.30	0	2.5610	0	34.4590	0	27.500	0	1299.969	0	-1e10	8	-1e10	8	-1E+10	1	-1E+10	1	-1E+10	1	-1E+10	1	-1E+10	1	-1E+10	1
4902554	20	C	08/21/2021	00:56	-136.335	49.553	0	1325.50	0	2.5520	0	34.4610	0	27.502	0	1310.019	0	-1e10	8	-1e10	8	-1E+10	1	-1E+10	1	-1E+10	1	-1E+10	1	-1E+10	1	-1E+10	1
4902554	20	C	08/21/2021	00:56	-136.335	49.553	0	1335.80	0	2.5360	0	34.4640	0	27.506	0	1320.166	0	-1e10	8	-1e10	8	-1E+10	1	-1E+10	1	-1E+10	1	-1E+10	1	-1E+10	1	-1E+10	1
4902554	20	C	08/21/2021	00:56	-136.335	49.553	0	1345.40	0	2.5270	0	34.4660	0	27.508	0	1329.624	0	-1e10	8	-1e10	8	-1E+10	1	-1E+10	1	-1E+10	1	-1E+10	1	-1E+10	1	-1E+10	1
4902554	20	C	08/21/2021	00:56	-136.335	49.553	0	1355.40	0	2.5100	0	34.4690	0	27.512	0	1339.475	0	-1e10	8	-1e10	8	-1E+10	1	-1E+10	1	-1E+10	1	-1E+10	1	-1E+10	1	-1E+10	1
4902554	20	C	08/21/2021	00:56	-136.335	49.553	0	1365.70	0	2.4970	0	34.4710	0	27.515	0	1349.621	0	-1e10	8	-1e10	8	-1E+10	1	-1E+10	1	-1E+10	1	-1E+10	1	-1E+10	1	-1E+10	1
4902554	20	C	08/21/2021	00:56	-136.335	49.553	0	1375.70	0	2.4860	0	34.4740	0	27.518	0	1359.471	0	-1e10	8	-1e10	8	-1E+10	1	-1E+10	1	-1E+10	1	-1E+10	1	-1E+10	1	-1E+10	1
4902554	20	C	08/21/2021	00:56	-136.335	49.553	0	1385.70	0	2.4760	0	34.4760	0	27.521	0	1369.320	0	-1e10	8	-1e10	8	-1E+10	1	-1E+10	1	-1E+10	1	-1E+10	1	-1E+10	1	-1E+10	1
4902554	20	C	08/21/2021	00:56	-136.335	49.553	0	1395.60	0	2.4630	0	34.4780	0	27.524	0	1379.071	0	-1e10	8	-1e10	8	-1E+10	1	-1E+10	1	-1E+10	1	-1E+10	1	-1E+10	1	-1E+10	1
4902554	20	C	08/21/2021	00:56	-136.335	49.553	0	1405.30	0	2.4590	0	34.4790	0	27.525	0	1388.624	0	-1e10	8	-1e10	8	-1E+10	1	-1E+10	1	-1E+10	1	-1E+10	1	-1E+10	1	-1E+10	1
4902554	20	C	08/21/2021	00:56	-136.335	49.553	0	1415.50	0	2.4510	0	34.4810	0	27.527	0	1398.669	0	-1e10	8	-1e10	8	-1E+10	1	-1E+10	1	-1E+10	1	-1E+10	1	-1E+10	1	-1E+10	1
4902554	20	C	08/21/2021	00:56	-136.335	49.553	0	1425.70	0	2.4450	0	34.4820	0	27.528	0	1408.714	0	-1e10	8	-1e10	8	-1E+10	1	-1E+10	1	-1E+10	1	-1E+10	1	-1E+10	1	-1E+10	1
4902554	20	C	08/21/2021	00:56	-136.335	49.553	0	1435.50	0	2.4400	0	34.4830	0	27.530	0	1418.364	0	-1e10	8	-1e10	8	-1E+10	1	-1E+10	1	-1E+10	1	-1E+10	1	-1E+10	1	-1E+10	1
4902554	20	C	08/21/2021	00:56	-136.335	49.553	0	1445.30	0	2.4310	0	34.4850	0	27.532	0	1428.014	0	-1e10	8	-1e10	8	-1E+10	1	-1E+10	1	-1E+10	1	-1E+10	1	-1E+10	1	-1E+10	1
4902554	20	C	08/21/2021	00:56	-136.335	49.553	0	1455.10	0	2.4250	0	34.4870	0	27.534	0	1437.664	0	-1e10	8	-1e10	8	-1E+10	1	-1E+10	1	-1E+10	1	-1E+10	1	-1E+10	1	-1E+10	1
4902554	20	C	08/21/2021	00:56	-136.335	49.553	0	1465.40	0	2.4180	0	34.4880	0	27.536	0	1447.805	0	-1e10	8	-1e10	8	-1E+10	1	-1E+10	1	-1E+10	1	-1E+10	1	-1E+10	1	-1E+10	1
4902554	20	C	08/21/2021	00:56	-136.335	49.553	0	1475.60	0	2.4080	0	34.4900	0	27.538	0	1457.847	0	-1e10	8	-1e10	8	-1E+10	1	-1E+10	1	-1E+10	1	-1E+10	1	-1E+10	1	-1E+10	1
4902554	20	C	08/21/2021	00:56	-136.335	49.553	0	1485.20	0	2.4010	0	34.4910	0	27.540	0	1467.299	0	-1e10	8	-1e10	8	-1E+10	1	-1E+10	1	-1E+10	1	-1E+10	1	-1E+10	1	-1E+10	1
4902554	20	C	08/21/2021	00:56	-136.335	49.553	0	1495.30	0	2.3900	0	34.4940	0	27.543	0	1477.242	0	-1e10	8	-1e10	8	-1E+10	1	-1E+10	1	-1E+10	1	-1E+10	1	-1E+10	1	-1E+10	1
4902554	20	C	08/21/2021	00:56	-136.335	49.553	0	1505.80	0	2.3760	0	34.4960	0	27.546	0	1487.578	0	-1e10	8	-1e10	8	-1E+10	1	-1E+10	1	-1E+10	1	-1E+10	1	-1E+10	1	-1E+10	1
4902554	20	C	08/21/2021	00:56	-136.335	49.553	0	1515.40	0	2.3610	0	34.4990	0	27.549	0	1497.028	0	-1e10	8	-1e10	8	-1E+10	1	-1E+10	1	-1E+10	1	-1E+10	1	-1E+10	1	-1E+10	1
4902554	20	C	08/21/2021	00:56	-136.335	49.553	0	1525.00	0	2.3390	0	34.5040	0	27.555	0	1506.477	0	-1e10	8	-1e10	8	-1E+10	1	-1E+10	1	-1E+10	1	-1E+10	1	-1E+10	1	-1E+10	1
4902554	20	C	08/21/2021	00:56	-136.335	49.553	0	1535.10	0	2.3140	0	34.5080	0	27.561	0	1516.418	0	-1e10	8	-1e10	8	-1E+10	1	-1E+10	1	-1E+10	1	-1E+10	1	-1E+10	1	-1E+10	1
4902554	20	C	08/21/2021	00:56	-136.335	49.553	0	1545.30	0	2.3000	0	34.5110	0	27.564	0	1526.457	0	-1e10	8	-1e10	8	-1E+10	1	-1E+10	1	-1E+10	1	-1E+10	1	-1E+10	1	-1E+10	1
4902554	20	C	08/21/2021	00:56	-136.335	49.553	0	1555.30	0	2.2890	0	34.5130	0	27.567	0	1536.299	0	-1e10	8	-1e10	8	-1E+10	1	-1E+10	1	-1E+10	1	-1E+10	1	-1E+10	1	-1E+10	1
4902554	20	C	08/21/2021	00:56	-136.335	49.553	0	1565.50	0	2.2770	0	34.5160	0	27.570	0	1546.337	0	-1e10	8	-1e10	8	-1E+10	1	-1E+10	1	-1E+10	1	-1E+10	1	-1E+10	1	-1E+10	1
4902554	20	C	08/21/2021	00:56	-136.335	49.553	0	1575.40	0	2.2690	0	34.5170	0	27.572	0	1556.080	0	-1e10	8	-1e10	8	-1E+10	1	-1E+10	1	-1E+10	1	-1E+10	1	-1E+10	1	-1E+10	1
4902554	20	C	08/21/2021	00:56	-136.335	49.553	0	1585.30	0	2.2600	0	34.5190	0	27.574	0	1565.822	0	-1e10	8	-1e10	8	-1E+10	1	-1E+10	1	-1E+10	1	-1E+10	1	-1E+10	1	-1E+10	1
4902554	20	C	08/21/2021	00:56	-136.335	49.553	0	1595.40	0	2.2490	0	34.5210	0	27.577	0	1575.760	0	-1e10	8	-1e10	8	-1E+10	1	-1E+10	1	-1E+10	1	-1E+10	1	-1E+10	1	-1E+10	1
4902554	20	C	08/21/2021	00:56	-136.335	49.553	0	1605.40	0	2.2440	0	34.5220	0	27.578	0	1585.599	0	-1e10	8	-1e10	8	-1E+10	1	-1E+10	1	-1E+10	1	-1E+10	1	-1E+10	1	-1E+10	1
4902554	20	C	08/21/2021	00:56	-136.335	49.553	0	1615.20	0	2.2320	0	34.5240	0	27.580	0	1595.242	0	-1e10	8	-1e10	8	-1E+10	1	-1E+10	1	-1E+10	1	-1E+10	1	-1E+10	1	-1E+10	1
4902554	20	C	08/21/2021	00:56	-136.335	49.553	0	1625.50	0	2.2230	0	34.5260	0	27.583	0	1605.375	0	-1e10	8	-1e10	8	-1E+10	1	-1E+10	1	-1E+10	1	-1E+10	1	-1E+10	1	-1E+10	1
4902554	20	C	08/21/2021	00:56	-136.335	49.553	0	1635.60	0	2.2160	0	34.5280	0	27.585	0	1615.312	0	-1e10	8	-1e10	8	-1E+10	1	-1E+10	1	-1E+10	1	-1E+10	1	-1E+10	1	-1E+10	1
4902554	20	C	08/21/2021	00:56	-136.335	49.553	0	1645.60	0	2.2050	0	34.5300	0	27.588	0	1625.149	0	-1e10	8	-1e10	8	-1E+10	1	-1E+10	1	-1E+10	1	-1E+10	1	-1E+10	1	-1E+10	1
4902554	20	C	08/21/2021	00:56	-136.335	49.553	0	1655.30	0	2.1980	0	34.5320	0	27.590	0	1634.692	0	-1e10	8	-1e10	8	-1E+10	1	-1E+10	1	-1E+10	1	-1E+10	1	-1E+10	1	-1E+10	1
4902554	20	C	08/21/2021	00:56	-136.335	49.553	0	1665.20	0	2.1910	0	34.5330	0	27.591	0	1644.430	0	-1e10	8	-1e10	8	-1E+10	1	-1E+10	1	-1E+10	1	-1E+10	1	-1E+10	1	-1E+10	1
4902554	20	C	08/21/2021	00:56	-136.335	49.553	0	1675.80	0	2.1870	0	34.5340	0	27.592	0	1654.856	0	-1e10	8	-1e10	8	-1E+10	1	-1E+10	1	-1E+10	1	-1E+10	1	-1E+10	1	-1E+10	1
4902554	20	C	08/21/2021	00:56	-136.335	49.553	0	1685.30	0	2.1760	0	34.5360	0	27.595	0	1664.200	0	-1e10	8	-1e10	8	-1E+10	1	-1E+10	1	-1E+10	1	-1E+10	1	-1E+10	1	-1E+10	1
4902554	20	C	08/21/2021	00:56	-136.335	49.553	0	1695.30	0	2.1660	0	34.5380	0	27.597	0	1674.036	0	-1e10	8	-1e10	8	-1E+10	1	-1E+10	1	-1E+10	1	-1E+10	1	-1E+10	1	-1E+10	1
4902554	20	C	08/21/2021	00:56	-136.335	49.553	0	1705.40	0	2.1550	0	34.5410	0	27.601	0	1683.969	0	-1e10	8	-1e10	8	-1E+10	1	-1E+10	1	-1E+10	1	-1E+10	1	-1E+10	1	-1E+10	1
4902554	20	C	08/21/2021	00:56	-136.335	49.553	0	1715.40	0	2.1480	0	34.5420	0	27.602	0	1693.803	0	-1e10	8	-1e10	8	-1E+10	1	-1E+10	1	-1E+10	1	-1E+10	1	-1E+10	1	-1E+10	1
4902554	20	C	08/21/2021	00:56	-136.335	49.553	0	1725.50	0	2.1400	0	34.5440	0	27.604	0	1703.736	0	-1e10	8	-1e10	8	-1E+10	1	-1E+10	1	-1E+10	1	-1E+10	1	-1E+10	1	-1E+10	1
4902554	20	C	08/21/2021	00:56	-136.335	49.553	0	1735.70	0	2.1260	0	34.5460	0	27.607	0	1713.766	0	-1e10	8	-1e10	8	-1E+10	1	-1E+10	1	-1E+10	1	-1E+10	1	-1E+10	1	-1E+10	1
4902554	20	C	08/21/2021	00:56	-136.335	49.553	0	1745.60	0	2.1130	0	34.5490	0	27.611	0	1723.501	0	-1e10	8	-1e10	8	-1E+10	1	-1E+10	1	-1E+10	1	-1E+10	1	-1E+10	1	-1E+10	1
4902554	20	C	08/21/2021	00:56	-136.335	49.553	0	1755.10	0	2.1030	0	34.5510	0	27.613	0	1732.841	0	-1e10	8	-1e10	8	-1E+10	1	-1E+10	1	-1E+10	1	-1E+10	1	-1E+10	1	-1E+10	1
4902554	20	C	08/21/2021	00:56	-136.335	49.553	0	1765.30	0	2.0970	0	34.5520	0	27.614	0	1742.870	0	-1e10	8	-1e10	8	-1E+10	1	-1E+10	1	-1E+10	1	-1E+10	1	-1E+10	1	-1E+10	1
4902554	20	C	08/21/2021	00:56	-136.335	49.553	0	1775.60	0	2.0890	0	34.5540	0	27.617	0	1752.997	0	-1e10	8	-1e10	8	-1E+10	1	-1E+10	1	-1E+10	1	-1E+10	1	-1E+10	1	-1E+10	1
4902554	20	C	08/21/2021	00:56	-136.335	49.553	0	1785.70	0	2.0770	0	34.5560	0	27.619	0	1762.926	0	-1e10	8	-1e10	8	-1E+10	1	-1E+10	1	-1E+10	1	-1E+10	1	-1E+10	1	-1E+10	1
4902554	20	C	08/21/2021	00:56	-136.335	49.553	0	1795.50	0	2.0640	0	34.5590	0	27.623	0	1772.561	0	-1e10	8	-1e10	8	-1E+10	1	-1E+10	1	-1E+10	1	-1E+10	1	-1E+10	1	-1E+10	1
4902554	20	C	08/21/2021	00:56	-136.335	49.553	0	1805.10	0	2.0530	0	34.5610	0	27.625	0	1781.998	0	-1e10	8	-1e10	8	-1E+10	1	-1E+10	1	-1E+10	1	-1E+10	1	-1E+10	1	-1E+10	1
4902554	20	C	08/21/2021	00:56	-136.335	49.553	0	1815.30	0	2.0430	0	34.5630	0	27.628	0	1792.024	0	-1e10	8	-1e10	8	-1E+10	1	-1E+10	1	-1E+10	1	-1E+10	1	-1E+10	1	-1E+10	1
4902554	20	C	08/21/2021	00:56	-136.335	49.553	0	1825.90	0	2.0390	0	34.5630	0	27.628	0	1802.443	0	-1e10	8	-1e10	8	-1E+10	1	-1E+10	1	-1E+10	1	-1E+10	1	-1E+10	1	-1E+10	1
4902554	20	C	08/21/2021	00:56	-136.335	49.553	0	1835.80	0	2.0330	0	34.5650	0	27.630	0	1812.174	0	-1e10	8	-1e10	8	-1E+10	1	-1E+10	1	-1E+10	1	-1E+10	1	-1E+10	1	-1E+10	1
4902554	20	C	08/21/2021	00:56	-136.335	49.553	0	1845.40	0	2.0240	0	34.5660	0	27.632	0	1821.609	0	-1e10	8	-1e10	8	-1E+10	1	-1E+10	1	-1E+10	1	-1E+10	1	-1E+10	1	-1E+10	1
4902554	20	C	08/21/2021	00:56	-136.335	49.553	0	1855.10	0	2.0220	0	34.5670	0	27.633	0	1831.143	0	-1e10	8	-1e10	8	-1E+10	1	-1E+10	1	-1E+10	1	-1E+10	1	-1E+10	1	-1E+10	1
4902554	20	C	08/21/2021	00:56	-136.335	49.553	0	1865.10	0	2.0180	0	34.5680	0	27.634	0	1840.970	0	-1e10	8	-1e10	8	-1E+10	1	-1E+10	1	-1E+10	1	-1E+10	1	-1E+10	1	-1E+10	1
4902554	20	C	08/21/2021	00:56	-136.335	49.553	0	1875.30	0	2.0110	0	34.5690	0	27.635	0	1850.994	0	-1e10	8	-1e10	8	-1E+10	1	-1E+10	1	-1E+10	1	-1E+10	1	-1E+10	1	-1E+10	1
4902554	20	C	08/21/2021	00:56	-136.335	49.553	0	1885.20	0	2.0040	0	34.5710	0	27.638	0	1860.722	0	-1e10	8	-1e10	8	-1E+10	1	-1E+10	1	-1E+10	1	-1E+10	1	-1E+10	1	-1E+10	1
4902554	20	C	08/21/2021	00:56	-136.335	49.553	0	1895.40	0	1.9970	0	34.5720	0	27.639	0	1870.745	0	-1e10	8	-1e10	8	-1E+10	1	-1E+10	1	-1E+10	1	-1E+10	1	-1E+10	1	-1E+10	1
4902554	20	C	08/21/2021	00:56	-136.335	49.553	0	1905.80	0	1.9910	0	34.5730	0	27.640	0	1880.964	0	-1e10	8	-1e10	8	-1E+10	1	-1E+10	1	-1E+10	1	-1E+10	1	-1E+10	1	-1E+10	1
4902554	20	C	08/21/2021	00:56	-136.335	49.553	0	1915.40	0	1.9840	0	34.5750	0	27.643	0	1890.396	0	-1e10	8	-1e10	8	-1E+10	1	-1E+10	1	-1E+10	1	-1E+10	1	-1E+10	1	-1E+10	1
4902554	20	C	08/21/2021	00:56	-136.335	49.553	0	1925.30	0	1.9800	0	34.5760	0	27.644	0	1900.123	0	-1e10	8	-1e10	8	-1E+10	1	-1E+10	1	-1E+10	1	-1E+10	1	-1E+10	1	-1E+10	1
4902554	20	C	08/21/2021	00:56	-136.335	49.553	0	1935.50	0	1.9790	0	34.5760	0	27.644	0	1910.143	0	-1e10	8	-1e10	8	-1E+10	1	-1E+10	1	-1E+10	1	-1E+10	1	-1E+10	1	-1E+10	1
4902554	20	C	08/21/2021	00:56	-136.335	49.553	0	1945.60	0	1.9750	0	34.5770	0	27.645	0	1920.066	0	-1e10	8	-1e10	8	-1E+10	1	-1E+10	1	-1E+10	1	-1E+10	1	-1E+10	1	-1E+10	1
4902554	20	C	08/21/2021	00:56	-136.335	49.553	0	1955.60	0	1.9680	0	34.5780	0	27.646	0	1929.889	0	-1e10	8	-1e10	8	-1E+10	1	-1E+10	1	-1E+10	1	-1E+10	1	-1E+10	1	-1E+10	1
4902554	20	C	08/21/2021	00:56	-136.335	49.553	0	1965.60	0	1.9610	0	34.5800	0	27.649	0	1939.712	0	-1e10	8	-1e10	8	-1E+10	1	-1E+10	1	-1E+10	1	-1E+10	1	-1E+10	1	-1E+10	1
4902554	20	C	08/21/2021	00:56	-136.335	49.553	0	1975.90	0	1.9590	0	34.5810	0	27.650	0	1949.829	0	-1e10	8	-1e10	8	-1E+10	1	-1E+10	1	-1E+10	1	-1E+10	1	-1E+10	1	-1E+10	1
4902554	20	C	08/21/2021	00:56	-136.335	49.553	0	1986.20	0	1.9520	0	34.5820	0	27.651	0	1959.946	0	-1e10	8	-1e10	8	-1E+10	1	-1E+10	1	-1E+10	1	-1E+10	1	-1E+10	1	-1E+10	1
4902554	20	C	08/21/2021	00:56	-136.335	49.553	0	1992.70	0	1.9510	0	34.5820	0	27.651	0	1966.330	0	-1e10	8	-1e10	8	-1E+10	1	-1E+10	1	-1E+10	1	-1E+10	1	-1E+10	1	-1E+10	1
4902554	20	C	08/21/2021	00:56	-136.335	49.553	0																										
4902554	21	C	08/31/2021	06:02	-136.362	49.544	0	0.10	0	15.3890	0	32.2650	0	23.781	0	0.099	0	-1e10	8	-1e10	8	-1E+10	1	-1E+10	1	-1E+10	1	-1E+10	1	-1E+10	1	-1E+10	1
4902554	21	C	08/31/2021	06:02	-136.362	49.544	0	0.70	0	15.3890	0	32.2640	0	23.780	0	0.694	0	-1e10	8	-1e10	8	-1E+10	1	-1E+10	1	-1E+10	1	-1E+10	1	-1E+10	1	-1E+10	1
4902554	21	C	08/31/2021	06:02	-136.362	49.544	0	1.90	0	15.3890	0	32.2650	0	23.781	0	1.884	0	-1e10	8	-1e10	8	-1E+10	1	-1E+10	1	-1E+10	1	-1E+10	1	-1E+10	1	-1E+10	1
4902554	21	C	08/31/2021	06:02	-136.362	49.544	0	3.00	0	15.3890	0	32.2670	0	23.782	0	2.974	0	-1e10	8	-1e10	8	-1E+10	1	-1E+10	1	-1E+10	1	-1E+10	1	-1E+10	1	-1E+10	1
4902554	21	C	08/31/2021	06:02	-136.362	49.544	0	4.00	0	15.3910	0	32.2660	0	23.781	0	3.966	0	-1e10	8	-1e10	8	-1E+10	1	-1E+10	1	-1E+10	1	-1E+10	1	-1E+10	1	-1E+10	1
4902554	21	C	08/31/2021	06:02	-136.362	49.544	0	5.10	0	15.3920	0	32.2680	0	23.783	0	5.056	0	-1e10	8	-1e10	8	-1E+10	1	-1E+10	1	-1E+10	1	-1E+10	1	-1E+10	1	-1E+10	1
4902554	21	C	08/31/2021	06:02	-136.362	49.544	0	5.90	0	15.3940	0	32.2670	0	23.781	0	5.850	0	-1e10	8	-1e10	8	-1E+10	1	-1E+10	1	-1E+10	1	-1E+10	1	-1E+10	1	-1E+10	1
4902554	21	C	08/31/2021	06:02	-136.362	49.544	0	6.90	0	15.3920	0	32.2670	0	23.782	0	6.841	0	-1e10	8	-1e10	8	-1E+10	1	-1E+10	1	-1E+10	1	-1E+10	1	-1E+10	1	-1E+10	1
4902554	21	C	08/31/2021	06:02	-136.362	49.544	0	8.00	0	15.3920	0	32.2670	0	23.782	0	7.932	0	-1e10	8	-1e10	8	-1E+10	1	-1E+10	1	-1E+10	1	-1E+10	1	-1E+10	1	-1E+10	1
4902554	21	C	08/31/2021	06:02	-136.362	49.544	0	8.80	0	15.3920	0	32.2670	0	23.782	0	8.725	0	-1e10	8	-1e10	8	-1E+10	1	-1E+10	1	-1E+10	1	-1E+10	1	-1E+10	1	-1E+10	1
4902554	21	C	08/31/2021	06:02	-136.362	49.544	0	9.90	0	15.3900	0	32.2670	0	23.782	0	9.815	0	-1e10	8	-1e10	8	-1E+10	1	-1E+10	1	-1E+10	1	-1E+10	1	-1E+10	1	-1E+10	1
4902554	21	C	08/31/2021	06:02	-136.362	49.544	0	11.10	0	15.3900	0	32.2670	0	23.783	0	11.005	0	-1e10	8	-1e10	8	-1E+10	1	-1E+10	1	-1E+10	1	-1E+10	1	-1E+10	1	-1E+10	1
4902554	21	C	08/31/2021	06:02	-136.362	49.544	0	11.80	0	15.3910	0	32.2660	0	23.782	0	11.699	0	-1e10	8	-1e10	8	-1E+10	1	-1E+10	1	-1E+10	1	-1E+10	1	-1E+10	1	-1E+10	1
4902554	21	C	08/31/2021	06:02	-136.362	49.544	0	13.00	0	15.3910	0	32.2670	0	23.782	0	12.889	0	-1e10	8	-1e10	8	-1E+10	1	-1E+10	1	-1E+10	1	-1E+10	1	-1E+10	1	-1E+10	1
4902554	21	C	08/31/2021	06:02	-136.362	49.544	0	14.20	0	15.3920	0	32.2660	0	23.781	0	14.078	0	-1e10	8	-1e10	8	-1E+10	1	-1E+10	1	-1E+10	1	-1E+10	1	-1E+10	1	-1E+10	1
4902554	21	C	08/31/2021	06:02	-136.362	49.544	0	15.00	0	15.3900	0	32.2670	0	23.783	0	14.871	0	-1e10	8	-1e10	8	-1E+10	1	-1E+10	1	-1E+10	1	-1E+10	1	-1E+10	1	-1E+10	1
4902554	21	C	08/31/2021	06:02	-136.362	49.544	0	15.80	0	15.3910	0	32.2670	0	23.782	0	15.665	0	-1e10	8	-1e10	8	-1E+10	1	-1E+10	1	-1E+10	1	-1E+10	1	-1E+10	1	-1E+10	1
4902554	21	C	08/31/2021	06:02	-136.362	49.544	0	16.90	0	15.3910	0	32.2660	0	23.782	0	16.755	0	-1e10	8	-1e10	8	-1E+10	1	-1E+10	1	-1E+10	1	-1E+10	1	-1E+10	1	-1E+10	1
4902554	21	C	08/31/2021	06:02	-136.362	49.544	0	18.10	0	15.3930	0	32.2670	0	23.782	0	17.945	0	-1e10	8	-1e10	8	-1E+10	1	-1E+10	1	-1E+10	1	-1E+10	1	-1E+10	1	-1E+10	1
4902554	21	C	08/31/2021	06:02	-136.362	49.544	0	18.80	0	15.3910	0	32.2670	0	23.783	0	18.639	0	-1e10	8	-1e10	8	-1E+10	1	-1E+10	1	-1E+10	1	-1E+10	1	-1E+10	1	-1E+10	1
4902554	21	C	08/31/2021	06:02	-136.362	49.544	0	19.80	0	15.3920	0	32.2670	0	23.782	0	19.630	0	-1e10	8	-1e10	8	-1E+10	1	-1E+10	1	-1E+10	1	-1E+10	1	-1E+10	1	-1E+10	1
4902554	21	C	08/31/2021	06:02	-136.362	49.544	0	20.90	0	15.3930	0	32.2670	0	23.782	0	20.721	0	-1e10	8	-1e10	8	-1E+10	1	-1E+10	1	-1E+10	1	-1E+10	1	-1E+10	1	-1E+10	1
4902554	21	C	08/31/2021	06:02	-136.362	49.544	0	22.00	0	15.3930	0	32.2670	0	23.782	0	21.811	0	-1e10	8	-1e10	8	-1E+10	1	-1E+10	1	-1E+10	1	-1E+10	1	-1E+10	1	-1E+10	1
4902554	21	C	08/31/2021	06:02	-136.362	49.544	0	23.20	0	15.3840	0	32.2670	0	23.784	0	23.001	0	-1e10	8	-1e10	8	-1E+10	1	-1E+10	1	-1E+10	1	-1E+10	1	-1E+10	1	-1E+10	1
4902554	21	C	08/31/2021	06:02	-136.362	49.544	0	23.90	0	15.3780	0	32.2670	0	23.786	0	23.695	0	-1e10	8	-1e10	8	-1E+10	1	-1E+10	1	-1E+10	1	-1E+10	1	-1E+10	1	-1E+10	1
4902554	21	C	08/31/2021	06:02	-136.362	49.544	0	24.90	0	15.3760	0	32.2650	0	23.784	0	24.686	0	-1e10	8	-1e10	8	-1E+10	1	-1E+10	1	-1E+10	1	-1E+10	1	-1E+10	1	-1E+10	1
4902554	21	C	08/31/2021	06:02	-136.362	49.544	0	26.00	0	15.3740	0	32.2640	0	23.784	0	25.777	0	-1e10	8	-1e10	8	-1E+10	1	-1E+10	1	-1E+10	1	-1E+10	1	-1E+10	1	-1E+10	1
4902554	21	C	08/31/2021	06:02	-136.362	49.544	0	26.90	0	15.3570	0	32.2670	0	23.790	0	26.669	0	-1e10	8	-1e10	8	-1E+10	1	-1E+10	1	-1E+10	1	-1E+10	1	-1E+10	1	-1E+10	1
4902554	21	C	08/31/2021	06:02	-136.362	49.544	0	28.00	0	15.3550	0	32.2620	0	23.787	0	27.759	0	-1e10	8	-1e10	8	-1E+10	1	-1E+10	1	-1E+10	1	-1E+10	1	-1E+10	1	-1E+10	1
4902554	21	C	08/31/2021	06:02	-136.362	49.544	0	29.10	0	14.9620	0	32.2580	0	23.869	0	28.850	0	-1e10	8	-1e10	8	-1E+10	1	-1E+10	1	-1E+10	1	-1E+10	1	-1E+10	1	-1E+10	1
4902554	21	C	08/31/2021	06:02	-136.362	49.544	0	29.90	0	14.2700	0	32.2760	0	24.029	0	29.643	0	-1e10	8	-1e10	8	-1E+10	1	-1E+10	1	-1E+10	1	-1E+10	1	-1E+10	1	-1E+10	1
4902554	21	C	08/31/2021	06:02	-136.362	49.544	0	31.00	0	13.2850	0	32.2850	0	24.236	0	30.733	0	-1e10	8	-1e10	8	-1E+10	1	-1E+10	1	-1E+10	1	-1E+10	1	-1E+10	1	-1E+10	1
4902554	21	C	08/31/2021	06:02	-136.362	49.544	0	31.90	0	12.5470	0	32.2780	0	24.374	0	31.625	0	-1e10	8	-1e10	8	-1E+10	1	-1E+10	1	-1E+10	1	-1E+10	1	-1E+10	1	-1E+10	1
4902554	21	C	08/31/2021	06:02	-136.362	49.544	0	32.90	0	11.6630	0	32.3250	0	24.576	0	32.617	0	-1e10	8	-1e10	8	-1E+10	1	-1E+10	1	-1E+10	1	-1E+10	1	-1E+10	1	-1E+10	1
4902554	21	C	08/31/2021	06:02	-136.362	49.544	0	34.10	0	10.8420	0	32.3340	0	24.729	0	33.806	0	-1e10	8	-1e10	8	-1E+10	1	-1E+10	1	-1E+10	1	-1E+10	1	-1E+10	1	-1E+10	1
4902554	21	C	08/31/2021	06:02	-136.362	49.544	0	35.10	0	10.1010	0	32.3320	0	24.854	0	34.798	0	-1e10	8	-1e10	8	-1E+10	1	-1E+10	1	-1E+10	1	-1E+10	1	-1E+10	1	-1E+10	1
4902554	21	C	08/31/2021	06:02	-136.362	49.544	0	36.10	0	9.7510	0	32.3500	0	24.925	0	35.789	0	-1e10	8	-1e10	8	-1E+10	1	-1E+10	1	-1E+10	1	-1E+10	1	-1E+10	1	-1E+10	1
4902554	21	C	08/31/2021	06:02	-136.362	49.544	0	36.90	0	9.5140	0	32.3620	0	24.973	0	36.582	0	-1e10	8	-1e10	8	-1E+10	1	-1E+10	1	-1E+10	1	-1E+10	1	-1E+10	1	-1E+10	1
4902554	21	C	08/31/2021	06:02	-136.362	49.544	0	37.90	0	9.3650	0	32.3600	0	24.995	0	37.573	0	-1e10	8	-1e10	8	-1E+10	1	-1E+10	1	-1E+10	1	-1E+10	1	-1E+10	1	-1E+10	1
4902554	21	C	08/31/2021	06:02	-136.362	49.544	0	39.00	0	9.2160	0	32.3640	0	25.022	0	38.664	0	-1e10	8	-1e10	8	-1E+10	1	-1E+10	1	-1E+10	1	-1E+10	1	-1E+10	1	-1E+10	1
4902554	21	C	08/31/2021	06:02	-136.362	49.544	0	40.20	0	9.0830	0	32.3680	0	25.046	0	39.853	0	-1e10	8	-1e10	8	-1E+10	1	-1E+10	1	-1E+10	1	-1E+10	1	-1E+10	1	-1E+10	1
4902554	21	C	08/31/2021	06:02	-136.362	49.544	0	41.00	0	8.9020	0	32.3680	0	25.074	0	40.646	0	-1e10	8	-1e10	8	-1E+10	1	-1E+10	1	-1E+10	1	-1E+10	1	-1E+10	1	-1E+10	1
4902554	21	C	08/31/2021	06:02	-136.362	49.544	0	42.30	0	8.7960	0	32.3750	0	25.096	0	41.935	0	-1e10	8	-1e10	8	-1E+10	1	-1E+10	1	-1E+10	1	-1E+10	1	-1E+10	1	-1E+10	1
4902554	21	C	08/31/2021	06:02	-136.362	49.544	0	43.10	0	8.7380	0	32.3750	0	25.104	0	42.728	0	-1e10	8	-1e10	8	-1E+10	1	-1E+10	1	-1E+10	1	-1E+10	1	-1E+10	1	-1E+10	1
4902554	21	C	08/31/2021	06:02	-136.362	49.544	0	43.80	0	8.6730	0	32.3790	0	25.117	0	43.422	0	-1e10	8	-1e10	8	-1E+10	1	-1E+10	1	-1E+10	1	-1E+10	1	-1E+10	1	-1E+10	1
4902554	21	C	08/31/2021	06:02	-136.362	49.544	0	44.90	0	8.6180	0	32.3800	0	25.127	0	44.512	0	-1e10	8	-1e10	8	-1E+10	1	-1E+10	1	-1E+10	1	-1E+10	1	-1E+10	1	-1E+10	1
4902554	21	C	08/31/2021	06:02	-136.362	49.544	0	46.10	0	8.5860	0	32.3790	0	25.131	0	45.702	0	-1e10	8	-1e10	8	-1E+10	1	-1E+10	1	-1E+10	1	-1E+10	1	-1E+10	1	-1E+10	1
4902554	21	C	08/31/2021	06:02	-136.362	49.544	0	47.20	0	8.4340	0	32.3860	0	25.159	0	46.792	0	-1e10	8	-1e10	8	-1E+10	1	-1E+10	1	-1E+10	1	-1E+10	1	-1E+10	1	-1E+10	1
4902554	21	C	08/31/2021	06:02	-136.362	49.544	0	48.00	0	8.3460	0	32.3890	0	25.174	0	47.585	0	-1e10	8	-1e10	8	-1E+10	1	-1E+10	1	-1E+10	1	-1E+10	1	-1E+10	1	-1E+10	1
4902554	21	C	08/31/2021	06:02	-136.362	49.544	0	49.10	0	8.2920	0	32.3910	0	25.184	0	48.675	0	-1e10	8	-1e10	8	-1E+10	1	-1E+10	1	-1E+10	1	-1E+10	1	-1E+10	1	-1E+10	1
4902554	21	C	08/31/2021	06:02	-136.362	49.544	0	50.00	0	8.2450	0	32.3920	0	25.191	0	49.567	0	-1e10	8	-1e10	8	-1E+10	1	-1E+10	1	-1E+10	1	-1E+10	1	-1E+10	1	-1E+10	1
4902554	21	C	08/31/2021	06:02	-136.362	49.544	0	50.90	0	8.2170	0	32.3900	0	25.194	0	50.460	0	-1e10	8	-1e10	8	-1E+10	1	-1E+10	1	-1E+10	1	-1E+10	1	-1E+10	1	-1E+10	1
4902554	21	C	08/31/2021	06:02	-136.362	49.544	0	51.80	0	8.1490	0	32.3930	0	25.206	0	51.352	0	-1e10	8	-1e10	8	-1E+10	1	-1E+10	1	-1E+10	1	-1E+10	1	-1E+10	1	-1E+10	1
4902554	21	C	08/31/2021	06:02	-136.362	49.544	0	52.80	0	8.0820	0	32.3910	0	25.215	0	52.343	0	-1e10	8	-1e10	8	-1E+10	1	-1E+10	1	-1E+10	1	-1E+10	1	-1E+10	1	-1E+10	1
4902554	21	C	08/31/2021	06:02	-136.362	49.544	0	53.90	0	7.9200	0	32.3960	0	25.242	0	53.433	0	-1e10	8	-1e10	8	-1E+10	1	-1E+10	1	-1E+10	1	-1E+10	1	-1E+10	1	-1E+10	1
4902554	21	C	08/31/2021	06:02	-136.362	49.544	0	55.00	0	7.7170	0	32.4020	0	25.275	0	54.523	0	-1e10	8	-1e10	8	-1E+10	1	-1E+10	1	-1E+10	1	-1E+10	1	-1E+10	1	-1E+10	1
4902554	21	C	08/31/2021	06:02	-136.362	49.544	0	55.90	0	7.6130	0	32.4030	0	25.291	0	55.416	0	-1e10	8	-1e10	8	-1E+10	1	-1E+10	1	-1E+10	1	-1E+10	1	-1E+10	1	-1E+10	1
4902554	21	C	08/31/2021	06:02	-136.362	49.544	0	56.80	0	7.4740	0	32.4140	0	25.319	0	56.308	0	-1e10	8	-1e10	8	-1E+10	1	-1E+10	1	-1E+10	1	-1E+10	1	-1E+10	1	-1E+10	1
4902554	21	C	08/31/2021	06:02	-136.362	49.544	0	58.10	0	7.3160	0	32.4170	0	25.343	0	57.596	0	-1e10	8	-1e10	8	-1E+10	1	-1E+10	1	-1E+10	1	-1E+10	1	-1E+10	1	-1E+10	1
4902554	21	C	08/31/2021	06:02	-136.362	49.544	0	59.00	0	7.2160	0	32.4240	0	25.362	0	58.488	0	-1e10	8	-1e10	8	-1E+10	1	-1E+10	1	-1E+10	1	-1E+10	1	-1E+10	1	-1E+10	1
4902554	21	C	08/31/2021	06:02	-136.362	49.544	0	59.90	0	7.1770	0	32.4230	0	25.366	0	59.380	0	-1e10	8	-1e10	8	-1E+10	1	-1E+10	1	-1E+10	1	-1E+10	1	-1E+10	1	-1E+10	1
4902554	21	C	08/31/2021	06:02	-136.362	49.544	0	60.90	0	7.1590	0	32.4240	0	25.370	0	60.372	0	-1e10	8	-1e10	8	-1E+10	1	-1E+10	1	-1E+10	1	-1E+10	1	-1E+10	1	-1E+10	1
4902554	21	C	08/31/2021	06:02	-136.362	49.544	0	61.80	0	7.0920	0	32.4250	0	25.379	0	61.264	0	-1e10	8	-1e10	8	-1E+10	1	-1E+10	1	-1E+10	1	-1E+10	1	-1E+10	1	-1E+10	1
4902554	21	C	08/31/2021	06:02	-136.362	49.544	0	63.10	0	7.0370	0	32.4290	0	25.390	0	62.552	0	-1e10	8	-1e10	8	-1E+10	1	-1E+10	1	-1E+10	1	-1E+10	1	-1E+10	1	-1E+10	1
4902554	21	C	08/31/2021	06:02	-136.362	49.544	0	64.00	0	7.0060	0	32.4280	0	25.393	0	63.444	0	-1e10	8	-1e10	8	-1E+10	1	-1E+10	1	-1E+10	1	-1E+10	1	-1E+10	1	-1E+10	1
4902554	21	C	08/31/2021	06:02	-136.362	49.544	0	65.00	0	6.9640	0	32.4320	0	25.402	0	64.435	0	-1e10	8	-1e10	8	-1E+10	1	-1E+10	1	-1E+10	1	-1E+10	1	-1E+10	1	-1E+10	1
4902554	21	C	08/31/2021	06:02	-136.362	49.544	0	65.90	0	6.9240	0	32.4330	0	25.408	0	65.327	0	-1e10	8	-1e10	8	-1E+10	1	-1E+10	1	-1E+10	1	-1E+10	1	-1E+10	1	-1E+10	1
4902554	21	C	08/31/2021	06:02	-136.362	49.544	0	66.80	0	6.9070	0	32.4340	0	25.411	0	66.219	0	-1e10	8	-1e10	8	-1E+10	1	-1E+10	1	-1E+10	1	-1E+10	1	-1E+10	1	-1E+10	1
4902554	21	C	08/31/2021	06:02	-136.362	49.544	0	68.00	0	6.8940	0	32.4340	0	25.413	0	67.409	0	-1e10	8	-1e10	8	-1E+10	1	-1E+10	1	-1E+10	1	-1E+10	1	-1E+10	1	-1E+10	1
4902554	21	C	08/31/2021	06:02	-136.362	49.544	0	69.30	0	6.8530	0	32.4360	0	25.420	0	68.697	0	-1e10	8	-1e10	8	-1E+10	1	-1E+10	1	-1E+10	1	-1E+10	1	-1E+10	1	-1E+10	1
4902554	21	C	08/31/2021	06:02	-136.362	49.544	0	70.10	0	6.8280	0	32.4370	0	25.424	0	69.490	0	-1e10	8	-1e10	8	-1E+10	1	-1E+10	1	-1E+10	1	-1E+10	1	-1E+10	1	-1E+10	1
4902554	21	C	08/31/2021	06:02	-136.362	49.544	0	70.90	0	6.7870	0	32.4390	0	25.431	0	70.283	0	-1e10	8	-1e10	8	-1E+10	1	-1E+10	1	-1E+10	1	-1E+10	1	-1E+10	1	-1E+10	1
4902554	21	C	08/31/2021	06:02	-136.362	49.544	0	72.00	0	6.7480	0	32.4400	0	25.437	0	71.373	0	-1e10	8	-1e10	8	-1E+10	1	-1E+10	1	-1E+10	1	-1E+10	1	-1E+10	1	-1E+10	1
4902554	21	C	08/31/2021	06:02	-136.362	49.544	0	72.90	0	6.7230	0	32.4410	0	25.441	0	72.265	0	-1e10	8	-1e10	8	-1E+10	1	-1E+10	1	-1E+10	1	-1E+10	1	-1E+10	1	-1E+10	1
4902554	21	C	08/31/2021	06:02	-136.362	49.544	0	73.90	0	6.6990	0	32.4410	0	25.444	0	73.256	0	-1e10	8	-1e10	8	-1E+10	1	-1E+10	1	-1E+10	1	-1E+10	1	-1E+10	1	-1E+10	1
4902554	21	C	08/31/2021	06:02	-136.362	49.544	0	74.80	0	6.6740	0	32.4430	0	25.449	0	74.148	0	-1e10	8	-1e10	8	-1E+10	1	-1E+10	1	-1E+10	1	-1E+10	1	-1E+10	1	-1E+10	1
4902554	21	C	08/31/2021	06:02	-136.362	49.544	0	75.80	0	6.6540	0	32.4440	0	25.452	0	75.140	0	-1e10	8	-1e10	8	-1E+10	1	-1E+10	1	-1E+10	1	-1E+10	1	-1E+10	1	-1E+10	1
4902554	21	C	08/31/2021	06:02	-136.362	49.544	0	76.90	0	6.6440	0	32.4440	0	25.454	0	76.230	0	-1e10	8	-1e10	8	-1E+10	1	-1E+10	1	-1E+10	1	-1E+10	1	-1E+10	1	-1E+10	1
4902554	21	C	08/31/2021	06:02	-136.362	49.544	0	78.00	0	6.6300	0	32.4430	0	25.455	0	77.320	0	-1e10	8	-1e10	8	-1E+10	1	-1E+10	1	-1E+10	1	-1E+10	1	-1E+10	1	-1E+10	1
4902554	21	C	08/31/2021	06:02	-136.362	49.544	0	79.10	0	6.5860	0	32.4470	0	25.463	0	78.410	0	-1e10	8	-1e10	8	-1E+10	1	-1E+10	1	-1E+10	1	-1E+10	1	-1E+10	1	-1E+10	1
4902554	21	C	08/31/2021	06:02	-136.362	49.544	0	79.90	0	6.5760	0	32.4460	0	25.464	0	79.203	0	-1e10	8	-1e10	8	-1E+10	1	-1E+10	1	-1E+10	1	-1E+10	1	-1E+10	1	-1E+10	1
4902554	21	C	08/31/2021	06:02	-136.362	49.544	0	81.00	0	6.5520	0	32.4470	0	25.468	0	80.293	0	-1e10	8	-1e10	8	-1E+10	1	-1E+10	1	-1E+10	1	-1E+10	1	-1E+10	1	-1E+10	1
4902554	21	C	08/31/2021	06:02	-136.362	49.544	0	82.10	0	6.5240	0	32.4500	0	25.474	0	81.383	0	-1e10	8	-1e10	8	-1E+10	1	-1E+10	1	-1E+10	1	-1E+10	1	-1E+10	1	-1E+10	1
4902554	21	C	08/31/2021	06:02	-136.362	49.544	0	82.80	0	6.5060	0	32.4500	0	25.476	0	82.077	0	-1e10	8	-1e10	8	-1E+10	1	-1E+10	1	-1E+10	1	-1E+10	1	-1E+10	1	-1E+10	1
4902554	21	C	08/31/2021	06:02	-136.362	49.544	0	83.80	0	6.4840	0	32.4500	0	25.479	0	83.068	0	-1e10	8	-1e10	8	-1E+10	1	-1E+10	1	-1E+10	1	-1E+10	1	-1E+10	1	-1E+10	1
4902554	21	C	08/31/2021	06:02	-136.362	49.544	0	84.90	0	6.4600	0	32.4520	0	25.483	0	84.158	0	-1e10	8	-1e10	8	-1E+10	1	-1E+10	1	-1E+10	1	-1E+10	1	-1E+10	1	-1E+10	1
4902554	21	C	08/31/2021	06:02	-136.362	49.544	0	86.10	0	6.4090	0	32.4560	0	25.493	0	85.348	0	-1e10	8	-1e10	8	-1E+10	1	-1E+10	1	-1E+10	1	-1E+10	1	-1E+10	1	-1E+10	1
4902554	21	C	08/31/2021	06:02	-136.362	49.544	0	86.90	0	6.3900	0	32.4570	0	25.496	0	86.140	0	-1e10	8	-1e10	8	-1E+10	1	-1E+10	1	-1E+10	1	-1E+10	1	-1E+10	1	-1E+10	1
4902554	21	C	08/31/2021	06:02	-136.362	49.544	0	88.00	0	6.3520	0	32.4610	0	25.504	0	87.231	0	-1e10	8	-1e10	8	-1E+10	1	-1E+10	1	-1E+10	1	-1E+10	1	-1E+10	1	-1E+10	1
4902554	21	C	08/31/2021	06:02	-136.362	49.544	0	89.20	0	6.3250	0	32.4630	0	25.509	0	88.420	0	-1e10	8	-1e10	8	-1E+10	1	-1E+10	1	-1E+10	1	-1E+10	1	-1E+10	1	-1E+10	1
4902554	21	C	08/31/2021	06:02	-136.362	49.544	0	89.90	0	6.3120	0	32.4640	0	25.512	0	89.114	0	-1e10	8	-1e10	8	-1E+10	1	-1E+10	1	-1E+10	1	-1E+10	1	-1E+10	1	-1E+10	1
4902554	21	C	08/31/2021	06:02	-136.362	49.544	0	91.10	0	6.2830	0	32.4690	0	25.519	0	90.303	0	-1e10	8	-1e10	8	-1E+10	1	-1E+10	1	-1E+10	1	-1E+10	1	-1E+10	1	-1E+10	1
4902554	21	C	08/31/2021	06:02	-136.362	49.544	0	91.80	0	6.2650	0	32.4690	0	25.522	0	90.997	0	-1e10	8	-1e10	8	-1E+10	1	-1E+10	1	-1E+10	1	-1E+10	1	-1E+10	1	-1E+10	1
4902554	21	C	08/31/2021	06:02	-136.362	49.544	0	93.00	0	6.2490	0	32.4700	0	25.524	0	92.186	0	-1e10	8	-1e10	8	-1E+10	1	-1E+10	1	-1E+10	1	-1E+10	1	-1E+10	1	-1E+10	1
4902554	21	C	08/31/2021	06:02	-136.362	49.544	0	94.20	0	6.2230	0	32.4720	0	25.529	0	93.375	0	-1e10	8	-1e10	8	-1E+10	1	-1E+10	1	-1E+10	1	-1E+10	1	-1E+10	1	-1E+10	1
4902554	21	C	08/31/2021	06:02	-136.362	49.544	0	94.90	0	6.2020	0	32.4720	0	25.532	0	94.069	0	-1e10	8	-1e10	8	-1E+10	1	-1E+10	1	-1E+10	1	-1E+10	1	-1E+10	1	-1E+10	1
4902554	21	C	08/31/2021	06:02	-136.362	49.544	0	96.10	0	6.1760	0	32.4730	0	25.536	0	95.258	0	-1e10	8	-1e10	8	-1E+10	1	-1E+10	1	-1E+10	1	-1E+10	1	-1E+10	1	-1E+10	1
4902554	21	C	08/31/2021	06:02	-136.362	49.544	0	96.90	0	6.1650	0	32.4740	0	25.538	0	96.051	0	-1e10	8	-1e10	8	-1E+10	1	-1E+10	1	-1E+10	1	-1E+10	1	-1E+10	1	-1E+10	1
4902554	21	C	08/31/2021	06:02	-136.362	49.544	0	98.10	0	6.1440	0	32.4740	0	25.541	0	97.240	0	-1e10	8	-1e10	8	-1E+10	1	-1E+10	1	-1E+10	1	-1E+10	1	-1E+10	1	-1E+10	1
4902554	21	C	08/31/2021	06:02	-136.362	49.544	0	98.90	0	6.1330	0	32.4760	0	25.543	0	98.033	0	-1e10	8	-1e10	8	-1E+10	1	-1E+10	1	-1E+10	1	-1E+10	1	-1E+10	1	-1E+10	1
4902554	21	C	08/31/2021	06:02	-136.362	49.544	0	100.20	0	6.1150	0	32.4790	0	25.548	0	99.321	0	-1e10	8	-1e10	8	-1E+10	1	-1E+10	1	-1E+10	1	-1E+10	1	-1E+10	1	-1E+10	1
4902554	21	C	08/31/2021	06:02	-136.362	49.544	0	101.00	0	6.1050	0	32.4810	0	25.551	0	100.114	0	-1e10	8	-1e10	8	-1E+10	1	-1E+10	1	-1E+10	1	-1E+10	1	-1E+10	1	-1E+10	1
4902554	21	C	08/31/2021	06:02	-136.362	49.544	0	101.90	0	6.0940	0	32.4810	0	25.552	0	101.006	0	-1e10	8	-1e10	8	-1E+10	1	-1E+10	1	-1E+10	1	-1E+10	1	-1E+10	1	-1E+10	1
4902554	21	C	08/31/2021	06:02	-136.362	49.544	0	103.20	0	6.0830	0	32.4830	0	25.555	0	102.294	0	-1e10	8	-1e10	8	-1E+10	1	-1E+10	1	-1E+10	1	-1E+10	1	-1E+10	1	-1E+10	1
4902554	21	C	08/31/2021	06:02	-136.362	49.544	0	103.80	0	6.0800	0	32.4830	0	25.556	0	102.889	0	-1e10	8	-1e10	8	-1E+10	1	-1E+10	1	-1E+10	1	-1E+10	1	-1E+10	1	-1E+10	1
4902554	21	C	08/31/2021	06:02	-136.362	49.544	0	104.70	0	6.0690	0	32.4840	0	25.558	0	103.780	0	-1e10	8	-1e10	8	-1E+10	1	-1E+10	1	-1E+10	1	-1E+10	1	-1E+10	1	-1E+10	1
4902554	21	C	08/31/2021	06:02	-136.362	49.544	0	106.10	0	6.0440	0	32.4860	0	25.562	0	105.168	0	-1e10	8	-1e10	8	-1E+10	1	-1E+10	1	-1E+10	1	-1E+10	1	-1E+10	1	-1E+10	1
4902554	21	C	08/31/2021	06:02	-136.362	49.544	0	107.00	0	6.0370	0	32.4880	0	25.565	0	106.060	0	-1e10	8	-1e10	8	-1E+10	1	-1E+10	1	-1E+10	1	-1E+10	1	-1E+10	1	-1E+10	1
4902554	21	C	08/31/2021	06:02	-136.362	49.544	0	108.00	0	6.0370	0	32.4930	0	25.569	0	107.051	0	-1e10	8	-1e10	8	-1E+10	1	-1E+10	1	-1E+10	1	-1E+10	1	-1E+10	1	-1E+10	1
4902554	21	C	08/31/2021	06:02	-136.362	49.544	0	109.00	0	6.0150	0	32.4950	0	25.573	0	108.042	0	-1e10	8	-1e10	8	-1E+10	1	-1E+10	1	-1E+10	1	-1E+10	1	-1E+10	1	-1E+10	1
4902554	21	C	08/31/2021	06:02	-136.362	49.544	0	110.00	0	6.0150	0	32.4980	0	25.575	0	109.032	0	-1e10	8	-1e10	8	-1E+10	1	-1E+10	1	-1E+10	1	-1E+10	1	-1E+10	1	-1E+10	1
4902554	21	C	08/31/2021	06:02	-136.362	49.544	0	111.00	0	6.0110	0	32.5030	0	25.580	0	110.023	0	-1e10	8	-1e10	8	-1E+10	1	-1E+10	1	-1E+10	1	-1E+10	1	-1E+10	1	-1E+10	1
4902554	21	C	08/31/2021	06:02	-136.362	49.544	0	111.90	0	6.0020	0	32.5070	0	25.584	0	110.915	0	-1e10	8	-1e10	8	-1E+10	1	-1E+10	1	-1E+10	1	-1E+10	1	-1E+10	1	-1E+10	1
4902554	21	C	08/31/2021	06:02	-136.362	49.544	0	113.00	0	5.9840	0	32.5080	0	25.587	0	112.005	0	-1e10	8	-1e10	8	-1E+10	1	-1E+10	1	-1E+10	1	-1E+10	1	-1E+10	1	-1E+10	1
4902554	21	C	08/31/2021	06:02	-136.362	49.544	0	114.00	0	5.9520	0	32.5110	0	25.593	0	112.996	0	-1e10	8	-1e10	8	-1E+10	1	-1E+10	1	-1E+10	1	-1E+10	1	-1E+10	1	-1E+10	1
4902554	21	C	08/31/2021	06:02	-136.362	49.544	0	115.10	0	5.9650	0	32.5280	0	25.605	0	114.086	0	-1e10	8	-1e10	8	-1E+10	1	-1E+10	1	-1E+10	1	-1E+10	1	-1E+10	1	-1E+10	1
4902554	21	C	08/31/2021	06:02	-136.362	49.544	0	115.90	0	5.9590	0	32.5370	0	25.613	0	114.879	0	-1e10	8	-1e10	8	-1E+10	1	-1E+10	1	-1E+10	1	-1E+10	1	-1E+10	1	-1E+10	1
4902554	21	C	08/31/2021	06:02	-136.362	49.544	0	116.70	0	5.9600	0	32.5440	0	25.618	0	115.672	0	-1e10	8	-1e10	8	-1E+10	1	-1E+10	1	-1E+10	1	-1E+10	1	-1E+10	1	-1E+10	1
4902554	21	C	08/31/2021	06:02	-136.362	49.544	0	117.80	0	5.9920	0	32.5570	0	25.625	0	116.762	0	-1e10	8	-1e10	8	-1E+10	1	-1E+10	1	-1E+10	1	-1E+10	1	-1E+10	1	-1E+10	1
4902554	21	C	08/31/2021	06:02	-136.362	49.544	0	118.90	0	6.0160	0	32.5700	0	25.632	0	117.852	0	-1e10	8	-1e10	8	-1E+10	1	-1E+10	1	-1E+10	1	-1E+10	1	-1E+10	1	-1E+10	1
4902554	21	C	08/31/2021	06:02	-136.362	49.544	0	120.00	0	6.0810	0	32.6150	0	25.660	0	118.942	0	-1e10	8	-1e10	8	-1E+10	1	-1E+10	1	-1E+10	1	-1E+10	1	-1E+10	1	-1E+10	1
4902554	21	C	08/31/2021	06:02	-136.362	49.544	0	120.90	0	6.1160	0	32.6440	0	25.678	0	119.833	0	-1e10	8	-1e10	8	-1E+10	1	-1E+10	1	-1E+10	1	-1E+10	1	-1E+10	1	-1E+10	1
4902554	21	C	08/31/2021	06:02	-136.362	49.544	0	121.80	0	6.1140	0	32.6530	0	25.686	0	120.725	0	-1e10	8	-1e10	8	-1E+10	1	-1E+10	1	-1E+10	1	-1E+10	1	-1E+10	1	-1E+10	1
4902554	21	C	08/31/2021	06:02	-136.362	49.544	0	123.00	0	6.1000	0	32.6730	0	25.703	0	121.914	0	-1e10	8	-1e10	8	-1E+10	1	-1E+10	1	-1E+10	1	-1E+10	1	-1E+10	1	-1E+10	1
4902554	21	C	08/31/2021	06:02	-136.362	49.544	0	123.90	0	6.0910	0	32.6860	0	25.715	0	122.806	0	-1e10	8	-1e10	8	-1E+10	1	-1E+10	1	-1E+10	1	-1E+10	1	-1E+10	1	-1E+10	1
4902554	21	C	08/31/2021	06:02	-136.362	49.544	0	124.80	0	6.1130	0	32.7030	0	25.725	0	123.698	0	-1e10	8	-1e10	8	-1E+10	1	-1E+10	1	-1E+10	1	-1E+10	1	-1E+10	1	-1E+10	1
4902554	21	C	08/31/2021	06:02	-136.362	49.544	0	126.00	0	6.1080	0	32.7200	0	25.739	0	124.887	0	-1e10	8	-1e10	8	-1E+10	1	-1E+10	1	-1E+10	1	-1E+10	1	-1E+10	1	-1E+10	1
4902554	21	C	08/31/2021	06:02	-136.362	49.544	0	127.00	0	6.0640	0	32.7350	0	25.757	0	125.878	0	-1e10	8	-1e10	8	-1E+10	1	-1E+10	1	-1E+10	1	-1E+10	1	-1E+10	1	-1E+10	1
4902554	21	C	08/31/2021	06:02	-136.362	49.544	0	127.90	0	6.0640	0	32.7660	0	25.781	0	126.770	0	-1e10	8	-1e10	8	-1E+10	1	-1E+10	1	-1E+10	1	-1E+10	1	-1E+10	1	-1E+10	1
4902554	21	C	08/31/2021	06:02	-136.362	49.544	0	128.90	0	6.0670	0	32.7770	0	25.790	0	127.760	0	-1e10	8	-1e10	8	-1E+10	1	-1E+10	1	-1E+10	1	-1E+10	1	-1E+10	1	-1E+10	1
4902554	21	C	08/31/2021	06:02	-136.362	49.544	0	129.90	0	6.0750	0	32.7940	0	25.802	0	128.751	0	-1e10	8	-1e10	8	-1E+10	1	-1E+10	1	-1E+10	1	-1E+10	1	-1E+10	1	-1E+10	1
4902554	21	C	08/31/2021	06:02	-136.362	49.544	0	130.90	0	6.0900	0	32.8080	0	25.811	0	129.742	0	-1e10	8	-1e10	8	-1E+10	1	-1E+10	1	-1E+10	1	-1E+10	1	-1E+10	1	-1E+10	1
4902554	21	C	08/31/2021	06:02	-136.362	49.544	0	131.90	0	6.1250	0	32.8360	0	25.829	0	130.733	0	-1e10	8	-1e10	8	-1E+10	1	-1E+10	1	-1E+10	1	-1E+10	1	-1E+10	1	-1E+10	1
4902554	21	C	08/31/2021	06:02	-136.362	49.544	0	133.00	0	6.1630	0	32.8560	0	25.840	0	131.823	0	-1e10	8	-1e10	8	-1E+10	1	-1E+10	1	-1E+10	1	-1E+10	1	-1E+10	1	-1E+10	1
4902554	21	C	08/31/2021	06:02	-136.362	49.544	0	134.00	0	6.1810	0	32.9340	0	25.899	0	132.814	0	-1e10	8	-1e10	8	-1E+10	1	-1E+10	1	-1E+10	1	-1E+10	1	-1E+10	1	-1E+10	1
4902554	21	C	08/31/2021	06:02	-136.362	49.544	0	135.00	0	6.1920	0	32.9650	0	25.923	0	133.804	0	-1e10	8	-1e10	8	-1E+10	1	-1E+10	1	-1E+10	1	-1E+10	1	-1E+10	1	-1E+10	1
4902554	21	C	08/31/2021	06:02	-136.362	49.544	0	135.70	0	6.1990	0	33.0050	0	25.953	0	134.498	0	-1e10	8	-1e10	8	-1E+10	1	-1E+10	1	-1E+10	1	-1E+10	1	-1E+10	1	-1E+10	1
4902554	21	C	08/31/2021	06:02	-136.362	49.544	0	136.80	0	6.2030	0	33.0530	0	25.991	0	135.588	0	-1e10	8	-1e10	8	-1E+10	1	-1E+10	1	-1E+10	1	-1E+10	1	-1E+10	1	-1E+10	1
4902554	21	C	08/31/2021	06:02	-136.362	49.544	0	138.00	0	6.2080	0	33.0910	0	26.020	0	136.777	0	-1e10	8	-1e10	8	-1E+10	1	-1E+10	1	-1E+10	1	-1E+10	1	-1E+10	1	-1E+10	1
4902554	21	C	08/31/2021	06:02	-136.362	49.544	0	138.80	0	6.2110	0	33.1280	0	26.049	0	137.570	0	-1e10	8	-1e10	8	-1E+10	1	-1E+10	1	-1E+10	1	-1E+10	1	-1E+10	1	-1E+10	1
4902554	21	C	08/31/2021	06:02	-136.362	49.544	0	139.60	0	6.2130	0	33.1380	0	26.057	0	138.362	0	-1e10	8	-1e10	8	-1E+10	1	-1E+10	1	-1E+10	1	-1E+10	1	-1E+10	1	-1E+10	1
4902554	21	C	08/31/2021	06:02	-136.362	49.544	0	140.90	0	6.2070	0	33.1830	0	26.093	0	139.650	0	-1e10	8	-1e10	8	-1E+10	1	-1E+10	1	-1E+10	1	-1E+10	1	-1E+10	1	-1E+10	1
4902554	21	C	08/31/2021	06:02	-136.362	49.544	0	142.30	0	6.2060	0	33.2110	0	26.115	0	141.037	0	-1e10	8	-1e10	8	-1E+10	1	-1E+10	1	-1E+10	1	-1E+10	1	-1E+10	1	-1E+10	1
4902554	21	C	08/31/2021	06:02	-136.362	49.544	0	143.20	0	6.2080	0	33.2380	0	26.136	0	141.929	0	-1e10	8	-1e10	8	-1E+10	1	-1E+10	1	-1E+10	1	-1E+10	1	-1E+10	1	-1E+10	1
4902554	21	C	08/31/2021	06:02	-136.362	49.544	0	144.10	0	6.2090	0	33.2570	0	26.151	0	142.821	0	-1e10	8	-1e10	8	-1E+10	1	-1E+10	1	-1E+10	1	-1E+10	1	-1E+10	1	-1E+10	1
4902554	21	C	08/31/2021	06:02	-136.362	49.544	0	145.10	0	6.2100	0	33.2720	0	26.163	0	143.812	0	-1e10	8	-1e10	8	-1E+10	1	-1E+10	1	-1E+10	1	-1E+10	1	-1E+10	1	-1E+10	1
4902554	21	C	08/31/2021	06:02	-136.362	49.544	0	146.00	0	6.2100	0	33.2990	0	26.184	0	144.703	0	-1e10	8	-1e10	8	-1E+10	1	-1E+10	1	-1E+10	1	-1E+10	1	-1E+10	1	-1E+10	1
4902554	21	C	08/31/2021	06:02	-136.362	49.544	0	147.00	0	6.2100	0	33.3160	0	26.198	0	145.694	0	-1e10	8	-1e10	8	-1E+10	1	-1E+10	1	-1E+10	1	-1E+10	1	-1E+10	1	-1E+10	1
4902554	21	C	08/31/2021	06:02	-136.362	49.544	0	148.00	0	6.2090	0	33.3330	0	26.211	0	146.685	0	-1e10	8	-1e10	8	-1E+10	1	-1E+10	1	-1E+10	1	-1E+10	1	-1E+10	1	-1E+10	1
4902554	21	C	08/31/2021	06:02	-136.362	49.544	0	149.00	0	6.2090	0	33.3440	0	26.220	0	147.675	0	-1e10	8	-1e10	8	-1E+10	1	-1E+10	1	-1E+10	1	-1E+10	1	-1E+10	1	-1E+10	1
4902554	21	C	08/31/2021	06:02	-136.362	49.544	0	150.00	0	6.2100	0	33.3720	0	26.242	0	148.666	0	-1e10	8	-1e10	8	-1E+10	1	-1E+10	1	-1E+10	1	-1E+10	1	-1E+10	1	-1E+10	1
4902554	21	C	08/31/2021	06:02	-136.362	49.544	0	151.00	0	6.2080	0	33.3810	0	26.249	0	149.657	0	-1e10	8	-1e10	8	-1E+10	1	-1E+10	1	-1E+10	1	-1E+10	1	-1E+10	1	-1E+10	1
4902554	21	C	08/31/2021	06:02	-136.362	49.544	0	152.00	0	6.2070	0	33.3890	0	26.256	0	150.648	0	-1e10	8	-1e10	8	-1E+10	1	-1E+10	1	-1E+10	1	-1E+10	1	-1E+10	1	-1E+10	1
4902554	21	C	08/31/2021	06:02	-136.362	49.544	0	153.00	0	6.2060	0	33.3940	0	26.260	0	151.638	0	-1e10	8	-1e10	8	-1E+10	1	-1E+10	1	-1E+10	1	-1E+10	1	-1E+10	1	-1E+10	1
4902554	21	C	08/31/2021	06:02	-136.362	49.544	0	154.00	0	6.2030	0	33.4230	0	26.283	0	152.629	0	-1e10	8	-1e10	8	-1E+10	1	-1E+10	1	-1E+10	1	-1E+10	1	-1E+10	1	-1E+10	1
4902554	21	C	08/31/2021	06:02	-136.362	49.544	0	155.10	0	6.1980	0	33.4520	0	26.306	0	153.719	0	-1e10	8	-1e10	8	-1E+10	1	-1E+10	1	-1E+10	1	-1E+10	1	-1E+10	1	-1E+10	1
4902554	21	C	08/31/2021	06:02	-136.362	49.544	0	156.10	0	6.1980	0	33.4520	0	26.306	0	154.710	0	-1e10	8	-1e10	8	-1E+10	1	-1E+10	1	-1E+10	1	-1E+10	1	-1E+10	1	-1E+10	1
4902554	21	C	08/31/2021	06:02	-136.362	49.544	0	157.20	0	6.1980	0	33.4650	0	26.317	0	155.799	0	-1e10	8	-1e10	8	-1E+10	1	-1E+10	1	-1E+10	1	-1E+10	1	-1E+10	1	-1E+10	1
4902554	21	C	08/31/2021	06:02	-136.362	49.544	0	158.30	0	6.1910	0	33.5040	0	26.348	0	156.889	0	-1e10	8	-1e10	8	-1E+10	1	-1E+10	1	-1E+10	1	-1E+10	1	-1E+10	1	-1E+10	1
4902554	21	C	08/31/2021	06:02	-136.362	49.544	0	159.30	0	6.1810	0	33.5320	0	26.372	0	157.880	0	-1e10	8	-1e10	8	-1E+10	1	-1E+10	1	-1E+10	1	-1E+10	1	-1E+10	1	-1E+10	1
4902554	21	C	08/31/2021	06:02	-136.362	49.544	0	160.40	0	6.1710	0	33.5480	0	26.386	0	158.970	0	-1e10	8	-1e10	8	-1E+10	1	-1E+10	1	-1E+10	1	-1E+10	1	-1E+10	1	-1E+10	1
4902554	21	C	08/31/2021	06:02	-136.362	49.544	0	161.50	0	6.1670	0	33.5570	0	26.393	0	160.060	0	-1e10	8	-1e10	8	-1E+10	1	-1E+10	1	-1E+10	1	-1E+10	1	-1E+10	1	-1E+10	1
4902554	21	C	08/31/2021	06:02	-136.362	49.544	0	162.60	0	6.1520	0	33.5950	0	26.425	0	161.149	0	-1e10	8	-1e10	8	-1E+10	1	-1E+10	1	-1E+10	1	-1E+10	1	-1E+10	1	-1E+10	1
4902554	21	C	08/31/2021	06:02	-136.362	49.544	0	163.70	0	6.1520	0	33.6050	0	26.433	0	162.239	0	-1e10	8	-1e10	8	-1E+10	1	-1E+10	1	-1E+10	1	-1E+10	1	-1E+10	1	-1E+10	1
4902554	21	C	08/31/2021	06:02	-136.362	49.544	0	164.70	0	6.1400	0	33.6270	0	26.452	0	163.230	0	-1e10	8	-1e10	8	-1E+10	1	-1E+10	1	-1E+10	1	-1E+10	1	-1E+10	1	-1E+10	1
4902554	21	C	08/31/2021	06:02	-136.362	49.544	0	165.80	0	6.1340	0	33.6360	0	26.460	0	164.319	0	-1e10	8	-1e10	8	-1E+10	1	-1E+10	1	-1E+10	1	-1E+10	1	-1E+10	1	-1E+10	1
4902554	21	C	08/31/2021	06:02	-136.362	49.544	0	166.90	0	6.1270	0	33.6450	0	26.468	0	165.409	0	-1e10	8	-1e10	8	-1E+10	1	-1E+10	1	-1E+10	1	-1E+10	1	-1E+10	1	-1E+10	1
4902554	21	C	08/31/2021	06:02	-136.362	49.544	0	168.00	0	6.1130	0	33.6550	0	26.478	0	166.499	0	-1e10	8	-1e10	8	-1E+10	1	-1E+10	1	-1E+10	1	-1E+10	1	-1E+10	1	-1E+10	1
4902554	21	C	08/31/2021	06:02	-136.362	49.544	0	169.10	0	6.0880	0	33.6620	0	26.486	0	167.589	0	-1e10	8	-1e10	8	-1E+10	1	-1E+10	1	-1E+10	1	-1E+10	1	-1E+10	1	-1E+10	1
4902554	21	C	08/31/2021	06:02	-136.362	49.544	0	170.10	0	6.0860	0	33.6650	0	26.489	0	168.579	0	-1e10	8	-1e10	8	-1E+10	1	-1E+10	1	-1E+10	1	-1E+10	1	-1E+10	1	-1E+10	1
4902554	21	C	08/31/2021	06:02	-136.362	49.544	0	171.20	0	6.0830	0	33.6650	0	26.489	0	169.669	0	-1e10	8	-1e10	8	-1E+10	1	-1E+10	1	-1E+10	1	-1E+10	1	-1E+10	1	-1E+10	1
4902554	21	C	08/31/2021	06:02	-136.362	49.544	0	172.20	0	6.0760	0	33.6660	0	26.491	0	170.660	0	-1e10	8	-1e10	8	-1E+10	1	-1E+10	1	-1E+10	1	-1E+10	1	-1E+10	1	-1E+10	1
4902554	21	C	08/31/2021	06:02	-136.362	49.544	0	173.20	0	6.0480	0	33.6700	0	26.498	0	171.650	0	-1e10	8	-1e10	8	-1E+10	1	-1E+10	1	-1E+10	1	-1E+10	1	-1E+10	1	-1E+10	1
4902554	21	C	08/31/2021	06:02	-136.362	49.544	0	174.30	0	5.9830	0	33.6780	0	26.512	0	172.740	0	-1e10	8	-1e10	8	-1E+10	1	-1E+10	1	-1E+10	1	-1E+10	1	-1E+10	1	-1E+10	1
4902554	21	C	08/31/2021	06:02	-136.362	49.544	0	175.50	0	5.9710	0	33.6830	0	26.518	0	173.929	0	-1e10	8	-1e10	8	-1E+10	1	-1E+10	1	-1E+10	1	-1E+10	1	-1E+10	1	-1E+10	1
4902554	21	C	08/31/2021	06:02	-136.362	49.544	0	176.60	0	5.9620	0	33.6880	0	26.523	0	175.018	0	-1e10	8	-1e10	8	-1E+10	1	-1E+10	1	-1E+10	1	-1E+10	1	-1E+10	1	-1E+10	1
4902554	21	C	08/31/2021	06:02	-136.362	49.544	0	177.60	0	5.9520	0	33.6950	0	26.529	0	176.009	0	-1e10	8	-1e10	8	-1E+10	1	-1E+10	1	-1E+10	1	-1E+10	1	-1E+10	1	-1E+10	1
4902554	21	C	08/31/2021	06:02	-136.362	49.544	0	178.90	0	5.9280	0	33.7020	0	26.538	0	177.297	0	-1e10	8	-1e10	8	-1E+10	1	-1E+10	1	-1E+10	1	-1E+10	1	-1E+10	1	-1E+10	1
4902554	21	C	08/31/2021	06:02	-136.362	49.544	0	179.90	0	5.9200	0	33.7030	0	26.540	0	178.287	0	-1e10	8	-1e10	8	-1E+10	1	-1E+10	1	-1E+10	1	-1E+10	1	-1E+10	1	-1E+10	1
4902554	21	C	08/31/2021	06:02	-136.362	49.544	0	180.90	0	5.9080	0	33.7080	0	26.545	0	179.278	0	-1e10	8	-1e10	8	-1E+10	1	-1E+10	1	-1E+10	1	-1E+10	1	-1E+10	1	-1E+10	1
4902554	21	C	08/31/2021	06:02	-136.362	49.544	0	181.90	0	5.8990	0	33.7110	0	26.549	0	180.269	0	-1e10	8	-1e10	8	-1E+10	1	-1E+10	1	-1E+10	1	-1E+10	1	-1E+10	1	-1E+10	1
4902554	21	C	08/31/2021	06:02	-136.362	49.544	0	183.20	0	5.8870	0	33.7210	0	26.558	0	181.556	0	-1e10	8	-1e10	8	-1E+10	1	-1E+10	1	-1E+10	1	-1E+10	1	-1E+10	1	-1E+10	1
4902554	21	C	08/31/2021	06:02	-136.362	49.544	0	184.20	0	5.8760	0	33.7220	0	26.560	0	182.547	0	-1e10	8	-1e10	8	-1E+10	1	-1E+10	1	-1E+10	1	-1E+10	1	-1E+10	1	-1E+10	1
4902554	21	C	08/31/2021	06:02	-136.362	49.544	0	185.20	0	5.8420	0	33.7240	0	26.566	0	183.538	0	-1e10	8	-1e10	8	-1E+10	1	-1E+10	1	-1E+10	1	-1E+10	1	-1E+10	1	-1E+10	1
4902554	21	C	08/31/2021	06:02	-136.362	49.544	0	186.20	0	5.8330	0	33.7290	0	26.571	0	184.528	0	-1e10	8	-1e10	8	-1E+10	1	-1E+10	1	-1E+10	1	-1E+10	1	-1E+10	1	-1E+10	1
4902554	21	C	08/31/2021	06:02	-136.362	49.544	0	187.20	0	5.8320	0	33.7310	0	26.573	0	185.519	0	-1e10	8	-1e10	8	-1E+10	1	-1E+10	1	-1E+10	1	-1E+10	1	-1E+10	1	-1E+10	1
4902554	21	C	08/31/2021	06:02	-136.362	49.544	0	188.20	0	5.8270	0	33.7350	0	26.577	0	186.509	0	-1e10	8	-1e10	8	-1E+10	1	-1E+10	1	-1E+10	1	-1E+10	1	-1E+10	1	-1E+10	1
4902554	21	C	08/31/2021	06:02	-136.362	49.544	0	189.10	0	5.8110	0	33.7370	0	26.580	0	187.401	0	-1e10	8	-1e10	8	-1E+10	1	-1E+10	1	-1E+10	1	-1E+10	1	-1E+10	1	-1E+10	1
4902554	21	C	08/31/2021	06:02	-136.362	49.544	0	190.10	0	5.7770	0	33.7420	0	26.588	0	188.391	0	-1e10	8	-1e10	8	-1E+10	1	-1E+10	1	-1E+10	1	-1E+10	1	-1E+10	1	-1E+10	1
4902554	21	C	08/31/2021	06:02	-136.362	49.544	0	190.80	0	5.7570	0	33.7410	0	26.590	0	189.085	0	-1e10	8	-1e10	8	-1E+10	1	-1E+10	1	-1E+10	1	-1E+10	1	-1E+10	1	-1E+10	1
4902554	21	C	08/31/2021	06:02	-136.362	49.544	0	191.90	0	5.7240	0	33.7430	0	26.596	0	190.174	0	-1e10	8	-1e10	8	-1E+10	1	-1E+10	1	-1E+10	1	-1E+10	1	-1E+10	1	-1E+10	1
4902554	21	C	08/31/2021	06:02	-136.362	49.544	0	193.10	0	5.7110	0	33.7460	0	26.600	0	191.363	0	-1e10	8	-1e10	8	-1E+10	1	-1E+10	1	-1E+10	1	-1E+10	1	-1E+10	1	-1E+10	1
4902554	21	C	08/31/2021	06:02	-136.362	49.544	0	193.90	0	5.6970	0	33.7510	0	26.605	0	192.155	0	-1e10	8	-1e10	8	-1E+10	1	-1E+10	1	-1E+10	1	-1E+10	1	-1E+10	1	-1E+10	1
4902554	21	C	08/31/2021	06:02	-136.362	49.544	0	195.00	0	5.6850	0	33.7530	0	26.608	0	193.245	0	-1e10	8	-1e10	8	-1E+10	1	-1E+10	1	-1E+10	1	-1E+10	1	-1E+10	1	-1E+10	1
4902554	21	C	08/31/2021	06:02	-136.362	49.544	0	196.20	0	5.6940	0	33.7520	0	26.606	0	194.434	0	-1e10	8	-1e10	8	-1E+10	1	-1E+10	1	-1E+10	1	-1E+10	1	-1E+10	1	-1E+10	1
4902554	21	C	08/31/2021	06:02	-136.362	49.544	0	197.00	0	5.6740	0	33.7600	0	26.615	0	195.226	0	-1e10	8	-1e10	8	-1E+10	1	-1E+10	1	-1E+10	1	-1E+10	1	-1E+10	1	-1E+10	1
4902554	21	C	08/31/2021	06:02	-136.362	49.544	0	197.70	0	5.6620	0	33.7660	0	26.621	0	195.919	0	-1e10	8	-1e10	8	-1E+10	1	-1E+10	1	-1E+10	1	-1E+10	1	-1E+10	1	-1E+10	1
4902554	21	C	08/31/2021	06:02	-136.362	49.544	0	199.00	0	5.6430	0	33.7670	0	26.624	0	197.207	0	-1e10	8	-1e10	8	-1E+10	1	-1E+10	1	-1E+10	1	-1E+10	1	-1E+10	1	-1E+10	1
4902554	21	C	08/31/2021	06:02	-136.362	49.544	0	200.20	0	5.6200	0	33.7700	0	26.630	0	198.396	0	-1e10	8	-1e10	8	-1E+10	1	-1E+10	1	-1E+10	1	-1E+10	1	-1E+10	1	-1E+10	1
4902554	21	C	08/31/2021	06:02	-136.362	49.544	0	201.10	0	5.6130	0	33.7720	0	26.632	0	199.287	0	-1e10	8	-1e10	8	-1E+10	1	-1E+10	1	-1E+10	1	-1E+10	1	-1E+10	1	-1E+10	1
4902554	21	C	08/31/2021	06:02	-136.362	49.544	0	201.90	0	5.5920	0	33.7720	0	26.635	0	200.080	0	-1e10	8	-1e10	8	-1E+10	1	-1E+10	1	-1E+10	1	-1E+10	1	-1E+10	1	-1E+10	1
4902554	21	C	08/31/2021	06:02	-136.362	49.544	0	202.80	0	5.5800	0	33.7730	0	26.637	0	200.971	0	-1e10	8	-1e10	8	-1E+10	1	-1E+10	1	-1E+10	1	-1E+10	1	-1E+10	1	-1E+10	1
4902554	21	C	08/31/2021	06:02	-136.362	49.544	0	203.60	0	5.5840	0	33.7740	0	26.637	0	201.763	0	-1e10	8	-1e10	8	-1E+10	1	-1E+10	1	-1E+10	1	-1E+10	1	-1E+10	1	-1E+10	1
4902554	21	C	08/31/2021	06:02	-136.362	49.544	0	204.90	0	5.5890	0	33.7800	0	26.641	0	203.051	0	-1e10	8	-1e10	8	-1E+10	1	-1E+10	1	-1E+10	1	-1E+10	1	-1E+10	1	-1E+10	1
4902554	21	C	08/31/2021	06:02	-136.362	49.544	0	206.20	0	5.5940	0	33.7850	0	26.645	0	204.339	0	-1e10	8	-1e10	8	-1E+10	1	-1E+10	1	-1E+10	1	-1E+10	1	-1E+10	1	-1E+10	1
4902554	21	C	08/31/2021	06:02	-136.362	49.544	0	207.10	0	5.5900	0	33.7850	0	26.645	0	205.230	0	-1e10	8	-1e10	8	-1E+10	1	-1E+10	1	-1E+10	1	-1E+10	1	-1E+10	1	-1E+10	1
4902554	21	C	08/31/2021	06:02	-136.362	49.544	0	207.90	0	5.5860	0	33.7880	0	26.648	0	206.023	0	-1e10	8	-1e10	8	-1E+10	1	-1E+10	1	-1E+10	1	-1E+10	1	-1E+10	1	-1E+10	1
4902554	21	C	08/31/2021	06:02	-136.362	49.544	0	209.00	0	5.5770	0	33.7900	0	26.651	0	207.112	0	-1e10	8	-1e10	8	-1E+10	1	-1E+10	1	-1E+10	1	-1E+10	1	-1E+10	1	-1E+10	1
4902554	21	C	08/31/2021	06:02	-136.362	49.544	0	209.90	0	5.5550	0	33.7890	0	26.653	0	208.003	0	-1e10	8	-1e10	8	-1E+10	1	-1E+10	1	-1E+10	1	-1E+10	1	-1E+10	1	-1E+10	1
4902554	21	C	08/31/2021	06:02	-136.362	49.544	0	210.80	0	5.5070	0	33.7860	0	26.656	0	208.895	0	-1e10	8	-1e10	8	-1E+10	1	-1E+10	1	-1E+10	1	-1E+10	1	-1E+10	1	-1E+10	1
4902554	21	C	08/31/2021	06:02	-136.362	49.544	0	211.80	0	5.4960	0	33.7900	0	26.660	0	209.885	0	-1e10	8	-1e10	8	-1E+10	1	-1E+10	1	-1E+10	1	-1E+10	1	-1E+10	1	-1E+10	1
4902554	21	C	08/31/2021	06:02	-136.362	49.544	0	212.70	0	5.4670	0	33.7900	0	26.664	0	210.777	0	-1e10	8	-1e10	8	-1E+10	1	-1E+10	1	-1E+10	1	-1E+10	1	-1E+10	1	-1E+10	1
4902554	21	C	08/31/2021	06:02	-136.362	49.544	0	213.60	0	5.4350	0	33.7860	0	26.664	0	211.668	0	-1e10	8	-1e10	8	-1E+10	1	-1E+10	1	-1E+10	1	-1E+10	1	-1E+10	1	-1E+10	1
4902554	21	C	08/31/2021	06:02	-136.362	49.544	0	214.60	0	5.4060	0	33.7880	0	26.669	0	212.659	0	-1e10	8	-1e10	8	-1E+10	1	-1E+10	1	-1E+10	1	-1E+10	1	-1E+10	1	-1E+10	1
4902554	21	C	08/31/2021	06:02	-136.362	49.544	0	215.60	0	5.3840	0	33.7890	0	26.673	0	213.649	0	-1e10	8	-1e10	8	-1E+10	1	-1E+10	1	-1E+10	1	-1E+10	1	-1E+10	1	-1E+10	1
4902554	21	C	08/31/2021	06:02	-136.362	49.544	0	216.50	0	5.3820	0	33.7890	0	26.673	0	214.540	0	-1e10	8	-1e10	8	-1E+10	1	-1E+10	1	-1E+10	1	-1E+10	1	-1E+10	1	-1E+10	1
4902554	21	C	08/31/2021	06:02	-136.362	49.544	0	217.50	0	5.3780	0	33.7900	0	26.674	0	215.531	0	-1e10	8	-1e10	8	-1E+10	1	-1E+10	1	-1E+10	1	-1E+10	1	-1E+10	1	-1E+10	1
4902554	21	C	08/31/2021	06:02	-136.362	49.544	0	218.50	0	5.3690	0	33.7940	0	26.679	0	216.521	0	-1e10	8	-1e10	8	-1E+10	1	-1E+10	1	-1E+10	1	-1E+10	1	-1E+10	1	-1E+10	1
4902554	21	C	08/31/2021	06:02	-136.362	49.544	0	219.50	0	5.3510	0	33.7940	0	26.681	0	217.512	0	-1e10	8	-1e10	8	-1E+10	1	-1E+10	1	-1E+10	1	-1E+10	1	-1E+10	1	-1E+10	1
4902554	21	C	08/31/2021	06:02	-136.362	49.544	0	220.50	0	5.3490	0	33.7940	0	26.681	0	218.502	0	-1e10	8	-1e10	8	-1E+10	1	-1E+10	1	-1E+10	1	-1E+10	1	-1E+10	1	-1E+10	1
4902554	21	C	08/31/2021	06:02	-136.362	49.544	0	221.50	0	5.3380	0	33.7950	0	26.683	0	219.493	0	-1e10	8	-1e10	8	-1E+10	1	-1E+10	1	-1E+10	1	-1E+10	1	-1E+10	1	-1E+10	1
4902554	21	C	08/31/2021	06:02	-136.362	49.544	0	222.70	0	5.3250	0	33.7940	0	26.684	0	220.681	0	-1e10	8	-1e10	8	-1E+10	1	-1E+10	1	-1E+10	1	-1E+10	1	-1E+10	1	-1E+10	1
4902554	21	C	08/31/2021	06:02	-136.362	49.544	0	223.70	0	5.3130	0	33.7950	0	26.686	0	221.671	0	-1e10	8	-1e10	8	-1E+10	1	-1E+10	1	-1E+10	1	-1E+10	1	-1E+10	1	-1E+10	1
4902554	21	C	08/31/2021	06:02	-136.362	49.544	0	224.70	0	5.3070	0	33.7960	0	26.688	0	222.662	0	-1e10	8	-1e10	8	-1E+10	1	-1E+10	1	-1E+10	1	-1E+10	1	-1E+10	1	-1E+10	1
4902554	21	C	08/31/2021	06:02	-136.362	49.544	0	225.80	0	5.3010	0	33.7990	0	26.691	0	223.751	0	-1e10	8	-1e10	8	-1E+10	1	-1E+10	1	-1E+10	1	-1E+10	1	-1E+10	1	-1E+10	1
4902554	21	C	08/31/2021	06:02	-136.362	49.544	0	226.80	0	5.3100	0	33.8040	0	26.694	0	224.742	0	-1e10	8	-1e10	8	-1E+10	1	-1E+10	1	-1E+10	1	-1E+10	1	-1E+10	1	-1E+10	1
4902554	21	C	08/31/2021	06:02	-136.362	49.544	0	227.80	0	5.3070	0	33.8060	0	26.695	0	225.732	0	-1e10	8	-1e10	8	-1E+10	1	-1E+10	1	-1E+10	1	-1E+10	1	-1E+10	1	-1E+10	1
4902554	21	C	08/31/2021	06:02	-136.362	49.544	0	228.90	0	5.3010	0	33.8060	0	26.696	0	226.821	0	-1e10	8	-1e10	8	-1E+10	1	-1E+10	1	-1E+10	1	-1E+10	1	-1E+10	1	-1E+10	1
4902554	21	C	08/31/2021	06:02	-136.362	49.544	0	230.10	0	5.2770	0	33.8060	0	26.699	0	228.010	0	-1e10	8	-1e10	8	-1E+10	1	-1E+10	1	-1E+10	1	-1E+10	1	-1E+10	1	-1E+10	1
4902554	21	C	08/31/2021	06:02	-136.362	49.544	0	231.20	0	5.2550	0	33.8080	0	26.703	0	229.099	0	-1e10	8	-1e10	8	-1E+10	1	-1E+10	1	-1E+10	1	-1E+10	1	-1E+10	1	-1E+10	1
4902554	21	C	08/31/2021	06:02	-136.362	49.544	0	232.30	0	5.2470	0	33.8010	0	26.699	0	230.189	0	-1e10	8	-1e10	8	-1E+10	1	-1E+10	1	-1E+10	1	-1E+10	1	-1E+10	1	-1E+10	1
4902554	21	C	08/31/2021	06:02	-136.362	49.544	0	233.50	0	5.2430	0	33.8080	0	26.705	0	231.377	0	-1e10	8	-1e10	8	-1E+10	1	-1E+10	1	-1E+10	1	-1E+10	1	-1E+10	1	-1E+10	1
4902554	21	C	08/31/2021	06:02	-136.362	49.544	0	234.50	0	5.2440	0	33.8100	0	26.706	0	232.367	0	-1e10	8	-1e10	8	-1E+10	1	-1E+10	1	-1E+10	1	-1E+10	1	-1E+10	1	-1E+10	1
4902554	21	C	08/31/2021	06:02	-136.362	49.544	0	235.60	0	5.2310	0	33.8190	0	26.715	0	233.457	0	-1e10	8	-1e10	8	-1E+10	1	-1E+10	1	-1E+10	1	-1E+10	1	-1E+10	1	-1E+10	1
4902554	21	C	08/31/2021	06:02	-136.362	49.544	0	236.90	0	5.2250	0	33.8200	0	26.716	0	234.744	0	-1e10	8	-1e10	8	-1E+10	1	-1E+10	1	-1E+10	1	-1E+10	1	-1E+10	1	-1E+10	1
4902554	21	C	08/31/2021	06:02	-136.362	49.544	0	237.90	0	5.2240	0	33.8200	0	26.716	0	235.735	0	-1e10	8	-1e10	8	-1E+10	1	-1E+10	1	-1E+10	1	-1E+10	1	-1E+10	1	-1E+10	1
4902554	21	C	08/31/2021	06:02	-136.362	49.544	0	239.20	0	5.2160	0	33.8220	0	26.719	0	237.022	0	-1e10	8	-1e10	8	-1E+10	1	-1E+10	1	-1E+10	1	-1E+10	1	-1E+10	1	-1E+10	1
4902554	21	C	08/31/2021	06:02	-136.362	49.544	0	240.30	0	5.1980	0	33.8230	0	26.722	0	238.111	0	-1e10	8	-1e10	8	-1E+10	1	-1E+10	1	-1E+10	1	-1E+10	1	-1E+10	1	-1E+10	1
4902554	21	C	08/31/2021	06:02	-136.362	49.544	0	241.50	0	5.1830	0	33.8280	0	26.727	0	239.300	0	-1e10	8	-1e10	8	-1E+10	1	-1E+10	1	-1E+10	1	-1E+10	1	-1E+10	1	-1E+10	1
4902554	21	C	08/31/2021	06:02	-136.362	49.544	0	242.60	0	5.1820	0	33.8280	0	26.728	0	240.389	0	-1e10	8	-1e10	8	-1E+10	1	-1E+10	1	-1E+10	1	-1E+10	1	-1E+10	1	-1E+10	1
4902554	21	C	08/31/2021	06:02	-136.362	49.544	0	243.90	0	5.1810	0	33.8280	0	26.728	0	241.676	0	-1e10	8	-1e10	8	-1E+10	1	-1E+10	1	-1E+10	1	-1E+10	1	-1E+10	1	-1E+10	1
4902554	21	C	08/31/2021	06:02	-136.362	49.544	0	244.90	0	5.1810	0	33.8280	0	26.728	0	242.667	0	-1e10	8	-1e10	8	-1E+10	1	-1E+10	1	-1E+10	1	-1E+10	1	-1E+10	1	-1E+10	1
4902554	21	C	08/31/2021	06:02	-136.362	49.544	0	245.90	0	5.1740	0	33.8300	0	26.730	0	243.657	0	-1e10	8	-1e10	8	-1E+10	1	-1E+10	1	-1E+10	1	-1E+10	1	-1E+10	1	-1E+10	1
4902554	21	C	08/31/2021	06:02	-136.362	49.544	0	247.00	0	5.1630	0	33.8330	0	26.734	0	244.746	0	-1e10	8	-1e10	8	-1E+10	1	-1E+10	1	-1E+10	1	-1E+10	1	-1E+10	1	-1E+10	1
4902554	21	C	08/31/2021	06:02	-136.362	49.544	0	248.20	0	5.1490	0	33.8350	0	26.737	0	245.935	0	-1e10	8	-1e10	8	-1E+10	1	-1E+10	1	-1E+10	1	-1E+10	1	-1E+10	1	-1E+10	1
4902554	21	C	08/31/2021	06:02	-136.362	49.544	0	249.30	0	5.1250	0	33.8350	0	26.740	0	247.024	0	-1e10	8	-1e10	8	-1E+10	1	-1E+10	1	-1E+10	1	-1E+10	1	-1E+10	1	-1E+10	1
4902554	21	C	08/31/2021	06:02	-136.362	49.544	0	250.30	0	5.1190	0	33.8360	0	26.741	0	248.014	0	-1e10	8	-1e10	8	-1E+10	1	-1E+10	1	-1E+10	1	-1E+10	1	-1E+10	1	-1E+10	1
4902554	21	C	08/31/2021	06:02	-136.362	49.544	0	251.60	0	5.1150	0	33.8430	0	26.747	0	249.302	0	-1e10	8	-1e10	8	-1E+10	1	-1E+10	1	-1E+10	1	-1E+10	1	-1E+10	1	-1E+10	1
4902554	21	C	08/31/2021	06:02	-136.362	49.544	0	252.60	0	5.1000	0	33.8430	0	26.749	0	250.292	0	-1e10	8	-1e10	8	-1E+10	1	-1E+10	1	-1E+10	1	-1E+10	1	-1E+10	1	-1E+10	1
4902554	21	C	08/31/2021	06:02	-136.362	49.544	0	253.70	0	5.0990	0	33.8390	0	26.746	0	251.381	0	-1e10	8	-1e10	8	-1E+10	1	-1E+10	1	-1E+10	1	-1E+10	1	-1E+10	1	-1E+10	1
4902554	21	C	08/31/2021	06:02	-136.362	49.544	0	254.70	0	5.1260	0	33.8510	0	26.752	0	252.371	0	-1e10	8	-1e10	8	-1E+10	1	-1E+10	1	-1E+10	1	-1E+10	1	-1E+10	1	-1E+10	1
4902554	21	C	08/31/2021	06:02	-136.362	49.544	0	255.80	0	5.1240	0	33.8550	0	26.756	0	253.461	0	-1e10	8	-1e10	8	-1E+10	1	-1E+10	1	-1E+10	1	-1E+10	1	-1E+10	1	-1E+10	1
4902554	21	C	08/31/2021	06:02	-136.362	49.544	0	256.80	0	5.1230	0	33.8560	0	26.757	0	254.451	0	-1e10	8	-1e10	8	-1E+10	1	-1E+10	1	-1E+10	1	-1E+10	1	-1E+10	1	-1E+10	1
4902554	21	C	08/31/2021	06:02	-136.362	49.544	0	257.80	0	5.1280	0	33.8570	0	26.757	0	255.441	0	-1e10	8	-1e10	8	-1E+10	1	-1E+10	1	-1E+10	1	-1E+10	1	-1E+10	1	-1E+10	1
4902554	21	C	08/31/2021	06:02	-136.362	49.544	0	259.10	0	5.1310	0	33.8600	0	26.759	0	256.728	0	-1e10	8	-1e10	8	-1E+10	1	-1E+10	1	-1E+10	1	-1E+10	1	-1E+10	1	-1E+10	1
4902554	21	C	08/31/2021	06:02	-136.362	49.544	0	260.20	0	5.1360	0	33.8590	0	26.758	0	257.818	0	-1e10	8	-1e10	8	-1E+10	1	-1E+10	1	-1E+10	1	-1E+10	1	-1E+10	1	-1E+10	1
4902554	21	C	08/31/2021	06:02	-136.362	49.544	0	261.20	0	5.1340	0	33.8600	0	26.759	0	258.808	0	-1e10	8	-1e10	8	-1E+10	1	-1E+10	1	-1E+10	1	-1E+10	1	-1E+10	1	-1E+10	1
4902554	21	C	08/31/2021	06:02	-136.362	49.544	0	262.30	0	5.1230	0	33.8610	0	26.761	0	259.897	0	-1e10	8	-1e10	8	-1E+10	1	-1E+10	1	-1E+10	1	-1E+10	1	-1E+10	1	-1E+10	1
4902554	21	C	08/31/2021	06:02	-136.362	49.544	0	263.40	0	5.1190	0	33.8640	0	26.763	0	260.986	0	-1e10	8	-1e10	8	-1E+10	1	-1E+10	1	-1E+10	1	-1E+10	1	-1E+10	1	-1E+10	1
4902554	21	C	08/31/2021	06:02	-136.362	49.544	0	264.40	0	5.1150	0	33.8640	0	26.764	0	261.977	0	-1e10	8	-1e10	8	-1E+10	1	-1E+10	1	-1E+10	1	-1E+10	1	-1E+10	1	-1E+10	1
4902554	21	C	08/31/2021	06:02	-136.362	49.544	0	265.50	0	5.1020	0	33.8620	0	26.764	0	263.066	0	-1e10	8	-1e10	8	-1E+10	1	-1E+10	1	-1E+10	1	-1E+10	1	-1E+10	1	-1E+10	1
4902554	21	C	08/31/2021	06:02	-136.362	49.544	0	266.60	0	5.1050	0	33.8650	0	26.766	0	264.155	0	-1e10	8	-1e10	8	-1E+10	1	-1E+10	1	-1E+10	1	-1E+10	1	-1E+10	1	-1E+10	1
4902554	21	C	08/31/2021	06:02	-136.362	49.544	0	267.60	0	5.0950	0	33.8670	0	26.769	0	265.145	0	-1e10	8	-1e10	8	-1E+10	1	-1E+10	1	-1E+10	1	-1E+10	1	-1E+10	1	-1E+10	1
4902554	21	C	08/31/2021	06:02	-136.362	49.544	0	268.70	0	5.0920	0	33.8670	0	26.769	0	266.234	0	-1e10	8	-1e10	8	-1E+10	1	-1E+10	1	-1E+10	1	-1E+10	1	-1E+10	1	-1E+10	1
4902554	21	C	08/31/2021	06:02	-136.362	49.544	0	269.70	0	5.0790	0	33.8680	0	26.771	0	267.225	0	-1e10	8	-1e10	8	-1E+10	1	-1E+10	1	-1E+10	1	-1E+10	1	-1E+10	1	-1E+10	1
4902554	21	C	08/31/2021	06:02	-136.362	49.544	0	270.80	0	5.0620	0	33.8690	0	26.774	0	268.314	0	-1e10	8	-1e10	8	-1E+10	1	-1E+10	1	-1E+10	1	-1E+10	1	-1E+10	1	-1E+10	1
4902554	21	C	08/31/2021	06:02	-136.362	49.544	0	271.90	0	5.0610	0	33.8690	0	26.774	0	269.403	0	-1e10	8	-1e10	8	-1E+10	1	-1E+10	1	-1E+10	1	-1E+10	1	-1E+10	1	-1E+10	1
4902554	21	C	08/31/2021	06:02	-136.362	49.544	0	272.80	0	5.0560	0	33.8690	0	26.775	0	270.294	0	-1e10	8	-1e10	8	-1E+10	1	-1E+10	1	-1E+10	1	-1E+10	1	-1E+10	1	-1E+10	1
4902554	21	C	08/31/2021	06:02	-136.362	49.544	0	273.80	0	5.0510	0	33.8690	0	26.775	0	271.284	0	-1e10	8	-1e10	8	-1E+10	1	-1E+10	1	-1E+10	1	-1E+10	1	-1E+10	1	-1E+10	1
4902554	21	C	08/31/2021	06:02	-136.362	49.544	0	275.00	0	5.0370	0	33.8690	0	26.777	0	272.472	0	-1e10	8	-1e10	8	-1E+10	1	-1E+10	1	-1E+10	1	-1E+10	1	-1E+10	1	-1E+10	1
4902554	21	C	08/31/2021	06:02	-136.362	49.544	0	276.20	0	5.0340	0	33.8710	0	26.779	0	273.661	0	-1e10	8	-1e10	8	-1E+10	1	-1E+10	1	-1E+10	1	-1E+10	1	-1E+10	1	-1E+10	1
4902554	21	C	08/31/2021	06:02	-136.362	49.544	0	277.00	0	5.0280	0	33.8710	0	26.780	0	274.453	0	-1e10	8	-1e10	8	-1E+10	1	-1E+10	1	-1E+10	1	-1E+10	1	-1E+10	1	-1E+10	1
4902554	21	C	08/31/2021	06:02	-136.362	49.544	0	277.80	0	5.0170	0	33.8730	0	26.782	0	275.245	0	-1e10	8	-1e10	8	-1E+10	1	-1E+10	1	-1E+10	1	-1E+10	1	-1E+10	1	-1E+10	1
4902554	21	C	08/31/2021	06:02	-136.362	49.544	0	279.00	0	5.0030	0	33.8740	0	26.785	0	276.433	0	-1e10	8	-1e10	8	-1E+10	1	-1E+10	1	-1E+10	1	-1E+10	1	-1E+10	1	-1E+10	1
4902554	21	C	08/31/2021	06:02	-136.362	49.544	0	280.20	0	4.9960	0	33.8740	0	26.786	0	277.621	0	-1e10	8	-1e10	8	-1E+10	1	-1E+10	1	-1E+10	1	-1E+10	1	-1E+10	1	-1E+10	1
4902554	21	C	08/31/2021	06:02	-136.362	49.544	0	281.00	0	4.9870	0	33.8750	0	26.787	0	278.413	0	-1e10	8	-1e10	8	-1E+10	1	-1E+10	1	-1E+10	1	-1E+10	1	-1E+10	1	-1E+10	1
4902554	21	C	08/31/2021	06:02	-136.362	49.544	0	281.80	0	4.9650	0	33.8740	0	26.789	0	279.205	0	-1e10	8	-1e10	8	-1E+10	1	-1E+10	1	-1E+10	1	-1E+10	1	-1E+10	1	-1E+10	1
4902554	21	C	08/31/2021	06:02	-136.362	49.544	0	283.00	0	4.9490	0	33.8710	0	26.789	0	280.393	0	-1e10	8	-1e10	8	-1E+10	1	-1E+10	1	-1E+10	1	-1E+10	1	-1E+10	1	-1E+10	1
4902554	21	C	08/31/2021	06:02	-136.362	49.544	0	284.20	0	4.9160	0	33.8720	0	26.793	0	281.582	0	-1e10	8	-1e10	8	-1E+10	1	-1E+10	1	-1E+10	1	-1E+10	1	-1E+10	1	-1E+10	1
4902554	21	C	08/31/2021	06:02	-136.362	49.544	0	285.00	0	4.9090	0	33.8720	0	26.794	0	282.374	0	-1e10	8	-1e10	8	-1E+10	1	-1E+10	1	-1E+10	1	-1E+10	1	-1E+10	1	-1E+10	1
4902554	21	C	08/31/2021	06:02	-136.362	49.544	0	285.80	0	4.8960	0	33.8720	0	26.795	0	283.166	0	-1e10	8	-1e10	8	-1E+10	1	-1E+10	1	-1E+10	1	-1E+10	1	-1E+10	1	-1E+10	1
4902554	21	C	08/31/2021	06:02	-136.362	49.544	0	287.00	0	4.8830	0	33.8710	0	26.796	0	284.354	0	-1e10	8	-1e10	8	-1E+10	1	-1E+10	1	-1E+10	1	-1E+10	1	-1E+10	1	-1E+10	1
4902554	21	C	08/31/2021	06:02	-136.362	49.544	0	288.20	0	4.8660	0	33.8710	0	26.798	0	285.542	0	-1e10	8	-1e10	8	-1E+10	1	-1E+10	1	-1E+10	1	-1E+10	1	-1E+10	1	-1E+10	1
4902554	21	C	08/31/2021	06:02	-136.362	49.544	0	289.00	0	4.8650	0	33.8710	0	26.798	0	286.334	0	-1e10	8	-1e10	8	-1E+10	1	-1E+10	1	-1E+10	1	-1E+10	1	-1E+10	1	-1E+10	1
4902554	21	C	08/31/2021	06:02	-136.362	49.544	0	289.80	0	4.8620	0	33.8720	0	26.799	0	287.126	0	-1e10	8	-1e10	8	-1E+10	1	-1E+10	1	-1E+10	1	-1E+10	1	-1E+10	1	-1E+10	1
4902554	21	C	08/31/2021	06:02	-136.362	49.544	0	290.60	0	4.8580	0	33.8710	0	26.799	0	287.918	0	-1e10	8	-1e10	8	-1E+10	1	-1E+10	1	-1E+10	1	-1E+10	1	-1E+10	1	-1E+10	1
4902554	21	C	08/31/2021	06:02	-136.362	49.544	0	291.80	0	4.8480	0	33.8720	0	26.801	0	289.106	0	-1e10	8	-1e10	8	-1E+10	1	-1E+10	1	-1E+10	1	-1E+10	1	-1E+10	1	-1E+10	1
4902554	21	C	08/31/2021	06:02	-136.362	49.544	0	293.10	0	4.8440	0	33.8720	0	26.801	0	290.393	0	-1e10	8	-1e10	8	-1E+10	1	-1E+10	1	-1E+10	1	-1E+10	1	-1E+10	1	-1E+10	1
4902554	21	C	08/31/2021	06:02	-136.362	49.544	0	293.90	0	4.8410	0	33.8730	0	26.802	0	291.185	0	-1e10	8	-1e10	8	-1E+10	1	-1E+10	1	-1E+10	1	-1E+10	1	-1E+10	1	-1E+10	1
4902554	21	C	08/31/2021	06:02	-136.362	49.544	0	294.70	0	4.8390	0	33.8740	0	26.803	0	291.977	0	-1e10	8	-1e10	8	-1E+10	1	-1E+10	1	-1E+10	1	-1E+10	1	-1E+10	1	-1E+10	1
4902554	21	C	08/31/2021	06:02	-136.362	49.544	0	295.90	0	4.8370	0	33.8740	0	26.804	0	293.166	0	-1e10	8	-1e10	8	-1E+10	1	-1E+10	1	-1E+10	1	-1E+10	1	-1E+10	1	-1E+10	1
4902554	21	C	08/31/2021	06:02	-136.362	49.544	0	297.20	0	4.8240	0	33.8760	0	26.807	0	294.453	0	-1e10	8	-1e10	8	-1E+10	1	-1E+10	1	-1E+10	1	-1E+10	1	-1E+10	1	-1E+10	1
4902554	21	C	08/31/2021	06:02	-136.362	49.544	0	298.00	0	4.8140	0	33.8740	0	26.806	0	295.245	0	-1e10	8	-1e10	8	-1E+10	1	-1E+10	1	-1E+10	1	-1E+10	1	-1E+10	1	-1E+10	1
4902554	21	C	08/31/2021	06:02	-136.362	49.544	0	298.80	0	4.8060	0	33.8750	0	26.808	0	296.037	0	-1e10	8	-1e10	8	-1E+10	1	-1E+10	1	-1E+10	1	-1E+10	1	-1E+10	1	-1E+10	1
4902554	21	C	08/31/2021	06:02	-136.362	49.544	0	299.70	0	4.8100	0	33.8780	0	26.810	0	296.928	0	-1e10	8	-1e10	8	-1E+10	1	-1E+10	1	-1E+10	1	-1E+10	1	-1E+10	1	-1E+10	1
4902554	21	C	08/31/2021	06:02	-136.362	49.544	0	300.90	0	4.8090	0	33.8780	0	26.810	0	298.116	0	-1e10	8	-1e10	8	-1E+10	1	-1E+10	1	-1E+10	1	-1E+10	1	-1E+10	1	-1E+10	1
4902554	21	C	08/31/2021	06:02	-136.362	49.544	0	302.20	0	4.8080	0	33.8780	0	26.810	0	299.403	0	-1e10	8	-1e10	8	-1E+10	1	-1E+10	1	-1E+10	1	-1E+10	1	-1E+10	1	-1E+10	1
4902554	21	C	08/31/2021	06:02	-136.362	49.544	0	303.10	0	4.8010	0	33.8780	0	26.811	0	300.294	0	-1e10	8	-1e10	8	-1E+10	1	-1E+10	1	-1E+10	1	-1E+10	1	-1E+10	1	-1E+10	1
4902554	21	C	08/31/2021	06:02	-136.362	49.544	0	303.90	0	4.7940	0	33.8780	0	26.812	0	301.086	0	-1e10	8	-1e10	8	-1E+10	1	-1E+10	1	-1E+10	1	-1E+10	1	-1E+10	1	-1E+10	1
4902554	21	C	08/31/2021	06:02	-136.362	49.544	0	304.80	0	4.7870	0	33.8780	0	26.812	0	301.977	0	-1e10	8	-1e10	8	-1E+10	1	-1E+10	1	-1E+10	1	-1E+10	1	-1E+10	1	-1E+10	1
4902554	21	C	08/31/2021	06:02	-136.362	49.544	0	305.60	0	4.7890	0	33.8820	0	26.815	0	302.769	0	-1e10	8	-1e10	8	-1E+10	1	-1E+10	1	-1E+10	1	-1E+10	1	-1E+10	1	-1E+10	1
4902554	21	C	08/31/2021	06:02	-136.362	49.544	0	306.90	0	4.7850	0	33.8820	0	26.816	0	304.056	0	-1e10	8	-1e10	8	-1E+10	1	-1E+10	1	-1E+10	1	-1E+10	1	-1E+10	1	-1E+10	1
4902554	21	C	08/31/2021	06:02	-136.362	49.544	0	308.20	0	4.7810	0	33.8810	0	26.815	0	305.343	0	-1e10	8	-1e10	8	-1E+10	1	-1E+10	1	-1E+10	1	-1E+10	1	-1E+10	1	-1E+10	1
4902554	21	C	08/31/2021	06:02	-136.362	49.544	0	309.10	0	4.7780	0	33.8810	0	26.816	0	306.234	0	-1e10	8	-1e10	8	-1E+10	1	-1E+10	1	-1E+10	1	-1E+10	1	-1E+10	1	-1E+10	1
4902554	21	C	08/31/2021	06:02	-136.362	49.544	0	309.90	0	4.7580	0	33.8820	0	26.819	0	307.026	0	-1e10	8	-1e10	8	-1E+10	1	-1E+10	1	-1E+10	1	-1E+10	1	-1E+10	1	-1E+10	1
4902554	21	C	08/31/2021	06:02	-136.362	49.544	0	310.80	0	4.7560	0	33.8820	0	26.819	0	307.917	0	-1e10	8	-1e10	8	-1E+10	1	-1E+10	1	-1E+10	1	-1E+10	1	-1E+10	1	-1E+10	1
4902554	21	C	08/31/2021	06:02	-136.362	49.544	0	311.60	0	4.7540	0	33.8820	0	26.819	0	308.709	0	-1e10	8	-1e10	8	-1E+10	1	-1E+10	1	-1E+10	1	-1E+10	1	-1E+10	1	-1E+10	1
4902554	21	C	08/31/2021	06:02	-136.362	49.544	0	312.90	0	4.7410	0	33.8820	0	26.821	0	309.996	0	-1e10	8	-1e10	8	-1E+10	1	-1E+10	1	-1E+10	1	-1E+10	1	-1E+10	1	-1E+10	1
4902554	21	C	08/31/2021	06:02	-136.362	49.544	0	314.20	0	4.7150	0	33.8850	0	26.826	0	311.283	0	-1e10	8	-1e10	8	-1E+10	1	-1E+10	1	-1E+10	1	-1E+10	1	-1E+10	1	-1E+10	1
4902554	21	C	08/31/2021	06:02	-136.362	49.544	0	315.10	0	4.7140	0	33.8850	0	26.826	0	312.174	0	-1e10	8	-1e10	8	-1E+10	1	-1E+10	1	-1E+10	1	-1E+10	1	-1E+10	1	-1E+10	1
4902554	21	C	08/31/2021	06:02	-136.362	49.544	0	315.90	0	4.7070	0	33.8870	0	26.828	0	312.966	0	-1e10	8	-1e10	8	-1E+10	1	-1E+10	1	-1E+10	1	-1E+10	1	-1E+10	1	-1E+10	1
4902554	21	C	08/31/2021	06:02	-136.362	49.544	0	316.80	0	4.7040	0	33.8870	0	26.829	0	313.857	0	-1e10	8	-1e10	8	-1E+10	1	-1E+10	1	-1E+10	1	-1E+10	1	-1E+10	1	-1E+10	1
4902554	21	C	08/31/2021	06:02	-136.362	49.544	0	317.70	0	4.7020	0	33.8880	0	26.830	0	314.748	0	-1e10	8	-1e10	8	-1E+10	1	-1E+10	1	-1E+10	1	-1E+10	1	-1E+10	1	-1E+10	1
4902554	21	C	08/31/2021	06:02	-136.362	49.544	0	318.60	0	4.6910	0	33.8900	0	26.833	0	315.638	0	-1e10	8	-1e10	8	-1E+10	1	-1E+10	1	-1E+10	1	-1E+10	1	-1E+10	1	-1E+10	1
4902554	21	C	08/31/2021	06:02	-136.362	49.544	0	319.90	0	4.6860	0	33.8910	0	26.834	0	316.925	0	-1e10	8	-1e10	8	-1E+10	1	-1E+10	1	-1E+10	1	-1E+10	1	-1E+10	1	-1E+10	1
4902554	21	C	08/31/2021	06:02	-136.362	49.544	0	321.20	0	4.6810	0	33.8920	0	26.835	0	318.212	0	-1e10	8	-1e10	8	-1E+10	1	-1E+10	1	-1E+10	1	-1E+10	1	-1E+10	1	-1E+10	1
4902554	21	C	08/31/2021	06:02	-136.362	49.544	0	322.10	0	4.6790	0	33.8930	0	26.836	0	319.103	0	-1e10	8	-1e10	8	-1E+10	1	-1E+10	1	-1E+10	1	-1E+10	1	-1E+10	1	-1E+10	1
4902554	21	C	08/31/2021	06:02	-136.362	49.544	0	323.00	0	4.6770	0	33.8930	0	26.837	0	319.994	0	-1e10	8	-1e10	8	-1E+10	1	-1E+10	1	-1E+10	1	-1E+10	1	-1E+10	1	-1E+10	1
4902554	21	C	08/31/2021	06:02	-136.362	49.544	0	323.90	0	4.6740	0	33.8930	0	26.837	0	320.885	0	-1e10	8	-1e10	8	-1E+10	1	-1E+10	1	-1E+10	1	-1E+10	1	-1E+10	1	-1E+10	1
4902554	21	C	08/31/2021	06:02	-136.362	49.544	0	324.80	0	4.6670	0	33.8950	0	26.839	0	321.776	0	-1e10	8	-1e10	8	-1E+10	1	-1E+10	1	-1E+10	1	-1E+10	1	-1E+10	1	-1E+10	1
4902554	21	C	08/31/2021	06:02	-136.362	49.544	0	325.70	0	4.6650	0	33.8950	0	26.839	0	322.667	0	-1e10	8	-1e10	8	-1E+10	1	-1E+10	1	-1E+10	1	-1E+10	1	-1E+10	1	-1E+10	1
4902554	21	C	08/31/2021	06:02	-136.362	49.544	0	326.90	0	4.6620	0	33.8960	0	26.841	0	323.855	0	-1e10	8	-1e10	8	-1E+10	1	-1E+10	1	-1E+10	1	-1E+10	1	-1E+10	1	-1E+10	1
4902554	21	C	08/31/2021	06:02	-136.362	49.544	0	328.30	0	4.6580	0	33.8970	0	26.842	0	325.241	0	-1e10	8	-1e10	8	-1E+10	1	-1E+10	1	-1E+10	1	-1E+10	1	-1E+10	1	-1E+10	1
4902554	21	C	08/31/2021	06:02	-136.362	49.544	0	329.20	0	4.6540	0	33.8980	0	26.843	0	326.132	0	-1e10	8	-1e10	8	-1E+10	1	-1E+10	1	-1E+10	1	-1E+10	1	-1E+10	1	-1E+10	1
4902554	21	C	08/31/2021	06:02	-136.362	49.544	0	330.00	0	4.6510	0	33.8980	0	26.843	0	326.924	0	-1e10	8	-1e10	8	-1E+10	1	-1E+10	1	-1E+10	1	-1E+10	1	-1E+10	1	-1E+10	1
4902554	21	C	08/31/2021	06:02	-136.362	49.544	0	330.90	0	4.6480	0	33.8990	0	26.845	0	327.814	0	-1e10	8	-1e10	8	-1E+10	1	-1E+10	1	-1E+10	1	-1E+10	1	-1E+10	1	-1E+10	1
4902554	21	C	08/31/2021	06:02	-136.362	49.544	0	331.80	0	4.6460	0	33.9000	0	26.846	0	328.705	0	-1e10	8	-1e10	8	-1E+10	1	-1E+10	1	-1E+10	1	-1E+10	1	-1E+10	1	-1E+10	1
4902554	21	C	08/31/2021	06:02	-136.362	49.544	0	332.60	0	4.6330	0	33.9040	0	26.850	0	329.497	0	-1e10	8	-1e10	8	-1E+10	1	-1E+10	1	-1E+10	1	-1E+10	1	-1E+10	1	-1E+10	1
4902554	21	C	08/31/2021	06:02	-136.362	49.544	0	333.90	0	4.6300	0	33.9050	0	26.851	0	330.784	0	-1e10	8	-1e10	8	-1E+10	1	-1E+10	1	-1E+10	1	-1E+10	1	-1E+10	1	-1E+10	1
4902554	21	C	08/31/2021	06:02	-136.362	49.544	0	335.30	0	4.6240	0	33.9080	0	26.854	0	332.170	0	-1e10	8	-1e10	8	-1E+10	1	-1E+10	1	-1E+10	1	-1E+10	1	-1E+10	1	-1E+10	1
4902554	21	C	08/31/2021	06:02	-136.362	49.544	0	336.20	0	4.6210	0	33.9090	0	26.855	0	333.061	0	-1e10	8	-1e10	8	-1E+10	1	-1E+10	1	-1E+10	1	-1E+10	1	-1E+10	1	-1E+10	1
4902554	21	C	08/31/2021	06:02	-136.362	49.544	0	337.00	0	4.6150	0	33.9100	0	26.857	0	333.853	0	-1e10	8	-1e10	8	-1E+10	1	-1E+10	1	-1E+10	1	-1E+10	1	-1E+10	1	-1E+10	1
4902554	21	C	08/31/2021	06:02	-136.362	49.544	0	337.90	0	4.6090	0	33.9120	0	26.859	0	334.743	0	-1e10	8	-1e10	8	-1E+10	1	-1E+10	1	-1E+10	1	-1E+10	1	-1E+10	1	-1E+10	1
4902554	21	C	08/31/2021	06:02	-136.362	49.544	0	338.80	0	4.6060	0	33.9120	0	26.860	0	335.634	0	-1e10	8	-1e10	8	-1E+10	1	-1E+10	1	-1E+10	1	-1E+10	1	-1E+10	1	-1E+10	1
4902554	21	C	08/31/2021	06:02	-136.362	49.544	0	339.70	0	4.6050	0	33.9120	0	26.860	0	336.525	0	-1e10	8	-1e10	8	-1E+10	1	-1E+10	1	-1E+10	1	-1E+10	1	-1E+10	1	-1E+10	1
4902554	21	C	08/31/2021	06:02	-136.362	49.544	0	340.90	0	4.6040	0	33.9120	0	26.860	0	337.713	0	-1e10	8	-1e10	8	-1E+10	1	-1E+10	1	-1E+10	1	-1E+10	1	-1E+10	1	-1E+10	1
4902554	21	C	08/31/2021	06:02	-136.362	49.544	0	342.30	0	4.5990	0	33.9140	0	26.862	0	339.099	0	-1e10	8	-1e10	8	-1E+10	1	-1E+10	1	-1E+10	1	-1E+10	1	-1E+10	1	-1E+10	1
4902554	21	C	08/31/2021	06:02	-136.362	49.544	0	343.20	0	4.5960	0	33.9140	0	26.862	0	339.990	0	-1e10	8	-1e10	8	-1E+10	1	-1E+10	1	-1E+10	1	-1E+10	1	-1E+10	1	-1E+10	1
4902554	21	C	08/31/2021	06:02	-136.362	49.544	0	344.10	0	4.5920	0	33.9150	0	26.863	0	340.880	0	-1e10	8	-1e10	8	-1E+10	1	-1E+10	1	-1E+10	1	-1E+10	1	-1E+10	1	-1E+10	1
4902554	21	C	08/31/2021	06:02	-136.362	49.544	0	344.90	0	4.5780	0	33.9190	0	26.868	0	341.672	0	-1e10	8	-1e10	8	-1E+10	1	-1E+10	1	-1E+10	1	-1E+10	1	-1E+10	1	-1E+10	1
4902554	21	C	08/31/2021	06:02	-136.362	49.544	0	345.80	0	4.5740	0	33.9200	0	26.869	0	342.563	0	-1e10	8	-1e10	8	-1E+10	1	-1E+10	1	-1E+10	1	-1E+10	1	-1E+10	1	-1E+10	1
4902554	21	C	08/31/2021	06:02	-136.362	49.544	0	346.70	0	4.5700	0	33.9220	0	26.871	0	343.454	0	-1e10	8	-1e10	8	-1E+10	1	-1E+10	1	-1E+10	1	-1E+10	1	-1E+10	1	-1E+10	1
4902554	21	C	08/31/2021	06:02	-136.362	49.544	0	347.60	0	4.5680	0	33.9210	0	26.871	0	344.345	0	-1e10	8	-1e10	8	-1E+10	1	-1E+10	1	-1E+10	1	-1E+10	1	-1E+10	1	-1E+10	1
4902554	21	C	08/31/2021	06:02	-136.362	49.544	0	348.90	0	4.5640	0	33.9230	0	26.873	0	345.632	0	-1e10	8	-1e10	8	-1E+10	1	-1E+10	1	-1E+10	1	-1E+10	1	-1E+10	1	-1E+10	1
4902554	21	C	08/31/2021	06:02	-136.362	49.544	0	350.20	0	4.5540	0	33.9240	0	26.875	0	346.918	0	-1e10	8	-1e10	8	-1E+10	1	-1E+10	1	-1E+10	1	-1E+10	1	-1E+10	1	-1E+10	1
4902554	21	C	08/31/2021	06:02	-136.362	49.544	0	352.80	0	4.5420	0	33.9260	0	26.878	0	349.492	0	-1e10	8	-1e10	8	-1E+10	1	-1E+10	1	-1E+10	1	-1E+10	1	-1E+10	1	-1E+10	1
4902554	21	C	08/31/2021	06:02	-136.362	49.544	0	357.70	0	4.5170	0	33.9340	0	26.887	0	354.342	0	-1e10	8	-1e10	8	-1E+10	1	-1E+10	1	-1E+10	1	-1E+10	1	-1E+10	1	-1E+10	1
4902554	21	C	08/31/2021	06:02	-136.362	49.544	0	363.00	0	4.5040	0	33.9410	0	26.894	0	359.587	0	-1e10	8	-1e10	8	-1E+10	1	-1E+10	1	-1E+10	1	-1E+10	1	-1E+10	1	-1E+10	1
4902554	21	C	08/31/2021	06:02	-136.362	49.544	0	368.10	0	4.4930	0	33.9470	0	26.900	0	364.635	0	-1e10	8	-1e10	8	-1E+10	1	-1E+10	1	-1E+10	1	-1E+10	1	-1E+10	1	-1E+10	1
4902554	21	C	08/31/2021	06:02	-136.362	49.544	0	373.00	0	4.4820	0	33.9500	0	26.903	0	369.484	0	-1e10	8	-1e10	8	-1E+10	1	-1E+10	1	-1E+10	1	-1E+10	1	-1E+10	1	-1E+10	1
4902554	21	C	08/31/2021	06:02	-136.362	49.544	0	378.00	0	4.4660	0	33.9540	0	26.908	0	374.433	0	-1e10	8	-1e10	8	-1E+10	1	-1E+10	1	-1E+10	1	-1E+10	1	-1E+10	1	-1E+10	1
4902554	21	C	08/31/2021	06:02	-136.362	49.544	0	383.00	0	4.4490	0	33.9580	0	26.913	0	379.381	0	-1e10	8	-1e10	8	-1E+10	1	-1E+10	1	-1E+10	1	-1E+10	1	-1E+10	1	-1E+10	1
4902554	21	C	08/31/2021	06:02	-136.362	49.544	0	388.10	0	4.4290	0	33.9650	0	26.921	0	384.428	0	-1e10	8	-1e10	8	-1E+10	1	-1E+10	1	-1E+10	1	-1E+10	1	-1E+10	1	-1E+10	1
4902554	21	C	08/31/2021	06:02	-136.362	49.544	0	392.60	0	4.4100	0	33.9680	0	26.926	0	388.881	0	-1e10	8	-1e10	8	-1E+10	1	-1E+10	1	-1E+10	1	-1E+10	1	-1E+10	1	-1E+10	1
4902554	21	C	08/31/2021	06:02	-136.362	49.544	0	397.80	0	4.3680	0	33.9750	0	26.936	0	394.027	0	-1e10	8	-1e10	8	-1E+10	1	-1E+10	1	-1E+10	1	-1E+10	1	-1E+10	1	-1E+10	1
4902554	21	C	08/31/2021	06:02	-136.362	49.544	0	403.00	0	4.3480	0	33.9810	0	26.942	0	399.173	0	-1e10	8	-1e10	8	-1E+10	1	-1E+10	1	-1E+10	1	-1E+10	1	-1E+10	1	-1E+10	1
4902554	21	C	08/31/2021	06:02	-136.362	49.544	0	407.80	0	4.3430	0	33.9820	0	26.944	0	403.922	0	-1e10	8	-1e10	8	-1E+10	1	-1E+10	1	-1E+10	1	-1E+10	1	-1E+10	1	-1E+10	1
4902554	21	C	08/31/2021	06:02	-136.362	49.544	0	413.00	0	4.3260	0	33.9890	0	26.951	0	409.068	0	-1e10	8	-1e10	8	-1E+10	1	-1E+10	1	-1E+10	1	-1E+10	1	-1E+10	1	-1E+10	1
4902554	21	C	08/31/2021	06:02	-136.362	49.544	0	418.20	0	4.3090	0	33.9980	0	26.960	0	414.213	0	-1e10	8	-1e10	8	-1E+10	1	-1E+10	1	-1E+10	1	-1E+10	1	-1E+10	1	-1E+10	1
4902554	21	C	08/31/2021	06:02	-136.362	49.544	0	422.90	0	4.3010	0	34.0040	0	26.966	0	418.864	0	-1e10	8	-1e10	8	-1E+10	1	-1E+10	1	-1E+10	1	-1E+10	1	-1E+10	1	-1E+10	1
4902554	21	C	08/31/2021	06:02	-136.362	49.544	0	427.80	0	4.2910	0	34.0080	0	26.970	0	423.712	0	-1e10	8	-1e10	8	-1E+10	1	-1E+10	1	-1E+10	1	-1E+10	1	-1E+10	1	-1E+10	1
4902554	21	C	08/31/2021	06:02	-136.362	49.544	0	432.70	0	4.2810	0	34.0140	0	26.976	0	428.560	0	-1e10	8	-1e10	8	-1E+10	1	-1E+10	1	-1E+10	1	-1E+10	1	-1E+10	1	-1E+10	1
4902554	21	C	08/31/2021	06:02	-136.362	49.544	0	437.70	0	4.2700	0	34.0190	0	26.981	0	433.507	0	-1e10	8	-1e10	8	-1E+10	1	-1E+10	1	-1E+10	1	-1E+10	1	-1E+10	1	-1E+10	1
4902554	21	C	08/31/2021	06:02	-136.362	49.544	0	442.70	0	4.2620	0	34.0250	0	26.987	0	438.454	0	-1e10	8	-1e10	8	-1E+10	1	-1E+10	1	-1E+10	1	-1E+10	1	-1E+10	1	-1E+10	1
4902554	21	C	08/31/2021	06:02	-136.362	49.544	0	447.80	0	4.2570	0	34.0280	0	26.990	0	443.499	0	-1e10	8	-1e10	8	-1E+10	1	-1E+10	1	-1E+10	1	-1E+10	1	-1E+10	1	-1E+10	1
4902554	21	C	08/31/2021	06:02	-136.362	49.544	0	452.90	0	4.2430	0	34.0350	0	26.997	0	448.545	0	-1e10	8	-1e10	8	-1E+10	1	-1E+10	1	-1E+10	1	-1E+10	1	-1E+10	1	-1E+10	1
4902554	21	C	08/31/2021	06:02	-136.362	49.544	0	458.10	0	4.2250	0	34.0420	0	27.004	0	453.689	0	-1e10	8	-1e10	8	-1E+10	1	-1E+10	1	-1E+10	1	-1E+10	1	-1E+10	1	-1E+10	1
4902554	21	C	08/31/2021	06:02	-136.362	49.544	0	462.80	0	4.2170	0	34.0470	0	27.009	0	458.339	0	-1e10	8	-1e10	8	-1E+10	1	-1E+10	1	-1E+10	1	-1E+10	1	-1E+10	1	-1E+10	1
4902554	21	C	08/31/2021	06:02	-136.362	49.544	0	467.90	0	4.2110	0	34.0530	0	27.015	0	463.384	0	-1e10	8	-1e10	8	-1E+10	1	-1E+10	1	-1E+10	1	-1E+10	1	-1E+10	1	-1E+10	1
4902554	21	C	08/31/2021	06:02	-136.362	49.544	0	473.10	0	4.1970	0	34.0580	0	27.020	0	468.528	0	-1e10	8	-1e10	8	-1E+10	1	-1E+10	1	-1E+10	1	-1E+10	1	-1E+10	1	-1E+10	1
4902554	21	C	08/31/2021	06:02	-136.362	49.544	0	477.90	0	4.1870	0	34.0610	0	27.024	0	473.276	0	-1e10	8	-1e10	8	-1E+10	1	-1E+10	1	-1E+10	1	-1E+10	1	-1E+10	1	-1E+10	1
4902554	21	C	08/31/2021	06:02	-136.362	49.544	0	482.80	0	4.1720	0	34.0640	0	27.028	0	478.123	0	-1e10	8	-1e10	8	-1E+10	1	-1E+10	1	-1E+10	1	-1E+10	1	-1E+10	1	-1E+10	1
4902554	21	C	08/31/2021	06:02	-136.362	49.544	0	487.80	0	4.1590	0	34.0700	0	27.034	0	483.069	0	-1e10	8	-1e10	8	-1E+10	1	-1E+10	1	-1E+10	1	-1E+10	1	-1E+10	1	-1E+10	1
4902554	21	C	08/31/2021	06:02	-136.362	49.544	0	492.90	0	4.1430	0	34.0770	0	27.041	0	488.113	0	-1e10	8	-1e10	8	-1E+10	1	-1E+10	1	-1E+10	1	-1E+10	1	-1E+10	1	-1E+10	1
4902554	21	C	08/31/2021	06:02	-136.362	49.544	0	498.10	0	4.1310	0	34.0830	0	27.047	0	493.257	0	-1e10	8	-1e10	8	-1E+10	1	-1E+10	1	-1E+10	1	-1E+10	1	-1E+10	1	-1E+10	1
4902554	21	C	08/31/2021	06:02	-136.362	49.544	0	503.00	0	4.1140	0	34.0850	0	27.050	0	498.103	0	-1e10	8	-1e10	8	-1E+10	1	-1E+10	1	-1E+10	1	-1E+10	1	-1E+10	1	-1E+10	1
4902554	21	C	08/31/2021	06:02	-136.362	49.544	0	507.80	0	4.1050	0	34.0880	0	27.054	0	502.851	0	-1e10	8	-1e10	8	-1E+10	1	-1E+10	1	-1E+10	1	-1E+10	1	-1E+10	1	-1E+10	1
4902554	21	C	08/31/2021	06:02	-136.362	49.544	0	513.20	0	4.0890	0	34.0930	0	27.059	0	508.191	0	-1e10	8	-1e10	8	-1E+10	1	-1E+10	1	-1E+10	1	-1E+10	1	-1E+10	1	-1E+10	1
4902554	21	C	08/31/2021	06:02	-136.362	49.544	0	518.10	0	4.0760	0	34.0980	0	27.065	0	513.037	0	-1e10	8	-1e10	8	-1E+10	1	-1E+10	1	-1E+10	1	-1E+10	1	-1E+10	1	-1E+10	1
4902554	21	C	08/31/2021	06:02	-136.362	49.544	0	523.00	0	4.0670	0	34.1010	0	27.068	0	517.883	0	-1e10	8	-1e10	8	-1E+10	1	-1E+10	1	-1E+10	1	-1E+10	1	-1E+10	1	-1E+10	1
4902554	21	C	08/31/2021	06:02	-136.362	49.544	0	528.10	0	4.0510	0	34.1070	0	27.075	0	522.927	0	-1e10	8	-1e10	8	-1E+10	1	-1E+10	1	-1E+10	1	-1E+10	1	-1E+10	1	-1E+10	1
4902554	21	C	08/31/2021	06:02	-136.362	49.544	0	533.10	0	4.0440	0	34.1090	0	27.077	0	527.872	0	-1e10	8	-1e10	8	-1E+10	1	-1E+10	1	-1E+10	1	-1E+10	1	-1E+10	1	-1E+10	1
4902554	21	C	08/31/2021	06:02	-136.362	49.544	0	538.20	0	4.0370	0	34.1110	0	27.079	0	532.915	0	-1e10	8	-1e10	8	-1E+10	1	-1E+10	1	-1E+10	1	-1E+10	1	-1E+10	1	-1E+10	1
4902554	21	C	08/31/2021	06:02	-136.362	49.544	0	542.90	0	4.0320	0	34.1130	0	27.081	0	537.563	0	-1e10	8	-1e10	8	-1E+10	1	-1E+10	1	-1E+10	1	-1E+10	1	-1E+10	1	-1E+10	1
4902554	21	C	08/31/2021	06:02	-136.362	49.544	0	547.60	0	4.0260	0	34.1160	0	27.084	0	542.211	0	-1e10	8	-1e10	8	-1E+10	1	-1E+10	1	-1E+10	1	-1E+10	1	-1E+10	1	-1E+10	1
4902554	21	C	08/31/2021	06:02	-136.362	49.544	0	552.90	0	4.0160	0	34.1200	0	27.089	0	547.452	0	-1e10	8	-1e10	8	-1E+10	1	-1E+10	1	-1E+10	1	-1E+10	1	-1E+10	1	-1E+10	1
4902554	21	C	08/31/2021	06:02	-136.362	49.544	0	558.10	0	4.0020	0	34.1260	0	27.095	0	552.593	0	-1e10	8	-1e10	8	-1E+10	1	-1E+10	1	-1E+10	1	-1E+10	1	-1E+10	1	-1E+10	1
4902554	21	C	08/31/2021	06:02	-136.362	49.544	0	562.90	0	3.9920	0	34.1300	0	27.099	0	557.340	0	-1e10	8	-1e10	8	-1E+10	1	-1E+10	1	-1E+10	1	-1E+10	1	-1E+10	1	-1E+10	1
4902554	21	C	08/31/2021	06:02	-136.362	49.544	0	567.80	0	3.9820	0	34.1350	0	27.104	0	562.185	0	-1e10	8	-1e10	8	-1E+10	1	-1E+10	1	-1E+10	1	-1E+10	1	-1E+10	1	-1E+10	1
4902554	21	C	08/31/2021	06:02	-136.362	49.544	0	572.70	0	3.9770	0	34.1380	0	27.107	0	567.030	0	-1e10	8	-1e10	8	-1E+10	1	-1E+10	1	-1E+10	1	-1E+10	1	-1E+10	1	-1E+10	1
4902554	21	C	08/31/2021	06:02	-136.362	49.544	0	577.60	0	3.9660	0	34.1420	0	27.111	0	571.874	0	-1e10	8	-1e10	8	-1E+10	1	-1E+10	1	-1E+10	1	-1E+10	1	-1E+10	1	-1E+10	1
4902554	21	C	08/31/2021	06:02	-136.362	49.544	0	582.60	0	3.9550	0	34.1470	0	27.117	0	576.818	0	-1e10	8	-1e10	8	-1E+10	1	-1E+10	1	-1E+10	1	-1E+10	1	-1E+10	1	-1E+10	1
4902554	21	C	08/31/2021	06:02	-136.362	49.544	0	587.60	0	3.9430	0	34.1520	0	27.122	0	581.761	0	-1e10	8	-1e10	8	-1E+10	1	-1E+10	1	-1E+10	1	-1E+10	1	-1E+10	1	-1E+10	1
4902554	21	C	08/31/2021	06:02	-136.362	49.544	0	592.70	0	3.9290	0	34.1570	0	27.127	0	586.803	0	-1e10	8	-1e10	8	-1E+10	1	-1E+10	1	-1E+10	1	-1E+10	1	-1E+10	1	-1E+10	1
4902554	21	C	08/31/2021	06:02	-136.362	49.544	0	597.90	0	3.9180	0	34.1600	0	27.131	0	591.944	0	-1e10	8	-1e10	8	-1E+10	1	-1E+10	1	-1E+10	1	-1E+10	1	-1E+10	1	-1E+10	1
4902554	21	C	08/31/2021	06:02	-136.362	49.544	0	603.10	0	3.9010	0	34.1660	0	27.137	0	597.085	0	-1e10	8	-1e10	8	-1E+10	1	-1E+10	1	-1E+10	1	-1E+10	1	-1E+10	1	-1E+10	1
4902554	21	C	08/31/2021	06:02	-136.362	49.544	0	607.90	0	3.8910	0	34.1700	0	27.141	0	601.830	0	-1e10	8	-1e10	8	-1E+10	1	-1E+10	1	-1E+10	1	-1E+10	1	-1E+10	1	-1E+10	1
4902554	21	C	08/31/2021	06:02	-136.362	49.544	0	612.70	0	3.8830	0	34.1720	0	27.144	0	606.575	0	-1e10	8	-1e10	8	-1E+10	1	-1E+10	1	-1E+10	1	-1E+10	1	-1E+10	1	-1E+10	1
4902554	21	C	08/31/2021	06:02	-136.362	49.544	0	617.60	0	3.8690	0	34.1760	0	27.149	0	611.419	0	-1e10	8	-1e10	8	-1E+10	1	-1E+10	1	-1E+10	1	-1E+10	1	-1E+10	1	-1E+10	1
4902554	21	C	08/31/2021	06:02	-136.362	49.544	0	622.60	0	3.8510	0	34.1810	0	27.154	0	616.362	0	-1e10	8	-1e10	8	-1E+10	1	-1E+10	1	-1E+10	1	-1E+10	1	-1E+10	1	-1E+10	1
4902554	21	C	08/31/2021	06:02	-136.362	49.544	0	627.80	0	3.8470	0	34.1820	0	27.156	0	621.502	0	-1e10	8	-1e10	8	-1E+10	1	-1E+10	1	-1E+10	1	-1E+10	1	-1E+10	1	-1E+10	1
4902554	21	C	08/31/2021	06:02	-136.362	49.544	0	632.80	0	3.8330	0	34.1860	0	27.160	0	626.444	0	-1e10	8	-1e10	8	-1E+10	1	-1E+10	1	-1E+10	1	-1E+10	1	-1E+10	1	-1E+10	1
4902554	21	C	08/31/2021	06:02	-136.362	49.544	0	637.80	0	3.8200	0	34.1890	0	27.164	0	631.386	0	-1e10	8	-1e10	8	-1E+10	1	-1E+10	1	-1E+10	1	-1E+10	1	-1E+10	1	-1E+10	1
4902554	21	C	08/31/2021	06:02	-136.362	49.544	0	642.90	0	3.8140	0	34.1910	0	27.166	0	636.427	0	-1e10	8	-1e10	8	-1E+10	1	-1E+10	1	-1E+10	1	-1E+10	1	-1E+10	1	-1E+10	1
4902554	21	C	08/31/2021	06:02	-136.362	49.544	0	647.60	0	3.8020	0	34.1940	0	27.170	0	641.073	0	-1e10	8	-1e10	8	-1E+10	1	-1E+10	1	-1E+10	1	-1E+10	1	-1E+10	1	-1E+10	1
4902554	21	C	08/31/2021	06:02	-136.362	49.544	0	652.80	0	3.7930	0	34.1960	0	27.172	0	646.212	0	-1e10	8	-1e10	8	-1E+10	1	-1E+10	1	-1E+10	1	-1E+10	1	-1E+10	1	-1E+10	1
4902554	21	C	08/31/2021	06:02	-136.362	49.544	0	658.00	0	3.7780	0	34.2000	0	27.177	0	651.352	0	-1e10	8	-1e10	8	-1E+10	1	-1E+10	1	-1E+10	1	-1E+10	1	-1E+10	1	-1E+10	1
4902554	21	C	08/31/2021	06:02	-136.362	49.544	0	662.80	0	3.7650	0	34.2050	0	27.182	0	656.096	0	-1e10	8	-1e10	8	-1E+10	1	-1E+10	1	-1E+10	1	-1E+10	1	-1E+10	1	-1E+10	1
4902554	21	C	08/31/2021	06:02	-136.362	49.544	0	667.60	0	3.7540	0	34.2070	0	27.185	0	660.839	0	-1e10	8	-1e10	8	-1E+10	1	-1E+10	1	-1E+10	1	-1E+10	1	-1E+10	1	-1E+10	1
4902554	21	C	08/31/2021	06:02	-136.362	49.544	0	672.90	0	3.7410	0	34.2110	0	27.190	0	666.077	0	-1e10	8	-1e10	8	-1E+10	1	-1E+10	1	-1E+10	1	-1E+10	1	-1E+10	1	-1E+10	1
4902554	21	C	08/31/2021	06:02	-136.362	49.544	0	678.10	0	3.7310	0	34.2150	0	27.194	0	671.216	0	-1e10	8	-1e10	8	-1E+10	1	-1E+10	1	-1E+10	1	-1E+10	1	-1E+10	1	-1E+10	1
4902554	21	C	08/31/2021	06:02	-136.362	49.544	0	682.80	0	3.7220	0	34.2180	0	27.197	0	675.861	0	-1e10	8	-1e10	8	-1E+10	1	-1E+10	1	-1E+10	1	-1E+10	1	-1E+10	1	-1E+10	1
4902554	21	C	08/31/2021	06:02	-136.362	49.544	0	688.00	0	3.7120	0	34.2190	0	27.199	0	680.999	0	-1e10	8	-1e10	8	-1E+10	1	-1E+10	1	-1E+10	1	-1E+10	1	-1E+10	1	-1E+10	1
4902554	21	C	08/31/2021	06:02	-136.362	49.544	0	693.20	0	3.7030	0	34.2220	0	27.202	0	686.138	0	-1e10	8	-1e10	8	-1E+10	1	-1E+10	1	-1E+10	1	-1E+10	1	-1E+10	1	-1E+10	1
4902554	21	C	08/31/2021	06:02	-136.362	49.544	0	697.90	0	3.6860	0	34.2260	0	27.207	0	690.782	0	-1e10	8	-1e10	8	-1E+10	1	-1E+10	1	-1E+10	1	-1E+10	1	-1E+10	1	-1E+10	1
4902554	21	C	08/31/2021	06:02	-136.362	49.544	0	702.90	0	3.6790	0	34.2280	0	27.209	0	695.723	0	-1e10	8	-1e10	8	-1E+10	1	-1E+10	1	-1E+10	1	-1E+10	1	-1E+10	1	-1E+10	1
4902554	21	C	08/31/2021	06:02	-136.362	49.544	0	707.90	0	3.6690	0	34.2300	0	27.212	0	700.664	0	-1e10	8	-1e10	8	-1E+10	1	-1E+10	1	-1E+10	1	-1E+10	1	-1E+10	1	-1E+10	1
4902554	21	C	08/31/2021	06:02	-136.362	49.544	0	712.90	0	3.6620	0	34.2320	0	27.214	0	705.604	0	-1e10	8	-1e10	8	-1E+10	1	-1E+10	1	-1E+10	1	-1E+10	1	-1E+10	1	-1E+10	1
4902554	21	C	08/31/2021	06:02	-136.362	49.544	0	717.90	0	3.6520	0	34.2350	0	27.218	0	710.544	0	-1e10	8	-1e10	8	-1E+10	1	-1E+10	1	-1E+10	1	-1E+10	1	-1E+10	1	-1E+10	1
4902554	21	C	08/31/2021	06:02	-136.362	49.544	0	723.00	0	3.6410	0	34.2380	0	27.221	0	715.583	0	-1e10	8	-1e10	8	-1E+10	1	-1E+10	1	-1E+10	1	-1E+10	1	-1E+10	1	-1E+10	1
4902554	21	C	08/31/2021	06:02	-136.362	49.544	0	728.00	0	3.6380	0	34.2380	0	27.222	0	720.523	0	-1e10	8	-1e10	8	-1E+10	1	-1E+10	1	-1E+10	1	-1E+10	1	-1E+10	1	-1E+10	1
4902554	21	C	08/31/2021	06:02	-136.362	49.544	0	733.10	0	3.6290	0	34.2400	0	27.224	0	725.562	0	-1e10	8	-1e10	8	-1E+10	1	-1E+10	1	-1E+10	1	-1E+10	1	-1E+10	1	-1E+10	1
4902554	21	C	08/31/2021	06:02	-136.362	49.544	0	738.20	0	3.6160	0	34.2410	0	27.226	0	730.601	0	-1e10	8	-1e10	8	-1E+10	1	-1E+10	1	-1E+10	1	-1E+10	1	-1E+10	1	-1E+10	1
4902554	21	C	08/31/2021	06:02	-136.362	49.544	0	742.80	0	3.6060	0	34.2430	0	27.229	0	735.145	0	-1e10	8	-1e10	8	-1E+10	1	-1E+10	1	-1E+10	1	-1E+10	1	-1E+10	1	-1E+10	1
4902554	21	C	08/31/2021	06:02	-136.362	49.544	0	748.00	0	3.5910	0	34.2470	0	27.233	0	740.283	0	-1e10	8	-1e10	8	-1E+10	1	-1E+10	1	-1E+10	1	-1E+10	1	-1E+10	1	-1E+10	1
4902554	21	C	08/31/2021	06:02	-136.362	49.544	0	753.10	0	3.5770	0	34.2520	0	27.239	0	745.321	0	-1e10	8	-1e10	8	-1E+10	1	-1E+10	1	-1E+10	1	-1E+10	1	-1E+10	1	-1E+10	1
4902554	21	C	08/31/2021	06:02	-136.362	49.544	0	758.10	0	3.5690	0	34.2550	0	27.242	0	750.260	0	-1e10	8	-1e10	8	-1E+10	1	-1E+10	1	-1E+10	1	-1E+10	1	-1E+10	1	-1E+10	1
4902554	21	C	08/31/2021	06:02	-136.362	49.544	0	763.10	0	3.5600	0	34.2570	0	27.245	0	755.199	0	-1e10	8	-1e10	8	-1E+10	1	-1E+10	1	-1E+10	1	-1E+10	1	-1E+10	1	-1E+10	1
4902554	21	C	08/31/2021	06:02	-136.362	49.544	0	767.70	0	3.5550	0	34.2580	0	27.246	0	759.743	0	-1e10	8	-1e10	8	-1E+10	1	-1E+10	1	-1E+10	1	-1E+10	1	-1E+10	1	-1E+10	1
4902554	21	C	08/31/2021	06:02	-136.362	49.544	0	772.80	0	3.5400	0	34.2620	0	27.250	0	764.781	0	-1e10	8	-1e10	8	-1E+10	1	-1E+10	1	-1E+10	1	-1E+10	1	-1E+10	1	-1E+10	1
4902554	21	C	08/31/2021	06:02	-136.362	49.544	0	777.80	0	3.5240	0	34.2650	0	27.254	0	769.720	0	-1e10	8	-1e10	8	-1E+10	1	-1E+10	1	-1E+10	1	-1E+10	1	-1E+10	1	-1E+10	1
4902554	21	C	08/31/2021	06:02	-136.362	49.544	0	782.80	0	3.5070	0	34.2690	0	27.259	0	774.659	0	-1e10	8	-1e10	8	-1E+10	1	-1E+10	1	-1E+10	1	-1E+10	1	-1E+10	1	-1E+10	1
4902554	21	C	08/31/2021	06:02	-136.362	49.544	0	787.90	0	3.4910	0	34.2730	0	27.264	0	779.696	0	-1e10	8	-1e10	8	-1E+10	1	-1E+10	1	-1E+10	1	-1E+10	1	-1E+10	1	-1E+10	1
4902554	21	C	08/31/2021	06:02	-136.362	49.544	0	792.90	0	3.4780	0	34.2750	0	27.267	0	784.635	0	-1e10	8	-1e10	8	-1E+10	1	-1E+10	1	-1E+10	1	-1E+10	1	-1E+10	1	-1E+10	1
4902554	21	C	08/31/2021	06:02	-136.362	49.544	0	797.90	0	3.4730	0	34.2760	0	27.268	0	789.573	0	-1e10	8	-1e10	8	-1E+10	1	-1E+10	1	-1E+10	1	-1E+10	1	-1E+10	1	-1E+10	1
4902554	21	C	08/31/2021	06:02	-136.362	49.544	0	803.00	0	3.4520	0	34.2800	0	27.273	0	794.610	0	-1e10	8	-1e10	8	-1E+10	1	-1E+10	1	-1E+10	1	-1E+10	1	-1E+10	1	-1E+10	1
4902554	21	C	08/31/2021	06:02	-136.362	49.544	0	808.10	0	3.4360	0	34.2840	0	27.278	0	799.647	0	-1e10	8	-1e10	8	-1E+10	1	-1E+10	1	-1E+10	1	-1E+10	1	-1E+10	1	-1E+10	1
4902554	21	C	08/31/2021	06:02	-136.362	49.544	0	812.90	0	3.4250	0	34.2860	0	27.281	0	804.388	0	-1e10	8	-1e10	8	-1E+10	1	-1E+10	1	-1E+10	1	-1E+10	1	-1E+10	1	-1E+10	1
4902554	21	C	08/31/2021	06:02	-136.362	49.544	0	817.70	0	3.4120	0	34.2880	0	27.284	0	809.128	0	-1e10	8	-1e10	8	-1E+10	1	-1E+10	1	-1E+10	1	-1E+10	1	-1E+10	1	-1E+10	1
4902554	21	C	08/31/2021	06:02	-136.362	49.544	0	822.90	0	3.4010	0	34.2910	0	27.287	0	814.264	0	-1e10	8	-1e10	8	-1E+10	1	-1E+10	1	-1E+10	1	-1E+10	1	-1E+10	1	-1E+10	1
4902554	21	C	08/31/2021	06:02	-136.362	49.544	0	828.30	0	3.3920	0	34.2940	0	27.290	0	819.596	0	-1e10	8	-1e10	8	-1E+10	1	-1E+10	1	-1E+10	1	-1E+10	1	-1E+10	1	-1E+10	1
4902554	21	C	08/31/2021	06:02	-136.362	49.544	0	833.20	0	3.3790	0	34.2960	0	27.293	0	824.435	0	-1e10	8	-1e10	8	-1E+10	1	-1E+10	1	-1E+10	1	-1E+10	1	-1E+10	1	-1E+10	1
4902554	21	C	08/31/2021	06:02	-136.362	49.544	0	838.10	0	3.3700	0	34.2980	0	27.296	0	829.274	0	-1e10	8	-1e10	8	-1E+10	1	-1E+10	1	-1E+10	1	-1E+10	1	-1E+10	1	-1E+10	1
4902554	21	C	08/31/2021	06:02	-136.362	49.544	0	843.00	0	3.3560	0	34.3020	0	27.300	0	834.113	0	-1e10	8	-1e10	8	-1E+10	1	-1E+10	1	-1E+10	1	-1E+10	1	-1E+10	1	-1E+10	1
4902554	21	C	08/31/2021	06:02	-136.362	49.544	0	848.00	0	3.3410	0	34.3060	0	27.305	0	839.050	0	-1e10	8	-1e10	8	-1E+10	1	-1E+10	1	-1E+10	1	-1E+10	1	-1E+10	1	-1E+10	1
4902554	21	C	08/31/2021	06:02	-136.362	49.544	0	853.00	0	3.3310	0	34.3080	0	27.308	0	843.987	0	-1e10	8	-1e10	8	-1E+10	1	-1E+10	1	-1E+10	1	-1E+10	1	-1E+10	1	-1E+10	1
4902554	21	C	08/31/2021	06:02	-136.362	49.544	0	858.00	0	3.3160	0	34.3110	0	27.311	0	848.924	0	-1e10	8	-1e10	8	-1E+10	1	-1E+10	1	-1E+10	1	-1E+10	1	-1E+10	1	-1E+10	1
4902554	21	C	08/31/2021	06:02	-136.362	49.544	0	862.90	0	3.3010	0	34.3140	0	27.315	0	853.762	0	-1e10	8	-1e10	8	-1E+10	1	-1E+10	1	-1E+10	1	-1E+10	1	-1E+10	1	-1E+10	1
4902554	21	C	08/31/2021	06:02	-136.362	49.544	0	868.20	0	3.2830	0	34.3180	0	27.320	0	858.995	0	-1e10	8	-1e10	8	-1E+10	1	-1E+10	1	-1E+10	1	-1E+10	1	-1E+10	1	-1E+10	1
4902554	21	C	08/31/2021	06:02	-136.362	49.544	0	873.00	0	3.2760	0	34.3190	0	27.322	0	863.734	0	-1e10	8	-1e10	8	-1E+10	1	-1E+10	1	-1E+10	1	-1E+10	1	-1E+10	1	-1E+10	1
4902554	21	C	08/31/2021	06:02	-136.362	49.544	0	877.80	0	3.2660	0	34.3210	0	27.324	0	868.474	0	-1e10	8	-1e10	8	-1E+10	1	-1E+10	1	-1E+10	1	-1E+10	1	-1E+10	1	-1E+10	1
4902554	21	C	08/31/2021	06:02	-136.362	49.544	0	882.60	0	3.2580	0	34.3230	0	27.327	0	873.213	0	-1e10	8	-1e10	8	-1E+10	1	-1E+10	1	-1E+10	1	-1E+10	1	-1E+10	1	-1E+10	1
4902554	21	C	08/31/2021	06:02	-136.362	49.544	0	887.50	0	3.2460	0	34.3240	0	27.328	0	878.050	0	-1e10	8	-1e10	8	-1E+10	1	-1E+10	1	-1E+10	1	-1E+10	1	-1E+10	1	-1E+10	1
4902554	21	C	08/31/2021	06:02	-136.362	49.544	0	892.60	0	3.2330	0	34.3270	0	27.332	0	883.085	0	-1e10	8	-1e10	8	-1E+10	1	-1E+10	1	-1E+10	1	-1E+10	1	-1E+10	1	-1E+10	1
4902554	21	C	08/31/2021	06:02	-136.362	49.544	0	897.80	0	3.2200	0	34.3310	0	27.337	0	888.219	0	-1e10	8	-1e10	8	-1E+10	1	-1E+10	1	-1E+10	1	-1E+10	1	-1E+10	1	-1E+10	1
4902554	21	C	08/31/2021	06:02	-136.362	49.544	0	902.80	0	3.2120	0	34.3330	0	27.339	0	893.155	0	-1e10	8	-1e10	8	-1E+10	1	-1E+10	1	-1E+10	1	-1E+10	1	-1E+10	1	-1E+10	1
4902554	21	C	08/31/2021	06:02	-136.362	49.544	0	907.80	0	3.2010	0	34.3350	0	27.342	0	898.090	0	-1e10	8	-1e10	8	-1E+10	1	-1E+10	1	-1E+10	1	-1E+10	1	-1E+10	1	-1E+10	1
4902554	21	C	08/31/2021	06:02	-136.362	49.544	0	912.90	0	3.1940	0	34.3360	0	27.343	0	903.125	0	-1e10	8	-1e10	8	-1E+10	1	-1E+10	1	-1E+10	1	-1E+10	1	-1E+10	1	-1E+10	1
4902554	21	C	08/31/2021	06:02	-136.362	49.544	0	917.70	0	3.1850	0	34.3380	0	27.345	0	907.863	0	-1e10	8	-1e10	8	-1E+10	1	-1E+10	1	-1E+10	1	-1E+10	1	-1E+10	1	-1E+10	1
4902554	21	C	08/31/2021	06:02	-136.362	49.544	0	922.60	0	3.1760	0	34.3400	0	27.348	0	912.700	0	-1e10	8	-1e10	8	-1E+10	1	-1E+10	1	-1E+10	1	-1E+10	1	-1E+10	1	-1E+10	1
4902554	21	C	08/31/2021	06:02	-136.362	49.544	0	927.60	0	3.1720	0	34.3410	0	27.349	0	917.635	0	-1e10	8	-1e10	8	-1E+10	1	-1E+10	1	-1E+10	1	-1E+10	1	-1E+10	1	-1E+10	1
4902554	21	C	08/31/2021	06:02	-136.362	49.544	0	932.60	0	3.1670	0	34.3410	0	27.350	0	922.571	0	-1e10	8	-1e10	8	-1E+10	1	-1E+10	1	-1E+10	1	-1E+10	1	-1E+10	1	-1E+10	1
4902554	21	C	08/31/2021	06:02	-136.362	49.544	0	937.70	0	3.1620	0	34.3420	0	27.351	0	927.604	0	-1e10	8	-1e10	8	-1E+10	1	-1E+10	1	-1E+10	1	-1E+10	1	-1E+10	1	-1E+10	1
4902554	21	C	08/31/2021	06:02	-136.362	49.544	0	942.90	0	3.1550	0	34.3430	0	27.352	0	932.737	0	-1e10	8	-1e10	8	-1E+10	1	-1E+10	1	-1E+10	1	-1E+10	1	-1E+10	1	-1E+10	1
4902554	21	C	08/31/2021	06:02	-136.362	49.544	0	948.20	0	3.1510	0	34.3440	0	27.354	0	937.968	0	-1e10	8	-1e10	8	-1E+10	1	-1E+10	1	-1E+10	1	-1E+10	1	-1E+10	1	-1E+10	1
4902554	21	C	08/31/2021	06:02	-136.362	49.544	0	953.00	0	3.1410	0	34.3460	0	27.356	0	942.705	0	-1e10	8	-1e10	8	-1E+10	1	-1E+10	1	-1E+10	1	-1E+10	1	-1E+10	1	-1E+10	1
4902554	21	C	08/31/2021	06:02	-136.362	49.544	0	957.70	0	3.1370	0	34.3470	0	27.357	0	947.344	0	-1e10	8	-1e10	8	-1E+10	1	-1E+10	1	-1E+10	1	-1E+10	1	-1E+10	1	-1E+10	1
4902554	21	C	08/31/2021	06:02	-136.362	49.544	0	962.90	0	3.1310	0	34.3480	0	27.359	0	952.476	0	-1e10	8	-1e10	8	-1E+10	1	-1E+10	1	-1E+10	1	-1E+10	1	-1E+10	1	-1E+10	1
4902554	21	C	08/31/2021	06:02	-136.362	49.544	0	968.10	0	3.1210	0	34.3500	0	27.361	0	957.608	0	-1e10	8	-1e10	8	-1E+10	1	-1E+10	1	-1E+10	1	-1E+10	1	-1E+10	1	-1E+10	1
4902554	21	C	08/31/2021	06:02	-136.362	49.544	0	973.30	0	3.1110	0	34.3520	0	27.364	0	962.739	0	-1e10	8	-1e10	8	-1E+10	1	-1E+10	1	-1E+10	1	-1E+10	1	-1E+10	1	-1E+10	1
4902554	21	C	08/31/2021	06:02	-136.362	49.544	0	978.10	0	3.1030	0	34.3530	0	27.365	0	967.476	0	-1e10	8	-1e10	8	-1E+10	1	-1E+10	1	-1E+10	1	-1E+10	1	-1E+10	1	-1E+10	1
4902554	21	C	08/31/2021	06:02	-136.362	49.544	0	982.80	0	3.0970	0	34.3540	0	27.367	0	972.114	0	-1e10	8	-1e10	8	-1E+10	1	-1E+10	1	-1E+10	1	-1E+10	1	-1E+10	1	-1E+10	1
4902554	21	C	08/31/2021	06:02	-136.362	49.544	0	988.10	0	3.0880	0	34.3560	0	27.369	0	977.344	0	-1e10	8	-1e10	8	-1E+10	1	-1E+10	1	-1E+10	1	-1E+10	1	-1E+10	1	-1E+10	1
4902554	21	C	08/31/2021	06:02	-136.362	49.544	0	992.90	0	3.0770	0	34.3580	0	27.372	0	982.081	0	-1e10	8	-1e10	8	-1E+10	1	-1E+10	1	-1E+10	1	-1E+10	1	-1E+10	1	-1E+10	1
4902554	21	C	08/31/2021	06:02	-136.362	49.544	0	997.70	0	3.0570	0	34.3610	0	27.376	0	986.817	0	-1e10	8	-1e10	8	-1E+10	1	-1E+10	1	-1E+10	1	-1E+10	1	-1E+10	1	-1E+10	1
4902554	21	C	08/31/2021	06:02	-136.362	49.544	0	1005.20	0	3.0430	0	34.3640	0	27.380	0	994.218	0	-1e10	8	-1e10	8	-1E+10	1	-1E+10	1	-1E+10	1	-1E+10	1	-1E+10	1	-1E+10	1
4902554	21	C	08/31/2021	06:02	-136.362	49.544	0	1015.30	0	3.0270	0	34.3670	0	27.384	0	1004.183	0	-1e10	8	-1e10	8	-1E+10	1	-1E+10	1	-1E+10	1	-1E+10	1	-1E+10	1	-1E+10	1
4902554	21	C	08/31/2021	06:02	-136.362	49.544	0	1025.50	0	3.0040	0	34.3710	0	27.389	0	1014.247	0	-1e10	8	-1e10	8	-1E+10	1	-1E+10	1	-1E+10	1	-1E+10	1	-1E+10	1	-1E+10	1
4902554	21	C	08/31/2021	06:02	-136.362	49.544	0	1035.10	0	2.9880	0	34.3740	0	27.393	0	1023.718	0	-1e10	8	-1e10	8	-1E+10	1	-1E+10	1	-1E+10	1	-1E+10	1	-1E+10	1	-1E+10	1
4902554	21	C	08/31/2021	06:02	-136.362	49.544	0	1045.20	0	2.9800	0	34.3760	0	27.395	0	1033.682	0	-1e10	8	-1e10	8	-1E+10	1	-1E+10	1	-1E+10	1	-1E+10	1	-1E+10	1	-1E+10	1
4902554	21	C	08/31/2021	06:02	-136.362	49.544	0	1055.80	0	2.9710	0	34.3780	0	27.398	0	1044.139	0	-1e10	8	-1e10	8	-1E+10	1	-1E+10	1	-1E+10	1	-1E+10	1	-1E+10	1	-1E+10	1
4902554	21	C	08/31/2021	06:02	-136.362	49.544	0	1065.50	0	2.9530	0	34.3810	0	27.402	0	1053.707	0	-1e10	8	-1e10	8	-1E+10	1	-1E+10	1	-1E+10	1	-1E+10	1	-1E+10	1	-1E+10	1
4902554	21	C	08/31/2021	06:02	-136.362	49.544	0	1075.40	0	2.9370	0	34.3840	0	27.406	0	1063.473	0	-1e10	8	-1e10	8	-1E+10	1	-1E+10	1	-1E+10	1	-1E+10	1	-1E+10	1	-1E+10	1
4902554	21	C	08/31/2021	06:02	-136.362	49.544	0	1085.50	0	2.9170	0	34.3890	0	27.411	0	1073.435	0	-1e10	8	-1e10	8	-1E+10	1	-1E+10	1	-1E+10	1	-1E+10	1	-1E+10	1	-1E+10	1
4902554	21	C	08/31/2021	06:02	-136.362	49.544	0	1095.80	0	2.8990	0	34.3920	0	27.416	0	1083.594	0	-1e10	8	-1e10	8	-1E+10	1	-1E+10	1	-1E+10	1	-1E+10	1	-1E+10	1	-1E+10	1
4902554	21	C	08/31/2021	06:02	-136.362	49.544	0	1105.50	0	2.8790	0	34.3960	0	27.421	0	1093.160	0	-1e10	8	-1e10	8	-1E+10	1	-1E+10	1	-1E+10	1	-1E+10	1	-1E+10	1	-1E+10	1
4902554	21	C	08/31/2021	06:02	-136.362	49.544	0	1115.30	0	2.8640	0	34.3990	0	27.424	0	1102.825	0	-1e10	8	-1e10	8	-1E+10	1	-1E+10	1	-1E+10	1	-1E+10	1	-1E+10	1	-1E+10	1
4902554	21	C	08/31/2021	06:02	-136.362	49.544	0	1125.50	0	2.8510	0	34.4010	0	27.427	0	1112.884	0	-1e10	8	-1e10	8	-1E+10	1	-1E+10	1	-1E+10	1	-1E+10	1	-1E+10	1	-1E+10	1
4902554	21	C	08/31/2021	06:02	-136.362	49.544	0	1135.10	0	2.8320	0	34.4050	0	27.432	0	1122.351	0	-1e10	8	-1e10	8	-1E+10	1	-1E+10	1	-1E+10	1	-1E+10	1	-1E+10	1	-1E+10	1
4902554	21	C	08/31/2021	06:02	-136.362	49.544	0	1145.20	0	2.8150	0	34.4090	0	27.437	0	1132.310	0	-1e10	8	-1e10	8	-1E+10	1	-1E+10	1	-1E+10	1	-1E+10	1	-1E+10	1	-1E+10	1
4902554	21	C	08/31/2021	06:02	-136.362	49.544	0	1155.40	0	2.7980	0	34.4120	0	27.441	0	1142.368	0	-1e10	8	-1e10	8	-1E+10	1	-1E+10	1	-1E+10	1	-1E+10	1	-1E+10	1	-1E+10	1
4902554	21	C	08/31/2021	06:02	-136.362	49.544	0	1165.10	0	2.7810	0	34.4160	0	27.446	0	1151.932	0	-1e10	8	-1e10	8	-1E+10	1	-1E+10	1	-1E+10	1	-1E+10	1	-1E+10	1	-1E+10	1
4902554	21	C	08/31/2021	06:02	-136.362	49.544	0	1175.40	0	2.7640	0	34.4190	0	27.449	0	1162.087	0	-1e10	8	-1e10	8	-1E+10	1	-1E+10	1	-1E+10	1	-1E+10	1	-1E+10	1	-1E+10	1
4902554	21	C	08/31/2021	06:02	-136.362	49.544	0	1185.40	0	2.7480	0	34.4220	0	27.453	0	1171.946	0	-1e10	8	-1e10	8	-1E+10	1	-1E+10	1	-1E+10	1	-1E+10	1	-1E+10	1	-1E+10	1
4902554	21	C	08/31/2021	06:02	-136.362	49.544	0	1195.00	0	2.7380	0	34.4240	0	27.456	0	1181.410	0	-1e10	8	-1e10	8	-1E+10	1	-1E+10	1	-1E+10	1	-1E+10	1	-1E+10	1	-1E+10	1
4902554	21	C	08/31/2021	06:02	-136.362	49.544	0	1205.40	0	2.7280	0	34.4260	0	27.458	0	1191.662	0	-1e10	8	-1e10	8	-1E+10	1	-1E+10	1	-1E+10	1	-1E+10	1	-1E+10	1	-1E+10	1
4902554	21	C	08/31/2021	06:02	-136.362	49.544	0	1215.70	0	2.7140	0	34.4290	0	27.462	0	1201.815	0	-1e10	8	-1e10	8	-1E+10	1	-1E+10	1	-1E+10	1	-1E+10	1	-1E+10	1	-1E+10	1
4902554	21	C	08/31/2021	06:02	-136.362	49.544	0	1225.50	0	2.7060	0	34.4310	0	27.464	0	1211.475	0	-1e10	8	-1e10	8	-1E+10	1	-1E+10	1	-1E+10	1	-1E+10	1	-1E+10	1	-1E+10	1
4902554	21	C	08/31/2021	06:02	-136.362	49.544	0	1235.10	0	2.6910	0	34.4340	0	27.468	0	1220.938	0	-1e10	8	-1e10	8	-1E+10	1	-1E+10	1	-1E+10	1	-1E+10	1	-1E+10	1	-1E+10	1
4902554	21	C	08/31/2021	06:02	-136.362	49.544	0	1245.20	0	2.6720	0	34.4380	0	27.473	0	1230.892	0	-1e10	8	-1e10	8	-1E+10	1	-1E+10	1	-1E+10	1	-1E+10	1	-1E+10	1	-1E+10	1
4902554	21	C	08/31/2021	06:02	-136.362	49.544	0	1255.20	0	2.6560	0	34.4400	0	27.476	0	1240.748	0	-1e10	8	-1e10	8	-1E+10	1	-1E+10	1	-1E+10	1	-1E+10	1	-1E+10	1	-1E+10	1
4902554	21	C	08/31/2021	06:02	-136.362	49.544	0	1265.40	0	2.6380	0	34.4440	0	27.481	0	1250.800	0	-1e10	8	-1e10	8	-1E+10	1	-1E+10	1	-1E+10	1	-1E+10	1	-1E+10	1	-1E+10	1
4902554	21	C	08/31/2021	06:02	-136.362	49.544	0	1275.60	0	2.6260	0	34.4460	0	27.483	0	1260.852	0	-1e10	8	-1e10	8	-1E+10	1	-1E+10	1	-1E+10	1	-1E+10	1	-1E+10	1	-1E+10	1
4902554	21	C	08/31/2021	06:02	-136.362	49.544	0	1285.30	0	2.6080	0	34.4500	0	27.488	0	1270.411	0	-1e10	8	-1e10	8	-1E+10	1	-1E+10	1	-1E+10	1	-1E+10	1	-1E+10	1	-1E+10	1
4902554	21	C	08/31/2021	06:02	-136.362	49.544	0	1295.30	0	2.6020	0	34.4520	0	27.490	0	1280.264	0	-1e10	8	-1e10	8	-1E+10	1	-1E+10	1	-1E+10	1	-1E+10	1	-1E+10	1	-1E+10	1
4902554	21	C	08/31/2021	06:02	-136.362	49.544	0	1305.60	0	2.5920	0	34.4540	0	27.493	0	1290.413	0	-1e10	8	-1e10	8	-1E+10	1	-1E+10	1	-1E+10	1	-1E+10	1	-1E+10	1	-1E+10	1
4902554	21	C	08/31/2021	06:02	-136.362	49.544	0	1315.10	0	2.5760	0	34.4560	0	27.496	0	1299.773	0	-1e10	8	-1e10	8	-1E+10	1	-1E+10	1	-1E+10	1	-1E+10	1	-1E+10	1	-1E+10	1
4902554	21	C	08/31/2021	06:02	-136.362	49.544	0	1325.10	0	2.5630	0	34.4590	0	27.500	0	1309.626	0	-1e10	8	-1e10	8	-1E+10	1	-1E+10	1	-1E+10	1	-1E+10	1	-1E+10	1	-1E+10	1
4902554	21	C	08/31/2021	06:02	-136.362	49.544	0	1335.30	0	2.5470	0	34.4620	0	27.503	0	1319.675	0	-1e10	8	-1e10	8	-1E+10	1	-1E+10	1	-1E+10	1	-1E+10	1	-1E+10	1	-1E+10	1
4902554	21	C	08/31/2021	06:02	-136.362	49.544	0	1345.40	0	2.5360	0	34.4640	0	27.506	0	1329.625	0	-1e10	8	-1e10	8	-1E+10	1	-1E+10	1	-1E+10	1	-1E+10	1	-1E+10	1	-1E+10	1
4902554	21	C	08/31/2021	06:02	-136.362	49.544	0	1355.40	0	2.5250	0	34.4660	0	27.509	0	1339.476	0	-1e10	8	-1e10	8	-1E+10	1	-1E+10	1	-1E+10	1	-1E+10	1	-1E+10	1	-1E+10	1
4902554	21	C	08/31/2021	06:02	-136.362	49.544	0	1365.50	0	2.5140	0	34.4680	0	27.511	0	1349.425	0	-1e10	8	-1e10	8	-1E+10	1	-1E+10	1	-1E+10	1	-1E+10	1	-1E+10	1	-1E+10	1
4902554	21	C	08/31/2021	06:02	-136.362	49.544	0	1375.60	0	2.5070	0	34.4700	0	27.513	0	1359.373	0	-1e10	8	-1e10	8	-1E+10	1	-1E+10	1	-1E+10	1	-1E+10	1	-1E+10	1	-1E+10	1
4902554	21	C	08/31/2021	06:02	-136.362	49.544	0	1385.20	0	2.4960	0	34.4720	0	27.516	0	1368.829	0	-1e10	8	-1e10	8	-1E+10	1	-1E+10	1	-1E+10	1	-1E+10	1	-1E+10	1	-1E+10	1
4902554	21	C	08/31/2021	06:02	-136.362	49.544	0	1395.10	0	2.4860	0	34.4740	0	27.518	0	1378.580	0	-1e10	8	-1e10	8	-1E+10	1	-1E+10	1	-1E+10	1	-1E+10	1	-1E+10	1	-1E+10	1
4902554	21	C	08/31/2021	06:02	-136.362	49.544	0	1405.10	0	2.4800	0	34.4760	0	27.521	0	1388.428	0	-1e10	8	-1e10	8	-1E+10	1	-1E+10	1	-1E+10	1	-1E+10	1	-1E+10	1	-1E+10	1
4902554	21	C	08/31/2021	06:02	-136.362	49.544	0	1415.10	0	2.4730	0	34.4770	0	27.522	0	1398.277	0	-1e10	8	-1e10	8	-1E+10	1	-1E+10	1	-1E+10	1	-1E+10	1	-1E+10	1	-1E+10	1
4902554	21	C	08/31/2021	06:02	-136.362	49.544	0	1425.80	0	2.4610	0	34.4790	0	27.525	0	1408.814	0	-1e10	8	-1e10	8	-1E+10	1	-1E+10	1	-1E+10	1	-1E+10	1	-1E+10	1	-1E+10	1
4902554	21	C	08/31/2021	06:02	-136.362	49.544	0	1435.50	0	2.4510	0	34.4810	0	27.527	0	1418.366	0	-1e10	8	-1e10	8	-1E+10	1	-1E+10	1	-1E+10	1	-1E+10	1	-1E+10	1	-1E+10	1
4902554	21	C	08/31/2021	06:02	-136.362	49.544	0	1445.20	0	2.4420	0	34.4830	0	27.530	0	1427.917	0	-1e10	8	-1e10	8	-1E+10	1	-1E+10	1	-1E+10	1	-1E+10	1	-1E+10	1	-1E+10	1
4902554	21	C	08/31/2021	06:02	-136.362	49.544	0	1455.30	0	2.4330	0	34.4850	0	27.532	0	1437.862	0	-1e10	8	-1e10	8	-1E+10	1	-1E+10	1	-1E+10	1	-1E+10	1	-1E+10	1	-1E+10	1
4902554	21	C	08/31/2021	06:02	-136.362	49.544	0	1465.60	0	2.4150	0	34.4880	0	27.536	0	1448.003	0	-1e10	8	-1e10	8	-1E+10	1	-1E+10	1	-1E+10	1	-1E+10	1	-1E+10	1	-1E+10	1
4902554	21	C	08/31/2021	06:02	-136.362	49.544	0	1475.70	0	2.4050	0	34.4900	0	27.538	0	1457.947	0	-1e10	8	-1e10	8	-1E+10	1	-1E+10	1	-1E+10	1	-1E+10	1	-1E+10	1	-1E+10	1
4902554	21	C	08/31/2021	06:02	-136.362	49.544	0	1485.30	0	2.3990	0	34.4910	0	27.540	0	1467.398	0	-1e10	8	-1e10	8	-1E+10	1	-1E+10	1	-1E+10	1	-1E+10	1	-1E+10	1	-1E+10	1
4902554	21	C	08/31/2021	06:02	-136.362	49.544	0	1495.40	0	2.3870	0	34.4940	0	27.543	0	1477.341	0	-1e10	8	-1e10	8	-1E+10	1	-1E+10	1	-1E+10	1	-1E+10	1	-1E+10	1	-1E+10	1
4902554	21	C	08/31/2021	06:02	-136.362	49.544	0	1505.70	0	2.3790	0	34.4960	0	27.546	0	1487.481	0	-1e10	8	-1e10	8	-1E+10	1	-1E+10	1	-1E+10	1	-1E+10	1	-1E+10	1	-1E+10	1
4902554	21	C	08/31/2021	06:02	-136.362	49.544	0	1515.70	0	2.3690	0	34.4980	0	27.548	0	1497.324	0	-1e10	8	-1e10	8	-1E+10	1	-1E+10	1	-1E+10	1	-1E+10	1	-1E+10	1	-1E+10	1
4902554	21	C	08/31/2021	06:02	-136.362	49.544	0	1525.40	0	2.3580	0	34.5000	0	27.551	0	1506.872	0	-1e10	8	-1e10	8	-1E+10	1	-1E+10	1	-1E+10	1	-1E+10	1	-1E+10	1	-1E+10	1
4902554	21	C	08/31/2021	06:02	-136.362	49.544	0	1535.10	0	2.3470	0	34.5020	0	27.553	0	1516.419	0	-1e10	8	-1e10	8	-1E+10	1	-1E+10	1	-1E+10	1	-1E+10	1	-1E+10	1	-1E+10	1
4902554	21	C	08/31/2021	06:02	-136.362	49.544	0	1545.40	0	2.3370	0	34.5040	0	27.556	0	1526.557	0	-1e10	8	-1e10	8	-1E+10	1	-1E+10	1	-1E+10	1	-1E+10	1	-1E+10	1	-1E+10	1
4902554	21	C	08/31/2021	06:02	-136.362	49.544	0	1555.40	0	2.3310	0	34.5050	0	27.557	0	1536.399	0	-1e10	8	-1e10	8	-1E+10	1	-1E+10	1	-1E+10	1	-1E+10	1	-1E+10	1	-1E+10	1
4902554	21	C	08/31/2021	06:02	-136.362	49.544	0	1565.50	0	2.3230	0	34.5070	0	27.559	0	1546.338	0	-1e10	8	-1e10	8	-1E+10	1	-1E+10	1	-1E+10	1	-1E+10	1	-1E+10	1	-1E+10	1
4902554	21	C	08/31/2021	06:02	-136.362	49.544	0	1575.60	0	2.3080	0	34.5100	0	27.563	0	1556.278	0	-1e10	8	-1e10	8	-1E+10	1	-1E+10	1	-1E+10	1	-1E+10	1	-1E+10	1	-1E+10	1
4902554	21	C	08/31/2021	06:02	-136.362	49.544	0	1585.40	0	2.2960	0	34.5120	0	27.566	0	1565.921	0	-1e10	8	-1e10	8	-1E+10	1	-1E+10	1	-1E+10	1	-1E+10	1	-1E+10	1	-1E+10	1
4902554	21	C	08/31/2021	06:02	-136.362	49.544	0	1595.30	0	2.2870	0	34.5140	0	27.568	0	1575.663	0	-1e10	8	-1e10	8	-1E+10	1	-1E+10	1	-1E+10	1	-1E+10	1	-1E+10	1	-1E+10	1
4902554	21	C	08/31/2021	06:02	-136.362	49.544	0	1605.10	0	2.2760	0	34.5160	0	27.570	0	1585.306	0	-1e10	8	-1e10	8	-1E+10	1	-1E+10	1	-1E+10	1	-1E+10	1	-1E+10	1	-1E+10	1
4902554	21	C	08/31/2021	06:02	-136.362	49.544	0	1615.00	0	2.2660	0	34.5180	0	27.573	0	1595.046	0	-1e10	8	-1e10	8	-1E+10	1	-1E+10	1	-1E+10	1	-1E+10	1	-1E+10	1	-1E+10	1
4902554	21	C	08/31/2021	06:02	-136.362	49.544	0	1625.40	0	2.2540	0	34.5210	0	27.576	0	1605.278	0	-1e10	8	-1e10	8	-1E+10	1	-1E+10	1	-1E+10	1	-1E+10	1	-1E+10	1	-1E+10	1
4902554	21	C	08/31/2021	06:02	-136.362	49.544	0	1635.90	0	2.2460	0	34.5220	0	27.578	0	1615.608	0	-1e10	8	-1e10	8	-1E+10	1	-1E+10	1	-1E+10	1	-1E+10	1	-1E+10	1	-1E+10	1
4902554	21	C	08/31/2021	06:02	-136.362	49.544	0	1645.40	0	2.2350	0	34.5250	0	27.581	0	1624.954	0	-1e10	8	-1e10	8	-1E+10	1	-1E+10	1	-1E+10	1	-1E+10	1	-1E+10	1	-1E+10	1
4902554	21	C	08/31/2021	06:02	-136.362	49.544	0	1655.10	0	2.2270	0	34.5260	0	27.583	0	1634.496	0	-1e10	8	-1e10	8	-1E+10	1	-1E+10	1	-1E+10	1	-1E+10	1	-1E+10	1	-1E+10	1
4902554	21	C	08/31/2021	06:02	-136.362	49.544	0	1665.50	0	2.2200	0	34.5270	0	27.584	0	1644.726	0	-1e10	8	-1e10	8	-1E+10	1	-1E+10	1	-1E+10	1	-1E+10	1	-1E+10	1	-1E+10	1
4902554	21	C	08/31/2021	06:02	-136.362	49.544	0	1675.20	0	2.2150	0	34.5290	0	27.586	0	1654.267	0	-1e10	8	-1e10	8	-1E+10	1	-1E+10	1	-1E+10	1	-1E+10	1	-1E+10	1	-1E+10	1
4902554	21	C	08/31/2021	06:02	-136.362	49.544	0	1685.40	0	2.2060	0	34.5310	0	27.589	0	1664.300	0	-1e10	8	-1e10	8	-1E+10	1	-1E+10	1	-1E+10	1	-1E+10	1	-1E+10	1	-1E+10	1
4902554	21	C	08/31/2021	06:02	-136.362	49.544	0	1695.70	0	2.1970	0	34.5320	0	27.590	0	1674.430	0	-1e10	8	-1e10	8	-1E+10	1	-1E+10	1	-1E+10	1	-1E+10	1	-1E+10	1	-1E+10	1
4902554	21	C	08/31/2021	06:02	-136.362	49.544	0	1705.70	0	2.1860	0	34.5350	0	27.593	0	1684.265	0	-1e10	8	-1e10	8	-1E+10	1	-1E+10	1	-1E+10	1	-1E+10	1	-1E+10	1	-1E+10	1
4902554	21	C	08/31/2021	06:02	-136.362	49.544	0	1715.60	0	2.1810	0	34.5360	0	27.595	0	1694.001	0	-1e10	8	-1e10	8	-1E+10	1	-1E+10	1	-1E+10	1	-1E+10	1	-1E+10	1	-1E+10	1
4902554	21	C	08/31/2021	06:02	-136.362	49.544	0	1725.20	0	2.1730	0	34.5380	0	27.597	0	1703.442	0	-1e10	8	-1e10	8	-1E+10	1	-1E+10	1	-1E+10	1	-1E+10	1	-1E+10	1	-1E+10	1
4902554	21	C	08/31/2021	06:02	-136.362	49.544	0	1735.10	0	2.1620	0	34.5400	0	27.600	0	1713.177	0	-1e10	8	-1e10	8	-1E+10	1	-1E+10	1	-1E+10	1	-1E+10	1	-1E+10	1	-1E+10	1
4902554	21	C	08/31/2021	06:02	-136.362	49.544	0	1745.10	0	2.1530	0	34.5420	0	27.602	0	1723.010	0	-1e10	8	-1e10	8	-1E+10	1	-1E+10	1	-1E+10	1	-1E+10	1	-1E+10	1	-1E+10	1
4902554	21	C	08/31/2021	06:02	-136.362	49.544	0	1755.40	0	2.1440	0	34.5430	0	27.604	0	1733.138	0	-1e10	8	-1e10	8	-1E+10	1	-1E+10	1	-1E+10	1	-1E+10	1	-1E+10	1	-1E+10	1
4902554	21	C	08/31/2021	06:02	-136.362	49.544	0	1765.60	0	2.1310	0	34.5460	0	27.607	0	1743.167	0	-1e10	8	-1e10	8	-1E+10	1	-1E+10	1	-1E+10	1	-1E+10	1	-1E+10	1	-1E+10	1
4902554	21	C	08/31/2021	06:02	-136.362	49.544	0	1775.70	0	2.1160	0	34.5490	0	27.611	0	1753.097	0	-1e10	8	-1e10	8	-1E+10	1	-1E+10	1	-1E+10	1	-1E+10	1	-1E+10	1	-1E+10	1
4902554	21	C	08/31/2021	06:02	-136.362	49.544	0	1785.60	0	2.1100	0	34.5500	0	27.612	0	1762.830	0	-1e10	8	-1e10	8	-1E+10	1	-1E+10	1	-1E+10	1	-1E+10	1	-1E+10	1	-1E+10	1
4902554	21	C	08/31/2021	06:02	-136.362	49.544	0	1795.60	0	2.1020	0	34.5520	0	27.614	0	1772.660	0	-1e10	8	-1e10	8	-1E+10	1	-1E+10	1	-1E+10	1	-1E+10	1	-1E+10	1	-1E+10	1
4902554	21	C	08/31/2021	06:02	-136.362	49.544	0	1805.30	0	2.0960	0	34.5530	0	27.616	0	1782.196	0	-1e10	8	-1e10	8	-1E+10	1	-1E+10	1	-1E+10	1	-1E+10	1	-1E+10	1	-1E+10	1
4902554	21	C	08/31/2021	06:02	-136.362	49.544	0	1815.20	0	2.0910	0	34.5540	0	27.617	0	1791.927	0	-1e10	8	-1e10	8	-1E+10	1	-1E+10	1	-1E+10	1	-1E+10	1	-1E+10	1	-1E+10	1
4902554	21	C	08/31/2021	06:02	-136.362	49.544	0	1825.60	0	2.0850	0	34.5560	0	27.619	0	1802.150	0	-1e10	8	-1e10	8	-1E+10	1	-1E+10	1	-1E+10	1	-1E+10	1	-1E+10	1	-1E+10	1
4902554	21	C	08/31/2021	06:02	-136.362	49.544	0	1836.00	0	2.0800	0	34.5560	0	27.619	0	1812.372	0	-1e10	8	-1e10	8	-1E+10	1	-1E+10	1	-1E+10	1	-1E+10	1	-1E+10	1	-1E+10	1
4902554	21	C	08/31/2021	06:02	-136.362	49.544	0	1845.50	0	2.0670	0	34.5590	0	27.623	0	1821.709	0	-1e10	8	-1e10	8	-1E+10	1	-1E+10	1	-1E+10	1	-1E+10	1	-1E+10	1	-1E+10	1
4902554	21	C	08/31/2021	06:02	-136.362	49.544	0	1855.10	0	2.0540	0	34.5610	0	27.626	0	1831.144	0	-1e10	8	-1e10	8	-1E+10	1	-1E+10	1	-1E+10	1	-1E+10	1	-1E+10	1	-1E+10	1
4902554	21	C	08/31/2021	06:02	-136.362	49.544	0	1865.10	0	2.0450	0	34.5630	0	27.628	0	1840.972	0	-1e10	8	-1e10	8	-1E+10	1	-1E+10	1	-1E+10	1	-1E+10	1	-1E+10	1	-1E+10	1
4902554	21	C	08/31/2021	06:02	-136.362	49.544	0	1875.30	0	2.0410	0	34.5640	0	27.629	0	1850.995	0	-1e10	8	-1e10	8	-1E+10	1	-1E+10	1	-1E+10	1	-1E+10	1	-1E+10	1	-1E+10	1
4902554	21	C	08/31/2021	06:02	-136.362	49.544	0	1885.30	0	2.0340	0	34.5650	0	27.631	0	1860.822	0	-1e10	8	-1e10	8	-1E+10	1	-1E+10	1	-1E+10	1	-1E+10	1	-1E+10	1	-1E+10	1
4902554	21	C	08/31/2021	06:02	-136.362	49.544	0	1895.10	0	2.0260	0	34.5670	0	27.633	0	1870.452	0	-1e10	8	-1e10	8	-1E+10	1	-1E+10	1	-1E+10	1	-1E+10	1	-1E+10	1	-1E+10	1
4902554	21	C	08/31/2021	06:02	-136.362	49.544	0	1905.40	0	2.0190	0	34.5680	0	27.634	0	1880.572	0	-1e10	8	-1e10	8	-1E+10	1	-1E+10	1	-1E+10	1	-1E+10	1	-1E+10	1	-1E+10	1
4902554	21	C	08/31/2021	06:02	-136.362	49.544	0	1915.80	0	2.0120	0	34.5700	0	27.636	0	1890.791	0	-1e10	8	-1e10	8	-1E+10	1	-1E+10	1	-1E+10	1	-1E+10	1	-1E+10	1	-1E+10	1
4902554	21	C	08/31/2021	06:02	-136.362	49.544	0	1925.50	0	2.0050	0	34.5720	0	27.639	0	1900.321	0	-1e10	8	-1e10	8	-1E+10	1	-1E+10	1	-1E+10	1	-1E+10	1	-1E+10	1	-1E+10	1
4902554	21	C	08/31/2021	06:02	-136.362	49.544	0	1935.30	0	2.0010	0	34.5720	0	27.639	0	1909.949	0	-1e10	8	-1e10	8	-1E+10	1	-1E+10	1	-1E+10	1	-1E+10	1	-1E+10	1	-1E+10	1
4902554	21	C	08/31/2021	06:02	-136.362	49.544	0	1945.30	0	1.9970	0	34.5730	0	27.640	0	1919.773	0	-1e10	8	-1e10	8	-1E+10	1	-1E+10	1	-1E+10	1	-1E+10	1	-1E+10	1	-1E+10	1
4902554	21	C	08/31/2021	06:02	-136.362	49.544	0	1955.30	0	1.9930	0	34.5740	0	27.641	0	1929.596	0	-1e10	8	-1e10	8	-1E+10	1	-1E+10	1	-1E+10	1	-1E+10	1	-1E+10	1	-1E+10	1
4902554	21	C	08/31/2021	06:02	-136.362	49.544	0	1965.50	0	1.9880	0	34.5750	0	27.643	0	1939.615	0	-1e10	8	-1e10	8	-1E+10	1	-1E+10	1	-1E+10	1	-1E+10	1	-1E+10	1	-1E+10	1
4902554	21	C	08/31/2021	06:02	-136.362	49.544	0	1975.40	0	1.9830	0	34.5760	0	27.644	0	1949.340	0	-1e10	8	-1e10	8	-1E+10	1	-1E+10	1	-1E+10	1	-1E+10	1	-1E+10	1	-1E+10	1
4902554	21	C	08/31/2021	06:02	-136.362	49.544	0	1985.30	0	1.9760	0	34.5770	0	27.645	0	1959.064	0	-1e10	8	-1e10	8	-1E+10	1	-1E+10	1	-1E+10	1	-1E+10	1	-1E+10	1	-1E+10	1
4902554	21	C	08/31/2021	06:02	-136.362	49.544	0	1994.70	0	1.9700	0	34.5790	0	27.647	0	1968.296	0	-1e10	8	-1e10	8	-1E+10	1	-1E+10	1	-1E+10	1	-1E+10	1	-1E+10	1	-1E+10	1
4902554	21	C	08/31/2021	06:02	-136.362	49.544	0																										
4902554	22	C	09/10/2021	10:59	-136.392	49.487	0	0.20	0	14.6990	0	32.2280	0	23.901	0	0.198	0	-1e10	8	-1e10	8	-1E+10	1	-1E+10	1	-1E+10	1	-1E+10	1	-1E+10	1	-1E+10	1
4902554	22	C	09/10/2021	10:59	-136.392	49.487	0	1.10	0	14.6990	0	32.2380	0	23.908	0	1.091	0	-1e10	8	-1e10	8	-1E+10	1	-1E+10	1	-1E+10	1	-1E+10	1	-1E+10	1	-1E+10	1
4902554	22	C	09/10/2021	10:59	-136.392	49.487	0	2.00	0	14.7000	0	32.2400	0	23.910	0	1.983	0	-1e10	8	-1e10	8	-1E+10	1	-1E+10	1	-1E+10	1	-1E+10	1	-1E+10	1	-1E+10	1
4902554	22	C	09/10/2021	10:59	-136.392	49.487	0	3.10	0	14.7020	0	32.2390	0	23.909	0	3.074	0	-1e10	8	-1e10	8	-1E+10	1	-1E+10	1	-1E+10	1	-1E+10	1	-1E+10	1	-1E+10	1
4902554	22	C	09/10/2021	10:59	-136.392	49.487	0	4.10	0	14.7030	0	32.2390	0	23.908	0	4.065	0	-1e10	8	-1e10	8	-1E+10	1	-1E+10	1	-1E+10	1	-1E+10	1	-1E+10	1	-1E+10	1
4902554	22	C	09/10/2021	10:59	-136.392	49.487	0	5.00	0	14.7020	0	32.2400	0	23.910	0	4.957	0	-1e10	8	-1e10	8	-1E+10	1	-1E+10	1	-1E+10	1	-1E+10	1	-1E+10	1	-1E+10	1
4902554	22	C	09/10/2021	10:59	-136.392	49.487	0	6.00	0	14.7020	0	32.2410	0	23.910	0	5.949	0	-1e10	8	-1e10	8	-1E+10	1	-1E+10	1	-1E+10	1	-1E+10	1	-1E+10	1	-1E+10	1
4902554	22	C	09/10/2021	10:59	-136.392	49.487	0	7.00	0	14.7020	0	32.2400	0	23.910	0	6.940	0	-1e10	8	-1e10	8	-1E+10	1	-1E+10	1	-1E+10	1	-1E+10	1	-1E+10	1	-1E+10	1
4902554	22	C	09/10/2021	10:59	-136.392	49.487	0	8.00	0	14.7030	0	32.2400	0	23.909	0	7.932	0	-1e10	8	-1e10	8	-1E+10	1	-1E+10	1	-1E+10	1	-1E+10	1	-1E+10	1	-1E+10	1
4902554	22	C	09/10/2021	10:59	-136.392	49.487	0	9.00	0	14.7030	0	32.2400	0	23.909	0	8.923	0	-1e10	8	-1e10	8	-1E+10	1	-1E+10	1	-1E+10	1	-1E+10	1	-1E+10	1	-1E+10	1
4902554	22	C	09/10/2021	10:59	-136.392	49.487	0	9.90	0	14.7030	0	32.2410	0	23.910	0	9.815	0	-1e10	8	-1e10	8	-1E+10	1	-1E+10	1	-1E+10	1	-1E+10	1	-1E+10	1	-1E+10	1
4902554	22	C	09/10/2021	10:59	-136.392	49.487	0	10.80	0	14.7030	0	32.2400	0	23.909	0	10.708	0	-1e10	8	-1e10	8	-1E+10	1	-1E+10	1	-1E+10	1	-1E+10	1	-1E+10	1	-1E+10	1
4902554	22	C	09/10/2021	10:59	-136.392	49.487	0	12.10	0	14.7030	0	32.2410	0	23.910	0	11.996	0	-1e10	8	-1e10	8	-1E+10	1	-1E+10	1	-1E+10	1	-1E+10	1	-1E+10	1	-1E+10	1
4902554	22	C	09/10/2021	10:59	-136.392	49.487	0	13.00	0	14.7030	0	32.2410	0	23.910	0	12.889	0	-1e10	8	-1e10	8	-1E+10	1	-1E+10	1	-1E+10	1	-1E+10	1	-1E+10	1	-1E+10	1
4902554	22	C	09/10/2021	10:59	-136.392	49.487	0	14.00	0	14.7040	0	32.2400	0	23.909	0	13.880	0	-1e10	8	-1e10	8	-1E+10	1	-1E+10	1	-1E+10	1	-1E+10	1	-1E+10	1	-1E+10	1
4902554	22	C	09/10/2021	10:59	-136.392	49.487	0	15.20	0	14.7040	0	32.2410	0	23.910	0	15.070	0	-1e10	8	-1e10	8	-1E+10	1	-1E+10	1	-1E+10	1	-1E+10	1	-1E+10	1	-1E+10	1
4902554	22	C	09/10/2021	10:59	-136.392	49.487	0	15.90	0	14.7050	0	32.2410	0	23.910	0	15.764	0	-1e10	8	-1e10	8	-1E+10	1	-1E+10	1	-1E+10	1	-1E+10	1	-1E+10	1	-1E+10	1
4902554	22	C	09/10/2021	10:59	-136.392	49.487	0	17.00	0	14.7050	0	32.2410	0	23.910	0	16.854	0	-1e10	8	-1e10	8	-1E+10	1	-1E+10	1	-1E+10	1	-1E+10	1	-1E+10	1	-1E+10	1
4902554	22	C	09/10/2021	10:59	-136.392	49.487	0	18.10	0	14.7050	0	32.2410	0	23.910	0	17.945	0	-1e10	8	-1e10	8	-1E+10	1	-1E+10	1	-1E+10	1	-1E+10	1	-1E+10	1	-1E+10	1
4902554	22	C	09/10/2021	10:59	-136.392	49.487	0	18.90	0	14.7050	0	32.2410	0	23.910	0	18.738	0	-1e10	8	-1e10	8	-1E+10	1	-1E+10	1	-1E+10	1	-1E+10	1	-1E+10	1	-1E+10	1
4902554	22	C	09/10/2021	10:59	-136.392	49.487	0	20.00	0	14.7050	0	32.2410	0	23.910	0	19.829	0	-1e10	8	-1e10	8	-1E+10	1	-1E+10	1	-1E+10	1	-1E+10	1	-1E+10	1	-1E+10	1
4902554	22	C	09/10/2021	10:59	-136.392	49.487	0	21.20	0	14.7050	0	32.2420	0	23.911	0	21.018	0	-1e10	8	-1e10	8	-1E+10	1	-1E+10	1	-1E+10	1	-1E+10	1	-1E+10	1	-1E+10	1
4902554	22	C	09/10/2021	10:59	-136.392	49.487	0	21.90	0	14.7050	0	32.2410	0	23.910	0	21.712	0	-1e10	8	-1e10	8	-1E+10	1	-1E+10	1	-1E+10	1	-1E+10	1	-1E+10	1	-1E+10	1
4902554	22	C	09/10/2021	10:59	-136.392	49.487	0	22.70	0	14.7040	0	32.2420	0	23.911	0	22.505	0	-1e10	8	-1e10	8	-1E+10	1	-1E+10	1	-1E+10	1	-1E+10	1	-1E+10	1	-1E+10	1
4902554	22	C	09/10/2021	10:59	-136.392	49.487	0	24.00	0	14.7040	0	32.2410	0	23.910	0	23.794	0	-1e10	8	-1e10	8	-1E+10	1	-1E+10	1	-1E+10	1	-1E+10	1	-1E+10	1	-1E+10	1
4902554	22	C	09/10/2021	10:59	-136.392	49.487	0	25.30	0	14.7030	0	32.2430	0	23.912	0	25.083	0	-1e10	8	-1e10	8	-1E+10	1	-1E+10	1	-1E+10	1	-1E+10	1	-1E+10	1	-1E+10	1
4902554	22	C	09/10/2021	10:59	-136.392	49.487	0	26.10	0	14.7050	0	32.2410	0	23.910	0	25.876	0	-1e10	8	-1e10	8	-1E+10	1	-1E+10	1	-1E+10	1	-1E+10	1	-1E+10	1	-1E+10	1
4902554	22	C	09/10/2021	10:59	-136.392	49.487	0	26.90	0	14.6990	0	32.2450	0	23.915	0	26.669	0	-1e10	8	-1e10	8	-1E+10	1	-1E+10	1	-1E+10	1	-1E+10	1	-1E+10	1	-1E+10	1
4902554	22	C	09/10/2021	10:59	-136.392	49.487	0	27.70	0	14.7000	0	32.2440	0	23.914	0	27.462	0	-1e10	8	-1e10	8	-1E+10	1	-1E+10	1	-1E+10	1	-1E+10	1	-1E+10	1	-1E+10	1
4902554	22	C	09/10/2021	10:59	-136.392	49.487	0	28.80	0	14.6840	0	32.2450	0	23.918	0	28.552	0	-1e10	8	-1e10	8	-1E+10	1	-1E+10	1	-1E+10	1	-1E+10	1	-1E+10	1	-1E+10	1
4902554	22	C	09/10/2021	10:59	-136.392	49.487	0	30.00	0	14.6630	0	32.2500	0	23.926	0	29.742	0	-1e10	8	-1e10	8	-1E+10	1	-1E+10	1	-1E+10	1	-1E+10	1	-1E+10	1	-1E+10	1
4902554	22	C	09/10/2021	10:59	-136.392	49.487	0	30.80	0	14.6630	0	32.2470	0	23.924	0	30.535	0	-1e10	8	-1e10	8	-1E+10	1	-1E+10	1	-1E+10	1	-1E+10	1	-1E+10	1	-1E+10	1
4902554	22	C	09/10/2021	10:59	-136.392	49.487	0	31.80	0	14.6440	0	32.2460	0	23.927	0	31.526	0	-1e10	8	-1e10	8	-1E+10	1	-1E+10	1	-1E+10	1	-1E+10	1	-1E+10	1	-1E+10	1
4902554	22	C	09/10/2021	10:59	-136.392	49.487	0	32.90	0	14.6290	0	32.2460	0	23.930	0	32.617	0	-1e10	8	-1e10	8	-1E+10	1	-1E+10	1	-1E+10	1	-1E+10	1	-1E+10	1	-1E+10	1
4902554	22	C	09/10/2021	10:59	-136.392	49.487	0	33.80	0	14.5600	0	32.2520	0	23.950	0	33.509	0	-1e10	8	-1e10	8	-1E+10	1	-1E+10	1	-1E+10	1	-1E+10	1	-1E+10	1	-1E+10	1
4902554	22	C	09/10/2021	10:59	-136.392	49.487	0	34.90	0	14.5090	0	32.2500	0	23.959	0	34.600	0	-1e10	8	-1e10	8	-1E+10	1	-1E+10	1	-1E+10	1	-1E+10	1	-1E+10	1	-1E+10	1
4902554	22	C	09/10/2021	10:59	-136.392	49.487	0	35.80	0	14.3490	0	32.2550	0	23.996	0	35.492	0	-1e10	8	-1e10	8	-1E+10	1	-1E+10	1	-1E+10	1	-1E+10	1	-1E+10	1	-1E+10	1
4902554	22	C	09/10/2021	10:59	-136.392	49.487	0	37.10	0	14.0390	0	32.2500	0	24.057	0	36.780	0	-1e10	8	-1e10	8	-1E+10	1	-1E+10	1	-1E+10	1	-1E+10	1	-1E+10	1	-1E+10	1
4902554	22	C	09/10/2021	10:59	-136.392	49.487	0	38.10	0	13.5480	0	32.2600	0	24.164	0	37.772	0	-1e10	8	-1e10	8	-1E+10	1	-1E+10	1	-1E+10	1	-1E+10	1	-1E+10	1	-1E+10	1
4902554	22	C	09/10/2021	10:59	-136.392	49.487	0	38.90	0	13.2000	0	32.2490	0	24.225	0	38.565	0	-1e10	8	-1e10	8	-1E+10	1	-1E+10	1	-1E+10	1	-1E+10	1	-1E+10	1	-1E+10	1
4902554	22	C	09/10/2021	10:59	-136.392	49.487	0	39.90	0	11.8720	0	32.2910	0	24.511	0	39.556	0	-1e10	8	-1e10	8	-1E+10	1	-1E+10	1	-1E+10	1	-1E+10	1	-1E+10	1	-1E+10	1
4902554	22	C	09/10/2021	10:59	-136.392	49.487	0	41.20	0	10.6370	0	32.3290	0	24.761	0	40.845	0	-1e10	8	-1e10	8	-1E+10	1	-1E+10	1	-1E+10	1	-1E+10	1	-1E+10	1	-1E+10	1
4902554	22	C	09/10/2021	10:59	-136.392	49.487	0	41.90	0	10.2840	0	32.3320	0	24.823	0	41.539	0	-1e10	8	-1e10	8	-1E+10	1	-1E+10	1	-1E+10	1	-1E+10	1	-1E+10	1	-1E+10	1
4902554	22	C	09/10/2021	10:59	-136.392	49.487	0	42.90	0	9.7700	0	32.3460	0	24.919	0	42.530	0	-1e10	8	-1e10	8	-1E+10	1	-1E+10	1	-1E+10	1	-1E+10	1	-1E+10	1	-1E+10	1
4902554	22	C	09/10/2021	10:59	-136.392	49.487	0	44.00	0	9.5740	0	32.3600	0	24.962	0	43.620	0	-1e10	8	-1e10	8	-1E+10	1	-1E+10	1	-1E+10	1	-1E+10	1	-1E+10	1	-1E+10	1
4902554	22	C	09/10/2021	10:59	-136.392	49.487	0	45.00	0	9.4030	0	32.3560	0	24.986	0	44.611	0	-1e10	8	-1e10	8	-1E+10	1	-1E+10	1	-1E+10	1	-1E+10	1	-1E+10	1	-1E+10	1
4902554	22	C	09/10/2021	10:59	-136.392	49.487	0	46.00	0	9.3130	0	32.3570	0	25.001	0	45.603	0	-1e10	8	-1e10	8	-1E+10	1	-1E+10	1	-1E+10	1	-1E+10	1	-1E+10	1	-1E+10	1
4902554	22	C	09/10/2021	10:59	-136.392	49.487	0	47.10	0	9.0310	0	32.3700	0	25.056	0	46.693	0	-1e10	8	-1e10	8	-1E+10	1	-1E+10	1	-1E+10	1	-1E+10	1	-1E+10	1	-1E+10	1
4902554	22	C	09/10/2021	10:59	-136.392	49.487	0	48.00	0	8.7890	0	32.3690	0	25.092	0	47.585	0	-1e10	8	-1e10	8	-1E+10	1	-1E+10	1	-1E+10	1	-1E+10	1	-1E+10	1	-1E+10	1
4902554	22	C	09/10/2021	10:59	-136.392	49.487	0	48.90	0	8.4970	0	32.3830	0	25.147	0	48.477	0	-1e10	8	-1e10	8	-1E+10	1	-1E+10	1	-1E+10	1	-1E+10	1	-1E+10	1	-1E+10	1
4902554	22	C	09/10/2021	10:59	-136.392	49.487	0	49.90	0	8.4260	0	32.3850	0	25.159	0	49.469	0	-1e10	8	-1e10	8	-1E+10	1	-1E+10	1	-1E+10	1	-1E+10	1	-1E+10	1	-1E+10	1
4902554	22	C	09/10/2021	10:59	-136.392	49.487	0	51.00	0	8.3460	0	32.3890	0	25.174	0	50.559	0	-1e10	8	-1e10	8	-1E+10	1	-1E+10	1	-1E+10	1	-1E+10	1	-1E+10	1	-1E+10	1
4902554	22	C	09/10/2021	10:59	-136.392	49.487	0	52.10	0	8.1550	0	32.3910	0	25.204	0	51.649	0	-1e10	8	-1e10	8	-1E+10	1	-1E+10	1	-1E+10	1	-1E+10	1	-1E+10	1	-1E+10	1
4902554	22	C	09/10/2021	10:59	-136.392	49.487	0	53.00	0	7.9400	0	32.4020	0	25.244	0	52.541	0	-1e10	8	-1e10	8	-1E+10	1	-1E+10	1	-1E+10	1	-1E+10	1	-1E+10	1	-1E+10	1
4902554	22	C	09/10/2021	10:59	-136.392	49.487	0	54.00	0	7.8300	0	32.4030	0	25.260	0	53.533	0	-1e10	8	-1e10	8	-1E+10	1	-1E+10	1	-1E+10	1	-1E+10	1	-1E+10	1	-1E+10	1
4902554	22	C	09/10/2021	10:59	-136.392	49.487	0	54.90	0	7.7380	0	32.4050	0	25.275	0	54.425	0	-1e10	8	-1e10	8	-1E+10	1	-1E+10	1	-1E+10	1	-1E+10	1	-1E+10	1	-1E+10	1
4902554	22	C	09/10/2021	10:59	-136.392	49.487	0	55.80	0	7.6800	0	32.4060	0	25.284	0	55.317	0	-1e10	8	-1e10	8	-1E+10	1	-1E+10	1	-1E+10	1	-1E+10	1	-1E+10	1	-1E+10	1
4902554	22	C	09/10/2021	10:59	-136.392	49.487	0	57.00	0	7.6220	0	32.4070	0	25.293	0	56.506	0	-1e10	8	-1e10	8	-1E+10	1	-1E+10	1	-1E+10	1	-1E+10	1	-1E+10	1	-1E+10	1
4902554	22	C	09/10/2021	10:59	-136.392	49.487	0	57.70	0	7.5420	0	32.4100	0	25.306	0	57.200	0	-1e10	8	-1e10	8	-1E+10	1	-1E+10	1	-1E+10	1	-1E+10	1	-1E+10	1	-1E+10	1
4902554	22	C	09/10/2021	10:59	-136.392	49.487	0	58.70	0	7.4510	0	32.4140	0	25.322	0	58.191	0	-1e10	8	-1e10	8	-1E+10	1	-1E+10	1	-1E+10	1	-1E+10	1	-1E+10	1	-1E+10	1
4902554	22	C	09/10/2021	10:59	-136.392	49.487	0	59.80	0	7.3540	0	32.4180	0	25.338	0	59.282	0	-1e10	8	-1e10	8	-1E+10	1	-1E+10	1	-1E+10	1	-1E+10	1	-1E+10	1	-1E+10	1
4902554	22	C	09/10/2021	10:59	-136.392	49.487	0	60.90	0	7.2730	0	32.4220	0	25.353	0	60.372	0	-1e10	8	-1e10	8	-1E+10	1	-1E+10	1	-1E+10	1	-1E+10	1	-1E+10	1	-1E+10	1
4902554	22	C	09/10/2021	10:59	-136.392	49.487	0	62.10	0	7.2520	0	32.4200	0	25.354	0	61.561	0	-1e10	8	-1e10	8	-1E+10	1	-1E+10	1	-1E+10	1	-1E+10	1	-1E+10	1	-1E+10	1
4902554	22	C	09/10/2021	10:59	-136.392	49.487	0	62.90	0	7.1750	0	32.4270	0	25.370	0	62.354	0	-1e10	8	-1e10	8	-1E+10	1	-1E+10	1	-1E+10	1	-1E+10	1	-1E+10	1	-1E+10	1
4902554	22	C	09/10/2021	10:59	-136.392	49.487	0	63.80	0	7.1330	0	32.4240	0	25.373	0	63.246	0	-1e10	8	-1e10	8	-1E+10	1	-1E+10	1	-1E+10	1	-1E+10	1	-1E+10	1	-1E+10	1
4902554	22	C	09/10/2021	10:59	-136.392	49.487	0	65.00	0	7.0850	0	32.4270	0	25.382	0	64.436	0	-1e10	8	-1e10	8	-1E+10	1	-1E+10	1	-1E+10	1	-1E+10	1	-1E+10	1	-1E+10	1
4902554	22	C	09/10/2021	10:59	-136.392	49.487	0	66.00	0	7.0510	0	32.4240	0	25.384	0	65.427	0	-1e10	8	-1e10	8	-1E+10	1	-1E+10	1	-1E+10	1	-1E+10	1	-1E+10	1	-1E+10	1
4902554	22	C	09/10/2021	10:59	-136.392	49.487	0	66.90	0	6.9990	0	32.4290	0	25.395	0	66.319	0	-1e10	8	-1e10	8	-1E+10	1	-1E+10	1	-1E+10	1	-1E+10	1	-1E+10	1	-1E+10	1
4902554	22	C	09/10/2021	10:59	-136.392	49.487	0	67.80	0	6.9730	0	32.4310	0	25.400	0	67.211	0	-1e10	8	-1e10	8	-1E+10	1	-1E+10	1	-1E+10	1	-1E+10	1	-1E+10	1	-1E+10	1
4902554	22	C	09/10/2021	10:59	-136.392	49.487	0	68.80	0	6.9490	0	32.4340	0	25.406	0	68.202	0	-1e10	8	-1e10	8	-1E+10	1	-1E+10	1	-1E+10	1	-1E+10	1	-1E+10	1	-1E+10	1
4902554	22	C	09/10/2021	10:59	-136.392	49.487	0	70.00	0	6.9060	0	32.4340	0	25.411	0	69.391	0	-1e10	8	-1e10	8	-1E+10	1	-1E+10	1	-1E+10	1	-1E+10	1	-1E+10	1	-1E+10	1
4902554	22	C	09/10/2021	10:59	-136.392	49.487	0	70.90	0	6.8920	0	32.4330	0	25.412	0	70.283	0	-1e10	8	-1e10	8	-1E+10	1	-1E+10	1	-1E+10	1	-1E+10	1	-1E+10	1	-1E+10	1
4902554	22	C	09/10/2021	10:59	-136.392	49.487	0	71.80	0	6.8210	0	32.4360	0	25.424	0	71.175	0	-1e10	8	-1e10	8	-1E+10	1	-1E+10	1	-1E+10	1	-1E+10	1	-1E+10	1	-1E+10	1
4902554	22	C	09/10/2021	10:59	-136.392	49.487	0	73.00	0	6.7710	0	32.4380	0	25.432	0	72.365	0	-1e10	8	-1e10	8	-1E+10	1	-1E+10	1	-1E+10	1	-1E+10	1	-1E+10	1	-1E+10	1
4902554	22	C	09/10/2021	10:59	-136.392	49.487	0	73.90	0	6.7210	0	32.4410	0	25.441	0	73.257	0	-1e10	8	-1e10	8	-1E+10	1	-1E+10	1	-1E+10	1	-1E+10	1	-1E+10	1	-1E+10	1
4902554	22	C	09/10/2021	10:59	-136.392	49.487	0	74.80	0	6.7070	0	32.4410	0	25.443	0	74.149	0	-1e10	8	-1e10	8	-1E+10	1	-1E+10	1	-1E+10	1	-1E+10	1	-1E+10	1	-1E+10	1
4902554	22	C	09/10/2021	10:59	-136.392	49.487	0	76.00	0	6.6900	0	32.4420	0	25.446	0	75.338	0	-1e10	8	-1e10	8	-1E+10	1	-1E+10	1	-1E+10	1	-1E+10	1	-1E+10	1	-1E+10	1
4902554	22	C	09/10/2021	10:59	-136.392	49.487	0	77.10	0	6.6610	0	32.4430	0	25.451	0	76.428	0	-1e10	8	-1e10	8	-1E+10	1	-1E+10	1	-1E+10	1	-1E+10	1	-1E+10	1	-1E+10	1
4902554	22	C	09/10/2021	10:59	-136.392	49.487	0	78.00	0	6.6490	0	32.4430	0	25.452	0	77.320	0	-1e10	8	-1e10	8	-1E+10	1	-1E+10	1	-1E+10	1	-1E+10	1	-1E+10	1	-1E+10	1
4902554	22	C	09/10/2021	10:59	-136.392	49.487	0	78.80	0	6.6150	0	32.4450	0	25.458	0	78.113	0	-1e10	8	-1e10	8	-1E+10	1	-1E+10	1	-1E+10	1	-1E+10	1	-1E+10	1	-1E+10	1
4902554	22	C	09/10/2021	10:59	-136.392	49.487	0	79.90	0	6.5680	0	32.4460	0	25.465	0	79.203	0	-1e10	8	-1e10	8	-1E+10	1	-1E+10	1	-1E+10	1	-1E+10	1	-1E+10	1	-1E+10	1
4902554	22	C	09/10/2021	10:59	-136.392	49.487	0	80.90	0	6.5310	0	32.4480	0	25.471	0	80.194	0	-1e10	8	-1e10	8	-1E+10	1	-1E+10	1	-1E+10	1	-1E+10	1	-1E+10	1	-1E+10	1
4902554	22	C	09/10/2021	10:59	-136.392	49.487	0	82.00	0	6.4980	0	32.4530	0	25.479	0	81.285	0	-1e10	8	-1e10	8	-1E+10	1	-1E+10	1	-1E+10	1	-1E+10	1	-1E+10	1	-1E+10	1
4902554	22	C	09/10/2021	10:59	-136.392	49.487	0	83.10	0	6.4400	0	32.4580	0	25.491	0	82.375	0	-1e10	8	-1e10	8	-1E+10	1	-1E+10	1	-1E+10	1	-1E+10	1	-1E+10	1	-1E+10	1
4902554	22	C	09/10/2021	10:59	-136.392	49.487	0	84.10	0	6.4310	0	32.4580	0	25.492	0	83.366	0	-1e10	8	-1e10	8	-1E+10	1	-1E+10	1	-1E+10	1	-1E+10	1	-1E+10	1	-1E+10	1
4902554	22	C	09/10/2021	10:59	-136.392	49.487	0	85.40	0	6.4190	0	32.4600	0	25.495	0	84.654	0	-1e10	8	-1e10	8	-1E+10	1	-1E+10	1	-1E+10	1	-1E+10	1	-1E+10	1	-1E+10	1
4902554	22	C	09/10/2021	10:59	-136.392	49.487	0	85.90	0	6.4100	0	32.4610	0	25.497	0	85.150	0	-1e10	8	-1e10	8	-1E+10	1	-1E+10	1	-1E+10	1	-1E+10	1	-1E+10	1	-1E+10	1
4902554	22	C	09/10/2021	10:59	-136.392	49.487	0	87.10	0	6.3770	0	32.4630	0	25.503	0	86.339	0	-1e10	8	-1e10	8	-1E+10	1	-1E+10	1	-1E+10	1	-1E+10	1	-1E+10	1	-1E+10	1
4902554	22	C	09/10/2021	10:59	-136.392	49.487	0	88.10	0	6.3490	0	32.4660	0	25.509	0	87.330	0	-1e10	8	-1e10	8	-1E+10	1	-1E+10	1	-1E+10	1	-1E+10	1	-1E+10	1	-1E+10	1
4902554	22	C	09/10/2021	10:59	-136.392	49.487	0	89.10	0	6.3150	0	32.4690	0	25.515	0	88.321	0	-1e10	8	-1e10	8	-1E+10	1	-1E+10	1	-1E+10	1	-1E+10	1	-1E+10	1	-1E+10	1
4902554	22	C	09/10/2021	10:59	-136.392	49.487	0	90.10	0	6.2960	0	32.4710	0	25.519	0	89.312	0	-1e10	8	-1e10	8	-1E+10	1	-1E+10	1	-1E+10	1	-1E+10	1	-1E+10	1	-1E+10	1
4902554	22	C	09/10/2021	10:59	-136.392	49.487	0	90.90	0	6.2740	0	32.4750	0	25.525	0	90.105	0	-1e10	8	-1e10	8	-1E+10	1	-1E+10	1	-1E+10	1	-1E+10	1	-1E+10	1	-1E+10	1
4902554	22	C	09/10/2021	10:59	-136.392	49.487	0	91.80	0	6.2390	0	32.4800	0	25.533	0	90.997	0	-1e10	8	-1e10	8	-1E+10	1	-1E+10	1	-1E+10	1	-1E+10	1	-1E+10	1	-1E+10	1
4902554	22	C	09/10/2021	10:59	-136.392	49.487	0	92.80	0	6.2290	0	32.4800	0	25.535	0	91.988	0	-1e10	8	-1e10	8	-1E+10	1	-1E+10	1	-1E+10	1	-1E+10	1	-1E+10	1	-1E+10	1
4902554	22	C	09/10/2021	10:59	-136.392	49.487	0	94.00	0	6.2120	0	32.4820	0	25.538	0	93.177	0	-1e10	8	-1e10	8	-1E+10	1	-1E+10	1	-1E+10	1	-1E+10	1	-1E+10	1	-1E+10	1
4902554	22	C	09/10/2021	10:59	-136.392	49.487	0	95.20	0	6.1960	0	32.4810	0	25.540	0	94.367	0	-1e10	8	-1e10	8	-1E+10	1	-1E+10	1	-1E+10	1	-1E+10	1	-1E+10	1	-1E+10	1
4902554	22	C	09/10/2021	10:59	-136.392	49.487	0	96.10	0	6.1880	0	32.4830	0	25.542	0	95.258	0	-1e10	8	-1e10	8	-1E+10	1	-1E+10	1	-1E+10	1	-1E+10	1	-1E+10	1	-1E+10	1
4902554	22	C	09/10/2021	10:59	-136.392	49.487	0	96.70	0	6.1810	0	32.4840	0	25.544	0	95.853	0	-1e10	8	-1e10	8	-1E+10	1	-1E+10	1	-1E+10	1	-1E+10	1	-1E+10	1	-1E+10	1
4902554	22	C	09/10/2021	10:59	-136.392	49.487	0	97.70	0	6.1520	0	32.4930	0	25.555	0	96.844	0	-1e10	8	-1e10	8	-1E+10	1	-1E+10	1	-1E+10	1	-1E+10	1	-1E+10	1	-1E+10	1
4902554	22	C	09/10/2021	10:59	-136.392	49.487	0	98.70	0	6.1410	0	32.4950	0	25.557	0	97.835	0	-1e10	8	-1e10	8	-1E+10	1	-1E+10	1	-1E+10	1	-1E+10	1	-1E+10	1	-1E+10	1
4902554	22	C	09/10/2021	10:59	-136.392	49.487	0	99.70	0	6.1360	0	32.4950	0	25.558	0	98.826	0	-1e10	8	-1e10	8	-1E+10	1	-1E+10	1	-1E+10	1	-1E+10	1	-1E+10	1	-1E+10	1
4902554	22	C	09/10/2021	10:59	-136.392	49.487	0	100.70	0	6.1290	0	32.4980	0	25.561	0	99.817	0	-1e10	8	-1e10	8	-1E+10	1	-1E+10	1	-1E+10	1	-1E+10	1	-1E+10	1	-1E+10	1
4902554	22	C	09/10/2021	10:59	-136.392	49.487	0	101.70	0	6.1070	0	32.5010	0	25.566	0	100.808	0	-1e10	8	-1e10	8	-1E+10	1	-1E+10	1	-1E+10	1	-1E+10	1	-1E+10	1	-1E+10	1
4902554	22	C	09/10/2021	10:59	-136.392	49.487	0	103.10	0	6.0900	0	32.5080	0	25.574	0	102.195	0	-1e10	8	-1e10	8	-1E+10	1	-1E+10	1	-1E+10	1	-1E+10	1	-1E+10	1	-1E+10	1
4902554	22	C	09/10/2021	10:59	-136.392	49.487	0	104.30	0	6.0650	0	32.5130	0	25.581	0	103.385	0	-1e10	8	-1e10	8	-1E+10	1	-1E+10	1	-1E+10	1	-1E+10	1	-1E+10	1	-1E+10	1
4902554	22	C	09/10/2021	10:59	-136.392	49.487	0	105.20	0	6.0560	0	32.5230	0	25.590	0	104.276	0	-1e10	8	-1e10	8	-1E+10	1	-1E+10	1	-1E+10	1	-1E+10	1	-1E+10	1	-1E+10	1
4902554	22	C	09/10/2021	10:59	-136.392	49.487	0	106.10	0	6.0360	0	32.5350	0	25.602	0	105.168	0	-1e10	8	-1e10	8	-1E+10	1	-1E+10	1	-1E+10	1	-1E+10	1	-1E+10	1	-1E+10	1
4902554	22	C	09/10/2021	10:59	-136.392	49.487	0	106.90	0	6.0370	0	32.5480	0	25.612	0	105.961	0	-1e10	8	-1e10	8	-1E+10	1	-1E+10	1	-1E+10	1	-1E+10	1	-1E+10	1	-1E+10	1
4902554	22	C	09/10/2021	10:59	-136.392	49.487	0	108.10	0	6.0430	0	32.5580	0	25.619	0	107.150	0	-1e10	8	-1e10	8	-1E+10	1	-1E+10	1	-1E+10	1	-1E+10	1	-1E+10	1	-1E+10	1
4902554	22	C	09/10/2021	10:59	-136.392	49.487	0	108.80	0	6.0390	0	32.5640	0	25.625	0	107.844	0	-1e10	8	-1e10	8	-1E+10	1	-1E+10	1	-1E+10	1	-1E+10	1	-1E+10	1	-1E+10	1
4902554	22	C	09/10/2021	10:59	-136.392	49.487	0	109.90	0	6.0220	0	32.5900	0	25.647	0	108.934	0	-1e10	8	-1e10	8	-1E+10	1	-1E+10	1	-1E+10	1	-1E+10	1	-1E+10	1	-1E+10	1
4902554	22	C	09/10/2021	10:59	-136.392	49.487	0	110.90	0	6.0310	0	32.6360	0	25.682	0	109.925	0	-1e10	8	-1e10	8	-1E+10	1	-1E+10	1	-1E+10	1	-1E+10	1	-1E+10	1	-1E+10	1
4902554	22	C	09/10/2021	10:59	-136.392	49.487	0	111.90	0	6.0420	0	32.6680	0	25.706	0	110.916	0	-1e10	8	-1e10	8	-1E+10	1	-1E+10	1	-1E+10	1	-1E+10	1	-1E+10	1	-1E+10	1
4902554	22	C	09/10/2021	10:59	-136.392	49.487	0	112.90	0	6.0380	0	32.7040	0	25.735	0	111.907	0	-1e10	8	-1e10	8	-1E+10	1	-1E+10	1	-1E+10	1	-1E+10	1	-1E+10	1	-1E+10	1
4902554	22	C	09/10/2021	10:59	-136.392	49.487	0	113.90	0	6.0330	0	32.7370	0	25.762	0	112.898	0	-1e10	8	-1e10	8	-1E+10	1	-1E+10	1	-1E+10	1	-1E+10	1	-1E+10	1	-1E+10	1
4902554	22	C	09/10/2021	10:59	-136.392	49.487	0	115.00	0	6.0400	0	32.7610	0	25.780	0	113.988	0	-1e10	8	-1e10	8	-1E+10	1	-1E+10	1	-1E+10	1	-1E+10	1	-1E+10	1	-1E+10	1
4902554	22	C	09/10/2021	10:59	-136.392	49.487	0	116.20	0	6.0540	0	32.7860	0	25.798	0	115.177	0	-1e10	8	-1e10	8	-1E+10	1	-1E+10	1	-1E+10	1	-1E+10	1	-1E+10	1	-1E+10	1
4902554	22	C	09/10/2021	10:59	-136.392	49.487	0	116.90	0	6.0800	0	32.8120	0	25.815	0	115.870	0	-1e10	8	-1e10	8	-1E+10	1	-1E+10	1	-1E+10	1	-1E+10	1	-1E+10	1	-1E+10	1
4902554	22	C	09/10/2021	10:59	-136.392	49.487	0	118.00	0	6.1240	0	32.8690	0	25.855	0	116.960	0	-1e10	8	-1e10	8	-1E+10	1	-1E+10	1	-1E+10	1	-1E+10	1	-1E+10	1	-1E+10	1
4902554	22	C	09/10/2021	10:59	-136.392	49.487	0	119.00	0	6.1700	0	32.9790	0	25.936	0	117.951	0	-1e10	8	-1e10	8	-1E+10	1	-1E+10	1	-1E+10	1	-1E+10	1	-1E+10	1	-1E+10	1
4902554	22	C	09/10/2021	10:59	-136.392	49.487	0	119.90	0	6.1680	0	33.0150	0	25.965	0	118.843	0	-1e10	8	-1e10	8	-1E+10	1	-1E+10	1	-1E+10	1	-1E+10	1	-1E+10	1	-1E+10	1
4902554	22	C	09/10/2021	10:59	-136.392	49.487	0	121.00	0	6.1770	0	33.0380	0	25.982	0	119.933	0	-1e10	8	-1e10	8	-1E+10	1	-1E+10	1	-1E+10	1	-1E+10	1	-1E+10	1	-1E+10	1
4902554	22	C	09/10/2021	10:59	-136.392	49.487	0	121.80	0	6.1800	0	33.0560	0	25.996	0	120.726	0	-1e10	8	-1e10	8	-1E+10	1	-1E+10	1	-1E+10	1	-1E+10	1	-1E+10	1	-1E+10	1
4902554	22	C	09/10/2021	10:59	-136.392	49.487	0	122.90	0	6.1700	0	33.1020	0	26.033	0	121.816	0	-1e10	8	-1e10	8	-1E+10	1	-1E+10	1	-1E+10	1	-1E+10	1	-1E+10	1	-1E+10	1
4902554	22	C	09/10/2021	10:59	-136.392	49.487	0	124.10	0	6.1690	0	33.1270	0	26.053	0	123.005	0	-1e10	8	-1e10	8	-1E+10	1	-1E+10	1	-1E+10	1	-1E+10	1	-1E+10	1	-1E+10	1
4902554	22	C	09/10/2021	10:59	-136.392	49.487	0	124.90	0	6.1640	0	33.1420	0	26.066	0	123.798	0	-1e10	8	-1e10	8	-1E+10	1	-1E+10	1	-1E+10	1	-1E+10	1	-1E+10	1	-1E+10	1
4902554	22	C	09/10/2021	10:59	-136.392	49.487	0	125.70	0	6.1660	0	33.1490	0	26.071	0	124.590	0	-1e10	8	-1e10	8	-1E+10	1	-1E+10	1	-1E+10	1	-1E+10	1	-1E+10	1	-1E+10	1
4902554	22	C	09/10/2021	10:59	-136.392	49.487	0	126.90	0	6.1630	0	33.1670	0	26.086	0	125.779	0	-1e10	8	-1e10	8	-1E+10	1	-1E+10	1	-1E+10	1	-1E+10	1	-1E+10	1	-1E+10	1
4902554	22	C	09/10/2021	10:59	-136.392	49.487	0	128.10	0	6.1640	0	33.1720	0	26.089	0	126.968	0	-1e10	8	-1e10	8	-1E+10	1	-1E+10	1	-1E+10	1	-1E+10	1	-1E+10	1	-1E+10	1
4902554	22	C	09/10/2021	10:59	-136.392	49.487	0	129.00	0	6.1630	0	33.1800	0	26.096	0	127.860	0	-1e10	8	-1e10	8	-1E+10	1	-1E+10	1	-1E+10	1	-1E+10	1	-1E+10	1	-1E+10	1
4902554	22	C	09/10/2021	10:59	-136.392	49.487	0	129.80	0	6.1630	0	33.1900	0	26.104	0	128.653	0	-1e10	8	-1e10	8	-1E+10	1	-1E+10	1	-1E+10	1	-1E+10	1	-1E+10	1	-1E+10	1
4902554	22	C	09/10/2021	10:59	-136.392	49.487	0	131.00	0	6.1610	0	33.2110	0	26.121	0	129.842	0	-1e10	8	-1e10	8	-1E+10	1	-1E+10	1	-1E+10	1	-1E+10	1	-1E+10	1	-1E+10	1
4902554	22	C	09/10/2021	10:59	-136.392	49.487	0	132.20	0	6.1540	0	33.2420	0	26.146	0	131.031	0	-1e10	8	-1e10	8	-1E+10	1	-1E+10	1	-1E+10	1	-1E+10	1	-1E+10	1	-1E+10	1
4902554	22	C	09/10/2021	10:59	-136.392	49.487	0	133.10	0	6.1540	0	33.2650	0	26.164	0	131.923	0	-1e10	8	-1e10	8	-1E+10	1	-1E+10	1	-1E+10	1	-1E+10	1	-1E+10	1	-1E+10	1
4902554	22	C	09/10/2021	10:59	-136.392	49.487	0	134.00	0	6.1510	0	33.2800	0	26.176	0	132.814	0	-1e10	8	-1e10	8	-1E+10	1	-1E+10	1	-1E+10	1	-1E+10	1	-1E+10	1	-1E+10	1
4902554	22	C	09/10/2021	10:59	-136.392	49.487	0	134.90	0	6.1450	0	33.3230	0	26.211	0	133.706	0	-1e10	8	-1e10	8	-1E+10	1	-1E+10	1	-1E+10	1	-1E+10	1	-1E+10	1	-1E+10	1
4902554	22	C	09/10/2021	10:59	-136.392	49.487	0	135.80	0	6.1450	0	33.3460	0	26.229	0	134.598	0	-1e10	8	-1e10	8	-1E+10	1	-1E+10	1	-1E+10	1	-1E+10	1	-1E+10	1	-1E+10	1
4902554	22	C	09/10/2021	10:59	-136.392	49.487	0	136.80	0	6.1480	0	33.3500	0	26.232	0	135.589	0	-1e10	8	-1e10	8	-1E+10	1	-1E+10	1	-1E+10	1	-1E+10	1	-1E+10	1	-1E+10	1
4902554	22	C	09/10/2021	10:59	-136.392	49.487	0	137.70	0	6.1470	0	33.3630	0	26.242	0	136.480	0	-1e10	8	-1e10	8	-1E+10	1	-1E+10	1	-1E+10	1	-1E+10	1	-1E+10	1	-1E+10	1
4902554	22	C	09/10/2021	10:59	-136.392	49.487	0	138.60	0	6.1490	0	33.3690	0	26.247	0	137.372	0	-1e10	8	-1e10	8	-1E+10	1	-1E+10	1	-1E+10	1	-1E+10	1	-1E+10	1	-1E+10	1
4902554	22	C	09/10/2021	10:59	-136.392	49.487	0	139.90	0	6.1440	0	33.3800	0	26.256	0	138.660	0	-1e10	8	-1e10	8	-1E+10	1	-1E+10	1	-1E+10	1	-1E+10	1	-1E+10	1	-1E+10	1
4902554	22	C	09/10/2021	10:59	-136.392	49.487	0	141.40	0	6.1390	0	33.4340	0	26.300	0	140.146	0	-1e10	8	-1e10	8	-1E+10	1	-1E+10	1	-1E+10	1	-1E+10	1	-1E+10	1	-1E+10	1
4902554	22	C	09/10/2021	10:59	-136.392	49.487	0	142.40	0	6.1380	0	33.4560	0	26.317	0	141.137	0	-1e10	8	-1e10	8	-1E+10	1	-1E+10	1	-1E+10	1	-1E+10	1	-1E+10	1	-1E+10	1
4902554	22	C	09/10/2021	10:59	-136.392	49.487	0	143.40	0	6.1090	0	33.5220	0	26.373	0	142.128	0	-1e10	8	-1e10	8	-1E+10	1	-1E+10	1	-1E+10	1	-1E+10	1	-1E+10	1	-1E+10	1
4902554	22	C	09/10/2021	10:59	-136.392	49.487	0	144.40	0	6.1040	0	33.5400	0	26.388	0	143.119	0	-1e10	8	-1e10	8	-1E+10	1	-1E+10	1	-1E+10	1	-1E+10	1	-1E+10	1	-1E+10	1
4902554	22	C	09/10/2021	10:59	-136.392	49.487	0	145.40	0	6.1090	0	33.5450	0	26.391	0	144.109	0	-1e10	8	-1e10	8	-1E+10	1	-1E+10	1	-1E+10	1	-1E+10	1	-1E+10	1	-1E+10	1
4902554	22	C	09/10/2021	10:59	-136.392	49.487	0	146.50	0	6.1170	0	33.5700	0	26.410	0	145.199	0	-1e10	8	-1e10	8	-1E+10	1	-1E+10	1	-1E+10	1	-1E+10	1	-1E+10	1	-1E+10	1
4902554	22	C	09/10/2021	10:59	-136.392	49.487	0	147.50	0	6.0870	0	33.5880	0	26.428	0	146.190	0	-1e10	8	-1e10	8	-1E+10	1	-1E+10	1	-1E+10	1	-1E+10	1	-1E+10	1	-1E+10	1
4902554	22	C	09/10/2021	10:59	-136.392	49.487	0	148.60	0	6.0660	0	33.5980	0	26.438	0	147.280	0	-1e10	8	-1e10	8	-1E+10	1	-1E+10	1	-1E+10	1	-1E+10	1	-1E+10	1	-1E+10	1
4902554	22	C	09/10/2021	10:59	-136.392	49.487	0	149.70	0	6.0640	0	33.6030	0	26.443	0	148.370	0	-1e10	8	-1e10	8	-1E+10	1	-1E+10	1	-1E+10	1	-1E+10	1	-1E+10	1	-1E+10	1
4902554	22	C	09/10/2021	10:59	-136.392	49.487	0	150.70	0	6.0620	0	33.6160	0	26.453	0	149.361	0	-1e10	8	-1e10	8	-1E+10	1	-1E+10	1	-1E+10	1	-1E+10	1	-1E+10	1	-1E+10	1
4902554	22	C	09/10/2021	10:59	-136.392	49.487	0	151.80	0	6.0620	0	33.6200	0	26.456	0	150.450	0	-1e10	8	-1e10	8	-1E+10	1	-1E+10	1	-1E+10	1	-1E+10	1	-1E+10	1	-1E+10	1
4902554	22	C	09/10/2021	10:59	-136.392	49.487	0	152.80	0	6.0520	0	33.6340	0	26.469	0	151.441	0	-1e10	8	-1e10	8	-1E+10	1	-1E+10	1	-1E+10	1	-1E+10	1	-1E+10	1	-1E+10	1
4902554	22	C	09/10/2021	10:59	-136.392	49.487	0	153.70	0	6.0400	0	33.6440	0	26.478	0	152.333	0	-1e10	8	-1e10	8	-1E+10	1	-1E+10	1	-1E+10	1	-1E+10	1	-1E+10	1	-1E+10	1
4902554	22	C	09/10/2021	10:59	-136.392	49.487	0	154.70	0	6.0160	0	33.6530	0	26.488	0	153.323	0	-1e10	8	-1e10	8	-1E+10	1	-1E+10	1	-1E+10	1	-1E+10	1	-1E+10	1	-1E+10	1
4902554	22	C	09/10/2021	10:59	-136.392	49.487	0	155.90	0	6.0190	0	33.6560	0	26.490	0	154.512	0	-1e10	8	-1e10	8	-1E+10	1	-1E+10	1	-1E+10	1	-1E+10	1	-1E+10	1	-1E+10	1
4902554	22	C	09/10/2021	10:59	-136.392	49.487	0	157.00	0	6.0140	0	33.6590	0	26.493	0	155.602	0	-1e10	8	-1e10	8	-1E+10	1	-1E+10	1	-1E+10	1	-1E+10	1	-1E+10	1	-1E+10	1
4902554	22	C	09/10/2021	10:59	-136.392	49.487	0	157.80	0	6.0120	0	33.6600	0	26.494	0	156.395	0	-1e10	8	-1e10	8	-1E+10	1	-1E+10	1	-1E+10	1	-1E+10	1	-1E+10	1	-1E+10	1
4902554	22	C	09/10/2021	10:59	-136.392	49.487	0	159.00	0	6.0020	0	33.6640	0	26.499	0	157.584	0	-1e10	8	-1e10	8	-1E+10	1	-1E+10	1	-1E+10	1	-1E+10	1	-1E+10	1	-1E+10	1
4902554	22	C	09/10/2021	10:59	-136.392	49.487	0	160.20	0	5.9710	0	33.6790	0	26.514	0	158.772	0	-1e10	8	-1e10	8	-1E+10	1	-1E+10	1	-1E+10	1	-1E+10	1	-1E+10	1	-1E+10	1
4902554	22	C	09/10/2021	10:59	-136.392	49.487	0	161.00	0	5.9600	0	33.6910	0	26.525	0	159.565	0	-1e10	8	-1e10	8	-1E+10	1	-1E+10	1	-1E+10	1	-1E+10	1	-1E+10	1	-1E+10	1
4902554	22	C	09/10/2021	10:59	-136.392	49.487	0	161.90	0	5.9470	0	33.6950	0	26.530	0	160.457	0	-1e10	8	-1e10	8	-1E+10	1	-1E+10	1	-1E+10	1	-1E+10	1	-1E+10	1	-1E+10	1
4902554	22	C	09/10/2021	10:59	-136.392	49.487	0	162.70	0	5.9300	0	33.7000	0	26.536	0	161.249	0	-1e10	8	-1e10	8	-1E+10	1	-1E+10	1	-1E+10	1	-1E+10	1	-1E+10	1	-1E+10	1
4902554	22	C	09/10/2021	10:59	-136.392	49.487	0	163.90	0	5.9270	0	33.7010	0	26.537	0	162.438	0	-1e10	8	-1e10	8	-1E+10	1	-1E+10	1	-1E+10	1	-1E+10	1	-1E+10	1	-1E+10	1
4902554	22	C	09/10/2021	10:59	-136.392	49.487	0	165.10	0	5.9270	0	33.7020	0	26.538	0	163.627	0	-1e10	8	-1e10	8	-1E+10	1	-1E+10	1	-1E+10	1	-1E+10	1	-1E+10	1	-1E+10	1
4902554	22	C	09/10/2021	10:59	-136.392	49.487	0	165.90	0	5.9250	0	33.7030	0	26.539	0	164.419	0	-1e10	8	-1e10	8	-1E+10	1	-1E+10	1	-1E+10	1	-1E+10	1	-1E+10	1	-1E+10	1
4902554	22	C	09/10/2021	10:59	-136.392	49.487	0	166.70	0	5.9230	0	33.7060	0	26.542	0	165.212	0	-1e10	8	-1e10	8	-1E+10	1	-1E+10	1	-1E+10	1	-1E+10	1	-1E+10	1	-1E+10	1
4902554	22	C	09/10/2021	10:59	-136.392	49.487	0	167.90	0	5.9140	0	33.7090	0	26.545	0	166.401	0	-1e10	8	-1e10	8	-1E+10	1	-1E+10	1	-1E+10	1	-1E+10	1	-1E+10	1	-1E+10	1
4902554	22	C	09/10/2021	10:59	-136.392	49.487	0	169.20	0	5.9060	0	33.7120	0	26.549	0	167.689	0	-1e10	8	-1e10	8	-1E+10	1	-1E+10	1	-1E+10	1	-1E+10	1	-1E+10	1	-1E+10	1
4902554	22	C	09/10/2021	10:59	-136.392	49.487	0	170.00	0	5.8780	0	33.7180	0	26.557	0	168.481	0	-1e10	8	-1e10	8	-1E+10	1	-1E+10	1	-1E+10	1	-1E+10	1	-1E+10	1	-1E+10	1
4902554	22	C	09/10/2021	10:59	-136.392	49.487	0	170.90	0	5.8560	0	33.7210	0	26.562	0	169.373	0	-1e10	8	-1e10	8	-1E+10	1	-1E+10	1	-1E+10	1	-1E+10	1	-1E+10	1	-1E+10	1
4902554	22	C	09/10/2021	10:59	-136.392	49.487	0	171.70	0	5.8510	0	33.7220	0	26.563	0	170.165	0	-1e10	8	-1e10	8	-1E+10	1	-1E+10	1	-1E+10	1	-1E+10	1	-1E+10	1	-1E+10	1
4902554	22	C	09/10/2021	10:59	-136.392	49.487	0	172.90	0	5.8360	0	33.7250	0	26.567	0	171.354	0	-1e10	8	-1e10	8	-1E+10	1	-1E+10	1	-1E+10	1	-1E+10	1	-1E+10	1	-1E+10	1
4902554	22	C	09/10/2021	10:59	-136.392	49.487	0	174.20	0	5.8320	0	33.7290	0	26.571	0	172.642	0	-1e10	8	-1e10	8	-1E+10	1	-1E+10	1	-1E+10	1	-1E+10	1	-1E+10	1	-1E+10	1
4902554	22	C	09/10/2021	10:59	-136.392	49.487	0	175.10	0	5.8360	0	33.7300	0	26.571	0	173.533	0	-1e10	8	-1e10	8	-1E+10	1	-1E+10	1	-1E+10	1	-1E+10	1	-1E+10	1	-1E+10	1
4902554	22	C	09/10/2021	10:59	-136.392	49.487	0	175.90	0	5.8330	0	33.7360	0	26.577	0	174.326	0	-1e10	8	-1e10	8	-1E+10	1	-1E+10	1	-1E+10	1	-1E+10	1	-1E+10	1	-1E+10	1
4902554	22	C	09/10/2021	10:59	-136.392	49.487	0	176.80	0	5.8260	0	33.7380	0	26.579	0	175.217	0	-1e10	8	-1e10	8	-1E+10	1	-1E+10	1	-1E+10	1	-1E+10	1	-1E+10	1	-1E+10	1
4902554	22	C	09/10/2021	10:59	-136.392	49.487	0	177.60	0	5.8290	0	33.7400	0	26.580	0	176.010	0	-1e10	8	-1e10	8	-1E+10	1	-1E+10	1	-1E+10	1	-1E+10	1	-1E+10	1	-1E+10	1
4902554	22	C	09/10/2021	10:59	-136.392	49.487	0	178.90	0	5.8270	0	33.7460	0	26.585	0	177.298	0	-1e10	8	-1e10	8	-1E+10	1	-1E+10	1	-1E+10	1	-1E+10	1	-1E+10	1	-1E+10	1
4902554	22	C	09/10/2021	10:59	-136.392	49.487	0	180.20	0	5.8000	0	33.7580	0	26.598	0	178.586	0	-1e10	8	-1e10	8	-1E+10	1	-1E+10	1	-1E+10	1	-1E+10	1	-1E+10	1	-1E+10	1
4902554	22	C	09/10/2021	10:59	-136.392	49.487	0	181.10	0	5.7870	0	33.7550	0	26.597	0	179.477	0	-1e10	8	-1e10	8	-1E+10	1	-1E+10	1	-1E+10	1	-1E+10	1	-1E+10	1	-1E+10	1
4902554	22	C	09/10/2021	10:59	-136.392	49.487	0	181.90	0	5.7800	0	33.7570	0	26.600	0	180.270	0	-1e10	8	-1e10	8	-1E+10	1	-1E+10	1	-1E+10	1	-1E+10	1	-1E+10	1	-1E+10	1
4902554	22	C	09/10/2021	10:59	-136.392	49.487	0	182.80	0	5.7780	0	33.7560	0	26.599	0	181.161	0	-1e10	8	-1e10	8	-1E+10	1	-1E+10	1	-1E+10	1	-1E+10	1	-1E+10	1	-1E+10	1
4902554	22	C	09/10/2021	10:59	-136.392	49.487	0	183.60	0	5.7760	0	33.7560	0	26.599	0	181.954	0	-1e10	8	-1e10	8	-1E+10	1	-1E+10	1	-1E+10	1	-1E+10	1	-1E+10	1	-1E+10	1
4902554	22	C	09/10/2021	10:59	-136.392	49.487	0	184.90	0	5.7700	0	33.7560	0	26.600	0	183.241	0	-1e10	8	-1e10	8	-1E+10	1	-1E+10	1	-1E+10	1	-1E+10	1	-1E+10	1	-1E+10	1
4902554	22	C	09/10/2021	10:59	-136.392	49.487	0	186.20	0	5.7310	0	33.7660	0	26.613	0	184.529	0	-1e10	8	-1e10	8	-1E+10	1	-1E+10	1	-1E+10	1	-1E+10	1	-1E+10	1	-1E+10	1
4902554	22	C	09/10/2021	10:59	-136.392	49.487	0	187.10	0	5.7180	0	33.7690	0	26.617	0	185.421	0	-1e10	8	-1e10	8	-1E+10	1	-1E+10	1	-1E+10	1	-1E+10	1	-1E+10	1	-1E+10	1
4902554	22	C	09/10/2021	10:59	-136.392	49.487	0	188.00	0	5.7050	0	33.7730	0	26.622	0	186.312	0	-1e10	8	-1e10	8	-1E+10	1	-1E+10	1	-1E+10	1	-1E+10	1	-1E+10	1	-1E+10	1
4902554	22	C	09/10/2021	10:59	-136.392	49.487	0	188.90	0	5.7030	0	33.7760	0	26.624	0	187.204	0	-1e10	8	-1e10	8	-1E+10	1	-1E+10	1	-1E+10	1	-1E+10	1	-1E+10	1	-1E+10	1
4902554	22	C	09/10/2021	10:59	-136.392	49.487	0	189.80	0	5.6930	0	33.7780	0	26.627	0	188.095	0	-1e10	8	-1e10	8	-1E+10	1	-1E+10	1	-1E+10	1	-1E+10	1	-1E+10	1	-1E+10	1
4902554	22	C	09/10/2021	10:59	-136.392	49.487	0	190.70	0	5.6790	0	33.7800	0	26.630	0	188.987	0	-1e10	8	-1e10	8	-1E+10	1	-1E+10	1	-1E+10	1	-1E+10	1	-1E+10	1	-1E+10	1
4902554	22	C	09/10/2021	10:59	-136.392	49.487	0	191.60	0	5.6770	0	33.7800	0	26.631	0	189.878	0	-1e10	8	-1e10	8	-1E+10	1	-1E+10	1	-1E+10	1	-1E+10	1	-1E+10	1	-1E+10	1
4902554	22	C	09/10/2021	10:59	-136.392	49.487	0	192.90	0	5.6740	0	33.7800	0	26.631	0	191.166	0	-1e10	8	-1e10	8	-1E+10	1	-1E+10	1	-1E+10	1	-1E+10	1	-1E+10	1	-1E+10	1
4902554	22	C	09/10/2021	10:59	-136.392	49.487	0	194.30	0	5.6650	0	33.7800	0	26.632	0	192.553	0	-1e10	8	-1e10	8	-1E+10	1	-1E+10	1	-1E+10	1	-1E+10	1	-1E+10	1	-1E+10	1
4902554	22	C	09/10/2021	10:59	-136.392	49.487	0	195.20	0	5.6630	0	33.7830	0	26.635	0	193.444	0	-1e10	8	-1e10	8	-1E+10	1	-1E+10	1	-1E+10	1	-1E+10	1	-1E+10	1	-1E+10	1
4902554	22	C	09/10/2021	10:59	-136.392	49.487	0	196.10	0	5.6650	0	33.7860	0	26.637	0	194.336	0	-1e10	8	-1e10	8	-1E+10	1	-1E+10	1	-1E+10	1	-1E+10	1	-1E+10	1	-1E+10	1
4902554	22	C	09/10/2021	10:59	-136.392	49.487	0	197.00	0	5.6650	0	33.7860	0	26.637	0	195.227	0	-1e10	8	-1e10	8	-1E+10	1	-1E+10	1	-1E+10	1	-1E+10	1	-1E+10	1	-1E+10	1
4902554	22	C	09/10/2021	10:59	-136.392	49.487	0	197.90	0	5.6550	0	33.7870	0	26.639	0	196.119	0	-1e10	8	-1e10	8	-1E+10	1	-1E+10	1	-1E+10	1	-1E+10	1	-1E+10	1	-1E+10	1
4902554	22	C	09/10/2021	10:59	-136.392	49.487	0	198.80	0	5.6350	0	33.7870	0	26.641	0	197.010	0	-1e10	8	-1e10	8	-1E+10	1	-1E+10	1	-1E+10	1	-1E+10	1	-1E+10	1	-1E+10	1
4902554	22	C	09/10/2021	10:59	-136.392	49.487	0	199.70	0	5.6290	0	33.7880	0	26.643	0	197.902	0	-1e10	8	-1e10	8	-1E+10	1	-1E+10	1	-1E+10	1	-1E+10	1	-1E+10	1	-1E+10	1
4902554	22	C	09/10/2021	10:59	-136.392	49.487	0	200.60	0	5.6140	0	33.7870	0	26.644	0	198.793	0	-1e10	8	-1e10	8	-1E+10	1	-1E+10	1	-1E+10	1	-1E+10	1	-1E+10	1	-1E+10	1
4902554	22	C	09/10/2021	10:59	-136.392	49.487	0	201.90	0	5.6030	0	33.7900	0	26.647	0	200.081	0	-1e10	8	-1e10	8	-1E+10	1	-1E+10	1	-1E+10	1	-1E+10	1	-1E+10	1	-1E+10	1
4902554	22	C	09/10/2021	10:59	-136.392	49.487	0	203.20	0	5.5870	0	33.7920	0	26.651	0	201.368	0	-1e10	8	-1e10	8	-1E+10	1	-1E+10	1	-1E+10	1	-1E+10	1	-1E+10	1	-1E+10	1
4902554	22	C	09/10/2021	10:59	-136.392	49.487	0	204.20	0	5.5670	0	33.7920	0	26.653	0	202.359	0	-1e10	8	-1e10	8	-1E+10	1	-1E+10	1	-1E+10	1	-1E+10	1	-1E+10	1	-1E+10	1
4902554	22	C	09/10/2021	10:59	-136.392	49.487	0	205.00	0	5.5650	0	33.7920	0	26.654	0	203.151	0	-1e10	8	-1e10	8	-1E+10	1	-1E+10	1	-1E+10	1	-1E+10	1	-1E+10	1	-1E+10	1
4902554	22	C	09/10/2021	10:59	-136.392	49.487	0	205.90	0	5.5610	0	33.7940	0	26.656	0	204.043	0	-1e10	8	-1e10	8	-1E+10	1	-1E+10	1	-1E+10	1	-1E+10	1	-1E+10	1	-1E+10	1
4902554	22	C	09/10/2021	10:59	-136.392	49.487	0	206.80	0	5.5270	0	33.7970	0	26.662	0	204.934	0	-1e10	8	-1e10	8	-1E+10	1	-1E+10	1	-1E+10	1	-1E+10	1	-1E+10	1	-1E+10	1
4902554	22	C	09/10/2021	10:59	-136.392	49.487	0	207.70	0	5.5140	0	33.7980	0	26.665	0	205.826	0	-1e10	8	-1e10	8	-1E+10	1	-1E+10	1	-1E+10	1	-1E+10	1	-1E+10	1	-1E+10	1
4902554	22	C	09/10/2021	10:59	-136.392	49.487	0	208.60	0	5.5020	0	33.7980	0	26.666	0	206.717	0	-1e10	8	-1e10	8	-1E+10	1	-1E+10	1	-1E+10	1	-1E+10	1	-1E+10	1	-1E+10	1
4902554	22	C	09/10/2021	10:59	-136.392	49.487	0	209.90	0	5.4790	0	33.7990	0	26.669	0	208.005	0	-1e10	8	-1e10	8	-1E+10	1	-1E+10	1	-1E+10	1	-1E+10	1	-1E+10	1	-1E+10	1
4902554	22	C	09/10/2021	10:59	-136.392	49.487	0	211.30	0	5.4780	0	33.7990	0	26.670	0	209.391	0	-1e10	8	-1e10	8	-1E+10	1	-1E+10	1	-1E+10	1	-1E+10	1	-1E+10	1	-1E+10	1
4902554	22	C	09/10/2021	10:59	-136.392	49.487	0	212.10	0	5.4590	0	33.8010	0	26.673	0	210.184	0	-1e10	8	-1e10	8	-1E+10	1	-1E+10	1	-1E+10	1	-1E+10	1	-1E+10	1	-1E+10	1
4902554	22	C	09/10/2021	10:59	-136.392	49.487	0	213.00	0	5.4470	0	33.8030	0	26.676	0	211.075	0	-1e10	8	-1e10	8	-1E+10	1	-1E+10	1	-1E+10	1	-1E+10	1	-1E+10	1	-1E+10	1
4902554	22	C	09/10/2021	10:59	-136.392	49.487	0	213.90	0	5.4460	0	33.8030	0	26.677	0	211.966	0	-1e10	8	-1e10	8	-1E+10	1	-1E+10	1	-1E+10	1	-1E+10	1	-1E+10	1	-1E+10	1
4902554	22	C	09/10/2021	10:59	-136.392	49.487	0	214.70	0	5.4360	0	33.8050	0	26.679	0	212.759	0	-1e10	8	-1e10	8	-1E+10	1	-1E+10	1	-1E+10	1	-1E+10	1	-1E+10	1	-1E+10	1
4902554	22	C	09/10/2021	10:59	-136.392	49.487	0	216.00	0	5.4120	0	33.8060	0	26.683	0	214.046	0	-1e10	8	-1e10	8	-1E+10	1	-1E+10	1	-1E+10	1	-1E+10	1	-1E+10	1	-1E+10	1
4902554	22	C	09/10/2021	10:59	-136.392	49.487	0	217.30	0	5.4060	0	33.8050	0	26.683	0	215.334	0	-1e10	8	-1e10	8	-1E+10	1	-1E+10	1	-1E+10	1	-1E+10	1	-1E+10	1	-1E+10	1
4902554	22	C	09/10/2021	10:59	-136.392	49.487	0	218.20	0	5.3980	0	33.8060	0	26.685	0	216.225	0	-1e10	8	-1e10	8	-1E+10	1	-1E+10	1	-1E+10	1	-1E+10	1	-1E+10	1	-1E+10	1
4902554	22	C	09/10/2021	10:59	-136.392	49.487	0	219.00	0	5.3890	0	33.8080	0	26.687	0	217.018	0	-1e10	8	-1e10	8	-1E+10	1	-1E+10	1	-1E+10	1	-1E+10	1	-1E+10	1	-1E+10	1
4902554	22	C	09/10/2021	10:59	-136.392	49.487	0	219.90	0	5.3870	0	33.8070	0	26.687	0	217.909	0	-1e10	8	-1e10	8	-1E+10	1	-1E+10	1	-1E+10	1	-1E+10	1	-1E+10	1	-1E+10	1
4902554	22	C	09/10/2021	10:59	-136.392	49.487	0	220.80	0	5.3870	0	33.8080	0	26.688	0	218.800	0	-1e10	8	-1e10	8	-1E+10	1	-1E+10	1	-1E+10	1	-1E+10	1	-1E+10	1	-1E+10	1
4902554	22	C	09/10/2021	10:59	-136.392	49.487	0	221.70	0	5.3830	0	33.8070	0	26.687	0	219.692	0	-1e10	8	-1e10	8	-1E+10	1	-1E+10	1	-1E+10	1	-1E+10	1	-1E+10	1	-1E+10	1
4902554	22	C	09/10/2021	10:59	-136.392	49.487	0	222.60	0	5.3810	0	33.8070	0	26.688	0	220.583	0	-1e10	8	-1e10	8	-1E+10	1	-1E+10	1	-1E+10	1	-1E+10	1	-1E+10	1	-1E+10	1
4902554	22	C	09/10/2021	10:59	-136.392	49.487	0	223.90	0	5.3700	0	33.8070	0	26.689	0	221.871	0	-1e10	8	-1e10	8	-1E+10	1	-1E+10	1	-1E+10	1	-1E+10	1	-1E+10	1	-1E+10	1
4902554	22	C	09/10/2021	10:59	-136.392	49.487	0	225.20	0	5.3290	0	33.8140	0	26.699	0	223.158	0	-1e10	8	-1e10	8	-1E+10	1	-1E+10	1	-1E+10	1	-1E+10	1	-1E+10	1	-1E+10	1
4902554	22	C	09/10/2021	10:59	-136.392	49.487	0	226.10	0	5.3090	0	33.8120	0	26.700	0	224.050	0	-1e10	8	-1e10	8	-1E+10	1	-1E+10	1	-1E+10	1	-1E+10	1	-1E+10	1	-1E+10	1
4902554	22	C	09/10/2021	10:59	-136.392	49.487	0	227.00	0	5.2980	0	33.8120	0	26.701	0	224.941	0	-1e10	8	-1e10	8	-1E+10	1	-1E+10	1	-1E+10	1	-1E+10	1	-1E+10	1	-1E+10	1
4902554	22	C	09/10/2021	10:59	-136.392	49.487	0	227.90	0	5.2830	0	33.8120	0	26.703	0	225.832	0	-1e10	8	-1e10	8	-1E+10	1	-1E+10	1	-1E+10	1	-1E+10	1	-1E+10	1	-1E+10	1
4902554	22	C	09/10/2021	10:59	-136.392	49.487	0	228.90	0	5.2760	0	33.8140	0	26.705	0	226.823	0	-1e10	8	-1e10	8	-1E+10	1	-1E+10	1	-1E+10	1	-1E+10	1	-1E+10	1	-1E+10	1
4902554	22	C	09/10/2021	10:59	-136.392	49.487	0	229.80	0	5.2690	0	33.8150	0	26.707	0	227.714	0	-1e10	8	-1e10	8	-1E+10	1	-1E+10	1	-1E+10	1	-1E+10	1	-1E+10	1	-1E+10	1
4902554	22	C	09/10/2021	10:59	-136.392	49.487	0	230.70	0	5.2870	0	33.8160	0	26.706	0	228.605	0	-1e10	8	-1e10	8	-1E+10	1	-1E+10	1	-1E+10	1	-1E+10	1	-1E+10	1	-1E+10	1
4902554	22	C	09/10/2021	10:59	-136.392	49.487	0	231.60	0	5.2830	0	33.8200	0	26.709	0	229.497	0	-1e10	8	-1e10	8	-1E+10	1	-1E+10	1	-1E+10	1	-1E+10	1	-1E+10	1	-1E+10	1
4902554	22	C	09/10/2021	10:59	-136.392	49.487	0	232.90	0	5.2790	0	33.8210	0	26.711	0	230.784	0	-1e10	8	-1e10	8	-1E+10	1	-1E+10	1	-1E+10	1	-1E+10	1	-1E+10	1	-1E+10	1
4902554	22	C	09/10/2021	10:59	-136.392	49.487	0	234.40	0	5.2780	0	33.8230	0	26.712	0	232.270	0	-1e10	8	-1e10	8	-1E+10	1	-1E+10	1	-1E+10	1	-1E+10	1	-1E+10	1	-1E+10	1
4902554	22	C	09/10/2021	10:59	-136.392	49.487	0	235.30	0	5.2510	0	33.8270	0	26.719	0	233.161	0	-1e10	8	-1e10	8	-1E+10	1	-1E+10	1	-1E+10	1	-1E+10	1	-1E+10	1	-1E+10	1
4902554	22	C	09/10/2021	10:59	-136.392	49.487	0	236.20	0	5.2350	0	33.8270	0	26.721	0	234.052	0	-1e10	8	-1e10	8	-1E+10	1	-1E+10	1	-1E+10	1	-1E+10	1	-1E+10	1	-1E+10	1
4902554	22	C	09/10/2021	10:59	-136.392	49.487	0	237.20	0	5.2260	0	33.8270	0	26.722	0	235.043	0	-1e10	8	-1e10	8	-1E+10	1	-1E+10	1	-1E+10	1	-1E+10	1	-1E+10	1	-1E+10	1
4902554	22	C	09/10/2021	10:59	-136.392	49.487	0	238.10	0	5.2180	0	33.8270	0	26.723	0	235.934	0	-1e10	8	-1e10	8	-1E+10	1	-1E+10	1	-1E+10	1	-1E+10	1	-1E+10	1	-1E+10	1
4902554	22	C	09/10/2021	10:59	-136.392	49.487	0	239.10	0	5.2070	0	33.8270	0	26.724	0	236.924	0	-1e10	8	-1e10	8	-1E+10	1	-1E+10	1	-1E+10	1	-1E+10	1	-1E+10	1	-1E+10	1
4902554	22	C	09/10/2021	10:59	-136.392	49.487	0	240.00	0	5.1870	0	33.8290	0	26.728	0	237.815	0	-1e10	8	-1e10	8	-1E+10	1	-1E+10	1	-1E+10	1	-1E+10	1	-1E+10	1	-1E+10	1
4902554	22	C	09/10/2021	10:59	-136.392	49.487	0	240.90	0	5.1730	0	33.8280	0	26.729	0	238.707	0	-1e10	8	-1e10	8	-1E+10	1	-1E+10	1	-1E+10	1	-1E+10	1	-1E+10	1	-1E+10	1
4902554	22	C	09/10/2021	10:59	-136.392	49.487	0	241.90	0	5.1680	0	33.8290	0	26.730	0	239.697	0	-1e10	8	-1e10	8	-1E+10	1	-1E+10	1	-1E+10	1	-1E+10	1	-1E+10	1	-1E+10	1
4902554	22	C	09/10/2021	10:59	-136.392	49.487	0	242.80	0	5.1580	0	33.8300	0	26.732	0	240.588	0	-1e10	8	-1e10	8	-1E+10	1	-1E+10	1	-1E+10	1	-1E+10	1	-1E+10	1	-1E+10	1
4902554	22	C	09/10/2021	10:59	-136.392	49.487	0	243.80	0	5.1540	0	33.8310	0	26.733	0	241.579	0	-1e10	8	-1e10	8	-1E+10	1	-1E+10	1	-1E+10	1	-1E+10	1	-1E+10	1	-1E+10	1
4902554	22	C	09/10/2021	10:59	-136.392	49.487	0	244.70	0	5.1290	0	33.8340	0	26.738	0	242.470	0	-1e10	8	-1e10	8	-1E+10	1	-1E+10	1	-1E+10	1	-1E+10	1	-1E+10	1	-1E+10	1
4902554	22	C	09/10/2021	10:59	-136.392	49.487	0	245.70	0	5.1290	0	33.8340	0	26.738	0	243.460	0	-1e10	8	-1e10	8	-1E+10	1	-1E+10	1	-1E+10	1	-1E+10	1	-1E+10	1	-1E+10	1
4902554	22	C	09/10/2021	10:59	-136.392	49.487	0	246.60	0	5.1310	0	33.8360	0	26.740	0	244.351	0	-1e10	8	-1e10	8	-1E+10	1	-1E+10	1	-1E+10	1	-1E+10	1	-1E+10	1	-1E+10	1
4902554	22	C	09/10/2021	10:59	-136.392	49.487	0	247.60	0	5.1170	0	33.8420	0	26.746	0	245.342	0	-1e10	8	-1e10	8	-1E+10	1	-1E+10	1	-1E+10	1	-1E+10	1	-1E+10	1	-1E+10	1
4902554	22	C	09/10/2021	10:59	-136.392	49.487	0	248.60	0	5.1110	0	33.8410	0	26.746	0	246.332	0	-1e10	8	-1e10	8	-1E+10	1	-1E+10	1	-1E+10	1	-1E+10	1	-1E+10	1	-1E+10	1
4902554	22	C	09/10/2021	10:59	-136.392	49.487	0	249.60	0	5.0970	0	33.8410	0	26.748	0	247.322	0	-1e10	8	-1e10	8	-1E+10	1	-1E+10	1	-1E+10	1	-1E+10	1	-1E+10	1	-1E+10	1
4902554	22	C	09/10/2021	10:59	-136.392	49.487	0	250.50	0	5.0900	0	33.8410	0	26.748	0	248.214	0	-1e10	8	-1e10	8	-1E+10	1	-1E+10	1	-1E+10	1	-1E+10	1	-1E+10	1	-1E+10	1
4902554	22	C	09/10/2021	10:59	-136.392	49.487	0	251.50	0	5.0830	0	33.8400	0	26.748	0	249.204	0	-1e10	8	-1e10	8	-1E+10	1	-1E+10	1	-1E+10	1	-1E+10	1	-1E+10	1	-1E+10	1
4902554	22	C	09/10/2021	10:59	-136.392	49.487	0	252.50	0	5.0790	0	33.8430	0	26.751	0	250.194	0	-1e10	8	-1e10	8	-1E+10	1	-1E+10	1	-1E+10	1	-1E+10	1	-1E+10	1	-1E+10	1
4902554	22	C	09/10/2021	10:59	-136.392	49.487	0	253.90	0	5.0480	0	33.8390	0	26.752	0	251.580	0	-1e10	8	-1e10	8	-1E+10	1	-1E+10	1	-1E+10	1	-1E+10	1	-1E+10	1	-1E+10	1
4902554	22	C	09/10/2021	10:59	-136.392	49.487	0	255.40	0	5.0410	0	33.8390	0	26.753	0	253.066	0	-1e10	8	-1e10	8	-1E+10	1	-1E+10	1	-1E+10	1	-1E+10	1	-1E+10	1	-1E+10	1
4902554	22	C	09/10/2021	10:59	-136.392	49.487	0	256.40	0	5.0360	0	33.8390	0	26.753	0	254.056	0	-1e10	8	-1e10	8	-1E+10	1	-1E+10	1	-1E+10	1	-1E+10	1	-1E+10	1	-1E+10	1
4902554	22	C	09/10/2021	10:59	-136.392	49.487	0	257.40	0	5.0290	0	33.8400	0	26.755	0	255.046	0	-1e10	8	-1e10	8	-1E+10	1	-1E+10	1	-1E+10	1	-1E+10	1	-1E+10	1	-1E+10	1
4902554	22	C	09/10/2021	10:59	-136.392	49.487	0	258.40	0	5.0310	0	33.8410	0	26.755	0	256.037	0	-1e10	8	-1e10	8	-1E+10	1	-1E+10	1	-1E+10	1	-1E+10	1	-1E+10	1	-1E+10	1
4902554	22	C	09/10/2021	10:59	-136.392	49.487	0	259.30	0	5.0340	0	33.8430	0	26.757	0	256.928	0	-1e10	8	-1e10	8	-1E+10	1	-1E+10	1	-1E+10	1	-1E+10	1	-1E+10	1	-1E+10	1
4902554	22	C	09/10/2021	10:59	-136.392	49.487	0	260.30	0	5.0370	0	33.8440	0	26.757	0	257.918	0	-1e10	8	-1e10	8	-1E+10	1	-1E+10	1	-1E+10	1	-1E+10	1	-1E+10	1	-1E+10	1
4902554	22	C	09/10/2021	10:59	-136.392	49.487	0	261.30	0	5.0410	0	33.8450	0	26.757	0	258.908	0	-1e10	8	-1e10	8	-1E+10	1	-1E+10	1	-1E+10	1	-1E+10	1	-1E+10	1	-1E+10	1
4902554	22	C	09/10/2021	10:59	-136.392	49.487	0	262.30	0	5.0510	0	33.8410	0	26.753	0	259.898	0	-1e10	8	-1e10	8	-1E+10	1	-1E+10	1	-1E+10	1	-1E+10	1	-1E+10	1	-1E+10	1
4902554	22	C	09/10/2021	10:59	-136.392	49.487	0	263.30	0	5.0470	0	33.8520	0	26.762	0	260.889	0	-1e10	8	-1e10	8	-1E+10	1	-1E+10	1	-1E+10	1	-1E+10	1	-1E+10	1	-1E+10	1
4902554	22	C	09/10/2021	10:59	-136.392	49.487	0	264.30	0	5.0330	0	33.8540	0	26.765	0	261.879	0	-1e10	8	-1e10	8	-1E+10	1	-1E+10	1	-1E+10	1	-1E+10	1	-1E+10	1	-1E+10	1
4902554	22	C	09/10/2021	10:59	-136.392	49.487	0	265.30	0	5.0280	0	33.8560	0	26.768	0	262.869	0	-1e10	8	-1e10	8	-1E+10	1	-1E+10	1	-1E+10	1	-1E+10	1	-1E+10	1	-1E+10	1
4902554	22	C	09/10/2021	10:59	-136.392	49.487	0	266.30	0	5.0230	0	33.8560	0	26.768	0	263.859	0	-1e10	8	-1e10	8	-1E+10	1	-1E+10	1	-1E+10	1	-1E+10	1	-1E+10	1	-1E+10	1
4902554	22	C	09/10/2021	10:59	-136.392	49.487	0	267.20	0	5.0220	0	33.8560	0	26.768	0	264.750	0	-1e10	8	-1e10	8	-1E+10	1	-1E+10	1	-1E+10	1	-1E+10	1	-1E+10	1	-1E+10	1
4902554	22	C	09/10/2021	10:59	-136.392	49.487	0	268.20	0	5.0210	0	33.8560	0	26.768	0	265.741	0	-1e10	8	-1e10	8	-1E+10	1	-1E+10	1	-1E+10	1	-1E+10	1	-1E+10	1	-1E+10	1
4902554	22	C	09/10/2021	10:59	-136.392	49.487	0	269.20	0	5.0190	0	33.8560	0	26.769	0	266.731	0	-1e10	8	-1e10	8	-1E+10	1	-1E+10	1	-1E+10	1	-1E+10	1	-1E+10	1	-1E+10	1
4902554	22	C	09/10/2021	10:59	-136.392	49.487	0	270.20	0	5.0190	0	33.8560	0	26.769	0	267.721	0	-1e10	8	-1e10	8	-1E+10	1	-1E+10	1	-1E+10	1	-1E+10	1	-1E+10	1	-1E+10	1
4902554	22	C	09/10/2021	10:59	-136.392	49.487	0	271.10	0	5.0050	0	33.8580	0	26.772	0	268.612	0	-1e10	8	-1e10	8	-1E+10	1	-1E+10	1	-1E+10	1	-1E+10	1	-1E+10	1	-1E+10	1
4902554	22	C	09/10/2021	10:59	-136.392	49.487	0	272.10	0	4.9830	0	33.8610	0	26.777	0	269.602	0	-1e10	8	-1e10	8	-1E+10	1	-1E+10	1	-1E+10	1	-1E+10	1	-1E+10	1	-1E+10	1
4902554	22	C	09/10/2021	10:59	-136.392	49.487	0	273.10	0	4.9650	0	33.8610	0	26.779	0	270.593	0	-1e10	8	-1e10	8	-1E+10	1	-1E+10	1	-1E+10	1	-1E+10	1	-1E+10	1	-1E+10	1
4902554	22	C	09/10/2021	10:59	-136.392	49.487	0	274.10	0	4.9600	0	33.8600	0	26.779	0	271.583	0	-1e10	8	-1e10	8	-1E+10	1	-1E+10	1	-1E+10	1	-1E+10	1	-1E+10	1	-1E+10	1
4902554	22	C	09/10/2021	10:59	-136.392	49.487	0	275.10	0	4.9560	0	33.8610	0	26.780	0	272.573	0	-1e10	8	-1e10	8	-1E+10	1	-1E+10	1	-1E+10	1	-1E+10	1	-1E+10	1	-1E+10	1
4902554	22	C	09/10/2021	10:59	-136.392	49.487	0	276.10	0	4.9550	0	33.8610	0	26.780	0	273.563	0	-1e10	8	-1e10	8	-1E+10	1	-1E+10	1	-1E+10	1	-1E+10	1	-1E+10	1	-1E+10	1
4902554	22	C	09/10/2021	10:59	-136.392	49.487	0	277.10	0	4.9520	0	33.8610	0	26.780	0	274.553	0	-1e10	8	-1e10	8	-1E+10	1	-1E+10	1	-1E+10	1	-1E+10	1	-1E+10	1	-1E+10	1
4902554	22	C	09/10/2021	10:59	-136.392	49.487	0	278.00	0	4.9430	0	33.8610	0	26.781	0	275.444	0	-1e10	8	-1e10	8	-1E+10	1	-1E+10	1	-1E+10	1	-1E+10	1	-1E+10	1	-1E+10	1
4902554	22	C	09/10/2021	10:59	-136.392	49.487	0	279.00	0	4.9260	0	33.8610	0	26.783	0	276.434	0	-1e10	8	-1e10	8	-1E+10	1	-1E+10	1	-1E+10	1	-1E+10	1	-1E+10	1	-1E+10	1
4902554	22	C	09/10/2021	10:59	-136.392	49.487	0	280.00	0	4.9230	0	33.8620	0	26.784	0	277.425	0	-1e10	8	-1e10	8	-1E+10	1	-1E+10	1	-1E+10	1	-1E+10	1	-1E+10	1	-1E+10	1
4902554	22	C	09/10/2021	10:59	-136.392	49.487	0	281.00	0	4.9220	0	33.8620	0	26.784	0	278.415	0	-1e10	8	-1e10	8	-1E+10	1	-1E+10	1	-1E+10	1	-1E+10	1	-1E+10	1	-1E+10	1
4902554	22	C	09/10/2021	10:59	-136.392	49.487	0	281.90	0	4.9100	0	33.8660	0	26.789	0	279.306	0	-1e10	8	-1e10	8	-1E+10	1	-1E+10	1	-1E+10	1	-1E+10	1	-1E+10	1	-1E+10	1
4902554	22	C	09/10/2021	10:59	-136.392	49.487	0	282.90	0	4.9040	0	33.8670	0	26.790	0	280.296	0	-1e10	8	-1e10	8	-1E+10	1	-1E+10	1	-1E+10	1	-1E+10	1	-1E+10	1	-1E+10	1
4902554	22	C	09/10/2021	10:59	-136.392	49.487	0	283.90	0	4.9000	0	33.8670	0	26.791	0	281.286	0	-1e10	8	-1e10	8	-1E+10	1	-1E+10	1	-1E+10	1	-1E+10	1	-1E+10	1	-1E+10	1
4902554	22	C	09/10/2021	10:59	-136.392	49.487	0	284.90	0	4.8960	0	33.8680	0	26.792	0	282.276	0	-1e10	8	-1e10	8	-1E+10	1	-1E+10	1	-1E+10	1	-1E+10	1	-1E+10	1	-1E+10	1
4902554	22	C	09/10/2021	10:59	-136.392	49.487	0	285.80	0	4.8900	0	33.8680	0	26.793	0	283.167	0	-1e10	8	-1e10	8	-1E+10	1	-1E+10	1	-1E+10	1	-1E+10	1	-1E+10	1	-1E+10	1
4902554	22	C	09/10/2021	10:59	-136.392	49.487	0	286.80	0	4.8780	0	33.8700	0	26.796	0	284.157	0	-1e10	8	-1e10	8	-1E+10	1	-1E+10	1	-1E+10	1	-1E+10	1	-1E+10	1	-1E+10	1
4902554	22	C	09/10/2021	10:59	-136.392	49.487	0	287.80	0	4.8730	0	33.8700	0	26.796	0	285.147	0	-1e10	8	-1e10	8	-1E+10	1	-1E+10	1	-1E+10	1	-1E+10	1	-1E+10	1	-1E+10	1
4902554	22	C	09/10/2021	10:59	-136.392	49.487	0	288.80	0	4.8710	0	33.8710	0	26.797	0	286.138	0	-1e10	8	-1e10	8	-1E+10	1	-1E+10	1	-1E+10	1	-1E+10	1	-1E+10	1	-1E+10	1
4902554	22	C	09/10/2021	10:59	-136.392	49.487	0	289.80	0	4.8630	0	33.8710	0	26.798	0	287.128	0	-1e10	8	-1e10	8	-1E+10	1	-1E+10	1	-1E+10	1	-1E+10	1	-1E+10	1	-1E+10	1
4902554	22	C	09/10/2021	10:59	-136.392	49.487	0	290.80	0	4.8610	0	33.8720	0	26.799	0	288.118	0	-1e10	8	-1e10	8	-1E+10	1	-1E+10	1	-1E+10	1	-1E+10	1	-1E+10	1	-1E+10	1
4902554	22	C	09/10/2021	10:59	-136.392	49.487	0	291.80	0	4.8440	0	33.8740	0	26.803	0	289.108	0	-1e10	8	-1e10	8	-1E+10	1	-1E+10	1	-1E+10	1	-1E+10	1	-1E+10	1	-1E+10	1
4902554	22	C	09/10/2021	10:59	-136.392	49.487	0	292.80	0	4.8330	0	33.8730	0	26.803	0	290.098	0	-1e10	8	-1e10	8	-1E+10	1	-1E+10	1	-1E+10	1	-1E+10	1	-1E+10	1	-1E+10	1
4902554	22	C	09/10/2021	10:59	-136.392	49.487	0	293.70	0	4.8310	0	33.8730	0	26.803	0	290.989	0	-1e10	8	-1e10	8	-1E+10	1	-1E+10	1	-1E+10	1	-1E+10	1	-1E+10	1	-1E+10	1
4902554	22	C	09/10/2021	10:59	-136.392	49.487	0	294.70	0	4.8230	0	33.8740	0	26.805	0	291.979	0	-1e10	8	-1e10	8	-1E+10	1	-1E+10	1	-1E+10	1	-1E+10	1	-1E+10	1	-1E+10	1
4902554	22	C	09/10/2021	10:59	-136.392	49.487	0	295.60	0	4.8220	0	33.8730	0	26.804	0	292.870	0	-1e10	8	-1e10	8	-1E+10	1	-1E+10	1	-1E+10	1	-1E+10	1	-1E+10	1	-1E+10	1
4902554	22	C	09/10/2021	10:59	-136.392	49.487	0	296.80	0	4.8120	0	33.8750	0	26.807	0	294.058	0	-1e10	8	-1e10	8	-1E+10	1	-1E+10	1	-1E+10	1	-1E+10	1	-1E+10	1	-1E+10	1
4902554	22	C	09/10/2021	10:59	-136.392	49.487	0	298.00	0	4.7990	0	33.8770	0	26.810	0	295.246	0	-1e10	8	-1e10	8	-1E+10	1	-1E+10	1	-1E+10	1	-1E+10	1	-1E+10	1	-1E+10	1
4902554	22	C	09/10/2021	10:59	-136.392	49.487	0	299.00	0	4.7940	0	33.8780	0	26.812	0	296.236	0	-1e10	8	-1e10	8	-1E+10	1	-1E+10	1	-1E+10	1	-1E+10	1	-1E+10	1	-1E+10	1
4902554	22	C	09/10/2021	10:59	-136.392	49.487	0	300.20	0	4.7920	0	33.8780	0	26.812	0	297.424	0	-1e10	8	-1e10	8	-1E+10	1	-1E+10	1	-1E+10	1	-1E+10	1	-1E+10	1	-1E+10	1
4902554	22	C	09/10/2021	10:59	-136.392	49.487	0	300.90	0	4.7920	0	33.8780	0	26.812	0	298.117	0	-1e10	8	-1e10	8	-1E+10	1	-1E+10	1	-1E+10	1	-1E+10	1	-1E+10	1	-1E+10	1
4902554	22	C	09/10/2021	10:59	-136.392	49.487	0	302.00	0	4.7920	0	33.8790	0	26.813	0	299.206	0	-1e10	8	-1e10	8	-1E+10	1	-1E+10	1	-1E+10	1	-1E+10	1	-1E+10	1	-1E+10	1
4902554	22	C	09/10/2021	10:59	-136.392	49.487	0	303.20	0	4.7910	0	33.8790	0	26.813	0	300.394	0	-1e10	8	-1e10	8	-1E+10	1	-1E+10	1	-1E+10	1	-1E+10	1	-1E+10	1	-1E+10	1
4902554	22	C	09/10/2021	10:59	-136.392	49.487	0	303.90	0	4.7840	0	33.8800	0	26.814	0	301.087	0	-1e10	8	-1e10	8	-1E+10	1	-1E+10	1	-1E+10	1	-1E+10	1	-1E+10	1	-1E+10	1
4902554	22	C	09/10/2021	10:59	-136.392	49.487	0	305.00	0	4.7790	0	33.8800	0	26.815	0	302.176	0	-1e10	8	-1e10	8	-1E+10	1	-1E+10	1	-1E+10	1	-1E+10	1	-1E+10	1	-1E+10	1
4902554	22	C	09/10/2021	10:59	-136.392	49.487	0	306.20	0	4.7720	0	33.8820	0	26.817	0	303.364	0	-1e10	8	-1e10	8	-1E+10	1	-1E+10	1	-1E+10	1	-1E+10	1	-1E+10	1	-1E+10	1
4902554	22	C	09/10/2021	10:59	-136.392	49.487	0	306.90	0	4.7720	0	33.8820	0	26.817	0	304.057	0	-1e10	8	-1e10	8	-1E+10	1	-1E+10	1	-1E+10	1	-1E+10	1	-1E+10	1	-1E+10	1
4902554	22	C	09/10/2021	10:59	-136.392	49.487	0	308.00	0	4.7700	0	33.8820	0	26.817	0	305.146	0	-1e10	8	-1e10	8	-1E+10	1	-1E+10	1	-1E+10	1	-1E+10	1	-1E+10	1	-1E+10	1
4902554	22	C	09/10/2021	10:59	-136.392	49.487	0	309.20	0	4.7700	0	33.8810	0	26.817	0	306.334	0	-1e10	8	-1e10	8	-1E+10	1	-1E+10	1	-1E+10	1	-1E+10	1	-1E+10	1	-1E+10	1
4902554	22	C	09/10/2021	10:59	-136.392	49.487	0	309.90	0	4.7600	0	33.8820	0	26.819	0	307.027	0	-1e10	8	-1e10	8	-1E+10	1	-1E+10	1	-1E+10	1	-1E+10	1	-1E+10	1	-1E+10	1
4902554	22	C	09/10/2021	10:59	-136.392	49.487	0	310.70	0	4.7570	0	33.8820	0	26.819	0	307.819	0	-1e10	8	-1e10	8	-1E+10	1	-1E+10	1	-1E+10	1	-1E+10	1	-1E+10	1	-1E+10	1
4902554	22	C	09/10/2021	10:59	-136.392	49.487	0	311.90	0	4.7520	0	33.8830	0	26.820	0	309.007	0	-1e10	8	-1e10	8	-1E+10	1	-1E+10	1	-1E+10	1	-1E+10	1	-1E+10	1	-1E+10	1
4902554	22	C	09/10/2021	10:59	-136.392	49.487	0	313.10	0	4.7430	0	33.8850	0	26.823	0	310.195	0	-1e10	8	-1e10	8	-1E+10	1	-1E+10	1	-1E+10	1	-1E+10	1	-1E+10	1	-1E+10	1
4902554	22	C	09/10/2021	10:59	-136.392	49.487	0	313.90	0	4.7410	0	33.8850	0	26.823	0	310.987	0	-1e10	8	-1e10	8	-1E+10	1	-1E+10	1	-1E+10	1	-1E+10	1	-1E+10	1	-1E+10	1
4902554	22	C	09/10/2021	10:59	-136.392	49.487	0	314.70	0	4.7370	0	33.8850	0	26.824	0	311.779	0	-1e10	8	-1e10	8	-1E+10	1	-1E+10	1	-1E+10	1	-1E+10	1	-1E+10	1	-1E+10	1
4902554	22	C	09/10/2021	10:59	-136.392	49.487	0	315.90	0	4.7320	0	33.8850	0	26.824	0	312.967	0	-1e10	8	-1e10	8	-1E+10	1	-1E+10	1	-1E+10	1	-1E+10	1	-1E+10	1	-1E+10	1
4902554	22	C	09/10/2021	10:59	-136.392	49.487	0	317.20	0	4.7240	0	33.8880	0	26.827	0	314.254	0	-1e10	8	-1e10	8	-1E+10	1	-1E+10	1	-1E+10	1	-1E+10	1	-1E+10	1	-1E+10	1
4902554	22	C	09/10/2021	10:59	-136.392	49.487	0	318.00	0	4.7200	0	33.8880	0	26.828	0	315.046	0	-1e10	8	-1e10	8	-1E+10	1	-1E+10	1	-1E+10	1	-1E+10	1	-1E+10	1	-1E+10	1
4902554	22	C	09/10/2021	10:59	-136.392	49.487	0	318.80	0	4.7170	0	33.8890	0	26.829	0	315.838	0	-1e10	8	-1e10	8	-1E+10	1	-1E+10	1	-1E+10	1	-1E+10	1	-1E+10	1	-1E+10	1
4902554	22	C	09/10/2021	10:59	-136.392	49.487	0	319.60	0	4.7100	0	33.8890	0	26.830	0	316.630	0	-1e10	8	-1e10	8	-1E+10	1	-1E+10	1	-1E+10	1	-1E+10	1	-1E+10	1	-1E+10	1
4902554	22	C	09/10/2021	10:59	-136.392	49.487	0	320.90	0	4.6980	0	33.8920	0	26.833	0	317.917	0	-1e10	8	-1e10	8	-1E+10	1	-1E+10	1	-1E+10	1	-1E+10	1	-1E+10	1	-1E+10	1
4902554	22	C	09/10/2021	10:59	-136.392	49.487	0	322.20	0	4.6900	0	33.8940	0	26.836	0	319.204	0	-1e10	8	-1e10	8	-1E+10	1	-1E+10	1	-1E+10	1	-1E+10	1	-1E+10	1	-1E+10	1
4902554	22	C	09/10/2021	10:59	-136.392	49.487	0	323.00	0	4.6880	0	33.8940	0	26.836	0	319.996	0	-1e10	8	-1e10	8	-1E+10	1	-1E+10	1	-1E+10	1	-1E+10	1	-1E+10	1	-1E+10	1
4902554	22	C	09/10/2021	10:59	-136.392	49.487	0	323.90	0	4.6860	0	33.8950	0	26.837	0	320.887	0	-1e10	8	-1e10	8	-1E+10	1	-1E+10	1	-1E+10	1	-1E+10	1	-1E+10	1	-1E+10	1
4902554	22	C	09/10/2021	10:59	-136.392	49.487	0	324.80	0	4.6830	0	33.8950	0	26.838	0	321.778	0	-1e10	8	-1e10	8	-1E+10	1	-1E+10	1	-1E+10	1	-1E+10	1	-1E+10	1	-1E+10	1
4902554	22	C	09/10/2021	10:59	-136.392	49.487	0	325.60	0	4.6800	0	33.8960	0	26.839	0	322.570	0	-1e10	8	-1e10	8	-1E+10	1	-1E+10	1	-1E+10	1	-1E+10	1	-1E+10	1	-1E+10	1
4902554	22	C	09/10/2021	10:59	-136.392	49.487	0	326.90	0	4.6770	0	33.8960	0	26.839	0	323.857	0	-1e10	8	-1e10	8	-1E+10	1	-1E+10	1	-1E+10	1	-1E+10	1	-1E+10	1	-1E+10	1
4902554	22	C	09/10/2021	10:59	-136.392	49.487	0	328.30	0	4.6710	0	33.8980	0	26.841	0	325.242	0	-1e10	8	-1e10	8	-1E+10	1	-1E+10	1	-1E+10	1	-1E+10	1	-1E+10	1	-1E+10	1
4902554	22	C	09/10/2021	10:59	-136.392	49.487	0	329.20	0	4.6670	0	33.8990	0	26.842	0	326.133	0	-1e10	8	-1e10	8	-1E+10	1	-1E+10	1	-1E+10	1	-1E+10	1	-1E+10	1	-1E+10	1
4902554	22	C	09/10/2021	10:59	-136.392	49.487	0	330.10	0	4.6620	0	33.9000	0	26.844	0	327.024	0	-1e10	8	-1e10	8	-1E+10	1	-1E+10	1	-1E+10	1	-1E+10	1	-1E+10	1	-1E+10	1
4902554	22	C	09/10/2021	10:59	-136.392	49.487	0	331.00	0	4.6570	0	33.9000	0	26.844	0	327.915	0	-1e10	8	-1e10	8	-1E+10	1	-1E+10	1	-1E+10	1	-1E+10	1	-1E+10	1	-1E+10	1
4902554	22	C	09/10/2021	10:59	-136.392	49.487	0	331.90	0	4.6480	0	33.9020	0	26.847	0	328.806	0	-1e10	8	-1e10	8	-1E+10	1	-1E+10	1	-1E+10	1	-1E+10	1	-1E+10	1	-1E+10	1
4902554	22	C	09/10/2021	10:59	-136.392	49.487	0	332.80	0	4.6440	0	33.9030	0	26.848	0	329.697	0	-1e10	8	-1e10	8	-1E+10	1	-1E+10	1	-1E+10	1	-1E+10	1	-1E+10	1	-1E+10	1
4902554	22	C	09/10/2021	10:59	-136.392	49.487	0	333.70	0	4.6430	0	33.9030	0	26.848	0	330.588	0	-1e10	8	-1e10	8	-1E+10	1	-1E+10	1	-1E+10	1	-1E+10	1	-1E+10	1	-1E+10	1
4902554	22	C	09/10/2021	10:59	-136.392	49.487	0	334.60	0	4.6420	0	33.9040	0	26.849	0	331.479	0	-1e10	8	-1e10	8	-1E+10	1	-1E+10	1	-1E+10	1	-1E+10	1	-1E+10	1	-1E+10	1
4902554	22	C	09/10/2021	10:59	-136.392	49.487	0	335.90	0	4.6390	0	33.9040	0	26.850	0	332.766	0	-1e10	8	-1e10	8	-1E+10	1	-1E+10	1	-1E+10	1	-1E+10	1	-1E+10	1	-1E+10	1
4902554	22	C	09/10/2021	10:59	-136.392	49.487	0	337.30	0	4.6370	0	33.9060	0	26.851	0	334.151	0	-1e10	8	-1e10	8	-1E+10	1	-1E+10	1	-1E+10	1	-1E+10	1	-1E+10	1	-1E+10	1
4902554	22	C	09/10/2021	10:59	-136.392	49.487	0	338.20	0	4.6350	0	33.9060	0	26.852	0	335.042	0	-1e10	8	-1e10	8	-1E+10	1	-1E+10	1	-1E+10	1	-1E+10	1	-1E+10	1	-1E+10	1
4902554	22	C	09/10/2021	10:59	-136.392	49.487	0	339.20	0	4.6290	0	33.9070	0	26.853	0	336.032	0	-1e10	8	-1e10	8	-1E+10	1	-1E+10	1	-1E+10	1	-1E+10	1	-1E+10	1	-1E+10	1
4902554	22	C	09/10/2021	10:59	-136.392	49.487	0	340.10	0	4.6200	0	33.9080	0	26.855	0	336.923	0	-1e10	8	-1e10	8	-1E+10	1	-1E+10	1	-1E+10	1	-1E+10	1	-1E+10	1	-1E+10	1
4902554	22	C	09/10/2021	10:59	-136.392	49.487	0	341.00	0	4.6130	0	33.9090	0	26.856	0	337.814	0	-1e10	8	-1e10	8	-1E+10	1	-1E+10	1	-1E+10	1	-1E+10	1	-1E+10	1	-1E+10	1
4902554	22	C	09/10/2021	10:59	-136.392	49.487	0	341.90	0	4.6090	0	33.9100	0	26.858	0	338.705	0	-1e10	8	-1e10	8	-1E+10	1	-1E+10	1	-1E+10	1	-1E+10	1	-1E+10	1	-1E+10	1
4902554	22	C	09/10/2021	10:59	-136.392	49.487	0	342.90	0	4.6000	0	33.9120	0	26.860	0	339.694	0	-1e10	8	-1e10	8	-1E+10	1	-1E+10	1	-1E+10	1	-1E+10	1	-1E+10	1	-1E+10	1
4902554	22	C	09/10/2021	10:59	-136.392	49.487	0	343.80	0	4.5930	0	33.9140	0	26.863	0	340.585	0	-1e10	8	-1e10	8	-1E+10	1	-1E+10	1	-1E+10	1	-1E+10	1	-1E+10	1	-1E+10	1
4902554	22	C	09/10/2021	10:59	-136.392	49.487	0	344.70	0	4.5910	0	33.9150	0	26.864	0	341.476	0	-1e10	8	-1e10	8	-1E+10	1	-1E+10	1	-1E+10	1	-1E+10	1	-1E+10	1	-1E+10	1
4902554	22	C	09/10/2021	10:59	-136.392	49.487	0	345.70	0	4.5900	0	33.9150	0	26.864	0	342.466	0	-1e10	8	-1e10	8	-1E+10	1	-1E+10	1	-1E+10	1	-1E+10	1	-1E+10	1	-1E+10	1
4902554	22	C	09/10/2021	10:59	-136.392	49.487	0	346.60	0	4.5900	0	33.9150	0	26.864	0	343.357	0	-1e10	8	-1e10	8	-1E+10	1	-1E+10	1	-1E+10	1	-1E+10	1	-1E+10	1	-1E+10	1
4902554	22	C	09/10/2021	10:59	-136.392	49.487	0	347.90	0	4.5880	0	33.9150	0	26.864	0	344.644	0	-1e10	8	-1e10	8	-1E+10	1	-1E+10	1	-1E+10	1	-1E+10	1	-1E+10	1	-1E+10	1
4902554	22	C	09/10/2021	10:59	-136.392	49.487	0	349.40	0	4.5850	0	33.9160	0	26.865	0	346.128	0	-1e10	8	-1e10	8	-1E+10	1	-1E+10	1	-1E+10	1	-1E+10	1	-1E+10	1	-1E+10	1
4902554	22	C	09/10/2021	10:59	-136.392	49.487	0	350.30	0	4.5840	0	33.9160	0	26.865	0	347.019	0	-1e10	8	-1e10	8	-1E+10	1	-1E+10	1	-1E+10	1	-1E+10	1	-1E+10	1	-1E+10	1
4902554	22	C	09/10/2021	10:59	-136.392	49.487	0	353.10	0	4.5640	0	33.9200	0	26.871	0	349.791	0	-1e10	8	-1e10	8	-1E+10	1	-1E+10	1	-1E+10	1	-1E+10	1	-1E+10	1	-1E+10	1
4902554	22	C	09/10/2021	10:59	-136.392	49.487	0	357.80	0	4.5360	0	33.9260	0	26.878	0	354.442	0	-1e10	8	-1e10	8	-1E+10	1	-1E+10	1	-1E+10	1	-1E+10	1	-1E+10	1	-1E+10	1
4902554	22	C	09/10/2021	10:59	-136.392	49.487	0	363.00	0	4.5160	0	33.9320	0	26.885	0	359.589	0	-1e10	8	-1e10	8	-1E+10	1	-1E+10	1	-1E+10	1	-1E+10	1	-1E+10	1	-1E+10	1
4902554	22	C	09/10/2021	10:59	-136.392	49.487	0	368.20	0	4.4910	0	33.9390	0	26.894	0	364.736	0	-1e10	8	-1e10	8	-1E+10	1	-1E+10	1	-1E+10	1	-1E+10	1	-1E+10	1	-1E+10	1
4902554	22	C	09/10/2021	10:59	-136.392	49.487	0	372.90	0	4.4760	0	33.9440	0	26.899	0	369.387	0	-1e10	8	-1e10	8	-1E+10	1	-1E+10	1	-1E+10	1	-1E+10	1	-1E+10	1	-1E+10	1
4902554	22	C	09/10/2021	10:59	-136.392	49.487	0	377.60	0	4.4560	0	33.9500	0	26.906	0	374.039	0	-1e10	8	-1e10	8	-1E+10	1	-1E+10	1	-1E+10	1	-1E+10	1	-1E+10	1	-1E+10	1
4902554	22	C	09/10/2021	10:59	-136.392	49.487	0	382.90	0	4.4390	0	33.9550	0	26.912	0	379.284	0	-1e10	8	-1e10	8	-1E+10	1	-1E+10	1	-1E+10	1	-1E+10	1	-1E+10	1	-1E+10	1
4902554	22	C	09/10/2021	10:59	-136.392	49.487	0	388.30	0	4.4240	0	33.9590	0	26.917	0	384.628	0	-1e10	8	-1e10	8	-1E+10	1	-1E+10	1	-1E+10	1	-1E+10	1	-1E+10	1	-1E+10	1
4902554	22	C	09/10/2021	10:59	-136.392	49.487	0	393.10	0	4.4090	0	33.9640	0	26.922	0	389.378	0	-1e10	8	-1e10	8	-1E+10	1	-1E+10	1	-1E+10	1	-1E+10	1	-1E+10	1	-1E+10	1
4902554	22	C	09/10/2021	10:59	-136.392	49.487	0	397.90	0	4.3900	0	33.9700	0	26.929	0	394.128	0	-1e10	8	-1e10	8	-1E+10	1	-1E+10	1	-1E+10	1	-1E+10	1	-1E+10	1	-1E+10	1
4902554	22	C	09/10/2021	10:59	-136.392	49.487	0	402.80	0	4.3740	0	33.9750	0	26.935	0	398.977	0	-1e10	8	-1e10	8	-1E+10	1	-1E+10	1	-1E+10	1	-1E+10	1	-1E+10	1	-1E+10	1
4902554	22	C	09/10/2021	10:59	-136.392	49.487	0	407.80	0	4.3560	0	33.9830	0	26.943	0	403.925	0	-1e10	8	-1e10	8	-1E+10	1	-1E+10	1	-1E+10	1	-1E+10	1	-1E+10	1	-1E+10	1
4902554	22	C	09/10/2021	10:59	-136.392	49.487	0	412.80	0	4.3390	0	33.9900	0	26.951	0	408.872	0	-1e10	8	-1e10	8	-1E+10	1	-1E+10	1	-1E+10	1	-1E+10	1	-1E+10	1	-1E+10	1
4902554	22	C	09/10/2021	10:59	-136.392	49.487	0	417.80	0	4.3260	0	33.9950	0	26.956	0	413.820	0	-1e10	8	-1e10	8	-1E+10	1	-1E+10	1	-1E+10	1	-1E+10	1	-1E+10	1	-1E+10	1
4902554	22	C	09/10/2021	10:59	-136.392	49.487	0	422.90	0	4.3170	0	33.9990	0	26.960	0	418.866	0	-1e10	8	-1e10	8	-1E+10	1	-1E+10	1	-1E+10	1	-1E+10	1	-1E+10	1	-1E+10	1
4902554	22	C	09/10/2021	10:59	-136.392	49.487	0	428.00	0	4.3140	0	34.0020	0	26.963	0	423.912	0	-1e10	8	-1e10	8	-1E+10	1	-1E+10	1	-1E+10	1	-1E+10	1	-1E+10	1	-1E+10	1
4902554	22	C	09/10/2021	10:59	-136.392	49.487	0	433.10	0	4.3000	0	34.0070	0	26.968	0	428.958	0	-1e10	8	-1e10	8	-1E+10	1	-1E+10	1	-1E+10	1	-1E+10	1	-1E+10	1	-1E+10	1
4902554	22	C	09/10/2021	10:59	-136.392	49.487	0	438.30	0	4.2900	0	34.0120	0	26.974	0	434.103	0	-1e10	8	-1e10	8	-1E+10	1	-1E+10	1	-1E+10	1	-1E+10	1	-1E+10	1	-1E+10	1
4902554	22	C	09/10/2021	10:59	-136.392	49.487	0	442.90	0	4.2780	0	34.0170	0	26.979	0	438.654	0	-1e10	8	-1e10	8	-1E+10	1	-1E+10	1	-1E+10	1	-1E+10	1	-1E+10	1	-1E+10	1
4902554	22	C	09/10/2021	10:59	-136.392	49.487	0	447.60	0	4.2710	0	34.0200	0	26.982	0	443.304	0	-1e10	8	-1e10	8	-1E+10	1	-1E+10	1	-1E+10	1	-1E+10	1	-1E+10	1	-1E+10	1
4902554	22	C	09/10/2021	10:59	-136.392	49.487	0	452.80	0	4.2620	0	34.0250	0	26.987	0	448.448	0	-1e10	8	-1e10	8	-1E+10	1	-1E+10	1	-1E+10	1	-1E+10	1	-1E+10	1	-1E+10	1
4902554	22	C	09/10/2021	10:59	-136.392	49.487	0	458.20	0	4.2490	0	34.0320	0	26.994	0	453.791	0	-1e10	8	-1e10	8	-1E+10	1	-1E+10	1	-1E+10	1	-1E+10	1	-1E+10	1	-1E+10	1
4902554	22	C	09/10/2021	10:59	-136.392	49.487	0	463.10	0	4.2400	0	34.0370	0	26.999	0	458.638	0	-1e10	8	-1e10	8	-1E+10	1	-1E+10	1	-1E+10	1	-1E+10	1	-1E+10	1	-1E+10	1
4902554	22	C	09/10/2021	10:59	-136.392	49.487	0	468.00	0	4.2370	0	34.0420	0	27.003	0	463.485	0	-1e10	8	-1e10	8	-1E+10	1	-1E+10	1	-1E+10	1	-1E+10	1	-1E+10	1	-1E+10	1
4902554	22	C	09/10/2021	10:59	-136.392	49.487	0	472.90	0	4.2320	0	34.0440	0	27.005	0	468.332	0	-1e10	8	-1e10	8	-1E+10	1	-1E+10	1	-1E+10	1	-1E+10	1	-1E+10	1	-1E+10	1
4902554	22	C	09/10/2021	10:59	-136.392	49.487	0	478.00	0	4.2260	0	34.0460	0	27.008	0	473.377	0	-1e10	8	-1e10	8	-1E+10	1	-1E+10	1	-1E+10	1	-1E+10	1	-1E+10	1	-1E+10	1
4902554	22	C	09/10/2021	10:59	-136.392	49.487	0	483.10	0	4.2170	0	34.0510	0	27.013	0	478.422	0	-1e10	8	-1e10	8	-1E+10	1	-1E+10	1	-1E+10	1	-1E+10	1	-1E+10	1	-1E+10	1
4902554	22	C	09/10/2021	10:59	-136.392	49.487	0	487.90	0	4.1990	0	34.0570	0	27.019	0	483.170	0	-1e10	8	-1e10	8	-1E+10	1	-1E+10	1	-1E+10	1	-1E+10	1	-1E+10	1	-1E+10	1
4902554	22	C	09/10/2021	10:59	-136.392	49.487	0	492.80	0	4.1850	0	34.0590	0	27.022	0	488.017	0	-1e10	8	-1e10	8	-1E+10	1	-1E+10	1	-1E+10	1	-1E+10	1	-1E+10	1	-1E+10	1
4902554	22	C	09/10/2021	10:59	-136.392	49.487	0	497.70	0	4.1700	0	34.0650	0	27.029	0	492.864	0	-1e10	8	-1e10	8	-1E+10	1	-1E+10	1	-1E+10	1	-1E+10	1	-1E+10	1	-1E+10	1
4902554	22	C	09/10/2021	10:59	-136.392	49.487	0	502.80	0	4.1600	0	34.0720	0	27.035	0	497.908	0	-1e10	8	-1e10	8	-1E+10	1	-1E+10	1	-1E+10	1	-1E+10	1	-1E+10	1	-1E+10	1
4902554	22	C	09/10/2021	10:59	-136.392	49.487	0	508.00	0	4.1380	0	34.0790	0	27.043	0	503.051	0	-1e10	8	-1e10	8	-1E+10	1	-1E+10	1	-1E+10	1	-1E+10	1	-1E+10	1	-1E+10	1
4902554	22	C	09/10/2021	10:59	-136.392	49.487	0	512.80	0	4.1170	0	34.0840	0	27.049	0	507.798	0	-1e10	8	-1e10	8	-1E+10	1	-1E+10	1	-1E+10	1	-1E+10	1	-1E+10	1	-1E+10	1
4902554	22	C	09/10/2021	10:59	-136.392	49.487	0	517.70	0	4.1040	0	34.0890	0	27.055	0	512.645	0	-1e10	8	-1e10	8	-1E+10	1	-1E+10	1	-1E+10	1	-1E+10	1	-1E+10	1	-1E+10	1
4902554	22	C	09/10/2021	10:59	-136.392	49.487	0	523.00	0	4.1120	0	34.0960	0	27.059	0	517.886	0	-1e10	8	-1e10	8	-1E+10	1	-1E+10	1	-1E+10	1	-1E+10	1	-1E+10	1	-1E+10	1
4902554	22	C	09/10/2021	10:59	-136.392	49.487	0	527.90	0	4.1010	0	34.1000	0	27.064	0	522.732	0	-1e10	8	-1e10	8	-1E+10	1	-1E+10	1	-1E+10	1	-1E+10	1	-1E+10	1	-1E+10	1
4902554	22	C	09/10/2021	10:59	-136.392	49.487	0	532.80	0	4.0790	0	34.1030	0	27.069	0	527.578	0	-1e10	8	-1e10	8	-1E+10	1	-1E+10	1	-1E+10	1	-1E+10	1	-1E+10	1	-1E+10	1
4902554	22	C	09/10/2021	10:59	-136.392	49.487	0	537.80	0	4.0530	0	34.1070	0	27.074	0	532.523	0	-1e10	8	-1e10	8	-1E+10	1	-1E+10	1	-1E+10	1	-1E+10	1	-1E+10	1	-1E+10	1
4902554	22	C	09/10/2021	10:59	-136.392	49.487	0	542.80	0	4.0460	0	34.1110	0	27.078	0	537.467	0	-1e10	8	-1e10	8	-1E+10	1	-1E+10	1	-1E+10	1	-1E+10	1	-1E+10	1	-1E+10	1
4902554	22	C	09/10/2021	10:59	-136.392	49.487	0	547.80	0	4.0420	0	34.1120	0	27.080	0	542.411	0	-1e10	8	-1e10	8	-1E+10	1	-1E+10	1	-1E+10	1	-1E+10	1	-1E+10	1	-1E+10	1
4902554	22	C	09/10/2021	10:59	-136.392	49.487	0	552.80	0	4.0320	0	34.1160	0	27.084	0	547.356	0	-1e10	8	-1e10	8	-1E+10	1	-1E+10	1	-1E+10	1	-1E+10	1	-1E+10	1	-1E+10	1
4902554	22	C	09/10/2021	10:59	-136.392	49.487	0	557.90	0	4.0230	0	34.1200	0	27.088	0	552.399	0	-1e10	8	-1e10	8	-1E+10	1	-1E+10	1	-1E+10	1	-1E+10	1	-1E+10	1	-1E+10	1
4902554	22	C	09/10/2021	10:59	-136.392	49.487	0	562.60	0	4.0170	0	34.1220	0	27.090	0	557.046	0	-1e10	8	-1e10	8	-1E+10	1	-1E+10	1	-1E+10	1	-1E+10	1	-1E+10	1	-1E+10	1
4902554	22	C	09/10/2021	10:59	-136.392	49.487	0	567.90	0	4.0030	0	34.1270	0	27.096	0	562.287	0	-1e10	8	-1e10	8	-1E+10	1	-1E+10	1	-1E+10	1	-1E+10	1	-1E+10	1	-1E+10	1
4902554	22	C	09/10/2021	10:59	-136.392	49.487	0	573.20	0	3.9940	0	34.1310	0	27.100	0	567.527	0	-1e10	8	-1e10	8	-1E+10	1	-1E+10	1	-1E+10	1	-1E+10	1	-1E+10	1	-1E+10	1
4902554	22	C	09/10/2021	10:59	-136.392	49.487	0	578.10	0	3.9880	0	34.1330	0	27.102	0	572.372	0	-1e10	8	-1e10	8	-1E+10	1	-1E+10	1	-1E+10	1	-1E+10	1	-1E+10	1	-1E+10	1
4902554	22	C	09/10/2021	10:59	-136.392	49.487	0	582.90	0	3.9830	0	34.1360	0	27.105	0	577.117	0	-1e10	8	-1e10	8	-1E+10	1	-1E+10	1	-1E+10	1	-1E+10	1	-1E+10	1	-1E+10	1
4902554	22	C	09/10/2021	10:59	-136.392	49.487	0	587.90	0	3.9730	0	34.1400	0	27.109	0	582.061	0	-1e10	8	-1e10	8	-1E+10	1	-1E+10	1	-1E+10	1	-1E+10	1	-1E+10	1	-1E+10	1
4902554	22	C	09/10/2021	10:59	-136.392	49.487	0	592.90	0	3.9570	0	34.1450	0	27.115	0	587.004	0	-1e10	8	-1e10	8	-1E+10	1	-1E+10	1	-1E+10	1	-1E+10	1	-1E+10	1	-1E+10	1
4902554	22	C	09/10/2021	10:59	-136.392	49.487	0	597.90	0	3.9460	0	34.1500	0	27.120	0	591.947	0	-1e10	8	-1e10	8	-1E+10	1	-1E+10	1	-1E+10	1	-1E+10	1	-1E+10	1	-1E+10	1
4902554	22	C	09/10/2021	10:59	-136.392	49.487	0	603.00	0	3.9380	0	34.1530	0	27.123	0	596.989	0	-1e10	8	-1e10	8	-1E+10	1	-1E+10	1	-1E+10	1	-1E+10	1	-1E+10	1	-1E+10	1
4902554	22	C	09/10/2021	10:59	-136.392	49.487	0	608.10	0	3.9290	0	34.1560	0	27.127	0	602.031	0	-1e10	8	-1e10	8	-1E+10	1	-1E+10	1	-1E+10	1	-1E+10	1	-1E+10	1	-1E+10	1
4902554	22	C	09/10/2021	10:59	-136.392	49.487	0	613.30	0	3.9180	0	34.1600	0	27.131	0	607.172	0	-1e10	8	-1e10	8	-1E+10	1	-1E+10	1	-1E+10	1	-1E+10	1	-1E+10	1	-1E+10	1
4902554	22	C	09/10/2021	10:59	-136.392	49.487	0	618.00	0	3.9060	0	34.1640	0	27.135	0	611.818	0	-1e10	8	-1e10	8	-1E+10	1	-1E+10	1	-1E+10	1	-1E+10	1	-1E+10	1	-1E+10	1
4902554	22	C	09/10/2021	10:59	-136.392	49.487	0	622.70	0	3.8930	0	34.1680	0	27.140	0	616.464	0	-1e10	8	-1e10	8	-1E+10	1	-1E+10	1	-1E+10	1	-1E+10	1	-1E+10	1	-1E+10	1
4902554	22	C	09/10/2021	10:59	-136.392	49.487	0	628.00	0	3.8870	0	34.1710	0	27.143	0	621.703	0	-1e10	8	-1e10	8	-1E+10	1	-1E+10	1	-1E+10	1	-1E+10	1	-1E+10	1	-1E+10	1
4902554	22	C	09/10/2021	10:59	-136.392	49.487	0	633.20	0	3.8820	0	34.1730	0	27.145	0	626.843	0	-1e10	8	-1e10	8	-1E+10	1	-1E+10	1	-1E+10	1	-1E+10	1	-1E+10	1	-1E+10	1
4902554	22	C	09/10/2021	10:59	-136.392	49.487	0	638.00	0	3.8720	0	34.1760	0	27.148	0	631.587	0	-1e10	8	-1e10	8	-1E+10	1	-1E+10	1	-1E+10	1	-1E+10	1	-1E+10	1	-1E+10	1
4902554	22	C	09/10/2021	10:59	-136.392	49.487	0	642.70	0	3.8650	0	34.1790	0	27.152	0	636.233	0	-1e10	8	-1e10	8	-1E+10	1	-1E+10	1	-1E+10	1	-1E+10	1	-1E+10	1	-1E+10	1
4902554	22	C	09/10/2021	10:59	-136.392	49.487	0	647.80	0	3.8560	0	34.1810	0	27.154	0	641.274	0	-1e10	8	-1e10	8	-1E+10	1	-1E+10	1	-1E+10	1	-1E+10	1	-1E+10	1	-1E+10	1
4902554	22	C	09/10/2021	10:59	-136.392	49.487	0	653.00	0	3.8470	0	34.1840	0	27.157	0	646.413	0	-1e10	8	-1e10	8	-1E+10	1	-1E+10	1	-1E+10	1	-1E+10	1	-1E+10	1	-1E+10	1
4902554	22	C	09/10/2021	10:59	-136.392	49.487	0	658.20	0	3.8360	0	34.1880	0	27.162	0	651.553	0	-1e10	8	-1e10	8	-1E+10	1	-1E+10	1	-1E+10	1	-1E+10	1	-1E+10	1	-1E+10	1
4902554	22	C	09/10/2021	10:59	-136.392	49.487	0	663.30	0	3.8260	0	34.1910	0	27.165	0	656.593	0	-1e10	8	-1e10	8	-1E+10	1	-1E+10	1	-1E+10	1	-1E+10	1	-1E+10	1	-1E+10	1
4902554	22	C	09/10/2021	10:59	-136.392	49.487	0	667.90	0	3.8140	0	34.1950	0	27.170	0	661.139	0	-1e10	8	-1e10	8	-1E+10	1	-1E+10	1	-1E+10	1	-1E+10	1	-1E+10	1	-1E+10	1
4902554	22	C	09/10/2021	10:59	-136.392	49.487	0	672.50	0	3.7960	0	34.2000	0	27.175	0	665.685	0	-1e10	8	-1e10	8	-1E+10	1	-1E+10	1	-1E+10	1	-1E+10	1	-1E+10	1	-1E+10	1
4902554	22	C	09/10/2021	10:59	-136.392	49.487	0	677.50	0	3.7880	0	34.2020	0	27.178	0	670.627	0	-1e10	8	-1e10	8	-1E+10	1	-1E+10	1	-1E+10	1	-1E+10	1	-1E+10	1	-1E+10	1
4902554	22	C	09/10/2021	10:59	-136.392	49.487	0	682.60	0	3.7790	0	34.2040	0	27.180	0	675.667	0	-1e10	8	-1e10	8	-1E+10	1	-1E+10	1	-1E+10	1	-1E+10	1	-1E+10	1	-1E+10	1
4902554	22	C	09/10/2021	10:59	-136.392	49.487	0	687.80	0	3.7680	0	34.2060	0	27.183	0	680.805	0	-1e10	8	-1e10	8	-1E+10	1	-1E+10	1	-1E+10	1	-1E+10	1	-1E+10	1	-1E+10	1
4902554	22	C	09/10/2021	10:59	-136.392	49.487	0	693.00	0	3.7550	0	34.2100	0	27.188	0	685.944	0	-1e10	8	-1e10	8	-1E+10	1	-1E+10	1	-1E+10	1	-1E+10	1	-1E+10	1	-1E+10	1
4902554	22	C	09/10/2021	10:59	-136.392	49.487	0	698.20	0	3.7390	0	34.2140	0	27.192	0	691.082	0	-1e10	8	-1e10	8	-1E+10	1	-1E+10	1	-1E+10	1	-1E+10	1	-1E+10	1	-1E+10	1
4902554	22	C	09/10/2021	10:59	-136.392	49.487	0	702.90	0	3.7260	0	34.2180	0	27.197	0	695.727	0	-1e10	8	-1e10	8	-1E+10	1	-1E+10	1	-1E+10	1	-1E+10	1	-1E+10	1	-1E+10	1
4902554	22	C	09/10/2021	10:59	-136.392	49.487	0	708.00	0	3.7100	0	34.2220	0	27.202	0	700.766	0	-1e10	8	-1e10	8	-1E+10	1	-1E+10	1	-1E+10	1	-1E+10	1	-1E+10	1	-1E+10	1
4902554	22	C	09/10/2021	10:59	-136.392	49.487	0	713.20	0	3.6910	0	34.2260	0	27.207	0	705.904	0	-1e10	8	-1e10	8	-1E+10	1	-1E+10	1	-1E+10	1	-1E+10	1	-1E+10	1	-1E+10	1
4902554	22	C	09/10/2021	10:59	-136.392	49.487	0	718.10	0	3.6830	0	34.2280	0	27.209	0	710.746	0	-1e10	8	-1e10	8	-1E+10	1	-1E+10	1	-1E+10	1	-1E+10	1	-1E+10	1	-1E+10	1
4902554	22	C	09/10/2021	10:59	-136.392	49.487	0	723.00	0	3.6650	0	34.2320	0	27.214	0	715.587	0	-1e10	8	-1e10	8	-1E+10	1	-1E+10	1	-1E+10	1	-1E+10	1	-1E+10	1	-1E+10	1
4902554	22	C	09/10/2021	10:59	-136.392	49.487	0	727.90	0	3.6500	0	34.2350	0	27.218	0	720.428	0	-1e10	8	-1e10	8	-1E+10	1	-1E+10	1	-1E+10	1	-1E+10	1	-1E+10	1	-1E+10	1
4902554	22	C	09/10/2021	10:59	-136.392	49.487	0	732.90	0	3.6350	0	34.2380	0	27.222	0	725.368	0	-1e10	8	-1e10	8	-1E+10	1	-1E+10	1	-1E+10	1	-1E+10	1	-1E+10	1	-1E+10	1
4902554	22	C	09/10/2021	10:59	-136.392	49.487	0	738.00	0	3.6240	0	34.2400	0	27.225	0	730.407	0	-1e10	8	-1e10	8	-1E+10	1	-1E+10	1	-1E+10	1	-1E+10	1	-1E+10	1	-1E+10	1
4902554	22	C	09/10/2021	10:59	-136.392	49.487	0	743.10	0	3.6070	0	34.2440	0	27.229	0	735.446	0	-1e10	8	-1e10	8	-1E+10	1	-1E+10	1	-1E+10	1	-1E+10	1	-1E+10	1	-1E+10	1
4902554	22	C	09/10/2021	10:59	-136.392	49.487	0	748.30	0	3.5980	0	34.2460	0	27.232	0	740.583	0	-1e10	8	-1e10	8	-1E+10	1	-1E+10	1	-1E+10	1	-1E+10	1	-1E+10	1	-1E+10	1
4902554	22	C	09/10/2021	10:59	-136.392	49.487	0	753.00	0	3.5860	0	34.2490	0	27.236	0	745.226	0	-1e10	8	-1e10	8	-1E+10	1	-1E+10	1	-1E+10	1	-1E+10	1	-1E+10	1	-1E+10	1
4902554	22	C	09/10/2021	10:59	-136.392	49.487	0	757.80	0	3.5770	0	34.2510	0	27.238	0	749.968	0	-1e10	8	-1e10	8	-1E+10	1	-1E+10	1	-1E+10	1	-1E+10	1	-1E+10	1	-1E+10	1
4902554	22	C	09/10/2021	10:59	-136.392	49.487	0	763.20	0	3.5630	0	34.2540	0	27.242	0	755.302	0	-1e10	8	-1e10	8	-1E+10	1	-1E+10	1	-1E+10	1	-1E+10	1	-1E+10	1	-1E+10	1
4902554	22	C	09/10/2021	10:59	-136.392	49.487	0	768.10	0	3.5530	0	34.2560	0	27.244	0	760.142	0	-1e10	8	-1e10	8	-1E+10	1	-1E+10	1	-1E+10	1	-1E+10	1	-1E+10	1	-1E+10	1
4902554	22	C	09/10/2021	10:59	-136.392	49.487	0	772.70	0	3.5330	0	34.2600	0	27.250	0	764.686	0	-1e10	8	-1e10	8	-1E+10	1	-1E+10	1	-1E+10	1	-1E+10	1	-1E+10	1	-1E+10	1
4902554	22	C	09/10/2021	10:59	-136.392	49.487	0	777.90	0	3.5150	0	34.2650	0	27.255	0	769.823	0	-1e10	8	-1e10	8	-1E+10	1	-1E+10	1	-1E+10	1	-1E+10	1	-1E+10	1	-1E+10	1
4902554	22	C	09/10/2021	10:59	-136.392	49.487	0	783.10	0	3.5030	0	34.2670	0	27.258	0	774.959	0	-1e10	8	-1e10	8	-1E+10	1	-1E+10	1	-1E+10	1	-1E+10	1	-1E+10	1	-1E+10	1
4902554	22	C	09/10/2021	10:59	-136.392	49.487	0	787.90	0	3.4930	0	34.2680	0	27.260	0	779.700	0	-1e10	8	-1e10	8	-1E+10	1	-1E+10	1	-1E+10	1	-1E+10	1	-1E+10	1	-1E+10	1
4902554	22	C	09/10/2021	10:59	-136.392	49.487	0	792.70	0	3.4850	0	34.2700	0	27.262	0	784.441	0	-1e10	8	-1e10	8	-1E+10	1	-1E+10	1	-1E+10	1	-1E+10	1	-1E+10	1	-1E+10	1
4902554	22	C	09/10/2021	10:59	-136.392	49.487	0	797.70	0	3.4740	0	34.2730	0	27.266	0	789.380	0	-1e10	8	-1e10	8	-1E+10	1	-1E+10	1	-1E+10	1	-1E+10	1	-1E+10	1	-1E+10	1
4902554	22	C	09/10/2021	10:59	-136.392	49.487	0	802.70	0	3.4560	0	34.2770	0	27.271	0	794.318	0	-1e10	8	-1e10	8	-1E+10	1	-1E+10	1	-1E+10	1	-1E+10	1	-1E+10	1	-1E+10	1
4902554	22	C	09/10/2021	10:59	-136.392	49.487	0	807.70	0	3.4450	0	34.2790	0	27.273	0	799.257	0	-1e10	8	-1e10	8	-1E+10	1	-1E+10	1	-1E+10	1	-1E+10	1	-1E+10	1	-1E+10	1
4902554	22	C	09/10/2021	10:59	-136.392	49.487	0	812.90	0	3.4360	0	34.2810	0	27.276	0	804.392	0	-1e10	8	-1e10	8	-1E+10	1	-1E+10	1	-1E+10	1	-1E+10	1	-1E+10	1	-1E+10	1
4902554	22	C	09/10/2021	10:59	-136.392	49.487	0	818.20	0	3.4290	0	34.2830	0	27.278	0	809.626	0	-1e10	8	-1e10	8	-1E+10	1	-1E+10	1	-1E+10	1	-1E+10	1	-1E+10	1	-1E+10	1
4902554	22	C	09/10/2021	10:59	-136.392	49.487	0	823.00	0	3.4220	0	34.2850	0	27.280	0	814.367	0	-1e10	8	-1e10	8	-1E+10	1	-1E+10	1	-1E+10	1	-1E+10	1	-1E+10	1	-1E+10	1
4902554	22	C	09/10/2021	10:59	-136.392	49.487	0	827.80	0	3.4150	0	34.2860	0	27.282	0	819.107	0	-1e10	8	-1e10	8	-1E+10	1	-1E+10	1	-1E+10	1	-1E+10	1	-1E+10	1	-1E+10	1
4902554	22	C	09/10/2021	10:59	-136.392	49.487	0	833.00	0	3.4090	0	34.2880	0	27.284	0	824.242	0	-1e10	8	-1e10	8	-1E+10	1	-1E+10	1	-1E+10	1	-1E+10	1	-1E+10	1	-1E+10	1
4902554	22	C	09/10/2021	10:59	-136.392	49.487	0	838.20	0	3.4000	0	34.2900	0	27.287	0	829.377	0	-1e10	8	-1e10	8	-1E+10	1	-1E+10	1	-1E+10	1	-1E+10	1	-1E+10	1	-1E+10	1
4902554	22	C	09/10/2021	10:59	-136.392	49.487	0	843.20	0	3.3900	0	34.2930	0	27.290	0	834.315	0	-1e10	8	-1e10	8	-1E+10	1	-1E+10	1	-1E+10	1	-1E+10	1	-1E+10	1	-1E+10	1
4902554	22	C	09/10/2021	10:59	-136.392	49.487	0	848.10	0	3.3740	0	34.2950	0	27.293	0	839.153	0	-1e10	8	-1e10	8	-1E+10	1	-1E+10	1	-1E+10	1	-1E+10	1	-1E+10	1	-1E+10	1
4902554	22	C	09/10/2021	10:59	-136.392	49.487	0	853.10	0	3.3580	0	34.3000	0	27.299	0	844.090	0	-1e10	8	-1e10	8	-1E+10	1	-1E+10	1	-1E+10	1	-1E+10	1	-1E+10	1	-1E+10	1
4902554	22	C	09/10/2021	10:59	-136.392	49.487	0	858.00	0	3.3530	0	34.3030	0	27.302	0	848.929	0	-1e10	8	-1e10	8	-1E+10	1	-1E+10	1	-1E+10	1	-1E+10	1	-1E+10	1	-1E+10	1
4902554	22	C	09/10/2021	10:59	-136.392	49.487	0	863.00	0	3.3360	0	34.3040	0	27.304	0	853.865	0	-1e10	8	-1e10	8	-1E+10	1	-1E+10	1	-1E+10	1	-1E+10	1	-1E+10	1	-1E+10	1
4902554	22	C	09/10/2021	10:59	-136.392	49.487	0	868.00	0	3.3240	0	34.3060	0	27.307	0	858.802	0	-1e10	8	-1e10	8	-1E+10	1	-1E+10	1	-1E+10	1	-1E+10	1	-1E+10	1	-1E+10	1
4902554	22	C	09/10/2021	10:59	-136.392	49.487	0	873.00	0	3.3100	0	34.3080	0	27.310	0	863.739	0	-1e10	8	-1e10	8	-1E+10	1	-1E+10	1	-1E+10	1	-1E+10	1	-1E+10	1	-1E+10	1
4902554	22	C	09/10/2021	10:59	-136.392	49.487	0	878.10	0	3.2960	0	34.3110	0	27.313	0	868.774	0	-1e10	8	-1e10	8	-1E+10	1	-1E+10	1	-1E+10	1	-1E+10	1	-1E+10	1	-1E+10	1
4902554	22	C	09/10/2021	10:59	-136.392	49.487	0	883.10	0	3.2830	0	34.3140	0	27.317	0	873.711	0	-1e10	8	-1e10	8	-1E+10	1	-1E+10	1	-1E+10	1	-1E+10	1	-1E+10	1	-1E+10	1
4902554	22	C	09/10/2021	10:59	-136.392	49.487	0	888.20	0	3.2710	0	34.3150	0	27.319	0	878.746	0	-1e10	8	-1e10	8	-1E+10	1	-1E+10	1	-1E+10	1	-1E+10	1	-1E+10	1	-1E+10	1
4902554	22	C	09/10/2021	10:59	-136.392	49.487	0	892.90	0	3.2650	0	34.3170	0	27.321	0	883.386	0	-1e10	8	-1e10	8	-1E+10	1	-1E+10	1	-1E+10	1	-1E+10	1	-1E+10	1	-1E+10	1
4902554	22	C	09/10/2021	10:59	-136.392	49.487	0	897.60	0	3.2580	0	34.3200	0	27.324	0	888.026	0	-1e10	8	-1e10	8	-1E+10	1	-1E+10	1	-1E+10	1	-1E+10	1	-1E+10	1	-1E+10	1
4902554	22	C	09/10/2021	10:59	-136.392	49.487	0	902.70	0	3.2400	0	34.3220	0	27.328	0	893.061	0	-1e10	8	-1e10	8	-1E+10	1	-1E+10	1	-1E+10	1	-1E+10	1	-1E+10	1	-1E+10	1
4902554	22	C	09/10/2021	10:59	-136.392	49.487	0	907.80	0	3.2260	0	34.3240	0	27.330	0	898.095	0	-1e10	8	-1e10	8	-1E+10	1	-1E+10	1	-1E+10	1	-1E+10	1	-1E+10	1	-1E+10	1
4902554	22	C	09/10/2021	10:59	-136.392	49.487	0	912.80	0	3.2160	0	34.3260	0	27.333	0	903.031	0	-1e10	8	-1e10	8	-1E+10	1	-1E+10	1	-1E+10	1	-1E+10	1	-1E+10	1	-1E+10	1
4902554	22	C	09/10/2021	10:59	-136.392	49.487	0	918.00	0	3.2060	0	34.3280	0	27.336	0	908.164	0	-1e10	8	-1e10	8	-1E+10	1	-1E+10	1	-1E+10	1	-1E+10	1	-1E+10	1	-1E+10	1
4902554	22	C	09/10/2021	10:59	-136.392	49.487	0	923.00	0	3.1940	0	34.3310	0	27.339	0	913.100	0	-1e10	8	-1e10	8	-1E+10	1	-1E+10	1	-1E+10	1	-1E+10	1	-1E+10	1	-1E+10	1
4902554	22	C	09/10/2021	10:59	-136.392	49.487	0	928.10	0	3.1860	0	34.3320	0	27.341	0	918.134	0	-1e10	8	-1e10	8	-1E+10	1	-1E+10	1	-1E+10	1	-1E+10	1	-1E+10	1	-1E+10	1
4902554	22	C	09/10/2021	10:59	-136.392	49.487	0	933.10	0	3.1770	0	34.3340	0	27.343	0	923.069	0	-1e10	8	-1e10	8	-1E+10	1	-1E+10	1	-1E+10	1	-1E+10	1	-1E+10	1	-1E+10	1
4902554	22	C	09/10/2021	10:59	-136.392	49.487	0	938.20	0	3.1640	0	34.3370	0	27.347	0	928.103	0	-1e10	8	-1e10	8	-1E+10	1	-1E+10	1	-1E+10	1	-1E+10	1	-1E+10	1	-1E+10	1
4902554	22	C	09/10/2021	10:59	-136.392	49.487	0	943.30	0	3.1560	0	34.3400	0	27.350	0	933.137	0	-1e10	8	-1e10	8	-1E+10	1	-1E+10	1	-1E+10	1	-1E+10	1	-1E+10	1	-1E+10	1
4902554	22	C	09/10/2021	10:59	-136.392	49.487	0	947.90	0	3.1530	0	34.3420	0	27.352	0	937.677	0	-1e10	8	-1e10	8	-1E+10	1	-1E+10	1	-1E+10	1	-1E+10	1	-1E+10	1	-1E+10	1
4902554	22	C	09/10/2021	10:59	-136.392	49.487	0	952.60	0	3.1510	0	34.3430	0	27.353	0	942.315	0	-1e10	8	-1e10	8	-1E+10	1	-1E+10	1	-1E+10	1	-1E+10	1	-1E+10	1	-1E+10	1
4902554	22	C	09/10/2021	10:59	-136.392	49.487	0	957.80	0	3.1450	0	34.3450	0	27.355	0	947.448	0	-1e10	8	-1e10	8	-1E+10	1	-1E+10	1	-1E+10	1	-1E+10	1	-1E+10	1	-1E+10	1
4902554	22	C	09/10/2021	10:59	-136.392	49.487	0	963.00	0	3.1370	0	34.3470	0	27.357	0	952.579	0	-1e10	8	-1e10	8	-1E+10	1	-1E+10	1	-1E+10	1	-1E+10	1	-1E+10	1	-1E+10	1
4902554	22	C	09/10/2021	10:59	-136.392	49.487	0	967.80	0	3.1260	0	34.3490	0	27.360	0	957.317	0	-1e10	8	-1e10	8	-1E+10	1	-1E+10	1	-1E+10	1	-1E+10	1	-1E+10	1	-1E+10	1
4902554	22	C	09/10/2021	10:59	-136.392	49.487	0	972.70	0	3.1160	0	34.3500	0	27.362	0	962.152	0	-1e10	8	-1e10	8	-1E+10	1	-1E+10	1	-1E+10	1	-1E+10	1	-1E+10	1	-1E+10	1
4902554	22	C	09/10/2021	10:59	-136.392	49.487	0	978.10	0	3.1080	0	34.3520	0	27.364	0	967.481	0	-1e10	8	-1e10	8	-1E+10	1	-1E+10	1	-1E+10	1	-1E+10	1	-1E+10	1	-1E+10	1
4902554	22	C	09/10/2021	10:59	-136.392	49.487	0	983.00	0	3.0960	0	34.3540	0	27.367	0	972.317	0	-1e10	8	-1e10	8	-1E+10	1	-1E+10	1	-1E+10	1	-1E+10	1	-1E+10	1	-1E+10	1
4902554	22	C	09/10/2021	10:59	-136.392	49.487	0	988.00	0	3.0870	0	34.3560	0	27.369	0	977.251	0	-1e10	8	-1e10	8	-1E+10	1	-1E+10	1	-1E+10	1	-1E+10	1	-1E+10	1	-1E+10	1
4902554	22	C	09/10/2021	10:59	-136.392	49.487	0	993.00	0	3.0740	0	34.3580	0	27.372	0	982.185	0	-1e10	8	-1e10	8	-1E+10	1	-1E+10	1	-1E+10	1	-1E+10	1	-1E+10	1	-1E+10	1
4902554	22	C	09/10/2021	10:59	-136.392	49.487	0	998.00	0	3.0660	0	34.3590	0	27.374	0	987.118	0	-1e10	8	-1e10	8	-1E+10	1	-1E+10	1	-1E+10	1	-1E+10	1	-1E+10	1	-1E+10	1
4902554	22	C	09/10/2021	10:59	-136.392	49.487	0	1005.30	0	3.0530	0	34.3620	0	27.377	0	994.321	0	-1e10	8	-1e10	8	-1E+10	1	-1E+10	1	-1E+10	1	-1E+10	1	-1E+10	1	-1E+10	1
4902554	22	C	09/10/2021	10:59	-136.392	49.487	0	1015.10	0	3.0400	0	34.3640	0	27.380	0	1003.991	0	-1e10	8	-1e10	8	-1E+10	1	-1E+10	1	-1E+10	1	-1E+10	1	-1E+10	1	-1E+10	1
4902554	22	C	09/10/2021	10:59	-136.392	49.487	0	1025.30	0	3.0140	0	34.3690	0	27.386	0	1014.055	0	-1e10	8	-1e10	8	-1E+10	1	-1E+10	1	-1E+10	1	-1E+10	1	-1E+10	1	-1E+10	1
4902554	22	C	09/10/2021	10:59	-136.392	49.487	0	1035.50	0	2.9890	0	34.3740	0	27.393	0	1024.118	0	-1e10	8	-1e10	8	-1E+10	1	-1E+10	1	-1E+10	1	-1E+10	1	-1E+10	1	-1E+10	1
4902554	22	C	09/10/2021	10:59	-136.392	49.487	0	1045.70	0	2.9720	0	34.3770	0	27.397	0	1034.181	0	-1e10	8	-1e10	8	-1E+10	1	-1E+10	1	-1E+10	1	-1E+10	1	-1E+10	1	-1E+10	1
4902554	22	C	09/10/2021	10:59	-136.392	49.487	0	1055.50	0	2.9520	0	34.3810	0	27.402	0	1043.848	0	-1e10	8	-1e10	8	-1E+10	1	-1E+10	1	-1E+10	1	-1E+10	1	-1E+10	1	-1E+10	1
4902554	22	C	09/10/2021	10:59	-136.392	49.487	0	1065.30	0	2.9310	0	34.3850	0	27.407	0	1053.516	0	-1e10	8	-1e10	8	-1E+10	1	-1E+10	1	-1E+10	1	-1E+10	1	-1E+10	1	-1E+10	1
4902554	22	C	09/10/2021	10:59	-136.392	49.487	0	1075.30	0	2.9140	0	34.3890	0	27.412	0	1063.380	0	-1e10	8	-1e10	8	-1E+10	1	-1E+10	1	-1E+10	1	-1E+10	1	-1E+10	1	-1E+10	1
4902554	22	C	09/10/2021	10:59	-136.392	49.487	0	1085.10	0	2.8920	0	34.3930	0	27.417	0	1073.046	0	-1e10	8	-1e10	8	-1E+10	1	-1E+10	1	-1E+10	1	-1E+10	1	-1E+10	1	-1E+10	1
4902554	22	C	09/10/2021	10:59	-136.392	49.487	0	1095.20	0	2.8810	0	34.3950	0	27.420	0	1083.008	0	-1e10	8	-1e10	8	-1E+10	1	-1E+10	1	-1E+10	1	-1E+10	1	-1E+10	1	-1E+10	1
4902554	22	C	09/10/2021	10:59	-136.392	49.487	0	1105.50	0	2.8640	0	34.3980	0	27.423	0	1093.166	0	-1e10	8	-1e10	8	-1E+10	1	-1E+10	1	-1E+10	1	-1E+10	1	-1E+10	1	-1E+10	1
4902554	22	C	09/10/2021	10:59	-136.392	49.487	0	1115.20	0	2.8490	0	34.4010	0	27.427	0	1102.732	0	-1e10	8	-1e10	8	-1E+10	1	-1E+10	1	-1E+10	1	-1E+10	1	-1E+10	1	-1E+10	1
4902554	22	C	09/10/2021	10:59	-136.392	49.487	0	1125.00	0	2.8330	0	34.4050	0	27.432	0	1112.397	0	-1e10	8	-1e10	8	-1E+10	1	-1E+10	1	-1E+10	1	-1E+10	1	-1E+10	1	-1E+10	1
4902554	22	C	09/10/2021	10:59	-136.392	49.487	0	1135.10	0	2.8200	0	34.4080	0	27.436	0	1122.357	0	-1e10	8	-1e10	8	-1E+10	1	-1E+10	1	-1E+10	1	-1E+10	1	-1E+10	1	-1E+10	1
4902554	22	C	09/10/2021	10:59	-136.392	49.487	0	1145.40	0	2.8130	0	34.4090	0	27.437	0	1132.514	0	-1e10	8	-1e10	8	-1E+10	1	-1E+10	1	-1E+10	1	-1E+10	1	-1E+10	1	-1E+10	1
4902554	22	C	09/10/2021	10:59	-136.392	49.487	0	1155.40	0	2.7990	0	34.4110	0	27.440	0	1142.374	0	-1e10	8	-1e10	8	-1E+10	1	-1E+10	1	-1E+10	1	-1E+10	1	-1E+10	1	-1E+10	1
4902554	22	C	09/10/2021	10:59	-136.392	49.487	0	1165.20	0	2.7870	0	34.4140	0	27.443	0	1152.036	0	-1e10	8	-1e10	8	-1E+10	1	-1E+10	1	-1E+10	1	-1E+10	1	-1E+10	1	-1E+10	1
4902554	22	C	09/10/2021	10:59	-136.392	49.487	0	1175.10	0	2.7730	0	34.4170	0	27.447	0	1161.797	0	-1e10	8	-1e10	8	-1E+10	1	-1E+10	1	-1E+10	1	-1E+10	1	-1E+10	1	-1E+10	1
4902554	22	C	09/10/2021	10:59	-136.392	49.487	0	1185.30	0	2.7580	0	34.4200	0	27.451	0	1171.853	0	-1e10	8	-1e10	8	-1E+10	1	-1E+10	1	-1E+10	1	-1E+10	1	-1E+10	1	-1E+10	1
4902554	22	C	09/10/2021	10:59	-136.392	49.487	0	1195.40	0	2.7440	0	34.4230	0	27.455	0	1181.810	0	-1e10	8	-1e10	8	-1E+10	1	-1E+10	1	-1E+10	1	-1E+10	1	-1E+10	1	-1E+10	1
4902554	22	C	09/10/2021	10:59	-136.392	49.487	0	1205.20	0	2.7300	0	34.4250	0	27.457	0	1191.471	0	-1e10	8	-1e10	8	-1E+10	1	-1E+10	1	-1E+10	1	-1E+10	1	-1E+10	1	-1E+10	1
4902554	22	C	09/10/2021	10:59	-136.392	49.487	0	1215.20	0	2.7180	0	34.4270	0	27.460	0	1201.329	0	-1e10	8	-1e10	8	-1E+10	1	-1E+10	1	-1E+10	1	-1E+10	1	-1E+10	1	-1E+10	1
4902554	22	C	09/10/2021	10:59	-136.392	49.487	0	1225.20	0	2.7060	0	34.4300	0	27.464	0	1211.186	0	-1e10	8	-1e10	8	-1E+10	1	-1E+10	1	-1E+10	1	-1E+10	1	-1E+10	1	-1E+10	1
4902554	22	C	09/10/2021	10:59	-136.392	49.487	0	1235.50	0	2.6950	0	34.4320	0	27.466	0	1221.338	0	-1e10	8	-1e10	8	-1E+10	1	-1E+10	1	-1E+10	1	-1E+10	1	-1E+10	1	-1E+10	1
4902554	22	C	09/10/2021	10:59	-136.392	49.487	0	1245.30	0	2.6820	0	34.4340	0	27.469	0	1230.997	0	-1e10	8	-1e10	8	-1E+10	1	-1E+10	1	-1E+10	1	-1E+10	1	-1E+10	1	-1E+10	1
4902554	22	C	09/10/2021	10:59	-136.392	49.487	0	1255.60	0	2.6660	0	34.4380	0	27.474	0	1241.149	0	-1e10	8	-1e10	8	-1E+10	1	-1E+10	1	-1E+10	1	-1E+10	1	-1E+10	1	-1E+10	1
4902554	22	C	09/10/2021	10:59	-136.392	49.487	0	1265.50	0	2.6520	0	34.4410	0	27.477	0	1250.905	0	-1e10	8	-1e10	8	-1E+10	1	-1E+10	1	-1E+10	1	-1E+10	1	-1E+10	1	-1E+10	1
4902554	22	C	09/10/2021	10:59	-136.392	49.487	0	1275.20	0	2.6450	0	34.4420	0	27.479	0	1260.464	0	-1e10	8	-1e10	8	-1E+10	1	-1E+10	1	-1E+10	1	-1E+10	1	-1E+10	1	-1E+10	1
4902554	22	C	09/10/2021	10:59	-136.392	49.487	0	1285.20	0	2.6330	0	34.4450	0	27.482	0	1270.319	0	-1e10	8	-1e10	8	-1E+10	1	-1E+10	1	-1E+10	1	-1E+10	1	-1E+10	1	-1E+10	1
4902554	22	C	09/10/2021	10:59	-136.392	49.487	0	1295.20	0	2.6200	0	34.4470	0	27.485	0	1280.172	0	-1e10	8	-1e10	8	-1E+10	1	-1E+10	1	-1E+10	1	-1E+10	1	-1E+10	1	-1E+10	1
4902554	22	C	09/10/2021	10:59	-136.392	49.487	0	1305.30	0	2.6040	0	34.4500	0	27.489	0	1290.124	0	-1e10	8	-1e10	8	-1E+10	1	-1E+10	1	-1E+10	1	-1E+10	1	-1E+10	1	-1E+10	1
4902554	22	C	09/10/2021	10:59	-136.392	49.487	0	1315.60	0	2.5900	0	34.4530	0	27.492	0	1300.273	0	-1e10	8	-1e10	8	-1E+10	1	-1E+10	1	-1E+10	1	-1E+10	1	-1E+10	1	-1E+10	1
4902554	22	C	09/10/2021	10:59	-136.392	49.487	0	1325.60	0	2.5690	0	34.4570	0	27.497	0	1310.125	0	-1e10	8	-1e10	8	-1E+10	1	-1E+10	1	-1E+10	1	-1E+10	1	-1E+10	1	-1E+10	1
4902554	22	C	09/10/2021	10:59	-136.392	49.487	0	1335.30	0	2.5580	0	34.4590	0	27.500	0	1319.682	0	-1e10	8	-1e10	8	-1E+10	1	-1E+10	1	-1E+10	1	-1E+10	1	-1E+10	1	-1E+10	1
4902554	22	C	09/10/2021	10:59	-136.392	49.487	0	1345.10	0	2.5470	0	34.4610	0	27.503	0	1329.336	0	-1e10	8	-1e10	8	-1E+10	1	-1E+10	1	-1E+10	1	-1E+10	1	-1E+10	1	-1E+10	1
4902554	22	C	09/10/2021	10:59	-136.392	49.487	0	1355.40	0	2.5400	0	34.4630	0	27.505	0	1339.483	0	-1e10	8	-1e10	8	-1E+10	1	-1E+10	1	-1E+10	1	-1E+10	1	-1E+10	1	-1E+10	1
4902554	22	C	09/10/2021	10:59	-136.392	49.487	0	1365.70	0	2.5280	0	34.4650	0	27.508	0	1349.629	0	-1e10	8	-1e10	8	-1E+10	1	-1E+10	1	-1E+10	1	-1E+10	1	-1E+10	1	-1E+10	1
4902554	22	C	09/10/2021	10:59	-136.392	49.487	0	1375.30	0	2.5180	0	34.4670	0	27.510	0	1359.085	0	-1e10	8	-1e10	8	-1E+10	1	-1E+10	1	-1E+10	1	-1E+10	1	-1E+10	1	-1E+10	1
4902554	22	C	09/10/2021	10:59	-136.392	49.487	0	1385.10	0	2.5040	0	34.4700	0	27.514	0	1368.738	0	-1e10	8	-1e10	8	-1E+10	1	-1E+10	1	-1E+10	1	-1E+10	1	-1E+10	1	-1E+10	1
4902554	22	C	09/10/2021	10:59	-136.392	49.487	0	1395.10	0	2.4920	0	34.4720	0	27.516	0	1378.587	0	-1e10	8	-1e10	8	-1E+10	1	-1E+10	1	-1E+10	1	-1E+10	1	-1E+10	1	-1E+10	1
4902554	22	C	09/10/2021	10:59	-136.392	49.487	0	1405.30	0	2.4840	0	34.4740	0	27.519	0	1388.633	0	-1e10	8	-1e10	8	-1E+10	1	-1E+10	1	-1E+10	1	-1E+10	1	-1E+10	1	-1E+10	1
4902554	22	C	09/10/2021	10:59	-136.392	49.487	0	1415.70	0	2.4700	0	34.4770	0	27.522	0	1398.875	0	-1e10	8	-1e10	8	-1E+10	1	-1E+10	1	-1E+10	1	-1E+10	1	-1E+10	1	-1E+10	1
4902554	22	C	09/10/2021	10:59	-136.392	49.487	0	1425.80	0	2.4600	0	34.4790	0	27.525	0	1408.821	0	-1e10	8	-1e10	8	-1E+10	1	-1E+10	1	-1E+10	1	-1E+10	1	-1E+10	1	-1E+10	1
4902554	22	C	09/10/2021	10:59	-136.392	49.487	0	1435.80	0	2.4540	0	34.4810	0	27.527	0	1418.668	0	-1e10	8	-1e10	8	-1E+10	1	-1E+10	1	-1E+10	1	-1E+10	1	-1E+10	1	-1E+10	1
4902554	22	C	09/10/2021	10:59	-136.392	49.487	0	1445.50	0	2.4460	0	34.4820	0	27.528	0	1428.220	0	-1e10	8	-1e10	8	-1E+10	1	-1E+10	1	-1E+10	1	-1E+10	1	-1E+10	1	-1E+10	1
4902554	22	C	09/10/2021	10:59	-136.392	49.487	0	1455.70	0	2.4360	0	34.4840	0	27.531	0	1438.263	0	-1e10	8	-1e10	8	-1E+10	1	-1E+10	1	-1E+10	1	-1E+10	1	-1E+10	1	-1E+10	1
4902554	22	C	09/10/2021	10:59	-136.392	49.487	0	1465.40	0	2.4250	0	34.4860	0	27.533	0	1447.814	0	-1e10	8	-1e10	8	-1E+10	1	-1E+10	1	-1E+10	1	-1E+10	1	-1E+10	1	-1E+10	1
4902554	22	C	09/10/2021	10:59	-136.392	49.487	0	1475.20	0	2.4140	0	34.4880	0	27.536	0	1457.462	0	-1e10	8	-1e10	8	-1E+10	1	-1E+10	1	-1E+10	1	-1E+10	1	-1E+10	1	-1E+10	1
4902554	22	C	09/10/2021	10:59	-136.392	49.487	0	1485.40	0	2.4040	0	34.4900	0	27.539	0	1467.504	0	-1e10	8	-1e10	8	-1E+10	1	-1E+10	1	-1E+10	1	-1E+10	1	-1E+10	1	-1E+10	1
4902554	22	C	09/10/2021	10:59	-136.392	49.487	0	1495.40	0	2.3960	0	34.4920	0	27.541	0	1477.349	0	-1e10	8	-1e10	8	-1E+10	1	-1E+10	1	-1E+10	1	-1E+10	1	-1E+10	1	-1E+10	1
4902554	22	C	09/10/2021	10:59	-136.392	49.487	0	1505.50	0	2.3830	0	34.4950	0	27.544	0	1487.291	0	-1e10	8	-1e10	8	-1E+10	1	-1E+10	1	-1E+10	1	-1E+10	1	-1E+10	1	-1E+10	1
4902554	22	C	09/10/2021	10:59	-136.392	49.487	0	1515.70	0	2.3740	0	34.4970	0	27.547	0	1497.332	0	-1e10	8	-1e10	8	-1E+10	1	-1E+10	1	-1E+10	1	-1E+10	1	-1E+10	1	-1E+10	1
4902554	22	C	09/10/2021	10:59	-136.392	49.487	0	1525.60	0	2.3600	0	34.5000	0	27.550	0	1507.077	0	-1e10	8	-1e10	8	-1E+10	1	-1E+10	1	-1E+10	1	-1E+10	1	-1E+10	1	-1E+10	1
4902554	22	C	09/10/2021	10:59	-136.392	49.487	0	1535.70	0	2.3520	0	34.5010	0	27.552	0	1517.018	0	-1e10	8	-1e10	8	-1E+10	1	-1E+10	1	-1E+10	1	-1E+10	1	-1E+10	1	-1E+10	1
4902554	22	C	09/10/2021	10:59	-136.392	49.487	0	1545.30	0	2.3450	0	34.5030	0	27.554	0	1526.467	0	-1e10	8	-1e10	8	-1E+10	1	-1E+10	1	-1E+10	1	-1E+10	1	-1E+10	1	-1E+10	1
4902554	22	C	09/10/2021	10:59	-136.392	49.487	0	1555.10	0	2.3380	0	34.5040	0	27.556	0	1536.112	0	-1e10	8	-1e10	8	-1E+10	1	-1E+10	1	-1E+10	1	-1E+10	1	-1E+10	1	-1E+10	1
4902554	22	C	09/10/2021	10:59	-136.392	49.487	0	1565.30	0	2.3300	0	34.5060	0	27.558	0	1546.150	0	-1e10	8	-1e10	8	-1E+10	1	-1E+10	1	-1E+10	1	-1E+10	1	-1E+10	1	-1E+10	1
4902554	22	C	09/10/2021	10:59	-136.392	49.487	0	1575.20	0	2.3190	0	34.5080	0	27.560	0	1555.892	0	-1e10	8	-1e10	8	-1E+10	1	-1E+10	1	-1E+10	1	-1E+10	1	-1E+10	1	-1E+10	1
4902554	22	C	09/10/2021	10:59	-136.392	49.487	0	1585.20	0	2.3090	0	34.5090	0	27.562	0	1565.733	0	-1e10	8	-1e10	8	-1E+10	1	-1E+10	1	-1E+10	1	-1E+10	1	-1E+10	1	-1E+10	1
4902554	22	C	09/10/2021	10:59	-136.392	49.487	0	1595.20	0	2.2960	0	34.5120	0	27.566	0	1575.573	0	-1e10	8	-1e10	8	-1E+10	1	-1E+10	1	-1E+10	1	-1E+10	1	-1E+10	1	-1E+10	1
4902554	22	C	09/10/2021	10:59	-136.392	49.487	0	1605.20	0	2.2860	0	34.5140	0	27.568	0	1585.412	0	-1e10	8	-1e10	8	-1E+10	1	-1E+10	1	-1E+10	1	-1E+10	1	-1E+10	1	-1E+10	1
4902554	22	C	09/10/2021	10:59	-136.392	49.487	0	1615.40	0	2.2730	0	34.5170	0	27.572	0	1595.448	0	-1e10	8	-1e10	8	-1E+10	1	-1E+10	1	-1E+10	1	-1E+10	1	-1E+10	1	-1E+10	1
4902554	22	C	09/10/2021	10:59	-136.392	49.487	0	1625.50	0	2.2580	0	34.5200	0	27.575	0	1605.385	0	-1e10	8	-1e10	8	-1E+10	1	-1E+10	1	-1E+10	1	-1E+10	1	-1E+10	1	-1E+10	1
4902554	22	C	09/10/2021	10:59	-136.392	49.487	0	1635.70	0	2.2450	0	34.5220	0	27.578	0	1615.420	0	-1e10	8	-1e10	8	-1E+10	1	-1E+10	1	-1E+10	1	-1E+10	1	-1E+10	1	-1E+10	1
4902554	22	C	09/10/2021	10:59	-136.392	49.487	0	1645.50	0	2.2340	0	34.5250	0	27.581	0	1625.061	0	-1e10	8	-1e10	8	-1E+10	1	-1E+10	1	-1E+10	1	-1E+10	1	-1E+10	1	-1E+10	1
4902554	22	C	09/10/2021	10:59	-136.392	49.487	0	1655.20	0	2.2260	0	34.5260	0	27.583	0	1634.603	0	-1e10	8	-1e10	8	-1E+10	1	-1E+10	1	-1E+10	1	-1E+10	1	-1E+10	1	-1E+10	1
4902554	22	C	09/10/2021	10:59	-136.392	49.487	0	1665.40	0	2.2160	0	34.5280	0	27.585	0	1644.637	0	-1e10	8	-1e10	8	-1E+10	1	-1E+10	1	-1E+10	1	-1E+10	1	-1E+10	1	-1E+10	1
4902554	22	C	09/10/2021	10:59	-136.392	49.487	0	1675.50	0	2.2050	0	34.5310	0	27.589	0	1654.571	0	-1e10	8	-1e10	8	-1E+10	1	-1E+10	1	-1E+10	1	-1E+10	1	-1E+10	1	-1E+10	1
4902554	22	C	09/10/2021	10:59	-136.392	49.487	0	1685.50	0	2.1960	0	34.5330	0	27.591	0	1664.407	0	-1e10	8	-1e10	8	-1E+10	1	-1E+10	1	-1E+10	1	-1E+10	1	-1E+10	1	-1E+10	1
4902554	22	C	09/10/2021	10:59	-136.392	49.487	0	1695.50	0	2.1860	0	34.5350	0	27.593	0	1674.242	0	-1e10	8	-1e10	8	-1E+10	1	-1E+10	1	-1E+10	1	-1E+10	1	-1E+10	1	-1E+10	1
4902554	22	C	09/10/2021	10:59	-136.392	49.487	0	1705.50	0	2.1780	0	34.5360	0	27.595	0	1684.077	0	-1e10	8	-1e10	8	-1E+10	1	-1E+10	1	-1E+10	1	-1E+10	1	-1E+10	1	-1E+10	1
4902554	22	C	09/10/2021	10:59	-136.392	49.487	0	1715.50	0	2.1690	0	34.5380	0	27.597	0	1693.912	0	-1e10	8	-1e10	8	-1E+10	1	-1E+10	1	-1E+10	1	-1E+10	1	-1E+10	1	-1E+10	1
4902554	22	C	09/10/2021	10:59	-136.392	49.487	0	1725.10	0	2.1580	0	34.5400	0	27.600	0	1703.353	0	-1e10	8	-1e10	8	-1E+10	1	-1E+10	1	-1E+10	1	-1E+10	1	-1E+10	1	-1E+10	1
4902554	22	C	09/10/2021	10:59	-136.392	49.487	0	1735.40	0	2.1460	0	34.5420	0	27.602	0	1713.481	0	-1e10	8	-1e10	8	-1E+10	1	-1E+10	1	-1E+10	1	-1E+10	1	-1E+10	1	-1E+10	1
4902554	22	C	09/10/2021	10:59	-136.392	49.487	0	1745.40	0	2.1370	0	34.5440	0	27.605	0	1723.314	0	-1e10	8	-1e10	8	-1E+10	1	-1E+10	1	-1E+10	1	-1E+10	1	-1E+10	1	-1E+10	1
4902554	22	C	09/10/2021	10:59	-136.392	49.487	0	1755.30	0	2.1270	0	34.5460	0	27.607	0	1733.049	0	-1e10	8	-1e10	8	-1E+10	1	-1E+10	1	-1E+10	1	-1E+10	1	-1E+10	1	-1E+10	1
4902554	22	C	09/10/2021	10:59	-136.392	49.487	0	1765.30	0	2.1180	0	34.5480	0	27.610	0	1742.881	0	-1e10	8	-1e10	8	-1E+10	1	-1E+10	1	-1E+10	1	-1E+10	1	-1E+10	1	-1E+10	1
4902554	22	C	09/10/2021	10:59	-136.392	49.487	0	1775.60	0	2.1080	0	34.5500	0	27.612	0	1753.007	0	-1e10	8	-1e10	8	-1E+10	1	-1E+10	1	-1E+10	1	-1E+10	1	-1E+10	1	-1E+10	1
4902554	22	C	09/10/2021	10:59	-136.392	49.487	0	1785.40	0	2.1000	0	34.5520	0	27.614	0	1762.642	0	-1e10	8	-1e10	8	-1E+10	1	-1E+10	1	-1E+10	1	-1E+10	1	-1E+10	1	-1E+10	1
4902554	22	C	09/10/2021	10:59	-136.392	49.487	0	1795.40	0	2.0890	0	34.5540	0	27.617	0	1772.473	0	-1e10	8	-1e10	8	-1E+10	1	-1E+10	1	-1E+10	1	-1E+10	1	-1E+10	1	-1E+10	1
4902554	22	C	09/10/2021	10:59	-136.392	49.487	0	1805.70	0	2.0810	0	34.5550	0	27.618	0	1782.598	0	-1e10	8	-1e10	8	-1E+10	1	-1E+10	1	-1E+10	1	-1E+10	1	-1E+10	1	-1E+10	1
4902554	22	C	09/10/2021	10:59	-136.392	49.487	0	1815.30	0	2.0710	0	34.5570	0	27.621	0	1792.035	0	-1e10	8	-1e10	8	-1E+10	1	-1E+10	1	-1E+10	1	-1E+10	1	-1E+10	1	-1E+10	1
4902554	22	C	09/10/2021	10:59	-136.392	49.487	0	1825.20	0	2.0600	0	34.5590	0	27.623	0	1801.766	0	-1e10	8	-1e10	8	-1E+10	1	-1E+10	1	-1E+10	1	-1E+10	1	-1E+10	1	-1E+10	1
4902554	22	C	09/10/2021	10:59	-136.392	49.487	0	1835.30	0	2.0530	0	34.5610	0	27.626	0	1811.694	0	-1e10	8	-1e10	8	-1E+10	1	-1E+10	1	-1E+10	1	-1E+10	1	-1E+10	1	-1E+10	1
4902554	22	C	09/10/2021	10:59	-136.392	49.487	0	1845.40	0	2.0470	0	34.5620	0	27.627	0	1821.620	0	-1e10	8	-1e10	8	-1E+10	1	-1E+10	1	-1E+10	1	-1E+10	1	-1E+10	1	-1E+10	1
4902554	22	C	09/10/2021	10:59	-136.392	49.487	0	1855.30	0	2.0420	0	34.5630	0	27.628	0	1831.350	0	-1e10	8	-1e10	8	-1E+10	1	-1E+10	1	-1E+10	1	-1E+10	1	-1E+10	1	-1E+10	1
4902554	22	C	09/10/2021	10:59	-136.392	49.487	0	1865.40	0	2.0350	0	34.5650	0	27.630	0	1841.276	0	-1e10	8	-1e10	8	-1E+10	1	-1E+10	1	-1E+10	1	-1E+10	1	-1E+10	1	-1E+10	1
4902554	22	C	09/10/2021	10:59	-136.392	49.487	0	1875.60	0	2.0290	0	34.5660	0	27.632	0	1851.300	0	-1e10	8	-1e10	8	-1E+10	1	-1E+10	1	-1E+10	1	-1E+10	1	-1E+10	1	-1E+10	1
4902554	22	C	09/10/2021	10:59	-136.392	49.487	0	1885.80	0	2.0200	0	34.5680	0	27.634	0	1861.323	0	-1e10	8	-1e10	8	-1E+10	1	-1E+10	1	-1E+10	1	-1E+10	1	-1E+10	1	-1E+10	1
4902554	22	C	09/10/2021	10:59	-136.392	49.487	0	1895.30	0	2.0150	0	34.5690	0	27.635	0	1870.658	0	-1e10	8	-1e10	8	-1E+10	1	-1E+10	1	-1E+10	1	-1E+10	1	-1E+10	1	-1E+10	1
4902554	22	C	09/10/2021	10:59	-136.392	49.487	0	1905.10	0	2.0110	0	34.5700	0	27.636	0	1880.287	0	-1e10	8	-1e10	8	-1E+10	1	-1E+10	1	-1E+10	1	-1E+10	1	-1E+10	1	-1E+10	1
4902554	22	C	09/10/2021	10:59	-136.392	49.487	0	1915.20	0	2.0040	0	34.5710	0	27.638	0	1890.211	0	-1e10	8	-1e10	8	-1E+10	1	-1E+10	1	-1E+10	1	-1E+10	1	-1E+10	1	-1E+10	1
4902554	22	C	09/10/2021	10:59	-136.392	49.487	0	1925.00	0	2.0010	0	34.5720	0	27.639	0	1899.839	0	-1e10	8	-1e10	8	-1E+10	1	-1E+10	1	-1E+10	1	-1E+10	1	-1E+10	1	-1E+10	1
4902554	22	C	09/10/2021	10:59	-136.392	49.487	0	1935.00	0	1.9950	0	34.5730	0	27.640	0	1909.664	0	-1e10	8	-1e10	8	-1E+10	1	-1E+10	1	-1E+10	1	-1E+10	1	-1E+10	1	-1E+10	1
4902554	22	C	09/10/2021	10:59	-136.392	49.487	0	1945.20	0	1.9920	0	34.5740	0	27.641	0	1919.684	0	-1e10	8	-1e10	8	-1E+10	1	-1E+10	1	-1E+10	1	-1E+10	1	-1E+10	1	-1E+10	1
4902554	22	C	09/10/2021	10:59	-136.392	49.487	0	1955.50	0	1.9870	0	34.5750	0	27.643	0	1929.803	0	-1e10	8	-1e10	8	-1E+10	1	-1E+10	1	-1E+10	1	-1E+10	1	-1E+10	1	-1E+10	1
4902554	22	C	09/10/2021	10:59	-136.392	49.487	0	1965.30	0	1.9820	0	34.5760	0	27.644	0	1939.429	0	-1e10	8	-1e10	8	-1E+10	1	-1E+10	1	-1E+10	1	-1E+10	1	-1E+10	1	-1E+10	1
4902554	22	C	09/10/2021	10:59	-136.392	49.487	0	1975.30	0	1.9780	0	34.5770	0	27.645	0	1949.252	0	-1e10	8	-1e10	8	-1E+10	1	-1E+10	1	-1E+10	1	-1E+10	1	-1E+10	1	-1E+10	1
4902554	22	C	09/10/2021	10:59	-136.392	49.487	0	1985.40	0	1.9690	0	34.5790	0	27.647	0	1959.172	0	-1e10	8	-1e10	8	-1E+10	1	-1E+10	1	-1E+10	1	-1E+10	1	-1E+10	1	-1E+10	1
4902554	22	C	09/10/2021	10:59	-136.392	49.487	0	1995.50	0	1.9620	0	34.5800	0	27.649	0	1969.092	0	-1e10	8	-1e10	8	-1E+10	1	-1E+10	1	-1E+10	1	-1E+10	1	-1E+10	1	-1E+10	1
4902554	22	C	09/10/2021	10:59	-136.392	49.487	0	2005.50	0	1.9560	0	34.5810	0	27.650	0	1978.913	0	-1e10	8	-1e10	8	-1E+10	1	-1E+10	1	-1E+10	1	-1E+10	1	-1E+10	1	-1E+10	1
4902554	22	C	09/10/2021	10:59	-136.392	49.487	0																										
4902554	23	C	09/20/2021	16:13	-136.398	49.447	0	0.40	0	14.4140	0	32.2200	0	23.955	0	0.397	0	-1e10	8	-1e10	8	-1E+10	1	-1E+10	1	-1E+10	1	-1E+10	1	-1E+10	1	-1E+10	1
4902554	23	C	09/20/2021	16:13	-136.398	49.447	0	1.10	0	14.4180	0	32.2240	0	23.957	0	1.091	0	-1e10	8	-1e10	8	-1E+10	1	-1E+10	1	-1E+10	1	-1E+10	1	-1E+10	1	-1E+10	1
4902554	23	C	09/20/2021	16:13	-136.398	49.447	0	2.00	0	14.4170	0	32.2250	0	23.958	0	1.983	0	-1e10	8	-1e10	8	-1E+10	1	-1E+10	1	-1E+10	1	-1E+10	1	-1E+10	1	-1E+10	1
4902554	23	C	09/20/2021	16:13	-136.398	49.447	0	3.10	0	14.4190	0	32.2330	0	23.964	0	3.074	0	-1e10	8	-1e10	8	-1E+10	1	-1E+10	1	-1E+10	1	-1E+10	1	-1E+10	1	-1E+10	1
4902554	23	C	09/20/2021	16:13	-136.398	49.447	0	3.90	0	14.4190	0	32.2350	0	23.965	0	3.867	0	-1e10	8	-1e10	8	-1E+10	1	-1E+10	1	-1E+10	1	-1E+10	1	-1E+10	1	-1E+10	1
4902554	23	C	09/20/2021	16:13	-136.398	49.447	0	4.80	0	14.4180	0	32.2360	0	23.966	0	4.759	0	-1e10	8	-1e10	8	-1E+10	1	-1E+10	1	-1E+10	1	-1E+10	1	-1E+10	1	-1E+10	1
4902554	23	C	09/20/2021	16:13	-136.398	49.447	0	6.00	0	14.4180	0	32.2360	0	23.966	0	5.949	0	-1e10	8	-1e10	8	-1E+10	1	-1E+10	1	-1E+10	1	-1E+10	1	-1E+10	1	-1E+10	1
4902554	23	C	09/20/2021	16:13	-136.398	49.447	0	7.10	0	14.4180	0	32.2360	0	23.966	0	7.039	0	-1e10	8	-1e10	8	-1E+10	1	-1E+10	1	-1E+10	1	-1E+10	1	-1E+10	1	-1E+10	1
4902554	23	C	09/20/2021	16:13	-136.398	49.447	0	8.00	0	14.4190	0	32.2360	0	23.966	0	7.932	0	-1e10	8	-1e10	8	-1E+10	1	-1E+10	1	-1E+10	1	-1E+10	1	-1E+10	1	-1E+10	1
4902554	23	C	09/20/2021	16:13	-136.398	49.447	0	8.70	0	14.4190	0	32.2360	0	23.966	0	8.626	0	-1e10	8	-1e10	8	-1E+10	1	-1E+10	1	-1E+10	1	-1E+10	1	-1E+10	1	-1E+10	1
4902554	23	C	09/20/2021	16:13	-136.398	49.447	0	9.90	0	14.4180	0	32.2360	0	23.966	0	9.815	0	-1e10	8	-1e10	8	-1E+10	1	-1E+10	1	-1E+10	1	-1E+10	1	-1E+10	1	-1E+10	1
4902554	23	C	09/20/2021	16:13	-136.398	49.447	0	11.00	0	14.4180	0	32.2360	0	23.966	0	10.906	0	-1e10	8	-1e10	8	-1E+10	1	-1E+10	1	-1E+10	1	-1E+10	1	-1E+10	1	-1E+10	1
4902554	23	C	09/20/2021	16:13	-136.398	49.447	0	12.20	0	14.4180	0	32.2360	0	23.966	0	12.096	0	-1e10	8	-1e10	8	-1E+10	1	-1E+10	1	-1E+10	1	-1E+10	1	-1E+10	1	-1E+10	1
4902554	23	C	09/20/2021	16:13	-136.398	49.447	0	12.90	0	14.4180	0	32.2360	0	23.966	0	12.790	0	-1e10	8	-1e10	8	-1E+10	1	-1E+10	1	-1E+10	1	-1E+10	1	-1E+10	1	-1E+10	1
4902554	23	C	09/20/2021	16:13	-136.398	49.447	0	13.90	0	14.4160	0	32.2360	0	23.967	0	13.781	0	-1e10	8	-1e10	8	-1E+10	1	-1E+10	1	-1E+10	1	-1E+10	1	-1E+10	1	-1E+10	1
4902554	23	C	09/20/2021	16:13	-136.398	49.447	0	15.10	0	14.4160	0	32.2360	0	23.967	0	14.971	0	-1e10	8	-1e10	8	-1E+10	1	-1E+10	1	-1E+10	1	-1E+10	1	-1E+10	1	-1E+10	1
4902554	23	C	09/20/2021	16:13	-136.398	49.447	0	16.10	0	14.4170	0	32.2360	0	23.967	0	15.962	0	-1e10	8	-1e10	8	-1E+10	1	-1E+10	1	-1E+10	1	-1E+10	1	-1E+10	1	-1E+10	1
4902554	23	C	09/20/2021	16:13	-136.398	49.447	0	17.10	0	14.4160	0	32.2360	0	23.967	0	16.954	0	-1e10	8	-1e10	8	-1E+10	1	-1E+10	1	-1E+10	1	-1E+10	1	-1E+10	1	-1E+10	1
4902554	23	C	09/20/2021	16:13	-136.398	49.447	0	18.00	0	14.4170	0	32.2370	0	23.968	0	17.846	0	-1e10	8	-1e10	8	-1E+10	1	-1E+10	1	-1E+10	1	-1E+10	1	-1E+10	1	-1E+10	1
4902554	23	C	09/20/2021	16:13	-136.398	49.447	0	18.90	0	14.4170	0	32.2360	0	23.967	0	18.738	0	-1e10	8	-1e10	8	-1E+10	1	-1E+10	1	-1E+10	1	-1E+10	1	-1E+10	1	-1E+10	1
4902554	23	C	09/20/2021	16:13	-136.398	49.447	0	20.00	0	14.4170	0	32.2360	0	23.967	0	19.829	0	-1e10	8	-1e10	8	-1E+10	1	-1E+10	1	-1E+10	1	-1E+10	1	-1E+10	1	-1E+10	1
4902554	23	C	09/20/2021	16:13	-136.398	49.447	0	20.90	0	14.4160	0	32.2370	0	23.968	0	20.721	0	-1e10	8	-1e10	8	-1E+10	1	-1E+10	1	-1E+10	1	-1E+10	1	-1E+10	1	-1E+10	1
4902554	23	C	09/20/2021	16:13	-136.398	49.447	0	21.90	0	14.4090	0	32.2370	0	23.969	0	21.712	0	-1e10	8	-1e10	8	-1E+10	1	-1E+10	1	-1E+10	1	-1E+10	1	-1E+10	1	-1E+10	1
4902554	23	C	09/20/2021	16:13	-136.398	49.447	0	22.80	0	14.4100	0	32.2370	0	23.969	0	22.604	0	-1e10	8	-1e10	8	-1E+10	1	-1E+10	1	-1E+10	1	-1E+10	1	-1E+10	1	-1E+10	1
4902554	23	C	09/20/2021	16:13	-136.398	49.447	0	24.00	0	14.4110	0	32.2370	0	23.969	0	23.794	0	-1e10	8	-1e10	8	-1E+10	1	-1E+10	1	-1E+10	1	-1E+10	1	-1E+10	1	-1E+10	1
4902554	23	C	09/20/2021	16:13	-136.398	49.447	0	25.10	0	14.4140	0	32.2360	0	23.968	0	24.885	0	-1e10	8	-1e10	8	-1E+10	1	-1E+10	1	-1E+10	1	-1E+10	1	-1E+10	1	-1E+10	1
4902554	23	C	09/20/2021	16:13	-136.398	49.447	0	26.00	0	14.4170	0	32.2370	0	23.968	0	25.777	0	-1e10	8	-1e10	8	-1E+10	1	-1E+10	1	-1E+10	1	-1E+10	1	-1E+10	1	-1E+10	1
4902554	23	C	09/20/2021	16:13	-136.398	49.447	0	26.70	0	14.4130	0	32.2360	0	23.968	0	26.471	0	-1e10	8	-1e10	8	-1E+10	1	-1E+10	1	-1E+10	1	-1E+10	1	-1E+10	1	-1E+10	1
4902554	23	C	09/20/2021	16:13	-136.398	49.447	0	27.90	0	14.4180	0	32.2360	0	23.967	0	27.660	0	-1e10	8	-1e10	8	-1E+10	1	-1E+10	1	-1E+10	1	-1E+10	1	-1E+10	1	-1E+10	1
4902554	23	C	09/20/2021	16:13	-136.398	49.447	0	29.10	0	14.4090	0	32.2370	0	23.970	0	28.850	0	-1e10	8	-1e10	8	-1E+10	1	-1E+10	1	-1E+10	1	-1E+10	1	-1E+10	1	-1E+10	1
4902554	23	C	09/20/2021	16:13	-136.398	49.447	0	30.10	0	14.4080	0	32.2360	0	23.969	0	29.841	0	-1e10	8	-1e10	8	-1E+10	1	-1E+10	1	-1E+10	1	-1E+10	1	-1E+10	1	-1E+10	1
4902554	23	C	09/20/2021	16:13	-136.398	49.447	0	31.10	0	14.4040	0	32.2370	0	23.971	0	30.833	0	-1e10	8	-1e10	8	-1E+10	1	-1E+10	1	-1E+10	1	-1E+10	1	-1E+10	1	-1E+10	1
4902554	23	C	09/20/2021	16:13	-136.398	49.447	0	32.30	0	14.4130	0	32.2370	0	23.969	0	32.022	0	-1e10	8	-1e10	8	-1E+10	1	-1E+10	1	-1E+10	1	-1E+10	1	-1E+10	1	-1E+10	1
4902554	23	C	09/20/2021	16:13	-136.398	49.447	0	33.00	0	14.4130	0	32.2360	0	23.968	0	32.716	0	-1e10	8	-1e10	8	-1E+10	1	-1E+10	1	-1E+10	1	-1E+10	1	-1E+10	1	-1E+10	1
4902554	23	C	09/20/2021	16:13	-136.398	49.447	0	33.90	0	14.3990	0	32.2380	0	23.973	0	33.608	0	-1e10	8	-1e10	8	-1E+10	1	-1E+10	1	-1E+10	1	-1E+10	1	-1E+10	1	-1E+10	1
4902554	23	C	09/20/2021	16:13	-136.398	49.447	0	35.10	0	14.3890	0	32.2380	0	23.975	0	34.798	0	-1e10	8	-1e10	8	-1E+10	1	-1E+10	1	-1E+10	1	-1E+10	1	-1E+10	1	-1E+10	1
4902554	23	C	09/20/2021	16:13	-136.398	49.447	0	35.90	0	14.3840	0	32.2370	0	23.975	0	35.591	0	-1e10	8	-1e10	8	-1E+10	1	-1E+10	1	-1E+10	1	-1E+10	1	-1E+10	1	-1E+10	1
4902554	23	C	09/20/2021	16:13	-136.398	49.447	0	37.00	0	14.3740	0	32.2400	0	23.979	0	36.681	0	-1e10	8	-1e10	8	-1E+10	1	-1E+10	1	-1E+10	1	-1E+10	1	-1E+10	1	-1E+10	1
4902554	23	C	09/20/2021	16:13	-136.398	49.447	0	38.00	0	14.3530	0	32.2380	0	23.982	0	37.673	0	-1e10	8	-1e10	8	-1E+10	1	-1E+10	1	-1E+10	1	-1E+10	1	-1E+10	1	-1E+10	1
4902554	23	C	09/20/2021	16:13	-136.398	49.447	0	38.90	0	14.2870	0	32.2380	0	23.996	0	38.565	0	-1e10	8	-1e10	8	-1E+10	1	-1E+10	1	-1E+10	1	-1E+10	1	-1E+10	1	-1E+10	1
4902554	23	C	09/20/2021	16:13	-136.398	49.447	0	40.10	0	14.1380	0	32.2290	0	24.020	0	39.754	0	-1e10	8	-1e10	8	-1E+10	1	-1E+10	1	-1E+10	1	-1E+10	1	-1E+10	1	-1E+10	1
4902554	23	C	09/20/2021	16:13	-136.398	49.447	0	41.10	0	13.6150	0	32.2580	0	24.149	0	40.746	0	-1e10	8	-1e10	8	-1E+10	1	-1E+10	1	-1E+10	1	-1E+10	1	-1E+10	1	-1E+10	1
4902554	23	C	09/20/2021	16:13	-136.398	49.447	0	41.80	0	13.3590	0	32.2620	0	24.203	0	41.440	0	-1e10	8	-1e10	8	-1E+10	1	-1E+10	1	-1E+10	1	-1E+10	1	-1E+10	1	-1E+10	1
4902554	23	C	09/20/2021	16:13	-136.398	49.447	0	42.90	0	12.9470	0	32.2870	0	24.304	0	42.530	0	-1e10	8	-1e10	8	-1E+10	1	-1E+10	1	-1E+10	1	-1E+10	1	-1E+10	1	-1E+10	1
4902554	23	C	09/20/2021	16:13	-136.398	49.447	0	43.80	0	12.7730	0	32.2940	0	24.343	0	43.422	0	-1e10	8	-1e10	8	-1E+10	1	-1E+10	1	-1E+10	1	-1E+10	1	-1E+10	1	-1E+10	1
4902554	23	C	09/20/2021	16:13	-136.398	49.447	0	44.90	0	12.6790	0	32.2960	0	24.363	0	44.512	0	-1e10	8	-1e10	8	-1E+10	1	-1E+10	1	-1E+10	1	-1E+10	1	-1E+10	1	-1E+10	1
4902554	23	C	09/20/2021	16:13	-136.398	49.447	0	46.00	0	12.0170	0	32.3130	0	24.501	0	45.603	0	-1e10	8	-1e10	8	-1E+10	1	-1E+10	1	-1E+10	1	-1E+10	1	-1E+10	1	-1E+10	1
4902554	23	C	09/20/2021	16:13	-136.398	49.447	0	47.00	0	10.0060	0	32.3630	0	24.894	0	46.594	0	-1e10	8	-1e10	8	-1E+10	1	-1E+10	1	-1E+10	1	-1E+10	1	-1E+10	1	-1E+10	1
4902554	23	C	09/20/2021	16:13	-136.398	49.447	0	48.10	0	9.1320	0	32.3860	0	25.052	0	47.684	0	-1e10	8	-1e10	8	-1E+10	1	-1E+10	1	-1E+10	1	-1E+10	1	-1E+10	1	-1E+10	1
4902554	23	C	09/20/2021	16:13	-136.398	49.447	0	49.00	0	8.9040	0	32.3900	0	25.091	0	48.577	0	-1e10	8	-1e10	8	-1E+10	1	-1E+10	1	-1E+10	1	-1E+10	1	-1E+10	1	-1E+10	1
4902554	23	C	09/20/2021	16:13	-136.398	49.447	0	49.90	0	8.6250	0	32.3900	0	25.133	0	49.469	0	-1e10	8	-1e10	8	-1E+10	1	-1E+10	1	-1E+10	1	-1E+10	1	-1E+10	1	-1E+10	1
4902554	23	C	09/20/2021	16:13	-136.398	49.447	0	50.90	0	8.4220	0	32.4040	0	25.175	0	50.460	0	-1e10	8	-1e10	8	-1E+10	1	-1E+10	1	-1E+10	1	-1E+10	1	-1E+10	1	-1E+10	1
4902554	23	C	09/20/2021	16:13	-136.398	49.447	0	51.80	0	8.2510	0	32.4080	0	25.203	0	51.352	0	-1e10	8	-1e10	8	-1E+10	1	-1E+10	1	-1E+10	1	-1E+10	1	-1E+10	1	-1E+10	1
4902554	23	C	09/20/2021	16:13	-136.398	49.447	0	52.90	0	8.1340	0	32.4080	0	25.220	0	52.442	0	-1e10	8	-1e10	8	-1E+10	1	-1E+10	1	-1E+10	1	-1E+10	1	-1E+10	1	-1E+10	1
4902554	23	C	09/20/2021	16:13	-136.398	49.447	0	54.10	0	8.0050	0	32.4140	0	25.244	0	53.632	0	-1e10	8	-1e10	8	-1E+10	1	-1E+10	1	-1E+10	1	-1E+10	1	-1E+10	1	-1E+10	1
4902554	23	C	09/20/2021	16:13	-136.398	49.447	0	54.80	0	7.8600	0	32.4150	0	25.265	0	54.326	0	-1e10	8	-1e10	8	-1E+10	1	-1E+10	1	-1E+10	1	-1E+10	1	-1E+10	1	-1E+10	1
4902554	23	C	09/20/2021	16:13	-136.398	49.447	0	55.80	0	7.6960	0	32.4180	0	25.291	0	55.317	0	-1e10	8	-1e10	8	-1E+10	1	-1E+10	1	-1E+10	1	-1E+10	1	-1E+10	1	-1E+10	1
4902554	23	C	09/20/2021	16:13	-136.398	49.447	0	56.90	0	7.5340	0	32.4230	0	25.318	0	56.407	0	-1e10	8	-1e10	8	-1E+10	1	-1E+10	1	-1E+10	1	-1E+10	1	-1E+10	1	-1E+10	1
4902554	23	C	09/20/2021	16:13	-136.398	49.447	0	57.90	0	7.4770	0	32.4230	0	25.325	0	57.398	0	-1e10	8	-1e10	8	-1E+10	1	-1E+10	1	-1E+10	1	-1E+10	1	-1E+10	1	-1E+10	1
4902554	23	C	09/20/2021	16:13	-136.398	49.447	0	59.10	0	7.3560	0	32.4290	0	25.347	0	58.588	0	-1e10	8	-1e10	8	-1E+10	1	-1E+10	1	-1E+10	1	-1E+10	1	-1E+10	1	-1E+10	1
4902554	23	C	09/20/2021	16:13	-136.398	49.447	0	59.80	0	7.2190	0	32.4330	0	25.369	0	59.282	0	-1e10	8	-1e10	8	-1E+10	1	-1E+10	1	-1E+10	1	-1E+10	1	-1E+10	1	-1E+10	1
4902554	23	C	09/20/2021	16:13	-136.398	49.447	0	61.00	0	7.1630	0	32.4320	0	25.375	0	60.471	0	-1e10	8	-1e10	8	-1E+10	1	-1E+10	1	-1E+10	1	-1E+10	1	-1E+10	1	-1E+10	1
4902554	23	C	09/20/2021	16:13	-136.398	49.447	0	61.70	0	7.1340	0	32.4320	0	25.379	0	61.165	0	-1e10	8	-1e10	8	-1E+10	1	-1E+10	1	-1E+10	1	-1E+10	1	-1E+10	1	-1E+10	1
4902554	23	C	09/20/2021	16:13	-136.398	49.447	0	62.70	0	7.0650	0	32.4370	0	25.393	0	62.156	0	-1e10	8	-1e10	8	-1E+10	1	-1E+10	1	-1E+10	1	-1E+10	1	-1E+10	1	-1E+10	1
4902554	23	C	09/20/2021	16:13	-136.398	49.447	0	63.70	0	7.0250	0	32.4430	0	25.403	0	63.147	0	-1e10	8	-1e10	8	-1E+10	1	-1E+10	1	-1E+10	1	-1E+10	1	-1E+10	1	-1E+10	1
4902554	23	C	09/20/2021	16:13	-136.398	49.447	0	64.80	0	6.9700	0	32.4440	0	25.411	0	64.238	0	-1e10	8	-1e10	8	-1E+10	1	-1E+10	1	-1E+10	1	-1E+10	1	-1E+10	1	-1E+10	1
4902554	23	C	09/20/2021	16:13	-136.398	49.447	0	65.90	0	6.9190	0	32.4470	0	25.420	0	65.328	0	-1e10	8	-1e10	8	-1E+10	1	-1E+10	1	-1E+10	1	-1E+10	1	-1E+10	1	-1E+10	1
4902554	23	C	09/20/2021	16:13	-136.398	49.447	0	67.00	0	6.8990	0	32.4510	0	25.426	0	66.418	0	-1e10	8	-1e10	8	-1E+10	1	-1E+10	1	-1E+10	1	-1E+10	1	-1E+10	1	-1E+10	1
4902554	23	C	09/20/2021	16:13	-136.398	49.447	0	68.10	0	6.8780	0	32.4560	0	25.432	0	67.508	0	-1e10	8	-1e10	8	-1E+10	1	-1E+10	1	-1E+10	1	-1E+10	1	-1E+10	1	-1E+10	1
4902554	23	C	09/20/2021	16:13	-136.398	49.447	0	69.00	0	6.8640	0	32.4550	0	25.433	0	68.400	0	-1e10	8	-1e10	8	-1E+10	1	-1E+10	1	-1E+10	1	-1E+10	1	-1E+10	1	-1E+10	1
4902554	23	C	09/20/2021	16:13	-136.398	49.447	0	69.80	0	6.8540	0	32.4560	0	25.436	0	69.193	0	-1e10	8	-1e10	8	-1E+10	1	-1E+10	1	-1E+10	1	-1E+10	1	-1E+10	1	-1E+10	1
4902554	23	C	09/20/2021	16:13	-136.398	49.447	0	70.90	0	6.8350	0	32.4550	0	25.437	0	70.284	0	-1e10	8	-1e10	8	-1E+10	1	-1E+10	1	-1E+10	1	-1E+10	1	-1E+10	1	-1E+10	1
4902554	23	C	09/20/2021	16:13	-136.398	49.447	0	71.90	0	6.7840	0	32.4580	0	25.446	0	71.275	0	-1e10	8	-1e10	8	-1E+10	1	-1E+10	1	-1E+10	1	-1E+10	1	-1E+10	1	-1E+10	1
4902554	23	C	09/20/2021	16:13	-136.398	49.447	0	72.90	0	6.7470	0	32.4580	0	25.451	0	72.266	0	-1e10	8	-1e10	8	-1E+10	1	-1E+10	1	-1E+10	1	-1E+10	1	-1E+10	1	-1E+10	1
4902554	23	C	09/20/2021	16:13	-136.398	49.447	0	73.90	0	6.7230	0	32.4590	0	25.455	0	73.257	0	-1e10	8	-1e10	8	-1E+10	1	-1E+10	1	-1E+10	1	-1E+10	1	-1E+10	1	-1E+10	1
4902554	23	C	09/20/2021	16:13	-136.398	49.447	0	75.00	0	6.6980	0	32.4600	0	25.459	0	74.347	0	-1e10	8	-1e10	8	-1E+10	1	-1E+10	1	-1E+10	1	-1E+10	1	-1E+10	1	-1E+10	1
4902554	23	C	09/20/2021	16:13	-136.398	49.447	0	76.00	0	6.6780	0	32.4610	0	25.463	0	75.338	0	-1e10	8	-1e10	8	-1E+10	1	-1E+10	1	-1E+10	1	-1E+10	1	-1E+10	1	-1E+10	1
4902554	23	C	09/20/2021	16:13	-136.398	49.447	0	77.00	0	6.6660	0	32.4590	0	25.463	0	76.329	0	-1e10	8	-1e10	8	-1E+10	1	-1E+10	1	-1E+10	1	-1E+10	1	-1E+10	1	-1E+10	1
4902554	23	C	09/20/2021	16:13	-136.398	49.447	0	78.10	0	6.6230	0	32.4580	0	25.467	0	77.420	0	-1e10	8	-1e10	8	-1E+10	1	-1E+10	1	-1E+10	1	-1E+10	1	-1E+10	1	-1E+10	1
4902554	23	C	09/20/2021	16:13	-136.398	49.447	0	78.90	0	6.5790	0	32.4610	0	25.475	0	78.213	0	-1e10	8	-1e10	8	-1E+10	1	-1E+10	1	-1E+10	1	-1E+10	1	-1E+10	1	-1E+10	1
4902554	23	C	09/20/2021	16:13	-136.398	49.447	0	79.70	0	6.5200	0	32.4620	0	25.484	0	79.005	0	-1e10	8	-1e10	8	-1E+10	1	-1E+10	1	-1E+10	1	-1E+10	1	-1E+10	1	-1E+10	1
4902554	23	C	09/20/2021	16:13	-136.398	49.447	0	80.80	0	6.4710	0	32.4610	0	25.489	0	80.096	0	-1e10	8	-1e10	8	-1E+10	1	-1E+10	1	-1E+10	1	-1E+10	1	-1E+10	1	-1E+10	1
4902554	23	C	09/20/2021	16:13	-136.398	49.447	0	81.90	0	6.4400	0	32.4630	0	25.495	0	81.186	0	-1e10	8	-1e10	8	-1E+10	1	-1E+10	1	-1E+10	1	-1E+10	1	-1E+10	1	-1E+10	1
4902554	23	C	09/20/2021	16:13	-136.398	49.447	0	83.00	0	6.4270	0	32.4640	0	25.497	0	82.276	0	-1e10	8	-1e10	8	-1E+10	1	-1E+10	1	-1E+10	1	-1E+10	1	-1E+10	1	-1E+10	1
4902554	23	C	09/20/2021	16:13	-136.398	49.447	0	84.00	0	6.4330	0	32.4660	0	25.498	0	83.267	0	-1e10	8	-1e10	8	-1E+10	1	-1E+10	1	-1E+10	1	-1E+10	1	-1E+10	1	-1E+10	1
4902554	23	C	09/20/2021	16:13	-136.398	49.447	0	85.10	0	6.4250	0	32.4670	0	25.500	0	84.357	0	-1e10	8	-1e10	8	-1E+10	1	-1E+10	1	-1E+10	1	-1E+10	1	-1E+10	1	-1E+10	1
4902554	23	C	09/20/2021	16:13	-136.398	49.447	0	85.90	0	6.3970	0	32.4690	0	25.505	0	85.150	0	-1e10	8	-1e10	8	-1E+10	1	-1E+10	1	-1E+10	1	-1E+10	1	-1E+10	1	-1E+10	1
4902554	23	C	09/20/2021	16:13	-136.398	49.447	0	86.70	0	6.3640	0	32.4700	0	25.510	0	85.943	0	-1e10	8	-1e10	8	-1E+10	1	-1E+10	1	-1E+10	1	-1E+10	1	-1E+10	1	-1E+10	1
4902554	23	C	09/20/2021	16:13	-136.398	49.447	0	87.80	0	6.3540	0	32.4760	0	25.516	0	87.033	0	-1e10	8	-1e10	8	-1E+10	1	-1E+10	1	-1E+10	1	-1E+10	1	-1E+10	1	-1E+10	1
4902554	23	C	09/20/2021	16:13	-136.398	49.447	0	88.90	0	6.2860	0	32.4830	0	25.530	0	88.123	0	-1e10	8	-1e10	8	-1E+10	1	-1E+10	1	-1E+10	1	-1E+10	1	-1E+10	1	-1E+10	1
4902554	23	C	09/20/2021	16:13	-136.398	49.447	0	89.90	0	6.2470	0	32.4860	0	25.537	0	89.114	0	-1e10	8	-1e10	8	-1E+10	1	-1E+10	1	-1E+10	1	-1E+10	1	-1E+10	1	-1E+10	1
4902554	23	C	09/20/2021	16:13	-136.398	49.447	0	90.90	0	6.2110	0	32.4930	0	25.547	0	90.105	0	-1e10	8	-1e10	8	-1E+10	1	-1E+10	1	-1E+10	1	-1E+10	1	-1E+10	1	-1E+10	1
4902554	23	C	09/20/2021	16:13	-136.398	49.447	0	92.10	0	6.1580	0	32.5000	0	25.559	0	91.295	0	-1e10	8	-1e10	8	-1E+10	1	-1E+10	1	-1E+10	1	-1E+10	1	-1E+10	1	-1E+10	1
4902554	23	C	09/20/2021	16:13	-136.398	49.447	0	92.90	0	6.1030	0	32.5040	0	25.569	0	92.087	0	-1e10	8	-1e10	8	-1E+10	1	-1E+10	1	-1E+10	1	-1E+10	1	-1E+10	1	-1E+10	1
4902554	23	C	09/20/2021	16:13	-136.398	49.447	0	93.90	0	6.0630	0	32.5100	0	25.579	0	93.079	0	-1e10	8	-1e10	8	-1E+10	1	-1E+10	1	-1E+10	1	-1E+10	1	-1E+10	1	-1E+10	1
4902554	23	C	09/20/2021	16:13	-136.398	49.447	0	95.00	0	6.0400	0	32.5250	0	25.594	0	94.169	0	-1e10	8	-1e10	8	-1E+10	1	-1E+10	1	-1E+10	1	-1E+10	1	-1E+10	1	-1E+10	1
4902554	23	C	09/20/2021	16:13	-136.398	49.447	0	96.00	0	6.0150	0	32.5370	0	25.606	0	95.160	0	-1e10	8	-1e10	8	-1E+10	1	-1E+10	1	-1E+10	1	-1E+10	1	-1E+10	1	-1E+10	1
4902554	23	C	09/20/2021	16:13	-136.398	49.447	0	97.10	0	5.9790	0	32.5530	0	25.623	0	96.250	0	-1e10	8	-1e10	8	-1E+10	1	-1E+10	1	-1E+10	1	-1E+10	1	-1E+10	1	-1E+10	1
4902554	23	C	09/20/2021	16:13	-136.398	49.447	0	97.80	0	5.9690	0	32.5560	0	25.627	0	96.943	0	-1e10	8	-1e10	8	-1E+10	1	-1E+10	1	-1E+10	1	-1E+10	1	-1E+10	1	-1E+10	1
4902554	23	C	09/20/2021	16:13	-136.398	49.447	0	98.90	0	5.9610	0	32.5570	0	25.628	0	98.034	0	-1e10	8	-1e10	8	-1E+10	1	-1E+10	1	-1E+10	1	-1E+10	1	-1E+10	1	-1E+10	1
4902554	23	C	09/20/2021	16:13	-136.398	49.447	0	100.10	0	5.9620	0	32.5570	0	25.628	0	99.223	0	-1e10	8	-1e10	8	-1E+10	1	-1E+10	1	-1E+10	1	-1E+10	1	-1E+10	1	-1E+10	1
4902554	23	C	09/20/2021	16:13	-136.398	49.447	0	100.90	0	5.9500	0	32.5620	0	25.634	0	100.016	0	-1e10	8	-1e10	8	-1E+10	1	-1E+10	1	-1E+10	1	-1E+10	1	-1E+10	1	-1E+10	1
4902554	23	C	09/20/2021	16:13	-136.398	49.447	0	102.10	0	5.9580	0	32.5830	0	25.649	0	101.205	0	-1e10	8	-1e10	8	-1E+10	1	-1E+10	1	-1E+10	1	-1E+10	1	-1E+10	1	-1E+10	1
4902554	23	C	09/20/2021	16:13	-136.398	49.447	0	103.00	0	5.9740	0	32.5920	0	25.655	0	102.097	0	-1e10	8	-1e10	8	-1E+10	1	-1E+10	1	-1E+10	1	-1E+10	1	-1E+10	1	-1E+10	1
4902554	23	C	09/20/2021	16:13	-136.398	49.447	0	104.00	0	5.9850	0	32.6040	0	25.663	0	103.088	0	-1e10	8	-1e10	8	-1E+10	1	-1E+10	1	-1E+10	1	-1E+10	1	-1E+10	1	-1E+10	1
4902554	23	C	09/20/2021	16:13	-136.398	49.447	0	104.90	0	5.9880	0	32.6130	0	25.669	0	103.980	0	-1e10	8	-1e10	8	-1E+10	1	-1E+10	1	-1E+10	1	-1E+10	1	-1E+10	1	-1E+10	1
4902554	23	C	09/20/2021	16:13	-136.398	49.447	0	105.80	0	5.9890	0	32.6250	0	25.679	0	104.871	0	-1e10	8	-1e10	8	-1E+10	1	-1E+10	1	-1E+10	1	-1E+10	1	-1E+10	1	-1E+10	1
4902554	23	C	09/20/2021	16:13	-136.398	49.447	0	106.70	0	5.9690	0	32.6470	0	25.699	0	105.763	0	-1e10	8	-1e10	8	-1E+10	1	-1E+10	1	-1E+10	1	-1E+10	1	-1E+10	1	-1E+10	1
4902554	23	C	09/20/2021	16:13	-136.398	49.447	0	107.70	0	5.9420	0	32.6940	0	25.739	0	106.754	0	-1e10	8	-1e10	8	-1E+10	1	-1E+10	1	-1E+10	1	-1E+10	1	-1E+10	1	-1E+10	1
4902554	23	C	09/20/2021	16:13	-136.398	49.447	0	108.70	0	5.9560	0	32.7310	0	25.767	0	107.745	0	-1e10	8	-1e10	8	-1E+10	1	-1E+10	1	-1E+10	1	-1E+10	1	-1E+10	1	-1E+10	1
4902554	23	C	09/20/2021	16:13	-136.398	49.447	0	109.70	0	5.9410	0	32.7380	0	25.774	0	108.736	0	-1e10	8	-1e10	8	-1E+10	1	-1E+10	1	-1E+10	1	-1E+10	1	-1E+10	1	-1E+10	1
4902554	23	C	09/20/2021	16:13	-136.398	49.447	0	110.80	0	5.9500	0	32.7670	0	25.796	0	109.826	0	-1e10	8	-1e10	8	-1E+10	1	-1E+10	1	-1E+10	1	-1E+10	1	-1E+10	1	-1E+10	1
4902554	23	C	09/20/2021	16:13	-136.398	49.447	0	111.80	0	5.9580	0	32.7950	0	25.817	0	110.817	0	-1e10	8	-1e10	8	-1E+10	1	-1E+10	1	-1E+10	1	-1E+10	1	-1E+10	1	-1E+10	1
4902554	23	C	09/20/2021	16:13	-136.398	49.447	0	112.80	0	5.9520	0	32.8040	0	25.825	0	111.808	0	-1e10	8	-1e10	8	-1E+10	1	-1E+10	1	-1E+10	1	-1E+10	1	-1E+10	1	-1E+10	1
4902554	23	C	09/20/2021	16:13	-136.398	49.447	0	114.10	0	5.9870	0	32.8370	0	25.847	0	113.096	0	-1e10	8	-1e10	8	-1E+10	1	-1E+10	1	-1E+10	1	-1E+10	1	-1E+10	1	-1E+10	1
4902554	23	C	09/20/2021	16:13	-136.398	49.447	0	115.00	0	6.0750	0	32.9100	0	25.893	0	113.988	0	-1e10	8	-1e10	8	-1E+10	1	-1E+10	1	-1E+10	1	-1E+10	1	-1E+10	1	-1E+10	1
4902554	23	C	09/20/2021	16:13	-136.398	49.447	0	116.00	0	6.1130	0	32.9370	0	25.910	0	114.979	0	-1e10	8	-1e10	8	-1E+10	1	-1E+10	1	-1E+10	1	-1E+10	1	-1E+10	1	-1E+10	1
4902554	23	C	09/20/2021	16:13	-136.398	49.447	0	117.00	0	6.1180	0	32.9430	0	25.914	0	115.970	0	-1e10	8	-1e10	8	-1E+10	1	-1E+10	1	-1E+10	1	-1E+10	1	-1E+10	1	-1E+10	1
4902554	23	C	09/20/2021	16:13	-136.398	49.447	0	117.90	0	6.1190	0	32.9720	0	25.937	0	116.862	0	-1e10	8	-1e10	8	-1E+10	1	-1E+10	1	-1E+10	1	-1E+10	1	-1E+10	1	-1E+10	1
4902554	23	C	09/20/2021	16:13	-136.398	49.447	0	118.90	0	6.1270	0	33.0180	0	25.972	0	117.853	0	-1e10	8	-1e10	8	-1E+10	1	-1E+10	1	-1E+10	1	-1E+10	1	-1E+10	1	-1E+10	1
4902554	23	C	09/20/2021	16:13	-136.398	49.447	0	119.90	0	6.1370	0	33.0550	0	26.000	0	118.844	0	-1e10	8	-1e10	8	-1E+10	1	-1E+10	1	-1E+10	1	-1E+10	1	-1E+10	1	-1E+10	1
4902554	23	C	09/20/2021	16:13	-136.398	49.447	0	121.10	0	6.1440	0	33.0640	0	26.007	0	120.033	0	-1e10	8	-1e10	8	-1E+10	1	-1E+10	1	-1E+10	1	-1E+10	1	-1E+10	1	-1E+10	1
4902554	23	C	09/20/2021	16:13	-136.398	49.447	0	121.90	0	6.1420	0	33.0670	0	26.009	0	120.825	0	-1e10	8	-1e10	8	-1E+10	1	-1E+10	1	-1E+10	1	-1E+10	1	-1E+10	1	-1E+10	1
4902554	23	C	09/20/2021	16:13	-136.398	49.447	0	122.90	0	6.1400	0	33.0700	0	26.012	0	121.816	0	-1e10	8	-1e10	8	-1E+10	1	-1E+10	1	-1E+10	1	-1E+10	1	-1E+10	1	-1E+10	1
4902554	23	C	09/20/2021	16:13	-136.398	49.447	0	124.00	0	6.1360	0	33.0740	0	26.015	0	122.906	0	-1e10	8	-1e10	8	-1E+10	1	-1E+10	1	-1E+10	1	-1E+10	1	-1E+10	1	-1E+10	1
4902554	23	C	09/20/2021	16:13	-136.398	49.447	0	125.20	0	6.1570	0	33.0960	0	26.030	0	124.095	0	-1e10	8	-1e10	8	-1E+10	1	-1E+10	1	-1E+10	1	-1E+10	1	-1E+10	1	-1E+10	1
4902554	23	C	09/20/2021	16:13	-136.398	49.447	0	125.90	0	6.1580	0	33.1140	0	26.044	0	124.789	0	-1e10	8	-1e10	8	-1E+10	1	-1E+10	1	-1E+10	1	-1E+10	1	-1E+10	1	-1E+10	1
4902554	23	C	09/20/2021	16:13	-136.398	49.447	0	126.90	0	6.1510	0	33.1490	0	26.073	0	125.780	0	-1e10	8	-1e10	8	-1E+10	1	-1E+10	1	-1E+10	1	-1E+10	1	-1E+10	1	-1E+10	1
4902554	23	C	09/20/2021	16:13	-136.398	49.447	0	127.90	0	6.1520	0	33.1790	0	26.096	0	126.771	0	-1e10	8	-1e10	8	-1E+10	1	-1E+10	1	-1E+10	1	-1E+10	1	-1E+10	1	-1E+10	1
4902554	23	C	09/20/2021	16:13	-136.398	49.447	0	129.00	0	6.1530	0	33.1950	0	26.109	0	127.861	0	-1e10	8	-1e10	8	-1E+10	1	-1E+10	1	-1E+10	1	-1E+10	1	-1E+10	1	-1E+10	1
4902554	23	C	09/20/2021	16:13	-136.398	49.447	0	130.10	0	6.1520	0	33.2250	0	26.133	0	128.951	0	-1e10	8	-1e10	8	-1E+10	1	-1E+10	1	-1E+10	1	-1E+10	1	-1E+10	1	-1E+10	1
4902554	23	C	09/20/2021	16:13	-136.398	49.447	0	131.00	0	6.1490	0	33.2570	0	26.158	0	129.842	0	-1e10	8	-1e10	8	-1E+10	1	-1E+10	1	-1E+10	1	-1E+10	1	-1E+10	1	-1E+10	1
4902554	23	C	09/20/2021	16:13	-136.398	49.447	0	132.00	0	6.1420	0	33.3150	0	26.205	0	130.833	0	-1e10	8	-1e10	8	-1E+10	1	-1E+10	1	-1E+10	1	-1E+10	1	-1E+10	1	-1E+10	1
4902554	23	C	09/20/2021	16:13	-136.398	49.447	0	133.00	0	6.1390	0	33.4080	0	26.279	0	131.824	0	-1e10	8	-1e10	8	-1E+10	1	-1E+10	1	-1E+10	1	-1E+10	1	-1E+10	1	-1E+10	1
4902554	23	C	09/20/2021	16:13	-136.398	49.447	0	133.80	0	6.1380	0	33.4390	0	26.304	0	132.617	0	-1e10	8	-1e10	8	-1E+10	1	-1E+10	1	-1E+10	1	-1E+10	1	-1E+10	1	-1E+10	1
4902554	23	C	09/20/2021	16:13	-136.398	49.447	0	134.90	0	6.1420	0	33.4920	0	26.345	0	133.707	0	-1e10	8	-1e10	8	-1E+10	1	-1E+10	1	-1E+10	1	-1E+10	1	-1E+10	1	-1E+10	1
4902554	23	C	09/20/2021	16:13	-136.398	49.447	0	136.00	0	6.0990	0	33.5350	0	26.384	0	134.796	0	-1e10	8	-1e10	8	-1E+10	1	-1E+10	1	-1E+10	1	-1E+10	1	-1E+10	1	-1E+10	1
4902554	23	C	09/20/2021	16:13	-136.398	49.447	0	136.70	0	6.0970	0	33.5370	0	26.386	0	135.490	0	-1e10	8	-1e10	8	-1E+10	1	-1E+10	1	-1E+10	1	-1E+10	1	-1E+10	1	-1E+10	1
4902554	23	C	09/20/2021	16:13	-136.398	49.447	0	137.80	0	6.0920	0	33.5410	0	26.390	0	136.580	0	-1e10	8	-1e10	8	-1E+10	1	-1E+10	1	-1E+10	1	-1E+10	1	-1E+10	1	-1E+10	1
4902554	23	C	09/20/2021	16:13	-136.398	49.447	0	139.00	0	6.0830	0	33.5460	0	26.395	0	137.769	0	-1e10	8	-1e10	8	-1E+10	1	-1E+10	1	-1E+10	1	-1E+10	1	-1E+10	1	-1E+10	1
4902554	23	C	09/20/2021	16:13	-136.398	49.447	0	139.70	0	6.0790	0	33.5640	0	26.410	0	138.462	0	-1e10	8	-1e10	8	-1E+10	1	-1E+10	1	-1E+10	1	-1E+10	1	-1E+10	1	-1E+10	1
4902554	23	C	09/20/2021	16:13	-136.398	49.447	0	140.80	0	6.0550	0	33.5730	0	26.420	0	139.552	0	-1e10	8	-1e10	8	-1E+10	1	-1E+10	1	-1E+10	1	-1E+10	1	-1E+10	1	-1E+10	1
4902554	23	C	09/20/2021	16:13	-136.398	49.447	0	141.90	0	6.0480	0	33.5860	0	26.431	0	140.642	0	-1e10	8	-1e10	8	-1E+10	1	-1E+10	1	-1E+10	1	-1E+10	1	-1E+10	1	-1E+10	1
4902554	23	C	09/20/2021	16:13	-136.398	49.447	0	143.00	0	6.0500	0	33.6070	0	26.447	0	141.732	0	-1e10	8	-1e10	8	-1E+10	1	-1E+10	1	-1E+10	1	-1E+10	1	-1E+10	1	-1E+10	1
4902554	23	C	09/20/2021	16:13	-136.398	49.447	0	144.20	0	6.0350	0	33.6170	0	26.457	0	142.921	0	-1e10	8	-1e10	8	-1E+10	1	-1E+10	1	-1E+10	1	-1E+10	1	-1E+10	1	-1E+10	1
4902554	23	C	09/20/2021	16:13	-136.398	49.447	0	144.90	0	6.0280	0	33.6200	0	26.460	0	143.615	0	-1e10	8	-1e10	8	-1E+10	1	-1E+10	1	-1E+10	1	-1E+10	1	-1E+10	1	-1E+10	1
4902554	23	C	09/20/2021	16:13	-136.398	49.447	0	145.70	0	6.0280	0	33.6240	0	26.464	0	144.407	0	-1e10	8	-1e10	8	-1E+10	1	-1E+10	1	-1E+10	1	-1E+10	1	-1E+10	1	-1E+10	1
4902554	23	C	09/20/2021	16:13	-136.398	49.447	0	146.80	0	5.9900	0	33.6480	0	26.487	0	145.497	0	-1e10	8	-1e10	8	-1E+10	1	-1E+10	1	-1E+10	1	-1E+10	1	-1E+10	1	-1E+10	1
4902554	23	C	09/20/2021	16:13	-136.398	49.447	0	148.00	0	5.9770	0	33.6610	0	26.499	0	146.686	0	-1e10	8	-1e10	8	-1E+10	1	-1E+10	1	-1E+10	1	-1E+10	1	-1E+10	1	-1E+10	1
4902554	23	C	09/20/2021	16:13	-136.398	49.447	0	149.00	0	5.9670	0	33.6690	0	26.507	0	147.677	0	-1e10	8	-1e10	8	-1E+10	1	-1E+10	1	-1E+10	1	-1E+10	1	-1E+10	1	-1E+10	1
4902554	23	C	09/20/2021	16:13	-136.398	49.447	0	149.80	0	5.9650	0	33.6710	0	26.509	0	148.469	0	-1e10	8	-1e10	8	-1E+10	1	-1E+10	1	-1E+10	1	-1E+10	1	-1E+10	1	-1E+10	1
4902554	23	C	09/20/2021	16:13	-136.398	49.447	0	151.00	0	5.9590	0	33.6820	0	26.518	0	149.658	0	-1e10	8	-1e10	8	-1E+10	1	-1E+10	1	-1E+10	1	-1E+10	1	-1E+10	1	-1E+10	1
4902554	23	C	09/20/2021	16:13	-136.398	49.447	0	152.20	0	5.9550	0	33.6840	0	26.520	0	150.847	0	-1e10	8	-1e10	8	-1E+10	1	-1E+10	1	-1E+10	1	-1E+10	1	-1E+10	1	-1E+10	1
4902554	23	C	09/20/2021	16:13	-136.398	49.447	0	153.20	0	5.9440	0	33.6860	0	26.523	0	151.838	0	-1e10	8	-1e10	8	-1E+10	1	-1E+10	1	-1E+10	1	-1E+10	1	-1E+10	1	-1E+10	1
4902554	23	C	09/20/2021	16:13	-136.398	49.447	0	154.10	0	5.9510	0	33.6980	0	26.532	0	152.730	0	-1e10	8	-1e10	8	-1E+10	1	-1E+10	1	-1E+10	1	-1E+10	1	-1E+10	1	-1E+10	1
4902554	23	C	09/20/2021	16:13	-136.398	49.447	0	155.00	0	5.9600	0	33.7010	0	26.533	0	153.621	0	-1e10	8	-1e10	8	-1E+10	1	-1E+10	1	-1E+10	1	-1E+10	1	-1E+10	1	-1E+10	1
4902554	23	C	09/20/2021	16:13	-136.398	49.447	0	155.90	0	5.9570	0	33.7060	0	26.537	0	154.513	0	-1e10	8	-1e10	8	-1E+10	1	-1E+10	1	-1E+10	1	-1E+10	1	-1E+10	1	-1E+10	1
4902554	23	C	09/20/2021	16:13	-136.398	49.447	0	156.80	0	5.9390	0	33.7140	0	26.546	0	155.405	0	-1e10	8	-1e10	8	-1E+10	1	-1E+10	1	-1E+10	1	-1E+10	1	-1E+10	1	-1E+10	1
4902554	23	C	09/20/2021	16:13	-136.398	49.447	0	157.70	0	5.9330	0	33.7170	0	26.549	0	156.296	0	-1e10	8	-1e10	8	-1E+10	1	-1E+10	1	-1E+10	1	-1E+10	1	-1E+10	1	-1E+10	1
4902554	23	C	09/20/2021	16:13	-136.398	49.447	0	158.80	0	5.9300	0	33.7170	0	26.549	0	157.386	0	-1e10	8	-1e10	8	-1E+10	1	-1E+10	1	-1E+10	1	-1E+10	1	-1E+10	1	-1E+10	1
4902554	23	C	09/20/2021	16:13	-136.398	49.447	0	159.70	0	5.9250	0	33.7200	0	26.552	0	158.278	0	-1e10	8	-1e10	8	-1E+10	1	-1E+10	1	-1E+10	1	-1E+10	1	-1E+10	1	-1E+10	1
4902554	23	C	09/20/2021	16:13	-136.398	49.447	0	160.60	0	5.9200	0	33.7210	0	26.554	0	159.169	0	-1e10	8	-1e10	8	-1E+10	1	-1E+10	1	-1E+10	1	-1E+10	1	-1E+10	1	-1E+10	1
4902554	23	C	09/20/2021	16:13	-136.398	49.447	0	161.50	0	5.9080	0	33.7240	0	26.558	0	160.061	0	-1e10	8	-1e10	8	-1E+10	1	-1E+10	1	-1E+10	1	-1E+10	1	-1E+10	1	-1E+10	1
4902554	23	C	09/20/2021	16:13	-136.398	49.447	0	162.60	0	5.8930	0	33.7250	0	26.560	0	161.151	0	-1e10	8	-1e10	8	-1E+10	1	-1E+10	1	-1E+10	1	-1E+10	1	-1E+10	1	-1E+10	1
4902554	23	C	09/20/2021	16:13	-136.398	49.447	0	163.60	0	5.8920	0	33.7250	0	26.560	0	162.141	0	-1e10	8	-1e10	8	-1E+10	1	-1E+10	1	-1E+10	1	-1E+10	1	-1E+10	1	-1E+10	1
4902554	23	C	09/20/2021	16:13	-136.398	49.447	0	164.50	0	5.8860	0	33.7250	0	26.561	0	163.033	0	-1e10	8	-1e10	8	-1E+10	1	-1E+10	1	-1E+10	1	-1E+10	1	-1E+10	1	-1E+10	1
4902554	23	C	09/20/2021	16:13	-136.398	49.447	0	165.70	0	5.8610	0	33.7290	0	26.567	0	164.222	0	-1e10	8	-1e10	8	-1E+10	1	-1E+10	1	-1E+10	1	-1E+10	1	-1E+10	1	-1E+10	1
4902554	23	C	09/20/2021	16:13	-136.398	49.447	0	166.60	0	5.8600	0	33.7330	0	26.571	0	165.113	0	-1e10	8	-1e10	8	-1E+10	1	-1E+10	1	-1E+10	1	-1E+10	1	-1E+10	1	-1E+10	1
4902554	23	C	09/20/2021	16:13	-136.398	49.447	0	167.80	0	5.8460	0	33.7380	0	26.576	0	166.302	0	-1e10	8	-1e10	8	-1E+10	1	-1E+10	1	-1E+10	1	-1E+10	1	-1E+10	1	-1E+10	1
4902554	23	C	09/20/2021	16:13	-136.398	49.447	0	168.80	0	5.8460	0	33.7400	0	26.578	0	167.293	0	-1e10	8	-1e10	8	-1E+10	1	-1E+10	1	-1E+10	1	-1E+10	1	-1E+10	1	-1E+10	1
4902554	23	C	09/20/2021	16:13	-136.398	49.447	0	169.80	0	5.8460	0	33.7410	0	26.579	0	168.284	0	-1e10	8	-1e10	8	-1E+10	1	-1E+10	1	-1E+10	1	-1E+10	1	-1E+10	1	-1E+10	1
4902554	23	C	09/20/2021	16:13	-136.398	49.447	0	170.80	0	5.8190	0	33.7430	0	26.584	0	169.274	0	-1e10	8	-1e10	8	-1E+10	1	-1E+10	1	-1E+10	1	-1E+10	1	-1E+10	1	-1E+10	1
4902554	23	C	09/20/2021	16:13	-136.398	49.447	0	172.00	0	5.7940	0	33.7510	0	26.593	0	170.463	0	-1e10	8	-1e10	8	-1E+10	1	-1E+10	1	-1E+10	1	-1E+10	1	-1E+10	1	-1E+10	1
4902554	23	C	09/20/2021	16:13	-136.398	49.447	0	173.00	0	5.7780	0	33.7540	0	26.597	0	171.454	0	-1e10	8	-1e10	8	-1E+10	1	-1E+10	1	-1E+10	1	-1E+10	1	-1E+10	1	-1E+10	1
4902554	23	C	09/20/2021	16:13	-136.398	49.447	0	174.00	0	5.7730	0	33.7560	0	26.600	0	172.444	0	-1e10	8	-1e10	8	-1E+10	1	-1E+10	1	-1E+10	1	-1E+10	1	-1E+10	1	-1E+10	1
4902554	23	C	09/20/2021	16:13	-136.398	49.447	0	175.00	0	5.7700	0	33.7580	0	26.602	0	173.435	0	-1e10	8	-1e10	8	-1E+10	1	-1E+10	1	-1E+10	1	-1E+10	1	-1E+10	1	-1E+10	1
4902554	23	C	09/20/2021	16:13	-136.398	49.447	0	176.00	0	5.7660	0	33.7590	0	26.603	0	174.426	0	-1e10	8	-1e10	8	-1E+10	1	-1E+10	1	-1E+10	1	-1E+10	1	-1E+10	1	-1E+10	1
4902554	23	C	09/20/2021	16:13	-136.398	49.447	0	177.00	0	5.7610	0	33.7600	0	26.604	0	175.416	0	-1e10	8	-1e10	8	-1E+10	1	-1E+10	1	-1E+10	1	-1E+10	1	-1E+10	1	-1E+10	1
4902554	23	C	09/20/2021	16:13	-136.398	49.447	0	178.10	0	5.7450	0	33.7640	0	26.609	0	176.506	0	-1e10	8	-1e10	8	-1E+10	1	-1E+10	1	-1E+10	1	-1E+10	1	-1E+10	1	-1E+10	1
4902554	23	C	09/20/2021	16:13	-136.398	49.447	0	179.10	0	5.7350	0	33.7660	0	26.612	0	177.497	0	-1e10	8	-1e10	8	-1E+10	1	-1E+10	1	-1E+10	1	-1E+10	1	-1E+10	1	-1E+10	1
4902554	23	C	09/20/2021	16:13	-136.398	49.447	0	180.10	0	5.7320	0	33.7670	0	26.613	0	178.487	0	-1e10	8	-1e10	8	-1E+10	1	-1E+10	1	-1E+10	1	-1E+10	1	-1E+10	1	-1E+10	1
4902554	23	C	09/20/2021	16:13	-136.398	49.447	0	181.10	0	5.7290	0	33.7680	0	26.615	0	179.478	0	-1e10	8	-1e10	8	-1E+10	1	-1E+10	1	-1E+10	1	-1E+10	1	-1E+10	1	-1E+10	1
4902554	23	C	09/20/2021	16:13	-136.398	49.447	0	182.10	0	5.7160	0	33.7720	0	26.619	0	180.468	0	-1e10	8	-1e10	8	-1E+10	1	-1E+10	1	-1E+10	1	-1E+10	1	-1E+10	1	-1E+10	1
4902554	23	C	09/20/2021	16:13	-136.398	49.447	0	183.10	0	5.7110	0	33.7740	0	26.622	0	181.459	0	-1e10	8	-1e10	8	-1E+10	1	-1E+10	1	-1E+10	1	-1E+10	1	-1E+10	1	-1E+10	1
4902554	23	C	09/20/2021	16:13	-136.398	49.447	0	184.10	0	5.7000	0	33.7780	0	26.626	0	182.450	0	-1e10	8	-1e10	8	-1E+10	1	-1E+10	1	-1E+10	1	-1E+10	1	-1E+10	1	-1E+10	1
4902554	23	C	09/20/2021	16:13	-136.398	49.447	0	185.10	0	5.6930	0	33.7800	0	26.629	0	183.440	0	-1e10	8	-1e10	8	-1E+10	1	-1E+10	1	-1E+10	1	-1E+10	1	-1E+10	1	-1E+10	1
4902554	23	C	09/20/2021	16:13	-136.398	49.447	0	186.10	0	5.6870	0	33.7800	0	26.629	0	184.431	0	-1e10	8	-1e10	8	-1E+10	1	-1E+10	1	-1E+10	1	-1E+10	1	-1E+10	1	-1E+10	1
4902554	23	C	09/20/2021	16:13	-136.398	49.447	0	187.10	0	5.6860	0	33.7800	0	26.629	0	185.421	0	-1e10	8	-1e10	8	-1E+10	1	-1E+10	1	-1E+10	1	-1E+10	1	-1E+10	1	-1E+10	1
4902554	23	C	09/20/2021	16:13	-136.398	49.447	0	188.00	0	5.6650	0	33.7860	0	26.637	0	186.313	0	-1e10	8	-1e10	8	-1E+10	1	-1E+10	1	-1E+10	1	-1E+10	1	-1E+10	1	-1E+10	1
4902554	23	C	09/20/2021	16:13	-136.398	49.447	0	189.00	0	5.6550	0	33.7850	0	26.637	0	187.303	0	-1e10	8	-1e10	8	-1E+10	1	-1E+10	1	-1E+10	1	-1E+10	1	-1E+10	1	-1E+10	1
4902554	23	C	09/20/2021	16:13	-136.398	49.447	0	190.00	0	5.6510	0	33.7850	0	26.638	0	188.294	0	-1e10	8	-1e10	8	-1E+10	1	-1E+10	1	-1E+10	1	-1E+10	1	-1E+10	1	-1E+10	1
4902554	23	C	09/20/2021	16:13	-136.398	49.447	0	190.90	0	5.6340	0	33.7870	0	26.641	0	189.186	0	-1e10	8	-1e10	8	-1E+10	1	-1E+10	1	-1E+10	1	-1E+10	1	-1E+10	1	-1E+10	1
4902554	23	C	09/20/2021	16:13	-136.398	49.447	0	191.90	0	5.6170	0	33.7890	0	26.645	0	190.176	0	-1e10	8	-1e10	8	-1E+10	1	-1E+10	1	-1E+10	1	-1E+10	1	-1E+10	1	-1E+10	1
4902554	23	C	09/20/2021	16:13	-136.398	49.447	0	192.90	0	5.6000	0	33.7910	0	26.649	0	191.167	0	-1e10	8	-1e10	8	-1E+10	1	-1E+10	1	-1E+10	1	-1E+10	1	-1E+10	1	-1E+10	1
4902554	23	C	09/20/2021	16:13	-136.398	49.447	0	193.80	0	5.5870	0	33.7900	0	26.649	0	192.058	0	-1e10	8	-1e10	8	-1E+10	1	-1E+10	1	-1E+10	1	-1E+10	1	-1E+10	1	-1E+10	1
4902554	23	C	09/20/2021	16:13	-136.398	49.447	0	194.80	0	5.5720	0	33.7910	0	26.652	0	193.049	0	-1e10	8	-1e10	8	-1E+10	1	-1E+10	1	-1E+10	1	-1E+10	1	-1E+10	1	-1E+10	1
4902554	23	C	09/20/2021	16:13	-136.398	49.447	0	195.80	0	5.5580	0	33.7910	0	26.654	0	194.039	0	-1e10	8	-1e10	8	-1E+10	1	-1E+10	1	-1E+10	1	-1E+10	1	-1E+10	1	-1E+10	1
4902554	23	C	09/20/2021	16:13	-136.398	49.447	0	196.70	0	5.5490	0	33.7920	0	26.655	0	194.931	0	-1e10	8	-1e10	8	-1E+10	1	-1E+10	1	-1E+10	1	-1E+10	1	-1E+10	1	-1E+10	1
4902554	23	C	09/20/2021	16:13	-136.398	49.447	0	197.70	0	5.5330	0	33.7920	0	26.657	0	195.921	0	-1e10	8	-1e10	8	-1E+10	1	-1E+10	1	-1E+10	1	-1E+10	1	-1E+10	1	-1E+10	1
4902554	23	C	09/20/2021	16:13	-136.398	49.447	0	198.70	0	5.5150	0	33.7910	0	26.659	0	196.912	0	-1e10	8	-1e10	8	-1E+10	1	-1E+10	1	-1E+10	1	-1E+10	1	-1E+10	1	-1E+10	1
4902554	23	C	09/20/2021	16:13	-136.398	49.447	0	199.60	0	5.4830	0	33.7900	0	26.662	0	197.803	0	-1e10	8	-1e10	8	-1E+10	1	-1E+10	1	-1E+10	1	-1E+10	1	-1E+10	1	-1E+10	1
4902554	23	C	09/20/2021	16:13	-136.398	49.447	0	200.60	0	5.4820	0	33.7900	0	26.662	0	198.794	0	-1e10	8	-1e10	8	-1E+10	1	-1E+10	1	-1E+10	1	-1E+10	1	-1E+10	1	-1E+10	1
4902554	23	C	09/20/2021	16:13	-136.398	49.447	0	201.90	0	5.4840	0	33.7920	0	26.663	0	200.081	0	-1e10	8	-1e10	8	-1E+10	1	-1E+10	1	-1E+10	1	-1E+10	1	-1E+10	1	-1E+10	1
4902554	23	C	09/20/2021	16:13	-136.398	49.447	0	203.40	0	5.4820	0	33.7920	0	26.664	0	201.567	0	-1e10	8	-1e10	8	-1E+10	1	-1E+10	1	-1E+10	1	-1E+10	1	-1E+10	1	-1E+10	1
4902554	23	C	09/20/2021	16:13	-136.398	49.447	0	204.30	0	5.4810	0	33.7920	0	26.664	0	202.459	0	-1e10	8	-1e10	8	-1E+10	1	-1E+10	1	-1E+10	1	-1E+10	1	-1E+10	1	-1E+10	1
4902554	23	C	09/20/2021	16:13	-136.398	49.447	0	205.20	0	5.4770	0	33.7920	0	26.664	0	203.350	0	-1e10	8	-1e10	8	-1E+10	1	-1E+10	1	-1E+10	1	-1E+10	1	-1E+10	1	-1E+10	1
4902554	23	C	09/20/2021	16:13	-136.398	49.447	0	206.20	0	5.4770	0	33.7920	0	26.664	0	204.341	0	-1e10	8	-1e10	8	-1E+10	1	-1E+10	1	-1E+10	1	-1E+10	1	-1E+10	1	-1E+10	1
4902554	23	C	09/20/2021	16:13	-136.398	49.447	0	207.10	0	5.4630	0	33.7960	0	26.669	0	205.232	0	-1e10	8	-1e10	8	-1E+10	1	-1E+10	1	-1E+10	1	-1E+10	1	-1E+10	1	-1E+10	1
4902554	23	C	09/20/2021	16:13	-136.398	49.447	0	208.00	0	5.4430	0	33.7940	0	26.670	0	206.123	0	-1e10	8	-1e10	8	-1E+10	1	-1E+10	1	-1E+10	1	-1E+10	1	-1E+10	1	-1E+10	1
4902554	23	C	09/20/2021	16:13	-136.398	49.447	0	209.00	0	5.4360	0	33.7930	0	26.670	0	207.114	0	-1e10	8	-1e10	8	-1E+10	1	-1E+10	1	-1E+10	1	-1E+10	1	-1E+10	1	-1E+10	1
4902554	23	C	09/20/2021	16:13	-136.398	49.447	0	209.90	0	5.4320	0	33.7960	0	26.673	0	208.005	0	-1e10	8	-1e10	8	-1E+10	1	-1E+10	1	-1E+10	1	-1E+10	1	-1E+10	1	-1E+10	1
4902554	23	C	09/20/2021	16:13	-136.398	49.447	0	210.80	0	5.3940	0	33.7980	0	26.679	0	208.897	0	-1e10	8	-1e10	8	-1E+10	1	-1E+10	1	-1E+10	1	-1E+10	1	-1E+10	1	-1E+10	1
4902554	23	C	09/20/2021	16:13	-136.398	49.447	0	211.70	0	5.3800	0	33.7990	0	26.681	0	209.788	0	-1e10	8	-1e10	8	-1E+10	1	-1E+10	1	-1E+10	1	-1E+10	1	-1E+10	1	-1E+10	1
4902554	23	C	09/20/2021	16:13	-136.398	49.447	0	212.70	0	5.3800	0	33.7970	0	26.680	0	210.779	0	-1e10	8	-1e10	8	-1E+10	1	-1E+10	1	-1E+10	1	-1E+10	1	-1E+10	1	-1E+10	1
4902554	23	C	09/20/2021	16:13	-136.398	49.447	0	213.60	0	5.3850	0	33.7970	0	26.679	0	211.670	0	-1e10	8	-1e10	8	-1E+10	1	-1E+10	1	-1E+10	1	-1E+10	1	-1E+10	1	-1E+10	1
4902554	23	C	09/20/2021	16:13	-136.398	49.447	0	214.60	0	5.3980	0	33.8000	0	26.680	0	212.660	0	-1e10	8	-1e10	8	-1E+10	1	-1E+10	1	-1E+10	1	-1E+10	1	-1E+10	1	-1E+10	1
4902554	23	C	09/20/2021	16:13	-136.398	49.447	0	215.90	0	5.3970	0	33.8020	0	26.682	0	213.948	0	-1e10	8	-1e10	8	-1E+10	1	-1E+10	1	-1E+10	1	-1E+10	1	-1E+10	1	-1E+10	1
4902554	23	C	09/20/2021	16:13	-136.398	49.447	0	217.40	0	5.3780	0	33.8020	0	26.684	0	215.434	0	-1e10	8	-1e10	8	-1E+10	1	-1E+10	1	-1E+10	1	-1E+10	1	-1E+10	1	-1E+10	1
4902554	23	C	09/20/2021	16:13	-136.398	49.447	0	218.30	0	5.3920	0	33.8090	0	26.688	0	216.325	0	-1e10	8	-1e10	8	-1E+10	1	-1E+10	1	-1E+10	1	-1E+10	1	-1E+10	1	-1E+10	1
4902554	23	C	09/20/2021	16:13	-136.398	49.447	0	219.30	0	5.3820	0	33.8080	0	26.688	0	217.316	0	-1e10	8	-1e10	8	-1E+10	1	-1E+10	1	-1E+10	1	-1E+10	1	-1E+10	1	-1E+10	1
4902554	23	C	09/20/2021	16:13	-136.398	49.447	0	220.20	0	5.3890	0	33.8100	0	26.689	0	218.207	0	-1e10	8	-1e10	8	-1E+10	1	-1E+10	1	-1E+10	1	-1E+10	1	-1E+10	1	-1E+10	1
4902554	23	C	09/20/2021	16:13	-136.398	49.447	0	221.20	0	5.3660	0	33.8110	0	26.692	0	219.197	0	-1e10	8	-1e10	8	-1E+10	1	-1E+10	1	-1E+10	1	-1E+10	1	-1E+10	1	-1E+10	1
4902554	23	C	09/20/2021	16:13	-136.398	49.447	0	222.20	0	5.3500	0	33.8100	0	26.694	0	220.188	0	-1e10	8	-1e10	8	-1E+10	1	-1E+10	1	-1E+10	1	-1E+10	1	-1E+10	1	-1E+10	1
4902554	23	C	09/20/2021	16:13	-136.398	49.447	0	223.10	0	5.3190	0	33.8140	0	26.700	0	221.079	0	-1e10	8	-1e10	8	-1E+10	1	-1E+10	1	-1E+10	1	-1E+10	1	-1E+10	1	-1E+10	1
4902554	23	C	09/20/2021	16:13	-136.398	49.447	0	224.10	0	5.3150	0	33.8140	0	26.701	0	222.070	0	-1e10	8	-1e10	8	-1E+10	1	-1E+10	1	-1E+10	1	-1E+10	1	-1E+10	1	-1E+10	1
4902554	23	C	09/20/2021	16:13	-136.398	49.447	0	225.10	0	5.3100	0	33.8140	0	26.701	0	223.060	0	-1e10	8	-1e10	8	-1E+10	1	-1E+10	1	-1E+10	1	-1E+10	1	-1E+10	1	-1E+10	1
4902554	23	C	09/20/2021	16:13	-136.398	49.447	0	226.10	0	5.3010	0	33.8140	0	26.702	0	224.050	0	-1e10	8	-1e10	8	-1E+10	1	-1E+10	1	-1E+10	1	-1E+10	1	-1E+10	1	-1E+10	1
4902554	23	C	09/20/2021	16:13	-136.398	49.447	0	227.00	0	5.2780	0	33.8180	0	26.708	0	224.942	0	-1e10	8	-1e10	8	-1E+10	1	-1E+10	1	-1E+10	1	-1E+10	1	-1E+10	1	-1E+10	1
4902554	23	C	09/20/2021	16:13	-136.398	49.447	0	228.00	0	5.2400	0	33.8150	0	26.710	0	225.932	0	-1e10	8	-1e10	8	-1E+10	1	-1E+10	1	-1E+10	1	-1E+10	1	-1E+10	1	-1E+10	1
4902554	23	C	09/20/2021	16:13	-136.398	49.447	0	229.00	0	5.2100	0	33.8100	0	26.710	0	226.922	0	-1e10	8	-1e10	8	-1E+10	1	-1E+10	1	-1E+10	1	-1E+10	1	-1E+10	1	-1E+10	1
4902554	23	C	09/20/2021	16:13	-136.398	49.447	0	230.00	0	5.2210	0	33.8120	0	26.710	0	227.913	0	-1e10	8	-1e10	8	-1E+10	1	-1E+10	1	-1E+10	1	-1E+10	1	-1E+10	1	-1E+10	1
4902554	23	C	09/20/2021	16:13	-136.398	49.447	0	230.90	0	5.2160	0	33.8140	0	26.712	0	228.804	0	-1e10	8	-1e10	8	-1E+10	1	-1E+10	1	-1E+10	1	-1E+10	1	-1E+10	1	-1E+10	1
4902554	23	C	09/20/2021	16:13	-136.398	49.447	0	231.90	0	5.2410	0	33.8190	0	26.713	0	229.795	0	-1e10	8	-1e10	8	-1E+10	1	-1E+10	1	-1E+10	1	-1E+10	1	-1E+10	1	-1E+10	1
4902554	23	C	09/20/2021	16:13	-136.398	49.447	0	232.90	0	5.2700	0	33.8240	0	26.714	0	230.785	0	-1e10	8	-1e10	8	-1E+10	1	-1E+10	1	-1E+10	1	-1E+10	1	-1E+10	1	-1E+10	1
4902554	23	C	09/20/2021	16:13	-136.398	49.447	0	233.90	0	5.2580	0	33.8270	0	26.718	0	231.775	0	-1e10	8	-1e10	8	-1E+10	1	-1E+10	1	-1E+10	1	-1E+10	1	-1E+10	1	-1E+10	1
4902554	23	C	09/20/2021	16:13	-136.398	49.447	0	234.80	0	5.2500	0	33.8250	0	26.717	0	232.667	0	-1e10	8	-1e10	8	-1E+10	1	-1E+10	1	-1E+10	1	-1E+10	1	-1E+10	1	-1E+10	1
4902554	23	C	09/20/2021	16:13	-136.398	49.447	0	235.80	0	5.2380	0	33.8250	0	26.719	0	233.657	0	-1e10	8	-1e10	8	-1E+10	1	-1E+10	1	-1E+10	1	-1E+10	1	-1E+10	1	-1E+10	1
4902554	23	C	09/20/2021	16:13	-136.398	49.447	0	236.80	0	5.2280	0	33.8260	0	26.721	0	234.647	0	-1e10	8	-1e10	8	-1E+10	1	-1E+10	1	-1E+10	1	-1E+10	1	-1E+10	1	-1E+10	1
4902554	23	C	09/20/2021	16:13	-136.398	49.447	0	237.80	0	5.2070	0	33.8280	0	26.725	0	235.638	0	-1e10	8	-1e10	8	-1E+10	1	-1E+10	1	-1E+10	1	-1E+10	1	-1E+10	1	-1E+10	1
4902554	23	C	09/20/2021	16:13	-136.398	49.447	0	238.80	0	5.1890	0	33.8260	0	26.725	0	236.628	0	-1e10	8	-1e10	8	-1E+10	1	-1E+10	1	-1E+10	1	-1E+10	1	-1E+10	1	-1E+10	1
4902554	23	C	09/20/2021	16:13	-136.398	49.447	0	239.80	0	5.2050	0	33.8270	0	26.724	0	237.618	0	-1e10	8	-1e10	8	-1E+10	1	-1E+10	1	-1E+10	1	-1E+10	1	-1E+10	1	-1E+10	1
4902554	23	C	09/20/2021	16:13	-136.398	49.447	0	240.80	0	5.1930	0	33.8290	0	26.727	0	238.609	0	-1e10	8	-1e10	8	-1E+10	1	-1E+10	1	-1E+10	1	-1E+10	1	-1E+10	1	-1E+10	1
4902554	23	C	09/20/2021	16:13	-136.398	49.447	0	241.80	0	5.1860	0	33.8310	0	26.729	0	239.599	0	-1e10	8	-1e10	8	-1E+10	1	-1E+10	1	-1E+10	1	-1E+10	1	-1E+10	1	-1E+10	1
4902554	23	C	09/20/2021	16:13	-136.398	49.447	0	242.80	0	5.1740	0	33.8300	0	26.730	0	240.589	0	-1e10	8	-1e10	8	-1E+10	1	-1E+10	1	-1E+10	1	-1E+10	1	-1E+10	1	-1E+10	1
4902554	23	C	09/20/2021	16:13	-136.398	49.447	0	243.80	0	5.1680	0	33.8290	0	26.730	0	241.580	0	-1e10	8	-1e10	8	-1E+10	1	-1E+10	1	-1E+10	1	-1E+10	1	-1E+10	1	-1E+10	1
4902554	23	C	09/20/2021	16:13	-136.398	49.447	0	244.80	0	5.1680	0	33.8320	0	26.732	0	242.570	0	-1e10	8	-1e10	8	-1E+10	1	-1E+10	1	-1E+10	1	-1E+10	1	-1E+10	1	-1E+10	1
4902554	23	C	09/20/2021	16:13	-136.398	49.447	0	245.80	0	5.1530	0	33.8320	0	26.734	0	243.560	0	-1e10	8	-1e10	8	-1E+10	1	-1E+10	1	-1E+10	1	-1E+10	1	-1E+10	1	-1E+10	1
4902554	23	C	09/20/2021	16:13	-136.398	49.447	0	246.90	0	5.1460	0	33.8350	0	26.737	0	244.649	0	-1e10	8	-1e10	8	-1E+10	1	-1E+10	1	-1E+10	1	-1E+10	1	-1E+10	1	-1E+10	1
4902554	23	C	09/20/2021	16:13	-136.398	49.447	0	247.90	0	5.1480	0	33.8350	0	26.737	0	245.640	0	-1e10	8	-1e10	8	-1E+10	1	-1E+10	1	-1E+10	1	-1E+10	1	-1E+10	1	-1E+10	1
4902554	23	C	09/20/2021	16:13	-136.398	49.447	0	248.90	0	5.1430	0	33.8360	0	26.738	0	246.630	0	-1e10	8	-1e10	8	-1E+10	1	-1E+10	1	-1E+10	1	-1E+10	1	-1E+10	1	-1E+10	1
4902554	23	C	09/20/2021	16:13	-136.398	49.447	0	249.90	0	5.1420	0	33.8370	0	26.739	0	247.620	0	-1e10	8	-1e10	8	-1E+10	1	-1E+10	1	-1E+10	1	-1E+10	1	-1E+10	1	-1E+10	1
4902554	23	C	09/20/2021	16:13	-136.398	49.447	0	251.00	0	5.1420	0	33.8350	0	26.738	0	248.710	0	-1e10	8	-1e10	8	-1E+10	1	-1E+10	1	-1E+10	1	-1E+10	1	-1E+10	1	-1E+10	1
4902554	23	C	09/20/2021	16:13	-136.398	49.447	0	252.00	0	5.1240	0	33.8370	0	26.741	0	249.700	0	-1e10	8	-1e10	8	-1E+10	1	-1E+10	1	-1E+10	1	-1E+10	1	-1E+10	1	-1E+10	1
4902554	23	C	09/20/2021	16:13	-136.398	49.447	0	253.00	0	5.1000	0	33.8350	0	26.743	0	250.690	0	-1e10	8	-1e10	8	-1E+10	1	-1E+10	1	-1E+10	1	-1E+10	1	-1E+10	1	-1E+10	1
4902554	23	C	09/20/2021	16:13	-136.398	49.447	0	254.00	0	5.0500	0	33.8330	0	26.747	0	251.680	0	-1e10	8	-1e10	8	-1E+10	1	-1E+10	1	-1E+10	1	-1E+10	1	-1E+10	1	-1E+10	1
4902554	23	C	09/20/2021	16:13	-136.398	49.447	0	255.10	0	5.0490	0	33.8320	0	26.746	0	252.770	0	-1e10	8	-1e10	8	-1E+10	1	-1E+10	1	-1E+10	1	-1E+10	1	-1E+10	1	-1E+10	1
4902554	23	C	09/20/2021	16:13	-136.398	49.447	0	256.10	0	5.0310	0	33.8310	0	26.747	0	253.760	0	-1e10	8	-1e10	8	-1E+10	1	-1E+10	1	-1E+10	1	-1E+10	1	-1E+10	1	-1E+10	1
4902554	23	C	09/20/2021	16:13	-136.398	49.447	0	257.10	0	5.0090	0	33.8290	0	26.748	0	254.750	0	-1e10	8	-1e10	8	-1E+10	1	-1E+10	1	-1E+10	1	-1E+10	1	-1E+10	1	-1E+10	1
4902554	23	C	09/20/2021	16:13	-136.398	49.447	0	258.10	0	5.0190	0	33.8230	0	26.742	0	255.740	0	-1e10	8	-1e10	8	-1E+10	1	-1E+10	1	-1E+10	1	-1E+10	1	-1E+10	1	-1E+10	1
4902554	23	C	09/20/2021	16:13	-136.398	49.447	0	259.10	0	5.0020	0	33.8370	0	26.755	0	256.731	0	-1e10	8	-1e10	8	-1E+10	1	-1E+10	1	-1E+10	1	-1E+10	1	-1E+10	1	-1E+10	1
4902554	23	C	09/20/2021	16:13	-136.398	49.447	0	260.20	0	4.9780	0	33.8340	0	26.756	0	257.820	0	-1e10	8	-1e10	8	-1E+10	1	-1E+10	1	-1E+10	1	-1E+10	1	-1E+10	1	-1E+10	1
4902554	23	C	09/20/2021	16:13	-136.398	49.447	0	261.20	0	4.9570	0	33.8340	0	26.758	0	258.810	0	-1e10	8	-1e10	8	-1E+10	1	-1E+10	1	-1E+10	1	-1E+10	1	-1E+10	1	-1E+10	1
4902554	23	C	09/20/2021	16:13	-136.398	49.447	0	262.20	0	4.9470	0	33.8340	0	26.759	0	259.800	0	-1e10	8	-1e10	8	-1E+10	1	-1E+10	1	-1E+10	1	-1E+10	1	-1E+10	1	-1E+10	1
4902554	23	C	09/20/2021	16:13	-136.398	49.447	0	263.20	0	4.9440	0	33.8350	0	26.760	0	260.791	0	-1e10	8	-1e10	8	-1E+10	1	-1E+10	1	-1E+10	1	-1E+10	1	-1E+10	1	-1E+10	1
4902554	23	C	09/20/2021	16:13	-136.398	49.447	0	264.30	0	4.9440	0	33.8350	0	26.760	0	261.880	0	-1e10	8	-1e10	8	-1E+10	1	-1E+10	1	-1E+10	1	-1E+10	1	-1E+10	1	-1E+10	1
4902554	23	C	09/20/2021	16:13	-136.398	49.447	0	265.30	0	4.9440	0	33.8360	0	26.761	0	262.870	0	-1e10	8	-1e10	8	-1E+10	1	-1E+10	1	-1E+10	1	-1E+10	1	-1E+10	1	-1E+10	1
4902554	23	C	09/20/2021	16:13	-136.398	49.447	0	266.30	0	4.9640	0	33.8330	0	26.757	0	263.860	0	-1e10	8	-1e10	8	-1E+10	1	-1E+10	1	-1E+10	1	-1E+10	1	-1E+10	1	-1E+10	1
4902554	23	C	09/20/2021	16:13	-136.398	49.447	0	267.40	0	4.9930	0	33.8430	0	26.761	0	264.949	0	-1e10	8	-1e10	8	-1E+10	1	-1E+10	1	-1E+10	1	-1E+10	1	-1E+10	1	-1E+10	1
4902554	23	C	09/20/2021	16:13	-136.398	49.447	0	268.40	0	4.9510	0	33.8410	0	26.764	0	265.940	0	-1e10	8	-1e10	8	-1E+10	1	-1E+10	1	-1E+10	1	-1E+10	1	-1E+10	1	-1E+10	1
4902554	23	C	09/20/2021	16:13	-136.398	49.447	0	269.50	0	4.9300	0	33.8420	0	26.768	0	267.029	0	-1e10	8	-1e10	8	-1E+10	1	-1E+10	1	-1E+10	1	-1E+10	1	-1E+10	1	-1E+10	1
4902554	23	C	09/20/2021	16:13	-136.398	49.447	0	270.50	0	4.8850	0	33.8420	0	26.773	0	268.019	0	-1e10	8	-1e10	8	-1E+10	1	-1E+10	1	-1E+10	1	-1E+10	1	-1E+10	1	-1E+10	1
4902554	23	C	09/20/2021	16:13	-136.398	49.447	0	271.60	0	4.8920	0	33.8430	0	26.773	0	269.108	0	-1e10	8	-1e10	8	-1E+10	1	-1E+10	1	-1E+10	1	-1E+10	1	-1E+10	1	-1E+10	1
4902554	23	C	09/20/2021	16:13	-136.398	49.447	0	272.60	0	4.8940	0	33.8450	0	26.774	0	270.098	0	-1e10	8	-1e10	8	-1E+10	1	-1E+10	1	-1E+10	1	-1E+10	1	-1E+10	1	-1E+10	1
4902554	23	C	09/20/2021	16:13	-136.398	49.447	0	273.70	0	4.8920	0	33.8480	0	26.777	0	271.188	0	-1e10	8	-1e10	8	-1E+10	1	-1E+10	1	-1E+10	1	-1E+10	1	-1E+10	1	-1E+10	1
4902554	23	C	09/20/2021	16:13	-136.398	49.447	0	274.70	0	4.8900	0	33.8480	0	26.777	0	272.178	0	-1e10	8	-1e10	8	-1E+10	1	-1E+10	1	-1E+10	1	-1E+10	1	-1E+10	1	-1E+10	1
4902554	23	C	09/20/2021	16:13	-136.398	49.447	0	275.80	0	4.8800	0	33.8480	0	26.778	0	273.267	0	-1e10	8	-1e10	8	-1E+10	1	-1E+10	1	-1E+10	1	-1E+10	1	-1E+10	1	-1E+10	1
4902554	23	C	09/20/2021	16:13	-136.398	49.447	0	276.80	0	4.8860	0	33.8500	0	26.779	0	274.257	0	-1e10	8	-1e10	8	-1E+10	1	-1E+10	1	-1E+10	1	-1E+10	1	-1E+10	1	-1E+10	1
4902554	23	C	09/20/2021	16:13	-136.398	49.447	0	277.90	0	4.8880	0	33.8520	0	26.780	0	275.346	0	-1e10	8	-1e10	8	-1E+10	1	-1E+10	1	-1E+10	1	-1E+10	1	-1E+10	1	-1E+10	1
4902554	23	C	09/20/2021	16:13	-136.398	49.447	0	279.00	0	4.8860	0	33.8520	0	26.781	0	276.435	0	-1e10	8	-1e10	8	-1E+10	1	-1E+10	1	-1E+10	1	-1E+10	1	-1E+10	1	-1E+10	1
4902554	23	C	09/20/2021	16:13	-136.398	49.447	0	280.00	0	4.8700	0	33.8520	0	26.782	0	277.426	0	-1e10	8	-1e10	8	-1E+10	1	-1E+10	1	-1E+10	1	-1E+10	1	-1E+10	1	-1E+10	1
4902554	23	C	09/20/2021	16:13	-136.398	49.447	0	281.10	0	4.8670	0	33.8540	0	26.784	0	278.515	0	-1e10	8	-1e10	8	-1E+10	1	-1E+10	1	-1E+10	1	-1E+10	1	-1E+10	1	-1E+10	1
4902554	23	C	09/20/2021	16:13	-136.398	49.447	0	282.10	0	4.8640	0	33.8540	0	26.785	0	279.505	0	-1e10	8	-1e10	8	-1E+10	1	-1E+10	1	-1E+10	1	-1E+10	1	-1E+10	1	-1E+10	1
4902554	23	C	09/20/2021	16:13	-136.398	49.447	0	283.20	0	4.8500	0	33.8530	0	26.785	0	280.594	0	-1e10	8	-1e10	8	-1E+10	1	-1E+10	1	-1E+10	1	-1E+10	1	-1E+10	1	-1E+10	1
4902554	23	C	09/20/2021	16:13	-136.398	49.447	0	284.20	0	4.8460	0	33.8530	0	26.786	0	281.584	0	-1e10	8	-1e10	8	-1E+10	1	-1E+10	1	-1E+10	1	-1E+10	1	-1E+10	1	-1E+10	1
4902554	23	C	09/20/2021	16:13	-136.398	49.447	0	285.30	0	4.8370	0	33.8540	0	26.788	0	282.673	0	-1e10	8	-1e10	8	-1E+10	1	-1E+10	1	-1E+10	1	-1E+10	1	-1E+10	1	-1E+10	1
4902554	23	C	09/20/2021	16:13	-136.398	49.447	0	286.30	0	4.8320	0	33.8550	0	26.789	0	283.663	0	-1e10	8	-1e10	8	-1E+10	1	-1E+10	1	-1E+10	1	-1E+10	1	-1E+10	1	-1E+10	1
4902554	23	C	09/20/2021	16:13	-136.398	49.447	0	287.40	0	4.8330	0	33.8560	0	26.790	0	284.752	0	-1e10	8	-1e10	8	-1E+10	1	-1E+10	1	-1E+10	1	-1E+10	1	-1E+10	1	-1E+10	1
4902554	23	C	09/20/2021	16:13	-136.398	49.447	0	288.50	0	4.8340	0	33.8560	0	26.790	0	285.842	0	-1e10	8	-1e10	8	-1E+10	1	-1E+10	1	-1E+10	1	-1E+10	1	-1E+10	1	-1E+10	1
4902554	23	C	09/20/2021	16:13	-136.398	49.447	0	289.50	0	4.8380	0	33.8560	0	26.789	0	286.832	0	-1e10	8	-1e10	8	-1E+10	1	-1E+10	1	-1E+10	1	-1E+10	1	-1E+10	1	-1E+10	1
4902554	23	C	09/20/2021	16:13	-136.398	49.447	0	290.60	0	4.8340	0	33.8650	0	26.797	0	287.921	0	-1e10	8	-1e10	8	-1E+10	1	-1E+10	1	-1E+10	1	-1E+10	1	-1E+10	1	-1E+10	1
4902554	23	C	09/20/2021	16:13	-136.398	49.447	0	291.70	0	4.8200	0	33.8640	0	26.798	0	289.010	0	-1e10	8	-1e10	8	-1E+10	1	-1E+10	1	-1E+10	1	-1E+10	1	-1E+10	1	-1E+10	1
4902554	23	C	09/20/2021	16:13	-136.398	49.447	0	292.70	0	4.8160	0	33.8650	0	26.799	0	290.000	0	-1e10	8	-1e10	8	-1E+10	1	-1E+10	1	-1E+10	1	-1E+10	1	-1E+10	1	-1E+10	1
4902554	23	C	09/20/2021	16:13	-136.398	49.447	0	293.80	0	4.8130	0	33.8650	0	26.799	0	291.089	0	-1e10	8	-1e10	8	-1E+10	1	-1E+10	1	-1E+10	1	-1E+10	1	-1E+10	1	-1E+10	1
4902554	23	C	09/20/2021	16:13	-136.398	49.447	0	294.80	0	4.8120	0	33.8670	0	26.801	0	292.079	0	-1e10	8	-1e10	8	-1E+10	1	-1E+10	1	-1E+10	1	-1E+10	1	-1E+10	1	-1E+10	1
4902554	23	C	09/20/2021	16:13	-136.398	49.447	0	295.90	0	4.8070	0	33.8680	0	26.802	0	293.168	0	-1e10	8	-1e10	8	-1E+10	1	-1E+10	1	-1E+10	1	-1E+10	1	-1E+10	1	-1E+10	1
4902554	23	C	09/20/2021	16:13	-136.398	49.447	0	297.00	0	4.7980	0	33.8680	0	26.803	0	294.257	0	-1e10	8	-1e10	8	-1E+10	1	-1E+10	1	-1E+10	1	-1E+10	1	-1E+10	1	-1E+10	1
4902554	23	C	09/20/2021	16:13	-136.398	49.447	0	298.00	0	4.7850	0	33.8670	0	26.804	0	295.247	0	-1e10	8	-1e10	8	-1E+10	1	-1E+10	1	-1E+10	1	-1E+10	1	-1E+10	1	-1E+10	1
4902554	23	C	09/20/2021	16:13	-136.398	49.447	0	299.10	0	4.7830	0	33.8680	0	26.805	0	296.336	0	-1e10	8	-1e10	8	-1E+10	1	-1E+10	1	-1E+10	1	-1E+10	1	-1E+10	1	-1E+10	1
4902554	23	C	09/20/2021	16:13	-136.398	49.447	0	300.20	0	4.7820	0	33.8680	0	26.805	0	297.425	0	-1e10	8	-1e10	8	-1E+10	1	-1E+10	1	-1E+10	1	-1E+10	1	-1E+10	1	-1E+10	1
4902554	23	C	09/20/2021	16:13	-136.398	49.447	0	301.20	0	4.7800	0	33.8680	0	26.805	0	298.415	0	-1e10	8	-1e10	8	-1E+10	1	-1E+10	1	-1E+10	1	-1E+10	1	-1E+10	1	-1E+10	1
4902554	23	C	09/20/2021	16:13	-136.398	49.447	0	302.30	0	4.7740	0	33.8700	0	26.807	0	299.504	0	-1e10	8	-1e10	8	-1E+10	1	-1E+10	1	-1E+10	1	-1E+10	1	-1E+10	1	-1E+10	1
4902554	23	C	09/20/2021	16:13	-136.398	49.447	0	303.40	0	4.7630	0	33.8710	0	26.809	0	300.593	0	-1e10	8	-1e10	8	-1E+10	1	-1E+10	1	-1E+10	1	-1E+10	1	-1E+10	1	-1E+10	1
4902554	23	C	09/20/2021	16:13	-136.398	49.447	0	304.40	0	4.7580	0	33.8710	0	26.810	0	301.583	0	-1e10	8	-1e10	8	-1E+10	1	-1E+10	1	-1E+10	1	-1E+10	1	-1E+10	1	-1E+10	1
4902554	23	C	09/20/2021	16:13	-136.398	49.447	0	305.50	0	4.7570	0	33.8710	0	26.810	0	302.672	0	-1e10	8	-1e10	8	-1E+10	1	-1E+10	1	-1E+10	1	-1E+10	1	-1E+10	1	-1E+10	1
4902554	23	C	09/20/2021	16:13	-136.398	49.447	0	306.90	0	4.7520	0	33.8720	0	26.812	0	304.059	0	-1e10	8	-1e10	8	-1E+10	1	-1E+10	1	-1E+10	1	-1E+10	1	-1E+10	1	-1E+10	1
4902554	23	C	09/20/2021	16:13	-136.398	49.447	0	308.10	0	4.7510	0	33.8730	0	26.812	0	305.247	0	-1e10	8	-1e10	8	-1E+10	1	-1E+10	1	-1E+10	1	-1E+10	1	-1E+10	1	-1E+10	1
4902554	23	C	09/20/2021	16:13	-136.398	49.447	0	309.00	0	4.7510	0	33.8750	0	26.814	0	306.138	0	-1e10	8	-1e10	8	-1E+10	1	-1E+10	1	-1E+10	1	-1E+10	1	-1E+10	1	-1E+10	1
4902554	23	C	09/20/2021	16:13	-136.398	49.447	0	309.80	0	4.7480	0	33.8750	0	26.814	0	306.930	0	-1e10	8	-1e10	8	-1E+10	1	-1E+10	1	-1E+10	1	-1E+10	1	-1E+10	1	-1E+10	1
4902554	23	C	09/20/2021	16:13	-136.398	49.447	0	311.00	0	4.7460	0	33.8780	0	26.817	0	308.118	0	-1e10	8	-1e10	8	-1E+10	1	-1E+10	1	-1E+10	1	-1E+10	1	-1E+10	1	-1E+10	1
4902554	23	C	09/20/2021	16:13	-136.398	49.447	0	312.20	0	4.7420	0	33.8800	0	26.819	0	309.305	0	-1e10	8	-1e10	8	-1E+10	1	-1E+10	1	-1E+10	1	-1E+10	1	-1E+10	1	-1E+10	1
4902554	23	C	09/20/2021	16:13	-136.398	49.447	0	313.00	0	4.7410	0	33.8800	0	26.819	0	310.097	0	-1e10	8	-1e10	8	-1E+10	1	-1E+10	1	-1E+10	1	-1E+10	1	-1E+10	1	-1E+10	1
4902554	23	C	09/20/2021	16:13	-136.398	49.447	0	313.80	0	4.7400	0	33.8810	0	26.820	0	310.889	0	-1e10	8	-1e10	8	-1E+10	1	-1E+10	1	-1E+10	1	-1E+10	1	-1E+10	1	-1E+10	1
4902554	23	C	09/20/2021	16:13	-136.398	49.447	0	314.70	0	4.7400	0	33.8800	0	26.819	0	311.780	0	-1e10	8	-1e10	8	-1E+10	1	-1E+10	1	-1E+10	1	-1E+10	1	-1E+10	1	-1E+10	1
4902554	23	C	09/20/2021	16:13	-136.398	49.447	0	315.90	0	4.7360	0	33.8800	0	26.820	0	312.968	0	-1e10	8	-1e10	8	-1E+10	1	-1E+10	1	-1E+10	1	-1E+10	1	-1E+10	1	-1E+10	1
4902554	23	C	09/20/2021	16:13	-136.398	49.447	0	317.10	0	4.7230	0	33.8820	0	26.823	0	314.156	0	-1e10	8	-1e10	8	-1E+10	1	-1E+10	1	-1E+10	1	-1E+10	1	-1E+10	1	-1E+10	1
4902554	23	C	09/20/2021	16:13	-136.398	49.447	0	317.90	0	4.7050	0	33.8810	0	26.824	0	314.948	0	-1e10	8	-1e10	8	-1E+10	1	-1E+10	1	-1E+10	1	-1E+10	1	-1E+10	1	-1E+10	1
4902554	23	C	09/20/2021	16:13	-136.398	49.447	0	318.70	0	4.6990	0	33.8800	0	26.824	0	315.740	0	-1e10	8	-1e10	8	-1E+10	1	-1E+10	1	-1E+10	1	-1E+10	1	-1E+10	1	-1E+10	1
4902554	23	C	09/20/2021	16:13	-136.398	49.447	0	319.90	0	4.6980	0	33.8810	0	26.825	0	316.928	0	-1e10	8	-1e10	8	-1E+10	1	-1E+10	1	-1E+10	1	-1E+10	1	-1E+10	1	-1E+10	1
4902554	23	C	09/20/2021	16:13	-136.398	49.447	0	321.10	0	4.7010	0	33.8820	0	26.825	0	318.116	0	-1e10	8	-1e10	8	-1E+10	1	-1E+10	1	-1E+10	1	-1E+10	1	-1E+10	1	-1E+10	1
4902554	23	C	09/20/2021	16:13	-136.398	49.447	0	322.00	0	4.6710	0	33.8830	0	26.829	0	319.007	0	-1e10	8	-1e10	8	-1E+10	1	-1E+10	1	-1E+10	1	-1E+10	1	-1E+10	1	-1E+10	1
4902554	23	C	09/20/2021	16:13	-136.398	49.447	0	322.80	0	4.6800	0	33.8890	0	26.833	0	319.799	0	-1e10	8	-1e10	8	-1E+10	1	-1E+10	1	-1E+10	1	-1E+10	1	-1E+10	1	-1E+10	1
4902554	23	C	09/20/2021	16:13	-136.398	49.447	0	324.00	0	4.6770	0	33.8910	0	26.835	0	320.987	0	-1e10	8	-1e10	8	-1E+10	1	-1E+10	1	-1E+10	1	-1E+10	1	-1E+10	1	-1E+10	1
4902554	23	C	09/20/2021	16:13	-136.398	49.447	0	325.30	0	4.6740	0	33.8940	0	26.838	0	322.274	0	-1e10	8	-1e10	8	-1E+10	1	-1E+10	1	-1E+10	1	-1E+10	1	-1E+10	1	-1E+10	1
4902554	23	C	09/20/2021	16:13	-136.398	49.447	0	326.10	0	4.6750	0	33.8930	0	26.837	0	323.066	0	-1e10	8	-1e10	8	-1E+10	1	-1E+10	1	-1E+10	1	-1E+10	1	-1E+10	1	-1E+10	1
4902554	23	C	09/20/2021	16:13	-136.398	49.447	0	326.90	0	4.6720	0	33.8940	0	26.838	0	323.858	0	-1e10	8	-1e10	8	-1E+10	1	-1E+10	1	-1E+10	1	-1E+10	1	-1E+10	1	-1E+10	1
4902554	23	C	09/20/2021	16:13	-136.398	49.447	0	327.70	0	4.6710	0	33.8930	0	26.837	0	324.650	0	-1e10	8	-1e10	8	-1E+10	1	-1E+10	1	-1E+10	1	-1E+10	1	-1E+10	1	-1E+10	1
4902554	23	C	09/20/2021	16:13	-136.398	49.447	0	328.90	0	4.6410	0	33.8910	0	26.839	0	325.838	0	-1e10	8	-1e10	8	-1E+10	1	-1E+10	1	-1E+10	1	-1E+10	1	-1E+10	1	-1E+10	1
4902554	23	C	09/20/2021	16:13	-136.398	49.447	0	330.20	0	4.6240	0	33.8930	0	26.842	0	327.124	0	-1e10	8	-1e10	8	-1E+10	1	-1E+10	1	-1E+10	1	-1E+10	1	-1E+10	1	-1E+10	1
4902554	23	C	09/20/2021	16:13	-136.398	49.447	0	331.10	0	4.6200	0	33.8940	0	26.844	0	328.015	0	-1e10	8	-1e10	8	-1E+10	1	-1E+10	1	-1E+10	1	-1E+10	1	-1E+10	1	-1E+10	1
4902554	23	C	09/20/2021	16:13	-136.398	49.447	0	331.90	0	4.6140	0	33.8960	0	26.846	0	328.807	0	-1e10	8	-1e10	8	-1E+10	1	-1E+10	1	-1E+10	1	-1E+10	1	-1E+10	1	-1E+10	1
4902554	23	C	09/20/2021	16:13	-136.398	49.447	0	332.80	0	4.6120	0	33.8960	0	26.846	0	329.698	0	-1e10	8	-1e10	8	-1E+10	1	-1E+10	1	-1E+10	1	-1E+10	1	-1E+10	1	-1E+10	1
4902554	23	C	09/20/2021	16:13	-136.398	49.447	0	334.00	0	4.6090	0	33.8970	0	26.847	0	330.886	0	-1e10	8	-1e10	8	-1E+10	1	-1E+10	1	-1E+10	1	-1E+10	1	-1E+10	1	-1E+10	1
4902554	23	C	09/20/2021	16:13	-136.398	49.447	0	335.30	0	4.6050	0	33.9000	0	26.850	0	332.173	0	-1e10	8	-1e10	8	-1E+10	1	-1E+10	1	-1E+10	1	-1E+10	1	-1E+10	1	-1E+10	1
4902554	23	C	09/20/2021	16:13	-136.398	49.447	0	336.10	0	4.6020	0	33.9010	0	26.851	0	332.965	0	-1e10	8	-1e10	8	-1E+10	1	-1E+10	1	-1E+10	1	-1E+10	1	-1E+10	1	-1E+10	1
4902554	23	C	09/20/2021	16:13	-136.398	49.447	0	337.00	0	4.5990	0	33.9030	0	26.853	0	333.856	0	-1e10	8	-1e10	8	-1E+10	1	-1E+10	1	-1E+10	1	-1E+10	1	-1E+10	1	-1E+10	1
4902554	23	C	09/20/2021	16:13	-136.398	49.447	0	337.80	0	4.5930	0	33.9040	0	26.855	0	334.647	0	-1e10	8	-1e10	8	-1E+10	1	-1E+10	1	-1E+10	1	-1E+10	1	-1E+10	1	-1E+10	1
4902554	23	C	09/20/2021	16:13	-136.398	49.447	0	338.60	0	4.5910	0	33.9050	0	26.856	0	335.439	0	-1e10	8	-1e10	8	-1E+10	1	-1E+10	1	-1E+10	1	-1E+10	1	-1E+10	1	-1E+10	1
4902554	23	C	09/20/2021	16:13	-136.398	49.447	0	339.90	0	4.5860	0	33.9070	0	26.858	0	336.726	0	-1e10	8	-1e10	8	-1E+10	1	-1E+10	1	-1E+10	1	-1E+10	1	-1E+10	1	-1E+10	1
4902554	23	C	09/20/2021	16:13	-136.398	49.447	0	341.20	0	4.5810	0	33.9090	0	26.860	0	338.013	0	-1e10	8	-1e10	8	-1E+10	1	-1E+10	1	-1E+10	1	-1E+10	1	-1E+10	1	-1E+10	1
4902554	23	C	09/20/2021	16:13	-136.398	49.447	0	342.10	0	4.5800	0	33.9090	0	26.860	0	338.904	0	-1e10	8	-1e10	8	-1E+10	1	-1E+10	1	-1E+10	1	-1E+10	1	-1E+10	1	-1E+10	1
4902554	23	C	09/20/2021	16:13	-136.398	49.447	0	342.90	0	4.5800	0	33.9090	0	26.860	0	339.696	0	-1e10	8	-1e10	8	-1E+10	1	-1E+10	1	-1E+10	1	-1E+10	1	-1E+10	1	-1E+10	1
4902554	23	C	09/20/2021	16:13	-136.398	49.447	0	343.80	0	4.5790	0	33.9100	0	26.861	0	340.587	0	-1e10	8	-1e10	8	-1E+10	1	-1E+10	1	-1E+10	1	-1E+10	1	-1E+10	1	-1E+10	1
4902554	23	C	09/20/2021	16:13	-136.398	49.447	0	344.70	0	4.5790	0	33.9100	0	26.861	0	341.477	0	-1e10	8	-1e10	8	-1E+10	1	-1E+10	1	-1E+10	1	-1E+10	1	-1E+10	1	-1E+10	1
4902554	23	C	09/20/2021	16:13	-136.398	49.447	0	345.90	0	4.5690	0	33.9130	0	26.864	0	342.665	0	-1e10	8	-1e10	8	-1E+10	1	-1E+10	1	-1E+10	1	-1E+10	1	-1E+10	1	-1E+10	1
4902554	23	C	09/20/2021	16:13	-136.398	49.447	0	347.30	0	4.5630	0	33.9150	0	26.867	0	344.051	0	-1e10	8	-1e10	8	-1E+10	1	-1E+10	1	-1E+10	1	-1E+10	1	-1E+10	1	-1E+10	1
4902554	23	C	09/20/2021	16:13	-136.398	49.447	0	348.20	0	4.5620	0	33.9150	0	26.867	0	344.942	0	-1e10	8	-1e10	8	-1E+10	1	-1E+10	1	-1E+10	1	-1E+10	1	-1E+10	1	-1E+10	1
4902554	23	C	09/20/2021	16:13	-136.398	49.447	0	349.10	0	4.5600	0	33.9160	0	26.868	0	345.833	0	-1e10	8	-1e10	8	-1E+10	1	-1E+10	1	-1E+10	1	-1E+10	1	-1E+10	1	-1E+10	1
4902554	23	C	09/20/2021	16:13	-136.398	49.447	0	349.90	0	4.5560	0	33.9180	0	26.870	0	346.624	0	-1e10	8	-1e10	8	-1E+10	1	-1E+10	1	-1E+10	1	-1E+10	1	-1E+10	1	-1E+10	1
4902554	23	C	09/20/2021	16:13	-136.398	49.447	0	353.00	0	4.5490	0	33.9210	0	26.873	0	349.693	0	-1e10	8	-1e10	8	-1E+10	1	-1E+10	1	-1E+10	1	-1E+10	1	-1E+10	1	-1E+10	1
4902554	23	C	09/20/2021	16:13	-136.398	49.447	0	358.00	0	4.5280	0	33.9310	0	26.883	0	354.642	0	-1e10	8	-1e10	8	-1E+10	1	-1E+10	1	-1E+10	1	-1E+10	1	-1E+10	1	-1E+10	1
4902554	23	C	09/20/2021	16:13	-136.398	49.447	0	362.90	0	4.5150	0	33.9400	0	26.892	0	359.491	0	-1e10	8	-1e10	8	-1E+10	1	-1E+10	1	-1E+10	1	-1E+10	1	-1E+10	1	-1E+10	1
4902554	23	C	09/20/2021	16:13	-136.398	49.447	0	367.90	0	4.4970	0	33.9460	0	26.899	0	364.440	0	-1e10	8	-1e10	8	-1E+10	1	-1E+10	1	-1E+10	1	-1E+10	1	-1E+10	1	-1E+10	1
4902554	23	C	09/20/2021	16:13	-136.398	49.447	0	372.90	0	4.4850	0	33.9510	0	26.904	0	369.389	0	-1e10	8	-1e10	8	-1E+10	1	-1E+10	1	-1E+10	1	-1E+10	1	-1E+10	1	-1E+10	1
4902554	23	C	09/20/2021	16:13	-136.398	49.447	0	378.00	0	4.4710	0	33.9570	0	26.910	0	374.436	0	-1e10	8	-1e10	8	-1E+10	1	-1E+10	1	-1E+10	1	-1E+10	1	-1E+10	1	-1E+10	1
4902554	23	C	09/20/2021	16:13	-136.398	49.447	0	382.80	0	4.4580	0	33.9630	0	26.916	0	379.186	0	-1e10	8	-1e10	8	-1E+10	1	-1E+10	1	-1E+10	1	-1E+10	1	-1E+10	1	-1E+10	1
4902554	23	C	09/20/2021	16:13	-136.398	49.447	0	387.60	0	4.4410	0	33.9660	0	26.921	0	383.937	0	-1e10	8	-1e10	8	-1E+10	1	-1E+10	1	-1E+10	1	-1E+10	1	-1E+10	1	-1E+10	1
4902554	23	C	09/20/2021	16:13	-136.398	49.447	0	392.60	0	4.4290	0	33.9690	0	26.924	0	388.885	0	-1e10	8	-1e10	8	-1E+10	1	-1E+10	1	-1E+10	1	-1E+10	1	-1E+10	1	-1E+10	1
4902554	23	C	09/20/2021	16:13	-136.398	49.447	0	397.60	0	4.4230	0	33.9710	0	26.927	0	393.833	0	-1e10	8	-1e10	8	-1E+10	1	-1E+10	1	-1E+10	1	-1E+10	1	-1E+10	1	-1E+10	1
4902554	23	C	09/20/2021	16:13	-136.398	49.447	0	402.60	0	4.4050	0	33.9770	0	26.933	0	398.780	0	-1e10	8	-1e10	8	-1E+10	1	-1E+10	1	-1E+10	1	-1E+10	1	-1E+10	1	-1E+10	1
4902554	23	C	09/20/2021	16:13	-136.398	49.447	0	407.80	0	4.3790	0	33.9820	0	26.940	0	403.926	0	-1e10	8	-1e10	8	-1E+10	1	-1E+10	1	-1E+10	1	-1E+10	1	-1E+10	1	-1E+10	1
4902554	23	C	09/20/2021	16:13	-136.398	49.447	0	413.00	0	4.3610	0	33.9860	0	26.945	0	409.072	0	-1e10	8	-1e10	8	-1E+10	1	-1E+10	1	-1E+10	1	-1E+10	1	-1E+10	1	-1E+10	1
4902554	23	C	09/20/2021	16:13	-136.398	49.447	0	417.80	0	4.3400	0	33.9900	0	26.951	0	413.821	0	-1e10	8	-1e10	8	-1E+10	1	-1E+10	1	-1E+10	1	-1E+10	1	-1E+10	1	-1E+10	1
4902554	23	C	09/20/2021	16:13	-136.398	49.447	0	422.70	0	4.3310	0	33.9950	0	26.956	0	418.669	0	-1e10	8	-1e10	8	-1E+10	1	-1E+10	1	-1E+10	1	-1E+10	1	-1E+10	1	-1E+10	1
4902554	23	C	09/20/2021	16:13	-136.398	49.447	0	428.10	0	4.3210	0	34.0000	0	26.961	0	424.012	0	-1e10	8	-1e10	8	-1E+10	1	-1E+10	1	-1E+10	1	-1E+10	1	-1E+10	1	-1E+10	1
4902554	23	C	09/20/2021	16:13	-136.398	49.447	0	433.00	0	4.3120	0	34.0040	0	26.965	0	428.861	0	-1e10	8	-1e10	8	-1E+10	1	-1E+10	1	-1E+10	1	-1E+10	1	-1E+10	1	-1E+10	1
4902554	23	C	09/20/2021	16:13	-136.398	49.447	0	437.80	0	4.3020	0	34.0070	0	26.968	0	433.610	0	-1e10	8	-1e10	8	-1E+10	1	-1E+10	1	-1E+10	1	-1E+10	1	-1E+10	1	-1E+10	1
4902554	23	C	09/20/2021	16:13	-136.398	49.447	0	442.70	0	4.2870	0	34.0140	0	26.975	0	438.458	0	-1e10	8	-1e10	8	-1E+10	1	-1E+10	1	-1E+10	1	-1E+10	1	-1E+10	1	-1E+10	1
4902554	23	C	09/20/2021	16:13	-136.398	49.447	0	447.70	0	4.2760	0	34.0190	0	26.981	0	443.404	0	-1e10	8	-1e10	8	-1E+10	1	-1E+10	1	-1E+10	1	-1E+10	1	-1E+10	1	-1E+10	1
4902554	23	C	09/20/2021	16:13	-136.398	49.447	0	452.70	0	4.2640	0	34.0230	0	26.985	0	448.351	0	-1e10	8	-1e10	8	-1E+10	1	-1E+10	1	-1E+10	1	-1E+10	1	-1E+10	1	-1E+10	1
4902554	23	C	09/20/2021	16:13	-136.398	49.447	0	457.70	0	4.2560	0	34.0260	0	26.988	0	453.298	0	-1e10	8	-1e10	8	-1E+10	1	-1E+10	1	-1E+10	1	-1E+10	1	-1E+10	1	-1E+10	1
4902554	23	C	09/20/2021	16:13	-136.398	49.447	0	462.80	0	4.2510	0	34.0280	0	26.991	0	458.343	0	-1e10	8	-1e10	8	-1E+10	1	-1E+10	1	-1E+10	1	-1E+10	1	-1E+10	1	-1E+10	1
4902554	23	C	09/20/2021	16:13	-136.398	49.447	0	467.90	0	4.2460	0	34.0350	0	26.997	0	463.388	0	-1e10	8	-1e10	8	-1E+10	1	-1E+10	1	-1E+10	1	-1E+10	1	-1E+10	1	-1E+10	1
4902554	23	C	09/20/2021	16:13	-136.398	49.447	0	473.00	0	4.2450	0	34.0390	0	27.000	0	468.433	0	-1e10	8	-1e10	8	-1E+10	1	-1E+10	1	-1E+10	1	-1E+10	1	-1E+10	1	-1E+10	1
4902554	23	C	09/20/2021	16:13	-136.398	49.447	0	478.20	0	4.2330	0	34.0430	0	27.004	0	473.577	0	-1e10	8	-1e10	8	-1E+10	1	-1E+10	1	-1E+10	1	-1E+10	1	-1E+10	1	-1E+10	1
4902554	23	C	09/20/2021	16:13	-136.398	49.447	0	483.00	0	4.2310	0	34.0470	0	27.008	0	478.325	0	-1e10	8	-1e10	8	-1E+10	1	-1E+10	1	-1E+10	1	-1E+10	1	-1E+10	1	-1E+10	1
4902554	23	C	09/20/2021	16:13	-136.398	49.447	0	487.70	0	4.2310	0	34.0510	0	27.011	0	482.974	0	-1e10	8	-1e10	8	-1E+10	1	-1E+10	1	-1E+10	1	-1E+10	1	-1E+10	1	-1E+10	1
4902554	23	C	09/20/2021	16:13	-136.398	49.447	0	492.90	0	4.2300	0	34.0570	0	27.016	0	488.118	0	-1e10	8	-1e10	8	-1E+10	1	-1E+10	1	-1E+10	1	-1E+10	1	-1E+10	1	-1E+10	1
4902554	23	C	09/20/2021	16:13	-136.398	49.447	0	498.10	0	4.2140	0	34.0640	0	27.023	0	493.261	0	-1e10	8	-1e10	8	-1E+10	1	-1E+10	1	-1E+10	1	-1E+10	1	-1E+10	1	-1E+10	1
4902554	23	C	09/20/2021	16:13	-136.398	49.447	0	502.80	0	4.2020	0	34.0680	0	27.028	0	497.910	0	-1e10	8	-1e10	8	-1E+10	1	-1E+10	1	-1E+10	1	-1E+10	1	-1E+10	1	-1E+10	1
4902554	23	C	09/20/2021	16:13	-136.398	49.447	0	507.60	0	4.1890	0	34.0720	0	27.032	0	502.657	0	-1e10	8	-1e10	8	-1E+10	1	-1E+10	1	-1E+10	1	-1E+10	1	-1E+10	1	-1E+10	1
4902554	23	C	09/20/2021	16:13	-136.398	49.447	0	512.70	0	4.1650	0	34.0780	0	27.040	0	507.701	0	-1e10	8	-1e10	8	-1E+10	1	-1E+10	1	-1E+10	1	-1E+10	1	-1E+10	1	-1E+10	1
4902554	23	C	09/20/2021	16:13	-136.398	49.447	0	517.90	0	4.1560	0	34.0830	0	27.045	0	512.844	0	-1e10	8	-1e10	8	-1E+10	1	-1E+10	1	-1E+10	1	-1E+10	1	-1E+10	1	-1E+10	1
4902554	23	C	09/20/2021	16:13	-136.398	49.447	0	522.90	0	4.1350	0	34.0860	0	27.049	0	517.789	0	-1e10	8	-1e10	8	-1E+10	1	-1E+10	1	-1E+10	1	-1E+10	1	-1E+10	1	-1E+10	1
4902554	23	C	09/20/2021	16:13	-136.398	49.447	0	528.00	0	4.1220	0	34.0910	0	27.055	0	522.833	0	-1e10	8	-1e10	8	-1E+10	1	-1E+10	1	-1E+10	1	-1E+10	1	-1E+10	1	-1E+10	1
4902554	23	C	09/20/2021	16:13	-136.398	49.447	0	533.10	0	4.1090	0	34.0950	0	27.059	0	527.877	0	-1e10	8	-1e10	8	-1E+10	1	-1E+10	1	-1E+10	1	-1E+10	1	-1E+10	1	-1E+10	1
4902554	23	C	09/20/2021	16:13	-136.398	49.447	0	538.00	0	4.0960	0	34.0980	0	27.063	0	532.722	0	-1e10	8	-1e10	8	-1E+10	1	-1E+10	1	-1E+10	1	-1E+10	1	-1E+10	1	-1E+10	1
4902554	23	C	09/20/2021	16:13	-136.398	49.447	0	543.10	0	4.0740	0	34.1040	0	27.070	0	537.766	0	-1e10	8	-1e10	8	-1E+10	1	-1E+10	1	-1E+10	1	-1E+10	1	-1E+10	1	-1E+10	1
4902554	23	C	09/20/2021	16:13	-136.398	49.447	0	548.20	0	4.0570	0	34.1130	0	27.079	0	542.809	0	-1e10	8	-1e10	8	-1E+10	1	-1E+10	1	-1E+10	1	-1E+10	1	-1E+10	1	-1E+10	1
4902554	23	C	09/20/2021	16:13	-136.398	49.447	0	553.00	0	4.0430	0	34.1170	0	27.084	0	547.555	0	-1e10	8	-1e10	8	-1E+10	1	-1E+10	1	-1E+10	1	-1E+10	1	-1E+10	1	-1E+10	1
4902554	23	C	09/20/2021	16:13	-136.398	49.447	0	557.90	0	4.0310	0	34.1200	0	27.087	0	552.401	0	-1e10	8	-1e10	8	-1E+10	1	-1E+10	1	-1E+10	1	-1E+10	1	-1E+10	1	-1E+10	1
4902554	23	C	09/20/2021	16:13	-136.398	49.447	0	562.90	0	4.0250	0	34.1220	0	27.089	0	557.345	0	-1e10	8	-1e10	8	-1E+10	1	-1E+10	1	-1E+10	1	-1E+10	1	-1E+10	1	-1E+10	1
4902554	23	C	09/20/2021	16:13	-136.398	49.447	0	568.00	0	4.0100	0	34.1280	0	27.096	0	562.387	0	-1e10	8	-1e10	8	-1E+10	1	-1E+10	1	-1E+10	1	-1E+10	1	-1E+10	1	-1E+10	1
4902554	23	C	09/20/2021	16:13	-136.398	49.447	0	573.10	0	3.9970	0	34.1320	0	27.100	0	567.430	0	-1e10	8	-1e10	8	-1E+10	1	-1E+10	1	-1E+10	1	-1E+10	1	-1E+10	1	-1E+10	1
4902554	23	C	09/20/2021	16:13	-136.398	49.447	0	577.70	0	3.9840	0	34.1350	0	27.104	0	571.978	0	-1e10	8	-1e10	8	-1E+10	1	-1E+10	1	-1E+10	1	-1E+10	1	-1E+10	1	-1E+10	1
4902554	23	C	09/20/2021	16:13	-136.398	49.447	0	582.80	0	3.9730	0	34.1400	0	27.109	0	577.021	0	-1e10	8	-1e10	8	-1E+10	1	-1E+10	1	-1E+10	1	-1E+10	1	-1E+10	1	-1E+10	1
4902554	23	C	09/20/2021	16:13	-136.398	49.447	0	588.10	0	3.9630	0	34.1440	0	27.113	0	582.261	0	-1e10	8	-1e10	8	-1E+10	1	-1E+10	1	-1E+10	1	-1E+10	1	-1E+10	1	-1E+10	1
4902554	23	C	09/20/2021	16:13	-136.398	49.447	0	592.90	0	3.9560	0	34.1460	0	27.116	0	587.006	0	-1e10	8	-1e10	8	-1E+10	1	-1E+10	1	-1E+10	1	-1E+10	1	-1E+10	1	-1E+10	1
4902554	23	C	09/20/2021	16:13	-136.398	49.447	0	597.90	0	3.9500	0	34.1490	0	27.119	0	591.949	0	-1e10	8	-1e10	8	-1E+10	1	-1E+10	1	-1E+10	1	-1E+10	1	-1E+10	1	-1E+10	1
4902554	23	C	09/20/2021	16:13	-136.398	49.447	0	602.90	0	3.9420	0	34.1510	0	27.121	0	596.893	0	-1e10	8	-1e10	8	-1E+10	1	-1E+10	1	-1E+10	1	-1E+10	1	-1E+10	1	-1E+10	1
4902554	23	C	09/20/2021	16:13	-136.398	49.447	0	608.10	0	3.9320	0	34.1550	0	27.125	0	602.033	0	-1e10	8	-1e10	8	-1E+10	1	-1E+10	1	-1E+10	1	-1E+10	1	-1E+10	1	-1E+10	1
4902554	23	C	09/20/2021	16:13	-136.398	49.447	0	612.90	0	3.9120	0	34.1620	0	27.133	0	606.778	0	-1e10	8	-1e10	8	-1E+10	1	-1E+10	1	-1E+10	1	-1E+10	1	-1E+10	1	-1E+10	1
4902554	23	C	09/20/2021	16:13	-136.398	49.447	0	617.90	0	3.9020	0	34.1650	0	27.136	0	611.721	0	-1e10	8	-1e10	8	-1E+10	1	-1E+10	1	-1E+10	1	-1E+10	1	-1E+10	1	-1E+10	1
4902554	23	C	09/20/2021	16:13	-136.398	49.447	0	622.80	0	3.8810	0	34.1720	0	27.144	0	616.565	0	-1e10	8	-1e10	8	-1E+10	1	-1E+10	1	-1E+10	1	-1E+10	1	-1E+10	1	-1E+10	1
4902554	23	C	09/20/2021	16:13	-136.398	49.447	0	627.80	0	3.8660	0	34.1780	0	27.151	0	621.507	0	-1e10	8	-1e10	8	-1E+10	1	-1E+10	1	-1E+10	1	-1E+10	1	-1E+10	1	-1E+10	1
4902554	23	C	09/20/2021	16:13	-136.398	49.447	0	632.80	0	3.8510	0	34.1830	0	27.156	0	626.450	0	-1e10	8	-1e10	8	-1E+10	1	-1E+10	1	-1E+10	1	-1E+10	1	-1E+10	1	-1E+10	1
4902554	23	C	09/20/2021	16:13	-136.398	49.447	0	637.90	0	3.8410	0	34.1850	0	27.159	0	631.491	0	-1e10	8	-1e10	8	-1E+10	1	-1E+10	1	-1E+10	1	-1E+10	1	-1E+10	1	-1E+10	1
4902554	23	C	09/20/2021	16:13	-136.398	49.447	0	643.10	0	3.8260	0	34.1900	0	27.164	0	636.631	0	-1e10	8	-1e10	8	-1E+10	1	-1E+10	1	-1E+10	1	-1E+10	1	-1E+10	1	-1E+10	1
4902554	23	C	09/20/2021	16:13	-136.398	49.447	0	647.80	0	3.8210	0	34.1920	0	27.166	0	641.276	0	-1e10	8	-1e10	8	-1E+10	1	-1E+10	1	-1E+10	1	-1E+10	1	-1E+10	1	-1E+10	1
4902554	23	C	09/20/2021	16:13	-136.398	49.447	0	652.70	0	3.8150	0	34.1930	0	27.168	0	646.119	0	-1e10	8	-1e10	8	-1E+10	1	-1E+10	1	-1E+10	1	-1E+10	1	-1E+10	1	-1E+10	1
4902554	23	C	09/20/2021	16:13	-136.398	49.447	0	658.10	0	3.8040	0	34.1960	0	27.171	0	651.456	0	-1e10	8	-1e10	8	-1E+10	1	-1E+10	1	-1E+10	1	-1E+10	1	-1E+10	1	-1E+10	1
4902554	23	C	09/20/2021	16:13	-136.398	49.447	0	663.10	0	3.7950	0	34.1980	0	27.174	0	656.398	0	-1e10	8	-1e10	8	-1E+10	1	-1E+10	1	-1E+10	1	-1E+10	1	-1E+10	1	-1E+10	1
4902554	23	C	09/20/2021	16:13	-136.398	49.447	0	668.10	0	3.7850	0	34.2010	0	27.177	0	661.339	0	-1e10	8	-1e10	8	-1E+10	1	-1E+10	1	-1E+10	1	-1E+10	1	-1E+10	1	-1E+10	1
4902554	23	C	09/20/2021	16:13	-136.398	49.447	0	673.10	0	3.7740	0	34.2050	0	27.182	0	666.281	0	-1e10	8	-1e10	8	-1E+10	1	-1E+10	1	-1E+10	1	-1E+10	1	-1E+10	1	-1E+10	1
4902554	23	C	09/20/2021	16:13	-136.398	49.447	0	678.10	0	3.7660	0	34.2070	0	27.184	0	671.222	0	-1e10	8	-1e10	8	-1E+10	1	-1E+10	1	-1E+10	1	-1E+10	1	-1E+10	1	-1E+10	1
4902554	23	C	09/20/2021	16:13	-136.398	49.447	0	683.10	0	3.7580	0	34.2090	0	27.186	0	676.163	0	-1e10	8	-1e10	8	-1E+10	1	-1E+10	1	-1E+10	1	-1E+10	1	-1E+10	1	-1E+10	1
4902554	23	C	09/20/2021	16:13	-136.398	49.447	0	687.90	0	3.7490	0	34.2110	0	27.189	0	680.907	0	-1e10	8	-1e10	8	-1E+10	1	-1E+10	1	-1E+10	1	-1E+10	1	-1E+10	1	-1E+10	1
4902554	23	C	09/20/2021	16:13	-136.398	49.447	0	692.90	0	3.7310	0	34.2150	0	27.194	0	685.848	0	-1e10	8	-1e10	8	-1E+10	1	-1E+10	1	-1E+10	1	-1E+10	1	-1E+10	1	-1E+10	1
4902554	23	C	09/20/2021	16:13	-136.398	49.447	0	697.80	0	3.7140	0	34.2190	0	27.199	0	690.690	0	-1e10	8	-1e10	8	-1E+10	1	-1E+10	1	-1E+10	1	-1E+10	1	-1E+10	1	-1E+10	1
4902554	23	C	09/20/2021	16:13	-136.398	49.447	0	702.70	0	3.7030	0	34.2220	0	27.202	0	695.532	0	-1e10	8	-1e10	8	-1E+10	1	-1E+10	1	-1E+10	1	-1E+10	1	-1E+10	1	-1E+10	1
4902554	23	C	09/20/2021	16:13	-136.398	49.447	0	707.70	0	3.6910	0	34.2260	0	27.207	0	700.472	0	-1e10	8	-1e10	8	-1E+10	1	-1E+10	1	-1E+10	1	-1E+10	1	-1E+10	1	-1E+10	1
4902554	23	C	09/20/2021	16:13	-136.398	49.447	0	713.10	0	3.6720	0	34.2300	0	27.212	0	705.808	0	-1e10	8	-1e10	8	-1E+10	1	-1E+10	1	-1E+10	1	-1E+10	1	-1E+10	1	-1E+10	1
4902554	23	C	09/20/2021	16:13	-136.398	49.447	0	718.00	0	3.6550	0	34.2340	0	27.217	0	710.649	0	-1e10	8	-1e10	8	-1E+10	1	-1E+10	1	-1E+10	1	-1E+10	1	-1E+10	1	-1E+10	1
4902554	23	C	09/20/2021	16:13	-136.398	49.447	0	722.90	0	3.6420	0	34.2360	0	27.220	0	715.491	0	-1e10	8	-1e10	8	-1E+10	1	-1E+10	1	-1E+10	1	-1E+10	1	-1E+10	1	-1E+10	1
4902554	23	C	09/20/2021	16:13	-136.398	49.447	0	727.90	0	3.6260	0	34.2400	0	27.224	0	720.431	0	-1e10	8	-1e10	8	-1E+10	1	-1E+10	1	-1E+10	1	-1E+10	1	-1E+10	1	-1E+10	1
4902554	23	C	09/20/2021	16:13	-136.398	49.447	0	733.00	0	3.6120	0	34.2430	0	27.228	0	725.470	0	-1e10	8	-1e10	8	-1E+10	1	-1E+10	1	-1E+10	1	-1E+10	1	-1E+10	1	-1E+10	1
4902554	23	C	09/20/2021	16:13	-136.398	49.447	0	738.10	0	3.5990	0	34.2460	0	27.232	0	730.508	0	-1e10	8	-1e10	8	-1E+10	1	-1E+10	1	-1E+10	1	-1E+10	1	-1E+10	1	-1E+10	1
4902554	23	C	09/20/2021	16:13	-136.398	49.447	0	743.10	0	3.5880	0	34.2490	0	27.235	0	735.448	0	-1e10	8	-1e10	8	-1E+10	1	-1E+10	1	-1E+10	1	-1E+10	1	-1E+10	1	-1E+10	1
4902554	23	C	09/20/2021	16:13	-136.398	49.447	0	748.10	0	3.5860	0	34.2500	0	27.236	0	740.388	0	-1e10	8	-1e10	8	-1E+10	1	-1E+10	1	-1E+10	1	-1E+10	1	-1E+10	1	-1E+10	1
4902554	23	C	09/20/2021	16:13	-136.398	49.447	0	752.70	0	3.5720	0	34.2530	0	27.240	0	744.932	0	-1e10	8	-1e10	8	-1E+10	1	-1E+10	1	-1E+10	1	-1E+10	1	-1E+10	1	-1E+10	1
4902554	23	C	09/20/2021	16:13	-136.398	49.447	0	757.90	0	3.5570	0	34.2570	0	27.245	0	750.069	0	-1e10	8	-1e10	8	-1E+10	1	-1E+10	1	-1E+10	1	-1E+10	1	-1E+10	1	-1E+10	1
4902554	23	C	09/20/2021	16:13	-136.398	49.447	0	763.00	0	3.5450	0	34.2580	0	27.247	0	755.107	0	-1e10	8	-1e10	8	-1E+10	1	-1E+10	1	-1E+10	1	-1E+10	1	-1E+10	1	-1E+10	1
4902554	23	C	09/20/2021	16:13	-136.398	49.447	0	767.70	0	3.5320	0	34.2600	0	27.250	0	759.750	0	-1e10	8	-1e10	8	-1E+10	1	-1E+10	1	-1E+10	1	-1E+10	1	-1E+10	1	-1E+10	1
4902554	23	C	09/20/2021	16:13	-136.398	49.447	0	772.80	0	3.5160	0	34.2640	0	27.254	0	764.788	0	-1e10	8	-1e10	8	-1E+10	1	-1E+10	1	-1E+10	1	-1E+10	1	-1E+10	1	-1E+10	1
4902554	23	C	09/20/2021	16:13	-136.398	49.447	0	778.00	0	3.5070	0	34.2670	0	27.258	0	769.925	0	-1e10	8	-1e10	8	-1E+10	1	-1E+10	1	-1E+10	1	-1E+10	1	-1E+10	1	-1E+10	1
4902554	23	C	09/20/2021	16:13	-136.398	49.447	0	782.70	0	3.5000	0	34.2690	0	27.260	0	774.567	0	-1e10	8	-1e10	8	-1E+10	1	-1E+10	1	-1E+10	1	-1E+10	1	-1E+10	1	-1E+10	1
4902554	23	C	09/20/2021	16:13	-136.398	49.447	0	788.00	0	3.4910	0	34.2720	0	27.263	0	779.802	0	-1e10	8	-1e10	8	-1E+10	1	-1E+10	1	-1E+10	1	-1E+10	1	-1E+10	1	-1E+10	1
4902554	23	C	09/20/2021	16:13	-136.398	49.447	0	793.30	0	3.4760	0	34.2750	0	27.267	0	785.037	0	-1e10	8	-1e10	8	-1E+10	1	-1E+10	1	-1E+10	1	-1E+10	1	-1E+10	1	-1E+10	1
4902554	23	C	09/20/2021	16:13	-136.398	49.447	0	798.10	0	3.4620	0	34.2780	0	27.271	0	789.778	0	-1e10	8	-1e10	8	-1E+10	1	-1E+10	1	-1E+10	1	-1E+10	1	-1E+10	1	-1E+10	1
4902554	23	C	09/20/2021	16:13	-136.398	49.447	0	803.00	0	3.4530	0	34.2810	0	27.274	0	794.617	0	-1e10	8	-1e10	8	-1E+10	1	-1E+10	1	-1E+10	1	-1E+10	1	-1E+10	1	-1E+10	1
4902554	23	C	09/20/2021	16:13	-136.398	49.447	0	808.00	0	3.4460	0	34.2830	0	27.276	0	799.556	0	-1e10	8	-1e10	8	-1E+10	1	-1E+10	1	-1E+10	1	-1E+10	1	-1E+10	1	-1E+10	1
4902554	23	C	09/20/2021	16:13	-136.398	49.447	0	813.00	0	3.4370	0	34.2850	0	27.279	0	804.494	0	-1e10	8	-1e10	8	-1E+10	1	-1E+10	1	-1E+10	1	-1E+10	1	-1E+10	1	-1E+10	1
4902554	23	C	09/20/2021	16:13	-136.398	49.447	0	818.10	0	3.4190	0	34.2870	0	27.282	0	809.531	0	-1e10	8	-1e10	8	-1E+10	1	-1E+10	1	-1E+10	1	-1E+10	1	-1E+10	1	-1E+10	1
4902554	23	C	09/20/2021	16:13	-136.398	49.447	0	823.20	0	3.4030	0	34.2900	0	27.286	0	814.567	0	-1e10	8	-1e10	8	-1E+10	1	-1E+10	1	-1E+10	1	-1E+10	1	-1E+10	1	-1E+10	1
4902554	23	C	09/20/2021	16:13	-136.398	49.447	0	828.20	0	3.3950	0	34.2920	0	27.289	0	819.505	0	-1e10	8	-1e10	8	-1E+10	1	-1E+10	1	-1E+10	1	-1E+10	1	-1E+10	1	-1E+10	1
4902554	23	C	09/20/2021	16:13	-136.398	49.447	0	832.80	0	3.3870	0	34.2940	0	27.291	0	824.048	0	-1e10	8	-1e10	8	-1E+10	1	-1E+10	1	-1E+10	1	-1E+10	1	-1E+10	1	-1E+10	1
4902554	23	C	09/20/2021	16:13	-136.398	49.447	0	838.00	0	3.3730	0	34.2950	0	27.293	0	829.183	0	-1e10	8	-1e10	8	-1E+10	1	-1E+10	1	-1E+10	1	-1E+10	1	-1E+10	1	-1E+10	1
4902554	23	C	09/20/2021	16:13	-136.398	49.447	0	843.20	0	3.3580	0	34.2980	0	27.297	0	834.318	0	-1e10	8	-1e10	8	-1E+10	1	-1E+10	1	-1E+10	1	-1E+10	1	-1E+10	1	-1E+10	1
4902554	23	C	09/20/2021	16:13	-136.398	49.447	0	848.10	0	3.3410	0	34.3010	0	27.301	0	839.156	0	-1e10	8	-1e10	8	-1E+10	1	-1E+10	1	-1E+10	1	-1E+10	1	-1E+10	1	-1E+10	1
4902554	23	C	09/20/2021	16:13	-136.398	49.447	0	853.00	0	3.3320	0	34.3030	0	27.303	0	843.995	0	-1e10	8	-1e10	8	-1E+10	1	-1E+10	1	-1E+10	1	-1E+10	1	-1E+10	1	-1E+10	1
4902554	23	C	09/20/2021	16:13	-136.398	49.447	0	858.10	0	3.3210	0	34.3050	0	27.306	0	849.030	0	-1e10	8	-1e10	8	-1E+10	1	-1E+10	1	-1E+10	1	-1E+10	1	-1E+10	1	-1E+10	1
4902554	23	C	09/20/2021	16:13	-136.398	49.447	0	863.10	0	3.3140	0	34.3080	0	27.309	0	853.967	0	-1e10	8	-1e10	8	-1E+10	1	-1E+10	1	-1E+10	1	-1E+10	1	-1E+10	1	-1E+10	1
4902554	23	C	09/20/2021	16:13	-136.398	49.447	0	867.80	0	3.3090	0	34.3090	0	27.311	0	858.608	0	-1e10	8	-1e10	8	-1E+10	1	-1E+10	1	-1E+10	1	-1E+10	1	-1E+10	1	-1E+10	1
4902554	23	C	09/20/2021	16:13	-136.398	49.447	0	872.60	0	3.2920	0	34.3130	0	27.315	0	863.347	0	-1e10	8	-1e10	8	-1E+10	1	-1E+10	1	-1E+10	1	-1E+10	1	-1E+10	1	-1E+10	1
4902554	23	C	09/20/2021	16:13	-136.398	49.447	0	877.80	0	3.2820	0	34.3150	0	27.318	0	868.481	0	-1e10	8	-1e10	8	-1E+10	1	-1E+10	1	-1E+10	1	-1E+10	1	-1E+10	1	-1E+10	1
4902554	23	C	09/20/2021	16:13	-136.398	49.447	0	883.10	0	3.2750	0	34.3160	0	27.319	0	873.714	0	-1e10	8	-1e10	8	-1E+10	1	-1E+10	1	-1E+10	1	-1E+10	1	-1E+10	1	-1E+10	1
4902554	23	C	09/20/2021	16:13	-136.398	49.447	0	888.00	0	3.2670	0	34.3180	0	27.322	0	878.552	0	-1e10	8	-1e10	8	-1E+10	1	-1E+10	1	-1E+10	1	-1E+10	1	-1E+10	1	-1E+10	1
4902554	23	C	09/20/2021	16:13	-136.398	49.447	0	892.90	0	3.2550	0	34.3200	0	27.324	0	883.389	0	-1e10	8	-1e10	8	-1E+10	1	-1E+10	1	-1E+10	1	-1E+10	1	-1E+10	1	-1E+10	1
4902554	23	C	09/20/2021	16:13	-136.398	49.447	0	897.90	0	3.2480	0	34.3240	0	27.328	0	888.325	0	-1e10	8	-1e10	8	-1E+10	1	-1E+10	1	-1E+10	1	-1E+10	1	-1E+10	1	-1E+10	1
4902554	23	C	09/20/2021	16:13	-136.398	49.447	0	902.90	0	3.2390	0	34.3260	0	27.331	0	893.261	0	-1e10	8	-1e10	8	-1E+10	1	-1E+10	1	-1E+10	1	-1E+10	1	-1E+10	1	-1E+10	1
4902554	23	C	09/20/2021	16:13	-136.398	49.447	0	907.90	0	3.2300	0	34.3270	0	27.332	0	898.197	0	-1e10	8	-1e10	8	-1E+10	1	-1E+10	1	-1E+10	1	-1E+10	1	-1E+10	1	-1E+10	1
4902554	23	C	09/20/2021	16:13	-136.398	49.447	0	913.00	0	3.2210	0	34.3290	0	27.335	0	903.232	0	-1e10	8	-1e10	8	-1E+10	1	-1E+10	1	-1E+10	1	-1E+10	1	-1E+10	1	-1E+10	1
4902554	23	C	09/20/2021	16:13	-136.398	49.447	0	918.00	0	3.2100	0	34.3310	0	27.338	0	908.167	0	-1e10	8	-1e10	8	-1E+10	1	-1E+10	1	-1E+10	1	-1E+10	1	-1E+10	1	-1E+10	1
4902554	23	C	09/20/2021	16:13	-136.398	49.447	0	923.10	0	3.2020	0	34.3330	0	27.340	0	913.202	0	-1e10	8	-1e10	8	-1E+10	1	-1E+10	1	-1E+10	1	-1E+10	1	-1E+10	1	-1E+10	1
4902554	23	C	09/20/2021	16:13	-136.398	49.447	0	928.10	0	3.1940	0	34.3340	0	27.342	0	918.137	0	-1e10	8	-1e10	8	-1E+10	1	-1E+10	1	-1E+10	1	-1E+10	1	-1E+10	1	-1E+10	1
4902554	23	C	09/20/2021	16:13	-136.398	49.447	0	932.70	0	3.1810	0	34.3360	0	27.344	0	922.677	0	-1e10	8	-1e10	8	-1E+10	1	-1E+10	1	-1E+10	1	-1E+10	1	-1E+10	1	-1E+10	1
4902554	23	C	09/20/2021	16:13	-136.398	49.447	0	937.80	0	3.1650	0	34.3390	0	27.348	0	927.711	0	-1e10	8	-1e10	8	-1E+10	1	-1E+10	1	-1E+10	1	-1E+10	1	-1E+10	1	-1E+10	1
4902554	23	C	09/20/2021	16:13	-136.398	49.447	0	942.90	0	3.1470	0	34.3430	0	27.353	0	932.745	0	-1e10	8	-1e10	8	-1E+10	1	-1E+10	1	-1E+10	1	-1E+10	1	-1E+10	1	-1E+10	1
4902554	23	C	09/20/2021	16:13	-136.398	49.447	0	948.00	0	3.1380	0	34.3440	0	27.355	0	937.779	0	-1e10	8	-1e10	8	-1E+10	1	-1E+10	1	-1E+10	1	-1E+10	1	-1E+10	1	-1E+10	1
4902554	23	C	09/20/2021	16:13	-136.398	49.447	0	953.10	0	3.1270	0	34.3470	0	27.358	0	942.812	0	-1e10	8	-1e10	8	-1E+10	1	-1E+10	1	-1E+10	1	-1E+10	1	-1E+10	1	-1E+10	1
4902554	23	C	09/20/2021	16:13	-136.398	49.447	0	957.80	0	3.1180	0	34.3490	0	27.361	0	947.451	0	-1e10	8	-1e10	8	-1E+10	1	-1E+10	1	-1E+10	1	-1E+10	1	-1E+10	1	-1E+10	1
4902554	23	C	09/20/2021	16:13	-136.398	49.447	0	963.00	0	3.1080	0	34.3510	0	27.363	0	952.583	0	-1e10	8	-1e10	8	-1E+10	1	-1E+10	1	-1E+10	1	-1E+10	1	-1E+10	1	-1E+10	1
4902554	23	C	09/20/2021	16:13	-136.398	49.447	0	968.20	0	3.0940	0	34.3540	0	27.367	0	957.715	0	-1e10	8	-1e10	8	-1E+10	1	-1E+10	1	-1E+10	1	-1E+10	1	-1E+10	1	-1E+10	1
4902554	23	C	09/20/2021	16:13	-136.398	49.447	0	973.00	0	3.0840	0	34.3550	0	27.369	0	962.452	0	-1e10	8	-1e10	8	-1E+10	1	-1E+10	1	-1E+10	1	-1E+10	1	-1E+10	1	-1E+10	1
4902554	23	C	09/20/2021	16:13	-136.398	49.447	0	977.80	0	3.0740	0	34.3570	0	27.371	0	967.189	0	-1e10	8	-1e10	8	-1E+10	1	-1E+10	1	-1E+10	1	-1E+10	1	-1E+10	1	-1E+10	1
4902554	23	C	09/20/2021	16:13	-136.398	49.447	0	982.60	0	3.0600	0	34.3600	0	27.375	0	971.925	0	-1e10	8	-1e10	8	-1E+10	1	-1E+10	1	-1E+10	1	-1E+10	1	-1E+10	1	-1E+10	1
4902554	23	C	09/20/2021	16:13	-136.398	49.447	0	987.60	0	3.0450	0	34.3630	0	27.379	0	976.860	0	-1e10	8	-1e10	8	-1E+10	1	-1E+10	1	-1E+10	1	-1E+10	1	-1E+10	1	-1E+10	1
4902554	23	C	09/20/2021	16:13	-136.398	49.447	0	992.50	0	3.0360	0	34.3640	0	27.380	0	981.695	0	-1e10	8	-1e10	8	-1E+10	1	-1E+10	1	-1E+10	1	-1E+10	1	-1E+10	1	-1E+10	1
4902554	23	C	09/20/2021	16:13	-136.398	49.447	0	997.50	0	3.0320	0	34.3650	0	27.381	0	986.629	0	-1e10	8	-1e10	8	-1E+10	1	-1E+10	1	-1E+10	1	-1E+10	1	-1E+10	1	-1E+10	1
4902554	23	C	09/20/2021	16:13	-136.398	49.447	0	1005.00	0	3.0250	0	34.3670	0	27.384	0	994.029	0	-1e10	8	-1e10	8	-1E+10	1	-1E+10	1	-1E+10	1	-1E+10	1	-1E+10	1	-1E+10	1
4902554	23	C	09/20/2021	16:13	-136.398	49.447	0	1015.10	0	3.0080	0	34.3700	0	27.388	0	1003.995	0	-1e10	8	-1e10	8	-1E+10	1	-1E+10	1	-1E+10	1	-1E+10	1	-1E+10	1	-1E+10	1
4902554	23	C	09/20/2021	16:13	-136.398	49.447	0	1025.40	0	2.9880	0	34.3740	0	27.393	0	1014.157	0	-1e10	8	-1e10	8	-1E+10	1	-1E+10	1	-1E+10	1	-1E+10	1	-1E+10	1	-1E+10	1
4902554	23	C	09/20/2021	16:13	-136.398	49.447	0	1035.20	0	2.9780	0	34.3760	0	27.395	0	1023.826	0	-1e10	8	-1e10	8	-1E+10	1	-1E+10	1	-1E+10	1	-1E+10	1	-1E+10	1	-1E+10	1
4902554	23	C	09/20/2021	16:13	-136.398	49.447	0	1045.50	0	2.9660	0	34.3790	0	27.399	0	1033.987	0	-1e10	8	-1e10	8	-1E+10	1	-1E+10	1	-1E+10	1	-1E+10	1	-1E+10	1	-1E+10	1
4902554	23	C	09/20/2021	16:13	-136.398	49.447	0	1055.30	0	2.9440	0	34.3830	0	27.404	0	1043.655	0	-1e10	8	-1e10	8	-1E+10	1	-1E+10	1	-1E+10	1	-1E+10	1	-1E+10	1	-1E+10	1
4902554	23	C	09/20/2021	16:13	-136.398	49.447	0	1065.30	0	2.9240	0	34.3860	0	27.408	0	1053.519	0	-1e10	8	-1e10	8	-1E+10	1	-1E+10	1	-1E+10	1	-1E+10	1	-1E+10	1	-1E+10	1
4902554	23	C	09/20/2021	16:13	-136.398	49.447	0	1075.40	0	2.9110	0	34.3880	0	27.411	0	1063.482	0	-1e10	8	-1e10	8	-1E+10	1	-1E+10	1	-1E+10	1	-1E+10	1	-1E+10	1	-1E+10	1
4902554	23	C	09/20/2021	16:13	-136.398	49.447	0	1085.30	0	2.8960	0	34.3920	0	27.416	0	1073.247	0	-1e10	8	-1e10	8	-1E+10	1	-1E+10	1	-1E+10	1	-1E+10	1	-1E+10	1	-1E+10	1
4902554	23	C	09/20/2021	16:13	-136.398	49.447	0	1095.40	0	2.8710	0	34.3960	0	27.421	0	1083.209	0	-1e10	8	-1e10	8	-1E+10	1	-1E+10	1	-1E+10	1	-1E+10	1	-1E+10	1	-1E+10	1
4902554	23	C	09/20/2021	16:13	-136.398	49.447	0	1105.20	0	2.8540	0	34.4000	0	27.426	0	1092.874	0	-1e10	8	-1e10	8	-1E+10	1	-1E+10	1	-1E+10	1	-1E+10	1	-1E+10	1	-1E+10	1
4902554	23	C	09/20/2021	16:13	-136.398	49.447	0	1115.40	0	2.8430	0	34.4020	0	27.429	0	1102.934	0	-1e10	8	-1e10	8	-1E+10	1	-1E+10	1	-1E+10	1	-1E+10	1	-1E+10	1	-1E+10	1
4902554	23	C	09/20/2021	16:13	-136.398	49.447	0	1125.90	0	2.8320	0	34.4050	0	27.432	0	1113.289	0	-1e10	8	-1e10	8	-1E+10	1	-1E+10	1	-1E+10	1	-1E+10	1	-1E+10	1	-1E+10	1
4902554	23	C	09/20/2021	16:13	-136.398	49.447	0	1135.40	0	2.8270	0	34.4050	0	27.433	0	1122.657	0	-1e10	8	-1e10	8	-1E+10	1	-1E+10	1	-1E+10	1	-1E+10	1	-1E+10	1	-1E+10	1
4902554	23	C	09/20/2021	16:13	-136.398	49.447	0	1145.10	0	2.8180	0	34.4080	0	27.436	0	1132.222	0	-1e10	8	-1e10	8	-1E+10	1	-1E+10	1	-1E+10	1	-1E+10	1	-1E+10	1	-1E+10	1
4902554	23	C	09/20/2021	16:13	-136.398	49.447	0	1155.20	0	2.8060	0	34.4100	0	27.438	0	1142.181	0	-1e10	8	-1e10	8	-1E+10	1	-1E+10	1	-1E+10	1	-1E+10	1	-1E+10	1	-1E+10	1
4902554	23	C	09/20/2021	16:13	-136.398	49.447	0	1165.50	0	2.7890	0	34.4140	0	27.443	0	1152.336	0	-1e10	8	-1e10	8	-1E+10	1	-1E+10	1	-1E+10	1	-1E+10	1	-1E+10	1	-1E+10	1
4902554	23	C	09/20/2021	16:13	-136.398	49.447	0	1175.60	0	2.7720	0	34.4170	0	27.447	0	1162.294	0	-1e10	8	-1e10	8	-1E+10	1	-1E+10	1	-1E+10	1	-1E+10	1	-1E+10	1	-1E+10	1
4902554	23	C	09/20/2021	16:13	-136.398	49.447	0	1185.40	0	2.7540	0	34.4200	0	27.451	0	1171.956	0	-1e10	8	-1e10	8	-1E+10	1	-1E+10	1	-1E+10	1	-1E+10	1	-1E+10	1	-1E+10	1
4902554	23	C	09/20/2021	16:13	-136.398	49.447	0	1195.20	0	2.7400	0	34.4230	0	27.455	0	1181.618	0	-1e10	8	-1e10	8	-1E+10	1	-1E+10	1	-1E+10	1	-1E+10	1	-1E+10	1	-1E+10	1
4902554	23	C	09/20/2021	16:13	-136.398	49.447	0	1205.20	0	2.7260	0	34.4260	0	27.459	0	1191.476	0	-1e10	8	-1e10	8	-1E+10	1	-1E+10	1	-1E+10	1	-1E+10	1	-1E+10	1	-1E+10	1
4902554	23	C	09/20/2021	16:13	-136.398	49.447	0	1215.40	0	2.7130	0	34.4290	0	27.462	0	1201.530	0	-1e10	8	-1e10	8	-1E+10	1	-1E+10	1	-1E+10	1	-1E+10	1	-1E+10	1	-1E+10	1
4902554	23	C	09/20/2021	16:13	-136.398	49.447	0	1225.10	0	2.6960	0	34.4320	0	27.466	0	1211.092	0	-1e10	8	-1e10	8	-1E+10	1	-1E+10	1	-1E+10	1	-1E+10	1	-1E+10	1	-1E+10	1
4902554	23	C	09/20/2021	16:13	-136.398	49.447	0	1235.30	0	2.6850	0	34.4340	0	27.469	0	1221.146	0	-1e10	8	-1e10	8	-1E+10	1	-1E+10	1	-1E+10	1	-1E+10	1	-1E+10	1	-1E+10	1
4902554	23	C	09/20/2021	16:13	-136.398	49.447	0	1245.60	0	2.6690	0	34.4380	0	27.473	0	1231.297	0	-1e10	8	-1e10	8	-1E+10	1	-1E+10	1	-1E+10	1	-1E+10	1	-1E+10	1	-1E+10	1
4902554	23	C	09/20/2021	16:13	-136.398	49.447	0	1255.50	0	2.6560	0	34.4400	0	27.476	0	1241.055	0	-1e10	8	-1e10	8	-1E+10	1	-1E+10	1	-1E+10	1	-1E+10	1	-1E+10	1	-1E+10	1
4902554	23	C	09/20/2021	16:13	-136.398	49.447	0	1265.60	0	2.6440	0	34.4430	0	27.480	0	1251.008	0	-1e10	8	-1e10	8	-1E+10	1	-1E+10	1	-1E+10	1	-1E+10	1	-1E+10	1	-1E+10	1
4902554	23	C	09/20/2021	16:13	-136.398	49.447	0	1275.50	0	2.6400	0	34.4440	0	27.481	0	1260.765	0	-1e10	8	-1e10	8	-1E+10	1	-1E+10	1	-1E+10	1	-1E+10	1	-1E+10	1	-1E+10	1
4902554	23	C	09/20/2021	16:13	-136.398	49.447	0	1285.30	0	2.6310	0	34.4450	0	27.482	0	1270.422	0	-1e10	8	-1e10	8	-1E+10	1	-1E+10	1	-1E+10	1	-1E+10	1	-1E+10	1	-1E+10	1
4902554	23	C	09/20/2021	16:13	-136.398	49.447	0	1295.50	0	2.6200	0	34.4480	0	27.486	0	1280.473	0	-1e10	8	-1e10	8	-1E+10	1	-1E+10	1	-1E+10	1	-1E+10	1	-1E+10	1	-1E+10	1
4902554	23	C	09/20/2021	16:13	-136.398	49.447	0	1305.30	0	2.6030	0	34.4520	0	27.490	0	1290.129	0	-1e10	8	-1e10	8	-1E+10	1	-1E+10	1	-1E+10	1	-1E+10	1	-1E+10	1	-1E+10	1
4902554	23	C	09/20/2021	16:13	-136.398	49.447	0	1315.20	0	2.5920	0	34.4540	0	27.493	0	1299.883	0	-1e10	8	-1e10	8	-1E+10	1	-1E+10	1	-1E+10	1	-1E+10	1	-1E+10	1	-1E+10	1
4902554	23	C	09/20/2021	16:13	-136.398	49.447	0	1325.40	0	2.5750	0	34.4570	0	27.497	0	1309.933	0	-1e10	8	-1e10	8	-1E+10	1	-1E+10	1	-1E+10	1	-1E+10	1	-1E+10	1	-1E+10	1
4902554	23	C	09/20/2021	16:13	-136.398	49.447	0	1335.20	0	2.5630	0	34.4600	0	27.500	0	1319.588	0	-1e10	8	-1e10	8	-1E+10	1	-1E+10	1	-1E+10	1	-1E+10	1	-1E+10	1	-1E+10	1
4902554	23	C	09/20/2021	16:13	-136.398	49.447	0	1345.10	0	2.5460	0	34.4630	0	27.504	0	1329.341	0	-1e10	8	-1e10	8	-1E+10	1	-1E+10	1	-1E+10	1	-1E+10	1	-1E+10	1	-1E+10	1
4902554	23	C	09/20/2021	16:13	-136.398	49.447	0	1355.00	0	2.5340	0	34.4650	0	27.507	0	1339.094	0	-1e10	8	-1e10	8	-1E+10	1	-1E+10	1	-1E+10	1	-1E+10	1	-1E+10	1	-1E+10	1
4902554	23	C	09/20/2021	16:13	-136.398	49.447	0	1365.10	0	2.5220	0	34.4670	0	27.510	0	1349.043	0	-1e10	8	-1e10	8	-1E+10	1	-1E+10	1	-1E+10	1	-1E+10	1	-1E+10	1	-1E+10	1
4902554	23	C	09/20/2021	16:13	-136.398	49.447	0	1375.50	0	2.5130	0	34.4690	0	27.512	0	1359.287	0	-1e10	8	-1e10	8	-1E+10	1	-1E+10	1	-1E+10	1	-1E+10	1	-1E+10	1	-1E+10	1
4902554	23	C	09/20/2021	16:13	-136.398	49.447	0	1385.80	0	2.5030	0	34.4700	0	27.514	0	1369.432	0	-1e10	8	-1e10	8	-1E+10	1	-1E+10	1	-1E+10	1	-1E+10	1	-1E+10	1	-1E+10	1
4902554	23	C	09/20/2021	16:13	-136.398	49.447	0	1395.70	0	2.4960	0	34.4720	0	27.516	0	1379.183	0	-1e10	8	-1e10	8	-1E+10	1	-1E+10	1	-1E+10	1	-1E+10	1	-1E+10	1	-1E+10	1
4902554	23	C	09/20/2021	16:13	-136.398	49.447	0	1405.80	0	2.4840	0	34.4740	0	27.519	0	1389.130	0	-1e10	8	-1e10	8	-1E+10	1	-1E+10	1	-1E+10	1	-1E+10	1	-1E+10	1	-1E+10	1
4902554	23	C	09/20/2021	16:13	-136.398	49.447	0	1416.00	0	2.4690	0	34.4770	0	27.522	0	1399.175	0	-1e10	8	-1e10	8	-1E+10	1	-1E+10	1	-1E+10	1	-1E+10	1	-1E+10	1	-1E+10	1
4902554	23	C	09/20/2021	16:13	-136.398	49.447	0	1425.50	0	2.4620	0	34.4790	0	27.525	0	1408.531	0	-1e10	8	-1e10	8	-1E+10	1	-1E+10	1	-1E+10	1	-1E+10	1	-1E+10	1	-1E+10	1
4902554	23	C	09/20/2021	16:13	-136.398	49.447	0	1435.10	0	2.4480	0	34.4820	0	27.528	0	1417.984	0	-1e10	8	-1e10	8	-1E+10	1	-1E+10	1	-1E+10	1	-1E+10	1	-1E+10	1	-1E+10	1
4902554	23	C	09/20/2021	16:13	-136.398	49.447	0	1445.00	0	2.4370	0	34.4830	0	27.530	0	1427.733	0	-1e10	8	-1e10	8	-1E+10	1	-1E+10	1	-1E+10	1	-1E+10	1	-1E+10	1	-1E+10	1
4902554	23	C	09/20/2021	16:13	-136.398	49.447	0	1455.10	0	2.4270	0	34.4860	0	27.533	0	1437.678	0	-1e10	8	-1e10	8	-1E+10	1	-1E+10	1	-1E+10	1	-1E+10	1	-1E+10	1	-1E+10	1
4902554	23	C	09/20/2021	16:13	-136.398	49.447	0	1465.40	0	2.4150	0	34.4880	0	27.536	0	1447.819	0	-1e10	8	-1e10	8	-1E+10	1	-1E+10	1	-1E+10	1	-1E+10	1	-1E+10	1	-1E+10	1
4902554	23	C	09/20/2021	16:13	-136.398	49.447	0	1475.40	0	2.3990	0	34.4910	0	27.540	0	1457.665	0	-1e10	8	-1e10	8	-1E+10	1	-1E+10	1	-1E+10	1	-1E+10	1	-1E+10	1	-1E+10	1
4902554	23	C	09/20/2021	16:13	-136.398	49.447	0	1485.60	0	2.3900	0	34.4930	0	27.542	0	1467.707	0	-1e10	8	-1e10	8	-1E+10	1	-1E+10	1	-1E+10	1	-1E+10	1	-1E+10	1	-1E+10	1
4902554	23	C	09/20/2021	16:13	-136.398	49.447	0	1495.70	0	2.3790	0	34.4950	0	27.545	0	1477.650	0	-1e10	8	-1e10	8	-1E+10	1	-1E+10	1	-1E+10	1	-1E+10	1	-1E+10	1	-1E+10	1
4902554	23	C	09/20/2021	16:13	-136.398	49.447	0	1505.50	0	2.3670	0	34.4980	0	27.548	0	1487.297	0	-1e10	8	-1e10	8	-1E+10	1	-1E+10	1	-1E+10	1	-1E+10	1	-1E+10	1	-1E+10	1
4902554	23	C	09/20/2021	16:13	-136.398	49.447	0	1515.40	0	2.3540	0	34.5000	0	27.551	0	1497.042	0	-1e10	8	-1e10	8	-1E+10	1	-1E+10	1	-1E+10	1	-1E+10	1	-1E+10	1	-1E+10	1
4902554	23	C	09/20/2021	16:13	-136.398	49.447	0	1525.40	0	2.3450	0	34.5020	0	27.553	0	1506.885	0	-1e10	8	-1e10	8	-1E+10	1	-1E+10	1	-1E+10	1	-1E+10	1	-1E+10	1	-1E+10	1
4902554	23	C	09/20/2021	16:13	-136.398	49.447	0	1535.50	0	2.3350	0	34.5040	0	27.556	0	1516.827	0	-1e10	8	-1e10	8	-1E+10	1	-1E+10	1	-1E+10	1	-1E+10	1	-1E+10	1	-1E+10	1
4902554	23	C	09/20/2021	16:13	-136.398	49.447	0	1545.60	0	2.3260	0	34.5060	0	27.558	0	1526.767	0	-1e10	8	-1e10	8	-1E+10	1	-1E+10	1	-1E+10	1	-1E+10	1	-1E+10	1	-1E+10	1
4902554	23	C	09/20/2021	16:13	-136.398	49.447	0	1555.40	0	2.3180	0	34.5070	0	27.560	0	1536.412	0	-1e10	8	-1e10	8	-1E+10	1	-1E+10	1	-1E+10	1	-1E+10	1	-1E+10	1	-1E+10	1
4902554	23	C	09/20/2021	16:13	-136.398	49.447	0	1565.50	0	2.3090	0	34.5090	0	27.562	0	1546.352	0	-1e10	8	-1e10	8	-1E+10	1	-1E+10	1	-1E+10	1	-1E+10	1	-1E+10	1	-1E+10	1
4902554	23	C	09/20/2021	16:13	-136.398	49.447	0	1575.50	0	2.2990	0	34.5110	0	27.564	0	1556.193	0	-1e10	8	-1e10	8	-1E+10	1	-1E+10	1	-1E+10	1	-1E+10	1	-1E+10	1	-1E+10	1
4902554	23	C	09/20/2021	16:13	-136.398	49.447	0	1585.20	0	2.2860	0	34.5140	0	27.568	0	1565.738	0	-1e10	8	-1e10	8	-1E+10	1	-1E+10	1	-1E+10	1	-1E+10	1	-1E+10	1	-1E+10	1
4902554	23	C	09/20/2021	16:13	-136.398	49.447	0	1595.40	0	2.2810	0	34.5150	0	27.569	0	1575.775	0	-1e10	8	-1e10	8	-1E+10	1	-1E+10	1	-1E+10	1	-1E+10	1	-1E+10	1	-1E+10	1
4902554	23	C	09/20/2021	16:13	-136.398	49.447	0	1605.70	0	2.2730	0	34.5170	0	27.572	0	1585.910	0	-1e10	8	-1e10	8	-1E+10	1	-1E+10	1	-1E+10	1	-1E+10	1	-1E+10	1	-1E+10	1
4902554	23	C	09/20/2021	16:13	-136.398	49.447	0	1615.50	0	2.2620	0	34.5190	0	27.574	0	1595.552	0	-1e10	8	-1e10	8	-1E+10	1	-1E+10	1	-1E+10	1	-1E+10	1	-1E+10	1	-1E+10	1
4902554	23	C	09/20/2021	16:13	-136.398	49.447	0	1625.30	0	2.2530	0	34.5210	0	27.576	0	1605.194	0	-1e10	8	-1e10	8	-1E+10	1	-1E+10	1	-1E+10	1	-1E+10	1	-1E+10	1	-1E+10	1
4902554	23	C	09/20/2021	16:13	-136.398	49.447	0	1635.00	0	2.2440	0	34.5220	0	27.578	0	1614.737	0	-1e10	8	-1e10	8	-1E+10	1	-1E+10	1	-1E+10	1	-1E+10	1	-1E+10	1	-1E+10	1
4902554	23	C	09/20/2021	16:13	-136.398	49.447	0	1645.40	0	2.2370	0	34.5240	0	27.580	0	1624.968	0	-1e10	8	-1e10	8	-1E+10	1	-1E+10	1	-1E+10	1	-1E+10	1	-1E+10	1	-1E+10	1
4902554	23	C	09/20/2021	16:13	-136.398	49.447	0	1655.80	0	2.2270	0	34.5260	0	27.583	0	1635.199	0	-1e10	8	-1e10	8	-1E+10	1	-1E+10	1	-1E+10	1	-1E+10	1	-1E+10	1	-1E+10	1
4902554	23	C	09/20/2021	16:13	-136.398	49.447	0	1665.70	0	2.2170	0	34.5280	0	27.585	0	1644.938	0	-1e10	8	-1e10	8	-1E+10	1	-1E+10	1	-1E+10	1	-1E+10	1	-1E+10	1	-1E+10	1
4902554	23	C	09/20/2021	16:13	-136.398	49.447	0	1675.60	0	2.2080	0	34.5300	0	27.588	0	1654.676	0	-1e10	8	-1e10	8	-1E+10	1	-1E+10	1	-1E+10	1	-1E+10	1	-1E+10	1	-1E+10	1
4902554	23	C	09/20/2021	16:13	-136.398	49.447	0	1685.30	0	2.1970	0	34.5320	0	27.590	0	1664.216	0	-1e10	8	-1e10	8	-1E+10	1	-1E+10	1	-1E+10	1	-1E+10	1	-1E+10	1	-1E+10	1
4902554	23	C	09/20/2021	16:13	-136.398	49.447	0	1695.40	0	2.1880	0	34.5340	0	27.592	0	1674.150	0	-1e10	8	-1e10	8	-1E+10	1	-1E+10	1	-1E+10	1	-1E+10	1	-1E+10	1	-1E+10	1
4902554	23	C	09/20/2021	16:13	-136.398	49.447	0	1705.10	0	2.1780	0	34.5360	0	27.595	0	1683.690	0	-1e10	8	-1e10	8	-1E+10	1	-1E+10	1	-1E+10	1	-1E+10	1	-1E+10	1	-1E+10	1
4902554	23	C	09/20/2021	16:13	-136.398	49.447	0	1715.40	0	2.1700	0	34.5380	0	27.597	0	1693.820	0	-1e10	8	-1e10	8	-1E+10	1	-1E+10	1	-1E+10	1	-1E+10	1	-1E+10	1	-1E+10	1
4902554	23	C	09/20/2021	16:13	-136.398	49.447	0	1725.40	0	2.1590	0	34.5400	0	27.600	0	1703.654	0	-1e10	8	-1e10	8	-1E+10	1	-1E+10	1	-1E+10	1	-1E+10	1	-1E+10	1	-1E+10	1
4902554	23	C	09/20/2021	16:13	-136.398	49.447	0	1735.00	0	2.1520	0	34.5410	0	27.601	0	1713.094	0	-1e10	8	-1e10	8	-1E+10	1	-1E+10	1	-1E+10	1	-1E+10	1	-1E+10	1	-1E+10	1
4902554	23	C	09/20/2021	16:13	-136.398	49.447	0	1745.20	0	2.1420	0	34.5430	0	27.604	0	1723.124	0	-1e10	8	-1e10	8	-1E+10	1	-1E+10	1	-1E+10	1	-1E+10	1	-1E+10	1	-1E+10	1
4902554	23	C	09/20/2021	16:13	-136.398	49.447	0	1755.20	0	2.1320	0	34.5450	0	27.606	0	1732.957	0	-1e10	8	-1e10	8	-1E+10	1	-1E+10	1	-1E+10	1	-1E+10	1	-1E+10	1	-1E+10	1
4902554	23	C	09/20/2021	16:13	-136.398	49.447	0	1765.30	0	2.1230	0	34.5470	0	27.608	0	1742.887	0	-1e10	8	-1e10	8	-1E+10	1	-1E+10	1	-1E+10	1	-1E+10	1	-1E+10	1	-1E+10	1
4902554	23	C	09/20/2021	16:13	-136.398	49.447	0	1775.40	0	2.1120	0	34.5490	0	27.611	0	1752.817	0	-1e10	8	-1e10	8	-1E+10	1	-1E+10	1	-1E+10	1	-1E+10	1	-1E+10	1	-1E+10	1
4902554	23	C	09/20/2021	16:13	-136.398	49.447	0	1785.10	0	2.1060	0	34.5510	0	27.613	0	1762.354	0	-1e10	8	-1e10	8	-1E+10	1	-1E+10	1	-1E+10	1	-1E+10	1	-1E+10	1	-1E+10	1
4902554	23	C	09/20/2021	16:13	-136.398	49.447	0	1795.10	0	2.1020	0	34.5510	0	27.613	0	1772.185	0	-1e10	8	-1e10	8	-1E+10	1	-1E+10	1	-1E+10	1	-1E+10	1	-1E+10	1	-1E+10	1
4902554	23	C	09/20/2021	16:13	-136.398	49.447	0	1805.20	0	2.0980	0	34.5520	0	27.615	0	1782.113	0	-1e10	8	-1e10	8	-1E+10	1	-1E+10	1	-1E+10	1	-1E+10	1	-1E+10	1	-1E+10	1
4902554	23	C	09/20/2021	16:13	-136.398	49.447	0	1815.30	0	2.0910	0	34.5540	0	27.617	0	1792.042	0	-1e10	8	-1e10	8	-1E+10	1	-1E+10	1	-1E+10	1	-1E+10	1	-1E+10	1	-1E+10	1
4902554	23	C	09/20/2021	16:13	-136.398	49.447	0	1825.30	0	2.0820	0	34.5550	0	27.618	0	1801.871	0	-1e10	8	-1e10	8	-1E+10	1	-1E+10	1	-1E+10	1	-1E+10	1	-1E+10	1	-1E+10	1
4902554	23	C	09/20/2021	16:13	-136.398	49.447	0	1835.30	0	2.0720	0	34.5580	0	27.622	0	1811.700	0	-1e10	8	-1e10	8	-1E+10	1	-1E+10	1	-1E+10	1	-1E+10	1	-1E+10	1	-1E+10	1
4902554	23	C	09/20/2021	16:13	-136.398	49.447	0	1845.40	0	2.0610	0	34.5590	0	27.623	0	1821.627	0	-1e10	8	-1e10	8	-1E+10	1	-1E+10	1	-1E+10	1	-1E+10	1	-1E+10	1	-1E+10	1
4902554	23	C	09/20/2021	16:13	-136.398	49.447	0	1855.70	0	2.0560	0	34.5610	0	27.625	0	1831.750	0	-1e10	8	-1e10	8	-1E+10	1	-1E+10	1	-1E+10	1	-1E+10	1	-1E+10	1	-1E+10	1
4902554	23	C	09/20/2021	16:13	-136.398	49.447	0	1865.50	0	2.0470	0	34.5620	0	27.627	0	1841.381	0	-1e10	8	-1e10	8	-1E+10	1	-1E+10	1	-1E+10	1	-1E+10	1	-1E+10	1	-1E+10	1
4902554	23	C	09/20/2021	16:13	-136.398	49.447	0	1875.50	0	2.0410	0	34.5640	0	27.629	0	1851.208	0	-1e10	8	-1e10	8	-1E+10	1	-1E+10	1	-1E+10	1	-1E+10	1	-1E+10	1	-1E+10	1
4902554	23	C	09/20/2021	16:13	-136.398	49.447	0	1885.80	0	2.0350	0	34.5650	0	27.630	0	1861.330	0	-1e10	8	-1e10	8	-1E+10	1	-1E+10	1	-1E+10	1	-1E+10	1	-1E+10	1	-1E+10	1
4902554	23	C	09/20/2021	16:13	-136.398	49.447	0	1895.30	0	2.0270	0	34.5670	0	27.633	0	1870.665	0	-1e10	8	-1e10	8	-1E+10	1	-1E+10	1	-1E+10	1	-1E+10	1	-1E+10	1	-1E+10	1
4902554	23	C	09/20/2021	16:13	-136.398	49.447	0	1905.00	0	2.0180	0	34.5680	0	27.634	0	1880.196	0	-1e10	8	-1e10	8	-1E+10	1	-1E+10	1	-1E+10	1	-1E+10	1	-1E+10	1	-1E+10	1
4902554	23	C	09/20/2021	16:13	-136.398	49.447	0	1915.10	0	2.0100	0	34.5700	0	27.637	0	1890.120	0	-1e10	8	-1e10	8	-1E+10	1	-1E+10	1	-1E+10	1	-1E+10	1	-1E+10	1	-1E+10	1
4902554	23	C	09/20/2021	16:13	-136.398	49.447	0	1925.30	0	2.0010	0	34.5720	0	27.639	0	1900.141	0	-1e10	8	-1e10	8	-1E+10	1	-1E+10	1	-1E+10	1	-1E+10	1	-1E+10	1	-1E+10	1
4902554	23	C	09/20/2021	16:13	-136.398	49.447	0	1935.30	0	1.9930	0	34.5730	0	27.640	0	1909.966	0	-1e10	8	-1e10	8	-1E+10	1	-1E+10	1	-1E+10	1	-1E+10	1	-1E+10	1	-1E+10	1
4902554	23	C	09/20/2021	16:13	-136.398	49.447	0	1945.50	0	1.9860	0	34.5750	0	27.643	0	1919.986	0	-1e10	8	-1e10	8	-1E+10	1	-1E+10	1	-1E+10	1	-1E+10	1	-1E+10	1	-1E+10	1
4902554	23	C	09/20/2021	16:13	-136.398	49.447	0	1955.70	0	1.9800	0	34.5760	0	27.644	0	1930.006	0	-1e10	8	-1e10	8	-1E+10	1	-1E+10	1	-1E+10	1	-1E+10	1	-1E+10	1	-1E+10	1
4902554	23	C	09/20/2021	16:13	-136.398	49.447	0	1965.70	0	1.9740	0	34.5770	0	27.645	0	1939.829	0	-1e10	8	-1e10	8	-1E+10	1	-1E+10	1	-1E+10	1	-1E+10	1	-1E+10	1	-1E+10	1
4902554	23	C	09/20/2021	16:13	-136.398	49.447	0	1975.40	0	1.9680	0	34.5790	0	27.647	0	1949.357	0	-1e10	8	-1e10	8	-1E+10	1	-1E+10	1	-1E+10	1	-1E+10	1	-1E+10	1	-1E+10	1
4902554	23	C	09/20/2021	16:13	-136.398	49.447	0	1985.80	0	1.9640	0	34.5800	0	27.649	0	1959.572	0	-1e10	8	-1e10	8	-1E+10	1	-1E+10	1	-1E+10	1	-1E+10	1	-1E+10	1	-1E+10	1
4902554	23	C	09/20/2021	16:13	-136.398	49.447	0	1992.50	0	1.9590	0	34.5810	0	27.650	0	1966.153	0	-1e10	8	-1e10	8	-1E+10	1	-1E+10	1	-1E+10	1	-1E+10	1	-1E+10	1	-1E+10	1
4902554	23	C	09/20/2021	16:13	-136.398	49.447	0																										
4902554	24	C	09/30/2021	21:18	-136.389	49.430	0	6.00	0	13.3850	0	32.2480	0	24.186	0	5.949	0	-1e10	8	-1e10	8	-1E+10	1	-1E+10	1	-1E+10	1	-1E+10	1	-1E+10	1	-1E+10	1
4902554	24	C	09/30/2021	21:18	-136.389	49.430	0	7.10	0	13.3850	0	32.2470	0	24.186	0	7.039	0	-1e10	8	-1e10	8	-1E+10	1	-1E+10	1	-1E+10	1	-1E+10	1	-1E+10	1	-1E+10	1
4902554	24	C	09/30/2021	21:18	-136.389	49.430	0	7.90	0	13.3850	0	32.2480	0	24.187	0	7.833	0	-1e10	8	-1e10	8	-1E+10	1	-1E+10	1	-1E+10	1	-1E+10	1	-1E+10	1	-1E+10	1
4902554	24	C	09/30/2021	21:18	-136.389	49.430	0	8.90	0	13.3840	0	32.2480	0	24.187	0	8.824	0	-1e10	8	-1e10	8	-1E+10	1	-1E+10	1	-1E+10	1	-1E+10	1	-1E+10	1	-1E+10	1
4902554	24	C	09/30/2021	21:18	-136.389	49.430	0	10.00	0	13.3850	0	32.2480	0	24.187	0	9.915	0	-1e10	8	-1e10	8	-1E+10	1	-1E+10	1	-1E+10	1	-1E+10	1	-1E+10	1	-1E+10	1
4902554	24	C	09/30/2021	21:18	-136.389	49.430	0	11.10	0	13.3840	0	32.2480	0	24.187	0	11.005	0	-1e10	8	-1e10	8	-1E+10	1	-1E+10	1	-1E+10	1	-1E+10	1	-1E+10	1	-1E+10	1
4902554	24	C	09/30/2021	21:18	-136.389	49.430	0	12.10	0	13.3800	0	32.2490	0	24.188	0	11.997	0	-1e10	8	-1e10	8	-1E+10	1	-1E+10	1	-1E+10	1	-1E+10	1	-1E+10	1	-1E+10	1
4902554	24	C	09/30/2021	21:18	-136.389	49.430	0	12.90	0	13.3790	0	32.2480	0	24.188	0	12.790	0	-1e10	8	-1e10	8	-1E+10	1	-1E+10	1	-1E+10	1	-1E+10	1	-1E+10	1	-1E+10	1
4902554	24	C	09/30/2021	21:18	-136.389	49.430	0	14.00	0	13.3780	0	32.2480	0	24.188	0	13.880	0	-1e10	8	-1e10	8	-1E+10	1	-1E+10	1	-1E+10	1	-1E+10	1	-1E+10	1	-1E+10	1
4902554	24	C	09/30/2021	21:18	-136.389	49.430	0	15.10	0	13.3780	0	32.2480	0	24.188	0	14.971	0	-1e10	8	-1e10	8	-1E+10	1	-1E+10	1	-1E+10	1	-1E+10	1	-1E+10	1	-1E+10	1
4902554	24	C	09/30/2021	21:18	-136.389	49.430	0	16.20	0	13.3810	0	32.2480	0	24.188	0	16.061	0	-1e10	8	-1e10	8	-1E+10	1	-1E+10	1	-1E+10	1	-1E+10	1	-1E+10	1	-1E+10	1
4902554	24	C	09/30/2021	21:18	-136.389	49.430	0	17.10	0	13.3800	0	32.2500	0	24.189	0	16.954	0	-1e10	8	-1e10	8	-1E+10	1	-1E+10	1	-1E+10	1	-1E+10	1	-1E+10	1	-1E+10	1
4902554	24	C	09/30/2021	21:18	-136.389	49.430	0	17.90	0	13.3810	0	32.2480	0	24.188	0	17.747	0	-1e10	8	-1e10	8	-1E+10	1	-1E+10	1	-1E+10	1	-1E+10	1	-1E+10	1	-1E+10	1
4902554	24	C	09/30/2021	21:18	-136.389	49.430	0	19.20	0	13.3790	0	32.2500	0	24.190	0	19.036	0	-1e10	8	-1e10	8	-1E+10	1	-1E+10	1	-1E+10	1	-1E+10	1	-1E+10	1	-1E+10	1
4902554	24	C	09/30/2021	21:18	-136.389	49.430	0	20.10	0	13.3820	0	32.2490	0	24.188	0	19.928	0	-1e10	8	-1e10	8	-1E+10	1	-1E+10	1	-1E+10	1	-1E+10	1	-1E+10	1	-1E+10	1
4902554	24	C	09/30/2021	21:18	-136.389	49.430	0	21.10	0	13.3820	0	32.2490	0	24.188	0	20.919	0	-1e10	8	-1e10	8	-1E+10	1	-1E+10	1	-1E+10	1	-1E+10	1	-1E+10	1	-1E+10	1
4902554	24	C	09/30/2021	21:18	-136.389	49.430	0	22.10	0	13.3820	0	32.2480	0	24.188	0	21.911	0	-1e10	8	-1e10	8	-1E+10	1	-1E+10	1	-1E+10	1	-1E+10	1	-1E+10	1	-1E+10	1
4902554	24	C	09/30/2021	21:18	-136.389	49.430	0	23.00	0	13.3810	0	32.2480	0	24.188	0	22.803	0	-1e10	8	-1e10	8	-1E+10	1	-1E+10	1	-1E+10	1	-1E+10	1	-1E+10	1	-1E+10	1
4902554	24	C	09/30/2021	21:18	-136.389	49.430	0	24.00	0	13.3770	0	32.2480	0	24.189	0	23.794	0	-1e10	8	-1e10	8	-1E+10	1	-1E+10	1	-1E+10	1	-1E+10	1	-1E+10	1	-1E+10	1
4902554	24	C	09/30/2021	21:18	-136.389	49.430	0	25.00	0	13.3760	0	32.2490	0	24.190	0	24.785	0	-1e10	8	-1e10	8	-1E+10	1	-1E+10	1	-1E+10	1	-1E+10	1	-1E+10	1	-1E+10	1
4902554	24	C	09/30/2021	21:18	-136.389	49.430	0	26.10	0	13.3790	0	32.2480	0	24.188	0	25.876	0	-1e10	8	-1e10	8	-1E+10	1	-1E+10	1	-1E+10	1	-1E+10	1	-1E+10	1	-1E+10	1
4902554	24	C	09/30/2021	21:18	-136.389	49.430	0	48.10	0	8.6620	0	32.4000	0	25.136	0	47.685	0	-1e10	8	-1e10	8	-1E+10	1	-1E+10	1	-1E+10	1	-1E+10	1	-1E+10	1	-1E+10	1
4902554	24	C	09/30/2021	21:18	-136.389	49.430	0	48.90	0	8.4300	0	32.4080	0	25.177	0	48.478	0	-1e10	8	-1e10	8	-1E+10	1	-1E+10	1	-1E+10	1	-1E+10	1	-1E+10	1	-1E+10	1
4902554	24	C	09/30/2021	21:18	-136.389	49.430	0	50.10	0	8.1660	0	32.4110	0	25.218	0	49.667	0	-1e10	8	-1e10	8	-1E+10	1	-1E+10	1	-1E+10	1	-1E+10	1	-1E+10	1	-1E+10	1
4902554	24	C	09/30/2021	21:18	-136.389	49.430	0	51.10	0	7.8780	0	32.4220	0	25.268	0	50.658	0	-1e10	8	-1e10	8	-1E+10	1	-1E+10	1	-1E+10	1	-1E+10	1	-1E+10	1	-1E+10	1
4902554	24	C	09/30/2021	21:18	-136.389	49.430	0	51.80	0	7.7500	0	32.4330	0	25.295	0	51.352	0	-1e10	8	-1e10	8	-1E+10	1	-1E+10	1	-1E+10	1	-1E+10	1	-1E+10	1	-1E+10	1
4902554	24	C	09/30/2021	21:18	-136.389	49.430	0	53.00	0	7.6160	0	32.4350	0	25.315	0	52.542	0	-1e10	8	-1e10	8	-1E+10	1	-1E+10	1	-1E+10	1	-1E+10	1	-1E+10	1	-1E+10	1
4902554	24	C	09/30/2021	21:18	-136.389	49.430	0	54.20	0	7.5260	0	32.4400	0	25.332	0	53.731	0	-1e10	8	-1e10	8	-1E+10	1	-1E+10	1	-1E+10	1	-1E+10	1	-1E+10	1	-1E+10	1
4902554	24	C	09/30/2021	21:18	-136.389	49.430	0	54.80	0	7.4530	0	32.4380	0	25.340	0	54.326	0	-1e10	8	-1e10	8	-1E+10	1	-1E+10	1	-1E+10	1	-1E+10	1	-1E+10	1	-1E+10	1
4902554	24	C	09/30/2021	21:18	-136.389	49.430	0	55.90	0	7.3650	0	32.4400	0	25.354	0	55.416	0	-1e10	8	-1e10	8	-1E+10	1	-1E+10	1	-1E+10	1	-1E+10	1	-1E+10	1	-1E+10	1
4902554	24	C	09/30/2021	21:18	-136.389	49.430	0	56.90	0	7.3170	0	32.4380	0	25.359	0	56.407	0	-1e10	8	-1e10	8	-1E+10	1	-1E+10	1	-1E+10	1	-1E+10	1	-1E+10	1	-1E+10	1
4902554	24	C	09/30/2021	21:18	-136.389	49.430	0	57.80	0	7.2450	0	32.4390	0	25.370	0	57.299	0	-1e10	8	-1e10	8	-1E+10	1	-1E+10	1	-1E+10	1	-1E+10	1	-1E+10	1	-1E+10	1
4902554	24	C	09/30/2021	21:18	-136.389	49.430	0	58.70	0	7.1790	0	32.4420	0	25.381	0	58.192	0	-1e10	8	-1e10	8	-1E+10	1	-1E+10	1	-1E+10	1	-1E+10	1	-1E+10	1	-1E+10	1
4902554	24	C	09/30/2021	21:18	-136.389	49.430	0	59.90	0	7.0970	0	32.4420	0	25.392	0	59.381	0	-1e10	8	-1e10	8	-1E+10	1	-1E+10	1	-1E+10	1	-1E+10	1	-1E+10	1	-1E+10	1
4902554	24	C	09/30/2021	21:18	-136.389	49.430	0	61.40	0	7.0040	0	32.4460	0	25.408	0	60.868	0	-1e10	8	-1e10	8	-1E+10	1	-1E+10	1	-1E+10	1	-1E+10	1	-1E+10	1	-1E+10	1
4902554	24	C	09/30/2021	21:18	-136.389	49.430	0	62.10	0	6.9500	0	32.4470	0	25.416	0	61.562	0	-1e10	8	-1e10	8	-1E+10	1	-1E+10	1	-1E+10	1	-1E+10	1	-1E+10	1	-1E+10	1
4902554	24	C	09/30/2021	21:18	-136.389	49.430	0	63.30	0	6.8950	0	32.4490	0	25.425	0	62.751	0	-1e10	8	-1e10	8	-1E+10	1	-1E+10	1	-1E+10	1	-1E+10	1	-1E+10	1	-1E+10	1
4902554	24	C	09/30/2021	21:18	-136.389	49.430	0	64.00	0	6.8690	0	32.4480	0	25.427	0	63.445	0	-1e10	8	-1e10	8	-1E+10	1	-1E+10	1	-1E+10	1	-1E+10	1	-1E+10	1	-1E+10	1
4902554	24	C	09/30/2021	21:18	-136.389	49.430	0	65.30	0	6.8080	0	32.4510	0	25.438	0	64.733	0	-1e10	8	-1e10	8	-1E+10	1	-1E+10	1	-1E+10	1	-1E+10	1	-1E+10	1	-1E+10	1
4902554	24	C	09/30/2021	21:18	-136.389	49.430	0	66.00	0	6.7920	0	32.4510	0	25.440	0	65.427	0	-1e10	8	-1e10	8	-1E+10	1	-1E+10	1	-1E+10	1	-1E+10	1	-1E+10	1	-1E+10	1
4902554	24	C	09/30/2021	21:18	-136.389	49.430	0	67.00	0	6.7640	0	32.4520	0	25.444	0	66.418	0	-1e10	8	-1e10	8	-1E+10	1	-1E+10	1	-1E+10	1	-1E+10	1	-1E+10	1	-1E+10	1
4902554	24	C	09/30/2021	21:18	-136.389	49.430	0	67.90	0	6.7410	0	32.4520	0	25.447	0	67.310	0	-1e10	8	-1e10	8	-1E+10	1	-1E+10	1	-1E+10	1	-1E+10	1	-1E+10	1	-1E+10	1
4902554	24	C	09/30/2021	21:18	-136.389	49.430	0	68.70	0	6.7240	0	32.4510	0	25.449	0	68.103	0	-1e10	8	-1e10	8	-1E+10	1	-1E+10	1	-1E+10	1	-1E+10	1	-1E+10	1	-1E+10	1
4902554	24	C	09/30/2021	21:18	-136.389	49.430	0	69.80	0	6.6840	0	32.4530	0	25.455	0	69.194	0	-1e10	8	-1e10	8	-1E+10	1	-1E+10	1	-1E+10	1	-1E+10	1	-1E+10	1	-1E+10	1
4902554	24	C	09/30/2021	21:18	-136.389	49.430	0	71.00	0	6.6260	0	32.4570	0	25.466	0	70.383	0	-1e10	8	-1e10	8	-1E+10	1	-1E+10	1	-1E+10	1	-1E+10	1	-1E+10	1	-1E+10	1
4902554	24	C	09/30/2021	21:18	-136.389	49.430	0	72.10	0	6.5970	0	32.4580	0	25.471	0	71.473	0	-1e10	8	-1e10	8	-1E+10	1	-1E+10	1	-1E+10	1	-1E+10	1	-1E+10	1	-1E+10	1
4902554	24	C	09/30/2021	21:18	-136.389	49.430	0	73.10	0	6.5790	0	32.4590	0	25.474	0	72.464	0	-1e10	8	-1e10	8	-1E+10	1	-1E+10	1	-1E+10	1	-1E+10	1	-1E+10	1	-1E+10	1
4902554	24	C	09/30/2021	21:18	-136.389	49.430	0	74.00	0	6.5670	0	32.4590	0	25.475	0	73.356	0	-1e10	8	-1e10	8	-1E+10	1	-1E+10	1	-1E+10	1	-1E+10	1	-1E+10	1	-1E+10	1
4902554	24	C	09/30/2021	21:18	-136.389	49.430	0	75.00	0	6.5400	0	32.4600	0	25.479	0	74.347	0	-1e10	8	-1e10	8	-1E+10	1	-1E+10	1	-1E+10	1	-1E+10	1	-1E+10	1	-1E+10	1
4902554	24	C	09/30/2021	21:18	-136.389	49.430	0	75.80	0	6.5220	0	32.4640	0	25.485	0	75.140	0	-1e10	8	-1e10	8	-1E+10	1	-1E+10	1	-1E+10	1	-1E+10	1	-1E+10	1	-1E+10	1
4902554	24	C	09/30/2021	21:18	-136.389	49.430	0	76.90	0	6.4700	0	32.4660	0	25.493	0	76.231	0	-1e10	8	-1e10	8	-1E+10	1	-1E+10	1	-1E+10	1	-1E+10	1	-1E+10	1	-1E+10	1
4902554	24	C	09/30/2021	21:18	-136.389	49.430	0	78.00	0	6.4310	0	32.4670	0	25.499	0	77.321	0	-1e10	8	-1e10	8	-1E+10	1	-1E+10	1	-1E+10	1	-1E+10	1	-1E+10	1	-1E+10	1
4902554	24	C	09/30/2021	21:18	-136.389	49.430	0	79.00	0	6.3970	0	32.4700	0	25.506	0	78.312	0	-1e10	8	-1e10	8	-1E+10	1	-1E+10	1	-1E+10	1	-1E+10	1	-1E+10	1	-1E+10	1
4902554	24	C	09/30/2021	21:18	-136.389	49.430	0	80.10	0	6.3200	0	32.4780	0	25.522	0	79.402	0	-1e10	8	-1e10	8	-1E+10	1	-1E+10	1	-1E+10	1	-1E+10	1	-1E+10	1	-1E+10	1
4902554	24	C	09/30/2021	21:18	-136.389	49.430	0	81.00	0	6.3100	0	32.4790	0	25.524	0	80.294	0	-1e10	8	-1e10	8	-1E+10	1	-1E+10	1	-1E+10	1	-1E+10	1	-1E+10	1	-1E+10	1
4902554	24	C	09/30/2021	21:18	-136.389	49.430	0	81.70	0	6.3020	0	32.4790	0	25.525	0	80.988	0	-1e10	8	-1e10	8	-1E+10	1	-1E+10	1	-1E+10	1	-1E+10	1	-1E+10	1	-1E+10	1
4902554	24	C	09/30/2021	21:18	-136.389	49.430	0	82.80	0	6.2780	0	32.4800	0	25.528	0	82.078	0	-1e10	8	-1e10	8	-1E+10	1	-1E+10	1	-1E+10	1	-1E+10	1	-1E+10	1	-1E+10	1
4902554	24	C	09/30/2021	21:18	-136.389	49.430	0	83.90	0	6.2680	0	32.4790	0	25.529	0	83.168	0	-1e10	8	-1e10	8	-1E+10	1	-1E+10	1	-1E+10	1	-1E+10	1	-1E+10	1	-1E+10	1
4902554	24	C	09/30/2021	21:18	-136.389	49.430	0	85.00	0	6.2550	0	32.4770	0	25.529	0	84.258	0	-1e10	8	-1e10	8	-1E+10	1	-1E+10	1	-1E+10	1	-1E+10	1	-1E+10	1	-1E+10	1
4902554	24	C	09/30/2021	21:18	-136.389	49.430	0	86.00	0	6.1160	0	32.4840	0	25.552	0	85.249	0	-1e10	8	-1e10	8	-1E+10	1	-1E+10	1	-1E+10	1	-1E+10	1	-1E+10	1	-1E+10	1
4902554	24	C	09/30/2021	21:18	-136.389	49.430	0	87.00	0	6.0780	0	32.4890	0	25.560	0	86.240	0	-1e10	8	-1e10	8	-1E+10	1	-1E+10	1	-1E+10	1	-1E+10	1	-1E+10	1	-1E+10	1
4902554	24	C	09/30/2021	21:18	-136.389	49.430	0	88.00	0	6.0690	0	32.4900	0	25.562	0	87.232	0	-1e10	8	-1e10	8	-1E+10	1	-1E+10	1	-1E+10	1	-1E+10	1	-1E+10	1	-1E+10	1
4902554	24	C	09/30/2021	21:18	-136.389	49.430	0	89.10	0	6.0510	0	32.4920	0	25.566	0	88.322	0	-1e10	8	-1e10	8	-1E+10	1	-1E+10	1	-1E+10	1	-1E+10	1	-1E+10	1	-1E+10	1
4902554	24	C	09/30/2021	21:18	-136.389	49.430	0	90.00	0	6.0440	0	32.4930	0	25.568	0	89.214	0	-1e10	8	-1e10	8	-1E+10	1	-1E+10	1	-1E+10	1	-1E+10	1	-1E+10	1	-1E+10	1
4902554	24	C	09/30/2021	21:18	-136.389	49.430	0	91.10	0	6.0250	0	32.4950	0	25.572	0	90.304	0	-1e10	8	-1e10	8	-1E+10	1	-1E+10	1	-1E+10	1	-1E+10	1	-1E+10	1	-1E+10	1
4902554	24	C	09/30/2021	21:18	-136.389	49.430	0	92.00	0	6.0040	0	32.5000	0	25.578	0	91.196	0	-1e10	8	-1e10	8	-1E+10	1	-1E+10	1	-1E+10	1	-1E+10	1	-1E+10	1	-1E+10	1
4902554	24	C	09/30/2021	21:18	-136.389	49.430	0	92.90	0	5.9900	0	32.5030	0	25.582	0	92.088	0	-1e10	8	-1e10	8	-1E+10	1	-1E+10	1	-1E+10	1	-1E+10	1	-1E+10	1	-1E+10	1
4902554	24	C	09/30/2021	21:18	-136.389	49.430	0	94.00	0	5.9760	0	32.5100	0	25.589	0	93.178	0	-1e10	8	-1e10	8	-1E+10	1	-1E+10	1	-1E+10	1	-1E+10	1	-1E+10	1	-1E+10	1
4902554	24	C	09/30/2021	21:18	-136.389	49.430	0	95.10	0	5.9560	0	32.5210	0	25.601	0	94.268	0	-1e10	8	-1e10	8	-1E+10	1	-1E+10	1	-1E+10	1	-1E+10	1	-1E+10	1	-1E+10	1
4902554	24	C	09/30/2021	21:18	-136.389	49.430	0	95.90	0	5.9420	0	32.5230	0	25.604	0	95.061	0	-1e10	8	-1e10	8	-1E+10	1	-1E+10	1	-1E+10	1	-1E+10	1	-1E+10	1	-1E+10	1
4902554	24	C	09/30/2021	21:18	-136.389	49.430	0	97.00	0	5.9200	0	32.5320	0	25.614	0	96.151	0	-1e10	8	-1e10	8	-1E+10	1	-1E+10	1	-1E+10	1	-1E+10	1	-1E+10	1	-1E+10	1
4902554	24	C	09/30/2021	21:18	-136.389	49.430	0	98.10	0	5.9080	0	32.5370	0	25.619	0	97.241	0	-1e10	8	-1e10	8	-1E+10	1	-1E+10	1	-1E+10	1	-1E+10	1	-1E+10	1	-1E+10	1
4902554	24	C	09/30/2021	21:18	-136.389	49.430	0	98.90	0	5.8960	0	32.5380	0	25.621	0	98.034	0	-1e10	8	-1e10	8	-1E+10	1	-1E+10	1	-1E+10	1	-1E+10	1	-1E+10	1	-1E+10	1
4902554	24	C	09/30/2021	21:18	-136.389	49.430	0	100.00	0	5.8800	0	32.5410	0	25.626	0	99.124	0	-1e10	8	-1e10	8	-1E+10	1	-1E+10	1	-1E+10	1	-1E+10	1	-1E+10	1	-1E+10	1
4902554	24	C	09/30/2021	21:18	-136.389	49.430	0	101.00	0	5.8610	0	32.5480	0	25.633	0	100.115	0	-1e10	8	-1e10	8	-1E+10	1	-1E+10	1	-1E+10	1	-1E+10	1	-1E+10	1	-1E+10	1
4902554	24	C	09/30/2021	21:18	-136.389	49.430	0	102.20	0	5.8310	0	32.5710	0	25.655	0	101.304	0	-1e10	8	-1e10	8	-1E+10	1	-1E+10	1	-1E+10	1	-1E+10	1	-1E+10	1	-1E+10	1
4902554	24	C	09/30/2021	21:18	-136.389	49.430	0	103.00	0	5.8070	0	32.5800	0	25.665	0	102.097	0	-1e10	8	-1e10	8	-1E+10	1	-1E+10	1	-1E+10	1	-1E+10	1	-1E+10	1	-1E+10	1
4902554	24	C	09/30/2021	21:18	-136.389	49.430	0	103.80	0	5.8110	0	32.5930	0	25.675	0	102.890	0	-1e10	8	-1e10	8	-1E+10	1	-1E+10	1	-1E+10	1	-1E+10	1	-1E+10	1	-1E+10	1
4902554	24	C	09/30/2021	21:18	-136.389	49.430	0	105.00	0	5.7770	0	32.6070	0	25.690	0	104.079	0	-1e10	8	-1e10	8	-1E+10	1	-1E+10	1	-1E+10	1	-1E+10	1	-1E+10	1	-1E+10	1
4902554	24	C	09/30/2021	21:18	-136.389	49.430	0	106.20	0	5.8110	0	32.6280	0	25.703	0	105.268	0	-1e10	8	-1e10	8	-1E+10	1	-1E+10	1	-1E+10	1	-1E+10	1	-1E+10	1	-1E+10	1
4902554	24	C	09/30/2021	21:18	-136.389	49.430	0	107.00	0	5.8140	0	32.6400	0	25.712	0	106.061	0	-1e10	8	-1e10	8	-1E+10	1	-1E+10	1	-1E+10	1	-1E+10	1	-1E+10	1	-1E+10	1
4902554	24	C	09/30/2021	21:18	-136.389	49.430	0	108.20	0	5.8080	0	32.6570	0	25.726	0	107.250	0	-1e10	8	-1e10	8	-1E+10	1	-1E+10	1	-1E+10	1	-1E+10	1	-1E+10	1	-1E+10	1
4902554	24	C	09/30/2021	21:18	-136.389	49.430	0	109.00	0	5.8160	0	32.6770	0	25.741	0	108.043	0	-1e10	8	-1e10	8	-1E+10	1	-1E+10	1	-1E+10	1	-1E+10	1	-1E+10	1	-1E+10	1
4902554	24	C	09/30/2021	21:18	-136.389	49.430	0	110.10	0	5.8240	0	32.6930	0	25.753	0	109.133	0	-1e10	8	-1e10	8	-1E+10	1	-1E+10	1	-1E+10	1	-1E+10	1	-1E+10	1	-1E+10	1
4902554	24	C	09/30/2021	21:18	-136.389	49.430	0	111.20	0	5.8290	0	32.7130	0	25.768	0	110.223	0	-1e10	8	-1e10	8	-1E+10	1	-1E+10	1	-1E+10	1	-1E+10	1	-1E+10	1	-1E+10	1
4902554	24	C	09/30/2021	21:18	-136.389	49.430	0	112.00	0	5.9290	0	32.7980	0	25.823	0	111.015	0	-1e10	8	-1e10	8	-1E+10	1	-1E+10	1	-1E+10	1	-1E+10	1	-1E+10	1	-1E+10	1
4902554	24	C	09/30/2021	21:18	-136.389	49.430	0	113.00	0	6.0400	0	32.8570	0	25.856	0	112.006	0	-1e10	8	-1e10	8	-1E+10	1	-1E+10	1	-1E+10	1	-1E+10	1	-1E+10	1	-1E+10	1
4902554	24	C	09/30/2021	21:18	-136.389	49.430	0	114.00	0	6.1170	0	32.9040	0	25.883	0	112.997	0	-1e10	8	-1e10	8	-1E+10	1	-1E+10	1	-1E+10	1	-1E+10	1	-1E+10	1	-1E+10	1
4902554	24	C	09/30/2021	21:18	-136.389	49.430	0	114.90	0	6.0950	0	32.9280	0	25.905	0	113.889	0	-1e10	8	-1e10	8	-1E+10	1	-1E+10	1	-1E+10	1	-1E+10	1	-1E+10	1	-1E+10	1
4902554	24	C	09/30/2021	21:18	-136.389	49.430	0	116.00	0	6.1200	0	32.9750	0	25.939	0	114.979	0	-1e10	8	-1e10	8	-1E+10	1	-1E+10	1	-1E+10	1	-1E+10	1	-1E+10	1	-1E+10	1
4902554	24	C	09/30/2021	21:18	-136.389	49.430	0	116.90	0	6.1300	0	33.0200	0	25.974	0	115.871	0	-1e10	8	-1e10	8	-1E+10	1	-1E+10	1	-1E+10	1	-1E+10	1	-1E+10	1	-1E+10	1
4902554	24	C	09/30/2021	21:18	-136.389	49.430	0	118.00	0	6.1310	0	33.0860	0	26.026	0	116.961	0	-1e10	8	-1e10	8	-1E+10	1	-1E+10	1	-1E+10	1	-1E+10	1	-1E+10	1	-1E+10	1
4902554	24	C	09/30/2021	21:18	-136.389	49.430	0	118.70	0	6.1290	0	33.1190	0	26.052	0	117.655	0	-1e10	8	-1e10	8	-1E+10	1	-1E+10	1	-1E+10	1	-1E+10	1	-1E+10	1	-1E+10	1
4902554	24	C	09/30/2021	21:18	-136.389	49.430	0	119.80	0	6.1270	0	33.1720	0	26.094	0	118.745	0	-1e10	8	-1e10	8	-1E+10	1	-1E+10	1	-1E+10	1	-1E+10	1	-1E+10	1	-1E+10	1
4902554	24	C	09/30/2021	21:18	-136.389	49.430	0	120.90	0	6.1270	0	33.1990	0	26.115	0	119.835	0	-1e10	8	-1e10	8	-1E+10	1	-1E+10	1	-1E+10	1	-1E+10	1	-1E+10	1	-1E+10	1
4902554	24	C	09/30/2021	21:18	-136.389	49.430	0	122.10	0	6.1220	0	33.2250	0	26.136	0	121.024	0	-1e10	8	-1e10	8	-1E+10	1	-1E+10	1	-1E+10	1	-1E+10	1	-1E+10	1	-1E+10	1
4902554	24	C	09/30/2021	21:18	-136.389	49.430	0	122.90	0	6.1220	0	33.2260	0	26.137	0	121.816	0	-1e10	8	-1e10	8	-1E+10	1	-1E+10	1	-1E+10	1	-1E+10	1	-1E+10	1	-1E+10	1
4902554	24	C	09/30/2021	21:18	-136.389	49.430	0	123.70	0	6.1210	0	33.2310	0	26.141	0	122.609	0	-1e10	8	-1e10	8	-1E+10	1	-1E+10	1	-1E+10	1	-1E+10	1	-1E+10	1	-1E+10	1
4902554	24	C	09/30/2021	21:18	-136.389	49.430	0	124.80	0	6.1230	0	33.2480	0	26.154	0	123.699	0	-1e10	8	-1e10	8	-1E+10	1	-1E+10	1	-1E+10	1	-1E+10	1	-1E+10	1	-1E+10	1
4902554	24	C	09/30/2021	21:18	-136.389	49.430	0	125.90	0	6.1240	0	33.2690	0	26.171	0	124.789	0	-1e10	8	-1e10	8	-1E+10	1	-1E+10	1	-1E+10	1	-1E+10	1	-1E+10	1	-1E+10	1
4902554	24	C	09/30/2021	21:18	-136.389	49.430	0	127.10	0	6.1160	0	33.3090	0	26.204	0	125.978	0	-1e10	8	-1e10	8	-1E+10	1	-1E+10	1	-1E+10	1	-1E+10	1	-1E+10	1	-1E+10	1
4902554	24	C	09/30/2021	21:18	-136.389	49.430	0	128.00	0	6.1140	0	33.3260	0	26.217	0	126.870	0	-1e10	8	-1e10	8	-1E+10	1	-1E+10	1	-1E+10	1	-1E+10	1	-1E+10	1	-1E+10	1
4902554	24	C	09/30/2021	21:18	-136.389	49.430	0	128.90	0	6.1120	0	33.3490	0	26.236	0	127.762	0	-1e10	8	-1e10	8	-1E+10	1	-1E+10	1	-1E+10	1	-1E+10	1	-1E+10	1	-1E+10	1
4902554	24	C	09/30/2021	21:18	-136.389	49.430	0	129.90	0	6.1080	0	33.3580	0	26.243	0	128.753	0	-1e10	8	-1e10	8	-1E+10	1	-1E+10	1	-1E+10	1	-1E+10	1	-1E+10	1	-1E+10	1
4902554	24	C	09/30/2021	21:18	-136.389	49.430	0	130.80	0	6.1080	0	33.3750	0	26.257	0	129.644	0	-1e10	8	-1e10	8	-1E+10	1	-1E+10	1	-1E+10	1	-1E+10	1	-1E+10	1	-1E+10	1
4902554	24	C	09/30/2021	21:18	-136.389	49.430	0	131.90	0	6.1110	0	33.4090	0	26.283	0	130.734	0	-1e10	8	-1e10	8	-1E+10	1	-1E+10	1	-1E+10	1	-1E+10	1	-1E+10	1	-1E+10	1
4902554	24	C	09/30/2021	21:18	-136.389	49.430	0	132.90	0	6.1070	0	33.4190	0	26.292	0	131.725	0	-1e10	8	-1e10	8	-1E+10	1	-1E+10	1	-1E+10	1	-1E+10	1	-1E+10	1	-1E+10	1
4902554	24	C	09/30/2021	21:18	-136.389	49.430	0	134.00	0	6.0910	0	33.4550	0	26.322	0	132.815	0	-1e10	8	-1e10	8	-1E+10	1	-1E+10	1	-1E+10	1	-1E+10	1	-1E+10	1	-1E+10	1
4902554	24	C	09/30/2021	21:18	-136.389	49.430	0	135.00	0	6.0690	0	33.4880	0	26.351	0	133.806	0	-1e10	8	-1e10	8	-1E+10	1	-1E+10	1	-1E+10	1	-1E+10	1	-1E+10	1	-1E+10	1
4902554	24	C	09/30/2021	21:18	-136.389	49.430	0	136.10	0	6.0600	0	33.5020	0	26.363	0	134.896	0	-1e10	8	-1e10	8	-1E+10	1	-1E+10	1	-1E+10	1	-1E+10	1	-1E+10	1	-1E+10	1
4902554	24	C	09/30/2021	21:18	-136.389	49.430	0	136.90	0	6.0580	0	33.5040	0	26.365	0	135.688	0	-1e10	8	-1e10	8	-1E+10	1	-1E+10	1	-1E+10	1	-1E+10	1	-1E+10	1	-1E+10	1
4902554	24	C	09/30/2021	21:18	-136.389	49.430	0	138.00	0	6.0490	0	33.5140	0	26.374	0	136.778	0	-1e10	8	-1e10	8	-1E+10	1	-1E+10	1	-1E+10	1	-1E+10	1	-1E+10	1	-1E+10	1
4902554	24	C	09/30/2021	21:18	-136.389	49.430	0	139.10	0	6.0150	0	33.5630	0	26.417	0	137.868	0	-1e10	8	-1e10	8	-1E+10	1	-1E+10	1	-1E+10	1	-1E+10	1	-1E+10	1	-1E+10	1
4902554	24	C	09/30/2021	21:18	-136.389	49.430	0	139.80	0	6.0120	0	33.5660	0	26.420	0	138.562	0	-1e10	8	-1e10	8	-1E+10	1	-1E+10	1	-1E+10	1	-1E+10	1	-1E+10	1	-1E+10	1
4902554	24	C	09/30/2021	21:18	-136.389	49.430	0	140.90	0	6.0100	0	33.5680	0	26.422	0	139.652	0	-1e10	8	-1e10	8	-1E+10	1	-1E+10	1	-1E+10	1	-1E+10	1	-1E+10	1	-1E+10	1
4902554	24	C	09/30/2021	21:18	-136.389	49.430	0	142.00	0	6.0080	0	33.5690	0	26.423	0	140.742	0	-1e10	8	-1e10	8	-1E+10	1	-1E+10	1	-1E+10	1	-1E+10	1	-1E+10	1	-1E+10	1
4902554	24	C	09/30/2021	21:18	-136.389	49.430	0	142.70	0	6.0020	0	33.5760	0	26.429	0	141.435	0	-1e10	8	-1e10	8	-1E+10	1	-1E+10	1	-1E+10	1	-1E+10	1	-1E+10	1	-1E+10	1
4902554	24	C	09/30/2021	21:18	-136.389	49.430	0	143.90	0	5.9800	0	33.5960	0	26.447	0	142.624	0	-1e10	8	-1e10	8	-1E+10	1	-1E+10	1	-1E+10	1	-1E+10	1	-1E+10	1	-1E+10	1
4902554	24	C	09/30/2021	21:18	-136.389	49.430	0	145.10	0	5.9550	0	33.6150	0	26.466	0	143.813	0	-1e10	8	-1e10	8	-1E+10	1	-1E+10	1	-1E+10	1	-1E+10	1	-1E+10	1	-1E+10	1
4902554	24	C	09/30/2021	21:18	-136.389	49.430	0	146.00	0	5.9520	0	33.6190	0	26.469	0	144.705	0	-1e10	8	-1e10	8	-1E+10	1	-1E+10	1	-1E+10	1	-1E+10	1	-1E+10	1	-1E+10	1
4902554	24	C	09/30/2021	21:18	-136.389	49.430	0	146.80	0	5.9460	0	33.6270	0	26.476	0	145.497	0	-1e10	8	-1e10	8	-1E+10	1	-1E+10	1	-1E+10	1	-1E+10	1	-1E+10	1	-1E+10	1
4902554	24	C	09/30/2021	21:18	-136.389	49.430	0	147.90	0	5.9410	0	33.6290	0	26.478	0	146.587	0	-1e10	8	-1e10	8	-1E+10	1	-1E+10	1	-1E+10	1	-1E+10	1	-1E+10	1	-1E+10	1
4902554	24	C	09/30/2021	21:18	-136.389	49.430	0	149.10	0	5.9320	0	33.6360	0	26.485	0	147.776	0	-1e10	8	-1e10	8	-1E+10	1	-1E+10	1	-1E+10	1	-1E+10	1	-1E+10	1	-1E+10	1
4902554	24	C	09/30/2021	21:18	-136.389	49.430	0	149.90	0	5.9080	0	33.6500	0	26.499	0	148.569	0	-1e10	8	-1e10	8	-1E+10	1	-1E+10	1	-1E+10	1	-1E+10	1	-1E+10	1	-1E+10	1
4902554	24	C	09/30/2021	21:18	-136.389	49.430	0	150.80	0	5.9060	0	33.6500	0	26.499	0	149.460	0	-1e10	8	-1e10	8	-1E+10	1	-1E+10	1	-1E+10	1	-1E+10	1	-1E+10	1	-1E+10	1
4902554	24	C	09/30/2021	21:18	-136.389	49.430	0	151.60	0	5.8900	0	33.6580	0	26.508	0	150.253	0	-1e10	8	-1e10	8	-1E+10	1	-1E+10	1	-1E+10	1	-1E+10	1	-1E+10	1	-1E+10	1
4902554	24	C	09/30/2021	21:18	-136.389	49.430	0	174.00	0	5.5840	0	33.7370	0	26.608	0	172.445	0	-1e10	8	-1e10	8	-1E+10	1	-1E+10	1	-1E+10	1	-1E+10	1	-1E+10	1	-1E+10	1
4902554	24	C	09/30/2021	21:18	-136.389	49.430	0	175.00	0	5.5980	0	33.7410	0	26.609	0	173.435	0	-1e10	8	-1e10	8	-1E+10	1	-1E+10	1	-1E+10	1	-1E+10	1	-1E+10	1	-1E+10	1
4902554	24	C	09/30/2021	21:18	-136.389	49.430	0	175.90	0	5.5880	0	33.7420	0	26.611	0	174.327	0	-1e10	8	-1e10	8	-1E+10	1	-1E+10	1	-1E+10	1	-1E+10	1	-1E+10	1	-1E+10	1
4902554	24	C	09/30/2021	21:18	-136.389	49.430	0	176.90	0	5.5840	0	33.7410	0	26.611	0	175.317	0	-1e10	8	-1e10	8	-1E+10	1	-1E+10	1	-1E+10	1	-1E+10	1	-1E+10	1	-1E+10	1
4902554	24	C	09/30/2021	21:18	-136.389	49.430	0	177.80	0	5.5720	0	33.7420	0	26.613	0	176.209	0	-1e10	8	-1e10	8	-1E+10	1	-1E+10	1	-1E+10	1	-1E+10	1	-1E+10	1	-1E+10	1
4902554	24	C	09/30/2021	21:18	-136.389	49.430	0	178.80	0	5.5410	0	33.7420	0	26.617	0	177.200	0	-1e10	8	-1e10	8	-1E+10	1	-1E+10	1	-1E+10	1	-1E+10	1	-1E+10	1	-1E+10	1
4902554	24	C	09/30/2021	21:18	-136.389	49.430	0	179.80	0	5.5310	0	33.7450	0	26.620	0	178.190	0	-1e10	8	-1e10	8	-1E+10	1	-1E+10	1	-1E+10	1	-1E+10	1	-1E+10	1	-1E+10	1
4902554	24	C	09/30/2021	21:18	-136.389	49.430	0	180.80	0	5.5320	0	33.7570	0	26.630	0	179.181	0	-1e10	8	-1e10	8	-1E+10	1	-1E+10	1	-1E+10	1	-1E+10	1	-1E+10	1	-1E+10	1
4902554	24	C	09/30/2021	21:18	-136.389	49.430	0	181.70	0	5.5210	0	33.7570	0	26.631	0	180.072	0	-1e10	8	-1e10	8	-1E+10	1	-1E+10	1	-1E+10	1	-1E+10	1	-1E+10	1	-1E+10	1
4902554	24	C	09/30/2021	21:18	-136.389	49.430	0	182.70	0	5.5030	0	33.7600	0	26.635	0	181.063	0	-1e10	8	-1e10	8	-1E+10	1	-1E+10	1	-1E+10	1	-1E+10	1	-1E+10	1	-1E+10	1
4902554	24	C	09/30/2021	21:18	-136.389	49.430	0	183.70	0	5.5030	0	33.7590	0	26.635	0	182.054	0	-1e10	8	-1e10	8	-1E+10	1	-1E+10	1	-1E+10	1	-1E+10	1	-1E+10	1	-1E+10	1
4902554	24	C	09/30/2021	21:18	-136.389	49.430	0	184.70	0	5.5040	0	33.7600	0	26.635	0	183.044	0	-1e10	8	-1e10	8	-1E+10	1	-1E+10	1	-1E+10	1	-1E+10	1	-1E+10	1	-1E+10	1
4902554	24	C	09/30/2021	21:18	-136.389	49.430	0	185.70	0	5.5030	0	33.7610	0	26.636	0	184.035	0	-1e10	8	-1e10	8	-1E+10	1	-1E+10	1	-1E+10	1	-1E+10	1	-1E+10	1	-1E+10	1
4902554	24	C	09/30/2021	21:18	-136.389	49.430	0	186.70	0	5.4890	0	33.7620	0	26.639	0	185.025	0	-1e10	8	-1e10	8	-1E+10	1	-1E+10	1	-1E+10	1	-1E+10	1	-1E+10	1	-1E+10	1
4902554	24	C	09/30/2021	21:18	-136.389	49.430	0	187.70	0	5.4720	0	33.7640	0	26.642	0	186.016	0	-1e10	8	-1e10	8	-1E+10	1	-1E+10	1	-1E+10	1	-1E+10	1	-1E+10	1	-1E+10	1
4902554	24	C	09/30/2021	21:18	-136.389	49.430	0	188.60	0	5.4590	0	33.7620	0	26.642	0	186.908	0	-1e10	8	-1e10	8	-1E+10	1	-1E+10	1	-1E+10	1	-1E+10	1	-1E+10	1	-1E+10	1
4902554	24	C	09/30/2021	21:18	-136.389	49.430	0	189.60	0	5.4560	0	33.7610	0	26.642	0	187.898	0	-1e10	8	-1e10	8	-1E+10	1	-1E+10	1	-1E+10	1	-1E+10	1	-1E+10	1	-1E+10	1
4902554	24	C	09/30/2021	21:18	-136.389	49.430	0	190.50	0	5.4550	0	33.7610	0	26.642	0	188.790	0	-1e10	8	-1e10	8	-1E+10	1	-1E+10	1	-1E+10	1	-1E+10	1	-1E+10	1	-1E+10	1
4902554	24	C	09/30/2021	21:18	-136.389	49.430	0	191.50	0	5.4490	0	33.7600	0	26.642	0	189.780	0	-1e10	8	-1e10	8	-1E+10	1	-1E+10	1	-1E+10	1	-1E+10	1	-1E+10	1	-1E+10	1
4902554	24	C	09/30/2021	21:18	-136.389	49.430	0	192.90	0	5.4110	0	33.7670	0	26.652	0	191.167	0	-1e10	8	-1e10	8	-1E+10	1	-1E+10	1	-1E+10	1	-1E+10	1	-1E+10	1	-1E+10	1
4902554	24	C	09/30/2021	21:18	-136.389	49.430	0	194.40	0	5.3810	0	33.7720	0	26.660	0	192.653	0	-1e10	8	-1e10	8	-1E+10	1	-1E+10	1	-1E+10	1	-1E+10	1	-1E+10	1	-1E+10	1
4902554	24	C	09/30/2021	21:18	-136.389	49.430	0	195.40	0	5.3640	0	33.7750	0	26.664	0	193.643	0	-1e10	8	-1e10	8	-1E+10	1	-1E+10	1	-1E+10	1	-1E+10	1	-1E+10	1	-1E+10	1
4902554	24	C	09/30/2021	21:18	-136.389	49.430	0	196.30	0	5.3570	0	33.7750	0	26.665	0	194.535	0	-1e10	8	-1e10	8	-1E+10	1	-1E+10	1	-1E+10	1	-1E+10	1	-1E+10	1	-1E+10	1
4902554	24	C	09/30/2021	21:18	-136.389	49.430	0	197.30	0	5.3510	0	33.7750	0	26.665	0	195.525	0	-1e10	8	-1e10	8	-1E+10	1	-1E+10	1	-1E+10	1	-1E+10	1	-1E+10	1	-1E+10	1
4902554	24	C	09/30/2021	21:18	-136.389	49.430	0	198.30	0	5.3390	0	33.7790	0	26.670	0	196.516	0	-1e10	8	-1e10	8	-1E+10	1	-1E+10	1	-1E+10	1	-1E+10	1	-1E+10	1	-1E+10	1
4902554	24	C	09/30/2021	21:18	-136.389	49.430	0	199.30	0	5.3340	0	33.7800	0	26.671	0	197.506	0	-1e10	8	-1e10	8	-1E+10	1	-1E+10	1	-1E+10	1	-1E+10	1	-1E+10	1	-1E+10	1
4902554	24	C	09/30/2021	21:18	-136.389	49.430	0	200.20	0	5.3290	0	33.7810	0	26.673	0	198.398	0	-1e10	8	-1e10	8	-1E+10	1	-1E+10	1	-1E+10	1	-1E+10	1	-1E+10	1	-1E+10	1
4902554	24	C	09/30/2021	21:18	-136.389	49.430	0	201.20	0	5.3230	0	33.7820	0	26.674	0	199.388	0	-1e10	8	-1e10	8	-1E+10	1	-1E+10	1	-1E+10	1	-1E+10	1	-1E+10	1	-1E+10	1
4902554	24	C	09/30/2021	21:18	-136.389	49.430	0	202.10	0	5.3150	0	33.7830	0	26.676	0	200.280	0	-1e10	8	-1e10	8	-1E+10	1	-1E+10	1	-1E+10	1	-1E+10	1	-1E+10	1	-1E+10	1
4902554	24	C	09/30/2021	21:18	-136.389	49.430	0	203.10	0	5.3030	0	33.7830	0	26.677	0	201.270	0	-1e10	8	-1e10	8	-1E+10	1	-1E+10	1	-1E+10	1	-1E+10	1	-1E+10	1	-1E+10	1
4902554	24	C	09/30/2021	21:18	-136.389	49.430	0	204.10	0	5.3090	0	33.7850	0	26.678	0	202.261	0	-1e10	8	-1e10	8	-1E+10	1	-1E+10	1	-1E+10	1	-1E+10	1	-1E+10	1	-1E+10	1
4902554	24	C	09/30/2021	21:18	-136.389	49.430	0	205.10	0	5.3100	0	33.7920	0	26.684	0	203.251	0	-1e10	8	-1e10	8	-1E+10	1	-1E+10	1	-1E+10	1	-1E+10	1	-1E+10	1	-1E+10	1
4902554	24	C	09/30/2021	21:18	-136.389	49.430	0	206.10	0	5.3120	0	33.7920	0	26.684	0	204.242	0	-1e10	8	-1e10	8	-1E+10	1	-1E+10	1	-1E+10	1	-1E+10	1	-1E+10	1	-1E+10	1
4902554	24	C	09/30/2021	21:18	-136.389	49.430	0	207.10	0	5.3180	0	33.7980	0	26.688	0	205.232	0	-1e10	8	-1e10	8	-1E+10	1	-1E+10	1	-1E+10	1	-1E+10	1	-1E+10	1	-1E+10	1
4902554	24	C	09/30/2021	21:18	-136.389	49.430	0	208.10	0	5.3090	0	33.8000	0	26.690	0	206.223	0	-1e10	8	-1e10	8	-1E+10	1	-1E+10	1	-1E+10	1	-1E+10	1	-1E+10	1	-1E+10	1
4902554	24	C	09/30/2021	21:18	-136.389	49.430	0	209.10	0	5.3060	0	33.8060	0	26.695	0	207.213	0	-1e10	8	-1e10	8	-1E+10	1	-1E+10	1	-1E+10	1	-1E+10	1	-1E+10	1	-1E+10	1
4902554	24	C	09/30/2021	21:18	-136.389	49.430	0	210.10	0	5.2900	0	33.8050	0	26.696	0	208.204	0	-1e10	8	-1e10	8	-1E+10	1	-1E+10	1	-1E+10	1	-1E+10	1	-1E+10	1	-1E+10	1
4902554	24	C	09/30/2021	21:18	-136.389	49.430	0	211.10	0	5.2810	0	33.8050	0	26.698	0	209.194	0	-1e10	8	-1e10	8	-1E+10	1	-1E+10	1	-1E+10	1	-1E+10	1	-1E+10	1	-1E+10	1
4902554	24	C	09/30/2021	21:18	-136.389	49.430	0	212.20	0	5.2780	0	33.8050	0	26.698	0	210.284	0	-1e10	8	-1e10	8	-1E+10	1	-1E+10	1	-1E+10	1	-1E+10	1	-1E+10	1	-1E+10	1
4902554	24	C	09/30/2021	21:18	-136.389	49.430	0	213.20	0	5.2750	0	33.8040	0	26.697	0	211.274	0	-1e10	8	-1e10	8	-1E+10	1	-1E+10	1	-1E+10	1	-1E+10	1	-1E+10	1	-1E+10	1
4902554	24	C	09/30/2021	21:18	-136.389	49.430	0	214.20	0	5.2670	0	33.8060	0	26.700	0	212.265	0	-1e10	8	-1e10	8	-1E+10	1	-1E+10	1	-1E+10	1	-1E+10	1	-1E+10	1	-1E+10	1
4902554	24	C	09/30/2021	21:18	-136.389	49.430	0	215.20	0	5.2530	0	33.8060	0	26.702	0	213.255	0	-1e10	8	-1e10	8	-1E+10	1	-1E+10	1	-1E+10	1	-1E+10	1	-1E+10	1	-1E+10	1
4902554	24	C	09/30/2021	21:18	-136.389	49.430	0	216.20	0	5.2360	0	33.8090	0	26.706	0	214.246	0	-1e10	8	-1e10	8	-1E+10	1	-1E+10	1	-1E+10	1	-1E+10	1	-1E+10	1	-1E+10	1
4902554	24	C	09/30/2021	21:18	-136.389	49.430	0	217.30	0	5.2110	0	33.8100	0	26.710	0	215.335	0	-1e10	8	-1e10	8	-1E+10	1	-1E+10	1	-1E+10	1	-1E+10	1	-1E+10	1	-1E+10	1
4902554	24	C	09/30/2021	21:18	-136.389	49.430	0	218.30	0	5.1720	0	33.8180	0	26.721	0	216.325	0	-1e10	8	-1e10	8	-1E+10	1	-1E+10	1	-1E+10	1	-1E+10	1	-1E+10	1	-1E+10	1
4902554	24	C	09/30/2021	21:18	-136.389	49.430	0	219.30	0	5.2550	0	33.8230	0	26.715	0	217.316	0	-1e10	8	-1e10	8	-1E+10	1	-1E+10	1	-1E+10	1	-1E+10	1	-1E+10	1	-1E+10	1
4902554	24	C	09/30/2021	21:18	-136.389	49.430	0	220.20	0	5.2540	0	33.8320	0	26.722	0	218.207	0	-1e10	8	-1e10	8	-1E+10	1	-1E+10	1	-1E+10	1	-1E+10	1	-1E+10	1	-1E+10	1
4902554	24	C	09/30/2021	21:18	-136.389	49.430	0	221.20	0	5.2530	0	33.8320	0	26.722	0	219.198	0	-1e10	8	-1e10	8	-1E+10	1	-1E+10	1	-1E+10	1	-1E+10	1	-1E+10	1	-1E+10	1
4902554	24	C	09/30/2021	21:18	-136.389	49.430	0	221.90	0	5.2530	0	33.8320	0	26.722	0	219.891	0	-1e10	8	-1e10	8	-1E+10	1	-1E+10	1	-1E+10	1	-1E+10	1	-1E+10	1	-1E+10	1
4902554	24	C	09/30/2021	21:18	-136.389	49.430	0	223.00	0	5.2500	0	33.8320	0	26.723	0	220.980	0	-1e10	8	-1e10	8	-1E+10	1	-1E+10	1	-1E+10	1	-1E+10	1	-1E+10	1	-1E+10	1
4902554	24	C	09/30/2021	21:18	-136.389	49.430	0	224.20	0	5.2400	0	33.8330	0	26.725	0	222.169	0	-1e10	8	-1e10	8	-1E+10	1	-1E+10	1	-1E+10	1	-1E+10	1	-1E+10	1	-1E+10	1
4902554	24	C	09/30/2021	21:18	-136.389	49.430	0	224.90	0	5.2390	0	33.8340	0	26.726	0	222.862	0	-1e10	8	-1e10	8	-1E+10	1	-1E+10	1	-1E+10	1	-1E+10	1	-1E+10	1	-1E+10	1
4902554	24	C	09/30/2021	21:18	-136.389	49.430	0	225.70	0	5.2390	0	33.8340	0	26.726	0	223.655	0	-1e10	8	-1e10	8	-1E+10	1	-1E+10	1	-1E+10	1	-1E+10	1	-1E+10	1	-1E+10	1
4902554	24	C	09/30/2021	21:18	-136.389	49.430	0	226.90	0	5.2390	0	33.8330	0	26.725	0	224.843	0	-1e10	8	-1e10	8	-1E+10	1	-1E+10	1	-1E+10	1	-1E+10	1	-1E+10	1	-1E+10	1
4902554	24	C	09/30/2021	21:18	-136.389	49.430	0	228.00	0	5.2420	0	33.8350	0	26.726	0	225.932	0	-1e10	8	-1e10	8	-1E+10	1	-1E+10	1	-1E+10	1	-1E+10	1	-1E+10	1	-1E+10	1
4902554	24	C	09/30/2021	21:18	-136.389	49.430	0	228.80	0	5.2420	0	33.8350	0	26.726	0	226.725	0	-1e10	8	-1e10	8	-1E+10	1	-1E+10	1	-1E+10	1	-1E+10	1	-1E+10	1	-1E+10	1
4902554	24	C	09/30/2021	21:18	-136.389	49.430	0	230.00	0	5.2420	0	33.8370	0	26.728	0	227.913	0	-1e10	8	-1e10	8	-1E+10	1	-1E+10	1	-1E+10	1	-1E+10	1	-1E+10	1	-1E+10	1
4902554	24	C	09/30/2021	21:18	-136.389	49.430	0	231.20	0	5.2370	0	33.8370	0	26.728	0	229.102	0	-1e10	8	-1e10	8	-1E+10	1	-1E+10	1	-1E+10	1	-1E+10	1	-1E+10	1	-1E+10	1
4902554	24	C	09/30/2021	21:18	-136.389	49.430	0	232.00	0	5.2230	0	33.8400	0	26.732	0	229.894	0	-1e10	8	-1e10	8	-1E+10	1	-1E+10	1	-1E+10	1	-1E+10	1	-1E+10	1	-1E+10	1
4902554	24	C	09/30/2021	21:18	-136.389	49.430	0	232.80	0	5.2190	0	33.8410	0	26.733	0	230.686	0	-1e10	8	-1e10	8	-1E+10	1	-1E+10	1	-1E+10	1	-1E+10	1	-1E+10	1	-1E+10	1
4902554	24	C	09/30/2021	21:18	-136.389	49.430	0	234.00	0	5.2140	0	33.8420	0	26.735	0	231.875	0	-1e10	8	-1e10	8	-1E+10	1	-1E+10	1	-1E+10	1	-1E+10	1	-1E+10	1	-1E+10	1
4902554	24	C	09/30/2021	21:18	-136.389	49.430	0	235.20	0	5.2110	0	33.8440	0	26.737	0	233.063	0	-1e10	8	-1e10	8	-1E+10	1	-1E+10	1	-1E+10	1	-1E+10	1	-1E+10	1	-1E+10	1
4902554	24	C	09/30/2021	21:18	-136.389	49.430	0	236.00	0	5.2090	0	33.8450	0	26.738	0	233.855	0	-1e10	8	-1e10	8	-1E+10	1	-1E+10	1	-1E+10	1	-1E+10	1	-1E+10	1	-1E+10	1
4902554	24	C	09/30/2021	21:18	-136.389	49.430	0	236.80	0	5.2080	0	33.8450	0	26.738	0	234.648	0	-1e10	8	-1e10	8	-1E+10	1	-1E+10	1	-1E+10	1	-1E+10	1	-1E+10	1	-1E+10	1
4902554	24	C	09/30/2021	21:18	-136.389	49.430	0	238.00	0	5.2000	0	33.8460	0	26.740	0	235.836	0	-1e10	8	-1e10	8	-1E+10	1	-1E+10	1	-1E+10	1	-1E+10	1	-1E+10	1	-1E+10	1
4902554	24	C	09/30/2021	21:18	-136.389	49.430	0	239.20	0	5.1930	0	33.8480	0	26.742	0	237.024	0	-1e10	8	-1e10	8	-1E+10	1	-1E+10	1	-1E+10	1	-1E+10	1	-1E+10	1	-1E+10	1
4902554	24	C	09/30/2021	21:18	-136.389	49.430	0	240.10	0	5.1840	0	33.8490	0	26.744	0	237.916	0	-1e10	8	-1e10	8	-1E+10	1	-1E+10	1	-1E+10	1	-1E+10	1	-1E+10	1	-1E+10	1
4902554	24	C	09/30/2021	21:18	-136.389	49.430	0	240.90	0	5.1780	0	33.8500	0	26.745	0	238.708	0	-1e10	8	-1e10	8	-1E+10	1	-1E+10	1	-1E+10	1	-1E+10	1	-1E+10	1	-1E+10	1
4902554	24	C	09/30/2021	21:18	-136.389	49.430	0	241.70	0	5.1700	0	33.8510	0	26.747	0	239.500	0	-1e10	8	-1e10	8	-1E+10	1	-1E+10	1	-1E+10	1	-1E+10	1	-1E+10	1	-1E+10	1
4902554	24	C	09/30/2021	21:18	-136.389	49.430	0	242.90	0	5.1680	0	33.8510	0	26.747	0	240.689	0	-1e10	8	-1e10	8	-1E+10	1	-1E+10	1	-1E+10	1	-1E+10	1	-1E+10	1	-1E+10	1
4902554	24	C	09/30/2021	21:18	-136.389	49.430	0	244.20	0	5.1640	0	33.8520	0	26.749	0	241.976	0	-1e10	8	-1e10	8	-1E+10	1	-1E+10	1	-1E+10	1	-1E+10	1	-1E+10	1	-1E+10	1
4902554	24	C	09/30/2021	21:18	-136.389	49.430	0	245.00	0	5.1640	0	33.8520	0	26.749	0	242.768	0	-1e10	8	-1e10	8	-1E+10	1	-1E+10	1	-1E+10	1	-1E+10	1	-1E+10	1	-1E+10	1
4902554	24	C	09/30/2021	21:18	-136.389	49.430	0	245.80	0	5.1630	0	33.8530	0	26.750	0	243.561	0	-1e10	8	-1e10	8	-1E+10	1	-1E+10	1	-1E+10	1	-1E+10	1	-1E+10	1	-1E+10	1
4902554	24	C	09/30/2021	21:18	-136.389	49.430	0	247.00	0	5.1600	0	33.8540	0	26.751	0	244.749	0	-1e10	8	-1e10	8	-1E+10	1	-1E+10	1	-1E+10	1	-1E+10	1	-1E+10	1	-1E+10	1
4902554	24	C	09/30/2021	21:18	-136.389	49.430	0	248.20	0	5.1500	0	33.8550	0	26.753	0	245.937	0	-1e10	8	-1e10	8	-1E+10	1	-1E+10	1	-1E+10	1	-1E+10	1	-1E+10	1	-1E+10	1
4902554	24	C	09/30/2021	21:18	-136.389	49.430	0	249.10	0	5.1540	0	33.8570	0	26.754	0	246.828	0	-1e10	8	-1e10	8	-1E+10	1	-1E+10	1	-1E+10	1	-1E+10	1	-1E+10	1	-1E+10	1
4902554	24	C	09/30/2021	21:18	-136.389	49.430	0	249.90	0	5.1510	0	33.8570	0	26.754	0	247.621	0	-1e10	8	-1e10	8	-1E+10	1	-1E+10	1	-1E+10	1	-1E+10	1	-1E+10	1	-1E+10	1
4902554	24	C	09/30/2021	21:18	-136.389	49.430	0	250.70	0	5.1470	0	33.8570	0	26.755	0	248.413	0	-1e10	8	-1e10	8	-1E+10	1	-1E+10	1	-1E+10	1	-1E+10	1	-1E+10	1	-1E+10	1
4902554	24	C	09/30/2021	21:18	-136.389	49.430	0	251.90	0	5.1370	0	33.8590	0	26.757	0	249.601	0	-1e10	8	-1e10	8	-1E+10	1	-1E+10	1	-1E+10	1	-1E+10	1	-1E+10	1	-1E+10	1
4902554	24	C	09/30/2021	21:18	-136.389	49.430	0	253.20	0	5.1270	0	33.8590	0	26.759	0	250.889	0	-1e10	8	-1e10	8	-1E+10	1	-1E+10	1	-1E+10	1	-1E+10	1	-1E+10	1	-1E+10	1
4902554	24	C	09/30/2021	21:18	-136.389	49.430	0	254.00	0	5.1180	0	33.8610	0	26.761	0	251.681	0	-1e10	8	-1e10	8	-1E+10	1	-1E+10	1	-1E+10	1	-1E+10	1	-1E+10	1	-1E+10	1
4902554	24	C	09/30/2021	21:18	-136.389	49.430	0	254.80	0	5.1030	0	33.8610	0	26.763	0	252.473	0	-1e10	8	-1e10	8	-1E+10	1	-1E+10	1	-1E+10	1	-1E+10	1	-1E+10	1	-1E+10	1
4902554	24	C	09/30/2021	21:18	-136.389	49.430	0	255.60	0	5.0950	0	33.8620	0	26.765	0	253.265	0	-1e10	8	-1e10	8	-1E+10	1	-1E+10	1	-1E+10	1	-1E+10	1	-1E+10	1	-1E+10	1
4902554	24	C	09/30/2021	21:18	-136.389	49.430	0	256.90	0	5.0650	0	33.8630	0	26.769	0	254.553	0	-1e10	8	-1e10	8	-1E+10	1	-1E+10	1	-1E+10	1	-1E+10	1	-1E+10	1	-1E+10	1
4902554	24	C	09/30/2021	21:18	-136.389	49.430	0	258.10	0	5.0470	0	33.8610	0	26.769	0	255.741	0	-1e10	8	-1e10	8	-1E+10	1	-1E+10	1	-1E+10	1	-1E+10	1	-1E+10	1	-1E+10	1
4902554	24	C	09/30/2021	21:18	-136.389	49.430	0	258.90	0	5.0360	0	33.8610	0	26.771	0	256.533	0	-1e10	8	-1e10	8	-1E+10	1	-1E+10	1	-1E+10	1	-1E+10	1	-1E+10	1	-1E+10	1
4902554	24	C	09/30/2021	21:18	-136.389	49.430	0	259.70	0	5.0220	0	33.8610	0	26.772	0	257.325	0	-1e10	8	-1e10	8	-1E+10	1	-1E+10	1	-1E+10	1	-1E+10	1	-1E+10	1	-1E+10	1
4902554	24	C	09/30/2021	21:18	-136.389	49.430	0	260.90	0	5.0160	0	33.8610	0	26.773	0	258.514	0	-1e10	8	-1e10	8	-1E+10	1	-1E+10	1	-1E+10	1	-1E+10	1	-1E+10	1	-1E+10	1
4902554	24	C	09/30/2021	21:18	-136.389	49.430	0	262.10	0	5.0200	0	33.8640	0	26.775	0	259.702	0	-1e10	8	-1e10	8	-1E+10	1	-1E+10	1	-1E+10	1	-1E+10	1	-1E+10	1	-1E+10	1
4902554	24	C	09/30/2021	21:18	-136.389	49.430	0	263.00	0	5.0200	0	33.8640	0	26.775	0	260.593	0	-1e10	8	-1e10	8	-1E+10	1	-1E+10	1	-1E+10	1	-1E+10	1	-1E+10	1	-1E+10	1
4902554	24	C	09/30/2021	21:18	-136.389	49.430	0	263.80	0	5.0190	0	33.8650	0	26.776	0	261.385	0	-1e10	8	-1e10	8	-1E+10	1	-1E+10	1	-1E+10	1	-1E+10	1	-1E+10	1	-1E+10	1
4902554	24	C	09/30/2021	21:18	-136.389	49.430	0	265.00	0	5.0200	0	33.8660	0	26.776	0	262.573	0	-1e10	8	-1e10	8	-1E+10	1	-1E+10	1	-1E+10	1	-1E+10	1	-1E+10	1	-1E+10	1
4902554	24	C	09/30/2021	21:18	-136.389	49.430	0	266.20	0	5.0200	0	33.8670	0	26.777	0	263.762	0	-1e10	8	-1e10	8	-1E+10	1	-1E+10	1	-1E+10	1	-1E+10	1	-1E+10	1	-1E+10	1
4902554	24	C	09/30/2021	21:18	-136.389	49.430	0	267.10	0	5.0140	0	33.8670	0	26.778	0	264.653	0	-1e10	8	-1e10	8	-1E+10	1	-1E+10	1	-1E+10	1	-1E+10	1	-1E+10	1	-1E+10	1
4902554	24	C	09/30/2021	21:18	-136.389	49.430	0	267.90	0	5.0080	0	33.8680	0	26.779	0	265.445	0	-1e10	8	-1e10	8	-1E+10	1	-1E+10	1	-1E+10	1	-1E+10	1	-1E+10	1	-1E+10	1
4902554	24	C	09/30/2021	21:18	-136.389	49.430	0	268.70	0	5.0070	0	33.8670	0	26.779	0	266.237	0	-1e10	8	-1e10	8	-1E+10	1	-1E+10	1	-1E+10	1	-1E+10	1	-1E+10	1	-1E+10	1
4902554	24	C	09/30/2021	21:18	-136.389	49.430	0	269.90	0	4.9870	0	33.8690	0	26.783	0	267.425	0	-1e10	8	-1e10	8	-1E+10	1	-1E+10	1	-1E+10	1	-1E+10	1	-1E+10	1	-1E+10	1
4902554	24	C	09/30/2021	21:18	-136.389	49.430	0	271.20	0	4.9720	0	33.8700	0	26.785	0	268.713	0	-1e10	8	-1e10	8	-1E+10	1	-1E+10	1	-1E+10	1	-1E+10	1	-1E+10	1	-1E+10	1
4902554	24	C	09/30/2021	21:18	-136.389	49.430	0	272.00	0	4.9690	0	33.8710	0	26.786	0	269.505	0	-1e10	8	-1e10	8	-1E+10	1	-1E+10	1	-1E+10	1	-1E+10	1	-1E+10	1	-1E+10	1
4902554	24	C	09/30/2021	21:18	-136.389	49.430	0	272.80	0	4.9670	0	33.8710	0	26.786	0	270.297	0	-1e10	8	-1e10	8	-1E+10	1	-1E+10	1	-1E+10	1	-1E+10	1	-1E+10	1	-1E+10	1
4902554	24	C	09/30/2021	21:18	-136.389	49.430	0	273.70	0	4.9650	0	33.8710	0	26.787	0	271.188	0	-1e10	8	-1e10	8	-1E+10	1	-1E+10	1	-1E+10	1	-1E+10	1	-1E+10	1	-1E+10	1
4902554	24	C	09/30/2021	21:18	-136.389	49.430	0	274.90	0	4.9560	0	33.8710	0	26.788	0	272.376	0	-1e10	8	-1e10	8	-1E+10	1	-1E+10	1	-1E+10	1	-1E+10	1	-1E+10	1	-1E+10	1
4902554	24	C	09/30/2021	21:18	-136.389	49.430	0	276.20	0	4.9460	0	33.8720	0	26.790	0	273.663	0	-1e10	8	-1e10	8	-1E+10	1	-1E+10	1	-1E+10	1	-1E+10	1	-1E+10	1	-1E+10	1
4902554	24	C	09/30/2021	21:18	-136.389	49.430	0	277.00	0	4.9370	0	33.8720	0	26.791	0	274.456	0	-1e10	8	-1e10	8	-1E+10	1	-1E+10	1	-1E+10	1	-1E+10	1	-1E+10	1	-1E+10	1
4902554	24	C	09/30/2021	21:18	-136.389	49.430	0	277.80	0	4.9200	0	33.8730	0	26.793	0	275.248	0	-1e10	8	-1e10	8	-1E+10	1	-1E+10	1	-1E+10	1	-1E+10	1	-1E+10	1	-1E+10	1
4902554	24	C	09/30/2021	21:18	-136.389	49.430	0	278.70	0	4.9140	0	33.8730	0	26.794	0	276.139	0	-1e10	8	-1e10	8	-1E+10	1	-1E+10	1	-1E+10	1	-1E+10	1	-1E+10	1	-1E+10	1
4902554	24	C	09/30/2021	21:18	-136.389	49.430	0	279.90	0	4.9020	0	33.8730	0	26.795	0	277.327	0	-1e10	8	-1e10	8	-1E+10	1	-1E+10	1	-1E+10	1	-1E+10	1	-1E+10	1	-1E+10	1
4902554	24	C	09/30/2021	21:18	-136.389	49.430	0	281.20	0	4.8840	0	33.8740	0	26.798	0	278.614	0	-1e10	8	-1e10	8	-1E+10	1	-1E+10	1	-1E+10	1	-1E+10	1	-1E+10	1	-1E+10	1
4902554	24	C	09/30/2021	21:18	-136.389	49.430	0	282.00	0	4.8780	0	33.8730	0	26.798	0	279.406	0	-1e10	8	-1e10	8	-1E+10	1	-1E+10	1	-1E+10	1	-1E+10	1	-1E+10	1	-1E+10	1
4902554	24	C	09/30/2021	21:18	-136.389	49.430	0	282.80	0	4.8760	0	33.8740	0	26.799	0	280.198	0	-1e10	8	-1e10	8	-1E+10	1	-1E+10	1	-1E+10	1	-1E+10	1	-1E+10	1	-1E+10	1
4902554	24	C	09/30/2021	21:18	-136.389	49.430	0	283.70	0	4.8680	0	33.8740	0	26.800	0	281.089	0	-1e10	8	-1e10	8	-1E+10	1	-1E+10	1	-1E+10	1	-1E+10	1	-1E+10	1	-1E+10	1
4902554	24	C	09/30/2021	21:18	-136.389	49.430	0	284.90	0	4.8460	0	33.8740	0	26.802	0	282.278	0	-1e10	8	-1e10	8	-1E+10	1	-1E+10	1	-1E+10	1	-1E+10	1	-1E+10	1	-1E+10	1
4902554	24	C	09/30/2021	21:18	-136.389	49.430	0	286.20	0	4.8220	0	33.8760	0	26.807	0	283.565	0	-1e10	8	-1e10	8	-1E+10	1	-1E+10	1	-1E+10	1	-1E+10	1	-1E+10	1	-1E+10	1
4902554	24	C	09/30/2021	21:18	-136.389	49.430	0	287.00	0	4.8130	0	33.8760	0	26.808	0	284.357	0	-1e10	8	-1e10	8	-1E+10	1	-1E+10	1	-1E+10	1	-1E+10	1	-1E+10	1	-1E+10	1
4902554	24	C	09/30/2021	21:18	-136.389	49.430	0	287.90	0	4.8090	0	33.8760	0	26.808	0	285.248	0	-1e10	8	-1e10	8	-1E+10	1	-1E+10	1	-1E+10	1	-1E+10	1	-1E+10	1	-1E+10	1
4902554	24	C	09/30/2021	21:18	-136.389	49.430	0	288.70	0	4.8080	0	33.8760	0	26.808	0	286.040	0	-1e10	8	-1e10	8	-1E+10	1	-1E+10	1	-1E+10	1	-1E+10	1	-1E+10	1	-1E+10	1
4902554	24	C	09/30/2021	21:18	-136.389	49.430	0	290.00	0	4.8080	0	33.8760	0	26.808	0	287.327	0	-1e10	8	-1e10	8	-1E+10	1	-1E+10	1	-1E+10	1	-1E+10	1	-1E+10	1	-1E+10	1
4902554	24	C	09/30/2021	21:18	-136.389	49.430	0	291.30	0	4.8080	0	33.8760	0	26.808	0	288.614	0	-1e10	8	-1e10	8	-1E+10	1	-1E+10	1	-1E+10	1	-1E+10	1	-1E+10	1	-1E+10	1
4902554	24	C	09/30/2021	21:18	-136.389	49.430	0	292.10	0	4.8070	0	33.8760	0	26.808	0	289.406	0	-1e10	8	-1e10	8	-1E+10	1	-1E+10	1	-1E+10	1	-1E+10	1	-1E+10	1	-1E+10	1
4902554	24	C	09/30/2021	21:18	-136.389	49.430	0	293.00	0	4.7980	0	33.8800	0	26.813	0	290.297	0	-1e10	8	-1e10	8	-1E+10	1	-1E+10	1	-1E+10	1	-1E+10	1	-1E+10	1	-1E+10	1
4902554	24	C	09/30/2021	21:18	-136.389	49.430	0	293.90	0	4.7970	0	33.8790	0	26.812	0	291.188	0	-1e10	8	-1e10	8	-1E+10	1	-1E+10	1	-1E+10	1	-1E+10	1	-1E+10	1	-1E+10	1
4902554	24	C	09/30/2021	21:18	-136.389	49.430	0	294.70	0	4.7920	0	33.8790	0	26.813	0	291.981	0	-1e10	8	-1e10	8	-1E+10	1	-1E+10	1	-1E+10	1	-1E+10	1	-1E+10	1	-1E+10	1
4902554	24	C	09/30/2021	21:18	-136.389	49.430	0	296.00	0	4.7820	0	33.8800	0	26.814	0	293.268	0	-1e10	8	-1e10	8	-1E+10	1	-1E+10	1	-1E+10	1	-1E+10	1	-1E+10	1	-1E+10	1
4902554	24	C	09/30/2021	21:18	-136.389	49.430	0	297.30	0	4.7700	0	33.8820	0	26.817	0	294.555	0	-1e10	8	-1e10	8	-1E+10	1	-1E+10	1	-1E+10	1	-1E+10	1	-1E+10	1	-1E+10	1
4902554	24	C	09/30/2021	21:18	-136.389	49.430	0	298.20	0	4.7670	0	33.8830	0	26.819	0	295.446	0	-1e10	8	-1e10	8	-1E+10	1	-1E+10	1	-1E+10	1	-1E+10	1	-1E+10	1	-1E+10	1
4902554	24	C	09/30/2021	21:18	-136.389	49.430	0	299.00	0	4.7630	0	33.8840	0	26.820	0	296.238	0	-1e10	8	-1e10	8	-1E+10	1	-1E+10	1	-1E+10	1	-1E+10	1	-1E+10	1	-1E+10	1
4902554	24	C	09/30/2021	21:18	-136.389	49.430	0	299.90	0	4.7410	0	33.8850	0	26.823	0	297.129	0	-1e10	8	-1e10	8	-1E+10	1	-1E+10	1	-1E+10	1	-1E+10	1	-1E+10	1	-1E+10	1
4902554	24	C	09/30/2021	21:18	-136.389	49.430	0	300.80	0	4.7410	0	33.8860	0	26.824	0	298.020	0	-1e10	8	-1e10	8	-1E+10	1	-1E+10	1	-1E+10	1	-1E+10	1	-1E+10	1	-1E+10	1
4902554	24	C	09/30/2021	21:18	-136.389	49.430	0	301.70	0	4.7360	0	33.8870	0	26.825	0	298.911	0	-1e10	8	-1e10	8	-1E+10	1	-1E+10	1	-1E+10	1	-1E+10	1	-1E+10	1	-1E+10	1
4902554	24	C	09/30/2021	21:18	-136.389	49.430	0	302.60	0	4.7330	0	33.8880	0	26.826	0	299.802	0	-1e10	8	-1e10	8	-1E+10	1	-1E+10	1	-1E+10	1	-1E+10	1	-1E+10	1	-1E+10	1
4902554	24	C	09/30/2021	21:18	-136.389	49.430	0	303.90	0	4.7290	0	33.8880	0	26.827	0	301.089	0	-1e10	8	-1e10	8	-1E+10	1	-1E+10	1	-1E+10	1	-1E+10	1	-1E+10	1	-1E+10	1
4902554	24	C	09/30/2021	21:18	-136.389	49.430	0	305.30	0	4.7220	0	33.8900	0	26.829	0	302.475	0	-1e10	8	-1e10	8	-1E+10	1	-1E+10	1	-1E+10	1	-1E+10	1	-1E+10	1	-1E+10	1
4902554	24	C	09/30/2021	21:18	-136.389	49.430	0	306.20	0	4.7100	0	33.8920	0	26.832	0	303.366	0	-1e10	8	-1e10	8	-1E+10	1	-1E+10	1	-1E+10	1	-1E+10	1	-1E+10	1	-1E+10	1
4902554	24	C	09/30/2021	21:18	-136.389	49.430	0	307.10	0	4.7060	0	33.8920	0	26.832	0	304.257	0	-1e10	8	-1e10	8	-1E+10	1	-1E+10	1	-1E+10	1	-1E+10	1	-1E+10	1	-1E+10	1
4902554	24	C	09/30/2021	21:18	-136.389	49.430	0	308.00	0	4.7030	0	33.8930	0	26.834	0	305.148	0	-1e10	8	-1e10	8	-1E+10	1	-1E+10	1	-1E+10	1	-1E+10	1	-1E+10	1	-1E+10	1
4902554	24	C	09/30/2021	21:18	-136.389	49.430	0	308.90	0	4.7010	0	33.8930	0	26.834	0	306.039	0	-1e10	8	-1e10	8	-1E+10	1	-1E+10	1	-1E+10	1	-1E+10	1	-1E+10	1	-1E+10	1
4902554	24	C	09/30/2021	21:18	-136.389	49.430	0	309.80	0	4.7000	0	33.8930	0	26.834	0	306.930	0	-1e10	8	-1e10	8	-1E+10	1	-1E+10	1	-1E+10	1	-1E+10	1	-1E+10	1	-1E+10	1
4902554	24	C	09/30/2021	21:18	-136.389	49.430	0	310.80	0	4.6980	0	33.8940	0	26.835	0	307.920	0	-1e10	8	-1e10	8	-1E+10	1	-1E+10	1	-1E+10	1	-1E+10	1	-1E+10	1	-1E+10	1
4902554	24	C	09/30/2021	21:18	-136.389	49.430	0	311.70	0	4.6940	0	33.8940	0	26.835	0	308.811	0	-1e10	8	-1e10	8	-1E+10	1	-1E+10	1	-1E+10	1	-1E+10	1	-1E+10	1	-1E+10	1
4902554	24	C	09/30/2021	21:18	-136.389	49.430	0	312.60	0	4.6920	0	33.8950	0	26.836	0	309.702	0	-1e10	8	-1e10	8	-1E+10	1	-1E+10	1	-1E+10	1	-1E+10	1	-1E+10	1	-1E+10	1
4902554	24	C	09/30/2021	21:18	-136.389	49.430	0	313.50	0	4.6900	0	33.8950	0	26.837	0	310.593	0	-1e10	8	-1e10	8	-1E+10	1	-1E+10	1	-1E+10	1	-1E+10	1	-1E+10	1	-1E+10	1
4902554	24	C	09/30/2021	21:18	-136.389	49.430	0	314.90	0	4.6870	0	33.8960	0	26.838	0	311.979	0	-1e10	8	-1e10	8	-1E+10	1	-1E+10	1	-1E+10	1	-1E+10	1	-1E+10	1	-1E+10	1
4902554	24	C	09/30/2021	21:18	-136.389	49.430	0	316.40	0	4.6770	0	33.8980	0	26.840	0	313.464	0	-1e10	8	-1e10	8	-1E+10	1	-1E+10	1	-1E+10	1	-1E+10	1	-1E+10	1	-1E+10	1
4902554	24	C	09/30/2021	21:18	-136.389	49.430	0	317.30	0	4.6780	0	33.8980	0	26.840	0	314.355	0	-1e10	8	-1e10	8	-1E+10	1	-1E+10	1	-1E+10	1	-1E+10	1	-1E+10	1	-1E+10	1
4902554	24	C	09/30/2021	21:18	-136.389	49.430	0	318.30	0	4.6750	0	33.8990	0	26.841	0	315.345	0	-1e10	8	-1e10	8	-1E+10	1	-1E+10	1	-1E+10	1	-1E+10	1	-1E+10	1	-1E+10	1
4902554	24	C	09/30/2021	21:18	-136.389	49.430	0	319.20	0	4.6690	0	33.9000	0	26.843	0	316.236	0	-1e10	8	-1e10	8	-1E+10	1	-1E+10	1	-1E+10	1	-1E+10	1	-1E+10	1	-1E+10	1
4902554	24	C	09/30/2021	21:18	-136.389	49.430	0	320.20	0	4.6660	0	33.8990	0	26.842	0	317.226	0	-1e10	8	-1e10	8	-1E+10	1	-1E+10	1	-1E+10	1	-1E+10	1	-1E+10	1	-1E+10	1
4902554	24	C	09/30/2021	21:18	-136.389	49.430	0	321.20	0	4.6660	0	33.8990	0	26.843	0	318.216	0	-1e10	8	-1e10	8	-1E+10	1	-1E+10	1	-1E+10	1	-1E+10	1	-1E+10	1	-1E+10	1
4902554	24	C	09/30/2021	21:18	-136.389	49.430	0	322.10	0	4.6610	0	33.9000	0	26.844	0	319.107	0	-1e10	8	-1e10	8	-1E+10	1	-1E+10	1	-1E+10	1	-1E+10	1	-1E+10	1	-1E+10	1
4902554	24	C	09/30/2021	21:18	-136.389	49.430	0	323.10	0	4.6550	0	33.9010	0	26.845	0	320.097	0	-1e10	8	-1e10	8	-1E+10	1	-1E+10	1	-1E+10	1	-1E+10	1	-1E+10	1	-1E+10	1
4902554	24	C	09/30/2021	21:18	-136.389	49.430	0	324.00	0	4.6500	0	33.9020	0	26.847	0	320.987	0	-1e10	8	-1e10	8	-1E+10	1	-1E+10	1	-1E+10	1	-1E+10	1	-1E+10	1	-1E+10	1
4902554	24	C	09/30/2021	21:18	-136.389	49.430	0	325.00	0	4.6460	0	33.9020	0	26.847	0	321.977	0	-1e10	8	-1e10	8	-1E+10	1	-1E+10	1	-1E+10	1	-1E+10	1	-1E+10	1	-1E+10	1
4902554	24	C	09/30/2021	21:18	-136.389	49.430	0	326.00	0	4.6430	0	33.9030	0	26.848	0	322.967	0	-1e10	8	-1e10	8	-1E+10	1	-1E+10	1	-1E+10	1	-1E+10	1	-1E+10	1	-1E+10	1
4902554	24	C	09/30/2021	21:18	-136.389	49.430	0	326.90	0	4.6370	0	33.9050	0	26.850	0	323.858	0	-1e10	8	-1e10	8	-1E+10	1	-1E+10	1	-1E+10	1	-1E+10	1	-1E+10	1	-1E+10	1
4902554	24	C	09/30/2021	21:18	-136.389	49.430	0	327.90	0	4.6310	0	33.9060	0	26.852	0	324.848	0	-1e10	8	-1e10	8	-1E+10	1	-1E+10	1	-1E+10	1	-1E+10	1	-1E+10	1	-1E+10	1
4902554	24	C	09/30/2021	21:18	-136.389	49.430	0	328.80	0	4.6310	0	33.9060	0	26.852	0	325.739	0	-1e10	8	-1e10	8	-1E+10	1	-1E+10	1	-1E+10	1	-1E+10	1	-1E+10	1	-1E+10	1
4902554	24	C	09/30/2021	21:18	-136.389	49.430	0	329.80	0	4.6220	0	33.9080	0	26.855	0	326.729	0	-1e10	8	-1e10	8	-1E+10	1	-1E+10	1	-1E+10	1	-1E+10	1	-1E+10	1	-1E+10	1
4902554	24	C	09/30/2021	21:18	-136.389	49.430	0	330.80	0	4.6190	0	33.9090	0	26.856	0	327.719	0	-1e10	8	-1e10	8	-1E+10	1	-1E+10	1	-1E+10	1	-1E+10	1	-1E+10	1	-1E+10	1
4902554	24	C	09/30/2021	21:18	-136.389	49.430	0	331.70	0	4.6180	0	33.9100	0	26.857	0	328.610	0	-1e10	8	-1e10	8	-1E+10	1	-1E+10	1	-1E+10	1	-1E+10	1	-1E+10	1	-1E+10	1
4902554	24	C	09/30/2021	21:18	-136.389	49.430	0	332.70	0	4.6140	0	33.9100	0	26.857	0	329.600	0	-1e10	8	-1e10	8	-1E+10	1	-1E+10	1	-1E+10	1	-1E+10	1	-1E+10	1	-1E+10	1
4902554	24	C	09/30/2021	21:18	-136.389	49.430	0	333.70	0	4.6120	0	33.9110	0	26.858	0	330.590	0	-1e10	8	-1e10	8	-1E+10	1	-1E+10	1	-1E+10	1	-1E+10	1	-1E+10	1	-1E+10	1
4902554	24	C	09/30/2021	21:18	-136.389	49.430	0	334.70	0	4.6100	0	33.9110	0	26.858	0	331.579	0	-1e10	8	-1e10	8	-1E+10	1	-1E+10	1	-1E+10	1	-1E+10	1	-1E+10	1	-1E+10	1
4902554	24	C	09/30/2021	21:18	-136.389	49.430	0	335.60	0	4.6050	0	33.9130	0	26.860	0	332.470	0	-1e10	8	-1e10	8	-1E+10	1	-1E+10	1	-1E+10	1	-1E+10	1	-1E+10	1	-1E+10	1
4902554	24	C	09/30/2021	21:18	-136.389	49.430	0	336.60	0	4.5970	0	33.9130	0	26.861	0	333.460	0	-1e10	8	-1e10	8	-1E+10	1	-1E+10	1	-1E+10	1	-1E+10	1	-1E+10	1	-1E+10	1
4902554	24	C	09/30/2021	21:18	-136.389	49.430	0	337.50	0	4.5950	0	33.9140	0	26.862	0	334.351	0	-1e10	8	-1e10	8	-1E+10	1	-1E+10	1	-1E+10	1	-1E+10	1	-1E+10	1	-1E+10	1
4902554	24	C	09/30/2021	21:18	-136.389	49.430	0	338.50	0	4.5920	0	33.9150	0	26.863	0	335.341	0	-1e10	8	-1e10	8	-1E+10	1	-1E+10	1	-1E+10	1	-1E+10	1	-1E+10	1	-1E+10	1
4902554	24	C	09/30/2021	21:18	-136.389	49.430	0	339.50	0	4.5890	0	33.9160	0	26.865	0	336.331	0	-1e10	8	-1e10	8	-1E+10	1	-1E+10	1	-1E+10	1	-1E+10	1	-1E+10	1	-1E+10	1
4902554	24	C	09/30/2021	21:18	-136.389	49.430	0	340.50	0	4.5870	0	33.9160	0	26.865	0	337.321	0	-1e10	8	-1e10	8	-1E+10	1	-1E+10	1	-1E+10	1	-1E+10	1	-1E+10	1	-1E+10	1
4902554	24	C	09/30/2021	21:18	-136.389	49.430	0	341.90	0	4.5800	0	33.9170	0	26.866	0	338.706	0	-1e10	8	-1e10	8	-1E+10	1	-1E+10	1	-1E+10	1	-1E+10	1	-1E+10	1	-1E+10	1
4902554	24	C	09/30/2021	21:18	-136.389	49.430	0	343.40	0	4.5710	0	33.9210	0	26.870	0	340.191	0	-1e10	8	-1e10	8	-1E+10	1	-1E+10	1	-1E+10	1	-1E+10	1	-1E+10	1	-1E+10	1
4902554	24	C	09/30/2021	21:18	-136.389	49.430	0	344.40	0	4.5650	0	33.9230	0	26.873	0	341.181	0	-1e10	8	-1e10	8	-1E+10	1	-1E+10	1	-1E+10	1	-1E+10	1	-1E+10	1	-1E+10	1
4902554	24	C	09/30/2021	21:18	-136.389	49.430	0	345.40	0	4.5580	0	33.9240	0	26.874	0	342.171	0	-1e10	8	-1e10	8	-1E+10	1	-1E+10	1	-1E+10	1	-1E+10	1	-1E+10	1	-1E+10	1
4902554	24	C	09/30/2021	21:18	-136.389	49.430	0	346.40	0	4.5550	0	33.9250	0	26.875	0	343.161	0	-1e10	8	-1e10	8	-1E+10	1	-1E+10	1	-1E+10	1	-1E+10	1	-1E+10	1	-1E+10	1
4902554	24	C	09/30/2021	21:18	-136.389	49.430	0	347.40	0	4.5500	0	33.9260	0	26.877	0	344.150	0	-1e10	8	-1e10	8	-1E+10	1	-1E+10	1	-1E+10	1	-1E+10	1	-1E+10	1	-1E+10	1
4902554	24	C	09/30/2021	21:18	-136.389	49.430	0	348.30	0	4.5490	0	33.9250	0	26.876	0	345.041	0	-1e10	8	-1e10	8	-1E+10	1	-1E+10	1	-1E+10	1	-1E+10	1	-1E+10	1	-1E+10	1
4902554	24	C	09/30/2021	21:18	-136.389	49.430	0	349.30	0	4.5460	0	33.9260	0	26.877	0	346.031	0	-1e10	8	-1e10	8	-1E+10	1	-1E+10	1	-1E+10	1	-1E+10	1	-1E+10	1	-1E+10	1
4902554	24	C	09/30/2021	21:18	-136.389	49.430	0	350.30	0	4.5410	0	33.9270	0	26.879	0	347.021	0	-1e10	8	-1e10	8	-1E+10	1	-1E+10	1	-1E+10	1	-1E+10	1	-1E+10	1	-1E+10	1
4902554	24	C	09/30/2021	21:18	-136.389	49.430	0	353.20	0	4.5240	0	33.9310	0	26.884	0	349.891	0	-1e10	8	-1e10	8	-1E+10	1	-1E+10	1	-1E+10	1	-1E+10	1	-1E+10	1	-1E+10	1
4902554	24	C	09/30/2021	21:18	-136.389	49.430	0	358.10	0	4.5130	0	33.9360	0	26.889	0	354.741	0	-1e10	8	-1e10	8	-1E+10	1	-1E+10	1	-1E+10	1	-1E+10	1	-1E+10	1	-1E+10	1
4902554	24	C	09/30/2021	21:18	-136.389	49.430	0	362.90	0	4.4930	0	33.9410	0	26.895	0	359.492	0	-1e10	8	-1e10	8	-1E+10	1	-1E+10	1	-1E+10	1	-1E+10	1	-1E+10	1	-1E+10	1
4902554	24	C	09/30/2021	21:18	-136.389	49.430	0	367.80	0	4.4730	0	33.9440	0	26.900	0	364.342	0	-1e10	8	-1e10	8	-1E+10	1	-1E+10	1	-1E+10	1	-1E+10	1	-1E+10	1	-1E+10	1
4902554	24	C	09/30/2021	21:18	-136.389	49.430	0	372.70	0	4.4520	0	33.9510	0	26.907	0	369.191	0	-1e10	8	-1e10	8	-1E+10	1	-1E+10	1	-1E+10	1	-1E+10	1	-1E+10	1	-1E+10	1
4902554	24	C	09/30/2021	21:18	-136.389	49.430	0	377.60	0	4.4390	0	33.9560	0	26.913	0	374.041	0	-1e10	8	-1e10	8	-1E+10	1	-1E+10	1	-1E+10	1	-1E+10	1	-1E+10	1	-1E+10	1
4902554	24	C	09/30/2021	21:18	-136.389	49.430	0	382.90	0	4.4160	0	33.9620	0	26.920	0	379.286	0	-1e10	8	-1e10	8	-1E+10	1	-1E+10	1	-1E+10	1	-1E+10	1	-1E+10	1	-1E+10	1
4902554	24	C	09/30/2021	21:18	-136.389	49.430	0	388.20	0	4.3930	0	33.9700	0	26.929	0	384.531	0	-1e10	8	-1e10	8	-1E+10	1	-1E+10	1	-1E+10	1	-1E+10	1	-1E+10	1	-1E+10	1
4902554	24	C	09/30/2021	21:18	-136.389	49.430	0	393.10	0	4.3820	0	33.9740	0	26.933	0	389.380	0	-1e10	8	-1e10	8	-1E+10	1	-1E+10	1	-1E+10	1	-1E+10	1	-1E+10	1	-1E+10	1
4902554	24	C	09/30/2021	21:18	-136.389	49.430	0	398.00	0	4.3740	0	33.9770	0	26.937	0	394.229	0	-1e10	8	-1e10	8	-1E+10	1	-1E+10	1	-1E+10	1	-1E+10	1	-1E+10	1	-1E+10	1
4902554	24	C	09/30/2021	21:18	-136.389	49.430	0	402.80	0	4.3630	0	33.9800	0	26.940	0	398.979	0	-1e10	8	-1e10	8	-1E+10	1	-1E+10	1	-1E+10	1	-1E+10	1	-1E+10	1	-1E+10	1
4902554	24	C	09/30/2021	21:18	-136.389	49.430	0	407.60	0	4.3450	0	33.9860	0	26.947	0	403.729	0	-1e10	8	-1e10	8	-1E+10	1	-1E+10	1	-1E+10	1	-1E+10	1	-1E+10	1	-1E+10	1
4902554	24	C	09/30/2021	21:18	-136.389	49.430	0	412.90	0	4.3330	0	33.9950	0	26.955	0	408.973	0	-1e10	8	-1e10	8	-1E+10	1	-1E+10	1	-1E+10	1	-1E+10	1	-1E+10	1	-1E+10	1
4902554	24	C	09/30/2021	21:18	-136.389	49.430	0	418.30	0	4.3180	0	34.0010	0	26.962	0	414.316	0	-1e10	8	-1e10	8	-1E+10	1	-1E+10	1	-1E+10	1	-1E+10	1	-1E+10	1	-1E+10	1
4902554	24	C	09/30/2021	21:18	-136.389	49.430	0	423.10	0	4.3060	0	34.0060	0	26.967	0	419.066	0	-1e10	8	-1e10	8	-1E+10	1	-1E+10	1	-1E+10	1	-1E+10	1	-1E+10	1	-1E+10	1
4902554	24	C	09/30/2021	21:18	-136.389	49.430	0	428.00	0	4.2960	0	34.0100	0	26.971	0	423.914	0	-1e10	8	-1e10	8	-1E+10	1	-1E+10	1	-1E+10	1	-1E+10	1	-1E+10	1	-1E+10	1
4902554	24	C	09/30/2021	21:18	-136.389	49.430	0	432.90	0	4.2820	0	34.0170	0	26.978	0	428.762	0	-1e10	8	-1e10	8	-1E+10	1	-1E+10	1	-1E+10	1	-1E+10	1	-1E+10	1	-1E+10	1
4902554	24	C	09/30/2021	21:18	-136.389	49.430	0	437.90	0	4.2730	0	34.0210	0	26.982	0	433.709	0	-1e10	8	-1e10	8	-1E+10	1	-1E+10	1	-1E+10	1	-1E+10	1	-1E+10	1	-1E+10	1
4902554	24	C	09/30/2021	21:18	-136.389	49.430	0	442.70	0	4.2660	0	34.0260	0	26.987	0	438.458	0	-1e10	8	-1e10	8	-1E+10	1	-1E+10	1	-1E+10	1	-1E+10	1	-1E+10	1	-1E+10	1
4902554	24	C	09/30/2021	21:18	-136.389	49.430	0	447.60	0	4.2540	0	34.0310	0	26.992	0	443.306	0	-1e10	8	-1e10	8	-1E+10	1	-1E+10	1	-1E+10	1	-1E+10	1	-1E+10	1	-1E+10	1
4902554	24	C	09/30/2021	21:18	-136.389	49.430	0	452.60	0	4.2440	0	34.0350	0	26.997	0	448.253	0	-1e10	8	-1e10	8	-1E+10	1	-1E+10	1	-1E+10	1	-1E+10	1	-1E+10	1	-1E+10	1
4902554	24	C	09/30/2021	21:18	-136.389	49.430	0	457.60	0	4.2260	0	34.0410	0	27.003	0	453.199	0	-1e10	8	-1e10	8	-1E+10	1	-1E+10	1	-1E+10	1	-1E+10	1	-1E+10	1	-1E+10	1
4902554	24	C	09/30/2021	21:18	-136.389	49.430	0	462.60	0	4.2160	0	34.0440	0	27.007	0	458.146	0	-1e10	8	-1e10	8	-1E+10	1	-1E+10	1	-1E+10	1	-1E+10	1	-1E+10	1	-1E+10	1
4902554	24	C	09/30/2021	21:18	-136.389	49.430	0	467.50	0	4.2080	0	34.0470	0	27.010	0	462.993	0	-1e10	8	-1e10	8	-1E+10	1	-1E+10	1	-1E+10	1	-1E+10	1	-1E+10	1	-1E+10	1
4902554	24	C	09/30/2021	21:18	-136.389	49.430	0	472.60	0	4.2000	0	34.0510	0	27.014	0	468.038	0	-1e10	8	-1e10	8	-1E+10	1	-1E+10	1	-1E+10	1	-1E+10	1	-1E+10	1	-1E+10	1
4902554	24	C	09/30/2021	21:18	-136.389	49.430	0	477.60	0	4.1890	0	34.0570	0	27.020	0	472.984	0	-1e10	8	-1e10	8	-1E+10	1	-1E+10	1	-1E+10	1	-1E+10	1	-1E+10	1	-1E+10	1
4902554	24	C	09/30/2021	21:18	-136.389	49.430	0	482.60	0	4.1800	0	34.0610	0	27.024	0	477.930	0	-1e10	8	-1e10	8	-1E+10	1	-1E+10	1	-1E+10	1	-1E+10	1	-1E+10	1	-1E+10	1
4902554	24	C	09/30/2021	21:18	-136.389	49.430	0	487.60	0	4.1710	0	34.0650	0	27.028	0	482.876	0	-1e10	8	-1e10	8	-1E+10	1	-1E+10	1	-1E+10	1	-1E+10	1	-1E+10	1	-1E+10	1
4902554	24	C	09/30/2021	21:18	-136.389	49.430	0	492.70	0	4.1590	0	34.0690	0	27.033	0	487.921	0	-1e10	8	-1e10	8	-1E+10	1	-1E+10	1	-1E+10	1	-1E+10	1	-1E+10	1	-1E+10	1
4902554	24	C	09/30/2021	21:18	-136.389	49.430	0	498.10	0	4.1450	0	34.0760	0	27.040	0	493.262	0	-1e10	8	-1e10	8	-1E+10	1	-1E+10	1	-1E+10	1	-1E+10	1	-1E+10	1	-1E+10	1
4902554	24	C	09/30/2021	21:18	-136.389	49.430	0	503.00	0	4.1310	0	34.0800	0	27.045	0	498.108	0	-1e10	8	-1e10	8	-1E+10	1	-1E+10	1	-1E+10	1	-1E+10	1	-1E+10	1	-1E+10	1
4902554	24	C	09/30/2021	21:18	-136.389	49.430	0	507.80	0	4.1180	0	34.0850	0	27.050	0	502.856	0	-1e10	8	-1e10	8	-1E+10	1	-1E+10	1	-1E+10	1	-1E+10	1	-1E+10	1	-1E+10	1
4902554	24	C	09/30/2021	21:18	-136.389	49.430	0	512.70	0	4.1000	0	34.0900	0	27.056	0	507.702	0	-1e10	8	-1e10	8	-1E+10	1	-1E+10	1	-1E+10	1	-1E+10	1	-1E+10	1	-1E+10	1
4902554	24	C	09/30/2021	21:18	-136.389	49.430	0	517.70	0	4.0900	0	34.0940	0	27.060	0	512.647	0	-1e10	8	-1e10	8	-1E+10	1	-1E+10	1	-1E+10	1	-1E+10	1	-1E+10	1	-1E+10	1
4902554	24	C	09/30/2021	21:18	-136.389	49.430	0	522.70	0	4.0800	0	34.0980	0	27.064	0	517.592	0	-1e10	8	-1e10	8	-1E+10	1	-1E+10	1	-1E+10	1	-1E+10	1	-1E+10	1	-1E+10	1
4902554	24	C	09/30/2021	21:18	-136.389	49.430	0	527.90	0	4.0660	0	34.1030	0	27.070	0	522.735	0	-1e10	8	-1e10	8	-1E+10	1	-1E+10	1	-1E+10	1	-1E+10	1	-1E+10	1	-1E+10	1
4902554	24	C	09/30/2021	21:18	-136.389	49.430	0	533.10	0	4.0500	0	34.1080	0	27.075	0	527.877	0	-1e10	8	-1e10	8	-1E+10	1	-1E+10	1	-1E+10	1	-1E+10	1	-1E+10	1	-1E+10	1
4902554	24	C	09/30/2021	21:18	-136.389	49.430	0	538.00	0	4.0350	0	34.1130	0	27.081	0	532.723	0	-1e10	8	-1e10	8	-1E+10	1	-1E+10	1	-1E+10	1	-1E+10	1	-1E+10	1	-1E+10	1
4902554	24	C	09/30/2021	21:18	-136.389	49.430	0	543.00	0	4.0190	0	34.1200	0	27.088	0	537.668	0	-1e10	8	-1e10	8	-1E+10	1	-1E+10	1	-1E+10	1	-1E+10	1	-1E+10	1	-1E+10	1
4902554	24	C	09/30/2021	21:18	-136.389	49.430	0	548.10	0	4.0090	0	34.1240	0	27.092	0	542.711	0	-1e10	8	-1e10	8	-1E+10	1	-1E+10	1	-1E+10	1	-1E+10	1	-1E+10	1	-1E+10	1
4902554	24	C	09/30/2021	21:18	-136.389	49.430	0	552.80	0	3.9900	0	34.1320	0	27.101	0	547.358	0	-1e10	8	-1e10	8	-1E+10	1	-1E+10	1	-1E+10	1	-1E+10	1	-1E+10	1	-1E+10	1
4902554	24	C	09/30/2021	21:18	-136.389	49.430	0	557.70	0	3.9780	0	34.1370	0	27.106	0	552.204	0	-1e10	8	-1e10	8	-1E+10	1	-1E+10	1	-1E+10	1	-1E+10	1	-1E+10	1	-1E+10	1
4902554	24	C	09/30/2021	21:18	-136.389	49.430	0	563.00	0	3.9690	0	34.1400	0	27.109	0	557.444	0	-1e10	8	-1e10	8	-1E+10	1	-1E+10	1	-1E+10	1	-1E+10	1	-1E+10	1	-1E+10	1
4902554	24	C	09/30/2021	21:18	-136.389	49.430	0	568.40	0	3.9540	0	34.1460	0	27.116	0	562.784	0	-1e10	8	-1e10	8	-1E+10	1	-1E+10	1	-1E+10	1	-1E+10	1	-1E+10	1	-1E+10	1
4902554	24	C	09/30/2021	21:18	-136.389	49.430	0	573.30	0	3.9440	0	34.1500	0	27.120	0	567.629	0	-1e10	8	-1e10	8	-1E+10	1	-1E+10	1	-1E+10	1	-1E+10	1	-1E+10	1	-1E+10	1
4902554	24	C	09/30/2021	21:18	-136.389	49.430	0	577.90	0	3.9360	0	34.1520	0	27.122	0	572.177	0	-1e10	8	-1e10	8	-1E+10	1	-1E+10	1	-1E+10	1	-1E+10	1	-1E+10	1	-1E+10	1
4902554	24	C	09/30/2021	21:18	-136.389	49.430	0	582.90	0	3.9200	0	34.1590	0	27.130	0	577.120	0	-1e10	8	-1e10	8	-1E+10	1	-1E+10	1	-1E+10	1	-1E+10	1	-1E+10	1	-1E+10	1
4902554	24	C	09/30/2021	21:18	-136.389	49.430	0	587.90	0	3.9110	0	34.1610	0	27.132	0	582.064	0	-1e10	8	-1e10	8	-1E+10	1	-1E+10	1	-1E+10	1	-1E+10	1	-1E+10	1	-1E+10	1
4902554	24	C	09/30/2021	21:18	-136.389	49.430	0	592.90	0	3.9010	0	34.1650	0	27.136	0	587.007	0	-1e10	8	-1e10	8	-1E+10	1	-1E+10	1	-1E+10	1	-1E+10	1	-1E+10	1	-1E+10	1
4902554	24	C	09/30/2021	21:18	-136.389	49.430	0	597.90	0	3.8890	0	34.1690	0	27.141	0	591.950	0	-1e10	8	-1e10	8	-1E+10	1	-1E+10	1	-1E+10	1	-1E+10	1	-1E+10	1	-1E+10	1
4902554	24	C	09/30/2021	21:18	-136.389	49.430	0	602.70	0	3.8750	0	34.1740	0	27.146	0	596.696	0	-1e10	8	-1e10	8	-1E+10	1	-1E+10	1	-1E+10	1	-1E+10	1	-1E+10	1	-1E+10	1
4902554	24	C	09/30/2021	21:18	-136.389	49.430	0	607.60	0	3.8680	0	34.1760	0	27.149	0	601.540	0	-1e10	8	-1e10	8	-1E+10	1	-1E+10	1	-1E+10	1	-1E+10	1	-1E+10	1	-1E+10	1
4902554	24	C	09/30/2021	21:18	-136.389	49.430	0	612.60	0	3.8610	0	34.1780	0	27.151	0	606.483	0	-1e10	8	-1e10	8	-1E+10	1	-1E+10	1	-1E+10	1	-1E+10	1	-1E+10	1	-1E+10	1
4902554	24	C	09/30/2021	21:18	-136.389	49.430	0	617.60	0	3.8500	0	34.1820	0	27.155	0	611.425	0	-1e10	8	-1e10	8	-1E+10	1	-1E+10	1	-1E+10	1	-1E+10	1	-1E+10	1	-1E+10	1
4902554	24	C	09/30/2021	21:18	-136.389	49.430	0	622.80	0	3.8410	0	34.1840	0	27.158	0	616.566	0	-1e10	8	-1e10	8	-1E+10	1	-1E+10	1	-1E+10	1	-1E+10	1	-1E+10	1	-1E+10	1
4902554	24	C	09/30/2021	21:18	-136.389	49.430	0	628.00	0	3.8290	0	34.1870	0	27.161	0	621.706	0	-1e10	8	-1e10	8	-1E+10	1	-1E+10	1	-1E+10	1	-1E+10	1	-1E+10	1	-1E+10	1
4902554	24	C	09/30/2021	21:18	-136.389	49.430	0	632.90	0	3.8200	0	34.1910	0	27.165	0	626.549	0	-1e10	8	-1e10	8	-1E+10	1	-1E+10	1	-1E+10	1	-1E+10	1	-1E+10	1	-1E+10	1
4902554	24	C	09/30/2021	21:18	-136.389	49.430	0	637.80	0	3.8140	0	34.1930	0	27.168	0	631.393	0	-1e10	8	-1e10	8	-1E+10	1	-1E+10	1	-1E+10	1	-1E+10	1	-1E+10	1	-1E+10	1
4902554	24	C	09/30/2021	21:18	-136.389	49.430	0	642.80	0	3.7950	0	34.1980	0	27.174	0	636.335	0	-1e10	8	-1e10	8	-1E+10	1	-1E+10	1	-1E+10	1	-1E+10	1	-1E+10	1	-1E+10	1
4902554	24	C	09/30/2021	21:18	-136.389	49.430	0	647.80	0	3.7750	0	34.2030	0	27.180	0	641.277	0	-1e10	8	-1e10	8	-1E+10	1	-1E+10	1	-1E+10	1	-1E+10	1	-1E+10	1	-1E+10	1
4902554	24	C	09/30/2021	21:18	-136.389	49.430	0	652.90	0	3.7620	0	34.2070	0	27.184	0	646.318	0	-1e10	8	-1e10	8	-1E+10	1	-1E+10	1	-1E+10	1	-1E+10	1	-1E+10	1	-1E+10	1
4902554	24	C	09/30/2021	21:18	-136.389	49.430	0	658.00	0	3.7560	0	34.2090	0	27.186	0	651.358	0	-1e10	8	-1e10	8	-1E+10	1	-1E+10	1	-1E+10	1	-1E+10	1	-1E+10	1	-1E+10	1
4902554	24	C	09/30/2021	21:18	-136.389	49.430	0	663.10	0	3.7440	0	34.2120	0	27.190	0	656.399	0	-1e10	8	-1e10	8	-1E+10	1	-1E+10	1	-1E+10	1	-1E+10	1	-1E+10	1	-1E+10	1
4902554	24	C	09/30/2021	21:18	-136.389	49.430	0	667.80	0	3.7310	0	34.2150	0	27.194	0	661.044	0	-1e10	8	-1e10	8	-1E+10	1	-1E+10	1	-1E+10	1	-1E+10	1	-1E+10	1	-1E+10	1
4902554	24	C	09/30/2021	21:18	-136.389	49.430	0	673.00	0	3.7170	0	34.2190	0	27.198	0	666.183	0	-1e10	8	-1e10	8	-1E+10	1	-1E+10	1	-1E+10	1	-1E+10	1	-1E+10	1	-1E+10	1
4902554	24	C	09/30/2021	21:18	-136.389	49.430	0	678.20	0	3.7100	0	34.2210	0	27.201	0	671.322	0	-1e10	8	-1e10	8	-1E+10	1	-1E+10	1	-1E+10	1	-1E+10	1	-1E+10	1	-1E+10	1
4902554	24	C	09/30/2021	21:18	-136.389	49.430	0	682.90	0	3.7060	0	34.2220	0	27.202	0	675.967	0	-1e10	8	-1e10	8	-1E+10	1	-1E+10	1	-1E+10	1	-1E+10	1	-1E+10	1	-1E+10	1
4902554	24	C	09/30/2021	21:18	-136.389	49.430	0	687.60	0	3.6990	0	34.2240	0	27.204	0	680.611	0	-1e10	8	-1e10	8	-1E+10	1	-1E+10	1	-1E+10	1	-1E+10	1	-1E+10	1	-1E+10	1
4902554	24	C	09/30/2021	21:18	-136.389	49.430	0	692.80	0	3.6880	0	34.2260	0	27.207	0	685.750	0	-1e10	8	-1e10	8	-1E+10	1	-1E+10	1	-1E+10	1	-1E+10	1	-1E+10	1	-1E+10	1
4902554	24	C	09/30/2021	21:18	-136.389	49.430	0	698.10	0	3.6770	0	34.2290	0	27.210	0	690.987	0	-1e10	8	-1e10	8	-1E+10	1	-1E+10	1	-1E+10	1	-1E+10	1	-1E+10	1	-1E+10	1
4902554	24	C	09/30/2021	21:18	-136.389	49.430	0	702.90	0	3.6720	0	34.2310	0	27.212	0	695.730	0	-1e10	8	-1e10	8	-1E+10	1	-1E+10	1	-1E+10	1	-1E+10	1	-1E+10	1	-1E+10	1
4902554	24	C	09/30/2021	21:18	-136.389	49.430	0	707.60	0	3.6600	0	34.2320	0	27.214	0	700.374	0	-1e10	8	-1e10	8	-1E+10	1	-1E+10	1	-1E+10	1	-1E+10	1	-1E+10	1	-1E+10	1
4902554	24	C	09/30/2021	21:18	-136.389	49.430	0	712.90	0	3.6490	0	34.2350	0	27.218	0	705.611	0	-1e10	8	-1e10	8	-1E+10	1	-1E+10	1	-1E+10	1	-1E+10	1	-1E+10	1	-1E+10	1
4902554	24	C	09/30/2021	21:18	-136.389	49.430	0	718.10	0	3.6370	0	34.2370	0	27.221	0	710.749	0	-1e10	8	-1e10	8	-1E+10	1	-1E+10	1	-1E+10	1	-1E+10	1	-1E+10	1	-1E+10	1
4902554	24	C	09/30/2021	21:18	-136.389	49.430	0	722.70	0	3.6180	0	34.2410	0	27.226	0	715.294	0	-1e10	8	-1e10	8	-1E+10	1	-1E+10	1	-1E+10	1	-1E+10	1	-1E+10	1	-1E+10	1
4902554	24	C	09/30/2021	21:18	-136.389	49.430	0	727.90	0	3.6030	0	34.2430	0	27.229	0	720.432	0	-1e10	8	-1e10	8	-1E+10	1	-1E+10	1	-1E+10	1	-1E+10	1	-1E+10	1	-1E+10	1
4902554	24	C	09/30/2021	21:18	-136.389	49.430	0	733.00	0	3.5880	0	34.2470	0	27.234	0	725.471	0	-1e10	8	-1e10	8	-1E+10	1	-1E+10	1	-1E+10	1	-1E+10	1	-1E+10	1	-1E+10	1
4902554	24	C	09/30/2021	21:18	-136.389	49.430	0	737.60	0	3.5790	0	34.2500	0	27.237	0	730.016	0	-1e10	8	-1e10	8	-1E+10	1	-1E+10	1	-1E+10	1	-1E+10	1	-1E+10	1	-1E+10	1
4902554	24	C	09/30/2021	21:18	-136.389	49.430	0	742.80	0	3.5640	0	34.2540	0	27.242	0	735.153	0	-1e10	8	-1e10	8	-1E+10	1	-1E+10	1	-1E+10	1	-1E+10	1	-1E+10	1	-1E+10	1
4902554	24	C	09/30/2021	21:18	-136.389	49.430	0	748.00	0	3.5530	0	34.2580	0	27.246	0	740.290	0	-1e10	8	-1e10	8	-1E+10	1	-1E+10	1	-1E+10	1	-1E+10	1	-1E+10	1	-1E+10	1
4902554	24	C	09/30/2021	21:18	-136.389	49.430	0	752.60	0	3.5440	0	34.2610	0	27.249	0	744.835	0	-1e10	8	-1e10	8	-1E+10	1	-1E+10	1	-1E+10	1	-1E+10	1	-1E+10	1	-1E+10	1
4902554	24	C	09/30/2021	21:18	-136.389	49.430	0	757.70	0	3.5320	0	34.2630	0	27.252	0	749.873	0	-1e10	8	-1e10	8	-1E+10	1	-1E+10	1	-1E+10	1	-1E+10	1	-1E+10	1	-1E+10	1
4902554	24	C	09/30/2021	21:18	-136.389	49.430	0	762.80	0	3.5190	0	34.2670	0	27.256	0	754.911	0	-1e10	8	-1e10	8	-1E+10	1	-1E+10	1	-1E+10	1	-1E+10	1	-1E+10	1	-1E+10	1
4902554	24	C	09/30/2021	21:18	-136.389	49.430	0	768.00	0	3.5110	0	34.2690	0	27.259	0	760.048	0	-1e10	8	-1e10	8	-1E+10	1	-1E+10	1	-1E+10	1	-1E+10	1	-1E+10	1	-1E+10	1
4902554	24	C	09/30/2021	21:18	-136.389	49.430	0	773.10	0	3.5030	0	34.2700	0	27.260	0	765.086	0	-1e10	8	-1e10	8	-1E+10	1	-1E+10	1	-1E+10	1	-1E+10	1	-1E+10	1	-1E+10	1
4902554	24	C	09/30/2021	21:18	-136.389	49.430	0	777.90	0	3.4980	0	34.2710	0	27.262	0	769.827	0	-1e10	8	-1e10	8	-1E+10	1	-1E+10	1	-1E+10	1	-1E+10	1	-1E+10	1	-1E+10	1
4902554	24	C	09/30/2021	21:18	-136.389	49.430	0	782.60	0	3.4860	0	34.2730	0	27.264	0	774.469	0	-1e10	8	-1e10	8	-1E+10	1	-1E+10	1	-1E+10	1	-1E+10	1	-1E+10	1	-1E+10	1
4902554	24	C	09/30/2021	21:18	-136.389	49.430	0	787.80	0	3.4780	0	34.2750	0	27.267	0	779.606	0	-1e10	8	-1e10	8	-1E+10	1	-1E+10	1	-1E+10	1	-1E+10	1	-1E+10	1	-1E+10	1
4902554	24	C	09/30/2021	21:18	-136.389	49.430	0	793.00	0	3.4680	0	34.2780	0	27.270	0	784.742	0	-1e10	8	-1e10	8	-1E+10	1	-1E+10	1	-1E+10	1	-1E+10	1	-1E+10	1	-1E+10	1
4902554	24	C	09/30/2021	21:18	-136.389	49.430	0	797.80	0	3.4520	0	34.2820	0	27.275	0	789.483	0	-1e10	8	-1e10	8	-1E+10	1	-1E+10	1	-1E+10	1	-1E+10	1	-1E+10	1	-1E+10	1
4902554	24	C	09/30/2021	21:18	-136.389	49.430	0	802.50	0	3.4390	0	34.2850	0	27.279	0	794.125	0	-1e10	8	-1e10	8	-1E+10	1	-1E+10	1	-1E+10	1	-1E+10	1	-1E+10	1	-1E+10	1
4902554	24	C	09/30/2021	21:18	-136.389	49.430	0	807.90	0	3.4330	0	34.2860	0	27.280	0	799.458	0	-1e10	8	-1e10	8	-1E+10	1	-1E+10	1	-1E+10	1	-1E+10	1	-1E+10	1	-1E+10	1
4902554	24	C	09/30/2021	21:18	-136.389	49.430	0	813.20	0	3.4290	0	34.2880	0	27.282	0	804.693	0	-1e10	8	-1e10	8	-1E+10	1	-1E+10	1	-1E+10	1	-1E+10	1	-1E+10	1	-1E+10	1
4902554	24	C	09/30/2021	21:18	-136.389	49.430	0	818.00	0	3.4200	0	34.2890	0	27.284	0	809.433	0	-1e10	8	-1e10	8	-1E+10	1	-1E+10	1	-1E+10	1	-1E+10	1	-1E+10	1	-1E+10	1
4902554	24	C	09/30/2021	21:18	-136.389	49.430	0	822.90	0	3.4130	0	34.2910	0	27.286	0	814.272	0	-1e10	8	-1e10	8	-1E+10	1	-1E+10	1	-1E+10	1	-1E+10	1	-1E+10	1	-1E+10	1
4902554	24	C	09/30/2021	21:18	-136.389	49.430	0	827.90	0	3.3980	0	34.2940	0	27.290	0	819.210	0	-1e10	8	-1e10	8	-1E+10	1	-1E+10	1	-1E+10	1	-1E+10	1	-1E+10	1	-1E+10	1
4902554	24	C	09/30/2021	21:18	-136.389	49.430	0	832.90	0	3.3880	0	34.2970	0	27.293	0	824.148	0	-1e10	8	-1e10	8	-1E+10	1	-1E+10	1	-1E+10	1	-1E+10	1	-1E+10	1	-1E+10	1
4902554	24	C	09/30/2021	21:18	-136.389	49.430	0	838.20	0	3.3760	0	34.2990	0	27.296	0	829.381	0	-1e10	8	-1e10	8	-1E+10	1	-1E+10	1	-1E+10	1	-1E+10	1	-1E+10	1	-1E+10	1
4902554	24	C	09/30/2021	21:18	-136.389	49.430	0	843.10	0	3.3640	0	34.3020	0	27.300	0	834.220	0	-1e10	8	-1e10	8	-1E+10	1	-1E+10	1	-1E+10	1	-1E+10	1	-1E+10	1	-1E+10	1
4902554	24	C	09/30/2021	21:18	-136.389	49.430	0	847.90	0	3.3560	0	34.3030	0	27.301	0	838.960	0	-1e10	8	-1e10	8	-1E+10	1	-1E+10	1	-1E+10	1	-1E+10	1	-1E+10	1	-1E+10	1
4902554	24	C	09/30/2021	21:18	-136.389	49.430	0	852.60	0	3.3460	0	34.3050	0	27.304	0	843.601	0	-1e10	8	-1e10	8	-1E+10	1	-1E+10	1	-1E+10	1	-1E+10	1	-1E+10	1	-1E+10	1
4902554	24	C	09/30/2021	21:18	-136.389	49.430	0	857.60	0	3.3330	0	34.3080	0	27.307	0	848.538	0	-1e10	8	-1e10	8	-1E+10	1	-1E+10	1	-1E+10	1	-1E+10	1	-1E+10	1	-1E+10	1
4902554	24	C	09/30/2021	21:18	-136.389	49.430	0	862.60	0	3.3200	0	34.3100	0	27.310	0	853.475	0	-1e10	8	-1e10	8	-1E+10	1	-1E+10	1	-1E+10	1	-1E+10	1	-1E+10	1	-1E+10	1
4902554	24	C	09/30/2021	21:18	-136.389	49.430	0	867.70	0	3.3120	0	34.3110	0	27.312	0	858.511	0	-1e10	8	-1e10	8	-1E+10	1	-1E+10	1	-1E+10	1	-1E+10	1	-1E+10	1	-1E+10	1
4902554	24	C	09/30/2021	21:18	-136.389	49.430	0	872.90	0	3.3070	0	34.3130	0	27.314	0	863.645	0	-1e10	8	-1e10	8	-1E+10	1	-1E+10	1	-1E+10	1	-1E+10	1	-1E+10	1	-1E+10	1
4902554	24	C	09/30/2021	21:18	-136.389	49.430	0	878.20	0	3.3030	0	34.3140	0	27.315	0	868.878	0	-1e10	8	-1e10	8	-1E+10	1	-1E+10	1	-1E+10	1	-1E+10	1	-1E+10	1	-1E+10	1
4902554	24	C	09/30/2021	21:18	-136.389	49.430	0	883.10	0	3.2980	0	34.3140	0	27.316	0	873.715	0	-1e10	8	-1e10	8	-1E+10	1	-1E+10	1	-1E+10	1	-1E+10	1	-1E+10	1	-1E+10	1
4902554	24	C	09/30/2021	21:18	-136.389	49.430	0	888.00	0	3.2800	0	34.3180	0	27.321	0	878.553	0	-1e10	8	-1e10	8	-1E+10	1	-1E+10	1	-1E+10	1	-1E+10	1	-1E+10	1	-1E+10	1
4902554	24	C	09/30/2021	21:18	-136.389	49.430	0	893.00	0	3.2680	0	34.3200	0	27.323	0	883.489	0	-1e10	8	-1e10	8	-1E+10	1	-1E+10	1	-1E+10	1	-1E+10	1	-1E+10	1	-1E+10	1
4902554	24	C	09/30/2021	21:18	-136.389	49.430	0	898.00	0	3.2620	0	34.3210	0	27.325	0	888.425	0	-1e10	8	-1e10	8	-1E+10	1	-1E+10	1	-1E+10	1	-1E+10	1	-1E+10	1	-1E+10	1
4902554	24	C	09/30/2021	21:18	-136.389	49.430	0	903.10	0	3.2520	0	34.3230	0	27.327	0	893.460	0	-1e10	8	-1e10	8	-1E+10	1	-1E+10	1	-1E+10	1	-1E+10	1	-1E+10	1	-1E+10	1
4902554	24	C	09/30/2021	21:18	-136.389	49.430	0	907.80	0	3.2370	0	34.3260	0	27.331	0	898.100	0	-1e10	8	-1e10	8	-1E+10	1	-1E+10	1	-1E+10	1	-1E+10	1	-1E+10	1	-1E+10	1
4902554	24	C	09/30/2021	21:18	-136.389	49.430	0	913.00	0	3.2290	0	34.3280	0	27.333	0	903.233	0	-1e10	8	-1e10	8	-1E+10	1	-1E+10	1	-1E+10	1	-1E+10	1	-1E+10	1	-1E+10	1
4902554	24	C	09/30/2021	21:18	-136.389	49.430	0	918.30	0	3.2200	0	34.3290	0	27.335	0	908.465	0	-1e10	8	-1e10	8	-1E+10	1	-1E+10	1	-1E+10	1	-1E+10	1	-1E+10	1	-1E+10	1
4902554	24	C	09/30/2021	21:18	-136.389	49.430	0	923.10	0	3.2100	0	34.3310	0	27.338	0	913.203	0	-1e10	8	-1e10	8	-1E+10	1	-1E+10	1	-1E+10	1	-1E+10	1	-1E+10	1	-1E+10	1
4902554	24	C	09/30/2021	21:18	-136.389	49.430	0	927.90	0	3.1970	0	34.3340	0	27.341	0	917.941	0	-1e10	8	-1e10	8	-1E+10	1	-1E+10	1	-1E+10	1	-1E+10	1	-1E+10	1	-1E+10	1
4902554	24	C	09/30/2021	21:18	-136.389	49.430	0	932.80	0	3.1940	0	34.3340	0	27.342	0	922.778	0	-1e10	8	-1e10	8	-1E+10	1	-1E+10	1	-1E+10	1	-1E+10	1	-1E+10	1	-1E+10	1
4902554	24	C	09/30/2021	21:18	-136.389	49.430	0	937.80	0	3.1880	0	34.3360	0	27.344	0	927.713	0	-1e10	8	-1e10	8	-1E+10	1	-1E+10	1	-1E+10	1	-1E+10	1	-1E+10	1	-1E+10	1
4902554	24	C	09/30/2021	21:18	-136.389	49.430	0	942.70	0	3.1780	0	34.3380	0	27.346	0	932.549	0	-1e10	8	-1e10	8	-1E+10	1	-1E+10	1	-1E+10	1	-1E+10	1	-1E+10	1	-1E+10	1
4902554	24	C	09/30/2021	21:18	-136.389	49.430	0	947.80	0	3.1710	0	34.3390	0	27.348	0	937.583	0	-1e10	8	-1e10	8	-1E+10	1	-1E+10	1	-1E+10	1	-1E+10	1	-1E+10	1	-1E+10	1
4902554	24	C	09/30/2021	21:18	-136.389	49.430	0	952.70	0	3.1650	0	34.3400	0	27.349	0	942.419	0	-1e10	8	-1e10	8	-1E+10	1	-1E+10	1	-1E+10	1	-1E+10	1	-1E+10	1	-1E+10	1
4902554	24	C	09/30/2021	21:18	-136.389	49.430	0	957.80	0	3.1550	0	34.3420	0	27.352	0	947.452	0	-1e10	8	-1e10	8	-1E+10	1	-1E+10	1	-1E+10	1	-1E+10	1	-1E+10	1	-1E+10	1
4902554	24	C	09/30/2021	21:18	-136.389	49.430	0	962.90	0	3.1450	0	34.3440	0	27.354	0	952.486	0	-1e10	8	-1e10	8	-1E+10	1	-1E+10	1	-1E+10	1	-1E+10	1	-1E+10	1	-1E+10	1
4902554	24	C	09/30/2021	21:18	-136.389	49.430	0	968.00	0	3.1360	0	34.3460	0	27.357	0	957.519	0	-1e10	8	-1e10	8	-1E+10	1	-1E+10	1	-1E+10	1	-1E+10	1	-1E+10	1	-1E+10	1
4902554	24	C	09/30/2021	21:18	-136.389	49.430	0	973.10	0	3.1260	0	34.3480	0	27.359	0	962.552	0	-1e10	8	-1e10	8	-1E+10	1	-1E+10	1	-1E+10	1	-1E+10	1	-1E+10	1	-1E+10	1
4902554	24	C	09/30/2021	21:18	-136.389	49.430	0	978.30	0	3.1140	0	34.3500	0	27.362	0	967.684	0	-1e10	8	-1e10	8	-1E+10	1	-1E+10	1	-1E+10	1	-1E+10	1	-1E+10	1	-1E+10	1
4902554	24	C	09/30/2021	21:18	-136.389	49.430	0	983.00	0	3.1090	0	34.3510	0	27.363	0	972.322	0	-1e10	8	-1e10	8	-1E+10	1	-1E+10	1	-1E+10	1	-1E+10	1	-1E+10	1	-1E+10	1
4902554	24	C	09/30/2021	21:18	-136.389	49.430	0	987.70	0	3.1000	0	34.3530	0	27.366	0	976.960	0	-1e10	8	-1e10	8	-1E+10	1	-1E+10	1	-1E+10	1	-1E+10	1	-1E+10	1	-1E+10	1
4902554	24	C	09/30/2021	21:18	-136.389	49.430	0	992.90	0	3.0870	0	34.3550	0	27.369	0	982.091	0	-1e10	8	-1e10	8	-1E+10	1	-1E+10	1	-1E+10	1	-1E+10	1	-1E+10	1	-1E+10	1
4902554	24	C	09/30/2021	21:18	-136.389	49.430	0	998.20	0	3.0760	0	34.3570	0	27.371	0	987.321	0	-1e10	8	-1e10	8	-1E+10	1	-1E+10	1	-1E+10	1	-1E+10	1	-1E+10	1	-1E+10	1
4902554	24	C	09/30/2021	21:18	-136.389	49.430	0	1005.90	0	3.0630	0	34.3600	0	27.375	0	994.919	0	-1e10	8	-1e10	8	-1E+10	1	-1E+10	1	-1E+10	1	-1E+10	1	-1E+10	1	-1E+10	1
4902554	24	C	09/30/2021	21:18	-136.389	49.430	0	1015.30	0	3.0370	0	34.3650	0	27.381	0	1004.194	0	-1e10	8	-1e10	8	-1E+10	1	-1E+10	1	-1E+10	1	-1E+10	1	-1E+10	1	-1E+10	1
4902554	24	C	09/30/2021	21:18	-136.389	49.430	0	1025.40	0	3.0240	0	34.3670	0	27.384	0	1014.159	0	-1e10	8	-1e10	8	-1E+10	1	-1E+10	1	-1E+10	1	-1E+10	1	-1E+10	1	-1E+10	1
4902554	24	C	09/30/2021	21:18	-136.389	49.430	0	1035.40	0	3.0010	0	34.3720	0	27.390	0	1024.025	0	-1e10	8	-1e10	8	-1E+10	1	-1E+10	1	-1E+10	1	-1E+10	1	-1E+10	1	-1E+10	1
4902554	24	C	09/30/2021	21:18	-136.389	49.430	0	1045.50	0	2.9840	0	34.3750	0	27.394	0	1033.989	0	-1e10	8	-1e10	8	-1E+10	1	-1E+10	1	-1E+10	1	-1E+10	1	-1E+10	1	-1E+10	1
4902554	24	C	09/30/2021	21:18	-136.389	49.430	0	1055.40	0	2.9700	0	34.3770	0	27.397	0	1043.755	0	-1e10	8	-1e10	8	-1E+10	1	-1E+10	1	-1E+10	1	-1E+10	1	-1E+10	1	-1E+10	1
4902554	24	C	09/30/2021	21:18	-136.389	49.430	0	1065.40	0	2.9580	0	34.3800	0	27.401	0	1053.620	0	-1e10	8	-1e10	8	-1E+10	1	-1E+10	1	-1E+10	1	-1E+10	1	-1E+10	1	-1E+10	1
4902554	24	C	09/30/2021	21:18	-136.389	49.430	0	1075.20	0	2.9430	0	34.3830	0	27.404	0	1063.286	0	-1e10	8	-1e10	8	-1E+10	1	-1E+10	1	-1E+10	1	-1E+10	1	-1E+10	1	-1E+10	1
4902554	24	C	09/30/2021	21:18	-136.389	49.430	0	1085.40	0	2.9310	0	34.3850	0	27.407	0	1073.347	0	-1e10	8	-1e10	8	-1E+10	1	-1E+10	1	-1E+10	1	-1E+10	1	-1E+10	1	-1E+10	1
4902554	24	C	09/30/2021	21:18	-136.389	49.430	0	1095.70	0	2.9220	0	34.3870	0	27.410	0	1083.506	0	-1e10	8	-1e10	8	-1E+10	1	-1E+10	1	-1E+10	1	-1E+10	1	-1E+10	1	-1E+10	1
4902554	24	C	09/30/2021	21:18	-136.389	49.430	0	1105.40	0	2.9190	0	34.3880	0	27.411	0	1093.073	0	-1e10	8	-1e10	8	-1E+10	1	-1E+10	1	-1E+10	1	-1E+10	1	-1E+10	1	-1E+10	1
4902554	24	C	09/30/2021	21:18	-136.389	49.430	0	1115.50	0	2.9070	0	34.3900	0	27.413	0	1103.034	0	-1e10	8	-1e10	8	-1E+10	1	-1E+10	1	-1E+10	1	-1E+10	1	-1E+10	1	-1E+10	1
4902554	24	C	09/30/2021	21:18	-136.389	49.430	0	1125.50	0	2.8890	0	34.3940	0	27.418	0	1112.896	0	-1e10	8	-1e10	8	-1E+10	1	-1E+10	1	-1E+10	1	-1E+10	1	-1E+10	1	-1E+10	1
4902554	24	C	09/30/2021	21:18	-136.389	49.430	0	1135.40	0	2.8760	0	34.3960	0	27.421	0	1122.659	0	-1e10	8	-1e10	8	-1E+10	1	-1E+10	1	-1E+10	1	-1E+10	1	-1E+10	1	-1E+10	1
4902554	24	C	09/30/2021	21:18	-136.389	49.430	0	1145.60	0	2.8590	0	34.4000	0	27.426	0	1132.717	0	-1e10	8	-1e10	8	-1E+10	1	-1E+10	1	-1E+10	1	-1E+10	1	-1E+10	1	-1E+10	1
4902554	24	C	09/30/2021	21:18	-136.389	49.430	0	1155.30	0	2.8490	0	34.4020	0	27.428	0	1142.281	0	-1e10	8	-1e10	8	-1E+10	1	-1E+10	1	-1E+10	1	-1E+10	1	-1E+10	1	-1E+10	1
4902554	24	C	09/30/2021	21:18	-136.389	49.430	0	1165.20	0	2.8300	0	34.4060	0	27.433	0	1152.042	0	-1e10	8	-1e10	8	-1E+10	1	-1E+10	1	-1E+10	1	-1E+10	1	-1E+10	1	-1E+10	1
4902554	24	C	09/30/2021	21:18	-136.389	49.430	0	1175.30	0	2.8160	0	34.4090	0	27.437	0	1162.001	0	-1e10	8	-1e10	8	-1E+10	1	-1E+10	1	-1E+10	1	-1E+10	1	-1E+10	1	-1E+10	1
4902554	24	C	09/30/2021	21:18	-136.389	49.430	0	1185.10	0	2.7990	0	34.4110	0	27.440	0	1171.662	0	-1e10	8	-1e10	8	-1E+10	1	-1E+10	1	-1E+10	1	-1E+10	1	-1E+10	1	-1E+10	1
4902554	24	C	09/30/2021	21:18	-136.389	49.430	0	1195.00	0	2.7890	0	34.4140	0	27.443	0	1181.422	0	-1e10	8	-1e10	8	-1E+10	1	-1E+10	1	-1E+10	1	-1E+10	1	-1E+10	1	-1E+10	1
4902554	24	C	09/30/2021	21:18	-136.389	49.430	0	1205.40	0	2.7730	0	34.4170	0	27.447	0	1191.675	0	-1e10	8	-1e10	8	-1E+10	1	-1E+10	1	-1E+10	1	-1E+10	1	-1E+10	1	-1E+10	1
4902554	24	C	09/30/2021	21:18	-136.389	49.430	0	1215.80	0	2.7520	0	34.4220	0	27.453	0	1201.927	0	-1e10	8	-1e10	8	-1E+10	1	-1E+10	1	-1E+10	1	-1E+10	1	-1E+10	1	-1E+10	1
4902554	24	C	09/30/2021	21:18	-136.389	49.430	0	1225.80	0	2.7370	0	34.4250	0	27.457	0	1211.784	0	-1e10	8	-1e10	8	-1E+10	1	-1E+10	1	-1E+10	1	-1E+10	1	-1E+10	1	-1E+10	1
4902554	24	C	09/30/2021	21:18	-136.389	49.430	0	1235.80	0	2.7200	0	34.4280	0	27.461	0	1221.640	0	-1e10	8	-1e10	8	-1E+10	1	-1E+10	1	-1E+10	1	-1E+10	1	-1E+10	1	-1E+10	1
4902554	24	C	09/30/2021	21:18	-136.389	49.430	0	1245.70	0	2.7000	0	34.4320	0	27.466	0	1231.398	0	-1e10	8	-1e10	8	-1E+10	1	-1E+10	1	-1E+10	1	-1E+10	1	-1E+10	1	-1E+10	1
4902554	24	C	09/30/2021	21:18	-136.389	49.430	0	1255.30	0	2.6870	0	34.4350	0	27.469	0	1240.859	0	-1e10	8	-1e10	8	-1E+10	1	-1E+10	1	-1E+10	1	-1E+10	1	-1E+10	1	-1E+10	1
4902554	24	C	09/30/2021	21:18	-136.389	49.430	0	1265.10	0	2.6710	0	34.4390	0	27.474	0	1250.518	0	-1e10	8	-1e10	8	-1E+10	1	-1E+10	1	-1E+10	1	-1E+10	1	-1E+10	1	-1E+10	1
4902554	24	C	09/30/2021	21:18	-136.389	49.430	0	1275.40	0	2.6520	0	34.4430	0	27.479	0	1260.668	0	-1e10	8	-1e10	8	-1E+10	1	-1E+10	1	-1E+10	1	-1E+10	1	-1E+10	1	-1E+10	1
4902554	24	C	09/30/2021	21:18	-136.389	49.430	0	1285.60	0	2.6350	0	34.4460	0	27.483	0	1270.719	0	-1e10	8	-1e10	8	-1E+10	1	-1E+10	1	-1E+10	1	-1E+10	1	-1E+10	1	-1E+10	1
4902554	24	C	09/30/2021	21:18	-136.389	49.430	0	1295.80	0	2.6190	0	34.4490	0	27.487	0	1280.770	0	-1e10	8	-1e10	8	-1E+10	1	-1E+10	1	-1E+10	1	-1E+10	1	-1E+10	1	-1E+10	1
4902554	24	C	09/30/2021	21:18	-136.389	49.430	0	1305.60	0	2.6100	0	34.4510	0	27.489	0	1290.427	0	-1e10	8	-1e10	8	-1E+10	1	-1E+10	1	-1E+10	1	-1E+10	1	-1E+10	1	-1E+10	1
4902554	24	C	09/30/2021	21:18	-136.389	49.430	0	1315.70	0	2.5980	0	34.4520	0	27.491	0	1300.378	0	-1e10	8	-1e10	8	-1E+10	1	-1E+10	1	-1E+10	1	-1E+10	1	-1E+10	1	-1E+10	1
4902554	24	C	09/30/2021	21:18	-136.389	49.430	0	1325.40	0	2.5830	0	34.4550	0	27.495	0	1309.935	0	-1e10	8	-1e10	8	-1E+10	1	-1E+10	1	-1E+10	1	-1E+10	1	-1E+10	1	-1E+10	1
4902554	24	C	09/30/2021	21:18	-136.389	49.430	0	1335.20	0	2.5650	0	34.4590	0	27.499	0	1319.590	0	-1e10	8	-1e10	8	-1E+10	1	-1E+10	1	-1E+10	1	-1E+10	1	-1E+10	1	-1E+10	1
4902554	24	C	09/30/2021	21:18	-136.389	49.430	0	1345.30	0	2.5480	0	34.4620	0	27.503	0	1329.540	0	-1e10	8	-1e10	8	-1E+10	1	-1E+10	1	-1E+10	1	-1E+10	1	-1E+10	1	-1E+10	1
4902554	24	C	09/30/2021	21:18	-136.389	49.430	0	1355.10	0	2.5380	0	34.4640	0	27.506	0	1339.194	0	-1e10	8	-1e10	8	-1E+10	1	-1E+10	1	-1E+10	1	-1E+10	1	-1E+10	1	-1E+10	1
4902554	24	C	09/30/2021	21:18	-136.389	49.430	0	1365.10	0	2.5300	0	34.4650	0	27.507	0	1349.045	0	-1e10	8	-1e10	8	-1E+10	1	-1E+10	1	-1E+10	1	-1E+10	1	-1E+10	1	-1E+10	1
4902554	24	C	09/30/2021	21:18	-136.389	49.430	0	1375.30	0	2.5160	0	34.4680	0	27.511	0	1359.092	0	-1e10	8	-1e10	8	-1E+10	1	-1E+10	1	-1E+10	1	-1E+10	1	-1E+10	1	-1E+10	1
4902554	24	C	09/30/2021	21:18	-136.389	49.430	0	1385.30	0	2.4990	0	34.4710	0	27.515	0	1368.942	0	-1e10	8	-1e10	8	-1E+10	1	-1E+10	1	-1E+10	1	-1E+10	1	-1E+10	1	-1E+10	1
4902554	24	C	09/30/2021	21:18	-136.389	49.430	0	1395.10	0	2.4860	0	34.4740	0	27.518	0	1378.594	0	-1e10	8	-1e10	8	-1E+10	1	-1E+10	1	-1E+10	1	-1E+10	1	-1E+10	1	-1E+10	1
4902554	24	C	09/30/2021	21:18	-136.389	49.430	0	1405.10	0	2.4740	0	34.4760	0	27.521	0	1388.443	0	-1e10	8	-1e10	8	-1E+10	1	-1E+10	1	-1E+10	1	-1E+10	1	-1E+10	1	-1E+10	1
4902554	24	C	09/30/2021	21:18	-136.389	49.430	0	1415.10	0	2.4610	0	34.4790	0	27.525	0	1398.291	0	-1e10	8	-1e10	8	-1E+10	1	-1E+10	1	-1E+10	1	-1E+10	1	-1E+10	1	-1E+10	1
4902554	24	C	09/30/2021	21:18	-136.389	49.430	0	1425.20	0	2.4500	0	34.4810	0	27.527	0	1408.237	0	-1e10	8	-1e10	8	-1E+10	1	-1E+10	1	-1E+10	1	-1E+10	1	-1E+10	1	-1E+10	1
4902554	24	C	09/30/2021	21:18	-136.389	49.430	0	1435.60	0	2.4410	0	34.4820	0	27.529	0	1418.479	0	-1e10	8	-1e10	8	-1E+10	1	-1E+10	1	-1E+10	1	-1E+10	1	-1E+10	1	-1E+10	1
4902554	24	C	09/30/2021	21:18	-136.389	49.430	0	1445.50	0	2.4320	0	34.4840	0	27.531	0	1428.227	0	-1e10	8	-1e10	8	-1E+10	1	-1E+10	1	-1E+10	1	-1E+10	1	-1E+10	1	-1E+10	1
4902554	24	C	09/30/2021	21:18	-136.389	49.430	0	1455.50	0	2.4200	0	34.4870	0	27.535	0	1438.074	0	-1e10	8	-1e10	8	-1E+10	1	-1E+10	1	-1E+10	1	-1E+10	1	-1E+10	1	-1E+10	1
4902554	24	C	09/30/2021	21:18	-136.389	49.430	0	1465.30	0	2.4130	0	34.4880	0	27.536	0	1447.723	0	-1e10	8	-1e10	8	-1E+10	1	-1E+10	1	-1E+10	1	-1E+10	1	-1E+10	1	-1E+10	1
4902554	24	C	09/30/2021	21:18	-136.389	49.430	0	1475.30	0	2.4060	0	34.4900	0	27.538	0	1457.568	0	-1e10	8	-1e10	8	-1E+10	1	-1E+10	1	-1E+10	1	-1E+10	1	-1E+10	1	-1E+10	1
4902554	24	C	09/30/2021	21:18	-136.389	49.430	0	1485.60	0	2.3970	0	34.4920	0	27.541	0	1467.709	0	-1e10	8	-1e10	8	-1E+10	1	-1E+10	1	-1E+10	1	-1E+10	1	-1E+10	1	-1E+10	1
4902554	24	C	09/30/2021	21:18	-136.389	49.430	0	1495.50	0	2.3890	0	34.4930	0	27.542	0	1477.455	0	-1e10	8	-1e10	8	-1E+10	1	-1E+10	1	-1E+10	1	-1E+10	1	-1E+10	1	-1E+10	1
4902554	24	C	09/30/2021	21:18	-136.389	49.430	0	1505.60	0	2.3790	0	34.4950	0	27.545	0	1487.398	0	-1e10	8	-1e10	8	-1E+10	1	-1E+10	1	-1E+10	1	-1E+10	1	-1E+10	1	-1E+10	1
4902554	24	C	09/30/2021	21:18	-136.389	49.430	0	1515.70	0	2.3680	0	34.4970	0	27.547	0	1497.340	0	-1e10	8	-1e10	8	-1E+10	1	-1E+10	1	-1E+10	1	-1E+10	1	-1E+10	1	-1E+10	1
4902554	24	C	09/30/2021	21:18	-136.389	49.430	0	1525.50	0	2.3540	0	34.5000	0	27.551	0	1506.986	0	-1e10	8	-1e10	8	-1E+10	1	-1E+10	1	-1E+10	1	-1E+10	1	-1E+10	1	-1E+10	1
4902554	24	C	09/30/2021	21:18	-136.389	49.430	0	1535.40	0	2.3400	0	34.5030	0	27.554	0	1516.731	0	-1e10	8	-1e10	8	-1E+10	1	-1E+10	1	-1E+10	1	-1E+10	1	-1E+10	1	-1E+10	1
4902554	24	C	09/30/2021	21:18	-136.389	49.430	0	1545.30	0	2.3270	0	34.5050	0	27.557	0	1526.475	0	-1e10	8	-1e10	8	-1E+10	1	-1E+10	1	-1E+10	1	-1E+10	1	-1E+10	1	-1E+10	1
4902554	24	C	09/30/2021	21:18	-136.389	49.430	0	1555.20	0	2.3130	0	34.5080	0	27.561	0	1536.218	0	-1e10	8	-1e10	8	-1E+10	1	-1E+10	1	-1E+10	1	-1E+10	1	-1E+10	1	-1E+10	1
4902554	24	C	09/30/2021	21:18	-136.389	49.430	0	1565.10	0	2.3050	0	34.5100	0	27.563	0	1545.961	0	-1e10	8	-1e10	8	-1E+10	1	-1E+10	1	-1E+10	1	-1E+10	1	-1E+10	1	-1E+10	1
4902554	24	C	09/30/2021	21:18	-136.389	49.430	0	1575.10	0	2.2920	0	34.5120	0	27.566	0	1555.802	0	-1e10	8	-1e10	8	-1E+10	1	-1E+10	1	-1E+10	1	-1E+10	1	-1E+10	1	-1E+10	1
4902554	24	C	09/30/2021	21:18	-136.389	49.430	0	1585.10	0	2.2800	0	34.5150	0	27.569	0	1565.642	0	-1e10	8	-1e10	8	-1E+10	1	-1E+10	1	-1E+10	1	-1E+10	1	-1E+10	1	-1E+10	1
4902554	24	C	09/30/2021	21:18	-136.389	49.430	0	1595.20	0	2.2720	0	34.5170	0	27.572	0	1575.581	0	-1e10	8	-1e10	8	-1E+10	1	-1E+10	1	-1E+10	1	-1E+10	1	-1E+10	1	-1E+10	1
4902554	24	C	09/30/2021	21:18	-136.389	49.430	0	1605.40	0	2.2600	0	34.5190	0	27.574	0	1585.617	0	-1e10	8	-1e10	8	-1E+10	1	-1E+10	1	-1E+10	1	-1E+10	1	-1E+10	1	-1E+10	1
4902554	24	C	09/30/2021	21:18	-136.389	49.430	0	1615.40	0	2.2560	0	34.5200	0	27.575	0	1595.456	0	-1e10	8	-1e10	8	-1E+10	1	-1E+10	1	-1E+10	1	-1E+10	1	-1E+10	1	-1E+10	1
4902554	24	C	09/30/2021	21:18	-136.389	49.430	0	1625.50	0	2.2450	0	34.5220	0	27.578	0	1605.393	0	-1e10	8	-1e10	8	-1E+10	1	-1E+10	1	-1E+10	1	-1E+10	1	-1E+10	1	-1E+10	1
4902554	24	C	09/30/2021	21:18	-136.389	49.430	0	1635.80	0	2.2350	0	34.5250	0	27.581	0	1615.527	0	-1e10	8	-1e10	8	-1E+10	1	-1E+10	1	-1E+10	1	-1E+10	1	-1E+10	1	-1E+10	1
4902554	24	C	09/30/2021	21:18	-136.389	49.430	0	1645.60	0	2.2260	0	34.5260	0	27.583	0	1625.168	0	-1e10	8	-1e10	8	-1E+10	1	-1E+10	1	-1E+10	1	-1E+10	1	-1E+10	1	-1E+10	1
4902554	24	C	09/30/2021	21:18	-136.389	49.430	0	1655.40	0	2.2190	0	34.5270	0	27.584	0	1634.808	0	-1e10	8	-1e10	8	-1E+10	1	-1E+10	1	-1E+10	1	-1E+10	1	-1E+10	1	-1E+10	1
4902554	24	C	09/30/2021	21:18	-136.389	49.430	0	1665.10	0	2.2120	0	34.5290	0	27.586	0	1644.350	0	-1e10	8	-1e10	8	-1E+10	1	-1E+10	1	-1E+10	1	-1E+10	1	-1E+10	1	-1E+10	1
4902554	24	C	09/30/2021	21:18	-136.389	49.430	0	1675.40	0	2.1990	0	34.5320	0	27.590	0	1654.482	0	-1e10	8	-1e10	8	-1E+10	1	-1E+10	1	-1E+10	1	-1E+10	1	-1E+10	1	-1E+10	1
4902554	24	C	09/30/2021	21:18	-136.389	49.430	0	1685.80	0	2.1870	0	34.5340	0	27.592	0	1664.711	0	-1e10	8	-1e10	8	-1E+10	1	-1E+10	1	-1E+10	1	-1E+10	1	-1E+10	1	-1E+10	1
4902554	24	C	09/30/2021	21:18	-136.389	49.430	0	1695.70	0	2.1750	0	34.5360	0	27.595	0	1674.448	0	-1e10	8	-1e10	8	-1E+10	1	-1E+10	1	-1E+10	1	-1E+10	1	-1E+10	1	-1E+10	1
4902554	24	C	09/30/2021	21:18	-136.389	49.430	0	1705.80	0	2.1670	0	34.5380	0	27.597	0	1684.381	0	-1e10	8	-1e10	8	-1E+10	1	-1E+10	1	-1E+10	1	-1E+10	1	-1E+10	1	-1E+10	1
4902554	24	C	09/30/2021	21:18	-136.389	49.430	0	1715.40	0	2.1600	0	34.5400	0	27.600	0	1693.822	0	-1e10	8	-1e10	8	-1E+10	1	-1E+10	1	-1E+10	1	-1E+10	1	-1E+10	1	-1E+10	1
4902554	24	C	09/30/2021	21:18	-136.389	49.430	0	1725.20	0	2.1500	0	34.5420	0	27.602	0	1703.460	0	-1e10	8	-1e10	8	-1E+10	1	-1E+10	1	-1E+10	1	-1E+10	1	-1E+10	1	-1E+10	1
4902554	24	C	09/30/2021	21:18	-136.389	49.430	0	1735.30	0	2.1400	0	34.5440	0	27.605	0	1713.392	0	-1e10	8	-1e10	8	-1E+10	1	-1E+10	1	-1E+10	1	-1E+10	1	-1E+10	1	-1E+10	1
4902554	24	C	09/30/2021	21:18	-136.389	49.430	0	1745.30	0	2.1330	0	34.5450	0	27.606	0	1723.225	0	-1e10	8	-1e10	8	-1E+10	1	-1E+10	1	-1E+10	1	-1E+10	1	-1E+10	1	-1E+10	1
4902554	24	C	09/30/2021	21:18	-136.389	49.430	0	1755.20	0	2.1230	0	34.5470	0	27.608	0	1732.959	0	-1e10	8	-1e10	8	-1E+10	1	-1E+10	1	-1E+10	1	-1E+10	1	-1E+10	1	-1E+10	1
4902554	24	C	09/30/2021	21:18	-136.389	49.430	0	1765.30	0	2.1120	0	34.5490	0	27.611	0	1742.890	0	-1e10	8	-1e10	8	-1E+10	1	-1E+10	1	-1E+10	1	-1E+10	1	-1E+10	1	-1E+10	1
4902554	24	C	09/30/2021	21:18	-136.389	49.430	0	1775.30	0	2.1020	0	34.5510	0	27.613	0	1752.722	0	-1e10	8	-1e10	8	-1E+10	1	-1E+10	1	-1E+10	1	-1E+10	1	-1E+10	1	-1E+10	1
4902554	24	C	09/30/2021	21:18	-136.389	49.430	0	1785.10	0	2.0970	0	34.5520	0	27.615	0	1762.356	0	-1e10	8	-1e10	8	-1E+10	1	-1E+10	1	-1E+10	1	-1E+10	1	-1E+10	1	-1E+10	1
4902554	24	C	09/30/2021	21:18	-136.389	49.430	0	1795.30	0	2.0900	0	34.5540	0	27.617	0	1772.384	0	-1e10	8	-1e10	8	-1E+10	1	-1E+10	1	-1E+10	1	-1E+10	1	-1E+10	1	-1E+10	1
4902554	24	C	09/30/2021	21:18	-136.389	49.430	0	1805.80	0	2.0830	0	34.5550	0	27.618	0	1782.706	0	-1e10	8	-1e10	8	-1E+10	1	-1E+10	1	-1E+10	1	-1E+10	1	-1E+10	1	-1E+10	1
4902554	24	C	09/30/2021	21:18	-136.389	49.430	0	1815.50	0	2.0750	0	34.5570	0	27.620	0	1792.241	0	-1e10	8	-1e10	8	-1E+10	1	-1E+10	1	-1E+10	1	-1E+10	1	-1E+10	1	-1E+10	1
4902554	24	C	09/30/2021	21:18	-136.389	49.430	0	1825.30	0	2.0650	0	34.5590	0	27.623	0	1801.874	0	-1e10	8	-1e10	8	-1E+10	1	-1E+10	1	-1E+10	1	-1E+10	1	-1E+10	1	-1E+10	1
4902554	24	C	09/30/2021	21:18	-136.389	49.430	0	1835.40	0	2.0600	0	34.5600	0	27.624	0	1811.801	0	-1e10	8	-1e10	8	-1E+10	1	-1E+10	1	-1E+10	1	-1E+10	1	-1E+10	1	-1E+10	1
4902554	24	C	09/30/2021	21:18	-136.389	49.430	0	1845.10	0	2.0550	0	34.5610	0	27.625	0	1821.335	0	-1e10	8	-1e10	8	-1E+10	1	-1E+10	1	-1E+10	1	-1E+10	1	-1E+10	1	-1E+10	1
4902554	24	C	09/30/2021	21:18	-136.389	49.430	0	1855.00	0	2.0470	0	34.5620	0	27.627	0	1831.065	0	-1e10	8	-1e10	8	-1E+10	1	-1E+10	1	-1E+10	1	-1E+10	1	-1E+10	1	-1E+10	1
4902554	24	C	09/30/2021	21:18	-136.389	49.430	0	1865.00	0	2.0390	0	34.5640	0	27.629	0	1840.893	0	-1e10	8	-1e10	8	-1E+10	1	-1E+10	1	-1E+10	1	-1E+10	1	-1E+10	1	-1E+10	1
4902554	24	C	09/30/2021	21:18	-136.389	49.430	0	1875.50	0	2.0280	0	34.5660	0	27.632	0	1851.211	0	-1e10	8	-1e10	8	-1E+10	1	-1E+10	1	-1E+10	1	-1E+10	1	-1E+10	1	-1E+10	1
4902554	24	C	09/30/2021	21:18	-136.389	49.430	0	1885.30	0	2.0200	0	34.5680	0	27.634	0	1860.841	0	-1e10	8	-1e10	8	-1E+10	1	-1E+10	1	-1E+10	1	-1E+10	1	-1E+10	1	-1E+10	1
4902554	24	C	09/30/2021	21:18	-136.389	49.430	0	1895.30	0	2.0120	0	34.5690	0	27.635	0	1870.668	0	-1e10	8	-1e10	8	-1E+10	1	-1E+10	1	-1E+10	1	-1E+10	1	-1E+10	1	-1E+10	1
4902554	24	C	09/30/2021	21:18	-136.389	49.430	0	1905.60	0	2.0040	0	34.5710	0	27.638	0	1880.788	0	-1e10	8	-1e10	8	-1E+10	1	-1E+10	1	-1E+10	1	-1E+10	1	-1E+10	1	-1E+10	1
4902554	24	C	09/30/2021	21:18	-136.389	49.430	0	1915.60	0	1.9950	0	34.5730	0	27.640	0	1890.614	0	-1e10	8	-1e10	8	-1E+10	1	-1E+10	1	-1E+10	1	-1E+10	1	-1E+10	1	-1E+10	1
4902554	24	C	09/30/2021	21:18	-136.389	49.430	0	1925.30	0	1.9870	0	34.5740	0	27.642	0	1900.144	0	-1e10	8	-1e10	8	-1E+10	1	-1E+10	1	-1E+10	1	-1E+10	1	-1E+10	1	-1E+10	1
4902554	24	C	09/30/2021	21:18	-136.389	49.430	0	1935.10	0	1.9800	0	34.5760	0	27.644	0	1909.772	0	-1e10	8	-1e10	8	-1E+10	1	-1E+10	1	-1E+10	1	-1E+10	1	-1E+10	1	-1E+10	1
4902554	24	C	09/30/2021	21:18	-136.389	49.430	0	1945.20	0	1.9750	0	34.5770	0	27.645	0	1919.694	0	-1e10	8	-1e10	8	-1E+10	1	-1E+10	1	-1E+10	1	-1E+10	1	-1E+10	1	-1E+10	1
4902554	24	C	09/30/2021	21:18	-136.389	49.430	0	1955.50	0	1.9690	0	34.5780	0	27.646	0	1929.813	0	-1e10	8	-1e10	8	-1E+10	1	-1E+10	1	-1E+10	1	-1E+10	1	-1E+10	1	-1E+10	1
4902554	24	C	09/30/2021	21:18	-136.389	49.430	0	1965.60	0	1.9650	0	34.5790	0	27.647	0	1939.734	0	-1e10	8	-1e10	8	-1E+10	1	-1E+10	1	-1E+10	1	-1E+10	1	-1E+10	1	-1E+10	1
4902554	24	C	09/30/2021	21:18	-136.389	49.430	0	1975.40	0	1.9620	0	34.5800	0	27.649	0	1949.360	0	-1e10	8	-1e10	8	-1E+10	1	-1E+10	1	-1E+10	1	-1E+10	1	-1E+10	1	-1E+10	1
4902554	24	C	09/30/2021	21:18	-136.389	49.430	0	1984.20	0	1.9590	0	34.5800	0	27.649	0	1958.004	0	-1e10	8	-1e10	8	-1E+10	1	-1E+10	1	-1E+10	1	-1E+10	1	-1E+10	1	-1E+10	1
4902554	24	C	09/30/2021	21:18	-136.389	49.430	0																										
4902554	25	C	10/11/2021	02:08	-136.436	49.365	0	0.40	0	12.1300	0	32.2630	0	24.440	0	0.397	0	-1e10	8	-1e10	8	-1E+10	1	-1E+10	1	-1E+10	1	-1E+10	1	-1E+10	1	-1E+10	1
4902554	25	C	10/11/2021	02:08	-136.436	49.365	0	1.00	0	12.1330	0	32.2560	0	24.434	0	0.991	0	-1e10	8	-1e10	8	-1E+10	1	-1E+10	1	-1E+10	1	-1E+10	1	-1E+10	1	-1E+10	1
4902554	25	C	10/11/2021	02:08	-136.436	49.365	0	1.90	0	12.1330	0	32.2570	0	24.435	0	1.884	0	-1e10	8	-1e10	8	-1E+10	1	-1E+10	1	-1E+10	1	-1E+10	1	-1E+10	1	-1E+10	1
4902554	25	C	10/11/2021	02:08	-136.436	49.365	0	2.90	0	12.1340	0	32.2580	0	24.436	0	2.875	0	-1e10	8	-1e10	8	-1E+10	1	-1E+10	1	-1E+10	1	-1E+10	1	-1E+10	1	-1E+10	1
4902554	25	C	10/11/2021	02:08	-136.436	49.365	0	4.00	0	12.1360	0	32.2550	0	24.433	0	3.966	0	-1e10	8	-1e10	8	-1E+10	1	-1E+10	1	-1E+10	1	-1E+10	1	-1E+10	1	-1E+10	1
4902554	25	C	10/11/2021	02:08	-136.436	49.365	0	5.10	0	12.1350	0	32.2630	0	24.440	0	5.057	0	-1e10	8	-1e10	8	-1E+10	1	-1E+10	1	-1E+10	1	-1E+10	1	-1E+10	1	-1E+10	1
4902554	25	C	10/11/2021	02:08	-136.436	49.365	0	5.90	0	12.1330	0	32.2620	0	24.439	0	5.850	0	-1e10	8	-1e10	8	-1E+10	1	-1E+10	1	-1E+10	1	-1E+10	1	-1E+10	1	-1E+10	1
4902554	25	C	10/11/2021	02:08	-136.436	49.365	0	7.00	0	12.1330	0	32.2630	0	24.440	0	6.940	0	-1e10	8	-1e10	8	-1E+10	1	-1E+10	1	-1E+10	1	-1E+10	1	-1E+10	1	-1E+10	1
4902554	25	C	10/11/2021	02:08	-136.436	49.365	0	8.00	0	12.1370	0	32.2620	0	24.439	0	7.932	0	-1e10	8	-1e10	8	-1E+10	1	-1E+10	1	-1E+10	1	-1E+10	1	-1E+10	1	-1E+10	1
4902554	25	C	10/11/2021	02:08	-136.436	49.365	0	8.90	0	12.1370	0	32.2620	0	24.439	0	8.824	0	-1e10	8	-1e10	8	-1E+10	1	-1E+10	1	-1E+10	1	-1E+10	1	-1E+10	1	-1E+10	1
4902554	25	C	10/11/2021	02:08	-136.436	49.365	0	9.80	0	12.1350	0	32.2620	0	24.439	0	9.716	0	-1e10	8	-1e10	8	-1E+10	1	-1E+10	1	-1E+10	1	-1E+10	1	-1E+10	1	-1E+10	1
4902554	25	C	10/11/2021	02:08	-136.436	49.365	0	10.80	0	12.1320	0	32.2620	0	24.440	0	10.708	0	-1e10	8	-1e10	8	-1E+10	1	-1E+10	1	-1E+10	1	-1E+10	1	-1E+10	1	-1E+10	1
4902554	25	C	10/11/2021	02:08	-136.436	49.365	0	12.10	0	12.1330	0	32.2630	0	24.440	0	11.997	0	-1e10	8	-1e10	8	-1E+10	1	-1E+10	1	-1E+10	1	-1E+10	1	-1E+10	1	-1E+10	1
4902554	25	C	10/11/2021	02:08	-136.436	49.365	0	12.90	0	12.1330	0	32.2630	0	24.440	0	12.790	0	-1e10	8	-1e10	8	-1E+10	1	-1E+10	1	-1E+10	1	-1E+10	1	-1E+10	1	-1E+10	1
4902554	25	C	10/11/2021	02:08	-136.436	49.365	0	13.90	0	12.1320	0	32.2630	0	24.440	0	13.781	0	-1e10	8	-1e10	8	-1E+10	1	-1E+10	1	-1E+10	1	-1E+10	1	-1E+10	1	-1E+10	1
4902554	25	C	10/11/2021	02:08	-136.436	49.365	0	14.90	0	12.1330	0	32.2630	0	24.440	0	14.773	0	-1e10	8	-1e10	8	-1E+10	1	-1E+10	1	-1E+10	1	-1E+10	1	-1E+10	1	-1E+10	1
4902554	25	C	10/11/2021	02:08	-136.436	49.365	0	16.00	0	12.1400	0	32.2620	0	24.438	0	15.863	0	-1e10	8	-1e10	8	-1E+10	1	-1E+10	1	-1E+10	1	-1E+10	1	-1E+10	1	-1E+10	1
4902554	25	C	10/11/2021	02:08	-136.436	49.365	0	16.80	0	12.1360	0	32.2620	0	24.439	0	16.656	0	-1e10	8	-1e10	8	-1E+10	1	-1E+10	1	-1E+10	1	-1E+10	1	-1E+10	1	-1E+10	1
4902554	25	C	10/11/2021	02:08	-136.436	49.365	0	17.80	0	12.1420	0	32.2590	0	24.435	0	17.648	0	-1e10	8	-1e10	8	-1E+10	1	-1E+10	1	-1E+10	1	-1E+10	1	-1E+10	1	-1E+10	1
4902554	25	C	10/11/2021	02:08	-136.436	49.365	0	18.90	0	12.1430	0	32.2620	0	24.438	0	18.738	0	-1e10	8	-1e10	8	-1E+10	1	-1E+10	1	-1E+10	1	-1E+10	1	-1E+10	1	-1E+10	1
4902554	25	C	10/11/2021	02:08	-136.436	49.365	0	19.90	0	12.1430	0	32.2630	0	24.438	0	19.730	0	-1e10	8	-1e10	8	-1E+10	1	-1E+10	1	-1E+10	1	-1E+10	1	-1E+10	1	-1E+10	1
4902554	25	C	10/11/2021	02:08	-136.436	49.365	0	20.90	0	12.1430	0	32.2620	0	24.438	0	20.721	0	-1e10	8	-1e10	8	-1E+10	1	-1E+10	1	-1E+10	1	-1E+10	1	-1E+10	1	-1E+10	1
4902554	25	C	10/11/2021	02:08	-136.436	49.365	0	22.00	0	12.1440	0	32.2630	0	24.438	0	21.811	0	-1e10	8	-1e10	8	-1E+10	1	-1E+10	1	-1E+10	1	-1E+10	1	-1E+10	1	-1E+10	1
4902554	25	C	10/11/2021	02:08	-136.436	49.365	0	23.00	0	12.1440	0	32.2630	0	24.438	0	22.803	0	-1e10	8	-1e10	8	-1E+10	1	-1E+10	1	-1E+10	1	-1E+10	1	-1E+10	1	-1E+10	1
4902554	25	C	10/11/2021	02:08	-136.436	49.365	0	24.00	0	12.1450	0	32.2630	0	24.438	0	23.794	0	-1e10	8	-1e10	8	-1E+10	1	-1E+10	1	-1E+10	1	-1E+10	1	-1E+10	1	-1E+10	1
4902554	25	C	10/11/2021	02:08	-136.436	49.365	0	25.00	0	12.1450	0	32.2620	0	24.437	0	24.786	0	-1e10	8	-1e10	8	-1E+10	1	-1E+10	1	-1E+10	1	-1E+10	1	-1E+10	1	-1E+10	1
4902554	25	C	10/11/2021	02:08	-136.436	49.365	0	26.10	0	12.1430	0	32.2630	0	24.439	0	25.876	0	-1e10	8	-1e10	8	-1E+10	1	-1E+10	1	-1E+10	1	-1E+10	1	-1E+10	1	-1E+10	1
4902554	25	C	10/11/2021	02:08	-136.436	49.365	0	26.80	0	12.1430	0	32.2630	0	24.439	0	26.570	0	-1e10	8	-1e10	8	-1E+10	1	-1E+10	1	-1E+10	1	-1E+10	1	-1E+10	1	-1E+10	1
4902554	25	C	10/11/2021	02:08	-136.436	49.365	0	27.80	0	12.1420	0	32.2630	0	24.439	0	27.561	0	-1e10	8	-1e10	8	-1E+10	1	-1E+10	1	-1E+10	1	-1E+10	1	-1E+10	1	-1E+10	1
4902554	25	C	10/11/2021	02:08	-136.436	49.365	0	29.00	0	12.1430	0	32.2620	0	24.438	0	28.751	0	-1e10	8	-1e10	8	-1E+10	1	-1E+10	1	-1E+10	1	-1E+10	1	-1E+10	1	-1E+10	1
4902554	25	C	10/11/2021	02:08	-136.436	49.365	0	29.90	0	12.1440	0	32.2620	0	24.438	0	29.643	0	-1e10	8	-1e10	8	-1E+10	1	-1E+10	1	-1E+10	1	-1E+10	1	-1E+10	1	-1E+10	1
4902554	25	C	10/11/2021	02:08	-136.436	49.365	0	31.00	0	12.1420	0	32.2620	0	24.438	0	30.734	0	-1e10	8	-1e10	8	-1E+10	1	-1E+10	1	-1E+10	1	-1E+10	1	-1E+10	1	-1E+10	1
4902554	25	C	10/11/2021	02:08	-136.436	49.365	0	31.90	0	12.1400	0	32.2620	0	24.439	0	31.626	0	-1e10	8	-1e10	8	-1E+10	1	-1E+10	1	-1E+10	1	-1E+10	1	-1E+10	1	-1E+10	1
4902554	25	C	10/11/2021	02:08	-136.436	49.365	0	32.80	0	12.1400	0	32.2620	0	24.439	0	32.518	0	-1e10	8	-1e10	8	-1E+10	1	-1E+10	1	-1E+10	1	-1E+10	1	-1E+10	1	-1E+10	1
4902554	25	C	10/11/2021	02:08	-136.436	49.365	0	33.80	0	12.1400	0	32.2630	0	24.439	0	33.509	0	-1e10	8	-1e10	8	-1E+10	1	-1E+10	1	-1E+10	1	-1E+10	1	-1E+10	1	-1E+10	1
4902554	25	C	10/11/2021	02:08	-136.436	49.365	0	34.90	0	12.1420	0	32.2620	0	24.438	0	34.600	0	-1e10	8	-1e10	8	-1E+10	1	-1E+10	1	-1E+10	1	-1E+10	1	-1E+10	1	-1E+10	1
4902554	25	C	10/11/2021	02:08	-136.436	49.365	0	36.10	0	12.1270	0	32.2600	0	24.439	0	35.789	0	-1e10	8	-1e10	8	-1E+10	1	-1E+10	1	-1E+10	1	-1E+10	1	-1E+10	1	-1E+10	1
4902554	25	C	10/11/2021	02:08	-136.436	49.365	0	36.90	0	12.1040	0	32.2620	0	24.445	0	36.583	0	-1e10	8	-1e10	8	-1E+10	1	-1E+10	1	-1E+10	1	-1E+10	1	-1E+10	1	-1E+10	1
4902554	25	C	10/11/2021	02:08	-136.436	49.365	0	37.70	0	12.0870	0	32.2610	0	24.448	0	37.376	0	-1e10	8	-1e10	8	-1E+10	1	-1E+10	1	-1E+10	1	-1E+10	1	-1E+10	1	-1E+10	1
4902554	25	C	10/11/2021	02:08	-136.436	49.365	0	39.00	0	11.9680	0	32.2620	0	24.471	0	38.664	0	-1e10	8	-1e10	8	-1E+10	1	-1E+10	1	-1E+10	1	-1E+10	1	-1E+10	1	-1E+10	1
4902554	25	C	10/11/2021	02:08	-136.436	49.365	0	40.10	0	11.6860	0	32.2730	0	24.531	0	39.755	0	-1e10	8	-1e10	8	-1E+10	1	-1E+10	1	-1E+10	1	-1E+10	1	-1E+10	1	-1E+10	1
4902554	25	C	10/11/2021	02:08	-136.436	49.365	0	40.90	0	11.4250	0	32.2800	0	24.584	0	40.548	0	-1e10	8	-1e10	8	-1E+10	1	-1E+10	1	-1E+10	1	-1E+10	1	-1E+10	1	-1E+10	1
4902554	25	C	10/11/2021	02:08	-136.436	49.365	0	41.90	0	11.0250	0	32.3070	0	24.676	0	41.539	0	-1e10	8	-1e10	8	-1E+10	1	-1E+10	1	-1E+10	1	-1E+10	1	-1E+10	1	-1E+10	1
4902554	25	C	10/11/2021	02:08	-136.436	49.365	0	43.00	0	10.2330	0	32.3180	0	24.821	0	42.629	0	-1e10	8	-1e10	8	-1E+10	1	-1E+10	1	-1E+10	1	-1E+10	1	-1E+10	1	-1E+10	1
4902554	25	C	10/11/2021	02:08	-136.436	49.365	0	44.10	0	9.3930	0	32.3560	0	24.988	0	43.720	0	-1e10	8	-1e10	8	-1E+10	1	-1E+10	1	-1E+10	1	-1E+10	1	-1E+10	1	-1E+10	1
4902554	25	C	10/11/2021	02:08	-136.436	49.365	0	44.90	0	8.8680	0	32.3770	0	25.086	0	44.513	0	-1e10	8	-1e10	8	-1E+10	1	-1E+10	1	-1E+10	1	-1E+10	1	-1E+10	1	-1E+10	1
4902554	25	C	10/11/2021	02:08	-136.436	49.365	0	46.10	0	8.3740	0	32.3970	0	25.176	0	45.702	0	-1e10	8	-1e10	8	-1E+10	1	-1E+10	1	-1E+10	1	-1E+10	1	-1E+10	1	-1E+10	1
4902554	25	C	10/11/2021	02:08	-136.436	49.365	0	47.00	0	8.0860	0	32.4110	0	25.230	0	46.594	0	-1e10	8	-1e10	8	-1E+10	1	-1E+10	1	-1E+10	1	-1E+10	1	-1E+10	1	-1E+10	1
4902554	25	C	10/11/2021	02:08	-136.436	49.365	0	48.20	0	7.7020	0	32.4340	0	25.303	0	47.784	0	-1e10	8	-1e10	8	-1E+10	1	-1E+10	1	-1E+10	1	-1E+10	1	-1E+10	1	-1E+10	1
4902554	25	C	10/11/2021	02:08	-136.436	49.365	0	48.90	0	7.5340	0	32.4250	0	25.319	0	48.478	0	-1e10	8	-1e10	8	-1E+10	1	-1E+10	1	-1E+10	1	-1E+10	1	-1E+10	1	-1E+10	1
4902554	25	C	10/11/2021	02:08	-136.436	49.365	0	50.10	0	7.0990	0	32.4490	0	25.397	0	49.667	0	-1e10	8	-1e10	8	-1E+10	1	-1E+10	1	-1E+10	1	-1E+10	1	-1E+10	1	-1E+10	1
4902554	25	C	10/11/2021	02:08	-136.436	49.365	0	50.80	0	7.0580	0	32.4410	0	25.397	0	50.361	0	-1e10	8	-1e10	8	-1E+10	1	-1E+10	1	-1E+10	1	-1E+10	1	-1E+10	1	-1E+10	1
4902554	25	C	10/11/2021	02:08	-136.436	49.365	0	51.90	0	7.0120	0	32.4400	0	25.402	0	51.452	0	-1e10	8	-1e10	8	-1E+10	1	-1E+10	1	-1E+10	1	-1E+10	1	-1E+10	1	-1E+10	1
4902554	25	C	10/11/2021	02:08	-136.436	49.365	0	53.00	0	6.8430	0	32.4470	0	25.430	0	52.542	0	-1e10	8	-1e10	8	-1E+10	1	-1E+10	1	-1E+10	1	-1E+10	1	-1E+10	1	-1E+10	1
4902554	25	C	10/11/2021	02:08	-136.436	49.365	0	54.10	0	6.7340	0	32.4510	0	25.447	0	53.632	0	-1e10	8	-1e10	8	-1E+10	1	-1E+10	1	-1E+10	1	-1E+10	1	-1E+10	1	-1E+10	1
4902554	25	C	10/11/2021	02:08	-136.436	49.365	0	55.00	0	6.6990	0	32.4510	0	25.452	0	54.524	0	-1e10	8	-1e10	8	-1E+10	1	-1E+10	1	-1E+10	1	-1E+10	1	-1E+10	1	-1E+10	1
4902554	25	C	10/11/2021	02:08	-136.436	49.365	0	55.90	0	6.6950	0	32.4510	0	25.452	0	55.416	0	-1e10	8	-1e10	8	-1E+10	1	-1E+10	1	-1E+10	1	-1E+10	1	-1E+10	1	-1E+10	1
4902554	25	C	10/11/2021	02:08	-136.436	49.365	0	56.90	0	6.6780	0	32.4510	0	25.454	0	56.408	0	-1e10	8	-1e10	8	-1E+10	1	-1E+10	1	-1E+10	1	-1E+10	1	-1E+10	1	-1E+10	1
4902554	25	C	10/11/2021	02:08	-136.436	49.365	0	57.90	0	6.6570	0	32.4520	0	25.458	0	57.399	0	-1e10	8	-1e10	8	-1E+10	1	-1E+10	1	-1E+10	1	-1E+10	1	-1E+10	1	-1E+10	1
4902554	25	C	10/11/2021	02:08	-136.436	49.365	0	58.80	0	6.6440	0	32.4530	0	25.460	0	58.291	0	-1e10	8	-1e10	8	-1E+10	1	-1E+10	1	-1E+10	1	-1E+10	1	-1E+10	1	-1E+10	1
4902554	25	C	10/11/2021	02:08	-136.436	49.365	0	60.10	0	6.5910	0	32.4610	0	25.474	0	59.580	0	-1e10	8	-1e10	8	-1E+10	1	-1E+10	1	-1E+10	1	-1E+10	1	-1E+10	1	-1E+10	1
4902554	25	C	10/11/2021	02:08	-136.436	49.365	0	61.10	0	6.5580	0	32.4550	0	25.473	0	60.571	0	-1e10	8	-1e10	8	-1E+10	1	-1E+10	1	-1E+10	1	-1E+10	1	-1E+10	1	-1E+10	1
4902554	25	C	10/11/2021	02:08	-136.436	49.365	0	62.10	0	6.5290	0	32.4560	0	25.478	0	61.562	0	-1e10	8	-1e10	8	-1E+10	1	-1E+10	1	-1E+10	1	-1E+10	1	-1E+10	1	-1E+10	1
4902554	25	C	10/11/2021	02:08	-136.436	49.365	0	63.10	0	6.5070	0	32.4570	0	25.481	0	62.553	0	-1e10	8	-1e10	8	-1E+10	1	-1E+10	1	-1E+10	1	-1E+10	1	-1E+10	1	-1E+10	1
4902554	25	C	10/11/2021	02:08	-136.436	49.365	0	64.10	0	6.5050	0	32.4560	0	25.481	0	63.544	0	-1e10	8	-1e10	8	-1E+10	1	-1E+10	1	-1E+10	1	-1E+10	1	-1E+10	1	-1E+10	1
4902554	25	C	10/11/2021	02:08	-136.436	49.365	0	65.10	0	6.5010	0	32.4570	0	25.482	0	64.535	0	-1e10	8	-1e10	8	-1E+10	1	-1E+10	1	-1E+10	1	-1E+10	1	-1E+10	1	-1E+10	1
4902554	25	C	10/11/2021	02:08	-136.436	49.365	0	65.90	0	6.4720	0	32.4630	0	25.490	0	65.328	0	-1e10	8	-1e10	8	-1E+10	1	-1E+10	1	-1E+10	1	-1E+10	1	-1E+10	1	-1E+10	1
4902554	25	C	10/11/2021	02:08	-136.436	49.365	0	66.80	0	6.4590	0	32.4630	0	25.492	0	66.220	0	-1e10	8	-1e10	8	-1E+10	1	-1E+10	1	-1E+10	1	-1E+10	1	-1E+10	1	-1E+10	1
4902554	25	C	10/11/2021	02:08	-136.436	49.365	0	67.90	0	6.4480	0	32.4640	0	25.494	0	67.311	0	-1e10	8	-1e10	8	-1E+10	1	-1E+10	1	-1E+10	1	-1E+10	1	-1E+10	1	-1E+10	1
4902554	25	C	10/11/2021	02:08	-136.436	49.365	0	68.90	0	6.4440	0	32.4640	0	25.495	0	68.302	0	-1e10	8	-1e10	8	-1E+10	1	-1E+10	1	-1E+10	1	-1E+10	1	-1E+10	1	-1E+10	1
4902554	25	C	10/11/2021	02:08	-136.436	49.365	0	70.00	0	6.4270	0	32.4660	0	25.499	0	69.392	0	-1e10	8	-1e10	8	-1E+10	1	-1E+10	1	-1E+10	1	-1E+10	1	-1E+10	1	-1E+10	1
4902554	25	C	10/11/2021	02:08	-136.436	49.365	0	70.90	0	6.4210	0	32.4650	0	25.499	0	70.284	0	-1e10	8	-1e10	8	-1E+10	1	-1E+10	1	-1E+10	1	-1E+10	1	-1E+10	1	-1E+10	1
4902554	25	C	10/11/2021	02:08	-136.436	49.365	0	71.90	0	6.4000	0	32.4650	0	25.501	0	71.275	0	-1e10	8	-1e10	8	-1E+10	1	-1E+10	1	-1E+10	1	-1E+10	1	-1E+10	1	-1E+10	1
4902554	25	C	10/11/2021	02:08	-136.436	49.365	0	72.90	0	6.3440	0	32.4660	0	25.509	0	72.266	0	-1e10	8	-1e10	8	-1E+10	1	-1E+10	1	-1E+10	1	-1E+10	1	-1E+10	1	-1E+10	1
4902554	25	C	10/11/2021	02:08	-136.436	49.365	0	74.10	0	6.3180	0	32.4690	0	25.515	0	73.456	0	-1e10	8	-1e10	8	-1E+10	1	-1E+10	1	-1E+10	1	-1E+10	1	-1E+10	1	-1E+10	1
4902554	25	C	10/11/2021	02:08	-136.436	49.365	0	74.90	0	6.3060	0	32.4690	0	25.516	0	74.249	0	-1e10	8	-1e10	8	-1E+10	1	-1E+10	1	-1E+10	1	-1E+10	1	-1E+10	1	-1E+10	1
4902554	25	C	10/11/2021	02:08	-136.436	49.365	0	76.00	0	6.3030	0	32.4690	0	25.517	0	75.339	0	-1e10	8	-1e10	8	-1E+10	1	-1E+10	1	-1E+10	1	-1E+10	1	-1E+10	1	-1E+10	1
4902554	25	C	10/11/2021	02:08	-136.436	49.365	0	76.90	0	6.2870	0	32.4700	0	25.519	0	76.231	0	-1e10	8	-1e10	8	-1E+10	1	-1E+10	1	-1E+10	1	-1E+10	1	-1E+10	1	-1E+10	1
4902554	25	C	10/11/2021	02:08	-136.436	49.365	0	77.80	0	6.2720	0	32.4700	0	25.521	0	77.123	0	-1e10	8	-1e10	8	-1E+10	1	-1E+10	1	-1E+10	1	-1E+10	1	-1E+10	1	-1E+10	1
4902554	25	C	10/11/2021	02:08	-136.436	49.365	0	78.80	0	6.2250	0	32.4730	0	25.529	0	78.114	0	-1e10	8	-1e10	8	-1E+10	1	-1E+10	1	-1E+10	1	-1E+10	1	-1E+10	1	-1E+10	1
4902554	25	C	10/11/2021	02:08	-136.436	49.365	0	79.80	0	6.1850	0	32.4720	0	25.534	0	79.105	0	-1e10	8	-1e10	8	-1E+10	1	-1E+10	1	-1E+10	1	-1E+10	1	-1E+10	1	-1E+10	1
4902554	25	C	10/11/2021	02:08	-136.436	49.365	0	80.80	0	6.1640	0	32.4720	0	25.536	0	80.096	0	-1e10	8	-1e10	8	-1E+10	1	-1E+10	1	-1E+10	1	-1E+10	1	-1E+10	1	-1E+10	1
4902554	25	C	10/11/2021	02:08	-136.436	49.365	0	81.80	0	6.1430	0	32.4730	0	25.540	0	81.087	0	-1e10	8	-1e10	8	-1E+10	1	-1E+10	1	-1E+10	1	-1E+10	1	-1E+10	1	-1E+10	1
4902554	25	C	10/11/2021	02:08	-136.436	49.365	0	82.90	0	6.1220	0	32.4750	0	25.544	0	82.178	0	-1e10	8	-1e10	8	-1E+10	1	-1E+10	1	-1E+10	1	-1E+10	1	-1E+10	1	-1E+10	1
4902554	25	C	10/11/2021	02:08	-136.436	49.365	0	83.90	0	6.1070	0	32.4760	0	25.547	0	83.169	0	-1e10	8	-1e10	8	-1E+10	1	-1E+10	1	-1E+10	1	-1E+10	1	-1E+10	1	-1E+10	1
4902554	25	C	10/11/2021	02:08	-136.436	49.365	0	84.90	0	6.1010	0	32.4760	0	25.547	0	84.160	0	-1e10	8	-1e10	8	-1E+10	1	-1E+10	1	-1E+10	1	-1E+10	1	-1E+10	1	-1E+10	1
4902554	25	C	10/11/2021	02:08	-136.436	49.365	0	85.90	0	6.0970	0	32.4750	0	25.547	0	85.151	0	-1e10	8	-1e10	8	-1E+10	1	-1E+10	1	-1E+10	1	-1E+10	1	-1E+10	1	-1E+10	1
4902554	25	C	10/11/2021	02:08	-136.436	49.365	0	86.90	0	6.0820	0	32.4750	0	25.549	0	86.142	0	-1e10	8	-1e10	8	-1E+10	1	-1E+10	1	-1E+10	1	-1E+10	1	-1E+10	1	-1E+10	1
4902554	25	C	10/11/2021	02:08	-136.436	49.365	0	87.90	0	6.0590	0	32.4760	0	25.552	0	87.133	0	-1e10	8	-1e10	8	-1E+10	1	-1E+10	1	-1E+10	1	-1E+10	1	-1E+10	1	-1E+10	1
4902554	25	C	10/11/2021	02:08	-136.436	49.365	0	88.90	0	5.9870	0	32.4810	0	25.565	0	88.124	0	-1e10	8	-1e10	8	-1E+10	1	-1E+10	1	-1E+10	1	-1E+10	1	-1E+10	1	-1E+10	1
4902554	25	C	10/11/2021	02:08	-136.436	49.365	0	90.00	0	5.9700	0	32.4800	0	25.566	0	89.214	0	-1e10	8	-1e10	8	-1E+10	1	-1E+10	1	-1E+10	1	-1E+10	1	-1E+10	1	-1E+10	1
4902554	25	C	10/11/2021	02:08	-136.436	49.365	0	91.00	0	5.9530	0	32.4810	0	25.569	0	90.205	0	-1e10	8	-1e10	8	-1E+10	1	-1E+10	1	-1E+10	1	-1E+10	1	-1E+10	1	-1E+10	1
4902554	25	C	10/11/2021	02:08	-136.436	49.365	0	92.00	0	5.9350	0	32.4830	0	25.573	0	91.196	0	-1e10	8	-1e10	8	-1E+10	1	-1E+10	1	-1E+10	1	-1E+10	1	-1E+10	1	-1E+10	1
4902554	25	C	10/11/2021	02:08	-136.436	49.365	0	93.00	0	5.9140	0	32.4850	0	25.577	0	92.187	0	-1e10	8	-1e10	8	-1E+10	1	-1E+10	1	-1E+10	1	-1E+10	1	-1E+10	1	-1E+10	1
4902554	25	C	10/11/2021	02:08	-136.436	49.365	0	94.00	0	5.9070	0	32.4850	0	25.578	0	93.178	0	-1e10	8	-1e10	8	-1E+10	1	-1E+10	1	-1E+10	1	-1E+10	1	-1E+10	1	-1E+10	1
4902554	25	C	10/11/2021	02:08	-136.436	49.365	0	95.10	0	5.8940	0	32.4860	0	25.580	0	94.268	0	-1e10	8	-1e10	8	-1E+10	1	-1E+10	1	-1E+10	1	-1E+10	1	-1E+10	1	-1E+10	1
4902554	25	C	10/11/2021	02:08	-136.436	49.365	0	96.10	0	5.8580	0	32.4910	0	25.589	0	95.259	0	-1e10	8	-1e10	8	-1E+10	1	-1E+10	1	-1E+10	1	-1E+10	1	-1E+10	1	-1E+10	1
4902554	25	C	10/11/2021	02:08	-136.436	49.365	0	96.80	0	5.8410	0	32.4920	0	25.592	0	95.953	0	-1e10	8	-1e10	8	-1E+10	1	-1E+10	1	-1E+10	1	-1E+10	1	-1E+10	1	-1E+10	1
4902554	25	C	10/11/2021	02:08	-136.436	49.365	0	97.90	0	5.8300	0	32.4930	0	25.594	0	97.043	0	-1e10	8	-1e10	8	-1E+10	1	-1E+10	1	-1E+10	1	-1E+10	1	-1E+10	1	-1E+10	1
4902554	25	C	10/11/2021	02:08	-136.436	49.365	0	99.00	0	5.8230	0	32.4940	0	25.595	0	98.133	0	-1e10	8	-1e10	8	-1E+10	1	-1E+10	1	-1E+10	1	-1E+10	1	-1E+10	1	-1E+10	1
4902554	25	C	10/11/2021	02:08	-136.436	49.365	0	100.20	0	5.8050	0	32.4960	0	25.599	0	99.323	0	-1e10	8	-1e10	8	-1E+10	1	-1E+10	1	-1E+10	1	-1E+10	1	-1E+10	1	-1E+10	1
4902554	25	C	10/11/2021	02:08	-136.436	49.365	0	101.00	0	5.7980	0	32.4970	0	25.601	0	100.115	0	-1e10	8	-1e10	8	-1E+10	1	-1E+10	1	-1E+10	1	-1E+10	1	-1E+10	1	-1E+10	1
4902554	25	C	10/11/2021	02:08	-136.436	49.365	0	102.00	0	5.7840	0	32.5010	0	25.606	0	101.106	0	-1e10	8	-1e10	8	-1E+10	1	-1E+10	1	-1E+10	1	-1E+10	1	-1E+10	1	-1E+10	1
4902554	25	C	10/11/2021	02:08	-136.436	49.365	0	103.10	0	5.7610	0	32.5040	0	25.611	0	102.197	0	-1e10	8	-1e10	8	-1E+10	1	-1E+10	1	-1E+10	1	-1E+10	1	-1E+10	1	-1E+10	1
4902554	25	C	10/11/2021	02:08	-136.436	49.365	0	103.80	0	5.7560	0	32.5050	0	25.612	0	102.890	0	-1e10	8	-1e10	8	-1E+10	1	-1E+10	1	-1E+10	1	-1E+10	1	-1E+10	1	-1E+10	1
4902554	25	C	10/11/2021	02:08	-136.436	49.365	0	104.90	0	5.7480	0	32.5060	0	25.614	0	103.980	0	-1e10	8	-1e10	8	-1E+10	1	-1E+10	1	-1E+10	1	-1E+10	1	-1E+10	1	-1E+10	1
4902554	25	C	10/11/2021	02:08	-136.436	49.365	0	106.30	0	5.7430	0	32.5120	0	25.619	0	105.368	0	-1e10	8	-1e10	8	-1E+10	1	-1E+10	1	-1E+10	1	-1E+10	1	-1E+10	1	-1E+10	1
4902554	25	C	10/11/2021	02:08	-136.436	49.365	0	107.00	0	5.7570	0	32.5190	0	25.623	0	106.061	0	-1e10	8	-1e10	8	-1E+10	1	-1E+10	1	-1E+10	1	-1E+10	1	-1E+10	1	-1E+10	1
4902554	25	C	10/11/2021	02:08	-136.436	49.365	0	108.00	0	5.7560	0	32.5250	0	25.628	0	107.052	0	-1e10	8	-1e10	8	-1E+10	1	-1E+10	1	-1E+10	1	-1E+10	1	-1E+10	1	-1E+10	1
4902554	25	C	10/11/2021	02:08	-136.436	49.365	0	109.00	0	5.7450	0	32.5340	0	25.636	0	108.043	0	-1e10	8	-1e10	8	-1E+10	1	-1E+10	1	-1E+10	1	-1E+10	1	-1E+10	1	-1E+10	1
4902554	25	C	10/11/2021	02:08	-136.436	49.365	0	109.90	0	5.7300	0	32.5460	0	25.648	0	108.935	0	-1e10	8	-1e10	8	-1E+10	1	-1E+10	1	-1E+10	1	-1E+10	1	-1E+10	1	-1E+10	1
4902554	25	C	10/11/2021	02:08	-136.436	49.365	0	110.90	0	5.7100	0	32.5480	0	25.652	0	109.926	0	-1e10	8	-1e10	8	-1E+10	1	-1E+10	1	-1E+10	1	-1E+10	1	-1E+10	1	-1E+10	1
4902554	25	C	10/11/2021	02:08	-136.436	49.365	0	112.00	0	5.6650	0	32.5650	0	25.670	0	111.016	0	-1e10	8	-1e10	8	-1E+10	1	-1E+10	1	-1E+10	1	-1E+10	1	-1E+10	1	-1E+10	1
4902554	25	C	10/11/2021	02:08	-136.436	49.365	0	113.10	0	5.6650	0	32.5790	0	25.681	0	112.106	0	-1e10	8	-1e10	8	-1E+10	1	-1E+10	1	-1E+10	1	-1E+10	1	-1E+10	1	-1E+10	1
4902554	25	C	10/11/2021	02:08	-136.436	49.365	0	114.10	0	5.6640	0	32.5850	0	25.686	0	113.097	0	-1e10	8	-1e10	8	-1E+10	1	-1E+10	1	-1E+10	1	-1E+10	1	-1E+10	1	-1E+10	1
4902554	25	C	10/11/2021	02:08	-136.436	49.365	0	114.90	0	5.6650	0	32.5940	0	25.693	0	113.890	0	-1e10	8	-1e10	8	-1E+10	1	-1E+10	1	-1E+10	1	-1E+10	1	-1E+10	1	-1E+10	1
4902554	25	C	10/11/2021	02:08	-136.436	49.365	0	115.70	0	5.6630	0	32.6010	0	25.699	0	114.683	0	-1e10	8	-1e10	8	-1E+10	1	-1E+10	1	-1E+10	1	-1E+10	1	-1E+10	1	-1E+10	1
4902554	25	C	10/11/2021	02:08	-136.436	49.365	0	116.80	0	5.6830	0	32.6240	0	25.715	0	115.773	0	-1e10	8	-1e10	8	-1E+10	1	-1E+10	1	-1E+10	1	-1E+10	1	-1E+10	1	-1E+10	1
4902554	25	C	10/11/2021	02:08	-136.436	49.365	0	117.90	0	5.7050	0	32.6650	0	25.745	0	116.863	0	-1e10	8	-1e10	8	-1E+10	1	-1E+10	1	-1E+10	1	-1E+10	1	-1E+10	1	-1E+10	1
4902554	25	C	10/11/2021	02:08	-136.436	49.365	0	119.10	0	5.7460	0	32.7270	0	25.789	0	118.052	0	-1e10	8	-1e10	8	-1E+10	1	-1E+10	1	-1E+10	1	-1E+10	1	-1E+10	1	-1E+10	1
4902554	25	C	10/11/2021	02:08	-136.436	49.365	0	120.00	0	5.7610	0	32.7460	0	25.802	0	118.944	0	-1e10	8	-1e10	8	-1E+10	1	-1E+10	1	-1E+10	1	-1E+10	1	-1E+10	1	-1E+10	1
4902554	25	C	10/11/2021	02:08	-136.436	49.365	0	120.90	0	5.7650	0	32.7590	0	25.812	0	119.835	0	-1e10	8	-1e10	8	-1E+10	1	-1E+10	1	-1E+10	1	-1E+10	1	-1E+10	1	-1E+10	1
4902554	25	C	10/11/2021	02:08	-136.436	49.365	0	122.10	0	5.7710	0	32.7830	0	25.830	0	121.024	0	-1e10	8	-1e10	8	-1E+10	1	-1E+10	1	-1E+10	1	-1E+10	1	-1E+10	1	-1E+10	1
4902554	25	C	10/11/2021	02:08	-136.436	49.365	0	123.10	0	5.7970	0	32.8080	0	25.847	0	122.015	0	-1e10	8	-1e10	8	-1E+10	1	-1E+10	1	-1E+10	1	-1E+10	1	-1E+10	1	-1E+10	1
4902554	25	C	10/11/2021	02:08	-136.436	49.365	0	124.10	0	5.8170	0	32.8370	0	25.867	0	123.006	0	-1e10	8	-1e10	8	-1E+10	1	-1E+10	1	-1E+10	1	-1E+10	1	-1E+10	1	-1E+10	1
4902554	25	C	10/11/2021	02:08	-136.436	49.365	0	125.20	0	5.8370	0	32.9060	0	25.919	0	124.096	0	-1e10	8	-1e10	8	-1E+10	1	-1E+10	1	-1E+10	1	-1E+10	1	-1E+10	1	-1E+10	1
4902554	25	C	10/11/2021	02:08	-136.436	49.365	0	125.80	0	5.8450	0	32.9300	0	25.937	0	124.691	0	-1e10	8	-1e10	8	-1E+10	1	-1E+10	1	-1E+10	1	-1E+10	1	-1E+10	1	-1E+10	1
4902554	25	C	10/11/2021	02:08	-136.436	49.365	0	126.90	0	5.8640	0	32.9530	0	25.953	0	125.781	0	-1e10	8	-1e10	8	-1E+10	1	-1E+10	1	-1E+10	1	-1E+10	1	-1E+10	1	-1E+10	1
4902554	25	C	10/11/2021	02:08	-136.436	49.365	0	128.00	0	5.8890	0	32.9930	0	25.982	0	126.871	0	-1e10	8	-1e10	8	-1E+10	1	-1E+10	1	-1E+10	1	-1E+10	1	-1E+10	1	-1E+10	1
4902554	25	C	10/11/2021	02:08	-136.436	49.365	0	128.70	0	5.8990	0	33.0080	0	25.993	0	127.564	0	-1e10	8	-1e10	8	-1E+10	1	-1E+10	1	-1E+10	1	-1E+10	1	-1E+10	1	-1E+10	1
4902554	25	C	10/11/2021	02:08	-136.436	49.365	0	129.90	0	5.9110	0	33.0330	0	26.011	0	128.753	0	-1e10	8	-1e10	8	-1E+10	1	-1E+10	1	-1E+10	1	-1E+10	1	-1E+10	1	-1E+10	1
4902554	25	C	10/11/2021	02:08	-136.436	49.365	0	131.00	0	5.9150	0	33.0550	0	26.028	0	129.843	0	-1e10	8	-1e10	8	-1E+10	1	-1E+10	1	-1E+10	1	-1E+10	1	-1E+10	1	-1E+10	1
4902554	25	C	10/11/2021	02:08	-136.436	49.365	0	131.80	0	5.9180	0	33.0760	0	26.044	0	130.636	0	-1e10	8	-1e10	8	-1E+10	1	-1E+10	1	-1E+10	1	-1E+10	1	-1E+10	1	-1E+10	1
4902554	25	C	10/11/2021	02:08	-136.436	49.365	0	133.00	0	5.9860	0	33.1500	0	26.094	0	131.825	0	-1e10	8	-1e10	8	-1E+10	1	-1E+10	1	-1E+10	1	-1E+10	1	-1E+10	1	-1E+10	1
4902554	25	C	10/11/2021	02:08	-136.436	49.365	0	134.30	0	6.0140	0	33.1960	0	26.127	0	133.113	0	-1e10	8	-1e10	8	-1E+10	1	-1E+10	1	-1E+10	1	-1E+10	1	-1E+10	1	-1E+10	1
4902554	25	C	10/11/2021	02:08	-136.436	49.365	0	135.10	0	6.0340	0	33.2190	0	26.143	0	133.906	0	-1e10	8	-1e10	8	-1E+10	1	-1E+10	1	-1E+10	1	-1E+10	1	-1E+10	1	-1E+10	1
4902554	25	C	10/11/2021	02:08	-136.436	49.365	0	136.00	0	6.0570	0	33.2370	0	26.154	0	134.797	0	-1e10	8	-1e10	8	-1E+10	1	-1E+10	1	-1E+10	1	-1E+10	1	-1E+10	1	-1E+10	1
4902554	25	C	10/11/2021	02:08	-136.436	49.365	0	136.80	0	6.0480	0	33.2440	0	26.161	0	135.590	0	-1e10	8	-1e10	8	-1E+10	1	-1E+10	1	-1E+10	1	-1E+10	1	-1E+10	1	-1E+10	1
4902554	25	C	10/11/2021	02:08	-136.436	49.365	0	137.70	0	6.0450	0	33.2490	0	26.165	0	136.482	0	-1e10	8	-1e10	8	-1E+10	1	-1E+10	1	-1E+10	1	-1E+10	1	-1E+10	1	-1E+10	1
4902554	25	C	10/11/2021	02:08	-136.436	49.365	0	138.90	0	6.0460	0	33.2620	0	26.175	0	137.671	0	-1e10	8	-1e10	8	-1E+10	1	-1E+10	1	-1E+10	1	-1E+10	1	-1E+10	1	-1E+10	1
4902554	25	C	10/11/2021	02:08	-136.436	49.365	0	140.30	0	6.0630	0	33.2790	0	26.187	0	139.058	0	-1e10	8	-1e10	8	-1E+10	1	-1E+10	1	-1E+10	1	-1E+10	1	-1E+10	1	-1E+10	1
4902554	25	C	10/11/2021	02:08	-136.436	49.365	0	141.20	0	6.0790	0	33.2920	0	26.195	0	139.950	0	-1e10	8	-1e10	8	-1E+10	1	-1E+10	1	-1E+10	1	-1E+10	1	-1E+10	1	-1E+10	1
4902554	25	C	10/11/2021	02:08	-136.436	49.365	0	142.10	0	6.0980	0	33.3200	0	26.215	0	140.841	0	-1e10	8	-1e10	8	-1E+10	1	-1E+10	1	-1E+10	1	-1E+10	1	-1E+10	1	-1E+10	1
4902554	25	C	10/11/2021	02:08	-136.436	49.365	0	143.00	0	6.0660	0	33.3550	0	26.246	0	141.733	0	-1e10	8	-1e10	8	-1E+10	1	-1E+10	1	-1E+10	1	-1E+10	1	-1E+10	1	-1E+10	1
4902554	25	C	10/11/2021	02:08	-136.436	49.365	0	143.90	0	6.0870	0	33.3940	0	26.275	0	142.625	0	-1e10	8	-1e10	8	-1E+10	1	-1E+10	1	-1E+10	1	-1E+10	1	-1E+10	1	-1E+10	1
4902554	25	C	10/11/2021	02:08	-136.436	49.365	0	144.90	0	6.0990	0	33.4410	0	26.310	0	143.616	0	-1e10	8	-1e10	8	-1E+10	1	-1E+10	1	-1E+10	1	-1E+10	1	-1E+10	1	-1E+10	1
4902554	25	C	10/11/2021	02:08	-136.436	49.365	0	145.80	0	6.1080	0	33.4490	0	26.315	0	144.507	0	-1e10	8	-1e10	8	-1E+10	1	-1E+10	1	-1E+10	1	-1E+10	1	-1E+10	1	-1E+10	1
4902554	25	C	10/11/2021	02:08	-136.436	49.365	0	146.80	0	6.1110	0	33.4510	0	26.317	0	145.498	0	-1e10	8	-1e10	8	-1E+10	1	-1E+10	1	-1E+10	1	-1E+10	1	-1E+10	1	-1E+10	1
4902554	25	C	10/11/2021	02:08	-136.436	49.365	0	147.70	0	6.1080	0	33.4580	0	26.322	0	146.390	0	-1e10	8	-1e10	8	-1E+10	1	-1E+10	1	-1E+10	1	-1E+10	1	-1E+10	1	-1E+10	1
4902554	25	C	10/11/2021	02:08	-136.436	49.365	0	148.60	0	6.0980	0	33.4720	0	26.335	0	147.282	0	-1e10	8	-1e10	8	-1E+10	1	-1E+10	1	-1E+10	1	-1E+10	1	-1E+10	1	-1E+10	1
4902554	25	C	10/11/2021	02:08	-136.436	49.365	0	149.60	0	6.0930	0	33.4840	0	26.345	0	148.272	0	-1e10	8	-1e10	8	-1E+10	1	-1E+10	1	-1E+10	1	-1E+10	1	-1E+10	1	-1E+10	1
4902554	25	C	10/11/2021	02:08	-136.436	49.365	0	150.90	0	6.0930	0	33.5000	0	26.358	0	149.560	0	-1e10	8	-1e10	8	-1E+10	1	-1E+10	1	-1E+10	1	-1E+10	1	-1E+10	1	-1E+10	1
4902554	25	C	10/11/2021	02:08	-136.436	49.365	0	152.00	0	6.0910	0	33.5140	0	26.369	0	150.650	0	-1e10	8	-1e10	8	-1E+10	1	-1E+10	1	-1E+10	1	-1E+10	1	-1E+10	1	-1E+10	1
4902554	25	C	10/11/2021	02:08	-136.436	49.365	0	153.00	0	6.0840	0	33.5390	0	26.390	0	151.641	0	-1e10	8	-1e10	8	-1E+10	1	-1E+10	1	-1E+10	1	-1E+10	1	-1E+10	1	-1E+10	1
4902554	25	C	10/11/2021	02:08	-136.436	49.365	0	154.00	0	6.0430	0	33.5580	0	26.410	0	152.632	0	-1e10	8	-1e10	8	-1E+10	1	-1E+10	1	-1E+10	1	-1E+10	1	-1E+10	1	-1E+10	1
4902554	25	C	10/11/2021	02:08	-136.436	49.365	0	154.80	0	6.0210	0	33.5620	0	26.416	0	153.424	0	-1e10	8	-1e10	8	-1E+10	1	-1E+10	1	-1E+10	1	-1E+10	1	-1E+10	1	-1E+10	1
4902554	25	C	10/11/2021	02:08	-136.436	49.365	0	155.90	0	6.0050	0	33.5740	0	26.427	0	154.514	0	-1e10	8	-1e10	8	-1E+10	1	-1E+10	1	-1E+10	1	-1E+10	1	-1E+10	1	-1E+10	1
4902554	25	C	10/11/2021	02:08	-136.436	49.365	0	157.00	0	5.9890	0	33.5880	0	26.440	0	155.604	0	-1e10	8	-1e10	8	-1E+10	1	-1E+10	1	-1E+10	1	-1E+10	1	-1E+10	1	-1E+10	1
4902554	25	C	10/11/2021	02:08	-136.436	49.365	0	158.00	0	5.9800	0	33.5980	0	26.449	0	156.595	0	-1e10	8	-1e10	8	-1E+10	1	-1E+10	1	-1E+10	1	-1E+10	1	-1E+10	1	-1E+10	1
4902554	25	C	10/11/2021	02:08	-136.436	49.365	0	158.80	0	5.9630	0	33.6120	0	26.462	0	157.387	0	-1e10	8	-1e10	8	-1E+10	1	-1E+10	1	-1E+10	1	-1E+10	1	-1E+10	1	-1E+10	1
4902554	25	C	10/11/2021	02:08	-136.436	49.365	0	160.00	0	5.9490	0	33.6230	0	26.473	0	158.576	0	-1e10	8	-1e10	8	-1E+10	1	-1E+10	1	-1E+10	1	-1E+10	1	-1E+10	1	-1E+10	1
4902554	25	C	10/11/2021	02:08	-136.436	49.365	0	161.20	0	5.9290	0	33.6390	0	26.488	0	159.765	0	-1e10	8	-1e10	8	-1E+10	1	-1E+10	1	-1E+10	1	-1E+10	1	-1E+10	1	-1E+10	1
4902554	25	C	10/11/2021	02:08	-136.436	49.365	0	162.00	0	5.9280	0	33.6400	0	26.489	0	160.557	0	-1e10	8	-1e10	8	-1E+10	1	-1E+10	1	-1E+10	1	-1E+10	1	-1E+10	1	-1E+10	1
4902554	25	C	10/11/2021	02:08	-136.436	49.365	0	162.80	0	5.9260	0	33.6410	0	26.490	0	161.350	0	-1e10	8	-1e10	8	-1E+10	1	-1E+10	1	-1E+10	1	-1E+10	1	-1E+10	1	-1E+10	1
4902554	25	C	10/11/2021	02:08	-136.436	49.365	0	163.70	0	5.9200	0	33.6440	0	26.493	0	162.242	0	-1e10	8	-1e10	8	-1E+10	1	-1E+10	1	-1E+10	1	-1E+10	1	-1E+10	1	-1E+10	1
4902554	25	C	10/11/2021	02:08	-136.436	49.365	0	164.90	0	5.9140	0	33.6500	0	26.498	0	163.431	0	-1e10	8	-1e10	8	-1E+10	1	-1E+10	1	-1E+10	1	-1E+10	1	-1E+10	1	-1E+10	1
4902554	25	C	10/11/2021	02:08	-136.436	49.365	0	166.10	0	5.9090	0	33.6520	0	26.501	0	164.619	0	-1e10	8	-1e10	8	-1E+10	1	-1E+10	1	-1E+10	1	-1E+10	1	-1E+10	1	-1E+10	1
4902554	25	C	10/11/2021	02:08	-136.436	49.365	0	166.90	0	5.8840	0	33.6670	0	26.516	0	165.412	0	-1e10	8	-1e10	8	-1E+10	1	-1E+10	1	-1E+10	1	-1E+10	1	-1E+10	1	-1E+10	1
4902554	25	C	10/11/2021	02:08	-136.436	49.365	0	167.60	0	5.8660	0	33.6760	0	26.525	0	166.105	0	-1e10	8	-1e10	8	-1E+10	1	-1E+10	1	-1E+10	1	-1E+10	1	-1E+10	1	-1E+10	1
4902554	25	C	10/11/2021	02:08	-136.436	49.365	0	168.90	0	5.8520	0	33.6840	0	26.533	0	167.393	0	-1e10	8	-1e10	8	-1E+10	1	-1E+10	1	-1E+10	1	-1E+10	1	-1E+10	1	-1E+10	1
4902554	25	C	10/11/2021	02:08	-136.436	49.365	0	170.10	0	5.8400	0	33.6910	0	26.540	0	168.582	0	-1e10	8	-1e10	8	-1E+10	1	-1E+10	1	-1E+10	1	-1E+10	1	-1E+10	1	-1E+10	1
4902554	25	C	10/11/2021	02:08	-136.436	49.365	0	170.90	0	5.8250	0	33.6960	0	26.546	0	169.375	0	-1e10	8	-1e10	8	-1E+10	1	-1E+10	1	-1E+10	1	-1E+10	1	-1E+10	1	-1E+10	1
4902554	25	C	10/11/2021	02:08	-136.436	49.365	0	171.70	0	5.8180	0	33.7010	0	26.551	0	170.167	0	-1e10	8	-1e10	8	-1E+10	1	-1E+10	1	-1E+10	1	-1E+10	1	-1E+10	1	-1E+10	1
4902554	25	C	10/11/2021	02:08	-136.436	49.365	0	173.00	0	5.8090	0	33.7050	0	26.555	0	171.455	0	-1e10	8	-1e10	8	-1E+10	1	-1E+10	1	-1E+10	1	-1E+10	1	-1E+10	1	-1E+10	1
4902554	25	C	10/11/2021	02:08	-136.436	49.365	0	174.30	0	5.7850	0	33.7140	0	26.565	0	172.743	0	-1e10	8	-1e10	8	-1E+10	1	-1E+10	1	-1E+10	1	-1E+10	1	-1E+10	1	-1E+10	1
4902554	25	C	10/11/2021	02:08	-136.436	49.365	0	175.10	0	5.7710	0	33.7200	0	26.571	0	173.535	0	-1e10	8	-1e10	8	-1E+10	1	-1E+10	1	-1E+10	1	-1E+10	1	-1E+10	1	-1E+10	1
4902554	25	C	10/11/2021	02:08	-136.436	49.365	0	176.00	0	5.7520	0	33.7220	0	26.575	0	174.427	0	-1e10	8	-1e10	8	-1E+10	1	-1E+10	1	-1E+10	1	-1E+10	1	-1E+10	1	-1E+10	1
4902554	25	C	10/11/2021	02:08	-136.436	49.365	0	176.80	0	5.7460	0	33.7220	0	26.576	0	175.219	0	-1e10	8	-1e10	8	-1E+10	1	-1E+10	1	-1E+10	1	-1E+10	1	-1E+10	1	-1E+10	1
4902554	25	C	10/11/2021	02:08	-136.436	49.365	0	177.70	0	5.7250	0	33.7250	0	26.581	0	176.111	0	-1e10	8	-1e10	8	-1E+10	1	-1E+10	1	-1E+10	1	-1E+10	1	-1E+10	1	-1E+10	1
4902554	25	C	10/11/2021	02:08	-136.436	49.365	0	178.90	0	5.7160	0	33.7270	0	26.584	0	177.300	0	-1e10	8	-1e10	8	-1E+10	1	-1E+10	1	-1E+10	1	-1E+10	1	-1E+10	1	-1E+10	1
4902554	25	C	10/11/2021	02:08	-136.436	49.365	0	180.20	0	5.6980	0	33.7310	0	26.589	0	178.588	0	-1e10	8	-1e10	8	-1E+10	1	-1E+10	1	-1E+10	1	-1E+10	1	-1E+10	1	-1E+10	1
4902554	25	C	10/11/2021	02:08	-136.436	49.365	0	181.00	0	5.6860	0	33.7370	0	26.595	0	179.380	0	-1e10	8	-1e10	8	-1E+10	1	-1E+10	1	-1E+10	1	-1E+10	1	-1E+10	1	-1E+10	1
4902554	25	C	10/11/2021	02:08	-136.436	49.365	0	181.90	0	5.6690	0	33.7390	0	26.599	0	180.272	0	-1e10	8	-1e10	8	-1E+10	1	-1E+10	1	-1E+10	1	-1E+10	1	-1E+10	1	-1E+10	1
4902554	25	C	10/11/2021	02:08	-136.436	49.365	0	182.70	0	5.6610	0	33.7450	0	26.605	0	181.064	0	-1e10	8	-1e10	8	-1E+10	1	-1E+10	1	-1E+10	1	-1E+10	1	-1E+10	1	-1E+10	1
4902554	25	C	10/11/2021	02:08	-136.436	49.365	0	183.90	0	5.6430	0	33.7480	0	26.609	0	182.253	0	-1e10	8	-1e10	8	-1E+10	1	-1E+10	1	-1E+10	1	-1E+10	1	-1E+10	1	-1E+10	1
4902554	25	C	10/11/2021	02:08	-136.436	49.365	0	185.20	0	5.6380	0	33.7490	0	26.611	0	183.541	0	-1e10	8	-1e10	8	-1E+10	1	-1E+10	1	-1E+10	1	-1E+10	1	-1E+10	1	-1E+10	1
4902554	25	C	10/11/2021	02:08	-136.436	49.365	0	186.00	0	5.6300	0	33.7510	0	26.613	0	184.333	0	-1e10	8	-1e10	8	-1E+10	1	-1E+10	1	-1E+10	1	-1E+10	1	-1E+10	1	-1E+10	1
4902554	25	C	10/11/2021	02:08	-136.436	49.365	0	186.80	0	5.6190	0	33.7530	0	26.616	0	185.126	0	-1e10	8	-1e10	8	-1E+10	1	-1E+10	1	-1E+10	1	-1E+10	1	-1E+10	1	-1E+10	1
4902554	25	C	10/11/2021	02:08	-136.436	49.365	0	188.00	0	5.5990	0	33.7570	0	26.622	0	186.314	0	-1e10	8	-1e10	8	-1E+10	1	-1E+10	1	-1E+10	1	-1E+10	1	-1E+10	1	-1E+10	1
4902554	25	C	10/11/2021	02:08	-136.436	49.365	0	189.20	0	5.5680	0	33.7650	0	26.632	0	187.503	0	-1e10	8	-1e10	8	-1E+10	1	-1E+10	1	-1E+10	1	-1E+10	1	-1E+10	1	-1E+10	1
4902554	25	C	10/11/2021	02:08	-136.436	49.365	0	190.00	0	5.5600	0	33.7670	0	26.634	0	188.295	0	-1e10	8	-1e10	8	-1E+10	1	-1E+10	1	-1E+10	1	-1E+10	1	-1E+10	1	-1E+10	1
4902554	25	C	10/11/2021	02:08	-136.436	49.365	0	190.80	0	5.5510	0	33.7690	0	26.637	0	189.088	0	-1e10	8	-1e10	8	-1E+10	1	-1E+10	1	-1E+10	1	-1E+10	1	-1E+10	1	-1E+10	1
4902554	25	C	10/11/2021	02:08	-136.436	49.365	0	191.70	0	5.5340	0	33.7720	0	26.641	0	189.979	0	-1e10	8	-1e10	8	-1E+10	1	-1E+10	1	-1E+10	1	-1E+10	1	-1E+10	1	-1E+10	1
4902554	25	C	10/11/2021	02:08	-136.436	49.365	0	192.90	0	5.5120	0	33.7730	0	26.645	0	191.168	0	-1e10	8	-1e10	8	-1E+10	1	-1E+10	1	-1E+10	1	-1E+10	1	-1E+10	1	-1E+10	1
4902554	25	C	10/11/2021	02:08	-136.436	49.365	0	194.20	0	5.4970	0	33.7750	0	26.648	0	192.456	0	-1e10	8	-1e10	8	-1E+10	1	-1E+10	1	-1E+10	1	-1E+10	1	-1E+10	1	-1E+10	1
4902554	25	C	10/11/2021	02:08	-136.436	49.365	0	195.10	0	5.4930	0	33.7750	0	26.649	0	193.347	0	-1e10	8	-1e10	8	-1E+10	1	-1E+10	1	-1E+10	1	-1E+10	1	-1E+10	1	-1E+10	1
4902554	25	C	10/11/2021	02:08	-136.436	49.365	0	196.00	0	5.4760	0	33.7780	0	26.653	0	194.239	0	-1e10	8	-1e10	8	-1E+10	1	-1E+10	1	-1E+10	1	-1E+10	1	-1E+10	1	-1E+10	1
4902554	25	C	10/11/2021	02:08	-136.436	49.365	0	196.80	0	5.4640	0	33.7790	0	26.655	0	195.031	0	-1e10	8	-1e10	8	-1E+10	1	-1E+10	1	-1E+10	1	-1E+10	1	-1E+10	1	-1E+10	1
4902554	25	C	10/11/2021	02:08	-136.436	49.365	0	197.70	0	5.4560	0	33.7820	0	26.659	0	195.923	0	-1e10	8	-1e10	8	-1E+10	1	-1E+10	1	-1E+10	1	-1E+10	1	-1E+10	1	-1E+10	1
4902554	25	C	10/11/2021	02:08	-136.436	49.365	0	198.90	0	5.4400	0	33.7820	0	26.661	0	197.111	0	-1e10	8	-1e10	8	-1E+10	1	-1E+10	1	-1E+10	1	-1E+10	1	-1E+10	1	-1E+10	1
4902554	25	C	10/11/2021	02:08	-136.436	49.365	0	200.30	0	5.4280	0	33.7830	0	26.663	0	198.498	0	-1e10	8	-1e10	8	-1E+10	1	-1E+10	1	-1E+10	1	-1E+10	1	-1E+10	1	-1E+10	1
4902554	25	C	10/11/2021	02:08	-136.436	49.365	0	201.10	0	5.4280	0	33.7830	0	26.663	0	199.290	0	-1e10	8	-1e10	8	-1E+10	1	-1E+10	1	-1E+10	1	-1E+10	1	-1E+10	1	-1E+10	1
4902554	25	C	10/11/2021	02:08	-136.436	49.365	0	202.00	0	5.4270	0	33.7840	0	26.664	0	200.182	0	-1e10	8	-1e10	8	-1E+10	1	-1E+10	1	-1E+10	1	-1E+10	1	-1E+10	1	-1E+10	1
4902554	25	C	10/11/2021	02:08	-136.436	49.365	0	202.90	0	5.4150	0	33.7880	0	26.668	0	201.073	0	-1e10	8	-1e10	8	-1E+10	1	-1E+10	1	-1E+10	1	-1E+10	1	-1E+10	1	-1E+10	1
4902554	25	C	10/11/2021	02:08	-136.436	49.365	0	203.80	0	5.3910	0	33.7890	0	26.672	0	201.965	0	-1e10	8	-1e10	8	-1E+10	1	-1E+10	1	-1E+10	1	-1E+10	1	-1E+10	1	-1E+10	1
4902554	25	C	10/11/2021	02:08	-136.436	49.365	0	204.70	0	5.3830	0	33.7880	0	26.672	0	202.856	0	-1e10	8	-1e10	8	-1E+10	1	-1E+10	1	-1E+10	1	-1E+10	1	-1E+10	1	-1E+10	1
4902554	25	C	10/11/2021	02:08	-136.436	49.365	0	205.60	0	5.3770	0	33.7890	0	26.674	0	203.748	0	-1e10	8	-1e10	8	-1E+10	1	-1E+10	1	-1E+10	1	-1E+10	1	-1E+10	1	-1E+10	1
4902554	25	C	10/11/2021	02:08	-136.436	49.365	0	206.90	0	5.3700	0	33.7890	0	26.674	0	205.035	0	-1e10	8	-1e10	8	-1E+10	1	-1E+10	1	-1E+10	1	-1E+10	1	-1E+10	1	-1E+10	1
4902554	25	C	10/11/2021	02:08	-136.436	49.365	0	208.40	0	5.3700	0	33.7890	0	26.674	0	206.521	0	-1e10	8	-1e10	8	-1E+10	1	-1E+10	1	-1E+10	1	-1E+10	1	-1E+10	1	-1E+10	1
4902554	25	C	10/11/2021	02:08	-136.436	49.365	0	209.30	0	5.3650	0	33.7900	0	26.676	0	207.413	0	-1e10	8	-1e10	8	-1E+10	1	-1E+10	1	-1E+10	1	-1E+10	1	-1E+10	1	-1E+10	1
4902554	25	C	10/11/2021	02:08	-136.436	49.365	0	210.20	0	5.3620	0	33.7920	0	26.678	0	208.304	0	-1e10	8	-1e10	8	-1E+10	1	-1E+10	1	-1E+10	1	-1E+10	1	-1E+10	1	-1E+10	1
4902554	25	C	10/11/2021	02:08	-136.436	49.365	0	211.10	0	5.3540	0	33.7910	0	26.678	0	209.195	0	-1e10	8	-1e10	8	-1E+10	1	-1E+10	1	-1E+10	1	-1E+10	1	-1E+10	1	-1E+10	1
4902554	25	C	10/11/2021	02:08	-136.436	49.365	0	212.00	0	5.3400	0	33.7920	0	26.680	0	210.087	0	-1e10	8	-1e10	8	-1E+10	1	-1E+10	1	-1E+10	1	-1E+10	1	-1E+10	1	-1E+10	1
4902554	25	C	10/11/2021	02:08	-136.436	49.365	0	213.00	0	5.3240	0	33.7940	0	26.684	0	211.077	0	-1e10	8	-1e10	8	-1E+10	1	-1E+10	1	-1E+10	1	-1E+10	1	-1E+10	1	-1E+10	1
4902554	25	C	10/11/2021	02:08	-136.436	49.365	0	214.10	0	5.3210	0	33.7960	0	26.686	0	212.167	0	-1e10	8	-1e10	8	-1E+10	1	-1E+10	1	-1E+10	1	-1E+10	1	-1E+10	1	-1E+10	1
4902554	25	C	10/11/2021	02:08	-136.436	49.365	0	215.00	0	5.3180	0	33.7940	0	26.685	0	213.058	0	-1e10	8	-1e10	8	-1E+10	1	-1E+10	1	-1E+10	1	-1E+10	1	-1E+10	1	-1E+10	1
4902554	25	C	10/11/2021	02:08	-136.436	49.365	0	215.90	0	5.3130	0	33.7950	0	26.686	0	213.950	0	-1e10	8	-1e10	8	-1E+10	1	-1E+10	1	-1E+10	1	-1E+10	1	-1E+10	1	-1E+10	1
4902554	25	C	10/11/2021	02:08	-136.436	49.365	0	217.00	0	5.3090	0	33.7950	0	26.686	0	215.039	0	-1e10	8	-1e10	8	-1E+10	1	-1E+10	1	-1E+10	1	-1E+10	1	-1E+10	1	-1E+10	1
4902554	25	C	10/11/2021	02:08	-136.436	49.365	0	218.00	0	5.3000	0	33.7960	0	26.688	0	216.030	0	-1e10	8	-1e10	8	-1E+10	1	-1E+10	1	-1E+10	1	-1E+10	1	-1E+10	1	-1E+10	1
4902554	25	C	10/11/2021	02:08	-136.436	49.365	0	219.10	0	5.2900	0	33.7970	0	26.690	0	217.119	0	-1e10	8	-1e10	8	-1E+10	1	-1E+10	1	-1E+10	1	-1E+10	1	-1E+10	1	-1E+10	1
4902554	25	C	10/11/2021	02:08	-136.436	49.365	0	220.00	0	5.2790	0	33.7980	0	26.692	0	218.010	0	-1e10	8	-1e10	8	-1E+10	1	-1E+10	1	-1E+10	1	-1E+10	1	-1E+10	1	-1E+10	1
4902554	25	C	10/11/2021	02:08	-136.436	49.365	0	221.20	0	5.2650	0	33.7990	0	26.695	0	219.199	0	-1e10	8	-1e10	8	-1E+10	1	-1E+10	1	-1E+10	1	-1E+10	1	-1E+10	1	-1E+10	1
4902554	25	C	10/11/2021	02:08	-136.436	49.365	0	222.10	0	5.2520	0	33.7990	0	26.696	0	220.090	0	-1e10	8	-1e10	8	-1E+10	1	-1E+10	1	-1E+10	1	-1E+10	1	-1E+10	1	-1E+10	1
4902554	25	C	10/11/2021	02:08	-136.436	49.365	0	223.10	0	5.2450	0	33.8010	0	26.699	0	221.081	0	-1e10	8	-1e10	8	-1E+10	1	-1E+10	1	-1E+10	1	-1E+10	1	-1E+10	1	-1E+10	1
4902554	25	C	10/11/2021	02:08	-136.436	49.365	0	224.20	0	5.2370	0	33.8010	0	26.700	0	222.170	0	-1e10	8	-1e10	8	-1E+10	1	-1E+10	1	-1E+10	1	-1E+10	1	-1E+10	1	-1E+10	1
4902554	25	C	10/11/2021	02:08	-136.436	49.365	0	225.10	0	5.2360	0	33.8010	0	26.700	0	223.062	0	-1e10	8	-1e10	8	-1E+10	1	-1E+10	1	-1E+10	1	-1E+10	1	-1E+10	1	-1E+10	1
4902554	25	C	10/11/2021	02:08	-136.436	49.365	0	226.30	0	5.2280	0	33.8010	0	26.701	0	224.250	0	-1e10	8	-1e10	8	-1E+10	1	-1E+10	1	-1E+10	1	-1E+10	1	-1E+10	1	-1E+10	1
4902554	25	C	10/11/2021	02:08	-136.436	49.365	0	227.20	0	5.2110	0	33.8020	0	26.703	0	225.141	0	-1e10	8	-1e10	8	-1E+10	1	-1E+10	1	-1E+10	1	-1E+10	1	-1E+10	1	-1E+10	1
4902554	25	C	10/11/2021	02:08	-136.436	49.365	0	228.40	0	5.1910	0	33.8030	0	26.707	0	226.330	0	-1e10	8	-1e10	8	-1E+10	1	-1E+10	1	-1E+10	1	-1E+10	1	-1E+10	1	-1E+10	1
4902554	25	C	10/11/2021	02:08	-136.436	49.365	0	229.30	0	5.1810	0	33.8040	0	26.709	0	227.221	0	-1e10	8	-1e10	8	-1E+10	1	-1E+10	1	-1E+10	1	-1E+10	1	-1E+10	1	-1E+10	1
4902554	25	C	10/11/2021	02:08	-136.436	49.365	0	230.30	0	5.1670	0	33.8060	0	26.712	0	228.212	0	-1e10	8	-1e10	8	-1E+10	1	-1E+10	1	-1E+10	1	-1E+10	1	-1E+10	1	-1E+10	1
4902554	25	C	10/11/2021	02:08	-136.436	49.365	0	231.20	0	5.1630	0	33.8050	0	26.711	0	229.103	0	-1e10	8	-1e10	8	-1E+10	1	-1E+10	1	-1E+10	1	-1E+10	1	-1E+10	1	-1E+10	1
4902554	25	C	10/11/2021	02:08	-136.436	49.365	0	232.20	0	5.1580	0	33.8060	0	26.713	0	230.093	0	-1e10	8	-1e10	8	-1E+10	1	-1E+10	1	-1E+10	1	-1E+10	1	-1E+10	1	-1E+10	1
4902554	25	C	10/11/2021	02:08	-136.436	49.365	0	233.10	0	5.1350	0	33.8090	0	26.718	0	230.985	0	-1e10	8	-1e10	8	-1E+10	1	-1E+10	1	-1E+10	1	-1E+10	1	-1E+10	1	-1E+10	1
4902554	25	C	10/11/2021	02:08	-136.436	49.365	0	234.30	0	5.1000	0	33.8110	0	26.723	0	232.173	0	-1e10	8	-1e10	8	-1E+10	1	-1E+10	1	-1E+10	1	-1E+10	1	-1E+10	1	-1E+10	1
4902554	25	C	10/11/2021	02:08	-136.436	49.365	0	235.20	0	5.0960	0	33.8100	0	26.723	0	233.064	0	-1e10	8	-1e10	8	-1E+10	1	-1E+10	1	-1E+10	1	-1E+10	1	-1E+10	1	-1E+10	1
4902554	25	C	10/11/2021	02:08	-136.436	49.365	0	236.20	0	5.0770	0	33.8120	0	26.727	0	234.055	0	-1e10	8	-1e10	8	-1E+10	1	-1E+10	1	-1E+10	1	-1E+10	1	-1E+10	1	-1E+10	1
4902554	25	C	10/11/2021	02:08	-136.436	49.365	0	237.10	0	5.0730	0	33.8120	0	26.727	0	234.946	0	-1e10	8	-1e10	8	-1E+10	1	-1E+10	1	-1E+10	1	-1E+10	1	-1E+10	1	-1E+10	1
4902554	25	C	10/11/2021	02:08	-136.436	49.365	0	238.10	0	5.0630	0	33.8130	0	26.729	0	235.936	0	-1e10	8	-1e10	8	-1E+10	1	-1E+10	1	-1E+10	1	-1E+10	1	-1E+10	1	-1E+10	1
4902554	25	C	10/11/2021	02:08	-136.436	49.365	0	239.10	0	5.0490	0	33.8140	0	26.732	0	236.927	0	-1e10	8	-1e10	8	-1E+10	1	-1E+10	1	-1E+10	1	-1E+10	1	-1E+10	1	-1E+10	1
4902554	25	C	10/11/2021	02:08	-136.436	49.365	0	240.00	0	5.0410	0	33.8160	0	26.734	0	237.818	0	-1e10	8	-1e10	8	-1E+10	1	-1E+10	1	-1E+10	1	-1E+10	1	-1E+10	1	-1E+10	1
4902554	25	C	10/11/2021	02:08	-136.436	49.365	0	241.00	0	5.0350	0	33.8170	0	26.736	0	238.808	0	-1e10	8	-1e10	8	-1E+10	1	-1E+10	1	-1E+10	1	-1E+10	1	-1E+10	1	-1E+10	1
4902554	25	C	10/11/2021	02:08	-136.436	49.365	0	242.00	0	5.0260	0	33.8180	0	26.737	0	239.799	0	-1e10	8	-1e10	8	-1E+10	1	-1E+10	1	-1E+10	1	-1E+10	1	-1E+10	1	-1E+10	1
4902554	25	C	10/11/2021	02:08	-136.436	49.365	0	242.90	0	5.0250	0	33.8180	0	26.738	0	240.690	0	-1e10	8	-1e10	8	-1E+10	1	-1E+10	1	-1E+10	1	-1E+10	1	-1E+10	1	-1E+10	1
4902554	25	C	10/11/2021	02:08	-136.436	49.365	0	243.90	0	5.0250	0	33.8180	0	26.738	0	241.680	0	-1e10	8	-1e10	8	-1E+10	1	-1E+10	1	-1E+10	1	-1E+10	1	-1E+10	1	-1E+10	1
4902554	25	C	10/11/2021	02:08	-136.436	49.365	0	244.90	0	5.0250	0	33.8180	0	26.738	0	242.671	0	-1e10	8	-1e10	8	-1E+10	1	-1E+10	1	-1E+10	1	-1E+10	1	-1E+10	1	-1E+10	1
4902554	25	C	10/11/2021	02:08	-136.436	49.365	0	245.80	0	5.0230	0	33.8180	0	26.738	0	243.562	0	-1e10	8	-1e10	8	-1E+10	1	-1E+10	1	-1E+10	1	-1E+10	1	-1E+10	1	-1E+10	1
4902554	25	C	10/11/2021	02:08	-136.436	49.365	0	246.80	0	5.0220	0	33.8180	0	26.738	0	244.552	0	-1e10	8	-1e10	8	-1E+10	1	-1E+10	1	-1E+10	1	-1E+10	1	-1E+10	1	-1E+10	1
4902554	25	C	10/11/2021	02:08	-136.436	49.365	0	247.80	0	5.0190	0	33.8190	0	26.739	0	245.543	0	-1e10	8	-1e10	8	-1E+10	1	-1E+10	1	-1E+10	1	-1E+10	1	-1E+10	1	-1E+10	1
4902554	25	C	10/11/2021	02:08	-136.436	49.365	0	248.70	0	5.0110	0	33.8200	0	26.741	0	246.434	0	-1e10	8	-1e10	8	-1E+10	1	-1E+10	1	-1E+10	1	-1E+10	1	-1E+10	1	-1E+10	1
4902554	25	C	10/11/2021	02:08	-136.436	49.365	0	249.70	0	5.0060	0	33.8200	0	26.741	0	247.424	0	-1e10	8	-1e10	8	-1E+10	1	-1E+10	1	-1E+10	1	-1E+10	1	-1E+10	1	-1E+10	1
4902554	25	C	10/11/2021	02:08	-136.436	49.365	0	250.70	0	5.0010	0	33.8210	0	26.743	0	248.414	0	-1e10	8	-1e10	8	-1E+10	1	-1E+10	1	-1E+10	1	-1E+10	1	-1E+10	1	-1E+10	1
4902554	25	C	10/11/2021	02:08	-136.436	49.365	0	251.60	0	4.9920	0	33.8220	0	26.745	0	249.306	0	-1e10	8	-1e10	8	-1E+10	1	-1E+10	1	-1E+10	1	-1E+10	1	-1E+10	1	-1E+10	1
4902554	25	C	10/11/2021	02:08	-136.436	49.365	0	252.60	0	4.9900	0	33.8220	0	26.745	0	250.296	0	-1e10	8	-1e10	8	-1E+10	1	-1E+10	1	-1E+10	1	-1E+10	1	-1E+10	1	-1E+10	1
4902554	25	C	10/11/2021	02:08	-136.436	49.365	0	253.60	0	4.9840	0	33.8230	0	26.746	0	251.286	0	-1e10	8	-1e10	8	-1E+10	1	-1E+10	1	-1E+10	1	-1E+10	1	-1E+10	1	-1E+10	1
4902554	25	C	10/11/2021	02:08	-136.436	49.365	0	254.50	0	4.9740	0	33.8240	0	26.748	0	252.177	0	-1e10	8	-1e10	8	-1E+10	1	-1E+10	1	-1E+10	1	-1E+10	1	-1E+10	1	-1E+10	1
4902554	25	C	10/11/2021	02:08	-136.436	49.365	0	255.50	0	4.9670	0	33.8250	0	26.750	0	253.168	0	-1e10	8	-1e10	8	-1E+10	1	-1E+10	1	-1E+10	1	-1E+10	1	-1E+10	1	-1E+10	1
4902554	25	C	10/11/2021	02:08	-136.436	49.365	0	256.50	0	4.9620	0	33.8260	0	26.751	0	254.158	0	-1e10	8	-1e10	8	-1E+10	1	-1E+10	1	-1E+10	1	-1E+10	1	-1E+10	1	-1E+10	1
4902554	25	C	10/11/2021	02:08	-136.436	49.365	0	257.50	0	4.9610	0	33.8260	0	26.751	0	255.148	0	-1e10	8	-1e10	8	-1E+10	1	-1E+10	1	-1E+10	1	-1E+10	1	-1E+10	1	-1E+10	1
4902554	25	C	10/11/2021	02:08	-136.436	49.365	0	258.50	0	4.9560	0	33.8280	0	26.753	0	256.138	0	-1e10	8	-1e10	8	-1E+10	1	-1E+10	1	-1E+10	1	-1E+10	1	-1E+10	1	-1E+10	1
4902554	25	C	10/11/2021	02:08	-136.436	49.365	0	259.50	0	4.9520	0	33.8270	0	26.753	0	257.129	0	-1e10	8	-1e10	8	-1E+10	1	-1E+10	1	-1E+10	1	-1E+10	1	-1E+10	1	-1E+10	1
4902554	25	C	10/11/2021	02:08	-136.436	49.365	0	260.50	0	4.9400	0	33.8280	0	26.755	0	258.119	0	-1e10	8	-1e10	8	-1E+10	1	-1E+10	1	-1E+10	1	-1E+10	1	-1E+10	1	-1E+10	1
4902554	25	C	10/11/2021	02:08	-136.436	49.365	0	261.50	0	4.9260	0	33.8310	0	26.759	0	259.109	0	-1e10	8	-1e10	8	-1E+10	1	-1E+10	1	-1E+10	1	-1E+10	1	-1E+10	1	-1E+10	1
4902554	25	C	10/11/2021	02:08	-136.436	49.365	0	262.50	0	4.9130	0	33.8310	0	26.761	0	260.099	0	-1e10	8	-1e10	8	-1E+10	1	-1E+10	1	-1E+10	1	-1E+10	1	-1E+10	1	-1E+10	1
4902554	25	C	10/11/2021	02:08	-136.436	49.365	0	263.50	0	4.9050	0	33.8320	0	26.762	0	261.090	0	-1e10	8	-1e10	8	-1E+10	1	-1E+10	1	-1E+10	1	-1E+10	1	-1E+10	1	-1E+10	1
4902554	25	C	10/11/2021	02:08	-136.436	49.365	0	264.50	0	4.8930	0	33.8320	0	26.764	0	262.080	0	-1e10	8	-1e10	8	-1E+10	1	-1E+10	1	-1E+10	1	-1E+10	1	-1E+10	1	-1E+10	1
4902554	25	C	10/11/2021	02:08	-136.436	49.365	0	265.50	0	4.8790	0	33.8320	0	26.765	0	263.070	0	-1e10	8	-1e10	8	-1E+10	1	-1E+10	1	-1E+10	1	-1E+10	1	-1E+10	1	-1E+10	1
4902554	25	C	10/11/2021	02:08	-136.436	49.365	0	266.50	0	4.8720	0	33.8320	0	26.766	0	264.060	0	-1e10	8	-1e10	8	-1E+10	1	-1E+10	1	-1E+10	1	-1E+10	1	-1E+10	1	-1E+10	1
4902554	25	C	10/11/2021	02:08	-136.436	49.365	0	267.60	0	4.8650	0	33.8330	0	26.768	0	265.150	0	-1e10	8	-1e10	8	-1E+10	1	-1E+10	1	-1E+10	1	-1E+10	1	-1E+10	1	-1E+10	1
4902554	25	C	10/11/2021	02:08	-136.436	49.365	0	268.60	0	4.8720	0	33.8360	0	26.769	0	266.140	0	-1e10	8	-1e10	8	-1E+10	1	-1E+10	1	-1E+10	1	-1E+10	1	-1E+10	1	-1E+10	1
4902554	25	C	10/11/2021	02:08	-136.436	49.365	0	269.60	0	4.8620	0	33.8380	0	26.772	0	267.130	0	-1e10	8	-1e10	8	-1E+10	1	-1E+10	1	-1E+10	1	-1E+10	1	-1E+10	1	-1E+10	1
4902554	25	C	10/11/2021	02:08	-136.436	49.365	0	270.60	0	4.8530	0	33.8390	0	26.774	0	268.120	0	-1e10	8	-1e10	8	-1E+10	1	-1E+10	1	-1E+10	1	-1E+10	1	-1E+10	1	-1E+10	1
4902554	25	C	10/11/2021	02:08	-136.436	49.365	0	271.70	0	4.8450	0	33.8410	0	26.776	0	269.209	0	-1e10	8	-1e10	8	-1E+10	1	-1E+10	1	-1E+10	1	-1E+10	1	-1E+10	1	-1E+10	1
4902554	25	C	10/11/2021	02:08	-136.436	49.365	0	272.70	0	4.8360	0	33.8410	0	26.777	0	270.199	0	-1e10	8	-1e10	8	-1E+10	1	-1E+10	1	-1E+10	1	-1E+10	1	-1E+10	1	-1E+10	1
4902554	25	C	10/11/2021	02:08	-136.436	49.365	0	273.70	0	4.8310	0	33.8410	0	26.778	0	271.190	0	-1e10	8	-1e10	8	-1E+10	1	-1E+10	1	-1E+10	1	-1E+10	1	-1E+10	1	-1E+10	1
4902554	25	C	10/11/2021	02:08	-136.436	49.365	0	274.70	0	4.8250	0	33.8450	0	26.782	0	272.180	0	-1e10	8	-1e10	8	-1E+10	1	-1E+10	1	-1E+10	1	-1E+10	1	-1E+10	1	-1E+10	1
4902554	25	C	10/11/2021	02:08	-136.436	49.365	0	275.80	0	4.8200	0	33.8460	0	26.783	0	273.269	0	-1e10	8	-1e10	8	-1E+10	1	-1E+10	1	-1E+10	1	-1E+10	1	-1E+10	1	-1E+10	1
4902554	25	C	10/11/2021	02:08	-136.436	49.365	0	276.80	0	4.8160	0	33.8460	0	26.784	0	274.259	0	-1e10	8	-1e10	8	-1E+10	1	-1E+10	1	-1E+10	1	-1E+10	1	-1E+10	1	-1E+10	1
4902554	25	C	10/11/2021	02:08	-136.436	49.365	0	277.80	0	4.7900	0	33.8390	0	26.781	0	275.249	0	-1e10	8	-1e10	8	-1E+10	1	-1E+10	1	-1E+10	1	-1E+10	1	-1E+10	1	-1E+10	1
4902554	25	C	10/11/2021	02:08	-136.436	49.365	0	278.80	0	4.7820	0	33.8450	0	26.787	0	276.239	0	-1e10	8	-1e10	8	-1E+10	1	-1E+10	1	-1E+10	1	-1E+10	1	-1E+10	1	-1E+10	1
4902554	25	C	10/11/2021	02:08	-136.436	49.365	0	279.90	0	4.7740	0	33.8450	0	26.787	0	277.329	0	-1e10	8	-1e10	8	-1E+10	1	-1E+10	1	-1E+10	1	-1E+10	1	-1E+10	1	-1E+10	1
4902554	25	C	10/11/2021	02:08	-136.436	49.365	0	280.90	0	4.7740	0	33.8460	0	26.788	0	278.319	0	-1e10	8	-1e10	8	-1E+10	1	-1E+10	1	-1E+10	1	-1E+10	1	-1E+10	1	-1E+10	1
4902554	25	C	10/11/2021	02:08	-136.436	49.365	0	281.90	0	4.7730	0	33.8470	0	26.789	0	279.309	0	-1e10	8	-1e10	8	-1E+10	1	-1E+10	1	-1E+10	1	-1E+10	1	-1E+10	1	-1E+10	1
4902554	25	C	10/11/2021	02:08	-136.436	49.365	0	283.00	0	4.7710	0	33.8470	0	26.789	0	280.398	0	-1e10	8	-1e10	8	-1E+10	1	-1E+10	1	-1E+10	1	-1E+10	1	-1E+10	1	-1E+10	1
4902554	25	C	10/11/2021	02:08	-136.436	49.365	0	284.00	0	4.7720	0	33.8470	0	26.789	0	281.388	0	-1e10	8	-1e10	8	-1E+10	1	-1E+10	1	-1E+10	1	-1E+10	1	-1E+10	1	-1E+10	1
4902554	25	C	10/11/2021	02:08	-136.436	49.365	0	285.00	0	4.7720	0	33.8490	0	26.791	0	282.378	0	-1e10	8	-1e10	8	-1E+10	1	-1E+10	1	-1E+10	1	-1E+10	1	-1E+10	1	-1E+10	1
4902554	25	C	10/11/2021	02:08	-136.436	49.365	0	286.00	0	4.7530	0	33.8510	0	26.795	0	283.368	0	-1e10	8	-1e10	8	-1E+10	1	-1E+10	1	-1E+10	1	-1E+10	1	-1E+10	1	-1E+10	1
4902554	25	C	10/11/2021	02:08	-136.436	49.365	0	287.10	0	4.7390	0	33.8500	0	26.795	0	284.458	0	-1e10	8	-1e10	8	-1E+10	1	-1E+10	1	-1E+10	1	-1E+10	1	-1E+10	1	-1E+10	1
4902554	25	C	10/11/2021	02:08	-136.436	49.365	0	288.10	0	4.7330	0	33.8490	0	26.795	0	285.448	0	-1e10	8	-1e10	8	-1E+10	1	-1E+10	1	-1E+10	1	-1E+10	1	-1E+10	1	-1E+10	1
4902554	25	C	10/11/2021	02:08	-136.436	49.365	0	289.10	0	4.7260	0	33.8510	0	26.798	0	286.438	0	-1e10	8	-1e10	8	-1E+10	1	-1E+10	1	-1E+10	1	-1E+10	1	-1E+10	1	-1E+10	1
4902554	25	C	10/11/2021	02:08	-136.436	49.365	0	290.20	0	4.7220	0	33.8520	0	26.799	0	287.527	0	-1e10	8	-1e10	8	-1E+10	1	-1E+10	1	-1E+10	1	-1E+10	1	-1E+10	1	-1E+10	1
4902554	25	C	10/11/2021	02:08	-136.436	49.365	0	291.20	0	4.7120	0	33.8540	0	26.801	0	288.517	0	-1e10	8	-1e10	8	-1E+10	1	-1E+10	1	-1E+10	1	-1E+10	1	-1E+10	1	-1E+10	1
4902554	25	C	10/11/2021	02:08	-136.436	49.365	0	292.30	0	4.7110	0	33.8540	0	26.802	0	289.606	0	-1e10	8	-1e10	8	-1E+10	1	-1E+10	1	-1E+10	1	-1E+10	1	-1E+10	1	-1E+10	1
4902554	25	C	10/11/2021	02:08	-136.436	49.365	0	293.30	0	4.7070	0	33.8560	0	26.804	0	290.596	0	-1e10	8	-1e10	8	-1E+10	1	-1E+10	1	-1E+10	1	-1E+10	1	-1E+10	1	-1E+10	1
4902554	25	C	10/11/2021	02:08	-136.436	49.365	0	294.40	0	4.7040	0	33.8560	0	26.804	0	291.685	0	-1e10	8	-1e10	8	-1E+10	1	-1E+10	1	-1E+10	1	-1E+10	1	-1E+10	1	-1E+10	1
4902554	25	C	10/11/2021	02:08	-136.436	49.365	0	295.50	0	4.7010	0	33.8570	0	26.805	0	292.774	0	-1e10	8	-1e10	8	-1E+10	1	-1E+10	1	-1E+10	1	-1E+10	1	-1E+10	1	-1E+10	1
4902554	25	C	10/11/2021	02:08	-136.436	49.365	0	296.60	0	4.6980	0	33.8590	0	26.807	0	293.863	0	-1e10	8	-1e10	8	-1E+10	1	-1E+10	1	-1E+10	1	-1E+10	1	-1E+10	1	-1E+10	1
4902554	25	C	10/11/2021	02:08	-136.436	49.365	0	297.60	0	4.6940	0	33.8590	0	26.807	0	294.853	0	-1e10	8	-1e10	8	-1E+10	1	-1E+10	1	-1E+10	1	-1E+10	1	-1E+10	1	-1E+10	1
4902554	25	C	10/11/2021	02:08	-136.436	49.365	0	298.70	0	4.6940	0	33.8620	0	26.810	0	295.943	0	-1e10	8	-1e10	8	-1E+10	1	-1E+10	1	-1E+10	1	-1E+10	1	-1E+10	1	-1E+10	1
4902554	25	C	10/11/2021	02:08	-136.436	49.365	0	299.70	0	4.6900	0	33.8640	0	26.812	0	296.933	0	-1e10	8	-1e10	8	-1E+10	1	-1E+10	1	-1E+10	1	-1E+10	1	-1E+10	1	-1E+10	1
4902554	25	C	10/11/2021	02:08	-136.436	49.365	0	300.80	0	4.6860	0	33.8660	0	26.814	0	298.022	0	-1e10	8	-1e10	8	-1E+10	1	-1E+10	1	-1E+10	1	-1E+10	1	-1E+10	1	-1E+10	1
4902554	25	C	10/11/2021	02:08	-136.436	49.365	0	301.90	0	4.6850	0	33.8670	0	26.815	0	299.111	0	-1e10	8	-1e10	8	-1E+10	1	-1E+10	1	-1E+10	1	-1E+10	1	-1E+10	1	-1E+10	1
4902554	25	C	10/11/2021	02:08	-136.436	49.365	0	302.90	0	4.6840	0	33.8670	0	26.815	0	300.101	0	-1e10	8	-1e10	8	-1E+10	1	-1E+10	1	-1E+10	1	-1E+10	1	-1E+10	1	-1E+10	1
4902554	25	C	10/11/2021	02:08	-136.436	49.365	0	304.00	0	4.6840	0	33.8670	0	26.815	0	301.190	0	-1e10	8	-1e10	8	-1E+10	1	-1E+10	1	-1E+10	1	-1E+10	1	-1E+10	1	-1E+10	1
4902554	25	C	10/11/2021	02:08	-136.436	49.365	0	305.10	0	4.6840	0	33.8670	0	26.815	0	302.279	0	-1e10	8	-1e10	8	-1E+10	1	-1E+10	1	-1E+10	1	-1E+10	1	-1E+10	1	-1E+10	1
4902554	25	C	10/11/2021	02:08	-136.436	49.365	0	306.10	0	4.6830	0	33.8670	0	26.815	0	303.269	0	-1e10	8	-1e10	8	-1E+10	1	-1E+10	1	-1E+10	1	-1E+10	1	-1E+10	1	-1E+10	1
4902554	25	C	10/11/2021	02:08	-136.436	49.365	0	307.20	0	4.6830	0	33.8680	0	26.816	0	304.358	0	-1e10	8	-1e10	8	-1E+10	1	-1E+10	1	-1E+10	1	-1E+10	1	-1E+10	1	-1E+10	1
4902554	25	C	10/11/2021	02:08	-136.436	49.365	0	308.30	0	4.6830	0	33.8690	0	26.817	0	305.447	0	-1e10	8	-1e10	8	-1E+10	1	-1E+10	1	-1E+10	1	-1E+10	1	-1E+10	1	-1E+10	1
4902554	25	C	10/11/2021	02:08	-136.436	49.365	0	309.30	0	4.6780	0	33.8700	0	26.818	0	306.437	0	-1e10	8	-1e10	8	-1E+10	1	-1E+10	1	-1E+10	1	-1E+10	1	-1E+10	1	-1E+10	1
4902554	25	C	10/11/2021	02:08	-136.436	49.365	0	310.40	0	4.6720	0	33.8710	0	26.820	0	307.526	0	-1e10	8	-1e10	8	-1E+10	1	-1E+10	1	-1E+10	1	-1E+10	1	-1E+10	1	-1E+10	1
4902554	25	C	10/11/2021	02:08	-136.436	49.365	0	311.40	0	4.6680	0	33.8720	0	26.821	0	308.516	0	-1e10	8	-1e10	8	-1E+10	1	-1E+10	1	-1E+10	1	-1E+10	1	-1E+10	1	-1E+10	1
4902554	25	C	10/11/2021	02:08	-136.436	49.365	0	312.50	0	4.6600	0	33.8750	0	26.824	0	309.605	0	-1e10	8	-1e10	8	-1E+10	1	-1E+10	1	-1E+10	1	-1E+10	1	-1E+10	1	-1E+10	1
4902554	25	C	10/11/2021	02:08	-136.436	49.365	0	313.60	0	4.6540	0	33.8760	0	26.825	0	310.694	0	-1e10	8	-1e10	8	-1E+10	1	-1E+10	1	-1E+10	1	-1E+10	1	-1E+10	1	-1E+10	1
4902554	25	C	10/11/2021	02:08	-136.436	49.365	0	314.60	0	4.6530	0	33.8770	0	26.826	0	311.684	0	-1e10	8	-1e10	8	-1E+10	1	-1E+10	1	-1E+10	1	-1E+10	1	-1E+10	1	-1E+10	1
4902554	25	C	10/11/2021	02:08	-136.436	49.365	0	315.60	0	4.6470	0	33.8770	0	26.827	0	312.674	0	-1e10	8	-1e10	8	-1E+10	1	-1E+10	1	-1E+10	1	-1E+10	1	-1E+10	1	-1E+10	1
4902554	25	C	10/11/2021	02:08	-136.436	49.365	0	316.70	0	4.6450	0	33.8770	0	26.827	0	313.763	0	-1e10	8	-1e10	8	-1E+10	1	-1E+10	1	-1E+10	1	-1E+10	1	-1E+10	1	-1E+10	1
4902554	25	C	10/11/2021	02:08	-136.436	49.365	0	317.70	0	4.6410	0	33.8790	0	26.829	0	314.753	0	-1e10	8	-1e10	8	-1E+10	1	-1E+10	1	-1E+10	1	-1E+10	1	-1E+10	1	-1E+10	1
4902554	25	C	10/11/2021	02:08	-136.436	49.365	0	318.70	0	4.6360	0	33.8800	0	26.831	0	315.743	0	-1e10	8	-1e10	8	-1E+10	1	-1E+10	1	-1E+10	1	-1E+10	1	-1E+10	1	-1E+10	1
4902554	25	C	10/11/2021	02:08	-136.436	49.365	0	319.70	0	4.6300	0	33.8810	0	26.832	0	316.733	0	-1e10	8	-1e10	8	-1E+10	1	-1E+10	1	-1E+10	1	-1E+10	1	-1E+10	1	-1E+10	1
4902554	25	C	10/11/2021	02:08	-136.436	49.365	0	320.70	0	4.6280	0	33.8810	0	26.832	0	317.723	0	-1e10	8	-1e10	8	-1E+10	1	-1E+10	1	-1E+10	1	-1E+10	1	-1E+10	1	-1E+10	1
4902554	25	C	10/11/2021	02:08	-136.436	49.365	0	321.80	0	4.6250	0	33.8810	0	26.833	0	318.811	0	-1e10	8	-1e10	8	-1E+10	1	-1E+10	1	-1E+10	1	-1E+10	1	-1E+10	1	-1E+10	1
4902554	25	C	10/11/2021	02:08	-136.436	49.365	0	323.00	0	4.6230	0	33.8820	0	26.834	0	319.999	0	-1e10	8	-1e10	8	-1E+10	1	-1E+10	1	-1E+10	1	-1E+10	1	-1E+10	1	-1E+10	1
4902554	25	C	10/11/2021	02:08	-136.436	49.365	0	323.80	0	4.6200	0	33.8820	0	26.834	0	320.791	0	-1e10	8	-1e10	8	-1E+10	1	-1E+10	1	-1E+10	1	-1E+10	1	-1E+10	1	-1E+10	1
4902554	25	C	10/11/2021	02:08	-136.436	49.365	0	325.00	0	4.6170	0	33.8830	0	26.835	0	321.979	0	-1e10	8	-1e10	8	-1E+10	1	-1E+10	1	-1E+10	1	-1E+10	1	-1E+10	1	-1E+10	1
4902554	25	C	10/11/2021	02:08	-136.436	49.365	0	326.20	0	4.6090	0	33.8850	0	26.838	0	323.167	0	-1e10	8	-1e10	8	-1E+10	1	-1E+10	1	-1E+10	1	-1E+10	1	-1E+10	1	-1E+10	1
4902554	25	C	10/11/2021	02:08	-136.436	49.365	0	326.90	0	4.6070	0	33.8860	0	26.839	0	323.860	0	-1e10	8	-1e10	8	-1E+10	1	-1E+10	1	-1E+10	1	-1E+10	1	-1E+10	1	-1E+10	1
4902554	25	C	10/11/2021	02:08	-136.436	49.365	0	327.70	0	4.6050	0	33.8870	0	26.840	0	324.652	0	-1e10	8	-1e10	8	-1E+10	1	-1E+10	1	-1E+10	1	-1E+10	1	-1E+10	1	-1E+10	1
4902554	25	C	10/11/2021	02:08	-136.436	49.365	0	328.90	0	4.6030	0	33.8880	0	26.841	0	325.840	0	-1e10	8	-1e10	8	-1E+10	1	-1E+10	1	-1E+10	1	-1E+10	1	-1E+10	1	-1E+10	1
4902554	25	C	10/11/2021	02:08	-136.436	49.365	0	330.20	0	4.6020	0	33.8930	0	26.845	0	327.127	0	-1e10	8	-1e10	8	-1E+10	1	-1E+10	1	-1E+10	1	-1E+10	1	-1E+10	1	-1E+10	1
4902554	25	C	10/11/2021	02:08	-136.436	49.365	0	330.90	0	4.5960	0	33.8950	0	26.847	0	327.820	0	-1e10	8	-1e10	8	-1E+10	1	-1E+10	1	-1E+10	1	-1E+10	1	-1E+10	1	-1E+10	1
4902554	25	C	10/11/2021	02:08	-136.436	49.365	0	331.80	0	4.5920	0	33.8960	0	26.848	0	328.711	0	-1e10	8	-1e10	8	-1E+10	1	-1E+10	1	-1E+10	1	-1E+10	1	-1E+10	1	-1E+10	1
4902554	25	C	10/11/2021	02:08	-136.436	49.365	0	333.00	0	4.5860	0	33.8980	0	26.851	0	329.899	0	-1e10	8	-1e10	8	-1E+10	1	-1E+10	1	-1E+10	1	-1E+10	1	-1E+10	1	-1E+10	1
4902554	25	C	10/11/2021	02:08	-136.436	49.365	0	334.20	0	4.5810	0	33.8980	0	26.851	0	331.086	0	-1e10	8	-1e10	8	-1E+10	1	-1E+10	1	-1E+10	1	-1E+10	1	-1E+10	1	-1E+10	1
4902554	25	C	10/11/2021	02:08	-136.436	49.365	0	335.00	0	4.5790	0	33.9000	0	26.853	0	331.878	0	-1e10	8	-1e10	8	-1E+10	1	-1E+10	1	-1E+10	1	-1E+10	1	-1E+10	1	-1E+10	1
4902554	25	C	10/11/2021	02:08	-136.436	49.365	0	335.80	0	4.5760	0	33.9010	0	26.854	0	332.670	0	-1e10	8	-1e10	8	-1E+10	1	-1E+10	1	-1E+10	1	-1E+10	1	-1E+10	1	-1E+10	1
4902554	25	C	10/11/2021	02:08	-136.436	49.365	0	337.00	0	4.5730	0	33.9030	0	26.856	0	333.858	0	-1e10	8	-1e10	8	-1E+10	1	-1E+10	1	-1E+10	1	-1E+10	1	-1E+10	1	-1E+10	1
4902554	25	C	10/11/2021	02:08	-136.436	49.365	0	338.20	0	4.5720	0	33.9050	0	26.858	0	335.046	0	-1e10	8	-1e10	8	-1E+10	1	-1E+10	1	-1E+10	1	-1E+10	1	-1E+10	1	-1E+10	1
4902554	25	C	10/11/2021	02:08	-136.436	49.365	0	339.00	0	4.5680	0	33.9070	0	26.860	0	335.838	0	-1e10	8	-1e10	8	-1E+10	1	-1E+10	1	-1E+10	1	-1E+10	1	-1E+10	1	-1E+10	1
4902554	25	C	10/11/2021	02:08	-136.436	49.365	0	339.80	0	4.5680	0	33.9070	0	26.860	0	336.630	0	-1e10	8	-1e10	8	-1E+10	1	-1E+10	1	-1E+10	1	-1E+10	1	-1E+10	1	-1E+10	1
4902554	25	C	10/11/2021	02:08	-136.436	49.365	0	341.00	0	4.5650	0	33.9070	0	26.860	0	337.818	0	-1e10	8	-1e10	8	-1E+10	1	-1E+10	1	-1E+10	1	-1E+10	1	-1E+10	1	-1E+10	1
4902554	25	C	10/11/2021	02:08	-136.436	49.365	0	342.20	0	4.5640	0	33.9070	0	26.860	0	339.005	0	-1e10	8	-1e10	8	-1E+10	1	-1E+10	1	-1E+10	1	-1E+10	1	-1E+10	1	-1E+10	1
4902554	25	C	10/11/2021	02:08	-136.436	49.365	0	343.00	0	4.5640	0	33.9080	0	26.861	0	339.797	0	-1e10	8	-1e10	8	-1E+10	1	-1E+10	1	-1E+10	1	-1E+10	1	-1E+10	1	-1E+10	1
4902554	25	C	10/11/2021	02:08	-136.436	49.365	0	343.80	0	4.5630	0	33.9090	0	26.862	0	340.589	0	-1e10	8	-1e10	8	-1E+10	1	-1E+10	1	-1E+10	1	-1E+10	1	-1E+10	1	-1E+10	1
4902554	25	C	10/11/2021	02:08	-136.436	49.365	0	344.70	0	4.5610	0	33.9090	0	26.862	0	341.480	0	-1e10	8	-1e10	8	-1E+10	1	-1E+10	1	-1E+10	1	-1E+10	1	-1E+10	1	-1E+10	1
4902554	25	C	10/11/2021	02:08	-136.436	49.365	0	345.90	0	4.5570	0	33.9110	0	26.864	0	342.668	0	-1e10	8	-1e10	8	-1E+10	1	-1E+10	1	-1E+10	1	-1E+10	1	-1E+10	1	-1E+10	1
4902554	25	C	10/11/2021	02:08	-136.436	49.365	0	347.10	0	4.5550	0	33.9130	0	26.866	0	343.856	0	-1e10	8	-1e10	8	-1E+10	1	-1E+10	1	-1E+10	1	-1E+10	1	-1E+10	1	-1E+10	1
4902554	25	C	10/11/2021	02:08	-136.436	49.365	0	348.00	0	4.5520	0	33.9150	0	26.868	0	344.746	0	-1e10	8	-1e10	8	-1E+10	1	-1E+10	1	-1E+10	1	-1E+10	1	-1E+10	1	-1E+10	1
4902554	25	C	10/11/2021	02:08	-136.436	49.365	0	348.80	0	4.5510	0	33.9160	0	26.869	0	345.538	0	-1e10	8	-1e10	8	-1E+10	1	-1E+10	1	-1E+10	1	-1E+10	1	-1E+10	1	-1E+10	1
4902554	25	C	10/11/2021	02:08	-136.436	49.365	0	349.70	0	4.5510	0	33.9170	0	26.870	0	346.429	0	-1e10	8	-1e10	8	-1E+10	1	-1E+10	1	-1E+10	1	-1E+10	1	-1E+10	1	-1E+10	1
4902554	25	C	10/11/2021	02:08	-136.436	49.365	0	352.50	0	4.5460	0	33.9230	0	26.875	0	349.201	0	-1e10	8	-1e10	8	-1E+10	1	-1E+10	1	-1E+10	1	-1E+10	1	-1E+10	1	-1E+10	1
4902554	25	C	10/11/2021	02:08	-136.436	49.365	0	357.50	0	4.5350	0	33.9290	0	26.881	0	354.149	0	-1e10	8	-1e10	8	-1E+10	1	-1E+10	1	-1E+10	1	-1E+10	1	-1E+10	1	-1E+10	1
4902554	25	C	10/11/2021	02:08	-136.436	49.365	0	362.60	0	4.5230	0	33.9340	0	26.886	0	359.197	0	-1e10	8	-1e10	8	-1E+10	1	-1E+10	1	-1E+10	1	-1E+10	1	-1E+10	1	-1E+10	1
4902554	25	C	10/11/2021	02:08	-136.436	49.365	0	367.60	0	4.5050	0	33.9430	0	26.895	0	364.146	0	-1e10	8	-1e10	8	-1E+10	1	-1E+10	1	-1E+10	1	-1E+10	1	-1E+10	1	-1E+10	1
4902554	25	C	10/11/2021	02:08	-136.436	49.365	0	372.60	0	4.4940	0	33.9510	0	26.903	0	369.094	0	-1e10	8	-1e10	8	-1E+10	1	-1E+10	1	-1E+10	1	-1E+10	1	-1E+10	1	-1E+10	1
4902554	25	C	10/11/2021	02:08	-136.436	49.365	0	377.60	0	4.4870	0	33.9560	0	26.908	0	374.043	0	-1e10	8	-1e10	8	-1E+10	1	-1E+10	1	-1E+10	1	-1E+10	1	-1E+10	1	-1E+10	1
4902554	25	C	10/11/2021	02:08	-136.436	49.365	0	382.70	0	4.4820	0	33.9580	0	26.910	0	379.090	0	-1e10	8	-1e10	8	-1E+10	1	-1E+10	1	-1E+10	1	-1E+10	1	-1E+10	1	-1E+10	1
4902554	25	C	10/11/2021	02:08	-136.436	49.365	0	387.80	0	4.4630	0	33.9660	0	26.918	0	384.137	0	-1e10	8	-1e10	8	-1E+10	1	-1E+10	1	-1E+10	1	-1E+10	1	-1E+10	1	-1E+10	1
4902554	25	C	10/11/2021	02:08	-136.436	49.365	0	393.00	0	4.4520	0	33.9720	0	26.924	0	389.283	0	-1e10	8	-1e10	8	-1E+10	1	-1E+10	1	-1E+10	1	-1E+10	1	-1E+10	1	-1E+10	1
4902554	25	C	10/11/2021	02:08	-136.436	49.365	0	398.10	0	4.4440	0	33.9750	0	26.927	0	394.330	0	-1e10	8	-1e10	8	-1E+10	1	-1E+10	1	-1E+10	1	-1E+10	1	-1E+10	1	-1E+10	1
4902554	25	C	10/11/2021	02:08	-136.436	49.365	0	402.90	0	4.4290	0	33.9820	0	26.935	0	399.080	0	-1e10	8	-1e10	8	-1E+10	1	-1E+10	1	-1E+10	1	-1E+10	1	-1E+10	1	-1E+10	1
4902554	25	C	10/11/2021	02:08	-136.436	49.365	0	407.70	0	4.4140	0	33.9880	0	26.941	0	403.830	0	-1e10	8	-1e10	8	-1E+10	1	-1E+10	1	-1E+10	1	-1E+10	1	-1E+10	1	-1E+10	1
4902554	25	C	10/11/2021	02:08	-136.436	49.365	0	412.80	0	4.4050	0	33.9910	0	26.944	0	408.877	0	-1e10	8	-1e10	8	-1E+10	1	-1E+10	1	-1E+10	1	-1E+10	1	-1E+10	1	-1E+10	1
4902554	25	C	10/11/2021	02:08	-136.436	49.365	0	418.00	0	4.3980	0	33.9940	0	26.948	0	414.022	0	-1e10	8	-1e10	8	-1E+10	1	-1E+10	1	-1E+10	1	-1E+10	1	-1E+10	1	-1E+10	1
4902554	25	C	10/11/2021	02:08	-136.436	49.365	0	422.90	0	4.3880	0	33.9980	0	26.952	0	418.870	0	-1e10	8	-1e10	8	-1E+10	1	-1E+10	1	-1E+10	1	-1E+10	1	-1E+10	1	-1E+10	1
4902554	25	C	10/11/2021	02:08	-136.436	49.365	0	427.80	0	4.3710	0	34.0050	0	26.959	0	423.719	0	-1e10	8	-1e10	8	-1E+10	1	-1E+10	1	-1E+10	1	-1E+10	1	-1E+10	1	-1E+10	1
4902554	25	C	10/11/2021	02:08	-136.436	49.365	0	432.70	0	4.3530	0	34.0120	0	26.967	0	428.567	0	-1e10	8	-1e10	8	-1E+10	1	-1E+10	1	-1E+10	1	-1E+10	1	-1E+10	1	-1E+10	1
4902554	25	C	10/11/2021	02:08	-136.436	49.365	0	437.70	0	4.3270	0	34.0170	0	26.974	0	433.514	0	-1e10	8	-1e10	8	-1E+10	1	-1E+10	1	-1E+10	1	-1E+10	1	-1E+10	1	-1E+10	1
4902554	25	C	10/11/2021	02:08	-136.436	49.365	0	443.00	0	4.3050	0	34.0200	0	26.978	0	438.758	0	-1e10	8	-1e10	8	-1E+10	1	-1E+10	1	-1E+10	1	-1E+10	1	-1E+10	1	-1E+10	1
4902554	25	C	10/11/2021	02:08	-136.436	49.365	0	447.80	0	4.2930	0	34.0260	0	26.984	0	443.507	0	-1e10	8	-1e10	8	-1E+10	1	-1E+10	1	-1E+10	1	-1E+10	1	-1E+10	1	-1E+10	1
4902554	25	C	10/11/2021	02:08	-136.436	49.365	0	452.70	0	4.2740	0	34.0270	0	26.987	0	448.354	0	-1e10	8	-1e10	8	-1E+10	1	-1E+10	1	-1E+10	1	-1E+10	1	-1E+10	1	-1E+10	1
4902554	25	C	10/11/2021	02:08	-136.436	49.365	0	457.70	0	4.2530	0	34.0310	0	26.993	0	453.301	0	-1e10	8	-1e10	8	-1E+10	1	-1E+10	1	-1E+10	1	-1E+10	1	-1E+10	1	-1E+10	1
4902554	25	C	10/11/2021	02:08	-136.436	49.365	0	462.80	0	4.2360	0	34.0360	0	26.998	0	458.346	0	-1e10	8	-1e10	8	-1E+10	1	-1E+10	1	-1E+10	1	-1E+10	1	-1E+10	1	-1E+10	1
4902554	25	C	10/11/2021	02:08	-136.436	49.365	0	468.00	0	4.2290	0	34.0390	0	27.002	0	463.490	0	-1e10	8	-1e10	8	-1E+10	1	-1E+10	1	-1E+10	1	-1E+10	1	-1E+10	1	-1E+10	1
4902554	25	C	10/11/2021	02:08	-136.436	49.365	0	472.80	0	4.2190	0	34.0430	0	27.006	0	468.239	0	-1e10	8	-1e10	8	-1E+10	1	-1E+10	1	-1E+10	1	-1E+10	1	-1E+10	1	-1E+10	1
4902554	25	C	10/11/2021	02:08	-136.436	49.365	0	478.00	0	4.2040	0	34.0510	0	27.014	0	473.383	0	-1e10	8	-1e10	8	-1E+10	1	-1E+10	1	-1E+10	1	-1E+10	1	-1E+10	1	-1E+10	1
4902554	25	C	10/11/2021	02:08	-136.436	49.365	0	483.20	0	4.1810	0	34.0600	0	27.023	0	478.526	0	-1e10	8	-1e10	8	-1E+10	1	-1E+10	1	-1E+10	1	-1E+10	1	-1E+10	1	-1E+10	1
4902554	25	C	10/11/2021	02:08	-136.436	49.365	0	488.10	0	4.1710	0	34.0640	0	27.028	0	483.373	0	-1e10	8	-1e10	8	-1E+10	1	-1E+10	1	-1E+10	1	-1E+10	1	-1E+10	1	-1E+10	1
4902554	25	C	10/11/2021	02:08	-136.436	49.365	0	493.00	0	4.1620	0	34.0670	0	27.031	0	488.220	0	-1e10	8	-1e10	8	-1E+10	1	-1E+10	1	-1E+10	1	-1E+10	1	-1E+10	1	-1E+10	1
4902554	25	C	10/11/2021	02:08	-136.436	49.365	0	498.10	0	4.1500	0	34.0720	0	27.036	0	493.265	0	-1e10	8	-1e10	8	-1E+10	1	-1E+10	1	-1E+10	1	-1E+10	1	-1E+10	1	-1E+10	1
4902554	25	C	10/11/2021	02:08	-136.436	49.365	0	503.20	0	4.1360	0	34.0770	0	27.042	0	498.309	0	-1e10	8	-1e10	8	-1E+10	1	-1E+10	1	-1E+10	1	-1E+10	1	-1E+10	1	-1E+10	1
4902554	25	C	10/11/2021	02:08	-136.436	49.365	0	508.00	0	4.1240	0	34.0830	0	27.048	0	503.057	0	-1e10	8	-1e10	8	-1E+10	1	-1E+10	1	-1E+10	1	-1E+10	1	-1E+10	1	-1E+10	1
4902554	25	C	10/11/2021	02:08	-136.436	49.365	0	512.80	0	4.1210	0	34.0880	0	27.052	0	507.804	0	-1e10	8	-1e10	8	-1E+10	1	-1E+10	1	-1E+10	1	-1E+10	1	-1E+10	1	-1E+10	1
4902554	25	C	10/11/2021	02:08	-136.436	49.365	0	518.10	0	4.1150	0	34.0910	0	27.055	0	513.046	0	-1e10	8	-1e10	8	-1E+10	1	-1E+10	1	-1E+10	1	-1E+10	1	-1E+10	1	-1E+10	1
4902554	25	C	10/11/2021	02:08	-136.436	49.365	0	523.00	0	4.0990	0	34.0950	0	27.060	0	517.892	0	-1e10	8	-1e10	8	-1E+10	1	-1E+10	1	-1E+10	1	-1E+10	1	-1E+10	1	-1E+10	1
4902554	25	C	10/11/2021	02:08	-136.436	49.365	0	527.90	0	4.0890	0	34.0960	0	27.062	0	522.738	0	-1e10	8	-1e10	8	-1E+10	1	-1E+10	1	-1E+10	1	-1E+10	1	-1E+10	1	-1E+10	1
4902554	25	C	10/11/2021	02:08	-136.436	49.365	0	532.90	0	4.0790	0	34.0990	0	27.065	0	527.683	0	-1e10	8	-1e10	8	-1E+10	1	-1E+10	1	-1E+10	1	-1E+10	1	-1E+10	1	-1E+10	1
4902554	25	C	10/11/2021	02:08	-136.436	49.365	0	537.80	0	4.0730	0	34.1050	0	27.071	0	532.528	0	-1e10	8	-1e10	8	-1E+10	1	-1E+10	1	-1E+10	1	-1E+10	1	-1E+10	1	-1E+10	1
4902554	25	C	10/11/2021	02:08	-136.436	49.365	0	542.80	0	4.0650	0	34.1090	0	27.075	0	537.473	0	-1e10	8	-1e10	8	-1E+10	1	-1E+10	1	-1E+10	1	-1E+10	1	-1E+10	1	-1E+10	1
4902554	25	C	10/11/2021	02:08	-136.436	49.365	0	547.80	0	4.0560	0	34.1110	0	27.077	0	542.417	0	-1e10	8	-1e10	8	-1E+10	1	-1E+10	1	-1E+10	1	-1E+10	1	-1E+10	1	-1E+10	1
4902554	25	C	10/11/2021	02:08	-136.436	49.365	0	552.80	0	4.0420	0	34.1160	0	27.083	0	547.362	0	-1e10	8	-1e10	8	-1E+10	1	-1E+10	1	-1E+10	1	-1E+10	1	-1E+10	1	-1E+10	1
4902554	25	C	10/11/2021	02:08	-136.436	49.365	0	557.80	0	4.0360	0	34.1190	0	27.086	0	552.306	0	-1e10	8	-1e10	8	-1E+10	1	-1E+10	1	-1E+10	1	-1E+10	1	-1E+10	1	-1E+10	1
4902554	25	C	10/11/2021	02:08	-136.436	49.365	0	563.10	0	4.0260	0	34.1220	0	27.089	0	557.547	0	-1e10	8	-1e10	8	-1E+10	1	-1E+10	1	-1E+10	1	-1E+10	1	-1E+10	1	-1E+10	1
4902554	25	C	10/11/2021	02:08	-136.436	49.365	0	568.10	0	4.0180	0	34.1280	0	27.095	0	562.490	0	-1e10	8	-1e10	8	-1E+10	1	-1E+10	1	-1E+10	1	-1E+10	1	-1E+10	1	-1E+10	1
4902554	25	C	10/11/2021	02:08	-136.436	49.365	0	572.90	0	4.0120	0	34.1310	0	27.098	0	567.237	0	-1e10	8	-1e10	8	-1E+10	1	-1E+10	1	-1E+10	1	-1E+10	1	-1E+10	1	-1E+10	1
4902554	25	C	10/11/2021	02:08	-136.436	49.365	0	578.20	0	4.0090	0	34.1360	0	27.102	0	572.477	0	-1e10	8	-1e10	8	-1E+10	1	-1E+10	1	-1E+10	1	-1E+10	1	-1E+10	1	-1E+10	1
4902554	25	C	10/11/2021	02:08	-136.436	49.365	0	583.00	0	4.0010	0	34.1420	0	27.108	0	577.223	0	-1e10	8	-1e10	8	-1E+10	1	-1E+10	1	-1E+10	1	-1E+10	1	-1E+10	1	-1E+10	1
4902554	25	C	10/11/2021	02:08	-136.436	49.365	0	587.70	0	3.9920	0	34.1440	0	27.110	0	581.870	0	-1e10	8	-1e10	8	-1E+10	1	-1E+10	1	-1E+10	1	-1E+10	1	-1E+10	1	-1E+10	1
4902554	25	C	10/11/2021	02:08	-136.436	49.365	0	592.90	0	3.9560	0	34.1490	0	27.118	0	587.011	0	-1e10	8	-1e10	8	-1E+10	1	-1E+10	1	-1E+10	1	-1E+10	1	-1E+10	1	-1E+10	1
4902554	25	C	10/11/2021	02:08	-136.436	49.365	0	598.10	0	3.9420	0	34.1530	0	27.123	0	592.152	0	-1e10	8	-1e10	8	-1E+10	1	-1E+10	1	-1E+10	1	-1E+10	1	-1E+10	1	-1E+10	1
4902554	25	C	10/11/2021	02:08	-136.436	49.365	0	602.90	0	3.9290	0	34.1570	0	27.127	0	596.897	0	-1e10	8	-1e10	8	-1E+10	1	-1E+10	1	-1E+10	1	-1E+10	1	-1E+10	1	-1E+10	1
4902554	25	C	10/11/2021	02:08	-136.436	49.365	0	607.80	0	3.9160	0	34.1620	0	27.133	0	601.741	0	-1e10	8	-1e10	8	-1E+10	1	-1E+10	1	-1E+10	1	-1E+10	1	-1E+10	1	-1E+10	1
4902554	25	C	10/11/2021	02:08	-136.436	49.365	0	612.80	0	3.9000	0	34.1660	0	27.137	0	606.684	0	-1e10	8	-1e10	8	-1E+10	1	-1E+10	1	-1E+10	1	-1E+10	1	-1E+10	1	-1E+10	1
4902554	25	C	10/11/2021	02:08	-136.436	49.365	0	617.90	0	3.8890	0	34.1690	0	27.141	0	611.726	0	-1e10	8	-1e10	8	-1E+10	1	-1E+10	1	-1E+10	1	-1E+10	1	-1E+10	1	-1E+10	1
4902554	25	C	10/11/2021	02:08	-136.436	49.365	0	623.00	0	3.8790	0	34.1720	0	27.144	0	616.767	0	-1e10	8	-1e10	8	-1E+10	1	-1E+10	1	-1E+10	1	-1E+10	1	-1E+10	1	-1E+10	1
4902554	25	C	10/11/2021	02:08	-136.436	49.365	0	627.80	0	3.8640	0	34.1770	0	27.150	0	621.512	0	-1e10	8	-1e10	8	-1E+10	1	-1E+10	1	-1E+10	1	-1E+10	1	-1E+10	1	-1E+10	1
4902554	25	C	10/11/2021	02:08	-136.436	49.365	0	632.70	0	3.8500	0	34.1820	0	27.155	0	626.355	0	-1e10	8	-1e10	8	-1E+10	1	-1E+10	1	-1E+10	1	-1E+10	1	-1E+10	1	-1E+10	1
4902554	25	C	10/11/2021	02:08	-136.436	49.365	0	638.00	0	3.8390	0	34.1860	0	27.160	0	631.594	0	-1e10	8	-1e10	8	-1E+10	1	-1E+10	1	-1E+10	1	-1E+10	1	-1E+10	1	-1E+10	1
4902554	25	C	10/11/2021	02:08	-136.436	49.365	0	643.10	0	3.8290	0	34.1880	0	27.162	0	636.635	0	-1e10	8	-1e10	8	-1E+10	1	-1E+10	1	-1E+10	1	-1E+10	1	-1E+10	1	-1E+10	1
4902554	25	C	10/11/2021	02:08	-136.436	49.365	0	648.00	0	3.8170	0	34.1910	0	27.166	0	641.478	0	-1e10	8	-1e10	8	-1E+10	1	-1E+10	1	-1E+10	1	-1E+10	1	-1E+10	1	-1E+10	1
4902554	25	C	10/11/2021	02:08	-136.436	49.365	0	653.00	0	3.8130	0	34.1930	0	27.168	0	646.420	0	-1e10	8	-1e10	8	-1E+10	1	-1E+10	1	-1E+10	1	-1E+10	1	-1E+10	1	-1E+10	1
4902554	25	C	10/11/2021	02:08	-136.436	49.365	0	658.20	0	3.8080	0	34.1940	0	27.169	0	651.560	0	-1e10	8	-1e10	8	-1E+10	1	-1E+10	1	-1E+10	1	-1E+10	1	-1E+10	1	-1E+10	1
4902554	25	C	10/11/2021	02:08	-136.436	49.365	0	663.00	0	3.7970	0	34.1980	0	27.174	0	656.304	0	-1e10	8	-1e10	8	-1E+10	1	-1E+10	1	-1E+10	1	-1E+10	1	-1E+10	1	-1E+10	1
4902554	25	C	10/11/2021	02:08	-136.436	49.365	0	667.80	0	3.7820	0	34.2030	0	27.179	0	661.048	0	-1e10	8	-1e10	8	-1E+10	1	-1E+10	1	-1E+10	1	-1E+10	1	-1E+10	1	-1E+10	1
4902554	25	C	10/11/2021	02:08	-136.436	49.365	0	672.90	0	3.7730	0	34.2050	0	27.182	0	666.088	0	-1e10	8	-1e10	8	-1E+10	1	-1E+10	1	-1E+10	1	-1E+10	1	-1E+10	1	-1E+10	1
4902554	25	C	10/11/2021	02:08	-136.436	49.365	0	678.00	0	3.7600	0	34.2080	0	27.185	0	671.128	0	-1e10	8	-1e10	8	-1E+10	1	-1E+10	1	-1E+10	1	-1E+10	1	-1E+10	1	-1E+10	1
4902554	25	C	10/11/2021	02:08	-136.436	49.365	0	682.80	0	3.7510	0	34.2100	0	27.188	0	675.872	0	-1e10	8	-1e10	8	-1E+10	1	-1E+10	1	-1E+10	1	-1E+10	1	-1E+10	1	-1E+10	1
4902554	25	C	10/11/2021	02:08	-136.436	49.365	0	687.70	0	3.7410	0	34.2130	0	27.191	0	680.714	0	-1e10	8	-1e10	8	-1E+10	1	-1E+10	1	-1E+10	1	-1E+10	1	-1E+10	1	-1E+10	1
4902554	25	C	10/11/2021	02:08	-136.436	49.365	0	693.00	0	3.7250	0	34.2160	0	27.195	0	685.952	0	-1e10	8	-1e10	8	-1E+10	1	-1E+10	1	-1E+10	1	-1E+10	1	-1E+10	1	-1E+10	1
4902554	25	C	10/11/2021	02:08	-136.436	49.365	0	698.00	0	3.7150	0	34.2180	0	27.198	0	690.892	0	-1e10	8	-1e10	8	-1E+10	1	-1E+10	1	-1E+10	1	-1E+10	1	-1E+10	1	-1E+10	1
4902554	25	C	10/11/2021	02:08	-136.436	49.365	0	703.00	0	3.7030	0	34.2210	0	27.201	0	695.833	0	-1e10	8	-1e10	8	-1E+10	1	-1E+10	1	-1E+10	1	-1E+10	1	-1E+10	1	-1E+10	1
4902554	25	C	10/11/2021	02:08	-136.436	49.365	0	708.10	0	3.6950	0	34.2220	0	27.203	0	700.873	0	-1e10	8	-1e10	8	-1E+10	1	-1E+10	1	-1E+10	1	-1E+10	1	-1E+10	1	-1E+10	1
4902554	25	C	10/11/2021	02:08	-136.436	49.365	0	712.70	0	3.6830	0	34.2250	0	27.207	0	705.418	0	-1e10	8	-1e10	8	-1E+10	1	-1E+10	1	-1E+10	1	-1E+10	1	-1E+10	1	-1E+10	1
4902554	25	C	10/11/2021	02:08	-136.436	49.365	0	717.80	0	3.6740	0	34.2270	0	27.209	0	710.457	0	-1e10	8	-1e10	8	-1E+10	1	-1E+10	1	-1E+10	1	-1E+10	1	-1E+10	1	-1E+10	1
4902554	25	C	10/11/2021	02:08	-136.436	49.365	0	722.90	0	3.6650	0	34.2310	0	27.213	0	715.496	0	-1e10	8	-1e10	8	-1E+10	1	-1E+10	1	-1E+10	1	-1E+10	1	-1E+10	1	-1E+10	1
4902554	25	C	10/11/2021	02:08	-136.436	49.365	0	727.90	0	3.6480	0	34.2340	0	27.217	0	720.436	0	-1e10	8	-1e10	8	-1E+10	1	-1E+10	1	-1E+10	1	-1E+10	1	-1E+10	1	-1E+10	1
4902554	25	C	10/11/2021	02:08	-136.436	49.365	0	733.00	0	3.6450	0	34.2340	0	27.218	0	725.475	0	-1e10	8	-1e10	8	-1E+10	1	-1E+10	1	-1E+10	1	-1E+10	1	-1E+10	1	-1E+10	1
4902554	25	C	10/11/2021	02:08	-136.436	49.365	0	738.00	0	3.6350	0	34.2370	0	27.221	0	730.415	0	-1e10	8	-1e10	8	-1E+10	1	-1E+10	1	-1E+10	1	-1E+10	1	-1E+10	1	-1E+10	1
4902554	25	C	10/11/2021	02:08	-136.436	49.365	0	743.10	0	3.6160	0	34.2390	0	27.225	0	735.454	0	-1e10	8	-1e10	8	-1E+10	1	-1E+10	1	-1E+10	1	-1E+10	1	-1E+10	1	-1E+10	1
4902554	25	C	10/11/2021	02:08	-136.436	49.365	0	747.80	0	3.6010	0	34.2420	0	27.228	0	740.097	0	-1e10	8	-1e10	8	-1E+10	1	-1E+10	1	-1E+10	1	-1E+10	1	-1E+10	1	-1E+10	1
4902554	25	C	10/11/2021	02:08	-136.436	49.365	0	752.90	0	3.5900	0	34.2460	0	27.233	0	745.135	0	-1e10	8	-1e10	8	-1E+10	1	-1E+10	1	-1E+10	1	-1E+10	1	-1E+10	1	-1E+10	1
4902554	25	C	10/11/2021	02:08	-136.436	49.365	0	758.00	0	3.5810	0	34.2470	0	27.234	0	750.174	0	-1e10	8	-1e10	8	-1E+10	1	-1E+10	1	-1E+10	1	-1E+10	1	-1E+10	1	-1E+10	1
4902554	25	C	10/11/2021	02:08	-136.436	49.365	0	762.60	0	3.5740	0	34.2490	0	27.237	0	754.718	0	-1e10	8	-1e10	8	-1E+10	1	-1E+10	1	-1E+10	1	-1E+10	1	-1E+10	1	-1E+10	1
4902554	25	C	10/11/2021	02:08	-136.436	49.365	0	767.80	0	3.5600	0	34.2540	0	27.242	0	759.855	0	-1e10	8	-1e10	8	-1E+10	1	-1E+10	1	-1E+10	1	-1E+10	1	-1E+10	1	-1E+10	1
4902554	25	C	10/11/2021	02:08	-136.436	49.365	0	773.00	0	3.5510	0	34.2580	0	27.246	0	764.991	0	-1e10	8	-1e10	8	-1E+10	1	-1E+10	1	-1E+10	1	-1E+10	1	-1E+10	1	-1E+10	1
4902554	25	C	10/11/2021	02:08	-136.436	49.365	0	777.60	0	3.5460	0	34.2580	0	27.247	0	769.535	0	-1e10	8	-1e10	8	-1E+10	1	-1E+10	1	-1E+10	1	-1E+10	1	-1E+10	1	-1E+10	1
4902554	25	C	10/11/2021	02:08	-136.436	49.365	0	782.90	0	3.5360	0	34.2620	0	27.251	0	774.770	0	-1e10	8	-1e10	8	-1E+10	1	-1E+10	1	-1E+10	1	-1E+10	1	-1E+10	1	-1E+10	1
4902554	25	C	10/11/2021	02:08	-136.436	49.365	0	788.10	0	3.5180	0	34.2660	0	27.256	0	779.907	0	-1e10	8	-1e10	8	-1E+10	1	-1E+10	1	-1E+10	1	-1E+10	1	-1E+10	1	-1E+10	1
4902554	25	C	10/11/2021	02:08	-136.436	49.365	0	792.90	0	3.4980	0	34.2700	0	27.261	0	784.648	0	-1e10	8	-1e10	8	-1E+10	1	-1E+10	1	-1E+10	1	-1E+10	1	-1E+10	1	-1E+10	1
4902554	25	C	10/11/2021	02:08	-136.436	49.365	0	797.60	0	3.4870	0	34.2730	0	27.265	0	789.290	0	-1e10	8	-1e10	8	-1E+10	1	-1E+10	1	-1E+10	1	-1E+10	1	-1E+10	1	-1E+10	1
4902554	25	C	10/11/2021	02:08	-136.436	49.365	0	802.80	0	3.4790	0	34.2760	0	27.268	0	794.426	0	-1e10	8	-1e10	8	-1E+10	1	-1E+10	1	-1E+10	1	-1E+10	1	-1E+10	1	-1E+10	1
4902554	25	C	10/11/2021	02:08	-136.436	49.365	0	808.10	0	3.4710	0	34.2780	0	27.270	0	799.660	0	-1e10	8	-1e10	8	-1E+10	1	-1E+10	1	-1E+10	1	-1E+10	1	-1E+10	1	-1E+10	1
4902554	25	C	10/11/2021	02:08	-136.436	49.365	0	812.90	0	3.4650	0	34.2790	0	27.272	0	804.401	0	-1e10	8	-1e10	8	-1E+10	1	-1E+10	1	-1E+10	1	-1E+10	1	-1E+10	1	-1E+10	1
4902554	25	C	10/11/2021	02:08	-136.436	49.365	0	817.70	0	3.4500	0	34.2820	0	27.275	0	809.142	0	-1e10	8	-1e10	8	-1E+10	1	-1E+10	1	-1E+10	1	-1E+10	1	-1E+10	1	-1E+10	1
4902554	25	C	10/11/2021	02:08	-136.436	49.365	0	822.50	0	3.4380	0	34.2830	0	27.277	0	813.882	0	-1e10	8	-1e10	8	-1E+10	1	-1E+10	1	-1E+10	1	-1E+10	1	-1E+10	1	-1E+10	1
4902554	25	C	10/11/2021	02:08	-136.436	49.365	0	827.90	0	3.4320	0	34.2840	0	27.279	0	819.215	0	-1e10	8	-1e10	8	-1E+10	1	-1E+10	1	-1E+10	1	-1E+10	1	-1E+10	1	-1E+10	1
4902554	25	C	10/11/2021	02:08	-136.436	49.365	0	833.20	0	3.4200	0	34.2890	0	27.284	0	824.449	0	-1e10	8	-1e10	8	-1E+10	1	-1E+10	1	-1E+10	1	-1E+10	1	-1E+10	1	-1E+10	1
4902554	25	C	10/11/2021	02:08	-136.436	49.365	0	838.00	0	3.4040	0	34.2930	0	27.289	0	829.189	0	-1e10	8	-1e10	8	-1E+10	1	-1E+10	1	-1E+10	1	-1E+10	1	-1E+10	1	-1E+10	1
4902554	25	C	10/11/2021	02:08	-136.436	49.365	0	843.00	0	3.3840	0	34.2960	0	27.293	0	834.126	0	-1e10	8	-1e10	8	-1E+10	1	-1E+10	1	-1E+10	1	-1E+10	1	-1E+10	1	-1E+10	1
4902554	25	C	10/11/2021	02:08	-136.436	49.365	0	847.90	0	3.3720	0	34.3000	0	27.297	0	838.965	0	-1e10	8	-1e10	8	-1E+10	1	-1E+10	1	-1E+10	1	-1E+10	1	-1E+10	1	-1E+10	1
4902554	25	C	10/11/2021	02:08	-136.436	49.365	0	852.80	0	3.3640	0	34.3010	0	27.299	0	843.803	0	-1e10	8	-1e10	8	-1E+10	1	-1E+10	1	-1E+10	1	-1E+10	1	-1E+10	1	-1E+10	1
4902554	25	C	10/11/2021	02:08	-136.436	49.365	0	857.80	0	3.3530	0	34.3030	0	27.302	0	848.741	0	-1e10	8	-1e10	8	-1E+10	1	-1E+10	1	-1E+10	1	-1E+10	1	-1E+10	1	-1E+10	1
4902554	25	C	10/11/2021	02:08	-136.436	49.365	0	862.80	0	3.3380	0	34.3060	0	27.305	0	853.677	0	-1e10	8	-1e10	8	-1E+10	1	-1E+10	1	-1E+10	1	-1E+10	1	-1E+10	1	-1E+10	1
4902554	25	C	10/11/2021	02:08	-136.436	49.365	0	867.80	0	3.3230	0	34.3100	0	27.310	0	858.614	0	-1e10	8	-1e10	8	-1E+10	1	-1E+10	1	-1E+10	1	-1E+10	1	-1E+10	1	-1E+10	1
4902554	25	C	10/11/2021	02:08	-136.436	49.365	0	872.80	0	3.3100	0	34.3120	0	27.313	0	863.551	0	-1e10	8	-1e10	8	-1E+10	1	-1E+10	1	-1E+10	1	-1E+10	1	-1E+10	1	-1E+10	1
4902554	25	C	10/11/2021	02:08	-136.436	49.365	0	877.90	0	3.2950	0	34.3150	0	27.317	0	868.587	0	-1e10	8	-1e10	8	-1E+10	1	-1E+10	1	-1E+10	1	-1E+10	1	-1E+10	1	-1E+10	1
4902554	25	C	10/11/2021	02:08	-136.436	49.365	0	883.00	0	3.2830	0	34.3170	0	27.319	0	873.622	0	-1e10	8	-1e10	8	-1E+10	1	-1E+10	1	-1E+10	1	-1E+10	1	-1E+10	1	-1E+10	1
4902554	25	C	10/11/2021	02:08	-136.436	49.365	0	888.20	0	3.2740	0	34.3190	0	27.322	0	878.756	0	-1e10	8	-1e10	8	-1E+10	1	-1E+10	1	-1E+10	1	-1E+10	1	-1E+10	1	-1E+10	1
4902554	25	C	10/11/2021	02:08	-136.436	49.365	0	893.30	0	3.2660	0	34.3210	0	27.324	0	883.791	0	-1e10	8	-1e10	8	-1E+10	1	-1E+10	1	-1E+10	1	-1E+10	1	-1E+10	1	-1E+10	1
4902554	25	C	10/11/2021	02:08	-136.436	49.365	0	897.90	0	3.2590	0	34.3220	0	27.326	0	888.332	0	-1e10	8	-1e10	8	-1E+10	1	-1E+10	1	-1E+10	1	-1E+10	1	-1E+10	1	-1E+10	1
4902554	25	C	10/11/2021	02:08	-136.436	49.365	0	902.60	0	3.2530	0	34.3230	0	27.327	0	892.972	0	-1e10	8	-1e10	8	-1E+10	1	-1E+10	1	-1E+10	1	-1E+10	1	-1E+10	1	-1E+10	1
4902554	25	C	10/11/2021	02:08	-136.436	49.365	0	907.80	0	3.2450	0	34.3250	0	27.330	0	898.105	0	-1e10	8	-1e10	8	-1E+10	1	-1E+10	1	-1E+10	1	-1E+10	1	-1E+10	1	-1E+10	1
4902554	25	C	10/11/2021	02:08	-136.436	49.365	0	912.70	0	3.2380	0	34.3260	0	27.331	0	902.942	0	-1e10	8	-1e10	8	-1E+10	1	-1E+10	1	-1E+10	1	-1E+10	1	-1E+10	1	-1E+10	1
4902554	25	C	10/11/2021	02:08	-136.436	49.365	0	917.60	0	3.2320	0	34.3260	0	27.332	0	907.779	0	-1e10	8	-1e10	8	-1E+10	1	-1E+10	1	-1E+10	1	-1E+10	1	-1E+10	1	-1E+10	1
4902554	25	C	10/11/2021	02:08	-136.436	49.365	0	922.60	0	3.2180	0	34.3290	0	27.335	0	912.715	0	-1e10	8	-1e10	8	-1E+10	1	-1E+10	1	-1E+10	1	-1E+10	1	-1E+10	1	-1E+10	1
4902554	25	C	10/11/2021	02:08	-136.436	49.365	0	927.60	0	3.2060	0	34.3310	0	27.338	0	917.650	0	-1e10	8	-1e10	8	-1E+10	1	-1E+10	1	-1E+10	1	-1E+10	1	-1E+10	1	-1E+10	1
4902554	25	C	10/11/2021	02:08	-136.436	49.365	0	932.60	0	3.1970	0	34.3330	0	27.340	0	922.586	0	-1e10	8	-1e10	8	-1E+10	1	-1E+10	1	-1E+10	1	-1E+10	1	-1E+10	1	-1E+10	1
4902554	25	C	10/11/2021	02:08	-136.436	49.365	0	937.60	0	3.1930	0	34.3340	0	27.342	0	927.521	0	-1e10	8	-1e10	8	-1E+10	1	-1E+10	1	-1E+10	1	-1E+10	1	-1E+10	1	-1E+10	1
4902554	25	C	10/11/2021	02:08	-136.436	49.365	0	942.70	0	3.1830	0	34.3360	0	27.344	0	932.555	0	-1e10	8	-1e10	8	-1E+10	1	-1E+10	1	-1E+10	1	-1E+10	1	-1E+10	1	-1E+10	1
4902554	25	C	10/11/2021	02:08	-136.436	49.365	0	947.80	0	3.1700	0	34.3380	0	27.347	0	937.588	0	-1e10	8	-1e10	8	-1E+10	1	-1E+10	1	-1E+10	1	-1E+10	1	-1E+10	1	-1E+10	1
4902554	25	C	10/11/2021	02:08	-136.436	49.365	0	952.90	0	3.1570	0	34.3400	0	27.350	0	942.622	0	-1e10	8	-1e10	8	-1E+10	1	-1E+10	1	-1E+10	1	-1E+10	1	-1E+10	1	-1E+10	1
4902554	25	C	10/11/2021	02:08	-136.436	49.365	0	958.10	0	3.1450	0	34.3430	0	27.353	0	947.754	0	-1e10	8	-1e10	8	-1E+10	1	-1E+10	1	-1E+10	1	-1E+10	1	-1E+10	1	-1E+10	1
4902554	25	C	10/11/2021	02:08	-136.436	49.365	0	962.90	0	3.1380	0	34.3440	0	27.355	0	952.491	0	-1e10	8	-1e10	8	-1E+10	1	-1E+10	1	-1E+10	1	-1E+10	1	-1E+10	1	-1E+10	1
4902554	25	C	10/11/2021	02:08	-136.436	49.365	0	967.70	0	3.1280	0	34.3460	0	27.357	0	957.229	0	-1e10	8	-1e10	8	-1E+10	1	-1E+10	1	-1E+10	1	-1E+10	1	-1E+10	1	-1E+10	1
4902554	25	C	10/11/2021	02:08	-136.436	49.365	0	972.90	0	3.1140	0	34.3490	0	27.361	0	962.360	0	-1e10	8	-1e10	8	-1E+10	1	-1E+10	1	-1E+10	1	-1E+10	1	-1E+10	1	-1E+10	1
4902554	25	C	10/11/2021	02:08	-136.436	49.365	0	977.90	0	3.1040	0	34.3510	0	27.364	0	967.295	0	-1e10	8	-1e10	8	-1E+10	1	-1E+10	1	-1E+10	1	-1E+10	1	-1E+10	1	-1E+10	1
4902554	25	C	10/11/2021	02:08	-136.436	49.365	0	982.90	0	3.0960	0	34.3530	0	27.366	0	972.229	0	-1e10	8	-1e10	8	-1E+10	1	-1E+10	1	-1E+10	1	-1E+10	1	-1E+10	1	-1E+10	1
4902554	25	C	10/11/2021	02:08	-136.436	49.365	0	987.90	0	3.0860	0	34.3550	0	27.369	0	977.163	0	-1e10	8	-1e10	8	-1E+10	1	-1E+10	1	-1E+10	1	-1E+10	1	-1E+10	1	-1E+10	1
4902554	25	C	10/11/2021	02:08	-136.436	49.365	0	992.90	0	3.0700	0	34.3580	0	27.372	0	982.097	0	-1e10	8	-1e10	8	-1E+10	1	-1E+10	1	-1E+10	1	-1E+10	1	-1E+10	1	-1E+10	1
4902554	25	C	10/11/2021	02:08	-136.436	49.365	0	997.90	0	3.0540	0	34.3620	0	27.377	0	987.031	0	-1e10	8	-1e10	8	-1E+10	1	-1E+10	1	-1E+10	1	-1E+10	1	-1E+10	1	-1E+10	1
4902554	25	C	10/11/2021	02:08	-136.436	49.365	0	1005.30	0	3.0390	0	34.3640	0	27.380	0	994.332	0	-1e10	8	-1e10	8	-1E+10	1	-1E+10	1	-1E+10	1	-1E+10	1	-1E+10	1	-1E+10	1
4902554	25	C	10/11/2021	02:08	-136.436	49.365	0	1015.20	0	3.0240	0	34.3670	0	27.384	0	1004.101	0	-1e10	8	-1e10	8	-1E+10	1	-1E+10	1	-1E+10	1	-1E+10	1	-1E+10	1	-1E+10	1
4902554	25	C	10/11/2021	02:08	-136.436	49.365	0	1025.30	0	3.0120	0	34.3700	0	27.387	0	1014.066	0	-1e10	8	-1e10	8	-1E+10	1	-1E+10	1	-1E+10	1	-1E+10	1	-1E+10	1	-1E+10	1
4902554	25	C	10/11/2021	02:08	-136.436	49.365	0	1035.40	0	2.9930	0	34.3730	0	27.392	0	1024.031	0	-1e10	8	-1e10	8	-1E+10	1	-1E+10	1	-1E+10	1	-1E+10	1	-1E+10	1	-1E+10	1
4902554	25	C	10/11/2021	02:08	-136.436	49.365	0	1045.40	0	2.9740	0	34.3770	0	27.397	0	1033.896	0	-1e10	8	-1e10	8	-1E+10	1	-1E+10	1	-1E+10	1	-1E+10	1	-1E+10	1	-1E+10	1
4902554	25	C	10/11/2021	02:08	-136.436	49.365	0	1055.40	0	2.9600	0	34.3800	0	27.400	0	1043.761	0	-1e10	8	-1e10	8	-1E+10	1	-1E+10	1	-1E+10	1	-1E+10	1	-1E+10	1	-1E+10	1
4902554	25	C	10/11/2021	02:08	-136.436	49.365	0	1065.50	0	2.9380	0	34.3840	0	27.406	0	1053.725	0	-1e10	8	-1e10	8	-1E+10	1	-1E+10	1	-1E+10	1	-1E+10	1	-1E+10	1	-1E+10	1
4902554	25	C	10/11/2021	02:08	-136.436	49.365	0	1075.40	0	2.9150	0	34.3880	0	27.411	0	1063.490	0	-1e10	8	-1e10	8	-1E+10	1	-1E+10	1	-1E+10	1	-1E+10	1	-1E+10	1	-1E+10	1
4902554	25	C	10/11/2021	02:08	-136.436	49.365	0	1085.50	0	2.8980	0	34.3920	0	27.416	0	1073.452	0	-1e10	8	-1e10	8	-1E+10	1	-1E+10	1	-1E+10	1	-1E+10	1	-1E+10	1	-1E+10	1
4902554	25	C	10/11/2021	02:08	-136.436	49.365	0	1095.60	0	2.8880	0	34.3940	0	27.418	0	1083.414	0	-1e10	8	-1e10	8	-1E+10	1	-1E+10	1	-1E+10	1	-1E+10	1	-1E+10	1	-1E+10	1
4902554	25	C	10/11/2021	02:08	-136.436	49.365	0	1105.70	0	2.8730	0	34.3960	0	27.421	0	1093.376	0	-1e10	8	-1e10	8	-1E+10	1	-1E+10	1	-1E+10	1	-1E+10	1	-1E+10	1	-1E+10	1
4902554	25	C	10/11/2021	02:08	-136.436	49.365	0	1115.60	0	2.8540	0	34.4000	0	27.426	0	1103.139	0	-1e10	8	-1e10	8	-1E+10	1	-1E+10	1	-1E+10	1	-1E+10	1	-1E+10	1	-1E+10	1
4902554	25	C	10/11/2021	02:08	-136.436	49.365	0	1125.20	0	2.8390	0	34.4030	0	27.430	0	1112.607	0	-1e10	8	-1e10	8	-1E+10	1	-1E+10	1	-1E+10	1	-1E+10	1	-1E+10	1	-1E+10	1
4902554	25	C	10/11/2021	02:08	-136.436	49.365	0	1135.30	0	2.8180	0	34.4070	0	27.435	0	1122.567	0	-1e10	8	-1e10	8	-1E+10	1	-1E+10	1	-1E+10	1	-1E+10	1	-1E+10	1	-1E+10	1
4902554	25	C	10/11/2021	02:08	-136.436	49.365	0	1145.60	0	2.8070	0	34.4100	0	27.438	0	1132.723	0	-1e10	8	-1e10	8	-1E+10	1	-1E+10	1	-1E+10	1	-1E+10	1	-1E+10	1	-1E+10	1
4902554	25	C	10/11/2021	02:08	-136.436	49.365	0	1155.70	0	2.7980	0	34.4110	0	27.440	0	1142.682	0	-1e10	8	-1e10	8	-1E+10	1	-1E+10	1	-1E+10	1	-1E+10	1	-1E+10	1	-1E+10	1
4902554	25	C	10/11/2021	02:08	-136.436	49.365	0	1165.70	0	2.7880	0	34.4140	0	27.443	0	1152.542	0	-1e10	8	-1e10	8	-1E+10	1	-1E+10	1	-1E+10	1	-1E+10	1	-1E+10	1	-1E+10	1
4902554	25	C	10/11/2021	02:08	-136.436	49.365	0	1175.40	0	2.7740	0	34.4170	0	27.447	0	1162.106	0	-1e10	8	-1e10	8	-1E+10	1	-1E+10	1	-1E+10	1	-1E+10	1	-1E+10	1	-1E+10	1
4902554	25	C	10/11/2021	02:08	-136.436	49.365	0	1185.20	0	2.7650	0	34.4180	0	27.449	0	1171.768	0	-1e10	8	-1e10	8	-1E+10	1	-1E+10	1	-1E+10	1	-1E+10	1	-1E+10	1	-1E+10	1
4902554	25	C	10/11/2021	02:08	-136.436	49.365	0	1195.00	0	2.7530	0	34.4210	0	27.452	0	1181.429	0	-1e10	8	-1e10	8	-1E+10	1	-1E+10	1	-1E+10	1	-1E+10	1	-1E+10	1	-1E+10	1
4902554	25	C	10/11/2021	02:08	-136.436	49.365	0	1205.40	0	2.7410	0	34.4230	0	27.455	0	1191.682	0	-1e10	8	-1e10	8	-1E+10	1	-1E+10	1	-1E+10	1	-1E+10	1	-1E+10	1	-1E+10	1
4902554	25	C	10/11/2021	02:08	-136.436	49.365	0	1215.70	0	2.7240	0	34.4270	0	27.460	0	1201.835	0	-1e10	8	-1e10	8	-1E+10	1	-1E+10	1	-1E+10	1	-1E+10	1	-1E+10	1	-1E+10	1
4902554	25	C	10/11/2021	02:08	-136.436	49.365	0	1225.60	0	2.7140	0	34.4280	0	27.461	0	1211.594	0	-1e10	8	-1e10	8	-1E+10	1	-1E+10	1	-1E+10	1	-1E+10	1	-1E+10	1	-1E+10	1
4902554	25	C	10/11/2021	02:08	-136.436	49.365	0	1235.70	0	2.6990	0	34.4320	0	27.466	0	1221.549	0	-1e10	8	-1e10	8	-1E+10	1	-1E+10	1	-1E+10	1	-1E+10	1	-1E+10	1	-1E+10	1
4902554	25	C	10/11/2021	02:08	-136.436	49.365	0	1245.80	0	2.6890	0	34.4340	0	27.468	0	1231.504	0	-1e10	8	-1e10	8	-1E+10	1	-1E+10	1	-1E+10	1	-1E+10	1	-1E+10	1	-1E+10	1
4902554	25	C	10/11/2021	02:08	-136.436	49.365	0	1255.40	0	2.6780	0	34.4360	0	27.471	0	1240.965	0	-1e10	8	-1e10	8	-1E+10	1	-1E+10	1	-1E+10	1	-1E+10	1	-1E+10	1	-1E+10	1
4902554	25	C	10/11/2021	02:08	-136.436	49.365	0	1265.10	0	2.6660	0	34.4390	0	27.474	0	1250.525	0	-1e10	8	-1e10	8	-1E+10	1	-1E+10	1	-1E+10	1	-1E+10	1	-1E+10	1	-1E+10	1
4902554	25	C	10/11/2021	02:08	-136.436	49.365	0	1275.40	0	2.6520	0	34.4410	0	27.477	0	1260.676	0	-1e10	8	-1e10	8	-1E+10	1	-1E+10	1	-1E+10	1	-1E+10	1	-1E+10	1	-1E+10	1
4902554	25	C	10/11/2021	02:08	-136.436	49.365	0	1285.40	0	2.6390	0	34.4440	0	27.481	0	1270.530	0	-1e10	8	-1e10	8	-1E+10	1	-1E+10	1	-1E+10	1	-1E+10	1	-1E+10	1	-1E+10	1
4902554	25	C	10/11/2021	02:08	-136.436	49.365	0	1295.50	0	2.6210	0	34.4480	0	27.486	0	1280.482	0	-1e10	8	-1e10	8	-1E+10	1	-1E+10	1	-1E+10	1	-1E+10	1	-1E+10	1	-1E+10	1
4902554	25	C	10/11/2021	02:08	-136.436	49.365	0	1305.30	0	2.6130	0	34.4490	0	27.487	0	1290.139	0	-1e10	8	-1e10	8	-1E+10	1	-1E+10	1	-1E+10	1	-1E+10	1	-1E+10	1	-1E+10	1
4902554	25	C	10/11/2021	02:08	-136.436	49.365	0	1315.40	0	2.5970	0	34.4520	0	27.491	0	1300.090	0	-1e10	8	-1e10	8	-1E+10	1	-1E+10	1	-1E+10	1	-1E+10	1	-1E+10	1	-1E+10	1
4902554	25	C	10/11/2021	02:08	-136.436	49.365	0	1325.50	0	2.5830	0	34.4550	0	27.495	0	1310.041	0	-1e10	8	-1e10	8	-1E+10	1	-1E+10	1	-1E+10	1	-1E+10	1	-1E+10	1	-1E+10	1
4902554	25	C	10/11/2021	02:08	-136.436	49.365	0	1335.20	0	2.5670	0	34.4580	0	27.498	0	1319.598	0	-1e10	8	-1e10	8	-1E+10	1	-1E+10	1	-1E+10	1	-1E+10	1	-1E+10	1	-1E+10	1
4902554	25	C	10/11/2021	02:08	-136.436	49.365	0	1345.20	0	2.5540	0	34.4600	0	27.501	0	1329.449	0	-1e10	8	-1e10	8	-1E+10	1	-1E+10	1	-1E+10	1	-1E+10	1	-1E+10	1	-1E+10	1
4902554	25	C	10/11/2021	02:08	-136.436	49.365	0	1355.30	0	2.5390	0	34.4630	0	27.505	0	1339.399	0	-1e10	8	-1e10	8	-1E+10	1	-1E+10	1	-1E+10	1	-1E+10	1	-1E+10	1	-1E+10	1
4902554	25	C	10/11/2021	02:08	-136.436	49.365	0	1365.40	0	2.5260	0	34.4660	0	27.508	0	1349.348	0	-1e10	8	-1e10	8	-1E+10	1	-1E+10	1	-1E+10	1	-1E+10	1	-1E+10	1	-1E+10	1
4902554	25	C	10/11/2021	02:08	-136.436	49.365	0	1375.60	0	2.5140	0	34.4690	0	27.512	0	1359.396	0	-1e10	8	-1e10	8	-1E+10	1	-1E+10	1	-1E+10	1	-1E+10	1	-1E+10	1	-1E+10	1
4902554	25	C	10/11/2021	02:08	-136.436	49.365	0	1385.50	0	2.5030	0	34.4700	0	27.514	0	1369.147	0	-1e10	8	-1e10	8	-1E+10	1	-1E+10	1	-1E+10	1	-1E+10	1	-1E+10	1	-1E+10	1
4902554	25	C	10/11/2021	02:08	-136.436	49.365	0	1395.40	0	2.4840	0	34.4740	0	27.519	0	1378.898	0	-1e10	8	-1e10	8	-1E+10	1	-1E+10	1	-1E+10	1	-1E+10	1	-1E+10	1	-1E+10	1
4902554	25	C	10/11/2021	02:08	-136.436	49.365	0	1405.40	0	2.4630	0	34.4780	0	27.524	0	1388.747	0	-1e10	8	-1e10	8	-1E+10	1	-1E+10	1	-1E+10	1	-1E+10	1	-1E+10	1	-1E+10	1
4902554	25	C	10/11/2021	02:08	-136.436	49.365	0	1415.60	0	2.4510	0	34.4800	0	27.526	0	1398.792	0	-1e10	8	-1e10	8	-1E+10	1	-1E+10	1	-1E+10	1	-1E+10	1	-1E+10	1	-1E+10	1
4902554	25	C	10/11/2021	02:08	-136.436	49.365	0	1425.70	0	2.4410	0	34.4830	0	27.530	0	1408.738	0	-1e10	8	-1e10	8	-1E+10	1	-1E+10	1	-1E+10	1	-1E+10	1	-1E+10	1	-1E+10	1
4902554	25	C	10/11/2021	02:08	-136.436	49.365	0	1435.40	0	2.4330	0	34.4850	0	27.532	0	1418.290	0	-1e10	8	-1e10	8	-1E+10	1	-1E+10	1	-1E+10	1	-1E+10	1	-1E+10	1	-1E+10	1
4902554	25	C	10/11/2021	02:08	-136.436	49.365	0	1445.20	0	2.4230	0	34.4870	0	27.534	0	1427.940	0	-1e10	8	-1e10	8	-1E+10	1	-1E+10	1	-1E+10	1	-1E+10	1	-1E+10	1	-1E+10	1
4902554	25	C	10/11/2021	02:08	-136.436	49.365	0	1455.50	0	2.4140	0	34.4880	0	27.536	0	1438.082	0	-1e10	8	-1e10	8	-1E+10	1	-1E+10	1	-1E+10	1	-1E+10	1	-1E+10	1	-1E+10	1
4902554	25	C	10/11/2021	02:08	-136.436	49.365	0	1465.50	0	2.4000	0	34.4910	0	27.540	0	1447.928	0	-1e10	8	-1e10	8	-1E+10	1	-1E+10	1	-1E+10	1	-1E+10	1	-1E+10	1	-1E+10	1
4902554	25	C	10/11/2021	02:08	-136.436	49.365	0	1475.60	0	2.3880	0	34.4930	0	27.542	0	1457.872	0	-1e10	8	-1e10	8	-1E+10	1	-1E+10	1	-1E+10	1	-1E+10	1	-1E+10	1	-1E+10	1
4902554	25	C	10/11/2021	02:08	-136.436	49.365	0	1485.70	0	2.3740	0	34.4960	0	27.546	0	1467.816	0	-1e10	8	-1e10	8	-1E+10	1	-1E+10	1	-1E+10	1	-1E+10	1	-1E+10	1	-1E+10	1
4902554	25	C	10/11/2021	02:08	-136.436	49.365	0	1495.40	0	2.3650	0	34.4980	0	27.548	0	1477.365	0	-1e10	8	-1e10	8	-1E+10	1	-1E+10	1	-1E+10	1	-1E+10	1	-1E+10	1	-1E+10	1
4902554	25	C	10/11/2021	02:08	-136.436	49.365	0	1505.20	0	2.3450	0	34.5020	0	27.553	0	1487.013	0	-1e10	8	-1e10	8	-1E+10	1	-1E+10	1	-1E+10	1	-1E+10	1	-1E+10	1	-1E+10	1
4902554	25	C	10/11/2021	02:08	-136.436	49.365	0	1515.10	0	2.3350	0	34.5040	0	27.556	0	1496.758	0	-1e10	8	-1e10	8	-1E+10	1	-1E+10	1	-1E+10	1	-1E+10	1	-1E+10	1	-1E+10	1
4902554	25	C	10/11/2021	02:08	-136.436	49.365	0	1525.20	0	2.3230	0	34.5060	0	27.558	0	1506.700	0	-1e10	8	-1e10	8	-1E+10	1	-1E+10	1	-1E+10	1	-1E+10	1	-1E+10	1	-1E+10	1
4902554	25	C	10/11/2021	02:08	-136.436	49.365	0	1535.60	0	2.3120	0	34.5080	0	27.561	0	1516.936	0	-1e10	8	-1e10	8	-1E+10	1	-1E+10	1	-1E+10	1	-1E+10	1	-1E+10	1	-1E+10	1
4902554	25	C	10/11/2021	02:08	-136.436	49.365	0	1545.30	0	2.3030	0	34.5100	0	27.563	0	1526.484	0	-1e10	8	-1e10	8	-1E+10	1	-1E+10	1	-1E+10	1	-1E+10	1	-1E+10	1	-1E+10	1
4902554	25	C	10/11/2021	02:08	-136.436	49.365	0	1555.30	0	2.2920	0	34.5120	0	27.566	0	1536.326	0	-1e10	8	-1e10	8	-1E+10	1	-1E+10	1	-1E+10	1	-1E+10	1	-1E+10	1	-1E+10	1
4902554	25	C	10/11/2021	02:08	-136.436	49.365	0	1565.50	0	2.2820	0	34.5140	0	27.568	0	1546.364	0	-1e10	8	-1e10	8	-1E+10	1	-1E+10	1	-1E+10	1	-1E+10	1	-1E+10	1	-1E+10	1
4902554	25	C	10/11/2021	02:08	-136.436	49.365	0	1575.50	0	2.2760	0	34.5150	0	27.569	0	1556.205	0	-1e10	8	-1e10	8	-1E+10	1	-1E+10	1	-1E+10	1	-1E+10	1	-1E+10	1	-1E+10	1
4902554	25	C	10/11/2021	02:08	-136.436	49.365	0	1585.30	0	2.2690	0	34.5170	0	27.572	0	1565.849	0	-1e10	8	-1e10	8	-1E+10	1	-1E+10	1	-1E+10	1	-1E+10	1	-1E+10	1	-1E+10	1
4902554	25	C	10/11/2021	02:08	-136.436	49.365	0	1595.40	0	2.2590	0	34.5190	0	27.574	0	1575.787	0	-1e10	8	-1e10	8	-1E+10	1	-1E+10	1	-1E+10	1	-1E+10	1	-1E+10	1	-1E+10	1
4902554	25	C	10/11/2021	02:08	-136.436	49.365	0	1605.40	0	2.2510	0	34.5210	0	27.576	0	1585.627	0	-1e10	8	-1e10	8	-1E+10	1	-1E+10	1	-1E+10	1	-1E+10	1	-1E+10	1	-1E+10	1
4902554	25	C	10/11/2021	02:08	-136.436	49.365	0	1615.10	0	2.2370	0	34.5240	0	27.580	0	1595.171	0	-1e10	8	-1e10	8	-1E+10	1	-1E+10	1	-1E+10	1	-1E+10	1	-1E+10	1	-1E+10	1
4902554	25	C	10/11/2021	02:08	-136.436	49.365	0	1625.40	0	2.2270	0	34.5250	0	27.582	0	1605.305	0	-1e10	8	-1e10	8	-1E+10	1	-1E+10	1	-1E+10	1	-1E+10	1	-1E+10	1	-1E+10	1
4902554	25	C	10/11/2021	02:08	-136.436	49.365	0	1635.80	0	2.2170	0	34.5280	0	27.585	0	1615.536	0	-1e10	8	-1e10	8	-1E+10	1	-1E+10	1	-1E+10	1	-1E+10	1	-1E+10	1	-1E+10	1
4902554	25	C	10/11/2021	02:08	-136.436	49.365	0	1645.40	0	2.2030	0	34.5300	0	27.588	0	1624.981	0	-1e10	8	-1e10	8	-1E+10	1	-1E+10	1	-1E+10	1	-1E+10	1	-1E+10	1	-1E+10	1
4902554	25	C	10/11/2021	02:08	-136.436	49.365	0	1655.50	0	2.1960	0	34.5310	0	27.589	0	1634.916	0	-1e10	8	-1e10	8	-1E+10	1	-1E+10	1	-1E+10	1	-1E+10	1	-1E+10	1	-1E+10	1
4902554	25	C	10/11/2021	02:08	-136.436	49.365	0	1665.20	0	2.1880	0	34.5330	0	27.591	0	1644.458	0	-1e10	8	-1e10	8	-1E+10	1	-1E+10	1	-1E+10	1	-1E+10	1	-1E+10	1	-1E+10	1
4902554	25	C	10/11/2021	02:08	-136.436	49.365	0	1675.40	0	2.1790	0	34.5350	0	27.594	0	1654.491	0	-1e10	8	-1e10	8	-1E+10	1	-1E+10	1	-1E+10	1	-1E+10	1	-1E+10	1	-1E+10	1
4902554	25	C	10/11/2021	02:08	-136.436	49.365	0	1685.30	0	2.1730	0	34.5360	0	27.595	0	1664.229	0	-1e10	8	-1e10	8	-1E+10	1	-1E+10	1	-1E+10	1	-1E+10	1	-1E+10	1	-1E+10	1
4902554	25	C	10/11/2021	02:08	-136.436	49.365	0	1695.20	0	2.1670	0	34.5370	0	27.597	0	1673.966	0	-1e10	8	-1e10	8	-1E+10	1	-1E+10	1	-1E+10	1	-1E+10	1	-1E+10	1	-1E+10	1
4902554	25	C	10/11/2021	02:08	-136.436	49.365	0	1705.40	0	2.1590	0	34.5390	0	27.599	0	1683.998	0	-1e10	8	-1e10	8	-1E+10	1	-1E+10	1	-1E+10	1	-1E+10	1	-1E+10	1	-1E+10	1
4902554	25	C	10/11/2021	02:08	-136.436	49.365	0	1715.30	0	2.1510	0	34.5410	0	27.601	0	1693.734	0	-1e10	8	-1e10	8	-1E+10	1	-1E+10	1	-1E+10	1	-1E+10	1	-1E+10	1	-1E+10	1
4902554	25	C	10/11/2021	02:08	-136.436	49.365	0	1725.30	0	2.1440	0	34.5420	0	27.603	0	1703.568	0	-1e10	8	-1e10	8	-1E+10	1	-1E+10	1	-1E+10	1	-1E+10	1	-1E+10	1	-1E+10	1
4902554	25	C	10/11/2021	02:08	-136.436	49.365	0	1735.30	0	2.1390	0	34.5430	0	27.604	0	1713.402	0	-1e10	8	-1e10	8	-1E+10	1	-1E+10	1	-1E+10	1	-1E+10	1	-1E+10	1	-1E+10	1
4902554	25	C	10/11/2021	02:08	-136.436	49.365	0	1745.50	0	2.1310	0	34.5450	0	27.606	0	1723.432	0	-1e10	8	-1e10	8	-1E+10	1	-1E+10	1	-1E+10	1	-1E+10	1	-1E+10	1	-1E+10	1
4902554	25	C	10/11/2021	02:08	-136.436	49.365	0	1755.40	0	2.1220	0	34.5470	0	27.608	0	1733.166	0	-1e10	8	-1e10	8	-1E+10	1	-1E+10	1	-1E+10	1	-1E+10	1	-1E+10	1	-1E+10	1
4902554	25	C	10/11/2021	02:08	-136.436	49.365	0	1765.40	0	2.1150	0	34.5480	0	27.610	0	1742.999	0	-1e10	8	-1e10	8	-1E+10	1	-1E+10	1	-1E+10	1	-1E+10	1	-1E+10	1	-1E+10	1
4902554	25	C	10/11/2021	02:08	-136.436	49.365	0	1775.50	0	2.1100	0	34.5490	0	27.611	0	1752.929	0	-1e10	8	-1e10	8	-1E+10	1	-1E+10	1	-1E+10	1	-1E+10	1	-1E+10	1	-1E+10	1
4902554	25	C	10/11/2021	02:08	-136.436	49.365	0	1785.20	0	2.1020	0	34.5510	0	27.613	0	1762.465	0	-1e10	8	-1e10	8	-1E+10	1	-1E+10	1	-1E+10	1	-1E+10	1	-1E+10	1	-1E+10	1
4902554	25	C	10/11/2021	02:08	-136.436	49.365	0	1795.20	0	2.0930	0	34.5520	0	27.615	0	1772.296	0	-1e10	8	-1e10	8	-1E+10	1	-1E+10	1	-1E+10	1	-1E+10	1	-1E+10	1	-1E+10	1
4902554	25	C	10/11/2021	02:08	-136.436	49.365	0	1805.20	0	2.0840	0	34.5540	0	27.617	0	1782.127	0	-1e10	8	-1e10	8	-1E+10	1	-1E+10	1	-1E+10	1	-1E+10	1	-1E+10	1	-1E+10	1
4902554	25	C	10/11/2021	02:08	-136.436	49.365	0	1815.20	0	2.0760	0	34.5560	0	27.620	0	1791.957	0	-1e10	8	-1e10	8	-1E+10	1	-1E+10	1	-1E+10	1	-1E+10	1	-1E+10	1	-1E+10	1
4902554	25	C	10/11/2021	02:08	-136.436	49.365	0	1825.10	0	2.0630	0	34.5580	0	27.622	0	1801.688	0	-1e10	8	-1e10	8	-1E+10	1	-1E+10	1	-1E+10	1	-1E+10	1	-1E+10	1	-1E+10	1
4902554	25	C	10/11/2021	02:08	-136.436	49.365	0	1835.10	0	2.0550	0	34.5600	0	27.625	0	1811.517	0	-1e10	8	-1e10	8	-1E+10	1	-1E+10	1	-1E+10	1	-1E+10	1	-1E+10	1	-1E+10	1
4902554	25	C	10/11/2021	02:08	-136.436	49.365	0	1845.10	0	2.0450	0	34.5620	0	27.627	0	1821.346	0	-1e10	8	-1e10	8	-1E+10	1	-1E+10	1	-1E+10	1	-1E+10	1	-1E+10	1	-1E+10	1
4902554	25	C	10/11/2021	02:08	-136.436	49.365	0	1855.00	0	2.0360	0	34.5640	0	27.629	0	1831.076	0	-1e10	8	-1e10	8	-1E+10	1	-1E+10	1	-1E+10	1	-1E+10	1	-1E+10	1	-1E+10	1
4902554	25	C	10/11/2021	02:08	-136.436	49.365	0	1865.40	0	2.0270	0	34.5660	0	27.632	0	1841.297	0	-1e10	8	-1e10	8	-1E+10	1	-1E+10	1	-1E+10	1	-1E+10	1	-1E+10	1	-1E+10	1
4902554	25	C	10/11/2021	02:08	-136.436	49.365	0	1875.80	0	2.0180	0	34.5680	0	27.634	0	1851.517	0	-1e10	8	-1e10	8	-1E+10	1	-1E+10	1	-1E+10	1	-1E+10	1	-1E+10	1	-1E+10	1
4902554	25	C	10/11/2021	02:08	-136.436	49.365	0	1885.80	0	2.0080	0	34.5690	0	27.636	0	1861.344	0	-1e10	8	-1e10	8	-1E+10	1	-1E+10	1	-1E+10	1	-1E+10	1	-1E+10	1	-1E+10	1
4902554	25	C	10/11/2021	02:08	-136.436	49.365	0	1895.50	0	2.0010	0	34.5710	0	27.638	0	1870.875	0	-1e10	8	-1e10	8	-1E+10	1	-1E+10	1	-1E+10	1	-1E+10	1	-1E+10	1	-1E+10	1
4902554	25	C	10/11/2021	02:08	-136.436	49.365	0	1905.20	0	1.9920	0	34.5730	0	27.640	0	1880.406	0	-1e10	8	-1e10	8	-1E+10	1	-1E+10	1	-1E+10	1	-1E+10	1	-1E+10	1	-1E+10	1
4902554	25	C	10/11/2021	02:08	-136.436	49.365	0	1915.30	0	1.9830	0	34.5740	0	27.642	0	1890.330	0	-1e10	8	-1e10	8	-1E+10	1	-1E+10	1	-1E+10	1	-1E+10	1	-1E+10	1	-1E+10	1
4902554	25	C	10/11/2021	02:08	-136.436	49.365	0	1925.50	0	1.9740	0	34.5760	0	27.644	0	1900.352	0	-1e10	8	-1e10	8	-1E+10	1	-1E+10	1	-1E+10	1	-1E+10	1	-1E+10	1	-1E+10	1
4902554	25	C	10/11/2021	02:08	-136.436	49.365	0	1935.50	0	1.9690	0	34.5770	0	27.645	0	1910.176	0	-1e10	8	-1e10	8	-1E+10	1	-1E+10	1	-1E+10	1	-1E+10	1	-1E+10	1	-1E+10	1
4902554	25	C	10/11/2021	02:08	-136.436	49.365	0	1945.40	0	1.9650	0	34.5780	0	27.647	0	1919.902	0	-1e10	8	-1e10	8	-1E+10	1	-1E+10	1	-1E+10	1	-1E+10	1	-1E+10	1	-1E+10	1
4902554	25	C	10/11/2021	02:08	-136.436	49.365	0	1955.40	0	1.9600	0	34.5790	0	27.648	0	1929.726	0	-1e10	8	-1e10	8	-1E+10	1	-1E+10	1	-1E+10	1	-1E+10	1	-1E+10	1	-1E+10	1
4902554	25	C	10/11/2021	02:08	-136.436	49.365	0	1965.50	0	1.9560	0	34.5800	0	27.649	0	1939.647	0	-1e10	8	-1e10	8	-1E+10	1	-1E+10	1	-1E+10	1	-1E+10	1	-1E+10	1	-1E+10	1
4902554	25	C	10/11/2021	02:08	-136.436	49.365	0	1975.50	0	1.9500	0	34.5810	0	27.650	0	1949.470	0	-1e10	8	-1e10	8	-1E+10	1	-1E+10	1	-1E+10	1	-1E+10	1	-1E+10	1	-1E+10	1
4902554	25	C	10/11/2021	02:08	-136.436	49.365	0	1985.60	0	1.9430	0	34.5820	0	27.652	0	1959.390	0	-1e10	8	-1e10	8	-1E+10	1	-1E+10	1	-1E+10	1	-1E+10	1	-1E+10	1	-1E+10	1
4902554	25	C	10/11/2021	02:08	-136.436	49.365	0	1996.00	0	1.9360	0	34.5840	0	27.654	0	1969.605	0	-1e10	8	-1e10	8	-1E+10	1	-1E+10	1	-1E+10	1	-1E+10	1	-1E+10	1	-1E+10	1
4902554	25	C	10/11/2021	02:08	-136.436	49.365	0	2001.00	0	1.9340	0	34.5850	0	27.655	0	1974.516	0	-1e10	8	-1e10	8	-1E+10	1	-1E+10	1	-1E+10	1	-1E+10	1	-1E+10	1	-1E+10	1
4902554	25	C	10/11/2021	02:08	-136.436	49.365	0																										
4902554	26	C	10/21/2021	06:59	-136.478	49.300	0	0.90	0	11.5400	0	32.2520	0	24.540	0	0.892	0	-1e10	8	-1e10	8	-1E+10	1	-1E+10	1	-1E+10	1	-1E+10	1	-1E+10	1	-1E+10	1
4902554	26	C	10/21/2021	06:59	-136.478	49.300	0	1.90	0	11.5410	0	32.2530	0	24.541	0	1.884	0	-1e10	8	-1e10	8	-1E+10	1	-1E+10	1	-1E+10	1	-1E+10	1	-1E+10	1	-1E+10	1
4902554	26	C	10/21/2021	06:59	-136.478	49.300	0	2.90	0	11.5400	0	32.2540	0	24.542	0	2.875	0	-1e10	8	-1e10	8	-1E+10	1	-1E+10	1	-1E+10	1	-1E+10	1	-1E+10	1	-1E+10	1
4902554	26	C	10/21/2021	06:59	-136.478	49.300	0	4.10	0	11.5420	0	32.2540	0	24.542	0	4.065	0	-1e10	8	-1e10	8	-1E+10	1	-1E+10	1	-1E+10	1	-1E+10	1	-1E+10	1	-1E+10	1
4902554	26	C	10/21/2021	06:59	-136.478	49.300	0	5.10	0	11.5420	0	32.2540	0	24.542	0	5.057	0	-1e10	8	-1e10	8	-1E+10	1	-1E+10	1	-1E+10	1	-1E+10	1	-1E+10	1	-1E+10	1
4902554	26	C	10/21/2021	06:59	-136.478	49.300	0	5.90	0	11.5420	0	32.2540	0	24.542	0	5.850	0	-1e10	8	-1e10	8	-1E+10	1	-1E+10	1	-1E+10	1	-1E+10	1	-1E+10	1	-1E+10	1
4902554	26	C	10/21/2021	06:59	-136.478	49.300	0	6.80	0	11.5410	0	32.2550	0	24.543	0	6.742	0	-1e10	8	-1e10	8	-1E+10	1	-1E+10	1	-1E+10	1	-1E+10	1	-1E+10	1	-1E+10	1
4902554	26	C	10/21/2021	06:59	-136.478	49.300	0	8.00	0	11.5410	0	32.2540	0	24.542	0	7.932	0	-1e10	8	-1e10	8	-1E+10	1	-1E+10	1	-1E+10	1	-1E+10	1	-1E+10	1	-1E+10	1
4902554	26	C	10/21/2021	06:59	-136.478	49.300	0	9.00	0	11.5420	0	32.2550	0	24.543	0	8.923	0	-1e10	8	-1e10	8	-1E+10	1	-1E+10	1	-1E+10	1	-1E+10	1	-1E+10	1	-1E+10	1
4902554	26	C	10/21/2021	06:59	-136.478	49.300	0	9.90	0	11.5420	0	32.2560	0	24.543	0	9.816	0	-1e10	8	-1e10	8	-1E+10	1	-1E+10	1	-1E+10	1	-1E+10	1	-1E+10	1	-1E+10	1
4902554	26	C	10/21/2021	06:59	-136.478	49.300	0	11.00	0	11.5400	0	32.2530	0	24.541	0	10.906	0	-1e10	8	-1e10	8	-1E+10	1	-1E+10	1	-1E+10	1	-1E+10	1	-1E+10	1	-1E+10	1
4902554	26	C	10/21/2021	06:59	-136.478	49.300	0	12.00	0	11.5390	0	32.2550	0	24.543	0	11.898	0	-1e10	8	-1e10	8	-1E+10	1	-1E+10	1	-1E+10	1	-1E+10	1	-1E+10	1	-1E+10	1
4902554	26	C	10/21/2021	06:59	-136.478	49.300	0	13.10	0	11.5400	0	32.2550	0	24.543	0	12.988	0	-1e10	8	-1e10	8	-1E+10	1	-1E+10	1	-1E+10	1	-1E+10	1	-1E+10	1	-1E+10	1
4902554	26	C	10/21/2021	06:59	-136.478	49.300	0	13.80	0	11.5420	0	32.2560	0	24.544	0	13.682	0	-1e10	8	-1e10	8	-1E+10	1	-1E+10	1	-1E+10	1	-1E+10	1	-1E+10	1	-1E+10	1
4902554	26	C	10/21/2021	06:59	-136.478	49.300	0	14.80	0	11.5390	0	32.2560	0	24.544	0	14.674	0	-1e10	8	-1e10	8	-1E+10	1	-1E+10	1	-1E+10	1	-1E+10	1	-1E+10	1	-1E+10	1
4902554	26	C	10/21/2021	06:59	-136.478	49.300	0	15.80	0	11.5380	0	32.2560	0	24.544	0	15.665	0	-1e10	8	-1e10	8	-1E+10	1	-1E+10	1	-1E+10	1	-1E+10	1	-1E+10	1	-1E+10	1
4902554	26	C	10/21/2021	06:59	-136.478	49.300	0	16.80	0	11.5390	0	32.2560	0	24.544	0	16.656	0	-1e10	8	-1e10	8	-1E+10	1	-1E+10	1	-1E+10	1	-1E+10	1	-1E+10	1	-1E+10	1
4902554	26	C	10/21/2021	06:59	-136.478	49.300	0	17.80	0	11.5390	0	32.2560	0	24.544	0	17.648	0	-1e10	8	-1e10	8	-1E+10	1	-1E+10	1	-1E+10	1	-1E+10	1	-1E+10	1	-1E+10	1
4902554	26	C	10/21/2021	06:59	-136.478	49.300	0	18.80	0	11.5410	0	32.2560	0	24.544	0	18.639	0	-1e10	8	-1e10	8	-1E+10	1	-1E+10	1	-1E+10	1	-1E+10	1	-1E+10	1	-1E+10	1
4902554	26	C	10/21/2021	06:59	-136.478	49.300	0	19.80	0	11.5420	0	32.2560	0	24.544	0	19.631	0	-1e10	8	-1e10	8	-1E+10	1	-1E+10	1	-1E+10	1	-1E+10	1	-1E+10	1	-1E+10	1
4902554	26	C	10/21/2021	06:59	-136.478	49.300	0	20.90	0	11.5420	0	32.2570	0	24.544	0	20.721	0	-1e10	8	-1e10	8	-1E+10	1	-1E+10	1	-1E+10	1	-1E+10	1	-1E+10	1	-1E+10	1
4902554	26	C	10/21/2021	06:59	-136.478	49.300	0	21.90	0	11.5420	0	32.2560	0	24.544	0	21.712	0	-1e10	8	-1e10	8	-1E+10	1	-1E+10	1	-1E+10	1	-1E+10	1	-1E+10	1	-1E+10	1
4902554	26	C	10/21/2021	06:59	-136.478	49.300	0	22.90	0	11.5420	0	32.2570	0	24.544	0	22.704	0	-1e10	8	-1e10	8	-1E+10	1	-1E+10	1	-1E+10	1	-1E+10	1	-1E+10	1	-1E+10	1
4902554	26	C	10/21/2021	06:59	-136.478	49.300	0	24.00	0	11.5420	0	32.2570	0	24.545	0	23.794	0	-1e10	8	-1e10	8	-1E+10	1	-1E+10	1	-1E+10	1	-1E+10	1	-1E+10	1	-1E+10	1
4902554	26	C	10/21/2021	06:59	-136.478	49.300	0	25.00	0	11.5430	0	32.2560	0	24.544	0	24.786	0	-1e10	8	-1e10	8	-1E+10	1	-1E+10	1	-1E+10	1	-1E+10	1	-1E+10	1	-1E+10	1
4902554	26	C	10/21/2021	06:59	-136.478	49.300	0	26.00	0	11.5440	0	32.2570	0	24.544	0	25.777	0	-1e10	8	-1e10	8	-1E+10	1	-1E+10	1	-1E+10	1	-1E+10	1	-1E+10	1	-1E+10	1
4902554	26	C	10/21/2021	06:59	-136.478	49.300	0	26.90	0	11.5440	0	32.2570	0	24.544	0	26.669	0	-1e10	8	-1e10	8	-1E+10	1	-1E+10	1	-1E+10	1	-1E+10	1	-1E+10	1	-1E+10	1
4902554	26	C	10/21/2021	06:59	-136.478	49.300	0	27.90	0	11.5440	0	32.2560	0	24.543	0	27.661	0	-1e10	8	-1e10	8	-1E+10	1	-1E+10	1	-1E+10	1	-1E+10	1	-1E+10	1	-1E+10	1
4902554	26	C	10/21/2021	06:59	-136.478	49.300	0	28.80	0	11.5440	0	32.2560	0	24.543	0	28.553	0	-1e10	8	-1e10	8	-1E+10	1	-1E+10	1	-1E+10	1	-1E+10	1	-1E+10	1	-1E+10	1
4902554	26	C	10/21/2021	06:59	-136.478	49.300	0	29.90	0	11.5450	0	32.2560	0	24.543	0	29.643	0	-1e10	8	-1e10	8	-1E+10	1	-1E+10	1	-1E+10	1	-1E+10	1	-1E+10	1	-1E+10	1
4902554	26	C	10/21/2021	06:59	-136.478	49.300	0	30.90	0	11.5440	0	32.2560	0	24.544	0	30.635	0	-1e10	8	-1e10	8	-1E+10	1	-1E+10	1	-1E+10	1	-1E+10	1	-1E+10	1	-1E+10	1
4902554	26	C	10/21/2021	06:59	-136.478	49.300	0	31.90	0	11.5440	0	32.2560	0	24.544	0	31.626	0	-1e10	8	-1e10	8	-1E+10	1	-1E+10	1	-1E+10	1	-1E+10	1	-1E+10	1	-1E+10	1
4902554	26	C	10/21/2021	06:59	-136.478	49.300	0	32.80	0	11.5420	0	32.2550	0	24.543	0	32.518	0	-1e10	8	-1e10	8	-1E+10	1	-1E+10	1	-1E+10	1	-1E+10	1	-1E+10	1	-1E+10	1
4902554	26	C	10/21/2021	06:59	-136.478	49.300	0	33.80	0	11.5340	0	32.2580	0	24.547	0	33.510	0	-1e10	8	-1e10	8	-1E+10	1	-1E+10	1	-1E+10	1	-1E+10	1	-1E+10	1	-1E+10	1
4902554	26	C	10/21/2021	06:59	-136.478	49.300	0	35.00	0	11.5210	0	32.2580	0	24.549	0	34.699	0	-1e10	8	-1e10	8	-1E+10	1	-1E+10	1	-1E+10	1	-1E+10	1	-1E+10	1	-1E+10	1
4902554	26	C	10/21/2021	06:59	-136.478	49.300	0	36.10	0	11.5210	0	32.2570	0	24.549	0	35.790	0	-1e10	8	-1e10	8	-1E+10	1	-1E+10	1	-1E+10	1	-1E+10	1	-1E+10	1	-1E+10	1
4902554	26	C	10/21/2021	06:59	-136.478	49.300	0	37.30	0	11.4930	0	32.2590	0	24.555	0	36.979	0	-1e10	8	-1e10	8	-1E+10	1	-1E+10	1	-1E+10	1	-1E+10	1	-1E+10	1	-1E+10	1
4902554	26	C	10/21/2021	06:59	-136.478	49.300	0	38.00	0	11.4930	0	32.2560	0	24.553	0	37.673	0	-1e10	8	-1e10	8	-1E+10	1	-1E+10	1	-1E+10	1	-1E+10	1	-1E+10	1	-1E+10	1
4902554	26	C	10/21/2021	06:59	-136.478	49.300	0	38.90	0	11.4920	0	32.2570	0	24.554	0	38.565	0	-1e10	8	-1e10	8	-1E+10	1	-1E+10	1	-1E+10	1	-1E+10	1	-1E+10	1	-1E+10	1
4902554	26	C	10/21/2021	06:59	-136.478	49.300	0	39.80	0	11.4920	0	32.2570	0	24.554	0	39.458	0	-1e10	8	-1e10	8	-1E+10	1	-1E+10	1	-1E+10	1	-1E+10	1	-1E+10	1	-1E+10	1
4902554	26	C	10/21/2021	06:59	-136.478	49.300	0	40.80	0	11.4920	0	32.2570	0	24.554	0	40.449	0	-1e10	8	-1e10	8	-1E+10	1	-1E+10	1	-1E+10	1	-1E+10	1	-1E+10	1	-1E+10	1
4902554	26	C	10/21/2021	06:59	-136.478	49.300	0	41.90	0	11.4920	0	32.2570	0	24.554	0	41.539	0	-1e10	8	-1e10	8	-1E+10	1	-1E+10	1	-1E+10	1	-1E+10	1	-1E+10	1	-1E+10	1
4902554	26	C	10/21/2021	06:59	-136.478	49.300	0	43.10	0	11.4920	0	32.2570	0	24.554	0	42.729	0	-1e10	8	-1e10	8	-1E+10	1	-1E+10	1	-1E+10	1	-1E+10	1	-1E+10	1	-1E+10	1
4902554	26	C	10/21/2021	06:59	-136.478	49.300	0	44.00	0	11.4920	0	32.2560	0	24.553	0	43.621	0	-1e10	8	-1e10	8	-1E+10	1	-1E+10	1	-1E+10	1	-1E+10	1	-1E+10	1	-1E+10	1
4902554	26	C	10/21/2021	06:59	-136.478	49.300	0	45.20	0	11.4930	0	32.2570	0	24.554	0	44.810	0	-1e10	8	-1e10	8	-1E+10	1	-1E+10	1	-1E+10	1	-1E+10	1	-1E+10	1	-1E+10	1
4902554	26	C	10/21/2021	06:59	-136.478	49.300	0	46.10	0	11.4930	0	32.2570	0	24.554	0	45.703	0	-1e10	8	-1e10	8	-1E+10	1	-1E+10	1	-1E+10	1	-1E+10	1	-1E+10	1	-1E+10	1
4902554	26	C	10/21/2021	06:59	-136.478	49.300	0	46.80	0	11.4910	0	32.2560	0	24.553	0	46.396	0	-1e10	8	-1e10	8	-1E+10	1	-1E+10	1	-1E+10	1	-1E+10	1	-1E+10	1	-1E+10	1
4902554	26	C	10/21/2021	06:59	-136.478	49.300	0	48.00	0	11.4900	0	32.2570	0	24.554	0	47.586	0	-1e10	8	-1e10	8	-1E+10	1	-1E+10	1	-1E+10	1	-1E+10	1	-1E+10	1	-1E+10	1
4902554	26	C	10/21/2021	06:59	-136.478	49.300	0	49.10	0	11.4890	0	32.2530	0	24.552	0	48.676	0	-1e10	8	-1e10	8	-1E+10	1	-1E+10	1	-1E+10	1	-1E+10	1	-1E+10	1	-1E+10	1
4902554	26	C	10/21/2021	06:59	-136.478	49.300	0	50.30	0	11.4890	0	32.2580	0	24.555	0	49.866	0	-1e10	8	-1e10	8	-1E+10	1	-1E+10	1	-1E+10	1	-1E+10	1	-1E+10	1	-1E+10	1
4902554	26	C	10/21/2021	06:59	-136.478	49.300	0	51.00	0	11.4880	0	32.2580	0	24.556	0	50.560	0	-1e10	8	-1e10	8	-1E+10	1	-1E+10	1	-1E+10	1	-1E+10	1	-1E+10	1	-1E+10	1
4902554	26	C	10/21/2021	06:59	-136.478	49.300	0	51.90	0	11.4890	0	32.2550	0	24.553	0	51.452	0	-1e10	8	-1e10	8	-1E+10	1	-1E+10	1	-1E+10	1	-1E+10	1	-1E+10	1	-1E+10	1
4902554	26	C	10/21/2021	06:59	-136.478	49.300	0	52.80	0	11.4870	0	32.2580	0	24.556	0	52.344	0	-1e10	8	-1e10	8	-1E+10	1	-1E+10	1	-1E+10	1	-1E+10	1	-1E+10	1	-1E+10	1
4902554	26	C	10/21/2021	06:59	-136.478	49.300	0	53.90	0	11.4840	0	32.2580	0	24.556	0	53.434	0	-1e10	8	-1e10	8	-1E+10	1	-1E+10	1	-1E+10	1	-1E+10	1	-1E+10	1	-1E+10	1
4902554	26	C	10/21/2021	06:59	-136.478	49.300	0	55.20	0	11.4760	0	32.2590	0	24.559	0	54.723	0	-1e10	8	-1e10	8	-1E+10	1	-1E+10	1	-1E+10	1	-1E+10	1	-1E+10	1	-1E+10	1
4902554	26	C	10/21/2021	06:59	-136.478	49.300	0	55.90	0	11.4700	0	32.2600	0	24.561	0	55.417	0	-1e10	8	-1e10	8	-1E+10	1	-1E+10	1	-1E+10	1	-1E+10	1	-1E+10	1	-1E+10	1
4902554	26	C	10/21/2021	06:59	-136.478	49.300	0	56.90	0	11.4410	0	32.2620	0	24.567	0	56.408	0	-1e10	8	-1e10	8	-1E+10	1	-1E+10	1	-1E+10	1	-1E+10	1	-1E+10	1	-1E+10	1
4902554	26	C	10/21/2021	06:59	-136.478	49.300	0	57.90	0	11.3430	0	32.2610	0	24.584	0	57.399	0	-1e10	8	-1e10	8	-1E+10	1	-1E+10	1	-1E+10	1	-1E+10	1	-1E+10	1	-1E+10	1
4902554	26	C	10/21/2021	06:59	-136.478	49.300	0	59.10	0	11.1530	0	32.2800	0	24.633	0	58.589	0	-1e10	8	-1e10	8	-1E+10	1	-1E+10	1	-1E+10	1	-1E+10	1	-1E+10	1	-1E+10	1
4902554	26	C	10/21/2021	06:59	-136.478	49.300	0	60.00	0	10.8990	0	32.2860	0	24.682	0	59.481	0	-1e10	8	-1e10	8	-1E+10	1	-1E+10	1	-1E+10	1	-1E+10	1	-1E+10	1	-1E+10	1
4902554	26	C	10/21/2021	06:59	-136.478	49.300	0	61.30	0	10.4970	0	32.3090	0	24.769	0	60.769	0	-1e10	8	-1e10	8	-1E+10	1	-1E+10	1	-1E+10	1	-1E+10	1	-1E+10	1	-1E+10	1
4902554	26	C	10/21/2021	06:59	-136.478	49.300	0	62.10	0	10.3960	0	32.3070	0	24.785	0	61.562	0	-1e10	8	-1e10	8	-1E+10	1	-1E+10	1	-1E+10	1	-1E+10	1	-1E+10	1	-1E+10	1
4902554	26	C	10/21/2021	06:59	-136.478	49.300	0	63.10	0	10.2750	0	32.3050	0	24.804	0	62.553	0	-1e10	8	-1e10	8	-1E+10	1	-1E+10	1	-1E+10	1	-1E+10	1	-1E+10	1	-1E+10	1
4902554	26	C	10/21/2021	06:59	-136.478	49.300	0	64.00	0	9.6910	0	32.3330	0	24.922	0	63.446	0	-1e10	8	-1e10	8	-1E+10	1	-1E+10	1	-1E+10	1	-1E+10	1	-1E+10	1	-1E+10	1
4902554	26	C	10/21/2021	06:59	-136.478	49.300	0	65.00	0	9.1730	0	32.3500	0	25.018	0	64.437	0	-1e10	8	-1e10	8	-1E+10	1	-1E+10	1	-1E+10	1	-1E+10	1	-1E+10	1	-1E+10	1
4902554	26	C	10/21/2021	06:59	-136.478	49.300	0	65.90	0	8.6470	0	32.3770	0	25.120	0	65.329	0	-1e10	8	-1e10	8	-1E+10	1	-1E+10	1	-1E+10	1	-1E+10	1	-1E+10	1	-1E+10	1
4902554	26	C	10/21/2021	06:59	-136.478	49.300	0	66.80	0	7.9300	0	32.4220	0	25.261	0	66.221	0	-1e10	8	-1e10	8	-1E+10	1	-1E+10	1	-1E+10	1	-1E+10	1	-1E+10	1	-1E+10	1
4902554	26	C	10/21/2021	06:59	-136.478	49.300	0	67.90	0	7.6890	0	32.4300	0	25.301	0	67.311	0	-1e10	8	-1e10	8	-1E+10	1	-1E+10	1	-1E+10	1	-1E+10	1	-1E+10	1	-1E+10	1
4902554	26	C	10/21/2021	06:59	-136.478	49.300	0	69.10	0	7.6170	0	32.4310	0	25.312	0	68.501	0	-1e10	8	-1e10	8	-1E+10	1	-1E+10	1	-1E+10	1	-1E+10	1	-1E+10	1	-1E+10	1
4902554	26	C	10/21/2021	06:59	-136.478	49.300	0	70.00	0	7.4690	0	32.4390	0	25.339	0	69.393	0	-1e10	8	-1e10	8	-1E+10	1	-1E+10	1	-1E+10	1	-1E+10	1	-1E+10	1	-1E+10	1
4902554	26	C	10/21/2021	06:59	-136.478	49.300	0	70.90	0	7.2990	0	32.4580	0	25.378	0	70.285	0	-1e10	8	-1e10	8	-1E+10	1	-1E+10	1	-1E+10	1	-1E+10	1	-1E+10	1	-1E+10	1
4902554	26	C	10/21/2021	06:59	-136.478	49.300	0	71.70	0	7.2070	0	32.4530	0	25.386	0	71.078	0	-1e10	8	-1e10	8	-1E+10	1	-1E+10	1	-1E+10	1	-1E+10	1	-1E+10	1	-1E+10	1
4902554	26	C	10/21/2021	06:59	-136.478	49.300	0	72.70	0	7.0910	0	32.4550	0	25.403	0	72.069	0	-1e10	8	-1e10	8	-1E+10	1	-1E+10	1	-1E+10	1	-1E+10	1	-1E+10	1	-1E+10	1
4902554	26	C	10/21/2021	06:59	-136.478	49.300	0	73.80	0	7.0380	0	32.4560	0	25.411	0	73.159	0	-1e10	8	-1e10	8	-1E+10	1	-1E+10	1	-1E+10	1	-1E+10	1	-1E+10	1	-1E+10	1
4902554	26	C	10/21/2021	06:59	-136.478	49.300	0	74.80	0	7.0140	0	32.4540	0	25.413	0	74.150	0	-1e10	8	-1e10	8	-1E+10	1	-1E+10	1	-1E+10	1	-1E+10	1	-1E+10	1	-1E+10	1
4902554	26	C	10/21/2021	06:59	-136.478	49.300	0	76.00	0	6.8880	0	32.4700	0	25.442	0	75.339	0	-1e10	8	-1e10	8	-1E+10	1	-1E+10	1	-1E+10	1	-1E+10	1	-1E+10	1	-1E+10	1
4902554	26	C	10/21/2021	06:59	-136.478	49.300	0	76.90	0	6.7570	0	32.4570	0	25.449	0	76.231	0	-1e10	8	-1e10	8	-1E+10	1	-1E+10	1	-1E+10	1	-1E+10	1	-1E+10	1	-1E+10	1
4902554	26	C	10/21/2021	06:59	-136.478	49.300	0	77.80	0	6.7280	0	32.4580	0	25.454	0	77.123	0	-1e10	8	-1e10	8	-1E+10	1	-1E+10	1	-1E+10	1	-1E+10	1	-1E+10	1	-1E+10	1
4902554	26	C	10/21/2021	06:59	-136.478	49.300	0	79.00	0	6.7060	0	32.4600	0	25.458	0	78.313	0	-1e10	8	-1e10	8	-1E+10	1	-1E+10	1	-1E+10	1	-1E+10	1	-1E+10	1	-1E+10	1
4902554	26	C	10/21/2021	06:59	-136.478	49.300	0	80.00	0	6.7010	0	32.4610	0	25.460	0	79.304	0	-1e10	8	-1e10	8	-1E+10	1	-1E+10	1	-1E+10	1	-1E+10	1	-1E+10	1	-1E+10	1
4902554	26	C	10/21/2021	06:59	-136.478	49.300	0	81.00	0	6.6960	0	32.4620	0	25.461	0	80.295	0	-1e10	8	-1e10	8	-1E+10	1	-1E+10	1	-1E+10	1	-1E+10	1	-1E+10	1	-1E+10	1
4902554	26	C	10/21/2021	06:59	-136.478	49.300	0	81.90	0	6.6770	0	32.4650	0	25.466	0	81.187	0	-1e10	8	-1e10	8	-1E+10	1	-1E+10	1	-1E+10	1	-1E+10	1	-1E+10	1	-1E+10	1
4902554	26	C	10/21/2021	06:59	-136.478	49.300	0	82.90	0	6.5960	0	32.4610	0	25.473	0	82.178	0	-1e10	8	-1e10	8	-1E+10	1	-1E+10	1	-1E+10	1	-1E+10	1	-1E+10	1	-1E+10	1
4902554	26	C	10/21/2021	06:59	-136.478	49.300	0	83.90	0	6.5420	0	32.4650	0	25.483	0	83.169	0	-1e10	8	-1e10	8	-1E+10	1	-1E+10	1	-1E+10	1	-1E+10	1	-1E+10	1	-1E+10	1
4902554	26	C	10/21/2021	06:59	-136.478	49.300	0	84.90	0	6.5500	0	32.4740	0	25.489	0	84.160	0	-1e10	8	-1e10	8	-1E+10	1	-1E+10	1	-1E+10	1	-1E+10	1	-1E+10	1	-1E+10	1
4902554	26	C	10/21/2021	06:59	-136.478	49.300	0	86.20	0	6.5800	0	32.4830	0	25.493	0	85.449	0	-1e10	8	-1e10	8	-1E+10	1	-1E+10	1	-1E+10	1	-1E+10	1	-1E+10	1	-1E+10	1
4902554	26	C	10/21/2021	06:59	-136.478	49.300	0	86.90	0	6.5640	0	32.4800	0	25.492	0	86.142	0	-1e10	8	-1e10	8	-1E+10	1	-1E+10	1	-1E+10	1	-1E+10	1	-1E+10	1	-1E+10	1
4902554	26	C	10/21/2021	06:59	-136.478	49.300	0	87.80	0	6.4680	0	32.4760	0	25.501	0	87.034	0	-1e10	8	-1e10	8	-1E+10	1	-1E+10	1	-1E+10	1	-1E+10	1	-1E+10	1	-1E+10	1
4902554	26	C	10/21/2021	06:59	-136.478	49.300	0	89.00	0	6.3500	0	32.4710	0	25.512	0	88.224	0	-1e10	8	-1e10	8	-1E+10	1	-1E+10	1	-1E+10	1	-1E+10	1	-1E+10	1	-1E+10	1
4902554	26	C	10/21/2021	06:59	-136.478	49.300	0	90.10	0	6.3250	0	32.4720	0	25.516	0	89.314	0	-1e10	8	-1e10	8	-1E+10	1	-1E+10	1	-1E+10	1	-1E+10	1	-1E+10	1	-1E+10	1
4902554	26	C	10/21/2021	06:59	-136.478	49.300	0	90.90	0	6.3080	0	32.4740	0	25.520	0	90.107	0	-1e10	8	-1e10	8	-1E+10	1	-1E+10	1	-1E+10	1	-1E+10	1	-1E+10	1	-1E+10	1
4902554	26	C	10/21/2021	06:59	-136.478	49.300	0	92.00	0	6.2880	0	32.4750	0	25.523	0	91.197	0	-1e10	8	-1e10	8	-1E+10	1	-1E+10	1	-1E+10	1	-1E+10	1	-1E+10	1	-1E+10	1
4902554	26	C	10/21/2021	06:59	-136.478	49.300	0	92.90	0	6.2640	0	32.4750	0	25.526	0	92.089	0	-1e10	8	-1e10	8	-1E+10	1	-1E+10	1	-1E+10	1	-1E+10	1	-1E+10	1	-1E+10	1
4902554	26	C	10/21/2021	06:59	-136.478	49.300	0	94.10	0	6.2260	0	32.4770	0	25.533	0	93.278	0	-1e10	8	-1e10	8	-1E+10	1	-1E+10	1	-1E+10	1	-1E+10	1	-1E+10	1	-1E+10	1
4902554	26	C	10/21/2021	06:59	-136.478	49.300	0	95.00	0	6.1930	0	32.4760	0	25.536	0	94.170	0	-1e10	8	-1e10	8	-1E+10	1	-1E+10	1	-1E+10	1	-1E+10	1	-1E+10	1	-1E+10	1
4902554	26	C	10/21/2021	06:59	-136.478	49.300	0	96.00	0	6.1400	0	32.4820	0	25.547	0	95.161	0	-1e10	8	-1e10	8	-1E+10	1	-1E+10	1	-1E+10	1	-1E+10	1	-1E+10	1	-1E+10	1
4902554	26	C	10/21/2021	06:59	-136.478	49.300	0	97.10	0	6.0960	0	32.4840	0	25.554	0	96.251	0	-1e10	8	-1e10	8	-1E+10	1	-1E+10	1	-1E+10	1	-1E+10	1	-1E+10	1	-1E+10	1
4902554	26	C	10/21/2021	06:59	-136.478	49.300	0	97.90	0	6.0790	0	32.4840	0	25.556	0	97.044	0	-1e10	8	-1e10	8	-1E+10	1	-1E+10	1	-1E+10	1	-1E+10	1	-1E+10	1	-1E+10	1
4902554	26	C	10/21/2021	06:59	-136.478	49.300	0	98.80	0	6.0440	0	32.4880	0	25.564	0	97.936	0	-1e10	8	-1e10	8	-1E+10	1	-1E+10	1	-1E+10	1	-1E+10	1	-1E+10	1	-1E+10	1
4902554	26	C	10/21/2021	06:59	-136.478	49.300	0	99.90	0	6.0010	0	32.4920	0	25.572	0	99.026	0	-1e10	8	-1e10	8	-1E+10	1	-1E+10	1	-1E+10	1	-1E+10	1	-1E+10	1	-1E+10	1
4902554	26	C	10/21/2021	06:59	-136.478	49.300	0	101.10	0	5.9740	0	32.4940	0	25.577	0	100.215	0	-1e10	8	-1e10	8	-1E+10	1	-1E+10	1	-1E+10	1	-1E+10	1	-1E+10	1	-1E+10	1
4902554	26	C	10/21/2021	06:59	-136.478	49.300	0	102.00	0	5.9680	0	32.4930	0	25.577	0	101.107	0	-1e10	8	-1e10	8	-1E+10	1	-1E+10	1	-1E+10	1	-1E+10	1	-1E+10	1	-1E+10	1
4902554	26	C	10/21/2021	06:59	-136.478	49.300	0	102.70	0	5.9340	0	32.4950	0	25.583	0	101.801	0	-1e10	8	-1e10	8	-1E+10	1	-1E+10	1	-1E+10	1	-1E+10	1	-1E+10	1	-1E+10	1
4902554	26	C	10/21/2021	06:59	-136.478	49.300	0	104.10	0	5.8800	0	32.5050	0	25.597	0	103.188	0	-1e10	8	-1e10	8	-1E+10	1	-1E+10	1	-1E+10	1	-1E+10	1	-1E+10	1	-1E+10	1
4902554	26	C	10/21/2021	06:59	-136.478	49.300	0	105.10	0	5.8430	0	32.5110	0	25.606	0	104.179	0	-1e10	8	-1e10	8	-1E+10	1	-1E+10	1	-1E+10	1	-1E+10	1	-1E+10	1	-1E+10	1
4902554	26	C	10/21/2021	06:59	-136.478	49.300	0	106.10	0	5.8050	0	32.5190	0	25.617	0	105.170	0	-1e10	8	-1e10	8	-1E+10	1	-1E+10	1	-1E+10	1	-1E+10	1	-1E+10	1	-1E+10	1
4902554	26	C	10/21/2021	06:59	-136.478	49.300	0	107.10	0	5.7990	0	32.5230	0	25.621	0	106.161	0	-1e10	8	-1e10	8	-1E+10	1	-1E+10	1	-1E+10	1	-1E+10	1	-1E+10	1	-1E+10	1
4902554	26	C	10/21/2021	06:59	-136.478	49.300	0	107.90	0	5.7880	0	32.5270	0	25.626	0	106.954	0	-1e10	8	-1e10	8	-1E+10	1	-1E+10	1	-1E+10	1	-1E+10	1	-1E+10	1	-1E+10	1
4902554	26	C	10/21/2021	06:59	-136.478	49.300	0	108.70	0	5.7600	0	32.5340	0	25.635	0	107.747	0	-1e10	8	-1e10	8	-1E+10	1	-1E+10	1	-1E+10	1	-1E+10	1	-1E+10	1	-1E+10	1
4902554	26	C	10/21/2021	06:59	-136.478	49.300	0	109.80	0	5.6930	0	32.5400	0	25.647	0	108.837	0	-1e10	8	-1e10	8	-1E+10	1	-1E+10	1	-1E+10	1	-1E+10	1	-1E+10	1	-1E+10	1
4902554	26	C	10/21/2021	06:59	-136.478	49.300	0	111.00	0	5.6930	0	32.5590	0	25.662	0	110.026	0	-1e10	8	-1e10	8	-1E+10	1	-1E+10	1	-1E+10	1	-1E+10	1	-1E+10	1	-1E+10	1
4902554	26	C	10/21/2021	06:59	-136.478	49.300	0	112.10	0	5.6670	0	32.5720	0	25.676	0	111.116	0	-1e10	8	-1e10	8	-1E+10	1	-1E+10	1	-1E+10	1	-1E+10	1	-1E+10	1	-1E+10	1
4902554	26	C	10/21/2021	06:59	-136.478	49.300	0	113.00	0	5.6630	0	32.5750	0	25.678	0	112.008	0	-1e10	8	-1e10	8	-1E+10	1	-1E+10	1	-1E+10	1	-1E+10	1	-1E+10	1	-1E+10	1
4902554	26	C	10/21/2021	06:59	-136.478	49.300	0	113.80	0	5.6840	0	32.5880	0	25.686	0	112.801	0	-1e10	8	-1e10	8	-1E+10	1	-1E+10	1	-1E+10	1	-1E+10	1	-1E+10	1	-1E+10	1
4902554	26	C	10/21/2021	06:59	-136.478	49.300	0	115.00	0	5.7010	0	32.6200	0	25.710	0	113.990	0	-1e10	8	-1e10	8	-1E+10	1	-1E+10	1	-1E+10	1	-1E+10	1	-1E+10	1	-1E+10	1
4902554	26	C	10/21/2021	06:59	-136.478	49.300	0	116.10	0	5.7240	0	32.6590	0	25.738	0	115.080	0	-1e10	8	-1e10	8	-1E+10	1	-1E+10	1	-1E+10	1	-1E+10	1	-1E+10	1	-1E+10	1
4902554	26	C	10/21/2021	06:59	-136.478	49.300	0	116.90	0	5.7360	0	32.6780	0	25.751	0	115.872	0	-1e10	8	-1e10	8	-1E+10	1	-1E+10	1	-1E+10	1	-1E+10	1	-1E+10	1	-1E+10	1
4902554	26	C	10/21/2021	06:59	-136.478	49.300	0	117.70	0	5.7400	0	32.6870	0	25.758	0	116.665	0	-1e10	8	-1e10	8	-1E+10	1	-1E+10	1	-1E+10	1	-1E+10	1	-1E+10	1	-1E+10	1
4902554	26	C	10/21/2021	06:59	-136.478	49.300	0	118.70	0	5.7630	0	32.7150	0	25.777	0	117.656	0	-1e10	8	-1e10	8	-1E+10	1	-1E+10	1	-1E+10	1	-1E+10	1	-1E+10	1	-1E+10	1
4902554	26	C	10/21/2021	06:59	-136.478	49.300	0	119.70	0	5.7940	0	32.7450	0	25.797	0	118.647	0	-1e10	8	-1e10	8	-1E+10	1	-1E+10	1	-1E+10	1	-1E+10	1	-1E+10	1	-1E+10	1
4902554	26	C	10/21/2021	06:59	-136.478	49.300	0	120.80	0	5.8390	0	32.7870	0	25.825	0	119.737	0	-1e10	8	-1e10	8	-1E+10	1	-1E+10	1	-1E+10	1	-1E+10	1	-1E+10	1	-1E+10	1
4902554	26	C	10/21/2021	06:59	-136.478	49.300	0	122.00	0	5.8580	0	32.8030	0	25.836	0	120.926	0	-1e10	8	-1e10	8	-1E+10	1	-1E+10	1	-1E+10	1	-1E+10	1	-1E+10	1	-1E+10	1
4902554	26	C	10/21/2021	06:59	-136.478	49.300	0	123.10	0	5.8590	0	32.8050	0	25.837	0	122.016	0	-1e10	8	-1e10	8	-1E+10	1	-1E+10	1	-1E+10	1	-1E+10	1	-1E+10	1	-1E+10	1
4902554	26	C	10/21/2021	06:59	-136.478	49.300	0	124.00	0	5.8780	0	32.8500	0	25.870	0	122.908	0	-1e10	8	-1e10	8	-1E+10	1	-1E+10	1	-1E+10	1	-1E+10	1	-1E+10	1	-1E+10	1
4902554	26	C	10/21/2021	06:59	-136.478	49.300	0	124.90	0	5.9010	0	32.9070	0	25.913	0	123.800	0	-1e10	8	-1e10	8	-1E+10	1	-1E+10	1	-1E+10	1	-1E+10	1	-1E+10	1	-1E+10	1
4902554	26	C	10/21/2021	06:59	-136.478	49.300	0	126.00	0	5.9350	0	32.9530	0	25.945	0	124.890	0	-1e10	8	-1e10	8	-1E+10	1	-1E+10	1	-1E+10	1	-1E+10	1	-1E+10	1	-1E+10	1
4902554	26	C	10/21/2021	06:59	-136.478	49.300	0	126.90	0	5.9340	0	32.9620	0	25.952	0	125.781	0	-1e10	8	-1e10	8	-1E+10	1	-1E+10	1	-1E+10	1	-1E+10	1	-1E+10	1	-1E+10	1
4902554	26	C	10/21/2021	06:59	-136.478	49.300	0	128.00	0	5.9340	0	32.9690	0	25.958	0	126.871	0	-1e10	8	-1e10	8	-1E+10	1	-1E+10	1	-1E+10	1	-1E+10	1	-1E+10	1	-1E+10	1
4902554	26	C	10/21/2021	06:59	-136.478	49.300	0	129.00	0	5.9460	0	32.9880	0	25.971	0	127.862	0	-1e10	8	-1e10	8	-1E+10	1	-1E+10	1	-1E+10	1	-1E+10	1	-1E+10	1	-1E+10	1
4902554	26	C	10/21/2021	06:59	-136.478	49.300	0	130.10	0	6.0840	0	33.0830	0	26.029	0	128.952	0	-1e10	8	-1e10	8	-1E+10	1	-1E+10	1	-1E+10	1	-1E+10	1	-1E+10	1	-1E+10	1
4902554	26	C	10/21/2021	06:59	-136.478	49.300	0	130.80	0	6.0940	0	33.0940	0	26.037	0	129.646	0	-1e10	8	-1e10	8	-1E+10	1	-1E+10	1	-1E+10	1	-1E+10	1	-1E+10	1	-1E+10	1
4902554	26	C	10/21/2021	06:59	-136.478	49.300	0	132.00	0	6.0930	0	33.1070	0	26.047	0	130.835	0	-1e10	8	-1e10	8	-1E+10	1	-1E+10	1	-1E+10	1	-1E+10	1	-1E+10	1	-1E+10	1
4902554	26	C	10/21/2021	06:59	-136.478	49.300	0	133.10	0	6.0930	0	33.1200	0	26.057	0	131.925	0	-1e10	8	-1e10	8	-1E+10	1	-1E+10	1	-1E+10	1	-1E+10	1	-1E+10	1	-1E+10	1
4902554	26	C	10/21/2021	06:59	-136.478	49.300	0	133.80	0	6.0940	0	33.1220	0	26.059	0	132.618	0	-1e10	8	-1e10	8	-1E+10	1	-1E+10	1	-1E+10	1	-1E+10	1	-1E+10	1	-1E+10	1
4902554	26	C	10/21/2021	06:59	-136.478	49.300	0	134.90	0	6.0940	0	33.1450	0	26.077	0	133.708	0	-1e10	8	-1e10	8	-1E+10	1	-1E+10	1	-1E+10	1	-1E+10	1	-1E+10	1	-1E+10	1
4902554	26	C	10/21/2021	06:59	-136.478	49.300	0	136.10	0	6.0920	0	33.1620	0	26.091	0	134.897	0	-1e10	8	-1e10	8	-1E+10	1	-1E+10	1	-1E+10	1	-1E+10	1	-1E+10	1	-1E+10	1
4902554	26	C	10/21/2021	06:59	-136.478	49.300	0	136.90	0	6.0820	0	33.1830	0	26.108	0	135.690	0	-1e10	8	-1e10	8	-1E+10	1	-1E+10	1	-1E+10	1	-1E+10	1	-1E+10	1	-1E+10	1
4902554	26	C	10/21/2021	06:59	-136.478	49.300	0	137.70	0	6.1050	0	33.2320	0	26.144	0	136.483	0	-1e10	8	-1e10	8	-1E+10	1	-1E+10	1	-1E+10	1	-1E+10	1	-1E+10	1	-1E+10	1
4902554	26	C	10/21/2021	06:59	-136.478	49.300	0	139.00	0	6.1120	0	33.2500	0	26.158	0	137.771	0	-1e10	8	-1e10	8	-1E+10	1	-1E+10	1	-1E+10	1	-1E+10	1	-1E+10	1	-1E+10	1
4902554	26	C	10/21/2021	06:59	-136.478	49.300	0	140.30	0	6.1110	0	33.2700	0	26.174	0	139.059	0	-1e10	8	-1e10	8	-1E+10	1	-1E+10	1	-1E+10	1	-1E+10	1	-1E+10	1	-1E+10	1
4902554	26	C	10/21/2021	06:59	-136.478	49.300	0	141.10	0	6.1090	0	33.2820	0	26.183	0	139.852	0	-1e10	8	-1e10	8	-1E+10	1	-1E+10	1	-1E+10	1	-1E+10	1	-1E+10	1	-1E+10	1
4902554	26	C	10/21/2021	06:59	-136.478	49.300	0	142.00	0	6.1080	0	33.2880	0	26.188	0	140.743	0	-1e10	8	-1e10	8	-1E+10	1	-1E+10	1	-1E+10	1	-1E+10	1	-1E+10	1	-1E+10	1
4902554	26	C	10/21/2021	06:59	-136.478	49.300	0	142.90	0	6.0980	0	33.3340	0	26.226	0	141.635	0	-1e10	8	-1e10	8	-1E+10	1	-1E+10	1	-1E+10	1	-1E+10	1	-1E+10	1	-1E+10	1
4902554	26	C	10/21/2021	06:59	-136.478	49.300	0	143.80	0	6.0920	0	33.3590	0	26.246	0	142.527	0	-1e10	8	-1e10	8	-1E+10	1	-1E+10	1	-1E+10	1	-1E+10	1	-1E+10	1	-1E+10	1
4902554	26	C	10/21/2021	06:59	-136.478	49.300	0	144.70	0	6.0790	0	33.3770	0	26.262	0	143.418	0	-1e10	8	-1e10	8	-1E+10	1	-1E+10	1	-1E+10	1	-1E+10	1	-1E+10	1	-1E+10	1
4902554	26	C	10/21/2021	06:59	-136.478	49.300	0	145.60	0	6.0750	0	33.3810	0	26.266	0	144.310	0	-1e10	8	-1e10	8	-1E+10	1	-1E+10	1	-1E+10	1	-1E+10	1	-1E+10	1	-1E+10	1
4902554	26	C	10/21/2021	06:59	-136.478	49.300	0	146.60	0	6.0700	0	33.3930	0	26.276	0	145.301	0	-1e10	8	-1e10	8	-1E+10	1	-1E+10	1	-1E+10	1	-1E+10	1	-1E+10	1	-1E+10	1
4902554	26	C	10/21/2021	06:59	-136.478	49.300	0	147.60	0	6.0610	0	33.4220	0	26.300	0	146.292	0	-1e10	8	-1e10	8	-1E+10	1	-1E+10	1	-1E+10	1	-1E+10	1	-1E+10	1	-1E+10	1
4902554	26	C	10/21/2021	06:59	-136.478	49.300	0	148.50	0	6.0510	0	33.4520	0	26.325	0	147.183	0	-1e10	8	-1e10	8	-1E+10	1	-1E+10	1	-1E+10	1	-1E+10	1	-1E+10	1	-1E+10	1
4902554	26	C	10/21/2021	06:59	-136.478	49.300	0	149.90	0	6.0470	0	33.4620	0	26.333	0	148.570	0	-1e10	8	-1e10	8	-1E+10	1	-1E+10	1	-1E+10	1	-1E+10	1	-1E+10	1	-1E+10	1
4902554	26	C	10/21/2021	06:59	-136.478	49.300	0	151.40	0	6.0470	0	33.4690	0	26.339	0	150.057	0	-1e10	8	-1e10	8	-1E+10	1	-1E+10	1	-1E+10	1	-1E+10	1	-1E+10	1	-1E+10	1
4902554	26	C	10/21/2021	06:59	-136.478	49.300	0	152.40	0	6.0380	0	33.5080	0	26.371	0	151.047	0	-1e10	8	-1e10	8	-1E+10	1	-1E+10	1	-1E+10	1	-1E+10	1	-1E+10	1	-1E+10	1
4902554	26	C	10/21/2021	06:59	-136.478	49.300	0	153.40	0	6.0320	0	33.5340	0	26.392	0	152.038	0	-1e10	8	-1e10	8	-1E+10	1	-1E+10	1	-1E+10	1	-1E+10	1	-1E+10	1	-1E+10	1
4902554	26	C	10/21/2021	06:59	-136.478	49.300	0	154.50	0	6.0230	0	33.5630	0	26.416	0	153.128	0	-1e10	8	-1e10	8	-1E+10	1	-1E+10	1	-1E+10	1	-1E+10	1	-1E+10	1	-1E+10	1
4902554	26	C	10/21/2021	06:59	-136.478	49.300	0	155.50	0	6.0140	0	33.5720	0	26.424	0	154.119	0	-1e10	8	-1e10	8	-1E+10	1	-1E+10	1	-1E+10	1	-1E+10	1	-1E+10	1	-1E+10	1
4902554	26	C	10/21/2021	06:59	-136.478	49.300	0	156.60	0	6.0110	0	33.5790	0	26.430	0	155.209	0	-1e10	8	-1e10	8	-1E+10	1	-1E+10	1	-1E+10	1	-1E+10	1	-1E+10	1	-1E+10	1
4902554	26	C	10/21/2021	06:59	-136.478	49.300	0	157.70	0	5.9990	0	33.5860	0	26.437	0	156.298	0	-1e10	8	-1e10	8	-1E+10	1	-1E+10	1	-1E+10	1	-1E+10	1	-1E+10	1	-1E+10	1
4902554	26	C	10/21/2021	06:59	-136.478	49.300	0	158.70	0	5.9960	0	33.5860	0	26.438	0	157.289	0	-1e10	8	-1e10	8	-1E+10	1	-1E+10	1	-1E+10	1	-1E+10	1	-1E+10	1	-1E+10	1
4902554	26	C	10/21/2021	06:59	-136.478	49.300	0	159.80	0	5.9870	0	33.5940	0	26.445	0	158.379	0	-1e10	8	-1e10	8	-1E+10	1	-1E+10	1	-1E+10	1	-1E+10	1	-1E+10	1	-1E+10	1
4902554	26	C	10/21/2021	06:59	-136.478	49.300	0	160.90	0	5.9800	0	33.6040	0	26.454	0	159.469	0	-1e10	8	-1e10	8	-1E+10	1	-1E+10	1	-1E+10	1	-1E+10	1	-1E+10	1	-1E+10	1
4902554	26	C	10/21/2021	06:59	-136.478	49.300	0	161.90	0	5.9740	0	33.6040	0	26.455	0	160.459	0	-1e10	8	-1e10	8	-1E+10	1	-1E+10	1	-1E+10	1	-1E+10	1	-1E+10	1	-1E+10	1
4902554	26	C	10/21/2021	06:59	-136.478	49.300	0	162.90	0	5.9550	0	33.6120	0	26.463	0	161.450	0	-1e10	8	-1e10	8	-1E+10	1	-1E+10	1	-1E+10	1	-1E+10	1	-1E+10	1	-1E+10	1
4902554	26	C	10/21/2021	06:59	-136.478	49.300	0	164.00	0	5.9450	0	33.6160	0	26.468	0	162.540	0	-1e10	8	-1e10	8	-1E+10	1	-1E+10	1	-1E+10	1	-1E+10	1	-1E+10	1	-1E+10	1
4902554	26	C	10/21/2021	06:59	-136.478	49.300	0	165.00	0	5.9380	0	33.6260	0	26.477	0	163.531	0	-1e10	8	-1e10	8	-1E+10	1	-1E+10	1	-1E+10	1	-1E+10	1	-1E+10	1	-1E+10	1
4902554	26	C	10/21/2021	06:59	-136.478	49.300	0	166.10	0	5.9150	0	33.6330	0	26.485	0	164.620	0	-1e10	8	-1e10	8	-1E+10	1	-1E+10	1	-1E+10	1	-1E+10	1	-1E+10	1	-1E+10	1
4902554	26	C	10/21/2021	06:59	-136.478	49.300	0	167.20	0	5.9060	0	33.6340	0	26.487	0	165.710	0	-1e10	8	-1e10	8	-1E+10	1	-1E+10	1	-1E+10	1	-1E+10	1	-1E+10	1	-1E+10	1
4902554	26	C	10/21/2021	06:59	-136.478	49.300	0	168.30	0	5.9000	0	33.6620	0	26.510	0	166.800	0	-1e10	8	-1e10	8	-1E+10	1	-1E+10	1	-1E+10	1	-1E+10	1	-1E+10	1	-1E+10	1
4902554	26	C	10/21/2021	06:59	-136.478	49.300	0	169.40	0	5.8720	0	33.6670	0	26.517	0	167.890	0	-1e10	8	-1e10	8	-1E+10	1	-1E+10	1	-1E+10	1	-1E+10	1	-1E+10	1	-1E+10	1
4902554	26	C	10/21/2021	06:59	-136.478	49.300	0	170.50	0	5.8620	0	33.6710	0	26.522	0	168.979	0	-1e10	8	-1e10	8	-1E+10	1	-1E+10	1	-1E+10	1	-1E+10	1	-1E+10	1	-1E+10	1
4902554	26	C	10/21/2021	06:59	-136.478	49.300	0	171.50	0	5.8560	0	33.6720	0	26.523	0	169.970	0	-1e10	8	-1e10	8	-1E+10	1	-1E+10	1	-1E+10	1	-1E+10	1	-1E+10	1	-1E+10	1
4902554	26	C	10/21/2021	06:59	-136.478	49.300	0	172.60	0	5.8530	0	33.6720	0	26.523	0	171.060	0	-1e10	8	-1e10	8	-1E+10	1	-1E+10	1	-1E+10	1	-1E+10	1	-1E+10	1	-1E+10	1
4902554	26	C	10/21/2021	06:59	-136.478	49.300	0	173.60	0	5.8380	0	33.6740	0	26.527	0	172.050	0	-1e10	8	-1e10	8	-1E+10	1	-1E+10	1	-1E+10	1	-1E+10	1	-1E+10	1	-1E+10	1
4902554	26	C	10/21/2021	06:59	-136.478	49.300	0	175.00	0	5.8160	0	33.6830	0	26.537	0	173.437	0	-1e10	8	-1e10	8	-1E+10	1	-1E+10	1	-1E+10	1	-1E+10	1	-1E+10	1	-1E+10	1
4902554	26	C	10/21/2021	06:59	-136.478	49.300	0	176.20	0	5.8000	0	33.6880	0	26.543	0	174.626	0	-1e10	8	-1e10	8	-1E+10	1	-1E+10	1	-1E+10	1	-1E+10	1	-1E+10	1	-1E+10	1
4902554	26	C	10/21/2021	06:59	-136.478	49.300	0	177.00	0	5.8030	0	33.6930	0	26.546	0	175.419	0	-1e10	8	-1e10	8	-1E+10	1	-1E+10	1	-1E+10	1	-1E+10	1	-1E+10	1	-1E+10	1
4902554	26	C	10/21/2021	06:59	-136.478	49.300	0	177.80	0	5.8030	0	33.6930	0	26.546	0	176.211	0	-1e10	8	-1e10	8	-1E+10	1	-1E+10	1	-1E+10	1	-1E+10	1	-1E+10	1	-1E+10	1
4902554	26	C	10/21/2021	06:59	-136.478	49.300	0	179.00	0	5.8020	0	33.7020	0	26.553	0	177.400	0	-1e10	8	-1e10	8	-1E+10	1	-1E+10	1	-1E+10	1	-1E+10	1	-1E+10	1	-1E+10	1
4902554	26	C	10/21/2021	06:59	-136.478	49.300	0	180.20	0	5.7950	0	33.7150	0	26.565	0	178.589	0	-1e10	8	-1e10	8	-1E+10	1	-1E+10	1	-1E+10	1	-1E+10	1	-1E+10	1	-1E+10	1
4902554	26	C	10/21/2021	06:59	-136.478	49.300	0	181.00	0	5.7600	0	33.7160	0	26.570	0	179.381	0	-1e10	8	-1e10	8	-1E+10	1	-1E+10	1	-1E+10	1	-1E+10	1	-1E+10	1	-1E+10	1
4902554	26	C	10/21/2021	06:59	-136.478	49.300	0	181.80	0	5.7480	0	33.7160	0	26.571	0	180.174	0	-1e10	8	-1e10	8	-1E+10	1	-1E+10	1	-1E+10	1	-1E+10	1	-1E+10	1	-1E+10	1
4902554	26	C	10/21/2021	06:59	-136.478	49.300	0	183.00	0	5.6910	0	33.7160	0	26.578	0	181.362	0	-1e10	8	-1e10	8	-1E+10	1	-1E+10	1	-1E+10	1	-1E+10	1	-1E+10	1	-1E+10	1
4902554	26	C	10/21/2021	06:59	-136.478	49.300	0	184.20	0	5.6550	0	33.7150	0	26.582	0	182.551	0	-1e10	8	-1e10	8	-1E+10	1	-1E+10	1	-1E+10	1	-1E+10	1	-1E+10	1	-1E+10	1
4902554	26	C	10/21/2021	06:59	-136.478	49.300	0	185.00	0	5.6550	0	33.7150	0	26.582	0	183.344	0	-1e10	8	-1e10	8	-1E+10	1	-1E+10	1	-1E+10	1	-1E+10	1	-1E+10	1	-1E+10	1
4902554	26	C	10/21/2021	06:59	-136.478	49.300	0	185.80	0	5.6450	0	33.7180	0	26.585	0	184.136	0	-1e10	8	-1e10	8	-1E+10	1	-1E+10	1	-1E+10	1	-1E+10	1	-1E+10	1	-1E+10	1
4902554	26	C	10/21/2021	06:59	-136.478	49.300	0	187.00	0	5.6390	0	33.7170	0	26.585	0	185.325	0	-1e10	8	-1e10	8	-1E+10	1	-1E+10	1	-1E+10	1	-1E+10	1	-1E+10	1	-1E+10	1
4902554	26	C	10/21/2021	06:59	-136.478	49.300	0	188.30	0	5.5940	0	33.7230	0	26.595	0	186.613	0	-1e10	8	-1e10	8	-1E+10	1	-1E+10	1	-1E+10	1	-1E+10	1	-1E+10	1	-1E+10	1
4902554	26	C	10/21/2021	06:59	-136.478	49.300	0	189.10	0	5.5730	0	33.7260	0	26.600	0	187.405	0	-1e10	8	-1e10	8	-1E+10	1	-1E+10	1	-1E+10	1	-1E+10	1	-1E+10	1	-1E+10	1
4902554	26	C	10/21/2021	06:59	-136.478	49.300	0	189.90	0	5.5620	0	33.7270	0	26.602	0	188.197	0	-1e10	8	-1e10	8	-1E+10	1	-1E+10	1	-1E+10	1	-1E+10	1	-1E+10	1	-1E+10	1
4902554	26	C	10/21/2021	06:59	-136.478	49.300	0	190.80	0	5.5510	0	33.7280	0	26.605	0	189.089	0	-1e10	8	-1e10	8	-1E+10	1	-1E+10	1	-1E+10	1	-1E+10	1	-1E+10	1	-1E+10	1
4902554	26	C	10/21/2021	06:59	-136.478	49.300	0	192.00	0	5.5430	0	33.7290	0	26.606	0	190.278	0	-1e10	8	-1e10	8	-1E+10	1	-1E+10	1	-1E+10	1	-1E+10	1	-1E+10	1	-1E+10	1
4902554	26	C	10/21/2021	06:59	-136.478	49.300	0	193.30	0	5.5210	0	33.7350	0	26.614	0	191.565	0	-1e10	8	-1e10	8	-1E+10	1	-1E+10	1	-1E+10	1	-1E+10	1	-1E+10	1	-1E+10	1
4902554	26	C	10/21/2021	06:59	-136.478	49.300	0	194.20	0	5.5070	0	33.7380	0	26.618	0	192.457	0	-1e10	8	-1e10	8	-1E+10	1	-1E+10	1	-1E+10	1	-1E+10	1	-1E+10	1	-1E+10	1
4902554	26	C	10/21/2021	06:59	-136.478	49.300	0	195.00	0	5.4950	0	33.7410	0	26.622	0	193.249	0	-1e10	8	-1e10	8	-1E+10	1	-1E+10	1	-1E+10	1	-1E+10	1	-1E+10	1	-1E+10	1
4902554	26	C	10/21/2021	06:59	-136.478	49.300	0	195.90	0	5.4970	0	33.7430	0	26.623	0	194.141	0	-1e10	8	-1e10	8	-1E+10	1	-1E+10	1	-1E+10	1	-1E+10	1	-1E+10	1	-1E+10	1
4902554	26	C	10/21/2021	06:59	-136.478	49.300	0	196.70	0	5.4970	0	33.7460	0	26.625	0	194.933	0	-1e10	8	-1e10	8	-1E+10	1	-1E+10	1	-1E+10	1	-1E+10	1	-1E+10	1	-1E+10	1
4902554	26	C	10/21/2021	06:59	-136.478	49.300	0	197.90	0	5.5010	0	33.7470	0	26.626	0	196.122	0	-1e10	8	-1e10	8	-1E+10	1	-1E+10	1	-1E+10	1	-1E+10	1	-1E+10	1	-1E+10	1
4902554	26	C	10/21/2021	06:59	-136.478	49.300	0	199.20	0	5.5050	0	33.7490	0	26.627	0	197.410	0	-1e10	8	-1e10	8	-1E+10	1	-1E+10	1	-1E+10	1	-1E+10	1	-1E+10	1	-1E+10	1
4902554	26	C	10/21/2021	06:59	-136.478	49.300	0	200.00	0	5.4930	0	33.7550	0	26.633	0	198.202	0	-1e10	8	-1e10	8	-1E+10	1	-1E+10	1	-1E+10	1	-1E+10	1	-1E+10	1	-1E+10	1
4902554	26	C	10/21/2021	06:59	-136.478	49.300	0	200.90	0	5.4780	0	33.7550	0	26.635	0	199.094	0	-1e10	8	-1e10	8	-1E+10	1	-1E+10	1	-1E+10	1	-1E+10	1	-1E+10	1	-1E+10	1
4902554	26	C	10/21/2021	06:59	-136.478	49.300	0	201.80	0	5.4690	0	33.7570	0	26.637	0	199.985	0	-1e10	8	-1e10	8	-1E+10	1	-1E+10	1	-1E+10	1	-1E+10	1	-1E+10	1	-1E+10	1
4902554	26	C	10/21/2021	06:59	-136.478	49.300	0	202.60	0	5.4620	0	33.7620	0	26.642	0	200.777	0	-1e10	8	-1e10	8	-1E+10	1	-1E+10	1	-1E+10	1	-1E+10	1	-1E+10	1	-1E+10	1
4902554	26	C	10/21/2021	06:59	-136.478	49.300	0	203.90	0	5.4370	0	33.7690	0	26.651	0	202.065	0	-1e10	8	-1e10	8	-1E+10	1	-1E+10	1	-1E+10	1	-1E+10	1	-1E+10	1	-1E+10	1
4902554	26	C	10/21/2021	06:59	-136.478	49.300	0	205.30	0	5.4200	0	33.7700	0	26.653	0	203.452	0	-1e10	8	-1e10	8	-1E+10	1	-1E+10	1	-1E+10	1	-1E+10	1	-1E+10	1	-1E+10	1
4902554	26	C	10/21/2021	06:59	-136.478	49.300	0	206.20	0	5.4190	0	33.7710	0	26.654	0	204.343	0	-1e10	8	-1e10	8	-1E+10	1	-1E+10	1	-1E+10	1	-1E+10	1	-1E+10	1	-1E+10	1
4902554	26	C	10/21/2021	06:59	-136.478	49.300	0	207.10	0	5.4130	0	33.7710	0	26.655	0	205.235	0	-1e10	8	-1e10	8	-1E+10	1	-1E+10	1	-1E+10	1	-1E+10	1	-1E+10	1	-1E+10	1
4902554	26	C	10/21/2021	06:59	-136.478	49.300	0	208.00	0	5.3990	0	33.7730	0	26.658	0	206.126	0	-1e10	8	-1e10	8	-1E+10	1	-1E+10	1	-1E+10	1	-1E+10	1	-1E+10	1	-1E+10	1
4902554	26	C	10/21/2021	06:59	-136.478	49.300	0	209.00	0	5.3630	0	33.7750	0	26.664	0	207.117	0	-1e10	8	-1e10	8	-1E+10	1	-1E+10	1	-1E+10	1	-1E+10	1	-1E+10	1	-1E+10	1
4902554	26	C	10/21/2021	06:59	-136.478	49.300	0	209.90	0	5.3580	0	33.7770	0	26.666	0	208.008	0	-1e10	8	-1e10	8	-1E+10	1	-1E+10	1	-1E+10	1	-1E+10	1	-1E+10	1	-1E+10	1
4902554	26	C	10/21/2021	06:59	-136.478	49.300	0	210.80	0	5.3570	0	33.7770	0	26.666	0	208.900	0	-1e10	8	-1e10	8	-1E+10	1	-1E+10	1	-1E+10	1	-1E+10	1	-1E+10	1	-1E+10	1
4902554	26	C	10/21/2021	06:59	-136.478	49.300	0	211.80	0	5.3510	0	33.7790	0	26.669	0	209.890	0	-1e10	8	-1e10	8	-1E+10	1	-1E+10	1	-1E+10	1	-1E+10	1	-1E+10	1	-1E+10	1
4902554	26	C	10/21/2021	06:59	-136.478	49.300	0	212.70	0	5.3430	0	33.7790	0	26.670	0	210.781	0	-1e10	8	-1e10	8	-1E+10	1	-1E+10	1	-1E+10	1	-1E+10	1	-1E+10	1	-1E+10	1
4902554	26	C	10/21/2021	06:59	-136.478	49.300	0	213.70	0	5.3410	0	33.7790	0	26.670	0	211.772	0	-1e10	8	-1e10	8	-1E+10	1	-1E+10	1	-1E+10	1	-1E+10	1	-1E+10	1	-1E+10	1
4902554	26	C	10/21/2021	06:59	-136.478	49.300	0	214.60	0	5.3280	0	33.7820	0	26.674	0	212.663	0	-1e10	8	-1e10	8	-1E+10	1	-1E+10	1	-1E+10	1	-1E+10	1	-1E+10	1	-1E+10	1
4902554	26	C	10/21/2021	06:59	-136.478	49.300	0	215.60	0	5.3230	0	33.7820	0	26.674	0	213.654	0	-1e10	8	-1e10	8	-1E+10	1	-1E+10	1	-1E+10	1	-1E+10	1	-1E+10	1	-1E+10	1
4902554	26	C	10/21/2021	06:59	-136.478	49.300	0	216.50	0	5.3170	0	33.7830	0	26.676	0	214.545	0	-1e10	8	-1e10	8	-1E+10	1	-1E+10	1	-1E+10	1	-1E+10	1	-1E+10	1	-1E+10	1
4902554	26	C	10/21/2021	06:59	-136.478	49.300	0	217.50	0	5.3150	0	33.7830	0	26.676	0	215.536	0	-1e10	8	-1e10	8	-1E+10	1	-1E+10	1	-1E+10	1	-1E+10	1	-1E+10	1	-1E+10	1
4902554	26	C	10/21/2021	06:59	-136.478	49.300	0	218.90	0	5.3020	0	33.7860	0	26.680	0	216.922	0	-1e10	8	-1e10	8	-1E+10	1	-1E+10	1	-1E+10	1	-1E+10	1	-1E+10	1	-1E+10	1
4902554	26	C	10/21/2021	06:59	-136.478	49.300	0	220.40	0	5.3000	0	33.7860	0	26.680	0	218.408	0	-1e10	8	-1e10	8	-1E+10	1	-1E+10	1	-1E+10	1	-1E+10	1	-1E+10	1	-1E+10	1
4902554	26	C	10/21/2021	06:59	-136.478	49.300	0	221.40	0	5.3000	0	33.7860	0	26.680	0	219.398	0	-1e10	8	-1e10	8	-1E+10	1	-1E+10	1	-1E+10	1	-1E+10	1	-1E+10	1	-1E+10	1
4902554	26	C	10/21/2021	06:59	-136.478	49.300	0	222.30	0	5.2980	0	33.7860	0	26.681	0	220.290	0	-1e10	8	-1e10	8	-1E+10	1	-1E+10	1	-1E+10	1	-1E+10	1	-1E+10	1	-1E+10	1
4902554	26	C	10/21/2021	06:59	-136.478	49.300	0	223.30	0	5.2960	0	33.7860	0	26.681	0	221.280	0	-1e10	8	-1e10	8	-1E+10	1	-1E+10	1	-1E+10	1	-1E+10	1	-1E+10	1	-1E+10	1
4902554	26	C	10/21/2021	06:59	-136.478	49.300	0	224.30	0	5.2970	0	33.7860	0	26.681	0	222.271	0	-1e10	8	-1e10	8	-1E+10	1	-1E+10	1	-1E+10	1	-1E+10	1	-1E+10	1	-1E+10	1
4902554	26	C	10/21/2021	06:59	-136.478	49.300	0	225.20	0	5.2960	0	33.7860	0	26.681	0	223.162	0	-1e10	8	-1e10	8	-1E+10	1	-1E+10	1	-1E+10	1	-1E+10	1	-1E+10	1	-1E+10	1
4902554	26	C	10/21/2021	06:59	-136.478	49.300	0	226.20	0	5.2880	0	33.7870	0	26.683	0	224.152	0	-1e10	8	-1e10	8	-1E+10	1	-1E+10	1	-1E+10	1	-1E+10	1	-1E+10	1	-1E+10	1
4902554	26	C	10/21/2021	06:59	-136.478	49.300	0	227.20	0	5.2830	0	33.7880	0	26.684	0	225.143	0	-1e10	8	-1e10	8	-1E+10	1	-1E+10	1	-1E+10	1	-1E+10	1	-1E+10	1	-1E+10	1
4902554	26	C	10/21/2021	06:59	-136.478	49.300	0	228.20	0	5.2730	0	33.7900	0	26.687	0	226.133	0	-1e10	8	-1e10	8	-1E+10	1	-1E+10	1	-1E+10	1	-1E+10	1	-1E+10	1	-1E+10	1
4902554	26	C	10/21/2021	06:59	-136.478	49.300	0	229.10	0	5.2720	0	33.7900	0	26.687	0	227.025	0	-1e10	8	-1e10	8	-1E+10	1	-1E+10	1	-1E+10	1	-1E+10	1	-1E+10	1	-1E+10	1
4902554	26	C	10/21/2021	06:59	-136.478	49.300	0	230.20	0	5.2580	0	33.7920	0	26.690	0	228.114	0	-1e10	8	-1e10	8	-1E+10	1	-1E+10	1	-1E+10	1	-1E+10	1	-1E+10	1	-1E+10	1
4902554	26	C	10/21/2021	06:59	-136.478	49.300	0	231.20	0	5.2460	0	33.7950	0	26.694	0	229.104	0	-1e10	8	-1e10	8	-1E+10	1	-1E+10	1	-1E+10	1	-1E+10	1	-1E+10	1	-1E+10	1
4902554	26	C	10/21/2021	06:59	-136.478	49.300	0	232.10	0	5.2380	0	33.7940	0	26.694	0	229.996	0	-1e10	8	-1e10	8	-1E+10	1	-1E+10	1	-1E+10	1	-1E+10	1	-1E+10	1	-1E+10	1
4902554	26	C	10/21/2021	06:59	-136.478	49.300	0	233.10	0	5.2270	0	33.7950	0	26.696	0	230.986	0	-1e10	8	-1e10	8	-1E+10	1	-1E+10	1	-1E+10	1	-1E+10	1	-1E+10	1	-1E+10	1
4902554	26	C	10/21/2021	06:59	-136.478	49.300	0	234.10	0	5.2140	0	33.7960	0	26.698	0	231.976	0	-1e10	8	-1e10	8	-1E+10	1	-1E+10	1	-1E+10	1	-1E+10	1	-1E+10	1	-1E+10	1
4902554	26	C	10/21/2021	06:59	-136.478	49.300	0	235.10	0	5.2080	0	33.7960	0	26.699	0	232.967	0	-1e10	8	-1e10	8	-1E+10	1	-1E+10	1	-1E+10	1	-1E+10	1	-1E+10	1	-1E+10	1
4902554	26	C	10/21/2021	06:59	-136.478	49.300	0	236.00	0	5.2050	0	33.7950	0	26.699	0	233.858	0	-1e10	8	-1e10	8	-1E+10	1	-1E+10	1	-1E+10	1	-1E+10	1	-1E+10	1	-1E+10	1
4902554	26	C	10/21/2021	06:59	-136.478	49.300	0	237.00	0	5.1890	0	33.7970	0	26.702	0	234.848	0	-1e10	8	-1e10	8	-1E+10	1	-1E+10	1	-1E+10	1	-1E+10	1	-1E+10	1	-1E+10	1
4902554	26	C	10/21/2021	06:59	-136.478	49.300	0	238.00	0	5.1780	0	33.7980	0	26.704	0	235.839	0	-1e10	8	-1e10	8	-1E+10	1	-1E+10	1	-1E+10	1	-1E+10	1	-1E+10	1	-1E+10	1
4902554	26	C	10/21/2021	06:59	-136.478	49.300	0	239.00	0	5.1710	0	33.7990	0	26.706	0	236.829	0	-1e10	8	-1e10	8	-1E+10	1	-1E+10	1	-1E+10	1	-1E+10	1	-1E+10	1	-1E+10	1
4902554	26	C	10/21/2021	06:59	-136.478	49.300	0	240.00	0	5.1650	0	33.8000	0	26.707	0	237.820	0	-1e10	8	-1e10	8	-1E+10	1	-1E+10	1	-1E+10	1	-1E+10	1	-1E+10	1	-1E+10	1
4902554	26	C	10/21/2021	06:59	-136.478	49.300	0	240.90	0	5.1590	0	33.8000	0	26.708	0	238.711	0	-1e10	8	-1e10	8	-1E+10	1	-1E+10	1	-1E+10	1	-1E+10	1	-1E+10	1	-1E+10	1
4902554	26	C	10/21/2021	06:59	-136.478	49.300	0	241.90	0	5.1520	0	33.8000	0	26.709	0	239.701	0	-1e10	8	-1e10	8	-1E+10	1	-1E+10	1	-1E+10	1	-1E+10	1	-1E+10	1	-1E+10	1
4902554	26	C	10/21/2021	06:59	-136.478	49.300	0	242.90	0	5.1470	0	33.8010	0	26.710	0	240.691	0	-1e10	8	-1e10	8	-1E+10	1	-1E+10	1	-1E+10	1	-1E+10	1	-1E+10	1	-1E+10	1
4902554	26	C	10/21/2021	06:59	-136.478	49.300	0	243.90	0	5.1470	0	33.8000	0	26.709	0	241.682	0	-1e10	8	-1e10	8	-1E+10	1	-1E+10	1	-1E+10	1	-1E+10	1	-1E+10	1	-1E+10	1
4902554	26	C	10/21/2021	06:59	-136.478	49.300	0	244.80	0	5.1470	0	33.8000	0	26.709	0	242.573	0	-1e10	8	-1e10	8	-1E+10	1	-1E+10	1	-1E+10	1	-1E+10	1	-1E+10	1	-1E+10	1
4902554	26	C	10/21/2021	06:59	-136.478	49.300	0	245.80	0	5.1480	0	33.8000	0	26.709	0	243.563	0	-1e10	8	-1e10	8	-1E+10	1	-1E+10	1	-1E+10	1	-1E+10	1	-1E+10	1	-1E+10	1
4902554	26	C	10/21/2021	06:59	-136.478	49.300	0	246.70	0	5.1430	0	33.8020	0	26.711	0	244.455	0	-1e10	8	-1e10	8	-1E+10	1	-1E+10	1	-1E+10	1	-1E+10	1	-1E+10	1	-1E+10	1
4902554	26	C	10/21/2021	06:59	-136.478	49.300	0	247.70	0	5.1310	0	33.8030	0	26.714	0	245.445	0	-1e10	8	-1e10	8	-1E+10	1	-1E+10	1	-1E+10	1	-1E+10	1	-1E+10	1	-1E+10	1
4902554	26	C	10/21/2021	06:59	-136.478	49.300	0	248.60	0	5.1270	0	33.8020	0	26.713	0	246.336	0	-1e10	8	-1e10	8	-1E+10	1	-1E+10	1	-1E+10	1	-1E+10	1	-1E+10	1	-1E+10	1
4902554	26	C	10/21/2021	06:59	-136.478	49.300	0	249.50	0	5.1220	0	33.8030	0	26.715	0	247.228	0	-1e10	8	-1e10	8	-1E+10	1	-1E+10	1	-1E+10	1	-1E+10	1	-1E+10	1	-1E+10	1
4902554	26	C	10/21/2021	06:59	-136.478	49.300	0	250.50	0	5.1140	0	33.8060	0	26.718	0	248.218	0	-1e10	8	-1e10	8	-1E+10	1	-1E+10	1	-1E+10	1	-1E+10	1	-1E+10	1	-1E+10	1
4902554	26	C	10/21/2021	06:59	-136.478	49.300	0	251.90	0	5.1050	0	33.8060	0	26.719	0	249.604	0	-1e10	8	-1e10	8	-1E+10	1	-1E+10	1	-1E+10	1	-1E+10	1	-1E+10	1	-1E+10	1
4902554	26	C	10/21/2021	06:59	-136.478	49.300	0	253.40	0	5.0740	0	33.8100	0	26.726	0	251.090	0	-1e10	8	-1e10	8	-1E+10	1	-1E+10	1	-1E+10	1	-1E+10	1	-1E+10	1	-1E+10	1
4902554	26	C	10/21/2021	06:59	-136.478	49.300	0	254.30	0	5.0710	0	33.8090	0	26.725	0	251.981	0	-1e10	8	-1e10	8	-1E+10	1	-1E+10	1	-1E+10	1	-1E+10	1	-1E+10	1	-1E+10	1
4902554	26	C	10/21/2021	06:59	-136.478	49.300	0	255.30	0	5.0600	0	33.8110	0	26.728	0	252.971	0	-1e10	8	-1e10	8	-1E+10	1	-1E+10	1	-1E+10	1	-1E+10	1	-1E+10	1	-1E+10	1
4902554	26	C	10/21/2021	06:59	-136.478	49.300	0	256.20	0	5.0600	0	33.8110	0	26.728	0	253.862	0	-1e10	8	-1e10	8	-1E+10	1	-1E+10	1	-1E+10	1	-1E+10	1	-1E+10	1	-1E+10	1
4902554	26	C	10/21/2021	06:59	-136.478	49.300	0	257.20	0	5.0500	0	33.8130	0	26.731	0	254.853	0	-1e10	8	-1e10	8	-1E+10	1	-1E+10	1	-1E+10	1	-1E+10	1	-1E+10	1	-1E+10	1
4902554	26	C	10/21/2021	06:59	-136.478	49.300	0	258.10	0	5.0350	0	33.8140	0	26.733	0	255.744	0	-1e10	8	-1e10	8	-1E+10	1	-1E+10	1	-1E+10	1	-1E+10	1	-1E+10	1	-1E+10	1
4902554	26	C	10/21/2021	06:59	-136.478	49.300	0	259.00	0	5.0360	0	33.8150	0	26.734	0	256.635	0	-1e10	8	-1e10	8	-1E+10	1	-1E+10	1	-1E+10	1	-1E+10	1	-1E+10	1	-1E+10	1
4902554	26	C	10/21/2021	06:59	-136.478	49.300	0	260.00	0	5.0410	0	33.8170	0	26.735	0	257.625	0	-1e10	8	-1e10	8	-1E+10	1	-1E+10	1	-1E+10	1	-1E+10	1	-1E+10	1	-1E+10	1
4902554	26	C	10/21/2021	06:59	-136.478	49.300	0	260.90	0	5.0520	0	33.8200	0	26.736	0	258.517	0	-1e10	8	-1e10	8	-1E+10	1	-1E+10	1	-1E+10	1	-1E+10	1	-1E+10	1	-1E+10	1
4902554	26	C	10/21/2021	06:59	-136.478	49.300	0	261.80	0	5.0570	0	33.8220	0	26.737	0	259.408	0	-1e10	8	-1e10	8	-1E+10	1	-1E+10	1	-1E+10	1	-1E+10	1	-1E+10	1	-1E+10	1
4902554	26	C	10/21/2021	06:59	-136.478	49.300	0	262.80	0	5.0590	0	33.8230	0	26.738	0	260.398	0	-1e10	8	-1e10	8	-1E+10	1	-1E+10	1	-1E+10	1	-1E+10	1	-1E+10	1	-1E+10	1
4902554	26	C	10/21/2021	06:59	-136.478	49.300	0	263.70	0	5.0540	0	33.8280	0	26.742	0	261.289	0	-1e10	8	-1e10	8	-1E+10	1	-1E+10	1	-1E+10	1	-1E+10	1	-1E+10	1	-1E+10	1
4902554	26	C	10/21/2021	06:59	-136.478	49.300	0	264.60	0	5.0510	0	33.8280	0	26.743	0	262.180	0	-1e10	8	-1e10	8	-1E+10	1	-1E+10	1	-1E+10	1	-1E+10	1	-1E+10	1	-1E+10	1
4902554	26	C	10/21/2021	06:59	-136.478	49.300	0	265.60	0	5.0280	0	33.8280	0	26.745	0	263.171	0	-1e10	8	-1e10	8	-1E+10	1	-1E+10	1	-1E+10	1	-1E+10	1	-1E+10	1	-1E+10	1
4902554	26	C	10/21/2021	06:59	-136.478	49.300	0	266.90	0	5.0230	0	33.8290	0	26.747	0	264.458	0	-1e10	8	-1e10	8	-1E+10	1	-1E+10	1	-1E+10	1	-1E+10	1	-1E+10	1	-1E+10	1
4902554	26	C	10/21/2021	06:59	-136.478	49.300	0	268.30	0	5.0240	0	33.8330	0	26.750	0	265.844	0	-1e10	8	-1e10	8	-1E+10	1	-1E+10	1	-1E+10	1	-1E+10	1	-1E+10	1	-1E+10	1
4902554	26	C	10/21/2021	06:59	-136.478	49.300	0	269.20	0	5.0290	0	33.8360	0	26.752	0	266.735	0	-1e10	8	-1e10	8	-1E+10	1	-1E+10	1	-1E+10	1	-1E+10	1	-1E+10	1	-1E+10	1
4902554	26	C	10/21/2021	06:59	-136.478	49.300	0	270.20	0	5.0250	0	33.8380	0	26.754	0	267.726	0	-1e10	8	-1e10	8	-1E+10	1	-1E+10	1	-1E+10	1	-1E+10	1	-1E+10	1	-1E+10	1
4902554	26	C	10/21/2021	06:59	-136.478	49.300	0	271.10	0	5.0250	0	33.8400	0	26.755	0	268.617	0	-1e10	8	-1e10	8	-1E+10	1	-1E+10	1	-1E+10	1	-1E+10	1	-1E+10	1	-1E+10	1
4902554	26	C	10/21/2021	06:59	-136.478	49.300	0	272.00	0	5.0140	0	33.8420	0	26.758	0	269.508	0	-1e10	8	-1e10	8	-1E+10	1	-1E+10	1	-1E+10	1	-1E+10	1	-1E+10	1	-1E+10	1
4902554	26	C	10/21/2021	06:59	-136.478	49.300	0	273.00	0	5.0100	0	33.8430	0	26.759	0	270.498	0	-1e10	8	-1e10	8	-1E+10	1	-1E+10	1	-1E+10	1	-1E+10	1	-1E+10	1	-1E+10	1
4902554	26	C	10/21/2021	06:59	-136.478	49.300	0	273.90	0	5.0080	0	33.8430	0	26.760	0	271.389	0	-1e10	8	-1e10	8	-1E+10	1	-1E+10	1	-1E+10	1	-1E+10	1	-1E+10	1	-1E+10	1
4902554	26	C	10/21/2021	06:59	-136.478	49.300	0	274.90	0	4.9940	0	33.8440	0	26.762	0	272.379	0	-1e10	8	-1e10	8	-1E+10	1	-1E+10	1	-1E+10	1	-1E+10	1	-1E+10	1	-1E+10	1
4902554	26	C	10/21/2021	06:59	-136.478	49.300	0	275.80	0	4.9770	0	33.8480	0	26.767	0	273.271	0	-1e10	8	-1e10	8	-1E+10	1	-1E+10	1	-1E+10	1	-1E+10	1	-1E+10	1	-1E+10	1
4902554	26	C	10/21/2021	06:59	-136.478	49.300	0	276.70	0	4.9290	0	33.8440	0	26.769	0	274.162	0	-1e10	8	-1e10	8	-1E+10	1	-1E+10	1	-1E+10	1	-1E+10	1	-1E+10	1	-1E+10	1
4902554	26	C	10/21/2021	06:59	-136.478	49.300	0	277.70	0	4.9220	0	33.8420	0	26.769	0	275.152	0	-1e10	8	-1e10	8	-1E+10	1	-1E+10	1	-1E+10	1	-1E+10	1	-1E+10	1	-1E+10	1
4902554	26	C	10/21/2021	06:59	-136.478	49.300	0	278.60	0	4.9190	0	33.8420	0	26.769	0	276.043	0	-1e10	8	-1e10	8	-1E+10	1	-1E+10	1	-1E+10	1	-1E+10	1	-1E+10	1	-1E+10	1
4902554	26	C	10/21/2021	06:59	-136.478	49.300	0	279.60	0	4.9180	0	33.8420	0	26.769	0	277.033	0	-1e10	8	-1e10	8	-1E+10	1	-1E+10	1	-1E+10	1	-1E+10	1	-1E+10	1	-1E+10	1
4902554	26	C	10/21/2021	06:59	-136.478	49.300	0	280.50	0	4.9130	0	33.8430	0	26.770	0	277.924	0	-1e10	8	-1e10	8	-1E+10	1	-1E+10	1	-1E+10	1	-1E+10	1	-1E+10	1	-1E+10	1
4902554	26	C	10/21/2021	06:59	-136.478	49.300	0	281.90	0	4.9090	0	33.8440	0	26.772	0	279.311	0	-1e10	8	-1e10	8	-1E+10	1	-1E+10	1	-1E+10	1	-1E+10	1	-1E+10	1	-1E+10	1
4902554	26	C	10/21/2021	06:59	-136.478	49.300	0	283.40	0	4.8950	0	33.8480	0	26.776	0	280.796	0	-1e10	8	-1e10	8	-1E+10	1	-1E+10	1	-1E+10	1	-1E+10	1	-1E+10	1	-1E+10	1
4902554	26	C	10/21/2021	06:59	-136.478	49.300	0	284.30	0	4.8950	0	33.8470	0	26.776	0	281.687	0	-1e10	8	-1e10	8	-1E+10	1	-1E+10	1	-1E+10	1	-1E+10	1	-1E+10	1	-1E+10	1
4902554	26	C	10/21/2021	06:59	-136.478	49.300	0	285.30	0	4.8930	0	33.8470	0	26.776	0	282.677	0	-1e10	8	-1e10	8	-1E+10	1	-1E+10	1	-1E+10	1	-1E+10	1	-1E+10	1	-1E+10	1
4902554	26	C	10/21/2021	06:59	-136.478	49.300	0	286.20	0	4.8890	0	33.8480	0	26.777	0	283.568	0	-1e10	8	-1e10	8	-1E+10	1	-1E+10	1	-1E+10	1	-1E+10	1	-1E+10	1	-1E+10	1
4902554	26	C	10/21/2021	06:59	-136.478	49.300	0	287.20	0	4.8850	0	33.8480	0	26.778	0	284.558	0	-1e10	8	-1e10	8	-1E+10	1	-1E+10	1	-1E+10	1	-1E+10	1	-1E+10	1	-1E+10	1
4902554	26	C	10/21/2021	06:59	-136.478	49.300	0	288.20	0	4.8720	0	33.8510	0	26.781	0	285.548	0	-1e10	8	-1e10	8	-1E+10	1	-1E+10	1	-1E+10	1	-1E+10	1	-1E+10	1	-1E+10	1
4902554	26	C	10/21/2021	06:59	-136.478	49.300	0	289.10	0	4.8620	0	33.8540	0	26.785	0	286.439	0	-1e10	8	-1e10	8	-1E+10	1	-1E+10	1	-1E+10	1	-1E+10	1	-1E+10	1	-1E+10	1
4902554	26	C	10/21/2021	06:59	-136.478	49.300	0	290.10	0	4.8590	0	33.8550	0	26.786	0	287.430	0	-1e10	8	-1e10	8	-1E+10	1	-1E+10	1	-1E+10	1	-1E+10	1	-1E+10	1	-1E+10	1
4902554	26	C	10/21/2021	06:59	-136.478	49.300	0	291.10	0	4.8540	0	33.8560	0	26.787	0	288.420	0	-1e10	8	-1e10	8	-1E+10	1	-1E+10	1	-1E+10	1	-1E+10	1	-1E+10	1	-1E+10	1
4902554	26	C	10/21/2021	06:59	-136.478	49.300	0	292.00	0	4.8480	0	33.8570	0	26.789	0	289.311	0	-1e10	8	-1e10	8	-1E+10	1	-1E+10	1	-1E+10	1	-1E+10	1	-1E+10	1	-1E+10	1
4902554	26	C	10/21/2021	06:59	-136.478	49.300	0	293.00	0	4.8380	0	33.8630	0	26.795	0	290.301	0	-1e10	8	-1e10	8	-1E+10	1	-1E+10	1	-1E+10	1	-1E+10	1	-1E+10	1	-1E+10	1
4902554	26	C	10/21/2021	06:59	-136.478	49.300	0	293.90	0	4.8270	0	33.8600	0	26.794	0	291.192	0	-1e10	8	-1e10	8	-1E+10	1	-1E+10	1	-1E+10	1	-1E+10	1	-1E+10	1	-1E+10	1
4902554	26	C	10/21/2021	06:59	-136.478	49.300	0	294.90	0	4.8230	0	33.8600	0	26.794	0	292.182	0	-1e10	8	-1e10	8	-1E+10	1	-1E+10	1	-1E+10	1	-1E+10	1	-1E+10	1	-1E+10	1
4902554	26	C	10/21/2021	06:59	-136.478	49.300	0	295.90	0	4.8200	0	33.8600	0	26.794	0	293.172	0	-1e10	8	-1e10	8	-1E+10	1	-1E+10	1	-1E+10	1	-1E+10	1	-1E+10	1	-1E+10	1
4902554	26	C	10/21/2021	06:59	-136.478	49.300	0	296.90	0	4.8060	0	33.8620	0	26.798	0	294.162	0	-1e10	8	-1e10	8	-1E+10	1	-1E+10	1	-1E+10	1	-1E+10	1	-1E+10	1	-1E+10	1
4902554	26	C	10/21/2021	06:59	-136.478	49.300	0	297.90	0	4.7840	0	33.8640	0	26.802	0	295.152	0	-1e10	8	-1e10	8	-1E+10	1	-1E+10	1	-1E+10	1	-1E+10	1	-1E+10	1	-1E+10	1
4902554	26	C	10/21/2021	06:59	-136.478	49.300	0	298.90	0	4.7790	0	33.8640	0	26.802	0	296.142	0	-1e10	8	-1e10	8	-1E+10	1	-1E+10	1	-1E+10	1	-1E+10	1	-1E+10	1	-1E+10	1
4902554	26	C	10/21/2021	06:59	-136.478	49.300	0	299.90	0	4.7710	0	33.8660	0	26.805	0	297.132	0	-1e10	8	-1e10	8	-1E+10	1	-1E+10	1	-1E+10	1	-1E+10	1	-1E+10	1	-1E+10	1
4902554	26	C	10/21/2021	06:59	-136.478	49.300	0	300.90	0	4.7590	0	33.8690	0	26.808	0	298.122	0	-1e10	8	-1e10	8	-1E+10	1	-1E+10	1	-1E+10	1	-1E+10	1	-1E+10	1	-1E+10	1
4902554	26	C	10/21/2021	06:59	-136.478	49.300	0	301.90	0	4.7450	0	33.8720	0	26.812	0	299.112	0	-1e10	8	-1e10	8	-1E+10	1	-1E+10	1	-1E+10	1	-1E+10	1	-1E+10	1	-1E+10	1
4902554	26	C	10/21/2021	06:59	-136.478	49.300	0	302.90	0	4.7400	0	33.8720	0	26.813	0	300.102	0	-1e10	8	-1e10	8	-1E+10	1	-1E+10	1	-1E+10	1	-1E+10	1	-1E+10	1	-1E+10	1
4902554	26	C	10/21/2021	06:59	-136.478	49.300	0	303.90	0	4.7360	0	33.8720	0	26.813	0	301.093	0	-1e10	8	-1e10	8	-1E+10	1	-1E+10	1	-1E+10	1	-1E+10	1	-1E+10	1	-1E+10	1
4902554	26	C	10/21/2021	06:59	-136.478	49.300	0	304.90	0	4.7240	0	33.8740	0	26.816	0	302.083	0	-1e10	8	-1e10	8	-1E+10	1	-1E+10	1	-1E+10	1	-1E+10	1	-1E+10	1	-1E+10	1
4902554	26	C	10/21/2021	06:59	-136.478	49.300	0	305.90	0	4.7170	0	33.8750	0	26.818	0	303.073	0	-1e10	8	-1e10	8	-1E+10	1	-1E+10	1	-1E+10	1	-1E+10	1	-1E+10	1	-1E+10	1
4902554	26	C	10/21/2021	06:59	-136.478	49.300	0	306.90	0	4.7130	0	33.8750	0	26.818	0	304.063	0	-1e10	8	-1e10	8	-1E+10	1	-1E+10	1	-1E+10	1	-1E+10	1	-1E+10	1	-1E+10	1
4902554	26	C	10/21/2021	06:59	-136.478	49.300	0	307.80	0	4.7010	0	33.8750	0	26.820	0	304.954	0	-1e10	8	-1e10	8	-1E+10	1	-1E+10	1	-1E+10	1	-1E+10	1	-1E+10	1	-1E+10	1
4902554	26	C	10/21/2021	06:59	-136.478	49.300	0	308.90	0	4.6890	0	33.8760	0	26.822	0	306.043	0	-1e10	8	-1e10	8	-1E+10	1	-1E+10	1	-1E+10	1	-1E+10	1	-1E+10	1	-1E+10	1
4902554	26	C	10/21/2021	06:59	-136.478	49.300	0	310.10	0	4.6860	0	33.8810	0	26.826	0	307.231	0	-1e10	8	-1e10	8	-1E+10	1	-1E+10	1	-1E+10	1	-1E+10	1	-1E+10	1	-1E+10	1
4902554	26	C	10/21/2021	06:59	-136.478	49.300	0	310.90	0	4.6770	0	33.8800	0	26.826	0	308.023	0	-1e10	8	-1e10	8	-1E+10	1	-1E+10	1	-1E+10	1	-1E+10	1	-1E+10	1	-1E+10	1
4902554	26	C	10/21/2021	06:59	-136.478	49.300	0	311.70	0	4.6740	0	33.8800	0	26.826	0	308.815	0	-1e10	8	-1e10	8	-1E+10	1	-1E+10	1	-1E+10	1	-1E+10	1	-1E+10	1	-1E+10	1
4902554	26	C	10/21/2021	06:59	-136.478	49.300	0	312.90	0	4.6710	0	33.8810	0	26.828	0	310.003	0	-1e10	8	-1e10	8	-1E+10	1	-1E+10	1	-1E+10	1	-1E+10	1	-1E+10	1	-1E+10	1
4902554	26	C	10/21/2021	06:59	-136.478	49.300	0	314.10	0	4.6620	0	33.8820	0	26.829	0	311.191	0	-1e10	8	-1e10	8	-1E+10	1	-1E+10	1	-1E+10	1	-1E+10	1	-1E+10	1	-1E+10	1
4902554	26	C	10/21/2021	06:59	-136.478	49.300	0	314.90	0	4.6540	0	33.8820	0	26.830	0	311.983	0	-1e10	8	-1e10	8	-1E+10	1	-1E+10	1	-1E+10	1	-1E+10	1	-1E+10	1	-1E+10	1
4902554	26	C	10/21/2021	06:59	-136.478	49.300	0	315.70	0	4.6530	0	33.8820	0	26.830	0	312.775	0	-1e10	8	-1e10	8	-1E+10	1	-1E+10	1	-1E+10	1	-1E+10	1	-1E+10	1	-1E+10	1
4902554	26	C	10/21/2021	06:59	-136.478	49.300	0	316.90	0	4.6470	0	33.8840	0	26.833	0	313.963	0	-1e10	8	-1e10	8	-1E+10	1	-1E+10	1	-1E+10	1	-1E+10	1	-1E+10	1	-1E+10	1
4902554	26	C	10/21/2021	06:59	-136.478	49.300	0	318.10	0	4.6370	0	33.8870	0	26.836	0	315.151	0	-1e10	8	-1e10	8	-1E+10	1	-1E+10	1	-1E+10	1	-1E+10	1	-1E+10	1	-1E+10	1
4902554	26	C	10/21/2021	06:59	-136.478	49.300	0	318.90	0	4.6340	0	33.8880	0	26.837	0	315.942	0	-1e10	8	-1e10	8	-1E+10	1	-1E+10	1	-1E+10	1	-1E+10	1	-1E+10	1	-1E+10	1
4902554	26	C	10/21/2021	06:59	-136.478	49.300	0	319.70	0	4.6340	0	33.8880	0	26.837	0	316.734	0	-1e10	8	-1e10	8	-1E+10	1	-1E+10	1	-1E+10	1	-1E+10	1	-1E+10	1	-1E+10	1
4902554	26	C	10/21/2021	06:59	-136.478	49.300	0	320.90	0	4.6300	0	33.8910	0	26.840	0	317.922	0	-1e10	8	-1e10	8	-1E+10	1	-1E+10	1	-1E+10	1	-1E+10	1	-1E+10	1	-1E+10	1
4902554	26	C	10/21/2021	06:59	-136.478	49.300	0	322.20	0	4.6290	0	33.8940	0	26.843	0	319.209	0	-1e10	8	-1e10	8	-1E+10	1	-1E+10	1	-1E+10	1	-1E+10	1	-1E+10	1	-1E+10	1
4902554	26	C	10/21/2021	06:59	-136.478	49.300	0	323.00	0	4.6210	0	33.8960	0	26.845	0	320.001	0	-1e10	8	-1e10	8	-1E+10	1	-1E+10	1	-1E+10	1	-1E+10	1	-1E+10	1	-1E+10	1
4902554	26	C	10/21/2021	06:59	-136.478	49.300	0	323.90	0	4.6200	0	33.8970	0	26.846	0	320.892	0	-1e10	8	-1e10	8	-1E+10	1	-1E+10	1	-1E+10	1	-1E+10	1	-1E+10	1	-1E+10	1
4902554	26	C	10/21/2021	06:59	-136.478	49.300	0	324.70	0	4.6180	0	33.8970	0	26.846	0	321.684	0	-1e10	8	-1e10	8	-1E+10	1	-1E+10	1	-1E+10	1	-1E+10	1	-1E+10	1	-1E+10	1
4902554	26	C	10/21/2021	06:59	-136.478	49.300	0	325.90	0	4.6090	0	33.9010	0	26.850	0	322.872	0	-1e10	8	-1e10	8	-1E+10	1	-1E+10	1	-1E+10	1	-1E+10	1	-1E+10	1	-1E+10	1
4902554	26	C	10/21/2021	06:59	-136.478	49.300	0	327.20	0	4.6030	0	33.9030	0	26.853	0	324.159	0	-1e10	8	-1e10	8	-1E+10	1	-1E+10	1	-1E+10	1	-1E+10	1	-1E+10	1	-1E+10	1
4902554	26	C	10/21/2021	06:59	-136.478	49.300	0	328.10	0	4.6010	0	33.9030	0	26.853	0	325.050	0	-1e10	8	-1e10	8	-1E+10	1	-1E+10	1	-1E+10	1	-1E+10	1	-1E+10	1	-1E+10	1
4902554	26	C	10/21/2021	06:59	-136.478	49.300	0	329.00	0	4.5940	0	33.9050	0	26.855	0	325.941	0	-1e10	8	-1e10	8	-1E+10	1	-1E+10	1	-1E+10	1	-1E+10	1	-1E+10	1	-1E+10	1
4902554	26	C	10/21/2021	06:59	-136.478	49.300	0	329.80	0	4.5920	0	33.9060	0	26.856	0	326.733	0	-1e10	8	-1e10	8	-1E+10	1	-1E+10	1	-1E+10	1	-1E+10	1	-1E+10	1	-1E+10	1
4902554	26	C	10/21/2021	06:59	-136.478	49.300	0	330.60	0	4.5890	0	33.9070	0	26.857	0	327.525	0	-1e10	8	-1e10	8	-1E+10	1	-1E+10	1	-1E+10	1	-1E+10	1	-1E+10	1	-1E+10	1
4902554	26	C	10/21/2021	06:59	-136.478	49.300	0	331.90	0	4.5830	0	33.9090	0	26.860	0	328.812	0	-1e10	8	-1e10	8	-1E+10	1	-1E+10	1	-1E+10	1	-1E+10	1	-1E+10	1	-1E+10	1
4902554	26	C	10/21/2021	06:59	-136.478	49.300	0	333.20	0	4.5810	0	33.9100	0	26.861	0	330.099	0	-1e10	8	-1e10	8	-1E+10	1	-1E+10	1	-1E+10	1	-1E+10	1	-1E+10	1	-1E+10	1
4902554	26	C	10/21/2021	06:59	-136.478	49.300	0	334.10	0	4.5760	0	33.9120	0	26.863	0	330.989	0	-1e10	8	-1e10	8	-1E+10	1	-1E+10	1	-1E+10	1	-1E+10	1	-1E+10	1	-1E+10	1
4902554	26	C	10/21/2021	06:59	-136.478	49.300	0	334.90	0	4.5750	0	33.9130	0	26.864	0	331.781	0	-1e10	8	-1e10	8	-1E+10	1	-1E+10	1	-1E+10	1	-1E+10	1	-1E+10	1	-1E+10	1
4902554	26	C	10/21/2021	06:59	-136.478	49.300	0	335.80	0	4.5690	0	33.9170	0	26.867	0	332.672	0	-1e10	8	-1e10	8	-1E+10	1	-1E+10	1	-1E+10	1	-1E+10	1	-1E+10	1	-1E+10	1
4902554	26	C	10/21/2021	06:59	-136.478	49.300	0	336.60	0	4.5650	0	33.9190	0	26.870	0	333.464	0	-1e10	8	-1e10	8	-1E+10	1	-1E+10	1	-1E+10	1	-1E+10	1	-1E+10	1	-1E+10	1
4902554	26	C	10/21/2021	06:59	-136.478	49.300	0	337.90	0	4.5540	0	33.9230	0	26.874	0	334.751	0	-1e10	8	-1e10	8	-1E+10	1	-1E+10	1	-1E+10	1	-1E+10	1	-1E+10	1	-1E+10	1
4902554	26	C	10/21/2021	06:59	-136.478	49.300	0	339.20	0	4.5470	0	33.9260	0	26.877	0	336.038	0	-1e10	8	-1e10	8	-1E+10	1	-1E+10	1	-1E+10	1	-1E+10	1	-1E+10	1	-1E+10	1
4902554	26	C	10/21/2021	06:59	-136.478	49.300	0	340.10	0	4.5460	0	33.9260	0	26.877	0	336.929	0	-1e10	8	-1e10	8	-1E+10	1	-1E+10	1	-1E+10	1	-1E+10	1	-1E+10	1	-1E+10	1
4902554	26	C	10/21/2021	06:59	-136.478	49.300	0	341.00	0	4.5450	0	33.9260	0	26.877	0	337.820	0	-1e10	8	-1e10	8	-1E+10	1	-1E+10	1	-1E+10	1	-1E+10	1	-1E+10	1	-1E+10	1
4902554	26	C	10/21/2021	06:59	-136.478	49.300	0	341.90	0	4.5440	0	33.9270	0	26.878	0	338.710	0	-1e10	8	-1e10	8	-1E+10	1	-1E+10	1	-1E+10	1	-1E+10	1	-1E+10	1	-1E+10	1
4902554	26	C	10/21/2021	06:59	-136.478	49.300	0	342.80	0	4.5420	0	33.9280	0	26.879	0	339.601	0	-1e10	8	-1e10	8	-1E+10	1	-1E+10	1	-1E+10	1	-1E+10	1	-1E+10	1	-1E+10	1
4902554	26	C	10/21/2021	06:59	-136.478	49.300	0	343.60	0	4.5400	0	33.9280	0	26.879	0	340.393	0	-1e10	8	-1e10	8	-1E+10	1	-1E+10	1	-1E+10	1	-1E+10	1	-1E+10	1	-1E+10	1
4902554	26	C	10/21/2021	06:59	-136.478	49.300	0	344.90	0	4.5390	0	33.9280	0	26.880	0	341.680	0	-1e10	8	-1e10	8	-1E+10	1	-1E+10	1	-1E+10	1	-1E+10	1	-1E+10	1	-1E+10	1
4902554	26	C	10/21/2021	06:59	-136.478	49.300	0	346.30	0	4.5380	0	33.9290	0	26.880	0	343.066	0	-1e10	8	-1e10	8	-1E+10	1	-1E+10	1	-1E+10	1	-1E+10	1	-1E+10	1	-1E+10	1
4902554	26	C	10/21/2021	06:59	-136.478	49.300	0	347.20	0	4.5350	0	33.9300	0	26.882	0	343.957	0	-1e10	8	-1e10	8	-1E+10	1	-1E+10	1	-1E+10	1	-1E+10	1	-1E+10	1	-1E+10	1
4902554	26	C	10/21/2021	06:59	-136.478	49.300	0	348.00	0	4.5290	0	33.9310	0	26.883	0	344.748	0	-1e10	8	-1e10	8	-1E+10	1	-1E+10	1	-1E+10	1	-1E+10	1	-1E+10	1	-1E+10	1
4902554	26	C	10/21/2021	06:59	-136.478	49.300	0	348.90	0	4.5270	0	33.9310	0	26.883	0	345.639	0	-1e10	8	-1e10	8	-1E+10	1	-1E+10	1	-1E+10	1	-1E+10	1	-1E+10	1	-1E+10	1
4902554	26	C	10/21/2021	06:59	-136.478	49.300	0	349.80	0	4.5210	0	33.9320	0	26.885	0	346.530	0	-1e10	8	-1e10	8	-1E+10	1	-1E+10	1	-1E+10	1	-1E+10	1	-1E+10	1	-1E+10	1
4902554	26	C	10/21/2021	06:59	-136.478	49.300	0	352.90	0	4.5110	0	33.9350	0	26.888	0	349.599	0	-1e10	8	-1e10	8	-1E+10	1	-1E+10	1	-1E+10	1	-1E+10	1	-1E+10	1	-1E+10	1
4902554	26	C	10/21/2021	06:59	-136.478	49.300	0	357.80	0	4.5030	0	33.9410	0	26.894	0	354.448	0	-1e10	8	-1e10	8	-1E+10	1	-1E+10	1	-1E+10	1	-1E+10	1	-1E+10	1	-1E+10	1
4902554	26	C	10/21/2021	06:59	-136.478	49.300	0	362.70	0	4.4960	0	33.9480	0	26.900	0	359.298	0	-1e10	8	-1e10	8	-1E+10	1	-1E+10	1	-1E+10	1	-1E+10	1	-1E+10	1	-1E+10	1
4902554	26	C	10/21/2021	06:59	-136.478	49.300	0	368.00	0	4.4860	0	33.9530	0	26.905	0	364.544	0	-1e10	8	-1e10	8	-1E+10	1	-1E+10	1	-1E+10	1	-1E+10	1	-1E+10	1	-1E+10	1
4902554	26	C	10/21/2021	06:59	-136.478	49.300	0	373.00	0	4.4720	0	33.9600	0	26.912	0	369.493	0	-1e10	8	-1e10	8	-1E+10	1	-1E+10	1	-1E+10	1	-1E+10	1	-1E+10	1	-1E+10	1
4902554	26	C	10/21/2021	06:59	-136.478	49.300	0	378.00	0	4.4570	0	33.9670	0	26.920	0	374.441	0	-1e10	8	-1e10	8	-1E+10	1	-1E+10	1	-1E+10	1	-1E+10	1	-1E+10	1	-1E+10	1
4902554	26	C	10/21/2021	06:59	-136.478	49.300	0	383.00	0	4.4500	0	33.9720	0	26.924	0	379.389	0	-1e10	8	-1e10	8	-1E+10	1	-1E+10	1	-1E+10	1	-1E+10	1	-1E+10	1	-1E+10	1
4902554	26	C	10/21/2021	06:59	-136.478	49.300	0	388.10	0	4.4370	0	33.9760	0	26.929	0	384.437	0	-1e10	8	-1e10	8	-1E+10	1	-1E+10	1	-1E+10	1	-1E+10	1	-1E+10	1	-1E+10	1
4902554	26	C	10/21/2021	06:59	-136.478	49.300	0	393.10	0	4.4220	0	33.9820	0	26.935	0	389.385	0	-1e10	8	-1e10	8	-1E+10	1	-1E+10	1	-1E+10	1	-1E+10	1	-1E+10	1	-1E+10	1
4902554	26	C	10/21/2021	06:59	-136.478	49.300	0	398.00	0	4.4050	0	33.9880	0	26.942	0	394.234	0	-1e10	8	-1e10	8	-1E+10	1	-1E+10	1	-1E+10	1	-1E+10	1	-1E+10	1	-1E+10	1
4902554	26	C	10/21/2021	06:59	-136.478	49.300	0	402.90	0	4.3950	0	33.9930	0	26.947	0	399.083	0	-1e10	8	-1e10	8	-1E+10	1	-1E+10	1	-1E+10	1	-1E+10	1	-1E+10	1	-1E+10	1
4902554	26	C	10/21/2021	06:59	-136.478	49.300	0	407.80	0	4.3840	0	33.9980	0	26.952	0	403.931	0	-1e10	8	-1e10	8	-1E+10	1	-1E+10	1	-1E+10	1	-1E+10	1	-1E+10	1	-1E+10	1
4902554	26	C	10/21/2021	06:59	-136.478	49.300	0	413.10	0	4.3690	0	34.0040	0	26.959	0	409.176	0	-1e10	8	-1e10	8	-1E+10	1	-1E+10	1	-1E+10	1	-1E+10	1	-1E+10	1	-1E+10	1
4902554	26	C	10/21/2021	06:59	-136.478	49.300	0	418.10	0	4.3570	0	34.0090	0	26.964	0	414.123	0	-1e10	8	-1e10	8	-1E+10	1	-1E+10	1	-1E+10	1	-1E+10	1	-1E+10	1	-1E+10	1
4902554	26	C	10/21/2021	06:59	-136.478	49.300	0	423.10	0	4.3440	0	34.0150	0	26.970	0	419.071	0	-1e10	8	-1e10	8	-1E+10	1	-1E+10	1	-1E+10	1	-1E+10	1	-1E+10	1	-1E+10	1
4902554	26	C	10/21/2021	06:59	-136.478	49.300	0	428.10	0	4.3340	0	34.0200	0	26.975	0	424.018	0	-1e10	8	-1e10	8	-1E+10	1	-1E+10	1	-1E+10	1	-1E+10	1	-1E+10	1	-1E+10	1
4902554	26	C	10/21/2021	06:59	-136.478	49.300	0	433.10	0	4.3230	0	34.0260	0	26.981	0	428.965	0	-1e10	8	-1e10	8	-1E+10	1	-1E+10	1	-1E+10	1	-1E+10	1	-1E+10	1	-1E+10	1
4902554	26	C	10/21/2021	06:59	-136.478	49.300	0	438.10	0	4.3160	0	34.0290	0	26.984	0	433.912	0	-1e10	8	-1e10	8	-1E+10	1	-1E+10	1	-1E+10	1	-1E+10	1	-1E+10	1	-1E+10	1
4902554	26	C	10/21/2021	06:59	-136.478	49.300	0	442.70	0	4.3050	0	34.0350	0	26.990	0	438.464	0	-1e10	8	-1e10	8	-1E+10	1	-1E+10	1	-1E+10	1	-1E+10	1	-1E+10	1	-1E+10	1
4902554	26	C	10/21/2021	06:59	-136.478	49.300	0	447.70	0	4.2940	0	34.0400	0	26.995	0	443.410	0	-1e10	8	-1e10	8	-1E+10	1	-1E+10	1	-1E+10	1	-1E+10	1	-1E+10	1	-1E+10	1
4902554	26	C	10/21/2021	06:59	-136.478	49.300	0	452.80	0	4.2830	0	34.0460	0	27.001	0	448.456	0	-1e10	8	-1e10	8	-1E+10	1	-1E+10	1	-1E+10	1	-1E+10	1	-1E+10	1	-1E+10	1
4902554	26	C	10/21/2021	06:59	-136.478	49.300	0	457.90	0	4.2760	0	34.0510	0	27.006	0	453.501	0	-1e10	8	-1e10	8	-1E+10	1	-1E+10	1	-1E+10	1	-1E+10	1	-1E+10	1	-1E+10	1
4902554	26	C	10/21/2021	06:59	-136.478	49.300	0	463.10	0	4.2620	0	34.0570	0	27.012	0	458.646	0	-1e10	8	-1e10	8	-1E+10	1	-1E+10	1	-1E+10	1	-1E+10	1	-1E+10	1	-1E+10	1
4902554	26	C	10/21/2021	06:59	-136.478	49.300	0	468.00	0	4.2390	0	34.0660	0	27.022	0	463.493	0	-1e10	8	-1e10	8	-1E+10	1	-1E+10	1	-1E+10	1	-1E+10	1	-1E+10	1	-1E+10	1
4902554	26	C	10/21/2021	06:59	-136.478	49.300	0	472.90	0	4.2190	0	34.0710	0	27.028	0	468.340	0	-1e10	8	-1e10	8	-1E+10	1	-1E+10	1	-1E+10	1	-1E+10	1	-1E+10	1	-1E+10	1
4902554	26	C	10/21/2021	06:59	-136.478	49.300	0	478.00	0	4.1970	0	34.0730	0	27.032	0	473.386	0	-1e10	8	-1e10	8	-1E+10	1	-1E+10	1	-1E+10	1	-1E+10	1	-1E+10	1	-1E+10	1
4902554	26	C	10/21/2021	06:59	-136.478	49.300	0	483.00	0	4.1940	0	34.0770	0	27.036	0	478.331	0	-1e10	8	-1e10	8	-1E+10	1	-1E+10	1	-1E+10	1	-1E+10	1	-1E+10	1	-1E+10	1
4902554	26	C	10/21/2021	06:59	-136.478	49.300	0	488.00	0	4.2010	0	34.0840	0	27.040	0	483.277	0	-1e10	8	-1e10	8	-1E+10	1	-1E+10	1	-1E+10	1	-1E+10	1	-1E+10	1	-1E+10	1
4902554	26	C	10/21/2021	06:59	-136.478	49.300	0	493.10	0	4.1840	0	34.0880	0	27.045	0	488.322	0	-1e10	8	-1e10	8	-1E+10	1	-1E+10	1	-1E+10	1	-1E+10	1	-1E+10	1	-1E+10	1
4902554	26	C	10/21/2021	06:59	-136.478	49.300	0	497.80	0	4.1790	0	34.0930	0	27.050	0	492.971	0	-1e10	8	-1e10	8	-1E+10	1	-1E+10	1	-1E+10	1	-1E+10	1	-1E+10	1	-1E+10	1
4902554	26	C	10/21/2021	06:59	-136.478	49.300	0	502.60	0	4.1670	0	34.0990	0	27.056	0	497.719	0	-1e10	8	-1e10	8	-1E+10	1	-1E+10	1	-1E+10	1	-1E+10	1	-1E+10	1	-1E+10	1
4902554	26	C	10/21/2021	06:59	-136.478	49.300	0	507.90	0	4.1500	0	34.1040	0	27.062	0	502.961	0	-1e10	8	-1e10	8	-1E+10	1	-1E+10	1	-1E+10	1	-1E+10	1	-1E+10	1	-1E+10	1
4902554	26	C	10/21/2021	06:59	-136.478	49.300	0	513.30	0	4.1380	0	34.1090	0	27.067	0	508.302	0	-1e10	8	-1e10	8	-1E+10	1	-1E+10	1	-1E+10	1	-1E+10	1	-1E+10	1	-1E+10	1
4902554	26	C	10/21/2021	06:59	-136.478	49.300	0	517.90	0	4.1310	0	34.1120	0	27.070	0	512.851	0	-1e10	8	-1e10	8	-1E+10	1	-1E+10	1	-1E+10	1	-1E+10	1	-1E+10	1	-1E+10	1
4902554	26	C	10/21/2021	06:59	-136.478	49.300	0	522.60	0	4.1230	0	34.1160	0	27.074	0	517.499	0	-1e10	8	-1e10	8	-1E+10	1	-1E+10	1	-1E+10	1	-1E+10	1	-1E+10	1	-1E+10	1
4902554	26	C	10/21/2021	06:59	-136.478	49.300	0	527.90	0	4.1140	0	34.1190	0	27.078	0	522.741	0	-1e10	8	-1e10	8	-1E+10	1	-1E+10	1	-1E+10	1	-1E+10	1	-1E+10	1	-1E+10	1
4902554	26	C	10/21/2021	06:59	-136.478	49.300	0	532.80	0	4.0970	0	34.1230	0	27.083	0	527.587	0	-1e10	8	-1e10	8	-1E+10	1	-1E+10	1	-1E+10	1	-1E+10	1	-1E+10	1	-1E+10	1
4902554	26	C	10/21/2021	06:59	-136.478	49.300	0	537.90	0	4.0870	0	34.1270	0	27.087	0	532.631	0	-1e10	8	-1e10	8	-1E+10	1	-1E+10	1	-1E+10	1	-1E+10	1	-1E+10	1	-1E+10	1
4902554	26	C	10/21/2021	06:59	-136.478	49.300	0	543.10	0	4.0810	0	34.1290	0	27.089	0	537.773	0	-1e10	8	-1e10	8	-1E+10	1	-1E+10	1	-1E+10	1	-1E+10	1	-1E+10	1	-1E+10	1
4902554	26	C	10/21/2021	06:59	-136.478	49.300	0	547.80	0	4.0760	0	34.1320	0	27.092	0	542.421	0	-1e10	8	-1e10	8	-1E+10	1	-1E+10	1	-1E+10	1	-1E+10	1	-1E+10	1	-1E+10	1
4902554	26	C	10/21/2021	06:59	-136.478	49.300	0	552.80	0	4.0650	0	34.1350	0	27.096	0	547.365	0	-1e10	8	-1e10	8	-1E+10	1	-1E+10	1	-1E+10	1	-1E+10	1	-1E+10	1	-1E+10	1
4902554	26	C	10/21/2021	06:59	-136.478	49.300	0	557.80	0	4.0480	0	34.1370	0	27.099	0	552.309	0	-1e10	8	-1e10	8	-1E+10	1	-1E+10	1	-1E+10	1	-1E+10	1	-1E+10	1	-1E+10	1
4902554	26	C	10/21/2021	06:59	-136.478	49.300	0	562.80	0	4.0460	0	34.1410	0	27.102	0	557.253	0	-1e10	8	-1e10	8	-1E+10	1	-1E+10	1	-1E+10	1	-1E+10	1	-1E+10	1	-1E+10	1
4902554	26	C	10/21/2021	06:59	-136.478	49.300	0	568.00	0	4.0400	0	34.1430	0	27.105	0	562.395	0	-1e10	8	-1e10	8	-1E+10	1	-1E+10	1	-1E+10	1	-1E+10	1	-1E+10	1	-1E+10	1
4902554	26	C	10/21/2021	06:59	-136.478	49.300	0	573.30	0	4.0130	0	34.1450	0	27.109	0	567.635	0	-1e10	8	-1e10	8	-1E+10	1	-1E+10	1	-1E+10	1	-1E+10	1	-1E+10	1	-1E+10	1
4902554	26	C	10/21/2021	06:59	-136.478	49.300	0	578.00	0	3.9710	0	34.1460	0	27.114	0	572.283	0	-1e10	8	-1e10	8	-1E+10	1	-1E+10	1	-1E+10	1	-1E+10	1	-1E+10	1	-1E+10	1
4902554	26	C	10/21/2021	06:59	-136.478	49.300	0	582.80	0	3.9580	0	34.1490	0	27.118	0	577.028	0	-1e10	8	-1e10	8	-1E+10	1	-1E+10	1	-1E+10	1	-1E+10	1	-1E+10	1	-1E+10	1
4902554	26	C	10/21/2021	06:59	-136.478	49.300	0	587.70	0	3.9490	0	34.1520	0	27.121	0	581.873	0	-1e10	8	-1e10	8	-1E+10	1	-1E+10	1	-1E+10	1	-1E+10	1	-1E+10	1	-1E+10	1
4902554	26	C	10/21/2021	06:59	-136.478	49.300	0	592.70	0	3.9480	0	34.1530	0	27.122	0	586.816	0	-1e10	8	-1e10	8	-1E+10	1	-1E+10	1	-1E+10	1	-1E+10	1	-1E+10	1	-1E+10	1
4902554	26	C	10/21/2021	06:59	-136.478	49.300	0	597.70	0	3.9400	0	34.1560	0	27.125	0	591.760	0	-1e10	8	-1e10	8	-1E+10	1	-1E+10	1	-1E+10	1	-1E+10	1	-1E+10	1	-1E+10	1
4902554	26	C	10/21/2021	06:59	-136.478	49.300	0	602.70	0	3.9250	0	34.1600	0	27.130	0	596.703	0	-1e10	8	-1e10	8	-1E+10	1	-1E+10	1	-1E+10	1	-1E+10	1	-1E+10	1	-1E+10	1
4902554	26	C	10/21/2021	06:59	-136.478	49.300	0	607.80	0	3.9130	0	34.1630	0	27.134	0	601.745	0	-1e10	8	-1e10	8	-1E+10	1	-1E+10	1	-1E+10	1	-1E+10	1	-1E+10	1	-1E+10	1
4902554	26	C	10/21/2021	06:59	-136.478	49.300	0	613.00	0	3.9100	0	34.1640	0	27.135	0	606.885	0	-1e10	8	-1e10	8	-1E+10	1	-1E+10	1	-1E+10	1	-1E+10	1	-1E+10	1	-1E+10	1
4902554	26	C	10/21/2021	06:59	-136.478	49.300	0	618.20	0	3.8980	0	34.1680	0	27.139	0	612.026	0	-1e10	8	-1e10	8	-1E+10	1	-1E+10	1	-1E+10	1	-1E+10	1	-1E+10	1	-1E+10	1
4902554	26	C	10/21/2021	06:59	-136.478	49.300	0	622.70	0	3.8880	0	34.1730	0	27.144	0	616.474	0	-1e10	8	-1e10	8	-1E+10	1	-1E+10	1	-1E+10	1	-1E+10	1	-1E+10	1	-1E+10	1
4902554	26	C	10/21/2021	06:59	-136.478	49.300	0	627.80	0	3.8770	0	34.1750	0	27.147	0	621.516	0	-1e10	8	-1e10	8	-1E+10	1	-1E+10	1	-1E+10	1	-1E+10	1	-1E+10	1	-1E+10	1
4902554	26	C	10/21/2021	06:59	-136.478	49.300	0	632.90	0	3.8670	0	34.1780	0	27.150	0	626.557	0	-1e10	8	-1e10	8	-1E+10	1	-1E+10	1	-1E+10	1	-1E+10	1	-1E+10	1	-1E+10	1
4902554	26	C	10/21/2021	06:59	-136.478	49.300	0	638.00	0	3.8610	0	34.1800	0	27.153	0	631.598	0	-1e10	8	-1e10	8	-1E+10	1	-1E+10	1	-1E+10	1	-1E+10	1	-1E+10	1	-1E+10	1
4902554	26	C	10/21/2021	06:59	-136.478	49.300	0	643.00	0	3.8570	0	34.1820	0	27.155	0	636.540	0	-1e10	8	-1e10	8	-1E+10	1	-1E+10	1	-1E+10	1	-1E+10	1	-1E+10	1	-1E+10	1
4902554	26	C	10/21/2021	06:59	-136.478	49.300	0	648.10	0	3.8480	0	34.1840	0	27.157	0	641.581	0	-1e10	8	-1e10	8	-1E+10	1	-1E+10	1	-1E+10	1	-1E+10	1	-1E+10	1	-1E+10	1
4902554	26	C	10/21/2021	06:59	-136.478	49.300	0	653.10	0	3.8340	0	34.1870	0	27.161	0	646.523	0	-1e10	8	-1e10	8	-1E+10	1	-1E+10	1	-1E+10	1	-1E+10	1	-1E+10	1	-1E+10	1
4902554	26	C	10/21/2021	06:59	-136.478	49.300	0	658.10	0	3.8200	0	34.1900	0	27.165	0	651.465	0	-1e10	8	-1e10	8	-1E+10	1	-1E+10	1	-1E+10	1	-1E+10	1	-1E+10	1	-1E+10	1
4902554	26	C	10/21/2021	06:59	-136.478	49.300	0	663.00	0	3.8100	0	34.1940	0	27.169	0	656.308	0	-1e10	8	-1e10	8	-1E+10	1	-1E+10	1	-1E+10	1	-1E+10	1	-1E+10	1	-1E+10	1
4902554	26	C	10/21/2021	06:59	-136.478	49.300	0	667.90	0	3.7950	0	34.1980	0	27.174	0	661.151	0	-1e10	8	-1e10	8	-1E+10	1	-1E+10	1	-1E+10	1	-1E+10	1	-1E+10	1	-1E+10	1
4902554	26	C	10/21/2021	06:59	-136.478	49.300	0	672.80	0	3.7810	0	34.2000	0	27.177	0	665.993	0	-1e10	8	-1e10	8	-1E+10	1	-1E+10	1	-1E+10	1	-1E+10	1	-1E+10	1	-1E+10	1
4902554	26	C	10/21/2021	06:59	-136.478	49.300	0	677.70	0	3.7700	0	34.2040	0	27.181	0	670.836	0	-1e10	8	-1e10	8	-1E+10	1	-1E+10	1	-1E+10	1	-1E+10	1	-1E+10	1	-1E+10	1
4902554	26	C	10/21/2021	06:59	-136.478	49.300	0	683.10	0	3.7560	0	34.2070	0	27.185	0	676.172	0	-1e10	8	-1e10	8	-1E+10	1	-1E+10	1	-1E+10	1	-1E+10	1	-1E+10	1	-1E+10	1
4902554	26	C	10/21/2021	06:59	-136.478	49.300	0	687.90	0	3.7400	0	34.2110	0	27.190	0	680.916	0	-1e10	8	-1e10	8	-1E+10	1	-1E+10	1	-1E+10	1	-1E+10	1	-1E+10	1	-1E+10	1
4902554	26	C	10/21/2021	06:59	-136.478	49.300	0	692.70	0	3.7310	0	34.2140	0	27.193	0	685.659	0	-1e10	8	-1e10	8	-1E+10	1	-1E+10	1	-1E+10	1	-1E+10	1	-1E+10	1	-1E+10	1
4902554	26	C	10/21/2021	06:59	-136.478	49.300	0	698.00	0	3.7140	0	34.2170	0	27.197	0	690.897	0	-1e10	8	-1e10	8	-1E+10	1	-1E+10	1	-1E+10	1	-1E+10	1	-1E+10	1	-1E+10	1
4902554	26	C	10/21/2021	06:59	-136.478	49.300	0	702.80	0	3.6940	0	34.2220	0	27.203	0	695.640	0	-1e10	8	-1e10	8	-1E+10	1	-1E+10	1	-1E+10	1	-1E+10	1	-1E+10	1	-1E+10	1
4902554	26	C	10/21/2021	06:59	-136.478	49.300	0	707.60	0	3.6860	0	34.2240	0	27.206	0	700.383	0	-1e10	8	-1e10	8	-1E+10	1	-1E+10	1	-1E+10	1	-1E+10	1	-1E+10	1	-1E+10	1
4902554	26	C	10/21/2021	06:59	-136.478	49.300	0	712.90	0	3.6700	0	34.2270	0	27.210	0	705.620	0	-1e10	8	-1e10	8	-1E+10	1	-1E+10	1	-1E+10	1	-1E+10	1	-1E+10	1	-1E+10	1
4902554	26	C	10/21/2021	06:59	-136.478	49.300	0	718.30	0	3.6510	0	34.2320	0	27.215	0	710.955	0	-1e10	8	-1e10	8	-1E+10	1	-1E+10	1	-1E+10	1	-1E+10	1	-1E+10	1	-1E+10	1
4902554	26	C	10/21/2021	06:59	-136.478	49.300	0	723.50	0	3.6400	0	34.2350	0	27.219	0	716.093	0	-1e10	8	-1e10	8	-1E+10	1	-1E+10	1	-1E+10	1	-1E+10	1	-1E+10	1	-1E+10	1
4902554	26	C	10/21/2021	06:59	-136.478	49.300	0	728.20	0	3.6310	0	34.2370	0	27.221	0	720.737	0	-1e10	8	-1e10	8	-1E+10	1	-1E+10	1	-1E+10	1	-1E+10	1	-1E+10	1	-1E+10	1
4902554	26	C	10/21/2021	06:59	-136.478	49.300	0	733.10	0	3.6260	0	34.2380	0	27.223	0	725.578	0	-1e10	8	-1e10	8	-1E+10	1	-1E+10	1	-1E+10	1	-1E+10	1	-1E+10	1	-1E+10	1
4902554	26	C	10/21/2021	06:59	-136.478	49.300	0	738.10	0	3.6130	0	34.2400	0	27.226	0	730.518	0	-1e10	8	-1e10	8	-1E+10	1	-1E+10	1	-1E+10	1	-1E+10	1	-1E+10	1	-1E+10	1
4902554	26	C	10/21/2021	06:59	-136.478	49.300	0	743.10	0	3.5910	0	34.2450	0	27.232	0	735.458	0	-1e10	8	-1e10	8	-1E+10	1	-1E+10	1	-1E+10	1	-1E+10	1	-1E+10	1	-1E+10	1
4902554	26	C	10/21/2021	06:59	-136.478	49.300	0	748.00	0	3.5820	0	34.2470	0	27.234	0	740.299	0	-1e10	8	-1e10	8	-1E+10	1	-1E+10	1	-1E+10	1	-1E+10	1	-1E+10	1	-1E+10	1
4902554	26	C	10/21/2021	06:59	-136.478	49.300	0	753.00	0	3.5680	0	34.2500	0	27.238	0	745.239	0	-1e10	8	-1e10	8	-1E+10	1	-1E+10	1	-1E+10	1	-1E+10	1	-1E+10	1	-1E+10	1
4902554	26	C	10/21/2021	06:59	-136.478	49.300	0	758.00	0	3.5570	0	34.2520	0	27.241	0	750.178	0	-1e10	8	-1e10	8	-1E+10	1	-1E+10	1	-1E+10	1	-1E+10	1	-1E+10	1	-1E+10	1
4902554	26	C	10/21/2021	06:59	-136.478	49.300	0	762.90	0	3.5390	0	34.2570	0	27.247	0	755.019	0	-1e10	8	-1e10	8	-1E+10	1	-1E+10	1	-1E+10	1	-1E+10	1	-1E+10	1	-1E+10	1
4902554	26	C	10/21/2021	06:59	-136.478	49.300	0	767.90	0	3.5300	0	34.2590	0	27.249	0	759.958	0	-1e10	8	-1e10	8	-1E+10	1	-1E+10	1	-1E+10	1	-1E+10	1	-1E+10	1	-1E+10	1
4902554	26	C	10/21/2021	06:59	-136.478	49.300	0	772.90	0	3.5100	0	34.2620	0	27.253	0	764.897	0	-1e10	8	-1e10	8	-1E+10	1	-1E+10	1	-1E+10	1	-1E+10	1	-1E+10	1	-1E+10	1
4902554	26	C	10/21/2021	06:59	-136.478	49.300	0	778.00	0	3.4940	0	34.2660	0	27.258	0	769.935	0	-1e10	8	-1e10	8	-1E+10	1	-1E+10	1	-1E+10	1	-1E+10	1	-1E+10	1	-1E+10	1
4902554	26	C	10/21/2021	06:59	-136.478	49.300	0	783.10	0	3.4820	0	34.2690	0	27.262	0	774.972	0	-1e10	8	-1e10	8	-1E+10	1	-1E+10	1	-1E+10	1	-1E+10	1	-1E+10	1	-1E+10	1
4902554	26	C	10/21/2021	06:59	-136.478	49.300	0	787.90	0	3.4620	0	34.2720	0	27.266	0	779.714	0	-1e10	8	-1e10	8	-1E+10	1	-1E+10	1	-1E+10	1	-1E+10	1	-1E+10	1	-1E+10	1
4902554	26	C	10/21/2021	06:59	-136.478	49.300	0	792.60	0	3.4530	0	34.2740	0	27.269	0	784.356	0	-1e10	8	-1e10	8	-1E+10	1	-1E+10	1	-1E+10	1	-1E+10	1	-1E+10	1	-1E+10	1
4902554	26	C	10/21/2021	06:59	-136.478	49.300	0	797.90	0	3.4410	0	34.2780	0	27.273	0	789.591	0	-1e10	8	-1e10	8	-1E+10	1	-1E+10	1	-1E+10	1	-1E+10	1	-1E+10	1	-1E+10	1
4902554	26	C	10/21/2021	06:59	-136.478	49.300	0	803.10	0	3.4390	0	34.2800	0	27.275	0	794.727	0	-1e10	8	-1e10	8	-1E+10	1	-1E+10	1	-1E+10	1	-1E+10	1	-1E+10	1	-1E+10	1
4902554	26	C	10/21/2021	06:59	-136.478	49.300	0	808.00	0	3.4240	0	34.2820	0	27.278	0	799.566	0	-1e10	8	-1e10	8	-1E+10	1	-1E+10	1	-1E+10	1	-1E+10	1	-1E+10	1	-1E+10	1
4902554	26	C	10/21/2021	06:59	-136.478	49.300	0	812.90	0	3.4100	0	34.2860	0	27.282	0	804.406	0	-1e10	8	-1e10	8	-1E+10	1	-1E+10	1	-1E+10	1	-1E+10	1	-1E+10	1	-1E+10	1
4902554	26	C	10/21/2021	06:59	-136.478	49.300	0	817.80	0	3.4030	0	34.2870	0	27.284	0	809.245	0	-1e10	8	-1e10	8	-1E+10	1	-1E+10	1	-1E+10	1	-1E+10	1	-1E+10	1	-1E+10	1
4902554	26	C	10/21/2021	06:59	-136.478	49.300	0	822.70	0	3.3940	0	34.2890	0	27.286	0	814.084	0	-1e10	8	-1e10	8	-1E+10	1	-1E+10	1	-1E+10	1	-1E+10	1	-1E+10	1	-1E+10	1
4902554	26	C	10/21/2021	06:59	-136.478	49.300	0	827.70	0	3.3790	0	34.2920	0	27.290	0	819.022	0	-1e10	8	-1e10	8	-1E+10	1	-1E+10	1	-1E+10	1	-1E+10	1	-1E+10	1	-1E+10	1
4902554	26	C	10/21/2021	06:59	-136.478	49.300	0	832.80	0	3.3680	0	34.2940	0	27.293	0	824.059	0	-1e10	8	-1e10	8	-1E+10	1	-1E+10	1	-1E+10	1	-1E+10	1	-1E+10	1	-1E+10	1
4902554	26	C	10/21/2021	06:59	-136.478	49.300	0	837.90	0	3.3540	0	34.2970	0	27.297	0	829.095	0	-1e10	8	-1e10	8	-1E+10	1	-1E+10	1	-1E+10	1	-1E+10	1	-1E+10	1	-1E+10	1
4902554	26	C	10/21/2021	06:59	-136.478	49.300	0	842.60	0	3.3440	0	34.2990	0	27.299	0	833.736	0	-1e10	8	-1e10	8	-1E+10	1	-1E+10	1	-1E+10	1	-1E+10	1	-1E+10	1	-1E+10	1
4902554	26	C	10/21/2021	06:59	-136.478	49.300	0	847.80	0	3.3250	0	34.3040	0	27.305	0	838.871	0	-1e10	8	-1e10	8	-1E+10	1	-1E+10	1	-1E+10	1	-1E+10	1	-1E+10	1	-1E+10	1
4902554	26	C	10/21/2021	06:59	-136.478	49.300	0	853.00	0	3.3190	0	34.3060	0	27.307	0	844.006	0	-1e10	8	-1e10	8	-1E+10	1	-1E+10	1	-1E+10	1	-1E+10	1	-1E+10	1	-1E+10	1
4902554	26	C	10/21/2021	06:59	-136.478	49.300	0	858.00	0	3.3150	0	34.3060	0	27.307	0	848.943	0	-1e10	8	-1e10	8	-1E+10	1	-1E+10	1	-1E+10	1	-1E+10	1	-1E+10	1	-1E+10	1
4902554	26	C	10/21/2021	06:59	-136.478	49.300	0	862.90	0	3.3010	0	34.3100	0	27.312	0	853.781	0	-1e10	8	-1e10	8	-1E+10	1	-1E+10	1	-1E+10	1	-1E+10	1	-1E+10	1	-1E+10	1
4902554	26	C	10/21/2021	06:59	-136.478	49.300	0	867.90	0	3.2890	0	34.3130	0	27.316	0	858.718	0	-1e10	8	-1e10	8	-1E+10	1	-1E+10	1	-1E+10	1	-1E+10	1	-1E+10	1	-1E+10	1
4902554	26	C	10/21/2021	06:59	-136.478	49.300	0	873.10	0	3.2810	0	34.3150	0	27.318	0	863.852	0	-1e10	8	-1e10	8	-1E+10	1	-1E+10	1	-1E+10	1	-1E+10	1	-1E+10	1	-1E+10	1
4902554	26	C	10/21/2021	06:59	-136.478	49.300	0	877.80	0	3.2710	0	34.3180	0	27.321	0	868.493	0	-1e10	8	-1e10	8	-1E+10	1	-1E+10	1	-1E+10	1	-1E+10	1	-1E+10	1	-1E+10	1
4902554	26	C	10/21/2021	06:59	-136.478	49.300	0	883.00	0	3.2660	0	34.3190	0	27.323	0	873.627	0	-1e10	8	-1e10	8	-1E+10	1	-1E+10	1	-1E+10	1	-1E+10	1	-1E+10	1	-1E+10	1
4902554	26	C	10/21/2021	06:59	-136.478	49.300	0	888.20	0	3.2620	0	34.3200	0	27.324	0	878.761	0	-1e10	8	-1e10	8	-1E+10	1	-1E+10	1	-1E+10	1	-1E+10	1	-1E+10	1	-1E+10	1
4902554	26	C	10/21/2021	06:59	-136.478	49.300	0	893.20	0	3.2530	0	34.3220	0	27.326	0	883.697	0	-1e10	8	-1e10	8	-1E+10	1	-1E+10	1	-1E+10	1	-1E+10	1	-1E+10	1	-1E+10	1
4902554	26	C	10/21/2021	06:59	-136.478	49.300	0	897.80	0	3.2470	0	34.3230	0	27.328	0	888.238	0	-1e10	8	-1e10	8	-1E+10	1	-1E+10	1	-1E+10	1	-1E+10	1	-1E+10	1	-1E+10	1
4902554	26	C	10/21/2021	06:59	-136.478	49.300	0	902.60	0	3.2350	0	34.3260	0	27.331	0	892.977	0	-1e10	8	-1e10	8	-1E+10	1	-1E+10	1	-1E+10	1	-1E+10	1	-1E+10	1	-1E+10	1
4902554	26	C	10/21/2021	06:59	-136.478	49.300	0	907.80	0	3.2210	0	34.3280	0	27.334	0	898.110	0	-1e10	8	-1e10	8	-1E+10	1	-1E+10	1	-1E+10	1	-1E+10	1	-1E+10	1	-1E+10	1
4902554	26	C	10/21/2021	06:59	-136.478	49.300	0	913.00	0	3.2120	0	34.3300	0	27.337	0	903.244	0	-1e10	8	-1e10	8	-1E+10	1	-1E+10	1	-1E+10	1	-1E+10	1	-1E+10	1	-1E+10	1
4902554	26	C	10/21/2021	06:59	-136.478	49.300	0	917.90	0	3.2020	0	34.3320	0	27.339	0	908.081	0	-1e10	8	-1e10	8	-1E+10	1	-1E+10	1	-1E+10	1	-1E+10	1	-1E+10	1	-1E+10	1
4902554	26	C	10/21/2021	06:59	-136.478	49.300	0	922.70	0	3.1930	0	34.3340	0	27.342	0	912.819	0	-1e10	8	-1e10	8	-1E+10	1	-1E+10	1	-1E+10	1	-1E+10	1	-1E+10	1	-1E+10	1
4902554	26	C	10/21/2021	06:59	-136.478	49.300	0	928.10	0	3.1860	0	34.3350	0	27.343	0	918.149	0	-1e10	8	-1e10	8	-1E+10	1	-1E+10	1	-1E+10	1	-1E+10	1	-1E+10	1	-1E+10	1
4902554	26	C	10/21/2021	06:59	-136.478	49.300	0	933.20	0	3.1780	0	34.3370	0	27.345	0	923.183	0	-1e10	8	-1e10	8	-1E+10	1	-1E+10	1	-1E+10	1	-1E+10	1	-1E+10	1	-1E+10	1
4902554	26	C	10/21/2021	06:59	-136.478	49.300	0	937.70	0	3.1710	0	34.3380	0	27.347	0	927.625	0	-1e10	8	-1e10	8	-1E+10	1	-1E+10	1	-1E+10	1	-1E+10	1	-1E+10	1	-1E+10	1
4902554	26	C	10/21/2021	06:59	-136.478	49.300	0	942.70	0	3.1630	0	34.3390	0	27.348	0	932.560	0	-1e10	8	-1e10	8	-1E+10	1	-1E+10	1	-1E+10	1	-1E+10	1	-1E+10	1	-1E+10	1
4902554	26	C	10/21/2021	06:59	-136.478	49.300	0	947.90	0	3.1530	0	34.3410	0	27.351	0	937.693	0	-1e10	8	-1e10	8	-1E+10	1	-1E+10	1	-1E+10	1	-1E+10	1	-1E+10	1	-1E+10	1
4902554	26	C	10/21/2021	06:59	-136.478	49.300	0	953.00	0	3.1430	0	34.3430	0	27.354	0	942.726	0	-1e10	8	-1e10	8	-1E+10	1	-1E+10	1	-1E+10	1	-1E+10	1	-1E+10	1	-1E+10	1
4902554	26	C	10/21/2021	06:59	-136.478	49.300	0	958.20	0	3.1340	0	34.3450	0	27.356	0	947.858	0	-1e10	8	-1e10	8	-1E+10	1	-1E+10	1	-1E+10	1	-1E+10	1	-1E+10	1	-1E+10	1
4902554	26	C	10/21/2021	06:59	-136.478	49.300	0	962.90	0	3.1290	0	34.3460	0	27.357	0	952.497	0	-1e10	8	-1e10	8	-1E+10	1	-1E+10	1	-1E+10	1	-1E+10	1	-1E+10	1	-1E+10	1
4902554	26	C	10/21/2021	06:59	-136.478	49.300	0	967.70	0	3.1180	0	34.3480	0	27.360	0	957.234	0	-1e10	8	-1e10	8	-1E+10	1	-1E+10	1	-1E+10	1	-1E+10	1	-1E+10	1	-1E+10	1
4902554	26	C	10/21/2021	06:59	-136.478	49.300	0	972.50	0	3.1090	0	34.3490	0	27.362	0	961.971	0	-1e10	8	-1e10	8	-1E+10	1	-1E+10	1	-1E+10	1	-1E+10	1	-1E+10	1	-1E+10	1
4902554	26	C	10/21/2021	06:59	-136.478	49.300	0	977.90	0	3.1030	0	34.3510	0	27.364	0	967.300	0	-1e10	8	-1e10	8	-1E+10	1	-1E+10	1	-1E+10	1	-1E+10	1	-1E+10	1	-1E+10	1
4902554	26	C	10/21/2021	06:59	-136.478	49.300	0	983.20	0	3.0960	0	34.3540	0	27.367	0	972.531	0	-1e10	8	-1e10	8	-1E+10	1	-1E+10	1	-1E+10	1	-1E+10	1	-1E+10	1	-1E+10	1
4902554	26	C	10/21/2021	06:59	-136.478	49.300	0	988.10	0	3.0880	0	34.3560	0	27.369	0	977.366	0	-1e10	8	-1e10	8	-1E+10	1	-1E+10	1	-1E+10	1	-1E+10	1	-1E+10	1	-1E+10	1
4902554	26	C	10/21/2021	06:59	-136.478	49.300	0	993.10	0	3.0780	0	34.3570	0	27.371	0	982.300	0	-1e10	8	-1e10	8	-1E+10	1	-1E+10	1	-1E+10	1	-1E+10	1	-1E+10	1	-1E+10	1
4902554	26	C	10/21/2021	06:59	-136.478	49.300	0	998.00	0	3.0750	0	34.3580	0	27.372	0	987.135	0	-1e10	8	-1e10	8	-1E+10	1	-1E+10	1	-1E+10	1	-1E+10	1	-1E+10	1	-1E+10	1
4902554	26	C	10/21/2021	06:59	-136.478	49.300	0	1005.50	0	3.0620	0	34.3600	0	27.375	0	994.536	0	-1e10	8	-1e10	8	-1E+10	1	-1E+10	1	-1E+10	1	-1E+10	1	-1E+10	1	-1E+10	1
4902554	26	C	10/21/2021	06:59	-136.478	49.300	0	1015.40	0	3.0450	0	34.3640	0	27.380	0	1004.304	0	-1e10	8	-1e10	8	-1E+10	1	-1E+10	1	-1E+10	1	-1E+10	1	-1E+10	1	-1E+10	1
4902554	26	C	10/21/2021	06:59	-136.478	49.300	0	1025.40	0	3.0200	0	34.3680	0	27.385	0	1014.171	0	-1e10	8	-1e10	8	-1E+10	1	-1E+10	1	-1E+10	1	-1E+10	1	-1E+10	1	-1E+10	1
4902554	26	C	10/21/2021	06:59	-136.478	49.300	0	1035.50	0	3.0010	0	34.3720	0	27.390	0	1024.135	0	-1e10	8	-1e10	8	-1E+10	1	-1E+10	1	-1E+10	1	-1E+10	1	-1E+10	1	-1E+10	1
4902554	26	C	10/21/2021	06:59	-136.478	49.300	0	1045.80	0	2.9830	0	34.3750	0	27.394	0	1034.297	0	-1e10	8	-1e10	8	-1E+10	1	-1E+10	1	-1E+10	1	-1E+10	1	-1E+10	1	-1E+10	1
4902554	26	C	10/21/2021	06:59	-136.478	49.300	0	1055.40	0	2.9640	0	34.3790	0	27.399	0	1043.768	0	-1e10	8	-1e10	8	-1E+10	1	-1E+10	1	-1E+10	1	-1E+10	1	-1E+10	1	-1E+10	1
4902554	26	C	10/21/2021	06:59	-136.478	49.300	0	1065.00	0	2.9450	0	34.3830	0	27.404	0	1053.238	0	-1e10	8	-1e10	8	-1E+10	1	-1E+10	1	-1E+10	1	-1E+10	1	-1E+10	1	-1E+10	1
4902554	26	C	10/21/2021	06:59	-136.478	49.300	0	1075.10	0	2.9250	0	34.3860	0	27.408	0	1063.200	0	-1e10	8	-1e10	8	-1E+10	1	-1E+10	1	-1E+10	1	-1E+10	1	-1E+10	1	-1E+10	1
4902554	26	C	10/21/2021	06:59	-136.478	49.300	0	1085.10	0	2.9050	0	34.3900	0	27.413	0	1073.064	0	-1e10	8	-1e10	8	-1E+10	1	-1E+10	1	-1E+10	1	-1E+10	1	-1E+10	1	-1E+10	1
4902554	26	C	10/21/2021	06:59	-136.478	49.300	0	1095.20	0	2.8820	0	34.3940	0	27.419	0	1083.026	0	-1e10	8	-1e10	8	-1E+10	1	-1E+10	1	-1E+10	1	-1E+10	1	-1E+10	1	-1E+10	1
4902554	26	C	10/21/2021	06:59	-136.478	49.300	0	1105.30	0	2.8710	0	34.3970	0	27.422	0	1092.988	0	-1e10	8	-1e10	8	-1E+10	1	-1E+10	1	-1E+10	1	-1E+10	1	-1E+10	1	-1E+10	1
4902554	26	C	10/21/2021	06:59	-136.478	49.300	0	1115.30	0	2.8530	0	34.4000	0	27.426	0	1102.850	0	-1e10	8	-1e10	8	-1E+10	1	-1E+10	1	-1E+10	1	-1E+10	1	-1E+10	1	-1E+10	1
4902554	26	C	10/21/2021	06:59	-136.478	49.300	0	1125.30	0	2.8410	0	34.4020	0	27.429	0	1112.712	0	-1e10	8	-1e10	8	-1E+10	1	-1E+10	1	-1E+10	1	-1E+10	1	-1E+10	1	-1E+10	1
4902554	26	C	10/21/2021	06:59	-136.478	49.300	0	1135.30	0	2.8250	0	34.4050	0	27.433	0	1122.573	0	-1e10	8	-1e10	8	-1E+10	1	-1E+10	1	-1E+10	1	-1E+10	1	-1E+10	1	-1E+10	1
4902554	26	C	10/21/2021	06:59	-136.478	49.300	0	1145.50	0	2.8060	0	34.4090	0	27.438	0	1132.631	0	-1e10	8	-1e10	8	-1E+10	1	-1E+10	1	-1E+10	1	-1E+10	1	-1E+10	1	-1E+10	1
4902554	26	C	10/21/2021	06:59	-136.478	49.300	0	1155.30	0	2.7960	0	34.4110	0	27.440	0	1142.295	0	-1e10	8	-1e10	8	-1E+10	1	-1E+10	1	-1E+10	1	-1E+10	1	-1E+10	1	-1E+10	1
4902554	26	C	10/21/2021	06:59	-136.478	49.300	0	1165.40	0	2.7820	0	34.4140	0	27.444	0	1152.253	0	-1e10	8	-1e10	8	-1E+10	1	-1E+10	1	-1E+10	1	-1E+10	1	-1E+10	1	-1E+10	1
4902554	26	C	10/21/2021	06:59	-136.478	49.300	0	1175.30	0	2.7640	0	34.4180	0	27.449	0	1162.014	0	-1e10	8	-1e10	8	-1E+10	1	-1E+10	1	-1E+10	1	-1E+10	1	-1E+10	1	-1E+10	1
4902554	26	C	10/21/2021	06:59	-136.478	49.300	0	1185.20	0	2.7510	0	34.4210	0	27.452	0	1171.775	0	-1e10	8	-1e10	8	-1E+10	1	-1E+10	1	-1E+10	1	-1E+10	1	-1E+10	1	-1E+10	1
4902554	26	C	10/21/2021	06:59	-136.478	49.300	0	1195.40	0	2.7340	0	34.4240	0	27.456	0	1181.831	0	-1e10	8	-1e10	8	-1E+10	1	-1E+10	1	-1E+10	1	-1E+10	1	-1E+10	1	-1E+10	1
4902554	26	C	10/21/2021	06:59	-136.478	49.300	0	1205.40	0	2.7170	0	34.4270	0	27.460	0	1191.689	0	-1e10	8	-1e10	8	-1E+10	1	-1E+10	1	-1E+10	1	-1E+10	1	-1E+10	1	-1E+10	1
4902554	26	C	10/21/2021	06:59	-136.478	49.300	0	1215.30	0	2.7050	0	34.4290	0	27.463	0	1201.448	0	-1e10	8	-1e10	8	-1E+10	1	-1E+10	1	-1E+10	1	-1E+10	1	-1E+10	1	-1E+10	1
4902554	26	C	10/21/2021	06:59	-136.478	49.300	0	1225.10	0	2.6910	0	34.4330	0	27.467	0	1211.108	0	-1e10	8	-1e10	8	-1E+10	1	-1E+10	1	-1E+10	1	-1E+10	1	-1E+10	1	-1E+10	1
4902554	26	C	10/21/2021	06:59	-136.478	49.300	0	1235.10	0	2.6790	0	34.4350	0	27.470	0	1220.965	0	-1e10	8	-1e10	8	-1E+10	1	-1E+10	1	-1E+10	1	-1E+10	1	-1E+10	1	-1E+10	1
4902554	26	C	10/21/2021	06:59	-136.478	49.300	0	1245.80	0	2.6660	0	34.4370	0	27.473	0	1231.511	0	-1e10	8	-1e10	8	-1E+10	1	-1E+10	1	-1E+10	1	-1E+10	1	-1E+10	1	-1E+10	1
4902554	26	C	10/21/2021	06:59	-136.478	49.300	0	1255.60	0	2.6480	0	34.4410	0	27.478	0	1241.170	0	-1e10	8	-1e10	8	-1E+10	1	-1E+10	1	-1E+10	1	-1E+10	1	-1E+10	1	-1E+10	1
4902554	26	C	10/21/2021	06:59	-136.478	49.300	0	1265.30	0	2.6310	0	34.4440	0	27.481	0	1250.730	0	-1e10	8	-1e10	8	-1E+10	1	-1E+10	1	-1E+10	1	-1E+10	1	-1E+10	1	-1E+10	1
4902554	26	C	10/21/2021	06:59	-136.478	49.300	0	1275.10	0	2.6170	0	34.4470	0	27.485	0	1260.387	0	-1e10	8	-1e10	8	-1E+10	1	-1E+10	1	-1E+10	1	-1E+10	1	-1E+10	1	-1E+10	1
4902554	26	C	10/21/2021	06:59	-136.478	49.300	0	1285.20	0	2.6020	0	34.4500	0	27.489	0	1270.340	0	-1e10	8	-1e10	8	-1E+10	1	-1E+10	1	-1E+10	1	-1E+10	1	-1E+10	1	-1E+10	1
4902554	26	C	10/21/2021	06:59	-136.478	49.300	0	1295.20	0	2.5930	0	34.4520	0	27.491	0	1280.194	0	-1e10	8	-1e10	8	-1E+10	1	-1E+10	1	-1E+10	1	-1E+10	1	-1E+10	1	-1E+10	1
4902554	26	C	10/21/2021	06:59	-136.478	49.300	0	1305.30	0	2.5830	0	34.4540	0	27.494	0	1290.146	0	-1e10	8	-1e10	8	-1E+10	1	-1E+10	1	-1E+10	1	-1E+10	1	-1E+10	1	-1E+10	1
4902554	26	C	10/21/2021	06:59	-136.478	49.300	0	1315.40	0	2.5710	0	34.4560	0	27.496	0	1300.098	0	-1e10	8	-1e10	8	-1E+10	1	-1E+10	1	-1E+10	1	-1E+10	1	-1E+10	1	-1E+10	1
4902554	26	C	10/21/2021	06:59	-136.478	49.300	0	1325.20	0	2.5560	0	34.4590	0	27.500	0	1309.754	0	-1e10	8	-1e10	8	-1E+10	1	-1E+10	1	-1E+10	1	-1E+10	1	-1E+10	1	-1E+10	1
4902554	26	C	10/21/2021	06:59	-136.478	49.300	0	1335.40	0	2.5420	0	34.4620	0	27.504	0	1319.803	0	-1e10	8	-1e10	8	-1E+10	1	-1E+10	1	-1E+10	1	-1E+10	1	-1E+10	1	-1E+10	1
4902554	26	C	10/21/2021	06:59	-136.478	49.300	0	1345.40	0	2.5280	0	34.4650	0	27.507	0	1329.654	0	-1e10	8	-1e10	8	-1E+10	1	-1E+10	1	-1E+10	1	-1E+10	1	-1E+10	1	-1E+10	1
4902554	26	C	10/21/2021	06:59	-136.478	49.300	0	1355.20	0	2.5210	0	34.4660	0	27.509	0	1339.309	0	-1e10	8	-1e10	8	-1E+10	1	-1E+10	1	-1E+10	1	-1E+10	1	-1E+10	1	-1E+10	1
4902554	26	C	10/21/2021	06:59	-136.478	49.300	0	1365.60	0	2.5120	0	34.4680	0	27.511	0	1349.553	0	-1e10	8	-1e10	8	-1E+10	1	-1E+10	1	-1E+10	1	-1E+10	1	-1E+10	1	-1E+10	1
4902554	26	C	10/21/2021	06:59	-136.478	49.300	0	1375.50	0	2.5020	0	34.4700	0	27.514	0	1359.305	0	-1e10	8	-1e10	8	-1E+10	1	-1E+10	1	-1E+10	1	-1E+10	1	-1E+10	1	-1E+10	1
4902554	26	C	10/21/2021	06:59	-136.478	49.300	0	1385.40	0	2.4910	0	34.4720	0	27.516	0	1369.057	0	-1e10	8	-1e10	8	-1E+10	1	-1E+10	1	-1E+10	1	-1E+10	1	-1E+10	1	-1E+10	1
4902554	26	C	10/21/2021	06:59	-136.478	49.300	0	1395.70	0	2.4800	0	34.4740	0	27.519	0	1379.201	0	-1e10	8	-1e10	8	-1E+10	1	-1E+10	1	-1E+10	1	-1E+10	1	-1E+10	1	-1E+10	1
4902554	26	C	10/21/2021	06:59	-136.478	49.300	0	1405.50	0	2.4630	0	34.4780	0	27.524	0	1388.853	0	-1e10	8	-1e10	8	-1E+10	1	-1E+10	1	-1E+10	1	-1E+10	1	-1E+10	1	-1E+10	1
4902554	26	C	10/21/2021	06:59	-136.478	49.300	0	1415.30	0	2.4540	0	34.4800	0	27.526	0	1398.505	0	-1e10	8	-1e10	8	-1E+10	1	-1E+10	1	-1E+10	1	-1E+10	1	-1E+10	1	-1E+10	1
4902554	26	C	10/21/2021	06:59	-136.478	49.300	0	1425.50	0	2.4450	0	34.4810	0	27.528	0	1408.550	0	-1e10	8	-1e10	8	-1E+10	1	-1E+10	1	-1E+10	1	-1E+10	1	-1E+10	1	-1E+10	1
4902554	26	C	10/21/2021	06:59	-136.478	49.300	0	1435.70	0	2.4310	0	34.4840	0	27.531	0	1418.594	0	-1e10	8	-1e10	8	-1E+10	1	-1E+10	1	-1E+10	1	-1E+10	1	-1E+10	1	-1E+10	1
4902554	26	C	10/21/2021	06:59	-136.478	49.300	0	1445.50	0	2.4190	0	34.4860	0	27.534	0	1428.244	0	-1e10	8	-1e10	8	-1E+10	1	-1E+10	1	-1E+10	1	-1E+10	1	-1E+10	1	-1E+10	1
4902554	26	C	10/21/2021	06:59	-136.478	49.300	0	1455.50	0	2.4030	0	34.4900	0	27.538	0	1438.091	0	-1e10	8	-1e10	8	-1E+10	1	-1E+10	1	-1E+10	1	-1E+10	1	-1E+10	1	-1E+10	1
4902554	26	C	10/21/2021	06:59	-136.478	49.300	0	1465.70	0	2.3940	0	34.4920	0	27.541	0	1448.134	0	-1e10	8	-1e10	8	-1E+10	1	-1E+10	1	-1E+10	1	-1E+10	1	-1E+10	1	-1E+10	1
4902554	26	C	10/21/2021	06:59	-136.478	49.300	0	1475.50	0	2.3820	0	34.4940	0	27.543	0	1457.783	0	-1e10	8	-1e10	8	-1E+10	1	-1E+10	1	-1E+10	1	-1E+10	1	-1E+10	1	-1E+10	1
4902554	26	C	10/21/2021	06:59	-136.478	49.300	0	1485.80	0	2.3680	0	34.4970	0	27.547	0	1467.923	0	-1e10	8	-1e10	8	-1E+10	1	-1E+10	1	-1E+10	1	-1E+10	1	-1E+10	1	-1E+10	1
4902554	26	C	10/21/2021	06:59	-136.478	49.300	0	1495.60	0	2.3610	0	34.4980	0	27.549	0	1477.571	0	-1e10	8	-1e10	8	-1E+10	1	-1E+10	1	-1E+10	1	-1E+10	1	-1E+10	1	-1E+10	1
4902554	26	C	10/21/2021	06:59	-136.478	49.300	0	1505.60	0	2.3510	0	34.5000	0	27.551	0	1487.415	0	-1e10	8	-1e10	8	-1E+10	1	-1E+10	1	-1E+10	1	-1E+10	1	-1E+10	1	-1E+10	1
4902554	26	C	10/21/2021	06:59	-136.478	49.300	0	1515.60	0	2.3350	0	34.5030	0	27.555	0	1497.259	0	-1e10	8	-1e10	8	-1E+10	1	-1E+10	1	-1E+10	1	-1E+10	1	-1E+10	1	-1E+10	1
4902554	26	C	10/21/2021	06:59	-136.478	49.300	0	1525.50	0	2.3200	0	34.5060	0	27.558	0	1507.004	0	-1e10	8	-1e10	8	-1E+10	1	-1E+10	1	-1E+10	1	-1E+10	1	-1E+10	1	-1E+10	1
4902554	26	C	10/21/2021	06:59	-136.478	49.300	0	1535.20	0	2.3090	0	34.5080	0	27.561	0	1516.552	0	-1e10	8	-1e10	8	-1E+10	1	-1E+10	1	-1E+10	1	-1E+10	1	-1E+10	1	-1E+10	1
4902554	26	C	10/21/2021	06:59	-136.478	49.300	0	1545.10	0	2.2970	0	34.5110	0	27.564	0	1526.296	0	-1e10	8	-1e10	8	-1E+10	1	-1E+10	1	-1E+10	1	-1E+10	1	-1E+10	1	-1E+10	1
4902554	26	C	10/21/2021	06:59	-136.478	49.300	0	1555.10	0	2.2890	0	34.5120	0	27.566	0	1536.138	0	-1e10	8	-1e10	8	-1E+10	1	-1E+10	1	-1E+10	1	-1E+10	1	-1E+10	1	-1E+10	1
4902554	26	C	10/21/2021	06:59	-136.478	49.300	0	1565.30	0	2.2770	0	34.5150	0	27.569	0	1546.176	0	-1e10	8	-1e10	8	-1E+10	1	-1E+10	1	-1E+10	1	-1E+10	1	-1E+10	1	-1E+10	1
4902554	26	C	10/21/2021	06:59	-136.478	49.300	0	1575.50	0	2.2660	0	34.5170	0	27.572	0	1556.214	0	-1e10	8	-1e10	8	-1E+10	1	-1E+10	1	-1E+10	1	-1E+10	1	-1E+10	1	-1E+10	1
4902554	26	C	10/21/2021	06:59	-136.478	49.300	0	1585.40	0	2.2550	0	34.5190	0	27.574	0	1565.956	0	-1e10	8	-1e10	8	-1E+10	1	-1E+10	1	-1E+10	1	-1E+10	1	-1E+10	1	-1E+10	1
4902554	26	C	10/21/2021	06:59	-136.478	49.300	0	1595.50	0	2.2460	0	34.5210	0	27.577	0	1575.895	0	-1e10	8	-1e10	8	-1E+10	1	-1E+10	1	-1E+10	1	-1E+10	1	-1E+10	1	-1E+10	1
4902554	26	C	10/21/2021	06:59	-136.478	49.300	0	1605.60	0	2.2360	0	34.5230	0	27.579	0	1585.833	0	-1e10	8	-1e10	8	-1E+10	1	-1E+10	1	-1E+10	1	-1E+10	1	-1E+10	1	-1E+10	1
4902554	26	C	10/21/2021	06:59	-136.478	49.300	0	1615.30	0	2.2270	0	34.5250	0	27.582	0	1595.377	0	-1e10	8	-1e10	8	-1E+10	1	-1E+10	1	-1E+10	1	-1E+10	1	-1E+10	1	-1E+10	1
4902554	26	C	10/21/2021	06:59	-136.478	49.300	0	1625.30	0	2.2220	0	34.5260	0	27.583	0	1605.216	0	-1e10	8	-1e10	8	-1E+10	1	-1E+10	1	-1E+10	1	-1E+10	1	-1E+10	1	-1E+10	1
4902554	26	C	10/21/2021	06:59	-136.478	49.300	0	1635.30	0	2.2140	0	34.5280	0	27.585	0	1615.054	0	-1e10	8	-1e10	8	-1E+10	1	-1E+10	1	-1E+10	1	-1E+10	1	-1E+10	1	-1E+10	1
4902554	26	C	10/21/2021	06:59	-136.478	49.300	0	1645.30	0	2.2060	0	34.5290	0	27.587	0	1624.892	0	-1e10	8	-1e10	8	-1E+10	1	-1E+10	1	-1E+10	1	-1E+10	1	-1E+10	1	-1E+10	1
4902554	26	C	10/21/2021	06:59	-136.478	49.300	0	1655.40	0	2.2000	0	34.5300	0	27.588	0	1634.828	0	-1e10	8	-1e10	8	-1E+10	1	-1E+10	1	-1E+10	1	-1E+10	1	-1E+10	1	-1E+10	1
4902554	26	C	10/21/2021	06:59	-136.478	49.300	0	1665.70	0	2.1900	0	34.5320	0	27.591	0	1644.960	0	-1e10	8	-1e10	8	-1E+10	1	-1E+10	1	-1E+10	1	-1E+10	1	-1E+10	1	-1E+10	1
4902554	26	C	10/21/2021	06:59	-136.478	49.300	0	1676.00	0	2.1820	0	34.5340	0	27.593	0	1655.091	0	-1e10	8	-1e10	8	-1E+10	1	-1E+10	1	-1E+10	1	-1E+10	1	-1E+10	1	-1E+10	1
4902554	26	C	10/21/2021	06:59	-136.478	49.300	0	1685.40	0	2.1750	0	34.5360	0	27.595	0	1664.337	0	-1e10	8	-1e10	8	-1E+10	1	-1E+10	1	-1E+10	1	-1E+10	1	-1E+10	1	-1E+10	1
4902554	26	C	10/21/2021	06:59	-136.478	49.300	0	1695.40	0	2.1670	0	34.5380	0	27.597	0	1674.173	0	-1e10	8	-1e10	8	-1E+10	1	-1E+10	1	-1E+10	1	-1E+10	1	-1E+10	1	-1E+10	1
4902554	26	C	10/21/2021	06:59	-136.478	49.300	0	1705.70	0	2.1570	0	34.5400	0	27.600	0	1684.303	0	-1e10	8	-1e10	8	-1E+10	1	-1E+10	1	-1E+10	1	-1E+10	1	-1E+10	1	-1E+10	1
4902554	26	C	10/21/2021	06:59	-136.478	49.300	0	1715.40	0	2.1500	0	34.5410	0	27.601	0	1693.843	0	-1e10	8	-1e10	8	-1E+10	1	-1E+10	1	-1E+10	1	-1E+10	1	-1E+10	1	-1E+10	1
4902554	26	C	10/21/2021	06:59	-136.478	49.300	0	1725.40	0	2.1410	0	34.5430	0	27.604	0	1703.677	0	-1e10	8	-1e10	8	-1E+10	1	-1E+10	1	-1E+10	1	-1E+10	1	-1E+10	1	-1E+10	1
4902554	26	C	10/21/2021	06:59	-136.478	49.300	0	1735.60	0	2.1330	0	34.5440	0	27.605	0	1713.707	0	-1e10	8	-1e10	8	-1E+10	1	-1E+10	1	-1E+10	1	-1E+10	1	-1E+10	1	-1E+10	1
4902554	26	C	10/21/2021	06:59	-136.478	49.300	0	1745.60	0	2.1240	0	34.5460	0	27.607	0	1723.540	0	-1e10	8	-1e10	8	-1E+10	1	-1E+10	1	-1E+10	1	-1E+10	1	-1E+10	1	-1E+10	1
4902554	26	C	10/21/2021	06:59	-136.478	49.300	0	1755.40	0	2.1200	0	34.5470	0	27.609	0	1733.177	0	-1e10	8	-1e10	8	-1E+10	1	-1E+10	1	-1E+10	1	-1E+10	1	-1E+10	1	-1E+10	1
4902554	26	C	10/21/2021	06:59	-136.478	49.300	0	1765.30	0	2.1140	0	34.5480	0	27.610	0	1742.911	0	-1e10	8	-1e10	8	-1E+10	1	-1E+10	1	-1E+10	1	-1E+10	1	-1E+10	1	-1E+10	1
4902554	26	C	10/21/2021	06:59	-136.478	49.300	0	1775.30	0	2.1070	0	34.5500	0	27.612	0	1752.743	0	-1e10	8	-1e10	8	-1E+10	1	-1E+10	1	-1E+10	1	-1E+10	1	-1E+10	1	-1E+10	1
4902554	26	C	10/21/2021	06:59	-136.478	49.300	0	1785.40	0	2.1020	0	34.5510	0	27.613	0	1762.672	0	-1e10	8	-1e10	8	-1E+10	1	-1E+10	1	-1E+10	1	-1E+10	1	-1E+10	1	-1E+10	1
4902554	26	C	10/21/2021	06:59	-136.478	49.300	0	1795.80	0	2.0910	0	34.5530	0	27.616	0	1772.897	0	-1e10	8	-1e10	8	-1E+10	1	-1E+10	1	-1E+10	1	-1E+10	1	-1E+10	1	-1E+10	1
4902554	26	C	10/21/2021	06:59	-136.478	49.300	0	1805.40	0	2.0820	0	34.5540	0	27.617	0	1782.334	0	-1e10	8	-1e10	8	-1E+10	1	-1E+10	1	-1E+10	1	-1E+10	1	-1E+10	1	-1E+10	1
4902554	26	C	10/21/2021	06:59	-136.478	49.300	0	1815.00	0	2.0700	0	34.5570	0	27.621	0	1791.771	0	-1e10	8	-1e10	8	-1E+10	1	-1E+10	1	-1E+10	1	-1E+10	1	-1E+10	1	-1E+10	1
4902554	26	C	10/21/2021	06:59	-136.478	49.300	0	1825.10	0	2.0600	0	34.5590	0	27.623	0	1801.699	0	-1e10	8	-1e10	8	-1E+10	1	-1E+10	1	-1E+10	1	-1E+10	1	-1E+10	1	-1E+10	1
4902554	26	C	10/21/2021	06:59	-136.478	49.300	0	1835.20	0	2.0530	0	34.5600	0	27.625	0	1811.626	0	-1e10	8	-1e10	8	-1E+10	1	-1E+10	1	-1E+10	1	-1E+10	1	-1E+10	1	-1E+10	1
4902554	26	C	10/21/2021	06:59	-136.478	49.300	0	1845.30	0	2.0440	0	34.5620	0	27.627	0	1821.553	0	-1e10	8	-1e10	8	-1E+10	1	-1E+10	1	-1E+10	1	-1E+10	1	-1E+10	1	-1E+10	1
4902554	26	C	10/21/2021	06:59	-136.478	49.300	0	1855.60	0	2.0380	0	34.5630	0	27.628	0	1831.676	0	-1e10	8	-1e10	8	-1E+10	1	-1E+10	1	-1E+10	1	-1E+10	1	-1E+10	1	-1E+10	1
4902554	26	C	10/21/2021	06:59	-136.478	49.300	0	1865.60	0	2.0340	0	34.5650	0	27.630	0	1841.504	0	-1e10	8	-1e10	8	-1E+10	1	-1E+10	1	-1E+10	1	-1E+10	1	-1E+10	1	-1E+10	1
4902554	26	C	10/21/2021	06:59	-136.478	49.300	0	1875.30	0	2.0300	0	34.5650	0	27.631	0	1851.037	0	-1e10	8	-1e10	8	-1E+10	1	-1E+10	1	-1E+10	1	-1E+10	1	-1E+10	1	-1E+10	1
4902554	26	C	10/21/2021	06:59	-136.478	49.300	0	1885.40	0	2.0230	0	34.5670	0	27.633	0	1860.962	0	-1e10	8	-1e10	8	-1E+10	1	-1E+10	1	-1E+10	1	-1E+10	1	-1E+10	1	-1E+10	1
4902554	26	C	10/21/2021	06:59	-136.478	49.300	0	1895.40	0	2.0150	0	34.5680	0	27.634	0	1870.788	0	-1e10	8	-1e10	8	-1E+10	1	-1E+10	1	-1E+10	1	-1E+10	1	-1E+10	1	-1E+10	1
4902554	26	C	10/21/2021	06:59	-136.478	49.300	0	1905.60	0	2.0100	0	34.5690	0	27.636	0	1880.811	0	-1e10	8	-1e10	8	-1E+10	1	-1E+10	1	-1E+10	1	-1E+10	1	-1E+10	1	-1E+10	1
4902554	26	C	10/21/2021	06:59	-136.478	49.300	0	1915.60	0	2.0040	0	34.5710	0	27.638	0	1890.636	0	-1e10	8	-1e10	8	-1E+10	1	-1E+10	1	-1E+10	1	-1E+10	1	-1E+10	1	-1E+10	1
4902554	26	C	10/21/2021	06:59	-136.478	49.300	0	1925.20	0	1.9990	0	34.5720	0	27.639	0	1900.068	0	-1e10	8	-1e10	8	-1E+10	1	-1E+10	1	-1E+10	1	-1E+10	1	-1E+10	1	-1E+10	1
4902554	26	C	10/21/2021	06:59	-136.478	49.300	0	1935.50	0	1.9930	0	34.5730	0	27.640	0	1910.188	0	-1e10	8	-1e10	8	-1E+10	1	-1E+10	1	-1E+10	1	-1E+10	1	-1E+10	1	-1E+10	1
4902554	26	C	10/21/2021	06:59	-136.478	49.300	0	1945.70	0	1.9870	0	34.5740	0	27.642	0	1920.208	0	-1e10	8	-1e10	8	-1E+10	1	-1E+10	1	-1E+10	1	-1E+10	1	-1E+10	1	-1E+10	1
4902554	26	C	10/21/2021	06:59	-136.478	49.300	0	1955.70	0	1.9790	0	34.5760	0	27.644	0	1930.032	0	-1e10	8	-1e10	8	-1E+10	1	-1E+10	1	-1E+10	1	-1E+10	1	-1E+10	1	-1E+10	1
4902554	26	C	10/21/2021	06:59	-136.478	49.300	0	1965.40	0	1.9740	0	34.5770	0	27.645	0	1939.561	0	-1e10	8	-1e10	8	-1E+10	1	-1E+10	1	-1E+10	1	-1E+10	1	-1E+10	1	-1E+10	1
4902554	26	C	10/21/2021	06:59	-136.478	49.300	0	1975.10	0	1.9700	0	34.5780	0	27.646	0	1949.089	0	-1e10	8	-1e10	8	-1E+10	1	-1E+10	1	-1E+10	1	-1E+10	1	-1E+10	1	-1E+10	1
4902554	26	C	10/21/2021	06:59	-136.478	49.300	0	1985.30	0	1.9630	0	34.5790	0	27.648	0	1959.108	0	-1e10	8	-1e10	8	-1E+10	1	-1E+10	1	-1E+10	1	-1E+10	1	-1E+10	1	-1E+10	1
4902554	26	C	10/21/2021	06:59	-136.478	49.300	0	1995.30	0	1.9560	0	34.5810	0	27.650	0	1968.929	0	-1e10	8	-1e10	8	-1E+10	1	-1E+10	1	-1E+10	1	-1E+10	1	-1E+10	1	-1E+10	1
4902554	26	C	10/21/2021	06:59	-136.478	49.300	0	2005.70	0	1.9500	0	34.5820	0	27.651	0	1979.144	0	-1e10	8	-1e10	8	-1E+10	1	-1E+10	1	-1E+10	1	-1E+10	1	-1E+10	1	-1E+10	1
4902554	26	C	10/21/2021	06:59	-136.478	49.300	0	2012.90	0	1.9460	0	34.5830	0	27.652	0	1986.215	0	-1e10	8	-1e10	8	-1E+10	1	-1E+10	1	-1E+10	1	-1E+10	1	-1E+10	1	-1E+10	1
4902554	26	C	10/21/2021	06:59	-136.478	49.300	0																										
4902554	27	C	10/31/2021	12:01	-136.496	49.297	0	1.00	0	10.5640	0	32.2550	0	24.715	0	0.991	0	-1e10	8	-1e10	8	-1E+10	1	-1E+10	1	-1E+10	1	-1E+10	1	-1E+10	1	-1E+10	1
4902554	27	C	10/31/2021	12:01	-136.496	49.297	0	2.10	0	10.5660	0	32.2640	0	24.721	0	2.082	0	-1e10	8	-1e10	8	-1E+10	1	-1E+10	1	-1E+10	1	-1E+10	1	-1E+10	1	-1E+10	1
4902554	27	C	10/31/2021	12:01	-136.496	49.297	0	2.90	0	10.5680	0	32.2700	0	24.726	0	2.875	0	-1e10	8	-1e10	8	-1E+10	1	-1E+10	1	-1E+10	1	-1E+10	1	-1E+10	1	-1E+10	1
4902554	27	C	10/31/2021	12:01	-136.496	49.297	0	4.00	0	10.5710	0	32.2700	0	24.725	0	3.966	0	-1e10	8	-1e10	8	-1E+10	1	-1E+10	1	-1E+10	1	-1E+10	1	-1E+10	1	-1E+10	1
4902554	27	C	10/31/2021	12:01	-136.496	49.297	0	5.20	0	10.5720	0	32.2700	0	24.725	0	5.156	0	-1e10	8	-1e10	8	-1E+10	1	-1E+10	1	-1E+10	1	-1E+10	1	-1E+10	1	-1E+10	1
4902554	27	C	10/31/2021	12:01	-136.496	49.297	0	6.00	0	10.5720	0	32.2710	0	24.726	0	5.949	0	-1e10	8	-1e10	8	-1E+10	1	-1E+10	1	-1E+10	1	-1E+10	1	-1E+10	1	-1E+10	1
4902554	27	C	10/31/2021	12:01	-136.496	49.297	0	7.00	0	10.5730	0	32.2700	0	24.725	0	6.940	0	-1e10	8	-1e10	8	-1E+10	1	-1E+10	1	-1E+10	1	-1E+10	1	-1E+10	1	-1E+10	1
4902554	27	C	10/31/2021	12:01	-136.496	49.297	0	7.90	0	10.5730	0	32.2710	0	24.726	0	7.833	0	-1e10	8	-1e10	8	-1E+10	1	-1E+10	1	-1E+10	1	-1E+10	1	-1E+10	1	-1E+10	1
4902554	27	C	10/31/2021	12:01	-136.496	49.297	0	9.00	0	10.5740	0	32.2710	0	24.726	0	8.923	0	-1e10	8	-1e10	8	-1E+10	1	-1E+10	1	-1E+10	1	-1E+10	1	-1E+10	1	-1E+10	1
4902554	27	C	10/31/2021	12:01	-136.496	49.297	0	10.10	0	10.5740	0	32.2710	0	24.726	0	10.014	0	-1e10	8	-1e10	8	-1E+10	1	-1E+10	1	-1E+10	1	-1E+10	1	-1E+10	1	-1E+10	1
4902554	27	C	10/31/2021	12:01	-136.496	49.297	0	11.00	0	10.5740	0	32.2720	0	24.726	0	10.906	0	-1e10	8	-1e10	8	-1E+10	1	-1E+10	1	-1E+10	1	-1E+10	1	-1E+10	1	-1E+10	1
4902554	27	C	10/31/2021	12:01	-136.496	49.297	0	12.00	0	10.5740	0	32.2710	0	24.726	0	11.898	0	-1e10	8	-1e10	8	-1E+10	1	-1E+10	1	-1E+10	1	-1E+10	1	-1E+10	1	-1E+10	1
4902554	27	C	10/31/2021	12:01	-136.496	49.297	0	12.90	0	10.5740	0	32.2720	0	24.727	0	12.790	0	-1e10	8	-1e10	8	-1E+10	1	-1E+10	1	-1E+10	1	-1E+10	1	-1E+10	1	-1E+10	1
4902554	27	C	10/31/2021	12:01	-136.496	49.297	0	13.90	0	10.5740	0	32.2720	0	24.727	0	13.781	0	-1e10	8	-1e10	8	-1E+10	1	-1E+10	1	-1E+10	1	-1E+10	1	-1E+10	1	-1E+10	1
4902554	27	C	10/31/2021	12:01	-136.496	49.297	0	14.90	0	10.5750	0	32.2720	0	24.726	0	14.773	0	-1e10	8	-1e10	8	-1E+10	1	-1E+10	1	-1E+10	1	-1E+10	1	-1E+10	1	-1E+10	1
4902554	27	C	10/31/2021	12:01	-136.496	49.297	0	15.80	0	10.5740	0	32.2710	0	24.726	0	15.665	0	-1e10	8	-1e10	8	-1E+10	1	-1E+10	1	-1E+10	1	-1E+10	1	-1E+10	1	-1E+10	1
4902554	27	C	10/31/2021	12:01	-136.496	49.297	0	17.10	0	10.5730	0	32.2700	0	24.725	0	16.954	0	-1e10	8	-1e10	8	-1E+10	1	-1E+10	1	-1E+10	1	-1E+10	1	-1E+10	1	-1E+10	1
4902554	27	C	10/31/2021	12:01	-136.496	49.297	0	18.00	0	10.5740	0	32.2710	0	24.726	0	17.846	0	-1e10	8	-1e10	8	-1E+10	1	-1E+10	1	-1E+10	1	-1E+10	1	-1E+10	1	-1E+10	1
4902554	27	C	10/31/2021	12:01	-136.496	49.297	0	18.90	0	10.5740	0	32.2700	0	24.725	0	18.738	0	-1e10	8	-1e10	8	-1E+10	1	-1E+10	1	-1E+10	1	-1E+10	1	-1E+10	1	-1E+10	1
4902554	27	C	10/31/2021	12:01	-136.496	49.297	0	19.90	0	10.5750	0	32.2720	0	24.726	0	19.730	0	-1e10	8	-1e10	8	-1E+10	1	-1E+10	1	-1E+10	1	-1E+10	1	-1E+10	1	-1E+10	1
4902554	27	C	10/31/2021	12:01	-136.496	49.297	0	20.80	0	10.5750	0	32.2710	0	24.726	0	20.622	0	-1e10	8	-1e10	8	-1E+10	1	-1E+10	1	-1E+10	1	-1E+10	1	-1E+10	1	-1E+10	1
4902554	27	C	10/31/2021	12:01	-136.496	49.297	0	21.90	0	10.5750	0	32.2720	0	24.727	0	21.712	0	-1e10	8	-1e10	8	-1E+10	1	-1E+10	1	-1E+10	1	-1E+10	1	-1E+10	1	-1E+10	1
4902554	27	C	10/31/2021	12:01	-136.496	49.297	0	22.90	0	10.5750	0	32.2710	0	24.726	0	22.704	0	-1e10	8	-1e10	8	-1E+10	1	-1E+10	1	-1E+10	1	-1E+10	1	-1E+10	1	-1E+10	1
4902554	27	C	10/31/2021	12:01	-136.496	49.297	0	24.10	0	10.5760	0	32.2720	0	24.726	0	23.894	0	-1e10	8	-1e10	8	-1E+10	1	-1E+10	1	-1E+10	1	-1E+10	1	-1E+10	1	-1E+10	1
4902554	27	C	10/31/2021	12:01	-136.496	49.297	0	24.90	0	10.5760	0	32.2720	0	24.726	0	24.687	0	-1e10	8	-1e10	8	-1E+10	1	-1E+10	1	-1E+10	1	-1E+10	1	-1E+10	1	-1E+10	1
4902554	27	C	10/31/2021	12:01	-136.496	49.297	0	25.90	0	10.5760	0	32.2720	0	24.726	0	25.678	0	-1e10	8	-1e10	8	-1E+10	1	-1E+10	1	-1E+10	1	-1E+10	1	-1E+10	1	-1E+10	1
4902554	27	C	10/31/2021	12:01	-136.496	49.297	0	27.00	0	10.5760	0	32.2720	0	24.726	0	26.768	0	-1e10	8	-1e10	8	-1E+10	1	-1E+10	1	-1E+10	1	-1E+10	1	-1E+10	1	-1E+10	1
4902554	27	C	10/31/2021	12:01	-136.496	49.297	0	28.00	0	10.5760	0	32.2720	0	24.726	0	27.760	0	-1e10	8	-1e10	8	-1E+10	1	-1E+10	1	-1E+10	1	-1E+10	1	-1E+10	1	-1E+10	1
4902554	27	C	10/31/2021	12:01	-136.496	49.297	0	28.90	0	10.5760	0	32.2720	0	24.726	0	28.652	0	-1e10	8	-1e10	8	-1E+10	1	-1E+10	1	-1E+10	1	-1E+10	1	-1E+10	1	-1E+10	1
4902554	27	C	10/31/2021	12:01	-136.496	49.297	0	29.80	0	10.5750	0	32.2720	0	24.727	0	29.544	0	-1e10	8	-1e10	8	-1E+10	1	-1E+10	1	-1E+10	1	-1E+10	1	-1E+10	1	-1E+10	1
4902554	27	C	10/31/2021	12:01	-136.496	49.297	0	31.10	0	10.5710	0	32.2750	0	24.730	0	30.833	0	-1e10	8	-1e10	8	-1E+10	1	-1E+10	1	-1E+10	1	-1E+10	1	-1E+10	1	-1E+10	1
4902554	27	C	10/31/2021	12:01	-136.496	49.297	0	32.10	0	10.5670	0	32.2720	0	24.728	0	31.824	0	-1e10	8	-1e10	8	-1E+10	1	-1E+10	1	-1E+10	1	-1E+10	1	-1E+10	1	-1E+10	1
4902554	27	C	10/31/2021	12:01	-136.496	49.297	0	32.80	0	10.5670	0	32.2730	0	24.729	0	32.518	0	-1e10	8	-1e10	8	-1E+10	1	-1E+10	1	-1E+10	1	-1E+10	1	-1E+10	1	-1E+10	1
4902554	27	C	10/31/2021	12:01	-136.496	49.297	0	33.90	0	10.5700	0	32.2710	0	24.727	0	33.609	0	-1e10	8	-1e10	8	-1E+10	1	-1E+10	1	-1E+10	1	-1E+10	1	-1E+10	1	-1E+10	1
4902554	27	C	10/31/2021	12:01	-136.496	49.297	0	35.10	0	10.5720	0	32.2720	0	24.727	0	34.798	0	-1e10	8	-1e10	8	-1E+10	1	-1E+10	1	-1E+10	1	-1E+10	1	-1E+10	1	-1E+10	1
4902554	27	C	10/31/2021	12:01	-136.496	49.297	0	35.90	0	10.5690	0	32.2750	0	24.730	0	35.591	0	-1e10	8	-1e10	8	-1E+10	1	-1E+10	1	-1E+10	1	-1E+10	1	-1E+10	1	-1E+10	1
4902554	27	C	10/31/2021	12:01	-136.496	49.297	0	36.70	0	10.5650	0	32.2730	0	24.729	0	36.384	0	-1e10	8	-1e10	8	-1E+10	1	-1E+10	1	-1E+10	1	-1E+10	1	-1E+10	1	-1E+10	1
4902554	27	C	10/31/2021	12:01	-136.496	49.297	0	37.90	0	10.5670	0	32.2710	0	24.727	0	37.574	0	-1e10	8	-1e10	8	-1E+10	1	-1E+10	1	-1E+10	1	-1E+10	1	-1E+10	1	-1E+10	1
4902554	27	C	10/31/2021	12:01	-136.496	49.297	0	39.10	0	10.5650	0	32.2750	0	24.731	0	38.764	0	-1e10	8	-1e10	8	-1E+10	1	-1E+10	1	-1E+10	1	-1E+10	1	-1E+10	1	-1E+10	1
4902554	27	C	10/31/2021	12:01	-136.496	49.297	0	39.80	0	10.5680	0	32.2680	0	24.725	0	39.458	0	-1e10	8	-1e10	8	-1E+10	1	-1E+10	1	-1E+10	1	-1E+10	1	-1E+10	1	-1E+10	1
4902554	27	C	10/31/2021	12:01	-136.496	49.297	0	40.80	0	10.5670	0	32.2740	0	24.730	0	40.449	0	-1e10	8	-1e10	8	-1E+10	1	-1E+10	1	-1E+10	1	-1E+10	1	-1E+10	1	-1E+10	1
4902554	27	C	10/31/2021	12:01	-136.496	49.297	0	42.00	0	10.5620	0	32.2720	0	24.729	0	41.638	0	-1e10	8	-1e10	8	-1E+10	1	-1E+10	1	-1E+10	1	-1E+10	1	-1E+10	1	-1E+10	1
4902554	27	C	10/31/2021	12:01	-136.496	49.297	0	43.00	0	10.5600	0	32.2720	0	24.729	0	42.630	0	-1e10	8	-1e10	8	-1E+10	1	-1E+10	1	-1E+10	1	-1E+10	1	-1E+10	1	-1E+10	1
4902554	27	C	10/31/2021	12:01	-136.496	49.297	0	43.90	0	10.5590	0	32.2730	0	24.730	0	43.522	0	-1e10	8	-1e10	8	-1E+10	1	-1E+10	1	-1E+10	1	-1E+10	1	-1E+10	1	-1E+10	1
4902554	27	C	10/31/2021	12:01	-136.496	49.297	0	44.70	0	10.5520	0	32.2750	0	24.733	0	44.315	0	-1e10	8	-1e10	8	-1E+10	1	-1E+10	1	-1E+10	1	-1E+10	1	-1E+10	1	-1E+10	1
4902554	27	C	10/31/2021	12:01	-136.496	49.297	0	45.90	0	10.5420	0	32.2750	0	24.735	0	45.504	0	-1e10	8	-1e10	8	-1E+10	1	-1E+10	1	-1E+10	1	-1E+10	1	-1E+10	1	-1E+10	1
4902554	27	C	10/31/2021	12:01	-136.496	49.297	0	47.00	0	10.5330	0	32.2750	0	24.737	0	46.595	0	-1e10	8	-1e10	8	-1E+10	1	-1E+10	1	-1E+10	1	-1E+10	1	-1E+10	1	-1E+10	1
4902554	27	C	10/31/2021	12:01	-136.496	49.297	0	47.90	0	10.5070	0	32.2850	0	24.749	0	47.487	0	-1e10	8	-1e10	8	-1E+10	1	-1E+10	1	-1E+10	1	-1E+10	1	-1E+10	1	-1E+10	1
4902554	27	C	10/31/2021	12:01	-136.496	49.297	0	48.80	0	10.4610	0	32.3100	0	24.776	0	48.379	0	-1e10	8	-1e10	8	-1E+10	1	-1E+10	1	-1E+10	1	-1E+10	1	-1E+10	1	-1E+10	1
4902554	27	C	10/31/2021	12:01	-136.496	49.297	0	49.80	0	10.3420	0	32.3210	0	24.805	0	49.370	0	-1e10	8	-1e10	8	-1E+10	1	-1E+10	1	-1E+10	1	-1E+10	1	-1E+10	1	-1E+10	1
4902554	27	C	10/31/2021	12:01	-136.496	49.297	0	50.70	0	10.2490	0	32.3290	0	24.827	0	50.262	0	-1e10	8	-1e10	8	-1E+10	1	-1E+10	1	-1E+10	1	-1E+10	1	-1E+10	1	-1E+10	1
4902554	27	C	10/31/2021	12:01	-136.496	49.297	0	51.80	0	10.0550	0	32.3730	0	24.893	0	51.353	0	-1e10	8	-1e10	8	-1E+10	1	-1E+10	1	-1E+10	1	-1E+10	1	-1E+10	1	-1E+10	1
4902554	27	C	10/31/2021	12:01	-136.496	49.297	0	53.10	0	9.8480	0	32.3260	0	24.891	0	52.641	0	-1e10	8	-1e10	8	-1E+10	1	-1E+10	1	-1E+10	1	-1E+10	1	-1E+10	1	-1E+10	1
4902554	27	C	10/31/2021	12:01	-136.496	49.297	0	54.00	0	9.5520	8	32.3460	8	24.955	0	53.533	0	-1e10	8	-1e10	8	-1E+10	1	-1E+10	1	-1E+10	1	-1E+10	1	-1E+10	1	-1E+10	1
4902554	27	C	10/31/2021	12:01	-136.496	49.297	0	55.00	0	9.0100	8	32.1460	8	24.884	0	54.525	0	-1e10	8	-1e10	8	-1E+10	1	-1E+10	1	-1E+10	1	-1E+10	1	-1E+10	1	-1E+10	1
4902554	27	C	10/31/2021	12:01	-136.496	49.297	0	56.00	0	8.2530	0	32.0780	0	24.944	0	55.516	0	-1e10	8	-1e10	8	-1E+10	1	-1E+10	1	-1E+10	1	-1E+10	1	-1E+10	1	-1E+10	1
4902554	27	C	10/31/2021	12:01	-136.496	49.297	0	57.00	0	7.8990	0	32.3150	0	25.181	0	56.507	0	-1e10	8	-1e10	8	-1E+10	1	-1E+10	1	-1E+10	1	-1E+10	1	-1E+10	1	-1E+10	1
4902554	27	C	10/31/2021	12:01	-136.496	49.297	0	58.00	0	7.8420	0	32.3500	0	25.217	0	57.498	0	-1e10	8	-1e10	8	-1E+10	1	-1E+10	1	-1E+10	1	-1E+10	1	-1E+10	1	-1E+10	1
4902554	27	C	10/31/2021	12:01	-136.496	49.297	0	58.90	0	7.8170	0	32.3770	0	25.242	0	58.390	0	-1e10	8	-1e10	8	-1E+10	1	-1E+10	1	-1E+10	1	-1E+10	1	-1E+10	1	-1E+10	1
4902554	27	C	10/31/2021	12:01	-136.496	49.297	0	59.80	0	7.7700	0	32.4330	0	25.292	0	59.283	0	-1e10	8	-1e10	8	-1E+10	1	-1E+10	1	-1E+10	1	-1E+10	1	-1E+10	1	-1E+10	1
4902554	27	C	10/31/2021	12:01	-136.496	49.297	0	60.80	0	7.6770	0	32.4720	0	25.336	0	60.274	0	-1e10	8	-1e10	8	-1E+10	1	-1E+10	1	-1E+10	1	-1E+10	1	-1E+10	1	-1E+10	1
4902554	27	C	10/31/2021	12:01	-136.496	49.297	0	61.80	0	7.5950	0	32.4690	0	25.345	0	61.265	0	-1e10	8	-1e10	8	-1E+10	1	-1E+10	1	-1E+10	1	-1E+10	1	-1E+10	1	-1E+10	1
4902554	27	C	10/31/2021	12:01	-136.496	49.297	0	62.90	0	7.5590	0	32.4730	0	25.353	0	62.355	0	-1e10	8	-1e10	8	-1E+10	1	-1E+10	1	-1E+10	1	-1E+10	1	-1E+10	1	-1E+10	1
4902554	27	C	10/31/2021	12:01	-136.496	49.297	0	63.90	0	7.4870	0	32.4860	0	25.374	0	63.346	0	-1e10	8	-1e10	8	-1E+10	1	-1E+10	1	-1E+10	1	-1E+10	1	-1E+10	1	-1E+10	1
4902554	27	C	10/31/2021	12:01	-136.496	49.297	0	64.90	0	7.4390	0	32.4760	0	25.372	0	64.338	0	-1e10	8	-1e10	8	-1E+10	1	-1E+10	1	-1E+10	1	-1E+10	1	-1E+10	1	-1E+10	1
4902554	27	C	10/31/2021	12:01	-136.496	49.297	0	65.80	0	7.3910	0	32.4840	0	25.385	0	65.230	0	-1e10	8	-1e10	8	-1E+10	1	-1E+10	1	-1E+10	1	-1E+10	1	-1E+10	1	-1E+10	1
4902554	27	C	10/31/2021	12:01	-136.496	49.297	0	67.00	0	7.3320	0	32.4910	0	25.399	0	66.419	0	-1e10	8	-1e10	8	-1E+10	1	-1E+10	1	-1E+10	1	-1E+10	1	-1E+10	1	-1E+10	1
4902554	27	C	10/31/2021	12:01	-136.496	49.297	0	68.00	0	7.2330	0	32.5000	0	25.420	0	67.410	0	-1e10	8	-1e10	8	-1E+10	1	-1E+10	1	-1E+10	1	-1E+10	1	-1E+10	1	-1E+10	1
4902554	27	C	10/31/2021	12:01	-136.496	49.297	0	69.00	0	7.1440	0	32.4960	0	25.428	0	68.401	0	-1e10	8	-1e10	8	-1E+10	1	-1E+10	1	-1E+10	1	-1E+10	1	-1E+10	1	-1E+10	1
4902554	27	C	10/31/2021	12:01	-136.496	49.297	0	70.00	0	7.0640	0	32.4890	0	25.434	0	69.393	0	-1e10	8	-1e10	8	-1E+10	1	-1E+10	1	-1E+10	1	-1E+10	1	-1E+10	1	-1E+10	1
4902554	27	C	10/31/2021	12:01	-136.496	49.297	0	70.90	0	7.0130	0	32.4940	0	25.444	0	70.285	0	-1e10	8	-1e10	8	-1E+10	1	-1E+10	1	-1E+10	1	-1E+10	1	-1E+10	1	-1E+10	1
4902554	27	C	10/31/2021	12:01	-136.496	49.297	0	71.90	0	6.9330	0	32.4910	0	25.453	0	71.276	0	-1e10	8	-1e10	8	-1E+10	1	-1E+10	1	-1E+10	1	-1E+10	1	-1E+10	1	-1E+10	1
4902554	27	C	10/31/2021	12:01	-136.496	49.297	0	73.00	0	6.8660	0	32.4790	0	25.452	0	72.366	0	-1e10	8	-1e10	8	-1E+10	1	-1E+10	1	-1E+10	1	-1E+10	1	-1E+10	1	-1E+10	1
4902554	27	C	10/31/2021	12:01	-136.496	49.297	0	73.90	0	6.8060	0	32.4670	0	25.451	0	73.258	0	-1e10	8	-1e10	8	-1E+10	1	-1E+10	1	-1E+10	1	-1E+10	1	-1E+10	1	-1E+10	1
4902554	27	C	10/31/2021	12:01	-136.496	49.297	0	74.80	0	6.7740	0	32.4580	0	25.448	0	74.150	0	-1e10	8	-1e10	8	-1E+10	1	-1E+10	1	-1E+10	1	-1E+10	1	-1E+10	1	-1E+10	1
4902554	27	C	10/31/2021	12:01	-136.496	49.297	0	75.90	0	6.7070	0	32.4600	0	25.458	0	75.240	0	-1e10	8	-1e10	8	-1E+10	1	-1E+10	1	-1E+10	1	-1E+10	1	-1E+10	1	-1E+10	1
4902554	27	C	10/31/2021	12:01	-136.496	49.297	0	76.90	0	6.6510	0	32.4280	0	25.440	0	76.231	0	-1e10	8	-1e10	8	-1E+10	1	-1E+10	1	-1E+10	1	-1E+10	1	-1E+10	1	-1E+10	1
4902554	27	C	10/31/2021	12:01	-136.496	49.297	0	78.00	0	6.5980	0	32.4300	0	25.448	0	77.322	0	-1e10	8	-1e10	8	-1E+10	1	-1E+10	1	-1E+10	1	-1E+10	1	-1E+10	1	-1E+10	1
4902554	27	C	10/31/2021	12:01	-136.496	49.297	0	79.10	0	6.5630	0	32.4320	0	25.455	0	78.412	0	-1e10	8	-1e10	8	-1E+10	1	-1E+10	1	-1E+10	1	-1E+10	1	-1E+10	1	-1E+10	1
4902554	27	C	10/31/2021	12:01	-136.496	49.297	0	80.00	0	6.5360	0	32.4400	0	25.464	0	79.304	0	-1e10	8	-1e10	8	-1E+10	1	-1E+10	1	-1E+10	1	-1E+10	1	-1E+10	1	-1E+10	1
4902554	27	C	10/31/2021	12:01	-136.496	49.297	0	80.80	0	6.5070	0	32.4610	0	25.485	0	80.097	0	-1e10	8	-1e10	8	-1E+10	1	-1E+10	1	-1E+10	1	-1E+10	1	-1E+10	1	-1E+10	1
4902554	27	C	10/31/2021	12:01	-136.496	49.297	0	81.80	0	6.4840	0	32.4850	0	25.506	0	81.088	0	-1e10	8	-1e10	8	-1E+10	1	-1E+10	1	-1E+10	1	-1E+10	1	-1E+10	1	-1E+10	1
4902554	27	C	10/31/2021	12:01	-136.496	49.297	0	82.80	0	6.4740	0	32.4950	0	25.516	0	82.079	0	-1e10	8	-1e10	8	-1E+10	1	-1E+10	1	-1E+10	1	-1E+10	1	-1E+10	1	-1E+10	1
4902554	27	C	10/31/2021	12:01	-136.496	49.297	0	83.90	0	6.4650	0	32.4960	0	25.518	0	83.169	0	-1e10	8	-1e10	8	-1E+10	1	-1E+10	1	-1E+10	1	-1E+10	1	-1E+10	1	-1E+10	1
4902554	27	C	10/31/2021	12:01	-136.496	49.297	0	84.90	0	6.4500	0	32.4950	0	25.519	0	84.160	0	-1e10	8	-1e10	8	-1E+10	1	-1E+10	1	-1E+10	1	-1E+10	1	-1E+10	1	-1E+10	1
4902554	27	C	10/31/2021	12:01	-136.496	49.297	0	86.10	0	6.4290	0	32.4950	0	25.521	0	85.350	0	-1e10	8	-1e10	8	-1E+10	1	-1E+10	1	-1E+10	1	-1E+10	1	-1E+10	1	-1E+10	1
4902554	27	C	10/31/2021	12:01	-136.496	49.297	0	86.80	0	6.4160	0	32.4950	0	25.523	0	86.043	0	-1e10	8	-1e10	8	-1E+10	1	-1E+10	1	-1E+10	1	-1E+10	1	-1E+10	1	-1E+10	1
4902554	27	C	10/31/2021	12:01	-136.496	49.297	0	87.90	0	6.4000	0	32.5010	0	25.530	0	87.133	0	-1e10	8	-1e10	8	-1E+10	1	-1E+10	1	-1E+10	1	-1E+10	1	-1E+10	1	-1E+10	1
4902554	27	C	10/31/2021	12:01	-136.496	49.297	0	89.00	0	6.3910	0	32.5030	0	25.532	0	88.224	0	-1e10	8	-1e10	8	-1E+10	1	-1E+10	1	-1E+10	1	-1E+10	1	-1E+10	1	-1E+10	1
4902554	27	C	10/31/2021	12:01	-136.496	49.297	0	90.10	0	6.3850	0	32.5070	0	25.536	0	89.314	0	-1e10	8	-1e10	8	-1E+10	1	-1E+10	1	-1E+10	1	-1E+10	1	-1E+10	1	-1E+10	1
4902554	27	C	10/31/2021	12:01	-136.496	49.297	0	90.90	0	6.3840	0	32.5080	0	25.537	0	90.107	0	-1e10	8	-1e10	8	-1E+10	1	-1E+10	1	-1E+10	1	-1E+10	1	-1E+10	1	-1E+10	1
4902554	27	C	10/31/2021	12:01	-136.496	49.297	0	92.10	0	6.3560	0	32.5120	0	25.544	0	91.296	0	-1e10	8	-1e10	8	-1E+10	1	-1E+10	1	-1E+10	1	-1E+10	1	-1E+10	1	-1E+10	1
4902554	27	C	10/31/2021	12:01	-136.496	49.297	0	93.10	0	6.3200	0	32.5090	0	25.546	0	92.287	0	-1e10	8	-1e10	8	-1E+10	1	-1E+10	1	-1E+10	1	-1E+10	1	-1E+10	1	-1E+10	1
4902554	27	C	10/31/2021	12:01	-136.496	49.297	0	94.20	0	6.2570	0	32.5120	0	25.556	0	93.377	0	-1e10	8	-1e10	8	-1E+10	1	-1E+10	1	-1E+10	1	-1E+10	1	-1E+10	1	-1E+10	1
4902554	27	C	10/31/2021	12:01	-136.496	49.297	0	95.10	0	6.2350	0	32.5190	0	25.565	0	94.269	0	-1e10	8	-1e10	8	-1E+10	1	-1E+10	1	-1E+10	1	-1E+10	1	-1E+10	1	-1E+10	1
4902554	27	C	10/31/2021	12:01	-136.496	49.297	0	95.80	0	6.1840	0	32.5170	0	25.569	0	94.963	0	-1e10	8	-1e10	8	-1E+10	1	-1E+10	1	-1E+10	1	-1E+10	1	-1E+10	1	-1E+10	1
4902554	27	C	10/31/2021	12:01	-136.496	49.297	0	96.70	0	6.1330	0	32.5220	0	25.580	0	95.855	0	-1e10	8	-1e10	8	-1E+10	1	-1E+10	1	-1E+10	1	-1E+10	1	-1E+10	1	-1E+10	1
4902554	27	C	10/31/2021	12:01	-136.496	49.297	0	97.70	0	6.1110	0	32.5240	0	25.584	0	96.846	0	-1e10	8	-1e10	8	-1E+10	1	-1E+10	1	-1E+10	1	-1E+10	1	-1E+10	1	-1E+10	1
4902554	27	C	10/31/2021	12:01	-136.496	49.297	0	98.90	0	6.0940	0	32.5250	0	25.587	0	98.035	0	-1e10	8	-1e10	8	-1E+10	1	-1E+10	1	-1E+10	1	-1E+10	1	-1E+10	1	-1E+10	1
4902554	27	C	10/31/2021	12:01	-136.496	49.297	0	100.10	0	6.0830	0	32.5260	0	25.589	0	99.224	0	-1e10	8	-1e10	8	-1E+10	1	-1E+10	1	-1E+10	1	-1E+10	1	-1E+10	1	-1E+10	1
4902554	27	C	10/31/2021	12:01	-136.496	49.297	0	101.10	0	6.0760	0	32.5240	0	25.588	0	100.215	0	-1e10	8	-1e10	8	-1E+10	1	-1E+10	1	-1E+10	1	-1E+10	1	-1E+10	1	-1E+10	1
4902554	27	C	10/31/2021	12:01	-136.496	49.297	0	102.10	0	6.0670	0	32.5260	0	25.591	0	101.206	0	-1e10	8	-1e10	8	-1E+10	1	-1E+10	1	-1E+10	1	-1E+10	1	-1E+10	1	-1E+10	1
4902554	27	C	10/31/2021	12:01	-136.496	49.297	0	103.00	0	6.0610	0	32.5270	0	25.593	0	102.098	0	-1e10	8	-1e10	8	-1E+10	1	-1E+10	1	-1E+10	1	-1E+10	1	-1E+10	1	-1E+10	1
4902554	27	C	10/31/2021	12:01	-136.496	49.297	0	103.90	0	6.0600	0	32.5270	0	25.593	0	102.990	0	-1e10	8	-1e10	8	-1E+10	1	-1E+10	1	-1E+10	1	-1E+10	1	-1E+10	1	-1E+10	1
4902554	27	C	10/31/2021	12:01	-136.496	49.297	0	104.80	0	6.0570	0	32.5280	0	25.594	0	103.882	0	-1e10	8	-1e10	8	-1E+10	1	-1E+10	1	-1E+10	1	-1E+10	1	-1E+10	1	-1E+10	1
4902554	27	C	10/31/2021	12:01	-136.496	49.297	0	105.90	0	6.0450	0	32.5300	0	25.597	0	104.972	0	-1e10	8	-1e10	8	-1E+10	1	-1E+10	1	-1E+10	1	-1E+10	1	-1E+10	1	-1E+10	1
4902554	27	C	10/31/2021	12:01	-136.496	49.297	0	107.20	0	6.0150	0	32.5390	0	25.608	0	106.260	0	-1e10	8	-1e10	8	-1E+10	1	-1E+10	1	-1E+10	1	-1E+10	1	-1E+10	1	-1E+10	1
4902554	27	C	10/31/2021	12:01	-136.496	49.297	0	108.00	0	6.0060	0	32.5380	0	25.608	0	107.053	0	-1e10	8	-1e10	8	-1E+10	1	-1E+10	1	-1E+10	1	-1E+10	1	-1E+10	1	-1E+10	1
4902554	27	C	10/31/2021	12:01	-136.496	49.297	0	109.20	0	5.9860	0	32.5510	0	25.621	0	108.242	0	-1e10	8	-1e10	8	-1E+10	1	-1E+10	1	-1E+10	1	-1E+10	1	-1E+10	1	-1E+10	1
4902554	27	C	10/31/2021	12:01	-136.496	49.297	0	109.80	0	5.9890	0	32.5630	0	25.630	0	108.837	0	-1e10	8	-1e10	8	-1E+10	1	-1E+10	1	-1E+10	1	-1E+10	1	-1E+10	1	-1E+10	1
4902554	27	C	10/31/2021	12:01	-136.496	49.297	0	110.70	0	5.9930	0	32.5960	0	25.655	0	109.729	0	-1e10	8	-1e10	8	-1E+10	1	-1E+10	1	-1E+10	1	-1E+10	1	-1E+10	1	-1E+10	1
4902554	27	C	10/31/2021	12:01	-136.496	49.297	0	111.70	0	5.9810	0	32.6380	0	25.690	0	110.720	0	-1e10	8	-1e10	8	-1E+10	1	-1E+10	1	-1E+10	1	-1E+10	1	-1E+10	1	-1E+10	1
4902554	27	C	10/31/2021	12:01	-136.496	49.297	0	112.70	0	5.9780	0	32.6450	0	25.696	0	111.710	0	-1e10	8	-1e10	8	-1E+10	1	-1E+10	1	-1E+10	1	-1E+10	1	-1E+10	1	-1E+10	1
4902554	27	C	10/31/2021	12:01	-136.496	49.297	0	113.70	0	5.9670	0	32.6550	0	25.705	0	112.701	0	-1e10	8	-1e10	8	-1E+10	1	-1E+10	1	-1E+10	1	-1E+10	1	-1E+10	1	-1E+10	1
4902554	27	C	10/31/2021	12:01	-136.496	49.297	0	114.70	0	5.9680	0	32.6610	0	25.710	0	113.692	0	-1e10	8	-1e10	8	-1E+10	1	-1E+10	1	-1E+10	1	-1E+10	1	-1E+10	1	-1E+10	1
4902554	27	C	10/31/2021	12:01	-136.496	49.297	0	115.70	0	5.9680	0	32.6740	0	25.720	0	114.683	0	-1e10	8	-1e10	8	-1E+10	1	-1E+10	1	-1E+10	1	-1E+10	1	-1E+10	1	-1E+10	1
4902554	27	C	10/31/2021	12:01	-136.496	49.297	0	117.00	0	5.9680	0	32.6840	0	25.728	0	115.972	0	-1e10	8	-1e10	8	-1E+10	1	-1E+10	1	-1E+10	1	-1E+10	1	-1E+10	1	-1E+10	1
4902554	27	C	10/31/2021	12:01	-136.496	49.297	0	117.80	0	5.9680	0	32.6900	0	25.733	0	116.764	0	-1e10	8	-1e10	8	-1E+10	1	-1E+10	1	-1E+10	1	-1E+10	1	-1E+10	1	-1E+10	1
4902554	27	C	10/31/2021	12:01	-136.496	49.297	0	118.90	0	5.9740	0	32.6940	0	25.735	0	117.854	0	-1e10	8	-1e10	8	-1E+10	1	-1E+10	1	-1E+10	1	-1E+10	1	-1E+10	1	-1E+10	1
4902554	27	C	10/31/2021	12:01	-136.496	49.297	0	120.10	0	5.9890	0	32.7660	0	25.790	0	119.043	0	-1e10	8	-1e10	8	-1E+10	1	-1E+10	1	-1E+10	1	-1E+10	1	-1E+10	1	-1E+10	1
4902554	27	C	10/31/2021	12:01	-136.496	49.297	0	121.10	0	5.9350	0	32.7950	0	25.820	0	120.034	0	-1e10	8	-1e10	8	-1E+10	1	-1E+10	1	-1E+10	1	-1E+10	1	-1E+10	1	-1E+10	1
4902554	27	C	10/31/2021	12:01	-136.496	49.297	0	121.80	0	5.9210	0	32.8320	0	25.851	0	120.728	0	-1e10	8	-1e10	8	-1E+10	1	-1E+10	1	-1E+10	1	-1E+10	1	-1E+10	1	-1E+10	1
4902554	27	C	10/31/2021	12:01	-136.496	49.297	0	122.80	0	5.9370	0	32.8770	0	25.884	0	121.719	0	-1e10	8	-1e10	8	-1E+10	1	-1E+10	1	-1E+10	1	-1E+10	1	-1E+10	1	-1E+10	1
4902554	27	C	10/31/2021	12:01	-136.496	49.297	0	123.80	0	5.9340	0	32.8970	0	25.901	0	122.710	0	-1e10	8	-1e10	8	-1E+10	1	-1E+10	1	-1E+10	1	-1E+10	1	-1E+10	1	-1E+10	1
4902554	27	C	10/31/2021	12:01	-136.496	49.297	0	124.80	0	5.9060	0	32.9040	0	25.910	0	123.701	0	-1e10	8	-1e10	8	-1E+10	1	-1E+10	1	-1E+10	1	-1E+10	1	-1E+10	1	-1E+10	1
4902554	27	C	10/31/2021	12:01	-136.496	49.297	0	125.90	0	5.8930	0	32.9240	0	25.927	0	124.791	0	-1e10	8	-1e10	8	-1E+10	1	-1E+10	1	-1E+10	1	-1E+10	1	-1E+10	1	-1E+10	1
4902554	27	C	10/31/2021	12:01	-136.496	49.297	0	127.00	0	5.9130	0	32.9560	0	25.950	0	125.881	0	-1e10	8	-1e10	8	-1E+10	1	-1E+10	1	-1E+10	1	-1E+10	1	-1E+10	1	-1E+10	1
4902554	27	C	10/31/2021	12:01	-136.496	49.297	0	128.10	0	5.9550	0	33.0220	0	25.997	0	126.971	0	-1e10	8	-1e10	8	-1E+10	1	-1E+10	1	-1E+10	1	-1E+10	1	-1E+10	1	-1E+10	1
4902554	27	C	10/31/2021	12:01	-136.496	49.297	0	128.90	0	5.9760	0	33.0780	0	26.038	0	127.763	0	-1e10	8	-1e10	8	-1E+10	1	-1E+10	1	-1E+10	1	-1E+10	1	-1E+10	1	-1E+10	1
4902554	27	C	10/31/2021	12:01	-136.496	49.297	0	129.80	0	5.9850	0	33.0950	0	26.051	0	128.655	0	-1e10	8	-1e10	8	-1E+10	1	-1E+10	1	-1E+10	1	-1E+10	1	-1E+10	1	-1E+10	1
4902554	27	C	10/31/2021	12:01	-136.496	49.297	0	130.60	0	5.9970	0	33.1220	0	26.071	0	129.448	0	-1e10	8	-1e10	8	-1E+10	1	-1E+10	1	-1E+10	1	-1E+10	1	-1E+10	1	-1E+10	1
4902554	27	C	10/31/2021	12:01	-136.496	49.297	0	131.90	0	6.0120	0	33.1450	0	26.087	0	130.736	0	-1e10	8	-1e10	8	-1E+10	1	-1E+10	1	-1E+10	1	-1E+10	1	-1E+10	1	-1E+10	1
4902554	27	C	10/31/2021	12:01	-136.496	49.297	0	133.30	0	6.0010	0	33.2050	0	26.136	0	132.123	0	-1e10	8	-1e10	8	-1E+10	1	-1E+10	1	-1E+10	1	-1E+10	1	-1E+10	1	-1E+10	1
4902554	27	C	10/31/2021	12:01	-136.496	49.297	0	134.20	0	6.0140	0	33.2510	0	26.171	0	133.015	0	-1e10	8	-1e10	8	-1E+10	1	-1E+10	1	-1E+10	1	-1E+10	1	-1E+10	1	-1E+10	1
4902554	27	C	10/31/2021	12:01	-136.496	49.297	0	135.10	0	6.0130	0	33.2520	0	26.171	0	133.907	0	-1e10	8	-1e10	8	-1E+10	1	-1E+10	1	-1E+10	1	-1E+10	1	-1E+10	1	-1E+10	1
4902554	27	C	10/31/2021	12:01	-136.496	49.297	0	136.10	0	6.0110	0	33.2530	0	26.172	0	134.897	0	-1e10	8	-1e10	8	-1E+10	1	-1E+10	1	-1E+10	1	-1E+10	1	-1E+10	1	-1E+10	1
4902554	27	C	10/31/2021	12:01	-136.496	49.297	0	136.90	0	6.0130	0	33.2560	0	26.175	0	135.690	0	-1e10	8	-1e10	8	-1E+10	1	-1E+10	1	-1E+10	1	-1E+10	1	-1E+10	1	-1E+10	1
4902554	27	C	10/31/2021	12:01	-136.496	49.297	0	137.80	0	6.0110	0	33.2560	0	26.175	0	136.582	0	-1e10	8	-1e10	8	-1E+10	1	-1E+10	1	-1E+10	1	-1E+10	1	-1E+10	1	-1E+10	1
4902554	27	C	10/31/2021	12:01	-136.496	49.297	0	138.60	0	6.0090	0	33.2570	0	26.176	0	137.374	0	-1e10	8	-1e10	8	-1E+10	1	-1E+10	1	-1E+10	1	-1E+10	1	-1E+10	1	-1E+10	1
4902554	27	C	10/31/2021	12:01	-136.496	49.297	0	139.90	0	6.0060	0	33.2790	0	26.194	0	138.663	0	-1e10	8	-1e10	8	-1E+10	1	-1E+10	1	-1E+10	1	-1E+10	1	-1E+10	1	-1E+10	1
4902554	27	C	10/31/2021	12:01	-136.496	49.297	0	141.30	0	6.0160	0	33.3610	0	26.257	0	140.050	0	-1e10	8	-1e10	8	-1E+10	1	-1E+10	1	-1E+10	1	-1E+10	1	-1E+10	1	-1E+10	1
4902554	27	C	10/31/2021	12:01	-136.496	49.297	0	142.30	0	6.0270	0	33.4240	0	26.306	0	141.041	0	-1e10	8	-1e10	8	-1E+10	1	-1E+10	1	-1E+10	1	-1E+10	1	-1E+10	1	-1E+10	1
4902554	27	C	10/31/2021	12:01	-136.496	49.297	0	143.30	0	6.0270	0	33.4330	0	26.313	0	142.031	0	-1e10	8	-1e10	8	-1E+10	1	-1E+10	1	-1E+10	1	-1E+10	1	-1E+10	1	-1E+10	1
4902554	27	C	10/31/2021	12:01	-136.496	49.297	0	144.30	0	6.0260	0	33.4430	0	26.321	0	143.022	0	-1e10	8	-1e10	8	-1E+10	1	-1E+10	1	-1E+10	1	-1E+10	1	-1E+10	1	-1E+10	1
4902554	27	C	10/31/2021	12:01	-136.496	49.297	0	145.30	0	6.0260	0	33.4530	0	26.329	0	144.013	0	-1e10	8	-1e10	8	-1E+10	1	-1E+10	1	-1E+10	1	-1E+10	1	-1E+10	1	-1E+10	1
4902554	27	C	10/31/2021	12:01	-136.496	49.297	0	146.40	0	6.0270	0	33.4680	0	26.340	0	145.103	0	-1e10	8	-1e10	8	-1E+10	1	-1E+10	1	-1E+10	1	-1E+10	1	-1E+10	1	-1E+10	1
4902554	27	C	10/31/2021	12:01	-136.496	49.297	0	147.40	0	6.0290	0	33.4880	0	26.356	0	146.094	0	-1e10	8	-1e10	8	-1E+10	1	-1E+10	1	-1E+10	1	-1E+10	1	-1E+10	1	-1E+10	1
4902554	27	C	10/31/2021	12:01	-136.496	49.297	0	148.40	0	6.0340	0	33.4970	0	26.363	0	147.084	0	-1e10	8	-1e10	8	-1E+10	1	-1E+10	1	-1E+10	1	-1E+10	1	-1E+10	1	-1E+10	1
4902554	27	C	10/31/2021	12:01	-136.496	49.297	0	149.50	0	6.0390	0	33.5070	0	26.370	0	148.174	0	-1e10	8	-1e10	8	-1E+10	1	-1E+10	1	-1E+10	1	-1E+10	1	-1E+10	1	-1E+10	1
4902554	27	C	10/31/2021	12:01	-136.496	49.297	0	150.50	0	6.0370	0	33.5240	0	26.383	0	149.165	0	-1e10	8	-1e10	8	-1E+10	1	-1E+10	1	-1E+10	1	-1E+10	1	-1E+10	1	-1E+10	1
4902554	27	C	10/31/2021	12:01	-136.496	49.297	0	151.60	0	6.0320	0	33.5380	0	26.395	0	150.255	0	-1e10	8	-1e10	8	-1E+10	1	-1E+10	1	-1E+10	1	-1E+10	1	-1E+10	1	-1E+10	1
4902554	27	C	10/31/2021	12:01	-136.496	49.297	0	152.70	0	6.0290	0	33.5450	0	26.401	0	151.345	0	-1e10	8	-1e10	8	-1E+10	1	-1E+10	1	-1E+10	1	-1E+10	1	-1E+10	1	-1E+10	1
4902554	27	C	10/31/2021	12:01	-136.496	49.297	0	153.70	0	6.0270	0	33.5530	0	26.408	0	152.335	0	-1e10	8	-1e10	8	-1E+10	1	-1E+10	1	-1E+10	1	-1E+10	1	-1E+10	1	-1E+10	1
4902554	27	C	10/31/2021	12:01	-136.496	49.297	0	154.80	0	6.0270	0	33.5550	0	26.409	0	153.425	0	-1e10	8	-1e10	8	-1E+10	1	-1E+10	1	-1E+10	1	-1E+10	1	-1E+10	1	-1E+10	1
4902554	27	C	10/31/2021	12:01	-136.496	49.297	0	155.80	0	6.0260	0	33.5610	0	26.414	0	154.416	0	-1e10	8	-1e10	8	-1E+10	1	-1E+10	1	-1E+10	1	-1E+10	1	-1E+10	1	-1E+10	1
4902554	27	C	10/31/2021	12:01	-136.496	49.297	0	156.90	0	6.0230	0	33.5660	0	26.418	0	155.506	0	-1e10	8	-1e10	8	-1E+10	1	-1E+10	1	-1E+10	1	-1E+10	1	-1E+10	1	-1E+10	1
4902554	27	C	10/31/2021	12:01	-136.496	49.297	0	157.90	0	6.0180	0	33.5730	0	26.425	0	156.497	0	-1e10	8	-1e10	8	-1E+10	1	-1E+10	1	-1E+10	1	-1E+10	1	-1E+10	1	-1E+10	1
4902554	27	C	10/31/2021	12:01	-136.496	49.297	0	159.00	0	6.0130	0	33.5770	0	26.428	0	157.586	0	-1e10	8	-1e10	8	-1E+10	1	-1E+10	1	-1E+10	1	-1E+10	1	-1E+10	1	-1E+10	1
4902554	27	C	10/31/2021	12:01	-136.496	49.297	0	160.00	0	6.0060	0	33.5860	0	26.436	0	158.577	0	-1e10	8	-1e10	8	-1E+10	1	-1E+10	1	-1E+10	1	-1E+10	1	-1E+10	1	-1E+10	1
4902554	27	C	10/31/2021	12:01	-136.496	49.297	0	161.10	0	5.9950	0	33.5950	0	26.445	0	159.667	0	-1e10	8	-1e10	8	-1E+10	1	-1E+10	1	-1E+10	1	-1E+10	1	-1E+10	1	-1E+10	1
4902554	27	C	10/31/2021	12:01	-136.496	49.297	0	162.20	0	5.9900	0	33.6000	0	26.450	0	160.757	0	-1e10	8	-1e10	8	-1E+10	1	-1E+10	1	-1E+10	1	-1E+10	1	-1E+10	1	-1E+10	1
4902554	27	C	10/31/2021	12:01	-136.496	49.297	0	163.20	0	5.9900	0	33.6000	0	26.450	0	161.747	0	-1e10	8	-1e10	8	-1E+10	1	-1E+10	1	-1E+10	1	-1E+10	1	-1E+10	1	-1E+10	1
4902554	27	C	10/31/2021	12:01	-136.496	49.297	0	164.30	0	5.9880	0	33.6010	0	26.451	0	162.837	0	-1e10	8	-1e10	8	-1E+10	1	-1E+10	1	-1E+10	1	-1E+10	1	-1E+10	1	-1E+10	1
4902554	27	C	10/31/2021	12:01	-136.496	49.297	0	165.40	0	5.9650	0	33.6090	0	26.460	0	163.927	0	-1e10	8	-1e10	8	-1E+10	1	-1E+10	1	-1E+10	1	-1E+10	1	-1E+10	1	-1E+10	1
4902554	27	C	10/31/2021	12:01	-136.496	49.297	0	166.40	0	5.9780	0	33.6080	0	26.457	0	164.918	0	-1e10	8	-1e10	8	-1E+10	1	-1E+10	1	-1E+10	1	-1E+10	1	-1E+10	1	-1E+10	1
4902554	27	C	10/31/2021	12:01	-136.496	49.297	0	167.90	0	5.9760	0	33.6210	0	26.468	0	166.404	0	-1e10	8	-1e10	8	-1E+10	1	-1E+10	1	-1E+10	1	-1E+10	1	-1E+10	1	-1E+10	1
4902554	27	C	10/31/2021	12:01	-136.496	49.297	0	169.90	0	5.9580	0	33.6340	0	26.480	0	168.385	0	-1e10	8	-1e10	8	-1E+10	1	-1E+10	1	-1E+10	1	-1E+10	1	-1E+10	1	-1E+10	1
4902554	27	C	10/31/2021	12:01	-136.496	49.297	0	171.10	0	5.9460	0	33.6420	0	26.488	0	169.574	0	-1e10	8	-1e10	8	-1E+10	1	-1E+10	1	-1E+10	1	-1E+10	1	-1E+10	1	-1E+10	1
4902554	27	C	10/31/2021	12:01	-136.496	49.297	0	171.90	0	5.9340	0	33.6500	0	26.496	0	170.366	0	-1e10	8	-1e10	8	-1E+10	1	-1E+10	1	-1E+10	1	-1E+10	1	-1E+10	1	-1E+10	1
4902554	27	C	10/31/2021	12:01	-136.496	49.297	0	172.70	0	5.9120	0	33.6600	0	26.507	0	171.159	0	-1e10	8	-1e10	8	-1E+10	1	-1E+10	1	-1E+10	1	-1E+10	1	-1E+10	1	-1E+10	1
4902554	27	C	10/31/2021	12:01	-136.496	49.297	0	174.00	0	5.8920	0	33.6680	0	26.516	0	172.447	0	-1e10	8	-1e10	8	-1E+10	1	-1E+10	1	-1E+10	1	-1E+10	1	-1E+10	1	-1E+10	1
4902554	27	C	10/31/2021	12:01	-136.496	49.297	0	175.20	0	5.8520	0	33.6870	0	26.535	0	173.635	0	-1e10	8	-1e10	8	-1E+10	1	-1E+10	1	-1E+10	1	-1E+10	1	-1E+10	1	-1E+10	1
4902554	27	C	10/31/2021	12:01	-136.496	49.297	0	176.10	0	5.8440	0	33.6890	0	26.538	0	174.527	0	-1e10	8	-1e10	8	-1E+10	1	-1E+10	1	-1E+10	1	-1E+10	1	-1E+10	1	-1E+10	1
4902554	27	C	10/31/2021	12:01	-136.496	49.297	0	176.90	0	5.8230	0	33.6960	0	26.546	0	175.320	0	-1e10	8	-1e10	8	-1E+10	1	-1E+10	1	-1E+10	1	-1E+10	1	-1E+10	1	-1E+10	1
4902554	27	C	10/31/2021	12:01	-136.496	49.297	0	177.70	0	5.8070	0	33.7010	0	26.552	0	176.112	0	-1e10	8	-1e10	8	-1E+10	1	-1E+10	1	-1E+10	1	-1E+10	1	-1E+10	1	-1E+10	1
4902554	27	C	10/31/2021	12:01	-136.496	49.297	0	179.00	0	5.8000	0	33.7020	0	26.554	0	177.400	0	-1e10	8	-1e10	8	-1E+10	1	-1E+10	1	-1E+10	1	-1E+10	1	-1E+10	1	-1E+10	1
4902554	27	C	10/31/2021	12:01	-136.496	49.297	0	180.30	0	5.7920	0	33.7040	0	26.556	0	178.688	0	-1e10	8	-1e10	8	-1E+10	1	-1E+10	1	-1E+10	1	-1E+10	1	-1E+10	1	-1E+10	1
4902554	27	C	10/31/2021	12:01	-136.496	49.297	0	181.10	0	5.7860	0	33.7050	0	26.558	0	179.480	0	-1e10	8	-1e10	8	-1E+10	1	-1E+10	1	-1E+10	1	-1E+10	1	-1E+10	1	-1E+10	1
4902554	27	C	10/31/2021	12:01	-136.496	49.297	0	181.90	0	5.7710	0	33.7100	0	26.564	0	180.273	0	-1e10	8	-1e10	8	-1E+10	1	-1E+10	1	-1E+10	1	-1E+10	1	-1E+10	1	-1E+10	1
4902554	27	C	10/31/2021	12:01	-136.496	49.297	0	182.70	0	5.7370	0	33.7180	0	26.574	0	181.065	0	-1e10	8	-1e10	8	-1E+10	1	-1E+10	1	-1E+10	1	-1E+10	1	-1E+10	1	-1E+10	1
4902554	27	C	10/31/2021	12:01	-136.496	49.297	0	183.90	0	5.7260	0	33.7190	0	26.576	0	182.254	0	-1e10	8	-1e10	8	-1E+10	1	-1E+10	1	-1E+10	1	-1E+10	1	-1E+10	1	-1E+10	1
4902554	27	C	10/31/2021	12:01	-136.496	49.297	0	185.20	0	5.7240	0	33.7210	0	26.578	0	183.542	0	-1e10	8	-1e10	8	-1E+10	1	-1E+10	1	-1E+10	1	-1E+10	1	-1E+10	1	-1E+10	1
4902554	27	C	10/31/2021	12:01	-136.496	49.297	0	185.90	0	5.7230	0	33.7220	0	26.579	0	184.235	0	-1e10	8	-1e10	8	-1E+10	1	-1E+10	1	-1E+10	1	-1E+10	1	-1E+10	1	-1E+10	1
4902554	27	C	10/31/2021	12:01	-136.496	49.297	0	186.80	0	5.7170	0	33.7240	0	26.581	0	185.127	0	-1e10	8	-1e10	8	-1E+10	1	-1E+10	1	-1E+10	1	-1E+10	1	-1E+10	1	-1E+10	1
4902554	27	C	10/31/2021	12:01	-136.496	49.297	0	188.00	0	5.7140	0	33.7240	0	26.582	0	186.315	0	-1e10	8	-1e10	8	-1E+10	1	-1E+10	1	-1E+10	1	-1E+10	1	-1E+10	1	-1E+10	1
4902554	27	C	10/31/2021	12:01	-136.496	49.297	0	189.20	0	5.6920	0	33.7310	0	26.590	0	187.504	0	-1e10	8	-1e10	8	-1E+10	1	-1E+10	1	-1E+10	1	-1E+10	1	-1E+10	1	-1E+10	1
4902554	27	C	10/31/2021	12:01	-136.496	49.297	0	190.10	0	5.6910	0	33.7310	0	26.590	0	188.396	0	-1e10	8	-1e10	8	-1E+10	1	-1E+10	1	-1E+10	1	-1E+10	1	-1E+10	1	-1E+10	1
4902554	27	C	10/31/2021	12:01	-136.496	49.297	0	190.90	0	5.6900	0	33.7310	0	26.590	0	189.188	0	-1e10	8	-1e10	8	-1E+10	1	-1E+10	1	-1E+10	1	-1E+10	1	-1E+10	1	-1E+10	1
4902554	27	C	10/31/2021	12:01	-136.496	49.297	0	191.80	0	5.6870	0	33.7320	0	26.591	0	190.080	0	-1e10	8	-1e10	8	-1E+10	1	-1E+10	1	-1E+10	1	-1E+10	1	-1E+10	1	-1E+10	1
4902554	27	C	10/31/2021	12:01	-136.496	49.297	0	192.60	0	5.6750	0	33.7340	0	26.594	0	190.872	0	-1e10	8	-1e10	8	-1E+10	1	-1E+10	1	-1E+10	1	-1E+10	1	-1E+10	1	-1E+10	1
4902554	27	C	10/31/2021	12:01	-136.496	49.297	0	193.90	0	5.6470	0	33.7360	0	26.599	0	192.160	0	-1e10	8	-1e10	8	-1E+10	1	-1E+10	1	-1E+10	1	-1E+10	1	-1E+10	1	-1E+10	1
4902554	27	C	10/31/2021	12:01	-136.496	49.297	0	195.20	0	5.6420	0	33.7370	0	26.601	0	193.448	0	-1e10	8	-1e10	8	-1E+10	1	-1E+10	1	-1E+10	1	-1E+10	1	-1E+10	1	-1E+10	1
4902554	27	C	10/31/2021	12:01	-136.496	49.297	0	196.10	0	5.6450	0	33.7380	0	26.601	0	194.339	0	-1e10	8	-1e10	8	-1E+10	1	-1E+10	1	-1E+10	1	-1E+10	1	-1E+10	1	-1E+10	1
4902554	27	C	10/31/2021	12:01	-136.496	49.297	0	197.00	0	5.6430	0	33.7390	0	26.602	0	195.231	0	-1e10	8	-1e10	8	-1E+10	1	-1E+10	1	-1E+10	1	-1E+10	1	-1E+10	1	-1E+10	1
4902554	27	C	10/31/2021	12:01	-136.496	49.297	0	197.80	0	5.6180	0	33.7430	0	26.608	0	196.023	0	-1e10	8	-1e10	8	-1E+10	1	-1E+10	1	-1E+10	1	-1E+10	1	-1E+10	1	-1E+10	1
4902554	27	C	10/31/2021	12:01	-136.496	49.297	0	198.70	0	5.5930	0	33.7430	0	26.611	0	196.914	0	-1e10	8	-1e10	8	-1E+10	1	-1E+10	1	-1E+10	1	-1E+10	1	-1E+10	1	-1E+10	1
4902554	27	C	10/31/2021	12:01	-136.496	49.297	0	199.60	0	5.5640	0	33.7480	0	26.619	0	197.806	0	-1e10	8	-1e10	8	-1E+10	1	-1E+10	1	-1E+10	1	-1E+10	1	-1E+10	1	-1E+10	1
4902554	27	C	10/31/2021	12:01	-136.496	49.297	0	200.90	0	5.5530	0	33.7500	0	26.622	0	199.094	0	-1e10	8	-1e10	8	-1E+10	1	-1E+10	1	-1E+10	1	-1E+10	1	-1E+10	1	-1E+10	1
4902554	27	C	10/31/2021	12:01	-136.496	49.297	0	202.20	0	5.5240	0	33.7520	0	26.627	0	200.381	0	-1e10	8	-1e10	8	-1E+10	1	-1E+10	1	-1E+10	1	-1E+10	1	-1E+10	1	-1E+10	1
4902554	27	C	10/31/2021	12:01	-136.496	49.297	0	203.10	0	5.5260	0	33.7520	0	26.627	0	201.273	0	-1e10	8	-1e10	8	-1E+10	1	-1E+10	1	-1E+10	1	-1E+10	1	-1E+10	1	-1E+10	1
4902554	27	C	10/31/2021	12:01	-136.496	49.297	0	204.00	0	5.5210	0	33.7560	0	26.630	0	202.164	0	-1e10	8	-1e10	8	-1E+10	1	-1E+10	1	-1E+10	1	-1E+10	1	-1E+10	1	-1E+10	1
4902554	27	C	10/31/2021	12:01	-136.496	49.297	0	204.90	0	5.5070	0	33.7600	0	26.635	0	203.056	0	-1e10	8	-1e10	8	-1E+10	1	-1E+10	1	-1E+10	1	-1E+10	1	-1E+10	1	-1E+10	1
4902554	27	C	10/31/2021	12:01	-136.496	49.297	0	205.80	0	5.4900	0	33.7620	0	26.639	0	203.947	0	-1e10	8	-1e10	8	-1E+10	1	-1E+10	1	-1E+10	1	-1E+10	1	-1E+10	1	-1E+10	1
4902554	27	C	10/31/2021	12:01	-136.496	49.297	0	206.70	0	5.4750	0	33.7650	0	26.643	0	204.839	0	-1e10	8	-1e10	8	-1E+10	1	-1E+10	1	-1E+10	1	-1E+10	1	-1E+10	1	-1E+10	1
4902554	27	C	10/31/2021	12:01	-136.496	49.297	0	207.90	0	5.4760	0	33.7700	0	26.647	0	206.027	0	-1e10	8	-1e10	8	-1E+10	1	-1E+10	1	-1E+10	1	-1E+10	1	-1E+10	1	-1E+10	1
4902554	27	C	10/31/2021	12:01	-136.496	49.297	0	209.30	0	5.4500	0	33.7700	0	26.650	0	207.414	0	-1e10	8	-1e10	8	-1E+10	1	-1E+10	1	-1E+10	1	-1E+10	1	-1E+10	1	-1E+10	1
4902554	27	C	10/31/2021	12:01	-136.496	49.297	0	210.20	0	5.4330	0	33.7690	0	26.651	0	208.305	0	-1e10	8	-1e10	8	-1E+10	1	-1E+10	1	-1E+10	1	-1E+10	1	-1E+10	1	-1E+10	1
4902554	27	C	10/31/2021	12:01	-136.496	49.297	0	211.10	0	5.4240	0	33.7690	0	26.652	0	209.197	0	-1e10	8	-1e10	8	-1E+10	1	-1E+10	1	-1E+10	1	-1E+10	1	-1E+10	1	-1E+10	1
4902554	27	C	10/31/2021	12:01	-136.496	49.297	0	212.00	0	5.4170	0	33.7680	0	26.652	0	210.088	0	-1e10	8	-1e10	8	-1E+10	1	-1E+10	1	-1E+10	1	-1E+10	1	-1E+10	1	-1E+10	1
4902554	27	C	10/31/2021	12:01	-136.496	49.297	0	212.80	0	5.4020	0	33.7720	0	26.657	0	210.881	0	-1e10	8	-1e10	8	-1E+10	1	-1E+10	1	-1E+10	1	-1E+10	1	-1E+10	1	-1E+10	1
4902554	27	C	10/31/2021	12:01	-136.496	49.297	0	213.70	0	5.3880	0	33.7710	0	26.658	0	211.772	0	-1e10	8	-1e10	8	-1E+10	1	-1E+10	1	-1E+10	1	-1E+10	1	-1E+10	1	-1E+10	1
4902554	27	C	10/31/2021	12:01	-136.496	49.297	0	214.60	0	5.3590	0	33.7740	0	26.664	0	212.663	0	-1e10	8	-1e10	8	-1E+10	1	-1E+10	1	-1E+10	1	-1E+10	1	-1E+10	1	-1E+10	1
4902554	27	C	10/31/2021	12:01	-136.496	49.297	0	215.90	0	5.3510	0	33.7760	0	26.666	0	213.951	0	-1e10	8	-1e10	8	-1E+10	1	-1E+10	1	-1E+10	1	-1E+10	1	-1E+10	1	-1E+10	1
4902554	27	C	10/31/2021	12:01	-136.496	49.297	0	217.30	0	5.3480	0	33.7770	0	26.668	0	215.338	0	-1e10	8	-1e10	8	-1E+10	1	-1E+10	1	-1E+10	1	-1E+10	1	-1E+10	1	-1E+10	1
4902554	27	C	10/31/2021	12:01	-136.496	49.297	0	218.20	0	5.3450	0	33.7780	0	26.669	0	216.229	0	-1e10	8	-1e10	8	-1E+10	1	-1E+10	1	-1E+10	1	-1E+10	1	-1E+10	1	-1E+10	1
4902554	27	C	10/31/2021	12:01	-136.496	49.297	0	219.00	0	5.3400	0	33.7780	0	26.669	0	217.021	0	-1e10	8	-1e10	8	-1E+10	1	-1E+10	1	-1E+10	1	-1E+10	1	-1E+10	1	-1E+10	1
4902554	27	C	10/31/2021	12:01	-136.496	49.297	0	219.90	0	5.3350	0	33.7790	0	26.671	0	217.913	0	-1e10	8	-1e10	8	-1E+10	1	-1E+10	1	-1E+10	1	-1E+10	1	-1E+10	1	-1E+10	1
4902554	27	C	10/31/2021	12:01	-136.496	49.297	0	220.80	0	5.3260	0	33.7800	0	26.673	0	218.804	0	-1e10	8	-1e10	8	-1E+10	1	-1E+10	1	-1E+10	1	-1E+10	1	-1E+10	1	-1E+10	1
4902554	27	C	10/31/2021	12:01	-136.496	49.297	0	221.70	0	5.3220	0	33.7810	0	26.674	0	219.696	0	-1e10	8	-1e10	8	-1E+10	1	-1E+10	1	-1E+10	1	-1E+10	1	-1E+10	1	-1E+10	1
4902554	27	C	10/31/2021	12:01	-136.496	49.297	0	222.60	0	5.3190	0	33.7810	0	26.674	0	220.587	0	-1e10	8	-1e10	8	-1E+10	1	-1E+10	1	-1E+10	1	-1E+10	1	-1E+10	1	-1E+10	1
4902554	27	C	10/31/2021	12:01	-136.496	49.297	0	223.90	0	5.3080	0	33.7820	0	26.676	0	221.874	0	-1e10	8	-1e10	8	-1E+10	1	-1E+10	1	-1E+10	1	-1E+10	1	-1E+10	1	-1E+10	1
4902554	27	C	10/31/2021	12:01	-136.496	49.297	0	225.30	0	5.2980	0	33.7810	0	26.677	0	223.261	0	-1e10	8	-1e10	8	-1E+10	1	-1E+10	1	-1E+10	1	-1E+10	1	-1E+10	1	-1E+10	1
4902554	27	C	10/31/2021	12:01	-136.496	49.297	0	226.20	0	5.2940	0	33.7830	0	26.679	0	224.152	0	-1e10	8	-1e10	8	-1E+10	1	-1E+10	1	-1E+10	1	-1E+10	1	-1E+10	1	-1E+10	1
4902554	27	C	10/31/2021	12:01	-136.496	49.297	0	227.10	0	5.2890	0	33.7830	0	26.679	0	225.044	0	-1e10	8	-1e10	8	-1E+10	1	-1E+10	1	-1E+10	1	-1E+10	1	-1E+10	1	-1E+10	1
4902554	27	C	10/31/2021	12:01	-136.496	49.297	0	228.00	0	5.2870	0	33.7840	0	26.680	0	225.935	0	-1e10	8	-1e10	8	-1E+10	1	-1E+10	1	-1E+10	1	-1E+10	1	-1E+10	1	-1E+10	1
4902554	27	C	10/31/2021	12:01	-136.496	49.297	0	228.90	0	5.2860	0	33.7840	0	26.680	0	226.827	0	-1e10	8	-1e10	8	-1E+10	1	-1E+10	1	-1E+10	1	-1E+10	1	-1E+10	1	-1E+10	1
4902554	27	C	10/31/2021	12:01	-136.496	49.297	0	229.80	0	5.2860	0	33.7840	0	26.680	0	227.718	0	-1e10	8	-1e10	8	-1E+10	1	-1E+10	1	-1E+10	1	-1E+10	1	-1E+10	1	-1E+10	1
4902554	27	C	10/31/2021	12:01	-136.496	49.297	0	230.70	0	5.2780	0	33.7850	0	26.682	0	228.609	0	-1e10	8	-1e10	8	-1E+10	1	-1E+10	1	-1E+10	1	-1E+10	1	-1E+10	1	-1E+10	1
4902554	27	C	10/31/2021	12:01	-136.496	49.297	0	231.60	0	5.2730	0	33.7870	0	26.684	0	229.501	0	-1e10	8	-1e10	8	-1E+10	1	-1E+10	1	-1E+10	1	-1E+10	1	-1E+10	1	-1E+10	1
4902554	27	C	10/31/2021	12:01	-136.496	49.297	0	232.90	0	5.2690	0	33.7870	0	26.685	0	230.788	0	-1e10	8	-1e10	8	-1E+10	1	-1E+10	1	-1E+10	1	-1E+10	1	-1E+10	1	-1E+10	1
4902554	27	C	10/31/2021	12:01	-136.496	49.297	0	234.40	0	5.2640	0	33.7890	0	26.687	0	232.274	0	-1e10	8	-1e10	8	-1E+10	1	-1E+10	1	-1E+10	1	-1E+10	1	-1E+10	1	-1E+10	1
4902554	27	C	10/31/2021	12:01	-136.496	49.297	0	235.30	0	5.2550	0	33.7900	0	26.689	0	233.165	0	-1e10	8	-1e10	8	-1E+10	1	-1E+10	1	-1E+10	1	-1E+10	1	-1E+10	1	-1E+10	1
4902554	27	C	10/31/2021	12:01	-136.496	49.297	0	236.30	0	5.2500	0	33.7900	0	26.689	0	234.155	0	-1e10	8	-1e10	8	-1E+10	1	-1E+10	1	-1E+10	1	-1E+10	1	-1E+10	1	-1E+10	1
4902554	27	C	10/31/2021	12:01	-136.496	49.297	0	237.20	0	5.2440	0	33.7900	0	26.690	0	235.047	0	-1e10	8	-1e10	8	-1E+10	1	-1E+10	1	-1E+10	1	-1E+10	1	-1E+10	1	-1E+10	1
4902554	27	C	10/31/2021	12:01	-136.496	49.297	0	238.20	0	5.2380	0	33.7930	0	26.693	0	236.037	0	-1e10	8	-1e10	8	-1E+10	1	-1E+10	1	-1E+10	1	-1E+10	1	-1E+10	1	-1E+10	1
4902554	27	C	10/31/2021	12:01	-136.496	49.297	0	239.20	0	5.2360	0	33.7940	0	26.694	0	237.027	0	-1e10	8	-1e10	8	-1E+10	1	-1E+10	1	-1E+10	1	-1E+10	1	-1E+10	1	-1E+10	1
4902554	27	C	10/31/2021	12:01	-136.496	49.297	0	240.10	0	5.2260	0	33.7950	0	26.696	0	237.919	0	-1e10	8	-1e10	8	-1E+10	1	-1E+10	1	-1E+10	1	-1E+10	1	-1E+10	1	-1E+10	1
4902554	27	C	10/31/2021	12:01	-136.496	49.297	0	241.10	0	5.2230	0	33.7950	0	26.697	0	238.909	0	-1e10	8	-1e10	8	-1E+10	1	-1E+10	1	-1E+10	1	-1E+10	1	-1E+10	1	-1E+10	1
4902554	27	C	10/31/2021	12:01	-136.496	49.297	0	242.00	0	5.2230	0	33.7950	0	26.697	0	239.800	0	-1e10	8	-1e10	8	-1E+10	1	-1E+10	1	-1E+10	1	-1E+10	1	-1E+10	1	-1E+10	1
4902554	27	C	10/31/2021	12:01	-136.496	49.297	0	243.00	0	5.2220	0	33.7950	0	26.697	0	240.791	0	-1e10	8	-1e10	8	-1E+10	1	-1E+10	1	-1E+10	1	-1E+10	1	-1E+10	1	-1E+10	1
4902554	27	C	10/31/2021	12:01	-136.496	49.297	0	244.00	0	5.2170	0	33.7960	0	26.698	0	241.781	0	-1e10	8	-1e10	8	-1E+10	1	-1E+10	1	-1E+10	1	-1E+10	1	-1E+10	1	-1E+10	1
4902554	27	C	10/31/2021	12:01	-136.496	49.297	0	244.90	0	5.2120	0	33.7970	0	26.700	0	242.672	0	-1e10	8	-1e10	8	-1E+10	1	-1E+10	1	-1E+10	1	-1E+10	1	-1E+10	1	-1E+10	1
4902554	27	C	10/31/2021	12:01	-136.496	49.297	0	245.90	0	5.2010	0	33.7980	0	26.702	0	243.663	0	-1e10	8	-1e10	8	-1E+10	1	-1E+10	1	-1E+10	1	-1E+10	1	-1E+10	1	-1E+10	1
4902554	27	C	10/31/2021	12:01	-136.496	49.297	0	246.90	0	5.1950	0	33.7980	0	26.702	0	244.653	0	-1e10	8	-1e10	8	-1E+10	1	-1E+10	1	-1E+10	1	-1E+10	1	-1E+10	1	-1E+10	1
4902554	27	C	10/31/2021	12:01	-136.496	49.297	0	247.80	0	5.1900	0	33.7990	0	26.704	0	245.544	0	-1e10	8	-1e10	8	-1E+10	1	-1E+10	1	-1E+10	1	-1E+10	1	-1E+10	1	-1E+10	1
4902554	27	C	10/31/2021	12:01	-136.496	49.297	0	248.80	0	5.1820	0	33.8000	0	26.705	0	246.534	0	-1e10	8	-1e10	8	-1E+10	1	-1E+10	1	-1E+10	1	-1E+10	1	-1E+10	1	-1E+10	1
4902554	27	C	10/31/2021	12:01	-136.496	49.297	0	249.80	0	5.1790	0	33.8000	0	26.706	0	247.525	0	-1e10	8	-1e10	8	-1E+10	1	-1E+10	1	-1E+10	1	-1E+10	1	-1E+10	1	-1E+10	1
4902554	27	C	10/31/2021	12:01	-136.496	49.297	0	250.70	0	5.1770	0	33.8000	0	26.706	0	248.416	0	-1e10	8	-1e10	8	-1E+10	1	-1E+10	1	-1E+10	1	-1E+10	1	-1E+10	1	-1E+10	1
4902554	27	C	10/31/2021	12:01	-136.496	49.297	0	251.70	0	5.1670	0	33.8000	0	26.707	0	249.406	0	-1e10	8	-1e10	8	-1E+10	1	-1E+10	1	-1E+10	1	-1E+10	1	-1E+10	1	-1E+10	1
4902554	27	C	10/31/2021	12:01	-136.496	49.297	0	252.70	0	5.1560	0	33.8010	0	26.709	0	250.397	0	-1e10	8	-1e10	8	-1E+10	1	-1E+10	1	-1E+10	1	-1E+10	1	-1E+10	1	-1E+10	1
4902554	27	C	10/31/2021	12:01	-136.496	49.297	0	253.60	0	5.1420	0	33.8030	0	26.712	0	251.288	0	-1e10	8	-1e10	8	-1E+10	1	-1E+10	1	-1E+10	1	-1E+10	1	-1E+10	1	-1E+10	1
4902554	27	C	10/31/2021	12:01	-136.496	49.297	0	254.60	0	5.1320	0	33.8040	0	26.714	0	252.278	0	-1e10	8	-1e10	8	-1E+10	1	-1E+10	1	-1E+10	1	-1E+10	1	-1E+10	1	-1E+10	1
4902554	27	C	10/31/2021	12:01	-136.496	49.297	0	255.60	0	5.1240	0	33.8040	0	26.715	0	253.268	0	-1e10	8	-1e10	8	-1E+10	1	-1E+10	1	-1E+10	1	-1E+10	1	-1E+10	1	-1E+10	1
4902554	27	C	10/31/2021	12:01	-136.496	49.297	0	256.50	0	5.1190	0	33.8040	0	26.716	0	254.160	0	-1e10	8	-1e10	8	-1E+10	1	-1E+10	1	-1E+10	1	-1E+10	1	-1E+10	1	-1E+10	1
4902554	27	C	10/31/2021	12:01	-136.496	49.297	0	257.50	0	5.1010	0	33.8060	0	26.720	0	255.150	0	-1e10	8	-1e10	8	-1E+10	1	-1E+10	1	-1E+10	1	-1E+10	1	-1E+10	1	-1E+10	1
4902554	27	C	10/31/2021	12:01	-136.496	49.297	0	258.50	0	5.0870	0	33.8060	0	26.721	0	256.140	0	-1e10	8	-1e10	8	-1E+10	1	-1E+10	1	-1E+10	1	-1E+10	1	-1E+10	1	-1E+10	1
4902554	27	C	10/31/2021	12:01	-136.496	49.297	0	259.90	0	5.0640	0	33.8070	0	26.725	0	257.526	0	-1e10	8	-1e10	8	-1E+10	1	-1E+10	1	-1E+10	1	-1E+10	1	-1E+10	1	-1E+10	1
4902554	27	C	10/31/2021	12:01	-136.496	49.297	0	261.40	0	5.0540	0	33.8070	0	26.726	0	259.012	0	-1e10	8	-1e10	8	-1E+10	1	-1E+10	1	-1E+10	1	-1E+10	1	-1E+10	1	-1E+10	1
4902554	27	C	10/31/2021	12:01	-136.496	49.297	0	262.30	0	5.0500	0	33.8070	0	26.726	0	259.903	0	-1e10	8	-1e10	8	-1E+10	1	-1E+10	1	-1E+10	1	-1E+10	1	-1E+10	1	-1E+10	1
4902554	27	C	10/31/2021	12:01	-136.496	49.297	0	263.30	0	5.0410	0	33.8080	0	26.728	0	260.893	0	-1e10	8	-1e10	8	-1E+10	1	-1E+10	1	-1E+10	1	-1E+10	1	-1E+10	1	-1E+10	1
4902554	27	C	10/31/2021	12:01	-136.496	49.297	0	264.20	0	5.0190	0	33.8110	0	26.733	0	261.784	0	-1e10	8	-1e10	8	-1E+10	1	-1E+10	1	-1E+10	1	-1E+10	1	-1E+10	1	-1E+10	1
4902554	27	C	10/31/2021	12:01	-136.496	49.297	0	265.20	0	5.0120	0	33.8120	0	26.734	0	262.775	0	-1e10	8	-1e10	8	-1E+10	1	-1E+10	1	-1E+10	1	-1E+10	1	-1E+10	1	-1E+10	1
4902554	27	C	10/31/2021	12:01	-136.496	49.297	0	266.20	0	4.9890	0	33.8170	0	26.741	0	263.765	0	-1e10	8	-1e10	8	-1E+10	1	-1E+10	1	-1E+10	1	-1E+10	1	-1E+10	1	-1E+10	1
4902554	27	C	10/31/2021	12:01	-136.496	49.297	0	267.10	0	4.9750	0	33.8180	0	26.743	0	264.656	0	-1e10	8	-1e10	8	-1E+10	1	-1E+10	1	-1E+10	1	-1E+10	1	-1E+10	1	-1E+10	1
4902554	27	C	10/31/2021	12:01	-136.496	49.297	0	268.10	0	4.9720	0	33.8180	0	26.744	0	265.646	0	-1e10	8	-1e10	8	-1E+10	1	-1E+10	1	-1E+10	1	-1E+10	1	-1E+10	1	-1E+10	1
4902554	27	C	10/31/2021	12:01	-136.496	49.297	0	269.00	0	4.9680	0	33.8200	0	26.746	0	266.537	0	-1e10	8	-1e10	8	-1E+10	1	-1E+10	1	-1E+10	1	-1E+10	1	-1E+10	1	-1E+10	1
4902554	27	C	10/31/2021	12:01	-136.496	49.297	0	270.00	0	4.9650	0	33.8210	0	26.747	0	267.528	0	-1e10	8	-1e10	8	-1E+10	1	-1E+10	1	-1E+10	1	-1E+10	1	-1E+10	1	-1E+10	1
4902554	27	C	10/31/2021	12:01	-136.496	49.297	0	270.90	0	4.9600	0	33.8200	0	26.747	0	268.419	0	-1e10	8	-1e10	8	-1E+10	1	-1E+10	1	-1E+10	1	-1E+10	1	-1E+10	1	-1E+10	1
4902554	27	C	10/31/2021	12:01	-136.496	49.297	0	271.90	0	4.9460	0	33.8210	0	26.749	0	269.409	0	-1e10	8	-1e10	8	-1E+10	1	-1E+10	1	-1E+10	1	-1E+10	1	-1E+10	1	-1E+10	1
4902554	27	C	10/31/2021	12:01	-136.496	49.297	0	272.80	0	4.9450	0	33.8210	0	26.749	0	270.300	0	-1e10	8	-1e10	8	-1E+10	1	-1E+10	1	-1E+10	1	-1E+10	1	-1E+10	1	-1E+10	1
4902554	27	C	10/31/2021	12:01	-136.496	49.297	0	273.80	0	4.9340	0	33.8210	0	26.751	0	271.290	0	-1e10	8	-1e10	8	-1E+10	1	-1E+10	1	-1E+10	1	-1E+10	1	-1E+10	1	-1E+10	1
4902554	27	C	10/31/2021	12:01	-136.496	49.297	0	274.70	0	4.9080	0	33.8220	0	26.754	0	272.182	0	-1e10	8	-1e10	8	-1E+10	1	-1E+10	1	-1E+10	1	-1E+10	1	-1E+10	1	-1E+10	1
4902554	27	C	10/31/2021	12:01	-136.496	49.297	0	275.70	0	4.8970	0	33.8240	0	26.757	0	273.172	0	-1e10	8	-1e10	8	-1E+10	1	-1E+10	1	-1E+10	1	-1E+10	1	-1E+10	1	-1E+10	1
4902554	27	C	10/31/2021	12:01	-136.496	49.297	0	276.60	0	4.9190	0	33.8320	0	26.761	0	274.063	0	-1e10	8	-1e10	8	-1E+10	1	-1E+10	1	-1E+10	1	-1E+10	1	-1E+10	1	-1E+10	1
4902554	27	C	10/31/2021	12:01	-136.496	49.297	0	277.60	0	4.9020	0	33.8330	0	26.764	0	275.053	0	-1e10	8	-1e10	8	-1E+10	1	-1E+10	1	-1E+10	1	-1E+10	1	-1E+10	1	-1E+10	1
4902554	27	C	10/31/2021	12:01	-136.496	49.297	0	278.50	0	4.9180	0	33.8380	0	26.766	0	275.944	0	-1e10	8	-1e10	8	-1E+10	1	-1E+10	1	-1E+10	1	-1E+10	1	-1E+10	1	-1E+10	1
4902554	27	C	10/31/2021	12:01	-136.496	49.297	0	279.90	0	4.8920	0	33.8370	0	26.768	0	277.330	0	-1e10	8	-1e10	8	-1E+10	1	-1E+10	1	-1E+10	1	-1E+10	1	-1E+10	1	-1E+10	1
4902554	27	C	10/31/2021	12:01	-136.496	49.297	0	281.40	0	4.8930	0	33.8390	0	26.769	0	278.816	0	-1e10	8	-1e10	8	-1E+10	1	-1E+10	1	-1E+10	1	-1E+10	1	-1E+10	1	-1E+10	1
4902554	27	C	10/31/2021	12:01	-136.496	49.297	0	282.30	0	4.8750	0	33.8400	0	26.772	0	279.707	0	-1e10	8	-1e10	8	-1E+10	1	-1E+10	1	-1E+10	1	-1E+10	1	-1E+10	1	-1E+10	1
4902554	27	C	10/31/2021	12:01	-136.496	49.297	0	283.30	0	4.8580	0	33.8380	0	26.773	0	280.697	0	-1e10	8	-1e10	8	-1E+10	1	-1E+10	1	-1E+10	1	-1E+10	1	-1E+10	1	-1E+10	1
4902554	27	C	10/31/2021	12:01	-136.496	49.297	0	284.20	0	4.8050	0	33.8430	0	26.782	0	281.588	0	-1e10	8	-1e10	8	-1E+10	1	-1E+10	1	-1E+10	1	-1E+10	1	-1E+10	1	-1E+10	1
4902554	27	C	10/31/2021	12:01	-136.496	49.297	0	285.20	0	4.7850	0	33.8390	0	26.781	0	282.578	0	-1e10	8	-1e10	8	-1E+10	1	-1E+10	1	-1E+10	1	-1E+10	1	-1E+10	1	-1E+10	1
4902554	27	C	10/31/2021	12:01	-136.496	49.297	0	286.20	0	4.7840	0	33.8390	0	26.782	0	283.568	0	-1e10	8	-1e10	8	-1E+10	1	-1E+10	1	-1E+10	1	-1E+10	1	-1E+10	1	-1E+10	1
4902554	27	C	10/31/2021	12:01	-136.496	49.297	0	287.20	0	4.7830	0	33.8390	0	26.782	0	284.558	0	-1e10	8	-1e10	8	-1E+10	1	-1E+10	1	-1E+10	1	-1E+10	1	-1E+10	1	-1E+10	1
4902554	27	C	10/31/2021	12:01	-136.496	49.297	0	288.20	0	4.7830	0	33.8390	0	26.782	0	285.548	0	-1e10	8	-1e10	8	-1E+10	1	-1E+10	1	-1E+10	1	-1E+10	1	-1E+10	1	-1E+10	1
4902554	27	C	10/31/2021	12:01	-136.496	49.297	0	289.20	0	4.7830	0	33.8390	0	26.782	0	286.539	0	-1e10	8	-1e10	8	-1E+10	1	-1E+10	1	-1E+10	1	-1E+10	1	-1E+10	1	-1E+10	1
4902554	27	C	10/31/2021	12:01	-136.496	49.297	0	290.20	0	4.7830	0	33.8390	0	26.782	0	287.529	0	-1e10	8	-1e10	8	-1E+10	1	-1E+10	1	-1E+10	1	-1E+10	1	-1E+10	1	-1E+10	1
4902554	27	C	10/31/2021	12:01	-136.496	49.297	0	291.20	0	4.7770	0	33.8400	0	26.783	0	288.519	0	-1e10	8	-1e10	8	-1E+10	1	-1E+10	1	-1E+10	1	-1E+10	1	-1E+10	1	-1E+10	1
4902554	27	C	10/31/2021	12:01	-136.496	49.297	0	292.20	0	4.7680	0	33.8410	0	26.785	0	289.509	0	-1e10	8	-1e10	8	-1E+10	1	-1E+10	1	-1E+10	1	-1E+10	1	-1E+10	1	-1E+10	1
4902554	27	C	10/31/2021	12:01	-136.496	49.297	0	293.20	0	4.7530	0	33.8430	0	26.788	0	290.499	0	-1e10	8	-1e10	8	-1E+10	1	-1E+10	1	-1E+10	1	-1E+10	1	-1E+10	1	-1E+10	1
4902554	27	C	10/31/2021	12:01	-136.496	49.297	0	294.20	0	4.7470	0	33.8450	0	26.791	0	291.489	0	-1e10	8	-1e10	8	-1E+10	1	-1E+10	1	-1E+10	1	-1E+10	1	-1E+10	1	-1E+10	1
4902554	27	C	10/31/2021	12:01	-136.496	49.297	0	295.20	0	4.7460	0	33.8460	0	26.791	0	292.479	0	-1e10	8	-1e10	8	-1E+10	1	-1E+10	1	-1E+10	1	-1E+10	1	-1E+10	1	-1E+10	1
4902554	27	C	10/31/2021	12:01	-136.496	49.297	0	296.20	0	4.7440	0	33.8460	0	26.792	0	293.469	0	-1e10	8	-1e10	8	-1E+10	1	-1E+10	1	-1E+10	1	-1E+10	1	-1E+10	1	-1E+10	1
4902554	27	C	10/31/2021	12:01	-136.496	49.297	0	297.20	0	4.7360	0	33.8480	0	26.794	0	294.459	0	-1e10	8	-1e10	8	-1E+10	1	-1E+10	1	-1E+10	1	-1E+10	1	-1E+10	1	-1E+10	1
4902554	27	C	10/31/2021	12:01	-136.496	49.297	0	298.20	0	4.7150	0	33.8500	0	26.798	0	295.449	0	-1e10	8	-1e10	8	-1E+10	1	-1E+10	1	-1E+10	1	-1E+10	1	-1E+10	1	-1E+10	1
4902554	27	C	10/31/2021	12:01	-136.496	49.297	0	299.20	0	4.7130	0	33.8510	0	26.799	0	296.439	0	-1e10	8	-1e10	8	-1E+10	1	-1E+10	1	-1E+10	1	-1E+10	1	-1E+10	1	-1E+10	1
4902554	27	C	10/31/2021	12:01	-136.496	49.297	0	300.10	0	4.7130	0	33.8520	0	26.800	0	297.330	0	-1e10	8	-1e10	8	-1E+10	1	-1E+10	1	-1E+10	1	-1E+10	1	-1E+10	1	-1E+10	1
4902554	27	C	10/31/2021	12:01	-136.496	49.297	0	301.00	0	4.7180	0	33.8540	0	26.801	0	298.221	0	-1e10	8	-1e10	8	-1E+10	1	-1E+10	1	-1E+10	1	-1E+10	1	-1E+10	1	-1E+10	1
4902554	27	C	10/31/2021	12:01	-136.496	49.297	0	301.80	0	4.7180	0	33.8550	0	26.802	0	299.013	0	-1e10	8	-1e10	8	-1E+10	1	-1E+10	1	-1E+10	1	-1E+10	1	-1E+10	1	-1E+10	1
4902554	27	C	10/31/2021	12:01	-136.496	49.297	0	302.90	0	4.7450	0	33.8560	0	26.800	0	300.103	0	-1e10	8	-1e10	8	-1E+10	1	-1E+10	1	-1E+10	1	-1E+10	1	-1E+10	1	-1E+10	1
4902554	27	C	10/31/2021	12:01	-136.496	49.297	0	304.00	0	4.7520	0	33.8660	0	26.807	0	301.192	0	-1e10	8	-1e10	8	-1E+10	1	-1E+10	1	-1E+10	1	-1E+10	1	-1E+10	1	-1E+10	1
4902554	27	C	10/31/2021	12:01	-136.496	49.297	0	304.70	0	4.7510	0	33.8670	0	26.808	0	301.885	0	-1e10	8	-1e10	8	-1E+10	1	-1E+10	1	-1E+10	1	-1E+10	1	-1E+10	1	-1E+10	1
4902554	27	C	10/31/2021	12:01	-136.496	49.297	0	305.80	0	4.7420	0	33.8680	0	26.809	0	302.974	0	-1e10	8	-1e10	8	-1E+10	1	-1E+10	1	-1E+10	1	-1E+10	1	-1E+10	1	-1E+10	1
4902554	27	C	10/31/2021	12:01	-136.496	49.297	0	307.00	0	4.7410	0	33.8680	0	26.810	0	304.162	0	-1e10	8	-1e10	8	-1E+10	1	-1E+10	1	-1E+10	1	-1E+10	1	-1E+10	1	-1E+10	1
4902554	27	C	10/31/2021	12:01	-136.496	49.297	0	307.80	0	4.7360	0	33.8690	0	26.811	0	304.954	0	-1e10	8	-1e10	8	-1E+10	1	-1E+10	1	-1E+10	1	-1E+10	1	-1E+10	1	-1E+10	1
4902554	27	C	10/31/2021	12:01	-136.496	49.297	0	308.90	0	4.7260	0	33.8690	0	26.812	0	306.043	0	-1e10	8	-1e10	8	-1E+10	1	-1E+10	1	-1E+10	1	-1E+10	1	-1E+10	1	-1E+10	1
4902554	27	C	10/31/2021	12:01	-136.496	49.297	0	310.10	0	4.6950	0	33.8680	0	26.815	0	307.231	0	-1e10	8	-1e10	8	-1E+10	1	-1E+10	1	-1E+10	1	-1E+10	1	-1E+10	1	-1E+10	1
4902554	27	C	10/31/2021	12:01	-136.496	49.297	0	310.80	0	4.6880	0	33.8660	0	26.814	0	307.924	0	-1e10	8	-1e10	8	-1E+10	1	-1E+10	1	-1E+10	1	-1E+10	1	-1E+10	1	-1E+10	1
4902554	27	C	10/31/2021	12:01	-136.496	49.297	0	312.00	0	4.6740	0	33.8680	0	26.817	0	309.112	0	-1e10	8	-1e10	8	-1E+10	1	-1E+10	1	-1E+10	1	-1E+10	1	-1E+10	1	-1E+10	1
4902554	27	C	10/31/2021	12:01	-136.496	49.297	0	313.20	0	4.6700	0	33.8670	0	26.817	0	310.300	0	-1e10	8	-1e10	8	-1E+10	1	-1E+10	1	-1E+10	1	-1E+10	1	-1E+10	1	-1E+10	1
4902554	27	C	10/31/2021	12:01	-136.496	49.297	0	314.00	0	4.6760	0	33.8690	0	26.818	0	311.092	0	-1e10	8	-1e10	8	-1E+10	1	-1E+10	1	-1E+10	1	-1E+10	1	-1E+10	1	-1E+10	1
4902554	27	C	10/31/2021	12:01	-136.496	49.297	0	314.80	0	4.6770	0	33.8710	0	26.819	0	311.884	0	-1e10	8	-1e10	8	-1E+10	1	-1E+10	1	-1E+10	1	-1E+10	1	-1E+10	1	-1E+10	1
4902554	27	C	10/31/2021	12:01	-136.496	49.297	0	316.00	0	4.6590	0	33.8720	0	26.822	0	313.072	0	-1e10	8	-1e10	8	-1E+10	1	-1E+10	1	-1E+10	1	-1E+10	1	-1E+10	1	-1E+10	1
4902554	27	C	10/31/2021	12:01	-136.496	49.297	0	317.20	0	4.6370	0	33.8700	0	26.823	0	314.260	0	-1e10	8	-1e10	8	-1E+10	1	-1E+10	1	-1E+10	1	-1E+10	1	-1E+10	1	-1E+10	1
4902554	27	C	10/31/2021	12:01	-136.496	49.297	0	318.00	0	4.6240	0	33.8690	0	26.823	0	315.052	0	-1e10	8	-1e10	8	-1E+10	1	-1E+10	1	-1E+10	1	-1E+10	1	-1E+10	1	-1E+10	1
4902554	27	C	10/31/2021	12:01	-136.496	49.297	0	318.80	0	4.6280	0	33.8710	0	26.824	0	315.844	0	-1e10	8	-1e10	8	-1E+10	1	-1E+10	1	-1E+10	1	-1E+10	1	-1E+10	1	-1E+10	1
4902554	27	C	10/31/2021	12:01	-136.496	49.297	0	320.00	0	4.6180	0	33.8700	0	26.825	0	317.032	0	-1e10	8	-1e10	8	-1E+10	1	-1E+10	1	-1E+10	1	-1E+10	1	-1E+10	1	-1E+10	1
4902554	27	C	10/31/2021	12:01	-136.496	49.297	0	321.30	0	4.6110	0	33.8710	0	26.826	0	318.318	0	-1e10	8	-1e10	8	-1E+10	1	-1E+10	1	-1E+10	1	-1E+10	1	-1E+10	1	-1E+10	1
4902554	27	C	10/31/2021	12:01	-136.496	49.297	0	322.10	0	4.6150	0	33.8710	0	26.826	0	319.110	0	-1e10	8	-1e10	8	-1E+10	1	-1E+10	1	-1E+10	1	-1E+10	1	-1E+10	1	-1E+10	1
4902554	27	C	10/31/2021	12:01	-136.496	49.297	0	322.90	0	4.6100	0	33.8740	0	26.829	0	319.902	0	-1e10	8	-1e10	8	-1E+10	1	-1E+10	1	-1E+10	1	-1E+10	1	-1E+10	1	-1E+10	1
4902554	27	C	10/31/2021	12:01	-136.496	49.297	0	323.80	0	4.6040	0	33.8740	0	26.829	0	320.793	0	-1e10	8	-1e10	8	-1E+10	1	-1E+10	1	-1E+10	1	-1E+10	1	-1E+10	1	-1E+10	1
4902554	27	C	10/31/2021	12:01	-136.496	49.297	0	325.00	0	4.6040	0	33.8760	0	26.831	0	321.981	0	-1e10	8	-1e10	8	-1E+10	1	-1E+10	1	-1E+10	1	-1E+10	1	-1E+10	1	-1E+10	1
4902554	27	C	10/31/2021	12:01	-136.496	49.297	0	326.30	0	4.6030	0	33.8770	0	26.832	0	323.268	0	-1e10	8	-1e10	8	-1E+10	1	-1E+10	1	-1E+10	1	-1E+10	1	-1E+10	1	-1E+10	1
4902554	27	C	10/31/2021	12:01	-136.496	49.297	0	327.10	0	4.6000	0	33.8770	0	26.832	0	324.060	0	-1e10	8	-1e10	8	-1E+10	1	-1E+10	1	-1E+10	1	-1E+10	1	-1E+10	1	-1E+10	1
4902554	27	C	10/31/2021	12:01	-136.496	49.297	0	327.90	0	4.5970	0	33.8790	0	26.834	0	324.852	0	-1e10	8	-1e10	8	-1E+10	1	-1E+10	1	-1E+10	1	-1E+10	1	-1E+10	1	-1E+10	1
4902554	27	C	10/31/2021	12:01	-136.496	49.297	0	328.80	0	4.6100	0	33.8810	0	26.834	0	325.743	0	-1e10	8	-1e10	8	-1E+10	1	-1E+10	1	-1E+10	1	-1E+10	1	-1E+10	1	-1E+10	1
4902554	27	C	10/31/2021	12:01	-136.496	49.297	0	329.70	0	4.6250	0	33.8860	0	26.837	0	326.634	0	-1e10	8	-1e10	8	-1E+10	1	-1E+10	1	-1E+10	1	-1E+10	1	-1E+10	1	-1E+10	1
4902554	27	C	10/31/2021	12:01	-136.496	49.297	0	330.90	0	4.6170	0	33.8870	0	26.838	0	327.822	0	-1e10	8	-1e10	8	-1E+10	1	-1E+10	1	-1E+10	1	-1E+10	1	-1E+10	1	-1E+10	1
4902554	27	C	10/31/2021	12:01	-136.496	49.297	0	332.20	0	4.6040	0	33.8870	0	26.840	0	329.109	0	-1e10	8	-1e10	8	-1E+10	1	-1E+10	1	-1E+10	1	-1E+10	1	-1E+10	1	-1E+10	1
4902554	27	C	10/31/2021	12:01	-136.496	49.297	0	333.00	0	4.6050	0	33.8880	0	26.841	0	329.901	0	-1e10	8	-1e10	8	-1E+10	1	-1E+10	1	-1E+10	1	-1E+10	1	-1E+10	1	-1E+10	1
4902554	27	C	10/31/2021	12:01	-136.496	49.297	0	333.90	0	4.6080	0	33.8940	0	26.845	0	330.791	0	-1e10	8	-1e10	8	-1E+10	1	-1E+10	1	-1E+10	1	-1E+10	1	-1E+10	1	-1E+10	1
4902554	27	C	10/31/2021	12:01	-136.496	49.297	0	334.80	0	4.6070	0	33.8960	0	26.847	0	331.682	0	-1e10	8	-1e10	8	-1E+10	1	-1E+10	1	-1E+10	1	-1E+10	1	-1E+10	1	-1E+10	1
4902554	27	C	10/31/2021	12:01	-136.496	49.297	0	335.60	0	4.6050	0	33.8950	0	26.846	0	332.474	0	-1e10	8	-1e10	8	-1E+10	1	-1E+10	1	-1E+10	1	-1E+10	1	-1E+10	1	-1E+10	1
4902554	27	C	10/31/2021	12:01	-136.496	49.297	0	336.90	0	4.6020	0	33.8960	0	26.847	0	333.761	0	-1e10	8	-1e10	8	-1E+10	1	-1E+10	1	-1E+10	1	-1E+10	1	-1E+10	1	-1E+10	1
4902554	27	C	10/31/2021	12:01	-136.496	49.297	0	338.30	0	4.6020	0	33.8970	0	26.848	0	335.147	0	-1e10	8	-1e10	8	-1E+10	1	-1E+10	1	-1E+10	1	-1E+10	1	-1E+10	1	-1E+10	1
4902554	27	C	10/31/2021	12:01	-136.496	49.297	0	339.10	0	4.6020	0	33.8970	0	26.848	0	335.939	0	-1e10	8	-1e10	8	-1E+10	1	-1E+10	1	-1E+10	1	-1E+10	1	-1E+10	1	-1E+10	1
4902554	27	C	10/31/2021	12:01	-136.496	49.297	0	340.00	0	4.6030	0	33.8980	0	26.849	0	336.830	0	-1e10	8	-1e10	8	-1E+10	1	-1E+10	1	-1E+10	1	-1E+10	1	-1E+10	1	-1E+10	1
4902554	27	C	10/31/2021	12:01	-136.496	49.297	0	340.80	0	4.6040	0	33.8990	0	26.849	0	337.622	0	-1e10	8	-1e10	8	-1E+10	1	-1E+10	1	-1E+10	1	-1E+10	1	-1E+10	1	-1E+10	1
4902554	27	C	10/31/2021	12:01	-136.496	49.297	0	341.70	0	4.6040	0	33.8990	0	26.849	0	338.513	0	-1e10	8	-1e10	8	-1E+10	1	-1E+10	1	-1E+10	1	-1E+10	1	-1E+10	1	-1E+10	1
4902554	27	C	10/31/2021	12:01	-136.496	49.297	0	343.00	0	4.5960	0	33.9030	0	26.853	0	339.799	0	-1e10	8	-1e10	8	-1E+10	1	-1E+10	1	-1E+10	1	-1E+10	1	-1E+10	1	-1E+10	1
4902554	27	C	10/31/2021	12:01	-136.496	49.297	0	344.30	0	4.5870	0	33.9080	0	26.858	0	341.086	0	-1e10	8	-1e10	8	-1E+10	1	-1E+10	1	-1E+10	1	-1E+10	1	-1E+10	1	-1E+10	1
4902554	27	C	10/31/2021	12:01	-136.496	49.297	0	345.20	0	4.5860	0	33.9090	0	26.859	0	341.977	0	-1e10	8	-1e10	8	-1E+10	1	-1E+10	1	-1E+10	1	-1E+10	1	-1E+10	1	-1E+10	1
4902554	27	C	10/31/2021	12:01	-136.496	49.297	0	346.00	0	4.5840	0	33.9100	0	26.860	0	342.769	0	-1e10	8	-1e10	8	-1E+10	1	-1E+10	1	-1E+10	1	-1E+10	1	-1E+10	1	-1E+10	1
4902554	27	C	10/31/2021	12:01	-136.496	49.297	0	346.90	0	4.5830	0	33.9100	0	26.860	0	343.660	0	-1e10	8	-1e10	8	-1E+10	1	-1E+10	1	-1E+10	1	-1E+10	1	-1E+10	1	-1E+10	1
4902554	27	C	10/31/2021	12:01	-136.496	49.297	0	347.80	0	4.5800	0	33.9110	0	26.862	0	344.551	0	-1e10	8	-1e10	8	-1E+10	1	-1E+10	1	-1E+10	1	-1E+10	1	-1E+10	1	-1E+10	1
4902554	27	C	10/31/2021	12:01	-136.496	49.297	0	348.70	0	4.5770	0	33.9120	0	26.863	0	345.441	0	-1e10	8	-1e10	8	-1E+10	1	-1E+10	1	-1E+10	1	-1E+10	1	-1E+10	1	-1E+10	1
4902554	27	C	10/31/2021	12:01	-136.496	49.297	0	349.60	0	4.5770	0	33.9130	0	26.864	0	346.332	0	-1e10	8	-1e10	8	-1E+10	1	-1E+10	1	-1E+10	1	-1E+10	1	-1E+10	1	-1E+10	1
4902554	27	C	10/31/2021	12:01	-136.496	49.297	0	352.70	0	4.5720	0	33.9170	0	26.867	0	349.401	0	-1e10	8	-1e10	8	-1E+10	1	-1E+10	1	-1E+10	1	-1E+10	1	-1E+10	1	-1E+10	1
4902554	27	C	10/31/2021	12:01	-136.496	49.297	0	357.70	0	4.5580	0	33.9200	0	26.871	0	354.350	0	-1e10	8	-1e10	8	-1E+10	1	-1E+10	1	-1E+10	1	-1E+10	1	-1E+10	1	-1E+10	1
4902554	27	C	10/31/2021	12:01	-136.496	49.297	0	362.90	0	4.5370	0	33.9260	0	26.878	0	359.496	0	-1e10	8	-1e10	8	-1E+10	1	-1E+10	1	-1E+10	1	-1E+10	1	-1E+10	1	-1E+10	1
4902554	27	C	10/31/2021	12:01	-136.496	49.297	0	368.00	0	4.5270	0	33.9310	0	26.883	0	364.544	0	-1e10	8	-1e10	8	-1E+10	1	-1E+10	1	-1E+10	1	-1E+10	1	-1E+10	1	-1E+10	1
4902554	27	C	10/31/2021	12:01	-136.496	49.297	0	372.70	0	4.5140	0	33.9360	0	26.889	0	369.196	0	-1e10	8	-1e10	8	-1E+10	1	-1E+10	1	-1E+10	1	-1E+10	1	-1E+10	1	-1E+10	1
4902554	27	C	10/31/2021	12:01	-136.496	49.297	0	377.90	0	4.5030	0	33.9400	0	26.893	0	374.342	0	-1e10	8	-1e10	8	-1E+10	1	-1E+10	1	-1E+10	1	-1E+10	1	-1E+10	1	-1E+10	1
4902554	27	C	10/31/2021	12:01	-136.496	49.297	0	383.20	0	4.4890	0	33.9460	0	26.900	0	379.587	0	-1e10	8	-1e10	8	-1E+10	1	-1E+10	1	-1E+10	1	-1E+10	1	-1E+10	1	-1E+10	1
4902554	27	C	10/31/2021	12:01	-136.496	49.297	0	388.20	0	4.4690	0	33.9540	0	26.908	0	384.536	0	-1e10	8	-1e10	8	-1E+10	1	-1E+10	1	-1E+10	1	-1E+10	1	-1E+10	1	-1E+10	1
4902554	27	C	10/31/2021	12:01	-136.496	49.297	0	393.10	0	4.4570	0	33.9590	0	26.913	0	389.385	0	-1e10	8	-1e10	8	-1E+10	1	-1E+10	1	-1E+10	1	-1E+10	1	-1E+10	1	-1E+10	1
4902554	27	C	10/31/2021	12:01	-136.496	49.297	0	398.10	0	4.4370	0	33.9670	0	26.922	0	394.333	0	-1e10	8	-1e10	8	-1E+10	1	-1E+10	1	-1E+10	1	-1E+10	1	-1E+10	1	-1E+10	1
4902554	27	C	10/31/2021	12:01	-136.496	49.297	0	403.20	0	4.4180	0	33.9770	0	26.932	0	399.380	0	-1e10	8	-1e10	8	-1E+10	1	-1E+10	1	-1E+10	1	-1E+10	1	-1E+10	1	-1E+10	1
4902554	27	C	10/31/2021	12:01	-136.496	49.297	0	407.90	0	4.4040	0	33.9850	0	26.940	0	404.031	0	-1e10	8	-1e10	8	-1E+10	1	-1E+10	1	-1E+10	1	-1E+10	1	-1E+10	1	-1E+10	1
4902554	27	C	10/31/2021	12:01	-136.496	49.297	0	412.50	0	4.3940	0	33.9900	0	26.945	0	408.582	0	-1e10	8	-1e10	8	-1E+10	1	-1E+10	1	-1E+10	1	-1E+10	1	-1E+10	1	-1E+10	1
4902554	27	C	10/31/2021	12:01	-136.496	49.297	0	417.80	0	4.3830	0	33.9940	0	26.949	0	413.827	0	-1e10	8	-1e10	8	-1E+10	1	-1E+10	1	-1E+10	1	-1E+10	1	-1E+10	1	-1E+10	1
4902554	27	C	10/31/2021	12:01	-136.496	49.297	0	423.10	0	4.3730	0	34.0000	0	26.955	0	419.071	0	-1e10	8	-1e10	8	-1E+10	1	-1E+10	1	-1E+10	1	-1E+10	1	-1E+10	1	-1E+10	1
4902554	27	C	10/31/2021	12:01	-136.496	49.297	0	427.80	0	4.3550	0	34.0090	0	26.964	0	423.721	0	-1e10	8	-1e10	8	-1E+10	1	-1E+10	1	-1E+10	1	-1E+10	1	-1E+10	1	-1E+10	1
4902554	27	C	10/31/2021	12:01	-136.496	49.297	0	432.50	0	4.3480	0	34.0120	0	26.967	0	428.372	0	-1e10	8	-1e10	8	-1E+10	1	-1E+10	1	-1E+10	1	-1E+10	1	-1E+10	1	-1E+10	1
4902554	27	C	10/31/2021	12:01	-136.496	49.297	0	437.80	0	4.3370	0	34.0190	0	26.974	0	433.616	0	-1e10	8	-1e10	8	-1E+10	1	-1E+10	1	-1E+10	1	-1E+10	1	-1E+10	1	-1E+10	1
4902554	27	C	10/31/2021	12:01	-136.496	49.297	0	443.20	0	4.3280	0	34.0230	0	26.978	0	438.958	0	-1e10	8	-1e10	8	-1E+10	1	-1E+10	1	-1E+10	1	-1E+10	1	-1E+10	1	-1E+10	1
4902554	27	C	10/31/2021	12:01	-136.496	49.297	0	448.00	0	4.3190	0	34.0270	0	26.982	0	443.707	0	-1e10	8	-1e10	8	-1E+10	1	-1E+10	1	-1E+10	1	-1E+10	1	-1E+10	1	-1E+10	1
4902554	27	C	10/31/2021	12:01	-136.496	49.297	0	452.70	0	4.3110	0	34.0310	0	26.987	0	448.357	0	-1e10	8	-1e10	8	-1E+10	1	-1E+10	1	-1E+10	1	-1E+10	1	-1E+10	1	-1E+10	1
4902554	27	C	10/31/2021	12:01	-136.496	49.297	0	458.00	0	4.2980	0	34.0370	0	26.993	0	453.601	0	-1e10	8	-1e10	8	-1E+10	1	-1E+10	1	-1E+10	1	-1E+10	1	-1E+10	1	-1E+10	1
4902554	27	C	10/31/2021	12:01	-136.496	49.297	0	463.30	0	4.2870	0	34.0410	0	26.997	0	458.844	0	-1e10	8	-1e10	8	-1E+10	1	-1E+10	1	-1E+10	1	-1E+10	1	-1E+10	1	-1E+10	1
4902554	27	C	10/31/2021	12:01	-136.496	49.297	0	468.00	0	4.2800	0	34.0460	0	27.002	0	463.493	0	-1e10	8	-1e10	8	-1E+10	1	-1E+10	1	-1E+10	1	-1E+10	1	-1E+10	1	-1E+10	1
4902554	27	C	10/31/2021	12:01	-136.496	49.297	0	472.70	0	4.2670	0	34.0500	0	27.006	0	468.143	0	-1e10	8	-1e10	8	-1E+10	1	-1E+10	1	-1E+10	1	-1E+10	1	-1E+10	1	-1E+10	1
4902554	27	C	10/31/2021	12:01	-136.496	49.297	0	478.00	0	4.2600	0	34.0520	0	27.009	0	473.386	0	-1e10	8	-1e10	8	-1E+10	1	-1E+10	1	-1E+10	1	-1E+10	1	-1E+10	1	-1E+10	1
4902554	27	C	10/31/2021	12:01	-136.496	49.297	0	483.20	0	4.2360	0	34.0570	0	27.015	0	478.529	0	-1e10	8	-1e10	8	-1E+10	1	-1E+10	1	-1E+10	1	-1E+10	1	-1E+10	1	-1E+10	1
4902554	27	C	10/31/2021	12:01	-136.496	49.297	0	488.00	0	4.2350	0	34.0640	0	27.021	0	483.277	0	-1e10	8	-1e10	8	-1E+10	1	-1E+10	1	-1E+10	1	-1E+10	1	-1E+10	1	-1E+10	1
4902554	27	C	10/31/2021	12:01	-136.496	49.297	0	492.70	0	4.1970	0	34.0630	0	27.024	0	487.926	0	-1e10	8	-1e10	8	-1E+10	1	-1E+10	1	-1E+10	1	-1E+10	1	-1E+10	1	-1E+10	1
4902554	27	C	10/31/2021	12:01	-136.496	49.297	0	497.80	0	4.1710	0	34.0670	0	27.030	0	492.971	0	-1e10	8	-1e10	8	-1E+10	1	-1E+10	1	-1E+10	1	-1E+10	1	-1E+10	1	-1E+10	1
4902554	27	C	10/31/2021	12:01	-136.496	49.297	0	502.90	0	4.1690	0	34.0740	0	27.036	0	498.015	0	-1e10	8	-1e10	8	-1E+10	1	-1E+10	1	-1E+10	1	-1E+10	1	-1E+10	1	-1E+10	1
4902554	27	C	10/31/2021	12:01	-136.496	49.297	0	508.10	0	4.1750	0	34.0790	0	27.039	0	503.159	0	-1e10	8	-1e10	8	-1E+10	1	-1E+10	1	-1E+10	1	-1E+10	1	-1E+10	1	-1E+10	1
4902554	27	C	10/31/2021	12:01	-136.496	49.297	0	512.90	0	4.1830	0	34.0840	0	27.043	0	507.906	0	-1e10	8	-1e10	8	-1E+10	1	-1E+10	1	-1E+10	1	-1E+10	1	-1E+10	1	-1E+10	1
4902554	27	C	10/31/2021	12:01	-136.496	49.297	0	517.70	0	4.1840	0	34.0900	0	27.047	0	512.653	0	-1e10	8	-1e10	8	-1E+10	1	-1E+10	1	-1E+10	1	-1E+10	1	-1E+10	1	-1E+10	1
4902554	27	C	10/31/2021	12:01	-136.496	49.297	0	522.60	0	4.1820	0	34.0930	0	27.050	0	517.500	0	-1e10	8	-1e10	8	-1E+10	1	-1E+10	1	-1E+10	1	-1E+10	1	-1E+10	1	-1E+10	1
4902554	27	C	10/31/2021	12:01	-136.496	49.297	0	527.60	0	4.1700	0	34.0980	0	27.055	0	522.444	0	-1e10	8	-1e10	8	-1E+10	1	-1E+10	1	-1E+10	1	-1E+10	1	-1E+10	1	-1E+10	1
4902554	27	C	10/31/2021	12:01	-136.496	49.297	0	532.60	0	4.1510	0	34.1030	0	27.061	0	527.389	0	-1e10	8	-1e10	8	-1E+10	1	-1E+10	1	-1E+10	1	-1E+10	1	-1E+10	1	-1E+10	1
4902554	27	C	10/31/2021	12:01	-136.496	49.297	0	537.60	0	4.1290	0	34.1060	0	27.066	0	532.334	0	-1e10	8	-1e10	8	-1E+10	1	-1E+10	1	-1E+10	1	-1E+10	1	-1E+10	1	-1E+10	1
4902554	27	C	10/31/2021	12:01	-136.496	49.297	0	542.50	0	4.1190	0	34.1100	0	27.070	0	537.180	0	-1e10	8	-1e10	8	-1E+10	1	-1E+10	1	-1E+10	1	-1E+10	1	-1E+10	1	-1E+10	1
4902554	27	C	10/31/2021	12:01	-136.496	49.297	0	547.60	0	4.1040	0	34.1110	0	27.072	0	542.223	0	-1e10	8	-1e10	8	-1E+10	1	-1E+10	1	-1E+10	1	-1E+10	1	-1E+10	1	-1E+10	1
4902554	27	C	10/31/2021	12:01	-136.496	49.297	0	552.70	0	4.0980	0	34.1130	0	27.075	0	547.266	0	-1e10	8	-1e10	8	-1E+10	1	-1E+10	1	-1E+10	1	-1E+10	1	-1E+10	1	-1E+10	1
4902554	27	C	10/31/2021	12:01	-136.496	49.297	0	557.80	0	4.0840	0	34.1180	0	27.080	0	552.309	0	-1e10	8	-1e10	8	-1E+10	1	-1E+10	1	-1E+10	1	-1E+10	1	-1E+10	1	-1E+10	1
4902554	27	C	10/31/2021	12:01	-136.496	49.297	0	563.00	0	4.0720	0	34.1210	0	27.084	0	557.451	0	-1e10	8	-1e10	8	-1E+10	1	-1E+10	1	-1E+10	1	-1E+10	1	-1E+10	1	-1E+10	1
4902554	27	C	10/31/2021	12:01	-136.496	49.297	0	568.20	0	4.0500	0	34.1230	0	27.088	0	562.593	0	-1e10	8	-1e10	8	-1E+10	1	-1E+10	1	-1E+10	1	-1E+10	1	-1E+10	1	-1E+10	1
4902554	27	C	10/31/2021	12:01	-136.496	49.297	0	573.10	0	4.0430	0	34.1280	0	27.092	0	567.438	0	-1e10	8	-1e10	8	-1E+10	1	-1E+10	1	-1E+10	1	-1E+10	1	-1E+10	1	-1E+10	1
4902554	27	C	10/31/2021	12:01	-136.496	49.297	0	578.00	0	4.0240	0	34.1320	0	27.098	0	572.283	0	-1e10	8	-1e10	8	-1E+10	1	-1E+10	1	-1E+10	1	-1E+10	1	-1E+10	1	-1E+10	1
4902554	27	C	10/31/2021	12:01	-136.496	49.297	0	583.00	0	4.0070	0	34.1350	0	27.102	0	577.226	0	-1e10	8	-1e10	8	-1E+10	1	-1E+10	1	-1E+10	1	-1E+10	1	-1E+10	1	-1E+10	1
4902554	27	C	10/31/2021	12:01	-136.496	49.297	0	588.10	0	3.9800	0	34.1430	0	27.111	0	582.269	0	-1e10	8	-1e10	8	-1E+10	1	-1E+10	1	-1E+10	1	-1E+10	1	-1E+10	1	-1E+10	1
4902554	27	C	10/31/2021	12:01	-136.496	49.297	0	593.20	0	3.9650	0	34.1470	0	27.116	0	587.311	0	-1e10	8	-1e10	8	-1E+10	1	-1E+10	1	-1E+10	1	-1E+10	1	-1E+10	1	-1E+10	1
4902554	27	C	10/31/2021	12:01	-136.496	49.297	0	597.90	0	3.9510	0	34.1510	0	27.120	0	591.958	0	-1e10	8	-1e10	8	-1E+10	1	-1E+10	1	-1E+10	1	-1E+10	1	-1E+10	1	-1E+10	1
4902554	27	C	10/31/2021	12:01	-136.496	49.297	0	602.60	0	3.9430	0	34.1530	0	27.123	0	596.604	0	-1e10	8	-1e10	8	-1E+10	1	-1E+10	1	-1E+10	1	-1E+10	1	-1E+10	1	-1E+10	1
4902554	27	C	10/31/2021	12:01	-136.496	49.297	0	607.90	0	3.9340	0	34.1560	0	27.126	0	601.844	0	-1e10	8	-1e10	8	-1E+10	1	-1E+10	1	-1E+10	1	-1E+10	1	-1E+10	1	-1E+10	1
4902554	27	C	10/31/2021	12:01	-136.496	49.297	0	613.10	0	3.9170	0	34.1620	0	27.133	0	606.984	0	-1e10	8	-1e10	8	-1E+10	1	-1E+10	1	-1E+10	1	-1E+10	1	-1E+10	1	-1E+10	1
4902554	27	C	10/31/2021	12:01	-136.496	49.297	0	617.90	0	3.9060	0	34.1660	0	27.137	0	611.729	0	-1e10	8	-1e10	8	-1E+10	1	-1E+10	1	-1E+10	1	-1E+10	1	-1E+10	1	-1E+10	1
4902554	27	C	10/31/2021	12:01	-136.496	49.297	0	622.70	0	3.8960	0	34.1700	0	27.141	0	616.474	0	-1e10	8	-1e10	8	-1E+10	1	-1E+10	1	-1E+10	1	-1E+10	1	-1E+10	1	-1E+10	1
4902554	27	C	10/31/2021	12:01	-136.496	49.297	0	627.70	0	3.8810	0	34.1740	0	27.146	0	621.417	0	-1e10	8	-1e10	8	-1E+10	1	-1E+10	1	-1E+10	1	-1E+10	1	-1E+10	1	-1E+10	1
4902554	27	C	10/31/2021	12:01	-136.496	49.297	0	632.60	0	3.8680	0	34.1770	0	27.150	0	626.260	0	-1e10	8	-1e10	8	-1E+10	1	-1E+10	1	-1E+10	1	-1E+10	1	-1E+10	1	-1E+10	1
4902554	27	C	10/31/2021	12:01	-136.496	49.297	0	637.60	0	3.8570	0	34.1810	0	27.154	0	631.203	0	-1e10	8	-1e10	8	-1E+10	1	-1E+10	1	-1E+10	1	-1E+10	1	-1E+10	1	-1E+10	1
4902554	27	C	10/31/2021	12:01	-136.496	49.297	0	642.60	0	3.8500	0	34.1830	0	27.156	0	636.145	0	-1e10	8	-1e10	8	-1E+10	1	-1E+10	1	-1E+10	1	-1E+10	1	-1E+10	1	-1E+10	1
4902554	27	C	10/31/2021	12:01	-136.496	49.297	0	647.70	0	3.8380	0	34.1870	0	27.161	0	641.186	0	-1e10	8	-1e10	8	-1E+10	1	-1E+10	1	-1E+10	1	-1E+10	1	-1E+10	1	-1E+10	1
4902554	27	C	10/31/2021	12:01	-136.496	49.297	0	652.70	0	3.8270	0	34.1890	0	27.163	0	646.128	0	-1e10	8	-1e10	8	-1E+10	1	-1E+10	1	-1E+10	1	-1E+10	1	-1E+10	1	-1E+10	1
4902554	27	C	10/31/2021	12:01	-136.496	49.297	0	657.80	0	3.8110	0	34.1930	0	27.168	0	651.169	0	-1e10	8	-1e10	8	-1E+10	1	-1E+10	1	-1E+10	1	-1E+10	1	-1E+10	1	-1E+10	1
4902554	27	C	10/31/2021	12:01	-136.496	49.297	0	662.90	0	3.7940	0	34.1980	0	27.174	0	656.209	0	-1e10	8	-1e10	8	-1E+10	1	-1E+10	1	-1E+10	1	-1E+10	1	-1E+10	1	-1E+10	1
4902554	27	C	10/31/2021	12:01	-136.496	49.297	0	667.90	0	3.7890	0	34.2000	0	27.176	0	661.151	0	-1e10	8	-1e10	8	-1E+10	1	-1E+10	1	-1E+10	1	-1E+10	1	-1E+10	1	-1E+10	1
4902554	27	C	10/31/2021	12:01	-136.496	49.297	0	673.00	0	3.7820	0	34.2020	0	27.178	0	666.191	0	-1e10	8	-1e10	8	-1E+10	1	-1E+10	1	-1E+10	1	-1E+10	1	-1E+10	1	-1E+10	1
4902554	27	C	10/31/2021	12:01	-136.496	49.297	0	678.00	0	3.7710	0	34.2040	0	27.181	0	671.132	0	-1e10	8	-1e10	8	-1E+10	1	-1E+10	1	-1E+10	1	-1E+10	1	-1E+10	1	-1E+10	1
4902554	27	C	10/31/2021	12:01	-136.496	49.297	0	682.80	0	3.7480	0	34.2090	0	27.187	0	675.876	0	-1e10	8	-1e10	8	-1E+10	1	-1E+10	1	-1E+10	1	-1E+10	1	-1E+10	1	-1E+10	1
4902554	27	C	10/31/2021	12:01	-136.496	49.297	0	687.60	0	3.7390	0	34.2110	0	27.190	0	680.620	0	-1e10	8	-1e10	8	-1E+10	1	-1E+10	1	-1E+10	1	-1E+10	1	-1E+10	1	-1E+10	1
4902554	27	C	10/31/2021	12:01	-136.496	49.297	0	692.90	0	3.7260	0	34.2140	0	27.194	0	685.857	0	-1e10	8	-1e10	8	-1E+10	1	-1E+10	1	-1E+10	1	-1E+10	1	-1E+10	1	-1E+10	1
4902554	27	C	10/31/2021	12:01	-136.496	49.297	0	698.20	0	3.7040	0	34.2190	0	27.200	0	691.094	0	-1e10	8	-1e10	8	-1E+10	1	-1E+10	1	-1E+10	1	-1E+10	1	-1E+10	1	-1E+10	1
4902554	27	C	10/31/2021	12:01	-136.496	49.297	0	703.20	0	3.6980	0	34.2210	0	27.202	0	696.035	0	-1e10	8	-1e10	8	-1E+10	1	-1E+10	1	-1E+10	1	-1E+10	1	-1E+10	1	-1E+10	1
4902554	27	C	10/31/2021	12:01	-136.496	49.297	0	708.20	0	3.6880	0	34.2230	0	27.205	0	700.976	0	-1e10	8	-1e10	8	-1E+10	1	-1E+10	1	-1E+10	1	-1E+10	1	-1E+10	1	-1E+10	1
4902554	27	C	10/31/2021	12:01	-136.496	49.297	0	712.90	0	3.6790	0	34.2250	0	27.207	0	705.620	0	-1e10	8	-1e10	8	-1E+10	1	-1E+10	1	-1E+10	1	-1E+10	1	-1E+10	1	-1E+10	1
4902554	27	C	10/31/2021	12:01	-136.496	49.297	0	717.70	0	3.6670	0	34.2280	0	27.211	0	710.363	0	-1e10	8	-1e10	8	-1E+10	1	-1E+10	1	-1E+10	1	-1E+10	1	-1E+10	1	-1E+10	1
4902554	27	C	10/31/2021	12:01	-136.496	49.297	0	722.90	0	3.6560	0	34.2310	0	27.214	0	715.501	0	-1e10	8	-1e10	8	-1E+10	1	-1E+10	1	-1E+10	1	-1E+10	1	-1E+10	1	-1E+10	1
4902554	27	C	10/31/2021	12:01	-136.496	49.297	0	728.20	0	3.6330	0	34.2360	0	27.220	0	720.737	0	-1e10	8	-1e10	8	-1E+10	1	-1E+10	1	-1E+10	1	-1E+10	1	-1E+10	1	-1E+10	1
4902554	27	C	10/31/2021	12:01	-136.496	49.297	0	733.00	0	3.6140	0	34.2400	0	27.226	0	725.480	0	-1e10	8	-1e10	8	-1E+10	1	-1E+10	1	-1E+10	1	-1E+10	1	-1E+10	1	-1E+10	1
4902554	27	C	10/31/2021	12:01	-136.496	49.297	0	737.80	0	3.5990	0	34.2430	0	27.229	0	730.222	0	-1e10	8	-1e10	8	-1E+10	1	-1E+10	1	-1E+10	1	-1E+10	1	-1E+10	1	-1E+10	1
4902554	27	C	10/31/2021	12:01	-136.496	49.297	0	743.10	0	3.5830	0	34.2460	0	27.233	0	735.458	0	-1e10	8	-1e10	8	-1E+10	1	-1E+10	1	-1E+10	1	-1E+10	1	-1E+10	1	-1E+10	1
4902554	27	C	10/31/2021	12:01	-136.496	49.297	0	748.20	0	3.5740	0	34.2490	0	27.237	0	740.497	0	-1e10	8	-1e10	8	-1E+10	1	-1E+10	1	-1E+10	1	-1E+10	1	-1E+10	1	-1E+10	1
4902554	27	C	10/31/2021	12:01	-136.496	49.297	0	752.70	0	3.5640	0	34.2520	0	27.240	0	744.942	0	-1e10	8	-1e10	8	-1E+10	1	-1E+10	1	-1E+10	1	-1E+10	1	-1E+10	1	-1E+10	1
4902554	27	C	10/31/2021	12:01	-136.496	49.297	0	757.70	0	3.5490	0	34.2560	0	27.245	0	749.882	0	-1e10	8	-1e10	8	-1E+10	1	-1E+10	1	-1E+10	1	-1E+10	1	-1E+10	1	-1E+10	1
4902554	27	C	10/31/2021	12:01	-136.496	49.297	0	762.80	0	3.5390	0	34.2590	0	27.248	0	754.920	0	-1e10	8	-1e10	8	-1E+10	1	-1E+10	1	-1E+10	1	-1E+10	1	-1E+10	1	-1E+10	1
4902554	27	C	10/31/2021	12:01	-136.496	49.297	0	767.90	0	3.5340	0	34.2600	0	27.249	0	759.958	0	-1e10	8	-1e10	8	-1E+10	1	-1E+10	1	-1E+10	1	-1E+10	1	-1E+10	1	-1E+10	1
4902554	27	C	10/31/2021	12:01	-136.496	49.297	0	773.00	0	3.5210	0	34.2630	0	27.253	0	764.996	0	-1e10	8	-1e10	8	-1E+10	1	-1E+10	1	-1E+10	1	-1E+10	1	-1E+10	1	-1E+10	1
4902554	27	C	10/31/2021	12:01	-136.496	49.297	0	777.70	0	3.5050	0	34.2670	0	27.258	0	769.639	0	-1e10	8	-1e10	8	-1E+10	1	-1E+10	1	-1E+10	1	-1E+10	1	-1E+10	1	-1E+10	1
4902554	27	C	10/31/2021	12:01	-136.496	49.297	0	783.00	0	3.4940	0	34.2690	0	27.261	0	774.874	0	-1e10	8	-1e10	8	-1E+10	1	-1E+10	1	-1E+10	1	-1E+10	1	-1E+10	1	-1E+10	1
4902554	27	C	10/31/2021	12:01	-136.496	49.297	0	788.20	0	3.4820	0	34.2710	0	27.263	0	780.010	0	-1e10	8	-1e10	8	-1E+10	1	-1E+10	1	-1E+10	1	-1E+10	1	-1E+10	1	-1E+10	1
4902554	27	C	10/31/2021	12:01	-136.496	49.297	0	793.00	0	3.4710	0	34.2730	0	27.266	0	784.751	0	-1e10	8	-1e10	8	-1E+10	1	-1E+10	1	-1E+10	1	-1E+10	1	-1E+10	1	-1E+10	1
4902554	27	C	10/31/2021	12:01	-136.496	49.297	0	797.90	0	3.4560	0	34.2770	0	27.271	0	789.591	0	-1e10	8	-1e10	8	-1E+10	1	-1E+10	1	-1E+10	1	-1E+10	1	-1E+10	1	-1E+10	1
4902554	27	C	10/31/2021	12:01	-136.496	49.297	0	802.90	0	3.4450	0	34.2800	0	27.274	0	794.530	0	-1e10	8	-1e10	8	-1E+10	1	-1E+10	1	-1E+10	1	-1E+10	1	-1E+10	1	-1E+10	1
4902554	27	C	10/31/2021	12:01	-136.496	49.297	0	807.90	0	3.4350	0	34.2830	0	27.278	0	799.468	0	-1e10	8	-1e10	8	-1E+10	1	-1E+10	1	-1E+10	1	-1E+10	1	-1E+10	1	-1E+10	1
4902554	27	C	10/31/2021	12:01	-136.496	49.297	0	812.90	0	3.4250	0	34.2850	0	27.280	0	804.406	0	-1e10	8	-1e10	8	-1E+10	1	-1E+10	1	-1E+10	1	-1E+10	1	-1E+10	1	-1E+10	1
4902554	27	C	10/31/2021	12:01	-136.496	49.297	0	818.00	0	3.4180	0	34.2870	0	27.282	0	809.443	0	-1e10	8	-1e10	8	-1E+10	1	-1E+10	1	-1E+10	1	-1E+10	1	-1E+10	1	-1E+10	1
4902554	27	C	10/31/2021	12:01	-136.496	49.297	0	823.10	0	3.4110	0	34.2880	0	27.284	0	814.480	0	-1e10	8	-1e10	8	-1E+10	1	-1E+10	1	-1E+10	1	-1E+10	1	-1E+10	1	-1E+10	1
4902554	27	C	10/31/2021	12:01	-136.496	49.297	0	828.30	0	3.4010	0	34.2900	0	27.286	0	819.615	0	-1e10	8	-1e10	8	-1E+10	1	-1E+10	1	-1E+10	1	-1E+10	1	-1E+10	1	-1E+10	1
4902554	27	C	10/31/2021	12:01	-136.496	49.297	0	832.90	0	3.3900	0	34.2920	0	27.289	0	824.158	0	-1e10	8	-1e10	8	-1E+10	1	-1E+10	1	-1E+10	1	-1E+10	1	-1E+10	1	-1E+10	1
4902554	27	C	10/31/2021	12:01	-136.496	49.297	0	837.60	0	3.3790	0	34.2950	0	27.293	0	828.799	0	-1e10	8	-1e10	8	-1E+10	1	-1E+10	1	-1E+10	1	-1E+10	1	-1E+10	1	-1E+10	1
4902554	27	C	10/31/2021	12:01	-136.496	49.297	0	842.80	0	3.3640	0	34.2970	0	27.296	0	833.934	0	-1e10	8	-1e10	8	-1E+10	1	-1E+10	1	-1E+10	1	-1E+10	1	-1E+10	1	-1E+10	1
4902554	27	C	10/31/2021	12:01	-136.496	49.297	0	847.90	0	3.3540	0	34.3000	0	27.299	0	838.970	0	-1e10	8	-1e10	8	-1E+10	1	-1E+10	1	-1E+10	1	-1E+10	1	-1E+10	1	-1E+10	1
4902554	27	C	10/31/2021	12:01	-136.496	49.297	0	853.00	0	3.3430	0	34.3030	0	27.302	0	844.006	0	-1e10	8	-1e10	8	-1E+10	1	-1E+10	1	-1E+10	1	-1E+10	1	-1E+10	1	-1E+10	1
4902554	27	C	10/31/2021	12:01	-136.496	49.297	0	858.20	0	3.3240	0	34.3070	0	27.307	0	849.141	0	-1e10	8	-1e10	8	-1E+10	1	-1E+10	1	-1E+10	1	-1E+10	1	-1E+10	1	-1E+10	1
4902554	27	C	10/31/2021	12:01	-136.496	49.297	0	863.00	0	3.3160	0	34.3080	0	27.309	0	853.880	0	-1e10	8	-1e10	8	-1E+10	1	-1E+10	1	-1E+10	1	-1E+10	1	-1E+10	1	-1E+10	1
4902554	27	C	10/31/2021	12:01	-136.496	49.297	0	867.70	0	3.3130	0	34.3090	0	27.310	0	858.521	0	-1e10	8	-1e10	8	-1E+10	1	-1E+10	1	-1E+10	1	-1E+10	1	-1E+10	1	-1E+10	1
4902554	27	C	10/31/2021	12:01	-136.496	49.297	0	873.00	0	3.3000	0	34.3110	0	27.313	0	863.754	0	-1e10	8	-1e10	8	-1E+10	1	-1E+10	1	-1E+10	1	-1E+10	1	-1E+10	1	-1E+10	1
4902554	27	C	10/31/2021	12:01	-136.496	49.297	0	877.80	0	3.2820	0	34.3140	0	27.317	0	868.493	0	-1e10	8	-1e10	8	-1E+10	1	-1E+10	1	-1E+10	1	-1E+10	1	-1E+10	1	-1E+10	1
4902554	27	C	10/31/2021	12:01	-136.496	49.297	0	882.80	0	3.2700	0	34.3160	0	27.320	0	873.430	0	-1e10	8	-1e10	8	-1E+10	1	-1E+10	1	-1E+10	1	-1E+10	1	-1E+10	1	-1E+10	1
4902554	27	C	10/31/2021	12:01	-136.496	49.297	0	887.80	0	3.2620	0	34.3180	0	27.322	0	878.366	0	-1e10	8	-1e10	8	-1E+10	1	-1E+10	1	-1E+10	1	-1E+10	1	-1E+10	1	-1E+10	1
4902554	27	C	10/31/2021	12:01	-136.496	49.297	0	892.70	0	3.2540	0	34.3200	0	27.325	0	883.204	0	-1e10	8	-1e10	8	-1E+10	1	-1E+10	1	-1E+10	1	-1E+10	1	-1E+10	1	-1E+10	1
4902554	27	C	10/31/2021	12:01	-136.496	49.297	0	897.70	0	3.2490	0	34.3210	0	27.326	0	888.140	0	-1e10	8	-1e10	8	-1E+10	1	-1E+10	1	-1E+10	1	-1E+10	1	-1E+10	1	-1E+10	1
4902554	27	C	10/31/2021	12:01	-136.496	49.297	0	902.70	0	3.2330	0	34.3240	0	27.330	0	893.076	0	-1e10	8	-1e10	8	-1E+10	1	-1E+10	1	-1E+10	1	-1E+10	1	-1E+10	1	-1E+10	1
4902554	27	C	10/31/2021	12:01	-136.496	49.297	0	907.80	0	3.2240	0	34.3260	0	27.332	0	898.111	0	-1e10	8	-1e10	8	-1E+10	1	-1E+10	1	-1E+10	1	-1E+10	1	-1E+10	1	-1E+10	1
4902554	27	C	10/31/2021	12:01	-136.496	49.297	0	912.90	0	3.2150	0	34.3280	0	27.335	0	903.145	0	-1e10	8	-1e10	8	-1E+10	1	-1E+10	1	-1E+10	1	-1E+10	1	-1E+10	1	-1E+10	1
4902554	27	C	10/31/2021	12:01	-136.496	49.297	0	918.10	0	3.2090	0	34.3290	0	27.336	0	908.278	0	-1e10	8	-1e10	8	-1E+10	1	-1E+10	1	-1E+10	1	-1E+10	1	-1E+10	1	-1E+10	1
4902554	27	C	10/31/2021	12:01	-136.496	49.297	0	922.90	0	3.1970	0	34.3320	0	27.340	0	913.017	0	-1e10	8	-1e10	8	-1E+10	1	-1E+10	1	-1E+10	1	-1E+10	1	-1E+10	1	-1E+10	1
4902554	27	C	10/31/2021	12:01	-136.496	49.297	0	927.60	0	3.1800	0	34.3360	0	27.344	0	917.656	0	-1e10	8	-1e10	8	-1E+10	1	-1E+10	1	-1E+10	1	-1E+10	1	-1E+10	1	-1E+10	1
4902554	27	C	10/31/2021	12:01	-136.496	49.297	0	932.90	0	3.1730	0	34.3370	0	27.346	0	922.888	0	-1e10	8	-1e10	8	-1E+10	1	-1E+10	1	-1E+10	1	-1E+10	1	-1E+10	1	-1E+10	1
4902554	27	C	10/31/2021	12:01	-136.496	49.297	0	938.10	0	3.1640	0	34.3390	0	27.348	0	928.020	0	-1e10	8	-1e10	8	-1E+10	1	-1E+10	1	-1E+10	1	-1E+10	1	-1E+10	1	-1E+10	1
4902554	27	C	10/31/2021	12:01	-136.496	49.297	0	942.90	0	3.1530	0	34.3410	0	27.351	0	932.758	0	-1e10	8	-1e10	8	-1E+10	1	-1E+10	1	-1E+10	1	-1E+10	1	-1E+10	1	-1E+10	1
4902554	27	C	10/31/2021	12:01	-136.496	49.297	0	947.80	0	3.1420	0	34.3430	0	27.354	0	937.594	0	-1e10	8	-1e10	8	-1E+10	1	-1E+10	1	-1E+10	1	-1E+10	1	-1E+10	1	-1E+10	1
4902554	27	C	10/31/2021	12:01	-136.496	49.297	0	952.80	0	3.1290	0	34.3460	0	27.357	0	942.529	0	-1e10	8	-1e10	8	-1E+10	1	-1E+10	1	-1E+10	1	-1E+10	1	-1E+10	1	-1E+10	1
4902554	27	C	10/31/2021	12:01	-136.496	49.297	0	957.90	0	3.1200	0	34.3480	0	27.360	0	947.563	0	-1e10	8	-1e10	8	-1E+10	1	-1E+10	1	-1E+10	1	-1E+10	1	-1E+10	1	-1E+10	1
4902554	27	C	10/31/2021	12:01	-136.496	49.297	0	962.90	0	3.1130	0	34.3500	0	27.362	0	952.497	0	-1e10	8	-1e10	8	-1E+10	1	-1E+10	1	-1E+10	1	-1E+10	1	-1E+10	1	-1E+10	1
4902554	27	C	10/31/2021	12:01	-136.496	49.297	0	968.00	0	3.1000	0	34.3530	0	27.366	0	957.531	0	-1e10	8	-1e10	8	-1E+10	1	-1E+10	1	-1E+10	1	-1E+10	1	-1E+10	1	-1E+10	1
4902554	27	C	10/31/2021	12:01	-136.496	49.297	0	973.30	0	3.0890	0	34.3550	0	27.368	0	962.761	0	-1e10	8	-1e10	8	-1E+10	1	-1E+10	1	-1E+10	1	-1E+10	1	-1E+10	1	-1E+10	1
4902554	27	C	10/31/2021	12:01	-136.496	49.297	0	978.00	0	3.0840	0	34.3560	0	27.369	0	967.399	0	-1e10	8	-1e10	8	-1E+10	1	-1E+10	1	-1E+10	1	-1E+10	1	-1E+10	1	-1E+10	1
4902554	27	C	10/31/2021	12:01	-136.496	49.297	0	982.80	0	3.0750	0	34.3580	0	27.372	0	972.136	0	-1e10	8	-1e10	8	-1E+10	1	-1E+10	1	-1E+10	1	-1E+10	1	-1E+10	1	-1E+10	1
4902554	27	C	10/31/2021	12:01	-136.496	49.297	0	987.70	0	3.0680	0	34.3590	0	27.373	0	976.972	0	-1e10	8	-1e10	8	-1E+10	1	-1E+10	1	-1E+10	1	-1E+10	1	-1E+10	1	-1E+10	1
4902554	27	C	10/31/2021	12:01	-136.496	49.297	0	992.80	0	3.0590	0	34.3610	0	27.376	0	982.004	0	-1e10	8	-1e10	8	-1E+10	1	-1E+10	1	-1E+10	1	-1E+10	1	-1E+10	1	-1E+10	1
4902554	27	C	10/31/2021	12:01	-136.496	49.297	0	997.90	0	3.0470	0	34.3630	0	27.379	0	987.037	0	-1e10	8	-1e10	8	-1E+10	1	-1E+10	1	-1E+10	1	-1E+10	1	-1E+10	1	-1E+10	1
4902554	27	C	10/31/2021	12:01	-136.496	49.297	0	1005.40	0	3.0370	0	34.3650	0	27.381	0	994.437	0	-1e10	8	-1e10	8	-1E+10	1	-1E+10	1	-1E+10	1	-1E+10	1	-1E+10	1	-1E+10	1
4902554	27	C	10/31/2021	12:01	-136.496	49.297	0	1015.20	0	3.0220	0	34.3690	0	27.386	0	1004.107	0	-1e10	8	-1e10	8	-1E+10	1	-1E+10	1	-1E+10	1	-1E+10	1	-1E+10	1	-1E+10	1
4902554	27	C	10/31/2021	12:01	-136.496	49.297	0	1025.60	0	3.0020	0	34.3720	0	27.390	0	1014.368	0	-1e10	8	-1e10	8	-1E+10	1	-1E+10	1	-1E+10	1	-1E+10	1	-1E+10	1	-1E+10	1
4902554	27	C	10/31/2021	12:01	-136.496	49.297	0	1035.40	0	2.9860	0	34.3750	0	27.394	0	1024.037	0	-1e10	8	-1e10	8	-1E+10	1	-1E+10	1	-1E+10	1	-1E+10	1	-1E+10	1	-1E+10	1
4902554	27	C	10/31/2021	12:01	-136.496	49.297	0	1045.40	0	2.9660	0	34.3790	0	27.399	0	1033.903	0	-1e10	8	-1e10	8	-1E+10	1	-1E+10	1	-1E+10	1	-1E+10	1	-1E+10	1	-1E+10	1
4902554	27	C	10/31/2021	12:01	-136.496	49.297	0	1055.20	0	2.9530	0	34.3820	0	27.403	0	1043.570	0	-1e10	8	-1e10	8	-1E+10	1	-1E+10	1	-1E+10	1	-1E+10	1	-1E+10	1	-1E+10	1
4902554	27	C	10/31/2021	12:01	-136.496	49.297	0	1065.10	0	2.9330	0	34.3850	0	27.407	0	1053.336	0	-1e10	8	-1e10	8	-1E+10	1	-1E+10	1	-1E+10	1	-1E+10	1	-1E+10	1	-1E+10	1
4902554	27	C	10/31/2021	12:01	-136.496	49.297	0	1075.30	0	2.9100	0	34.3890	0	27.412	0	1063.398	0	-1e10	8	-1e10	8	-1E+10	1	-1E+10	1	-1E+10	1	-1E+10	1	-1E+10	1	-1E+10	1
4902554	27	C	10/31/2021	12:01	-136.496	49.297	0	1085.60	0	2.8940	0	34.3930	0	27.417	0	1073.558	0	-1e10	8	-1e10	8	-1E+10	1	-1E+10	1	-1E+10	1	-1E+10	1	-1E+10	1	-1E+10	1
4902554	27	C	10/31/2021	12:01	-136.496	49.297	0	1095.60	0	2.8810	0	34.3950	0	27.420	0	1083.421	0	-1e10	8	-1e10	8	-1E+10	1	-1E+10	1	-1E+10	1	-1E+10	1	-1E+10	1	-1E+10	1
4902554	27	C	10/31/2021	12:01	-136.496	49.297	0	1105.50	0	2.8610	0	34.3990	0	27.425	0	1093.185	0	-1e10	8	-1e10	8	-1E+10	1	-1E+10	1	-1E+10	1	-1E+10	1	-1E+10	1	-1E+10	1
4902554	27	C	10/31/2021	12:01	-136.496	49.297	0	1115.50	0	2.8460	0	34.4020	0	27.428	0	1103.047	0	-1e10	8	-1e10	8	-1E+10	1	-1E+10	1	-1E+10	1	-1E+10	1	-1E+10	1	-1E+10	1
4902554	27	C	10/31/2021	12:01	-136.496	49.297	0	1125.30	0	2.8280	0	34.4050	0	27.432	0	1112.712	0	-1e10	8	-1e10	8	-1E+10	1	-1E+10	1	-1E+10	1	-1E+10	1	-1E+10	1	-1E+10	1
4902554	27	C	10/31/2021	12:01	-136.496	49.297	0	1135.50	0	2.8160	0	34.4080	0	27.436	0	1122.771	0	-1e10	8	-1e10	8	-1E+10	1	-1E+10	1	-1E+10	1	-1E+10	1	-1E+10	1	-1E+10	1
4902554	27	C	10/31/2021	12:01	-136.496	49.297	0	1145.70	0	2.8040	0	34.4120	0	27.440	0	1132.829	0	-1e10	8	-1e10	8	-1E+10	1	-1E+10	1	-1E+10	1	-1E+10	1	-1E+10	1	-1E+10	1
4902554	27	C	10/31/2021	12:01	-136.496	49.297	0	1155.50	0	2.7850	0	34.4160	0	27.445	0	1142.492	0	-1e10	8	-1e10	8	-1E+10	1	-1E+10	1	-1E+10	1	-1E+10	1	-1E+10	1	-1E+10	1
4902554	27	C	10/31/2021	12:01	-136.496	49.297	0	1165.40	0	2.7690	0	34.4200	0	27.450	0	1152.254	0	-1e10	8	-1e10	8	-1E+10	1	-1E+10	1	-1E+10	1	-1E+10	1	-1E+10	1	-1E+10	1
4902554	27	C	10/31/2021	12:01	-136.496	49.297	0	1175.40	0	2.7470	0	34.4230	0	27.454	0	1162.113	0	-1e10	8	-1e10	8	-1E+10	1	-1E+10	1	-1E+10	1	-1E+10	1	-1E+10	1	-1E+10	1
4902554	27	C	10/31/2021	12:01	-136.496	49.297	0	1185.40	0	2.7300	0	34.4250	0	27.457	0	1171.972	0	-1e10	8	-1e10	8	-1E+10	1	-1E+10	1	-1E+10	1	-1E+10	1	-1E+10	1	-1E+10	1
4902554	27	C	10/31/2021	12:01	-136.496	49.297	0	1195.50	0	2.7190	0	34.4290	0	27.461	0	1181.930	0	-1e10	8	-1e10	8	-1E+10	1	-1E+10	1	-1E+10	1	-1E+10	1	-1E+10	1	-1E+10	1
4902554	27	C	10/31/2021	12:01	-136.496	49.297	0	1205.30	0	2.7090	0	34.4330	0	27.466	0	1191.591	0	-1e10	8	-1e10	8	-1E+10	1	-1E+10	1	-1E+10	1	-1E+10	1	-1E+10	1	-1E+10	1
4902554	27	C	10/31/2021	12:01	-136.496	49.297	0	1215.30	0	2.6970	0	34.4350	0	27.468	0	1201.448	0	-1e10	8	-1e10	8	-1E+10	1	-1E+10	1	-1E+10	1	-1E+10	1	-1E+10	1	-1E+10	1
4902554	27	C	10/31/2021	12:01	-136.496	49.297	0	1225.50	0	2.6870	0	34.4380	0	27.472	0	1211.503	0	-1e10	8	-1e10	8	-1E+10	1	-1E+10	1	-1E+10	1	-1E+10	1	-1E+10	1	-1E+10	1
4902554	27	C	10/31/2021	12:01	-136.496	49.297	0	1235.40	0	2.6750	0	34.4400	0	27.474	0	1221.261	0	-1e10	8	-1e10	8	-1E+10	1	-1E+10	1	-1E+10	1	-1E+10	1	-1E+10	1	-1E+10	1
4902554	27	C	10/31/2021	12:01	-136.496	49.297	0	1245.50	0	2.6610	0	34.4420	0	27.477	0	1231.216	0	-1e10	8	-1e10	8	-1E+10	1	-1E+10	1	-1E+10	1	-1E+10	1	-1E+10	1	-1E+10	1
4902554	27	C	10/31/2021	12:01	-136.496	49.297	0	1255.40	0	2.6520	0	34.4440	0	27.480	0	1240.973	0	-1e10	8	-1e10	8	-1E+10	1	-1E+10	1	-1E+10	1	-1E+10	1	-1E+10	1	-1E+10	1
4902554	27	C	10/31/2021	12:01	-136.496	49.297	0	1265.50	0	2.6350	0	34.4460	0	27.483	0	1250.927	0	-1e10	8	-1e10	8	-1E+10	1	-1E+10	1	-1E+10	1	-1E+10	1	-1E+10	1	-1E+10	1
4902554	27	C	10/31/2021	12:01	-136.496	49.297	0	1275.30	0	2.6230	0	34.4490	0	27.486	0	1260.585	0	-1e10	8	-1e10	8	-1E+10	1	-1E+10	1	-1E+10	1	-1E+10	1	-1E+10	1	-1E+10	1
4902554	27	C	10/31/2021	12:01	-136.496	49.297	0	1285.30	0	2.6100	0	34.4510	0	27.489	0	1270.439	0	-1e10	8	-1e10	8	-1E+10	1	-1E+10	1	-1E+10	1	-1E+10	1	-1E+10	1	-1E+10	1
4902554	27	C	10/31/2021	12:01	-136.496	49.297	0	1295.50	0	2.5980	0	34.4530	0	27.492	0	1280.490	0	-1e10	8	-1e10	8	-1E+10	1	-1E+10	1	-1E+10	1	-1E+10	1	-1E+10	1	-1E+10	1
4902554	27	C	10/31/2021	12:01	-136.496	49.297	0	1305.60	0	2.5870	0	34.4560	0	27.495	0	1290.442	0	-1e10	8	-1e10	8	-1E+10	1	-1E+10	1	-1E+10	1	-1E+10	1	-1E+10	1	-1E+10	1
4902554	27	C	10/31/2021	12:01	-136.496	49.297	0	1315.60	0	2.5780	0	34.4570	0	27.497	0	1300.295	0	-1e10	8	-1e10	8	-1E+10	1	-1E+10	1	-1E+10	1	-1E+10	1	-1E+10	1	-1E+10	1
4902554	27	C	10/31/2021	12:01	-136.496	49.297	0	1325.30	0	2.5670	0	34.4600	0	27.500	0	1309.852	0	-1e10	8	-1e10	8	-1E+10	1	-1E+10	1	-1E+10	1	-1E+10	1	-1E+10	1	-1E+10	1
4902554	27	C	10/31/2021	12:01	-136.496	49.297	0	1335.20	0	2.5550	0	34.4620	0	27.503	0	1319.606	0	-1e10	8	-1e10	8	-1E+10	1	-1E+10	1	-1E+10	1	-1E+10	1	-1E+10	1	-1E+10	1
4902554	27	C	10/31/2021	12:01	-136.496	49.297	0	1345.60	0	2.5410	0	34.4640	0	27.506	0	1329.852	0	-1e10	8	-1e10	8	-1E+10	1	-1E+10	1	-1E+10	1	-1E+10	1	-1E+10	1	-1E+10	1
4902554	27	C	10/31/2021	12:01	-136.496	49.297	0	1355.50	0	2.5320	0	34.4650	0	27.507	0	1339.604	0	-1e10	8	-1e10	8	-1E+10	1	-1E+10	1	-1E+10	1	-1E+10	1	-1E+10	1	-1E+10	1
4902554	27	C	10/31/2021	12:01	-136.496	49.297	0	1365.40	0	2.5200	0	34.4670	0	27.510	0	1349.357	0	-1e10	8	-1e10	8	-1E+10	1	-1E+10	1	-1E+10	1	-1E+10	1	-1E+10	1	-1E+10	1
4902554	27	C	10/31/2021	12:01	-136.496	49.297	0	1375.70	0	2.5080	0	34.4690	0	27.512	0	1359.502	0	-1e10	8	-1e10	8	-1E+10	1	-1E+10	1	-1E+10	1	-1E+10	1	-1E+10	1	-1E+10	1
4902554	27	C	10/31/2021	12:01	-136.496	49.297	0	1385.60	0	2.4970	0	34.4710	0	27.515	0	1369.254	0	-1e10	8	-1e10	8	-1E+10	1	-1E+10	1	-1E+10	1	-1E+10	1	-1E+10	1	-1E+10	1
4902554	27	C	10/31/2021	12:01	-136.496	49.297	0	1395.40	0	2.4850	0	34.4740	0	27.518	0	1378.906	0	-1e10	8	-1e10	8	-1E+10	1	-1E+10	1	-1E+10	1	-1E+10	1	-1E+10	1	-1E+10	1
4902554	27	C	10/31/2021	12:01	-136.496	49.297	0	1405.40	0	2.4720	0	34.4770	0	27.522	0	1388.755	0	-1e10	8	-1e10	8	-1E+10	1	-1E+10	1	-1E+10	1	-1E+10	1	-1E+10	1	-1E+10	1
4902554	27	C	10/31/2021	12:01	-136.496	49.297	0	1415.30	0	2.4600	0	34.4800	0	27.525	0	1398.505	0	-1e10	8	-1e10	8	-1E+10	1	-1E+10	1	-1E+10	1	-1E+10	1	-1E+10	1	-1E+10	1
4902554	27	C	10/31/2021	12:01	-136.496	49.297	0	1425.40	0	2.4460	0	34.4820	0	27.528	0	1408.452	0	-1e10	8	-1e10	8	-1E+10	1	-1E+10	1	-1E+10	1	-1E+10	1	-1E+10	1	-1E+10	1
4902554	27	C	10/31/2021	12:01	-136.496	49.297	0	1435.40	0	2.4320	0	34.4840	0	27.531	0	1418.299	0	-1e10	8	-1e10	8	-1E+10	1	-1E+10	1	-1E+10	1	-1E+10	1	-1E+10	1	-1E+10	1
4902554	27	C	10/31/2021	12:01	-136.496	49.297	0	1445.40	0	2.4180	0	34.4870	0	27.535	0	1428.146	0	-1e10	8	-1e10	8	-1E+10	1	-1E+10	1	-1E+10	1	-1E+10	1	-1E+10	1	-1E+10	1
4902554	27	C	10/31/2021	12:01	-136.496	49.297	0	1455.50	0	2.4040	0	34.4900	0	27.538	0	1438.091	0	-1e10	8	-1e10	8	-1E+10	1	-1E+10	1	-1E+10	1	-1E+10	1	-1E+10	1	-1E+10	1
4902554	27	C	10/31/2021	12:01	-136.496	49.297	0	1465.60	0	2.3920	0	34.4930	0	27.542	0	1448.036	0	-1e10	8	-1e10	8	-1E+10	1	-1E+10	1	-1E+10	1	-1E+10	1	-1E+10	1	-1E+10	1
4902554	27	C	10/31/2021	12:01	-136.496	49.297	0	1475.20	0	2.3820	0	34.4940	0	27.543	0	1457.488	0	-1e10	8	-1e10	8	-1E+10	1	-1E+10	1	-1E+10	1	-1E+10	1	-1E+10	1	-1E+10	1
4902554	27	C	10/31/2021	12:01	-136.496	49.297	0	1485.30	0	2.3680	0	34.4970	0	27.547	0	1467.431	0	-1e10	8	-1e10	8	-1E+10	1	-1E+10	1	-1E+10	1	-1E+10	1	-1E+10	1	-1E+10	1
4902554	27	C	10/31/2021	12:01	-136.496	49.297	0	1495.80	0	2.3500	0	34.5000	0	27.551	0	1477.768	0	-1e10	8	-1e10	8	-1E+10	1	-1E+10	1	-1E+10	1	-1E+10	1	-1E+10	1	-1E+10	1
4902554	27	C	10/31/2021	12:01	-136.496	49.297	0	1505.40	0	2.3420	0	34.5020	0	27.553	0	1487.219	0	-1e10	8	-1e10	8	-1E+10	1	-1E+10	1	-1E+10	1	-1E+10	1	-1E+10	1	-1E+10	1
4902554	27	C	10/31/2021	12:01	-136.496	49.297	0	1515.40	0	2.3290	0	34.5040	0	27.556	0	1497.063	0	-1e10	8	-1e10	8	-1E+10	1	-1E+10	1	-1E+10	1	-1E+10	1	-1E+10	1	-1E+10	1
4902554	27	C	10/31/2021	12:01	-136.496	49.297	0	1525.30	0	2.3180	0	34.5070	0	27.559	0	1506.808	0	-1e10	8	-1e10	8	-1E+10	1	-1E+10	1	-1E+10	1	-1E+10	1	-1E+10	1	-1E+10	1
4902554	27	C	10/31/2021	12:01	-136.496	49.297	0	1535.40	0	2.3080	0	34.5080	0	27.561	0	1516.749	0	-1e10	8	-1e10	8	-1E+10	1	-1E+10	1	-1E+10	1	-1E+10	1	-1E+10	1	-1E+10	1
4902554	27	C	10/31/2021	12:01	-136.496	49.297	0	1545.30	0	2.2970	0	34.5100	0	27.564	0	1526.493	0	-1e10	8	-1e10	8	-1E+10	1	-1E+10	1	-1E+10	1	-1E+10	1	-1E+10	1	-1E+10	1
4902554	27	C	10/31/2021	12:01	-136.496	49.297	0	1555.20	0	2.2900	0	34.5120	0	27.566	0	1536.237	0	-1e10	8	-1e10	8	-1E+10	1	-1E+10	1	-1E+10	1	-1E+10	1	-1E+10	1	-1E+10	1
4902554	27	C	10/31/2021	12:01	-136.496	49.297	0	1565.20	0	2.2820	0	34.5140	0	27.568	0	1546.078	0	-1e10	8	-1e10	8	-1E+10	1	-1E+10	1	-1E+10	1	-1E+10	1	-1E+10	1	-1E+10	1
4902554	27	C	10/31/2021	12:01	-136.496	49.297	0	1575.50	0	2.2700	0	34.5170	0	27.572	0	1556.214	0	-1e10	8	-1e10	8	-1E+10	1	-1E+10	1	-1E+10	1	-1E+10	1	-1E+10	1	-1E+10	1
4902554	27	C	10/31/2021	12:01	-136.496	49.297	0	1585.70	0	2.2580	0	34.5190	0	27.574	0	1566.252	0	-1e10	8	-1e10	8	-1E+10	1	-1E+10	1	-1E+10	1	-1E+10	1	-1E+10	1	-1E+10	1
4902554	27	C	10/31/2021	12:01	-136.496	49.297	0	1595.70	0	2.2500	0	34.5210	0	27.577	0	1576.092	0	-1e10	8	-1e10	8	-1E+10	1	-1E+10	1	-1E+10	1	-1E+10	1	-1E+10	1	-1E+10	1
4902554	27	C	10/31/2021	12:01	-136.496	49.297	0	1605.40	0	2.2430	0	34.5220	0	27.578	0	1585.637	0	-1e10	8	-1e10	8	-1E+10	1	-1E+10	1	-1E+10	1	-1E+10	1	-1E+10	1	-1E+10	1
4902554	27	C	10/31/2021	12:01	-136.496	49.297	0	1615.00	0	2.2350	0	34.5240	0	27.580	0	1595.082	0	-1e10	8	-1e10	8	-1E+10	1	-1E+10	1	-1E+10	1	-1E+10	1	-1E+10	1	-1E+10	1
4902554	27	C	10/31/2021	12:01	-136.496	49.297	0	1625.30	0	2.2280	0	34.5260	0	27.582	0	1605.216	0	-1e10	8	-1e10	8	-1E+10	1	-1E+10	1	-1E+10	1	-1E+10	1	-1E+10	1	-1E+10	1
4902554	27	C	10/31/2021	12:01	-136.496	49.297	0	1635.50	0	2.2210	0	34.5270	0	27.584	0	1615.251	0	-1e10	8	-1e10	8	-1E+10	1	-1E+10	1	-1E+10	1	-1E+10	1	-1E+10	1	-1E+10	1
4902554	27	C	10/31/2021	12:01	-136.496	49.297	0	1645.40	0	2.2110	0	34.5290	0	27.586	0	1624.991	0	-1e10	8	-1e10	8	-1E+10	1	-1E+10	1	-1E+10	1	-1E+10	1	-1E+10	1	-1E+10	1
4902554	27	C	10/31/2021	12:01	-136.496	49.297	0	1655.30	0	2.2050	0	34.5300	0	27.588	0	1634.730	0	-1e10	8	-1e10	8	-1E+10	1	-1E+10	1	-1E+10	1	-1E+10	1	-1E+10	1	-1E+10	1
4902554	27	C	10/31/2021	12:01	-136.496	49.297	0	1665.30	0	2.1940	0	34.5320	0	27.590	0	1644.567	0	-1e10	8	-1e10	8	-1E+10	1	-1E+10	1	-1E+10	1	-1E+10	1	-1E+10	1	-1E+10	1
4902554	27	C	10/31/2021	12:01	-136.496	49.297	0	1675.30	0	2.1860	0	34.5340	0	27.592	0	1654.403	0	-1e10	8	-1e10	8	-1E+10	1	-1E+10	1	-1E+10	1	-1E+10	1	-1E+10	1	-1E+10	1
4902554	27	C	10/31/2021	12:01	-136.496	49.297	0	1685.30	0	2.1800	0	34.5350	0	27.594	0	1664.239	0	-1e10	8	-1e10	8	-1E+10	1	-1E+10	1	-1E+10	1	-1E+10	1	-1E+10	1	-1E+10	1
4902554	27	C	10/31/2021	12:01	-136.496	49.297	0	1695.30	0	2.1700	0	34.5370	0	27.596	0	1674.075	0	-1e10	8	-1e10	8	-1E+10	1	-1E+10	1	-1E+10	1	-1E+10	1	-1E+10	1	-1E+10	1
4902554	27	C	10/31/2021	12:01	-136.496	49.297	0	1705.40	0	2.1610	0	34.5390	0	27.599	0	1684.008	0	-1e10	8	-1e10	8	-1E+10	1	-1E+10	1	-1E+10	1	-1E+10	1	-1E+10	1	-1E+10	1
4902554	27	C	10/31/2021	12:01	-136.496	49.297	0	1715.20	0	2.1510	0	34.5410	0	27.601	0	1693.646	0	-1e10	8	-1e10	8	-1E+10	1	-1E+10	1	-1E+10	1	-1E+10	1	-1E+10	1	-1E+10	1
4902554	27	C	10/31/2021	12:01	-136.496	49.297	0	1725.10	0	2.1400	0	34.5430	0	27.604	0	1703.382	0	-1e10	8	-1e10	8	-1E+10	1	-1E+10	1	-1E+10	1	-1E+10	1	-1E+10	1	-1E+10	1
4902554	27	C	10/31/2021	12:01	-136.496	49.297	0	1735.10	0	2.1340	0	34.5440	0	27.605	0	1713.216	0	-1e10	8	-1e10	8	-1E+10	1	-1E+10	1	-1E+10	1	-1E+10	1	-1E+10	1	-1E+10	1
4902554	27	C	10/31/2021	12:01	-136.496	49.297	0	1745.10	0	2.1220	0	34.5470	0	27.608	0	1723.049	0	-1e10	8	-1e10	8	-1E+10	1	-1E+10	1	-1E+10	1	-1E+10	1	-1E+10	1	-1E+10	1
4902554	27	C	10/31/2021	12:01	-136.496	49.297	0	1755.20	0	2.1140	0	34.5490	0	27.611	0	1732.980	0	-1e10	8	-1e10	8	-1E+10	1	-1E+10	1	-1E+10	1	-1E+10	1	-1E+10	1	-1E+10	1
4902554	27	C	10/31/2021	12:01	-136.496	49.297	0	1765.40	0	2.1030	0	34.5510	0	27.613	0	1743.009	0	-1e10	8	-1e10	8	-1E+10	1	-1E+10	1	-1E+10	1	-1E+10	1	-1E+10	1	-1E+10	1
4902554	27	C	10/31/2021	12:01	-136.496	49.297	0	1775.60	0	2.0940	0	34.5530	0	27.616	0	1753.038	0	-1e10	8	-1e10	8	-1E+10	1	-1E+10	1	-1E+10	1	-1E+10	1	-1E+10	1	-1E+10	1
4902554	27	C	10/31/2021	12:01	-136.496	49.297	0	1785.70	0	2.0830	0	34.5550	0	27.618	0	1762.968	0	-1e10	8	-1e10	8	-1E+10	1	-1E+10	1	-1E+10	1	-1E+10	1	-1E+10	1	-1E+10	1
4902554	27	C	10/31/2021	12:01	-136.496	49.297	0	1795.60	0	2.0770	0	34.5570	0	27.620	0	1772.700	0	-1e10	8	-1e10	8	-1E+10	1	-1E+10	1	-1E+10	1	-1E+10	1	-1E+10	1	-1E+10	1
4902554	27	C	10/31/2021	12:01	-136.496	49.297	0	1805.50	0	2.0690	0	34.5590	0	27.622	0	1782.433	0	-1e10	8	-1e10	8	-1E+10	1	-1E+10	1	-1E+10	1	-1E+10	1	-1E+10	1	-1E+10	1
4902554	27	C	10/31/2021	12:01	-136.496	49.297	0	1815.30	0	2.0610	0	34.5610	0	27.625	0	1792.066	0	-1e10	8	-1e10	8	-1E+10	1	-1E+10	1	-1E+10	1	-1E+10	1	-1E+10	1	-1E+10	1
4902554	27	C	10/31/2021	12:01	-136.496	49.297	0	1825.20	0	2.0510	0	34.5620	0	27.626	0	1801.797	0	-1e10	8	-1e10	8	-1E+10	1	-1E+10	1	-1E+10	1	-1E+10	1	-1E+10	1	-1E+10	1
4902554	27	C	10/31/2021	12:01	-136.496	49.297	0	1835.30	0	2.0440	0	34.5630	0	27.628	0	1811.725	0	-1e10	8	-1e10	8	-1E+10	1	-1E+10	1	-1E+10	1	-1E+10	1	-1E+10	1	-1E+10	1
4902554	27	C	10/31/2021	12:01	-136.496	49.297	0	1845.30	0	2.0340	0	34.5660	0	27.631	0	1821.554	0	-1e10	8	-1e10	8	-1E+10	1	-1E+10	1	-1E+10	1	-1E+10	1	-1E+10	1	-1E+10	1
4902554	27	C	10/31/2021	12:01	-136.496	49.297	0	1855.40	0	2.0260	0	34.5670	0	27.633	0	1831.480	0	-1e10	8	-1e10	8	-1E+10	1	-1E+10	1	-1E+10	1	-1E+10	1	-1E+10	1	-1E+10	1
4902554	27	C	10/31/2021	12:01	-136.496	49.297	0	1865.20	0	2.0200	0	34.5690	0	27.635	0	1841.111	0	-1e10	8	-1e10	8	-1E+10	1	-1E+10	1	-1E+10	1	-1E+10	1	-1E+10	1	-1E+10	1
4902554	27	C	10/31/2021	12:01	-136.496	49.297	0	1875.30	0	2.0120	0	34.5700	0	27.636	0	1851.037	0	-1e10	8	-1e10	8	-1E+10	1	-1E+10	1	-1E+10	1	-1E+10	1	-1E+10	1	-1E+10	1
4902554	27	C	10/31/2021	12:01	-136.496	49.297	0	1885.20	0	2.0050	0	34.5720	0	27.638	0	1860.766	0	-1e10	8	-1e10	8	-1E+10	1	-1E+10	1	-1E+10	1	-1E+10	1	-1E+10	1	-1E+10	1
4902554	27	C	10/31/2021	12:01	-136.496	49.297	0	1895.40	0	1.9970	0	34.5740	0	27.641	0	1870.789	0	-1e10	8	-1e10	8	-1E+10	1	-1E+10	1	-1E+10	1	-1E+10	1	-1E+10	1	-1E+10	1
4902554	27	C	10/31/2021	12:01	-136.496	49.297	0	1905.50	0	1.9890	0	34.5760	0	27.643	0	1880.713	0	-1e10	8	-1e10	8	-1E+10	1	-1E+10	1	-1E+10	1	-1E+10	1	-1E+10	1	-1E+10	1
4902554	27	C	10/31/2021	12:01	-136.496	49.297	0	1915.40	0	1.9830	0	34.5770	0	27.644	0	1890.440	0	-1e10	8	-1e10	8	-1E+10	1	-1E+10	1	-1E+10	1	-1E+10	1	-1E+10	1	-1E+10	1
4902554	27	C	10/31/2021	12:01	-136.496	49.297	0	1925.60	0	1.9780	0	34.5780	0	27.645	0	1900.462	0	-1e10	8	-1e10	8	-1E+10	1	-1E+10	1	-1E+10	1	-1E+10	1	-1E+10	1	-1E+10	1
4902554	27	C	10/31/2021	12:01	-136.496	49.297	0	1935.50	0	1.9700	0	34.5790	0	27.647	0	1910.188	0	-1e10	8	-1e10	8	-1E+10	1	-1E+10	1	-1E+10	1	-1E+10	1	-1E+10	1	-1E+10	1
4902554	27	C	10/31/2021	12:01	-136.496	49.297	0	1945.30	0	1.9620	0	34.5800	0	27.648	0	1919.816	0	-1e10	8	-1e10	8	-1E+10	1	-1E+10	1	-1E+10	1	-1E+10	1	-1E+10	1	-1E+10	1
4902554	27	C	10/31/2021	12:01	-136.496	49.297	0	1955.30	0	1.9580	0	34.5820	0	27.650	0	1929.640	0	-1e10	8	-1e10	8	-1E+10	1	-1E+10	1	-1E+10	1	-1E+10	1	-1E+10	1	-1E+10	1
4902554	27	C	10/31/2021	12:01	-136.496	49.297	0	1965.40	0	1.9520	0	34.5820	0	27.651	0	1939.561	0	-1e10	8	-1e10	8	-1E+10	1	-1E+10	1	-1E+10	1	-1E+10	1	-1E+10	1	-1E+10	1
4902554	27	C	10/31/2021	12:01	-136.496	49.297	0	1975.30	0	1.9480	0	34.5830	0	27.652	0	1949.286	0	-1e10	8	-1e10	8	-1E+10	1	-1E+10	1	-1E+10	1	-1E+10	1	-1E+10	1	-1E+10	1
4902554	27	C	10/31/2021	12:01	-136.496	49.297	0	1985.60	0	1.9400	0	34.5850	0	27.654	0	1959.403	0	-1e10	8	-1e10	8	-1E+10	1	-1E+10	1	-1E+10	1	-1E+10	1	-1E+10	1	-1E+10	1
4902554	27	C	10/31/2021	12:01	-136.496	49.297	0	1993.00	0	1.9370	0	34.5860	0	27.655	0	1966.671	0	-1e10	8	-1e10	8	-1E+10	1	-1E+10	1	-1E+10	1	-1E+10	1	-1E+10	1	-1E+10	1
4902554	27	C	10/31/2021	12:01	-136.496	49.297	0																										
4902554	28	C	11/10/2021	17:00	-136.387	49.302	0	0.20	0	9.3880	0	32.2950	0	24.940	0	0.198	0	-1e10	8	-1e10	8	-1E+10	1	-1E+10	1	-1E+10	1	-1E+10	1	-1E+10	1	-1E+10	1
4902554	28	C	11/10/2021	17:00	-136.387	49.302	0	0.80	0	9.3880	0	32.2940	0	24.939	0	0.793	0	-1e10	8	-1e10	8	-1E+10	1	-1E+10	1	-1E+10	1	-1E+10	1	-1E+10	1	-1E+10	1
4902554	28	C	11/10/2021	17:00	-136.387	49.302	0	1.90	0	9.3880	0	32.2950	0	24.940	0	1.884	0	-1e10	8	-1e10	8	-1E+10	1	-1E+10	1	-1E+10	1	-1E+10	1	-1E+10	1	-1E+10	1
4902554	28	C	11/10/2021	17:00	-136.387	49.302	0	3.00	0	9.3890	0	32.2950	0	24.940	0	2.974	0	-1e10	8	-1e10	8	-1E+10	1	-1E+10	1	-1E+10	1	-1E+10	1	-1E+10	1	-1E+10	1
4902554	28	C	11/10/2021	17:00	-136.387	49.302	0	3.90	0	9.3890	0	32.2970	0	24.942	0	3.867	0	-1e10	8	-1e10	8	-1E+10	1	-1E+10	1	-1E+10	1	-1E+10	1	-1E+10	1	-1E+10	1
4902554	28	C	11/10/2021	17:00	-136.387	49.302	0	4.80	0	9.3890	0	32.2970	0	24.942	0	4.759	0	-1e10	8	-1e10	8	-1E+10	1	-1E+10	1	-1E+10	1	-1E+10	1	-1E+10	1	-1E+10	1
4902554	28	C	11/10/2021	17:00	-136.387	49.302	0	6.10	0	9.3890	0	32.2960	0	24.941	0	6.048	0	-1e10	8	-1e10	8	-1E+10	1	-1E+10	1	-1E+10	1	-1E+10	1	-1E+10	1	-1E+10	1
4902554	28	C	11/10/2021	17:00	-136.387	49.302	0	7.10	0	9.3890	0	32.2970	0	24.942	0	7.039	0	-1e10	8	-1e10	8	-1E+10	1	-1E+10	1	-1E+10	1	-1E+10	1	-1E+10	1	-1E+10	1
4902554	28	C	11/10/2021	17:00	-136.387	49.302	0	8.00	0	9.3890	0	32.2960	0	24.941	0	7.932	0	-1e10	8	-1e10	8	-1E+10	1	-1E+10	1	-1E+10	1	-1E+10	1	-1E+10	1	-1E+10	1
4902554	28	C	11/10/2021	17:00	-136.387	49.302	0	9.00	0	9.3890	0	32.2970	0	24.942	0	8.923	0	-1e10	8	-1e10	8	-1E+10	1	-1E+10	1	-1E+10	1	-1E+10	1	-1E+10	1	-1E+10	1
4902554	28	C	11/10/2021	17:00	-136.387	49.302	0	9.90	0	9.3900	0	32.2970	0	24.941	0	9.816	0	-1e10	8	-1e10	8	-1E+10	1	-1E+10	1	-1E+10	1	-1E+10	1	-1E+10	1	-1E+10	1
4902554	28	C	11/10/2021	17:00	-136.387	49.302	0	11.00	0	9.3900	0	32.2960	0	24.941	0	10.906	0	-1e10	8	-1e10	8	-1E+10	1	-1E+10	1	-1E+10	1	-1E+10	1	-1E+10	1	-1E+10	1
4902554	28	C	11/10/2021	17:00	-136.387	49.302	0	12.10	0	9.3890	0	32.2970	0	24.942	0	11.997	0	-1e10	8	-1e10	8	-1E+10	1	-1E+10	1	-1E+10	1	-1E+10	1	-1E+10	1	-1E+10	1
4902554	28	C	11/10/2021	17:00	-136.387	49.302	0	13.00	0	9.3890	0	32.2970	0	24.942	0	12.889	0	-1e10	8	-1e10	8	-1E+10	1	-1E+10	1	-1E+10	1	-1E+10	1	-1E+10	1	-1E+10	1
4902554	28	C	11/10/2021	17:00	-136.387	49.302	0	13.80	0	9.3920	0	32.2960	0	24.940	0	13.682	0	-1e10	8	-1e10	8	-1E+10	1	-1E+10	1	-1E+10	1	-1E+10	1	-1E+10	1	-1E+10	1
4902554	28	C	11/10/2021	17:00	-136.387	49.302	0	15.00	0	9.3920	0	32.2960	0	24.940	0	14.872	0	-1e10	8	-1e10	8	-1E+10	1	-1E+10	1	-1E+10	1	-1E+10	1	-1E+10	1	-1E+10	1
4902554	28	C	11/10/2021	17:00	-136.387	49.302	0	15.90	0	9.3920	0	32.2980	0	24.942	0	15.764	0	-1e10	8	-1e10	8	-1E+10	1	-1E+10	1	-1E+10	1	-1E+10	1	-1E+10	1	-1E+10	1
4902554	28	C	11/10/2021	17:00	-136.387	49.302	0	16.90	0	9.3910	0	32.2980	0	24.942	0	16.755	0	-1e10	8	-1e10	8	-1E+10	1	-1E+10	1	-1E+10	1	-1E+10	1	-1E+10	1	-1E+10	1
4902554	28	C	11/10/2021	17:00	-136.387	49.302	0	17.90	0	9.3920	0	32.2980	0	24.942	0	17.747	0	-1e10	8	-1e10	8	-1E+10	1	-1E+10	1	-1E+10	1	-1E+10	1	-1E+10	1	-1E+10	1
4902554	28	C	11/10/2021	17:00	-136.387	49.302	0	18.90	0	9.3920	0	32.2960	0	24.941	0	18.738	0	-1e10	8	-1e10	8	-1E+10	1	-1E+10	1	-1E+10	1	-1E+10	1	-1E+10	1	-1E+10	1
4902554	28	C	11/10/2021	17:00	-136.387	49.302	0	20.00	0	9.3920	0	32.2980	0	24.942	0	19.829	0	-1e10	8	-1e10	8	-1E+10	1	-1E+10	1	-1E+10	1	-1E+10	1	-1E+10	1	-1E+10	1
4902554	28	C	11/10/2021	17:00	-136.387	49.302	0	21.00	0	9.3930	0	32.2980	0	24.942	0	20.820	0	-1e10	8	-1e10	8	-1E+10	1	-1E+10	1	-1E+10	1	-1E+10	1	-1E+10	1	-1E+10	1
4902554	28	C	11/10/2021	17:00	-136.387	49.302	0	22.20	0	9.3920	0	32.2990	0	24.943	0	22.010	0	-1e10	8	-1e10	8	-1E+10	1	-1E+10	1	-1E+10	1	-1E+10	1	-1E+10	1	-1E+10	1
4902554	28	C	11/10/2021	17:00	-136.387	49.302	0	22.90	0	9.3930	0	32.2990	0	24.943	0	22.704	0	-1e10	8	-1e10	8	-1E+10	1	-1E+10	1	-1E+10	1	-1E+10	1	-1E+10	1	-1E+10	1
4902554	28	C	11/10/2021	17:00	-136.387	49.302	0	24.00	0	9.3930	0	32.2990	0	24.943	0	23.794	0	-1e10	8	-1e10	8	-1E+10	1	-1E+10	1	-1E+10	1	-1E+10	1	-1E+10	1	-1E+10	1
4902554	28	C	11/10/2021	17:00	-136.387	49.302	0	25.10	0	9.3930	0	32.3000	0	24.944	0	24.885	0	-1e10	8	-1e10	8	-1E+10	1	-1E+10	1	-1E+10	1	-1E+10	1	-1E+10	1	-1E+10	1
4902554	28	C	11/10/2021	17:00	-136.387	49.302	0	25.80	0	9.3930	0	32.3000	0	24.944	0	25.579	0	-1e10	8	-1e10	8	-1E+10	1	-1E+10	1	-1E+10	1	-1E+10	1	-1E+10	1	-1E+10	1
4902554	28	C	11/10/2021	17:00	-136.387	49.302	0	26.90	0	9.3930	0	32.2990	0	24.943	0	26.669	0	-1e10	8	-1e10	8	-1E+10	1	-1E+10	1	-1E+10	1	-1E+10	1	-1E+10	1	-1E+10	1
4902554	28	C	11/10/2021	17:00	-136.387	49.302	0	28.00	0	9.3930	0	32.3000	0	24.944	0	27.760	0	-1e10	8	-1e10	8	-1E+10	1	-1E+10	1	-1E+10	1	-1E+10	1	-1E+10	1	-1E+10	1
4902554	28	C	11/10/2021	17:00	-136.387	49.302	0	28.70	0	9.3930	0	32.2990	0	24.943	0	28.454	0	-1e10	8	-1e10	8	-1E+10	1	-1E+10	1	-1E+10	1	-1E+10	1	-1E+10	1	-1E+10	1
4902554	28	C	11/10/2021	17:00	-136.387	49.302	0	29.80	0	9.3940	0	32.2990	0	24.943	0	29.544	0	-1e10	8	-1e10	8	-1E+10	1	-1E+10	1	-1E+10	1	-1E+10	1	-1E+10	1	-1E+10	1
4902554	28	C	11/10/2021	17:00	-136.387	49.302	0	30.90	0	9.3940	0	32.2920	0	24.937	0	30.635	0	-1e10	8	-1e10	8	-1E+10	1	-1E+10	1	-1E+10	1	-1E+10	1	-1E+10	1	-1E+10	1
4902554	28	C	11/10/2021	17:00	-136.387	49.302	0	32.00	0	9.3940	0	32.2990	0	24.943	0	31.725	0	-1e10	8	-1e10	8	-1E+10	1	-1E+10	1	-1E+10	1	-1E+10	1	-1E+10	1	-1E+10	1
4902554	28	C	11/10/2021	17:00	-136.387	49.302	0	33.10	0	9.3940	0	32.2990	0	24.943	0	32.816	0	-1e10	8	-1e10	8	-1E+10	1	-1E+10	1	-1E+10	1	-1E+10	1	-1E+10	1	-1E+10	1
4902554	28	C	11/10/2021	17:00	-136.387	49.302	0	33.90	0	9.3940	0	32.2980	0	24.942	0	33.609	0	-1e10	8	-1e10	8	-1E+10	1	-1E+10	1	-1E+10	1	-1E+10	1	-1E+10	1	-1E+10	1
4902554	28	C	11/10/2021	17:00	-136.387	49.302	0	35.00	0	9.3930	0	32.3000	0	24.944	0	34.699	0	-1e10	8	-1e10	8	-1E+10	1	-1E+10	1	-1E+10	1	-1E+10	1	-1E+10	1	-1E+10	1
4902554	28	C	11/10/2021	17:00	-136.387	49.302	0	36.20	0	9.3940	0	32.3000	0	24.944	0	35.889	0	-1e10	8	-1e10	8	-1E+10	1	-1E+10	1	-1E+10	1	-1E+10	1	-1E+10	1	-1E+10	1
4902554	28	C	11/10/2021	17:00	-136.387	49.302	0	37.00	0	9.3940	0	32.3000	0	24.944	0	36.682	0	-1e10	8	-1e10	8	-1E+10	1	-1E+10	1	-1E+10	1	-1E+10	1	-1E+10	1	-1E+10	1
4902554	28	C	11/10/2021	17:00	-136.387	49.302	0	37.70	0	9.3940	0	32.3000	0	24.944	0	37.376	0	-1e10	8	-1e10	8	-1E+10	1	-1E+10	1	-1E+10	1	-1E+10	1	-1E+10	1	-1E+10	1
4902554	28	C	11/10/2021	17:00	-136.387	49.302	0	38.80	0	9.3940	0	32.3000	0	24.944	0	38.466	0	-1e10	8	-1e10	8	-1E+10	1	-1E+10	1	-1E+10	1	-1E+10	1	-1E+10	1	-1E+10	1
4902554	28	C	11/10/2021	17:00	-136.387	49.302	0	40.00	0	9.3950	0	32.3010	0	24.944	0	39.656	0	-1e10	8	-1e10	8	-1E+10	1	-1E+10	1	-1E+10	1	-1E+10	1	-1E+10	1	-1E+10	1
4902554	28	C	11/10/2021	17:00	-136.387	49.302	0	41.00	0	9.3950	0	32.3010	0	24.944	0	40.647	0	-1e10	8	-1e10	8	-1E+10	1	-1E+10	1	-1E+10	1	-1E+10	1	-1E+10	1	-1E+10	1
4902554	28	C	11/10/2021	17:00	-136.387	49.302	0	42.10	0	9.3950	0	32.3000	0	24.944	0	41.737	0	-1e10	8	-1e10	8	-1E+10	1	-1E+10	1	-1E+10	1	-1E+10	1	-1E+10	1	-1E+10	1
4902554	28	C	11/10/2021	17:00	-136.387	49.302	0	42.80	0	9.3930	0	32.3000	0	24.944	0	42.431	0	-1e10	8	-1e10	8	-1E+10	1	-1E+10	1	-1E+10	1	-1E+10	1	-1E+10	1	-1E+10	1
4902554	28	C	11/10/2021	17:00	-136.387	49.302	0	43.80	0	9.3940	0	32.3010	0	24.945	0	43.423	0	-1e10	8	-1e10	8	-1E+10	1	-1E+10	1	-1E+10	1	-1E+10	1	-1E+10	1	-1E+10	1
4902554	28	C	11/10/2021	17:00	-136.387	49.302	0	44.80	0	9.3940	0	32.3020	0	24.945	0	44.414	0	-1e10	8	-1e10	8	-1E+10	1	-1E+10	1	-1E+10	1	-1E+10	1	-1E+10	1	-1E+10	1
4902554	28	C	11/10/2021	17:00	-136.387	49.302	0	45.80	0	9.3940	0	32.3010	0	24.945	0	45.405	0	-1e10	8	-1e10	8	-1E+10	1	-1E+10	1	-1E+10	1	-1E+10	1	-1E+10	1	-1E+10	1
4902554	28	C	11/10/2021	17:00	-136.387	49.302	0	46.80	0	9.3940	0	32.2990	0	24.943	0	46.396	0	-1e10	8	-1e10	8	-1E+10	1	-1E+10	1	-1E+10	1	-1E+10	1	-1E+10	1	-1E+10	1
4902554	28	C	11/10/2021	17:00	-136.387	49.302	0	47.80	0	9.3930	0	32.3020	0	24.946	0	47.388	0	-1e10	8	-1e10	8	-1E+10	1	-1E+10	1	-1E+10	1	-1E+10	1	-1E+10	1	-1E+10	1
4902554	28	C	11/10/2021	17:00	-136.387	49.302	0	48.90	0	9.3940	0	32.3000	0	24.944	0	48.478	0	-1e10	8	-1e10	8	-1E+10	1	-1E+10	1	-1E+10	1	-1E+10	1	-1E+10	1	-1E+10	1
4902554	28	C	11/10/2021	17:00	-136.387	49.302	0	50.00	0	9.3940	0	32.3000	0	24.944	0	49.569	0	-1e10	8	-1e10	8	-1E+10	1	-1E+10	1	-1E+10	1	-1E+10	1	-1E+10	1	-1E+10	1
4902554	28	C	11/10/2021	17:00	-136.387	49.302	0	51.10	0	9.3930	0	32.3010	0	24.945	0	50.659	0	-1e10	8	-1e10	8	-1E+10	1	-1E+10	1	-1E+10	1	-1E+10	1	-1E+10	1	-1E+10	1
4902554	28	C	11/10/2021	17:00	-136.387	49.302	0	51.90	0	9.3940	0	32.3010	0	24.945	0	51.452	0	-1e10	8	-1e10	8	-1E+10	1	-1E+10	1	-1E+10	1	-1E+10	1	-1E+10	1	-1E+10	1
4902554	28	C	11/10/2021	17:00	-136.387	49.302	0	52.70	0	9.3940	0	32.3010	0	24.945	0	52.245	0	-1e10	8	-1e10	8	-1E+10	1	-1E+10	1	-1E+10	1	-1E+10	1	-1E+10	1	-1E+10	1
4902554	28	C	11/10/2021	17:00	-136.387	49.302	0	53.90	0	9.3940	0	32.3010	0	24.945	0	53.434	0	-1e10	8	-1e10	8	-1E+10	1	-1E+10	1	-1E+10	1	-1E+10	1	-1E+10	1	-1E+10	1
4902554	28	C	11/10/2021	17:00	-136.387	49.302	0	55.10	0	9.3940	0	32.3010	0	24.945	0	54.624	0	-1e10	8	-1e10	8	-1E+10	1	-1E+10	1	-1E+10	1	-1E+10	1	-1E+10	1	-1E+10	1
4902554	28	C	11/10/2021	17:00	-136.387	49.302	0	56.00	0	9.3940	0	32.3010	0	24.945	0	55.516	0	-1e10	8	-1e10	8	-1E+10	1	-1E+10	1	-1E+10	1	-1E+10	1	-1E+10	1	-1E+10	1
4902554	28	C	11/10/2021	17:00	-136.387	49.302	0	56.90	0	9.3940	0	32.3000	0	24.944	0	56.408	0	-1e10	8	-1e10	8	-1E+10	1	-1E+10	1	-1E+10	1	-1E+10	1	-1E+10	1	-1E+10	1
4902554	28	C	11/10/2021	17:00	-136.387	49.302	0	58.10	0	9.3940	0	32.3000	0	24.944	0	57.597	0	-1e10	8	-1e10	8	-1E+10	1	-1E+10	1	-1E+10	1	-1E+10	1	-1E+10	1	-1E+10	1
4902554	28	C	11/10/2021	17:00	-136.387	49.302	0	59.00	0	9.3920	0	32.3010	0	24.945	0	58.490	0	-1e10	8	-1e10	8	-1E+10	1	-1E+10	1	-1E+10	1	-1E+10	1	-1E+10	1	-1E+10	1
4902554	28	C	11/10/2021	17:00	-136.387	49.302	0	59.80	0	9.3920	0	32.3010	0	24.945	0	59.283	0	-1e10	8	-1e10	8	-1E+10	1	-1E+10	1	-1E+10	1	-1E+10	1	-1E+10	1	-1E+10	1
4902554	28	C	11/10/2021	17:00	-136.387	49.302	0	60.90	0	9.3940	0	32.2990	0	24.943	0	60.373	0	-1e10	8	-1e10	8	-1E+10	1	-1E+10	1	-1E+10	1	-1E+10	1	-1E+10	1	-1E+10	1
4902554	28	C	11/10/2021	17:00	-136.387	49.302	0	61.90	0	9.3920	0	32.3000	0	24.944	0	61.364	0	-1e10	8	-1e10	8	-1E+10	1	-1E+10	1	-1E+10	1	-1E+10	1	-1E+10	1	-1E+10	1
4902554	28	C	11/10/2021	17:00	-136.387	49.302	0	63.10	0	9.3810	0	32.2990	0	24.945	0	62.553	0	-1e10	8	-1e10	8	-1E+10	1	-1E+10	1	-1E+10	1	-1E+10	1	-1E+10	1	-1E+10	1
4902554	28	C	11/10/2021	17:00	-136.387	49.302	0	63.90	0	9.3590	0	32.3000	0	24.950	0	63.346	0	-1e10	8	-1e10	8	-1E+10	1	-1E+10	1	-1E+10	1	-1E+10	1	-1E+10	1	-1E+10	1
4902554	28	C	11/10/2021	17:00	-136.387	49.302	0	64.90	0	9.2830	0	32.3130	0	24.972	0	64.338	0	-1e10	8	-1e10	8	-1E+10	1	-1E+10	1	-1E+10	1	-1E+10	1	-1E+10	1	-1E+10	1
4902554	28	C	11/10/2021	17:00	-136.387	49.302	0	66.10	0	8.9870	0	32.3210	0	25.024	0	65.527	0	-1e10	8	-1e10	8	-1E+10	1	-1E+10	1	-1E+10	1	-1E+10	1	-1E+10	1	-1E+10	1
4902554	28	C	11/10/2021	17:00	-136.387	49.302	0	67.10	0	8.3980	0	32.3530	0	25.139	0	66.518	0	-1e10	8	-1e10	8	-1E+10	1	-1E+10	1	-1E+10	1	-1E+10	1	-1E+10	1	-1E+10	1
4902554	28	C	11/10/2021	17:00	-136.387	49.302	0	67.80	0	8.0070	0	32.3910	0	25.226	0	67.212	0	-1e10	8	-1e10	8	-1E+10	1	-1E+10	1	-1E+10	1	-1E+10	1	-1E+10	1	-1E+10	1
4902554	28	C	11/10/2021	17:00	-136.387	49.302	0	68.80	0	7.4410	0	32.4100	0	25.320	0	68.203	0	-1e10	8	-1e10	8	-1E+10	1	-1E+10	1	-1E+10	1	-1E+10	1	-1E+10	1	-1E+10	1
4902554	28	C	11/10/2021	17:00	-136.387	49.302	0	69.90	0	7.0530	0	32.4470	0	25.402	0	69.293	0	-1e10	8	-1e10	8	-1E+10	1	-1E+10	1	-1E+10	1	-1E+10	1	-1E+10	1	-1E+10	1
4902554	28	C	11/10/2021	17:00	-136.387	49.302	0	71.00	0	6.7020	0	32.4770	0	25.472	0	70.384	0	-1e10	8	-1e10	8	-1E+10	1	-1E+10	1	-1E+10	1	-1E+10	1	-1E+10	1	-1E+10	1
4902554	28	C	11/10/2021	17:00	-136.387	49.302	0	71.90	0	6.4090	0	32.4830	0	25.514	0	71.276	0	-1e10	8	-1e10	8	-1E+10	1	-1E+10	1	-1E+10	1	-1E+10	1	-1E+10	1	-1E+10	1
4902554	28	C	11/10/2021	17:00	-136.387	49.302	0	72.80	0	6.3790	0	32.4730	0	25.510	0	72.168	0	-1e10	8	-1e10	8	-1E+10	1	-1E+10	1	-1E+10	1	-1E+10	1	-1E+10	1	-1E+10	1
4902554	28	C	11/10/2021	17:00	-136.387	49.302	0	74.10	0	6.3540	0	32.4740	0	25.514	0	73.456	0	-1e10	8	-1e10	8	-1E+10	1	-1E+10	1	-1E+10	1	-1E+10	1	-1E+10	1	-1E+10	1
4902554	28	C	11/10/2021	17:00	-136.387	49.302	0	74.90	0	6.3360	0	32.4780	0	25.520	0	74.249	0	-1e10	8	-1e10	8	-1E+10	1	-1E+10	1	-1E+10	1	-1E+10	1	-1E+10	1	-1E+10	1
4902554	28	C	11/10/2021	17:00	-136.387	49.302	0	75.80	0	6.3140	0	32.4820	0	25.525	0	75.141	0	-1e10	8	-1e10	8	-1E+10	1	-1E+10	1	-1E+10	1	-1E+10	1	-1E+10	1	-1E+10	1
4902554	28	C	11/10/2021	17:00	-136.387	49.302	0	77.00	0	6.2700	0	32.4920	0	25.539	0	76.331	0	-1e10	8	-1e10	8	-1E+10	1	-1E+10	1	-1E+10	1	-1E+10	1	-1E+10	1	-1E+10	1
4902554	28	C	11/10/2021	17:00	-136.387	49.302	0	78.00	0	6.2570	0	32.4910	0	25.540	0	77.322	0	-1e10	8	-1e10	8	-1E+10	1	-1E+10	1	-1E+10	1	-1E+10	1	-1E+10	1	-1E+10	1
4902554	28	C	11/10/2021	17:00	-136.387	49.302	0	78.90	0	6.2470	0	32.4920	0	25.542	0	78.214	0	-1e10	8	-1e10	8	-1E+10	1	-1E+10	1	-1E+10	1	-1E+10	1	-1E+10	1	-1E+10	1
4902554	28	C	11/10/2021	17:00	-136.387	49.302	0	79.90	0	6.2310	0	32.4920	0	25.544	0	79.205	0	-1e10	8	-1e10	8	-1E+10	1	-1E+10	1	-1E+10	1	-1E+10	1	-1E+10	1	-1E+10	1
4902554	28	C	11/10/2021	17:00	-136.387	49.302	0	80.90	0	6.1780	0	32.4980	0	25.555	0	80.196	0	-1e10	8	-1e10	8	-1E+10	1	-1E+10	1	-1E+10	1	-1E+10	1	-1E+10	1	-1E+10	1
4902554	28	C	11/10/2021	17:00	-136.387	49.302	0	81.90	0	6.1380	0	32.4950	0	25.558	0	81.187	0	-1e10	8	-1e10	8	-1E+10	1	-1E+10	1	-1E+10	1	-1E+10	1	-1E+10	1	-1E+10	1
4902554	28	C	11/10/2021	17:00	-136.387	49.302	0	82.90	0	6.0790	0	32.5090	0	25.576	0	82.178	0	-1e10	8	-1e10	8	-1E+10	1	-1E+10	1	-1E+10	1	-1E+10	1	-1E+10	1	-1E+10	1
4902554	28	C	11/10/2021	17:00	-136.387	49.302	0	83.90	0	6.0570	0	32.5090	0	25.579	0	83.169	0	-1e10	8	-1e10	8	-1E+10	1	-1E+10	1	-1E+10	1	-1E+10	1	-1E+10	1	-1E+10	1
4902554	28	C	11/10/2021	17:00	-136.387	49.302	0	84.80	0	6.0090	0	32.5130	0	25.588	0	84.061	0	-1e10	8	-1e10	8	-1E+10	1	-1E+10	1	-1E+10	1	-1E+10	1	-1E+10	1	-1E+10	1
4902554	28	C	11/10/2021	17:00	-136.387	49.302	0	85.80	0	5.9790	0	32.5180	0	25.595	0	85.052	0	-1e10	8	-1e10	8	-1E+10	1	-1E+10	1	-1E+10	1	-1E+10	1	-1E+10	1	-1E+10	1
4902554	28	C	11/10/2021	17:00	-136.387	49.302	0	86.80	0	5.9660	0	32.5170	0	25.596	0	86.043	0	-1e10	8	-1e10	8	-1E+10	1	-1E+10	1	-1E+10	1	-1E+10	1	-1E+10	1	-1E+10	1
4902554	28	C	11/10/2021	17:00	-136.387	49.302	0	88.00	0	5.9410	0	32.5220	0	25.603	0	87.233	0	-1e10	8	-1e10	8	-1E+10	1	-1E+10	1	-1E+10	1	-1E+10	1	-1E+10	1	-1E+10	1
4902554	28	C	11/10/2021	17:00	-136.387	49.302	0	89.00	0	5.9110	0	32.5290	0	25.612	0	88.224	0	-1e10	8	-1e10	8	-1E+10	1	-1E+10	1	-1E+10	1	-1E+10	1	-1E+10	1	-1E+10	1
4902554	28	C	11/10/2021	17:00	-136.387	49.302	0	89.90	0	5.9050	0	32.5270	0	25.611	0	89.116	0	-1e10	8	-1e10	8	-1E+10	1	-1E+10	1	-1E+10	1	-1E+10	1	-1E+10	1	-1E+10	1
4902554	28	C	11/10/2021	17:00	-136.387	49.302	0	91.00	0	5.9040	0	32.5260	0	25.611	0	90.206	0	-1e10	8	-1e10	8	-1E+10	1	-1E+10	1	-1E+10	1	-1E+10	1	-1E+10	1	-1E+10	1
4902554	28	C	11/10/2021	17:00	-136.387	49.302	0	91.90	0	5.8930	0	32.5290	0	25.614	0	91.098	0	-1e10	8	-1e10	8	-1E+10	1	-1E+10	1	-1E+10	1	-1E+10	1	-1E+10	1	-1E+10	1
4902554	28	C	11/10/2021	17:00	-136.387	49.302	0	92.90	0	5.8740	0	32.5330	0	25.620	0	92.089	0	-1e10	8	-1e10	8	-1E+10	1	-1E+10	1	-1E+10	1	-1E+10	1	-1E+10	1	-1E+10	1
4902554	28	C	11/10/2021	17:00	-136.387	49.302	0	94.30	0	5.8460	0	32.5380	0	25.627	0	93.476	0	-1e10	8	-1e10	8	-1E+10	1	-1E+10	1	-1E+10	1	-1E+10	1	-1E+10	1	-1E+10	1
4902554	28	C	11/10/2021	17:00	-136.387	49.302	0	95.00	0	5.8190	0	32.5450	0	25.636	0	94.170	0	-1e10	8	-1e10	8	-1E+10	1	-1E+10	1	-1E+10	1	-1E+10	1	-1E+10	1	-1E+10	1
4902554	28	C	11/10/2021	17:00	-136.387	49.302	0	96.00	0	5.7990	0	32.5520	0	25.644	0	95.161	0	-1e10	8	-1e10	8	-1E+10	1	-1E+10	1	-1E+10	1	-1E+10	1	-1E+10	1	-1E+10	1
4902554	28	C	11/10/2021	17:00	-136.387	49.302	0	97.00	0	5.7770	0	32.5620	0	25.655	0	96.152	0	-1e10	8	-1e10	8	-1E+10	1	-1E+10	1	-1E+10	1	-1E+10	1	-1E+10	1	-1E+10	1
4902554	28	C	11/10/2021	17:00	-136.387	49.302	0	97.90	0	5.7500	0	32.5770	0	25.670	0	97.044	0	-1e10	8	-1e10	8	-1E+10	1	-1E+10	1	-1E+10	1	-1E+10	1	-1E+10	1	-1E+10	1
4902554	28	C	11/10/2021	17:00	-136.387	49.302	0	98.80	0	5.7270	0	32.5860	0	25.679	0	97.936	0	-1e10	8	-1e10	8	-1E+10	1	-1E+10	1	-1E+10	1	-1E+10	1	-1E+10	1	-1E+10	1
4902554	28	C	11/10/2021	17:00	-136.387	49.302	0	99.90	0	5.7030	0	32.6140	0	25.704	0	99.026	0	-1e10	8	-1e10	8	-1E+10	1	-1E+10	1	-1E+10	1	-1E+10	1	-1E+10	1	-1E+10	1
4902554	28	C	11/10/2021	17:00	-136.387	49.302	0	101.00	0	5.6860	0	32.6470	0	25.733	0	100.116	0	-1e10	8	-1e10	8	-1E+10	1	-1E+10	1	-1E+10	1	-1E+10	1	-1E+10	1	-1E+10	1
4902554	28	C	11/10/2021	17:00	-136.387	49.302	0	101.90	0	5.6880	0	32.6610	0	25.743	0	101.008	0	-1e10	8	-1e10	8	-1E+10	1	-1E+10	1	-1E+10	1	-1E+10	1	-1E+10	1	-1E+10	1
4902554	28	C	11/10/2021	17:00	-136.387	49.302	0	103.10	0	5.7100	0	32.6980	0	25.770	0	102.197	0	-1e10	8	-1e10	8	-1E+10	1	-1E+10	1	-1E+10	1	-1E+10	1	-1E+10	1	-1E+10	1
4902554	28	C	11/10/2021	17:00	-136.387	49.302	0	104.00	0	5.7160	0	32.7060	0	25.776	0	103.089	0	-1e10	8	-1e10	8	-1E+10	1	-1E+10	1	-1E+10	1	-1E+10	1	-1E+10	1	-1E+10	1
4902554	28	C	11/10/2021	17:00	-136.387	49.302	0	105.00	0	5.7300	0	32.7460	0	25.806	0	104.080	0	-1e10	8	-1e10	8	-1E+10	1	-1E+10	1	-1E+10	1	-1E+10	1	-1E+10	1	-1E+10	1
4902554	28	C	11/10/2021	17:00	-136.387	49.302	0	106.00	0	5.7490	0	32.7840	0	25.833	0	105.071	0	-1e10	8	-1e10	8	-1E+10	1	-1E+10	1	-1E+10	1	-1E+10	1	-1E+10	1	-1E+10	1
4902554	28	C	11/10/2021	17:00	-136.387	49.302	0	107.20	0	5.7730	0	32.8110	0	25.852	0	106.260	0	-1e10	8	-1e10	8	-1E+10	1	-1E+10	1	-1E+10	1	-1E+10	1	-1E+10	1	-1E+10	1
4902554	28	C	11/10/2021	17:00	-136.387	49.302	0	108.00	0	5.7940	0	32.8660	0	25.893	0	107.053	0	-1e10	8	-1e10	8	-1E+10	1	-1E+10	1	-1E+10	1	-1E+10	1	-1E+10	1	-1E+10	1
4902554	28	C	11/10/2021	17:00	-136.387	49.302	0	109.20	0	5.8150	0	32.9030	0	25.920	0	108.242	0	-1e10	8	-1e10	8	-1E+10	1	-1E+10	1	-1E+10	1	-1E+10	1	-1E+10	1	-1E+10	1
4902554	28	C	11/10/2021	17:00	-136.387	49.302	0	110.10	0	5.8490	0	32.9670	0	25.966	0	109.134	0	-1e10	8	-1e10	8	-1E+10	1	-1E+10	1	-1E+10	1	-1E+10	1	-1E+10	1	-1E+10	1
4902554	28	C	11/10/2021	17:00	-136.387	49.302	0	111.00	0	5.8700	0	33.0100	0	25.998	0	110.026	0	-1e10	8	-1e10	8	-1E+10	1	-1E+10	1	-1E+10	1	-1E+10	1	-1E+10	1	-1E+10	1
4902554	28	C	11/10/2021	17:00	-136.387	49.302	0	112.00	0	5.8930	0	33.0460	0	26.023	0	111.017	0	-1e10	8	-1e10	8	-1E+10	1	-1E+10	1	-1E+10	1	-1E+10	1	-1E+10	1	-1E+10	1
4902554	28	C	11/10/2021	17:00	-136.387	49.302	0	112.90	0	5.9050	0	33.0620	0	26.034	0	111.909	0	-1e10	8	-1e10	8	-1E+10	1	-1E+10	1	-1E+10	1	-1E+10	1	-1E+10	1	-1E+10	1
4902554	28	C	11/10/2021	17:00	-136.387	49.302	0	114.00	0	5.9190	0	33.0990	0	26.062	0	112.999	0	-1e10	8	-1e10	8	-1E+10	1	-1E+10	1	-1E+10	1	-1E+10	1	-1E+10	1	-1E+10	1
4902554	28	C	11/10/2021	17:00	-136.387	49.302	0	115.20	0	5.9480	0	33.1490	0	26.098	0	114.188	0	-1e10	8	-1e10	8	-1E+10	1	-1E+10	1	-1E+10	1	-1E+10	1	-1E+10	1	-1E+10	1
4902554	28	C	11/10/2021	17:00	-136.387	49.302	0	116.10	0	5.9660	0	33.2000	0	26.136	0	115.080	0	-1e10	8	-1e10	8	-1E+10	1	-1E+10	1	-1E+10	1	-1E+10	1	-1E+10	1	-1E+10	1
4902554	28	C	11/10/2021	17:00	-136.387	49.302	0	117.00	0	5.9910	0	33.2160	0	26.146	0	115.971	0	-1e10	8	-1e10	8	-1E+10	1	-1E+10	1	-1E+10	1	-1E+10	1	-1E+10	1	-1E+10	1
4902554	28	C	11/10/2021	17:00	-136.387	49.302	0	118.10	0	6.1080	0	33.3130	0	26.208	0	117.061	0	-1e10	8	-1e10	8	-1E+10	1	-1E+10	1	-1E+10	1	-1E+10	1	-1E+10	1	-1E+10	1
4902554	28	C	11/10/2021	17:00	-136.387	49.302	0	118.90	0	6.1260	0	33.3350	0	26.223	0	117.854	0	-1e10	8	-1e10	8	-1E+10	1	-1E+10	1	-1E+10	1	-1E+10	1	-1E+10	1	-1E+10	1
4902554	28	C	11/10/2021	17:00	-136.387	49.302	0	119.70	0	6.1320	0	33.3670	0	26.247	0	118.647	0	-1e10	8	-1e10	8	-1E+10	1	-1E+10	1	-1E+10	1	-1E+10	1	-1E+10	1	-1E+10	1
4902554	28	C	11/10/2021	17:00	-136.387	49.302	0	120.90	0	6.1330	0	33.4060	0	26.278	0	119.836	0	-1e10	8	-1e10	8	-1E+10	1	-1E+10	1	-1E+10	1	-1E+10	1	-1E+10	1	-1E+10	1
4902554	28	C	11/10/2021	17:00	-136.387	49.302	0	122.00	0	6.1230	0	33.4450	0	26.310	0	120.926	0	-1e10	8	-1e10	8	-1E+10	1	-1E+10	1	-1E+10	1	-1E+10	1	-1E+10	1	-1E+10	1
4902554	28	C	11/10/2021	17:00	-136.387	49.302	0	122.90	0	6.1270	0	33.4540	0	26.317	0	121.818	0	-1e10	8	-1e10	8	-1E+10	1	-1E+10	1	-1E+10	1	-1E+10	1	-1E+10	1	-1E+10	1
4902554	28	C	11/10/2021	17:00	-136.387	49.302	0	123.90	0	6.1130	0	33.4750	0	26.335	0	122.809	0	-1e10	8	-1e10	8	-1E+10	1	-1E+10	1	-1E+10	1	-1E+10	1	-1E+10	1	-1E+10	1
4902554	28	C	11/10/2021	17:00	-136.387	49.302	0	125.10	0	6.1090	0	33.5130	0	26.366	0	123.998	0	-1e10	8	-1e10	8	-1E+10	1	-1E+10	1	-1E+10	1	-1E+10	1	-1E+10	1	-1E+10	1
4902554	28	C	11/10/2021	17:00	-136.387	49.302	0	126.10	0	6.0950	0	33.5450	0	26.393	0	124.989	0	-1e10	8	-1e10	8	-1E+10	1	-1E+10	1	-1E+10	1	-1E+10	1	-1E+10	1	-1E+10	1
4902554	28	C	11/10/2021	17:00	-136.387	49.302	0	127.00	0	6.0940	0	33.5510	0	26.397	0	125.881	0	-1e10	8	-1e10	8	-1E+10	1	-1E+10	1	-1E+10	1	-1E+10	1	-1E+10	1	-1E+10	1
4902554	28	C	11/10/2021	17:00	-136.387	49.302	0	128.00	0	6.0960	0	33.5550	0	26.400	0	126.871	0	-1e10	8	-1e10	8	-1E+10	1	-1E+10	1	-1E+10	1	-1E+10	1	-1E+10	1	-1E+10	1
4902554	28	C	11/10/2021	17:00	-136.387	49.302	0	128.90	0	6.0970	0	33.5590	0	26.403	0	127.763	0	-1e10	8	-1e10	8	-1E+10	1	-1E+10	1	-1E+10	1	-1E+10	1	-1E+10	1	-1E+10	1
4902554	28	C	11/10/2021	17:00	-136.387	49.302	0	129.90	0	6.0980	0	33.5650	0	26.408	0	128.754	0	-1e10	8	-1e10	8	-1E+10	1	-1E+10	1	-1E+10	1	-1E+10	1	-1E+10	1	-1E+10	1
4902554	28	C	11/10/2021	17:00	-136.387	49.302	0	130.80	0	6.1000	0	33.5730	0	26.414	0	129.646	0	-1e10	8	-1e10	8	-1E+10	1	-1E+10	1	-1E+10	1	-1E+10	1	-1E+10	1	-1E+10	1
4902554	28	C	11/10/2021	17:00	-136.387	49.302	0	132.10	0	6.0830	0	33.5970	0	26.435	0	130.934	0	-1e10	8	-1e10	8	-1E+10	1	-1E+10	1	-1E+10	1	-1E+10	1	-1E+10	1	-1E+10	1
4902554	28	C	11/10/2021	17:00	-136.387	49.302	0	133.10	0	6.0540	0	33.6200	0	26.457	0	131.925	0	-1e10	8	-1e10	8	-1E+10	1	-1E+10	1	-1E+10	1	-1E+10	1	-1E+10	1	-1E+10	1
4902554	28	C	11/10/2021	17:00	-136.387	49.302	0	134.00	0	6.0460	0	33.6260	0	26.463	0	132.817	0	-1e10	8	-1e10	8	-1E+10	1	-1E+10	1	-1E+10	1	-1E+10	1	-1E+10	1	-1E+10	1
4902554	28	C	11/10/2021	17:00	-136.387	49.302	0	135.10	0	6.0240	0	33.6420	0	26.478	0	133.907	0	-1e10	8	-1e10	8	-1E+10	1	-1E+10	1	-1E+10	1	-1E+10	1	-1E+10	1	-1E+10	1
4902554	28	C	11/10/2021	17:00	-136.387	49.302	0	135.80	0	6.0160	0	33.6470	0	26.483	0	134.600	0	-1e10	8	-1e10	8	-1E+10	1	-1E+10	1	-1E+10	1	-1E+10	1	-1E+10	1	-1E+10	1
4902554	28	C	11/10/2021	17:00	-136.387	49.302	0	136.80	0	6.0090	0	33.6500	0	26.486	0	135.591	0	-1e10	8	-1e10	8	-1E+10	1	-1E+10	1	-1E+10	1	-1E+10	1	-1E+10	1	-1E+10	1
4902554	28	C	11/10/2021	17:00	-136.387	49.302	0	137.90	0	6.0060	0	33.6530	0	26.489	0	136.681	0	-1e10	8	-1e10	8	-1E+10	1	-1E+10	1	-1E+10	1	-1E+10	1	-1E+10	1	-1E+10	1
4902554	28	C	11/10/2021	17:00	-136.387	49.302	0	138.90	0	5.9970	0	33.6580	0	26.494	0	137.672	0	-1e10	8	-1e10	8	-1E+10	1	-1E+10	1	-1E+10	1	-1E+10	1	-1E+10	1	-1E+10	1
4902554	28	C	11/10/2021	17:00	-136.387	49.302	0	140.00	0	5.9870	0	33.6630	0	26.499	0	138.762	0	-1e10	8	-1e10	8	-1E+10	1	-1E+10	1	-1E+10	1	-1E+10	1	-1E+10	1	-1E+10	1
4902554	28	C	11/10/2021	17:00	-136.387	49.302	0	141.00	0	5.9720	0	33.6680	0	26.505	0	139.752	0	-1e10	8	-1e10	8	-1E+10	1	-1E+10	1	-1E+10	1	-1E+10	1	-1E+10	1	-1E+10	1
4902554	28	C	11/10/2021	17:00	-136.387	49.302	0	142.10	0	5.9380	0	33.6820	0	26.521	0	140.842	0	-1e10	8	-1e10	8	-1E+10	1	-1E+10	1	-1E+10	1	-1E+10	1	-1E+10	1	-1E+10	1
4902554	28	C	11/10/2021	17:00	-136.387	49.302	0	142.80	0	5.9320	0	33.6850	0	26.524	0	141.536	0	-1e10	8	-1e10	8	-1E+10	1	-1E+10	1	-1E+10	1	-1E+10	1	-1E+10	1	-1E+10	1
4902554	28	C	11/10/2021	17:00	-136.387	49.302	0	143.90	0	5.9200	0	33.6900	0	26.529	0	142.626	0	-1e10	8	-1e10	8	-1E+10	1	-1E+10	1	-1E+10	1	-1E+10	1	-1E+10	1	-1E+10	1
4902554	28	C	11/10/2021	17:00	-136.387	49.302	0	145.10	0	5.9160	0	33.6900	0	26.530	0	143.815	0	-1e10	8	-1e10	8	-1E+10	1	-1E+10	1	-1E+10	1	-1E+10	1	-1E+10	1	-1E+10	1
4902554	28	C	11/10/2021	17:00	-136.387	49.302	0	145.80	0	5.9090	0	33.6940	0	26.534	0	144.508	0	-1e10	8	-1e10	8	-1E+10	1	-1E+10	1	-1E+10	1	-1E+10	1	-1E+10	1	-1E+10	1
4902554	28	C	11/10/2021	17:00	-136.387	49.302	0	147.00	0	5.8880	0	33.6990	0	26.540	0	145.697	0	-1e10	8	-1e10	8	-1E+10	1	-1E+10	1	-1E+10	1	-1E+10	1	-1E+10	1	-1E+10	1
4902554	28	C	11/10/2021	17:00	-136.387	49.302	0	148.20	0	5.8630	0	33.7080	0	26.550	0	146.886	0	-1e10	8	-1e10	8	-1E+10	1	-1E+10	1	-1E+10	1	-1E+10	1	-1E+10	1	-1E+10	1
4902554	28	C	11/10/2021	17:00	-136.387	49.302	0	148.90	0	5.8350	0	33.7150	0	26.559	0	147.580	0	-1e10	8	-1e10	8	-1E+10	1	-1E+10	1	-1E+10	1	-1E+10	1	-1E+10	1	-1E+10	1
4902554	28	C	11/10/2021	17:00	-136.387	49.302	0	149.80	0	5.8240	0	33.7160	0	26.562	0	148.471	0	-1e10	8	-1e10	8	-1E+10	1	-1E+10	1	-1E+10	1	-1E+10	1	-1E+10	1	-1E+10	1
4902554	28	C	11/10/2021	17:00	-136.387	49.302	0	151.00	0	5.8120	0	33.7160	0	26.563	0	149.660	0	-1e10	8	-1e10	8	-1E+10	1	-1E+10	1	-1E+10	1	-1E+10	1	-1E+10	1	-1E+10	1
4902554	28	C	11/10/2021	17:00	-136.387	49.302	0	152.20	0	5.7970	0	33.7170	0	26.566	0	150.849	0	-1e10	8	-1e10	8	-1E+10	1	-1E+10	1	-1E+10	1	-1E+10	1	-1E+10	1	-1E+10	1
4902554	28	C	11/10/2021	17:00	-136.387	49.302	0	153.10	0	5.7830	0	33.7220	0	26.571	0	151.741	0	-1e10	8	-1e10	8	-1E+10	1	-1E+10	1	-1E+10	1	-1E+10	1	-1E+10	1	-1E+10	1
4902554	28	C	11/10/2021	17:00	-136.387	49.302	0	153.90	0	5.7730	0	33.7230	0	26.573	0	152.533	0	-1e10	8	-1e10	8	-1E+10	1	-1E+10	1	-1E+10	1	-1E+10	1	-1E+10	1	-1E+10	1
4902554	28	C	11/10/2021	17:00	-136.387	49.302	0	154.80	0	5.7650	0	33.7260	0	26.577	0	153.425	0	-1e10	8	-1e10	8	-1E+10	1	-1E+10	1	-1E+10	1	-1E+10	1	-1E+10	1	-1E+10	1
4902554	28	C	11/10/2021	17:00	-136.387	49.302	0	155.60	0	5.7560	0	33.7270	0	26.579	0	154.218	0	-1e10	8	-1e10	8	-1E+10	1	-1E+10	1	-1E+10	1	-1E+10	1	-1E+10	1	-1E+10	1
4902554	28	C	11/10/2021	17:00	-136.387	49.302	0	156.90	0	5.7410	0	33.7290	0	26.582	0	155.506	0	-1e10	8	-1e10	8	-1E+10	1	-1E+10	1	-1E+10	1	-1E+10	1	-1E+10	1	-1E+10	1
4902554	28	C	11/10/2021	17:00	-136.387	49.302	0	158.20	0	5.7260	0	33.7340	0	26.588	0	156.794	0	-1e10	8	-1e10	8	-1E+10	1	-1E+10	1	-1E+10	1	-1E+10	1	-1E+10	1	-1E+10	1
4902554	28	C	11/10/2021	17:00	-136.387	49.302	0	159.00	0	5.7030	0	33.7330	0	26.590	0	157.586	0	-1e10	8	-1e10	8	-1E+10	1	-1E+10	1	-1E+10	1	-1E+10	1	-1E+10	1	-1E+10	1
4902554	28	C	11/10/2021	17:00	-136.387	49.302	0	159.90	0	5.6990	0	33.7360	0	26.593	0	158.478	0	-1e10	8	-1e10	8	-1E+10	1	-1E+10	1	-1E+10	1	-1E+10	1	-1E+10	1	-1E+10	1
4902554	28	C	11/10/2021	17:00	-136.387	49.302	0	160.80	0	5.6910	0	33.7360	0	26.594	0	159.370	0	-1e10	8	-1e10	8	-1E+10	1	-1E+10	1	-1E+10	1	-1E+10	1	-1E+10	1	-1E+10	1
4902554	28	C	11/10/2021	17:00	-136.387	49.302	0	161.60	0	5.6850	0	33.7370	0	26.595	0	160.162	0	-1e10	8	-1e10	8	-1E+10	1	-1E+10	1	-1E+10	1	-1E+10	1	-1E+10	1	-1E+10	1
4902554	28	C	11/10/2021	17:00	-136.387	49.302	0	162.90	0	5.6490	0	33.7420	0	26.604	0	161.450	0	-1e10	8	-1e10	8	-1E+10	1	-1E+10	1	-1E+10	1	-1E+10	1	-1E+10	1	-1E+10	1
4902554	28	C	11/10/2021	17:00	-136.387	49.302	0	164.20	0	5.6430	0	33.7420	0	26.604	0	162.738	0	-1e10	8	-1e10	8	-1E+10	1	-1E+10	1	-1E+10	1	-1E+10	1	-1E+10	1	-1E+10	1
4902554	28	C	11/10/2021	17:00	-136.387	49.302	0	165.00	0	5.6400	0	33.7420	0	26.605	0	163.531	0	-1e10	8	-1e10	8	-1E+10	1	-1E+10	1	-1E+10	1	-1E+10	1	-1E+10	1	-1E+10	1
4902554	28	C	11/10/2021	17:00	-136.387	49.302	0	165.90	0	5.6370	0	33.7420	0	26.605	0	164.422	0	-1e10	8	-1e10	8	-1E+10	1	-1E+10	1	-1E+10	1	-1E+10	1	-1E+10	1	-1E+10	1
4902554	28	C	11/10/2021	17:00	-136.387	49.302	0	166.80	0	5.6190	0	33.7540	0	26.617	0	165.314	0	-1e10	8	-1e10	8	-1E+10	1	-1E+10	1	-1E+10	1	-1E+10	1	-1E+10	1	-1E+10	1
4902554	28	C	11/10/2021	17:00	-136.387	49.302	0	167.70	0	5.5830	0	33.7530	0	26.620	0	166.205	0	-1e10	8	-1e10	8	-1E+10	1	-1E+10	1	-1E+10	1	-1E+10	1	-1E+10	1	-1E+10	1
4902554	28	C	11/10/2021	17:00	-136.387	49.302	0	168.60	0	5.5790	0	33.7500	0	26.618	0	167.097	0	-1e10	8	-1e10	8	-1E+10	1	-1E+10	1	-1E+10	1	-1E+10	1	-1E+10	1	-1E+10	1
4902554	28	C	11/10/2021	17:00	-136.387	49.302	0	169.90	0	5.5660	0	33.7520	0	26.622	0	168.385	0	-1e10	8	-1e10	8	-1E+10	1	-1E+10	1	-1E+10	1	-1E+10	1	-1E+10	1	-1E+10	1
4902554	28	C	11/10/2021	17:00	-136.387	49.302	0	171.20	0	5.5540	0	33.7530	0	26.624	0	169.673	0	-1e10	8	-1e10	8	-1E+10	1	-1E+10	1	-1E+10	1	-1E+10	1	-1E+10	1	-1E+10	1
4902554	28	C	11/10/2021	17:00	-136.387	49.302	0	172.10	0	5.5440	0	33.7560	0	26.627	0	170.564	0	-1e10	8	-1e10	8	-1E+10	1	-1E+10	1	-1E+10	1	-1E+10	1	-1E+10	1	-1E+10	1
4902554	28	C	11/10/2021	17:00	-136.387	49.302	0	173.10	0	5.5340	0	33.7580	0	26.630	0	171.555	0	-1e10	8	-1e10	8	-1E+10	1	-1E+10	1	-1E+10	1	-1E+10	1	-1E+10	1	-1E+10	1
4902554	28	C	11/10/2021	17:00	-136.387	49.302	0	174.00	0	5.5290	0	33.7560	0	26.629	0	172.447	0	-1e10	8	-1e10	8	-1E+10	1	-1E+10	1	-1E+10	1	-1E+10	1	-1E+10	1	-1E+10	1
4902554	28	C	11/10/2021	17:00	-136.387	49.302	0	174.90	0	5.5250	0	33.7590	0	26.632	0	173.338	0	-1e10	8	-1e10	8	-1E+10	1	-1E+10	1	-1E+10	1	-1E+10	1	-1E+10	1	-1E+10	1
4902554	28	C	11/10/2021	17:00	-136.387	49.302	0	175.90	0	5.5190	0	33.7590	0	26.633	0	174.329	0	-1e10	8	-1e10	8	-1E+10	1	-1E+10	1	-1E+10	1	-1E+10	1	-1E+10	1	-1E+10	1
4902554	28	C	11/10/2021	17:00	-136.387	49.302	0	176.80	0	5.5040	0	33.7620	0	26.637	0	175.220	0	-1e10	8	-1e10	8	-1E+10	1	-1E+10	1	-1E+10	1	-1E+10	1	-1E+10	1	-1E+10	1
4902554	28	C	11/10/2021	17:00	-136.387	49.302	0	177.70	0	5.4970	0	33.7600	0	26.636	0	176.112	0	-1e10	8	-1e10	8	-1E+10	1	-1E+10	1	-1E+10	1	-1E+10	1	-1E+10	1	-1E+10	1
4902554	28	C	11/10/2021	17:00	-136.387	49.302	0	178.70	0	5.4900	0	33.7610	0	26.638	0	177.103	0	-1e10	8	-1e10	8	-1E+10	1	-1E+10	1	-1E+10	1	-1E+10	1	-1E+10	1	-1E+10	1
4902554	28	C	11/10/2021	17:00	-136.387	49.302	0	179.60	0	5.4810	0	33.7630	0	26.640	0	177.994	0	-1e10	8	-1e10	8	-1E+10	1	-1E+10	1	-1E+10	1	-1E+10	1	-1E+10	1	-1E+10	1
4902554	28	C	11/10/2021	17:00	-136.387	49.302	0	180.60	0	5.4690	0	33.7650	0	26.643	0	178.985	0	-1e10	8	-1e10	8	-1E+10	1	-1E+10	1	-1E+10	1	-1E+10	1	-1E+10	1	-1E+10	1
4902554	28	C	11/10/2021	17:00	-136.387	49.302	0	181.50	0	5.4520	0	33.7690	0	26.649	0	179.876	0	-1e10	8	-1e10	8	-1E+10	1	-1E+10	1	-1E+10	1	-1E+10	1	-1E+10	1	-1E+10	1
4902554	28	C	11/10/2021	17:00	-136.387	49.302	0	182.50	0	5.4370	0	33.7690	0	26.650	0	180.867	0	-1e10	8	-1e10	8	-1E+10	1	-1E+10	1	-1E+10	1	-1E+10	1	-1E+10	1	-1E+10	1
4902554	28	C	11/10/2021	17:00	-136.387	49.302	0	183.50	0	5.4320	0	33.7690	0	26.651	0	181.858	0	-1e10	8	-1e10	8	-1E+10	1	-1E+10	1	-1E+10	1	-1E+10	1	-1E+10	1	-1E+10	1
4902554	28	C	11/10/2021	17:00	-136.387	49.302	0	184.50	0	5.4300	0	33.7690	0	26.651	0	182.848	0	-1e10	8	-1e10	8	-1E+10	1	-1E+10	1	-1E+10	1	-1E+10	1	-1E+10	1	-1E+10	1
4902554	28	C	11/10/2021	17:00	-136.387	49.302	0	185.50	0	5.4260	0	33.7700	0	26.653	0	183.839	0	-1e10	8	-1e10	8	-1E+10	1	-1E+10	1	-1E+10	1	-1E+10	1	-1E+10	1	-1E+10	1
4902554	28	C	11/10/2021	17:00	-136.387	49.302	0	186.50	0	5.4210	0	33.7710	0	26.654	0	184.829	0	-1e10	8	-1e10	8	-1E+10	1	-1E+10	1	-1E+10	1	-1E+10	1	-1E+10	1	-1E+10	1
4902554	28	C	11/10/2021	17:00	-136.387	49.302	0	187.50	0	5.4180	0	33.7710	0	26.654	0	185.820	0	-1e10	8	-1e10	8	-1E+10	1	-1E+10	1	-1E+10	1	-1E+10	1	-1E+10	1	-1E+10	1
4902554	28	C	11/10/2021	17:00	-136.387	49.302	0	188.50	0	5.4180	0	33.7710	0	26.654	0	186.811	0	-1e10	8	-1e10	8	-1E+10	1	-1E+10	1	-1E+10	1	-1E+10	1	-1E+10	1	-1E+10	1
4902554	28	C	11/10/2021	17:00	-136.387	49.302	0	189.50	0	5.4140	0	33.7720	0	26.656	0	187.801	0	-1e10	8	-1e10	8	-1E+10	1	-1E+10	1	-1E+10	1	-1E+10	1	-1E+10	1	-1E+10	1
4902554	28	C	11/10/2021	17:00	-136.387	49.302	0	190.50	0	5.4130	0	33.7710	0	26.655	0	188.792	0	-1e10	8	-1e10	8	-1E+10	1	-1E+10	1	-1E+10	1	-1E+10	1	-1E+10	1	-1E+10	1
4902554	28	C	11/10/2021	17:00	-136.387	49.302	0	191.50	0	5.4020	0	33.7750	0	26.659	0	189.782	0	-1e10	8	-1e10	8	-1E+10	1	-1E+10	1	-1E+10	1	-1E+10	1	-1E+10	1	-1E+10	1
4902554	28	C	11/10/2021	17:00	-136.387	49.302	0	192.50	0	5.3950	0	33.7740	0	26.659	0	190.773	0	-1e10	8	-1e10	8	-1E+10	1	-1E+10	1	-1E+10	1	-1E+10	1	-1E+10	1	-1E+10	1
4902554	28	C	11/10/2021	17:00	-136.387	49.302	0	193.50	0	5.3760	0	33.7800	0	26.666	0	191.763	0	-1e10	8	-1e10	8	-1E+10	1	-1E+10	1	-1E+10	1	-1E+10	1	-1E+10	1	-1E+10	1
4902554	28	C	11/10/2021	17:00	-136.387	49.302	0	194.50	0	5.3630	0	33.7790	0	26.667	0	192.754	0	-1e10	8	-1e10	8	-1E+10	1	-1E+10	1	-1E+10	1	-1E+10	1	-1E+10	1	-1E+10	1
4902554	28	C	11/10/2021	17:00	-136.387	49.302	0	195.50	0	5.3560	0	33.7800	0	26.669	0	193.745	0	-1e10	8	-1e10	8	-1E+10	1	-1E+10	1	-1E+10	1	-1E+10	1	-1E+10	1	-1E+10	1
4902554	28	C	11/10/2021	17:00	-136.387	49.302	0	196.60	0	5.3500	0	33.7820	0	26.671	0	194.834	0	-1e10	8	-1e10	8	-1E+10	1	-1E+10	1	-1E+10	1	-1E+10	1	-1E+10	1	-1E+10	1
4902554	28	C	11/10/2021	17:00	-136.387	49.302	0	197.60	0	5.3380	0	33.7810	0	26.672	0	195.825	0	-1e10	8	-1e10	8	-1E+10	1	-1E+10	1	-1E+10	1	-1E+10	1	-1E+10	1	-1E+10	1
4902554	28	C	11/10/2021	17:00	-136.387	49.302	0	198.60	0	5.3290	0	33.7830	0	26.674	0	196.815	0	-1e10	8	-1e10	8	-1E+10	1	-1E+10	1	-1E+10	1	-1E+10	1	-1E+10	1	-1E+10	1
4902554	28	C	11/10/2021	17:00	-136.387	49.302	0	199.60	0	5.3200	0	33.7820	0	26.675	0	197.806	0	-1e10	8	-1e10	8	-1E+10	1	-1E+10	1	-1E+10	1	-1E+10	1	-1E+10	1	-1E+10	1
4902554	28	C	11/10/2021	17:00	-136.387	49.302	0	200.70	0	5.3130	0	33.7840	0	26.677	0	198.895	0	-1e10	8	-1e10	8	-1E+10	1	-1E+10	1	-1E+10	1	-1E+10	1	-1E+10	1	-1E+10	1
4902554	28	C	11/10/2021	17:00	-136.387	49.302	0	201.70	0	5.3030	0	33.7860	0	26.680	0	199.886	0	-1e10	8	-1e10	8	-1E+10	1	-1E+10	1	-1E+10	1	-1E+10	1	-1E+10	1	-1E+10	1
4902554	28	C	11/10/2021	17:00	-136.387	49.302	0	202.70	0	5.2970	0	33.7850	0	26.680	0	200.876	0	-1e10	8	-1e10	8	-1E+10	1	-1E+10	1	-1E+10	1	-1E+10	1	-1E+10	1	-1E+10	1
4902554	28	C	11/10/2021	17:00	-136.387	49.302	0	203.70	0	5.2940	0	33.7850	0	26.680	0	201.867	0	-1e10	8	-1e10	8	-1E+10	1	-1E+10	1	-1E+10	1	-1E+10	1	-1E+10	1	-1E+10	1
4902554	28	C	11/10/2021	17:00	-136.387	49.302	0	204.70	0	5.2720	0	33.7880	0	26.685	0	202.857	0	-1e10	8	-1e10	8	-1E+10	1	-1E+10	1	-1E+10	1	-1E+10	1	-1E+10	1	-1E+10	1
4902554	28	C	11/10/2021	17:00	-136.387	49.302	0	205.80	0	5.2690	0	33.7870	0	26.685	0	203.947	0	-1e10	8	-1e10	8	-1E+10	1	-1E+10	1	-1E+10	1	-1E+10	1	-1E+10	1	-1E+10	1
4902554	28	C	11/10/2021	17:00	-136.387	49.302	0	206.80	0	5.2660	0	33.7870	0	26.685	0	204.938	0	-1e10	8	-1e10	8	-1E+10	1	-1E+10	1	-1E+10	1	-1E+10	1	-1E+10	1	-1E+10	1
4902554	28	C	11/10/2021	17:00	-136.387	49.302	0	207.80	0	5.2490	0	33.7950	0	26.693	0	205.928	0	-1e10	8	-1e10	8	-1E+10	1	-1E+10	1	-1E+10	1	-1E+10	1	-1E+10	1	-1E+10	1
4902554	28	C	11/10/2021	17:00	-136.387	49.302	0	208.90	0	5.2370	0	33.7910	0	26.692	0	207.018	0	-1e10	8	-1e10	8	-1E+10	1	-1E+10	1	-1E+10	1	-1E+10	1	-1E+10	1	-1E+10	1
4902554	28	C	11/10/2021	17:00	-136.387	49.302	0	209.90	0	5.2330	0	33.7920	0	26.693	0	208.008	0	-1e10	8	-1e10	8	-1E+10	1	-1E+10	1	-1E+10	1	-1E+10	1	-1E+10	1	-1E+10	1
4902554	28	C	11/10/2021	17:00	-136.387	49.302	0	210.90	0	5.2260	0	33.7950	0	26.696	0	208.999	0	-1e10	8	-1e10	8	-1E+10	1	-1E+10	1	-1E+10	1	-1E+10	1	-1E+10	1	-1E+10	1
4902554	28	C	11/10/2021	17:00	-136.387	49.302	0	212.00	0	5.2230	0	33.7930	0	26.695	0	210.088	0	-1e10	8	-1e10	8	-1E+10	1	-1E+10	1	-1E+10	1	-1E+10	1	-1E+10	1	-1E+10	1
4902554	28	C	11/10/2021	17:00	-136.387	49.302	0	213.00	0	5.2170	0	33.7950	0	26.697	0	211.079	0	-1e10	8	-1e10	8	-1E+10	1	-1E+10	1	-1E+10	1	-1E+10	1	-1E+10	1	-1E+10	1
4902554	28	C	11/10/2021	17:00	-136.387	49.302	0	214.00	0	5.2140	0	33.7940	0	26.697	0	212.069	0	-1e10	8	-1e10	8	-1E+10	1	-1E+10	1	-1E+10	1	-1E+10	1	-1E+10	1	-1E+10	1
4902554	28	C	11/10/2021	17:00	-136.387	49.302	0	215.10	0	5.2110	0	33.7950	0	26.698	0	213.159	0	-1e10	8	-1e10	8	-1E+10	1	-1E+10	1	-1E+10	1	-1E+10	1	-1E+10	1	-1E+10	1
4902554	28	C	11/10/2021	17:00	-136.387	49.302	0	216.10	0	5.2070	0	33.7950	0	26.698	0	214.149	0	-1e10	8	-1e10	8	-1E+10	1	-1E+10	1	-1E+10	1	-1E+10	1	-1E+10	1	-1E+10	1
4902554	28	C	11/10/2021	17:00	-136.387	49.302	0	217.20	0	5.2020	0	33.7970	0	26.700	0	215.238	0	-1e10	8	-1e10	8	-1E+10	1	-1E+10	1	-1E+10	1	-1E+10	1	-1E+10	1	-1E+10	1
4902554	28	C	11/10/2021	17:00	-136.387	49.302	0	218.20	0	5.1800	0	33.7980	0	26.704	0	216.229	0	-1e10	8	-1e10	8	-1E+10	1	-1E+10	1	-1E+10	1	-1E+10	1	-1E+10	1	-1E+10	1
4902554	28	C	11/10/2021	17:00	-136.387	49.302	0	219.30	0	5.1730	0	33.7960	0	26.703	0	217.318	0	-1e10	8	-1e10	8	-1E+10	1	-1E+10	1	-1E+10	1	-1E+10	1	-1E+10	1	-1E+10	1
4902554	28	C	11/10/2021	17:00	-136.387	49.302	0	220.30	0	5.1730	0	33.7960	0	26.703	0	218.309	0	-1e10	8	-1e10	8	-1E+10	1	-1E+10	1	-1E+10	1	-1E+10	1	-1E+10	1	-1E+10	1
4902554	28	C	11/10/2021	17:00	-136.387	49.302	0	221.30	0	5.1670	0	33.7980	0	26.705	0	219.299	0	-1e10	8	-1e10	8	-1E+10	1	-1E+10	1	-1E+10	1	-1E+10	1	-1E+10	1	-1E+10	1
4902554	28	C	11/10/2021	17:00	-136.387	49.302	0	222.40	0	5.1630	0	33.7960	0	26.704	0	220.389	0	-1e10	8	-1e10	8	-1E+10	1	-1E+10	1	-1E+10	1	-1E+10	1	-1E+10	1	-1E+10	1
4902554	28	C	11/10/2021	17:00	-136.387	49.302	0	223.40	0	5.1550	0	33.7980	0	26.707	0	221.379	0	-1e10	8	-1e10	8	-1E+10	1	-1E+10	1	-1E+10	1	-1E+10	1	-1E+10	1	-1E+10	1
4902554	28	C	11/10/2021	17:00	-136.387	49.302	0	224.40	0	5.1430	0	33.8000	0	26.710	0	222.370	0	-1e10	8	-1e10	8	-1E+10	1	-1E+10	1	-1E+10	1	-1E+10	1	-1E+10	1	-1E+10	1
4902554	28	C	11/10/2021	17:00	-136.387	49.302	0	225.50	0	5.1110	0	33.7970	0	26.711	0	223.459	0	-1e10	8	-1e10	8	-1E+10	1	-1E+10	1	-1E+10	1	-1E+10	1	-1E+10	1	-1E+10	1
4902554	28	C	11/10/2021	17:00	-136.387	49.302	0	226.50	0	5.1040	0	33.7990	0	26.713	0	224.449	0	-1e10	8	-1e10	8	-1E+10	1	-1E+10	1	-1E+10	1	-1E+10	1	-1E+10	1	-1E+10	1
4902554	28	C	11/10/2021	17:00	-136.387	49.302	0	227.60	0	5.0880	0	33.8030	0	26.718	0	225.539	0	-1e10	8	-1e10	8	-1E+10	1	-1E+10	1	-1E+10	1	-1E+10	1	-1E+10	1	-1E+10	1
4902554	28	C	11/10/2021	17:00	-136.387	49.302	0	228.60	0	5.0790	0	33.8020	0	26.719	0	226.529	0	-1e10	8	-1e10	8	-1E+10	1	-1E+10	1	-1E+10	1	-1E+10	1	-1E+10	1	-1E+10	1
4902554	28	C	11/10/2021	17:00	-136.387	49.302	0	229.70	0	5.0680	0	33.8020	0	26.720	0	227.619	0	-1e10	8	-1e10	8	-1E+10	1	-1E+10	1	-1E+10	1	-1E+10	1	-1E+10	1	-1E+10	1
4902554	28	C	11/10/2021	17:00	-136.387	49.302	0	230.80	0	5.0630	0	33.8030	0	26.721	0	228.708	0	-1e10	8	-1e10	8	-1E+10	1	-1E+10	1	-1E+10	1	-1E+10	1	-1E+10	1	-1E+10	1
4902554	28	C	11/10/2021	17:00	-136.387	49.302	0	231.80	0	5.0580	0	33.8030	0	26.722	0	229.699	0	-1e10	8	-1e10	8	-1E+10	1	-1E+10	1	-1E+10	1	-1E+10	1	-1E+10	1	-1E+10	1
4902554	28	C	11/10/2021	17:00	-136.387	49.302	0	232.90	0	5.0470	0	33.8070	0	26.726	0	230.788	0	-1e10	8	-1e10	8	-1E+10	1	-1E+10	1	-1E+10	1	-1E+10	1	-1E+10	1	-1E+10	1
4902554	28	C	11/10/2021	17:00	-136.387	49.302	0	233.90	0	5.0340	0	33.8060	0	26.727	0	231.778	0	-1e10	8	-1e10	8	-1E+10	1	-1E+10	1	-1E+10	1	-1E+10	1	-1E+10	1	-1E+10	1
4902554	28	C	11/10/2021	17:00	-136.387	49.302	0	235.00	0	5.0270	0	33.8060	0	26.728	0	232.868	0	-1e10	8	-1e10	8	-1E+10	1	-1E+10	1	-1E+10	1	-1E+10	1	-1E+10	1	-1E+10	1
4902554	28	C	11/10/2021	17:00	-136.387	49.302	0	236.00	0	5.0230	0	33.8080	0	26.730	0	233.858	0	-1e10	8	-1e10	8	-1E+10	1	-1E+10	1	-1E+10	1	-1E+10	1	-1E+10	1	-1E+10	1
4902554	28	C	11/10/2021	17:00	-136.387	49.302	0	237.10	0	5.0220	0	33.8070	0	26.729	0	234.947	0	-1e10	8	-1e10	8	-1E+10	1	-1E+10	1	-1E+10	1	-1E+10	1	-1E+10	1	-1E+10	1
4902554	28	C	11/10/2021	17:00	-136.387	49.302	0	238.10	0	5.0220	0	33.8080	0	26.730	0	235.938	0	-1e10	8	-1e10	8	-1E+10	1	-1E+10	1	-1E+10	1	-1E+10	1	-1E+10	1	-1E+10	1
4902554	28	C	11/10/2021	17:00	-136.387	49.302	0	239.20	0	5.0130	0	33.8120	0	26.734	0	237.027	0	-1e10	8	-1e10	8	-1E+10	1	-1E+10	1	-1E+10	1	-1E+10	1	-1E+10	1	-1E+10	1
4902554	28	C	11/10/2021	17:00	-136.387	49.302	0	240.30	0	5.0080	0	33.8110	0	26.734	0	238.117	0	-1e10	8	-1e10	8	-1E+10	1	-1E+10	1	-1E+10	1	-1E+10	1	-1E+10	1	-1E+10	1
4902554	28	C	11/10/2021	17:00	-136.387	49.302	0	241.30	0	5.0040	0	33.8100	0	26.734	0	239.107	0	-1e10	8	-1e10	8	-1E+10	1	-1E+10	1	-1E+10	1	-1E+10	1	-1E+10	1	-1E+10	1
4902554	28	C	11/10/2021	17:00	-136.387	49.302	0	242.40	0	5.0020	0	33.8100	0	26.734	0	240.196	0	-1e10	8	-1e10	8	-1E+10	1	-1E+10	1	-1E+10	1	-1E+10	1	-1E+10	1	-1E+10	1
4902554	28	C	11/10/2021	17:00	-136.387	49.302	0	243.40	0	5.0010	0	33.8100	0	26.734	0	241.187	0	-1e10	8	-1e10	8	-1E+10	1	-1E+10	1	-1E+10	1	-1E+10	1	-1E+10	1	-1E+10	1
4902554	28	C	11/10/2021	17:00	-136.387	49.302	0	244.50	0	4.9950	0	33.8110	0	26.735	0	242.276	0	-1e10	8	-1e10	8	-1E+10	1	-1E+10	1	-1E+10	1	-1E+10	1	-1E+10	1	-1E+10	1
4902554	28	C	11/10/2021	17:00	-136.387	49.302	0	245.50	0	4.9930	0	33.8110	0	26.736	0	243.266	0	-1e10	8	-1e10	8	-1E+10	1	-1E+10	1	-1E+10	1	-1E+10	1	-1E+10	1	-1E+10	1
4902554	28	C	11/10/2021	17:00	-136.387	49.302	0	246.60	0	4.9860	0	33.8100	0	26.736	0	244.356	0	-1e10	8	-1e10	8	-1E+10	1	-1E+10	1	-1E+10	1	-1E+10	1	-1E+10	1	-1E+10	1
4902554	28	C	11/10/2021	17:00	-136.387	49.302	0	247.60	0	4.9660	0	33.8220	0	26.747	0	245.346	0	-1e10	8	-1e10	8	-1E+10	1	-1E+10	1	-1E+10	1	-1E+10	1	-1E+10	1	-1E+10	1
4902554	28	C	11/10/2021	17:00	-136.387	49.302	0	248.70	0	4.9510	0	33.8160	0	26.744	0	246.435	0	-1e10	8	-1e10	8	-1E+10	1	-1E+10	1	-1E+10	1	-1E+10	1	-1E+10	1	-1E+10	1
4902554	28	C	11/10/2021	17:00	-136.387	49.302	0	249.70	0	4.9480	0	33.8140	0	26.743	0	247.426	0	-1e10	8	-1e10	8	-1E+10	1	-1E+10	1	-1E+10	1	-1E+10	1	-1E+10	1	-1E+10	1
4902554	28	C	11/10/2021	17:00	-136.387	49.302	0	250.70	0	4.9430	0	33.8140	0	26.744	0	248.416	0	-1e10	8	-1e10	8	-1E+10	1	-1E+10	1	-1E+10	1	-1E+10	1	-1E+10	1	-1E+10	1
4902554	28	C	11/10/2021	17:00	-136.387	49.302	0	251.80	0	4.9280	0	33.8190	0	26.749	0	249.505	0	-1e10	8	-1e10	8	-1E+10	1	-1E+10	1	-1E+10	1	-1E+10	1	-1E+10	1	-1E+10	1
4902554	28	C	11/10/2021	17:00	-136.387	49.302	0	252.90	0	4.9110	0	33.8190	0	26.751	0	250.594	0	-1e10	8	-1e10	8	-1E+10	1	-1E+10	1	-1E+10	1	-1E+10	1	-1E+10	1	-1E+10	1
4902554	28	C	11/10/2021	17:00	-136.387	49.302	0	253.90	0	4.9070	0	33.8190	0	26.752	0	251.585	0	-1e10	8	-1e10	8	-1E+10	1	-1E+10	1	-1E+10	1	-1E+10	1	-1E+10	1	-1E+10	1
4902554	28	C	11/10/2021	17:00	-136.387	49.302	0	255.00	0	4.9020	0	33.8200	0	26.753	0	252.674	0	-1e10	8	-1e10	8	-1E+10	1	-1E+10	1	-1E+10	1	-1E+10	1	-1E+10	1	-1E+10	1
4902554	28	C	11/10/2021	17:00	-136.387	49.302	0	256.00	0	4.8980	0	33.8200	0	26.754	0	253.664	0	-1e10	8	-1e10	8	-1E+10	1	-1E+10	1	-1E+10	1	-1E+10	1	-1E+10	1	-1E+10	1
4902554	28	C	11/10/2021	17:00	-136.387	49.302	0	257.10	0	4.8890	0	33.8210	0	26.755	0	254.754	0	-1e10	8	-1e10	8	-1E+10	1	-1E+10	1	-1E+10	1	-1E+10	1	-1E+10	1	-1E+10	1
4902554	28	C	11/10/2021	17:00	-136.387	49.302	0	258.10	0	4.8780	0	33.8220	0	26.757	0	255.744	0	-1e10	8	-1e10	8	-1E+10	1	-1E+10	1	-1E+10	1	-1E+10	1	-1E+10	1	-1E+10	1
4902554	28	C	11/10/2021	17:00	-136.387	49.302	0	259.20	0	4.8710	0	33.8230	0	26.759	0	256.833	0	-1e10	8	-1e10	8	-1E+10	1	-1E+10	1	-1E+10	1	-1E+10	1	-1E+10	1	-1E+10	1
4902554	28	C	11/10/2021	17:00	-136.387	49.302	0	260.20	0	4.8670	0	33.8230	0	26.759	0	257.823	0	-1e10	8	-1e10	8	-1E+10	1	-1E+10	1	-1E+10	1	-1E+10	1	-1E+10	1	-1E+10	1
4902554	28	C	11/10/2021	17:00	-136.387	49.302	0	261.30	0	4.8630	0	33.8230	0	26.760	0	258.913	0	-1e10	8	-1e10	8	-1E+10	1	-1E+10	1	-1E+10	1	-1E+10	1	-1E+10	1	-1E+10	1
4902554	28	C	11/10/2021	17:00	-136.387	49.302	0	262.30	0	4.8610	0	33.8240	0	26.761	0	259.903	0	-1e10	8	-1e10	8	-1E+10	1	-1E+10	1	-1E+10	1	-1E+10	1	-1E+10	1	-1E+10	1
4902554	28	C	11/10/2021	17:00	-136.387	49.302	0	263.40	0	4.8610	0	33.8240	0	26.761	0	260.992	0	-1e10	8	-1e10	8	-1E+10	1	-1E+10	1	-1E+10	1	-1E+10	1	-1E+10	1	-1E+10	1
4902554	28	C	11/10/2021	17:00	-136.387	49.302	0	264.40	0	4.8560	0	33.8250	0	26.762	0	261.982	0	-1e10	8	-1e10	8	-1E+10	1	-1E+10	1	-1E+10	1	-1E+10	1	-1E+10	1	-1E+10	1
4902554	28	C	11/10/2021	17:00	-136.387	49.302	0	265.40	0	4.8550	0	33.8250	0	26.762	0	262.973	0	-1e10	8	-1e10	8	-1E+10	1	-1E+10	1	-1E+10	1	-1E+10	1	-1E+10	1	-1E+10	1
4902554	28	C	11/10/2021	17:00	-136.387	49.302	0	266.30	0	4.8500	0	33.8260	0	26.764	0	263.864	0	-1e10	8	-1e10	8	-1E+10	1	-1E+10	1	-1E+10	1	-1E+10	1	-1E+10	1	-1E+10	1
4902554	28	C	11/10/2021	17:00	-136.387	49.302	0	267.30	0	4.8440	0	33.8270	0	26.765	0	264.854	0	-1e10	8	-1e10	8	-1E+10	1	-1E+10	1	-1E+10	1	-1E+10	1	-1E+10	1	-1E+10	1
4902554	28	C	11/10/2021	17:00	-136.387	49.302	0	268.00	0	4.8400	0	33.8270	0	26.766	0	265.547	0	-1e10	8	-1e10	8	-1E+10	1	-1E+10	1	-1E+10	1	-1E+10	1	-1E+10	1	-1E+10	1
4902554	28	C	11/10/2021	17:00	-136.387	49.302	0	268.80	0	4.8350	0	33.8270	0	26.766	0	266.339	0	-1e10	8	-1e10	8	-1E+10	1	-1E+10	1	-1E+10	1	-1E+10	1	-1E+10	1	-1E+10	1
4902554	28	C	11/10/2021	17:00	-136.387	49.302	0	269.90	0	4.8250	0	33.8290	0	26.769	0	267.428	0	-1e10	8	-1e10	8	-1E+10	1	-1E+10	1	-1E+10	1	-1E+10	1	-1E+10	1	-1E+10	1
4902554	28	C	11/10/2021	17:00	-136.387	49.302	0	271.00	0	4.8180	0	33.8310	0	26.771	0	268.518	0	-1e10	8	-1e10	8	-1E+10	1	-1E+10	1	-1E+10	1	-1E+10	1	-1E+10	1	-1E+10	1
4902554	28	C	11/10/2021	17:00	-136.387	49.302	0	271.80	0	4.8130	0	33.8320	0	26.773	0	269.310	0	-1e10	8	-1e10	8	-1E+10	1	-1E+10	1	-1E+10	1	-1E+10	1	-1E+10	1	-1E+10	1
4902554	28	C	11/10/2021	17:00	-136.387	49.302	0	272.90	0	4.8090	0	33.8330	0	26.774	0	270.399	0	-1e10	8	-1e10	8	-1E+10	1	-1E+10	1	-1E+10	1	-1E+10	1	-1E+10	1	-1E+10	1
4902554	28	C	11/10/2021	17:00	-136.387	49.302	0	274.10	0	4.8080	0	33.8330	0	26.774	0	271.587	0	-1e10	8	-1e10	8	-1E+10	1	-1E+10	1	-1E+10	1	-1E+10	1	-1E+10	1	-1E+10	1
4902554	28	C	11/10/2021	17:00	-136.387	49.302	0	274.90	0	4.8070	0	33.8330	0	26.774	0	272.379	0	-1e10	8	-1e10	8	-1E+10	1	-1E+10	1	-1E+10	1	-1E+10	1	-1E+10	1	-1E+10	1
4902554	28	C	11/10/2021	17:00	-136.387	49.302	0	276.00	0	4.7940	0	33.8350	0	26.777	0	273.469	0	-1e10	8	-1e10	8	-1E+10	1	-1E+10	1	-1E+10	1	-1E+10	1	-1E+10	1	-1E+10	1
4902554	28	C	11/10/2021	17:00	-136.387	49.302	0	277.20	0	4.7880	0	33.8360	0	26.779	0	274.657	0	-1e10	8	-1e10	8	-1E+10	1	-1E+10	1	-1E+10	1	-1E+10	1	-1E+10	1	-1E+10	1
4902554	28	C	11/10/2021	17:00	-136.387	49.302	0	278.00	0	4.7850	0	33.8370	0	26.780	0	275.449	0	-1e10	8	-1e10	8	-1E+10	1	-1E+10	1	-1E+10	1	-1E+10	1	-1E+10	1	-1E+10	1
4902554	28	C	11/10/2021	17:00	-136.387	49.302	0	278.80	0	4.7840	0	33.8370	0	26.780	0	276.241	0	-1e10	8	-1e10	8	-1E+10	1	-1E+10	1	-1E+10	1	-1E+10	1	-1E+10	1	-1E+10	1
4902554	28	C	11/10/2021	17:00	-136.387	49.302	0	280.00	0	4.7830	0	33.8370	0	26.780	0	277.429	0	-1e10	8	-1e10	8	-1E+10	1	-1E+10	1	-1E+10	1	-1E+10	1	-1E+10	1	-1E+10	1
4902554	28	C	11/10/2021	17:00	-136.387	49.302	0	281.20	0	4.7800	0	33.8370	0	26.780	0	278.617	0	-1e10	8	-1e10	8	-1E+10	1	-1E+10	1	-1E+10	1	-1E+10	1	-1E+10	1	-1E+10	1
4902554	28	C	11/10/2021	17:00	-136.387	49.302	0	282.00	0	4.7760	0	33.8380	0	26.782	0	279.410	0	-1e10	8	-1e10	8	-1E+10	1	-1E+10	1	-1E+10	1	-1E+10	1	-1E+10	1	-1E+10	1
4902554	28	C	11/10/2021	17:00	-136.387	49.302	0	282.80	0	4.7730	0	33.8390	0	26.783	0	280.202	0	-1e10	8	-1e10	8	-1E+10	1	-1E+10	1	-1E+10	1	-1E+10	1	-1E+10	1	-1E+10	1
4902554	28	C	11/10/2021	17:00	-136.387	49.302	0	283.60	0	4.7700	0	33.8390	0	26.783	0	280.994	0	-1e10	8	-1e10	8	-1E+10	1	-1E+10	1	-1E+10	1	-1E+10	1	-1E+10	1	-1E+10	1
4902554	28	C	11/10/2021	17:00	-136.387	49.302	0	284.90	0	4.7600	0	33.8410	0	26.786	0	282.281	0	-1e10	8	-1e10	8	-1E+10	1	-1E+10	1	-1E+10	1	-1E+10	1	-1E+10	1	-1E+10	1
4902554	28	C	11/10/2021	17:00	-136.387	49.302	0	286.10	0	4.7500	0	33.8430	0	26.789	0	283.469	0	-1e10	8	-1e10	8	-1E+10	1	-1E+10	1	-1E+10	1	-1E+10	1	-1E+10	1	-1E+10	1
4902554	28	C	11/10/2021	17:00	-136.387	49.302	0	286.90	0	4.7420	0	33.8440	0	26.790	0	284.261	0	-1e10	8	-1e10	8	-1E+10	1	-1E+10	1	-1E+10	1	-1E+10	1	-1E+10	1	-1E+10	1
4902554	28	C	11/10/2021	17:00	-136.387	49.302	0	287.80	0	4.7390	0	33.8440	0	26.791	0	285.152	0	-1e10	8	-1e10	8	-1E+10	1	-1E+10	1	-1E+10	1	-1E+10	1	-1E+10	1	-1E+10	1
4902554	28	C	11/10/2021	17:00	-136.387	49.302	0	288.60	0	4.7360	0	33.8440	0	26.791	0	285.944	0	-1e10	8	-1e10	8	-1E+10	1	-1E+10	1	-1E+10	1	-1E+10	1	-1E+10	1	-1E+10	1
4902554	28	C	11/10/2021	17:00	-136.387	49.302	0	289.90	0	4.7320	0	33.8450	0	26.792	0	287.231	0	-1e10	8	-1e10	8	-1E+10	1	-1E+10	1	-1E+10	1	-1E+10	1	-1E+10	1	-1E+10	1
4902554	28	C	11/10/2021	17:00	-136.387	49.302	0	291.20	0	4.7290	0	33.8450	0	26.792	0	288.519	0	-1e10	8	-1e10	8	-1E+10	1	-1E+10	1	-1E+10	1	-1E+10	1	-1E+10	1	-1E+10	1
4902554	28	C	11/10/2021	17:00	-136.387	49.302	0	292.00	0	4.7270	0	33.8460	0	26.794	0	289.311	0	-1e10	8	-1e10	8	-1E+10	1	-1E+10	1	-1E+10	1	-1E+10	1	-1E+10	1	-1E+10	1
4902554	28	C	11/10/2021	17:00	-136.387	49.302	0	292.90	0	4.7230	0	33.8470	0	26.795	0	290.202	0	-1e10	8	-1e10	8	-1E+10	1	-1E+10	1	-1E+10	1	-1E+10	1	-1E+10	1	-1E+10	1
4902554	28	C	11/10/2021	17:00	-136.387	49.302	0	293.70	0	4.7190	0	33.8470	0	26.795	0	290.994	0	-1e10	8	-1e10	8	-1E+10	1	-1E+10	1	-1E+10	1	-1E+10	1	-1E+10	1	-1E+10	1
4902554	28	C	11/10/2021	17:00	-136.387	49.302	0	295.00	0	4.7160	0	33.8480	0	26.796	0	292.281	0	-1e10	8	-1e10	8	-1E+10	1	-1E+10	1	-1E+10	1	-1E+10	1	-1E+10	1	-1E+10	1
4902554	28	C	11/10/2021	17:00	-136.387	49.302	0	296.30	0	4.7140	0	33.8480	0	26.797	0	293.568	0	-1e10	8	-1e10	8	-1E+10	1	-1E+10	1	-1E+10	1	-1E+10	1	-1E+10	1	-1E+10	1
4902554	28	C	11/10/2021	17:00	-136.387	49.302	0	297.10	0	4.6970	0	33.8520	0	26.802	0	294.360	0	-1e10	8	-1e10	8	-1E+10	1	-1E+10	1	-1E+10	1	-1E+10	1	-1E+10	1	-1E+10	1
4902554	28	C	11/10/2021	17:00	-136.387	49.302	0	298.00	0	4.6900	0	33.8520	0	26.802	0	295.251	0	-1e10	8	-1e10	8	-1E+10	1	-1E+10	1	-1E+10	1	-1E+10	1	-1E+10	1	-1E+10	1
4902554	28	C	11/10/2021	17:00	-136.387	49.302	0	298.90	0	4.6840	0	33.8530	0	26.804	0	296.142	0	-1e10	8	-1e10	8	-1E+10	1	-1E+10	1	-1E+10	1	-1E+10	1	-1E+10	1	-1E+10	1
4902554	28	C	11/10/2021	17:00	-136.387	49.302	0	299.80	0	4.6770	0	33.8560	0	26.807	0	297.033	0	-1e10	8	-1e10	8	-1E+10	1	-1E+10	1	-1E+10	1	-1E+10	1	-1E+10	1	-1E+10	1
4902554	28	C	11/10/2021	17:00	-136.387	49.302	0	300.70	0	4.6720	0	33.8570	0	26.808	0	297.924	0	-1e10	8	-1e10	8	-1E+10	1	-1E+10	1	-1E+10	1	-1E+10	1	-1E+10	1	-1E+10	1
4902554	28	C	11/10/2021	17:00	-136.387	49.302	0	301.90	0	4.6660	0	33.8580	0	26.810	0	299.112	0	-1e10	8	-1e10	8	-1E+10	1	-1E+10	1	-1E+10	1	-1E+10	1	-1E+10	1	-1E+10	1
4902554	28	C	11/10/2021	17:00	-136.387	49.302	0	303.30	0	4.6660	0	33.8580	0	26.810	0	300.498	0	-1e10	8	-1e10	8	-1E+10	1	-1E+10	1	-1E+10	1	-1E+10	1	-1E+10	1	-1E+10	1
4902554	28	C	11/10/2021	17:00	-136.387	49.302	0	304.20	0	4.6650	0	33.8580	0	26.810	0	301.389	0	-1e10	8	-1e10	8	-1E+10	1	-1E+10	1	-1E+10	1	-1E+10	1	-1E+10	1	-1E+10	1
4902554	28	C	11/10/2021	17:00	-136.387	49.302	0	305.10	0	4.6640	0	33.8590	0	26.811	0	302.280	0	-1e10	8	-1e10	8	-1E+10	1	-1E+10	1	-1E+10	1	-1E+10	1	-1E+10	1	-1E+10	1
4902554	28	C	11/10/2021	17:00	-136.387	49.302	0	306.00	0	4.6630	0	33.8590	0	26.811	0	303.171	0	-1e10	8	-1e10	8	-1E+10	1	-1E+10	1	-1E+10	1	-1E+10	1	-1E+10	1	-1E+10	1
4902554	28	C	11/10/2021	17:00	-136.387	49.302	0	306.90	0	4.6630	0	33.8590	0	26.811	0	304.063	0	-1e10	8	-1e10	8	-1E+10	1	-1E+10	1	-1E+10	1	-1E+10	1	-1E+10	1	-1E+10	1
4902554	28	C	11/10/2021	17:00	-136.387	49.302	0	307.80	0	4.6610	0	33.8590	0	26.811	0	304.954	0	-1e10	8	-1e10	8	-1E+10	1	-1E+10	1	-1E+10	1	-1E+10	1	-1E+10	1	-1E+10	1
4902554	28	C	11/10/2021	17:00	-136.387	49.302	0	308.60	0	4.6590	0	33.8590	0	26.811	0	305.746	0	-1e10	8	-1e10	8	-1E+10	1	-1E+10	1	-1E+10	1	-1E+10	1	-1E+10	1	-1E+10	1
4902554	28	C	11/10/2021	17:00	-136.387	49.302	0	309.90	0	4.6510	0	33.8620	0	26.815	0	307.033	0	-1e10	8	-1e10	8	-1E+10	1	-1E+10	1	-1E+10	1	-1E+10	1	-1E+10	1	-1E+10	1
4902554	28	C	11/10/2021	17:00	-136.387	49.302	0	311.30	0	4.6420	0	33.8640	0	26.817	0	308.419	0	-1e10	8	-1e10	8	-1E+10	1	-1E+10	1	-1E+10	1	-1E+10	1	-1E+10	1	-1E+10	1
4902554	28	C	11/10/2021	17:00	-136.387	49.302	0	312.20	0	4.6340	0	33.8660	0	26.820	0	309.310	0	-1e10	8	-1e10	8	-1E+10	1	-1E+10	1	-1E+10	1	-1E+10	1	-1E+10	1	-1E+10	1
4902554	28	C	11/10/2021	17:00	-136.387	49.302	0	313.10	0	4.6330	0	33.8670	0	26.821	0	310.201	0	-1e10	8	-1e10	8	-1E+10	1	-1E+10	1	-1E+10	1	-1E+10	1	-1E+10	1	-1E+10	1
4902554	28	C	11/10/2021	17:00	-136.387	49.302	0	313.90	0	4.6300	0	33.8670	0	26.821	0	310.993	0	-1e10	8	-1e10	8	-1E+10	1	-1E+10	1	-1E+10	1	-1E+10	1	-1E+10	1	-1E+10	1
4902554	28	C	11/10/2021	17:00	-136.387	49.302	0	314.80	0	4.6270	0	33.8680	0	26.822	0	311.884	0	-1e10	8	-1e10	8	-1E+10	1	-1E+10	1	-1E+10	1	-1E+10	1	-1E+10	1	-1E+10	1
4902554	28	C	11/10/2021	17:00	-136.387	49.302	0	315.70	0	4.6210	0	33.8700	0	26.824	0	312.775	0	-1e10	8	-1e10	8	-1E+10	1	-1E+10	1	-1E+10	1	-1E+10	1	-1E+10	1	-1E+10	1
4902554	28	C	11/10/2021	17:00	-136.387	49.302	0	316.60	0	4.6160	0	33.8720	0	26.826	0	313.665	0	-1e10	8	-1e10	8	-1E+10	1	-1E+10	1	-1E+10	1	-1E+10	1	-1E+10	1	-1E+10	1
4902554	28	C	11/10/2021	17:00	-136.387	49.302	0	317.90	0	4.6170	0	33.8710	0	26.826	0	314.952	0	-1e10	8	-1e10	8	-1E+10	1	-1E+10	1	-1E+10	1	-1E+10	1	-1E+10	1	-1E+10	1
4902554	28	C	11/10/2021	17:00	-136.387	49.302	0	319.30	0	4.6190	0	33.8730	0	26.827	0	316.338	0	-1e10	8	-1e10	8	-1E+10	1	-1E+10	1	-1E+10	1	-1E+10	1	-1E+10	1	-1E+10	1
4902554	28	C	11/10/2021	17:00	-136.387	49.302	0	320.20	0	4.6100	0	33.8750	0	26.830	0	317.229	0	-1e10	8	-1e10	8	-1E+10	1	-1E+10	1	-1E+10	1	-1E+10	1	-1E+10	1	-1E+10	1
4902554	28	C	11/10/2021	17:00	-136.387	49.302	0	321.10	0	4.6090	0	33.8760	0	26.830	0	318.120	0	-1e10	8	-1e10	8	-1E+10	1	-1E+10	1	-1E+10	1	-1E+10	1	-1E+10	1	-1E+10	1
4902554	28	C	11/10/2021	17:00	-136.387	49.302	0	322.00	0	4.6070	0	33.8780	0	26.832	0	319.011	0	-1e10	8	-1e10	8	-1E+10	1	-1E+10	1	-1E+10	1	-1E+10	1	-1E+10	1	-1E+10	1
4902554	28	C	11/10/2021	17:00	-136.387	49.302	0	322.90	0	4.6070	0	33.8790	0	26.833	0	319.902	0	-1e10	8	-1e10	8	-1E+10	1	-1E+10	1	-1E+10	1	-1E+10	1	-1E+10	1	-1E+10	1
4902554	28	C	11/10/2021	17:00	-136.387	49.302	0	323.80	0	4.6020	0	33.8800	0	26.834	0	320.793	0	-1e10	8	-1e10	8	-1E+10	1	-1E+10	1	-1E+10	1	-1E+10	1	-1E+10	1	-1E+10	1
4902554	28	C	11/10/2021	17:00	-136.387	49.302	0	324.70	0	4.5940	0	33.8810	0	26.836	0	321.684	0	-1e10	8	-1e10	8	-1E+10	1	-1E+10	1	-1E+10	1	-1E+10	1	-1E+10	1	-1E+10	1
4902554	28	C	11/10/2021	17:00	-136.387	49.302	0	325.70	0	4.5900	0	33.8820	0	26.837	0	322.674	0	-1e10	8	-1e10	8	-1E+10	1	-1E+10	1	-1E+10	1	-1E+10	1	-1E+10	1	-1E+10	1
4902554	28	C	11/10/2021	17:00	-136.387	49.302	0	326.60	0	4.5820	0	33.8840	0	26.840	0	323.565	0	-1e10	8	-1e10	8	-1E+10	1	-1E+10	1	-1E+10	1	-1E+10	1	-1E+10	1	-1E+10	1
4902554	28	C	11/10/2021	17:00	-136.387	49.302	0	327.90	0	4.5820	0	33.8840	0	26.840	0	324.852	0	-1e10	8	-1e10	8	-1E+10	1	-1E+10	1	-1E+10	1	-1E+10	1	-1E+10	1	-1E+10	1
4902554	28	C	11/10/2021	17:00	-136.387	49.302	0	329.30	0	4.5810	0	33.8850	0	26.841	0	326.238	0	-1e10	8	-1e10	8	-1E+10	1	-1E+10	1	-1E+10	1	-1E+10	1	-1E+10	1	-1E+10	1
4902554	28	C	11/10/2021	17:00	-136.387	49.302	0	330.20	0	4.5780	0	33.8860	0	26.842	0	327.129	0	-1e10	8	-1e10	8	-1E+10	1	-1E+10	1	-1E+10	1	-1E+10	1	-1E+10	1	-1E+10	1
4902554	28	C	11/10/2021	17:00	-136.387	49.302	0	331.10	0	4.5740	0	33.8870	0	26.843	0	328.020	0	-1e10	8	-1e10	8	-1E+10	1	-1E+10	1	-1E+10	1	-1E+10	1	-1E+10	1	-1E+10	1
4902554	28	C	11/10/2021	17:00	-136.387	49.302	0	332.00	0	4.5670	0	33.8900	0	26.846	0	328.911	0	-1e10	8	-1e10	8	-1E+10	1	-1E+10	1	-1E+10	1	-1E+10	1	-1E+10	1	-1E+10	1
4902554	28	C	11/10/2021	17:00	-136.387	49.302	0	332.90	0	4.5480	0	33.8910	0	26.849	0	329.801	0	-1e10	8	-1e10	8	-1E+10	1	-1E+10	1	-1E+10	1	-1E+10	1	-1E+10	1	-1E+10	1
4902554	28	C	11/10/2021	17:00	-136.387	49.302	0	333.80	0	4.5460	0	33.8910	0	26.849	0	330.692	0	-1e10	8	-1e10	8	-1E+10	1	-1E+10	1	-1E+10	1	-1E+10	1	-1E+10	1	-1E+10	1
4902554	28	C	11/10/2021	17:00	-136.387	49.302	0	334.70	0	4.5440	0	33.8910	0	26.850	0	331.583	0	-1e10	8	-1e10	8	-1E+10	1	-1E+10	1	-1E+10	1	-1E+10	1	-1E+10	1	-1E+10	1
4902554	28	C	11/10/2021	17:00	-136.387	49.302	0	335.70	0	4.5420	0	33.8910	0	26.850	0	332.573	0	-1e10	8	-1e10	8	-1E+10	1	-1E+10	1	-1E+10	1	-1E+10	1	-1E+10	1	-1E+10	1
4902554	28	C	11/10/2021	17:00	-136.387	49.302	0	336.60	0	4.5380	0	33.8930	0	26.852	0	333.464	0	-1e10	8	-1e10	8	-1E+10	1	-1E+10	1	-1E+10	1	-1E+10	1	-1E+10	1	-1E+10	1
4902554	28	C	11/10/2021	17:00	-136.387	49.302	0	337.90	0	4.5340	0	33.8930	0	26.852	0	334.751	0	-1e10	8	-1e10	8	-1E+10	1	-1E+10	1	-1E+10	1	-1E+10	1	-1E+10	1	-1E+10	1
4902554	28	C	11/10/2021	17:00	-136.387	49.302	0	339.30	0	4.5310	0	33.8950	0	26.854	0	336.137	0	-1e10	8	-1e10	8	-1E+10	1	-1E+10	1	-1E+10	1	-1E+10	1	-1E+10	1	-1E+10	1
4902554	28	C	11/10/2021	17:00	-136.387	49.302	0	340.30	0	4.5220	0	33.8980	0	26.857	0	337.127	0	-1e10	8	-1e10	8	-1E+10	1	-1E+10	1	-1E+10	1	-1E+10	1	-1E+10	1	-1E+10	1
4902554	28	C	11/10/2021	17:00	-136.387	49.302	0	341.20	0	4.5190	0	33.8990	0	26.859	0	338.017	0	-1e10	8	-1e10	8	-1E+10	1	-1E+10	1	-1E+10	1	-1E+10	1	-1E+10	1	-1E+10	1
4902554	28	C	11/10/2021	17:00	-136.387	49.302	0	342.10	0	4.5190	0	33.8990	0	26.859	0	338.908	0	-1e10	8	-1e10	8	-1E+10	1	-1E+10	1	-1E+10	1	-1E+10	1	-1E+10	1	-1E+10	1
4902554	28	C	11/10/2021	17:00	-136.387	49.302	0	343.00	0	4.5170	0	33.9000	0	26.860	0	339.799	0	-1e10	8	-1e10	8	-1E+10	1	-1E+10	1	-1E+10	1	-1E+10	1	-1E+10	1	-1E+10	1
4902554	28	C	11/10/2021	17:00	-136.387	49.302	0	344.00	0	4.5130	0	33.9020	0	26.862	0	340.789	0	-1e10	8	-1e10	8	-1E+10	1	-1E+10	1	-1E+10	1	-1E+10	1	-1E+10	1	-1E+10	1
4902554	28	C	11/10/2021	17:00	-136.387	49.302	0	344.90	0	4.5120	0	33.9030	0	26.863	0	341.680	0	-1e10	8	-1e10	8	-1E+10	1	-1E+10	1	-1E+10	1	-1E+10	1	-1E+10	1	-1E+10	1
4902554	28	C	11/10/2021	17:00	-136.387	49.302	0	345.80	0	4.5120	0	33.9030	0	26.863	0	342.571	0	-1e10	8	-1e10	8	-1E+10	1	-1E+10	1	-1E+10	1	-1E+10	1	-1E+10	1	-1E+10	1
4902554	28	C	11/10/2021	17:00	-136.387	49.302	0	346.80	0	4.5120	0	33.9030	0	26.863	0	343.561	0	-1e10	8	-1e10	8	-1E+10	1	-1E+10	1	-1E+10	1	-1E+10	1	-1E+10	1	-1E+10	1
4902554	28	C	11/10/2021	17:00	-136.387	49.302	0	347.70	0	4.5120	0	33.9030	0	26.863	0	344.451	0	-1e10	8	-1e10	8	-1E+10	1	-1E+10	1	-1E+10	1	-1E+10	1	-1E+10	1	-1E+10	1
4902554	28	C	11/10/2021	17:00	-136.387	49.302	0	348.60	0	4.5090	0	33.9060	0	26.865	0	345.342	0	-1e10	8	-1e10	8	-1E+10	1	-1E+10	1	-1E+10	1	-1E+10	1	-1E+10	1	-1E+10	1
4902554	28	C	11/10/2021	17:00	-136.387	49.302	0	349.60	0	4.5030	0	33.9080	0	26.868	0	346.332	0	-1e10	8	-1e10	8	-1E+10	1	-1E+10	1	-1E+10	1	-1E+10	1	-1E+10	1	-1E+10	1
4902554	28	C	11/10/2021	17:00	-136.387	49.302	0	352.80	0	4.5130	0	33.9130	0	26.870	0	349.499	0	-1e10	8	-1e10	8	-1E+10	1	-1E+10	1	-1E+10	1	-1E+10	1	-1E+10	1	-1E+10	1
4902554	28	C	11/10/2021	17:00	-136.387	49.302	0	358.00	0	4.5240	0	33.9240	0	26.878	0	354.646	0	-1e10	8	-1e10	8	-1E+10	1	-1E+10	1	-1E+10	1	-1E+10	1	-1E+10	1	-1E+10	1
4902554	28	C	11/10/2021	17:00	-136.387	49.302	0	362.60	0	4.5160	0	33.9270	0	26.881	0	359.199	0	-1e10	8	-1e10	8	-1E+10	1	-1E+10	1	-1E+10	1	-1E+10	1	-1E+10	1	-1E+10	1
4902554	28	C	11/10/2021	17:00	-136.387	49.302	0	367.80	0	4.4960	0	33.9320	0	26.888	0	364.346	0	-1e10	8	-1e10	8	-1E+10	1	-1E+10	1	-1E+10	1	-1E+10	1	-1E+10	1	-1E+10	1
4902554	28	C	11/10/2021	17:00	-136.387	49.302	0	373.10	0	4.4910	0	33.9330	0	26.889	0	369.591	0	-1e10	8	-1e10	8	-1E+10	1	-1E+10	1	-1E+10	1	-1E+10	1	-1E+10	1	-1E+10	1
4902554	28	C	11/10/2021	17:00	-136.387	49.302	0	377.80	0	4.4890	0	33.9410	0	26.896	0	374.243	0	-1e10	8	-1e10	8	-1E+10	1	-1E+10	1	-1E+10	1	-1E+10	1	-1E+10	1	-1E+10	1
4902554	28	C	11/10/2021	17:00	-136.387	49.302	0	383.00	0	4.4830	0	33.9480	0	26.902	0	379.389	0	-1e10	8	-1e10	8	-1E+10	1	-1E+10	1	-1E+10	1	-1E+10	1	-1E+10	1	-1E+10	1
4902554	28	C	11/10/2021	17:00	-136.387	49.302	0	388.10	0	4.4730	0	33.9560	0	26.909	0	384.436	0	-1e10	8	-1e10	8	-1E+10	1	-1E+10	1	-1E+10	1	-1E+10	1	-1E+10	1	-1E+10	1
4902554	28	C	11/10/2021	17:00	-136.387	49.302	0	392.70	0	4.4550	0	33.9640	0	26.918	0	388.989	0	-1e10	8	-1e10	8	-1E+10	1	-1E+10	1	-1E+10	1	-1E+10	1	-1E+10	1	-1E+10	1
4902554	28	C	11/10/2021	17:00	-136.387	49.302	0	397.70	0	4.4490	0	33.9670	0	26.921	0	393.937	0	-1e10	8	-1e10	8	-1E+10	1	-1E+10	1	-1E+10	1	-1E+10	1	-1E+10	1	-1E+10	1
4902554	28	C	11/10/2021	17:00	-136.387	49.302	0	402.80	0	4.4360	0	33.9770	0	26.930	0	398.984	0	-1e10	8	-1e10	8	-1E+10	1	-1E+10	1	-1E+10	1	-1E+10	1	-1E+10	1	-1E+10	1
4902554	28	C	11/10/2021	17:00	-136.387	49.302	0	407.80	0	4.4220	0	33.9850	0	26.938	0	403.931	0	-1e10	8	-1e10	8	-1E+10	1	-1E+10	1	-1E+10	1	-1E+10	1	-1E+10	1	-1E+10	1
4902554	28	C	11/10/2021	17:00	-136.387	49.302	0	412.80	0	4.4000	0	33.9940	0	26.947	0	408.879	0	-1e10	8	-1e10	8	-1E+10	1	-1E+10	1	-1E+10	1	-1E+10	1	-1E+10	1	-1E+10	1
4902554	28	C	11/10/2021	17:00	-136.387	49.302	0	417.80	0	4.3810	0	34.0020	0	26.956	0	413.827	0	-1e10	8	-1e10	8	-1E+10	1	-1E+10	1	-1E+10	1	-1E+10	1	-1E+10	1	-1E+10	1
4902554	28	C	11/10/2021	17:00	-136.387	49.302	0	422.90	0	4.3740	0	34.0050	0	26.959	0	418.873	0	-1e10	8	-1e10	8	-1E+10	1	-1E+10	1	-1E+10	1	-1E+10	1	-1E+10	1	-1E+10	1
4902554	28	C	11/10/2021	17:00	-136.387	49.302	0	427.60	0	4.3590	0	34.0110	0	26.965	0	423.523	0	-1e10	8	-1e10	8	-1E+10	1	-1E+10	1	-1E+10	1	-1E+10	1	-1E+10	1	-1E+10	1
4902554	28	C	11/10/2021	17:00	-136.387	49.302	0	432.90	0	4.3350	0	34.0220	0	26.977	0	428.767	0	-1e10	8	-1e10	8	-1E+10	1	-1E+10	1	-1E+10	1	-1E+10	1	-1E+10	1	-1E+10	1
4902554	28	C	11/10/2021	17:00	-136.387	49.302	0	438.20	0	4.3250	0	34.0250	0	26.980	0	434.011	0	-1e10	8	-1e10	8	-1E+10	1	-1E+10	1	-1E+10	1	-1E+10	1	-1E+10	1	-1E+10	1
4902554	28	C	11/10/2021	17:00	-136.387	49.302	0	443.10	0	4.3110	0	34.0290	0	26.985	0	438.859	0	-1e10	8	-1e10	8	-1E+10	1	-1E+10	1	-1E+10	1	-1E+10	1	-1E+10	1	-1E+10	1
4902554	28	C	11/10/2021	17:00	-136.387	49.302	0	448.10	0	4.2910	0	34.0340	0	26.991	0	443.806	0	-1e10	8	-1e10	8	-1E+10	1	-1E+10	1	-1E+10	1	-1E+10	1	-1E+10	1	-1E+10	1
4902554	28	C	11/10/2021	17:00	-136.387	49.302	0	453.10	0	4.2820	0	34.0370	0	26.994	0	448.753	0	-1e10	8	-1e10	8	-1E+10	1	-1E+10	1	-1E+10	1	-1E+10	1	-1E+10	1	-1E+10	1
4902554	28	C	11/10/2021	17:00	-136.387	49.302	0	458.10	0	4.2800	0	34.0450	0	27.001	0	453.699	0	-1e10	8	-1e10	8	-1E+10	1	-1E+10	1	-1E+10	1	-1E+10	1	-1E+10	1	-1E+10	1
4902554	28	C	11/10/2021	17:00	-136.387	49.302	0	463.00	0	4.2720	0	34.0480	0	27.004	0	458.547	0	-1e10	8	-1e10	8	-1E+10	1	-1E+10	1	-1E+10	1	-1E+10	1	-1E+10	1	-1E+10	1
4902554	28	C	11/10/2021	17:00	-136.387	49.302	0	467.80	0	4.2640	0	34.0510	0	27.007	0	463.295	0	-1e10	8	-1e10	8	-1E+10	1	-1E+10	1	-1E+10	1	-1E+10	1	-1E+10	1	-1E+10	1
4902554	28	C	11/10/2021	17:00	-136.387	49.302	0	473.00	0	4.2440	0	34.0540	0	27.012	0	468.439	0	-1e10	8	-1e10	8	-1E+10	1	-1E+10	1	-1E+10	1	-1E+10	1	-1E+10	1	-1E+10	1
4902554	28	C	11/10/2021	17:00	-136.387	49.302	0	477.80	0	4.2260	0	34.0620	0	27.020	0	473.188	0	-1e10	8	-1e10	8	-1E+10	1	-1E+10	1	-1E+10	1	-1E+10	1	-1E+10	1	-1E+10	1
4902554	28	C	11/10/2021	17:00	-136.387	49.302	0	482.90	0	4.2070	0	34.0660	0	27.025	0	478.232	0	-1e10	8	-1e10	8	-1E+10	1	-1E+10	1	-1E+10	1	-1E+10	1	-1E+10	1	-1E+10	1
4902554	28	C	11/10/2021	17:00	-136.387	49.302	0	488.00	0	4.2140	0	34.0720	0	27.030	0	483.277	0	-1e10	8	-1e10	8	-1E+10	1	-1E+10	1	-1E+10	1	-1E+10	1	-1E+10	1	-1E+10	1
4902554	28	C	11/10/2021	17:00	-136.387	49.302	0	492.80	0	4.2130	0	34.0760	0	27.033	0	488.025	0	-1e10	8	-1e10	8	-1E+10	1	-1E+10	1	-1E+10	1	-1E+10	1	-1E+10	1	-1E+10	1
4902554	28	C	11/10/2021	17:00	-136.387	49.302	0	497.70	0	4.1960	0	34.0800	0	27.038	0	492.872	0	-1e10	8	-1e10	8	-1E+10	1	-1E+10	1	-1E+10	1	-1E+10	1	-1E+10	1	-1E+10	1
4902554	28	C	11/10/2021	17:00	-136.387	49.302	0	502.80	0	4.1870	0	34.0830	0	27.041	0	497.916	0	-1e10	8	-1e10	8	-1E+10	1	-1E+10	1	-1E+10	1	-1E+10	1	-1E+10	1	-1E+10	1
4902554	28	C	11/10/2021	17:00	-136.387	49.302	0	507.80	0	4.1690	0	34.0850	0	27.045	0	502.862	0	-1e10	8	-1e10	8	-1E+10	1	-1E+10	1	-1E+10	1	-1E+10	1	-1E+10	1	-1E+10	1
4902554	28	C	11/10/2021	17:00	-136.387	49.302	0	512.80	0	4.1690	0	34.0880	0	27.047	0	507.807	0	-1e10	8	-1e10	8	-1E+10	1	-1E+10	1	-1E+10	1	-1E+10	1	-1E+10	1	-1E+10	1
4902554	28	C	11/10/2021	17:00	-136.387	49.302	0	518.00	0	4.1660	0	34.0930	0	27.051	0	512.950	0	-1e10	8	-1e10	8	-1E+10	1	-1E+10	1	-1E+10	1	-1E+10	1	-1E+10	1	-1E+10	1
4902554	28	C	11/10/2021	17:00	-136.387	49.302	0	523.10	0	4.1520	0	34.0980	0	27.057	0	517.994	0	-1e10	8	-1e10	8	-1E+10	1	-1E+10	1	-1E+10	1	-1E+10	1	-1E+10	1	-1E+10	1
4902554	28	C	11/10/2021	17:00	-136.387	49.302	0	527.80	0	4.1350	0	34.1010	0	27.061	0	522.642	0	-1e10	8	-1e10	8	-1E+10	1	-1E+10	1	-1E+10	1	-1E+10	1	-1E+10	1	-1E+10	1
4902554	28	C	11/10/2021	17:00	-136.387	49.302	0	532.60	0	4.1180	0	34.1030	0	27.065	0	527.389	0	-1e10	8	-1e10	8	-1E+10	1	-1E+10	1	-1E+10	1	-1E+10	1	-1E+10	1	-1E+10	1
4902554	28	C	11/10/2021	17:00	-136.387	49.302	0	537.80	0	4.1070	0	34.1040	0	27.066	0	532.531	0	-1e10	8	-1e10	8	-1E+10	1	-1E+10	1	-1E+10	1	-1E+10	1	-1E+10	1	-1E+10	1
4902554	28	C	11/10/2021	17:00	-136.387	49.302	0	543.10	0	4.0850	0	34.1110	0	27.074	0	537.773	0	-1e10	8	-1e10	8	-1E+10	1	-1E+10	1	-1E+10	1	-1E+10	1	-1E+10	1	-1E+10	1
4902554	28	C	11/10/2021	17:00	-136.387	49.302	0	547.80	0	4.0780	0	34.1130	0	27.077	0	542.420	0	-1e10	8	-1e10	8	-1E+10	1	-1E+10	1	-1E+10	1	-1E+10	1	-1E+10	1	-1E+10	1
4902554	28	C	11/10/2021	17:00	-136.387	49.302	0	552.80	0	4.0700	0	34.1150	0	27.079	0	547.365	0	-1e10	8	-1e10	8	-1E+10	1	-1E+10	1	-1E+10	1	-1E+10	1	-1E+10	1	-1E+10	1
4902554	28	C	11/10/2021	17:00	-136.387	49.302	0	557.80	0	4.0600	0	34.1190	0	27.083	0	552.309	0	-1e10	8	-1e10	8	-1E+10	1	-1E+10	1	-1E+10	1	-1E+10	1	-1E+10	1	-1E+10	1
4902554	28	C	11/10/2021	17:00	-136.387	49.302	0	562.90	0	4.0530	0	34.1230	0	27.087	0	557.352	0	-1e10	8	-1e10	8	-1E+10	1	-1E+10	1	-1E+10	1	-1E+10	1	-1E+10	1	-1E+10	1
4902554	28	C	11/10/2021	17:00	-136.387	49.302	0	568.10	0	4.0480	0	34.1250	0	27.089	0	562.494	0	-1e10	8	-1e10	8	-1E+10	1	-1E+10	1	-1E+10	1	-1E+10	1	-1E+10	1	-1E+10	1
4902554	28	C	11/10/2021	17:00	-136.387	49.302	0	572.80	0	4.0360	0	34.1280	0	27.093	0	567.141	0	-1e10	8	-1e10	8	-1E+10	1	-1E+10	1	-1E+10	1	-1E+10	1	-1E+10	1	-1E+10	1
4902554	28	C	11/10/2021	17:00	-136.387	49.302	0	577.60	0	4.0190	0	34.1320	0	27.098	0	571.887	0	-1e10	8	-1e10	8	-1E+10	1	-1E+10	1	-1E+10	1	-1E+10	1	-1E+10	1	-1E+10	1
4902554	28	C	11/10/2021	17:00	-136.387	49.302	0	583.00	0	4.0050	0	34.1370	0	27.104	0	577.226	0	-1e10	8	-1e10	8	-1E+10	1	-1E+10	1	-1E+10	1	-1E+10	1	-1E+10	1	-1E+10	1
4902554	28	C	11/10/2021	17:00	-136.387	49.302	0	587.90	0	3.9960	0	34.1400	0	27.107	0	582.071	0	-1e10	8	-1e10	8	-1E+10	1	-1E+10	1	-1E+10	1	-1E+10	1	-1E+10	1	-1E+10	1
4902554	28	C	11/10/2021	17:00	-136.387	49.302	0	592.70	0	3.9860	0	34.1440	0	27.111	0	586.816	0	-1e10	8	-1e10	8	-1E+10	1	-1E+10	1	-1E+10	1	-1E+10	1	-1E+10	1	-1E+10	1
4902554	28	C	11/10/2021	17:00	-136.387	49.302	0	598.10	0	3.9780	0	34.1470	0	27.114	0	592.155	0	-1e10	8	-1e10	8	-1E+10	1	-1E+10	1	-1E+10	1	-1E+10	1	-1E+10	1	-1E+10	1
4902554	28	C	11/10/2021	17:00	-136.387	49.302	0	603.00	0	3.9730	0	34.1480	0	27.116	0	596.999	0	-1e10	8	-1e10	8	-1E+10	1	-1E+10	1	-1E+10	1	-1E+10	1	-1E+10	1	-1E+10	1
4902554	28	C	11/10/2021	17:00	-136.387	49.302	0	607.90	0	3.9600	0	34.1520	0	27.120	0	601.843	0	-1e10	8	-1e10	8	-1E+10	1	-1E+10	1	-1E+10	1	-1E+10	1	-1E+10	1	-1E+10	1
4902554	28	C	11/10/2021	17:00	-136.387	49.302	0	612.70	0	3.9480	0	34.1560	0	27.125	0	606.589	0	-1e10	8	-1e10	8	-1E+10	1	-1E+10	1	-1E+10	1	-1E+10	1	-1E+10	1	-1E+10	1
4902554	28	C	11/10/2021	17:00	-136.387	49.302	0	617.60	0	3.9360	0	34.1610	0	27.130	0	611.432	0	-1e10	8	-1e10	8	-1E+10	1	-1E+10	1	-1E+10	1	-1E+10	1	-1E+10	1	-1E+10	1
4902554	28	C	11/10/2021	17:00	-136.387	49.302	0	622.90	0	3.9260	0	34.1640	0	27.133	0	616.672	0	-1e10	8	-1e10	8	-1E+10	1	-1E+10	1	-1E+10	1	-1E+10	1	-1E+10	1	-1E+10	1
4902554	28	C	11/10/2021	17:00	-136.387	49.302	0	628.30	0	3.9090	0	34.1690	0	27.139	0	622.010	0	-1e10	8	-1e10	8	-1E+10	1	-1E+10	1	-1E+10	1	-1E+10	1	-1E+10	1	-1E+10	1
4902554	28	C	11/10/2021	17:00	-136.387	49.302	0	633.00	0	3.8990	0	34.1710	0	27.142	0	626.656	0	-1e10	8	-1e10	8	-1E+10	1	-1E+10	1	-1E+10	1	-1E+10	1	-1E+10	1	-1E+10	1
4902554	28	C	11/10/2021	17:00	-136.387	49.302	0	637.70	0	3.8900	0	34.1730	0	27.144	0	631.301	0	-1e10	8	-1e10	8	-1E+10	1	-1E+10	1	-1E+10	1	-1E+10	1	-1E+10	1	-1E+10	1
4902554	28	C	11/10/2021	17:00	-136.387	49.302	0	643.00	0	3.8750	0	34.1760	0	27.148	0	636.540	0	-1e10	8	-1e10	8	-1E+10	1	-1E+10	1	-1E+10	1	-1E+10	1	-1E+10	1	-1E+10	1
4902554	28	C	11/10/2021	17:00	-136.387	49.302	0	648.10	0	3.8640	0	34.1790	0	27.152	0	641.581	0	-1e10	8	-1e10	8	-1E+10	1	-1E+10	1	-1E+10	1	-1E+10	1	-1E+10	1	-1E+10	1
4902554	28	C	11/10/2021	17:00	-136.387	49.302	0	652.80	0	3.8570	0	34.1810	0	27.154	0	646.226	0	-1e10	8	-1e10	8	-1E+10	1	-1E+10	1	-1E+10	1	-1E+10	1	-1E+10	1	-1E+10	1
4902554	28	C	11/10/2021	17:00	-136.387	49.302	0	657.50	0	3.8420	0	34.1850	0	27.159	0	650.872	0	-1e10	8	-1e10	8	-1E+10	1	-1E+10	1	-1E+10	1	-1E+10	1	-1E+10	1	-1E+10	1
4902554	28	C	11/10/2021	17:00	-136.387	49.302	0	662.60	0	3.8270	0	34.1890	0	27.163	0	655.912	0	-1e10	8	-1e10	8	-1E+10	1	-1E+10	1	-1E+10	1	-1E+10	1	-1E+10	1	-1E+10	1
4902554	28	C	11/10/2021	17:00	-136.387	49.302	0	667.70	0	3.8140	0	34.1930	0	27.168	0	660.953	0	-1e10	8	-1e10	8	-1E+10	1	-1E+10	1	-1E+10	1	-1E+10	1	-1E+10	1	-1E+10	1
4902554	28	C	11/10/2021	17:00	-136.387	49.302	0	672.90	0	3.8000	0	34.1970	0	27.173	0	666.092	0	-1e10	8	-1e10	8	-1E+10	1	-1E+10	1	-1E+10	1	-1E+10	1	-1E+10	1	-1E+10	1
4902554	28	C	11/10/2021	17:00	-136.387	49.302	0	678.10	0	3.7910	0	34.1990	0	27.175	0	671.231	0	-1e10	8	-1e10	8	-1E+10	1	-1E+10	1	-1E+10	1	-1E+10	1	-1E+10	1	-1E+10	1
4902554	28	C	11/10/2021	17:00	-136.387	49.302	0	683.20	0	3.7780	0	34.2030	0	27.180	0	676.271	0	-1e10	8	-1e10	8	-1E+10	1	-1E+10	1	-1E+10	1	-1E+10	1	-1E+10	1	-1E+10	1
4902554	28	C	11/10/2021	17:00	-136.387	49.302	0	687.80	0	3.7640	0	34.2070	0	27.184	0	680.817	0	-1e10	8	-1e10	8	-1E+10	1	-1E+10	1	-1E+10	1	-1E+10	1	-1E+10	1	-1E+10	1
4902554	28	C	11/10/2021	17:00	-136.387	49.302	0	692.50	0	3.7560	0	34.2080	0	27.186	0	685.461	0	-1e10	8	-1e10	8	-1E+10	1	-1E+10	1	-1E+10	1	-1E+10	1	-1E+10	1	-1E+10	1
4902554	28	C	11/10/2021	17:00	-136.387	49.302	0	697.60	0	3.7350	0	34.2140	0	27.193	0	690.501	0	-1e10	8	-1e10	8	-1E+10	1	-1E+10	1	-1E+10	1	-1E+10	1	-1E+10	1	-1E+10	1
4902554	28	C	11/10/2021	17:00	-136.387	49.302	0	702.60	0	3.7180	0	34.2190	0	27.198	0	695.442	0	-1e10	8	-1e10	8	-1E+10	1	-1E+10	1	-1E+10	1	-1E+10	1	-1E+10	1	-1E+10	1
4902554	28	C	11/10/2021	17:00	-136.387	49.302	0	707.90	0	3.7030	0	34.2220	0	27.202	0	700.679	0	-1e10	8	-1e10	8	-1E+10	1	-1E+10	1	-1E+10	1	-1E+10	1	-1E+10	1	-1E+10	1
4902554	28	C	11/10/2021	17:00	-136.387	49.302	0	712.90	0	3.6890	0	34.2260	0	27.207	0	705.620	0	-1e10	8	-1e10	8	-1E+10	1	-1E+10	1	-1E+10	1	-1E+10	1	-1E+10	1	-1E+10	1
4902554	28	C	11/10/2021	17:00	-136.387	49.302	0	717.60	0	3.6780	0	34.2290	0	27.210	0	710.264	0	-1e10	8	-1e10	8	-1E+10	1	-1E+10	1	-1E+10	1	-1E+10	1	-1E+10	1	-1E+10	1
4902554	28	C	11/10/2021	17:00	-136.387	49.302	0	722.70	0	3.6730	0	34.2300	0	27.212	0	715.303	0	-1e10	8	-1e10	8	-1E+10	1	-1E+10	1	-1E+10	1	-1E+10	1	-1E+10	1	-1E+10	1
4902554	28	C	11/10/2021	17:00	-136.387	49.302	0	727.90	0	3.6590	0	34.2330	0	27.216	0	720.440	0	-1e10	8	-1e10	8	-1E+10	1	-1E+10	1	-1E+10	1	-1E+10	1	-1E+10	1	-1E+10	1
4902554	28	C	11/10/2021	17:00	-136.387	49.302	0	732.80	0	3.6410	0	34.2380	0	27.221	0	725.282	0	-1e10	8	-1e10	8	-1E+10	1	-1E+10	1	-1E+10	1	-1E+10	1	-1E+10	1	-1E+10	1
4902554	28	C	11/10/2021	17:00	-136.387	49.302	0	737.70	0	3.6280	0	34.2410	0	27.225	0	730.123	0	-1e10	8	-1e10	8	-1E+10	1	-1E+10	1	-1E+10	1	-1E+10	1	-1E+10	1	-1E+10	1
4902554	28	C	11/10/2021	17:00	-136.387	49.302	0	743.00	0	3.6070	0	34.2440	0	27.229	0	735.359	0	-1e10	8	-1e10	8	-1E+10	1	-1E+10	1	-1E+10	1	-1E+10	1	-1E+10	1	-1E+10	1
4902554	28	C	11/10/2021	17:00	-136.387	49.302	0	747.80	0	3.5960	0	34.2470	0	27.233	0	740.101	0	-1e10	8	-1e10	8	-1E+10	1	-1E+10	1	-1E+10	1	-1E+10	1	-1E+10	1	-1E+10	1
4902554	28	C	11/10/2021	17:00	-136.387	49.302	0	752.70	0	3.5850	0	34.2490	0	27.236	0	744.942	0	-1e10	8	-1e10	8	-1E+10	1	-1E+10	1	-1E+10	1	-1E+10	1	-1E+10	1	-1E+10	1
4902554	28	C	11/10/2021	17:00	-136.387	49.302	0	757.90	0	3.5710	0	34.2520	0	27.239	0	750.079	0	-1e10	8	-1e10	8	-1E+10	1	-1E+10	1	-1E+10	1	-1E+10	1	-1E+10	1	-1E+10	1
4902554	28	C	11/10/2021	17:00	-136.387	49.302	0	762.80	0	3.5610	0	34.2550	0	27.243	0	754.920	0	-1e10	8	-1e10	8	-1E+10	1	-1E+10	1	-1E+10	1	-1E+10	1	-1E+10	1	-1E+10	1
4902554	28	C	11/10/2021	17:00	-136.387	49.302	0	767.70	0	3.5430	0	34.2590	0	27.248	0	759.760	0	-1e10	8	-1e10	8	-1E+10	1	-1E+10	1	-1E+10	1	-1E+10	1	-1E+10	1	-1E+10	1
4902554	28	C	11/10/2021	17:00	-136.387	49.302	0	773.00	0	3.5280	0	34.2620	0	27.252	0	764.996	0	-1e10	8	-1e10	8	-1E+10	1	-1E+10	1	-1E+10	1	-1E+10	1	-1E+10	1	-1E+10	1
4902554	28	C	11/10/2021	17:00	-136.387	49.302	0	778.10	0	3.5100	0	34.2660	0	27.257	0	770.033	0	-1e10	8	-1e10	8	-1E+10	1	-1E+10	1	-1E+10	1	-1E+10	1	-1E+10	1	-1E+10	1
4902554	28	C	11/10/2021	17:00	-136.387	49.302	0	782.70	0	3.4960	0	34.2690	0	27.260	0	774.577	0	-1e10	8	-1e10	8	-1E+10	1	-1E+10	1	-1E+10	1	-1E+10	1	-1E+10	1	-1E+10	1
4902554	28	C	11/10/2021	17:00	-136.387	49.302	0	787.70	0	3.4860	0	34.2710	0	27.263	0	779.516	0	-1e10	8	-1e10	8	-1E+10	1	-1E+10	1	-1E+10	1	-1E+10	1	-1E+10	1	-1E+10	1
4902554	28	C	11/10/2021	17:00	-136.387	49.302	0	792.70	0	3.4730	0	34.2740	0	27.267	0	784.455	0	-1e10	8	-1e10	8	-1E+10	1	-1E+10	1	-1E+10	1	-1E+10	1	-1E+10	1	-1E+10	1
4902554	28	C	11/10/2021	17:00	-136.387	49.302	0	797.80	0	3.4580	0	34.2770	0	27.270	0	789.492	0	-1e10	8	-1e10	8	-1E+10	1	-1E+10	1	-1E+10	1	-1E+10	1	-1E+10	1	-1E+10	1
4902554	28	C	11/10/2021	17:00	-136.387	49.302	0	803.00	0	3.4470	0	34.2790	0	27.273	0	794.628	0	-1e10	8	-1e10	8	-1E+10	1	-1E+10	1	-1E+10	1	-1E+10	1	-1E+10	1	-1E+10	1
4902554	28	C	11/10/2021	17:00	-136.387	49.302	0	807.70	0	3.4360	0	34.2820	0	27.277	0	799.270	0	-1e10	8	-1e10	8	-1E+10	1	-1E+10	1	-1E+10	1	-1E+10	1	-1E+10	1	-1E+10	1
4902554	28	C	11/10/2021	17:00	-136.387	49.302	0	812.90	0	3.4240	0	34.2850	0	27.280	0	804.406	0	-1e10	8	-1e10	8	-1E+10	1	-1E+10	1	-1E+10	1	-1E+10	1	-1E+10	1	-1E+10	1
4902554	28	C	11/10/2021	17:00	-136.387	49.302	0	818.20	0	3.4080	0	34.2880	0	27.284	0	809.640	0	-1e10	8	-1e10	8	-1E+10	1	-1E+10	1	-1E+10	1	-1E+10	1	-1E+10	1	-1E+10	1
4902554	28	C	11/10/2021	17:00	-136.387	49.302	0	823.10	0	3.4000	0	34.2900	0	27.287	0	814.479	0	-1e10	8	-1e10	8	-1E+10	1	-1E+10	1	-1E+10	1	-1E+10	1	-1E+10	1	-1E+10	1
4902554	28	C	11/10/2021	17:00	-136.387	49.302	0	828.10	0	3.3930	0	34.2920	0	27.289	0	819.417	0	-1e10	8	-1e10	8	-1E+10	1	-1E+10	1	-1E+10	1	-1E+10	1	-1E+10	1	-1E+10	1
4902554	28	C	11/10/2021	17:00	-136.387	49.302	0	833.10	0	3.3820	0	34.2940	0	27.291	0	824.355	0	-1e10	8	-1e10	8	-1E+10	1	-1E+10	1	-1E+10	1	-1E+10	1	-1E+10	1	-1E+10	1
4902554	28	C	11/10/2021	17:00	-136.387	49.302	0	838.20	0	3.3710	0	34.2960	0	27.294	0	829.391	0	-1e10	8	-1e10	8	-1E+10	1	-1E+10	1	-1E+10	1	-1E+10	1	-1E+10	1	-1E+10	1
4902554	28	C	11/10/2021	17:00	-136.387	49.302	0	843.20	0	3.3600	0	34.2980	0	27.297	0	834.329	0	-1e10	8	-1e10	8	-1E+10	1	-1E+10	1	-1E+10	1	-1E+10	1	-1E+10	1	-1E+10	1
4902554	28	C	11/10/2021	17:00	-136.387	49.302	0	847.80	0	3.3500	0	34.3000	0	27.299	0	838.871	0	-1e10	8	-1e10	8	-1E+10	1	-1E+10	1	-1E+10	1	-1E+10	1	-1E+10	1	-1E+10	1
4902554	28	C	11/10/2021	17:00	-136.387	49.302	0	853.00	0	3.3380	0	34.3020	0	27.302	0	844.006	0	-1e10	8	-1e10	8	-1E+10	1	-1E+10	1	-1E+10	1	-1E+10	1	-1E+10	1	-1E+10	1
4902554	28	C	11/10/2021	17:00	-136.387	49.302	0	858.10	0	3.3270	0	34.3040	0	27.305	0	849.042	0	-1e10	8	-1e10	8	-1E+10	1	-1E+10	1	-1E+10	1	-1E+10	1	-1E+10	1	-1E+10	1
4902554	28	C	11/10/2021	17:00	-136.387	49.302	0	862.90	0	3.3130	0	34.3080	0	27.309	0	853.781	0	-1e10	8	-1e10	8	-1E+10	1	-1E+10	1	-1E+10	1	-1E+10	1	-1E+10	1	-1E+10	1
4902554	28	C	11/10/2021	17:00	-136.387	49.302	0	867.70	0	3.3030	0	34.3100	0	27.312	0	858.521	0	-1e10	8	-1e10	8	-1E+10	1	-1E+10	1	-1E+10	1	-1E+10	1	-1E+10	1	-1E+10	1
4902554	28	C	11/10/2021	17:00	-136.387	49.302	0	872.60	0	3.2970	0	34.3110	0	27.313	0	863.359	0	-1e10	8	-1e10	8	-1E+10	1	-1E+10	1	-1E+10	1	-1E+10	1	-1E+10	1	-1E+10	1
4902554	28	C	11/10/2021	17:00	-136.387	49.302	0	877.70	0	3.2840	0	34.3140	0	27.317	0	868.394	0	-1e10	8	-1e10	8	-1E+10	1	-1E+10	1	-1E+10	1	-1E+10	1	-1E+10	1	-1E+10	1
4902554	28	C	11/10/2021	17:00	-136.387	49.302	0	882.70	0	3.2750	0	34.3160	0	27.319	0	873.331	0	-1e10	8	-1e10	8	-1E+10	1	-1E+10	1	-1E+10	1	-1E+10	1	-1E+10	1	-1E+10	1
4902554	28	C	11/10/2021	17:00	-136.387	49.302	0	887.90	0	3.2700	0	34.3170	0	27.321	0	878.464	0	-1e10	8	-1e10	8	-1E+10	1	-1E+10	1	-1E+10	1	-1E+10	1	-1E+10	1	-1E+10	1
4902554	28	C	11/10/2021	17:00	-136.387	49.302	0	893.10	0	3.2640	0	34.3180	0	27.322	0	883.598	0	-1e10	8	-1e10	8	-1E+10	1	-1E+10	1	-1E+10	1	-1E+10	1	-1E+10	1	-1E+10	1
4902554	28	C	11/10/2021	17:00	-136.387	49.302	0	897.90	0	3.2550	0	34.3200	0	27.325	0	888.337	0	-1e10	8	-1e10	8	-1E+10	1	-1E+10	1	-1E+10	1	-1E+10	1	-1E+10	1	-1E+10	1
4902554	28	C	11/10/2021	17:00	-136.387	49.302	0	902.70	0	3.2440	0	34.3230	0	27.328	0	893.076	0	-1e10	8	-1e10	8	-1E+10	1	-1E+10	1	-1E+10	1	-1E+10	1	-1E+10	1	-1E+10	1
4902554	28	C	11/10/2021	17:00	-136.387	49.302	0	908.10	0	3.2330	0	34.3250	0	27.331	0	898.406	0	-1e10	8	-1e10	8	-1E+10	1	-1E+10	1	-1E+10	1	-1E+10	1	-1E+10	1	-1E+10	1
4902554	28	C	11/10/2021	17:00	-136.387	49.302	0	913.00	0	3.2240	0	34.3270	0	27.333	0	903.244	0	-1e10	8	-1e10	8	-1E+10	1	-1E+10	1	-1E+10	1	-1E+10	1	-1E+10	1	-1E+10	1
4902554	28	C	11/10/2021	17:00	-136.387	49.302	0	917.90	0	3.2150	0	34.3290	0	27.336	0	908.081	0	-1e10	8	-1e10	8	-1E+10	1	-1E+10	1	-1E+10	1	-1E+10	1	-1E+10	1	-1E+10	1
4902554	28	C	11/10/2021	17:00	-136.387	49.302	0	922.90	0	3.2060	0	34.3320	0	27.339	0	913.016	0	-1e10	8	-1e10	8	-1E+10	1	-1E+10	1	-1E+10	1	-1E+10	1	-1E+10	1	-1E+10	1
4902554	28	C	11/10/2021	17:00	-136.387	49.302	0	927.90	0	3.1970	0	34.3340	0	27.341	0	917.952	0	-1e10	8	-1e10	8	-1E+10	1	-1E+10	1	-1E+10	1	-1E+10	1	-1E+10	1	-1E+10	1
4902554	28	C	11/10/2021	17:00	-136.387	49.302	0	932.90	0	3.1890	0	34.3350	0	27.343	0	922.887	0	-1e10	8	-1e10	8	-1E+10	1	-1E+10	1	-1E+10	1	-1E+10	1	-1E+10	1	-1E+10	1
4902554	28	C	11/10/2021	17:00	-136.387	49.302	0	938.00	0	3.1840	0	34.3360	0	27.344	0	927.921	0	-1e10	8	-1e10	8	-1E+10	1	-1E+10	1	-1E+10	1	-1E+10	1	-1E+10	1	-1E+10	1
4902554	28	C	11/10/2021	17:00	-136.387	49.302	0	943.10	0	3.1730	0	34.3380	0	27.347	0	932.955	0	-1e10	8	-1e10	8	-1E+10	1	-1E+10	1	-1E+10	1	-1E+10	1	-1E+10	1	-1E+10	1
4902554	28	C	11/10/2021	17:00	-136.387	49.302	0	947.70	0	3.1620	0	34.3400	0	27.349	0	937.495	0	-1e10	8	-1e10	8	-1E+10	1	-1E+10	1	-1E+10	1	-1E+10	1	-1E+10	1	-1E+10	1
4902554	28	C	11/10/2021	17:00	-136.387	49.302	0	952.80	0	3.1510	0	34.3420	0	27.352	0	942.529	0	-1e10	8	-1e10	8	-1E+10	1	-1E+10	1	-1E+10	1	-1E+10	1	-1E+10	1	-1E+10	1
4902554	28	C	11/10/2021	17:00	-136.387	49.302	0	958.00	0	3.1320	0	34.3460	0	27.357	0	947.661	0	-1e10	8	-1e10	8	-1E+10	1	-1E+10	1	-1E+10	1	-1E+10	1	-1E+10	1	-1E+10	1
4902554	28	C	11/10/2021	17:00	-136.387	49.302	0	962.80	0	3.1190	0	34.3490	0	27.361	0	952.398	0	-1e10	8	-1e10	8	-1E+10	1	-1E+10	1	-1E+10	1	-1E+10	1	-1E+10	1	-1E+10	1
4902554	28	C	11/10/2021	17:00	-136.387	49.302	0	967.60	0	3.1080	0	34.3520	0	27.364	0	957.135	0	-1e10	8	-1e10	8	-1E+10	1	-1E+10	1	-1E+10	1	-1E+10	1	-1E+10	1	-1E+10	1
4902554	28	C	11/10/2021	17:00	-136.387	49.302	0	972.90	0	3.1000	0	34.3530	0	27.366	0	962.366	0	-1e10	8	-1e10	8	-1E+10	1	-1E+10	1	-1E+10	1	-1E+10	1	-1E+10	1	-1E+10	1
4902554	28	C	11/10/2021	17:00	-136.387	49.302	0	978.30	0	3.0830	0	34.3550	0	27.369	0	967.695	0	-1e10	8	-1e10	8	-1E+10	1	-1E+10	1	-1E+10	1	-1E+10	1	-1E+10	1	-1E+10	1
4902554	28	C	11/10/2021	17:00	-136.387	49.302	0	983.20	0	3.0710	0	34.3580	0	27.372	0	972.530	0	-1e10	8	-1e10	8	-1E+10	1	-1E+10	1	-1E+10	1	-1E+10	1	-1E+10	1	-1E+10	1
4902554	28	C	11/10/2021	17:00	-136.387	49.302	0	988.10	0	3.0620	0	34.3600	0	27.375	0	977.366	0	-1e10	8	-1e10	8	-1E+10	1	-1E+10	1	-1E+10	1	-1E+10	1	-1E+10	1	-1E+10	1
4902554	28	C	11/10/2021	17:00	-136.387	49.302	0	993.10	0	3.0560	0	34.3610	0	27.376	0	982.300	0	-1e10	8	-1e10	8	-1E+10	1	-1E+10	1	-1E+10	1	-1E+10	1	-1E+10	1	-1E+10	1
4902554	28	C	11/10/2021	17:00	-136.387	49.302	0	998.10	0	3.0430	0	34.3630	0	27.379	0	987.234	0	-1e10	8	-1e10	8	-1E+10	1	-1E+10	1	-1E+10	1	-1E+10	1	-1E+10	1	-1E+10	1
4902554	28	C	11/10/2021	17:00	-136.387	49.302	0	1005.30	0	3.0260	0	34.3670	0	27.384	0	994.338	0	-1e10	8	-1e10	8	-1E+10	1	-1E+10	1	-1E+10	1	-1E+10	1	-1E+10	1	-1E+10	1
4902554	28	C	11/10/2021	17:00	-136.387	49.302	0	1015.70	0	3.0090	0	34.3700	0	27.388	0	1004.600	0	-1e10	8	-1e10	8	-1E+10	1	-1E+10	1	-1E+10	1	-1E+10	1	-1E+10	1	-1E+10	1
4902554	28	C	11/10/2021	17:00	-136.387	49.302	0	1025.80	0	2.9940	0	34.3740	0	27.392	0	1014.565	0	-1e10	8	-1e10	8	-1E+10	1	-1E+10	1	-1E+10	1	-1E+10	1	-1E+10	1	-1E+10	1
4902554	28	C	11/10/2021	17:00	-136.387	49.302	0	1035.40	0	2.9820	0	34.3760	0	27.395	0	1024.036	0	-1e10	8	-1e10	8	-1E+10	1	-1E+10	1	-1E+10	1	-1E+10	1	-1E+10	1	-1E+10	1
4902554	28	C	11/10/2021	17:00	-136.387	49.302	0	1045.20	0	2.9740	0	34.3780	0	27.397	0	1033.705	0	-1e10	8	-1e10	8	-1E+10	1	-1E+10	1	-1E+10	1	-1E+10	1	-1E+10	1	-1E+10	1
4902554	28	C	11/10/2021	17:00	-136.387	49.302	0	1055.30	0	2.9590	0	34.3800	0	27.400	0	1043.669	0	-1e10	8	-1e10	8	-1E+10	1	-1E+10	1	-1E+10	1	-1E+10	1	-1E+10	1	-1E+10	1
4902554	28	C	11/10/2021	17:00	-136.387	49.302	0	1065.20	0	2.9460	0	34.3830	0	27.404	0	1053.435	0	-1e10	8	-1e10	8	-1E+10	1	-1E+10	1	-1E+10	1	-1E+10	1	-1E+10	1	-1E+10	1
4902554	28	C	11/10/2021	17:00	-136.387	49.302	0	1075.20	0	2.9380	0	34.3850	0	27.406	0	1063.299	0	-1e10	8	-1e10	8	-1E+10	1	-1E+10	1	-1E+10	1	-1E+10	1	-1E+10	1	-1E+10	1
4902554	28	C	11/10/2021	17:00	-136.387	49.302	0	1085.50	0	2.9230	0	34.3880	0	27.410	0	1073.459	0	-1e10	8	-1e10	8	-1E+10	1	-1E+10	1	-1E+10	1	-1E+10	1	-1E+10	1	-1E+10	1
4902554	28	C	11/10/2021	17:00	-136.387	49.302	0	1095.60	0	2.9080	0	34.3910	0	27.414	0	1083.420	0	-1e10	8	-1e10	8	-1E+10	1	-1E+10	1	-1E+10	1	-1E+10	1	-1E+10	1	-1E+10	1
4902554	28	C	11/10/2021	17:00	-136.387	49.302	0	1105.70	0	2.8870	0	34.3940	0	27.418	0	1093.382	0	-1e10	8	-1e10	8	-1E+10	1	-1E+10	1	-1E+10	1	-1E+10	1	-1E+10	1	-1E+10	1
4902554	28	C	11/10/2021	17:00	-136.387	49.302	0	1115.70	0	2.8680	0	34.3980	0	27.423	0	1103.244	0	-1e10	8	-1e10	8	-1E+10	1	-1E+10	1	-1E+10	1	-1E+10	1	-1E+10	1	-1E+10	1
4902554	28	C	11/10/2021	17:00	-136.387	49.302	0	1125.40	0	2.8530	0	34.4000	0	27.426	0	1112.810	0	-1e10	8	-1e10	8	-1E+10	1	-1E+10	1	-1E+10	1	-1E+10	1	-1E+10	1	-1E+10	1
4902554	28	C	11/10/2021	17:00	-136.387	49.302	0	1135.10	0	2.8410	0	34.4030	0	27.430	0	1122.376	0	-1e10	8	-1e10	8	-1E+10	1	-1E+10	1	-1E+10	1	-1E+10	1	-1E+10	1	-1E+10	1
4902554	28	C	11/10/2021	17:00	-136.387	49.302	0	1145.30	0	2.8260	0	34.4060	0	27.433	0	1132.434	0	-1e10	8	-1e10	8	-1E+10	1	-1E+10	1	-1E+10	1	-1E+10	1	-1E+10	1	-1E+10	1
4902554	28	C	11/10/2021	17:00	-136.387	49.302	0	1155.40	0	2.8130	0	34.4080	0	27.436	0	1142.393	0	-1e10	8	-1e10	8	-1E+10	1	-1E+10	1	-1E+10	1	-1E+10	1	-1E+10	1	-1E+10	1
4902554	28	C	11/10/2021	17:00	-136.387	49.302	0	1165.40	0	2.7990	0	34.4110	0	27.440	0	1152.253	0	-1e10	8	-1e10	8	-1E+10	1	-1E+10	1	-1E+10	1	-1E+10	1	-1E+10	1	-1E+10	1
4902554	28	C	11/10/2021	17:00	-136.387	49.302	0	1175.40	0	2.7910	0	34.4130	0	27.442	0	1162.113	0	-1e10	8	-1e10	8	-1E+10	1	-1E+10	1	-1E+10	1	-1E+10	1	-1E+10	1	-1E+10	1
4902554	28	C	11/10/2021	17:00	-136.387	49.302	0	1185.50	0	2.7740	0	34.4160	0	27.446	0	1172.070	0	-1e10	8	-1e10	8	-1E+10	1	-1E+10	1	-1E+10	1	-1E+10	1	-1E+10	1	-1E+10	1
4902554	28	C	11/10/2021	17:00	-136.387	49.302	0	1195.40	0	2.7550	0	34.4200	0	27.451	0	1181.830	0	-1e10	8	-1e10	8	-1E+10	1	-1E+10	1	-1E+10	1	-1E+10	1	-1E+10	1	-1E+10	1
4902554	28	C	11/10/2021	17:00	-136.387	49.302	0	1205.40	0	2.7420	0	34.4220	0	27.454	0	1191.689	0	-1e10	8	-1e10	8	-1E+10	1	-1E+10	1	-1E+10	1	-1E+10	1	-1E+10	1	-1E+10	1
4902554	28	C	11/10/2021	17:00	-136.387	49.302	0	1215.50	0	2.7320	0	34.4250	0	27.457	0	1201.645	0	-1e10	8	-1e10	8	-1E+10	1	-1E+10	1	-1E+10	1	-1E+10	1	-1E+10	1	-1E+10	1
4902554	28	C	11/10/2021	17:00	-136.387	49.302	0	1225.10	0	2.7250	0	34.4280	0	27.460	0	1211.108	0	-1e10	8	-1e10	8	-1E+10	1	-1E+10	1	-1E+10	1	-1E+10	1	-1E+10	1	-1E+10	1
4902554	28	C	11/10/2021	17:00	-136.387	49.302	0	1235.00	0	2.7130	0	34.4310	0	27.464	0	1220.866	0	-1e10	8	-1e10	8	-1E+10	1	-1E+10	1	-1E+10	1	-1E+10	1	-1E+10	1	-1E+10	1
4902554	28	C	11/10/2021	17:00	-136.387	49.302	0	1244.90	0	2.6950	0	34.4350	0	27.469	0	1230.624	0	-1e10	8	-1e10	8	-1E+10	1	-1E+10	1	-1E+10	1	-1E+10	1	-1E+10	1	-1E+10	1
4902554	28	C	11/10/2021	17:00	-136.387	49.302	0	1255.10	0	2.6780	0	34.4380	0	27.473	0	1240.677	0	-1e10	8	-1e10	8	-1E+10	1	-1E+10	1	-1E+10	1	-1E+10	1	-1E+10	1	-1E+10	1
4902554	28	C	11/10/2021	17:00	-136.387	49.302	0	1265.30	0	2.6610	0	34.4410	0	27.476	0	1250.729	0	-1e10	8	-1e10	8	-1E+10	1	-1E+10	1	-1E+10	1	-1E+10	1	-1E+10	1	-1E+10	1
4902554	28	C	11/10/2021	17:00	-136.387	49.302	0	1275.20	0	2.6500	0	34.4440	0	27.480	0	1260.486	0	-1e10	8	-1e10	8	-1E+10	1	-1E+10	1	-1E+10	1	-1E+10	1	-1E+10	1	-1E+10	1
4902554	28	C	11/10/2021	17:00	-136.387	49.302	0	1285.40	0	2.6330	0	34.4470	0	27.484	0	1270.537	0	-1e10	8	-1e10	8	-1E+10	1	-1E+10	1	-1E+10	1	-1E+10	1	-1E+10	1	-1E+10	1
4902554	28	C	11/10/2021	17:00	-136.387	49.302	0	1295.20	0	2.6190	0	34.4490	0	27.487	0	1280.194	0	-1e10	8	-1e10	8	-1E+10	1	-1E+10	1	-1E+10	1	-1E+10	1	-1E+10	1	-1E+10	1
4902554	28	C	11/10/2021	17:00	-136.387	49.302	0	1305.10	0	2.6030	0	34.4510	0	27.490	0	1289.949	0	-1e10	8	-1e10	8	-1E+10	1	-1E+10	1	-1E+10	1	-1E+10	1	-1E+10	1	-1E+10	1
4902554	28	C	11/10/2021	17:00	-136.387	49.302	0	1315.10	0	2.5870	0	34.4540	0	27.493	0	1299.802	0	-1e10	8	-1e10	8	-1E+10	1	-1E+10	1	-1E+10	1	-1E+10	1	-1E+10	1	-1E+10	1
4902554	28	C	11/10/2021	17:00	-136.387	49.302	0	1325.30	0	2.5730	0	34.4560	0	27.496	0	1309.852	0	-1e10	8	-1e10	8	-1E+10	1	-1E+10	1	-1E+10	1	-1E+10	1	-1E+10	1	-1E+10	1
4902554	28	C	11/10/2021	17:00	-136.387	49.302	0	1335.20	0	2.5590	0	34.4590	0	27.500	0	1319.605	0	-1e10	8	-1e10	8	-1E+10	1	-1E+10	1	-1E+10	1	-1E+10	1	-1E+10	1	-1E+10	1
4902554	28	C	11/10/2021	17:00	-136.387	49.302	0	1345.10	0	2.5440	0	34.4620	0	27.504	0	1329.359	0	-1e10	8	-1e10	8	-1E+10	1	-1E+10	1	-1E+10	1	-1E+10	1	-1E+10	1	-1E+10	1
4902554	28	C	11/10/2021	17:00	-136.387	49.302	0	1355.10	0	2.5360	0	34.4640	0	27.506	0	1339.210	0	-1e10	8	-1e10	8	-1E+10	1	-1E+10	1	-1E+10	1	-1E+10	1	-1E+10	1	-1E+10	1
4902554	28	C	11/10/2021	17:00	-136.387	49.302	0	1365.40	0	2.5280	0	34.4650	0	27.508	0	1349.356	0	-1e10	8	-1e10	8	-1E+10	1	-1E+10	1	-1E+10	1	-1E+10	1	-1E+10	1	-1E+10	1
4902554	28	C	11/10/2021	17:00	-136.387	49.302	0	1375.30	0	2.5170	0	34.4670	0	27.510	0	1359.108	0	-1e10	8	-1e10	8	-1E+10	1	-1E+10	1	-1E+10	1	-1E+10	1	-1E+10	1	-1E+10	1
4902554	28	C	11/10/2021	17:00	-136.387	49.302	0	1385.40	0	2.5060	0	34.4690	0	27.513	0	1369.056	0	-1e10	8	-1e10	8	-1E+10	1	-1E+10	1	-1E+10	1	-1E+10	1	-1E+10	1	-1E+10	1
4902554	28	C	11/10/2021	17:00	-136.387	49.302	0	1395.50	0	2.4940	0	34.4720	0	27.516	0	1379.004	0	-1e10	8	-1e10	8	-1E+10	1	-1E+10	1	-1E+10	1	-1E+10	1	-1E+10	1	-1E+10	1
4902554	28	C	11/10/2021	17:00	-136.387	49.302	0	1405.20	0	2.4880	0	34.4730	0	27.518	0	1388.557	0	-1e10	8	-1e10	8	-1E+10	1	-1E+10	1	-1E+10	1	-1E+10	1	-1E+10	1	-1E+10	1
4902554	28	C	11/10/2021	17:00	-136.387	49.302	0	1415.10	0	2.4820	0	34.4740	0	27.519	0	1398.307	0	-1e10	8	-1e10	8	-1E+10	1	-1E+10	1	-1E+10	1	-1E+10	1	-1E+10	1	-1E+10	1
4902554	28	C	11/10/2021	17:00	-136.387	49.302	0	1425.10	0	2.4720	0	34.4760	0	27.521	0	1408.155	0	-1e10	8	-1e10	8	-1E+10	1	-1E+10	1	-1E+10	1	-1E+10	1	-1E+10	1	-1E+10	1
4902554	28	C	11/10/2021	17:00	-136.387	49.302	0	1435.40	0	2.4560	0	34.4790	0	27.525	0	1418.298	0	-1e10	8	-1e10	8	-1E+10	1	-1E+10	1	-1E+10	1	-1E+10	1	-1E+10	1	-1E+10	1
4902554	28	C	11/10/2021	17:00	-136.387	49.302	0	1445.30	0	2.4470	0	34.4810	0	27.528	0	1428.047	0	-1e10	8	-1e10	8	-1E+10	1	-1E+10	1	-1E+10	1	-1E+10	1	-1E+10	1	-1E+10	1
4902554	28	C	11/10/2021	17:00	-136.387	49.302	0	1455.50	0	2.4360	0	34.4830	0	27.530	0	1438.090	0	-1e10	8	-1e10	8	-1E+10	1	-1E+10	1	-1E+10	1	-1E+10	1	-1E+10	1	-1E+10	1
4902554	28	C	11/10/2021	17:00	-136.387	49.302	0	1465.50	0	2.4280	0	34.4850	0	27.532	0	1447.937	0	-1e10	8	-1e10	8	-1E+10	1	-1E+10	1	-1E+10	1	-1E+10	1	-1E+10	1	-1E+10	1
4902554	28	C	11/10/2021	17:00	-136.387	49.302	0	1475.40	0	2.4170	0	34.4870	0	27.535	0	1457.684	0	-1e10	8	-1e10	8	-1E+10	1	-1E+10	1	-1E+10	1	-1E+10	1	-1E+10	1	-1E+10	1
4902554	28	C	11/10/2021	17:00	-136.387	49.302	0	1485.50	0	2.4060	0	34.4900	0	27.538	0	1467.627	0	-1e10	8	-1e10	8	-1E+10	1	-1E+10	1	-1E+10	1	-1E+10	1	-1E+10	1	-1E+10	1
4902554	28	C	11/10/2021	17:00	-136.387	49.302	0	1495.40	0	2.3940	0	34.4920	0	27.541	0	1477.374	0	-1e10	8	-1e10	8	-1E+10	1	-1E+10	1	-1E+10	1	-1E+10	1	-1E+10	1	-1E+10	1
4902554	28	C	11/10/2021	17:00	-136.387	49.302	0	1505.40	0	2.3880	0	34.4930	0	27.542	0	1487.218	0	-1e10	8	-1e10	8	-1E+10	1	-1E+10	1	-1E+10	1	-1E+10	1	-1E+10	1	-1E+10	1
4902554	28	C	11/10/2021	17:00	-136.387	49.302	0	1515.50	0	2.3790	0	34.4950	0	27.545	0	1497.160	0	-1e10	8	-1e10	8	-1E+10	1	-1E+10	1	-1E+10	1	-1E+10	1	-1E+10	1	-1E+10	1
4902554	28	C	11/10/2021	17:00	-136.387	49.302	0	1525.20	0	2.3720	0	34.4970	0	27.547	0	1506.708	0	-1e10	8	-1e10	8	-1E+10	1	-1E+10	1	-1E+10	1	-1E+10	1	-1E+10	1	-1E+10	1
4902554	28	C	11/10/2021	17:00	-136.387	49.302	0	1535.10	0	2.3570	0	34.4990	0	27.550	0	1516.453	0	-1e10	8	-1e10	8	-1E+10	1	-1E+10	1	-1E+10	1	-1E+10	1	-1E+10	1	-1E+10	1
4902554	28	C	11/10/2021	17:00	-136.387	49.302	0	1545.00	0	2.3450	0	34.5020	0	27.553	0	1526.197	0	-1e10	8	-1e10	8	-1E+10	1	-1E+10	1	-1E+10	1	-1E+10	1	-1E+10	1	-1E+10	1
4902554	28	C	11/10/2021	17:00	-136.387	49.302	0	1555.40	0	2.3330	0	34.5040	0	27.556	0	1536.433	0	-1e10	8	-1e10	8	-1E+10	1	-1E+10	1	-1E+10	1	-1E+10	1	-1E+10	1	-1E+10	1
4902554	28	C	11/10/2021	17:00	-136.387	49.302	0	1565.80	0	2.3190	0	34.5070	0	27.560	0	1546.668	0	-1e10	8	-1e10	8	-1E+10	1	-1E+10	1	-1E+10	1	-1E+10	1	-1E+10	1	-1E+10	1
4902554	28	C	11/10/2021	17:00	-136.387	49.302	0	1575.70	0	2.3060	0	34.5100	0	27.563	0	1556.410	0	-1e10	8	-1e10	8	-1E+10	1	-1E+10	1	-1E+10	1	-1E+10	1	-1E+10	1	-1E+10	1
4902554	28	C	11/10/2021	17:00	-136.387	49.302	0	1585.70	0	2.2980	0	34.5110	0	27.565	0	1566.251	0	-1e10	8	-1e10	8	-1E+10	1	-1E+10	1	-1E+10	1	-1E+10	1	-1E+10	1	-1E+10	1
4902554	28	C	11/10/2021	17:00	-136.387	49.302	0	1595.40	0	2.2890	0	34.5130	0	27.567	0	1575.796	0	-1e10	8	-1e10	8	-1E+10	1	-1E+10	1	-1E+10	1	-1E+10	1	-1E+10	1	-1E+10	1
4902554	28	C	11/10/2021	17:00	-136.387	49.302	0	1605.00	0	2.2810	0	34.5150	0	27.569	0	1585.242	0	-1e10	8	-1e10	8	-1E+10	1	-1E+10	1	-1E+10	1	-1E+10	1	-1E+10	1	-1E+10	1
4902554	28	C	11/10/2021	17:00	-136.387	49.302	0	1615.00	0	2.2660	0	34.5180	0	27.573	0	1595.081	0	-1e10	8	-1e10	8	-1E+10	1	-1E+10	1	-1E+10	1	-1E+10	1	-1E+10	1	-1E+10	1
4902554	28	C	11/10/2021	17:00	-136.387	49.302	0	1625.20	0	2.2560	0	34.5200	0	27.575	0	1605.117	0	-1e10	8	-1e10	8	-1E+10	1	-1E+10	1	-1E+10	1	-1E+10	1	-1E+10	1	-1E+10	1
4902554	28	C	11/10/2021	17:00	-136.387	49.302	0	1635.50	0	2.2470	0	34.5210	0	27.577	0	1615.250	0	-1e10	8	-1e10	8	-1E+10	1	-1E+10	1	-1E+10	1	-1E+10	1	-1E+10	1	-1E+10	1
4902554	28	C	11/10/2021	17:00	-136.387	49.302	0	1645.40	0	2.2380	0	34.5230	0	27.579	0	1624.990	0	-1e10	8	-1e10	8	-1E+10	1	-1E+10	1	-1E+10	1	-1E+10	1	-1E+10	1	-1E+10	1
4902554	28	C	11/10/2021	17:00	-136.387	49.302	0	1655.40	0	2.2290	0	34.5250	0	27.582	0	1634.827	0	-1e10	8	-1e10	8	-1E+10	1	-1E+10	1	-1E+10	1	-1E+10	1	-1E+10	1	-1E+10	1
4902554	28	C	11/10/2021	17:00	-136.387	49.302	0	1665.60	0	2.2170	0	34.5270	0	27.584	0	1644.861	0	-1e10	8	-1e10	8	-1E+10	1	-1E+10	1	-1E+10	1	-1E+10	1	-1E+10	1	-1E+10	1
4902554	28	C	11/10/2021	17:00	-136.387	49.302	0	1675.30	0	2.2030	0	34.5300	0	27.588	0	1654.402	0	-1e10	8	-1e10	8	-1E+10	1	-1E+10	1	-1E+10	1	-1E+10	1	-1E+10	1	-1E+10	1
4902554	28	C	11/10/2021	17:00	-136.387	49.302	0	1685.30	0	2.1950	0	34.5320	0	27.590	0	1664.238	0	-1e10	8	-1e10	8	-1E+10	1	-1E+10	1	-1E+10	1	-1E+10	1	-1E+10	1	-1E+10	1
4902554	28	C	11/10/2021	17:00	-136.387	49.302	0	1695.40	0	2.1860	0	34.5340	0	27.593	0	1674.172	0	-1e10	8	-1e10	8	-1E+10	1	-1E+10	1	-1E+10	1	-1E+10	1	-1E+10	1	-1E+10	1
4902554	28	C	11/10/2021	17:00	-136.387	49.302	0	1705.30	0	2.1770	0	34.5360	0	27.595	0	1683.909	0	-1e10	8	-1e10	8	-1E+10	1	-1E+10	1	-1E+10	1	-1E+10	1	-1E+10	1	-1E+10	1
4902554	28	C	11/10/2021	17:00	-136.387	49.302	0	1715.50	0	2.1670	0	34.5380	0	27.597	0	1693.940	0	-1e10	8	-1e10	8	-1E+10	1	-1E+10	1	-1E+10	1	-1E+10	1	-1E+10	1	-1E+10	1
4902554	28	C	11/10/2021	17:00	-136.387	49.302	0	1725.50	0	2.1570	0	34.5400	0	27.600	0	1703.775	0	-1e10	8	-1e10	8	-1E+10	1	-1E+10	1	-1E+10	1	-1E+10	1	-1E+10	1	-1E+10	1
4902554	28	C	11/10/2021	17:00	-136.387	49.302	0	1735.80	0	2.1480	0	34.5420	0	27.602	0	1713.903	0	-1e10	8	-1e10	8	-1E+10	1	-1E+10	1	-1E+10	1	-1E+10	1	-1E+10	1	-1E+10	1
4902554	28	C	11/10/2021	17:00	-136.387	49.302	0	1745.50	0	2.1430	0	34.5430	0	27.604	0	1723.442	0	-1e10	8	-1e10	8	-1E+10	1	-1E+10	1	-1E+10	1	-1E+10	1	-1E+10	1	-1E+10	1
4902554	28	C	11/10/2021	17:00	-136.387	49.302	0	1755.30	0	2.1340	0	34.5450	0	27.606	0	1733.078	0	-1e10	8	-1e10	8	-1E+10	1	-1E+10	1	-1E+10	1	-1E+10	1	-1E+10	1	-1E+10	1
4902554	28	C	11/10/2021	17:00	-136.387	49.302	0	1765.30	0	2.1220	0	34.5470	0	27.609	0	1742.910	0	-1e10	8	-1e10	8	-1E+10	1	-1E+10	1	-1E+10	1	-1E+10	1	-1E+10	1	-1E+10	1
4902554	28	C	11/10/2021	17:00	-136.387	49.302	0	1775.20	0	2.1100	0	34.5490	0	27.611	0	1752.644	0	-1e10	8	-1e10	8	-1E+10	1	-1E+10	1	-1E+10	1	-1E+10	1	-1E+10	1	-1E+10	1
4902554	28	C	11/10/2021	17:00	-136.387	49.302	0	1785.30	0	2.1030	0	34.5510	0	27.613	0	1762.574	0	-1e10	8	-1e10	8	-1E+10	1	-1E+10	1	-1E+10	1	-1E+10	1	-1E+10	1	-1E+10	1
4902554	28	C	11/10/2021	17:00	-136.387	49.302	0	1795.60	0	2.0940	0	34.5520	0	27.615	0	1772.699	0	-1e10	8	-1e10	8	-1E+10	1	-1E+10	1	-1E+10	1	-1E+10	1	-1E+10	1	-1E+10	1
4902554	28	C	11/10/2021	17:00	-136.387	49.302	0	1805.50	0	2.0860	0	34.5540	0	27.617	0	1782.432	0	-1e10	8	-1e10	8	-1E+10	1	-1E+10	1	-1E+10	1	-1E+10	1	-1E+10	1	-1E+10	1
4902554	28	C	11/10/2021	17:00	-136.387	49.302	0	1815.40	0	2.0800	0	34.5560	0	27.619	0	1792.163	0	-1e10	8	-1e10	8	-1E+10	1	-1E+10	1	-1E+10	1	-1E+10	1	-1E+10	1	-1E+10	1
4902554	28	C	11/10/2021	17:00	-136.387	49.302	0	1825.30	0	2.0720	0	34.5580	0	27.622	0	1801.895	0	-1e10	8	-1e10	8	-1E+10	1	-1E+10	1	-1E+10	1	-1E+10	1	-1E+10	1	-1E+10	1
4902554	28	C	11/10/2021	17:00	-136.387	49.302	0	1835.20	0	2.0630	0	34.5600	0	27.624	0	1811.626	0	-1e10	8	-1e10	8	-1E+10	1	-1E+10	1	-1E+10	1	-1E+10	1	-1E+10	1	-1E+10	1
4902554	28	C	11/10/2021	17:00	-136.387	49.302	0	1845.60	0	2.0530	0	34.5620	0	27.626	0	1821.847	0	-1e10	8	-1e10	8	-1E+10	1	-1E+10	1	-1E+10	1	-1E+10	1	-1E+10	1	-1E+10	1
4902554	28	C	11/10/2021	17:00	-136.387	49.302	0	1855.50	0	2.0440	0	34.5630	0	27.628	0	1831.577	0	-1e10	8	-1e10	8	-1E+10	1	-1E+10	1	-1E+10	1	-1E+10	1	-1E+10	1	-1E+10	1
4902554	28	C	11/10/2021	17:00	-136.387	49.302	0	1865.50	0	2.0390	0	34.5640	0	27.629	0	1841.405	0	-1e10	8	-1e10	8	-1E+10	1	-1E+10	1	-1E+10	1	-1E+10	1	-1E+10	1	-1E+10	1
4902554	28	C	11/10/2021	17:00	-136.387	49.302	0	1875.40	0	2.0330	0	34.5650	0	27.631	0	1851.134	0	-1e10	8	-1e10	8	-1E+10	1	-1E+10	1	-1E+10	1	-1E+10	1	-1E+10	1	-1E+10	1
4902554	28	C	11/10/2021	17:00	-136.387	49.302	0	1885.40	0	2.0260	0	34.5660	0	27.632	0	1860.961	0	-1e10	8	-1e10	8	-1E+10	1	-1E+10	1	-1E+10	1	-1E+10	1	-1E+10	1	-1E+10	1
4902554	28	C	11/10/2021	17:00	-136.387	49.302	0	1895.20	0	2.0210	0	34.5670	0	27.633	0	1870.591	0	-1e10	8	-1e10	8	-1E+10	1	-1E+10	1	-1E+10	1	-1E+10	1	-1E+10	1	-1E+10	1
4902554	28	C	11/10/2021	17:00	-136.387	49.302	0	1905.00	0	2.0130	0	34.5690	0	27.635	0	1880.221	0	-1e10	8	-1e10	8	-1E+10	1	-1E+10	1	-1E+10	1	-1E+10	1	-1E+10	1	-1E+10	1
4902554	28	C	11/10/2021	17:00	-136.387	49.302	0	1915.00	0	2.0070	0	34.5700	0	27.637	0	1890.046	0	-1e10	8	-1e10	8	-1E+10	1	-1E+10	1	-1E+10	1	-1E+10	1	-1E+10	1	-1E+10	1
4902554	28	C	11/10/2021	17:00	-136.387	49.302	0	1925.10	0	1.9970	0	34.5720	0	27.639	0	1899.970	0	-1e10	8	-1e10	8	-1E+10	1	-1E+10	1	-1E+10	1	-1E+10	1	-1E+10	1	-1E+10	1
4902554	28	C	11/10/2021	17:00	-136.387	49.302	0	1935.30	0	1.9890	0	34.5740	0	27.641	0	1909.991	0	-1e10	8	-1e10	8	-1E+10	1	-1E+10	1	-1E+10	1	-1E+10	1	-1E+10	1	-1E+10	1
4902554	28	C	11/10/2021	17:00	-136.387	49.302	0	1945.50	0	1.9820	0	34.5750	0	27.643	0	1920.011	0	-1e10	8	-1e10	8	-1E+10	1	-1E+10	1	-1E+10	1	-1E+10	1	-1E+10	1	-1E+10	1
4902554	28	C	11/10/2021	17:00	-136.387	49.302	0	1955.70	0	1.9750	0	34.5770	0	27.645	0	1930.031	0	-1e10	8	-1e10	8	-1E+10	1	-1E+10	1	-1E+10	1	-1E+10	1	-1E+10	1	-1E+10	1
4902554	28	C	11/10/2021	17:00	-136.387	49.302	0	1965.40	0	1.9660	0	34.5780	0	27.647	0	1939.560	0	-1e10	8	-1e10	8	-1E+10	1	-1E+10	1	-1E+10	1	-1E+10	1	-1E+10	1	-1E+10	1
4902554	28	C	11/10/2021	17:00	-136.387	49.302	0	1974.70	0	1.9590	0	34.5800	0	27.649	0	1948.695	0	-1e10	8	-1e10	8	-1E+10	1	-1E+10	1	-1E+10	1	-1E+10	1	-1E+10	1	-1E+10	1
4902554	28	C	11/10/2021	17:00	-136.387	49.302	0																										
4902554	29	C	11/20/2021	21:57	-136.373	49.282	0	0.40	0	8.9380	0	32.3090	0	25.021	0	0.397	0	-1e10	8	-1e10	8	-1E+10	1	-1E+10	1	-1E+10	1	-1E+10	1	-1E+10	1	-1E+10	1
4902554	29	C	11/20/2021	21:57	-136.373	49.282	0	0.90	0	8.9390	0	32.3080	0	25.021	0	0.892	0	-1e10	8	-1e10	8	-1E+10	1	-1E+10	1	-1E+10	1	-1E+10	1	-1E+10	1	-1E+10	1
4902554	29	C	11/20/2021	21:57	-136.373	49.282	0	1.80	0	8.9380	0	32.3090	0	25.021	0	1.785	0	-1e10	8	-1e10	8	-1E+10	1	-1E+10	1	-1E+10	1	-1E+10	1	-1E+10	1	-1E+10	1
4902554	29	C	11/20/2021	21:57	-136.373	49.282	0	3.10	0	8.9390	0	32.3110	0	25.023	0	3.074	0	-1e10	8	-1e10	8	-1E+10	1	-1E+10	1	-1E+10	1	-1E+10	1	-1E+10	1	-1E+10	1
4902554	29	C	11/20/2021	21:57	-136.373	49.282	0	4.10	0	8.9390	0	32.3120	0	25.024	0	4.065	0	-1e10	8	-1e10	8	-1E+10	1	-1E+10	1	-1E+10	1	-1E+10	1	-1E+10	1	-1E+10	1
4902554	29	C	11/20/2021	21:57	-136.373	49.282	0	4.90	0	8.9390	0	32.3130	0	25.024	0	4.858	0	-1e10	8	-1e10	8	-1E+10	1	-1E+10	1	-1E+10	1	-1E+10	1	-1E+10	1	-1E+10	1
4902554	29	C	11/20/2021	21:57	-136.373	49.282	0	6.10	0	8.9390	0	32.3140	0	25.025	0	6.048	0	-1e10	8	-1e10	8	-1E+10	1	-1E+10	1	-1E+10	1	-1E+10	1	-1E+10	1	-1E+10	1
4902554	29	C	11/20/2021	21:57	-136.373	49.282	0	7.00	0	8.9390	0	32.3140	0	25.025	0	6.940	0	-1e10	8	-1e10	8	-1E+10	1	-1E+10	1	-1E+10	1	-1E+10	1	-1E+10	1	-1E+10	1
4902554	29	C	11/20/2021	21:57	-136.373	49.282	0	7.80	0	8.9400	0	32.3130	0	25.024	0	7.733	0	-1e10	8	-1e10	8	-1E+10	1	-1E+10	1	-1E+10	1	-1E+10	1	-1E+10	1	-1E+10	1
4902554	29	C	11/20/2021	21:57	-136.373	49.282	0	8.70	0	8.9400	0	32.3130	0	25.024	0	8.626	0	-1e10	8	-1e10	8	-1E+10	1	-1E+10	1	-1E+10	1	-1E+10	1	-1E+10	1	-1E+10	1
4902554	29	C	11/20/2021	21:57	-136.373	49.282	0	9.80	0	8.9400	0	32.3130	0	25.024	0	9.716	0	-1e10	8	-1e10	8	-1E+10	1	-1E+10	1	-1E+10	1	-1E+10	1	-1E+10	1	-1E+10	1
4902554	29	C	11/20/2021	21:57	-136.373	49.282	0	11.00	0	8.9410	0	32.3130	0	25.024	0	10.906	0	-1e10	8	-1e10	8	-1E+10	1	-1E+10	1	-1E+10	1	-1E+10	1	-1E+10	1	-1E+10	1
4902554	29	C	11/20/2021	21:57	-136.373	49.282	0	12.00	0	8.9410	0	32.3130	0	25.024	0	11.898	0	-1e10	8	-1e10	8	-1E+10	1	-1E+10	1	-1E+10	1	-1E+10	1	-1E+10	1	-1E+10	1
4902554	29	C	11/20/2021	21:57	-136.373	49.282	0	12.70	0	8.9400	0	32.3140	0	25.025	0	12.592	0	-1e10	8	-1e10	8	-1E+10	1	-1E+10	1	-1E+10	1	-1E+10	1	-1E+10	1	-1E+10	1
4902554	29	C	11/20/2021	21:57	-136.373	49.282	0	13.90	0	8.9390	0	32.3130	0	25.025	0	13.781	0	-1e10	8	-1e10	8	-1E+10	1	-1E+10	1	-1E+10	1	-1E+10	1	-1E+10	1	-1E+10	1
4902554	29	C	11/20/2021	21:57	-136.373	49.282	0	15.20	0	8.9400	0	32.3130	0	25.025	0	15.070	0	-1e10	8	-1e10	8	-1E+10	1	-1E+10	1	-1E+10	1	-1E+10	1	-1E+10	1	-1E+10	1
4902554	29	C	11/20/2021	21:57	-136.373	49.282	0	16.10	0	8.9400	0	32.3130	0	25.025	0	15.962	0	-1e10	8	-1e10	8	-1E+10	1	-1E+10	1	-1E+10	1	-1E+10	1	-1E+10	1	-1E+10	1
4902554	29	C	11/20/2021	21:57	-136.373	49.282	0	17.00	0	8.9400	0	32.3140	0	25.025	0	16.855	0	-1e10	8	-1e10	8	-1E+10	1	-1E+10	1	-1E+10	1	-1E+10	1	-1E+10	1	-1E+10	1
4902554	29	C	11/20/2021	21:57	-136.373	49.282	0	17.90	0	8.9400	0	32.3130	0	25.025	0	17.747	0	-1e10	8	-1e10	8	-1E+10	1	-1E+10	1	-1E+10	1	-1E+10	1	-1E+10	1	-1E+10	1
4902554	29	C	11/20/2021	21:57	-136.373	49.282	0	18.90	0	8.9390	0	32.3140	0	25.026	0	18.738	0	-1e10	8	-1e10	8	-1E+10	1	-1E+10	1	-1E+10	1	-1E+10	1	-1E+10	1	-1E+10	1
4902554	29	C	11/20/2021	21:57	-136.373	49.282	0	20.00	0	8.9390	0	32.3130	0	25.025	0	19.829	0	-1e10	8	-1e10	8	-1E+10	1	-1E+10	1	-1E+10	1	-1E+10	1	-1E+10	1	-1E+10	1
4902554	29	C	11/20/2021	21:57	-136.373	49.282	0	21.30	0	8.9400	0	32.3130	0	25.025	0	21.118	0	-1e10	8	-1e10	8	-1E+10	1	-1E+10	1	-1E+10	1	-1E+10	1	-1E+10	1	-1E+10	1
4902554	29	C	11/20/2021	21:57	-136.373	49.282	0	22.00	0	8.9400	0	32.3130	0	25.025	0	21.812	0	-1e10	8	-1e10	8	-1E+10	1	-1E+10	1	-1E+10	1	-1E+10	1	-1E+10	1	-1E+10	1
4902554	29	C	11/20/2021	21:57	-136.373	49.282	0	23.00	0	8.9400	0	32.3130	0	25.025	0	22.803	0	-1e10	8	-1e10	8	-1E+10	1	-1E+10	1	-1E+10	1	-1E+10	1	-1E+10	1	-1E+10	1
4902554	29	C	11/20/2021	21:57	-136.373	49.282	0	24.00	0	8.9400	0	32.3130	0	25.025	0	23.794	0	-1e10	8	-1e10	8	-1E+10	1	-1E+10	1	-1E+10	1	-1E+10	1	-1E+10	1	-1E+10	1
4902554	29	C	11/20/2021	21:57	-136.373	49.282	0	25.00	0	8.9400	0	32.3130	0	25.025	0	24.786	0	-1e10	8	-1e10	8	-1E+10	1	-1E+10	1	-1E+10	1	-1E+10	1	-1E+10	1	-1E+10	1
4902554	29	C	11/20/2021	21:57	-136.373	49.282	0	26.20	0	8.9400	0	32.3130	0	25.025	0	25.975	0	-1e10	8	-1e10	8	-1E+10	1	-1E+10	1	-1E+10	1	-1E+10	1	-1E+10	1	-1E+10	1
4902554	29	C	11/20/2021	21:57	-136.373	49.282	0	27.00	0	8.9400	0	32.3130	0	25.025	0	26.769	0	-1e10	8	-1e10	8	-1E+10	1	-1E+10	1	-1E+10	1	-1E+10	1	-1E+10	1	-1E+10	1
4902554	29	C	11/20/2021	21:57	-136.373	49.282	0	28.10	0	8.9400	0	32.3130	0	25.025	0	27.859	0	-1e10	8	-1e10	8	-1E+10	1	-1E+10	1	-1E+10	1	-1E+10	1	-1E+10	1	-1E+10	1
4902554	29	C	11/20/2021	21:57	-136.373	49.282	0	29.40	0	8.9410	0	32.3130	0	25.025	0	29.148	0	-1e10	8	-1e10	8	-1E+10	1	-1E+10	1	-1E+10	1	-1E+10	1	-1E+10	1	-1E+10	1
4902554	29	C	11/20/2021	21:57	-136.373	49.282	0	29.90	0	8.9400	0	32.3130	0	25.025	0	29.643	0	-1e10	8	-1e10	8	-1E+10	1	-1E+10	1	-1E+10	1	-1E+10	1	-1E+10	1	-1E+10	1
4902554	29	C	11/20/2021	21:57	-136.373	49.282	0	30.80	0	8.9400	0	32.3130	0	25.025	0	30.536	0	-1e10	8	-1e10	8	-1E+10	1	-1E+10	1	-1E+10	1	-1E+10	1	-1E+10	1	-1E+10	1
4902554	29	C	11/20/2021	21:57	-136.373	49.282	0	32.00	0	8.9410	0	32.3130	0	25.025	0	31.725	0	-1e10	8	-1e10	8	-1E+10	1	-1E+10	1	-1E+10	1	-1E+10	1	-1E+10	1	-1E+10	1
4902554	29	C	11/20/2021	21:57	-136.373	49.282	0	32.90	0	8.9420	0	32.3120	0	25.024	0	32.617	0	-1e10	8	-1e10	8	-1E+10	1	-1E+10	1	-1E+10	1	-1E+10	1	-1E+10	1	-1E+10	1
4902554	29	C	11/20/2021	21:57	-136.373	49.282	0	33.80	0	8.9400	0	32.3130	0	25.025	0	33.510	0	-1e10	8	-1e10	8	-1E+10	1	-1E+10	1	-1E+10	1	-1E+10	1	-1E+10	1	-1E+10	1
4902554	29	C	11/20/2021	21:57	-136.373	49.282	0	35.00	0	8.9400	0	32.3130	0	25.025	0	34.699	0	-1e10	8	-1e10	8	-1E+10	1	-1E+10	1	-1E+10	1	-1E+10	1	-1E+10	1	-1E+10	1
4902554	29	C	11/20/2021	21:57	-136.373	49.282	0	35.90	0	8.9400	0	32.3130	0	25.025	0	35.591	0	-1e10	8	-1e10	8	-1E+10	1	-1E+10	1	-1E+10	1	-1E+10	1	-1E+10	1	-1E+10	1
4902554	29	C	11/20/2021	21:57	-136.373	49.282	0	36.90	0	8.9400	0	32.3120	0	25.024	0	36.583	0	-1e10	8	-1e10	8	-1E+10	1	-1E+10	1	-1E+10	1	-1E+10	1	-1E+10	1	-1E+10	1
4902554	29	C	11/20/2021	21:57	-136.373	49.282	0	38.00	0	8.9430	0	32.3120	0	25.024	0	37.673	0	-1e10	8	-1e10	8	-1E+10	1	-1E+10	1	-1E+10	1	-1E+10	1	-1E+10	1	-1E+10	1
4902554	29	C	11/20/2021	21:57	-136.373	49.282	0	38.90	0	8.9420	0	32.3120	0	25.024	0	38.565	0	-1e10	8	-1e10	8	-1E+10	1	-1E+10	1	-1E+10	1	-1E+10	1	-1E+10	1	-1E+10	1
4902554	29	C	11/20/2021	21:57	-136.373	49.282	0	40.00	0	8.9410	0	32.3130	0	25.025	0	39.656	0	-1e10	8	-1e10	8	-1E+10	1	-1E+10	1	-1E+10	1	-1E+10	1	-1E+10	1	-1E+10	1
4902554	29	C	11/20/2021	21:57	-136.373	49.282	0	41.00	0	8.9410	0	32.3120	0	25.024	0	40.647	0	-1e10	8	-1e10	8	-1E+10	1	-1E+10	1	-1E+10	1	-1E+10	1	-1E+10	1	-1E+10	1
4902554	29	C	11/20/2021	21:57	-136.373	49.282	0	42.10	0	8.9420	0	32.3130	0	25.025	0	41.738	0	-1e10	8	-1e10	8	-1E+10	1	-1E+10	1	-1E+10	1	-1E+10	1	-1E+10	1	-1E+10	1
4902554	29	C	11/20/2021	21:57	-136.373	49.282	0	43.00	0	8.9430	0	32.3130	0	25.024	0	42.630	0	-1e10	8	-1e10	8	-1E+10	1	-1E+10	1	-1E+10	1	-1E+10	1	-1E+10	1	-1E+10	1
4902554	29	C	11/20/2021	21:57	-136.373	49.282	0	43.90	0	8.9440	0	32.3130	0	25.024	0	43.522	0	-1e10	8	-1e10	8	-1E+10	1	-1E+10	1	-1E+10	1	-1E+10	1	-1E+10	1	-1E+10	1
4902554	29	C	11/20/2021	21:57	-136.373	49.282	0	44.60	0	8.9410	0	32.3130	0	25.025	0	44.216	0	-1e10	8	-1e10	8	-1E+10	1	-1E+10	1	-1E+10	1	-1E+10	1	-1E+10	1	-1E+10	1
4902554	29	C	11/20/2021	21:57	-136.373	49.282	0	45.80	0	8.9410	0	32.3130	0	25.025	0	45.405	0	-1e10	8	-1e10	8	-1E+10	1	-1E+10	1	-1E+10	1	-1E+10	1	-1E+10	1	-1E+10	1
4902554	29	C	11/20/2021	21:57	-136.373	49.282	0	46.90	0	8.9360	0	32.3160	0	25.028	0	46.496	0	-1e10	8	-1e10	8	-1E+10	1	-1E+10	1	-1E+10	1	-1E+10	1	-1E+10	1	-1E+10	1
4902554	29	C	11/20/2021	21:57	-136.373	49.282	0	48.00	0	8.9420	0	32.3130	0	25.025	0	47.586	0	-1e10	8	-1e10	8	-1E+10	1	-1E+10	1	-1E+10	1	-1E+10	1	-1E+10	1	-1E+10	1
4902554	29	C	11/20/2021	21:57	-136.373	49.282	0	49.20	0	8.9430	0	32.3130	0	25.025	0	48.776	0	-1e10	8	-1e10	8	-1E+10	1	-1E+10	1	-1E+10	1	-1E+10	1	-1E+10	1	-1E+10	1
4902554	29	C	11/20/2021	21:57	-136.373	49.282	0	49.90	0	8.9420	0	32.3140	0	25.026	0	49.469	0	-1e10	8	-1e10	8	-1E+10	1	-1E+10	1	-1E+10	1	-1E+10	1	-1E+10	1	-1E+10	1
4902554	29	C	11/20/2021	21:57	-136.373	49.282	0	50.80	0	8.9440	0	32.3130	0	25.024	0	50.362	0	-1e10	8	-1e10	8	-1E+10	1	-1E+10	1	-1E+10	1	-1E+10	1	-1E+10	1	-1E+10	1
4902554	29	C	11/20/2021	21:57	-136.373	49.282	0	51.80	0	8.9450	0	32.3130	0	25.024	0	51.353	0	-1e10	8	-1e10	8	-1E+10	1	-1E+10	1	-1E+10	1	-1E+10	1	-1E+10	1	-1E+10	1
4902554	29	C	11/20/2021	21:57	-136.373	49.282	0	52.80	0	8.9370	0	32.3150	0	25.027	0	52.344	0	-1e10	8	-1e10	8	-1E+10	1	-1E+10	1	-1E+10	1	-1E+10	1	-1E+10	1	-1E+10	1
4902554	29	C	11/20/2021	21:57	-136.373	49.282	0	53.90	0	8.9400	0	32.3140	0	25.026	0	53.434	0	-1e10	8	-1e10	8	-1E+10	1	-1E+10	1	-1E+10	1	-1E+10	1	-1E+10	1	-1E+10	1
4902554	29	C	11/20/2021	21:57	-136.373	49.282	0	55.00	0	8.9430	0	32.3130	0	25.025	0	54.525	0	-1e10	8	-1e10	8	-1E+10	1	-1E+10	1	-1E+10	1	-1E+10	1	-1E+10	1	-1E+10	1
4902554	29	C	11/20/2021	21:57	-136.373	49.282	0	56.00	0	8.9410	0	32.3150	0	25.027	0	55.516	0	-1e10	8	-1e10	8	-1E+10	1	-1E+10	1	-1E+10	1	-1E+10	1	-1E+10	1	-1E+10	1
4902554	29	C	11/20/2021	21:57	-136.373	49.282	0	57.20	0	8.9410	0	32.3150	0	25.027	0	56.705	0	-1e10	8	-1e10	8	-1E+10	1	-1E+10	1	-1E+10	1	-1E+10	1	-1E+10	1	-1E+10	1
4902554	29	C	11/20/2021	21:57	-136.373	49.282	0	57.90	0	8.9410	0	32.3150	0	25.027	0	57.399	0	-1e10	8	-1e10	8	-1E+10	1	-1E+10	1	-1E+10	1	-1E+10	1	-1E+10	1	-1E+10	1
4902554	29	C	11/20/2021	21:57	-136.373	49.282	0	59.10	0	8.9450	0	32.3130	0	25.024	0	58.589	0	-1e10	8	-1e10	8	-1E+10	1	-1E+10	1	-1E+10	1	-1E+10	1	-1E+10	1	-1E+10	1
4902554	29	C	11/20/2021	21:57	-136.373	49.282	0	59.90	0	8.9440	0	32.3120	0	25.024	0	59.382	0	-1e10	8	-1e10	8	-1E+10	1	-1E+10	1	-1E+10	1	-1E+10	1	-1E+10	1	-1E+10	1
4902554	29	C	11/20/2021	21:57	-136.373	49.282	0	61.20	0	8.9420	0	32.3120	0	25.024	0	60.670	0	-1e10	8	-1e10	8	-1E+10	1	-1E+10	1	-1E+10	1	-1E+10	1	-1E+10	1	-1E+10	1
4902554	29	C	11/20/2021	21:57	-136.373	49.282	0	62.00	0	8.9390	0	32.3160	0	25.028	0	61.463	0	-1e10	8	-1e10	8	-1E+10	1	-1E+10	1	-1E+10	1	-1E+10	1	-1E+10	1	-1E+10	1
4902554	29	C	11/20/2021	21:57	-136.373	49.282	0	63.10	0	8.9390	0	32.3100	0	25.023	0	62.554	0	-1e10	8	-1e10	8	-1E+10	1	-1E+10	1	-1E+10	1	-1E+10	1	-1E+10	1	-1E+10	1
4902554	29	C	11/20/2021	21:57	-136.373	49.282	0	64.30	0	8.8340	0	32.3260	0	25.052	0	63.743	0	-1e10	8	-1e10	8	-1E+10	1	-1E+10	1	-1E+10	1	-1E+10	1	-1E+10	1	-1E+10	1
4902554	29	C	11/20/2021	21:57	-136.373	49.282	0	65.20	0	8.8280	0	32.3180	0	25.046	0	64.635	0	-1e10	8	-1e10	8	-1E+10	1	-1E+10	1	-1E+10	1	-1E+10	1	-1E+10	1	-1E+10	1
4902554	29	C	11/20/2021	21:57	-136.373	49.282	0	66.00	0	8.7760	0	32.3250	0	25.060	0	65.428	0	-1e10	8	-1e10	8	-1E+10	1	-1E+10	1	-1E+10	1	-1E+10	1	-1E+10	1	-1E+10	1
4902554	29	C	11/20/2021	21:57	-136.373	49.282	0	67.10	0	8.7110	0	32.3160	0	25.063	0	66.518	0	-1e10	8	-1e10	8	-1E+10	1	-1E+10	1	-1E+10	1	-1E+10	1	-1E+10	1	-1E+10	1
4902554	29	C	11/20/2021	21:57	-136.373	49.282	0	67.90	0	8.4580	0	32.3510	0	25.128	0	67.311	0	-1e10	8	-1e10	8	-1E+10	1	-1E+10	1	-1E+10	1	-1E+10	1	-1E+10	1	-1E+10	1
4902554	29	C	11/20/2021	21:57	-136.373	49.282	0	69.20	0	8.2700	0	32.3640	0	25.166	0	68.600	0	-1e10	8	-1e10	8	-1E+10	1	-1E+10	1	-1E+10	1	-1E+10	1	-1E+10	1	-1E+10	1
4902554	29	C	11/20/2021	21:57	-136.373	49.282	0	69.80	0	8.1480	0	32.3690	0	25.188	0	69.194	0	-1e10	8	-1e10	8	-1E+10	1	-1E+10	1	-1E+10	1	-1E+10	1	-1E+10	1	-1E+10	1
4902554	29	C	11/20/2021	21:57	-136.373	49.282	0	70.80	0	7.9940	0	32.3850	0	25.223	0	70.186	0	-1e10	8	-1e10	8	-1E+10	1	-1E+10	1	-1E+10	1	-1E+10	1	-1E+10	1	-1E+10	1
4902554	29	C	11/20/2021	21:57	-136.373	49.282	0	71.90	0	7.7160	0	32.4120	0	25.284	0	71.276	0	-1e10	8	-1e10	8	-1E+10	1	-1E+10	1	-1E+10	1	-1E+10	1	-1E+10	1	-1E+10	1
4902554	29	C	11/20/2021	21:57	-136.373	49.282	0	73.00	0	7.5760	0	32.4100	0	25.302	0	72.366	0	-1e10	8	-1e10	8	-1E+10	1	-1E+10	1	-1E+10	1	-1E+10	1	-1E+10	1	-1E+10	1
4902554	29	C	11/20/2021	21:57	-136.373	49.282	0	74.10	0	7.4770	0	32.4190	0	25.322	0	73.456	0	-1e10	8	-1e10	8	-1E+10	1	-1E+10	1	-1E+10	1	-1E+10	1	-1E+10	1	-1E+10	1
4902554	29	C	11/20/2021	21:57	-136.373	49.282	0	75.00	0	7.3780	0	32.4220	0	25.339	0	74.348	0	-1e10	8	-1e10	8	-1E+10	1	-1E+10	1	-1E+10	1	-1E+10	1	-1E+10	1	-1E+10	1
4902554	29	C	11/20/2021	21:57	-136.373	49.282	0	75.70	0	7.2960	0	32.4310	0	25.357	0	75.042	0	-1e10	8	-1e10	8	-1E+10	1	-1E+10	1	-1E+10	1	-1E+10	1	-1E+10	1	-1E+10	1
4902554	29	C	11/20/2021	21:57	-136.373	49.282	0	76.80	0	7.2070	0	32.4300	0	25.368	0	76.132	0	-1e10	8	-1e10	8	-1E+10	1	-1E+10	1	-1E+10	1	-1E+10	1	-1E+10	1	-1E+10	1
4902554	29	C	11/20/2021	21:57	-136.373	49.282	0	77.80	0	6.9330	0	32.4510	0	25.421	0	77.124	0	-1e10	8	-1e10	8	-1E+10	1	-1E+10	1	-1E+10	1	-1E+10	1	-1E+10	1	-1E+10	1
4902554	29	C	11/20/2021	21:57	-136.373	49.282	0	78.70	0	6.7040	0	32.4700	0	25.466	0	78.016	0	-1e10	8	-1e10	8	-1E+10	1	-1E+10	1	-1E+10	1	-1E+10	1	-1E+10	1	-1E+10	1
4902554	29	C	11/20/2021	21:57	-136.373	49.282	0	79.90	0	6.5200	0	32.4840	0	25.501	0	79.205	0	-1e10	8	-1e10	8	-1E+10	1	-1E+10	1	-1E+10	1	-1E+10	1	-1E+10	1	-1E+10	1
4902554	29	C	11/20/2021	21:57	-136.373	49.282	0	81.10	0	6.4500	0	32.4820	0	25.508	0	80.394	0	-1e10	8	-1e10	8	-1E+10	1	-1E+10	1	-1E+10	1	-1E+10	1	-1E+10	1	-1E+10	1
4902554	29	C	11/20/2021	21:57	-136.373	49.282	0	82.00	0	6.4310	0	32.4850	0	25.513	0	81.286	0	-1e10	8	-1e10	8	-1E+10	1	-1E+10	1	-1E+10	1	-1E+10	1	-1E+10	1	-1E+10	1
4902554	29	C	11/20/2021	21:57	-136.373	49.282	0	83.00	0	6.4190	0	32.4870	0	25.516	0	82.277	0	-1e10	8	-1e10	8	-1E+10	1	-1E+10	1	-1E+10	1	-1E+10	1	-1E+10	1	-1E+10	1
4902554	29	C	11/20/2021	21:57	-136.373	49.282	0	84.10	0	6.4050	0	32.4880	0	25.519	0	83.367	0	-1e10	8	-1e10	8	-1E+10	1	-1E+10	1	-1E+10	1	-1E+10	1	-1E+10	1	-1E+10	1
4902554	29	C	11/20/2021	21:57	-136.373	49.282	0	85.00	0	6.3580	0	32.4910	0	25.527	0	84.259	0	-1e10	8	-1e10	8	-1E+10	1	-1E+10	1	-1E+10	1	-1E+10	1	-1E+10	1	-1E+10	1
4902554	29	C	11/20/2021	21:57	-136.373	49.282	0	86.10	0	6.2960	0	32.5010	0	25.543	0	85.350	0	-1e10	8	-1e10	8	-1E+10	1	-1E+10	1	-1E+10	1	-1E+10	1	-1E+10	1	-1E+10	1
4902554	29	C	11/20/2021	21:57	-136.373	49.282	0	86.80	0	6.2920	0	32.5010	0	25.543	0	86.043	0	-1e10	8	-1e10	8	-1E+10	1	-1E+10	1	-1E+10	1	-1E+10	1	-1E+10	1	-1E+10	1
4902554	29	C	11/20/2021	21:57	-136.373	49.282	0	88.00	0	6.2860	0	32.5020	0	25.545	0	87.233	0	-1e10	8	-1e10	8	-1E+10	1	-1E+10	1	-1E+10	1	-1E+10	1	-1E+10	1	-1E+10	1
4902554	29	C	11/20/2021	21:57	-136.373	49.282	0	89.10	0	6.2740	0	32.5020	0	25.546	0	88.323	0	-1e10	8	-1e10	8	-1E+10	1	-1E+10	1	-1E+10	1	-1E+10	1	-1E+10	1	-1E+10	1
4902554	29	C	11/20/2021	21:57	-136.373	49.282	0	89.90	0	6.2430	0	32.5040	0	25.552	0	89.116	0	-1e10	8	-1e10	8	-1E+10	1	-1E+10	1	-1E+10	1	-1E+10	1	-1E+10	1	-1E+10	1
4902554	29	C	11/20/2021	21:57	-136.373	49.282	0	91.20	0	6.1460	0	32.5130	0	25.571	0	90.404	0	-1e10	8	-1e10	8	-1E+10	1	-1E+10	1	-1E+10	1	-1E+10	1	-1E+10	1	-1E+10	1
4902554	29	C	11/20/2021	21:57	-136.373	49.282	0	91.80	0	6.1420	0	32.5150	0	25.573	0	90.999	0	-1e10	8	-1e10	8	-1E+10	1	-1E+10	1	-1E+10	1	-1E+10	1	-1E+10	1	-1E+10	1
4902554	29	C	11/20/2021	21:57	-136.373	49.282	0	92.90	0	6.1390	0	32.5260	0	25.582	0	92.089	0	-1e10	8	-1e10	8	-1E+10	1	-1E+10	1	-1E+10	1	-1E+10	1	-1E+10	1	-1E+10	1
4902554	29	C	11/20/2021	21:57	-136.373	49.282	0	94.00	0	6.1220	0	32.5320	0	25.589	0	93.179	0	-1e10	8	-1e10	8	-1E+10	1	-1E+10	1	-1E+10	1	-1E+10	1	-1E+10	1	-1E+10	1
4902554	29	C	11/20/2021	21:57	-136.373	49.282	0	94.90	0	6.1130	0	32.5340	0	25.592	0	94.071	0	-1e10	8	-1e10	8	-1E+10	1	-1E+10	1	-1E+10	1	-1E+10	1	-1E+10	1	-1E+10	1
4902554	29	C	11/20/2021	21:57	-136.373	49.282	0	95.90	0	6.0810	0	32.5410	0	25.601	0	95.062	0	-1e10	8	-1e10	8	-1E+10	1	-1E+10	1	-1E+10	1	-1E+10	1	-1E+10	1	-1E+10	1
4902554	29	C	11/20/2021	21:57	-136.373	49.282	0	96.80	0	6.0490	0	32.5490	0	25.611	0	95.954	0	-1e10	8	-1e10	8	-1E+10	1	-1E+10	1	-1E+10	1	-1E+10	1	-1E+10	1	-1E+10	1
4902554	29	C	11/20/2021	21:57	-136.373	49.282	0	97.80	0	6.0310	0	32.5550	0	25.618	0	96.945	0	-1e10	8	-1e10	8	-1E+10	1	-1E+10	1	-1E+10	1	-1E+10	1	-1E+10	1	-1E+10	1
4902554	29	C	11/20/2021	21:57	-136.373	49.282	0	98.80	0	5.9910	0	32.5750	0	25.639	0	97.936	0	-1e10	8	-1e10	8	-1E+10	1	-1E+10	1	-1E+10	1	-1E+10	1	-1E+10	1	-1E+10	1
4902554	29	C	11/20/2021	21:57	-136.373	49.282	0	99.90	0	5.9630	0	32.5880	0	25.653	0	99.026	0	-1e10	8	-1e10	8	-1E+10	1	-1E+10	1	-1E+10	1	-1E+10	1	-1E+10	1	-1E+10	1
4902554	29	C	11/20/2021	21:57	-136.373	49.282	0	100.90	0	5.9390	0	32.5980	0	25.664	0	100.017	0	-1e10	8	-1e10	8	-1E+10	1	-1E+10	1	-1E+10	1	-1E+10	1	-1E+10	1	-1E+10	1
4902554	29	C	11/20/2021	21:57	-136.373	49.282	0	102.00	0	5.9400	0	32.6150	0	25.677	0	101.107	0	-1e10	8	-1e10	8	-1E+10	1	-1E+10	1	-1E+10	1	-1E+10	1	-1E+10	1	-1E+10	1
4902554	29	C	11/20/2021	21:57	-136.373	49.282	0	103.10	0	5.9410	0	32.6240	0	25.684	0	102.197	0	-1e10	8	-1e10	8	-1E+10	1	-1E+10	1	-1E+10	1	-1E+10	1	-1E+10	1	-1E+10	1
4902554	29	C	11/20/2021	21:57	-136.373	49.282	0	104.30	0	5.9430	0	32.6310	0	25.689	0	103.386	0	-1e10	8	-1e10	8	-1E+10	1	-1E+10	1	-1E+10	1	-1E+10	1	-1E+10	1	-1E+10	1
4902554	29	C	11/20/2021	21:57	-136.373	49.282	0	105.10	0	5.9440	0	32.6370	0	25.694	0	104.179	0	-1e10	8	-1e10	8	-1E+10	1	-1E+10	1	-1E+10	1	-1E+10	1	-1E+10	1	-1E+10	1
4902554	29	C	11/20/2021	21:57	-136.373	49.282	0	106.10	0	5.9420	0	32.6510	0	25.705	0	105.170	0	-1e10	8	-1e10	8	-1E+10	1	-1E+10	1	-1E+10	1	-1E+10	1	-1E+10	1	-1E+10	1
4902554	29	C	11/20/2021	21:57	-136.373	49.282	0	107.00	0	5.9440	0	32.6640	0	25.715	0	106.062	0	-1e10	8	-1e10	8	-1E+10	1	-1E+10	1	-1E+10	1	-1E+10	1	-1E+10	1	-1E+10	1
4902554	29	C	11/20/2021	21:57	-136.373	49.282	0	107.80	0	5.9520	0	32.6960	0	25.739	0	106.855	0	-1e10	8	-1e10	8	-1E+10	1	-1E+10	1	-1E+10	1	-1E+10	1	-1E+10	1	-1E+10	1
4902554	29	C	11/20/2021	21:57	-136.373	49.282	0	109.00	0	5.9540	0	32.7130	0	25.753	0	108.044	0	-1e10	8	-1e10	8	-1E+10	1	-1E+10	1	-1E+10	1	-1E+10	1	-1E+10	1	-1E+10	1
4902554	29	C	11/20/2021	21:57	-136.373	49.282	0	109.90	0	5.9580	0	32.7270	0	25.763	0	108.936	0	-1e10	8	-1e10	8	-1E+10	1	-1E+10	1	-1E+10	1	-1E+10	1	-1E+10	1	-1E+10	1
4902554	29	C	11/20/2021	21:57	-136.373	49.282	0	110.80	0	5.9750	0	32.7610	0	25.788	0	109.828	0	-1e10	8	-1e10	8	-1E+10	1	-1E+10	1	-1E+10	1	-1E+10	1	-1E+10	1	-1E+10	1
4902554	29	C	11/20/2021	21:57	-136.373	49.282	0	111.90	0	5.9990	0	32.8020	0	25.817	0	110.918	0	-1e10	8	-1e10	8	-1E+10	1	-1E+10	1	-1E+10	1	-1E+10	1	-1E+10	1	-1E+10	1
4902554	29	C	11/20/2021	21:57	-136.373	49.282	0	112.90	0	5.9990	0	32.8550	0	25.859	0	111.909	0	-1e10	8	-1e10	8	-1E+10	1	-1E+10	1	-1E+10	1	-1E+10	1	-1E+10	1	-1E+10	1
4902554	29	C	11/20/2021	21:57	-136.373	49.282	0	114.00	0	6.0020	0	32.8640	0	25.866	0	112.999	0	-1e10	8	-1e10	8	-1E+10	1	-1E+10	1	-1E+10	1	-1E+10	1	-1E+10	1	-1E+10	1
4902554	29	C	11/20/2021	21:57	-136.373	49.282	0	115.00	0	6.0030	0	32.8690	0	25.870	0	113.990	0	-1e10	8	-1e10	8	-1E+10	1	-1E+10	1	-1E+10	1	-1E+10	1	-1E+10	1	-1E+10	1
4902554	29	C	11/20/2021	21:57	-136.373	49.282	0	116.10	0	6.0090	0	32.8830	0	25.880	0	115.080	0	-1e10	8	-1e10	8	-1E+10	1	-1E+10	1	-1E+10	1	-1E+10	1	-1E+10	1	-1E+10	1
4902554	29	C	11/20/2021	21:57	-136.373	49.282	0	116.90	0	6.0400	0	32.9500	0	25.929	0	115.873	0	-1e10	8	-1e10	8	-1E+10	1	-1E+10	1	-1E+10	1	-1E+10	1	-1E+10	1	-1E+10	1
4902554	29	C	11/20/2021	21:57	-136.373	49.282	0	118.00	0	6.0590	0	32.9980	0	25.965	0	116.963	0	-1e10	8	-1e10	8	-1E+10	1	-1E+10	1	-1E+10	1	-1E+10	1	-1E+10	1	-1E+10	1
4902554	29	C	11/20/2021	21:57	-136.373	49.282	0	119.10	0	6.0720	0	33.0090	0	25.972	0	118.053	0	-1e10	8	-1e10	8	-1E+10	1	-1E+10	1	-1E+10	1	-1E+10	1	-1E+10	1	-1E+10	1
4902554	29	C	11/20/2021	21:57	-136.373	49.282	0	119.90	0	6.0860	0	33.0260	0	25.984	0	118.845	0	-1e10	8	-1e10	8	-1E+10	1	-1E+10	1	-1E+10	1	-1E+10	1	-1E+10	1	-1E+10	1
4902554	29	C	11/20/2021	21:57	-136.373	49.282	0	121.00	0	6.1060	0	33.0560	0	26.005	0	119.935	0	-1e10	8	-1e10	8	-1E+10	1	-1E+10	1	-1E+10	1	-1E+10	1	-1E+10	1	-1E+10	1
4902554	29	C	11/20/2021	21:57	-136.373	49.282	0	122.20	0	6.1410	0	33.0650	0	26.008	0	121.124	0	-1e10	8	-1e10	8	-1E+10	1	-1E+10	1	-1E+10	1	-1E+10	1	-1E+10	1	-1E+10	1
4902554	29	C	11/20/2021	21:57	-136.373	49.282	0	123.10	0	6.1710	0	33.1400	0	26.063	0	122.016	0	-1e10	8	-1e10	8	-1E+10	1	-1E+10	1	-1E+10	1	-1E+10	1	-1E+10	1	-1E+10	1
4902554	29	C	11/20/2021	21:57	-136.373	49.282	0	123.90	0	6.1770	0	33.1630	0	26.081	0	122.809	0	-1e10	8	-1e10	8	-1E+10	1	-1E+10	1	-1E+10	1	-1E+10	1	-1E+10	1	-1E+10	1
4902554	29	C	11/20/2021	21:57	-136.373	49.282	0	124.70	0	6.1820	0	33.2140	0	26.120	0	123.602	0	-1e10	8	-1e10	8	-1E+10	1	-1E+10	1	-1E+10	1	-1E+10	1	-1E+10	1	-1E+10	1
4902554	29	C	11/20/2021	21:57	-136.373	49.282	0	125.70	0	6.1890	0	33.2350	0	26.136	0	124.593	0	-1e10	8	-1e10	8	-1E+10	1	-1E+10	1	-1E+10	1	-1E+10	1	-1E+10	1	-1E+10	1
4902554	29	C	11/20/2021	21:57	-136.373	49.282	0	126.90	0	6.1740	0	33.2630	0	26.160	0	125.782	0	-1e10	8	-1e10	8	-1E+10	1	-1E+10	1	-1E+10	1	-1E+10	1	-1E+10	1	-1E+10	1
4902554	29	C	11/20/2021	21:57	-136.373	49.282	0	128.40	0	6.1500	0	33.2910	0	26.185	0	127.268	0	-1e10	8	-1e10	8	-1E+10	1	-1E+10	1	-1E+10	1	-1E+10	1	-1E+10	1	-1E+10	1
4902554	29	C	11/20/2021	21:57	-136.373	49.282	0	129.30	0	6.1340	0	33.3140	0	26.205	0	128.160	0	-1e10	8	-1e10	8	-1E+10	1	-1E+10	1	-1E+10	1	-1E+10	1	-1E+10	1	-1E+10	1
4902554	29	C	11/20/2021	21:57	-136.373	49.282	0	130.30	0	6.1320	0	33.3270	0	26.216	0	129.151	0	-1e10	8	-1e10	8	-1E+10	1	-1E+10	1	-1E+10	1	-1E+10	1	-1E+10	1	-1E+10	1
4902554	29	C	11/20/2021	21:57	-136.373	49.282	0	131.30	0	6.1210	0	33.3480	0	26.234	0	130.142	0	-1e10	8	-1e10	8	-1E+10	1	-1E+10	1	-1E+10	1	-1E+10	1	-1E+10	1	-1E+10	1
4902554	29	C	11/20/2021	21:57	-136.373	49.282	0	132.20	0	6.1210	0	33.3640	0	26.246	0	131.033	0	-1e10	8	-1e10	8	-1E+10	1	-1E+10	1	-1E+10	1	-1E+10	1	-1E+10	1	-1E+10	1
4902554	29	C	11/20/2021	21:57	-136.373	49.282	0	133.20	0	6.1210	0	33.3710	0	26.252	0	132.024	0	-1e10	8	-1e10	8	-1E+10	1	-1E+10	1	-1E+10	1	-1E+10	1	-1E+10	1	-1E+10	1
4902554	29	C	11/20/2021	21:57	-136.373	49.282	0	134.20	0	6.1210	0	33.3880	0	26.265	0	133.015	0	-1e10	8	-1e10	8	-1E+10	1	-1E+10	1	-1E+10	1	-1E+10	1	-1E+10	1	-1E+10	1
4902554	29	C	11/20/2021	21:57	-136.373	49.282	0	135.20	0	6.1210	0	33.4040	0	26.278	0	134.006	0	-1e10	8	-1e10	8	-1E+10	1	-1E+10	1	-1E+10	1	-1E+10	1	-1E+10	1	-1E+10	1
4902554	29	C	11/20/2021	21:57	-136.373	49.282	0	136.20	0	6.1190	0	33.4130	0	26.285	0	134.997	0	-1e10	8	-1e10	8	-1E+10	1	-1E+10	1	-1E+10	1	-1E+10	1	-1E+10	1	-1E+10	1
4902554	29	C	11/20/2021	21:57	-136.373	49.282	0	137.20	0	6.1140	0	33.4320	0	26.301	0	135.988	0	-1e10	8	-1e10	8	-1E+10	1	-1E+10	1	-1E+10	1	-1E+10	1	-1E+10	1	-1E+10	1
4902554	29	C	11/20/2021	21:57	-136.373	49.282	0	138.20	0	6.1100	0	33.4430	0	26.310	0	136.978	0	-1e10	8	-1e10	8	-1E+10	1	-1E+10	1	-1E+10	1	-1E+10	1	-1E+10	1	-1E+10	1
4902554	29	C	11/20/2021	21:57	-136.373	49.282	0	139.20	0	6.1020	0	33.4660	0	26.329	0	137.969	0	-1e10	8	-1e10	8	-1E+10	1	-1E+10	1	-1E+10	1	-1E+10	1	-1E+10	1	-1E+10	1
4902554	29	C	11/20/2021	21:57	-136.373	49.282	0	140.30	0	6.0940	0	33.4840	0	26.345	0	139.059	0	-1e10	8	-1e10	8	-1E+10	1	-1E+10	1	-1E+10	1	-1E+10	1	-1E+10	1	-1E+10	1
4902554	29	C	11/20/2021	21:57	-136.373	49.282	0	141.40	0	6.0900	0	33.4970	0	26.355	0	140.149	0	-1e10	8	-1e10	8	-1E+10	1	-1E+10	1	-1E+10	1	-1E+10	1	-1E+10	1	-1E+10	1
4902554	29	C	11/20/2021	21:57	-136.373	49.282	0	142.50	0	6.0810	0	33.5240	0	26.378	0	141.239	0	-1e10	8	-1e10	8	-1E+10	1	-1E+10	1	-1E+10	1	-1E+10	1	-1E+10	1	-1E+10	1
4902554	29	C	11/20/2021	21:57	-136.373	49.282	0	143.60	0	6.0650	0	33.5510	0	26.401	0	142.329	0	-1e10	8	-1e10	8	-1E+10	1	-1E+10	1	-1E+10	1	-1E+10	1	-1E+10	1	-1E+10	1
4902554	29	C	11/20/2021	21:57	-136.373	49.282	0	144.80	0	6.0630	0	33.5530	0	26.403	0	143.518	0	-1e10	8	-1e10	8	-1E+10	1	-1E+10	1	-1E+10	1	-1E+10	1	-1E+10	1	-1E+10	1
4902554	29	C	11/20/2021	21:57	-136.373	49.282	0	145.90	0	6.0560	0	33.5640	0	26.413	0	144.608	0	-1e10	8	-1e10	8	-1E+10	1	-1E+10	1	-1E+10	1	-1E+10	1	-1E+10	1	-1E+10	1
4902554	29	C	11/20/2021	21:57	-136.373	49.282	0	147.10	0	6.0540	0	33.5690	0	26.417	0	145.797	0	-1e10	8	-1e10	8	-1E+10	1	-1E+10	1	-1E+10	1	-1E+10	1	-1E+10	1	-1E+10	1
4902554	29	C	11/20/2021	21:57	-136.373	49.282	0	148.20	0	6.0530	0	33.5700	0	26.418	0	146.886	0	-1e10	8	-1e10	8	-1E+10	1	-1E+10	1	-1E+10	1	-1E+10	1	-1E+10	1	-1E+10	1
4902554	29	C	11/20/2021	21:57	-136.373	49.282	0	149.40	0	6.0480	0	33.5780	0	26.425	0	148.075	0	-1e10	8	-1e10	8	-1E+10	1	-1E+10	1	-1E+10	1	-1E+10	1	-1E+10	1	-1E+10	1
4902554	29	C	11/20/2021	21:57	-136.373	49.282	0	150.50	0	6.0460	0	33.5800	0	26.427	0	149.165	0	-1e10	8	-1e10	8	-1E+10	1	-1E+10	1	-1E+10	1	-1E+10	1	-1E+10	1	-1E+10	1
4902554	29	C	11/20/2021	21:57	-136.373	49.282	0	151.60	0	6.0440	0	33.5830	0	26.429	0	150.255	0	-1e10	8	-1e10	8	-1E+10	1	-1E+10	1	-1E+10	1	-1E+10	1	-1E+10	1	-1E+10	1
4902554	29	C	11/20/2021	21:57	-136.373	49.282	0	152.80	0	6.0420	0	33.5850	0	26.431	0	151.444	0	-1e10	8	-1e10	8	-1E+10	1	-1E+10	1	-1E+10	1	-1E+10	1	-1E+10	1	-1E+10	1
4902554	29	C	11/20/2021	21:57	-136.373	49.282	0	154.00	0	6.0280	0	33.6000	0	26.445	0	152.633	0	-1e10	8	-1e10	8	-1E+10	1	-1E+10	1	-1E+10	1	-1E+10	1	-1E+10	1	-1E+10	1
4902554	29	C	11/20/2021	21:57	-136.373	49.282	0	155.20	0	6.0200	0	33.6090	0	26.453	0	153.822	0	-1e10	8	-1e10	8	-1E+10	1	-1E+10	1	-1E+10	1	-1E+10	1	-1E+10	1	-1E+10	1
4902554	29	C	11/20/2021	21:57	-136.373	49.282	0	156.30	0	6.0190	0	33.6090	0	26.453	0	154.912	0	-1e10	8	-1e10	8	-1E+10	1	-1E+10	1	-1E+10	1	-1E+10	1	-1E+10	1	-1E+10	1
4902554	29	C	11/20/2021	21:57	-136.373	49.282	0	157.50	0	6.0180	0	33.6100	0	26.454	0	156.100	0	-1e10	8	-1e10	8	-1E+10	1	-1E+10	1	-1E+10	1	-1E+10	1	-1E+10	1	-1E+10	1
4902554	29	C	11/20/2021	21:57	-136.373	49.282	0	158.60	0	6.0170	0	33.6100	0	26.454	0	157.190	0	-1e10	8	-1e10	8	-1E+10	1	-1E+10	1	-1E+10	1	-1E+10	1	-1E+10	1	-1E+10	1
4902554	29	C	11/20/2021	21:57	-136.373	49.282	0	159.80	0	6.0170	0	33.6100	0	26.454	0	158.379	0	-1e10	8	-1e10	8	-1E+10	1	-1E+10	1	-1E+10	1	-1E+10	1	-1E+10	1	-1E+10	1
4902554	29	C	11/20/2021	21:57	-136.373	49.282	0	160.90	0	6.0150	0	33.6110	0	26.455	0	159.469	0	-1e10	8	-1e10	8	-1E+10	1	-1E+10	1	-1E+10	1	-1E+10	1	-1E+10	1	-1E+10	1
4902554	29	C	11/20/2021	21:57	-136.373	49.282	0	162.00	0	6.0080	0	33.6190	0	26.462	0	160.559	0	-1e10	8	-1e10	8	-1E+10	1	-1E+10	1	-1E+10	1	-1E+10	1	-1E+10	1	-1E+10	1
4902554	29	C	11/20/2021	21:57	-136.373	49.282	0	163.10	0	5.9930	0	33.6310	0	26.474	0	161.648	0	-1e10	8	-1e10	8	-1E+10	1	-1E+10	1	-1E+10	1	-1E+10	1	-1E+10	1	-1E+10	1
4902554	29	C	11/20/2021	21:57	-136.373	49.282	0	164.20	0	5.9870	0	33.6370	0	26.479	0	162.738	0	-1e10	8	-1e10	8	-1E+10	1	-1E+10	1	-1E+10	1	-1E+10	1	-1E+10	1	-1E+10	1
4902554	29	C	11/20/2021	21:57	-136.373	49.282	0	165.30	0	5.9760	0	33.6480	0	26.489	0	163.828	0	-1e10	8	-1e10	8	-1E+10	1	-1E+10	1	-1E+10	1	-1E+10	1	-1E+10	1	-1E+10	1
4902554	29	C	11/20/2021	21:57	-136.373	49.282	0	166.50	0	5.9660	0	33.6550	0	26.496	0	165.017	0	-1e10	8	-1e10	8	-1E+10	1	-1E+10	1	-1E+10	1	-1E+10	1	-1E+10	1	-1E+10	1
4902554	29	C	11/20/2021	21:57	-136.373	49.282	0	167.50	0	5.9590	0	33.6590	0	26.500	0	166.008	0	-1e10	8	-1e10	8	-1E+10	1	-1E+10	1	-1E+10	1	-1E+10	1	-1E+10	1	-1E+10	1
4902554	29	C	11/20/2021	21:57	-136.373	49.282	0	168.90	0	5.9560	0	33.6610	0	26.502	0	167.395	0	-1e10	8	-1e10	8	-1E+10	1	-1E+10	1	-1E+10	1	-1E+10	1	-1E+10	1	-1E+10	1
4902554	29	C	11/20/2021	21:57	-136.373	49.282	0	170.20	0	5.9490	0	33.6670	0	26.508	0	168.682	0	-1e10	8	-1e10	8	-1E+10	1	-1E+10	1	-1E+10	1	-1E+10	1	-1E+10	1	-1E+10	1
4902554	29	C	11/20/2021	21:57	-136.373	49.282	0	171.00	0	5.9480	0	33.6670	0	26.508	0	169.475	0	-1e10	8	-1e10	8	-1E+10	1	-1E+10	1	-1E+10	1	-1E+10	1	-1E+10	1	-1E+10	1
4902554	29	C	11/20/2021	21:57	-136.373	49.282	0	171.80	0	5.9490	0	33.6670	0	26.508	0	170.267	0	-1e10	8	-1e10	8	-1E+10	1	-1E+10	1	-1E+10	1	-1E+10	1	-1E+10	1	-1E+10	1
4902554	29	C	11/20/2021	21:57	-136.373	49.282	0	173.00	0	5.9400	0	33.6710	0	26.512	0	171.456	0	-1e10	8	-1e10	8	-1E+10	1	-1E+10	1	-1E+10	1	-1E+10	1	-1E+10	1	-1E+10	1
4902554	29	C	11/20/2021	21:57	-136.373	49.282	0	174.20	0	5.9300	0	33.6810	0	26.521	0	172.645	0	-1e10	8	-1e10	8	-1E+10	1	-1E+10	1	-1E+10	1	-1E+10	1	-1E+10	1	-1E+10	1
4902554	29	C	11/20/2021	21:57	-136.373	49.282	0	175.00	0	5.9260	0	33.6830	0	26.523	0	173.438	0	-1e10	8	-1e10	8	-1E+10	1	-1E+10	1	-1E+10	1	-1E+10	1	-1E+10	1	-1E+10	1
4902554	29	C	11/20/2021	21:57	-136.373	49.282	0	175.80	0	5.9150	0	33.6850	0	26.526	0	174.230	0	-1e10	8	-1e10	8	-1E+10	1	-1E+10	1	-1E+10	1	-1E+10	1	-1E+10	1	-1E+10	1
4902554	29	C	11/20/2021	21:57	-136.373	49.282	0	177.00	0	5.9070	0	33.6880	0	26.529	0	175.419	0	-1e10	8	-1e10	8	-1E+10	1	-1E+10	1	-1E+10	1	-1E+10	1	-1E+10	1	-1E+10	1
4902554	29	C	11/20/2021	21:57	-136.373	49.282	0	178.20	0	5.8980	0	33.6900	0	26.532	0	176.608	0	-1e10	8	-1e10	8	-1E+10	1	-1E+10	1	-1E+10	1	-1E+10	1	-1E+10	1	-1E+10	1
4902554	29	C	11/20/2021	21:57	-136.373	49.282	0	179.10	0	5.8870	0	33.6950	0	26.538	0	177.499	0	-1e10	8	-1e10	8	-1E+10	1	-1E+10	1	-1E+10	1	-1E+10	1	-1E+10	1	-1E+10	1
4902554	29	C	11/20/2021	21:57	-136.373	49.282	0	179.90	0	5.8780	0	33.6990	0	26.542	0	178.292	0	-1e10	8	-1e10	8	-1E+10	1	-1E+10	1	-1E+10	1	-1E+10	1	-1E+10	1	-1E+10	1
4902554	29	C	11/20/2021	21:57	-136.373	49.282	0	180.70	0	5.8680	0	33.7030	0	26.546	0	179.084	0	-1e10	8	-1e10	8	-1E+10	1	-1E+10	1	-1E+10	1	-1E+10	1	-1E+10	1	-1E+10	1
4902554	29	C	11/20/2021	21:57	-136.373	49.282	0	181.90	0	5.8620	0	33.7050	0	26.549	0	180.273	0	-1e10	8	-1e10	8	-1E+10	1	-1E+10	1	-1E+10	1	-1E+10	1	-1E+10	1	-1E+10	1
4902554	29	C	11/20/2021	21:57	-136.373	49.282	0	183.20	0	5.8530	0	33.7090	0	26.553	0	181.561	0	-1e10	8	-1e10	8	-1E+10	1	-1E+10	1	-1E+10	1	-1E+10	1	-1E+10	1	-1E+10	1
4902554	29	C	11/20/2021	21:57	-136.373	49.282	0	184.00	0	5.8490	0	33.7100	0	26.554	0	182.353	0	-1e10	8	-1e10	8	-1E+10	1	-1E+10	1	-1E+10	1	-1E+10	1	-1E+10	1	-1E+10	1
4902554	29	C	11/20/2021	21:57	-136.373	49.282	0	184.80	0	5.8440	0	33.7120	0	26.556	0	183.146	0	-1e10	8	-1e10	8	-1E+10	1	-1E+10	1	-1E+10	1	-1E+10	1	-1E+10	1	-1E+10	1
4902554	29	C	11/20/2021	21:57	-136.373	49.282	0	186.00	0	5.8350	0	33.7140	0	26.559	0	184.334	0	-1e10	8	-1e10	8	-1E+10	1	-1E+10	1	-1E+10	1	-1E+10	1	-1E+10	1	-1E+10	1
4902554	29	C	11/20/2021	21:57	-136.373	49.282	0	187.30	0	5.8280	0	33.7160	0	26.561	0	185.622	0	-1e10	8	-1e10	8	-1E+10	1	-1E+10	1	-1E+10	1	-1E+10	1	-1E+10	1	-1E+10	1
4902554	29	C	11/20/2021	21:57	-136.373	49.282	0	188.10	0	5.8260	0	33.7160	0	26.562	0	186.415	0	-1e10	8	-1e10	8	-1E+10	1	-1E+10	1	-1E+10	1	-1E+10	1	-1E+10	1	-1E+10	1
4902554	29	C	11/20/2021	21:57	-136.373	49.282	0	188.90	0	5.8230	0	33.7160	0	26.562	0	187.207	0	-1e10	8	-1e10	8	-1E+10	1	-1E+10	1	-1E+10	1	-1E+10	1	-1E+10	1	-1E+10	1
4902554	29	C	11/20/2021	21:57	-136.373	49.282	0	189.80	0	5.8110	0	33.7170	0	26.564	0	188.099	0	-1e10	8	-1e10	8	-1E+10	1	-1E+10	1	-1E+10	1	-1E+10	1	-1E+10	1	-1E+10	1
4902554	29	C	11/20/2021	21:57	-136.373	49.282	0	190.70	0	5.7980	0	33.7230	0	26.571	0	188.990	0	-1e10	8	-1e10	8	-1E+10	1	-1E+10	1	-1E+10	1	-1E+10	1	-1E+10	1	-1E+10	1
4902554	29	C	11/20/2021	21:57	-136.373	49.282	0	192.00	0	5.7690	0	33.7260	0	26.577	0	190.278	0	-1e10	8	-1e10	8	-1E+10	1	-1E+10	1	-1E+10	1	-1E+10	1	-1E+10	1	-1E+10	1
4902554	29	C	11/20/2021	21:57	-136.373	49.282	0	193.30	0	5.7600	0	33.7280	0	26.579	0	191.566	0	-1e10	8	-1e10	8	-1E+10	1	-1E+10	1	-1E+10	1	-1E+10	1	-1E+10	1	-1E+10	1
4902554	29	C	11/20/2021	21:57	-136.373	49.282	0	194.20	0	5.7430	0	33.7310	0	26.584	0	192.457	0	-1e10	8	-1e10	8	-1E+10	1	-1E+10	1	-1E+10	1	-1E+10	1	-1E+10	1	-1E+10	1
4902554	29	C	11/20/2021	21:57	-136.373	49.282	0	195.10	0	5.7420	0	33.7300	0	26.583	0	193.349	0	-1e10	8	-1e10	8	-1E+10	1	-1E+10	1	-1E+10	1	-1E+10	1	-1E+10	1	-1E+10	1
4902554	29	C	11/20/2021	21:57	-136.373	49.282	0	196.00	0	5.7380	0	33.7300	0	26.584	0	194.240	0	-1e10	8	-1e10	8	-1E+10	1	-1E+10	1	-1E+10	1	-1E+10	1	-1E+10	1	-1E+10	1
4902554	29	C	11/20/2021	21:57	-136.373	49.282	0	196.90	0	5.7360	0	33.7300	0	26.584	0	195.132	0	-1e10	8	-1e10	8	-1E+10	1	-1E+10	1	-1E+10	1	-1E+10	1	-1E+10	1	-1E+10	1
4902554	29	C	11/20/2021	21:57	-136.373	49.282	0	197.80	0	5.7280	0	33.7310	0	26.586	0	196.023	0	-1e10	8	-1e10	8	-1E+10	1	-1E+10	1	-1E+10	1	-1E+10	1	-1E+10	1	-1E+10	1
4902554	29	C	11/20/2021	21:57	-136.373	49.282	0	198.70	0	5.7070	0	33.7340	0	26.591	0	196.915	0	-1e10	8	-1e10	8	-1E+10	1	-1E+10	1	-1E+10	1	-1E+10	1	-1E+10	1	-1E+10	1
4902554	29	C	11/20/2021	21:57	-136.373	49.282	0	199.60	0	5.6760	0	33.7410	0	26.600	0	197.806	0	-1e10	8	-1e10	8	-1E+10	1	-1E+10	1	-1E+10	1	-1E+10	1	-1E+10	1	-1E+10	1
4902554	29	C	11/20/2021	21:57	-136.373	49.282	0	200.60	0	5.6720	0	33.7380	0	26.598	0	198.797	0	-1e10	8	-1e10	8	-1E+10	1	-1E+10	1	-1E+10	1	-1E+10	1	-1E+10	1	-1E+10	1
4902554	29	C	11/20/2021	21:57	-136.373	49.282	0	201.90	0	5.6600	0	33.7400	0	26.601	0	200.084	0	-1e10	8	-1e10	8	-1E+10	1	-1E+10	1	-1E+10	1	-1E+10	1	-1E+10	1	-1E+10	1
4902554	29	C	11/20/2021	21:57	-136.373	49.282	0	203.40	0	5.6500	0	33.7420	0	26.604	0	201.570	0	-1e10	8	-1e10	8	-1E+10	1	-1E+10	1	-1E+10	1	-1E+10	1	-1E+10	1	-1E+10	1
4902554	29	C	11/20/2021	21:57	-136.373	49.282	0	204.30	0	5.6420	0	33.7420	0	26.605	0	202.462	0	-1e10	8	-1e10	8	-1E+10	1	-1E+10	1	-1E+10	1	-1E+10	1	-1E+10	1	-1E+10	1
4902554	29	C	11/20/2021	21:57	-136.373	49.282	0	205.20	0	5.6390	0	33.7430	0	26.606	0	203.353	0	-1e10	8	-1e10	8	-1E+10	1	-1E+10	1	-1E+10	1	-1E+10	1	-1E+10	1	-1E+10	1
4902554	29	C	11/20/2021	21:57	-136.373	49.282	0	206.10	0	5.6310	0	33.7440	0	26.608	0	204.245	0	-1e10	8	-1e10	8	-1E+10	1	-1E+10	1	-1E+10	1	-1E+10	1	-1E+10	1	-1E+10	1
4902554	29	C	11/20/2021	21:57	-136.373	49.282	0	207.10	0	5.6230	0	33.7440	0	26.609	0	205.235	0	-1e10	8	-1e10	8	-1E+10	1	-1E+10	1	-1E+10	1	-1E+10	1	-1E+10	1	-1E+10	1
4902554	29	C	11/20/2021	21:57	-136.373	49.282	0	208.00	0	5.6180	0	33.7450	0	26.610	0	206.127	0	-1e10	8	-1e10	8	-1E+10	1	-1E+10	1	-1E+10	1	-1E+10	1	-1E+10	1	-1E+10	1
4902554	29	C	11/20/2021	21:57	-136.373	49.282	0	208.90	0	5.6120	0	33.7450	0	26.611	0	207.018	0	-1e10	8	-1e10	8	-1E+10	1	-1E+10	1	-1E+10	1	-1E+10	1	-1E+10	1	-1E+10	1
4902554	29	C	11/20/2021	21:57	-136.373	49.282	0	209.80	0	5.6020	0	33.7460	0	26.613	0	207.909	0	-1e10	8	-1e10	8	-1E+10	1	-1E+10	1	-1E+10	1	-1E+10	1	-1E+10	1	-1E+10	1
4902554	29	C	11/20/2021	21:57	-136.373	49.282	0	210.80	0	5.5680	0	33.7510	0	26.621	0	208.900	0	-1e10	8	-1e10	8	-1E+10	1	-1E+10	1	-1E+10	1	-1E+10	1	-1E+10	1	-1E+10	1
4902554	29	C	11/20/2021	21:57	-136.373	49.282	0	211.70	0	5.5610	0	33.7510	0	26.622	0	209.791	0	-1e10	8	-1e10	8	-1E+10	1	-1E+10	1	-1E+10	1	-1E+10	1	-1E+10	1	-1E+10	1
4902554	29	C	11/20/2021	21:57	-136.373	49.282	0	212.70	0	5.5550	0	33.7520	0	26.623	0	210.782	0	-1e10	8	-1e10	8	-1E+10	1	-1E+10	1	-1E+10	1	-1E+10	1	-1E+10	1	-1E+10	1
4902554	29	C	11/20/2021	21:57	-136.373	49.282	0	213.60	0	5.5430	0	33.7550	0	26.627	0	211.673	0	-1e10	8	-1e10	8	-1E+10	1	-1E+10	1	-1E+10	1	-1E+10	1	-1E+10	1	-1E+10	1
4902554	29	C	11/20/2021	21:57	-136.373	49.282	0	214.60	0	5.5110	0	33.7580	0	26.633	0	212.664	0	-1e10	8	-1e10	8	-1E+10	1	-1E+10	1	-1E+10	1	-1E+10	1	-1E+10	1	-1E+10	1
4902554	29	C	11/20/2021	21:57	-136.373	49.282	0	215.60	0	5.5060	0	33.7570	0	26.633	0	213.654	0	-1e10	8	-1e10	8	-1E+10	1	-1E+10	1	-1E+10	1	-1E+10	1	-1E+10	1	-1E+10	1
4902554	29	C	11/20/2021	21:57	-136.373	49.282	0	216.60	0	5.4790	0	33.7620	0	26.640	0	214.645	0	-1e10	8	-1e10	8	-1E+10	1	-1E+10	1	-1E+10	1	-1E+10	1	-1E+10	1	-1E+10	1
4902554	29	C	11/20/2021	21:57	-136.373	49.282	0	217.50	0	5.4720	0	33.7630	0	26.642	0	215.536	0	-1e10	8	-1e10	8	-1E+10	1	-1E+10	1	-1E+10	1	-1E+10	1	-1E+10	1	-1E+10	1
4902554	29	C	11/20/2021	21:57	-136.373	49.282	0	218.50	0	5.4590	0	33.7650	0	26.645	0	216.526	0	-1e10	8	-1e10	8	-1E+10	1	-1E+10	1	-1E+10	1	-1E+10	1	-1E+10	1	-1E+10	1
4902554	29	C	11/20/2021	21:57	-136.373	49.282	0	219.90	0	5.4490	0	33.7650	0	26.646	0	217.913	0	-1e10	8	-1e10	8	-1E+10	1	-1E+10	1	-1E+10	1	-1E+10	1	-1E+10	1	-1E+10	1
4902554	29	C	11/20/2021	21:57	-136.373	49.282	0	221.40	0	5.4430	0	33.7660	0	26.648	0	219.399	0	-1e10	8	-1e10	8	-1E+10	1	-1E+10	1	-1E+10	1	-1E+10	1	-1E+10	1	-1E+10	1
4902554	29	C	11/20/2021	21:57	-136.373	49.282	0	222.40	0	5.4320	0	33.7680	0	26.651	0	220.389	0	-1e10	8	-1e10	8	-1E+10	1	-1E+10	1	-1E+10	1	-1E+10	1	-1E+10	1	-1E+10	1
4902554	29	C	11/20/2021	21:57	-136.373	49.282	0	223.40	0	5.4270	0	33.7680	0	26.651	0	221.380	0	-1e10	8	-1e10	8	-1E+10	1	-1E+10	1	-1E+10	1	-1E+10	1	-1E+10	1	-1E+10	1
4902554	29	C	11/20/2021	21:57	-136.373	49.282	0	224.40	0	5.4130	0	33.7690	0	26.654	0	222.370	0	-1e10	8	-1e10	8	-1E+10	1	-1E+10	1	-1E+10	1	-1E+10	1	-1E+10	1	-1E+10	1
4902554	29	C	11/20/2021	21:57	-136.373	49.282	0	225.40	0	5.4030	0	33.7710	0	26.656	0	223.360	0	-1e10	8	-1e10	8	-1E+10	1	-1E+10	1	-1E+10	1	-1E+10	1	-1E+10	1	-1E+10	1
4902554	29	C	11/20/2021	21:57	-136.373	49.282	0	226.40	0	5.3740	0	33.7770	0	26.665	0	224.351	0	-1e10	8	-1e10	8	-1E+10	1	-1E+10	1	-1E+10	1	-1E+10	1	-1E+10	1	-1E+10	1
4902554	29	C	11/20/2021	21:57	-136.373	49.282	0	227.40	0	5.3620	0	33.7760	0	26.665	0	225.341	0	-1e10	8	-1e10	8	-1E+10	1	-1E+10	1	-1E+10	1	-1E+10	1	-1E+10	1	-1E+10	1
4902554	29	C	11/20/2021	21:57	-136.373	49.282	0	228.40	0	5.3550	0	33.7770	0	26.667	0	226.332	0	-1e10	8	-1e10	8	-1E+10	1	-1E+10	1	-1E+10	1	-1E+10	1	-1E+10	1	-1E+10	1
4902554	29	C	11/20/2021	21:57	-136.373	49.282	0	229.30	0	5.3450	0	33.7780	0	26.669	0	227.223	0	-1e10	8	-1e10	8	-1E+10	1	-1E+10	1	-1E+10	1	-1E+10	1	-1E+10	1	-1E+10	1
4902554	29	C	11/20/2021	21:57	-136.373	49.282	0	230.30	0	5.3390	0	33.7790	0	26.670	0	228.213	0	-1e10	8	-1e10	8	-1E+10	1	-1E+10	1	-1E+10	1	-1E+10	1	-1E+10	1	-1E+10	1
4902554	29	C	11/20/2021	21:57	-136.373	49.282	0	231.30	0	5.3260	0	33.7800	0	26.673	0	229.204	0	-1e10	8	-1e10	8	-1E+10	1	-1E+10	1	-1E+10	1	-1E+10	1	-1E+10	1	-1E+10	1
4902554	29	C	11/20/2021	21:57	-136.373	49.282	0	232.30	0	5.3180	0	33.7810	0	26.674	0	230.194	0	-1e10	8	-1e10	8	-1E+10	1	-1E+10	1	-1E+10	1	-1E+10	1	-1E+10	1	-1E+10	1
4902554	29	C	11/20/2021	21:57	-136.373	49.282	0	233.30	0	5.3140	0	33.7810	0	26.675	0	231.185	0	-1e10	8	-1e10	8	-1E+10	1	-1E+10	1	-1E+10	1	-1E+10	1	-1E+10	1	-1E+10	1
4902554	29	C	11/20/2021	21:57	-136.373	49.282	0	234.30	0	5.3110	0	33.7810	0	26.675	0	232.175	0	-1e10	8	-1e10	8	-1E+10	1	-1E+10	1	-1E+10	1	-1E+10	1	-1E+10	1	-1E+10	1
4902554	29	C	11/20/2021	21:57	-136.373	49.282	0	235.30	0	5.2920	0	33.7840	0	26.680	0	233.165	0	-1e10	8	-1e10	8	-1E+10	1	-1E+10	1	-1E+10	1	-1E+10	1	-1E+10	1	-1E+10	1
4902554	29	C	11/20/2021	21:57	-136.373	49.282	0	236.30	0	5.2810	0	33.7850	0	26.682	0	234.156	0	-1e10	8	-1e10	8	-1E+10	1	-1E+10	1	-1E+10	1	-1E+10	1	-1E+10	1	-1E+10	1
4902554	29	C	11/20/2021	21:57	-136.373	49.282	0	237.30	0	5.2720	0	33.7850	0	26.683	0	235.146	0	-1e10	8	-1e10	8	-1E+10	1	-1E+10	1	-1E+10	1	-1E+10	1	-1E+10	1	-1E+10	1
4902554	29	C	11/20/2021	21:57	-136.373	49.282	0	238.30	0	5.2230	0	33.7910	0	26.693	0	236.136	0	-1e10	8	-1e10	8	-1E+10	1	-1E+10	1	-1E+10	1	-1E+10	1	-1E+10	1	-1E+10	1
4902554	29	C	11/20/2021	21:57	-136.373	49.282	0	239.20	0	5.2220	0	33.7890	0	26.692	0	237.028	0	-1e10	8	-1e10	8	-1E+10	1	-1E+10	1	-1E+10	1	-1E+10	1	-1E+10	1	-1E+10	1
4902554	29	C	11/20/2021	21:57	-136.373	49.282	0	240.30	0	5.2030	0	33.7920	0	26.697	0	238.117	0	-1e10	8	-1e10	8	-1E+10	1	-1E+10	1	-1E+10	1	-1E+10	1	-1E+10	1	-1E+10	1
4902554	29	C	11/20/2021	21:57	-136.373	49.282	0	241.30	0	5.1830	0	33.7940	0	26.700	0	239.107	0	-1e10	8	-1e10	8	-1E+10	1	-1E+10	1	-1E+10	1	-1E+10	1	-1E+10	1	-1E+10	1
4902554	29	C	11/20/2021	21:57	-136.373	49.282	0	242.20	0	5.1760	0	33.7950	0	26.702	0	239.999	0	-1e10	8	-1e10	8	-1E+10	1	-1E+10	1	-1E+10	1	-1E+10	1	-1E+10	1	-1E+10	1
4902554	29	C	11/20/2021	21:57	-136.373	49.282	0	243.30	0	5.1600	0	33.7960	0	26.705	0	241.088	0	-1e10	8	-1e10	8	-1E+10	1	-1E+10	1	-1E+10	1	-1E+10	1	-1E+10	1	-1E+10	1
4902554	29	C	11/20/2021	21:57	-136.373	49.282	0	244.30	0	5.1600	0	33.7960	0	26.705	0	242.078	0	-1e10	8	-1e10	8	-1E+10	1	-1E+10	1	-1E+10	1	-1E+10	1	-1E+10	1	-1E+10	1
4902554	29	C	11/20/2021	21:57	-136.373	49.282	0	245.20	0	5.1590	0	33.7960	0	26.705	0	242.970	0	-1e10	8	-1e10	8	-1E+10	1	-1E+10	1	-1E+10	1	-1E+10	1	-1E+10	1	-1E+10	1
4902554	29	C	11/20/2021	21:57	-136.373	49.282	0	246.20	0	5.1580	0	33.7950	0	26.704	0	243.960	0	-1e10	8	-1e10	8	-1E+10	1	-1E+10	1	-1E+10	1	-1E+10	1	-1E+10	1	-1E+10	1
4902554	29	C	11/20/2021	21:57	-136.373	49.282	0	247.20	0	5.1570	0	33.7950	0	26.704	0	244.950	0	-1e10	8	-1e10	8	-1E+10	1	-1E+10	1	-1E+10	1	-1E+10	1	-1E+10	1	-1E+10	1
4902554	29	C	11/20/2021	21:57	-136.373	49.282	0	248.20	0	5.1430	0	33.7970	0	26.708	0	245.941	0	-1e10	8	-1e10	8	-1E+10	1	-1E+10	1	-1E+10	1	-1E+10	1	-1E+10	1	-1E+10	1
4902554	29	C	11/20/2021	21:57	-136.373	49.282	0	249.30	0	5.1390	0	33.7990	0	26.710	0	247.030	0	-1e10	8	-1e10	8	-1E+10	1	-1E+10	1	-1E+10	1	-1E+10	1	-1E+10	1	-1E+10	1
4902554	29	C	11/20/2021	21:57	-136.373	49.282	0	250.20	0	5.1290	0	33.8000	0	26.712	0	247.921	0	-1e10	8	-1e10	8	-1E+10	1	-1E+10	1	-1E+10	1	-1E+10	1	-1E+10	1	-1E+10	1
4902554	29	C	11/20/2021	21:57	-136.373	49.282	0	251.30	0	5.1180	0	33.8020	0	26.714	0	249.010	0	-1e10	8	-1e10	8	-1E+10	1	-1E+10	1	-1E+10	1	-1E+10	1	-1E+10	1	-1E+10	1
4902554	29	C	11/20/2021	21:57	-136.373	49.282	0	252.30	0	5.1120	0	33.8030	0	26.716	0	250.001	0	-1e10	8	-1e10	8	-1E+10	1	-1E+10	1	-1E+10	1	-1E+10	1	-1E+10	1	-1E+10	1
4902554	29	C	11/20/2021	21:57	-136.373	49.282	0	253.30	0	5.1070	0	33.8040	0	26.717	0	250.991	0	-1e10	8	-1e10	8	-1E+10	1	-1E+10	1	-1E+10	1	-1E+10	1	-1E+10	1	-1E+10	1
4902554	29	C	11/20/2021	21:57	-136.373	49.282	0	254.30	0	5.0950	0	33.8050	0	26.719	0	251.981	0	-1e10	8	-1e10	8	-1E+10	1	-1E+10	1	-1E+10	1	-1E+10	1	-1E+10	1	-1E+10	1
4902554	29	C	11/20/2021	21:57	-136.373	49.282	0	255.30	0	5.0900	0	33.8050	0	26.720	0	252.972	0	-1e10	8	-1e10	8	-1E+10	1	-1E+10	1	-1E+10	1	-1E+10	1	-1E+10	1	-1E+10	1
4902554	29	C	11/20/2021	21:57	-136.373	49.282	0	256.30	0	5.0900	0	33.8050	0	26.720	0	253.962	0	-1e10	8	-1e10	8	-1E+10	1	-1E+10	1	-1E+10	1	-1E+10	1	-1E+10	1	-1E+10	1
4902554	29	C	11/20/2021	21:57	-136.373	49.282	0	257.40	0	5.0880	0	33.8050	0	26.720	0	255.051	0	-1e10	8	-1e10	8	-1E+10	1	-1E+10	1	-1E+10	1	-1E+10	1	-1E+10	1	-1E+10	1
4902554	29	C	11/20/2021	21:57	-136.373	49.282	0	258.40	0	5.0760	0	33.8070	0	26.723	0	256.041	0	-1e10	8	-1e10	8	-1E+10	1	-1E+10	1	-1E+10	1	-1E+10	1	-1E+10	1	-1E+10	1
4902554	29	C	11/20/2021	21:57	-136.373	49.282	0	259.40	0	5.0750	0	33.8070	0	26.723	0	257.032	0	-1e10	8	-1e10	8	-1E+10	1	-1E+10	1	-1E+10	1	-1E+10	1	-1E+10	1	-1E+10	1
4902554	29	C	11/20/2021	21:57	-136.373	49.282	0	260.50	0	5.0730	0	33.8080	0	26.724	0	258.121	0	-1e10	8	-1e10	8	-1E+10	1	-1E+10	1	-1E+10	1	-1E+10	1	-1E+10	1	-1E+10	1
4902554	29	C	11/20/2021	21:57	-136.373	49.282	0	261.50	0	5.0730	0	33.8070	0	26.724	0	259.111	0	-1e10	8	-1e10	8	-1E+10	1	-1E+10	1	-1E+10	1	-1E+10	1	-1E+10	1	-1E+10	1
4902554	29	C	11/20/2021	21:57	-136.373	49.282	0	262.50	0	5.0720	0	33.8070	0	26.724	0	260.101	0	-1e10	8	-1e10	8	-1E+10	1	-1E+10	1	-1E+10	1	-1E+10	1	-1E+10	1	-1E+10	1
4902554	29	C	11/20/2021	21:57	-136.373	49.282	0	263.50	0	5.0710	0	33.8070	0	26.724	0	261.092	0	-1e10	8	-1e10	8	-1E+10	1	-1E+10	1	-1E+10	1	-1E+10	1	-1E+10	1	-1E+10	1
4902554	29	C	11/20/2021	21:57	-136.373	49.282	0	264.50	0	5.0590	0	33.8090	0	26.727	0	262.082	0	-1e10	8	-1e10	8	-1E+10	1	-1E+10	1	-1E+10	1	-1E+10	1	-1E+10	1	-1E+10	1
4902554	29	C	11/20/2021	21:57	-136.373	49.282	0	265.50	0	5.0440	0	33.8110	0	26.730	0	263.072	0	-1e10	8	-1e10	8	-1E+10	1	-1E+10	1	-1E+10	1	-1E+10	1	-1E+10	1	-1E+10	1
4902554	29	C	11/20/2021	21:57	-136.373	49.282	0	266.50	0	5.0280	0	33.8130	0	26.733	0	264.062	0	-1e10	8	-1e10	8	-1E+10	1	-1E+10	1	-1E+10	1	-1E+10	1	-1E+10	1	-1E+10	1
4902554	29	C	11/20/2021	21:57	-136.373	49.282	0	267.60	0	5.0040	0	33.8160	0	26.739	0	265.152	0	-1e10	8	-1e10	8	-1E+10	1	-1E+10	1	-1E+10	1	-1E+10	1	-1E+10	1	-1E+10	1
4902554	29	C	11/20/2021	21:57	-136.373	49.282	0	268.60	0	4.9990	0	33.8170	0	26.740	0	266.142	0	-1e10	8	-1e10	8	-1E+10	1	-1E+10	1	-1E+10	1	-1E+10	1	-1E+10	1	-1E+10	1
4902554	29	C	11/20/2021	21:57	-136.373	49.282	0	269.60	0	4.9960	0	33.8170	0	26.740	0	267.132	0	-1e10	8	-1e10	8	-1E+10	1	-1E+10	1	-1E+10	1	-1E+10	1	-1E+10	1	-1E+10	1
4902554	29	C	11/20/2021	21:57	-136.373	49.282	0	270.60	0	4.9890	0	33.8180	0	26.742	0	268.122	0	-1e10	8	-1e10	8	-1E+10	1	-1E+10	1	-1E+10	1	-1E+10	1	-1E+10	1	-1E+10	1
4902554	29	C	11/20/2021	21:57	-136.373	49.282	0	271.70	0	4.9840	0	33.8190	0	26.743	0	269.211	0	-1e10	8	-1e10	8	-1E+10	1	-1E+10	1	-1E+10	1	-1E+10	1	-1E+10	1	-1E+10	1
4902554	29	C	11/20/2021	21:57	-136.373	49.282	0	272.70	0	4.9810	0	33.8190	0	26.744	0	270.202	0	-1e10	8	-1e10	8	-1E+10	1	-1E+10	1	-1E+10	1	-1E+10	1	-1E+10	1	-1E+10	1
4902554	29	C	11/20/2021	21:57	-136.373	49.282	0	273.70	0	4.9790	0	33.8190	0	26.744	0	271.192	0	-1e10	8	-1e10	8	-1E+10	1	-1E+10	1	-1E+10	1	-1E+10	1	-1E+10	1	-1E+10	1
4902554	29	C	11/20/2021	21:57	-136.373	49.282	0	274.70	0	4.9700	0	33.8200	0	26.746	0	272.182	0	-1e10	8	-1e10	8	-1E+10	1	-1E+10	1	-1E+10	1	-1E+10	1	-1E+10	1	-1E+10	1
4902554	29	C	11/20/2021	21:57	-136.373	49.282	0	275.80	0	4.9660	0	33.8200	0	26.746	0	273.271	0	-1e10	8	-1e10	8	-1E+10	1	-1E+10	1	-1E+10	1	-1E+10	1	-1E+10	1	-1E+10	1
4902554	29	C	11/20/2021	21:57	-136.373	49.282	0	276.80	0	4.9650	0	33.8200	0	26.746	0	274.261	0	-1e10	8	-1e10	8	-1E+10	1	-1E+10	1	-1E+10	1	-1E+10	1	-1E+10	1	-1E+10	1
4902554	29	C	11/20/2021	21:57	-136.373	49.282	0	277.80	0	4.9580	0	33.8210	0	26.748	0	275.251	0	-1e10	8	-1e10	8	-1E+10	1	-1E+10	1	-1E+10	1	-1E+10	1	-1E+10	1	-1E+10	1
4902554	29	C	11/20/2021	21:57	-136.373	49.282	0	278.80	0	4.9490	0	33.8220	0	26.750	0	276.242	0	-1e10	8	-1e10	8	-1E+10	1	-1E+10	1	-1E+10	1	-1E+10	1	-1E+10	1	-1E+10	1
4902554	29	C	11/20/2021	21:57	-136.373	49.282	0	279.90	0	4.9400	0	33.8240	0	26.752	0	277.331	0	-1e10	8	-1e10	8	-1E+10	1	-1E+10	1	-1E+10	1	-1E+10	1	-1E+10	1	-1E+10	1
4902554	29	C	11/20/2021	21:57	-136.373	49.282	0	280.90	0	4.9230	0	33.8240	0	26.754	0	278.321	0	-1e10	8	-1e10	8	-1E+10	1	-1E+10	1	-1E+10	1	-1E+10	1	-1E+10	1	-1E+10	1
4902554	29	C	11/20/2021	21:57	-136.373	49.282	0	281.90	0	4.9110	0	33.8250	0	26.756	0	279.311	0	-1e10	8	-1e10	8	-1E+10	1	-1E+10	1	-1E+10	1	-1E+10	1	-1E+10	1	-1E+10	1
4902554	29	C	11/20/2021	21:57	-136.373	49.282	0	283.00	0	4.9040	0	33.8260	0	26.758	0	280.400	0	-1e10	8	-1e10	8	-1E+10	1	-1E+10	1	-1E+10	1	-1E+10	1	-1E+10	1	-1E+10	1
4902554	29	C	11/20/2021	21:57	-136.373	49.282	0	284.00	0	4.8990	0	33.8270	0	26.759	0	281.390	0	-1e10	8	-1e10	8	-1E+10	1	-1E+10	1	-1E+10	1	-1E+10	1	-1E+10	1	-1E+10	1
4902554	29	C	11/20/2021	21:57	-136.373	49.282	0	285.10	0	4.8840	0	33.8310	0	26.764	0	282.479	0	-1e10	8	-1e10	8	-1E+10	1	-1E+10	1	-1E+10	1	-1E+10	1	-1E+10	1	-1E+10	1
4902554	29	C	11/20/2021	21:57	-136.373	49.282	0	286.10	0	4.8650	0	33.8320	0	26.767	0	283.470	0	-1e10	8	-1e10	8	-1E+10	1	-1E+10	1	-1E+10	1	-1E+10	1	-1E+10	1	-1E+10	1
4902554	29	C	11/20/2021	21:57	-136.373	49.282	0	287.10	0	4.8590	0	33.8330	0	26.769	0	284.460	0	-1e10	8	-1e10	8	-1E+10	1	-1E+10	1	-1E+10	1	-1E+10	1	-1E+10	1	-1E+10	1
4902554	29	C	11/20/2021	21:57	-136.373	49.282	0	288.10	0	4.8570	0	33.8330	0	26.769	0	285.450	0	-1e10	8	-1e10	8	-1E+10	1	-1E+10	1	-1E+10	1	-1E+10	1	-1E+10	1	-1E+10	1
4902554	29	C	11/20/2021	21:57	-136.373	49.282	0	289.20	0	4.8530	0	33.8340	0	26.770	0	286.539	0	-1e10	8	-1e10	8	-1E+10	1	-1E+10	1	-1E+10	1	-1E+10	1	-1E+10	1	-1E+10	1
4902554	29	C	11/20/2021	21:57	-136.373	49.282	0	290.20	0	4.8490	0	33.8340	0	26.770	0	287.529	0	-1e10	8	-1e10	8	-1E+10	1	-1E+10	1	-1E+10	1	-1E+10	1	-1E+10	1	-1E+10	1
4902554	29	C	11/20/2021	21:57	-136.373	49.282	0	291.20	0	4.8480	0	33.8340	0	26.771	0	288.519	0	-1e10	8	-1e10	8	-1E+10	1	-1E+10	1	-1E+10	1	-1E+10	1	-1E+10	1	-1E+10	1
4902554	29	C	11/20/2021	21:57	-136.373	49.282	0	292.20	0	4.8450	0	33.8340	0	26.771	0	289.509	0	-1e10	8	-1e10	8	-1E+10	1	-1E+10	1	-1E+10	1	-1E+10	1	-1E+10	1	-1E+10	1
4902554	29	C	11/20/2021	21:57	-136.373	49.282	0	293.30	0	4.8240	0	33.8370	0	26.776	0	290.598	0	-1e10	8	-1e10	8	-1E+10	1	-1E+10	1	-1E+10	1	-1E+10	1	-1E+10	1	-1E+10	1
4902554	29	C	11/20/2021	21:57	-136.373	49.282	0	294.30	0	4.8110	0	33.8400	0	26.779	0	291.588	0	-1e10	8	-1e10	8	-1E+10	1	-1E+10	1	-1E+10	1	-1E+10	1	-1E+10	1	-1E+10	1
4902554	29	C	11/20/2021	21:57	-136.373	49.282	0	295.40	0	4.7960	0	33.8420	0	26.783	0	292.677	0	-1e10	8	-1e10	8	-1E+10	1	-1E+10	1	-1E+10	1	-1E+10	1	-1E+10	1	-1E+10	1
4902554	29	C	11/20/2021	21:57	-136.373	49.282	0	296.40	0	4.7880	0	33.8420	0	26.784	0	293.668	0	-1e10	8	-1e10	8	-1E+10	1	-1E+10	1	-1E+10	1	-1E+10	1	-1E+10	1	-1E+10	1
4902554	29	C	11/20/2021	21:57	-136.373	49.282	0	297.40	0	4.7860	0	33.8430	0	26.785	0	294.658	0	-1e10	8	-1e10	8	-1E+10	1	-1E+10	1	-1E+10	1	-1E+10	1	-1E+10	1	-1E+10	1
4902554	29	C	11/20/2021	21:57	-136.373	49.282	0	298.40	0	4.7820	0	33.8430	0	26.785	0	295.648	0	-1e10	8	-1e10	8	-1E+10	1	-1E+10	1	-1E+10	1	-1E+10	1	-1E+10	1	-1E+10	1
4902554	29	C	11/20/2021	21:57	-136.373	49.282	0	299.40	0	4.7680	0	33.8460	0	26.789	0	296.638	0	-1e10	8	-1e10	8	-1E+10	1	-1E+10	1	-1E+10	1	-1E+10	1	-1E+10	1	-1E+10	1
4902554	29	C	11/20/2021	21:57	-136.373	49.282	0	300.40	0	4.7570	0	33.8480	0	26.792	0	297.628	0	-1e10	8	-1e10	8	-1E+10	1	-1E+10	1	-1E+10	1	-1E+10	1	-1E+10	1	-1E+10	1
4902554	29	C	11/20/2021	21:57	-136.373	49.282	0	301.50	0	4.7520	0	33.8480	0	26.792	0	298.717	0	-1e10	8	-1e10	8	-1E+10	1	-1E+10	1	-1E+10	1	-1E+10	1	-1E+10	1	-1E+10	1
4902554	29	C	11/20/2021	21:57	-136.373	49.282	0	302.60	0	4.7460	0	33.8490	0	26.794	0	299.806	0	-1e10	8	-1e10	8	-1E+10	1	-1E+10	1	-1E+10	1	-1E+10	1	-1E+10	1	-1E+10	1
4902554	29	C	11/20/2021	21:57	-136.373	49.282	0	303.60	0	4.7450	0	33.8490	0	26.794	0	300.796	0	-1e10	8	-1e10	8	-1E+10	1	-1E+10	1	-1E+10	1	-1E+10	1	-1E+10	1	-1E+10	1
4902554	29	C	11/20/2021	21:57	-136.373	49.282	0	304.60	0	4.7410	0	33.8500	0	26.795	0	301.786	0	-1e10	8	-1e10	8	-1E+10	1	-1E+10	1	-1E+10	1	-1E+10	1	-1E+10	1	-1E+10	1
4902554	29	C	11/20/2021	21:57	-136.373	49.282	0	305.60	0	4.7360	0	33.8500	0	26.796	0	302.776	0	-1e10	8	-1e10	8	-1E+10	1	-1E+10	1	-1E+10	1	-1E+10	1	-1E+10	1	-1E+10	1
4902554	29	C	11/20/2021	21:57	-136.373	49.282	0	307.00	0	4.7180	0	33.8530	0	26.800	0	304.162	0	-1e10	8	-1e10	8	-1E+10	1	-1E+10	1	-1E+10	1	-1E+10	1	-1E+10	1	-1E+10	1
4902554	29	C	11/20/2021	21:57	-136.373	49.282	0	308.20	0	4.7120	0	33.8540	0	26.802	0	305.350	0	-1e10	8	-1e10	8	-1E+10	1	-1E+10	1	-1E+10	1	-1E+10	1	-1E+10	1	-1E+10	1
4902554	29	C	11/20/2021	21:57	-136.373	49.282	0	309.00	0	4.7070	0	33.8560	0	26.804	0	306.142	0	-1e10	8	-1e10	8	-1E+10	1	-1E+10	1	-1E+10	1	-1E+10	1	-1E+10	1	-1E+10	1
4902554	29	C	11/20/2021	21:57	-136.373	49.282	0	309.70	0	4.7040	0	33.8560	0	26.804	0	306.835	0	-1e10	8	-1e10	8	-1E+10	1	-1E+10	1	-1E+10	1	-1E+10	1	-1E+10	1	-1E+10	1
4902554	29	C	11/20/2021	21:57	-136.373	49.282	0	311.00	0	4.7000	0	33.8560	0	26.805	0	308.122	0	-1e10	8	-1e10	8	-1E+10	1	-1E+10	1	-1E+10	1	-1E+10	1	-1E+10	1	-1E+10	1
4902554	29	C	11/20/2021	21:57	-136.373	49.282	0	312.20	0	4.6980	0	33.8570	0	26.806	0	309.310	0	-1e10	8	-1e10	8	-1E+10	1	-1E+10	1	-1E+10	1	-1E+10	1	-1E+10	1	-1E+10	1
4902554	29	C	11/20/2021	21:57	-136.373	49.282	0	313.00	0	4.6910	0	33.8590	0	26.808	0	310.102	0	-1e10	8	-1e10	8	-1E+10	1	-1E+10	1	-1E+10	1	-1E+10	1	-1E+10	1	-1E+10	1
4902554	29	C	11/20/2021	21:57	-136.373	49.282	0	313.80	0	4.6830	0	33.8590	0	26.809	0	310.894	0	-1e10	8	-1e10	8	-1E+10	1	-1E+10	1	-1E+10	1	-1E+10	1	-1E+10	1	-1E+10	1
4902554	29	C	11/20/2021	21:57	-136.373	49.282	0	315.00	0	4.6690	0	33.8620	0	26.813	0	312.082	0	-1e10	8	-1e10	8	-1E+10	1	-1E+10	1	-1E+10	1	-1E+10	1	-1E+10	1	-1E+10	1
4902554	29	C	11/20/2021	21:57	-136.373	49.282	0	316.20	0	4.6530	0	33.8630	0	26.815	0	313.270	0	-1e10	8	-1e10	8	-1E+10	1	-1E+10	1	-1E+10	1	-1E+10	1	-1E+10	1	-1E+10	1
4902554	29	C	11/20/2021	21:57	-136.373	49.282	0	317.00	0	4.6500	0	33.8630	0	26.816	0	314.062	0	-1e10	8	-1e10	8	-1E+10	1	-1E+10	1	-1E+10	1	-1E+10	1	-1E+10	1	-1E+10	1
4902554	29	C	11/20/2021	21:57	-136.373	49.282	0	317.90	0	4.6450	0	33.8660	0	26.819	0	314.953	0	-1e10	8	-1e10	8	-1E+10	1	-1E+10	1	-1E+10	1	-1E+10	1	-1E+10	1	-1E+10	1
4902554	29	C	11/20/2021	21:57	-136.373	49.282	0	318.70	0	4.6430	0	33.8650	0	26.818	0	315.745	0	-1e10	8	-1e10	8	-1E+10	1	-1E+10	1	-1E+10	1	-1E+10	1	-1E+10	1	-1E+10	1
4902554	29	C	11/20/2021	21:57	-136.373	49.282	0	319.90	0	4.6400	0	33.8660	0	26.819	0	316.933	0	-1e10	8	-1e10	8	-1E+10	1	-1E+10	1	-1E+10	1	-1E+10	1	-1E+10	1	-1E+10	1
4902554	29	C	11/20/2021	21:57	-136.373	49.282	0	321.20	0	4.6380	0	33.8670	0	26.820	0	318.220	0	-1e10	8	-1e10	8	-1E+10	1	-1E+10	1	-1E+10	1	-1E+10	1	-1E+10	1	-1E+10	1
4902554	29	C	11/20/2021	21:57	-136.373	49.282	0	322.00	0	4.6380	0	33.8670	0	26.820	0	319.012	0	-1e10	8	-1e10	8	-1E+10	1	-1E+10	1	-1E+10	1	-1E+10	1	-1E+10	1	-1E+10	1
4902554	29	C	11/20/2021	21:57	-136.373	49.282	0	322.90	0	4.6330	0	33.8680	0	26.822	0	319.903	0	-1e10	8	-1e10	8	-1E+10	1	-1E+10	1	-1E+10	1	-1E+10	1	-1E+10	1	-1E+10	1
4902554	29	C	11/20/2021	21:57	-136.373	49.282	0	323.70	0	4.6280	0	33.8690	0	26.823	0	320.695	0	-1e10	8	-1e10	8	-1E+10	1	-1E+10	1	-1E+10	1	-1E+10	1	-1E+10	1	-1E+10	1
4902554	29	C	11/20/2021	21:57	-136.373	49.282	0	324.90	0	4.6190	0	33.8690	0	26.824	0	321.883	0	-1e10	8	-1e10	8	-1E+10	1	-1E+10	1	-1E+10	1	-1E+10	1	-1E+10	1	-1E+10	1
4902554	29	C	11/20/2021	21:57	-136.373	49.282	0	326.20	0	4.6150	0	33.8700	0	26.825	0	323.170	0	-1e10	8	-1e10	8	-1E+10	1	-1E+10	1	-1E+10	1	-1E+10	1	-1E+10	1	-1E+10	1
4902554	29	C	11/20/2021	21:57	-136.373	49.282	0	327.00	0	4.6130	0	33.8710	0	26.826	0	323.962	0	-1e10	8	-1e10	8	-1E+10	1	-1E+10	1	-1E+10	1	-1E+10	1	-1E+10	1	-1E+10	1
4902554	29	C	11/20/2021	21:57	-136.373	49.282	0	327.90	0	4.6050	0	33.8730	0	26.829	0	324.852	0	-1e10	8	-1e10	8	-1E+10	1	-1E+10	1	-1E+10	1	-1E+10	1	-1E+10	1	-1E+10	1
4902554	29	C	11/20/2021	21:57	-136.373	49.282	0	328.80	0	4.6010	0	33.8730	0	26.829	0	325.743	0	-1e10	8	-1e10	8	-1E+10	1	-1E+10	1	-1E+10	1	-1E+10	1	-1E+10	1	-1E+10	1
4902554	29	C	11/20/2021	21:57	-136.373	49.282	0	329.60	0	4.5970	0	33.8750	0	26.831	0	326.535	0	-1e10	8	-1e10	8	-1E+10	1	-1E+10	1	-1E+10	1	-1E+10	1	-1E+10	1	-1E+10	1
4902554	29	C	11/20/2021	21:57	-136.373	49.282	0	330.90	0	4.5940	0	33.8760	0	26.832	0	327.822	0	-1e10	8	-1e10	8	-1E+10	1	-1E+10	1	-1E+10	1	-1E+10	1	-1E+10	1	-1E+10	1
4902554	29	C	11/20/2021	21:57	-136.373	49.282	0	332.10	0	4.5880	0	33.8780	0	26.834	0	329.010	0	-1e10	8	-1e10	8	-1E+10	1	-1E+10	1	-1E+10	1	-1E+10	1	-1E+10	1	-1E+10	1
4902554	29	C	11/20/2021	21:57	-136.373	49.282	0	333.00	0	4.5790	0	33.8800	0	26.837	0	329.901	0	-1e10	8	-1e10	8	-1E+10	1	-1E+10	1	-1E+10	1	-1E+10	1	-1E+10	1	-1E+10	1
4902554	29	C	11/20/2021	21:57	-136.373	49.282	0	333.80	0	4.5690	0	33.8820	0	26.840	0	330.693	0	-1e10	8	-1e10	8	-1E+10	1	-1E+10	1	-1E+10	1	-1E+10	1	-1E+10	1	-1E+10	1
4902554	29	C	11/20/2021	21:57	-136.373	49.282	0	334.70	0	4.5690	0	33.8820	0	26.840	0	331.584	0	-1e10	8	-1e10	8	-1E+10	1	-1E+10	1	-1E+10	1	-1E+10	1	-1E+10	1	-1E+10	1
4902554	29	C	11/20/2021	21:57	-136.373	49.282	0	336.00	0	4.5660	0	33.8830	0	26.841	0	332.871	0	-1e10	8	-1e10	8	-1E+10	1	-1E+10	1	-1E+10	1	-1E+10	1	-1E+10	1	-1E+10	1
4902554	29	C	11/20/2021	21:57	-136.373	49.282	0	337.30	0	4.5640	0	33.8840	0	26.842	0	334.158	0	-1e10	8	-1e10	8	-1E+10	1	-1E+10	1	-1E+10	1	-1E+10	1	-1E+10	1	-1E+10	1
4902554	29	C	11/20/2021	21:57	-136.373	49.282	0	338.10	0	4.5540	0	33.8880	0	26.846	0	334.949	0	-1e10	8	-1e10	8	-1E+10	1	-1E+10	1	-1E+10	1	-1E+10	1	-1E+10	1	-1E+10	1
4902554	29	C	11/20/2021	21:57	-136.373	49.282	0	339.00	0	4.5520	0	33.8890	0	26.847	0	335.840	0	-1e10	8	-1e10	8	-1E+10	1	-1E+10	1	-1E+10	1	-1E+10	1	-1E+10	1	-1E+10	1
4902554	29	C	11/20/2021	21:57	-136.373	49.282	0	339.80	0	4.5490	0	33.8900	0	26.848	0	336.632	0	-1e10	8	-1e10	8	-1E+10	1	-1E+10	1	-1E+10	1	-1E+10	1	-1E+10	1	-1E+10	1
4902554	29	C	11/20/2021	21:57	-136.373	49.282	0	340.70	0	4.5460	0	33.8910	0	26.849	0	337.523	0	-1e10	8	-1e10	8	-1E+10	1	-1E+10	1	-1E+10	1	-1E+10	1	-1E+10	1	-1E+10	1
4902554	29	C	11/20/2021	21:57	-136.373	49.282	0	341.90	0	4.5360	0	33.8950	0	26.854	0	338.711	0	-1e10	8	-1e10	8	-1E+10	1	-1E+10	1	-1E+10	1	-1E+10	1	-1E+10	1	-1E+10	1
4902554	29	C	11/20/2021	21:57	-136.373	49.282	0	343.20	0	4.5320	0	33.8970	0	26.856	0	339.998	0	-1e10	8	-1e10	8	-1E+10	1	-1E+10	1	-1E+10	1	-1E+10	1	-1E+10	1	-1E+10	1
4902554	29	C	11/20/2021	21:57	-136.373	49.282	0	344.00	0	4.5280	0	33.8970	0	26.856	0	340.790	0	-1e10	8	-1e10	8	-1E+10	1	-1E+10	1	-1E+10	1	-1E+10	1	-1E+10	1	-1E+10	1
4902554	29	C	11/20/2021	21:57	-136.373	49.282	0	344.90	0	4.5250	0	33.8990	0	26.858	0	341.680	0	-1e10	8	-1e10	8	-1E+10	1	-1E+10	1	-1E+10	1	-1E+10	1	-1E+10	1	-1E+10	1
4902554	29	C	11/20/2021	21:57	-136.373	49.282	0	345.70	0	4.5130	0	33.9030	0	26.862	0	342.472	0	-1e10	8	-1e10	8	-1E+10	1	-1E+10	1	-1E+10	1	-1E+10	1	-1E+10	1	-1E+10	1
4902554	29	C	11/20/2021	21:57	-136.373	49.282	0	346.60	0	4.5100	0	33.9060	0	26.865	0	343.363	0	-1e10	8	-1e10	8	-1E+10	1	-1E+10	1	-1E+10	1	-1E+10	1	-1E+10	1	-1E+10	1
4902554	29	C	11/20/2021	21:57	-136.373	49.282	0	347.90	0	4.5070	0	33.9070	0	26.866	0	344.650	0	-1e10	8	-1e10	8	-1E+10	1	-1E+10	1	-1E+10	1	-1E+10	1	-1E+10	1	-1E+10	1
4902554	29	C	11/20/2021	21:57	-136.373	49.282	0	349.20	0	4.5080	0	33.9080	0	26.867	0	345.937	0	-1e10	8	-1e10	8	-1E+10	1	-1E+10	1	-1E+10	1	-1E+10	1	-1E+10	1	-1E+10	1
4902554	29	C	11/20/2021	21:57	-136.373	49.282	0	350.10	0	4.5070	0	33.9080	0	26.867	0	346.828	0	-1e10	8	-1e10	8	-1E+10	1	-1E+10	1	-1E+10	1	-1E+10	1	-1E+10	1	-1E+10	1
4902554	29	C	11/20/2021	21:57	-136.373	49.282	0	353.10	0	4.5010	0	33.9100	0	26.869	0	349.797	0	-1e10	8	-1e10	8	-1E+10	1	-1E+10	1	-1E+10	1	-1E+10	1	-1E+10	1	-1E+10	1
4902554	29	C	11/20/2021	21:57	-136.373	49.282	0	358.10	0	4.4950	0	33.9130	0	26.872	0	354.746	0	-1e10	8	-1e10	8	-1E+10	1	-1E+10	1	-1E+10	1	-1E+10	1	-1E+10	1	-1E+10	1
4902554	29	C	11/20/2021	21:57	-136.373	49.282	0	363.00	0	4.4840	0	33.9210	0	26.880	0	359.596	0	-1e10	8	-1e10	8	-1E+10	1	-1E+10	1	-1E+10	1	-1E+10	1	-1E+10	1	-1E+10	1
4902554	29	C	11/20/2021	21:57	-136.373	49.282	0	368.00	0	4.4740	0	33.9280	0	26.887	0	364.545	0	-1e10	8	-1e10	8	-1E+10	1	-1E+10	1	-1E+10	1	-1E+10	1	-1E+10	1	-1E+10	1
4902554	29	C	11/20/2021	21:57	-136.373	49.282	0	373.10	0	4.4680	0	33.9360	0	26.894	0	369.592	0	-1e10	8	-1e10	8	-1E+10	1	-1E+10	1	-1E+10	1	-1E+10	1	-1E+10	1	-1E+10	1
4902554	29	C	11/20/2021	21:57	-136.373	49.282	0	378.20	0	4.4650	0	33.9380	0	26.896	0	374.640	0	-1e10	8	-1e10	8	-1E+10	1	-1E+10	1	-1E+10	1	-1E+10	1	-1E+10	1	-1E+10	1
4902554	29	C	11/20/2021	21:57	-136.373	49.282	0	382.80	0	4.4620	0	33.9460	0	26.902	0	379.192	0	-1e10	8	-1e10	8	-1E+10	1	-1E+10	1	-1E+10	1	-1E+10	1	-1E+10	1	-1E+10	1
4902554	29	C	11/20/2021	21:57	-136.373	49.282	0	387.50	0	4.4600	0	33.9490	0	26.905	0	383.843	0	-1e10	8	-1e10	8	-1E+10	1	-1E+10	1	-1E+10	1	-1E+10	1	-1E+10	1	-1E+10	1
4902554	29	C	11/20/2021	21:57	-136.373	49.282	0	392.80	0	4.4610	0	33.9550	0	26.910	0	389.088	0	-1e10	8	-1e10	8	-1E+10	1	-1E+10	1	-1E+10	1	-1E+10	1	-1E+10	1	-1E+10	1
4902554	29	C	11/20/2021	21:57	-136.373	49.282	0	398.00	0	4.4560	0	33.9610	0	26.915	0	394.234	0	-1e10	8	-1e10	8	-1E+10	1	-1E+10	1	-1E+10	1	-1E+10	1	-1E+10	1	-1E+10	1
4902554	29	C	11/20/2021	21:57	-136.373	49.282	0	402.80	0	4.4420	0	33.9680	0	26.922	0	398.984	0	-1e10	8	-1e10	8	-1E+10	1	-1E+10	1	-1E+10	1	-1E+10	1	-1E+10	1	-1E+10	1
4902554	29	C	11/20/2021	21:57	-136.373	49.282	0	407.70	0	4.4330	0	33.9730	0	26.927	0	403.833	0	-1e10	8	-1e10	8	-1E+10	1	-1E+10	1	-1E+10	1	-1E+10	1	-1E+10	1	-1E+10	1
4902554	29	C	11/20/2021	21:57	-136.373	49.282	0	412.60	0	4.4210	0	33.9790	0	26.933	0	408.682	0	-1e10	8	-1e10	8	-1E+10	1	-1E+10	1	-1E+10	1	-1E+10	1	-1E+10	1	-1E+10	1
4902554	29	C	11/20/2021	21:57	-136.373	49.282	0	417.90	0	4.4050	0	33.9860	0	26.941	0	413.926	0	-1e10	8	-1e10	8	-1E+10	1	-1E+10	1	-1E+10	1	-1E+10	1	-1E+10	1	-1E+10	1
4902554	29	C	11/20/2021	21:57	-136.373	49.282	0	423.20	0	4.3870	0	33.9960	0	26.950	0	419.170	0	-1e10	8	-1e10	8	-1E+10	1	-1E+10	1	-1E+10	1	-1E+10	1	-1E+10	1	-1E+10	1
4902554	29	C	11/20/2021	21:57	-136.373	49.282	0	428.10	0	4.3770	0	34.0020	0	26.956	0	424.019	0	-1e10	8	-1e10	8	-1E+10	1	-1E+10	1	-1E+10	1	-1E+10	1	-1E+10	1	-1E+10	1
4902554	29	C	11/20/2021	21:57	-136.373	49.282	0	433.00	0	4.3600	0	34.0070	0	26.962	0	428.867	0	-1e10	8	-1e10	8	-1E+10	1	-1E+10	1	-1E+10	1	-1E+10	1	-1E+10	1	-1E+10	1
4902554	29	C	11/20/2021	21:57	-136.373	49.282	0	437.90	0	4.3480	0	34.0130	0	26.968	0	433.715	0	-1e10	8	-1e10	8	-1E+10	1	-1E+10	1	-1E+10	1	-1E+10	1	-1E+10	1	-1E+10	1
4902554	29	C	11/20/2021	21:57	-136.373	49.282	0	443.00	0	4.3370	0	34.0180	0	26.973	0	438.761	0	-1e10	8	-1e10	8	-1E+10	1	-1E+10	1	-1E+10	1	-1E+10	1	-1E+10	1	-1E+10	1
4902554	29	C	11/20/2021	21:57	-136.373	49.282	0	448.00	0	4.3280	0	34.0220	0	26.978	0	443.708	0	-1e10	8	-1e10	8	-1E+10	1	-1E+10	1	-1E+10	1	-1E+10	1	-1E+10	1	-1E+10	1
4902554	29	C	11/20/2021	21:57	-136.373	49.282	0	453.00	0	4.3070	0	34.0300	0	26.986	0	448.655	0	-1e10	8	-1e10	8	-1E+10	1	-1E+10	1	-1E+10	1	-1E+10	1	-1E+10	1	-1E+10	1
4902554	29	C	11/20/2021	21:57	-136.373	49.282	0	458.10	0	4.2980	0	34.0350	0	26.991	0	453.700	0	-1e10	8	-1e10	8	-1E+10	1	-1E+10	1	-1E+10	1	-1E+10	1	-1E+10	1	-1E+10	1
4902554	29	C	11/20/2021	21:57	-136.373	49.282	0	463.20	0	4.2860	0	34.0400	0	26.996	0	458.745	0	-1e10	8	-1e10	8	-1E+10	1	-1E+10	1	-1E+10	1	-1E+10	1	-1E+10	1	-1E+10	1
4902554	29	C	11/20/2021	21:57	-136.373	49.282	0	467.90	0	4.2640	0	34.0480	0	27.005	0	463.395	0	-1e10	8	-1e10	8	-1E+10	1	-1E+10	1	-1E+10	1	-1E+10	1	-1E+10	1	-1E+10	1
4902554	29	C	11/20/2021	21:57	-136.373	49.282	0	472.90	0	4.2390	0	34.0530	0	27.012	0	468.341	0	-1e10	8	-1e10	8	-1E+10	1	-1E+10	1	-1E+10	1	-1E+10	1	-1E+10	1	-1E+10	1
4902554	29	C	11/20/2021	21:57	-136.373	49.282	0	477.90	0	4.2270	0	34.0580	0	27.017	0	473.287	0	-1e10	8	-1e10	8	-1E+10	1	-1E+10	1	-1E+10	1	-1E+10	1	-1E+10	1	-1E+10	1
4902554	29	C	11/20/2021	21:57	-136.373	49.282	0	482.70	0	4.2110	0	34.0620	0	27.022	0	478.035	0	-1e10	8	-1e10	8	-1E+10	1	-1E+10	1	-1E+10	1	-1E+10	1	-1E+10	1	-1E+10	1
4902554	29	C	11/20/2021	21:57	-136.373	49.282	0	487.60	0	4.2040	0	34.0650	0	27.025	0	482.882	0	-1e10	8	-1e10	8	-1E+10	1	-1E+10	1	-1E+10	1	-1E+10	1	-1E+10	1	-1E+10	1
4902554	29	C	11/20/2021	21:57	-136.373	49.282	0	492.60	0	4.1980	0	34.0680	0	27.028	0	487.828	0	-1e10	8	-1e10	8	-1E+10	1	-1E+10	1	-1E+10	1	-1E+10	1	-1E+10	1	-1E+10	1
4902554	29	C	11/20/2021	21:57	-136.373	49.282	0	497.70	0	4.1800	0	34.0740	0	27.035	0	492.873	0	-1e10	8	-1e10	8	-1E+10	1	-1E+10	1	-1E+10	1	-1E+10	1	-1E+10	1	-1E+10	1
4902554	29	C	11/20/2021	21:57	-136.373	49.282	0	502.90	0	4.1720	0	34.0770	0	27.038	0	498.016	0	-1e10	8	-1e10	8	-1E+10	1	-1E+10	1	-1E+10	1	-1E+10	1	-1E+10	1	-1E+10	1
4902554	29	C	11/20/2021	21:57	-136.373	49.282	0	508.10	0	4.1600	0	34.0810	0	27.042	0	503.159	0	-1e10	8	-1e10	8	-1E+10	1	-1E+10	1	-1E+10	1	-1E+10	1	-1E+10	1	-1E+10	1
4902554	29	C	11/20/2021	21:57	-136.373	49.282	0	513.00	0	4.1480	0	34.0860	0	27.048	0	508.006	0	-1e10	8	-1e10	8	-1E+10	1	-1E+10	1	-1E+10	1	-1E+10	1	-1E+10	1	-1E+10	1
4902554	29	C	11/20/2021	21:57	-136.373	49.282	0	518.00	0	4.1410	0	34.0880	0	27.050	0	512.951	0	-1e10	8	-1e10	8	-1E+10	1	-1E+10	1	-1E+10	1	-1E+10	1	-1E+10	1	-1E+10	1
4902554	29	C	11/20/2021	21:57	-136.373	49.282	0	523.00	0	4.1290	0	34.0930	0	27.055	0	517.896	0	-1e10	8	-1e10	8	-1E+10	1	-1E+10	1	-1E+10	1	-1E+10	1	-1E+10	1	-1E+10	1
4902554	29	C	11/20/2021	21:57	-136.373	49.282	0	528.00	0	4.1190	0	34.0980	0	27.060	0	522.841	0	-1e10	8	-1e10	8	-1E+10	1	-1E+10	1	-1E+10	1	-1E+10	1	-1E+10	1	-1E+10	1
4902554	29	C	11/20/2021	21:57	-136.373	49.282	0	533.00	0	4.1110	0	34.1030	0	27.065	0	527.786	0	-1e10	8	-1e10	8	-1E+10	1	-1E+10	1	-1E+10	1	-1E+10	1	-1E+10	1	-1E+10	1
4902554	29	C	11/20/2021	21:57	-136.373	49.282	0	538.10	0	4.1020	0	34.1060	0	27.069	0	532.829	0	-1e10	8	-1e10	8	-1E+10	1	-1E+10	1	-1E+10	1	-1E+10	1	-1E+10	1	-1E+10	1
4902554	29	C	11/20/2021	21:57	-136.373	49.282	0	543.10	0	4.0840	0	34.1120	0	27.075	0	537.774	0	-1e10	8	-1e10	8	-1E+10	1	-1E+10	1	-1E+10	1	-1E+10	1	-1E+10	1	-1E+10	1
4902554	29	C	11/20/2021	21:57	-136.373	49.282	0	548.00	0	4.0660	0	34.1150	0	27.080	0	542.619	0	-1e10	8	-1e10	8	-1E+10	1	-1E+10	1	-1E+10	1	-1E+10	1	-1E+10	1	-1E+10	1
4902554	29	C	11/20/2021	21:57	-136.373	49.282	0	553.10	0	4.0490	0	34.1190	0	27.084	0	547.662	0	-1e10	8	-1e10	8	-1E+10	1	-1E+10	1	-1E+10	1	-1E+10	1	-1E+10	1	-1E+10	1
4902554	29	C	11/20/2021	21:57	-136.373	49.282	0	558.10	0	4.0370	0	34.1230	0	27.089	0	552.607	0	-1e10	8	-1e10	8	-1E+10	1	-1E+10	1	-1E+10	1	-1E+10	1	-1E+10	1	-1E+10	1
4902554	29	C	11/20/2021	21:57	-136.373	49.282	0	563.10	0	4.0120	0	34.1290	0	27.096	0	557.551	0	-1e10	8	-1e10	8	-1E+10	1	-1E+10	1	-1E+10	1	-1E+10	1	-1E+10	1	-1E+10	1
4902554	29	C	11/20/2021	21:57	-136.373	49.282	0	567.70	0	3.9970	0	34.1340	0	27.102	0	562.099	0	-1e10	8	-1e10	8	-1E+10	1	-1E+10	1	-1E+10	1	-1E+10	1	-1E+10	1	-1E+10	1
4902554	29	C	11/20/2021	21:57	-136.373	49.282	0	572.80	0	3.9940	0	34.1350	0	27.103	0	567.142	0	-1e10	8	-1e10	8	-1E+10	1	-1E+10	1	-1E+10	1	-1E+10	1	-1E+10	1	-1E+10	1
4902554	29	C	11/20/2021	21:57	-136.373	49.282	0	577.90	0	3.9790	0	34.1410	0	27.109	0	572.185	0	-1e10	8	-1e10	8	-1E+10	1	-1E+10	1	-1E+10	1	-1E+10	1	-1E+10	1	-1E+10	1
4902554	29	C	11/20/2021	21:57	-136.373	49.282	0	583.00	0	3.9670	0	34.1480	0	27.116	0	577.227	0	-1e10	8	-1e10	8	-1E+10	1	-1E+10	1	-1E+10	1	-1E+10	1	-1E+10	1	-1E+10	1
4902554	29	C	11/20/2021	21:57	-136.373	49.282	0	588.30	0	3.9510	0	34.1520	0	27.121	0	582.467	0	-1e10	8	-1e10	8	-1E+10	1	-1E+10	1	-1E+10	1	-1E+10	1	-1E+10	1	-1E+10	1
4902554	29	C	11/20/2021	21:57	-136.373	49.282	0	593.10	0	3.9400	0	34.1550	0	27.125	0	587.213	0	-1e10	8	-1e10	8	-1E+10	1	-1E+10	1	-1E+10	1	-1E+10	1	-1E+10	1	-1E+10	1
4902554	29	C	11/20/2021	21:57	-136.373	49.282	0	597.90	0	3.9290	0	34.1580	0	27.128	0	591.958	0	-1e10	8	-1e10	8	-1E+10	1	-1E+10	1	-1E+10	1	-1E+10	1	-1E+10	1	-1E+10	1
4902554	29	C	11/20/2021	21:57	-136.373	49.282	0	602.80	0	3.9090	0	34.1640	0	27.135	0	596.803	0	-1e10	8	-1e10	8	-1E+10	1	-1E+10	1	-1E+10	1	-1E+10	1	-1E+10	1	-1E+10	1
4902554	29	C	11/20/2021	21:57	-136.373	49.282	0	607.60	0	3.9000	0	34.1670	0	27.138	0	601.548	0	-1e10	8	-1e10	8	-1E+10	1	-1E+10	1	-1E+10	1	-1E+10	1	-1E+10	1	-1E+10	1
4902554	29	C	11/20/2021	21:57	-136.373	49.282	0	612.50	0	3.8920	0	34.1690	0	27.141	0	606.392	0	-1e10	8	-1e10	8	-1E+10	1	-1E+10	1	-1E+10	1	-1E+10	1	-1E+10	1	-1E+10	1
4902554	29	C	11/20/2021	21:57	-136.373	49.282	0	617.50	0	3.8820	0	34.1720	0	27.144	0	611.335	0	-1e10	8	-1e10	8	-1E+10	1	-1E+10	1	-1E+10	1	-1E+10	1	-1E+10	1	-1E+10	1
4902554	29	C	11/20/2021	21:57	-136.373	49.282	0	622.50	0	3.8720	0	34.1750	0	27.147	0	616.277	0	-1e10	8	-1e10	8	-1E+10	1	-1E+10	1	-1E+10	1	-1E+10	1	-1E+10	1	-1E+10	1
4902554	29	C	11/20/2021	21:57	-136.373	49.282	0	627.50	0	3.8600	0	34.1790	0	27.152	0	621.220	0	-1e10	8	-1e10	8	-1E+10	1	-1E+10	1	-1E+10	1	-1E+10	1	-1E+10	1	-1E+10	1
4902554	29	C	11/20/2021	21:57	-136.373	49.282	0	632.60	0	3.8430	0	34.1840	0	27.158	0	626.261	0	-1e10	8	-1e10	8	-1E+10	1	-1E+10	1	-1E+10	1	-1E+10	1	-1E+10	1	-1E+10	1
4902554	29	C	11/20/2021	21:57	-136.373	49.282	0	638.00	0	3.8280	0	34.1880	0	27.162	0	631.599	0	-1e10	8	-1e10	8	-1E+10	1	-1E+10	1	-1E+10	1	-1E+10	1	-1E+10	1	-1E+10	1
4902554	29	C	11/20/2021	21:57	-136.373	49.282	0	643.00	0	3.8110	0	34.1920	0	27.167	0	636.541	0	-1e10	8	-1e10	8	-1E+10	1	-1E+10	1	-1E+10	1	-1E+10	1	-1E+10	1	-1E+10	1
4902554	29	C	11/20/2021	21:57	-136.373	49.282	0	647.80	0	3.8000	0	34.1960	0	27.172	0	641.286	0	-1e10	8	-1e10	8	-1E+10	1	-1E+10	1	-1E+10	1	-1E+10	1	-1E+10	1	-1E+10	1
4902554	29	C	11/20/2021	21:57	-136.373	49.282	0	652.70	0	3.7840	0	34.1990	0	27.176	0	646.129	0	-1e10	8	-1e10	8	-1E+10	1	-1E+10	1	-1E+10	1	-1E+10	1	-1E+10	1	-1E+10	1
4902554	29	C	11/20/2021	21:57	-136.373	49.282	0	657.70	0	3.7680	0	34.2030	0	27.180	0	651.071	0	-1e10	8	-1e10	8	-1E+10	1	-1E+10	1	-1E+10	1	-1E+10	1	-1E+10	1	-1E+10	1
4902554	29	C	11/20/2021	21:57	-136.373	49.282	0	662.70	0	3.7580	0	34.2050	0	27.183	0	656.012	0	-1e10	8	-1e10	8	-1E+10	1	-1E+10	1	-1E+10	1	-1E+10	1	-1E+10	1	-1E+10	1
4902554	29	C	11/20/2021	21:57	-136.373	49.282	0	667.80	0	3.7490	0	34.2080	0	27.186	0	661.053	0	-1e10	8	-1e10	8	-1E+10	1	-1E+10	1	-1E+10	1	-1E+10	1	-1E+10	1	-1E+10	1
4902554	29	C	11/20/2021	21:57	-136.373	49.282	0	672.90	0	3.7360	0	34.2120	0	27.191	0	666.093	0	-1e10	8	-1e10	8	-1E+10	1	-1E+10	1	-1E+10	1	-1E+10	1	-1E+10	1	-1E+10	1
4902554	29	C	11/20/2021	21:57	-136.373	49.282	0	678.00	0	3.7260	0	34.2140	0	27.193	0	671.133	0	-1e10	8	-1e10	8	-1E+10	1	-1E+10	1	-1E+10	1	-1E+10	1	-1E+10	1	-1E+10	1
4902554	29	C	11/20/2021	21:57	-136.373	49.282	0	683.20	0	3.7010	0	34.2190	0	27.200	0	676.272	0	-1e10	8	-1e10	8	-1E+10	1	-1E+10	1	-1E+10	1	-1E+10	1	-1E+10	1	-1E+10	1
4902554	29	C	11/20/2021	21:57	-136.373	49.282	0	688.00	0	3.6880	0	34.2220	0	27.204	0	681.016	0	-1e10	8	-1e10	8	-1E+10	1	-1E+10	1	-1E+10	1	-1E+10	1	-1E+10	1	-1E+10	1
4902554	29	C	11/20/2021	21:57	-136.373	49.282	0	692.90	0	3.6770	0	34.2250	0	27.207	0	685.858	0	-1e10	8	-1e10	8	-1E+10	1	-1E+10	1	-1E+10	1	-1E+10	1	-1E+10	1	-1E+10	1
4902554	29	C	11/20/2021	21:57	-136.373	49.282	0	697.80	0	3.6680	0	34.2270	0	27.210	0	690.700	0	-1e10	8	-1e10	8	-1E+10	1	-1E+10	1	-1E+10	1	-1E+10	1	-1E+10	1	-1E+10	1
4902554	29	C	11/20/2021	21:57	-136.373	49.282	0	702.70	0	3.6440	0	34.2300	0	27.214	0	695.542	0	-1e10	8	-1e10	8	-1E+10	1	-1E+10	1	-1E+10	1	-1E+10	1	-1E+10	1	-1E+10	1
4902554	29	C	11/20/2021	21:57	-136.373	49.282	0	708.10	0	3.6300	0	34.2320	0	27.217	0	700.878	0	-1e10	8	-1e10	8	-1E+10	1	-1E+10	1	-1E+10	1	-1E+10	1	-1E+10	1	-1E+10	1
4902554	29	C	11/20/2021	21:57	-136.373	49.282	0	713.10	0	3.6290	0	34.2340	0	27.219	0	705.818	0	-1e10	8	-1e10	8	-1E+10	1	-1E+10	1	-1E+10	1	-1E+10	1	-1E+10	1	-1E+10	1
4902554	29	C	11/20/2021	21:57	-136.373	49.282	0	718.00	0	3.6160	0	34.2370	0	27.223	0	710.660	0	-1e10	8	-1e10	8	-1E+10	1	-1E+10	1	-1E+10	1	-1E+10	1	-1E+10	1	-1E+10	1
4902554	29	C	11/20/2021	21:57	-136.373	49.282	0	723.00	0	3.6110	0	34.2400	0	27.226	0	715.600	0	-1e10	8	-1e10	8	-1E+10	1	-1E+10	1	-1E+10	1	-1E+10	1	-1E+10	1	-1E+10	1
4902554	29	C	11/20/2021	21:57	-136.373	49.282	0	727.90	0	3.5950	0	34.2430	0	27.230	0	720.442	0	-1e10	8	-1e10	8	-1E+10	1	-1E+10	1	-1E+10	1	-1E+10	1	-1E+10	1	-1E+10	1
4902554	29	C	11/20/2021	21:57	-136.373	49.282	0	732.90	0	3.5840	0	34.2450	0	27.232	0	725.382	0	-1e10	8	-1e10	8	-1E+10	1	-1E+10	1	-1E+10	1	-1E+10	1	-1E+10	1	-1E+10	1
4902554	29	C	11/20/2021	21:57	-136.373	49.282	0	737.80	0	3.5720	0	34.2500	0	27.238	0	730.223	0	-1e10	8	-1e10	8	-1E+10	1	-1E+10	1	-1E+10	1	-1E+10	1	-1E+10	1	-1E+10	1
4902554	29	C	11/20/2021	21:57	-136.373	49.282	0	742.80	0	3.5700	0	34.2520	0	27.239	0	735.163	0	-1e10	8	-1e10	8	-1E+10	1	-1E+10	1	-1E+10	1	-1E+10	1	-1E+10	1	-1E+10	1
4902554	29	C	11/20/2021	21:57	-136.373	49.282	0	747.70	0	3.5670	0	34.2530	0	27.241	0	740.004	0	-1e10	8	-1e10	8	-1E+10	1	-1E+10	1	-1E+10	1	-1E+10	1	-1E+10	1	-1E+10	1
4902554	29	C	11/20/2021	21:57	-136.373	49.282	0	753.10	0	3.5580	0	34.2550	0	27.243	0	745.339	0	-1e10	8	-1e10	8	-1E+10	1	-1E+10	1	-1E+10	1	-1E+10	1	-1E+10	1	-1E+10	1
4902554	29	C	11/20/2021	21:57	-136.373	49.282	0	758.10	0	3.5440	0	34.2570	0	27.246	0	750.278	0	-1e10	8	-1e10	8	-1E+10	1	-1E+10	1	-1E+10	1	-1E+10	1	-1E+10	1	-1E+10	1
4902554	29	C	11/20/2021	21:57	-136.373	49.282	0	762.80	0	3.5220	0	34.2600	0	27.251	0	754.921	0	-1e10	8	-1e10	8	-1E+10	1	-1E+10	1	-1E+10	1	-1E+10	1	-1E+10	1	-1E+10	1
4902554	29	C	11/20/2021	21:57	-136.373	49.282	0	767.60	0	3.5100	0	34.2640	0	27.255	0	759.663	0	-1e10	8	-1e10	8	-1E+10	1	-1E+10	1	-1E+10	1	-1E+10	1	-1E+10	1	-1E+10	1
4902554	29	C	11/20/2021	21:57	-136.373	49.282	0	773.00	0	3.5050	0	34.2650	0	27.256	0	764.997	0	-1e10	8	-1e10	8	-1E+10	1	-1E+10	1	-1E+10	1	-1E+10	1	-1E+10	1	-1E+10	1
4902554	29	C	11/20/2021	21:57	-136.373	49.282	0	778.40	0	3.4940	0	34.2680	0	27.260	0	770.331	0	-1e10	8	-1e10	8	-1E+10	1	-1E+10	1	-1E+10	1	-1E+10	1	-1E+10	1	-1E+10	1
4902554	29	C	11/20/2021	21:57	-136.373	49.282	0	783.40	0	3.4820	0	34.2710	0	27.263	0	775.270	0	-1e10	8	-1e10	8	-1E+10	1	-1E+10	1	-1E+10	1	-1E+10	1	-1E+10	1	-1E+10	1
4902554	29	C	11/20/2021	21:57	-136.373	49.282	0	788.20	0	3.4680	0	34.2750	0	27.268	0	780.011	0	-1e10	8	-1e10	8	-1E+10	1	-1E+10	1	-1E+10	1	-1E+10	1	-1E+10	1	-1E+10	1
4902554	29	C	11/20/2021	21:57	-136.373	49.282	0	793.00	0	3.4600	0	34.2770	0	27.270	0	784.752	0	-1e10	8	-1e10	8	-1E+10	1	-1E+10	1	-1E+10	1	-1E+10	1	-1E+10	1	-1E+10	1
4902554	29	C	11/20/2021	21:57	-136.373	49.282	0	797.80	0	3.4540	0	34.2780	0	27.272	0	789.493	0	-1e10	8	-1e10	8	-1E+10	1	-1E+10	1	-1E+10	1	-1E+10	1	-1E+10	1	-1E+10	1
4902554	29	C	11/20/2021	21:57	-136.373	49.282	0	802.60	0	3.4490	0	34.2800	0	27.274	0	794.234	0	-1e10	8	-1e10	8	-1E+10	1	-1E+10	1	-1E+10	1	-1E+10	1	-1E+10	1	-1E+10	1
4902554	29	C	11/20/2021	21:57	-136.373	49.282	0	807.60	0	3.4380	0	34.2820	0	27.276	0	799.173	0	-1e10	8	-1e10	8	-1E+10	1	-1E+10	1	-1E+10	1	-1E+10	1	-1E+10	1	-1E+10	1
4902554	29	C	11/20/2021	21:57	-136.373	49.282	0	812.60	0	3.4300	0	34.2840	0	27.279	0	804.111	0	-1e10	8	-1e10	8	-1E+10	1	-1E+10	1	-1E+10	1	-1E+10	1	-1E+10	1	-1E+10	1
4902554	29	C	11/20/2021	21:57	-136.373	49.282	0	817.60	0	3.4160	0	34.2870	0	27.283	0	809.049	0	-1e10	8	-1e10	8	-1E+10	1	-1E+10	1	-1E+10	1	-1E+10	1	-1E+10	1	-1E+10	1
4902554	29	C	11/20/2021	21:57	-136.373	49.282	0	822.90	0	3.4010	0	34.2890	0	27.286	0	814.283	0	-1e10	8	-1e10	8	-1E+10	1	-1E+10	1	-1E+10	1	-1E+10	1	-1E+10	1	-1E+10	1
4902554	29	C	11/20/2021	21:57	-136.373	49.282	0	827.70	0	3.3900	0	34.2920	0	27.289	0	819.024	0	-1e10	8	-1e10	8	-1E+10	1	-1E+10	1	-1E+10	1	-1E+10	1	-1E+10	1	-1E+10	1
4902554	29	C	11/20/2021	21:57	-136.373	49.282	0	832.80	0	3.3770	0	34.2950	0	27.293	0	824.060	0	-1e10	8	-1e10	8	-1E+10	1	-1E+10	1	-1E+10	1	-1E+10	1	-1E+10	1	-1E+10	1
4902554	29	C	11/20/2021	21:57	-136.373	49.282	0	838.00	0	3.3640	0	34.2980	0	27.296	0	829.195	0	-1e10	8	-1e10	8	-1E+10	1	-1E+10	1	-1E+10	1	-1E+10	1	-1E+10	1	-1E+10	1
4902554	29	C	11/20/2021	21:57	-136.373	49.282	0	842.90	0	3.3550	0	34.2990	0	27.298	0	834.034	0	-1e10	8	-1e10	8	-1E+10	1	-1E+10	1	-1E+10	1	-1E+10	1	-1E+10	1	-1E+10	1
4902554	29	C	11/20/2021	21:57	-136.373	49.282	0	847.90	0	3.3480	0	34.3000	0	27.300	0	838.971	0	-1e10	8	-1e10	8	-1E+10	1	-1E+10	1	-1E+10	1	-1E+10	1	-1E+10	1	-1E+10	1
4902554	29	C	11/20/2021	21:57	-136.373	49.282	0	853.00	0	3.3280	0	34.3050	0	27.305	0	844.007	0	-1e10	8	-1e10	8	-1E+10	1	-1E+10	1	-1E+10	1	-1E+10	1	-1E+10	1	-1E+10	1
4902554	29	C	11/20/2021	21:57	-136.373	49.282	0	858.10	0	3.3170	0	34.3070	0	27.308	0	849.043	0	-1e10	8	-1e10	8	-1E+10	1	-1E+10	1	-1E+10	1	-1E+10	1	-1E+10	1	-1E+10	1
4902554	29	C	11/20/2021	21:57	-136.373	49.282	0	862.90	0	3.3150	0	34.3070	0	27.308	0	853.783	0	-1e10	8	-1e10	8	-1E+10	1	-1E+10	1	-1E+10	1	-1E+10	1	-1E+10	1	-1E+10	1
4902554	29	C	11/20/2021	21:57	-136.373	49.282	0	867.80	0	3.3030	0	34.3100	0	27.312	0	858.621	0	-1e10	8	-1e10	8	-1E+10	1	-1E+10	1	-1E+10	1	-1E+10	1	-1E+10	1	-1E+10	1
4902554	29	C	11/20/2021	21:57	-136.373	49.282	0	872.70	0	3.3010	0	34.3110	0	27.313	0	863.459	0	-1e10	8	-1e10	8	-1E+10	1	-1E+10	1	-1E+10	1	-1E+10	1	-1E+10	1	-1E+10	1
4902554	29	C	11/20/2021	21:57	-136.373	49.282	0	877.70	0	3.2960	0	34.3120	0	27.314	0	868.396	0	-1e10	8	-1e10	8	-1E+10	1	-1E+10	1	-1E+10	1	-1E+10	1	-1E+10	1	-1E+10	1
4902554	29	C	11/20/2021	21:57	-136.373	49.282	0	882.70	0	3.2880	0	34.3140	0	27.317	0	873.332	0	-1e10	8	-1e10	8	-1E+10	1	-1E+10	1	-1E+10	1	-1E+10	1	-1E+10	1	-1E+10	1
4902554	29	C	11/20/2021	21:57	-136.373	49.282	0	887.70	0	3.2800	0	34.3150	0	27.318	0	878.269	0	-1e10	8	-1e10	8	-1E+10	1	-1E+10	1	-1E+10	1	-1E+10	1	-1E+10	1	-1E+10	1
4902554	29	C	11/20/2021	21:57	-136.373	49.282	0	892.70	0	3.2600	0	34.3190	0	27.323	0	883.205	0	-1e10	8	-1e10	8	-1E+10	1	-1E+10	1	-1E+10	1	-1E+10	1	-1E+10	1	-1E+10	1
4902554	29	C	11/20/2021	21:57	-136.373	49.282	0	897.80	0	3.2530	0	34.3210	0	27.326	0	888.240	0	-1e10	8	-1e10	8	-1E+10	1	-1E+10	1	-1E+10	1	-1E+10	1	-1E+10	1	-1E+10	1
4902554	29	C	11/20/2021	21:57	-136.373	49.282	0	903.00	0	3.2470	0	34.3220	0	27.327	0	893.373	0	-1e10	8	-1e10	8	-1E+10	1	-1E+10	1	-1E+10	1	-1E+10	1	-1E+10	1	-1E+10	1
4902554	29	C	11/20/2021	21:57	-136.373	49.282	0	907.80	0	3.2370	0	34.3240	0	27.329	0	898.112	0	-1e10	8	-1e10	8	-1E+10	1	-1E+10	1	-1E+10	1	-1E+10	1	-1E+10	1	-1E+10	1
4902554	29	C	11/20/2021	21:57	-136.373	49.282	0	912.70	0	3.2300	0	34.3250	0	27.331	0	902.949	0	-1e10	8	-1e10	8	-1E+10	1	-1E+10	1	-1E+10	1	-1E+10	1	-1E+10	1	-1E+10	1
4902554	29	C	11/20/2021	21:57	-136.373	49.282	0	917.60	0	3.2190	0	34.3280	0	27.334	0	907.786	0	-1e10	8	-1e10	8	-1E+10	1	-1E+10	1	-1E+10	1	-1E+10	1	-1E+10	1	-1E+10	1
4902554	29	C	11/20/2021	21:57	-136.373	49.282	0	922.60	0	3.2090	0	34.3290	0	27.336	0	912.722	0	-1e10	8	-1e10	8	-1E+10	1	-1E+10	1	-1E+10	1	-1E+10	1	-1E+10	1	-1E+10	1
4902554	29	C	11/20/2021	21:57	-136.373	49.282	0	927.60	0	3.2060	0	34.3300	0	27.337	0	917.657	0	-1e10	8	-1e10	8	-1E+10	1	-1E+10	1	-1E+10	1	-1E+10	1	-1E+10	1	-1E+10	1
4902554	29	C	11/20/2021	21:57	-136.373	49.282	0	932.70	0	3.2000	0	34.3320	0	27.339	0	922.691	0	-1e10	8	-1e10	8	-1E+10	1	-1E+10	1	-1E+10	1	-1E+10	1	-1E+10	1	-1E+10	1
4902554	29	C	11/20/2021	21:57	-136.373	49.282	0	937.70	0	3.1880	0	34.3340	0	27.342	0	927.627	0	-1e10	8	-1e10	8	-1E+10	1	-1E+10	1	-1E+10	1	-1E+10	1	-1E+10	1	-1E+10	1
4902554	29	C	11/20/2021	21:57	-136.373	49.282	0	942.80	0	3.1860	0	34.3350	0	27.343	0	932.660	0	-1e10	8	-1e10	8	-1E+10	1	-1E+10	1	-1E+10	1	-1E+10	1	-1E+10	1	-1E+10	1
4902554	29	C	11/20/2021	21:57	-136.373	49.282	0	948.00	0	3.1800	0	34.3370	0	27.345	0	937.793	0	-1e10	8	-1e10	8	-1E+10	1	-1E+10	1	-1E+10	1	-1E+10	1	-1E+10	1	-1E+10	1
4902554	29	C	11/20/2021	21:57	-136.373	49.282	0	953.30	0	3.1730	0	34.3380	0	27.347	0	943.024	0	-1e10	8	-1e10	8	-1E+10	1	-1E+10	1	-1E+10	1	-1E+10	1	-1E+10	1	-1E+10	1
4902554	29	C	11/20/2021	21:57	-136.373	49.282	0	958.00	0	3.1660	0	34.3400	0	27.349	0	947.663	0	-1e10	8	-1e10	8	-1E+10	1	-1E+10	1	-1E+10	1	-1E+10	1	-1E+10	1	-1E+10	1
4902554	29	C	11/20/2021	21:57	-136.373	49.282	0	962.70	0	3.1620	0	34.3400	0	27.349	0	952.301	0	-1e10	8	-1e10	8	-1E+10	1	-1E+10	1	-1E+10	1	-1E+10	1	-1E+10	1	-1E+10	1
4902554	29	C	11/20/2021	21:57	-136.373	49.282	0	968.00	0	3.1480	0	34.3440	0	27.354	0	957.532	0	-1e10	8	-1e10	8	-1E+10	1	-1E+10	1	-1E+10	1	-1E+10	1	-1E+10	1	-1E+10	1
4902554	29	C	11/20/2021	21:57	-136.373	49.282	0	973.30	0	3.1350	0	34.3460	0	27.357	0	962.762	0	-1e10	8	-1e10	8	-1E+10	1	-1E+10	1	-1E+10	1	-1E+10	1	-1E+10	1	-1E+10	1
4902554	29	C	11/20/2021	21:57	-136.373	49.282	0	978.00	0	3.1250	0	34.3480	0	27.359	0	967.401	0	-1e10	8	-1e10	8	-1E+10	1	-1E+10	1	-1E+10	1	-1E+10	1	-1E+10	1	-1E+10	1
4902554	29	C	11/20/2021	21:57	-136.373	49.282	0	982.90	0	3.1160	0	34.3500	0	27.362	0	972.236	0	-1e10	8	-1e10	8	-1E+10	1	-1E+10	1	-1E+10	1	-1E+10	1	-1E+10	1	-1E+10	1
4902554	29	C	11/20/2021	21:57	-136.373	49.282	0	987.70	0	3.1100	0	34.3510	0	27.363	0	976.973	0	-1e10	8	-1e10	8	-1E+10	1	-1E+10	1	-1E+10	1	-1E+10	1	-1E+10	1	-1E+10	1
4902554	29	C	11/20/2021	21:57	-136.373	49.282	0	992.60	0	3.0980	0	34.3540	0	27.367	0	981.808	0	-1e10	8	-1e10	8	-1E+10	1	-1E+10	1	-1E+10	1	-1E+10	1	-1E+10	1	-1E+10	1
4902554	29	C	11/20/2021	21:57	-136.373	49.282	0	997.90	0	3.0900	0	34.3560	0	27.369	0	987.038	0	-1e10	8	-1e10	8	-1E+10	1	-1E+10	1	-1E+10	1	-1E+10	1	-1E+10	1	-1E+10	1
4902554	29	C	11/20/2021	21:57	-136.373	49.282	0	1005.40	0	3.0740	0	34.3590	0	27.373	0	994.439	0	-1e10	8	-1e10	8	-1E+10	1	-1E+10	1	-1E+10	1	-1E+10	1	-1E+10	1	-1E+10	1
4902554	29	C	11/20/2021	21:57	-136.373	49.282	0	1015.10	0	3.0630	0	34.3610	0	27.376	0	1004.010	0	-1e10	8	-1e10	8	-1E+10	1	-1E+10	1	-1E+10	1	-1E+10	1	-1E+10	1	-1E+10	1
4902554	29	C	11/20/2021	21:57	-136.373	49.282	0	1025.30	0	3.0500	0	34.3630	0	27.378	0	1014.074	0	-1e10	8	-1e10	8	-1E+10	1	-1E+10	1	-1E+10	1	-1E+10	1	-1E+10	1	-1E+10	1
4902554	29	C	11/20/2021	21:57	-136.373	49.282	0	1035.50	0	3.0270	0	34.3680	0	27.385	0	1024.137	0	-1e10	8	-1e10	8	-1E+10	1	-1E+10	1	-1E+10	1	-1E+10	1	-1E+10	1	-1E+10	1
4902554	29	C	11/20/2021	21:57	-136.373	49.282	0	1045.10	0	3.0120	0	34.3700	0	27.388	0	1033.608	0	-1e10	8	-1e10	8	-1E+10	1	-1E+10	1	-1E+10	1	-1E+10	1	-1E+10	1	-1E+10	1
4902554	29	C	11/20/2021	21:57	-136.373	49.282	0	1055.30	0	2.9930	0	34.3740	0	27.393	0	1043.671	0	-1e10	8	-1e10	8	-1E+10	1	-1E+10	1	-1E+10	1	-1E+10	1	-1E+10	1	-1E+10	1
4902554	29	C	11/20/2021	21:57	-136.373	49.282	0	1065.30	0	2.9850	0	34.3760	0	27.395	0	1053.535	0	-1e10	8	-1e10	8	-1E+10	1	-1E+10	1	-1E+10	1	-1E+10	1	-1E+10	1	-1E+10	1
4902554	29	C	11/20/2021	21:57	-136.373	49.282	0	1075.30	0	2.9710	0	34.3790	0	27.399	0	1063.399	0	-1e10	8	-1e10	8	-1E+10	1	-1E+10	1	-1E+10	1	-1E+10	1	-1E+10	1	-1E+10	1
4902554	29	C	11/20/2021	21:57	-136.373	49.282	0	1085.60	0	2.9550	0	34.3830	0	27.403	0	1073.559	0	-1e10	8	-1e10	8	-1E+10	1	-1E+10	1	-1E+10	1	-1E+10	1	-1E+10	1	-1E+10	1
4902554	29	C	11/20/2021	21:57	-136.373	49.282	0	1095.50	0	2.9360	0	34.3860	0	27.407	0	1083.324	0	-1e10	8	-1e10	8	-1E+10	1	-1E+10	1	-1E+10	1	-1E+10	1	-1E+10	1	-1E+10	1
4902554	29	C	11/20/2021	21:57	-136.373	49.282	0	1105.30	0	2.9090	0	34.3900	0	27.413	0	1092.989	0	-1e10	8	-1e10	8	-1E+10	1	-1E+10	1	-1E+10	1	-1E+10	1	-1E+10	1	-1E+10	1
4902554	29	C	11/20/2021	21:57	-136.373	49.282	0	1115.30	0	2.8870	0	34.3950	0	27.419	0	1102.852	0	-1e10	8	-1e10	8	-1E+10	1	-1E+10	1	-1E+10	1	-1E+10	1	-1E+10	1	-1E+10	1
4902554	29	C	11/20/2021	21:57	-136.373	49.282	0	1125.60	0	2.8710	0	34.3980	0	27.423	0	1113.009	0	-1e10	8	-1e10	8	-1E+10	1	-1E+10	1	-1E+10	1	-1E+10	1	-1E+10	1	-1E+10	1
4902554	29	C	11/20/2021	21:57	-136.373	49.282	0	1135.70	0	2.8560	0	34.4000	0	27.426	0	1122.969	0	-1e10	8	-1e10	8	-1E+10	1	-1E+10	1	-1E+10	1	-1E+10	1	-1E+10	1	-1E+10	1
4902554	29	C	11/20/2021	21:57	-136.373	49.282	0	1145.60	0	2.8350	0	34.4040	0	27.431	0	1132.732	0	-1e10	8	-1e10	8	-1E+10	1	-1E+10	1	-1E+10	1	-1E+10	1	-1E+10	1	-1E+10	1
4902554	29	C	11/20/2021	21:57	-136.373	49.282	0	1155.40	0	2.8210	0	34.4070	0	27.435	0	1142.395	0	-1e10	8	-1e10	8	-1E+10	1	-1E+10	1	-1E+10	1	-1E+10	1	-1E+10	1	-1E+10	1
4902554	29	C	11/20/2021	21:57	-136.373	49.282	0	1165.00	0	2.8040	0	34.4100	0	27.439	0	1151.861	0	-1e10	8	-1e10	8	-1E+10	1	-1E+10	1	-1E+10	1	-1E+10	1	-1E+10	1	-1E+10	1
4902554	29	C	11/20/2021	21:57	-136.373	49.282	0	1175.00	0	2.7910	0	34.4130	0	27.442	0	1161.720	0	-1e10	8	-1e10	8	-1E+10	1	-1E+10	1	-1E+10	1	-1E+10	1	-1E+10	1	-1E+10	1
4902554	29	C	11/20/2021	21:57	-136.373	49.282	0	1185.10	0	2.7770	0	34.4160	0	27.446	0	1171.678	0	-1e10	8	-1e10	8	-1E+10	1	-1E+10	1	-1E+10	1	-1E+10	1	-1E+10	1	-1E+10	1
4902554	29	C	11/20/2021	21:57	-136.373	49.282	0	1195.40	0	2.7600	0	34.4190	0	27.450	0	1181.833	0	-1e10	8	-1e10	8	-1E+10	1	-1E+10	1	-1E+10	1	-1E+10	1	-1E+10	1	-1E+10	1
4902554	29	C	11/20/2021	21:57	-136.373	49.282	0	1205.40	0	2.7450	0	34.4220	0	27.454	0	1191.691	0	-1e10	8	-1e10	8	-1E+10	1	-1E+10	1	-1E+10	1	-1E+10	1	-1E+10	1	-1E+10	1
4902554	29	C	11/20/2021	21:57	-136.373	49.282	0	1215.30	0	2.7330	0	34.4240	0	27.456	0	1201.450	0	-1e10	8	-1e10	8	-1E+10	1	-1E+10	1	-1E+10	1	-1E+10	1	-1E+10	1	-1E+10	1
4902554	29	C	11/20/2021	21:57	-136.373	49.282	0	1225.20	0	2.7240	0	34.4270	0	27.460	0	1211.208	0	-1e10	8	-1e10	8	-1E+10	1	-1E+10	1	-1E+10	1	-1E+10	1	-1E+10	1	-1E+10	1
4902554	29	C	11/20/2021	21:57	-136.373	49.282	0	1235.20	0	2.7170	0	34.4300	0	27.463	0	1221.065	0	-1e10	8	-1e10	8	-1E+10	1	-1E+10	1	-1E+10	1	-1E+10	1	-1E+10	1	-1E+10	1
4902554	29	C	11/20/2021	21:57	-136.373	49.282	0	1245.40	0	2.7070	0	34.4320	0	27.465	0	1231.119	0	-1e10	8	-1e10	8	-1E+10	1	-1E+10	1	-1E+10	1	-1E+10	1	-1E+10	1	-1E+10	1
4902554	29	C	11/20/2021	21:57	-136.373	49.282	0	1255.30	0	2.6930	0	34.4340	0	27.468	0	1240.876	0	-1e10	8	-1e10	8	-1E+10	1	-1E+10	1	-1E+10	1	-1E+10	1	-1E+10	1	-1E+10	1
4902554	29	C	11/20/2021	21:57	-136.373	49.282	0	1265.10	0	2.6840	0	34.4360	0	27.471	0	1250.534	0	-1e10	8	-1e10	8	-1E+10	1	-1E+10	1	-1E+10	1	-1E+10	1	-1E+10	1	-1E+10	1
4902554	29	C	11/20/2021	21:57	-136.373	49.282	0	1275.40	0	2.6690	0	34.4390	0	27.474	0	1260.685	0	-1e10	8	-1e10	8	-1E+10	1	-1E+10	1	-1E+10	1	-1E+10	1	-1E+10	1	-1E+10	1
4902554	29	C	11/20/2021	21:57	-136.373	49.282	0	1285.50	0	2.6580	0	34.4410	0	27.477	0	1270.638	0	-1e10	8	-1e10	8	-1E+10	1	-1E+10	1	-1E+10	1	-1E+10	1	-1E+10	1	-1E+10	1
4902554	29	C	11/20/2021	21:57	-136.373	49.282	0	1295.40	0	2.6450	0	34.4430	0	27.480	0	1280.393	0	-1e10	8	-1e10	8	-1E+10	1	-1E+10	1	-1E+10	1	-1E+10	1	-1E+10	1	-1E+10	1
4902554	29	C	11/20/2021	21:57	-136.373	49.282	0	1305.20	0	2.6310	0	34.4450	0	27.482	0	1290.050	0	-1e10	8	-1e10	8	-1E+10	1	-1E+10	1	-1E+10	1	-1E+10	1	-1E+10	1	-1E+10	1
4902554	29	C	11/20/2021	21:57	-136.373	49.282	0	1315.10	0	2.6080	0	34.4500	0	27.488	0	1299.804	0	-1e10	8	-1e10	8	-1E+10	1	-1E+10	1	-1E+10	1	-1E+10	1	-1E+10	1	-1E+10	1
4902554	29	C	11/20/2021	21:57	-136.373	49.282	0	1325.20	0	2.5940	0	34.4520	0	27.491	0	1309.756	0	-1e10	8	-1e10	8	-1E+10	1	-1E+10	1	-1E+10	1	-1E+10	1	-1E+10	1	-1E+10	1
4902554	29	C	11/20/2021	21:57	-136.373	49.282	0	1335.30	0	2.5790	0	34.4550	0	27.495	0	1319.706	0	-1e10	8	-1e10	8	-1E+10	1	-1E+10	1	-1E+10	1	-1E+10	1	-1E+10	1	-1E+10	1
4902554	29	C	11/20/2021	21:57	-136.373	49.282	0	1345.40	0	2.5620	0	34.4590	0	27.500	0	1329.657	0	-1e10	8	-1e10	8	-1E+10	1	-1E+10	1	-1E+10	1	-1E+10	1	-1E+10	1	-1E+10	1
4902554	29	C	11/20/2021	21:57	-136.373	49.282	0	1355.30	0	2.5500	0	34.4610	0	27.502	0	1339.409	0	-1e10	8	-1e10	8	-1E+10	1	-1E+10	1	-1E+10	1	-1E+10	1	-1E+10	1	-1E+10	1
4902554	29	C	11/20/2021	21:57	-136.373	49.282	0	1365.00	0	2.5380	0	34.4630	0	27.505	0	1348.965	0	-1e10	8	-1e10	8	-1E+10	1	-1E+10	1	-1E+10	1	-1E+10	1	-1E+10	1	-1E+10	1
4902554	29	C	11/20/2021	21:57	-136.373	49.282	0	1375.00	0	2.5220	0	34.4660	0	27.509	0	1358.815	0	-1e10	8	-1e10	8	-1E+10	1	-1E+10	1	-1E+10	1	-1E+10	1	-1E+10	1	-1E+10	1
4902554	29	C	11/20/2021	21:57	-136.373	49.282	0	1385.10	0	2.5060	0	34.4700	0	27.513	0	1368.763	0	-1e10	8	-1e10	8	-1E+10	1	-1E+10	1	-1E+10	1	-1E+10	1	-1E+10	1	-1E+10	1
4902554	29	C	11/20/2021	21:57	-136.373	49.282	0	1395.40	0	2.4920	0	34.4720	0	27.516	0	1378.908	0	-1e10	8	-1e10	8	-1E+10	1	-1E+10	1	-1E+10	1	-1E+10	1	-1E+10	1	-1E+10	1
4902554	29	C	11/20/2021	21:57	-136.373	49.282	0	1405.30	0	2.4840	0	34.4740	0	27.519	0	1388.659	0	-1e10	8	-1e10	8	-1E+10	1	-1E+10	1	-1E+10	1	-1E+10	1	-1E+10	1	-1E+10	1
4902554	29	C	11/20/2021	21:57	-136.373	49.282	0	1415.00	0	2.4750	0	34.4760	0	27.521	0	1398.212	0	-1e10	8	-1e10	8	-1E+10	1	-1E+10	1	-1E+10	1	-1E+10	1	-1E+10	1	-1E+10	1
4902554	29	C	11/20/2021	21:57	-136.373	49.282	0	1425.40	0	2.4650	0	34.4780	0	27.524	0	1408.453	0	-1e10	8	-1e10	8	-1E+10	1	-1E+10	1	-1E+10	1	-1E+10	1	-1E+10	1	-1E+10	1
4902554	29	C	11/20/2021	21:57	-136.373	49.282	0	1435.80	0	2.4580	0	34.4790	0	27.525	0	1418.695	0	-1e10	8	-1e10	8	-1E+10	1	-1E+10	1	-1E+10	1	-1E+10	1	-1E+10	1	-1E+10	1
4902554	29	C	11/20/2021	21:57	-136.373	49.282	0	1445.80	0	2.4420	0	34.4820	0	27.529	0	1428.542	0	-1e10	8	-1e10	8	-1E+10	1	-1E+10	1	-1E+10	1	-1E+10	1	-1E+10	1	-1E+10	1
4902554	29	C	11/20/2021	21:57	-136.373	49.282	0	1455.40	0	2.4280	0	34.4850	0	27.532	0	1437.995	0	-1e10	8	-1e10	8	-1E+10	1	-1E+10	1	-1E+10	1	-1E+10	1	-1E+10	1	-1E+10	1
4902554	29	C	11/20/2021	21:57	-136.373	49.282	0	1465.20	0	2.4170	0	34.4870	0	27.535	0	1447.644	0	-1e10	8	-1e10	8	-1E+10	1	-1E+10	1	-1E+10	1	-1E+10	1	-1E+10	1	-1E+10	1
4902554	29	C	11/20/2021	21:57	-136.373	49.282	0	1475.70	0	2.4040	0	34.4900	0	27.538	0	1457.982	0	-1e10	8	-1e10	8	-1E+10	1	-1E+10	1	-1E+10	1	-1E+10	1	-1E+10	1	-1E+10	1
4902554	29	C	11/20/2021	21:57	-136.373	49.282	0	1485.50	0	2.3920	0	34.4920	0	27.541	0	1467.630	0	-1e10	8	-1e10	8	-1E+10	1	-1E+10	1	-1E+10	1	-1E+10	1	-1E+10	1	-1E+10	1
4902554	29	C	11/20/2021	21:57	-136.373	49.282	0	1495.60	0	2.3800	0	34.4950	0	27.545	0	1477.573	0	-1e10	8	-1e10	8	-1E+10	1	-1E+10	1	-1E+10	1	-1E+10	1	-1E+10	1	-1E+10	1
4902554	29	C	11/20/2021	21:57	-136.373	49.282	0	1505.50	0	2.3660	0	34.4980	0	27.548	0	1487.319	0	-1e10	8	-1e10	8	-1E+10	1	-1E+10	1	-1E+10	1	-1E+10	1	-1E+10	1	-1E+10	1
4902554	29	C	11/20/2021	21:57	-136.373	49.282	0	1515.50	0	2.3510	0	34.5010	0	27.552	0	1497.163	0	-1e10	8	-1e10	8	-1E+10	1	-1E+10	1	-1E+10	1	-1E+10	1	-1E+10	1	-1E+10	1
4902554	29	C	11/20/2021	21:57	-136.373	49.282	0	1525.70	0	2.3400	0	34.5030	0	27.554	0	1507.203	0	-1e10	8	-1e10	8	-1E+10	1	-1E+10	1	-1E+10	1	-1E+10	1	-1E+10	1	-1E+10	1
4902554	29	C	11/20/2021	21:57	-136.373	49.282	0	1535.60	0	2.3330	0	34.5040	0	27.556	0	1516.948	0	-1e10	8	-1e10	8	-1E+10	1	-1E+10	1	-1E+10	1	-1E+10	1	-1E+10	1	-1E+10	1
4902554	29	C	11/20/2021	21:57	-136.373	49.282	0	1545.30	0	2.3200	0	34.5070	0	27.559	0	1526.495	0	-1e10	8	-1e10	8	-1E+10	1	-1E+10	1	-1E+10	1	-1E+10	1	-1E+10	1	-1E+10	1
4902554	29	C	11/20/2021	21:57	-136.373	49.282	0	1555.50	0	2.3110	0	34.5090	0	27.562	0	1536.534	0	-1e10	8	-1e10	8	-1E+10	1	-1E+10	1	-1E+10	1	-1E+10	1	-1E+10	1	-1E+10	1
4902554	29	C	11/20/2021	21:57	-136.373	49.282	0	1565.60	0	2.3010	0	34.5110	0	27.564	0	1546.474	0	-1e10	8	-1e10	8	-1E+10	1	-1E+10	1	-1E+10	1	-1E+10	1	-1E+10	1	-1E+10	1
4902554	29	C	11/20/2021	21:57	-136.373	49.282	0	1575.40	0	2.2890	0	34.5130	0	27.567	0	1556.118	0	-1e10	8	-1e10	8	-1E+10	1	-1E+10	1	-1E+10	1	-1E+10	1	-1E+10	1	-1E+10	1
4902554	29	C	11/20/2021	21:57	-136.373	49.282	0	1585.50	0	2.2770	0	34.5160	0	27.570	0	1566.057	0	-1e10	8	-1e10	8	-1E+10	1	-1E+10	1	-1E+10	1	-1E+10	1	-1E+10	1	-1E+10	1
4902554	29	C	11/20/2021	21:57	-136.373	49.282	0	1595.50	0	2.2690	0	34.5170	0	27.572	0	1575.897	0	-1e10	8	-1e10	8	-1E+10	1	-1E+10	1	-1E+10	1	-1E+10	1	-1E+10	1	-1E+10	1
4902554	29	C	11/20/2021	21:57	-136.373	49.282	0	1605.20	0	2.2630	0	34.5190	0	27.574	0	1585.442	0	-1e10	8	-1e10	8	-1E+10	1	-1E+10	1	-1E+10	1	-1E+10	1	-1E+10	1	-1E+10	1
4902554	29	C	11/20/2021	21:57	-136.373	49.282	0	1615.10	0	2.2530	0	34.5200	0	27.576	0	1595.183	0	-1e10	8	-1e10	8	-1E+10	1	-1E+10	1	-1E+10	1	-1E+10	1	-1E+10	1	-1E+10	1
4902554	29	C	11/20/2021	21:57	-136.373	49.282	0	1625.10	0	2.2420	0	34.5230	0	27.579	0	1605.021	0	-1e10	8	-1e10	8	-1E+10	1	-1E+10	1	-1E+10	1	-1E+10	1	-1E+10	1	-1E+10	1
4902554	29	C	11/20/2021	21:57	-136.373	49.282	0	1635.70	0	2.2330	0	34.5250	0	27.581	0	1615.450	0	-1e10	8	-1e10	8	-1E+10	1	-1E+10	1	-1E+10	1	-1E+10	1	-1E+10	1	-1E+10	1
4902554	29	C	11/20/2021	21:57	-136.373	49.282	0	1645.40	0	2.2250	0	34.5260	0	27.583	0	1624.993	0	-1e10	8	-1e10	8	-1E+10	1	-1E+10	1	-1E+10	1	-1E+10	1	-1E+10	1	-1E+10	1
4902554	29	C	11/20/2021	21:57	-136.373	49.282	0	1655.20	0	2.2160	0	34.5280	0	27.585	0	1634.634	0	-1e10	8	-1e10	8	-1E+10	1	-1E+10	1	-1E+10	1	-1E+10	1	-1E+10	1	-1E+10	1
4902554	29	C	11/20/2021	21:57	-136.373	49.282	0	1665.20	0	2.2080	0	34.5300	0	27.587	0	1644.470	0	-1e10	8	-1e10	8	-1E+10	1	-1E+10	1	-1E+10	1	-1E+10	1	-1E+10	1	-1E+10	1
4902554	29	C	11/20/2021	21:57	-136.373	49.282	0	1675.50	0	2.1990	0	34.5320	0	27.590	0	1654.602	0	-1e10	8	-1e10	8	-1E+10	1	-1E+10	1	-1E+10	1	-1E+10	1	-1E+10	1	-1E+10	1
4902554	29	C	11/20/2021	21:57	-136.373	49.282	0	1685.60	0	2.1910	0	34.5330	0	27.591	0	1664.536	0	-1e10	8	-1e10	8	-1E+10	1	-1E+10	1	-1E+10	1	-1E+10	1	-1E+10	1	-1E+10	1
4902554	29	C	11/20/2021	21:57	-136.373	49.282	0	1695.50	0	2.1800	0	34.5350	0	27.594	0	1674.274	0	-1e10	8	-1e10	8	-1E+10	1	-1E+10	1	-1E+10	1	-1E+10	1	-1E+10	1	-1E+10	1
4902554	29	C	11/20/2021	21:57	-136.373	49.282	0	1705.20	0	2.1750	0	34.5370	0	27.596	0	1683.814	0	-1e10	8	-1e10	8	-1E+10	1	-1E+10	1	-1E+10	1	-1E+10	1	-1E+10	1	-1E+10	1
4902554	29	C	11/20/2021	21:57	-136.373	49.282	0	1715.20	0	2.1690	0	34.5380	0	27.597	0	1693.648	0	-1e10	8	-1e10	8	-1E+10	1	-1E+10	1	-1E+10	1	-1E+10	1	-1E+10	1	-1E+10	1
4902554	29	C	11/20/2021	21:57	-136.373	49.282	0	1725.50	0	2.1620	0	34.5390	0	27.599	0	1703.778	0	-1e10	8	-1e10	8	-1E+10	1	-1E+10	1	-1E+10	1	-1E+10	1	-1E+10	1	-1E+10	1
4902554	29	C	11/20/2021	21:57	-136.373	49.282	0	1735.50	0	2.1520	0	34.5410	0	27.601	0	1713.611	0	-1e10	8	-1e10	8	-1E+10	1	-1E+10	1	-1E+10	1	-1E+10	1	-1E+10	1	-1E+10	1
4902554	29	C	11/20/2021	21:57	-136.373	49.282	0	1745.40	0	2.1400	0	34.5430	0	27.604	0	1723.346	0	-1e10	8	-1e10	8	-1E+10	1	-1E+10	1	-1E+10	1	-1E+10	1	-1E+10	1	-1E+10	1
4902554	29	C	11/20/2021	21:57	-136.373	49.282	0	1755.40	0	2.1350	0	34.5450	0	27.606	0	1733.179	0	-1e10	8	-1e10	8	-1E+10	1	-1E+10	1	-1E+10	1	-1E+10	1	-1E+10	1	-1E+10	1
4902554	29	C	11/20/2021	21:57	-136.373	49.282	0	1765.40	0	2.1310	0	34.5460	0	27.607	0	1743.012	0	-1e10	8	-1e10	8	-1E+10	1	-1E+10	1	-1E+10	1	-1E+10	1	-1E+10	1	-1E+10	1
4902554	29	C	11/20/2021	21:57	-136.373	49.282	0	1775.20	0	2.1250	0	34.5470	0	27.608	0	1752.647	0	-1e10	8	-1e10	8	-1E+10	1	-1E+10	1	-1E+10	1	-1E+10	1	-1E+10	1	-1E+10	1
4902554	29	C	11/20/2021	21:57	-136.373	49.282	0	1785.00	0	2.1170	0	34.5480	0	27.610	0	1762.282	0	-1e10	8	-1e10	8	-1E+10	1	-1E+10	1	-1E+10	1	-1E+10	1	-1E+10	1	-1E+10	1
4902554	29	C	11/20/2021	21:57	-136.373	49.282	0	1795.00	0	2.1090	0	34.5500	0	27.612	0	1772.113	0	-1e10	8	-1e10	8	-1E+10	1	-1E+10	1	-1E+10	1	-1E+10	1	-1E+10	1	-1E+10	1
4902554	29	C	11/20/2021	21:57	-136.373	49.282	0	1805.10	0	2.1060	0	34.5510	0	27.613	0	1782.042	0	-1e10	8	-1e10	8	-1E+10	1	-1E+10	1	-1E+10	1	-1E+10	1	-1E+10	1	-1E+10	1
4902554	29	C	11/20/2021	21:57	-136.373	49.282	0	1815.30	0	2.1000	0	34.5520	0	27.615	0	1792.069	0	-1e10	8	-1e10	8	-1E+10	1	-1E+10	1	-1E+10	1	-1E+10	1	-1E+10	1	-1E+10	1
4902554	29	C	11/20/2021	21:57	-136.373	49.282	0	1825.50	0	2.0920	0	34.5530	0	27.616	0	1802.095	0	-1e10	8	-1e10	8	-1E+10	1	-1E+10	1	-1E+10	1	-1E+10	1	-1E+10	1	-1E+10	1
4902554	29	C	11/20/2021	21:57	-136.373	49.282	0	1835.50	0	2.0850	0	34.5550	0	27.618	0	1811.924	0	-1e10	8	-1e10	8	-1E+10	1	-1E+10	1	-1E+10	1	-1E+10	1	-1E+10	1	-1E+10	1
4902554	29	C	11/20/2021	21:57	-136.373	49.282	0	1845.40	0	2.0780	0	34.5560	0	27.620	0	1821.654	0	-1e10	8	-1e10	8	-1E+10	1	-1E+10	1	-1E+10	1	-1E+10	1	-1E+10	1	-1E+10	1
4902554	29	C	11/20/2021	21:57	-136.373	49.282	0	1855.60	0	2.0760	0	34.5570	0	27.621	0	1831.679	0	-1e10	8	-1e10	8	-1E+10	1	-1E+10	1	-1E+10	1	-1E+10	1	-1E+10	1	-1E+10	1
4902554	29	C	11/20/2021	21:57	-136.373	49.282	0	1865.30	0	2.0700	0	34.5580	0	27.622	0	1841.212	0	-1e10	8	-1e10	8	-1E+10	1	-1E+10	1	-1E+10	1	-1E+10	1	-1E+10	1	-1E+10	1
4902554	29	C	11/20/2021	21:57	-136.373	49.282	0	1875.20	0	2.0630	0	34.5600	0	27.624	0	1850.941	0	-1e10	8	-1e10	8	-1E+10	1	-1E+10	1	-1E+10	1	-1E+10	1	-1E+10	1	-1E+10	1
4902554	29	C	11/20/2021	21:57	-136.373	49.282	0	1885.10	0	2.0570	0	34.5610	0	27.626	0	1860.670	0	-1e10	8	-1e10	8	-1E+10	1	-1E+10	1	-1E+10	1	-1E+10	1	-1E+10	1	-1E+10	1
4902554	29	C	11/20/2021	21:57	-136.373	49.282	0	1895.10	0	2.0510	0	34.5620	0	27.627	0	1870.496	0	-1e10	8	-1e10	8	-1E+10	1	-1E+10	1	-1E+10	1	-1E+10	1	-1E+10	1	-1E+10	1
4902554	29	C	11/20/2021	21:57	-136.373	49.282	0	1905.10	0	2.0480	0	34.5630	0	27.628	0	1880.322	0	-1e10	8	-1e10	8	-1E+10	1	-1E+10	1	-1E+10	1	-1E+10	1	-1E+10	1	-1E+10	1
4902554	29	C	11/20/2021	21:57	-136.373	49.282	0	1915.20	0	2.0430	0	34.5640	0	27.629	0	1890.246	0	-1e10	8	-1e10	8	-1E+10	1	-1E+10	1	-1E+10	1	-1E+10	1	-1E+10	1	-1E+10	1
4902554	29	C	11/20/2021	21:57	-136.373	49.282	0	1925.50	0	2.0350	0	34.5650	0	27.631	0	1900.366	0	-1e10	8	-1e10	8	-1E+10	1	-1E+10	1	-1E+10	1	-1E+10	1	-1E+10	1	-1E+10	1
4902554	29	C	11/20/2021	21:57	-136.373	49.282	0	1935.30	0	2.0240	0	34.5670	0	27.633	0	1909.994	0	-1e10	8	-1e10	8	-1E+10	1	-1E+10	1	-1E+10	1	-1E+10	1	-1E+10	1	-1E+10	1
4902554	29	C	11/20/2021	21:57	-136.373	49.282	0	1945.20	0	2.0140	0	34.5700	0	27.636	0	1919.720	0	-1e10	8	-1e10	8	-1E+10	1	-1E+10	1	-1E+10	1	-1E+10	1	-1E+10	1	-1E+10	1
4902554	29	C	11/20/2021	21:57	-136.373	49.282	0	1955.60	0	2.0080	0	34.5710	0	27.638	0	1929.937	0	-1e10	8	-1e10	8	-1E+10	1	-1E+10	1	-1E+10	1	-1E+10	1	-1E+10	1	-1E+10	1
4902554	29	C	11/20/2021	21:57	-136.373	49.282	0	1965.50	0	2.0040	0	34.5720	0	27.639	0	1939.662	0	-1e10	8	-1e10	8	-1E+10	1	-1E+10	1	-1E+10	1	-1E+10	1	-1E+10	1	-1E+10	1
4902554	29	C	11/20/2021	21:57	-136.373	49.282	0	1975.60	0	1.9950	0	34.5730	0	27.640	0	1949.583	0	-1e10	8	-1e10	8	-1E+10	1	-1E+10	1	-1E+10	1	-1E+10	1	-1E+10	1	-1E+10	1
4902554	29	C	11/20/2021	21:57	-136.373	49.282	0	1980.90	0	1.9930	0	34.5740	0	27.641	0	1954.789	0	-1e10	8	-1e10	8	-1E+10	1	-1E+10	1	-1E+10	1	-1E+10	1	-1E+10	1	-1E+10	1
4902554	29	C	11/20/2021	21:57	-136.373	49.282	0																										
4902554	30	C	12/01/2021	02:56	-136.282	49.372	0	0.20	0	8.5810	0	32.2930	0	25.063	0	0.198	0	-1e10	8	-1e10	8	-1E+10	1	-1E+10	1	-1E+10	1	-1E+10	1	-1E+10	1	-1E+10	1
4902554	30	C	12/01/2021	02:56	-136.282	49.372	0	0.80	0	8.5820	0	32.2920	0	25.062	0	0.793	0	-1e10	8	-1e10	8	-1E+10	1	-1E+10	1	-1E+10	1	-1E+10	1	-1E+10	1	-1E+10	1
4902554	30	C	12/01/2021	02:56	-136.282	49.372	0	1.90	0	8.5830	0	32.2910	0	25.061	0	1.884	0	-1e10	8	-1e10	8	-1E+10	1	-1E+10	1	-1E+10	1	-1E+10	1	-1E+10	1	-1E+10	1
4902554	30	C	12/01/2021	02:56	-136.282	49.372	0	3.00	0	8.5830	0	32.2900	0	25.061	0	2.974	0	-1e10	8	-1e10	8	-1E+10	1	-1E+10	1	-1E+10	1	-1E+10	1	-1E+10	1	-1E+10	1
4902554	30	C	12/01/2021	02:56	-136.282	49.372	0	3.90	0	8.5830	0	32.2910	0	25.061	0	3.867	0	-1e10	8	-1e10	8	-1E+10	1	-1E+10	1	-1E+10	1	-1E+10	1	-1E+10	1	-1E+10	1
4902554	30	C	12/01/2021	02:56	-136.282	49.372	0	5.00	0	8.5830	0	32.2920	0	25.062	0	4.957	0	-1e10	8	-1e10	8	-1E+10	1	-1E+10	1	-1E+10	1	-1E+10	1	-1E+10	1	-1E+10	1
4902554	30	C	12/01/2021	02:56	-136.282	49.372	0	6.10	0	8.5830	0	32.2930	0	25.063	0	6.048	0	-1e10	8	-1e10	8	-1E+10	1	-1E+10	1	-1E+10	1	-1E+10	1	-1E+10	1	-1E+10	1
4902554	30	C	12/01/2021	02:56	-136.282	49.372	0	6.90	0	8.5830	0	32.2920	0	25.062	0	6.841	0	-1e10	8	-1e10	8	-1E+10	1	-1E+10	1	-1E+10	1	-1E+10	1	-1E+10	1	-1E+10	1
4902554	30	C	12/01/2021	02:56	-136.282	49.372	0	8.00	0	8.5830	0	32.2930	0	25.063	0	7.932	0	-1e10	8	-1e10	8	-1E+10	1	-1E+10	1	-1E+10	1	-1E+10	1	-1E+10	1	-1E+10	1
4902554	30	C	12/01/2021	02:56	-136.282	49.372	0	9.20	0	8.5830	0	32.2920	0	25.062	0	9.121	0	-1e10	8	-1e10	8	-1E+10	1	-1E+10	1	-1E+10	1	-1E+10	1	-1E+10	1	-1E+10	1
4902554	30	C	12/01/2021	02:56	-136.282	49.372	0	10.20	0	8.5840	0	32.2930	0	25.063	0	10.113	0	-1e10	8	-1e10	8	-1E+10	1	-1E+10	1	-1E+10	1	-1E+10	1	-1E+10	1	-1E+10	1
4902554	30	C	12/01/2021	02:56	-136.282	49.372	0	11.10	0	8.5860	0	32.2940	0	25.063	0	11.005	0	-1e10	8	-1e10	8	-1E+10	1	-1E+10	1	-1E+10	1	-1E+10	1	-1E+10	1	-1E+10	1
4902554	30	C	12/01/2021	02:56	-136.282	49.372	0	11.80	0	8.5860	0	32.2930	0	25.063	0	11.699	0	-1e10	8	-1e10	8	-1E+10	1	-1E+10	1	-1E+10	1	-1E+10	1	-1E+10	1	-1E+10	1
4902554	30	C	12/01/2021	02:56	-136.282	49.372	0	12.80	0	8.5850	0	32.2930	0	25.063	0	12.691	0	-1e10	8	-1e10	8	-1E+10	1	-1E+10	1	-1E+10	1	-1E+10	1	-1E+10	1	-1E+10	1
4902554	30	C	12/01/2021	02:56	-136.282	49.372	0	14.00	0	8.5860	0	32.2930	0	25.063	0	13.880	0	-1e10	8	-1e10	8	-1E+10	1	-1E+10	1	-1E+10	1	-1E+10	1	-1E+10	1	-1E+10	1
4902554	30	C	12/01/2021	02:56	-136.282	49.372	0	14.80	0	8.5850	0	32.2930	0	25.063	0	14.673	0	-1e10	8	-1e10	8	-1E+10	1	-1E+10	1	-1E+10	1	-1E+10	1	-1E+10	1	-1E+10	1
4902554	30	C	12/01/2021	02:56	-136.282	49.372	0	15.80	0	8.5860	0	32.2930	0	25.063	0	15.665	0	-1e10	8	-1e10	8	-1E+10	1	-1E+10	1	-1E+10	1	-1E+10	1	-1E+10	1	-1E+10	1
4902554	30	C	12/01/2021	02:56	-136.282	49.372	0	16.70	0	8.5860	0	32.2930	0	25.063	0	16.557	0	-1e10	8	-1e10	8	-1E+10	1	-1E+10	1	-1E+10	1	-1E+10	1	-1E+10	1	-1E+10	1
4902554	30	C	12/01/2021	02:56	-136.282	49.372	0	17.80	0	8.5860	0	32.2940	0	25.064	0	17.648	0	-1e10	8	-1e10	8	-1E+10	1	-1E+10	1	-1E+10	1	-1E+10	1	-1E+10	1	-1E+10	1
4902554	30	C	12/01/2021	02:56	-136.282	49.372	0	18.80	0	8.5860	0	32.2940	0	25.064	0	18.639	0	-1e10	8	-1e10	8	-1E+10	1	-1E+10	1	-1E+10	1	-1E+10	1	-1E+10	1	-1E+10	1
4902554	30	C	12/01/2021	02:56	-136.282	49.372	0	19.80	0	8.5860	0	32.2940	0	25.064	0	19.630	0	-1e10	8	-1e10	8	-1E+10	1	-1E+10	1	-1E+10	1	-1E+10	1	-1E+10	1	-1E+10	1
4902554	30	C	12/01/2021	02:56	-136.282	49.372	0	20.90	0	8.5870	0	32.2940	0	25.063	0	20.721	0	-1e10	8	-1e10	8	-1E+10	1	-1E+10	1	-1E+10	1	-1E+10	1	-1E+10	1	-1E+10	1
4902554	30	C	12/01/2021	02:56	-136.282	49.372	0	22.00	0	8.5870	0	32.2940	0	25.063	0	21.811	0	-1e10	8	-1e10	8	-1E+10	1	-1E+10	1	-1E+10	1	-1E+10	1	-1E+10	1	-1E+10	1
4902554	30	C	12/01/2021	02:56	-136.282	49.372	0	22.90	0	8.5870	0	32.2940	0	25.063	0	22.704	0	-1e10	8	-1e10	8	-1E+10	1	-1E+10	1	-1E+10	1	-1E+10	1	-1E+10	1	-1E+10	1
4902554	30	C	12/01/2021	02:56	-136.282	49.372	0	23.80	0	8.5870	0	32.2940	0	25.064	0	23.596	0	-1e10	8	-1e10	8	-1E+10	1	-1E+10	1	-1E+10	1	-1E+10	1	-1E+10	1	-1E+10	1
4902554	30	C	12/01/2021	02:56	-136.282	49.372	0	25.00	0	8.5870	0	32.2930	0	25.063	0	24.786	0	-1e10	8	-1e10	8	-1E+10	1	-1E+10	1	-1E+10	1	-1E+10	1	-1E+10	1	-1E+10	1
4902554	30	C	12/01/2021	02:56	-136.282	49.372	0	26.00	0	8.5880	0	32.2940	0	25.063	0	25.777	0	-1e10	8	-1e10	8	-1E+10	1	-1E+10	1	-1E+10	1	-1E+10	1	-1E+10	1	-1E+10	1
4902554	30	C	12/01/2021	02:56	-136.282	49.372	0	27.00	0	8.5880	0	32.2940	0	25.063	0	26.768	0	-1e10	8	-1e10	8	-1E+10	1	-1E+10	1	-1E+10	1	-1E+10	1	-1E+10	1	-1E+10	1
4902554	30	C	12/01/2021	02:56	-136.282	49.372	0	28.00	0	8.5880	0	32.2940	0	25.063	0	27.760	0	-1e10	8	-1e10	8	-1E+10	1	-1E+10	1	-1E+10	1	-1E+10	1	-1E+10	1	-1E+10	1
4902554	30	C	12/01/2021	02:56	-136.282	49.372	0	29.00	0	8.5880	0	32.2940	0	25.063	0	28.751	0	-1e10	8	-1e10	8	-1E+10	1	-1E+10	1	-1E+10	1	-1E+10	1	-1E+10	1	-1E+10	1
4902554	30	C	12/01/2021	02:56	-136.282	49.372	0	30.00	0	8.5890	0	32.2940	0	25.063	0	29.742	0	-1e10	8	-1e10	8	-1E+10	1	-1E+10	1	-1E+10	1	-1E+10	1	-1E+10	1	-1E+10	1
4902554	30	C	12/01/2021	02:56	-136.282	49.372	0	31.00	0	8.5890	0	32.2940	0	25.063	0	30.734	0	-1e10	8	-1e10	8	-1E+10	1	-1E+10	1	-1E+10	1	-1E+10	1	-1E+10	1	-1E+10	1
4902554	30	C	12/01/2021	02:56	-136.282	49.372	0	31.90	0	8.5890	0	32.2940	0	25.063	0	31.626	0	-1e10	8	-1e10	8	-1E+10	1	-1E+10	1	-1E+10	1	-1E+10	1	-1E+10	1	-1E+10	1
4902554	30	C	12/01/2021	02:56	-136.282	49.372	0	32.80	0	8.5890	0	32.2940	0	25.063	0	32.518	0	-1e10	8	-1e10	8	-1E+10	1	-1E+10	1	-1E+10	1	-1E+10	1	-1E+10	1	-1E+10	1
4902554	30	C	12/01/2021	02:56	-136.282	49.372	0	34.10	0	8.5890	0	32.2940	0	25.063	0	33.807	0	-1e10	8	-1e10	8	-1E+10	1	-1E+10	1	-1E+10	1	-1E+10	1	-1E+10	1	-1E+10	1
4902554	30	C	12/01/2021	02:56	-136.282	49.372	0	35.10	0	8.5890	0	32.2940	0	25.063	0	34.798	0	-1e10	8	-1e10	8	-1E+10	1	-1E+10	1	-1E+10	1	-1E+10	1	-1E+10	1	-1E+10	1
4902554	30	C	12/01/2021	02:56	-136.282	49.372	0	36.10	0	8.5890	0	32.2940	0	25.063	0	35.789	0	-1e10	8	-1e10	8	-1E+10	1	-1E+10	1	-1E+10	1	-1E+10	1	-1E+10	1	-1E+10	1
4902554	30	C	12/01/2021	02:56	-136.282	49.372	0	37.10	0	8.5890	0	32.2940	0	25.063	0	36.781	0	-1e10	8	-1e10	8	-1E+10	1	-1E+10	1	-1E+10	1	-1E+10	1	-1E+10	1	-1E+10	1
4902554	30	C	12/01/2021	02:56	-136.282	49.372	0	37.80	0	8.5890	0	32.2940	0	25.063	0	37.475	0	-1e10	8	-1e10	8	-1E+10	1	-1E+10	1	-1E+10	1	-1E+10	1	-1E+10	1	-1E+10	1
4902554	30	C	12/01/2021	02:56	-136.282	49.372	0	38.80	0	8.5870	0	32.2940	0	25.064	0	38.466	0	-1e10	8	-1e10	8	-1E+10	1	-1E+10	1	-1E+10	1	-1E+10	1	-1E+10	1	-1E+10	1
4902554	30	C	12/01/2021	02:56	-136.282	49.372	0	40.00	0	8.5870	0	32.2940	0	25.064	0	39.656	0	-1e10	8	-1e10	8	-1E+10	1	-1E+10	1	-1E+10	1	-1E+10	1	-1E+10	1	-1E+10	1
4902554	30	C	12/01/2021	02:56	-136.282	49.372	0	41.00	0	8.5880	0	32.2940	0	25.064	0	40.647	0	-1e10	8	-1e10	8	-1E+10	1	-1E+10	1	-1E+10	1	-1E+10	1	-1E+10	1	-1E+10	1
4902554	30	C	12/01/2021	02:56	-136.282	49.372	0	41.90	0	8.5870	0	32.2940	0	25.064	0	41.539	0	-1e10	8	-1e10	8	-1E+10	1	-1E+10	1	-1E+10	1	-1E+10	1	-1E+10	1	-1E+10	1
4902554	30	C	12/01/2021	02:56	-136.282	49.372	0	43.10	0	8.5900	0	32.2940	0	25.063	0	42.728	0	-1e10	8	-1e10	8	-1E+10	1	-1E+10	1	-1E+10	1	-1E+10	1	-1E+10	1	-1E+10	1
4902554	30	C	12/01/2021	02:56	-136.282	49.372	0	44.00	0	8.5900	0	32.2940	0	25.063	0	43.621	0	-1e10	8	-1e10	8	-1E+10	1	-1E+10	1	-1E+10	1	-1E+10	1	-1E+10	1	-1E+10	1
4902554	30	C	12/01/2021	02:56	-136.282	49.372	0	44.90	0	8.5890	0	32.2940	0	25.064	0	44.513	0	-1e10	8	-1e10	8	-1E+10	1	-1E+10	1	-1E+10	1	-1E+10	1	-1E+10	1	-1E+10	1
4902554	30	C	12/01/2021	02:56	-136.282	49.372	0	46.10	0	8.5890	0	32.2940	0	25.064	0	45.702	0	-1e10	8	-1e10	8	-1E+10	1	-1E+10	1	-1E+10	1	-1E+10	1	-1E+10	1	-1E+10	1
4902554	30	C	12/01/2021	02:56	-136.282	49.372	0	47.00	0	8.5900	0	32.2940	0	25.063	0	46.594	0	-1e10	8	-1e10	8	-1E+10	1	-1E+10	1	-1E+10	1	-1E+10	1	-1E+10	1	-1E+10	1
4902554	30	C	12/01/2021	02:56	-136.282	49.372	0	47.90	0	8.5890	0	32.2950	0	25.064	0	47.487	0	-1e10	8	-1e10	8	-1E+10	1	-1E+10	1	-1E+10	1	-1E+10	1	-1E+10	1	-1E+10	1
4902554	30	C	12/01/2021	02:56	-136.282	49.372	0	48.80	0	8.5900	0	32.2950	0	25.064	0	48.379	0	-1e10	8	-1e10	8	-1E+10	1	-1E+10	1	-1E+10	1	-1E+10	1	-1E+10	1	-1E+10	1
4902554	30	C	12/01/2021	02:56	-136.282	49.372	0	49.80	0	8.5900	0	32.2940	0	25.063	0	49.370	0	-1e10	8	-1e10	8	-1E+10	1	-1E+10	1	-1E+10	1	-1E+10	1	-1E+10	1	-1E+10	1
4902554	30	C	12/01/2021	02:56	-136.282	49.372	0	50.90	0	8.5910	0	32.2940	0	25.063	0	50.460	0	-1e10	8	-1e10	8	-1E+10	1	-1E+10	1	-1E+10	1	-1E+10	1	-1E+10	1	-1E+10	1
4902554	30	C	12/01/2021	02:56	-136.282	49.372	0	51.90	0	8.5900	0	32.2940	0	25.063	0	51.452	0	-1e10	8	-1e10	8	-1E+10	1	-1E+10	1	-1E+10	1	-1E+10	1	-1E+10	1	-1E+10	1
4902554	30	C	12/01/2021	02:56	-136.282	49.372	0	52.90	0	8.5910	0	32.2940	0	25.063	0	52.443	0	-1e10	8	-1e10	8	-1E+10	1	-1E+10	1	-1E+10	1	-1E+10	1	-1E+10	1	-1E+10	1
4902554	30	C	12/01/2021	02:56	-136.282	49.372	0	53.80	0	8.5910	0	32.2940	0	25.063	0	53.335	0	-1e10	8	-1e10	8	-1E+10	1	-1E+10	1	-1E+10	1	-1E+10	1	-1E+10	1	-1E+10	1
4902554	30	C	12/01/2021	02:56	-136.282	49.372	0	55.10	0	8.5910	0	32.2940	0	25.063	0	54.623	0	-1e10	8	-1e10	8	-1E+10	1	-1E+10	1	-1E+10	1	-1E+10	1	-1E+10	1	-1E+10	1
4902554	30	C	12/01/2021	02:56	-136.282	49.372	0	56.00	0	8.5910	0	32.2940	0	25.063	0	55.516	0	-1e10	8	-1e10	8	-1E+10	1	-1E+10	1	-1E+10	1	-1E+10	1	-1E+10	1	-1E+10	1
4902554	30	C	12/01/2021	02:56	-136.282	49.372	0	56.90	0	8.5910	0	32.2940	0	25.063	0	56.408	0	-1e10	8	-1e10	8	-1E+10	1	-1E+10	1	-1E+10	1	-1E+10	1	-1E+10	1	-1E+10	1
4902554	30	C	12/01/2021	02:56	-136.282	49.372	0	57.90	0	8.5890	0	32.2930	0	25.063	0	57.399	0	-1e10	8	-1e10	8	-1E+10	1	-1E+10	1	-1E+10	1	-1E+10	1	-1E+10	1	-1E+10	1
4902554	30	C	12/01/2021	02:56	-136.282	49.372	0	58.90	0	8.5890	0	32.2940	0	25.064	0	58.390	0	-1e10	8	-1e10	8	-1E+10	1	-1E+10	1	-1E+10	1	-1E+10	1	-1E+10	1	-1E+10	1
4902554	30	C	12/01/2021	02:56	-136.282	49.372	0	60.00	0	8.5870	0	32.2950	0	25.065	0	59.480	0	-1e10	8	-1e10	8	-1E+10	1	-1E+10	1	-1E+10	1	-1E+10	1	-1E+10	1	-1E+10	1
4902554	30	C	12/01/2021	02:56	-136.282	49.372	0	60.80	0	8.5880	0	32.2940	0	25.064	0	60.273	0	-1e10	8	-1e10	8	-1E+10	1	-1E+10	1	-1E+10	1	-1E+10	1	-1E+10	1	-1E+10	1
4902554	30	C	12/01/2021	02:56	-136.282	49.372	0	61.80	0	8.5880	0	32.2940	0	25.064	0	61.265	0	-1e10	8	-1e10	8	-1E+10	1	-1E+10	1	-1E+10	1	-1E+10	1	-1E+10	1	-1E+10	1
4902554	30	C	12/01/2021	02:56	-136.282	49.372	0	63.00	0	8.5880	0	32.2940	0	25.064	0	62.454	0	-1e10	8	-1e10	8	-1E+10	1	-1E+10	1	-1E+10	1	-1E+10	1	-1E+10	1	-1E+10	1
4902554	30	C	12/01/2021	02:56	-136.282	49.372	0	63.70	0	8.5850	0	32.2940	0	25.064	0	63.148	0	-1e10	8	-1e10	8	-1E+10	1	-1E+10	1	-1E+10	1	-1E+10	1	-1E+10	1	-1E+10	1
4902554	30	C	12/01/2021	02:56	-136.282	49.372	0	64.80	0	8.5830	0	32.2950	0	25.066	0	64.238	0	-1e10	8	-1e10	8	-1E+10	1	-1E+10	1	-1E+10	1	-1E+10	1	-1E+10	1	-1E+10	1
4902554	30	C	12/01/2021	02:56	-136.282	49.372	0	65.90	0	8.5810	0	32.2950	0	25.066	0	65.328	0	-1e10	8	-1e10	8	-1E+10	1	-1E+10	1	-1E+10	1	-1E+10	1	-1E+10	1	-1E+10	1
4902554	30	C	12/01/2021	02:56	-136.282	49.372	0	67.00	0	8.5790	0	32.2940	0	25.065	0	66.419	0	-1e10	8	-1e10	8	-1E+10	1	-1E+10	1	-1E+10	1	-1E+10	1	-1E+10	1	-1E+10	1
4902554	30	C	12/01/2021	02:56	-136.282	49.372	0	68.20	0	8.5780	0	32.2950	0	25.066	0	67.608	0	-1e10	8	-1e10	8	-1E+10	1	-1E+10	1	-1E+10	1	-1E+10	1	-1E+10	1	-1E+10	1
4902554	30	C	12/01/2021	02:56	-136.282	49.372	0	68.90	0	8.5770	0	32.2960	0	25.067	0	68.302	0	-1e10	8	-1e10	8	-1E+10	1	-1E+10	1	-1E+10	1	-1E+10	1	-1E+10	1	-1E+10	1
4902554	30	C	12/01/2021	02:56	-136.282	49.372	0	69.70	0	8.5750	0	32.2950	0	25.067	0	69.095	0	-1e10	8	-1e10	8	-1E+10	1	-1E+10	1	-1E+10	1	-1E+10	1	-1E+10	1	-1E+10	1
4902554	30	C	12/01/2021	02:56	-136.282	49.372	0	70.80	0	8.5670	0	32.2960	0	25.069	0	70.185	0	-1e10	8	-1e10	8	-1E+10	1	-1E+10	1	-1E+10	1	-1E+10	1	-1E+10	1	-1E+10	1
4902554	30	C	12/01/2021	02:56	-136.282	49.372	0	72.00	0	8.5610	0	32.2970	0	25.070	0	71.374	0	-1e10	8	-1e10	8	-1E+10	1	-1E+10	1	-1E+10	1	-1E+10	1	-1E+10	1	-1E+10	1
4902554	30	C	12/01/2021	02:56	-136.282	49.372	0	73.00	0	8.5570	0	32.2960	0	25.070	0	72.366	0	-1e10	8	-1e10	8	-1E+10	1	-1E+10	1	-1E+10	1	-1E+10	1	-1E+10	1	-1E+10	1
4902554	30	C	12/01/2021	02:56	-136.282	49.372	0	74.10	0	8.5540	0	32.2970	0	25.072	0	73.456	0	-1e10	8	-1e10	8	-1E+10	1	-1E+10	1	-1E+10	1	-1E+10	1	-1E+10	1	-1E+10	1
4902554	30	C	12/01/2021	02:56	-136.282	49.372	0	74.80	0	8.5540	0	32.2960	0	25.071	0	74.150	0	-1e10	8	-1e10	8	-1E+10	1	-1E+10	1	-1E+10	1	-1E+10	1	-1E+10	1	-1E+10	1
4902554	30	C	12/01/2021	02:56	-136.282	49.372	0	75.80	0	8.5490	0	32.2980	0	25.073	0	75.141	0	-1e10	8	-1e10	8	-1E+10	1	-1E+10	1	-1E+10	1	-1E+10	1	-1E+10	1	-1E+10	1
4902554	30	C	12/01/2021	02:56	-136.282	49.372	0	76.90	0	8.5420	0	32.2980	0	25.074	0	76.231	0	-1e10	8	-1e10	8	-1E+10	1	-1E+10	1	-1E+10	1	-1E+10	1	-1E+10	1	-1E+10	1
4902554	30	C	12/01/2021	02:56	-136.282	49.372	0	77.90	0	8.5360	0	32.2960	0	25.074	0	77.222	0	-1e10	8	-1e10	8	-1E+10	1	-1E+10	1	-1E+10	1	-1E+10	1	-1E+10	1	-1E+10	1
4902554	30	C	12/01/2021	02:56	-136.282	49.372	0	79.00	0	8.5020	0	32.2990	0	25.081	0	78.312	0	-1e10	8	-1e10	8	-1E+10	1	-1E+10	1	-1E+10	1	-1E+10	1	-1E+10	1	-1E+10	1
4902554	30	C	12/01/2021	02:56	-136.282	49.372	0	80.00	0	8.4310	0	32.3010	0	25.093	0	79.303	0	-1e10	8	-1e10	8	-1E+10	1	-1E+10	1	-1E+10	1	-1E+10	1	-1E+10	1	-1E+10	1
4902554	30	C	12/01/2021	02:56	-136.282	49.372	0	80.90	0	8.2740	0	32.3110	0	25.124	0	80.195	0	-1e10	8	-1e10	8	-1E+10	1	-1E+10	1	-1E+10	1	-1E+10	1	-1E+10	1	-1E+10	1
4902554	30	C	12/01/2021	02:56	-136.282	49.372	0	82.00	0	7.8860	0	32.3540	0	25.214	0	81.286	0	-1e10	8	-1e10	8	-1E+10	1	-1E+10	1	-1E+10	1	-1E+10	1	-1E+10	1	-1E+10	1
4902554	30	C	12/01/2021	02:56	-136.282	49.372	0	83.20	0	7.4370	0	32.3980	0	25.312	0	82.475	0	-1e10	8	-1e10	8	-1E+10	1	-1E+10	1	-1E+10	1	-1E+10	1	-1E+10	1	-1E+10	1
4902554	30	C	12/01/2021	02:56	-136.282	49.372	0	84.10	0	7.3470	0	32.4060	0	25.330	0	83.367	0	-1e10	8	-1e10	8	-1E+10	1	-1E+10	1	-1E+10	1	-1E+10	1	-1E+10	1	-1E+10	1
4902554	30	C	12/01/2021	02:56	-136.282	49.372	0	85.00	0	7.1700	0	32.4310	0	25.374	0	84.259	0	-1e10	8	-1e10	8	-1E+10	1	-1E+10	1	-1E+10	1	-1E+10	1	-1E+10	1	-1E+10	1
4902554	30	C	12/01/2021	02:56	-136.282	49.372	0	85.90	0	7.0320	0	32.4460	0	25.404	0	85.151	0	-1e10	8	-1e10	8	-1E+10	1	-1E+10	1	-1E+10	1	-1E+10	1	-1E+10	1	-1E+10	1
4902554	30	C	12/01/2021	02:56	-136.282	49.372	0	87.10	0	6.8790	0	32.4550	0	25.432	0	86.340	0	-1e10	8	-1e10	8	-1E+10	1	-1E+10	1	-1E+10	1	-1E+10	1	-1E+10	1	-1E+10	1
4902554	30	C	12/01/2021	02:56	-136.282	49.372	0	88.00	0	6.8580	0	32.4560	0	25.435	0	87.232	0	-1e10	8	-1e10	8	-1E+10	1	-1E+10	1	-1E+10	1	-1E+10	1	-1E+10	1	-1E+10	1
4902554	30	C	12/01/2021	02:56	-136.282	49.372	0	89.10	0	6.7660	0	32.4680	0	25.457	0	88.322	0	-1e10	8	-1e10	8	-1E+10	1	-1E+10	1	-1E+10	1	-1E+10	1	-1E+10	1	-1E+10	1
4902554	30	C	12/01/2021	02:56	-136.282	49.372	0	89.90	0	6.6000	0	32.4790	0	25.487	0	89.115	0	-1e10	8	-1e10	8	-1E+10	1	-1E+10	1	-1E+10	1	-1E+10	1	-1E+10	1	-1E+10	1
4902554	30	C	12/01/2021	02:56	-136.282	49.372	0	90.80	0	6.4660	0	32.4980	0	25.519	0	90.007	0	-1e10	8	-1e10	8	-1E+10	1	-1E+10	1	-1E+10	1	-1E+10	1	-1E+10	1	-1E+10	1
4902554	30	C	12/01/2021	02:56	-136.282	49.372	0	91.80	0	6.3640	0	32.5140	0	25.545	0	90.998	0	-1e10	8	-1e10	8	-1E+10	1	-1E+10	1	-1E+10	1	-1E+10	1	-1E+10	1	-1E+10	1
4902554	30	C	12/01/2021	02:56	-136.282	49.372	0	92.80	0	6.2500	0	32.5320	0	25.573	0	91.989	0	-1e10	8	-1e10	8	-1E+10	1	-1E+10	1	-1E+10	1	-1E+10	1	-1E+10	1	-1E+10	1
4902554	30	C	12/01/2021	02:56	-136.282	49.372	0	93.80	0	6.2330	0	32.5310	0	25.574	0	92.980	0	-1e10	8	-1e10	8	-1E+10	1	-1E+10	1	-1E+10	1	-1E+10	1	-1E+10	1	-1E+10	1
4902554	30	C	12/01/2021	02:56	-136.282	49.372	0	94.90	0	6.2190	0	32.5340	0	25.579	0	94.070	0	-1e10	8	-1e10	8	-1E+10	1	-1E+10	1	-1E+10	1	-1E+10	1	-1E+10	1	-1E+10	1
4902554	30	C	12/01/2021	02:56	-136.282	49.372	0	95.90	0	6.2090	0	32.5380	0	25.583	0	95.061	0	-1e10	8	-1e10	8	-1E+10	1	-1E+10	1	-1E+10	1	-1E+10	1	-1E+10	1	-1E+10	1
4902554	30	C	12/01/2021	02:56	-136.282	49.372	0	97.10	0	6.1970	0	32.5440	0	25.589	0	96.250	0	-1e10	8	-1e10	8	-1E+10	1	-1E+10	1	-1E+10	1	-1E+10	1	-1E+10	1	-1E+10	1
4902554	30	C	12/01/2021	02:56	-136.282	49.372	0	97.90	0	6.1860	0	32.5500	0	25.595	0	97.043	0	-1e10	8	-1e10	8	-1E+10	1	-1E+10	1	-1E+10	1	-1E+10	1	-1E+10	1	-1E+10	1
4902554	30	C	12/01/2021	02:56	-136.282	49.372	0	99.10	0	6.1560	0	32.5830	0	25.625	0	98.232	0	-1e10	8	-1e10	8	-1E+10	1	-1E+10	1	-1E+10	1	-1E+10	1	-1E+10	1	-1E+10	1
4902554	30	C	12/01/2021	02:56	-136.282	49.372	0	100.00	0	6.1700	0	32.6040	0	25.640	0	99.124	0	-1e10	8	-1e10	8	-1E+10	1	-1E+10	1	-1E+10	1	-1E+10	1	-1E+10	1	-1E+10	1
4902554	30	C	12/01/2021	02:56	-136.282	49.372	0	101.10	0	6.1490	0	32.6430	0	25.673	0	100.214	0	-1e10	8	-1e10	8	-1E+10	1	-1E+10	1	-1E+10	1	-1E+10	1	-1E+10	1	-1E+10	1
4902554	30	C	12/01/2021	02:56	-136.282	49.372	0	102.00	0	6.1310	0	32.6560	0	25.686	0	101.106	0	-1e10	8	-1e10	8	-1E+10	1	-1E+10	1	-1E+10	1	-1E+10	1	-1E+10	1	-1E+10	1
4902554	30	C	12/01/2021	02:56	-136.282	49.372	0	103.10	0	6.1190	0	32.6680	0	25.697	0	102.196	0	-1e10	8	-1e10	8	-1E+10	1	-1E+10	1	-1E+10	1	-1E+10	1	-1E+10	1	-1E+10	1
4902554	30	C	12/01/2021	02:56	-136.282	49.372	0	104.00	0	6.1090	0	32.6800	0	25.708	0	103.088	0	-1e10	8	-1e10	8	-1E+10	1	-1E+10	1	-1E+10	1	-1E+10	1	-1E+10	1	-1E+10	1
4902554	30	C	12/01/2021	02:56	-136.282	49.372	0	104.70	0	6.1030	0	32.7250	0	25.744	0	103.782	0	-1e10	8	-1e10	8	-1E+10	1	-1E+10	1	-1E+10	1	-1E+10	1	-1E+10	1	-1E+10	1
4902554	30	C	12/01/2021	02:56	-136.282	49.372	0	105.90	0	6.1020	0	32.7570	0	25.769	0	104.971	0	-1e10	8	-1e10	8	-1E+10	1	-1E+10	1	-1E+10	1	-1E+10	1	-1E+10	1	-1E+10	1
4902554	30	C	12/01/2021	02:56	-136.282	49.372	0	107.30	0	6.0990	0	32.7970	0	25.801	0	106.359	0	-1e10	8	-1e10	8	-1E+10	1	-1E+10	1	-1E+10	1	-1E+10	1	-1E+10	1	-1E+10	1
4902554	30	C	12/01/2021	02:56	-136.282	49.372	0	108.20	0	6.1010	0	32.8110	0	25.812	0	107.250	0	-1e10	8	-1e10	8	-1E+10	1	-1E+10	1	-1E+10	1	-1E+10	1	-1E+10	1	-1E+10	1
4902554	30	C	12/01/2021	02:56	-136.282	49.372	0	109.10	0	6.0860	0	32.8430	0	25.839	0	108.142	0	-1e10	8	-1e10	8	-1E+10	1	-1E+10	1	-1E+10	1	-1E+10	1	-1E+10	1	-1E+10	1
4902554	30	C	12/01/2021	02:56	-136.282	49.372	0	109.80	0	6.0790	0	32.8780	0	25.868	0	108.836	0	-1e10	8	-1e10	8	-1E+10	1	-1E+10	1	-1E+10	1	-1E+10	1	-1E+10	1	-1E+10	1
4902554	30	C	12/01/2021	02:56	-136.282	49.372	0	110.90	0	6.0700	0	32.9190	0	25.901	0	109.926	0	-1e10	8	-1e10	8	-1E+10	1	-1E+10	1	-1E+10	1	-1E+10	1	-1E+10	1	-1E+10	1
4902554	30	C	12/01/2021	02:56	-136.282	49.372	0	112.10	0	6.0440	0	32.9650	0	25.941	0	111.115	0	-1e10	8	-1e10	8	-1E+10	1	-1E+10	1	-1E+10	1	-1E+10	1	-1E+10	1	-1E+10	1
4902554	30	C	12/01/2021	02:56	-136.282	49.372	0	112.90	0	6.0180	0	32.9840	0	25.959	0	111.908	0	-1e10	8	-1e10	8	-1E+10	1	-1E+10	1	-1E+10	1	-1E+10	1	-1E+10	1	-1E+10	1
4902554	30	C	12/01/2021	02:56	-136.282	49.372	0	113.90	0	6.0070	0	32.9920	0	25.967	0	112.899	0	-1e10	8	-1e10	8	-1E+10	1	-1E+10	1	-1E+10	1	-1E+10	1	-1E+10	1	-1E+10	1
4902554	30	C	12/01/2021	02:56	-136.282	49.372	0	114.90	0	5.9970	0	33.0550	0	26.018	0	113.890	0	-1e10	8	-1e10	8	-1E+10	1	-1E+10	1	-1E+10	1	-1E+10	1	-1E+10	1	-1E+10	1
4902554	30	C	12/01/2021	02:56	-136.282	49.372	0	115.80	0	6.0080	0	33.0740	0	26.031	0	114.782	0	-1e10	8	-1e10	8	-1E+10	1	-1E+10	1	-1E+10	1	-1E+10	1	-1E+10	1	-1E+10	1
4902554	30	C	12/01/2021	02:56	-136.282	49.372	0	116.90	0	6.0030	0	33.0940	0	26.048	0	115.872	0	-1e10	8	-1e10	8	-1E+10	1	-1E+10	1	-1E+10	1	-1E+10	1	-1E+10	1	-1E+10	1
4902554	30	C	12/01/2021	02:56	-136.282	49.372	0	117.90	0	5.9950	0	33.1100	0	26.061	0	116.863	0	-1e10	8	-1e10	8	-1E+10	1	-1E+10	1	-1E+10	1	-1E+10	1	-1E+10	1	-1E+10	1
4902554	30	C	12/01/2021	02:56	-136.282	49.372	0	118.90	0	5.9830	0	33.1240	0	26.074	0	117.853	0	-1e10	8	-1e10	8	-1E+10	1	-1E+10	1	-1E+10	1	-1E+10	1	-1E+10	1	-1E+10	1
4902554	30	C	12/01/2021	02:56	-136.282	49.372	0	119.90	0	5.9630	0	33.1330	0	26.083	0	118.844	0	-1e10	8	-1e10	8	-1E+10	1	-1E+10	1	-1E+10	1	-1E+10	1	-1E+10	1	-1E+10	1
4902554	30	C	12/01/2021	02:56	-136.282	49.372	0	121.10	0	5.9590	0	33.1590	0	26.104	0	120.033	0	-1e10	8	-1e10	8	-1E+10	1	-1E+10	1	-1E+10	1	-1E+10	1	-1E+10	1	-1E+10	1
4902554	30	C	12/01/2021	02:56	-136.282	49.372	0	121.90	0	5.9750	0	33.1890	0	26.126	0	120.826	0	-1e10	8	-1e10	8	-1E+10	1	-1E+10	1	-1E+10	1	-1E+10	1	-1E+10	1	-1E+10	1
4902554	30	C	12/01/2021	02:56	-136.282	49.372	0	123.00	0	5.9790	0	33.2030	0	26.137	0	121.916	0	-1e10	8	-1e10	8	-1E+10	1	-1E+10	1	-1E+10	1	-1E+10	1	-1E+10	1	-1E+10	1
4902554	30	C	12/01/2021	02:56	-136.282	49.372	0	124.20	0	5.9820	0	33.2120	0	26.144	0	123.105	0	-1e10	8	-1e10	8	-1E+10	1	-1E+10	1	-1E+10	1	-1E+10	1	-1E+10	1	-1E+10	1
4902554	30	C	12/01/2021	02:56	-136.282	49.372	0	125.00	0	5.9840	0	33.2260	0	26.154	0	123.898	0	-1e10	8	-1e10	8	-1E+10	1	-1E+10	1	-1E+10	1	-1E+10	1	-1E+10	1	-1E+10	1
4902554	30	C	12/01/2021	02:56	-136.282	49.372	0	125.70	0	5.9850	0	33.2330	0	26.160	0	124.592	0	-1e10	8	-1e10	8	-1E+10	1	-1E+10	1	-1E+10	1	-1E+10	1	-1E+10	1	-1E+10	1
4902554	30	C	12/01/2021	02:56	-136.282	49.372	0	126.90	0	5.9950	0	33.2710	0	26.189	0	125.781	0	-1e10	8	-1e10	8	-1E+10	1	-1E+10	1	-1E+10	1	-1E+10	1	-1E+10	1	-1E+10	1
4902554	30	C	12/01/2021	02:56	-136.282	49.372	0	128.20	0	6.0000	0	33.3060	0	26.216	0	127.069	0	-1e10	8	-1e10	8	-1E+10	1	-1E+10	1	-1E+10	1	-1E+10	1	-1E+10	1	-1E+10	1
4902554	30	C	12/01/2021	02:56	-136.282	49.372	0	129.10	0	6.0130	0	33.3450	0	26.245	0	127.961	0	-1e10	8	-1e10	8	-1E+10	1	-1E+10	1	-1E+10	1	-1E+10	1	-1E+10	1	-1E+10	1
4902554	30	C	12/01/2021	02:56	-136.282	49.372	0	129.90	0	6.0250	0	33.3610	0	26.256	0	128.753	0	-1e10	8	-1e10	8	-1E+10	1	-1E+10	1	-1E+10	1	-1E+10	1	-1E+10	1	-1E+10	1
4902554	30	C	12/01/2021	02:56	-136.282	49.372	0	130.80	0	6.0580	0	33.3850	0	26.271	0	129.645	0	-1e10	8	-1e10	8	-1E+10	1	-1E+10	1	-1E+10	1	-1E+10	1	-1E+10	1	-1E+10	1
4902554	30	C	12/01/2021	02:56	-136.282	49.372	0	131.70	0	6.0970	0	33.4180	0	26.292	0	130.537	0	-1e10	8	-1e10	8	-1E+10	1	-1E+10	1	-1E+10	1	-1E+10	1	-1E+10	1	-1E+10	1
4902554	30	C	12/01/2021	02:56	-136.282	49.372	0	132.60	0	6.0420	0	33.4380	0	26.315	0	131.429	0	-1e10	8	-1e10	8	-1E+10	1	-1E+10	1	-1E+10	1	-1E+10	1	-1E+10	1	-1E+10	1
4902554	30	C	12/01/2021	02:56	-136.282	49.372	0	133.50	0	6.0230	0	33.4630	0	26.337	0	132.320	0	-1e10	8	-1e10	8	-1E+10	1	-1E+10	1	-1E+10	1	-1E+10	1	-1E+10	1	-1E+10	1
4902554	30	C	12/01/2021	02:56	-136.282	49.372	0	134.50	0	6.0050	0	33.4740	0	26.348	0	133.311	0	-1e10	8	-1e10	8	-1E+10	1	-1E+10	1	-1E+10	1	-1E+10	1	-1E+10	1	-1E+10	1
4902554	30	C	12/01/2021	02:56	-136.282	49.372	0	135.90	0	5.9930	0	33.4960	0	26.367	0	134.698	0	-1e10	8	-1e10	8	-1E+10	1	-1E+10	1	-1E+10	1	-1E+10	1	-1E+10	1	-1E+10	1
4902554	30	C	12/01/2021	02:56	-136.282	49.372	0	137.40	0	5.9860	0	33.5230	0	26.389	0	136.185	0	-1e10	8	-1e10	8	-1E+10	1	-1E+10	1	-1E+10	1	-1E+10	1	-1E+10	1	-1E+10	1
4902554	30	C	12/01/2021	02:56	-136.282	49.372	0	138.50	0	5.9890	0	33.5320	0	26.396	0	137.274	0	-1e10	8	-1e10	8	-1E+10	1	-1E+10	1	-1E+10	1	-1E+10	1	-1E+10	1	-1E+10	1
4902554	30	C	12/01/2021	02:56	-136.282	49.372	0	139.50	0	5.9920	0	33.5360	0	26.398	0	138.265	0	-1e10	8	-1e10	8	-1E+10	1	-1E+10	1	-1E+10	1	-1E+10	1	-1E+10	1	-1E+10	1
4902554	30	C	12/01/2021	02:56	-136.282	49.372	0	140.50	0	5.9980	0	33.5450	0	26.405	0	139.256	0	-1e10	8	-1e10	8	-1E+10	1	-1E+10	1	-1E+10	1	-1E+10	1	-1E+10	1	-1E+10	1
4902554	30	C	12/01/2021	02:56	-136.282	49.372	0	141.90	0	5.9990	0	33.5510	0	26.409	0	140.643	0	-1e10	8	-1e10	8	-1E+10	1	-1E+10	1	-1E+10	1	-1E+10	1	-1E+10	1	-1E+10	1
4902554	30	C	12/01/2021	02:56	-136.282	49.372	0	143.40	0	6.0050	0	33.5640	0	26.419	0	142.129	0	-1e10	8	-1e10	8	-1E+10	1	-1E+10	1	-1E+10	1	-1E+10	1	-1E+10	1	-1E+10	1
4902554	30	C	12/01/2021	02:56	-136.282	49.372	0	144.40	0	6.0030	0	33.5690	0	26.423	0	143.120	0	-1e10	8	-1e10	8	-1E+10	1	-1E+10	1	-1E+10	1	-1E+10	1	-1E+10	1	-1E+10	1
4902554	30	C	12/01/2021	02:56	-136.282	49.372	0	145.40	0	6.0090	0	33.5730	0	26.426	0	144.111	0	-1e10	8	-1e10	8	-1E+10	1	-1E+10	1	-1E+10	1	-1E+10	1	-1E+10	1	-1E+10	1
4902554	30	C	12/01/2021	02:56	-136.282	49.372	0	146.40	0	5.9730	0	33.5930	0	26.446	0	145.102	0	-1e10	8	-1e10	8	-1E+10	1	-1E+10	1	-1E+10	1	-1E+10	1	-1E+10	1	-1E+10	1
4902554	30	C	12/01/2021	02:56	-136.282	49.372	0	147.40	0	5.9440	0	33.6130	0	26.465	0	146.093	0	-1e10	8	-1e10	8	-1E+10	1	-1E+10	1	-1E+10	1	-1E+10	1	-1E+10	1	-1E+10	1
4902554	30	C	12/01/2021	02:56	-136.282	49.372	0	148.40	0	5.9590	0	33.6280	0	26.475	0	147.083	0	-1e10	8	-1e10	8	-1E+10	1	-1E+10	1	-1E+10	1	-1E+10	1	-1E+10	1	-1E+10	1
4902554	30	C	12/01/2021	02:56	-136.282	49.372	0	149.40	0	5.9580	0	33.6300	0	26.477	0	148.074	0	-1e10	8	-1e10	8	-1E+10	1	-1E+10	1	-1E+10	1	-1E+10	1	-1E+10	1	-1E+10	1
4902554	30	C	12/01/2021	02:56	-136.282	49.372	0	150.40	0	5.9610	0	33.6470	0	26.490	0	149.065	0	-1e10	8	-1e10	8	-1E+10	1	-1E+10	1	-1E+10	1	-1E+10	1	-1E+10	1	-1E+10	1
4902554	30	C	12/01/2021	02:56	-136.282	49.372	0	151.50	0	5.9600	0	33.6650	0	26.504	0	150.155	0	-1e10	8	-1e10	8	-1E+10	1	-1E+10	1	-1E+10	1	-1E+10	1	-1E+10	1	-1E+10	1
4902554	30	C	12/01/2021	02:56	-136.282	49.372	0	152.50	0	5.9450	0	33.6670	0	26.508	0	151.145	0	-1e10	8	-1e10	8	-1E+10	1	-1E+10	1	-1E+10	1	-1E+10	1	-1E+10	1	-1E+10	1
4902554	30	C	12/01/2021	02:56	-136.282	49.372	0	153.50	0	5.9360	0	33.6830	0	26.522	0	152.136	0	-1e10	8	-1e10	8	-1E+10	1	-1E+10	1	-1E+10	1	-1E+10	1	-1E+10	1	-1E+10	1
4902554	30	C	12/01/2021	02:56	-136.282	49.372	0	154.60	0	5.9060	0	33.6910	0	26.532	0	153.226	0	-1e10	8	-1e10	8	-1E+10	1	-1E+10	1	-1E+10	1	-1E+10	1	-1E+10	1	-1E+10	1
4902554	30	C	12/01/2021	02:56	-136.282	49.372	0	155.60	0	5.9040	0	33.7060	0	26.544	0	154.217	0	-1e10	8	-1e10	8	-1E+10	1	-1E+10	1	-1E+10	1	-1E+10	1	-1E+10	1	-1E+10	1
4902554	30	C	12/01/2021	02:56	-136.282	49.372	0	156.60	0	5.8990	0	33.7070	0	26.545	0	155.208	0	-1e10	8	-1e10	8	-1E+10	1	-1E+10	1	-1E+10	1	-1E+10	1	-1E+10	1	-1E+10	1
4902554	30	C	12/01/2021	02:56	-136.282	49.372	0	157.60	0	5.8820	0	33.7150	0	26.554	0	156.198	0	-1e10	8	-1e10	8	-1E+10	1	-1E+10	1	-1E+10	1	-1E+10	1	-1E+10	1	-1E+10	1
4902554	30	C	12/01/2021	02:56	-136.282	49.372	0	158.50	0	5.8780	0	33.7180	0	26.557	0	157.090	0	-1e10	8	-1e10	8	-1E+10	1	-1E+10	1	-1E+10	1	-1E+10	1	-1E+10	1	-1E+10	1
4902554	30	C	12/01/2021	02:56	-136.282	49.372	0	159.90	0	5.8470	0	33.7210	0	26.563	0	158.477	0	-1e10	8	-1e10	8	-1E+10	1	-1E+10	1	-1E+10	1	-1E+10	1	-1E+10	1	-1E+10	1
4902554	30	C	12/01/2021	02:56	-136.282	49.372	0	161.10	0	5.8100	0	33.7210	0	26.567	0	159.666	0	-1e10	8	-1e10	8	-1E+10	1	-1E+10	1	-1E+10	1	-1E+10	1	-1E+10	1	-1E+10	1
4902554	30	C	12/01/2021	02:56	-136.282	49.372	0	161.80	0	5.7840	0	33.7230	0	26.572	0	160.359	0	-1e10	8	-1e10	8	-1E+10	1	-1E+10	1	-1E+10	1	-1E+10	1	-1E+10	1	-1E+10	1
4902554	30	C	12/01/2021	02:56	-136.282	49.372	0	163.00	0	5.7210	0	33.7170	0	26.575	0	161.548	0	-1e10	8	-1e10	8	-1E+10	1	-1E+10	1	-1E+10	1	-1E+10	1	-1E+10	1	-1E+10	1
4902554	30	C	12/01/2021	02:56	-136.282	49.372	0	164.20	0	5.6980	0	33.7200	0	26.580	0	162.737	0	-1e10	8	-1e10	8	-1E+10	1	-1E+10	1	-1E+10	1	-1E+10	1	-1E+10	1	-1E+10	1
4902554	30	C	12/01/2021	02:56	-136.282	49.372	0	165.00	0	5.6750	0	33.7220	0	26.585	0	163.529	0	-1e10	8	-1e10	8	-1E+10	1	-1E+10	1	-1E+10	1	-1E+10	1	-1E+10	1	-1E+10	1
4902554	30	C	12/01/2021	02:56	-136.282	49.372	0	165.80	0	5.6760	0	33.7250	0	26.587	0	164.322	0	-1e10	8	-1e10	8	-1E+10	1	-1E+10	1	-1E+10	1	-1E+10	1	-1E+10	1	-1E+10	1
4902554	30	C	12/01/2021	02:56	-136.282	49.372	0	167.00	0	5.6430	0	33.7250	0	26.591	0	165.511	0	-1e10	8	-1e10	8	-1E+10	1	-1E+10	1	-1E+10	1	-1E+10	1	-1E+10	1	-1E+10	1
4902554	30	C	12/01/2021	02:56	-136.282	49.372	0	168.30	0	5.6390	0	33.7300	0	26.595	0	166.799	0	-1e10	8	-1e10	8	-1E+10	1	-1E+10	1	-1E+10	1	-1E+10	1	-1E+10	1	-1E+10	1
4902554	30	C	12/01/2021	02:56	-136.282	49.372	0	169.10	0	5.6350	0	33.7340	0	26.599	0	167.591	0	-1e10	8	-1e10	8	-1E+10	1	-1E+10	1	-1E+10	1	-1E+10	1	-1E+10	1	-1E+10	1
4902554	30	C	12/01/2021	02:56	-136.282	49.372	0	169.90	0	5.6290	0	33.7360	0	26.601	0	168.384	0	-1e10	8	-1e10	8	-1E+10	1	-1E+10	1	-1E+10	1	-1E+10	1	-1E+10	1	-1E+10	1
4902554	30	C	12/01/2021	02:56	-136.282	49.372	0	170.80	0	5.6230	0	33.7360	0	26.602	0	169.275	0	-1e10	8	-1e10	8	-1E+10	1	-1E+10	1	-1E+10	1	-1E+10	1	-1E+10	1	-1E+10	1
4902554	30	C	12/01/2021	02:56	-136.282	49.372	0	171.60	0	5.6180	0	33.7360	0	26.603	0	170.068	0	-1e10	8	-1e10	8	-1E+10	1	-1E+10	1	-1E+10	1	-1E+10	1	-1E+10	1	-1E+10	1
4902554	30	C	12/01/2021	02:56	-136.282	49.372	0	172.90	0	5.5950	0	33.7410	0	26.609	0	171.356	0	-1e10	8	-1e10	8	-1E+10	1	-1E+10	1	-1E+10	1	-1E+10	1	-1E+10	1	-1E+10	1
4902554	30	C	12/01/2021	02:56	-136.282	49.372	0	174.30	0	5.5620	0	33.7420	0	26.614	0	172.743	0	-1e10	8	-1e10	8	-1E+10	1	-1E+10	1	-1E+10	1	-1E+10	1	-1E+10	1	-1E+10	1
4902554	30	C	12/01/2021	02:56	-136.282	49.372	0	175.10	0	5.5370	0	33.7450	0	26.619	0	173.535	0	-1e10	8	-1e10	8	-1E+10	1	-1E+10	1	-1E+10	1	-1E+10	1	-1E+10	1	-1E+10	1
4902554	30	C	12/01/2021	02:56	-136.282	49.372	0	176.00	0	5.5150	0	33.7410	0	26.619	0	174.427	0	-1e10	8	-1e10	8	-1E+10	1	-1E+10	1	-1E+10	1	-1E+10	1	-1E+10	1	-1E+10	1
4902554	30	C	12/01/2021	02:56	-136.282	49.372	0	176.90	0	5.5130	0	33.7420	0	26.620	0	175.318	0	-1e10	8	-1e10	8	-1E+10	1	-1E+10	1	-1E+10	1	-1E+10	1	-1E+10	1	-1E+10	1
4902554	30	C	12/01/2021	02:56	-136.282	49.372	0	177.80	0	5.5150	0	33.7420	0	26.620	0	176.210	0	-1e10	8	-1e10	8	-1E+10	1	-1E+10	1	-1E+10	1	-1E+10	1	-1E+10	1	-1E+10	1
4902554	30	C	12/01/2021	02:56	-136.282	49.372	0	178.70	0	5.5150	0	33.7420	0	26.620	0	177.102	0	-1e10	8	-1e10	8	-1E+10	1	-1E+10	1	-1E+10	1	-1E+10	1	-1E+10	1	-1E+10	1
4902554	30	C	12/01/2021	02:56	-136.282	49.372	0	179.60	0	5.5120	0	33.7430	0	26.621	0	177.993	0	-1e10	8	-1e10	8	-1E+10	1	-1E+10	1	-1E+10	1	-1E+10	1	-1E+10	1	-1E+10	1
4902554	30	C	12/01/2021	02:56	-136.282	49.372	0	180.90	0	5.4900	0	33.7450	0	26.625	0	179.281	0	-1e10	8	-1e10	8	-1E+10	1	-1E+10	1	-1E+10	1	-1E+10	1	-1E+10	1	-1E+10	1
4902554	30	C	12/01/2021	02:56	-136.282	49.372	0	182.30	0	5.4820	0	33.7450	0	26.626	0	180.668	0	-1e10	8	-1e10	8	-1E+10	1	-1E+10	1	-1E+10	1	-1E+10	1	-1E+10	1	-1E+10	1
4902554	30	C	12/01/2021	02:56	-136.282	49.372	0	183.20	0	5.4840	0	33.7460	0	26.627	0	181.559	0	-1e10	8	-1e10	8	-1E+10	1	-1E+10	1	-1E+10	1	-1E+10	1	-1E+10	1	-1E+10	1
4902554	30	C	12/01/2021	02:56	-136.282	49.372	0	184.10	0	5.4730	0	33.7530	0	26.634	0	182.451	0	-1e10	8	-1e10	8	-1E+10	1	-1E+10	1	-1E+10	1	-1E+10	1	-1E+10	1	-1E+10	1
4902554	30	C	12/01/2021	02:56	-136.282	49.372	0	185.00	0	5.4680	0	33.7570	0	26.637	0	183.342	0	-1e10	8	-1e10	8	-1E+10	1	-1E+10	1	-1E+10	1	-1E+10	1	-1E+10	1	-1E+10	1
4902554	30	C	12/01/2021	02:56	-136.282	49.372	0	185.90	0	5.4640	0	33.7540	0	26.635	0	184.234	0	-1e10	8	-1e10	8	-1E+10	1	-1E+10	1	-1E+10	1	-1E+10	1	-1E+10	1	-1E+10	1
4902554	30	C	12/01/2021	02:56	-136.282	49.372	0	186.90	0	5.4600	0	33.7540	0	26.636	0	185.224	0	-1e10	8	-1e10	8	-1E+10	1	-1E+10	1	-1E+10	1	-1E+10	1	-1E+10	1	-1E+10	1
4902554	30	C	12/01/2021	02:56	-136.282	49.372	0	187.80	0	5.4320	0	33.7560	0	26.641	0	186.116	0	-1e10	8	-1e10	8	-1E+10	1	-1E+10	1	-1E+10	1	-1E+10	1	-1E+10	1	-1E+10	1
4902554	30	C	12/01/2021	02:56	-136.282	49.372	0	188.70	0	5.4190	0	33.7550	0	26.642	0	187.008	0	-1e10	8	-1e10	8	-1E+10	1	-1E+10	1	-1E+10	1	-1E+10	1	-1E+10	1	-1E+10	1
4902554	30	C	12/01/2021	02:56	-136.282	49.372	0	189.70	0	5.3730	0	33.7600	0	26.651	0	187.998	0	-1e10	8	-1e10	8	-1E+10	1	-1E+10	1	-1E+10	1	-1E+10	1	-1E+10	1	-1E+10	1
4902554	30	C	12/01/2021	02:56	-136.282	49.372	0	190.60	0	5.3500	0	33.7610	0	26.654	0	188.890	0	-1e10	8	-1e10	8	-1E+10	1	-1E+10	1	-1E+10	1	-1E+10	1	-1E+10	1	-1E+10	1
4902554	30	C	12/01/2021	02:56	-136.282	49.372	0	191.60	0	5.3540	0	33.7640	0	26.656	0	189.880	0	-1e10	8	-1e10	8	-1E+10	1	-1E+10	1	-1E+10	1	-1E+10	1	-1E+10	1	-1E+10	1
4902554	30	C	12/01/2021	02:56	-136.282	49.372	0	192.50	0	5.3570	0	33.7660	0	26.658	0	190.772	0	-1e10	8	-1e10	8	-1E+10	1	-1E+10	1	-1E+10	1	-1E+10	1	-1E+10	1	-1E+10	1
4902554	30	C	12/01/2021	02:56	-136.282	49.372	0	193.90	0	5.3390	0	33.7700	0	26.663	0	192.158	0	-1e10	8	-1e10	8	-1E+10	1	-1E+10	1	-1E+10	1	-1E+10	1	-1E+10	1	-1E+10	1
4902554	30	C	12/01/2021	02:56	-136.282	49.372	0	195.40	0	5.3240	0	33.7730	0	26.667	0	193.644	0	-1e10	8	-1e10	8	-1E+10	1	-1E+10	1	-1E+10	1	-1E+10	1	-1E+10	1	-1E+10	1
4902554	30	C	12/01/2021	02:56	-136.282	49.372	0	196.40	0	5.3220	0	33.7760	0	26.670	0	194.635	0	-1e10	8	-1e10	8	-1E+10	1	-1E+10	1	-1E+10	1	-1E+10	1	-1E+10	1	-1E+10	1
4902554	30	C	12/01/2021	02:56	-136.282	49.372	0	197.30	0	5.3140	0	33.7760	0	26.671	0	195.526	0	-1e10	8	-1e10	8	-1E+10	1	-1E+10	1	-1E+10	1	-1E+10	1	-1E+10	1	-1E+10	1
4902554	30	C	12/01/2021	02:56	-136.282	49.372	0	198.30	0	5.3090	0	33.7770	0	26.672	0	196.517	0	-1e10	8	-1e10	8	-1E+10	1	-1E+10	1	-1E+10	1	-1E+10	1	-1E+10	1	-1E+10	1
4902554	30	C	12/01/2021	02:56	-136.282	49.372	0	199.20	0	5.2890	0	33.7800	0	26.677	0	197.408	0	-1e10	8	-1e10	8	-1E+10	1	-1E+10	1	-1E+10	1	-1E+10	1	-1E+10	1	-1E+10	1
4902554	30	C	12/01/2021	02:56	-136.282	49.372	0	200.20	0	5.2850	0	33.7790	0	26.676	0	198.399	0	-1e10	8	-1e10	8	-1E+10	1	-1E+10	1	-1E+10	1	-1E+10	1	-1E+10	1	-1E+10	1
4902554	30	C	12/01/2021	02:56	-136.282	49.372	0	201.20	0	5.2820	0	33.7800	0	26.678	0	199.389	0	-1e10	8	-1e10	8	-1E+10	1	-1E+10	1	-1E+10	1	-1E+10	1	-1E+10	1	-1E+10	1
4902554	30	C	12/01/2021	02:56	-136.282	49.372	0	202.20	0	5.2830	0	33.7810	0	26.678	0	200.380	0	-1e10	8	-1e10	8	-1E+10	1	-1E+10	1	-1E+10	1	-1E+10	1	-1E+10	1	-1E+10	1
4902554	30	C	12/01/2021	02:56	-136.282	49.372	0	203.10	0	5.2860	0	33.7820	0	26.679	0	201.271	0	-1e10	8	-1e10	8	-1E+10	1	-1E+10	1	-1E+10	1	-1E+10	1	-1E+10	1	-1E+10	1
4902554	30	C	12/01/2021	02:56	-136.282	49.372	0	204.10	0	5.2650	0	33.7860	0	26.684	0	202.262	0	-1e10	8	-1e10	8	-1E+10	1	-1E+10	1	-1E+10	1	-1E+10	1	-1E+10	1	-1E+10	1
4902554	30	C	12/01/2021	02:56	-136.282	49.372	0	205.10	0	5.2670	0	33.7890	0	26.686	0	203.252	0	-1e10	8	-1e10	8	-1E+10	1	-1E+10	1	-1E+10	1	-1E+10	1	-1E+10	1	-1E+10	1
4902554	30	C	12/01/2021	02:56	-136.282	49.372	0	206.00	0	5.2820	0	33.7900	0	26.685	0	204.144	0	-1e10	8	-1e10	8	-1E+10	1	-1E+10	1	-1E+10	1	-1E+10	1	-1E+10	1	-1E+10	1
4902554	30	C	12/01/2021	02:56	-136.282	49.372	0	207.00	0	5.2930	0	33.7940	0	26.687	0	205.134	0	-1e10	8	-1e10	8	-1E+10	1	-1E+10	1	-1E+10	1	-1E+10	1	-1E+10	1	-1E+10	1
4902554	30	C	12/01/2021	02:56	-136.282	49.372	0	208.00	0	5.3060	0	33.7970	0	26.688	0	206.125	0	-1e10	8	-1e10	8	-1E+10	1	-1E+10	1	-1E+10	1	-1E+10	1	-1E+10	1	-1E+10	1
4902554	30	C	12/01/2021	02:56	-136.282	49.372	0	209.00	0	5.3080	0	33.8030	0	26.693	0	207.115	0	-1e10	8	-1e10	8	-1E+10	1	-1E+10	1	-1E+10	1	-1E+10	1	-1E+10	1	-1E+10	1
4902554	30	C	12/01/2021	02:56	-136.282	49.372	0	210.00	0	5.2880	0	33.7990	0	26.692	0	208.106	0	-1e10	8	-1e10	8	-1E+10	1	-1E+10	1	-1E+10	1	-1E+10	1	-1E+10	1	-1E+10	1
4902554	30	C	12/01/2021	02:56	-136.282	49.372	0	210.90	0	5.2870	0	33.8040	0	26.696	0	208.997	0	-1e10	8	-1e10	8	-1E+10	1	-1E+10	1	-1E+10	1	-1E+10	1	-1E+10	1	-1E+10	1
4902554	30	C	12/01/2021	02:56	-136.282	49.372	0	211.90	0	5.2870	0	33.8030	0	26.695	0	209.988	0	-1e10	8	-1e10	8	-1E+10	1	-1E+10	1	-1E+10	1	-1E+10	1	-1E+10	1	-1E+10	1
4902554	30	C	12/01/2021	02:56	-136.282	49.372	0	212.90	0	5.2830	0	33.8040	0	26.697	0	210.978	0	-1e10	8	-1e10	8	-1E+10	1	-1E+10	1	-1E+10	1	-1E+10	1	-1E+10	1	-1E+10	1
4902554	30	C	12/01/2021	02:56	-136.282	49.372	0	213.90	0	5.2770	0	33.8040	0	26.697	0	211.969	0	-1e10	8	-1e10	8	-1E+10	1	-1E+10	1	-1E+10	1	-1E+10	1	-1E+10	1	-1E+10	1
4902554	30	C	12/01/2021	02:56	-136.282	49.372	0	214.90	0	5.2770	0	33.8030	0	26.696	0	212.959	0	-1e10	8	-1e10	8	-1E+10	1	-1E+10	1	-1E+10	1	-1E+10	1	-1E+10	1	-1E+10	1
4902554	30	C	12/01/2021	02:56	-136.282	49.372	0	215.90	0	5.2730	0	33.8030	0	26.697	0	213.950	0	-1e10	8	-1e10	8	-1E+10	1	-1E+10	1	-1E+10	1	-1E+10	1	-1E+10	1	-1E+10	1
4902554	30	C	12/01/2021	02:56	-136.282	49.372	0	216.80	0	5.2570	0	33.8050	0	26.700	0	214.841	0	-1e10	8	-1e10	8	-1E+10	1	-1E+10	1	-1E+10	1	-1E+10	1	-1E+10	1	-1E+10	1
4902554	30	C	12/01/2021	02:56	-136.282	49.372	0	217.90	0	5.2400	0	33.8050	0	26.702	0	215.930	0	-1e10	8	-1e10	8	-1E+10	1	-1E+10	1	-1E+10	1	-1E+10	1	-1E+10	1	-1E+10	1
4902554	30	C	12/01/2021	02:56	-136.282	49.372	0	218.80	0	5.2310	0	33.8020	0	26.701	0	216.822	0	-1e10	8	-1e10	8	-1E+10	1	-1E+10	1	-1E+10	1	-1E+10	1	-1E+10	1	-1E+10	1
4902554	30	C	12/01/2021	02:56	-136.282	49.372	0	219.80	0	5.2290	0	33.8020	0	26.701	0	217.812	0	-1e10	8	-1e10	8	-1E+10	1	-1E+10	1	-1E+10	1	-1E+10	1	-1E+10	1	-1E+10	1
4902554	30	C	12/01/2021	02:56	-136.282	49.372	0	220.80	0	5.2090	0	33.8050	0	26.706	0	218.803	0	-1e10	8	-1e10	8	-1E+10	1	-1E+10	1	-1E+10	1	-1E+10	1	-1E+10	1	-1E+10	1
4902554	30	C	12/01/2021	02:56	-136.282	49.372	0	221.80	0	5.1980	0	33.8050	0	26.707	0	219.793	0	-1e10	8	-1e10	8	-1E+10	1	-1E+10	1	-1E+10	1	-1E+10	1	-1E+10	1	-1E+10	1
4902554	30	C	12/01/2021	02:56	-136.282	49.372	0	222.80	0	5.1860	0	33.8070	0	26.710	0	220.784	0	-1e10	8	-1e10	8	-1E+10	1	-1E+10	1	-1E+10	1	-1E+10	1	-1E+10	1	-1E+10	1
4902554	30	C	12/01/2021	02:56	-136.282	49.372	0	223.80	0	5.1690	0	33.8070	0	26.712	0	221.774	0	-1e10	8	-1e10	8	-1E+10	1	-1E+10	1	-1E+10	1	-1E+10	1	-1E+10	1	-1E+10	1
4902554	30	C	12/01/2021	02:56	-136.282	49.372	0	224.70	0	5.1640	0	33.8080	0	26.714	0	222.665	0	-1e10	8	-1e10	8	-1E+10	1	-1E+10	1	-1E+10	1	-1E+10	1	-1E+10	1	-1E+10	1
4902554	30	C	12/01/2021	02:56	-136.282	49.372	0	225.70	0	5.1620	0	33.8070	0	26.713	0	223.656	0	-1e10	8	-1e10	8	-1E+10	1	-1E+10	1	-1E+10	1	-1E+10	1	-1E+10	1	-1E+10	1
4902554	30	C	12/01/2021	02:56	-136.282	49.372	0	226.70	0	5.1550	0	33.8080	0	26.715	0	224.646	0	-1e10	8	-1e10	8	-1E+10	1	-1E+10	1	-1E+10	1	-1E+10	1	-1E+10	1	-1E+10	1
4902554	30	C	12/01/2021	02:56	-136.282	49.372	0	227.60	0	5.1410	0	33.8090	0	26.717	0	225.537	0	-1e10	8	-1e10	8	-1E+10	1	-1E+10	1	-1E+10	1	-1E+10	1	-1E+10	1	-1E+10	1
4902554	30	C	12/01/2021	02:56	-136.282	49.372	0	228.60	0	5.1270	0	33.8100	0	26.719	0	226.528	0	-1e10	8	-1e10	8	-1E+10	1	-1E+10	1	-1E+10	1	-1E+10	1	-1E+10	1	-1E+10	1
4902554	30	C	12/01/2021	02:56	-136.282	49.372	0	229.60	0	5.1140	0	33.8110	0	26.722	0	227.518	0	-1e10	8	-1e10	8	-1E+10	1	-1E+10	1	-1E+10	1	-1E+10	1	-1E+10	1	-1E+10	1
4902554	30	C	12/01/2021	02:56	-136.282	49.372	0	230.50	0	5.1020	0	33.8120	0	26.724	0	228.410	0	-1e10	8	-1e10	8	-1E+10	1	-1E+10	1	-1E+10	1	-1E+10	1	-1E+10	1	-1E+10	1
4902554	30	C	12/01/2021	02:56	-136.282	49.372	0	231.50	0	5.1010	0	33.8120	0	26.724	0	229.400	0	-1e10	8	-1e10	8	-1E+10	1	-1E+10	1	-1E+10	1	-1E+10	1	-1E+10	1	-1E+10	1
4902554	30	C	12/01/2021	02:56	-136.282	49.372	0	232.50	0	5.1000	0	33.8130	0	26.725	0	230.390	0	-1e10	8	-1e10	8	-1E+10	1	-1E+10	1	-1E+10	1	-1E+10	1	-1E+10	1	-1E+10	1
4902554	30	C	12/01/2021	02:56	-136.282	49.372	0	233.50	0	5.0910	0	33.8170	0	26.729	0	231.381	0	-1e10	8	-1e10	8	-1E+10	1	-1E+10	1	-1E+10	1	-1E+10	1	-1E+10	1	-1E+10	1
4902554	30	C	12/01/2021	02:56	-136.282	49.372	0	234.50	0	5.0750	0	33.8160	0	26.730	0	232.371	0	-1e10	8	-1e10	8	-1E+10	1	-1E+10	1	-1E+10	1	-1E+10	1	-1E+10	1	-1E+10	1
4902554	30	C	12/01/2021	02:56	-136.282	49.372	0	235.90	0	5.0700	0	33.8160	0	26.731	0	233.758	0	-1e10	8	-1e10	8	-1E+10	1	-1E+10	1	-1E+10	1	-1E+10	1	-1E+10	1	-1E+10	1
4902554	30	C	12/01/2021	02:56	-136.282	49.372	0	237.40	0	5.0690	0	33.8180	0	26.733	0	235.243	0	-1e10	8	-1e10	8	-1E+10	1	-1E+10	1	-1E+10	1	-1E+10	1	-1E+10	1	-1E+10	1
4902554	30	C	12/01/2021	02:56	-136.282	49.372	0	238.30	0	5.0670	0	33.8180	0	26.733	0	236.134	0	-1e10	8	-1e10	8	-1E+10	1	-1E+10	1	-1E+10	1	-1E+10	1	-1E+10	1	-1E+10	1
4902554	30	C	12/01/2021	02:56	-136.282	49.372	0	239.30	0	5.0470	0	33.8210	0	26.737	0	237.125	0	-1e10	8	-1e10	8	-1E+10	1	-1E+10	1	-1E+10	1	-1E+10	1	-1E+10	1	-1E+10	1
4902554	30	C	12/01/2021	02:56	-136.282	49.372	0	240.20	0	5.0460	0	33.8180	0	26.735	0	238.016	0	-1e10	8	-1e10	8	-1E+10	1	-1E+10	1	-1E+10	1	-1E+10	1	-1E+10	1	-1E+10	1
4902554	30	C	12/01/2021	02:56	-136.282	49.372	0	241.20	0	5.0450	0	33.8190	0	26.736	0	239.006	0	-1e10	8	-1e10	8	-1E+10	1	-1E+10	1	-1E+10	1	-1E+10	1	-1E+10	1	-1E+10	1
4902554	30	C	12/01/2021	02:56	-136.282	49.372	0	242.20	0	5.0410	0	33.8210	0	26.738	0	239.997	0	-1e10	8	-1e10	8	-1E+10	1	-1E+10	1	-1E+10	1	-1E+10	1	-1E+10	1	-1E+10	1
4902554	30	C	12/01/2021	02:56	-136.282	49.372	0	243.10	0	5.0400	0	33.8210	0	26.738	0	240.888	0	-1e10	8	-1e10	8	-1E+10	1	-1E+10	1	-1E+10	1	-1E+10	1	-1E+10	1	-1E+10	1
4902554	30	C	12/01/2021	02:56	-136.282	49.372	0	244.10	0	5.0350	0	33.8220	0	26.740	0	241.878	0	-1e10	8	-1e10	8	-1E+10	1	-1E+10	1	-1E+10	1	-1E+10	1	-1E+10	1	-1E+10	1
4902554	30	C	12/01/2021	02:56	-136.282	49.372	0	245.10	0	5.0280	0	33.8230	0	26.741	0	242.869	0	-1e10	8	-1e10	8	-1E+10	1	-1E+10	1	-1E+10	1	-1E+10	1	-1E+10	1	-1E+10	1
4902554	30	C	12/01/2021	02:56	-136.282	49.372	0	246.00	0	5.0250	0	33.8240	0	26.742	0	243.760	0	-1e10	8	-1e10	8	-1E+10	1	-1E+10	1	-1E+10	1	-1E+10	1	-1E+10	1	-1E+10	1
4902554	30	C	12/01/2021	02:56	-136.282	49.372	0	247.00	0	5.0220	0	33.8240	0	26.743	0	244.750	0	-1e10	8	-1e10	8	-1E+10	1	-1E+10	1	-1E+10	1	-1E+10	1	-1E+10	1	-1E+10	1
4902554	30	C	12/01/2021	02:56	-136.282	49.372	0	248.00	0	5.0220	0	33.8240	0	26.743	0	245.740	0	-1e10	8	-1e10	8	-1E+10	1	-1E+10	1	-1E+10	1	-1E+10	1	-1E+10	1	-1E+10	1
4902554	30	C	12/01/2021	02:56	-136.282	49.372	0	248.90	0	5.0120	0	33.8270	0	26.746	0	246.632	0	-1e10	8	-1e10	8	-1E+10	1	-1E+10	1	-1E+10	1	-1E+10	1	-1E+10	1	-1E+10	1
4902554	30	C	12/01/2021	02:56	-136.282	49.372	0	249.90	0	5.0020	0	33.8280	0	26.748	0	247.622	0	-1e10	8	-1e10	8	-1E+10	1	-1E+10	1	-1E+10	1	-1E+10	1	-1E+10	1	-1E+10	1
4902554	30	C	12/01/2021	02:56	-136.282	49.372	0	250.90	0	4.9990	0	33.8280	0	26.749	0	248.612	0	-1e10	8	-1e10	8	-1E+10	1	-1E+10	1	-1E+10	1	-1E+10	1	-1E+10	1	-1E+10	1
4902554	30	C	12/01/2021	02:56	-136.282	49.372	0	251.80	0	4.9940	0	33.8290	0	26.750	0	249.504	0	-1e10	8	-1e10	8	-1E+10	1	-1E+10	1	-1E+10	1	-1E+10	1	-1E+10	1	-1E+10	1
4902554	30	C	12/01/2021	02:56	-136.282	49.372	0	252.80	0	4.9890	0	33.8300	0	26.751	0	250.494	0	-1e10	8	-1e10	8	-1E+10	1	-1E+10	1	-1E+10	1	-1E+10	1	-1E+10	1	-1E+10	1
4902554	30	C	12/01/2021	02:56	-136.282	49.372	0	253.80	0	4.9860	0	33.8310	0	26.752	0	251.484	0	-1e10	8	-1e10	8	-1E+10	1	-1E+10	1	-1E+10	1	-1E+10	1	-1E+10	1	-1E+10	1
4902554	30	C	12/01/2021	02:56	-136.282	49.372	0	254.70	0	4.9740	0	33.8350	0	26.757	0	252.375	0	-1e10	8	-1e10	8	-1E+10	1	-1E+10	1	-1E+10	1	-1E+10	1	-1E+10	1	-1E+10	1
4902554	30	C	12/01/2021	02:56	-136.282	49.372	0	255.70	0	4.9640	0	33.8370	0	26.760	0	253.366	0	-1e10	8	-1e10	8	-1E+10	1	-1E+10	1	-1E+10	1	-1E+10	1	-1E+10	1	-1E+10	1
4902554	30	C	12/01/2021	02:56	-136.282	49.372	0	256.70	0	4.9470	0	33.8430	0	26.766	0	254.356	0	-1e10	8	-1e10	8	-1E+10	1	-1E+10	1	-1E+10	1	-1E+10	1	-1E+10	1	-1E+10	1
4902554	30	C	12/01/2021	02:56	-136.282	49.372	0	257.70	0	4.9280	0	33.8490	0	26.773	0	255.346	0	-1e10	8	-1e10	8	-1E+10	1	-1E+10	1	-1E+10	1	-1E+10	1	-1E+10	1	-1E+10	1
4902554	30	C	12/01/2021	02:56	-136.282	49.372	0	258.60	0	4.9130	0	33.8520	0	26.777	0	256.237	0	-1e10	8	-1e10	8	-1E+10	1	-1E+10	1	-1E+10	1	-1E+10	1	-1E+10	1	-1E+10	1
4902554	30	C	12/01/2021	02:56	-136.282	49.372	0	259.60	0	4.8990	0	33.8520	0	26.779	0	257.228	0	-1e10	8	-1e10	8	-1E+10	1	-1E+10	1	-1E+10	1	-1E+10	1	-1E+10	1	-1E+10	1
4902554	30	C	12/01/2021	02:56	-136.282	49.372	0	260.60	0	4.8940	0	33.8530	0	26.780	0	258.218	0	-1e10	8	-1e10	8	-1E+10	1	-1E+10	1	-1E+10	1	-1E+10	1	-1E+10	1	-1E+10	1
4902554	30	C	12/01/2021	02:56	-136.282	49.372	0	261.60	0	4.8900	0	33.8560	0	26.783	0	259.208	0	-1e10	8	-1e10	8	-1E+10	1	-1E+10	1	-1E+10	1	-1E+10	1	-1E+10	1	-1E+10	1
4902554	30	C	12/01/2021	02:56	-136.282	49.372	0	262.60	0	4.8880	0	33.8560	0	26.783	0	260.198	0	-1e10	8	-1e10	8	-1E+10	1	-1E+10	1	-1E+10	1	-1E+10	1	-1E+10	1	-1E+10	1
4902554	30	C	12/01/2021	02:56	-136.282	49.372	0	263.60	0	4.8880	0	33.8570	0	26.784	0	261.188	0	-1e10	8	-1e10	8	-1E+10	1	-1E+10	1	-1E+10	1	-1E+10	1	-1E+10	1	-1E+10	1
4902554	30	C	12/01/2021	02:56	-136.282	49.372	0	264.60	0	4.8870	0	33.8580	0	26.785	0	262.179	0	-1e10	8	-1e10	8	-1E+10	1	-1E+10	1	-1E+10	1	-1E+10	1	-1E+10	1	-1E+10	1
4902554	30	C	12/01/2021	02:56	-136.282	49.372	0	265.60	0	4.8880	0	33.8580	0	26.785	0	263.169	0	-1e10	8	-1e10	8	-1E+10	1	-1E+10	1	-1E+10	1	-1E+10	1	-1E+10	1	-1E+10	1
4902554	30	C	12/01/2021	02:56	-136.282	49.372	0	266.60	0	4.8880	0	33.8590	0	26.786	0	264.159	0	-1e10	8	-1e10	8	-1E+10	1	-1E+10	1	-1E+10	1	-1E+10	1	-1E+10	1	-1E+10	1
4902554	30	C	12/01/2021	02:56	-136.282	49.372	0	267.60	0	4.8860	0	33.8600	0	26.787	0	265.149	0	-1e10	8	-1e10	8	-1E+10	1	-1E+10	1	-1E+10	1	-1E+10	1	-1E+10	1	-1E+10	1
4902554	30	C	12/01/2021	02:56	-136.282	49.372	0	268.60	0	4.8850	0	33.8610	0	26.788	0	266.140	0	-1e10	8	-1e10	8	-1E+10	1	-1E+10	1	-1E+10	1	-1E+10	1	-1E+10	1	-1E+10	1
4902554	30	C	12/01/2021	02:56	-136.282	49.372	0	269.70	0	4.8820	0	33.8630	0	26.790	0	267.229	0	-1e10	8	-1e10	8	-1E+10	1	-1E+10	1	-1E+10	1	-1E+10	1	-1E+10	1	-1E+10	1
4902554	30	C	12/01/2021	02:56	-136.282	49.372	0	270.70	0	4.8790	0	33.8630	0	26.790	0	268.219	0	-1e10	8	-1e10	8	-1E+10	1	-1E+10	1	-1E+10	1	-1E+10	1	-1E+10	1	-1E+10	1
4902554	30	C	12/01/2021	02:56	-136.282	49.372	0	271.70	0	4.8740	0	33.8650	0	26.792	0	269.209	0	-1e10	8	-1e10	8	-1E+10	1	-1E+10	1	-1E+10	1	-1E+10	1	-1E+10	1	-1E+10	1
4902554	30	C	12/01/2021	02:56	-136.282	49.372	0	272.70	0	4.8610	0	33.8670	0	26.795	0	270.199	0	-1e10	8	-1e10	8	-1E+10	1	-1E+10	1	-1E+10	1	-1E+10	1	-1E+10	1	-1E+10	1
4902554	30	C	12/01/2021	02:56	-136.282	49.372	0	273.80	0	4.8440	0	33.8700	0	26.799	0	271.288	0	-1e10	8	-1e10	8	-1E+10	1	-1E+10	1	-1E+10	1	-1E+10	1	-1E+10	1	-1E+10	1
4902554	30	C	12/01/2021	02:56	-136.282	49.372	0	274.80	0	4.8350	0	33.8710	0	26.801	0	272.279	0	-1e10	8	-1e10	8	-1E+10	1	-1E+10	1	-1E+10	1	-1E+10	1	-1E+10	1	-1E+10	1
4902554	30	C	12/01/2021	02:56	-136.282	49.372	0	275.80	0	4.8300	0	33.8710	0	26.802	0	273.269	0	-1e10	8	-1e10	8	-1E+10	1	-1E+10	1	-1E+10	1	-1E+10	1	-1E+10	1	-1E+10	1
4902554	30	C	12/01/2021	02:56	-136.282	49.372	0	276.90	0	4.8260	0	33.8720	0	26.803	0	274.358	0	-1e10	8	-1e10	8	-1E+10	1	-1E+10	1	-1E+10	1	-1E+10	1	-1E+10	1	-1E+10	1
4902554	30	C	12/01/2021	02:56	-136.282	49.372	0	277.90	0	4.8250	0	33.8720	0	26.803	0	275.348	0	-1e10	8	-1e10	8	-1E+10	1	-1E+10	1	-1E+10	1	-1E+10	1	-1E+10	1	-1E+10	1
4902554	30	C	12/01/2021	02:56	-136.282	49.372	0	279.00	0	4.8230	0	33.8720	0	26.803	0	276.437	0	-1e10	8	-1e10	8	-1E+10	1	-1E+10	1	-1E+10	1	-1E+10	1	-1E+10	1	-1E+10	1
4902554	30	C	12/01/2021	02:56	-136.282	49.372	0	280.00	0	4.8220	0	33.8720	0	26.804	0	277.427	0	-1e10	8	-1e10	8	-1E+10	1	-1E+10	1	-1E+10	1	-1E+10	1	-1E+10	1	-1E+10	1
4902554	30	C	12/01/2021	02:56	-136.282	49.372	0	281.00	0	4.8190	0	33.8730	0	26.805	0	278.418	0	-1e10	8	-1e10	8	-1E+10	1	-1E+10	1	-1E+10	1	-1E+10	1	-1E+10	1	-1E+10	1
4902554	30	C	12/01/2021	02:56	-136.282	49.372	0	282.10	0	4.8160	0	33.8730	0	26.805	0	279.507	0	-1e10	8	-1e10	8	-1E+10	1	-1E+10	1	-1E+10	1	-1E+10	1	-1E+10	1	-1E+10	1
4902554	30	C	12/01/2021	02:56	-136.282	49.372	0	283.10	0	4.8140	0	33.8740	0	26.806	0	280.497	0	-1e10	8	-1e10	8	-1E+10	1	-1E+10	1	-1E+10	1	-1E+10	1	-1E+10	1	-1E+10	1
4902554	30	C	12/01/2021	02:56	-136.282	49.372	0	284.20	0	4.8120	0	33.8740	0	26.806	0	281.586	0	-1e10	8	-1e10	8	-1E+10	1	-1E+10	1	-1E+10	1	-1E+10	1	-1E+10	1	-1E+10	1
4902554	30	C	12/01/2021	02:56	-136.282	49.372	0	285.20	0	4.8090	0	33.8740	0	26.807	0	282.576	0	-1e10	8	-1e10	8	-1E+10	1	-1E+10	1	-1E+10	1	-1E+10	1	-1E+10	1	-1E+10	1
4902554	30	C	12/01/2021	02:56	-136.282	49.372	0	286.20	0	4.8030	0	33.8760	0	26.809	0	283.566	0	-1e10	8	-1e10	8	-1E+10	1	-1E+10	1	-1E+10	1	-1E+10	1	-1E+10	1	-1E+10	1
4902554	30	C	12/01/2021	02:56	-136.282	49.372	0	287.30	0	4.7950	0	33.8760	0	26.810	0	284.655	0	-1e10	8	-1e10	8	-1E+10	1	-1E+10	1	-1E+10	1	-1E+10	1	-1E+10	1	-1E+10	1
4902554	30	C	12/01/2021	02:56	-136.282	49.372	0	288.30	0	4.7930	0	33.8760	0	26.810	0	285.645	0	-1e10	8	-1e10	8	-1E+10	1	-1E+10	1	-1E+10	1	-1E+10	1	-1E+10	1	-1E+10	1
4902554	30	C	12/01/2021	02:56	-136.282	49.372	0	289.30	0	4.7900	0	33.8750	0	26.810	0	286.636	0	-1e10	8	-1e10	8	-1E+10	1	-1E+10	1	-1E+10	1	-1E+10	1	-1E+10	1	-1E+10	1
4902554	30	C	12/01/2021	02:56	-136.282	49.372	0	290.40	0	4.7850	0	33.8760	0	26.811	0	287.725	0	-1e10	8	-1e10	8	-1E+10	1	-1E+10	1	-1E+10	1	-1E+10	1	-1E+10	1	-1E+10	1
4902554	30	C	12/01/2021	02:56	-136.282	49.372	0	291.40	0	4.7660	0	33.8800	0	26.816	0	288.715	0	-1e10	8	-1e10	8	-1E+10	1	-1E+10	1	-1E+10	1	-1E+10	1	-1E+10	1	-1E+10	1
4902554	30	C	12/01/2021	02:56	-136.282	49.372	0	292.50	0	4.7160	0	33.8780	0	26.820	0	289.804	0	-1e10	8	-1e10	8	-1E+10	1	-1E+10	1	-1E+10	1	-1E+10	1	-1E+10	1	-1E+10	1
4902554	30	C	12/01/2021	02:56	-136.282	49.372	0	293.50	0	4.6700	0	33.8720	0	26.820	0	290.794	0	-1e10	8	-1e10	8	-1E+10	1	-1E+10	1	-1E+10	1	-1E+10	1	-1E+10	1	-1E+10	1
4902554	30	C	12/01/2021	02:56	-136.282	49.372	0	294.50	0	4.6460	0	33.8670	0	26.819	0	291.784	0	-1e10	8	-1e10	8	-1E+10	1	-1E+10	1	-1E+10	1	-1E+10	1	-1E+10	1	-1E+10	1
4902554	30	C	12/01/2021	02:56	-136.282	49.372	0	295.60	0	4.6370	0	33.8680	0	26.821	0	292.873	0	-1e10	8	-1e10	8	-1E+10	1	-1E+10	1	-1E+10	1	-1E+10	1	-1E+10	1	-1E+10	1
4902554	30	C	12/01/2021	02:56	-136.282	49.372	0	296.60	0	4.6340	0	33.8680	0	26.821	0	293.863	0	-1e10	8	-1e10	8	-1E+10	1	-1E+10	1	-1E+10	1	-1E+10	1	-1E+10	1	-1E+10	1
4902554	30	C	12/01/2021	02:56	-136.282	49.372	0	297.70	0	4.6340	0	33.8690	0	26.822	0	294.952	0	-1e10	8	-1e10	8	-1E+10	1	-1E+10	1	-1E+10	1	-1E+10	1	-1E+10	1	-1E+10	1
4902554	30	C	12/01/2021	02:56	-136.282	49.372	0	298.70	0	4.6300	0	33.8710	0	26.824	0	295.942	0	-1e10	8	-1e10	8	-1E+10	1	-1E+10	1	-1E+10	1	-1E+10	1	-1E+10	1	-1E+10	1
4902554	30	C	12/01/2021	02:56	-136.282	49.372	0	299.70	0	4.6460	0	33.8720	0	26.823	0	296.932	0	-1e10	8	-1e10	8	-1E+10	1	-1E+10	1	-1E+10	1	-1E+10	1	-1E+10	1	-1E+10	1
4902554	30	C	12/01/2021	02:56	-136.282	49.372	0	300.80	0	4.6640	0	33.8760	0	26.824	0	298.021	0	-1e10	8	-1e10	8	-1E+10	1	-1E+10	1	-1E+10	1	-1E+10	1	-1E+10	1	-1E+10	1
4902554	30	C	12/01/2021	02:56	-136.282	49.372	0	301.80	0	4.6780	0	33.8780	0	26.824	0	299.011	0	-1e10	8	-1e10	8	-1E+10	1	-1E+10	1	-1E+10	1	-1E+10	1	-1E+10	1	-1E+10	1
4902554	30	C	12/01/2021	02:56	-136.282	49.372	0	302.80	0	4.6780	0	33.8790	0	26.825	0	300.001	0	-1e10	8	-1e10	8	-1E+10	1	-1E+10	1	-1E+10	1	-1E+10	1	-1E+10	1	-1E+10	1
4902554	30	C	12/01/2021	02:56	-136.282	49.372	0	303.90	0	4.6650	0	33.8840	0	26.831	0	301.091	0	-1e10	8	-1e10	8	-1E+10	1	-1E+10	1	-1E+10	1	-1E+10	1	-1E+10	1	-1E+10	1
4902554	30	C	12/01/2021	02:56	-136.282	49.372	0	304.90	0	4.6440	0	33.8810	0	26.830	0	302.081	0	-1e10	8	-1e10	8	-1E+10	1	-1E+10	1	-1E+10	1	-1E+10	1	-1E+10	1	-1E+10	1
4902554	30	C	12/01/2021	02:56	-136.282	49.372	0	305.90	0	4.6180	0	33.8850	0	26.837	0	303.071	0	-1e10	8	-1e10	8	-1E+10	1	-1E+10	1	-1E+10	1	-1E+10	1	-1E+10	1	-1E+10	1
4902554	30	C	12/01/2021	02:56	-136.282	49.372	0	307.00	0	4.6150	0	33.8770	0	26.830	0	304.160	0	-1e10	8	-1e10	8	-1E+10	1	-1E+10	1	-1E+10	1	-1E+10	1	-1E+10	1	-1E+10	1
4902554	30	C	12/01/2021	02:56	-136.282	49.372	0	308.00	0	4.6020	0	33.8760	0	26.831	0	305.150	0	-1e10	8	-1e10	8	-1E+10	1	-1E+10	1	-1E+10	1	-1E+10	1	-1E+10	1	-1E+10	1
4902554	30	C	12/01/2021	02:56	-136.282	49.372	0	308.90	0	4.5950	0	33.8780	0	26.833	0	306.041	0	-1e10	8	-1e10	8	-1E+10	1	-1E+10	1	-1E+10	1	-1E+10	1	-1E+10	1	-1E+10	1
4902554	30	C	12/01/2021	02:56	-136.282	49.372	0	309.90	0	4.5900	0	33.8790	0	26.835	0	307.031	0	-1e10	8	-1e10	8	-1E+10	1	-1E+10	1	-1E+10	1	-1E+10	1	-1E+10	1	-1E+10	1
4902554	30	C	12/01/2021	02:56	-136.282	49.372	0	310.70	0	4.5880	0	33.8800	0	26.836	0	307.823	0	-1e10	8	-1e10	8	-1E+10	1	-1E+10	1	-1E+10	1	-1E+10	1	-1E+10	1	-1E+10	1
4902554	30	C	12/01/2021	02:56	-136.282	49.372	0	311.80	0	4.5750	0	33.8830	0	26.840	0	308.912	0	-1e10	8	-1e10	8	-1E+10	1	-1E+10	1	-1E+10	1	-1E+10	1	-1E+10	1	-1E+10	1
4902554	30	C	12/01/2021	02:56	-136.282	49.372	0	313.00	0	4.5720	0	33.8850	0	26.842	0	310.100	0	-1e10	8	-1e10	8	-1E+10	1	-1E+10	1	-1E+10	1	-1E+10	1	-1E+10	1	-1E+10	1
4902554	30	C	12/01/2021	02:56	-136.282	49.372	0	313.80	0	4.5710	0	33.8850	0	26.842	0	310.892	0	-1e10	8	-1e10	8	-1E+10	1	-1E+10	1	-1E+10	1	-1E+10	1	-1E+10	1	-1E+10	1
4902554	30	C	12/01/2021	02:56	-136.282	49.372	0	315.00	0	4.5680	0	33.8860	0	26.843	0	312.080	0	-1e10	8	-1e10	8	-1E+10	1	-1E+10	1	-1E+10	1	-1E+10	1	-1E+10	1	-1E+10	1
4902554	30	C	12/01/2021	02:56	-136.282	49.372	0	316.20	0	4.5620	0	33.8880	0	26.845	0	313.268	0	-1e10	8	-1e10	8	-1E+10	1	-1E+10	1	-1E+10	1	-1E+10	1	-1E+10	1	-1E+10	1
4902554	30	C	12/01/2021	02:56	-136.282	49.372	0	317.00	0	4.5590	0	33.8890	0	26.846	0	314.059	0	-1e10	8	-1e10	8	-1E+10	1	-1E+10	1	-1E+10	1	-1E+10	1	-1E+10	1	-1E+10	1
4902554	30	C	12/01/2021	02:56	-136.282	49.372	0	317.80	0	4.5570	0	33.8900	0	26.847	0	314.851	0	-1e10	8	-1e10	8	-1E+10	1	-1E+10	1	-1E+10	1	-1E+10	1	-1E+10	1	-1E+10	1
4902554	30	C	12/01/2021	02:56	-136.282	49.372	0	319.00	0	4.5530	0	33.8910	0	26.848	0	316.039	0	-1e10	8	-1e10	8	-1E+10	1	-1E+10	1	-1E+10	1	-1E+10	1	-1E+10	1	-1E+10	1
4902554	30	C	12/01/2021	02:56	-136.282	49.372	0	320.20	0	4.5490	0	33.8930	0	26.850	0	317.227	0	-1e10	8	-1e10	8	-1E+10	1	-1E+10	1	-1E+10	1	-1E+10	1	-1E+10	1	-1E+10	1
4902554	30	C	12/01/2021	02:56	-136.282	49.372	0	320.90	0	4.5460	0	33.8940	0	26.852	0	317.920	0	-1e10	8	-1e10	8	-1E+10	1	-1E+10	1	-1E+10	1	-1E+10	1	-1E+10	1	-1E+10	1
4902554	30	C	12/01/2021	02:56	-136.282	49.372	0	321.70	0	4.5400	0	33.8960	0	26.854	0	318.712	0	-1e10	8	-1e10	8	-1E+10	1	-1E+10	1	-1E+10	1	-1E+10	1	-1E+10	1	-1E+10	1
4902554	30	C	12/01/2021	02:56	-136.282	49.372	0	322.90	0	4.5370	0	33.8960	0	26.854	0	319.900	0	-1e10	8	-1e10	8	-1E+10	1	-1E+10	1	-1E+10	1	-1E+10	1	-1E+10	1	-1E+10	1
4902554	30	C	12/01/2021	02:56	-136.282	49.372	0	324.10	0	4.5340	0	33.8980	0	26.856	0	321.088	0	-1e10	8	-1e10	8	-1E+10	1	-1E+10	1	-1E+10	1	-1E+10	1	-1E+10	1	-1E+10	1
4902554	30	C	12/01/2021	02:56	-136.282	49.372	0	324.90	0	4.5340	0	33.8980	0	26.856	0	321.880	0	-1e10	8	-1e10	8	-1E+10	1	-1E+10	1	-1E+10	1	-1E+10	1	-1E+10	1	-1E+10	1
4902554	30	C	12/01/2021	02:56	-136.282	49.372	0	325.70	0	4.5260	0	33.9030	0	26.861	0	322.672	0	-1e10	8	-1e10	8	-1E+10	1	-1E+10	1	-1E+10	1	-1E+10	1	-1E+10	1	-1E+10	1
4902554	30	C	12/01/2021	02:56	-136.282	49.372	0	326.90	0	4.5200	0	33.9050	0	26.863	0	323.860	0	-1e10	8	-1e10	8	-1E+10	1	-1E+10	1	-1E+10	1	-1E+10	1	-1E+10	1	-1E+10	1
4902554	30	C	12/01/2021	02:56	-136.282	49.372	0	328.10	0	4.5170	0	33.9070	0	26.865	0	325.048	0	-1e10	8	-1e10	8	-1E+10	1	-1E+10	1	-1E+10	1	-1E+10	1	-1E+10	1	-1E+10	1
4902554	30	C	12/01/2021	02:56	-136.282	49.372	0	328.90	0	4.5110	0	33.9100	0	26.868	0	325.840	0	-1e10	8	-1e10	8	-1E+10	1	-1E+10	1	-1E+10	1	-1E+10	1	-1E+10	1	-1E+10	1
4902554	30	C	12/01/2021	02:56	-136.282	49.372	0	329.70	0	4.5040	0	33.9120	0	26.870	0	326.632	0	-1e10	8	-1e10	8	-1E+10	1	-1E+10	1	-1E+10	1	-1E+10	1	-1E+10	1	-1E+10	1
4902554	30	C	12/01/2021	02:56	-136.282	49.372	0	330.90	0	4.5010	0	33.9140	0	26.872	0	327.820	0	-1e10	8	-1e10	8	-1E+10	1	-1E+10	1	-1E+10	1	-1E+10	1	-1E+10	1	-1E+10	1
4902554	30	C	12/01/2021	02:56	-136.282	49.372	0	332.10	0	4.4990	0	33.9150	0	26.873	0	329.007	0	-1e10	8	-1e10	8	-1E+10	1	-1E+10	1	-1E+10	1	-1E+10	1	-1E+10	1	-1E+10	1
4902554	30	C	12/01/2021	02:56	-136.282	49.372	0	332.90	0	4.4990	0	33.9160	0	26.874	0	329.799	0	-1e10	8	-1e10	8	-1E+10	1	-1E+10	1	-1E+10	1	-1E+10	1	-1E+10	1	-1E+10	1
4902554	30	C	12/01/2021	02:56	-136.282	49.372	0	333.70	0	4.4980	0	33.9170	0	26.875	0	330.591	0	-1e10	8	-1e10	8	-1E+10	1	-1E+10	1	-1E+10	1	-1E+10	1	-1E+10	1	-1E+10	1
4902554	30	C	12/01/2021	02:56	-136.282	49.372	0	334.90	0	4.4950	0	33.9190	0	26.877	0	331.779	0	-1e10	8	-1e10	8	-1E+10	1	-1E+10	1	-1E+10	1	-1E+10	1	-1E+10	1	-1E+10	1
4902554	30	C	12/01/2021	02:56	-136.282	49.372	0	336.20	0	4.4950	0	33.9190	0	26.877	0	333.066	0	-1e10	8	-1e10	8	-1E+10	1	-1E+10	1	-1E+10	1	-1E+10	1	-1E+10	1	-1E+10	1
4902554	30	C	12/01/2021	02:56	-136.282	49.372	0	337.00	0	4.4940	0	33.9190	0	26.877	0	333.858	0	-1e10	8	-1e10	8	-1E+10	1	-1E+10	1	-1E+10	1	-1E+10	1	-1E+10	1	-1E+10	1
4902554	30	C	12/01/2021	02:56	-136.282	49.372	0	337.80	0	4.4930	0	33.9200	0	26.878	0	334.650	0	-1e10	8	-1e10	8	-1E+10	1	-1E+10	1	-1E+10	1	-1E+10	1	-1E+10	1	-1E+10	1
4902554	30	C	12/01/2021	02:56	-136.282	49.372	0	338.70	0	4.4910	0	33.9210	0	26.879	0	335.541	0	-1e10	8	-1e10	8	-1E+10	1	-1E+10	1	-1E+10	1	-1E+10	1	-1E+10	1	-1E+10	1
4902554	30	C	12/01/2021	02:56	-136.282	49.372	0	339.90	0	4.4890	0	33.9220	0	26.880	0	336.728	0	-1e10	8	-1e10	8	-1E+10	1	-1E+10	1	-1E+10	1	-1E+10	1	-1E+10	1	-1E+10	1
4902554	30	C	12/01/2021	02:56	-136.282	49.372	0	341.20	0	4.4880	0	33.9230	0	26.881	0	338.015	0	-1e10	8	-1e10	8	-1E+10	1	-1E+10	1	-1E+10	1	-1E+10	1	-1E+10	1	-1E+10	1
4902554	30	C	12/01/2021	02:56	-136.282	49.372	0	342.00	0	4.4880	0	33.9240	0	26.882	0	338.807	0	-1e10	8	-1e10	8	-1E+10	1	-1E+10	1	-1E+10	1	-1E+10	1	-1E+10	1	-1E+10	1
4902554	30	C	12/01/2021	02:56	-136.282	49.372	0	342.80	0	4.4860	0	33.9260	0	26.884	0	339.599	0	-1e10	8	-1e10	8	-1E+10	1	-1E+10	1	-1E+10	1	-1E+10	1	-1E+10	1	-1E+10	1
4902554	30	C	12/01/2021	02:56	-136.282	49.372	0	343.60	0	4.4810	0	33.9290	0	26.887	0	340.391	0	-1e10	8	-1e10	8	-1E+10	1	-1E+10	1	-1E+10	1	-1E+10	1	-1E+10	1	-1E+10	1
4902554	30	C	12/01/2021	02:56	-136.282	49.372	0	344.90	0	4.4770	0	33.9320	0	26.889	0	341.678	0	-1e10	8	-1e10	8	-1E+10	1	-1E+10	1	-1E+10	1	-1E+10	1	-1E+10	1	-1E+10	1
4902554	30	C	12/01/2021	02:56	-136.282	49.372	0	346.10	0	4.4720	0	33.9340	0	26.892	0	342.865	0	-1e10	8	-1e10	8	-1E+10	1	-1E+10	1	-1E+10	1	-1E+10	1	-1E+10	1	-1E+10	1
4902554	30	C	12/01/2021	02:56	-136.282	49.372	0	347.00	0	4.4710	0	33.9370	0	26.894	0	343.756	0	-1e10	8	-1e10	8	-1E+10	1	-1E+10	1	-1E+10	1	-1E+10	1	-1E+10	1	-1E+10	1
4902554	30	C	12/01/2021	02:56	-136.282	49.372	0	347.90	0	4.4700	0	33.9370	0	26.894	0	344.647	0	-1e10	8	-1e10	8	-1E+10	1	-1E+10	1	-1E+10	1	-1E+10	1	-1E+10	1	-1E+10	1
4902554	30	C	12/01/2021	02:56	-136.282	49.372	0	348.70	0	4.4690	0	33.9370	0	26.894	0	345.439	0	-1e10	8	-1e10	8	-1E+10	1	-1E+10	1	-1E+10	1	-1E+10	1	-1E+10	1	-1E+10	1
4902554	30	C	12/01/2021	02:56	-136.282	49.372	0	349.60	0	4.4680	0	33.9380	0	26.895	0	346.330	0	-1e10	8	-1e10	8	-1E+10	1	-1E+10	1	-1E+10	1	-1E+10	1	-1E+10	1	-1E+10	1
4902554	30	C	12/01/2021	02:56	-136.282	49.372	0	352.60	0	4.4690	0	33.9410	0	26.897	0	349.299	0	-1e10	8	-1e10	8	-1E+10	1	-1E+10	1	-1E+10	1	-1E+10	1	-1E+10	1	-1E+10	1
4902554	30	C	12/01/2021	02:56	-136.282	49.372	0	357.90	0	4.4600	0	33.9460	0	26.902	0	354.545	0	-1e10	8	-1e10	8	-1E+10	1	-1E+10	1	-1E+10	1	-1E+10	1	-1E+10	1	-1E+10	1
4902554	30	C	12/01/2021	02:56	-136.282	49.372	0	362.80	0	4.4530	0	33.9540	0	26.910	0	359.395	0	-1e10	8	-1e10	8	-1E+10	1	-1E+10	1	-1E+10	1	-1E+10	1	-1E+10	1	-1E+10	1
4902554	30	C	12/01/2021	02:56	-136.282	49.372	0	367.70	0	4.4390	0	33.9590	0	26.915	0	364.245	0	-1e10	8	-1e10	8	-1E+10	1	-1E+10	1	-1E+10	1	-1E+10	1	-1E+10	1	-1E+10	1
4902554	30	C	12/01/2021	02:56	-136.282	49.372	0	373.00	0	4.4270	0	33.9660	0	26.922	0	369.490	0	-1e10	8	-1e10	8	-1E+10	1	-1E+10	1	-1E+10	1	-1E+10	1	-1E+10	1	-1E+10	1
4902554	30	C	12/01/2021	02:56	-136.282	49.372	0	378.00	0	4.4220	0	33.9740	0	26.929	0	374.439	0	-1e10	8	-1e10	8	-1E+10	1	-1E+10	1	-1E+10	1	-1E+10	1	-1E+10	1	-1E+10	1
4902554	30	C	12/01/2021	02:56	-136.282	49.372	0	383.00	0	4.4090	0	33.9780	0	26.933	0	379.387	0	-1e10	8	-1e10	8	-1E+10	1	-1E+10	1	-1E+10	1	-1E+10	1	-1E+10	1	-1E+10	1
4902554	30	C	12/01/2021	02:56	-136.282	49.372	0	388.10	0	4.3850	0	33.9840	0	26.941	0	384.434	0	-1e10	8	-1e10	8	-1E+10	1	-1E+10	1	-1E+10	1	-1E+10	1	-1E+10	1	-1E+10	1
4902554	30	C	12/01/2021	02:56	-136.282	49.372	0	392.80	0	4.3680	0	33.9900	0	26.947	0	389.085	0	-1e10	8	-1e10	8	-1E+10	1	-1E+10	1	-1E+10	1	-1E+10	1	-1E+10	1	-1E+10	1
4902554	30	C	12/01/2021	02:56	-136.282	49.372	0	397.90	0	4.3550	0	33.9950	0	26.953	0	394.132	0	-1e10	8	-1e10	8	-1E+10	1	-1E+10	1	-1E+10	1	-1E+10	1	-1E+10	1	-1E+10	1
4902554	30	C	12/01/2021	02:56	-136.282	49.372	0	403.00	0	4.3400	0	34.0000	0	26.958	0	399.179	0	-1e10	8	-1e10	8	-1E+10	1	-1E+10	1	-1E+10	1	-1E+10	1	-1E+10	1	-1E+10	1
4902554	30	C	12/01/2021	02:56	-136.282	49.372	0	407.70	0	4.3270	0	34.0080	0	26.966	0	403.830	0	-1e10	8	-1e10	8	-1E+10	1	-1E+10	1	-1E+10	1	-1E+10	1	-1E+10	1	-1E+10	1
4902554	30	C	12/01/2021	02:56	-136.282	49.372	0	412.90	0	4.3150	0	34.0130	0	26.971	0	408.975	0	-1e10	8	-1e10	8	-1E+10	1	-1E+10	1	-1E+10	1	-1E+10	1	-1E+10	1	-1E+10	1
4902554	30	C	12/01/2021	02:56	-136.282	49.372	0	418.10	0	4.3050	0	34.0180	0	26.977	0	414.121	0	-1e10	8	-1e10	8	-1E+10	1	-1E+10	1	-1E+10	1	-1E+10	1	-1E+10	1	-1E+10	1
4902554	30	C	12/01/2021	02:56	-136.282	49.372	0	422.80	0	4.2930	0	34.0220	0	26.981	0	418.771	0	-1e10	8	-1e10	8	-1E+10	1	-1E+10	1	-1E+10	1	-1E+10	1	-1E+10	1	-1E+10	1
4902554	30	C	12/01/2021	02:56	-136.282	49.372	0	427.60	0	4.2820	0	34.0280	0	26.987	0	423.521	0	-1e10	8	-1e10	8	-1E+10	1	-1E+10	1	-1E+10	1	-1E+10	1	-1E+10	1	-1E+10	1
4902554	30	C	12/01/2021	02:56	-136.282	49.372	0	432.90	0	4.2760	0	34.0320	0	26.991	0	428.765	0	-1e10	8	-1e10	8	-1E+10	1	-1E+10	1	-1E+10	1	-1E+10	1	-1E+10	1	-1E+10	1
4902554	30	C	12/01/2021	02:56	-136.282	49.372	0	438.20	0	4.2690	0	34.0350	0	26.994	0	434.008	0	-1e10	8	-1e10	8	-1E+10	1	-1E+10	1	-1E+10	1	-1E+10	1	-1E+10	1	-1E+10	1
4902554	30	C	12/01/2021	02:56	-136.282	49.372	0	443.10	0	4.2460	0	34.0410	0	27.001	0	438.856	0	-1e10	8	-1e10	8	-1E+10	1	-1E+10	1	-1E+10	1	-1E+10	1	-1E+10	1	-1E+10	1
4902554	30	C	12/01/2021	02:56	-136.282	49.372	0	447.90	0	4.2310	0	34.0450	0	27.006	0	443.605	0	-1e10	8	-1e10	8	-1E+10	1	-1E+10	1	-1E+10	1	-1E+10	1	-1E+10	1	-1E+10	1
4902554	30	C	12/01/2021	02:56	-136.282	49.372	0	452.80	0	4.2270	0	34.0510	0	27.011	0	448.453	0	-1e10	8	-1e10	8	-1E+10	1	-1E+10	1	-1E+10	1	-1E+10	1	-1E+10	1	-1E+10	1
4902554	30	C	12/01/2021	02:56	-136.282	49.372	0	457.60	0	4.2150	0	34.0560	0	27.016	0	453.202	0	-1e10	8	-1e10	8	-1E+10	1	-1E+10	1	-1E+10	1	-1E+10	1	-1E+10	1	-1E+10	1
4902554	30	C	12/01/2021	02:56	-136.282	49.372	0	462.50	0	4.2080	0	34.0580	0	27.019	0	458.049	0	-1e10	8	-1e10	8	-1E+10	1	-1E+10	1	-1E+10	1	-1E+10	1	-1E+10	1	-1E+10	1
4902554	30	C	12/01/2021	02:56	-136.282	49.372	0	467.90	0	4.1940	0	34.0630	0	27.024	0	463.391	0	-1e10	8	-1e10	8	-1E+10	1	-1E+10	1	-1E+10	1	-1E+10	1	-1E+10	1	-1E+10	1
4902554	30	C	12/01/2021	02:56	-136.282	49.372	0	472.90	0	4.1780	0	34.0690	0	27.031	0	468.337	0	-1e10	8	-1e10	8	-1E+10	1	-1E+10	1	-1E+10	1	-1E+10	1	-1E+10	1	-1E+10	1
4902554	30	C	12/01/2021	02:56	-136.282	49.372	0	477.50	0	4.1640	0	34.0750	0	27.037	0	472.888	0	-1e10	8	-1e10	8	-1E+10	1	-1E+10	1	-1E+10	1	-1E+10	1	-1E+10	1	-1E+10	1
4902554	30	C	12/01/2021	02:56	-136.282	49.372	0	483.00	0	4.1510	0	34.0800	0	27.042	0	478.328	0	-1e10	8	-1e10	8	-1E+10	1	-1E+10	1	-1E+10	1	-1E+10	1	-1E+10	1	-1E+10	1
4902554	30	C	12/01/2021	02:56	-136.282	49.372	0	488.20	0	4.1420	0	34.0830	0	27.046	0	483.472	0	-1e10	8	-1e10	8	-1E+10	1	-1E+10	1	-1E+10	1	-1E+10	1	-1E+10	1	-1E+10	1
4902554	30	C	12/01/2021	02:56	-136.282	49.372	0	493.00	0	4.1270	0	34.0880	0	27.051	0	488.220	0	-1e10	8	-1e10	8	-1E+10	1	-1E+10	1	-1E+10	1	-1E+10	1	-1E+10	1	-1E+10	1
4902554	30	C	12/01/2021	02:56	-136.282	49.372	0	498.10	0	4.1150	0	34.0940	0	27.057	0	493.264	0	-1e10	8	-1e10	8	-1E+10	1	-1E+10	1	-1E+10	1	-1E+10	1	-1E+10	1	-1E+10	1
4902554	30	C	12/01/2021	02:56	-136.282	49.372	0	503.20	0	4.1010	0	34.1000	0	27.064	0	498.309	0	-1e10	8	-1e10	8	-1E+10	1	-1E+10	1	-1E+10	1	-1E+10	1	-1E+10	1	-1E+10	1
4902554	30	C	12/01/2021	02:56	-136.282	49.372	0	507.90	0	4.0940	0	34.1020	0	27.066	0	502.957	0	-1e10	8	-1e10	8	-1E+10	1	-1E+10	1	-1E+10	1	-1E+10	1	-1E+10	1	-1E+10	1
4902554	30	C	12/01/2021	02:56	-136.282	49.372	0	512.60	0	4.0780	0	34.1080	0	27.072	0	507.606	0	-1e10	8	-1e10	8	-1E+10	1	-1E+10	1	-1E+10	1	-1E+10	1	-1E+10	1	-1E+10	1
4902554	30	C	12/01/2021	02:56	-136.282	49.372	0	517.90	0	4.0710	0	34.1110	0	27.076	0	512.848	0	-1e10	8	-1e10	8	-1E+10	1	-1E+10	1	-1E+10	1	-1E+10	1	-1E+10	1	-1E+10	1
4902554	30	C	12/01/2021	02:56	-136.282	49.372	0	522.90	0	4.0660	0	34.1120	0	27.077	0	517.793	0	-1e10	8	-1e10	8	-1E+10	1	-1E+10	1	-1E+10	1	-1E+10	1	-1E+10	1	-1E+10	1
4902554	30	C	12/01/2021	02:56	-136.282	49.372	0	527.90	0	4.0510	0	34.1150	0	27.081	0	522.738	0	-1e10	8	-1e10	8	-1E+10	1	-1E+10	1	-1E+10	1	-1E+10	1	-1E+10	1	-1E+10	1
4902554	30	C	12/01/2021	02:56	-136.282	49.372	0	533.00	0	4.0400	0	34.1200	0	27.086	0	527.781	0	-1e10	8	-1e10	8	-1E+10	1	-1E+10	1	-1E+10	1	-1E+10	1	-1E+10	1	-1E+10	1
4902554	30	C	12/01/2021	02:56	-136.282	49.372	0	537.80	0	4.0270	0	34.1230	0	27.090	0	532.528	0	-1e10	8	-1e10	8	-1E+10	1	-1E+10	1	-1E+10	1	-1E+10	1	-1E+10	1	-1E+10	1
4902554	30	C	12/01/2021	02:56	-136.282	49.372	0	543.00	0	4.0210	0	34.1250	0	27.092	0	537.670	0	-1e10	8	-1e10	8	-1E+10	1	-1E+10	1	-1E+10	1	-1E+10	1	-1E+10	1	-1E+10	1
4902554	30	C	12/01/2021	02:56	-136.282	49.372	0	548.30	0	4.0110	0	34.1290	0	27.096	0	542.911	0	-1e10	8	-1e10	8	-1E+10	1	-1E+10	1	-1E+10	1	-1E+10	1	-1E+10	1	-1E+10	1
4902554	30	C	12/01/2021	02:56	-136.282	49.372	0	553.10	0	4.0040	0	34.1320	0	27.099	0	547.658	0	-1e10	8	-1e10	8	-1E+10	1	-1E+10	1	-1E+10	1	-1E+10	1	-1E+10	1	-1E+10	1
4902554	30	C	12/01/2021	02:56	-136.282	49.372	0	557.90	0	3.9890	0	34.1360	0	27.104	0	552.404	0	-1e10	8	-1e10	8	-1E+10	1	-1E+10	1	-1E+10	1	-1E+10	1	-1E+10	1	-1E+10	1
4902554	30	C	12/01/2021	02:56	-136.282	49.372	0	562.80	0	3.9780	0	34.1400	0	27.108	0	557.250	0	-1e10	8	-1e10	8	-1E+10	1	-1E+10	1	-1E+10	1	-1E+10	1	-1E+10	1	-1E+10	1
4902554	30	C	12/01/2021	02:56	-136.282	49.372	0	567.60	0	3.9700	0	34.1430	0	27.112	0	561.996	0	-1e10	8	-1e10	8	-1E+10	1	-1E+10	1	-1E+10	1	-1E+10	1	-1E+10	1	-1E+10	1
4902554	30	C	12/01/2021	02:56	-136.282	49.372	0	572.90	0	3.9560	0	34.1470	0	27.116	0	567.236	0	-1e10	8	-1e10	8	-1E+10	1	-1E+10	1	-1E+10	1	-1E+10	1	-1E+10	1	-1E+10	1
4902554	30	C	12/01/2021	02:56	-136.282	49.372	0	578.30	0	3.9470	0	34.1510	0	27.121	0	572.575	0	-1e10	8	-1e10	8	-1E+10	1	-1E+10	1	-1E+10	1	-1E+10	1	-1E+10	1	-1E+10	1
4902554	30	C	12/01/2021	02:56	-136.282	49.372	0	583.10	0	3.9390	0	34.1530	0	27.123	0	577.321	0	-1e10	8	-1e10	8	-1E+10	1	-1E+10	1	-1E+10	1	-1E+10	1	-1E+10	1	-1E+10	1
4902554	30	C	12/01/2021	02:56	-136.282	49.372	0	588.00	0	3.9270	0	34.1570	0	27.127	0	582.166	0	-1e10	8	-1e10	8	-1E+10	1	-1E+10	1	-1E+10	1	-1E+10	1	-1E+10	1	-1E+10	1
4902554	30	C	12/01/2021	02:56	-136.282	49.372	0	592.80	0	3.9150	0	34.1610	0	27.132	0	586.911	0	-1e10	8	-1e10	8	-1E+10	1	-1E+10	1	-1E+10	1	-1E+10	1	-1E+10	1	-1E+10	1
4902554	30	C	12/01/2021	02:56	-136.282	49.372	0	597.70	0	3.9070	0	34.1640	0	27.135	0	591.756	0	-1e10	8	-1e10	8	-1E+10	1	-1E+10	1	-1E+10	1	-1E+10	1	-1E+10	1	-1E+10	1
4902554	30	C	12/01/2021	02:56	-136.282	49.372	0	602.90	0	3.9030	0	34.1660	0	27.137	0	596.897	0	-1e10	8	-1e10	8	-1E+10	1	-1E+10	1	-1E+10	1	-1E+10	1	-1E+10	1	-1E+10	1
4902554	30	C	12/01/2021	02:56	-136.282	49.372	0	608.20	0	3.8990	0	34.1670	0	27.138	0	602.136	0	-1e10	8	-1e10	8	-1E+10	1	-1E+10	1	-1E+10	1	-1E+10	1	-1E+10	1	-1E+10	1
4902554	30	C	12/01/2021	02:56	-136.282	49.372	0	612.90	0	3.8910	0	34.1700	0	27.142	0	606.782	0	-1e10	8	-1e10	8	-1E+10	1	-1E+10	1	-1E+10	1	-1E+10	1	-1E+10	1	-1E+10	1
4902554	30	C	12/01/2021	02:56	-136.282	49.372	0	618.00	0	3.8700	0	34.1760	0	27.148	0	611.824	0	-1e10	8	-1e10	8	-1E+10	1	-1E+10	1	-1E+10	1	-1E+10	1	-1E+10	1	-1E+10	1
4902554	30	C	12/01/2021	02:56	-136.282	49.372	0	623.20	0	3.8470	0	34.1820	0	27.156	0	616.964	0	-1e10	8	-1e10	8	-1E+10	1	-1E+10	1	-1E+10	1	-1E+10	1	-1E+10	1	-1E+10	1
4902554	30	C	12/01/2021	02:56	-136.282	49.372	0	628.00	0	3.8430	0	34.1840	0	27.158	0	621.709	0	-1e10	8	-1e10	8	-1E+10	1	-1E+10	1	-1E+10	1	-1E+10	1	-1E+10	1	-1E+10	1
4902554	30	C	12/01/2021	02:56	-136.282	49.372	0	632.80	0	3.8390	0	34.1850	0	27.159	0	626.454	0	-1e10	8	-1e10	8	-1E+10	1	-1E+10	1	-1E+10	1	-1E+10	1	-1E+10	1	-1E+10	1
4902554	30	C	12/01/2021	02:56	-136.282	49.372	0	637.60	0	3.8280	0	34.1880	0	27.162	0	631.198	0	-1e10	8	-1e10	8	-1E+10	1	-1E+10	1	-1E+10	1	-1E+10	1	-1E+10	1	-1E+10	1
4902554	30	C	12/01/2021	02:56	-136.282	49.372	0	642.50	0	3.8150	0	34.1910	0	27.166	0	636.042	0	-1e10	8	-1e10	8	-1E+10	1	-1E+10	1	-1E+10	1	-1E+10	1	-1E+10	1	-1E+10	1
4902554	30	C	12/01/2021	02:56	-136.282	49.372	0	647.50	0	3.8020	0	34.1960	0	27.171	0	640.984	0	-1e10	8	-1e10	8	-1E+10	1	-1E+10	1	-1E+10	1	-1E+10	1	-1E+10	1	-1E+10	1
4902554	30	C	12/01/2021	02:56	-136.282	49.372	0	652.50	0	3.7910	0	34.1980	0	27.174	0	645.926	0	-1e10	8	-1e10	8	-1E+10	1	-1E+10	1	-1E+10	1	-1E+10	1	-1E+10	1	-1E+10	1
4902554	30	C	12/01/2021	02:56	-136.282	49.372	0	657.50	0	3.7800	0	34.2020	0	27.178	0	650.868	0	-1e10	8	-1e10	8	-1E+10	1	-1E+10	1	-1E+10	1	-1E+10	1	-1E+10	1	-1E+10	1
4902554	30	C	12/01/2021	02:56	-136.282	49.372	0	663.00	0	3.7680	0	34.2060	0	27.183	0	656.303	0	-1e10	8	-1e10	8	-1E+10	1	-1E+10	1	-1E+10	1	-1E+10	1	-1E+10	1	-1E+10	1
4902554	30	C	12/01/2021	02:56	-136.282	49.372	0	668.00	0	3.7610	0	34.2070	0	27.184	0	661.245	0	-1e10	8	-1e10	8	-1E+10	1	-1E+10	1	-1E+10	1	-1E+10	1	-1E+10	1	-1E+10	1
4902554	30	C	12/01/2021	02:56	-136.282	49.372	0	672.80	0	3.7530	0	34.2090	0	27.187	0	665.989	0	-1e10	8	-1e10	8	-1E+10	1	-1E+10	1	-1E+10	1	-1E+10	1	-1E+10	1	-1E+10	1
4902554	30	C	12/01/2021	02:56	-136.282	49.372	0	677.70	0	3.7410	0	34.2130	0	27.191	0	670.831	0	-1e10	8	-1e10	8	-1E+10	1	-1E+10	1	-1E+10	1	-1E+10	1	-1E+10	1	-1E+10	1
4902554	30	C	12/01/2021	02:56	-136.282	49.372	0	682.70	0	3.7240	0	34.2170	0	27.196	0	675.773	0	-1e10	8	-1e10	8	-1E+10	1	-1E+10	1	-1E+10	1	-1E+10	1	-1E+10	1	-1E+10	1
4902554	30	C	12/01/2021	02:56	-136.282	49.372	0	687.70	0	3.7180	0	34.2180	0	27.197	0	680.714	0	-1e10	8	-1e10	8	-1E+10	1	-1E+10	1	-1E+10	1	-1E+10	1	-1E+10	1	-1E+10	1
4902554	30	C	12/01/2021	02:56	-136.282	49.372	0	692.90	0	3.6890	0	34.2220	0	27.204	0	685.852	0	-1e10	8	-1e10	8	-1E+10	1	-1E+10	1	-1E+10	1	-1E+10	1	-1E+10	1	-1E+10	1
4902554	30	C	12/01/2021	02:56	-136.282	49.372	0	698.10	0	3.6690	0	34.2250	0	27.208	0	690.991	0	-1e10	8	-1e10	8	-1E+10	1	-1E+10	1	-1E+10	1	-1E+10	1	-1E+10	1	-1E+10	1
4902554	30	C	12/01/2021	02:56	-136.282	49.372	0	703.10	0	3.6610	0	34.2260	0	27.210	0	695.932	0	-1e10	8	-1e10	8	-1E+10	1	-1E+10	1	-1E+10	1	-1E+10	1	-1E+10	1	-1E+10	1
4902554	30	C	12/01/2021	02:56	-136.282	49.372	0	708.10	0	3.6540	0	34.2300	0	27.213	0	700.872	0	-1e10	8	-1e10	8	-1E+10	1	-1E+10	1	-1E+10	1	-1E+10	1	-1E+10	1	-1E+10	1
4902554	30	C	12/01/2021	02:56	-136.282	49.372	0	713.20	0	3.6460	0	34.2310	0	27.215	0	705.911	0	-1e10	8	-1e10	8	-1E+10	1	-1E+10	1	-1E+10	1	-1E+10	1	-1E+10	1	-1E+10	1
4902554	30	C	12/01/2021	02:56	-136.282	49.372	0	717.70	0	3.6440	0	34.2310	0	27.215	0	710.358	0	-1e10	8	-1e10	8	-1E+10	1	-1E+10	1	-1E+10	1	-1E+10	1	-1E+10	1	-1E+10	1
4902554	30	C	12/01/2021	02:56	-136.282	49.372	0	722.80	0	3.6390	0	34.2320	0	27.217	0	715.397	0	-1e10	8	-1e10	8	-1E+10	1	-1E+10	1	-1E+10	1	-1E+10	1	-1E+10	1	-1E+10	1
4902554	30	C	12/01/2021	02:56	-136.282	49.372	0	727.90	0	3.6240	0	34.2370	0	27.222	0	720.436	0	-1e10	8	-1e10	8	-1E+10	1	-1E+10	1	-1E+10	1	-1E+10	1	-1E+10	1	-1E+10	1
4902554	30	C	12/01/2021	02:56	-136.282	49.372	0	733.00	0	3.6010	0	34.2400	0	27.227	0	725.475	0	-1e10	8	-1e10	8	-1E+10	1	-1E+10	1	-1E+10	1	-1E+10	1	-1E+10	1	-1E+10	1
4902554	30	C	12/01/2021	02:56	-136.282	49.372	0	738.20	0	3.5900	0	34.2420	0	27.229	0	730.612	0	-1e10	8	-1e10	8	-1E+10	1	-1E+10	1	-1E+10	1	-1E+10	1	-1E+10	1	-1E+10	1
4902554	30	C	12/01/2021	02:56	-136.282	49.372	0	742.80	0	3.5720	0	34.2490	0	27.237	0	735.157	0	-1e10	8	-1e10	8	-1E+10	1	-1E+10	1	-1E+10	1	-1E+10	1	-1E+10	1	-1E+10	1
4902554	30	C	12/01/2021	02:56	-136.282	49.372	0	747.90	0	3.5620	0	34.2540	0	27.242	0	740.195	0	-1e10	8	-1e10	8	-1E+10	1	-1E+10	1	-1E+10	1	-1E+10	1	-1E+10	1	-1E+10	1
4902554	30	C	12/01/2021	02:56	-136.282	49.372	0	753.10	0	3.5340	0	34.2550	0	27.245	0	745.332	0	-1e10	8	-1e10	8	-1E+10	1	-1E+10	1	-1E+10	1	-1E+10	1	-1E+10	1	-1E+10	1
4902554	30	C	12/01/2021	02:56	-136.282	49.372	0	757.80	0	3.5230	0	34.2560	0	27.247	0	749.976	0	-1e10	8	-1e10	8	-1E+10	1	-1E+10	1	-1E+10	1	-1E+10	1	-1E+10	1	-1E+10	1
4902554	30	C	12/01/2021	02:56	-136.282	49.372	0	763.00	0	3.5050	0	34.2600	0	27.252	0	755.112	0	-1e10	8	-1e10	8	-1E+10	1	-1E+10	1	-1E+10	1	-1E+10	1	-1E+10	1	-1E+10	1
4902554	30	C	12/01/2021	02:56	-136.282	49.372	0	768.10	0	3.4880	0	34.2640	0	27.257	0	760.150	0	-1e10	8	-1e10	8	-1E+10	1	-1E+10	1	-1E+10	1	-1E+10	1	-1E+10	1	-1E+10	1
4902554	30	C	12/01/2021	02:56	-136.282	49.372	0	772.80	0	3.4710	0	34.2680	0	27.262	0	764.793	0	-1e10	8	-1e10	8	-1E+10	1	-1E+10	1	-1E+10	1	-1E+10	1	-1E+10	1	-1E+10	1
4902554	30	C	12/01/2021	02:56	-136.282	49.372	0	778.00	0	3.4520	0	34.2720	0	27.267	0	769.930	0	-1e10	8	-1e10	8	-1E+10	1	-1E+10	1	-1E+10	1	-1E+10	1	-1E+10	1	-1E+10	1
4902554	30	C	12/01/2021	02:56	-136.282	49.372	0	783.20	0	3.4370	0	34.2750	0	27.271	0	775.066	0	-1e10	8	-1e10	8	-1E+10	1	-1E+10	1	-1E+10	1	-1E+10	1	-1E+10	1	-1E+10	1
4902554	30	C	12/01/2021	02:56	-136.282	49.372	0	788.00	0	3.4260	0	34.2770	0	27.273	0	779.807	0	-1e10	8	-1e10	8	-1E+10	1	-1E+10	1	-1E+10	1	-1E+10	1	-1E+10	1	-1E+10	1
4902554	30	C	12/01/2021	02:56	-136.282	49.372	0	792.80	0	3.4170	0	34.2790	0	27.276	0	784.548	0	-1e10	8	-1e10	8	-1E+10	1	-1E+10	1	-1E+10	1	-1E+10	1	-1E+10	1	-1E+10	1
4902554	30	C	12/01/2021	02:56	-136.282	49.372	0	797.60	0	3.4080	0	34.2810	0	27.278	0	789.289	0	-1e10	8	-1e10	8	-1E+10	1	-1E+10	1	-1E+10	1	-1E+10	1	-1E+10	1	-1E+10	1
4902554	30	C	12/01/2021	02:56	-136.282	49.372	0	802.80	0	3.3970	0	34.2840	0	27.282	0	794.425	0	-1e10	8	-1e10	8	-1E+10	1	-1E+10	1	-1E+10	1	-1E+10	1	-1E+10	1	-1E+10	1
4902554	30	C	12/01/2021	02:56	-136.282	49.372	0	808.00	0	3.3840	0	34.2880	0	27.286	0	799.561	0	-1e10	8	-1e10	8	-1E+10	1	-1E+10	1	-1E+10	1	-1E+10	1	-1E+10	1	-1E+10	1
4902554	30	C	12/01/2021	02:56	-136.282	49.372	0	812.80	0	3.3770	0	34.2910	0	27.289	0	804.302	0	-1e10	8	-1e10	8	-1E+10	1	-1E+10	1	-1E+10	1	-1E+10	1	-1E+10	1	-1E+10	1
4902554	30	C	12/01/2021	02:56	-136.282	49.372	0	817.60	0	3.3760	0	34.2940	0	27.292	0	809.042	0	-1e10	8	-1e10	8	-1E+10	1	-1E+10	1	-1E+10	1	-1E+10	1	-1E+10	1	-1E+10	1
4902554	30	C	12/01/2021	02:56	-136.282	49.372	0	822.80	0	3.3670	0	34.2980	0	27.296	0	814.178	0	-1e10	8	-1e10	8	-1E+10	1	-1E+10	1	-1E+10	1	-1E+10	1	-1E+10	1	-1E+10	1
4902554	30	C	12/01/2021	02:56	-136.282	49.372	0	828.00	0	3.3570	0	34.3000	0	27.299	0	819.313	0	-1e10	8	-1e10	8	-1E+10	1	-1E+10	1	-1E+10	1	-1E+10	1	-1E+10	1	-1E+10	1
4902554	30	C	12/01/2021	02:56	-136.282	49.372	0	832.80	0	3.3480	0	34.3010	0	27.300	0	824.053	0	-1e10	8	-1e10	8	-1E+10	1	-1E+10	1	-1E+10	1	-1E+10	1	-1E+10	1	-1E+10	1
4902554	30	C	12/01/2021	02:56	-136.282	49.372	0	837.60	0	3.3220	0	34.3050	0	27.306	0	828.793	0	-1e10	8	-1e10	8	-1E+10	1	-1E+10	1	-1E+10	1	-1E+10	1	-1E+10	1	-1E+10	1
4902554	30	C	12/01/2021	02:56	-136.282	49.372	0	842.90	0	3.3120	0	34.3070	0	27.308	0	834.027	0	-1e10	8	-1e10	8	-1E+10	1	-1E+10	1	-1E+10	1	-1E+10	1	-1E+10	1	-1E+10	1
4902554	30	C	12/01/2021	02:56	-136.282	49.372	0	848.20	0	3.3030	0	34.3100	0	27.312	0	839.261	0	-1e10	8	-1e10	8	-1E+10	1	-1E+10	1	-1E+10	1	-1E+10	1	-1E+10	1	-1E+10	1
4902554	30	C	12/01/2021	02:56	-136.282	49.372	0	853.10	0	3.2900	0	34.3140	0	27.316	0	844.099	0	-1e10	8	-1e10	8	-1E+10	1	-1E+10	1	-1E+10	1	-1E+10	1	-1E+10	1	-1E+10	1
4902554	30	C	12/01/2021	02:56	-136.282	49.372	0	858.00	0	3.2820	0	34.3150	0	27.318	0	848.937	0	-1e10	8	-1e10	8	-1E+10	1	-1E+10	1	-1E+10	1	-1E+10	1	-1E+10	1	-1E+10	1
4902554	30	C	12/01/2021	02:56	-136.282	49.372	0	862.90	0	3.2760	0	34.3160	0	27.319	0	853.776	0	-1e10	8	-1e10	8	-1E+10	1	-1E+10	1	-1E+10	1	-1E+10	1	-1E+10	1	-1E+10	1
4902554	30	C	12/01/2021	02:56	-136.282	49.372	0	867.80	0	3.2710	0	34.3170	0	27.320	0	858.614	0	-1e10	8	-1e10	8	-1E+10	1	-1E+10	1	-1E+10	1	-1E+10	1	-1E+10	1	-1E+10	1
4902554	30	C	12/01/2021	02:56	-136.282	49.372	0	872.90	0	3.2640	0	34.3190	0	27.323	0	863.649	0	-1e10	8	-1e10	8	-1E+10	1	-1E+10	1	-1E+10	1	-1E+10	1	-1E+10	1	-1E+10	1
4902554	30	C	12/01/2021	02:56	-136.282	49.372	0	877.90	0	3.2460	0	34.3210	0	27.326	0	868.586	0	-1e10	8	-1e10	8	-1E+10	1	-1E+10	1	-1E+10	1	-1E+10	1	-1E+10	1	-1E+10	1
4902554	30	C	12/01/2021	02:56	-136.282	49.372	0	883.00	0	3.2270	0	34.3260	0	27.332	0	873.621	0	-1e10	8	-1e10	8	-1E+10	1	-1E+10	1	-1E+10	1	-1E+10	1	-1E+10	1	-1E+10	1
4902554	30	C	12/01/2021	02:56	-136.282	49.372	0	888.20	0	3.2160	0	34.3280	0	27.334	0	878.755	0	-1e10	8	-1e10	8	-1E+10	1	-1E+10	1	-1E+10	1	-1E+10	1	-1E+10	1	-1E+10	1
4902554	30	C	12/01/2021	02:56	-136.282	49.372	0	893.00	0	3.2110	0	34.3290	0	27.336	0	883.494	0	-1e10	8	-1e10	8	-1E+10	1	-1E+10	1	-1E+10	1	-1E+10	1	-1E+10	1	-1E+10	1
4902554	30	C	12/01/2021	02:56	-136.282	49.372	0	897.70	0	3.2070	0	34.3300	0	27.337	0	888.134	0	-1e10	8	-1e10	8	-1E+10	1	-1E+10	1	-1E+10	1	-1E+10	1	-1E+10	1	-1E+10	1
4902554	30	C	12/01/2021	02:56	-136.282	49.372	0	902.90	0	3.1940	0	34.3330	0	27.341	0	893.267	0	-1e10	8	-1e10	8	-1E+10	1	-1E+10	1	-1E+10	1	-1E+10	1	-1E+10	1	-1E+10	1
4902554	30	C	12/01/2021	02:56	-136.282	49.372	0	908.10	0	3.1800	0	34.3360	0	27.344	0	898.401	0	-1e10	8	-1e10	8	-1E+10	1	-1E+10	1	-1E+10	1	-1E+10	1	-1E+10	1	-1E+10	1
4902554	30	C	12/01/2021	02:56	-136.282	49.372	0	913.00	0	3.1680	0	34.3380	0	27.347	0	903.238	0	-1e10	8	-1e10	8	-1E+10	1	-1E+10	1	-1E+10	1	-1E+10	1	-1E+10	1	-1E+10	1
4902554	30	C	12/01/2021	02:56	-136.282	49.372	0	917.90	0	3.1580	0	34.3400	0	27.350	0	908.075	0	-1e10	8	-1e10	8	-1E+10	1	-1E+10	1	-1E+10	1	-1E+10	1	-1E+10	1	-1E+10	1
4902554	30	C	12/01/2021	02:56	-136.282	49.372	0	922.90	0	3.1480	0	34.3430	0	27.353	0	913.010	0	-1e10	8	-1e10	8	-1E+10	1	-1E+10	1	-1E+10	1	-1E+10	1	-1E+10	1	-1E+10	1
4902554	30	C	12/01/2021	02:56	-136.282	49.372	0	928.00	0	3.1350	0	34.3450	0	27.356	0	918.045	0	-1e10	8	-1e10	8	-1E+10	1	-1E+10	1	-1E+10	1	-1E+10	1	-1E+10	1	-1E+10	1
4902554	30	C	12/01/2021	02:56	-136.282	49.372	0	933.10	0	3.1260	0	34.3470	0	27.358	0	923.079	0	-1e10	8	-1e10	8	-1E+10	1	-1E+10	1	-1E+10	1	-1E+10	1	-1E+10	1	-1E+10	1
4902554	30	C	12/01/2021	02:56	-136.282	49.372	0	938.20	0	3.1180	0	34.3480	0	27.360	0	928.113	0	-1e10	8	-1e10	8	-1E+10	1	-1E+10	1	-1E+10	1	-1E+10	1	-1E+10	1	-1E+10	1
4902554	30	C	12/01/2021	02:56	-136.282	49.372	0	942.90	0	3.1100	0	34.3500	0	27.362	0	932.752	0	-1e10	8	-1e10	8	-1E+10	1	-1E+10	1	-1E+10	1	-1E+10	1	-1E+10	1	-1E+10	1
4902554	30	C	12/01/2021	02:56	-136.282	49.372	0	947.70	0	3.0990	0	34.3520	0	27.365	0	937.489	0	-1e10	8	-1e10	8	-1E+10	1	-1E+10	1	-1E+10	1	-1E+10	1	-1E+10	1	-1E+10	1
4902554	30	C	12/01/2021	02:56	-136.282	49.372	0	953.00	0	3.0900	0	34.3540	0	27.367	0	942.720	0	-1e10	8	-1e10	8	-1E+10	1	-1E+10	1	-1E+10	1	-1E+10	1	-1E+10	1	-1E+10	1
4902554	30	C	12/01/2021	02:56	-136.282	49.372	0	958.00	0	3.0790	0	34.3570	0	27.371	0	947.655	0	-1e10	8	-1e10	8	-1E+10	1	-1E+10	1	-1E+10	1	-1E+10	1	-1E+10	1	-1E+10	1
4902554	30	C	12/01/2021	02:56	-136.282	49.372	0	962.90	0	3.0630	0	34.3590	0	27.374	0	952.491	0	-1e10	8	-1e10	8	-1E+10	1	-1E+10	1	-1E+10	1	-1E+10	1	-1E+10	1	-1E+10	1
4902554	30	C	12/01/2021	02:56	-136.282	49.372	0	967.90	0	3.0520	0	34.3620	0	27.377	0	957.425	0	-1e10	8	-1e10	8	-1E+10	1	-1E+10	1	-1E+10	1	-1E+10	1	-1E+10	1	-1E+10	1
4902554	30	C	12/01/2021	02:56	-136.282	49.372	0	972.90	0	3.0440	0	34.3630	0	27.379	0	962.360	0	-1e10	8	-1e10	8	-1E+10	1	-1E+10	1	-1E+10	1	-1E+10	1	-1E+10	1	-1E+10	1
4902554	30	C	12/01/2021	02:56	-136.282	49.372	0	978.00	0	3.0360	0	34.3650	0	27.381	0	967.393	0	-1e10	8	-1e10	8	-1E+10	1	-1E+10	1	-1E+10	1	-1E+10	1	-1E+10	1	-1E+10	1
4902554	30	C	12/01/2021	02:56	-136.282	49.372	0	983.10	0	3.0300	0	34.3660	0	27.382	0	972.426	0	-1e10	8	-1e10	8	-1E+10	1	-1E+10	1	-1E+10	1	-1E+10	1	-1E+10	1	-1E+10	1
4902554	30	C	12/01/2021	02:56	-136.282	49.372	0	988.20	0	3.0240	0	34.3670	0	27.384	0	977.458	0	-1e10	8	-1e10	8	-1E+10	1	-1E+10	1	-1E+10	1	-1E+10	1	-1E+10	1	-1E+10	1
4902554	30	C	12/01/2021	02:56	-136.282	49.372	0	993.00	0	3.0140	0	34.3700	0	27.387	0	982.195	0	-1e10	8	-1e10	8	-1E+10	1	-1E+10	1	-1E+10	1	-1E+10	1	-1E+10	1	-1E+10	1
4902554	30	C	12/01/2021	02:56	-136.282	49.372	0	997.80	0	3.0070	0	34.3710	0	27.389	0	986.931	0	-1e10	8	-1e10	8	-1E+10	1	-1E+10	1	-1E+10	1	-1E+10	1	-1E+10	1	-1E+10	1
4902554	30	C	12/01/2021	02:56	-136.282	49.372	0	1005.20	0	2.9950	0	34.3730	0	27.391	0	994.233	0	-1e10	8	-1e10	8	-1E+10	1	-1E+10	1	-1E+10	1	-1E+10	1	-1E+10	1	-1E+10	1
4902554	30	C	12/01/2021	02:56	-136.282	49.372	0	1015.10	0	2.9810	0	34.3770	0	27.396	0	1004.001	0	-1e10	8	-1e10	8	-1E+10	1	-1E+10	1	-1E+10	1	-1E+10	1	-1E+10	1	-1E+10	1
4902554	30	C	12/01/2021	02:56	-136.282	49.372	0	1025.10	0	2.9620	0	34.3810	0	27.401	0	1013.868	0	-1e10	8	-1e10	8	-1E+10	1	-1E+10	1	-1E+10	1	-1E+10	1	-1E+10	1	-1E+10	1
4902554	30	C	12/01/2021	02:56	-136.282	49.372	0	1035.70	0	2.9420	0	34.3850	0	27.406	0	1024.326	0	-1e10	8	-1e10	8	-1E+10	1	-1E+10	1	-1E+10	1	-1E+10	1	-1E+10	1	-1E+10	1
4902554	30	C	12/01/2021	02:56	-136.282	49.372	0	1045.50	0	2.9280	0	34.3880	0	27.409	0	1033.994	0	-1e10	8	-1e10	8	-1E+10	1	-1E+10	1	-1E+10	1	-1E+10	1	-1E+10	1	-1E+10	1
4902554	30	C	12/01/2021	02:56	-136.282	49.372	0	1055.10	0	2.9180	0	34.3900	0	27.412	0	1043.465	0	-1e10	8	-1e10	8	-1E+10	1	-1E+10	1	-1E+10	1	-1E+10	1	-1E+10	1	-1E+10	1
4902554	30	C	12/01/2021	02:56	-136.282	49.372	0	1065.10	0	2.9080	0	34.3930	0	27.415	0	1053.329	0	-1e10	8	-1e10	8	-1E+10	1	-1E+10	1	-1E+10	1	-1E+10	1	-1E+10	1	-1E+10	1
4902554	30	C	12/01/2021	02:56	-136.282	49.372	0	1075.10	0	2.8980	0	34.3940	0	27.417	0	1063.193	0	-1e10	8	-1e10	8	-1E+10	1	-1E+10	1	-1E+10	1	-1E+10	1	-1E+10	1	-1E+10	1
4902554	30	C	12/01/2021	02:56	-136.282	49.372	0	1085.40	0	2.8860	0	34.3960	0	27.420	0	1073.353	0	-1e10	8	-1e10	8	-1E+10	1	-1E+10	1	-1E+10	1	-1E+10	1	-1E+10	1	-1E+10	1
4902554	30	C	12/01/2021	02:56	-136.282	49.372	0	1095.40	0	2.8730	0	34.3980	0	27.423	0	1083.216	0	-1e10	8	-1e10	8	-1E+10	1	-1E+10	1	-1E+10	1	-1E+10	1	-1E+10	1	-1E+10	1
4902554	30	C	12/01/2021	02:56	-136.282	49.372	0	1105.50	0	2.8610	0	34.4010	0	27.426	0	1093.178	0	-1e10	8	-1e10	8	-1E+10	1	-1E+10	1	-1E+10	1	-1E+10	1	-1E+10	1	-1E+10	1
4902554	30	C	12/01/2021	02:56	-136.282	49.372	0	1115.60	0	2.8430	0	34.4040	0	27.430	0	1103.139	0	-1e10	8	-1e10	8	-1E+10	1	-1E+10	1	-1E+10	1	-1E+10	1	-1E+10	1	-1E+10	1
4902554	30	C	12/01/2021	02:56	-136.282	49.372	0	1125.50	0	2.8300	0	34.4070	0	27.434	0	1112.902	0	-1e10	8	-1e10	8	-1E+10	1	-1E+10	1	-1E+10	1	-1E+10	1	-1E+10	1	-1E+10	1
4902554	30	C	12/01/2021	02:56	-136.282	49.372	0	1135.40	0	2.8180	0	34.4090	0	27.436	0	1122.664	0	-1e10	8	-1e10	8	-1E+10	1	-1E+10	1	-1E+10	1	-1E+10	1	-1E+10	1	-1E+10	1
4902554	30	C	12/01/2021	02:56	-136.282	49.372	0	1145.60	0	2.8040	0	34.4110	0	27.439	0	1132.723	0	-1e10	8	-1e10	8	-1E+10	1	-1E+10	1	-1E+10	1	-1E+10	1	-1E+10	1	-1E+10	1
4902554	30	C	12/01/2021	02:56	-136.282	49.372	0	1155.60	0	2.7940	0	34.4130	0	27.442	0	1142.583	0	-1e10	8	-1e10	8	-1E+10	1	-1E+10	1	-1E+10	1	-1E+10	1	-1E+10	1	-1E+10	1
4902554	30	C	12/01/2021	02:56	-136.282	49.372	0	1165.10	0	2.7820	0	34.4150	0	27.445	0	1151.950	0	-1e10	8	-1e10	8	-1E+10	1	-1E+10	1	-1E+10	1	-1E+10	1	-1E+10	1	-1E+10	1
4902554	30	C	12/01/2021	02:56	-136.282	49.372	0	1175.30	0	2.7660	0	34.4180	0	27.448	0	1162.007	0	-1e10	8	-1e10	8	-1E+10	1	-1E+10	1	-1E+10	1	-1E+10	1	-1E+10	1	-1E+10	1
4902554	30	C	12/01/2021	02:56	-136.282	49.372	0	1185.60	0	2.7510	0	34.4210	0	27.452	0	1172.161	0	-1e10	8	-1e10	8	-1E+10	1	-1E+10	1	-1E+10	1	-1E+10	1	-1E+10	1	-1E+10	1
4902554	30	C	12/01/2021	02:56	-136.282	49.372	0	1195.60	0	2.7350	0	34.4250	0	27.457	0	1182.020	0	-1e10	8	-1e10	8	-1E+10	1	-1E+10	1	-1E+10	1	-1E+10	1	-1E+10	1	-1E+10	1
4902554	30	C	12/01/2021	02:56	-136.282	49.372	0	1205.60	0	2.7230	0	34.4260	0	27.459	0	1191.878	0	-1e10	8	-1e10	8	-1E+10	1	-1E+10	1	-1E+10	1	-1E+10	1	-1E+10	1	-1E+10	1
4902554	30	C	12/01/2021	02:56	-136.282	49.372	0	1215.40	0	2.7060	0	34.4300	0	27.463	0	1201.539	0	-1e10	8	-1e10	8	-1E+10	1	-1E+10	1	-1E+10	1	-1E+10	1	-1E+10	1	-1E+10	1
4902554	30	C	12/01/2021	02:56	-136.282	49.372	0	1225.30	0	2.6910	0	34.4330	0	27.467	0	1211.297	0	-1e10	8	-1e10	8	-1E+10	1	-1E+10	1	-1E+10	1	-1E+10	1	-1E+10	1	-1E+10	1
4902554	30	C	12/01/2021	02:56	-136.282	49.372	0	1235.20	0	2.6760	0	34.4360	0	27.471	0	1221.055	0	-1e10	8	-1e10	8	-1E+10	1	-1E+10	1	-1E+10	1	-1E+10	1	-1E+10	1	-1E+10	1
4902554	30	C	12/01/2021	02:56	-136.282	49.372	0	1245.20	0	2.6590	0	34.4390	0	27.475	0	1230.912	0	-1e10	8	-1e10	8	-1E+10	1	-1E+10	1	-1E+10	1	-1E+10	1	-1E+10	1	-1E+10	1
4902554	30	C	12/01/2021	02:56	-136.282	49.372	0	1255.20	0	2.6460	0	34.4420	0	27.478	0	1240.767	0	-1e10	8	-1e10	8	-1E+10	1	-1E+10	1	-1E+10	1	-1E+10	1	-1E+10	1	-1E+10	1
4902554	30	C	12/01/2021	02:56	-136.282	49.372	0	1265.20	0	2.6340	0	34.4450	0	27.482	0	1250.623	0	-1e10	8	-1e10	8	-1E+10	1	-1E+10	1	-1E+10	1	-1E+10	1	-1E+10	1	-1E+10	1
4902554	30	C	12/01/2021	02:56	-136.282	49.372	0	1275.10	0	2.6190	0	34.4470	0	27.485	0	1260.379	0	-1e10	8	-1e10	8	-1E+10	1	-1E+10	1	-1E+10	1	-1E+10	1	-1E+10	1	-1E+10	1
4902554	30	C	12/01/2021	02:56	-136.282	49.372	0	1285.20	0	2.6110	0	34.4490	0	27.487	0	1270.332	0	-1e10	8	-1e10	8	-1E+10	1	-1E+10	1	-1E+10	1	-1E+10	1	-1E+10	1	-1E+10	1
4902554	30	C	12/01/2021	02:56	-136.282	49.372	0	1295.20	0	2.6050	0	34.4510	0	27.489	0	1280.186	0	-1e10	8	-1e10	8	-1E+10	1	-1E+10	1	-1E+10	1	-1E+10	1	-1E+10	1	-1E+10	1
4902554	30	C	12/01/2021	02:56	-136.282	49.372	0	1305.30	0	2.5860	0	34.4540	0	27.493	0	1290.138	0	-1e10	8	-1e10	8	-1E+10	1	-1E+10	1	-1E+10	1	-1E+10	1	-1E+10	1	-1E+10	1
4902554	30	C	12/01/2021	02:56	-136.282	49.372	0	1315.50	0	2.5720	0	34.4570	0	27.497	0	1300.188	0	-1e10	8	-1e10	8	-1E+10	1	-1E+10	1	-1E+10	1	-1E+10	1	-1E+10	1	-1E+10	1
4902554	30	C	12/01/2021	02:56	-136.282	49.372	0	1325.60	0	2.5580	0	34.4600	0	27.501	0	1310.139	0	-1e10	8	-1e10	8	-1E+10	1	-1E+10	1	-1E+10	1	-1E+10	1	-1E+10	1	-1E+10	1
4902554	30	C	12/01/2021	02:56	-136.282	49.372	0	1335.40	0	2.5480	0	34.4620	0	27.503	0	1319.794	0	-1e10	8	-1e10	8	-1E+10	1	-1E+10	1	-1E+10	1	-1E+10	1	-1E+10	1	-1E+10	1
4902554	30	C	12/01/2021	02:56	-136.282	49.372	0	1345.20	0	2.5410	0	34.4630	0	27.505	0	1329.449	0	-1e10	8	-1e10	8	-1E+10	1	-1E+10	1	-1E+10	1	-1E+10	1	-1E+10	1	-1E+10	1
4902554	30	C	12/01/2021	02:56	-136.282	49.372	0	1355.20	0	2.5330	0	34.4650	0	27.507	0	1339.300	0	-1e10	8	-1e10	8	-1E+10	1	-1E+10	1	-1E+10	1	-1E+10	1	-1E+10	1	-1E+10	1
4902554	30	C	12/01/2021	02:56	-136.282	49.372	0	1365.40	0	2.5180	0	34.4680	0	27.511	0	1349.347	0	-1e10	8	-1e10	8	-1E+10	1	-1E+10	1	-1E+10	1	-1E+10	1	-1E+10	1	-1E+10	1
4902554	30	C	12/01/2021	02:56	-136.282	49.372	0	1375.30	0	2.5110	0	34.4690	0	27.512	0	1359.099	0	-1e10	8	-1e10	8	-1E+10	1	-1E+10	1	-1E+10	1	-1E+10	1	-1E+10	1	-1E+10	1
4902554	30	C	12/01/2021	02:56	-136.282	49.372	0	1385.40	0	2.5010	0	34.4710	0	27.515	0	1369.047	0	-1e10	8	-1e10	8	-1E+10	1	-1E+10	1	-1E+10	1	-1E+10	1	-1E+10	1	-1E+10	1
4902554	30	C	12/01/2021	02:56	-136.282	49.372	0	1395.60	0	2.4890	0	34.4730	0	27.517	0	1379.094	0	-1e10	8	-1e10	8	-1E+10	1	-1E+10	1	-1E+10	1	-1E+10	1	-1E+10	1	-1E+10	1
4902554	30	C	12/01/2021	02:56	-136.282	49.372	0	1405.60	0	2.4810	0	34.4750	0	27.520	0	1388.943	0	-1e10	8	-1e10	8	-1E+10	1	-1E+10	1	-1E+10	1	-1E+10	1	-1E+10	1	-1E+10	1
4902554	30	C	12/01/2021	02:56	-136.282	49.372	0	1415.70	0	2.4710	0	34.4770	0	27.522	0	1398.889	0	-1e10	8	-1e10	8	-1E+10	1	-1E+10	1	-1E+10	1	-1E+10	1	-1E+10	1	-1E+10	1
4902554	30	C	12/01/2021	02:56	-136.282	49.372	0	1425.40	0	2.4620	0	34.4790	0	27.525	0	1408.442	0	-1e10	8	-1e10	8	-1E+10	1	-1E+10	1	-1E+10	1	-1E+10	1	-1E+10	1	-1E+10	1
4902554	30	C	12/01/2021	02:56	-136.282	49.372	0	1435.20	0	2.4520	0	34.4810	0	27.527	0	1418.092	0	-1e10	8	-1e10	8	-1E+10	1	-1E+10	1	-1E+10	1	-1E+10	1	-1E+10	1	-1E+10	1
4902554	30	C	12/01/2021	02:56	-136.282	49.372	0	1445.60	0	2.4330	0	34.4840	0	27.531	0	1428.333	0	-1e10	8	-1e10	8	-1E+10	1	-1E+10	1	-1E+10	1	-1E+10	1	-1E+10	1	-1E+10	1
4902554	30	C	12/01/2021	02:56	-136.282	49.372	0	1455.70	0	2.4200	0	34.4870	0	27.535	0	1438.278	0	-1e10	8	-1e10	8	-1E+10	1	-1E+10	1	-1E+10	1	-1E+10	1	-1E+10	1	-1E+10	1
4902554	30	C	12/01/2021	02:56	-136.282	49.372	0	1465.20	0	2.4110	0	34.4890	0	27.537	0	1447.632	0	-1e10	8	-1e10	8	-1E+10	1	-1E+10	1	-1E+10	1	-1E+10	1	-1E+10	1	-1E+10	1
4902554	30	C	12/01/2021	02:56	-136.282	49.372	0	1475.70	0	2.4010	0	34.4910	0	27.540	0	1457.970	0	-1e10	8	-1e10	8	-1E+10	1	-1E+10	1	-1E+10	1	-1E+10	1	-1E+10	1	-1E+10	1
4902554	30	C	12/01/2021	02:56	-136.282	49.372	0	1485.70	0	2.3890	0	34.4930	0	27.542	0	1467.815	0	-1e10	8	-1e10	8	-1E+10	1	-1E+10	1	-1E+10	1	-1E+10	1	-1E+10	1	-1E+10	1
4902554	30	C	12/01/2021	02:56	-136.282	49.372	0	1495.60	0	2.3760	0	34.4960	0	27.546	0	1477.561	0	-1e10	8	-1e10	8	-1E+10	1	-1E+10	1	-1E+10	1	-1E+10	1	-1E+10	1	-1E+10	1
4902554	30	C	12/01/2021	02:56	-136.282	49.372	0	1505.70	0	2.3620	0	34.4990	0	27.549	0	1487.504	0	-1e10	8	-1e10	8	-1E+10	1	-1E+10	1	-1E+10	1	-1E+10	1	-1E+10	1	-1E+10	1
4902554	30	C	12/01/2021	02:56	-136.282	49.372	0	1515.40	0	2.3500	0	34.5010	0	27.552	0	1497.052	0	-1e10	8	-1e10	8	-1E+10	1	-1E+10	1	-1E+10	1	-1E+10	1	-1E+10	1	-1E+10	1
4902554	30	C	12/01/2021	02:56	-136.282	49.372	0	1525.40	0	2.3380	0	34.5040	0	27.555	0	1506.896	0	-1e10	8	-1e10	8	-1E+10	1	-1E+10	1	-1E+10	1	-1E+10	1	-1E+10	1	-1E+10	1
4902554	30	C	12/01/2021	02:56	-136.282	49.372	0	1535.50	0	2.3300	0	34.5050	0	27.557	0	1516.837	0	-1e10	8	-1e10	8	-1E+10	1	-1E+10	1	-1E+10	1	-1E+10	1	-1E+10	1	-1E+10	1
4902554	30	C	12/01/2021	02:56	-136.282	49.372	0	1545.10	0	2.3190	0	34.5070	0	27.559	0	1526.286	0	-1e10	8	-1e10	8	-1E+10	1	-1E+10	1	-1E+10	1	-1E+10	1	-1E+10	1	-1E+10	1
4902554	30	C	12/01/2021	02:56	-136.282	49.372	0	1555.00	0	2.3050	0	34.5100	0	27.563	0	1536.029	0	-1e10	8	-1e10	8	-1E+10	1	-1E+10	1	-1E+10	1	-1E+10	1	-1E+10	1	-1E+10	1
4902554	30	C	12/01/2021	02:56	-136.282	49.372	0	1565.00	0	2.2930	0	34.5120	0	27.566	0	1545.871	0	-1e10	8	-1e10	8	-1E+10	1	-1E+10	1	-1E+10	1	-1E+10	1	-1E+10	1	-1E+10	1
4902554	30	C	12/01/2021	02:56	-136.282	49.372	0	1575.00	0	2.2890	0	34.5140	0	27.568	0	1555.712	0	-1e10	8	-1e10	8	-1E+10	1	-1E+10	1	-1E+10	1	-1E+10	1	-1E+10	1	-1E+10	1
4902554	30	C	12/01/2021	02:56	-136.282	49.372	0	1585.40	0	2.2800	0	34.5150	0	27.569	0	1565.946	0	-1e10	8	-1e10	8	-1E+10	1	-1E+10	1	-1E+10	1	-1E+10	1	-1E+10	1	-1E+10	1
4902554	30	C	12/01/2021	02:56	-136.282	49.372	0	1595.50	0	2.2740	0	34.5160	0	27.571	0	1575.884	0	-1e10	8	-1e10	8	-1E+10	1	-1E+10	1	-1E+10	1	-1E+10	1	-1E+10	1	-1E+10	1
4902554	30	C	12/01/2021	02:56	-136.282	49.372	0	1605.60	0	2.2700	0	34.5170	0	27.572	0	1585.822	0	-1e10	8	-1e10	8	-1E+10	1	-1E+10	1	-1E+10	1	-1E+10	1	-1E+10	1	-1E+10	1
4902554	30	C	12/01/2021	02:56	-136.282	49.372	0	1615.60	0	2.2620	0	34.5190	0	27.574	0	1595.662	0	-1e10	8	-1e10	8	-1E+10	1	-1E+10	1	-1E+10	1	-1E+10	1	-1E+10	1	-1E+10	1
4902554	30	C	12/01/2021	02:56	-136.282	49.372	0	1625.20	0	2.2510	0	34.5210	0	27.577	0	1605.107	0	-1e10	8	-1e10	8	-1E+10	1	-1E+10	1	-1E+10	1	-1E+10	1	-1E+10	1	-1E+10	1
4902554	30	C	12/01/2021	02:56	-136.282	49.372	0	1635.00	0	2.2400	0	34.5230	0	27.579	0	1614.748	0	-1e10	8	-1e10	8	-1E+10	1	-1E+10	1	-1E+10	1	-1E+10	1	-1E+10	1	-1E+10	1
4902554	30	C	12/01/2021	02:56	-136.282	49.372	0	1645.30	0	2.2300	0	34.5250	0	27.582	0	1624.881	0	-1e10	8	-1e10	8	-1E+10	1	-1E+10	1	-1E+10	1	-1E+10	1	-1E+10	1	-1E+10	1
4902554	30	C	12/01/2021	02:56	-136.282	49.372	0	1655.60	0	2.2180	0	34.5270	0	27.584	0	1635.014	0	-1e10	8	-1e10	8	-1E+10	1	-1E+10	1	-1E+10	1	-1E+10	1	-1E+10	1	-1E+10	1
4902554	30	C	12/01/2021	02:56	-136.282	49.372	0	1665.40	0	2.2070	0	34.5300	0	27.588	0	1644.654	0	-1e10	8	-1e10	8	-1E+10	1	-1E+10	1	-1E+10	1	-1E+10	1	-1E+10	1	-1E+10	1
4902554	30	C	12/01/2021	02:56	-136.282	49.372	0	1675.30	0	2.1960	0	34.5320	0	27.590	0	1654.392	0	-1e10	8	-1e10	8	-1E+10	1	-1E+10	1	-1E+10	1	-1E+10	1	-1E+10	1	-1E+10	1
4902554	30	C	12/01/2021	02:56	-136.282	49.372	0	1685.10	0	2.1870	0	34.5340	0	27.592	0	1664.031	0	-1e10	8	-1e10	8	-1E+10	1	-1E+10	1	-1E+10	1	-1E+10	1	-1E+10	1	-1E+10	1
4902554	30	C	12/01/2021	02:56	-136.282	49.372	0	1695.40	0	2.1780	0	34.5360	0	27.595	0	1674.162	0	-1e10	8	-1e10	8	-1E+10	1	-1E+10	1	-1E+10	1	-1E+10	1	-1E+10	1	-1E+10	1
4902554	30	C	12/01/2021	02:56	-136.282	49.372	0	1705.50	0	2.1670	0	34.5380	0	27.597	0	1684.095	0	-1e10	8	-1e10	8	-1E+10	1	-1E+10	1	-1E+10	1	-1E+10	1	-1E+10	1	-1E+10	1
4902554	30	C	12/01/2021	02:56	-136.282	49.372	0	1715.40	0	2.1580	0	34.5400	0	27.600	0	1693.831	0	-1e10	8	-1e10	8	-1E+10	1	-1E+10	1	-1E+10	1	-1E+10	1	-1E+10	1	-1E+10	1
4902554	30	C	12/01/2021	02:56	-136.282	49.372	0	1725.30	0	2.1480	0	34.5420	0	27.602	0	1703.567	0	-1e10	8	-1e10	8	-1E+10	1	-1E+10	1	-1E+10	1	-1E+10	1	-1E+10	1	-1E+10	1
4902554	30	C	12/01/2021	02:56	-136.282	49.372	0	1735.40	0	2.1400	0	34.5440	0	27.605	0	1713.499	0	-1e10	8	-1e10	8	-1E+10	1	-1E+10	1	-1E+10	1	-1E+10	1	-1E+10	1	-1E+10	1
4902554	30	C	12/01/2021	02:56	-136.282	49.372	0	1745.40	0	2.1320	0	34.5450	0	27.606	0	1723.332	0	-1e10	8	-1e10	8	-1E+10	1	-1E+10	1	-1E+10	1	-1E+10	1	-1E+10	1	-1E+10	1
4902554	30	C	12/01/2021	02:56	-136.282	49.372	0	1755.60	0	2.1250	0	34.5470	0	27.608	0	1733.362	0	-1e10	8	-1e10	8	-1E+10	1	-1E+10	1	-1E+10	1	-1E+10	1	-1E+10	1	-1E+10	1
4902554	30	C	12/01/2021	02:56	-136.282	49.372	0	1765.30	0	2.1160	0	34.5480	0	27.610	0	1742.899	0	-1e10	8	-1e10	8	-1E+10	1	-1E+10	1	-1E+10	1	-1E+10	1	-1E+10	1	-1E+10	1
4902554	30	C	12/01/2021	02:56	-136.282	49.372	0	1775.30	0	2.1060	0	34.5500	0	27.612	0	1752.731	0	-1e10	8	-1e10	8	-1E+10	1	-1E+10	1	-1E+10	1	-1E+10	1	-1E+10	1	-1E+10	1
4902554	30	C	12/01/2021	02:56	-136.282	49.372	0	1785.50	0	2.0990	0	34.5520	0	27.614	0	1762.759	0	-1e10	8	-1e10	8	-1E+10	1	-1E+10	1	-1E+10	1	-1E+10	1	-1E+10	1	-1E+10	1
4902554	30	C	12/01/2021	02:56	-136.282	49.372	0	1795.60	0	2.0910	0	34.5530	0	27.616	0	1772.688	0	-1e10	8	-1e10	8	-1E+10	1	-1E+10	1	-1E+10	1	-1E+10	1	-1E+10	1	-1E+10	1
4902554	30	C	12/01/2021	02:56	-136.282	49.372	0	1805.40	0	2.0870	0	34.5540	0	27.617	0	1782.322	0	-1e10	8	-1e10	8	-1E+10	1	-1E+10	1	-1E+10	1	-1E+10	1	-1E+10	1	-1E+10	1
4902554	30	C	12/01/2021	02:56	-136.282	49.372	0	1815.40	0	2.0810	0	34.5560	0	27.619	0	1792.152	0	-1e10	8	-1e10	8	-1E+10	1	-1E+10	1	-1E+10	1	-1E+10	1	-1E+10	1	-1E+10	1
4902554	30	C	12/01/2021	02:56	-136.282	49.372	0	1825.40	0	2.0720	0	34.5570	0	27.621	0	1801.982	0	-1e10	8	-1e10	8	-1E+10	1	-1E+10	1	-1E+10	1	-1E+10	1	-1E+10	1	-1E+10	1
4902554	30	C	12/01/2021	02:56	-136.282	49.372	0	1835.50	0	2.0630	0	34.5590	0	27.623	0	1811.909	0	-1e10	8	-1e10	8	-1E+10	1	-1E+10	1	-1E+10	1	-1E+10	1	-1E+10	1	-1E+10	1
4902554	30	C	12/01/2021	02:56	-136.282	49.372	0	1845.40	0	2.0550	0	34.5610	0	27.625	0	1821.639	0	-1e10	8	-1e10	8	-1E+10	1	-1E+10	1	-1E+10	1	-1E+10	1	-1E+10	1	-1E+10	1
4902554	30	C	12/01/2021	02:56	-136.282	49.372	0	1855.30	0	2.0480	0	34.5620	0	27.627	0	1831.369	0	-1e10	8	-1e10	8	-1E+10	1	-1E+10	1	-1E+10	1	-1E+10	1	-1E+10	1	-1E+10	1
4902554	30	C	12/01/2021	02:56	-136.282	49.372	0	1865.70	0	2.0370	0	34.5640	0	27.629	0	1841.590	0	-1e10	8	-1e10	8	-1E+10	1	-1E+10	1	-1E+10	1	-1E+10	1	-1E+10	1	-1E+10	1
4902554	30	C	12/01/2021	02:56	-136.282	49.372	0	1875.60	0	2.0280	0	34.5660	0	27.632	0	1851.319	0	-1e10	8	-1e10	8	-1E+10	1	-1E+10	1	-1E+10	1	-1E+10	1	-1E+10	1	-1E+10	1
4902554	30	C	12/01/2021	02:56	-136.282	49.372	0	1885.20	0	2.0150	0	34.5690	0	27.635	0	1860.753	0	-1e10	8	-1e10	8	-1E+10	1	-1E+10	1	-1E+10	1	-1E+10	1	-1E+10	1	-1E+10	1
4902554	30	C	12/01/2021	02:56	-136.282	49.372	0	1895.40	0	2.0080	0	34.5700	0	27.637	0	1870.776	0	-1e10	8	-1e10	8	-1E+10	1	-1E+10	1	-1E+10	1	-1E+10	1	-1E+10	1	-1E+10	1
4902554	30	C	12/01/2021	02:56	-136.282	49.372	0	1905.40	0	2.0040	0	34.5710	0	27.638	0	1880.602	0	-1e10	8	-1e10	8	-1E+10	1	-1E+10	1	-1E+10	1	-1E+10	1	-1E+10	1	-1E+10	1
4902554	30	C	12/01/2021	02:56	-136.282	49.372	0	1915.00	0	2.0000	0	34.5720	0	27.639	0	1890.034	0	-1e10	8	-1e10	8	-1E+10	1	-1E+10	1	-1E+10	1	-1E+10	1	-1E+10	1	-1E+10	1
4902554	30	C	12/01/2021	02:56	-136.282	49.372	0	1925.50	0	1.9910	0	34.5730	0	27.640	0	1900.350	0	-1e10	8	-1e10	8	-1E+10	1	-1E+10	1	-1E+10	1	-1E+10	1	-1E+10	1	-1E+10	1
4902554	30	C	12/01/2021	02:56	-136.282	49.372	0	1935.20	0	1.9840	0	34.5750	0	27.643	0	1909.880	0	-1e10	8	-1e10	8	-1E+10	1	-1E+10	1	-1E+10	1	-1E+10	1	-1E+10	1	-1E+10	1
4902554	30	C	12/01/2021	02:56	-136.282	49.372	0	1945.40	0	1.9770	0	34.5760	0	27.644	0	1919.901	0	-1e10	8	-1e10	8	-1E+10	1	-1E+10	1	-1E+10	1	-1E+10	1	-1E+10	1	-1E+10	1
4902554	30	C	12/01/2021	02:56	-136.282	49.372	0	1955.70	0	1.9660	0	34.5780	0	27.647	0	1930.019	0	-1e10	8	-1e10	8	-1E+10	1	-1E+10	1	-1E+10	1	-1E+10	1	-1E+10	1	-1E+10	1
4902554	30	C	12/01/2021	02:56	-136.282	49.372	0	1965.40	0	1.9560	0	34.5800	0	27.649	0	1939.548	0	-1e10	8	-1e10	8	-1E+10	1	-1E+10	1	-1E+10	1	-1E+10	1	-1E+10	1	-1E+10	1
4902554	30	C	12/01/2021	02:56	-136.282	49.372	0	1975.40	0	1.9500	0	34.5820	0	27.651	0	1949.370	0	-1e10	8	-1e10	8	-1E+10	1	-1E+10	1	-1E+10	1	-1E+10	1	-1E+10	1	-1E+10	1
4902554	30	C	12/01/2021	02:56	-136.282	49.372	0	1985.80	0	1.9440	0	34.5830	0	27.652	0	1959.586	0	-1e10	8	-1e10	8	-1E+10	1	-1E+10	1	-1E+10	1	-1E+10	1	-1E+10	1	-1E+10	1
4902554	30	C	12/01/2021	02:56	-136.282	49.372	0	1995.60	0	1.9380	0	34.5840	0	27.654	0	1969.211	0	-1e10	8	-1e10	8	-1E+10	1	-1E+10	1	-1E+10	1	-1E+10	1	-1E+10	1	-1E+10	1
4902554	30	C	12/01/2021	02:56	-136.282	49.372	0	2005.30	0	1.9350	0	34.5850	0	27.655	0	1978.738	0	-1e10	8	-1e10	8	-1E+10	1	-1E+10	1	-1E+10	1	-1E+10	1	-1E+10	1	-1E+10	1
4902554	30	C	12/01/2021	02:56	-136.282	49.372	0	2014.30	0	1.9310	0	34.5860	0	27.656	0	1987.577	0	-1e10	8	-1e10	8	-1E+10	1	-1E+10	1	-1E+10	1	-1E+10	1	-1E+10	1	-1E+10	1
4902554	30	C	12/01/2021	02:56	-136.282	49.372	0																										
4902554	31	C	12/11/2021	08:09	-136.284	49.382	0	0.00	0	8.0290	0	32.3080	0	25.156	0	0.000	0	-1e10	8	-1e10	8	-1E+10	1	-1E+10	1	-1E+10	1	-1E+10	1	-1E+10	1	-1E+10	1
4902554	31	C	12/11/2021	08:09	-136.284	49.382	0	0.90	0	8.0300	0	32.3090	0	25.157	0	0.892	0	-1e10	8	-1e10	8	-1E+10	1	-1E+10	1	-1E+10	1	-1E+10	1	-1E+10	1	-1E+10	1
4902554	31	C	12/11/2021	08:09	-136.284	49.382	0	2.00	0	8.0360	0	32.3080	0	25.155	0	1.983	0	-1e10	8	-1e10	8	-1E+10	1	-1E+10	1	-1E+10	1	-1E+10	1	-1E+10	1	-1E+10	1
4902554	31	C	12/11/2021	08:09	-136.284	49.382	0	3.10	0	8.0410	0	32.3030	0	25.151	0	3.074	0	-1e10	8	-1e10	8	-1E+10	1	-1E+10	1	-1E+10	1	-1E+10	1	-1E+10	1	-1E+10	1
4902554	31	C	12/11/2021	08:09	-136.284	49.382	0	4.10	0	8.0390	0	32.3060	0	25.153	0	4.065	0	-1e10	8	-1e10	8	-1E+10	1	-1E+10	1	-1E+10	1	-1E+10	1	-1E+10	1	-1E+10	1
4902554	31	C	12/11/2021	08:09	-136.284	49.382	0	4.80	0	8.0400	0	32.3070	0	25.154	0	4.759	0	-1e10	8	-1e10	8	-1E+10	1	-1E+10	1	-1E+10	1	-1E+10	1	-1E+10	1	-1E+10	1
4902554	31	C	12/11/2021	08:09	-136.284	49.382	0	5.90	0	8.0360	0	32.3070	0	25.155	0	5.850	0	-1e10	8	-1e10	8	-1E+10	1	-1E+10	1	-1E+10	1	-1E+10	1	-1E+10	1	-1E+10	1
4902554	31	C	12/11/2021	08:09	-136.284	49.382	0	7.00	0	8.0380	0	32.3070	0	25.154	0	6.940	0	-1e10	8	-1e10	8	-1E+10	1	-1E+10	1	-1E+10	1	-1E+10	1	-1E+10	1	-1E+10	1
4902554	31	C	12/11/2021	08:09	-136.284	49.382	0	7.90	0	8.0370	0	32.3070	0	25.154	0	7.833	0	-1e10	8	-1e10	8	-1E+10	1	-1E+10	1	-1E+10	1	-1E+10	1	-1E+10	1	-1E+10	1
4902554	31	C	12/11/2021	08:09	-136.284	49.382	0	9.00	0	8.0370	0	32.3070	0	25.155	0	8.923	0	-1e10	8	-1e10	8	-1E+10	1	-1E+10	1	-1E+10	1	-1E+10	1	-1E+10	1	-1E+10	1
4902554	31	C	12/11/2021	08:09	-136.284	49.382	0	10.10	0	8.0360	0	32.3070	0	25.155	0	10.014	0	-1e10	8	-1e10	8	-1E+10	1	-1E+10	1	-1E+10	1	-1E+10	1	-1E+10	1	-1E+10	1
4902554	31	C	12/11/2021	08:09	-136.284	49.382	0	11.10	0	8.0380	0	32.3070	0	25.154	0	11.005	0	-1e10	8	-1e10	8	-1E+10	1	-1E+10	1	-1E+10	1	-1E+10	1	-1E+10	1	-1E+10	1
4902554	31	C	12/11/2021	08:09	-136.284	49.382	0	12.10	0	8.0410	0	32.3070	0	25.154	0	11.997	0	-1e10	8	-1e10	8	-1E+10	1	-1E+10	1	-1E+10	1	-1E+10	1	-1E+10	1	-1E+10	1
4902554	31	C	12/11/2021	08:09	-136.284	49.382	0	13.10	0	8.0420	0	32.3070	0	25.154	0	12.988	0	-1e10	8	-1e10	8	-1E+10	1	-1E+10	1	-1E+10	1	-1E+10	1	-1E+10	1	-1E+10	1
4902554	31	C	12/11/2021	08:09	-136.284	49.382	0	14.00	0	8.0450	0	32.3070	0	25.153	0	13.880	0	-1e10	8	-1e10	8	-1E+10	1	-1E+10	1	-1E+10	1	-1E+10	1	-1E+10	1	-1E+10	1
4902554	31	C	12/11/2021	08:09	-136.284	49.382	0	14.90	0	8.0440	0	32.3070	0	25.154	0	14.773	0	-1e10	8	-1e10	8	-1E+10	1	-1E+10	1	-1E+10	1	-1E+10	1	-1E+10	1	-1E+10	1
4902554	31	C	12/11/2021	08:09	-136.284	49.382	0	15.90	0	8.0440	0	32.3070	0	25.154	0	15.764	0	-1e10	8	-1e10	8	-1E+10	1	-1E+10	1	-1E+10	1	-1E+10	1	-1E+10	1	-1E+10	1
4902554	31	C	12/11/2021	08:09	-136.284	49.382	0	17.00	0	8.0440	0	32.3070	0	25.154	0	16.855	0	-1e10	8	-1e10	8	-1E+10	1	-1E+10	1	-1E+10	1	-1E+10	1	-1E+10	1	-1E+10	1
4902554	31	C	12/11/2021	08:09	-136.284	49.382	0	18.00	0	8.0440	0	32.3070	0	25.154	0	17.846	0	-1e10	8	-1e10	8	-1E+10	1	-1E+10	1	-1E+10	1	-1E+10	1	-1E+10	1	-1E+10	1
4902554	31	C	12/11/2021	08:09	-136.284	49.382	0	19.20	0	8.0440	0	32.3070	0	25.154	0	19.036	0	-1e10	8	-1e10	8	-1E+10	1	-1E+10	1	-1E+10	1	-1E+10	1	-1E+10	1	-1E+10	1
4902554	31	C	12/11/2021	08:09	-136.284	49.382	0	20.00	0	8.0440	0	32.3070	0	25.154	0	19.829	0	-1e10	8	-1e10	8	-1E+10	1	-1E+10	1	-1E+10	1	-1E+10	1	-1E+10	1	-1E+10	1
4902554	31	C	12/11/2021	08:09	-136.284	49.382	0	21.00	0	8.0460	0	32.3070	0	25.153	0	20.820	0	-1e10	8	-1e10	8	-1E+10	1	-1E+10	1	-1E+10	1	-1E+10	1	-1E+10	1	-1E+10	1
4902554	31	C	12/11/2021	08:09	-136.284	49.382	0	22.00	0	8.0460	0	32.3070	0	25.153	0	21.811	0	-1e10	8	-1e10	8	-1E+10	1	-1E+10	1	-1E+10	1	-1E+10	1	-1E+10	1	-1E+10	1
4902554	31	C	12/11/2021	08:09	-136.284	49.382	0	23.10	0	8.0480	0	32.3070	0	25.153	0	22.902	0	-1e10	8	-1e10	8	-1E+10	1	-1E+10	1	-1E+10	1	-1E+10	1	-1E+10	1	-1E+10	1
4902554	31	C	12/11/2021	08:09	-136.284	49.382	0	24.10	0	8.0520	0	32.3060	0	25.152	0	23.893	0	-1e10	8	-1e10	8	-1E+10	1	-1E+10	1	-1E+10	1	-1E+10	1	-1E+10	1	-1E+10	1
4902554	31	C	12/11/2021	08:09	-136.284	49.382	0	25.00	0	8.0520	0	32.3070	0	25.153	0	24.786	0	-1e10	8	-1e10	8	-1E+10	1	-1E+10	1	-1E+10	1	-1E+10	1	-1E+10	1	-1E+10	1
4902554	31	C	12/11/2021	08:09	-136.284	49.382	0	26.00	0	8.0520	0	32.3070	0	25.153	0	25.777	0	-1e10	8	-1e10	8	-1E+10	1	-1E+10	1	-1E+10	1	-1E+10	1	-1E+10	1	-1E+10	1
4902554	31	C	12/11/2021	08:09	-136.284	49.382	0	26.90	0	8.0510	0	32.3070	0	25.153	0	26.669	0	-1e10	8	-1e10	8	-1E+10	1	-1E+10	1	-1E+10	1	-1E+10	1	-1E+10	1	-1E+10	1
4902554	31	C	12/11/2021	08:09	-136.284	49.382	0	28.00	0	8.0510	0	32.3060	0	25.152	0	27.760	0	-1e10	8	-1e10	8	-1E+10	1	-1E+10	1	-1E+10	1	-1E+10	1	-1E+10	1	-1E+10	1
4902554	31	C	12/11/2021	08:09	-136.284	49.382	0	29.10	0	8.0500	0	32.3070	0	25.153	0	28.850	0	-1e10	8	-1e10	8	-1E+10	1	-1E+10	1	-1E+10	1	-1E+10	1	-1E+10	1	-1E+10	1
4902554	31	C	12/11/2021	08:09	-136.284	49.382	0	30.00	0	8.0510	0	32.3070	0	25.153	0	29.742	0	-1e10	8	-1e10	8	-1E+10	1	-1E+10	1	-1E+10	1	-1E+10	1	-1E+10	1	-1E+10	1
4902554	31	C	12/11/2021	08:09	-136.284	49.382	0	30.80	0	8.0490	0	32.3070	0	25.153	0	30.535	0	-1e10	8	-1e10	8	-1E+10	1	-1E+10	1	-1E+10	1	-1E+10	1	-1E+10	1	-1E+10	1
4902554	31	C	12/11/2021	08:09	-136.284	49.382	0	32.00	0	8.0500	0	32.3070	0	25.153	0	31.725	0	-1e10	8	-1e10	8	-1E+10	1	-1E+10	1	-1E+10	1	-1E+10	1	-1E+10	1	-1E+10	1
4902554	31	C	12/11/2021	08:09	-136.284	49.382	0	33.10	0	8.0480	0	32.3070	0	25.153	0	32.815	0	-1e10	8	-1e10	8	-1E+10	1	-1E+10	1	-1E+10	1	-1E+10	1	-1E+10	1	-1E+10	1
4902554	31	C	12/11/2021	08:09	-136.284	49.382	0	34.10	0	8.0490	0	32.3070	0	25.153	0	33.807	0	-1e10	8	-1e10	8	-1E+10	1	-1E+10	1	-1E+10	1	-1E+10	1	-1E+10	1	-1E+10	1
4902554	31	C	12/11/2021	08:09	-136.284	49.382	0	35.00	0	8.0460	0	32.3070	0	25.154	0	34.699	0	-1e10	8	-1e10	8	-1E+10	1	-1E+10	1	-1E+10	1	-1E+10	1	-1E+10	1	-1E+10	1
4902554	31	C	12/11/2021	08:09	-136.284	49.382	0	35.90	0	8.0470	0	32.3070	0	25.153	0	35.591	0	-1e10	8	-1e10	8	-1E+10	1	-1E+10	1	-1E+10	1	-1E+10	1	-1E+10	1	-1E+10	1
4902554	31	C	12/11/2021	08:09	-136.284	49.382	0	36.80	0	8.0490	0	32.3070	0	25.153	0	36.483	0	-1e10	8	-1e10	8	-1E+10	1	-1E+10	1	-1E+10	1	-1E+10	1	-1E+10	1	-1E+10	1
4902554	31	C	12/11/2021	08:09	-136.284	49.382	0	37.80	0	8.0550	0	32.3070	0	25.152	0	37.475	0	-1e10	8	-1e10	8	-1E+10	1	-1E+10	1	-1E+10	1	-1E+10	1	-1E+10	1	-1E+10	1
4902554	31	C	12/11/2021	08:09	-136.284	49.382	0	38.90	0	8.0550	0	32.3070	0	25.152	0	38.565	0	-1e10	8	-1e10	8	-1E+10	1	-1E+10	1	-1E+10	1	-1E+10	1	-1E+10	1	-1E+10	1
4902554	31	C	12/11/2021	08:09	-136.284	49.382	0	39.90	0	8.0550	0	32.3070	0	25.152	0	39.556	0	-1e10	8	-1e10	8	-1E+10	1	-1E+10	1	-1E+10	1	-1E+10	1	-1E+10	1	-1E+10	1
4902554	31	C	12/11/2021	08:09	-136.284	49.382	0	40.80	0	8.0550	0	32.3070	0	25.152	0	40.449	0	-1e10	8	-1e10	8	-1E+10	1	-1E+10	1	-1E+10	1	-1E+10	1	-1E+10	1	-1E+10	1
4902554	31	C	12/11/2021	08:09	-136.284	49.382	0	42.00	0	8.0550	0	32.3070	0	25.152	0	41.638	0	-1e10	8	-1e10	8	-1E+10	1	-1E+10	1	-1E+10	1	-1E+10	1	-1E+10	1	-1E+10	1
4902554	31	C	12/11/2021	08:09	-136.284	49.382	0	43.00	0	8.0550	0	32.3070	0	25.152	0	42.629	0	-1e10	8	-1e10	8	-1E+10	1	-1E+10	1	-1E+10	1	-1E+10	1	-1E+10	1	-1E+10	1
4902554	31	C	12/11/2021	08:09	-136.284	49.382	0	43.90	0	8.0550	0	32.3070	0	25.152	0	43.521	0	-1e10	8	-1e10	8	-1E+10	1	-1E+10	1	-1E+10	1	-1E+10	1	-1E+10	1	-1E+10	1
4902554	31	C	12/11/2021	08:09	-136.284	49.382	0	44.90	0	8.0550	0	32.3070	0	25.152	0	44.513	0	-1e10	8	-1e10	8	-1E+10	1	-1E+10	1	-1E+10	1	-1E+10	1	-1E+10	1	-1E+10	1
4902554	31	C	12/11/2021	08:09	-136.284	49.382	0	45.80	0	8.0550	0	32.3070	0	25.152	0	45.405	0	-1e10	8	-1e10	8	-1E+10	1	-1E+10	1	-1E+10	1	-1E+10	1	-1E+10	1	-1E+10	1
4902554	31	C	12/11/2021	08:09	-136.284	49.382	0	47.00	0	8.0560	0	32.3070	0	25.152	0	46.594	0	-1e10	8	-1e10	8	-1E+10	1	-1E+10	1	-1E+10	1	-1E+10	1	-1E+10	1	-1E+10	1
4902554	31	C	12/11/2021	08:09	-136.284	49.382	0	48.10	0	8.0560	0	32.3070	0	25.152	0	47.685	0	-1e10	8	-1e10	8	-1E+10	1	-1E+10	1	-1E+10	1	-1E+10	1	-1E+10	1	-1E+10	1
4902554	31	C	12/11/2021	08:09	-136.284	49.382	0	48.80	0	8.0560	0	32.3070	0	25.152	0	48.379	0	-1e10	8	-1e10	8	-1E+10	1	-1E+10	1	-1E+10	1	-1E+10	1	-1E+10	1	-1E+10	1
4902554	31	C	12/11/2021	08:09	-136.284	49.382	0	49.90	0	8.0560	0	32.3070	0	25.152	0	49.469	0	-1e10	8	-1e10	8	-1E+10	1	-1E+10	1	-1E+10	1	-1E+10	1	-1E+10	1	-1E+10	1
4902554	31	C	12/11/2021	08:09	-136.284	49.382	0	51.10	0	8.0560	0	32.3070	0	25.152	0	50.659	0	-1e10	8	-1e10	8	-1E+10	1	-1E+10	1	-1E+10	1	-1E+10	1	-1E+10	1	-1E+10	1
4902554	31	C	12/11/2021	08:09	-136.284	49.382	0	51.80	0	8.0560	0	32.3070	0	25.152	0	51.352	0	-1e10	8	-1e10	8	-1E+10	1	-1E+10	1	-1E+10	1	-1E+10	1	-1E+10	1	-1E+10	1
4902554	31	C	12/11/2021	08:09	-136.284	49.382	0	53.00	0	8.0560	0	32.3070	0	25.152	0	52.542	0	-1e10	8	-1e10	8	-1E+10	1	-1E+10	1	-1E+10	1	-1E+10	1	-1E+10	1	-1E+10	1
4902554	31	C	12/11/2021	08:09	-136.284	49.382	0	54.10	0	8.0560	0	32.3070	0	25.152	0	53.632	0	-1e10	8	-1e10	8	-1E+10	1	-1E+10	1	-1E+10	1	-1E+10	1	-1E+10	1	-1E+10	1
4902554	31	C	12/11/2021	08:09	-136.284	49.382	0	54.90	0	8.0570	0	32.3070	0	25.152	0	54.425	0	-1e10	8	-1e10	8	-1E+10	1	-1E+10	1	-1E+10	1	-1E+10	1	-1E+10	1	-1E+10	1
4902554	31	C	12/11/2021	08:09	-136.284	49.382	0	56.00	0	8.0570	0	32.3070	0	25.152	0	55.516	0	-1e10	8	-1e10	8	-1E+10	1	-1E+10	1	-1E+10	1	-1E+10	1	-1E+10	1	-1E+10	1
4902554	31	C	12/11/2021	08:09	-136.284	49.382	0	57.30	0	8.0560	0	32.3070	0	25.152	0	56.804	0	-1e10	8	-1e10	8	-1E+10	1	-1E+10	1	-1E+10	1	-1E+10	1	-1E+10	1	-1E+10	1
4902554	31	C	12/11/2021	08:09	-136.284	49.382	0	58.10	0	8.0570	0	32.3070	0	25.152	0	57.597	0	-1e10	8	-1e10	8	-1E+10	1	-1E+10	1	-1E+10	1	-1E+10	1	-1E+10	1	-1E+10	1
4902554	31	C	12/11/2021	08:09	-136.284	49.382	0	58.90	0	8.0560	0	32.3070	0	25.152	0	58.390	0	-1e10	8	-1e10	8	-1E+10	1	-1E+10	1	-1E+10	1	-1E+10	1	-1E+10	1	-1E+10	1
4902554	31	C	12/11/2021	08:09	-136.284	49.382	0	59.70	0	8.0550	0	32.3070	0	25.153	0	59.183	0	-1e10	8	-1e10	8	-1E+10	1	-1E+10	1	-1E+10	1	-1E+10	1	-1E+10	1	-1E+10	1
4902554	31	C	12/11/2021	08:09	-136.284	49.382	0	61.00	0	8.0550	0	32.3070	0	25.153	0	60.472	0	-1e10	8	-1e10	8	-1E+10	1	-1E+10	1	-1E+10	1	-1E+10	1	-1E+10	1	-1E+10	1
4902554	31	C	12/11/2021	08:09	-136.284	49.382	0	62.30	0	8.0560	0	32.3070	0	25.153	0	61.760	0	-1e10	8	-1e10	8	-1E+10	1	-1E+10	1	-1E+10	1	-1E+10	1	-1E+10	1	-1E+10	1
4902554	31	C	12/11/2021	08:09	-136.284	49.382	0	63.10	0	8.0570	0	32.3080	0	25.153	0	62.553	0	-1e10	8	-1e10	8	-1E+10	1	-1E+10	1	-1E+10	1	-1E+10	1	-1E+10	1	-1E+10	1
4902554	31	C	12/11/2021	08:09	-136.284	49.382	0	63.90	0	8.0560	0	32.3070	0	25.153	0	63.346	0	-1e10	8	-1e10	8	-1E+10	1	-1E+10	1	-1E+10	1	-1E+10	1	-1E+10	1	-1E+10	1
4902554	31	C	12/11/2021	08:09	-136.284	49.382	0	65.00	0	8.0560	0	32.3070	0	25.153	0	64.436	0	-1e10	8	-1e10	8	-1E+10	1	-1E+10	1	-1E+10	1	-1E+10	1	-1E+10	1	-1E+10	1
4902554	31	C	12/11/2021	08:09	-136.284	49.382	0	66.10	0	8.0560	0	32.3070	0	25.153	0	65.527	0	-1e10	8	-1e10	8	-1E+10	1	-1E+10	1	-1E+10	1	-1E+10	1	-1E+10	1	-1E+10	1
4902554	31	C	12/11/2021	08:09	-136.284	49.382	0	66.80	0	8.0560	0	32.3070	0	25.153	0	66.220	0	-1e10	8	-1e10	8	-1E+10	1	-1E+10	1	-1E+10	1	-1E+10	1	-1E+10	1	-1E+10	1
4902554	31	C	12/11/2021	08:09	-136.284	49.382	0	67.80	0	8.0560	0	32.3070	0	25.153	0	67.212	0	-1e10	8	-1e10	8	-1E+10	1	-1E+10	1	-1E+10	1	-1E+10	1	-1E+10	1	-1E+10	1
4902554	31	C	12/11/2021	08:09	-136.284	49.382	0	68.90	0	8.0560	0	32.3070	0	25.153	0	68.302	0	-1e10	8	-1e10	8	-1E+10	1	-1E+10	1	-1E+10	1	-1E+10	1	-1E+10	1	-1E+10	1
4902554	31	C	12/11/2021	08:09	-136.284	49.382	0	69.90	0	8.0550	0	32.3070	0	25.153	0	69.293	0	-1e10	8	-1e10	8	-1E+10	1	-1E+10	1	-1E+10	1	-1E+10	1	-1E+10	1	-1E+10	1
4902554	31	C	12/11/2021	08:09	-136.284	49.382	0	71.00	0	8.0560	0	32.3070	0	25.153	0	70.383	0	-1e10	8	-1e10	8	-1E+10	1	-1E+10	1	-1E+10	1	-1E+10	1	-1E+10	1	-1E+10	1
4902554	31	C	12/11/2021	08:09	-136.284	49.382	0	72.10	0	8.0560	0	32.3060	0	25.152	0	71.473	0	-1e10	8	-1e10	8	-1E+10	1	-1E+10	1	-1E+10	1	-1E+10	1	-1E+10	1	-1E+10	1
4902554	31	C	12/11/2021	08:09	-136.284	49.382	0	73.00	0	8.0350	0	32.3100	0	25.158	0	72.365	0	-1e10	8	-1e10	8	-1E+10	1	-1E+10	1	-1E+10	1	-1E+10	1	-1E+10	1	-1E+10	1
4902554	31	C	12/11/2021	08:09	-136.284	49.382	0	73.90	0	8.0360	0	32.3130	0	25.160	0	73.257	0	-1e10	8	-1e10	8	-1E+10	1	-1E+10	1	-1E+10	1	-1E+10	1	-1E+10	1	-1E+10	1
4902554	31	C	12/11/2021	08:09	-136.284	49.382	0	75.00	0	8.0270	0	32.3160	0	25.164	0	74.348	0	-1e10	8	-1e10	8	-1E+10	1	-1E+10	1	-1E+10	1	-1E+10	1	-1E+10	1	-1E+10	1
4902554	31	C	12/11/2021	08:09	-136.284	49.382	0	76.00	0	8.0190	0	32.3180	0	25.167	0	75.339	0	-1e10	8	-1e10	8	-1E+10	1	-1E+10	1	-1E+10	1	-1E+10	1	-1E+10	1	-1E+10	1
4902554	31	C	12/11/2021	08:09	-136.284	49.382	0	77.00	0	8.0180	0	32.3170	0	25.166	0	76.330	0	-1e10	8	-1e10	8	-1E+10	1	-1E+10	1	-1E+10	1	-1E+10	1	-1E+10	1	-1E+10	1
4902554	31	C	12/11/2021	08:09	-136.284	49.382	0	78.00	0	8.0050	0	32.3200	0	25.170	0	77.321	0	-1e10	8	-1e10	8	-1E+10	1	-1E+10	1	-1E+10	1	-1E+10	1	-1E+10	1	-1E+10	1
4902554	31	C	12/11/2021	08:09	-136.284	49.382	0	79.00	0	7.9180	0	32.3300	0	25.191	0	78.312	0	-1e10	8	-1e10	8	-1E+10	1	-1E+10	1	-1E+10	1	-1E+10	1	-1E+10	1	-1E+10	1
4902554	31	C	12/11/2021	08:09	-136.284	49.382	0	80.00	0	7.7850	0	32.3480	0	25.224	0	79.303	0	-1e10	8	-1e10	8	-1E+10	1	-1E+10	1	-1E+10	1	-1E+10	1	-1E+10	1	-1E+10	1
4902554	31	C	12/11/2021	08:09	-136.284	49.382	0	81.00	0	7.5090	0	32.3810	0	25.288	0	80.294	0	-1e10	8	-1e10	8	-1E+10	1	-1E+10	1	-1E+10	1	-1E+10	1	-1E+10	1	-1E+10	1
4902554	31	C	12/11/2021	08:09	-136.284	49.382	0	81.90	0	7.1730	0	32.4300	0	25.373	0	81.186	0	-1e10	8	-1e10	8	-1E+10	1	-1E+10	1	-1E+10	1	-1E+10	1	-1E+10	1	-1E+10	1
4902554	31	C	12/11/2021	08:09	-136.284	49.382	0	83.00	0	6.8040	0	32.4600	0	25.445	0	82.277	0	-1e10	8	-1e10	8	-1E+10	1	-1E+10	1	-1E+10	1	-1E+10	1	-1E+10	1	-1E+10	1
4902554	31	C	12/11/2021	08:09	-136.284	49.382	0	84.00	0	6.3830	0	32.5120	0	25.541	0	83.268	0	-1e10	8	-1e10	8	-1E+10	1	-1E+10	1	-1E+10	1	-1E+10	1	-1E+10	1	-1E+10	1
4902554	31	C	12/11/2021	08:09	-136.284	49.382	0	85.00	0	6.2320	0	32.5280	0	25.572	0	84.259	0	-1e10	8	-1e10	8	-1E+10	1	-1E+10	1	-1E+10	1	-1E+10	1	-1E+10	1	-1E+10	1
4902554	31	C	12/11/2021	08:09	-136.284	49.382	0	86.00	0	6.1690	0	32.5340	0	25.585	0	85.250	0	-1e10	8	-1e10	8	-1E+10	1	-1E+10	1	-1E+10	1	-1E+10	1	-1E+10	1	-1E+10	1
4902554	31	C	12/11/2021	08:09	-136.284	49.382	0	87.10	0	6.1350	0	32.5410	0	25.594	0	86.340	0	-1e10	8	-1e10	8	-1E+10	1	-1E+10	1	-1E+10	1	-1E+10	1	-1E+10	1	-1E+10	1
4902554	31	C	12/11/2021	08:09	-136.284	49.382	0	87.90	0	6.0790	0	32.5620	0	25.618	0	87.133	0	-1e10	8	-1e10	8	-1E+10	1	-1E+10	1	-1E+10	1	-1E+10	1	-1E+10	1	-1E+10	1
4902554	31	C	12/11/2021	08:09	-136.284	49.382	0	88.70	0	6.0330	0	32.5600	0	25.622	0	87.926	0	-1e10	8	-1e10	8	-1E+10	1	-1E+10	1	-1E+10	1	-1E+10	1	-1E+10	1	-1E+10	1
4902554	31	C	12/11/2021	08:09	-136.284	49.382	0	89.80	0	6.0140	0	32.5650	0	25.628	0	89.016	0	-1e10	8	-1e10	8	-1E+10	1	-1E+10	1	-1E+10	1	-1E+10	1	-1E+10	1	-1E+10	1
4902554	31	C	12/11/2021	08:09	-136.284	49.382	0	90.90	0	6.0050	0	32.5680	0	25.632	0	90.106	0	-1e10	8	-1e10	8	-1E+10	1	-1E+10	1	-1E+10	1	-1E+10	1	-1E+10	1	-1E+10	1
4902554	31	C	12/11/2021	08:09	-136.284	49.382	0	92.00	0	5.9850	0	32.5740	0	25.639	0	91.196	0	-1e10	8	-1e10	8	-1E+10	1	-1E+10	1	-1E+10	1	-1E+10	1	-1E+10	1	-1E+10	1
4902554	31	C	12/11/2021	08:09	-136.284	49.382	0	93.10	0	5.9530	0	32.5870	0	25.653	0	92.286	0	-1e10	8	-1e10	8	-1E+10	1	-1E+10	1	-1E+10	1	-1E+10	1	-1E+10	1	-1E+10	1
4902554	31	C	12/11/2021	08:09	-136.284	49.382	0	94.10	0	5.9290	0	32.6020	0	25.668	0	93.277	0	-1e10	8	-1e10	8	-1E+10	1	-1E+10	1	-1E+10	1	-1E+10	1	-1E+10	1	-1E+10	1
4902554	31	C	12/11/2021	08:09	-136.284	49.382	0	95.40	0	5.9030	0	32.6330	0	25.695	0	94.566	0	-1e10	8	-1e10	8	-1E+10	1	-1E+10	1	-1E+10	1	-1E+10	1	-1E+10	1	-1E+10	1
4902554	31	C	12/11/2021	08:09	-136.284	49.382	0	96.10	0	5.9010	0	32.6400	0	25.701	0	95.259	0	-1e10	8	-1e10	8	-1E+10	1	-1E+10	1	-1E+10	1	-1E+10	1	-1E+10	1	-1E+10	1
4902554	31	C	12/11/2021	08:09	-136.284	49.382	0	97.10	0	5.8980	0	32.6510	0	25.710	0	96.250	0	-1e10	8	-1e10	8	-1E+10	1	-1E+10	1	-1E+10	1	-1E+10	1	-1E+10	1	-1E+10	1
4902554	31	C	12/11/2021	08:09	-136.284	49.382	0	98.00	0	5.8980	0	32.6580	0	25.716	0	97.142	0	-1e10	8	-1e10	8	-1E+10	1	-1E+10	1	-1E+10	1	-1E+10	1	-1E+10	1	-1E+10	1
4902554	31	C	12/11/2021	08:09	-136.284	49.382	0	99.10	0	5.8990	0	32.6760	0	25.730	0	98.232	0	-1e10	8	-1e10	8	-1E+10	1	-1E+10	1	-1E+10	1	-1E+10	1	-1E+10	1	-1E+10	1
4902554	31	C	12/11/2021	08:09	-136.284	49.382	0	100.20	0	5.8810	0	32.7540	0	25.794	0	99.322	0	-1e10	8	-1e10	8	-1E+10	1	-1E+10	1	-1E+10	1	-1E+10	1	-1E+10	1	-1E+10	1
4902554	31	C	12/11/2021	08:09	-136.284	49.382	0	101.10	0	5.8870	0	32.7620	0	25.799	0	100.214	0	-1e10	8	-1e10	8	-1E+10	1	-1E+10	1	-1E+10	1	-1E+10	1	-1E+10	1	-1E+10	1
4902554	31	C	12/11/2021	08:09	-136.284	49.382	0	102.20	0	5.9020	0	32.7730	0	25.806	0	101.304	0	-1e10	8	-1e10	8	-1E+10	1	-1E+10	1	-1E+10	1	-1E+10	1	-1E+10	1	-1E+10	1
4902554	31	C	12/11/2021	08:09	-136.284	49.382	0	103.00	0	5.9060	0	32.7830	0	25.814	0	102.097	0	-1e10	8	-1e10	8	-1E+10	1	-1E+10	1	-1E+10	1	-1E+10	1	-1E+10	1	-1E+10	1
4902554	31	C	12/11/2021	08:09	-136.284	49.382	0	104.20	0	5.9150	0	32.7970	0	25.824	0	103.286	0	-1e10	8	-1e10	8	-1E+10	1	-1E+10	1	-1E+10	1	-1E+10	1	-1E+10	1	-1E+10	1
4902554	31	C	12/11/2021	08:09	-136.284	49.382	0	105.00	0	5.9230	0	32.8170	0	25.839	0	104.079	0	-1e10	8	-1e10	8	-1E+10	1	-1E+10	1	-1E+10	1	-1E+10	1	-1E+10	1	-1E+10	1
4902554	31	C	12/11/2021	08:09	-136.284	49.382	0	106.00	0	5.9420	0	32.8470	0	25.860	0	105.070	0	-1e10	8	-1e10	8	-1E+10	1	-1E+10	1	-1E+10	1	-1E+10	1	-1E+10	1	-1E+10	1
4902554	31	C	12/11/2021	08:09	-136.284	49.382	0	107.10	0	5.9640	0	32.9230	0	25.917	0	106.160	0	-1e10	8	-1e10	8	-1E+10	1	-1E+10	1	-1E+10	1	-1E+10	1	-1E+10	1	-1E+10	1
4902554	31	C	12/11/2021	08:09	-136.284	49.382	0	108.10	0	5.9890	0	33.0330	0	26.001	0	107.151	0	-1e10	8	-1e10	8	-1E+10	1	-1E+10	1	-1E+10	1	-1E+10	1	-1E+10	1	-1E+10	1
4902554	31	C	12/11/2021	08:09	-136.284	49.382	0	109.00	0	5.9970	0	33.0740	0	26.033	0	108.043	0	-1e10	8	-1e10	8	-1E+10	1	-1E+10	1	-1E+10	1	-1E+10	1	-1E+10	1	-1E+10	1
4902554	31	C	12/11/2021	08:09	-136.284	49.382	0	110.00	0	6.0080	0	33.1220	0	26.069	0	109.034	0	-1e10	8	-1e10	8	-1E+10	1	-1E+10	1	-1E+10	1	-1E+10	1	-1E+10	1	-1E+10	1
4902554	31	C	12/11/2021	08:09	-136.284	49.382	0	111.00	0	6.0100	0	33.1310	0	26.076	0	110.025	0	-1e10	8	-1e10	8	-1E+10	1	-1E+10	1	-1E+10	1	-1E+10	1	-1E+10	1	-1E+10	1
4902554	31	C	12/11/2021	08:09	-136.284	49.382	0	112.10	0	6.0150	0	33.1430	0	26.085	0	111.115	0	-1e10	8	-1e10	8	-1E+10	1	-1E+10	1	-1E+10	1	-1E+10	1	-1E+10	1	-1E+10	1
4902554	31	C	12/11/2021	08:09	-136.284	49.382	0	112.90	0	6.0190	0	33.1580	0	26.096	0	111.908	0	-1e10	8	-1e10	8	-1E+10	1	-1E+10	1	-1E+10	1	-1E+10	1	-1E+10	1	-1E+10	1
4902554	31	C	12/11/2021	08:09	-136.284	49.382	0	114.20	0	6.0260	0	33.1890	0	26.120	0	113.196	0	-1e10	8	-1e10	8	-1E+10	1	-1E+10	1	-1E+10	1	-1E+10	1	-1E+10	1	-1E+10	1
4902554	31	C	12/11/2021	08:09	-136.284	49.382	0	115.20	0	6.0340	0	33.2210	0	26.144	0	114.187	0	-1e10	8	-1e10	8	-1E+10	1	-1E+10	1	-1E+10	1	-1E+10	1	-1E+10	1	-1E+10	1
4902554	31	C	12/11/2021	08:09	-136.284	49.382	0	115.90	0	6.0420	0	33.2600	0	26.174	0	114.881	0	-1e10	8	-1e10	8	-1E+10	1	-1E+10	1	-1E+10	1	-1E+10	1	-1E+10	1	-1E+10	1
4902554	31	C	12/11/2021	08:09	-136.284	49.382	0	116.90	0	6.0460	0	33.2890	0	26.196	0	115.872	0	-1e10	8	-1e10	8	-1E+10	1	-1E+10	1	-1E+10	1	-1E+10	1	-1E+10	1	-1E+10	1
4902554	31	C	12/11/2021	08:09	-136.284	49.382	0	117.90	0	6.0470	0	33.3000	0	26.205	0	116.862	0	-1e10	8	-1e10	8	-1E+10	1	-1E+10	1	-1E+10	1	-1E+10	1	-1E+10	1	-1E+10	1
4902554	31	C	12/11/2021	08:09	-136.284	49.382	0	118.90	0	6.0490	0	33.3160	0	26.217	0	117.853	0	-1e10	8	-1e10	8	-1E+10	1	-1E+10	1	-1E+10	1	-1E+10	1	-1E+10	1	-1E+10	1
4902554	31	C	12/11/2021	08:09	-136.284	49.382	0	120.10	0	6.0540	0	33.3410	0	26.237	0	119.042	0	-1e10	8	-1e10	8	-1E+10	1	-1E+10	1	-1E+10	1	-1E+10	1	-1E+10	1	-1E+10	1
4902554	31	C	12/11/2021	08:09	-136.284	49.382	0	121.10	0	6.0560	0	33.3630	0	26.254	0	120.033	0	-1e10	8	-1e10	8	-1E+10	1	-1E+10	1	-1E+10	1	-1E+10	1	-1E+10	1	-1E+10	1
4902554	31	C	12/11/2021	08:09	-136.284	49.382	0	122.00	0	6.0560	0	33.3890	0	26.274	0	120.925	0	-1e10	8	-1e10	8	-1E+10	1	-1E+10	1	-1E+10	1	-1E+10	1	-1E+10	1	-1E+10	1
4902554	31	C	12/11/2021	08:09	-136.284	49.382	0	122.80	0	6.0570	0	33.4010	0	26.284	0	121.718	0	-1e10	8	-1e10	8	-1E+10	1	-1E+10	1	-1E+10	1	-1E+10	1	-1E+10	1	-1E+10	1
4902554	31	C	12/11/2021	08:09	-136.284	49.382	0	123.90	0	6.0580	0	33.4080	0	26.289	0	122.808	0	-1e10	8	-1e10	8	-1E+10	1	-1E+10	1	-1E+10	1	-1E+10	1	-1E+10	1	-1E+10	1
4902554	31	C	12/11/2021	08:09	-136.284	49.382	0	125.00	0	6.0550	0	33.4210	0	26.300	0	123.898	0	-1e10	8	-1e10	8	-1E+10	1	-1E+10	1	-1E+10	1	-1E+10	1	-1E+10	1	-1E+10	1
4902554	31	C	12/11/2021	08:09	-136.284	49.382	0	125.90	0	6.0520	0	33.4360	0	26.312	0	124.790	0	-1e10	8	-1e10	8	-1E+10	1	-1E+10	1	-1E+10	1	-1E+10	1	-1E+10	1	-1E+10	1
4902554	31	C	12/11/2021	08:09	-136.284	49.382	0	126.80	0	6.0370	0	33.4730	0	26.343	0	125.681	0	-1e10	8	-1e10	8	-1E+10	1	-1E+10	1	-1E+10	1	-1E+10	1	-1E+10	1	-1E+10	1
4902554	31	C	12/11/2021	08:09	-136.284	49.382	0	128.00	0	6.0310	0	33.4950	0	26.361	0	126.870	0	-1e10	8	-1e10	8	-1E+10	1	-1E+10	1	-1E+10	1	-1E+10	1	-1E+10	1	-1E+10	1
4902554	31	C	12/11/2021	08:09	-136.284	49.382	0	129.10	0	6.0310	0	33.4950	0	26.361	0	127.960	0	-1e10	8	-1e10	8	-1E+10	1	-1E+10	1	-1E+10	1	-1E+10	1	-1E+10	1	-1E+10	1
4902554	31	C	12/11/2021	08:09	-136.284	49.382	0	130.00	0	6.0230	0	33.5050	0	26.370	0	128.852	0	-1e10	8	-1e10	8	-1E+10	1	-1E+10	1	-1E+10	1	-1E+10	1	-1E+10	1	-1E+10	1
4902554	31	C	12/11/2021	08:09	-136.284	49.382	0	130.90	0	6.0190	0	33.5150	0	26.378	0	129.744	0	-1e10	8	-1e10	8	-1E+10	1	-1E+10	1	-1E+10	1	-1E+10	1	-1E+10	1	-1E+10	1
4902554	31	C	12/11/2021	08:09	-136.284	49.382	0	132.10	0	6.0090	0	33.5340	0	26.395	0	130.933	0	-1e10	8	-1e10	8	-1E+10	1	-1E+10	1	-1E+10	1	-1E+10	1	-1E+10	1	-1E+10	1
4902554	31	C	12/11/2021	08:09	-136.284	49.382	0	133.00	0	5.9950	0	33.5520	0	26.411	0	131.825	0	-1e10	8	-1e10	8	-1E+10	1	-1E+10	1	-1E+10	1	-1E+10	1	-1E+10	1	-1E+10	1
4902554	31	C	12/11/2021	08:09	-136.284	49.382	0	134.00	0	5.9920	0	33.5550	0	26.413	0	132.816	0	-1e10	8	-1e10	8	-1E+10	1	-1E+10	1	-1E+10	1	-1E+10	1	-1E+10	1	-1E+10	1
4902554	31	C	12/11/2021	08:09	-136.284	49.382	0	134.90	0	5.9660	0	33.5760	0	26.433	0	133.707	0	-1e10	8	-1e10	8	-1E+10	1	-1E+10	1	-1E+10	1	-1E+10	1	-1E+10	1	-1E+10	1
4902554	31	C	12/11/2021	08:09	-136.284	49.382	0	135.90	0	5.9670	0	33.5910	0	26.445	0	134.698	0	-1e10	8	-1e10	8	-1E+10	1	-1E+10	1	-1E+10	1	-1E+10	1	-1E+10	1	-1E+10	1
4902554	31	C	12/11/2021	08:09	-136.284	49.382	0	136.90	0	5.9700	0	33.5950	0	26.448	0	135.689	0	-1e10	8	-1e10	8	-1E+10	1	-1E+10	1	-1E+10	1	-1E+10	1	-1E+10	1	-1E+10	1
4902554	31	C	12/11/2021	08:09	-136.284	49.382	0	137.80	0	5.9700	0	33.6040	0	26.455	0	136.581	0	-1e10	8	-1e10	8	-1E+10	1	-1E+10	1	-1E+10	1	-1E+10	1	-1E+10	1	-1E+10	1
4902554	31	C	12/11/2021	08:09	-136.284	49.382	0	139.00	0	5.9470	0	33.6170	0	26.468	0	137.770	0	-1e10	8	-1e10	8	-1E+10	1	-1E+10	1	-1E+10	1	-1E+10	1	-1E+10	1	-1E+10	1
4902554	31	C	12/11/2021	08:09	-136.284	49.382	0	140.00	0	5.9330	0	33.6220	0	26.474	0	138.761	0	-1e10	8	-1e10	8	-1E+10	1	-1E+10	1	-1E+10	1	-1E+10	1	-1E+10	1	-1E+10	1
4902554	31	C	12/11/2021	08:09	-136.284	49.382	0	141.00	0	5.9210	0	33.6280	0	26.480	0	139.751	0	-1e10	8	-1e10	8	-1E+10	1	-1E+10	1	-1E+10	1	-1E+10	1	-1E+10	1	-1E+10	1
4902554	31	C	12/11/2021	08:09	-136.284	49.382	0	142.00	0	5.9120	0	33.6330	0	26.485	0	140.742	0	-1e10	8	-1e10	8	-1E+10	1	-1E+10	1	-1E+10	1	-1E+10	1	-1E+10	1	-1E+10	1
4902554	31	C	12/11/2021	08:09	-136.284	49.382	0	142.90	0	5.9070	0	33.6370	0	26.489	0	141.634	0	-1e10	8	-1e10	8	-1E+10	1	-1E+10	1	-1E+10	1	-1E+10	1	-1E+10	1	-1E+10	1
4902554	31	C	12/11/2021	08:09	-136.284	49.382	0	144.00	0	5.9060	0	33.6400	0	26.491	0	142.724	0	-1e10	8	-1e10	8	-1E+10	1	-1E+10	1	-1E+10	1	-1E+10	1	-1E+10	1	-1E+10	1
4902554	31	C	12/11/2021	08:09	-136.284	49.382	0	144.70	0	5.8920	0	33.6460	0	26.498	0	143.417	0	-1e10	8	-1e10	8	-1E+10	1	-1E+10	1	-1E+10	1	-1E+10	1	-1E+10	1	-1E+10	1
4902554	31	C	12/11/2021	08:09	-136.284	49.382	0	145.90	0	5.8790	0	33.6650	0	26.514	0	144.606	0	-1e10	8	-1e10	8	-1E+10	1	-1E+10	1	-1E+10	1	-1E+10	1	-1E+10	1	-1E+10	1
4902554	31	C	12/11/2021	08:09	-136.284	49.382	0	147.00	0	5.8720	0	33.6730	0	26.522	0	145.696	0	-1e10	8	-1e10	8	-1E+10	1	-1E+10	1	-1E+10	1	-1E+10	1	-1E+10	1	-1E+10	1
4902554	31	C	12/11/2021	08:09	-136.284	49.382	0	147.70	0	5.8690	0	33.6740	0	26.523	0	146.390	0	-1e10	8	-1e10	8	-1E+10	1	-1E+10	1	-1E+10	1	-1E+10	1	-1E+10	1	-1E+10	1
4902554	31	C	12/11/2021	08:09	-136.284	49.382	0	148.80	0	5.8360	0	33.6800	0	26.532	0	147.480	0	-1e10	8	-1e10	8	-1E+10	1	-1E+10	1	-1E+10	1	-1E+10	1	-1E+10	1	-1E+10	1
4902554	31	C	12/11/2021	08:09	-136.284	49.382	0	150.00	0	5.8260	0	33.6840	0	26.536	0	148.668	0	-1e10	8	-1e10	8	-1E+10	1	-1E+10	1	-1E+10	1	-1E+10	1	-1E+10	1	-1E+10	1
4902554	31	C	12/11/2021	08:09	-136.284	49.382	0	150.80	0	5.8210	0	33.6860	0	26.538	0	149.461	0	-1e10	8	-1e10	8	-1E+10	1	-1E+10	1	-1E+10	1	-1E+10	1	-1E+10	1	-1E+10	1
4902554	31	C	12/11/2021	08:09	-136.284	49.382	0	152.00	0	5.8160	0	33.6890	0	26.541	0	150.650	0	-1e10	8	-1e10	8	-1E+10	1	-1E+10	1	-1E+10	1	-1E+10	1	-1E+10	1	-1E+10	1
4902554	31	C	12/11/2021	08:09	-136.284	49.382	0	153.10	0	5.8220	0	33.6910	0	26.542	0	151.740	0	-1e10	8	-1e10	8	-1E+10	1	-1E+10	1	-1E+10	1	-1E+10	1	-1E+10	1	-1E+10	1
4902554	31	C	12/11/2021	08:09	-136.284	49.382	0	154.00	0	5.7920	0	33.7000	0	26.553	0	152.631	0	-1e10	8	-1e10	8	-1E+10	1	-1E+10	1	-1E+10	1	-1E+10	1	-1E+10	1	-1E+10	1
4902554	31	C	12/11/2021	08:09	-136.284	49.382	0	154.80	0	5.7760	0	33.7020	0	26.556	0	153.424	0	-1e10	8	-1e10	8	-1E+10	1	-1E+10	1	-1E+10	1	-1E+10	1	-1E+10	1	-1E+10	1
4902554	31	C	12/11/2021	08:09	-136.284	49.382	0	155.60	0	5.7670	0	33.7060	0	26.561	0	154.217	0	-1e10	8	-1e10	8	-1E+10	1	-1E+10	1	-1E+10	1	-1E+10	1	-1E+10	1	-1E+10	1
4902554	31	C	12/11/2021	08:09	-136.284	49.382	0	156.50	0	5.7670	0	33.7100	0	26.564	0	155.108	0	-1e10	8	-1e10	8	-1E+10	1	-1E+10	1	-1E+10	1	-1E+10	1	-1E+10	1	-1E+10	1
4902554	31	C	12/11/2021	08:09	-136.284	49.382	0	157.90	0	5.7470	0	33.7190	0	26.573	0	156.495	0	-1e10	8	-1e10	8	-1E+10	1	-1E+10	1	-1E+10	1	-1E+10	1	-1E+10	1	-1E+10	1
4902554	31	C	12/11/2021	08:09	-136.284	49.382	0	159.20	0	5.7370	0	33.7190	0	26.575	0	157.783	0	-1e10	8	-1e10	8	-1E+10	1	-1E+10	1	-1E+10	1	-1E+10	1	-1E+10	1	-1E+10	1
4902554	31	C	12/11/2021	08:09	-136.284	49.382	0	160.00	0	5.7300	0	33.7190	0	26.576	0	158.576	0	-1e10	8	-1e10	8	-1E+10	1	-1E+10	1	-1E+10	1	-1E+10	1	-1E+10	1	-1E+10	1
4902554	31	C	12/11/2021	08:09	-136.284	49.382	0	160.80	0	5.7060	0	33.7210	0	26.580	0	159.368	0	-1e10	8	-1e10	8	-1E+10	1	-1E+10	1	-1E+10	1	-1E+10	1	-1E+10	1	-1E+10	1
4902554	31	C	12/11/2021	08:09	-136.284	49.382	0	161.70	0	5.6890	0	33.7260	0	26.586	0	160.260	0	-1e10	8	-1e10	8	-1E+10	1	-1E+10	1	-1E+10	1	-1E+10	1	-1E+10	1	-1E+10	1
4902554	31	C	12/11/2021	08:09	-136.284	49.382	0	162.60	0	5.6730	0	33.7280	0	26.590	0	161.152	0	-1e10	8	-1e10	8	-1E+10	1	-1E+10	1	-1E+10	1	-1E+10	1	-1E+10	1	-1E+10	1
4902554	31	C	12/11/2021	08:09	-136.284	49.382	0	163.90	0	5.6510	0	33.7340	0	26.597	0	162.440	0	-1e10	8	-1e10	8	-1E+10	1	-1E+10	1	-1E+10	1	-1E+10	1	-1E+10	1	-1E+10	1
4902554	31	C	12/11/2021	08:09	-136.284	49.382	0	165.30	0	5.6440	0	33.7370	0	26.600	0	163.827	0	-1e10	8	-1e10	8	-1E+10	1	-1E+10	1	-1E+10	1	-1E+10	1	-1E+10	1	-1E+10	1
4902554	31	C	12/11/2021	08:09	-136.284	49.382	0	166.10	0	5.6420	0	33.7370	0	26.600	0	164.619	0	-1e10	8	-1e10	8	-1E+10	1	-1E+10	1	-1E+10	1	-1E+10	1	-1E+10	1	-1E+10	1
4902554	31	C	12/11/2021	08:09	-136.284	49.382	0	167.00	0	5.6410	0	33.7380	0	26.601	0	165.511	0	-1e10	8	-1e10	8	-1E+10	1	-1E+10	1	-1E+10	1	-1E+10	1	-1E+10	1	-1E+10	1
4902554	31	C	12/11/2021	08:09	-136.284	49.382	0	167.90	0	5.6360	0	33.7390	0	26.603	0	166.402	0	-1e10	8	-1e10	8	-1E+10	1	-1E+10	1	-1E+10	1	-1E+10	1	-1E+10	1	-1E+10	1
4902554	31	C	12/11/2021	08:09	-136.284	49.382	0	168.80	0	5.6340	0	33.7390	0	26.603	0	167.294	0	-1e10	8	-1e10	8	-1E+10	1	-1E+10	1	-1E+10	1	-1E+10	1	-1E+10	1	-1E+10	1
4902554	31	C	12/11/2021	08:09	-136.284	49.382	0	169.80	0	5.6310	0	33.7400	0	26.604	0	168.285	0	-1e10	8	-1e10	8	-1E+10	1	-1E+10	1	-1E+10	1	-1E+10	1	-1E+10	1	-1E+10	1
4902554	31	C	12/11/2021	08:09	-136.284	49.382	0	170.70	0	5.6290	0	33.7390	0	26.604	0	169.176	0	-1e10	8	-1e10	8	-1E+10	1	-1E+10	1	-1E+10	1	-1E+10	1	-1E+10	1	-1E+10	1
4902554	31	C	12/11/2021	08:09	-136.284	49.382	0	172.00	0	5.6270	0	33.7390	0	26.604	0	170.464	0	-1e10	8	-1e10	8	-1E+10	1	-1E+10	1	-1E+10	1	-1E+10	1	-1E+10	1	-1E+10	1
4902554	31	C	12/11/2021	08:09	-136.284	49.382	0	173.30	0	5.6240	0	33.7400	0	26.605	0	171.752	0	-1e10	8	-1e10	8	-1E+10	1	-1E+10	1	-1E+10	1	-1E+10	1	-1E+10	1	-1E+10	1
4902554	31	C	12/11/2021	08:09	-136.284	49.382	0	174.20	0	5.6200	0	33.7410	0	26.606	0	172.643	0	-1e10	8	-1e10	8	-1E+10	1	-1E+10	1	-1E+10	1	-1E+10	1	-1E+10	1	-1E+10	1
4902554	31	C	12/11/2021	08:09	-136.284	49.382	0	175.10	0	5.6100	0	33.7420	0	26.608	0	173.535	0	-1e10	8	-1e10	8	-1E+10	1	-1E+10	1	-1E+10	1	-1E+10	1	-1E+10	1	-1E+10	1
4902554	31	C	12/11/2021	08:09	-136.284	49.382	0	176.00	0	5.6000	0	33.7460	0	26.613	0	174.427	0	-1e10	8	-1e10	8	-1E+10	1	-1E+10	1	-1E+10	1	-1E+10	1	-1E+10	1	-1E+10	1
4902554	31	C	12/11/2021	08:09	-136.284	49.382	0	177.00	0	5.5810	0	33.7470	0	26.616	0	175.417	0	-1e10	8	-1e10	8	-1E+10	1	-1E+10	1	-1E+10	1	-1E+10	1	-1E+10	1	-1E+10	1
4902554	31	C	12/11/2021	08:09	-136.284	49.382	0	177.90	0	5.5770	0	33.7470	0	26.616	0	176.309	0	-1e10	8	-1e10	8	-1E+10	1	-1E+10	1	-1E+10	1	-1E+10	1	-1E+10	1	-1E+10	1
4902554	31	C	12/11/2021	08:09	-136.284	49.382	0	178.80	0	5.5750	0	33.7480	0	26.617	0	177.200	0	-1e10	8	-1e10	8	-1E+10	1	-1E+10	1	-1E+10	1	-1E+10	1	-1E+10	1	-1E+10	1
4902554	31	C	12/11/2021	08:09	-136.284	49.382	0	179.70	0	5.5580	0	33.7500	0	26.621	0	178.092	0	-1e10	8	-1e10	8	-1E+10	1	-1E+10	1	-1E+10	1	-1E+10	1	-1E+10	1	-1E+10	1
4902554	31	C	12/11/2021	08:09	-136.284	49.382	0	180.60	0	5.5490	0	33.7490	0	26.621	0	178.984	0	-1e10	8	-1e10	8	-1E+10	1	-1E+10	1	-1E+10	1	-1E+10	1	-1E+10	1	-1E+10	1
4902554	31	C	12/11/2021	08:09	-136.284	49.382	0	181.90	0	5.5350	0	33.7500	0	26.624	0	180.271	0	-1e10	8	-1e10	8	-1E+10	1	-1E+10	1	-1E+10	1	-1E+10	1	-1E+10	1	-1E+10	1
4902554	31	C	12/11/2021	08:09	-136.284	49.382	0	183.30	0	5.5110	0	33.7530	0	26.629	0	181.658	0	-1e10	8	-1e10	8	-1E+10	1	-1E+10	1	-1E+10	1	-1E+10	1	-1E+10	1	-1E+10	1
4902554	31	C	12/11/2021	08:09	-136.284	49.382	0	184.20	0	5.5040	0	33.7530	0	26.630	0	182.550	0	-1e10	8	-1e10	8	-1E+10	1	-1E+10	1	-1E+10	1	-1E+10	1	-1E+10	1	-1E+10	1
4902554	31	C	12/11/2021	08:09	-136.284	49.382	0	185.00	0	5.4990	0	33.7540	0	26.631	0	183.342	0	-1e10	8	-1e10	8	-1E+10	1	-1E+10	1	-1E+10	1	-1E+10	1	-1E+10	1	-1E+10	1
4902554	31	C	12/11/2021	08:09	-136.284	49.382	0	185.90	0	5.4910	0	33.7550	0	26.633	0	184.234	0	-1e10	8	-1e10	8	-1E+10	1	-1E+10	1	-1E+10	1	-1E+10	1	-1E+10	1	-1E+10	1
4902554	31	C	12/11/2021	08:09	-136.284	49.382	0	186.80	0	5.4820	0	33.7570	0	26.636	0	185.125	0	-1e10	8	-1e10	8	-1E+10	1	-1E+10	1	-1E+10	1	-1E+10	1	-1E+10	1	-1E+10	1
4902554	31	C	12/11/2021	08:09	-136.284	49.382	0	187.70	0	5.4630	0	33.7600	0	26.640	0	186.017	0	-1e10	8	-1e10	8	-1E+10	1	-1E+10	1	-1E+10	1	-1E+10	1	-1E+10	1	-1E+10	1
4902554	31	C	12/11/2021	08:09	-136.284	49.382	0	188.60	0	5.4510	0	33.7590	0	26.641	0	186.908	0	-1e10	8	-1e10	8	-1E+10	1	-1E+10	1	-1E+10	1	-1E+10	1	-1E+10	1	-1E+10	1
4902554	31	C	12/11/2021	08:09	-136.284	49.382	0	189.90	0	5.4440	0	33.7590	0	26.642	0	188.196	0	-1e10	8	-1e10	8	-1E+10	1	-1E+10	1	-1E+10	1	-1E+10	1	-1E+10	1	-1E+10	1
4902554	31	C	12/11/2021	08:09	-136.284	49.382	0	191.20	0	5.4360	0	33.7600	0	26.644	0	189.484	0	-1e10	8	-1e10	8	-1E+10	1	-1E+10	1	-1E+10	1	-1E+10	1	-1E+10	1	-1E+10	1
4902554	31	C	12/11/2021	08:09	-136.284	49.382	0	192.20	0	5.4200	0	33.7630	0	26.648	0	190.474	0	-1e10	8	-1e10	8	-1E+10	1	-1E+10	1	-1E+10	1	-1E+10	1	-1E+10	1	-1E+10	1
4902554	31	C	12/11/2021	08:09	-136.284	49.382	0	193.00	0	5.4090	0	33.7650	0	26.651	0	191.267	0	-1e10	8	-1e10	8	-1E+10	1	-1E+10	1	-1E+10	1	-1E+10	1	-1E+10	1	-1E+10	1
4902554	31	C	12/11/2021	08:09	-136.284	49.382	0	193.90	0	5.3950	0	33.7650	0	26.652	0	192.158	0	-1e10	8	-1e10	8	-1E+10	1	-1E+10	1	-1E+10	1	-1E+10	1	-1E+10	1	-1E+10	1
4902554	31	C	12/11/2021	08:09	-136.284	49.382	0	194.80	0	5.3750	0	33.7680	0	26.657	0	193.050	0	-1e10	8	-1e10	8	-1E+10	1	-1E+10	1	-1E+10	1	-1E+10	1	-1E+10	1	-1E+10	1
4902554	31	C	12/11/2021	08:09	-136.284	49.382	0	195.70	0	5.3710	0	33.7690	0	26.658	0	193.941	0	-1e10	8	-1e10	8	-1E+10	1	-1E+10	1	-1E+10	1	-1E+10	1	-1E+10	1	-1E+10	1
4902554	31	C	12/11/2021	08:09	-136.284	49.382	0	196.60	0	5.3620	0	33.7710	0	26.661	0	194.833	0	-1e10	8	-1e10	8	-1E+10	1	-1E+10	1	-1E+10	1	-1E+10	1	-1E+10	1	-1E+10	1
4902554	31	C	12/11/2021	08:09	-136.284	49.382	0	197.90	0	5.3560	0	33.7720	0	26.663	0	196.120	0	-1e10	8	-1e10	8	-1E+10	1	-1E+10	1	-1E+10	1	-1E+10	1	-1E+10	1	-1E+10	1
4902554	31	C	12/11/2021	08:09	-136.284	49.382	0	199.30	0	5.3570	0	33.7720	0	26.662	0	197.507	0	-1e10	8	-1e10	8	-1E+10	1	-1E+10	1	-1E+10	1	-1E+10	1	-1E+10	1	-1E+10	1
4902554	31	C	12/11/2021	08:09	-136.284	49.382	0	200.20	0	5.3520	0	33.7730	0	26.664	0	198.399	0	-1e10	8	-1e10	8	-1E+10	1	-1E+10	1	-1E+10	1	-1E+10	1	-1E+10	1	-1E+10	1
4902554	31	C	12/11/2021	08:09	-136.284	49.382	0	201.10	0	5.3430	0	33.7730	0	26.665	0	199.290	0	-1e10	8	-1e10	8	-1E+10	1	-1E+10	1	-1E+10	1	-1E+10	1	-1E+10	1	-1E+10	1
4902554	31	C	12/11/2021	08:09	-136.284	49.382	0	202.00	0	5.3260	0	33.7760	0	26.669	0	200.182	0	-1e10	8	-1e10	8	-1E+10	1	-1E+10	1	-1E+10	1	-1E+10	1	-1E+10	1	-1E+10	1
4902554	31	C	12/11/2021	08:09	-136.284	49.382	0	202.90	0	5.3170	0	33.7770	0	26.671	0	201.073	0	-1e10	8	-1e10	8	-1E+10	1	-1E+10	1	-1E+10	1	-1E+10	1	-1E+10	1	-1E+10	1
4902554	31	C	12/11/2021	08:09	-136.284	49.382	0	203.70	0	5.3020	0	33.7790	0	26.674	0	201.866	0	-1e10	8	-1e10	8	-1E+10	1	-1E+10	1	-1E+10	1	-1E+10	1	-1E+10	1	-1E+10	1
4902554	31	C	12/11/2021	08:09	-136.284	49.382	0	204.60	0	5.3010	0	33.7790	0	26.675	0	202.757	0	-1e10	8	-1e10	8	-1E+10	1	-1E+10	1	-1E+10	1	-1E+10	1	-1E+10	1	-1E+10	1
4902554	31	C	12/11/2021	08:09	-136.284	49.382	0	205.90	0	5.3020	0	33.7780	0	26.674	0	204.045	0	-1e10	8	-1e10	8	-1E+10	1	-1E+10	1	-1E+10	1	-1E+10	1	-1E+10	1	-1E+10	1
4902554	31	C	12/11/2021	08:09	-136.284	49.382	0	207.30	0	5.3010	0	33.7780	0	26.674	0	205.431	0	-1e10	8	-1e10	8	-1E+10	1	-1E+10	1	-1E+10	1	-1E+10	1	-1E+10	1	-1E+10	1
4902554	31	C	12/11/2021	08:09	-136.284	49.382	0	208.20	0	5.3010	0	33.7780	0	26.674	0	206.323	0	-1e10	8	-1e10	8	-1E+10	1	-1E+10	1	-1E+10	1	-1E+10	1	-1E+10	1	-1E+10	1
4902554	31	C	12/11/2021	08:09	-136.284	49.382	0	209.10	0	5.2950	0	33.7790	0	26.675	0	207.214	0	-1e10	8	-1e10	8	-1E+10	1	-1E+10	1	-1E+10	1	-1E+10	1	-1E+10	1	-1E+10	1
4902554	31	C	12/11/2021	08:09	-136.284	49.382	0	210.00	0	5.2850	0	33.7810	0	26.678	0	208.106	0	-1e10	8	-1e10	8	-1E+10	1	-1E+10	1	-1E+10	1	-1E+10	1	-1E+10	1	-1E+10	1
4902554	31	C	12/11/2021	08:09	-136.284	49.382	0	210.80	0	5.2710	0	33.7840	0	26.682	0	208.898	0	-1e10	8	-1e10	8	-1E+10	1	-1E+10	1	-1E+10	1	-1E+10	1	-1E+10	1	-1E+10	1
4902554	31	C	12/11/2021	08:09	-136.284	49.382	0	211.70	0	5.2520	0	33.7840	0	26.684	0	209.789	0	-1e10	8	-1e10	8	-1E+10	1	-1E+10	1	-1E+10	1	-1E+10	1	-1E+10	1	-1E+10	1
4902554	31	C	12/11/2021	08:09	-136.284	49.382	0	212.60	0	5.2500	0	33.7850	0	26.685	0	210.681	0	-1e10	8	-1e10	8	-1E+10	1	-1E+10	1	-1E+10	1	-1E+10	1	-1E+10	1	-1E+10	1
4902554	31	C	12/11/2021	08:09	-136.284	49.382	0	213.90	0	5.2340	0	33.7860	0	26.688	0	211.968	0	-1e10	8	-1e10	8	-1E+10	1	-1E+10	1	-1E+10	1	-1E+10	1	-1E+10	1	-1E+10	1
4902554	31	C	12/11/2021	08:09	-136.284	49.382	0	215.30	0	5.2250	0	33.7890	0	26.691	0	213.355	0	-1e10	8	-1e10	8	-1E+10	1	-1E+10	1	-1E+10	1	-1E+10	1	-1E+10	1	-1E+10	1
4902554	31	C	12/11/2021	08:09	-136.284	49.382	0	216.20	0	5.2240	0	33.7870	0	26.690	0	214.246	0	-1e10	8	-1e10	8	-1E+10	1	-1E+10	1	-1E+10	1	-1E+10	1	-1E+10	1	-1E+10	1
4902554	31	C	12/11/2021	08:09	-136.284	49.382	0	217.20	0	5.2220	0	33.7880	0	26.691	0	215.237	0	-1e10	8	-1e10	8	-1E+10	1	-1E+10	1	-1E+10	1	-1E+10	1	-1E+10	1	-1E+10	1
4902554	31	C	12/11/2021	08:09	-136.284	49.382	0	218.00	0	5.2200	0	33.7880	0	26.691	0	216.029	0	-1e10	8	-1e10	8	-1E+10	1	-1E+10	1	-1E+10	1	-1E+10	1	-1E+10	1	-1E+10	1
4902554	31	C	12/11/2021	08:09	-136.284	49.382	0	218.90	0	5.2170	0	33.7880	0	26.692	0	216.921	0	-1e10	8	-1e10	8	-1E+10	1	-1E+10	1	-1E+10	1	-1E+10	1	-1E+10	1	-1E+10	1
4902554	31	C	12/11/2021	08:09	-136.284	49.382	0	219.80	0	5.2130	0	33.7880	0	26.692	0	217.812	0	-1e10	8	-1e10	8	-1E+10	1	-1E+10	1	-1E+10	1	-1E+10	1	-1E+10	1	-1E+10	1
4902554	31	C	12/11/2021	08:09	-136.284	49.382	0	220.80	0	5.1870	0	33.7930	0	26.699	0	218.802	0	-1e10	8	-1e10	8	-1E+10	1	-1E+10	1	-1E+10	1	-1E+10	1	-1E+10	1	-1E+10	1
4902554	31	C	12/11/2021	08:09	-136.284	49.382	0	221.70	0	5.1820	0	33.7960	0	26.702	0	219.694	0	-1e10	8	-1e10	8	-1E+10	1	-1E+10	1	-1E+10	1	-1E+10	1	-1E+10	1	-1E+10	1
4902554	31	C	12/11/2021	08:09	-136.284	49.382	0	222.60	0	5.1820	0	33.7940	0	26.700	0	220.585	0	-1e10	8	-1e10	8	-1E+10	1	-1E+10	1	-1E+10	1	-1E+10	1	-1E+10	1	-1E+10	1
4902554	31	C	12/11/2021	08:09	-136.284	49.382	0	223.90	0	5.1820	0	33.8000	0	26.705	0	221.873	0	-1e10	8	-1e10	8	-1E+10	1	-1E+10	1	-1E+10	1	-1E+10	1	-1E+10	1	-1E+10	1
4902554	31	C	12/11/2021	08:09	-136.284	49.382	0	225.30	0	5.1520	0	33.8050	0	26.713	0	223.259	0	-1e10	8	-1e10	8	-1E+10	1	-1E+10	1	-1E+10	1	-1E+10	1	-1E+10	1	-1E+10	1
4902554	31	C	12/11/2021	08:09	-136.284	49.382	0	226.30	0	5.1410	0	33.8050	0	26.714	0	224.250	0	-1e10	8	-1e10	8	-1E+10	1	-1E+10	1	-1E+10	1	-1E+10	1	-1E+10	1	-1E+10	1
4902554	31	C	12/11/2021	08:09	-136.284	49.382	0	227.20	0	5.1410	0	33.8080	0	26.716	0	225.141	0	-1e10	8	-1e10	8	-1E+10	1	-1E+10	1	-1E+10	1	-1E+10	1	-1E+10	1	-1E+10	1
4902554	31	C	12/11/2021	08:09	-136.284	49.382	0	228.20	0	5.1360	0	33.8080	0	26.717	0	226.131	0	-1e10	8	-1e10	8	-1E+10	1	-1E+10	1	-1E+10	1	-1E+10	1	-1E+10	1	-1E+10	1
4902554	31	C	12/11/2021	08:09	-136.284	49.382	0	229.10	0	5.1330	0	33.8040	0	26.714	0	227.023	0	-1e10	8	-1e10	8	-1E+10	1	-1E+10	1	-1E+10	1	-1E+10	1	-1E+10	1	-1E+10	1
4902554	31	C	12/11/2021	08:09	-136.284	49.382	0	230.10	0	5.1280	0	33.8050	0	26.715	0	228.013	0	-1e10	8	-1e10	8	-1E+10	1	-1E+10	1	-1E+10	1	-1E+10	1	-1E+10	1	-1E+10	1
4902554	31	C	12/11/2021	08:09	-136.284	49.382	0	231.00	0	5.1200	0	33.8050	0	26.716	0	228.905	0	-1e10	8	-1e10	8	-1E+10	1	-1E+10	1	-1E+10	1	-1E+10	1	-1E+10	1	-1E+10	1
4902554	31	C	12/11/2021	08:09	-136.284	49.382	0	231.90	0	5.1090	0	33.8060	0	26.718	0	229.796	0	-1e10	8	-1e10	8	-1E+10	1	-1E+10	1	-1E+10	1	-1E+10	1	-1E+10	1	-1E+10	1
4902554	31	C	12/11/2021	08:09	-136.284	49.382	0	232.90	0	5.0910	0	33.8070	0	26.721	0	230.786	0	-1e10	8	-1e10	8	-1E+10	1	-1E+10	1	-1E+10	1	-1E+10	1	-1E+10	1	-1E+10	1
4902554	31	C	12/11/2021	08:09	-136.284	49.382	0	233.80	0	5.0610	0	33.8070	0	26.725	0	231.678	0	-1e10	8	-1e10	8	-1E+10	1	-1E+10	1	-1E+10	1	-1E+10	1	-1E+10	1	-1E+10	1
4902554	31	C	12/11/2021	08:09	-136.284	49.382	0	234.70	0	5.0590	0	33.8060	0	26.724	0	232.569	0	-1e10	8	-1e10	8	-1E+10	1	-1E+10	1	-1E+10	1	-1E+10	1	-1E+10	1	-1E+10	1
4902554	31	C	12/11/2021	08:09	-136.284	49.382	0	235.70	0	5.0640	0	33.8080	0	26.725	0	233.559	0	-1e10	8	-1e10	8	-1E+10	1	-1E+10	1	-1E+10	1	-1E+10	1	-1E+10	1	-1E+10	1
4902554	31	C	12/11/2021	08:09	-136.284	49.382	0	236.70	0	5.0510	0	33.8100	0	26.728	0	234.550	0	-1e10	8	-1e10	8	-1E+10	1	-1E+10	1	-1E+10	1	-1E+10	1	-1E+10	1	-1E+10	1
4902554	31	C	12/11/2021	08:09	-136.284	49.382	0	237.60	0	5.0450	0	33.8070	0	26.727	0	235.441	0	-1e10	8	-1e10	8	-1E+10	1	-1E+10	1	-1E+10	1	-1E+10	1	-1E+10	1	-1E+10	1
4902554	31	C	12/11/2021	08:09	-136.284	49.382	0	238.60	0	5.0330	0	33.8100	0	26.730	0	236.431	0	-1e10	8	-1e10	8	-1E+10	1	-1E+10	1	-1E+10	1	-1E+10	1	-1E+10	1	-1E+10	1
4902554	31	C	12/11/2021	08:09	-136.284	49.382	0	239.60	0	5.0280	0	33.8110	0	26.732	0	237.422	0	-1e10	8	-1e10	8	-1E+10	1	-1E+10	1	-1E+10	1	-1E+10	1	-1E+10	1	-1E+10	1
4902554	31	C	12/11/2021	08:09	-136.284	49.382	0	240.50	0	5.0230	0	33.8110	0	26.732	0	238.313	0	-1e10	8	-1e10	8	-1E+10	1	-1E+10	1	-1E+10	1	-1E+10	1	-1E+10	1	-1E+10	1
4902554	31	C	12/11/2021	08:09	-136.284	49.382	0	241.50	0	5.0140	0	33.8110	0	26.733	0	239.303	0	-1e10	8	-1e10	8	-1E+10	1	-1E+10	1	-1E+10	1	-1E+10	1	-1E+10	1	-1E+10	1
4902554	31	C	12/11/2021	08:09	-136.284	49.382	0	242.50	0	5.0000	0	33.8140	0	26.737	0	240.294	0	-1e10	8	-1e10	8	-1E+10	1	-1E+10	1	-1E+10	1	-1E+10	1	-1E+10	1	-1E+10	1
4902554	31	C	12/11/2021	08:09	-136.284	49.382	0	243.90	0	4.9870	0	33.8130	0	26.738	0	241.680	0	-1e10	8	-1e10	8	-1E+10	1	-1E+10	1	-1E+10	1	-1E+10	1	-1E+10	1	-1E+10	1
4902554	31	C	12/11/2021	08:09	-136.284	49.382	0	245.40	0	4.9720	0	33.8150	0	26.741	0	243.165	0	-1e10	8	-1e10	8	-1E+10	1	-1E+10	1	-1E+10	1	-1E+10	1	-1E+10	1	-1E+10	1
4902554	31	C	12/11/2021	08:09	-136.284	49.382	0	246.40	0	4.9560	0	33.8170	0	26.745	0	244.156	0	-1e10	8	-1e10	8	-1E+10	1	-1E+10	1	-1E+10	1	-1E+10	1	-1E+10	1	-1E+10	1
4902554	31	C	12/11/2021	08:09	-136.284	49.382	0	247.40	0	4.9460	0	33.8180	0	26.747	0	245.146	0	-1e10	8	-1e10	8	-1E+10	1	-1E+10	1	-1E+10	1	-1E+10	1	-1E+10	1	-1E+10	1
4902554	31	C	12/11/2021	08:09	-136.284	49.382	0	248.40	0	4.9320	0	33.8230	0	26.752	0	246.136	0	-1e10	8	-1e10	8	-1E+10	1	-1E+10	1	-1E+10	1	-1E+10	1	-1E+10	1	-1E+10	1
4902554	31	C	12/11/2021	08:09	-136.284	49.382	0	249.40	0	4.9220	0	33.8270	0	26.756	0	247.127	0	-1e10	8	-1e10	8	-1E+10	1	-1E+10	1	-1E+10	1	-1E+10	1	-1E+10	1	-1E+10	1
4902554	31	C	12/11/2021	08:09	-136.284	49.382	0	250.40	0	4.9180	0	33.8270	0	26.757	0	248.117	0	-1e10	8	-1e10	8	-1E+10	1	-1E+10	1	-1E+10	1	-1E+10	1	-1E+10	1	-1E+10	1
4902554	31	C	12/11/2021	08:09	-136.284	49.382	0	251.40	0	4.9180	0	33.8250	0	26.755	0	249.107	0	-1e10	8	-1e10	8	-1E+10	1	-1E+10	1	-1E+10	1	-1E+10	1	-1E+10	1	-1E+10	1
4902554	31	C	12/11/2021	08:09	-136.284	49.382	0	252.40	0	4.9180	0	33.8250	0	26.755	0	250.097	0	-1e10	8	-1e10	8	-1E+10	1	-1E+10	1	-1E+10	1	-1E+10	1	-1E+10	1	-1E+10	1
4902554	31	C	12/11/2021	08:09	-136.284	49.382	0	253.40	0	4.9170	0	33.8270	0	26.757	0	251.088	0	-1e10	8	-1e10	8	-1E+10	1	-1E+10	1	-1E+10	1	-1E+10	1	-1E+10	1	-1E+10	1
4902554	31	C	12/11/2021	08:09	-136.284	49.382	0	254.40	0	4.9170	0	33.8260	0	26.756	0	252.078	0	-1e10	8	-1e10	8	-1E+10	1	-1E+10	1	-1E+10	1	-1E+10	1	-1E+10	1	-1E+10	1
4902554	31	C	12/11/2021	08:09	-136.284	49.382	0	255.40	0	4.9170	0	33.8260	0	26.756	0	253.068	0	-1e10	8	-1e10	8	-1E+10	1	-1E+10	1	-1E+10	1	-1E+10	1	-1E+10	1	-1E+10	1
4902554	31	C	12/11/2021	08:09	-136.284	49.382	0	256.40	0	4.9170	0	33.8270	0	26.757	0	254.059	0	-1e10	8	-1e10	8	-1E+10	1	-1E+10	1	-1E+10	1	-1E+10	1	-1E+10	1	-1E+10	1
4902554	31	C	12/11/2021	08:09	-136.284	49.382	0	257.40	0	4.9280	0	33.8320	0	26.760	0	255.049	0	-1e10	8	-1e10	8	-1E+10	1	-1E+10	1	-1E+10	1	-1E+10	1	-1E+10	1	-1E+10	1
4902554	31	C	12/11/2021	08:09	-136.284	49.382	0	258.40	0	4.9480	0	33.8420	0	26.765	0	256.039	0	-1e10	8	-1e10	8	-1E+10	1	-1E+10	1	-1E+10	1	-1E+10	1	-1E+10	1	-1E+10	1
4902554	31	C	12/11/2021	08:09	-136.284	49.382	0	259.40	0	4.9440	0	33.8450	0	26.768	0	257.029	0	-1e10	8	-1e10	8	-1E+10	1	-1E+10	1	-1E+10	1	-1E+10	1	-1E+10	1	-1E+10	1
4902554	31	C	12/11/2021	08:09	-136.284	49.382	0	260.40	0	4.9380	0	33.8440	0	26.768	0	258.020	0	-1e10	8	-1e10	8	-1E+10	1	-1E+10	1	-1E+10	1	-1E+10	1	-1E+10	1	-1E+10	1
4902554	31	C	12/11/2021	08:09	-136.284	49.382	0	261.40	0	4.9370	0	33.8440	0	26.768	0	259.010	0	-1e10	8	-1e10	8	-1E+10	1	-1E+10	1	-1E+10	1	-1E+10	1	-1E+10	1	-1E+10	1
4902554	31	C	12/11/2021	08:09	-136.284	49.382	0	262.40	0	4.9330	0	33.8450	0	26.770	0	260.000	0	-1e10	8	-1e10	8	-1E+10	1	-1E+10	1	-1E+10	1	-1E+10	1	-1E+10	1	-1E+10	1
4902554	31	C	12/11/2021	08:09	-136.284	49.382	0	263.40	0	4.9210	0	33.8450	0	26.771	0	260.990	0	-1e10	8	-1e10	8	-1E+10	1	-1E+10	1	-1E+10	1	-1E+10	1	-1E+10	1	-1E+10	1
4902554	31	C	12/11/2021	08:09	-136.284	49.382	0	264.40	0	4.8970	0	33.8480	0	26.776	0	261.980	0	-1e10	8	-1e10	8	-1E+10	1	-1E+10	1	-1E+10	1	-1E+10	1	-1E+10	1	-1E+10	1
4902554	31	C	12/11/2021	08:09	-136.284	49.382	0	265.30	0	4.8980	0	33.8470	0	26.775	0	262.872	0	-1e10	8	-1e10	8	-1E+10	1	-1E+10	1	-1E+10	1	-1E+10	1	-1E+10	1	-1E+10	1
4902554	31	C	12/11/2021	08:09	-136.284	49.382	0	266.40	0	4.8880	0	33.8510	0	26.779	0	263.961	0	-1e10	8	-1e10	8	-1E+10	1	-1E+10	1	-1E+10	1	-1E+10	1	-1E+10	1	-1E+10	1
4902554	31	C	12/11/2021	08:09	-136.284	49.382	0	267.30	0	4.8830	0	33.8500	0	26.779	0	264.852	0	-1e10	8	-1e10	8	-1E+10	1	-1E+10	1	-1E+10	1	-1E+10	1	-1E+10	1	-1E+10	1
4902554	31	C	12/11/2021	08:09	-136.284	49.382	0	268.40	0	4.8810	0	33.8500	0	26.779	0	265.941	0	-1e10	8	-1e10	8	-1E+10	1	-1E+10	1	-1E+10	1	-1E+10	1	-1E+10	1	-1E+10	1
4902554	31	C	12/11/2021	08:09	-136.284	49.382	0	269.40	0	4.8740	0	33.8500	0	26.780	0	266.931	0	-1e10	8	-1e10	8	-1E+10	1	-1E+10	1	-1E+10	1	-1E+10	1	-1E+10	1	-1E+10	1
4902554	31	C	12/11/2021	08:09	-136.284	49.382	0	270.40	0	4.8730	0	33.8500	0	26.780	0	267.922	0	-1e10	8	-1e10	8	-1E+10	1	-1E+10	1	-1E+10	1	-1E+10	1	-1E+10	1	-1E+10	1
4902554	31	C	12/11/2021	08:09	-136.284	49.382	0	271.40	0	4.8500	0	33.8540	0	26.786	0	268.912	0	-1e10	8	-1e10	8	-1E+10	1	-1E+10	1	-1E+10	1	-1E+10	1	-1E+10	1	-1E+10	1
4902554	31	C	12/11/2021	08:09	-136.284	49.382	0	272.40	0	4.8450	0	33.8530	0	26.786	0	269.902	0	-1e10	8	-1e10	8	-1E+10	1	-1E+10	1	-1E+10	1	-1E+10	1	-1E+10	1	-1E+10	1
4902554	31	C	12/11/2021	08:09	-136.284	49.382	0	273.40	0	4.8440	0	33.8530	0	26.786	0	270.892	0	-1e10	8	-1e10	8	-1E+10	1	-1E+10	1	-1E+10	1	-1E+10	1	-1E+10	1	-1E+10	1
4902554	31	C	12/11/2021	08:09	-136.284	49.382	0	274.40	0	4.8410	0	33.8530	0	26.786	0	271.882	0	-1e10	8	-1e10	8	-1E+10	1	-1E+10	1	-1E+10	1	-1E+10	1	-1E+10	1	-1E+10	1
4902554	31	C	12/11/2021	08:09	-136.284	49.382	0	275.90	0	4.8570	0	33.8540	0	26.785	0	273.368	0	-1e10	8	-1e10	8	-1E+10	1	-1E+10	1	-1E+10	1	-1E+10	1	-1E+10	1	-1E+10	1
4902554	31	C	12/11/2021	08:09	-136.284	49.382	0	277.50	0	4.8570	0	33.8630	0	26.792	0	274.952	0	-1e10	8	-1e10	8	-1E+10	1	-1E+10	1	-1E+10	1	-1E+10	1	-1E+10	1	-1E+10	1
4902554	31	C	12/11/2021	08:09	-136.284	49.382	0	278.50	0	4.8470	0	33.8640	0	26.794	0	275.942	0	-1e10	8	-1e10	8	-1E+10	1	-1E+10	1	-1E+10	1	-1E+10	1	-1E+10	1	-1E+10	1
4902554	31	C	12/11/2021	08:09	-136.284	49.382	0	279.50	0	4.8220	0	33.8640	0	26.797	0	276.932	0	-1e10	8	-1e10	8	-1E+10	1	-1E+10	1	-1E+10	1	-1E+10	1	-1E+10	1	-1E+10	1
4902554	31	C	12/11/2021	08:09	-136.284	49.382	0	280.50	0	4.8030	0	33.8650	0	26.800	0	277.922	0	-1e10	8	-1e10	8	-1E+10	1	-1E+10	1	-1E+10	1	-1E+10	1	-1E+10	1	-1E+10	1
4902554	31	C	12/11/2021	08:09	-136.284	49.382	0	281.50	0	4.8030	0	33.8600	0	26.796	0	278.912	0	-1e10	8	-1e10	8	-1E+10	1	-1E+10	1	-1E+10	1	-1E+10	1	-1E+10	1	-1E+10	1
4902554	31	C	12/11/2021	08:09	-136.284	49.382	0	282.60	0	4.7950	0	33.8600	0	26.797	0	280.002	0	-1e10	8	-1e10	8	-1E+10	1	-1E+10	1	-1E+10	1	-1E+10	1	-1E+10	1	-1E+10	1
4902554	31	C	12/11/2021	08:09	-136.284	49.382	0	283.60	0	4.7900	0	33.8610	0	26.798	0	280.992	0	-1e10	8	-1e10	8	-1E+10	1	-1E+10	1	-1E+10	1	-1E+10	1	-1E+10	1	-1E+10	1
4902554	31	C	12/11/2021	08:09	-136.284	49.382	0	284.70	0	4.7860	0	33.8640	0	26.801	0	282.081	0	-1e10	8	-1e10	8	-1E+10	1	-1E+10	1	-1E+10	1	-1E+10	1	-1E+10	1	-1E+10	1
4902554	31	C	12/11/2021	08:09	-136.284	49.382	0	285.70	0	4.7790	0	33.8640	0	26.802	0	283.071	0	-1e10	8	-1e10	8	-1E+10	1	-1E+10	1	-1E+10	1	-1E+10	1	-1E+10	1	-1E+10	1
4902554	31	C	12/11/2021	08:09	-136.284	49.382	0	286.70	0	4.7840	0	33.8640	0	26.801	0	284.061	0	-1e10	8	-1e10	8	-1E+10	1	-1E+10	1	-1E+10	1	-1E+10	1	-1E+10	1	-1E+10	1
4902554	31	C	12/11/2021	08:09	-136.284	49.382	0	287.80	0	4.7810	0	33.8660	0	26.803	0	285.150	0	-1e10	8	-1e10	8	-1E+10	1	-1E+10	1	-1E+10	1	-1E+10	1	-1E+10	1	-1E+10	1
4902554	31	C	12/11/2021	08:09	-136.284	49.382	0	288.80	0	4.7430	0	33.8710	0	26.812	0	286.140	0	-1e10	8	-1e10	8	-1E+10	1	-1E+10	1	-1E+10	1	-1E+10	1	-1E+10	1	-1E+10	1
4902554	31	C	12/11/2021	08:09	-136.284	49.382	0	289.80	0	4.7560	0	33.8730	0	26.812	0	287.130	0	-1e10	8	-1e10	8	-1E+10	1	-1E+10	1	-1E+10	1	-1E+10	1	-1E+10	1	-1E+10	1
4902554	31	C	12/11/2021	08:09	-136.284	49.382	0	290.90	0	4.7480	0	33.8730	0	26.813	0	288.219	0	-1e10	8	-1e10	8	-1E+10	1	-1E+10	1	-1E+10	1	-1E+10	1	-1E+10	1	-1E+10	1
4902554	31	C	12/11/2021	08:09	-136.284	49.382	0	291.90	0	4.7480	0	33.8760	0	26.815	0	289.210	0	-1e10	8	-1e10	8	-1E+10	1	-1E+10	1	-1E+10	1	-1E+10	1	-1E+10	1	-1E+10	1
4902554	31	C	12/11/2021	08:09	-136.284	49.382	0	293.00	0	4.7480	0	33.8770	0	26.816	0	290.299	0	-1e10	8	-1e10	8	-1E+10	1	-1E+10	1	-1E+10	1	-1E+10	1	-1E+10	1	-1E+10	1
4902554	31	C	12/11/2021	08:09	-136.284	49.382	0	294.00	0	4.7410	0	33.8770	0	26.817	0	291.289	0	-1e10	8	-1e10	8	-1E+10	1	-1E+10	1	-1E+10	1	-1E+10	1	-1E+10	1	-1E+10	1
4902554	31	C	12/11/2021	08:09	-136.284	49.382	0	295.10	0	4.7370	0	33.8770	0	26.817	0	292.378	0	-1e10	8	-1e10	8	-1E+10	1	-1E+10	1	-1E+10	1	-1E+10	1	-1E+10	1	-1E+10	1
4902554	31	C	12/11/2021	08:09	-136.284	49.382	0	296.10	0	4.7270	0	33.8760	0	26.817	0	293.368	0	-1e10	8	-1e10	8	-1E+10	1	-1E+10	1	-1E+10	1	-1E+10	1	-1E+10	1	-1E+10	1
4902554	31	C	12/11/2021	08:09	-136.284	49.382	0	297.20	0	4.6850	0	33.8760	0	26.822	0	294.457	0	-1e10	8	-1e10	8	-1E+10	1	-1E+10	1	-1E+10	1	-1E+10	1	-1E+10	1	-1E+10	1
4902554	31	C	12/11/2021	08:09	-136.284	49.382	0	298.20	0	4.6780	0	33.8750	0	26.822	0	295.447	0	-1e10	8	-1e10	8	-1E+10	1	-1E+10	1	-1E+10	1	-1E+10	1	-1E+10	1	-1E+10	1
4902554	31	C	12/11/2021	08:09	-136.284	49.382	0	299.20	0	4.6870	0	33.8770	0	26.823	0	296.437	0	-1e10	8	-1e10	8	-1E+10	1	-1E+10	1	-1E+10	1	-1E+10	1	-1E+10	1	-1E+10	1
4902554	31	C	12/11/2021	08:09	-136.284	49.382	0	300.20	0	4.6900	0	33.8790	0	26.824	0	297.427	0	-1e10	8	-1e10	8	-1E+10	1	-1E+10	1	-1E+10	1	-1E+10	1	-1E+10	1	-1E+10	1
4902554	31	C	12/11/2021	08:09	-136.284	49.382	0	301.20	0	4.6910	0	33.8820	0	26.826	0	298.417	0	-1e10	8	-1e10	8	-1E+10	1	-1E+10	1	-1E+10	1	-1E+10	1	-1E+10	1	-1E+10	1
4902554	31	C	12/11/2021	08:09	-136.284	49.382	0	302.10	0	4.6950	0	33.8840	0	26.827	0	299.308	0	-1e10	8	-1e10	8	-1E+10	1	-1E+10	1	-1E+10	1	-1E+10	1	-1E+10	1	-1E+10	1
4902554	31	C	12/11/2021	08:09	-136.284	49.382	0	302.90	0	4.6870	0	33.8860	0	26.830	0	300.100	0	-1e10	8	-1e10	8	-1E+10	1	-1E+10	1	-1E+10	1	-1E+10	1	-1E+10	1	-1E+10	1
4902554	31	C	12/11/2021	08:09	-136.284	49.382	0	303.70	0	4.6820	0	33.8870	0	26.831	0	300.892	0	-1e10	8	-1e10	8	-1E+10	1	-1E+10	1	-1E+10	1	-1E+10	1	-1E+10	1	-1E+10	1
4902554	31	C	12/11/2021	08:09	-136.284	49.382	0	304.80	0	4.6740	0	33.8890	0	26.834	0	301.981	0	-1e10	8	-1e10	8	-1E+10	1	-1E+10	1	-1E+10	1	-1E+10	1	-1E+10	1	-1E+10	1
4902554	31	C	12/11/2021	08:09	-136.284	49.382	0	306.00	0	4.6590	0	33.8910	0	26.837	0	303.169	0	-1e10	8	-1e10	8	-1E+10	1	-1E+10	1	-1E+10	1	-1E+10	1	-1E+10	1	-1E+10	1
4902554	31	C	12/11/2021	08:09	-136.284	49.382	0	306.70	0	4.6630	0	33.8920	0	26.837	0	303.862	0	-1e10	8	-1e10	8	-1E+10	1	-1E+10	1	-1E+10	1	-1E+10	1	-1E+10	1	-1E+10	1
4902554	31	C	12/11/2021	08:09	-136.284	49.382	0	307.90	0	4.6640	0	33.8920	0	26.837	0	305.050	0	-1e10	8	-1e10	8	-1E+10	1	-1E+10	1	-1E+10	1	-1E+10	1	-1E+10	1	-1E+10	1
4902554	31	C	12/11/2021	08:09	-136.284	49.382	0	309.00	0	4.6670	0	33.8960	0	26.840	0	306.139	0	-1e10	8	-1e10	8	-1E+10	1	-1E+10	1	-1E+10	1	-1E+10	1	-1E+10	1	-1E+10	1
4902554	31	C	12/11/2021	08:09	-136.284	49.382	0	309.80	0	4.6620	0	33.8970	0	26.841	0	306.931	0	-1e10	8	-1e10	8	-1E+10	1	-1E+10	1	-1E+10	1	-1E+10	1	-1E+10	1	-1E+10	1
4902554	31	C	12/11/2021	08:09	-136.284	49.382	0	310.90	0	4.6500	0	33.8990	0	26.844	0	308.020	0	-1e10	8	-1e10	8	-1E+10	1	-1E+10	1	-1E+10	1	-1E+10	1	-1E+10	1	-1E+10	1
4902554	31	C	12/11/2021	08:09	-136.284	49.382	0	312.10	0	4.6430	0	33.9010	0	26.847	0	309.208	0	-1e10	8	-1e10	8	-1E+10	1	-1E+10	1	-1E+10	1	-1E+10	1	-1E+10	1	-1E+10	1
4902554	31	C	12/11/2021	08:09	-136.284	49.382	0	312.90	0	4.6400	0	33.9020	0	26.848	0	310.000	0	-1e10	8	-1e10	8	-1E+10	1	-1E+10	1	-1E+10	1	-1E+10	1	-1E+10	1	-1E+10	1
4902554	31	C	12/11/2021	08:09	-136.284	49.382	0	313.70	0	4.6380	0	33.9020	0	26.848	0	310.792	0	-1e10	8	-1e10	8	-1E+10	1	-1E+10	1	-1E+10	1	-1E+10	1	-1E+10	1	-1E+10	1
4902554	31	C	12/11/2021	08:09	-136.284	49.382	0	314.80	0	4.6250	0	33.9050	0	26.852	0	311.881	0	-1e10	8	-1e10	8	-1E+10	1	-1E+10	1	-1E+10	1	-1E+10	1	-1E+10	1	-1E+10	1
4902554	31	C	12/11/2021	08:09	-136.284	49.382	0	316.10	0	4.6140	0	33.9080	0	26.855	0	313.168	0	-1e10	8	-1e10	8	-1E+10	1	-1E+10	1	-1E+10	1	-1E+10	1	-1E+10	1	-1E+10	1
4902554	31	C	12/11/2021	08:09	-136.284	49.382	0	316.90	0	4.6110	0	33.9100	0	26.857	0	313.960	0	-1e10	8	-1e10	8	-1E+10	1	-1E+10	1	-1E+10	1	-1E+10	1	-1E+10	1	-1E+10	1
4902554	31	C	12/11/2021	08:09	-136.284	49.382	0	317.80	0	4.6100	0	33.9110	0	26.858	0	314.851	0	-1e10	8	-1e10	8	-1E+10	1	-1E+10	1	-1E+10	1	-1E+10	1	-1E+10	1	-1E+10	1
4902554	31	C	12/11/2021	08:09	-136.284	49.382	0	319.00	0	4.6070	0	33.9110	0	26.858	0	316.039	0	-1e10	8	-1e10	8	-1E+10	1	-1E+10	1	-1E+10	1	-1E+10	1	-1E+10	1	-1E+10	1
4902554	31	C	12/11/2021	08:09	-136.284	49.382	0	320.30	0	4.6050	0	33.9110	0	26.859	0	317.326	0	-1e10	8	-1e10	8	-1E+10	1	-1E+10	1	-1E+10	1	-1E+10	1	-1E+10	1	-1E+10	1
4902554	31	C	12/11/2021	08:09	-136.284	49.382	0	321.10	0	4.6040	0	33.9120	0	26.860	0	318.118	0	-1e10	8	-1e10	8	-1E+10	1	-1E+10	1	-1E+10	1	-1E+10	1	-1E+10	1	-1E+10	1
4902554	31	C	12/11/2021	08:09	-136.284	49.382	0	322.00	0	4.6020	0	33.9120	0	26.860	0	319.009	0	-1e10	8	-1e10	8	-1E+10	1	-1E+10	1	-1E+10	1	-1E+10	1	-1E+10	1	-1E+10	1
4902554	31	C	12/11/2021	08:09	-136.284	49.382	0	322.90	0	4.6010	0	33.9130	0	26.861	0	319.900	0	-1e10	8	-1e10	8	-1E+10	1	-1E+10	1	-1E+10	1	-1E+10	1	-1E+10	1	-1E+10	1
4902554	31	C	12/11/2021	08:09	-136.284	49.382	0	323.70	0	4.6010	0	33.9130	0	26.861	0	320.692	0	-1e10	8	-1e10	8	-1E+10	1	-1E+10	1	-1E+10	1	-1E+10	1	-1E+10	1	-1E+10	1
4902554	31	C	12/11/2021	08:09	-136.284	49.382	0	325.00	0	4.6000	0	33.9130	0	26.861	0	321.979	0	-1e10	8	-1e10	8	-1E+10	1	-1E+10	1	-1E+10	1	-1E+10	1	-1E+10	1	-1E+10	1
4902554	31	C	12/11/2021	08:09	-136.284	49.382	0	326.30	0	4.6000	0	33.9130	0	26.861	0	323.266	0	-1e10	8	-1e10	8	-1E+10	1	-1E+10	1	-1E+10	1	-1E+10	1	-1E+10	1	-1E+10	1
4902554	31	C	12/11/2021	08:09	-136.284	49.382	0	327.10	0	4.5990	0	33.9130	0	26.861	0	324.058	0	-1e10	8	-1e10	8	-1E+10	1	-1E+10	1	-1E+10	1	-1E+10	1	-1E+10	1	-1E+10	1
4902554	31	C	12/11/2021	08:09	-136.284	49.382	0	327.90	0	4.5960	0	33.9150	0	26.863	0	324.850	0	-1e10	8	-1e10	8	-1E+10	1	-1E+10	1	-1E+10	1	-1E+10	1	-1E+10	1	-1E+10	1
4902554	31	C	12/11/2021	08:09	-136.284	49.382	0	328.80	0	4.5910	0	33.9170	0	26.865	0	325.740	0	-1e10	8	-1e10	8	-1E+10	1	-1E+10	1	-1E+10	1	-1E+10	1	-1E+10	1	-1E+10	1
4902554	31	C	12/11/2021	08:09	-136.284	49.382	0	329.60	0	4.5870	0	33.9170	0	26.865	0	326.532	0	-1e10	8	-1e10	8	-1E+10	1	-1E+10	1	-1E+10	1	-1E+10	1	-1E+10	1	-1E+10	1
4902554	31	C	12/11/2021	08:09	-136.284	49.382	0	330.90	0	4.5840	0	33.9180	0	26.867	0	327.819	0	-1e10	8	-1e10	8	-1E+10	1	-1E+10	1	-1E+10	1	-1E+10	1	-1E+10	1	-1E+10	1
4902554	31	C	12/11/2021	08:09	-136.284	49.382	0	332.20	0	4.5810	0	33.9190	0	26.868	0	329.106	0	-1e10	8	-1e10	8	-1E+10	1	-1E+10	1	-1E+10	1	-1E+10	1	-1E+10	1	-1E+10	1
4902554	31	C	12/11/2021	08:09	-136.284	49.382	0	333.10	0	4.5790	0	33.9200	0	26.869	0	329.997	0	-1e10	8	-1e10	8	-1E+10	1	-1E+10	1	-1E+10	1	-1E+10	1	-1E+10	1	-1E+10	1
4902554	31	C	12/11/2021	08:09	-136.284	49.382	0	333.90	0	4.5750	0	33.9210	0	26.870	0	330.789	0	-1e10	8	-1e10	8	-1E+10	1	-1E+10	1	-1E+10	1	-1E+10	1	-1E+10	1	-1E+10	1
4902554	31	C	12/11/2021	08:09	-136.284	49.382	0	334.80	0	4.5710	0	33.9220	0	26.871	0	331.680	0	-1e10	8	-1e10	8	-1E+10	1	-1E+10	1	-1E+10	1	-1E+10	1	-1E+10	1	-1E+10	1
4902554	31	C	12/11/2021	08:09	-136.284	49.382	0	335.70	0	4.5700	0	33.9220	0	26.871	0	332.571	0	-1e10	8	-1e10	8	-1E+10	1	-1E+10	1	-1E+10	1	-1E+10	1	-1E+10	1	-1E+10	1
4902554	31	C	12/11/2021	08:09	-136.284	49.382	0	336.60	0	4.5680	0	33.9220	0	26.872	0	333.462	0	-1e10	8	-1e10	8	-1E+10	1	-1E+10	1	-1E+10	1	-1E+10	1	-1E+10	1	-1E+10	1
4902554	31	C	12/11/2021	08:09	-136.284	49.382	0	337.90	0	4.5580	0	33.9240	0	26.874	0	334.748	0	-1e10	8	-1e10	8	-1E+10	1	-1E+10	1	-1E+10	1	-1E+10	1	-1E+10	1	-1E+10	1
4902554	31	C	12/11/2021	08:09	-136.284	49.382	0	339.30	0	4.5460	0	33.9280	0	26.879	0	336.134	0	-1e10	8	-1e10	8	-1E+10	1	-1E+10	1	-1E+10	1	-1E+10	1	-1E+10	1	-1E+10	1
4902554	31	C	12/11/2021	08:09	-136.284	49.382	0	340.20	0	4.5440	0	33.9290	0	26.880	0	337.025	0	-1e10	8	-1e10	8	-1E+10	1	-1E+10	1	-1E+10	1	-1E+10	1	-1E+10	1	-1E+10	1
4902554	31	C	12/11/2021	08:09	-136.284	49.382	0	341.20	0	4.5380	0	33.9320	0	26.883	0	338.015	0	-1e10	8	-1e10	8	-1E+10	1	-1E+10	1	-1E+10	1	-1E+10	1	-1E+10	1	-1E+10	1
4902554	31	C	12/11/2021	08:09	-136.284	49.382	0	342.10	0	4.5360	0	33.9320	0	26.883	0	338.906	0	-1e10	8	-1e10	8	-1E+10	1	-1E+10	1	-1E+10	1	-1E+10	1	-1E+10	1	-1E+10	1
4902554	31	C	12/11/2021	08:09	-136.284	49.382	0	343.00	0	4.5350	0	33.9320	0	26.883	0	339.797	0	-1e10	8	-1e10	8	-1E+10	1	-1E+10	1	-1E+10	1	-1E+10	1	-1E+10	1	-1E+10	1
4902554	31	C	12/11/2021	08:09	-136.284	49.382	0	343.90	0	4.5310	0	33.9330	0	26.884	0	340.688	0	-1e10	8	-1e10	8	-1E+10	1	-1E+10	1	-1E+10	1	-1E+10	1	-1E+10	1	-1E+10	1
4902554	31	C	12/11/2021	08:09	-136.284	49.382	0	344.80	0	4.5290	0	33.9340	0	26.885	0	341.578	0	-1e10	8	-1e10	8	-1E+10	1	-1E+10	1	-1E+10	1	-1E+10	1	-1E+10	1	-1E+10	1
4902554	31	C	12/11/2021	08:09	-136.284	49.382	0	345.70	0	4.5260	0	33.9350	0	26.886	0	342.469	0	-1e10	8	-1e10	8	-1E+10	1	-1E+10	1	-1E+10	1	-1E+10	1	-1E+10	1	-1E+10	1
4902554	31	C	12/11/2021	08:09	-136.284	49.382	0	346.60	0	4.5130	0	33.9390	0	26.891	0	343.360	0	-1e10	8	-1e10	8	-1E+10	1	-1E+10	1	-1E+10	1	-1E+10	1	-1E+10	1	-1E+10	1
4902554	31	C	12/11/2021	08:09	-136.284	49.382	0	347.90	0	4.5100	0	33.9390	0	26.891	0	344.647	0	-1e10	8	-1e10	8	-1E+10	1	-1E+10	1	-1E+10	1	-1E+10	1	-1E+10	1	-1E+10	1
4902554	31	C	12/11/2021	08:09	-136.284	49.382	0	349.40	0	4.5100	0	33.9390	0	26.891	0	346.132	0	-1e10	8	-1e10	8	-1E+10	1	-1E+10	1	-1E+10	1	-1E+10	1	-1E+10	1	-1E+10	1
4902554	31	C	12/11/2021	08:09	-136.284	49.382	0	350.20	0	4.5090	0	33.9400	0	26.892	0	346.923	0	-1e10	8	-1e10	8	-1E+10	1	-1E+10	1	-1E+10	1	-1E+10	1	-1E+10	1	-1E+10	1
4902554	31	C	12/11/2021	08:09	-136.284	49.382	0	353.00	0	4.5050	0	33.9410	0	26.894	0	349.695	0	-1e10	8	-1e10	8	-1E+10	1	-1E+10	1	-1E+10	1	-1E+10	1	-1E+10	1	-1E+10	1
4902554	31	C	12/11/2021	08:09	-136.284	49.382	0	358.00	0	4.4960	0	33.9440	0	26.897	0	354.644	0	-1e10	8	-1e10	8	-1E+10	1	-1E+10	1	-1E+10	1	-1E+10	1	-1E+10	1	-1E+10	1
4902554	31	C	12/11/2021	08:09	-136.284	49.382	0	363.00	0	4.4830	0	33.9480	0	26.902	0	359.593	0	-1e10	8	-1e10	8	-1E+10	1	-1E+10	1	-1E+10	1	-1E+10	1	-1E+10	1	-1E+10	1
4902554	31	C	12/11/2021	08:09	-136.284	49.382	0	368.00	0	4.4790	0	33.9500	0	26.904	0	364.541	0	-1e10	8	-1e10	8	-1E+10	1	-1E+10	1	-1E+10	1	-1E+10	1	-1E+10	1	-1E+10	1
4902554	31	C	12/11/2021	08:09	-136.284	49.382	0	373.10	0	4.4620	0	33.9550	0	26.909	0	369.589	0	-1e10	8	-1e10	8	-1E+10	1	-1E+10	1	-1E+10	1	-1E+10	1	-1E+10	1	-1E+10	1
4902554	31	C	12/11/2021	08:09	-136.284	49.382	0	377.80	0	4.4490	0	33.9590	0	26.914	0	374.240	0	-1e10	8	-1e10	8	-1E+10	1	-1E+10	1	-1E+10	1	-1E+10	1	-1E+10	1	-1E+10	1
4902554	31	C	12/11/2021	08:09	-136.284	49.382	0	383.00	0	4.4340	0	33.9630	0	26.919	0	379.387	0	-1e10	8	-1e10	8	-1E+10	1	-1E+10	1	-1E+10	1	-1E+10	1	-1E+10	1	-1E+10	1
4902554	31	C	12/11/2021	08:09	-136.284	49.382	0	388.20	0	4.4140	0	33.9680	0	26.925	0	384.533	0	-1e10	8	-1e10	8	-1E+10	1	-1E+10	1	-1E+10	1	-1E+10	1	-1E+10	1	-1E+10	1
4902554	31	C	12/11/2021	08:09	-136.284	49.382	0	392.90	0	4.3920	0	33.9770	0	26.935	0	389.184	0	-1e10	8	-1e10	8	-1E+10	1	-1E+10	1	-1E+10	1	-1E+10	1	-1E+10	1	-1E+10	1
4902554	31	C	12/11/2021	08:09	-136.284	49.382	0	397.70	0	4.3770	0	33.9830	0	26.941	0	393.934	0	-1e10	8	-1e10	8	-1E+10	1	-1E+10	1	-1E+10	1	-1E+10	1	-1E+10	1	-1E+10	1
4902554	31	C	12/11/2021	08:09	-136.284	49.382	0	402.60	0	4.3680	0	33.9890	0	26.947	0	398.783	0	-1e10	8	-1e10	8	-1E+10	1	-1E+10	1	-1E+10	1	-1E+10	1	-1E+10	1	-1E+10	1
4902554	31	C	12/11/2021	08:09	-136.284	49.382	0	407.50	0	4.3560	0	33.9940	0	26.952	0	403.632	0	-1e10	8	-1e10	8	-1E+10	1	-1E+10	1	-1E+10	1	-1E+10	1	-1E+10	1	-1E+10	1
4902554	31	C	12/11/2021	08:09	-136.284	49.382	0	412.60	0	4.3450	0	33.9980	0	26.956	0	408.678	0	-1e10	8	-1e10	8	-1E+10	1	-1E+10	1	-1E+10	1	-1E+10	1	-1E+10	1	-1E+10	1
4902554	31	C	12/11/2021	08:09	-136.284	49.382	0	417.70	0	4.3400	0	34.0000	0	26.959	0	413.725	0	-1e10	8	-1e10	8	-1E+10	1	-1E+10	1	-1E+10	1	-1E+10	1	-1E+10	1	-1E+10	1
4902554	31	C	12/11/2021	08:09	-136.284	49.382	0	422.70	0	4.3350	0	34.0040	0	26.962	0	418.672	0	-1e10	8	-1e10	8	-1E+10	1	-1E+10	1	-1E+10	1	-1E+10	1	-1E+10	1	-1E+10	1
4902554	31	C	12/11/2021	08:09	-136.284	49.382	0	427.90	0	4.3230	0	34.0080	0	26.967	0	423.817	0	-1e10	8	-1e10	8	-1E+10	1	-1E+10	1	-1E+10	1	-1E+10	1	-1E+10	1	-1E+10	1
4902554	31	C	12/11/2021	08:09	-136.284	49.382	0	433.00	0	4.3120	0	34.0110	0	26.970	0	428.863	0	-1e10	8	-1e10	8	-1E+10	1	-1E+10	1	-1E+10	1	-1E+10	1	-1E+10	1	-1E+10	1
4902554	31	C	12/11/2021	08:09	-136.284	49.382	0	437.80	0	4.3070	0	34.0130	0	26.973	0	433.612	0	-1e10	8	-1e10	8	-1E+10	1	-1E+10	1	-1E+10	1	-1E+10	1	-1E+10	1	-1E+10	1
4902554	31	C	12/11/2021	08:09	-136.284	49.382	0	443.00	0	4.2930	0	34.0190	0	26.979	0	438.757	0	-1e10	8	-1e10	8	-1E+10	1	-1E+10	1	-1E+10	1	-1E+10	1	-1E+10	1	-1E+10	1
4902554	31	C	12/11/2021	08:09	-136.284	49.382	0	447.90	0	4.2830	0	34.0270	0	26.986	0	443.605	0	-1e10	8	-1e10	8	-1E+10	1	-1E+10	1	-1E+10	1	-1E+10	1	-1E+10	1	-1E+10	1
4902554	31	C	12/11/2021	08:09	-136.284	49.382	0	452.90	0	4.2790	0	34.0310	0	26.990	0	448.552	0	-1e10	8	-1e10	8	-1E+10	1	-1E+10	1	-1E+10	1	-1E+10	1	-1E+10	1	-1E+10	1
4902554	31	C	12/11/2021	08:09	-136.284	49.382	0	458.00	0	4.2730	0	34.0360	0	26.995	0	453.597	0	-1e10	8	-1e10	8	-1E+10	1	-1E+10	1	-1E+10	1	-1E+10	1	-1E+10	1	-1E+10	1
4902554	31	C	12/11/2021	08:09	-136.284	49.382	0	463.10	0	4.2590	0	34.0410	0	27.000	0	458.642	0	-1e10	8	-1e10	8	-1E+10	1	-1E+10	1	-1E+10	1	-1E+10	1	-1E+10	1	-1E+10	1
4902554	31	C	12/11/2021	08:09	-136.284	49.382	0	468.20	0	4.2540	0	34.0450	0	27.004	0	463.688	0	-1e10	8	-1e10	8	-1E+10	1	-1E+10	1	-1E+10	1	-1E+10	1	-1E+10	1	-1E+10	1
4902554	31	C	12/11/2021	08:09	-136.284	49.382	0	473.00	0	4.2410	0	34.0510	0	27.010	0	468.436	0	-1e10	8	-1e10	8	-1E+10	1	-1E+10	1	-1E+10	1	-1E+10	1	-1E+10	1	-1E+10	1
4902554	31	C	12/11/2021	08:09	-136.284	49.382	0	477.80	0	4.2300	0	34.0540	0	27.014	0	473.184	0	-1e10	8	-1e10	8	-1E+10	1	-1E+10	1	-1E+10	1	-1E+10	1	-1E+10	1	-1E+10	1
4902554	31	C	12/11/2021	08:09	-136.284	49.382	0	483.10	0	4.2210	0	34.0610	0	27.020	0	478.427	0	-1e10	8	-1e10	8	-1E+10	1	-1E+10	1	-1E+10	1	-1E+10	1	-1E+10	1	-1E+10	1
4902554	31	C	12/11/2021	08:09	-136.284	49.382	0	487.90	0	4.2070	0	34.0660	0	27.026	0	483.175	0	-1e10	8	-1e10	8	-1E+10	1	-1E+10	1	-1E+10	1	-1E+10	1	-1E+10	1	-1E+10	1
4902554	31	C	12/11/2021	08:09	-136.284	49.382	0	492.70	0	4.1950	0	34.0740	0	27.033	0	487.923	0	-1e10	8	-1e10	8	-1E+10	1	-1E+10	1	-1E+10	1	-1E+10	1	-1E+10	1	-1E+10	1
4902554	31	C	12/11/2021	08:09	-136.284	49.382	0	498.00	0	4.1700	0	34.0760	0	27.037	0	493.165	0	-1e10	8	-1e10	8	-1E+10	1	-1E+10	1	-1E+10	1	-1E+10	1	-1E+10	1	-1E+10	1
4902554	31	C	12/11/2021	08:09	-136.284	49.382	0	502.90	0	4.1640	0	34.0790	0	27.040	0	498.012	0	-1e10	8	-1e10	8	-1E+10	1	-1E+10	1	-1E+10	1	-1E+10	1	-1E+10	1	-1E+10	1
4902554	31	C	12/11/2021	08:09	-136.284	49.382	0	507.80	0	4.1520	0	34.0840	0	27.046	0	502.858	0	-1e10	8	-1e10	8	-1E+10	1	-1E+10	1	-1E+10	1	-1E+10	1	-1E+10	1	-1E+10	1
4902554	31	C	12/11/2021	08:09	-136.284	49.382	0	513.10	0	4.1430	0	34.0860	0	27.048	0	508.100	0	-1e10	8	-1e10	8	-1E+10	1	-1E+10	1	-1E+10	1	-1E+10	1	-1E+10	1	-1E+10	1
4902554	31	C	12/11/2021	08:09	-136.284	49.382	0	518.00	0	4.1250	0	34.0920	0	27.055	0	512.946	0	-1e10	8	-1e10	8	-1E+10	1	-1E+10	1	-1E+10	1	-1E+10	1	-1E+10	1	-1E+10	1
4902554	31	C	12/11/2021	08:09	-136.284	49.382	0	522.90	0	4.1200	0	34.0950	0	27.058	0	517.792	0	-1e10	8	-1e10	8	-1E+10	1	-1E+10	1	-1E+10	1	-1E+10	1	-1E+10	1	-1E+10	1
4902554	31	C	12/11/2021	08:09	-136.284	49.382	0	528.20	0	4.1180	0	34.0960	0	27.059	0	523.034	0	-1e10	8	-1e10	8	-1E+10	1	-1E+10	1	-1E+10	1	-1E+10	1	-1E+10	1	-1E+10	1
4902554	31	C	12/11/2021	08:09	-136.284	49.382	0	533.00	0	4.1200	0	34.0970	0	27.060	0	527.781	0	-1e10	8	-1e10	8	-1E+10	1	-1E+10	1	-1E+10	1	-1E+10	1	-1E+10	1	-1E+10	1
4902554	31	C	12/11/2021	08:09	-136.284	49.382	0	537.80	0	4.1120	0	34.1020	0	27.064	0	532.528	0	-1e10	8	-1e10	8	-1E+10	1	-1E+10	1	-1E+10	1	-1E+10	1	-1E+10	1	-1E+10	1
4902554	31	C	12/11/2021	08:09	-136.284	49.382	0	543.10	0	4.0890	0	34.1090	0	27.072	0	537.769	0	-1e10	8	-1e10	8	-1E+10	1	-1E+10	1	-1E+10	1	-1E+10	1	-1E+10	1	-1E+10	1
4902554	31	C	12/11/2021	08:09	-136.284	49.382	0	547.80	0	4.0820	0	34.1110	0	27.075	0	542.417	0	-1e10	8	-1e10	8	-1E+10	1	-1E+10	1	-1E+10	1	-1E+10	1	-1E+10	1	-1E+10	1
4902554	31	C	12/11/2021	08:09	-136.284	49.382	0	552.60	0	4.0740	0	34.1150	0	27.079	0	547.163	0	-1e10	8	-1e10	8	-1E+10	1	-1E+10	1	-1E+10	1	-1E+10	1	-1E+10	1	-1E+10	1
4902554	31	C	12/11/2021	08:09	-136.284	49.382	0	557.80	0	4.0590	0	34.1200	0	27.084	0	552.305	0	-1e10	8	-1e10	8	-1E+10	1	-1E+10	1	-1E+10	1	-1E+10	1	-1E+10	1	-1E+10	1
4902554	31	C	12/11/2021	08:09	-136.284	49.382	0	563.00	0	4.0420	0	34.1250	0	27.090	0	557.447	0	-1e10	8	-1e10	8	-1E+10	1	-1E+10	1	-1E+10	1	-1E+10	1	-1E+10	1	-1E+10	1
4902554	31	C	12/11/2021	08:09	-136.284	49.382	0	568.10	0	4.0250	0	34.1280	0	27.094	0	562.490	0	-1e10	8	-1e10	8	-1E+10	1	-1E+10	1	-1E+10	1	-1E+10	1	-1E+10	1	-1E+10	1
4902554	31	C	12/11/2021	08:09	-136.284	49.382	0	572.90	0	3.9970	0	34.1330	0	27.101	0	567.236	0	-1e10	8	-1e10	8	-1E+10	1	-1E+10	1	-1E+10	1	-1E+10	1	-1E+10	1	-1E+10	1
4902554	31	C	12/11/2021	08:09	-136.284	49.382	0	577.80	0	3.9830	0	34.1390	0	27.107	0	572.080	0	-1e10	8	-1e10	8	-1E+10	1	-1E+10	1	-1E+10	1	-1E+10	1	-1E+10	1	-1E+10	1
4902554	31	C	12/11/2021	08:09	-136.284	49.382	0	583.10	0	3.9640	0	34.1450	0	27.114	0	577.321	0	-1e10	8	-1e10	8	-1E+10	1	-1E+10	1	-1E+10	1	-1E+10	1	-1E+10	1	-1E+10	1
4902554	31	C	12/11/2021	08:09	-136.284	49.382	0	588.10	0	3.9450	0	34.1510	0	27.121	0	582.264	0	-1e10	8	-1e10	8	-1E+10	1	-1E+10	1	-1E+10	1	-1E+10	1	-1E+10	1	-1E+10	1
4902554	31	C	12/11/2021	08:09	-136.284	49.382	0	593.10	0	3.9290	0	34.1560	0	27.126	0	587.207	0	-1e10	8	-1e10	8	-1E+10	1	-1E+10	1	-1E+10	1	-1E+10	1	-1E+10	1	-1E+10	1
4902554	31	C	12/11/2021	08:09	-136.284	49.382	0	598.10	0	3.9160	0	34.1600	0	27.131	0	592.151	0	-1e10	8	-1e10	8	-1E+10	1	-1E+10	1	-1E+10	1	-1E+10	1	-1E+10	1	-1E+10	1
4902554	31	C	12/11/2021	08:09	-136.284	49.382	0	602.80	0	3.9040	0	34.1640	0	27.135	0	596.797	0	-1e10	8	-1e10	8	-1E+10	1	-1E+10	1	-1E+10	1	-1E+10	1	-1E+10	1	-1E+10	1
4902554	31	C	12/11/2021	08:09	-136.284	49.382	0	607.60	0	3.8870	0	34.1700	0	27.142	0	601.542	0	-1e10	8	-1e10	8	-1E+10	1	-1E+10	1	-1E+10	1	-1E+10	1	-1E+10	1	-1E+10	1
4902554	31	C	12/11/2021	08:09	-136.284	49.382	0	612.60	0	3.8770	0	34.1730	0	27.145	0	606.485	0	-1e10	8	-1e10	8	-1E+10	1	-1E+10	1	-1E+10	1	-1E+10	1	-1E+10	1	-1E+10	1
4902554	31	C	12/11/2021	08:09	-136.284	49.382	0	617.60	0	3.8670	0	34.1770	0	27.150	0	611.428	0	-1e10	8	-1e10	8	-1E+10	1	-1E+10	1	-1E+10	1	-1E+10	1	-1E+10	1	-1E+10	1
4902554	31	C	12/11/2021	08:09	-136.284	49.382	0	622.60	0	3.8580	0	34.1790	0	27.152	0	616.371	0	-1e10	8	-1e10	8	-1E+10	1	-1E+10	1	-1E+10	1	-1E+10	1	-1E+10	1	-1E+10	1
4902554	31	C	12/11/2021	08:09	-136.284	49.382	0	627.80	0	3.8450	0	34.1830	0	27.157	0	621.511	0	-1e10	8	-1e10	8	-1E+10	1	-1E+10	1	-1E+10	1	-1E+10	1	-1E+10	1	-1E+10	1
4902554	31	C	12/11/2021	08:09	-136.284	49.382	0	633.00	0	3.8360	0	34.1860	0	27.160	0	626.651	0	-1e10	8	-1e10	8	-1E+10	1	-1E+10	1	-1E+10	1	-1E+10	1	-1E+10	1	-1E+10	1
4902554	31	C	12/11/2021	08:09	-136.284	49.382	0	638.10	0	3.8300	0	34.1870	0	27.161	0	631.692	0	-1e10	8	-1e10	8	-1E+10	1	-1E+10	1	-1E+10	1	-1E+10	1	-1E+10	1	-1E+10	1
4902554	31	C	12/11/2021	08:09	-136.284	49.382	0	642.80	0	3.8210	0	34.1900	0	27.165	0	636.338	0	-1e10	8	-1e10	8	-1E+10	1	-1E+10	1	-1E+10	1	-1E+10	1	-1E+10	1	-1E+10	1
4902554	31	C	12/11/2021	08:09	-136.284	49.382	0	647.60	0	3.8150	0	34.1910	0	27.166	0	641.082	0	-1e10	8	-1e10	8	-1E+10	1	-1E+10	1	-1E+10	1	-1E+10	1	-1E+10	1	-1E+10	1
4902554	31	C	12/11/2021	08:09	-136.284	49.382	0	652.90	0	3.8060	0	34.1940	0	27.169	0	646.321	0	-1e10	8	-1e10	8	-1E+10	1	-1E+10	1	-1E+10	1	-1E+10	1	-1E+10	1	-1E+10	1
4902554	31	C	12/11/2021	08:09	-136.284	49.382	0	657.90	0	3.7900	0	34.1990	0	27.175	0	651.262	0	-1e10	8	-1e10	8	-1E+10	1	-1E+10	1	-1E+10	1	-1E+10	1	-1E+10	1	-1E+10	1
4902554	31	C	12/11/2021	08:09	-136.284	49.382	0	662.70	0	3.7840	0	34.2000	0	27.176	0	656.006	0	-1e10	8	-1e10	8	-1E+10	1	-1E+10	1	-1E+10	1	-1E+10	1	-1E+10	1	-1E+10	1
4902554	31	C	12/11/2021	08:09	-136.284	49.382	0	668.00	0	3.7740	0	34.2040	0	27.181	0	661.244	0	-1e10	8	-1e10	8	-1E+10	1	-1E+10	1	-1E+10	1	-1E+10	1	-1E+10	1	-1E+10	1
4902554	31	C	12/11/2021	08:09	-136.284	49.382	0	673.00	0	3.7650	0	34.2060	0	27.183	0	666.186	0	-1e10	8	-1e10	8	-1E+10	1	-1E+10	1	-1E+10	1	-1E+10	1	-1E+10	1	-1E+10	1
4902554	31	C	12/11/2021	08:09	-136.284	49.382	0	678.00	0	3.7570	0	34.2080	0	27.186	0	671.127	0	-1e10	8	-1e10	8	-1E+10	1	-1E+10	1	-1E+10	1	-1E+10	1	-1E+10	1	-1E+10	1
4902554	31	C	12/11/2021	08:09	-136.284	49.382	0	683.10	0	3.7470	0	34.2110	0	27.189	0	676.167	0	-1e10	8	-1e10	8	-1E+10	1	-1E+10	1	-1E+10	1	-1E+10	1	-1E+10	1	-1E+10	1
4902554	31	C	12/11/2021	08:09	-136.284	49.382	0	687.70	0	3.7360	0	34.2130	0	27.192	0	680.713	0	-1e10	8	-1e10	8	-1E+10	1	-1E+10	1	-1E+10	1	-1E+10	1	-1E+10	1	-1E+10	1
4902554	31	C	12/11/2021	08:09	-136.284	49.382	0	692.80	0	3.7230	0	34.2160	0	27.195	0	685.753	0	-1e10	8	-1e10	8	-1E+10	1	-1E+10	1	-1E+10	1	-1E+10	1	-1E+10	1	-1E+10	1
4902554	31	C	12/11/2021	08:09	-136.284	49.382	0	697.90	0	3.7110	0	34.2190	0	27.199	0	690.793	0	-1e10	8	-1e10	8	-1E+10	1	-1E+10	1	-1E+10	1	-1E+10	1	-1E+10	1	-1E+10	1
4902554	31	C	12/11/2021	08:09	-136.284	49.382	0	702.60	0	3.6990	0	34.2220	0	27.203	0	695.437	0	-1e10	8	-1e10	8	-1E+10	1	-1E+10	1	-1E+10	1	-1E+10	1	-1E+10	1	-1E+10	1
4902554	31	C	12/11/2021	08:09	-136.284	49.382	0	707.80	0	3.6930	0	34.2230	0	27.204	0	700.575	0	-1e10	8	-1e10	8	-1E+10	1	-1E+10	1	-1E+10	1	-1E+10	1	-1E+10	1	-1E+10	1
4902554	31	C	12/11/2021	08:09	-136.284	49.382	0	713.00	0	3.6790	0	34.2270	0	27.209	0	705.713	0	-1e10	8	-1e10	8	-1E+10	1	-1E+10	1	-1E+10	1	-1E+10	1	-1E+10	1	-1E+10	1
4902554	31	C	12/11/2021	08:09	-136.284	49.382	0	717.80	0	3.6700	0	34.2300	0	27.212	0	710.456	0	-1e10	8	-1e10	8	-1E+10	1	-1E+10	1	-1E+10	1	-1E+10	1	-1E+10	1	-1E+10	1
4902554	31	C	12/11/2021	08:09	-136.284	49.382	0	722.70	0	3.6650	0	34.2320	0	27.214	0	715.297	0	-1e10	8	-1e10	8	-1E+10	1	-1E+10	1	-1E+10	1	-1E+10	1	-1E+10	1	-1E+10	1
4902554	31	C	12/11/2021	08:09	-136.284	49.382	0	727.60	0	3.6580	0	34.2340	0	27.216	0	720.139	0	-1e10	8	-1e10	8	-1E+10	1	-1E+10	1	-1E+10	1	-1E+10	1	-1E+10	1	-1E+10	1
4902554	31	C	12/11/2021	08:09	-136.284	49.382	0	732.50	0	3.6470	0	34.2370	0	27.220	0	724.980	0	-1e10	8	-1e10	8	-1E+10	1	-1E+10	1	-1E+10	1	-1E+10	1	-1E+10	1	-1E+10	1
4902554	31	C	12/11/2021	08:09	-136.284	49.382	0	737.50	0	3.6360	0	34.2390	0	27.223	0	729.920	0	-1e10	8	-1e10	8	-1E+10	1	-1E+10	1	-1E+10	1	-1E+10	1	-1E+10	1	-1E+10	1
4902554	31	C	12/11/2021	08:09	-136.284	49.382	0	742.50	0	3.6290	0	34.2410	0	27.225	0	734.860	0	-1e10	8	-1e10	8	-1E+10	1	-1E+10	1	-1E+10	1	-1E+10	1	-1E+10	1	-1E+10	1
4902554	31	C	12/11/2021	08:09	-136.284	49.382	0	747.50	0	3.6160	0	34.2440	0	27.229	0	739.800	0	-1e10	8	-1e10	8	-1E+10	1	-1E+10	1	-1E+10	1	-1E+10	1	-1E+10	1	-1E+10	1
4902554	31	C	12/11/2021	08:09	-136.284	49.382	0	752.60	0	3.6050	0	34.2470	0	27.232	0	744.838	0	-1e10	8	-1e10	8	-1E+10	1	-1E+10	1	-1E+10	1	-1E+10	1	-1E+10	1	-1E+10	1
4902554	31	C	12/11/2021	08:09	-136.284	49.382	0	757.70	0	3.5960	0	34.2490	0	27.235	0	749.876	0	-1e10	8	-1e10	8	-1E+10	1	-1E+10	1	-1E+10	1	-1E+10	1	-1E+10	1	-1E+10	1
4902554	31	C	12/11/2021	08:09	-136.284	49.382	0	762.70	0	3.5780	0	34.2530	0	27.240	0	754.815	0	-1e10	8	-1e10	8	-1E+10	1	-1E+10	1	-1E+10	1	-1E+10	1	-1E+10	1	-1E+10	1
4902554	31	C	12/11/2021	08:09	-136.284	49.382	0	767.80	0	3.5590	0	34.2570	0	27.245	0	759.853	0	-1e10	8	-1e10	8	-1E+10	1	-1E+10	1	-1E+10	1	-1E+10	1	-1E+10	1	-1E+10	1
4902554	31	C	12/11/2021	08:09	-136.284	49.382	0	772.90	0	3.5530	0	34.2580	0	27.246	0	764.891	0	-1e10	8	-1e10	8	-1E+10	1	-1E+10	1	-1E+10	1	-1E+10	1	-1E+10	1	-1E+10	1
4902554	31	C	12/11/2021	08:09	-136.284	49.382	0	777.90	0	3.5410	0	34.2600	0	27.249	0	769.830	0	-1e10	8	-1e10	8	-1E+10	1	-1E+10	1	-1E+10	1	-1E+10	1	-1E+10	1	-1E+10	1
4902554	31	C	12/11/2021	08:09	-136.284	49.382	0	783.00	0	3.5270	0	34.2630	0	27.253	0	774.868	0	-1e10	8	-1e10	8	-1E+10	1	-1E+10	1	-1E+10	1	-1E+10	1	-1E+10	1	-1E+10	1
4902554	31	C	12/11/2021	08:09	-136.284	49.382	0	788.10	0	3.4960	0	34.2690	0	27.260	0	779.905	0	-1e10	8	-1e10	8	-1E+10	1	-1E+10	1	-1E+10	1	-1E+10	1	-1E+10	1	-1E+10	1
4902554	31	C	12/11/2021	08:09	-136.284	49.382	0	793.30	0	3.4870	0	34.2700	0	27.262	0	785.042	0	-1e10	8	-1e10	8	-1E+10	1	-1E+10	1	-1E+10	1	-1E+10	1	-1E+10	1	-1E+10	1
4902554	31	C	12/11/2021	08:09	-136.284	49.382	0	798.40	0	3.4840	0	34.2710	0	27.263	0	790.079	0	-1e10	8	-1e10	8	-1E+10	1	-1E+10	1	-1E+10	1	-1E+10	1	-1E+10	1	-1E+10	1
4902554	31	C	12/11/2021	08:09	-136.284	49.382	0	803.40	0	3.4760	0	34.2720	0	27.265	0	795.017	0	-1e10	8	-1e10	8	-1E+10	1	-1E+10	1	-1E+10	1	-1E+10	1	-1E+10	1	-1E+10	1
4902554	31	C	12/11/2021	08:09	-136.284	49.382	0	808.40	0	3.4560	0	34.2760	0	27.270	0	799.956	0	-1e10	8	-1e10	8	-1E+10	1	-1E+10	1	-1E+10	1	-1E+10	1	-1E+10	1	-1E+10	1
4902554	31	C	12/11/2021	08:09	-136.284	49.382	0	813.40	0	3.4490	0	34.2800	0	27.274	0	804.894	0	-1e10	8	-1e10	8	-1E+10	1	-1E+10	1	-1E+10	1	-1E+10	1	-1E+10	1	-1E+10	1
4902554	31	C	12/11/2021	08:09	-136.284	49.382	0	818.20	0	3.4300	0	34.2840	0	27.279	0	809.634	0	-1e10	8	-1e10	8	-1E+10	1	-1E+10	1	-1E+10	1	-1E+10	1	-1E+10	1	-1E+10	1
4902554	31	C	12/11/2021	08:09	-136.284	49.382	0	823.00	0	3.4150	0	34.2880	0	27.283	0	814.375	0	-1e10	8	-1e10	8	-1E+10	1	-1E+10	1	-1E+10	1	-1E+10	1	-1E+10	1	-1E+10	1
4902554	31	C	12/11/2021	08:09	-136.284	49.382	0	827.80	0	3.4050	0	34.2900	0	27.286	0	819.115	0	-1e10	8	-1e10	8	-1E+10	1	-1E+10	1	-1E+10	1	-1E+10	1	-1E+10	1	-1E+10	1
4902554	31	C	12/11/2021	08:09	-136.284	49.382	0	832.90	0	3.3950	0	34.2920	0	27.289	0	824.151	0	-1e10	8	-1e10	8	-1E+10	1	-1E+10	1	-1E+10	1	-1E+10	1	-1E+10	1	-1E+10	1
4902554	31	C	12/11/2021	08:09	-136.284	49.382	0	838.00	0	3.3820	0	34.2950	0	27.292	0	829.188	0	-1e10	8	-1e10	8	-1E+10	1	-1E+10	1	-1E+10	1	-1E+10	1	-1E+10	1	-1E+10	1
4902554	31	C	12/11/2021	08:09	-136.284	49.382	0	843.10	0	3.3650	0	34.2970	0	27.296	0	834.224	0	-1e10	8	-1e10	8	-1E+10	1	-1E+10	1	-1E+10	1	-1E+10	1	-1E+10	1	-1E+10	1
4902554	31	C	12/11/2021	08:09	-136.284	49.382	0	848.20	0	3.3530	0	34.3010	0	27.300	0	839.260	0	-1e10	8	-1e10	8	-1E+10	1	-1E+10	1	-1E+10	1	-1E+10	1	-1E+10	1	-1E+10	1
4902554	31	C	12/11/2021	08:09	-136.284	49.382	0	852.80	0	3.3350	0	34.3050	0	27.305	0	843.802	0	-1e10	8	-1e10	8	-1E+10	1	-1E+10	1	-1E+10	1	-1E+10	1	-1E+10	1	-1E+10	1
4902554	31	C	12/11/2021	08:09	-136.284	49.382	0	857.80	0	3.3150	0	34.3090	0	27.310	0	848.739	0	-1e10	8	-1e10	8	-1E+10	1	-1E+10	1	-1E+10	1	-1E+10	1	-1E+10	1	-1E+10	1
4902554	31	C	12/11/2021	08:09	-136.284	49.382	0	862.90	0	3.3000	0	34.3110	0	27.313	0	853.775	0	-1e10	8	-1e10	8	-1E+10	1	-1E+10	1	-1E+10	1	-1E+10	1	-1E+10	1	-1E+10	1
4902554	31	C	12/11/2021	08:09	-136.284	49.382	0	867.60	0	3.2870	0	34.3130	0	27.316	0	858.416	0	-1e10	8	-1e10	8	-1E+10	1	-1E+10	1	-1E+10	1	-1E+10	1	-1E+10	1	-1E+10	1
4902554	31	C	12/11/2021	08:09	-136.284	49.382	0	872.80	0	3.2790	0	34.3150	0	27.318	0	863.550	0	-1e10	8	-1e10	8	-1E+10	1	-1E+10	1	-1E+10	1	-1E+10	1	-1E+10	1	-1E+10	1
4902554	31	C	12/11/2021	08:09	-136.284	49.382	0	878.00	0	3.2670	0	34.3170	0	27.321	0	868.684	0	-1e10	8	-1e10	8	-1E+10	1	-1E+10	1	-1E+10	1	-1E+10	1	-1E+10	1	-1E+10	1
4902554	31	C	12/11/2021	08:09	-136.284	49.382	0	882.80	0	3.2630	0	34.3180	0	27.322	0	873.423	0	-1e10	8	-1e10	8	-1E+10	1	-1E+10	1	-1E+10	1	-1E+10	1	-1E+10	1	-1E+10	1
4902554	31	C	12/11/2021	08:09	-136.284	49.382	0	887.60	0	3.2570	0	34.3180	0	27.323	0	878.162	0	-1e10	8	-1e10	8	-1E+10	1	-1E+10	1	-1E+10	1	-1E+10	1	-1E+10	1	-1E+10	1
4902554	31	C	12/11/2021	08:09	-136.284	49.382	0	892.60	0	3.2380	0	34.3240	0	27.329	0	883.098	0	-1e10	8	-1e10	8	-1E+10	1	-1E+10	1	-1E+10	1	-1E+10	1	-1E+10	1	-1E+10	1
4902554	31	C	12/11/2021	08:09	-136.284	49.382	0	897.90	0	3.2320	0	34.3250	0	27.331	0	888.331	0	-1e10	8	-1e10	8	-1E+10	1	-1E+10	1	-1E+10	1	-1E+10	1	-1E+10	1	-1E+10	1
4902554	31	C	12/11/2021	08:09	-136.284	49.382	0	903.00	0	3.2280	0	34.3260	0	27.332	0	893.365	0	-1e10	8	-1e10	8	-1E+10	1	-1E+10	1	-1E+10	1	-1E+10	1	-1E+10	1	-1E+10	1
4902554	31	C	12/11/2021	08:09	-136.284	49.382	0	908.00	0	3.2240	0	34.3270	0	27.333	0	898.301	0	-1e10	8	-1e10	8	-1E+10	1	-1E+10	1	-1E+10	1	-1E+10	1	-1E+10	1	-1E+10	1
4902554	31	C	12/11/2021	08:09	-136.284	49.382	0	913.00	0	3.2120	0	34.3290	0	27.336	0	903.237	0	-1e10	8	-1e10	8	-1E+10	1	-1E+10	1	-1E+10	1	-1E+10	1	-1E+10	1	-1E+10	1
4902554	31	C	12/11/2021	08:09	-136.284	49.382	0	917.80	0	3.1960	0	34.3330	0	27.340	0	907.975	0	-1e10	8	-1e10	8	-1E+10	1	-1E+10	1	-1E+10	1	-1E+10	1	-1E+10	1	-1E+10	1
4902554	31	C	12/11/2021	08:09	-136.284	49.382	0	922.60	0	3.1940	0	34.3330	0	27.341	0	912.713	0	-1e10	8	-1e10	8	-1E+10	1	-1E+10	1	-1E+10	1	-1E+10	1	-1E+10	1	-1E+10	1
4902554	31	C	12/11/2021	08:09	-136.284	49.382	0	928.00	0	3.1890	0	34.3340	0	27.342	0	918.044	0	-1e10	8	-1e10	8	-1E+10	1	-1E+10	1	-1E+10	1	-1E+10	1	-1E+10	1	-1E+10	1
4902554	31	C	12/11/2021	08:09	-136.284	49.382	0	933.00	0	3.1760	0	34.3380	0	27.346	0	922.979	0	-1e10	8	-1e10	8	-1E+10	1	-1E+10	1	-1E+10	1	-1E+10	1	-1E+10	1	-1E+10	1
4902554	31	C	12/11/2021	08:09	-136.284	49.382	0	938.10	0	3.1630	0	34.3400	0	27.349	0	928.013	0	-1e10	8	-1e10	8	-1E+10	1	-1E+10	1	-1E+10	1	-1E+10	1	-1E+10	1	-1E+10	1
4902554	31	C	12/11/2021	08:09	-136.284	49.382	0	943.20	0	3.1490	0	34.3430	0	27.353	0	933.047	0	-1e10	8	-1e10	8	-1E+10	1	-1E+10	1	-1E+10	1	-1E+10	1	-1E+10	1	-1E+10	1
4902554	31	C	12/11/2021	08:09	-136.284	49.382	0	947.80	0	3.1360	0	34.3460	0	27.357	0	937.587	0	-1e10	8	-1e10	8	-1E+10	1	-1E+10	1	-1E+10	1	-1E+10	1	-1E+10	1	-1E+10	1
4902554	31	C	12/11/2021	08:09	-136.284	49.382	0	953.00	0	3.1240	0	34.3480	0	27.359	0	942.719	0	-1e10	8	-1e10	8	-1E+10	1	-1E+10	1	-1E+10	1	-1E+10	1	-1E+10	1	-1E+10	1
4902554	31	C	12/11/2021	08:09	-136.284	49.382	0	958.30	0	3.1120	0	34.3500	0	27.362	0	947.950	0	-1e10	8	-1e10	8	-1E+10	1	-1E+10	1	-1E+10	1	-1E+10	1	-1E+10	1	-1E+10	1
4902554	31	C	12/11/2021	08:09	-136.284	49.382	0	963.10	0	3.1050	0	34.3510	0	27.363	0	952.687	0	-1e10	8	-1e10	8	-1E+10	1	-1E+10	1	-1E+10	1	-1E+10	1	-1E+10	1	-1E+10	1
4902554	31	C	12/11/2021	08:09	-136.284	49.382	0	968.00	0	3.0930	0	34.3530	0	27.366	0	957.523	0	-1e10	8	-1e10	8	-1E+10	1	-1E+10	1	-1E+10	1	-1E+10	1	-1E+10	1	-1E+10	1
4902554	31	C	12/11/2021	08:09	-136.284	49.382	0	972.90	0	3.0870	0	34.3550	0	27.368	0	962.359	0	-1e10	8	-1e10	8	-1E+10	1	-1E+10	1	-1E+10	1	-1E+10	1	-1E+10	1	-1E+10	1
4902554	31	C	12/11/2021	08:09	-136.284	49.382	0	977.90	0	3.0700	0	34.3580	0	27.372	0	967.293	0	-1e10	8	-1e10	8	-1E+10	1	-1E+10	1	-1E+10	1	-1E+10	1	-1E+10	1	-1E+10	1
4902554	31	C	12/11/2021	08:09	-136.284	49.382	0	982.90	0	3.0550	0	34.3610	0	27.376	0	972.227	0	-1e10	8	-1e10	8	-1E+10	1	-1E+10	1	-1E+10	1	-1E+10	1	-1E+10	1	-1E+10	1
4902554	31	C	12/11/2021	08:09	-136.284	49.382	0	988.00	0	3.0430	0	34.3640	0	27.380	0	977.260	0	-1e10	8	-1e10	8	-1E+10	1	-1E+10	1	-1E+10	1	-1E+10	1	-1E+10	1	-1E+10	1
4902554	31	C	12/11/2021	08:09	-136.284	49.382	0	993.10	0	3.0330	0	34.3660	0	27.382	0	982.293	0	-1e10	8	-1e10	8	-1E+10	1	-1E+10	1	-1E+10	1	-1E+10	1	-1E+10	1	-1E+10	1
4902554	31	C	12/11/2021	08:09	-136.284	49.382	0	998.30	0	3.0260	0	34.3680	0	27.384	0	987.424	0	-1e10	8	-1e10	8	-1E+10	1	-1E+10	1	-1E+10	1	-1E+10	1	-1E+10	1	-1E+10	1
4902554	31	C	12/11/2021	08:09	-136.284	49.382	0	1005.60	0	3.0150	0	34.3700	0	27.387	0	994.627	0	-1e10	8	-1e10	8	-1E+10	1	-1E+10	1	-1E+10	1	-1E+10	1	-1E+10	1	-1E+10	1
4902554	31	C	12/11/2021	08:09	-136.284	49.382	0	1015.40	0	2.9990	0	34.3730	0	27.391	0	1004.297	0	-1e10	8	-1e10	8	-1E+10	1	-1E+10	1	-1E+10	1	-1E+10	1	-1E+10	1	-1E+10	1
4902554	31	C	12/11/2021	08:09	-136.284	49.382	0	1025.40	0	2.9830	0	34.3760	0	27.395	0	1014.163	0	-1e10	8	-1e10	8	-1E+10	1	-1E+10	1	-1E+10	1	-1E+10	1	-1E+10	1	-1E+10	1
4902554	31	C	12/11/2021	08:09	-136.284	49.382	0	1035.50	0	2.9720	0	34.3780	0	27.397	0	1024.128	0	-1e10	8	-1e10	8	-1E+10	1	-1E+10	1	-1E+10	1	-1E+10	1	-1E+10	1	-1E+10	1
4902554	31	C	12/11/2021	08:09	-136.284	49.382	0	1045.70	0	2.9580	0	34.3820	0	27.402	0	1034.191	0	-1e10	8	-1e10	8	-1E+10	1	-1E+10	1	-1E+10	1	-1E+10	1	-1E+10	1	-1E+10	1
4902554	31	C	12/11/2021	08:09	-136.284	49.382	0	1055.30	0	2.9490	0	34.3830	0	27.404	0	1043.661	0	-1e10	8	-1e10	8	-1E+10	1	-1E+10	1	-1E+10	1	-1E+10	1	-1E+10	1	-1E+10	1
4902554	31	C	12/11/2021	08:09	-136.284	49.382	0	1065.40	0	2.9370	0	34.3870	0	27.408	0	1053.624	0	-1e10	8	-1e10	8	-1E+10	1	-1E+10	1	-1E+10	1	-1E+10	1	-1E+10	1	-1E+10	1
4902554	31	C	12/11/2021	08:09	-136.284	49.382	0	1075.20	0	2.9280	0	34.3890	0	27.410	0	1063.291	0	-1e10	8	-1e10	8	-1E+10	1	-1E+10	1	-1E+10	1	-1E+10	1	-1E+10	1	-1E+10	1
4902554	31	C	12/11/2021	08:09	-136.284	49.382	0	1085.10	0	2.9060	0	34.3930	0	27.416	0	1073.056	0	-1e10	8	-1e10	8	-1E+10	1	-1E+10	1	-1E+10	1	-1E+10	1	-1E+10	1	-1E+10	1
4902554	31	C	12/11/2021	08:09	-136.284	49.382	0	1095.00	0	2.8840	0	34.3970	0	27.421	0	1082.821	0	-1e10	8	-1e10	8	-1E+10	1	-1E+10	1	-1E+10	1	-1E+10	1	-1E+10	1	-1E+10	1
4902554	31	C	12/11/2021	08:09	-136.284	49.382	0	1105.20	0	2.8660	0	34.4000	0	27.425	0	1092.881	0	-1e10	8	-1e10	8	-1E+10	1	-1E+10	1	-1E+10	1	-1E+10	1	-1E+10	1	-1E+10	1
4902554	31	C	12/11/2021	08:09	-136.284	49.382	0	1115.20	0	2.8550	0	34.4020	0	27.428	0	1102.743	0	-1e10	8	-1e10	8	-1E+10	1	-1E+10	1	-1E+10	1	-1E+10	1	-1E+10	1	-1E+10	1
4902554	31	C	12/11/2021	08:09	-136.284	49.382	0	1125.20	0	2.8390	0	34.4050	0	27.431	0	1112.605	0	-1e10	8	-1e10	8	-1E+10	1	-1E+10	1	-1E+10	1	-1E+10	1	-1E+10	1	-1E+10	1
4902554	31	C	12/11/2021	08:09	-136.284	49.382	0	1135.40	0	2.8220	0	34.4090	0	27.436	0	1122.664	0	-1e10	8	-1e10	8	-1E+10	1	-1E+10	1	-1E+10	1	-1E+10	1	-1E+10	1	-1E+10	1
4902554	31	C	12/11/2021	08:09	-136.284	49.382	0	1145.10	0	2.8090	0	34.4110	0	27.439	0	1132.229	0	-1e10	8	-1e10	8	-1E+10	1	-1E+10	1	-1E+10	1	-1E+10	1	-1E+10	1	-1E+10	1
4902554	31	C	12/11/2021	08:09	-136.284	49.382	0	1155.40	0	2.7890	0	34.4150	0	27.444	0	1142.385	0	-1e10	8	-1e10	8	-1E+10	1	-1E+10	1	-1E+10	1	-1E+10	1	-1E+10	1	-1E+10	1
4902554	31	C	12/11/2021	08:09	-136.284	49.382	0	1165.70	0	2.7630	0	34.4190	0	27.449	0	1152.540	0	-1e10	8	-1e10	8	-1E+10	1	-1E+10	1	-1E+10	1	-1E+10	1	-1E+10	1	-1E+10	1
4902554	31	C	12/11/2021	08:09	-136.284	49.382	0	1175.70	0	2.7450	0	34.4220	0	27.453	0	1162.400	0	-1e10	8	-1e10	8	-1E+10	1	-1E+10	1	-1E+10	1	-1E+10	1	-1E+10	1	-1E+10	1
4902554	31	C	12/11/2021	08:09	-136.284	49.382	0	1185.50	0	2.7380	0	34.4230	0	27.455	0	1172.062	0	-1e10	8	-1e10	8	-1E+10	1	-1E+10	1	-1E+10	1	-1E+10	1	-1E+10	1	-1E+10	1
4902554	31	C	12/11/2021	08:09	-136.284	49.382	0	1195.40	0	2.7240	0	34.4260	0	27.459	0	1181.822	0	-1e10	8	-1e10	8	-1E+10	1	-1E+10	1	-1E+10	1	-1E+10	1	-1E+10	1	-1E+10	1
4902554	31	C	12/11/2021	08:09	-136.284	49.382	0	1205.50	0	2.7160	0	34.4280	0	27.461	0	1191.778	0	-1e10	8	-1e10	8	-1E+10	1	-1E+10	1	-1E+10	1	-1E+10	1	-1E+10	1	-1E+10	1
4902554	31	C	12/11/2021	08:09	-136.284	49.382	0	1215.20	0	2.7050	0	34.4310	0	27.464	0	1201.340	0	-1e10	8	-1e10	8	-1E+10	1	-1E+10	1	-1E+10	1	-1E+10	1	-1E+10	1	-1E+10	1
4902554	31	C	12/11/2021	08:09	-136.284	49.382	0	1225.10	0	2.6940	0	34.4330	0	27.467	0	1211.099	0	-1e10	8	-1e10	8	-1E+10	1	-1E+10	1	-1E+10	1	-1E+10	1	-1E+10	1	-1E+10	1
4902554	31	C	12/11/2021	08:09	-136.284	49.382	0	1235.20	0	2.6790	0	34.4360	0	27.471	0	1221.054	0	-1e10	8	-1e10	8	-1E+10	1	-1E+10	1	-1E+10	1	-1E+10	1	-1E+10	1	-1E+10	1
4902554	31	C	12/11/2021	08:09	-136.284	49.382	0	1245.10	0	2.6630	0	34.4390	0	27.475	0	1230.812	0	-1e10	8	-1e10	8	-1E+10	1	-1E+10	1	-1E+10	1	-1E+10	1	-1E+10	1	-1E+10	1
4902554	31	C	12/11/2021	08:09	-136.284	49.382	0	1255.30	0	2.6570	0	34.4400	0	27.476	0	1240.865	0	-1e10	8	-1e10	8	-1E+10	1	-1E+10	1	-1E+10	1	-1E+10	1	-1E+10	1	-1E+10	1
4902554	31	C	12/11/2021	08:09	-136.284	49.382	0	1265.60	0	2.6460	0	34.4420	0	27.479	0	1251.016	0	-1e10	8	-1e10	8	-1E+10	1	-1E+10	1	-1E+10	1	-1E+10	1	-1E+10	1	-1E+10	1
4902554	31	C	12/11/2021	08:09	-136.284	49.382	0	1275.30	0	2.6380	0	34.4440	0	27.481	0	1260.575	0	-1e10	8	-1e10	8	-1E+10	1	-1E+10	1	-1E+10	1	-1E+10	1	-1E+10	1	-1E+10	1
4902554	31	C	12/11/2021	08:09	-136.284	49.382	0	1285.50	0	2.6190	0	34.4480	0	27.486	0	1270.626	0	-1e10	8	-1e10	8	-1E+10	1	-1E+10	1	-1E+10	1	-1E+10	1	-1E+10	1	-1E+10	1
4902554	31	C	12/11/2021	08:09	-136.284	49.382	0	1295.60	0	2.6050	0	34.4510	0	27.489	0	1280.579	0	-1e10	8	-1e10	8	-1E+10	1	-1E+10	1	-1E+10	1	-1E+10	1	-1E+10	1	-1E+10	1
4902554	31	C	12/11/2021	08:09	-136.284	49.382	0	1305.60	0	2.5890	0	34.4540	0	27.493	0	1290.432	0	-1e10	8	-1e10	8	-1E+10	1	-1E+10	1	-1E+10	1	-1E+10	1	-1E+10	1	-1E+10	1
4902554	31	C	12/11/2021	08:09	-136.284	49.382	0	1315.50	0	2.5720	0	34.4570	0	27.497	0	1300.187	0	-1e10	8	-1e10	8	-1E+10	1	-1E+10	1	-1E+10	1	-1E+10	1	-1E+10	1	-1E+10	1
4902554	31	C	12/11/2021	08:09	-136.284	49.382	0	1325.10	0	2.5600	0	34.4590	0	27.500	0	1309.645	0	-1e10	8	-1e10	8	-1E+10	1	-1E+10	1	-1E+10	1	-1E+10	1	-1E+10	1	-1E+10	1
4902554	31	C	12/11/2021	08:09	-136.284	49.382	0	1335.00	0	2.5490	0	34.4610	0	27.502	0	1319.399	0	-1e10	8	-1e10	8	-1E+10	1	-1E+10	1	-1E+10	1	-1E+10	1	-1E+10	1	-1E+10	1
4902554	31	C	12/11/2021	08:09	-136.284	49.382	0	1345.00	0	2.5350	0	34.4640	0	27.506	0	1329.250	0	-1e10	8	-1e10	8	-1E+10	1	-1E+10	1	-1E+10	1	-1E+10	1	-1E+10	1	-1E+10	1
4902554	31	C	12/11/2021	08:09	-136.284	49.382	0	1355.20	0	2.5210	0	34.4670	0	27.510	0	1339.299	0	-1e10	8	-1e10	8	-1E+10	1	-1E+10	1	-1E+10	1	-1E+10	1	-1E+10	1	-1E+10	1
4902554	31	C	12/11/2021	08:09	-136.284	49.382	0	1365.50	0	2.5050	0	34.4700	0	27.513	0	1349.445	0	-1e10	8	-1e10	8	-1E+10	1	-1E+10	1	-1E+10	1	-1E+10	1	-1E+10	1	-1E+10	1
4902554	31	C	12/11/2021	08:09	-136.284	49.382	0	1375.50	0	2.4910	0	34.4730	0	27.517	0	1359.295	0	-1e10	8	-1e10	8	-1E+10	1	-1E+10	1	-1E+10	1	-1E+10	1	-1E+10	1	-1E+10	1
4902554	31	C	12/11/2021	08:09	-136.284	49.382	0	1385.20	0	2.4810	0	34.4750	0	27.520	0	1368.849	0	-1e10	8	-1e10	8	-1E+10	1	-1E+10	1	-1E+10	1	-1E+10	1	-1E+10	1	-1E+10	1
4902554	31	C	12/11/2021	08:09	-136.284	49.382	0	1395.10	0	2.4690	0	34.4770	0	27.522	0	1378.600	0	-1e10	8	-1e10	8	-1E+10	1	-1E+10	1	-1E+10	1	-1E+10	1	-1E+10	1	-1E+10	1
4902554	31	C	12/11/2021	08:09	-136.284	49.382	0	1405.10	0	2.4570	0	34.4790	0	27.525	0	1388.449	0	-1e10	8	-1e10	8	-1E+10	1	-1E+10	1	-1E+10	1	-1E+10	1	-1E+10	1	-1E+10	1
4902554	31	C	12/11/2021	08:09	-136.284	49.382	0	1415.20	0	2.4520	0	34.4810	0	27.527	0	1398.396	0	-1e10	8	-1e10	8	-1E+10	1	-1E+10	1	-1E+10	1	-1E+10	1	-1E+10	1	-1E+10	1
4902554	31	C	12/11/2021	08:09	-136.284	49.382	0	1425.50	0	2.4440	0	34.4820	0	27.528	0	1408.539	0	-1e10	8	-1e10	8	-1E+10	1	-1E+10	1	-1E+10	1	-1E+10	1	-1E+10	1	-1E+10	1
4902554	31	C	12/11/2021	08:09	-136.284	49.382	0	1435.90	0	2.4330	0	34.4840	0	27.531	0	1418.780	0	-1e10	8	-1e10	8	-1E+10	1	-1E+10	1	-1E+10	1	-1E+10	1	-1E+10	1	-1E+10	1
4902554	31	C	12/11/2021	08:09	-136.284	49.382	0	1445.30	0	2.4240	0	34.4860	0	27.533	0	1428.037	0	-1e10	8	-1e10	8	-1E+10	1	-1E+10	1	-1E+10	1	-1E+10	1	-1E+10	1	-1E+10	1
4902554	31	C	12/11/2021	08:09	-136.284	49.382	0	1455.30	0	2.4120	0	34.4890	0	27.537	0	1437.883	0	-1e10	8	-1e10	8	-1E+10	1	-1E+10	1	-1E+10	1	-1E+10	1	-1E+10	1	-1E+10	1
4902554	31	C	12/11/2021	08:09	-136.284	49.382	0	1465.60	0	2.3950	0	34.4920	0	27.541	0	1448.025	0	-1e10	8	-1e10	8	-1E+10	1	-1E+10	1	-1E+10	1	-1E+10	1	-1E+10	1	-1E+10	1
4902554	31	C	12/11/2021	08:09	-136.284	49.382	0	1475.30	0	2.3860	0	34.4940	0	27.543	0	1457.575	0	-1e10	8	-1e10	8	-1E+10	1	-1E+10	1	-1E+10	1	-1E+10	1	-1E+10	1	-1E+10	1
4902554	31	C	12/11/2021	08:09	-136.284	49.382	0	1485.30	0	2.3750	0	34.4960	0	27.546	0	1467.420	0	-1e10	8	-1e10	8	-1E+10	1	-1E+10	1	-1E+10	1	-1E+10	1	-1E+10	1	-1E+10	1
4902554	31	C	12/11/2021	08:09	-136.284	49.382	0	1495.40	0	2.3640	0	34.4980	0	27.548	0	1477.363	0	-1e10	8	-1e10	8	-1E+10	1	-1E+10	1	-1E+10	1	-1E+10	1	-1E+10	1	-1E+10	1
4902554	31	C	12/11/2021	08:09	-136.284	49.382	0	1505.30	0	2.3530	0	34.5000	0	27.551	0	1487.109	0	-1e10	8	-1e10	8	-1E+10	1	-1E+10	1	-1E+10	1	-1E+10	1	-1E+10	1	-1E+10	1
4902554	31	C	12/11/2021	08:09	-136.284	49.382	0	1515.10	0	2.3410	0	34.5030	0	27.554	0	1496.756	0	-1e10	8	-1e10	8	-1E+10	1	-1E+10	1	-1E+10	1	-1E+10	1	-1E+10	1	-1E+10	1
4902554	31	C	12/11/2021	08:09	-136.284	49.382	0	1525.00	0	2.3290	0	34.5050	0	27.557	0	1506.501	0	-1e10	8	-1e10	8	-1E+10	1	-1E+10	1	-1E+10	1	-1E+10	1	-1E+10	1	-1E+10	1
4902554	31	C	12/11/2021	08:09	-136.284	49.382	0	1535.00	0	2.3200	0	34.5070	0	27.559	0	1516.344	0	-1e10	8	-1e10	8	-1E+10	1	-1E+10	1	-1E+10	1	-1E+10	1	-1E+10	1	-1E+10	1
4902554	31	C	12/11/2021	08:09	-136.284	49.382	0	1545.00	0	2.3140	0	34.5080	0	27.561	0	1526.186	0	-1e10	8	-1e10	8	-1E+10	1	-1E+10	1	-1E+10	1	-1E+10	1	-1E+10	1	-1E+10	1
4902554	31	C	12/11/2021	08:09	-136.284	49.382	0	1555.40	0	2.3060	0	34.5100	0	27.563	0	1536.422	0	-1e10	8	-1e10	8	-1E+10	1	-1E+10	1	-1E+10	1	-1E+10	1	-1E+10	1	-1E+10	1
4902554	31	C	12/11/2021	08:09	-136.284	49.382	0	1565.50	0	2.2980	0	34.5110	0	27.564	0	1546.361	0	-1e10	8	-1e10	8	-1E+10	1	-1E+10	1	-1E+10	1	-1E+10	1	-1E+10	1	-1E+10	1
4902554	31	C	12/11/2021	08:09	-136.284	49.382	0	1575.30	0	2.2880	0	34.5130	0	27.567	0	1556.006	0	-1e10	8	-1e10	8	-1E+10	1	-1E+10	1	-1E+10	1	-1E+10	1	-1E+10	1	-1E+10	1
4902554	31	C	12/11/2021	08:09	-136.284	49.382	0	1585.20	0	2.2760	0	34.5160	0	27.570	0	1565.748	0	-1e10	8	-1e10	8	-1E+10	1	-1E+10	1	-1E+10	1	-1E+10	1	-1E+10	1	-1E+10	1
4902554	31	C	12/11/2021	08:09	-136.284	49.382	0	1595.20	0	2.2670	0	34.5180	0	27.573	0	1575.588	0	-1e10	8	-1e10	8	-1E+10	1	-1E+10	1	-1E+10	1	-1E+10	1	-1E+10	1	-1E+10	1
4902554	31	C	12/11/2021	08:09	-136.284	49.382	0	1605.20	0	2.2560	0	34.5200	0	27.575	0	1585.427	0	-1e10	8	-1e10	8	-1E+10	1	-1E+10	1	-1E+10	1	-1E+10	1	-1E+10	1	-1E+10	1
4902554	31	C	12/11/2021	08:09	-136.284	49.382	0	1615.30	0	2.2410	0	34.5230	0	27.579	0	1595.365	0	-1e10	8	-1e10	8	-1E+10	1	-1E+10	1	-1E+10	1	-1E+10	1	-1E+10	1	-1E+10	1
4902554	31	C	12/11/2021	08:09	-136.284	49.382	0	1625.30	0	2.2340	0	34.5240	0	27.580	0	1605.204	0	-1e10	8	-1e10	8	-1E+10	1	-1E+10	1	-1E+10	1	-1E+10	1	-1E+10	1	-1E+10	1
4902554	31	C	12/11/2021	08:09	-136.284	49.382	0	1635.10	0	2.2250	0	34.5260	0	27.583	0	1614.845	0	-1e10	8	-1e10	8	-1E+10	1	-1E+10	1	-1E+10	1	-1E+10	1	-1E+10	1	-1E+10	1
4902554	31	C	12/11/2021	08:09	-136.284	49.382	0	1645.10	0	2.2180	0	34.5280	0	27.585	0	1624.683	0	-1e10	8	-1e10	8	-1E+10	1	-1E+10	1	-1E+10	1	-1E+10	1	-1E+10	1	-1E+10	1
4902554	31	C	12/11/2021	08:09	-136.284	49.382	0	1655.30	0	2.2100	0	34.5290	0	27.586	0	1634.717	0	-1e10	8	-1e10	8	-1E+10	1	-1E+10	1	-1E+10	1	-1E+10	1	-1E+10	1	-1E+10	1
4902554	31	C	12/11/2021	08:09	-136.284	49.382	0	1665.50	0	2.2010	0	34.5310	0	27.589	0	1644.751	0	-1e10	8	-1e10	8	-1E+10	1	-1E+10	1	-1E+10	1	-1E+10	1	-1E+10	1	-1E+10	1
4902554	31	C	12/11/2021	08:09	-136.284	49.382	0	1675.50	0	2.1900	0	34.5330	0	27.591	0	1654.587	0	-1e10	8	-1e10	8	-1E+10	1	-1E+10	1	-1E+10	1	-1E+10	1	-1E+10	1	-1E+10	1
4902554	31	C	12/11/2021	08:09	-136.284	49.382	0	1685.70	0	2.1820	0	34.5350	0	27.594	0	1664.620	0	-1e10	8	-1e10	8	-1E+10	1	-1E+10	1	-1E+10	1	-1E+10	1	-1E+10	1	-1E+10	1
4902554	31	C	12/11/2021	08:09	-136.284	49.382	0	1695.30	0	2.1790	0	34.5360	0	27.595	0	1674.062	0	-1e10	8	-1e10	8	-1E+10	1	-1E+10	1	-1E+10	1	-1E+10	1	-1E+10	1	-1E+10	1
4902554	31	C	12/11/2021	08:09	-136.284	49.382	0	1705.00	0	2.1700	0	34.5370	0	27.596	0	1683.602	0	-1e10	8	-1e10	8	-1E+10	1	-1E+10	1	-1E+10	1	-1E+10	1	-1E+10	1	-1E+10	1
4902554	31	C	12/11/2021	08:09	-136.284	49.382	0	1715.30	0	2.1650	0	34.5390	0	27.598	0	1693.731	0	-1e10	8	-1e10	8	-1E+10	1	-1E+10	1	-1E+10	1	-1E+10	1	-1E+10	1	-1E+10	1
4902554	31	C	12/11/2021	08:09	-136.284	49.382	0	1725.50	0	2.1570	0	34.5400	0	27.600	0	1703.762	0	-1e10	8	-1e10	8	-1E+10	1	-1E+10	1	-1E+10	1	-1E+10	1	-1E+10	1	-1E+10	1
4902554	31	C	12/11/2021	08:09	-136.284	49.382	0	1735.30	0	2.1440	0	34.5430	0	27.603	0	1713.399	0	-1e10	8	-1e10	8	-1E+10	1	-1E+10	1	-1E+10	1	-1E+10	1	-1E+10	1	-1E+10	1
4902554	31	C	12/11/2021	08:09	-136.284	49.382	0	1745.30	0	2.1370	0	34.5440	0	27.605	0	1723.233	0	-1e10	8	-1e10	8	-1E+10	1	-1E+10	1	-1E+10	1	-1E+10	1	-1E+10	1	-1E+10	1
4902554	31	C	12/11/2021	08:09	-136.284	49.382	0	1755.50	0	2.1320	0	34.5450	0	27.606	0	1733.262	0	-1e10	8	-1e10	8	-1E+10	1	-1E+10	1	-1E+10	1	-1E+10	1	-1E+10	1	-1E+10	1
4902554	31	C	12/11/2021	08:09	-136.284	49.382	0	1765.20	0	2.1240	0	34.5470	0	27.608	0	1742.799	0	-1e10	8	-1e10	8	-1E+10	1	-1E+10	1	-1E+10	1	-1E+10	1	-1E+10	1	-1E+10	1
4902554	31	C	12/11/2021	08:09	-136.284	49.382	0	1775.10	0	2.1200	0	34.5480	0	27.610	0	1752.533	0	-1e10	8	-1e10	8	-1E+10	1	-1E+10	1	-1E+10	1	-1E+10	1	-1E+10	1	-1E+10	1
4902554	31	C	12/11/2021	08:09	-136.284	49.382	0	1785.00	0	2.1100	0	34.5500	0	27.612	0	1762.266	0	-1e10	8	-1e10	8	-1E+10	1	-1E+10	1	-1E+10	1	-1E+10	1	-1E+10	1	-1E+10	1
4902554	31	C	12/11/2021	08:09	-136.284	49.382	0	1795.30	0	2.0960	0	34.5530	0	27.616	0	1772.392	0	-1e10	8	-1e10	8	-1E+10	1	-1E+10	1	-1E+10	1	-1E+10	1	-1E+10	1	-1E+10	1
4902554	31	C	12/11/2021	08:09	-136.284	49.382	0	1805.20	0	2.0840	0	34.5550	0	27.618	0	1782.124	0	-1e10	8	-1e10	8	-1E+10	1	-1E+10	1	-1E+10	1	-1E+10	1	-1E+10	1	-1E+10	1
4902554	31	C	12/11/2021	08:09	-136.284	49.382	0	1815.40	0	2.0750	0	34.5570	0	27.620	0	1792.150	0	-1e10	8	-1e10	8	-1E+10	1	-1E+10	1	-1E+10	1	-1E+10	1	-1E+10	1	-1E+10	1
4902554	31	C	12/11/2021	08:09	-136.284	49.382	0	1825.90	0	2.0680	0	34.5580	0	27.622	0	1802.472	0	-1e10	8	-1e10	8	-1E+10	1	-1E+10	1	-1E+10	1	-1E+10	1	-1E+10	1	-1E+10	1
4902554	31	C	12/11/2021	08:09	-136.284	49.382	0	1835.40	0	2.0580	0	34.5600	0	27.624	0	1811.809	0	-1e10	8	-1e10	8	-1E+10	1	-1E+10	1	-1E+10	1	-1E+10	1	-1E+10	1	-1E+10	1
4902554	31	C	12/11/2021	08:09	-136.284	49.382	0	1845.70	0	2.0520	0	34.5610	0	27.626	0	1821.933	0	-1e10	8	-1e10	8	-1E+10	1	-1E+10	1	-1E+10	1	-1E+10	1	-1E+10	1	-1E+10	1
4902554	31	C	12/11/2021	08:09	-136.284	49.382	0	1855.50	0	2.0470	0	34.5620	0	27.627	0	1831.564	0	-1e10	8	-1e10	8	-1E+10	1	-1E+10	1	-1E+10	1	-1E+10	1	-1E+10	1	-1E+10	1
4902554	31	C	12/11/2021	08:09	-136.284	49.382	0	1865.30	0	2.0420	0	34.5630	0	27.628	0	1841.195	0	-1e10	8	-1e10	8	-1E+10	1	-1E+10	1	-1E+10	1	-1E+10	1	-1E+10	1	-1E+10	1
4902554	31	C	12/11/2021	08:09	-136.284	49.382	0	1875.40	0	2.0330	0	34.5650	0	27.631	0	1851.121	0	-1e10	8	-1e10	8	-1E+10	1	-1E+10	1	-1E+10	1	-1E+10	1	-1E+10	1	-1E+10	1
4902554	31	C	12/11/2021	08:09	-136.284	49.382	0	1885.50	0	2.0240	0	34.5670	0	27.633	0	1861.046	0	-1e10	8	-1e10	8	-1E+10	1	-1E+10	1	-1E+10	1	-1E+10	1	-1E+10	1	-1E+10	1
4902554	31	C	12/11/2021	08:09	-136.284	49.382	0	1895.40	0	2.0200	0	34.5680	0	27.634	0	1870.774	0	-1e10	8	-1e10	8	-1E+10	1	-1E+10	1	-1E+10	1	-1E+10	1	-1E+10	1	-1E+10	1
4902554	31	C	12/11/2021	08:09	-136.284	49.382	0	1905.40	0	2.0150	0	34.5690	0	27.635	0	1880.600	0	-1e10	8	-1e10	8	-1E+10	1	-1E+10	1	-1E+10	1	-1E+10	1	-1E+10	1	-1E+10	1
4902554	31	C	12/11/2021	08:09	-136.284	49.382	0	1915.60	0	2.0080	0	34.5700	0	27.637	0	1890.622	0	-1e10	8	-1e10	8	-1E+10	1	-1E+10	1	-1E+10	1	-1E+10	1	-1E+10	1	-1E+10	1
4902554	31	C	12/11/2021	08:09	-136.284	49.382	0	1925.40	0	2.0060	0	34.5710	0	27.638	0	1900.251	0	-1e10	8	-1e10	8	-1E+10	1	-1E+10	1	-1E+10	1	-1E+10	1	-1E+10	1	-1E+10	1
4902554	31	C	12/11/2021	08:09	-136.284	49.382	0	1935.10	0	2.0000	0	34.5720	0	27.639	0	1909.780	0	-1e10	8	-1e10	8	-1E+10	1	-1E+10	1	-1E+10	1	-1E+10	1	-1E+10	1	-1E+10	1
4902554	31	C	12/11/2021	08:09	-136.284	49.382	0	1945.40	0	1.9950	0	34.5730	0	27.640	0	1919.899	0	-1e10	8	-1e10	8	-1E+10	1	-1E+10	1	-1E+10	1	-1E+10	1	-1E+10	1	-1E+10	1
4902554	31	C	12/11/2021	08:09	-136.284	49.382	0	1955.80	0	1.9910	0	34.5740	0	27.641	0	1930.116	0	-1e10	8	-1e10	8	-1E+10	1	-1E+10	1	-1E+10	1	-1E+10	1	-1E+10	1	-1E+10	1
4902554	31	C	12/11/2021	08:09	-136.284	49.382	0	1965.80	0	1.9880	0	34.5750	0	27.643	0	1939.939	0	-1e10	8	-1e10	8	-1E+10	1	-1E+10	1	-1E+10	1	-1E+10	1	-1E+10	1	-1E+10	1
4902554	31	C	12/11/2021	08:09	-136.284	49.382	0	1975.70	0	1.9820	0	34.5760	0	27.644	0	1949.663	0	-1e10	8	-1e10	8	-1E+10	1	-1E+10	1	-1E+10	1	-1E+10	1	-1E+10	1	-1E+10	1
4902554	31	C	12/11/2021	08:09	-136.284	49.382	0	1985.80	0	1.9720	0	34.5780	0	27.646	0	1959.584	0	-1e10	8	-1e10	8	-1E+10	1	-1E+10	1	-1E+10	1	-1E+10	1	-1E+10	1	-1E+10	1
4902554	31	C	12/11/2021	08:09	-136.284	49.382	0	1995.70	0	1.9660	0	34.5790	0	27.648	0	1969.307	0	-1e10	8	-1e10	8	-1E+10	1	-1E+10	1	-1E+10	1	-1E+10	1	-1E+10	1	-1E+10	1
4902554	31	C	12/11/2021	08:09	-136.284	49.382	0	2005.80	0	1.9630	0	34.5800	0	27.649	0	1979.227	0	-1e10	8	-1e10	8	-1E+10	1	-1E+10	1	-1E+10	1	-1E+10	1	-1E+10	1	-1E+10	1
4902554	31	C	12/11/2021	08:09	-136.284	49.382	0	2016.00	0	1.9590	0	34.5800	0	27.649	0	1989.244	0	-1e10	8	-1e10	8	-1E+10	1	-1E+10	1	-1E+10	1	-1E+10	1	-1E+10	1	-1E+10	1
4902554	31	C	12/11/2021	08:09	-136.284	49.382	0																										
4902554	32	C	12/21/2021	13:03	-136.269	49.455	0	1.00	0	7.3580	0	32.3290	0	25.267	0	0.991	0	-1e10	8	-1e10	8	-1E+10	1	-1E+10	1	-1E+10	1	-1E+10	1	-1E+10	1	-1E+10	1
4902554	32	C	12/21/2021	13:03	-136.269	49.455	0	1.90	0	7.3560	0	32.3320	0	25.270	0	1.884	0	-1e10	8	-1e10	8	-1E+10	1	-1E+10	1	-1E+10	1	-1E+10	1	-1E+10	1	-1E+10	1
4902554	32	C	12/21/2021	13:03	-136.269	49.455	0	3.00	0	7.3540	0	32.3350	0	25.272	0	2.974	0	-1e10	8	-1e10	8	-1E+10	1	-1E+10	1	-1E+10	1	-1E+10	1	-1E+10	1	-1E+10	1
4902554	32	C	12/21/2021	13:03	-136.269	49.455	0	4.00	0	7.3560	0	32.3350	0	25.272	0	3.966	0	-1e10	8	-1e10	8	-1E+10	1	-1E+10	1	-1E+10	1	-1E+10	1	-1E+10	1	-1E+10	1
4902554	32	C	12/21/2021	13:03	-136.269	49.455	0	5.00	0	7.3630	0	32.3300	0	25.267	0	4.957	0	-1e10	8	-1e10	8	-1E+10	1	-1E+10	1	-1E+10	1	-1E+10	1	-1E+10	1	-1E+10	1
4902554	32	C	12/21/2021	13:03	-136.269	49.455	0	6.20	0	7.3650	0	32.3320	0	25.269	0	6.147	0	-1e10	8	-1e10	8	-1E+10	1	-1E+10	1	-1E+10	1	-1E+10	1	-1E+10	1	-1E+10	1
4902554	32	C	12/21/2021	13:03	-136.269	49.455	0	7.00	0	7.3650	0	32.3320	0	25.269	0	6.940	0	-1e10	8	-1e10	8	-1E+10	1	-1E+10	1	-1E+10	1	-1E+10	1	-1E+10	1	-1E+10	1
4902554	32	C	12/21/2021	13:03	-136.269	49.455	0	7.90	0	7.3650	0	32.3320	0	25.269	0	7.833	0	-1e10	8	-1e10	8	-1E+10	1	-1E+10	1	-1E+10	1	-1E+10	1	-1E+10	1	-1E+10	1
4902554	32	C	12/21/2021	13:03	-136.269	49.455	0	8.80	0	7.3630	0	32.3320	0	25.269	0	8.725	0	-1e10	8	-1e10	8	-1E+10	1	-1E+10	1	-1E+10	1	-1E+10	1	-1E+10	1	-1E+10	1
4902554	32	C	12/21/2021	13:03	-136.269	49.455	0	10.00	0	7.3640	0	32.3310	0	25.268	0	9.915	0	-1e10	8	-1e10	8	-1E+10	1	-1E+10	1	-1E+10	1	-1E+10	1	-1E+10	1	-1E+10	1
4902554	32	C	12/21/2021	13:03	-136.269	49.455	0	10.90	0	7.3660	0	32.3320	0	25.269	0	10.807	0	-1e10	8	-1e10	8	-1E+10	1	-1E+10	1	-1E+10	1	-1E+10	1	-1E+10	1	-1E+10	1
4902554	32	C	12/21/2021	13:03	-136.269	49.455	0	11.80	0	7.3660	0	32.3320	0	25.269	0	11.699	0	-1e10	8	-1e10	8	-1E+10	1	-1E+10	1	-1E+10	1	-1E+10	1	-1E+10	1	-1E+10	1
4902554	32	C	12/21/2021	13:03	-136.269	49.455	0	12.90	0	7.3660	0	32.3320	0	25.269	0	12.790	0	-1e10	8	-1e10	8	-1E+10	1	-1E+10	1	-1E+10	1	-1E+10	1	-1E+10	1	-1E+10	1
4902554	32	C	12/21/2021	13:03	-136.269	49.455	0	14.10	0	7.3650	0	32.3320	0	25.269	0	13.979	0	-1e10	8	-1e10	8	-1E+10	1	-1E+10	1	-1E+10	1	-1E+10	1	-1E+10	1	-1E+10	1
4902554	32	C	12/21/2021	13:03	-136.269	49.455	0	15.00	0	7.3630	0	32.3320	0	25.269	0	14.872	0	-1e10	8	-1e10	8	-1E+10	1	-1E+10	1	-1E+10	1	-1E+10	1	-1E+10	1	-1E+10	1
4902554	32	C	12/21/2021	13:03	-136.269	49.455	0	15.90	0	7.3630	0	32.3320	0	25.269	0	15.764	0	-1e10	8	-1e10	8	-1E+10	1	-1E+10	1	-1E+10	1	-1E+10	1	-1E+10	1	-1E+10	1
4902554	32	C	12/21/2021	13:03	-136.269	49.455	0	16.90	0	7.3640	0	32.3320	0	25.269	0	16.755	0	-1e10	8	-1e10	8	-1E+10	1	-1E+10	1	-1E+10	1	-1E+10	1	-1E+10	1	-1E+10	1
4902554	32	C	12/21/2021	13:03	-136.269	49.455	0	17.80	0	7.3630	0	32.3320	0	25.269	0	17.648	0	-1e10	8	-1e10	8	-1E+10	1	-1E+10	1	-1E+10	1	-1E+10	1	-1E+10	1	-1E+10	1
4902554	32	C	12/21/2021	13:03	-136.269	49.455	0	19.00	0	7.3620	0	32.3310	0	25.268	0	18.837	0	-1e10	8	-1e10	8	-1E+10	1	-1E+10	1	-1E+10	1	-1E+10	1	-1E+10	1	-1E+10	1
4902554	32	C	12/21/2021	13:03	-136.269	49.455	0	20.00	0	7.3630	0	32.3310	0	25.268	0	19.829	0	-1e10	8	-1e10	8	-1E+10	1	-1E+10	1	-1E+10	1	-1E+10	1	-1E+10	1	-1E+10	1
4902554	32	C	12/21/2021	13:03	-136.269	49.455	0	20.90	0	7.3620	0	32.3310	0	25.268	0	20.721	0	-1e10	8	-1e10	8	-1E+10	1	-1E+10	1	-1E+10	1	-1E+10	1	-1E+10	1	-1E+10	1
4902554	32	C	12/21/2021	13:03	-136.269	49.455	0	21.80	0	7.3630	0	32.3320	0	25.269	0	21.613	0	-1e10	8	-1e10	8	-1E+10	1	-1E+10	1	-1E+10	1	-1E+10	1	-1E+10	1	-1E+10	1
4902554	32	C	12/21/2021	13:03	-136.269	49.455	0	22.80	0	7.3620	0	32.3320	0	25.269	0	22.604	0	-1e10	8	-1e10	8	-1E+10	1	-1E+10	1	-1E+10	1	-1E+10	1	-1E+10	1	-1E+10	1
4902554	32	C	12/21/2021	13:03	-136.269	49.455	0	23.80	0	7.3660	0	32.3320	0	25.269	0	23.596	0	-1e10	8	-1e10	8	-1E+10	1	-1E+10	1	-1E+10	1	-1E+10	1	-1E+10	1	-1E+10	1
4902554	32	C	12/21/2021	13:03	-136.269	49.455	0	24.80	0	7.3660	0	32.3320	0	25.269	0	24.587	0	-1e10	8	-1e10	8	-1E+10	1	-1E+10	1	-1E+10	1	-1E+10	1	-1E+10	1	-1E+10	1
4902554	32	C	12/21/2021	13:03	-136.269	49.455	0	25.80	0	7.3670	0	32.3320	0	25.269	0	25.578	0	-1e10	8	-1e10	8	-1E+10	1	-1E+10	1	-1E+10	1	-1E+10	1	-1E+10	1	-1E+10	1
4902554	32	C	12/21/2021	13:03	-136.269	49.455	0	26.80	0	7.3660	0	32.3320	0	25.269	0	26.570	0	-1e10	8	-1e10	8	-1E+10	1	-1E+10	1	-1E+10	1	-1E+10	1	-1E+10	1	-1E+10	1
4902554	32	C	12/21/2021	13:03	-136.269	49.455	0	28.00	0	7.3670	0	32.3320	0	25.269	0	27.759	0	-1e10	8	-1e10	8	-1E+10	1	-1E+10	1	-1E+10	1	-1E+10	1	-1E+10	1	-1E+10	1
4902554	32	C	12/21/2021	13:03	-136.269	49.455	0	29.00	0	7.3700	0	32.3320	0	25.268	0	28.751	0	-1e10	8	-1e10	8	-1E+10	1	-1E+10	1	-1E+10	1	-1E+10	1	-1E+10	1	-1E+10	1
4902554	32	C	12/21/2021	13:03	-136.269	49.455	0	30.00	0	7.3700	0	32.3320	0	25.268	0	29.742	0	-1e10	8	-1e10	8	-1E+10	1	-1E+10	1	-1E+10	1	-1E+10	1	-1E+10	1	-1E+10	1
4902554	32	C	12/21/2021	13:03	-136.269	49.455	0	31.00	0	7.3700	0	32.3320	0	25.268	0	30.733	0	-1e10	8	-1e10	8	-1E+10	1	-1E+10	1	-1E+10	1	-1E+10	1	-1E+10	1	-1E+10	1
4902554	32	C	12/21/2021	13:03	-136.269	49.455	0	31.90	0	7.3700	0	32.3310	0	25.268	0	31.626	0	-1e10	8	-1e10	8	-1E+10	1	-1E+10	1	-1E+10	1	-1E+10	1	-1E+10	1	-1E+10	1
4902554	32	C	12/21/2021	13:03	-136.269	49.455	0	32.90	0	7.3700	0	32.3320	0	25.268	0	32.617	0	-1e10	8	-1e10	8	-1E+10	1	-1E+10	1	-1E+10	1	-1E+10	1	-1E+10	1	-1E+10	1
4902554	32	C	12/21/2021	13:03	-136.269	49.455	0	33.90	0	7.3710	0	32.3320	0	25.268	0	33.608	0	-1e10	8	-1e10	8	-1E+10	1	-1E+10	1	-1E+10	1	-1E+10	1	-1E+10	1	-1E+10	1
4902554	32	C	12/21/2021	13:03	-136.269	49.455	0	34.80	0	7.3720	0	32.3320	0	25.268	0	34.500	0	-1e10	8	-1e10	8	-1E+10	1	-1E+10	1	-1E+10	1	-1E+10	1	-1E+10	1	-1E+10	1
4902554	32	C	12/21/2021	13:03	-136.269	49.455	0	35.80	0	7.3690	0	32.3320	0	25.268	0	35.492	0	-1e10	8	-1e10	8	-1E+10	1	-1E+10	1	-1E+10	1	-1E+10	1	-1E+10	1	-1E+10	1
4902554	32	C	12/21/2021	13:03	-136.269	49.455	0	37.10	0	7.3710	0	32.3320	0	25.268	0	36.780	0	-1e10	8	-1e10	8	-1E+10	1	-1E+10	1	-1E+10	1	-1E+10	1	-1E+10	1	-1E+10	1
4902554	32	C	12/21/2021	13:03	-136.269	49.455	0	38.00	0	7.3690	0	32.3320	0	25.269	0	37.673	0	-1e10	8	-1e10	8	-1E+10	1	-1E+10	1	-1E+10	1	-1E+10	1	-1E+10	1	-1E+10	1
4902554	32	C	12/21/2021	13:03	-136.269	49.455	0	38.90	0	7.3710	0	32.3310	0	25.267	0	38.565	0	-1e10	8	-1e10	8	-1E+10	1	-1E+10	1	-1E+10	1	-1E+10	1	-1E+10	1	-1E+10	1
4902554	32	C	12/21/2021	13:03	-136.269	49.455	0	39.80	0	7.3710	0	32.3320	0	25.268	0	39.457	0	-1e10	8	-1e10	8	-1E+10	1	-1E+10	1	-1E+10	1	-1E+10	1	-1E+10	1	-1E+10	1
4902554	32	C	12/21/2021	13:03	-136.269	49.455	0	40.80	0	7.3720	0	32.3320	0	25.268	0	40.448	0	-1e10	8	-1e10	8	-1E+10	1	-1E+10	1	-1E+10	1	-1E+10	1	-1E+10	1	-1E+10	1
4902554	32	C	12/21/2021	13:03	-136.269	49.455	0	42.00	0	7.3710	0	32.3320	0	25.268	0	41.638	0	-1e10	8	-1e10	8	-1E+10	1	-1E+10	1	-1E+10	1	-1E+10	1	-1E+10	1	-1E+10	1
4902554	32	C	12/21/2021	13:03	-136.269	49.455	0	43.00	0	7.3720	0	32.3320	0	25.268	0	42.629	0	-1e10	8	-1e10	8	-1E+10	1	-1E+10	1	-1E+10	1	-1E+10	1	-1E+10	1	-1E+10	1
4902554	32	C	12/21/2021	13:03	-136.269	49.455	0	43.90	0	7.3700	0	32.3320	0	25.268	0	43.521	0	-1e10	8	-1e10	8	-1E+10	1	-1E+10	1	-1E+10	1	-1E+10	1	-1E+10	1	-1E+10	1
4902554	32	C	12/21/2021	13:03	-136.269	49.455	0	45.00	0	7.3720	0	32.3310	0	25.267	0	44.612	0	-1e10	8	-1e10	8	-1E+10	1	-1E+10	1	-1E+10	1	-1E+10	1	-1E+10	1	-1E+10	1
4902554	32	C	12/21/2021	13:03	-136.269	49.455	0	45.90	0	7.3710	0	32.3320	0	25.268	0	45.504	0	-1e10	8	-1e10	8	-1E+10	1	-1E+10	1	-1E+10	1	-1E+10	1	-1E+10	1	-1E+10	1
4902554	32	C	12/21/2021	13:03	-136.269	49.455	0	47.00	0	7.3710	0	32.3320	0	25.268	0	46.594	0	-1e10	8	-1e10	8	-1E+10	1	-1E+10	1	-1E+10	1	-1E+10	1	-1E+10	1	-1E+10	1
4902554	32	C	12/21/2021	13:03	-136.269	49.455	0	48.00	0	7.3760	0	32.3320	0	25.268	0	47.585	0	-1e10	8	-1e10	8	-1E+10	1	-1E+10	1	-1E+10	1	-1E+10	1	-1E+10	1	-1E+10	1
4902554	32	C	12/21/2021	13:03	-136.269	49.455	0	49.10	0	7.3760	0	32.3330	0	25.268	0	48.676	0	-1e10	8	-1e10	8	-1E+10	1	-1E+10	1	-1E+10	1	-1E+10	1	-1E+10	1	-1E+10	1
4902554	32	C	12/21/2021	13:03	-136.269	49.455	0	49.80	0	7.3760	0	32.3330	0	25.268	0	49.370	0	-1e10	8	-1e10	8	-1E+10	1	-1E+10	1	-1E+10	1	-1E+10	1	-1E+10	1	-1E+10	1
4902554	32	C	12/21/2021	13:03	-136.269	49.455	0	50.90	0	7.3760	0	32.3320	0	25.268	0	50.460	0	-1e10	8	-1e10	8	-1E+10	1	-1E+10	1	-1E+10	1	-1E+10	1	-1E+10	1	-1E+10	1
4902554	32	C	12/21/2021	13:03	-136.269	49.455	0	52.00	0	7.3770	0	32.3320	0	25.268	0	51.550	0	-1e10	8	-1e10	8	-1E+10	1	-1E+10	1	-1E+10	1	-1E+10	1	-1E+10	1	-1E+10	1
4902554	32	C	12/21/2021	13:03	-136.269	49.455	0	52.80	0	7.3770	0	32.3330	0	25.268	0	52.343	0	-1e10	8	-1e10	8	-1E+10	1	-1E+10	1	-1E+10	1	-1E+10	1	-1E+10	1	-1E+10	1
4902554	32	C	12/21/2021	13:03	-136.269	49.455	0	53.90	0	7.3770	0	32.3320	0	25.268	0	53.434	0	-1e10	8	-1e10	8	-1E+10	1	-1E+10	1	-1E+10	1	-1E+10	1	-1E+10	1	-1E+10	1
4902554	32	C	12/21/2021	13:03	-136.269	49.455	0	55.00	0	7.3750	0	32.3330	0	25.269	0	54.524	0	-1e10	8	-1e10	8	-1E+10	1	-1E+10	1	-1E+10	1	-1E+10	1	-1E+10	1	-1E+10	1
4902554	32	C	12/21/2021	13:03	-136.269	49.455	0	55.80	0	7.3760	0	32.3330	0	25.269	0	55.317	0	-1e10	8	-1e10	8	-1E+10	1	-1E+10	1	-1E+10	1	-1E+10	1	-1E+10	1	-1E+10	1
4902554	32	C	12/21/2021	13:03	-136.269	49.455	0	56.80	0	7.3760	0	32.3330	0	25.269	0	56.308	0	-1e10	8	-1e10	8	-1E+10	1	-1E+10	1	-1E+10	1	-1E+10	1	-1E+10	1	-1E+10	1
4902554	32	C	12/21/2021	13:03	-136.269	49.455	0	57.90	0	7.3760	0	32.3330	0	25.269	0	57.398	0	-1e10	8	-1e10	8	-1E+10	1	-1E+10	1	-1E+10	1	-1E+10	1	-1E+10	1	-1E+10	1
4902554	32	C	12/21/2021	13:03	-136.269	49.455	0	59.00	0	7.3760	0	32.3330	0	25.269	0	58.489	0	-1e10	8	-1e10	8	-1E+10	1	-1E+10	1	-1E+10	1	-1E+10	1	-1E+10	1	-1E+10	1
4902554	32	C	12/21/2021	13:03	-136.269	49.455	0	60.10	0	7.3770	0	32.3320	0	25.268	0	59.579	0	-1e10	8	-1e10	8	-1E+10	1	-1E+10	1	-1E+10	1	-1E+10	1	-1E+10	1	-1E+10	1
4902554	32	C	12/21/2021	13:03	-136.269	49.455	0	60.80	0	7.3780	0	32.3320	0	25.268	0	60.273	0	-1e10	8	-1e10	8	-1E+10	1	-1E+10	1	-1E+10	1	-1E+10	1	-1E+10	1	-1E+10	1
4902554	32	C	12/21/2021	13:03	-136.269	49.455	0	61.80	0	7.3770	0	32.3330	0	25.268	0	61.264	0	-1e10	8	-1e10	8	-1E+10	1	-1E+10	1	-1E+10	1	-1E+10	1	-1E+10	1	-1E+10	1
4902554	32	C	12/21/2021	13:03	-136.269	49.455	0	63.00	0	7.3770	0	32.3330	0	25.269	0	62.453	0	-1e10	8	-1e10	8	-1E+10	1	-1E+10	1	-1E+10	1	-1E+10	1	-1E+10	1	-1E+10	1
4902554	32	C	12/21/2021	13:03	-136.269	49.455	0	64.00	0	7.3770	0	32.3330	0	25.269	0	63.445	0	-1e10	8	-1e10	8	-1E+10	1	-1E+10	1	-1E+10	1	-1E+10	1	-1E+10	1	-1E+10	1
4902554	32	C	12/21/2021	13:03	-136.269	49.455	0	65.10	0	7.3780	0	32.3330	0	25.268	0	64.535	0	-1e10	8	-1e10	8	-1E+10	1	-1E+10	1	-1E+10	1	-1E+10	1	-1E+10	1	-1E+10	1
4902554	32	C	12/21/2021	13:03	-136.269	49.455	0	65.80	0	7.3780	0	32.3330	0	25.268	0	65.229	0	-1e10	8	-1e10	8	-1E+10	1	-1E+10	1	-1E+10	1	-1E+10	1	-1E+10	1	-1E+10	1
4902554	32	C	12/21/2021	13:03	-136.269	49.455	0	66.80	0	7.3770	0	32.3330	0	25.269	0	66.220	0	-1e10	8	-1e10	8	-1E+10	1	-1E+10	1	-1E+10	1	-1E+10	1	-1E+10	1	-1E+10	1
4902554	32	C	12/21/2021	13:03	-136.269	49.455	0	67.90	0	7.3780	0	32.3330	0	25.268	0	67.310	0	-1e10	8	-1e10	8	-1E+10	1	-1E+10	1	-1E+10	1	-1E+10	1	-1E+10	1	-1E+10	1
4902554	32	C	12/21/2021	13:03	-136.269	49.455	0	68.90	0	7.3770	0	32.3330	0	25.269	0	68.301	0	-1e10	8	-1e10	8	-1E+10	1	-1E+10	1	-1E+10	1	-1E+10	1	-1E+10	1	-1E+10	1
4902554	32	C	12/21/2021	13:03	-136.269	49.455	0	70.00	0	7.3770	0	32.3340	0	25.269	0	69.392	0	-1e10	8	-1e10	8	-1E+10	1	-1E+10	1	-1E+10	1	-1E+10	1	-1E+10	1	-1E+10	1
4902554	32	C	12/21/2021	13:03	-136.269	49.455	0	71.00	0	7.3770	0	32.3330	0	25.269	0	70.383	0	-1e10	8	-1e10	8	-1E+10	1	-1E+10	1	-1E+10	1	-1E+10	1	-1E+10	1	-1E+10	1
4902554	32	C	12/21/2021	13:03	-136.269	49.455	0	72.00	0	7.3780	0	32.3330	0	25.268	0	71.374	0	-1e10	8	-1e10	8	-1E+10	1	-1E+10	1	-1E+10	1	-1E+10	1	-1E+10	1	-1E+10	1
4902554	32	C	12/21/2021	13:03	-136.269	49.455	0	72.90	0	7.3770	0	32.3330	0	25.269	0	72.266	0	-1e10	8	-1e10	8	-1E+10	1	-1E+10	1	-1E+10	1	-1E+10	1	-1E+10	1	-1E+10	1
4902554	32	C	12/21/2021	13:03	-136.269	49.455	0	73.90	0	7.3770	0	32.3330	0	25.269	0	73.257	0	-1e10	8	-1e10	8	-1E+10	1	-1E+10	1	-1E+10	1	-1E+10	1	-1E+10	1	-1E+10	1
4902554	32	C	12/21/2021	13:03	-136.269	49.455	0	74.70	0	7.3750	0	32.3330	0	25.269	0	74.050	0	-1e10	8	-1e10	8	-1E+10	1	-1E+10	1	-1E+10	1	-1E+10	1	-1E+10	1	-1E+10	1
4902554	32	C	12/21/2021	13:03	-136.269	49.455	0	75.80	0	7.3650	0	32.3350	0	25.272	0	75.140	0	-1e10	8	-1e10	8	-1E+10	1	-1E+10	1	-1E+10	1	-1E+10	1	-1E+10	1	-1E+10	1
4902554	32	C	12/21/2021	13:03	-136.269	49.455	0	76.90	0	7.3140	0	32.3460	0	25.288	0	76.230	0	-1e10	8	-1e10	8	-1E+10	1	-1E+10	1	-1E+10	1	-1E+10	1	-1E+10	1	-1E+10	1
4902554	32	C	12/21/2021	13:03	-136.269	49.455	0	78.10	0	7.2060	0	32.3720	0	25.323	0	77.420	0	-1e10	8	-1e10	8	-1E+10	1	-1E+10	1	-1E+10	1	-1E+10	1	-1E+10	1	-1E+10	1
4902554	32	C	12/21/2021	13:03	-136.269	49.455	0	79.00	0	7.0520	0	32.4040	0	25.369	0	78.312	0	-1e10	8	-1e10	8	-1E+10	1	-1E+10	1	-1E+10	1	-1E+10	1	-1E+10	1	-1E+10	1
4902554	32	C	12/21/2021	13:03	-136.269	49.455	0	80.00	0	6.8570	0	32.4410	0	25.423	0	79.303	0	-1e10	8	-1e10	8	-1E+10	1	-1E+10	1	-1E+10	1	-1E+10	1	-1E+10	1	-1E+10	1
4902554	32	C	12/21/2021	13:03	-136.269	49.455	0	80.90	0	6.7250	0	32.4620	0	25.457	0	80.195	0	-1e10	8	-1e10	8	-1E+10	1	-1E+10	1	-1E+10	1	-1E+10	1	-1E+10	1	-1E+10	1
4902554	32	C	12/21/2021	13:03	-136.269	49.455	0	81.90	0	6.5960	0	32.4870	0	25.494	0	81.186	0	-1e10	8	-1e10	8	-1E+10	1	-1E+10	1	-1E+10	1	-1E+10	1	-1E+10	1	-1E+10	1
4902554	32	C	12/21/2021	13:03	-136.269	49.455	0	82.90	0	6.4680	0	32.5140	0	25.531	0	82.177	0	-1e10	8	-1e10	8	-1E+10	1	-1E+10	1	-1E+10	1	-1E+10	1	-1E+10	1	-1E+10	1
4902554	32	C	12/21/2021	13:03	-136.269	49.455	0	83.80	0	6.4120	0	32.5150	0	25.539	0	83.069	0	-1e10	8	-1e10	8	-1E+10	1	-1E+10	1	-1E+10	1	-1E+10	1	-1E+10	1	-1E+10	1
4902554	32	C	12/21/2021	13:03	-136.269	49.455	0	84.70	0	6.4040	0	32.5120	0	25.538	0	83.961	0	-1e10	8	-1e10	8	-1E+10	1	-1E+10	1	-1E+10	1	-1E+10	1	-1E+10	1	-1E+10	1
4902554	32	C	12/21/2021	13:03	-136.269	49.455	0	85.70	0	6.3230	0	32.5270	0	25.560	0	84.952	0	-1e10	8	-1e10	8	-1E+10	1	-1E+10	1	-1E+10	1	-1E+10	1	-1E+10	1	-1E+10	1
4902554	32	C	12/21/2021	13:03	-136.269	49.455	0	86.80	0	6.1280	0	32.5560	0	25.607	0	86.042	0	-1e10	8	-1e10	8	-1E+10	1	-1E+10	1	-1E+10	1	-1E+10	1	-1E+10	1	-1E+10	1
4902554	32	C	12/21/2021	13:03	-136.269	49.455	0	87.80	0	5.9840	0	32.5990	0	25.659	0	87.033	0	-1e10	8	-1e10	8	-1E+10	1	-1E+10	1	-1E+10	1	-1E+10	1	-1E+10	1	-1E+10	1
4902554	32	C	12/21/2021	13:03	-136.269	49.455	0	89.00	0	5.9440	0	32.6150	0	25.676	0	88.222	0	-1e10	8	-1e10	8	-1E+10	1	-1E+10	1	-1E+10	1	-1E+10	1	-1E+10	1	-1E+10	1
4902554	32	C	12/21/2021	13:03	-136.269	49.455	0	90.10	0	5.9200	0	32.6260	0	25.688	0	89.313	0	-1e10	8	-1e10	8	-1E+10	1	-1E+10	1	-1E+10	1	-1E+10	1	-1E+10	1	-1E+10	1
4902554	32	C	12/21/2021	13:03	-136.269	49.455	0	90.90	0	5.9060	0	32.6460	0	25.705	0	90.105	0	-1e10	8	-1e10	8	-1E+10	1	-1E+10	1	-1E+10	1	-1E+10	1	-1E+10	1	-1E+10	1
4902554	32	C	12/21/2021	13:03	-136.269	49.455	0	91.80	0	5.8980	0	32.6540	0	25.713	0	90.997	0	-1e10	8	-1e10	8	-1E+10	1	-1E+10	1	-1E+10	1	-1E+10	1	-1E+10	1	-1E+10	1
4902554	32	C	12/21/2021	13:03	-136.269	49.455	0	92.90	0	5.8970	0	32.6720	0	25.727	0	92.087	0	-1e10	8	-1e10	8	-1E+10	1	-1E+10	1	-1E+10	1	-1E+10	1	-1E+10	1	-1E+10	1
4902554	32	C	12/21/2021	13:03	-136.269	49.455	0	94.00	0	5.9120	0	32.7190	0	25.762	0	93.178	0	-1e10	8	-1e10	8	-1E+10	1	-1E+10	1	-1E+10	1	-1E+10	1	-1E+10	1	-1E+10	1
4902554	32	C	12/21/2021	13:03	-136.269	49.455	0	95.30	0	5.9130	0	32.7370	0	25.776	0	94.466	0	-1e10	8	-1e10	8	-1E+10	1	-1E+10	1	-1E+10	1	-1E+10	1	-1E+10	1	-1E+10	1
4902554	32	C	12/21/2021	13:03	-136.269	49.455	0	95.90	0	5.9210	0	32.7630	0	25.796	0	95.061	0	-1e10	8	-1e10	8	-1E+10	1	-1E+10	1	-1E+10	1	-1E+10	1	-1E+10	1	-1E+10	1
4902554	32	C	12/21/2021	13:03	-136.269	49.455	0	96.80	0	5.9200	0	32.7830	0	25.812	0	95.952	0	-1e10	8	-1e10	8	-1E+10	1	-1E+10	1	-1E+10	1	-1E+10	1	-1E+10	1	-1E+10	1
4902554	32	C	12/21/2021	13:03	-136.269	49.455	0	97.70	0	5.9150	0	32.7900	0	25.818	0	96.844	0	-1e10	8	-1e10	8	-1E+10	1	-1E+10	1	-1E+10	1	-1E+10	1	-1E+10	1	-1E+10	1
4902554	32	C	12/21/2021	13:03	-136.269	49.455	0	99.10	0	5.9130	0	32.7990	0	25.825	0	98.232	0	-1e10	8	-1e10	8	-1E+10	1	-1E+10	1	-1E+10	1	-1E+10	1	-1E+10	1	-1E+10	1
4902554	32	C	12/21/2021	13:03	-136.269	49.455	0	100.00	0	5.9120	0	32.8080	0	25.833	0	99.124	0	-1e10	8	-1e10	8	-1E+10	1	-1E+10	1	-1E+10	1	-1E+10	1	-1E+10	1	-1E+10	1
4902554	32	C	12/21/2021	13:03	-136.269	49.455	0	101.00	0	5.9170	0	32.8180	0	25.840	0	100.115	0	-1e10	8	-1e10	8	-1E+10	1	-1E+10	1	-1E+10	1	-1E+10	1	-1E+10	1	-1E+10	1
4902554	32	C	12/21/2021	13:03	-136.269	49.455	0	102.00	0	5.9220	0	32.8290	0	25.848	0	101.106	0	-1e10	8	-1e10	8	-1E+10	1	-1E+10	1	-1E+10	1	-1E+10	1	-1E+10	1	-1E+10	1
4902554	32	C	12/21/2021	13:03	-136.269	49.455	0	103.10	0	5.9260	0	32.8410	0	25.857	0	102.196	0	-1e10	8	-1e10	8	-1E+10	1	-1E+10	1	-1E+10	1	-1E+10	1	-1E+10	1	-1E+10	1
4902554	32	C	12/21/2021	13:03	-136.269	49.455	0	104.10	0	5.9430	0	32.8630	0	25.872	0	103.187	0	-1e10	8	-1e10	8	-1E+10	1	-1E+10	1	-1E+10	1	-1E+10	1	-1E+10	1	-1E+10	1
4902554	32	C	12/21/2021	13:03	-136.269	49.455	0	104.90	0	5.9470	0	32.8750	0	25.881	0	103.979	0	-1e10	8	-1e10	8	-1E+10	1	-1E+10	1	-1E+10	1	-1E+10	1	-1E+10	1	-1E+10	1
4902554	32	C	12/21/2021	13:03	-136.269	49.455	0	105.70	0	5.9470	0	32.8800	0	25.885	0	104.772	0	-1e10	8	-1e10	8	-1E+10	1	-1E+10	1	-1E+10	1	-1E+10	1	-1E+10	1	-1E+10	1
4902554	32	C	12/21/2021	13:03	-136.269	49.455	0	106.70	0	5.9540	0	32.8930	0	25.895	0	105.763	0	-1e10	8	-1e10	8	-1E+10	1	-1E+10	1	-1E+10	1	-1E+10	1	-1E+10	1	-1E+10	1
4902554	32	C	12/21/2021	13:03	-136.269	49.455	0	108.10	0	5.9610	0	32.9560	0	25.944	0	107.151	0	-1e10	8	-1e10	8	-1E+10	1	-1E+10	1	-1E+10	1	-1E+10	1	-1E+10	1	-1E+10	1
4902554	32	C	12/21/2021	13:03	-136.269	49.455	0	109.10	0	5.9690	0	32.9970	0	25.975	0	108.141	0	-1e10	8	-1e10	8	-1E+10	1	-1E+10	1	-1E+10	1	-1E+10	1	-1E+10	1	-1E+10	1
4902554	32	C	12/21/2021	13:03	-136.269	49.455	0	110.00	0	5.9770	0	33.0270	0	25.998	0	109.033	0	-1e10	8	-1e10	8	-1E+10	1	-1E+10	1	-1E+10	1	-1E+10	1	-1E+10	1	-1E+10	1
4902554	32	C	12/21/2021	13:03	-136.269	49.455	0	111.10	0	5.9840	0	33.0520	0	26.017	0	110.123	0	-1e10	8	-1e10	8	-1E+10	1	-1E+10	1	-1E+10	1	-1E+10	1	-1E+10	1	-1E+10	1
4902554	32	C	12/21/2021	13:03	-136.269	49.455	0	112.00	0	6.0000	0	33.1040	0	26.056	0	111.015	0	-1e10	8	-1e10	8	-1E+10	1	-1E+10	1	-1E+10	1	-1E+10	1	-1E+10	1	-1E+10	1
4902554	32	C	12/21/2021	13:03	-136.269	49.455	0	113.20	0	6.0140	0	33.1540	0	26.094	0	112.204	0	-1e10	8	-1e10	8	-1E+10	1	-1E+10	1	-1E+10	1	-1E+10	1	-1E+10	1	-1E+10	1
4902554	32	C	12/21/2021	13:03	-136.269	49.455	0	113.80	0	6.0160	0	33.1770	0	26.112	0	112.799	0	-1e10	8	-1e10	8	-1E+10	1	-1E+10	1	-1E+10	1	-1E+10	1	-1E+10	1	-1E+10	1
4902554	32	C	12/21/2021	13:03	-136.269	49.455	0	115.10	0	6.0200	0	33.2040	0	26.132	0	114.087	0	-1e10	8	-1e10	8	-1E+10	1	-1E+10	1	-1E+10	1	-1E+10	1	-1E+10	1	-1E+10	1
4902554	32	C	12/21/2021	13:03	-136.269	49.455	0	116.20	0	6.0220	0	33.2120	0	26.139	0	115.177	0	-1e10	8	-1e10	8	-1E+10	1	-1E+10	1	-1E+10	1	-1E+10	1	-1E+10	1	-1E+10	1
4902554	32	C	12/21/2021	13:03	-136.269	49.455	0	117.10	0	6.0250	0	33.2270	0	26.150	0	116.069	0	-1e10	8	-1e10	8	-1E+10	1	-1E+10	1	-1E+10	1	-1E+10	1	-1E+10	1	-1E+10	1
4902554	32	C	12/21/2021	13:03	-136.269	49.455	0	117.90	0	6.0280	0	33.2490	0	26.167	0	116.862	0	-1e10	8	-1e10	8	-1E+10	1	-1E+10	1	-1E+10	1	-1E+10	1	-1E+10	1	-1E+10	1
4902554	32	C	12/21/2021	13:03	-136.269	49.455	0	119.00	0	6.0330	0	33.2840	0	26.194	0	117.952	0	-1e10	8	-1e10	8	-1E+10	1	-1E+10	1	-1E+10	1	-1E+10	1	-1E+10	1	-1E+10	1
4902554	32	C	12/21/2021	13:03	-136.269	49.455	0	119.90	0	6.0390	0	33.3510	0	26.246	0	118.844	0	-1e10	8	-1e10	8	-1E+10	1	-1E+10	1	-1E+10	1	-1E+10	1	-1E+10	1	-1E+10	1
4902554	32	C	12/21/2021	13:03	-136.269	49.455	0	120.90	0	6.0400	0	33.3720	0	26.263	0	119.834	0	-1e10	8	-1e10	8	-1E+10	1	-1E+10	1	-1E+10	1	-1E+10	1	-1E+10	1	-1E+10	1
4902554	32	C	12/21/2021	13:03	-136.269	49.455	0	121.90	0	6.0410	0	33.3890	0	26.276	0	120.825	0	-1e10	8	-1e10	8	-1E+10	1	-1E+10	1	-1E+10	1	-1E+10	1	-1E+10	1	-1E+10	1
4902554	32	C	12/21/2021	13:03	-136.269	49.455	0	122.80	0	6.0420	0	33.3960	0	26.281	0	121.717	0	-1e10	8	-1e10	8	-1E+10	1	-1E+10	1	-1E+10	1	-1E+10	1	-1E+10	1	-1E+10	1
4902554	32	C	12/21/2021	13:03	-136.269	49.455	0	123.70	0	6.0420	0	33.4020	0	26.286	0	122.609	0	-1e10	8	-1e10	8	-1E+10	1	-1E+10	1	-1E+10	1	-1E+10	1	-1E+10	1	-1E+10	1
4902554	32	C	12/21/2021	13:03	-136.269	49.455	0	124.70	0	6.0430	0	33.4240	0	26.303	0	123.600	0	-1e10	8	-1e10	8	-1E+10	1	-1E+10	1	-1E+10	1	-1E+10	1	-1E+10	1	-1E+10	1
4902554	32	C	12/21/2021	13:03	-136.269	49.455	0	125.70	0	6.0420	0	33.4540	0	26.327	0	124.591	0	-1e10	8	-1e10	8	-1E+10	1	-1E+10	1	-1E+10	1	-1E+10	1	-1E+10	1	-1E+10	1
4902554	32	C	12/21/2021	13:03	-136.269	49.455	0	126.80	0	6.0380	0	33.4720	0	26.342	0	125.681	0	-1e10	8	-1e10	8	-1E+10	1	-1E+10	1	-1E+10	1	-1E+10	1	-1E+10	1	-1E+10	1
4902554	32	C	12/21/2021	13:03	-136.269	49.455	0	127.90	0	6.0310	0	33.5030	0	26.367	0	126.771	0	-1e10	8	-1e10	8	-1E+10	1	-1E+10	1	-1E+10	1	-1E+10	1	-1E+10	1	-1E+10	1
4902554	32	C	12/21/2021	13:03	-136.269	49.455	0	129.00	0	6.0250	0	33.5160	0	26.378	0	127.860	0	-1e10	8	-1e10	8	-1E+10	1	-1E+10	1	-1E+10	1	-1E+10	1	-1E+10	1	-1E+10	1
4902554	32	C	12/21/2021	13:03	-136.269	49.455	0	130.10	0	6.0180	0	33.5300	0	26.390	0	128.950	0	-1e10	8	-1e10	8	-1E+10	1	-1E+10	1	-1E+10	1	-1E+10	1	-1E+10	1	-1E+10	1
4902554	32	C	12/21/2021	13:03	-136.269	49.455	0	130.90	0	6.0170	0	33.5320	0	26.392	0	129.743	0	-1e10	8	-1e10	8	-1E+10	1	-1E+10	1	-1E+10	1	-1E+10	1	-1E+10	1	-1E+10	1
4902554	32	C	12/21/2021	13:03	-136.269	49.455	0	131.80	0	6.0120	0	33.5460	0	26.404	0	130.635	0	-1e10	8	-1e10	8	-1E+10	1	-1E+10	1	-1E+10	1	-1E+10	1	-1E+10	1	-1E+10	1
4902554	32	C	12/21/2021	13:03	-136.269	49.455	0	133.00	0	6.0030	0	33.5650	0	26.420	0	131.824	0	-1e10	8	-1e10	8	-1E+10	1	-1E+10	1	-1E+10	1	-1E+10	1	-1E+10	1	-1E+10	1
4902554	32	C	12/21/2021	13:03	-136.269	49.455	0	134.00	0	5.9890	0	33.5840	0	26.437	0	132.815	0	-1e10	8	-1e10	8	-1E+10	1	-1E+10	1	-1E+10	1	-1E+10	1	-1E+10	1	-1E+10	1
4902554	32	C	12/21/2021	13:03	-136.269	49.455	0	135.00	0	5.9820	0	33.5920	0	26.444	0	133.806	0	-1e10	8	-1e10	8	-1E+10	1	-1E+10	1	-1E+10	1	-1E+10	1	-1E+10	1	-1E+10	1
4902554	32	C	12/21/2021	13:03	-136.269	49.455	0	136.00	0	5.9790	0	33.5960	0	26.447	0	134.796	0	-1e10	8	-1e10	8	-1E+10	1	-1E+10	1	-1E+10	1	-1E+10	1	-1E+10	1	-1E+10	1
4902554	32	C	12/21/2021	13:03	-136.269	49.455	0	137.00	0	5.9780	0	33.5960	0	26.448	0	135.787	0	-1e10	8	-1e10	8	-1E+10	1	-1E+10	1	-1E+10	1	-1E+10	1	-1E+10	1	-1E+10	1
4902554	32	C	12/21/2021	13:03	-136.269	49.455	0	138.00	0	5.9770	0	33.5980	0	26.449	0	136.778	0	-1e10	8	-1e10	8	-1E+10	1	-1E+10	1	-1E+10	1	-1E+10	1	-1E+10	1	-1E+10	1
4902554	32	C	12/21/2021	13:03	-136.269	49.455	0	138.90	0	5.9710	0	33.6040	0	26.455	0	137.670	0	-1e10	8	-1e10	8	-1E+10	1	-1E+10	1	-1E+10	1	-1E+10	1	-1E+10	1	-1E+10	1
4902554	32	C	12/21/2021	13:03	-136.269	49.455	0	140.00	0	5.9650	0	33.6130	0	26.463	0	138.760	0	-1e10	8	-1e10	8	-1E+10	1	-1E+10	1	-1E+10	1	-1E+10	1	-1E+10	1	-1E+10	1
4902554	32	C	12/21/2021	13:03	-136.269	49.455	0	141.00	0	5.9610	0	33.6190	0	26.468	0	139.750	0	-1e10	8	-1e10	8	-1E+10	1	-1E+10	1	-1E+10	1	-1E+10	1	-1E+10	1	-1E+10	1
4902554	32	C	12/21/2021	13:03	-136.269	49.455	0	142.10	0	5.9480	0	33.6300	0	26.478	0	140.840	0	-1e10	8	-1e10	8	-1E+10	1	-1E+10	1	-1E+10	1	-1E+10	1	-1E+10	1	-1E+10	1
4902554	32	C	12/21/2021	13:03	-136.269	49.455	0	142.80	0	5.9340	0	33.6410	0	26.489	0	141.534	0	-1e10	8	-1e10	8	-1E+10	1	-1E+10	1	-1E+10	1	-1E+10	1	-1E+10	1	-1E+10	1
4902554	32	C	12/21/2021	13:03	-136.269	49.455	0	143.90	0	5.9130	0	33.6600	0	26.506	0	142.624	0	-1e10	8	-1e10	8	-1E+10	1	-1E+10	1	-1E+10	1	-1E+10	1	-1E+10	1	-1E+10	1
4902554	32	C	12/21/2021	13:03	-136.269	49.455	0	145.10	0	5.9050	0	33.6680	0	26.514	0	143.813	0	-1e10	8	-1e10	8	-1E+10	1	-1E+10	1	-1E+10	1	-1E+10	1	-1E+10	1	-1E+10	1
4902554	32	C	12/21/2021	13:03	-136.269	49.455	0	145.80	0	5.9050	0	33.6690	0	26.514	0	144.506	0	-1e10	8	-1e10	8	-1E+10	1	-1E+10	1	-1E+10	1	-1E+10	1	-1E+10	1	-1E+10	1
4902554	32	C	12/21/2021	13:03	-136.269	49.455	0	147.00	0	5.9040	0	33.6710	0	26.516	0	145.695	0	-1e10	8	-1e10	8	-1E+10	1	-1E+10	1	-1E+10	1	-1E+10	1	-1E+10	1	-1E+10	1
4902554	32	C	12/21/2021	13:03	-136.269	49.455	0	148.10	0	5.9020	0	33.6710	0	26.516	0	146.785	0	-1e10	8	-1e10	8	-1E+10	1	-1E+10	1	-1E+10	1	-1E+10	1	-1E+10	1	-1E+10	1
4902554	32	C	12/21/2021	13:03	-136.269	49.455	0	148.90	0	5.9010	0	33.6720	0	26.517	0	147.578	0	-1e10	8	-1e10	8	-1E+10	1	-1E+10	1	-1E+10	1	-1E+10	1	-1E+10	1	-1E+10	1
4902554	32	C	12/21/2021	13:03	-136.269	49.455	0	150.00	0	5.8960	0	33.6730	0	26.519	0	148.667	0	-1e10	8	-1e10	8	-1E+10	1	-1E+10	1	-1E+10	1	-1E+10	1	-1E+10	1	-1E+10	1
4902554	32	C	12/21/2021	13:03	-136.269	49.455	0	151.20	0	5.8940	0	33.6750	0	26.521	0	149.856	0	-1e10	8	-1e10	8	-1E+10	1	-1E+10	1	-1E+10	1	-1E+10	1	-1E+10	1	-1E+10	1
4902554	32	C	12/21/2021	13:03	-136.269	49.455	0	151.90	0	5.8810	0	33.6800	0	26.526	0	150.550	0	-1e10	8	-1e10	8	-1E+10	1	-1E+10	1	-1E+10	1	-1E+10	1	-1E+10	1	-1E+10	1
4902554	32	C	12/21/2021	13:03	-136.269	49.455	0	152.70	0	5.8690	0	33.6860	0	26.532	0	151.342	0	-1e10	8	-1e10	8	-1E+10	1	-1E+10	1	-1E+10	1	-1E+10	1	-1E+10	1	-1E+10	1
4902554	32	C	12/21/2021	13:03	-136.269	49.455	0	153.80	0	5.8530	0	33.6950	0	26.541	0	152.432	0	-1e10	8	-1e10	8	-1E+10	1	-1E+10	1	-1E+10	1	-1E+10	1	-1E+10	1	-1E+10	1
4902554	32	C	12/21/2021	13:03	-136.269	49.455	0	155.00	0	5.8400	0	33.7000	0	26.547	0	153.621	0	-1e10	8	-1e10	8	-1E+10	1	-1E+10	1	-1E+10	1	-1E+10	1	-1E+10	1	-1E+10	1
4902554	32	C	12/21/2021	13:03	-136.269	49.455	0	155.80	0	5.8200	0	33.7080	0	26.556	0	154.414	0	-1e10	8	-1e10	8	-1E+10	1	-1E+10	1	-1E+10	1	-1E+10	1	-1E+10	1	-1E+10	1
4902554	32	C	12/21/2021	13:03	-136.269	49.455	0	156.90	0	5.7970	0	33.7110	0	26.561	0	155.504	0	-1e10	8	-1e10	8	-1E+10	1	-1E+10	1	-1E+10	1	-1E+10	1	-1E+10	1	-1E+10	1
4902554	32	C	12/21/2021	13:03	-136.269	49.455	0	158.20	0	5.7580	0	33.7150	0	26.569	0	156.791	0	-1e10	8	-1e10	8	-1E+10	1	-1E+10	1	-1E+10	1	-1E+10	1	-1E+10	1	-1E+10	1
4902554	32	C	12/21/2021	13:03	-136.269	49.455	0	159.00	0	5.7470	0	33.7180	0	26.573	0	157.584	0	-1e10	8	-1e10	8	-1E+10	1	-1E+10	1	-1E+10	1	-1E+10	1	-1E+10	1	-1E+10	1
4902554	32	C	12/21/2021	13:03	-136.269	49.455	0	159.80	0	5.7370	0	33.7200	0	26.575	0	158.377	0	-1e10	8	-1e10	8	-1E+10	1	-1E+10	1	-1E+10	1	-1E+10	1	-1E+10	1	-1E+10	1
4902554	32	C	12/21/2021	13:03	-136.269	49.455	0	161.00	0	5.7320	0	33.7210	0	26.577	0	159.565	0	-1e10	8	-1e10	8	-1E+10	1	-1E+10	1	-1E+10	1	-1E+10	1	-1E+10	1	-1E+10	1
4902554	32	C	12/21/2021	13:03	-136.269	49.455	0	162.30	0	5.7260	0	33.7220	0	26.578	0	160.853	0	-1e10	8	-1e10	8	-1E+10	1	-1E+10	1	-1E+10	1	-1E+10	1	-1E+10	1	-1E+10	1
4902554	32	C	12/21/2021	13:03	-136.269	49.455	0	163.10	0	5.7230	0	33.7230	0	26.580	0	161.646	0	-1e10	8	-1e10	8	-1E+10	1	-1E+10	1	-1E+10	1	-1E+10	1	-1E+10	1	-1E+10	1
4902554	32	C	12/21/2021	13:03	-136.269	49.455	0	164.00	0	5.7200	0	33.7230	0	26.580	0	162.538	0	-1e10	8	-1e10	8	-1E+10	1	-1E+10	1	-1E+10	1	-1E+10	1	-1E+10	1	-1E+10	1
4902554	32	C	12/21/2021	13:03	-136.269	49.455	0	164.80	0	5.7120	0	33.7240	0	26.582	0	163.330	0	-1e10	8	-1e10	8	-1E+10	1	-1E+10	1	-1E+10	1	-1E+10	1	-1E+10	1	-1E+10	1
4902554	32	C	12/21/2021	13:03	-136.269	49.455	0	165.60	0	5.6940	0	33.7310	0	26.589	0	164.123	0	-1e10	8	-1e10	8	-1E+10	1	-1E+10	1	-1E+10	1	-1E+10	1	-1E+10	1	-1E+10	1
4902554	32	C	12/21/2021	13:03	-136.269	49.455	0	166.90	0	5.6690	0	33.7340	0	26.595	0	165.411	0	-1e10	8	-1e10	8	-1E+10	1	-1E+10	1	-1E+10	1	-1E+10	1	-1E+10	1	-1E+10	1
4902554	32	C	12/21/2021	13:03	-136.269	49.455	0	168.10	0	5.6660	0	33.7340	0	26.595	0	166.599	0	-1e10	8	-1e10	8	-1E+10	1	-1E+10	1	-1E+10	1	-1E+10	1	-1E+10	1	-1E+10	1
4902554	32	C	12/21/2021	13:03	-136.269	49.455	0	169.00	0	5.6490	0	33.7380	0	26.600	0	167.491	0	-1e10	8	-1e10	8	-1E+10	1	-1E+10	1	-1E+10	1	-1E+10	1	-1E+10	1	-1E+10	1
4902554	32	C	12/21/2021	13:03	-136.269	49.455	0	169.90	0	5.6350	0	33.7400	0	26.604	0	168.383	0	-1e10	8	-1e10	8	-1E+10	1	-1E+10	1	-1E+10	1	-1E+10	1	-1E+10	1	-1E+10	1
4902554	32	C	12/21/2021	13:03	-136.269	49.455	0	170.70	0	5.6240	0	33.7420	0	26.607	0	169.175	0	-1e10	8	-1e10	8	-1E+10	1	-1E+10	1	-1E+10	1	-1E+10	1	-1E+10	1	-1E+10	1
4902554	32	C	12/21/2021	13:03	-136.269	49.455	0	172.00	0	5.6170	0	33.7430	0	26.608	0	170.463	0	-1e10	8	-1e10	8	-1E+10	1	-1E+10	1	-1E+10	1	-1E+10	1	-1E+10	1	-1E+10	1
4902554	32	C	12/21/2021	13:03	-136.269	49.455	0	173.20	0	5.6100	0	33.7430	0	26.609	0	171.652	0	-1e10	8	-1e10	8	-1E+10	1	-1E+10	1	-1E+10	1	-1E+10	1	-1E+10	1	-1E+10	1
4902554	32	C	12/21/2021	13:03	-136.269	49.455	0	174.10	0	5.6090	0	33.7430	0	26.609	0	172.543	0	-1e10	8	-1e10	8	-1E+10	1	-1E+10	1	-1E+10	1	-1E+10	1	-1E+10	1	-1E+10	1
4902554	32	C	12/21/2021	13:03	-136.269	49.455	0	174.90	0	5.5920	0	33.7450	0	26.613	0	173.336	0	-1e10	8	-1e10	8	-1E+10	1	-1E+10	1	-1E+10	1	-1E+10	1	-1E+10	1	-1E+10	1
4902554	32	C	12/21/2021	13:03	-136.269	49.455	0	175.80	0	5.5880	0	33.7450	0	26.613	0	174.227	0	-1e10	8	-1e10	8	-1E+10	1	-1E+10	1	-1E+10	1	-1E+10	1	-1E+10	1	-1E+10	1
4902554	32	C	12/21/2021	13:03	-136.269	49.455	0	177.00	0	5.5750	0	33.7460	0	26.616	0	175.416	0	-1e10	8	-1e10	8	-1E+10	1	-1E+10	1	-1E+10	1	-1E+10	1	-1E+10	1	-1E+10	1
4902554	32	C	12/21/2021	13:03	-136.269	49.455	0	178.30	0	5.5550	0	33.7490	0	26.621	0	176.704	0	-1e10	8	-1e10	8	-1E+10	1	-1E+10	1	-1E+10	1	-1E+10	1	-1E+10	1	-1E+10	1
4902554	32	C	12/21/2021	13:03	-136.269	49.455	0	179.10	0	5.5450	0	33.7500	0	26.623	0	177.496	0	-1e10	8	-1e10	8	-1E+10	1	-1E+10	1	-1E+10	1	-1E+10	1	-1E+10	1	-1E+10	1
4902554	32	C	12/21/2021	13:03	-136.269	49.455	0	179.90	0	5.5380	0	33.7510	0	26.624	0	178.289	0	-1e10	8	-1e10	8	-1E+10	1	-1E+10	1	-1E+10	1	-1E+10	1	-1E+10	1	-1E+10	1
4902554	32	C	12/21/2021	13:03	-136.269	49.455	0	180.80	0	5.4890	0	33.7600	0	26.637	0	179.180	0	-1e10	8	-1e10	8	-1E+10	1	-1E+10	1	-1E+10	1	-1E+10	1	-1E+10	1	-1E+10	1
4902554	32	C	12/21/2021	13:03	-136.269	49.455	0	181.60	0	5.4850	0	33.7600	0	26.638	0	179.973	0	-1e10	8	-1e10	8	-1E+10	1	-1E+10	1	-1E+10	1	-1E+10	1	-1E+10	1	-1E+10	1
4902554	32	C	12/21/2021	13:03	-136.269	49.455	0	182.90	0	5.4750	0	33.7620	0	26.640	0	181.261	0	-1e10	8	-1e10	8	-1E+10	1	-1E+10	1	-1E+10	1	-1E+10	1	-1E+10	1	-1E+10	1
4902554	32	C	12/21/2021	13:03	-136.269	49.455	0	184.20	0	5.4530	0	33.7660	0	26.646	0	182.549	0	-1e10	8	-1e10	8	-1E+10	1	-1E+10	1	-1E+10	1	-1E+10	1	-1E+10	1	-1E+10	1
4902554	32	C	12/21/2021	13:03	-136.269	49.455	0	185.10	0	5.4390	0	33.7700	0	26.651	0	183.440	0	-1e10	8	-1e10	8	-1E+10	1	-1E+10	1	-1E+10	1	-1E+10	1	-1E+10	1	-1E+10	1
4902554	32	C	12/21/2021	13:03	-136.269	49.455	0	186.00	0	5.4350	0	33.7710	0	26.652	0	184.332	0	-1e10	8	-1e10	8	-1E+10	1	-1E+10	1	-1E+10	1	-1E+10	1	-1E+10	1	-1E+10	1
4902554	32	C	12/21/2021	13:03	-136.269	49.455	0	186.90	0	5.4320	0	33.7710	0	26.653	0	185.223	0	-1e10	8	-1e10	8	-1E+10	1	-1E+10	1	-1E+10	1	-1E+10	1	-1E+10	1	-1E+10	1
4902554	32	C	12/21/2021	13:03	-136.269	49.455	0	187.70	0	5.4310	0	33.7720	0	26.654	0	186.016	0	-1e10	8	-1e10	8	-1E+10	1	-1E+10	1	-1E+10	1	-1E+10	1	-1E+10	1	-1E+10	1
4902554	32	C	12/21/2021	13:03	-136.269	49.455	0	188.60	0	5.4300	0	33.7720	0	26.654	0	186.907	0	-1e10	8	-1e10	8	-1E+10	1	-1E+10	1	-1E+10	1	-1E+10	1	-1E+10	1	-1E+10	1
4902554	32	C	12/21/2021	13:03	-136.269	49.455	0	189.90	0	5.4040	0	33.7760	0	26.660	0	188.195	0	-1e10	8	-1e10	8	-1E+10	1	-1E+10	1	-1E+10	1	-1E+10	1	-1E+10	1	-1E+10	1
4902554	32	C	12/21/2021	13:03	-136.269	49.455	0	191.20	0	5.3770	0	33.7770	0	26.664	0	189.483	0	-1e10	8	-1e10	8	-1E+10	1	-1E+10	1	-1E+10	1	-1E+10	1	-1E+10	1	-1E+10	1
4902554	32	C	12/21/2021	13:03	-136.269	49.455	0	192.10	0	5.3700	0	33.7800	0	26.667	0	190.374	0	-1e10	8	-1e10	8	-1E+10	1	-1E+10	1	-1E+10	1	-1E+10	1	-1E+10	1	-1E+10	1
4902554	32	C	12/21/2021	13:03	-136.269	49.455	0	193.00	0	5.3570	0	33.7800	0	26.669	0	191.266	0	-1e10	8	-1e10	8	-1E+10	1	-1E+10	1	-1E+10	1	-1E+10	1	-1E+10	1	-1E+10	1
4902554	32	C	12/21/2021	13:03	-136.269	49.455	0	193.90	0	5.3410	0	33.7800	0	26.671	0	192.157	0	-1e10	8	-1e10	8	-1E+10	1	-1E+10	1	-1E+10	1	-1E+10	1	-1E+10	1	-1E+10	1
4902554	32	C	12/21/2021	13:03	-136.269	49.455	0	194.90	0	5.3360	0	33.7810	0	26.672	0	193.148	0	-1e10	8	-1e10	8	-1E+10	1	-1E+10	1	-1E+10	1	-1E+10	1	-1E+10	1	-1E+10	1
4902554	32	C	12/21/2021	13:03	-136.269	49.455	0	195.80	0	5.3360	0	33.7810	0	26.672	0	194.039	0	-1e10	8	-1e10	8	-1E+10	1	-1E+10	1	-1E+10	1	-1E+10	1	-1E+10	1	-1E+10	1
4902554	32	C	12/21/2021	13:03	-136.269	49.455	0	196.70	0	5.3350	0	33.7800	0	26.671	0	194.931	0	-1e10	8	-1e10	8	-1E+10	1	-1E+10	1	-1E+10	1	-1E+10	1	-1E+10	1	-1E+10	1
4902554	32	C	12/21/2021	13:03	-136.269	49.455	0	197.60	0	5.3340	0	33.7810	0	26.672	0	195.822	0	-1e10	8	-1e10	8	-1E+10	1	-1E+10	1	-1E+10	1	-1E+10	1	-1E+10	1	-1E+10	1
4902554	32	C	12/21/2021	13:03	-136.269	49.455	0	198.90	0	5.3300	0	33.7800	0	26.672	0	197.110	0	-1e10	8	-1e10	8	-1E+10	1	-1E+10	1	-1E+10	1	-1E+10	1	-1E+10	1	-1E+10	1
4902554	32	C	12/21/2021	13:03	-136.269	49.455	0	200.40	0	5.3290	0	33.7800	0	26.672	0	198.595	0	-1e10	8	-1e10	8	-1E+10	1	-1E+10	1	-1E+10	1	-1E+10	1	-1E+10	1	-1E+10	1
4902554	32	C	12/21/2021	13:03	-136.269	49.455	0	201.30	0	5.3180	0	33.7830	0	26.676	0	199.487	0	-1e10	8	-1e10	8	-1E+10	1	-1E+10	1	-1E+10	1	-1E+10	1	-1E+10	1	-1E+10	1
4902554	32	C	12/21/2021	13:03	-136.269	49.455	0	202.20	0	5.3020	0	33.7830	0	26.678	0	200.378	0	-1e10	8	-1e10	8	-1E+10	1	-1E+10	1	-1E+10	1	-1E+10	1	-1E+10	1	-1E+10	1
4902554	32	C	12/21/2021	13:03	-136.269	49.455	0	203.20	0	5.2850	0	33.7860	0	26.682	0	201.369	0	-1e10	8	-1e10	8	-1E+10	1	-1E+10	1	-1E+10	1	-1E+10	1	-1E+10	1	-1E+10	1
4902554	32	C	12/21/2021	13:03	-136.269	49.455	0	204.10	0	5.2650	0	33.7860	0	26.684	0	202.260	0	-1e10	8	-1e10	8	-1E+10	1	-1E+10	1	-1E+10	1	-1E+10	1	-1E+10	1	-1E+10	1
4902554	32	C	12/21/2021	13:03	-136.269	49.455	0	205.10	0	5.2510	0	33.7860	0	26.686	0	203.251	0	-1e10	8	-1e10	8	-1E+10	1	-1E+10	1	-1E+10	1	-1E+10	1	-1E+10	1	-1E+10	1
4902554	32	C	12/21/2021	13:03	-136.269	49.455	0	206.00	0	5.2180	0	33.7880	0	26.691	0	204.142	0	-1e10	8	-1e10	8	-1E+10	1	-1E+10	1	-1E+10	1	-1E+10	1	-1E+10	1	-1E+10	1
4902554	32	C	12/21/2021	13:03	-136.269	49.455	0	207.00	0	5.2160	0	33.7890	0	26.692	0	205.133	0	-1e10	8	-1e10	8	-1E+10	1	-1E+10	1	-1E+10	1	-1E+10	1	-1E+10	1	-1E+10	1
4902554	32	C	12/21/2021	13:03	-136.269	49.455	0	208.00	0	5.2110	0	33.7920	0	26.695	0	206.123	0	-1e10	8	-1e10	8	-1E+10	1	-1E+10	1	-1E+10	1	-1E+10	1	-1E+10	1	-1E+10	1
4902554	32	C	12/21/2021	13:03	-136.269	49.455	0	208.90	0	5.2050	0	33.7930	0	26.697	0	207.015	0	-1e10	8	-1e10	8	-1E+10	1	-1E+10	1	-1E+10	1	-1E+10	1	-1E+10	1	-1E+10	1
4902554	32	C	12/21/2021	13:03	-136.269	49.455	0	209.90	0	5.2010	0	33.7930	0	26.697	0	208.005	0	-1e10	8	-1e10	8	-1E+10	1	-1E+10	1	-1E+10	1	-1E+10	1	-1E+10	1	-1E+10	1
4902554	32	C	12/21/2021	13:03	-136.269	49.455	0	210.90	0	5.1910	0	33.7960	0	26.701	0	208.996	0	-1e10	8	-1e10	8	-1E+10	1	-1E+10	1	-1E+10	1	-1E+10	1	-1E+10	1	-1E+10	1
4902554	32	C	12/21/2021	13:03	-136.269	49.455	0	211.90	0	5.1890	0	33.7970	0	26.702	0	209.986	0	-1e10	8	-1e10	8	-1E+10	1	-1E+10	1	-1E+10	1	-1E+10	1	-1E+10	1	-1E+10	1
4902554	32	C	12/21/2021	13:03	-136.269	49.455	0	212.80	0	5.1840	0	33.7990	0	26.704	0	210.878	0	-1e10	8	-1e10	8	-1E+10	1	-1E+10	1	-1E+10	1	-1E+10	1	-1E+10	1	-1E+10	1
4902554	32	C	12/21/2021	13:03	-136.269	49.455	0	213.80	0	5.1730	0	33.8020	0	26.708	0	211.868	0	-1e10	8	-1e10	8	-1E+10	1	-1E+10	1	-1E+10	1	-1E+10	1	-1E+10	1	-1E+10	1
4902554	32	C	12/21/2021	13:03	-136.269	49.455	0	214.80	0	5.1730	0	33.8020	0	26.708	0	212.858	0	-1e10	8	-1e10	8	-1E+10	1	-1E+10	1	-1E+10	1	-1E+10	1	-1E+10	1	-1E+10	1
4902554	32	C	12/21/2021	13:03	-136.269	49.455	0	215.70	0	5.1720	0	33.8020	0	26.708	0	213.750	0	-1e10	8	-1e10	8	-1E+10	1	-1E+10	1	-1E+10	1	-1E+10	1	-1E+10	1	-1E+10	1
4902554	32	C	12/21/2021	13:03	-136.269	49.455	0	216.70	0	5.1610	0	33.8050	0	26.711	0	214.740	0	-1e10	8	-1e10	8	-1E+10	1	-1E+10	1	-1E+10	1	-1E+10	1	-1E+10	1	-1E+10	1
4902554	32	C	12/21/2021	13:03	-136.269	49.455	0	217.70	0	5.1600	0	33.8060	0	26.712	0	215.731	0	-1e10	8	-1e10	8	-1E+10	1	-1E+10	1	-1E+10	1	-1E+10	1	-1E+10	1	-1E+10	1
4902554	32	C	12/21/2021	13:03	-136.269	49.455	0	218.70	0	5.1630	0	33.8050	0	26.711	0	216.721	0	-1e10	8	-1e10	8	-1E+10	1	-1E+10	1	-1E+10	1	-1E+10	1	-1E+10	1	-1E+10	1
4902554	32	C	12/21/2021	13:03	-136.269	49.455	0	219.60	0	5.1620	0	33.8070	0	26.713	0	217.613	0	-1e10	8	-1e10	8	-1E+10	1	-1E+10	1	-1E+10	1	-1E+10	1	-1E+10	1	-1E+10	1
4902554	32	C	12/21/2021	13:03	-136.269	49.455	0	220.60	0	5.1630	0	33.8070	0	26.713	0	218.603	0	-1e10	8	-1e10	8	-1E+10	1	-1E+10	1	-1E+10	1	-1E+10	1	-1E+10	1	-1E+10	1
4902554	32	C	12/21/2021	13:03	-136.269	49.455	0	221.60	0	5.1620	0	33.8070	0	26.713	0	219.593	0	-1e10	8	-1e10	8	-1E+10	1	-1E+10	1	-1E+10	1	-1E+10	1	-1E+10	1	-1E+10	1
4902554	32	C	12/21/2021	13:03	-136.269	49.455	0	222.60	0	5.1410	0	33.8080	0	26.716	0	220.584	0	-1e10	8	-1e10	8	-1E+10	1	-1E+10	1	-1E+10	1	-1E+10	1	-1E+10	1	-1E+10	1
4902554	32	C	12/21/2021	13:03	-136.269	49.455	0	223.60	0	5.1370	0	33.8080	0	26.717	0	221.574	0	-1e10	8	-1e10	8	-1E+10	1	-1E+10	1	-1E+10	1	-1E+10	1	-1E+10	1	-1E+10	1
4902554	32	C	12/21/2021	13:03	-136.269	49.455	0	224.60	0	5.1370	0	33.8090	0	26.717	0	222.565	0	-1e10	8	-1e10	8	-1E+10	1	-1E+10	1	-1E+10	1	-1E+10	1	-1E+10	1	-1E+10	1
4902554	32	C	12/21/2021	13:03	-136.269	49.455	0	225.60	0	5.1350	0	33.8090	0	26.718	0	223.555	0	-1e10	8	-1e10	8	-1E+10	1	-1E+10	1	-1E+10	1	-1E+10	1	-1E+10	1	-1E+10	1
4902554	32	C	12/21/2021	13:03	-136.269	49.455	0	226.50	0	5.1280	0	33.8110	0	26.720	0	224.446	0	-1e10	8	-1e10	8	-1E+10	1	-1E+10	1	-1E+10	1	-1E+10	1	-1E+10	1	-1E+10	1
4902554	32	C	12/21/2021	13:03	-136.269	49.455	0	227.50	0	5.1160	0	33.8110	0	26.722	0	225.437	0	-1e10	8	-1e10	8	-1E+10	1	-1E+10	1	-1E+10	1	-1E+10	1	-1E+10	1	-1E+10	1
4902554	32	C	12/21/2021	13:03	-136.269	49.455	0	228.90	0	5.1030	0	33.8110	0	26.723	0	226.823	0	-1e10	8	-1e10	8	-1E+10	1	-1E+10	1	-1E+10	1	-1E+10	1	-1E+10	1	-1E+10	1
4902554	32	C	12/21/2021	13:03	-136.269	49.455	0	230.40	0	5.0850	0	33.8110	0	26.725	0	228.309	0	-1e10	8	-1e10	8	-1E+10	1	-1E+10	1	-1E+10	1	-1E+10	1	-1E+10	1	-1E+10	1
4902554	32	C	12/21/2021	13:03	-136.269	49.455	0	231.30	0	5.0720	0	33.8110	0	26.727	0	229.200	0	-1e10	8	-1e10	8	-1E+10	1	-1E+10	1	-1E+10	1	-1E+10	1	-1E+10	1	-1E+10	1
4902554	32	C	12/21/2021	13:03	-136.269	49.455	0	232.30	0	5.0580	0	33.8100	0	26.727	0	230.191	0	-1e10	8	-1e10	8	-1E+10	1	-1E+10	1	-1E+10	1	-1E+10	1	-1E+10	1	-1E+10	1
4902554	32	C	12/21/2021	13:03	-136.269	49.455	0	233.30	0	5.0540	0	33.8100	0	26.728	0	231.181	0	-1e10	8	-1e10	8	-1E+10	1	-1E+10	1	-1E+10	1	-1E+10	1	-1E+10	1	-1E+10	1
4902554	32	C	12/21/2021	13:03	-136.269	49.455	0	234.20	0	5.0520	0	33.8110	0	26.729	0	232.072	0	-1e10	8	-1e10	8	-1E+10	1	-1E+10	1	-1E+10	1	-1E+10	1	-1E+10	1	-1E+10	1
4902554	32	C	12/21/2021	13:03	-136.269	49.455	0	235.20	0	5.0580	0	33.8140	0	26.731	0	233.063	0	-1e10	8	-1e10	8	-1E+10	1	-1E+10	1	-1E+10	1	-1E+10	1	-1E+10	1	-1E+10	1
4902554	32	C	12/21/2021	13:03	-136.269	49.455	0	236.20	0	5.0310	0	33.8180	0	26.737	0	234.053	0	-1e10	8	-1e10	8	-1E+10	1	-1E+10	1	-1E+10	1	-1E+10	1	-1E+10	1	-1E+10	1
4902554	32	C	12/21/2021	13:03	-136.269	49.455	0	237.10	0	5.0310	0	33.8180	0	26.737	0	234.944	0	-1e10	8	-1e10	8	-1E+10	1	-1E+10	1	-1E+10	1	-1E+10	1	-1E+10	1	-1E+10	1
4902554	32	C	12/21/2021	13:03	-136.269	49.455	0	238.10	0	5.0140	0	33.8230	0	26.743	0	235.935	0	-1e10	8	-1e10	8	-1E+10	1	-1E+10	1	-1E+10	1	-1E+10	1	-1E+10	1	-1E+10	1
4902554	32	C	12/21/2021	13:03	-136.269	49.455	0	239.10	0	5.0090	0	33.8240	0	26.744	0	236.925	0	-1e10	8	-1e10	8	-1E+10	1	-1E+10	1	-1E+10	1	-1E+10	1	-1E+10	1	-1E+10	1
4902554	32	C	12/21/2021	13:03	-136.269	49.455	0	240.10	0	5.0020	0	33.8250	0	26.746	0	237.915	0	-1e10	8	-1e10	8	-1E+10	1	-1E+10	1	-1E+10	1	-1E+10	1	-1E+10	1	-1E+10	1
4902554	32	C	12/21/2021	13:03	-136.269	49.455	0	241.10	0	4.9980	0	33.8260	0	26.747	0	238.906	0	-1e10	8	-1e10	8	-1E+10	1	-1E+10	1	-1E+10	1	-1E+10	1	-1E+10	1	-1E+10	1
4902554	32	C	12/21/2021	13:03	-136.269	49.455	0	242.00	0	4.9880	0	33.8300	0	26.751	0	239.797	0	-1e10	8	-1e10	8	-1E+10	1	-1E+10	1	-1E+10	1	-1E+10	1	-1E+10	1	-1E+10	1
4902554	32	C	12/21/2021	13:03	-136.269	49.455	0	243.00	0	4.9840	0	33.8290	0	26.751	0	240.787	0	-1e10	8	-1e10	8	-1E+10	1	-1E+10	1	-1E+10	1	-1E+10	1	-1E+10	1	-1E+10	1
4902554	32	C	12/21/2021	13:03	-136.269	49.455	0	244.00	0	4.9830	0	33.8300	0	26.752	0	241.777	0	-1e10	8	-1e10	8	-1E+10	1	-1E+10	1	-1E+10	1	-1E+10	1	-1E+10	1	-1E+10	1
4902554	32	C	12/21/2021	13:03	-136.269	49.455	0	245.00	0	4.9800	0	33.8330	0	26.755	0	242.768	0	-1e10	8	-1e10	8	-1E+10	1	-1E+10	1	-1E+10	1	-1E+10	1	-1E+10	1	-1E+10	1
4902554	32	C	12/21/2021	13:03	-136.269	49.455	0	246.00	0	4.9790	0	33.8340	0	26.755	0	243.758	0	-1e10	8	-1e10	8	-1E+10	1	-1E+10	1	-1E+10	1	-1E+10	1	-1E+10	1	-1E+10	1
4902554	32	C	12/21/2021	13:03	-136.269	49.455	0	247.00	0	4.9780	0	33.8350	0	26.756	0	244.748	0	-1e10	8	-1e10	8	-1E+10	1	-1E+10	1	-1E+10	1	-1E+10	1	-1E+10	1	-1E+10	1
4902554	32	C	12/21/2021	13:03	-136.269	49.455	0	248.00	0	4.9800	0	33.8350	0	26.756	0	245.739	0	-1e10	8	-1e10	8	-1E+10	1	-1E+10	1	-1E+10	1	-1E+10	1	-1E+10	1	-1E+10	1
4902554	32	C	12/21/2021	13:03	-136.269	49.455	0	249.00	0	4.9830	0	33.8340	0	26.755	0	246.729	0	-1e10	8	-1e10	8	-1E+10	1	-1E+10	1	-1E+10	1	-1E+10	1	-1E+10	1	-1E+10	1
4902554	32	C	12/21/2021	13:03	-136.269	49.455	0	250.00	0	4.9840	0	33.8360	0	26.757	0	247.719	0	-1e10	8	-1e10	8	-1E+10	1	-1E+10	1	-1E+10	1	-1E+10	1	-1E+10	1	-1E+10	1
4902554	32	C	12/21/2021	13:03	-136.269	49.455	0	251.00	0	4.9870	0	33.8360	0	26.756	0	248.709	0	-1e10	8	-1e10	8	-1E+10	1	-1E+10	1	-1E+10	1	-1E+10	1	-1E+10	1	-1E+10	1
4902554	32	C	12/21/2021	13:03	-136.269	49.455	0	252.00	0	4.9870	0	33.8370	0	26.757	0	249.700	0	-1e10	8	-1e10	8	-1E+10	1	-1E+10	1	-1E+10	1	-1E+10	1	-1E+10	1	-1E+10	1
4902554	32	C	12/21/2021	13:03	-136.269	49.455	0	253.00	0	4.9900	0	33.8360	0	26.756	0	250.690	0	-1e10	8	-1e10	8	-1E+10	1	-1E+10	1	-1E+10	1	-1E+10	1	-1E+10	1	-1E+10	1
4902554	32	C	12/21/2021	13:03	-136.269	49.455	0	254.00	0	4.9920	0	33.8370	0	26.756	0	251.680	0	-1e10	8	-1e10	8	-1E+10	1	-1E+10	1	-1E+10	1	-1E+10	1	-1E+10	1	-1E+10	1
4902554	32	C	12/21/2021	13:03	-136.269	49.455	0	255.00	0	4.9910	0	33.8390	0	26.758	0	252.671	0	-1e10	8	-1e10	8	-1E+10	1	-1E+10	1	-1E+10	1	-1E+10	1	-1E+10	1	-1E+10	1
4902554	32	C	12/21/2021	13:03	-136.269	49.455	0	256.00	0	4.9870	0	33.8400	0	26.759	0	253.661	0	-1e10	8	-1e10	8	-1E+10	1	-1E+10	1	-1E+10	1	-1E+10	1	-1E+10	1	-1E+10	1
4902554	32	C	12/21/2021	13:03	-136.269	49.455	0	257.10	0	4.9770	0	33.8410	0	26.761	0	254.750	0	-1e10	8	-1e10	8	-1E+10	1	-1E+10	1	-1E+10	1	-1E+10	1	-1E+10	1	-1E+10	1
4902554	32	C	12/21/2021	13:03	-136.269	49.455	0	258.10	0	4.9690	0	33.8420	0	26.763	0	255.740	0	-1e10	8	-1e10	8	-1E+10	1	-1E+10	1	-1E+10	1	-1E+10	1	-1E+10	1	-1E+10	1
4902554	32	C	12/21/2021	13:03	-136.269	49.455	0	259.10	0	4.9640	0	33.8420	0	26.764	0	256.731	0	-1e10	8	-1e10	8	-1E+10	1	-1E+10	1	-1E+10	1	-1E+10	1	-1E+10	1	-1E+10	1
4902554	32	C	12/21/2021	13:03	-136.269	49.455	0	260.10	0	4.9600	0	33.8420	0	26.764	0	257.721	0	-1e10	8	-1e10	8	-1E+10	1	-1E+10	1	-1E+10	1	-1E+10	1	-1E+10	1	-1E+10	1
4902554	32	C	12/21/2021	13:03	-136.269	49.455	0	261.10	0	4.9560	0	33.8420	0	26.765	0	258.711	0	-1e10	8	-1e10	8	-1E+10	1	-1E+10	1	-1E+10	1	-1E+10	1	-1E+10	1	-1E+10	1
4902554	32	C	12/21/2021	13:03	-136.269	49.455	0	262.10	0	4.9480	0	33.8430	0	26.766	0	259.701	0	-1e10	8	-1e10	8	-1E+10	1	-1E+10	1	-1E+10	1	-1E+10	1	-1E+10	1	-1E+10	1
4902554	32	C	12/21/2021	13:03	-136.269	49.455	0	263.10	0	4.9360	0	33.8430	0	26.768	0	260.691	0	-1e10	8	-1e10	8	-1E+10	1	-1E+10	1	-1E+10	1	-1E+10	1	-1E+10	1	-1E+10	1
4902554	32	C	12/21/2021	13:03	-136.269	49.455	0	264.10	0	4.9260	0	33.8430	0	26.769	0	261.682	0	-1e10	8	-1e10	8	-1E+10	1	-1E+10	1	-1E+10	1	-1E+10	1	-1E+10	1	-1E+10	1
4902554	32	C	12/21/2021	13:03	-136.269	49.455	0	265.10	0	4.9130	0	33.8440	0	26.771	0	262.672	0	-1e10	8	-1e10	8	-1E+10	1	-1E+10	1	-1E+10	1	-1E+10	1	-1E+10	1	-1E+10	1
4902554	32	C	12/21/2021	13:03	-136.269	49.455	0	266.10	0	4.9110	0	33.8480	0	26.774	0	263.662	0	-1e10	8	-1e10	8	-1E+10	1	-1E+10	1	-1E+10	1	-1E+10	1	-1E+10	1	-1E+10	1
4902554	32	C	12/21/2021	13:03	-136.269	49.455	0	267.10	0	4.9090	0	33.8490	0	26.775	0	264.652	0	-1e10	8	-1e10	8	-1E+10	1	-1E+10	1	-1E+10	1	-1E+10	1	-1E+10	1	-1E+10	1
4902554	32	C	12/21/2021	13:03	-136.269	49.455	0	268.10	0	4.9060	0	33.8500	0	26.777	0	265.642	0	-1e10	8	-1e10	8	-1E+10	1	-1E+10	1	-1E+10	1	-1E+10	1	-1E+10	1	-1E+10	1
4902554	32	C	12/21/2021	13:03	-136.269	49.455	0	269.10	0	4.9010	0	33.8510	0	26.778	0	266.633	0	-1e10	8	-1e10	8	-1E+10	1	-1E+10	1	-1E+10	1	-1E+10	1	-1E+10	1	-1E+10	1
4902554	32	C	12/21/2021	13:03	-136.269	49.455	0	270.10	0	4.8970	0	33.8520	0	26.779	0	267.623	0	-1e10	8	-1e10	8	-1E+10	1	-1E+10	1	-1E+10	1	-1E+10	1	-1E+10	1	-1E+10	1
4902554	32	C	12/21/2021	13:03	-136.269	49.455	0	271.10	0	4.8940	0	33.8530	0	26.780	0	268.613	0	-1e10	8	-1e10	8	-1E+10	1	-1E+10	1	-1E+10	1	-1E+10	1	-1E+10	1	-1E+10	1
4902554	32	C	12/21/2021	13:03	-136.269	49.455	0	272.10	0	4.8940	0	33.8530	0	26.780	0	269.603	0	-1e10	8	-1e10	8	-1E+10	1	-1E+10	1	-1E+10	1	-1E+10	1	-1E+10	1	-1E+10	1
4902554	32	C	12/21/2021	13:03	-136.269	49.455	0	273.10	0	4.8930	0	33.8530	0	26.780	0	270.593	0	-1e10	8	-1e10	8	-1E+10	1	-1E+10	1	-1E+10	1	-1E+10	1	-1E+10	1	-1E+10	1
4902554	32	C	12/21/2021	13:03	-136.269	49.455	0	274.10	0	4.8920	0	33.8530	0	26.781	0	271.584	0	-1e10	8	-1e10	8	-1E+10	1	-1E+10	1	-1E+10	1	-1E+10	1	-1E+10	1	-1E+10	1
4902554	32	C	12/21/2021	13:03	-136.269	49.455	0	275.10	0	4.8900	0	33.8540	0	26.782	0	272.574	0	-1e10	8	-1e10	8	-1E+10	1	-1E+10	1	-1E+10	1	-1E+10	1	-1E+10	1	-1E+10	1
4902554	32	C	12/21/2021	13:03	-136.269	49.455	0	276.10	0	4.8890	0	33.8550	0	26.783	0	273.564	0	-1e10	8	-1e10	8	-1E+10	1	-1E+10	1	-1E+10	1	-1E+10	1	-1E+10	1	-1E+10	1
4902554	32	C	12/21/2021	13:03	-136.269	49.455	0	277.10	0	4.8880	0	33.8550	0	26.783	0	274.554	0	-1e10	8	-1e10	8	-1E+10	1	-1E+10	1	-1E+10	1	-1E+10	1	-1E+10	1	-1E+10	1
4902554	32	C	12/21/2021	13:03	-136.269	49.455	0	278.10	0	4.8860	0	33.8560	0	26.784	0	275.544	0	-1e10	8	-1e10	8	-1E+10	1	-1E+10	1	-1E+10	1	-1E+10	1	-1E+10	1	-1E+10	1
4902554	32	C	12/21/2021	13:03	-136.269	49.455	0	279.20	0	4.8760	0	33.8570	0	26.786	0	276.633	0	-1e10	8	-1e10	8	-1E+10	1	-1E+10	1	-1E+10	1	-1E+10	1	-1E+10	1	-1E+10	1
4902554	32	C	12/21/2021	13:03	-136.269	49.455	0	280.20	0	4.8710	0	33.8570	0	26.786	0	277.623	0	-1e10	8	-1e10	8	-1E+10	1	-1E+10	1	-1E+10	1	-1E+10	1	-1E+10	1	-1E+10	1
4902554	32	C	12/21/2021	13:03	-136.269	49.455	0	281.20	0	4.8650	0	33.8570	0	26.787	0	278.614	0	-1e10	8	-1e10	8	-1E+10	1	-1E+10	1	-1E+10	1	-1E+10	1	-1E+10	1	-1E+10	1
4902554	32	C	12/21/2021	13:03	-136.269	49.455	0	282.20	0	4.8600	0	33.8560	0	26.787	0	279.604	0	-1e10	8	-1e10	8	-1E+10	1	-1E+10	1	-1E+10	1	-1E+10	1	-1E+10	1	-1E+10	1
4902554	32	C	12/21/2021	13:03	-136.269	49.455	0	283.20	0	4.8440	0	33.8540	0	26.787	0	280.594	0	-1e10	8	-1e10	8	-1E+10	1	-1E+10	1	-1E+10	1	-1E+10	1	-1E+10	1	-1E+10	1
4902554	32	C	12/21/2021	13:03	-136.269	49.455	0	284.20	0	4.8190	0	33.8550	0	26.790	0	281.584	0	-1e10	8	-1e10	8	-1E+10	1	-1E+10	1	-1E+10	1	-1E+10	1	-1E+10	1	-1E+10	1
4902554	32	C	12/21/2021	13:03	-136.269	49.455	0	285.20	0	4.7970	0	33.8580	0	26.795	0	282.574	0	-1e10	8	-1e10	8	-1E+10	1	-1E+10	1	-1E+10	1	-1E+10	1	-1E+10	1	-1E+10	1
4902554	32	C	12/21/2021	13:03	-136.269	49.455	0	286.30	0	4.7990	0	33.8600	0	26.797	0	283.663	0	-1e10	8	-1e10	8	-1E+10	1	-1E+10	1	-1E+10	1	-1E+10	1	-1E+10	1	-1E+10	1
4902554	32	C	12/21/2021	13:03	-136.269	49.455	0	287.30	0	4.7970	0	33.8600	0	26.797	0	284.653	0	-1e10	8	-1e10	8	-1E+10	1	-1E+10	1	-1E+10	1	-1E+10	1	-1E+10	1	-1E+10	1
4902554	32	C	12/21/2021	13:03	-136.269	49.455	0	288.30	0	4.7930	0	33.8610	0	26.798	0	285.643	0	-1e10	8	-1e10	8	-1E+10	1	-1E+10	1	-1E+10	1	-1E+10	1	-1E+10	1	-1E+10	1
4902554	32	C	12/21/2021	13:03	-136.269	49.455	0	289.40	0	4.7950	0	33.8610	0	26.798	0	286.732	0	-1e10	8	-1e10	8	-1E+10	1	-1E+10	1	-1E+10	1	-1E+10	1	-1E+10	1	-1E+10	1
4902554	32	C	12/21/2021	13:03	-136.269	49.455	0	290.40	0	4.7940	0	33.8620	0	26.799	0	287.723	0	-1e10	8	-1e10	8	-1E+10	1	-1E+10	1	-1E+10	1	-1E+10	1	-1E+10	1	-1E+10	1
4902554	32	C	12/21/2021	13:03	-136.269	49.455	0	291.40	0	4.7760	0	33.8650	0	26.803	0	288.713	0	-1e10	8	-1e10	8	-1E+10	1	-1E+10	1	-1E+10	1	-1E+10	1	-1E+10	1	-1E+10	1
4902554	32	C	12/21/2021	13:03	-136.269	49.455	0	292.40	0	4.7570	0	33.8650	0	26.805	0	289.703	0	-1e10	8	-1e10	8	-1E+10	1	-1E+10	1	-1E+10	1	-1E+10	1	-1E+10	1	-1E+10	1
4902554	32	C	12/21/2021	13:03	-136.269	49.455	0	293.50	0	4.7560	0	33.8660	0	26.806	0	290.792	0	-1e10	8	-1e10	8	-1E+10	1	-1E+10	1	-1E+10	1	-1E+10	1	-1E+10	1	-1E+10	1
4902554	32	C	12/21/2021	13:03	-136.269	49.455	0	294.50	0	4.7480	0	33.8690	0	26.809	0	291.782	0	-1e10	8	-1e10	8	-1E+10	1	-1E+10	1	-1E+10	1	-1E+10	1	-1E+10	1	-1E+10	1
4902554	32	C	12/21/2021	13:03	-136.269	49.455	0	295.60	0	4.7470	0	33.8700	0	26.810	0	292.871	0	-1e10	8	-1e10	8	-1E+10	1	-1E+10	1	-1E+10	1	-1E+10	1	-1E+10	1	-1E+10	1
4902554	32	C	12/21/2021	13:03	-136.269	49.455	0	296.60	0	4.7410	0	33.8720	0	26.813	0	293.861	0	-1e10	8	-1e10	8	-1E+10	1	-1E+10	1	-1E+10	1	-1E+10	1	-1E+10	1	-1E+10	1
4902554	32	C	12/21/2021	13:03	-136.269	49.455	0	297.70	0	4.7380	0	33.8740	0	26.815	0	294.950	0	-1e10	8	-1e10	8	-1E+10	1	-1E+10	1	-1E+10	1	-1E+10	1	-1E+10	1	-1E+10	1
4902554	32	C	12/21/2021	13:03	-136.269	49.455	0	298.70	0	4.7300	0	33.8740	0	26.815	0	295.940	0	-1e10	8	-1e10	8	-1E+10	1	-1E+10	1	-1E+10	1	-1E+10	1	-1E+10	1	-1E+10	1
4902554	32	C	12/21/2021	13:03	-136.269	49.455	0	299.70	0	4.7170	0	33.8750	0	26.818	0	296.930	0	-1e10	8	-1e10	8	-1E+10	1	-1E+10	1	-1E+10	1	-1E+10	1	-1E+10	1	-1E+10	1
4902554	32	C	12/21/2021	13:03	-136.269	49.455	0	300.80	0	4.7190	0	33.8770	0	26.819	0	298.019	0	-1e10	8	-1e10	8	-1E+10	1	-1E+10	1	-1E+10	1	-1E+10	1	-1E+10	1	-1E+10	1
4902554	32	C	12/21/2021	13:03	-136.269	49.455	0	301.80	0	4.7200	0	33.8780	0	26.820	0	299.009	0	-1e10	8	-1e10	8	-1E+10	1	-1E+10	1	-1E+10	1	-1E+10	1	-1E+10	1	-1E+10	1
4902554	32	C	12/21/2021	13:03	-136.269	49.455	0	302.90	0	4.7210	0	33.8780	0	26.820	0	300.098	0	-1e10	8	-1e10	8	-1E+10	1	-1E+10	1	-1E+10	1	-1E+10	1	-1E+10	1	-1E+10	1
4902554	32	C	12/21/2021	13:03	-136.269	49.455	0	304.00	0	4.7230	0	33.8780	0	26.819	0	301.187	0	-1e10	8	-1e10	8	-1E+10	1	-1E+10	1	-1E+10	1	-1E+10	1	-1E+10	1	-1E+10	1
4902554	32	C	12/21/2021	13:03	-136.269	49.455	0	305.00	0	4.7230	0	33.8800	0	26.821	0	302.177	0	-1e10	8	-1e10	8	-1E+10	1	-1E+10	1	-1E+10	1	-1E+10	1	-1E+10	1	-1E+10	1
4902554	32	C	12/21/2021	13:03	-136.269	49.455	0	306.10	0	4.7190	0	33.8810	0	26.822	0	303.266	0	-1e10	8	-1e10	8	-1E+10	1	-1E+10	1	-1E+10	1	-1E+10	1	-1E+10	1	-1E+10	1
4902554	32	C	12/21/2021	13:03	-136.269	49.455	0	307.20	0	4.7140	0	33.8830	0	26.824	0	304.355	0	-1e10	8	-1e10	8	-1E+10	1	-1E+10	1	-1E+10	1	-1E+10	1	-1E+10	1	-1E+10	1
4902554	32	C	12/21/2021	13:03	-136.269	49.455	0	308.20	0	4.7100	0	33.8830	0	26.825	0	305.345	0	-1e10	8	-1e10	8	-1E+10	1	-1E+10	1	-1E+10	1	-1E+10	1	-1E+10	1	-1E+10	1
4902554	32	C	12/21/2021	13:03	-136.269	49.455	0	309.30	0	4.7050	0	33.8840	0	26.826	0	306.434	0	-1e10	8	-1e10	8	-1E+10	1	-1E+10	1	-1E+10	1	-1E+10	1	-1E+10	1	-1E+10	1
4902554	32	C	12/21/2021	13:03	-136.269	49.455	0	310.30	0	4.7030	0	33.8850	0	26.827	0	307.424	0	-1e10	8	-1e10	8	-1E+10	1	-1E+10	1	-1E+10	1	-1E+10	1	-1E+10	1	-1E+10	1
4902554	32	C	12/21/2021	13:03	-136.269	49.455	0	311.40	0	4.6980	0	33.8870	0	26.829	0	308.513	0	-1e10	8	-1e10	8	-1E+10	1	-1E+10	1	-1E+10	1	-1E+10	1	-1E+10	1	-1E+10	1
4902554	32	C	12/21/2021	13:03	-136.269	49.455	0	312.50	0	4.6950	0	33.8870	0	26.830	0	309.602	0	-1e10	8	-1e10	8	-1E+10	1	-1E+10	1	-1E+10	1	-1E+10	1	-1E+10	1	-1E+10	1
4902554	32	C	12/21/2021	13:03	-136.269	49.455	0	313.50	0	4.6940	0	33.8880	0	26.831	0	310.592	0	-1e10	8	-1e10	8	-1E+10	1	-1E+10	1	-1E+10	1	-1E+10	1	-1E+10	1	-1E+10	1
4902554	32	C	12/21/2021	13:03	-136.269	49.455	0	314.60	0	4.6900	0	33.8900	0	26.833	0	311.681	0	-1e10	8	-1e10	8	-1E+10	1	-1E+10	1	-1E+10	1	-1E+10	1	-1E+10	1	-1E+10	1
4902554	32	C	12/21/2021	13:03	-136.269	49.455	0	315.60	0	4.6850	0	33.8920	0	26.835	0	312.671	0	-1e10	8	-1e10	8	-1E+10	1	-1E+10	1	-1E+10	1	-1E+10	1	-1E+10	1	-1E+10	1
4902554	32	C	12/21/2021	13:03	-136.269	49.455	0	316.60	0	4.6810	0	33.8930	0	26.836	0	313.661	0	-1e10	8	-1e10	8	-1E+10	1	-1E+10	1	-1E+10	1	-1E+10	1	-1E+10	1	-1E+10	1
4902554	32	C	12/21/2021	13:03	-136.269	49.455	0	318.00	0	4.6790	0	33.8930	0	26.836	0	315.047	0	-1e10	8	-1e10	8	-1E+10	1	-1E+10	1	-1E+10	1	-1E+10	1	-1E+10	1	-1E+10	1
4902554	32	C	12/21/2021	13:03	-136.269	49.455	0	319.20	0	4.6780	0	33.8930	0	26.836	0	316.235	0	-1e10	8	-1e10	8	-1E+10	1	-1E+10	1	-1E+10	1	-1E+10	1	-1E+10	1	-1E+10	1
4902554	32	C	12/21/2021	13:03	-136.269	49.455	0	320.00	0	4.6770	0	33.8940	0	26.837	0	317.027	0	-1e10	8	-1e10	8	-1E+10	1	-1E+10	1	-1E+10	1	-1E+10	1	-1E+10	1	-1E+10	1
4902554	32	C	12/21/2021	13:03	-136.269	49.455	0	320.90	0	4.6740	0	33.8940	0	26.838	0	317.918	0	-1e10	8	-1e10	8	-1E+10	1	-1E+10	1	-1E+10	1	-1E+10	1	-1E+10	1	-1E+10	1
4902554	32	C	12/21/2021	13:03	-136.269	49.455	0	321.60	0	4.6720	0	33.8940	0	26.838	0	318.611	0	-1e10	8	-1e10	8	-1E+10	1	-1E+10	1	-1E+10	1	-1E+10	1	-1E+10	1	-1E+10	1
4902554	32	C	12/21/2021	13:03	-136.269	49.455	0	322.90	0	4.6680	0	33.8950	0	26.839	0	319.898	0	-1e10	8	-1e10	8	-1E+10	1	-1E+10	1	-1E+10	1	-1E+10	1	-1E+10	1	-1E+10	1
4902554	32	C	12/21/2021	13:03	-136.269	49.455	0	324.10	0	4.6650	0	33.8970	0	26.841	0	321.086	0	-1e10	8	-1e10	8	-1E+10	1	-1E+10	1	-1E+10	1	-1E+10	1	-1E+10	1	-1E+10	1
4902554	32	C	12/21/2021	13:03	-136.269	49.455	0	324.90	0	4.6620	0	33.8970	0	26.841	0	321.878	0	-1e10	8	-1e10	8	-1E+10	1	-1E+10	1	-1E+10	1	-1E+10	1	-1E+10	1	-1E+10	1
4902554	32	C	12/21/2021	13:03	-136.269	49.455	0	325.80	0	4.6570	0	33.8980	0	26.843	0	322.769	0	-1e10	8	-1e10	8	-1E+10	1	-1E+10	1	-1E+10	1	-1E+10	1	-1E+10	1	-1E+10	1
4902554	32	C	12/21/2021	13:03	-136.269	49.455	0	327.00	0	4.6510	0	33.8990	0	26.844	0	323.956	0	-1e10	8	-1e10	8	-1E+10	1	-1E+10	1	-1E+10	1	-1E+10	1	-1E+10	1	-1E+10	1
4902554	32	C	12/21/2021	13:03	-136.269	49.455	0	328.30	0	4.6470	0	33.9010	0	26.846	0	325.243	0	-1e10	8	-1e10	8	-1E+10	1	-1E+10	1	-1E+10	1	-1E+10	1	-1E+10	1	-1E+10	1
4902554	32	C	12/21/2021	13:03	-136.269	49.455	0	329.10	0	4.6420	0	33.9030	0	26.848	0	326.035	0	-1e10	8	-1e10	8	-1E+10	1	-1E+10	1	-1E+10	1	-1E+10	1	-1E+10	1	-1E+10	1
4902554	32	C	12/21/2021	13:03	-136.269	49.455	0	329.90	0	4.6360	0	33.9050	0	26.851	0	326.827	0	-1e10	8	-1e10	8	-1E+10	1	-1E+10	1	-1E+10	1	-1E+10	1	-1E+10	1	-1E+10	1
4902554	32	C	12/21/2021	13:03	-136.269	49.455	0	330.80	0	4.6310	0	33.9070	0	26.853	0	327.718	0	-1e10	8	-1e10	8	-1E+10	1	-1E+10	1	-1E+10	1	-1E+10	1	-1E+10	1	-1E+10	1
4902554	32	C	12/21/2021	13:03	-136.269	49.455	0	332.00	0	4.6230	0	33.9090	0	26.855	0	328.906	0	-1e10	8	-1e10	8	-1E+10	1	-1E+10	1	-1E+10	1	-1E+10	1	-1E+10	1	-1E+10	1
4902554	32	C	12/21/2021	13:03	-136.269	49.455	0	333.30	0	4.6180	0	33.9100	0	26.857	0	330.193	0	-1e10	8	-1e10	8	-1E+10	1	-1E+10	1	-1E+10	1	-1E+10	1	-1E+10	1	-1E+10	1
4902554	32	C	12/21/2021	13:03	-136.269	49.455	0	334.10	0	4.6150	0	33.9100	0	26.857	0	330.985	0	-1e10	8	-1e10	8	-1E+10	1	-1E+10	1	-1E+10	1	-1E+10	1	-1E+10	1	-1E+10	1
4902554	32	C	12/21/2021	13:03	-136.269	49.455	0	334.90	0	4.6060	0	33.9130	0	26.860	0	331.777	0	-1e10	8	-1e10	8	-1E+10	1	-1E+10	1	-1E+10	1	-1E+10	1	-1E+10	1	-1E+10	1
4902554	32	C	12/21/2021	13:03	-136.269	49.455	0	335.70	0	4.6020	0	33.9130	0	26.861	0	332.569	0	-1e10	8	-1e10	8	-1E+10	1	-1E+10	1	-1E+10	1	-1E+10	1	-1E+10	1	-1E+10	1
4902554	32	C	12/21/2021	13:03	-136.269	49.455	0	336.90	0	4.6000	0	33.9130	0	26.861	0	333.756	0	-1e10	8	-1e10	8	-1E+10	1	-1E+10	1	-1E+10	1	-1E+10	1	-1E+10	1	-1E+10	1
4902554	32	C	12/21/2021	13:03	-136.269	49.455	0	338.20	0	4.5950	0	33.9150	0	26.863	0	335.043	0	-1e10	8	-1e10	8	-1E+10	1	-1E+10	1	-1E+10	1	-1E+10	1	-1E+10	1	-1E+10	1
4902554	32	C	12/21/2021	13:03	-136.269	49.455	0	339.00	0	4.5930	0	33.9160	0	26.864	0	335.835	0	-1e10	8	-1e10	8	-1E+10	1	-1E+10	1	-1E+10	1	-1E+10	1	-1E+10	1	-1E+10	1
4902554	32	C	12/21/2021	13:03	-136.269	49.455	0	339.90	0	4.5920	0	33.9170	0	26.865	0	336.726	0	-1e10	8	-1e10	8	-1E+10	1	-1E+10	1	-1E+10	1	-1E+10	1	-1E+10	1	-1E+10	1
4902554	32	C	12/21/2021	13:03	-136.269	49.455	0	340.70	0	4.5900	0	33.9170	0	26.865	0	337.518	0	-1e10	8	-1e10	8	-1E+10	1	-1E+10	1	-1E+10	1	-1E+10	1	-1E+10	1	-1E+10	1
4902554	32	C	12/21/2021	13:03	-136.269	49.455	0	342.00	0	4.5890	0	33.9170	0	26.865	0	338.805	0	-1e10	8	-1e10	8	-1E+10	1	-1E+10	1	-1E+10	1	-1E+10	1	-1E+10	1	-1E+10	1
4902554	32	C	12/21/2021	13:03	-136.269	49.455	0	343.20	0	4.5880	0	33.9180	0	26.866	0	339.992	0	-1e10	8	-1e10	8	-1E+10	1	-1E+10	1	-1E+10	1	-1E+10	1	-1E+10	1	-1E+10	1
4902554	32	C	12/21/2021	13:03	-136.269	49.455	0	344.10	0	4.5870	0	33.9180	0	26.866	0	340.883	0	-1e10	8	-1e10	8	-1E+10	1	-1E+10	1	-1E+10	1	-1E+10	1	-1E+10	1	-1E+10	1
4902554	32	C	12/21/2021	13:03	-136.269	49.455	0	344.90	0	4.5850	0	33.9180	0	26.867	0	341.675	0	-1e10	8	-1e10	8	-1E+10	1	-1E+10	1	-1E+10	1	-1E+10	1	-1E+10	1	-1E+10	1
4902554	32	C	12/21/2021	13:03	-136.269	49.455	0	345.80	0	4.5800	0	33.9200	0	26.869	0	342.566	0	-1e10	8	-1e10	8	-1E+10	1	-1E+10	1	-1E+10	1	-1E+10	1	-1E+10	1	-1E+10	1
4902554	32	C	12/21/2021	13:03	-136.269	49.455	0	346.60	0	4.5760	0	33.9210	0	26.870	0	343.358	0	-1e10	8	-1e10	8	-1E+10	1	-1E+10	1	-1E+10	1	-1E+10	1	-1E+10	1	-1E+10	1
4902554	32	C	12/21/2021	13:03	-136.269	49.455	0	347.90	0	4.5710	0	33.9220	0	26.871	0	344.645	0	-1e10	8	-1e10	8	-1E+10	1	-1E+10	1	-1E+10	1	-1E+10	1	-1E+10	1	-1E+10	1
4902554	32	C	12/21/2021	13:03	-136.269	49.455	0	349.10	0	4.5670	0	33.9230	0	26.873	0	345.832	0	-1e10	8	-1e10	8	-1E+10	1	-1E+10	1	-1E+10	1	-1E+10	1	-1E+10	1	-1E+10	1
4902554	32	C	12/21/2021	13:03	-136.269	49.455	0	350.00	0	4.5650	0	33.9240	0	26.874	0	346.723	0	-1e10	8	-1e10	8	-1E+10	1	-1E+10	1	-1E+10	1	-1E+10	1	-1E+10	1	-1E+10	1
4902554	32	C	12/21/2021	13:03	-136.269	49.455	0	352.90	0	4.5530	0	33.9260	0	26.876	0	349.594	0	-1e10	8	-1e10	8	-1E+10	1	-1E+10	1	-1E+10	1	-1E+10	1	-1E+10	1	-1E+10	1
4902554	32	C	12/21/2021	13:03	-136.269	49.455	0	357.90	0	4.5340	0	33.9320	0	26.883	0	354.542	0	-1e10	8	-1e10	8	-1E+10	1	-1E+10	1	-1E+10	1	-1E+10	1	-1E+10	1	-1E+10	1
4902554	32	C	12/21/2021	13:03	-136.269	49.455	0	362.90	0	4.5170	0	33.9360	0	26.888	0	359.491	0	-1e10	8	-1e10	8	-1E+10	1	-1E+10	1	-1E+10	1	-1E+10	1	-1E+10	1	-1E+10	1
4902554	32	C	12/21/2021	13:03	-136.269	49.455	0	368.00	0	4.5020	0	33.9390	0	26.892	0	364.539	0	-1e10	8	-1e10	8	-1E+10	1	-1E+10	1	-1E+10	1	-1E+10	1	-1E+10	1	-1E+10	1
4902554	32	C	12/21/2021	13:03	-136.269	49.455	0	373.10	0	4.4820	0	33.9460	0	26.900	0	369.586	0	-1e10	8	-1e10	8	-1E+10	1	-1E+10	1	-1E+10	1	-1E+10	1	-1E+10	1	-1E+10	1
4902554	32	C	12/21/2021	13:03	-136.269	49.455	0	378.20	0	4.4700	0	33.9510	0	26.905	0	374.634	0	-1e10	8	-1e10	8	-1E+10	1	-1E+10	1	-1E+10	1	-1E+10	1	-1E+10	1	-1E+10	1
4902554	32	C	12/21/2021	13:03	-136.269	49.455	0	383.30	0	4.4570	0	33.9550	0	26.910	0	379.681	0	-1e10	8	-1e10	8	-1E+10	1	-1E+10	1	-1E+10	1	-1E+10	1	-1E+10	1	-1E+10	1
4902554	32	C	12/21/2021	13:03	-136.269	49.455	0	387.90	0	4.4410	0	33.9600	0	26.916	0	384.233	0	-1e10	8	-1e10	8	-1E+10	1	-1E+10	1	-1E+10	1	-1E+10	1	-1E+10	1	-1E+10	1
4902554	32	C	12/21/2021	13:03	-136.269	49.455	0	392.60	0	4.4300	0	33.9640	0	26.920	0	388.884	0	-1e10	8	-1e10	8	-1E+10	1	-1E+10	1	-1E+10	1	-1E+10	1	-1E+10	1	-1E+10	1
4902554	32	C	12/21/2021	13:03	-136.269	49.455	0	397.90	0	4.4170	0	33.9690	0	26.926	0	394.129	0	-1e10	8	-1e10	8	-1E+10	1	-1E+10	1	-1E+10	1	-1E+10	1	-1E+10	1	-1E+10	1
4902554	32	C	12/21/2021	13:03	-136.269	49.455	0	403.20	0	4.4020	0	33.9750	0	26.932	0	399.374	0	-1e10	8	-1e10	8	-1E+10	1	-1E+10	1	-1E+10	1	-1E+10	1	-1E+10	1	-1E+10	1
4902554	32	C	12/21/2021	13:03	-136.269	49.455	0	408.10	0	4.3870	0	33.9810	0	26.938	0	404.223	0	-1e10	8	-1e10	8	-1E+10	1	-1E+10	1	-1E+10	1	-1E+10	1	-1E+10	1	-1E+10	1
4902554	32	C	12/21/2021	13:03	-136.269	49.455	0	413.00	0	4.3680	0	33.9910	0	26.948	0	409.071	0	-1e10	8	-1e10	8	-1E+10	1	-1E+10	1	-1E+10	1	-1E+10	1	-1E+10	1	-1E+10	1
4902554	32	C	12/21/2021	13:03	-136.269	49.455	0	418.10	0	4.3560	0	33.9960	0	26.954	0	414.118	0	-1e10	8	-1e10	8	-1E+10	1	-1E+10	1	-1E+10	1	-1E+10	1	-1E+10	1	-1E+10	1
4902554	32	C	12/21/2021	13:03	-136.269	49.455	0	422.80	0	4.3480	0	33.9990	0	26.957	0	418.768	0	-1e10	8	-1e10	8	-1E+10	1	-1E+10	1	-1E+10	1	-1E+10	1	-1E+10	1	-1E+10	1
4902554	32	C	12/21/2021	13:03	-136.269	49.455	0	427.70	0	4.3390	0	34.0040	0	26.962	0	423.616	0	-1e10	8	-1e10	8	-1E+10	1	-1E+10	1	-1E+10	1	-1E+10	1	-1E+10	1	-1E+10	1
4902554	32	C	12/21/2021	13:03	-136.269	49.455	0	432.50	0	4.3260	0	34.0090	0	26.967	0	428.366	0	-1e10	8	-1e10	8	-1E+10	1	-1E+10	1	-1E+10	1	-1E+10	1	-1E+10	1	-1E+10	1
4902554	32	C	12/21/2021	13:03	-136.269	49.455	0	437.50	0	4.3120	0	34.0120	0	26.971	0	433.313	0	-1e10	8	-1e10	8	-1E+10	1	-1E+10	1	-1E+10	1	-1E+10	1	-1E+10	1	-1E+10	1
4902554	32	C	12/21/2021	13:03	-136.269	49.455	0	442.90	0	4.3020	0	34.0180	0	26.977	0	438.655	0	-1e10	8	-1e10	8	-1E+10	1	-1E+10	1	-1E+10	1	-1E+10	1	-1E+10	1	-1E+10	1
4902554	32	C	12/21/2021	13:03	-136.269	49.455	0	447.90	0	4.2860	0	34.0250	0	26.984	0	443.602	0	-1e10	8	-1e10	8	-1E+10	1	-1E+10	1	-1E+10	1	-1E+10	1	-1E+10	1	-1E+10	1
4902554	32	C	12/21/2021	13:03	-136.269	49.455	0	452.50	0	4.2800	0	34.0300	0	26.989	0	448.153	0	-1e10	8	-1e10	8	-1E+10	1	-1E+10	1	-1E+10	1	-1E+10	1	-1E+10	1	-1E+10	1
4902554	32	C	12/21/2021	13:03	-136.269	49.455	0	457.60	0	4.2830	0	34.0330	0	26.991	0	453.198	0	-1e10	8	-1e10	8	-1E+10	1	-1E+10	1	-1E+10	1	-1E+10	1	-1E+10	1	-1E+10	1
4902554	32	C	12/21/2021	13:03	-136.269	49.455	0	462.80	0	4.2750	0	34.0370	0	26.995	0	458.343	0	-1e10	8	-1e10	8	-1E+10	1	-1E+10	1	-1E+10	1	-1E+10	1	-1E+10	1	-1E+10	1
4902554	32	C	12/21/2021	13:03	-136.269	49.455	0	468.10	0	4.2540	0	34.0460	0	27.005	0	463.586	0	-1e10	8	-1e10	8	-1E+10	1	-1E+10	1	-1E+10	1	-1E+10	1	-1E+10	1	-1E+10	1
4902554	32	C	12/21/2021	13:03	-136.269	49.455	0	473.00	0	4.2460	0	34.0480	0	27.007	0	468.433	0	-1e10	8	-1e10	8	-1E+10	1	-1E+10	1	-1E+10	1	-1E+10	1	-1E+10	1	-1E+10	1
4902554	32	C	12/21/2021	13:03	-136.269	49.455	0	477.70	0	4.2340	0	34.0530	0	27.012	0	473.082	0	-1e10	8	-1e10	8	-1E+10	1	-1E+10	1	-1E+10	1	-1E+10	1	-1E+10	1	-1E+10	1
4902554	32	C	12/21/2021	13:03	-136.269	49.455	0	482.90	0	4.2160	0	34.0600	0	27.020	0	478.226	0	-1e10	8	-1e10	8	-1E+10	1	-1E+10	1	-1E+10	1	-1E+10	1	-1E+10	1	-1E+10	1
4902554	32	C	12/21/2021	13:03	-136.269	49.455	0	488.30	0	4.2010	0	34.0660	0	27.026	0	483.567	0	-1e10	8	-1e10	8	-1E+10	1	-1E+10	1	-1E+10	1	-1E+10	1	-1E+10	1	-1E+10	1
4902554	32	C	12/21/2021	13:03	-136.269	49.455	0	492.90	0	4.1920	0	34.0720	0	27.032	0	488.117	0	-1e10	8	-1e10	8	-1E+10	1	-1E+10	1	-1E+10	1	-1E+10	1	-1E+10	1	-1E+10	1
4902554	32	C	12/21/2021	13:03	-136.269	49.455	0	497.60	0	4.1740	0	34.0770	0	27.038	0	492.766	0	-1e10	8	-1e10	8	-1E+10	1	-1E+10	1	-1E+10	1	-1E+10	1	-1E+10	1	-1E+10	1
4902554	32	C	12/21/2021	13:03	-136.269	49.455	0	502.70	0	4.1510	0	34.0840	0	27.046	0	497.810	0	-1e10	8	-1e10	8	-1E+10	1	-1E+10	1	-1E+10	1	-1E+10	1	-1E+10	1	-1E+10	1
4902554	32	C	12/21/2021	13:03	-136.269	49.455	0	508.10	0	4.1360	0	34.0870	0	27.050	0	503.151	0	-1e10	8	-1e10	8	-1E+10	1	-1E+10	1	-1E+10	1	-1E+10	1	-1E+10	1	-1E+10	1
4902554	32	C	12/21/2021	13:03	-136.269	49.455	0	513.10	0	4.1210	0	34.0930	0	27.056	0	508.097	0	-1e10	8	-1e10	8	-1E+10	1	-1E+10	1	-1E+10	1	-1E+10	1	-1E+10	1	-1E+10	1
4902554	32	C	12/21/2021	13:03	-136.269	49.455	0	517.70	0	4.1110	0	34.0960	0	27.060	0	512.646	0	-1e10	8	-1e10	8	-1E+10	1	-1E+10	1	-1E+10	1	-1E+10	1	-1E+10	1	-1E+10	1
4902554	32	C	12/21/2021	13:03	-136.269	49.455	0	522.80	0	4.0950	0	34.1020	0	27.066	0	517.690	0	-1e10	8	-1e10	8	-1E+10	1	-1E+10	1	-1E+10	1	-1E+10	1	-1E+10	1	-1E+10	1
4902554	32	C	12/21/2021	13:03	-136.269	49.455	0	528.00	0	4.0830	0	34.1030	0	27.068	0	522.833	0	-1e10	8	-1e10	8	-1E+10	1	-1E+10	1	-1E+10	1	-1E+10	1	-1E+10	1	-1E+10	1
4902554	32	C	12/21/2021	13:03	-136.269	49.455	0	532.70	0	4.0760	0	34.1050	0	27.070	0	527.481	0	-1e10	8	-1e10	8	-1E+10	1	-1E+10	1	-1E+10	1	-1E+10	1	-1E+10	1	-1E+10	1
4902554	32	C	12/21/2021	13:03	-136.269	49.455	0	537.90	0	4.0690	0	34.1080	0	27.074	0	532.623	0	-1e10	8	-1e10	8	-1E+10	1	-1E+10	1	-1E+10	1	-1E+10	1	-1E+10	1	-1E+10	1
4902554	32	C	12/21/2021	13:03	-136.269	49.455	0	543.10	0	4.0610	0	34.1100	0	27.076	0	537.765	0	-1e10	8	-1e10	8	-1E+10	1	-1E+10	1	-1E+10	1	-1E+10	1	-1E+10	1	-1E+10	1
4902554	32	C	12/21/2021	13:03	-136.269	49.455	0	547.90	0	4.0530	0	34.1130	0	27.079	0	542.512	0	-1e10	8	-1e10	8	-1E+10	1	-1E+10	1	-1E+10	1	-1E+10	1	-1E+10	1	-1E+10	1
4902554	32	C	12/21/2021	13:03	-136.269	49.455	0	552.70	0	4.0480	0	34.1160	0	27.082	0	547.258	0	-1e10	8	-1e10	8	-1E+10	1	-1E+10	1	-1E+10	1	-1E+10	1	-1E+10	1	-1E+10	1
4902554	32	C	12/21/2021	13:03	-136.269	49.455	0	557.90	0	4.0410	0	34.1200	0	27.086	0	552.400	0	-1e10	8	-1e10	8	-1E+10	1	-1E+10	1	-1E+10	1	-1E+10	1	-1E+10	1	-1E+10	1
4902554	32	C	12/21/2021	13:03	-136.269	49.455	0	563.10	0	4.0300	0	34.1230	0	27.090	0	557.542	0	-1e10	8	-1e10	8	-1E+10	1	-1E+10	1	-1E+10	1	-1E+10	1	-1E+10	1	-1E+10	1
4902554	32	C	12/21/2021	13:03	-136.269	49.455	0	567.80	0	4.0180	0	34.1260	0	27.093	0	562.189	0	-1e10	8	-1e10	8	-1E+10	1	-1E+10	1	-1E+10	1	-1E+10	1	-1E+10	1	-1E+10	1
4902554	32	C	12/21/2021	13:03	-136.269	49.455	0	572.90	0	4.0080	0	34.1300	0	27.098	0	567.232	0	-1e10	8	-1e10	8	-1E+10	1	-1E+10	1	-1E+10	1	-1E+10	1	-1E+10	1	-1E+10	1
4902554	32	C	12/21/2021	13:03	-136.269	49.455	0	578.00	0	3.9980	0	34.1330	0	27.101	0	572.274	0	-1e10	8	-1e10	8	-1E+10	1	-1E+10	1	-1E+10	1	-1E+10	1	-1E+10	1	-1E+10	1
4902554	32	C	12/21/2021	13:03	-136.269	49.455	0	583.00	0	3.9780	0	34.1390	0	27.108	0	577.218	0	-1e10	8	-1e10	8	-1E+10	1	-1E+10	1	-1E+10	1	-1E+10	1	-1E+10	1	-1E+10	1
4902554	32	C	12/21/2021	13:03	-136.269	49.455	0	588.00	0	3.9610	0	34.1440	0	27.114	0	582.161	0	-1e10	8	-1e10	8	-1E+10	1	-1E+10	1	-1E+10	1	-1E+10	1	-1E+10	1	-1E+10	1
4902554	32	C	12/21/2021	13:03	-136.269	49.455	0	592.80	0	3.9550	0	34.1470	0	27.117	0	586.907	0	-1e10	8	-1e10	8	-1E+10	1	-1E+10	1	-1E+10	1	-1E+10	1	-1E+10	1	-1E+10	1
4902554	32	C	12/21/2021	13:03	-136.269	49.455	0	598.10	0	3.9460	0	34.1500	0	27.120	0	592.147	0	-1e10	8	-1e10	8	-1E+10	1	-1E+10	1	-1E+10	1	-1E+10	1	-1E+10	1	-1E+10	1
4902554	32	C	12/21/2021	13:03	-136.269	49.455	0	602.90	0	3.9390	0	34.1520	0	27.122	0	596.892	0	-1e10	8	-1e10	8	-1E+10	1	-1E+10	1	-1E+10	1	-1E+10	1	-1E+10	1	-1E+10	1
4902554	32	C	12/21/2021	13:03	-136.269	49.455	0	607.60	0	3.9290	0	34.1560	0	27.127	0	601.538	0	-1e10	8	-1e10	8	-1E+10	1	-1E+10	1	-1E+10	1	-1E+10	1	-1E+10	1	-1E+10	1
4902554	32	C	12/21/2021	13:03	-136.269	49.455	0	612.80	0	3.9210	0	34.1580	0	27.129	0	606.679	0	-1e10	8	-1e10	8	-1E+10	1	-1E+10	1	-1E+10	1	-1E+10	1	-1E+10	1	-1E+10	1
4902554	32	C	12/21/2021	13:03	-136.269	49.455	0	618.00	0	3.9020	0	34.1650	0	27.136	0	611.819	0	-1e10	8	-1e10	8	-1E+10	1	-1E+10	1	-1E+10	1	-1E+10	1	-1E+10	1	-1E+10	1
4902554	32	C	12/21/2021	13:03	-136.269	49.455	0	622.80	0	3.8880	0	34.1690	0	27.141	0	616.564	0	-1e10	8	-1e10	8	-1E+10	1	-1E+10	1	-1E+10	1	-1E+10	1	-1E+10	1	-1E+10	1
4902554	32	C	12/21/2021	13:03	-136.269	49.455	0	627.60	0	3.8730	0	34.1740	0	27.147	0	621.309	0	-1e10	8	-1e10	8	-1E+10	1	-1E+10	1	-1E+10	1	-1E+10	1	-1E+10	1	-1E+10	1
4902554	32	C	12/21/2021	13:03	-136.269	49.455	0	633.00	0	3.8620	0	34.1780	0	27.151	0	626.647	0	-1e10	8	-1e10	8	-1E+10	1	-1E+10	1	-1E+10	1	-1E+10	1	-1E+10	1	-1E+10	1
4902554	32	C	12/21/2021	13:03	-136.269	49.455	0	637.90	0	3.8450	0	34.1830	0	27.157	0	631.490	0	-1e10	8	-1e10	8	-1E+10	1	-1E+10	1	-1E+10	1	-1E+10	1	-1E+10	1	-1E+10	1
4902554	32	C	12/21/2021	13:03	-136.269	49.455	0	642.70	0	3.8270	0	34.1870	0	27.162	0	636.235	0	-1e10	8	-1e10	8	-1E+10	1	-1E+10	1	-1E+10	1	-1E+10	1	-1E+10	1	-1E+10	1
4902554	32	C	12/21/2021	13:03	-136.269	49.455	0	648.10	0	3.8140	0	34.1890	0	27.165	0	641.572	0	-1e10	8	-1e10	8	-1E+10	1	-1E+10	1	-1E+10	1	-1E+10	1	-1E+10	1	-1E+10	1
4902554	32	C	12/21/2021	13:03	-136.269	49.455	0	653.00	0	3.7960	0	34.1940	0	27.170	0	646.415	0	-1e10	8	-1e10	8	-1E+10	1	-1E+10	1	-1E+10	1	-1E+10	1	-1E+10	1	-1E+10	1
4902554	32	C	12/21/2021	13:03	-136.269	49.455	0	657.80	0	3.7730	0	34.2000	0	27.178	0	651.159	0	-1e10	8	-1e10	8	-1E+10	1	-1E+10	1	-1E+10	1	-1E+10	1	-1E+10	1	-1E+10	1
4902554	32	C	12/21/2021	13:03	-136.269	49.455	0	662.70	0	3.7590	0	34.2060	0	27.184	0	656.002	0	-1e10	8	-1e10	8	-1E+10	1	-1E+10	1	-1E+10	1	-1E+10	1	-1E+10	1	-1E+10	1
4902554	32	C	12/21/2021	13:03	-136.269	49.455	0	667.80	0	3.7500	0	34.2090	0	27.187	0	661.042	0	-1e10	8	-1e10	8	-1E+10	1	-1E+10	1	-1E+10	1	-1E+10	1	-1E+10	1	-1E+10	1
4902554	32	C	12/21/2021	13:03	-136.269	49.455	0	672.90	0	3.7410	0	34.2130	0	27.191	0	666.083	0	-1e10	8	-1e10	8	-1E+10	1	-1E+10	1	-1E+10	1	-1E+10	1	-1E+10	1	-1E+10	1
4902554	32	C	12/21/2021	13:03	-136.269	49.455	0	677.70	0	3.7310	0	34.2150	0	27.194	0	670.826	0	-1e10	8	-1e10	8	-1E+10	1	-1E+10	1	-1E+10	1	-1E+10	1	-1E+10	1	-1E+10	1
4902554	32	C	12/21/2021	13:03	-136.269	49.455	0	682.60	0	3.7210	0	34.2180	0	27.197	0	675.669	0	-1e10	8	-1e10	8	-1E+10	1	-1E+10	1	-1E+10	1	-1E+10	1	-1E+10	1	-1E+10	1
4902554	32	C	12/21/2021	13:03	-136.269	49.455	0	687.70	0	3.7070	0	34.2220	0	27.202	0	680.709	0	-1e10	8	-1e10	8	-1E+10	1	-1E+10	1	-1E+10	1	-1E+10	1	-1E+10	1	-1E+10	1
4902554	32	C	12/21/2021	13:03	-136.269	49.455	0	693.10	0	3.6930	0	34.2250	0	27.206	0	686.045	0	-1e10	8	-1e10	8	-1E+10	1	-1E+10	1	-1E+10	1	-1E+10	1	-1E+10	1	-1E+10	1
4902554	32	C	12/21/2021	13:03	-136.269	49.455	0	698.10	0	3.6860	0	34.2270	0	27.208	0	690.986	0	-1e10	8	-1e10	8	-1E+10	1	-1E+10	1	-1E+10	1	-1E+10	1	-1E+10	1	-1E+10	1
4902554	32	C	12/21/2021	13:03	-136.269	49.455	0	702.80	0	3.6740	0	34.2300	0	27.211	0	695.630	0	-1e10	8	-1e10	8	-1E+10	1	-1E+10	1	-1E+10	1	-1E+10	1	-1E+10	1	-1E+10	1
4902554	32	C	12/21/2021	13:03	-136.269	49.455	0	707.90	0	3.6590	0	34.2340	0	27.216	0	700.669	0	-1e10	8	-1e10	8	-1E+10	1	-1E+10	1	-1E+10	1	-1E+10	1	-1E+10	1	-1E+10	1
4902554	32	C	12/21/2021	13:03	-136.269	49.455	0	713.20	0	3.6440	0	34.2370	0	27.220	0	705.906	0	-1e10	8	-1e10	8	-1E+10	1	-1E+10	1	-1E+10	1	-1E+10	1	-1E+10	1	-1E+10	1
4902554	32	C	12/21/2021	13:03	-136.269	49.455	0	718.30	0	3.6350	0	34.2390	0	27.223	0	710.945	0	-1e10	8	-1e10	8	-1E+10	1	-1E+10	1	-1E+10	1	-1E+10	1	-1E+10	1	-1E+10	1
4902554	32	C	12/21/2021	13:03	-136.269	49.455	0	722.90	0	3.6230	0	34.2410	0	27.225	0	715.490	0	-1e10	8	-1e10	8	-1E+10	1	-1E+10	1	-1E+10	1	-1E+10	1	-1E+10	1	-1E+10	1
4902554	32	C	12/21/2021	13:03	-136.269	49.455	0	727.60	0	3.6150	0	34.2430	0	27.228	0	720.134	0	-1e10	8	-1e10	8	-1E+10	1	-1E+10	1	-1E+10	1	-1E+10	1	-1E+10	1	-1E+10	1
4902554	32	C	12/21/2021	13:03	-136.269	49.455	0	732.80	0	3.6000	0	34.2450	0	27.231	0	725.272	0	-1e10	8	-1e10	8	-1E+10	1	-1E+10	1	-1E+10	1	-1E+10	1	-1E+10	1	-1E+10	1
4902554	32	C	12/21/2021	13:03	-136.269	49.455	0	738.10	0	3.5940	0	34.2460	0	27.232	0	730.508	0	-1e10	8	-1e10	8	-1E+10	1	-1E+10	1	-1E+10	1	-1E+10	1	-1E+10	1	-1E+10	1
4902554	32	C	12/21/2021	13:03	-136.269	49.455	0	743.10	0	3.5810	0	34.2500	0	27.237	0	735.448	0	-1e10	8	-1e10	8	-1E+10	1	-1E+10	1	-1E+10	1	-1E+10	1	-1E+10	1	-1E+10	1
4902554	32	C	12/21/2021	13:03	-136.269	49.455	0	747.70	0	3.5660	0	34.2530	0	27.241	0	739.992	0	-1e10	8	-1e10	8	-1E+10	1	-1E+10	1	-1E+10	1	-1E+10	1	-1E+10	1	-1E+10	1
4902554	32	C	12/21/2021	13:03	-136.269	49.455	0	752.80	0	3.5530	0	34.2560	0	27.244	0	745.030	0	-1e10	8	-1e10	8	-1E+10	1	-1E+10	1	-1E+10	1	-1E+10	1	-1E+10	1	-1E+10	1
4902554	32	C	12/21/2021	13:03	-136.269	49.455	0	758.00	0	3.5400	0	34.2590	0	27.248	0	750.167	0	-1e10	8	-1e10	8	-1E+10	1	-1E+10	1	-1E+10	1	-1E+10	1	-1E+10	1	-1E+10	1
4902554	32	C	12/21/2021	13:03	-136.269	49.455	0	762.80	0	3.5300	0	34.2610	0	27.251	0	754.909	0	-1e10	8	-1e10	8	-1E+10	1	-1E+10	1	-1E+10	1	-1E+10	1	-1E+10	1	-1E+10	1
4902554	32	C	12/21/2021	13:03	-136.269	49.455	0	767.70	0	3.5190	0	34.2640	0	27.254	0	759.750	0	-1e10	8	-1e10	8	-1E+10	1	-1E+10	1	-1E+10	1	-1E+10	1	-1E+10	1	-1E+10	1
4902554	32	C	12/21/2021	13:03	-136.269	49.455	0	773.00	0	3.5120	0	34.2650	0	27.256	0	764.985	0	-1e10	8	-1e10	8	-1E+10	1	-1E+10	1	-1E+10	1	-1E+10	1	-1E+10	1	-1E+10	1
4902554	32	C	12/21/2021	13:03	-136.269	49.455	0	778.30	0	3.5020	0	34.2680	0	27.259	0	770.220	0	-1e10	8	-1e10	8	-1E+10	1	-1E+10	1	-1E+10	1	-1E+10	1	-1E+10	1	-1E+10	1
4902554	32	C	12/21/2021	13:03	-136.269	49.455	0	783.20	0	3.4920	0	34.2700	0	27.262	0	775.060	0	-1e10	8	-1e10	8	-1E+10	1	-1E+10	1	-1E+10	1	-1E+10	1	-1E+10	1	-1E+10	1
4902554	32	C	12/21/2021	13:03	-136.269	49.455	0	788.10	0	3.4850	0	34.2720	0	27.264	0	779.900	0	-1e10	8	-1e10	8	-1E+10	1	-1E+10	1	-1E+10	1	-1E+10	1	-1E+10	1	-1E+10	1
4902554	32	C	12/21/2021	13:03	-136.269	49.455	0	793.00	0	3.4730	0	34.2740	0	27.267	0	784.740	0	-1e10	8	-1e10	8	-1E+10	1	-1E+10	1	-1E+10	1	-1E+10	1	-1E+10	1	-1E+10	1
4902554	32	C	12/21/2021	13:03	-136.269	49.455	0	798.00	0	3.4560	0	34.2780	0	27.271	0	789.679	0	-1e10	8	-1e10	8	-1E+10	1	-1E+10	1	-1E+10	1	-1E+10	1	-1E+10	1	-1E+10	1
4902554	32	C	12/21/2021	13:03	-136.269	49.455	0	802.90	0	3.4530	0	34.2790	0	27.273	0	794.518	0	-1e10	8	-1e10	8	-1E+10	1	-1E+10	1	-1E+10	1	-1E+10	1	-1E+10	1	-1E+10	1
4902554	32	C	12/21/2021	13:03	-136.269	49.455	0	807.90	0	3.4440	0	34.2810	0	27.275	0	799.456	0	-1e10	8	-1e10	8	-1E+10	1	-1E+10	1	-1E+10	1	-1E+10	1	-1E+10	1	-1E+10	1
4902554	32	C	12/21/2021	13:03	-136.269	49.455	0	812.90	0	3.4340	0	34.2830	0	27.278	0	804.395	0	-1e10	8	-1e10	8	-1E+10	1	-1E+10	1	-1E+10	1	-1E+10	1	-1E+10	1	-1E+10	1
4902554	32	C	12/21/2021	13:03	-136.269	49.455	0	817.90	0	3.4230	0	34.2860	0	27.281	0	809.333	0	-1e10	8	-1e10	8	-1E+10	1	-1E+10	1	-1E+10	1	-1E+10	1	-1E+10	1	-1E+10	1
4902554	32	C	12/21/2021	13:03	-136.269	49.455	0	822.90	0	3.4110	0	34.2880	0	27.284	0	814.270	0	-1e10	8	-1e10	8	-1E+10	1	-1E+10	1	-1E+10	1	-1E+10	1	-1E+10	1	-1E+10	1
4902554	32	C	12/21/2021	13:03	-136.269	49.455	0	827.90	0	3.3970	0	34.2910	0	27.288	0	819.208	0	-1e10	8	-1e10	8	-1E+10	1	-1E+10	1	-1E+10	1	-1E+10	1	-1E+10	1	-1E+10	1
4902554	32	C	12/21/2021	13:03	-136.269	49.455	0	833.00	0	3.3860	0	34.2940	0	27.291	0	824.245	0	-1e10	8	-1e10	8	-1E+10	1	-1E+10	1	-1E+10	1	-1E+10	1	-1E+10	1	-1E+10	1
4902554	32	C	12/21/2021	13:03	-136.269	49.455	0	838.20	0	3.3740	0	34.2970	0	27.295	0	829.380	0	-1e10	8	-1e10	8	-1E+10	1	-1E+10	1	-1E+10	1	-1E+10	1	-1E+10	1	-1E+10	1
4902554	32	C	12/21/2021	13:03	-136.269	49.455	0	843.30	0	3.3670	0	34.2980	0	27.296	0	834.416	0	-1e10	8	-1e10	8	-1E+10	1	-1E+10	1	-1E+10	1	-1E+10	1	-1E+10	1	-1E+10	1
4902554	32	C	12/21/2021	13:03	-136.269	49.455	0	847.90	0	3.3620	0	34.2990	0	27.297	0	838.958	0	-1e10	8	-1e10	8	-1E+10	1	-1E+10	1	-1E+10	1	-1E+10	1	-1E+10	1	-1E+10	1
4902554	32	C	12/21/2021	13:03	-136.269	49.455	0	852.60	0	3.3540	0	34.3000	0	27.299	0	843.599	0	-1e10	8	-1e10	8	-1E+10	1	-1E+10	1	-1E+10	1	-1E+10	1	-1E+10	1	-1E+10	1
4902554	32	C	12/21/2021	13:03	-136.269	49.455	0	857.90	0	3.3450	0	34.3030	0	27.302	0	848.832	0	-1e10	8	-1e10	8	-1E+10	1	-1E+10	1	-1E+10	1	-1E+10	1	-1E+10	1	-1E+10	1
4902554	32	C	12/21/2021	13:03	-136.269	49.455	0	863.20	0	3.3380	0	34.3050	0	27.305	0	854.065	0	-1e10	8	-1e10	8	-1E+10	1	-1E+10	1	-1E+10	1	-1E+10	1	-1E+10	1	-1E+10	1
4902554	32	C	12/21/2021	13:03	-136.269	49.455	0	867.90	0	3.3240	0	34.3070	0	27.308	0	858.706	0	-1e10	8	-1e10	8	-1E+10	1	-1E+10	1	-1E+10	1	-1E+10	1	-1E+10	1	-1E+10	1
4902554	32	C	12/21/2021	13:03	-136.269	49.455	0	872.60	0	3.3070	0	34.3110	0	27.312	0	863.347	0	-1e10	8	-1e10	8	-1E+10	1	-1E+10	1	-1E+10	1	-1E+10	1	-1E+10	1	-1E+10	1
4902554	32	C	12/21/2021	13:03	-136.269	49.455	0	877.90	0	3.2960	0	34.3130	0	27.315	0	868.579	0	-1e10	8	-1e10	8	-1E+10	1	-1E+10	1	-1E+10	1	-1E+10	1	-1E+10	1	-1E+10	1
4902554	32	C	12/21/2021	13:03	-136.269	49.455	0	883.10	0	3.2840	0	34.3160	0	27.319	0	873.713	0	-1e10	8	-1e10	8	-1E+10	1	-1E+10	1	-1E+10	1	-1E+10	1	-1E+10	1	-1E+10	1
4902554	32	C	12/21/2021	13:03	-136.269	49.455	0	887.90	0	3.2680	0	34.3180	0	27.322	0	878.452	0	-1e10	8	-1e10	8	-1E+10	1	-1E+10	1	-1E+10	1	-1E+10	1	-1E+10	1	-1E+10	1
4902554	32	C	12/21/2021	13:03	-136.269	49.455	0	892.50	0	3.2590	0	34.3200	0	27.324	0	882.994	0	-1e10	8	-1e10	8	-1E+10	1	-1E+10	1	-1E+10	1	-1E+10	1	-1E+10	1	-1E+10	1
4902554	32	C	12/21/2021	13:03	-136.269	49.455	0	897.70	0	3.2390	0	34.3250	0	27.330	0	888.127	0	-1e10	8	-1e10	8	-1E+10	1	-1E+10	1	-1E+10	1	-1E+10	1	-1E+10	1	-1E+10	1
4902554	32	C	12/21/2021	13:03	-136.269	49.455	0	902.90	0	3.2260	0	34.3270	0	27.333	0	893.261	0	-1e10	8	-1e10	8	-1E+10	1	-1E+10	1	-1E+10	1	-1E+10	1	-1E+10	1	-1E+10	1
4902554	32	C	12/21/2021	13:03	-136.269	49.455	0	908.10	0	3.2090	0	34.3310	0	27.338	0	898.394	0	-1e10	8	-1e10	8	-1E+10	1	-1E+10	1	-1E+10	1	-1E+10	1	-1E+10	1	-1E+10	1
4902554	32	C	12/21/2021	13:03	-136.269	49.455	0	913.30	0	3.2020	0	34.3320	0	27.339	0	903.527	0	-1e10	8	-1e10	8	-1E+10	1	-1E+10	1	-1E+10	1	-1E+10	1	-1E+10	1	-1E+10	1
4902554	32	C	12/21/2021	13:03	-136.269	49.455	0	918.00	0	3.1940	0	34.3330	0	27.341	0	908.167	0	-1e10	8	-1e10	8	-1E+10	1	-1E+10	1	-1E+10	1	-1E+10	1	-1E+10	1	-1E+10	1
4902554	32	C	12/21/2021	13:03	-136.269	49.455	0	922.60	0	3.1820	0	34.3360	0	27.344	0	912.707	0	-1e10	8	-1e10	8	-1E+10	1	-1E+10	1	-1E+10	1	-1E+10	1	-1E+10	1	-1E+10	1
4902554	32	C	12/21/2021	13:03	-136.269	49.455	0	927.80	0	3.1670	0	34.3390	0	27.348	0	917.840	0	-1e10	8	-1e10	8	-1E+10	1	-1E+10	1	-1E+10	1	-1E+10	1	-1E+10	1	-1E+10	1
4902554	32	C	12/21/2021	13:03	-136.269	49.455	0	932.70	0	3.1560	0	34.3410	0	27.351	0	922.677	0	-1e10	8	-1e10	8	-1E+10	1	-1E+10	1	-1E+10	1	-1E+10	1	-1E+10	1	-1E+10	1
4902554	32	C	12/21/2021	13:03	-136.269	49.455	0	937.90	0	3.1410	0	34.3440	0	27.354	0	927.809	0	-1e10	8	-1e10	8	-1E+10	1	-1E+10	1	-1E+10	1	-1E+10	1	-1E+10	1	-1E+10	1
4902554	32	C	12/21/2021	13:03	-136.269	49.455	0	943.20	0	3.1300	0	34.3460	0	27.357	0	933.041	0	-1e10	8	-1e10	8	-1E+10	1	-1E+10	1	-1E+10	1	-1E+10	1	-1E+10	1	-1E+10	1
4902554	32	C	12/21/2021	13:03	-136.269	49.455	0	948.30	0	3.1220	0	34.3480	0	27.359	0	938.074	0	-1e10	8	-1e10	8	-1E+10	1	-1E+10	1	-1E+10	1	-1E+10	1	-1E+10	1	-1E+10	1
4902554	32	C	12/21/2021	13:03	-136.269	49.455	0	952.90	0	3.1140	0	34.3490	0	27.361	0	942.614	0	-1e10	8	-1e10	8	-1E+10	1	-1E+10	1	-1E+10	1	-1E+10	1	-1E+10	1	-1E+10	1
4902554	32	C	12/21/2021	13:03	-136.269	49.455	0	957.60	0	3.1060	0	34.3510	0	27.363	0	947.253	0	-1e10	8	-1e10	8	-1E+10	1	-1E+10	1	-1E+10	1	-1E+10	1	-1E+10	1	-1E+10	1
4902554	32	C	12/21/2021	13:03	-136.269	49.455	0	962.80	0	3.1010	0	34.3520	0	27.365	0	952.385	0	-1e10	8	-1e10	8	-1E+10	1	-1E+10	1	-1E+10	1	-1E+10	1	-1E+10	1	-1E+10	1
4902554	32	C	12/21/2021	13:03	-136.269	49.455	0	968.00	0	3.0950	0	34.3530	0	27.366	0	957.517	0	-1e10	8	-1e10	8	-1E+10	1	-1E+10	1	-1E+10	1	-1E+10	1	-1E+10	1	-1E+10	1
4902554	32	C	12/21/2021	13:03	-136.269	49.455	0	972.80	0	3.0790	0	34.3560	0	27.370	0	962.254	0	-1e10	8	-1e10	8	-1E+10	1	-1E+10	1	-1E+10	1	-1E+10	1	-1E+10	1	-1E+10	1
4902554	32	C	12/21/2021	13:03	-136.269	49.455	0	977.80	0	3.0660	0	34.3590	0	27.373	0	967.188	0	-1e10	8	-1e10	8	-1E+10	1	-1E+10	1	-1E+10	1	-1E+10	1	-1E+10	1	-1E+10	1
4902554	32	C	12/21/2021	13:03	-136.269	49.455	0	982.80	0	3.0530	0	34.3620	0	27.377	0	972.122	0	-1e10	8	-1e10	8	-1E+10	1	-1E+10	1	-1E+10	1	-1E+10	1	-1E+10	1	-1E+10	1
4902554	32	C	12/21/2021	13:03	-136.269	49.455	0	987.80	0	3.0460	0	34.3630	0	27.379	0	977.056	0	-1e10	8	-1e10	8	-1E+10	1	-1E+10	1	-1E+10	1	-1E+10	1	-1E+10	1	-1E+10	1
4902554	32	C	12/21/2021	13:03	-136.269	49.455	0	993.00	0	3.0370	0	34.3650	0	27.381	0	982.187	0	-1e10	8	-1e10	8	-1E+10	1	-1E+10	1	-1E+10	1	-1E+10	1	-1E+10	1	-1E+10	1
4902554	32	C	12/21/2021	13:03	-136.269	49.455	0	997.70	0	3.0220	0	34.3680	0	27.385	0	986.825	0	-1e10	8	-1e10	8	-1E+10	1	-1E+10	1	-1E+10	1	-1E+10	1	-1E+10	1	-1E+10	1
4902554	32	C	12/21/2021	13:03	-136.269	49.455	0	1005.50	0	3.0080	0	34.3710	0	27.388	0	994.522	0	-1e10	8	-1e10	8	-1E+10	1	-1E+10	1	-1E+10	1	-1E+10	1	-1E+10	1	-1E+10	1
4902554	32	C	12/21/2021	13:03	-136.269	49.455	0	1015.70	0	2.9940	0	34.3740	0	27.392	0	1004.586	0	-1e10	8	-1e10	8	-1E+10	1	-1E+10	1	-1E+10	1	-1E+10	1	-1E+10	1	-1E+10	1
4902554	32	C	12/21/2021	13:03	-136.269	49.455	0	1025.50	0	2.9770	0	34.3770	0	27.396	0	1014.255	0	-1e10	8	-1e10	8	-1E+10	1	-1E+10	1	-1E+10	1	-1E+10	1	-1E+10	1	-1E+10	1
4902554	32	C	12/21/2021	13:03	-136.269	49.455	0	1035.40	0	2.9630	0	34.3810	0	27.401	0	1024.022	0	-1e10	8	-1e10	8	-1E+10	1	-1E+10	1	-1E+10	1	-1E+10	1	-1E+10	1	-1E+10	1
4902554	32	C	12/21/2021	13:03	-136.269	49.455	0	1045.40	0	2.9530	0	34.3830	0	27.403	0	1033.888	0	-1e10	8	-1e10	8	-1E+10	1	-1E+10	1	-1E+10	1	-1E+10	1	-1E+10	1	-1E+10	1
4902554	32	C	12/21/2021	13:03	-136.269	49.455	0	1055.30	0	2.9390	0	34.3850	0	27.406	0	1043.654	0	-1e10	8	-1e10	8	-1E+10	1	-1E+10	1	-1E+10	1	-1E+10	1	-1E+10	1	-1E+10	1
4902554	32	C	12/21/2021	13:03	-136.269	49.455	0	1065.30	0	2.9240	0	34.3890	0	27.411	0	1053.519	0	-1e10	8	-1e10	8	-1E+10	1	-1E+10	1	-1E+10	1	-1E+10	1	-1E+10	1	-1E+10	1
4902554	32	C	12/21/2021	13:03	-136.269	49.455	0	1075.50	0	2.9150	0	34.3910	0	27.413	0	1063.580	0	-1e10	8	-1e10	8	-1E+10	1	-1E+10	1	-1E+10	1	-1E+10	1	-1E+10	1	-1E+10	1
4902554	32	C	12/21/2021	13:03	-136.269	49.455	0	1085.30	0	2.9020	0	34.3940	0	27.417	0	1073.246	0	-1e10	8	-1e10	8	-1E+10	1	-1E+10	1	-1E+10	1	-1E+10	1	-1E+10	1	-1E+10	1
4902554	32	C	12/21/2021	13:03	-136.269	49.455	0	1095.20	0	2.8800	0	34.3970	0	27.421	0	1083.011	0	-1e10	8	-1e10	8	-1E+10	1	-1E+10	1	-1E+10	1	-1E+10	1	-1E+10	1	-1E+10	1
4902554	32	C	12/21/2021	13:03	-136.269	49.455	0	1105.20	0	2.8620	0	34.4000	0	27.425	0	1092.873	0	-1e10	8	-1e10	8	-1E+10	1	-1E+10	1	-1E+10	1	-1E+10	1	-1E+10	1	-1E+10	1
4902554	32	C	12/21/2021	13:03	-136.269	49.455	0	1115.10	0	2.8540	0	34.4020	0	27.428	0	1102.637	0	-1e10	8	-1e10	8	-1E+10	1	-1E+10	1	-1E+10	1	-1E+10	1	-1E+10	1	-1E+10	1
4902554	32	C	12/21/2021	13:03	-136.269	49.455	0	1125.50	0	2.8430	0	34.4040	0	27.430	0	1112.893	0	-1e10	8	-1e10	8	-1E+10	1	-1E+10	1	-1E+10	1	-1E+10	1	-1E+10	1	-1E+10	1
4902554	32	C	12/21/2021	13:03	-136.269	49.455	0	1135.40	0	2.8190	0	34.4080	0	27.436	0	1122.656	0	-1e10	8	-1e10	8	-1E+10	1	-1E+10	1	-1E+10	1	-1E+10	1	-1E+10	1	-1E+10	1
4902554	32	C	12/21/2021	13:03	-136.269	49.455	0	1145.00	0	2.8120	0	34.4100	0	27.438	0	1132.122	0	-1e10	8	-1e10	8	-1E+10	1	-1E+10	1	-1E+10	1	-1E+10	1	-1E+10	1	-1E+10	1
4902554	32	C	12/21/2021	13:03	-136.269	49.455	0	1155.30	0	2.8030	0	34.4110	0	27.440	0	1142.279	0	-1e10	8	-1e10	8	-1E+10	1	-1E+10	1	-1E+10	1	-1E+10	1	-1E+10	1	-1E+10	1
4902554	32	C	12/21/2021	13:03	-136.269	49.455	0	1165.30	0	2.7780	0	34.4160	0	27.446	0	1152.139	0	-1e10	8	-1e10	8	-1E+10	1	-1E+10	1	-1E+10	1	-1E+10	1	-1E+10	1	-1E+10	1
4902554	32	C	12/21/2021	13:03	-136.269	49.455	0	1175.40	0	2.7630	0	34.4180	0	27.449	0	1162.096	0	-1e10	8	-1e10	8	-1E+10	1	-1E+10	1	-1E+10	1	-1E+10	1	-1E+10	1	-1E+10	1
4902554	32	C	12/21/2021	13:03	-136.269	49.455	0	1185.40	0	2.7440	0	34.4220	0	27.454	0	1171.955	0	-1e10	8	-1e10	8	-1E+10	1	-1E+10	1	-1E+10	1	-1E+10	1	-1E+10	1	-1E+10	1
4902554	32	C	12/21/2021	13:03	-136.269	49.455	0	1195.30	0	2.7300	0	34.4250	0	27.457	0	1181.715	0	-1e10	8	-1e10	8	-1E+10	1	-1E+10	1	-1E+10	1	-1E+10	1	-1E+10	1	-1E+10	1
4902554	32	C	12/21/2021	13:03	-136.269	49.455	0	1205.40	0	2.7160	0	34.4280	0	27.461	0	1191.672	0	-1e10	8	-1e10	8	-1E+10	1	-1E+10	1	-1E+10	1	-1E+10	1	-1E+10	1	-1E+10	1
4902554	32	C	12/21/2021	13:03	-136.269	49.455	0	1215.50	0	2.6920	0	34.4330	0	27.467	0	1201.628	0	-1e10	8	-1e10	8	-1E+10	1	-1E+10	1	-1E+10	1	-1E+10	1	-1E+10	1	-1E+10	1
4902554	32	C	12/21/2021	13:03	-136.269	49.455	0	1225.30	0	2.6720	0	34.4370	0	27.472	0	1211.288	0	-1e10	8	-1e10	8	-1E+10	1	-1E+10	1	-1E+10	1	-1E+10	1	-1E+10	1	-1E+10	1
4902554	32	C	12/21/2021	13:03	-136.269	49.455	0	1235.20	0	2.6560	0	34.4400	0	27.476	0	1221.046	0	-1e10	8	-1e10	8	-1E+10	1	-1E+10	1	-1E+10	1	-1E+10	1	-1E+10	1	-1E+10	1
4902554	32	C	12/21/2021	13:03	-136.269	49.455	0	1245.20	0	2.6390	0	34.4430	0	27.480	0	1230.902	0	-1e10	8	-1e10	8	-1E+10	1	-1E+10	1	-1E+10	1	-1E+10	1	-1E+10	1	-1E+10	1
4902554	32	C	12/21/2021	13:03	-136.269	49.455	0	1255.20	0	2.6250	0	34.4460	0	27.483	0	1240.758	0	-1e10	8	-1e10	8	-1E+10	1	-1E+10	1	-1E+10	1	-1E+10	1	-1E+10	1	-1E+10	1
4902554	32	C	12/21/2021	13:03	-136.269	49.455	0	1265.40	0	2.6130	0	34.4480	0	27.486	0	1250.810	0	-1e10	8	-1e10	8	-1E+10	1	-1E+10	1	-1E+10	1	-1E+10	1	-1E+10	1	-1E+10	1
4902554	32	C	12/21/2021	13:03	-136.269	49.455	0	1275.60	0	2.5980	0	34.4510	0	27.490	0	1260.862	0	-1e10	8	-1e10	8	-1E+10	1	-1E+10	1	-1E+10	1	-1E+10	1	-1E+10	1	-1E+10	1
4902554	32	C	12/21/2021	13:03	-136.269	49.455	0	1285.60	0	2.5810	0	34.4550	0	27.495	0	1270.717	0	-1e10	8	-1e10	8	-1E+10	1	-1E+10	1	-1E+10	1	-1E+10	1	-1E+10	1	-1E+10	1
4902554	32	C	12/21/2021	13:03	-136.269	49.455	0	1295.10	0	2.5720	0	34.4570	0	27.497	0	1280.078	0	-1e10	8	-1e10	8	-1E+10	1	-1E+10	1	-1E+10	1	-1E+10	1	-1E+10	1	-1E+10	1
4902554	32	C	12/21/2021	13:03	-136.269	49.455	0	1305.10	0	2.5630	0	34.4580	0	27.499	0	1289.931	0	-1e10	8	-1e10	8	-1E+10	1	-1E+10	1	-1E+10	1	-1E+10	1	-1E+10	1	-1E+10	1
4902554	32	C	12/21/2021	13:03	-136.269	49.455	0	1315.20	0	2.5510	0	34.4610	0	27.502	0	1299.883	0	-1e10	8	-1e10	8	-1E+10	1	-1E+10	1	-1E+10	1	-1E+10	1	-1E+10	1	-1E+10	1
4902554	32	C	12/21/2021	13:03	-136.269	49.455	0	1325.50	0	2.5390	0	34.4630	0	27.505	0	1310.031	0	-1e10	8	-1e10	8	-1E+10	1	-1E+10	1	-1E+10	1	-1E+10	1	-1E+10	1	-1E+10	1
4902554	32	C	12/21/2021	13:03	-136.269	49.455	0	1335.60	0	2.5250	0	34.4660	0	27.508	0	1319.981	0	-1e10	8	-1e10	8	-1E+10	1	-1E+10	1	-1E+10	1	-1E+10	1	-1E+10	1	-1E+10	1
4902554	32	C	12/21/2021	13:03	-136.269	49.455	0	1345.50	0	2.5120	0	34.4680	0	27.511	0	1329.734	0	-1e10	8	-1e10	8	-1E+10	1	-1E+10	1	-1E+10	1	-1E+10	1	-1E+10	1	-1E+10	1
4902554	32	C	12/21/2021	13:03	-136.269	49.455	0	1355.20	0	2.4960	0	34.4710	0	27.515	0	1339.290	0	-1e10	8	-1e10	8	-1E+10	1	-1E+10	1	-1E+10	1	-1E+10	1	-1E+10	1	-1E+10	1
4902554	32	C	12/21/2021	13:03	-136.269	49.455	0	1365.20	0	2.4900	0	34.4730	0	27.517	0	1349.140	0	-1e10	8	-1e10	8	-1E+10	1	-1E+10	1	-1E+10	1	-1E+10	1	-1E+10	1	-1E+10	1
4902554	32	C	12/21/2021	13:03	-136.269	49.455	0	1375.40	0	2.4810	0	34.4750	0	27.519	0	1359.187	0	-1e10	8	-1e10	8	-1E+10	1	-1E+10	1	-1E+10	1	-1E+10	1	-1E+10	1	-1E+10	1
4902554	32	C	12/21/2021	13:03	-136.269	49.455	0	1385.40	0	2.4760	0	34.4760	0	27.521	0	1369.037	0	-1e10	8	-1e10	8	-1E+10	1	-1E+10	1	-1E+10	1	-1E+10	1	-1E+10	1	-1E+10	1
4902554	32	C	12/21/2021	13:03	-136.269	49.455	0	1395.40	0	2.4670	0	34.4770	0	27.522	0	1378.886	0	-1e10	8	-1e10	8	-1E+10	1	-1E+10	1	-1E+10	1	-1E+10	1	-1E+10	1	-1E+10	1
4902554	32	C	12/21/2021	13:03	-136.269	49.455	0	1405.70	0	2.4550	0	34.4800	0	27.526	0	1389.031	0	-1e10	8	-1e10	8	-1E+10	1	-1E+10	1	-1E+10	1	-1E+10	1	-1E+10	1	-1E+10	1
4902554	32	C	12/21/2021	13:03	-136.269	49.455	0	1415.40	0	2.4450	0	34.4820	0	27.528	0	1398.583	0	-1e10	8	-1e10	8	-1E+10	1	-1E+10	1	-1E+10	1	-1E+10	1	-1E+10	1	-1E+10	1
4902554	32	C	12/21/2021	13:03	-136.269	49.455	0	1425.00	0	2.4380	0	34.4830	0	27.530	0	1408.037	0	-1e10	8	-1e10	8	-1E+10	1	-1E+10	1	-1E+10	1	-1E+10	1	-1E+10	1	-1E+10	1
4902554	32	C	12/21/2021	13:03	-136.269	49.455	0	1435.10	0	2.4290	0	34.4850	0	27.532	0	1417.983	0	-1e10	8	-1e10	8	-1E+10	1	-1E+10	1	-1E+10	1	-1E+10	1	-1E+10	1	-1E+10	1
4902554	32	C	12/21/2021	13:03	-136.269	49.455	0	1445.20	0	2.4220	0	34.4860	0	27.534	0	1427.929	0	-1e10	8	-1e10	8	-1E+10	1	-1E+10	1	-1E+10	1	-1E+10	1	-1E+10	1	-1E+10	1
4902554	32	C	12/21/2021	13:03	-136.269	49.455	0	1455.40	0	2.4060	0	34.4890	0	27.537	0	1437.972	0	-1e10	8	-1e10	8	-1E+10	1	-1E+10	1	-1E+10	1	-1E+10	1	-1E+10	1	-1E+10	1
4902554	32	C	12/21/2021	13:03	-136.269	49.455	0	1465.60	0	2.3960	0	34.4920	0	27.541	0	1448.015	0	-1e10	8	-1e10	8	-1E+10	1	-1E+10	1	-1E+10	1	-1E+10	1	-1E+10	1	-1E+10	1
4902554	32	C	12/21/2021	13:03	-136.269	49.455	0	1475.40	0	2.3920	0	34.4930	0	27.542	0	1457.664	0	-1e10	8	-1e10	8	-1E+10	1	-1E+10	1	-1E+10	1	-1E+10	1	-1E+10	1	-1E+10	1
4902554	32	C	12/21/2021	13:03	-136.269	49.455	0	1485.20	0	2.3820	0	34.4940	0	27.544	0	1467.312	0	-1e10	8	-1e10	8	-1E+10	1	-1E+10	1	-1E+10	1	-1E+10	1	-1E+10	1	-1E+10	1
4902554	32	C	12/21/2021	13:03	-136.269	49.455	0	1495.40	0	2.3710	0	34.4970	0	27.547	0	1477.353	0	-1e10	8	-1e10	8	-1E+10	1	-1E+10	1	-1E+10	1	-1E+10	1	-1E+10	1	-1E+10	1
4902554	32	C	12/21/2021	13:03	-136.269	49.455	0	1505.40	0	2.3610	0	34.4990	0	27.549	0	1487.197	0	-1e10	8	-1e10	8	-1E+10	1	-1E+10	1	-1E+10	1	-1E+10	1	-1E+10	1	-1E+10	1
4902554	32	C	12/21/2021	13:03	-136.269	49.455	0	1515.00	0	2.3530	0	34.5000	0	27.551	0	1496.647	0	-1e10	8	-1e10	8	-1E+10	1	-1E+10	1	-1E+10	1	-1E+10	1	-1E+10	1	-1E+10	1
4902554	32	C	12/21/2021	13:03	-136.269	49.455	0	1525.20	0	2.3420	0	34.5020	0	27.553	0	1506.687	0	-1e10	8	-1e10	8	-1E+10	1	-1E+10	1	-1E+10	1	-1E+10	1	-1E+10	1	-1E+10	1
4902554	32	C	12/21/2021	13:03	-136.269	49.455	0	1535.50	0	2.3280	0	34.5050	0	27.557	0	1516.826	0	-1e10	8	-1e10	8	-1E+10	1	-1E+10	1	-1E+10	1	-1E+10	1	-1E+10	1	-1E+10	1
4902554	32	C	12/21/2021	13:03	-136.269	49.455	0	1545.60	0	2.3240	0	34.5060	0	27.558	0	1526.766	0	-1e10	8	-1e10	8	-1E+10	1	-1E+10	1	-1E+10	1	-1E+10	1	-1E+10	1	-1E+10	1
4902554	32	C	12/21/2021	13:03	-136.269	49.455	0	1555.30	0	2.3160	0	34.5080	0	27.561	0	1536.313	0	-1e10	8	-1e10	8	-1E+10	1	-1E+10	1	-1E+10	1	-1E+10	1	-1E+10	1	-1E+10	1
4902554	32	C	12/21/2021	13:03	-136.269	49.455	0	1565.20	0	2.3060	0	34.5100	0	27.563	0	1546.056	0	-1e10	8	-1e10	8	-1E+10	1	-1E+10	1	-1E+10	1	-1E+10	1	-1E+10	1	-1E+10	1
4902554	32	C	12/21/2021	13:03	-136.269	49.455	0	1575.40	0	2.2950	0	34.5120	0	27.566	0	1556.094	0	-1e10	8	-1e10	8	-1E+10	1	-1E+10	1	-1E+10	1	-1E+10	1	-1E+10	1	-1E+10	1
4902554	32	C	12/21/2021	13:03	-136.269	49.455	0	1585.70	0	2.2860	0	34.5140	0	27.568	0	1566.229	0	-1e10	8	-1e10	8	-1E+10	1	-1E+10	1	-1E+10	1	-1E+10	1	-1E+10	1	-1E+10	1
4902554	32	C	12/21/2021	13:03	-136.269	49.455	0	1595.50	0	2.2760	0	34.5160	0	27.570	0	1575.872	0	-1e10	8	-1e10	8	-1E+10	1	-1E+10	1	-1E+10	1	-1E+10	1	-1E+10	1	-1E+10	1
4902554	32	C	12/21/2021	13:03	-136.269	49.455	0	1605.50	0	2.2660	0	34.5180	0	27.573	0	1585.712	0	-1e10	8	-1e10	8	-1E+10	1	-1E+10	1	-1E+10	1	-1E+10	1	-1E+10	1	-1E+10	1
4902554	32	C	12/21/2021	13:03	-136.269	49.455	0	1615.60	0	2.2540	0	34.5200	0	27.576	0	1595.650	0	-1e10	8	-1e10	8	-1E+10	1	-1E+10	1	-1E+10	1	-1E+10	1	-1E+10	1	-1E+10	1
4902554	32	C	12/21/2021	13:03	-136.269	49.455	0	1625.60	0	2.2410	0	34.5230	0	27.579	0	1605.488	0	-1e10	8	-1e10	8	-1E+10	1	-1E+10	1	-1E+10	1	-1E+10	1	-1E+10	1	-1E+10	1
4902554	32	C	12/21/2021	13:03	-136.269	49.455	0	1635.30	0	2.2240	0	34.5260	0	27.583	0	1615.031	0	-1e10	8	-1e10	8	-1E+10	1	-1E+10	1	-1E+10	1	-1E+10	1	-1E+10	1	-1E+10	1
4902554	32	C	12/21/2021	13:03	-136.269	49.455	0	1645.10	0	2.2070	0	34.5300	0	27.587	0	1624.672	0	-1e10	8	-1e10	8	-1E+10	1	-1E+10	1	-1E+10	1	-1E+10	1	-1E+10	1	-1E+10	1
4902554	32	C	12/21/2021	13:03	-136.269	49.455	0	1655.50	0	2.1990	0	34.5310	0	27.589	0	1634.903	0	-1e10	8	-1e10	8	-1E+10	1	-1E+10	1	-1E+10	1	-1E+10	1	-1E+10	1	-1E+10	1
4902554	32	C	12/21/2021	13:03	-136.269	49.455	0	1665.50	0	2.1890	0	34.5330	0	27.591	0	1644.740	0	-1e10	8	-1e10	8	-1E+10	1	-1E+10	1	-1E+10	1	-1E+10	1	-1E+10	1	-1E+10	1
4902554	32	C	12/21/2021	13:03	-136.269	49.455	0	1675.20	0	2.1780	0	34.5350	0	27.594	0	1654.281	0	-1e10	8	-1e10	8	-1E+10	1	-1E+10	1	-1E+10	1	-1E+10	1	-1E+10	1	-1E+10	1
4902554	32	C	12/21/2021	13:03	-136.269	49.455	0	1685.10	0	2.1640	0	34.5380	0	27.597	0	1664.018	0	-1e10	8	-1e10	8	-1E+10	1	-1E+10	1	-1E+10	1	-1E+10	1	-1E+10	1	-1E+10	1
4902554	32	C	12/21/2021	13:03	-136.269	49.455	0	1695.10	0	2.1570	0	34.5400	0	27.600	0	1673.854	0	-1e10	8	-1e10	8	-1E+10	1	-1E+10	1	-1E+10	1	-1E+10	1	-1E+10	1	-1E+10	1
4902554	32	C	12/21/2021	13:03	-136.269	49.455	0	1705.10	0	2.1410	0	34.5430	0	27.603	0	1683.689	0	-1e10	8	-1e10	8	-1E+10	1	-1E+10	1	-1E+10	1	-1E+10	1	-1E+10	1	-1E+10	1
4902554	32	C	12/21/2021	13:03	-136.269	49.455	0	1715.30	0	2.1280	0	34.5450	0	27.606	0	1693.720	0	-1e10	8	-1e10	8	-1E+10	1	-1E+10	1	-1E+10	1	-1E+10	1	-1E+10	1	-1E+10	1
4902554	32	C	12/21/2021	13:03	-136.269	49.455	0	1725.30	0	2.1160	0	34.5480	0	27.610	0	1703.554	0	-1e10	8	-1e10	8	-1E+10	1	-1E+10	1	-1E+10	1	-1E+10	1	-1E+10	1	-1E+10	1
4902554	32	C	12/21/2021	13:03	-136.269	49.455	0	1735.40	0	2.1100	0	34.5490	0	27.611	0	1713.486	0	-1e10	8	-1e10	8	-1E+10	1	-1E+10	1	-1E+10	1	-1E+10	1	-1E+10	1	-1E+10	1
4902554	32	C	12/21/2021	13:03	-136.269	49.455	0	1745.50	0	2.0990	0	34.5510	0	27.613	0	1723.418	0	-1e10	8	-1e10	8	-1E+10	1	-1E+10	1	-1E+10	1	-1E+10	1	-1E+10	1	-1E+10	1
4902554	32	C	12/21/2021	13:03	-136.269	49.455	0	1755.30	0	2.0900	0	34.5530	0	27.616	0	1733.054	0	-1e10	8	-1e10	8	-1E+10	1	-1E+10	1	-1E+10	1	-1E+10	1	-1E+10	1	-1E+10	1
4902554	32	C	12/21/2021	13:03	-136.269	49.455	0	1765.40	0	2.0760	0	34.5550	0	27.618	0	1742.984	0	-1e10	8	-1e10	8	-1E+10	1	-1E+10	1	-1E+10	1	-1E+10	1	-1E+10	1	-1E+10	1
4902554	32	C	12/21/2021	13:03	-136.269	49.455	0	1775.50	0	2.0730	0	34.5560	0	27.620	0	1752.914	0	-1e10	8	-1e10	8	-1E+10	1	-1E+10	1	-1E+10	1	-1E+10	1	-1E+10	1	-1E+10	1
4902554	32	C	12/21/2021	13:03	-136.269	49.455	0	1785.30	0	2.0690	0	34.5570	0	27.621	0	1762.549	0	-1e10	8	-1e10	8	-1E+10	1	-1E+10	1	-1E+10	1	-1E+10	1	-1E+10	1	-1E+10	1
4902554	32	C	12/21/2021	13:03	-136.269	49.455	0	1795.20	0	2.0620	0	34.5590	0	27.623	0	1772.282	0	-1e10	8	-1e10	8	-1E+10	1	-1E+10	1	-1E+10	1	-1E+10	1	-1E+10	1	-1E+10	1
4902554	32	C	12/21/2021	13:03	-136.269	49.455	0	1805.60	0	2.0550	0	34.5600	0	27.624	0	1782.505	0	-1e10	8	-1e10	8	-1E+10	1	-1E+10	1	-1E+10	1	-1E+10	1	-1E+10	1	-1E+10	1
4902554	32	C	12/21/2021	13:03	-136.269	49.455	0	1815.60	0	2.0480	0	34.5610	0	27.626	0	1792.335	0	-1e10	8	-1e10	8	-1E+10	1	-1E+10	1	-1E+10	1	-1E+10	1	-1E+10	1	-1E+10	1
4902554	32	C	12/21/2021	13:03	-136.269	49.455	0	1825.30	0	2.0390	0	34.5630	0	27.628	0	1801.870	0	-1e10	8	-1e10	8	-1E+10	1	-1E+10	1	-1E+10	1	-1E+10	1	-1E+10	1	-1E+10	1
4902554	32	C	12/21/2021	13:03	-136.269	49.455	0	1835.30	0	2.0300	0	34.5650	0	27.630	0	1811.699	0	-1e10	8	-1e10	8	-1E+10	1	-1E+10	1	-1E+10	1	-1E+10	1	-1E+10	1	-1E+10	1
4902554	32	C	12/21/2021	13:03	-136.269	49.455	0	1845.50	0	2.0190	0	34.5670	0	27.633	0	1821.724	0	-1e10	8	-1e10	8	-1E+10	1	-1E+10	1	-1E+10	1	-1E+10	1	-1E+10	1	-1E+10	1
4902554	32	C	12/21/2021	13:03	-136.269	49.455	0	1855.80	0	2.0100	0	34.5690	0	27.635	0	1831.847	0	-1e10	8	-1e10	8	-1E+10	1	-1E+10	1	-1E+10	1	-1E+10	1	-1E+10	1	-1E+10	1
4902554	32	C	12/21/2021	13:03	-136.269	49.455	0	1865.50	0	2.0070	0	34.5700	0	27.636	0	1841.380	0	-1e10	8	-1e10	8	-1E+10	1	-1E+10	1	-1E+10	1	-1E+10	1	-1E+10	1	-1E+10	1
4902554	32	C	12/21/2021	13:03	-136.269	49.455	0	1875.50	0	1.9970	0	34.5710	0	27.638	0	1851.207	0	-1e10	8	-1e10	8	-1E+10	1	-1E+10	1	-1E+10	1	-1E+10	1	-1E+10	1	-1E+10	1
4902554	32	C	12/21/2021	13:03	-136.269	49.455	0	1885.10	0	1.9860	0	34.5740	0	27.641	0	1860.641	0	-1e10	8	-1e10	8	-1E+10	1	-1E+10	1	-1E+10	1	-1E+10	1	-1E+10	1	-1E+10	1
4902554	32	C	12/21/2021	13:03	-136.269	49.455	0	1895.10	0	1.9820	0	34.5740	0	27.642	0	1870.467	0	-1e10	8	-1e10	8	-1E+10	1	-1E+10	1	-1E+10	1	-1E+10	1	-1E+10	1	-1E+10	1
4902554	32	C	12/21/2021	13:03	-136.269	49.455	0	1905.20	0	1.9760	0	34.5760	0	27.644	0	1880.391	0	-1e10	8	-1e10	8	-1E+10	1	-1E+10	1	-1E+10	1	-1E+10	1	-1E+10	1	-1E+10	1
4902554	32	C	12/21/2021	13:03	-136.269	49.455	0	1915.60	0	1.9680	0	34.5770	0	27.645	0	1890.609	0	-1e10	8	-1e10	8	-1E+10	1	-1E+10	1	-1E+10	1	-1E+10	1	-1E+10	1	-1E+10	1
4902554	32	C	12/21/2021	13:03	-136.269	49.455	0	1925.60	0	1.9610	0	34.5790	0	27.648	0	1900.434	0	-1e10	8	-1e10	8	-1E+10	1	-1E+10	1	-1E+10	1	-1E+10	1	-1E+10	1	-1E+10	1
4902554	32	C	12/21/2021	13:03	-136.269	49.455	0	1935.30	0	1.9560	0	34.5800	0	27.649	0	1909.964	0	-1e10	8	-1e10	8	-1E+10	1	-1E+10	1	-1E+10	1	-1E+10	1	-1E+10	1	-1E+10	1
4902554	32	C	12/21/2021	13:03	-136.269	49.455	0	1945.30	0	1.9490	0	34.5810	0	27.650	0	1919.788	0	-1e10	8	-1e10	8	-1E+10	1	-1E+10	1	-1E+10	1	-1E+10	1	-1E+10	1	-1E+10	1
4902554	32	C	12/21/2021	13:03	-136.269	49.455	0	1955.50	0	1.9400	0	34.5830	0	27.653	0	1929.808	0	-1e10	8	-1e10	8	-1E+10	1	-1E+10	1	-1E+10	1	-1E+10	1	-1E+10	1	-1E+10	1
4902554	32	C	12/21/2021	13:03	-136.269	49.455	0	1965.40	0	1.9330	0	34.5850	0	27.655	0	1939.533	0	-1e10	8	-1e10	8	-1E+10	1	-1E+10	1	-1E+10	1	-1E+10	1	-1E+10	1	-1E+10	1
4902554	32	C	12/21/2021	13:03	-136.269	49.455	0	1975.40	0	1.9310	0	34.5850	0	27.655	0	1949.356	0	-1e10	8	-1e10	8	-1E+10	1	-1E+10	1	-1E+10	1	-1E+10	1	-1E+10	1	-1E+10	1
4902554	32	C	12/21/2021	13:03	-136.269	49.455	0	1985.70	0	1.9290	0	34.5850	0	27.655	0	1959.473	0	-1e10	8	-1e10	8	-1E+10	1	-1E+10	1	-1E+10	1	-1E+10	1	-1E+10	1	-1E+10	1
4902554	32	C	12/21/2021	13:03	-136.269	49.455	0	1995.60	0	1.9260	0	34.5860	0	27.656	0	1969.196	0	-1e10	8	-1e10	8	-1E+10	1	-1E+10	1	-1E+10	1	-1E+10	1	-1E+10	1	-1E+10	1
4902554	32	C	12/21/2021	13:03	-136.269	49.455	0	2006.00	0	1.9220	0	34.5870	0	27.657	0	1979.410	0	-1e10	8	-1e10	8	-1E+10	1	-1E+10	1	-1E+10	1	-1E+10	1	-1E+10	1	-1E+10	1
4902554	32	C	12/21/2021	13:03	-136.269	49.455	0	2012.20	0	1.9210	0	34.5880	0	27.658	0	1985.499	0	-1e10	8	-1e10	8	-1E+10	1	-1E+10	1	-1E+10	1	-1E+10	1	-1E+10	1	-1E+10	1
4902554	32	C	12/21/2021	13:03	-136.269	49.455	0																										
4902554	33	C	12/31/2021	17:54	-136.271	49.455	0	0.40	0	6.9240	0	32.3620	0	25.352	0	0.397	0	-1e10	8	-1e10	8	-1E+10	1	-1E+10	1	-1E+10	1	-1E+10	1	-1E+10	1	-1E+10	1
4902554	33	C	12/31/2021	17:54	-136.271	49.455	0	1.10	0	6.9250	0	32.3620	0	25.351	0	1.091	0	-1e10	8	-1e10	8	-1E+10	1	-1E+10	1	-1E+10	1	-1E+10	1	-1E+10	1	-1E+10	1
4902554	33	C	12/31/2021	17:54	-136.271	49.455	0	2.00	0	6.9240	0	32.3620	0	25.352	0	1.983	0	-1e10	8	-1e10	8	-1E+10	1	-1E+10	1	-1E+10	1	-1E+10	1	-1E+10	1	-1E+10	1
4902554	33	C	12/31/2021	17:54	-136.271	49.455	0	2.90	0	6.9240	0	32.3620	0	25.352	0	2.875	0	-1e10	8	-1e10	8	-1E+10	1	-1E+10	1	-1E+10	1	-1E+10	1	-1E+10	1	-1E+10	1
4902554	33	C	12/31/2021	17:54	-136.271	49.455	0	3.80	0	6.9240	0	32.3620	0	25.352	0	3.768	0	-1e10	8	-1e10	8	-1E+10	1	-1E+10	1	-1E+10	1	-1E+10	1	-1E+10	1	-1E+10	1
4902554	33	C	12/31/2021	17:54	-136.271	49.455	0	4.80	0	6.9240	0	32.3630	0	25.352	0	4.759	0	-1e10	8	-1e10	8	-1E+10	1	-1E+10	1	-1E+10	1	-1E+10	1	-1E+10	1	-1E+10	1
4902554	33	C	12/31/2021	17:54	-136.271	49.455	0	5.90	0	6.9240	0	32.3630	0	25.352	0	5.850	0	-1e10	8	-1e10	8	-1E+10	1	-1E+10	1	-1E+10	1	-1E+10	1	-1E+10	1	-1E+10	1
4902554	33	C	12/31/2021	17:54	-136.271	49.455	0	7.00	0	6.9240	0	32.3630	0	25.352	0	6.940	0	-1e10	8	-1e10	8	-1E+10	1	-1E+10	1	-1E+10	1	-1E+10	1	-1E+10	1	-1E+10	1
4902554	33	C	12/31/2021	17:54	-136.271	49.455	0	8.30	0	6.9250	0	32.3630	0	25.352	0	8.229	0	-1e10	8	-1e10	8	-1E+10	1	-1E+10	1	-1E+10	1	-1E+10	1	-1E+10	1	-1E+10	1
4902554	33	C	12/31/2021	17:54	-136.271	49.455	0	9.10	0	6.9250	0	32.3630	0	25.352	0	9.022	0	-1e10	8	-1e10	8	-1E+10	1	-1E+10	1	-1E+10	1	-1E+10	1	-1E+10	1	-1E+10	1
4902554	33	C	12/31/2021	17:54	-136.271	49.455	0	10.10	0	6.9250	0	32.3630	0	25.352	0	10.014	0	-1e10	8	-1e10	8	-1E+10	1	-1E+10	1	-1E+10	1	-1E+10	1	-1E+10	1	-1E+10	1
4902554	33	C	12/31/2021	17:54	-136.271	49.455	0	11.20	0	6.9250	0	32.3630	0	25.352	0	11.104	0	-1e10	8	-1e10	8	-1E+10	1	-1E+10	1	-1E+10	1	-1E+10	1	-1E+10	1	-1E+10	1
4902554	33	C	12/31/2021	17:54	-136.271	49.455	0	11.90	0	6.9250	0	32.3630	0	25.352	0	11.798	0	-1e10	8	-1e10	8	-1E+10	1	-1E+10	1	-1E+10	1	-1E+10	1	-1E+10	1	-1E+10	1
4902554	33	C	12/31/2021	17:54	-136.271	49.455	0	13.10	0	6.9250	0	32.3630	0	25.352	0	12.988	0	-1e10	8	-1e10	8	-1E+10	1	-1E+10	1	-1E+10	1	-1E+10	1	-1E+10	1	-1E+10	1
4902554	33	C	12/31/2021	17:54	-136.271	49.455	0	13.90	0	6.9250	0	32.3630	0	25.352	0	13.781	0	-1e10	8	-1e10	8	-1E+10	1	-1E+10	1	-1E+10	1	-1E+10	1	-1E+10	1	-1E+10	1
4902554	33	C	12/31/2021	17:54	-136.271	49.455	0	14.90	0	6.9250	0	32.3630	0	25.352	0	14.772	0	-1e10	8	-1e10	8	-1E+10	1	-1E+10	1	-1E+10	1	-1E+10	1	-1E+10	1	-1E+10	1
4902554	33	C	12/31/2021	17:54	-136.271	49.455	0	16.00	0	6.9250	0	32.3630	0	25.352	0	15.863	0	-1e10	8	-1e10	8	-1E+10	1	-1E+10	1	-1E+10	1	-1E+10	1	-1E+10	1	-1E+10	1
4902554	33	C	12/31/2021	17:54	-136.271	49.455	0	17.20	0	6.9250	0	32.3640	0	25.353	0	17.053	0	-1e10	8	-1e10	8	-1E+10	1	-1E+10	1	-1E+10	1	-1E+10	1	-1E+10	1	-1E+10	1
4902554	33	C	12/31/2021	17:54	-136.271	49.455	0	18.00	0	6.9250	0	32.3630	0	25.352	0	17.846	0	-1e10	8	-1e10	8	-1E+10	1	-1E+10	1	-1E+10	1	-1E+10	1	-1E+10	1	-1E+10	1
4902554	33	C	12/31/2021	17:54	-136.271	49.455	0	19.00	0	6.9250	0	32.3630	0	25.352	0	18.837	0	-1e10	8	-1e10	8	-1E+10	1	-1E+10	1	-1E+10	1	-1E+10	1	-1E+10	1	-1E+10	1
4902554	33	C	12/31/2021	17:54	-136.271	49.455	0	20.20	0	6.9260	0	32.3630	0	25.352	0	20.027	0	-1e10	8	-1e10	8	-1E+10	1	-1E+10	1	-1E+10	1	-1E+10	1	-1E+10	1	-1E+10	1
4902554	33	C	12/31/2021	17:54	-136.271	49.455	0	21.10	0	6.9270	0	32.3640	0	25.353	0	20.919	0	-1e10	8	-1e10	8	-1E+10	1	-1E+10	1	-1E+10	1	-1E+10	1	-1E+10	1	-1E+10	1
4902554	33	C	12/31/2021	17:54	-136.271	49.455	0	21.80	0	6.9260	0	32.3640	0	25.353	0	21.613	0	-1e10	8	-1e10	8	-1E+10	1	-1E+10	1	-1E+10	1	-1E+10	1	-1E+10	1	-1E+10	1
4902554	33	C	12/31/2021	17:54	-136.271	49.455	0	22.90	0	6.9260	0	32.3640	0	25.353	0	22.704	0	-1e10	8	-1e10	8	-1E+10	1	-1E+10	1	-1E+10	1	-1E+10	1	-1E+10	1	-1E+10	1
4902554	33	C	12/31/2021	17:54	-136.271	49.455	0	24.00	0	6.9260	0	32.3640	0	25.353	0	23.794	0	-1e10	8	-1e10	8	-1E+10	1	-1E+10	1	-1E+10	1	-1E+10	1	-1E+10	1	-1E+10	1
4902554	33	C	12/31/2021	17:54	-136.271	49.455	0	25.00	0	6.9260	0	32.3630	0	25.352	0	24.785	0	-1e10	8	-1e10	8	-1E+10	1	-1E+10	1	-1E+10	1	-1E+10	1	-1E+10	1	-1E+10	1
4902554	33	C	12/31/2021	17:54	-136.271	49.455	0	25.90	0	6.9260	0	32.3630	0	25.352	0	25.678	0	-1e10	8	-1e10	8	-1E+10	1	-1E+10	1	-1E+10	1	-1E+10	1	-1E+10	1	-1E+10	1
4902554	33	C	12/31/2021	17:54	-136.271	49.455	0	26.70	0	6.9270	0	32.3640	0	25.353	0	26.471	0	-1e10	8	-1e10	8	-1E+10	1	-1E+10	1	-1E+10	1	-1E+10	1	-1E+10	1	-1E+10	1
4902554	33	C	12/31/2021	17:54	-136.271	49.455	0	27.90	0	6.9270	0	32.3640	0	25.353	0	27.660	0	-1e10	8	-1e10	8	-1E+10	1	-1E+10	1	-1E+10	1	-1E+10	1	-1E+10	1	-1E+10	1
4902554	33	C	12/31/2021	17:54	-136.271	49.455	0	29.00	0	6.9270	0	32.3640	0	25.353	0	28.751	0	-1e10	8	-1e10	8	-1E+10	1	-1E+10	1	-1E+10	1	-1E+10	1	-1E+10	1	-1E+10	1
4902554	33	C	12/31/2021	17:54	-136.271	49.455	0	30.10	0	6.9270	0	32.3640	0	25.353	0	29.841	0	-1e10	8	-1e10	8	-1E+10	1	-1E+10	1	-1E+10	1	-1E+10	1	-1E+10	1	-1E+10	1
4902554	33	C	12/31/2021	17:54	-136.271	49.455	0	31.00	0	6.9270	0	32.3640	0	25.353	0	30.733	0	-1e10	8	-1e10	8	-1E+10	1	-1E+10	1	-1E+10	1	-1E+10	1	-1E+10	1	-1E+10	1
4902554	33	C	12/31/2021	17:54	-136.271	49.455	0	31.80	0	6.9270	0	32.3640	0	25.353	0	31.527	0	-1e10	8	-1e10	8	-1E+10	1	-1E+10	1	-1E+10	1	-1E+10	1	-1E+10	1	-1E+10	1
4902554	33	C	12/31/2021	17:54	-136.271	49.455	0	33.00	0	6.9270	0	32.3640	0	25.353	0	32.716	0	-1e10	8	-1e10	8	-1E+10	1	-1E+10	1	-1E+10	1	-1E+10	1	-1E+10	1	-1E+10	1
4902554	33	C	12/31/2021	17:54	-136.271	49.455	0	34.10	0	6.9270	0	32.3640	0	25.353	0	33.807	0	-1e10	8	-1e10	8	-1E+10	1	-1E+10	1	-1E+10	1	-1E+10	1	-1E+10	1	-1E+10	1
4902554	33	C	12/31/2021	17:54	-136.271	49.455	0	35.00	0	6.9270	0	32.3640	0	25.353	0	34.699	0	-1e10	8	-1e10	8	-1E+10	1	-1E+10	1	-1E+10	1	-1E+10	1	-1E+10	1	-1E+10	1
4902554	33	C	12/31/2021	17:54	-136.271	49.455	0	35.80	0	6.9270	0	32.3640	0	25.353	0	35.492	0	-1e10	8	-1e10	8	-1E+10	1	-1E+10	1	-1E+10	1	-1E+10	1	-1E+10	1	-1E+10	1
4902554	33	C	12/31/2021	17:54	-136.271	49.455	0	36.90	0	6.9280	0	32.3630	0	25.352	0	36.582	0	-1e10	8	-1e10	8	-1E+10	1	-1E+10	1	-1E+10	1	-1E+10	1	-1E+10	1	-1E+10	1
4902554	33	C	12/31/2021	17:54	-136.271	49.455	0	38.10	0	6.9280	0	32.3640	0	25.353	0	37.772	0	-1e10	8	-1e10	8	-1E+10	1	-1E+10	1	-1E+10	1	-1E+10	1	-1E+10	1	-1E+10	1
4902554	33	C	12/31/2021	17:54	-136.271	49.455	0	38.90	0	6.9280	0	32.3640	0	25.353	0	38.565	0	-1e10	8	-1e10	8	-1E+10	1	-1E+10	1	-1E+10	1	-1E+10	1	-1E+10	1	-1E+10	1
4902554	33	C	12/31/2021	17:54	-136.271	49.455	0	39.80	0	6.9280	0	32.3640	0	25.353	0	39.457	0	-1e10	8	-1e10	8	-1E+10	1	-1E+10	1	-1E+10	1	-1E+10	1	-1E+10	1	-1E+10	1
4902554	33	C	12/31/2021	17:54	-136.271	49.455	0	40.90	0	6.9280	0	32.3640	0	25.353	0	40.547	0	-1e10	8	-1e10	8	-1E+10	1	-1E+10	1	-1E+10	1	-1E+10	1	-1E+10	1	-1E+10	1
4902554	33	C	12/31/2021	17:54	-136.271	49.455	0	42.10	0	6.9280	0	32.3640	0	25.353	0	41.737	0	-1e10	8	-1e10	8	-1E+10	1	-1E+10	1	-1E+10	1	-1E+10	1	-1E+10	1	-1E+10	1
4902554	33	C	12/31/2021	17:54	-136.271	49.455	0	43.00	0	6.9280	0	32.3640	0	25.353	0	42.629	0	-1e10	8	-1e10	8	-1E+10	1	-1E+10	1	-1E+10	1	-1E+10	1	-1E+10	1	-1E+10	1
4902554	33	C	12/31/2021	17:54	-136.271	49.455	0	43.90	0	6.9280	0	32.3640	0	25.353	0	43.521	0	-1e10	8	-1e10	8	-1E+10	1	-1E+10	1	-1E+10	1	-1E+10	1	-1E+10	1	-1E+10	1
4902554	33	C	12/31/2021	17:54	-136.271	49.455	0	45.10	0	6.9280	0	32.3640	0	25.353	0	44.711	0	-1e10	8	-1e10	8	-1E+10	1	-1E+10	1	-1E+10	1	-1E+10	1	-1E+10	1	-1E+10	1
4902554	33	C	12/31/2021	17:54	-136.271	49.455	0	46.00	0	6.9280	0	32.3640	0	25.353	0	45.603	0	-1e10	8	-1e10	8	-1E+10	1	-1E+10	1	-1E+10	1	-1E+10	1	-1E+10	1	-1E+10	1
4902554	33	C	12/31/2021	17:54	-136.271	49.455	0	47.00	0	6.9280	0	32.3640	0	25.353	0	46.594	0	-1e10	8	-1e10	8	-1E+10	1	-1E+10	1	-1E+10	1	-1E+10	1	-1E+10	1	-1E+10	1
4902554	33	C	12/31/2021	17:54	-136.271	49.455	0	47.90	0	6.9280	0	32.3640	0	25.353	0	47.486	0	-1e10	8	-1e10	8	-1E+10	1	-1E+10	1	-1E+10	1	-1E+10	1	-1E+10	1	-1E+10	1
4902554	33	C	12/31/2021	17:54	-136.271	49.455	0	48.80	0	6.9280	0	32.3640	0	25.353	0	48.378	0	-1e10	8	-1e10	8	-1E+10	1	-1E+10	1	-1E+10	1	-1E+10	1	-1E+10	1	-1E+10	1
4902554	33	C	12/31/2021	17:54	-136.271	49.455	0	50.00	0	6.9290	0	32.3640	0	25.353	0	49.568	0	-1e10	8	-1e10	8	-1E+10	1	-1E+10	1	-1E+10	1	-1E+10	1	-1E+10	1	-1E+10	1
4902554	33	C	12/31/2021	17:54	-136.271	49.455	0	51.00	0	6.9300	0	32.3640	0	25.353	0	50.559	0	-1e10	8	-1e10	8	-1E+10	1	-1E+10	1	-1E+10	1	-1E+10	1	-1E+10	1	-1E+10	1
4902554	33	C	12/31/2021	17:54	-136.271	49.455	0	52.00	0	6.9290	0	32.3640	0	25.353	0	51.550	0	-1e10	8	-1e10	8	-1E+10	1	-1E+10	1	-1E+10	1	-1E+10	1	-1E+10	1	-1E+10	1
4902554	33	C	12/31/2021	17:54	-136.271	49.455	0	53.00	0	6.9300	0	32.3640	0	25.353	0	52.542	0	-1e10	8	-1e10	8	-1E+10	1	-1E+10	1	-1E+10	1	-1E+10	1	-1E+10	1	-1E+10	1
4902554	33	C	12/31/2021	17:54	-136.271	49.455	0	53.90	0	6.9290	0	32.3640	0	25.353	0	53.434	0	-1e10	8	-1e10	8	-1E+10	1	-1E+10	1	-1E+10	1	-1E+10	1	-1E+10	1	-1E+10	1
4902554	33	C	12/31/2021	17:54	-136.271	49.455	0	55.10	0	6.9290	0	32.3640	0	25.353	0	54.623	0	-1e10	8	-1e10	8	-1E+10	1	-1E+10	1	-1E+10	1	-1E+10	1	-1E+10	1	-1E+10	1
4902554	33	C	12/31/2021	17:54	-136.271	49.455	0	56.00	0	6.9290	0	32.3640	0	25.353	0	55.515	0	-1e10	8	-1e10	8	-1E+10	1	-1E+10	1	-1E+10	1	-1E+10	1	-1E+10	1	-1E+10	1
4902554	33	C	12/31/2021	17:54	-136.271	49.455	0	56.80	0	6.9290	0	32.3640	0	25.353	0	56.308	0	-1e10	8	-1e10	8	-1E+10	1	-1E+10	1	-1E+10	1	-1E+10	1	-1E+10	1	-1E+10	1
4902554	33	C	12/31/2021	17:54	-136.271	49.455	0	58.00	0	6.9300	0	32.3640	0	25.353	0	57.498	0	-1e10	8	-1e10	8	-1E+10	1	-1E+10	1	-1E+10	1	-1E+10	1	-1E+10	1	-1E+10	1
4902554	33	C	12/31/2021	17:54	-136.271	49.455	0	59.10	0	6.9300	0	32.3640	0	25.353	0	58.588	0	-1e10	8	-1e10	8	-1E+10	1	-1E+10	1	-1E+10	1	-1E+10	1	-1E+10	1	-1E+10	1
4902554	33	C	12/31/2021	17:54	-136.271	49.455	0	60.00	0	6.9300	0	32.3640	0	25.353	0	59.480	0	-1e10	8	-1e10	8	-1E+10	1	-1E+10	1	-1E+10	1	-1E+10	1	-1E+10	1	-1E+10	1
4902554	33	C	12/31/2021	17:54	-136.271	49.455	0	60.80	0	6.9300	0	32.3640	0	25.353	0	60.273	0	-1e10	8	-1e10	8	-1E+10	1	-1E+10	1	-1E+10	1	-1E+10	1	-1E+10	1	-1E+10	1
4902554	33	C	12/31/2021	17:54	-136.271	49.455	0	61.90	0	6.9310	0	32.3640	0	25.353	0	61.363	0	-1e10	8	-1e10	8	-1E+10	1	-1E+10	1	-1E+10	1	-1E+10	1	-1E+10	1	-1E+10	1
4902554	33	C	12/31/2021	17:54	-136.271	49.455	0	63.10	0	6.9300	0	32.3640	0	25.353	0	62.553	0	-1e10	8	-1e10	8	-1E+10	1	-1E+10	1	-1E+10	1	-1E+10	1	-1E+10	1	-1E+10	1
4902554	33	C	12/31/2021	17:54	-136.271	49.455	0	64.00	0	6.9300	0	32.3640	0	25.353	0	63.445	0	-1e10	8	-1e10	8	-1E+10	1	-1E+10	1	-1E+10	1	-1E+10	1	-1E+10	1	-1E+10	1
4902554	33	C	12/31/2021	17:54	-136.271	49.455	0	64.80	0	6.9300	0	32.3640	0	25.353	0	64.238	0	-1e10	8	-1e10	8	-1E+10	1	-1E+10	1	-1E+10	1	-1E+10	1	-1E+10	1	-1E+10	1
4902554	33	C	12/31/2021	17:54	-136.271	49.455	0	66.00	0	6.9300	0	32.3640	0	25.353	0	65.427	0	-1e10	8	-1e10	8	-1E+10	1	-1E+10	1	-1E+10	1	-1E+10	1	-1E+10	1	-1E+10	1
4902554	33	C	12/31/2021	17:54	-136.271	49.455	0	67.10	0	6.9300	0	32.3640	0	25.353	0	66.517	0	-1e10	8	-1e10	8	-1E+10	1	-1E+10	1	-1E+10	1	-1E+10	1	-1E+10	1	-1E+10	1
4902554	33	C	12/31/2021	17:54	-136.271	49.455	0	68.00	0	6.9300	0	32.3640	0	25.353	0	67.409	0	-1e10	8	-1e10	8	-1E+10	1	-1E+10	1	-1E+10	1	-1E+10	1	-1E+10	1	-1E+10	1
4902554	33	C	12/31/2021	17:54	-136.271	49.455	0	68.80	0	6.9310	0	32.3640	0	25.353	0	68.202	0	-1e10	8	-1e10	8	-1E+10	1	-1E+10	1	-1E+10	1	-1E+10	1	-1E+10	1	-1E+10	1
4902554	33	C	12/31/2021	17:54	-136.271	49.455	0	69.90	0	6.9300	0	32.3640	0	25.353	0	69.292	0	-1e10	8	-1e10	8	-1E+10	1	-1E+10	1	-1E+10	1	-1E+10	1	-1E+10	1	-1E+10	1
4902554	33	C	12/31/2021	17:54	-136.271	49.455	0	71.00	0	6.9300	0	32.3640	0	25.353	0	70.383	0	-1e10	8	-1e10	8	-1E+10	1	-1E+10	1	-1E+10	1	-1E+10	1	-1E+10	1	-1E+10	1
4902554	33	C	12/31/2021	17:54	-136.271	49.455	0	71.90	0	6.9300	0	32.3640	0	25.353	0	71.275	0	-1e10	8	-1e10	8	-1E+10	1	-1E+10	1	-1E+10	1	-1E+10	1	-1E+10	1	-1E+10	1
4902554	33	C	12/31/2021	17:54	-136.271	49.455	0	72.80	0	6.9300	0	32.3640	0	25.353	0	72.167	0	-1e10	8	-1e10	8	-1E+10	1	-1E+10	1	-1E+10	1	-1E+10	1	-1E+10	1	-1E+10	1
4902554	33	C	12/31/2021	17:54	-136.271	49.455	0	74.00	0	6.9310	0	32.3640	0	25.353	0	73.356	0	-1e10	8	-1e10	8	-1E+10	1	-1E+10	1	-1E+10	1	-1E+10	1	-1E+10	1	-1E+10	1
4902554	33	C	12/31/2021	17:54	-136.271	49.455	0	74.90	0	6.9310	0	32.3640	0	25.353	0	74.248	0	-1e10	8	-1e10	8	-1E+10	1	-1E+10	1	-1E+10	1	-1E+10	1	-1E+10	1	-1E+10	1
4902554	33	C	12/31/2021	17:54	-136.271	49.455	0	75.80	0	6.9310	0	32.3640	0	25.353	0	75.140	0	-1e10	8	-1e10	8	-1E+10	1	-1E+10	1	-1E+10	1	-1E+10	1	-1E+10	1	-1E+10	1
4902554	33	C	12/31/2021	17:54	-136.271	49.455	0	77.00	0	6.9310	0	32.3640	0	25.353	0	76.329	0	-1e10	8	-1e10	8	-1E+10	1	-1E+10	1	-1E+10	1	-1E+10	1	-1E+10	1	-1E+10	1
4902554	33	C	12/31/2021	17:54	-136.271	49.455	0	77.90	0	6.9310	0	32.3640	0	25.353	0	77.221	0	-1e10	8	-1e10	8	-1E+10	1	-1E+10	1	-1E+10	1	-1E+10	1	-1E+10	1	-1E+10	1
4902554	33	C	12/31/2021	17:54	-136.271	49.455	0	78.70	0	6.9310	0	32.3640	0	25.353	0	78.014	0	-1e10	8	-1e10	8	-1E+10	1	-1E+10	1	-1E+10	1	-1E+10	1	-1E+10	1	-1E+10	1
4902554	33	C	12/31/2021	17:54	-136.271	49.455	0	79.90	0	6.9310	0	32.3640	0	25.353	0	79.204	0	-1e10	8	-1e10	8	-1E+10	1	-1E+10	1	-1E+10	1	-1E+10	1	-1E+10	1	-1E+10	1
4902554	33	C	12/31/2021	17:54	-136.271	49.455	0	81.10	0	6.9320	0	32.3640	0	25.353	0	80.393	0	-1e10	8	-1e10	8	-1E+10	1	-1E+10	1	-1E+10	1	-1E+10	1	-1E+10	1	-1E+10	1
4902554	33	C	12/31/2021	17:54	-136.271	49.455	0	81.90	0	6.9330	0	32.3630	0	25.352	0	81.186	0	-1e10	8	-1e10	8	-1E+10	1	-1E+10	1	-1E+10	1	-1E+10	1	-1E+10	1	-1E+10	1
4902554	33	C	12/31/2021	17:54	-136.271	49.455	0	82.90	0	6.9320	0	32.3640	0	25.353	0	82.177	0	-1e10	8	-1e10	8	-1E+10	1	-1E+10	1	-1E+10	1	-1E+10	1	-1E+10	1	-1E+10	1
4902554	33	C	12/31/2021	17:54	-136.271	49.455	0	84.10	0	6.9340	0	32.3650	0	25.354	0	83.366	0	-1e10	8	-1e10	8	-1E+10	1	-1E+10	1	-1E+10	1	-1E+10	1	-1E+10	1	-1E+10	1
4902554	33	C	12/31/2021	17:54	-136.271	49.455	0	85.00	0	6.9330	0	32.3640	0	25.353	0	84.258	0	-1e10	8	-1e10	8	-1E+10	1	-1E+10	1	-1E+10	1	-1E+10	1	-1E+10	1	-1E+10	1
4902554	33	C	12/31/2021	17:54	-136.271	49.455	0	85.90	0	6.9340	0	32.3650	0	25.354	0	85.150	0	-1e10	8	-1e10	8	-1E+10	1	-1E+10	1	-1E+10	1	-1E+10	1	-1E+10	1	-1E+10	1
4902554	33	C	12/31/2021	17:54	-136.271	49.455	0	87.00	0	6.9330	0	32.3650	0	25.354	0	86.240	0	-1e10	8	-1e10	8	-1E+10	1	-1E+10	1	-1E+10	1	-1E+10	1	-1E+10	1	-1E+10	1
4902554	33	C	12/31/2021	17:54	-136.271	49.455	0	87.90	0	6.9340	0	32.3650	0	25.354	0	87.132	0	-1e10	8	-1e10	8	-1E+10	1	-1E+10	1	-1E+10	1	-1E+10	1	-1E+10	1	-1E+10	1
4902554	33	C	12/31/2021	17:54	-136.271	49.455	0	88.70	0	6.9330	0	32.3650	0	25.354	0	87.925	0	-1e10	8	-1e10	8	-1E+10	1	-1E+10	1	-1E+10	1	-1E+10	1	-1E+10	1	-1E+10	1
4902554	33	C	12/31/2021	17:54	-136.271	49.455	0	89.90	0	6.9330	0	32.3650	0	25.354	0	89.114	0	-1e10	8	-1e10	8	-1E+10	1	-1E+10	1	-1E+10	1	-1E+10	1	-1E+10	1	-1E+10	1
4902554	33	C	12/31/2021	17:54	-136.271	49.455	0	91.00	0	6.9320	0	32.3650	0	25.354	0	90.204	0	-1e10	8	-1e10	8	-1E+10	1	-1E+10	1	-1E+10	1	-1E+10	1	-1E+10	1	-1E+10	1
4902554	33	C	12/31/2021	17:54	-136.271	49.455	0	92.00	0	6.9290	0	32.3650	0	25.354	0	91.195	0	-1e10	8	-1e10	8	-1E+10	1	-1E+10	1	-1E+10	1	-1E+10	1	-1E+10	1	-1E+10	1
4902554	33	C	12/31/2021	17:54	-136.271	49.455	0	93.00	0	6.9280	0	32.3650	0	25.354	0	92.187	0	-1e10	8	-1e10	8	-1E+10	1	-1E+10	1	-1E+10	1	-1E+10	1	-1E+10	1	-1E+10	1
4902554	33	C	12/31/2021	17:54	-136.271	49.455	0	93.90	0	6.9150	0	32.3670	0	25.358	0	93.078	0	-1e10	8	-1e10	8	-1E+10	1	-1E+10	1	-1E+10	1	-1E+10	1	-1E+10	1	-1E+10	1
4902554	33	C	12/31/2021	17:54	-136.271	49.455	0	95.10	0	6.7380	0	32.4360	0	25.435	0	94.268	0	-1e10	8	-1e10	8	-1E+10	1	-1E+10	1	-1E+10	1	-1E+10	1	-1E+10	1	-1E+10	1
4902554	33	C	12/31/2021	17:54	-136.271	49.455	0	95.90	0	6.5430	0	32.5210	0	25.527	0	95.060	0	-1e10	8	-1e10	8	-1E+10	1	-1E+10	1	-1E+10	1	-1E+10	1	-1E+10	1	-1E+10	1
4902554	33	C	12/31/2021	17:54	-136.271	49.455	0	96.80	0	6.4620	0	32.5460	0	25.557	0	95.952	0	-1e10	8	-1e10	8	-1E+10	1	-1E+10	1	-1E+10	1	-1E+10	1	-1E+10	1	-1E+10	1
4902554	33	C	12/31/2021	17:54	-136.271	49.455	0	97.90	0	6.3060	0	32.6050	0	25.624	0	97.043	0	-1e10	8	-1e10	8	-1E+10	1	-1E+10	1	-1E+10	1	-1E+10	1	-1E+10	1	-1E+10	1
4902554	33	C	12/31/2021	17:54	-136.271	49.455	0	98.90	0	6.1910	0	32.6510	0	25.674	0	98.034	0	-1e10	8	-1e10	8	-1E+10	1	-1E+10	1	-1E+10	1	-1E+10	1	-1E+10	1	-1E+10	1
4902554	33	C	12/31/2021	17:54	-136.271	49.455	0	100.10	0	6.1550	0	32.6590	0	25.685	0	99.223	0	-1e10	8	-1e10	8	-1E+10	1	-1E+10	1	-1E+10	1	-1E+10	1	-1E+10	1	-1E+10	1
4902554	33	C	12/31/2021	17:54	-136.271	49.455	0	100.70	0	6.0820	0	32.6810	0	25.712	0	99.817	0	-1e10	8	-1e10	8	-1E+10	1	-1E+10	1	-1E+10	1	-1E+10	1	-1E+10	1	-1E+10	1
4902554	33	C	12/31/2021	17:54	-136.271	49.455	0	101.70	0	5.9800	0	32.7620	0	25.788	0	100.808	0	-1e10	8	-1e10	8	-1E+10	1	-1E+10	1	-1E+10	1	-1E+10	1	-1E+10	1	-1E+10	1
4902554	33	C	12/31/2021	17:54	-136.271	49.455	0	102.90	0	5.9540	0	32.8990	0	25.900	0	101.997	0	-1e10	8	-1e10	8	-1E+10	1	-1E+10	1	-1E+10	1	-1E+10	1	-1E+10	1	-1E+10	1
4902554	33	C	12/31/2021	17:54	-136.271	49.455	0	103.80	0	5.9550	0	32.9080	0	25.907	0	102.889	0	-1e10	8	-1e10	8	-1E+10	1	-1E+10	1	-1E+10	1	-1E+10	1	-1E+10	1	-1E+10	1
4902554	33	C	12/31/2021	17:54	-136.271	49.455	0	104.80	0	5.9610	0	32.9360	0	25.928	0	103.880	0	-1e10	8	-1e10	8	-1E+10	1	-1E+10	1	-1E+10	1	-1E+10	1	-1E+10	1	-1E+10	1
4902554	33	C	12/31/2021	17:54	-136.271	49.455	0	106.00	0	5.9690	0	32.9630	0	25.948	0	105.070	0	-1e10	8	-1e10	8	-1E+10	1	-1E+10	1	-1E+10	1	-1E+10	1	-1E+10	1	-1E+10	1
4902554	33	C	12/31/2021	17:54	-136.271	49.455	0	107.00	0	5.9780	0	32.9900	0	25.968	0	106.060	0	-1e10	8	-1e10	8	-1E+10	1	-1E+10	1	-1E+10	1	-1E+10	1	-1E+10	1	-1E+10	1
4902554	33	C	12/31/2021	17:54	-136.271	49.455	0	107.90	0	5.9900	0	33.0290	0	25.998	0	106.952	0	-1e10	8	-1e10	8	-1E+10	1	-1E+10	1	-1E+10	1	-1E+10	1	-1E+10	1	-1E+10	1
4902554	33	C	12/31/2021	17:54	-136.271	49.455	0	108.90	0	6.0010	0	33.0640	0	26.024	0	107.943	0	-1e10	8	-1e10	8	-1E+10	1	-1E+10	1	-1E+10	1	-1E+10	1	-1E+10	1	-1E+10	1
4902554	33	C	12/31/2021	17:54	-136.271	49.455	0	109.90	0	6.0100	0	33.1000	0	26.051	0	108.934	0	-1e10	8	-1e10	8	-1E+10	1	-1E+10	1	-1E+10	1	-1E+10	1	-1E+10	1	-1E+10	1
4902554	33	C	12/31/2021	17:54	-136.271	49.455	0	111.00	0	6.0240	0	33.1470	0	26.087	0	110.024	0	-1e10	8	-1e10	8	-1E+10	1	-1E+10	1	-1E+10	1	-1E+10	1	-1E+10	1	-1E+10	1
4902554	33	C	12/31/2021	17:54	-136.271	49.455	0	111.70	0	6.0280	0	33.1670	0	26.102	0	110.718	0	-1e10	8	-1e10	8	-1E+10	1	-1E+10	1	-1E+10	1	-1E+10	1	-1E+10	1	-1E+10	1
4902554	33	C	12/31/2021	17:54	-136.271	49.455	0	112.90	0	6.0300	0	33.1960	0	26.125	0	111.907	0	-1e10	8	-1e10	8	-1E+10	1	-1E+10	1	-1E+10	1	-1E+10	1	-1E+10	1	-1E+10	1
4902554	33	C	12/31/2021	17:54	-136.271	49.455	0	114.10	0	6.0350	0	33.2230	0	26.146	0	113.096	0	-1e10	8	-1e10	8	-1E+10	1	-1E+10	1	-1E+10	1	-1E+10	1	-1E+10	1	-1E+10	1
4902554	33	C	12/31/2021	17:54	-136.271	49.455	0	115.00	0	6.0350	0	33.2250	0	26.147	0	113.988	0	-1e10	8	-1e10	8	-1E+10	1	-1E+10	1	-1E+10	1	-1E+10	1	-1E+10	1	-1E+10	1
4902554	33	C	12/31/2021	17:54	-136.271	49.455	0	115.80	0	6.0360	0	33.2320	0	26.153	0	114.781	0	-1e10	8	-1e10	8	-1E+10	1	-1E+10	1	-1E+10	1	-1E+10	1	-1E+10	1	-1E+10	1
4902554	33	C	12/31/2021	17:54	-136.271	49.455	0	116.60	0	6.0370	0	33.2370	0	26.156	0	115.573	0	-1e10	8	-1e10	8	-1E+10	1	-1E+10	1	-1E+10	1	-1E+10	1	-1E+10	1	-1E+10	1
4902554	33	C	12/31/2021	17:54	-136.271	49.455	0	117.90	0	6.0390	0	33.2510	0	26.167	0	116.862	0	-1e10	8	-1e10	8	-1E+10	1	-1E+10	1	-1E+10	1	-1E+10	1	-1E+10	1	-1E+10	1
4902554	33	C	12/31/2021	17:54	-136.271	49.455	0	119.20	0	6.0420	0	33.2660	0	26.179	0	118.150	0	-1e10	8	-1e10	8	-1E+10	1	-1E+10	1	-1E+10	1	-1E+10	1	-1E+10	1	-1E+10	1
4902554	33	C	12/31/2021	17:54	-136.271	49.455	0	120.10	0	6.0430	0	33.2720	0	26.183	0	119.042	0	-1e10	8	-1e10	8	-1E+10	1	-1E+10	1	-1E+10	1	-1E+10	1	-1E+10	1	-1E+10	1
4902554	33	C	12/31/2021	17:54	-136.271	49.455	0	120.90	0	6.0450	0	33.2820	0	26.191	0	119.834	0	-1e10	8	-1e10	8	-1E+10	1	-1E+10	1	-1E+10	1	-1E+10	1	-1E+10	1	-1E+10	1
4902554	33	C	12/31/2021	17:54	-136.271	49.455	0	121.80	0	6.0470	0	33.3020	0	26.207	0	120.726	0	-1e10	8	-1e10	8	-1E+10	1	-1E+10	1	-1E+10	1	-1E+10	1	-1E+10	1	-1E+10	1
4902554	33	C	12/31/2021	17:54	-136.271	49.455	0	122.70	0	6.0490	0	33.3150	0	26.217	0	121.618	0	-1e10	8	-1e10	8	-1E+10	1	-1E+10	1	-1E+10	1	-1E+10	1	-1E+10	1	-1E+10	1
4902554	33	C	12/31/2021	17:54	-136.271	49.455	0	123.70	0	6.0490	0	33.3270	0	26.226	0	122.609	0	-1e10	8	-1e10	8	-1E+10	1	-1E+10	1	-1E+10	1	-1E+10	1	-1E+10	1	-1E+10	1
4902554	33	C	12/31/2021	17:54	-136.271	49.455	0	124.60	0	6.0490	0	33.3420	0	26.238	0	123.501	0	-1e10	8	-1e10	8	-1E+10	1	-1E+10	1	-1E+10	1	-1E+10	1	-1E+10	1	-1E+10	1
4902554	33	C	12/31/2021	17:54	-136.271	49.455	0	125.90	0	6.0490	0	33.3500	0	26.244	0	124.789	0	-1e10	8	-1e10	8	-1E+10	1	-1E+10	1	-1E+10	1	-1E+10	1	-1E+10	1	-1E+10	1
4902554	33	C	12/31/2021	17:54	-136.271	49.455	0	127.40	0	6.0490	0	33.3610	0	26.253	0	126.275	0	-1e10	8	-1e10	8	-1E+10	1	-1E+10	1	-1E+10	1	-1E+10	1	-1E+10	1	-1E+10	1
4902554	33	C	12/31/2021	17:54	-136.271	49.455	0	128.30	0	6.0490	0	33.3670	0	26.258	0	127.167	0	-1e10	8	-1e10	8	-1E+10	1	-1E+10	1	-1E+10	1	-1E+10	1	-1E+10	1	-1E+10	1
4902554	33	C	12/31/2021	17:54	-136.271	49.455	0	129.20	0	6.0490	0	33.3710	0	26.261	0	128.059	0	-1e10	8	-1e10	8	-1E+10	1	-1E+10	1	-1E+10	1	-1E+10	1	-1E+10	1	-1E+10	1
4902554	33	C	12/31/2021	17:54	-136.271	49.455	0	130.10	0	6.0470	0	33.3880	0	26.275	0	128.950	0	-1e10	8	-1e10	8	-1E+10	1	-1E+10	1	-1E+10	1	-1E+10	1	-1E+10	1	-1E+10	1
4902554	33	C	12/31/2021	17:54	-136.271	49.455	0	130.90	0	6.0460	0	33.4140	0	26.295	0	129.743	0	-1e10	8	-1e10	8	-1E+10	1	-1E+10	1	-1E+10	1	-1E+10	1	-1E+10	1	-1E+10	1
4902554	33	C	12/31/2021	17:54	-136.271	49.455	0	131.80	0	6.0440	0	33.4240	0	26.303	0	130.635	0	-1e10	8	-1e10	8	-1E+10	1	-1E+10	1	-1E+10	1	-1E+10	1	-1E+10	1	-1E+10	1
4902554	33	C	12/31/2021	17:54	-136.271	49.455	0	132.70	0	6.0440	0	33.4290	0	26.307	0	131.527	0	-1e10	8	-1e10	8	-1E+10	1	-1E+10	1	-1E+10	1	-1E+10	1	-1E+10	1	-1E+10	1
4902554	33	C	12/31/2021	17:54	-136.271	49.455	0	133.70	0	6.0390	0	33.4490	0	26.324	0	132.517	0	-1e10	8	-1e10	8	-1E+10	1	-1E+10	1	-1E+10	1	-1E+10	1	-1E+10	1	-1E+10	1
4902554	33	C	12/31/2021	17:54	-136.271	49.455	0	134.60	0	6.0310	0	33.4810	0	26.350	0	133.409	0	-1e10	8	-1e10	8	-1E+10	1	-1E+10	1	-1E+10	1	-1E+10	1	-1E+10	1	-1E+10	1
4902554	33	C	12/31/2021	17:54	-136.271	49.455	0	135.60	0	6.0260	0	33.4990	0	26.365	0	134.400	0	-1e10	8	-1e10	8	-1E+10	1	-1E+10	1	-1E+10	1	-1E+10	1	-1E+10	1	-1E+10	1
4902554	33	C	12/31/2021	17:54	-136.271	49.455	0	136.60	0	6.0130	0	33.5430	0	26.401	0	135.391	0	-1e10	8	-1e10	8	-1E+10	1	-1E+10	1	-1E+10	1	-1E+10	1	-1E+10	1	-1E+10	1
4902554	33	C	12/31/2021	17:54	-136.271	49.455	0	137.70	0	6.0040	0	33.5600	0	26.416	0	136.481	0	-1e10	8	-1e10	8	-1E+10	1	-1E+10	1	-1E+10	1	-1E+10	1	-1E+10	1	-1E+10	1
4902554	33	C	12/31/2021	17:54	-136.271	49.455	0	138.70	0	5.9830	0	33.5810	0	26.435	0	137.472	0	-1e10	8	-1e10	8	-1E+10	1	-1E+10	1	-1E+10	1	-1E+10	1	-1E+10	1	-1E+10	1
4902554	33	C	12/31/2021	17:54	-136.271	49.455	0	139.70	0	5.9730	0	33.5930	0	26.446	0	138.462	0	-1e10	8	-1e10	8	-1E+10	1	-1E+10	1	-1E+10	1	-1E+10	1	-1E+10	1	-1E+10	1
4902554	33	C	12/31/2021	17:54	-136.271	49.455	0	140.80	0	5.9700	0	33.5970	0	26.449	0	139.552	0	-1e10	8	-1e10	8	-1E+10	1	-1E+10	1	-1E+10	1	-1E+10	1	-1E+10	1	-1E+10	1
4902554	33	C	12/31/2021	17:54	-136.271	49.455	0	141.80	0	5.9640	0	33.6040	0	26.456	0	140.543	0	-1e10	8	-1e10	8	-1E+10	1	-1E+10	1	-1E+10	1	-1E+10	1	-1E+10	1	-1E+10	1
4902554	33	C	12/31/2021	17:54	-136.271	49.455	0	142.80	0	5.9490	0	33.6190	0	26.469	0	141.534	0	-1e10	8	-1e10	8	-1E+10	1	-1E+10	1	-1E+10	1	-1E+10	1	-1E+10	1	-1E+10	1
4902554	33	C	12/31/2021	17:54	-136.271	49.455	0	143.90	0	5.9360	0	33.6310	0	26.481	0	142.624	0	-1e10	8	-1e10	8	-1E+10	1	-1E+10	1	-1E+10	1	-1E+10	1	-1E+10	1	-1E+10	1
4902554	33	C	12/31/2021	17:54	-136.271	49.455	0	144.90	0	5.9240	0	33.6400	0	26.489	0	143.615	0	-1e10	8	-1e10	8	-1E+10	1	-1E+10	1	-1E+10	1	-1E+10	1	-1E+10	1	-1E+10	1
4902554	33	C	12/31/2021	17:54	-136.271	49.455	0	145.90	0	5.9170	0	33.6450	0	26.494	0	144.605	0	-1e10	8	-1e10	8	-1E+10	1	-1E+10	1	-1E+10	1	-1E+10	1	-1E+10	1	-1E+10	1
4902554	33	C	12/31/2021	17:54	-136.271	49.455	0	147.00	0	5.9040	0	33.6550	0	26.503	0	145.695	0	-1e10	8	-1e10	8	-1E+10	1	-1E+10	1	-1E+10	1	-1E+10	1	-1E+10	1	-1E+10	1
4902554	33	C	12/31/2021	17:54	-136.271	49.455	0	148.10	0	5.8840	0	33.6700	0	26.518	0	146.785	0	-1e10	8	-1e10	8	-1E+10	1	-1E+10	1	-1E+10	1	-1E+10	1	-1E+10	1	-1E+10	1
4902554	33	C	12/31/2021	17:54	-136.271	49.455	0	149.10	0	5.8700	0	33.6800	0	26.527	0	147.776	0	-1e10	8	-1e10	8	-1E+10	1	-1E+10	1	-1E+10	1	-1E+10	1	-1E+10	1	-1E+10	1
4902554	33	C	12/31/2021	17:54	-136.271	49.455	0	150.20	0	5.8440	0	33.6930	0	26.541	0	148.866	0	-1e10	8	-1e10	8	-1E+10	1	-1E+10	1	-1E+10	1	-1E+10	1	-1E+10	1	-1E+10	1
4902554	33	C	12/31/2021	17:54	-136.271	49.455	0	151.30	0	5.8220	0	33.7030	0	26.552	0	149.955	0	-1e10	8	-1e10	8	-1E+10	1	-1E+10	1	-1E+10	1	-1E+10	1	-1E+10	1	-1E+10	1
4902554	33	C	12/31/2021	17:54	-136.271	49.455	0	152.30	0	5.8180	0	33.7050	0	26.554	0	150.946	0	-1e10	8	-1e10	8	-1E+10	1	-1E+10	1	-1E+10	1	-1E+10	1	-1E+10	1	-1E+10	1
4902554	33	C	12/31/2021	17:54	-136.271	49.455	0	153.40	0	5.7960	0	33.7170	0	26.566	0	152.036	0	-1e10	8	-1e10	8	-1E+10	1	-1E+10	1	-1E+10	1	-1E+10	1	-1E+10	1	-1E+10	1
4902554	33	C	12/31/2021	17:54	-136.271	49.455	0	154.50	0	5.7830	0	33.7200	0	26.570	0	153.126	0	-1e10	8	-1e10	8	-1E+10	1	-1E+10	1	-1E+10	1	-1E+10	1	-1E+10	1	-1E+10	1
4902554	33	C	12/31/2021	17:54	-136.271	49.455	0	155.50	0	5.7790	0	33.7210	0	26.571	0	154.117	0	-1e10	8	-1e10	8	-1E+10	1	-1E+10	1	-1E+10	1	-1E+10	1	-1E+10	1	-1E+10	1
4902554	33	C	12/31/2021	17:54	-136.271	49.455	0	156.50	0	5.7740	0	33.7230	0	26.573	0	155.107	0	-1e10	8	-1e10	8	-1E+10	1	-1E+10	1	-1E+10	1	-1E+10	1	-1E+10	1	-1E+10	1
4902554	33	C	12/31/2021	17:54	-136.271	49.455	0	157.90	0	5.7660	0	33.7250	0	26.576	0	156.494	0	-1e10	8	-1e10	8	-1E+10	1	-1E+10	1	-1E+10	1	-1E+10	1	-1E+10	1	-1E+10	1
4902554	33	C	12/31/2021	17:54	-136.271	49.455	0	159.10	0	5.7630	0	33.7270	0	26.578	0	157.683	0	-1e10	8	-1e10	8	-1E+10	1	-1E+10	1	-1E+10	1	-1E+10	1	-1E+10	1	-1E+10	1
4902554	33	C	12/31/2021	17:54	-136.271	49.455	0	159.90	0	5.7500	0	33.7310	0	26.583	0	158.476	0	-1e10	8	-1e10	8	-1E+10	1	-1E+10	1	-1E+10	1	-1E+10	1	-1E+10	1	-1E+10	1
4902554	33	C	12/31/2021	17:54	-136.271	49.455	0	160.80	0	5.7420	0	33.7350	0	26.587	0	159.367	0	-1e10	8	-1e10	8	-1E+10	1	-1E+10	1	-1E+10	1	-1E+10	1	-1E+10	1	-1E+10	1
4902554	33	C	12/31/2021	17:54	-136.271	49.455	0	162.00	0	5.7290	0	33.7390	0	26.591	0	160.556	0	-1e10	8	-1e10	8	-1E+10	1	-1E+10	1	-1E+10	1	-1E+10	1	-1E+10	1	-1E+10	1
4902554	33	C	12/31/2021	17:54	-136.271	49.455	0	163.20	0	5.7140	0	33.7400	0	26.594	0	161.745	0	-1e10	8	-1e10	8	-1E+10	1	-1E+10	1	-1E+10	1	-1E+10	1	-1E+10	1	-1E+10	1
4902554	33	C	12/31/2021	17:54	-136.271	49.455	0	164.00	0	5.6960	0	33.7400	0	26.596	0	162.538	0	-1e10	8	-1e10	8	-1E+10	1	-1E+10	1	-1E+10	1	-1E+10	1	-1E+10	1	-1E+10	1
4902554	33	C	12/31/2021	17:54	-136.271	49.455	0	164.80	0	5.6640	0	33.7430	0	26.603	0	163.330	0	-1e10	8	-1e10	8	-1E+10	1	-1E+10	1	-1E+10	1	-1E+10	1	-1E+10	1	-1E+10	1
4902554	33	C	12/31/2021	17:54	-136.271	49.455	0	165.70	0	5.6610	0	33.7450	0	26.605	0	164.222	0	-1e10	8	-1e10	8	-1E+10	1	-1E+10	1	-1E+10	1	-1E+10	1	-1E+10	1	-1E+10	1
4902554	33	C	12/31/2021	17:54	-136.271	49.455	0	166.90	0	5.6300	0	33.7520	0	26.614	0	165.411	0	-1e10	8	-1e10	8	-1E+10	1	-1E+10	1	-1E+10	1	-1E+10	1	-1E+10	1	-1E+10	1
4902554	33	C	12/31/2021	17:54	-136.271	49.455	0	168.20	0	5.6030	0	33.7540	0	26.619	0	166.698	0	-1e10	8	-1e10	8	-1E+10	1	-1E+10	1	-1E+10	1	-1E+10	1	-1E+10	1	-1E+10	1
4902554	33	C	12/31/2021	17:54	-136.271	49.455	0	169.10	0	5.5950	0	33.7550	0	26.620	0	167.590	0	-1e10	8	-1e10	8	-1E+10	1	-1E+10	1	-1E+10	1	-1E+10	1	-1E+10	1	-1E+10	1
4902554	33	C	12/31/2021	17:54	-136.271	49.455	0	169.90	0	5.5870	0	33.7560	0	26.622	0	168.383	0	-1e10	8	-1e10	8	-1E+10	1	-1E+10	1	-1E+10	1	-1E+10	1	-1E+10	1	-1E+10	1
4902554	33	C	12/31/2021	17:54	-136.271	49.455	0	170.70	0	5.5810	0	33.7550	0	26.622	0	169.175	0	-1e10	8	-1e10	8	-1E+10	1	-1E+10	1	-1E+10	1	-1E+10	1	-1E+10	1	-1E+10	1
4902554	33	C	12/31/2021	17:54	-136.271	49.455	0	171.60	0	5.5610	0	33.7580	0	26.627	0	170.067	0	-1e10	8	-1e10	8	-1E+10	1	-1E+10	1	-1E+10	1	-1E+10	1	-1E+10	1	-1E+10	1
4902554	33	C	12/31/2021	17:54	-136.271	49.455	0	172.90	0	5.5350	0	33.7610	0	26.632	0	171.355	0	-1e10	8	-1e10	8	-1E+10	1	-1E+10	1	-1E+10	1	-1E+10	1	-1E+10	1	-1E+10	1
4902554	33	C	12/31/2021	17:54	-136.271	49.455	0	174.20	0	5.5230	0	33.7610	0	26.634	0	172.642	0	-1e10	8	-1e10	8	-1E+10	1	-1E+10	1	-1E+10	1	-1E+10	1	-1E+10	1	-1E+10	1
4902554	33	C	12/31/2021	17:54	-136.271	49.455	0	175.10	0	5.5160	0	33.7620	0	26.635	0	173.534	0	-1e10	8	-1e10	8	-1E+10	1	-1E+10	1	-1E+10	1	-1E+10	1	-1E+10	1	-1E+10	1
4902554	33	C	12/31/2021	17:54	-136.271	49.455	0	175.90	0	5.5050	0	33.7620	0	26.637	0	174.326	0	-1e10	8	-1e10	8	-1E+10	1	-1E+10	1	-1E+10	1	-1E+10	1	-1E+10	1	-1E+10	1
4902554	33	C	12/31/2021	17:54	-136.271	49.455	0	176.80	0	5.4970	0	33.7630	0	26.639	0	175.218	0	-1e10	8	-1e10	8	-1E+10	1	-1E+10	1	-1E+10	1	-1E+10	1	-1E+10	1	-1E+10	1
4902554	33	C	12/31/2021	17:54	-136.271	49.455	0	177.70	0	5.4790	0	33.7670	0	26.644	0	176.110	0	-1e10	8	-1e10	8	-1E+10	1	-1E+10	1	-1E+10	1	-1E+10	1	-1E+10	1	-1E+10	1
4902554	33	C	12/31/2021	17:54	-136.271	49.455	0	179.00	0	5.4700	0	33.7730	0	26.650	0	177.397	0	-1e10	8	-1e10	8	-1E+10	1	-1E+10	1	-1E+10	1	-1E+10	1	-1E+10	1	-1E+10	1
4902554	33	C	12/31/2021	17:54	-136.271	49.455	0	180.30	0	5.4680	0	33.7730	0	26.650	0	178.685	0	-1e10	8	-1e10	8	-1E+10	1	-1E+10	1	-1E+10	1	-1E+10	1	-1E+10	1	-1E+10	1
4902554	33	C	12/31/2021	17:54	-136.271	49.455	0	181.20	0	5.4380	0	33.7790	0	26.658	0	179.577	0	-1e10	8	-1e10	8	-1E+10	1	-1E+10	1	-1E+10	1	-1E+10	1	-1E+10	1	-1E+10	1
4902554	33	C	12/31/2021	17:54	-136.271	49.455	0	182.10	0	5.4310	0	33.7770	0	26.657	0	180.468	0	-1e10	8	-1e10	8	-1E+10	1	-1E+10	1	-1E+10	1	-1E+10	1	-1E+10	1	-1E+10	1
4902554	33	C	12/31/2021	17:54	-136.271	49.455	0	183.00	0	5.4090	0	33.7750	0	26.659	0	181.360	0	-1e10	8	-1e10	8	-1E+10	1	-1E+10	1	-1E+10	1	-1E+10	1	-1E+10	1	-1E+10	1
4902554	33	C	12/31/2021	17:54	-136.271	49.455	0	183.80	0	5.4070	0	33.7750	0	26.659	0	182.152	0	-1e10	8	-1e10	8	-1E+10	1	-1E+10	1	-1E+10	1	-1E+10	1	-1E+10	1	-1E+10	1
4902554	33	C	12/31/2021	17:54	-136.271	49.455	0	184.70	0	5.3920	0	33.7770	0	26.662	0	183.044	0	-1e10	8	-1e10	8	-1E+10	1	-1E+10	1	-1E+10	1	-1E+10	1	-1E+10	1	-1E+10	1
4902554	33	C	12/31/2021	17:54	-136.271	49.455	0	185.60	0	5.3850	0	33.7770	0	26.663	0	183.935	0	-1e10	8	-1e10	8	-1E+10	1	-1E+10	1	-1E+10	1	-1E+10	1	-1E+10	1	-1E+10	1
4902554	33	C	12/31/2021	17:54	-136.271	49.455	0	186.90	0	5.3730	0	33.7800	0	26.667	0	185.223	0	-1e10	8	-1e10	8	-1E+10	1	-1E+10	1	-1E+10	1	-1E+10	1	-1E+10	1	-1E+10	1
4902554	33	C	12/31/2021	17:54	-136.271	49.455	0	188.20	0	5.3510	0	33.7830	0	26.672	0	186.511	0	-1e10	8	-1e10	8	-1E+10	1	-1E+10	1	-1E+10	1	-1E+10	1	-1E+10	1	-1E+10	1
4902554	33	C	12/31/2021	17:54	-136.271	49.455	0	189.10	0	5.3460	0	33.7830	0	26.672	0	187.402	0	-1e10	8	-1e10	8	-1E+10	1	-1E+10	1	-1E+10	1	-1E+10	1	-1E+10	1	-1E+10	1
4902554	33	C	12/31/2021	17:54	-136.271	49.455	0	190.00	0	5.3430	0	33.7830	0	26.673	0	188.294	0	-1e10	8	-1e10	8	-1E+10	1	-1E+10	1	-1E+10	1	-1E+10	1	-1E+10	1	-1E+10	1
4902554	33	C	12/31/2021	17:54	-136.271	49.455	0	190.80	0	5.3390	0	33.7830	0	26.673	0	189.086	0	-1e10	8	-1e10	8	-1E+10	1	-1E+10	1	-1E+10	1	-1E+10	1	-1E+10	1	-1E+10	1
4902554	33	C	12/31/2021	17:54	-136.271	49.455	0	191.70	0	5.3280	0	33.7850	0	26.676	0	189.978	0	-1e10	8	-1e10	8	-1E+10	1	-1E+10	1	-1E+10	1	-1E+10	1	-1E+10	1	-1E+10	1
4902554	33	C	12/31/2021	17:54	-136.271	49.455	0	192.60	0	5.3230	0	33.7850	0	26.677	0	190.869	0	-1e10	8	-1e10	8	-1E+10	1	-1E+10	1	-1E+10	1	-1E+10	1	-1E+10	1	-1E+10	1
4902554	33	C	12/31/2021	17:54	-136.271	49.455	0	193.90	0	5.3120	0	33.7870	0	26.680	0	192.157	0	-1e10	8	-1e10	8	-1E+10	1	-1E+10	1	-1E+10	1	-1E+10	1	-1E+10	1	-1E+10	1
4902554	33	C	12/31/2021	17:54	-136.271	49.455	0	195.30	0	5.2970	0	33.7870	0	26.681	0	193.544	0	-1e10	8	-1e10	8	-1E+10	1	-1E+10	1	-1E+10	1	-1E+10	1	-1E+10	1	-1E+10	1
4902554	33	C	12/31/2021	17:54	-136.271	49.455	0	196.20	0	5.2800	0	33.7900	0	26.686	0	194.435	0	-1e10	8	-1e10	8	-1E+10	1	-1E+10	1	-1E+10	1	-1E+10	1	-1E+10	1	-1E+10	1
4902554	33	C	12/31/2021	17:54	-136.271	49.455	0	197.10	0	5.2750	0	33.7920	0	26.688	0	195.327	0	-1e10	8	-1e10	8	-1E+10	1	-1E+10	1	-1E+10	1	-1E+10	1	-1E+10	1	-1E+10	1
4902554	33	C	12/31/2021	17:54	-136.271	49.455	0	198.00	0	5.2730	0	33.7910	0	26.687	0	196.218	0	-1e10	8	-1e10	8	-1E+10	1	-1E+10	1	-1E+10	1	-1E+10	1	-1E+10	1	-1E+10	1
4902554	33	C	12/31/2021	17:54	-136.271	49.455	0	198.90	0	5.2700	0	33.7910	0	26.688	0	197.110	0	-1e10	8	-1e10	8	-1E+10	1	-1E+10	1	-1E+10	1	-1E+10	1	-1E+10	1	-1E+10	1
4902554	33	C	12/31/2021	17:54	-136.271	49.455	0	199.80	0	5.2570	0	33.7930	0	26.691	0	198.001	0	-1e10	8	-1e10	8	-1E+10	1	-1E+10	1	-1E+10	1	-1E+10	1	-1E+10	1	-1E+10	1
4902554	33	C	12/31/2021	17:54	-136.271	49.455	0	200.70	0	5.2510	0	33.7930	0	26.691	0	198.893	0	-1e10	8	-1e10	8	-1E+10	1	-1E+10	1	-1E+10	1	-1E+10	1	-1E+10	1	-1E+10	1
4902554	33	C	12/31/2021	17:54	-136.271	49.455	0	201.50	0	5.2370	0	33.7950	0	26.695	0	199.685	0	-1e10	8	-1e10	8	-1E+10	1	-1E+10	1	-1E+10	1	-1E+10	1	-1E+10	1	-1E+10	1
4902554	33	C	12/31/2021	17:54	-136.271	49.455	0	202.90	0	5.2270	0	33.7960	0	26.697	0	201.072	0	-1e10	8	-1e10	8	-1E+10	1	-1E+10	1	-1E+10	1	-1E+10	1	-1E+10	1	-1E+10	1
4902554	33	C	12/31/2021	17:54	-136.271	49.455	0	204.30	0	5.2260	0	33.7980	0	26.698	0	202.458	0	-1e10	8	-1e10	8	-1E+10	1	-1E+10	1	-1E+10	1	-1E+10	1	-1E+10	1	-1E+10	1
4902554	33	C	12/31/2021	17:54	-136.271	49.455	0	205.20	0	5.2260	0	33.7990	0	26.699	0	203.350	0	-1e10	8	-1e10	8	-1E+10	1	-1E+10	1	-1E+10	1	-1E+10	1	-1E+10	1	-1E+10	1
4902554	33	C	12/31/2021	17:54	-136.271	49.455	0	206.00	0	5.2250	0	33.8000	0	26.700	0	204.142	0	-1e10	8	-1e10	8	-1E+10	1	-1E+10	1	-1E+10	1	-1E+10	1	-1E+10	1	-1E+10	1
4902554	33	C	12/31/2021	17:54	-136.271	49.455	0	206.90	0	5.2180	0	33.8000	0	26.701	0	205.034	0	-1e10	8	-1e10	8	-1E+10	1	-1E+10	1	-1E+10	1	-1E+10	1	-1E+10	1	-1E+10	1
4902554	33	C	12/31/2021	17:54	-136.271	49.455	0	207.80	0	5.2140	0	33.8000	0	26.701	0	205.925	0	-1e10	8	-1e10	8	-1E+10	1	-1E+10	1	-1E+10	1	-1E+10	1	-1E+10	1	-1E+10	1
4902554	33	C	12/31/2021	17:54	-136.271	49.455	0	208.70	0	5.1960	0	33.8020	0	26.705	0	206.817	0	-1e10	8	-1e10	8	-1E+10	1	-1E+10	1	-1E+10	1	-1E+10	1	-1E+10	1	-1E+10	1
4902554	33	C	12/31/2021	17:54	-136.271	49.455	0	210.00	0	5.1780	0	33.8020	0	26.707	0	208.104	0	-1e10	8	-1e10	8	-1E+10	1	-1E+10	1	-1E+10	1	-1E+10	1	-1E+10	1	-1E+10	1
4902554	33	C	12/31/2021	17:54	-136.271	49.455	0	211.30	0	5.1690	0	33.8050	0	26.711	0	209.392	0	-1e10	8	-1e10	8	-1E+10	1	-1E+10	1	-1E+10	1	-1E+10	1	-1E+10	1	-1E+10	1
4902554	33	C	12/31/2021	17:54	-136.271	49.455	0	212.20	0	5.1630	0	33.8070	0	26.713	0	210.283	0	-1e10	8	-1e10	8	-1E+10	1	-1E+10	1	-1E+10	1	-1E+10	1	-1E+10	1	-1E+10	1
4902554	33	C	12/31/2021	17:54	-136.271	49.455	0	213.10	0	5.1580	0	33.8060	0	26.713	0	211.175	0	-1e10	8	-1e10	8	-1E+10	1	-1E+10	1	-1E+10	1	-1E+10	1	-1E+10	1	-1E+10	1
4902554	33	C	12/31/2021	17:54	-136.271	49.455	0	214.00	0	5.1430	0	33.8080	0	26.716	0	212.066	0	-1e10	8	-1e10	8	-1E+10	1	-1E+10	1	-1E+10	1	-1E+10	1	-1E+10	1	-1E+10	1
4902554	33	C	12/31/2021	17:54	-136.271	49.455	0	214.90	0	5.1360	0	33.8080	0	26.717	0	212.957	0	-1e10	8	-1e10	8	-1E+10	1	-1E+10	1	-1E+10	1	-1E+10	1	-1E+10	1	-1E+10	1
4902554	33	C	12/31/2021	17:54	-136.271	49.455	0	215.80	0	5.1330	0	33.8070	0	26.716	0	213.849	0	-1e10	8	-1e10	8	-1E+10	1	-1E+10	1	-1E+10	1	-1E+10	1	-1E+10	1	-1E+10	1
4902554	33	C	12/31/2021	17:54	-136.271	49.455	0	216.70	0	5.1140	0	33.8080	0	26.719	0	214.740	0	-1e10	8	-1e10	8	-1E+10	1	-1E+10	1	-1E+10	1	-1E+10	1	-1E+10	1	-1E+10	1
4902554	33	C	12/31/2021	17:54	-136.271	49.455	0	217.60	0	5.0720	0	33.8130	0	26.728	0	215.632	0	-1e10	8	-1e10	8	-1E+10	1	-1E+10	1	-1E+10	1	-1E+10	1	-1E+10	1	-1E+10	1
4902554	33	C	12/31/2021	17:54	-136.271	49.455	0	218.90	0	5.0540	0	33.8140	0	26.731	0	216.919	0	-1e10	8	-1e10	8	-1E+10	1	-1E+10	1	-1E+10	1	-1E+10	1	-1E+10	1	-1E+10	1
4902554	33	C	12/31/2021	17:54	-136.271	49.455	0	220.20	0	5.0440	0	33.8150	0	26.733	0	218.207	0	-1e10	8	-1e10	8	-1E+10	1	-1E+10	1	-1E+10	1	-1E+10	1	-1E+10	1	-1E+10	1
4902554	33	C	12/31/2021	17:54	-136.271	49.455	0	221.10	0	5.0370	0	33.8160	0	26.734	0	219.098	0	-1e10	8	-1e10	8	-1E+10	1	-1E+10	1	-1E+10	1	-1E+10	1	-1E+10	1	-1E+10	1
4902554	33	C	12/31/2021	17:54	-136.271	49.455	0	222.00	0	5.0200	0	33.8180	0	26.738	0	219.990	0	-1e10	8	-1e10	8	-1E+10	1	-1E+10	1	-1E+10	1	-1E+10	1	-1E+10	1	-1E+10	1
4902554	33	C	12/31/2021	17:54	-136.271	49.455	0	222.90	0	5.0030	0	33.8200	0	26.741	0	220.881	0	-1e10	8	-1e10	8	-1E+10	1	-1E+10	1	-1E+10	1	-1E+10	1	-1E+10	1	-1E+10	1
4902554	33	C	12/31/2021	17:54	-136.271	49.455	0	223.80	0	4.9980	0	33.8200	0	26.742	0	221.772	0	-1e10	8	-1e10	8	-1E+10	1	-1E+10	1	-1E+10	1	-1E+10	1	-1E+10	1	-1E+10	1
4902554	33	C	12/31/2021	17:54	-136.271	49.455	0	224.70	0	4.9910	0	33.8230	0	26.745	0	222.664	0	-1e10	8	-1e10	8	-1E+10	1	-1E+10	1	-1E+10	1	-1E+10	1	-1E+10	1	-1E+10	1
4902554	33	C	12/31/2021	17:54	-136.271	49.455	0	225.70	0	4.9900	0	33.8240	0	26.746	0	223.654	0	-1e10	8	-1e10	8	-1E+10	1	-1E+10	1	-1E+10	1	-1E+10	1	-1E+10	1	-1E+10	1
4902554	33	C	12/31/2021	17:54	-136.271	49.455	0	226.60	0	4.9900	0	33.8240	0	26.746	0	224.545	0	-1e10	8	-1e10	8	-1E+10	1	-1E+10	1	-1E+10	1	-1E+10	1	-1E+10	1	-1E+10	1
4902554	33	C	12/31/2021	17:54	-136.271	49.455	0	227.90	0	4.9860	0	33.8240	0	26.747	0	225.833	0	-1e10	8	-1e10	8	-1E+10	1	-1E+10	1	-1E+10	1	-1E+10	1	-1E+10	1	-1E+10	1
4902554	33	C	12/31/2021	17:54	-136.271	49.455	0	229.30	0	4.9800	0	33.8260	0	26.749	0	227.219	0	-1e10	8	-1e10	8	-1E+10	1	-1E+10	1	-1E+10	1	-1E+10	1	-1E+10	1	-1E+10	1
4902554	33	C	12/31/2021	17:54	-136.271	49.455	0	230.20	0	4.9680	0	33.8290	0	26.753	0	228.111	0	-1e10	8	-1e10	8	-1E+10	1	-1E+10	1	-1E+10	1	-1E+10	1	-1E+10	1	-1E+10	1
4902554	33	C	12/31/2021	17:54	-136.271	49.455	0	231.10	0	4.9580	0	33.8290	0	26.754	0	229.002	0	-1e10	8	-1e10	8	-1E+10	1	-1E+10	1	-1E+10	1	-1E+10	1	-1E+10	1	-1E+10	1
4902554	33	C	12/31/2021	17:54	-136.271	49.455	0	232.00	0	4.9500	0	33.8320	0	26.757	0	229.893	0	-1e10	8	-1e10	8	-1E+10	1	-1E+10	1	-1E+10	1	-1E+10	1	-1E+10	1	-1E+10	1
4902554	33	C	12/31/2021	17:54	-136.271	49.455	0	232.90	0	4.9490	0	33.8350	0	26.760	0	230.785	0	-1e10	8	-1e10	8	-1E+10	1	-1E+10	1	-1E+10	1	-1E+10	1	-1E+10	1	-1E+10	1
4902554	33	C	12/31/2021	17:54	-136.271	49.455	0	233.80	0	4.9420	0	33.8370	0	26.762	0	231.676	0	-1e10	8	-1e10	8	-1E+10	1	-1E+10	1	-1E+10	1	-1E+10	1	-1E+10	1	-1E+10	1
4902554	33	C	12/31/2021	17:54	-136.271	49.455	0	234.70	0	4.9420	0	33.8390	0	26.764	0	232.567	0	-1e10	8	-1e10	8	-1E+10	1	-1E+10	1	-1E+10	1	-1E+10	1	-1E+10	1	-1E+10	1
4902554	33	C	12/31/2021	17:54	-136.271	49.455	0	235.70	0	4.9380	0	33.8390	0	26.764	0	233.558	0	-1e10	8	-1e10	8	-1E+10	1	-1E+10	1	-1E+10	1	-1E+10	1	-1E+10	1	-1E+10	1
4902554	33	C	12/31/2021	17:54	-136.271	49.455	0	236.60	0	4.9370	0	33.8390	0	26.764	0	234.449	0	-1e10	8	-1e10	8	-1E+10	1	-1E+10	1	-1E+10	1	-1E+10	1	-1E+10	1	-1E+10	1
4902554	33	C	12/31/2021	17:54	-136.271	49.455	0	237.90	0	4.9340	0	33.8410	0	26.766	0	235.736	0	-1e10	8	-1e10	8	-1E+10	1	-1E+10	1	-1E+10	1	-1E+10	1	-1E+10	1	-1E+10	1
4902554	33	C	12/31/2021	17:54	-136.271	49.455	0	239.40	0	4.9300	0	33.8430	0	26.768	0	237.222	0	-1e10	8	-1e10	8	-1E+10	1	-1E+10	1	-1E+10	1	-1E+10	1	-1E+10	1	-1E+10	1
4902554	33	C	12/31/2021	17:54	-136.271	49.455	0	240.30	0	4.9290	0	33.8430	0	26.768	0	238.113	0	-1e10	8	-1e10	8	-1E+10	1	-1E+10	1	-1E+10	1	-1E+10	1	-1E+10	1	-1E+10	1
4902554	33	C	12/31/2021	17:54	-136.271	49.455	0	241.20	0	4.9270	0	33.8440	0	26.769	0	239.005	0	-1e10	8	-1e10	8	-1E+10	1	-1E+10	1	-1E+10	1	-1E+10	1	-1E+10	1	-1E+10	1
4902554	33	C	12/31/2021	17:54	-136.271	49.455	0	242.20	0	4.9210	0	33.8460	0	26.772	0	239.995	0	-1e10	8	-1e10	8	-1E+10	1	-1E+10	1	-1E+10	1	-1E+10	1	-1E+10	1	-1E+10	1
4902554	33	C	12/31/2021	17:54	-136.271	49.455	0	243.10	0	4.9160	0	33.8460	0	26.772	0	240.886	0	-1e10	8	-1e10	8	-1E+10	1	-1E+10	1	-1E+10	1	-1E+10	1	-1E+10	1	-1E+10	1
4902554	33	C	12/31/2021	17:54	-136.271	49.455	0	244.10	0	4.9100	0	33.8480	0	26.774	0	241.876	0	-1e10	8	-1e10	8	-1E+10	1	-1E+10	1	-1E+10	1	-1E+10	1	-1E+10	1	-1E+10	1
4902554	33	C	12/31/2021	17:54	-136.271	49.455	0	245.00	0	4.8870	0	33.8530	0	26.781	0	242.768	0	-1e10	8	-1e10	8	-1E+10	1	-1E+10	1	-1E+10	1	-1E+10	1	-1E+10	1	-1E+10	1
4902554	33	C	12/31/2021	17:54	-136.271	49.455	0	246.00	0	4.8670	0	33.8510	0	26.782	0	243.758	0	-1e10	8	-1e10	8	-1E+10	1	-1E+10	1	-1E+10	1	-1E+10	1	-1E+10	1	-1E+10	1
4902554	33	C	12/31/2021	17:54	-136.271	49.455	0	247.00	0	4.8650	0	33.8500	0	26.781	0	244.748	0	-1e10	8	-1e10	8	-1E+10	1	-1E+10	1	-1E+10	1	-1E+10	1	-1E+10	1	-1E+10	1
4902554	33	C	12/31/2021	17:54	-136.271	49.455	0	248.00	0	4.8560	0	33.8520	0	26.784	0	245.739	0	-1e10	8	-1e10	8	-1E+10	1	-1E+10	1	-1E+10	1	-1E+10	1	-1E+10	1	-1E+10	1
4902554	33	C	12/31/2021	17:54	-136.271	49.455	0	249.00	0	4.8550	0	33.8520	0	26.784	0	246.729	0	-1e10	8	-1e10	8	-1E+10	1	-1E+10	1	-1E+10	1	-1E+10	1	-1E+10	1	-1E+10	1
4902554	33	C	12/31/2021	17:54	-136.271	49.455	0	250.00	0	4.8530	0	33.8530	0	26.785	0	247.719	0	-1e10	8	-1e10	8	-1E+10	1	-1E+10	1	-1E+10	1	-1E+10	1	-1E+10	1	-1E+10	1
4902554	33	C	12/31/2021	17:54	-136.271	49.455	0	251.00	0	4.8330	0	33.8550	0	26.789	0	248.709	0	-1e10	8	-1e10	8	-1E+10	1	-1E+10	1	-1E+10	1	-1E+10	1	-1E+10	1	-1E+10	1
4902554	33	C	12/31/2021	17:54	-136.271	49.455	0	251.90	0	4.8300	0	33.8560	0	26.790	0	249.601	0	-1e10	8	-1e10	8	-1E+10	1	-1E+10	1	-1E+10	1	-1E+10	1	-1E+10	1	-1E+10	1
4902554	33	C	12/31/2021	17:54	-136.271	49.455	0	252.90	0	4.8260	0	33.8560	0	26.790	0	250.591	0	-1e10	8	-1e10	8	-1E+10	1	-1E+10	1	-1E+10	1	-1E+10	1	-1E+10	1	-1E+10	1
4902554	33	C	12/31/2021	17:54	-136.271	49.455	0	253.90	0	4.8160	0	33.8590	0	26.794	0	251.581	0	-1e10	8	-1e10	8	-1E+10	1	-1E+10	1	-1E+10	1	-1E+10	1	-1E+10	1	-1E+10	1
4902554	33	C	12/31/2021	17:54	-136.271	49.455	0	254.90	0	4.7980	0	33.8600	0	26.796	0	252.571	0	-1e10	8	-1e10	8	-1E+10	1	-1E+10	1	-1E+10	1	-1E+10	1	-1E+10	1	-1E+10	1
4902554	33	C	12/31/2021	17:54	-136.271	49.455	0	255.90	0	4.7950	0	33.8610	0	26.798	0	253.562	0	-1e10	8	-1e10	8	-1E+10	1	-1E+10	1	-1E+10	1	-1E+10	1	-1E+10	1	-1E+10	1
4902554	33	C	12/31/2021	17:54	-136.271	49.455	0	257.00	0	4.7930	0	33.8620	0	26.799	0	254.651	0	-1e10	8	-1e10	8	-1E+10	1	-1E+10	1	-1E+10	1	-1E+10	1	-1E+10	1	-1E+10	1
4902554	33	C	12/31/2021	17:54	-136.271	49.455	0	258.00	0	4.7900	0	33.8620	0	26.799	0	255.641	0	-1e10	8	-1e10	8	-1E+10	1	-1E+10	1	-1E+10	1	-1E+10	1	-1E+10	1	-1E+10	1
4902554	33	C	12/31/2021	17:54	-136.271	49.455	0	259.00	0	4.7840	0	33.8640	0	26.801	0	256.631	0	-1e10	8	-1e10	8	-1E+10	1	-1E+10	1	-1E+10	1	-1E+10	1	-1E+10	1	-1E+10	1
4902554	33	C	12/31/2021	17:54	-136.271	49.455	0	260.00	0	4.7690	0	33.8660	0	26.804	0	257.622	0	-1e10	8	-1e10	8	-1E+10	1	-1E+10	1	-1E+10	1	-1E+10	1	-1E+10	1	-1E+10	1
4902554	33	C	12/31/2021	17:54	-136.271	49.455	0	261.00	0	4.7670	0	33.8670	0	26.805	0	258.612	0	-1e10	8	-1e10	8	-1E+10	1	-1E+10	1	-1E+10	1	-1E+10	1	-1E+10	1	-1E+10	1
4902554	33	C	12/31/2021	17:54	-136.271	49.455	0	262.10	0	4.7670	0	33.8670	0	26.806	0	259.701	0	-1e10	8	-1e10	8	-1E+10	1	-1E+10	1	-1E+10	1	-1E+10	1	-1E+10	1	-1E+10	1
4902554	33	C	12/31/2021	17:54	-136.271	49.455	0	263.10	0	4.7690	0	33.8680	0	26.806	0	260.691	0	-1e10	8	-1e10	8	-1E+10	1	-1E+10	1	-1E+10	1	-1E+10	1	-1E+10	1	-1E+10	1
4902554	33	C	12/31/2021	17:54	-136.271	49.455	0	264.10	0	4.7700	0	33.8680	0	26.806	0	261.682	0	-1e10	8	-1e10	8	-1E+10	1	-1E+10	1	-1E+10	1	-1E+10	1	-1E+10	1	-1E+10	1
4902554	33	C	12/31/2021	17:54	-136.271	49.455	0	265.10	0	4.7680	0	33.8690	0	26.807	0	262.672	0	-1e10	8	-1e10	8	-1E+10	1	-1E+10	1	-1E+10	1	-1E+10	1	-1E+10	1	-1E+10	1
4902554	33	C	12/31/2021	17:54	-136.271	49.455	0	266.20	0	4.7680	0	33.8690	0	26.807	0	263.761	0	-1e10	8	-1e10	8	-1E+10	1	-1E+10	1	-1E+10	1	-1E+10	1	-1E+10	1	-1E+10	1
4902554	33	C	12/31/2021	17:54	-136.271	49.455	0	267.20	0	4.7600	0	33.8720	0	26.810	0	264.751	0	-1e10	8	-1e10	8	-1E+10	1	-1E+10	1	-1E+10	1	-1E+10	1	-1E+10	1	-1E+10	1
4902554	33	C	12/31/2021	17:54	-136.271	49.455	0	268.20	0	4.7570	0	33.8730	0	26.811	0	265.741	0	-1e10	8	-1e10	8	-1E+10	1	-1E+10	1	-1E+10	1	-1E+10	1	-1E+10	1	-1E+10	1
4902554	33	C	12/31/2021	17:54	-136.271	49.455	0	269.30	0	4.7550	0	33.8740	0	26.812	0	266.831	0	-1e10	8	-1e10	8	-1E+10	1	-1E+10	1	-1E+10	1	-1E+10	1	-1E+10	1	-1E+10	1
4902554	33	C	12/31/2021	17:54	-136.271	49.455	0	270.40	0	4.7530	0	33.8750	0	26.813	0	267.920	0	-1e10	8	-1e10	8	-1E+10	1	-1E+10	1	-1E+10	1	-1E+10	1	-1E+10	1	-1E+10	1
4902554	33	C	12/31/2021	17:54	-136.271	49.455	0	271.40	0	4.7470	0	33.8760	0	26.815	0	268.910	0	-1e10	8	-1e10	8	-1E+10	1	-1E+10	1	-1E+10	1	-1E+10	1	-1E+10	1	-1E+10	1
4902554	33	C	12/31/2021	17:54	-136.271	49.455	0	272.50	0	4.7440	0	33.8760	0	26.815	0	269.999	0	-1e10	8	-1e10	8	-1E+10	1	-1E+10	1	-1E+10	1	-1E+10	1	-1E+10	1	-1E+10	1
4902554	33	C	12/31/2021	17:54	-136.271	49.455	0	273.60	0	4.7310	0	33.8790	0	26.819	0	271.088	0	-1e10	8	-1e10	8	-1E+10	1	-1E+10	1	-1E+10	1	-1E+10	1	-1E+10	1	-1E+10	1
4902554	33	C	12/31/2021	17:54	-136.271	49.455	0	274.60	0	4.7290	0	33.8790	0	26.819	0	272.079	0	-1e10	8	-1e10	8	-1E+10	1	-1E+10	1	-1E+10	1	-1E+10	1	-1E+10	1	-1E+10	1
4902554	33	C	12/31/2021	17:54	-136.271	49.455	0	275.70	0	4.7230	0	33.8810	0	26.822	0	273.168	0	-1e10	8	-1e10	8	-1E+10	1	-1E+10	1	-1E+10	1	-1E+10	1	-1E+10	1	-1E+10	1
4902554	33	C	12/31/2021	17:54	-136.271	49.455	0	276.70	0	4.7210	0	33.8800	0	26.821	0	274.158	0	-1e10	8	-1e10	8	-1E+10	1	-1E+10	1	-1E+10	1	-1E+10	1	-1E+10	1	-1E+10	1
4902554	33	C	12/31/2021	17:54	-136.271	49.455	0	277.80	0	4.7160	0	33.8820	0	26.823	0	275.247	0	-1e10	8	-1e10	8	-1E+10	1	-1E+10	1	-1E+10	1	-1E+10	1	-1E+10	1	-1E+10	1
4902554	33	C	12/31/2021	17:54	-136.271	49.455	0	278.90	0	4.7150	0	33.8820	0	26.823	0	276.336	0	-1e10	8	-1e10	8	-1E+10	1	-1E+10	1	-1E+10	1	-1E+10	1	-1E+10	1	-1E+10	1
4902554	33	C	12/31/2021	17:54	-136.271	49.455	0	279.90	0	4.7120	0	33.8830	0	26.824	0	277.326	0	-1e10	8	-1e10	8	-1E+10	1	-1E+10	1	-1E+10	1	-1E+10	1	-1E+10	1	-1E+10	1
4902554	33	C	12/31/2021	17:54	-136.271	49.455	0	281.00	0	4.7080	0	33.8840	0	26.826	0	278.416	0	-1e10	8	-1e10	8	-1E+10	1	-1E+10	1	-1E+10	1	-1E+10	1	-1E+10	1	-1E+10	1
4902554	33	C	12/31/2021	17:54	-136.271	49.455	0	282.10	0	4.7050	0	33.8850	0	26.827	0	279.505	0	-1e10	8	-1e10	8	-1E+10	1	-1E+10	1	-1E+10	1	-1E+10	1	-1E+10	1	-1E+10	1
4902554	33	C	12/31/2021	17:54	-136.271	49.455	0	283.10	0	4.7020	0	33.8860	0	26.828	0	280.495	0	-1e10	8	-1e10	8	-1E+10	1	-1E+10	1	-1E+10	1	-1E+10	1	-1E+10	1	-1E+10	1
4902554	33	C	12/31/2021	17:54	-136.271	49.455	0	284.20	0	4.6940	0	33.8880	0	26.830	0	281.584	0	-1e10	8	-1e10	8	-1E+10	1	-1E+10	1	-1E+10	1	-1E+10	1	-1E+10	1	-1E+10	1
4902554	33	C	12/31/2021	17:54	-136.271	49.455	0	285.30	0	4.6890	0	33.8880	0	26.831	0	282.673	0	-1e10	8	-1e10	8	-1E+10	1	-1E+10	1	-1E+10	1	-1E+10	1	-1E+10	1	-1E+10	1
4902554	33	C	12/31/2021	17:54	-136.271	49.455	0	286.40	0	4.6850	0	33.8890	0	26.832	0	283.762	0	-1e10	8	-1e10	8	-1E+10	1	-1E+10	1	-1E+10	1	-1E+10	1	-1E+10	1	-1E+10	1
4902554	33	C	12/31/2021	17:54	-136.271	49.455	0	287.50	0	4.6780	0	33.8880	0	26.832	0	284.851	0	-1e10	8	-1e10	8	-1E+10	1	-1E+10	1	-1E+10	1	-1E+10	1	-1E+10	1	-1E+10	1
4902554	33	C	12/31/2021	17:54	-136.271	49.455	0	288.50	0	4.6750	0	33.8890	0	26.833	0	285.841	0	-1e10	8	-1e10	8	-1E+10	1	-1E+10	1	-1E+10	1	-1E+10	1	-1E+10	1	-1E+10	1
4902554	33	C	12/31/2021	17:54	-136.271	49.455	0	289.60	0	4.6740	0	33.8890	0	26.833	0	286.930	0	-1e10	8	-1e10	8	-1E+10	1	-1E+10	1	-1E+10	1	-1E+10	1	-1E+10	1	-1E+10	1
4902554	33	C	12/31/2021	17:54	-136.271	49.455	0	290.50	0	4.6730	0	33.8900	0	26.834	0	287.822	0	-1e10	8	-1e10	8	-1E+10	1	-1E+10	1	-1E+10	1	-1E+10	1	-1E+10	1	-1E+10	1
4902554	33	C	12/31/2021	17:54	-136.271	49.455	0	291.90	0	4.6460	0	33.8900	0	26.837	0	289.208	0	-1e10	8	-1e10	8	-1E+10	1	-1E+10	1	-1E+10	1	-1E+10	1	-1E+10	1	-1E+10	1
4902554	33	C	12/31/2021	17:54	-136.271	49.455	0	293.20	0	4.6330	0	33.8930	0	26.841	0	290.495	0	-1e10	8	-1e10	8	-1E+10	1	-1E+10	1	-1E+10	1	-1E+10	1	-1E+10	1	-1E+10	1
4902554	33	C	12/31/2021	17:54	-136.271	49.455	0	294.00	0	4.6300	0	33.8940	0	26.842	0	291.287	0	-1e10	8	-1e10	8	-1E+10	1	-1E+10	1	-1E+10	1	-1E+10	1	-1E+10	1	-1E+10	1
4902554	33	C	12/31/2021	17:54	-136.271	49.455	0	294.80	0	4.6300	0	33.8950	0	26.843	0	292.079	0	-1e10	8	-1e10	8	-1E+10	1	-1E+10	1	-1E+10	1	-1E+10	1	-1E+10	1	-1E+10	1
4902554	33	C	12/31/2021	17:54	-136.271	49.455	0	296.00	0	4.6250	0	33.8960	0	26.844	0	293.267	0	-1e10	8	-1e10	8	-1E+10	1	-1E+10	1	-1E+10	1	-1E+10	1	-1E+10	1	-1E+10	1
4902554	33	C	12/31/2021	17:54	-136.271	49.455	0	297.20	0	4.6180	0	33.8970	0	26.846	0	294.455	0	-1e10	8	-1e10	8	-1E+10	1	-1E+10	1	-1E+10	1	-1E+10	1	-1E+10	1	-1E+10	1
4902554	33	C	12/31/2021	17:54	-136.271	49.455	0	298.00	0	4.6160	0	33.8970	0	26.846	0	295.247	0	-1e10	8	-1e10	8	-1E+10	1	-1E+10	1	-1E+10	1	-1E+10	1	-1E+10	1	-1E+10	1
4902554	33	C	12/31/2021	17:54	-136.271	49.455	0	298.90	0	4.6120	0	33.8990	0	26.848	0	296.138	0	-1e10	8	-1e10	8	-1E+10	1	-1E+10	1	-1E+10	1	-1E+10	1	-1E+10	1	-1E+10	1
4902554	33	C	12/31/2021	17:54	-136.271	49.455	0	299.70	0	4.6080	0	33.9010	0	26.850	0	296.930	0	-1e10	8	-1e10	8	-1E+10	1	-1E+10	1	-1E+10	1	-1E+10	1	-1E+10	1	-1E+10	1
4902554	33	C	12/31/2021	17:54	-136.271	49.455	0	300.90	0	4.6050	0	33.9020	0	26.851	0	298.118	0	-1e10	8	-1e10	8	-1E+10	1	-1E+10	1	-1E+10	1	-1E+10	1	-1E+10	1	-1E+10	1
4902554	33	C	12/31/2021	17:54	-136.271	49.455	0	302.20	0	4.5910	0	33.9060	0	26.856	0	299.405	0	-1e10	8	-1e10	8	-1E+10	1	-1E+10	1	-1E+10	1	-1E+10	1	-1E+10	1	-1E+10	1
4902554	33	C	12/31/2021	17:54	-136.271	49.455	0	303.00	0	4.5800	0	33.9090	0	26.860	0	300.197	0	-1e10	8	-1e10	8	-1E+10	1	-1E+10	1	-1E+10	1	-1E+10	1	-1E+10	1	-1E+10	1
4902554	33	C	12/31/2021	17:54	-136.271	49.455	0	303.80	0	4.5780	0	33.9090	0	26.860	0	300.989	0	-1e10	8	-1e10	8	-1E+10	1	-1E+10	1	-1E+10	1	-1E+10	1	-1E+10	1	-1E+10	1
4902554	33	C	12/31/2021	17:54	-136.271	49.455	0	305.00	0	4.5750	0	33.9120	0	26.863	0	302.177	0	-1e10	8	-1e10	8	-1E+10	1	-1E+10	1	-1E+10	1	-1E+10	1	-1E+10	1	-1E+10	1
4902554	33	C	12/31/2021	17:54	-136.271	49.455	0	306.20	0	4.5740	0	33.9140	0	26.864	0	303.365	0	-1e10	8	-1e10	8	-1E+10	1	-1E+10	1	-1E+10	1	-1E+10	1	-1E+10	1	-1E+10	1
4902554	33	C	12/31/2021	17:54	-136.271	49.455	0	307.00	0	4.5740	0	33.9140	0	26.864	0	304.157	0	-1e10	8	-1e10	8	-1E+10	1	-1E+10	1	-1E+10	1	-1E+10	1	-1E+10	1	-1E+10	1
4902554	33	C	12/31/2021	17:54	-136.271	49.455	0	307.80	0	4.5730	0	33.9150	0	26.865	0	304.949	0	-1e10	8	-1e10	8	-1E+10	1	-1E+10	1	-1E+10	1	-1E+10	1	-1E+10	1	-1E+10	1
4902554	33	C	12/31/2021	17:54	-136.271	49.455	0	309.00	0	4.5710	0	33.9170	0	26.867	0	306.137	0	-1e10	8	-1e10	8	-1E+10	1	-1E+10	1	-1E+10	1	-1E+10	1	-1E+10	1	-1E+10	1
4902554	33	C	12/31/2021	17:54	-136.271	49.455	0	310.30	0	4.5720	0	33.9180	0	26.868	0	307.424	0	-1e10	8	-1e10	8	-1E+10	1	-1E+10	1	-1E+10	1	-1E+10	1	-1E+10	1	-1E+10	1
4902554	33	C	12/31/2021	17:54	-136.271	49.455	0	311.10	0	4.5710	0	33.9180	0	26.868	0	308.216	0	-1e10	8	-1e10	8	-1E+10	1	-1E+10	1	-1E+10	1	-1E+10	1	-1E+10	1	-1E+10	1
4902554	33	C	12/31/2021	17:54	-136.271	49.455	0	311.90	0	4.5690	0	33.9200	0	26.870	0	309.008	0	-1e10	8	-1e10	8	-1E+10	1	-1E+10	1	-1E+10	1	-1E+10	1	-1E+10	1	-1E+10	1
4902554	33	C	12/31/2021	17:54	-136.271	49.455	0	312.70	0	4.5670	0	33.9210	0	26.871	0	309.800	0	-1e10	8	-1e10	8	-1E+10	1	-1E+10	1	-1E+10	1	-1E+10	1	-1E+10	1	-1E+10	1
4902554	33	C	12/31/2021	17:54	-136.271	49.455	0	313.90	0	4.5650	0	33.9210	0	26.871	0	310.988	0	-1e10	8	-1e10	8	-1E+10	1	-1E+10	1	-1E+10	1	-1E+10	1	-1E+10	1	-1E+10	1
4902554	33	C	12/31/2021	17:54	-136.271	49.455	0	315.10	0	4.5610	0	33.9230	0	26.873	0	312.176	0	-1e10	8	-1e10	8	-1E+10	1	-1E+10	1	-1E+10	1	-1E+10	1	-1E+10	1	-1E+10	1
4902554	33	C	12/31/2021	17:54	-136.271	49.455	0	316.00	0	4.5570	0	33.9240	0	26.874	0	313.067	0	-1e10	8	-1e10	8	-1E+10	1	-1E+10	1	-1E+10	1	-1E+10	1	-1E+10	1	-1E+10	1
4902554	33	C	12/31/2021	17:54	-136.271	49.455	0	316.80	0	4.5510	0	33.9250	0	26.876	0	313.859	0	-1e10	8	-1e10	8	-1E+10	1	-1E+10	1	-1E+10	1	-1E+10	1	-1E+10	1	-1E+10	1
4902554	33	C	12/31/2021	17:54	-136.271	49.455	0	318.00	0	4.5460	0	33.9270	0	26.878	0	315.047	0	-1e10	8	-1e10	8	-1E+10	1	-1E+10	1	-1E+10	1	-1E+10	1	-1E+10	1	-1E+10	1
4902554	33	C	12/31/2021	17:54	-136.271	49.455	0	319.20	0	4.5410	0	33.9290	0	26.880	0	316.235	0	-1e10	8	-1e10	8	-1E+10	1	-1E+10	1	-1E+10	1	-1E+10	1	-1E+10	1	-1E+10	1
4902554	33	C	12/31/2021	17:54	-136.271	49.455	0	320.10	0	4.5390	0	33.9290	0	26.880	0	317.126	0	-1e10	8	-1e10	8	-1E+10	1	-1E+10	1	-1E+10	1	-1E+10	1	-1E+10	1	-1E+10	1
4902554	33	C	12/31/2021	17:54	-136.271	49.455	0	320.90	0	4.5340	0	33.9310	0	26.882	0	317.918	0	-1e10	8	-1e10	8	-1E+10	1	-1E+10	1	-1E+10	1	-1E+10	1	-1E+10	1	-1E+10	1
4902554	33	C	12/31/2021	17:54	-136.271	49.455	0	321.70	0	4.5320	0	33.9310	0	26.882	0	318.710	0	-1e10	8	-1e10	8	-1E+10	1	-1E+10	1	-1E+10	1	-1E+10	1	-1E+10	1	-1E+10	1
4902554	33	C	12/31/2021	17:54	-136.271	49.455	0	323.00	0	4.5270	0	33.9330	0	26.885	0	319.997	0	-1e10	8	-1e10	8	-1E+10	1	-1E+10	1	-1E+10	1	-1E+10	1	-1E+10	1	-1E+10	1
4902554	33	C	12/31/2021	17:54	-136.271	49.455	0	324.20	0	4.5180	0	33.9360	0	26.888	0	321.185	0	-1e10	8	-1e10	8	-1E+10	1	-1E+10	1	-1E+10	1	-1E+10	1	-1E+10	1	-1E+10	1
4902554	33	C	12/31/2021	17:54	-136.271	49.455	0	325.10	0	4.5130	0	33.9370	0	26.889	0	322.076	0	-1e10	8	-1e10	8	-1E+10	1	-1E+10	1	-1E+10	1	-1E+10	1	-1E+10	1	-1E+10	1
4902554	33	C	12/31/2021	17:54	-136.271	49.455	0	325.90	0	4.5110	0	33.9370	0	26.890	0	322.868	0	-1e10	8	-1e10	8	-1E+10	1	-1E+10	1	-1E+10	1	-1E+10	1	-1E+10	1	-1E+10	1
4902554	33	C	12/31/2021	17:54	-136.271	49.455	0	326.70	0	4.5030	0	33.9400	0	26.893	0	323.659	0	-1e10	8	-1e10	8	-1E+10	1	-1E+10	1	-1E+10	1	-1E+10	1	-1E+10	1	-1E+10	1
4902554	33	C	12/31/2021	17:54	-136.271	49.455	0	327.90	0	4.5010	0	33.9410	0	26.894	0	324.847	0	-1e10	8	-1e10	8	-1E+10	1	-1E+10	1	-1E+10	1	-1E+10	1	-1E+10	1	-1E+10	1
4902554	33	C	12/31/2021	17:54	-136.271	49.455	0	329.20	0	4.5010	0	33.9410	0	26.894	0	326.134	0	-1e10	8	-1e10	8	-1E+10	1	-1E+10	1	-1E+10	1	-1E+10	1	-1E+10	1	-1E+10	1
4902554	33	C	12/31/2021	17:54	-136.271	49.455	0	330.00	0	4.4990	0	33.9420	0	26.895	0	326.926	0	-1e10	8	-1e10	8	-1E+10	1	-1E+10	1	-1E+10	1	-1E+10	1	-1E+10	1	-1E+10	1
4902554	33	C	12/31/2021	17:54	-136.271	49.455	0	330.80	0	4.4980	0	33.9430	0	26.896	0	327.718	0	-1e10	8	-1e10	8	-1E+10	1	-1E+10	1	-1E+10	1	-1E+10	1	-1E+10	1	-1E+10	1
4902554	33	C	12/31/2021	17:54	-136.271	49.455	0	331.60	0	4.4970	0	33.9420	0	26.895	0	328.510	0	-1e10	8	-1e10	8	-1E+10	1	-1E+10	1	-1E+10	1	-1E+10	1	-1E+10	1	-1E+10	1
4902554	33	C	12/31/2021	17:54	-136.271	49.455	0	332.90	0	4.4960	0	33.9420	0	26.895	0	329.797	0	-1e10	8	-1e10	8	-1E+10	1	-1E+10	1	-1E+10	1	-1E+10	1	-1E+10	1	-1E+10	1
4902554	33	C	12/31/2021	17:54	-136.271	49.455	0	334.10	0	4.4910	0	33.9440	0	26.897	0	330.985	0	-1e10	8	-1e10	8	-1E+10	1	-1E+10	1	-1E+10	1	-1E+10	1	-1E+10	1	-1E+10	1
4902554	33	C	12/31/2021	17:54	-136.271	49.455	0	335.00	0	4.4860	0	33.9470	0	26.900	0	331.876	0	-1e10	8	-1e10	8	-1E+10	1	-1E+10	1	-1E+10	1	-1E+10	1	-1E+10	1	-1E+10	1
4902554	33	C	12/31/2021	17:54	-136.271	49.455	0	335.80	0	4.4810	0	33.9480	0	26.902	0	332.667	0	-1e10	8	-1e10	8	-1E+10	1	-1E+10	1	-1E+10	1	-1E+10	1	-1E+10	1	-1E+10	1
4902554	33	C	12/31/2021	17:54	-136.271	49.455	0	336.70	0	4.4780	0	33.9490	0	26.903	0	333.558	0	-1e10	8	-1e10	8	-1E+10	1	-1E+10	1	-1E+10	1	-1E+10	1	-1E+10	1	-1E+10	1
4902554	33	C	12/31/2021	17:54	-136.271	49.455	0	337.90	0	4.4760	0	33.9490	0	26.903	0	334.746	0	-1e10	8	-1e10	8	-1E+10	1	-1E+10	1	-1E+10	1	-1E+10	1	-1E+10	1	-1E+10	1
4902554	33	C	12/31/2021	17:54	-136.271	49.455	0	339.20	0	4.4730	0	33.9500	0	26.904	0	336.033	0	-1e10	8	-1e10	8	-1E+10	1	-1E+10	1	-1E+10	1	-1E+10	1	-1E+10	1	-1E+10	1
4902554	33	C	12/31/2021	17:54	-136.271	49.455	0	340.10	0	4.4710	0	33.9510	0	26.905	0	336.924	0	-1e10	8	-1e10	8	-1E+10	1	-1E+10	1	-1E+10	1	-1E+10	1	-1E+10	1	-1E+10	1
4902554	33	C	12/31/2021	17:54	-136.271	49.455	0	341.00	0	4.4700	0	33.9510	0	26.905	0	337.815	0	-1e10	8	-1e10	8	-1E+10	1	-1E+10	1	-1E+10	1	-1E+10	1	-1E+10	1	-1E+10	1
4902554	33	C	12/31/2021	17:54	-136.271	49.455	0	341.80	0	4.4700	0	33.9520	0	26.906	0	338.607	0	-1e10	8	-1e10	8	-1E+10	1	-1E+10	1	-1E+10	1	-1E+10	1	-1E+10	1	-1E+10	1
4902554	33	C	12/31/2021	17:54	-136.271	49.455	0	342.70	0	4.4690	0	33.9520	0	26.906	0	339.497	0	-1e10	8	-1e10	8	-1E+10	1	-1E+10	1	-1E+10	1	-1E+10	1	-1E+10	1	-1E+10	1
4902554	33	C	12/31/2021	17:54	-136.271	49.455	0	343.90	0	4.4690	0	33.9520	0	26.906	0	340.685	0	-1e10	8	-1e10	8	-1E+10	1	-1E+10	1	-1E+10	1	-1E+10	1	-1E+10	1	-1E+10	1
4902554	33	C	12/31/2021	17:54	-136.271	49.455	0	345.20	0	4.4690	0	33.9530	0	26.907	0	341.972	0	-1e10	8	-1e10	8	-1E+10	1	-1E+10	1	-1E+10	1	-1E+10	1	-1E+10	1	-1E+10	1
4902554	33	C	12/31/2021	17:54	-136.271	49.455	0	346.10	0	4.4680	0	33.9530	0	26.907	0	342.863	0	-1e10	8	-1e10	8	-1E+10	1	-1E+10	1	-1E+10	1	-1E+10	1	-1E+10	1	-1E+10	1
4902554	33	C	12/31/2021	17:54	-136.271	49.455	0	347.00	0	4.4660	0	33.9540	0	26.908	0	343.754	0	-1e10	8	-1e10	8	-1E+10	1	-1E+10	1	-1E+10	1	-1E+10	1	-1E+10	1	-1E+10	1
4902554	33	C	12/31/2021	17:54	-136.271	49.455	0	347.80	0	4.4650	0	33.9540	0	26.908	0	344.546	0	-1e10	8	-1e10	8	-1E+10	1	-1E+10	1	-1E+10	1	-1E+10	1	-1E+10	1	-1E+10	1
4902554	33	C	12/31/2021	17:54	-136.271	49.455	0	348.70	0	4.4630	0	33.9550	0	26.909	0	345.436	0	-1e10	8	-1e10	8	-1E+10	1	-1E+10	1	-1E+10	1	-1E+10	1	-1E+10	1	-1E+10	1
4902554	33	C	12/31/2021	17:54	-136.271	49.455	0	349.90	0	4.4580	0	33.9560	0	26.911	0	346.624	0	-1e10	8	-1e10	8	-1E+10	1	-1E+10	1	-1E+10	1	-1E+10	1	-1E+10	1	-1E+10	1
4902554	33	C	12/31/2021	17:54	-136.271	49.455	0	352.90	0	4.4550	0	33.9570	0	26.912	0	349.594	0	-1e10	8	-1e10	8	-1E+10	1	-1E+10	1	-1E+10	1	-1E+10	1	-1E+10	1	-1E+10	1
4902554	33	C	12/31/2021	17:54	-136.271	49.455	0	357.70	0	4.4470	0	33.9600	0	26.915	0	354.344	0	-1e10	8	-1e10	8	-1E+10	1	-1E+10	1	-1E+10	1	-1E+10	1	-1E+10	1	-1E+10	1
4902554	33	C	12/31/2021	17:54	-136.271	49.455	0	363.00	0	4.4420	0	33.9620	0	26.917	0	359.590	0	-1e10	8	-1e10	8	-1E+10	1	-1E+10	1	-1E+10	1	-1E+10	1	-1E+10	1	-1E+10	1
4902554	33	C	12/31/2021	17:54	-136.271	49.455	0	367.80	0	4.4370	0	33.9640	0	26.919	0	364.341	0	-1e10	8	-1e10	8	-1E+10	1	-1E+10	1	-1E+10	1	-1E+10	1	-1E+10	1	-1E+10	1
4902554	33	C	12/31/2021	17:54	-136.271	49.455	0	372.70	0	4.4280	0	33.9680	0	26.923	0	369.190	0	-1e10	8	-1e10	8	-1E+10	1	-1E+10	1	-1E+10	1	-1E+10	1	-1E+10	1	-1E+10	1
4902554	33	C	12/31/2021	17:54	-136.271	49.455	0	378.00	0	4.4150	0	33.9740	0	26.930	0	374.436	0	-1e10	8	-1e10	8	-1E+10	1	-1E+10	1	-1E+10	1	-1E+10	1	-1E+10	1	-1E+10	1
4902554	33	C	12/31/2021	17:54	-136.271	49.455	0	383.00	0	4.4040	0	33.9770	0	26.933	0	379.384	0	-1e10	8	-1e10	8	-1E+10	1	-1E+10	1	-1E+10	1	-1E+10	1	-1E+10	1	-1E+10	1
4902554	33	C	12/31/2021	17:54	-136.271	49.455	0	387.90	0	4.3900	0	33.9820	0	26.939	0	384.233	0	-1e10	8	-1e10	8	-1E+10	1	-1E+10	1	-1E+10	1	-1E+10	1	-1E+10	1	-1E+10	1
4902554	33	C	12/31/2021	17:54	-136.271	49.455	0	393.00	0	4.3810	0	33.9850	0	26.942	0	389.280	0	-1e10	8	-1e10	8	-1E+10	1	-1E+10	1	-1E+10	1	-1E+10	1	-1E+10	1	-1E+10	1
4902554	33	C	12/31/2021	17:54	-136.271	49.455	0	398.00	0	4.3600	0	33.9930	0	26.951	0	394.228	0	-1e10	8	-1e10	8	-1E+10	1	-1E+10	1	-1E+10	1	-1E+10	1	-1E+10	1	-1E+10	1
4902554	33	C	12/31/2021	17:54	-136.271	49.455	0	403.20	0	4.3410	0	34.0030	0	26.961	0	399.374	0	-1e10	8	-1e10	8	-1E+10	1	-1E+10	1	-1E+10	1	-1E+10	1	-1E+10	1	-1E+10	1
4902554	33	C	12/31/2021	17:54	-136.271	49.455	0	407.90	0	4.3320	0	34.0110	0	26.968	0	404.025	0	-1e10	8	-1e10	8	-1E+10	1	-1E+10	1	-1E+10	1	-1E+10	1	-1E+10	1	-1E+10	1
4902554	33	C	12/31/2021	17:54	-136.271	49.455	0	412.70	0	4.3220	0	34.0180	0	26.975	0	408.774	0	-1e10	8	-1e10	8	-1E+10	1	-1E+10	1	-1E+10	1	-1E+10	1	-1E+10	1	-1E+10	1
4902554	33	C	12/31/2021	17:54	-136.271	49.455	0	417.60	0	4.3110	0	34.0220	0	26.979	0	413.623	0	-1e10	8	-1e10	8	-1E+10	1	-1E+10	1	-1E+10	1	-1E+10	1	-1E+10	1	-1E+10	1
4902554	33	C	12/31/2021	17:54	-136.271	49.455	0	422.60	0	4.2980	0	34.0290	0	26.986	0	418.570	0	-1e10	8	-1e10	8	-1E+10	1	-1E+10	1	-1E+10	1	-1E+10	1	-1E+10	1	-1E+10	1
4902554	33	C	12/31/2021	17:54	-136.271	49.455	0	427.60	0	4.2890	0	34.0330	0	26.990	0	423.517	0	-1e10	8	-1e10	8	-1E+10	1	-1E+10	1	-1E+10	1	-1E+10	1	-1E+10	1	-1E+10	1
4902554	33	C	12/31/2021	17:54	-136.271	49.455	0	432.60	0	4.2830	0	34.0370	0	26.994	0	428.465	0	-1e10	8	-1e10	8	-1E+10	1	-1E+10	1	-1E+10	1	-1E+10	1	-1E+10	1	-1E+10	1
4902554	33	C	12/31/2021	17:54	-136.271	49.455	0	437.80	0	4.2750	0	34.0410	0	26.998	0	433.609	0	-1e10	8	-1e10	8	-1E+10	1	-1E+10	1	-1E+10	1	-1E+10	1	-1E+10	1	-1E+10	1
4902554	33	C	12/31/2021	17:54	-136.271	49.455	0	443.10	0	4.2620	0	34.0460	0	27.004	0	438.853	0	-1e10	8	-1e10	8	-1E+10	1	-1E+10	1	-1E+10	1	-1E+10	1	-1E+10	1	-1E+10	1
4902554	33	C	12/31/2021	17:54	-136.271	49.455	0	447.90	0	4.2490	0	34.0480	0	27.007	0	443.602	0	-1e10	8	-1e10	8	-1E+10	1	-1E+10	1	-1E+10	1	-1E+10	1	-1E+10	1	-1E+10	1
4902554	33	C	12/31/2021	17:54	-136.271	49.455	0	453.00	0	4.2430	0	34.0510	0	27.010	0	448.647	0	-1e10	8	-1e10	8	-1E+10	1	-1E+10	1	-1E+10	1	-1E+10	1	-1E+10	1	-1E+10	1
4902554	33	C	12/31/2021	17:54	-136.271	49.455	0	458.00	0	4.2350	0	34.0570	0	27.015	0	453.594	0	-1e10	8	-1e10	8	-1E+10	1	-1E+10	1	-1E+10	1	-1E+10	1	-1E+10	1	-1E+10	1
4902554	33	C	12/31/2021	17:54	-136.271	49.455	0	462.90	0	4.2260	0	34.0610	0	27.019	0	458.441	0	-1e10	8	-1e10	8	-1E+10	1	-1E+10	1	-1E+10	1	-1E+10	1	-1E+10	1	-1E+10	1
4902554	33	C	12/31/2021	17:54	-136.271	49.455	0	467.70	0	4.2190	0	34.0640	0	27.023	0	463.190	0	-1e10	8	-1e10	8	-1E+10	1	-1E+10	1	-1E+10	1	-1E+10	1	-1E+10	1	-1E+10	1
4902554	33	C	12/31/2021	17:54	-136.271	49.455	0	472.60	0	4.2100	0	34.0680	0	27.027	0	468.037	0	-1e10	8	-1e10	8	-1E+10	1	-1E+10	1	-1E+10	1	-1E+10	1	-1E+10	1	-1E+10	1
4902554	33	C	12/31/2021	17:54	-136.271	49.455	0	477.60	0	4.2010	0	34.0720	0	27.031	0	472.983	0	-1e10	8	-1e10	8	-1E+10	1	-1E+10	1	-1E+10	1	-1E+10	1	-1E+10	1	-1E+10	1
4902554	33	C	12/31/2021	17:54	-136.271	49.455	0	482.70	0	4.1910	0	34.0750	0	27.034	0	478.028	0	-1e10	8	-1e10	8	-1E+10	1	-1E+10	1	-1E+10	1	-1E+10	1	-1E+10	1	-1E+10	1
4902554	33	C	12/31/2021	17:54	-136.271	49.455	0	487.80	0	4.1780	0	34.0790	0	27.039	0	483.073	0	-1e10	8	-1e10	8	-1E+10	1	-1E+10	1	-1E+10	1	-1E+10	1	-1E+10	1	-1E+10	1
4902554	33	C	12/31/2021	17:54	-136.271	49.455	0	493.00	0	4.1650	0	34.0830	0	27.043	0	488.216	0	-1e10	8	-1e10	8	-1E+10	1	-1E+10	1	-1E+10	1	-1E+10	1	-1E+10	1	-1E+10	1
4902554	33	C	12/31/2021	17:54	-136.271	49.455	0	497.90	0	4.1390	0	34.0870	0	27.049	0	493.063	0	-1e10	8	-1e10	8	-1E+10	1	-1E+10	1	-1E+10	1	-1E+10	1	-1E+10	1	-1E+10	1
4902554	33	C	12/31/2021	17:54	-136.271	49.455	0	502.70	0	4.1240	0	34.0900	0	27.053	0	497.810	0	-1e10	8	-1e10	8	-1E+10	1	-1E+10	1	-1E+10	1	-1E+10	1	-1E+10	1	-1E+10	1
4902554	33	C	12/31/2021	17:54	-136.271	49.455	0	508.10	0	4.1170	0	34.0920	0	27.056	0	503.151	0	-1e10	8	-1e10	8	-1E+10	1	-1E+10	1	-1E+10	1	-1E+10	1	-1E+10	1	-1E+10	1
4902554	33	C	12/31/2021	17:54	-136.271	49.455	0	513.10	0	4.1040	0	34.0970	0	27.061	0	508.097	0	-1e10	8	-1e10	8	-1E+10	1	-1E+10	1	-1E+10	1	-1E+10	1	-1E+10	1	-1E+10	1
4902554	33	C	12/31/2021	17:54	-136.271	49.455	0	518.00	0	4.0990	0	34.1000	0	27.064	0	512.943	0	-1e10	8	-1e10	8	-1E+10	1	-1E+10	1	-1E+10	1	-1E+10	1	-1E+10	1	-1E+10	1
4902554	33	C	12/31/2021	17:54	-136.271	49.455	0	523.00	0	4.0860	0	34.1050	0	27.069	0	517.888	0	-1e10	8	-1e10	8	-1E+10	1	-1E+10	1	-1E+10	1	-1E+10	1	-1E+10	1	-1E+10	1
4902554	33	C	12/31/2021	17:54	-136.271	49.455	0	527.90	0	4.0790	0	34.1090	0	27.073	0	522.734	0	-1e10	8	-1e10	8	-1E+10	1	-1E+10	1	-1E+10	1	-1E+10	1	-1E+10	1	-1E+10	1
4902554	33	C	12/31/2021	17:54	-136.271	49.455	0	533.00	0	4.0750	0	34.1130	0	27.077	0	527.777	0	-1e10	8	-1e10	8	-1E+10	1	-1E+10	1	-1E+10	1	-1E+10	1	-1E+10	1	-1E+10	1
4902554	33	C	12/31/2021	17:54	-136.271	49.455	0	538.00	0	4.0720	0	34.1160	0	27.080	0	532.722	0	-1e10	8	-1e10	8	-1E+10	1	-1E+10	1	-1E+10	1	-1E+10	1	-1E+10	1	-1E+10	1
4902554	33	C	12/31/2021	17:54	-136.271	49.455	0	543.00	0	4.0620	0	34.1200	0	27.084	0	537.666	0	-1e10	8	-1e10	8	-1E+10	1	-1E+10	1	-1E+10	1	-1E+10	1	-1E+10	1	-1E+10	1
4902554	33	C	12/31/2021	17:54	-136.271	49.455	0	548.10	0	4.0570	0	34.1220	0	27.086	0	542.710	0	-1e10	8	-1e10	8	-1E+10	1	-1E+10	1	-1E+10	1	-1E+10	1	-1E+10	1	-1E+10	1
4902554	33	C	12/31/2021	17:54	-136.271	49.455	0	553.10	0	4.0410	0	34.1250	0	27.090	0	547.654	0	-1e10	8	-1e10	8	-1E+10	1	-1E+10	1	-1E+10	1	-1E+10	1	-1E+10	1	-1E+10	1
4902554	33	C	12/31/2021	17:54	-136.271	49.455	0	557.80	0	4.0250	0	34.1280	0	27.094	0	552.301	0	-1e10	8	-1e10	8	-1E+10	1	-1E+10	1	-1E+10	1	-1E+10	1	-1E+10	1	-1E+10	1
4902554	33	C	12/31/2021	17:54	-136.271	49.455	0	562.90	0	4.0100	0	34.1330	0	27.100	0	557.344	0	-1e10	8	-1e10	8	-1E+10	1	-1E+10	1	-1E+10	1	-1E+10	1	-1E+10	1	-1E+10	1
4902554	33	C	12/31/2021	17:54	-136.271	49.455	0	568.10	0	3.9870	0	34.1400	0	27.108	0	562.486	0	-1e10	8	-1e10	8	-1E+10	1	-1E+10	1	-1E+10	1	-1E+10	1	-1E+10	1	-1E+10	1
4902554	33	C	12/31/2021	17:54	-136.271	49.455	0	572.70	0	3.9750	0	34.1450	0	27.113	0	567.034	0	-1e10	8	-1e10	8	-1E+10	1	-1E+10	1	-1E+10	1	-1E+10	1	-1E+10	1	-1E+10	1
4902554	33	C	12/31/2021	17:54	-136.271	49.455	0	577.50	0	3.9620	0	34.1500	0	27.118	0	571.780	0	-1e10	8	-1e10	8	-1E+10	1	-1E+10	1	-1E+10	1	-1E+10	1	-1E+10	1	-1E+10	1
4902554	33	C	12/31/2021	17:54	-136.271	49.455	0	582.90	0	3.9510	0	34.1540	0	27.123	0	577.119	0	-1e10	8	-1e10	8	-1E+10	1	-1E+10	1	-1E+10	1	-1E+10	1	-1E+10	1	-1E+10	1
4902554	33	C	12/31/2021	17:54	-136.271	49.455	0	588.30	0	3.9470	0	34.1570	0	27.125	0	582.458	0	-1e10	8	-1e10	8	-1E+10	1	-1E+10	1	-1E+10	1	-1E+10	1	-1E+10	1	-1E+10	1
4902554	33	C	12/31/2021	17:54	-136.271	49.455	0	593.30	0	3.9350	0	34.1600	0	27.129	0	587.401	0	-1e10	8	-1e10	8	-1E+10	1	-1E+10	1	-1E+10	1	-1E+10	1	-1E+10	1	-1E+10	1
4902554	33	C	12/31/2021	17:54	-136.271	49.455	0	598.20	0	3.9160	0	34.1650	0	27.135	0	592.246	0	-1e10	8	-1e10	8	-1E+10	1	-1E+10	1	-1E+10	1	-1E+10	1	-1E+10	1	-1E+10	1
4902554	33	C	12/31/2021	17:54	-136.271	49.455	0	603.20	0	3.9080	0	34.1670	0	27.137	0	597.189	0	-1e10	8	-1e10	8	-1E+10	1	-1E+10	1	-1E+10	1	-1E+10	1	-1E+10	1	-1E+10	1
4902554	33	C	12/31/2021	17:54	-136.271	49.455	0	608.30	0	3.9010	0	34.1700	0	27.140	0	602.230	0	-1e10	8	-1e10	8	-1E+10	1	-1E+10	1	-1E+10	1	-1E+10	1	-1E+10	1	-1E+10	1
4902554	33	C	12/31/2021	17:54	-136.271	49.455	0	612.90	0	3.8970	0	34.1720	0	27.143	0	606.778	0	-1e10	8	-1e10	8	-1E+10	1	-1E+10	1	-1E+10	1	-1E+10	1	-1E+10	1	-1E+10	1
4902554	33	C	12/31/2021	17:54	-136.271	49.455	0	617.50	0	3.8900	0	34.1760	0	27.146	0	611.325	0	-1e10	8	-1e10	8	-1E+10	1	-1E+10	1	-1E+10	1	-1E+10	1	-1E+10	1	-1E+10	1
4902554	33	C	12/31/2021	17:54	-136.271	49.455	0	622.60	0	3.8810	0	34.1790	0	27.150	0	616.367	0	-1e10	8	-1e10	8	-1E+10	1	-1E+10	1	-1E+10	1	-1E+10	1	-1E+10	1	-1E+10	1
4902554	33	C	12/31/2021	17:54	-136.271	49.455	0	627.70	0	3.8590	0	34.1820	0	27.154	0	621.408	0	-1e10	8	-1e10	8	-1E+10	1	-1E+10	1	-1E+10	1	-1E+10	1	-1E+10	1	-1E+10	1
4902554	33	C	12/31/2021	17:54	-136.271	49.455	0	632.90	0	3.8530	0	34.1860	0	27.158	0	626.548	0	-1e10	8	-1e10	8	-1E+10	1	-1E+10	1	-1E+10	1	-1E+10	1	-1E+10	1	-1E+10	1
4902554	33	C	12/31/2021	17:54	-136.271	49.455	0	638.00	0	3.8440	0	34.1910	0	27.163	0	631.589	0	-1e10	8	-1e10	8	-1E+10	1	-1E+10	1	-1E+10	1	-1E+10	1	-1E+10	1	-1E+10	1
4902554	33	C	12/31/2021	17:54	-136.271	49.455	0	643.20	0	3.8320	0	34.1950	0	27.168	0	636.729	0	-1e10	8	-1e10	8	-1E+10	1	-1E+10	1	-1E+10	1	-1E+10	1	-1E+10	1	-1E+10	1
4902554	33	C	12/31/2021	17:54	-136.271	49.455	0	648.30	0	3.8210	0	34.1980	0	27.171	0	641.770	0	-1e10	8	-1e10	8	-1E+10	1	-1E+10	1	-1E+10	1	-1E+10	1	-1E+10	1	-1E+10	1
4902554	33	C	12/31/2021	17:54	-136.271	49.455	0	653.40	0	3.8120	0	34.2000	0	27.174	0	646.810	0	-1e10	8	-1e10	8	-1E+10	1	-1E+10	1	-1E+10	1	-1E+10	1	-1E+10	1	-1E+10	1
4902554	33	C	12/31/2021	17:54	-136.271	49.455	0	658.00	0	3.8010	0	34.2010	0	27.176	0	651.357	0	-1e10	8	-1e10	8	-1E+10	1	-1E+10	1	-1E+10	1	-1E+10	1	-1E+10	1	-1E+10	1
4902554	33	C	12/31/2021	17:54	-136.271	49.455	0	662.50	0	3.7890	0	34.2050	0	27.180	0	655.804	0	-1e10	8	-1e10	8	-1E+10	1	-1E+10	1	-1E+10	1	-1E+10	1	-1E+10	1	-1E+10	1
4902554	33	C	12/31/2021	17:54	-136.271	49.455	0	667.50	0	3.7780	0	34.2080	0	27.183	0	660.746	0	-1e10	8	-1e10	8	-1E+10	1	-1E+10	1	-1E+10	1	-1E+10	1	-1E+10	1	-1E+10	1
4902554	33	C	12/31/2021	17:54	-136.271	49.455	0	672.50	0	3.7610	0	34.2130	0	27.189	0	665.687	0	-1e10	8	-1e10	8	-1E+10	1	-1E+10	1	-1E+10	1	-1E+10	1	-1E+10	1	-1E+10	1
4902554	33	C	12/31/2021	17:54	-136.271	49.455	0	677.90	0	3.7500	0	34.2160	0	27.193	0	671.024	0	-1e10	8	-1e10	8	-1E+10	1	-1E+10	1	-1E+10	1	-1E+10	1	-1E+10	1	-1E+10	1
4902554	33	C	12/31/2021	17:54	-136.271	49.455	0	683.30	0	3.7320	0	34.2200	0	27.198	0	676.360	0	-1e10	8	-1e10	8	-1E+10	1	-1E+10	1	-1E+10	1	-1E+10	1	-1E+10	1	-1E+10	1
4902554	33	C	12/31/2021	17:54	-136.271	49.455	0	688.30	0	3.7180	0	34.2240	0	27.202	0	681.301	0	-1e10	8	-1e10	8	-1E+10	1	-1E+10	1	-1E+10	1	-1E+10	1	-1E+10	1	-1E+10	1
4902554	33	C	12/31/2021	17:54	-136.271	49.455	0	693.20	0	3.7020	0	34.2260	0	27.205	0	686.144	0	-1e10	8	-1e10	8	-1E+10	1	-1E+10	1	-1E+10	1	-1E+10	1	-1E+10	1	-1E+10	1
4902554	33	C	12/31/2021	17:54	-136.271	49.455	0	698.20	0	3.6870	0	34.2290	0	27.209	0	691.084	0	-1e10	8	-1e10	8	-1E+10	1	-1E+10	1	-1E+10	1	-1E+10	1	-1E+10	1	-1E+10	1
4902554	33	C	12/31/2021	17:54	-136.271	49.455	0	703.20	0	3.6700	0	34.2320	0	27.213	0	696.025	0	-1e10	8	-1e10	8	-1E+10	1	-1E+10	1	-1E+10	1	-1E+10	1	-1E+10	1	-1E+10	1
4902554	33	C	12/31/2021	17:54	-136.271	49.455	0	708.20	0	3.6530	0	34.2350	0	27.218	0	700.966	0	-1e10	8	-1e10	8	-1E+10	1	-1E+10	1	-1E+10	1	-1E+10	1	-1E+10	1	-1E+10	1
4902554	33	C	12/31/2021	17:54	-136.271	49.455	0	713.20	0	3.6440	0	34.2370	0	27.220	0	705.906	0	-1e10	8	-1e10	8	-1E+10	1	-1E+10	1	-1E+10	1	-1E+10	1	-1E+10	1	-1E+10	1
4902554	33	C	12/31/2021	17:54	-136.271	49.455	0	718.20	0	3.6370	0	34.2380	0	27.222	0	710.846	0	-1e10	8	-1e10	8	-1E+10	1	-1E+10	1	-1E+10	1	-1E+10	1	-1E+10	1	-1E+10	1
4902554	33	C	12/31/2021	17:54	-136.271	49.455	0	723.20	0	3.6300	0	34.2410	0	27.225	0	715.787	0	-1e10	8	-1e10	8	-1E+10	1	-1E+10	1	-1E+10	1	-1E+10	1	-1E+10	1	-1E+10	1
4902554	33	C	12/31/2021	17:54	-136.271	49.455	0	728.30	0	3.6240	0	34.2420	0	27.226	0	720.826	0	-1e10	8	-1e10	8	-1E+10	1	-1E+10	1	-1E+10	1	-1E+10	1	-1E+10	1	-1E+10	1
4902554	33	C	12/31/2021	17:54	-136.271	49.455	0	733.30	0	3.6120	0	34.2440	0	27.229	0	725.766	0	-1e10	8	-1e10	8	-1E+10	1	-1E+10	1	-1E+10	1	-1E+10	1	-1E+10	1	-1E+10	1
4902554	33	C	12/31/2021	17:54	-136.271	49.455	0	738.20	0	3.6010	0	34.2460	0	27.232	0	730.607	0	-1e10	8	-1e10	8	-1E+10	1	-1E+10	1	-1E+10	1	-1E+10	1	-1E+10	1	-1E+10	1
4902554	33	C	12/31/2021	17:54	-136.271	49.455	0	743.20	0	3.5920	0	34.2480	0	27.234	0	735.546	0	-1e10	8	-1e10	8	-1E+10	1	-1E+10	1	-1E+10	1	-1E+10	1	-1E+10	1	-1E+10	1
4902554	33	C	12/31/2021	17:54	-136.271	49.455	0	748.10	0	3.5840	0	34.2500	0	27.236	0	740.387	0	-1e10	8	-1e10	8	-1E+10	1	-1E+10	1	-1E+10	1	-1E+10	1	-1E+10	1	-1E+10	1
4902554	33	C	12/31/2021	17:54	-136.271	49.455	0	753.00	0	3.5530	0	34.2570	0	27.245	0	745.228	0	-1e10	8	-1e10	8	-1E+10	1	-1E+10	1	-1E+10	1	-1E+10	1	-1E+10	1	-1E+10	1
4902554	33	C	12/31/2021	17:54	-136.271	49.455	0	758.00	0	3.5420	0	34.2590	0	27.248	0	750.167	0	-1e10	8	-1e10	8	-1E+10	1	-1E+10	1	-1E+10	1	-1E+10	1	-1E+10	1	-1E+10	1
4902554	33	C	12/31/2021	17:54	-136.271	49.455	0	762.90	0	3.5280	0	34.2620	0	27.252	0	755.008	0	-1e10	8	-1e10	8	-1E+10	1	-1E+10	1	-1E+10	1	-1E+10	1	-1E+10	1	-1E+10	1
4902554	33	C	12/31/2021	17:54	-136.271	49.455	0	767.70	0	3.4990	0	34.2660	0	27.258	0	759.750	0	-1e10	8	-1e10	8	-1E+10	1	-1E+10	1	-1E+10	1	-1E+10	1	-1E+10	1	-1E+10	1
4902554	33	C	12/31/2021	17:54	-136.271	49.455	0	772.90	0	3.4860	0	34.2700	0	27.262	0	764.886	0	-1e10	8	-1e10	8	-1E+10	1	-1E+10	1	-1E+10	1	-1E+10	1	-1E+10	1	-1E+10	1
4902554	33	C	12/31/2021	17:54	-136.271	49.455	0	778.30	0	3.4760	0	34.2740	0	27.266	0	770.220	0	-1e10	8	-1e10	8	-1E+10	1	-1E+10	1	-1E+10	1	-1E+10	1	-1E+10	1	-1E+10	1
4902554	33	C	12/31/2021	17:54	-136.271	49.455	0	782.90	0	3.4650	0	34.2770	0	27.270	0	774.764	0	-1e10	8	-1e10	8	-1E+10	1	-1E+10	1	-1E+10	1	-1E+10	1	-1E+10	1	-1E+10	1
4902554	33	C	12/31/2021	17:54	-136.271	49.455	0	787.60	0	3.4590	0	34.2780	0	27.271	0	779.406	0	-1e10	8	-1e10	8	-1E+10	1	-1E+10	1	-1E+10	1	-1E+10	1	-1E+10	1	-1E+10	1
4902554	33	C	12/31/2021	17:54	-136.271	49.455	0	792.80	0	3.4420	0	34.2810	0	27.275	0	784.542	0	-1e10	8	-1e10	8	-1E+10	1	-1E+10	1	-1E+10	1	-1E+10	1	-1E+10	1	-1E+10	1
4902554	33	C	12/31/2021	17:54	-136.271	49.455	0	797.80	0	3.4270	0	34.2840	0	27.279	0	789.481	0	-1e10	8	-1e10	8	-1E+10	1	-1E+10	1	-1E+10	1	-1E+10	1	-1E+10	1	-1E+10	1
4902554	33	C	12/31/2021	17:54	-136.271	49.455	0	802.80	0	3.4170	0	34.2860	0	27.282	0	794.419	0	-1e10	8	-1e10	8	-1E+10	1	-1E+10	1	-1E+10	1	-1E+10	1	-1E+10	1	-1E+10	1
4902554	33	C	12/31/2021	17:54	-136.271	49.455	0	808.00	0	3.4050	0	34.2890	0	27.285	0	799.555	0	-1e10	8	-1e10	8	-1E+10	1	-1E+10	1	-1E+10	1	-1E+10	1	-1E+10	1	-1E+10	1
4902554	33	C	12/31/2021	17:54	-136.271	49.455	0	812.80	0	3.4020	0	34.2890	0	27.285	0	804.296	0	-1e10	8	-1e10	8	-1E+10	1	-1E+10	1	-1E+10	1	-1E+10	1	-1E+10	1	-1E+10	1
4902554	33	C	12/31/2021	17:54	-136.271	49.455	0	817.70	0	3.3920	0	34.2920	0	27.289	0	809.135	0	-1e10	8	-1e10	8	-1E+10	1	-1E+10	1	-1E+10	1	-1E+10	1	-1E+10	1	-1E+10	1
4902554	33	C	12/31/2021	17:54	-136.271	49.455	0	822.70	0	3.3790	0	34.2950	0	27.292	0	814.073	0	-1e10	8	-1e10	8	-1E+10	1	-1E+10	1	-1E+10	1	-1E+10	1	-1E+10	1	-1E+10	1
4902554	33	C	12/31/2021	17:54	-136.271	49.455	0	827.70	0	3.3720	0	34.2960	0	27.294	0	819.011	0	-1e10	8	-1e10	8	-1E+10	1	-1E+10	1	-1E+10	1	-1E+10	1	-1E+10	1	-1E+10	1
4902554	33	C	12/31/2021	17:54	-136.271	49.455	0	832.80	0	3.3650	0	34.2980	0	27.296	0	824.047	0	-1e10	8	-1e10	8	-1E+10	1	-1E+10	1	-1E+10	1	-1E+10	1	-1E+10	1	-1E+10	1
4902554	33	C	12/31/2021	17:54	-136.271	49.455	0	838.10	0	3.3600	0	34.2990	0	27.298	0	829.281	0	-1e10	8	-1e10	8	-1E+10	1	-1E+10	1	-1E+10	1	-1E+10	1	-1E+10	1	-1E+10	1
4902554	33	C	12/31/2021	17:54	-136.271	49.455	0	842.90	0	3.3540	0	34.3000	0	27.299	0	834.021	0	-1e10	8	-1e10	8	-1E+10	1	-1E+10	1	-1E+10	1	-1E+10	1	-1E+10	1	-1E+10	1
4902554	33	C	12/31/2021	17:54	-136.271	49.455	0	847.70	0	3.3470	0	34.3010	0	27.300	0	838.761	0	-1e10	8	-1e10	8	-1E+10	1	-1E+10	1	-1E+10	1	-1E+10	1	-1E+10	1	-1E+10	1
4902554	33	C	12/31/2021	17:54	-136.271	49.455	0	852.60	0	3.3420	0	34.3030	0	27.303	0	843.599	0	-1e10	8	-1e10	8	-1E+10	1	-1E+10	1	-1E+10	1	-1E+10	1	-1E+10	1	-1E+10	1
4902554	33	C	12/31/2021	17:54	-136.271	49.455	0	857.50	0	3.3340	0	34.3050	0	27.305	0	848.437	0	-1e10	8	-1e10	8	-1E+10	1	-1E+10	1	-1E+10	1	-1E+10	1	-1E+10	1	-1E+10	1
4902554	33	C	12/31/2021	17:54	-136.271	49.455	0	862.50	0	3.3250	0	34.3070	0	27.307	0	853.374	0	-1e10	8	-1e10	8	-1E+10	1	-1E+10	1	-1E+10	1	-1E+10	1	-1E+10	1	-1E+10	1
4902554	33	C	12/31/2021	17:54	-136.271	49.455	0	867.60	0	3.3160	0	34.3090	0	27.310	0	858.410	0	-1e10	8	-1e10	8	-1E+10	1	-1E+10	1	-1E+10	1	-1E+10	1	-1E+10	1	-1E+10	1
4902554	33	C	12/31/2021	17:54	-136.271	49.455	0	872.80	0	3.3080	0	34.3110	0	27.312	0	863.544	0	-1e10	8	-1e10	8	-1E+10	1	-1E+10	1	-1E+10	1	-1E+10	1	-1E+10	1	-1E+10	1
4902554	33	C	12/31/2021	17:54	-136.271	49.455	0	878.10	0	3.2970	0	34.3130	0	27.315	0	868.777	0	-1e10	8	-1e10	8	-1E+10	1	-1E+10	1	-1E+10	1	-1E+10	1	-1E+10	1	-1E+10	1
4902554	33	C	12/31/2021	17:54	-136.271	49.455	0	882.90	0	3.2820	0	34.3160	0	27.319	0	873.516	0	-1e10	8	-1e10	8	-1E+10	1	-1E+10	1	-1E+10	1	-1E+10	1	-1E+10	1	-1E+10	1
4902554	33	C	12/31/2021	17:54	-136.271	49.455	0	887.80	0	3.2720	0	34.3180	0	27.321	0	878.353	0	-1e10	8	-1e10	8	-1E+10	1	-1E+10	1	-1E+10	1	-1E+10	1	-1E+10	1	-1E+10	1
4902554	33	C	12/31/2021	17:54	-136.271	49.455	0	893.10	0	3.2570	0	34.3210	0	27.325	0	883.586	0	-1e10	8	-1e10	8	-1E+10	1	-1E+10	1	-1E+10	1	-1E+10	1	-1E+10	1	-1E+10	1
4902554	33	C	12/31/2021	17:54	-136.271	49.455	0	898.10	0	3.2470	0	34.3230	0	27.328	0	888.522	0	-1e10	8	-1e10	8	-1E+10	1	-1E+10	1	-1E+10	1	-1E+10	1	-1E+10	1	-1E+10	1
4902554	33	C	12/31/2021	17:54	-136.271	49.455	0	903.00	0	3.2400	0	34.3240	0	27.329	0	893.359	0	-1e10	8	-1e10	8	-1E+10	1	-1E+10	1	-1E+10	1	-1E+10	1	-1E+10	1	-1E+10	1
4902554	33	C	12/31/2021	17:54	-136.271	49.455	0	908.00	0	3.2270	0	34.3270	0	27.333	0	898.295	0	-1e10	8	-1e10	8	-1E+10	1	-1E+10	1	-1E+10	1	-1E+10	1	-1E+10	1	-1E+10	1
4902554	33	C	12/31/2021	17:54	-136.271	49.455	0	912.90	0	3.2170	0	34.3290	0	27.335	0	903.132	0	-1e10	8	-1e10	8	-1E+10	1	-1E+10	1	-1E+10	1	-1E+10	1	-1E+10	1	-1E+10	1
4902554	33	C	12/31/2021	17:54	-136.271	49.455	0	917.90	0	3.2110	0	34.3300	0	27.337	0	908.068	0	-1e10	8	-1e10	8	-1E+10	1	-1E+10	1	-1E+10	1	-1E+10	1	-1E+10	1	-1E+10	1
4902554	33	C	12/31/2021	17:54	-136.271	49.455	0	922.80	0	3.2020	0	34.3320	0	27.339	0	912.905	0	-1e10	8	-1e10	8	-1E+10	1	-1E+10	1	-1E+10	1	-1E+10	1	-1E+10	1	-1E+10	1
4902554	33	C	12/31/2021	17:54	-136.271	49.455	0	927.80	0	3.1910	0	34.3350	0	27.343	0	917.840	0	-1e10	8	-1e10	8	-1E+10	1	-1E+10	1	-1E+10	1	-1E+10	1	-1E+10	1	-1E+10	1
4902554	33	C	12/31/2021	17:54	-136.271	49.455	0	932.80	0	3.1840	0	34.3360	0	27.344	0	922.775	0	-1e10	8	-1e10	8	-1E+10	1	-1E+10	1	-1E+10	1	-1E+10	1	-1E+10	1	-1E+10	1
4902554	33	C	12/31/2021	17:54	-136.271	49.455	0	937.80	0	3.1730	0	34.3380	0	27.347	0	927.711	0	-1e10	8	-1e10	8	-1E+10	1	-1E+10	1	-1E+10	1	-1E+10	1	-1E+10	1	-1E+10	1
4902554	33	C	12/31/2021	17:54	-136.271	49.455	0	942.90	0	3.1640	0	34.3400	0	27.349	0	932.744	0	-1e10	8	-1e10	8	-1E+10	1	-1E+10	1	-1E+10	1	-1E+10	1	-1E+10	1	-1E+10	1
4902554	33	C	12/31/2021	17:54	-136.271	49.455	0	948.00	0	3.1530	0	34.3420	0	27.352	0	937.778	0	-1e10	8	-1e10	8	-1E+10	1	-1E+10	1	-1E+10	1	-1E+10	1	-1E+10	1	-1E+10	1
4902554	33	C	12/31/2021	17:54	-136.271	49.455	0	953.10	0	3.1470	0	34.3430	0	27.353	0	942.812	0	-1e10	8	-1e10	8	-1E+10	1	-1E+10	1	-1E+10	1	-1E+10	1	-1E+10	1	-1E+10	1
4902554	33	C	12/31/2021	17:54	-136.271	49.455	0	958.10	0	3.1350	0	34.3460	0	27.357	0	947.746	0	-1e10	8	-1e10	8	-1E+10	1	-1E+10	1	-1E+10	1	-1E+10	1	-1E+10	1	-1E+10	1
4902554	33	C	12/31/2021	17:54	-136.271	49.455	0	962.70	0	3.1260	0	34.3470	0	27.358	0	952.286	0	-1e10	8	-1e10	8	-1E+10	1	-1E+10	1	-1E+10	1	-1E+10	1	-1E+10	1	-1E+10	1
4902554	33	C	12/31/2021	17:54	-136.271	49.455	0	967.70	0	3.1110	0	34.3500	0	27.362	0	957.221	0	-1e10	8	-1e10	8	-1E+10	1	-1E+10	1	-1E+10	1	-1E+10	1	-1E+10	1	-1E+10	1
4902554	33	C	12/31/2021	17:54	-136.271	49.455	0	972.70	0	3.0920	0	34.3540	0	27.367	0	962.155	0	-1e10	8	-1e10	8	-1E+10	1	-1E+10	1	-1E+10	1	-1E+10	1	-1E+10	1	-1E+10	1
4902554	33	C	12/31/2021	17:54	-136.271	49.455	0	977.90	0	3.0780	0	34.3570	0	27.371	0	967.287	0	-1e10	8	-1e10	8	-1E+10	1	-1E+10	1	-1E+10	1	-1E+10	1	-1E+10	1	-1E+10	1
4902554	33	C	12/31/2021	17:54	-136.271	49.455	0	983.00	0	3.0680	0	34.3590	0	27.373	0	972.319	0	-1e10	8	-1e10	8	-1E+10	1	-1E+10	1	-1E+10	1	-1E+10	1	-1E+10	1	-1E+10	1
4902554	33	C	12/31/2021	17:54	-136.271	49.455	0	987.70	0	3.0580	0	34.3610	0	27.376	0	976.957	0	-1e10	8	-1e10	8	-1E+10	1	-1E+10	1	-1E+10	1	-1E+10	1	-1E+10	1	-1E+10	1
4902554	33	C	12/31/2021	17:54	-136.271	49.455	0	992.80	0	3.0440	0	34.3640	0	27.380	0	981.990	0	-1e10	8	-1e10	8	-1E+10	1	-1E+10	1	-1E+10	1	-1E+10	1	-1E+10	1	-1E+10	1
4902554	33	C	12/31/2021	17:54	-136.271	49.455	0	998.00	0	3.0340	0	34.3660	0	27.382	0	987.121	0	-1e10	8	-1e10	8	-1E+10	1	-1E+10	1	-1E+10	1	-1E+10	1	-1E+10	1	-1E+10	1
4902554	33	C	12/31/2021	17:54	-136.271	49.455	0	1005.60	0	3.0220	0	34.3690	0	27.386	0	994.620	0	-1e10	8	-1e10	8	-1E+10	1	-1E+10	1	-1E+10	1	-1E+10	1	-1E+10	1	-1E+10	1
4902554	33	C	12/31/2021	17:54	-136.271	49.455	0	1015.60	0	2.9970	0	34.3740	0	27.392	0	1004.487	0	-1e10	8	-1e10	8	-1E+10	1	-1E+10	1	-1E+10	1	-1E+10	1	-1E+10	1	-1E+10	1
4902554	33	C	12/31/2021	17:54	-136.271	49.455	0	1025.30	0	2.9830	0	34.3760	0	27.395	0	1014.058	0	-1e10	8	-1e10	8	-1E+10	1	-1E+10	1	-1E+10	1	-1E+10	1	-1E+10	1	-1E+10	1
4902554	33	C	12/31/2021	17:54	-136.271	49.455	0	1035.10	0	2.9650	0	34.3790	0	27.399	0	1023.726	0	-1e10	8	-1e10	8	-1E+10	1	-1E+10	1	-1E+10	1	-1E+10	1	-1E+10	1	-1E+10	1
4902554	33	C	12/31/2021	17:54	-136.271	49.455	0	1045.10	0	2.9420	0	34.3840	0	27.405	0	1033.592	0	-1e10	8	-1e10	8	-1E+10	1	-1E+10	1	-1E+10	1	-1E+10	1	-1E+10	1	-1E+10	1
4902554	33	C	12/31/2021	17:54	-136.271	49.455	0	1055.50	0	2.9210	0	34.3890	0	27.411	0	1043.851	0	-1e10	8	-1e10	8	-1E+10	1	-1E+10	1	-1E+10	1	-1E+10	1	-1E+10	1	-1E+10	1
4902554	33	C	12/31/2021	17:54	-136.271	49.455	0	1065.30	0	2.9140	0	34.3900	0	27.412	0	1053.519	0	-1e10	8	-1e10	8	-1E+10	1	-1E+10	1	-1E+10	1	-1E+10	1	-1E+10	1	-1E+10	1
4902554	33	C	12/31/2021	17:54	-136.271	49.455	0	1075.50	0	2.9030	0	34.3930	0	27.416	0	1063.580	0	-1e10	8	-1e10	8	-1E+10	1	-1E+10	1	-1E+10	1	-1E+10	1	-1E+10	1	-1E+10	1
4902554	33	C	12/31/2021	17:54	-136.271	49.455	0	1085.30	0	2.8930	0	34.3950	0	27.418	0	1073.246	0	-1e10	8	-1e10	8	-1E+10	1	-1E+10	1	-1E+10	1	-1E+10	1	-1E+10	1	-1E+10	1
4902554	33	C	12/31/2021	17:54	-136.271	49.455	0	1095.30	0	2.8820	0	34.3970	0	27.421	0	1083.109	0	-1e10	8	-1e10	8	-1E+10	1	-1E+10	1	-1E+10	1	-1E+10	1	-1E+10	1	-1E+10	1
4902554	33	C	12/31/2021	17:54	-136.271	49.455	0	1105.60	0	2.8670	0	34.3990	0	27.424	0	1093.268	0	-1e10	8	-1e10	8	-1E+10	1	-1E+10	1	-1E+10	1	-1E+10	1	-1E+10	1	-1E+10	1
4902554	33	C	12/31/2021	17:54	-136.271	49.455	0	1115.30	0	2.8500	0	34.4030	0	27.429	0	1102.834	0	-1e10	8	-1e10	8	-1E+10	1	-1E+10	1	-1E+10	1	-1E+10	1	-1E+10	1	-1E+10	1
4902554	33	C	12/31/2021	17:54	-136.271	49.455	0	1125.10	0	2.8360	0	34.4050	0	27.432	0	1112.499	0	-1e10	8	-1e10	8	-1E+10	1	-1E+10	1	-1E+10	1	-1E+10	1	-1E+10	1	-1E+10	1
4902554	33	C	12/31/2021	17:54	-136.271	49.455	0	1135.20	0	2.8240	0	34.4070	0	27.434	0	1122.459	0	-1e10	8	-1e10	8	-1E+10	1	-1E+10	1	-1E+10	1	-1E+10	1	-1E+10	1	-1E+10	1
4902554	33	C	12/31/2021	17:54	-136.271	49.455	0	1145.20	0	2.8090	0	34.4100	0	27.438	0	1132.320	0	-1e10	8	-1e10	8	-1E+10	1	-1E+10	1	-1E+10	1	-1E+10	1	-1E+10	1	-1E+10	1
4902554	33	C	12/31/2021	17:54	-136.271	49.455	0	1155.30	0	2.7990	0	34.4130	0	27.441	0	1142.279	0	-1e10	8	-1e10	8	-1E+10	1	-1E+10	1	-1E+10	1	-1E+10	1	-1E+10	1	-1E+10	1
4902554	33	C	12/31/2021	17:54	-136.271	49.455	0	1165.40	0	2.7950	0	34.4140	0	27.443	0	1152.237	0	-1e10	8	-1e10	8	-1E+10	1	-1E+10	1	-1E+10	1	-1E+10	1	-1E+10	1	-1E+10	1
4902554	33	C	12/31/2021	17:54	-136.271	49.455	0	1175.40	0	2.7830	0	34.4160	0	27.445	0	1162.096	0	-1e10	8	-1e10	8	-1E+10	1	-1E+10	1	-1E+10	1	-1E+10	1	-1E+10	1	-1E+10	1
4902554	33	C	12/31/2021	17:54	-136.271	49.455	0	1185.40	0	2.7720	0	34.4180	0	27.448	0	1171.955	0	-1e10	8	-1e10	8	-1E+10	1	-1E+10	1	-1E+10	1	-1E+10	1	-1E+10	1	-1E+10	1
4902554	33	C	12/31/2021	17:54	-136.271	49.455	0	1195.30	0	2.7440	0	34.4230	0	27.455	0	1181.715	0	-1e10	8	-1e10	8	-1E+10	1	-1E+10	1	-1E+10	1	-1E+10	1	-1E+10	1	-1E+10	1
4902554	33	C	12/31/2021	17:54	-136.271	49.455	0	1205.40	0	2.7240	0	34.4270	0	27.459	0	1191.672	0	-1e10	8	-1e10	8	-1E+10	1	-1E+10	1	-1E+10	1	-1E+10	1	-1E+10	1	-1E+10	1
4902554	33	C	12/31/2021	17:54	-136.271	49.455	0	1215.50	0	2.7170	0	34.4290	0	27.462	0	1201.628	0	-1e10	8	-1e10	8	-1E+10	1	-1E+10	1	-1E+10	1	-1E+10	1	-1E+10	1	-1E+10	1
4902554	33	C	12/31/2021	17:54	-136.271	49.455	0	1225.60	0	2.7030	0	34.4310	0	27.465	0	1211.584	0	-1e10	8	-1e10	8	-1E+10	1	-1E+10	1	-1E+10	1	-1E+10	1	-1E+10	1	-1E+10	1
4902554	33	C	12/31/2021	17:54	-136.271	49.455	0	1235.60	0	2.6890	0	34.4340	0	27.468	0	1221.440	0	-1e10	8	-1e10	8	-1E+10	1	-1E+10	1	-1E+10	1	-1E+10	1	-1E+10	1	-1E+10	1
4902554	33	C	12/31/2021	17:54	-136.271	49.455	0	1245.30	0	2.6780	0	34.4360	0	27.471	0	1231.001	0	-1e10	8	-1e10	8	-1E+10	1	-1E+10	1	-1E+10	1	-1E+10	1	-1E+10	1	-1E+10	1
4902554	33	C	12/31/2021	17:54	-136.271	49.455	0	1255.30	0	2.6650	0	34.4390	0	27.474	0	1240.857	0	-1e10	8	-1e10	8	-1E+10	1	-1E+10	1	-1E+10	1	-1E+10	1	-1E+10	1	-1E+10	1
4902554	33	C	12/31/2021	17:54	-136.271	49.455	0	1265.30	0	2.6500	0	34.4420	0	27.478	0	1250.712	0	-1e10	8	-1e10	8	-1E+10	1	-1E+10	1	-1E+10	1	-1E+10	1	-1E+10	1	-1E+10	1
4902554	33	C	12/31/2021	17:54	-136.271	49.455	0	1275.10	0	2.6350	0	34.4450	0	27.482	0	1260.369	0	-1e10	8	-1e10	8	-1E+10	1	-1E+10	1	-1E+10	1	-1E+10	1	-1E+10	1	-1E+10	1
4902554	33	C	12/31/2021	17:54	-136.271	49.455	0	1285.20	0	2.6220	0	34.4470	0	27.485	0	1270.322	0	-1e10	8	-1e10	8	-1E+10	1	-1E+10	1	-1E+10	1	-1E+10	1	-1E+10	1	-1E+10	1
4902554	33	C	12/31/2021	17:54	-136.271	49.455	0	1295.20	0	2.6050	0	34.4510	0	27.489	0	1280.176	0	-1e10	8	-1e10	8	-1E+10	1	-1E+10	1	-1E+10	1	-1E+10	1	-1E+10	1	-1E+10	1
4902554	33	C	12/31/2021	17:54	-136.271	49.455	0	1305.40	0	2.5940	0	34.4530	0	27.492	0	1290.227	0	-1e10	8	-1e10	8	-1E+10	1	-1E+10	1	-1E+10	1	-1E+10	1	-1E+10	1	-1E+10	1
4902554	33	C	12/31/2021	17:54	-136.271	49.455	0	1315.40	0	2.5790	0	34.4560	0	27.496	0	1300.080	0	-1e10	8	-1e10	8	-1E+10	1	-1E+10	1	-1E+10	1	-1E+10	1	-1E+10	1	-1E+10	1
4902554	33	C	12/31/2021	17:54	-136.271	49.455	0	1325.20	0	2.5660	0	34.4580	0	27.498	0	1309.735	0	-1e10	8	-1e10	8	-1E+10	1	-1E+10	1	-1E+10	1	-1E+10	1	-1E+10	1	-1E+10	1
4902554	33	C	12/31/2021	17:54	-136.271	49.455	0	1335.50	0	2.5600	0	34.4590	0	27.500	0	1319.883	0	-1e10	8	-1e10	8	-1E+10	1	-1E+10	1	-1E+10	1	-1E+10	1	-1E+10	1	-1E+10	1
4902554	33	C	12/31/2021	17:54	-136.271	49.455	0	1345.70	0	2.5440	0	34.4630	0	27.504	0	1329.931	0	-1e10	8	-1e10	8	-1E+10	1	-1E+10	1	-1E+10	1	-1E+10	1	-1E+10	1	-1E+10	1
4902554	33	C	12/31/2021	17:54	-136.271	49.455	0	1355.70	0	2.5310	0	34.4650	0	27.507	0	1339.782	0	-1e10	8	-1e10	8	-1E+10	1	-1E+10	1	-1E+10	1	-1E+10	1	-1E+10	1	-1E+10	1
4902554	33	C	12/31/2021	17:54	-136.271	49.455	0	1365.50	0	2.5220	0	34.4670	0	27.510	0	1349.436	0	-1e10	8	-1e10	8	-1E+10	1	-1E+10	1	-1E+10	1	-1E+10	1	-1E+10	1	-1E+10	1
4902554	33	C	12/31/2021	17:54	-136.271	49.455	0	1375.40	0	2.5150	0	34.4690	0	27.512	0	1359.187	0	-1e10	8	-1e10	8	-1E+10	1	-1E+10	1	-1E+10	1	-1E+10	1	-1E+10	1	-1E+10	1
4902554	33	C	12/31/2021	17:54	-136.271	49.455	0	1385.40	0	2.5080	0	34.4700	0	27.513	0	1369.037	0	-1e10	8	-1e10	8	-1E+10	1	-1E+10	1	-1E+10	1	-1E+10	1	-1E+10	1	-1E+10	1
4902554	33	C	12/31/2021	17:54	-136.271	49.455	0	1395.10	0	2.4930	0	34.4730	0	27.517	0	1378.591	0	-1e10	8	-1e10	8	-1E+10	1	-1E+10	1	-1E+10	1	-1E+10	1	-1E+10	1	-1E+10	1
4902554	33	C	12/31/2021	17:54	-136.271	49.455	0	1405.00	0	2.4830	0	34.4750	0	27.520	0	1388.341	0	-1e10	8	-1e10	8	-1E+10	1	-1E+10	1	-1E+10	1	-1E+10	1	-1E+10	1	-1E+10	1
4902554	33	C	12/31/2021	17:54	-136.271	49.455	0	1415.00	0	2.4680	0	34.4770	0	27.522	0	1398.189	0	-1e10	8	-1e10	8	-1E+10	1	-1E+10	1	-1E+10	1	-1E+10	1	-1E+10	1	-1E+10	1
4902554	33	C	12/31/2021	17:54	-136.271	49.455	0	1425.00	0	2.4540	0	34.4800	0	27.526	0	1408.037	0	-1e10	8	-1e10	8	-1E+10	1	-1E+10	1	-1E+10	1	-1E+10	1	-1E+10	1	-1E+10	1
4902554	33	C	12/31/2021	17:54	-136.271	49.455	0	1435.10	0	2.4380	0	34.4840	0	27.531	0	1417.983	0	-1e10	8	-1e10	8	-1E+10	1	-1E+10	1	-1E+10	1	-1E+10	1	-1E+10	1	-1E+10	1
4902554	33	C	12/31/2021	17:54	-136.271	49.455	0	1445.40	0	2.4300	0	34.4850	0	27.532	0	1428.126	0	-1e10	8	-1e10	8	-1E+10	1	-1E+10	1	-1E+10	1	-1E+10	1	-1E+10	1	-1E+10	1
4902554	33	C	12/31/2021	17:54	-136.271	49.455	0	1455.40	0	2.4200	0	34.4870	0	27.535	0	1437.972	0	-1e10	8	-1e10	8	-1E+10	1	-1E+10	1	-1E+10	1	-1E+10	1	-1E+10	1	-1E+10	1
4902554	33	C	12/31/2021	17:54	-136.271	49.455	0	1465.40	0	2.4050	0	34.4900	0	27.538	0	1447.818	0	-1e10	8	-1e10	8	-1E+10	1	-1E+10	1	-1E+10	1	-1E+10	1	-1E+10	1	-1E+10	1
4902554	33	C	12/31/2021	17:54	-136.271	49.455	0	1475.30	0	2.3910	0	34.4930	0	27.542	0	1457.565	0	-1e10	8	-1e10	8	-1E+10	1	-1E+10	1	-1E+10	1	-1E+10	1	-1E+10	1	-1E+10	1
4902554	33	C	12/31/2021	17:54	-136.271	49.455	0	1485.40	0	2.3820	0	34.4950	0	27.544	0	1467.509	0	-1e10	8	-1e10	8	-1E+10	1	-1E+10	1	-1E+10	1	-1E+10	1	-1E+10	1	-1E+10	1
4902554	33	C	12/31/2021	17:54	-136.271	49.455	0	1495.20	0	2.3660	0	34.4980	0	27.548	0	1477.156	0	-1e10	8	-1e10	8	-1E+10	1	-1E+10	1	-1E+10	1	-1E+10	1	-1E+10	1	-1E+10	1
4902554	33	C	12/31/2021	17:54	-136.271	49.455	0	1505.40	0	2.3540	0	34.5000	0	27.551	0	1487.197	0	-1e10	8	-1e10	8	-1E+10	1	-1E+10	1	-1E+10	1	-1E+10	1	-1E+10	1	-1E+10	1
4902554	33	C	12/31/2021	17:54	-136.271	49.455	0	1515.30	0	2.3360	0	34.5040	0	27.555	0	1496.943	0	-1e10	8	-1e10	8	-1E+10	1	-1E+10	1	-1E+10	1	-1E+10	1	-1E+10	1	-1E+10	1
4902554	33	C	12/31/2021	17:54	-136.271	49.455	0	1525.20	0	2.3280	0	34.5050	0	27.557	0	1506.687	0	-1e10	8	-1e10	8	-1E+10	1	-1E+10	1	-1E+10	1	-1E+10	1	-1E+10	1	-1E+10	1
4902554	33	C	12/31/2021	17:54	-136.271	49.455	0	1535.20	0	2.3160	0	34.5080	0	27.560	0	1516.530	0	-1e10	8	-1e10	8	-1E+10	1	-1E+10	1	-1E+10	1	-1E+10	1	-1E+10	1	-1E+10	1
4902554	33	C	12/31/2021	17:54	-136.271	49.455	0	1545.40	0	2.3080	0	34.5100	0	27.563	0	1526.569	0	-1e10	8	-1e10	8	-1E+10	1	-1E+10	1	-1E+10	1	-1E+10	1	-1E+10	1	-1E+10	1
4902554	33	C	12/31/2021	17:54	-136.271	49.455	0	1555.50	0	2.2960	0	34.5120	0	27.565	0	1536.510	0	-1e10	8	-1e10	8	-1E+10	1	-1E+10	1	-1E+10	1	-1E+10	1	-1E+10	1	-1E+10	1
4902554	33	C	12/31/2021	17:54	-136.271	49.455	0	1565.30	0	2.2860	0	34.5140	0	27.568	0	1546.154	0	-1e10	8	-1e10	8	-1E+10	1	-1E+10	1	-1E+10	1	-1E+10	1	-1E+10	1	-1E+10	1
4902554	33	C	12/31/2021	17:54	-136.271	49.455	0	1575.40	0	2.2810	0	34.5150	0	27.569	0	1556.094	0	-1e10	8	-1e10	8	-1E+10	1	-1E+10	1	-1E+10	1	-1E+10	1	-1E+10	1	-1E+10	1
4902554	33	C	12/31/2021	17:54	-136.271	49.455	0	1585.50	0	2.2660	0	34.5180	0	27.573	0	1566.032	0	-1e10	8	-1e10	8	-1E+10	1	-1E+10	1	-1E+10	1	-1E+10	1	-1E+10	1	-1E+10	1
4902554	33	C	12/31/2021	17:54	-136.271	49.455	0	1595.20	0	2.2600	0	34.5190	0	27.574	0	1575.577	0	-1e10	8	-1e10	8	-1E+10	1	-1E+10	1	-1E+10	1	-1E+10	1	-1E+10	1	-1E+10	1
4902554	33	C	12/31/2021	17:54	-136.271	49.455	0	1605.40	0	2.2480	0	34.5210	0	27.577	0	1585.614	0	-1e10	8	-1e10	8	-1E+10	1	-1E+10	1	-1E+10	1	-1E+10	1	-1E+10	1	-1E+10	1
4902554	33	C	12/31/2021	17:54	-136.271	49.455	0	1615.70	0	2.2400	0	34.5230	0	27.579	0	1595.748	0	-1e10	8	-1e10	8	-1E+10	1	-1E+10	1	-1E+10	1	-1E+10	1	-1E+10	1	-1E+10	1
4902554	33	C	12/31/2021	17:54	-136.271	49.455	0	1625.70	0	2.2350	0	34.5240	0	27.580	0	1605.586	0	-1e10	8	-1e10	8	-1E+10	1	-1E+10	1	-1E+10	1	-1E+10	1	-1E+10	1	-1E+10	1
4902554	33	C	12/31/2021	17:54	-136.271	49.455	0	1635.40	0	2.2220	0	34.5270	0	27.584	0	1615.130	0	-1e10	8	-1e10	8	-1E+10	1	-1E+10	1	-1E+10	1	-1E+10	1	-1E+10	1	-1E+10	1
4902554	33	C	12/31/2021	17:54	-136.271	49.455	0	1645.20	0	2.2160	0	34.5280	0	27.585	0	1624.770	0	-1e10	8	-1e10	8	-1E+10	1	-1E+10	1	-1E+10	1	-1E+10	1	-1E+10	1	-1E+10	1
4902554	33	C	12/31/2021	17:54	-136.271	49.455	0	1655.40	0	2.2050	0	34.5300	0	27.588	0	1634.805	0	-1e10	8	-1e10	8	-1E+10	1	-1E+10	1	-1E+10	1	-1E+10	1	-1E+10	1	-1E+10	1
4902554	33	C	12/31/2021	17:54	-136.271	49.455	0	1665.60	0	2.1940	0	34.5320	0	27.590	0	1644.838	0	-1e10	8	-1e10	8	-1E+10	1	-1E+10	1	-1E+10	1	-1E+10	1	-1E+10	1	-1E+10	1
4902554	33	C	12/31/2021	17:54	-136.271	49.455	0	1675.40	0	2.1840	0	34.5350	0	27.593	0	1654.478	0	-1e10	8	-1e10	8	-1E+10	1	-1E+10	1	-1E+10	1	-1E+10	1	-1E+10	1	-1E+10	1
4902554	33	C	12/31/2021	17:54	-136.271	49.455	0	1685.00	0	2.1800	0	34.5360	0	27.595	0	1663.920	0	-1e10	8	-1e10	8	-1E+10	1	-1E+10	1	-1E+10	1	-1E+10	1	-1E+10	1	-1E+10	1
4902554	33	C	12/31/2021	17:54	-136.271	49.455	0	1695.00	0	2.1780	0	34.5360	0	27.595	0	1673.756	0	-1e10	8	-1e10	8	-1E+10	1	-1E+10	1	-1E+10	1	-1E+10	1	-1E+10	1	-1E+10	1
4902554	33	C	12/31/2021	17:54	-136.271	49.455	0	1705.10	0	2.1600	0	34.5400	0	27.600	0	1683.689	0	-1e10	8	-1e10	8	-1E+10	1	-1E+10	1	-1E+10	1	-1E+10	1	-1E+10	1	-1E+10	1
4902554	33	C	12/31/2021	17:54	-136.271	49.455	0	1715.40	0	2.1500	0	34.5410	0	27.601	0	1693.818	0	-1e10	8	-1e10	8	-1E+10	1	-1E+10	1	-1E+10	1	-1E+10	1	-1E+10	1	-1E+10	1
4902554	33	C	12/31/2021	17:54	-136.271	49.455	0	1725.40	0	2.1440	0	34.5430	0	27.603	0	1703.653	0	-1e10	8	-1e10	8	-1E+10	1	-1E+10	1	-1E+10	1	-1E+10	1	-1E+10	1	-1E+10	1
4902554	33	C	12/31/2021	17:54	-136.271	49.455	0	1735.30	0	2.1360	0	34.5440	0	27.605	0	1713.388	0	-1e10	8	-1e10	8	-1E+10	1	-1E+10	1	-1E+10	1	-1E+10	1	-1E+10	1	-1E+10	1
4902554	33	C	12/31/2021	17:54	-136.271	49.455	0	1745.40	0	2.1240	0	34.5470	0	27.608	0	1723.319	0	-1e10	8	-1e10	8	-1E+10	1	-1E+10	1	-1E+10	1	-1E+10	1	-1E+10	1	-1E+10	1
4902554	33	C	12/31/2021	17:54	-136.271	49.455	0	1755.10	0	2.1130	0	34.5490	0	27.611	0	1732.857	0	-1e10	8	-1e10	8	-1E+10	1	-1E+10	1	-1E+10	1	-1E+10	1	-1E+10	1	-1E+10	1
4902554	33	C	12/31/2021	17:54	-136.271	49.455	0	1765.40	0	2.1070	0	34.5500	0	27.612	0	1742.984	0	-1e10	8	-1e10	8	-1E+10	1	-1E+10	1	-1E+10	1	-1E+10	1	-1E+10	1	-1E+10	1
4902554	33	C	12/31/2021	17:54	-136.271	49.455	0	1775.60	0	2.1020	0	34.5510	0	27.613	0	1753.013	0	-1e10	8	-1e10	8	-1E+10	1	-1E+10	1	-1E+10	1	-1E+10	1	-1E+10	1	-1E+10	1
4902554	33	C	12/31/2021	17:54	-136.271	49.455	0	1785.60	0	2.0940	0	34.5530	0	27.616	0	1762.844	0	-1e10	8	-1e10	8	-1E+10	1	-1E+10	1	-1E+10	1	-1E+10	1	-1E+10	1	-1E+10	1
4902554	33	C	12/31/2021	17:54	-136.271	49.455	0	1795.30	0	2.0840	0	34.5550	0	27.618	0	1772.380	0	-1e10	8	-1e10	8	-1E+10	1	-1E+10	1	-1E+10	1	-1E+10	1	-1E+10	1	-1E+10	1
4902554	33	C	12/31/2021	17:54	-136.271	49.455	0	1805.10	0	2.0750	0	34.5560	0	27.620	0	1782.014	0	-1e10	8	-1e10	8	-1E+10	1	-1E+10	1	-1E+10	1	-1E+10	1	-1E+10	1	-1E+10	1
4902554	33	C	12/31/2021	17:54	-136.271	49.455	0	1815.50	0	2.0690	0	34.5580	0	27.622	0	1792.237	0	-1e10	8	-1e10	8	-1E+10	1	-1E+10	1	-1E+10	1	-1E+10	1	-1E+10	1	-1E+10	1
4902554	33	C	12/31/2021	17:54	-136.271	49.455	0	1825.30	0	2.0600	0	34.5590	0	27.623	0	1801.870	0	-1e10	8	-1e10	8	-1E+10	1	-1E+10	1	-1E+10	1	-1E+10	1	-1E+10	1	-1E+10	1
4902554	33	C	12/31/2021	17:54	-136.271	49.455	0	1835.10	0	2.0510	0	34.5610	0	27.626	0	1811.502	0	-1e10	8	-1e10	8	-1E+10	1	-1E+10	1	-1E+10	1	-1E+10	1	-1E+10	1	-1E+10	1
4902554	33	C	12/31/2021	17:54	-136.271	49.455	0	1845.50	0	2.0410	0	34.5630	0	27.628	0	1821.724	0	-1e10	8	-1e10	8	-1E+10	1	-1E+10	1	-1E+10	1	-1E+10	1	-1E+10	1	-1E+10	1
4902554	33	C	12/31/2021	17:54	-136.271	49.455	0	1855.60	0	2.0340	0	34.5650	0	27.630	0	1831.650	0	-1e10	8	-1e10	8	-1E+10	1	-1E+10	1	-1E+10	1	-1E+10	1	-1E+10	1	-1E+10	1
4902554	33	C	12/31/2021	17:54	-136.271	49.455	0	1865.30	0	2.0300	0	34.5660	0	27.631	0	1841.183	0	-1e10	8	-1e10	8	-1E+10	1	-1E+10	1	-1E+10	1	-1E+10	1	-1E+10	1	-1E+10	1
4902554	33	C	12/31/2021	17:54	-136.271	49.455	0	1875.10	0	2.0270	0	34.5660	0	27.632	0	1850.814	0	-1e10	8	-1e10	8	-1E+10	1	-1E+10	1	-1E+10	1	-1E+10	1	-1E+10	1	-1E+10	1
4902554	33	C	12/31/2021	17:54	-136.271	49.455	0	1885.00	0	2.0160	0	34.5680	0	27.634	0	1860.542	0	-1e10	8	-1e10	8	-1E+10	1	-1E+10	1	-1E+10	1	-1E+10	1	-1E+10	1	-1E+10	1
4902554	33	C	12/31/2021	17:54	-136.271	49.455	0	1895.60	0	2.0070	0	34.5700	0	27.637	0	1870.958	0	-1e10	8	-1e10	8	-1E+10	1	-1E+10	1	-1E+10	1	-1E+10	1	-1E+10	1	-1E+10	1
4902554	33	C	12/31/2021	17:54	-136.271	49.455	0	1905.50	0	2.0020	0	34.5710	0	27.638	0	1880.686	0	-1e10	8	-1e10	8	-1E+10	1	-1E+10	1	-1E+10	1	-1E+10	1	-1E+10	1	-1E+10	1
4902554	33	C	12/31/2021	17:54	-136.271	49.455	0	1915.30	0	1.9930	0	34.5730	0	27.640	0	1890.315	0	-1e10	8	-1e10	8	-1E+10	1	-1E+10	1	-1E+10	1	-1E+10	1	-1E+10	1	-1E+10	1
4902554	33	C	12/31/2021	17:54	-136.271	49.455	0	1925.40	0	1.9820	0	34.5750	0	27.643	0	1900.238	0	-1e10	8	-1e10	8	-1E+10	1	-1E+10	1	-1E+10	1	-1E+10	1	-1E+10	1	-1E+10	1
4902554	33	C	12/31/2021	17:54	-136.271	49.455	0	1935.40	0	1.9780	0	34.5760	0	27.644	0	1910.062	0	-1e10	8	-1e10	8	-1E+10	1	-1E+10	1	-1E+10	1	-1E+10	1	-1E+10	1	-1E+10	1
4902554	33	C	12/31/2021	17:54	-136.271	49.455	0	1945.60	0	1.9690	0	34.5780	0	27.646	0	1920.083	0	-1e10	8	-1e10	8	-1E+10	1	-1E+10	1	-1E+10	1	-1E+10	1	-1E+10	1	-1E+10	1
4902554	33	C	12/31/2021	17:54	-136.271	49.455	0	1955.60	0	1.9640	0	34.5790	0	27.648	0	1929.906	0	-1e10	8	-1e10	8	-1E+10	1	-1E+10	1	-1E+10	1	-1E+10	1	-1E+10	1	-1E+10	1
4902554	33	C	12/31/2021	17:54	-136.271	49.455	0	1965.30	0	1.9580	0	34.5800	0	27.649	0	1939.435	0	-1e10	8	-1e10	8	-1E+10	1	-1E+10	1	-1E+10	1	-1E+10	1	-1E+10	1	-1E+10	1
4902554	33	C	12/31/2021	17:54	-136.271	49.455	0	1975.20	0	1.9500	0	34.5820	0	27.651	0	1949.159	0	-1e10	8	-1e10	8	-1E+10	1	-1E+10	1	-1E+10	1	-1E+10	1	-1E+10	1	-1E+10	1
4902554	33	C	12/31/2021	17:54	-136.271	49.455	0	1985.10	0	1.9440	0	34.5830	0	27.652	0	1958.883	0	-1e10	8	-1e10	8	-1E+10	1	-1E+10	1	-1E+10	1	-1E+10	1	-1E+10	1	-1E+10	1
4902554	33	C	12/31/2021	17:54	-136.271	49.455	0	1995.10	0	1.9380	0	34.5840	0	27.654	0	1968.705	0	-1e10	8	-1e10	8	-1E+10	1	-1E+10	1	-1E+10	1	-1E+10	1	-1E+10	1	-1E+10	1
4902554	33	C	12/31/2021	17:54	-136.271	49.455	0	2004.70	0	1.9300	0	34.5860	0	27.656	0	1978.133	0	-1e10	8	-1e10	8	-1E+10	1	-1E+10	1	-1E+10	1	-1E+10	1	-1E+10	1	-1E+10	1
4902554	33	C	12/31/2021	17:54	-136.271	49.455	0																										
4902554	34	C	01/10/2022	22:56	-136.214	49.485	0	0.20	0	6.7950	0	32.3440	0	25.354	0	0.198	0	-1e10	8	-1e10	8	-1E+10	1	-1E+10	1	-1E+10	1	-1E+10	1	-1E+10	1	-1E+10	1
4902554	34	C	01/10/2022	22:56	-136.214	49.485	0	0.30	0	6.7950	0	32.3500	0	25.359	0	0.297	0	-1e10	1	-1e10	1	-1E+10	1	-1E+10	1	-1E+10	1	-1E+10	1	-1E+10	1	-1E+10	1
4902554	34	C	01/10/2022	22:56	-136.214	49.485	0	0.40	0	6.7960	0	32.3500	0	25.359	0	0.397	0	-1e10	8	-1e10	8	-1E+10	1	-1E+10	1	-1E+10	1	-1E+10	1	-1E+10	1	-1E+10	1
4902554	34	C	01/10/2022	22:56	-136.214	49.485	0	1.20	0	6.7960	0	32.3500	0	25.359	0	1.190	0	-1e10	8	-1e10	8	-1E+10	1	-1E+10	1	-1E+10	1	-1E+10	1	-1E+10	1	-1E+10	1
4902554	34	C	01/10/2022	22:56	-136.214	49.485	0	2.00	0	6.7950	0	32.3500	0	25.359	0	1.983	0	-1e10	8	-1e10	8	-1E+10	1	-1E+10	1	-1E+10	1	-1E+10	1	-1E+10	1	-1E+10	1
4902554	34	C	01/10/2022	22:56	-136.214	49.485	0	3.40	0	6.7960	0	32.3510	0	25.360	0	3.371	0	-1e10	8	-1e10	8	-1E+10	1	-1E+10	1	-1E+10	1	-1E+10	1	-1E+10	1	-1E+10	1
4902554	34	C	01/10/2022	22:56	-136.214	49.485	0	4.00	0	6.7960	0	32.3510	0	25.360	0	3.966	0	-1e10	8	-1e10	8	-1E+10	1	-1E+10	1	-1E+10	1	-1E+10	1	-1E+10	1	-1E+10	1
4902554	34	C	01/10/2022	22:56	-136.214	49.485	0	5.10	0	6.7980	0	32.3520	0	25.360	0	5.056	0	-1e10	8	-1e10	8	-1E+10	1	-1E+10	1	-1E+10	1	-1E+10	1	-1E+10	1	-1E+10	1
4902554	34	C	01/10/2022	22:56	-136.214	49.485	0	5.90	0	6.7970	0	32.3520	0	25.360	0	5.850	0	-1e10	8	-1e10	8	-1E+10	1	-1E+10	1	-1E+10	1	-1E+10	1	-1E+10	1	-1E+10	1
4902554	34	C	01/10/2022	22:56	-136.214	49.485	0	7.00	0	6.7970	0	32.3530	0	25.361	0	6.940	0	-1e10	8	-1e10	8	-1E+10	1	-1E+10	1	-1E+10	1	-1E+10	1	-1E+10	1	-1E+10	1
4902554	34	C	01/10/2022	22:56	-136.214	49.485	0	8.20	0	6.7970	0	32.3530	0	25.361	0	8.130	0	-1e10	8	-1e10	8	-1E+10	1	-1E+10	1	-1E+10	1	-1E+10	1	-1E+10	1	-1E+10	1
4902554	34	C	01/10/2022	22:56	-136.214	49.485	0	9.00	0	6.7970	0	32.3530	0	25.361	0	8.923	0	-1e10	8	-1e10	8	-1E+10	1	-1E+10	1	-1E+10	1	-1E+10	1	-1E+10	1	-1E+10	1
4902554	34	C	01/10/2022	22:56	-136.214	49.485	0	10.00	0	6.7970	0	32.3530	0	25.361	0	9.914	0	-1e10	8	-1e10	8	-1E+10	1	-1E+10	1	-1E+10	1	-1E+10	1	-1E+10	1	-1E+10	1
4902554	34	C	01/10/2022	22:56	-136.214	49.485	0	11.10	0	6.7960	0	32.3530	0	25.361	0	11.005	0	-1e10	8	-1e10	8	-1E+10	1	-1E+10	1	-1E+10	1	-1E+10	1	-1E+10	1	-1E+10	1
4902554	34	C	01/10/2022	22:56	-136.214	49.485	0	12.00	0	6.7980	0	32.3530	0	25.361	0	11.897	0	-1e10	8	-1e10	8	-1E+10	1	-1E+10	1	-1E+10	1	-1E+10	1	-1E+10	1	-1E+10	1
4902554	34	C	01/10/2022	22:56	-136.214	49.485	0	12.80	0	6.7970	0	32.3530	0	25.361	0	12.690	0	-1e10	8	-1e10	8	-1E+10	1	-1E+10	1	-1E+10	1	-1E+10	1	-1E+10	1	-1E+10	1
4902554	34	C	01/10/2022	22:56	-136.214	49.485	0	14.00	0	6.7990	0	32.3530	0	25.361	0	13.880	0	-1e10	8	-1e10	8	-1E+10	1	-1E+10	1	-1E+10	1	-1E+10	1	-1E+10	1	-1E+10	1
4902554	34	C	01/10/2022	22:56	-136.214	49.485	0	14.90	0	6.7980	0	32.3530	0	25.361	0	14.772	0	-1e10	8	-1e10	8	-1E+10	1	-1E+10	1	-1E+10	1	-1E+10	1	-1E+10	1	-1E+10	1
4902554	34	C	01/10/2022	22:56	-136.214	49.485	0	15.80	0	6.7990	0	32.3530	0	25.361	0	15.665	0	-1e10	8	-1e10	8	-1E+10	1	-1E+10	1	-1E+10	1	-1E+10	1	-1E+10	1	-1E+10	1
4902554	34	C	01/10/2022	22:56	-136.214	49.485	0	16.70	0	6.7990	0	32.3530	0	25.361	0	16.557	0	-1e10	8	-1e10	8	-1E+10	1	-1E+10	1	-1E+10	1	-1E+10	1	-1E+10	1	-1E+10	1
4902554	34	C	01/10/2022	22:56	-136.214	49.485	0	17.90	0	6.7980	0	32.3540	0	25.362	0	17.747	0	-1e10	8	-1e10	8	-1E+10	1	-1E+10	1	-1E+10	1	-1E+10	1	-1E+10	1	-1E+10	1
4902554	34	C	01/10/2022	22:56	-136.214	49.485	0	18.80	0	6.7980	0	32.3530	0	25.361	0	18.639	0	-1e10	8	-1e10	8	-1E+10	1	-1E+10	1	-1E+10	1	-1E+10	1	-1E+10	1	-1E+10	1
4902554	34	C	01/10/2022	22:56	-136.214	49.485	0	20.00	0	6.7970	0	32.3530	0	25.361	0	19.829	0	-1e10	8	-1e10	8	-1E+10	1	-1E+10	1	-1E+10	1	-1E+10	1	-1E+10	1	-1E+10	1
4902554	34	C	01/10/2022	22:56	-136.214	49.485	0	21.00	0	6.7980	0	32.3530	0	25.361	0	20.820	0	-1e10	8	-1e10	8	-1E+10	1	-1E+10	1	-1E+10	1	-1E+10	1	-1E+10	1	-1E+10	1
4902554	34	C	01/10/2022	22:56	-136.214	49.485	0	22.00	0	6.7980	0	32.3530	0	25.361	0	21.811	0	-1e10	8	-1e10	8	-1E+10	1	-1E+10	1	-1E+10	1	-1E+10	1	-1E+10	1	-1E+10	1
4902554	34	C	01/10/2022	22:56	-136.214	49.485	0	23.00	0	6.7970	0	32.3530	0	25.361	0	22.803	0	-1e10	8	-1e10	8	-1E+10	1	-1E+10	1	-1E+10	1	-1E+10	1	-1E+10	1	-1E+10	1
4902554	34	C	01/10/2022	22:56	-136.214	49.485	0	24.10	0	6.7970	0	32.3530	0	25.361	0	23.893	0	-1e10	8	-1e10	8	-1E+10	1	-1E+10	1	-1E+10	1	-1E+10	1	-1E+10	1	-1E+10	1
4902554	34	C	01/10/2022	22:56	-136.214	49.485	0	25.10	0	6.7970	0	32.3530	0	25.361	0	24.884	0	-1e10	8	-1e10	8	-1E+10	1	-1E+10	1	-1E+10	1	-1E+10	1	-1E+10	1	-1E+10	1
4902554	34	C	01/10/2022	22:56	-136.214	49.485	0	25.90	0	6.7970	0	32.3540	0	25.362	0	25.678	0	-1e10	8	-1e10	8	-1E+10	1	-1E+10	1	-1E+10	1	-1E+10	1	-1E+10	1	-1E+10	1
4902554	34	C	01/10/2022	22:56	-136.214	49.485	0	27.10	0	6.7980	0	32.3530	0	25.361	0	26.867	0	-1e10	8	-1e10	8	-1E+10	1	-1E+10	1	-1E+10	1	-1E+10	1	-1E+10	1	-1E+10	1
4902554	34	C	01/10/2022	22:56	-136.214	49.485	0	28.00	0	6.7980	0	32.3540	0	25.362	0	27.759	0	-1e10	8	-1e10	8	-1E+10	1	-1E+10	1	-1E+10	1	-1E+10	1	-1E+10	1	-1E+10	1
4902554	34	C	01/10/2022	22:56	-136.214	49.485	0	28.80	0	6.7980	0	32.3530	0	25.361	0	28.552	0	-1e10	8	-1e10	8	-1E+10	1	-1E+10	1	-1E+10	1	-1E+10	1	-1E+10	1	-1E+10	1
4902554	34	C	01/10/2022	22:56	-136.214	49.485	0	30.00	0	6.7970	0	32.3530	0	25.361	0	29.742	0	-1e10	8	-1e10	8	-1E+10	1	-1E+10	1	-1E+10	1	-1E+10	1	-1E+10	1	-1E+10	1
4902554	34	C	01/10/2022	22:56	-136.214	49.485	0	31.10	0	6.7980	0	32.3530	0	25.361	0	30.833	0	-1e10	8	-1e10	8	-1E+10	1	-1E+10	1	-1E+10	1	-1E+10	1	-1E+10	1	-1E+10	1
4902554	34	C	01/10/2022	22:56	-136.214	49.485	0	32.30	0	6.7980	0	32.3530	0	25.361	0	32.022	0	-1e10	8	-1e10	8	-1E+10	1	-1E+10	1	-1E+10	1	-1E+10	1	-1E+10	1	-1E+10	1
4902554	34	C	01/10/2022	22:56	-136.214	49.485	0	33.00	0	6.7980	0	32.3530	0	25.361	0	32.716	0	-1e10	8	-1e10	8	-1E+10	1	-1E+10	1	-1E+10	1	-1E+10	1	-1E+10	1	-1E+10	1
4902554	34	C	01/10/2022	22:56	-136.214	49.485	0	34.20	0	6.7980	0	32.3540	0	25.362	0	33.906	0	-1e10	8	-1e10	8	-1E+10	1	-1E+10	1	-1E+10	1	-1E+10	1	-1E+10	1	-1E+10	1
4902554	34	C	01/10/2022	22:56	-136.214	49.485	0	34.80	0	6.7960	0	32.3540	0	25.362	0	34.500	0	-1e10	8	-1e10	8	-1E+10	1	-1E+10	1	-1E+10	1	-1E+10	1	-1E+10	1	-1E+10	1
4902554	34	C	01/10/2022	22:56	-136.214	49.485	0	36.10	0	6.7960	0	32.3540	0	25.362	0	35.789	0	-1e10	8	-1e10	8	-1E+10	1	-1E+10	1	-1E+10	1	-1E+10	1	-1E+10	1	-1E+10	1
4902554	34	C	01/10/2022	22:56	-136.214	49.485	0	37.10	0	6.7960	0	32.3530	0	25.362	0	36.780	0	-1e10	8	-1e10	8	-1E+10	1	-1E+10	1	-1E+10	1	-1E+10	1	-1E+10	1	-1E+10	1
4902554	34	C	01/10/2022	22:56	-136.214	49.485	0	37.90	0	6.7970	0	32.3540	0	25.362	0	37.573	0	-1e10	8	-1e10	8	-1E+10	1	-1E+10	1	-1E+10	1	-1E+10	1	-1E+10	1	-1E+10	1
4902554	34	C	01/10/2022	22:56	-136.214	49.485	0	38.70	0	6.7970	0	32.3530	0	25.362	0	38.366	0	-1e10	8	-1e10	8	-1E+10	1	-1E+10	1	-1E+10	1	-1E+10	1	-1E+10	1	-1E+10	1
4902554	34	C	01/10/2022	22:56	-136.214	49.485	0	39.90	0	6.7980	0	32.3540	0	25.362	0	39.556	0	-1e10	8	-1e10	8	-1E+10	1	-1E+10	1	-1E+10	1	-1E+10	1	-1E+10	1	-1E+10	1
4902554	34	C	01/10/2022	22:56	-136.214	49.485	0	41.00	0	6.7980	0	32.3530	0	25.361	0	40.646	0	-1e10	8	-1e10	8	-1E+10	1	-1E+10	1	-1E+10	1	-1E+10	1	-1E+10	1	-1E+10	1
4902554	34	C	01/10/2022	22:56	-136.214	49.485	0	42.00	0	6.7980	0	32.3530	0	25.361	0	41.638	0	-1e10	8	-1e10	8	-1E+10	1	-1E+10	1	-1E+10	1	-1E+10	1	-1E+10	1	-1E+10	1
4902554	34	C	01/10/2022	22:56	-136.214	49.485	0	42.90	0	6.7980	0	32.3530	0	25.361	0	42.530	0	-1e10	8	-1e10	8	-1E+10	1	-1E+10	1	-1E+10	1	-1E+10	1	-1E+10	1	-1E+10	1
4902554	34	C	01/10/2022	22:56	-136.214	49.485	0	44.00	0	6.7980	0	32.3530	0	25.361	0	43.620	0	-1e10	8	-1e10	8	-1E+10	1	-1E+10	1	-1E+10	1	-1E+10	1	-1E+10	1	-1E+10	1
4902554	34	C	01/10/2022	22:56	-136.214	49.485	0	45.10	0	6.7980	0	32.3540	0	25.362	0	44.711	0	-1e10	8	-1e10	8	-1E+10	1	-1E+10	1	-1E+10	1	-1E+10	1	-1E+10	1	-1E+10	1
4902554	34	C	01/10/2022	22:56	-136.214	49.485	0	45.80	0	6.7980	0	32.3530	0	25.362	0	45.404	0	-1e10	8	-1e10	8	-1E+10	1	-1E+10	1	-1E+10	1	-1E+10	1	-1E+10	1	-1E+10	1
4902554	34	C	01/10/2022	22:56	-136.214	49.485	0	46.90	0	6.7930	0	32.3540	0	25.363	0	46.495	0	-1e10	8	-1e10	8	-1E+10	1	-1E+10	1	-1E+10	1	-1E+10	1	-1E+10	1	-1E+10	1
4902554	34	C	01/10/2022	22:56	-136.214	49.485	0	48.00	0	6.7940	0	32.3540	0	25.363	0	47.585	0	-1e10	8	-1e10	8	-1E+10	1	-1E+10	1	-1E+10	1	-1E+10	1	-1E+10	1	-1E+10	1
4902554	34	C	01/10/2022	22:56	-136.214	49.485	0	48.80	0	6.7900	0	32.3540	0	25.363	0	48.378	0	-1e10	8	-1e10	8	-1E+10	1	-1E+10	1	-1E+10	1	-1E+10	1	-1E+10	1	-1E+10	1
4902554	34	C	01/10/2022	22:56	-136.214	49.485	0	50.00	0	6.7920	0	32.3540	0	25.363	0	49.568	0	-1e10	8	-1e10	8	-1E+10	1	-1E+10	1	-1E+10	1	-1E+10	1	-1E+10	1	-1E+10	1
4902554	34	C	01/10/2022	22:56	-136.214	49.485	0	51.10	0	6.7880	0	32.3560	0	25.365	0	50.658	0	-1e10	8	-1e10	8	-1E+10	1	-1E+10	1	-1E+10	1	-1E+10	1	-1E+10	1	-1E+10	1
4902554	34	C	01/10/2022	22:56	-136.214	49.485	0	51.80	0	6.7870	0	32.3550	0	25.365	0	51.352	0	-1e10	8	-1e10	8	-1E+10	1	-1E+10	1	-1E+10	1	-1E+10	1	-1E+10	1	-1E+10	1
4902554	34	C	01/10/2022	22:56	-136.214	49.485	0	52.80	0	6.7870	0	32.3550	0	25.365	0	52.343	0	-1e10	8	-1e10	8	-1E+10	1	-1E+10	1	-1E+10	1	-1E+10	1	-1E+10	1	-1E+10	1
4902554	34	C	01/10/2022	22:56	-136.214	49.485	0	53.90	0	6.7820	0	32.3570	0	25.367	0	53.433	0	-1e10	8	-1e10	8	-1E+10	1	-1E+10	1	-1E+10	1	-1E+10	1	-1E+10	1	-1E+10	1
4902554	34	C	01/10/2022	22:56	-136.214	49.485	0	54.90	0	6.7820	0	32.3560	0	25.366	0	54.425	0	-1e10	8	-1e10	8	-1E+10	1	-1E+10	1	-1E+10	1	-1E+10	1	-1E+10	1	-1E+10	1
4902554	34	C	01/10/2022	22:56	-136.214	49.485	0	56.00	0	6.7830	0	32.3560	0	25.366	0	55.515	0	-1e10	8	-1e10	8	-1E+10	1	-1E+10	1	-1E+10	1	-1E+10	1	-1E+10	1	-1E+10	1
4902554	34	C	01/10/2022	22:56	-136.214	49.485	0	57.00	0	6.7830	0	32.3550	0	25.365	0	56.506	0	-1e10	8	-1e10	8	-1E+10	1	-1E+10	1	-1E+10	1	-1E+10	1	-1E+10	1	-1E+10	1
4902554	34	C	01/10/2022	22:56	-136.214	49.485	0	58.00	0	6.7820	0	32.3560	0	25.366	0	57.497	0	-1e10	8	-1e10	8	-1E+10	1	-1E+10	1	-1E+10	1	-1E+10	1	-1E+10	1	-1E+10	1
4902554	34	C	01/10/2022	22:56	-136.214	49.485	0	58.90	0	6.7800	0	32.3570	0	25.367	0	58.389	0	-1e10	8	-1e10	8	-1E+10	1	-1E+10	1	-1E+10	1	-1E+10	1	-1E+10	1	-1E+10	1
4902554	34	C	01/10/2022	22:56	-136.214	49.485	0	59.90	0	6.7780	0	32.3570	0	25.367	0	59.381	0	-1e10	8	-1e10	8	-1E+10	1	-1E+10	1	-1E+10	1	-1E+10	1	-1E+10	1	-1E+10	1
4902554	34	C	01/10/2022	22:56	-136.214	49.485	0	60.90	0	6.7780	0	32.3570	0	25.367	0	60.372	0	-1e10	8	-1e10	8	-1E+10	1	-1E+10	1	-1E+10	1	-1E+10	1	-1E+10	1	-1E+10	1
4902554	34	C	01/10/2022	22:56	-136.214	49.485	0	61.90	0	6.7780	0	32.3570	0	25.367	0	61.363	0	-1e10	8	-1e10	8	-1E+10	1	-1E+10	1	-1E+10	1	-1E+10	1	-1E+10	1	-1E+10	1
4902554	34	C	01/10/2022	22:56	-136.214	49.485	0	62.80	0	6.7780	0	32.3570	0	25.367	0	62.255	0	-1e10	8	-1e10	8	-1E+10	1	-1E+10	1	-1E+10	1	-1E+10	1	-1E+10	1	-1E+10	1
4902554	34	C	01/10/2022	22:56	-136.214	49.485	0	63.80	0	6.7780	0	32.3570	0	25.367	0	63.246	0	-1e10	8	-1e10	8	-1E+10	1	-1E+10	1	-1E+10	1	-1E+10	1	-1E+10	1	-1E+10	1
4902554	34	C	01/10/2022	22:56	-136.214	49.485	0	64.80	0	6.7770	0	32.3570	0	25.368	0	64.237	0	-1e10	8	-1e10	8	-1E+10	1	-1E+10	1	-1E+10	1	-1E+10	1	-1E+10	1	-1E+10	1
4902554	34	C	01/10/2022	22:56	-136.214	49.485	0	65.80	0	6.7780	0	32.3560	0	25.367	0	65.229	0	-1e10	8	-1e10	8	-1E+10	1	-1E+10	1	-1E+10	1	-1E+10	1	-1E+10	1	-1E+10	1
4902554	34	C	01/10/2022	22:56	-136.214	49.485	0	66.90	0	6.7720	0	32.3570	0	25.368	0	66.319	0	-1e10	8	-1e10	8	-1E+10	1	-1E+10	1	-1E+10	1	-1E+10	1	-1E+10	1	-1E+10	1
4902554	34	C	01/10/2022	22:56	-136.214	49.485	0	68.00	0	6.7660	0	32.3600	0	25.371	0	67.409	0	-1e10	8	-1e10	8	-1E+10	1	-1E+10	1	-1E+10	1	-1E+10	1	-1E+10	1	-1E+10	1
4902554	34	C	01/10/2022	22:56	-136.214	49.485	0	68.80	0	6.7570	0	32.3620	0	25.374	0	68.202	0	-1e10	8	-1e10	8	-1E+10	1	-1E+10	1	-1E+10	1	-1E+10	1	-1E+10	1	-1E+10	1
4902554	34	C	01/10/2022	22:56	-136.214	49.485	0	69.80	0	6.7470	0	32.3660	0	25.379	0	69.193	0	-1e10	8	-1e10	8	-1E+10	1	-1E+10	1	-1E+10	1	-1E+10	1	-1E+10	1	-1E+10	1
4902554	34	C	01/10/2022	22:56	-136.214	49.485	0	70.90	0	6.7360	0	32.3700	0	25.383	0	70.283	0	-1e10	8	-1e10	8	-1E+10	1	-1E+10	1	-1E+10	1	-1E+10	1	-1E+10	1	-1E+10	1
4902554	34	C	01/10/2022	22:56	-136.214	49.485	0	72.00	0	6.7260	0	32.3740	0	25.388	0	71.374	0	-1e10	8	-1e10	8	-1E+10	1	-1E+10	1	-1E+10	1	-1E+10	1	-1E+10	1	-1E+10	1
4902554	34	C	01/10/2022	22:56	-136.214	49.485	0	73.10	0	6.7190	0	32.3770	0	25.391	0	72.464	0	-1e10	8	-1e10	8	-1E+10	1	-1E+10	1	-1E+10	1	-1E+10	1	-1E+10	1	-1E+10	1
4902554	34	C	01/10/2022	22:56	-136.214	49.485	0	73.80	0	6.7170	0	32.3770	0	25.391	0	73.158	0	-1e10	8	-1e10	8	-1E+10	1	-1E+10	1	-1E+10	1	-1E+10	1	-1E+10	1	-1E+10	1
4902554	34	C	01/10/2022	22:56	-136.214	49.485	0	74.80	0	6.7040	0	32.3830	0	25.398	0	74.149	0	-1e10	8	-1e10	8	-1E+10	1	-1E+10	1	-1E+10	1	-1E+10	1	-1E+10	1	-1E+10	1
4902554	34	C	01/10/2022	22:56	-136.214	49.485	0	75.90	0	6.6930	0	32.3880	0	25.403	0	75.239	0	-1e10	8	-1e10	8	-1E+10	1	-1E+10	1	-1E+10	1	-1E+10	1	-1E+10	1	-1E+10	1
4902554	34	C	01/10/2022	22:56	-136.214	49.485	0	76.80	0	6.6880	0	32.3900	0	25.405	0	76.131	0	-1e10	8	-1e10	8	-1E+10	1	-1E+10	1	-1E+10	1	-1E+10	1	-1E+10	1	-1E+10	1
4902554	34	C	01/10/2022	22:56	-136.214	49.485	0	78.10	0	6.6830	0	32.3930	0	25.408	0	77.419	0	-1e10	8	-1e10	8	-1E+10	1	-1E+10	1	-1E+10	1	-1E+10	1	-1E+10	1	-1E+10	1
4902554	34	C	01/10/2022	22:56	-136.214	49.485	0	79.00	0	6.6760	0	32.3960	0	25.412	0	78.311	0	-1e10	8	-1e10	8	-1E+10	1	-1E+10	1	-1E+10	1	-1E+10	1	-1E+10	1	-1E+10	1
4902554	34	C	01/10/2022	22:56	-136.214	49.485	0	80.00	0	6.6640	0	32.4030	0	25.419	0	79.303	0	-1e10	8	-1e10	8	-1E+10	1	-1E+10	1	-1E+10	1	-1E+10	1	-1E+10	1	-1E+10	1
4902554	34	C	01/10/2022	22:56	-136.214	49.485	0	80.90	0	6.6470	0	32.4160	0	25.431	0	80.195	0	-1e10	8	-1e10	8	-1E+10	1	-1E+10	1	-1E+10	1	-1E+10	1	-1E+10	1	-1E+10	1
4902554	34	C	01/10/2022	22:56	-136.214	49.485	0	81.80	0	6.5990	0	32.4490	0	25.463	0	81.086	0	-1e10	8	-1e10	8	-1E+10	1	-1E+10	1	-1E+10	1	-1E+10	1	-1E+10	1	-1E+10	1
4902554	34	C	01/10/2022	22:56	-136.214	49.485	0	82.90	0	6.5210	0	32.5020	0	25.515	0	82.177	0	-1e10	8	-1e10	8	-1E+10	1	-1E+10	1	-1E+10	1	-1E+10	1	-1E+10	1	-1E+10	1
4902554	34	C	01/10/2022	22:56	-136.214	49.485	0	84.00	0	6.4020	0	32.5860	0	25.597	0	83.267	0	-1e10	8	-1e10	8	-1E+10	1	-1E+10	1	-1E+10	1	-1E+10	1	-1E+10	1	-1E+10	1
4902554	34	C	01/10/2022	22:56	-136.214	49.485	0	85.10	0	6.2590	0	32.6810	0	25.689	0	84.357	0	-1e10	8	-1e10	8	-1E+10	1	-1E+10	1	-1E+10	1	-1E+10	1	-1E+10	1	-1E+10	1
4902554	34	C	01/10/2022	22:56	-136.214	49.485	0	86.10	0	6.2040	0	32.7220	0	25.729	0	85.348	0	-1e10	8	-1e10	8	-1E+10	1	-1E+10	1	-1E+10	1	-1E+10	1	-1E+10	1	-1E+10	1
4902554	34	C	01/10/2022	22:56	-136.214	49.485	0	87.10	0	6.1590	0	32.7560	0	25.761	0	86.339	0	-1e10	8	-1e10	8	-1E+10	1	-1E+10	1	-1E+10	1	-1E+10	1	-1E+10	1	-1E+10	1
4902554	34	C	01/10/2022	22:56	-136.214	49.485	0	87.90	0	6.0960	0	32.8170	0	25.817	0	87.132	0	-1e10	8	-1e10	8	-1E+10	1	-1E+10	1	-1E+10	1	-1E+10	1	-1E+10	1	-1E+10	1
4902554	34	C	01/10/2022	22:56	-136.214	49.485	0	88.80	0	6.0590	0	32.8940	0	25.883	0	88.024	0	-1e10	8	-1e10	8	-1E+10	1	-1E+10	1	-1E+10	1	-1E+10	1	-1E+10	1	-1E+10	1
4902554	34	C	01/10/2022	22:56	-136.214	49.485	0	90.00	0	6.0490	0	32.9200	0	25.904	0	89.213	0	-1e10	8	-1e10	8	-1E+10	1	-1E+10	1	-1E+10	1	-1E+10	1	-1E+10	1	-1E+10	1
4902554	34	C	01/10/2022	22:56	-136.214	49.485	0	90.90	0	6.0460	0	32.9310	0	25.913	0	90.105	0	-1e10	8	-1e10	8	-1E+10	1	-1E+10	1	-1E+10	1	-1E+10	1	-1E+10	1	-1E+10	1
4902554	34	C	01/10/2022	22:56	-136.214	49.485	0	91.80	0	6.0420	0	32.9420	0	25.923	0	90.997	0	-1e10	8	-1e10	8	-1E+10	1	-1E+10	1	-1E+10	1	-1E+10	1	-1E+10	1	-1E+10	1
4902554	34	C	01/10/2022	22:56	-136.214	49.485	0	93.00	0	6.0370	0	32.9630	0	25.940	0	92.186	0	-1e10	8	-1e10	8	-1E+10	1	-1E+10	1	-1E+10	1	-1E+10	1	-1E+10	1	-1E+10	1
4902554	34	C	01/10/2022	22:56	-136.214	49.485	0	94.10	0	6.0340	0	32.9740	0	25.949	0	93.276	0	-1e10	8	-1e10	8	-1E+10	1	-1E+10	1	-1E+10	1	-1E+10	1	-1E+10	1	-1E+10	1
4902554	34	C	01/10/2022	22:56	-136.214	49.485	0	95.00	0	6.0320	0	32.9820	0	25.955	0	94.168	0	-1e10	8	-1e10	8	-1E+10	1	-1E+10	1	-1E+10	1	-1E+10	1	-1E+10	1	-1E+10	1
4902554	34	C	01/10/2022	22:56	-136.214	49.485	0	95.70	0	6.0290	0	32.9990	0	25.969	0	94.862	0	-1e10	8	-1e10	8	-1E+10	1	-1E+10	1	-1E+10	1	-1E+10	1	-1E+10	1	-1E+10	1
4902554	34	C	01/10/2022	22:56	-136.214	49.485	0	96.80	0	6.0230	0	33.0190	0	25.986	0	95.952	0	-1e10	8	-1e10	8	-1E+10	1	-1E+10	1	-1E+10	1	-1E+10	1	-1E+10	1	-1E+10	1
4902554	34	C	01/10/2022	22:56	-136.214	49.485	0	97.90	0	6.0090	0	33.0570	0	26.018	0	97.042	0	-1e10	8	-1e10	8	-1E+10	1	-1E+10	1	-1E+10	1	-1E+10	1	-1E+10	1	-1E+10	1
4902554	34	C	01/10/2022	22:56	-136.214	49.485	0	99.00	0	6.0100	0	33.0870	0	26.041	0	98.132	0	-1e10	8	-1e10	8	-1E+10	1	-1E+10	1	-1E+10	1	-1E+10	1	-1E+10	1	-1E+10	1
4902554	34	C	01/10/2022	22:56	-136.214	49.485	0	100.00	0	6.0160	0	33.1030	0	26.053	0	99.123	0	-1e10	8	-1e10	8	-1E+10	1	-1E+10	1	-1E+10	1	-1E+10	1	-1E+10	1	-1E+10	1
4902554	34	C	01/10/2022	22:56	-136.214	49.485	0	101.00	0	6.0180	0	33.1230	0	26.069	0	100.114	0	-1e10	8	-1e10	8	-1E+10	1	-1E+10	1	-1E+10	1	-1E+10	1	-1E+10	1	-1E+10	1
4902554	34	C	01/10/2022	22:56	-136.214	49.485	0	101.90	0	6.0190	0	33.1320	0	26.076	0	101.006	0	-1e10	8	-1e10	8	-1E+10	1	-1E+10	1	-1E+10	1	-1E+10	1	-1E+10	1	-1E+10	1
4902554	34	C	01/10/2022	22:56	-136.214	49.485	0	102.80	0	6.0210	0	33.1490	0	26.089	0	101.898	0	-1e10	8	-1e10	8	-1E+10	1	-1E+10	1	-1E+10	1	-1E+10	1	-1E+10	1	-1E+10	1
4902554	34	C	01/10/2022	22:56	-136.214	49.485	0	103.90	0	6.0250	0	33.1760	0	26.110	0	102.988	0	-1e10	8	-1e10	8	-1E+10	1	-1E+10	1	-1E+10	1	-1E+10	1	-1E+10	1	-1E+10	1
4902554	34	C	01/10/2022	22:56	-136.214	49.485	0	104.80	0	6.0290	0	33.2070	0	26.134	0	103.880	0	-1e10	8	-1e10	8	-1E+10	1	-1E+10	1	-1E+10	1	-1E+10	1	-1E+10	1	-1E+10	1
4902554	34	C	01/10/2022	22:56	-136.214	49.485	0	105.90	0	6.0310	0	33.2160	0	26.140	0	104.970	0	-1e10	8	-1e10	8	-1E+10	1	-1E+10	1	-1E+10	1	-1E+10	1	-1E+10	1	-1E+10	1
4902554	34	C	01/10/2022	22:56	-136.214	49.485	0	107.00	0	6.0350	0	33.2300	0	26.151	0	106.060	0	-1e10	8	-1e10	8	-1E+10	1	-1E+10	1	-1E+10	1	-1E+10	1	-1E+10	1	-1E+10	1
4902554	34	C	01/10/2022	22:56	-136.214	49.485	0	108.00	0	6.0390	0	33.2420	0	26.160	0	107.051	0	-1e10	8	-1e10	8	-1E+10	1	-1E+10	1	-1E+10	1	-1E+10	1	-1E+10	1	-1E+10	1
4902554	34	C	01/10/2022	22:56	-136.214	49.485	0	109.10	0	6.0460	0	33.2710	0	26.182	0	108.141	0	-1e10	8	-1e10	8	-1E+10	1	-1E+10	1	-1E+10	1	-1E+10	1	-1E+10	1	-1E+10	1
4902554	34	C	01/10/2022	22:56	-136.214	49.485	0	110.00	0	6.0490	0	33.2880	0	26.195	0	109.033	0	-1e10	8	-1e10	8	-1E+10	1	-1E+10	1	-1E+10	1	-1E+10	1	-1E+10	1	-1E+10	1
4902554	34	C	01/10/2022	22:56	-136.214	49.485	0	110.80	0	6.0500	0	33.2950	0	26.201	0	109.826	0	-1e10	8	-1e10	8	-1E+10	1	-1E+10	1	-1E+10	1	-1E+10	1	-1E+10	1	-1E+10	1
4902554	34	C	01/10/2022	22:56	-136.214	49.485	0	111.90	0	6.0510	0	33.3010	0	26.205	0	110.916	0	-1e10	8	-1e10	8	-1E+10	1	-1E+10	1	-1E+10	1	-1E+10	1	-1E+10	1	-1E+10	1
4902554	34	C	01/10/2022	22:56	-136.214	49.485	0	112.90	0	6.0530	0	33.3220	0	26.222	0	111.907	0	-1e10	8	-1e10	8	-1E+10	1	-1E+10	1	-1E+10	1	-1E+10	1	-1E+10	1	-1E+10	1
4902554	34	C	01/10/2022	22:56	-136.214	49.485	0	113.80	0	6.0580	0	33.3450	0	26.239	0	112.799	0	-1e10	8	-1e10	8	-1E+10	1	-1E+10	1	-1E+10	1	-1E+10	1	-1E+10	1	-1E+10	1
4902554	34	C	01/10/2022	22:56	-136.214	49.485	0	114.80	0	6.0570	0	33.3490	0	26.242	0	113.790	0	-1e10	8	-1e10	8	-1E+10	1	-1E+10	1	-1E+10	1	-1E+10	1	-1E+10	1	-1E+10	1
4902554	34	C	01/10/2022	22:56	-136.214	49.485	0	115.80	0	6.0570	0	33.3660	0	26.256	0	114.780	0	-1e10	8	-1e10	8	-1E+10	1	-1E+10	1	-1E+10	1	-1E+10	1	-1E+10	1	-1E+10	1
4902554	34	C	01/10/2022	22:56	-136.214	49.485	0	116.80	0	6.0620	0	33.3850	0	26.270	0	115.771	0	-1e10	8	-1e10	8	-1E+10	1	-1E+10	1	-1E+10	1	-1E+10	1	-1E+10	1	-1E+10	1
4902554	34	C	01/10/2022	22:56	-136.214	49.485	0	117.90	0	6.0660	0	33.3940	0	26.277	0	116.861	0	-1e10	8	-1e10	8	-1E+10	1	-1E+10	1	-1E+10	1	-1E+10	1	-1E+10	1	-1E+10	1
4902554	34	C	01/10/2022	22:56	-136.214	49.485	0	119.10	0	6.0670	0	33.4290	0	26.304	0	118.050	0	-1e10	8	-1e10	8	-1E+10	1	-1E+10	1	-1E+10	1	-1E+10	1	-1E+10	1	-1E+10	1
4902554	34	C	01/10/2022	22:56	-136.214	49.485	0	120.30	0	6.0670	0	33.4420	0	26.315	0	119.240	0	-1e10	8	-1e10	8	-1E+10	1	-1E+10	1	-1E+10	1	-1E+10	1	-1E+10	1	-1E+10	1
4902554	34	C	01/10/2022	22:56	-136.214	49.485	0	121.00	0	6.0650	0	33.4550	0	26.325	0	119.933	0	-1e10	8	-1e10	8	-1E+10	1	-1E+10	1	-1E+10	1	-1E+10	1	-1E+10	1	-1E+10	1
4902554	34	C	01/10/2022	22:56	-136.214	49.485	0	122.10	0	6.0630	0	33.4680	0	26.336	0	121.023	0	-1e10	8	-1e10	8	-1E+10	1	-1E+10	1	-1E+10	1	-1E+10	1	-1E+10	1	-1E+10	1
4902554	34	C	01/10/2022	22:56	-136.214	49.485	0	123.00	0	6.0610	0	33.4910	0	26.354	0	121.915	0	-1e10	8	-1e10	8	-1E+10	1	-1E+10	1	-1E+10	1	-1E+10	1	-1E+10	1	-1E+10	1
4902554	34	C	01/10/2022	22:56	-136.214	49.485	0	123.80	0	6.0570	0	33.5010	0	26.363	0	122.708	0	-1e10	8	-1e10	8	-1E+10	1	-1E+10	1	-1E+10	1	-1E+10	1	-1E+10	1	-1E+10	1
4902554	34	C	01/10/2022	22:56	-136.214	49.485	0	124.90	0	6.0550	0	33.5080	0	26.368	0	123.798	0	-1e10	8	-1e10	8	-1E+10	1	-1E+10	1	-1E+10	1	-1E+10	1	-1E+10	1	-1E+10	1
4902554	34	C	01/10/2022	22:56	-136.214	49.485	0	126.00	0	6.0560	0	33.5150	0	26.374	0	124.888	0	-1e10	8	-1e10	8	-1E+10	1	-1E+10	1	-1E+10	1	-1E+10	1	-1E+10	1	-1E+10	1
4902554	34	C	01/10/2022	22:56	-136.214	49.485	0	127.10	0	6.0520	0	33.5190	0	26.377	0	125.978	0	-1e10	8	-1e10	8	-1E+10	1	-1E+10	1	-1E+10	1	-1E+10	1	-1E+10	1	-1E+10	1
4902554	34	C	01/10/2022	22:56	-136.214	49.485	0	128.00	0	6.0480	0	33.5240	0	26.382	0	126.869	0	-1e10	8	-1e10	8	-1E+10	1	-1E+10	1	-1E+10	1	-1E+10	1	-1E+10	1	-1E+10	1
4902554	34	C	01/10/2022	22:56	-136.214	49.485	0	128.90	0	6.0300	0	33.5400	0	26.397	0	127.761	0	-1e10	8	-1e10	8	-1E+10	1	-1E+10	1	-1E+10	1	-1E+10	1	-1E+10	1	-1E+10	1
4902554	34	C	01/10/2022	22:56	-136.214	49.485	0	129.90	0	6.0040	0	33.5490	0	26.407	0	128.752	0	-1e10	8	-1e10	8	-1E+10	1	-1E+10	1	-1E+10	1	-1E+10	1	-1E+10	1	-1E+10	1
4902554	34	C	01/10/2022	22:56	-136.214	49.485	0	130.80	0	5.9980	0	33.5520	0	26.410	0	129.644	0	-1e10	8	-1e10	8	-1E+10	1	-1E+10	1	-1E+10	1	-1E+10	1	-1E+10	1	-1E+10	1
4902554	34	C	01/10/2022	22:56	-136.214	49.485	0	131.80	0	5.9830	0	33.5720	0	26.428	0	130.635	0	-1e10	8	-1e10	8	-1E+10	1	-1E+10	1	-1E+10	1	-1E+10	1	-1E+10	1	-1E+10	1
4902554	34	C	01/10/2022	22:56	-136.214	49.485	0	132.80	0	5.9630	0	33.5960	0	26.449	0	131.625	0	-1e10	8	-1e10	8	-1E+10	1	-1E+10	1	-1E+10	1	-1E+10	1	-1E+10	1	-1E+10	1
4902554	34	C	01/10/2022	22:56	-136.214	49.485	0	133.90	0	5.9570	0	33.6030	0	26.456	0	132.715	0	-1e10	8	-1e10	8	-1E+10	1	-1E+10	1	-1E+10	1	-1E+10	1	-1E+10	1	-1E+10	1
4902554	34	C	01/10/2022	22:56	-136.214	49.485	0	135.00	0	5.9520	0	33.6100	0	26.462	0	133.805	0	-1e10	8	-1e10	8	-1E+10	1	-1E+10	1	-1E+10	1	-1E+10	1	-1E+10	1	-1E+10	1
4902554	34	C	01/10/2022	22:56	-136.214	49.485	0	136.10	0	5.9490	0	33.6160	0	26.467	0	134.895	0	-1e10	8	-1e10	8	-1E+10	1	-1E+10	1	-1E+10	1	-1E+10	1	-1E+10	1	-1E+10	1
4902554	34	C	01/10/2022	22:56	-136.214	49.485	0	136.90	0	5.9440	0	33.6180	0	26.469	0	135.688	0	-1e10	8	-1e10	8	-1E+10	1	-1E+10	1	-1E+10	1	-1E+10	1	-1E+10	1	-1E+10	1
4902554	34	C	01/10/2022	22:56	-136.214	49.485	0	138.00	0	5.9430	0	33.6200	0	26.471	0	136.778	0	-1e10	8	-1e10	8	-1E+10	1	-1E+10	1	-1E+10	1	-1E+10	1	-1E+10	1	-1E+10	1
4902554	34	C	01/10/2022	22:56	-136.214	49.485	0	139.10	0	5.9430	0	33.6220	0	26.472	0	137.868	0	-1e10	8	-1e10	8	-1E+10	1	-1E+10	1	-1E+10	1	-1E+10	1	-1E+10	1	-1E+10	1
4902554	34	C	01/10/2022	22:56	-136.214	49.485	0	139.80	0	5.9420	0	33.6220	0	26.473	0	138.561	0	-1e10	8	-1e10	8	-1E+10	1	-1E+10	1	-1E+10	1	-1E+10	1	-1E+10	1	-1E+10	1
4902554	34	C	01/10/2022	22:56	-136.214	49.485	0	140.90	0	5.9400	0	33.6230	0	26.474	0	139.651	0	-1e10	8	-1e10	8	-1E+10	1	-1E+10	1	-1E+10	1	-1E+10	1	-1E+10	1	-1E+10	1
4902554	34	C	01/10/2022	22:56	-136.214	49.485	0	142.10	0	5.9380	0	33.6250	0	26.476	0	140.840	0	-1e10	8	-1e10	8	-1E+10	1	-1E+10	1	-1E+10	1	-1E+10	1	-1E+10	1	-1E+10	1
4902554	34	C	01/10/2022	22:56	-136.214	49.485	0	142.80	0	5.9380	0	33.6250	0	26.476	0	141.533	0	-1e10	8	-1e10	8	-1E+10	1	-1E+10	1	-1E+10	1	-1E+10	1	-1E+10	1	-1E+10	1
4902554	34	C	01/10/2022	22:56	-136.214	49.485	0	143.80	0	5.9330	0	33.6320	0	26.482	0	142.524	0	-1e10	8	-1e10	8	-1E+10	1	-1E+10	1	-1E+10	1	-1E+10	1	-1E+10	1	-1E+10	1
4902554	34	C	01/10/2022	22:56	-136.214	49.485	0	145.00	0	5.9230	0	33.6380	0	26.488	0	143.713	0	-1e10	8	-1e10	8	-1E+10	1	-1E+10	1	-1E+10	1	-1E+10	1	-1E+10	1	-1E+10	1
4902554	34	C	01/10/2022	22:56	-136.214	49.485	0	145.70	0	5.9010	0	33.6510	0	26.501	0	144.407	0	-1e10	8	-1e10	8	-1E+10	1	-1E+10	1	-1E+10	1	-1E+10	1	-1E+10	1	-1E+10	1
4902554	34	C	01/10/2022	22:56	-136.214	49.485	0	146.80	0	5.8920	0	33.6560	0	26.506	0	145.497	0	-1e10	8	-1e10	8	-1E+10	1	-1E+10	1	-1E+10	1	-1E+10	1	-1E+10	1	-1E+10	1
4902554	34	C	01/10/2022	22:56	-136.214	49.485	0	148.00	0	5.8840	0	33.6610	0	26.511	0	146.686	0	-1e10	8	-1e10	8	-1E+10	1	-1E+10	1	-1E+10	1	-1E+10	1	-1E+10	1	-1E+10	1
4902554	34	C	01/10/2022	22:56	-136.214	49.485	0	148.70	0	5.8810	0	33.6620	0	26.512	0	147.379	0	-1e10	8	-1e10	8	-1E+10	1	-1E+10	1	-1E+10	1	-1E+10	1	-1E+10	1	-1E+10	1
4902554	34	C	01/10/2022	22:56	-136.214	49.485	0	149.80	0	5.8660	0	33.6700	0	26.520	0	148.469	0	-1e10	8	-1e10	8	-1E+10	1	-1E+10	1	-1E+10	1	-1E+10	1	-1E+10	1	-1E+10	1
4902554	34	C	01/10/2022	22:56	-136.214	49.485	0	151.00	0	5.8560	0	33.6750	0	26.525	0	149.658	0	-1e10	8	-1e10	8	-1E+10	1	-1E+10	1	-1E+10	1	-1E+10	1	-1E+10	1	-1E+10	1
4902554	34	C	01/10/2022	22:56	-136.214	49.485	0	151.70	0	5.8530	0	33.6760	0	26.526	0	150.351	0	-1e10	8	-1e10	8	-1E+10	1	-1E+10	1	-1E+10	1	-1E+10	1	-1E+10	1	-1E+10	1
4902554	34	C	01/10/2022	22:56	-136.214	49.485	0	152.80	0	5.8490	0	33.6780	0	26.528	0	151.441	0	-1e10	8	-1e10	8	-1E+10	1	-1E+10	1	-1E+10	1	-1E+10	1	-1E+10	1	-1E+10	1
4902554	34	C	01/10/2022	22:56	-136.214	49.485	0	153.90	0	5.8160	0	33.6900	0	26.542	0	152.531	0	-1e10	8	-1e10	8	-1E+10	1	-1E+10	1	-1E+10	1	-1E+10	1	-1E+10	1	-1E+10	1
4902554	34	C	01/10/2022	22:56	-136.214	49.485	0	154.70	0	5.8030	0	33.6940	0	26.547	0	153.324	0	-1e10	8	-1e10	8	-1E+10	1	-1E+10	1	-1E+10	1	-1E+10	1	-1E+10	1	-1E+10	1
4902554	34	C	01/10/2022	22:56	-136.214	49.485	0	155.90	0	5.8030	0	33.6910	0	26.544	0	154.512	0	-1e10	8	-1e10	8	-1E+10	1	-1E+10	1	-1E+10	1	-1E+10	1	-1E+10	1	-1E+10	1
4902554	34	C	01/10/2022	22:56	-136.214	49.485	0	157.10	0	5.7870	0	33.6990	0	26.553	0	155.701	0	-1e10	8	-1e10	8	-1E+10	1	-1E+10	1	-1E+10	1	-1E+10	1	-1E+10	1	-1E+10	1
4902554	34	C	01/10/2022	22:56	-136.214	49.485	0	157.90	0	5.7800	0	33.7020	0	26.556	0	156.494	0	-1e10	8	-1e10	8	-1E+10	1	-1E+10	1	-1E+10	1	-1E+10	1	-1E+10	1	-1E+10	1
4902554	34	C	01/10/2022	22:56	-136.214	49.485	0	159.00	0	5.7700	0	33.7050	0	26.560	0	157.584	0	-1e10	8	-1e10	8	-1E+10	1	-1E+10	1	-1E+10	1	-1E+10	1	-1E+10	1	-1E+10	1
4902554	34	C	01/10/2022	22:56	-136.214	49.485	0	160.20	0	5.7570	0	33.7080	0	26.564	0	158.772	0	-1e10	8	-1e10	8	-1E+10	1	-1E+10	1	-1E+10	1	-1E+10	1	-1E+10	1	-1E+10	1
4902554	34	C	01/10/2022	22:56	-136.214	49.485	0	161.00	0	5.7520	0	33.7090	0	26.565	0	159.565	0	-1e10	8	-1e10	8	-1E+10	1	-1E+10	1	-1E+10	1	-1E+10	1	-1E+10	1	-1E+10	1
4902554	34	C	01/10/2022	22:56	-136.214	49.485	0	161.80	0	5.7390	0	33.7130	0	26.570	0	160.358	0	-1e10	8	-1e10	8	-1E+10	1	-1E+10	1	-1E+10	1	-1E+10	1	-1E+10	1	-1E+10	1
4902554	34	C	01/10/2022	22:56	-136.214	49.485	0	163.00	0	5.7190	0	33.7190	0	26.577	0	161.546	0	-1e10	8	-1e10	8	-1E+10	1	-1E+10	1	-1E+10	1	-1E+10	1	-1E+10	1	-1E+10	1
4902554	34	C	01/10/2022	22:56	-136.214	49.485	0	164.20	0	5.7010	0	33.7230	0	26.582	0	162.735	0	-1e10	8	-1e10	8	-1E+10	1	-1E+10	1	-1E+10	1	-1E+10	1	-1E+10	1	-1E+10	1
4902554	34	C	01/10/2022	22:56	-136.214	49.485	0	165.00	0	5.6850	0	33.7270	0	26.587	0	163.528	0	-1e10	8	-1e10	8	-1E+10	1	-1E+10	1	-1E+10	1	-1E+10	1	-1E+10	1	-1E+10	1
4902554	34	C	01/10/2022	22:56	-136.214	49.485	0	165.90	0	5.6790	0	33.7280	0	26.589	0	164.419	0	-1e10	8	-1e10	8	-1E+10	1	-1E+10	1	-1E+10	1	-1E+10	1	-1E+10	1	-1E+10	1
4902554	34	C	01/10/2022	22:56	-136.214	49.485	0	166.70	0	5.6670	0	33.7310	0	26.593	0	165.212	0	-1e10	8	-1e10	8	-1E+10	1	-1E+10	1	-1E+10	1	-1E+10	1	-1E+10	1	-1E+10	1
4902554	34	C	01/10/2022	22:56	-136.214	49.485	0	167.90	0	5.6570	0	33.7330	0	26.596	0	166.401	0	-1e10	8	-1e10	8	-1E+10	1	-1E+10	1	-1E+10	1	-1E+10	1	-1E+10	1	-1E+10	1
4902554	34	C	01/10/2022	22:56	-136.214	49.485	0	169.10	0	5.6430	0	33.7370	0	26.600	0	167.590	0	-1e10	8	-1e10	8	-1E+10	1	-1E+10	1	-1E+10	1	-1E+10	1	-1E+10	1	-1E+10	1
4902554	34	C	01/10/2022	22:56	-136.214	49.485	0	170.00	0	5.6420	0	33.7370	0	26.601	0	168.481	0	-1e10	8	-1e10	8	-1E+10	1	-1E+10	1	-1E+10	1	-1E+10	1	-1E+10	1	-1E+10	1
4902554	34	C	01/10/2022	22:56	-136.214	49.485	0	170.80	0	5.6390	0	33.7380	0	26.602	0	169.274	0	-1e10	8	-1e10	8	-1E+10	1	-1E+10	1	-1E+10	1	-1E+10	1	-1E+10	1	-1E+10	1
4902554	34	C	01/10/2022	22:56	-136.214	49.485	0	172.00	0	5.6300	0	33.7400	0	26.604	0	170.462	0	-1e10	8	-1e10	8	-1E+10	1	-1E+10	1	-1E+10	1	-1E+10	1	-1E+10	1	-1E+10	1
4902554	34	C	01/10/2022	22:56	-136.214	49.485	0	173.20	0	5.6030	0	33.7440	0	26.611	0	171.651	0	-1e10	8	-1e10	8	-1E+10	1	-1E+10	1	-1E+10	1	-1E+10	1	-1E+10	1	-1E+10	1
4902554	34	C	01/10/2022	22:56	-136.214	49.485	0	174.10	0	5.5860	0	33.7520	0	26.619	0	172.543	0	-1e10	8	-1e10	8	-1E+10	1	-1E+10	1	-1E+10	1	-1E+10	1	-1E+10	1	-1E+10	1
4902554	34	C	01/10/2022	22:56	-136.214	49.485	0	174.90	0	5.5690	0	33.7530	0	26.622	0	173.335	0	-1e10	8	-1e10	8	-1E+10	1	-1E+10	1	-1E+10	1	-1E+10	1	-1E+10	1	-1E+10	1
4902554	34	C	01/10/2022	22:56	-136.214	49.485	0	175.80	0	5.5670	0	33.7520	0	26.621	0	174.227	0	-1e10	8	-1e10	8	-1E+10	1	-1E+10	1	-1E+10	1	-1E+10	1	-1E+10	1	-1E+10	1
4902554	34	C	01/10/2022	22:56	-136.214	49.485	0	176.70	0	5.5640	0	33.7520	0	26.622	0	175.118	0	-1e10	8	-1e10	8	-1E+10	1	-1E+10	1	-1E+10	1	-1E+10	1	-1E+10	1	-1E+10	1
4902554	34	C	01/10/2022	22:56	-136.214	49.485	0	177.90	0	5.5550	0	33.7520	0	26.623	0	176.307	0	-1e10	8	-1e10	8	-1E+10	1	-1E+10	1	-1E+10	1	-1E+10	1	-1E+10	1	-1E+10	1
4902554	34	C	01/10/2022	22:56	-136.214	49.485	0	179.20	0	5.5460	0	33.7530	0	26.625	0	177.595	0	-1e10	8	-1e10	8	-1E+10	1	-1E+10	1	-1E+10	1	-1E+10	1	-1E+10	1	-1E+10	1
4902554	34	C	01/10/2022	22:56	-136.214	49.485	0	180.10	0	5.5370	0	33.7550	0	26.627	0	178.487	0	-1e10	8	-1e10	8	-1E+10	1	-1E+10	1	-1E+10	1	-1E+10	1	-1E+10	1	-1E+10	1
4902554	34	C	01/10/2022	22:56	-136.214	49.485	0	180.90	0	5.5320	0	33.7560	0	26.629	0	179.279	0	-1e10	8	-1e10	8	-1E+10	1	-1E+10	1	-1E+10	1	-1E+10	1	-1E+10	1	-1E+10	1
4902554	34	C	01/10/2022	22:56	-136.214	49.485	0	181.80	0	5.5090	0	33.7580	0	26.633	0	180.171	0	-1e10	8	-1e10	8	-1E+10	1	-1E+10	1	-1E+10	1	-1E+10	1	-1E+10	1	-1E+10	1
4902554	34	C	01/10/2022	22:56	-136.214	49.485	0	182.70	0	5.5100	0	33.7580	0	26.633	0	181.062	0	-1e10	8	-1e10	8	-1E+10	1	-1E+10	1	-1E+10	1	-1E+10	1	-1E+10	1	-1E+10	1
4902554	34	C	01/10/2022	22:56	-136.214	49.485	0	183.90	0	5.5080	0	33.7590	0	26.634	0	182.251	0	-1e10	8	-1e10	8	-1E+10	1	-1E+10	1	-1E+10	1	-1E+10	1	-1E+10	1	-1E+10	1
4902554	34	C	01/10/2022	22:56	-136.214	49.485	0	185.30	0	5.5070	0	33.7590	0	26.634	0	183.638	0	-1e10	8	-1e10	8	-1E+10	1	-1E+10	1	-1E+10	1	-1E+10	1	-1E+10	1	-1E+10	1
4902554	34	C	01/10/2022	22:56	-136.214	49.485	0	186.10	0	5.5080	0	33.7580	0	26.633	0	184.430	0	-1e10	8	-1e10	8	-1E+10	1	-1E+10	1	-1E+10	1	-1E+10	1	-1E+10	1	-1E+10	1
4902554	34	C	01/10/2022	22:56	-136.214	49.485	0	187.00	0	5.5040	0	33.7600	0	26.635	0	185.322	0	-1e10	8	-1e10	8	-1E+10	1	-1E+10	1	-1E+10	1	-1E+10	1	-1E+10	1	-1E+10	1
4902554	34	C	01/10/2022	22:56	-136.214	49.485	0	187.90	0	5.5030	0	33.7590	0	26.635	0	186.213	0	-1e10	8	-1e10	8	-1E+10	1	-1E+10	1	-1E+10	1	-1E+10	1	-1E+10	1	-1E+10	1
4902554	34	C	01/10/2022	22:56	-136.214	49.485	0	188.80	0	5.5030	0	33.7590	0	26.635	0	187.105	0	-1e10	8	-1e10	8	-1E+10	1	-1E+10	1	-1E+10	1	-1E+10	1	-1E+10	1	-1E+10	1
4902554	34	C	01/10/2022	22:56	-136.214	49.485	0	189.60	0	5.5030	0	33.7590	0	26.635	0	187.897	0	-1e10	8	-1e10	8	-1E+10	1	-1E+10	1	-1E+10	1	-1E+10	1	-1E+10	1	-1E+10	1
4902554	34	C	01/10/2022	22:56	-136.214	49.485	0	190.90	0	5.4940	0	33.7610	0	26.637	0	189.185	0	-1e10	8	-1e10	8	-1E+10	1	-1E+10	1	-1E+10	1	-1E+10	1	-1E+10	1	-1E+10	1
4902554	34	C	01/10/2022	22:56	-136.214	49.485	0	192.10	0	5.4650	0	33.7650	0	26.644	0	190.374	0	-1e10	8	-1e10	8	-1E+10	1	-1E+10	1	-1E+10	1	-1E+10	1	-1E+10	1	-1E+10	1
4902554	34	C	01/10/2022	22:56	-136.214	49.485	0	193.00	0	5.4550	0	33.7700	0	26.649	0	191.265	0	-1e10	8	-1e10	8	-1E+10	1	-1E+10	1	-1E+10	1	-1E+10	1	-1E+10	1	-1E+10	1
4902554	34	C	01/10/2022	22:56	-136.214	49.485	0	193.80	0	5.4490	0	33.7720	0	26.652	0	192.057	0	-1e10	8	-1e10	8	-1E+10	1	-1E+10	1	-1E+10	1	-1E+10	1	-1E+10	1	-1E+10	1
4902554	34	C	01/10/2022	22:56	-136.214	49.485	0	194.70	0	5.4410	0	33.7740	0	26.654	0	192.949	0	-1e10	8	-1e10	8	-1E+10	1	-1E+10	1	-1E+10	1	-1E+10	1	-1E+10	1	-1E+10	1
4902554	34	C	01/10/2022	22:56	-136.214	49.485	0	196.00	0	5.4340	0	33.7760	0	26.656	0	194.237	0	-1e10	8	-1e10	8	-1E+10	1	-1E+10	1	-1E+10	1	-1E+10	1	-1E+10	1	-1E+10	1
4902554	34	C	01/10/2022	22:56	-136.214	49.485	0	197.30	0	5.4270	0	33.7770	0	26.658	0	195.524	0	-1e10	8	-1e10	8	-1E+10	1	-1E+10	1	-1E+10	1	-1E+10	1	-1E+10	1	-1E+10	1
4902554	34	C	01/10/2022	22:56	-136.214	49.485	0	198.10	0	5.4230	0	33.7770	0	26.659	0	196.317	0	-1e10	8	-1e10	8	-1E+10	1	-1E+10	1	-1E+10	1	-1E+10	1	-1E+10	1	-1E+10	1
4902554	34	C	01/10/2022	22:56	-136.214	49.485	0	198.90	0	5.4150	0	33.7790	0	26.661	0	197.109	0	-1e10	8	-1e10	8	-1E+10	1	-1E+10	1	-1E+10	1	-1E+10	1	-1E+10	1	-1E+10	1
4902554	34	C	01/10/2022	22:56	-136.214	49.485	0	199.80	0	5.4110	0	33.7790	0	26.662	0	198.001	0	-1e10	8	-1e10	8	-1E+10	1	-1E+10	1	-1E+10	1	-1E+10	1	-1E+10	1	-1E+10	1
4902554	34	C	01/10/2022	22:56	-136.214	49.485	0	201.00	0	5.3960	0	33.7810	0	26.665	0	199.189	0	-1e10	8	-1e10	8	-1E+10	1	-1E+10	1	-1E+10	1	-1E+10	1	-1E+10	1	-1E+10	1
4902554	34	C	01/10/2022	22:56	-136.214	49.485	0	202.20	0	5.3790	0	33.7820	0	26.668	0	200.378	0	-1e10	8	-1e10	8	-1E+10	1	-1E+10	1	-1E+10	1	-1E+10	1	-1E+10	1	-1E+10	1
4902554	34	C	01/10/2022	22:56	-136.214	49.485	0	203.10	0	5.3690	0	33.7840	0	26.671	0	201.269	0	-1e10	8	-1e10	8	-1E+10	1	-1E+10	1	-1E+10	1	-1E+10	1	-1E+10	1	-1E+10	1
4902554	34	C	01/10/2022	22:56	-136.214	49.485	0	203.90	0	5.3520	0	33.7870	0	26.675	0	202.062	0	-1e10	8	-1e10	8	-1E+10	1	-1E+10	1	-1E+10	1	-1E+10	1	-1E+10	1	-1E+10	1
4902554	34	C	01/10/2022	22:56	-136.214	49.485	0	204.80	0	5.3470	0	33.7870	0	26.676	0	202.953	0	-1e10	8	-1e10	8	-1E+10	1	-1E+10	1	-1E+10	1	-1E+10	1	-1E+10	1	-1E+10	1
4902554	34	C	01/10/2022	22:56	-136.214	49.485	0	206.00	0	5.3330	0	33.7900	0	26.680	0	204.142	0	-1e10	8	-1e10	8	-1E+10	1	-1E+10	1	-1E+10	1	-1E+10	1	-1E+10	1	-1E+10	1
4902554	34	C	01/10/2022	22:56	-136.214	49.485	0	207.20	0	5.3300	0	33.7920	0	26.681	0	205.330	0	-1e10	8	-1e10	8	-1E+10	1	-1E+10	1	-1E+10	1	-1E+10	1	-1E+10	1	-1E+10	1
4902554	34	C	01/10/2022	22:56	-136.214	49.485	0	208.10	0	5.3240	0	33.7930	0	26.683	0	206.222	0	-1e10	8	-1e10	8	-1E+10	1	-1E+10	1	-1E+10	1	-1E+10	1	-1E+10	1	-1E+10	1
4902554	34	C	01/10/2022	22:56	-136.214	49.485	0	208.90	0	5.3170	0	33.7950	0	26.685	0	207.014	0	-1e10	8	-1e10	8	-1E+10	1	-1E+10	1	-1E+10	1	-1E+10	1	-1E+10	1	-1E+10	1
4902554	34	C	01/10/2022	22:56	-136.214	49.485	0	209.70	0	5.3080	0	33.7960	0	26.687	0	207.807	0	-1e10	8	-1e10	8	-1E+10	1	-1E+10	1	-1E+10	1	-1E+10	1	-1E+10	1	-1E+10	1
4902554	34	C	01/10/2022	22:56	-136.214	49.485	0	211.00	0	5.3030	0	33.7950	0	26.687	0	209.094	0	-1e10	8	-1e10	8	-1E+10	1	-1E+10	1	-1E+10	1	-1E+10	1	-1E+10	1	-1E+10	1
4902554	34	C	01/10/2022	22:56	-136.214	49.485	0	212.20	0	5.2970	0	33.7970	0	26.689	0	210.283	0	-1e10	8	-1e10	8	-1E+10	1	-1E+10	1	-1E+10	1	-1E+10	1	-1E+10	1	-1E+10	1
4902554	34	C	01/10/2022	22:56	-136.214	49.485	0	213.00	0	5.2950	0	33.7970	0	26.690	0	211.075	0	-1e10	8	-1e10	8	-1E+10	1	-1E+10	1	-1E+10	1	-1E+10	1	-1E+10	1	-1E+10	1
4902554	34	C	01/10/2022	22:56	-136.214	49.485	0	213.90	0	5.2930	0	33.7970	0	26.690	0	211.966	0	-1e10	8	-1e10	8	-1E+10	1	-1E+10	1	-1E+10	1	-1E+10	1	-1E+10	1	-1E+10	1
4902554	34	C	01/10/2022	22:56	-136.214	49.485	0	214.70	0	5.2940	0	33.7960	0	26.689	0	212.759	0	-1e10	8	-1e10	8	-1E+10	1	-1E+10	1	-1E+10	1	-1E+10	1	-1E+10	1	-1E+10	1
4902554	34	C	01/10/2022	22:56	-136.214	49.485	0	215.90	0	5.2740	0	33.7970	0	26.692	0	213.947	0	-1e10	8	-1e10	8	-1E+10	1	-1E+10	1	-1E+10	1	-1E+10	1	-1E+10	1	-1E+10	1
4902554	34	C	01/10/2022	22:56	-136.214	49.485	0	217.10	0	5.2340	0	33.7970	0	26.697	0	215.136	0	-1e10	8	-1e10	8	-1E+10	1	-1E+10	1	-1E+10	1	-1E+10	1	-1E+10	1	-1E+10	1
4902554	34	C	01/10/2022	22:56	-136.214	49.485	0	218.00	0	5.2210	0	33.7970	0	26.698	0	216.027	0	-1e10	8	-1e10	8	-1E+10	1	-1E+10	1	-1E+10	1	-1E+10	1	-1E+10	1	-1E+10	1
4902554	34	C	01/10/2022	22:56	-136.214	49.485	0	218.80	0	5.2240	0	33.8020	0	26.702	0	216.820	0	-1e10	8	-1e10	8	-1E+10	1	-1E+10	1	-1E+10	1	-1E+10	1	-1E+10	1	-1E+10	1
4902554	34	C	01/10/2022	22:56	-136.214	49.485	0	219.70	0	5.2320	0	33.8030	0	26.702	0	217.711	0	-1e10	8	-1e10	8	-1E+10	1	-1E+10	1	-1E+10	1	-1E+10	1	-1E+10	1	-1E+10	1
4902554	34	C	01/10/2022	22:56	-136.214	49.485	0	220.90	0	5.2170	0	33.8050	0	26.705	0	218.899	0	-1e10	8	-1e10	8	-1E+10	1	-1E+10	1	-1E+10	1	-1E+10	1	-1E+10	1	-1E+10	1
4902554	34	C	01/10/2022	22:56	-136.214	49.485	0	222.30	0	5.2170	0	33.8060	0	26.706	0	220.286	0	-1e10	8	-1e10	8	-1E+10	1	-1E+10	1	-1E+10	1	-1E+10	1	-1E+10	1	-1E+10	1
4902554	34	C	01/10/2022	22:56	-136.214	49.485	0	223.10	0	5.1990	0	33.8070	0	26.709	0	221.078	0	-1e10	8	-1e10	8	-1E+10	1	-1E+10	1	-1E+10	1	-1E+10	1	-1E+10	1	-1E+10	1
4902554	34	C	01/10/2022	22:56	-136.214	49.485	0	224.10	0	5.1930	0	33.8080	0	26.710	0	222.069	0	-1e10	8	-1e10	8	-1E+10	1	-1E+10	1	-1E+10	1	-1E+10	1	-1E+10	1	-1E+10	1
4902554	34	C	01/10/2022	22:56	-136.214	49.485	0	224.90	0	5.1730	0	33.8090	0	26.713	0	222.861	0	-1e10	8	-1e10	8	-1E+10	1	-1E+10	1	-1E+10	1	-1E+10	1	-1E+10	1	-1E+10	1
4902554	34	C	01/10/2022	22:56	-136.214	49.485	0	225.80	0	5.1510	0	33.8100	0	26.717	0	223.752	0	-1e10	8	-1e10	8	-1E+10	1	-1E+10	1	-1E+10	1	-1E+10	1	-1E+10	1	-1E+10	1
4902554	34	C	01/10/2022	22:56	-136.214	49.485	0	226.70	0	5.1420	0	33.8100	0	26.718	0	224.644	0	-1e10	8	-1e10	8	-1E+10	1	-1E+10	1	-1E+10	1	-1E+10	1	-1E+10	1	-1E+10	1
4902554	34	C	01/10/2022	22:56	-136.214	49.485	0	227.60	0	5.1350	0	33.8090	0	26.718	0	225.535	0	-1e10	8	-1e10	8	-1E+10	1	-1E+10	1	-1E+10	1	-1E+10	1	-1E+10	1	-1E+10	1
4902554	34	C	01/10/2022	22:56	-136.214	49.485	0	228.90	0	5.1210	0	33.8100	0	26.720	0	226.823	0	-1e10	8	-1e10	8	-1E+10	1	-1E+10	1	-1E+10	1	-1E+10	1	-1E+10	1	-1E+10	1
4902554	34	C	01/10/2022	22:56	-136.214	49.485	0	230.30	0	5.1160	0	33.8110	0	26.722	0	228.209	0	-1e10	8	-1e10	8	-1E+10	1	-1E+10	1	-1E+10	1	-1E+10	1	-1E+10	1	-1E+10	1
4902554	34	C	01/10/2022	22:56	-136.214	49.485	0	231.20	0	5.1090	0	33.8140	0	26.725	0	229.100	0	-1e10	8	-1e10	8	-1E+10	1	-1E+10	1	-1E+10	1	-1E+10	1	-1E+10	1	-1E+10	1
4902554	34	C	01/10/2022	22:56	-136.214	49.485	0	232.10	0	5.1030	0	33.8140	0	26.725	0	229.992	0	-1e10	8	-1e10	8	-1E+10	1	-1E+10	1	-1E+10	1	-1E+10	1	-1E+10	1	-1E+10	1
4902554	34	C	01/10/2022	22:56	-136.214	49.485	0	233.00	0	5.0990	0	33.8180	0	26.729	0	230.883	0	-1e10	8	-1e10	8	-1E+10	1	-1E+10	1	-1E+10	1	-1E+10	1	-1E+10	1	-1E+10	1
4902554	34	C	01/10/2022	22:56	-136.214	49.485	0	234.00	0	5.0920	0	33.8190	0	26.731	0	231.873	0	-1e10	8	-1e10	8	-1E+10	1	-1E+10	1	-1E+10	1	-1E+10	1	-1E+10	1	-1E+10	1
4902554	34	C	01/10/2022	22:56	-136.214	49.485	0	234.90	0	5.0900	0	33.8190	0	26.731	0	232.765	0	-1e10	8	-1e10	8	-1E+10	1	-1E+10	1	-1E+10	1	-1E+10	1	-1E+10	1	-1E+10	1
4902554	34	C	01/10/2022	22:56	-136.214	49.485	0	235.80	0	5.0620	0	33.8220	0	26.736	0	233.656	0	-1e10	8	-1e10	8	-1E+10	1	-1E+10	1	-1E+10	1	-1E+10	1	-1E+10	1	-1E+10	1
4902554	34	C	01/10/2022	22:56	-136.214	49.485	0	236.70	0	5.0530	0	33.8230	0	26.738	0	234.547	0	-1e10	8	-1e10	8	-1E+10	1	-1E+10	1	-1E+10	1	-1E+10	1	-1E+10	1	-1E+10	1
4902554	34	C	01/10/2022	22:56	-136.214	49.485	0	237.70	0	5.0500	0	33.8240	0	26.739	0	235.538	0	-1e10	8	-1e10	8	-1E+10	1	-1E+10	1	-1E+10	1	-1E+10	1	-1E+10	1	-1E+10	1
4902554	34	C	01/10/2022	22:56	-136.214	49.485	0	238.60	0	5.0400	0	33.8240	0	26.741	0	236.429	0	-1e10	8	-1e10	8	-1E+10	1	-1E+10	1	-1E+10	1	-1E+10	1	-1E+10	1	-1E+10	1
4902554	34	C	01/10/2022	22:56	-136.214	49.485	0	239.50	0	5.0340	0	33.8240	0	26.741	0	237.320	0	-1e10	8	-1e10	8	-1E+10	1	-1E+10	1	-1E+10	1	-1E+10	1	-1E+10	1	-1E+10	1
4902554	34	C	01/10/2022	22:56	-136.214	49.485	0	240.90	0	5.0260	0	33.8240	0	26.742	0	238.707	0	-1e10	8	-1e10	8	-1E+10	1	-1E+10	1	-1E+10	1	-1E+10	1	-1E+10	1	-1E+10	1
4902554	34	C	01/10/2022	22:56	-136.214	49.485	0	242.30	0	5.0110	0	33.8250	0	26.745	0	240.093	0	-1e10	8	-1e10	8	-1E+10	1	-1E+10	1	-1E+10	1	-1E+10	1	-1E+10	1	-1E+10	1
4902554	34	C	01/10/2022	22:56	-136.214	49.485	0	243.20	0	5.0020	0	33.8260	0	26.747	0	240.985	0	-1e10	8	-1e10	8	-1E+10	1	-1E+10	1	-1E+10	1	-1E+10	1	-1E+10	1	-1E+10	1
4902554	34	C	01/10/2022	22:56	-136.214	49.485	0	244.20	0	4.9970	0	33.8270	0	26.748	0	241.975	0	-1e10	8	-1e10	8	-1E+10	1	-1E+10	1	-1E+10	1	-1E+10	1	-1E+10	1	-1E+10	1
4902554	34	C	01/10/2022	22:56	-136.214	49.485	0	245.10	0	4.9890	0	33.8280	0	26.750	0	242.866	0	-1e10	8	-1e10	8	-1E+10	1	-1E+10	1	-1E+10	1	-1E+10	1	-1E+10	1	-1E+10	1
4902554	34	C	01/10/2022	22:56	-136.214	49.485	0	246.10	0	4.9850	0	33.8280	0	26.750	0	243.856	0	-1e10	8	-1e10	8	-1E+10	1	-1E+10	1	-1E+10	1	-1E+10	1	-1E+10	1	-1E+10	1
4902554	34	C	01/10/2022	22:56	-136.214	49.485	0	247.00	0	4.9660	0	33.8310	0	26.755	0	244.748	0	-1e10	8	-1e10	8	-1E+10	1	-1E+10	1	-1E+10	1	-1E+10	1	-1E+10	1	-1E+10	1
4902554	34	C	01/10/2022	22:56	-136.214	49.485	0	248.00	0	4.9580	0	33.8320	0	26.756	0	245.738	0	-1e10	8	-1e10	8	-1E+10	1	-1E+10	1	-1E+10	1	-1E+10	1	-1E+10	1	-1E+10	1
4902554	34	C	01/10/2022	22:56	-136.214	49.485	0	249.00	0	4.9380	0	33.8340	0	26.760	0	246.728	0	-1e10	8	-1e10	8	-1E+10	1	-1E+10	1	-1E+10	1	-1E+10	1	-1E+10	1	-1E+10	1
4902554	34	C	01/10/2022	22:56	-136.214	49.485	0	250.00	0	4.9320	0	33.8350	0	26.762	0	247.719	0	-1e10	8	-1e10	8	-1E+10	1	-1E+10	1	-1E+10	1	-1E+10	1	-1E+10	1	-1E+10	1
4902554	34	C	01/10/2022	22:56	-136.214	49.485	0	250.90	0	4.9120	0	33.8370	0	26.765	0	248.610	0	-1e10	8	-1e10	8	-1E+10	1	-1E+10	1	-1E+10	1	-1E+10	1	-1E+10	1	-1E+10	1
4902554	34	C	01/10/2022	22:56	-136.214	49.485	0	251.90	0	4.9050	0	33.8370	0	26.766	0	249.600	0	-1e10	8	-1e10	8	-1E+10	1	-1E+10	1	-1E+10	1	-1E+10	1	-1E+10	1	-1E+10	1
4902554	34	C	01/10/2022	22:56	-136.214	49.485	0	252.90	0	4.9110	0	33.8380	0	26.766	0	250.590	0	-1e10	8	-1e10	8	-1E+10	1	-1E+10	1	-1E+10	1	-1E+10	1	-1E+10	1	-1E+10	1
4902554	34	C	01/10/2022	22:56	-136.214	49.485	0	253.90	0	4.8970	0	33.8430	0	26.772	0	251.581	0	-1e10	8	-1e10	8	-1E+10	1	-1E+10	1	-1E+10	1	-1E+10	1	-1E+10	1	-1E+10	1
4902554	34	C	01/10/2022	22:56	-136.214	49.485	0	254.80	0	4.8890	0	33.8390	0	26.770	0	252.472	0	-1e10	8	-1e10	8	-1E+10	1	-1E+10	1	-1E+10	1	-1E+10	1	-1E+10	1	-1E+10	1
4902554	34	C	01/10/2022	22:56	-136.214	49.485	0	255.80	0	4.8810	0	33.8400	0	26.771	0	253.462	0	-1e10	8	-1e10	8	-1E+10	1	-1E+10	1	-1E+10	1	-1E+10	1	-1E+10	1	-1E+10	1
4902554	34	C	01/10/2022	22:56	-136.214	49.485	0	256.80	0	4.8790	0	33.8390	0	26.771	0	254.452	0	-1e10	8	-1e10	8	-1E+10	1	-1E+10	1	-1E+10	1	-1E+10	1	-1E+10	1	-1E+10	1
4902554	34	C	01/10/2022	22:56	-136.214	49.485	0	257.80	0	4.8680	0	33.8410	0	26.774	0	255.442	0	-1e10	8	-1e10	8	-1E+10	1	-1E+10	1	-1E+10	1	-1E+10	1	-1E+10	1	-1E+10	1
4902554	34	C	01/10/2022	22:56	-136.214	49.485	0	258.80	0	4.8620	0	33.8410	0	26.774	0	256.433	0	-1e10	8	-1e10	8	-1E+10	1	-1E+10	1	-1E+10	1	-1E+10	1	-1E+10	1	-1E+10	1
4902554	34	C	01/10/2022	22:56	-136.214	49.485	0	259.80	0	4.8600	0	33.8420	0	26.775	0	257.423	0	-1e10	8	-1e10	8	-1E+10	1	-1E+10	1	-1E+10	1	-1E+10	1	-1E+10	1	-1E+10	1
4902554	34	C	01/10/2022	22:56	-136.214	49.485	0	260.80	0	4.8480	0	33.8450	0	26.779	0	258.413	0	-1e10	8	-1e10	8	-1E+10	1	-1E+10	1	-1E+10	1	-1E+10	1	-1E+10	1	-1E+10	1
4902554	34	C	01/10/2022	22:56	-136.214	49.485	0	261.80	0	4.8480	0	33.8450	0	26.779	0	259.403	0	-1e10	8	-1e10	8	-1E+10	1	-1E+10	1	-1E+10	1	-1E+10	1	-1E+10	1	-1E+10	1
4902554	34	C	01/10/2022	22:56	-136.214	49.485	0	262.80	0	4.8490	0	33.8450	0	26.779	0	260.394	0	-1e10	8	-1e10	8	-1E+10	1	-1E+10	1	-1E+10	1	-1E+10	1	-1E+10	1	-1E+10	1
4902554	34	C	01/10/2022	22:56	-136.214	49.485	0	263.80	0	4.8450	0	33.8470	0	26.781	0	261.384	0	-1e10	8	-1e10	8	-1E+10	1	-1E+10	1	-1E+10	1	-1E+10	1	-1E+10	1	-1E+10	1
4902554	34	C	01/10/2022	22:56	-136.214	49.485	0	264.80	0	4.8400	0	33.8490	0	26.783	0	262.374	0	-1e10	8	-1e10	8	-1E+10	1	-1E+10	1	-1E+10	1	-1E+10	1	-1E+10	1	-1E+10	1
4902554	34	C	01/10/2022	22:56	-136.214	49.485	0	265.80	0	4.8260	0	33.8520	0	26.787	0	263.364	0	-1e10	8	-1e10	8	-1E+10	1	-1E+10	1	-1E+10	1	-1E+10	1	-1E+10	1	-1E+10	1
4902554	34	C	01/10/2022	22:56	-136.214	49.485	0	266.80	0	4.8190	0	33.8550	0	26.790	0	264.354	0	-1e10	8	-1e10	8	-1E+10	1	-1E+10	1	-1E+10	1	-1E+10	1	-1E+10	1	-1E+10	1
4902554	34	C	01/10/2022	22:56	-136.214	49.485	0	267.80	0	4.8140	0	33.8540	0	26.790	0	265.345	0	-1e10	8	-1e10	8	-1E+10	1	-1E+10	1	-1E+10	1	-1E+10	1	-1E+10	1	-1E+10	1
4902554	34	C	01/10/2022	22:56	-136.214	49.485	0	268.80	0	4.8120	0	33.8550	0	26.791	0	266.335	0	-1e10	8	-1e10	8	-1E+10	1	-1E+10	1	-1E+10	1	-1E+10	1	-1E+10	1	-1E+10	1
4902554	34	C	01/10/2022	22:56	-136.214	49.485	0	269.80	0	4.8120	0	33.8540	0	26.790	0	267.325	0	-1e10	8	-1e10	8	-1E+10	1	-1E+10	1	-1E+10	1	-1E+10	1	-1E+10	1	-1E+10	1
4902554	34	C	01/10/2022	22:56	-136.214	49.485	0	270.80	0	4.8100	0	33.8570	0	26.793	0	268.315	0	-1e10	8	-1e10	8	-1E+10	1	-1E+10	1	-1E+10	1	-1E+10	1	-1E+10	1	-1E+10	1
4902554	34	C	01/10/2022	22:56	-136.214	49.485	0	271.80	0	4.8010	0	33.8600	0	26.796	0	269.305	0	-1e10	8	-1e10	8	-1E+10	1	-1E+10	1	-1E+10	1	-1E+10	1	-1E+10	1	-1E+10	1
4902554	34	C	01/10/2022	22:56	-136.214	49.485	0	272.80	0	4.7950	0	33.8630	0	26.799	0	270.296	0	-1e10	8	-1e10	8	-1E+10	1	-1E+10	1	-1E+10	1	-1E+10	1	-1E+10	1	-1E+10	1
4902554	34	C	01/10/2022	22:56	-136.214	49.485	0	273.80	0	4.7910	0	33.8640	0	26.801	0	271.286	0	-1e10	8	-1e10	8	-1E+10	1	-1E+10	1	-1E+10	1	-1E+10	1	-1E+10	1	-1E+10	1
4902554	34	C	01/10/2022	22:56	-136.214	49.485	0	274.80	0	4.7870	0	33.8650	0	26.802	0	272.276	0	-1e10	8	-1e10	8	-1E+10	1	-1E+10	1	-1E+10	1	-1E+10	1	-1E+10	1	-1E+10	1
4902554	34	C	01/10/2022	22:56	-136.214	49.485	0	275.80	0	4.7860	0	33.8650	0	26.802	0	273.266	0	-1e10	8	-1e10	8	-1E+10	1	-1E+10	1	-1E+10	1	-1E+10	1	-1E+10	1	-1E+10	1
4902554	34	C	01/10/2022	22:56	-136.214	49.485	0	276.80	0	4.7820	0	33.8660	0	26.803	0	274.256	0	-1e10	8	-1e10	8	-1E+10	1	-1E+10	1	-1E+10	1	-1E+10	1	-1E+10	1	-1E+10	1
4902554	34	C	01/10/2022	22:56	-136.214	49.485	0	277.80	0	4.7730	0	33.8680	0	26.806	0	275.246	0	-1e10	8	-1e10	8	-1E+10	1	-1E+10	1	-1E+10	1	-1E+10	1	-1E+10	1	-1E+10	1
4902554	34	C	01/10/2022	22:56	-136.214	49.485	0	278.80	0	4.7670	0	33.8690	0	26.807	0	276.236	0	-1e10	8	-1e10	8	-1E+10	1	-1E+10	1	-1E+10	1	-1E+10	1	-1E+10	1	-1E+10	1
4902554	34	C	01/10/2022	22:56	-136.214	49.485	0	279.80	0	4.7610	0	33.8700	0	26.809	0	277.227	0	-1e10	8	-1e10	8	-1E+10	1	-1E+10	1	-1E+10	1	-1E+10	1	-1E+10	1	-1E+10	1
4902554	34	C	01/10/2022	22:56	-136.214	49.485	0	280.90	0	4.7580	0	33.8710	0	26.810	0	278.316	0	-1e10	8	-1e10	8	-1E+10	1	-1E+10	1	-1E+10	1	-1E+10	1	-1E+10	1	-1E+10	1
4902554	34	C	01/10/2022	22:56	-136.214	49.485	0	281.90	0	4.7540	0	33.8720	0	26.811	0	279.306	0	-1e10	8	-1e10	8	-1E+10	1	-1E+10	1	-1E+10	1	-1E+10	1	-1E+10	1	-1E+10	1
4902554	34	C	01/10/2022	22:56	-136.214	49.485	0	282.90	0	4.7510	0	33.8730	0	26.812	0	280.296	0	-1e10	8	-1e10	8	-1E+10	1	-1E+10	1	-1E+10	1	-1E+10	1	-1E+10	1	-1E+10	1
4902554	34	C	01/10/2022	22:56	-136.214	49.485	0	283.90	0	4.7470	0	33.8740	0	26.813	0	281.286	0	-1e10	8	-1e10	8	-1E+10	1	-1E+10	1	-1E+10	1	-1E+10	1	-1E+10	1	-1E+10	1
4902554	34	C	01/10/2022	22:56	-136.214	49.485	0	284.90	0	4.7450	0	33.8740	0	26.814	0	282.276	0	-1e10	8	-1e10	8	-1E+10	1	-1E+10	1	-1E+10	1	-1E+10	1	-1E+10	1	-1E+10	1
4902554	34	C	01/10/2022	22:56	-136.214	49.485	0	286.00	0	4.7430	0	33.8750	0	26.815	0	283.365	0	-1e10	8	-1e10	8	-1E+10	1	-1E+10	1	-1E+10	1	-1E+10	1	-1E+10	1	-1E+10	1
4902554	34	C	01/10/2022	22:56	-136.214	49.485	0	287.00	0	4.7420	0	33.8750	0	26.815	0	284.355	0	-1e10	8	-1e10	8	-1E+10	1	-1E+10	1	-1E+10	1	-1E+10	1	-1E+10	1	-1E+10	1
4902554	34	C	01/10/2022	22:56	-136.214	49.485	0	288.00	0	4.7410	0	33.8750	0	26.815	0	285.346	0	-1e10	8	-1e10	8	-1E+10	1	-1E+10	1	-1E+10	1	-1E+10	1	-1E+10	1	-1E+10	1
4902554	34	C	01/10/2022	22:56	-136.214	49.485	0	288.90	0	4.7390	0	33.8750	0	26.815	0	286.237	0	-1e10	8	-1e10	8	-1E+10	1	-1E+10	1	-1E+10	1	-1E+10	1	-1E+10	1	-1E+10	1
4902554	34	C	01/10/2022	22:56	-136.214	49.485	0	289.90	0	4.7350	0	33.8760	0	26.816	0	287.227	0	-1e10	8	-1e10	8	-1E+10	1	-1E+10	1	-1E+10	1	-1E+10	1	-1E+10	1	-1E+10	1
4902554	34	C	01/10/2022	22:56	-136.214	49.485	0	290.90	0	4.7310	0	33.8770	0	26.818	0	288.217	0	-1e10	8	-1e10	8	-1E+10	1	-1E+10	1	-1E+10	1	-1E+10	1	-1E+10	1	-1E+10	1
4902554	34	C	01/10/2022	22:56	-136.214	49.485	0	291.90	0	4.7270	0	33.8780	0	26.819	0	289.207	0	-1e10	8	-1e10	8	-1E+10	1	-1E+10	1	-1E+10	1	-1E+10	1	-1E+10	1	-1E+10	1
4902554	34	C	01/10/2022	22:56	-136.214	49.485	0	292.90	0	4.7240	0	33.8780	0	26.819	0	290.197	0	-1e10	8	-1e10	8	-1E+10	1	-1E+10	1	-1E+10	1	-1E+10	1	-1E+10	1	-1E+10	1
4902554	34	C	01/10/2022	22:56	-136.214	49.485	0	293.90	0	4.7170	0	33.8800	0	26.822	0	291.187	0	-1e10	8	-1e10	8	-1E+10	1	-1E+10	1	-1E+10	1	-1E+10	1	-1E+10	1	-1E+10	1
4902554	34	C	01/10/2022	22:56	-136.214	49.485	0	294.90	0	4.7020	0	33.8820	0	26.825	0	292.177	0	-1e10	8	-1e10	8	-1E+10	1	-1E+10	1	-1E+10	1	-1E+10	1	-1E+10	1	-1E+10	1
4902554	34	C	01/10/2022	22:56	-136.214	49.485	0	295.90	0	4.6990	0	33.8830	0	26.826	0	293.167	0	-1e10	8	-1e10	8	-1E+10	1	-1E+10	1	-1E+10	1	-1E+10	1	-1E+10	1	-1E+10	1
4902554	34	C	01/10/2022	22:56	-136.214	49.485	0	296.90	0	4.6970	0	33.8840	0	26.827	0	294.157	0	-1e10	8	-1e10	8	-1E+10	1	-1E+10	1	-1E+10	1	-1E+10	1	-1E+10	1	-1E+10	1
4902554	34	C	01/10/2022	22:56	-136.214	49.485	0	297.90	0	4.6930	0	33.8860	0	26.829	0	295.147	0	-1e10	8	-1e10	8	-1E+10	1	-1E+10	1	-1E+10	1	-1E+10	1	-1E+10	1	-1E+10	1
4902554	34	C	01/10/2022	22:56	-136.214	49.485	0	298.90	0	4.6930	0	33.8860	0	26.829	0	296.137	0	-1e10	8	-1e10	8	-1E+10	1	-1E+10	1	-1E+10	1	-1E+10	1	-1E+10	1	-1E+10	1
4902554	34	C	01/10/2022	22:56	-136.214	49.485	0	299.90	0	4.6890	0	33.8870	0	26.830	0	297.127	0	-1e10	8	-1e10	8	-1E+10	1	-1E+10	1	-1E+10	1	-1E+10	1	-1E+10	1	-1E+10	1
4902554	34	C	01/10/2022	22:56	-136.214	49.485	0	300.90	0	4.6810	0	33.8890	0	26.833	0	298.117	0	-1e10	8	-1e10	8	-1E+10	1	-1E+10	1	-1E+10	1	-1E+10	1	-1E+10	1	-1E+10	1
4902554	34	C	01/10/2022	22:56	-136.214	49.485	0	301.90	0	4.6780	0	33.8910	0	26.835	0	299.107	0	-1e10	8	-1e10	8	-1E+10	1	-1E+10	1	-1E+10	1	-1E+10	1	-1E+10	1	-1E+10	1
4902554	34	C	01/10/2022	22:56	-136.214	49.485	0	302.90	0	4.6750	0	33.8920	0	26.836	0	300.097	0	-1e10	8	-1e10	8	-1E+10	1	-1E+10	1	-1E+10	1	-1E+10	1	-1E+10	1	-1E+10	1
4902554	34	C	01/10/2022	22:56	-136.214	49.485	0	303.90	0	4.6700	0	33.8930	0	26.837	0	301.087	0	-1e10	8	-1e10	8	-1E+10	1	-1E+10	1	-1E+10	1	-1E+10	1	-1E+10	1	-1E+10	1
4902554	34	C	01/10/2022	22:56	-136.214	49.485	0	304.90	0	4.6640	0	33.8940	0	26.839	0	302.077	0	-1e10	8	-1e10	8	-1E+10	1	-1E+10	1	-1E+10	1	-1E+10	1	-1E+10	1	-1E+10	1
4902554	34	C	01/10/2022	22:56	-136.214	49.485	0	305.90	0	4.6590	0	33.8960	0	26.841	0	303.067	0	-1e10	8	-1e10	8	-1E+10	1	-1E+10	1	-1E+10	1	-1E+10	1	-1E+10	1	-1E+10	1
4902554	34	C	01/10/2022	22:56	-136.214	49.485	0	306.90	0	4.6560	0	33.8970	0	26.842	0	304.057	0	-1e10	8	-1e10	8	-1E+10	1	-1E+10	1	-1E+10	1	-1E+10	1	-1E+10	1	-1E+10	1
4902554	34	C	01/10/2022	22:56	-136.214	49.485	0	307.90	0	4.6520	0	33.8960	0	26.842	0	305.047	0	-1e10	8	-1e10	8	-1E+10	1	-1E+10	1	-1E+10	1	-1E+10	1	-1E+10	1	-1E+10	1
4902554	34	C	01/10/2022	22:56	-136.214	49.485	0	308.90	0	4.6440	0	33.8990	0	26.845	0	306.037	0	-1e10	8	-1e10	8	-1E+10	1	-1E+10	1	-1E+10	1	-1E+10	1	-1E+10	1	-1E+10	1
4902554	34	C	01/10/2022	22:56	-136.214	49.485	0	309.90	0	4.6430	0	33.8990	0	26.845	0	307.027	0	-1e10	8	-1e10	8	-1E+10	1	-1E+10	1	-1E+10	1	-1E+10	1	-1E+10	1	-1E+10	1
4902554	34	C	01/10/2022	22:56	-136.214	49.485	0	310.90	0	4.6380	0	33.9010	0	26.847	0	308.017	0	-1e10	8	-1e10	8	-1E+10	1	-1E+10	1	-1E+10	1	-1E+10	1	-1E+10	1	-1E+10	1
4902554	34	C	01/10/2022	22:56	-136.214	49.485	0	311.90	0	4.6330	0	33.9010	0	26.848	0	309.007	0	-1e10	8	-1e10	8	-1E+10	1	-1E+10	1	-1E+10	1	-1E+10	1	-1E+10	1	-1E+10	1
4902554	34	C	01/10/2022	22:56	-136.214	49.485	0	312.90	0	4.6300	0	33.9020	0	26.849	0	309.997	0	-1e10	8	-1e10	8	-1E+10	1	-1E+10	1	-1E+10	1	-1E+10	1	-1E+10	1	-1E+10	1
4902554	34	C	01/10/2022	22:56	-136.214	49.485	0	313.90	0	4.6270	0	33.9030	0	26.850	0	310.987	0	-1e10	8	-1e10	8	-1E+10	1	-1E+10	1	-1E+10	1	-1E+10	1	-1E+10	1	-1E+10	1
4902554	34	C	01/10/2022	22:56	-136.214	49.485	0	314.90	0	4.6250	0	33.9040	0	26.851	0	311.977	0	-1e10	8	-1e10	8	-1E+10	1	-1E+10	1	-1E+10	1	-1E+10	1	-1E+10	1	-1E+10	1
4902554	34	C	01/10/2022	22:56	-136.214	49.485	0	315.90	0	4.6200	0	33.9060	0	26.853	0	312.967	0	-1e10	8	-1e10	8	-1E+10	1	-1E+10	1	-1E+10	1	-1E+10	1	-1E+10	1	-1E+10	1
4902554	34	C	01/10/2022	22:56	-136.214	49.485	0	316.90	0	4.6160	0	33.9060	0	26.853	0	313.957	0	-1e10	8	-1e10	8	-1E+10	1	-1E+10	1	-1E+10	1	-1E+10	1	-1E+10	1	-1E+10	1
4902554	34	C	01/10/2022	22:56	-136.214	49.485	0	317.90	0	4.6130	0	33.9080	0	26.855	0	314.947	0	-1e10	8	-1e10	8	-1E+10	1	-1E+10	1	-1E+10	1	-1E+10	1	-1E+10	1	-1E+10	1
4902554	34	C	01/10/2022	22:56	-136.214	49.485	0	318.90	0	4.6130	0	33.9080	0	26.855	0	315.937	0	-1e10	8	-1e10	8	-1E+10	1	-1E+10	1	-1E+10	1	-1E+10	1	-1E+10	1	-1E+10	1
4902554	34	C	01/10/2022	22:56	-136.214	49.485	0	319.90	0	4.6120	0	33.9080	0	26.856	0	316.927	0	-1e10	8	-1e10	8	-1E+10	1	-1E+10	1	-1E+10	1	-1E+10	1	-1E+10	1	-1E+10	1
4902554	34	C	01/10/2022	22:56	-136.214	49.485	0	320.90	0	4.6060	0	33.9100	0	26.858	0	317.917	0	-1e10	8	-1e10	8	-1E+10	1	-1E+10	1	-1E+10	1	-1E+10	1	-1E+10	1	-1E+10	1
4902554	34	C	01/10/2022	22:56	-136.214	49.485	0	321.90	0	4.6040	0	33.9110	0	26.859	0	318.907	0	-1e10	8	-1e10	8	-1E+10	1	-1E+10	1	-1E+10	1	-1E+10	1	-1E+10	1	-1E+10	1
4902554	34	C	01/10/2022	22:56	-136.214	49.485	0	322.90	0	4.6000	0	33.9120	0	26.860	0	319.897	0	-1e10	8	-1e10	8	-1E+10	1	-1E+10	1	-1E+10	1	-1E+10	1	-1E+10	1	-1E+10	1
4902554	34	C	01/10/2022	22:56	-136.214	49.485	0	323.90	0	4.5980	0	33.9120	0	26.860	0	320.887	0	-1e10	8	-1e10	8	-1E+10	1	-1E+10	1	-1E+10	1	-1E+10	1	-1E+10	1	-1E+10	1
4902554	34	C	01/10/2022	22:56	-136.214	49.485	0	324.90	0	4.5950	0	33.9120	0	26.861	0	321.877	0	-1e10	8	-1e10	8	-1E+10	1	-1E+10	1	-1E+10	1	-1E+10	1	-1E+10	1	-1E+10	1
4902554	34	C	01/10/2022	22:56	-136.214	49.485	0	325.90	0	4.5950	0	33.9120	0	26.861	0	322.867	0	-1e10	8	-1e10	8	-1E+10	1	-1E+10	1	-1E+10	1	-1E+10	1	-1E+10	1	-1E+10	1
4902554	34	C	01/10/2022	22:56	-136.214	49.485	0	326.90	0	4.5940	0	33.9130	0	26.862	0	323.857	0	-1e10	8	-1e10	8	-1E+10	1	-1E+10	1	-1E+10	1	-1E+10	1	-1E+10	1	-1E+10	1
4902554	34	C	01/10/2022	22:56	-136.214	49.485	0	327.90	0	4.5930	0	33.9130	0	26.862	0	324.846	0	-1e10	8	-1e10	8	-1E+10	1	-1E+10	1	-1E+10	1	-1E+10	1	-1E+10	1	-1E+10	1
4902554	34	C	01/10/2022	22:56	-136.214	49.485	0	328.90	0	4.5920	0	33.9130	0	26.862	0	325.836	0	-1e10	8	-1e10	8	-1E+10	1	-1E+10	1	-1E+10	1	-1E+10	1	-1E+10	1	-1E+10	1
4902554	34	C	01/10/2022	22:56	-136.214	49.485	0	329.90	0	4.5830	0	33.9160	0	26.865	0	326.826	0	-1e10	8	-1e10	8	-1E+10	1	-1E+10	1	-1E+10	1	-1E+10	1	-1E+10	1	-1E+10	1
4902554	34	C	01/10/2022	22:56	-136.214	49.485	0	330.90	0	4.5780	0	33.9160	0	26.866	0	327.816	0	-1e10	8	-1e10	8	-1E+10	1	-1E+10	1	-1E+10	1	-1E+10	1	-1E+10	1	-1E+10	1
4902554	34	C	01/10/2022	22:56	-136.214	49.485	0	331.90	0	4.5720	0	33.9180	0	26.868	0	328.806	0	-1e10	8	-1e10	8	-1E+10	1	-1E+10	1	-1E+10	1	-1E+10	1	-1E+10	1	-1E+10	1
4902554	34	C	01/10/2022	22:56	-136.214	49.485	0	332.90	0	4.5680	0	33.9200	0	26.870	0	329.796	0	-1e10	8	-1e10	8	-1E+10	1	-1E+10	1	-1E+10	1	-1E+10	1	-1E+10	1	-1E+10	1
4902554	34	C	01/10/2022	22:56	-136.214	49.485	0	333.90	0	4.5670	0	33.9210	0	26.871	0	330.786	0	-1e10	8	-1e10	8	-1E+10	1	-1E+10	1	-1E+10	1	-1E+10	1	-1E+10	1	-1E+10	1
4902554	34	C	01/10/2022	22:56	-136.214	49.485	0	334.90	0	4.5670	0	33.9210	0	26.871	0	331.776	0	-1e10	8	-1e10	8	-1E+10	1	-1E+10	1	-1E+10	1	-1E+10	1	-1E+10	1	-1E+10	1
4902554	34	C	01/10/2022	22:56	-136.214	49.485	0	335.90	0	4.5610	0	33.9240	0	26.874	0	332.766	0	-1e10	8	-1e10	8	-1E+10	1	-1E+10	1	-1E+10	1	-1E+10	1	-1E+10	1	-1E+10	1
4902554	34	C	01/10/2022	22:56	-136.214	49.485	0	336.90	0	4.5560	0	33.9250	0	26.875	0	333.755	0	-1e10	8	-1e10	8	-1E+10	1	-1E+10	1	-1E+10	1	-1E+10	1	-1E+10	1	-1E+10	1
4902554	34	C	01/10/2022	22:56	-136.214	49.485	0	337.90	0	4.5540	0	33.9250	0	26.875	0	334.745	0	-1e10	8	-1e10	8	-1E+10	1	-1E+10	1	-1E+10	1	-1E+10	1	-1E+10	1	-1E+10	1
4902554	34	C	01/10/2022	22:56	-136.214	49.485	0	338.90	0	4.5530	0	33.9260	0	26.876	0	335.735	0	-1e10	8	-1e10	8	-1E+10	1	-1E+10	1	-1E+10	1	-1E+10	1	-1E+10	1	-1E+10	1
4902554	34	C	01/10/2022	22:56	-136.214	49.485	0	339.90	0	4.5520	0	33.9260	0	26.876	0	336.725	0	-1e10	8	-1e10	8	-1E+10	1	-1E+10	1	-1E+10	1	-1E+10	1	-1E+10	1	-1E+10	1
4902554	34	C	01/10/2022	22:56	-136.214	49.485	0	340.90	0	4.5510	0	33.9260	0	26.877	0	337.715	0	-1e10	8	-1e10	8	-1E+10	1	-1E+10	1	-1E+10	1	-1E+10	1	-1E+10	1	-1E+10	1
4902554	34	C	01/10/2022	22:56	-136.214	49.485	0	341.90	0	4.5490	0	33.9270	0	26.878	0	338.705	0	-1e10	8	-1e10	8	-1E+10	1	-1E+10	1	-1E+10	1	-1E+10	1	-1E+10	1	-1E+10	1
4902554	34	C	01/10/2022	22:56	-136.214	49.485	0	342.90	0	4.5480	0	33.9270	0	26.878	0	339.695	0	-1e10	8	-1e10	8	-1E+10	1	-1E+10	1	-1E+10	1	-1E+10	1	-1E+10	1	-1E+10	1
4902554	34	C	01/10/2022	22:56	-136.214	49.485	0	344.00	0	4.5460	0	33.9280	0	26.879	0	340.783	0	-1e10	8	-1e10	8	-1E+10	1	-1E+10	1	-1E+10	1	-1E+10	1	-1E+10	1	-1E+10	1
4902554	34	C	01/10/2022	22:56	-136.214	49.485	0	345.00	0	4.5440	0	33.9290	0	26.880	0	341.773	0	-1e10	8	-1e10	8	-1E+10	1	-1E+10	1	-1E+10	1	-1E+10	1	-1E+10	1	-1E+10	1
4902554	34	C	01/10/2022	22:56	-136.214	49.485	0	346.00	0	4.5420	0	33.9290	0	26.880	0	342.763	0	-1e10	8	-1e10	8	-1E+10	1	-1E+10	1	-1E+10	1	-1E+10	1	-1E+10	1	-1E+10	1
4902554	34	C	01/10/2022	22:56	-136.214	49.485	0	347.00	0	4.5410	0	33.9300	0	26.881	0	343.753	0	-1e10	8	-1e10	8	-1E+10	1	-1E+10	1	-1E+10	1	-1E+10	1	-1E+10	1	-1E+10	1
4902554	34	C	01/10/2022	22:56	-136.214	49.485	0	347.90	0	4.5410	0	33.9300	0	26.881	0	344.644	0	-1e10	8	-1e10	8	-1E+10	1	-1E+10	1	-1E+10	1	-1E+10	1	-1E+10	1	-1E+10	1
4902554	34	C	01/10/2022	22:56	-136.214	49.485	0	348.90	0	4.5380	0	33.9300	0	26.881	0	345.633	0	-1e10	8	-1e10	8	-1E+10	1	-1E+10	1	-1E+10	1	-1E+10	1	-1E+10	1	-1E+10	1
4902554	34	C	01/10/2022	22:56	-136.214	49.485	0	350.00	0	4.5340	0	33.9310	0	26.882	0	346.722	0	-1e10	8	-1e10	8	-1E+10	1	-1E+10	1	-1E+10	1	-1E+10	1	-1E+10	1	-1E+10	1
4902554	34	C	01/10/2022	22:56	-136.214	49.485	0	353.00	0	4.5250	0	33.9340	0	26.886	0	349.692	0	-1e10	8	-1e10	8	-1E+10	1	-1E+10	1	-1E+10	1	-1E+10	1	-1E+10	1	-1E+10	1
4902554	34	C	01/10/2022	22:56	-136.214	49.485	0	358.00	0	4.5050	0	33.9410	0	26.894	0	354.640	0	-1e10	8	-1e10	8	-1E+10	1	-1E+10	1	-1E+10	1	-1E+10	1	-1E+10	1	-1E+10	1
4902554	34	C	01/10/2022	22:56	-136.214	49.485	0	363.20	0	4.4880	0	33.9480	0	26.901	0	359.787	0	-1e10	8	-1e10	8	-1E+10	1	-1E+10	1	-1E+10	1	-1E+10	1	-1E+10	1	-1E+10	1
4902554	34	C	01/10/2022	22:56	-136.214	49.485	0	368.00	0	4.4710	0	33.9530	0	26.907	0	364.538	0	-1e10	8	-1e10	8	-1E+10	1	-1E+10	1	-1E+10	1	-1E+10	1	-1E+10	1	-1E+10	1
4902554	34	C	01/10/2022	22:56	-136.214	49.485	0	373.10	0	4.4530	0	33.9590	0	26.914	0	369.585	0	-1e10	8	-1e10	8	-1E+10	1	-1E+10	1	-1E+10	1	-1E+10	1	-1E+10	1	-1E+10	1
4902554	34	C	01/10/2022	22:56	-136.214	49.485	0	378.20	0	4.4470	0	33.9600	0	26.915	0	374.633	0	-1e10	8	-1e10	8	-1E+10	1	-1E+10	1	-1E+10	1	-1E+10	1	-1E+10	1	-1E+10	1
4902554	34	C	01/10/2022	22:56	-136.214	49.485	0	383.00	0	4.4380	0	33.9630	0	26.918	0	379.383	0	-1e10	8	-1e10	8	-1E+10	1	-1E+10	1	-1E+10	1	-1E+10	1	-1E+10	1	-1E+10	1
4902554	34	C	01/10/2022	22:56	-136.214	49.485	0	387.80	0	4.4190	0	33.9700	0	26.926	0	384.133	0	-1e10	8	-1e10	8	-1E+10	1	-1E+10	1	-1E+10	1	-1E+10	1	-1E+10	1	-1E+10	1
4902554	34	C	01/10/2022	22:56	-136.214	49.485	0	392.80	0	4.4010	0	33.9760	0	26.933	0	389.081	0	-1e10	8	-1e10	8	-1E+10	1	-1E+10	1	-1E+10	1	-1E+10	1	-1E+10	1	-1E+10	1
4902554	34	C	01/10/2022	22:56	-136.214	49.485	0	397.80	0	4.3860	0	33.9830	0	26.940	0	394.029	0	-1e10	8	-1e10	8	-1E+10	1	-1E+10	1	-1E+10	1	-1E+10	1	-1E+10	1	-1E+10	1
4902554	34	C	01/10/2022	22:56	-136.214	49.485	0	402.90	0	4.3680	0	33.9900	0	26.948	0	399.076	0	-1e10	8	-1e10	8	-1E+10	1	-1E+10	1	-1E+10	1	-1E+10	1	-1E+10	1	-1E+10	1
4902554	34	C	01/10/2022	22:56	-136.214	49.485	0	408.00	0	4.3570	0	33.9950	0	26.953	0	404.123	0	-1e10	8	-1e10	8	-1E+10	1	-1E+10	1	-1E+10	1	-1E+10	1	-1E+10	1	-1E+10	1
4902554	34	C	01/10/2022	22:56	-136.214	49.485	0	413.20	0	4.3440	0	34.0010	0	26.959	0	409.268	0	-1e10	8	-1e10	8	-1E+10	1	-1E+10	1	-1E+10	1	-1E+10	1	-1E+10	1	-1E+10	1
4902554	34	C	01/10/2022	22:56	-136.214	49.485	0	418.00	0	4.3330	0	34.0060	0	26.964	0	414.018	0	-1e10	8	-1e10	8	-1E+10	1	-1E+10	1	-1E+10	1	-1E+10	1	-1E+10	1	-1E+10	1
4902554	34	C	01/10/2022	22:56	-136.214	49.485	0	422.90	0	4.3190	0	34.0120	0	26.970	0	418.866	0	-1e10	8	-1e10	8	-1E+10	1	-1E+10	1	-1E+10	1	-1E+10	1	-1E+10	1	-1E+10	1
4902554	34	C	01/10/2022	22:56	-136.214	49.485	0	427.80	0	4.3130	0	34.0150	0	26.973	0	423.714	0	-1e10	8	-1e10	8	-1E+10	1	-1E+10	1	-1E+10	1	-1E+10	1	-1E+10	1	-1E+10	1
4902554	34	C	01/10/2022	22:56	-136.214	49.485	0	432.80	0	4.3030	0	34.0200	0	26.978	0	428.661	0	-1e10	8	-1e10	8	-1E+10	1	-1E+10	1	-1E+10	1	-1E+10	1	-1E+10	1	-1E+10	1
4902554	34	C	01/10/2022	22:56	-136.214	49.485	0	437.80	0	4.2910	0	34.0270	0	26.985	0	433.608	0	-1e10	8	-1e10	8	-1E+10	1	-1E+10	1	-1E+10	1	-1E+10	1	-1E+10	1	-1E+10	1
4902554	34	C	01/10/2022	22:56	-136.214	49.485	0	442.90	0	4.2820	0	34.0330	0	26.991	0	438.654	0	-1e10	8	-1e10	8	-1E+10	1	-1E+10	1	-1E+10	1	-1E+10	1	-1E+10	1	-1E+10	1
4902554	34	C	01/10/2022	22:56	-136.214	49.485	0	448.00	0	4.2700	0	34.0390	0	26.997	0	443.700	0	-1e10	8	-1e10	8	-1E+10	1	-1E+10	1	-1E+10	1	-1E+10	1	-1E+10	1	-1E+10	1
4902554	34	C	01/10/2022	22:56	-136.214	49.485	0	453.20	0	4.2620	0	34.0440	0	27.002	0	448.844	0	-1e10	8	-1e10	8	-1E+10	1	-1E+10	1	-1E+10	1	-1E+10	1	-1E+10	1	-1E+10	1
4902554	34	C	01/10/2022	22:56	-136.214	49.485	0	457.90	0	4.2510	0	34.0480	0	27.006	0	453.494	0	-1e10	8	-1e10	8	-1E+10	1	-1E+10	1	-1E+10	1	-1E+10	1	-1E+10	1	-1E+10	1
4902554	34	C	01/10/2022	22:56	-136.214	49.485	0	462.60	0	4.2460	0	34.0550	0	27.013	0	458.143	0	-1e10	8	-1e10	8	-1E+10	1	-1E+10	1	-1E+10	1	-1E+10	1	-1E+10	1	-1E+10	1
4902554	34	C	01/10/2022	22:56	-136.214	49.485	0	467.80	0	4.2370	0	34.0580	0	27.016	0	463.288	0	-1e10	8	-1e10	8	-1E+10	1	-1E+10	1	-1E+10	1	-1E+10	1	-1E+10	1	-1E+10	1
4902554	34	C	01/10/2022	22:56	-136.214	49.485	0	473.10	0	4.2270	0	34.0650	0	27.023	0	468.530	0	-1e10	8	-1e10	8	-1E+10	1	-1E+10	1	-1E+10	1	-1E+10	1	-1E+10	1	-1E+10	1
4902554	34	C	01/10/2022	22:56	-136.214	49.485	0	477.80	0	4.2160	0	34.0700	0	27.028	0	473.180	0	-1e10	8	-1e10	8	-1E+10	1	-1E+10	1	-1E+10	1	-1E+10	1	-1E+10	1	-1E+10	1
4902554	34	C	01/10/2022	22:56	-136.214	49.485	0	482.80	0	4.2040	0	34.0740	0	27.032	0	478.126	0	-1e10	8	-1e10	8	-1E+10	1	-1E+10	1	-1E+10	1	-1E+10	1	-1E+10	1	-1E+10	1
4902554	34	C	01/10/2022	22:56	-136.214	49.485	0	487.80	0	4.1910	0	34.0780	0	27.037	0	483.071	0	-1e10	8	-1e10	8	-1E+10	1	-1E+10	1	-1E+10	1	-1E+10	1	-1E+10	1	-1E+10	1
4902554	34	C	01/10/2022	22:56	-136.214	49.485	0	492.70	0	4.1890	0	34.0790	0	27.038	0	487.918	0	-1e10	8	-1e10	8	-1E+10	1	-1E+10	1	-1E+10	1	-1E+10	1	-1E+10	1	-1E+10	1
4902554	34	C	01/10/2022	22:56	-136.214	49.485	0	497.90	0	4.1680	0	34.0870	0	27.046	0	493.061	0	-1e10	8	-1e10	8	-1E+10	1	-1E+10	1	-1E+10	1	-1E+10	1	-1E+10	1	-1E+10	1
4902554	34	C	01/10/2022	22:56	-136.214	49.485	0	503.30	0	4.1580	0	34.0900	0	27.050	0	498.403	0	-1e10	8	-1e10	8	-1E+10	1	-1E+10	1	-1E+10	1	-1E+10	1	-1E+10	1	-1E+10	1
4902554	34	C	01/10/2022	22:56	-136.214	49.485	0	508.10	0	4.1420	0	34.0970	0	27.057	0	503.150	0	-1e10	8	-1e10	8	-1E+10	1	-1E+10	1	-1E+10	1	-1E+10	1	-1E+10	1	-1E+10	1
4902554	34	C	01/10/2022	22:56	-136.214	49.485	0	513.10	0	4.1220	0	34.1010	0	27.062	0	508.095	0	-1e10	8	-1e10	8	-1E+10	1	-1E+10	1	-1E+10	1	-1E+10	1	-1E+10	1	-1E+10	1
4902554	34	C	01/10/2022	22:56	-136.214	49.485	0	518.10	0	4.1170	0	34.1030	0	27.065	0	513.040	0	-1e10	8	-1e10	8	-1E+10	1	-1E+10	1	-1E+10	1	-1E+10	1	-1E+10	1	-1E+10	1
4902554	34	C	01/10/2022	22:56	-136.214	49.485	0	523.10	0	4.1090	0	34.1050	0	27.067	0	517.985	0	-1e10	8	-1e10	8	-1E+10	1	-1E+10	1	-1E+10	1	-1E+10	1	-1E+10	1	-1E+10	1
4902554	34	C	01/10/2022	22:56	-136.214	49.485	0	528.20	0	4.1020	0	34.1080	0	27.070	0	523.029	0	-1e10	8	-1e10	8	-1E+10	1	-1E+10	1	-1E+10	1	-1E+10	1	-1E+10	1	-1E+10	1
4902554	34	C	01/10/2022	22:56	-136.214	49.485	0	533.30	0	4.0940	0	34.1120	0	27.074	0	528.072	0	-1e10	8	-1e10	8	-1E+10	1	-1E+10	1	-1E+10	1	-1E+10	1	-1E+10	1	-1E+10	1
4902554	34	C	01/10/2022	22:56	-136.214	49.485	0	537.90	0	4.0850	0	34.1150	0	27.077	0	532.622	0	-1e10	8	-1e10	8	-1E+10	1	-1E+10	1	-1E+10	1	-1E+10	1	-1E+10	1	-1E+10	1
4902554	34	C	01/10/2022	22:56	-136.214	49.485	0	542.60	0	4.0710	0	34.1180	0	27.081	0	537.269	0	-1e10	8	-1e10	8	-1E+10	1	-1E+10	1	-1E+10	1	-1E+10	1	-1E+10	1	-1E+10	1
4902554	34	C	01/10/2022	22:56	-136.214	49.485	0	547.80	0	4.0590	0	34.1210	0	27.085	0	542.411	0	-1e10	8	-1e10	8	-1E+10	1	-1E+10	1	-1E+10	1	-1E+10	1	-1E+10	1	-1E+10	1
4902554	34	C	01/10/2022	22:56	-136.214	49.485	0	553.00	0	4.0370	0	34.1260	0	27.091	0	547.553	0	-1e10	8	-1e10	8	-1E+10	1	-1E+10	1	-1E+10	1	-1E+10	1	-1E+10	1	-1E+10	1
4902554	34	C	01/10/2022	22:56	-136.214	49.485	0	557.80	0	4.0260	0	34.1290	0	27.095	0	552.300	0	-1e10	8	-1e10	8	-1E+10	1	-1E+10	1	-1E+10	1	-1E+10	1	-1E+10	1	-1E+10	1
4902554	34	C	01/10/2022	22:56	-136.214	49.485	0	562.60	0	4.0130	0	34.1340	0	27.100	0	557.046	0	-1e10	8	-1e10	8	-1E+10	1	-1E+10	1	-1E+10	1	-1E+10	1	-1E+10	1	-1E+10	1
4902554	34	C	01/10/2022	22:56	-136.214	49.485	0	567.70	0	3.9980	0	34.1390	0	27.106	0	562.089	0	-1e10	8	-1e10	8	-1E+10	1	-1E+10	1	-1E+10	1	-1E+10	1	-1E+10	1	-1E+10	1
4902554	34	C	01/10/2022	22:56	-136.214	49.485	0	572.90	0	3.9850	0	34.1440	0	27.111	0	567.230	0	-1e10	8	-1e10	8	-1E+10	1	-1E+10	1	-1E+10	1	-1E+10	1	-1E+10	1	-1E+10	1
4902554	34	C	01/10/2022	22:56	-136.214	49.485	0	578.00	0	3.9780	0	34.1490	0	27.116	0	572.273	0	-1e10	8	-1e10	8	-1E+10	1	-1E+10	1	-1E+10	1	-1E+10	1	-1E+10	1	-1E+10	1
4902554	34	C	01/10/2022	22:56	-136.214	49.485	0	583.20	0	3.9680	0	34.1530	0	27.120	0	577.414	0	-1e10	8	-1e10	8	-1E+10	1	-1E+10	1	-1E+10	1	-1E+10	1	-1E+10	1	-1E+10	1
4902554	34	C	01/10/2022	22:56	-136.214	49.485	0	588.00	0	3.9490	0	34.1580	0	27.126	0	582.160	0	-1e10	8	-1e10	8	-1E+10	1	-1E+10	1	-1E+10	1	-1E+10	1	-1E+10	1	-1E+10	1
4902554	34	C	01/10/2022	22:56	-136.214	49.485	0	592.90	0	3.9270	0	34.1620	0	27.131	0	587.004	0	-1e10	8	-1e10	8	-1E+10	1	-1E+10	1	-1E+10	1	-1E+10	1	-1E+10	1	-1E+10	1
4902554	34	C	01/10/2022	22:56	-136.214	49.485	0	597.80	0	3.9160	0	34.1650	0	27.135	0	591.849	0	-1e10	8	-1e10	8	-1E+10	1	-1E+10	1	-1E+10	1	-1E+10	1	-1E+10	1	-1E+10	1
4902554	34	C	01/10/2022	22:56	-136.214	49.485	0	602.80	0	3.8990	0	34.1690	0	27.140	0	596.792	0	-1e10	8	-1e10	8	-1E+10	1	-1E+10	1	-1E+10	1	-1E+10	1	-1E+10	1	-1E+10	1
4902554	34	C	01/10/2022	22:56	-136.214	49.485	0	607.90	0	3.8890	0	34.1730	0	27.144	0	601.833	0	-1e10	8	-1e10	8	-1E+10	1	-1E+10	1	-1E+10	1	-1E+10	1	-1E+10	1	-1E+10	1
4902554	34	C	01/10/2022	22:56	-136.214	49.485	0	612.70	0	3.8800	0	34.1780	0	27.149	0	606.579	0	-1e10	8	-1e10	8	-1E+10	1	-1E+10	1	-1E+10	1	-1E+10	1	-1E+10	1	-1E+10	1
4902554	34	C	01/10/2022	22:56	-136.214	49.485	0	618.00	0	3.8660	0	34.1830	0	27.154	0	611.818	0	-1e10	8	-1e10	8	-1E+10	1	-1E+10	1	-1E+10	1	-1E+10	1	-1E+10	1	-1E+10	1
4902554	34	C	01/10/2022	22:56	-136.214	49.485	0	623.30	0	3.8550	0	34.1870	0	27.159	0	617.057	0	-1e10	8	-1e10	8	-1E+10	1	-1E+10	1	-1E+10	1	-1E+10	1	-1E+10	1	-1E+10	1
4902554	34	C	01/10/2022	22:56	-136.214	49.485	0	628.20	0	3.8410	0	34.1920	0	27.164	0	621.901	0	-1e10	8	-1e10	8	-1E+10	1	-1E+10	1	-1E+10	1	-1E+10	1	-1E+10	1	-1E+10	1
4902554	34	C	01/10/2022	22:56	-136.214	49.485	0	633.30	0	3.8270	0	34.1960	0	27.169	0	626.942	0	-1e10	8	-1e10	8	-1E+10	1	-1E+10	1	-1E+10	1	-1E+10	1	-1E+10	1	-1E+10	1
4902554	34	C	01/10/2022	22:56	-136.214	49.485	0	638.30	0	3.8160	0	34.2000	0	27.173	0	631.884	0	-1e10	8	-1e10	8	-1E+10	1	-1E+10	1	-1E+10	1	-1E+10	1	-1E+10	1	-1E+10	1
4902554	34	C	01/10/2022	22:56	-136.214	49.485	0	642.90	0	3.8050	0	34.2030	0	27.177	0	636.431	0	-1e10	8	-1e10	8	-1E+10	1	-1E+10	1	-1E+10	1	-1E+10	1	-1E+10	1	-1E+10	1
4902554	34	C	01/10/2022	22:56	-136.214	49.485	0	647.50	0	3.7910	0	34.2050	0	27.180	0	640.977	0	-1e10	8	-1e10	8	-1E+10	1	-1E+10	1	-1E+10	1	-1E+10	1	-1E+10	1	-1E+10	1
4902554	34	C	01/10/2022	22:56	-136.214	49.485	0	652.70	0	3.7780	0	34.2070	0	27.183	0	646.117	0	-1e10	8	-1e10	8	-1E+10	1	-1E+10	1	-1E+10	1	-1E+10	1	-1E+10	1	-1E+10	1
4902554	34	C	01/10/2022	22:56	-136.214	49.485	0	657.80	0	3.7710	0	34.2100	0	27.186	0	651.157	0	-1e10	8	-1e10	8	-1E+10	1	-1E+10	1	-1E+10	1	-1E+10	1	-1E+10	1	-1E+10	1
4902554	34	C	01/10/2022	22:56	-136.214	49.485	0	662.90	0	3.7550	0	34.2150	0	27.191	0	656.198	0	-1e10	8	-1e10	8	-1E+10	1	-1E+10	1	-1E+10	1	-1E+10	1	-1E+10	1	-1E+10	1
4902554	34	C	01/10/2022	22:56	-136.214	49.485	0	668.10	0	3.7370	0	34.2180	0	27.195	0	661.337	0	-1e10	8	-1e10	8	-1E+10	1	-1E+10	1	-1E+10	1	-1E+10	1	-1E+10	1	-1E+10	1
4902554	34	C	01/10/2022	22:56	-136.214	49.485	0	672.90	0	3.7170	0	34.2220	0	27.201	0	666.081	0	-1e10	8	-1e10	8	-1E+10	1	-1E+10	1	-1E+10	1	-1E+10	1	-1E+10	1	-1E+10	1
4902554	34	C	01/10/2022	22:56	-136.214	49.485	0	677.60	0	3.7020	0	34.2260	0	27.205	0	670.726	0	-1e10	8	-1e10	8	-1E+10	1	-1E+10	1	-1E+10	1	-1E+10	1	-1E+10	1	-1E+10	1
4902554	34	C	01/10/2022	22:56	-136.214	49.485	0	683.00	0	3.6820	0	34.2290	0	27.210	0	676.062	0	-1e10	8	-1e10	8	-1E+10	1	-1E+10	1	-1E+10	1	-1E+10	1	-1E+10	1	-1E+10	1
4902554	34	C	01/10/2022	22:56	-136.214	49.485	0	688.30	0	3.6680	0	34.2320	0	27.214	0	681.300	0	-1e10	8	-1e10	8	-1E+10	1	-1E+10	1	-1E+10	1	-1E+10	1	-1E+10	1	-1E+10	1
4902554	34	C	01/10/2022	22:56	-136.214	49.485	0	693.10	0	3.6560	0	34.2350	0	27.217	0	686.043	0	-1e10	8	-1e10	8	-1E+10	1	-1E+10	1	-1E+10	1	-1E+10	1	-1E+10	1	-1E+10	1
4902554	34	C	01/10/2022	22:56	-136.214	49.485	0	697.60	0	3.6460	0	34.2370	0	27.220	0	690.490	0	-1e10	8	-1e10	8	-1E+10	1	-1E+10	1	-1E+10	1	-1E+10	1	-1E+10	1	-1E+10	1
4902554	34	C	01/10/2022	22:56	-136.214	49.485	0	702.50	0	3.6330	0	34.2400	0	27.223	0	695.332	0	-1e10	8	-1e10	8	-1E+10	1	-1E+10	1	-1E+10	1	-1E+10	1	-1E+10	1	-1E+10	1
4902554	34	C	01/10/2022	22:56	-136.214	49.485	0	707.60	0	3.6200	0	34.2430	0	27.227	0	700.371	0	-1e10	8	-1e10	8	-1E+10	1	-1E+10	1	-1E+10	1	-1E+10	1	-1E+10	1	-1E+10	1
4902554	34	C	01/10/2022	22:56	-136.214	49.485	0	712.70	0	3.6100	0	34.2450	0	27.230	0	705.410	0	-1e10	8	-1e10	8	-1E+10	1	-1E+10	1	-1E+10	1	-1E+10	1	-1E+10	1	-1E+10	1
4902554	34	C	01/10/2022	22:56	-136.214	49.485	0	717.80	0	3.6010	0	34.2470	0	27.232	0	710.449	0	-1e10	8	-1e10	8	-1E+10	1	-1E+10	1	-1E+10	1	-1E+10	1	-1E+10	1	-1E+10	1
4902554	34	C	01/10/2022	22:56	-136.214	49.485	0	723.00	0	3.5880	0	34.2500	0	27.236	0	715.587	0	-1e10	8	-1e10	8	-1E+10	1	-1E+10	1	-1E+10	1	-1E+10	1	-1E+10	1	-1E+10	1
4902554	34	C	01/10/2022	22:56	-136.214	49.485	0	727.80	0	3.5740	0	34.2530	0	27.240	0	720.330	0	-1e10	8	-1e10	8	-1E+10	1	-1E+10	1	-1E+10	1	-1E+10	1	-1E+10	1	-1E+10	1
4902554	34	C	01/10/2022	22:56	-136.214	49.485	0	732.70	0	3.5560	0	34.2560	0	27.244	0	725.171	0	-1e10	8	-1e10	8	-1E+10	1	-1E+10	1	-1E+10	1	-1E+10	1	-1E+10	1	-1E+10	1
4902554	34	C	01/10/2022	22:56	-136.214	49.485	0	738.00	0	3.5410	0	34.2600	0	27.249	0	730.407	0	-1e10	8	-1e10	8	-1E+10	1	-1E+10	1	-1E+10	1	-1E+10	1	-1E+10	1	-1E+10	1
4902554	34	C	01/10/2022	22:56	-136.214	49.485	0	743.00	0	3.5280	0	34.2620	0	27.251	0	735.347	0	-1e10	8	-1e10	8	-1E+10	1	-1E+10	1	-1E+10	1	-1E+10	1	-1E+10	1	-1E+10	1
4902554	34	C	01/10/2022	22:56	-136.214	49.485	0	748.00	0	3.5090	0	34.2640	0	27.255	0	740.287	0	-1e10	8	-1e10	8	-1E+10	1	-1E+10	1	-1E+10	1	-1E+10	1	-1E+10	1	-1E+10	1
4902554	34	C	01/10/2022	22:56	-136.214	49.485	0	753.10	0	3.4940	0	34.2660	0	27.258	0	745.325	0	-1e10	8	-1e10	8	-1E+10	1	-1E+10	1	-1E+10	1	-1E+10	1	-1E+10	1	-1E+10	1
4902554	34	C	01/10/2022	22:56	-136.214	49.485	0	757.70	0	3.4820	0	34.2700	0	27.262	0	749.869	0	-1e10	8	-1e10	8	-1E+10	1	-1E+10	1	-1E+10	1	-1E+10	1	-1E+10	1	-1E+10	1
4902554	34	C	01/10/2022	22:56	-136.214	49.485	0	762.90	0	3.4640	0	34.2730	0	27.266	0	755.006	0	-1e10	8	-1e10	8	-1E+10	1	-1E+10	1	-1E+10	1	-1E+10	1	-1E+10	1	-1E+10	1
4902554	34	C	01/10/2022	22:56	-136.214	49.485	0	768.10	0	3.4560	0	34.2740	0	27.268	0	760.143	0	-1e10	8	-1e10	8	-1E+10	1	-1E+10	1	-1E+10	1	-1E+10	1	-1E+10	1	-1E+10	1
4902554	34	C	01/10/2022	22:56	-136.214	49.485	0	772.80	0	3.4470	0	34.2770	0	27.271	0	764.785	0	-1e10	8	-1e10	8	-1E+10	1	-1E+10	1	-1E+10	1	-1E+10	1	-1E+10	1	-1E+10	1
4902554	34	C	01/10/2022	22:56	-136.214	49.485	0	777.60	0	3.4440	0	34.2780	0	27.272	0	769.527	0	-1e10	8	-1e10	8	-1E+10	1	-1E+10	1	-1E+10	1	-1E+10	1	-1E+10	1	-1E+10	1
4902554	34	C	01/10/2022	22:56	-136.214	49.485	0	782.90	0	3.4400	0	34.2790	0	27.274	0	774.762	0	-1e10	8	-1e10	8	-1E+10	1	-1E+10	1	-1E+10	1	-1E+10	1	-1E+10	1	-1E+10	1
4902554	34	C	01/10/2022	22:56	-136.214	49.485	0	788.30	0	3.4320	0	34.2810	0	27.276	0	780.096	0	-1e10	8	-1e10	8	-1E+10	1	-1E+10	1	-1E+10	1	-1E+10	1	-1E+10	1	-1E+10	1
4902554	34	C	01/10/2022	22:56	-136.214	49.485	0	793.20	0	3.4240	0	34.2830	0	27.278	0	784.935	0	-1e10	8	-1e10	8	-1E+10	1	-1E+10	1	-1E+10	1	-1E+10	1	-1E+10	1	-1E+10	1
4902554	34	C	01/10/2022	22:56	-136.214	49.485	0	798.20	0	3.4140	0	34.2850	0	27.281	0	789.874	0	-1e10	8	-1e10	8	-1E+10	1	-1E+10	1	-1E+10	1	-1E+10	1	-1E+10	1	-1E+10	1
4902554	34	C	01/10/2022	22:56	-136.214	49.485	0	803.30	0	3.4050	0	34.2870	0	27.283	0	794.911	0	-1e10	8	-1e10	8	-1E+10	1	-1E+10	1	-1E+10	1	-1E+10	1	-1E+10	1	-1E+10	1
4902554	34	C	01/10/2022	22:56	-136.214	49.485	0	807.90	0	3.3990	0	34.2890	0	27.286	0	799.454	0	-1e10	8	-1e10	8	-1E+10	1	-1E+10	1	-1E+10	1	-1E+10	1	-1E+10	1	-1E+10	1
4902554	34	C	01/10/2022	22:56	-136.214	49.485	0	812.90	0	3.3910	0	34.2900	0	27.287	0	804.392	0	-1e10	8	-1e10	8	-1E+10	1	-1E+10	1	-1E+10	1	-1E+10	1	-1E+10	1	-1E+10	1
4902554	34	C	01/10/2022	22:56	-136.214	49.485	0	818.00	0	3.3740	0	34.2950	0	27.293	0	809.429	0	-1e10	8	-1e10	8	-1E+10	1	-1E+10	1	-1E+10	1	-1E+10	1	-1E+10	1	-1E+10	1
4902554	34	C	01/10/2022	22:56	-136.214	49.485	0	822.60	0	3.3710	0	34.2960	0	27.294	0	813.972	0	-1e10	8	-1e10	8	-1E+10	1	-1E+10	1	-1E+10	1	-1E+10	1	-1E+10	1	-1E+10	1
4902554	34	C	01/10/2022	22:56	-136.214	49.485	0	827.80	0	3.3700	0	34.2960	0	27.294	0	819.107	0	-1e10	8	-1e10	8	-1E+10	1	-1E+10	1	-1E+10	1	-1E+10	1	-1E+10	1	-1E+10	1
4902554	34	C	01/10/2022	22:56	-136.214	49.485	0	833.00	0	3.3640	0	34.2970	0	27.296	0	824.242	0	-1e10	8	-1e10	8	-1E+10	1	-1E+10	1	-1E+10	1	-1E+10	1	-1E+10	1	-1E+10	1
4902554	34	C	01/10/2022	22:56	-136.214	49.485	0	838.10	0	3.3460	0	34.3020	0	27.301	0	829.279	0	-1e10	8	-1e10	8	-1E+10	1	-1E+10	1	-1E+10	1	-1E+10	1	-1E+10	1	-1E+10	1
4902554	34	C	01/10/2022	22:56	-136.214	49.485	0	842.80	0	3.3370	0	34.3040	0	27.304	0	833.920	0	-1e10	8	-1e10	8	-1E+10	1	-1E+10	1	-1E+10	1	-1E+10	1	-1E+10	1	-1E+10	1
4902554	34	C	01/10/2022	22:56	-136.214	49.485	0	848.00	0	3.3260	0	34.3060	0	27.306	0	839.055	0	-1e10	8	-1e10	8	-1E+10	1	-1E+10	1	-1E+10	1	-1E+10	1	-1E+10	1	-1E+10	1
4902554	34	C	01/10/2022	22:56	-136.214	49.485	0	853.20	0	3.3160	0	34.3080	0	27.309	0	844.189	0	-1e10	8	-1e10	8	-1E+10	1	-1E+10	1	-1E+10	1	-1E+10	1	-1E+10	1	-1E+10	1
4902554	34	C	01/10/2022	22:56	-136.214	49.485	0	858.10	0	3.3100	0	34.3100	0	27.311	0	849.027	0	-1e10	8	-1e10	8	-1E+10	1	-1E+10	1	-1E+10	1	-1E+10	1	-1E+10	1	-1E+10	1
4902554	34	C	01/10/2022	22:56	-136.214	49.485	0	863.20	0	3.3000	0	34.3120	0	27.314	0	854.063	0	-1e10	8	-1e10	8	-1E+10	1	-1E+10	1	-1E+10	1	-1E+10	1	-1E+10	1	-1E+10	1
4902554	34	C	01/10/2022	22:56	-136.214	49.485	0	868.20	0	3.2900	0	34.3140	0	27.316	0	859.000	0	-1e10	8	-1e10	8	-1E+10	1	-1E+10	1	-1E+10	1	-1E+10	1	-1E+10	1	-1E+10	1
4902554	34	C	01/10/2022	22:56	-136.214	49.485	0	872.90	0	3.2840	0	34.3150	0	27.318	0	863.640	0	-1e10	8	-1e10	8	-1E+10	1	-1E+10	1	-1E+10	1	-1E+10	1	-1E+10	1	-1E+10	1
4902554	34	C	01/10/2022	22:56	-136.214	49.485	0	877.60	0	3.2770	0	34.3170	0	27.320	0	868.281	0	-1e10	8	-1e10	8	-1E+10	1	-1E+10	1	-1E+10	1	-1E+10	1	-1E+10	1	-1E+10	1
4902554	34	C	01/10/2022	22:56	-136.214	49.485	0	882.80	0	3.2670	0	34.3190	0	27.323	0	873.415	0	-1e10	8	-1e10	8	-1E+10	1	-1E+10	1	-1E+10	1	-1E+10	1	-1E+10	1	-1E+10	1
4902554	34	C	01/10/2022	22:56	-136.214	49.485	0	888.00	0	3.2600	0	34.3200	0	27.324	0	878.549	0	-1e10	8	-1e10	8	-1E+10	1	-1E+10	1	-1E+10	1	-1E+10	1	-1E+10	1	-1E+10	1
4902554	34	C	01/10/2022	22:56	-136.214	49.485	0	892.90	0	3.2540	0	34.3210	0	27.325	0	883.386	0	-1e10	8	-1e10	8	-1E+10	1	-1E+10	1	-1E+10	1	-1E+10	1	-1E+10	1	-1E+10	1
4902554	34	C	01/10/2022	22:56	-136.214	49.485	0	897.80	0	3.2460	0	34.3230	0	27.328	0	888.223	0	-1e10	8	-1e10	8	-1E+10	1	-1E+10	1	-1E+10	1	-1E+10	1	-1E+10	1	-1E+10	1
4902554	34	C	01/10/2022	22:56	-136.214	49.485	0	902.70	0	3.2370	0	34.3250	0	27.330	0	893.061	0	-1e10	8	-1e10	8	-1E+10	1	-1E+10	1	-1E+10	1	-1E+10	1	-1E+10	1	-1E+10	1
4902554	34	C	01/10/2022	22:56	-136.214	49.485	0	907.70	0	3.2250	0	34.3270	0	27.333	0	897.997	0	-1e10	8	-1e10	8	-1E+10	1	-1E+10	1	-1E+10	1	-1E+10	1	-1E+10	1	-1E+10	1
4902554	34	C	01/10/2022	22:56	-136.214	49.485	0	913.10	0	3.2150	0	34.3290	0	27.336	0	903.327	0	-1e10	8	-1e10	8	-1E+10	1	-1E+10	1	-1E+10	1	-1E+10	1	-1E+10	1	-1E+10	1
4902554	34	C	01/10/2022	22:56	-136.214	49.485	0	918.00	0	3.2100	0	34.3300	0	27.337	0	908.164	0	-1e10	8	-1e10	8	-1E+10	1	-1E+10	1	-1E+10	1	-1E+10	1	-1E+10	1	-1E+10	1
4902554	34	C	01/10/2022	22:56	-136.214	49.485	0	922.90	0	3.1970	0	34.3330	0	27.340	0	913.001	0	-1e10	8	-1e10	8	-1E+10	1	-1E+10	1	-1E+10	1	-1E+10	1	-1E+10	1	-1E+10	1
4902554	34	C	01/10/2022	22:56	-136.214	49.485	0	927.80	0	3.1760	0	34.3370	0	27.346	0	917.838	0	-1e10	8	-1e10	8	-1E+10	1	-1E+10	1	-1E+10	1	-1E+10	1	-1E+10	1	-1E+10	1
4902554	34	C	01/10/2022	22:56	-136.214	49.485	0	932.70	0	3.1610	0	34.3400	0	27.349	0	922.674	0	-1e10	8	-1e10	8	-1E+10	1	-1E+10	1	-1E+10	1	-1E+10	1	-1E+10	1	-1E+10	1
4902554	34	C	01/10/2022	22:56	-136.214	49.485	0	938.00	0	3.1480	0	34.3430	0	27.353	0	927.906	0	-1e10	8	-1e10	8	-1E+10	1	-1E+10	1	-1E+10	1	-1E+10	1	-1E+10	1	-1E+10	1
4902554	34	C	01/10/2022	22:56	-136.214	49.485	0	942.90	0	3.1380	0	34.3450	0	27.356	0	932.742	0	-1e10	8	-1e10	8	-1E+10	1	-1E+10	1	-1E+10	1	-1E+10	1	-1E+10	1	-1E+10	1
4902554	34	C	01/10/2022	22:56	-136.214	49.485	0	947.80	0	3.1300	0	34.3470	0	27.358	0	937.578	0	-1e10	8	-1e10	8	-1E+10	1	-1E+10	1	-1E+10	1	-1E+10	1	-1E+10	1	-1E+10	1
4902554	34	C	01/10/2022	22:56	-136.214	49.485	0	953.10	0	3.1240	0	34.3480	0	27.359	0	942.809	0	-1e10	8	-1e10	8	-1E+10	1	-1E+10	1	-1E+10	1	-1E+10	1	-1E+10	1	-1E+10	1
4902554	34	C	01/10/2022	22:56	-136.214	49.485	0	957.90	0	3.1150	0	34.3510	0	27.363	0	947.546	0	-1e10	8	-1e10	8	-1E+10	1	-1E+10	1	-1E+10	1	-1E+10	1	-1E+10	1	-1E+10	1
4902554	34	C	01/10/2022	22:56	-136.214	49.485	0	962.70	0	3.1000	0	34.3540	0	27.366	0	952.284	0	-1e10	8	-1e10	8	-1E+10	1	-1E+10	1	-1E+10	1	-1E+10	1	-1E+10	1	-1E+10	1
4902554	34	C	01/10/2022	22:56	-136.214	49.485	0	967.90	0	3.0840	0	34.3570	0	27.370	0	957.415	0	-1e10	8	-1e10	8	-1E+10	1	-1E+10	1	-1E+10	1	-1E+10	1	-1E+10	1	-1E+10	1
4902554	34	C	01/10/2022	22:56	-136.214	49.485	0	973.10	0	3.0660	0	34.3600	0	27.374	0	962.547	0	-1e10	8	-1e10	8	-1E+10	1	-1E+10	1	-1E+10	1	-1E+10	1	-1E+10	1	-1E+10	1
4902554	34	C	01/10/2022	22:56	-136.214	49.485	0	977.80	0	3.0520	0	34.3630	0	27.378	0	967.185	0	-1e10	8	-1e10	8	-1E+10	1	-1E+10	1	-1E+10	1	-1E+10	1	-1E+10	1	-1E+10	1
4902554	34	C	01/10/2022	22:56	-136.214	49.485	0	982.70	0	3.0440	0	34.3640	0	27.379	0	972.021	0	-1e10	8	-1e10	8	-1E+10	1	-1E+10	1	-1E+10	1	-1E+10	1	-1E+10	1	-1E+10	1
4902554	34	C	01/10/2022	22:56	-136.214	49.485	0	988.00	0	3.0350	0	34.3670	0	27.383	0	977.251	0	-1e10	8	-1e10	8	-1E+10	1	-1E+10	1	-1E+10	1	-1E+10	1	-1E+10	1	-1E+10	1
4902554	34	C	01/10/2022	22:56	-136.214	49.485	0	993.10	0	3.0260	0	34.3690	0	27.385	0	982.283	0	-1e10	8	-1e10	8	-1E+10	1	-1E+10	1	-1E+10	1	-1E+10	1	-1E+10	1	-1E+10	1
4902554	34	C	01/10/2022	22:56	-136.214	49.485	0	998.30	0	3.0220	0	34.3700	0	27.386	0	987.415	0	-1e10	8	-1e10	8	-1E+10	1	-1E+10	1	-1E+10	1	-1E+10	1	-1E+10	1	-1E+10	1
4902554	34	C	01/10/2022	22:56	-136.214	49.485	0	1005.50	0	3.0150	0	34.3710	0	27.388	0	994.519	0	-1e10	8	-1e10	8	-1E+10	1	-1E+10	1	-1E+10	1	-1E+10	1	-1E+10	1	-1E+10	1
4902554	34	C	01/10/2022	22:56	-136.214	49.485	0	1015.20	0	2.9990	0	34.3740	0	27.392	0	1004.090	0	-1e10	8	-1e10	8	-1E+10	1	-1E+10	1	-1E+10	1	-1E+10	1	-1E+10	1	-1E+10	1
4902554	34	C	01/10/2022	22:56	-136.214	49.485	0	1025.30	0	2.9820	0	34.3780	0	27.397	0	1014.055	0	-1e10	8	-1e10	8	-1E+10	1	-1E+10	1	-1E+10	1	-1E+10	1	-1E+10	1	-1E+10	1
4902554	34	C	01/10/2022	22:56	-136.214	49.485	0	1035.50	0	2.9730	0	34.3800	0	27.399	0	1024.118	0	-1e10	8	-1e10	8	-1E+10	1	-1E+10	1	-1E+10	1	-1E+10	1	-1E+10	1	-1E+10	1
4902554	34	C	01/10/2022	22:56	-136.214	49.485	0	1045.20	0	2.9610	0	34.3830	0	27.403	0	1033.688	0	-1e10	8	-1e10	8	-1E+10	1	-1E+10	1	-1E+10	1	-1E+10	1	-1E+10	1	-1E+10	1
4902554	34	C	01/10/2022	22:56	-136.214	49.485	0	1055.10	0	2.9440	0	34.3860	0	27.407	0	1043.454	0	-1e10	8	-1e10	8	-1E+10	1	-1E+10	1	-1E+10	1	-1E+10	1	-1E+10	1	-1E+10	1
4902554	34	C	01/10/2022	22:56	-136.214	49.485	0	1065.20	0	2.9340	0	34.3880	0	27.409	0	1053.417	0	-1e10	8	-1e10	8	-1E+10	1	-1E+10	1	-1E+10	1	-1E+10	1	-1E+10	1	-1E+10	1
4902554	34	C	01/10/2022	22:56	-136.214	49.485	0	1075.40	0	2.9150	0	34.3910	0	27.413	0	1063.478	0	-1e10	8	-1e10	8	-1E+10	1	-1E+10	1	-1E+10	1	-1E+10	1	-1E+10	1	-1E+10	1
4902554	34	C	01/10/2022	22:56	-136.214	49.485	0	1085.50	0	2.8890	0	34.3960	0	27.420	0	1073.441	0	-1e10	8	-1e10	8	-1E+10	1	-1E+10	1	-1E+10	1	-1E+10	1	-1E+10	1	-1E+10	1
4902554	34	C	01/10/2022	22:56	-136.214	49.485	0	1095.10	0	2.8650	0	34.4000	0	27.425	0	1082.909	0	-1e10	8	-1e10	8	-1E+10	1	-1E+10	1	-1E+10	1	-1E+10	1	-1E+10	1	-1E+10	1
4902554	34	C	01/10/2022	22:56	-136.214	49.485	0	1105.30	0	2.8450	0	34.4040	0	27.430	0	1092.969	0	-1e10	8	-1e10	8	-1E+10	1	-1E+10	1	-1E+10	1	-1E+10	1	-1E+10	1	-1E+10	1
4902554	34	C	01/10/2022	22:56	-136.214	49.485	0	1115.20	0	2.8330	0	34.4060	0	27.433	0	1102.733	0	-1e10	8	-1e10	8	-1E+10	1	-1E+10	1	-1E+10	1	-1E+10	1	-1E+10	1	-1E+10	1
4902554	34	C	01/10/2022	22:56	-136.214	49.485	0	1125.40	0	2.8220	0	34.4080	0	27.435	0	1112.792	0	-1e10	8	-1e10	8	-1E+10	1	-1E+10	1	-1E+10	1	-1E+10	1	-1E+10	1	-1E+10	1
4902554	34	C	01/10/2022	22:56	-136.214	49.485	0	1135.50	0	2.8020	0	34.4110	0	27.439	0	1122.752	0	-1e10	8	-1e10	8	-1E+10	1	-1E+10	1	-1E+10	1	-1E+10	1	-1E+10	1	-1E+10	1
4902554	34	C	01/10/2022	22:56	-136.214	49.485	0	1145.40	0	2.7870	0	34.4140	0	27.443	0	1132.514	0	-1e10	8	-1e10	8	-1E+10	1	-1E+10	1	-1E+10	1	-1E+10	1	-1E+10	1	-1E+10	1
4902554	34	C	01/10/2022	22:56	-136.214	49.485	0	1155.30	0	2.7760	0	34.4160	0	27.446	0	1142.276	0	-1e10	8	-1e10	8	-1E+10	1	-1E+10	1	-1E+10	1	-1E+10	1	-1E+10	1	-1E+10	1
4902554	34	C	01/10/2022	22:56	-136.214	49.485	0	1165.20	0	2.7670	0	34.4180	0	27.448	0	1152.037	0	-1e10	8	-1e10	8	-1E+10	1	-1E+10	1	-1E+10	1	-1E+10	1	-1E+10	1	-1E+10	1
4902554	34	C	01/10/2022	22:56	-136.214	49.485	0	1175.60	0	2.7540	0	34.4210	0	27.452	0	1162.290	0	-1e10	8	-1e10	8	-1E+10	1	-1E+10	1	-1E+10	1	-1E+10	1	-1E+10	1	-1E+10	1
4902554	34	C	01/10/2022	22:56	-136.214	49.485	0	1185.70	0	2.7360	0	34.4240	0	27.456	0	1172.248	0	-1e10	8	-1e10	8	-1E+10	1	-1E+10	1	-1E+10	1	-1E+10	1	-1E+10	1	-1E+10	1
4902554	34	C	01/10/2022	22:56	-136.214	49.485	0	1195.30	0	2.7220	0	34.4270	0	27.460	0	1181.712	0	-1e10	8	-1e10	8	-1E+10	1	-1E+10	1	-1E+10	1	-1E+10	1	-1E+10	1	-1E+10	1
4902554	34	C	01/10/2022	22:56	-136.214	49.485	0	1205.50	0	2.7140	0	34.4290	0	27.462	0	1191.767	0	-1e10	8	-1e10	8	-1E+10	1	-1E+10	1	-1E+10	1	-1E+10	1	-1E+10	1	-1E+10	1
4902554	34	C	01/10/2022	22:56	-136.214	49.485	0	1215.80	0	2.7030	0	34.4310	0	27.465	0	1201.921	0	-1e10	8	-1e10	8	-1E+10	1	-1E+10	1	-1E+10	1	-1E+10	1	-1E+10	1	-1E+10	1
4902554	34	C	01/10/2022	22:56	-136.214	49.485	0	1225.80	0	2.6920	0	34.4330	0	27.467	0	1211.778	0	-1e10	8	-1e10	8	-1E+10	1	-1E+10	1	-1E+10	1	-1E+10	1	-1E+10	1	-1E+10	1
4902554	34	C	01/10/2022	22:56	-136.214	49.485	0	1235.60	0	2.6840	0	34.4350	0	27.470	0	1221.437	0	-1e10	8	-1e10	8	-1E+10	1	-1E+10	1	-1E+10	1	-1E+10	1	-1E+10	1	-1E+10	1
4902554	34	C	01/10/2022	22:56	-136.214	49.485	0	1245.60	0	2.6670	0	34.4390	0	27.474	0	1231.293	0	-1e10	8	-1e10	8	-1E+10	1	-1E+10	1	-1E+10	1	-1E+10	1	-1E+10	1	-1E+10	1
4902554	34	C	01/10/2022	22:56	-136.214	49.485	0	1255.50	0	2.6610	0	34.4400	0	27.476	0	1241.050	0	-1e10	8	-1e10	8	-1E+10	1	-1E+10	1	-1E+10	1	-1E+10	1	-1E+10	1	-1E+10	1
4902554	34	C	01/10/2022	22:56	-136.214	49.485	0	1265.10	0	2.6460	0	34.4420	0	27.479	0	1250.511	0	-1e10	8	-1e10	8	-1E+10	1	-1E+10	1	-1E+10	1	-1E+10	1	-1E+10	1	-1E+10	1
4902554	34	C	01/10/2022	22:56	-136.214	49.485	0	1275.40	0	2.6390	0	34.4440	0	27.481	0	1260.662	0	-1e10	8	-1e10	8	-1E+10	1	-1E+10	1	-1E+10	1	-1E+10	1	-1E+10	1	-1E+10	1
4902554	34	C	01/10/2022	22:56	-136.214	49.485	0	1285.70	0	2.6290	0	34.4460	0	27.483	0	1270.812	0	-1e10	8	-1e10	8	-1E+10	1	-1E+10	1	-1E+10	1	-1E+10	1	-1E+10	1	-1E+10	1
4902554	34	C	01/10/2022	22:56	-136.214	49.485	0	1295.50	0	2.6220	0	34.4470	0	27.485	0	1280.468	0	-1e10	8	-1e10	8	-1E+10	1	-1E+10	1	-1E+10	1	-1E+10	1	-1E+10	1	-1E+10	1
4902554	34	C	01/10/2022	22:56	-136.214	49.485	0	1305.40	0	2.6130	0	34.4490	0	27.487	0	1290.223	0	-1e10	8	-1e10	8	-1E+10	1	-1E+10	1	-1E+10	1	-1E+10	1	-1E+10	1	-1E+10	1
4902554	34	C	01/10/2022	22:56	-136.214	49.485	0	1315.20	0	2.5980	0	34.4520	0	27.491	0	1299.879	0	-1e10	8	-1e10	8	-1E+10	1	-1E+10	1	-1E+10	1	-1E+10	1	-1E+10	1	-1E+10	1
4902554	34	C	01/10/2022	22:56	-136.214	49.485	0	1325.00	0	2.5860	0	34.4540	0	27.494	0	1309.534	0	-1e10	8	-1e10	8	-1E+10	1	-1E+10	1	-1E+10	1	-1E+10	1	-1E+10	1	-1E+10	1
4902554	34	C	01/10/2022	22:56	-136.214	49.485	0	1335.20	0	2.5770	0	34.4560	0	27.496	0	1319.583	0	-1e10	8	-1e10	8	-1E+10	1	-1E+10	1	-1E+10	1	-1E+10	1	-1E+10	1	-1E+10	1
4902554	34	C	01/10/2022	22:56	-136.214	49.485	0	1345.80	0	2.5530	0	34.4610	0	27.502	0	1330.026	0	-1e10	8	-1e10	8	-1E+10	1	-1E+10	1	-1E+10	1	-1E+10	1	-1E+10	1	-1E+10	1
4902554	34	C	01/10/2022	22:56	-136.214	49.485	0	1355.60	0	2.5330	0	34.4650	0	27.507	0	1339.680	0	-1e10	8	-1e10	8	-1E+10	1	-1E+10	1	-1E+10	1	-1E+10	1	-1E+10	1	-1E+10	1
4902554	34	C	01/10/2022	22:56	-136.214	49.485	0	1365.40	0	2.5200	0	34.4670	0	27.510	0	1349.334	0	-1e10	8	-1e10	8	-1E+10	1	-1E+10	1	-1E+10	1	-1E+10	1	-1E+10	1	-1E+10	1
4902554	34	C	01/10/2022	22:56	-136.214	49.485	0	1375.30	0	2.5070	0	34.4700	0	27.513	0	1359.085	0	-1e10	8	-1e10	8	-1E+10	1	-1E+10	1	-1E+10	1	-1E+10	1	-1E+10	1	-1E+10	1
4902554	34	C	01/10/2022	22:56	-136.214	49.485	0	1385.40	0	2.4980	0	34.4720	0	27.516	0	1369.033	0	-1e10	8	-1e10	8	-1E+10	1	-1E+10	1	-1E+10	1	-1E+10	1	-1E+10	1	-1E+10	1
4902554	34	C	01/10/2022	22:56	-136.214	49.485	0	1395.30	0	2.4860	0	34.4740	0	27.518	0	1378.784	0	-1e10	8	-1e10	8	-1E+10	1	-1E+10	1	-1E+10	1	-1E+10	1	-1E+10	1	-1E+10	1
4902554	34	C	01/10/2022	22:56	-136.214	49.485	0	1405.40	0	2.4720	0	34.4770	0	27.522	0	1388.731	0	-1e10	8	-1e10	8	-1E+10	1	-1E+10	1	-1E+10	1	-1E+10	1	-1E+10	1	-1E+10	1
4902554	34	C	01/10/2022	22:56	-136.214	49.485	0	1415.30	0	2.4630	0	34.4790	0	27.524	0	1398.481	0	-1e10	8	-1e10	8	-1E+10	1	-1E+10	1	-1E+10	1	-1E+10	1	-1E+10	1	-1E+10	1
4902554	34	C	01/10/2022	22:56	-136.214	49.485	0	1425.40	0	2.4560	0	34.4800	0	27.526	0	1408.427	0	-1e10	8	-1e10	8	-1E+10	1	-1E+10	1	-1E+10	1	-1E+10	1	-1E+10	1	-1E+10	1
4902554	34	C	01/10/2022	22:56	-136.214	49.485	0	1435.40	0	2.4530	0	34.4810	0	27.527	0	1418.275	0	-1e10	8	-1e10	8	-1E+10	1	-1E+10	1	-1E+10	1	-1E+10	1	-1E+10	1	-1E+10	1
4902554	34	C	01/10/2022	22:56	-136.214	49.485	0	1445.00	0	2.4450	0	34.4820	0	27.529	0	1427.728	0	-1e10	8	-1e10	8	-1E+10	1	-1E+10	1	-1E+10	1	-1E+10	1	-1E+10	1	-1E+10	1
4902554	34	C	01/10/2022	22:56	-136.214	49.485	0	1455.10	0	2.4390	0	34.4830	0	27.530	0	1437.673	0	-1e10	8	-1e10	8	-1E+10	1	-1E+10	1	-1E+10	1	-1E+10	1	-1E+10	1	-1E+10	1
4902554	34	C	01/10/2022	22:56	-136.214	49.485	0	1465.10	0	2.4210	0	34.4870	0	27.535	0	1447.519	0	-1e10	8	-1e10	8	-1E+10	1	-1E+10	1	-1E+10	1	-1E+10	1	-1E+10	1	-1E+10	1
4902554	34	C	01/10/2022	22:56	-136.214	49.485	0	1475.10	0	2.4140	0	34.4890	0	27.537	0	1457.364	0	-1e10	8	-1e10	8	-1E+10	1	-1E+10	1	-1E+10	1	-1E+10	1	-1E+10	1	-1E+10	1
4902554	34	C	01/10/2022	22:56	-136.214	49.485	0	1485.20	0	2.4070	0	34.4900	0	27.538	0	1467.308	0	-1e10	8	-1e10	8	-1E+10	1	-1E+10	1	-1E+10	1	-1E+10	1	-1E+10	1	-1E+10	1
4902554	34	C	01/10/2022	22:56	-136.214	49.485	0	1495.30	0	2.3960	0	34.4920	0	27.541	0	1477.251	0	-1e10	8	-1e10	8	-1E+10	1	-1E+10	1	-1E+10	1	-1E+10	1	-1E+10	1	-1E+10	1
4902554	34	C	01/10/2022	22:56	-136.214	49.485	0	1505.40	0	2.3780	0	34.4960	0	27.546	0	1487.193	0	-1e10	8	-1e10	8	-1E+10	1	-1E+10	1	-1E+10	1	-1E+10	1	-1E+10	1	-1E+10	1
4902554	34	C	01/10/2022	22:56	-136.214	49.485	0	1515.20	0	2.3640	0	34.4990	0	27.549	0	1496.840	0	-1e10	8	-1e10	8	-1E+10	1	-1E+10	1	-1E+10	1	-1E+10	1	-1E+10	1	-1E+10	1
4902554	34	C	01/10/2022	22:56	-136.214	49.485	0	1525.00	0	2.3600	0	34.5000	0	27.550	0	1506.487	0	-1e10	8	-1e10	8	-1E+10	1	-1E+10	1	-1E+10	1	-1E+10	1	-1E+10	1	-1E+10	1
4902554	34	C	01/10/2022	22:56	-136.214	49.485	0	1535.30	0	2.3450	0	34.5020	0	27.553	0	1516.625	0	-1e10	8	-1e10	8	-1E+10	1	-1E+10	1	-1E+10	1	-1E+10	1	-1E+10	1	-1E+10	1
4902554	34	C	01/10/2022	22:56	-136.214	49.485	0	1545.50	0	2.3350	0	34.5050	0	27.557	0	1526.664	0	-1e10	8	-1e10	8	-1E+10	1	-1E+10	1	-1E+10	1	-1E+10	1	-1E+10	1	-1E+10	1
4902554	34	C	01/10/2022	22:56	-136.214	49.485	0	1555.30	0	2.3340	0	34.5050	0	27.557	0	1536.309	0	-1e10	8	-1e10	8	-1E+10	1	-1E+10	1	-1E+10	1	-1E+10	1	-1E+10	1	-1E+10	1
4902554	34	C	01/10/2022	22:56	-136.214	49.485	0	1565.30	0	2.3220	0	34.5070	0	27.559	0	1546.150	0	-1e10	8	-1e10	8	-1E+10	1	-1E+10	1	-1E+10	1	-1E+10	1	-1E+10	1	-1E+10	1
4902554	34	C	01/10/2022	22:56	-136.214	49.485	0	1575.60	0	2.3070	0	34.5100	0	27.563	0	1556.286	0	-1e10	8	-1e10	8	-1E+10	1	-1E+10	1	-1E+10	1	-1E+10	1	-1E+10	1	-1E+10	1
4902554	34	C	01/10/2022	22:56	-136.214	49.485	0	1585.70	0	2.2940	0	34.5130	0	27.567	0	1566.225	0	-1e10	8	-1e10	8	-1E+10	1	-1E+10	1	-1E+10	1	-1E+10	1	-1E+10	1	-1E+10	1
4902554	34	C	01/10/2022	22:56	-136.214	49.485	0	1595.50	0	2.2780	0	34.5160	0	27.570	0	1575.868	0	-1e10	8	-1e10	8	-1E+10	1	-1E+10	1	-1E+10	1	-1E+10	1	-1E+10	1	-1E+10	1
4902554	34	C	01/10/2022	22:56	-136.214	49.485	0	1605.40	0	2.2660	0	34.5180	0	27.573	0	1585.609	0	-1e10	8	-1e10	8	-1E+10	1	-1E+10	1	-1E+10	1	-1E+10	1	-1E+10	1	-1E+10	1
4902554	34	C	01/10/2022	22:56	-136.214	49.485	0	1615.40	0	2.2520	0	34.5210	0	27.576	0	1595.448	0	-1e10	8	-1e10	8	-1E+10	1	-1E+10	1	-1E+10	1	-1E+10	1	-1E+10	1	-1E+10	1
4902554	34	C	01/10/2022	22:56	-136.214	49.485	0	1625.30	0	2.2410	0	34.5230	0	27.579	0	1605.189	0	-1e10	8	-1e10	8	-1E+10	1	-1E+10	1	-1E+10	1	-1E+10	1	-1E+10	1	-1E+10	1
4902554	34	C	01/10/2022	22:56	-136.214	49.485	0	1635.40	0	2.2380	0	34.5240	0	27.580	0	1615.125	0	-1e10	8	-1e10	8	-1E+10	1	-1E+10	1	-1E+10	1	-1E+10	1	-1E+10	1	-1E+10	1
4902554	34	C	01/10/2022	22:56	-136.214	49.485	0	1645.20	0	2.2280	0	34.5260	0	27.583	0	1624.766	0	-1e10	8	-1e10	8	-1E+10	1	-1E+10	1	-1E+10	1	-1E+10	1	-1E+10	1	-1E+10	1
4902554	34	C	01/10/2022	22:56	-136.214	49.485	0	1654.90	0	2.2230	0	34.5270	0	27.584	0	1634.308	0	-1e10	8	-1e10	8	-1E+10	1	-1E+10	1	-1E+10	1	-1E+10	1	-1E+10	1	-1E+10	1
4902554	34	C	01/10/2022	22:56	-136.214	49.485	0	1665.00	0	2.2160	0	34.5290	0	27.586	0	1644.243	0	-1e10	8	-1e10	8	-1E+10	1	-1E+10	1	-1E+10	1	-1E+10	1	-1E+10	1	-1E+10	1
4902554	34	C	01/10/2022	22:56	-136.214	49.485	0	1675.00	0	2.2050	0	34.5310	0	27.589	0	1654.080	0	-1e10	8	-1e10	8	-1E+10	1	-1E+10	1	-1E+10	1	-1E+10	1	-1E+10	1	-1E+10	1
4902554	34	C	01/10/2022	22:56	-136.214	49.485	0	1685.00	0	2.1950	0	34.5330	0	27.591	0	1663.916	0	-1e10	8	-1e10	8	-1E+10	1	-1E+10	1	-1E+10	1	-1E+10	1	-1E+10	1	-1E+10	1
4902554	34	C	01/10/2022	22:56	-136.214	49.485	0	1695.10	0	2.1880	0	34.5340	0	27.592	0	1673.849	0	-1e10	8	-1e10	8	-1E+10	1	-1E+10	1	-1E+10	1	-1E+10	1	-1E+10	1	-1E+10	1
4902554	34	C	01/10/2022	22:56	-136.214	49.485	0	1705.30	0	2.1860	0	34.5350	0	27.593	0	1683.881	0	-1e10	8	-1e10	8	-1E+10	1	-1E+10	1	-1E+10	1	-1E+10	1	-1E+10	1	-1E+10	1
4902554	34	C	01/10/2022	22:56	-136.214	49.485	0	1715.60	0	2.1730	0	34.5370	0	27.596	0	1694.011	0	-1e10	8	-1e10	8	-1E+10	1	-1E+10	1	-1E+10	1	-1E+10	1	-1E+10	1	-1E+10	1
4902554	34	C	01/10/2022	22:56	-136.214	49.485	0	1725.40	0	2.1640	0	34.5400	0	27.599	0	1703.648	0	-1e10	8	-1e10	8	-1E+10	1	-1E+10	1	-1E+10	1	-1E+10	1	-1E+10	1	-1E+10	1
4902554	34	C	01/10/2022	22:56	-136.214	49.485	0	1735.40	0	2.1590	0	34.5400	0	27.600	0	1713.482	0	-1e10	8	-1e10	8	-1E+10	1	-1E+10	1	-1E+10	1	-1E+10	1	-1E+10	1	-1E+10	1
4902554	34	C	01/10/2022	22:56	-136.214	49.485	0	1745.80	0	2.1480	0	34.5430	0	27.603	0	1723.708	0	-1e10	8	-1e10	8	-1E+10	1	-1E+10	1	-1E+10	1	-1E+10	1	-1E+10	1	-1E+10	1
4902554	34	C	01/10/2022	22:56	-136.214	49.485	0	1755.50	0	2.1380	0	34.5450	0	27.606	0	1733.246	0	-1e10	8	-1e10	8	-1E+10	1	-1E+10	1	-1E+10	1	-1E+10	1	-1E+10	1	-1E+10	1
4902554	34	C	01/10/2022	22:56	-136.214	49.485	0	1765.40	0	2.1290	0	34.5460	0	27.607	0	1742.980	0	-1e10	8	-1e10	8	-1E+10	1	-1E+10	1	-1E+10	1	-1E+10	1	-1E+10	1	-1E+10	1
4902554	34	C	01/10/2022	22:56	-136.214	49.485	0	1775.40	0	2.1250	0	34.5470	0	27.608	0	1752.811	0	-1e10	8	-1e10	8	-1E+10	1	-1E+10	1	-1E+10	1	-1E+10	1	-1E+10	1	-1E+10	1
4902554	34	C	01/10/2022	22:56	-136.214	49.485	0	1785.50	0	2.1200	0	34.5480	0	27.610	0	1762.741	0	-1e10	8	-1e10	8	-1E+10	1	-1E+10	1	-1E+10	1	-1E+10	1	-1E+10	1	-1E+10	1
4902554	34	C	01/10/2022	22:56	-136.214	49.485	0	1795.60	0	2.1080	0	34.5510	0	27.613	0	1772.670	0	-1e10	8	-1e10	8	-1E+10	1	-1E+10	1	-1E+10	1	-1E+10	1	-1E+10	1	-1E+10	1
4902554	34	C	01/10/2022	22:56	-136.214	49.485	0	1805.50	0	2.1000	0	34.5520	0	27.614	0	1782.402	0	-1e10	8	-1e10	8	-1E+10	1	-1E+10	1	-1E+10	1	-1E+10	1	-1E+10	1	-1E+10	1
4902554	34	C	01/10/2022	22:56	-136.214	49.485	0	1815.50	0	2.0910	0	34.5540	0	27.617	0	1792.232	0	-1e10	8	-1e10	8	-1E+10	1	-1E+10	1	-1E+10	1	-1E+10	1	-1E+10	1	-1E+10	1
4902554	34	C	01/10/2022	22:56	-136.214	49.485	0	1825.40	0	2.0810	0	34.5560	0	27.619	0	1801.963	0	-1e10	8	-1e10	8	-1E+10	1	-1E+10	1	-1E+10	1	-1E+10	1	-1E+10	1	-1E+10	1
4902554	34	C	01/10/2022	22:56	-136.214	49.485	0	1835.40	0	2.0750	0	34.5570	0	27.621	0	1811.792	0	-1e10	8	-1e10	8	-1E+10	1	-1E+10	1	-1E+10	1	-1E+10	1	-1E+10	1	-1E+10	1
4902554	34	C	01/10/2022	22:56	-136.214	49.485	0	1845.60	0	2.0670	0	34.5590	0	27.623	0	1821.817	0	-1e10	8	-1e10	8	-1E+10	1	-1E+10	1	-1E+10	1	-1E+10	1	-1E+10	1	-1E+10	1
4902554	34	C	01/10/2022	22:56	-136.214	49.485	0	1855.60	0	2.0570	0	34.5610	0	27.625	0	1831.645	0	-1e10	8	-1e10	8	-1E+10	1	-1E+10	1	-1E+10	1	-1E+10	1	-1E+10	1	-1E+10	1
4902554	34	C	01/10/2022	22:56	-136.214	49.485	0	1865.80	0	2.0500	0	34.5620	0	27.627	0	1841.670	0	-1e10	8	-1e10	8	-1E+10	1	-1E+10	1	-1E+10	1	-1E+10	1	-1E+10	1	-1E+10	1
4902554	34	C	01/10/2022	22:56	-136.214	49.485	0	1875.60	0	2.0440	0	34.5630	0	27.628	0	1851.300	0	-1e10	8	-1e10	8	-1E+10	1	-1E+10	1	-1E+10	1	-1E+10	1	-1E+10	1	-1E+10	1
4902554	34	C	01/10/2022	22:56	-136.214	49.485	0	1885.60	0	2.0370	0	34.5650	0	27.630	0	1861.127	0	-1e10	8	-1e10	8	-1E+10	1	-1E+10	1	-1E+10	1	-1E+10	1	-1E+10	1	-1E+10	1
4902554	34	C	01/10/2022	22:56	-136.214	49.485	0	1895.60	0	2.0260	0	34.5670	0	27.633	0	1870.953	0	-1e10	8	-1e10	8	-1E+10	1	-1E+10	1	-1E+10	1	-1E+10	1	-1E+10	1	-1E+10	1
4902554	34	C	01/10/2022	22:56	-136.214	49.485	0	1905.10	0	2.0190	0	34.5680	0	27.634	0	1880.288	0	-1e10	8	-1e10	8	-1E+10	1	-1E+10	1	-1E+10	1	-1E+10	1	-1E+10	1	-1E+10	1
4902554	34	C	01/10/2022	22:56	-136.214	49.485	0	1915.30	0	2.0120	0	34.5690	0	27.636	0	1890.310	0	-1e10	8	-1e10	8	-1E+10	1	-1E+10	1	-1E+10	1	-1E+10	1	-1E+10	1	-1E+10	1
4902554	34	C	01/10/2022	22:56	-136.214	49.485	0	1925.80	0	2.0050	0	34.5710	0	27.638	0	1900.626	0	-1e10	8	-1e10	8	-1E+10	1	-1E+10	1	-1E+10	1	-1E+10	1	-1E+10	1	-1E+10	1
4902554	34	C	01/10/2022	22:56	-136.214	49.485	0	1935.40	0	2.0010	0	34.5720	0	27.639	0	1910.057	0	-1e10	8	-1e10	8	-1E+10	1	-1E+10	1	-1E+10	1	-1E+10	1	-1E+10	1	-1E+10	1
4902554	34	C	01/10/2022	22:56	-136.214	49.485	0	1945.30	0	1.9960	0	34.5730	0	27.640	0	1919.783	0	-1e10	8	-1e10	8	-1E+10	1	-1E+10	1	-1E+10	1	-1E+10	1	-1E+10	1	-1E+10	1
4902554	34	C	01/10/2022	22:56	-136.214	49.485	0	1955.40	0	1.9930	0	34.5740	0	27.641	0	1929.705	0	-1e10	8	-1e10	8	-1E+10	1	-1E+10	1	-1E+10	1	-1E+10	1	-1E+10	1	-1E+10	1
4902554	34	C	01/10/2022	22:56	-136.214	49.485	0	1965.40	0	1.9890	0	34.5750	0	27.642	0	1939.528	0	-1e10	8	-1e10	8	-1E+10	1	-1E+10	1	-1E+10	1	-1E+10	1	-1E+10	1	-1E+10	1
4902554	34	C	01/10/2022	22:56	-136.214	49.485	0	1975.30	0	1.9820	0	34.5760	0	27.644	0	1949.252	0	-1e10	8	-1e10	8	-1E+10	1	-1E+10	1	-1E+10	1	-1E+10	1	-1E+10	1	-1E+10	1
4902554	34	C	01/10/2022	22:56	-136.214	49.485	0	1985.50	0	1.9720	0	34.5780	0	27.646	0	1959.271	0	-1e10	8	-1e10	8	-1E+10	1	-1E+10	1	-1E+10	1	-1E+10	1	-1E+10	1	-1E+10	1
4902554	34	C	01/10/2022	22:56	-136.214	49.485	0	1995.30	0	1.9640	0	34.5800	0	27.649	0	1968.896	0	-1e10	8	-1e10	8	-1E+10	1	-1E+10	1	-1E+10	1	-1E+10	1	-1E+10	1	-1E+10	1
4902554	34	C	01/10/2022	22:56	-136.214	49.485	0	2005.20	0	1.9520	0	34.5820	0	27.651	0	1978.619	0	-1e10	8	-1e10	8	-1E+10	1	-1E+10	1	-1E+10	1	-1E+10	1	-1E+10	1	-1E+10	1
4902554	34	C	01/10/2022	22:56	-136.214	49.485	0	2015.20	0	1.9420	0	34.5840	0	27.654	0	1988.440	0	-1e10	8	-1e10	8	-1E+10	1	-1E+10	1	-1E+10	1	-1E+10	1	-1E+10	1	-1E+10	1
4902554	34	C	01/10/2022	22:56	-136.214	49.485	0	2025.70	0	1.9350	0	34.5860	0	27.656	0	1998.751	0	-1e10	8	-1e10	8	-1E+10	1	-1E+10	1	-1E+10	1	-1E+10	1	-1E+10	1	-1E+10	1
4902554	34	C	01/10/2022	22:56	-136.214	49.485	0	2031.50	0	1.9310	0	34.5870	0	27.657	0	2004.447	0	-1e10	8	-1e10	8	-1E+10	1	-1E+10	1	-1E+10	1	-1E+10	1	-1E+10	1	-1E+10	1
4902554	34	C	01/10/2022	22:56	-136.214	49.485	0																										
4902554	35	C	01/21/2022	04:00	-136.217	49.495	0	0.60	0	6.8660	0	32.3370	0	25.339	0	0.595	0	-1e10	8	-1e10	8	-1E+10	1	-1E+10	1	-1E+10	1	-1E+10	1	-1E+10	1	-1E+10	1
4902554	35	C	01/21/2022	04:00	-136.217	49.495	0	0.70	0	6.8660	0	32.3360	0	25.339	0	0.694	0	-1e10	1	-1e10	1	-1E+10	1	-1E+10	1	-1E+10	1	-1E+10	1	-1E+10	1	-1E+10	1
4902554	35	C	01/21/2022	04:00	-136.217	49.495	0	1.00	0	6.8710	0	32.3330	0	25.336	0	0.991	0	-1e10	8	-1e10	8	-1E+10	1	-1E+10	1	-1E+10	1	-1E+10	1	-1E+10	1	-1E+10	1
4902554	35	C	01/21/2022	04:00	-136.217	49.495	0	1.40	0	6.8706	0	32.3334	0	25.336	0	1.388	0	-1e10	8	-1e10	8	-1E+10	1	-1E+10	1	-1E+10	1	-1E+10	1	-1E+10	1	-1E+10	1
4902554	35	C	01/21/2022	04:00	-136.217	49.495	0	2.00	0	6.8700	0	32.3340	0	25.337	0	1.983	0	-1e10	8	-1e10	8	-1E+10	1	-1E+10	1	-1E+10	1	-1E+10	1	-1E+10	1	-1E+10	1
4902554	35	C	01/21/2022	04:00	-136.217	49.495	0	3.10	0	6.8710	0	32.3340	0	25.336	0	3.074	0	-1e10	8	-1e10	8	-1E+10	1	-1E+10	1	-1E+10	1	-1E+10	1	-1E+10	1	-1E+10	1
4902554	35	C	01/21/2022	04:00	-136.217	49.495	0	3.70	0	6.8710	0	32.3340	0	25.337	0	3.668	0	-1e10	8	-1e10	8	-1E+10	1	-1E+10	1	-1E+10	1	-1E+10	1	-1E+10	1	-1E+10	1
4902554	35	C	01/21/2022	04:00	-136.217	49.495	0	4.70	0	6.8710	0	32.3350	0	25.337	0	4.660	0	-1e10	8	-1e10	8	-1E+10	1	-1E+10	1	-1E+10	1	-1E+10	1	-1E+10	1	-1E+10	1
4902554	35	C	01/21/2022	04:00	-136.217	49.495	0	5.80	0	6.8710	0	32.3350	0	25.337	0	5.750	0	-1e10	8	-1e10	8	-1E+10	1	-1E+10	1	-1E+10	1	-1E+10	1	-1E+10	1	-1E+10	1
4902554	35	C	01/21/2022	04:00	-136.217	49.495	0	6.90	0	6.8710	0	32.3350	0	25.337	0	6.841	0	-1e10	8	-1e10	8	-1E+10	1	-1E+10	1	-1E+10	1	-1E+10	1	-1E+10	1	-1E+10	1
4902554	35	C	01/21/2022	04:00	-136.217	49.495	0	8.10	0	6.8710	0	32.3350	0	25.337	0	8.031	0	-1e10	8	-1e10	8	-1E+10	1	-1E+10	1	-1E+10	1	-1E+10	1	-1E+10	1	-1E+10	1
4902554	35	C	01/21/2022	04:00	-136.217	49.495	0	9.10	0	6.8710	0	32.3350	0	25.337	0	9.022	0	-1e10	8	-1e10	8	-1E+10	1	-1E+10	1	-1E+10	1	-1E+10	1	-1E+10	1	-1E+10	1
4902554	35	C	01/21/2022	04:00	-136.217	49.495	0	10.00	0	6.8720	0	32.3350	0	25.337	0	9.914	0	-1e10	8	-1e10	8	-1E+10	1	-1E+10	1	-1E+10	1	-1E+10	1	-1E+10	1	-1E+10	1
4902554	35	C	01/21/2022	04:00	-136.217	49.495	0	10.90	0	6.8720	0	32.3350	0	25.337	0	10.807	0	-1e10	8	-1e10	8	-1E+10	1	-1E+10	1	-1E+10	1	-1E+10	1	-1E+10	1	-1E+10	1
4902554	35	C	01/21/2022	04:00	-136.217	49.495	0	11.80	0	6.8720	0	32.3350	0	25.337	0	11.699	0	-1e10	8	-1e10	8	-1E+10	1	-1E+10	1	-1E+10	1	-1E+10	1	-1E+10	1	-1E+10	1
4902554	35	C	01/21/2022	04:00	-136.217	49.495	0	13.00	0	6.8720	0	32.3350	0	25.337	0	12.889	0	-1e10	8	-1e10	8	-1E+10	1	-1E+10	1	-1E+10	1	-1E+10	1	-1E+10	1	-1E+10	1
4902554	35	C	01/21/2022	04:00	-136.217	49.495	0	14.20	0	6.8720	0	32.3350	0	25.337	0	14.078	0	-1e10	8	-1e10	8	-1E+10	1	-1E+10	1	-1E+10	1	-1E+10	1	-1E+10	1	-1E+10	1
4902554	35	C	01/21/2022	04:00	-136.217	49.495	0	15.10	0	6.8720	0	32.3350	0	25.337	0	14.971	0	-1e10	8	-1e10	8	-1E+10	1	-1E+10	1	-1E+10	1	-1E+10	1	-1E+10	1	-1E+10	1
4902554	35	C	01/21/2022	04:00	-136.217	49.495	0	16.10	0	6.8730	0	32.3340	0	25.336	0	15.962	0	-1e10	8	-1e10	8	-1E+10	1	-1E+10	1	-1E+10	1	-1E+10	1	-1E+10	1	-1E+10	1
4902554	35	C	01/21/2022	04:00	-136.217	49.495	0	16.90	0	6.8720	0	32.3350	0	25.337	0	16.755	0	-1e10	8	-1e10	8	-1E+10	1	-1E+10	1	-1E+10	1	-1E+10	1	-1E+10	1	-1E+10	1
4902554	35	C	01/21/2022	04:00	-136.217	49.495	0	17.80	0	6.8710	0	32.3340	0	25.337	0	17.647	0	-1e10	8	-1e10	8	-1E+10	1	-1E+10	1	-1E+10	1	-1E+10	1	-1E+10	1	-1E+10	1
4902554	35	C	01/21/2022	04:00	-136.217	49.495	0	18.80	0	6.8710	0	32.3350	0	25.337	0	18.639	0	-1e10	8	-1e10	8	-1E+10	1	-1E+10	1	-1E+10	1	-1E+10	1	-1E+10	1	-1E+10	1
4902554	35	C	01/21/2022	04:00	-136.217	49.495	0	19.80	0	6.8720	0	32.3350	0	25.337	0	19.630	0	-1e10	8	-1e10	8	-1E+10	1	-1E+10	1	-1E+10	1	-1E+10	1	-1E+10	1	-1E+10	1
4902554	35	C	01/21/2022	04:00	-136.217	49.495	0	20.80	0	6.8700	0	32.3350	0	25.338	0	20.622	0	-1e10	8	-1e10	8	-1E+10	1	-1E+10	1	-1E+10	1	-1E+10	1	-1E+10	1	-1E+10	1
4902554	35	C	01/21/2022	04:00	-136.217	49.495	0	21.90	0	6.8700	0	32.3350	0	25.338	0	21.712	0	-1e10	8	-1e10	8	-1E+10	1	-1E+10	1	-1E+10	1	-1E+10	1	-1E+10	1	-1E+10	1
4902554	35	C	01/21/2022	04:00	-136.217	49.495	0	23.00	0	6.8720	0	32.3340	0	25.337	0	22.803	0	-1e10	8	-1e10	8	-1E+10	1	-1E+10	1	-1E+10	1	-1E+10	1	-1E+10	1	-1E+10	1
4902554	35	C	01/21/2022	04:00	-136.217	49.495	0	23.90	0	6.8710	0	32.3340	0	25.337	0	23.695	0	-1e10	8	-1e10	8	-1E+10	1	-1E+10	1	-1E+10	1	-1E+10	1	-1E+10	1	-1E+10	1
4902554	35	C	01/21/2022	04:00	-136.217	49.495	0	24.90	0	6.8720	0	32.3350	0	25.337	0	24.686	0	-1e10	8	-1e10	8	-1E+10	1	-1E+10	1	-1E+10	1	-1E+10	1	-1E+10	1	-1E+10	1
4902554	35	C	01/21/2022	04:00	-136.217	49.495	0	25.90	0	6.8710	0	32.3350	0	25.338	0	25.678	0	-1e10	8	-1e10	8	-1E+10	1	-1E+10	1	-1E+10	1	-1E+10	1	-1E+10	1	-1E+10	1
4902554	35	C	01/21/2022	04:00	-136.217	49.495	0	26.80	0	6.8670	0	32.3360	0	25.339	0	26.570	0	-1e10	8	-1e10	8	-1E+10	1	-1E+10	1	-1E+10	1	-1E+10	1	-1E+10	1	-1E+10	1
4902554	35	C	01/21/2022	04:00	-136.217	49.495	0	28.10	0	6.8710	0	32.3350	0	25.338	0	27.858	0	-1e10	8	-1e10	8	-1E+10	1	-1E+10	1	-1E+10	1	-1E+10	1	-1E+10	1	-1E+10	1
4902554	35	C	01/21/2022	04:00	-136.217	49.495	0	29.10	0	6.8710	0	32.3350	0	25.338	0	28.850	0	-1e10	8	-1e10	8	-1E+10	1	-1E+10	1	-1E+10	1	-1E+10	1	-1E+10	1	-1E+10	1
4902554	35	C	01/21/2022	04:00	-136.217	49.495	0	29.80	0	6.8720	0	32.3350	0	25.337	0	29.544	0	-1e10	8	-1e10	8	-1E+10	1	-1E+10	1	-1E+10	1	-1E+10	1	-1E+10	1	-1E+10	1
4902554	35	C	01/21/2022	04:00	-136.217	49.495	0	30.80	0	6.8710	0	32.3340	0	25.337	0	30.535	0	-1e10	8	-1e10	8	-1E+10	1	-1E+10	1	-1E+10	1	-1E+10	1	-1E+10	1	-1E+10	1
4902554	35	C	01/21/2022	04:00	-136.217	49.495	0	31.90	0	6.8730	0	32.3350	0	25.337	0	31.626	0	-1e10	8	-1e10	8	-1E+10	1	-1E+10	1	-1E+10	1	-1E+10	1	-1E+10	1	-1E+10	1
4902554	35	C	01/21/2022	04:00	-136.217	49.495	0	32.90	0	6.8730	0	32.3350	0	25.337	0	32.617	0	-1e10	8	-1e10	8	-1E+10	1	-1E+10	1	-1E+10	1	-1E+10	1	-1E+10	1	-1E+10	1
4902554	35	C	01/21/2022	04:00	-136.217	49.495	0	33.90	0	6.8740	0	32.3350	0	25.337	0	33.608	0	-1e10	8	-1e10	8	-1E+10	1	-1E+10	1	-1E+10	1	-1E+10	1	-1E+10	1	-1E+10	1
4902554	35	C	01/21/2022	04:00	-136.217	49.495	0	34.90	0	6.8720	0	32.3350	0	25.338	0	34.599	0	-1e10	8	-1e10	8	-1E+10	1	-1E+10	1	-1E+10	1	-1E+10	1	-1E+10	1	-1E+10	1
4902554	35	C	01/21/2022	04:00	-136.217	49.495	0	36.00	0	6.8680	0	32.3350	0	25.338	0	35.690	0	-1e10	8	-1e10	8	-1E+10	1	-1E+10	1	-1E+10	1	-1E+10	1	-1E+10	1	-1E+10	1
4902554	35	C	01/21/2022	04:00	-136.217	49.495	0	37.10	0	6.8680	0	32.3350	0	25.338	0	36.780	0	-1e10	8	-1e10	8	-1E+10	1	-1E+10	1	-1E+10	1	-1E+10	1	-1E+10	1	-1E+10	1
4902554	35	C	01/21/2022	04:00	-136.217	49.495	0	38.00	0	6.8680	0	32.3360	0	25.339	0	37.672	0	-1e10	8	-1e10	8	-1E+10	1	-1E+10	1	-1E+10	1	-1E+10	1	-1E+10	1	-1E+10	1
4902554	35	C	01/21/2022	04:00	-136.217	49.495	0	38.80	0	6.8670	0	32.3350	0	25.338	0	38.466	0	-1e10	8	-1e10	8	-1E+10	1	-1E+10	1	-1E+10	1	-1E+10	1	-1E+10	1	-1E+10	1
4902554	35	C	01/21/2022	04:00	-136.217	49.495	0	40.00	0	6.8680	0	32.3350	0	25.338	0	39.655	0	-1e10	8	-1e10	8	-1E+10	1	-1E+10	1	-1E+10	1	-1E+10	1	-1E+10	1	-1E+10	1
4902554	35	C	01/21/2022	04:00	-136.217	49.495	0	41.10	0	6.8680	0	32.3360	0	25.339	0	40.745	0	-1e10	8	-1e10	8	-1E+10	1	-1E+10	1	-1E+10	1	-1E+10	1	-1E+10	1	-1E+10	1
4902554	35	C	01/21/2022	04:00	-136.217	49.495	0	42.00	0	6.8680	0	32.3360	0	25.339	0	41.638	0	-1e10	8	-1e10	8	-1E+10	1	-1E+10	1	-1E+10	1	-1E+10	1	-1E+10	1	-1E+10	1
4902554	35	C	01/21/2022	04:00	-136.217	49.495	0	42.90	0	6.8680	0	32.3350	0	25.338	0	42.530	0	-1e10	8	-1e10	8	-1E+10	1	-1E+10	1	-1E+10	1	-1E+10	1	-1E+10	1	-1E+10	1
4902554	35	C	01/21/2022	04:00	-136.217	49.495	0	44.10	0	6.8670	0	32.3350	0	25.338	0	43.719	0	-1e10	8	-1e10	8	-1E+10	1	-1E+10	1	-1E+10	1	-1E+10	1	-1E+10	1	-1E+10	1
4902554	35	C	01/21/2022	04:00	-136.217	49.495	0	45.00	0	6.8670	0	32.3360	0	25.339	0	44.611	0	-1e10	8	-1e10	8	-1E+10	1	-1E+10	1	-1E+10	1	-1E+10	1	-1E+10	1	-1E+10	1
4902554	35	C	01/21/2022	04:00	-136.217	49.495	0	45.90	0	6.8670	0	32.3360	0	25.339	0	45.504	0	-1e10	8	-1e10	8	-1E+10	1	-1E+10	1	-1E+10	1	-1E+10	1	-1E+10	1	-1E+10	1
4902554	35	C	01/21/2022	04:00	-136.217	49.495	0	47.10	0	6.8680	0	32.3350	0	25.338	0	46.693	0	-1e10	8	-1e10	8	-1E+10	1	-1E+10	1	-1E+10	1	-1E+10	1	-1E+10	1	-1E+10	1
4902554	35	C	01/21/2022	04:00	-136.217	49.495	0	48.00	0	6.8680	0	32.3360	0	25.339	0	47.585	0	-1e10	8	-1e10	8	-1E+10	1	-1E+10	1	-1E+10	1	-1E+10	1	-1E+10	1	-1E+10	1
4902554	35	C	01/21/2022	04:00	-136.217	49.495	0	48.90	0	6.8670	0	32.3360	0	25.339	0	48.477	0	-1e10	8	-1e10	8	-1E+10	1	-1E+10	1	-1E+10	1	-1E+10	1	-1E+10	1	-1E+10	1
4902554	35	C	01/21/2022	04:00	-136.217	49.495	0	50.10	0	6.8670	0	32.3360	0	25.339	0	49.667	0	-1e10	8	-1e10	8	-1E+10	1	-1E+10	1	-1E+10	1	-1E+10	1	-1E+10	1	-1E+10	1
4902554	35	C	01/21/2022	04:00	-136.217	49.495	0	51.00	0	6.8620	0	32.3360	0	25.340	0	50.559	0	-1e10	8	-1e10	8	-1E+10	1	-1E+10	1	-1E+10	1	-1E+10	1	-1E+10	1	-1E+10	1
4902554	35	C	01/21/2022	04:00	-136.217	49.495	0	51.90	0	6.8610	0	32.3360	0	25.340	0	51.451	0	-1e10	8	-1e10	8	-1E+10	1	-1E+10	1	-1E+10	1	-1E+10	1	-1E+10	1	-1E+10	1
4902554	35	C	01/21/2022	04:00	-136.217	49.495	0	52.90	0	6.8620	0	32.3360	0	25.340	0	52.442	0	-1e10	8	-1e10	8	-1E+10	1	-1E+10	1	-1E+10	1	-1E+10	1	-1E+10	1	-1E+10	1
4902554	35	C	01/21/2022	04:00	-136.217	49.495	0	53.70	0	6.8620	0	32.3360	0	25.340	0	53.235	0	-1e10	8	-1e10	8	-1E+10	1	-1E+10	1	-1E+10	1	-1E+10	1	-1E+10	1	-1E+10	1
4902554	35	C	01/21/2022	04:00	-136.217	49.495	0	55.00	0	6.8610	0	32.3360	0	25.340	0	54.524	0	-1e10	8	-1e10	8	-1E+10	1	-1E+10	1	-1E+10	1	-1E+10	1	-1E+10	1	-1E+10	1
4902554	35	C	01/21/2022	04:00	-136.217	49.495	0	55.90	0	6.8620	0	32.3360	0	25.340	0	55.416	0	-1e10	8	-1e10	8	-1E+10	1	-1E+10	1	-1E+10	1	-1E+10	1	-1E+10	1	-1E+10	1
4902554	35	C	01/21/2022	04:00	-136.217	49.495	0	56.80	0	6.8620	0	32.3360	0	25.340	0	56.308	0	-1e10	8	-1e10	8	-1E+10	1	-1E+10	1	-1E+10	1	-1E+10	1	-1E+10	1	-1E+10	1
4902554	35	C	01/21/2022	04:00	-136.217	49.495	0	58.00	0	6.8620	0	32.3370	0	25.341	0	57.497	0	-1e10	8	-1e10	8	-1E+10	1	-1E+10	1	-1E+10	1	-1E+10	1	-1E+10	1	-1E+10	1
4902554	35	C	01/21/2022	04:00	-136.217	49.495	0	58.90	0	6.8610	0	32.3370	0	25.341	0	58.389	0	-1e10	8	-1e10	8	-1E+10	1	-1E+10	1	-1E+10	1	-1E+10	1	-1E+10	1	-1E+10	1
4902554	35	C	01/21/2022	04:00	-136.217	49.495	0	59.80	0	6.8610	0	32.3370	0	25.341	0	59.281	0	-1e10	8	-1e10	8	-1E+10	1	-1E+10	1	-1E+10	1	-1E+10	1	-1E+10	1	-1E+10	1
4902554	35	C	01/21/2022	04:00	-136.217	49.495	0	61.10	0	6.8610	0	32.3370	0	25.341	0	60.570	0	-1e10	8	-1e10	8	-1E+10	1	-1E+10	1	-1E+10	1	-1E+10	1	-1E+10	1	-1E+10	1
4902554	35	C	01/21/2022	04:00	-136.217	49.495	0	62.00	0	6.8590	0	32.3370	0	25.341	0	61.462	0	-1e10	8	-1e10	8	-1E+10	1	-1E+10	1	-1E+10	1	-1E+10	1	-1E+10	1	-1E+10	1
4902554	35	C	01/21/2022	04:00	-136.217	49.495	0	62.90	0	6.8590	0	32.3370	0	25.341	0	62.354	0	-1e10	8	-1e10	8	-1E+10	1	-1E+10	1	-1E+10	1	-1E+10	1	-1E+10	1	-1E+10	1
4902554	35	C	01/21/2022	04:00	-136.217	49.495	0	64.00	0	6.8580	0	32.3370	0	25.341	0	63.444	0	-1e10	8	-1e10	8	-1E+10	1	-1E+10	1	-1E+10	1	-1E+10	1	-1E+10	1	-1E+10	1
4902554	35	C	01/21/2022	04:00	-136.217	49.495	0	64.90	0	6.8560	0	32.3380	0	25.342	0	64.336	0	-1e10	8	-1e10	8	-1E+10	1	-1E+10	1	-1E+10	1	-1E+10	1	-1E+10	1	-1E+10	1
4902554	35	C	01/21/2022	04:00	-136.217	49.495	0	66.00	0	6.8520	0	32.3370	0	25.342	0	65.427	0	-1e10	8	-1e10	8	-1E+10	1	-1E+10	1	-1E+10	1	-1E+10	1	-1E+10	1	-1E+10	1
4902554	35	C	01/21/2022	04:00	-136.217	49.495	0	66.70	0	6.8530	0	32.3380	0	25.343	0	66.121	0	-1e10	8	-1e10	8	-1E+10	1	-1E+10	1	-1E+10	1	-1E+10	1	-1E+10	1	-1E+10	1
4902554	35	C	01/21/2022	04:00	-136.217	49.495	0	67.80	0	6.8520	0	32.3380	0	25.343	0	67.211	0	-1e10	8	-1e10	8	-1E+10	1	-1E+10	1	-1E+10	1	-1E+10	1	-1E+10	1	-1E+10	1
4902554	35	C	01/21/2022	04:00	-136.217	49.495	0	69.00	0	6.8500	0	32.3380	0	25.343	0	68.400	0	-1e10	8	-1e10	8	-1E+10	1	-1E+10	1	-1E+10	1	-1E+10	1	-1E+10	1	-1E+10	1
4902554	35	C	01/21/2022	04:00	-136.217	49.495	0	69.80	0	6.8500	0	32.3380	0	25.343	0	69.193	0	-1e10	8	-1e10	8	-1E+10	1	-1E+10	1	-1E+10	1	-1E+10	1	-1E+10	1	-1E+10	1
4902554	35	C	01/21/2022	04:00	-136.217	49.495	0	70.90	0	6.8500	0	32.3370	0	25.342	0	70.283	0	-1e10	8	-1e10	8	-1E+10	1	-1E+10	1	-1E+10	1	-1E+10	1	-1E+10	1	-1E+10	1
4902554	35	C	01/21/2022	04:00	-136.217	49.495	0	72.10	0	6.8510	0	32.3380	0	25.343	0	71.473	0	-1e10	8	-1e10	8	-1E+10	1	-1E+10	1	-1E+10	1	-1E+10	1	-1E+10	1	-1E+10	1
4902554	35	C	01/21/2022	04:00	-136.217	49.495	0	72.90	0	6.8500	0	32.3380	0	25.343	0	72.266	0	-1e10	8	-1e10	8	-1E+10	1	-1E+10	1	-1E+10	1	-1E+10	1	-1E+10	1	-1E+10	1
4902554	35	C	01/21/2022	04:00	-136.217	49.495	0	73.70	0	6.8500	0	32.3380	0	25.343	0	73.058	0	-1e10	8	-1e10	8	-1E+10	1	-1E+10	1	-1E+10	1	-1E+10	1	-1E+10	1	-1E+10	1
4902554	35	C	01/21/2022	04:00	-136.217	49.495	0	74.90	0	6.8490	0	32.3370	0	25.343	0	74.248	0	-1e10	8	-1e10	8	-1E+10	1	-1E+10	1	-1E+10	1	-1E+10	1	-1E+10	1	-1E+10	1
4902554	35	C	01/21/2022	04:00	-136.217	49.495	0	76.10	0	6.8490	0	32.3380	0	25.343	0	75.437	0	-1e10	8	-1e10	8	-1E+10	1	-1E+10	1	-1E+10	1	-1E+10	1	-1E+10	1	-1E+10	1
4902554	35	C	01/21/2022	04:00	-136.217	49.495	0	77.00	0	6.8480	0	32.3380	0	25.344	0	76.329	0	-1e10	8	-1e10	8	-1E+10	1	-1E+10	1	-1E+10	1	-1E+10	1	-1E+10	1	-1E+10	1
4902554	35	C	01/21/2022	04:00	-136.217	49.495	0	77.80	0	6.8480	0	32.3390	0	25.344	0	77.122	0	-1e10	8	-1e10	8	-1E+10	1	-1E+10	1	-1E+10	1	-1E+10	1	-1E+10	1	-1E+10	1
4902554	35	C	01/21/2022	04:00	-136.217	49.495	0	78.90	0	6.8450	0	32.3390	0	25.345	0	78.212	0	-1e10	8	-1e10	8	-1E+10	1	-1E+10	1	-1E+10	1	-1E+10	1	-1E+10	1	-1E+10	1
4902554	35	C	01/21/2022	04:00	-136.217	49.495	0	80.10	0	6.8440	0	32.3380	0	25.344	0	79.402	0	-1e10	8	-1e10	8	-1E+10	1	-1E+10	1	-1E+10	1	-1E+10	1	-1E+10	1	-1E+10	1
4902554	35	C	01/21/2022	04:00	-136.217	49.495	0	80.90	0	6.8420	0	32.3400	0	25.346	0	80.194	0	-1e10	8	-1e10	8	-1E+10	1	-1E+10	1	-1E+10	1	-1E+10	1	-1E+10	1	-1E+10	1
4902554	35	C	01/21/2022	04:00	-136.217	49.495	0	82.00	0	6.8400	0	32.3400	0	25.346	0	81.285	0	-1e10	8	-1e10	8	-1E+10	1	-1E+10	1	-1E+10	1	-1E+10	1	-1E+10	1	-1E+10	1
4902554	35	C	01/21/2022	04:00	-136.217	49.495	0	83.10	0	6.8380	0	32.3410	0	25.347	0	82.375	0	-1e10	8	-1e10	8	-1E+10	1	-1E+10	1	-1E+10	1	-1E+10	1	-1E+10	1	-1E+10	1
4902554	35	C	01/21/2022	04:00	-136.217	49.495	0	84.10	0	6.8380	0	32.3400	0	25.346	0	83.366	0	-1e10	8	-1e10	8	-1E+10	1	-1E+10	1	-1E+10	1	-1E+10	1	-1E+10	1	-1E+10	1
4902554	35	C	01/21/2022	04:00	-136.217	49.495	0	85.10	0	6.8380	0	32.3400	0	25.346	0	84.357	0	-1e10	8	-1e10	8	-1E+10	1	-1E+10	1	-1E+10	1	-1E+10	1	-1E+10	1	-1E+10	1
4902554	35	C	01/21/2022	04:00	-136.217	49.495	0	86.00	0	6.8390	0	32.3410	0	25.347	0	85.249	0	-1e10	8	-1e10	8	-1E+10	1	-1E+10	1	-1E+10	1	-1E+10	1	-1E+10	1	-1E+10	1
4902554	35	C	01/21/2022	04:00	-136.217	49.495	0	86.90	0	6.8410	0	32.3420	0	25.348	0	86.141	0	-1e10	8	-1e10	8	-1E+10	1	-1E+10	1	-1E+10	1	-1E+10	1	-1E+10	1	-1E+10	1
4902554	35	C	01/21/2022	04:00	-136.217	49.495	0	87.70	0	6.8360	0	32.3460	0	25.352	0	86.934	0	-1e10	8	-1e10	8	-1E+10	1	-1E+10	1	-1E+10	1	-1E+10	1	-1E+10	1	-1E+10	1
4902554	35	C	01/21/2022	04:00	-136.217	49.495	0	89.00	0	6.7980	0	32.3600	0	25.368	0	88.222	0	-1e10	8	-1e10	8	-1E+10	1	-1E+10	1	-1E+10	1	-1E+10	1	-1E+10	1	-1E+10	1
4902554	35	C	01/21/2022	04:00	-136.217	49.495	0	90.10	0	6.7500	0	32.3830	0	25.392	0	89.312	0	-1e10	8	-1e10	8	-1E+10	1	-1E+10	1	-1E+10	1	-1E+10	1	-1E+10	1	-1E+10	1
4902554	35	C	01/21/2022	04:00	-136.217	49.495	0	91.00	0	6.7330	0	32.3910	0	25.400	0	90.204	0	-1e10	8	-1e10	8	-1E+10	1	-1E+10	1	-1E+10	1	-1E+10	1	-1E+10	1	-1E+10	1
4902554	35	C	01/21/2022	04:00	-136.217	49.495	0	91.90	0	6.6860	0	32.4150	0	25.425	0	91.096	0	-1e10	8	-1e10	8	-1E+10	1	-1E+10	1	-1E+10	1	-1E+10	1	-1E+10	1	-1E+10	1
4902554	35	C	01/21/2022	04:00	-136.217	49.495	0	92.80	0	6.6520	0	32.4320	0	25.443	0	91.988	0	-1e10	8	-1e10	8	-1E+10	1	-1E+10	1	-1E+10	1	-1E+10	1	-1E+10	1	-1E+10	1
4902554	35	C	01/21/2022	04:00	-136.217	49.495	0	94.10	0	6.4910	0	32.5240	0	25.536	0	93.276	0	-1e10	8	-1e10	8	-1E+10	1	-1E+10	1	-1E+10	1	-1E+10	1	-1E+10	1	-1E+10	1
4902554	35	C	01/21/2022	04:00	-136.217	49.495	0	95.00	0	6.4120	0	32.5720	0	25.584	0	94.168	0	-1e10	8	-1e10	8	-1E+10	1	-1E+10	1	-1E+10	1	-1E+10	1	-1E+10	1	-1E+10	1
4902554	35	C	01/21/2022	04:00	-136.217	49.495	0	95.70	0	6.2930	0	32.6630	0	25.671	0	94.862	0	-1e10	8	-1e10	8	-1E+10	1	-1E+10	1	-1E+10	1	-1E+10	1	-1E+10	1	-1E+10	1
4902554	35	C	01/21/2022	04:00	-136.217	49.495	0	96.90	0	6.2340	0	32.7090	0	25.715	0	96.051	0	-1e10	8	-1e10	8	-1E+10	1	-1E+10	1	-1E+10	1	-1E+10	1	-1E+10	1	-1E+10	1
4902554	35	C	01/21/2022	04:00	-136.217	49.495	0	97.90	0	6.1860	0	32.7500	0	25.753	0	97.042	0	-1e10	8	-1e10	8	-1E+10	1	-1E+10	1	-1E+10	1	-1E+10	1	-1E+10	1	-1E+10	1
4902554	35	C	01/21/2022	04:00	-136.217	49.495	0	99.10	0	6.1420	0	32.7910	0	25.791	0	98.231	0	-1e10	8	-1e10	8	-1E+10	1	-1E+10	1	-1E+10	1	-1E+10	1	-1E+10	1	-1E+10	1
4902554	35	C	01/21/2022	04:00	-136.217	49.495	0	100.00	0	6.0930	0	32.8330	0	25.830	0	99.123	0	-1e10	8	-1e10	8	-1E+10	1	-1E+10	1	-1E+10	1	-1E+10	1	-1E+10	1	-1E+10	1
4902554	35	C	01/21/2022	04:00	-136.217	49.495	0	100.90	0	6.0770	0	32.8430	0	25.840	0	100.015	0	-1e10	8	-1e10	8	-1E+10	1	-1E+10	1	-1E+10	1	-1E+10	1	-1E+10	1	-1E+10	1
4902554	35	C	01/21/2022	04:00	-136.217	49.495	0	101.80	0	6.0630	0	32.8500	0	25.847	0	100.907	0	-1e10	8	-1e10	8	-1E+10	1	-1E+10	1	-1E+10	1	-1E+10	1	-1E+10	1	-1E+10	1
4902554	35	C	01/21/2022	04:00	-136.217	49.495	0	102.80	0	6.0460	0	32.8690	0	25.865	0	101.898	0	-1e10	8	-1e10	8	-1E+10	1	-1E+10	1	-1E+10	1	-1E+10	1	-1E+10	1	-1E+10	1
4902554	35	C	01/21/2022	04:00	-136.217	49.495	0	103.80	0	6.0300	0	32.9050	0	25.895	0	102.889	0	-1e10	8	-1e10	8	-1E+10	1	-1E+10	1	-1E+10	1	-1E+10	1	-1E+10	1	-1E+10	1
4902554	35	C	01/21/2022	04:00	-136.217	49.495	0	104.70	0	6.0200	0	32.9330	0	25.918	0	103.781	0	-1e10	8	-1e10	8	-1E+10	1	-1E+10	1	-1E+10	1	-1E+10	1	-1E+10	1	-1E+10	1
4902554	35	C	01/21/2022	04:00	-136.217	49.495	0	105.70	0	6.0200	0	32.9640	0	25.943	0	104.772	0	-1e10	8	-1e10	8	-1E+10	1	-1E+10	1	-1E+10	1	-1E+10	1	-1E+10	1	-1E+10	1
4902554	35	C	01/21/2022	04:00	-136.217	49.495	0	106.80	0	6.0440	0	33.0290	0	25.991	0	105.862	0	-1e10	8	-1e10	8	-1E+10	1	-1E+10	1	-1E+10	1	-1E+10	1	-1E+10	1	-1E+10	1
4902554	35	C	01/21/2022	04:00	-136.217	49.495	0	107.90	0	6.0540	0	33.0460	0	26.003	0	106.952	0	-1e10	8	-1e10	8	-1E+10	1	-1E+10	1	-1E+10	1	-1E+10	1	-1E+10	1	-1E+10	1
4902554	35	C	01/21/2022	04:00	-136.217	49.495	0	109.10	0	6.0670	0	33.0790	0	26.028	0	108.141	0	-1e10	8	-1e10	8	-1E+10	1	-1E+10	1	-1E+10	1	-1E+10	1	-1E+10	1	-1E+10	1
4902554	35	C	01/21/2022	04:00	-136.217	49.495	0	109.90	0	6.0710	0	33.0860	0	26.033	0	108.934	0	-1e10	8	-1e10	8	-1E+10	1	-1E+10	1	-1E+10	1	-1E+10	1	-1E+10	1	-1E+10	1
4902554	35	C	01/21/2022	04:00	-136.217	49.495	0	110.90	0	6.0780	0	33.0980	0	26.041	0	109.925	0	-1e10	8	-1e10	8	-1E+10	1	-1E+10	1	-1E+10	1	-1E+10	1	-1E+10	1	-1E+10	1
4902554	35	C	01/21/2022	04:00	-136.217	49.495	0	112.00	0	6.0820	0	33.1110	0	26.051	0	111.015	0	-1e10	8	-1e10	8	-1E+10	1	-1E+10	1	-1E+10	1	-1E+10	1	-1E+10	1	-1E+10	1
4902554	35	C	01/21/2022	04:00	-136.217	49.495	0	113.10	0	6.0820	0	33.1160	0	26.055	0	112.105	0	-1e10	8	-1e10	8	-1E+10	1	-1E+10	1	-1E+10	1	-1E+10	1	-1E+10	1	-1E+10	1
4902554	35	C	01/21/2022	04:00	-136.217	49.495	0	114.10	0	6.0850	0	33.1250	0	26.062	0	113.096	0	-1e10	8	-1e10	8	-1E+10	1	-1E+10	1	-1E+10	1	-1E+10	1	-1E+10	1	-1E+10	1
4902554	35	C	01/21/2022	04:00	-136.217	49.495	0	114.90	0	6.0980	0	33.1610	0	26.089	0	113.889	0	-1e10	8	-1e10	8	-1E+10	1	-1E+10	1	-1E+10	1	-1E+10	1	-1E+10	1	-1E+10	1
4902554	35	C	01/21/2022	04:00	-136.217	49.495	0	116.10	0	6.1060	0	33.2060	0	26.123	0	115.078	0	-1e10	8	-1e10	8	-1E+10	1	-1E+10	1	-1E+10	1	-1E+10	1	-1E+10	1	-1E+10	1
4902554	35	C	01/21/2022	04:00	-136.217	49.495	0	117.00	0	6.1030	0	33.2090	0	26.126	0	115.969	0	-1e10	8	-1e10	8	-1E+10	1	-1E+10	1	-1E+10	1	-1E+10	1	-1E+10	1	-1E+10	1
4902554	35	C	01/21/2022	04:00	-136.217	49.495	0	118.00	0	6.0990	0	33.2220	0	26.137	0	116.960	0	-1e10	8	-1e10	8	-1E+10	1	-1E+10	1	-1E+10	1	-1E+10	1	-1E+10	1	-1E+10	1
4902554	35	C	01/21/2022	04:00	-136.217	49.495	0	118.90	0	6.1050	0	33.2470	0	26.156	0	117.852	0	-1e10	8	-1e10	8	-1E+10	1	-1E+10	1	-1E+10	1	-1E+10	1	-1E+10	1	-1E+10	1
4902554	35	C	01/21/2022	04:00	-136.217	49.495	0	120.00	0	6.1160	0	33.2880	0	26.187	0	118.942	0	-1e10	8	-1e10	8	-1E+10	1	-1E+10	1	-1E+10	1	-1E+10	1	-1E+10	1	-1E+10	1
4902554	35	C	01/21/2022	04:00	-136.217	49.495	0	121.20	0	6.1140	0	33.3190	0	26.212	0	120.131	0	-1e10	8	-1e10	8	-1E+10	1	-1E+10	1	-1E+10	1	-1E+10	1	-1E+10	1	-1E+10	1
4902554	35	C	01/21/2022	04:00	-136.217	49.495	0	121.90	0	6.1130	0	33.3220	0	26.214	0	120.825	0	-1e10	8	-1e10	8	-1E+10	1	-1E+10	1	-1E+10	1	-1E+10	1	-1E+10	1	-1E+10	1
4902554	35	C	01/21/2022	04:00	-136.217	49.495	0	123.10	0	6.1090	0	33.3480	0	26.235	0	122.014	0	-1e10	8	-1e10	8	-1E+10	1	-1E+10	1	-1E+10	1	-1E+10	1	-1E+10	1	-1E+10	1
4902554	35	C	01/21/2022	04:00	-136.217	49.495	0	123.90	0	6.1070	0	33.3640	0	26.248	0	122.807	0	-1e10	8	-1e10	8	-1E+10	1	-1E+10	1	-1E+10	1	-1E+10	1	-1E+10	1	-1E+10	1
4902554	35	C	01/21/2022	04:00	-136.217	49.495	0	125.20	0	6.0970	0	33.3980	0	26.276	0	124.095	0	-1e10	8	-1e10	8	-1E+10	1	-1E+10	1	-1E+10	1	-1E+10	1	-1E+10	1	-1E+10	1
4902554	35	C	01/21/2022	04:00	-136.217	49.495	0	125.90	0	6.0790	0	33.4490	0	26.319	0	124.788	0	-1e10	8	-1e10	8	-1E+10	1	-1E+10	1	-1E+10	1	-1E+10	1	-1E+10	1	-1E+10	1
4902554	35	C	01/21/2022	04:00	-136.217	49.495	0	127.00	0	6.0620	0	33.4850	0	26.349	0	125.878	0	-1e10	8	-1e10	8	-1E+10	1	-1E+10	1	-1E+10	1	-1E+10	1	-1E+10	1	-1E+10	1
4902554	35	C	01/21/2022	04:00	-136.217	49.495	0	128.10	0	6.0500	0	33.5160	0	26.375	0	126.968	0	-1e10	8	-1e10	8	-1E+10	1	-1E+10	1	-1E+10	1	-1E+10	1	-1E+10	1	-1E+10	1
4902554	35	C	01/21/2022	04:00	-136.217	49.495	0	129.00	0	6.0460	0	33.5290	0	26.386	0	127.860	0	-1e10	8	-1e10	8	-1E+10	1	-1E+10	1	-1E+10	1	-1E+10	1	-1E+10	1	-1E+10	1
4902554	35	C	01/21/2022	04:00	-136.217	49.495	0	129.90	0	6.0460	0	33.5660	0	26.415	0	128.752	0	-1e10	8	-1e10	8	-1E+10	1	-1E+10	1	-1E+10	1	-1E+10	1	-1E+10	1	-1E+10	1
4902554	35	C	01/21/2022	04:00	-136.217	49.495	0	131.00	0	6.0630	0	33.6020	0	26.442	0	129.842	0	-1e10	8	-1e10	8	-1E+10	1	-1E+10	1	-1E+10	1	-1E+10	1	-1E+10	1	-1E+10	1
4902554	35	C	01/21/2022	04:00	-136.217	49.495	0	131.90	0	6.0720	0	33.6250	0	26.459	0	130.733	0	-1e10	8	-1e10	8	-1E+10	1	-1E+10	1	-1E+10	1	-1E+10	1	-1E+10	1	-1E+10	1
4902554	35	C	01/21/2022	04:00	-136.217	49.495	0	132.90	0	6.0730	0	33.6290	0	26.462	0	131.724	0	-1e10	8	-1e10	8	-1E+10	1	-1E+10	1	-1E+10	1	-1E+10	1	-1E+10	1	-1E+10	1
4902554	35	C	01/21/2022	04:00	-136.217	49.495	0	134.00	0	6.0730	0	33.6410	0	26.471	0	132.814	0	-1e10	8	-1e10	8	-1E+10	1	-1E+10	1	-1E+10	1	-1E+10	1	-1E+10	1	-1E+10	1
4902554	35	C	01/21/2022	04:00	-136.217	49.495	0	135.10	0	6.0700	0	33.6680	0	26.493	0	133.904	0	-1e10	8	-1e10	8	-1E+10	1	-1E+10	1	-1E+10	1	-1E+10	1	-1E+10	1	-1E+10	1
4902554	35	C	01/21/2022	04:00	-136.217	49.495	0	135.80	0	6.0570	0	33.6820	0	26.506	0	134.598	0	-1e10	8	-1e10	8	-1E+10	1	-1E+10	1	-1E+10	1	-1E+10	1	-1E+10	1	-1E+10	1
4902554	35	C	01/21/2022	04:00	-136.217	49.495	0	136.90	0	6.0390	0	33.6930	0	26.517	0	135.688	0	-1e10	8	-1e10	8	-1E+10	1	-1E+10	1	-1E+10	1	-1E+10	1	-1E+10	1	-1E+10	1
4902554	35	C	01/21/2022	04:00	-136.217	49.495	0	138.00	0	6.0300	0	33.6980	0	26.522	0	136.778	0	-1e10	8	-1e10	8	-1E+10	1	-1E+10	1	-1E+10	1	-1E+10	1	-1E+10	1	-1E+10	1
4902554	35	C	01/21/2022	04:00	-136.217	49.495	0	138.80	0	6.0270	0	33.6990	0	26.523	0	137.570	0	-1e10	8	-1e10	8	-1E+10	1	-1E+10	1	-1E+10	1	-1E+10	1	-1E+10	1	-1E+10	1
4902554	35	C	01/21/2022	04:00	-136.217	49.495	0	139.90	0	6.0210	0	33.7010	0	26.525	0	138.660	0	-1e10	8	-1e10	8	-1E+10	1	-1E+10	1	-1E+10	1	-1E+10	1	-1E+10	1	-1E+10	1
4902554	35	C	01/21/2022	04:00	-136.217	49.495	0	141.00	0	6.0000	0	33.7090	0	26.534	0	139.750	0	-1e10	8	-1e10	8	-1E+10	1	-1E+10	1	-1E+10	1	-1E+10	1	-1E+10	1	-1E+10	1
4902554	35	C	01/21/2022	04:00	-136.217	49.495	0	141.80	0	5.9680	0	33.7180	0	26.545	0	140.543	0	-1e10	8	-1e10	8	-1E+10	1	-1E+10	1	-1E+10	1	-1E+10	1	-1E+10	1	-1E+10	1
4902554	35	C	01/21/2022	04:00	-136.217	49.495	0	142.90	0	5.9520	0	33.7170	0	26.546	0	141.632	0	-1e10	8	-1e10	8	-1E+10	1	-1E+10	1	-1E+10	1	-1E+10	1	-1E+10	1	-1E+10	1
4902554	35	C	01/21/2022	04:00	-136.217	49.495	0	144.10	0	5.9430	0	33.7200	0	26.550	0	142.821	0	-1e10	8	-1e10	8	-1E+10	1	-1E+10	1	-1E+10	1	-1E+10	1	-1E+10	1	-1E+10	1
4902554	35	C	01/21/2022	04:00	-136.217	49.495	0	144.90	0	5.9340	0	33.7200	0	26.551	0	143.614	0	-1e10	8	-1e10	8	-1E+10	1	-1E+10	1	-1E+10	1	-1E+10	1	-1E+10	1	-1E+10	1
4902554	35	C	01/21/2022	04:00	-136.217	49.495	0	145.70	0	5.9250	0	33.7220	0	26.554	0	144.407	0	-1e10	8	-1e10	8	-1E+10	1	-1E+10	1	-1E+10	1	-1E+10	1	-1E+10	1	-1E+10	1
4902554	35	C	01/21/2022	04:00	-136.217	49.495	0	146.90	0	5.8920	0	33.7250	0	26.560	0	145.596	0	-1e10	8	-1e10	8	-1E+10	1	-1E+10	1	-1E+10	1	-1E+10	1	-1E+10	1	-1E+10	1
4902554	35	C	01/21/2022	04:00	-136.217	49.495	0	148.10	0	5.8840	0	33.7260	0	26.562	0	146.784	0	-1e10	8	-1e10	8	-1E+10	1	-1E+10	1	-1E+10	1	-1E+10	1	-1E+10	1	-1E+10	1
4902554	35	C	01/21/2022	04:00	-136.217	49.495	0	148.90	0	5.8840	0	33.7250	0	26.561	0	147.577	0	-1e10	8	-1e10	8	-1E+10	1	-1E+10	1	-1E+10	1	-1E+10	1	-1E+10	1	-1E+10	1
4902554	35	C	01/21/2022	04:00	-136.217	49.495	0	149.70	0	5.8790	0	33.7260	0	26.563	0	148.370	0	-1e10	8	-1e10	8	-1E+10	1	-1E+10	1	-1E+10	1	-1E+10	1	-1E+10	1	-1E+10	1
4902554	35	C	01/21/2022	04:00	-136.217	49.495	0	150.90	0	5.8600	0	33.7270	0	26.566	0	149.559	0	-1e10	8	-1e10	8	-1E+10	1	-1E+10	1	-1E+10	1	-1E+10	1	-1E+10	1	-1E+10	1
4902554	35	C	01/21/2022	04:00	-136.217	49.495	0	152.10	0	5.8300	0	33.7310	0	26.573	0	150.747	0	-1e10	8	-1e10	8	-1E+10	1	-1E+10	1	-1E+10	1	-1E+10	1	-1E+10	1	-1E+10	1
4902554	35	C	01/21/2022	04:00	-136.217	49.495	0	153.00	0	5.8140	0	33.7330	0	26.576	0	151.639	0	-1e10	8	-1e10	8	-1E+10	1	-1E+10	1	-1E+10	1	-1E+10	1	-1E+10	1	-1E+10	1
4902554	35	C	01/21/2022	04:00	-136.217	49.495	0	153.80	0	5.7950	0	33.7340	0	26.579	0	152.432	0	-1e10	8	-1e10	8	-1E+10	1	-1E+10	1	-1E+10	1	-1E+10	1	-1E+10	1	-1E+10	1
4902554	35	C	01/21/2022	04:00	-136.217	49.495	0	154.60	0	5.7740	0	33.7360	0	26.584	0	153.224	0	-1e10	8	-1e10	8	-1E+10	1	-1E+10	1	-1E+10	1	-1E+10	1	-1E+10	1	-1E+10	1
4902554	35	C	01/21/2022	04:00	-136.217	49.495	0	155.90	0	5.7510	0	33.7380	0	26.588	0	154.512	0	-1e10	8	-1e10	8	-1E+10	1	-1E+10	1	-1E+10	1	-1E+10	1	-1E+10	1	-1E+10	1
4902554	35	C	01/21/2022	04:00	-136.217	49.495	0	157.20	0	5.7470	0	33.7380	0	26.588	0	155.800	0	-1e10	8	-1e10	8	-1E+10	1	-1E+10	1	-1E+10	1	-1E+10	1	-1E+10	1	-1E+10	1
4902554	35	C	01/21/2022	04:00	-136.217	49.495	0	158.00	0	5.7320	0	33.7410	0	26.593	0	156.593	0	-1e10	8	-1e10	8	-1E+10	1	-1E+10	1	-1E+10	1	-1E+10	1	-1E+10	1	-1E+10	1
4902554	35	C	01/21/2022	04:00	-136.217	49.495	0	158.90	0	5.7220	0	33.7410	0	26.594	0	157.484	0	-1e10	8	-1e10	8	-1E+10	1	-1E+10	1	-1E+10	1	-1E+10	1	-1E+10	1	-1E+10	1
4902554	35	C	01/21/2022	04:00	-136.217	49.495	0	159.70	0	5.7170	0	33.7400	0	26.594	0	158.277	0	-1e10	8	-1e10	8	-1E+10	1	-1E+10	1	-1E+10	1	-1E+10	1	-1E+10	1	-1E+10	1
4902554	35	C	01/21/2022	04:00	-136.217	49.495	0	160.60	0	5.7150	0	33.7400	0	26.594	0	159.169	0	-1e10	8	-1e10	8	-1E+10	1	-1E+10	1	-1E+10	1	-1E+10	1	-1E+10	1	-1E+10	1
4902554	35	C	01/21/2022	04:00	-136.217	49.495	0	161.90	0	5.6940	0	33.7420	0	26.598	0	160.457	0	-1e10	8	-1e10	8	-1E+10	1	-1E+10	1	-1E+10	1	-1E+10	1	-1E+10	1	-1E+10	1
4902554	35	C	01/21/2022	04:00	-136.217	49.495	0	163.20	0	5.6840	0	33.7430	0	26.600	0	161.744	0	-1e10	8	-1e10	8	-1E+10	1	-1E+10	1	-1E+10	1	-1E+10	1	-1E+10	1	-1E+10	1
4902554	35	C	01/21/2022	04:00	-136.217	49.495	0	164.10	0	5.6830	0	33.7420	0	26.599	0	162.636	0	-1e10	8	-1e10	8	-1E+10	1	-1E+10	1	-1E+10	1	-1E+10	1	-1E+10	1	-1E+10	1
4902554	35	C	01/21/2022	04:00	-136.217	49.495	0	164.90	0	5.6830	0	33.7420	0	26.599	0	163.429	0	-1e10	8	-1e10	8	-1E+10	1	-1E+10	1	-1E+10	1	-1E+10	1	-1E+10	1	-1E+10	1
4902554	35	C	01/21/2022	04:00	-136.217	49.495	0	165.80	0	5.6680	0	33.7430	0	26.602	0	164.320	0	-1e10	8	-1e10	8	-1E+10	1	-1E+10	1	-1E+10	1	-1E+10	1	-1E+10	1	-1E+10	1
4902554	35	C	01/21/2022	04:00	-136.217	49.495	0	166.60	0	5.6580	0	33.7440	0	26.604	0	165.113	0	-1e10	8	-1e10	8	-1E+10	1	-1E+10	1	-1E+10	1	-1E+10	1	-1E+10	1	-1E+10	1
4902554	35	C	01/21/2022	04:00	-136.217	49.495	0	167.90	0	5.6300	0	33.7460	0	26.609	0	166.401	0	-1e10	8	-1e10	8	-1E+10	1	-1E+10	1	-1E+10	1	-1E+10	1	-1E+10	1	-1E+10	1
4902554	35	C	01/21/2022	04:00	-136.217	49.495	0	169.30	0	5.6070	0	33.7470	0	26.613	0	167.788	0	-1e10	8	-1e10	8	-1E+10	1	-1E+10	1	-1E+10	1	-1E+10	1	-1E+10	1	-1E+10	1
4902554	35	C	01/21/2022	04:00	-136.217	49.495	0	170.10	0	5.6010	0	33.7490	0	26.615	0	168.580	0	-1e10	8	-1e10	8	-1E+10	1	-1E+10	1	-1E+10	1	-1E+10	1	-1E+10	1	-1E+10	1
4902554	35	C	01/21/2022	04:00	-136.217	49.495	0	171.00	0	5.5990	0	33.7480	0	26.614	0	169.472	0	-1e10	8	-1e10	8	-1E+10	1	-1E+10	1	-1E+10	1	-1E+10	1	-1E+10	1	-1E+10	1
4902554	35	C	01/21/2022	04:00	-136.217	49.495	0	171.80	0	5.5920	0	33.7500	0	26.617	0	170.264	0	-1e10	8	-1e10	8	-1E+10	1	-1E+10	1	-1E+10	1	-1E+10	1	-1E+10	1	-1E+10	1
4902554	35	C	01/21/2022	04:00	-136.217	49.495	0	172.70	0	5.5820	0	33.7500	0	26.618	0	171.156	0	-1e10	8	-1e10	8	-1E+10	1	-1E+10	1	-1E+10	1	-1E+10	1	-1E+10	1	-1E+10	1
4902554	35	C	01/21/2022	04:00	-136.217	49.495	0	173.60	0	5.5710	0	33.7530	0	26.622	0	172.047	0	-1e10	8	-1e10	8	-1E+10	1	-1E+10	1	-1E+10	1	-1E+10	1	-1E+10	1	-1E+10	1
4902554	35	C	01/21/2022	04:00	-136.217	49.495	0	174.90	0	5.5530	0	33.7520	0	26.623	0	173.335	0	-1e10	8	-1e10	8	-1E+10	1	-1E+10	1	-1E+10	1	-1E+10	1	-1E+10	1	-1E+10	1
4902554	35	C	01/21/2022	04:00	-136.217	49.495	0	176.20	0	5.5470	0	33.7520	0	26.624	0	174.623	0	-1e10	8	-1e10	8	-1E+10	1	-1E+10	1	-1E+10	1	-1E+10	1	-1E+10	1	-1E+10	1
4902554	35	C	01/21/2022	04:00	-136.217	49.495	0	177.10	0	5.5470	0	33.7520	0	26.624	0	175.515	0	-1e10	8	-1e10	8	-1E+10	1	-1E+10	1	-1E+10	1	-1E+10	1	-1E+10	1	-1E+10	1
4902554	35	C	01/21/2022	04:00	-136.217	49.495	0	178.00	0	5.5410	0	33.7530	0	26.625	0	176.406	0	-1e10	8	-1e10	8	-1E+10	1	-1E+10	1	-1E+10	1	-1E+10	1	-1E+10	1	-1E+10	1
4902554	35	C	01/21/2022	04:00	-136.217	49.495	0	178.90	0	5.5370	0	33.7530	0	26.626	0	177.298	0	-1e10	8	-1e10	8	-1E+10	1	-1E+10	1	-1E+10	1	-1E+10	1	-1E+10	1	-1E+10	1
4902554	35	C	01/21/2022	04:00	-136.217	49.495	0	179.70	0	5.5330	0	33.7530	0	26.626	0	178.090	0	-1e10	8	-1e10	8	-1E+10	1	-1E+10	1	-1E+10	1	-1E+10	1	-1E+10	1	-1E+10	1
4902554	35	C	01/21/2022	04:00	-136.217	49.495	0	181.00	0	5.5100	0	33.7550	0	26.631	0	179.378	0	-1e10	8	-1e10	8	-1E+10	1	-1E+10	1	-1E+10	1	-1E+10	1	-1E+10	1	-1E+10	1
4902554	35	C	01/21/2022	04:00	-136.217	49.495	0	182.30	0	5.4970	0	33.7560	0	26.633	0	180.666	0	-1e10	8	-1e10	8	-1E+10	1	-1E+10	1	-1E+10	1	-1E+10	1	-1E+10	1	-1E+10	1
4902554	35	C	01/21/2022	04:00	-136.217	49.495	0	183.20	0	5.4940	0	33.7560	0	26.633	0	181.557	0	-1e10	8	-1e10	8	-1E+10	1	-1E+10	1	-1E+10	1	-1E+10	1	-1E+10	1	-1E+10	1
4902554	35	C	01/21/2022	04:00	-136.217	49.495	0	184.10	0	5.4810	0	33.7570	0	26.636	0	182.449	0	-1e10	8	-1e10	8	-1E+10	1	-1E+10	1	-1E+10	1	-1E+10	1	-1E+10	1	-1E+10	1
4902554	35	C	01/21/2022	04:00	-136.217	49.495	0	185.00	0	5.4700	0	33.7580	0	26.638	0	183.340	0	-1e10	8	-1e10	8	-1E+10	1	-1E+10	1	-1E+10	1	-1E+10	1	-1E+10	1	-1E+10	1
4902554	35	C	01/21/2022	04:00	-136.217	49.495	0	185.90	0	5.4630	0	33.7590	0	26.639	0	184.232	0	-1e10	8	-1e10	8	-1E+10	1	-1E+10	1	-1E+10	1	-1E+10	1	-1E+10	1	-1E+10	1
4902554	35	C	01/21/2022	04:00	-136.217	49.495	0	186.80	0	5.4510	0	33.7620	0	26.643	0	185.123	0	-1e10	8	-1e10	8	-1E+10	1	-1E+10	1	-1E+10	1	-1E+10	1	-1E+10	1	-1E+10	1
4902554	35	C	01/21/2022	04:00	-136.217	49.495	0	187.70	0	5.4460	0	33.7600	0	26.642	0	186.015	0	-1e10	8	-1e10	8	-1E+10	1	-1E+10	1	-1E+10	1	-1E+10	1	-1E+10	1	-1E+10	1
4902554	35	C	01/21/2022	04:00	-136.217	49.495	0	188.60	0	5.4470	0	33.7600	0	26.642	0	186.906	0	-1e10	8	-1e10	8	-1E+10	1	-1E+10	1	-1E+10	1	-1E+10	1	-1E+10	1	-1E+10	1
4902554	35	C	01/21/2022	04:00	-136.217	49.495	0	189.90	0	5.4320	0	33.7610	0	26.645	0	188.194	0	-1e10	8	-1e10	8	-1E+10	1	-1E+10	1	-1E+10	1	-1E+10	1	-1E+10	1	-1E+10	1
4902554	35	C	01/21/2022	04:00	-136.217	49.495	0	191.30	0	5.4220	0	33.7620	0	26.647	0	189.581	0	-1e10	8	-1e10	8	-1E+10	1	-1E+10	1	-1E+10	1	-1E+10	1	-1E+10	1	-1E+10	1
4902554	35	C	01/21/2022	04:00	-136.217	49.495	0	192.10	0	5.4220	0	33.7620	0	26.647	0	190.373	0	-1e10	8	-1e10	8	-1E+10	1	-1E+10	1	-1E+10	1	-1E+10	1	-1E+10	1	-1E+10	1
4902554	35	C	01/21/2022	04:00	-136.217	49.495	0	193.00	0	5.4200	0	33.7620	0	26.647	0	191.265	0	-1e10	8	-1e10	8	-1E+10	1	-1E+10	1	-1E+10	1	-1E+10	1	-1E+10	1	-1E+10	1
4902554	35	C	01/21/2022	04:00	-136.217	49.495	0	193.90	0	5.4120	0	33.7630	0	26.649	0	192.156	0	-1e10	8	-1e10	8	-1E+10	1	-1E+10	1	-1E+10	1	-1E+10	1	-1E+10	1	-1E+10	1
4902554	35	C	01/21/2022	04:00	-136.217	49.495	0	194.70	0	5.4020	0	33.7640	0	26.651	0	192.949	0	-1e10	8	-1e10	8	-1E+10	1	-1E+10	1	-1E+10	1	-1E+10	1	-1E+10	1	-1E+10	1
4902554	35	C	01/21/2022	04:00	-136.217	49.495	0	195.60	0	5.3990	0	33.7640	0	26.651	0	193.840	0	-1e10	8	-1e10	8	-1E+10	1	-1E+10	1	-1E+10	1	-1E+10	1	-1E+10	1	-1E+10	1
4902554	35	C	01/21/2022	04:00	-136.217	49.495	0	196.90	0	5.3900	0	33.7640	0	26.652	0	195.128	0	-1e10	8	-1e10	8	-1E+10	1	-1E+10	1	-1E+10	1	-1E+10	1	-1E+10	1	-1E+10	1
4902554	35	C	01/21/2022	04:00	-136.217	49.495	0	198.30	0	5.3770	0	33.7660	0	26.655	0	196.515	0	-1e10	8	-1e10	8	-1E+10	1	-1E+10	1	-1E+10	1	-1E+10	1	-1E+10	1	-1E+10	1
4902554	35	C	01/21/2022	04:00	-136.217	49.495	0	199.20	0	5.3640	0	33.7670	0	26.658	0	197.406	0	-1e10	8	-1e10	8	-1E+10	1	-1E+10	1	-1E+10	1	-1E+10	1	-1E+10	1	-1E+10	1
4902554	35	C	01/21/2022	04:00	-136.217	49.495	0	200.00	0	5.3600	0	33.7670	0	26.658	0	198.199	0	-1e10	8	-1e10	8	-1E+10	1	-1E+10	1	-1E+10	1	-1E+10	1	-1E+10	1	-1E+10	1
4902554	35	C	01/21/2022	04:00	-136.217	49.495	0	200.90	0	5.3470	0	33.7680	0	26.660	0	199.090	0	-1e10	8	-1e10	8	-1E+10	1	-1E+10	1	-1E+10	1	-1E+10	1	-1E+10	1	-1E+10	1
4902554	35	C	01/21/2022	04:00	-136.217	49.495	0	201.70	0	5.3400	0	33.7690	0	26.662	0	199.882	0	-1e10	8	-1e10	8	-1E+10	1	-1E+10	1	-1E+10	1	-1E+10	1	-1E+10	1	-1E+10	1
4902554	35	C	01/21/2022	04:00	-136.217	49.495	0	202.60	0	5.3350	0	33.7690	0	26.663	0	200.774	0	-1e10	8	-1e10	8	-1E+10	1	-1E+10	1	-1E+10	1	-1E+10	1	-1E+10	1	-1E+10	1
4902554	35	C	01/21/2022	04:00	-136.217	49.495	0	203.90	0	5.3270	0	33.7700	0	26.664	0	202.062	0	-1e10	8	-1e10	8	-1E+10	1	-1E+10	1	-1E+10	1	-1E+10	1	-1E+10	1	-1E+10	1
4902554	35	C	01/21/2022	04:00	-136.217	49.495	0	205.20	0	5.3140	0	33.7710	0	26.667	0	203.349	0	-1e10	8	-1e10	8	-1E+10	1	-1E+10	1	-1E+10	1	-1E+10	1	-1E+10	1	-1E+10	1
4902554	35	C	01/21/2022	04:00	-136.217	49.495	0	206.10	0	5.3140	0	33.7720	0	26.668	0	204.241	0	-1e10	8	-1e10	8	-1E+10	1	-1E+10	1	-1E+10	1	-1E+10	1	-1E+10	1	-1E+10	1
4902554	35	C	01/21/2022	04:00	-136.217	49.495	0	206.90	0	5.3140	0	33.7720	0	26.668	0	205.033	0	-1e10	8	-1e10	8	-1E+10	1	-1E+10	1	-1E+10	1	-1E+10	1	-1E+10	1	-1E+10	1
4902554	35	C	01/21/2022	04:00	-136.217	49.495	0	207.80	0	5.3130	0	33.7710	0	26.667	0	205.924	0	-1e10	8	-1e10	8	-1E+10	1	-1E+10	1	-1E+10	1	-1E+10	1	-1E+10	1	-1E+10	1
4902554	35	C	01/21/2022	04:00	-136.217	49.495	0	208.70	0	5.3100	0	33.7720	0	26.668	0	206.816	0	-1e10	8	-1e10	8	-1E+10	1	-1E+10	1	-1E+10	1	-1E+10	1	-1E+10	1	-1E+10	1
4902554	35	C	01/21/2022	04:00	-136.217	49.495	0	209.60	0	5.3090	0	33.7720	0	26.668	0	207.707	0	-1e10	8	-1e10	8	-1E+10	1	-1E+10	1	-1E+10	1	-1E+10	1	-1E+10	1	-1E+10	1
4902554	35	C	01/21/2022	04:00	-136.217	49.495	0	210.90	0	5.3060	0	33.7710	0	26.668	0	208.995	0	-1e10	8	-1e10	8	-1E+10	1	-1E+10	1	-1E+10	1	-1E+10	1	-1E+10	1	-1E+10	1
4902554	35	C	01/21/2022	04:00	-136.217	49.495	0	212.30	0	5.3020	0	33.7720	0	26.669	0	210.382	0	-1e10	8	-1e10	8	-1E+10	1	-1E+10	1	-1E+10	1	-1E+10	1	-1E+10	1	-1E+10	1
4902554	35	C	01/21/2022	04:00	-136.217	49.495	0	213.20	0	5.3000	0	33.7710	0	26.668	0	211.273	0	-1e10	8	-1e10	8	-1E+10	1	-1E+10	1	-1E+10	1	-1E+10	1	-1E+10	1	-1E+10	1
4902554	35	C	01/21/2022	04:00	-136.217	49.495	0	214.10	0	5.2970	0	33.7710	0	26.669	0	212.164	0	-1e10	8	-1e10	8	-1E+10	1	-1E+10	1	-1E+10	1	-1E+10	1	-1E+10	1	-1E+10	1
4902554	35	C	01/21/2022	04:00	-136.217	49.495	0	215.00	0	5.2850	0	33.7720	0	26.671	0	213.056	0	-1e10	8	-1e10	8	-1E+10	1	-1E+10	1	-1E+10	1	-1E+10	1	-1E+10	1	-1E+10	1
4902554	35	C	01/21/2022	04:00	-136.217	49.495	0	215.90	0	5.2650	0	33.7720	0	26.673	0	213.947	0	-1e10	8	-1e10	8	-1E+10	1	-1E+10	1	-1E+10	1	-1E+10	1	-1E+10	1	-1E+10	1
4902554	35	C	01/21/2022	04:00	-136.217	49.495	0	216.80	0	5.2250	0	33.7760	0	26.681	0	214.839	0	-1e10	8	-1e10	8	-1E+10	1	-1E+10	1	-1E+10	1	-1E+10	1	-1E+10	1	-1E+10	1
4902554	35	C	01/21/2022	04:00	-136.217	49.495	0	217.70	0	5.1980	0	33.7790	0	26.687	0	215.730	0	-1e10	8	-1e10	8	-1E+10	1	-1E+10	1	-1E+10	1	-1E+10	1	-1E+10	1	-1E+10	1
4902554	35	C	01/21/2022	04:00	-136.217	49.495	0	218.90	0	5.1850	0	33.7790	0	26.688	0	216.918	0	-1e10	8	-1e10	8	-1E+10	1	-1E+10	1	-1E+10	1	-1E+10	1	-1E+10	1	-1E+10	1
4902554	35	C	01/21/2022	04:00	-136.217	49.495	0	220.20	0	5.1800	0	33.7790	0	26.689	0	218.206	0	-1e10	8	-1e10	8	-1E+10	1	-1E+10	1	-1E+10	1	-1E+10	1	-1E+10	1	-1E+10	1
4902554	35	C	01/21/2022	04:00	-136.217	49.495	0	221.10	0	5.1780	0	33.7790	0	26.689	0	219.097	0	-1e10	8	-1e10	8	-1E+10	1	-1E+10	1	-1E+10	1	-1E+10	1	-1E+10	1	-1E+10	1
4902554	35	C	01/21/2022	04:00	-136.217	49.495	0	221.90	0	5.1780	0	33.7790	0	26.689	0	219.890	0	-1e10	8	-1e10	8	-1E+10	1	-1E+10	1	-1E+10	1	-1E+10	1	-1E+10	1	-1E+10	1
4902554	35	C	01/21/2022	04:00	-136.217	49.495	0	222.80	0	5.1760	0	33.7790	0	26.689	0	220.781	0	-1e10	8	-1e10	8	-1E+10	1	-1E+10	1	-1E+10	1	-1E+10	1	-1E+10	1	-1E+10	1
4902554	35	C	01/21/2022	04:00	-136.217	49.495	0	223.60	0	5.1760	0	33.7790	0	26.689	0	221.573	0	-1e10	8	-1e10	8	-1E+10	1	-1E+10	1	-1E+10	1	-1E+10	1	-1E+10	1	-1E+10	1
4902554	35	C	01/21/2022	04:00	-136.217	49.495	0	224.90	0	5.1490	0	33.7810	0	26.694	0	222.861	0	-1e10	8	-1e10	8	-1E+10	1	-1E+10	1	-1E+10	1	-1E+10	1	-1E+10	1	-1E+10	1
4902554	35	C	01/21/2022	04:00	-136.217	49.495	0	226.20	0	5.1410	0	33.7830	0	26.696	0	224.148	0	-1e10	8	-1e10	8	-1E+10	1	-1E+10	1	-1E+10	1	-1E+10	1	-1E+10	1	-1E+10	1
4902554	35	C	01/21/2022	04:00	-136.217	49.495	0	227.10	0	5.1320	0	33.7820	0	26.697	0	225.040	0	-1e10	8	-1e10	8	-1E+10	1	-1E+10	1	-1E+10	1	-1E+10	1	-1E+10	1	-1E+10	1
4902554	35	C	01/21/2022	04:00	-136.217	49.495	0	227.90	0	5.1250	0	33.7830	0	26.698	0	225.832	0	-1e10	8	-1e10	8	-1E+10	1	-1E+10	1	-1E+10	1	-1E+10	1	-1E+10	1	-1E+10	1
4902554	35	C	01/21/2022	04:00	-136.217	49.495	0	228.80	0	5.1210	0	33.7830	0	26.699	0	226.723	0	-1e10	8	-1e10	8	-1E+10	1	-1E+10	1	-1E+10	1	-1E+10	1	-1E+10	1	-1E+10	1
4902554	35	C	01/21/2022	04:00	-136.217	49.495	0	229.70	0	5.1130	0	33.7830	0	26.700	0	227.615	0	-1e10	8	-1e10	8	-1E+10	1	-1E+10	1	-1E+10	1	-1E+10	1	-1E+10	1	-1E+10	1
4902554	35	C	01/21/2022	04:00	-136.217	49.495	0	231.00	0	5.1070	0	33.7850	0	26.702	0	228.902	0	-1e10	8	-1e10	8	-1E+10	1	-1E+10	1	-1E+10	1	-1E+10	1	-1E+10	1	-1E+10	1
4902554	35	C	01/21/2022	04:00	-136.217	49.495	0	232.30	0	5.1000	0	33.7860	0	26.704	0	230.190	0	-1e10	8	-1e10	8	-1E+10	1	-1E+10	1	-1E+10	1	-1E+10	1	-1E+10	1	-1E+10	1
4902554	35	C	01/21/2022	04:00	-136.217	49.495	0	233.20	0	5.0910	0	33.7880	0	26.706	0	231.081	0	-1e10	8	-1e10	8	-1E+10	1	-1E+10	1	-1E+10	1	-1E+10	1	-1E+10	1	-1E+10	1
4902554	35	C	01/21/2022	04:00	-136.217	49.495	0	234.10	0	5.0850	0	33.7890	0	26.708	0	231.972	0	-1e10	8	-1e10	8	-1E+10	1	-1E+10	1	-1E+10	1	-1E+10	1	-1E+10	1	-1E+10	1
4902554	35	C	01/21/2022	04:00	-136.217	49.495	0	234.90	0	5.0800	0	33.7930	0	26.711	0	232.765	0	-1e10	8	-1e10	8	-1E+10	1	-1E+10	1	-1E+10	1	-1E+10	1	-1E+10	1	-1E+10	1
4902554	35	C	01/21/2022	04:00	-136.217	49.495	0	235.80	0	5.0720	0	33.7940	0	26.713	0	233.656	0	-1e10	8	-1e10	8	-1E+10	1	-1E+10	1	-1E+10	1	-1E+10	1	-1E+10	1	-1E+10	1
4902554	35	C	01/21/2022	04:00	-136.217	49.495	0	236.70	0	5.0600	0	33.7950	0	26.715	0	234.547	0	-1e10	8	-1e10	8	-1E+10	1	-1E+10	1	-1E+10	1	-1E+10	1	-1E+10	1	-1E+10	1
4902554	35	C	01/21/2022	04:00	-136.217	49.495	0	237.90	0	5.0490	0	33.7950	0	26.717	0	235.736	0	-1e10	8	-1e10	8	-1E+10	1	-1E+10	1	-1E+10	1	-1E+10	1	-1E+10	1	-1E+10	1
4902554	35	C	01/21/2022	04:00	-136.217	49.495	0	239.30	0	5.0080	0	33.7990	0	26.724	0	237.122	0	-1e10	8	-1e10	8	-1E+10	1	-1E+10	1	-1E+10	1	-1E+10	1	-1E+10	1	-1E+10	1
4902554	35	C	01/21/2022	04:00	-136.217	49.495	0	240.10	0	5.0020	0	33.7990	0	26.725	0	237.914	0	-1e10	8	-1e10	8	-1E+10	1	-1E+10	1	-1E+10	1	-1E+10	1	-1E+10	1	-1E+10	1
4902554	35	C	01/21/2022	04:00	-136.217	49.495	0	241.00	0	4.9820	0	33.8010	0	26.729	0	238.806	0	-1e10	8	-1e10	8	-1E+10	1	-1E+10	1	-1E+10	1	-1E+10	1	-1E+10	1	-1E+10	1
4902554	35	C	01/21/2022	04:00	-136.217	49.495	0	241.90	0	4.9600	0	33.8060	0	26.735	0	239.697	0	-1e10	8	-1e10	8	-1E+10	1	-1E+10	1	-1E+10	1	-1E+10	1	-1E+10	1	-1E+10	1
4902554	35	C	01/21/2022	04:00	-136.217	49.495	0	242.80	0	4.9470	0	33.8100	0	26.740	0	240.588	0	-1e10	8	-1e10	8	-1E+10	1	-1E+10	1	-1E+10	1	-1E+10	1	-1E+10	1	-1E+10	1
4902554	35	C	01/21/2022	04:00	-136.217	49.495	0	243.70	0	4.9340	0	33.8080	0	26.740	0	241.479	0	-1e10	8	-1e10	8	-1E+10	1	-1E+10	1	-1E+10	1	-1E+10	1	-1E+10	1	-1E+10	1
4902554	35	C	01/21/2022	04:00	-136.217	49.495	0	244.60	0	4.9300	0	33.8080	0	26.740	0	242.371	0	-1e10	8	-1e10	8	-1E+10	1	-1E+10	1	-1E+10	1	-1E+10	1	-1E+10	1	-1E+10	1
4902554	35	C	01/21/2022	04:00	-136.217	49.495	0	245.90	0	4.9260	0	33.8080	0	26.741	0	243.658	0	-1e10	8	-1e10	8	-1E+10	1	-1E+10	1	-1E+10	1	-1E+10	1	-1E+10	1	-1E+10	1
4902554	35	C	01/21/2022	04:00	-136.217	49.495	0	247.30	0	4.9050	0	33.8120	0	26.746	0	245.045	0	-1e10	8	-1e10	8	-1E+10	1	-1E+10	1	-1E+10	1	-1E+10	1	-1E+10	1	-1E+10	1
4902554	35	C	01/21/2022	04:00	-136.217	49.495	0	248.20	0	4.8910	0	33.8130	0	26.749	0	245.936	0	-1e10	8	-1e10	8	-1E+10	1	-1E+10	1	-1E+10	1	-1E+10	1	-1E+10	1	-1E+10	1
4902554	35	C	01/21/2022	04:00	-136.217	49.495	0	249.10	0	4.8810	0	33.8140	0	26.751	0	246.827	0	-1e10	8	-1e10	8	-1E+10	1	-1E+10	1	-1E+10	1	-1E+10	1	-1E+10	1	-1E+10	1
4902554	35	C	01/21/2022	04:00	-136.217	49.495	0	250.00	0	4.8670	0	33.8170	0	26.755	0	247.718	0	-1e10	8	-1e10	8	-1E+10	1	-1E+10	1	-1E+10	1	-1E+10	1	-1E+10	1	-1E+10	1
4902554	35	C	01/21/2022	04:00	-136.217	49.495	0	251.00	0	4.8630	0	33.8190	0	26.757	0	248.709	0	-1e10	8	-1e10	8	-1E+10	1	-1E+10	1	-1E+10	1	-1E+10	1	-1E+10	1	-1E+10	1
4902554	35	C	01/21/2022	04:00	-136.217	49.495	0	251.90	0	4.8620	0	33.8200	0	26.758	0	249.600	0	-1e10	8	-1e10	8	-1E+10	1	-1E+10	1	-1E+10	1	-1E+10	1	-1E+10	1	-1E+10	1
4902554	35	C	01/21/2022	04:00	-136.217	49.495	0	252.80	0	4.8620	0	33.8200	0	26.758	0	250.491	0	-1e10	8	-1e10	8	-1E+10	1	-1E+10	1	-1E+10	1	-1E+10	1	-1E+10	1	-1E+10	1
4902554	35	C	01/21/2022	04:00	-136.217	49.495	0	253.70	0	4.8590	0	33.8210	0	26.759	0	251.382	0	-1e10	8	-1e10	8	-1E+10	1	-1E+10	1	-1E+10	1	-1E+10	1	-1E+10	1	-1E+10	1
4902554	35	C	01/21/2022	04:00	-136.217	49.495	0	254.60	0	4.8570	0	33.8210	0	26.759	0	252.273	0	-1e10	8	-1e10	8	-1E+10	1	-1E+10	1	-1E+10	1	-1E+10	1	-1E+10	1	-1E+10	1
4902554	35	C	01/21/2022	04:00	-136.217	49.495	0	255.90	0	4.8470	0	33.8240	0	26.762	0	253.561	0	-1e10	8	-1e10	8	-1E+10	1	-1E+10	1	-1E+10	1	-1E+10	1	-1E+10	1	-1E+10	1
4902554	35	C	01/21/2022	04:00	-136.217	49.495	0	257.30	0	4.8440	0	33.8250	0	26.764	0	254.947	0	-1e10	8	-1e10	8	-1E+10	1	-1E+10	1	-1E+10	1	-1E+10	1	-1E+10	1	-1E+10	1
4902554	35	C	01/21/2022	04:00	-136.217	49.495	0	258.10	0	4.8370	0	33.8260	0	26.765	0	255.739	0	-1e10	8	-1e10	8	-1E+10	1	-1E+10	1	-1E+10	1	-1E+10	1	-1E+10	1	-1E+10	1
4902554	35	C	01/21/2022	04:00	-136.217	49.495	0	259.00	0	4.8320	0	33.8270	0	26.767	0	256.631	0	-1e10	8	-1e10	8	-1E+10	1	-1E+10	1	-1E+10	1	-1E+10	1	-1E+10	1	-1E+10	1
4902554	35	C	01/21/2022	04:00	-136.217	49.495	0	259.90	0	4.8290	0	33.8280	0	26.768	0	257.522	0	-1e10	8	-1e10	8	-1E+10	1	-1E+10	1	-1E+10	1	-1E+10	1	-1E+10	1	-1E+10	1
4902554	35	C	01/21/2022	04:00	-136.217	49.495	0	260.80	0	4.8270	0	33.8280	0	26.768	0	258.413	0	-1e10	8	-1e10	8	-1E+10	1	-1E+10	1	-1E+10	1	-1E+10	1	-1E+10	1	-1E+10	1
4902554	35	C	01/21/2022	04:00	-136.217	49.495	0	261.70	0	4.8250	0	33.8280	0	26.768	0	259.304	0	-1e10	8	-1e10	8	-1E+10	1	-1E+10	1	-1E+10	1	-1E+10	1	-1E+10	1	-1E+10	1
4902554	35	C	01/21/2022	04:00	-136.217	49.495	0	262.60	0	4.8230	0	33.8290	0	26.769	0	260.195	0	-1e10	8	-1e10	8	-1E+10	1	-1E+10	1	-1E+10	1	-1E+10	1	-1E+10	1	-1E+10	1
4902554	35	C	01/21/2022	04:00	-136.217	49.495	0	263.90	0	4.8200	0	33.8290	0	26.770	0	261.483	0	-1e10	8	-1e10	8	-1E+10	1	-1E+10	1	-1E+10	1	-1E+10	1	-1E+10	1	-1E+10	1
4902554	35	C	01/21/2022	04:00	-136.217	49.495	0	265.40	0	4.8170	0	33.8300	0	26.771	0	262.968	0	-1e10	8	-1e10	8	-1E+10	1	-1E+10	1	-1E+10	1	-1E+10	1	-1E+10	1	-1E+10	1
4902554	35	C	01/21/2022	04:00	-136.217	49.495	0	266.20	0	4.8160	0	33.8300	0	26.771	0	263.760	0	-1e10	8	-1e10	8	-1E+10	1	-1E+10	1	-1E+10	1	-1E+10	1	-1E+10	1	-1E+10	1
4902554	35	C	01/21/2022	04:00	-136.217	49.495	0	267.20	0	4.8080	0	33.8320	0	26.773	0	264.750	0	-1e10	8	-1e10	8	-1E+10	1	-1E+10	1	-1E+10	1	-1E+10	1	-1E+10	1	-1E+10	1
4902554	35	C	01/21/2022	04:00	-136.217	49.495	0	268.10	0	4.7920	0	33.8360	0	26.778	0	265.641	0	-1e10	8	-1e10	8	-1E+10	1	-1E+10	1	-1E+10	1	-1E+10	1	-1E+10	1	-1E+10	1
4902554	35	C	01/21/2022	04:00	-136.217	49.495	0	269.00	0	4.7870	0	33.8370	0	26.780	0	266.533	0	-1e10	8	-1e10	8	-1E+10	1	-1E+10	1	-1E+10	1	-1E+10	1	-1E+10	1	-1E+10	1
4902554	35	C	01/21/2022	04:00	-136.217	49.495	0	269.90	0	4.7760	0	33.8380	0	26.782	0	267.424	0	-1e10	8	-1e10	8	-1E+10	1	-1E+10	1	-1E+10	1	-1E+10	1	-1E+10	1	-1E+10	1
4902554	35	C	01/21/2022	04:00	-136.217	49.495	0	270.80	0	4.7540	0	33.8390	0	26.785	0	268.315	0	-1e10	8	-1e10	8	-1E+10	1	-1E+10	1	-1E+10	1	-1E+10	1	-1E+10	1	-1E+10	1
4902554	35	C	01/21/2022	04:00	-136.217	49.495	0	271.70	0	4.7390	0	33.8410	0	26.788	0	269.206	0	-1e10	8	-1e10	8	-1E+10	1	-1E+10	1	-1E+10	1	-1E+10	1	-1E+10	1	-1E+10	1
4902554	35	C	01/21/2022	04:00	-136.217	49.495	0	272.70	0	4.7350	0	33.8430	0	26.790	0	270.196	0	-1e10	8	-1e10	8	-1E+10	1	-1E+10	1	-1E+10	1	-1E+10	1	-1E+10	1	-1E+10	1
4902554	35	C	01/21/2022	04:00	-136.217	49.495	0	273.60	0	4.7350	0	33.8430	0	26.790	0	271.087	0	-1e10	8	-1e10	8	-1E+10	1	-1E+10	1	-1E+10	1	-1E+10	1	-1E+10	1	-1E+10	1
4902554	35	C	01/21/2022	04:00	-136.217	49.495	0	274.60	0	4.7350	0	33.8430	0	26.790	0	272.078	0	-1e10	8	-1e10	8	-1E+10	1	-1E+10	1	-1E+10	1	-1E+10	1	-1E+10	1	-1E+10	1
4902554	35	C	01/21/2022	04:00	-136.217	49.495	0	275.90	0	4.7350	0	33.8430	0	26.790	0	273.365	0	-1e10	8	-1e10	8	-1E+10	1	-1E+10	1	-1E+10	1	-1E+10	1	-1E+10	1	-1E+10	1
4902554	35	C	01/21/2022	04:00	-136.217	49.495	0	277.40	0	4.7350	0	33.8430	0	26.790	0	274.850	0	-1e10	8	-1e10	8	-1E+10	1	-1E+10	1	-1E+10	1	-1E+10	1	-1E+10	1	-1E+10	1
4902554	35	C	01/21/2022	04:00	-136.217	49.495	0	278.30	0	4.7200	0	33.8520	0	26.799	0	275.741	0	-1e10	8	-1e10	8	-1E+10	1	-1E+10	1	-1E+10	1	-1E+10	1	-1E+10	1	-1E+10	1
4902554	35	C	01/21/2022	04:00	-136.217	49.495	0	279.30	0	4.6980	0	33.8550	0	26.804	0	276.731	0	-1e10	8	-1e10	8	-1E+10	1	-1E+10	1	-1E+10	1	-1E+10	1	-1E+10	1	-1E+10	1
4902554	35	C	01/21/2022	04:00	-136.217	49.495	0	280.20	0	4.6930	0	33.8550	0	26.804	0	277.622	0	-1e10	8	-1e10	8	-1E+10	1	-1E+10	1	-1E+10	1	-1E+10	1	-1E+10	1	-1E+10	1
4902554	35	C	01/21/2022	04:00	-136.217	49.495	0	281.20	0	4.6920	0	33.8560	0	26.805	0	278.613	0	-1e10	8	-1e10	8	-1E+10	1	-1E+10	1	-1E+10	1	-1E+10	1	-1E+10	1	-1E+10	1
4902554	35	C	01/21/2022	04:00	-136.217	49.495	0	282.10	0	4.6890	0	33.8570	0	26.806	0	279.504	0	-1e10	8	-1e10	8	-1E+10	1	-1E+10	1	-1E+10	1	-1E+10	1	-1E+10	1	-1E+10	1
4902554	35	C	01/21/2022	04:00	-136.217	49.495	0	283.10	0	4.6880	0	33.8560	0	26.806	0	280.494	0	-1e10	8	-1e10	8	-1E+10	1	-1E+10	1	-1E+10	1	-1E+10	1	-1E+10	1	-1E+10	1
4902554	35	C	01/21/2022	04:00	-136.217	49.495	0	284.00	0	4.6770	0	33.8600	0	26.810	0	281.385	0	-1e10	8	-1e10	8	-1E+10	1	-1E+10	1	-1E+10	1	-1E+10	1	-1E+10	1	-1E+10	1
4902554	35	C	01/21/2022	04:00	-136.217	49.495	0	284.90	0	4.6650	0	33.8610	0	26.812	0	282.276	0	-1e10	8	-1e10	8	-1E+10	1	-1E+10	1	-1E+10	1	-1E+10	1	-1E+10	1	-1E+10	1
4902554	35	C	01/21/2022	04:00	-136.217	49.495	0	285.90	0	4.6600	0	33.8620	0	26.813	0	283.266	0	-1e10	8	-1e10	8	-1E+10	1	-1E+10	1	-1E+10	1	-1E+10	1	-1E+10	1	-1E+10	1
4902554	35	C	01/21/2022	04:00	-136.217	49.495	0	286.80	0	4.6520	0	33.8630	0	26.815	0	284.157	0	-1e10	8	-1e10	8	-1E+10	1	-1E+10	1	-1E+10	1	-1E+10	1	-1E+10	1	-1E+10	1
4902554	35	C	01/21/2022	04:00	-136.217	49.495	0	287.70	0	4.6490	0	33.8640	0	26.816	0	285.048	0	-1e10	8	-1e10	8	-1E+10	1	-1E+10	1	-1E+10	1	-1E+10	1	-1E+10	1	-1E+10	1
4902554	35	C	01/21/2022	04:00	-136.217	49.495	0	288.70	0	4.6460	0	33.8640	0	26.817	0	286.038	0	-1e10	8	-1e10	8	-1E+10	1	-1E+10	1	-1E+10	1	-1E+10	1	-1E+10	1	-1E+10	1
4902554	35	C	01/21/2022	04:00	-136.217	49.495	0	289.60	0	4.6320	0	33.8680	0	26.821	0	286.929	0	-1e10	8	-1e10	8	-1E+10	1	-1E+10	1	-1E+10	1	-1E+10	1	-1E+10	1	-1E+10	1
4902554	35	C	01/21/2022	04:00	-136.217	49.495	0	290.60	0	4.6290	0	33.8680	0	26.822	0	287.920	0	-1e10	8	-1e10	8	-1E+10	1	-1E+10	1	-1E+10	1	-1E+10	1	-1E+10	1	-1E+10	1
4902554	35	C	01/21/2022	04:00	-136.217	49.495	0	291.50	0	4.6280	0	33.8680	0	26.822	0	288.811	0	-1e10	8	-1e10	8	-1E+10	1	-1E+10	1	-1E+10	1	-1E+10	1	-1E+10	1	-1E+10	1
4902554	35	C	01/21/2022	04:00	-136.217	49.495	0	292.90	0	4.6200	0	33.8700	0	26.824	0	290.197	0	-1e10	8	-1e10	8	-1E+10	1	-1E+10	1	-1E+10	1	-1E+10	1	-1E+10	1	-1E+10	1
4902554	35	C	01/21/2022	04:00	-136.217	49.495	0	294.40	0	4.6170	0	33.8700	0	26.825	0	291.682	0	-1e10	8	-1e10	8	-1E+10	1	-1E+10	1	-1E+10	1	-1E+10	1	-1E+10	1	-1E+10	1
4902554	35	C	01/21/2022	04:00	-136.217	49.495	0	295.30	0	4.6130	0	33.8720	0	26.827	0	292.573	0	-1e10	8	-1e10	8	-1E+10	1	-1E+10	1	-1E+10	1	-1E+10	1	-1E+10	1	-1E+10	1
4902554	35	C	01/21/2022	04:00	-136.217	49.495	0	296.30	0	4.6060	0	33.8730	0	26.828	0	293.563	0	-1e10	8	-1e10	8	-1E+10	1	-1E+10	1	-1E+10	1	-1E+10	1	-1E+10	1	-1E+10	1
4902554	35	C	01/21/2022	04:00	-136.217	49.495	0	297.20	0	4.6010	0	33.8740	0	26.830	0	294.454	0	-1e10	8	-1e10	8	-1E+10	1	-1E+10	1	-1E+10	1	-1E+10	1	-1E+10	1	-1E+10	1
4902554	35	C	01/21/2022	04:00	-136.217	49.495	0	298.20	0	4.5970	0	33.8760	0	26.832	0	295.444	0	-1e10	8	-1e10	8	-1E+10	1	-1E+10	1	-1E+10	1	-1E+10	1	-1E+10	1	-1E+10	1
4902554	35	C	01/21/2022	04:00	-136.217	49.495	0	299.10	0	4.5930	0	33.8770	0	26.833	0	296.335	0	-1e10	8	-1e10	8	-1E+10	1	-1E+10	1	-1E+10	1	-1E+10	1	-1E+10	1	-1E+10	1
4902554	35	C	01/21/2022	04:00	-136.217	49.495	0	300.10	0	4.5910	0	33.8770	0	26.833	0	297.325	0	-1e10	8	-1e10	8	-1E+10	1	-1E+10	1	-1E+10	1	-1E+10	1	-1E+10	1	-1E+10	1
4902554	35	C	01/21/2022	04:00	-136.217	49.495	0	301.00	0	4.5840	0	33.8790	0	26.835	0	298.216	0	-1e10	8	-1e10	8	-1E+10	1	-1E+10	1	-1E+10	1	-1E+10	1	-1E+10	1	-1E+10	1
4902554	35	C	01/21/2022	04:00	-136.217	49.495	0	302.00	0	4.5770	0	33.8810	0	26.838	0	299.206	0	-1e10	8	-1e10	8	-1E+10	1	-1E+10	1	-1E+10	1	-1E+10	1	-1E+10	1	-1E+10	1
4902554	35	C	01/21/2022	04:00	-136.217	49.495	0	303.00	0	4.5650	0	33.8850	0	26.842	0	300.196	0	-1e10	8	-1e10	8	-1E+10	1	-1E+10	1	-1E+10	1	-1E+10	1	-1E+10	1	-1E+10	1
4902554	35	C	01/21/2022	04:00	-136.217	49.495	0	303.90	0	4.5610	0	33.8860	0	26.843	0	301.087	0	-1e10	8	-1e10	8	-1E+10	1	-1E+10	1	-1E+10	1	-1E+10	1	-1E+10	1	-1E+10	1
4902554	35	C	01/21/2022	04:00	-136.217	49.495	0	304.90	0	4.5610	0	33.8870	0	26.844	0	302.077	0	-1e10	8	-1e10	8	-1E+10	1	-1E+10	1	-1E+10	1	-1E+10	1	-1E+10	1	-1E+10	1
4902554	35	C	01/21/2022	04:00	-136.217	49.495	0	305.90	0	4.5610	0	33.8880	0	26.845	0	303.067	0	-1e10	8	-1e10	8	-1E+10	1	-1E+10	1	-1E+10	1	-1E+10	1	-1E+10	1	-1E+10	1
4902554	35	C	01/21/2022	04:00	-136.217	49.495	0	306.80	0	4.5620	0	33.8900	0	26.847	0	303.958	0	-1e10	8	-1e10	8	-1E+10	1	-1E+10	1	-1E+10	1	-1E+10	1	-1E+10	1	-1E+10	1
4902554	35	C	01/21/2022	04:00	-136.217	49.495	0	307.80	0	4.5550	0	33.8980	0	26.854	0	304.948	0	-1e10	8	-1e10	8	-1E+10	1	-1E+10	1	-1E+10	1	-1E+10	1	-1E+10	1	-1E+10	1
4902554	35	C	01/21/2022	04:00	-136.217	49.495	0	308.80	0	4.5490	0	33.9000	0	26.856	0	305.938	0	-1e10	8	-1e10	8	-1E+10	1	-1E+10	1	-1E+10	1	-1E+10	1	-1E+10	1	-1E+10	1
4902554	35	C	01/21/2022	04:00	-136.217	49.495	0	309.80	0	4.5340	0	33.9030	0	26.860	0	306.928	0	-1e10	8	-1e10	8	-1E+10	1	-1E+10	1	-1E+10	1	-1E+10	1	-1E+10	1	-1E+10	1
4902554	35	C	01/21/2022	04:00	-136.217	49.495	0	310.70	0	4.5340	0	33.9040	0	26.861	0	307.819	0	-1e10	8	-1e10	8	-1E+10	1	-1E+10	1	-1E+10	1	-1E+10	1	-1E+10	1	-1E+10	1
4902554	35	C	01/21/2022	04:00	-136.217	49.495	0	311.70	0	4.5350	0	33.9030	0	26.860	0	308.809	0	-1e10	8	-1e10	8	-1E+10	1	-1E+10	1	-1E+10	1	-1E+10	1	-1E+10	1	-1E+10	1
4902554	35	C	01/21/2022	04:00	-136.217	49.495	0	312.70	0	4.5330	0	33.9030	0	26.860	0	309.799	0	-1e10	8	-1e10	8	-1E+10	1	-1E+10	1	-1E+10	1	-1E+10	1	-1E+10	1	-1E+10	1
4902554	35	C	01/21/2022	04:00	-136.217	49.495	0	313.70	0	4.5070	0	33.9040	0	26.864	0	310.789	0	-1e10	8	-1e10	8	-1E+10	1	-1E+10	1	-1E+10	1	-1E+10	1	-1E+10	1	-1E+10	1
4902554	35	C	01/21/2022	04:00	-136.217	49.495	0	314.70	0	4.5000	0	33.9050	0	26.865	0	311.779	0	-1e10	8	-1e10	8	-1E+10	1	-1E+10	1	-1E+10	1	-1E+10	1	-1E+10	1	-1E+10	1
4902554	35	C	01/21/2022	04:00	-136.217	49.495	0	315.60	0	4.5000	0	33.9060	0	26.866	0	312.670	0	-1e10	8	-1e10	8	-1E+10	1	-1E+10	1	-1E+10	1	-1E+10	1	-1E+10	1	-1E+10	1
4902554	35	C	01/21/2022	04:00	-136.217	49.495	0	316.90	0	4.4970	0	33.9080	0	26.868	0	313.957	0	-1e10	8	-1e10	8	-1E+10	1	-1E+10	1	-1E+10	1	-1E+10	1	-1E+10	1	-1E+10	1
4902554	35	C	01/21/2022	04:00	-136.217	49.495	0	318.00	0	4.4900	0	33.9090	0	26.869	0	315.046	0	-1e10	8	-1e10	8	-1E+10	1	-1E+10	1	-1E+10	1	-1E+10	1	-1E+10	1	-1E+10	1
4902554	35	C	01/21/2022	04:00	-136.217	49.495	0	319.00	0	4.4860	0	33.9110	0	26.872	0	316.036	0	-1e10	8	-1e10	8	-1E+10	1	-1E+10	1	-1E+10	1	-1E+10	1	-1E+10	1	-1E+10	1
4902554	35	C	01/21/2022	04:00	-136.217	49.495	0	320.20	0	4.4840	0	33.9120	0	26.873	0	317.224	0	-1e10	8	-1e10	8	-1E+10	1	-1E+10	1	-1E+10	1	-1E+10	1	-1E+10	1	-1E+10	1
4902554	35	C	01/21/2022	04:00	-136.217	49.495	0	320.90	0	4.4840	0	33.9120	0	26.873	0	317.917	0	-1e10	8	-1e10	8	-1E+10	1	-1E+10	1	-1E+10	1	-1E+10	1	-1E+10	1	-1E+10	1
4902554	35	C	01/21/2022	04:00	-136.217	49.495	0	322.00	0	4.4850	0	33.9120	0	26.872	0	319.006	0	-1e10	8	-1e10	8	-1E+10	1	-1E+10	1	-1E+10	1	-1E+10	1	-1E+10	1	-1E+10	1
4902554	35	C	01/21/2022	04:00	-136.217	49.495	0	323.10	0	4.4760	0	33.9150	0	26.876	0	320.095	0	-1e10	8	-1e10	8	-1E+10	1	-1E+10	1	-1E+10	1	-1E+10	1	-1E+10	1	-1E+10	1
4902554	35	C	01/21/2022	04:00	-136.217	49.495	0	323.90	0	4.4730	0	33.9150	0	26.876	0	320.887	0	-1e10	8	-1e10	8	-1E+10	1	-1E+10	1	-1E+10	1	-1E+10	1	-1E+10	1	-1E+10	1
4902554	35	C	01/21/2022	04:00	-136.217	49.495	0	325.00	0	4.4700	0	33.9160	0	26.877	0	321.975	0	-1e10	8	-1e10	8	-1E+10	1	-1E+10	1	-1E+10	1	-1E+10	1	-1E+10	1	-1E+10	1
4902554	35	C	01/21/2022	04:00	-136.217	49.495	0	326.20	0	4.4670	0	33.9190	0	26.880	0	323.163	0	-1e10	8	-1e10	8	-1E+10	1	-1E+10	1	-1E+10	1	-1E+10	1	-1E+10	1	-1E+10	1
4902554	35	C	01/21/2022	04:00	-136.217	49.495	0	326.90	0	4.4680	0	33.9200	0	26.881	0	323.856	0	-1e10	8	-1e10	8	-1E+10	1	-1E+10	1	-1E+10	1	-1E+10	1	-1E+10	1	-1E+10	1
4902554	35	C	01/21/2022	04:00	-136.217	49.495	0	327.70	0	4.4610	0	33.9220	0	26.883	0	324.648	0	-1e10	8	-1e10	8	-1E+10	1	-1E+10	1	-1E+10	1	-1E+10	1	-1E+10	1	-1E+10	1
4902554	35	C	01/21/2022	04:00	-136.217	49.495	0	328.80	0	4.4570	0	33.9240	0	26.885	0	325.737	0	-1e10	8	-1e10	8	-1E+10	1	-1E+10	1	-1E+10	1	-1E+10	1	-1E+10	1	-1E+10	1
4902554	35	C	01/21/2022	04:00	-136.217	49.495	0	330.00	0	4.4560	0	33.9250	0	26.886	0	326.925	0	-1e10	8	-1e10	8	-1E+10	1	-1E+10	1	-1E+10	1	-1E+10	1	-1E+10	1	-1E+10	1
4902554	35	C	01/21/2022	04:00	-136.217	49.495	0	330.80	0	4.4550	0	33.9250	0	26.886	0	327.717	0	-1e10	8	-1e10	8	-1E+10	1	-1E+10	1	-1E+10	1	-1E+10	1	-1E+10	1	-1E+10	1
4902554	35	C	01/21/2022	04:00	-136.217	49.495	0	332.00	0	4.4580	0	33.9280	0	26.888	0	328.905	0	-1e10	8	-1e10	8	-1E+10	1	-1E+10	1	-1E+10	1	-1E+10	1	-1E+10	1	-1E+10	1
4902554	35	C	01/21/2022	04:00	-136.217	49.495	0	333.20	0	4.4620	0	33.9310	0	26.890	0	330.093	0	-1e10	8	-1e10	8	-1E+10	1	-1E+10	1	-1E+10	1	-1E+10	1	-1E+10	1	-1E+10	1
4902554	35	C	01/21/2022	04:00	-136.217	49.495	0	334.00	0	4.4630	0	33.9330	0	26.892	0	330.885	0	-1e10	8	-1e10	8	-1E+10	1	-1E+10	1	-1E+10	1	-1E+10	1	-1E+10	1	-1E+10	1
4902554	35	C	01/21/2022	04:00	-136.217	49.495	0	334.80	0	4.4620	0	33.9330	0	26.892	0	331.676	0	-1e10	8	-1e10	8	-1E+10	1	-1E+10	1	-1E+10	1	-1E+10	1	-1E+10	1	-1E+10	1
4902554	35	C	01/21/2022	04:00	-136.217	49.495	0	336.00	0	4.4610	0	33.9330	0	26.892	0	332.864	0	-1e10	8	-1e10	8	-1E+10	1	-1E+10	1	-1E+10	1	-1E+10	1	-1E+10	1	-1E+10	1
4902554	35	C	01/21/2022	04:00	-136.217	49.495	0	337.20	0	4.4600	0	33.9350	0	26.894	0	334.052	0	-1e10	8	-1e10	8	-1E+10	1	-1E+10	1	-1E+10	1	-1E+10	1	-1E+10	1	-1E+10	1
4902554	35	C	01/21/2022	04:00	-136.217	49.495	0	338.00	0	4.4560	0	33.9370	0	26.896	0	334.844	0	-1e10	8	-1e10	8	-1E+10	1	-1E+10	1	-1E+10	1	-1E+10	1	-1E+10	1	-1E+10	1
4902554	35	C	01/21/2022	04:00	-136.217	49.495	0	338.90	0	4.4560	0	33.9370	0	26.896	0	335.735	0	-1e10	8	-1e10	8	-1E+10	1	-1E+10	1	-1E+10	1	-1E+10	1	-1E+10	1	-1E+10	1
4902554	35	C	01/21/2022	04:00	-136.217	49.495	0	339.70	0	4.4550	0	33.9370	0	26.896	0	336.527	0	-1e10	8	-1e10	8	-1E+10	1	-1E+10	1	-1E+10	1	-1E+10	1	-1E+10	1	-1E+10	1
4902554	35	C	01/21/2022	04:00	-136.217	49.495	0	340.90	0	4.4430	0	33.9400	0	26.899	0	337.715	0	-1e10	8	-1e10	8	-1E+10	1	-1E+10	1	-1E+10	1	-1E+10	1	-1E+10	1	-1E+10	1
4902554	35	C	01/21/2022	04:00	-136.217	49.495	0	342.20	0	4.4220	0	33.9410	0	26.902	0	339.001	0	-1e10	8	-1e10	8	-1E+10	1	-1E+10	1	-1E+10	1	-1E+10	1	-1E+10	1	-1E+10	1
4902554	35	C	01/21/2022	04:00	-136.217	49.495	0	343.00	0	4.4230	0	33.9430	0	26.904	0	339.793	0	-1e10	8	-1e10	8	-1E+10	1	-1E+10	1	-1E+10	1	-1E+10	1	-1E+10	1	-1E+10	1
4902554	35	C	01/21/2022	04:00	-136.217	49.495	0	343.90	0	4.4300	0	33.9450	0	26.905	0	340.684	0	-1e10	8	-1e10	8	-1E+10	1	-1E+10	1	-1E+10	1	-1E+10	1	-1E+10	1	-1E+10	1
4902554	35	C	01/21/2022	04:00	-136.217	49.495	0	344.70	0	4.4330	0	33.9460	0	26.905	0	341.476	0	-1e10	8	-1e10	8	-1E+10	1	-1E+10	1	-1E+10	1	-1E+10	1	-1E+10	1	-1E+10	1
4902554	35	C	01/21/2022	04:00	-136.217	49.495	0	345.90	0	4.4310	0	33.9470	0	26.906	0	342.664	0	-1e10	8	-1e10	8	-1E+10	1	-1E+10	1	-1E+10	1	-1E+10	1	-1E+10	1	-1E+10	1
4902554	35	C	01/21/2022	04:00	-136.217	49.495	0	347.20	0	4.4280	0	33.9470	0	26.907	0	343.950	0	-1e10	8	-1e10	8	-1E+10	1	-1E+10	1	-1E+10	1	-1E+10	1	-1E+10	1	-1E+10	1
4902554	35	C	01/21/2022	04:00	-136.217	49.495	0	348.10	0	4.4260	0	33.9480	0	26.908	0	344.841	0	-1e10	8	-1e10	8	-1E+10	1	-1E+10	1	-1E+10	1	-1E+10	1	-1E+10	1	-1E+10	1
4902554	35	C	01/21/2022	04:00	-136.217	49.495	0	348.90	0	4.4250	0	33.9480	0	26.908	0	345.633	0	-1e10	8	-1e10	8	-1E+10	1	-1E+10	1	-1E+10	1	-1E+10	1	-1E+10	1	-1E+10	1
4902554	35	C	01/21/2022	04:00	-136.217	49.495	0	349.80	0	4.4200	0	33.9500	0	26.910	0	346.524	0	-1e10	8	-1e10	8	-1E+10	1	-1E+10	1	-1E+10	1	-1E+10	1	-1E+10	1	-1E+10	1
4902554	35	C	01/21/2022	04:00	-136.217	49.495	0	352.70	0	4.4100	0	33.9510	0	26.912	0	349.394	0	-1e10	8	-1e10	8	-1E+10	1	-1E+10	1	-1E+10	1	-1E+10	1	-1E+10	1	-1E+10	1
4902554	35	C	01/21/2022	04:00	-136.217	49.495	0	357.90	0	4.4040	0	33.9590	0	26.919	0	354.541	0	-1e10	8	-1e10	8	-1E+10	1	-1E+10	1	-1E+10	1	-1E+10	1	-1E+10	1	-1E+10	1
4902554	35	C	01/21/2022	04:00	-136.217	49.495	0	363.10	0	4.3990	0	33.9630	0	26.922	0	359.688	0	-1e10	8	-1e10	8	-1E+10	1	-1E+10	1	-1E+10	1	-1E+10	1	-1E+10	1	-1E+10	1
4902554	35	C	01/21/2022	04:00	-136.217	49.495	0	368.20	0	4.3940	0	33.9660	0	26.925	0	364.735	0	-1e10	8	-1e10	8	-1E+10	1	-1E+10	1	-1E+10	1	-1E+10	1	-1E+10	1	-1E+10	1
4902554	35	C	01/21/2022	04:00	-136.217	49.495	0	373.30	0	4.3920	0	33.9700	0	26.929	0	369.783	0	-1e10	8	-1e10	8	-1E+10	1	-1E+10	1	-1E+10	1	-1E+10	1	-1E+10	1	-1E+10	1
4902554	35	C	01/21/2022	04:00	-136.217	49.495	0	377.90	0	4.3780	0	33.9780	0	26.937	0	374.335	0	-1e10	8	-1e10	8	-1E+10	1	-1E+10	1	-1E+10	1	-1E+10	1	-1E+10	1	-1E+10	1
4902554	35	C	01/21/2022	04:00	-136.217	49.495	0	382.60	0	4.3680	0	33.9820	0	26.941	0	378.987	0	-1e10	8	-1e10	8	-1E+10	1	-1E+10	1	-1E+10	1	-1E+10	1	-1E+10	1	-1E+10	1
4902554	35	C	01/21/2022	04:00	-136.217	49.495	0	387.80	0	4.3600	0	33.9900	0	26.948	0	384.133	0	-1e10	8	-1e10	8	-1E+10	1	-1E+10	1	-1E+10	1	-1E+10	1	-1E+10	1	-1E+10	1
4902554	35	C	01/21/2022	04:00	-136.217	49.495	0	393.00	0	4.3530	0	33.9940	0	26.952	0	389.279	0	-1e10	8	-1e10	8	-1E+10	1	-1E+10	1	-1E+10	1	-1E+10	1	-1E+10	1	-1E+10	1
4902554	35	C	01/21/2022	04:00	-136.217	49.495	0	397.80	0	4.3460	0	34.0000	0	26.958	0	394.029	0	-1e10	8	-1e10	8	-1E+10	1	-1E+10	1	-1E+10	1	-1E+10	1	-1E+10	1	-1E+10	1
4902554	35	C	01/21/2022	04:00	-136.217	49.495	0	402.70	0	4.3370	0	34.0080	0	26.965	0	398.878	0	-1e10	8	-1e10	8	-1E+10	1	-1E+10	1	-1E+10	1	-1E+10	1	-1E+10	1	-1E+10	1
4902554	35	C	01/21/2022	04:00	-136.217	49.495	0	407.80	0	4.3350	0	34.0120	0	26.969	0	403.924	0	-1e10	8	-1e10	8	-1E+10	1	-1E+10	1	-1E+10	1	-1E+10	1	-1E+10	1	-1E+10	1
4902554	35	C	01/21/2022	04:00	-136.217	49.495	0	412.70	0	4.3280	0	34.0160	0	26.972	0	408.773	0	-1e10	8	-1e10	8	-1E+10	1	-1E+10	1	-1E+10	1	-1E+10	1	-1E+10	1	-1E+10	1
4902554	35	C	01/21/2022	04:00	-136.217	49.495	0	417.80	0	4.3160	0	34.0250	0	26.981	0	413.819	0	-1e10	8	-1e10	8	-1E+10	1	-1E+10	1	-1E+10	1	-1E+10	1	-1E+10	1	-1E+10	1
4902554	35	C	01/21/2022	04:00	-136.217	49.495	0	422.90	0	4.3080	0	34.0300	0	26.986	0	418.866	0	-1e10	8	-1e10	8	-1E+10	1	-1E+10	1	-1E+10	1	-1E+10	1	-1E+10	1	-1E+10	1
4902554	35	C	01/21/2022	04:00	-136.217	49.495	0	428.00	0	4.2990	0	34.0350	0	26.991	0	423.912	0	-1e10	8	-1e10	8	-1E+10	1	-1E+10	1	-1E+10	1	-1E+10	1	-1E+10	1	-1E+10	1
4902554	35	C	01/21/2022	04:00	-136.217	49.495	0	432.80	0	4.2980	0	34.0360	0	26.992	0	428.661	0	-1e10	8	-1e10	8	-1E+10	1	-1E+10	1	-1E+10	1	-1E+10	1	-1E+10	1	-1E+10	1
4902554	35	C	01/21/2022	04:00	-136.217	49.495	0	437.70	0	4.2960	0	34.0390	0	26.994	0	433.509	0	-1e10	8	-1e10	8	-1E+10	1	-1E+10	1	-1E+10	1	-1E+10	1	-1E+10	1	-1E+10	1
4902554	35	C	01/21/2022	04:00	-136.217	49.495	0	442.60	0	4.2800	0	34.0430	0	26.999	0	438.357	0	-1e10	8	-1e10	8	-1E+10	1	-1E+10	1	-1E+10	1	-1E+10	1	-1E+10	1	-1E+10	1
4902554	35	C	01/21/2022	04:00	-136.217	49.495	0	447.60	0	4.2640	0	34.0480	0	27.005	0	443.304	0	-1e10	8	-1e10	8	-1E+10	1	-1E+10	1	-1E+10	1	-1E+10	1	-1E+10	1	-1E+10	1
4902554	35	C	01/21/2022	04:00	-136.217	49.495	0	452.70	0	4.2430	0	34.0540	0	27.012	0	448.349	0	-1e10	8	-1e10	8	-1E+10	1	-1E+10	1	-1E+10	1	-1E+10	1	-1E+10	1	-1E+10	1
4902554	35	C	01/21/2022	04:00	-136.217	49.495	0	457.80	0	4.2290	0	34.0590	0	27.017	0	453.394	0	-1e10	8	-1e10	8	-1E+10	1	-1E+10	1	-1E+10	1	-1E+10	1	-1E+10	1	-1E+10	1
4902554	35	C	01/21/2022	04:00	-136.217	49.495	0	463.00	0	4.2200	0	34.0620	0	27.021	0	458.539	0	-1e10	8	-1e10	8	-1E+10	1	-1E+10	1	-1E+10	1	-1E+10	1	-1E+10	1	-1E+10	1
4902554	35	C	01/21/2022	04:00	-136.217	49.495	0	468.30	0	4.2080	0	34.0670	0	27.026	0	463.782	0	-1e10	8	-1e10	8	-1E+10	1	-1E+10	1	-1E+10	1	-1E+10	1	-1E+10	1	-1E+10	1
4902554	35	C	01/21/2022	04:00	-136.217	49.495	0	473.00	0	4.1990	0	34.0700	0	27.029	0	468.431	0	-1e10	8	-1e10	8	-1E+10	1	-1E+10	1	-1E+10	1	-1E+10	1	-1E+10	1	-1E+10	1
4902554	35	C	01/21/2022	04:00	-136.217	49.495	0	477.90	0	4.1820	0	34.0760	0	27.036	0	473.278	0	-1e10	8	-1e10	8	-1E+10	1	-1E+10	1	-1E+10	1	-1E+10	1	-1E+10	1	-1E+10	1
4902554	35	C	01/21/2022	04:00	-136.217	49.495	0	482.80	0	4.1730	0	34.0790	0	27.039	0	478.125	0	-1e10	8	-1e10	8	-1E+10	1	-1E+10	1	-1E+10	1	-1E+10	1	-1E+10	1	-1E+10	1
4902554	35	C	01/21/2022	04:00	-136.217	49.495	0	487.60	0	4.1650	0	34.0820	0	27.043	0	482.873	0	-1e10	8	-1e10	8	-1E+10	1	-1E+10	1	-1E+10	1	-1E+10	1	-1E+10	1	-1E+10	1
4902554	35	C	01/21/2022	04:00	-136.217	49.495	0	492.60	0	4.1540	0	34.0850	0	27.046	0	487.819	0	-1e10	8	-1e10	8	-1E+10	1	-1E+10	1	-1E+10	1	-1E+10	1	-1E+10	1	-1E+10	1
4902554	35	C	01/21/2022	04:00	-136.217	49.495	0	497.70	0	4.1430	0	34.0870	0	27.049	0	492.863	0	-1e10	8	-1e10	8	-1E+10	1	-1E+10	1	-1E+10	1	-1E+10	1	-1E+10	1	-1E+10	1
4902554	35	C	01/21/2022	04:00	-136.217	49.495	0	502.90	0	4.1390	0	34.0890	0	27.051	0	498.006	0	-1e10	8	-1e10	8	-1E+10	1	-1E+10	1	-1E+10	1	-1E+10	1	-1E+10	1	-1E+10	1
4902554	35	C	01/21/2022	04:00	-136.217	49.495	0	507.80	0	4.1240	0	34.0980	0	27.060	0	502.853	0	-1e10	8	-1e10	8	-1E+10	1	-1E+10	1	-1E+10	1	-1E+10	1	-1E+10	1	-1E+10	1
4902554	35	C	01/21/2022	04:00	-136.217	49.495	0	512.90	0	4.1130	0	34.1010	0	27.063	0	507.897	0	-1e10	8	-1e10	8	-1E+10	1	-1E+10	1	-1E+10	1	-1E+10	1	-1E+10	1	-1E+10	1
4902554	35	C	01/21/2022	04:00	-136.217	49.495	0	518.00	0	4.1020	0	34.1080	0	27.070	0	512.941	0	-1e10	8	-1e10	8	-1E+10	1	-1E+10	1	-1E+10	1	-1E+10	1	-1E+10	1	-1E+10	1
4902554	35	C	01/21/2022	04:00	-136.217	49.495	0	522.80	0	4.0930	0	34.1120	0	27.074	0	517.688	0	-1e10	8	-1e10	8	-1E+10	1	-1E+10	1	-1E+10	1	-1E+10	1	-1E+10	1	-1E+10	1
4902554	35	C	01/21/2022	04:00	-136.217	49.495	0	527.70	0	4.0840	0	34.1150	0	27.078	0	522.534	0	-1e10	8	-1e10	8	-1E+10	1	-1E+10	1	-1E+10	1	-1E+10	1	-1E+10	1	-1E+10	1
4902554	35	C	01/21/2022	04:00	-136.217	49.495	0	532.70	0	4.0770	0	34.1170	0	27.080	0	527.479	0	-1e10	8	-1e10	8	-1E+10	1	-1E+10	1	-1E+10	1	-1E+10	1	-1E+10	1	-1E+10	1
4902554	35	C	01/21/2022	04:00	-136.217	49.495	0	537.80	0	4.0690	0	34.1180	0	27.082	0	532.522	0	-1e10	8	-1e10	8	-1E+10	1	-1E+10	1	-1E+10	1	-1E+10	1	-1E+10	1	-1E+10	1
4902554	35	C	01/21/2022	04:00	-136.217	49.495	0	542.90	0	4.0500	0	34.1210	0	27.086	0	537.566	0	-1e10	8	-1e10	8	-1E+10	1	-1E+10	1	-1E+10	1	-1E+10	1	-1E+10	1	-1E+10	1
4902554	35	C	01/21/2022	04:00	-136.217	49.495	0	548.10	0	4.0320	0	34.1240	0	27.090	0	542.708	0	-1e10	8	-1e10	8	-1E+10	1	-1E+10	1	-1E+10	1	-1E+10	1	-1E+10	1	-1E+10	1
4902554	35	C	01/21/2022	04:00	-136.217	49.495	0	553.20	0	4.0320	0	34.1290	0	27.094	0	547.751	0	-1e10	8	-1e10	8	-1E+10	1	-1E+10	1	-1E+10	1	-1E+10	1	-1E+10	1	-1E+10	1
4902554	35	C	01/21/2022	04:00	-136.217	49.495	0	558.00	0	4.0080	0	34.1310	0	27.098	0	552.497	0	-1e10	8	-1e10	8	-1E+10	1	-1E+10	1	-1E+10	1	-1E+10	1	-1E+10	1	-1E+10	1
4902554	35	C	01/21/2022	04:00	-136.217	49.495	0	562.80	0	3.9910	0	34.1340	0	27.102	0	557.243	0	-1e10	8	-1e10	8	-1E+10	1	-1E+10	1	-1E+10	1	-1E+10	1	-1E+10	1	-1E+10	1
4902554	35	C	01/21/2022	04:00	-136.217	49.495	0	568.10	0	3.9860	0	34.1360	0	27.105	0	562.484	0	-1e10	8	-1e10	8	-1E+10	1	-1E+10	1	-1E+10	1	-1E+10	1	-1E+10	1	-1E+10	1
4902554	35	C	01/21/2022	04:00	-136.217	49.495	0	573.00	0	3.9720	0	34.1410	0	27.110	0	567.329	0	-1e10	8	-1e10	8	-1E+10	1	-1E+10	1	-1E+10	1	-1E+10	1	-1E+10	1	-1E+10	1
4902554	35	C	01/21/2022	04:00	-136.217	49.495	0	577.80	0	3.9640	0	34.1450	0	27.114	0	572.075	0	-1e10	8	-1e10	8	-1E+10	1	-1E+10	1	-1E+10	1	-1E+10	1	-1E+10	1	-1E+10	1
4902554	35	C	01/21/2022	04:00	-136.217	49.495	0	583.20	0	3.9550	0	34.1470	0	27.117	0	577.414	0	-1e10	8	-1e10	8	-1E+10	1	-1E+10	1	-1E+10	1	-1E+10	1	-1E+10	1	-1E+10	1
4902554	35	C	01/21/2022	04:00	-136.217	49.495	0	588.10	0	3.9500	0	34.1490	0	27.119	0	582.258	0	-1e10	8	-1e10	8	-1E+10	1	-1E+10	1	-1E+10	1	-1E+10	1	-1E+10	1	-1E+10	1
4902554	35	C	01/21/2022	04:00	-136.217	49.495	0	592.90	0	3.9420	0	34.1520	0	27.122	0	587.004	0	-1e10	8	-1e10	8	-1E+10	1	-1E+10	1	-1E+10	1	-1E+10	1	-1E+10	1	-1E+10	1
4902554	35	C	01/21/2022	04:00	-136.217	49.495	0	598.20	0	3.9370	0	34.1540	0	27.124	0	592.243	0	-1e10	8	-1e10	8	-1E+10	1	-1E+10	1	-1E+10	1	-1E+10	1	-1E+10	1	-1E+10	1
4902554	35	C	01/21/2022	04:00	-136.217	49.495	0	602.90	0	3.9350	0	34.1570	0	27.127	0	596.890	0	-1e10	8	-1e10	8	-1E+10	1	-1E+10	1	-1E+10	1	-1E+10	1	-1E+10	1	-1E+10	1
4902554	35	C	01/21/2022	04:00	-136.217	49.495	0	607.60	0	3.9290	0	34.1610	0	27.131	0	601.536	0	-1e10	8	-1e10	8	-1E+10	1	-1E+10	1	-1E+10	1	-1E+10	1	-1E+10	1	-1E+10	1
4902554	35	C	01/21/2022	04:00	-136.217	49.495	0	612.80	0	3.9230	0	34.1640	0	27.134	0	606.677	0	-1e10	8	-1e10	8	-1E+10	1	-1E+10	1	-1E+10	1	-1E+10	1	-1E+10	1	-1E+10	1
4902554	35	C	01/21/2022	04:00	-136.217	49.495	0	617.90	0	3.9140	0	34.1670	0	27.137	0	611.718	0	-1e10	8	-1e10	8	-1E+10	1	-1E+10	1	-1E+10	1	-1E+10	1	-1E+10	1	-1E+10	1
4902554	35	C	01/21/2022	04:00	-136.217	49.495	0	623.10	0	3.9010	0	34.1710	0	27.141	0	616.859	0	-1e10	8	-1e10	8	-1E+10	1	-1E+10	1	-1E+10	1	-1E+10	1	-1E+10	1	-1E+10	1
4902554	35	C	01/21/2022	04:00	-136.217	49.495	0	628.20	0	3.8780	0	34.1770	0	27.149	0	621.900	0	-1e10	8	-1e10	8	-1E+10	1	-1E+10	1	-1E+10	1	-1E+10	1	-1E+10	1	-1E+10	1
4902554	35	C	01/21/2022	04:00	-136.217	49.495	0	632.80	0	3.8700	0	34.1790	0	27.151	0	626.447	0	-1e10	8	-1e10	8	-1E+10	1	-1E+10	1	-1E+10	1	-1E+10	1	-1E+10	1	-1E+10	1
4902554	35	C	01/21/2022	04:00	-136.217	49.495	0	637.50	0	3.8610	0	34.1820	0	27.154	0	631.093	0	-1e10	8	-1e10	8	-1E+10	1	-1E+10	1	-1E+10	1	-1E+10	1	-1E+10	1	-1E+10	1
4902554	35	C	01/21/2022	04:00	-136.217	49.495	0	642.50	0	3.8480	0	34.1860	0	27.159	0	636.035	0	-1e10	8	-1e10	8	-1E+10	1	-1E+10	1	-1E+10	1	-1E+10	1	-1E+10	1	-1E+10	1
4902554	35	C	01/21/2022	04:00	-136.217	49.495	0	647.60	0	3.8380	0	34.1890	0	27.162	0	641.076	0	-1e10	8	-1e10	8	-1E+10	1	-1E+10	1	-1E+10	1	-1E+10	1	-1E+10	1	-1E+10	1
4902554	35	C	01/21/2022	04:00	-136.217	49.495	0	652.70	0	3.8200	0	34.1910	0	27.166	0	646.116	0	-1e10	8	-1e10	8	-1E+10	1	-1E+10	1	-1E+10	1	-1E+10	1	-1E+10	1	-1E+10	1
4902554	35	C	01/21/2022	04:00	-136.217	49.495	0	657.80	0	3.8060	0	34.1950	0	27.170	0	651.157	0	-1e10	8	-1e10	8	-1E+10	1	-1E+10	1	-1E+10	1	-1E+10	1	-1E+10	1	-1E+10	1
4902554	35	C	01/21/2022	04:00	-136.217	49.495	0	662.90	0	3.7830	0	34.2020	0	27.178	0	656.197	0	-1e10	8	-1e10	8	-1E+10	1	-1E+10	1	-1E+10	1	-1E+10	1	-1E+10	1	-1E+10	1
4902554	35	C	01/21/2022	04:00	-136.217	49.495	0	667.90	0	3.7740	0	34.2040	0	27.181	0	661.139	0	-1e10	8	-1e10	8	-1E+10	1	-1E+10	1	-1E+10	1	-1E+10	1	-1E+10	1	-1E+10	1
4902554	35	C	01/21/2022	04:00	-136.217	49.495	0	673.00	0	3.7580	0	34.2080	0	27.185	0	666.179	0	-1e10	8	-1e10	8	-1E+10	1	-1E+10	1	-1E+10	1	-1E+10	1	-1E+10	1	-1E+10	1
4902554	35	C	01/21/2022	04:00	-136.217	49.495	0	678.00	0	3.7400	0	34.2130	0	27.191	0	671.120	0	-1e10	8	-1e10	8	-1E+10	1	-1E+10	1	-1E+10	1	-1E+10	1	-1E+10	1	-1E+10	1
4902554	35	C	01/21/2022	04:00	-136.217	49.495	0	683.00	0	3.7270	0	34.2160	0	27.195	0	676.061	0	-1e10	8	-1e10	8	-1E+10	1	-1E+10	1	-1E+10	1	-1E+10	1	-1E+10	1	-1E+10	1
4902554	35	C	01/21/2022	04:00	-136.217	49.495	0	688.00	0	3.7120	0	34.2220	0	27.201	0	681.003	0	-1e10	8	-1e10	8	-1E+10	1	-1E+10	1	-1E+10	1	-1E+10	1	-1E+10	1	-1E+10	1
4902554	35	C	01/21/2022	04:00	-136.217	49.495	0	693.00	0	3.7050	0	34.2260	0	27.205	0	685.943	0	-1e10	8	-1e10	8	-1E+10	1	-1E+10	1	-1E+10	1	-1E+10	1	-1E+10	1	-1E+10	1
4902554	35	C	01/21/2022	04:00	-136.217	49.495	0	698.10	0	3.6900	0	34.2290	0	27.209	0	690.983	0	-1e10	8	-1e10	8	-1E+10	1	-1E+10	1	-1E+10	1	-1E+10	1	-1E+10	1	-1E+10	1
4902554	35	C	01/21/2022	04:00	-136.217	49.495	0	703.00	0	3.6720	0	34.2320	0	27.213	0	695.825	0	-1e10	8	-1e10	8	-1E+10	1	-1E+10	1	-1E+10	1	-1E+10	1	-1E+10	1	-1E+10	1
4902554	35	C	01/21/2022	04:00	-136.217	49.495	0	707.80	0	3.6490	0	34.2350	0	27.218	0	700.568	0	-1e10	8	-1e10	8	-1E+10	1	-1E+10	1	-1E+10	1	-1E+10	1	-1E+10	1	-1E+10	1
4902554	35	C	01/21/2022	04:00	-136.217	49.495	0	712.90	0	3.6380	0	34.2370	0	27.221	0	705.607	0	-1e10	8	-1e10	8	-1E+10	1	-1E+10	1	-1E+10	1	-1E+10	1	-1E+10	1	-1E+10	1
4902554	35	C	01/21/2022	04:00	-136.217	49.495	0	717.70	0	3.6270	0	34.2400	0	27.224	0	710.350	0	-1e10	8	-1e10	8	-1E+10	1	-1E+10	1	-1E+10	1	-1E+10	1	-1E+10	1	-1E+10	1
4902554	35	C	01/21/2022	04:00	-136.217	49.495	0	722.90	0	3.6200	0	34.2410	0	27.226	0	715.488	0	-1e10	8	-1e10	8	-1E+10	1	-1E+10	1	-1E+10	1	-1E+10	1	-1E+10	1	-1E+10	1
4902554	35	C	01/21/2022	04:00	-136.217	49.495	0	728.20	0	3.6110	0	34.2430	0	27.228	0	720.724	0	-1e10	8	-1e10	8	-1E+10	1	-1E+10	1	-1E+10	1	-1E+10	1	-1E+10	1	-1E+10	1
4902554	35	C	01/21/2022	04:00	-136.217	49.495	0	733.10	0	3.5980	0	34.2460	0	27.232	0	725.565	0	-1e10	8	-1e10	8	-1E+10	1	-1E+10	1	-1E+10	1	-1E+10	1	-1E+10	1	-1E+10	1
4902554	35	C	01/21/2022	04:00	-136.217	49.495	0	738.20	0	3.5870	0	34.2490	0	27.235	0	730.604	0	-1e10	8	-1e10	8	-1E+10	1	-1E+10	1	-1E+10	1	-1E+10	1	-1E+10	1	-1E+10	1
4902554	35	C	01/21/2022	04:00	-136.217	49.495	0	743.30	0	3.5710	0	34.2520	0	27.239	0	735.643	0	-1e10	8	-1e10	8	-1E+10	1	-1E+10	1	-1E+10	1	-1E+10	1	-1E+10	1	-1E+10	1
4902554	35	C	01/21/2022	04:00	-136.217	49.495	0	748.00	0	3.5570	0	34.2540	0	27.242	0	740.286	0	-1e10	8	-1e10	8	-1E+10	1	-1E+10	1	-1E+10	1	-1E+10	1	-1E+10	1	-1E+10	1
4902554	35	C	01/21/2022	04:00	-136.217	49.495	0	752.70	0	3.5430	0	34.2560	0	27.245	0	744.929	0	-1e10	8	-1e10	8	-1E+10	1	-1E+10	1	-1E+10	1	-1E+10	1	-1E+10	1	-1E+10	1
4902554	35	C	01/21/2022	04:00	-136.217	49.495	0	757.90	0	3.5310	0	34.2600	0	27.250	0	750.066	0	-1e10	8	-1e10	8	-1E+10	1	-1E+10	1	-1E+10	1	-1E+10	1	-1E+10	1	-1E+10	1
4902554	35	C	01/21/2022	04:00	-136.217	49.495	0	762.90	0	3.5150	0	34.2630	0	27.254	0	755.005	0	-1e10	8	-1e10	8	-1E+10	1	-1E+10	1	-1E+10	1	-1E+10	1	-1E+10	1	-1E+10	1
4902554	35	C	01/21/2022	04:00	-136.217	49.495	0	767.80	0	3.4980	0	34.2670	0	27.258	0	759.846	0	-1e10	8	-1e10	8	-1E+10	1	-1E+10	1	-1E+10	1	-1E+10	1	-1E+10	1	-1E+10	1
4902554	35	C	01/21/2022	04:00	-136.217	49.495	0	772.90	0	3.4810	0	34.2710	0	27.263	0	764.883	0	-1e10	8	-1e10	8	-1E+10	1	-1E+10	1	-1E+10	1	-1E+10	1	-1E+10	1	-1E+10	1
4902554	35	C	01/21/2022	04:00	-136.217	49.495	0	777.90	0	3.4620	0	34.2750	0	27.268	0	769.822	0	-1e10	8	-1e10	8	-1E+10	1	-1E+10	1	-1E+10	1	-1E+10	1	-1E+10	1	-1E+10	1
4902554	35	C	01/21/2022	04:00	-136.217	49.495	0	782.90	0	3.4420	0	34.2800	0	27.274	0	774.761	0	-1e10	8	-1e10	8	-1E+10	1	-1E+10	1	-1E+10	1	-1E+10	1	-1E+10	1	-1E+10	1
4902554	35	C	01/21/2022	04:00	-136.217	49.495	0	787.70	0	3.4260	0	34.2850	0	27.280	0	779.502	0	-1e10	8	-1e10	8	-1E+10	1	-1E+10	1	-1E+10	1	-1E+10	1	-1E+10	1	-1E+10	1
4902554	35	C	01/21/2022	04:00	-136.217	49.495	0	792.90	0	3.4200	0	34.2860	0	27.281	0	784.638	0	-1e10	8	-1e10	8	-1E+10	1	-1E+10	1	-1E+10	1	-1E+10	1	-1E+10	1	-1E+10	1
4902554	35	C	01/21/2022	04:00	-136.217	49.495	0	798.30	0	3.4120	0	34.2880	0	27.284	0	789.972	0	-1e10	8	-1e10	8	-1E+10	1	-1E+10	1	-1E+10	1	-1E+10	1	-1E+10	1	-1E+10	1
4902554	35	C	01/21/2022	04:00	-136.217	49.495	0	803.10	0	3.4050	0	34.2890	0	27.285	0	794.713	0	-1e10	8	-1e10	8	-1E+10	1	-1E+10	1	-1E+10	1	-1E+10	1	-1E+10	1	-1E+10	1
4902554	35	C	01/21/2022	04:00	-136.217	49.495	0	808.10	0	3.3960	0	34.2910	0	27.288	0	799.651	0	-1e10	8	-1e10	8	-1E+10	1	-1E+10	1	-1E+10	1	-1E+10	1	-1E+10	1	-1E+10	1
4902554	35	C	01/21/2022	04:00	-136.217	49.495	0	813.10	0	3.3880	0	34.2920	0	27.289	0	804.589	0	-1e10	8	-1e10	8	-1E+10	1	-1E+10	1	-1E+10	1	-1E+10	1	-1E+10	1	-1E+10	1
4902554	35	C	01/21/2022	04:00	-136.217	49.495	0	818.10	0	3.3820	0	34.2940	0	27.291	0	809.527	0	-1e10	8	-1e10	8	-1E+10	1	-1E+10	1	-1E+10	1	-1E+10	1	-1E+10	1	-1E+10	1
4902554	35	C	01/21/2022	04:00	-136.217	49.495	0	823.00	0	3.3740	0	34.2960	0	27.294	0	814.366	0	-1e10	8	-1e10	8	-1E+10	1	-1E+10	1	-1E+10	1	-1E+10	1	-1E+10	1	-1E+10	1
4902554	35	C	01/21/2022	04:00	-136.217	49.495	0	828.00	0	3.3610	0	34.2980	0	27.297	0	819.304	0	-1e10	8	-1e10	8	-1E+10	1	-1E+10	1	-1E+10	1	-1E+10	1	-1E+10	1	-1E+10	1
4902554	35	C	01/21/2022	04:00	-136.217	49.495	0	833.10	0	3.3490	0	34.3010	0	27.300	0	824.340	0	-1e10	8	-1e10	8	-1E+10	1	-1E+10	1	-1E+10	1	-1E+10	1	-1E+10	1	-1E+10	1
4902554	35	C	01/21/2022	04:00	-136.217	49.495	0	838.20	0	3.3420	0	34.3030	0	27.302	0	829.377	0	-1e10	8	-1e10	8	-1E+10	1	-1E+10	1	-1E+10	1	-1E+10	1	-1E+10	1	-1E+10	1
4902554	35	C	01/21/2022	04:00	-136.217	49.495	0	843.30	0	3.3370	0	34.3030	0	27.303	0	834.413	0	-1e10	8	-1e10	8	-1E+10	1	-1E+10	1	-1E+10	1	-1E+10	1	-1E+10	1	-1E+10	1
4902554	35	C	01/21/2022	04:00	-136.217	49.495	0	848.00	0	3.3290	0	34.3050	0	27.305	0	839.054	0	-1e10	8	-1e10	8	-1E+10	1	-1E+10	1	-1E+10	1	-1E+10	1	-1E+10	1	-1E+10	1
4902554	35	C	01/21/2022	04:00	-136.217	49.495	0	852.70	0	3.3190	0	34.3070	0	27.308	0	843.695	0	-1e10	8	-1e10	8	-1E+10	1	-1E+10	1	-1E+10	1	-1E+10	1	-1E+10	1	-1E+10	1
4902554	35	C	01/21/2022	04:00	-136.217	49.495	0	858.10	0	3.3150	0	34.3080	0	27.309	0	849.027	0	-1e10	8	-1e10	8	-1E+10	1	-1E+10	1	-1E+10	1	-1E+10	1	-1E+10	1	-1E+10	1
4902554	35	C	01/21/2022	04:00	-136.217	49.495	0	862.90	0	3.3070	0	34.3100	0	27.311	0	853.766	0	-1e10	8	-1e10	8	-1E+10	1	-1E+10	1	-1E+10	1	-1E+10	1	-1E+10	1	-1E+10	1
4902554	35	C	01/21/2022	04:00	-136.217	49.495	0	867.70	0	3.2950	0	34.3120	0	27.314	0	858.505	0	-1e10	8	-1e10	8	-1E+10	1	-1E+10	1	-1E+10	1	-1E+10	1	-1E+10	1	-1E+10	1
4902554	35	C	01/21/2022	04:00	-136.217	49.495	0	872.50	0	3.2810	0	34.3150	0	27.318	0	863.245	0	-1e10	8	-1e10	8	-1E+10	1	-1E+10	1	-1E+10	1	-1E+10	1	-1E+10	1	-1E+10	1
4902554	35	C	01/21/2022	04:00	-136.217	49.495	0	877.50	0	3.2750	0	34.3160	0	27.319	0	868.181	0	-1e10	8	-1e10	8	-1E+10	1	-1E+10	1	-1E+10	1	-1E+10	1	-1E+10	1	-1E+10	1
4902554	35	C	01/21/2022	04:00	-136.217	49.495	0	882.60	0	3.2700	0	34.3180	0	27.321	0	873.216	0	-1e10	8	-1e10	8	-1E+10	1	-1E+10	1	-1E+10	1	-1E+10	1	-1E+10	1	-1E+10	1
4902554	35	C	01/21/2022	04:00	-136.217	49.495	0	887.70	0	3.2530	0	34.3210	0	27.325	0	878.252	0	-1e10	8	-1e10	8	-1E+10	1	-1E+10	1	-1E+10	1	-1E+10	1	-1E+10	1	-1E+10	1
4902554	35	C	01/21/2022	04:00	-136.217	49.495	0	892.90	0	3.2470	0	34.3220	0	27.327	0	883.385	0	-1e10	8	-1e10	8	-1E+10	1	-1E+10	1	-1E+10	1	-1E+10	1	-1E+10	1	-1E+10	1
4902554	35	C	01/21/2022	04:00	-136.217	49.495	0	898.10	0	3.2370	0	34.3240	0	27.329	0	888.519	0	-1e10	8	-1e10	8	-1E+10	1	-1E+10	1	-1E+10	1	-1E+10	1	-1E+10	1	-1E+10	1
4902554	35	C	01/21/2022	04:00	-136.217	49.495	0	902.90	0	3.2240	0	34.3270	0	27.333	0	893.257	0	-1e10	8	-1e10	8	-1E+10	1	-1E+10	1	-1E+10	1	-1E+10	1	-1E+10	1	-1E+10	1
4902554	35	C	01/21/2022	04:00	-136.217	49.495	0	907.80	0	3.2060	0	34.3300	0	27.337	0	898.095	0	-1e10	8	-1e10	8	-1E+10	1	-1E+10	1	-1E+10	1	-1E+10	1	-1E+10	1	-1E+10	1
4902554	35	C	01/21/2022	04:00	-136.217	49.495	0	913.10	0	3.1890	0	34.3340	0	27.342	0	903.326	0	-1e10	8	-1e10	8	-1E+10	1	-1E+10	1	-1E+10	1	-1E+10	1	-1E+10	1	-1E+10	1
4902554	35	C	01/21/2022	04:00	-136.217	49.495	0	918.00	0	3.1790	0	34.3360	0	27.344	0	908.163	0	-1e10	8	-1e10	8	-1E+10	1	-1E+10	1	-1E+10	1	-1E+10	1	-1E+10	1	-1E+10	1
4902554	35	C	01/21/2022	04:00	-136.217	49.495	0	922.90	0	3.1720	0	34.3380	0	27.347	0	913.000	0	-1e10	8	-1e10	8	-1E+10	1	-1E+10	1	-1E+10	1	-1E+10	1	-1E+10	1	-1E+10	1
4902554	35	C	01/21/2022	04:00	-136.217	49.495	0	928.00	0	3.1560	0	34.3410	0	27.351	0	918.034	0	-1e10	8	-1e10	8	-1E+10	1	-1E+10	1	-1E+10	1	-1E+10	1	-1E+10	1	-1E+10	1
4902554	35	C	01/21/2022	04:00	-136.217	49.495	0	932.70	0	3.1400	0	34.3440	0	27.354	0	922.673	0	-1e10	8	-1e10	8	-1E+10	1	-1E+10	1	-1E+10	1	-1E+10	1	-1E+10	1	-1E+10	1
4902554	35	C	01/21/2022	04:00	-136.217	49.495	0	937.90	0	3.1300	0	34.3470	0	27.358	0	927.806	0	-1e10	8	-1e10	8	-1E+10	1	-1E+10	1	-1E+10	1	-1E+10	1	-1E+10	1	-1E+10	1
4902554	35	C	01/21/2022	04:00	-136.217	49.495	0	943.30	0	3.1230	0	34.3480	0	27.359	0	933.136	0	-1e10	8	-1e10	8	-1E+10	1	-1E+10	1	-1E+10	1	-1E+10	1	-1E+10	1	-1E+10	1
4902554	35	C	01/21/2022	04:00	-136.217	49.495	0	948.20	0	3.1170	0	34.3490	0	27.361	0	937.972	0	-1e10	8	-1e10	8	-1E+10	1	-1E+10	1	-1E+10	1	-1E+10	1	-1E+10	1	-1E+10	1
4902554	35	C	01/21/2022	04:00	-136.217	49.495	0	953.10	0	3.1120	0	34.3510	0	27.363	0	942.808	0	-1e10	8	-1e10	8	-1E+10	1	-1E+10	1	-1E+10	1	-1E+10	1	-1E+10	1	-1E+10	1
4902554	35	C	01/21/2022	04:00	-136.217	49.495	0	958.00	0	3.1060	0	34.3520	0	27.364	0	947.644	0	-1e10	8	-1e10	8	-1E+10	1	-1E+10	1	-1E+10	1	-1E+10	1	-1E+10	1	-1E+10	1
4902554	35	C	01/21/2022	04:00	-136.217	49.495	0	962.80	0	3.1030	0	34.3520	0	27.364	0	952.381	0	-1e10	8	-1e10	8	-1E+10	1	-1E+10	1	-1E+10	1	-1E+10	1	-1E+10	1	-1E+10	1
4902554	35	C	01/21/2022	04:00	-136.217	49.495	0	967.70	0	3.0970	0	34.3540	0	27.367	0	957.217	0	-1e10	8	-1e10	8	-1E+10	1	-1E+10	1	-1E+10	1	-1E+10	1	-1E+10	1	-1E+10	1
4902554	35	C	01/21/2022	04:00	-136.217	49.495	0	972.70	0	3.0910	0	34.3550	0	27.368	0	962.152	0	-1e10	8	-1e10	8	-1E+10	1	-1E+10	1	-1E+10	1	-1E+10	1	-1E+10	1	-1E+10	1
4902554	35	C	01/21/2022	04:00	-136.217	49.495	0	977.60	0	3.0850	0	34.3560	0	27.369	0	966.987	0	-1e10	8	-1e10	8	-1E+10	1	-1E+10	1	-1E+10	1	-1E+10	1	-1E+10	1	-1E+10	1
4902554	35	C	01/21/2022	04:00	-136.217	49.495	0	982.50	0	3.0810	0	34.3570	0	27.371	0	971.823	0	-1e10	8	-1e10	8	-1E+10	1	-1E+10	1	-1E+10	1	-1E+10	1	-1E+10	1	-1E+10	1
4902554	35	C	01/21/2022	04:00	-136.217	49.495	0	987.90	0	3.0720	0	34.3590	0	27.373	0	977.151	0	-1e10	8	-1e10	8	-1E+10	1	-1E+10	1	-1E+10	1	-1E+10	1	-1E+10	1	-1E+10	1
4902554	35	C	01/21/2022	04:00	-136.217	49.495	0	993.40	0	3.0620	0	34.3610	0	27.376	0	982.579	0	-1e10	8	-1e10	8	-1E+10	1	-1E+10	1	-1E+10	1	-1E+10	1	-1E+10	1	-1E+10	1
4902554	35	C	01/21/2022	04:00	-136.217	49.495	0	998.40	0	3.0590	0	34.3610	0	27.376	0	987.512	0	-1e10	8	-1e10	8	-1E+10	1	-1E+10	1	-1E+10	1	-1E+10	1	-1E+10	1	-1E+10	1
4902554	35	C	01/21/2022	04:00	-136.217	49.495	0	1005.80	0	3.0490	0	34.3640	0	27.379	0	994.814	0	-1e10	8	-1e10	8	-1E+10	1	-1E+10	1	-1E+10	1	-1E+10	1	-1E+10	1	-1E+10	1
4902554	35	C	01/21/2022	04:00	-136.217	49.495	0	1015.70	0	3.0350	0	34.3670	0	27.383	0	1004.582	0	-1e10	8	-1e10	8	-1E+10	1	-1E+10	1	-1E+10	1	-1E+10	1	-1E+10	1	-1E+10	1
4902554	35	C	01/21/2022	04:00	-136.217	49.495	0	1025.70	0	3.0230	0	34.3700	0	27.386	0	1014.449	0	-1e10	8	-1e10	8	-1E+10	1	-1E+10	1	-1E+10	1	-1E+10	1	-1E+10	1	-1E+10	1
4902554	35	C	01/21/2022	04:00	-136.217	49.495	0	1035.50	0	3.0130	0	34.3730	0	27.390	0	1024.117	0	-1e10	8	-1e10	8	-1E+10	1	-1E+10	1	-1E+10	1	-1E+10	1	-1E+10	1	-1E+10	1
4902554	35	C	01/21/2022	04:00	-136.217	49.495	0	1045.40	0	2.9940	0	34.3760	0	27.394	0	1033.884	0	-1e10	8	-1e10	8	-1E+10	1	-1E+10	1	-1E+10	1	-1E+10	1	-1E+10	1	-1E+10	1
4902554	35	C	01/21/2022	04:00	-136.217	49.495	0	1055.10	0	2.9750	0	34.3800	0	27.399	0	1043.453	0	-1e10	8	-1e10	8	-1E+10	1	-1E+10	1	-1E+10	1	-1E+10	1	-1E+10	1	-1E+10	1
4902554	35	C	01/21/2022	04:00	-136.217	49.495	0	1065.30	0	2.9550	0	34.3850	0	27.405	0	1053.515	0	-1e10	8	-1e10	8	-1E+10	1	-1E+10	1	-1E+10	1	-1E+10	1	-1E+10	1	-1E+10	1
4902554	35	C	01/21/2022	04:00	-136.217	49.495	0	1075.40	0	2.9330	0	34.3880	0	27.409	0	1063.478	0	-1e10	8	-1e10	8	-1E+10	1	-1E+10	1	-1E+10	1	-1E+10	1	-1E+10	1	-1E+10	1
4902554	35	C	01/21/2022	04:00	-136.217	49.495	0	1085.30	0	2.9140	0	34.3910	0	27.413	0	1073.242	0	-1e10	8	-1e10	8	-1E+10	1	-1E+10	1	-1E+10	1	-1E+10	1	-1E+10	1	-1E+10	1
4902554	35	C	01/21/2022	04:00	-136.217	49.495	0	1095.60	0	2.8930	0	34.3950	0	27.418	0	1083.401	0	-1e10	8	-1e10	8	-1E+10	1	-1E+10	1	-1E+10	1	-1E+10	1	-1E+10	1	-1E+10	1
4902554	35	C	01/21/2022	04:00	-136.217	49.495	0	1105.40	0	2.8650	0	34.4000	0	27.425	0	1093.067	0	-1e10	8	-1e10	8	-1E+10	1	-1E+10	1	-1E+10	1	-1E+10	1	-1E+10	1	-1E+10	1
4902554	35	C	01/21/2022	04:00	-136.217	49.495	0	1115.40	0	2.8440	0	34.4040	0	27.430	0	1102.929	0	-1e10	8	-1e10	8	-1E+10	1	-1E+10	1	-1E+10	1	-1E+10	1	-1E+10	1	-1E+10	1
4902554	35	C	01/21/2022	04:00	-136.217	49.495	0	1126.00	0	2.8230	0	34.4080	0	27.435	0	1113.382	0	-1e10	8	-1e10	8	-1E+10	1	-1E+10	1	-1E+10	1	-1E+10	1	-1E+10	1	-1E+10	1
4902554	35	C	01/21/2022	04:00	-136.217	49.495	0	1135.30	0	2.8110	0	34.4100	0	27.438	0	1122.553	0	-1e10	8	-1e10	8	-1E+10	1	-1E+10	1	-1E+10	1	-1E+10	1	-1E+10	1	-1E+10	1
4902554	35	C	01/21/2022	04:00	-136.217	49.495	0	1145.30	0	2.7990	0	34.4120	0	27.441	0	1132.414	0	-1e10	8	-1e10	8	-1E+10	1	-1E+10	1	-1E+10	1	-1E+10	1	-1E+10	1	-1E+10	1
4902554	35	C	01/21/2022	04:00	-136.217	49.495	0	1155.60	0	2.7760	0	34.4170	0	27.447	0	1142.570	0	-1e10	8	-1e10	8	-1E+10	1	-1E+10	1	-1E+10	1	-1E+10	1	-1E+10	1	-1E+10	1
4902554	35	C	01/21/2022	04:00	-136.217	49.495	0	1165.50	0	2.7580	0	34.4200	0	27.451	0	1152.331	0	-1e10	8	-1e10	8	-1E+10	1	-1E+10	1	-1E+10	1	-1E+10	1	-1E+10	1	-1E+10	1
4902554	35	C	01/21/2022	04:00	-136.217	49.495	0	1175.30	0	2.7460	0	34.4220	0	27.453	0	1161.994	0	-1e10	8	-1e10	8	-1E+10	1	-1E+10	1	-1E+10	1	-1E+10	1	-1E+10	1	-1E+10	1
4902554	35	C	01/21/2022	04:00	-136.217	49.495	0	1185.50	0	2.7270	0	34.4260	0	27.458	0	1172.050	0	-1e10	8	-1e10	8	-1E+10	1	-1E+10	1	-1E+10	1	-1E+10	1	-1E+10	1	-1E+10	1
4902554	35	C	01/21/2022	04:00	-136.217	49.495	0	1195.50	0	2.7140	0	34.4290	0	27.462	0	1181.908	0	-1e10	8	-1e10	8	-1E+10	1	-1E+10	1	-1E+10	1	-1E+10	1	-1E+10	1	-1E+10	1
4902554	35	C	01/21/2022	04:00	-136.217	49.495	0	1205.50	0	2.7020	0	34.4310	0	27.465	0	1191.766	0	-1e10	8	-1e10	8	-1E+10	1	-1E+10	1	-1E+10	1	-1E+10	1	-1E+10	1	-1E+10	1
4902554	35	C	01/21/2022	04:00	-136.217	49.495	0	1215.30	0	2.6950	0	34.4330	0	27.467	0	1201.427	0	-1e10	8	-1e10	8	-1E+10	1	-1E+10	1	-1E+10	1	-1E+10	1	-1E+10	1	-1E+10	1
4902554	35	C	01/21/2022	04:00	-136.217	49.495	0	1225.60	0	2.6830	0	34.4350	0	27.470	0	1211.579	0	-1e10	8	-1e10	8	-1E+10	1	-1E+10	1	-1E+10	1	-1E+10	1	-1E+10	1	-1E+10	1
4902554	35	C	01/21/2022	04:00	-136.217	49.495	0	1235.60	0	2.6780	0	34.4360	0	27.471	0	1221.436	0	-1e10	8	-1e10	8	-1E+10	1	-1E+10	1	-1E+10	1	-1E+10	1	-1E+10	1	-1E+10	1
4902554	35	C	01/21/2022	04:00	-136.217	49.495	0	1245.40	0	2.6670	0	34.4380	0	27.473	0	1231.095	0	-1e10	8	-1e10	8	-1E+10	1	-1E+10	1	-1E+10	1	-1E+10	1	-1E+10	1	-1E+10	1
4902554	35	C	01/21/2022	04:00	-136.217	49.495	0	1255.60	0	2.6500	0	34.4420	0	27.478	0	1241.148	0	-1e10	8	-1e10	8	-1E+10	1	-1E+10	1	-1E+10	1	-1E+10	1	-1E+10	1	-1E+10	1
4902554	35	C	01/21/2022	04:00	-136.217	49.495	0	1265.50	0	2.6400	0	34.4430	0	27.480	0	1250.904	0	-1e10	8	-1e10	8	-1E+10	1	-1E+10	1	-1E+10	1	-1E+10	1	-1E+10	1	-1E+10	1
4902554	35	C	01/21/2022	04:00	-136.217	49.495	0	1275.50	0	2.6250	0	34.4470	0	27.484	0	1260.759	0	-1e10	8	-1e10	8	-1E+10	1	-1E+10	1	-1E+10	1	-1E+10	1	-1E+10	1	-1E+10	1
4902554	35	C	01/21/2022	04:00	-136.217	49.495	0	1285.80	0	2.6110	0	34.4490	0	27.487	0	1270.909	0	-1e10	8	-1e10	8	-1E+10	1	-1E+10	1	-1E+10	1	-1E+10	1	-1E+10	1	-1E+10	1
4902554	35	C	01/21/2022	04:00	-136.217	49.495	0	1295.70	0	2.6060	0	34.4500	0	27.489	0	1280.664	0	-1e10	8	-1e10	8	-1E+10	1	-1E+10	1	-1E+10	1	-1E+10	1	-1E+10	1	-1E+10	1
4902554	35	C	01/21/2022	04:00	-136.217	49.495	0	1305.50	0	2.5970	0	34.4520	0	27.491	0	1290.321	0	-1e10	8	-1e10	8	-1E+10	1	-1E+10	1	-1E+10	1	-1E+10	1	-1E+10	1	-1E+10	1
4902554	35	C	01/21/2022	04:00	-136.217	49.495	0	1315.20	0	2.5890	0	34.4540	0	27.493	0	1299.878	0	-1e10	8	-1e10	8	-1E+10	1	-1E+10	1	-1E+10	1	-1E+10	1	-1E+10	1	-1E+10	1
4902554	35	C	01/21/2022	04:00	-136.217	49.495	0	1325.10	0	2.5800	0	34.4560	0	27.496	0	1309.632	0	-1e10	8	-1e10	8	-1E+10	1	-1E+10	1	-1E+10	1	-1E+10	1	-1E+10	1	-1E+10	1
4902554	35	C	01/21/2022	04:00	-136.217	49.495	0	1335.30	0	2.5720	0	34.4570	0	27.497	0	1319.681	0	-1e10	8	-1e10	8	-1E+10	1	-1E+10	1	-1E+10	1	-1E+10	1	-1E+10	1	-1E+10	1
4902554	35	C	01/21/2022	04:00	-136.217	49.495	0	1345.60	0	2.5660	0	34.4590	0	27.499	0	1329.828	0	-1e10	8	-1e10	8	-1E+10	1	-1E+10	1	-1E+10	1	-1E+10	1	-1E+10	1	-1E+10	1
4902554	35	C	01/21/2022	04:00	-136.217	49.495	0	1355.40	0	2.5530	0	34.4610	0	27.502	0	1339.482	0	-1e10	8	-1e10	8	-1E+10	1	-1E+10	1	-1E+10	1	-1E+10	1	-1E+10	1	-1E+10	1
4902554	35	C	01/21/2022	04:00	-136.217	49.495	0	1365.20	0	2.5390	0	34.4640	0	27.506	0	1349.135	0	-1e10	8	-1e10	8	-1E+10	1	-1E+10	1	-1E+10	1	-1E+10	1	-1E+10	1	-1E+10	1
4902554	35	C	01/21/2022	04:00	-136.217	49.495	0	1375.20	0	2.5280	0	34.4660	0	27.508	0	1358.985	0	-1e10	8	-1e10	8	-1E+10	1	-1E+10	1	-1E+10	1	-1E+10	1	-1E+10	1	-1E+10	1
4902554	35	C	01/21/2022	04:00	-136.217	49.495	0	1385.30	0	2.5110	0	34.4690	0	27.512	0	1368.934	0	-1e10	8	-1e10	8	-1E+10	1	-1E+10	1	-1E+10	1	-1E+10	1	-1E+10	1	-1E+10	1
4902554	35	C	01/21/2022	04:00	-136.217	49.495	0	1395.30	0	2.5020	0	34.4710	0	27.515	0	1378.783	0	-1e10	8	-1e10	8	-1E+10	1	-1E+10	1	-1E+10	1	-1E+10	1	-1E+10	1	-1E+10	1
4902554	35	C	01/21/2022	04:00	-136.217	49.495	0	1405.20	0	2.4900	0	34.4730	0	27.517	0	1388.533	0	-1e10	8	-1e10	8	-1E+10	1	-1E+10	1	-1E+10	1	-1E+10	1	-1E+10	1	-1E+10	1
4902554	35	C	01/21/2022	04:00	-136.217	49.495	0	1415.30	0	2.4800	0	34.4750	0	27.520	0	1398.480	0	-1e10	8	-1e10	8	-1E+10	1	-1E+10	1	-1E+10	1	-1E+10	1	-1E+10	1	-1E+10	1
4902554	35	C	01/21/2022	04:00	-136.217	49.495	0	1425.30	0	2.4670	0	34.4780	0	27.523	0	1408.328	0	-1e10	8	-1e10	8	-1E+10	1	-1E+10	1	-1E+10	1	-1E+10	1	-1E+10	1	-1E+10	1
4902554	35	C	01/21/2022	04:00	-136.217	49.495	0	1435.20	0	2.4470	0	34.4820	0	27.528	0	1418.077	0	-1e10	8	-1e10	8	-1E+10	1	-1E+10	1	-1E+10	1	-1E+10	1	-1E+10	1	-1E+10	1
4902554	35	C	01/21/2022	04:00	-136.217	49.495	0	1445.60	0	2.4330	0	34.4850	0	27.532	0	1428.317	0	-1e10	8	-1e10	8	-1E+10	1	-1E+10	1	-1E+10	1	-1E+10	1	-1E+10	1	-1E+10	1
4902554	35	C	01/21/2022	04:00	-136.217	49.495	0	1455.60	0	2.4170	0	34.4880	0	27.536	0	1438.164	0	-1e10	8	-1e10	8	-1E+10	1	-1E+10	1	-1E+10	1	-1E+10	1	-1E+10	1	-1E+10	1
4902554	35	C	01/21/2022	04:00	-136.217	49.495	0	1465.60	0	2.4050	0	34.4900	0	27.538	0	1448.010	0	-1e10	8	-1e10	8	-1E+10	1	-1E+10	1	-1E+10	1	-1E+10	1	-1E+10	1	-1E+10	1
4902554	35	C	01/21/2022	04:00	-136.217	49.495	0	1475.50	0	2.3970	0	34.4920	0	27.541	0	1457.757	0	-1e10	8	-1e10	8	-1E+10	1	-1E+10	1	-1E+10	1	-1E+10	1	-1E+10	1	-1E+10	1
4902554	35	C	01/21/2022	04:00	-136.217	49.495	0	1485.30	0	2.3880	0	34.4940	0	27.543	0	1467.405	0	-1e10	8	-1e10	8	-1E+10	1	-1E+10	1	-1E+10	1	-1E+10	1	-1E+10	1	-1E+10	1
4902554	35	C	01/21/2022	04:00	-136.217	49.495	0	1495.60	0	2.3810	0	34.4950	0	27.544	0	1477.545	0	-1e10	8	-1e10	8	-1E+10	1	-1E+10	1	-1E+10	1	-1E+10	1	-1E+10	1	-1E+10	1
4902554	35	C	01/21/2022	04:00	-136.217	49.495	0	1505.40	0	2.3720	0	34.4970	0	27.547	0	1487.192	0	-1e10	8	-1e10	8	-1E+10	1	-1E+10	1	-1E+10	1	-1E+10	1	-1E+10	1	-1E+10	1
4902554	35	C	01/21/2022	04:00	-136.217	49.495	0	1515.20	0	2.3570	0	34.5000	0	27.551	0	1496.839	0	-1e10	8	-1e10	8	-1E+10	1	-1E+10	1	-1E+10	1	-1E+10	1	-1E+10	1	-1E+10	1
4902554	35	C	01/21/2022	04:00	-136.217	49.495	0	1525.60	0	2.3440	0	34.5030	0	27.554	0	1507.076	0	-1e10	8	-1e10	8	-1E+10	1	-1E+10	1	-1E+10	1	-1E+10	1	-1E+10	1	-1E+10	1
4902554	35	C	01/21/2022	04:00	-136.217	49.495	0	1535.60	0	2.3270	0	34.5060	0	27.558	0	1516.918	0	-1e10	8	-1e10	8	-1E+10	1	-1E+10	1	-1E+10	1	-1E+10	1	-1E+10	1	-1E+10	1
4902554	35	C	01/21/2022	04:00	-136.217	49.495	0	1545.20	0	2.3110	0	34.5090	0	27.562	0	1526.367	0	-1e10	8	-1e10	8	-1E+10	1	-1E+10	1	-1E+10	1	-1E+10	1	-1E+10	1	-1E+10	1
4902554	35	C	01/21/2022	04:00	-136.217	49.495	0	1555.30	0	2.3030	0	34.5110	0	27.564	0	1536.307	0	-1e10	8	-1e10	8	-1E+10	1	-1E+10	1	-1E+10	1	-1E+10	1	-1E+10	1	-1E+10	1
4902554	35	C	01/21/2022	04:00	-136.217	49.495	0	1565.60	0	2.2900	0	34.5130	0	27.567	0	1546.444	0	-1e10	8	-1e10	8	-1E+10	1	-1E+10	1	-1E+10	1	-1E+10	1	-1E+10	1	-1E+10	1
4902554	35	C	01/21/2022	04:00	-136.217	49.495	0	1575.80	0	2.2750	0	34.5160	0	27.570	0	1556.482	0	-1e10	8	-1e10	8	-1E+10	1	-1E+10	1	-1E+10	1	-1E+10	1	-1E+10	1	-1E+10	1
4902554	35	C	01/21/2022	04:00	-136.217	49.495	0	1585.40	0	2.2670	0	34.5180	0	27.573	0	1565.928	0	-1e10	8	-1e10	8	-1E+10	1	-1E+10	1	-1E+10	1	-1E+10	1	-1E+10	1	-1E+10	1
4902554	35	C	01/21/2022	04:00	-136.217	49.495	0	1595.20	0	2.2610	0	34.5190	0	27.574	0	1575.572	0	-1e10	8	-1e10	8	-1E+10	1	-1E+10	1	-1E+10	1	-1E+10	1	-1E+10	1	-1E+10	1
4902554	35	C	01/21/2022	04:00	-136.217	49.495	0	1605.10	0	2.2580	0	34.5200	0	27.575	0	1585.313	0	-1e10	8	-1e10	8	-1E+10	1	-1E+10	1	-1E+10	1	-1E+10	1	-1E+10	1	-1E+10	1
4902554	35	C	01/21/2022	04:00	-136.217	49.495	0	1615.40	0	2.2510	0	34.5210	0	27.577	0	1595.447	0	-1e10	8	-1e10	8	-1E+10	1	-1E+10	1	-1E+10	1	-1E+10	1	-1E+10	1	-1E+10	1
4902554	35	C	01/21/2022	04:00	-136.217	49.495	0	1625.50	0	2.2380	0	34.5240	0	27.580	0	1605.384	0	-1e10	8	-1e10	8	-1E+10	1	-1E+10	1	-1E+10	1	-1E+10	1	-1E+10	1	-1E+10	1
4902554	35	C	01/21/2022	04:00	-136.217	49.495	0	1635.30	0	2.2300	0	34.5250	0	27.582	0	1615.025	0	-1e10	8	-1e10	8	-1E+10	1	-1E+10	1	-1E+10	1	-1E+10	1	-1E+10	1	-1E+10	1
4902554	35	C	01/21/2022	04:00	-136.217	49.495	0	1645.40	0	2.2210	0	34.5270	0	27.584	0	1624.961	0	-1e10	8	-1e10	8	-1E+10	1	-1E+10	1	-1E+10	1	-1E+10	1	-1E+10	1	-1E+10	1
4902554	35	C	01/21/2022	04:00	-136.217	49.495	0	1655.70	0	2.2080	0	34.5300	0	27.587	0	1635.094	0	-1e10	8	-1e10	8	-1E+10	1	-1E+10	1	-1E+10	1	-1E+10	1	-1E+10	1	-1E+10	1
4902554	35	C	01/21/2022	04:00	-136.217	49.495	0	1665.40	0	2.2030	0	34.5310	0	27.589	0	1644.635	0	-1e10	8	-1e10	8	-1E+10	1	-1E+10	1	-1E+10	1	-1E+10	1	-1E+10	1	-1E+10	1
4902554	35	C	01/21/2022	04:00	-136.217	49.495	0	1675.10	0	2.1960	0	34.5320	0	27.590	0	1654.177	0	-1e10	8	-1e10	8	-1E+10	1	-1E+10	1	-1E+10	1	-1E+10	1	-1E+10	1	-1E+10	1
4902554	35	C	01/21/2022	04:00	-136.217	49.495	0	1685.10	0	2.1880	0	34.5340	0	27.592	0	1664.012	0	-1e10	8	-1e10	8	-1E+10	1	-1E+10	1	-1E+10	1	-1E+10	1	-1E+10	1	-1E+10	1
4902554	35	C	01/21/2022	04:00	-136.217	49.495	0	1695.20	0	2.1800	0	34.5360	0	27.595	0	1673.946	0	-1e10	8	-1e10	8	-1E+10	1	-1E+10	1	-1E+10	1	-1E+10	1	-1E+10	1	-1E+10	1
4902554	35	C	01/21/2022	04:00	-136.217	49.495	0	1705.20	0	2.1690	0	34.5380	0	27.597	0	1683.781	0	-1e10	8	-1e10	8	-1E+10	1	-1E+10	1	-1E+10	1	-1E+10	1	-1E+10	1	-1E+10	1
4902554	35	C	01/21/2022	04:00	-136.217	49.495	0	1715.10	0	2.1630	0	34.5390	0	27.599	0	1693.517	0	-1e10	8	-1e10	8	-1E+10	1	-1E+10	1	-1E+10	1	-1E+10	1	-1E+10	1	-1E+10	1
4902554	35	C	01/21/2022	04:00	-136.217	49.495	0	1725.00	0	2.1550	0	34.5410	0	27.601	0	1703.253	0	-1e10	8	-1e10	8	-1E+10	1	-1E+10	1	-1E+10	1	-1E+10	1	-1E+10	1	-1E+10	1
4902554	35	C	01/21/2022	04:00	-136.217	49.495	0	1735.00	0	2.1520	0	34.5420	0	27.602	0	1713.087	0	-1e10	8	-1e10	8	-1E+10	1	-1E+10	1	-1E+10	1	-1E+10	1	-1E+10	1	-1E+10	1
4902554	35	C	01/21/2022	04:00	-136.217	49.495	0	1745.40	0	2.1430	0	34.5430	0	27.604	0	1723.313	0	-1e10	8	-1e10	8	-1E+10	1	-1E+10	1	-1E+10	1	-1E+10	1	-1E+10	1	-1E+10	1
4902554	35	C	01/21/2022	04:00	-136.217	49.495	0	1755.70	0	2.1390	0	34.5440	0	27.605	0	1733.441	0	-1e10	8	-1e10	8	-1E+10	1	-1E+10	1	-1E+10	1	-1E+10	1	-1E+10	1	-1E+10	1
4902554	35	C	01/21/2022	04:00	-136.217	49.495	0	1765.60	0	2.1270	0	34.5470	0	27.608	0	1743.175	0	-1e10	8	-1e10	8	-1E+10	1	-1E+10	1	-1E+10	1	-1E+10	1	-1E+10	1	-1E+10	1
4902554	35	C	01/21/2022	04:00	-136.217	49.495	0	1775.40	0	2.1100	0	34.5500	0	27.612	0	1752.810	0	-1e10	8	-1e10	8	-1E+10	1	-1E+10	1	-1E+10	1	-1E+10	1	-1E+10	1	-1E+10	1
4902554	35	C	01/21/2022	04:00	-136.217	49.495	0	1785.30	0	2.0980	0	34.5520	0	27.615	0	1762.543	0	-1e10	8	-1e10	8	-1E+10	1	-1E+10	1	-1E+10	1	-1E+10	1	-1E+10	1	-1E+10	1
4902554	35	C	01/21/2022	04:00	-136.217	49.495	0	1795.30	0	2.0880	0	34.5540	0	27.617	0	1772.373	0	-1e10	8	-1e10	8	-1E+10	1	-1E+10	1	-1E+10	1	-1E+10	1	-1E+10	1	-1E+10	1
4902554	35	C	01/21/2022	04:00	-136.217	49.495	0	1805.50	0	2.0800	0	34.5560	0	27.619	0	1782.400	0	-1e10	8	-1e10	8	-1E+10	1	-1E+10	1	-1E+10	1	-1E+10	1	-1E+10	1	-1E+10	1
4902554	35	C	01/21/2022	04:00	-136.217	49.495	0	1815.50	0	2.0710	0	34.5580	0	27.622	0	1792.230	0	-1e10	8	-1e10	8	-1E+10	1	-1E+10	1	-1E+10	1	-1E+10	1	-1E+10	1	-1E+10	1
4902554	35	C	01/21/2022	04:00	-136.217	49.495	0	1825.10	0	2.0630	0	34.5590	0	27.623	0	1801.667	0	-1e10	8	-1e10	8	-1E+10	1	-1E+10	1	-1E+10	1	-1E+10	1	-1E+10	1	-1E+10	1
4902554	35	C	01/21/2022	04:00	-136.217	49.495	0	1835.40	0	2.0560	0	34.5600	0	27.624	0	1811.791	0	-1e10	8	-1e10	8	-1E+10	1	-1E+10	1	-1E+10	1	-1E+10	1	-1E+10	1	-1E+10	1
4902554	35	C	01/21/2022	04:00	-136.217	49.495	0	1845.70	0	2.0470	0	34.5620	0	27.627	0	1821.914	0	-1e10	8	-1e10	8	-1E+10	1	-1E+10	1	-1E+10	1	-1E+10	1	-1E+10	1	-1E+10	1
4902554	35	C	01/21/2022	04:00	-136.217	49.495	0	1855.60	0	2.0360	0	34.5640	0	27.629	0	1831.644	0	-1e10	8	-1e10	8	-1E+10	1	-1E+10	1	-1E+10	1	-1E+10	1	-1E+10	1	-1E+10	1
4902554	35	C	01/21/2022	04:00	-136.217	49.495	0	1865.90	0	2.0240	0	34.5670	0	27.633	0	1841.766	0	-1e10	8	-1e10	8	-1E+10	1	-1E+10	1	-1E+10	1	-1E+10	1	-1E+10	1	-1E+10	1
4902554	35	C	01/21/2022	04:00	-136.217	49.495	0	1875.50	0	2.0150	0	34.5690	0	27.635	0	1851.200	0	-1e10	8	-1e10	8	-1E+10	1	-1E+10	1	-1E+10	1	-1E+10	1	-1E+10	1	-1E+10	1
4902554	35	C	01/21/2022	04:00	-136.217	49.495	0	1885.50	0	2.0050	0	34.5710	0	27.638	0	1861.027	0	-1e10	8	-1e10	8	-1E+10	1	-1E+10	1	-1E+10	1	-1E+10	1	-1E+10	1	-1E+10	1
4902554	35	C	01/21/2022	04:00	-136.217	49.495	0	1895.70	0	1.9960	0	34.5720	0	27.639	0	1871.050	0	-1e10	8	-1e10	8	-1E+10	1	-1E+10	1	-1E+10	1	-1E+10	1	-1E+10	1	-1E+10	1
4902554	35	C	01/21/2022	04:00	-136.217	49.495	0	1905.70	0	1.9860	0	34.5740	0	27.642	0	1880.875	0	-1e10	8	-1e10	8	-1E+10	1	-1E+10	1	-1E+10	1	-1E+10	1	-1E+10	1	-1E+10	1
4902554	35	C	01/21/2022	04:00	-136.217	49.495	0	1915.50	0	1.9780	0	34.5760	0	27.644	0	1890.504	0	-1e10	8	-1e10	8	-1E+10	1	-1E+10	1	-1E+10	1	-1E+10	1	-1E+10	1	-1E+10	1
4902554	35	C	01/21/2022	04:00	-136.217	49.495	0	1925.20	0	1.9700	0	34.5770	0	27.645	0	1900.034	0	-1e10	8	-1e10	8	-1E+10	1	-1E+10	1	-1E+10	1	-1E+10	1	-1E+10	1	-1E+10	1
4902554	35	C	01/21/2022	04:00	-136.217	49.495	0	1935.20	0	1.9690	0	34.5780	0	27.646	0	1909.859	0	-1e10	8	-1e10	8	-1E+10	1	-1E+10	1	-1E+10	1	-1E+10	1	-1E+10	1	-1E+10	1
4902554	35	C	01/21/2022	04:00	-136.217	49.495	0	1945.40	0	1.9660	0	34.5790	0	27.647	0	1919.879	0	-1e10	8	-1e10	8	-1E+10	1	-1E+10	1	-1E+10	1	-1E+10	1	-1E+10	1	-1E+10	1
4902554	35	C	01/21/2022	04:00	-136.217	49.495	0	1955.80	0	1.9610	0	34.5800	0	27.649	0	1930.096	0	-1e10	8	-1e10	8	-1E+10	1	-1E+10	1	-1E+10	1	-1E+10	1	-1E+10	1	-1E+10	1
4902554	35	C	01/21/2022	04:00	-136.217	49.495	0	1965.80	0	1.9530	0	34.5810	0	27.650	0	1939.919	0	-1e10	8	-1e10	8	-1E+10	1	-1E+10	1	-1E+10	1	-1E+10	1	-1E+10	1	-1E+10	1
4902554	35	C	01/21/2022	04:00	-136.217	49.495	0	1975.80	0	1.9480	0	34.5820	0	27.651	0	1949.742	0	-1e10	8	-1e10	8	-1E+10	1	-1E+10	1	-1E+10	1	-1E+10	1	-1E+10	1	-1E+10	1
4902554	35	C	01/21/2022	04:00	-136.217	49.495	0	1985.60	0	1.9440	0	34.5830	0	27.652	0	1959.367	0	-1e10	8	-1e10	8	-1E+10	1	-1E+10	1	-1E+10	1	-1E+10	1	-1E+10	1	-1E+10	1
4902554	35	C	01/21/2022	04:00	-136.217	49.495	0	1995.40	0	1.9410	0	34.5840	0	27.654	0	1968.993	0	-1e10	8	-1e10	8	-1E+10	1	-1E+10	1	-1E+10	1	-1E+10	1	-1E+10	1	-1E+10	1
4902554	35	C	01/21/2022	04:00	-136.217	49.495	0	2005.50	0	1.9390	0	34.5850	0	27.655	0	1978.912	0	-1e10	8	-1e10	8	-1E+10	1	-1E+10	1	-1E+10	1	-1E+10	1	-1E+10	1	-1E+10	1
4902554	35	C	01/21/2022	04:00	-136.217	49.495	0	2013.90	0	1.9350	0	34.5850	0	27.655	0	1987.162	0	-1e10	8	-1e10	8	-1E+10	1	-1E+10	1	-1E+10	1	-1E+10	1	-1E+10	1	-1E+10	1
4902554	35	C	01/21/2022	04:00	-136.217	49.495	0																										
4902554	36	C	01/31/2022	08:56	-136.203	49.505	0	0.30	0	6.7390	0	32.3460	0	25.363	0	0.297	0	-1e10	8	-1e10	8	-1E+10	1	-1E+10	1	-1E+10	1	-1E+10	1	-1E+10	1	-1E+10	1
4902554	36	C	01/31/2022	08:56	-136.203	49.505	0	0.40	0	6.7390	0	32.3460	0	25.363	0	0.397	0	-1e10	1	-1e10	1	-1E+10	1	-1E+10	1	-1E+10	1	-1E+10	1	-1E+10	1	-1E+10	1
4902554	36	C	01/31/2022	08:56	-136.203	49.505	0	0.50	0	6.7390	0	32.3460	0	25.363	0	0.496	0	-1e10	1	-1e10	1	-1E+10	1	-1E+10	1	-1E+10	1	-1E+10	1	-1E+10	1	-1E+10	1
4902554	36	C	01/31/2022	08:56	-136.203	49.505	0	1.10	0	6.7390	0	32.3460	0	25.363	0	1.091	0	-1e10	8	-1e10	8	-1E+10	1	-1E+10	1	-1E+10	1	-1E+10	1	-1E+10	1	-1E+10	1
4902554	36	C	01/31/2022	08:56	-136.203	49.505	0	1.80	0	6.7390	0	32.3460	0	25.363	0	1.785	0	-1e10	8	-1e10	8	-1E+10	1	-1E+10	1	-1E+10	1	-1E+10	1	-1E+10	1	-1E+10	1
4902554	36	C	01/31/2022	08:56	-136.203	49.505	0	2.20	0	6.7390	0	32.3463	0	25.363	0	2.181	0	-1e10	8	-1e10	8	-1E+10	1	-1E+10	1	-1E+10	1	-1E+10	1	-1E+10	1	-1E+10	1
4902554	36	C	01/31/2022	08:56	-136.203	49.505	0	3.10	0	6.7390	0	32.3470	0	25.364	0	3.074	0	-1e10	8	-1e10	8	-1E+10	1	-1E+10	1	-1E+10	1	-1E+10	1	-1E+10	1	-1E+10	1
4902554	36	C	01/31/2022	08:56	-136.203	49.505	0	4.00	0	6.7400	0	32.3480	0	25.365	0	3.966	0	-1e10	8	-1e10	8	-1E+10	1	-1E+10	1	-1E+10	1	-1E+10	1	-1E+10	1	-1E+10	1
4902554	36	C	01/31/2022	08:56	-136.203	49.505	0	4.90	0	6.7410	0	32.3470	0	25.364	0	4.858	0	-1e10	8	-1e10	8	-1E+10	1	-1E+10	1	-1E+10	1	-1E+10	1	-1E+10	1	-1E+10	1
4902554	36	C	01/31/2022	08:56	-136.203	49.505	0	5.80	0	6.7420	0	32.3470	0	25.364	0	5.750	0	-1e10	8	-1e10	8	-1E+10	1	-1E+10	1	-1E+10	1	-1E+10	1	-1E+10	1	-1E+10	1
4902554	36	C	01/31/2022	08:56	-136.203	49.505	0	6.80	0	6.7420	0	32.3470	0	25.364	0	6.742	0	-1e10	8	-1e10	8	-1E+10	1	-1E+10	1	-1E+10	1	-1E+10	1	-1E+10	1	-1E+10	1
4902554	36	C	01/31/2022	08:56	-136.203	49.505	0	7.90	0	6.7420	0	32.3470	0	25.364	0	7.832	0	-1e10	8	-1e10	8	-1E+10	1	-1E+10	1	-1E+10	1	-1E+10	1	-1E+10	1	-1E+10	1
4902554	36	C	01/31/2022	08:56	-136.203	49.505	0	8.90	0	6.7430	0	32.3470	0	25.364	0	8.824	0	-1e10	8	-1e10	8	-1E+10	1	-1E+10	1	-1E+10	1	-1E+10	1	-1E+10	1	-1E+10	1
4902554	36	C	01/31/2022	08:56	-136.203	49.505	0	9.80	0	6.7430	0	32.3470	0	25.364	0	9.716	0	-1e10	8	-1e10	8	-1E+10	1	-1E+10	1	-1E+10	1	-1E+10	1	-1E+10	1	-1E+10	1
4902554	36	C	01/31/2022	08:56	-136.203	49.505	0	10.80	0	6.7430	0	32.3470	0	25.364	0	10.708	0	-1e10	8	-1e10	8	-1E+10	1	-1E+10	1	-1E+10	1	-1E+10	1	-1E+10	1	-1E+10	1
4902554	36	C	01/31/2022	08:56	-136.203	49.505	0	11.80	0	6.7420	0	32.3460	0	25.363	0	11.699	0	-1e10	8	-1e10	8	-1E+10	1	-1E+10	1	-1E+10	1	-1E+10	1	-1E+10	1	-1E+10	1
4902554	36	C	01/31/2022	08:56	-136.203	49.505	0	12.90	0	6.7420	0	32.3460	0	25.363	0	12.790	0	-1e10	8	-1e10	8	-1E+10	1	-1E+10	1	-1E+10	1	-1E+10	1	-1E+10	1	-1E+10	1
4902554	36	C	01/31/2022	08:56	-136.203	49.505	0	13.90	0	6.7420	0	32.3470	0	25.364	0	13.781	0	-1e10	8	-1e10	8	-1E+10	1	-1E+10	1	-1E+10	1	-1E+10	1	-1E+10	1	-1E+10	1
4902554	36	C	01/31/2022	08:56	-136.203	49.505	0	15.00	0	6.7430	0	32.3470	0	25.364	0	14.872	0	-1e10	8	-1e10	8	-1E+10	1	-1E+10	1	-1E+10	1	-1E+10	1	-1E+10	1	-1E+10	1
4902554	36	C	01/31/2022	08:56	-136.203	49.505	0	16.00	0	6.7420	0	32.3460	0	25.363	0	15.863	0	-1e10	8	-1e10	8	-1E+10	1	-1E+10	1	-1E+10	1	-1E+10	1	-1E+10	1	-1E+10	1
4902554	36	C	01/31/2022	08:56	-136.203	49.505	0	17.10	0	6.7420	0	32.3470	0	25.364	0	16.953	0	-1e10	8	-1e10	8	-1E+10	1	-1E+10	1	-1E+10	1	-1E+10	1	-1E+10	1	-1E+10	1
4902554	36	C	01/31/2022	08:56	-136.203	49.505	0	18.10	0	6.7420	0	32.3470	0	25.364	0	17.945	0	-1e10	8	-1e10	8	-1E+10	1	-1E+10	1	-1E+10	1	-1E+10	1	-1E+10	1	-1E+10	1
4902554	36	C	01/31/2022	08:56	-136.203	49.505	0	19.40	0	6.7440	0	32.3470	0	25.364	0	19.234	0	-1e10	8	-1e10	8	-1E+10	1	-1E+10	1	-1E+10	1	-1E+10	1	-1E+10	1	-1E+10	1
4902554	36	C	01/31/2022	08:56	-136.203	49.505	0	20.00	0	6.7440	0	32.3470	0	25.364	0	19.828	0	-1e10	8	-1e10	8	-1E+10	1	-1E+10	1	-1E+10	1	-1E+10	1	-1E+10	1	-1E+10	1
4902554	36	C	01/31/2022	08:56	-136.203	49.505	0	20.80	0	6.7450	0	32.3470	0	25.363	0	20.622	0	-1e10	8	-1e10	8	-1E+10	1	-1E+10	1	-1E+10	1	-1E+10	1	-1E+10	1	-1E+10	1
4902554	36	C	01/31/2022	08:56	-136.203	49.505	0	22.00	0	6.7440	0	32.3470	0	25.364	0	21.811	0	-1e10	8	-1e10	8	-1E+10	1	-1E+10	1	-1E+10	1	-1E+10	1	-1E+10	1	-1E+10	1
4902554	36	C	01/31/2022	08:56	-136.203	49.505	0	22.90	0	6.7440	0	32.3470	0	25.364	0	22.703	0	-1e10	8	-1e10	8	-1E+10	1	-1E+10	1	-1E+10	1	-1E+10	1	-1E+10	1	-1E+10	1
4902554	36	C	01/31/2022	08:56	-136.203	49.505	0	23.70	0	6.7420	0	32.3470	0	25.364	0	23.497	0	-1e10	8	-1e10	8	-1E+10	1	-1E+10	1	-1E+10	1	-1E+10	1	-1E+10	1	-1E+10	1
4902554	36	C	01/31/2022	08:56	-136.203	49.505	0	24.90	0	6.7420	0	32.3470	0	25.364	0	24.686	0	-1e10	8	-1e10	8	-1E+10	1	-1E+10	1	-1E+10	1	-1E+10	1	-1E+10	1	-1E+10	1
4902554	36	C	01/31/2022	08:56	-136.203	49.505	0	25.80	0	6.7420	0	32.3470	0	25.364	0	25.578	0	-1e10	8	-1e10	8	-1E+10	1	-1E+10	1	-1E+10	1	-1E+10	1	-1E+10	1	-1E+10	1
4902554	36	C	01/31/2022	08:56	-136.203	49.505	0	26.80	0	6.7430	0	32.3470	0	25.364	0	26.570	0	-1e10	8	-1e10	8	-1E+10	1	-1E+10	1	-1E+10	1	-1E+10	1	-1E+10	1	-1E+10	1
4902554	36	C	01/31/2022	08:56	-136.203	49.505	0	28.00	0	6.7420	0	32.3470	0	25.364	0	27.759	0	-1e10	8	-1e10	8	-1E+10	1	-1E+10	1	-1E+10	1	-1E+10	1	-1E+10	1	-1E+10	1
4902554	36	C	01/31/2022	08:56	-136.203	49.505	0	28.90	0	6.7430	0	32.3470	0	25.364	0	28.652	0	-1e10	8	-1e10	8	-1E+10	1	-1E+10	1	-1E+10	1	-1E+10	1	-1E+10	1	-1E+10	1
4902554	36	C	01/31/2022	08:56	-136.203	49.505	0	29.80	0	6.7430	0	32.3460	0	25.363	0	29.544	0	-1e10	8	-1e10	8	-1E+10	1	-1E+10	1	-1E+10	1	-1E+10	1	-1E+10	1	-1E+10	1
4902554	36	C	01/31/2022	08:56	-136.203	49.505	0	30.90	0	6.7430	0	32.3470	0	25.364	0	30.634	0	-1e10	8	-1e10	8	-1E+10	1	-1E+10	1	-1E+10	1	-1E+10	1	-1E+10	1	-1E+10	1
4902554	36	C	01/31/2022	08:56	-136.203	49.505	0	32.10	0	6.7420	0	32.3470	0	25.364	0	31.824	0	-1e10	8	-1e10	8	-1E+10	1	-1E+10	1	-1E+10	1	-1E+10	1	-1E+10	1	-1E+10	1
4902554	36	C	01/31/2022	08:56	-136.203	49.505	0	33.00	0	6.7430	0	32.3470	0	25.364	0	32.716	0	-1e10	8	-1e10	8	-1E+10	1	-1E+10	1	-1E+10	1	-1E+10	1	-1E+10	1	-1E+10	1
4902554	36	C	01/31/2022	08:56	-136.203	49.505	0	33.90	0	6.7440	0	32.3470	0	25.364	0	33.608	0	-1e10	8	-1e10	8	-1E+10	1	-1E+10	1	-1E+10	1	-1E+10	1	-1E+10	1	-1E+10	1
4902554	36	C	01/31/2022	08:56	-136.203	49.505	0	35.00	0	6.7440	0	32.3470	0	25.364	0	34.699	0	-1e10	8	-1e10	8	-1E+10	1	-1E+10	1	-1E+10	1	-1E+10	1	-1E+10	1	-1E+10	1
4902554	36	C	01/31/2022	08:56	-136.203	49.505	0	36.10	0	6.7450	0	32.3470	0	25.364	0	35.789	0	-1e10	8	-1e10	8	-1E+10	1	-1E+10	1	-1E+10	1	-1E+10	1	-1E+10	1	-1E+10	1
4902554	36	C	01/31/2022	08:56	-136.203	49.505	0	37.00	0	6.7450	0	32.3470	0	25.364	0	36.681	0	-1e10	8	-1e10	8	-1E+10	1	-1E+10	1	-1E+10	1	-1E+10	1	-1E+10	1	-1E+10	1
4902554	36	C	01/31/2022	08:56	-136.203	49.505	0	37.80	0	6.7450	0	32.3470	0	25.364	0	37.474	0	-1e10	8	-1e10	8	-1E+10	1	-1E+10	1	-1E+10	1	-1E+10	1	-1E+10	1	-1E+10	1
4902554	36	C	01/31/2022	08:56	-136.203	49.505	0	38.90	0	6.7460	0	32.3470	0	25.363	0	38.565	0	-1e10	8	-1e10	8	-1E+10	1	-1E+10	1	-1E+10	1	-1E+10	1	-1E+10	1	-1E+10	1
4902554	36	C	01/31/2022	08:56	-136.203	49.505	0	40.00	0	6.7460	0	32.3470	0	25.363	0	39.655	0	-1e10	8	-1e10	8	-1E+10	1	-1E+10	1	-1E+10	1	-1E+10	1	-1E+10	1	-1E+10	1
4902554	36	C	01/31/2022	08:56	-136.203	49.505	0	41.10	0	6.7460	0	32.3470	0	25.364	0	40.745	0	-1e10	8	-1e10	8	-1E+10	1	-1E+10	1	-1E+10	1	-1E+10	1	-1E+10	1	-1E+10	1
4902554	36	C	01/31/2022	08:56	-136.203	49.505	0	41.90	0	6.7470	0	32.3470	0	25.363	0	41.538	0	-1e10	8	-1e10	8	-1E+10	1	-1E+10	1	-1E+10	1	-1E+10	1	-1E+10	1	-1E+10	1
4902554	36	C	01/31/2022	08:56	-136.203	49.505	0	42.80	0	6.7460	0	32.3470	0	25.364	0	42.431	0	-1e10	8	-1e10	8	-1E+10	1	-1E+10	1	-1E+10	1	-1E+10	1	-1E+10	1	-1E+10	1
4902554	36	C	01/31/2022	08:56	-136.203	49.505	0	43.90	0	6.7450	0	32.3470	0	25.364	0	43.521	0	-1e10	8	-1e10	8	-1E+10	1	-1E+10	1	-1E+10	1	-1E+10	1	-1E+10	1	-1E+10	1
4902554	36	C	01/31/2022	08:56	-136.203	49.505	0	45.00	0	6.7460	0	32.3470	0	25.364	0	44.611	0	-1e10	8	-1e10	8	-1E+10	1	-1E+10	1	-1E+10	1	-1E+10	1	-1E+10	1	-1E+10	1
4902554	36	C	01/31/2022	08:56	-136.203	49.505	0	45.90	0	6.7470	0	32.3470	0	25.363	0	45.503	0	-1e10	8	-1e10	8	-1E+10	1	-1E+10	1	-1E+10	1	-1E+10	1	-1E+10	1	-1E+10	1
4902554	36	C	01/31/2022	08:56	-136.203	49.505	0	46.70	0	6.7460	0	32.3470	0	25.364	0	46.296	0	-1e10	8	-1e10	8	-1E+10	1	-1E+10	1	-1E+10	1	-1E+10	1	-1E+10	1	-1E+10	1
4902554	36	C	01/31/2022	08:56	-136.203	49.505	0	47.80	0	6.7460	0	32.3470	0	25.364	0	47.387	0	-1e10	8	-1e10	8	-1E+10	1	-1E+10	1	-1E+10	1	-1E+10	1	-1E+10	1	-1E+10	1
4902554	36	C	01/31/2022	08:56	-136.203	49.505	0	48.80	0	6.7470	0	32.3470	0	25.363	0	48.378	0	-1e10	8	-1e10	8	-1E+10	1	-1E+10	1	-1E+10	1	-1E+10	1	-1E+10	1	-1E+10	1
4902554	36	C	01/31/2022	08:56	-136.203	49.505	0	49.90	0	6.7460	0	32.3470	0	25.364	0	49.468	0	-1e10	8	-1e10	8	-1E+10	1	-1E+10	1	-1E+10	1	-1E+10	1	-1E+10	1	-1E+10	1
4902554	36	C	01/31/2022	08:56	-136.203	49.505	0	51.10	0	6.7470	0	32.3470	0	25.363	0	50.658	0	-1e10	8	-1e10	8	-1E+10	1	-1E+10	1	-1E+10	1	-1E+10	1	-1E+10	1	-1E+10	1
4902554	36	C	01/31/2022	08:56	-136.203	49.505	0	52.00	0	6.7470	0	32.3470	0	25.363	0	51.550	0	-1e10	8	-1e10	8	-1E+10	1	-1E+10	1	-1E+10	1	-1E+10	1	-1E+10	1	-1E+10	1
4902554	36	C	01/31/2022	08:56	-136.203	49.505	0	52.90	0	6.7470	0	32.3470	0	25.364	0	52.442	0	-1e10	8	-1e10	8	-1E+10	1	-1E+10	1	-1E+10	1	-1E+10	1	-1E+10	1	-1E+10	1
4902554	36	C	01/31/2022	08:56	-136.203	49.505	0	53.90	0	6.7470	0	32.3470	0	25.364	0	53.433	0	-1e10	8	-1e10	8	-1E+10	1	-1E+10	1	-1E+10	1	-1E+10	1	-1E+10	1	-1E+10	1
4902554	36	C	01/31/2022	08:56	-136.203	49.505	0	54.90	0	6.7470	0	32.3470	0	25.364	0	54.425	0	-1e10	8	-1e10	8	-1E+10	1	-1E+10	1	-1E+10	1	-1E+10	1	-1E+10	1	-1E+10	1
4902554	36	C	01/31/2022	08:56	-136.203	49.505	0	55.90	0	6.7470	0	32.3470	0	25.364	0	55.416	0	-1e10	8	-1e10	8	-1E+10	1	-1E+10	1	-1E+10	1	-1E+10	1	-1E+10	1	-1E+10	1
4902554	36	C	01/31/2022	08:56	-136.203	49.505	0	56.90	0	6.7470	0	32.3470	0	25.364	0	56.407	0	-1e10	8	-1e10	8	-1E+10	1	-1E+10	1	-1E+10	1	-1E+10	1	-1E+10	1	-1E+10	1
4902554	36	C	01/31/2022	08:56	-136.203	49.505	0	57.80	0	6.7480	0	32.3470	0	25.363	0	57.299	0	-1e10	8	-1e10	8	-1E+10	1	-1E+10	1	-1E+10	1	-1E+10	1	-1E+10	1	-1E+10	1
4902554	36	C	01/31/2022	08:56	-136.203	49.505	0	58.80	0	6.7470	0	32.3470	0	25.364	0	58.290	0	-1e10	8	-1e10	8	-1E+10	1	-1E+10	1	-1E+10	1	-1E+10	1	-1E+10	1	-1E+10	1
4902554	36	C	01/31/2022	08:56	-136.203	49.505	0	59.80	0	6.7480	0	32.3470	0	25.363	0	59.281	0	-1e10	8	-1e10	8	-1E+10	1	-1E+10	1	-1E+10	1	-1E+10	1	-1E+10	1	-1E+10	1
4902554	36	C	01/31/2022	08:56	-136.203	49.505	0	61.00	0	6.7480	0	32.3470	0	25.363	0	60.471	0	-1e10	8	-1e10	8	-1E+10	1	-1E+10	1	-1E+10	1	-1E+10	1	-1E+10	1	-1E+10	1
4902554	36	C	01/31/2022	08:56	-136.203	49.505	0	61.90	0	6.7480	0	32.3470	0	25.363	0	61.363	0	-1e10	8	-1e10	8	-1E+10	1	-1E+10	1	-1E+10	1	-1E+10	1	-1E+10	1	-1E+10	1
4902554	36	C	01/31/2022	08:56	-136.203	49.505	0	63.30	0	6.7480	0	32.3470	0	25.363	0	62.751	0	-1e10	8	-1e10	8	-1E+10	1	-1E+10	1	-1E+10	1	-1E+10	1	-1E+10	1	-1E+10	1
4902554	36	C	01/31/2022	08:56	-136.203	49.505	0	64.20	0	6.7480	0	32.3470	0	25.364	0	63.643	0	-1e10	8	-1e10	8	-1E+10	1	-1E+10	1	-1E+10	1	-1E+10	1	-1E+10	1	-1E+10	1
4902554	36	C	01/31/2022	08:56	-136.203	49.505	0	65.10	0	6.7480	0	32.3470	0	25.364	0	64.535	0	-1e10	8	-1e10	8	-1E+10	1	-1E+10	1	-1E+10	1	-1E+10	1	-1E+10	1	-1E+10	1
4902554	36	C	01/31/2022	08:56	-136.203	49.505	0	66.10	0	6.7480	0	32.3470	0	25.364	0	65.526	0	-1e10	8	-1e10	8	-1E+10	1	-1E+10	1	-1E+10	1	-1E+10	1	-1E+10	1	-1E+10	1
4902554	36	C	01/31/2022	08:56	-136.203	49.505	0	67.20	0	6.7480	0	32.3470	0	25.364	0	66.616	0	-1e10	8	-1e10	8	-1E+10	1	-1E+10	1	-1E+10	1	-1E+10	1	-1E+10	1	-1E+10	1
4902554	36	C	01/31/2022	08:56	-136.203	49.505	0	68.10	0	6.7480	0	32.3470	0	25.364	0	67.508	0	-1e10	8	-1e10	8	-1E+10	1	-1E+10	1	-1E+10	1	-1E+10	1	-1E+10	1	-1E+10	1
4902554	36	C	01/31/2022	08:56	-136.203	49.505	0	68.90	0	6.7480	0	32.3470	0	25.364	0	68.301	0	-1e10	8	-1e10	8	-1E+10	1	-1E+10	1	-1E+10	1	-1E+10	1	-1E+10	1	-1E+10	1
4902554	36	C	01/31/2022	08:56	-136.203	49.505	0	70.00	0	6.7490	0	32.3470	0	25.363	0	69.391	0	-1e10	8	-1e10	8	-1E+10	1	-1E+10	1	-1E+10	1	-1E+10	1	-1E+10	1	-1E+10	1
4902554	36	C	01/31/2022	08:56	-136.203	49.505	0	71.10	0	6.7490	0	32.3470	0	25.363	0	70.482	0	-1e10	8	-1e10	8	-1E+10	1	-1E+10	1	-1E+10	1	-1E+10	1	-1E+10	1	-1E+10	1
4902554	36	C	01/31/2022	08:56	-136.203	49.505	0	72.00	0	6.7490	0	32.3470	0	25.363	0	71.374	0	-1e10	8	-1e10	8	-1E+10	1	-1E+10	1	-1E+10	1	-1E+10	1	-1E+10	1	-1E+10	1
4902554	36	C	01/31/2022	08:56	-136.203	49.505	0	72.90	0	6.7490	0	32.3470	0	25.363	0	72.266	0	-1e10	8	-1e10	8	-1E+10	1	-1E+10	1	-1E+10	1	-1E+10	1	-1E+10	1	-1E+10	1
4902554	36	C	01/31/2022	08:56	-136.203	49.505	0	73.90	0	6.7500	0	32.3480	0	25.364	0	73.257	0	-1e10	8	-1e10	8	-1E+10	1	-1E+10	1	-1E+10	1	-1E+10	1	-1E+10	1	-1E+10	1
4902554	36	C	01/31/2022	08:56	-136.203	49.505	0	74.80	0	6.7500	0	32.3480	0	25.364	0	74.149	0	-1e10	8	-1e10	8	-1E+10	1	-1E+10	1	-1E+10	1	-1E+10	1	-1E+10	1	-1E+10	1
4902554	36	C	01/31/2022	08:56	-136.203	49.505	0	76.00	0	6.7500	0	32.3470	0	25.363	0	75.338	0	-1e10	8	-1e10	8	-1E+10	1	-1E+10	1	-1E+10	1	-1E+10	1	-1E+10	1	-1E+10	1
4902554	36	C	01/31/2022	08:56	-136.203	49.505	0	77.00	0	6.7500	0	32.3470	0	25.363	0	76.329	0	-1e10	8	-1e10	8	-1E+10	1	-1E+10	1	-1E+10	1	-1E+10	1	-1E+10	1	-1E+10	1
4902554	36	C	01/31/2022	08:56	-136.203	49.505	0	77.90	0	6.7500	0	32.3470	0	25.363	0	77.221	0	-1e10	8	-1e10	8	-1E+10	1	-1E+10	1	-1E+10	1	-1E+10	1	-1E+10	1	-1E+10	1
4902554	36	C	01/31/2022	08:56	-136.203	49.505	0	79.10	0	6.7500	0	32.3470	0	25.363	0	78.410	0	-1e10	8	-1e10	8	-1E+10	1	-1E+10	1	-1E+10	1	-1E+10	1	-1E+10	1	-1E+10	1
4902554	36	C	01/31/2022	08:56	-136.203	49.505	0	80.00	0	6.7500	0	32.3470	0	25.363	0	79.302	0	-1e10	8	-1e10	8	-1E+10	1	-1E+10	1	-1E+10	1	-1E+10	1	-1E+10	1	-1E+10	1
4902554	36	C	01/31/2022	08:56	-136.203	49.505	0	80.90	0	6.7500	0	32.3470	0	25.363	0	80.194	0	-1e10	8	-1e10	8	-1E+10	1	-1E+10	1	-1E+10	1	-1E+10	1	-1E+10	1	-1E+10	1
4902554	36	C	01/31/2022	08:56	-136.203	49.505	0	82.10	0	6.7500	0	32.3470	0	25.363	0	81.384	0	-1e10	8	-1e10	8	-1E+10	1	-1E+10	1	-1E+10	1	-1E+10	1	-1E+10	1	-1E+10	1
4902554	36	C	01/31/2022	08:56	-136.203	49.505	0	83.00	0	6.7510	0	32.3470	0	25.363	0	82.276	0	-1e10	8	-1e10	8	-1E+10	1	-1E+10	1	-1E+10	1	-1E+10	1	-1E+10	1	-1E+10	1
4902554	36	C	01/31/2022	08:56	-136.203	49.505	0	83.80	0	6.7510	0	32.3470	0	25.363	0	83.068	0	-1e10	8	-1e10	8	-1E+10	1	-1E+10	1	-1E+10	1	-1E+10	1	-1E+10	1	-1E+10	1
4902554	36	C	01/31/2022	08:56	-136.203	49.505	0	85.00	0	6.7510	0	32.3470	0	25.363	0	84.258	0	-1e10	8	-1e10	8	-1E+10	1	-1E+10	1	-1E+10	1	-1E+10	1	-1E+10	1	-1E+10	1
4902554	36	C	01/31/2022	08:56	-136.203	49.505	0	86.10	0	6.7510	0	32.3470	0	25.363	0	85.348	0	-1e10	8	-1e10	8	-1E+10	1	-1E+10	1	-1E+10	1	-1E+10	1	-1E+10	1	-1E+10	1
4902554	36	C	01/31/2022	08:56	-136.203	49.505	0	87.10	0	6.7510	0	32.3470	0	25.363	0	86.339	0	-1e10	8	-1e10	8	-1E+10	1	-1E+10	1	-1E+10	1	-1E+10	1	-1E+10	1	-1E+10	1
4902554	36	C	01/31/2022	08:56	-136.203	49.505	0	88.00	0	6.7510	0	32.3470	0	25.363	0	87.231	0	-1e10	8	-1e10	8	-1E+10	1	-1E+10	1	-1E+10	1	-1E+10	1	-1E+10	1	-1E+10	1
4902554	36	C	01/31/2022	08:56	-136.203	49.505	0	88.70	0	6.7510	0	32.3470	0	25.363	0	87.925	0	-1e10	8	-1e10	8	-1E+10	1	-1E+10	1	-1E+10	1	-1E+10	1	-1E+10	1	-1E+10	1
4902554	36	C	01/31/2022	08:56	-136.203	49.505	0	89.80	0	6.7510	0	32.3480	0	25.364	0	89.015	0	-1e10	8	-1e10	8	-1E+10	1	-1E+10	1	-1E+10	1	-1E+10	1	-1E+10	1	-1E+10	1
4902554	36	C	01/31/2022	08:56	-136.203	49.505	0	90.90	0	6.7510	0	32.3480	0	25.364	0	90.105	0	-1e10	8	-1e10	8	-1E+10	1	-1E+10	1	-1E+10	1	-1E+10	1	-1E+10	1	-1E+10	1
4902554	36	C	01/31/2022	08:56	-136.203	49.505	0	92.00	0	6.7510	0	32.3480	0	25.364	0	91.195	0	-1e10	8	-1e10	8	-1E+10	1	-1E+10	1	-1E+10	1	-1E+10	1	-1E+10	1	-1E+10	1
4902554	36	C	01/31/2022	08:56	-136.203	49.505	0	92.90	0	6.7480	0	32.3510	0	25.367	0	92.087	0	-1e10	8	-1e10	8	-1E+10	1	-1E+10	1	-1E+10	1	-1E+10	1	-1E+10	1	-1E+10	1
4902554	36	C	01/31/2022	08:56	-136.203	49.505	0	93.80	0	6.7470	0	32.3510	0	25.367	0	92.979	0	-1e10	8	-1e10	8	-1E+10	1	-1E+10	1	-1E+10	1	-1E+10	1	-1E+10	1	-1E+10	1
4902554	36	C	01/31/2022	08:56	-136.203	49.505	0	94.90	0	6.7460	0	32.3520	0	25.368	0	94.069	0	-1e10	8	-1e10	8	-1E+10	1	-1E+10	1	-1E+10	1	-1E+10	1	-1E+10	1	-1E+10	1
4902554	36	C	01/31/2022	08:56	-136.203	49.505	0	96.00	0	6.7460	0	32.3530	0	25.369	0	95.159	0	-1e10	8	-1e10	8	-1E+10	1	-1E+10	1	-1E+10	1	-1E+10	1	-1E+10	1	-1E+10	1
4902554	36	C	01/31/2022	08:56	-136.203	49.505	0	97.10	0	6.7460	0	32.3530	0	25.369	0	96.249	0	-1e10	8	-1e10	8	-1E+10	1	-1E+10	1	-1E+10	1	-1E+10	1	-1E+10	1	-1E+10	1
4902554	36	C	01/31/2022	08:56	-136.203	49.505	0	97.90	0	6.7460	0	32.3530	0	25.369	0	97.042	0	-1e10	8	-1e10	8	-1E+10	1	-1E+10	1	-1E+10	1	-1E+10	1	-1E+10	1	-1E+10	1
4902554	36	C	01/31/2022	08:56	-136.203	49.505	0	98.90	0	6.7450	0	32.3540	0	25.370	0	98.033	0	-1e10	8	-1e10	8	-1E+10	1	-1E+10	1	-1E+10	1	-1E+10	1	-1E+10	1	-1E+10	1
4902554	36	C	01/31/2022	08:56	-136.203	49.505	0	100.30	0	6.7420	0	32.3560	0	25.372	0	99.420	0	-1e10	8	-1e10	8	-1E+10	1	-1E+10	1	-1E+10	1	-1E+10	1	-1E+10	1	-1E+10	1
4902554	36	C	01/31/2022	08:56	-136.203	49.505	0	101.00	0	6.7270	0	32.3670	0	25.382	0	100.114	0	-1e10	8	-1e10	8	-1E+10	1	-1E+10	1	-1E+10	1	-1E+10	1	-1E+10	1	-1E+10	1
4902554	36	C	01/31/2022	08:56	-136.203	49.505	0	102.00	0	6.6450	0	32.4200	0	25.435	0	101.105	0	-1e10	8	-1e10	8	-1E+10	1	-1E+10	1	-1E+10	1	-1E+10	1	-1E+10	1	-1E+10	1
4902554	36	C	01/31/2022	08:56	-136.203	49.505	0	103.10	0	6.3370	0	32.6170	0	25.629	0	102.195	0	-1e10	8	-1e10	8	-1E+10	1	-1E+10	1	-1E+10	1	-1E+10	1	-1E+10	1	-1E+10	1
4902554	36	C	01/31/2022	08:56	-136.203	49.505	0	104.20	0	6.2550	0	32.6790	0	25.689	0	103.285	0	-1e10	8	-1e10	8	-1E+10	1	-1E+10	1	-1E+10	1	-1E+10	1	-1E+10	1	-1E+10	1
4902554	36	C	01/31/2022	08:56	-136.203	49.505	0	104.80	0	6.2250	0	32.7010	0	25.710	0	103.880	0	-1e10	8	-1e10	8	-1E+10	1	-1E+10	1	-1E+10	1	-1E+10	1	-1E+10	1	-1E+10	1
4902554	36	C	01/31/2022	08:56	-136.203	49.505	0	105.80	0	6.1790	0	32.7420	0	25.748	0	104.871	0	-1e10	8	-1e10	8	-1E+10	1	-1E+10	1	-1E+10	1	-1E+10	1	-1E+10	1	-1E+10	1
4902554	36	C	01/31/2022	08:56	-136.203	49.505	0	106.80	0	6.1320	0	32.7930	0	25.794	0	105.862	0	-1e10	8	-1e10	8	-1E+10	1	-1E+10	1	-1E+10	1	-1E+10	1	-1E+10	1	-1E+10	1
4902554	36	C	01/31/2022	08:56	-136.203	49.505	0	108.00	0	6.1280	0	32.7990	0	25.799	0	107.051	0	-1e10	8	-1e10	8	-1E+10	1	-1E+10	1	-1E+10	1	-1E+10	1	-1E+10	1	-1E+10	1
4902554	36	C	01/31/2022	08:56	-136.203	49.505	0	109.10	0	6.1250	0	32.8030	0	25.803	0	108.141	0	-1e10	8	-1e10	8	-1E+10	1	-1E+10	1	-1E+10	1	-1E+10	1	-1E+10	1	-1E+10	1
4902554	36	C	01/31/2022	08:56	-136.203	49.505	0	110.00	0	6.1250	0	32.8030	0	25.803	0	109.033	0	-1e10	8	-1e10	8	-1E+10	1	-1E+10	1	-1E+10	1	-1E+10	1	-1E+10	1	-1E+10	1
4902554	36	C	01/31/2022	08:56	-136.203	49.505	0	110.70	0	6.1210	0	32.8060	0	25.806	0	109.727	0	-1e10	8	-1e10	8	-1E+10	1	-1E+10	1	-1E+10	1	-1E+10	1	-1E+10	1	-1E+10	1
4902554	36	C	01/31/2022	08:56	-136.203	49.505	0	111.80	0	6.1170	0	32.8090	0	25.808	0	110.817	0	-1e10	8	-1e10	8	-1E+10	1	-1E+10	1	-1E+10	1	-1E+10	1	-1E+10	1	-1E+10	1
4902554	36	C	01/31/2022	08:56	-136.203	49.505	0	113.00	0	6.0800	0	32.8640	0	25.856	0	112.006	0	-1e10	8	-1e10	8	-1E+10	1	-1E+10	1	-1E+10	1	-1E+10	1	-1E+10	1	-1E+10	1
4902554	36	C	01/31/2022	08:56	-136.203	49.505	0	114.10	0	6.0420	0	32.9680	0	25.943	0	113.096	0	-1e10	8	-1e10	8	-1E+10	1	-1E+10	1	-1E+10	1	-1E+10	1	-1E+10	1	-1E+10	1
4902554	36	C	01/31/2022	08:56	-136.203	49.505	0	114.80	0	6.0460	0	32.9980	0	25.967	0	113.789	0	-1e10	8	-1e10	8	-1E+10	1	-1E+10	1	-1E+10	1	-1E+10	1	-1E+10	1	-1E+10	1
4902554	36	C	01/31/2022	08:56	-136.203	49.505	0	116.00	0	6.0540	0	33.0410	0	26.000	0	114.978	0	-1e10	8	-1e10	8	-1E+10	1	-1E+10	1	-1E+10	1	-1E+10	1	-1E+10	1	-1E+10	1
4902554	36	C	01/31/2022	08:56	-136.203	49.505	0	117.10	0	6.0820	0	33.0910	0	26.036	0	116.068	0	-1e10	8	-1e10	8	-1E+10	1	-1E+10	1	-1E+10	1	-1E+10	1	-1E+10	1	-1E+10	1
4902554	36	C	01/31/2022	08:56	-136.203	49.505	0	117.90	0	6.0900	0	33.1100	0	26.050	0	116.861	0	-1e10	8	-1e10	8	-1E+10	1	-1E+10	1	-1E+10	1	-1E+10	1	-1E+10	1	-1E+10	1
4902554	36	C	01/31/2022	08:56	-136.203	49.505	0	119.00	0	6.0990	0	33.1820	0	26.105	0	117.951	0	-1e10	8	-1e10	8	-1E+10	1	-1E+10	1	-1E+10	1	-1E+10	1	-1E+10	1	-1E+10	1
4902554	36	C	01/31/2022	08:56	-136.203	49.505	0	120.20	0	6.0950	0	33.2080	0	26.126	0	119.140	0	-1e10	8	-1e10	8	-1E+10	1	-1E+10	1	-1E+10	1	-1E+10	1	-1E+10	1	-1E+10	1
4902554	36	C	01/31/2022	08:56	-136.203	49.505	0	121.10	0	6.0960	0	33.2260	0	26.140	0	120.032	0	-1e10	8	-1e10	8	-1E+10	1	-1E+10	1	-1E+10	1	-1E+10	1	-1E+10	1	-1E+10	1
4902554	36	C	01/31/2022	08:56	-136.203	49.505	0	121.90	0	6.0980	0	33.2340	0	26.147	0	120.825	0	-1e10	8	-1e10	8	-1E+10	1	-1E+10	1	-1E+10	1	-1E+10	1	-1E+10	1	-1E+10	1
4902554	36	C	01/31/2022	08:56	-136.203	49.505	0	122.70	0	6.0980	0	33.2410	0	26.152	0	121.617	0	-1e10	8	-1e10	8	-1E+10	1	-1E+10	1	-1E+10	1	-1E+10	1	-1E+10	1	-1E+10	1
4902554	36	C	01/31/2022	08:56	-136.203	49.505	0	123.90	0	6.0990	0	33.2490	0	26.158	0	122.807	0	-1e10	8	-1e10	8	-1E+10	1	-1E+10	1	-1E+10	1	-1E+10	1	-1E+10	1	-1E+10	1
4902554	36	C	01/31/2022	08:56	-136.203	49.505	0	125.20	0	6.1010	0	33.2610	0	26.168	0	124.095	0	-1e10	8	-1e10	8	-1E+10	1	-1E+10	1	-1E+10	1	-1E+10	1	-1E+10	1	-1E+10	1
4902554	36	C	01/31/2022	08:56	-136.203	49.505	0	126.00	0	6.1020	0	33.2680	0	26.173	0	124.887	0	-1e10	8	-1e10	8	-1E+10	1	-1E+10	1	-1E+10	1	-1E+10	1	-1E+10	1	-1E+10	1
4902554	36	C	01/31/2022	08:56	-136.203	49.505	0	126.80	0	6.1030	0	33.2910	0	26.191	0	125.680	0	-1e10	8	-1e10	8	-1E+10	1	-1E+10	1	-1E+10	1	-1E+10	1	-1E+10	1	-1E+10	1
4902554	36	C	01/31/2022	08:56	-136.203	49.505	0	127.70	0	6.1040	0	33.2930	0	26.192	0	126.572	0	-1e10	8	-1e10	8	-1E+10	1	-1E+10	1	-1E+10	1	-1E+10	1	-1E+10	1	-1E+10	1
4902554	36	C	01/31/2022	08:56	-136.203	49.505	0	128.90	0	6.1010	0	33.3190	0	26.213	0	127.761	0	-1e10	8	-1e10	8	-1E+10	1	-1E+10	1	-1E+10	1	-1E+10	1	-1E+10	1	-1E+10	1
4902554	36	C	01/31/2022	08:56	-136.203	49.505	0	130.30	0	6.0730	0	33.4250	0	26.301	0	129.148	0	-1e10	8	-1e10	8	-1E+10	1	-1E+10	1	-1E+10	1	-1E+10	1	-1E+10	1	-1E+10	1
4902554	36	C	01/31/2022	08:56	-136.203	49.505	0	131.20	0	6.0720	0	33.4570	0	26.326	0	130.040	0	-1e10	8	-1e10	8	-1E+10	1	-1E+10	1	-1E+10	1	-1E+10	1	-1E+10	1	-1E+10	1
4902554	36	C	01/31/2022	08:56	-136.203	49.505	0	132.20	0	6.0720	0	33.4610	0	26.329	0	131.031	0	-1e10	8	-1e10	8	-1E+10	1	-1E+10	1	-1E+10	1	-1E+10	1	-1E+10	1	-1E+10	1
4902554	36	C	01/31/2022	08:56	-136.203	49.505	0	133.10	0	6.0720	0	33.4650	0	26.332	0	131.922	0	-1e10	8	-1e10	8	-1E+10	1	-1E+10	1	-1E+10	1	-1E+10	1	-1E+10	1	-1E+10	1
4902554	36	C	01/31/2022	08:56	-136.203	49.505	0	134.00	0	6.0730	0	33.4690	0	26.335	0	132.814	0	-1e10	8	-1e10	8	-1E+10	1	-1E+10	1	-1E+10	1	-1E+10	1	-1E+10	1	-1E+10	1
4902554	36	C	01/31/2022	08:56	-136.203	49.505	0	135.00	0	6.0740	0	33.4710	0	26.337	0	133.805	0	-1e10	8	-1e10	8	-1E+10	1	-1E+10	1	-1E+10	1	-1E+10	1	-1E+10	1	-1E+10	1
4902554	36	C	01/31/2022	08:56	-136.203	49.505	0	135.90	0	6.0810	0	33.4840	0	26.346	0	134.697	0	-1e10	8	-1e10	8	-1E+10	1	-1E+10	1	-1E+10	1	-1E+10	1	-1E+10	1	-1E+10	1
4902554	36	C	01/31/2022	08:56	-136.203	49.505	0	136.80	0	6.0820	0	33.4840	0	26.346	0	135.588	0	-1e10	8	-1e10	8	-1E+10	1	-1E+10	1	-1E+10	1	-1E+10	1	-1E+10	1	-1E+10	1
4902554	36	C	01/31/2022	08:56	-136.203	49.505	0	137.70	0	6.0820	0	33.4840	0	26.346	0	136.480	0	-1e10	8	-1e10	8	-1E+10	1	-1E+10	1	-1E+10	1	-1E+10	1	-1E+10	1	-1E+10	1
4902554	36	C	01/31/2022	08:56	-136.203	49.505	0	138.60	0	6.0830	0	33.4860	0	26.348	0	137.372	0	-1e10	8	-1e10	8	-1E+10	1	-1E+10	1	-1E+10	1	-1E+10	1	-1E+10	1	-1E+10	1
4902554	36	C	01/31/2022	08:56	-136.203	49.505	0	139.90	0	6.0910	0	33.5060	0	26.362	0	138.660	0	-1e10	8	-1e10	8	-1E+10	1	-1E+10	1	-1E+10	1	-1E+10	1	-1E+10	1	-1E+10	1
4902554	36	C	01/31/2022	08:56	-136.203	49.505	0	141.40	0	6.0490	0	33.5360	0	26.391	0	140.146	0	-1e10	8	-1e10	8	-1E+10	1	-1E+10	1	-1E+10	1	-1E+10	1	-1E+10	1	-1E+10	1
4902554	36	C	01/31/2022	08:56	-136.203	49.505	0	142.30	0	6.0440	0	33.5500	0	26.403	0	141.038	0	-1e10	8	-1e10	8	-1E+10	1	-1E+10	1	-1E+10	1	-1E+10	1	-1E+10	1	-1E+10	1
4902554	36	C	01/31/2022	08:56	-136.203	49.505	0	143.30	0	6.0440	0	33.5520	0	26.405	0	142.029	0	-1e10	8	-1e10	8	-1E+10	1	-1E+10	1	-1E+10	1	-1E+10	1	-1E+10	1	-1E+10	1
4902554	36	C	01/31/2022	08:56	-136.203	49.505	0	144.20	0	6.0450	0	33.5670	0	26.416	0	142.920	0	-1e10	8	-1e10	8	-1E+10	1	-1E+10	1	-1E+10	1	-1E+10	1	-1E+10	1	-1E+10	1
4902554	36	C	01/31/2022	08:56	-136.203	49.505	0	145.20	0	6.0440	0	33.5710	0	26.420	0	143.911	0	-1e10	8	-1e10	8	-1E+10	1	-1E+10	1	-1E+10	1	-1E+10	1	-1E+10	1	-1E+10	1
4902554	36	C	01/31/2022	08:56	-136.203	49.505	0	146.20	0	6.0940	0	33.6090	0	26.443	0	144.902	0	-1e10	8	-1e10	8	-1E+10	1	-1E+10	1	-1E+10	1	-1E+10	1	-1E+10	1	-1E+10	1
4902554	36	C	01/31/2022	08:56	-136.203	49.505	0	147.10	0	6.1020	0	33.6300	0	26.459	0	145.794	0	-1e10	8	-1e10	8	-1E+10	1	-1E+10	1	-1E+10	1	-1E+10	1	-1E+10	1	-1E+10	1
4902554	36	C	01/31/2022	08:56	-136.203	49.505	0	148.10	0	6.0500	0	33.6320	0	26.467	0	146.784	0	-1e10	8	-1e10	8	-1E+10	1	-1E+10	1	-1E+10	1	-1E+10	1	-1E+10	1	-1E+10	1
4902554	36	C	01/31/2022	08:56	-136.203	49.505	0	149.10	0	6.0180	0	33.6470	0	26.483	0	147.775	0	-1e10	8	-1e10	8	-1E+10	1	-1E+10	1	-1E+10	1	-1E+10	1	-1E+10	1	-1E+10	1
4902554	36	C	01/31/2022	08:56	-136.203	49.505	0	150.10	0	6.0480	0	33.6630	0	26.492	0	148.766	0	-1e10	8	-1e10	8	-1E+10	1	-1E+10	1	-1E+10	1	-1E+10	1	-1E+10	1	-1E+10	1
4902554	36	C	01/31/2022	08:56	-136.203	49.505	0	151.10	0	6.0640	0	33.6800	0	26.503	0	149.757	0	-1e10	8	-1e10	8	-1E+10	1	-1E+10	1	-1E+10	1	-1E+10	1	-1E+10	1	-1E+10	1
4902554	36	C	01/31/2022	08:56	-136.203	49.505	0	152.10	0	6.0540	0	33.6860	0	26.509	0	150.747	0	-1e10	8	-1e10	8	-1E+10	1	-1E+10	1	-1E+10	1	-1E+10	1	-1E+10	1	-1E+10	1
4902554	36	C	01/31/2022	08:56	-136.203	49.505	0	153.10	0	6.0430	0	33.6940	0	26.517	0	151.738	0	-1e10	8	-1e10	8	-1E+10	1	-1E+10	1	-1E+10	1	-1E+10	1	-1E+10	1	-1E+10	1
4902554	36	C	01/31/2022	08:56	-136.203	49.505	0	154.10	0	6.0350	0	33.6990	0	26.522	0	152.729	0	-1e10	8	-1e10	8	-1E+10	1	-1E+10	1	-1E+10	1	-1E+10	1	-1E+10	1	-1E+10	1
4902554	36	C	01/31/2022	08:56	-136.203	49.505	0	155.10	0	6.0180	0	33.7050	0	26.529	0	153.720	0	-1e10	8	-1e10	8	-1E+10	1	-1E+10	1	-1E+10	1	-1E+10	1	-1E+10	1	-1E+10	1
4902554	36	C	01/31/2022	08:56	-136.203	49.505	0	156.10	0	5.9720	0	33.7180	0	26.545	0	154.710	0	-1e10	8	-1e10	8	-1E+10	1	-1E+10	1	-1E+10	1	-1E+10	1	-1E+10	1	-1E+10	1
4902554	36	C	01/31/2022	08:56	-136.203	49.505	0	157.10	0	5.9620	0	33.7180	0	26.546	0	155.701	0	-1e10	8	-1e10	8	-1E+10	1	-1E+10	1	-1E+10	1	-1E+10	1	-1E+10	1	-1E+10	1
4902554	36	C	01/31/2022	08:56	-136.203	49.505	0	158.20	0	5.9590	0	33.7170	0	26.546	0	156.791	0	-1e10	8	-1e10	8	-1E+10	1	-1E+10	1	-1E+10	1	-1E+10	1	-1E+10	1	-1E+10	1
4902554	36	C	01/31/2022	08:56	-136.203	49.505	0	159.20	0	5.9530	0	33.7190	0	26.548	0	157.781	0	-1e10	8	-1e10	8	-1E+10	1	-1E+10	1	-1E+10	1	-1E+10	1	-1E+10	1	-1E+10	1
4902554	36	C	01/31/2022	08:56	-136.203	49.505	0	160.20	0	5.9400	0	33.7190	0	26.550	0	158.772	0	-1e10	8	-1e10	8	-1E+10	1	-1E+10	1	-1E+10	1	-1E+10	1	-1E+10	1	-1E+10	1
4902554	36	C	01/31/2022	08:56	-136.203	49.505	0	161.20	0	5.9160	0	33.7230	0	26.556	0	159.763	0	-1e10	8	-1e10	8	-1E+10	1	-1E+10	1	-1E+10	1	-1E+10	1	-1E+10	1	-1E+10	1
4902554	36	C	01/31/2022	08:56	-136.203	49.505	0	162.20	0	5.8560	0	33.7350	0	26.573	0	160.754	0	-1e10	8	-1e10	8	-1E+10	1	-1E+10	1	-1E+10	1	-1E+10	1	-1E+10	1	-1E+10	1
4902554	36	C	01/31/2022	08:56	-136.203	49.505	0	163.30	0	5.8360	0	33.7330	0	26.574	0	161.843	0	-1e10	8	-1e10	8	-1E+10	1	-1E+10	1	-1E+10	1	-1E+10	1	-1E+10	1	-1E+10	1
4902554	36	C	01/31/2022	08:56	-136.203	49.505	0	164.40	0	5.8050	0	33.7360	0	26.580	0	162.933	0	-1e10	8	-1e10	8	-1E+10	1	-1E+10	1	-1E+10	1	-1E+10	1	-1E+10	1	-1E+10	1
4902554	36	C	01/31/2022	08:56	-136.203	49.505	0	165.40	0	5.7910	0	33.7370	0	26.582	0	163.924	0	-1e10	8	-1e10	8	-1E+10	1	-1E+10	1	-1E+10	1	-1E+10	1	-1E+10	1	-1E+10	1
4902554	36	C	01/31/2022	08:56	-136.203	49.505	0	166.50	0	5.7830	0	33.7390	0	26.585	0	165.014	0	-1e10	8	-1e10	8	-1E+10	1	-1E+10	1	-1E+10	1	-1E+10	1	-1E+10	1	-1E+10	1
4902554	36	C	01/31/2022	08:56	-136.203	49.505	0	167.50	0	5.7760	0	33.7370	0	26.584	0	166.004	0	-1e10	8	-1e10	8	-1E+10	1	-1E+10	1	-1E+10	1	-1E+10	1	-1E+10	1	-1E+10	1
4902554	36	C	01/31/2022	08:56	-136.203	49.505	0	168.50	0	5.7420	0	33.7420	0	26.592	0	166.995	0	-1e10	8	-1e10	8	-1E+10	1	-1E+10	1	-1E+10	1	-1E+10	1	-1E+10	1	-1E+10	1
4902554	36	C	01/31/2022	08:56	-136.203	49.505	0	169.50	0	5.7300	0	33.7410	0	26.593	0	167.986	0	-1e10	8	-1e10	8	-1E+10	1	-1E+10	1	-1E+10	1	-1E+10	1	-1E+10	1	-1E+10	1
4902554	36	C	01/31/2022	08:56	-136.203	49.505	0	170.90	0	5.7050	0	33.7420	0	26.597	0	169.372	0	-1e10	8	-1e10	8	-1E+10	1	-1E+10	1	-1E+10	1	-1E+10	1	-1E+10	1	-1E+10	1
4902554	36	C	01/31/2022	08:56	-136.203	49.505	0	172.10	0	5.6690	0	33.7440	0	26.603	0	170.561	0	-1e10	8	-1e10	8	-1E+10	1	-1E+10	1	-1E+10	1	-1E+10	1	-1E+10	1	-1E+10	1
4902554	36	C	01/31/2022	08:56	-136.203	49.505	0	172.90	0	5.6470	0	33.7470	0	26.608	0	171.354	0	-1e10	8	-1e10	8	-1E+10	1	-1E+10	1	-1E+10	1	-1E+10	1	-1E+10	1	-1E+10	1
4902554	36	C	01/31/2022	08:56	-136.203	49.505	0	173.70	0	5.6170	0	33.7490	0	26.613	0	172.146	0	-1e10	8	-1e10	8	-1E+10	1	-1E+10	1	-1E+10	1	-1E+10	1	-1E+10	1	-1E+10	1
4902554	36	C	01/31/2022	08:56	-136.203	49.505	0	174.90	0	5.5570	0	33.7530	0	26.623	0	173.335	0	-1e10	8	-1e10	8	-1E+10	1	-1E+10	1	-1E+10	1	-1E+10	1	-1E+10	1	-1E+10	1
4902554	36	C	01/31/2022	08:56	-136.203	49.505	0	176.20	0	5.5450	0	33.7540	0	26.626	0	174.623	0	-1e10	8	-1e10	8	-1E+10	1	-1E+10	1	-1E+10	1	-1E+10	1	-1E+10	1	-1E+10	1
4902554	36	C	01/31/2022	08:56	-136.203	49.505	0	177.10	0	5.5260	0	33.7560	0	26.630	0	175.514	0	-1e10	8	-1e10	8	-1E+10	1	-1E+10	1	-1E+10	1	-1E+10	1	-1E+10	1	-1E+10	1
4902554	36	C	01/31/2022	08:56	-136.203	49.505	0	177.90	0	5.5080	0	33.7550	0	26.631	0	176.307	0	-1e10	8	-1e10	8	-1E+10	1	-1E+10	1	-1E+10	1	-1E+10	1	-1E+10	1	-1E+10	1
4902554	36	C	01/31/2022	08:56	-136.203	49.505	0	178.70	0	5.4970	0	33.7560	0	26.633	0	177.099	0	-1e10	8	-1e10	8	-1E+10	1	-1E+10	1	-1E+10	1	-1E+10	1	-1E+10	1	-1E+10	1
4902554	36	C	01/31/2022	08:56	-136.203	49.505	0	180.00	0	5.4740	0	33.7580	0	26.637	0	178.387	0	-1e10	8	-1e10	8	-1E+10	1	-1E+10	1	-1E+10	1	-1E+10	1	-1E+10	1	-1E+10	1
4902554	36	C	01/31/2022	08:56	-136.203	49.505	0	181.30	0	5.4490	0	33.7580	0	26.640	0	179.675	0	-1e10	8	-1e10	8	-1E+10	1	-1E+10	1	-1E+10	1	-1E+10	1	-1E+10	1	-1E+10	1
4902554	36	C	01/31/2022	08:56	-136.203	49.505	0	182.10	0	5.4440	0	33.7580	0	26.641	0	180.467	0	-1e10	8	-1e10	8	-1E+10	1	-1E+10	1	-1E+10	1	-1E+10	1	-1E+10	1	-1E+10	1
4902554	36	C	01/31/2022	08:56	-136.203	49.505	0	183.00	0	5.4320	0	33.7590	0	26.643	0	181.359	0	-1e10	8	-1e10	8	-1E+10	1	-1E+10	1	-1E+10	1	-1E+10	1	-1E+10	1	-1E+10	1
4902554	36	C	01/31/2022	08:56	-136.203	49.505	0	183.90	0	5.4190	0	33.7590	0	26.645	0	182.250	0	-1e10	8	-1e10	8	-1E+10	1	-1E+10	1	-1E+10	1	-1E+10	1	-1E+10	1	-1E+10	1
4902554	36	C	01/31/2022	08:56	-136.203	49.505	0	184.80	0	5.3850	0	33.7630	0	26.652	0	183.142	0	-1e10	8	-1e10	8	-1E+10	1	-1E+10	1	-1E+10	1	-1E+10	1	-1E+10	1	-1E+10	1
4902554	36	C	01/31/2022	08:56	-136.203	49.505	0	185.70	0	5.3670	0	33.7630	0	26.654	0	184.034	0	-1e10	8	-1e10	8	-1E+10	1	-1E+10	1	-1E+10	1	-1E+10	1	-1E+10	1	-1E+10	1
4902554	36	C	01/31/2022	08:56	-136.203	49.505	0	186.60	0	5.3640	0	33.7630	0	26.654	0	184.925	0	-1e10	8	-1e10	8	-1E+10	1	-1E+10	1	-1E+10	1	-1E+10	1	-1E+10	1	-1E+10	1
4902554	36	C	01/31/2022	08:56	-136.203	49.505	0	187.90	0	5.3250	0	33.7680	0	26.663	0	186.213	0	-1e10	8	-1e10	8	-1E+10	1	-1E+10	1	-1E+10	1	-1E+10	1	-1E+10	1	-1E+10	1
4902554	36	C	01/31/2022	08:56	-136.203	49.505	0	189.30	0	5.3210	0	33.7680	0	26.663	0	187.600	0	-1e10	8	-1e10	8	-1E+10	1	-1E+10	1	-1E+10	1	-1E+10	1	-1E+10	1	-1E+10	1
4902554	36	C	01/31/2022	08:56	-136.203	49.505	0	190.30	0	5.3140	0	33.7690	0	26.665	0	188.590	0	-1e10	8	-1e10	8	-1E+10	1	-1E+10	1	-1E+10	1	-1E+10	1	-1E+10	1	-1E+10	1
4902554	36	C	01/31/2022	08:56	-136.203	49.505	0	191.20	0	5.3090	0	33.7690	0	26.666	0	189.482	0	-1e10	8	-1e10	8	-1E+10	1	-1E+10	1	-1E+10	1	-1E+10	1	-1E+10	1	-1E+10	1
4902554	36	C	01/31/2022	08:56	-136.203	49.505	0	192.10	0	5.3040	0	33.7680	0	26.665	0	190.373	0	-1e10	8	-1e10	8	-1E+10	1	-1E+10	1	-1E+10	1	-1E+10	1	-1E+10	1	-1E+10	1
4902554	36	C	01/31/2022	08:56	-136.203	49.505	0	193.10	0	5.2900	0	33.7710	0	26.669	0	191.364	0	-1e10	8	-1e10	8	-1E+10	1	-1E+10	1	-1E+10	1	-1E+10	1	-1E+10	1	-1E+10	1
4902554	36	C	01/31/2022	08:56	-136.203	49.505	0	194.00	0	5.2770	0	33.7710	0	26.671	0	192.255	0	-1e10	8	-1e10	8	-1E+10	1	-1E+10	1	-1E+10	1	-1E+10	1	-1E+10	1	-1E+10	1
4902554	36	C	01/31/2022	08:56	-136.203	49.505	0	194.90	0	5.2650	0	33.7720	0	26.673	0	193.147	0	-1e10	8	-1e10	8	-1E+10	1	-1E+10	1	-1E+10	1	-1E+10	1	-1E+10	1	-1E+10	1
4902554	36	C	01/31/2022	08:56	-136.203	49.505	0	195.90	0	5.2520	0	33.7720	0	26.675	0	194.137	0	-1e10	8	-1e10	8	-1E+10	1	-1E+10	1	-1E+10	1	-1E+10	1	-1E+10	1	-1E+10	1
4902554	36	C	01/31/2022	08:56	-136.203	49.505	0	196.80	0	5.2460	0	33.7720	0	26.675	0	195.029	0	-1e10	8	-1e10	8	-1E+10	1	-1E+10	1	-1E+10	1	-1E+10	1	-1E+10	1	-1E+10	1
4902554	36	C	01/31/2022	08:56	-136.203	49.505	0	197.80	0	5.2450	0	33.7720	0	26.675	0	196.019	0	-1e10	8	-1e10	8	-1E+10	1	-1E+10	1	-1E+10	1	-1E+10	1	-1E+10	1	-1E+10	1
4902554	36	C	01/31/2022	08:56	-136.203	49.505	0	198.70	0	5.2390	0	33.7740	0	26.678	0	196.911	0	-1e10	8	-1e10	8	-1E+10	1	-1E+10	1	-1E+10	1	-1E+10	1	-1E+10	1	-1E+10	1
4902554	36	C	01/31/2022	08:56	-136.203	49.505	0	199.70	0	5.2200	0	33.7760	0	26.682	0	197.901	0	-1e10	8	-1e10	8	-1E+10	1	-1E+10	1	-1E+10	1	-1E+10	1	-1E+10	1	-1E+10	1
4902554	36	C	01/31/2022	08:56	-136.203	49.505	0	200.60	0	5.2080	0	33.7760	0	26.683	0	198.793	0	-1e10	8	-1e10	8	-1E+10	1	-1E+10	1	-1E+10	1	-1E+10	1	-1E+10	1	-1E+10	1
4902554	36	C	01/31/2022	08:56	-136.203	49.505	0	201.60	0	5.2040	0	33.7760	0	26.683	0	199.783	0	-1e10	8	-1e10	8	-1E+10	1	-1E+10	1	-1E+10	1	-1E+10	1	-1E+10	1	-1E+10	1
4902554	36	C	01/31/2022	08:56	-136.203	49.505	0	202.50	0	5.1940	0	33.7760	0	26.685	0	200.675	0	-1e10	8	-1e10	8	-1E+10	1	-1E+10	1	-1E+10	1	-1E+10	1	-1E+10	1	-1E+10	1
4902554	36	C	01/31/2022	08:56	-136.203	49.505	0	203.50	0	5.1850	0	33.7770	0	26.686	0	201.665	0	-1e10	8	-1e10	8	-1E+10	1	-1E+10	1	-1E+10	1	-1E+10	1	-1E+10	1	-1E+10	1
4902554	36	C	01/31/2022	08:56	-136.203	49.505	0	204.90	0	5.1700	0	33.7790	0	26.690	0	203.052	0	-1e10	8	-1e10	8	-1E+10	1	-1E+10	1	-1E+10	1	-1E+10	1	-1E+10	1	-1E+10	1
4902554	36	C	01/31/2022	08:56	-136.203	49.505	0	206.40	0	5.1620	0	33.7810	0	26.692	0	204.538	0	-1e10	8	-1e10	8	-1E+10	1	-1E+10	1	-1E+10	1	-1E+10	1	-1E+10	1	-1E+10	1
4902554	36	C	01/31/2022	08:56	-136.203	49.505	0	207.40	0	5.1510	0	33.7830	0	26.695	0	205.528	0	-1e10	8	-1e10	8	-1E+10	1	-1E+10	1	-1E+10	1	-1E+10	1	-1E+10	1	-1E+10	1
4902554	36	C	01/31/2022	08:56	-136.203	49.505	0	208.30	0	5.1340	0	33.7820	0	26.696	0	206.419	0	-1e10	8	-1e10	8	-1E+10	1	-1E+10	1	-1E+10	1	-1E+10	1	-1E+10	1	-1E+10	1
4902554	36	C	01/31/2022	08:56	-136.203	49.505	0	209.30	0	5.1280	0	33.7820	0	26.697	0	207.410	0	-1e10	8	-1e10	8	-1E+10	1	-1E+10	1	-1E+10	1	-1E+10	1	-1E+10	1	-1E+10	1
4902554	36	C	01/31/2022	08:56	-136.203	49.505	0	210.30	0	5.1200	0	33.7800	0	26.696	0	208.400	0	-1e10	8	-1e10	8	-1E+10	1	-1E+10	1	-1E+10	1	-1E+10	1	-1E+10	1	-1E+10	1
4902554	36	C	01/31/2022	08:56	-136.203	49.505	0	211.30	0	5.1080	0	33.7810	0	26.699	0	209.391	0	-1e10	8	-1e10	8	-1E+10	1	-1E+10	1	-1E+10	1	-1E+10	1	-1E+10	1	-1E+10	1
4902554	36	C	01/31/2022	08:56	-136.203	49.505	0	212.20	0	5.0990	0	33.7840	0	26.702	0	210.282	0	-1e10	8	-1e10	8	-1E+10	1	-1E+10	1	-1E+10	1	-1E+10	1	-1E+10	1	-1E+10	1
4902554	36	C	01/31/2022	08:56	-136.203	49.505	0	213.20	0	5.0890	0	33.7830	0	26.702	0	211.273	0	-1e10	8	-1e10	8	-1E+10	1	-1E+10	1	-1E+10	1	-1E+10	1	-1E+10	1	-1E+10	1
4902554	36	C	01/31/2022	08:56	-136.203	49.505	0	214.20	0	5.0880	0	33.7830	0	26.702	0	212.263	0	-1e10	8	-1e10	8	-1E+10	1	-1E+10	1	-1E+10	1	-1E+10	1	-1E+10	1	-1E+10	1
4902554	36	C	01/31/2022	08:56	-136.203	49.505	0	215.20	0	5.0830	0	33.7830	0	26.703	0	213.254	0	-1e10	8	-1e10	8	-1E+10	1	-1E+10	1	-1E+10	1	-1E+10	1	-1E+10	1	-1E+10	1
4902554	36	C	01/31/2022	08:56	-136.203	49.505	0	216.10	0	5.0760	0	33.7840	0	26.705	0	214.145	0	-1e10	8	-1e10	8	-1E+10	1	-1E+10	1	-1E+10	1	-1E+10	1	-1E+10	1	-1E+10	1
4902554	36	C	01/31/2022	08:56	-136.203	49.505	0	217.10	0	5.0700	0	33.7860	0	26.707	0	215.135	0	-1e10	8	-1e10	8	-1E+10	1	-1E+10	1	-1E+10	1	-1E+10	1	-1E+10	1	-1E+10	1
4902554	36	C	01/31/2022	08:56	-136.203	49.505	0	218.00	0	5.0670	0	33.7850	0	26.706	0	216.027	0	-1e10	8	-1e10	8	-1E+10	1	-1E+10	1	-1E+10	1	-1E+10	1	-1E+10	1	-1E+10	1
4902554	36	C	01/31/2022	08:56	-136.203	49.505	0	219.00	0	5.0640	0	33.7850	0	26.707	0	217.017	0	-1e10	8	-1e10	8	-1E+10	1	-1E+10	1	-1E+10	1	-1E+10	1	-1E+10	1	-1E+10	1
4902554	36	C	01/31/2022	08:56	-136.203	49.505	0	219.90	0	5.0480	0	33.7910	0	26.713	0	217.909	0	-1e10	8	-1e10	8	-1E+10	1	-1E+10	1	-1E+10	1	-1E+10	1	-1E+10	1	-1E+10	1
4902554	36	C	01/31/2022	08:56	-136.203	49.505	0	220.90	0	5.0290	0	33.7890	0	26.714	0	218.899	0	-1e10	8	-1e10	8	-1E+10	1	-1E+10	1	-1E+10	1	-1E+10	1	-1E+10	1	-1E+10	1
4902554	36	C	01/31/2022	08:56	-136.203	49.505	0	221.80	0	5.0210	0	33.7900	0	26.716	0	219.790	0	-1e10	8	-1e10	8	-1E+10	1	-1E+10	1	-1E+10	1	-1E+10	1	-1E+10	1	-1E+10	1
4902554	36	C	01/31/2022	08:56	-136.203	49.505	0	222.80	0	5.0210	0	33.7930	0	26.718	0	220.781	0	-1e10	8	-1e10	8	-1E+10	1	-1E+10	1	-1E+10	1	-1E+10	1	-1E+10	1	-1E+10	1
4902554	36	C	01/31/2022	08:56	-136.203	49.505	0	223.70	0	5.0210	0	33.7930	0	26.718	0	221.672	0	-1e10	8	-1e10	8	-1E+10	1	-1E+10	1	-1E+10	1	-1E+10	1	-1E+10	1	-1E+10	1
4902554	36	C	01/31/2022	08:56	-136.203	49.505	0	224.60	0	5.0310	0	33.7960	0	26.719	0	222.564	0	-1e10	8	-1e10	8	-1E+10	1	-1E+10	1	-1E+10	1	-1E+10	1	-1E+10	1	-1E+10	1
4902554	36	C	01/31/2022	08:56	-136.203	49.505	0	225.60	0	5.0410	0	33.8000	0	26.721	0	223.554	0	-1e10	8	-1e10	8	-1E+10	1	-1E+10	1	-1E+10	1	-1E+10	1	-1E+10	1	-1E+10	1
4902554	36	C	01/31/2022	08:56	-136.203	49.505	0	226.90	0	5.0190	0	33.8070	0	26.729	0	224.841	0	-1e10	8	-1e10	8	-1E+10	1	-1E+10	1	-1E+10	1	-1E+10	1	-1E+10	1	-1E+10	1
4902554	36	C	01/31/2022	08:56	-136.203	49.505	0	228.40	0	4.9730	0	33.8070	0	26.735	0	226.327	0	-1e10	8	-1e10	8	-1E+10	1	-1E+10	1	-1E+10	1	-1E+10	1	-1E+10	1	-1E+10	1
4902554	36	C	01/31/2022	08:56	-136.203	49.505	0	229.30	0	4.9630	0	33.8080	0	26.737	0	227.218	0	-1e10	8	-1e10	8	-1E+10	1	-1E+10	1	-1E+10	1	-1E+10	1	-1E+10	1	-1E+10	1
4902554	36	C	01/31/2022	08:56	-136.203	49.505	0	230.30	0	4.9600	0	33.8100	0	26.738	0	228.209	0	-1e10	8	-1e10	8	-1E+10	1	-1E+10	1	-1E+10	1	-1E+10	1	-1E+10	1	-1E+10	1
4902554	36	C	01/31/2022	08:56	-136.203	49.505	0	231.20	0	4.9540	0	33.8110	0	26.740	0	229.100	0	-1e10	8	-1e10	8	-1E+10	1	-1E+10	1	-1E+10	1	-1E+10	1	-1E+10	1	-1E+10	1
4902554	36	C	01/31/2022	08:56	-136.203	49.505	0	232.10	0	4.9530	0	33.8110	0	26.740	0	229.991	0	-1e10	8	-1e10	8	-1E+10	1	-1E+10	1	-1E+10	1	-1E+10	1	-1E+10	1	-1E+10	1
4902554	36	C	01/31/2022	08:56	-136.203	49.505	0	233.10	0	4.9520	0	33.8110	0	26.740	0	230.982	0	-1e10	8	-1e10	8	-1E+10	1	-1E+10	1	-1E+10	1	-1E+10	1	-1E+10	1	-1E+10	1
4902554	36	C	01/31/2022	08:56	-136.203	49.505	0	234.00	0	4.9520	0	33.8110	0	26.740	0	231.873	0	-1e10	8	-1e10	8	-1E+10	1	-1E+10	1	-1E+10	1	-1E+10	1	-1E+10	1	-1E+10	1
4902554	36	C	01/31/2022	08:56	-136.203	49.505	0	235.00	0	4.9510	0	33.8110	0	26.740	0	232.863	0	-1e10	8	-1e10	8	-1E+10	1	-1E+10	1	-1E+10	1	-1E+10	1	-1E+10	1	-1E+10	1
4902554	36	C	01/31/2022	08:56	-136.203	49.505	0	235.90	0	4.9470	0	33.8110	0	26.741	0	233.755	0	-1e10	8	-1e10	8	-1E+10	1	-1E+10	1	-1E+10	1	-1E+10	1	-1E+10	1	-1E+10	1
4902554	36	C	01/31/2022	08:56	-136.203	49.505	0	236.90	0	4.9370	0	33.8130	0	26.743	0	234.745	0	-1e10	8	-1e10	8	-1E+10	1	-1E+10	1	-1E+10	1	-1E+10	1	-1E+10	1	-1E+10	1
4902554	36	C	01/31/2022	08:56	-136.203	49.505	0	237.80	0	4.9310	0	33.8130	0	26.744	0	235.636	0	-1e10	8	-1e10	8	-1E+10	1	-1E+10	1	-1E+10	1	-1E+10	1	-1E+10	1	-1E+10	1
4902554	36	C	01/31/2022	08:56	-136.203	49.505	0	238.80	0	4.9230	0	33.8140	0	26.746	0	236.627	0	-1e10	8	-1e10	8	-1E+10	1	-1E+10	1	-1E+10	1	-1E+10	1	-1E+10	1	-1E+10	1
4902554	36	C	01/31/2022	08:56	-136.203	49.505	0	239.70	0	4.9180	0	33.8140	0	26.746	0	237.518	0	-1e10	8	-1e10	8	-1E+10	1	-1E+10	1	-1E+10	1	-1E+10	1	-1E+10	1	-1E+10	1
4902554	36	C	01/31/2022	08:56	-136.203	49.505	0	240.70	0	4.9120	0	33.8140	0	26.747	0	238.508	0	-1e10	8	-1e10	8	-1E+10	1	-1E+10	1	-1E+10	1	-1E+10	1	-1E+10	1	-1E+10	1
4902554	36	C	01/31/2022	08:56	-136.203	49.505	0	241.70	0	4.8990	0	33.8160	0	26.750	0	239.499	0	-1e10	8	-1e10	8	-1E+10	1	-1E+10	1	-1E+10	1	-1E+10	1	-1E+10	1	-1E+10	1
4902554	36	C	01/31/2022	08:56	-136.203	49.505	0	242.60	0	4.8860	0	33.8170	0	26.752	0	240.390	0	-1e10	8	-1e10	8	-1E+10	1	-1E+10	1	-1E+10	1	-1E+10	1	-1E+10	1	-1E+10	1
4902554	36	C	01/31/2022	08:56	-136.203	49.505	0	243.60	0	4.8730	0	33.8170	0	26.754	0	241.380	0	-1e10	8	-1e10	8	-1E+10	1	-1E+10	1	-1E+10	1	-1E+10	1	-1E+10	1	-1E+10	1
4902554	36	C	01/31/2022	08:56	-136.203	49.505	0	244.50	0	4.8640	0	33.8170	0	26.755	0	242.271	0	-1e10	8	-1e10	8	-1E+10	1	-1E+10	1	-1E+10	1	-1E+10	1	-1E+10	1	-1E+10	1
4902554	36	C	01/31/2022	08:56	-136.203	49.505	0	245.50	0	4.8570	0	33.8180	0	26.756	0	243.262	0	-1e10	8	-1e10	8	-1E+10	1	-1E+10	1	-1E+10	1	-1E+10	1	-1E+10	1	-1E+10	1
4902554	36	C	01/31/2022	08:56	-136.203	49.505	0	246.90	0	4.8460	0	33.8190	0	26.759	0	244.648	0	-1e10	8	-1e10	8	-1E+10	1	-1E+10	1	-1E+10	1	-1E+10	1	-1E+10	1	-1E+10	1
4902554	36	C	01/31/2022	08:56	-136.203	49.505	0	248.30	0	4.8440	0	33.8200	0	26.760	0	246.035	0	-1e10	8	-1e10	8	-1E+10	1	-1E+10	1	-1E+10	1	-1E+10	1	-1E+10	1	-1E+10	1
4902554	36	C	01/31/2022	08:56	-136.203	49.505	0	249.30	0	4.8430	0	33.8200	0	26.760	0	247.025	0	-1e10	8	-1e10	8	-1E+10	1	-1E+10	1	-1E+10	1	-1E+10	1	-1E+10	1	-1E+10	1
4902554	36	C	01/31/2022	08:56	-136.203	49.505	0	250.20	0	4.8410	0	33.8200	0	26.760	0	247.916	0	-1e10	8	-1e10	8	-1E+10	1	-1E+10	1	-1E+10	1	-1E+10	1	-1E+10	1	-1E+10	1
4902554	36	C	01/31/2022	08:56	-136.203	49.505	0	251.10	0	4.8370	0	33.8200	0	26.760	0	248.807	0	-1e10	8	-1e10	8	-1E+10	1	-1E+10	1	-1E+10	1	-1E+10	1	-1E+10	1	-1E+10	1
4902554	36	C	01/31/2022	08:56	-136.203	49.505	0	252.10	0	4.8210	0	33.8230	0	26.765	0	249.798	0	-1e10	8	-1e10	8	-1E+10	1	-1E+10	1	-1E+10	1	-1E+10	1	-1E+10	1	-1E+10	1
4902554	36	C	01/31/2022	08:56	-136.203	49.505	0	253.00	0	4.8060	0	33.8240	0	26.767	0	250.689	0	-1e10	8	-1e10	8	-1E+10	1	-1E+10	1	-1E+10	1	-1E+10	1	-1E+10	1	-1E+10	1
4902554	36	C	01/31/2022	08:56	-136.203	49.505	0	253.90	0	4.7940	0	33.8260	0	26.770	0	251.580	0	-1e10	8	-1e10	8	-1E+10	1	-1E+10	1	-1E+10	1	-1E+10	1	-1E+10	1	-1E+10	1
4902554	36	C	01/31/2022	08:56	-136.203	49.505	0	254.90	0	4.7910	0	33.8260	0	26.770	0	252.570	0	-1e10	8	-1e10	8	-1E+10	1	-1E+10	1	-1E+10	1	-1E+10	1	-1E+10	1	-1E+10	1
4902554	36	C	01/31/2022	08:56	-136.203	49.505	0	255.80	0	4.7820	0	33.8280	0	26.773	0	253.462	0	-1e10	8	-1e10	8	-1E+10	1	-1E+10	1	-1E+10	1	-1E+10	1	-1E+10	1	-1E+10	1
4902554	36	C	01/31/2022	08:56	-136.203	49.505	0	256.80	0	4.7660	0	33.8310	0	26.777	0	254.452	0	-1e10	8	-1e10	8	-1E+10	1	-1E+10	1	-1E+10	1	-1E+10	1	-1E+10	1	-1E+10	1
4902554	36	C	01/31/2022	08:56	-136.203	49.505	0	257.70	0	4.7650	0	33.8310	0	26.777	0	255.343	0	-1e10	8	-1e10	8	-1E+10	1	-1E+10	1	-1E+10	1	-1E+10	1	-1E+10	1	-1E+10	1
4902554	36	C	01/31/2022	08:56	-136.203	49.505	0	258.70	0	4.7640	0	33.8310	0	26.777	0	256.333	0	-1e10	8	-1e10	8	-1E+10	1	-1E+10	1	-1E+10	1	-1E+10	1	-1E+10	1	-1E+10	1
4902554	36	C	01/31/2022	08:56	-136.203	49.505	0	259.70	0	4.7630	0	33.8310	0	26.777	0	257.323	0	-1e10	8	-1e10	8	-1E+10	1	-1E+10	1	-1E+10	1	-1E+10	1	-1E+10	1	-1E+10	1
4902554	36	C	01/31/2022	08:56	-136.203	49.505	0	260.60	0	4.7620	0	33.8330	0	26.779	0	258.215	0	-1e10	8	-1e10	8	-1E+10	1	-1E+10	1	-1E+10	1	-1E+10	1	-1E+10	1	-1E+10	1
4902554	36	C	01/31/2022	08:56	-136.203	49.505	0	261.60	0	4.7570	0	33.8350	0	26.781	0	259.205	0	-1e10	8	-1e10	8	-1E+10	1	-1E+10	1	-1E+10	1	-1E+10	1	-1E+10	1	-1E+10	1
4902554	36	C	01/31/2022	08:56	-136.203	49.505	0	262.50	0	4.7550	0	33.8350	0	26.781	0	260.096	0	-1e10	8	-1e10	8	-1E+10	1	-1E+10	1	-1E+10	1	-1E+10	1	-1E+10	1	-1E+10	1
4902554	36	C	01/31/2022	08:56	-136.203	49.505	0	263.50	0	4.7520	0	33.8360	0	26.783	0	261.086	0	-1e10	8	-1e10	8	-1E+10	1	-1E+10	1	-1E+10	1	-1E+10	1	-1E+10	1	-1E+10	1
4902554	36	C	01/31/2022	08:56	-136.203	49.505	0	264.50	0	4.7460	0	33.8400	0	26.786	0	262.077	0	-1e10	8	-1e10	8	-1E+10	1	-1E+10	1	-1E+10	1	-1E+10	1	-1E+10	1	-1E+10	1
4902554	36	C	01/31/2022	08:56	-136.203	49.505	0	265.90	0	4.7410	0	33.8400	0	26.787	0	263.463	0	-1e10	8	-1e10	8	-1E+10	1	-1E+10	1	-1E+10	1	-1E+10	1	-1E+10	1	-1E+10	1
4902554	36	C	01/31/2022	08:56	-136.203	49.505	0	267.40	0	4.7400	0	33.8410	0	26.788	0	264.948	0	-1e10	8	-1e10	8	-1E+10	1	-1E+10	1	-1E+10	1	-1E+10	1	-1E+10	1	-1E+10	1
4902554	36	C	01/31/2022	08:56	-136.203	49.505	0	268.40	0	4.7420	0	33.8400	0	26.787	0	265.938	0	-1e10	8	-1e10	8	-1E+10	1	-1E+10	1	-1E+10	1	-1E+10	1	-1E+10	1	-1E+10	1
4902554	36	C	01/31/2022	08:56	-136.203	49.505	0	269.30	0	4.7420	0	33.8410	0	26.788	0	266.829	0	-1e10	8	-1e10	8	-1E+10	1	-1E+10	1	-1E+10	1	-1E+10	1	-1E+10	1	-1E+10	1
4902554	36	C	01/31/2022	08:56	-136.203	49.505	0	270.30	0	4.7410	0	33.8410	0	26.788	0	267.820	0	-1e10	8	-1e10	8	-1E+10	1	-1E+10	1	-1E+10	1	-1E+10	1	-1E+10	1	-1E+10	1
4902554	36	C	01/31/2022	08:56	-136.203	49.505	0	271.20	0	4.7350	0	33.8420	0	26.789	0	268.711	0	-1e10	8	-1e10	8	-1E+10	1	-1E+10	1	-1E+10	1	-1E+10	1	-1E+10	1	-1E+10	1
4902554	36	C	01/31/2022	08:56	-136.203	49.505	0	272.20	0	4.7320	0	33.8430	0	26.790	0	269.701	0	-1e10	8	-1e10	8	-1E+10	1	-1E+10	1	-1E+10	1	-1E+10	1	-1E+10	1	-1E+10	1
4902554	36	C	01/31/2022	08:56	-136.203	49.505	0	273.10	0	4.7300	0	33.8430	0	26.791	0	270.592	0	-1e10	8	-1e10	8	-1E+10	1	-1E+10	1	-1E+10	1	-1E+10	1	-1E+10	1	-1E+10	1
4902554	36	C	01/31/2022	08:56	-136.203	49.505	0	274.10	0	4.7290	0	33.8440	0	26.792	0	271.582	0	-1e10	8	-1e10	8	-1E+10	1	-1E+10	1	-1E+10	1	-1E+10	1	-1E+10	1	-1E+10	1
4902554	36	C	01/31/2022	08:56	-136.203	49.505	0	275.00	0	4.7270	0	33.8440	0	26.792	0	272.473	0	-1e10	8	-1e10	8	-1E+10	1	-1E+10	1	-1E+10	1	-1E+10	1	-1E+10	1	-1E+10	1
4902554	36	C	01/31/2022	08:56	-136.203	49.505	0	276.00	0	4.7250	0	33.8440	0	26.792	0	273.464	0	-1e10	8	-1e10	8	-1E+10	1	-1E+10	1	-1E+10	1	-1E+10	1	-1E+10	1	-1E+10	1
4902554	36	C	01/31/2022	08:56	-136.203	49.505	0	276.90	0	4.7250	0	33.8440	0	26.792	0	274.355	0	-1e10	8	-1e10	8	-1E+10	1	-1E+10	1	-1E+10	1	-1E+10	1	-1E+10	1	-1E+10	1
4902554	36	C	01/31/2022	08:56	-136.203	49.505	0	277.90	0	4.7240	0	33.8440	0	26.792	0	275.345	0	-1e10	8	-1e10	8	-1E+10	1	-1E+10	1	-1E+10	1	-1E+10	1	-1E+10	1	-1E+10	1
4902554	36	C	01/31/2022	08:56	-136.203	49.505	0	278.90	0	4.7230	0	33.8450	0	26.793	0	276.335	0	-1e10	8	-1e10	8	-1E+10	1	-1E+10	1	-1E+10	1	-1E+10	1	-1E+10	1	-1E+10	1
4902554	36	C	01/31/2022	08:56	-136.203	49.505	0	279.80	0	4.7210	0	33.8450	0	26.793	0	277.226	0	-1e10	8	-1e10	8	-1E+10	1	-1E+10	1	-1E+10	1	-1E+10	1	-1E+10	1	-1E+10	1
4902554	36	C	01/31/2022	08:56	-136.203	49.505	0	280.70	0	4.7140	0	33.8470	0	26.796	0	278.117	0	-1e10	8	-1e10	8	-1E+10	1	-1E+10	1	-1E+10	1	-1E+10	1	-1E+10	1	-1E+10	1
4902554	36	C	01/31/2022	08:56	-136.203	49.505	0	281.70	0	4.6950	0	33.8520	0	26.802	0	279.107	0	-1e10	8	-1e10	8	-1E+10	1	-1E+10	1	-1E+10	1	-1E+10	1	-1E+10	1	-1E+10	1
4902554	36	C	01/31/2022	08:56	-136.203	49.505	0	282.60	0	4.6900	0	33.8520	0	26.802	0	279.998	0	-1e10	8	-1e10	8	-1E+10	1	-1E+10	1	-1E+10	1	-1E+10	1	-1E+10	1	-1E+10	1
4902554	36	C	01/31/2022	08:56	-136.203	49.505	0	283.60	0	4.6850	0	33.8520	0	26.803	0	280.989	0	-1e10	8	-1e10	8	-1E+10	1	-1E+10	1	-1E+10	1	-1E+10	1	-1E+10	1	-1E+10	1
4902554	36	C	01/31/2022	08:56	-136.203	49.505	0	284.60	0	4.6800	0	33.8540	0	26.805	0	281.979	0	-1e10	8	-1e10	8	-1E+10	1	-1E+10	1	-1E+10	1	-1E+10	1	-1E+10	1	-1E+10	1
4902554	36	C	01/31/2022	08:56	-136.203	49.505	0	285.50	0	4.6670	0	33.8560	0	26.808	0	282.870	0	-1e10	8	-1e10	8	-1E+10	1	-1E+10	1	-1E+10	1	-1E+10	1	-1E+10	1	-1E+10	1
4902554	36	C	01/31/2022	08:56	-136.203	49.505	0	286.50	0	4.6640	0	33.8570	0	26.809	0	283.860	0	-1e10	8	-1e10	8	-1E+10	1	-1E+10	1	-1E+10	1	-1E+10	1	-1E+10	1	-1E+10	1
4902554	36	C	01/31/2022	08:56	-136.203	49.505	0	287.90	0	4.6560	0	33.8590	0	26.812	0	285.246	0	-1e10	8	-1e10	8	-1E+10	1	-1E+10	1	-1E+10	1	-1E+10	1	-1E+10	1	-1E+10	1
4902554	36	C	01/31/2022	08:56	-136.203	49.505	0	289.40	0	4.6520	0	33.8600	0	26.813	0	286.731	0	-1e10	8	-1e10	8	-1E+10	1	-1E+10	1	-1E+10	1	-1E+10	1	-1E+10	1	-1E+10	1
4902554	36	C	01/31/2022	08:56	-136.203	49.505	0	290.40	0	4.6510	0	33.8600	0	26.813	0	287.721	0	-1e10	8	-1e10	8	-1E+10	1	-1E+10	1	-1E+10	1	-1E+10	1	-1E+10	1	-1E+10	1
4902554	36	C	01/31/2022	08:56	-136.203	49.505	0	291.30	0	4.6470	0	33.8620	0	26.815	0	288.612	0	-1e10	8	-1e10	8	-1E+10	1	-1E+10	1	-1E+10	1	-1E+10	1	-1E+10	1	-1E+10	1
4902554	36	C	01/31/2022	08:56	-136.203	49.505	0	292.30	0	4.6470	0	33.8630	0	26.816	0	289.602	0	-1e10	8	-1e10	8	-1E+10	1	-1E+10	1	-1E+10	1	-1E+10	1	-1E+10	1	-1E+10	1
4902554	36	C	01/31/2022	08:56	-136.203	49.505	0	293.50	0	4.6480	0	33.8630	0	26.816	0	290.790	0	-1e10	8	-1e10	8	-1E+10	1	-1E+10	1	-1E+10	1	-1E+10	1	-1E+10	1	-1E+10	1
4902554	36	C	01/31/2022	08:56	-136.203	49.505	0	294.90	0	4.6430	0	33.8630	0	26.816	0	292.177	0	-1e10	8	-1e10	8	-1E+10	1	-1E+10	1	-1E+10	1	-1E+10	1	-1E+10	1	-1E+10	1
4902554	36	C	01/31/2022	08:56	-136.203	49.505	0	296.40	0	4.6380	0	33.8650	0	26.818	0	293.662	0	-1e10	8	-1e10	8	-1E+10	1	-1E+10	1	-1E+10	1	-1E+10	1	-1E+10	1	-1E+10	1
4902554	36	C	01/31/2022	08:56	-136.203	49.505	0	297.40	0	4.6370	0	33.8650	0	26.818	0	294.652	0	-1e10	8	-1e10	8	-1E+10	1	-1E+10	1	-1E+10	1	-1E+10	1	-1E+10	1	-1E+10	1
4902554	36	C	01/31/2022	08:56	-136.203	49.505	0	298.40	0	4.6380	0	33.8650	0	26.818	0	295.642	0	-1e10	8	-1e10	8	-1E+10	1	-1E+10	1	-1E+10	1	-1E+10	1	-1E+10	1	-1E+10	1
4902554	36	C	01/31/2022	08:56	-136.203	49.505	0	299.40	0	4.6360	0	33.8650	0	26.819	0	296.632	0	-1e10	8	-1e10	8	-1E+10	1	-1E+10	1	-1E+10	1	-1E+10	1	-1E+10	1	-1E+10	1
4902554	36	C	01/31/2022	08:56	-136.203	49.505	0	300.40	0	4.6350	0	33.8650	0	26.819	0	297.622	0	-1e10	8	-1e10	8	-1E+10	1	-1E+10	1	-1E+10	1	-1E+10	1	-1E+10	1	-1E+10	1
4902554	36	C	01/31/2022	08:56	-136.203	49.505	0	301.40	0	4.6330	0	33.8660	0	26.820	0	298.612	0	-1e10	8	-1e10	8	-1E+10	1	-1E+10	1	-1E+10	1	-1E+10	1	-1E+10	1	-1E+10	1
4902554	36	C	01/31/2022	08:56	-136.203	49.505	0	302.40	0	4.6280	0	33.8660	0	26.820	0	299.602	0	-1e10	8	-1e10	8	-1E+10	1	-1E+10	1	-1E+10	1	-1E+10	1	-1E+10	1	-1E+10	1
4902554	36	C	01/31/2022	08:56	-136.203	49.505	0	303.40	0	4.6250	0	33.8670	0	26.821	0	300.592	0	-1e10	8	-1e10	8	-1E+10	1	-1E+10	1	-1E+10	1	-1E+10	1	-1E+10	1	-1E+10	1
4902554	36	C	01/31/2022	08:56	-136.203	49.505	0	304.40	0	4.6170	0	33.8680	0	26.823	0	301.582	0	-1e10	8	-1e10	8	-1E+10	1	-1E+10	1	-1E+10	1	-1E+10	1	-1E+10	1	-1E+10	1
4902554	36	C	01/31/2022	08:56	-136.203	49.505	0	305.40	0	4.6090	0	33.8720	0	26.827	0	302.572	0	-1e10	8	-1e10	8	-1E+10	1	-1E+10	1	-1E+10	1	-1E+10	1	-1E+10	1	-1E+10	1
4902554	36	C	01/31/2022	08:56	-136.203	49.505	0	306.40	0	4.6070	0	33.8730	0	26.828	0	303.562	0	-1e10	8	-1e10	8	-1E+10	1	-1E+10	1	-1E+10	1	-1E+10	1	-1E+10	1	-1E+10	1
4902554	36	C	01/31/2022	08:56	-136.203	49.505	0	307.40	0	4.6020	0	33.8750	0	26.830	0	304.552	0	-1e10	8	-1e10	8	-1E+10	1	-1E+10	1	-1E+10	1	-1E+10	1	-1E+10	1	-1E+10	1
4902554	36	C	01/31/2022	08:56	-136.203	49.505	0	308.50	0	4.5980	0	33.8750	0	26.831	0	305.641	0	-1e10	8	-1e10	8	-1E+10	1	-1E+10	1	-1E+10	1	-1E+10	1	-1E+10	1	-1E+10	1
4902554	36	C	01/31/2022	08:56	-136.203	49.505	0	309.50	0	4.5880	0	33.8780	0	26.834	0	306.631	0	-1e10	8	-1e10	8	-1E+10	1	-1E+10	1	-1E+10	1	-1E+10	1	-1E+10	1	-1E+10	1
4902554	36	C	01/31/2022	08:56	-136.203	49.505	0	310.50	0	4.5810	0	33.8810	0	26.837	0	307.621	0	-1e10	8	-1e10	8	-1E+10	1	-1E+10	1	-1E+10	1	-1E+10	1	-1E+10	1	-1E+10	1
4902554	36	C	01/31/2022	08:56	-136.203	49.505	0	311.50	0	4.5800	0	33.8800	0	26.837	0	308.611	0	-1e10	8	-1e10	8	-1E+10	1	-1E+10	1	-1E+10	1	-1E+10	1	-1E+10	1	-1E+10	1
4902554	36	C	01/31/2022	08:56	-136.203	49.505	0	312.50	0	4.5750	0	33.8820	0	26.839	0	309.601	0	-1e10	8	-1e10	8	-1E+10	1	-1E+10	1	-1E+10	1	-1E+10	1	-1E+10	1	-1E+10	1
4902554	36	C	01/31/2022	08:56	-136.203	49.505	0	313.50	0	4.5670	0	33.8850	0	26.842	0	310.591	0	-1e10	8	-1e10	8	-1E+10	1	-1E+10	1	-1E+10	1	-1E+10	1	-1E+10	1	-1E+10	1
4902554	36	C	01/31/2022	08:56	-136.203	49.505	0	314.60	0	4.5570	0	33.8880	0	26.846	0	311.680	0	-1e10	8	-1e10	8	-1E+10	1	-1E+10	1	-1E+10	1	-1E+10	1	-1E+10	1	-1E+10	1
4902554	36	C	01/31/2022	08:56	-136.203	49.505	0	315.60	0	4.5550	0	33.8880	0	26.846	0	312.670	0	-1e10	8	-1e10	8	-1E+10	1	-1E+10	1	-1E+10	1	-1E+10	1	-1E+10	1	-1E+10	1
4902554	36	C	01/31/2022	08:56	-136.203	49.505	0	316.60	0	4.5540	0	33.8880	0	26.846	0	313.660	0	-1e10	8	-1e10	8	-1E+10	1	-1E+10	1	-1E+10	1	-1E+10	1	-1E+10	1	-1E+10	1
4902554	36	C	01/31/2022	08:56	-136.203	49.505	0	317.60	0	4.5500	0	33.8890	0	26.847	0	314.650	0	-1e10	8	-1e10	8	-1E+10	1	-1E+10	1	-1E+10	1	-1E+10	1	-1E+10	1	-1E+10	1
4902554	36	C	01/31/2022	08:56	-136.203	49.505	0	318.70	0	4.5480	0	33.8900	0	26.848	0	315.739	0	-1e10	8	-1e10	8	-1E+10	1	-1E+10	1	-1E+10	1	-1E+10	1	-1E+10	1	-1E+10	1
4902554	36	C	01/31/2022	08:56	-136.203	49.505	0	319.70	0	4.5450	0	33.8910	0	26.849	0	316.729	0	-1e10	8	-1e10	8	-1E+10	1	-1E+10	1	-1E+10	1	-1E+10	1	-1E+10	1	-1E+10	1
4902554	36	C	01/31/2022	08:56	-136.203	49.505	0	320.70	0	4.5420	0	33.8910	0	26.850	0	317.718	0	-1e10	8	-1e10	8	-1E+10	1	-1E+10	1	-1E+10	1	-1E+10	1	-1E+10	1	-1E+10	1
4902554	36	C	01/31/2022	08:56	-136.203	49.505	0	321.70	0	4.5290	0	33.8960	0	26.855	0	318.708	0	-1e10	8	-1e10	8	-1E+10	1	-1E+10	1	-1E+10	1	-1E+10	1	-1E+10	1	-1E+10	1
4902554	36	C	01/31/2022	08:56	-136.203	49.505	0	322.80	0	4.5210	0	33.9000	0	26.859	0	319.797	0	-1e10	8	-1e10	8	-1E+10	1	-1E+10	1	-1E+10	1	-1E+10	1	-1E+10	1	-1E+10	1
4902554	36	C	01/31/2022	08:56	-136.203	49.505	0	323.80	0	4.5170	0	33.9020	0	26.861	0	320.787	0	-1e10	8	-1e10	8	-1E+10	1	-1E+10	1	-1E+10	1	-1E+10	1	-1E+10	1	-1E+10	1
4902554	36	C	01/31/2022	08:56	-136.203	49.505	0	324.90	0	4.5110	0	33.9040	0	26.863	0	321.876	0	-1e10	8	-1e10	8	-1E+10	1	-1E+10	1	-1E+10	1	-1E+10	1	-1E+10	1	-1E+10	1
4902554	36	C	01/31/2022	08:56	-136.203	49.505	0	325.90	0	4.5090	0	33.9040	0	26.864	0	322.866	0	-1e10	8	-1e10	8	-1E+10	1	-1E+10	1	-1E+10	1	-1E+10	1	-1E+10	1	-1E+10	1
4902554	36	C	01/31/2022	08:56	-136.203	49.505	0	326.90	0	4.5060	0	33.9060	0	26.865	0	323.856	0	-1e10	8	-1e10	8	-1E+10	1	-1E+10	1	-1E+10	1	-1E+10	1	-1E+10	1	-1E+10	1
4902554	36	C	01/31/2022	08:56	-136.203	49.505	0	327.90	0	4.4980	0	33.9090	0	26.869	0	324.846	0	-1e10	8	-1e10	8	-1E+10	1	-1E+10	1	-1E+10	1	-1E+10	1	-1E+10	1	-1E+10	1
4902554	36	C	01/31/2022	08:56	-136.203	49.505	0	328.90	0	4.4980	0	33.9090	0	26.869	0	325.836	0	-1e10	8	-1e10	8	-1E+10	1	-1E+10	1	-1E+10	1	-1E+10	1	-1E+10	1	-1E+10	1
4902554	36	C	01/31/2022	08:56	-136.203	49.505	0	329.90	0	4.5000	0	33.9140	0	26.872	0	326.826	0	-1e10	8	-1e10	8	-1E+10	1	-1E+10	1	-1E+10	1	-1E+10	1	-1E+10	1	-1E+10	1
4902554	36	C	01/31/2022	08:56	-136.203	49.505	0	330.80	0	4.4980	0	33.9160	0	26.874	0	327.717	0	-1e10	8	-1e10	8	-1E+10	1	-1E+10	1	-1E+10	1	-1E+10	1	-1E+10	1	-1E+10	1
4902554	36	C	01/31/2022	08:56	-136.203	49.505	0	332.00	0	4.4950	0	33.9180	0	26.876	0	328.904	0	-1e10	8	-1e10	8	-1E+10	1	-1E+10	1	-1E+10	1	-1E+10	1	-1E+10	1	-1E+10	1
4902554	36	C	01/31/2022	08:56	-136.203	49.505	0	333.20	0	4.4930	0	33.9200	0	26.878	0	330.092	0	-1e10	8	-1e10	8	-1E+10	1	-1E+10	1	-1E+10	1	-1E+10	1	-1E+10	1	-1E+10	1
4902554	36	C	01/31/2022	08:56	-136.203	49.505	0	334.00	0	4.4930	0	33.9200	0	26.878	0	330.884	0	-1e10	8	-1e10	8	-1E+10	1	-1E+10	1	-1E+10	1	-1E+10	1	-1E+10	1	-1E+10	1
4902554	36	C	01/31/2022	08:56	-136.203	49.505	0	334.70	0	4.4920	0	33.9200	0	26.878	0	331.577	0	-1e10	8	-1e10	8	-1E+10	1	-1E+10	1	-1E+10	1	-1E+10	1	-1E+10	1	-1E+10	1
4902554	36	C	01/31/2022	08:56	-136.203	49.505	0	335.90	0	4.4890	0	33.9220	0	26.880	0	332.765	0	-1e10	8	-1e10	8	-1E+10	1	-1E+10	1	-1E+10	1	-1E+10	1	-1E+10	1	-1E+10	1
4902554	36	C	01/31/2022	08:56	-136.203	49.505	0	337.10	0	4.4850	0	33.9250	0	26.883	0	333.953	0	-1e10	8	-1e10	8	-1E+10	1	-1E+10	1	-1E+10	1	-1E+10	1	-1E+10	1	-1E+10	1
4902554	36	C	01/31/2022	08:56	-136.203	49.505	0	337.90	0	4.4820	0	33.9270	0	26.885	0	334.745	0	-1e10	8	-1e10	8	-1E+10	1	-1E+10	1	-1E+10	1	-1E+10	1	-1E+10	1	-1E+10	1
4902554	36	C	01/31/2022	08:56	-136.203	49.505	0	338.70	0	4.4810	0	33.9270	0	26.885	0	335.537	0	-1e10	8	-1e10	8	-1E+10	1	-1E+10	1	-1E+10	1	-1E+10	1	-1E+10	1	-1E+10	1
4902554	36	C	01/31/2022	08:56	-136.203	49.505	0	339.90	0	4.4780	0	33.9300	0	26.888	0	336.724	0	-1e10	8	-1e10	8	-1E+10	1	-1E+10	1	-1E+10	1	-1E+10	1	-1E+10	1	-1E+10	1
4902554	36	C	01/31/2022	08:56	-136.203	49.505	0	341.10	0	4.4730	0	33.9320	0	26.890	0	337.912	0	-1e10	8	-1e10	8	-1E+10	1	-1E+10	1	-1E+10	1	-1E+10	1	-1E+10	1	-1E+10	1
4902554	36	C	01/31/2022	08:56	-136.203	49.505	0	341.90	0	4.4730	0	33.9320	0	26.890	0	338.704	0	-1e10	8	-1e10	8	-1E+10	1	-1E+10	1	-1E+10	1	-1E+10	1	-1E+10	1	-1E+10	1
4902554	36	C	01/31/2022	08:56	-136.203	49.505	0	342.70	0	4.4650	0	33.9370	0	26.895	0	339.496	0	-1e10	8	-1e10	8	-1E+10	1	-1E+10	1	-1E+10	1	-1E+10	1	-1E+10	1	-1E+10	1
4902554	36	C	01/31/2022	08:56	-136.203	49.505	0	343.90	0	4.4580	0	33.9380	0	26.896	0	340.684	0	-1e10	8	-1e10	8	-1E+10	1	-1E+10	1	-1E+10	1	-1E+10	1	-1E+10	1	-1E+10	1
4902554	36	C	01/31/2022	08:56	-136.203	49.505	0	345.20	0	4.4510	0	33.9400	0	26.899	0	341.970	0	-1e10	8	-1e10	8	-1E+10	1	-1E+10	1	-1E+10	1	-1E+10	1	-1E+10	1	-1E+10	1
4902554	36	C	01/31/2022	08:56	-136.203	49.505	0	346.00	0	4.4490	0	33.9400	0	26.899	0	342.762	0	-1e10	8	-1e10	8	-1E+10	1	-1E+10	1	-1E+10	1	-1E+10	1	-1E+10	1	-1E+10	1
4902554	36	C	01/31/2022	08:56	-136.203	49.505	0	346.80	0	4.4490	0	33.9400	0	26.899	0	343.554	0	-1e10	8	-1e10	8	-1E+10	1	-1E+10	1	-1E+10	1	-1E+10	1	-1E+10	1	-1E+10	1
4902554	36	C	01/31/2022	08:56	-136.203	49.505	0	348.00	0	4.4470	0	33.9400	0	26.899	0	344.742	0	-1e10	8	-1e10	8	-1E+10	1	-1E+10	1	-1E+10	1	-1E+10	1	-1E+10	1	-1E+10	1
4902554	36	C	01/31/2022	08:56	-136.203	49.505	0	349.30	0	4.4410	0	33.9410	0	26.900	0	346.029	0	-1e10	8	-1e10	8	-1E+10	1	-1E+10	1	-1E+10	1	-1E+10	1	-1E+10	1	-1E+10	1
4902554	36	C	01/31/2022	08:56	-136.203	49.505	0	350.10	0	4.4390	0	33.9420	0	26.901	0	346.821	0	-1e10	8	-1e10	8	-1E+10	1	-1E+10	1	-1E+10	1	-1E+10	1	-1E+10	1	-1E+10	1
4902554	36	C	01/31/2022	08:56	-136.203	49.505	0	353.00	0	4.4350	0	33.9430	0	26.903	0	349.691	0	-1e10	8	-1e10	8	-1E+10	1	-1E+10	1	-1E+10	1	-1E+10	1	-1E+10	1	-1E+10	1
4902554	36	C	01/31/2022	08:56	-136.203	49.505	0	358.10	0	4.4300	0	33.9510	0	26.910	0	354.739	0	-1e10	8	-1e10	8	-1E+10	1	-1E+10	1	-1E+10	1	-1E+10	1	-1E+10	1	-1E+10	1
4902554	36	C	01/31/2022	08:56	-136.203	49.505	0	363.00	0	4.4220	0	33.9550	0	26.914	0	359.589	0	-1e10	8	-1e10	8	-1E+10	1	-1E+10	1	-1E+10	1	-1E+10	1	-1E+10	1	-1E+10	1
4902554	36	C	01/31/2022	08:56	-136.203	49.505	0	368.00	0	4.3980	0	33.9590	0	26.919	0	364.537	0	-1e10	8	-1e10	8	-1E+10	1	-1E+10	1	-1E+10	1	-1E+10	1	-1E+10	1	-1E+10	1
4902554	36	C	01/31/2022	08:56	-136.203	49.505	0	373.00	0	4.3910	0	33.9620	0	26.923	0	369.486	0	-1e10	8	-1e10	8	-1E+10	1	-1E+10	1	-1E+10	1	-1E+10	1	-1E+10	1	-1E+10	1
4902554	36	C	01/31/2022	08:56	-136.203	49.505	0	378.00	0	4.3760	0	33.9660	0	26.927	0	374.434	0	-1e10	8	-1e10	8	-1E+10	1	-1E+10	1	-1E+10	1	-1E+10	1	-1E+10	1	-1E+10	1
4902554	36	C	01/31/2022	08:56	-136.203	49.505	0	383.20	0	4.3670	0	33.9730	0	26.934	0	379.580	0	-1e10	8	-1e10	8	-1E+10	1	-1E+10	1	-1E+10	1	-1E+10	1	-1E+10	1	-1E+10	1
4902554	36	C	01/31/2022	08:56	-136.203	49.505	0	388.10	0	4.3620	0	33.9790	0	26.939	0	384.429	0	-1e10	8	-1e10	8	-1E+10	1	-1E+10	1	-1E+10	1	-1E+10	1	-1E+10	1	-1E+10	1
4902554	36	C	01/31/2022	08:56	-136.203	49.505	0	393.00	0	4.3560	0	33.9820	0	26.942	0	389.278	0	-1e10	8	-1e10	8	-1E+10	1	-1E+10	1	-1E+10	1	-1E+10	1	-1E+10	1	-1E+10	1
4902554	36	C	01/31/2022	08:56	-136.203	49.505	0	397.90	0	4.3500	0	33.9860	0	26.946	0	394.127	0	-1e10	8	-1e10	8	-1E+10	1	-1E+10	1	-1E+10	1	-1E+10	1	-1E+10	1	-1E+10	1
4902554	36	C	01/31/2022	08:56	-136.203	49.505	0	402.80	0	4.3480	0	33.9900	0	26.950	0	398.976	0	-1e10	8	-1e10	8	-1E+10	1	-1E+10	1	-1E+10	1	-1E+10	1	-1E+10	1	-1E+10	1
4902554	36	C	01/31/2022	08:56	-136.203	49.505	0	407.80	0	4.3460	0	33.9950	0	26.954	0	403.924	0	-1e10	8	-1e10	8	-1E+10	1	-1E+10	1	-1E+10	1	-1E+10	1	-1E+10	1	-1E+10	1
4902554	36	C	01/31/2022	08:56	-136.203	49.505	0	412.80	0	4.3340	0	34.0010	0	26.960	0	408.871	0	-1e10	8	-1e10	8	-1E+10	1	-1E+10	1	-1E+10	1	-1E+10	1	-1E+10	1	-1E+10	1
4902554	36	C	01/31/2022	08:56	-136.203	49.505	0	417.80	0	4.3210	0	34.0060	0	26.965	0	413.819	0	-1e10	8	-1e10	8	-1E+10	1	-1E+10	1	-1E+10	1	-1E+10	1	-1E+10	1	-1E+10	1
4902554	36	C	01/31/2022	08:56	-136.203	49.505	0	422.80	0	4.3130	0	34.0100	0	26.969	0	418.766	0	-1e10	8	-1e10	8	-1E+10	1	-1E+10	1	-1E+10	1	-1E+10	1	-1E+10	1	-1E+10	1
4902554	36	C	01/31/2022	08:56	-136.203	49.505	0	427.80	0	4.3030	0	34.0180	0	26.977	0	423.713	0	-1e10	8	-1e10	8	-1E+10	1	-1E+10	1	-1E+10	1	-1E+10	1	-1E+10	1	-1E+10	1
4902554	36	C	01/31/2022	08:56	-136.203	49.505	0	432.90	0	4.2900	0	34.0250	0	26.984	0	428.759	0	-1e10	8	-1e10	8	-1E+10	1	-1E+10	1	-1E+10	1	-1E+10	1	-1E+10	1	-1E+10	1
4902554	36	C	01/31/2022	08:56	-136.203	49.505	0	437.90	0	4.2820	0	34.0290	0	26.988	0	433.706	0	-1e10	8	-1e10	8	-1E+10	1	-1E+10	1	-1E+10	1	-1E+10	1	-1E+10	1	-1E+10	1
4902554	36	C	01/31/2022	08:56	-136.203	49.505	0	443.00	0	4.2700	0	34.0330	0	26.992	0	438.752	0	-1e10	8	-1e10	8	-1E+10	1	-1E+10	1	-1E+10	1	-1E+10	1	-1E+10	1	-1E+10	1
4902554	36	C	01/31/2022	08:56	-136.203	49.505	0	448.00	0	4.2590	0	34.0370	0	26.997	0	443.699	0	-1e10	8	-1e10	8	-1E+10	1	-1E+10	1	-1E+10	1	-1E+10	1	-1E+10	1	-1E+10	1
4902554	36	C	01/31/2022	08:56	-136.203	49.505	0	453.10	0	4.2460	0	34.0430	0	27.003	0	448.744	0	-1e10	8	-1e10	8	-1E+10	1	-1E+10	1	-1E+10	1	-1E+10	1	-1E+10	1	-1E+10	1
4902554	36	C	01/31/2022	08:56	-136.203	49.505	0	458.20	0	4.2340	0	34.0500	0	27.010	0	453.790	0	-1e10	8	-1e10	8	-1E+10	1	-1E+10	1	-1E+10	1	-1E+10	1	-1E+10	1	-1E+10	1
4902554	36	C	01/31/2022	08:56	-136.203	49.505	0	463.30	0	4.2230	0	34.0550	0	27.015	0	458.835	0	-1e10	8	-1e10	8	-1E+10	1	-1E+10	1	-1E+10	1	-1E+10	1	-1E+10	1	-1E+10	1
4902554	36	C	01/31/2022	08:56	-136.203	49.505	0	467.90	0	4.2220	0	34.0580	0	27.017	0	463.386	0	-1e10	8	-1e10	8	-1E+10	1	-1E+10	1	-1E+10	1	-1E+10	1	-1E+10	1	-1E+10	1
4902554	36	C	01/31/2022	08:56	-136.203	49.505	0	472.50	0	4.2220	0	34.0600	0	27.019	0	467.936	0	-1e10	8	-1e10	8	-1E+10	1	-1E+10	1	-1E+10	1	-1E+10	1	-1E+10	1	-1E+10	1
4902554	36	C	01/31/2022	08:56	-136.203	49.505	0	477.60	0	4.2170	0	34.0620	0	27.021	0	472.981	0	-1e10	8	-1e10	8	-1E+10	1	-1E+10	1	-1E+10	1	-1E+10	1	-1E+10	1	-1E+10	1
4902554	36	C	01/31/2022	08:56	-136.203	49.505	0	482.80	0	4.2070	0	34.0680	0	27.027	0	478.125	0	-1e10	8	-1e10	8	-1E+10	1	-1E+10	1	-1E+10	1	-1E+10	1	-1E+10	1	-1E+10	1
4902554	36	C	01/31/2022	08:56	-136.203	49.505	0	487.90	0	4.2000	0	34.0720	0	27.031	0	483.169	0	-1e10	8	-1e10	8	-1E+10	1	-1E+10	1	-1E+10	1	-1E+10	1	-1E+10	1	-1E+10	1
4902554	36	C	01/31/2022	08:56	-136.203	49.505	0	492.80	0	4.1870	0	34.0760	0	27.036	0	488.016	0	-1e10	8	-1e10	8	-1E+10	1	-1E+10	1	-1E+10	1	-1E+10	1	-1E+10	1	-1E+10	1
4902554	36	C	01/31/2022	08:56	-136.203	49.505	0	497.80	0	4.1750	0	34.0820	0	27.042	0	492.962	0	-1e10	8	-1e10	8	-1E+10	1	-1E+10	1	-1E+10	1	-1E+10	1	-1E+10	1	-1E+10	1
4902554	36	C	01/31/2022	08:56	-136.203	49.505	0	502.90	0	4.1650	0	34.0850	0	27.045	0	498.006	0	-1e10	8	-1e10	8	-1E+10	1	-1E+10	1	-1E+10	1	-1E+10	1	-1E+10	1	-1E+10	1
4902554	36	C	01/31/2022	08:56	-136.203	49.505	0	507.70	0	4.1600	0	34.0870	0	27.047	0	502.753	0	-1e10	8	-1e10	8	-1E+10	1	-1E+10	1	-1E+10	1	-1E+10	1	-1E+10	1	-1E+10	1
4902554	36	C	01/31/2022	08:56	-136.203	49.505	0	513.00	0	4.1440	0	34.0880	0	27.050	0	507.995	0	-1e10	8	-1e10	8	-1E+10	1	-1E+10	1	-1E+10	1	-1E+10	1	-1E+10	1	-1E+10	1
4902554	36	C	01/31/2022	08:56	-136.203	49.505	0	518.20	0	4.1290	0	34.0920	0	27.055	0	513.138	0	-1e10	8	-1e10	8	-1E+10	1	-1E+10	1	-1E+10	1	-1E+10	1	-1E+10	1	-1E+10	1
4902554	36	C	01/31/2022	08:56	-136.203	49.505	0	523.20	0	4.1200	0	34.0970	0	27.059	0	518.083	0	-1e10	8	-1e10	8	-1E+10	1	-1E+10	1	-1E+10	1	-1E+10	1	-1E+10	1	-1E+10	1
4902554	36	C	01/31/2022	08:56	-136.203	49.505	0	527.90	0	4.1080	0	34.1010	0	27.064	0	522.731	0	-1e10	8	-1e10	8	-1E+10	1	-1E+10	1	-1E+10	1	-1E+10	1	-1E+10	1	-1E+10	1
4902554	36	C	01/31/2022	08:56	-136.203	49.505	0	532.60	0	4.0880	0	34.1050	0	27.069	0	527.379	0	-1e10	8	-1e10	8	-1E+10	1	-1E+10	1	-1E+10	1	-1E+10	1	-1E+10	1	-1E+10	1
4902554	36	C	01/31/2022	08:56	-136.203	49.505	0	537.80	0	4.0660	0	34.1100	0	27.075	0	532.522	0	-1e10	8	-1e10	8	-1E+10	1	-1E+10	1	-1E+10	1	-1E+10	1	-1E+10	1	-1E+10	1
4902554	36	C	01/31/2022	08:56	-136.203	49.505	0	542.70	0	4.0510	0	34.1140	0	27.080	0	537.367	0	-1e10	8	-1e10	8	-1E+10	1	-1E+10	1	-1E+10	1	-1E+10	1	-1E+10	1	-1E+10	1
4902554	36	C	01/31/2022	08:56	-136.203	49.505	0	547.70	0	4.0400	0	34.1180	0	27.085	0	542.312	0	-1e10	8	-1e10	8	-1E+10	1	-1E+10	1	-1E+10	1	-1E+10	1	-1E+10	1	-1E+10	1
4902554	36	C	01/31/2022	08:56	-136.203	49.505	0	552.70	0	4.0270	0	34.1240	0	27.091	0	547.256	0	-1e10	8	-1e10	8	-1E+10	1	-1E+10	1	-1E+10	1	-1E+10	1	-1E+10	1	-1E+10	1
4902554	36	C	01/31/2022	08:56	-136.203	49.505	0	557.70	0	4.0110	0	34.1300	0	27.097	0	552.200	0	-1e10	8	-1e10	8	-1E+10	1	-1E+10	1	-1E+10	1	-1E+10	1	-1E+10	1	-1E+10	1
4902554	36	C	01/31/2022	08:56	-136.203	49.505	0	562.90	0	4.0030	0	34.1360	0	27.103	0	557.342	0	-1e10	8	-1e10	8	-1E+10	1	-1E+10	1	-1E+10	1	-1E+10	1	-1E+10	1	-1E+10	1
4902554	36	C	01/31/2022	08:56	-136.203	49.505	0	567.60	0	3.9990	0	34.1390	0	27.106	0	561.989	0	-1e10	8	-1e10	8	-1E+10	1	-1E+10	1	-1E+10	1	-1E+10	1	-1E+10	1	-1E+10	1
4902554	36	C	01/31/2022	08:56	-136.203	49.505	0	572.90	0	3.9870	0	34.1440	0	27.111	0	567.229	0	-1e10	8	-1e10	8	-1E+10	1	-1E+10	1	-1E+10	1	-1E+10	1	-1E+10	1	-1E+10	1
4902554	36	C	01/31/2022	08:56	-136.203	49.505	0	578.10	0	3.9820	0	34.1470	0	27.114	0	572.371	0	-1e10	8	-1e10	8	-1E+10	1	-1E+10	1	-1E+10	1	-1E+10	1	-1E+10	1	-1E+10	1
4902554	36	C	01/31/2022	08:56	-136.203	49.505	0	582.90	0	3.9770	0	34.1480	0	27.115	0	577.116	0	-1e10	8	-1e10	8	-1E+10	1	-1E+10	1	-1E+10	1	-1E+10	1	-1E+10	1	-1E+10	1
4902554	36	C	01/31/2022	08:56	-136.203	49.505	0	587.60	0	3.9590	0	34.1530	0	27.121	0	581.763	0	-1e10	8	-1e10	8	-1E+10	1	-1E+10	1	-1E+10	1	-1E+10	1	-1E+10	1	-1E+10	1
4902554	36	C	01/31/2022	08:56	-136.203	49.505	0	592.80	0	3.9490	0	34.1580	0	27.126	0	586.904	0	-1e10	8	-1e10	8	-1E+10	1	-1E+10	1	-1E+10	1	-1E+10	1	-1E+10	1	-1E+10	1
4902554	36	C	01/31/2022	08:56	-136.203	49.505	0	598.00	0	3.9430	0	34.1630	0	27.131	0	592.045	0	-1e10	8	-1e10	8	-1E+10	1	-1E+10	1	-1E+10	1	-1E+10	1	-1E+10	1	-1E+10	1
4902554	36	C	01/31/2022	08:56	-136.203	49.505	0	602.60	0	3.9330	0	34.1670	0	27.135	0	596.593	0	-1e10	8	-1e10	8	-1E+10	1	-1E+10	1	-1E+10	1	-1E+10	1	-1E+10	1	-1E+10	1
4902554	36	C	01/31/2022	08:56	-136.203	49.505	0	607.80	0	3.9220	0	34.1700	0	27.138	0	601.733	0	-1e10	8	-1e10	8	-1E+10	1	-1E+10	1	-1E+10	1	-1E+10	1	-1E+10	1	-1E+10	1
4902554	36	C	01/31/2022	08:56	-136.203	49.505	0	613.00	0	3.9030	0	34.1740	0	27.144	0	606.874	0	-1e10	8	-1e10	8	-1E+10	1	-1E+10	1	-1E+10	1	-1E+10	1	-1E+10	1	-1E+10	1
4902554	36	C	01/31/2022	08:56	-136.203	49.505	0	617.70	0	3.8970	0	34.1770	0	27.147	0	611.520	0	-1e10	8	-1e10	8	-1E+10	1	-1E+10	1	-1E+10	1	-1E+10	1	-1E+10	1	-1E+10	1
4902554	36	C	01/31/2022	08:56	-136.203	49.505	0	622.90	0	3.8780	0	34.1800	0	27.151	0	616.660	0	-1e10	8	-1e10	8	-1E+10	1	-1E+10	1	-1E+10	1	-1E+10	1	-1E+10	1	-1E+10	1
4902554	36	C	01/31/2022	08:56	-136.203	49.505	0	628.10	0	3.8530	0	34.1840	0	27.157	0	621.800	0	-1e10	8	-1e10	8	-1E+10	1	-1E+10	1	-1E+10	1	-1E+10	1	-1E+10	1	-1E+10	1
4902554	36	C	01/31/2022	08:56	-136.203	49.505	0	632.80	0	3.8440	0	34.1860	0	27.159	0	626.446	0	-1e10	8	-1e10	8	-1E+10	1	-1E+10	1	-1E+10	1	-1E+10	1	-1E+10	1	-1E+10	1
4902554	36	C	01/31/2022	08:56	-136.203	49.505	0	638.00	0	3.8330	0	34.1900	0	27.163	0	631.586	0	-1e10	8	-1e10	8	-1E+10	1	-1E+10	1	-1E+10	1	-1E+10	1	-1E+10	1	-1E+10	1
4902554	36	C	01/31/2022	08:56	-136.203	49.505	0	643.30	0	3.8210	0	34.1960	0	27.169	0	636.825	0	-1e10	8	-1e10	8	-1E+10	1	-1E+10	1	-1E+10	1	-1E+10	1	-1E+10	1	-1E+10	1
4902554	36	C	01/31/2022	08:56	-136.203	49.505	0	648.00	0	3.8100	0	34.2000	0	27.174	0	641.470	0	-1e10	8	-1e10	8	-1E+10	1	-1E+10	1	-1E+10	1	-1E+10	1	-1E+10	1	-1E+10	1
4902554	36	C	01/31/2022	08:56	-136.203	49.505	0	652.80	0	3.8030	0	34.2040	0	27.178	0	646.214	0	-1e10	8	-1e10	8	-1E+10	1	-1E+10	1	-1E+10	1	-1E+10	1	-1E+10	1	-1E+10	1
4902554	36	C	01/31/2022	08:56	-136.203	49.505	0	657.70	0	3.7880	0	34.2080	0	27.182	0	651.057	0	-1e10	8	-1e10	8	-1E+10	1	-1E+10	1	-1E+10	1	-1E+10	1	-1E+10	1	-1E+10	1
4902554	36	C	01/31/2022	08:56	-136.203	49.505	0	662.50	0	3.7690	0	34.2090	0	27.185	0	655.801	0	-1e10	8	-1e10	8	-1E+10	1	-1E+10	1	-1E+10	1	-1E+10	1	-1E+10	1	-1E+10	1
4902554	36	C	01/31/2022	08:56	-136.203	49.505	0	667.90	0	3.7510	0	34.2110	0	27.189	0	661.138	0	-1e10	8	-1e10	8	-1E+10	1	-1E+10	1	-1E+10	1	-1E+10	1	-1E+10	1	-1E+10	1
4902554	36	C	01/31/2022	08:56	-136.203	49.505	0	673.30	0	3.7380	0	34.2150	0	27.193	0	666.475	0	-1e10	8	-1e10	8	-1E+10	1	-1E+10	1	-1E+10	1	-1E+10	1	-1E+10	1	-1E+10	1
4902554	36	C	01/31/2022	08:56	-136.203	49.505	0	678.00	0	3.7290	0	34.2170	0	27.196	0	671.120	0	-1e10	8	-1e10	8	-1E+10	1	-1E+10	1	-1E+10	1	-1E+10	1	-1E+10	1	-1E+10	1
4902554	36	C	01/31/2022	08:56	-136.203	49.505	0	682.90	0	3.7270	0	34.2220	0	27.200	0	675.962	0	-1e10	8	-1e10	8	-1E+10	1	-1E+10	1	-1E+10	1	-1E+10	1	-1E+10	1	-1E+10	1
4902554	36	C	01/31/2022	08:56	-136.203	49.505	0	687.90	0	3.7240	0	34.2250	0	27.202	0	680.903	0	-1e10	8	-1e10	8	-1E+10	1	-1E+10	1	-1E+10	1	-1E+10	1	-1E+10	1	-1E+10	1
4902554	36	C	01/31/2022	08:56	-136.203	49.505	0	692.70	0	3.7160	0	34.2280	0	27.206	0	685.646	0	-1e10	8	-1e10	8	-1E+10	1	-1E+10	1	-1E+10	1	-1E+10	1	-1E+10	1	-1E+10	1
4902554	36	C	01/31/2022	08:56	-136.203	49.505	0	697.90	0	3.7010	0	34.2330	0	27.211	0	690.785	0	-1e10	8	-1e10	8	-1E+10	1	-1E+10	1	-1E+10	1	-1E+10	1	-1E+10	1	-1E+10	1
4902554	36	C	01/31/2022	08:56	-136.203	49.505	0	703.30	0	3.6870	0	34.2370	0	27.216	0	696.121	0	-1e10	8	-1e10	8	-1E+10	1	-1E+10	1	-1E+10	1	-1E+10	1	-1E+10	1	-1E+10	1
4902554	36	C	01/31/2022	08:56	-136.203	49.505	0	707.90	0	3.6750	0	34.2400	0	27.219	0	700.666	0	-1e10	8	-1e10	8	-1E+10	1	-1E+10	1	-1E+10	1	-1E+10	1	-1E+10	1	-1E+10	1
4902554	36	C	01/31/2022	08:56	-136.203	49.505	0	712.60	0	3.6600	0	34.2430	0	27.223	0	705.310	0	-1e10	8	-1e10	8	-1E+10	1	-1E+10	1	-1E+10	1	-1E+10	1	-1E+10	1	-1E+10	1
4902554	36	C	01/31/2022	08:56	-136.203	49.505	0	717.80	0	3.6470	0	34.2450	0	27.226	0	710.448	0	-1e10	8	-1e10	8	-1E+10	1	-1E+10	1	-1E+10	1	-1E+10	1	-1E+10	1	-1E+10	1
4902554	36	C	01/31/2022	08:56	-136.203	49.505	0	723.00	0	3.6350	0	34.2470	0	27.229	0	715.586	0	-1e10	8	-1e10	8	-1E+10	1	-1E+10	1	-1E+10	1	-1E+10	1	-1E+10	1	-1E+10	1
4902554	36	C	01/31/2022	08:56	-136.203	49.505	0	727.90	0	3.6280	0	34.2480	0	27.230	0	720.427	0	-1e10	8	-1e10	8	-1E+10	1	-1E+10	1	-1E+10	1	-1E+10	1	-1E+10	1	-1E+10	1
4902554	36	C	01/31/2022	08:56	-136.203	49.505	0	732.70	0	3.6090	0	34.2520	0	27.236	0	725.170	0	-1e10	8	-1e10	8	-1E+10	1	-1E+10	1	-1E+10	1	-1E+10	1	-1E+10	1	-1E+10	1
4902554	36	C	01/31/2022	08:56	-136.203	49.505	0	738.10	0	3.6030	0	34.2540	0	27.238	0	730.505	0	-1e10	8	-1e10	8	-1E+10	1	-1E+10	1	-1E+10	1	-1E+10	1	-1E+10	1	-1E+10	1
4902554	36	C	01/31/2022	08:56	-136.203	49.505	0	743.10	0	3.5870	0	34.2550	0	27.240	0	735.444	0	-1e10	8	-1e10	8	-1E+10	1	-1E+10	1	-1E+10	1	-1E+10	1	-1E+10	1	-1E+10	1
4902554	36	C	01/31/2022	08:56	-136.203	49.505	0	748.00	0	3.5740	0	34.2570	0	27.243	0	740.285	0	-1e10	8	-1e10	8	-1E+10	1	-1E+10	1	-1E+10	1	-1E+10	1	-1E+10	1	-1E+10	1
4902554	36	C	01/31/2022	08:56	-136.203	49.505	0	753.00	0	3.5450	0	34.2620	0	27.250	0	745.225	0	-1e10	8	-1e10	8	-1E+10	1	-1E+10	1	-1E+10	1	-1E+10	1	-1E+10	1	-1E+10	1
4902554	36	C	01/31/2022	08:56	-136.203	49.505	0	757.90	0	3.5290	0	34.2650	0	27.254	0	750.065	0	-1e10	8	-1e10	8	-1E+10	1	-1E+10	1	-1E+10	1	-1E+10	1	-1E+10	1	-1E+10	1
4902554	36	C	01/31/2022	08:56	-136.203	49.505	0	762.90	0	3.5220	0	34.2660	0	27.255	0	755.005	0	-1e10	8	-1e10	8	-1E+10	1	-1E+10	1	-1E+10	1	-1E+10	1	-1E+10	1	-1E+10	1
4902554	36	C	01/31/2022	08:56	-136.203	49.505	0	767.80	0	3.5140	0	34.2670	0	27.257	0	759.845	0	-1e10	8	-1e10	8	-1E+10	1	-1E+10	1	-1E+10	1	-1E+10	1	-1E+10	1	-1E+10	1
4902554	36	C	01/31/2022	08:56	-136.203	49.505	0	772.80	0	3.4950	0	34.2700	0	27.261	0	764.784	0	-1e10	8	-1e10	8	-1E+10	1	-1E+10	1	-1E+10	1	-1E+10	1	-1E+10	1	-1E+10	1
4902554	36	C	01/31/2022	08:56	-136.203	49.505	0	777.80	0	3.4760	0	34.2740	0	27.266	0	769.723	0	-1e10	8	-1e10	8	-1E+10	1	-1E+10	1	-1E+10	1	-1E+10	1	-1E+10	1	-1E+10	1
4902554	36	C	01/31/2022	08:56	-136.203	49.505	0	782.80	0	3.4700	0	34.2750	0	27.268	0	774.662	0	-1e10	8	-1e10	8	-1E+10	1	-1E+10	1	-1E+10	1	-1E+10	1	-1E+10	1	-1E+10	1
4902554	36	C	01/31/2022	08:56	-136.203	49.505	0	787.80	0	3.4630	0	34.2770	0	27.270	0	779.600	0	-1e10	8	-1e10	8	-1E+10	1	-1E+10	1	-1E+10	1	-1E+10	1	-1E+10	1	-1E+10	1
4902554	36	C	01/31/2022	08:56	-136.203	49.505	0	792.80	0	3.4580	0	34.2780	0	27.271	0	784.539	0	-1e10	8	-1e10	8	-1E+10	1	-1E+10	1	-1E+10	1	-1E+10	1	-1E+10	1	-1E+10	1
4902554	36	C	01/31/2022	08:56	-136.203	49.505	0	797.70	0	3.4450	0	34.2800	0	27.274	0	789.379	0	-1e10	8	-1e10	8	-1E+10	1	-1E+10	1	-1E+10	1	-1E+10	1	-1E+10	1	-1E+10	1
4902554	36	C	01/31/2022	08:56	-136.203	49.505	0	803.10	0	3.4310	0	34.2820	0	27.277	0	794.712	0	-1e10	8	-1e10	8	-1E+10	1	-1E+10	1	-1E+10	1	-1E+10	1	-1E+10	1	-1E+10	1
4902554	36	C	01/31/2022	08:56	-136.203	49.505	0	808.10	0	3.4240	0	34.2850	0	27.280	0	799.650	0	-1e10	8	-1e10	8	-1E+10	1	-1E+10	1	-1E+10	1	-1E+10	1	-1E+10	1	-1E+10	1
4902554	36	C	01/31/2022	08:56	-136.203	49.505	0	812.70	0	3.4140	0	34.2870	0	27.283	0	804.193	0	-1e10	8	-1e10	8	-1E+10	1	-1E+10	1	-1E+10	1	-1E+10	1	-1E+10	1	-1E+10	1
4902554	36	C	01/31/2022	08:56	-136.203	49.505	0	817.90	0	3.4010	0	34.2900	0	27.286	0	809.329	0	-1e10	8	-1e10	8	-1E+10	1	-1E+10	1	-1E+10	1	-1E+10	1	-1E+10	1	-1E+10	1
4902554	36	C	01/31/2022	08:56	-136.203	49.505	0	823.00	0	3.3820	0	34.2940	0	27.291	0	814.365	0	-1e10	8	-1e10	8	-1E+10	1	-1E+10	1	-1E+10	1	-1E+10	1	-1E+10	1	-1E+10	1
4902554	36	C	01/31/2022	08:56	-136.203	49.505	0	827.80	0	3.3690	0	34.2970	0	27.295	0	819.106	0	-1e10	8	-1e10	8	-1E+10	1	-1E+10	1	-1E+10	1	-1E+10	1	-1E+10	1	-1E+10	1
4902554	36	C	01/31/2022	08:56	-136.203	49.505	0	832.60	0	3.3560	0	34.2990	0	27.298	0	823.846	0	-1e10	8	-1e10	8	-1E+10	1	-1E+10	1	-1E+10	1	-1E+10	1	-1E+10	1	-1E+10	1
4902554	36	C	01/31/2022	08:56	-136.203	49.505	0	837.50	0	3.3460	0	34.3010	0	27.300	0	828.685	0	-1e10	8	-1e10	8	-1E+10	1	-1E+10	1	-1E+10	1	-1E+10	1	-1E+10	1	-1E+10	1
4902554	36	C	01/31/2022	08:56	-136.203	49.505	0	842.50	0	3.3390	0	34.3030	0	27.303	0	833.622	0	-1e10	8	-1e10	8	-1E+10	1	-1E+10	1	-1E+10	1	-1E+10	1	-1E+10	1	-1E+10	1
4902554	36	C	01/31/2022	08:56	-136.203	49.505	0	847.60	0	3.3320	0	34.3040	0	27.304	0	838.658	0	-1e10	8	-1e10	8	-1E+10	1	-1E+10	1	-1E+10	1	-1E+10	1	-1E+10	1	-1E+10	1
4902554	36	C	01/31/2022	08:56	-136.203	49.505	0	852.80	0	3.3230	0	34.3070	0	27.308	0	843.793	0	-1e10	8	-1e10	8	-1E+10	1	-1E+10	1	-1E+10	1	-1E+10	1	-1E+10	1	-1E+10	1
4902554	36	C	01/31/2022	08:56	-136.203	49.505	0	858.00	0	3.3100	0	34.3090	0	27.310	0	848.927	0	-1e10	8	-1e10	8	-1E+10	1	-1E+10	1	-1E+10	1	-1E+10	1	-1E+10	1	-1E+10	1
4902554	36	C	01/31/2022	08:56	-136.203	49.505	0	862.80	0	3.3000	0	34.3110	0	27.313	0	853.667	0	-1e10	8	-1e10	8	-1E+10	1	-1E+10	1	-1E+10	1	-1E+10	1	-1E+10	1	-1E+10	1
4902554	36	C	01/31/2022	08:56	-136.203	49.505	0	867.60	0	3.2980	0	34.3120	0	27.314	0	858.406	0	-1e10	8	-1e10	8	-1E+10	1	-1E+10	1	-1E+10	1	-1E+10	1	-1E+10	1	-1E+10	1
4902554	36	C	01/31/2022	08:56	-136.203	49.505	0	872.80	0	3.2900	0	34.3130	0	27.316	0	863.540	0	-1e10	8	-1e10	8	-1E+10	1	-1E+10	1	-1E+10	1	-1E+10	1	-1E+10	1	-1E+10	1
4902554	36	C	01/31/2022	08:56	-136.203	49.505	0	877.70	0	3.2800	0	34.3160	0	27.319	0	868.378	0	-1e10	8	-1e10	8	-1E+10	1	-1E+10	1	-1E+10	1	-1E+10	1	-1E+10	1	-1E+10	1
4902554	36	C	01/31/2022	08:56	-136.203	49.505	0	882.60	0	3.2660	0	34.3190	0	27.323	0	873.216	0	-1e10	8	-1e10	8	-1E+10	1	-1E+10	1	-1E+10	1	-1E+10	1	-1E+10	1	-1E+10	1
4902554	36	C	01/31/2022	08:56	-136.203	49.505	0	887.90	0	3.2560	0	34.3210	0	27.325	0	878.448	0	-1e10	8	-1e10	8	-1E+10	1	-1E+10	1	-1E+10	1	-1E+10	1	-1E+10	1	-1E+10	1
4902554	36	C	01/31/2022	08:56	-136.203	49.505	0	893.30	0	3.2540	0	34.3210	0	27.325	0	883.779	0	-1e10	8	-1e10	8	-1E+10	1	-1E+10	1	-1E+10	1	-1E+10	1	-1E+10	1	-1E+10	1
4902554	36	C	01/31/2022	08:56	-136.203	49.505	0	897.90	0	3.2480	0	34.3230	0	27.328	0	888.321	0	-1e10	8	-1e10	8	-1E+10	1	-1E+10	1	-1E+10	1	-1E+10	1	-1E+10	1	-1E+10	1
4902554	36	C	01/31/2022	08:56	-136.203	49.505	0	902.60	0	3.2400	0	34.3240	0	27.329	0	892.960	0	-1e10	8	-1e10	8	-1E+10	1	-1E+10	1	-1E+10	1	-1E+10	1	-1E+10	1	-1E+10	1
4902554	36	C	01/31/2022	08:56	-136.203	49.505	0	907.70	0	3.2280	0	34.3260	0	27.332	0	897.995	0	-1e10	8	-1e10	8	-1E+10	1	-1E+10	1	-1E+10	1	-1E+10	1	-1E+10	1	-1E+10	1
4902554	36	C	01/31/2022	08:56	-136.203	49.505	0	912.80	0	3.2120	0	34.3300	0	27.337	0	903.029	0	-1e10	8	-1e10	8	-1E+10	1	-1E+10	1	-1E+10	1	-1E+10	1	-1E+10	1	-1E+10	1
4902554	36	C	01/31/2022	08:56	-136.203	49.505	0	918.00	0	3.2020	0	34.3320	0	27.339	0	908.162	0	-1e10	8	-1e10	8	-1E+10	1	-1E+10	1	-1E+10	1	-1E+10	1	-1E+10	1	-1E+10	1
4902554	36	C	01/31/2022	08:56	-136.203	49.505	0	923.20	0	3.1990	0	34.3330	0	27.340	0	913.295	0	-1e10	8	-1e10	8	-1E+10	1	-1E+10	1	-1E+10	1	-1E+10	1	-1E+10	1	-1E+10	1
4902554	36	C	01/31/2022	08:56	-136.203	49.505	0	927.80	0	3.1980	0	34.3330	0	27.340	0	917.836	0	-1e10	8	-1e10	8	-1E+10	1	-1E+10	1	-1E+10	1	-1E+10	1	-1E+10	1	-1E+10	1
4902554	36	C	01/31/2022	08:56	-136.203	49.505	0	932.60	0	3.1870	0	34.3350	0	27.343	0	922.574	0	-1e10	8	-1e10	8	-1E+10	1	-1E+10	1	-1E+10	1	-1E+10	1	-1E+10	1	-1E+10	1
4902554	36	C	01/31/2022	08:56	-136.203	49.505	0	937.70	0	3.1740	0	34.3380	0	27.347	0	927.608	0	-1e10	8	-1e10	8	-1E+10	1	-1E+10	1	-1E+10	1	-1E+10	1	-1E+10	1	-1E+10	1
4902554	36	C	01/31/2022	08:56	-136.203	49.505	0	942.90	0	3.1670	0	34.3390	0	27.348	0	932.740	0	-1e10	8	-1e10	8	-1E+10	1	-1E+10	1	-1E+10	1	-1E+10	1	-1E+10	1	-1E+10	1
4902554	36	C	01/31/2022	08:56	-136.203	49.505	0	948.20	0	3.1560	0	34.3420	0	27.352	0	937.971	0	-1e10	8	-1e10	8	-1E+10	1	-1E+10	1	-1E+10	1	-1E+10	1	-1E+10	1	-1E+10	1
4902554	36	C	01/31/2022	08:56	-136.203	49.505	0	952.90	0	3.1450	0	34.3440	0	27.354	0	942.610	0	-1e10	8	-1e10	8	-1E+10	1	-1E+10	1	-1E+10	1	-1E+10	1	-1E+10	1	-1E+10	1
4902554	36	C	01/31/2022	08:56	-136.203	49.505	0	957.80	0	3.1350	0	34.3460	0	27.357	0	947.446	0	-1e10	8	-1e10	8	-1E+10	1	-1E+10	1	-1E+10	1	-1E+10	1	-1E+10	1	-1E+10	1
4902554	36	C	01/31/2022	08:56	-136.203	49.505	0	963.10	0	3.1250	0	34.3480	0	27.359	0	952.677	0	-1e10	8	-1e10	8	-1E+10	1	-1E+10	1	-1E+10	1	-1E+10	1	-1E+10	1	-1E+10	1
4902554	36	C	01/31/2022	08:56	-136.203	49.505	0	967.90	0	3.1150	0	34.3500	0	27.362	0	957.414	0	-1e10	8	-1e10	8	-1E+10	1	-1E+10	1	-1E+10	1	-1E+10	1	-1E+10	1	-1E+10	1
4902554	36	C	01/31/2022	08:56	-136.203	49.505	0	972.70	0	3.1030	0	34.3530	0	27.365	0	962.151	0	-1e10	8	-1e10	8	-1E+10	1	-1E+10	1	-1E+10	1	-1E+10	1	-1E+10	1	-1E+10	1
4902554	36	C	01/31/2022	08:56	-136.203	49.505	0	978.00	0	3.0880	0	34.3550	0	27.368	0	967.381	0	-1e10	8	-1e10	8	-1E+10	1	-1E+10	1	-1E+10	1	-1E+10	1	-1E+10	1	-1E+10	1
4902554	36	C	01/31/2022	08:56	-136.203	49.505	0	982.90	0	3.0780	0	34.3570	0	27.371	0	972.216	0	-1e10	8	-1e10	8	-1E+10	1	-1E+10	1	-1E+10	1	-1E+10	1	-1E+10	1	-1E+10	1
4902554	36	C	01/31/2022	08:56	-136.203	49.505	0	987.70	0	3.0670	0	34.3600	0	27.374	0	976.953	0	-1e10	8	-1e10	8	-1E+10	1	-1E+10	1	-1E+10	1	-1E+10	1	-1E+10	1	-1E+10	1
4902554	36	C	01/31/2022	08:56	-136.203	49.505	0	993.00	0	3.0630	0	34.3610	0	27.375	0	982.183	0	-1e10	8	-1e10	8	-1E+10	1	-1E+10	1	-1E+10	1	-1E+10	1	-1E+10	1	-1E+10	1
4902554	36	C	01/31/2022	08:56	-136.203	49.505	0	997.90	0	3.0600	0	34.3620	0	27.377	0	987.018	0	-1e10	8	-1e10	8	-1E+10	1	-1E+10	1	-1E+10	1	-1E+10	1	-1E+10	1	-1E+10	1
4902554	36	C	01/31/2022	08:56	-136.203	49.505	0	1005.50	0	3.0470	0	34.3650	0	27.380	0	994.517	0	-1e10	8	-1e10	8	-1E+10	1	-1E+10	1	-1E+10	1	-1E+10	1	-1E+10	1	-1E+10	1
4902554	36	C	01/31/2022	08:56	-136.203	49.505	0	1015.40	0	3.0160	0	34.3710	0	27.388	0	1004.285	0	-1e10	8	-1e10	8	-1E+10	1	-1E+10	1	-1E+10	1	-1E+10	1	-1E+10	1	-1E+10	1
4902554	36	C	01/31/2022	08:56	-136.203	49.505	0	1025.10	0	2.9900	0	34.3760	0	27.394	0	1013.856	0	-1e10	8	-1e10	8	-1E+10	1	-1E+10	1	-1E+10	1	-1E+10	1	-1E+10	1	-1E+10	1
4902554	36	C	01/31/2022	08:56	-136.203	49.505	0	1035.40	0	2.9760	0	34.3790	0	27.398	0	1024.018	0	-1e10	8	-1e10	8	-1E+10	1	-1E+10	1	-1E+10	1	-1E+10	1	-1E+10	1	-1E+10	1
4902554	36	C	01/31/2022	08:56	-136.203	49.505	0	1045.40	0	2.9610	0	34.3830	0	27.403	0	1033.883	0	-1e10	8	-1e10	8	-1E+10	1	-1E+10	1	-1E+10	1	-1E+10	1	-1E+10	1	-1E+10	1
4902554	36	C	01/31/2022	08:56	-136.203	49.505	0	1055.40	0	2.9440	0	34.3860	0	27.407	0	1043.748	0	-1e10	8	-1e10	8	-1E+10	1	-1E+10	1	-1E+10	1	-1E+10	1	-1E+10	1	-1E+10	1
4902554	36	C	01/31/2022	08:56	-136.203	49.505	0	1065.60	0	2.9260	0	34.3890	0	27.411	0	1053.810	0	-1e10	8	-1e10	8	-1E+10	1	-1E+10	1	-1E+10	1	-1E+10	1	-1E+10	1	-1E+10	1
4902554	36	C	01/31/2022	08:56	-136.203	49.505	0	1075.40	0	2.9130	0	34.3910	0	27.413	0	1063.476	0	-1e10	8	-1e10	8	-1E+10	1	-1E+10	1	-1E+10	1	-1E+10	1	-1E+10	1	-1E+10	1
4902554	36	C	01/31/2022	08:56	-136.203	49.505	0	1085.40	0	2.8980	0	34.3940	0	27.417	0	1073.340	0	-1e10	8	-1e10	8	-1E+10	1	-1E+10	1	-1E+10	1	-1E+10	1	-1E+10	1	-1E+10	1
4902554	36	C	01/31/2022	08:56	-136.203	49.505	0	1095.70	0	2.8760	0	34.3980	0	27.422	0	1083.499	0	-1e10	8	-1e10	8	-1E+10	1	-1E+10	1	-1E+10	1	-1E+10	1	-1E+10	1	-1E+10	1
4902554	36	C	01/31/2022	08:56	-136.203	49.505	0	1105.30	0	2.8590	0	34.4020	0	27.427	0	1092.967	0	-1e10	8	-1e10	8	-1E+10	1	-1E+10	1	-1E+10	1	-1E+10	1	-1E+10	1	-1E+10	1
4902554	36	C	01/31/2022	08:56	-136.203	49.505	0	1115.10	0	2.8370	0	34.4060	0	27.432	0	1102.632	0	-1e10	8	-1e10	8	-1E+10	1	-1E+10	1	-1E+10	1	-1E+10	1	-1E+10	1	-1E+10	1
4902554	36	C	01/31/2022	08:56	-136.203	49.505	0	1125.50	0	2.8230	0	34.4080	0	27.435	0	1112.888	0	-1e10	8	-1e10	8	-1E+10	1	-1E+10	1	-1E+10	1	-1E+10	1	-1E+10	1	-1E+10	1
4902554	36	C	01/31/2022	08:56	-136.203	49.505	0	1135.80	0	2.8190	0	34.4100	0	27.437	0	1123.045	0	-1e10	8	-1e10	8	-1E+10	1	-1E+10	1	-1E+10	1	-1E+10	1	-1E+10	1	-1E+10	1
4902554	36	C	01/31/2022	08:56	-136.203	49.505	0	1145.50	0	2.8120	0	34.4110	0	27.439	0	1132.610	0	-1e10	8	-1e10	8	-1E+10	1	-1E+10	1	-1E+10	1	-1E+10	1	-1E+10	1	-1E+10	1
4902554	36	C	01/31/2022	08:56	-136.203	49.505	0	1155.30	0	2.7930	0	34.4140	0	27.443	0	1142.273	0	-1e10	8	-1e10	8	-1E+10	1	-1E+10	1	-1E+10	1	-1E+10	1	-1E+10	1	-1E+10	1
4902554	36	C	01/31/2022	08:56	-136.203	49.505	0	1165.30	0	2.7850	0	34.4160	0	27.445	0	1152.133	0	-1e10	8	-1e10	8	-1E+10	1	-1E+10	1	-1E+10	1	-1E+10	1	-1E+10	1	-1E+10	1
4902554	36	C	01/31/2022	08:56	-136.203	49.505	0	1175.40	0	2.7760	0	34.4180	0	27.448	0	1162.091	0	-1e10	8	-1e10	8	-1E+10	1	-1E+10	1	-1E+10	1	-1E+10	1	-1E+10	1	-1E+10	1
4902554	36	C	01/31/2022	08:56	-136.203	49.505	0	1185.40	0	2.7630	0	34.4200	0	27.450	0	1171.950	0	-1e10	8	-1e10	8	-1E+10	1	-1E+10	1	-1E+10	1	-1E+10	1	-1E+10	1	-1E+10	1
4902554	36	C	01/31/2022	08:56	-136.203	49.505	0	1195.10	0	2.7540	0	34.4220	0	27.453	0	1181.513	0	-1e10	8	-1e10	8	-1E+10	1	-1E+10	1	-1E+10	1	-1E+10	1	-1E+10	1	-1E+10	1
4902554	36	C	01/31/2022	08:56	-136.203	49.505	0	1205.30	0	2.7420	0	34.4240	0	27.456	0	1191.568	0	-1e10	8	-1e10	8	-1E+10	1	-1E+10	1	-1E+10	1	-1E+10	1	-1E+10	1	-1E+10	1
4902554	36	C	01/31/2022	08:56	-136.203	49.505	0	1215.70	0	2.7240	0	34.4270	0	27.460	0	1201.820	0	-1e10	8	-1e10	8	-1E+10	1	-1E+10	1	-1E+10	1	-1E+10	1	-1E+10	1	-1E+10	1
4902554	36	C	01/31/2022	08:56	-136.203	49.505	0	1225.70	0	2.7030	0	34.4320	0	27.465	0	1211.677	0	-1e10	8	-1e10	8	-1E+10	1	-1E+10	1	-1E+10	1	-1E+10	1	-1E+10	1	-1E+10	1
4902554	36	C	01/31/2022	08:56	-136.203	49.505	0	1235.50	0	2.6910	0	34.4340	0	27.468	0	1221.336	0	-1e10	8	-1e10	8	-1E+10	1	-1E+10	1	-1E+10	1	-1E+10	1	-1E+10	1	-1E+10	1
4902554	36	C	01/31/2022	08:56	-136.203	49.505	0	1245.30	0	2.6780	0	34.4370	0	27.472	0	1230.995	0	-1e10	8	-1e10	8	-1E+10	1	-1E+10	1	-1E+10	1	-1E+10	1	-1E+10	1	-1E+10	1
4902554	36	C	01/31/2022	08:56	-136.203	49.505	0	1255.40	0	2.6640	0	34.4390	0	27.475	0	1240.949	0	-1e10	8	-1e10	8	-1E+10	1	-1E+10	1	-1E+10	1	-1E+10	1	-1E+10	1	-1E+10	1
4902554	36	C	01/31/2022	08:56	-136.203	49.505	0	1265.70	0	2.6480	0	34.4420	0	27.478	0	1251.100	0	-1e10	8	-1e10	8	-1E+10	1	-1E+10	1	-1E+10	1	-1E+10	1	-1E+10	1	-1E+10	1
4902554	36	C	01/31/2022	08:56	-136.203	49.505	0	1275.50	0	2.6320	0	34.4450	0	27.482	0	1260.758	0	-1e10	8	-1e10	8	-1E+10	1	-1E+10	1	-1E+10	1	-1E+10	1	-1E+10	1	-1E+10	1
4902554	36	C	01/31/2022	08:56	-136.203	49.505	0	1285.40	0	2.6110	0	34.4500	0	27.488	0	1270.514	0	-1e10	8	-1e10	8	-1E+10	1	-1E+10	1	-1E+10	1	-1E+10	1	-1E+10	1	-1E+10	1
4902554	36	C	01/31/2022	08:56	-136.203	49.505	0	1295.50	0	2.5980	0	34.4520	0	27.491	0	1280.466	0	-1e10	8	-1e10	8	-1E+10	1	-1E+10	1	-1E+10	1	-1E+10	1	-1E+10	1	-1E+10	1
4902554	36	C	01/31/2022	08:56	-136.203	49.505	0	1305.50	0	2.5840	0	34.4550	0	27.494	0	1290.319	0	-1e10	8	-1e10	8	-1E+10	1	-1E+10	1	-1E+10	1	-1E+10	1	-1E+10	1	-1E+10	1
4902554	36	C	01/31/2022	08:56	-136.203	49.505	0	1315.50	0	2.5730	0	34.4570	0	27.497	0	1300.172	0	-1e10	8	-1e10	8	-1E+10	1	-1E+10	1	-1E+10	1	-1E+10	1	-1E+10	1	-1E+10	1
4902554	36	C	01/31/2022	08:56	-136.203	49.505	0	1325.70	0	2.5550	0	34.4600	0	27.501	0	1310.222	0	-1e10	8	-1e10	8	-1E+10	1	-1E+10	1	-1E+10	1	-1E+10	1	-1E+10	1	-1E+10	1
4902554	36	C	01/31/2022	08:56	-136.203	49.505	0	1335.60	0	2.5400	0	34.4630	0	27.505	0	1319.975	0	-1e10	8	-1e10	8	-1E+10	1	-1E+10	1	-1E+10	1	-1E+10	1	-1E+10	1	-1E+10	1
4902554	36	C	01/31/2022	08:56	-136.203	49.505	0	1345.30	0	2.5270	0	34.4660	0	27.508	0	1329.531	0	-1e10	8	-1e10	8	-1E+10	1	-1E+10	1	-1E+10	1	-1E+10	1	-1E+10	1	-1E+10	1
4902554	36	C	01/31/2022	08:56	-136.203	49.505	0	1355.10	0	2.5140	0	34.4690	0	27.512	0	1339.185	0	-1e10	8	-1e10	8	-1E+10	1	-1E+10	1	-1E+10	1	-1E+10	1	-1E+10	1	-1E+10	1
4902554	36	C	01/31/2022	08:56	-136.203	49.505	0	1365.10	0	2.5010	0	34.4710	0	27.515	0	1349.036	0	-1e10	8	-1e10	8	-1E+10	1	-1E+10	1	-1E+10	1	-1E+10	1	-1E+10	1	-1E+10	1
4902554	36	C	01/31/2022	08:56	-136.203	49.505	0	1375.60	0	2.4890	0	34.4730	0	27.517	0	1359.378	0	-1e10	8	-1e10	8	-1E+10	1	-1E+10	1	-1E+10	1	-1E+10	1	-1E+10	1	-1E+10	1
4902554	36	C	01/31/2022	08:56	-136.203	49.505	0	1385.60	0	2.4760	0	34.4760	0	27.521	0	1369.228	0	-1e10	8	-1e10	8	-1E+10	1	-1E+10	1	-1E+10	1	-1E+10	1	-1E+10	1	-1E+10	1
4902554	36	C	01/31/2022	08:56	-136.203	49.505	0	1395.50	0	2.4610	0	34.4790	0	27.524	0	1378.979	0	-1e10	8	-1e10	8	-1E+10	1	-1E+10	1	-1E+10	1	-1E+10	1	-1E+10	1	-1E+10	1
4902554	36	C	01/31/2022	08:56	-136.203	49.505	0	1405.40	0	2.4530	0	34.4800	0	27.526	0	1388.729	0	-1e10	8	-1e10	8	-1E+10	1	-1E+10	1	-1E+10	1	-1E+10	1	-1E+10	1	-1E+10	1
4902554	36	C	01/31/2022	08:56	-136.203	49.505	0	1415.50	0	2.4400	0	34.4830	0	27.530	0	1398.675	0	-1e10	8	-1e10	8	-1E+10	1	-1E+10	1	-1E+10	1	-1E+10	1	-1E+10	1	-1E+10	1
4902554	36	C	01/31/2022	08:56	-136.203	49.505	0	1425.80	0	2.4250	0	34.4860	0	27.533	0	1408.819	0	-1e10	8	-1e10	8	-1E+10	1	-1E+10	1	-1E+10	1	-1E+10	1	-1E+10	1	-1E+10	1
4902554	36	C	01/31/2022	08:56	-136.203	49.505	0	1435.70	0	2.4150	0	34.4880	0	27.536	0	1418.568	0	-1e10	8	-1e10	8	-1E+10	1	-1E+10	1	-1E+10	1	-1E+10	1	-1E+10	1	-1E+10	1
4902554	36	C	01/31/2022	08:56	-136.203	49.505	0	1445.60	0	2.4060	0	34.4900	0	27.538	0	1428.316	0	-1e10	8	-1e10	8	-1E+10	1	-1E+10	1	-1E+10	1	-1E+10	1	-1E+10	1	-1E+10	1
4902554	36	C	01/31/2022	08:56	-136.203	49.505	0	1455.50	0	2.4030	0	34.4910	0	27.539	0	1438.064	0	-1e10	8	-1e10	8	-1E+10	1	-1E+10	1	-1E+10	1	-1E+10	1	-1E+10	1	-1E+10	1
4902554	36	C	01/31/2022	08:56	-136.203	49.505	0	1465.30	0	2.3950	0	34.4920	0	27.541	0	1447.713	0	-1e10	8	-1e10	8	-1E+10	1	-1E+10	1	-1E+10	1	-1E+10	1	-1E+10	1	-1E+10	1
4902554	36	C	01/31/2022	08:56	-136.203	49.505	0	1475.40	0	2.3810	0	34.4950	0	27.544	0	1457.657	0	-1e10	8	-1e10	8	-1E+10	1	-1E+10	1	-1E+10	1	-1E+10	1	-1E+10	1	-1E+10	1
4902554	36	C	01/31/2022	08:56	-136.203	49.505	0	1485.50	0	2.3660	0	34.4980	0	27.548	0	1467.600	0	-1e10	8	-1e10	8	-1E+10	1	-1E+10	1	-1E+10	1	-1E+10	1	-1E+10	1	-1E+10	1
4902554	36	C	01/31/2022	08:56	-136.203	49.505	0	1495.10	0	2.3550	0	34.5000	0	27.551	0	1477.051	0	-1e10	8	-1e10	8	-1E+10	1	-1E+10	1	-1E+10	1	-1E+10	1	-1E+10	1	-1E+10	1
4902554	36	C	01/31/2022	08:56	-136.203	49.505	0	1505.00	0	2.3430	0	34.5020	0	27.553	0	1486.797	0	-1e10	8	-1e10	8	-1E+10	1	-1E+10	1	-1E+10	1	-1E+10	1	-1E+10	1	-1E+10	1
4902554	36	C	01/31/2022	08:56	-136.203	49.505	0	1515.20	0	2.3350	0	34.5040	0	27.556	0	1496.837	0	-1e10	8	-1e10	8	-1E+10	1	-1E+10	1	-1E+10	1	-1E+10	1	-1E+10	1	-1E+10	1
4902554	36	C	01/31/2022	08:56	-136.203	49.505	0	1525.40	0	2.3260	0	34.5060	0	27.558	0	1506.877	0	-1e10	8	-1e10	8	-1E+10	1	-1E+10	1	-1E+10	1	-1E+10	1	-1E+10	1	-1E+10	1
4902554	36	C	01/31/2022	08:56	-136.203	49.505	0	1535.20	0	2.3180	0	34.5080	0	27.560	0	1516.523	0	-1e10	8	-1e10	8	-1E+10	1	-1E+10	1	-1E+10	1	-1E+10	1	-1E+10	1	-1E+10	1
4902554	36	C	01/31/2022	08:56	-136.203	49.505	0	1545.20	0	2.3130	0	34.5090	0	27.562	0	1526.366	0	-1e10	8	-1e10	8	-1E+10	1	-1E+10	1	-1E+10	1	-1E+10	1	-1E+10	1	-1E+10	1
4902554	36	C	01/31/2022	08:56	-136.203	49.505	0	1555.30	0	2.3060	0	34.5100	0	27.563	0	1536.306	0	-1e10	8	-1e10	8	-1E+10	1	-1E+10	1	-1E+10	1	-1E+10	1	-1E+10	1	-1E+10	1
4902554	36	C	01/31/2022	08:56	-136.203	49.505	0	1565.50	0	2.2940	0	34.5130	0	27.566	0	1546.344	0	-1e10	8	-1e10	8	-1E+10	1	-1E+10	1	-1E+10	1	-1E+10	1	-1E+10	1	-1E+10	1
4902554	36	C	01/31/2022	08:56	-136.203	49.505	0	1575.70	0	2.2870	0	34.5140	0	27.568	0	1556.382	0	-1e10	8	-1e10	8	-1E+10	1	-1E+10	1	-1E+10	1	-1E+10	1	-1E+10	1	-1E+10	1
4902554	36	C	01/31/2022	08:56	-136.203	49.505	0	1585.40	0	2.2770	0	34.5160	0	27.570	0	1565.927	0	-1e10	8	-1e10	8	-1E+10	1	-1E+10	1	-1E+10	1	-1E+10	1	-1E+10	1	-1E+10	1
4902554	36	C	01/31/2022	08:56	-136.203	49.505	0	1595.20	0	2.2640	0	34.5190	0	27.574	0	1575.570	0	-1e10	8	-1e10	8	-1E+10	1	-1E+10	1	-1E+10	1	-1E+10	1	-1E+10	1	-1E+10	1
4902554	36	C	01/31/2022	08:56	-136.203	49.505	0	1605.50	0	2.2510	0	34.5210	0	27.576	0	1585.705	0	-1e10	8	-1e10	8	-1E+10	1	-1E+10	1	-1E+10	1	-1E+10	1	-1E+10	1	-1E+10	1
4902554	36	C	01/31/2022	08:56	-136.203	49.505	0	1615.40	0	2.2430	0	34.5230	0	27.579	0	1595.445	0	-1e10	8	-1e10	8	-1E+10	1	-1E+10	1	-1E+10	1	-1E+10	1	-1E+10	1	-1E+10	1
4902554	36	C	01/31/2022	08:56	-136.203	49.505	0	1625.20	0	2.2370	0	34.5240	0	27.580	0	1605.087	0	-1e10	8	-1e10	8	-1E+10	1	-1E+10	1	-1E+10	1	-1E+10	1	-1E+10	1	-1E+10	1
4902554	36	C	01/31/2022	08:56	-136.203	49.505	0	1635.50	0	2.2320	0	34.5250	0	27.581	0	1615.221	0	-1e10	8	-1e10	8	-1E+10	1	-1E+10	1	-1E+10	1	-1E+10	1	-1E+10	1	-1E+10	1
4902554	36	C	01/31/2022	08:56	-136.203	49.505	0	1645.70	0	2.2250	0	34.5270	0	27.584	0	1625.255	0	-1e10	8	-1e10	8	-1E+10	1	-1E+10	1	-1E+10	1	-1E+10	1	-1E+10	1	-1E+10	1
4902554	36	C	01/31/2022	08:56	-136.203	49.505	0	1655.30	0	2.2190	0	34.5280	0	27.585	0	1634.699	0	-1e10	8	-1e10	8	-1E+10	1	-1E+10	1	-1E+10	1	-1E+10	1	-1E+10	1	-1E+10	1
4902554	36	C	01/31/2022	08:56	-136.203	49.505	0	1665.10	0	2.2070	0	34.5300	0	27.588	0	1644.339	0	-1e10	8	-1e10	8	-1E+10	1	-1E+10	1	-1E+10	1	-1E+10	1	-1E+10	1	-1E+10	1
4902554	36	C	01/31/2022	08:56	-136.203	49.505	0	1675.40	0	2.1980	0	34.5320	0	27.590	0	1654.470	0	-1e10	8	-1e10	8	-1E+10	1	-1E+10	1	-1E+10	1	-1E+10	1	-1E+10	1	-1E+10	1
4902554	36	C	01/31/2022	08:56	-136.203	49.505	0	1685.60	0	2.1860	0	34.5350	0	27.593	0	1664.503	0	-1e10	8	-1e10	8	-1E+10	1	-1E+10	1	-1E+10	1	-1E+10	1	-1E+10	1	-1E+10	1
4902554	36	C	01/31/2022	08:56	-136.203	49.505	0	1695.40	0	2.1710	0	34.5380	0	27.597	0	1674.141	0	-1e10	8	-1e10	8	-1E+10	1	-1E+10	1	-1E+10	1	-1E+10	1	-1E+10	1	-1E+10	1
4902554	36	C	01/31/2022	08:56	-136.203	49.505	0	1705.00	0	2.1640	0	34.5390	0	27.598	0	1683.583	0	-1e10	8	-1e10	8	-1E+10	1	-1E+10	1	-1E+10	1	-1E+10	1	-1E+10	1	-1E+10	1
4902554	36	C	01/31/2022	08:56	-136.203	49.505	0	1715.10	0	2.1530	0	34.5410	0	27.601	0	1693.516	0	-1e10	8	-1e10	8	-1E+10	1	-1E+10	1	-1E+10	1	-1E+10	1	-1E+10	1	-1E+10	1
4902554	36	C	01/31/2022	08:56	-136.203	49.505	0	1725.20	0	2.1440	0	34.5430	0	27.603	0	1703.448	0	-1e10	8	-1e10	8	-1E+10	1	-1E+10	1	-1E+10	1	-1E+10	1	-1E+10	1	-1E+10	1
4902554	36	C	01/31/2022	08:56	-136.203	49.505	0	1735.50	0	2.1400	0	34.5440	0	27.605	0	1713.577	0	-1e10	8	-1e10	8	-1E+10	1	-1E+10	1	-1E+10	1	-1E+10	1	-1E+10	1	-1E+10	1
4902554	36	C	01/31/2022	08:56	-136.203	49.505	0	1745.50	0	2.1330	0	34.5460	0	27.607	0	1723.410	0	-1e10	8	-1e10	8	-1E+10	1	-1E+10	1	-1E+10	1	-1E+10	1	-1E+10	1	-1E+10	1
4902554	36	C	01/31/2022	08:56	-136.203	49.505	0	1755.40	0	2.1260	0	34.5470	0	27.608	0	1733.144	0	-1e10	8	-1e10	8	-1E+10	1	-1E+10	1	-1E+10	1	-1E+10	1	-1E+10	1	-1E+10	1
4902554	36	C	01/31/2022	08:56	-136.203	49.505	0	1765.20	0	2.1190	0	34.5480	0	27.610	0	1742.780	0	-1e10	8	-1e10	8	-1E+10	1	-1E+10	1	-1E+10	1	-1E+10	1	-1E+10	1	-1E+10	1
4902554	36	C	01/31/2022	08:56	-136.203	49.505	0	1775.40	0	2.1040	0	34.5510	0	27.613	0	1752.808	0	-1e10	8	-1e10	8	-1E+10	1	-1E+10	1	-1E+10	1	-1E+10	1	-1E+10	1	-1E+10	1
4902554	36	C	01/31/2022	08:56	-136.203	49.505	0	1785.60	0	2.0960	0	34.5530	0	27.615	0	1762.836	0	-1e10	8	-1e10	8	-1E+10	1	-1E+10	1	-1E+10	1	-1E+10	1	-1E+10	1	-1E+10	1
4902554	36	C	01/31/2022	08:56	-136.203	49.505	0	1795.40	0	2.0890	0	34.5540	0	27.617	0	1772.470	0	-1e10	8	-1e10	8	-1E+10	1	-1E+10	1	-1E+10	1	-1E+10	1	-1E+10	1	-1E+10	1
4902554	36	C	01/31/2022	08:56	-136.203	49.505	0	1805.60	0	2.0830	0	34.5560	0	27.619	0	1782.497	0	-1e10	8	-1e10	8	-1E+10	1	-1E+10	1	-1E+10	1	-1E+10	1	-1E+10	1	-1E+10	1
4902554	36	C	01/31/2022	08:56	-136.203	49.505	0	1815.60	0	2.0750	0	34.5570	0	27.620	0	1792.327	0	-1e10	8	-1e10	8	-1E+10	1	-1E+10	1	-1E+10	1	-1E+10	1	-1E+10	1	-1E+10	1
4902554	36	C	01/31/2022	08:56	-136.203	49.505	0	1825.50	0	2.0710	0	34.5580	0	27.622	0	1802.058	0	-1e10	8	-1e10	8	-1E+10	1	-1E+10	1	-1E+10	1	-1E+10	1	-1E+10	1	-1E+10	1
4902554	36	C	01/31/2022	08:56	-136.203	49.505	0	1835.60	0	2.0650	0	34.5600	0	27.624	0	1811.985	0	-1e10	8	-1e10	8	-1E+10	1	-1E+10	1	-1E+10	1	-1E+10	1	-1E+10	1	-1E+10	1
4902554	36	C	01/31/2022	08:56	-136.203	49.505	0	1845.50	0	2.0560	0	34.5620	0	27.626	0	1821.716	0	-1e10	8	-1e10	8	-1E+10	1	-1E+10	1	-1E+10	1	-1E+10	1	-1E+10	1	-1E+10	1
4902554	36	C	01/31/2022	08:56	-136.203	49.505	0	1855.70	0	2.0470	0	34.5630	0	27.628	0	1831.740	0	-1e10	8	-1e10	8	-1E+10	1	-1E+10	1	-1E+10	1	-1E+10	1	-1E+10	1	-1E+10	1
4902554	36	C	01/31/2022	08:56	-136.203	49.505	0	1865.50	0	2.0340	0	34.5650	0	27.630	0	1841.371	0	-1e10	8	-1e10	8	-1E+10	1	-1E+10	1	-1E+10	1	-1E+10	1	-1E+10	1	-1E+10	1
4902554	36	C	01/31/2022	08:56	-136.203	49.505	0	1875.10	0	2.0320	0	34.5660	0	27.631	0	1850.805	0	-1e10	8	-1e10	8	-1E+10	1	-1E+10	1	-1E+10	1	-1E+10	1	-1E+10	1	-1E+10	1
4902554	36	C	01/31/2022	08:56	-136.203	49.505	0	1885.40	0	2.0250	0	34.5670	0	27.633	0	1860.927	0	-1e10	8	-1e10	8	-1E+10	1	-1E+10	1	-1E+10	1	-1E+10	1	-1E+10	1	-1E+10	1
4902554	36	C	01/31/2022	08:56	-136.203	49.505	0	1895.70	0	2.0140	0	34.5700	0	27.636	0	1871.048	0	-1e10	8	-1e10	8	-1E+10	1	-1E+10	1	-1E+10	1	-1E+10	1	-1E+10	1	-1E+10	1
4902554	36	C	01/31/2022	08:56	-136.203	49.505	0	1905.50	0	2.0080	0	34.5710	0	27.637	0	1880.677	0	-1e10	8	-1e10	8	-1E+10	1	-1E+10	1	-1E+10	1	-1E+10	1	-1E+10	1	-1E+10	1
4902554	36	C	01/31/2022	08:56	-136.203	49.505	0	1915.30	0	2.0050	0	34.5710	0	27.638	0	1890.306	0	-1e10	8	-1e10	8	-1E+10	1	-1E+10	1	-1E+10	1	-1E+10	1	-1E+10	1	-1E+10	1
4902554	36	C	01/31/2022	08:56	-136.203	49.505	0	1925.40	0	1.9990	0	34.5730	0	27.640	0	1900.229	0	-1e10	8	-1e10	8	-1E+10	1	-1E+10	1	-1E+10	1	-1E+10	1	-1E+10	1	-1E+10	1
4902554	36	C	01/31/2022	08:56	-136.203	49.505	0	1935.60	0	1.9910	0	34.5750	0	27.642	0	1910.250	0	-1e10	8	-1e10	8	-1E+10	1	-1E+10	1	-1E+10	1	-1E+10	1	-1E+10	1	-1E+10	1
4902554	36	C	01/31/2022	08:56	-136.203	49.505	0	1945.30	0	1.9840	0	34.5760	0	27.644	0	1919.779	0	-1e10	8	-1e10	8	-1E+10	1	-1E+10	1	-1E+10	1	-1E+10	1	-1E+10	1	-1E+10	1
4902554	36	C	01/31/2022	08:56	-136.203	49.505	0	1955.00	0	1.9790	0	34.5770	0	27.645	0	1929.308	0	-1e10	8	-1e10	8	-1E+10	1	-1E+10	1	-1E+10	1	-1E+10	1	-1E+10	1	-1E+10	1
4902554	36	C	01/31/2022	08:56	-136.203	49.505	0	1965.20	0	1.9690	0	34.5790	0	27.647	0	1939.328	0	-1e10	8	-1e10	8	-1E+10	1	-1E+10	1	-1E+10	1	-1E+10	1	-1E+10	1	-1E+10	1
4902554	36	C	01/31/2022	08:56	-136.203	49.505	0	1975.10	0	1.9610	0	34.5810	0	27.649	0	1949.052	0	-1e10	8	-1e10	8	-1E+10	1	-1E+10	1	-1E+10	1	-1E+10	1	-1E+10	1	-1E+10	1
4902554	36	C	01/31/2022	08:56	-136.203	49.505	0	1985.40	0	1.9560	0	34.5820	0	27.651	0	1959.169	0	-1e10	8	-1e10	8	-1E+10	1	-1E+10	1	-1E+10	1	-1E+10	1	-1E+10	1	-1E+10	1
4902554	36	C	01/31/2022	08:56	-136.203	49.505	0	1995.30	0	1.9540	0	34.5830	0	27.652	0	1968.892	0	-1e10	8	-1e10	8	-1E+10	1	-1E+10	1	-1E+10	1	-1E+10	1	-1E+10	1	-1E+10	1
4902554	36	C	01/31/2022	08:56	-136.203	49.505	0	2004.60	0	1.9510	0	34.5850	0	27.654	0	1978.026	0	-1e10	8	-1e10	8	-1E+10	1	-1E+10	1	-1E+10	1	-1E+10	1	-1E+10	1	-1E+10	1
4902554	36	C	01/31/2022	08:56	-136.203	49.505	0																										
4902554	37	C	02/10/2022	14:00	-136.211	49.500	0	0.40	0	6.8200	0	32.3360	0	25.345	0	0.397	0	-1e10	8	-1e10	8	-1E+10	1	-1E+10	1	-1E+10	1	-1E+10	1	-1E+10	1	-1E+10	1
4902554	37	C	02/10/2022	14:00	-136.211	49.500	0	1.00	0	6.8200	0	32.3370	0	25.346	0	0.991	0	-1e10	8	-1e10	8	-1E+10	1	-1E+10	1	-1E+10	1	-1E+10	1	-1E+10	1	-1E+10	1
4902554	37	C	02/10/2022	14:00	-136.211	49.500	0	1.80	0	6.8200	0	32.3370	0	25.346	0	1.785	0	-1e10	8	-1e10	8	-1E+10	1	-1E+10	1	-1E+10	1	-1E+10	1	-1E+10	1	-1E+10	1
4902554	37	C	02/10/2022	14:00	-136.211	49.500	0	2.90	0	6.8200	0	32.3370	0	25.346	0	2.875	0	-1e10	8	-1e10	8	-1E+10	1	-1E+10	1	-1E+10	1	-1E+10	1	-1E+10	1	-1E+10	1
4902554	37	C	02/10/2022	14:00	-136.211	49.500	0	4.00	0	6.8200	0	32.3380	0	25.346	0	3.966	0	-1e10	8	-1e10	8	-1E+10	1	-1E+10	1	-1E+10	1	-1E+10	1	-1E+10	1	-1E+10	1
4902554	37	C	02/10/2022	14:00	-136.211	49.500	0	4.80	0	6.8210	0	32.3380	0	25.346	0	4.759	0	-1e10	8	-1e10	8	-1E+10	1	-1E+10	1	-1E+10	1	-1E+10	1	-1E+10	1	-1E+10	1
4902554	37	C	02/10/2022	14:00	-136.211	49.500	0	6.00	0	6.8210	0	32.3380	0	25.346	0	5.949	0	-1e10	8	-1e10	8	-1E+10	1	-1E+10	1	-1E+10	1	-1E+10	1	-1E+10	1	-1E+10	1
4902554	37	C	02/10/2022	14:00	-136.211	49.500	0	7.30	0	6.8210	0	32.3380	0	25.346	0	7.238	0	-1e10	8	-1e10	8	-1E+10	1	-1E+10	1	-1E+10	1	-1E+10	1	-1E+10	1	-1E+10	1
4902554	37	C	02/10/2022	14:00	-136.211	49.500	0	7.90	0	6.8210	0	32.3380	0	25.346	0	7.832	0	-1e10	8	-1e10	8	-1E+10	1	-1E+10	1	-1E+10	1	-1E+10	1	-1E+10	1	-1E+10	1
4902554	37	C	02/10/2022	14:00	-136.211	49.500	0	8.80	0	6.8210	0	32.3380	0	25.346	0	8.725	0	-1e10	8	-1e10	8	-1E+10	1	-1E+10	1	-1E+10	1	-1E+10	1	-1E+10	1	-1E+10	1
4902554	37	C	02/10/2022	14:00	-136.211	49.500	0	9.80	0	6.8210	0	32.3380	0	25.346	0	9.716	0	-1e10	8	-1e10	8	-1E+10	1	-1E+10	1	-1E+10	1	-1E+10	1	-1E+10	1	-1E+10	1
4902554	37	C	02/10/2022	14:00	-136.211	49.500	0	10.80	0	6.8210	0	32.3380	0	25.346	0	10.708	0	-1e10	8	-1e10	8	-1E+10	1	-1E+10	1	-1E+10	1	-1E+10	1	-1E+10	1	-1E+10	1
4902554	37	C	02/10/2022	14:00	-136.211	49.500	0	11.90	0	6.8210	0	32.3380	0	25.346	0	11.798	0	-1e10	8	-1e10	8	-1E+10	1	-1E+10	1	-1E+10	1	-1E+10	1	-1E+10	1	-1E+10	1
4902554	37	C	02/10/2022	14:00	-136.211	49.500	0	13.00	0	6.8210	0	32.3380	0	25.346	0	12.889	0	-1e10	8	-1e10	8	-1E+10	1	-1E+10	1	-1E+10	1	-1E+10	1	-1E+10	1	-1E+10	1
4902554	37	C	02/10/2022	14:00	-136.211	49.500	0	14.10	0	6.8220	0	32.3380	0	25.346	0	13.979	0	-1e10	8	-1e10	8	-1E+10	1	-1E+10	1	-1E+10	1	-1E+10	1	-1E+10	1	-1E+10	1
4902554	37	C	02/10/2022	14:00	-136.211	49.500	0	14.90	0	6.8210	0	32.3380	0	25.346	0	14.772	0	-1e10	8	-1e10	8	-1E+10	1	-1E+10	1	-1E+10	1	-1E+10	1	-1E+10	1	-1E+10	1
4902554	37	C	02/10/2022	14:00	-136.211	49.500	0	15.80	0	6.8220	0	32.3380	0	25.346	0	15.665	0	-1e10	8	-1e10	8	-1E+10	1	-1E+10	1	-1E+10	1	-1E+10	1	-1E+10	1	-1E+10	1
4902554	37	C	02/10/2022	14:00	-136.211	49.500	0	16.90	0	6.8220	0	32.3380	0	25.346	0	16.755	0	-1e10	8	-1e10	8	-1E+10	1	-1E+10	1	-1E+10	1	-1E+10	1	-1E+10	1	-1E+10	1
4902554	37	C	02/10/2022	14:00	-136.211	49.500	0	18.10	0	6.8220	0	32.3380	0	25.346	0	17.945	0	-1e10	8	-1e10	8	-1E+10	1	-1E+10	1	-1E+10	1	-1E+10	1	-1E+10	1	-1E+10	1
4902554	37	C	02/10/2022	14:00	-136.211	49.500	0	18.90	0	6.8220	0	32.3380	0	25.346	0	18.738	0	-1e10	8	-1e10	8	-1E+10	1	-1E+10	1	-1E+10	1	-1E+10	1	-1E+10	1	-1E+10	1
4902554	37	C	02/10/2022	14:00	-136.211	49.500	0	19.70	0	6.8220	0	32.3380	0	25.346	0	19.531	0	-1e10	8	-1e10	8	-1E+10	1	-1E+10	1	-1E+10	1	-1E+10	1	-1E+10	1	-1E+10	1
4902554	37	C	02/10/2022	14:00	-136.211	49.500	0	20.90	0	6.8220	0	32.3380	0	25.346	0	20.721	0	-1e10	8	-1e10	8	-1E+10	1	-1E+10	1	-1E+10	1	-1E+10	1	-1E+10	1	-1E+10	1
4902554	37	C	02/10/2022	14:00	-136.211	49.500	0	21.90	0	6.8220	0	32.3380	0	25.346	0	21.712	0	-1e10	8	-1e10	8	-1E+10	1	-1E+10	1	-1E+10	1	-1E+10	1	-1E+10	1	-1E+10	1
4902554	37	C	02/10/2022	14:00	-136.211	49.500	0	23.10	0	6.8220	0	32.3380	0	25.346	0	22.902	0	-1e10	8	-1e10	8	-1E+10	1	-1E+10	1	-1E+10	1	-1E+10	1	-1E+10	1	-1E+10	1
4902554	37	C	02/10/2022	14:00	-136.211	49.500	0	24.10	0	6.8220	0	32.3380	0	25.346	0	23.893	0	-1e10	8	-1e10	8	-1E+10	1	-1E+10	1	-1E+10	1	-1E+10	1	-1E+10	1	-1E+10	1
4902554	37	C	02/10/2022	14:00	-136.211	49.500	0	24.90	0	6.8220	0	32.3390	0	25.347	0	24.686	0	-1e10	8	-1e10	8	-1E+10	1	-1E+10	1	-1E+10	1	-1E+10	1	-1E+10	1	-1E+10	1
4902554	37	C	02/10/2022	14:00	-136.211	49.500	0	25.80	0	6.8220	0	32.3380	0	25.346	0	25.578	0	-1e10	8	-1e10	8	-1E+10	1	-1E+10	1	-1E+10	1	-1E+10	1	-1E+10	1	-1E+10	1
4902554	37	C	02/10/2022	14:00	-136.211	49.500	0	26.90	0	6.8220	0	32.3380	0	25.346	0	26.669	0	-1e10	8	-1e10	8	-1E+10	1	-1E+10	1	-1E+10	1	-1E+10	1	-1E+10	1	-1E+10	1
4902554	37	C	02/10/2022	14:00	-136.211	49.500	0	28.10	0	6.8220	0	32.3380	0	25.346	0	27.858	0	-1e10	8	-1e10	8	-1E+10	1	-1E+10	1	-1E+10	1	-1E+10	1	-1E+10	1	-1E+10	1
4902554	37	C	02/10/2022	14:00	-136.211	49.500	0	29.00	0	6.8230	0	32.3380	0	25.346	0	28.751	0	-1e10	8	-1e10	8	-1E+10	1	-1E+10	1	-1E+10	1	-1E+10	1	-1E+10	1	-1E+10	1
4902554	37	C	02/10/2022	14:00	-136.211	49.500	0	29.90	0	6.8230	0	32.3380	0	25.346	0	29.643	0	-1e10	8	-1e10	8	-1E+10	1	-1E+10	1	-1E+10	1	-1E+10	1	-1E+10	1	-1E+10	1
4902554	37	C	02/10/2022	14:00	-136.211	49.500	0	31.10	0	6.8230	0	32.3380	0	25.346	0	30.832	0	-1e10	8	-1e10	8	-1E+10	1	-1E+10	1	-1E+10	1	-1E+10	1	-1E+10	1	-1E+10	1
4902554	37	C	02/10/2022	14:00	-136.211	49.500	0	32.10	0	6.8230	0	32.3390	0	25.347	0	31.824	0	-1e10	8	-1e10	8	-1E+10	1	-1E+10	1	-1E+10	1	-1E+10	1	-1E+10	1	-1E+10	1
4902554	37	C	02/10/2022	14:00	-136.211	49.500	0	33.00	0	6.8230	0	32.3380	0	25.346	0	32.716	0	-1e10	8	-1e10	8	-1E+10	1	-1E+10	1	-1E+10	1	-1E+10	1	-1E+10	1	-1E+10	1
4902554	37	C	02/10/2022	14:00	-136.211	49.500	0	33.90	0	6.8240	0	32.3380	0	25.346	0	33.608	0	-1e10	8	-1e10	8	-1E+10	1	-1E+10	1	-1E+10	1	-1E+10	1	-1E+10	1	-1E+10	1
4902554	37	C	02/10/2022	14:00	-136.211	49.500	0	34.90	0	6.8230	0	32.3380	0	25.346	0	34.599	0	-1e10	8	-1e10	8	-1E+10	1	-1E+10	1	-1E+10	1	-1E+10	1	-1E+10	1	-1E+10	1
4902554	37	C	02/10/2022	14:00	-136.211	49.500	0	36.10	0	6.8230	0	32.3380	0	25.346	0	35.789	0	-1e10	8	-1e10	8	-1E+10	1	-1E+10	1	-1E+10	1	-1E+10	1	-1E+10	1	-1E+10	1
4902554	37	C	02/10/2022	14:00	-136.211	49.500	0	37.10	0	6.8240	0	32.3380	0	25.346	0	36.780	0	-1e10	8	-1e10	8	-1E+10	1	-1E+10	1	-1E+10	1	-1E+10	1	-1E+10	1	-1E+10	1
4902554	37	C	02/10/2022	14:00	-136.211	49.500	0	38.00	0	6.8240	0	32.3380	0	25.346	0	37.672	0	-1e10	8	-1e10	8	-1E+10	1	-1E+10	1	-1E+10	1	-1E+10	1	-1E+10	1	-1E+10	1
4902554	37	C	02/10/2022	14:00	-136.211	49.500	0	39.00	0	6.8230	0	32.3380	0	25.346	0	38.664	0	-1e10	8	-1e10	8	-1E+10	1	-1E+10	1	-1E+10	1	-1E+10	1	-1E+10	1	-1E+10	1
4902554	37	C	02/10/2022	14:00	-136.211	49.500	0	40.00	0	6.8240	0	32.3380	0	25.346	0	39.655	0	-1e10	8	-1e10	8	-1E+10	1	-1E+10	1	-1E+10	1	-1E+10	1	-1E+10	1	-1E+10	1
4902554	37	C	02/10/2022	14:00	-136.211	49.500	0	41.00	0	6.8240	0	32.3380	0	25.346	0	40.646	0	-1e10	8	-1e10	8	-1E+10	1	-1E+10	1	-1E+10	1	-1E+10	1	-1E+10	1	-1E+10	1
4902554	37	C	02/10/2022	14:00	-136.211	49.500	0	42.00	0	6.8240	0	32.3390	0	25.347	0	41.638	0	-1e10	8	-1e10	8	-1E+10	1	-1E+10	1	-1E+10	1	-1E+10	1	-1E+10	1	-1E+10	1
4902554	37	C	02/10/2022	14:00	-136.211	49.500	0	43.00	0	6.8240	0	32.3380	0	25.346	0	42.629	0	-1e10	8	-1e10	8	-1E+10	1	-1E+10	1	-1E+10	1	-1E+10	1	-1E+10	1	-1E+10	1
4902554	37	C	02/10/2022	14:00	-136.211	49.500	0	43.90	0	6.8240	0	32.3380	0	25.346	0	43.521	0	-1e10	8	-1e10	8	-1E+10	1	-1E+10	1	-1E+10	1	-1E+10	1	-1E+10	1	-1E+10	1
4902554	37	C	02/10/2022	14:00	-136.211	49.500	0	45.00	0	6.8240	0	32.3380	0	25.346	0	44.611	0	-1e10	8	-1e10	8	-1E+10	1	-1E+10	1	-1E+10	1	-1E+10	1	-1E+10	1	-1E+10	1
4902554	37	C	02/10/2022	14:00	-136.211	49.500	0	46.00	0	6.8240	0	32.3380	0	25.346	0	45.603	0	-1e10	8	-1e10	8	-1E+10	1	-1E+10	1	-1E+10	1	-1E+10	1	-1E+10	1	-1E+10	1
4902554	37	C	02/10/2022	14:00	-136.211	49.500	0	46.90	0	6.8250	0	32.3380	0	25.346	0	46.495	0	-1e10	8	-1e10	8	-1E+10	1	-1E+10	1	-1E+10	1	-1E+10	1	-1E+10	1	-1E+10	1
4902554	37	C	02/10/2022	14:00	-136.211	49.500	0	48.00	0	6.8230	0	32.3380	0	25.346	0	47.585	0	-1e10	8	-1e10	8	-1E+10	1	-1E+10	1	-1E+10	1	-1E+10	1	-1E+10	1	-1E+10	1
4902554	37	C	02/10/2022	14:00	-136.211	49.500	0	49.00	0	6.8230	0	32.3380	0	25.346	0	48.576	0	-1e10	8	-1e10	8	-1E+10	1	-1E+10	1	-1E+10	1	-1E+10	1	-1E+10	1	-1E+10	1
4902554	37	C	02/10/2022	14:00	-136.211	49.500	0	50.00	0	6.8230	0	32.3380	0	25.346	0	49.568	0	-1e10	8	-1e10	8	-1E+10	1	-1E+10	1	-1E+10	1	-1E+10	1	-1E+10	1	-1E+10	1
4902554	37	C	02/10/2022	14:00	-136.211	49.500	0	51.10	0	6.8230	0	32.3380	0	25.346	0	50.658	0	-1e10	8	-1e10	8	-1E+10	1	-1E+10	1	-1E+10	1	-1E+10	1	-1E+10	1	-1E+10	1
4902554	37	C	02/10/2022	14:00	-136.211	49.500	0	51.80	0	6.8220	0	32.3390	0	25.347	0	51.352	0	-1e10	8	-1e10	8	-1E+10	1	-1E+10	1	-1E+10	1	-1E+10	1	-1E+10	1	-1E+10	1
4902554	37	C	02/10/2022	14:00	-136.211	49.500	0	52.80	0	6.8220	0	32.3380	0	25.347	0	52.343	0	-1e10	8	-1e10	8	-1E+10	1	-1E+10	1	-1E+10	1	-1E+10	1	-1E+10	1	-1E+10	1
4902554	37	C	02/10/2022	14:00	-136.211	49.500	0	53.90	0	6.8230	0	32.3380	0	25.347	0	53.433	0	-1e10	8	-1e10	8	-1E+10	1	-1E+10	1	-1E+10	1	-1E+10	1	-1E+10	1	-1E+10	1
4902554	37	C	02/10/2022	14:00	-136.211	49.500	0	54.90	0	6.8220	0	32.3380	0	25.347	0	54.425	0	-1e10	8	-1e10	8	-1E+10	1	-1E+10	1	-1E+10	1	-1E+10	1	-1E+10	1	-1E+10	1
4902554	37	C	02/10/2022	14:00	-136.211	49.500	0	56.00	0	6.8220	0	32.3380	0	25.347	0	55.515	0	-1e10	8	-1e10	8	-1E+10	1	-1E+10	1	-1E+10	1	-1E+10	1	-1E+10	1	-1E+10	1
4902554	37	C	02/10/2022	14:00	-136.211	49.500	0	57.00	0	6.8220	0	32.3380	0	25.347	0	56.506	0	-1e10	8	-1e10	8	-1E+10	1	-1E+10	1	-1E+10	1	-1E+10	1	-1E+10	1	-1E+10	1
4902554	37	C	02/10/2022	14:00	-136.211	49.500	0	58.20	0	6.8220	0	32.3380	0	25.347	0	57.696	0	-1e10	8	-1e10	8	-1E+10	1	-1E+10	1	-1E+10	1	-1E+10	1	-1E+10	1	-1E+10	1
4902554	37	C	02/10/2022	14:00	-136.211	49.500	0	58.90	0	6.8220	0	32.3390	0	25.347	0	58.389	0	-1e10	8	-1e10	8	-1E+10	1	-1E+10	1	-1E+10	1	-1E+10	1	-1E+10	1	-1E+10	1
4902554	37	C	02/10/2022	14:00	-136.211	49.500	0	59.90	0	6.8210	0	32.3380	0	25.347	0	59.381	0	-1e10	8	-1e10	8	-1E+10	1	-1E+10	1	-1E+10	1	-1E+10	1	-1E+10	1	-1E+10	1
4902554	37	C	02/10/2022	14:00	-136.211	49.500	0	61.00	0	6.8210	0	32.3390	0	25.348	0	60.471	0	-1e10	8	-1e10	8	-1E+10	1	-1E+10	1	-1E+10	1	-1E+10	1	-1E+10	1	-1E+10	1
4902554	37	C	02/10/2022	14:00	-136.211	49.500	0	62.00	0	6.8210	0	32.3390	0	25.348	0	61.462	0	-1e10	8	-1e10	8	-1E+10	1	-1E+10	1	-1E+10	1	-1E+10	1	-1E+10	1	-1E+10	1
4902554	37	C	02/10/2022	14:00	-136.211	49.500	0	63.10	0	6.8210	0	32.3390	0	25.348	0	62.552	0	-1e10	8	-1e10	8	-1E+10	1	-1E+10	1	-1E+10	1	-1E+10	1	-1E+10	1	-1E+10	1
4902554	37	C	02/10/2022	14:00	-136.211	49.500	0	63.80	0	6.8210	0	32.3380	0	25.347	0	63.246	0	-1e10	8	-1e10	8	-1E+10	1	-1E+10	1	-1E+10	1	-1E+10	1	-1E+10	1	-1E+10	1
4902554	37	C	02/10/2022	14:00	-136.211	49.500	0	64.90	0	6.8200	0	32.3390	0	25.348	0	64.336	0	-1e10	8	-1e10	8	-1E+10	1	-1E+10	1	-1E+10	1	-1E+10	1	-1E+10	1	-1E+10	1
4902554	37	C	02/10/2022	14:00	-136.211	49.500	0	66.00	0	6.8180	0	32.3390	0	25.348	0	65.427	0	-1e10	8	-1e10	8	-1E+10	1	-1E+10	1	-1E+10	1	-1E+10	1	-1E+10	1	-1E+10	1
4902554	37	C	02/10/2022	14:00	-136.211	49.500	0	66.80	0	6.8180	0	32.3390	0	25.348	0	66.220	0	-1e10	8	-1e10	8	-1E+10	1	-1E+10	1	-1E+10	1	-1E+10	1	-1E+10	1	-1E+10	1
4902554	37	C	02/10/2022	14:00	-136.211	49.500	0	67.90	0	6.8170	0	32.3390	0	25.348	0	67.310	0	-1e10	8	-1e10	8	-1E+10	1	-1E+10	1	-1E+10	1	-1E+10	1	-1E+10	1	-1E+10	1
4902554	37	C	02/10/2022	14:00	-136.211	49.500	0	69.00	0	6.8180	0	32.3390	0	25.348	0	68.400	0	-1e10	8	-1e10	8	-1E+10	1	-1E+10	1	-1E+10	1	-1E+10	1	-1E+10	1	-1E+10	1
4902554	37	C	02/10/2022	14:00	-136.211	49.500	0	69.80	0	6.8170	0	32.3390	0	25.348	0	69.193	0	-1e10	8	-1e10	8	-1E+10	1	-1E+10	1	-1E+10	1	-1E+10	1	-1E+10	1	-1E+10	1
4902554	37	C	02/10/2022	14:00	-136.211	49.500	0	70.80	0	6.8170	0	32.3390	0	25.348	0	70.184	0	-1e10	8	-1e10	8	-1E+10	1	-1E+10	1	-1E+10	1	-1E+10	1	-1E+10	1	-1E+10	1
4902554	37	C	02/10/2022	14:00	-136.211	49.500	0	71.90	0	6.8170	0	32.3390	0	25.348	0	71.274	0	-1e10	8	-1e10	8	-1E+10	1	-1E+10	1	-1E+10	1	-1E+10	1	-1E+10	1	-1E+10	1
4902554	37	C	02/10/2022	14:00	-136.211	49.500	0	73.00	0	6.8160	0	32.3390	0	25.348	0	72.365	0	-1e10	8	-1e10	8	-1E+10	1	-1E+10	1	-1E+10	1	-1E+10	1	-1E+10	1	-1E+10	1
4902554	37	C	02/10/2022	14:00	-136.211	49.500	0	74.00	0	6.8160	0	32.3390	0	25.348	0	73.356	0	-1e10	8	-1e10	8	-1E+10	1	-1E+10	1	-1E+10	1	-1E+10	1	-1E+10	1	-1E+10	1
4902554	37	C	02/10/2022	14:00	-136.211	49.500	0	75.00	0	6.8130	0	32.3390	0	25.349	0	74.347	0	-1e10	8	-1e10	8	-1E+10	1	-1E+10	1	-1E+10	1	-1E+10	1	-1E+10	1	-1E+10	1
4902554	37	C	02/10/2022	14:00	-136.211	49.500	0	76.10	0	6.8110	0	32.3390	0	25.349	0	75.437	0	-1e10	8	-1e10	8	-1E+10	1	-1E+10	1	-1E+10	1	-1E+10	1	-1E+10	1	-1E+10	1
4902554	37	C	02/10/2022	14:00	-136.211	49.500	0	76.80	0	6.8110	0	32.3400	0	25.350	0	76.131	0	-1e10	8	-1e10	8	-1E+10	1	-1E+10	1	-1E+10	1	-1E+10	1	-1E+10	1	-1E+10	1
4902554	37	C	02/10/2022	14:00	-136.211	49.500	0	77.80	0	6.8090	0	32.3390	0	25.349	0	77.122	0	-1e10	8	-1e10	8	-1E+10	1	-1E+10	1	-1E+10	1	-1E+10	1	-1E+10	1	-1E+10	1
4902554	37	C	02/10/2022	14:00	-136.211	49.500	0	78.90	0	6.8050	0	32.3400	0	25.351	0	78.212	0	-1e10	8	-1e10	8	-1E+10	1	-1E+10	1	-1E+10	1	-1E+10	1	-1E+10	1	-1E+10	1
4902554	37	C	02/10/2022	14:00	-136.211	49.500	0	79.90	0	6.8010	0	32.3400	0	25.351	0	79.203	0	-1e10	8	-1e10	8	-1E+10	1	-1E+10	1	-1E+10	1	-1E+10	1	-1E+10	1	-1E+10	1
4902554	37	C	02/10/2022	14:00	-136.211	49.500	0	80.90	0	6.7980	0	32.3400	0	25.352	0	80.194	0	-1e10	8	-1e10	8	-1E+10	1	-1E+10	1	-1E+10	1	-1E+10	1	-1E+10	1	-1E+10	1
4902554	37	C	02/10/2022	14:00	-136.211	49.500	0	81.90	0	6.7950	0	32.3400	0	25.352	0	81.185	0	-1e10	8	-1e10	8	-1E+10	1	-1E+10	1	-1E+10	1	-1E+10	1	-1E+10	1	-1E+10	1
4902554	37	C	02/10/2022	14:00	-136.211	49.500	0	82.90	0	6.7930	0	32.3410	0	25.353	0	82.177	0	-1e10	8	-1e10	8	-1E+10	1	-1E+10	1	-1E+10	1	-1E+10	1	-1E+10	1	-1E+10	1
4902554	37	C	02/10/2022	14:00	-136.211	49.500	0	83.90	0	6.7910	0	32.3410	0	25.353	0	83.168	0	-1e10	8	-1e10	8	-1E+10	1	-1E+10	1	-1E+10	1	-1E+10	1	-1E+10	1	-1E+10	1
4902554	37	C	02/10/2022	14:00	-136.211	49.500	0	84.80	0	6.7890	0	32.3410	0	25.354	0	84.060	0	-1e10	8	-1e10	8	-1E+10	1	-1E+10	1	-1E+10	1	-1E+10	1	-1E+10	1	-1E+10	1
4902554	37	C	02/10/2022	14:00	-136.211	49.500	0	85.80	0	6.7870	0	32.3420	0	25.355	0	85.051	0	-1e10	8	-1e10	8	-1E+10	1	-1E+10	1	-1E+10	1	-1E+10	1	-1E+10	1	-1E+10	1
4902554	37	C	02/10/2022	14:00	-136.211	49.500	0	86.80	0	6.7860	0	32.3420	0	25.355	0	86.042	0	-1e10	8	-1e10	8	-1E+10	1	-1E+10	1	-1E+10	1	-1E+10	1	-1E+10	1	-1E+10	1
4902554	37	C	02/10/2022	14:00	-136.211	49.500	0	87.80	0	6.7840	0	32.3430	0	25.356	0	87.033	0	-1e10	8	-1e10	8	-1E+10	1	-1E+10	1	-1E+10	1	-1E+10	1	-1E+10	1	-1E+10	1
4902554	37	C	02/10/2022	14:00	-136.211	49.500	0	89.10	0	6.7830	0	32.3430	0	25.356	0	88.321	0	-1e10	8	-1e10	8	-1E+10	1	-1E+10	1	-1E+10	1	-1E+10	1	-1E+10	1	-1E+10	1
4902554	37	C	02/10/2022	14:00	-136.211	49.500	0	90.10	0	6.7820	0	32.3430	0	25.356	0	89.312	0	-1e10	8	-1e10	8	-1E+10	1	-1E+10	1	-1E+10	1	-1E+10	1	-1E+10	1	-1E+10	1
4902554	37	C	02/10/2022	14:00	-136.211	49.500	0	91.10	0	6.7780	0	32.3440	0	25.358	0	90.303	0	-1e10	8	-1e10	8	-1E+10	1	-1E+10	1	-1E+10	1	-1E+10	1	-1E+10	1	-1E+10	1
4902554	37	C	02/10/2022	14:00	-136.211	49.500	0	92.10	0	6.7770	0	32.3440	0	25.358	0	91.294	0	-1e10	8	-1e10	8	-1E+10	1	-1E+10	1	-1E+10	1	-1E+10	1	-1E+10	1	-1E+10	1
4902554	37	C	02/10/2022	14:00	-136.211	49.500	0	93.00	0	6.7730	0	32.3450	0	25.359	0	92.186	0	-1e10	8	-1e10	8	-1E+10	1	-1E+10	1	-1E+10	1	-1E+10	1	-1E+10	1	-1E+10	1
4902554	37	C	02/10/2022	14:00	-136.211	49.500	0	94.00	0	6.7690	0	32.3460	0	25.360	0	93.177	0	-1e10	8	-1e10	8	-1E+10	1	-1E+10	1	-1E+10	1	-1E+10	1	-1E+10	1	-1E+10	1
4902554	37	C	02/10/2022	14:00	-136.211	49.500	0	94.80	0	6.7670	0	32.3470	0	25.361	0	93.970	0	-1e10	8	-1e10	8	-1E+10	1	-1E+10	1	-1E+10	1	-1E+10	1	-1E+10	1	-1E+10	1
4902554	37	C	02/10/2022	14:00	-136.211	49.500	0	96.00	0	6.7640	0	32.3480	0	25.363	0	95.159	0	-1e10	8	-1e10	8	-1E+10	1	-1E+10	1	-1E+10	1	-1E+10	1	-1E+10	1	-1E+10	1
4902554	37	C	02/10/2022	14:00	-136.211	49.500	0	97.10	0	6.7550	0	32.3530	0	25.368	0	96.249	0	-1e10	8	-1e10	8	-1E+10	1	-1E+10	1	-1E+10	1	-1E+10	1	-1E+10	1	-1E+10	1
4902554	37	C	02/10/2022	14:00	-136.211	49.500	0	98.10	0	6.7460	0	32.3570	0	25.372	0	97.240	0	-1e10	8	-1e10	8	-1E+10	1	-1E+10	1	-1E+10	1	-1E+10	1	-1E+10	1	-1E+10	1
4902554	37	C	02/10/2022	14:00	-136.211	49.500	0	99.10	0	6.7300	0	32.3660	0	25.381	0	98.231	0	-1e10	8	-1e10	8	-1E+10	1	-1E+10	1	-1E+10	1	-1E+10	1	-1E+10	1	-1E+10	1
4902554	37	C	02/10/2022	14:00	-136.211	49.500	0	100.10	0	6.6740	0	32.3960	0	25.412	0	99.222	0	-1e10	8	-1e10	8	-1E+10	1	-1E+10	1	-1E+10	1	-1E+10	1	-1E+10	1	-1E+10	1
4902554	37	C	02/10/2022	14:00	-136.211	49.500	0	101.00	0	6.5410	0	32.4850	0	25.499	0	100.114	0	-1e10	8	-1e10	8	-1E+10	1	-1E+10	1	-1E+10	1	-1E+10	1	-1E+10	1	-1E+10	1
4902554	37	C	02/10/2022	14:00	-136.211	49.500	0	102.20	0	6.3710	0	32.6030	0	25.614	0	101.303	0	-1e10	8	-1e10	8	-1E+10	1	-1E+10	1	-1E+10	1	-1E+10	1	-1E+10	1	-1E+10	1
4902554	37	C	02/10/2022	14:00	-136.211	49.500	0	103.00	0	6.2360	0	32.7160	0	25.720	0	102.096	0	-1e10	8	-1e10	8	-1E+10	1	-1E+10	1	-1E+10	1	-1E+10	1	-1E+10	1	-1E+10	1
4902554	37	C	02/10/2022	14:00	-136.211	49.500	0	104.10	0	6.1650	0	32.7920	0	25.789	0	103.186	0	-1e10	8	-1e10	8	-1E+10	1	-1E+10	1	-1E+10	1	-1E+10	1	-1E+10	1	-1E+10	1
4902554	37	C	02/10/2022	14:00	-136.211	49.500	0	105.00	0	6.1280	0	32.8470	0	25.837	0	104.078	0	-1e10	8	-1e10	8	-1E+10	1	-1E+10	1	-1E+10	1	-1E+10	1	-1E+10	1	-1E+10	1
4902554	37	C	02/10/2022	14:00	-136.211	49.500	0	105.90	0	6.1180	0	32.8800	0	25.864	0	104.970	0	-1e10	8	-1e10	8	-1E+10	1	-1E+10	1	-1E+10	1	-1E+10	1	-1E+10	1	-1E+10	1
4902554	37	C	02/10/2022	14:00	-136.211	49.500	0	107.00	0	6.1130	0	32.9160	0	25.893	0	106.060	0	-1e10	8	-1e10	8	-1E+10	1	-1E+10	1	-1E+10	1	-1E+10	1	-1E+10	1	-1E+10	1
4902554	37	C	02/10/2022	14:00	-136.211	49.500	0	108.20	0	6.1100	0	32.9390	0	25.912	0	107.249	0	-1e10	8	-1e10	8	-1E+10	1	-1E+10	1	-1E+10	1	-1E+10	1	-1E+10	1	-1E+10	1
4902554	37	C	02/10/2022	14:00	-136.211	49.500	0	109.10	0	6.1030	0	32.9930	0	25.955	0	108.141	0	-1e10	8	-1e10	8	-1E+10	1	-1E+10	1	-1E+10	1	-1E+10	1	-1E+10	1	-1E+10	1
4902554	37	C	02/10/2022	14:00	-136.211	49.500	0	109.90	0	6.1090	0	33.0610	0	26.008	0	108.934	0	-1e10	8	-1e10	8	-1E+10	1	-1E+10	1	-1E+10	1	-1E+10	1	-1E+10	1	-1E+10	1
4902554	37	C	02/10/2022	14:00	-136.211	49.500	0	111.00	0	6.1210	0	33.1090	0	26.045	0	110.024	0	-1e10	8	-1e10	8	-1E+10	1	-1E+10	1	-1E+10	1	-1E+10	1	-1E+10	1	-1E+10	1
4902554	37	C	02/10/2022	14:00	-136.211	49.500	0	112.10	0	6.1120	0	33.1480	0	26.077	0	111.114	0	-1e10	8	-1e10	8	-1E+10	1	-1E+10	1	-1E+10	1	-1E+10	1	-1E+10	1	-1E+10	1
4902554	37	C	02/10/2022	14:00	-136.211	49.500	0	112.90	0	6.1140	0	33.1620	0	26.088	0	111.907	0	-1e10	8	-1e10	8	-1E+10	1	-1E+10	1	-1E+10	1	-1E+10	1	-1E+10	1	-1E+10	1
4902554	37	C	02/10/2022	14:00	-136.211	49.500	0	113.80	0	6.1220	0	33.2030	0	26.119	0	112.798	0	-1e10	8	-1e10	8	-1E+10	1	-1E+10	1	-1E+10	1	-1E+10	1	-1E+10	1	-1E+10	1
4902554	37	C	02/10/2022	14:00	-136.211	49.500	0	114.80	0	6.1320	0	33.2460	0	26.152	0	113.789	0	-1e10	8	-1e10	8	-1E+10	1	-1E+10	1	-1E+10	1	-1E+10	1	-1E+10	1	-1E+10	1
4902554	37	C	02/10/2022	14:00	-136.211	49.500	0	115.80	0	6.1340	0	33.2600	0	26.163	0	114.780	0	-1e10	8	-1e10	8	-1E+10	1	-1E+10	1	-1E+10	1	-1E+10	1	-1E+10	1	-1E+10	1
4902554	37	C	02/10/2022	14:00	-136.211	49.500	0	116.90	0	6.1310	0	33.2780	0	26.177	0	115.870	0	-1e10	8	-1e10	8	-1E+10	1	-1E+10	1	-1E+10	1	-1E+10	1	-1E+10	1	-1E+10	1
4902554	37	C	02/10/2022	14:00	-136.211	49.500	0	118.00	0	6.1300	0	33.2920	0	26.188	0	116.960	0	-1e10	8	-1e10	8	-1E+10	1	-1E+10	1	-1E+10	1	-1E+10	1	-1E+10	1	-1E+10	1
4902554	37	C	02/10/2022	14:00	-136.211	49.500	0	119.00	0	6.1300	0	33.3090	0	26.202	0	117.951	0	-1e10	8	-1e10	8	-1E+10	1	-1E+10	1	-1E+10	1	-1E+10	1	-1E+10	1	-1E+10	1
4902554	37	C	02/10/2022	14:00	-136.211	49.500	0	120.00	0	6.1290	0	33.3580	0	26.241	0	118.942	0	-1e10	8	-1e10	8	-1E+10	1	-1E+10	1	-1E+10	1	-1E+10	1	-1E+10	1	-1E+10	1
4902554	37	C	02/10/2022	14:00	-136.211	49.500	0	121.00	0	6.1320	0	33.3800	0	26.258	0	119.933	0	-1e10	8	-1e10	8	-1E+10	1	-1E+10	1	-1E+10	1	-1E+10	1	-1E+10	1	-1E+10	1
4902554	37	C	02/10/2022	14:00	-136.211	49.500	0	122.00	0	6.1310	0	33.3830	0	26.260	0	120.924	0	-1e10	8	-1e10	8	-1E+10	1	-1E+10	1	-1E+10	1	-1E+10	1	-1E+10	1	-1E+10	1
4902554	37	C	02/10/2022	14:00	-136.211	49.500	0	123.00	0	6.1310	0	33.3930	0	26.268	0	121.915	0	-1e10	8	-1e10	8	-1E+10	1	-1E+10	1	-1E+10	1	-1E+10	1	-1E+10	1	-1E+10	1
4902554	37	C	02/10/2022	14:00	-136.211	49.500	0	124.10	0	6.1260	0	33.4390	0	26.305	0	123.005	0	-1e10	8	-1e10	8	-1E+10	1	-1E+10	1	-1E+10	1	-1E+10	1	-1E+10	1	-1E+10	1
4902554	37	C	02/10/2022	14:00	-136.211	49.500	0	124.90	0	6.1160	0	33.4630	0	26.325	0	123.797	0	-1e10	8	-1e10	8	-1E+10	1	-1E+10	1	-1E+10	1	-1E+10	1	-1E+10	1	-1E+10	1
4902554	37	C	02/10/2022	14:00	-136.211	49.500	0	125.80	0	6.1110	0	33.4760	0	26.336	0	124.689	0	-1e10	8	-1e10	8	-1E+10	1	-1E+10	1	-1E+10	1	-1E+10	1	-1E+10	1	-1E+10	1
4902554	37	C	02/10/2022	14:00	-136.211	49.500	0	127.00	0	6.0980	0	33.5080	0	26.363	0	125.878	0	-1e10	8	-1e10	8	-1E+10	1	-1E+10	1	-1E+10	1	-1E+10	1	-1E+10	1	-1E+10	1
4902554	37	C	02/10/2022	14:00	-136.211	49.500	0	128.10	0	6.0960	0	33.5100	0	26.365	0	126.968	0	-1e10	8	-1e10	8	-1E+10	1	-1E+10	1	-1E+10	1	-1E+10	1	-1E+10	1	-1E+10	1
4902554	37	C	02/10/2022	14:00	-136.211	49.500	0	129.00	0	6.0930	0	33.5160	0	26.370	0	127.860	0	-1e10	8	-1e10	8	-1E+10	1	-1E+10	1	-1E+10	1	-1E+10	1	-1E+10	1	-1E+10	1
4902554	37	C	02/10/2022	14:00	-136.211	49.500	0	129.90	0	6.0870	0	33.5240	0	26.377	0	128.752	0	-1e10	8	-1e10	8	-1E+10	1	-1E+10	1	-1E+10	1	-1E+10	1	-1E+10	1	-1E+10	1
4902554	37	C	02/10/2022	14:00	-136.211	49.500	0	131.10	0	6.0660	0	33.5490	0	26.399	0	129.941	0	-1e10	8	-1e10	8	-1E+10	1	-1E+10	1	-1E+10	1	-1E+10	1	-1E+10	1	-1E+10	1
4902554	37	C	02/10/2022	14:00	-136.211	49.500	0	132.00	0	6.0550	0	33.5630	0	26.412	0	130.833	0	-1e10	8	-1e10	8	-1E+10	1	-1E+10	1	-1E+10	1	-1E+10	1	-1E+10	1	-1E+10	1
4902554	37	C	02/10/2022	14:00	-136.211	49.500	0	133.00	0	6.0500	0	33.5710	0	26.419	0	131.823	0	-1e10	8	-1e10	8	-1E+10	1	-1E+10	1	-1E+10	1	-1E+10	1	-1E+10	1	-1E+10	1
4902554	37	C	02/10/2022	14:00	-136.211	49.500	0	134.00	0	6.0500	0	33.5740	0	26.421	0	132.814	0	-1e10	8	-1e10	8	-1E+10	1	-1E+10	1	-1E+10	1	-1E+10	1	-1E+10	1	-1E+10	1
4902554	37	C	02/10/2022	14:00	-136.211	49.500	0	134.90	0	6.0400	0	33.5810	0	26.428	0	133.706	0	-1e10	8	-1e10	8	-1E+10	1	-1E+10	1	-1E+10	1	-1E+10	1	-1E+10	1	-1E+10	1
4902554	37	C	02/10/2022	14:00	-136.211	49.500	0	136.00	0	6.0280	0	33.5960	0	26.441	0	134.796	0	-1e10	8	-1e10	8	-1E+10	1	-1E+10	1	-1E+10	1	-1E+10	1	-1E+10	1	-1E+10	1
4902554	37	C	02/10/2022	14:00	-136.211	49.500	0	136.90	0	6.0240	0	33.6000	0	26.445	0	135.688	0	-1e10	8	-1e10	8	-1E+10	1	-1E+10	1	-1E+10	1	-1E+10	1	-1E+10	1	-1E+10	1
4902554	37	C	02/10/2022	14:00	-136.211	49.500	0	137.90	0	6.0200	0	33.6040	0	26.449	0	136.678	0	-1e10	8	-1e10	8	-1E+10	1	-1E+10	1	-1E+10	1	-1E+10	1	-1E+10	1	-1E+10	1
4902554	37	C	02/10/2022	14:00	-136.211	49.500	0	138.80	0	6.0140	0	33.6080	0	26.453	0	137.570	0	-1e10	8	-1e10	8	-1E+10	1	-1E+10	1	-1E+10	1	-1E+10	1	-1E+10	1	-1E+10	1
4902554	37	C	02/10/2022	14:00	-136.211	49.500	0	140.10	0	6.0010	0	33.6180	0	26.462	0	138.858	0	-1e10	8	-1e10	8	-1E+10	1	-1E+10	1	-1E+10	1	-1E+10	1	-1E+10	1	-1E+10	1
4902554	37	C	02/10/2022	14:00	-136.211	49.500	0	141.10	0	5.9980	0	33.6240	0	26.467	0	139.849	0	-1e10	8	-1e10	8	-1E+10	1	-1E+10	1	-1E+10	1	-1E+10	1	-1E+10	1	-1E+10	1
4902554	37	C	02/10/2022	14:00	-136.211	49.500	0	141.80	0	5.9930	0	33.6250	0	26.469	0	140.542	0	-1e10	8	-1e10	8	-1E+10	1	-1E+10	1	-1E+10	1	-1E+10	1	-1E+10	1	-1E+10	1
4902554	37	C	02/10/2022	14:00	-136.211	49.500	0	142.80	0	5.9900	0	33.6240	0	26.468	0	141.533	0	-1e10	8	-1e10	8	-1E+10	1	-1E+10	1	-1E+10	1	-1E+10	1	-1E+10	1	-1E+10	1
4902554	37	C	02/10/2022	14:00	-136.211	49.500	0	143.80	0	5.9800	0	33.6270	0	26.472	0	142.524	0	-1e10	8	-1e10	8	-1E+10	1	-1E+10	1	-1E+10	1	-1E+10	1	-1E+10	1	-1E+10	1
4902554	37	C	02/10/2022	14:00	-136.211	49.500	0	144.90	0	5.9610	0	33.6350	0	26.481	0	143.614	0	-1e10	8	-1e10	8	-1E+10	1	-1E+10	1	-1E+10	1	-1E+10	1	-1E+10	1	-1E+10	1
4902554	37	C	02/10/2022	14:00	-136.211	49.500	0	146.00	0	5.9470	0	33.6400	0	26.486	0	144.704	0	-1e10	8	-1e10	8	-1E+10	1	-1E+10	1	-1E+10	1	-1E+10	1	-1E+10	1	-1E+10	1
4902554	37	C	02/10/2022	14:00	-136.211	49.500	0	146.80	0	5.9210	0	33.6480	0	26.496	0	145.496	0	-1e10	8	-1e10	8	-1E+10	1	-1E+10	1	-1E+10	1	-1E+10	1	-1E+10	1	-1E+10	1
4902554	37	C	02/10/2022	14:00	-136.211	49.500	0	147.80	0	5.9110	0	33.6570	0	26.504	0	146.487	0	-1e10	8	-1e10	8	-1E+10	1	-1E+10	1	-1E+10	1	-1E+10	1	-1E+10	1	-1E+10	1
4902554	37	C	02/10/2022	14:00	-136.211	49.500	0	148.90	0	5.9000	0	33.6680	0	26.514	0	147.577	0	-1e10	8	-1e10	8	-1E+10	1	-1E+10	1	-1E+10	1	-1E+10	1	-1E+10	1	-1E+10	1
4902554	37	C	02/10/2022	14:00	-136.211	49.500	0	149.70	0	5.8860	0	33.6750	0	26.522	0	148.370	0	-1e10	8	-1e10	8	-1E+10	1	-1E+10	1	-1E+10	1	-1E+10	1	-1E+10	1	-1E+10	1
4902554	37	C	02/10/2022	14:00	-136.211	49.500	0	150.80	0	5.8800	0	33.6800	0	26.526	0	149.459	0	-1e10	8	-1e10	8	-1E+10	1	-1E+10	1	-1E+10	1	-1E+10	1	-1E+10	1	-1E+10	1
4902554	37	C	02/10/2022	14:00	-136.211	49.500	0	152.00	0	5.8820	0	33.6880	0	26.532	0	150.648	0	-1e10	8	-1e10	8	-1E+10	1	-1E+10	1	-1E+10	1	-1E+10	1	-1E+10	1	-1E+10	1
4902554	37	C	02/10/2022	14:00	-136.211	49.500	0	152.80	0	5.8580	0	33.6860	0	26.534	0	151.441	0	-1e10	8	-1e10	8	-1E+10	1	-1E+10	1	-1E+10	1	-1E+10	1	-1E+10	1	-1E+10	1
4902554	37	C	02/10/2022	14:00	-136.211	49.500	0	154.00	0	5.8580	0	33.6920	0	26.538	0	152.630	0	-1e10	8	-1e10	8	-1E+10	1	-1E+10	1	-1E+10	1	-1E+10	1	-1E+10	1	-1E+10	1
4902554	37	C	02/10/2022	14:00	-136.211	49.500	0	155.20	0	5.8550	0	33.6930	0	26.540	0	153.819	0	-1e10	8	-1e10	8	-1E+10	1	-1E+10	1	-1E+10	1	-1E+10	1	-1E+10	1	-1E+10	1
4902554	37	C	02/10/2022	14:00	-136.211	49.500	0	156.00	0	5.8540	0	33.6940	0	26.541	0	154.611	0	-1e10	8	-1e10	8	-1E+10	1	-1E+10	1	-1E+10	1	-1E+10	1	-1E+10	1	-1E+10	1
4902554	37	C	02/10/2022	14:00	-136.211	49.500	0	156.80	0	5.8490	0	33.6960	0	26.543	0	155.404	0	-1e10	8	-1e10	8	-1E+10	1	-1E+10	1	-1E+10	1	-1E+10	1	-1E+10	1	-1E+10	1
4902554	37	C	02/10/2022	14:00	-136.211	49.500	0	158.00	0	5.8470	0	33.7000	0	26.546	0	156.593	0	-1e10	8	-1e10	8	-1E+10	1	-1E+10	1	-1E+10	1	-1E+10	1	-1E+10	1	-1E+10	1
4902554	37	C	02/10/2022	14:00	-136.211	49.500	0	159.20	0	5.8470	0	33.7040	0	26.549	0	157.782	0	-1e10	8	-1e10	8	-1E+10	1	-1E+10	1	-1E+10	1	-1E+10	1	-1E+10	1	-1E+10	1
4902554	37	C	02/10/2022	14:00	-136.211	49.500	0	160.00	0	5.8120	0	33.7040	0	26.554	0	158.574	0	-1e10	8	-1e10	8	-1E+10	1	-1E+10	1	-1E+10	1	-1E+10	1	-1E+10	1	-1E+10	1
4902554	37	C	02/10/2022	14:00	-136.211	49.500	0	160.80	0	5.7990	0	33.7050	0	26.556	0	159.367	0	-1e10	8	-1e10	8	-1E+10	1	-1E+10	1	-1E+10	1	-1E+10	1	-1E+10	1	-1E+10	1
4902554	37	C	02/10/2022	14:00	-136.211	49.500	0	161.70	0	5.7930	0	33.7080	0	26.559	0	160.258	0	-1e10	8	-1e10	8	-1E+10	1	-1E+10	1	-1E+10	1	-1E+10	1	-1E+10	1	-1E+10	1
4902554	37	C	02/10/2022	14:00	-136.211	49.500	0	162.90	0	5.7900	0	33.7100	0	26.561	0	161.447	0	-1e10	8	-1e10	8	-1E+10	1	-1E+10	1	-1E+10	1	-1E+10	1	-1E+10	1	-1E+10	1
4902554	37	C	02/10/2022	14:00	-136.211	49.500	0	164.20	0	5.7670	0	33.7160	0	26.569	0	162.735	0	-1e10	8	-1e10	8	-1E+10	1	-1E+10	1	-1E+10	1	-1E+10	1	-1E+10	1	-1E+10	1
4902554	37	C	02/10/2022	14:00	-136.211	49.500	0	165.00	0	5.7540	0	33.7170	0	26.571	0	163.528	0	-1e10	8	-1e10	8	-1E+10	1	-1E+10	1	-1E+10	1	-1E+10	1	-1E+10	1	-1E+10	1
4902554	37	C	02/10/2022	14:00	-136.211	49.500	0	165.80	0	5.7490	0	33.7170	0	26.572	0	164.320	0	-1e10	8	-1e10	8	-1E+10	1	-1E+10	1	-1E+10	1	-1E+10	1	-1E+10	1	-1E+10	1
4902554	37	C	02/10/2022	14:00	-136.211	49.500	0	166.70	0	5.7400	0	33.7190	0	26.574	0	165.212	0	-1e10	8	-1e10	8	-1E+10	1	-1E+10	1	-1E+10	1	-1E+10	1	-1E+10	1	-1E+10	1
4902554	37	C	02/10/2022	14:00	-136.211	49.500	0	167.90	0	5.7190	0	33.7220	0	26.579	0	166.401	0	-1e10	8	-1e10	8	-1E+10	1	-1E+10	1	-1E+10	1	-1E+10	1	-1E+10	1	-1E+10	1
4902554	37	C	02/10/2022	14:00	-136.211	49.500	0	169.20	0	5.6990	0	33.7250	0	26.584	0	167.688	0	-1e10	8	-1e10	8	-1E+10	1	-1E+10	1	-1E+10	1	-1E+10	1	-1E+10	1	-1E+10	1
4902554	37	C	02/10/2022	14:00	-136.211	49.500	0	170.10	0	5.6840	0	33.7290	0	26.589	0	168.580	0	-1e10	8	-1e10	8	-1E+10	1	-1E+10	1	-1E+10	1	-1E+10	1	-1E+10	1	-1E+10	1
4902554	37	C	02/10/2022	14:00	-136.211	49.500	0	170.90	0	5.6760	0	33.7300	0	26.591	0	169.372	0	-1e10	8	-1e10	8	-1E+10	1	-1E+10	1	-1E+10	1	-1E+10	1	-1E+10	1	-1E+10	1
4902554	37	C	02/10/2022	14:00	-136.211	49.500	0	171.80	0	5.6750	0	33.7300	0	26.591	0	170.264	0	-1e10	8	-1e10	8	-1E+10	1	-1E+10	1	-1E+10	1	-1E+10	1	-1E+10	1	-1E+10	1
4902554	37	C	02/10/2022	14:00	-136.211	49.500	0	172.70	0	5.6740	0	33.7300	0	26.591	0	171.156	0	-1e10	8	-1e10	8	-1E+10	1	-1E+10	1	-1E+10	1	-1E+10	1	-1E+10	1	-1E+10	1
4902554	37	C	02/10/2022	14:00	-136.211	49.500	0	173.90	0	5.6620	0	33.7320	0	26.594	0	172.344	0	-1e10	8	-1e10	8	-1E+10	1	-1E+10	1	-1E+10	1	-1E+10	1	-1E+10	1	-1E+10	1
4902554	37	C	02/10/2022	14:00	-136.211	49.500	0	175.30	0	5.6560	0	33.7360	0	26.598	0	173.731	0	-1e10	8	-1e10	8	-1E+10	1	-1E+10	1	-1E+10	1	-1E+10	1	-1E+10	1	-1E+10	1
4902554	37	C	02/10/2022	14:00	-136.211	49.500	0	176.20	0	5.6420	0	33.7390	0	26.602	0	174.623	0	-1e10	8	-1e10	8	-1E+10	1	-1E+10	1	-1E+10	1	-1E+10	1	-1E+10	1	-1E+10	1
4902554	37	C	02/10/2022	14:00	-136.211	49.500	0	177.00	0	5.6280	0	33.7390	0	26.604	0	175.415	0	-1e10	8	-1e10	8	-1E+10	1	-1E+10	1	-1E+10	1	-1E+10	1	-1E+10	1	-1E+10	1
4902554	37	C	02/10/2022	14:00	-136.211	49.500	0	177.90	0	5.6130	0	33.7420	0	26.608	0	176.307	0	-1e10	8	-1e10	8	-1E+10	1	-1E+10	1	-1E+10	1	-1E+10	1	-1E+10	1	-1E+10	1
4902554	37	C	02/10/2022	14:00	-136.211	49.500	0	178.80	0	5.6090	0	33.7430	0	26.609	0	177.199	0	-1e10	8	-1e10	8	-1E+10	1	-1E+10	1	-1E+10	1	-1E+10	1	-1E+10	1	-1E+10	1
4902554	37	C	02/10/2022	14:00	-136.211	49.500	0	179.70	0	5.6090	0	33.7420	0	26.609	0	178.090	0	-1e10	8	-1e10	8	-1E+10	1	-1E+10	1	-1E+10	1	-1E+10	1	-1E+10	1	-1E+10	1
4902554	37	C	02/10/2022	14:00	-136.211	49.500	0	180.60	0	5.6040	0	33.7430	0	26.610	0	178.982	0	-1e10	8	-1e10	8	-1E+10	1	-1E+10	1	-1E+10	1	-1E+10	1	-1E+10	1	-1E+10	1
4902554	37	C	02/10/2022	14:00	-136.211	49.500	0	181.90	0	5.5760	0	33.7460	0	26.616	0	180.269	0	-1e10	8	-1e10	8	-1E+10	1	-1E+10	1	-1E+10	1	-1E+10	1	-1E+10	1	-1E+10	1
4902554	37	C	02/10/2022	14:00	-136.211	49.500	0	183.20	0	5.5600	0	33.7480	0	26.619	0	181.557	0	-1e10	8	-1e10	8	-1E+10	1	-1E+10	1	-1E+10	1	-1E+10	1	-1E+10	1	-1E+10	1
4902554	37	C	02/10/2022	14:00	-136.211	49.500	0	184.10	0	5.5500	0	33.7490	0	26.621	0	182.449	0	-1e10	8	-1e10	8	-1E+10	1	-1E+10	1	-1E+10	1	-1E+10	1	-1E+10	1	-1E+10	1
4902554	37	C	02/10/2022	14:00	-136.211	49.500	0	185.00	0	5.5430	0	33.7490	0	26.622	0	183.340	0	-1e10	8	-1e10	8	-1E+10	1	-1E+10	1	-1E+10	1	-1E+10	1	-1E+10	1	-1E+10	1
4902554	37	C	02/10/2022	14:00	-136.211	49.500	0	185.90	0	5.5400	0	33.7490	0	26.622	0	184.232	0	-1e10	8	-1e10	8	-1E+10	1	-1E+10	1	-1E+10	1	-1E+10	1	-1E+10	1	-1E+10	1
4902554	37	C	02/10/2022	14:00	-136.211	49.500	0	186.80	0	5.5330	0	33.7500	0	26.624	0	185.123	0	-1e10	8	-1e10	8	-1E+10	1	-1E+10	1	-1E+10	1	-1E+10	1	-1E+10	1	-1E+10	1
4902554	37	C	02/10/2022	14:00	-136.211	49.500	0	187.70	0	5.5100	0	33.7510	0	26.628	0	186.015	0	-1e10	8	-1e10	8	-1E+10	1	-1E+10	1	-1E+10	1	-1E+10	1	-1E+10	1	-1E+10	1
4902554	37	C	02/10/2022	14:00	-136.211	49.500	0	188.50	0	5.4870	0	33.7530	0	26.632	0	186.807	0	-1e10	8	-1e10	8	-1E+10	1	-1E+10	1	-1E+10	1	-1E+10	1	-1E+10	1	-1E+10	1
4902554	37	C	02/10/2022	14:00	-136.211	49.500	0	189.90	0	5.4700	0	33.7540	0	26.635	0	188.194	0	-1e10	8	-1e10	8	-1E+10	1	-1E+10	1	-1E+10	1	-1E+10	1	-1E+10	1	-1E+10	1
4902554	37	C	02/10/2022	14:00	-136.211	49.500	0	191.30	0	5.4580	0	33.7560	0	26.638	0	189.581	0	-1e10	8	-1e10	8	-1E+10	1	-1E+10	1	-1E+10	1	-1E+10	1	-1E+10	1	-1E+10	1
4902554	37	C	02/10/2022	14:00	-136.211	49.500	0	192.20	0	5.4450	0	33.7580	0	26.641	0	190.472	0	-1e10	8	-1e10	8	-1E+10	1	-1E+10	1	-1E+10	1	-1E+10	1	-1E+10	1	-1E+10	1
4902554	37	C	02/10/2022	14:00	-136.211	49.500	0	193.10	0	5.4400	0	33.7580	0	26.641	0	191.364	0	-1e10	8	-1e10	8	-1E+10	1	-1E+10	1	-1E+10	1	-1E+10	1	-1E+10	1	-1E+10	1
4902554	37	C	02/10/2022	14:00	-136.211	49.500	0	194.00	0	5.4390	0	33.7580	0	26.642	0	192.255	0	-1e10	8	-1e10	8	-1E+10	1	-1E+10	1	-1E+10	1	-1E+10	1	-1E+10	1	-1E+10	1
4902554	37	C	02/10/2022	14:00	-136.211	49.500	0	194.90	0	5.4360	0	33.7580	0	26.642	0	193.147	0	-1e10	8	-1e10	8	-1E+10	1	-1E+10	1	-1E+10	1	-1E+10	1	-1E+10	1	-1E+10	1
4902554	37	C	02/10/2022	14:00	-136.211	49.500	0	195.80	0	5.4240	0	33.7600	0	26.645	0	194.038	0	-1e10	8	-1e10	8	-1E+10	1	-1E+10	1	-1E+10	1	-1E+10	1	-1E+10	1	-1E+10	1
4902554	37	C	02/10/2022	14:00	-136.211	49.500	0	196.70	0	5.4130	0	33.7620	0	26.648	0	194.930	0	-1e10	8	-1e10	8	-1E+10	1	-1E+10	1	-1E+10	1	-1E+10	1	-1E+10	1	-1E+10	1
4902554	37	C	02/10/2022	14:00	-136.211	49.500	0	197.70	0	5.4050	0	33.7610	0	26.648	0	195.920	0	-1e10	8	-1e10	8	-1E+10	1	-1E+10	1	-1E+10	1	-1E+10	1	-1E+10	1	-1E+10	1
4902554	37	C	02/10/2022	14:00	-136.211	49.500	0	198.60	0	5.3930	0	33.7640	0	26.652	0	196.812	0	-1e10	8	-1e10	8	-1E+10	1	-1E+10	1	-1E+10	1	-1E+10	1	-1E+10	1	-1E+10	1
4902554	37	C	02/10/2022	14:00	-136.211	49.500	0	199.90	0	5.3670	0	33.7680	0	26.658	0	198.099	0	-1e10	8	-1e10	8	-1E+10	1	-1E+10	1	-1E+10	1	-1E+10	1	-1E+10	1	-1E+10	1
4902554	37	C	02/10/2022	14:00	-136.211	49.500	0	201.30	0	5.3540	0	33.7700	0	26.661	0	199.486	0	-1e10	8	-1e10	8	-1E+10	1	-1E+10	1	-1E+10	1	-1E+10	1	-1E+10	1	-1E+10	1
4902554	37	C	02/10/2022	14:00	-136.211	49.500	0	202.20	0	5.3550	0	33.7690	0	26.660	0	200.378	0	-1e10	8	-1e10	8	-1E+10	1	-1E+10	1	-1E+10	1	-1E+10	1	-1E+10	1	-1E+10	1
4902554	37	C	02/10/2022	14:00	-136.211	49.500	0	203.10	0	5.3510	0	33.7700	0	26.662	0	201.269	0	-1e10	8	-1e10	8	-1E+10	1	-1E+10	1	-1E+10	1	-1E+10	1	-1E+10	1	-1E+10	1
4902554	37	C	02/10/2022	14:00	-136.211	49.500	0	204.10	0	5.3470	0	33.7690	0	26.661	0	202.260	0	-1e10	8	-1e10	8	-1E+10	1	-1E+10	1	-1E+10	1	-1E+10	1	-1E+10	1	-1E+10	1
4902554	37	C	02/10/2022	14:00	-136.211	49.500	0	205.00	0	5.3410	0	33.7700	0	26.663	0	203.151	0	-1e10	8	-1e10	8	-1E+10	1	-1E+10	1	-1E+10	1	-1E+10	1	-1E+10	1	-1E+10	1
4902554	37	C	02/10/2022	14:00	-136.211	49.500	0	205.90	0	5.3360	0	33.7700	0	26.663	0	204.042	0	-1e10	8	-1e10	8	-1E+10	1	-1E+10	1	-1E+10	1	-1E+10	1	-1E+10	1	-1E+10	1
4902554	37	C	02/10/2022	14:00	-136.211	49.500	0	206.80	0	5.3260	0	33.7720	0	26.666	0	204.934	0	-1e10	8	-1e10	8	-1E+10	1	-1E+10	1	-1E+10	1	-1E+10	1	-1E+10	1	-1E+10	1
4902554	37	C	02/10/2022	14:00	-136.211	49.500	0	207.60	0	5.3160	0	33.7710	0	26.666	0	205.726	0	-1e10	8	-1e10	8	-1E+10	1	-1E+10	1	-1E+10	1	-1E+10	1	-1E+10	1	-1E+10	1
4902554	37	C	02/10/2022	14:00	-136.211	49.500	0	208.90	0	5.3060	0	33.7720	0	26.668	0	207.014	0	-1e10	8	-1e10	8	-1E+10	1	-1E+10	1	-1E+10	1	-1E+10	1	-1E+10	1	-1E+10	1
4902554	37	C	02/10/2022	14:00	-136.211	49.500	0	210.30	0	5.2970	0	33.7740	0	26.671	0	208.400	0	-1e10	8	-1e10	8	-1E+10	1	-1E+10	1	-1E+10	1	-1E+10	1	-1E+10	1	-1E+10	1
4902554	37	C	02/10/2022	14:00	-136.211	49.500	0	211.20	0	5.2800	0	33.7770	0	26.675	0	209.292	0	-1e10	8	-1e10	8	-1E+10	1	-1E+10	1	-1E+10	1	-1E+10	1	-1E+10	1	-1E+10	1
4902554	37	C	02/10/2022	14:00	-136.211	49.500	0	212.10	0	5.2770	0	33.7770	0	26.676	0	210.183	0	-1e10	8	-1e10	8	-1E+10	1	-1E+10	1	-1E+10	1	-1E+10	1	-1E+10	1	-1E+10	1
4902554	37	C	02/10/2022	14:00	-136.211	49.500	0	213.00	0	5.2730	0	33.7780	0	26.677	0	211.075	0	-1e10	8	-1e10	8	-1E+10	1	-1E+10	1	-1E+10	1	-1E+10	1	-1E+10	1	-1E+10	1
4902554	37	C	02/10/2022	14:00	-136.211	49.500	0	213.80	0	5.2680	0	33.7790	0	26.678	0	211.867	0	-1e10	8	-1e10	8	-1E+10	1	-1E+10	1	-1E+10	1	-1E+10	1	-1E+10	1	-1E+10	1
4902554	37	C	02/10/2022	14:00	-136.211	49.500	0	214.70	0	5.2550	0	33.7810	0	26.682	0	212.758	0	-1e10	8	-1e10	8	-1E+10	1	-1E+10	1	-1E+10	1	-1E+10	1	-1E+10	1	-1E+10	1
4902554	37	C	02/10/2022	14:00	-136.211	49.500	0	215.60	0	5.2450	0	33.7830	0	26.684	0	213.650	0	-1e10	8	-1e10	8	-1E+10	1	-1E+10	1	-1E+10	1	-1E+10	1	-1E+10	1	-1E+10	1
4902554	37	C	02/10/2022	14:00	-136.211	49.500	0	216.90	0	5.2360	0	33.7820	0	26.685	0	214.937	0	-1e10	8	-1e10	8	-1E+10	1	-1E+10	1	-1E+10	1	-1E+10	1	-1E+10	1	-1E+10	1
4902554	37	C	02/10/2022	14:00	-136.211	49.500	0	218.20	0	5.2280	0	33.7840	0	26.687	0	216.225	0	-1e10	8	-1e10	8	-1E+10	1	-1E+10	1	-1E+10	1	-1E+10	1	-1E+10	1	-1E+10	1
4902554	37	C	02/10/2022	14:00	-136.211	49.500	0	219.10	0	5.2250	0	33.7830	0	26.687	0	217.116	0	-1e10	8	-1e10	8	-1E+10	1	-1E+10	1	-1E+10	1	-1E+10	1	-1E+10	1	-1E+10	1
4902554	37	C	02/10/2022	14:00	-136.211	49.500	0	220.00	0	5.2190	0	33.7840	0	26.688	0	218.008	0	-1e10	8	-1e10	8	-1E+10	1	-1E+10	1	-1E+10	1	-1E+10	1	-1E+10	1	-1E+10	1
4902554	37	C	02/10/2022	14:00	-136.211	49.500	0	220.90	0	5.1970	0	33.7860	0	26.692	0	218.899	0	-1e10	8	-1e10	8	-1E+10	1	-1E+10	1	-1E+10	1	-1E+10	1	-1E+10	1	-1E+10	1
4902554	37	C	02/10/2022	14:00	-136.211	49.500	0	221.80	0	5.1860	0	33.7890	0	26.696	0	219.791	0	-1e10	8	-1e10	8	-1E+10	1	-1E+10	1	-1E+10	1	-1E+10	1	-1E+10	1	-1E+10	1
4902554	37	C	02/10/2022	14:00	-136.211	49.500	0	222.70	0	5.1720	0	33.7870	0	26.696	0	220.682	0	-1e10	8	-1e10	8	-1E+10	1	-1E+10	1	-1E+10	1	-1E+10	1	-1E+10	1	-1E+10	1
4902554	37	C	02/10/2022	14:00	-136.211	49.500	0	223.90	0	5.1580	0	33.7880	0	26.698	0	221.870	0	-1e10	8	-1e10	8	-1E+10	1	-1E+10	1	-1E+10	1	-1E+10	1	-1E+10	1	-1E+10	1
4902554	37	C	02/10/2022	14:00	-136.211	49.500	0	225.30	0	5.1440	0	33.7890	0	26.701	0	223.257	0	-1e10	8	-1e10	8	-1E+10	1	-1E+10	1	-1E+10	1	-1E+10	1	-1E+10	1	-1E+10	1
4902554	37	C	02/10/2022	14:00	-136.211	49.500	0	226.20	0	5.1360	0	33.7900	0	26.703	0	224.148	0	-1e10	8	-1e10	8	-1E+10	1	-1E+10	1	-1E+10	1	-1E+10	1	-1E+10	1	-1E+10	1
4902554	37	C	02/10/2022	14:00	-136.211	49.500	0	227.10	0	5.1240	0	33.7900	0	26.704	0	225.040	0	-1e10	8	-1e10	8	-1E+10	1	-1E+10	1	-1E+10	1	-1E+10	1	-1E+10	1	-1E+10	1
4902554	37	C	02/10/2022	14:00	-136.211	49.500	0	227.90	0	5.1160	0	33.7890	0	26.704	0	225.832	0	-1e10	8	-1e10	8	-1E+10	1	-1E+10	1	-1E+10	1	-1E+10	1	-1E+10	1	-1E+10	1
4902554	37	C	02/10/2022	14:00	-136.211	49.500	0	228.90	0	5.0980	0	33.7920	0	26.709	0	226.822	0	-1e10	8	-1e10	8	-1E+10	1	-1E+10	1	-1E+10	1	-1E+10	1	-1E+10	1	-1E+10	1
4902554	37	C	02/10/2022	14:00	-136.211	49.500	0	229.80	0	5.0970	0	33.7920	0	26.709	0	227.714	0	-1e10	8	-1e10	8	-1E+10	1	-1E+10	1	-1E+10	1	-1E+10	1	-1E+10	1	-1E+10	1
4902554	37	C	02/10/2022	14:00	-136.211	49.500	0	230.70	0	5.0900	0	33.7950	0	26.712	0	228.605	0	-1e10	8	-1e10	8	-1E+10	1	-1E+10	1	-1E+10	1	-1E+10	1	-1E+10	1	-1E+10	1
4902554	37	C	02/10/2022	14:00	-136.211	49.500	0	231.60	0	5.0820	0	33.7970	0	26.714	0	229.496	0	-1e10	8	-1e10	8	-1E+10	1	-1E+10	1	-1E+10	1	-1E+10	1	-1E+10	1	-1E+10	1
4902554	37	C	02/10/2022	14:00	-136.211	49.500	0	232.90	0	5.0770	0	33.7960	0	26.714	0	230.784	0	-1e10	8	-1e10	8	-1E+10	1	-1E+10	1	-1E+10	1	-1E+10	1	-1E+10	1	-1E+10	1
4902554	37	C	02/10/2022	14:00	-136.211	49.500	0	234.30	0	5.0640	0	33.7960	0	26.716	0	232.170	0	-1e10	8	-1e10	8	-1E+10	1	-1E+10	1	-1E+10	1	-1E+10	1	-1E+10	1	-1E+10	1
4902554	37	C	02/10/2022	14:00	-136.211	49.500	0	235.20	0	5.0530	0	33.7980	0	26.718	0	233.062	0	-1e10	8	-1e10	8	-1E+10	1	-1E+10	1	-1E+10	1	-1E+10	1	-1E+10	1	-1E+10	1
4902554	37	C	02/10/2022	14:00	-136.211	49.500	0	236.10	0	5.0560	0	33.7990	0	26.719	0	233.953	0	-1e10	8	-1e10	8	-1E+10	1	-1E+10	1	-1E+10	1	-1E+10	1	-1E+10	1	-1E+10	1
4902554	37	C	02/10/2022	14:00	-136.211	49.500	0	237.00	0	5.0530	0	33.8000	0	26.720	0	234.844	0	-1e10	8	-1e10	8	-1E+10	1	-1E+10	1	-1E+10	1	-1E+10	1	-1E+10	1	-1E+10	1
4902554	37	C	02/10/2022	14:00	-136.211	49.500	0	237.90	0	5.0270	0	33.8010	0	26.724	0	235.735	0	-1e10	8	-1e10	8	-1E+10	1	-1E+10	1	-1E+10	1	-1E+10	1	-1E+10	1	-1E+10	1
4902554	37	C	02/10/2022	14:00	-136.211	49.500	0	238.70	0	5.0200	0	33.8000	0	26.724	0	236.528	0	-1e10	8	-1e10	8	-1E+10	1	-1E+10	1	-1E+10	1	-1E+10	1	-1E+10	1	-1E+10	1
4902554	37	C	02/10/2022	14:00	-136.211	49.500	0	239.70	0	5.0170	0	33.7990	0	26.723	0	237.518	0	-1e10	8	-1e10	8	-1E+10	1	-1E+10	1	-1E+10	1	-1E+10	1	-1E+10	1	-1E+10	1
4902554	37	C	02/10/2022	14:00	-136.211	49.500	0	240.60	0	5.0040	0	33.8040	0	26.729	0	238.409	0	-1e10	8	-1e10	8	-1E+10	1	-1E+10	1	-1E+10	1	-1E+10	1	-1E+10	1	-1E+10	1
4902554	37	C	02/10/2022	14:00	-136.211	49.500	0	241.90	0	4.9770	0	33.8050	0	26.733	0	239.697	0	-1e10	8	-1e10	8	-1E+10	1	-1E+10	1	-1E+10	1	-1E+10	1	-1E+10	1	-1E+10	1
4902554	37	C	02/10/2022	14:00	-136.211	49.500	0	243.30	0	4.9630	0	33.8040	0	26.733	0	241.083	0	-1e10	8	-1e10	8	-1E+10	1	-1E+10	1	-1E+10	1	-1E+10	1	-1E+10	1	-1E+10	1
4902554	37	C	02/10/2022	14:00	-136.211	49.500	0	244.20	0	4.9580	0	33.8060	0	26.736	0	241.974	0	-1e10	8	-1e10	8	-1E+10	1	-1E+10	1	-1E+10	1	-1E+10	1	-1E+10	1	-1E+10	1
4902554	37	C	02/10/2022	14:00	-136.211	49.500	0	245.10	0	4.9550	0	33.8050	0	26.735	0	242.866	0	-1e10	8	-1e10	8	-1E+10	1	-1E+10	1	-1E+10	1	-1E+10	1	-1E+10	1	-1E+10	1
4902554	37	C	02/10/2022	14:00	-136.211	49.500	0	246.00	0	4.9600	0	33.8080	0	26.737	0	243.757	0	-1e10	8	-1e10	8	-1E+10	1	-1E+10	1	-1E+10	1	-1E+10	1	-1E+10	1	-1E+10	1
4902554	37	C	02/10/2022	14:00	-136.211	49.500	0	246.90	0	4.9490	0	33.8100	0	26.740	0	244.648	0	-1e10	8	-1e10	8	-1E+10	1	-1E+10	1	-1E+10	1	-1E+10	1	-1E+10	1	-1E+10	1
4902554	37	C	02/10/2022	14:00	-136.211	49.500	0	247.80	0	4.9350	0	33.8120	0	26.743	0	245.540	0	-1e10	8	-1e10	8	-1E+10	1	-1E+10	1	-1E+10	1	-1E+10	1	-1E+10	1	-1E+10	1
4902554	37	C	02/10/2022	14:00	-136.211	49.500	0	248.70	0	4.9330	0	33.8130	0	26.744	0	246.431	0	-1e10	8	-1e10	8	-1E+10	1	-1E+10	1	-1E+10	1	-1E+10	1	-1E+10	1	-1E+10	1
4902554	37	C	02/10/2022	14:00	-136.211	49.500	0	249.60	0	4.9290	0	33.8140	0	26.745	0	247.322	0	-1e10	8	-1e10	8	-1E+10	1	-1E+10	1	-1E+10	1	-1E+10	1	-1E+10	1	-1E+10	1
4902554	37	C	02/10/2022	14:00	-136.211	49.500	0	250.90	0	4.9220	0	33.8160	0	26.748	0	248.609	0	-1e10	8	-1e10	8	-1E+10	1	-1E+10	1	-1E+10	1	-1E+10	1	-1E+10	1	-1E+10	1
4902554	37	C	02/10/2022	14:00	-136.211	49.500	0	252.30	0	4.9030	0	33.8190	0	26.752	0	249.996	0	-1e10	8	-1e10	8	-1E+10	1	-1E+10	1	-1E+10	1	-1E+10	1	-1E+10	1	-1E+10	1
4902554	37	C	02/10/2022	14:00	-136.211	49.500	0	253.20	0	4.8940	0	33.8200	0	26.754	0	250.887	0	-1e10	8	-1e10	8	-1E+10	1	-1E+10	1	-1E+10	1	-1E+10	1	-1E+10	1	-1E+10	1
4902554	37	C	02/10/2022	14:00	-136.211	49.500	0	254.20	0	4.8860	0	33.8210	0	26.756	0	251.877	0	-1e10	8	-1e10	8	-1E+10	1	-1E+10	1	-1E+10	1	-1E+10	1	-1E+10	1	-1E+10	1
4902554	37	C	02/10/2022	14:00	-136.211	49.500	0	255.10	0	4.8820	0	33.8220	0	26.757	0	252.768	0	-1e10	8	-1e10	8	-1E+10	1	-1E+10	1	-1E+10	1	-1E+10	1	-1E+10	1	-1E+10	1
4902554	37	C	02/10/2022	14:00	-136.211	49.500	0	256.00	0	4.8790	0	33.8220	0	26.757	0	253.660	0	-1e10	8	-1e10	8	-1E+10	1	-1E+10	1	-1E+10	1	-1E+10	1	-1E+10	1	-1E+10	1
4902554	37	C	02/10/2022	14:00	-136.211	49.500	0	257.00	0	4.8780	0	33.8230	0	26.758	0	254.650	0	-1e10	8	-1e10	8	-1E+10	1	-1E+10	1	-1E+10	1	-1E+10	1	-1E+10	1	-1E+10	1
4902554	37	C	02/10/2022	14:00	-136.211	49.500	0	257.90	0	4.8730	0	33.8230	0	26.759	0	255.541	0	-1e10	8	-1e10	8	-1E+10	1	-1E+10	1	-1E+10	1	-1E+10	1	-1E+10	1	-1E+10	1
4902554	37	C	02/10/2022	14:00	-136.211	49.500	0	258.80	0	4.8710	0	33.8240	0	26.760	0	256.432	0	-1e10	8	-1e10	8	-1E+10	1	-1E+10	1	-1E+10	1	-1E+10	1	-1E+10	1	-1E+10	1
4902554	37	C	02/10/2022	14:00	-136.211	49.500	0	259.70	0	4.8680	0	33.8240	0	26.760	0	257.324	0	-1e10	8	-1e10	8	-1E+10	1	-1E+10	1	-1E+10	1	-1E+10	1	-1E+10	1	-1E+10	1
4902554	37	C	02/10/2022	14:00	-136.211	49.500	0	260.60	0	4.8600	0	33.8240	0	26.761	0	258.215	0	-1e10	8	-1e10	8	-1E+10	1	-1E+10	1	-1E+10	1	-1E+10	1	-1E+10	1	-1E+10	1
4902554	37	C	02/10/2022	14:00	-136.211	49.500	0	261.60	0	4.8500	0	33.8250	0	26.763	0	259.205	0	-1e10	8	-1e10	8	-1E+10	1	-1E+10	1	-1E+10	1	-1E+10	1	-1E+10	1	-1E+10	1
4902554	37	C	02/10/2022	14:00	-136.211	49.500	0	262.90	0	4.8400	0	33.8260	0	26.765	0	260.492	0	-1e10	8	-1e10	8	-1E+10	1	-1E+10	1	-1E+10	1	-1E+10	1	-1E+10	1	-1E+10	1
4902554	37	C	02/10/2022	14:00	-136.211	49.500	0	264.40	0	4.8280	0	33.8290	0	26.769	0	261.978	0	-1e10	8	-1e10	8	-1E+10	1	-1E+10	1	-1E+10	1	-1E+10	1	-1E+10	1	-1E+10	1
4902554	37	C	02/10/2022	14:00	-136.211	49.500	0	265.30	0	4.8160	0	33.8310	0	26.772	0	262.869	0	-1e10	8	-1e10	8	-1E+10	1	-1E+10	1	-1E+10	1	-1E+10	1	-1E+10	1	-1E+10	1
4902554	37	C	02/10/2022	14:00	-136.211	49.500	0	266.30	0	4.8070	0	33.8320	0	26.773	0	263.859	0	-1e10	8	-1e10	8	-1E+10	1	-1E+10	1	-1E+10	1	-1E+10	1	-1E+10	1	-1E+10	1
4902554	37	C	02/10/2022	14:00	-136.211	49.500	0	267.20	0	4.8050	0	33.8310	0	26.773	0	264.750	0	-1e10	8	-1e10	8	-1E+10	1	-1E+10	1	-1E+10	1	-1E+10	1	-1E+10	1	-1E+10	1
4902554	37	C	02/10/2022	14:00	-136.211	49.500	0	268.20	0	4.7990	0	33.8330	0	26.775	0	265.740	0	-1e10	8	-1e10	8	-1E+10	1	-1E+10	1	-1E+10	1	-1E+10	1	-1E+10	1	-1E+10	1
4902554	37	C	02/10/2022	14:00	-136.211	49.500	0	269.20	0	4.7980	0	33.8330	0	26.775	0	266.731	0	-1e10	8	-1e10	8	-1E+10	1	-1E+10	1	-1E+10	1	-1E+10	1	-1E+10	1	-1E+10	1
4902554	37	C	02/10/2022	14:00	-136.211	49.500	0	270.10	0	4.7940	0	33.8340	0	26.776	0	267.622	0	-1e10	8	-1e10	8	-1E+10	1	-1E+10	1	-1E+10	1	-1E+10	1	-1E+10	1	-1E+10	1
4902554	37	C	02/10/2022	14:00	-136.211	49.500	0	271.10	0	4.7830	0	33.8350	0	26.778	0	268.612	0	-1e10	8	-1e10	8	-1E+10	1	-1E+10	1	-1E+10	1	-1E+10	1	-1E+10	1	-1E+10	1
4902554	37	C	02/10/2022	14:00	-136.211	49.500	0	272.10	0	4.7820	0	33.8350	0	26.779	0	269.602	0	-1e10	8	-1e10	8	-1E+10	1	-1E+10	1	-1E+10	1	-1E+10	1	-1E+10	1	-1E+10	1
4902554	37	C	02/10/2022	14:00	-136.211	49.500	0	273.00	0	4.7820	0	33.8360	0	26.779	0	270.493	0	-1e10	8	-1e10	8	-1E+10	1	-1E+10	1	-1E+10	1	-1E+10	1	-1E+10	1	-1E+10	1
4902554	37	C	02/10/2022	14:00	-136.211	49.500	0	274.00	0	4.7780	0	33.8360	0	26.780	0	271.483	0	-1e10	8	-1e10	8	-1E+10	1	-1E+10	1	-1E+10	1	-1E+10	1	-1E+10	1	-1E+10	1
4902554	37	C	02/10/2022	14:00	-136.211	49.500	0	275.00	0	4.7710	0	33.8370	0	26.781	0	272.474	0	-1e10	8	-1e10	8	-1E+10	1	-1E+10	1	-1E+10	1	-1E+10	1	-1E+10	1	-1E+10	1
4902554	37	C	02/10/2022	14:00	-136.211	49.500	0	276.00	0	4.7580	0	33.8390	0	26.784	0	273.464	0	-1e10	8	-1e10	8	-1E+10	1	-1E+10	1	-1E+10	1	-1E+10	1	-1E+10	1	-1E+10	1
4902554	37	C	02/10/2022	14:00	-136.211	49.500	0	277.00	0	4.7460	0	33.8410	0	26.787	0	274.454	0	-1e10	8	-1e10	8	-1E+10	1	-1E+10	1	-1E+10	1	-1E+10	1	-1E+10	1	-1E+10	1
4902554	37	C	02/10/2022	14:00	-136.211	49.500	0	277.90	0	4.7420	0	33.8410	0	26.788	0	275.345	0	-1e10	8	-1e10	8	-1E+10	1	-1E+10	1	-1E+10	1	-1E+10	1	-1E+10	1	-1E+10	1
4902554	37	C	02/10/2022	14:00	-136.211	49.500	0	278.90	0	4.7340	0	33.8430	0	26.790	0	276.335	0	-1e10	8	-1e10	8	-1E+10	1	-1E+10	1	-1E+10	1	-1E+10	1	-1E+10	1	-1E+10	1
4902554	37	C	02/10/2022	14:00	-136.211	49.500	0	279.90	0	4.7150	0	33.8480	0	26.796	0	277.325	0	-1e10	8	-1e10	8	-1E+10	1	-1E+10	1	-1E+10	1	-1E+10	1	-1E+10	1	-1E+10	1
4902554	37	C	02/10/2022	14:00	-136.211	49.500	0	281.00	0	4.7110	0	33.8470	0	26.796	0	278.414	0	-1e10	8	-1e10	8	-1E+10	1	-1E+10	1	-1E+10	1	-1E+10	1	-1E+10	1	-1E+10	1
4902554	37	C	02/10/2022	14:00	-136.211	49.500	0	282.00	0	4.7090	0	33.8480	0	26.797	0	279.404	0	-1e10	8	-1e10	8	-1E+10	1	-1E+10	1	-1E+10	1	-1E+10	1	-1E+10	1	-1E+10	1
4902554	37	C	02/10/2022	14:00	-136.211	49.500	0	283.00	0	4.7030	0	33.8480	0	26.798	0	280.395	0	-1e10	8	-1e10	8	-1E+10	1	-1E+10	1	-1E+10	1	-1E+10	1	-1E+10	1	-1E+10	1
4902554	37	C	02/10/2022	14:00	-136.211	49.500	0	284.00	0	4.6980	0	33.8500	0	26.800	0	281.385	0	-1e10	8	-1e10	8	-1E+10	1	-1E+10	1	-1E+10	1	-1E+10	1	-1E+10	1	-1E+10	1
4902554	37	C	02/10/2022	14:00	-136.211	49.500	0	285.00	0	4.6950	0	33.8500	0	26.800	0	282.375	0	-1e10	8	-1e10	8	-1E+10	1	-1E+10	1	-1E+10	1	-1E+10	1	-1E+10	1	-1E+10	1
4902554	37	C	02/10/2022	14:00	-136.211	49.500	0	286.00	0	4.6750	0	33.8540	0	26.806	0	283.365	0	-1e10	8	-1e10	8	-1E+10	1	-1E+10	1	-1E+10	1	-1E+10	1	-1E+10	1	-1E+10	1
4902554	37	C	02/10/2022	14:00	-136.211	49.500	0	287.00	0	4.6670	0	33.8530	0	26.806	0	284.355	0	-1e10	8	-1e10	8	-1E+10	1	-1E+10	1	-1E+10	1	-1E+10	1	-1E+10	1	-1E+10	1
4902554	37	C	02/10/2022	14:00	-136.211	49.500	0	288.10	0	4.6640	0	33.8560	0	26.808	0	285.444	0	-1e10	8	-1e10	8	-1E+10	1	-1E+10	1	-1E+10	1	-1E+10	1	-1E+10	1	-1E+10	1
4902554	37	C	02/10/2022	14:00	-136.211	49.500	0	289.10	0	4.6620	0	33.8570	0	26.809	0	286.434	0	-1e10	8	-1e10	8	-1E+10	1	-1E+10	1	-1E+10	1	-1E+10	1	-1E+10	1	-1E+10	1
4902554	37	C	02/10/2022	14:00	-136.211	49.500	0	290.10	0	4.6540	0	33.8600	0	26.813	0	287.424	0	-1e10	8	-1e10	8	-1E+10	1	-1E+10	1	-1E+10	1	-1E+10	1	-1E+10	1	-1E+10	1
4902554	37	C	02/10/2022	14:00	-136.211	49.500	0	291.20	0	4.6460	0	33.8620	0	26.815	0	288.513	0	-1e10	8	-1e10	8	-1E+10	1	-1E+10	1	-1E+10	1	-1E+10	1	-1E+10	1	-1E+10	1
4902554	37	C	02/10/2022	14:00	-136.211	49.500	0	292.20	0	4.6430	0	33.8630	0	26.816	0	289.503	0	-1e10	8	-1e10	8	-1E+10	1	-1E+10	1	-1E+10	1	-1E+10	1	-1E+10	1	-1E+10	1
4902554	37	C	02/10/2022	14:00	-136.211	49.500	0	293.30	0	4.6390	0	33.8630	0	26.817	0	290.593	0	-1e10	8	-1e10	8	-1E+10	1	-1E+10	1	-1E+10	1	-1E+10	1	-1E+10	1	-1E+10	1
4902554	37	C	02/10/2022	14:00	-136.211	49.500	0	294.30	0	4.6370	0	33.8630	0	26.817	0	291.583	0	-1e10	8	-1e10	8	-1E+10	1	-1E+10	1	-1E+10	1	-1E+10	1	-1E+10	1	-1E+10	1
4902554	37	C	02/10/2022	14:00	-136.211	49.500	0	295.40	0	4.6310	0	33.8660	0	26.820	0	292.672	0	-1e10	8	-1e10	8	-1E+10	1	-1E+10	1	-1E+10	1	-1E+10	1	-1E+10	1	-1E+10	1
4902554	37	C	02/10/2022	14:00	-136.211	49.500	0	296.40	0	4.6290	0	33.8670	0	26.821	0	293.662	0	-1e10	8	-1e10	8	-1E+10	1	-1E+10	1	-1E+10	1	-1E+10	1	-1E+10	1	-1E+10	1
4902554	37	C	02/10/2022	14:00	-136.211	49.500	0	297.50	0	4.6250	0	33.8670	0	26.821	0	294.751	0	-1e10	8	-1e10	8	-1E+10	1	-1E+10	1	-1E+10	1	-1E+10	1	-1E+10	1	-1E+10	1
4902554	37	C	02/10/2022	14:00	-136.211	49.500	0	298.50	0	4.6230	0	33.8690	0	26.823	0	295.741	0	-1e10	8	-1e10	8	-1E+10	1	-1E+10	1	-1E+10	1	-1E+10	1	-1E+10	1	-1E+10	1
4902554	37	C	02/10/2022	14:00	-136.211	49.500	0	299.60	0	4.6170	0	33.8710	0	26.825	0	296.830	0	-1e10	8	-1e10	8	-1E+10	1	-1E+10	1	-1E+10	1	-1E+10	1	-1E+10	1	-1E+10	1
4902554	37	C	02/10/2022	14:00	-136.211	49.500	0	300.70	0	4.6110	0	33.8730	0	26.828	0	297.919	0	-1e10	8	-1e10	8	-1E+10	1	-1E+10	1	-1E+10	1	-1E+10	1	-1E+10	1	-1E+10	1
4902554	37	C	02/10/2022	14:00	-136.211	49.500	0	301.70	0	4.6090	0	33.8730	0	26.828	0	298.909	0	-1e10	8	-1e10	8	-1E+10	1	-1E+10	1	-1E+10	1	-1E+10	1	-1E+10	1	-1E+10	1
4902554	37	C	02/10/2022	14:00	-136.211	49.500	0	302.80	0	4.6020	0	33.8750	0	26.830	0	299.998	0	-1e10	8	-1e10	8	-1E+10	1	-1E+10	1	-1E+10	1	-1E+10	1	-1E+10	1	-1E+10	1
4902554	37	C	02/10/2022	14:00	-136.211	49.500	0	303.90	0	4.5990	0	33.8750	0	26.831	0	301.087	0	-1e10	8	-1e10	8	-1E+10	1	-1E+10	1	-1E+10	1	-1E+10	1	-1E+10	1	-1E+10	1
4902554	37	C	02/10/2022	14:00	-136.211	49.500	0	304.90	0	4.5940	0	33.8770	0	26.833	0	302.077	0	-1e10	8	-1e10	8	-1E+10	1	-1E+10	1	-1E+10	1	-1E+10	1	-1E+10	1	-1E+10	1
4902554	37	C	02/10/2022	14:00	-136.211	49.500	0	306.00	0	4.5910	0	33.8770	0	26.833	0	303.166	0	-1e10	8	-1e10	8	-1E+10	1	-1E+10	1	-1E+10	1	-1E+10	1	-1E+10	1	-1E+10	1
4902554	37	C	02/10/2022	14:00	-136.211	49.500	0	307.10	0	4.5880	0	33.8780	0	26.834	0	304.255	0	-1e10	8	-1e10	8	-1E+10	1	-1E+10	1	-1E+10	1	-1E+10	1	-1E+10	1	-1E+10	1
4902554	37	C	02/10/2022	14:00	-136.211	49.500	0	308.20	0	4.5860	0	33.8790	0	26.835	0	305.344	0	-1e10	8	-1e10	8	-1E+10	1	-1E+10	1	-1E+10	1	-1E+10	1	-1E+10	1	-1E+10	1
4902554	37	C	02/10/2022	14:00	-136.211	49.500	0	309.20	0	4.5800	0	33.8800	0	26.837	0	306.334	0	-1e10	8	-1e10	8	-1E+10	1	-1E+10	1	-1E+10	1	-1E+10	1	-1E+10	1	-1E+10	1
4902554	37	C	02/10/2022	14:00	-136.211	49.500	0	310.30	0	4.5740	0	33.8840	0	26.841	0	307.423	0	-1e10	8	-1e10	8	-1E+10	1	-1E+10	1	-1E+10	1	-1E+10	1	-1E+10	1	-1E+10	1
4902554	37	C	02/10/2022	14:00	-136.211	49.500	0	311.40	0	4.5690	0	33.8850	0	26.842	0	308.512	0	-1e10	8	-1e10	8	-1E+10	1	-1E+10	1	-1E+10	1	-1E+10	1	-1E+10	1	-1E+10	1
4902554	37	C	02/10/2022	14:00	-136.211	49.500	0	312.40	0	4.5660	0	33.8860	0	26.843	0	309.502	0	-1e10	8	-1e10	8	-1E+10	1	-1E+10	1	-1E+10	1	-1E+10	1	-1E+10	1	-1E+10	1
4902554	37	C	02/10/2022	14:00	-136.211	49.500	0	313.50	0	4.5650	0	33.8860	0	26.843	0	310.591	0	-1e10	8	-1e10	8	-1E+10	1	-1E+10	1	-1E+10	1	-1E+10	1	-1E+10	1	-1E+10	1
4902554	37	C	02/10/2022	14:00	-136.211	49.500	0	314.50	0	4.5640	0	33.8870	0	26.844	0	311.581	0	-1e10	8	-1e10	8	-1E+10	1	-1E+10	1	-1E+10	1	-1E+10	1	-1E+10	1	-1E+10	1
4902554	37	C	02/10/2022	14:00	-136.211	49.500	0	315.50	0	4.5580	0	33.8880	0	26.845	0	312.571	0	-1e10	8	-1e10	8	-1E+10	1	-1E+10	1	-1E+10	1	-1E+10	1	-1E+10	1	-1E+10	1
4902554	37	C	02/10/2022	14:00	-136.211	49.500	0	316.60	0	4.5520	0	33.8900	0	26.848	0	313.660	0	-1e10	8	-1e10	8	-1E+10	1	-1E+10	1	-1E+10	1	-1E+10	1	-1E+10	1	-1E+10	1
4902554	37	C	02/10/2022	14:00	-136.211	49.500	0	317.60	0	4.5460	0	33.8910	0	26.849	0	314.650	0	-1e10	8	-1e10	8	-1E+10	1	-1E+10	1	-1E+10	1	-1E+10	1	-1E+10	1	-1E+10	1
4902554	37	C	02/10/2022	14:00	-136.211	49.500	0	318.70	0	4.5340	0	33.8960	0	26.854	0	315.739	0	-1e10	8	-1e10	8	-1E+10	1	-1E+10	1	-1E+10	1	-1E+10	1	-1E+10	1	-1E+10	1
4902554	37	C	02/10/2022	14:00	-136.211	49.500	0	319.70	0	4.5300	0	33.8970	0	26.856	0	316.729	0	-1e10	8	-1e10	8	-1E+10	1	-1E+10	1	-1E+10	1	-1E+10	1	-1E+10	1	-1E+10	1
4902554	37	C	02/10/2022	14:00	-136.211	49.500	0	320.70	0	4.5290	0	33.8980	0	26.857	0	317.719	0	-1e10	8	-1e10	8	-1E+10	1	-1E+10	1	-1E+10	1	-1E+10	1	-1E+10	1	-1E+10	1
4902554	37	C	02/10/2022	14:00	-136.211	49.500	0	321.70	0	4.5260	0	33.8990	0	26.858	0	318.709	0	-1e10	8	-1e10	8	-1E+10	1	-1E+10	1	-1E+10	1	-1E+10	1	-1E+10	1	-1E+10	1
4902554	37	C	02/10/2022	14:00	-136.211	49.500	0	322.80	0	4.5230	0	33.8990	0	26.858	0	319.797	0	-1e10	8	-1e10	8	-1E+10	1	-1E+10	1	-1E+10	1	-1E+10	1	-1E+10	1	-1E+10	1
4902554	37	C	02/10/2022	14:00	-136.211	49.500	0	324.00	0	4.5220	0	33.9000	0	26.859	0	320.985	0	-1e10	8	-1e10	8	-1E+10	1	-1E+10	1	-1E+10	1	-1E+10	1	-1E+10	1	-1E+10	1
4902554	37	C	02/10/2022	14:00	-136.211	49.500	0	324.80	0	4.5210	0	33.9010	0	26.860	0	321.777	0	-1e10	8	-1e10	8	-1E+10	1	-1E+10	1	-1E+10	1	-1E+10	1	-1E+10	1	-1E+10	1
4902554	37	C	02/10/2022	14:00	-136.211	49.500	0	326.00	0	4.5160	0	33.9040	0	26.863	0	322.965	0	-1e10	8	-1e10	8	-1E+10	1	-1E+10	1	-1E+10	1	-1E+10	1	-1E+10	1	-1E+10	1
4902554	37	C	02/10/2022	14:00	-136.211	49.500	0	327.20	0	4.5100	0	33.9070	0	26.866	0	324.153	0	-1e10	8	-1e10	8	-1E+10	1	-1E+10	1	-1E+10	1	-1E+10	1	-1E+10	1	-1E+10	1
4902554	37	C	02/10/2022	14:00	-136.211	49.500	0	328.00	0	4.5020	0	33.9090	0	26.868	0	324.945	0	-1e10	8	-1e10	8	-1E+10	1	-1E+10	1	-1E+10	1	-1E+10	1	-1E+10	1	-1E+10	1
4902554	37	C	02/10/2022	14:00	-136.211	49.500	0	328.80	0	4.5010	0	33.9100	0	26.869	0	325.737	0	-1e10	8	-1e10	8	-1E+10	1	-1E+10	1	-1E+10	1	-1E+10	1	-1E+10	1	-1E+10	1
4902554	37	C	02/10/2022	14:00	-136.211	49.500	0	329.60	0	4.5000	0	33.9100	0	26.869	0	326.529	0	-1e10	8	-1e10	8	-1E+10	1	-1E+10	1	-1E+10	1	-1E+10	1	-1E+10	1	-1E+10	1
4902554	37	C	02/10/2022	14:00	-136.211	49.500	0	330.90	0	4.4990	0	33.9100	0	26.869	0	327.816	0	-1e10	8	-1e10	8	-1E+10	1	-1E+10	1	-1E+10	1	-1E+10	1	-1E+10	1	-1E+10	1
4902554	37	C	02/10/2022	14:00	-136.211	49.500	0	332.10	0	4.4980	0	33.9100	0	26.870	0	329.004	0	-1e10	8	-1e10	8	-1E+10	1	-1E+10	1	-1E+10	1	-1E+10	1	-1E+10	1	-1E+10	1
4902554	37	C	02/10/2022	14:00	-136.211	49.500	0	332.90	0	4.4980	0	33.9100	0	26.870	0	329.795	0	-1e10	8	-1e10	8	-1E+10	1	-1E+10	1	-1E+10	1	-1E+10	1	-1E+10	1	-1E+10	1
4902554	37	C	02/10/2022	14:00	-136.211	49.500	0	333.70	0	4.4970	0	33.9110	0	26.870	0	330.587	0	-1e10	8	-1e10	8	-1E+10	1	-1E+10	1	-1E+10	1	-1E+10	1	-1E+10	1	-1E+10	1
4902554	37	C	02/10/2022	14:00	-136.211	49.500	0	334.90	0	4.4950	0	33.9110	0	26.871	0	331.775	0	-1e10	8	-1e10	8	-1E+10	1	-1E+10	1	-1E+10	1	-1E+10	1	-1E+10	1	-1E+10	1
4902554	37	C	02/10/2022	14:00	-136.211	49.500	0	336.10	0	4.4940	0	33.9120	0	26.872	0	332.963	0	-1e10	8	-1e10	8	-1E+10	1	-1E+10	1	-1E+10	1	-1E+10	1	-1E+10	1	-1E+10	1
4902554	37	C	02/10/2022	14:00	-136.211	49.500	0	336.90	0	4.4870	0	33.9150	0	26.875	0	333.755	0	-1e10	8	-1e10	8	-1E+10	1	-1E+10	1	-1E+10	1	-1E+10	1	-1E+10	1	-1E+10	1
4902554	37	C	02/10/2022	14:00	-136.211	49.500	0	337.70	0	4.4810	0	33.9170	0	26.877	0	334.547	0	-1e10	8	-1e10	8	-1E+10	1	-1E+10	1	-1E+10	1	-1E+10	1	-1E+10	1	-1E+10	1
4902554	37	C	02/10/2022	14:00	-136.211	49.500	0	338.90	0	4.4750	0	33.9190	0	26.879	0	335.735	0	-1e10	8	-1e10	8	-1E+10	1	-1E+10	1	-1E+10	1	-1E+10	1	-1E+10	1	-1E+10	1
4902554	37	C	02/10/2022	14:00	-136.211	49.500	0	340.10	0	4.4720	0	33.9210	0	26.881	0	336.922	0	-1e10	8	-1e10	8	-1E+10	1	-1E+10	1	-1E+10	1	-1E+10	1	-1E+10	1	-1E+10	1
4902554	37	C	02/10/2022	14:00	-136.211	49.500	0	340.90	0	4.4690	0	33.9220	0	26.882	0	337.714	0	-1e10	8	-1e10	8	-1E+10	1	-1E+10	1	-1E+10	1	-1E+10	1	-1E+10	1	-1E+10	1
4902554	37	C	02/10/2022	14:00	-136.211	49.500	0	341.70	0	4.4680	0	33.9220	0	26.882	0	338.506	0	-1e10	8	-1e10	8	-1E+10	1	-1E+10	1	-1E+10	1	-1E+10	1	-1E+10	1	-1E+10	1
4902554	37	C	02/10/2022	14:00	-136.211	49.500	0	342.90	0	4.4660	0	33.9220	0	26.883	0	339.694	0	-1e10	8	-1e10	8	-1E+10	1	-1E+10	1	-1E+10	1	-1E+10	1	-1E+10	1	-1E+10	1
4902554	37	C	02/10/2022	14:00	-136.211	49.500	0	344.10	0	4.4640	0	33.9230	0	26.884	0	340.882	0	-1e10	8	-1e10	8	-1E+10	1	-1E+10	1	-1E+10	1	-1E+10	1	-1E+10	1	-1E+10	1
4902554	37	C	02/10/2022	14:00	-136.211	49.500	0	344.90	0	4.4630	0	33.9230	0	26.884	0	341.674	0	-1e10	8	-1e10	8	-1E+10	1	-1E+10	1	-1E+10	1	-1E+10	1	-1E+10	1	-1E+10	1
4902554	37	C	02/10/2022	14:00	-136.211	49.500	0	345.70	0	4.4600	0	33.9250	0	26.886	0	342.466	0	-1e10	8	-1e10	8	-1E+10	1	-1E+10	1	-1E+10	1	-1E+10	1	-1E+10	1	-1E+10	1
4902554	37	C	02/10/2022	14:00	-136.211	49.500	0	346.90	0	4.4560	0	33.9250	0	26.886	0	343.653	0	-1e10	8	-1e10	8	-1E+10	1	-1E+10	1	-1E+10	1	-1E+10	1	-1E+10	1	-1E+10	1
4902554	37	C	02/10/2022	14:00	-136.211	49.500	0	348.20	0	4.4560	0	33.9250	0	26.886	0	344.940	0	-1e10	8	-1e10	8	-1E+10	1	-1E+10	1	-1E+10	1	-1E+10	1	-1E+10	1	-1E+10	1
4902554	37	C	02/10/2022	14:00	-136.211	49.500	0	349.00	0	4.4530	0	33.9260	0	26.887	0	345.732	0	-1e10	8	-1e10	8	-1E+10	1	-1E+10	1	-1E+10	1	-1E+10	1	-1E+10	1	-1E+10	1
4902554	37	C	02/10/2022	14:00	-136.211	49.500	0	349.80	0	4.4510	0	33.9280	0	26.889	0	346.524	0	-1e10	8	-1e10	8	-1E+10	1	-1E+10	1	-1E+10	1	-1E+10	1	-1E+10	1	-1E+10	1
4902554	37	C	02/10/2022	14:00	-136.211	49.500	0	352.70	0	4.4480	0	33.9290	0	26.890	0	349.394	0	-1e10	8	-1e10	8	-1E+10	1	-1E+10	1	-1E+10	1	-1E+10	1	-1E+10	1	-1E+10	1
4902554	37	C	02/10/2022	14:00	-136.211	49.500	0	357.80	0	4.4400	0	33.9330	0	26.894	0	354.442	0	-1e10	8	-1e10	8	-1E+10	1	-1E+10	1	-1E+10	1	-1E+10	1	-1E+10	1	-1E+10	1
4902554	37	C	02/10/2022	14:00	-136.211	49.500	0	363.00	0	4.4310	0	33.9400	0	26.901	0	359.589	0	-1e10	8	-1e10	8	-1E+10	1	-1E+10	1	-1E+10	1	-1E+10	1	-1E+10	1	-1E+10	1
4902554	37	C	02/10/2022	14:00	-136.211	49.500	0	367.90	0	4.4240	0	33.9480	0	26.908	0	364.438	0	-1e10	8	-1e10	8	-1E+10	1	-1E+10	1	-1E+10	1	-1E+10	1	-1E+10	1	-1E+10	1
4902554	37	C	02/10/2022	14:00	-136.211	49.500	0	372.90	0	4.4220	0	33.9540	0	26.913	0	369.387	0	-1e10	8	-1e10	8	-1E+10	1	-1E+10	1	-1E+10	1	-1E+10	1	-1E+10	1	-1E+10	1
4902554	37	C	02/10/2022	14:00	-136.211	49.500	0	377.90	0	4.4190	0	33.9590	0	26.917	0	374.335	0	-1e10	8	-1e10	8	-1E+10	1	-1E+10	1	-1E+10	1	-1E+10	1	-1E+10	1	-1E+10	1
4902554	37	C	02/10/2022	14:00	-136.211	49.500	0	383.00	0	4.4180	0	33.9630	0	26.921	0	379.382	0	-1e10	8	-1e10	8	-1E+10	1	-1E+10	1	-1E+10	1	-1E+10	1	-1E+10	1	-1E+10	1
4902554	37	C	02/10/2022	14:00	-136.211	49.500	0	388.00	0	4.4080	0	33.9710	0	26.928	0	384.331	0	-1e10	8	-1e10	8	-1E+10	1	-1E+10	1	-1E+10	1	-1E+10	1	-1E+10	1	-1E+10	1
4902554	37	C	02/10/2022	14:00	-136.211	49.500	0	393.10	0	4.4000	0	33.9750	0	26.932	0	389.378	0	-1e10	8	-1e10	8	-1E+10	1	-1E+10	1	-1E+10	1	-1E+10	1	-1E+10	1	-1E+10	1
4902554	37	C	02/10/2022	14:00	-136.211	49.500	0	398.20	0	4.3930	0	33.9780	0	26.935	0	394.424	0	-1e10	8	-1e10	8	-1E+10	1	-1E+10	1	-1E+10	1	-1E+10	1	-1E+10	1	-1E+10	1
4902554	37	C	02/10/2022	14:00	-136.211	49.500	0	402.70	0	4.3870	0	33.9820	0	26.939	0	398.877	0	-1e10	8	-1e10	8	-1E+10	1	-1E+10	1	-1E+10	1	-1E+10	1	-1E+10	1	-1E+10	1
4902554	37	C	02/10/2022	14:00	-136.211	49.500	0	407.70	0	4.3720	0	33.9920	0	26.949	0	403.825	0	-1e10	8	-1e10	8	-1E+10	1	-1E+10	1	-1E+10	1	-1E+10	1	-1E+10	1	-1E+10	1
4902554	37	C	02/10/2022	14:00	-136.211	49.500	0	413.10	0	4.3660	0	33.9970	0	26.953	0	409.168	0	-1e10	8	-1e10	8	-1E+10	1	-1E+10	1	-1E+10	1	-1E+10	1	-1E+10	1	-1E+10	1
4902554	37	C	02/10/2022	14:00	-136.211	49.500	0	418.00	0	4.3600	0	34.0020	0	26.958	0	414.017	0	-1e10	8	-1e10	8	-1E+10	1	-1E+10	1	-1E+10	1	-1E+10	1	-1E+10	1	-1E+10	1
4902554	37	C	02/10/2022	14:00	-136.211	49.500	0	422.90	0	4.3450	0	34.0130	0	26.968	0	418.865	0	-1e10	8	-1e10	8	-1E+10	1	-1E+10	1	-1E+10	1	-1E+10	1	-1E+10	1	-1E+10	1
4902554	37	C	02/10/2022	14:00	-136.211	49.500	0	427.90	0	4.3350	0	34.0170	0	26.973	0	423.812	0	-1e10	8	-1e10	8	-1E+10	1	-1E+10	1	-1E+10	1	-1E+10	1	-1E+10	1	-1E+10	1
4902554	37	C	02/10/2022	14:00	-136.211	49.500	0	432.90	0	4.3230	0	34.0220	0	26.978	0	428.760	0	-1e10	8	-1e10	8	-1E+10	1	-1E+10	1	-1E+10	1	-1E+10	1	-1E+10	1	-1E+10	1
4902554	37	C	02/10/2022	14:00	-136.211	49.500	0	437.90	0	4.3080	0	34.0280	0	26.984	0	433.707	0	-1e10	8	-1e10	8	-1E+10	1	-1E+10	1	-1E+10	1	-1E+10	1	-1E+10	1	-1E+10	1
4902554	37	C	02/10/2022	14:00	-136.211	49.500	0	442.90	0	4.2950	0	34.0300	0	26.987	0	438.653	0	-1e10	8	-1e10	8	-1E+10	1	-1E+10	1	-1E+10	1	-1E+10	1	-1E+10	1	-1E+10	1
4902554	37	C	02/10/2022	14:00	-136.211	49.500	0	447.90	0	4.2840	0	34.0340	0	26.992	0	443.600	0	-1e10	8	-1e10	8	-1E+10	1	-1E+10	1	-1E+10	1	-1E+10	1	-1E+10	1	-1E+10	1
4902554	37	C	02/10/2022	14:00	-136.211	49.500	0	453.00	0	4.2800	0	34.0380	0	26.995	0	448.646	0	-1e10	8	-1e10	8	-1E+10	1	-1E+10	1	-1E+10	1	-1E+10	1	-1E+10	1	-1E+10	1
4902554	37	C	02/10/2022	14:00	-136.211	49.500	0	458.00	0	4.2610	0	34.0410	0	27.000	0	453.592	0	-1e10	8	-1e10	8	-1E+10	1	-1E+10	1	-1E+10	1	-1E+10	1	-1E+10	1	-1E+10	1
4902554	37	C	02/10/2022	14:00	-136.211	49.500	0	463.00	0	4.2480	0	34.0470	0	27.006	0	458.538	0	-1e10	8	-1e10	8	-1E+10	1	-1E+10	1	-1E+10	1	-1E+10	1	-1E+10	1	-1E+10	1
4902554	37	C	02/10/2022	14:00	-136.211	49.500	0	468.00	0	4.2340	0	34.0540	0	27.013	0	463.485	0	-1e10	8	-1e10	8	-1E+10	1	-1E+10	1	-1E+10	1	-1E+10	1	-1E+10	1	-1E+10	1
4902554	37	C	02/10/2022	14:00	-136.211	49.500	0	473.10	0	4.2280	0	34.0580	0	27.017	0	468.530	0	-1e10	8	-1e10	8	-1E+10	1	-1E+10	1	-1E+10	1	-1E+10	1	-1E+10	1	-1E+10	1
4902554	37	C	02/10/2022	14:00	-136.211	49.500	0	478.10	0	4.2200	0	34.0630	0	27.022	0	473.476	0	-1e10	8	-1e10	8	-1E+10	1	-1E+10	1	-1E+10	1	-1E+10	1	-1E+10	1	-1E+10	1
4902554	37	C	02/10/2022	14:00	-136.211	49.500	0	482.80	0	4.2090	0	34.0670	0	27.026	0	478.125	0	-1e10	8	-1e10	8	-1E+10	1	-1E+10	1	-1E+10	1	-1E+10	1	-1E+10	1	-1E+10	1
4902554	37	C	02/10/2022	14:00	-136.211	49.500	0	487.90	0	4.1940	0	34.0750	0	27.034	0	483.170	0	-1e10	8	-1e10	8	-1E+10	1	-1E+10	1	-1E+10	1	-1E+10	1	-1E+10	1	-1E+10	1
4902554	37	C	02/10/2022	14:00	-136.211	49.500	0	493.00	0	4.1870	0	34.0770	0	27.036	0	488.214	0	-1e10	8	-1e10	8	-1E+10	1	-1E+10	1	-1E+10	1	-1E+10	1	-1E+10	1	-1E+10	1
4902554	37	C	02/10/2022	14:00	-136.211	49.500	0	497.70	0	4.1720	0	34.0830	0	27.043	0	492.863	0	-1e10	8	-1e10	8	-1E+10	1	-1E+10	1	-1E+10	1	-1E+10	1	-1E+10	1	-1E+10	1
4902554	37	C	02/10/2022	14:00	-136.211	49.500	0	502.80	0	4.1540	0	34.0890	0	27.049	0	497.907	0	-1e10	8	-1e10	8	-1E+10	1	-1E+10	1	-1E+10	1	-1E+10	1	-1E+10	1	-1E+10	1
4902554	37	C	02/10/2022	14:00	-136.211	49.500	0	508.10	0	4.1430	0	34.0940	0	27.055	0	503.149	0	-1e10	8	-1e10	8	-1E+10	1	-1E+10	1	-1E+10	1	-1E+10	1	-1E+10	1	-1E+10	1
4902554	37	C	02/10/2022	14:00	-136.211	49.500	0	513.00	0	4.1400	0	34.0960	0	27.057	0	507.996	0	-1e10	8	-1e10	8	-1E+10	1	-1E+10	1	-1E+10	1	-1E+10	1	-1E+10	1	-1E+10	1
4902554	37	C	02/10/2022	14:00	-136.211	49.500	0	517.80	0	4.1360	0	34.1000	0	27.060	0	512.743	0	-1e10	8	-1e10	8	-1E+10	1	-1E+10	1	-1E+10	1	-1E+10	1	-1E+10	1	-1E+10	1
4902554	37	C	02/10/2022	14:00	-136.211	49.500	0	522.80	0	4.1320	0	34.1020	0	27.062	0	517.688	0	-1e10	8	-1e10	8	-1E+10	1	-1E+10	1	-1E+10	1	-1E+10	1	-1E+10	1	-1E+10	1
4902554	37	C	02/10/2022	14:00	-136.211	49.500	0	527.90	0	4.1250	0	34.1060	0	27.066	0	522.731	0	-1e10	8	-1e10	8	-1E+10	1	-1E+10	1	-1E+10	1	-1E+10	1	-1E+10	1	-1E+10	1
4902554	37	C	02/10/2022	14:00	-136.211	49.500	0	533.10	0	4.1120	0	34.1120	0	27.072	0	527.874	0	-1e10	8	-1e10	8	-1E+10	1	-1E+10	1	-1E+10	1	-1E+10	1	-1E+10	1	-1E+10	1
4902554	37	C	02/10/2022	14:00	-136.211	49.500	0	538.20	0	4.1030	0	34.1150	0	27.076	0	532.917	0	-1e10	8	-1e10	8	-1E+10	1	-1E+10	1	-1E+10	1	-1E+10	1	-1E+10	1	-1E+10	1
4902554	37	C	02/10/2022	14:00	-136.211	49.500	0	542.90	0	4.1000	0	34.1160	0	27.077	0	537.565	0	-1e10	8	-1e10	8	-1E+10	1	-1E+10	1	-1E+10	1	-1E+10	1	-1E+10	1	-1E+10	1
4902554	37	C	02/10/2022	14:00	-136.211	49.500	0	547.60	0	4.0920	0	34.1190	0	27.080	0	542.213	0	-1e10	8	-1e10	8	-1E+10	1	-1E+10	1	-1E+10	1	-1E+10	1	-1E+10	1	-1E+10	1
4902554	37	C	02/10/2022	14:00	-136.211	49.500	0	552.90	0	4.0850	0	34.1220	0	27.083	0	547.454	0	-1e10	8	-1e10	8	-1E+10	1	-1E+10	1	-1E+10	1	-1E+10	1	-1E+10	1	-1E+10	1
4902554	37	C	02/10/2022	14:00	-136.211	49.500	0	557.80	0	4.0700	0	34.1280	0	27.090	0	552.299	0	-1e10	8	-1e10	8	-1E+10	1	-1E+10	1	-1E+10	1	-1E+10	1	-1E+10	1	-1E+10	1
4902554	37	C	02/10/2022	14:00	-136.211	49.500	0	562.70	0	4.0520	0	34.1340	0	27.096	0	557.144	0	-1e10	8	-1e10	8	-1E+10	1	-1E+10	1	-1E+10	1	-1E+10	1	-1E+10	1	-1E+10	1
4902554	37	C	02/10/2022	14:00	-136.211	49.500	0	567.70	0	4.0450	0	34.1360	0	27.099	0	562.088	0	-1e10	8	-1e10	8	-1E+10	1	-1E+10	1	-1E+10	1	-1E+10	1	-1E+10	1	-1E+10	1
4902554	37	C	02/10/2022	14:00	-136.211	49.500	0	572.70	0	4.0310	0	34.1390	0	27.102	0	567.032	0	-1e10	8	-1e10	8	-1E+10	1	-1E+10	1	-1E+10	1	-1E+10	1	-1E+10	1	-1E+10	1
4902554	37	C	02/10/2022	14:00	-136.211	49.500	0	577.80	0	4.0120	0	34.1460	0	27.110	0	572.074	0	-1e10	8	-1e10	8	-1E+10	1	-1E+10	1	-1E+10	1	-1E+10	1	-1E+10	1	-1E+10	1
4902554	37	C	02/10/2022	14:00	-136.211	49.500	0	582.90	0	3.9950	0	34.1530	0	27.117	0	577.117	0	-1e10	8	-1e10	8	-1E+10	1	-1E+10	1	-1E+10	1	-1E+10	1	-1E+10	1	-1E+10	1
4902554	37	C	02/10/2022	14:00	-136.211	49.500	0	588.10	0	3.9840	0	34.1560	0	27.121	0	582.258	0	-1e10	8	-1e10	8	-1E+10	1	-1E+10	1	-1E+10	1	-1E+10	1	-1E+10	1	-1E+10	1
4902554	37	C	02/10/2022	14:00	-136.211	49.500	0	592.70	0	3.9720	0	34.1590	0	27.124	0	586.806	0	-1e10	8	-1e10	8	-1E+10	1	-1E+10	1	-1E+10	1	-1E+10	1	-1E+10	1	-1E+10	1
4902554	37	C	02/10/2022	14:00	-136.211	49.500	0	597.80	0	3.9590	0	34.1630	0	27.129	0	591.848	0	-1e10	8	-1e10	8	-1E+10	1	-1E+10	1	-1E+10	1	-1E+10	1	-1E+10	1	-1E+10	1
4902554	37	C	02/10/2022	14:00	-136.211	49.500	0	602.90	0	3.9500	0	34.1670	0	27.133	0	596.890	0	-1e10	8	-1e10	8	-1E+10	1	-1E+10	1	-1E+10	1	-1E+10	1	-1E+10	1	-1E+10	1
4902554	37	C	02/10/2022	14:00	-136.211	49.500	0	608.00	0	3.9420	0	34.1690	0	27.136	0	601.931	0	-1e10	8	-1e10	8	-1E+10	1	-1E+10	1	-1E+10	1	-1E+10	1	-1E+10	1	-1E+10	1
4902554	37	C	02/10/2022	14:00	-136.211	49.500	0	613.10	0	3.9250	0	34.1730	0	27.141	0	606.973	0	-1e10	8	-1e10	8	-1E+10	1	-1E+10	1	-1E+10	1	-1E+10	1	-1E+10	1	-1E+10	1
4902554	37	C	02/10/2022	14:00	-136.211	49.500	0	617.70	0	3.9080	0	34.1770	0	27.145	0	611.520	0	-1e10	8	-1e10	8	-1E+10	1	-1E+10	1	-1E+10	1	-1E+10	1	-1E+10	1	-1E+10	1
4902554	37	C	02/10/2022	14:00	-136.211	49.500	0	622.80	0	3.8970	0	34.1810	0	27.150	0	616.562	0	-1e10	8	-1e10	8	-1E+10	1	-1E+10	1	-1E+10	1	-1E+10	1	-1E+10	1	-1E+10	1
4902554	37	C	02/10/2022	14:00	-136.211	49.500	0	627.80	0	3.8790	0	34.1860	0	27.156	0	621.504	0	-1e10	8	-1e10	8	-1E+10	1	-1E+10	1	-1E+10	1	-1E+10	1	-1E+10	1	-1E+10	1
4902554	37	C	02/10/2022	14:00	-136.211	49.500	0	632.80	0	3.8610	0	34.1920	0	27.162	0	626.447	0	-1e10	8	-1e10	8	-1E+10	1	-1E+10	1	-1E+10	1	-1E+10	1	-1E+10	1	-1E+10	1
4902554	37	C	02/10/2022	14:00	-136.211	49.500	0	637.90	0	3.8480	0	34.1950	0	27.166	0	631.488	0	-1e10	8	-1e10	8	-1E+10	1	-1E+10	1	-1E+10	1	-1E+10	1	-1E+10	1	-1E+10	1
4902554	37	C	02/10/2022	14:00	-136.211	49.500	0	643.00	0	3.8330	0	34.1980	0	27.170	0	636.529	0	-1e10	8	-1e10	8	-1E+10	1	-1E+10	1	-1E+10	1	-1E+10	1	-1E+10	1	-1E+10	1
4902554	37	C	02/10/2022	14:00	-136.211	49.500	0	648.10	0	3.8200	0	34.2000	0	27.173	0	641.569	0	-1e10	8	-1e10	8	-1E+10	1	-1E+10	1	-1E+10	1	-1E+10	1	-1E+10	1	-1E+10	1
4902554	37	C	02/10/2022	14:00	-136.211	49.500	0	652.80	0	3.8000	0	34.2050	0	27.179	0	646.215	0	-1e10	8	-1e10	8	-1E+10	1	-1E+10	1	-1E+10	1	-1E+10	1	-1E+10	1	-1E+10	1
4902554	37	C	02/10/2022	14:00	-136.211	49.500	0	657.90	0	3.7830	0	34.2090	0	27.184	0	651.255	0	-1e10	8	-1e10	8	-1E+10	1	-1E+10	1	-1E+10	1	-1E+10	1	-1E+10	1	-1E+10	1
4902554	37	C	02/10/2022	14:00	-136.211	49.500	0	663.20	0	3.7750	0	34.2120	0	27.187	0	656.493	0	-1e10	8	-1e10	8	-1E+10	1	-1E+10	1	-1E+10	1	-1E+10	1	-1E+10	1	-1E+10	1
4902554	37	C	02/10/2022	14:00	-136.211	49.500	0	668.00	0	3.7670	0	34.2130	0	27.189	0	661.237	0	-1e10	8	-1e10	8	-1E+10	1	-1E+10	1	-1E+10	1	-1E+10	1	-1E+10	1	-1E+10	1
4902554	37	C	02/10/2022	14:00	-136.211	49.500	0	672.90	0	3.7530	0	34.2160	0	27.192	0	666.080	0	-1e10	8	-1e10	8	-1E+10	1	-1E+10	1	-1E+10	1	-1E+10	1	-1E+10	1	-1E+10	1
4902554	37	C	02/10/2022	14:00	-136.211	49.500	0	678.00	0	3.7460	0	34.2190	0	27.195	0	671.120	0	-1e10	8	-1e10	8	-1E+10	1	-1E+10	1	-1E+10	1	-1E+10	1	-1E+10	1	-1E+10	1
4902554	37	C	02/10/2022	14:00	-136.211	49.500	0	683.00	0	3.7430	0	34.2200	0	27.197	0	676.061	0	-1e10	8	-1e10	8	-1E+10	1	-1E+10	1	-1E+10	1	-1E+10	1	-1E+10	1	-1E+10	1
4902554	37	C	02/10/2022	14:00	-136.211	49.500	0	688.20	0	3.7310	0	34.2230	0	27.200	0	681.200	0	-1e10	8	-1e10	8	-1E+10	1	-1E+10	1	-1E+10	1	-1E+10	1	-1E+10	1	-1E+10	1
4902554	37	C	02/10/2022	14:00	-136.211	49.500	0	693.30	0	3.7120	0	34.2280	0	27.206	0	686.240	0	-1e10	8	-1e10	8	-1E+10	1	-1E+10	1	-1E+10	1	-1E+10	1	-1E+10	1	-1E+10	1
4902554	37	C	02/10/2022	14:00	-136.211	49.500	0	697.90	0	3.6980	0	34.2310	0	27.210	0	690.785	0	-1e10	8	-1e10	8	-1E+10	1	-1E+10	1	-1E+10	1	-1E+10	1	-1E+10	1	-1E+10	1
4902554	37	C	02/10/2022	14:00	-136.211	49.500	0	702.60	0	3.6890	0	34.2340	0	27.213	0	695.429	0	-1e10	8	-1e10	8	-1E+10	1	-1E+10	1	-1E+10	1	-1E+10	1	-1E+10	1	-1E+10	1
4902554	37	C	02/10/2022	14:00	-136.211	49.500	0	707.90	0	3.6810	0	34.2360	0	27.216	0	700.666	0	-1e10	8	-1e10	8	-1E+10	1	-1E+10	1	-1E+10	1	-1E+10	1	-1E+10	1	-1E+10	1
4902554	37	C	02/10/2022	14:00	-136.211	49.500	0	713.20	0	3.6730	0	34.2390	0	27.219	0	705.903	0	-1e10	8	-1e10	8	-1E+10	1	-1E+10	1	-1E+10	1	-1E+10	1	-1E+10	1	-1E+10	1
4902554	37	C	02/10/2022	14:00	-136.211	49.500	0	718.30	0	3.6630	0	34.2410	0	27.221	0	710.942	0	-1e10	8	-1e10	8	-1E+10	1	-1E+10	1	-1E+10	1	-1E+10	1	-1E+10	1	-1E+10	1
4902554	37	C	02/10/2022	14:00	-136.211	49.500	0	722.90	0	3.6530	0	34.2430	0	27.224	0	715.487	0	-1e10	8	-1e10	8	-1E+10	1	-1E+10	1	-1E+10	1	-1E+10	1	-1E+10	1	-1E+10	1
4902554	37	C	02/10/2022	14:00	-136.211	49.500	0	727.60	0	3.6340	0	34.2480	0	27.230	0	720.131	0	-1e10	8	-1e10	8	-1E+10	1	-1E+10	1	-1E+10	1	-1E+10	1	-1E+10	1	-1E+10	1
4902554	37	C	02/10/2022	14:00	-136.211	49.500	0	732.80	0	3.6200	0	34.2520	0	27.234	0	725.269	0	-1e10	8	-1e10	8	-1E+10	1	-1E+10	1	-1E+10	1	-1E+10	1	-1E+10	1	-1E+10	1
4902554	37	C	02/10/2022	14:00	-136.211	49.500	0	738.10	0	3.6040	0	34.2550	0	27.238	0	730.505	0	-1e10	8	-1e10	8	-1E+10	1	-1E+10	1	-1E+10	1	-1E+10	1	-1E+10	1	-1E+10	1
4902554	37	C	02/10/2022	14:00	-136.211	49.500	0	743.00	0	3.5840	0	34.2580	0	27.243	0	735.346	0	-1e10	8	-1e10	8	-1E+10	1	-1E+10	1	-1E+10	1	-1E+10	1	-1E+10	1	-1E+10	1
4902554	37	C	02/10/2022	14:00	-136.211	49.500	0	747.90	0	3.5650	0	34.2610	0	27.247	0	740.187	0	-1e10	8	-1e10	8	-1E+10	1	-1E+10	1	-1E+10	1	-1E+10	1	-1E+10	1	-1E+10	1
4902554	37	C	02/10/2022	14:00	-136.211	49.500	0	752.80	0	3.5550	0	34.2630	0	27.250	0	745.027	0	-1e10	8	-1e10	8	-1E+10	1	-1E+10	1	-1E+10	1	-1E+10	1	-1E+10	1	-1E+10	1
4902554	37	C	02/10/2022	14:00	-136.211	49.500	0	757.80	0	3.5350	0	34.2650	0	27.253	0	749.967	0	-1e10	8	-1e10	8	-1E+10	1	-1E+10	1	-1E+10	1	-1E+10	1	-1E+10	1	-1E+10	1
4902554	37	C	02/10/2022	14:00	-136.211	49.500	0	762.90	0	3.5170	0	34.2670	0	27.257	0	755.005	0	-1e10	8	-1e10	8	-1E+10	1	-1E+10	1	-1E+10	1	-1E+10	1	-1E+10	1	-1E+10	1
4902554	37	C	02/10/2022	14:00	-136.211	49.500	0	768.00	0	3.4990	0	34.2690	0	27.260	0	760.043	0	-1e10	8	-1e10	8	-1E+10	1	-1E+10	1	-1E+10	1	-1E+10	1	-1E+10	1	-1E+10	1
4902554	37	C	02/10/2022	14:00	-136.211	49.500	0	773.10	0	3.4850	0	34.2710	0	27.263	0	765.081	0	-1e10	8	-1e10	8	-1E+10	1	-1E+10	1	-1E+10	1	-1E+10	1	-1E+10	1	-1E+10	1
4902554	37	C	02/10/2022	14:00	-136.211	49.500	0	777.80	0	3.4770	0	34.2730	0	27.265	0	769.723	0	-1e10	8	-1e10	8	-1E+10	1	-1E+10	1	-1E+10	1	-1E+10	1	-1E+10	1	-1E+10	1
4902554	37	C	02/10/2022	14:00	-136.211	49.500	0	782.90	0	3.4700	0	34.2750	0	27.268	0	774.761	0	-1e10	8	-1e10	8	-1E+10	1	-1E+10	1	-1E+10	1	-1E+10	1	-1E+10	1	-1E+10	1
4902554	37	C	02/10/2022	14:00	-136.211	49.500	0	788.10	0	3.4570	0	34.2770	0	27.270	0	779.897	0	-1e10	8	-1e10	8	-1E+10	1	-1E+10	1	-1E+10	1	-1E+10	1	-1E+10	1	-1E+10	1
4902554	37	C	02/10/2022	14:00	-136.211	49.500	0	792.80	0	3.4520	0	34.2780	0	27.272	0	784.539	0	-1e10	8	-1e10	8	-1E+10	1	-1E+10	1	-1E+10	1	-1E+10	1	-1E+10	1	-1E+10	1
4902554	37	C	02/10/2022	14:00	-136.211	49.500	0	797.60	0	3.4410	0	34.2810	0	27.275	0	789.280	0	-1e10	8	-1e10	8	-1E+10	1	-1E+10	1	-1E+10	1	-1E+10	1	-1E+10	1	-1E+10	1
4902554	37	C	02/10/2022	14:00	-136.211	49.500	0	803.00	0	3.4240	0	34.2850	0	27.280	0	794.614	0	-1e10	8	-1e10	8	-1E+10	1	-1E+10	1	-1E+10	1	-1E+10	1	-1E+10	1	-1E+10	1
4902554	37	C	02/10/2022	14:00	-136.211	49.500	0	808.30	0	3.4100	0	34.2880	0	27.284	0	799.848	0	-1e10	8	-1e10	8	-1E+10	1	-1E+10	1	-1E+10	1	-1E+10	1	-1E+10	1	-1E+10	1
4902554	37	C	02/10/2022	14:00	-136.211	49.500	0	813.10	0	3.4000	0	34.2910	0	27.287	0	804.589	0	-1e10	8	-1e10	8	-1E+10	1	-1E+10	1	-1E+10	1	-1E+10	1	-1E+10	1	-1E+10	1
4902554	37	C	02/10/2022	14:00	-136.211	49.500	0	818.00	0	3.3910	0	34.2920	0	27.289	0	809.428	0	-1e10	8	-1e10	8	-1E+10	1	-1E+10	1	-1E+10	1	-1E+10	1	-1E+10	1	-1E+10	1
4902554	37	C	02/10/2022	14:00	-136.211	49.500	0	822.80	0	3.3800	0	34.2950	0	27.292	0	814.168	0	-1e10	8	-1e10	8	-1E+10	1	-1E+10	1	-1E+10	1	-1E+10	1	-1E+10	1	-1E+10	1
4902554	37	C	02/10/2022	14:00	-136.211	49.500	0	827.70	0	3.3750	0	34.2960	0	27.294	0	819.007	0	-1e10	8	-1e10	8	-1E+10	1	-1E+10	1	-1E+10	1	-1E+10	1	-1E+10	1	-1E+10	1
4902554	37	C	02/10/2022	14:00	-136.211	49.500	0	832.70	0	3.3680	0	34.2980	0	27.296	0	823.945	0	-1e10	8	-1e10	8	-1E+10	1	-1E+10	1	-1E+10	1	-1E+10	1	-1E+10	1	-1E+10	1
4902554	37	C	02/10/2022	14:00	-136.211	49.500	0	837.70	0	3.3600	0	34.2990	0	27.298	0	828.882	0	-1e10	8	-1e10	8	-1E+10	1	-1E+10	1	-1E+10	1	-1E+10	1	-1E+10	1	-1E+10	1
4902554	37	C	02/10/2022	14:00	-136.211	49.500	0	842.80	0	3.3460	0	34.3030	0	27.302	0	833.919	0	-1e10	8	-1e10	8	-1E+10	1	-1E+10	1	-1E+10	1	-1E+10	1	-1E+10	1	-1E+10	1
4902554	37	C	02/10/2022	14:00	-136.211	49.500	0	847.80	0	3.3390	0	34.3040	0	27.304	0	838.856	0	-1e10	8	-1e10	8	-1E+10	1	-1E+10	1	-1E+10	1	-1E+10	1	-1E+10	1	-1E+10	1
4902554	37	C	02/10/2022	14:00	-136.211	49.500	0	853.00	0	3.3270	0	34.3060	0	27.306	0	843.990	0	-1e10	8	-1e10	8	-1E+10	1	-1E+10	1	-1E+10	1	-1E+10	1	-1E+10	1	-1E+10	1
4902554	37	C	02/10/2022	14:00	-136.211	49.500	0	858.20	0	3.3150	0	34.3090	0	27.310	0	849.125	0	-1e10	8	-1e10	8	-1E+10	1	-1E+10	1	-1E+10	1	-1E+10	1	-1E+10	1	-1E+10	1
4902554	37	C	02/10/2022	14:00	-136.211	49.500	0	862.90	0	3.3060	0	34.3110	0	27.312	0	853.766	0	-1e10	8	-1e10	8	-1E+10	1	-1E+10	1	-1E+10	1	-1E+10	1	-1E+10	1	-1E+10	1
4902554	37	C	02/10/2022	14:00	-136.211	49.500	0	867.90	0	3.2960	0	34.3130	0	27.315	0	858.703	0	-1e10	8	-1e10	8	-1E+10	1	-1E+10	1	-1E+10	1	-1E+10	1	-1E+10	1	-1E+10	1
4902554	37	C	02/10/2022	14:00	-136.211	49.500	0	873.10	0	3.2910	0	34.3140	0	27.316	0	863.837	0	-1e10	8	-1e10	8	-1E+10	1	-1E+10	1	-1E+10	1	-1E+10	1	-1E+10	1	-1E+10	1
4902554	37	C	02/10/2022	14:00	-136.211	49.500	0	877.90	0	3.2830	0	34.3150	0	27.318	0	868.576	0	-1e10	8	-1e10	8	-1E+10	1	-1E+10	1	-1E+10	1	-1E+10	1	-1E+10	1	-1E+10	1
4902554	37	C	02/10/2022	14:00	-136.211	49.500	0	882.90	0	3.2740	0	34.3170	0	27.320	0	873.512	0	-1e10	8	-1e10	8	-1E+10	1	-1E+10	1	-1E+10	1	-1E+10	1	-1E+10	1	-1E+10	1
4902554	37	C	02/10/2022	14:00	-136.211	49.500	0	887.90	0	3.2640	0	34.3190	0	27.323	0	878.449	0	-1e10	8	-1e10	8	-1E+10	1	-1E+10	1	-1E+10	1	-1E+10	1	-1E+10	1	-1E+10	1
4902554	37	C	02/10/2022	14:00	-136.211	49.500	0	893.00	0	3.2600	0	34.3200	0	27.324	0	883.484	0	-1e10	8	-1e10	8	-1E+10	1	-1E+10	1	-1E+10	1	-1E+10	1	-1E+10	1	-1E+10	1
4902554	37	C	02/10/2022	14:00	-136.211	49.500	0	898.20	0	3.2530	0	34.3220	0	27.326	0	888.617	0	-1e10	8	-1e10	8	-1E+10	1	-1E+10	1	-1E+10	1	-1E+10	1	-1E+10	1	-1E+10	1
4902554	37	C	02/10/2022	14:00	-136.211	49.500	0	903.00	0	3.2340	0	34.3250	0	27.330	0	893.356	0	-1e10	8	-1e10	8	-1E+10	1	-1E+10	1	-1E+10	1	-1E+10	1	-1E+10	1	-1E+10	1
4902554	37	C	02/10/2022	14:00	-136.211	49.500	0	907.80	0	3.2200	0	34.3290	0	27.335	0	898.094	0	-1e10	8	-1e10	8	-1E+10	1	-1E+10	1	-1E+10	1	-1E+10	1	-1E+10	1	-1E+10	1
4902554	37	C	02/10/2022	14:00	-136.211	49.500	0	913.00	0	3.2110	0	34.3300	0	27.337	0	903.227	0	-1e10	8	-1e10	8	-1E+10	1	-1E+10	1	-1E+10	1	-1E+10	1	-1E+10	1	-1E+10	1
4902554	37	C	02/10/2022	14:00	-136.211	49.500	0	917.80	0	3.2020	0	34.3320	0	27.339	0	907.965	0	-1e10	8	-1e10	8	-1E+10	1	-1E+10	1	-1E+10	1	-1E+10	1	-1E+10	1	-1E+10	1
4902554	37	C	02/10/2022	14:00	-136.211	49.500	0	922.60	0	3.1980	0	34.3330	0	27.340	0	912.704	0	-1e10	8	-1e10	8	-1E+10	1	-1E+10	1	-1E+10	1	-1E+10	1	-1E+10	1	-1E+10	1
4902554	37	C	02/10/2022	14:00	-136.211	49.500	0	927.90	0	3.1890	0	34.3350	0	27.343	0	917.935	0	-1e10	8	-1e10	8	-1E+10	1	-1E+10	1	-1E+10	1	-1E+10	1	-1E+10	1	-1E+10	1
4902554	37	C	02/10/2022	14:00	-136.211	49.500	0	933.10	0	3.1760	0	34.3380	0	27.346	0	923.068	0	-1e10	8	-1e10	8	-1E+10	1	-1E+10	1	-1E+10	1	-1E+10	1	-1E+10	1	-1E+10	1
4902554	37	C	02/10/2022	14:00	-136.211	49.500	0	938.00	0	3.1620	0	34.3400	0	27.349	0	927.904	0	-1e10	8	-1e10	8	-1E+10	1	-1E+10	1	-1E+10	1	-1E+10	1	-1E+10	1	-1E+10	1
4902554	37	C	02/10/2022	14:00	-136.211	49.500	0	942.80	0	3.1520	0	34.3420	0	27.352	0	932.642	0	-1e10	8	-1e10	8	-1E+10	1	-1E+10	1	-1E+10	1	-1E+10	1	-1E+10	1	-1E+10	1
4902554	37	C	02/10/2022	14:00	-136.211	49.500	0	947.80	0	3.1390	0	34.3450	0	27.355	0	937.577	0	-1e10	8	-1e10	8	-1E+10	1	-1E+10	1	-1E+10	1	-1E+10	1	-1E+10	1	-1E+10	1
4902554	37	C	02/10/2022	14:00	-136.211	49.500	0	952.70	0	3.1250	0	34.3480	0	27.359	0	942.413	0	-1e10	8	-1e10	8	-1E+10	1	-1E+10	1	-1E+10	1	-1E+10	1	-1E+10	1	-1E+10	1
4902554	37	C	02/10/2022	14:00	-136.211	49.500	0	957.80	0	3.1120	0	34.3500	0	27.362	0	947.446	0	-1e10	8	-1e10	8	-1E+10	1	-1E+10	1	-1E+10	1	-1E+10	1	-1E+10	1	-1E+10	1
4902554	37	C	02/10/2022	14:00	-136.211	49.500	0	962.90	0	3.0950	0	34.3540	0	27.367	0	952.480	0	-1e10	8	-1e10	8	-1E+10	1	-1E+10	1	-1E+10	1	-1E+10	1	-1E+10	1	-1E+10	1
4902554	37	C	02/10/2022	14:00	-136.211	49.500	0	968.10	0	3.0860	0	34.3560	0	27.369	0	957.611	0	-1e10	8	-1e10	8	-1E+10	1	-1E+10	1	-1E+10	1	-1E+10	1	-1E+10	1	-1E+10	1
4902554	37	C	02/10/2022	14:00	-136.211	49.500	0	972.80	0	3.0790	0	34.3580	0	27.371	0	962.250	0	-1e10	8	-1e10	8	-1E+10	1	-1E+10	1	-1E+10	1	-1E+10	1	-1E+10	1	-1E+10	1
4902554	37	C	02/10/2022	14:00	-136.211	49.500	0	977.70	0	3.0740	0	34.3590	0	27.373	0	967.085	0	-1e10	8	-1e10	8	-1E+10	1	-1E+10	1	-1E+10	1	-1E+10	1	-1E+10	1	-1E+10	1
4902554	37	C	02/10/2022	14:00	-136.211	49.500	0	982.50	0	3.0680	0	34.3600	0	27.374	0	971.822	0	-1e10	8	-1e10	8	-1E+10	1	-1E+10	1	-1E+10	1	-1E+10	1	-1E+10	1	-1E+10	1
4902554	37	C	02/10/2022	14:00	-136.211	49.500	0	987.50	0	3.0570	0	34.3620	0	27.377	0	976.756	0	-1e10	8	-1e10	8	-1E+10	1	-1E+10	1	-1E+10	1	-1E+10	1	-1E+10	1	-1E+10	1
4902554	37	C	02/10/2022	14:00	-136.211	49.500	0	992.50	0	3.0530	0	34.3630	0	27.378	0	981.690	0	-1e10	8	-1e10	8	-1E+10	1	-1E+10	1	-1E+10	1	-1E+10	1	-1E+10	1	-1E+10	1
4902554	37	C	02/10/2022	14:00	-136.211	49.500	0	997.50	0	3.0410	0	34.3660	0	27.381	0	986.624	0	-1e10	8	-1e10	8	-1E+10	1	-1E+10	1	-1E+10	1	-1E+10	1	-1E+10	1	-1E+10	1
4902554	37	C	02/10/2022	14:00	-136.211	49.500	0	1005.00	0	3.0370	0	34.3670	0	27.383	0	994.024	0	-1e10	8	-1e10	8	-1E+10	1	-1E+10	1	-1E+10	1	-1E+10	1	-1E+10	1	-1E+10	1
4902554	37	C	02/10/2022	14:00	-136.211	49.500	0	1015.10	0	3.0230	0	34.3700	0	27.386	0	1003.990	0	-1e10	8	-1e10	8	-1E+10	1	-1E+10	1	-1E+10	1	-1E+10	1	-1E+10	1	-1E+10	1
4902554	37	C	02/10/2022	14:00	-136.211	49.500	0	1025.10	0	2.9970	0	34.3740	0	27.392	0	1013.856	0	-1e10	8	-1e10	8	-1E+10	1	-1E+10	1	-1E+10	1	-1E+10	1	-1E+10	1	-1E+10	1
4902554	37	C	02/10/2022	14:00	-136.211	49.500	0	1035.30	0	2.9750	0	34.3780	0	27.397	0	1023.919	0	-1e10	8	-1e10	8	-1E+10	1	-1E+10	1	-1E+10	1	-1E+10	1	-1E+10	1	-1E+10	1
4902554	37	C	02/10/2022	14:00	-136.211	49.500	0	1045.40	0	2.9500	0	34.3830	0	27.404	0	1033.883	0	-1e10	8	-1e10	8	-1E+10	1	-1E+10	1	-1E+10	1	-1E+10	1	-1E+10	1	-1E+10	1
4902554	37	C	02/10/2022	14:00	-136.211	49.500	0	1055.50	0	2.9270	0	34.3880	0	27.410	0	1043.847	0	-1e10	8	-1e10	8	-1E+10	1	-1E+10	1	-1E+10	1	-1E+10	1	-1E+10	1	-1E+10	1
4902554	37	C	02/10/2022	14:00	-136.211	49.500	0	1065.70	0	2.9070	0	34.3910	0	27.414	0	1053.909	0	-1e10	8	-1e10	8	-1E+10	1	-1E+10	1	-1E+10	1	-1E+10	1	-1E+10	1	-1E+10	1
4902554	37	C	02/10/2022	14:00	-136.211	49.500	0	1075.50	0	2.8810	0	34.3950	0	27.419	0	1063.576	0	-1e10	8	-1e10	8	-1E+10	1	-1E+10	1	-1E+10	1	-1E+10	1	-1E+10	1	-1E+10	1
4902554	37	C	02/10/2022	14:00	-136.211	49.500	0	1085.30	0	2.8630	0	34.3990	0	27.424	0	1073.242	0	-1e10	8	-1e10	8	-1E+10	1	-1E+10	1	-1E+10	1	-1E+10	1	-1E+10	1	-1E+10	1
4902554	37	C	02/10/2022	14:00	-136.211	49.500	0	1095.70	0	2.8470	0	34.4030	0	27.429	0	1083.499	0	-1e10	8	-1e10	8	-1E+10	1	-1E+10	1	-1E+10	1	-1E+10	1	-1E+10	1	-1E+10	1
4902554	37	C	02/10/2022	14:00	-136.211	49.500	0	1105.90	0	2.8300	0	34.4060	0	27.433	0	1093.559	0	-1e10	8	-1e10	8	-1E+10	1	-1E+10	1	-1E+10	1	-1E+10	1	-1E+10	1	-1E+10	1
4902554	37	C	02/10/2022	14:00	-136.211	49.500	0	1115.30	0	2.8140	0	34.4090	0	27.437	0	1102.830	0	-1e10	8	-1e10	8	-1E+10	1	-1E+10	1	-1E+10	1	-1E+10	1	-1E+10	1	-1E+10	1
4902554	37	C	02/10/2022	14:00	-136.211	49.500	0	1125.40	0	2.7980	0	34.4120	0	27.441	0	1112.790	0	-1e10	8	-1e10	8	-1E+10	1	-1E+10	1	-1E+10	1	-1E+10	1	-1E+10	1	-1E+10	1
4902554	37	C	02/10/2022	14:00	-136.211	49.500	0	1135.60	0	2.7870	0	34.4150	0	27.444	0	1122.849	0	-1e10	8	-1e10	8	-1E+10	1	-1E+10	1	-1E+10	1	-1E+10	1	-1E+10	1	-1E+10	1
4902554	37	C	02/10/2022	14:00	-136.211	49.500	0	1145.10	0	2.7670	0	34.4180	0	27.448	0	1132.216	0	-1e10	8	-1e10	8	-1E+10	1	-1E+10	1	-1E+10	1	-1E+10	1	-1E+10	1	-1E+10	1
4902554	37	C	02/10/2022	14:00	-136.211	49.500	0	1155.00	0	2.7550	0	34.4200	0	27.451	0	1141.978	0	-1e10	8	-1e10	8	-1E+10	1	-1E+10	1	-1E+10	1	-1E+10	1	-1E+10	1	-1E+10	1
4902554	37	C	02/10/2022	14:00	-136.211	49.500	0	1165.10	0	2.7460	0	34.4220	0	27.453	0	1151.936	0	-1e10	8	-1e10	8	-1E+10	1	-1E+10	1	-1E+10	1	-1E+10	1	-1E+10	1	-1E+10	1
4902554	37	C	02/10/2022	14:00	-136.211	49.500	0	1175.40	0	2.7350	0	34.4240	0	27.456	0	1162.092	0	-1e10	8	-1e10	8	-1E+10	1	-1E+10	1	-1E+10	1	-1E+10	1	-1E+10	1	-1E+10	1
4902554	37	C	02/10/2022	14:00	-136.211	49.500	0	1185.50	0	2.7260	0	34.4260	0	27.458	0	1172.049	0	-1e10	8	-1e10	8	-1E+10	1	-1E+10	1	-1E+10	1	-1E+10	1	-1E+10	1	-1E+10	1
4902554	37	C	02/10/2022	14:00	-136.211	49.500	0	1195.40	0	2.7110	0	34.4290	0	27.462	0	1181.809	0	-1e10	8	-1e10	8	-1E+10	1	-1E+10	1	-1E+10	1	-1E+10	1	-1E+10	1	-1E+10	1
4902554	37	C	02/10/2022	14:00	-136.211	49.500	0	1205.50	0	2.6880	0	34.4330	0	27.467	0	1191.766	0	-1e10	8	-1e10	8	-1E+10	1	-1E+10	1	-1E+10	1	-1E+10	1	-1E+10	1	-1E+10	1
4902554	37	C	02/10/2022	14:00	-136.211	49.500	0	1215.30	0	2.6750	0	34.4360	0	27.471	0	1201.426	0	-1e10	8	-1e10	8	-1E+10	1	-1E+10	1	-1E+10	1	-1E+10	1	-1E+10	1	-1E+10	1
4902554	37	C	02/10/2022	14:00	-136.211	49.500	0	1225.20	0	2.6650	0	34.4380	0	27.473	0	1211.184	0	-1e10	8	-1e10	8	-1E+10	1	-1E+10	1	-1E+10	1	-1E+10	1	-1E+10	1	-1E+10	1
4902554	37	C	02/10/2022	14:00	-136.211	49.500	0	1235.40	0	2.6550	0	34.4400	0	27.476	0	1221.238	0	-1e10	8	-1e10	8	-1E+10	1	-1E+10	1	-1E+10	1	-1E+10	1	-1E+10	1	-1E+10	1
4902554	37	C	02/10/2022	14:00	-136.211	49.500	0	1245.50	0	2.6390	0	34.4440	0	27.481	0	1231.193	0	-1e10	8	-1e10	8	-1E+10	1	-1E+10	1	-1E+10	1	-1E+10	1	-1E+10	1	-1E+10	1
4902554	37	C	02/10/2022	14:00	-136.211	49.500	0	1255.30	0	2.6230	0	34.4470	0	27.484	0	1240.851	0	-1e10	8	-1e10	8	-1E+10	1	-1E+10	1	-1E+10	1	-1E+10	1	-1E+10	1	-1E+10	1
4902554	37	C	02/10/2022	14:00	-136.211	49.500	0	1265.30	0	2.6110	0	34.4490	0	27.487	0	1250.707	0	-1e10	8	-1e10	8	-1E+10	1	-1E+10	1	-1E+10	1	-1E+10	1	-1E+10	1	-1E+10	1
4902554	37	C	02/10/2022	14:00	-136.211	49.500	0	1275.50	0	2.6030	0	34.4510	0	27.489	0	1260.758	0	-1e10	8	-1e10	8	-1E+10	1	-1E+10	1	-1E+10	1	-1E+10	1	-1E+10	1	-1E+10	1
4902554	37	C	02/10/2022	14:00	-136.211	49.500	0	1285.50	0	2.5880	0	34.4540	0	27.493	0	1270.613	0	-1e10	8	-1e10	8	-1E+10	1	-1E+10	1	-1E+10	1	-1E+10	1	-1E+10	1	-1E+10	1
4902554	37	C	02/10/2022	14:00	-136.211	49.500	0	1295.50	0	2.5800	0	34.4550	0	27.495	0	1280.467	0	-1e10	8	-1e10	8	-1E+10	1	-1E+10	1	-1E+10	1	-1E+10	1	-1E+10	1	-1E+10	1
4902554	37	C	02/10/2022	14:00	-136.211	49.500	0	1305.60	0	2.5740	0	34.4560	0	27.496	0	1290.418	0	-1e10	8	-1e10	8	-1E+10	1	-1E+10	1	-1E+10	1	-1E+10	1	-1E+10	1	-1E+10	1
4902554	37	C	02/10/2022	14:00	-136.211	49.500	0	1315.20	0	2.5670	0	34.4580	0	27.498	0	1299.877	0	-1e10	8	-1e10	8	-1E+10	1	-1E+10	1	-1E+10	1	-1E+10	1	-1E+10	1	-1E+10	1
4902554	37	C	02/10/2022	14:00	-136.211	49.500	0	1325.30	0	2.5540	0	34.4610	0	27.502	0	1309.828	0	-1e10	8	-1e10	8	-1E+10	1	-1E+10	1	-1E+10	1	-1E+10	1	-1E+10	1	-1E+10	1
4902554	37	C	02/10/2022	14:00	-136.211	49.500	0	1335.50	0	2.5420	0	34.4630	0	27.505	0	1319.877	0	-1e10	8	-1e10	8	-1E+10	1	-1E+10	1	-1E+10	1	-1E+10	1	-1E+10	1	-1E+10	1
4902554	37	C	02/10/2022	14:00	-136.211	49.500	0	1345.30	0	2.5270	0	34.4660	0	27.508	0	1329.532	0	-1e10	8	-1e10	8	-1E+10	1	-1E+10	1	-1E+10	1	-1E+10	1	-1E+10	1	-1E+10	1
4902554	37	C	02/10/2022	14:00	-136.211	49.500	0	1355.10	0	2.5120	0	34.4690	0	27.512	0	1339.186	0	-1e10	8	-1e10	8	-1E+10	1	-1E+10	1	-1E+10	1	-1E+10	1	-1E+10	1	-1E+10	1
4902554	37	C	02/10/2022	14:00	-136.211	49.500	0	1365.10	0	2.5010	0	34.4710	0	27.515	0	1349.036	0	-1e10	8	-1e10	8	-1E+10	1	-1E+10	1	-1E+10	1	-1E+10	1	-1E+10	1	-1E+10	1
4902554	37	C	02/10/2022	14:00	-136.211	49.500	0	1375.30	0	2.4850	0	34.4740	0	27.518	0	1359.083	0	-1e10	8	-1e10	8	-1E+10	1	-1E+10	1	-1E+10	1	-1E+10	1	-1E+10	1	-1E+10	1
4902554	37	C	02/10/2022	14:00	-136.211	49.500	0	1385.60	0	2.4650	0	34.4780	0	27.523	0	1369.228	0	-1e10	8	-1e10	8	-1E+10	1	-1E+10	1	-1E+10	1	-1E+10	1	-1E+10	1	-1E+10	1
4902554	37	C	02/10/2022	14:00	-136.211	49.500	0	1395.70	0	2.4500	0	34.4810	0	27.527	0	1379.176	0	-1e10	8	-1e10	8	-1E+10	1	-1E+10	1	-1E+10	1	-1E+10	1	-1E+10	1	-1E+10	1
4902554	37	C	02/10/2022	14:00	-136.211	49.500	0	1405.70	0	2.4390	0	34.4830	0	27.530	0	1389.025	0	-1e10	8	-1e10	8	-1E+10	1	-1E+10	1	-1E+10	1	-1E+10	1	-1E+10	1	-1E+10	1
4902554	37	C	02/10/2022	14:00	-136.211	49.500	0	1415.70	0	2.4300	0	34.4850	0	27.532	0	1398.873	0	-1e10	8	-1e10	8	-1E+10	1	-1E+10	1	-1E+10	1	-1E+10	1	-1E+10	1	-1E+10	1
4902554	37	C	02/10/2022	14:00	-136.211	49.500	0	1425.50	0	2.4220	0	34.4870	0	27.534	0	1408.524	0	-1e10	8	-1e10	8	-1E+10	1	-1E+10	1	-1E+10	1	-1E+10	1	-1E+10	1	-1E+10	1
4902554	37	C	02/10/2022	14:00	-136.211	49.500	0	1435.80	0	2.4180	0	34.4870	0	27.535	0	1418.667	0	-1e10	8	-1e10	8	-1E+10	1	-1E+10	1	-1E+10	1	-1E+10	1	-1E+10	1	-1E+10	1
4902554	37	C	02/10/2022	14:00	-136.211	49.500	0	1445.60	0	2.4150	0	34.4880	0	27.536	0	1428.317	0	-1e10	8	-1e10	8	-1E+10	1	-1E+10	1	-1E+10	1	-1E+10	1	-1E+10	1	-1E+10	1
4902554	37	C	02/10/2022	14:00	-136.211	49.500	0	1455.20	0	2.4050	0	34.4900	0	27.538	0	1437.769	0	-1e10	8	-1e10	8	-1E+10	1	-1E+10	1	-1E+10	1	-1E+10	1	-1E+10	1	-1E+10	1
4902554	37	C	02/10/2022	14:00	-136.211	49.500	0	1465.10	0	2.3940	0	34.4920	0	27.541	0	1447.517	0	-1e10	8	-1e10	8	-1E+10	1	-1E+10	1	-1E+10	1	-1E+10	1	-1E+10	1	-1E+10	1
4902554	37	C	02/10/2022	14:00	-136.211	49.500	0	1475.40	0	2.3830	0	34.4940	0	27.543	0	1457.658	0	-1e10	8	-1e10	8	-1E+10	1	-1E+10	1	-1E+10	1	-1E+10	1	-1E+10	1	-1E+10	1
4902554	37	C	02/10/2022	14:00	-136.211	49.500	0	1485.30	0	2.3740	0	34.4960	0	27.546	0	1467.404	0	-1e10	8	-1e10	8	-1E+10	1	-1E+10	1	-1E+10	1	-1E+10	1	-1E+10	1	-1E+10	1
4902554	37	C	02/10/2022	14:00	-136.211	49.500	0	1495.50	0	2.3640	0	34.4980	0	27.548	0	1477.446	0	-1e10	8	-1e10	8	-1E+10	1	-1E+10	1	-1E+10	1	-1E+10	1	-1E+10	1	-1E+10	1
4902554	37	C	02/10/2022	14:00	-136.211	49.500	0	1505.70	0	2.3550	0	34.5000	0	27.551	0	1487.486	0	-1e10	8	-1e10	8	-1E+10	1	-1E+10	1	-1E+10	1	-1E+10	1	-1E+10	1	-1E+10	1
4902554	37	C	02/10/2022	14:00	-136.211	49.500	0	1515.70	0	2.3510	0	34.5010	0	27.552	0	1497.330	0	-1e10	8	-1e10	8	-1E+10	1	-1E+10	1	-1E+10	1	-1E+10	1	-1E+10	1	-1E+10	1
4902554	37	C	02/10/2022	14:00	-136.211	49.500	0	1525.60	0	2.3430	0	34.5020	0	27.553	0	1507.075	0	-1e10	8	-1e10	8	-1E+10	1	-1E+10	1	-1E+10	1	-1E+10	1	-1E+10	1	-1E+10	1
4902554	37	C	02/10/2022	14:00	-136.211	49.500	0	1535.80	0	2.3310	0	34.5050	0	27.557	0	1517.115	0	-1e10	8	-1e10	8	-1E+10	1	-1E+10	1	-1E+10	1	-1E+10	1	-1E+10	1	-1E+10	1
4902554	37	C	02/10/2022	14:00	-136.211	49.500	0	1545.50	0	2.3210	0	34.5070	0	27.559	0	1526.661	0	-1e10	8	-1e10	8	-1E+10	1	-1E+10	1	-1E+10	1	-1E+10	1	-1E+10	1	-1E+10	1
4902554	37	C	02/10/2022	14:00	-136.211	49.500	0	1555.20	0	2.3120	0	34.5090	0	27.562	0	1536.208	0	-1e10	8	-1e10	8	-1E+10	1	-1E+10	1	-1E+10	1	-1E+10	1	-1E+10	1	-1E+10	1
4902554	37	C	02/10/2022	14:00	-136.211	49.500	0	1565.60	0	2.3020	0	34.5110	0	27.564	0	1546.443	0	-1e10	8	-1e10	8	-1E+10	1	-1E+10	1	-1E+10	1	-1E+10	1	-1E+10	1	-1E+10	1
4902554	37	C	02/10/2022	14:00	-136.211	49.500	0	1575.70	0	2.2910	0	34.5130	0	27.567	0	1556.382	0	-1e10	8	-1e10	8	-1E+10	1	-1E+10	1	-1E+10	1	-1E+10	1	-1E+10	1	-1E+10	1
4902554	37	C	02/10/2022	14:00	-136.211	49.500	0	1585.50	0	2.2780	0	34.5160	0	27.570	0	1566.026	0	-1e10	8	-1e10	8	-1E+10	1	-1E+10	1	-1E+10	1	-1E+10	1	-1E+10	1	-1E+10	1
4902554	37	C	02/10/2022	14:00	-136.211	49.500	0	1595.40	0	2.2650	0	34.5180	0	27.573	0	1575.768	0	-1e10	8	-1e10	8	-1E+10	1	-1E+10	1	-1E+10	1	-1E+10	1	-1E+10	1	-1E+10	1
4902554	37	C	02/10/2022	14:00	-136.211	49.500	0	1605.40	0	2.2560	0	34.5200	0	27.575	0	1585.607	0	-1e10	8	-1e10	8	-1E+10	1	-1E+10	1	-1E+10	1	-1E+10	1	-1E+10	1	-1E+10	1
4902554	37	C	02/10/2022	14:00	-136.211	49.500	0	1615.40	0	2.2480	0	34.5220	0	27.578	0	1595.446	0	-1e10	8	-1e10	8	-1E+10	1	-1E+10	1	-1E+10	1	-1E+10	1	-1E+10	1	-1E+10	1
4902554	37	C	02/10/2022	14:00	-136.211	49.500	0	1625.40	0	2.2340	0	34.5240	0	27.580	0	1605.285	0	-1e10	8	-1e10	8	-1E+10	1	-1E+10	1	-1E+10	1	-1E+10	1	-1E+10	1	-1E+10	1
4902554	37	C	02/10/2022	14:00	-136.211	49.500	0	1635.60	0	2.2250	0	34.5270	0	27.584	0	1615.320	0	-1e10	8	-1e10	8	-1E+10	1	-1E+10	1	-1E+10	1	-1E+10	1	-1E+10	1	-1E+10	1
4902554	37	C	02/10/2022	14:00	-136.211	49.500	0	1645.80	0	2.2190	0	34.5280	0	27.585	0	1625.354	0	-1e10	8	-1e10	8	-1E+10	1	-1E+10	1	-1E+10	1	-1E+10	1	-1E+10	1	-1E+10	1
4902554	37	C	02/10/2022	14:00	-136.211	49.500	0	1655.50	0	2.2100	0	34.5300	0	27.587	0	1634.896	0	-1e10	8	-1e10	8	-1E+10	1	-1E+10	1	-1E+10	1	-1E+10	1	-1E+10	1	-1E+10	1
4902554	37	C	02/10/2022	14:00	-136.211	49.500	0	1665.10	0	2.1990	0	34.5320	0	27.590	0	1644.339	0	-1e10	8	-1e10	8	-1E+10	1	-1E+10	1	-1E+10	1	-1E+10	1	-1E+10	1	-1E+10	1
4902554	37	C	02/10/2022	14:00	-136.211	49.500	0	1675.30	0	2.1920	0	34.5330	0	27.591	0	1654.373	0	-1e10	8	-1e10	8	-1E+10	1	-1E+10	1	-1E+10	1	-1E+10	1	-1E+10	1	-1E+10	1
4902554	37	C	02/10/2022	14:00	-136.211	49.500	0	1685.40	0	2.1820	0	34.5360	0	27.594	0	1664.307	0	-1e10	8	-1e10	8	-1E+10	1	-1E+10	1	-1E+10	1	-1E+10	1	-1E+10	1	-1E+10	1
4902554	37	C	02/10/2022	14:00	-136.211	49.500	0	1695.00	0	2.1690	0	34.5380	0	27.597	0	1673.749	0	-1e10	8	-1e10	8	-1E+10	1	-1E+10	1	-1E+10	1	-1E+10	1	-1E+10	1	-1E+10	1
4902554	37	C	02/10/2022	14:00	-136.211	49.500	0	1705.10	0	2.1650	0	34.5390	0	27.598	0	1683.682	0	-1e10	8	-1e10	8	-1E+10	1	-1E+10	1	-1E+10	1	-1E+10	1	-1E+10	1	-1E+10	1
4902554	37	C	02/10/2022	14:00	-136.211	49.500	0	1715.30	0	2.1590	0	34.5400	0	27.600	0	1693.713	0	-1e10	8	-1e10	8	-1E+10	1	-1E+10	1	-1E+10	1	-1E+10	1	-1E+10	1	-1E+10	1
4902554	37	C	02/10/2022	14:00	-136.211	49.500	0	1725.60	0	2.1540	0	34.5410	0	27.601	0	1703.842	0	-1e10	8	-1e10	8	-1E+10	1	-1E+10	1	-1E+10	1	-1E+10	1	-1E+10	1	-1E+10	1
4902554	37	C	02/10/2022	14:00	-136.211	49.500	0	1735.70	0	2.1470	0	34.5430	0	27.603	0	1713.774	0	-1e10	8	-1e10	8	-1E+10	1	-1E+10	1	-1E+10	1	-1E+10	1	-1E+10	1	-1E+10	1
4902554	37	C	02/10/2022	14:00	-136.211	49.500	0	1745.40	0	2.1430	0	34.5440	0	27.604	0	1723.312	0	-1e10	8	-1e10	8	-1E+10	1	-1E+10	1	-1E+10	1	-1E+10	1	-1E+10	1	-1E+10	1
4902554	37	C	02/10/2022	14:00	-136.211	49.500	0	1755.30	0	2.1390	0	34.5440	0	27.605	0	1733.047	0	-1e10	8	-1e10	8	-1E+10	1	-1E+10	1	-1E+10	1	-1E+10	1	-1E+10	1	-1E+10	1
4902554	37	C	02/10/2022	14:00	-136.211	49.500	0	1765.40	0	2.1350	0	34.5460	0	27.607	0	1742.977	0	-1e10	8	-1e10	8	-1E+10	1	-1E+10	1	-1E+10	1	-1E+10	1	-1E+10	1	-1E+10	1
4902554	37	C	02/10/2022	14:00	-136.211	49.500	0	1775.30	0	2.1280	0	34.5470	0	27.608	0	1752.710	0	-1e10	8	-1e10	8	-1E+10	1	-1E+10	1	-1E+10	1	-1E+10	1	-1E+10	1	-1E+10	1
4902554	37	C	02/10/2022	14:00	-136.211	49.500	0	1785.10	0	2.1130	0	34.5500	0	27.612	0	1762.345	0	-1e10	8	-1e10	8	-1E+10	1	-1E+10	1	-1E+10	1	-1E+10	1	-1E+10	1	-1E+10	1
4902554	37	C	02/10/2022	14:00	-136.211	49.500	0	1795.30	0	2.1050	0	34.5510	0	27.613	0	1772.373	0	-1e10	8	-1e10	8	-1E+10	1	-1E+10	1	-1E+10	1	-1E+10	1	-1E+10	1	-1E+10	1
4902554	37	C	02/10/2022	14:00	-136.211	49.500	0	1805.20	0	2.1000	0	34.5520	0	27.614	0	1782.105	0	-1e10	8	-1e10	8	-1E+10	1	-1E+10	1	-1E+10	1	-1E+10	1	-1E+10	1	-1E+10	1
4902554	37	C	02/10/2022	14:00	-136.211	49.500	0	1815.20	0	2.0930	0	34.5540	0	27.617	0	1791.934	0	-1e10	8	-1e10	8	-1E+10	1	-1E+10	1	-1E+10	1	-1E+10	1	-1E+10	1	-1E+10	1
4902554	37	C	02/10/2022	14:00	-136.211	49.500	0	1825.10	0	2.0880	0	34.5550	0	27.618	0	1801.666	0	-1e10	8	-1e10	8	-1E+10	1	-1E+10	1	-1E+10	1	-1E+10	1	-1E+10	1	-1E+10	1
4902554	37	C	02/10/2022	14:00	-136.211	49.500	0	1835.00	0	2.0800	0	34.5560	0	27.619	0	1811.396	0	-1e10	8	-1e10	8	-1E+10	1	-1E+10	1	-1E+10	1	-1E+10	1	-1E+10	1	-1E+10	1
4902554	37	C	02/10/2022	14:00	-136.211	49.500	0	1845.40	0	2.0720	0	34.5580	0	27.622	0	1821.618	0	-1e10	8	-1e10	8	-1E+10	1	-1E+10	1	-1E+10	1	-1E+10	1	-1E+10	1	-1E+10	1
4902554	37	C	02/10/2022	14:00	-136.211	49.500	0	1855.80	0	2.0620	0	34.5600	0	27.624	0	1831.839	0	-1e10	8	-1e10	8	-1E+10	1	-1E+10	1	-1E+10	1	-1E+10	1	-1E+10	1	-1E+10	1
4902554	37	C	02/10/2022	14:00	-136.211	49.500	0	1865.70	0	2.0520	0	34.5620	0	27.627	0	1841.569	0	-1e10	8	-1e10	8	-1E+10	1	-1E+10	1	-1E+10	1	-1E+10	1	-1E+10	1	-1E+10	1
4902554	37	C	02/10/2022	14:00	-136.211	49.500	0	1875.50	0	2.0460	0	34.5630	0	27.628	0	1851.199	0	-1e10	8	-1e10	8	-1E+10	1	-1E+10	1	-1E+10	1	-1E+10	1	-1E+10	1	-1E+10	1
4902554	37	C	02/10/2022	14:00	-136.211	49.500	0	1885.40	0	2.0410	0	34.5640	0	27.629	0	1860.928	0	-1e10	8	-1e10	8	-1E+10	1	-1E+10	1	-1E+10	1	-1E+10	1	-1E+10	1	-1E+10	1
4902554	37	C	02/10/2022	14:00	-136.211	49.500	0	1895.30	0	2.0350	0	34.5650	0	27.630	0	1870.656	0	-1e10	8	-1e10	8	-1E+10	1	-1E+10	1	-1E+10	1	-1E+10	1	-1E+10	1	-1E+10	1
4902554	37	C	02/10/2022	14:00	-136.211	49.500	0	1905.40	0	2.0250	0	34.5670	0	27.633	0	1880.580	0	-1e10	8	-1e10	8	-1E+10	1	-1E+10	1	-1E+10	1	-1E+10	1	-1E+10	1	-1E+10	1
4902554	37	C	02/10/2022	14:00	-136.211	49.500	0	1915.30	0	2.0170	0	34.5690	0	27.635	0	1890.307	0	-1e10	8	-1e10	8	-1E+10	1	-1E+10	1	-1E+10	1	-1E+10	1	-1E+10	1	-1E+10	1
4902554	37	C	02/10/2022	14:00	-136.211	49.500	0	1925.10	0	2.0100	0	34.5710	0	27.637	0	1899.935	0	-1e10	8	-1e10	8	-1E+10	1	-1E+10	1	-1E+10	1	-1E+10	1	-1E+10	1	-1E+10	1
4902554	37	C	02/10/2022	14:00	-136.211	49.500	0	1935.20	0	2.0070	0	34.5710	0	27.638	0	1909.858	0	-1e10	8	-1e10	8	-1E+10	1	-1E+10	1	-1E+10	1	-1E+10	1	-1E+10	1	-1E+10	1
4902554	37	C	02/10/2022	14:00	-136.211	49.500	0	1945.60	0	2.0040	0	34.5720	0	27.639	0	1920.075	0	-1e10	8	-1e10	8	-1E+10	1	-1E+10	1	-1E+10	1	-1E+10	1	-1E+10	1	-1E+10	1
4902554	37	C	02/10/2022	14:00	-136.211	49.500	0	1955.80	0	1.9980	0	34.5730	0	27.640	0	1930.095	0	-1e10	8	-1e10	8	-1E+10	1	-1E+10	1	-1E+10	1	-1E+10	1	-1E+10	1	-1E+10	1
4902554	37	C	02/10/2022	14:00	-136.211	49.500	0	1965.60	0	1.9940	0	34.5740	0	27.641	0	1939.721	0	-1e10	8	-1e10	8	-1E+10	1	-1E+10	1	-1E+10	1	-1E+10	1	-1E+10	1	-1E+10	1
4902554	37	C	02/10/2022	14:00	-136.211	49.500	0	1975.40	0	1.9830	0	34.5760	0	27.644	0	1949.348	0	-1e10	8	-1e10	8	-1E+10	1	-1E+10	1	-1E+10	1	-1E+10	1	-1E+10	1	-1E+10	1
4902554	37	C	02/10/2022	14:00	-136.211	49.500	0	1985.30	0	1.9760	0	34.5780	0	27.646	0	1959.072	0	-1e10	8	-1e10	8	-1E+10	1	-1E+10	1	-1E+10	1	-1E+10	1	-1E+10	1	-1E+10	1
4902554	37	C	02/10/2022	14:00	-136.211	49.500	0	1995.20	0	1.9700	0	34.5790	0	27.647	0	1968.795	0	-1e10	8	-1e10	8	-1E+10	1	-1E+10	1	-1E+10	1	-1E+10	1	-1E+10	1	-1E+10	1
4902554	37	C	02/10/2022	14:00	-136.211	49.500	0	2004.20	0	1.9670	0	34.5800	0	27.648	0	1977.634	0	-1e10	8	-1e10	8	-1E+10	1	-1E+10	1	-1E+10	1	-1E+10	1	-1E+10	1	-1E+10	1
4902554	37	C	02/10/2022	14:00	-136.211	49.500	0																										
4902554	38	C	02/20/2022	19:01	-136.180	49.485	0	0.20	0	6.7450	0	32.3500	0	25.366	0	0.198	0	-1e10	8	-1e10	8	-1E+10	1	-1E+10	1	-1E+10	1	-1E+10	1	-1E+10	1	-1E+10	1
4902554	38	C	02/20/2022	19:01	-136.180	49.485	0	0.30	0	6.7470	0	32.3560	0	25.370	0	0.297	0	-1e10	1	-1e10	1	-1E+10	1	-1E+10	1	-1E+10	1	-1E+10	1	-1E+10	1	-1E+10	1
4902554	38	C	02/20/2022	19:01	-136.180	49.485	0	0.40	0	6.7440	0	32.3460	0	25.363	0	0.397	0	-1e10	8	-1e10	8	-1E+10	1	-1E+10	1	-1E+10	1	-1E+10	1	-1E+10	1	-1E+10	1
4902554	38	C	02/20/2022	19:01	-136.180	49.485	0	0.80	0	6.7460	0	32.3430	0	25.360	0	0.793	0	-1e10	8	-1e10	8	-1E+10	1	-1E+10	1	-1E+10	1	-1E+10	1	-1E+10	1	-1E+10	1
4902554	38	C	02/20/2022	19:01	-136.180	49.485	0	1.80	0	6.7450	0	32.3430	0	25.360	0	1.785	0	-1e10	8	-1e10	8	-1E+10	1	-1E+10	1	-1E+10	1	-1E+10	1	-1E+10	1	-1E+10	1
4902554	38	C	02/20/2022	19:01	-136.180	49.485	0	3.10	0	6.7450	0	32.3430	0	25.360	0	3.074	0	-1e10	8	-1e10	8	-1E+10	1	-1E+10	1	-1E+10	1	-1E+10	1	-1E+10	1	-1E+10	1
4902554	38	C	02/20/2022	19:01	-136.180	49.485	0	4.10	0	6.7440	0	32.3440	0	25.361	0	4.065	0	-1e10	8	-1e10	8	-1E+10	1	-1E+10	1	-1E+10	1	-1E+10	1	-1E+10	1	-1E+10	1
4902554	38	C	02/20/2022	19:01	-136.180	49.485	0	4.90	0	6.7420	0	32.3460	0	25.363	0	4.858	0	-1e10	8	-1e10	8	-1E+10	1	-1E+10	1	-1E+10	1	-1E+10	1	-1E+10	1	-1E+10	1
4902554	38	C	02/20/2022	19:01	-136.180	49.485	0	5.90	0	6.7410	0	32.3460	0	25.363	0	5.850	0	-1e10	8	-1e10	8	-1E+10	1	-1E+10	1	-1E+10	1	-1E+10	1	-1E+10	1	-1E+10	1
4902554	38	C	02/20/2022	19:01	-136.180	49.485	0	7.00	0	6.7420	0	32.3460	0	25.363	0	6.940	0	-1e10	8	-1e10	8	-1E+10	1	-1E+10	1	-1E+10	1	-1E+10	1	-1E+10	1	-1E+10	1
4902554	38	C	02/20/2022	19:01	-136.180	49.485	0	8.10	0	6.7410	0	32.3460	0	25.363	0	8.031	0	-1e10	8	-1e10	8	-1E+10	1	-1E+10	1	-1E+10	1	-1E+10	1	-1E+10	1	-1E+10	1
4902554	38	C	02/20/2022	19:01	-136.180	49.485	0	8.90	0	6.7410	0	32.3460	0	25.363	0	8.824	0	-1e10	8	-1e10	8	-1E+10	1	-1E+10	1	-1E+10	1	-1E+10	1	-1E+10	1	-1E+10	1
4902554	38	C	02/20/2022	19:01	-136.180	49.485	0	9.90	0	6.7410	0	32.3460	0	25.363	0	9.815	0	-1e10	8	-1e10	8	-1E+10	1	-1E+10	1	-1E+10	1	-1E+10	1	-1E+10	1	-1E+10	1
4902554	38	C	02/20/2022	19:01	-136.180	49.485	0	10.90	0	6.7400	0	32.3460	0	25.363	0	10.807	0	-1e10	8	-1e10	8	-1E+10	1	-1E+10	1	-1E+10	1	-1E+10	1	-1E+10	1	-1E+10	1
4902554	38	C	02/20/2022	19:01	-136.180	49.485	0	12.10	0	6.7400	0	32.3460	0	25.363	0	11.996	0	-1e10	8	-1e10	8	-1E+10	1	-1E+10	1	-1E+10	1	-1E+10	1	-1E+10	1	-1E+10	1
4902554	38	C	02/20/2022	19:01	-136.180	49.485	0	12.90	0	6.7390	0	32.3460	0	25.363	0	12.790	0	-1e10	8	-1e10	8	-1E+10	1	-1E+10	1	-1E+10	1	-1E+10	1	-1E+10	1	-1E+10	1
4902554	38	C	02/20/2022	19:01	-136.180	49.485	0	14.00	0	6.7390	0	32.3460	0	25.363	0	13.880	0	-1e10	8	-1e10	8	-1E+10	1	-1E+10	1	-1E+10	1	-1E+10	1	-1E+10	1	-1E+10	1
4902554	38	C	02/20/2022	19:01	-136.180	49.485	0	15.20	0	6.7390	0	32.3460	0	25.363	0	15.070	0	-1e10	8	-1e10	8	-1E+10	1	-1E+10	1	-1E+10	1	-1E+10	1	-1E+10	1	-1E+10	1
4902554	38	C	02/20/2022	19:01	-136.180	49.485	0	16.10	0	6.7400	0	32.3460	0	25.363	0	15.962	0	-1e10	8	-1e10	8	-1E+10	1	-1E+10	1	-1E+10	1	-1E+10	1	-1E+10	1	-1E+10	1
4902554	38	C	02/20/2022	19:01	-136.180	49.485	0	17.00	0	6.7400	0	32.3460	0	25.363	0	16.854	0	-1e10	8	-1e10	8	-1E+10	1	-1E+10	1	-1E+10	1	-1E+10	1	-1E+10	1	-1E+10	1
4902554	38	C	02/20/2022	19:01	-136.180	49.485	0	18.30	0	6.7410	0	32.3460	0	25.363	0	18.143	0	-1e10	8	-1e10	8	-1E+10	1	-1E+10	1	-1E+10	1	-1E+10	1	-1E+10	1	-1E+10	1
4902554	38	C	02/20/2022	19:01	-136.180	49.485	0	19.10	0	6.7400	0	32.3460	0	25.363	0	18.936	0	-1e10	8	-1e10	8	-1E+10	1	-1E+10	1	-1E+10	1	-1E+10	1	-1E+10	1	-1E+10	1
4902554	38	C	02/20/2022	19:01	-136.180	49.485	0	19.90	0	6.7400	0	32.3460	0	25.363	0	19.729	0	-1e10	8	-1e10	8	-1E+10	1	-1E+10	1	-1E+10	1	-1E+10	1	-1E+10	1	-1E+10	1
4902554	38	C	02/20/2022	19:01	-136.180	49.485	0	21.20	0	6.7410	0	32.3460	0	25.363	0	21.018	0	-1e10	8	-1e10	8	-1E+10	1	-1E+10	1	-1E+10	1	-1E+10	1	-1E+10	1	-1E+10	1
4902554	38	C	02/20/2022	19:01	-136.180	49.485	0	22.00	0	6.7410	0	32.3460	0	25.363	0	21.811	0	-1e10	8	-1e10	8	-1E+10	1	-1E+10	1	-1E+10	1	-1E+10	1	-1E+10	1	-1E+10	1
4902554	38	C	02/20/2022	19:01	-136.180	49.485	0	23.10	0	6.7410	0	32.3460	0	25.363	0	22.902	0	-1e10	8	-1e10	8	-1E+10	1	-1E+10	1	-1E+10	1	-1E+10	1	-1E+10	1	-1E+10	1
4902554	38	C	02/20/2022	19:01	-136.180	49.485	0	24.20	0	6.7420	0	32.3460	0	25.363	0	23.992	0	-1e10	8	-1e10	8	-1E+10	1	-1E+10	1	-1E+10	1	-1E+10	1	-1E+10	1	-1E+10	1
4902554	38	C	02/20/2022	19:01	-136.180	49.485	0	25.20	0	6.7420	0	32.3460	0	25.363	0	24.984	0	-1e10	8	-1e10	8	-1E+10	1	-1E+10	1	-1E+10	1	-1E+10	1	-1E+10	1	-1E+10	1
4902554	38	C	02/20/2022	19:01	-136.180	49.485	0	25.90	0	6.7420	0	32.3460	0	25.363	0	25.678	0	-1e10	8	-1e10	8	-1E+10	1	-1E+10	1	-1E+10	1	-1E+10	1	-1E+10	1	-1E+10	1
4902554	38	C	02/20/2022	19:01	-136.180	49.485	0	27.00	0	6.7410	0	32.3460	0	25.363	0	26.768	0	-1e10	8	-1e10	8	-1E+10	1	-1E+10	1	-1E+10	1	-1E+10	1	-1E+10	1	-1E+10	1
4902554	38	C	02/20/2022	19:01	-136.180	49.485	0	28.10	0	6.7420	0	32.3460	0	25.363	0	27.859	0	-1e10	8	-1e10	8	-1E+10	1	-1E+10	1	-1E+10	1	-1E+10	1	-1E+10	1	-1E+10	1
4902554	38	C	02/20/2022	19:01	-136.180	49.485	0	29.10	0	6.7420	0	32.3460	0	25.363	0	28.850	0	-1e10	8	-1e10	8	-1E+10	1	-1E+10	1	-1E+10	1	-1E+10	1	-1E+10	1	-1E+10	1
4902554	38	C	02/20/2022	19:01	-136.180	49.485	0	29.90	0	6.7420	0	32.3460	0	25.363	0	29.643	0	-1e10	8	-1e10	8	-1E+10	1	-1E+10	1	-1E+10	1	-1E+10	1	-1E+10	1	-1E+10	1
4902554	38	C	02/20/2022	19:01	-136.180	49.485	0	30.70	0	6.7420	0	32.3460	0	25.363	0	30.436	0	-1e10	8	-1e10	8	-1E+10	1	-1E+10	1	-1E+10	1	-1E+10	1	-1E+10	1	-1E+10	1
4902554	38	C	02/20/2022	19:01	-136.180	49.485	0	31.80	0	6.7420	0	32.3460	0	25.363	0	31.526	0	-1e10	8	-1e10	8	-1E+10	1	-1E+10	1	-1E+10	1	-1E+10	1	-1E+10	1	-1E+10	1
4902554	38	C	02/20/2022	19:01	-136.180	49.485	0	33.00	0	6.7420	0	32.3460	0	25.363	0	32.716	0	-1e10	8	-1e10	8	-1E+10	1	-1E+10	1	-1E+10	1	-1E+10	1	-1E+10	1	-1E+10	1
4902554	38	C	02/20/2022	19:01	-136.180	49.485	0	34.10	0	6.7420	0	32.3460	0	25.363	0	33.806	0	-1e10	8	-1e10	8	-1E+10	1	-1E+10	1	-1E+10	1	-1E+10	1	-1E+10	1	-1E+10	1
4902554	38	C	02/20/2022	19:01	-136.180	49.485	0	35.00	0	6.7420	0	32.3460	0	25.363	0	34.699	0	-1e10	8	-1e10	8	-1E+10	1	-1E+10	1	-1E+10	1	-1E+10	1	-1E+10	1	-1E+10	1
4902554	38	C	02/20/2022	19:01	-136.180	49.485	0	35.80	0	6.7420	0	32.3460	0	25.363	0	35.492	0	-1e10	8	-1e10	8	-1E+10	1	-1E+10	1	-1E+10	1	-1E+10	1	-1E+10	1	-1E+10	1
4902554	38	C	02/20/2022	19:01	-136.180	49.485	0	36.90	0	6.7420	0	32.3460	0	25.363	0	36.582	0	-1e10	8	-1e10	8	-1E+10	1	-1E+10	1	-1E+10	1	-1E+10	1	-1E+10	1	-1E+10	1
4902554	38	C	02/20/2022	19:01	-136.180	49.485	0	38.10	0	6.7420	0	32.3460	0	25.363	0	37.772	0	-1e10	8	-1e10	8	-1E+10	1	-1E+10	1	-1E+10	1	-1E+10	1	-1E+10	1	-1E+10	1
4902554	38	C	02/20/2022	19:01	-136.180	49.485	0	38.90	0	6.7420	0	32.3460	0	25.363	0	38.565	0	-1e10	8	-1e10	8	-1E+10	1	-1E+10	1	-1E+10	1	-1E+10	1	-1E+10	1	-1E+10	1
4902554	38	C	02/20/2022	19:01	-136.180	49.485	0	39.70	0	6.7420	0	32.3460	0	25.363	0	39.358	0	-1e10	8	-1e10	8	-1E+10	1	-1E+10	1	-1E+10	1	-1E+10	1	-1E+10	1	-1E+10	1
4902554	38	C	02/20/2022	19:01	-136.180	49.485	0	40.80	0	6.7420	0	32.3460	0	25.363	0	40.448	0	-1e10	8	-1e10	8	-1E+10	1	-1E+10	1	-1E+10	1	-1E+10	1	-1E+10	1	-1E+10	1
4902554	38	C	02/20/2022	19:01	-136.180	49.485	0	41.80	0	6.7420	0	32.3460	0	25.363	0	41.439	0	-1e10	8	-1e10	8	-1E+10	1	-1E+10	1	-1E+10	1	-1E+10	1	-1E+10	1	-1E+10	1
4902554	38	C	02/20/2022	19:01	-136.180	49.485	0	42.90	0	6.7420	0	32.3460	0	25.363	0	42.530	0	-1e10	8	-1e10	8	-1E+10	1	-1E+10	1	-1E+10	1	-1E+10	1	-1E+10	1	-1E+10	1
4902554	38	C	02/20/2022	19:01	-136.180	49.485	0	44.10	0	6.7420	0	32.3460	0	25.363	0	43.719	0	-1e10	8	-1e10	8	-1E+10	1	-1E+10	1	-1E+10	1	-1E+10	1	-1E+10	1	-1E+10	1
4902554	38	C	02/20/2022	19:01	-136.180	49.485	0	44.90	0	6.7420	0	32.3460	0	25.363	0	44.512	0	-1e10	8	-1e10	8	-1E+10	1	-1E+10	1	-1E+10	1	-1E+10	1	-1E+10	1	-1E+10	1
4902554	38	C	02/20/2022	19:01	-136.180	49.485	0	45.80	0	6.7420	0	32.3460	0	25.363	0	45.404	0	-1e10	8	-1e10	8	-1E+10	1	-1E+10	1	-1E+10	1	-1E+10	1	-1E+10	1	-1E+10	1
4902554	38	C	02/20/2022	19:01	-136.180	49.485	0	47.10	0	6.7430	0	32.3460	0	25.363	0	46.693	0	-1e10	8	-1e10	8	-1E+10	1	-1E+10	1	-1E+10	1	-1E+10	1	-1E+10	1	-1E+10	1
4902554	38	C	02/20/2022	19:01	-136.180	49.485	0	47.90	0	6.7420	0	32.3460	0	25.363	0	47.486	0	-1e10	8	-1e10	8	-1E+10	1	-1E+10	1	-1E+10	1	-1E+10	1	-1E+10	1	-1E+10	1
4902554	38	C	02/20/2022	19:01	-136.180	49.485	0	48.80	0	6.7430	0	32.3460	0	25.363	0	48.378	0	-1e10	8	-1e10	8	-1E+10	1	-1E+10	1	-1E+10	1	-1E+10	1	-1E+10	1	-1E+10	1
4902554	38	C	02/20/2022	19:01	-136.180	49.485	0	49.90	0	6.7430	0	32.3460	0	25.363	0	49.469	0	-1e10	8	-1e10	8	-1E+10	1	-1E+10	1	-1E+10	1	-1E+10	1	-1E+10	1	-1E+10	1
4902554	38	C	02/20/2022	19:01	-136.180	49.485	0	51.00	0	6.7420	0	32.3460	0	25.363	0	50.559	0	-1e10	8	-1e10	8	-1E+10	1	-1E+10	1	-1E+10	1	-1E+10	1	-1E+10	1	-1E+10	1
4902554	38	C	02/20/2022	19:01	-136.180	49.485	0	52.00	0	6.7420	0	32.3460	0	25.363	0	51.550	0	-1e10	8	-1e10	8	-1E+10	1	-1E+10	1	-1E+10	1	-1E+10	1	-1E+10	1	-1E+10	1
4902554	38	C	02/20/2022	19:01	-136.180	49.485	0	53.10	0	6.7410	0	32.3460	0	25.364	0	52.640	0	-1e10	8	-1e10	8	-1E+10	1	-1E+10	1	-1E+10	1	-1E+10	1	-1E+10	1	-1E+10	1
4902554	38	C	02/20/2022	19:01	-136.180	49.485	0	54.10	0	6.7410	0	32.3460	0	25.364	0	53.632	0	-1e10	8	-1e10	8	-1E+10	1	-1E+10	1	-1E+10	1	-1E+10	1	-1E+10	1	-1E+10	1
4902554	38	C	02/20/2022	19:01	-136.180	49.485	0	55.10	0	6.7410	0	32.3460	0	25.364	0	54.623	0	-1e10	8	-1e10	8	-1E+10	1	-1E+10	1	-1E+10	1	-1E+10	1	-1E+10	1	-1E+10	1
4902554	38	C	02/20/2022	19:01	-136.180	49.485	0	56.00	0	6.7410	0	32.3460	0	25.364	0	55.515	0	-1e10	8	-1e10	8	-1E+10	1	-1E+10	1	-1E+10	1	-1E+10	1	-1E+10	1	-1E+10	1
4902554	38	C	02/20/2022	19:01	-136.180	49.485	0	56.70	0	6.7410	0	32.3460	0	25.364	0	56.209	0	-1e10	8	-1e10	8	-1E+10	1	-1E+10	1	-1E+10	1	-1E+10	1	-1E+10	1	-1E+10	1
4902554	38	C	02/20/2022	19:01	-136.180	49.485	0	57.80	0	6.7410	0	32.3460	0	25.364	0	57.299	0	-1e10	8	-1e10	8	-1E+10	1	-1E+10	1	-1E+10	1	-1E+10	1	-1E+10	1	-1E+10	1
4902554	38	C	02/20/2022	19:01	-136.180	49.485	0	58.80	0	6.7420	0	32.3460	0	25.363	0	58.290	0	-1e10	8	-1e10	8	-1E+10	1	-1E+10	1	-1E+10	1	-1E+10	1	-1E+10	1	-1E+10	1
4902554	38	C	02/20/2022	19:01	-136.180	49.485	0	59.90	0	6.7420	0	32.3460	0	25.363	0	59.381	0	-1e10	8	-1e10	8	-1E+10	1	-1E+10	1	-1E+10	1	-1E+10	1	-1E+10	1	-1E+10	1
4902554	38	C	02/20/2022	19:01	-136.180	49.485	0	61.00	0	6.7420	0	32.3460	0	25.363	0	60.471	0	-1e10	8	-1e10	8	-1E+10	1	-1E+10	1	-1E+10	1	-1E+10	1	-1E+10	1	-1E+10	1
4902554	38	C	02/20/2022	19:01	-136.180	49.485	0	62.10	0	6.7390	0	32.3470	0	25.365	0	61.561	0	-1e10	8	-1e10	8	-1E+10	1	-1E+10	1	-1E+10	1	-1E+10	1	-1E+10	1	-1E+10	1
4902554	38	C	02/20/2022	19:01	-136.180	49.485	0	62.90	0	6.7400	0	32.3470	0	25.365	0	62.354	0	-1e10	8	-1e10	8	-1E+10	1	-1E+10	1	-1E+10	1	-1E+10	1	-1E+10	1	-1E+10	1
4902554	38	C	02/20/2022	19:01	-136.180	49.485	0	63.70	0	6.7410	0	32.3470	0	25.364	0	63.147	0	-1e10	8	-1e10	8	-1E+10	1	-1E+10	1	-1E+10	1	-1E+10	1	-1E+10	1	-1E+10	1
4902554	38	C	02/20/2022	19:01	-136.180	49.485	0	64.80	0	6.7400	0	32.3470	0	25.365	0	64.237	0	-1e10	8	-1e10	8	-1E+10	1	-1E+10	1	-1E+10	1	-1E+10	1	-1E+10	1	-1E+10	1
4902554	38	C	02/20/2022	19:01	-136.180	49.485	0	65.80	0	6.7390	0	32.3470	0	25.365	0	65.229	0	-1e10	8	-1e10	8	-1E+10	1	-1E+10	1	-1E+10	1	-1E+10	1	-1E+10	1	-1E+10	1
4902554	38	C	02/20/2022	19:01	-136.180	49.485	0	66.80	0	6.7400	0	32.3470	0	25.365	0	66.220	0	-1e10	8	-1e10	8	-1E+10	1	-1E+10	1	-1E+10	1	-1E+10	1	-1E+10	1	-1E+10	1
4902554	38	C	02/20/2022	19:01	-136.180	49.485	0	68.00	0	6.7420	0	32.3470	0	25.364	0	67.409	0	-1e10	8	-1e10	8	-1E+10	1	-1E+10	1	-1E+10	1	-1E+10	1	-1E+10	1	-1E+10	1
4902554	38	C	02/20/2022	19:01	-136.180	49.485	0	68.70	0	6.7400	0	32.3460	0	25.364	0	68.103	0	-1e10	8	-1e10	8	-1E+10	1	-1E+10	1	-1E+10	1	-1E+10	1	-1E+10	1	-1E+10	1
4902554	38	C	02/20/2022	19:01	-136.180	49.485	0	69.90	0	6.7390	0	32.3460	0	25.364	0	69.292	0	-1e10	8	-1e10	8	-1E+10	1	-1E+10	1	-1E+10	1	-1E+10	1	-1E+10	1	-1E+10	1
4902554	38	C	02/20/2022	19:01	-136.180	49.485	0	71.30	0	6.7360	0	32.3480	0	25.366	0	70.680	0	-1e10	8	-1e10	8	-1E+10	1	-1E+10	1	-1E+10	1	-1E+10	1	-1E+10	1	-1E+10	1
4902554	38	C	02/20/2022	19:01	-136.180	49.485	0	72.00	0	6.7370	0	32.3470	0	25.365	0	71.374	0	-1e10	8	-1e10	8	-1E+10	1	-1E+10	1	-1E+10	1	-1E+10	1	-1E+10	1	-1E+10	1
4902554	38	C	02/20/2022	19:01	-136.180	49.485	0	73.20	0	6.7360	0	32.3480	0	25.366	0	72.563	0	-1e10	8	-1e10	8	-1E+10	1	-1E+10	1	-1E+10	1	-1E+10	1	-1E+10	1	-1E+10	1
4902554	38	C	02/20/2022	19:01	-136.180	49.485	0	74.10	0	6.7330	0	32.3490	0	25.367	0	73.455	0	-1e10	8	-1e10	8	-1E+10	1	-1E+10	1	-1E+10	1	-1E+10	1	-1E+10	1	-1E+10	1
4902554	38	C	02/20/2022	19:01	-136.180	49.485	0	75.00	0	6.7340	0	32.3490	0	25.367	0	74.347	0	-1e10	8	-1e10	8	-1E+10	1	-1E+10	1	-1E+10	1	-1E+10	1	-1E+10	1	-1E+10	1
4902554	38	C	02/20/2022	19:01	-136.180	49.485	0	75.90	0	6.7310	0	32.3490	0	25.367	0	75.239	0	-1e10	8	-1e10	8	-1E+10	1	-1E+10	1	-1E+10	1	-1E+10	1	-1E+10	1	-1E+10	1
4902554	38	C	02/20/2022	19:01	-136.180	49.485	0	77.20	0	6.7190	0	32.3530	0	25.372	0	76.527	0	-1e10	8	-1e10	8	-1E+10	1	-1E+10	1	-1E+10	1	-1E+10	1	-1E+10	1	-1E+10	1
4902554	38	C	02/20/2022	19:01	-136.180	49.485	0	78.10	0	6.7120	0	32.3540	0	25.374	0	77.419	0	-1e10	8	-1e10	8	-1E+10	1	-1E+10	1	-1E+10	1	-1E+10	1	-1E+10	1	-1E+10	1
4902554	38	C	02/20/2022	19:01	-136.180	49.485	0	78.90	0	6.7010	0	32.3570	0	25.378	0	78.212	0	-1e10	8	-1e10	8	-1E+10	1	-1E+10	1	-1E+10	1	-1E+10	1	-1E+10	1	-1E+10	1
4902554	38	C	02/20/2022	19:01	-136.180	49.485	0	80.10	0	6.6670	0	32.3670	0	25.390	0	79.402	0	-1e10	8	-1e10	8	-1E+10	1	-1E+10	1	-1E+10	1	-1E+10	1	-1E+10	1	-1E+10	1
4902554	38	C	02/20/2022	19:01	-136.180	49.485	0	81.00	0	6.6480	0	32.3680	0	25.393	0	80.294	0	-1e10	8	-1e10	8	-1E+10	1	-1E+10	1	-1E+10	1	-1E+10	1	-1E+10	1	-1E+10	1
4902554	38	C	02/20/2022	19:01	-136.180	49.485	0	82.20	0	6.6370	0	32.3690	0	25.395	0	81.483	0	-1e10	8	-1e10	8	-1E+10	1	-1E+10	1	-1E+10	1	-1E+10	1	-1E+10	1	-1E+10	1
4902554	38	C	02/20/2022	19:01	-136.180	49.485	0	82.90	0	6.6300	0	32.3700	0	25.397	0	82.177	0	-1e10	8	-1e10	8	-1E+10	1	-1E+10	1	-1E+10	1	-1E+10	1	-1E+10	1	-1E+10	1
4902554	38	C	02/20/2022	19:01	-136.180	49.485	0	84.00	0	6.5930	0	32.3800	0	25.410	0	83.267	0	-1e10	8	-1e10	8	-1E+10	1	-1E+10	1	-1E+10	1	-1E+10	1	-1E+10	1	-1E+10	1
4902554	38	C	02/20/2022	19:01	-136.180	49.485	0	85.00	0	6.5750	0	32.3860	0	25.417	0	84.258	0	-1e10	8	-1e10	8	-1E+10	1	-1E+10	1	-1E+10	1	-1E+10	1	-1E+10	1	-1E+10	1
4902554	38	C	02/20/2022	19:01	-136.180	49.485	0	86.00	0	6.5730	0	32.3860	0	25.417	0	85.249	0	-1e10	8	-1e10	8	-1E+10	1	-1E+10	1	-1E+10	1	-1E+10	1	-1E+10	1	-1E+10	1
4902554	38	C	02/20/2022	19:01	-136.180	49.485	0	87.10	0	6.5600	0	32.3900	0	25.422	0	86.339	0	-1e10	8	-1e10	8	-1E+10	1	-1E+10	1	-1E+10	1	-1E+10	1	-1E+10	1	-1E+10	1
4902554	38	C	02/20/2022	19:01	-136.180	49.485	0	87.90	0	6.5660	0	32.4000	0	25.429	0	87.132	0	-1e10	8	-1e10	8	-1E+10	1	-1E+10	1	-1E+10	1	-1E+10	1	-1E+10	1	-1E+10	1
4902554	38	C	02/20/2022	19:01	-136.180	49.485	0	88.70	0	6.5720	0	32.4010	0	25.429	0	87.925	0	-1e10	8	-1e10	8	-1E+10	1	-1E+10	1	-1E+10	1	-1E+10	1	-1E+10	1	-1E+10	1
4902554	38	C	02/20/2022	19:01	-136.180	49.485	0	89.80	0	6.5740	0	32.4020	0	25.430	0	89.015	0	-1e10	8	-1e10	8	-1E+10	1	-1E+10	1	-1E+10	1	-1E+10	1	-1E+10	1	-1E+10	1
4902554	38	C	02/20/2022	19:01	-136.180	49.485	0	91.00	0	6.5720	0	32.4100	0	25.436	0	90.204	0	-1e10	8	-1e10	8	-1E+10	1	-1E+10	1	-1E+10	1	-1E+10	1	-1E+10	1	-1E+10	1
4902554	38	C	02/20/2022	19:01	-136.180	49.485	0	92.10	0	6.5250	0	32.4270	0	25.456	0	91.294	0	-1e10	8	-1e10	8	-1E+10	1	-1E+10	1	-1E+10	1	-1E+10	1	-1E+10	1	-1E+10	1
4902554	38	C	02/20/2022	19:01	-136.180	49.485	0	93.00	0	6.4300	0	32.4410	0	25.479	0	92.186	0	-1e10	8	-1e10	8	-1E+10	1	-1E+10	1	-1E+10	1	-1E+10	1	-1E+10	1	-1E+10	1
4902554	38	C	02/20/2022	19:01	-136.180	49.485	0	93.90	0	6.3950	0	32.4600	0	25.498	0	93.078	0	-1e10	8	-1e10	8	-1E+10	1	-1E+10	1	-1E+10	1	-1E+10	1	-1E+10	1	-1E+10	1
4902554	38	C	02/20/2022	19:01	-136.180	49.485	0	95.10	0	6.4230	0	32.4860	0	25.515	0	94.267	0	-1e10	8	-1e10	8	-1E+10	1	-1E+10	1	-1E+10	1	-1E+10	1	-1E+10	1	-1E+10	1
4902554	38	C	02/20/2022	19:01	-136.180	49.485	0	95.90	0	6.4250	0	32.5080	0	25.532	0	95.060	0	-1e10	8	-1e10	8	-1E+10	1	-1E+10	1	-1E+10	1	-1E+10	1	-1E+10	1	-1E+10	1
4902554	38	C	02/20/2022	19:01	-136.180	49.485	0	97.00	0	6.3900	0	32.5440	0	25.565	0	96.150	0	-1e10	8	-1e10	8	-1E+10	1	-1E+10	1	-1E+10	1	-1E+10	1	-1E+10	1	-1E+10	1
4902554	38	C	02/20/2022	19:01	-136.180	49.485	0	98.00	0	6.3160	0	32.6220	0	25.636	0	97.141	0	-1e10	8	-1e10	8	-1E+10	1	-1E+10	1	-1E+10	1	-1E+10	1	-1E+10	1	-1E+10	1
4902554	38	C	02/20/2022	19:01	-136.180	49.485	0	99.20	0	6.2540	0	32.6970	0	25.703	0	98.331	0	-1e10	8	-1e10	8	-1E+10	1	-1E+10	1	-1E+10	1	-1E+10	1	-1E+10	1	-1E+10	1
4902554	38	C	02/20/2022	19:01	-136.180	49.485	0	99.80	0	6.2360	0	32.7150	0	25.719	0	98.925	0	-1e10	8	-1e10	8	-1E+10	1	-1E+10	1	-1E+10	1	-1E+10	1	-1E+10	1	-1E+10	1
4902554	38	C	02/20/2022	19:01	-136.180	49.485	0	100.90	0	6.2160	0	32.7450	0	25.746	0	100.015	0	-1e10	8	-1e10	8	-1E+10	1	-1E+10	1	-1E+10	1	-1E+10	1	-1E+10	1	-1E+10	1
4902554	38	C	02/20/2022	19:01	-136.180	49.485	0	102.10	0	6.2190	0	32.8000	0	25.789	0	101.204	0	-1e10	8	-1e10	8	-1E+10	1	-1E+10	1	-1E+10	1	-1E+10	1	-1E+10	1	-1E+10	1
4902554	38	C	02/20/2022	19:01	-136.180	49.485	0	103.10	0	6.1350	0	32.8350	0	25.827	0	102.195	0	-1e10	8	-1e10	8	-1E+10	1	-1E+10	1	-1E+10	1	-1E+10	1	-1E+10	1	-1E+10	1
4902554	38	C	02/20/2022	19:01	-136.180	49.485	0	104.00	0	6.1190	0	32.8510	0	25.841	0	103.087	0	-1e10	8	-1e10	8	-1E+10	1	-1E+10	1	-1E+10	1	-1E+10	1	-1E+10	1	-1E+10	1
4902554	38	C	02/20/2022	19:01	-136.180	49.485	0	104.80	0	6.1090	0	32.8870	0	25.871	0	103.880	0	-1e10	8	-1e10	8	-1E+10	1	-1E+10	1	-1E+10	1	-1E+10	1	-1E+10	1	-1E+10	1
4902554	38	C	02/20/2022	19:01	-136.180	49.485	0	106.00	0	6.0940	0	32.9120	0	25.893	0	105.069	0	-1e10	8	-1e10	8	-1E+10	1	-1E+10	1	-1E+10	1	-1E+10	1	-1E+10	1	-1E+10	1
4902554	38	C	02/20/2022	19:01	-136.180	49.485	0	106.90	0	6.0910	0	32.9180	0	25.898	0	105.961	0	-1e10	8	-1e10	8	-1E+10	1	-1E+10	1	-1E+10	1	-1E+10	1	-1E+10	1	-1E+10	1
4902554	38	C	02/20/2022	19:01	-136.180	49.485	0	107.90	0	6.0880	0	32.9260	0	25.904	0	106.952	0	-1e10	8	-1e10	8	-1E+10	1	-1E+10	1	-1E+10	1	-1E+10	1	-1E+10	1	-1E+10	1
4902554	38	C	02/20/2022	19:01	-136.180	49.485	0	108.80	0	6.0860	0	32.9360	0	25.913	0	107.844	0	-1e10	8	-1e10	8	-1E+10	1	-1E+10	1	-1E+10	1	-1E+10	1	-1E+10	1	-1E+10	1
4902554	38	C	02/20/2022	19:01	-136.180	49.485	0	109.80	0	6.0810	0	32.9580	0	25.931	0	108.835	0	-1e10	8	-1e10	8	-1E+10	1	-1E+10	1	-1E+10	1	-1E+10	1	-1E+10	1	-1E+10	1
4902554	38	C	02/20/2022	19:01	-136.180	49.485	0	110.80	0	6.0770	0	32.9760	0	25.945	0	109.826	0	-1e10	8	-1e10	8	-1E+10	1	-1E+10	1	-1E+10	1	-1E+10	1	-1E+10	1	-1E+10	1
4902554	38	C	02/20/2022	19:01	-136.180	49.485	0	111.80	0	6.0720	0	33.0290	0	25.988	0	110.817	0	-1e10	8	-1e10	8	-1E+10	1	-1E+10	1	-1E+10	1	-1E+10	1	-1E+10	1	-1E+10	1
4902554	38	C	02/20/2022	19:01	-136.180	49.485	0	112.90	0	6.0660	0	33.0620	0	26.015	0	111.907	0	-1e10	8	-1e10	8	-1E+10	1	-1E+10	1	-1E+10	1	-1E+10	1	-1E+10	1	-1E+10	1
4902554	38	C	02/20/2022	19:01	-136.180	49.485	0	113.90	0	6.0580	0	33.0880	0	26.036	0	112.898	0	-1e10	8	-1e10	8	-1E+10	1	-1E+10	1	-1E+10	1	-1E+10	1	-1E+10	1	-1E+10	1
4902554	38	C	02/20/2022	19:01	-136.180	49.485	0	115.10	0	6.0510	0	33.1150	0	26.058	0	114.087	0	-1e10	8	-1e10	8	-1E+10	1	-1E+10	1	-1E+10	1	-1E+10	1	-1E+10	1	-1E+10	1
4902554	38	C	02/20/2022	19:01	-136.180	49.485	0	115.80	0	6.0490	0	33.1280	0	26.069	0	114.780	0	-1e10	8	-1e10	8	-1E+10	1	-1E+10	1	-1E+10	1	-1E+10	1	-1E+10	1	-1E+10	1
4902554	38	C	02/20/2022	19:01	-136.180	49.485	0	117.00	0	6.0460	0	33.1510	0	26.087	0	115.970	0	-1e10	8	-1e10	8	-1E+10	1	-1E+10	1	-1E+10	1	-1E+10	1	-1E+10	1	-1E+10	1
4902554	38	C	02/20/2022	19:01	-136.180	49.485	0	118.20	0	6.0450	0	33.1720	0	26.104	0	117.159	0	-1e10	8	-1e10	8	-1E+10	1	-1E+10	1	-1E+10	1	-1E+10	1	-1E+10	1	-1E+10	1
4902554	38	C	02/20/2022	19:01	-136.180	49.485	0	119.00	0	6.0460	0	33.1940	0	26.121	0	117.951	0	-1e10	8	-1e10	8	-1E+10	1	-1E+10	1	-1E+10	1	-1E+10	1	-1E+10	1	-1E+10	1
4902554	38	C	02/20/2022	19:01	-136.180	49.485	0	119.90	0	6.0490	0	33.2770	0	26.187	0	118.843	0	-1e10	8	-1e10	8	-1E+10	1	-1E+10	1	-1E+10	1	-1E+10	1	-1E+10	1	-1E+10	1
4902554	38	C	02/20/2022	19:01	-136.180	49.485	0	120.90	0	6.0490	0	33.2900	0	26.197	0	119.834	0	-1e10	8	-1e10	8	-1E+10	1	-1E+10	1	-1E+10	1	-1E+10	1	-1E+10	1	-1E+10	1
4902554	38	C	02/20/2022	19:01	-136.180	49.485	0	121.80	0	6.0490	0	33.3050	0	26.209	0	120.726	0	-1e10	8	-1e10	8	-1E+10	1	-1E+10	1	-1E+10	1	-1E+10	1	-1E+10	1	-1E+10	1
4902554	38	C	02/20/2022	19:01	-136.180	49.485	0	122.80	0	6.0490	0	33.3060	0	26.210	0	121.717	0	-1e10	8	-1e10	8	-1E+10	1	-1E+10	1	-1E+10	1	-1E+10	1	-1E+10	1	-1E+10	1
4902554	38	C	02/20/2022	19:01	-136.180	49.485	0	123.80	0	6.0500	0	33.3080	0	26.211	0	122.708	0	-1e10	8	-1e10	8	-1E+10	1	-1E+10	1	-1E+10	1	-1E+10	1	-1E+10	1	-1E+10	1
4902554	38	C	02/20/2022	19:01	-136.180	49.485	0	124.70	0	6.0500	0	33.3140	0	26.216	0	123.599	0	-1e10	8	-1e10	8	-1E+10	1	-1E+10	1	-1E+10	1	-1E+10	1	-1E+10	1	-1E+10	1
4902554	38	C	02/20/2022	19:01	-136.180	49.485	0	125.70	0	6.0500	0	33.3260	0	26.225	0	124.590	0	-1e10	8	-1e10	8	-1E+10	1	-1E+10	1	-1E+10	1	-1E+10	1	-1E+10	1	-1E+10	1
4902554	38	C	02/20/2022	19:01	-136.180	49.485	0	126.60	0	6.0500	0	33.3320	0	26.230	0	125.482	0	-1e10	8	-1e10	8	-1E+10	1	-1E+10	1	-1E+10	1	-1E+10	1	-1E+10	1	-1E+10	1
4902554	38	C	02/20/2022	19:01	-136.180	49.485	0	127.90	0	6.0500	0	33.3490	0	26.243	0	126.770	0	-1e10	8	-1e10	8	-1E+10	1	-1E+10	1	-1E+10	1	-1E+10	1	-1E+10	1	-1E+10	1
4902554	38	C	02/20/2022	19:01	-136.180	49.485	0	129.40	0	6.0500	0	33.3960	0	26.281	0	128.256	0	-1e10	8	-1e10	8	-1E+10	1	-1E+10	1	-1E+10	1	-1E+10	1	-1E+10	1	-1E+10	1
4902554	38	C	02/20/2022	19:01	-136.180	49.485	0	130.30	0	6.0470	0	33.4290	0	26.307	0	129.148	0	-1e10	8	-1e10	8	-1E+10	1	-1E+10	1	-1E+10	1	-1E+10	1	-1E+10	1	-1E+10	1
4902554	38	C	02/20/2022	19:01	-136.180	49.485	0	131.30	0	6.0420	0	33.4570	0	26.330	0	130.139	0	-1e10	8	-1e10	8	-1E+10	1	-1E+10	1	-1E+10	1	-1E+10	1	-1E+10	1	-1E+10	1
4902554	38	C	02/20/2022	19:01	-136.180	49.485	0	132.30	0	6.0370	0	33.4780	0	26.347	0	131.130	0	-1e10	8	-1e10	8	-1E+10	1	-1E+10	1	-1E+10	1	-1E+10	1	-1E+10	1	-1E+10	1
4902554	38	C	02/20/2022	19:01	-136.180	49.485	0	133.40	0	6.0350	0	33.4890	0	26.356	0	132.220	0	-1e10	8	-1e10	8	-1E+10	1	-1E+10	1	-1E+10	1	-1E+10	1	-1E+10	1	-1E+10	1
4902554	38	C	02/20/2022	19:01	-136.180	49.485	0	134.40	0	6.0300	0	33.5020	0	26.367	0	133.211	0	-1e10	8	-1e10	8	-1E+10	1	-1E+10	1	-1E+10	1	-1E+10	1	-1E+10	1	-1E+10	1
4902554	38	C	02/20/2022	19:01	-136.180	49.485	0	135.40	0	6.0300	0	33.5030	0	26.368	0	134.202	0	-1e10	8	-1e10	8	-1E+10	1	-1E+10	1	-1E+10	1	-1E+10	1	-1E+10	1	-1E+10	1
4902554	38	C	02/20/2022	19:01	-136.180	49.485	0	136.50	0	6.0300	0	33.5040	0	26.368	0	135.291	0	-1e10	8	-1e10	8	-1E+10	1	-1E+10	1	-1E+10	1	-1E+10	1	-1E+10	1	-1E+10	1
4902554	38	C	02/20/2022	19:01	-136.180	49.485	0	137.60	0	6.0260	0	33.5180	0	26.380	0	136.381	0	-1e10	8	-1e10	8	-1E+10	1	-1E+10	1	-1E+10	1	-1E+10	1	-1E+10	1	-1E+10	1
4902554	38	C	02/20/2022	19:01	-136.180	49.485	0	138.60	0	6.0230	0	33.5270	0	26.387	0	137.372	0	-1e10	8	-1e10	8	-1E+10	1	-1E+10	1	-1E+10	1	-1E+10	1	-1E+10	1	-1E+10	1
4902554	38	C	02/20/2022	19:01	-136.180	49.485	0	139.70	0	6.0230	0	33.5290	0	26.389	0	138.462	0	-1e10	8	-1e10	8	-1E+10	1	-1E+10	1	-1E+10	1	-1E+10	1	-1E+10	1	-1E+10	1
4902554	38	C	02/20/2022	19:01	-136.180	49.485	0	140.80	0	6.0200	0	33.5370	0	26.396	0	139.552	0	-1e10	8	-1e10	8	-1E+10	1	-1E+10	1	-1E+10	1	-1E+10	1	-1E+10	1	-1E+10	1
4902554	38	C	02/20/2022	19:01	-136.180	49.485	0	141.90	0	6.0200	0	33.5380	0	26.397	0	140.642	0	-1e10	8	-1e10	8	-1E+10	1	-1E+10	1	-1E+10	1	-1E+10	1	-1E+10	1	-1E+10	1
4902554	38	C	02/20/2022	19:01	-136.180	49.485	0	143.00	0	6.0190	0	33.5400	0	26.398	0	141.732	0	-1e10	8	-1e10	8	-1E+10	1	-1E+10	1	-1E+10	1	-1E+10	1	-1E+10	1	-1E+10	1
4902554	38	C	02/20/2022	19:01	-136.180	49.485	0	144.10	0	6.0190	0	33.5430	0	26.401	0	142.822	0	-1e10	8	-1e10	8	-1E+10	1	-1E+10	1	-1E+10	1	-1E+10	1	-1E+10	1	-1E+10	1
4902554	38	C	02/20/2022	19:01	-136.180	49.485	0	145.20	0	6.0130	0	33.5560	0	26.412	0	143.911	0	-1e10	8	-1e10	8	-1E+10	1	-1E+10	1	-1E+10	1	-1E+10	1	-1E+10	1	-1E+10	1
4902554	38	C	02/20/2022	19:01	-136.180	49.485	0	146.30	0	5.9990	0	33.5800	0	26.432	0	145.001	0	-1e10	8	-1e10	8	-1E+10	1	-1E+10	1	-1E+10	1	-1E+10	1	-1E+10	1	-1E+10	1
4902554	38	C	02/20/2022	19:01	-136.180	49.485	0	147.50	0	5.9880	0	33.5910	0	26.442	0	146.190	0	-1e10	8	-1e10	8	-1E+10	1	-1E+10	1	-1E+10	1	-1E+10	1	-1E+10	1	-1E+10	1
4902554	38	C	02/20/2022	19:01	-136.180	49.485	0	148.60	0	5.9810	0	33.5970	0	26.448	0	147.280	0	-1e10	8	-1e10	8	-1E+10	1	-1E+10	1	-1E+10	1	-1E+10	1	-1E+10	1	-1E+10	1
4902554	38	C	02/20/2022	19:01	-136.180	49.485	0	149.80	0	5.9760	0	33.6010	0	26.452	0	148.469	0	-1e10	8	-1e10	8	-1E+10	1	-1E+10	1	-1E+10	1	-1E+10	1	-1E+10	1	-1E+10	1
4902554	38	C	02/20/2022	19:01	-136.180	49.485	0	150.90	0	5.9720	0	33.6030	0	26.454	0	149.559	0	-1e10	8	-1e10	8	-1E+10	1	-1E+10	1	-1E+10	1	-1E+10	1	-1E+10	1	-1E+10	1
4902554	38	C	02/20/2022	19:01	-136.180	49.485	0	152.00	0	5.9690	0	33.6050	0	26.456	0	150.649	0	-1e10	8	-1e10	8	-1E+10	1	-1E+10	1	-1E+10	1	-1E+10	1	-1E+10	1	-1E+10	1
4902554	38	C	02/20/2022	19:01	-136.180	49.485	0	153.10	0	5.9640	0	33.6080	0	26.459	0	151.738	0	-1e10	8	-1e10	8	-1E+10	1	-1E+10	1	-1E+10	1	-1E+10	1	-1E+10	1	-1E+10	1
4902554	38	C	02/20/2022	19:01	-136.180	49.485	0	154.20	0	5.9580	0	33.6130	0	26.464	0	152.828	0	-1e10	8	-1e10	8	-1E+10	1	-1E+10	1	-1E+10	1	-1E+10	1	-1E+10	1	-1E+10	1
4902554	38	C	02/20/2022	19:01	-136.180	49.485	0	155.30	0	5.9460	0	33.6240	0	26.474	0	153.918	0	-1e10	8	-1e10	8	-1E+10	1	-1E+10	1	-1E+10	1	-1E+10	1	-1E+10	1	-1E+10	1
4902554	38	C	02/20/2022	19:01	-136.180	49.485	0	156.40	0	5.9260	0	33.6380	0	26.487	0	155.008	0	-1e10	8	-1e10	8	-1E+10	1	-1E+10	1	-1E+10	1	-1E+10	1	-1E+10	1	-1E+10	1
4902554	38	C	02/20/2022	19:01	-136.180	49.485	0	157.50	0	5.9200	0	33.6430	0	26.492	0	156.098	0	-1e10	8	-1e10	8	-1E+10	1	-1E+10	1	-1E+10	1	-1E+10	1	-1E+10	1	-1E+10	1
4902554	38	C	02/20/2022	19:01	-136.180	49.485	0	158.60	0	5.9180	0	33.6450	0	26.494	0	157.187	0	-1e10	8	-1e10	8	-1E+10	1	-1E+10	1	-1E+10	1	-1E+10	1	-1E+10	1	-1E+10	1
4902554	38	C	02/20/2022	19:01	-136.180	49.485	0	159.70	0	5.9150	0	33.6470	0	26.496	0	158.277	0	-1e10	8	-1e10	8	-1E+10	1	-1E+10	1	-1E+10	1	-1E+10	1	-1E+10	1	-1E+10	1
4902554	38	C	02/20/2022	19:01	-136.180	49.485	0	160.80	0	5.9110	0	33.6490	0	26.498	0	159.367	0	-1e10	8	-1e10	8	-1E+10	1	-1E+10	1	-1E+10	1	-1E+10	1	-1E+10	1	-1E+10	1
4902554	38	C	02/20/2022	19:01	-136.180	49.485	0	161.90	0	5.9070	0	33.6500	0	26.499	0	160.457	0	-1e10	8	-1e10	8	-1E+10	1	-1E+10	1	-1E+10	1	-1E+10	1	-1E+10	1	-1E+10	1
4902554	38	C	02/20/2022	19:01	-136.180	49.485	0	162.90	0	5.8930	0	33.6570	0	26.507	0	161.447	0	-1e10	8	-1e10	8	-1E+10	1	-1E+10	1	-1E+10	1	-1E+10	1	-1E+10	1	-1E+10	1
4902554	38	C	02/20/2022	19:01	-136.180	49.485	0	164.00	0	5.8470	0	33.6780	0	26.529	0	162.537	0	-1e10	8	-1e10	8	-1E+10	1	-1E+10	1	-1E+10	1	-1E+10	1	-1E+10	1	-1E+10	1
4902554	38	C	02/20/2022	19:01	-136.180	49.485	0	165.00	0	5.8170	0	33.6900	0	26.542	0	163.528	0	-1e10	8	-1e10	8	-1E+10	1	-1E+10	1	-1E+10	1	-1E+10	1	-1E+10	1	-1E+10	1
4902554	38	C	02/20/2022	19:01	-136.180	49.485	0	166.00	0	5.8110	0	33.6890	0	26.542	0	164.518	0	-1e10	8	-1e10	8	-1E+10	1	-1E+10	1	-1E+10	1	-1E+10	1	-1E+10	1	-1E+10	1
4902554	38	C	02/20/2022	19:01	-136.180	49.485	0	167.00	0	5.8070	0	33.6900	0	26.543	0	165.509	0	-1e10	8	-1e10	8	-1E+10	1	-1E+10	1	-1E+10	1	-1E+10	1	-1E+10	1	-1E+10	1
4902554	38	C	02/20/2022	19:01	-136.180	49.485	0	168.00	0	5.7980	0	33.6900	0	26.544	0	166.500	0	-1e10	8	-1e10	8	-1E+10	1	-1E+10	1	-1E+10	1	-1E+10	1	-1E+10	1	-1E+10	1
4902554	38	C	02/20/2022	19:01	-136.180	49.485	0	168.90	0	5.7940	0	33.6920	0	26.546	0	167.391	0	-1e10	8	-1e10	8	-1E+10	1	-1E+10	1	-1E+10	1	-1E+10	1	-1E+10	1	-1E+10	1
4902554	38	C	02/20/2022	19:01	-136.180	49.485	0	169.90	0	5.7780	0	33.7000	0	26.555	0	168.382	0	-1e10	8	-1e10	8	-1E+10	1	-1E+10	1	-1E+10	1	-1E+10	1	-1E+10	1	-1E+10	1
4902554	38	C	02/20/2022	19:01	-136.180	49.485	0	171.00	0	5.7660	0	33.7010	0	26.557	0	169.472	0	-1e10	8	-1e10	8	-1E+10	1	-1E+10	1	-1E+10	1	-1E+10	1	-1E+10	1	-1E+10	1
4902554	38	C	02/20/2022	19:01	-136.180	49.485	0	172.20	0	5.7620	0	33.6970	0	26.554	0	170.661	0	-1e10	8	-1e10	8	-1E+10	1	-1E+10	1	-1E+10	1	-1E+10	1	-1E+10	1	-1E+10	1
4902554	38	C	02/20/2022	19:01	-136.180	49.485	0	173.00	0	5.7390	0	33.7060	0	26.564	0	171.453	0	-1e10	8	-1e10	8	-1E+10	1	-1E+10	1	-1E+10	1	-1E+10	1	-1E+10	1	-1E+10	1
4902554	38	C	02/20/2022	19:01	-136.180	49.485	0	173.80	0	5.7250	0	33.7110	0	26.570	0	172.246	0	-1e10	8	-1e10	8	-1E+10	1	-1E+10	1	-1E+10	1	-1E+10	1	-1E+10	1	-1E+10	1
4902554	38	C	02/20/2022	19:01	-136.180	49.485	0	175.00	0	5.7060	0	33.7140	0	26.575	0	173.434	0	-1e10	8	-1e10	8	-1E+10	1	-1E+10	1	-1E+10	1	-1E+10	1	-1E+10	1	-1E+10	1
4902554	38	C	02/20/2022	19:01	-136.180	49.485	0	176.20	0	5.7030	0	33.7150	0	26.576	0	174.623	0	-1e10	8	-1e10	8	-1E+10	1	-1E+10	1	-1E+10	1	-1E+10	1	-1E+10	1	-1E+10	1
4902554	38	C	02/20/2022	19:01	-136.180	49.485	0	176.90	0	5.6990	0	33.7170	0	26.578	0	175.317	0	-1e10	8	-1e10	8	-1E+10	1	-1E+10	1	-1E+10	1	-1E+10	1	-1E+10	1	-1E+10	1
4902554	38	C	02/20/2022	19:01	-136.180	49.485	0	178.00	0	5.6920	0	33.7170	0	26.579	0	176.406	0	-1e10	8	-1e10	8	-1E+10	1	-1E+10	1	-1E+10	1	-1E+10	1	-1E+10	1	-1E+10	1
4902554	38	C	02/20/2022	19:01	-136.180	49.485	0	179.20	0	5.6770	0	33.7200	0	26.583	0	177.595	0	-1e10	8	-1e10	8	-1E+10	1	-1E+10	1	-1E+10	1	-1E+10	1	-1E+10	1	-1E+10	1
4902554	38	C	02/20/2022	19:01	-136.180	49.485	0	180.10	0	5.6630	0	33.7240	0	26.588	0	178.487	0	-1e10	8	-1e10	8	-1E+10	1	-1E+10	1	-1E+10	1	-1E+10	1	-1E+10	1	-1E+10	1
4902554	38	C	02/20/2022	19:01	-136.180	49.485	0	180.90	0	5.6600	0	33.7240	0	26.588	0	179.279	0	-1e10	8	-1e10	8	-1E+10	1	-1E+10	1	-1E+10	1	-1E+10	1	-1E+10	1	-1E+10	1
4902554	38	C	02/20/2022	19:01	-136.180	49.485	0	181.70	0	5.6480	0	33.7270	0	26.592	0	180.072	0	-1e10	8	-1e10	8	-1E+10	1	-1E+10	1	-1E+10	1	-1E+10	1	-1E+10	1	-1E+10	1
4902554	38	C	02/20/2022	19:01	-136.180	49.485	0	183.00	0	5.6340	0	33.7300	0	26.596	0	181.359	0	-1e10	8	-1e10	8	-1E+10	1	-1E+10	1	-1E+10	1	-1E+10	1	-1E+10	1	-1E+10	1
4902554	38	C	02/20/2022	19:01	-136.180	49.485	0	184.30	0	5.6290	0	33.7310	0	26.597	0	182.647	0	-1e10	8	-1e10	8	-1E+10	1	-1E+10	1	-1E+10	1	-1E+10	1	-1E+10	1	-1E+10	1
4902554	38	C	02/20/2022	19:01	-136.180	49.485	0	185.10	0	5.6280	0	33.7310	0	26.598	0	183.440	0	-1e10	8	-1e10	8	-1E+10	1	-1E+10	1	-1E+10	1	-1E+10	1	-1E+10	1	-1E+10	1
4902554	38	C	02/20/2022	19:01	-136.180	49.485	0	186.00	0	5.6190	0	33.7320	0	26.599	0	184.331	0	-1e10	8	-1e10	8	-1E+10	1	-1E+10	1	-1E+10	1	-1E+10	1	-1E+10	1	-1E+10	1
4902554	38	C	02/20/2022	19:01	-136.180	49.485	0	186.80	0	5.5840	0	33.7380	0	26.608	0	185.124	0	-1e10	8	-1e10	8	-1E+10	1	-1E+10	1	-1E+10	1	-1E+10	1	-1E+10	1	-1E+10	1
4902554	38	C	02/20/2022	19:01	-136.180	49.485	0	187.60	0	5.5840	0	33.7370	0	26.608	0	185.916	0	-1e10	8	-1e10	8	-1E+10	1	-1E+10	1	-1E+10	1	-1E+10	1	-1E+10	1	-1E+10	1
4902554	38	C	02/20/2022	19:01	-136.180	49.485	0	188.90	0	5.5820	0	33.7380	0	26.609	0	187.204	0	-1e10	8	-1e10	8	-1E+10	1	-1E+10	1	-1E+10	1	-1E+10	1	-1E+10	1	-1E+10	1
4902554	38	C	02/20/2022	19:01	-136.180	49.485	0	190.20	0	5.5820	0	33.7380	0	26.609	0	188.491	0	-1e10	8	-1e10	8	-1E+10	1	-1E+10	1	-1E+10	1	-1E+10	1	-1E+10	1	-1E+10	1
4902554	38	C	02/20/2022	19:01	-136.180	49.485	0	191.00	0	5.5820	0	33.7380	0	26.609	0	189.284	0	-1e10	8	-1e10	8	-1E+10	1	-1E+10	1	-1E+10	1	-1E+10	1	-1E+10	1	-1E+10	1
4902554	38	C	02/20/2022	19:01	-136.180	49.485	0	191.80	0	5.5810	0	33.7380	0	26.609	0	190.076	0	-1e10	8	-1e10	8	-1E+10	1	-1E+10	1	-1E+10	1	-1E+10	1	-1E+10	1	-1E+10	1
4902554	38	C	02/20/2022	19:01	-136.180	49.485	0	192.70	0	5.5790	0	33.7380	0	26.609	0	190.968	0	-1e10	8	-1e10	8	-1E+10	1	-1E+10	1	-1E+10	1	-1E+10	1	-1E+10	1	-1E+10	1
4902554	38	C	02/20/2022	19:01	-136.180	49.485	0	193.90	0	5.5720	0	33.7400	0	26.612	0	192.157	0	-1e10	8	-1e10	8	-1E+10	1	-1E+10	1	-1E+10	1	-1E+10	1	-1E+10	1	-1E+10	1
4902554	38	C	02/20/2022	19:01	-136.180	49.485	0	195.10	0	5.5650	0	33.7420	0	26.614	0	193.345	0	-1e10	8	-1e10	8	-1E+10	1	-1E+10	1	-1E+10	1	-1E+10	1	-1E+10	1	-1E+10	1
4902554	38	C	02/20/2022	19:01	-136.180	49.485	0	196.00	0	5.5560	0	33.7430	0	26.616	0	194.237	0	-1e10	8	-1e10	8	-1E+10	1	-1E+10	1	-1E+10	1	-1E+10	1	-1E+10	1	-1E+10	1
4902554	38	C	02/20/2022	19:01	-136.180	49.485	0	196.80	0	5.5470	0	33.7440	0	26.618	0	195.029	0	-1e10	8	-1e10	8	-1E+10	1	-1E+10	1	-1E+10	1	-1E+10	1	-1E+10	1	-1E+10	1
4902554	38	C	02/20/2022	19:01	-136.180	49.485	0	197.70	0	5.5170	0	33.7500	0	26.626	0	195.921	0	-1e10	8	-1e10	8	-1E+10	1	-1E+10	1	-1E+10	1	-1E+10	1	-1E+10	1	-1E+10	1
4902554	38	C	02/20/2022	19:01	-136.180	49.485	0	198.90	0	5.5040	0	33.7510	0	26.628	0	197.109	0	-1e10	8	-1e10	8	-1E+10	1	-1E+10	1	-1E+10	1	-1E+10	1	-1E+10	1	-1E+10	1
4902554	38	C	02/20/2022	19:01	-136.180	49.485	0	200.30	0	5.4920	0	33.7530	0	26.631	0	198.496	0	-1e10	8	-1e10	8	-1E+10	1	-1E+10	1	-1E+10	1	-1E+10	1	-1E+10	1	-1E+10	1
4902554	38	C	02/20/2022	19:01	-136.180	49.485	0	201.20	0	5.4910	0	33.7530	0	26.632	0	199.387	0	-1e10	8	-1e10	8	-1E+10	1	-1E+10	1	-1E+10	1	-1E+10	1	-1E+10	1	-1E+10	1
4902554	38	C	02/20/2022	19:01	-136.180	49.485	0	202.10	0	5.4910	0	33.7530	0	26.632	0	200.279	0	-1e10	8	-1e10	8	-1E+10	1	-1E+10	1	-1E+10	1	-1E+10	1	-1E+10	1	-1E+10	1
4902554	38	C	02/20/2022	19:01	-136.180	49.485	0	203.00	0	5.4860	0	33.7550	0	26.634	0	201.170	0	-1e10	8	-1e10	8	-1E+10	1	-1E+10	1	-1E+10	1	-1E+10	1	-1E+10	1	-1E+10	1
4902554	38	C	02/20/2022	19:01	-136.180	49.485	0	203.90	0	5.4800	0	33.7550	0	26.634	0	202.062	0	-1e10	8	-1e10	8	-1E+10	1	-1E+10	1	-1E+10	1	-1E+10	1	-1E+10	1	-1E+10	1
4902554	38	C	02/20/2022	19:01	-136.180	49.485	0	204.80	0	5.4690	0	33.7570	0	26.637	0	202.953	0	-1e10	8	-1e10	8	-1E+10	1	-1E+10	1	-1E+10	1	-1E+10	1	-1E+10	1	-1E+10	1
4902554	38	C	02/20/2022	19:01	-136.180	49.485	0	205.60	0	5.4600	0	33.7570	0	26.638	0	203.746	0	-1e10	8	-1e10	8	-1E+10	1	-1E+10	1	-1E+10	1	-1E+10	1	-1E+10	1	-1E+10	1
4902554	38	C	02/20/2022	19:01	-136.180	49.485	0	206.90	0	5.4390	0	33.7600	0	26.643	0	205.033	0	-1e10	8	-1e10	8	-1E+10	1	-1E+10	1	-1E+10	1	-1E+10	1	-1E+10	1	-1E+10	1
4902554	38	C	02/20/2022	19:01	-136.180	49.485	0	208.40	0	5.4330	0	33.7610	0	26.645	0	206.519	0	-1e10	8	-1e10	8	-1E+10	1	-1E+10	1	-1E+10	1	-1E+10	1	-1E+10	1	-1E+10	1
4902554	38	C	02/20/2022	19:01	-136.180	49.485	0	209.30	0	5.4260	0	33.7630	0	26.647	0	207.410	0	-1e10	8	-1e10	8	-1E+10	1	-1E+10	1	-1E+10	1	-1E+10	1	-1E+10	1	-1E+10	1
4902554	38	C	02/20/2022	19:01	-136.180	49.485	0	210.20	0	5.4240	0	33.7630	0	26.648	0	208.302	0	-1e10	8	-1e10	8	-1E+10	1	-1E+10	1	-1E+10	1	-1E+10	1	-1E+10	1	-1E+10	1
4902554	38	C	02/20/2022	19:01	-136.180	49.485	0	211.10	0	5.4180	0	33.7630	0	26.648	0	209.193	0	-1e10	8	-1e10	8	-1E+10	1	-1E+10	1	-1E+10	1	-1E+10	1	-1E+10	1	-1E+10	1
4902554	38	C	02/20/2022	19:01	-136.180	49.485	0	212.00	0	5.3900	0	33.7670	0	26.655	0	210.085	0	-1e10	8	-1e10	8	-1E+10	1	-1E+10	1	-1E+10	1	-1E+10	1	-1E+10	1	-1E+10	1
4902554	38	C	02/20/2022	19:01	-136.180	49.485	0	212.90	0	5.3860	0	33.7670	0	26.655	0	210.976	0	-1e10	8	-1e10	8	-1E+10	1	-1E+10	1	-1E+10	1	-1E+10	1	-1E+10	1	-1E+10	1
4902554	38	C	02/20/2022	19:01	-136.180	49.485	0	213.90	0	5.3660	0	33.7710	0	26.661	0	211.966	0	-1e10	8	-1e10	8	-1E+10	1	-1E+10	1	-1E+10	1	-1E+10	1	-1E+10	1	-1E+10	1
4902554	38	C	02/20/2022	19:01	-136.180	49.485	0	214.80	0	5.3490	0	33.7720	0	26.663	0	212.858	0	-1e10	8	-1e10	8	-1E+10	1	-1E+10	1	-1E+10	1	-1E+10	1	-1E+10	1	-1E+10	1
4902554	38	C	02/20/2022	19:01	-136.180	49.485	0	215.70	0	5.3440	0	33.7740	0	26.666	0	213.749	0	-1e10	8	-1e10	8	-1E+10	1	-1E+10	1	-1E+10	1	-1E+10	1	-1E+10	1	-1E+10	1
4902554	38	C	02/20/2022	19:01	-136.180	49.485	0	216.70	0	5.3210	0	33.7770	0	26.671	0	214.740	0	-1e10	8	-1e10	8	-1E+10	1	-1E+10	1	-1E+10	1	-1E+10	1	-1E+10	1	-1E+10	1
4902554	38	C	02/20/2022	19:01	-136.180	49.485	0	217.70	0	5.3160	0	33.7760	0	26.671	0	215.730	0	-1e10	8	-1e10	8	-1E+10	1	-1E+10	1	-1E+10	1	-1E+10	1	-1E+10	1	-1E+10	1
4902554	38	C	02/20/2022	19:01	-136.180	49.485	0	218.70	0	5.3110	0	33.7760	0	26.671	0	216.721	0	-1e10	8	-1e10	8	-1E+10	1	-1E+10	1	-1E+10	1	-1E+10	1	-1E+10	1	-1E+10	1
4902554	38	C	02/20/2022	19:01	-136.180	49.485	0	219.60	0	5.2960	0	33.7790	0	26.675	0	217.612	0	-1e10	8	-1e10	8	-1E+10	1	-1E+10	1	-1E+10	1	-1E+10	1	-1E+10	1	-1E+10	1
4902554	38	C	02/20/2022	19:01	-136.180	49.485	0	220.60	0	5.2860	0	33.7810	0	26.678	0	218.602	0	-1e10	8	-1e10	8	-1E+10	1	-1E+10	1	-1E+10	1	-1E+10	1	-1E+10	1	-1E+10	1
4902554	38	C	02/20/2022	19:01	-136.180	49.485	0	221.60	0	5.2650	0	33.7830	0	26.682	0	219.593	0	-1e10	8	-1e10	8	-1E+10	1	-1E+10	1	-1E+10	1	-1E+10	1	-1E+10	1	-1E+10	1
4902554	38	C	02/20/2022	19:01	-136.180	49.485	0	222.50	0	5.2640	0	33.7820	0	26.681	0	220.484	0	-1e10	8	-1e10	8	-1E+10	1	-1E+10	1	-1E+10	1	-1E+10	1	-1E+10	1	-1E+10	1
4902554	38	C	02/20/2022	19:01	-136.180	49.485	0	223.50	0	5.2640	0	33.7820	0	26.681	0	221.475	0	-1e10	8	-1e10	8	-1E+10	1	-1E+10	1	-1E+10	1	-1E+10	1	-1E+10	1	-1E+10	1
4902554	38	C	02/20/2022	19:01	-136.180	49.485	0	224.50	0	5.2420	0	33.7880	0	26.689	0	222.465	0	-1e10	8	-1e10	8	-1E+10	1	-1E+10	1	-1E+10	1	-1E+10	1	-1E+10	1	-1E+10	1
4902554	38	C	02/20/2022	19:01	-136.180	49.485	0	225.50	0	5.2200	0	33.7890	0	26.692	0	223.455	0	-1e10	8	-1e10	8	-1E+10	1	-1E+10	1	-1E+10	1	-1E+10	1	-1E+10	1	-1E+10	1
4902554	38	C	02/20/2022	19:01	-136.180	49.485	0	226.50	0	5.2100	0	33.7900	0	26.694	0	224.446	0	-1e10	8	-1e10	8	-1E+10	1	-1E+10	1	-1E+10	1	-1E+10	1	-1E+10	1	-1E+10	1
4902554	38	C	02/20/2022	19:01	-136.180	49.485	0	227.50	0	5.2020	0	33.7900	0	26.695	0	225.436	0	-1e10	8	-1e10	8	-1E+10	1	-1E+10	1	-1E+10	1	-1E+10	1	-1E+10	1	-1E+10	1
4902554	38	C	02/20/2022	19:01	-136.180	49.485	0	228.50	0	5.1790	0	33.7930	0	26.700	0	226.426	0	-1e10	8	-1e10	8	-1E+10	1	-1E+10	1	-1E+10	1	-1E+10	1	-1E+10	1	-1E+10	1
4902554	38	C	02/20/2022	19:01	-136.180	49.485	0	229.50	0	5.1650	0	33.7940	0	26.702	0	227.417	0	-1e10	8	-1e10	8	-1E+10	1	-1E+10	1	-1E+10	1	-1E+10	1	-1E+10	1	-1E+10	1
4902554	38	C	02/20/2022	19:01	-136.180	49.485	0	230.50	0	5.1580	0	33.7950	0	26.704	0	228.407	0	-1e10	8	-1e10	8	-1E+10	1	-1E+10	1	-1E+10	1	-1E+10	1	-1E+10	1	-1E+10	1
4902554	38	C	02/20/2022	19:01	-136.180	49.485	0	231.50	0	5.1520	0	33.7960	0	26.706	0	229.398	0	-1e10	8	-1e10	8	-1E+10	1	-1E+10	1	-1E+10	1	-1E+10	1	-1E+10	1	-1E+10	1
4902554	38	C	02/20/2022	19:01	-136.180	49.485	0	232.50	0	5.1470	0	33.7980	0	26.708	0	230.388	0	-1e10	8	-1e10	8	-1E+10	1	-1E+10	1	-1E+10	1	-1E+10	1	-1E+10	1	-1E+10	1
4902554	38	C	02/20/2022	19:01	-136.180	49.485	0	233.50	0	5.1430	0	33.7970	0	26.707	0	231.378	0	-1e10	8	-1e10	8	-1E+10	1	-1E+10	1	-1E+10	1	-1E+10	1	-1E+10	1	-1E+10	1
4902554	38	C	02/20/2022	19:01	-136.180	49.485	0	234.50	0	5.1320	0	33.7980	0	26.709	0	232.369	0	-1e10	8	-1e10	8	-1E+10	1	-1E+10	1	-1E+10	1	-1E+10	1	-1E+10	1	-1E+10	1
4902554	38	C	02/20/2022	19:01	-136.180	49.485	0	235.50	0	5.1300	0	33.7970	0	26.709	0	233.359	0	-1e10	8	-1e10	8	-1E+10	1	-1E+10	1	-1E+10	1	-1E+10	1	-1E+10	1	-1E+10	1
4902554	38	C	02/20/2022	19:01	-136.180	49.485	0	236.50	0	5.1230	0	33.7980	0	26.710	0	234.349	0	-1e10	8	-1e10	8	-1E+10	1	-1E+10	1	-1E+10	1	-1E+10	1	-1E+10	1	-1E+10	1
4902554	38	C	02/20/2022	19:01	-136.180	49.485	0	237.50	0	5.1110	0	33.7980	0	26.712	0	235.340	0	-1e10	8	-1e10	8	-1E+10	1	-1E+10	1	-1E+10	1	-1E+10	1	-1E+10	1	-1E+10	1
4902554	38	C	02/20/2022	19:01	-136.180	49.485	0	238.50	0	5.0920	0	33.8030	0	26.718	0	236.330	0	-1e10	8	-1e10	8	-1E+10	1	-1E+10	1	-1E+10	1	-1E+10	1	-1E+10	1	-1E+10	1
4902554	38	C	02/20/2022	19:01	-136.180	49.485	0	239.50	0	5.0800	0	33.8030	0	26.719	0	237.320	0	-1e10	8	-1e10	8	-1E+10	1	-1E+10	1	-1E+10	1	-1E+10	1	-1E+10	1	-1E+10	1
4902554	38	C	02/20/2022	19:01	-136.180	49.485	0	240.50	0	5.0780	0	33.8020	0	26.719	0	238.311	0	-1e10	8	-1e10	8	-1E+10	1	-1E+10	1	-1E+10	1	-1E+10	1	-1E+10	1	-1E+10	1
4902554	38	C	02/20/2022	19:01	-136.180	49.485	0	241.50	0	5.0750	0	33.8020	0	26.719	0	239.301	0	-1e10	8	-1e10	8	-1E+10	1	-1E+10	1	-1E+10	1	-1E+10	1	-1E+10	1	-1E+10	1
4902554	38	C	02/20/2022	19:01	-136.180	49.485	0	242.50	0	5.0680	0	33.8030	0	26.721	0	240.291	0	-1e10	8	-1e10	8	-1E+10	1	-1E+10	1	-1E+10	1	-1E+10	1	-1E+10	1	-1E+10	1
4902554	38	C	02/20/2022	19:01	-136.180	49.485	0	243.50	0	5.0590	0	33.8040	0	26.723	0	241.282	0	-1e10	8	-1e10	8	-1E+10	1	-1E+10	1	-1E+10	1	-1E+10	1	-1E+10	1	-1E+10	1
4902554	38	C	02/20/2022	19:01	-136.180	49.485	0	244.50	0	5.0490	0	33.8050	0	26.725	0	242.272	0	-1e10	8	-1e10	8	-1E+10	1	-1E+10	1	-1E+10	1	-1E+10	1	-1E+10	1	-1E+10	1
4902554	38	C	02/20/2022	19:01	-136.180	49.485	0	245.50	0	5.0430	0	33.8050	0	26.725	0	243.262	0	-1e10	8	-1e10	8	-1E+10	1	-1E+10	1	-1E+10	1	-1E+10	1	-1E+10	1	-1E+10	1
4902554	38	C	02/20/2022	19:01	-136.180	49.485	0	246.50	0	5.0420	0	33.8050	0	26.725	0	244.253	0	-1e10	8	-1e10	8	-1E+10	1	-1E+10	1	-1E+10	1	-1E+10	1	-1E+10	1	-1E+10	1
4902554	38	C	02/20/2022	19:01	-136.180	49.485	0	247.60	0	5.0410	0	33.8050	0	26.725	0	245.342	0	-1e10	8	-1e10	8	-1E+10	1	-1E+10	1	-1E+10	1	-1E+10	1	-1E+10	1	-1E+10	1
4902554	38	C	02/20/2022	19:01	-136.180	49.485	0	248.50	0	5.0180	0	33.8080	0	26.730	0	246.233	0	-1e10	8	-1e10	8	-1E+10	1	-1E+10	1	-1E+10	1	-1E+10	1	-1E+10	1	-1E+10	1
4902554	38	C	02/20/2022	19:01	-136.180	49.485	0	249.60	0	5.0190	0	33.8080	0	26.730	0	247.322	0	-1e10	8	-1e10	8	-1E+10	1	-1E+10	1	-1E+10	1	-1E+10	1	-1E+10	1	-1E+10	1
4902554	38	C	02/20/2022	19:01	-136.180	49.485	0	250.60	0	5.0180	0	33.8070	0	26.730	0	248.313	0	-1e10	8	-1e10	8	-1E+10	1	-1E+10	1	-1E+10	1	-1E+10	1	-1E+10	1	-1E+10	1
4902554	38	C	02/20/2022	19:01	-136.180	49.485	0	251.60	0	5.0120	0	33.8080	0	26.731	0	249.303	0	-1e10	8	-1e10	8	-1E+10	1	-1E+10	1	-1E+10	1	-1E+10	1	-1E+10	1	-1E+10	1
4902554	38	C	02/20/2022	19:01	-136.180	49.485	0	252.60	0	5.0030	0	33.8090	0	26.733	0	250.293	0	-1e10	8	-1e10	8	-1E+10	1	-1E+10	1	-1E+10	1	-1E+10	1	-1E+10	1	-1E+10	1
4902554	38	C	02/20/2022	19:01	-136.180	49.485	0	253.60	0	5.0000	0	33.8090	0	26.733	0	251.283	0	-1e10	8	-1e10	8	-1E+10	1	-1E+10	1	-1E+10	1	-1E+10	1	-1E+10	1	-1E+10	1
4902554	38	C	02/20/2022	19:01	-136.180	49.485	0	254.50	0	4.9960	0	33.8100	0	26.735	0	252.175	0	-1e10	8	-1e10	8	-1E+10	1	-1E+10	1	-1E+10	1	-1E+10	1	-1E+10	1	-1E+10	1
4902554	38	C	02/20/2022	19:01	-136.180	49.485	0	255.50	0	4.9920	0	33.8100	0	26.735	0	253.165	0	-1e10	8	-1e10	8	-1E+10	1	-1E+10	1	-1E+10	1	-1E+10	1	-1E+10	1	-1E+10	1
4902554	38	C	02/20/2022	19:01	-136.180	49.485	0	256.50	0	4.9900	0	33.8100	0	26.735	0	254.155	0	-1e10	8	-1e10	8	-1E+10	1	-1E+10	1	-1E+10	1	-1E+10	1	-1E+10	1	-1E+10	1
4902554	38	C	02/20/2022	19:01	-136.180	49.485	0	257.90	0	4.9630	0	33.8150	0	26.742	0	255.542	0	-1e10	8	-1e10	8	-1E+10	1	-1E+10	1	-1E+10	1	-1E+10	1	-1E+10	1	-1E+10	1
4902554	38	C	02/20/2022	19:01	-136.180	49.485	0	259.40	0	4.9510	0	33.8160	0	26.745	0	257.027	0	-1e10	8	-1e10	8	-1E+10	1	-1E+10	1	-1E+10	1	-1E+10	1	-1E+10	1	-1E+10	1
4902554	38	C	02/20/2022	19:01	-136.180	49.485	0	260.40	0	4.9400	0	33.8170	0	26.747	0	258.017	0	-1e10	8	-1e10	8	-1E+10	1	-1E+10	1	-1E+10	1	-1E+10	1	-1E+10	1	-1E+10	1
4902554	38	C	02/20/2022	19:01	-136.180	49.485	0	261.30	0	4.9290	0	33.8190	0	26.749	0	258.908	0	-1e10	8	-1e10	8	-1E+10	1	-1E+10	1	-1E+10	1	-1E+10	1	-1E+10	1	-1E+10	1
4902554	38	C	02/20/2022	19:01	-136.180	49.485	0	262.30	0	4.9220	0	33.8190	0	26.750	0	259.899	0	-1e10	8	-1e10	8	-1E+10	1	-1E+10	1	-1E+10	1	-1E+10	1	-1E+10	1	-1E+10	1
4902554	38	C	02/20/2022	19:01	-136.180	49.485	0	263.30	0	4.8960	0	33.8230	0	26.756	0	260.889	0	-1e10	8	-1e10	8	-1E+10	1	-1E+10	1	-1E+10	1	-1E+10	1	-1E+10	1	-1E+10	1
4902554	38	C	02/20/2022	19:01	-136.180	49.485	0	264.20	0	4.8900	0	33.8230	0	26.757	0	261.780	0	-1e10	8	-1e10	8	-1E+10	1	-1E+10	1	-1E+10	1	-1E+10	1	-1E+10	1	-1E+10	1
4902554	38	C	02/20/2022	19:01	-136.180	49.485	0	265.20	0	4.8900	0	33.8220	0	26.756	0	262.770	0	-1e10	8	-1e10	8	-1E+10	1	-1E+10	1	-1E+10	1	-1E+10	1	-1E+10	1	-1E+10	1
4902554	38	C	02/20/2022	19:01	-136.180	49.485	0	266.20	0	4.8900	0	33.8230	0	26.757	0	263.760	0	-1e10	8	-1e10	8	-1E+10	1	-1E+10	1	-1E+10	1	-1E+10	1	-1E+10	1	-1E+10	1
4902554	38	C	02/20/2022	19:01	-136.180	49.485	0	267.10	0	4.8840	0	33.8240	0	26.758	0	264.652	0	-1e10	8	-1e10	8	-1E+10	1	-1E+10	1	-1E+10	1	-1E+10	1	-1E+10	1	-1E+10	1
4902554	38	C	02/20/2022	19:01	-136.180	49.485	0	268.10	0	4.8790	0	33.8250	0	26.760	0	265.642	0	-1e10	8	-1e10	8	-1E+10	1	-1E+10	1	-1E+10	1	-1E+10	1	-1E+10	1	-1E+10	1
4902554	38	C	02/20/2022	19:01	-136.180	49.485	0	269.00	0	4.8760	0	33.8240	0	26.759	0	266.533	0	-1e10	8	-1e10	8	-1E+10	1	-1E+10	1	-1E+10	1	-1E+10	1	-1E+10	1	-1E+10	1
4902554	38	C	02/20/2022	19:01	-136.180	49.485	0	270.00	0	4.8710	0	33.8250	0	26.761	0	267.523	0	-1e10	8	-1e10	8	-1E+10	1	-1E+10	1	-1E+10	1	-1E+10	1	-1E+10	1	-1E+10	1
4902554	38	C	02/20/2022	19:01	-136.180	49.485	0	271.00	0	4.8620	0	33.8240	0	26.761	0	268.513	0	-1e10	8	-1e10	8	-1E+10	1	-1E+10	1	-1E+10	1	-1E+10	1	-1E+10	1	-1E+10	1
4902554	38	C	02/20/2022	19:01	-136.180	49.485	0	271.90	0	4.8540	0	33.8240	0	26.762	0	269.404	0	-1e10	8	-1e10	8	-1E+10	1	-1E+10	1	-1E+10	1	-1E+10	1	-1E+10	1	-1E+10	1
4902554	38	C	02/20/2022	19:01	-136.180	49.485	0	272.90	0	4.8480	0	33.8250	0	26.763	0	270.395	0	-1e10	8	-1e10	8	-1E+10	1	-1E+10	1	-1E+10	1	-1E+10	1	-1E+10	1	-1E+10	1
4902554	38	C	02/20/2022	19:01	-136.180	49.485	0	273.90	0	4.8450	0	33.8270	0	26.765	0	271.385	0	-1e10	8	-1e10	8	-1E+10	1	-1E+10	1	-1E+10	1	-1E+10	1	-1E+10	1	-1E+10	1
4902554	38	C	02/20/2022	19:01	-136.180	49.485	0	274.80	0	4.8380	0	33.8270	0	26.766	0	272.276	0	-1e10	8	-1e10	8	-1E+10	1	-1E+10	1	-1E+10	1	-1E+10	1	-1E+10	1	-1E+10	1
4902554	38	C	02/20/2022	19:01	-136.180	49.485	0	275.80	0	4.8350	0	33.8260	0	26.766	0	273.266	0	-1e10	8	-1e10	8	-1E+10	1	-1E+10	1	-1E+10	1	-1E+10	1	-1E+10	1	-1E+10	1
4902554	38	C	02/20/2022	19:01	-136.180	49.485	0	276.70	0	4.8270	0	33.8310	0	26.770	0	274.157	0	-1e10	8	-1e10	8	-1E+10	1	-1E+10	1	-1E+10	1	-1E+10	1	-1E+10	1	-1E+10	1
4902554	38	C	02/20/2022	19:01	-136.180	49.485	0	277.70	0	4.8180	0	33.8350	0	26.775	0	275.147	0	-1e10	8	-1e10	8	-1E+10	1	-1E+10	1	-1E+10	1	-1E+10	1	-1E+10	1	-1E+10	1
4902554	38	C	02/20/2022	19:01	-136.180	49.485	0	278.60	0	4.8040	0	33.8340	0	26.775	0	276.038	0	-1e10	8	-1e10	8	-1E+10	1	-1E+10	1	-1E+10	1	-1E+10	1	-1E+10	1	-1E+10	1
4902554	38	C	02/20/2022	19:01	-136.180	49.485	0	279.60	0	4.7970	0	33.8350	0	26.777	0	277.029	0	-1e10	8	-1e10	8	-1E+10	1	-1E+10	1	-1E+10	1	-1E+10	1	-1E+10	1	-1E+10	1
4902554	38	C	02/20/2022	19:01	-136.180	49.485	0	280.60	0	4.7930	0	33.8350	0	26.777	0	278.019	0	-1e10	8	-1e10	8	-1E+10	1	-1E+10	1	-1E+10	1	-1E+10	1	-1E+10	1	-1E+10	1
4902554	38	C	02/20/2022	19:01	-136.180	49.485	0	281.50	0	4.7840	0	33.8380	0	26.781	0	278.910	0	-1e10	8	-1e10	8	-1E+10	1	-1E+10	1	-1E+10	1	-1E+10	1	-1E+10	1	-1E+10	1
4902554	38	C	02/20/2022	19:01	-136.180	49.485	0	282.90	0	4.7680	0	33.8390	0	26.783	0	280.296	0	-1e10	8	-1e10	8	-1E+10	1	-1E+10	1	-1E+10	1	-1E+10	1	-1E+10	1	-1E+10	1
4902554	38	C	02/20/2022	19:01	-136.180	49.485	0	284.40	0	4.7650	0	33.8400	0	26.784	0	281.781	0	-1e10	8	-1e10	8	-1E+10	1	-1E+10	1	-1E+10	1	-1E+10	1	-1E+10	1	-1E+10	1
4902554	38	C	02/20/2022	19:01	-136.180	49.485	0	285.30	0	4.7620	0	33.8410	0	26.786	0	282.672	0	-1e10	8	-1e10	8	-1E+10	1	-1E+10	1	-1E+10	1	-1E+10	1	-1E+10	1	-1E+10	1
4902554	38	C	02/20/2022	19:01	-136.180	49.485	0	286.30	0	4.7510	0	33.8420	0	26.788	0	283.662	0	-1e10	8	-1e10	8	-1E+10	1	-1E+10	1	-1E+10	1	-1E+10	1	-1E+10	1	-1E+10	1
4902554	38	C	02/20/2022	19:01	-136.180	49.485	0	287.20	0	4.7450	0	33.8430	0	26.789	0	284.553	0	-1e10	8	-1e10	8	-1E+10	1	-1E+10	1	-1E+10	1	-1E+10	1	-1E+10	1	-1E+10	1
4902554	38	C	02/20/2022	19:01	-136.180	49.485	0	288.20	0	4.7260	0	33.8460	0	26.794	0	285.544	0	-1e10	8	-1e10	8	-1E+10	1	-1E+10	1	-1E+10	1	-1E+10	1	-1E+10	1	-1E+10	1
4902554	38	C	02/20/2022	19:01	-136.180	49.485	0	289.20	0	4.7050	0	33.8500	0	26.799	0	286.534	0	-1e10	8	-1e10	8	-1E+10	1	-1E+10	1	-1E+10	1	-1E+10	1	-1E+10	1	-1E+10	1
4902554	38	C	02/20/2022	19:01	-136.180	49.485	0	290.10	0	4.6920	0	33.8530	0	26.803	0	287.425	0	-1e10	8	-1e10	8	-1E+10	1	-1E+10	1	-1E+10	1	-1E+10	1	-1E+10	1	-1E+10	1
4902554	38	C	02/20/2022	19:01	-136.180	49.485	0	291.10	0	4.6830	0	33.8540	0	26.805	0	288.415	0	-1e10	8	-1e10	8	-1E+10	1	-1E+10	1	-1E+10	1	-1E+10	1	-1E+10	1	-1E+10	1
4902554	38	C	02/20/2022	19:01	-136.180	49.485	0	292.10	0	4.6750	0	33.8560	0	26.807	0	289.405	0	-1e10	8	-1e10	8	-1E+10	1	-1E+10	1	-1E+10	1	-1E+10	1	-1E+10	1	-1E+10	1
4902554	38	C	02/20/2022	19:01	-136.180	49.485	0	293.10	0	4.6730	0	33.8570	0	26.808	0	290.395	0	-1e10	8	-1e10	8	-1E+10	1	-1E+10	1	-1E+10	1	-1E+10	1	-1E+10	1	-1E+10	1
4902554	38	C	02/20/2022	19:01	-136.180	49.485	0	294.00	0	4.6710	0	33.8580	0	26.809	0	291.286	0	-1e10	8	-1e10	8	-1E+10	1	-1E+10	1	-1E+10	1	-1E+10	1	-1E+10	1	-1E+10	1
4902554	38	C	02/20/2022	19:01	-136.180	49.485	0	295.00	0	4.6710	0	33.8570	0	26.808	0	292.276	0	-1e10	8	-1e10	8	-1E+10	1	-1E+10	1	-1E+10	1	-1E+10	1	-1E+10	1	-1E+10	1
4902554	38	C	02/20/2022	19:01	-136.180	49.485	0	296.00	0	4.6700	0	33.8580	0	26.809	0	293.266	0	-1e10	8	-1e10	8	-1E+10	1	-1E+10	1	-1E+10	1	-1E+10	1	-1E+10	1	-1E+10	1
4902554	38	C	02/20/2022	19:01	-136.180	49.485	0	297.00	0	4.6670	0	33.8580	0	26.810	0	294.256	0	-1e10	8	-1e10	8	-1E+10	1	-1E+10	1	-1E+10	1	-1E+10	1	-1E+10	1	-1E+10	1
4902554	38	C	02/20/2022	19:01	-136.180	49.485	0	298.00	0	4.6620	0	33.8600	0	26.812	0	295.246	0	-1e10	8	-1e10	8	-1E+10	1	-1E+10	1	-1E+10	1	-1E+10	1	-1E+10	1	-1E+10	1
4902554	38	C	02/20/2022	19:01	-136.180	49.485	0	299.00	0	4.6580	0	33.8610	0	26.813	0	296.236	0	-1e10	8	-1e10	8	-1E+10	1	-1E+10	1	-1E+10	1	-1E+10	1	-1E+10	1	-1E+10	1
4902554	38	C	02/20/2022	19:01	-136.180	49.485	0	300.00	0	4.6510	0	33.8630	0	26.815	0	297.226	0	-1e10	8	-1e10	8	-1E+10	1	-1E+10	1	-1E+10	1	-1E+10	1	-1E+10	1	-1E+10	1
4902554	38	C	02/20/2022	19:01	-136.180	49.485	0	301.00	0	4.6480	0	33.8640	0	26.817	0	298.216	0	-1e10	8	-1e10	8	-1E+10	1	-1E+10	1	-1E+10	1	-1E+10	1	-1E+10	1	-1E+10	1
4902554	38	C	02/20/2022	19:01	-136.180	49.485	0	302.00	0	4.6450	0	33.8640	0	26.817	0	299.206	0	-1e10	8	-1e10	8	-1E+10	1	-1E+10	1	-1E+10	1	-1E+10	1	-1E+10	1	-1E+10	1
4902554	38	C	02/20/2022	19:01	-136.180	49.485	0	303.00	0	4.6410	0	33.8650	0	26.818	0	300.196	0	-1e10	8	-1e10	8	-1E+10	1	-1E+10	1	-1E+10	1	-1E+10	1	-1E+10	1	-1E+10	1
4902554	38	C	02/20/2022	19:01	-136.180	49.485	0	304.00	0	4.6390	0	33.8650	0	26.818	0	301.186	0	-1e10	8	-1e10	8	-1E+10	1	-1E+10	1	-1E+10	1	-1E+10	1	-1E+10	1	-1E+10	1
4902554	38	C	02/20/2022	19:01	-136.180	49.485	0	305.00	0	4.6330	0	33.8670	0	26.821	0	302.176	0	-1e10	8	-1e10	8	-1E+10	1	-1E+10	1	-1E+10	1	-1E+10	1	-1E+10	1	-1E+10	1
4902554	38	C	02/20/2022	19:01	-136.180	49.485	0	305.90	0	4.6290	0	33.8680	0	26.822	0	303.067	0	-1e10	8	-1e10	8	-1E+10	1	-1E+10	1	-1E+10	1	-1E+10	1	-1E+10	1	-1E+10	1
4902554	38	C	02/20/2022	19:01	-136.180	49.485	0	306.90	0	4.6230	0	33.8700	0	26.824	0	304.057	0	-1e10	8	-1e10	8	-1E+10	1	-1E+10	1	-1E+10	1	-1E+10	1	-1E+10	1	-1E+10	1
4902554	38	C	02/20/2022	19:01	-136.180	49.485	0	307.90	0	4.6190	0	33.8700	0	26.825	0	305.047	0	-1e10	8	-1e10	8	-1E+10	1	-1E+10	1	-1E+10	1	-1E+10	1	-1E+10	1	-1E+10	1
4902554	38	C	02/20/2022	19:01	-136.180	49.485	0	308.90	0	4.6110	0	33.8730	0	26.828	0	306.037	0	-1e10	8	-1e10	8	-1E+10	1	-1E+10	1	-1E+10	1	-1E+10	1	-1E+10	1	-1E+10	1
4902554	38	C	02/20/2022	19:01	-136.180	49.485	0	309.90	0	4.6080	0	33.8740	0	26.829	0	307.027	0	-1e10	8	-1e10	8	-1E+10	1	-1E+10	1	-1E+10	1	-1E+10	1	-1E+10	1	-1E+10	1
4902554	38	C	02/20/2022	19:01	-136.180	49.485	0	310.90	0	4.6050	0	33.8740	0	26.829	0	308.017	0	-1e10	8	-1e10	8	-1E+10	1	-1E+10	1	-1E+10	1	-1E+10	1	-1E+10	1	-1E+10	1
4902554	38	C	02/20/2022	19:01	-136.180	49.485	0	311.90	0	4.5980	0	33.8760	0	26.832	0	309.007	0	-1e10	8	-1e10	8	-1E+10	1	-1E+10	1	-1E+10	1	-1E+10	1	-1E+10	1	-1E+10	1
4902554	38	C	02/20/2022	19:01	-136.180	49.485	0	312.90	0	4.5910	0	33.8780	0	26.834	0	309.997	0	-1e10	8	-1e10	8	-1E+10	1	-1E+10	1	-1E+10	1	-1E+10	1	-1E+10	1	-1E+10	1
4902554	38	C	02/20/2022	19:01	-136.180	49.485	0	314.00	0	4.5820	0	33.8810	0	26.837	0	311.086	0	-1e10	8	-1e10	8	-1E+10	1	-1E+10	1	-1E+10	1	-1E+10	1	-1E+10	1	-1E+10	1
4902554	38	C	02/20/2022	19:01	-136.180	49.485	0	314.90	0	4.5750	0	33.8830	0	26.840	0	311.977	0	-1e10	8	-1e10	8	-1E+10	1	-1E+10	1	-1E+10	1	-1E+10	1	-1E+10	1	-1E+10	1
4902554	38	C	02/20/2022	19:01	-136.180	49.485	0	315.90	0	4.5730	0	33.8830	0	26.840	0	312.967	0	-1e10	8	-1e10	8	-1E+10	1	-1E+10	1	-1E+10	1	-1E+10	1	-1E+10	1	-1E+10	1
4902554	38	C	02/20/2022	19:01	-136.180	49.485	0	316.90	0	4.5710	0	33.8840	0	26.841	0	313.957	0	-1e10	8	-1e10	8	-1E+10	1	-1E+10	1	-1E+10	1	-1E+10	1	-1E+10	1	-1E+10	1
4902554	38	C	02/20/2022	19:01	-136.180	49.485	0	318.00	0	4.5700	0	33.8840	0	26.841	0	315.046	0	-1e10	8	-1e10	8	-1E+10	1	-1E+10	1	-1E+10	1	-1E+10	1	-1E+10	1	-1E+10	1
4902554	38	C	02/20/2022	19:01	-136.180	49.485	0	318.90	0	4.5700	0	33.8840	0	26.841	0	315.937	0	-1e10	8	-1e10	8	-1E+10	1	-1E+10	1	-1E+10	1	-1E+10	1	-1E+10	1	-1E+10	1
4902554	38	C	02/20/2022	19:01	-136.180	49.485	0	319.90	0	4.5690	0	33.8850	0	26.842	0	316.927	0	-1e10	8	-1e10	8	-1E+10	1	-1E+10	1	-1E+10	1	-1E+10	1	-1E+10	1	-1E+10	1
4902554	38	C	02/20/2022	19:01	-136.180	49.485	0	321.00	0	4.5670	0	33.8850	0	26.842	0	318.016	0	-1e10	8	-1e10	8	-1E+10	1	-1E+10	1	-1E+10	1	-1E+10	1	-1E+10	1	-1E+10	1
4902554	38	C	02/20/2022	19:01	-136.180	49.485	0	321.90	0	4.5610	0	33.8870	0	26.844	0	318.907	0	-1e10	8	-1e10	8	-1E+10	1	-1E+10	1	-1E+10	1	-1E+10	1	-1E+10	1	-1E+10	1
4902554	38	C	02/20/2022	19:01	-136.180	49.485	0	323.00	0	4.5560	0	33.8890	0	26.847	0	319.996	0	-1e10	8	-1e10	8	-1E+10	1	-1E+10	1	-1E+10	1	-1E+10	1	-1E+10	1	-1E+10	1
4902554	38	C	02/20/2022	19:01	-136.180	49.485	0	324.00	0	4.5530	0	33.8890	0	26.847	0	320.986	0	-1e10	8	-1e10	8	-1E+10	1	-1E+10	1	-1E+10	1	-1E+10	1	-1E+10	1	-1E+10	1
4902554	38	C	02/20/2022	19:01	-136.180	49.485	0	325.00	0	4.5510	0	33.8900	0	26.848	0	321.976	0	-1e10	8	-1e10	8	-1E+10	1	-1E+10	1	-1E+10	1	-1E+10	1	-1E+10	1	-1E+10	1
4902554	38	C	02/20/2022	19:01	-136.180	49.485	0	325.90	0	4.5490	0	33.8900	0	26.848	0	322.867	0	-1e10	8	-1e10	8	-1E+10	1	-1E+10	1	-1E+10	1	-1E+10	1	-1E+10	1	-1E+10	1
4902554	38	C	02/20/2022	19:01	-136.180	49.485	0	326.80	0	4.5440	0	33.8920	0	26.850	0	323.758	0	-1e10	8	-1e10	8	-1E+10	1	-1E+10	1	-1E+10	1	-1E+10	1	-1E+10	1	-1E+10	1
4902554	38	C	02/20/2022	19:01	-136.180	49.485	0	327.80	0	4.5380	0	33.8940	0	26.852	0	324.747	0	-1e10	8	-1e10	8	-1E+10	1	-1E+10	1	-1E+10	1	-1E+10	1	-1E+10	1	-1E+10	1
4902554	38	C	02/20/2022	19:01	-136.180	49.485	0	328.80	0	4.5300	0	33.8960	0	26.855	0	325.737	0	-1e10	8	-1e10	8	-1E+10	1	-1E+10	1	-1E+10	1	-1E+10	1	-1E+10	1	-1E+10	1
4902554	38	C	02/20/2022	19:01	-136.180	49.485	0	330.00	0	4.5260	0	33.8980	0	26.857	0	326.925	0	-1e10	8	-1e10	8	-1E+10	1	-1E+10	1	-1E+10	1	-1E+10	1	-1E+10	1	-1E+10	1
4902554	38	C	02/20/2022	19:01	-136.180	49.485	0	330.70	0	4.5230	0	33.8990	0	26.858	0	327.618	0	-1e10	8	-1e10	8	-1E+10	1	-1E+10	1	-1E+10	1	-1E+10	1	-1E+10	1	-1E+10	1
4902554	38	C	02/20/2022	19:01	-136.180	49.485	0	331.90	0	4.5180	0	33.9010	0	26.860	0	328.806	0	-1e10	8	-1e10	8	-1E+10	1	-1E+10	1	-1E+10	1	-1E+10	1	-1E+10	1	-1E+10	1
4902554	38	C	02/20/2022	19:01	-136.180	49.485	0	333.00	0	4.5140	0	33.9020	0	26.861	0	329.895	0	-1e10	8	-1e10	8	-1E+10	1	-1E+10	1	-1E+10	1	-1E+10	1	-1E+10	1	-1E+10	1
4902554	38	C	02/20/2022	19:01	-136.180	49.485	0	333.80	0	4.5140	0	33.9020	0	26.861	0	330.687	0	-1e10	8	-1e10	8	-1E+10	1	-1E+10	1	-1E+10	1	-1E+10	1	-1E+10	1	-1E+10	1
4902554	38	C	02/20/2022	19:01	-136.180	49.485	0	335.00	0	4.5130	0	33.9020	0	26.862	0	331.875	0	-1e10	8	-1e10	8	-1E+10	1	-1E+10	1	-1E+10	1	-1E+10	1	-1E+10	1	-1E+10	1
4902554	38	C	02/20/2022	19:01	-136.180	49.485	0	336.10	0	4.5110	0	33.9030	0	26.863	0	332.964	0	-1e10	8	-1e10	8	-1E+10	1	-1E+10	1	-1E+10	1	-1E+10	1	-1E+10	1	-1E+10	1
4902554	38	C	02/20/2022	19:01	-136.180	49.485	0	336.90	0	4.5080	0	33.9040	0	26.864	0	333.755	0	-1e10	8	-1e10	8	-1E+10	1	-1E+10	1	-1E+10	1	-1E+10	1	-1E+10	1	-1E+10	1
4902554	38	C	02/20/2022	19:01	-136.180	49.485	0	337.70	0	4.5070	0	33.9050	0	26.865	0	334.547	0	-1e10	8	-1e10	8	-1E+10	1	-1E+10	1	-1E+10	1	-1E+10	1	-1E+10	1	-1E+10	1
4902554	38	C	02/20/2022	19:01	-136.180	49.485	0	338.90	0	4.5000	0	33.9060	0	26.866	0	335.735	0	-1e10	8	-1e10	8	-1E+10	1	-1E+10	1	-1E+10	1	-1E+10	1	-1E+10	1	-1E+10	1
4902554	38	C	02/20/2022	19:01	-136.180	49.485	0	340.10	0	4.4960	0	33.9090	0	26.869	0	336.923	0	-1e10	8	-1e10	8	-1E+10	1	-1E+10	1	-1E+10	1	-1E+10	1	-1E+10	1	-1E+10	1
4902554	38	C	02/20/2022	19:01	-136.180	49.485	0	340.90	0	4.4930	0	33.9100	0	26.870	0	337.715	0	-1e10	8	-1e10	8	-1E+10	1	-1E+10	1	-1E+10	1	-1E+10	1	-1E+10	1	-1E+10	1
4902554	38	C	02/20/2022	19:01	-136.180	49.485	0	341.70	0	4.4890	0	33.9120	0	26.872	0	338.507	0	-1e10	8	-1e10	8	-1E+10	1	-1E+10	1	-1E+10	1	-1E+10	1	-1E+10	1	-1E+10	1
4902554	38	C	02/20/2022	19:01	-136.180	49.485	0	342.90	0	4.4850	0	33.9130	0	26.873	0	339.695	0	-1e10	8	-1e10	8	-1E+10	1	-1E+10	1	-1E+10	1	-1E+10	1	-1E+10	1	-1E+10	1
4902554	38	C	02/20/2022	19:01	-136.180	49.485	0	344.10	0	4.4840	0	33.9140	0	26.874	0	340.882	0	-1e10	8	-1e10	8	-1E+10	1	-1E+10	1	-1E+10	1	-1E+10	1	-1E+10	1	-1E+10	1
4902554	38	C	02/20/2022	19:01	-136.180	49.485	0	344.90	0	4.4830	0	33.9150	0	26.875	0	341.674	0	-1e10	8	-1e10	8	-1E+10	1	-1E+10	1	-1E+10	1	-1E+10	1	-1E+10	1	-1E+10	1
4902554	38	C	02/20/2022	19:01	-136.180	49.485	0	345.70	0	4.4840	0	33.9150	0	26.875	0	342.466	0	-1e10	8	-1e10	8	-1E+10	1	-1E+10	1	-1E+10	1	-1E+10	1	-1E+10	1	-1E+10	1
4902554	38	C	02/20/2022	19:01	-136.180	49.485	0	347.00	0	4.4830	0	33.9150	0	26.875	0	343.753	0	-1e10	8	-1e10	8	-1E+10	1	-1E+10	1	-1E+10	1	-1E+10	1	-1E+10	1	-1E+10	1
4902554	38	C	02/20/2022	19:01	-136.180	49.485	0	348.20	0	4.4830	0	33.9150	0	26.875	0	344.941	0	-1e10	8	-1e10	8	-1E+10	1	-1E+10	1	-1E+10	1	-1E+10	1	-1E+10	1	-1E+10	1
4902554	38	C	02/20/2022	19:01	-136.180	49.485	0	349.00	0	4.4830	0	33.9160	0	26.876	0	345.732	0	-1e10	8	-1e10	8	-1E+10	1	-1E+10	1	-1E+10	1	-1E+10	1	-1E+10	1	-1E+10	1
4902554	38	C	02/20/2022	19:01	-136.180	49.485	0	349.80	0	4.4820	0	33.9170	0	26.877	0	346.524	0	-1e10	8	-1e10	8	-1E+10	1	-1E+10	1	-1E+10	1	-1E+10	1	-1E+10	1	-1E+10	1
4902554	38	C	02/20/2022	19:01	-136.180	49.485	0	352.70	0	4.4750	0	33.9220	0	26.882	0	349.395	0	-1e10	8	-1e10	8	-1E+10	1	-1E+10	1	-1E+10	1	-1E+10	1	-1E+10	1	-1E+10	1
4902554	38	C	02/20/2022	19:01	-136.180	49.485	0	357.80	0	4.4660	0	33.9290	0	26.888	0	354.442	0	-1e10	8	-1e10	8	-1E+10	1	-1E+10	1	-1E+10	1	-1E+10	1	-1E+10	1	-1E+10	1
4902554	38	C	02/20/2022	19:01	-136.180	49.485	0	363.00	0	4.4600	0	33.9320	0	26.891	0	359.589	0	-1e10	8	-1e10	8	-1E+10	1	-1E+10	1	-1E+10	1	-1E+10	1	-1E+10	1	-1E+10	1
4902554	38	C	02/20/2022	19:01	-136.180	49.485	0	367.90	0	4.4540	0	33.9350	0	26.894	0	364.439	0	-1e10	8	-1e10	8	-1E+10	1	-1E+10	1	-1E+10	1	-1E+10	1	-1E+10	1	-1E+10	1
4902554	38	C	02/20/2022	19:01	-136.180	49.485	0	372.70	0	4.4430	0	33.9410	0	26.900	0	369.189	0	-1e10	8	-1e10	8	-1E+10	1	-1E+10	1	-1E+10	1	-1E+10	1	-1E+10	1	-1E+10	1
4902554	38	C	02/20/2022	19:01	-136.180	49.485	0	378.10	0	4.4310	0	33.9470	0	26.906	0	374.534	0	-1e10	8	-1e10	8	-1E+10	1	-1E+10	1	-1E+10	1	-1E+10	1	-1E+10	1	-1E+10	1
4902554	38	C	02/20/2022	19:01	-136.180	49.485	0	383.20	0	4.4270	0	33.9500	0	26.909	0	379.581	0	-1e10	8	-1e10	8	-1E+10	1	-1E+10	1	-1E+10	1	-1E+10	1	-1E+10	1	-1E+10	1
4902554	38	C	02/20/2022	19:01	-136.180	49.485	0	387.80	0	4.4110	0	33.9570	0	26.917	0	384.133	0	-1e10	8	-1e10	8	-1E+10	1	-1E+10	1	-1E+10	1	-1E+10	1	-1E+10	1	-1E+10	1
4902554	38	C	02/20/2022	19:01	-136.180	49.485	0	393.00	0	4.4000	0	33.9620	0	26.922	0	389.279	0	-1e10	8	-1e10	8	-1E+10	1	-1E+10	1	-1E+10	1	-1E+10	1	-1E+10	1	-1E+10	1
4902554	38	C	02/20/2022	19:01	-136.180	49.485	0	398.20	0	4.3940	0	33.9670	0	26.926	0	394.425	0	-1e10	8	-1e10	8	-1E+10	1	-1E+10	1	-1E+10	1	-1E+10	1	-1E+10	1	-1E+10	1
4902554	38	C	02/20/2022	19:01	-136.180	49.485	0	403.00	0	4.3860	0	33.9740	0	26.933	0	399.175	0	-1e10	8	-1e10	8	-1E+10	1	-1E+10	1	-1E+10	1	-1E+10	1	-1E+10	1	-1E+10	1
4902554	38	C	02/20/2022	19:01	-136.180	49.485	0	407.90	0	4.3710	0	33.9810	0	26.940	0	404.024	0	-1e10	8	-1e10	8	-1E+10	1	-1E+10	1	-1E+10	1	-1E+10	1	-1E+10	1	-1E+10	1
4902554	38	C	02/20/2022	19:01	-136.180	49.485	0	412.70	0	4.3570	0	33.9860	0	26.946	0	408.773	0	-1e10	8	-1e10	8	-1E+10	1	-1E+10	1	-1E+10	1	-1E+10	1	-1E+10	1	-1E+10	1
4902554	38	C	02/20/2022	19:01	-136.180	49.485	0	417.60	0	4.3400	0	33.9910	0	26.951	0	413.622	0	-1e10	8	-1e10	8	-1E+10	1	-1E+10	1	-1E+10	1	-1E+10	1	-1E+10	1	-1E+10	1
4902554	38	C	02/20/2022	19:01	-136.180	49.485	0	422.60	0	4.3340	0	33.9960	0	26.956	0	418.569	0	-1e10	8	-1e10	8	-1E+10	1	-1E+10	1	-1E+10	1	-1E+10	1	-1E+10	1	-1E+10	1
4902554	38	C	02/20/2022	19:01	-136.180	49.485	0	427.60	0	4.3290	0	34.0010	0	26.961	0	423.516	0	-1e10	8	-1e10	8	-1E+10	1	-1E+10	1	-1E+10	1	-1E+10	1	-1E+10	1	-1E+10	1
4902554	38	C	02/20/2022	19:01	-136.180	49.485	0	432.60	0	4.3200	0	34.0060	0	26.966	0	428.463	0	-1e10	8	-1e10	8	-1E+10	1	-1E+10	1	-1E+10	1	-1E+10	1	-1E+10	1	-1E+10	1
4902554	38	C	02/20/2022	19:01	-136.180	49.485	0	437.60	0	4.3110	0	34.0080	0	26.968	0	433.410	0	-1e10	8	-1e10	8	-1E+10	1	-1E+10	1	-1E+10	1	-1E+10	1	-1E+10	1	-1E+10	1
4902554	38	C	02/20/2022	19:01	-136.180	49.485	0	442.50	0	4.2960	0	34.0150	0	26.975	0	438.258	0	-1e10	8	-1e10	8	-1E+10	1	-1E+10	1	-1E+10	1	-1E+10	1	-1E+10	1	-1E+10	1
4902554	38	C	02/20/2022	19:01	-136.180	49.485	0	447.40	0	4.2850	0	34.0210	0	26.981	0	443.106	0	-1e10	8	-1e10	8	-1E+10	1	-1E+10	1	-1E+10	1	-1E+10	1	-1E+10	1	-1E+10	1
4902554	38	C	02/20/2022	19:01	-136.180	49.485	0	452.90	0	4.2710	0	34.0250	0	26.986	0	448.547	0	-1e10	8	-1e10	8	-1E+10	1	-1E+10	1	-1E+10	1	-1E+10	1	-1E+10	1	-1E+10	1
4902554	38	C	02/20/2022	19:01	-136.180	49.485	0	458.40	0	4.2620	0	34.0330	0	26.993	0	453.988	0	-1e10	8	-1e10	8	-1E+10	1	-1E+10	1	-1E+10	1	-1E+10	1	-1E+10	1	-1E+10	1
4902554	38	C	02/20/2022	19:01	-136.180	49.485	0	463.30	0	4.2540	0	34.0380	0	26.998	0	458.836	0	-1e10	8	-1e10	8	-1E+10	1	-1E+10	1	-1E+10	1	-1E+10	1	-1E+10	1	-1E+10	1
4902554	38	C	02/20/2022	19:01	-136.180	49.485	0	468.30	0	4.2440	0	34.0440	0	27.004	0	463.782	0	-1e10	8	-1e10	8	-1E+10	1	-1E+10	1	-1E+10	1	-1E+10	1	-1E+10	1	-1E+10	1
4902554	38	C	02/20/2022	19:01	-136.180	49.485	0	473.30	0	4.2380	0	34.0470	0	27.007	0	468.728	0	-1e10	8	-1e10	8	-1E+10	1	-1E+10	1	-1E+10	1	-1E+10	1	-1E+10	1	-1E+10	1
4902554	38	C	02/20/2022	19:01	-136.180	49.485	0	478.40	0	4.2280	0	34.0520	0	27.012	0	473.773	0	-1e10	8	-1e10	8	-1E+10	1	-1E+10	1	-1E+10	1	-1E+10	1	-1E+10	1	-1E+10	1
4902554	38	C	02/20/2022	19:01	-136.180	49.485	0	482.90	0	4.2130	0	34.0610	0	27.021	0	478.224	0	-1e10	8	-1e10	8	-1E+10	1	-1E+10	1	-1E+10	1	-1E+10	1	-1E+10	1	-1E+10	1
4902554	38	C	02/20/2022	19:01	-136.180	49.485	0	487.50	0	4.2010	0	34.0660	0	27.026	0	482.775	0	-1e10	8	-1e10	8	-1E+10	1	-1E+10	1	-1E+10	1	-1E+10	1	-1E+10	1	-1E+10	1
4902554	38	C	02/20/2022	19:01	-136.180	49.485	0	492.70	0	4.1890	0	34.0720	0	27.032	0	487.918	0	-1e10	8	-1e10	8	-1E+10	1	-1E+10	1	-1E+10	1	-1E+10	1	-1E+10	1	-1E+10	1
4902554	38	C	02/20/2022	19:01	-136.180	49.485	0	498.00	0	4.1730	0	34.0780	0	27.039	0	493.160	0	-1e10	8	-1e10	8	-1E+10	1	-1E+10	1	-1E+10	1	-1E+10	1	-1E+10	1	-1E+10	1
4902554	38	C	02/20/2022	19:01	-136.180	49.485	0	503.20	0	4.1600	0	34.0840	0	27.045	0	498.304	0	-1e10	8	-1e10	8	-1E+10	1	-1E+10	1	-1E+10	1	-1E+10	1	-1E+10	1	-1E+10	1
4902554	38	C	02/20/2022	19:01	-136.180	49.485	0	508.10	0	4.1530	0	34.0870	0	27.048	0	503.150	0	-1e10	8	-1e10	8	-1E+10	1	-1E+10	1	-1E+10	1	-1E+10	1	-1E+10	1	-1E+10	1
4902554	38	C	02/20/2022	19:01	-136.180	49.485	0	513.10	0	4.1440	0	34.0920	0	27.053	0	508.095	0	-1e10	8	-1e10	8	-1E+10	1	-1E+10	1	-1E+10	1	-1E+10	1	-1E+10	1	-1E+10	1
4902554	38	C	02/20/2022	19:01	-136.180	49.485	0	517.90	0	4.1390	0	34.0960	0	27.057	0	512.842	0	-1e10	8	-1e10	8	-1E+10	1	-1E+10	1	-1E+10	1	-1E+10	1	-1E+10	1	-1E+10	1
4902554	38	C	02/20/2022	19:01	-136.180	49.485	0	522.80	0	4.1280	0	34.1010	0	27.062	0	517.688	0	-1e10	8	-1e10	8	-1E+10	1	-1E+10	1	-1E+10	1	-1E+10	1	-1E+10	1	-1E+10	1
4902554	38	C	02/20/2022	19:01	-136.180	49.485	0	527.90	0	4.1170	0	34.1040	0	27.065	0	522.732	0	-1e10	8	-1e10	8	-1E+10	1	-1E+10	1	-1E+10	1	-1E+10	1	-1E+10	1	-1E+10	1
4902554	38	C	02/20/2022	19:01	-136.180	49.485	0	533.00	0	4.1120	0	34.1060	0	27.068	0	527.776	0	-1e10	8	-1e10	8	-1E+10	1	-1E+10	1	-1E+10	1	-1E+10	1	-1E+10	1	-1E+10	1
4902554	38	C	02/20/2022	19:01	-136.180	49.485	0	538.10	0	4.0980	0	34.1120	0	27.074	0	532.819	0	-1e10	8	-1e10	8	-1E+10	1	-1E+10	1	-1E+10	1	-1E+10	1	-1E+10	1	-1E+10	1
4902554	38	C	02/20/2022	19:01	-136.180	49.485	0	542.90	0	4.0790	0	34.1180	0	27.081	0	537.566	0	-1e10	8	-1e10	8	-1E+10	1	-1E+10	1	-1E+10	1	-1E+10	1	-1E+10	1	-1E+10	1
4902554	38	C	02/20/2022	19:01	-136.180	49.485	0	547.80	0	4.0660	0	34.1250	0	27.087	0	542.411	0	-1e10	8	-1e10	8	-1E+10	1	-1E+10	1	-1E+10	1	-1E+10	1	-1E+10	1	-1E+10	1
4902554	38	C	02/20/2022	19:01	-136.180	49.485	0	552.80	0	4.0570	0	34.1280	0	27.091	0	547.356	0	-1e10	8	-1e10	8	-1E+10	1	-1E+10	1	-1E+10	1	-1E+10	1	-1E+10	1	-1E+10	1
4902554	38	C	02/20/2022	19:01	-136.180	49.485	0	557.80	0	4.0470	0	34.1340	0	27.097	0	552.300	0	-1e10	8	-1e10	8	-1E+10	1	-1E+10	1	-1E+10	1	-1E+10	1	-1E+10	1	-1E+10	1
4902554	38	C	02/20/2022	19:01	-136.180	49.485	0	562.90	0	4.0260	0	34.1410	0	27.104	0	557.343	0	-1e10	8	-1e10	8	-1E+10	1	-1E+10	1	-1E+10	1	-1E+10	1	-1E+10	1	-1E+10	1
4902554	38	C	02/20/2022	19:01	-136.180	49.485	0	568.00	0	4.0110	0	34.1470	0	27.111	0	562.385	0	-1e10	8	-1e10	8	-1E+10	1	-1E+10	1	-1E+10	1	-1E+10	1	-1E+10	1	-1E+10	1
4902554	38	C	02/20/2022	19:01	-136.180	49.485	0	573.00	0	4.0000	0	34.1500	0	27.114	0	567.329	0	-1e10	8	-1e10	8	-1E+10	1	-1E+10	1	-1E+10	1	-1E+10	1	-1E+10	1	-1E+10	1
4902554	38	C	02/20/2022	19:01	-136.180	49.485	0	578.10	0	3.9820	0	34.1570	0	27.122	0	572.372	0	-1e10	8	-1e10	8	-1E+10	1	-1E+10	1	-1E+10	1	-1E+10	1	-1E+10	1	-1E+10	1
4902554	38	C	02/20/2022	19:01	-136.180	49.485	0	583.20	0	3.9690	0	34.1610	0	27.126	0	577.414	0	-1e10	8	-1e10	8	-1E+10	1	-1E+10	1	-1E+10	1	-1E+10	1	-1E+10	1	-1E+10	1
4902554	38	C	02/20/2022	19:01	-136.180	49.485	0	588.30	0	3.9640	0	34.1620	0	27.128	0	582.456	0	-1e10	8	-1e10	8	-1E+10	1	-1E+10	1	-1E+10	1	-1E+10	1	-1E+10	1	-1E+10	1
4902554	38	C	02/20/2022	19:01	-136.180	49.485	0	593.30	0	3.9540	0	34.1660	0	27.132	0	587.400	0	-1e10	8	-1e10	8	-1E+10	1	-1E+10	1	-1E+10	1	-1E+10	1	-1E+10	1	-1E+10	1
4902554	38	C	02/20/2022	19:01	-136.180	49.485	0	598.30	0	3.9410	0	34.1700	0	27.136	0	592.343	0	-1e10	8	-1e10	8	-1E+10	1	-1E+10	1	-1E+10	1	-1E+10	1	-1E+10	1	-1E+10	1
4902554	38	C	02/20/2022	19:01	-136.180	49.485	0	603.30	0	3.9310	0	34.1720	0	27.139	0	597.286	0	-1e10	8	-1e10	8	-1E+10	1	-1E+10	1	-1E+10	1	-1E+10	1	-1E+10	1	-1E+10	1
4902554	38	C	02/20/2022	19:01	-136.180	49.485	0	607.90	0	3.9160	0	34.1780	0	27.145	0	601.833	0	-1e10	8	-1e10	8	-1E+10	1	-1E+10	1	-1E+10	1	-1E+10	1	-1E+10	1	-1E+10	1
4902554	38	C	02/20/2022	19:01	-136.180	49.485	0	612.50	0	3.9080	0	34.1800	0	27.148	0	606.381	0	-1e10	8	-1e10	8	-1E+10	1	-1E+10	1	-1E+10	1	-1E+10	1	-1E+10	1	-1E+10	1
4902554	38	C	02/20/2022	19:01	-136.180	49.485	0	617.50	0	3.8950	0	34.1840	0	27.152	0	611.324	0	-1e10	8	-1e10	8	-1E+10	1	-1E+10	1	-1E+10	1	-1E+10	1	-1E+10	1	-1E+10	1
4902554	38	C	02/20/2022	19:01	-136.180	49.485	0	622.90	0	3.8810	0	34.1880	0	27.157	0	616.662	0	-1e10	8	-1e10	8	-1E+10	1	-1E+10	1	-1E+10	1	-1E+10	1	-1E+10	1	-1E+10	1
4902554	38	C	02/20/2022	19:01	-136.180	49.485	0	628.40	0	3.8620	0	34.1930	0	27.163	0	622.098	0	-1e10	8	-1e10	8	-1E+10	1	-1E+10	1	-1E+10	1	-1E+10	1	-1E+10	1	-1E+10	1
4902554	38	C	02/20/2022	19:01	-136.180	49.485	0	633.30	0	3.8470	0	34.1970	0	27.168	0	626.942	0	-1e10	8	-1e10	8	-1E+10	1	-1E+10	1	-1E+10	1	-1E+10	1	-1E+10	1	-1E+10	1
4902554	38	C	02/20/2022	19:01	-136.180	49.485	0	638.30	0	3.8350	0	34.2000	0	27.171	0	631.884	0	-1e10	8	-1e10	8	-1E+10	1	-1E+10	1	-1E+10	1	-1E+10	1	-1E+10	1	-1E+10	1
4902554	38	C	02/20/2022	19:01	-136.180	49.485	0	643.40	0	3.8200	0	34.2040	0	27.176	0	636.925	0	-1e10	8	-1e10	8	-1E+10	1	-1E+10	1	-1E+10	1	-1E+10	1	-1E+10	1	-1E+10	1
4902554	38	C	02/20/2022	19:01	-136.180	49.485	0	648.00	0	3.8120	0	34.2060	0	27.178	0	641.471	0	-1e10	8	-1e10	8	-1E+10	1	-1E+10	1	-1E+10	1	-1E+10	1	-1E+10	1	-1E+10	1
4902554	38	C	02/20/2022	19:01	-136.180	49.485	0	652.60	0	3.8000	0	34.2090	0	27.182	0	646.018	0	-1e10	8	-1e10	8	-1E+10	1	-1E+10	1	-1E+10	1	-1E+10	1	-1E+10	1	-1E+10	1
4902554	38	C	02/20/2022	19:01	-136.180	49.485	0	657.70	0	3.7850	0	34.2120	0	27.186	0	651.059	0	-1e10	8	-1e10	8	-1E+10	1	-1E+10	1	-1E+10	1	-1E+10	1	-1E+10	1	-1E+10	1
4902554	38	C	02/20/2022	19:01	-136.180	49.485	0	662.80	0	3.7710	0	34.2150	0	27.190	0	656.099	0	-1e10	8	-1e10	8	-1E+10	1	-1E+10	1	-1E+10	1	-1E+10	1	-1E+10	1	-1E+10	1
4902554	38	C	02/20/2022	19:01	-136.180	49.485	0	667.80	0	3.7640	0	34.2160	0	27.191	0	661.041	0	-1e10	8	-1e10	8	-1E+10	1	-1E+10	1	-1E+10	1	-1E+10	1	-1E+10	1	-1E+10	1
4902554	38	C	02/20/2022	19:01	-136.180	49.485	0	672.80	0	3.7490	0	34.2200	0	27.196	0	665.982	0	-1e10	8	-1e10	8	-1E+10	1	-1E+10	1	-1E+10	1	-1E+10	1	-1E+10	1	-1E+10	1
4902554	38	C	02/20/2022	19:01	-136.180	49.485	0	678.00	0	3.7370	0	34.2220	0	27.199	0	671.121	0	-1e10	8	-1e10	8	-1E+10	1	-1E+10	1	-1E+10	1	-1E+10	1	-1E+10	1	-1E+10	1
4902554	38	C	02/20/2022	19:01	-136.180	49.485	0	683.10	0	3.7220	0	34.2260	0	27.203	0	676.161	0	-1e10	8	-1e10	8	-1E+10	1	-1E+10	1	-1E+10	1	-1E+10	1	-1E+10	1	-1E+10	1
4902554	38	C	02/20/2022	19:01	-136.180	49.485	0	687.80	0	3.7100	0	34.2280	0	27.206	0	680.805	0	-1e10	8	-1e10	8	-1E+10	1	-1E+10	1	-1E+10	1	-1E+10	1	-1E+10	1	-1E+10	1
4902554	38	C	02/20/2022	19:01	-136.180	49.485	0	693.00	0	3.6950	0	34.2320	0	27.211	0	685.944	0	-1e10	8	-1e10	8	-1E+10	1	-1E+10	1	-1E+10	1	-1E+10	1	-1E+10	1	-1E+10	1
4902554	38	C	02/20/2022	19:01	-136.180	49.485	0	698.20	0	3.6800	0	34.2360	0	27.216	0	691.083	0	-1e10	8	-1e10	8	-1E+10	1	-1E+10	1	-1E+10	1	-1E+10	1	-1E+10	1	-1E+10	1
4902554	38	C	02/20/2022	19:01	-136.180	49.485	0	703.20	0	3.6700	0	34.2390	0	27.219	0	696.023	0	-1e10	8	-1e10	8	-1E+10	1	-1E+10	1	-1E+10	1	-1E+10	1	-1E+10	1	-1E+10	1
4902554	38	C	02/20/2022	19:01	-136.180	49.485	0	708.20	0	3.6580	0	34.2420	0	27.223	0	700.964	0	-1e10	8	-1e10	8	-1E+10	1	-1E+10	1	-1E+10	1	-1E+10	1	-1E+10	1	-1E+10	1
4902554	38	C	02/20/2022	19:01	-136.180	49.485	0	712.90	0	3.6500	0	34.2440	0	27.225	0	705.608	0	-1e10	8	-1e10	8	-1E+10	1	-1E+10	1	-1E+10	1	-1E+10	1	-1E+10	1	-1E+10	1
4902554	38	C	02/20/2022	19:01	-136.180	49.485	0	717.60	0	3.6410	0	34.2470	0	27.228	0	710.252	0	-1e10	8	-1e10	8	-1E+10	1	-1E+10	1	-1E+10	1	-1E+10	1	-1E+10	1	-1E+10	1
4902554	38	C	02/20/2022	19:01	-136.180	49.485	0	722.80	0	3.6280	0	34.2500	0	27.232	0	715.390	0	-1e10	8	-1e10	8	-1E+10	1	-1E+10	1	-1E+10	1	-1E+10	1	-1E+10	1	-1E+10	1
4902554	38	C	02/20/2022	19:01	-136.180	49.485	0	727.80	0	3.6150	0	34.2530	0	27.236	0	720.330	0	-1e10	8	-1e10	8	-1E+10	1	-1E+10	1	-1E+10	1	-1E+10	1	-1E+10	1	-1E+10	1
4902554	38	C	02/20/2022	19:01	-136.180	49.485	0	732.80	0	3.6030	0	34.2560	0	27.239	0	725.270	0	-1e10	8	-1e10	8	-1E+10	1	-1E+10	1	-1E+10	1	-1E+10	1	-1E+10	1	-1E+10	1
4902554	38	C	02/20/2022	19:01	-136.180	49.485	0	737.90	0	3.5880	0	34.2590	0	27.243	0	730.308	0	-1e10	8	-1e10	8	-1E+10	1	-1E+10	1	-1E+10	1	-1E+10	1	-1E+10	1	-1E+10	1
4902554	38	C	02/20/2022	19:01	-136.180	49.485	0	743.00	0	3.5690	0	34.2620	0	27.247	0	735.347	0	-1e10	8	-1e10	8	-1E+10	1	-1E+10	1	-1E+10	1	-1E+10	1	-1E+10	1	-1E+10	1
4902554	38	C	02/20/2022	19:01	-136.180	49.485	0	748.20	0	3.5540	0	34.2650	0	27.251	0	740.484	0	-1e10	8	-1e10	8	-1E+10	1	-1E+10	1	-1E+10	1	-1E+10	1	-1E+10	1	-1E+10	1
4902554	38	C	02/20/2022	19:01	-136.180	49.485	0	753.00	0	3.5440	0	34.2660	0	27.253	0	745.226	0	-1e10	8	-1e10	8	-1E+10	1	-1E+10	1	-1E+10	1	-1E+10	1	-1E+10	1	-1E+10	1
4902554	38	C	02/20/2022	19:01	-136.180	49.485	0	757.80	0	3.5330	0	34.2670	0	27.255	0	749.968	0	-1e10	8	-1e10	8	-1E+10	1	-1E+10	1	-1E+10	1	-1E+10	1	-1E+10	1	-1E+10	1
4902554	38	C	02/20/2022	19:01	-136.180	49.485	0	762.70	0	3.5120	0	34.2710	0	27.260	0	754.808	0	-1e10	8	-1e10	8	-1E+10	1	-1E+10	1	-1E+10	1	-1E+10	1	-1E+10	1	-1E+10	1
4902554	38	C	02/20/2022	19:01	-136.180	49.485	0	767.60	0	3.4990	0	34.2730	0	27.263	0	759.649	0	-1e10	8	-1e10	8	-1E+10	1	-1E+10	1	-1E+10	1	-1E+10	1	-1E+10	1	-1E+10	1
4902554	38	C	02/20/2022	19:01	-136.180	49.485	0	772.60	0	3.4920	0	34.2740	0	27.265	0	764.588	0	-1e10	8	-1e10	8	-1E+10	1	-1E+10	1	-1E+10	1	-1E+10	1	-1E+10	1	-1E+10	1
4902554	38	C	02/20/2022	19:01	-136.180	49.485	0	777.70	0	3.4850	0	34.2750	0	27.266	0	769.626	0	-1e10	8	-1e10	8	-1E+10	1	-1E+10	1	-1E+10	1	-1E+10	1	-1E+10	1	-1E+10	1
4902554	38	C	02/20/2022	19:01	-136.180	49.485	0	782.80	0	3.4710	0	34.2770	0	27.269	0	774.663	0	-1e10	8	-1e10	8	-1E+10	1	-1E+10	1	-1E+10	1	-1E+10	1	-1E+10	1	-1E+10	1
4902554	38	C	02/20/2022	19:01	-136.180	49.485	0	788.00	0	3.4610	0	34.2790	0	27.272	0	779.799	0	-1e10	8	-1e10	8	-1E+10	1	-1E+10	1	-1E+10	1	-1E+10	1	-1E+10	1	-1E+10	1
4902554	38	C	02/20/2022	19:01	-136.180	49.485	0	792.80	0	3.4580	0	34.2810	0	27.274	0	784.540	0	-1e10	8	-1e10	8	-1E+10	1	-1E+10	1	-1E+10	1	-1E+10	1	-1E+10	1	-1E+10	1
4902554	38	C	02/20/2022	19:01	-136.180	49.485	0	797.50	0	3.4500	0	34.2830	0	27.276	0	789.183	0	-1e10	8	-1e10	8	-1E+10	1	-1E+10	1	-1E+10	1	-1E+10	1	-1E+10	1	-1E+10	1
4902554	38	C	02/20/2022	19:01	-136.180	49.485	0	803.00	0	3.4410	0	34.2850	0	27.278	0	794.615	0	-1e10	8	-1e10	8	-1E+10	1	-1E+10	1	-1E+10	1	-1E+10	1	-1E+10	1	-1E+10	1
4902554	38	C	02/20/2022	19:01	-136.180	49.485	0	807.90	0	3.4350	0	34.2860	0	27.280	0	799.454	0	-1e10	8	-1e10	8	-1E+10	1	-1E+10	1	-1E+10	1	-1E+10	1	-1E+10	1	-1E+10	1
4902554	38	C	02/20/2022	19:01	-136.180	49.485	0	812.70	0	3.4280	0	34.2870	0	27.281	0	804.195	0	-1e10	8	-1e10	8	-1E+10	1	-1E+10	1	-1E+10	1	-1E+10	1	-1E+10	1	-1E+10	1
4902554	38	C	02/20/2022	19:01	-136.180	49.485	0	817.90	0	3.4050	0	34.2910	0	27.287	0	809.330	0	-1e10	8	-1e10	8	-1E+10	1	-1E+10	1	-1E+10	1	-1E+10	1	-1E+10	1	-1E+10	1
4902554	38	C	02/20/2022	19:01	-136.180	49.485	0	823.20	0	3.3920	0	34.2930	0	27.290	0	814.564	0	-1e10	8	-1e10	8	-1E+10	1	-1E+10	1	-1E+10	1	-1E+10	1	-1E+10	1	-1E+10	1
4902554	38	C	02/20/2022	19:01	-136.180	49.485	0	828.20	0	3.3790	0	34.2960	0	27.293	0	819.502	0	-1e10	8	-1e10	8	-1E+10	1	-1E+10	1	-1E+10	1	-1E+10	1	-1E+10	1	-1E+10	1
4902554	38	C	02/20/2022	19:01	-136.180	49.485	0	833.20	0	3.3710	0	34.2980	0	27.296	0	824.440	0	-1e10	8	-1e10	8	-1E+10	1	-1E+10	1	-1E+10	1	-1E+10	1	-1E+10	1	-1E+10	1
4902554	38	C	02/20/2022	19:01	-136.180	49.485	0	838.30	0	3.3620	0	34.3000	0	27.298	0	829.476	0	-1e10	8	-1e10	8	-1E+10	1	-1E+10	1	-1E+10	1	-1E+10	1	-1E+10	1	-1E+10	1
4902554	38	C	02/20/2022	19:01	-136.180	49.485	0	842.90	0	3.3560	0	34.3010	0	27.300	0	834.018	0	-1e10	8	-1e10	8	-1E+10	1	-1E+10	1	-1E+10	1	-1E+10	1	-1E+10	1	-1E+10	1
4902554	38	C	02/20/2022	19:01	-136.180	49.485	0	847.80	0	3.3460	0	34.3030	0	27.302	0	838.857	0	-1e10	8	-1e10	8	-1E+10	1	-1E+10	1	-1E+10	1	-1E+10	1	-1E+10	1	-1E+10	1
4902554	38	C	02/20/2022	19:01	-136.180	49.485	0	852.90	0	3.3360	0	34.3050	0	27.305	0	843.893	0	-1e10	8	-1e10	8	-1E+10	1	-1E+10	1	-1E+10	1	-1E+10	1	-1E+10	1	-1E+10	1
4902554	38	C	02/20/2022	19:01	-136.180	49.485	0	858.00	0	3.3260	0	34.3070	0	27.307	0	848.929	0	-1e10	8	-1e10	8	-1E+10	1	-1E+10	1	-1E+10	1	-1E+10	1	-1E+10	1	-1E+10	1
4902554	38	C	02/20/2022	19:01	-136.180	49.485	0	863.00	0	3.3220	0	34.3080	0	27.308	0	853.866	0	-1e10	8	-1e10	8	-1E+10	1	-1E+10	1	-1E+10	1	-1E+10	1	-1E+10	1	-1E+10	1
4902554	38	C	02/20/2022	19:01	-136.180	49.485	0	867.90	0	3.3190	0	34.3080	0	27.309	0	858.704	0	-1e10	8	-1e10	8	-1E+10	1	-1E+10	1	-1E+10	1	-1E+10	1	-1E+10	1	-1E+10	1
4902554	38	C	02/20/2022	19:01	-136.180	49.485	0	873.00	0	3.3150	0	34.3090	0	27.310	0	863.739	0	-1e10	8	-1e10	8	-1E+10	1	-1E+10	1	-1E+10	1	-1E+10	1	-1E+10	1	-1E+10	1
4902554	38	C	02/20/2022	19:01	-136.180	49.485	0	877.90	0	3.3030	0	34.3110	0	27.313	0	868.577	0	-1e10	8	-1e10	8	-1E+10	1	-1E+10	1	-1E+10	1	-1E+10	1	-1E+10	1	-1E+10	1
4902554	38	C	02/20/2022	19:01	-136.180	49.485	0	882.90	0	3.2840	0	34.3150	0	27.318	0	873.513	0	-1e10	8	-1e10	8	-1E+10	1	-1E+10	1	-1E+10	1	-1E+10	1	-1E+10	1	-1E+10	1
4902554	38	C	02/20/2022	19:01	-136.180	49.485	0	888.00	0	3.2700	0	34.3180	0	27.321	0	878.549	0	-1e10	8	-1e10	8	-1E+10	1	-1E+10	1	-1E+10	1	-1E+10	1	-1E+10	1	-1E+10	1
4902554	38	C	02/20/2022	19:01	-136.180	49.485	0	893.10	0	3.2590	0	34.3200	0	27.324	0	883.583	0	-1e10	8	-1e10	8	-1E+10	1	-1E+10	1	-1E+10	1	-1E+10	1	-1E+10	1	-1E+10	1
4902554	38	C	02/20/2022	19:01	-136.180	49.485	0	897.90	0	3.2500	0	34.3220	0	27.327	0	888.322	0	-1e10	8	-1e10	8	-1E+10	1	-1E+10	1	-1E+10	1	-1E+10	1	-1E+10	1	-1E+10	1
4902554	38	C	02/20/2022	19:01	-136.180	49.485	0	902.70	0	3.2460	0	34.3230	0	27.328	0	893.061	0	-1e10	8	-1e10	8	-1E+10	1	-1E+10	1	-1E+10	1	-1E+10	1	-1E+10	1	-1E+10	1
4902554	38	C	02/20/2022	19:01	-136.180	49.485	0	907.90	0	3.2390	0	34.3250	0	27.330	0	898.194	0	-1e10	8	-1e10	8	-1E+10	1	-1E+10	1	-1E+10	1	-1E+10	1	-1E+10	1	-1E+10	1
4902554	38	C	02/20/2022	19:01	-136.180	49.485	0	912.90	0	3.2300	0	34.3270	0	27.333	0	903.130	0	-1e10	8	-1e10	8	-1E+10	1	-1E+10	1	-1E+10	1	-1E+10	1	-1E+10	1	-1E+10	1
4902554	38	C	02/20/2022	19:01	-136.180	49.485	0	918.00	0	3.2190	0	34.3290	0	27.335	0	908.164	0	-1e10	8	-1e10	8	-1E+10	1	-1E+10	1	-1E+10	1	-1E+10	1	-1E+10	1	-1E+10	1
4902554	38	C	02/20/2022	19:01	-136.180	49.485	0	923.00	0	3.2080	0	34.3310	0	27.338	0	913.100	0	-1e10	8	-1e10	8	-1E+10	1	-1E+10	1	-1E+10	1	-1E+10	1	-1E+10	1	-1E+10	1
4902554	38	C	02/20/2022	19:01	-136.180	49.485	0	927.90	0	3.1990	0	34.3330	0	27.340	0	917.936	0	-1e10	8	-1e10	8	-1E+10	1	-1E+10	1	-1E+10	1	-1E+10	1	-1E+10	1	-1E+10	1
4902554	38	C	02/20/2022	19:01	-136.180	49.485	0	932.80	0	3.1870	0	34.3360	0	27.344	0	922.773	0	-1e10	8	-1e10	8	-1E+10	1	-1E+10	1	-1E+10	1	-1E+10	1	-1E+10	1	-1E+10	1
4902554	38	C	02/20/2022	19:01	-136.180	49.485	0	937.80	0	3.1770	0	34.3380	0	27.346	0	927.708	0	-1e10	8	-1e10	8	-1E+10	1	-1E+10	1	-1E+10	1	-1E+10	1	-1E+10	1	-1E+10	1
4902554	38	C	02/20/2022	19:01	-136.180	49.485	0	942.80	0	3.1720	0	34.3390	0	27.348	0	932.643	0	-1e10	8	-1e10	8	-1E+10	1	-1E+10	1	-1E+10	1	-1E+10	1	-1E+10	1	-1E+10	1
4902554	38	C	02/20/2022	19:01	-136.180	49.485	0	947.80	0	3.1570	0	34.3420	0	27.351	0	937.578	0	-1e10	8	-1e10	8	-1E+10	1	-1E+10	1	-1E+10	1	-1E+10	1	-1E+10	1	-1E+10	1
4902554	38	C	02/20/2022	19:01	-136.180	49.485	0	952.80	0	3.1520	0	34.3430	0	27.353	0	942.513	0	-1e10	8	-1e10	8	-1E+10	1	-1E+10	1	-1E+10	1	-1E+10	1	-1E+10	1	-1E+10	1
4902554	38	C	02/20/2022	19:01	-136.180	49.485	0	957.90	0	3.1450	0	34.3440	0	27.354	0	947.546	0	-1e10	8	-1e10	8	-1E+10	1	-1E+10	1	-1E+10	1	-1E+10	1	-1E+10	1	-1E+10	1
4902554	38	C	02/20/2022	19:01	-136.180	49.485	0	963.00	0	3.1320	0	34.3470	0	27.358	0	952.580	0	-1e10	8	-1e10	8	-1E+10	1	-1E+10	1	-1E+10	1	-1E+10	1	-1E+10	1	-1E+10	1
4902554	38	C	02/20/2022	19:01	-136.180	49.485	0	968.20	0	3.1280	0	34.3480	0	27.359	0	957.712	0	-1e10	8	-1e10	8	-1E+10	1	-1E+10	1	-1E+10	1	-1E+10	1	-1E+10	1	-1E+10	1
4902554	38	C	02/20/2022	19:01	-136.180	49.485	0	973.30	0	3.1200	0	34.3490	0	27.361	0	962.745	0	-1e10	8	-1e10	8	-1E+10	1	-1E+10	1	-1E+10	1	-1E+10	1	-1E+10	1	-1E+10	1
4902554	38	C	02/20/2022	19:01	-136.180	49.485	0	978.00	0	3.1140	0	34.3510	0	27.363	0	967.383	0	-1e10	8	-1e10	8	-1E+10	1	-1E+10	1	-1E+10	1	-1E+10	1	-1E+10	1	-1E+10	1
4902554	38	C	02/20/2022	19:01	-136.180	49.485	0	982.70	0	3.1010	0	34.3530	0	27.366	0	972.021	0	-1e10	8	-1e10	8	-1E+10	1	-1E+10	1	-1E+10	1	-1E+10	1	-1E+10	1	-1E+10	1
4902554	38	C	02/20/2022	19:01	-136.180	49.485	0	987.90	0	3.0840	0	34.3570	0	27.370	0	977.152	0	-1e10	8	-1e10	8	-1E+10	1	-1E+10	1	-1E+10	1	-1E+10	1	-1E+10	1	-1E+10	1
4902554	38	C	02/20/2022	19:01	-136.180	49.485	0	993.10	0	3.0740	0	34.3590	0	27.373	0	982.283	0	-1e10	8	-1e10	8	-1E+10	1	-1E+10	1	-1E+10	1	-1E+10	1	-1E+10	1	-1E+10	1
4902554	38	C	02/20/2022	19:01	-136.180	49.485	0	998.00	0	3.0680	0	34.3610	0	27.375	0	987.119	0	-1e10	8	-1e10	8	-1E+10	1	-1E+10	1	-1E+10	1	-1E+10	1	-1E+10	1	-1E+10	1
4902554	38	C	02/20/2022	19:01	-136.180	49.485	0	1005.20	0	3.0600	0	34.3620	0	27.377	0	994.223	0	-1e10	8	-1e10	8	-1E+10	1	-1E+10	1	-1E+10	1	-1E+10	1	-1E+10	1	-1E+10	1
4902554	38	C	02/20/2022	19:01	-136.180	49.485	0	1015.50	0	3.0440	0	34.3650	0	27.381	0	1004.386	0	-1e10	8	-1e10	8	-1E+10	1	-1E+10	1	-1E+10	1	-1E+10	1	-1E+10	1	-1E+10	1
4902554	38	C	02/20/2022	19:01	-136.180	49.485	0	1025.70	0	3.0360	0	34.3670	0	27.383	0	1014.449	0	-1e10	8	-1e10	8	-1E+10	1	-1E+10	1	-1E+10	1	-1E+10	1	-1E+10	1	-1E+10	1
4902554	38	C	02/20/2022	19:01	-136.180	49.485	0	1035.70	0	3.0220	0	34.3690	0	27.386	0	1024.315	0	-1e10	8	-1e10	8	-1E+10	1	-1E+10	1	-1E+10	1	-1E+10	1	-1E+10	1	-1E+10	1
4902554	38	C	02/20/2022	19:01	-136.180	49.485	0	1045.80	0	2.9940	0	34.3740	0	27.392	0	1034.280	0	-1e10	8	-1e10	8	-1E+10	1	-1E+10	1	-1E+10	1	-1E+10	1	-1E+10	1	-1E+10	1
4902554	38	C	02/20/2022	19:01	-136.180	49.485	0	1055.50	0	2.9780	0	34.3780	0	27.397	0	1043.849	0	-1e10	8	-1e10	8	-1E+10	1	-1E+10	1	-1E+10	1	-1E+10	1	-1E+10	1	-1E+10	1
4902554	38	C	02/20/2022	19:01	-136.180	49.485	0	1065.80	0	2.9560	0	34.3820	0	27.402	0	1054.009	0	-1e10	8	-1e10	8	-1E+10	1	-1E+10	1	-1E+10	1	-1E+10	1	-1E+10	1	-1E+10	1
4902554	38	C	02/20/2022	19:01	-136.180	49.485	0	1075.60	0	2.9430	0	34.3850	0	27.406	0	1063.676	0	-1e10	8	-1e10	8	-1E+10	1	-1E+10	1	-1E+10	1	-1E+10	1	-1E+10	1	-1E+10	1
4902554	38	C	02/20/2022	19:01	-136.180	49.485	0	1085.30	0	2.9260	0	34.3880	0	27.410	0	1073.243	0	-1e10	8	-1e10	8	-1E+10	1	-1E+10	1	-1E+10	1	-1E+10	1	-1E+10	1	-1E+10	1
4902554	38	C	02/20/2022	19:01	-136.180	49.485	0	1095.20	0	2.8960	0	34.3930	0	27.417	0	1083.008	0	-1e10	8	-1e10	8	-1E+10	1	-1E+10	1	-1E+10	1	-1E+10	1	-1E+10	1	-1E+10	1
4902554	38	C	02/20/2022	19:01	-136.180	49.485	0	1105.20	0	2.8840	0	34.3950	0	27.419	0	1092.870	0	-1e10	8	-1e10	8	-1E+10	1	-1E+10	1	-1E+10	1	-1E+10	1	-1E+10	1	-1E+10	1
4902554	38	C	02/20/2022	19:01	-136.180	49.485	0	1115.20	0	2.8730	0	34.3970	0	27.422	0	1102.733	0	-1e10	8	-1e10	8	-1E+10	1	-1E+10	1	-1E+10	1	-1E+10	1	-1E+10	1	-1E+10	1
4902554	38	C	02/20/2022	19:01	-136.180	49.485	0	1125.30	0	2.8480	0	34.4020	0	27.428	0	1112.693	0	-1e10	8	-1e10	8	-1E+10	1	-1E+10	1	-1E+10	1	-1E+10	1	-1E+10	1	-1E+10	1
4902554	38	C	02/20/2022	19:01	-136.180	49.485	0	1135.50	0	2.8290	0	34.4060	0	27.433	0	1122.752	0	-1e10	8	-1e10	8	-1E+10	1	-1E+10	1	-1E+10	1	-1E+10	1	-1E+10	1	-1E+10	1
4902554	38	C	02/20/2022	19:01	-136.180	49.485	0	1145.40	0	2.8100	0	34.4100	0	27.438	0	1132.514	0	-1e10	8	-1e10	8	-1E+10	1	-1E+10	1	-1E+10	1	-1E+10	1	-1E+10	1	-1E+10	1
4902554	38	C	02/20/2022	19:01	-136.180	49.485	0	1155.10	0	2.7920	0	34.4130	0	27.442	0	1142.078	0	-1e10	8	-1e10	8	-1E+10	1	-1E+10	1	-1E+10	1	-1E+10	1	-1E+10	1	-1E+10	1
4902554	38	C	02/20/2022	19:01	-136.180	49.485	0	1164.90	0	2.7770	0	34.4160	0	27.446	0	1151.741	0	-1e10	8	-1e10	8	-1E+10	1	-1E+10	1	-1E+10	1	-1E+10	1	-1E+10	1	-1E+10	1
4902554	38	C	02/20/2022	19:01	-136.180	49.485	0	1175.10	0	2.7660	0	34.4180	0	27.448	0	1161.798	0	-1e10	8	-1e10	8	-1E+10	1	-1E+10	1	-1E+10	1	-1E+10	1	-1E+10	1	-1E+10	1
4902554	38	C	02/20/2022	19:01	-136.180	49.485	0	1185.60	0	2.7530	0	34.4210	0	27.452	0	1172.149	0	-1e10	8	-1e10	8	-1E+10	1	-1E+10	1	-1E+10	1	-1E+10	1	-1E+10	1	-1E+10	1
4902554	38	C	02/20/2022	19:01	-136.180	49.485	0	1195.60	0	2.7350	0	34.4250	0	27.457	0	1182.008	0	-1e10	8	-1e10	8	-1E+10	1	-1E+10	1	-1E+10	1	-1E+10	1	-1E+10	1	-1E+10	1
4902554	38	C	02/20/2022	19:01	-136.180	49.485	0	1205.20	0	2.7230	0	34.4270	0	27.460	0	1191.471	0	-1e10	8	-1e10	8	-1E+10	1	-1E+10	1	-1E+10	1	-1E+10	1	-1E+10	1	-1E+10	1
4902554	38	C	02/20/2022	19:01	-136.180	49.485	0	1215.10	0	2.7080	0	34.4300	0	27.463	0	1201.230	0	-1e10	8	-1e10	8	-1E+10	1	-1E+10	1	-1E+10	1	-1E+10	1	-1E+10	1	-1E+10	1
4902554	38	C	02/20/2022	19:01	-136.180	49.485	0	1225.10	0	2.6940	0	34.4320	0	27.466	0	1211.088	0	-1e10	8	-1e10	8	-1E+10	1	-1E+10	1	-1E+10	1	-1E+10	1	-1E+10	1	-1E+10	1
4902554	38	C	02/20/2022	19:01	-136.180	49.485	0	1235.10	0	2.6790	0	34.4350	0	27.470	0	1220.944	0	-1e10	8	-1e10	8	-1E+10	1	-1E+10	1	-1E+10	1	-1E+10	1	-1E+10	1	-1E+10	1
4902554	38	C	02/20/2022	19:01	-136.180	49.485	0	1245.30	0	2.6620	0	34.4390	0	27.475	0	1230.998	0	-1e10	8	-1e10	8	-1E+10	1	-1E+10	1	-1E+10	1	-1E+10	1	-1E+10	1	-1E+10	1
4902554	38	C	02/20/2022	19:01	-136.180	49.485	0	1255.20	0	2.6450	0	34.4420	0	27.479	0	1240.755	0	-1e10	8	-1e10	8	-1E+10	1	-1E+10	1	-1E+10	1	-1E+10	1	-1E+10	1	-1E+10	1
4902554	38	C	02/20/2022	19:01	-136.180	49.485	0	1265.30	0	2.6360	0	34.4440	0	27.481	0	1250.708	0	-1e10	8	-1e10	8	-1E+10	1	-1E+10	1	-1E+10	1	-1E+10	1	-1E+10	1	-1E+10	1
4902554	38	C	02/20/2022	19:01	-136.180	49.485	0	1275.40	0	2.6270	0	34.4460	0	27.483	0	1260.662	0	-1e10	8	-1e10	8	-1E+10	1	-1E+10	1	-1E+10	1	-1E+10	1	-1E+10	1	-1E+10	1
4902554	38	C	02/20/2022	19:01	-136.180	49.485	0	1285.40	0	2.6210	0	34.4470	0	27.485	0	1270.516	0	-1e10	8	-1e10	8	-1E+10	1	-1E+10	1	-1E+10	1	-1E+10	1	-1E+10	1	-1E+10	1
4902554	38	C	02/20/2022	19:01	-136.180	49.485	0	1295.10	0	2.6090	0	34.4490	0	27.487	0	1280.074	0	-1e10	8	-1e10	8	-1E+10	1	-1E+10	1	-1E+10	1	-1E+10	1	-1E+10	1	-1E+10	1
4902554	38	C	02/20/2022	19:01	-136.180	49.485	0	1305.10	0	2.5910	0	34.4530	0	27.492	0	1289.928	0	-1e10	8	-1e10	8	-1E+10	1	-1E+10	1	-1E+10	1	-1E+10	1	-1E+10	1	-1E+10	1
4902554	38	C	02/20/2022	19:01	-136.180	49.485	0	1315.50	0	2.5820	0	34.4550	0	27.495	0	1300.175	0	-1e10	8	-1e10	8	-1E+10	1	-1E+10	1	-1E+10	1	-1E+10	1	-1E+10	1	-1E+10	1
4902554	38	C	02/20/2022	19:01	-136.180	49.485	0	1325.50	0	2.5760	0	34.4560	0	27.496	0	1310.027	0	-1e10	8	-1e10	8	-1E+10	1	-1E+10	1	-1E+10	1	-1E+10	1	-1E+10	1	-1E+10	1
4902554	38	C	02/20/2022	19:01	-136.180	49.485	0	1335.40	0	2.5660	0	34.4580	0	27.499	0	1319.780	0	-1e10	8	-1e10	8	-1E+10	1	-1E+10	1	-1E+10	1	-1E+10	1	-1E+10	1	-1E+10	1
4902554	38	C	02/20/2022	19:01	-136.180	49.485	0	1345.40	0	2.5500	0	34.4610	0	27.502	0	1329.632	0	-1e10	8	-1e10	8	-1E+10	1	-1E+10	1	-1E+10	1	-1E+10	1	-1E+10	1	-1E+10	1
4902554	38	C	02/20/2022	19:01	-136.180	49.485	0	1355.40	0	2.5380	0	34.4630	0	27.505	0	1339.483	0	-1e10	8	-1e10	8	-1E+10	1	-1E+10	1	-1E+10	1	-1E+10	1	-1E+10	1	-1E+10	1
4902554	38	C	02/20/2022	19:01	-136.180	49.485	0	1365.30	0	2.5270	0	34.4650	0	27.508	0	1349.235	0	-1e10	8	-1e10	8	-1E+10	1	-1E+10	1	-1E+10	1	-1E+10	1	-1E+10	1	-1E+10	1
4902554	38	C	02/20/2022	19:01	-136.180	49.485	0	1375.40	0	2.5180	0	34.4670	0	27.510	0	1359.184	0	-1e10	8	-1e10	8	-1E+10	1	-1E+10	1	-1E+10	1	-1E+10	1	-1E+10	1	-1E+10	1
4902554	38	C	02/20/2022	19:01	-136.180	49.485	0	1385.80	0	2.5030	0	34.4710	0	27.515	0	1369.427	0	-1e10	8	-1e10	8	-1E+10	1	-1E+10	1	-1E+10	1	-1E+10	1	-1E+10	1	-1E+10	1
4902554	38	C	02/20/2022	19:01	-136.180	49.485	0	1395.80	0	2.4930	0	34.4730	0	27.517	0	1379.277	0	-1e10	8	-1e10	8	-1E+10	1	-1E+10	1	-1E+10	1	-1E+10	1	-1E+10	1	-1E+10	1
4902554	38	C	02/20/2022	19:01	-136.180	49.485	0	1405.70	0	2.4890	0	34.4740	0	27.518	0	1389.027	0	-1e10	8	-1e10	8	-1E+10	1	-1E+10	1	-1E+10	1	-1E+10	1	-1E+10	1	-1E+10	1
4902554	38	C	02/20/2022	19:01	-136.180	49.485	0	1415.70	0	2.4820	0	34.4750	0	27.520	0	1398.875	0	-1e10	8	-1e10	8	-1E+10	1	-1E+10	1	-1E+10	1	-1E+10	1	-1E+10	1	-1E+10	1
4902554	38	C	02/20/2022	19:01	-136.180	49.485	0	1425.80	0	2.4730	0	34.4770	0	27.522	0	1408.821	0	-1e10	8	-1e10	8	-1E+10	1	-1E+10	1	-1E+10	1	-1E+10	1	-1E+10	1	-1E+10	1
4902554	38	C	02/20/2022	19:01	-136.180	49.485	0	1435.70	0	2.4680	0	34.4780	0	27.523	0	1418.570	0	-1e10	8	-1e10	8	-1E+10	1	-1E+10	1	-1E+10	1	-1E+10	1	-1E+10	1	-1E+10	1
4902554	38	C	02/20/2022	19:01	-136.180	49.485	0	1445.50	0	2.4590	0	34.4800	0	27.526	0	1428.220	0	-1e10	8	-1e10	8	-1E+10	1	-1E+10	1	-1E+10	1	-1E+10	1	-1E+10	1	-1E+10	1
4902554	38	C	02/20/2022	19:01	-136.180	49.485	0	1455.50	0	2.4450	0	34.4820	0	27.529	0	1438.067	0	-1e10	8	-1e10	8	-1E+10	1	-1E+10	1	-1E+10	1	-1E+10	1	-1E+10	1	-1E+10	1
4902554	38	C	02/20/2022	19:01	-136.180	49.485	0	1465.70	0	2.4340	0	34.4840	0	27.531	0	1448.109	0	-1e10	8	-1e10	8	-1E+10	1	-1E+10	1	-1E+10	1	-1E+10	1	-1E+10	1	-1E+10	1
4902554	38	C	02/20/2022	19:01	-136.180	49.485	0	1475.40	0	2.4220	0	34.4870	0	27.535	0	1457.660	0	-1e10	8	-1e10	8	-1E+10	1	-1E+10	1	-1E+10	1	-1E+10	1	-1E+10	1	-1E+10	1
4902554	38	C	02/20/2022	19:01	-136.180	49.485	0	1485.40	0	2.4090	0	34.4890	0	27.537	0	1467.505	0	-1e10	8	-1e10	8	-1E+10	1	-1E+10	1	-1E+10	1	-1E+10	1	-1E+10	1	-1E+10	1
4902554	38	C	02/20/2022	19:01	-136.180	49.485	0	1495.50	0	2.3990	0	34.4910	0	27.540	0	1477.448	0	-1e10	8	-1e10	8	-1E+10	1	-1E+10	1	-1E+10	1	-1E+10	1	-1E+10	1	-1E+10	1
4902554	38	C	02/20/2022	19:01	-136.180	49.485	0	1505.40	0	2.3890	0	34.4930	0	27.542	0	1487.193	0	-1e10	8	-1e10	8	-1E+10	1	-1E+10	1	-1E+10	1	-1E+10	1	-1E+10	1	-1E+10	1
4902554	38	C	02/20/2022	19:01	-136.180	49.485	0	1515.60	0	2.3780	0	34.4950	0	27.545	0	1497.234	0	-1e10	8	-1e10	8	-1E+10	1	-1E+10	1	-1E+10	1	-1E+10	1	-1E+10	1	-1E+10	1
4902554	38	C	02/20/2022	19:01	-136.180	49.485	0	1525.50	0	2.3690	0	34.4970	0	27.547	0	1506.979	0	-1e10	8	-1e10	8	-1E+10	1	-1E+10	1	-1E+10	1	-1E+10	1	-1E+10	1	-1E+10	1
4902554	38	C	02/20/2022	19:01	-136.180	49.485	0	1535.40	0	2.3600	0	34.4990	0	27.550	0	1516.723	0	-1e10	8	-1e10	8	-1E+10	1	-1E+10	1	-1E+10	1	-1E+10	1	-1E+10	1	-1E+10	1
4902554	38	C	02/20/2022	19:01	-136.180	49.485	0	1545.60	0	2.3530	0	34.5000	0	27.551	0	1526.762	0	-1e10	8	-1e10	8	-1E+10	1	-1E+10	1	-1E+10	1	-1E+10	1	-1E+10	1	-1E+10	1
4902554	38	C	02/20/2022	19:01	-136.180	49.485	0	1555.60	0	2.3410	0	34.5030	0	27.555	0	1536.604	0	-1e10	8	-1e10	8	-1E+10	1	-1E+10	1	-1E+10	1	-1E+10	1	-1E+10	1	-1E+10	1
4902554	38	C	02/20/2022	19:01	-136.180	49.485	0	1565.40	0	2.3280	0	34.5050	0	27.557	0	1546.248	0	-1e10	8	-1e10	8	-1E+10	1	-1E+10	1	-1E+10	1	-1E+10	1	-1E+10	1	-1E+10	1
4902554	38	C	02/20/2022	19:01	-136.180	49.485	0	1575.20	0	2.3150	0	34.5080	0	27.561	0	1555.892	0	-1e10	8	-1e10	8	-1E+10	1	-1E+10	1	-1E+10	1	-1E+10	1	-1E+10	1	-1E+10	1
4902554	38	C	02/20/2022	19:01	-136.180	49.485	0	1585.20	0	2.3030	0	34.5110	0	27.564	0	1565.733	0	-1e10	8	-1e10	8	-1E+10	1	-1E+10	1	-1E+10	1	-1E+10	1	-1E+10	1	-1E+10	1
4902554	38	C	02/20/2022	19:01	-136.180	49.485	0	1595.10	0	2.2890	0	34.5140	0	27.568	0	1575.475	0	-1e10	8	-1e10	8	-1E+10	1	-1E+10	1	-1E+10	1	-1E+10	1	-1E+10	1	-1E+10	1
4902554	38	C	02/20/2022	19:01	-136.180	49.485	0	1605.00	0	2.2750	0	34.5160	0	27.571	0	1585.216	0	-1e10	8	-1e10	8	-1E+10	1	-1E+10	1	-1E+10	1	-1E+10	1	-1E+10	1	-1E+10	1
4902554	38	C	02/20/2022	19:01	-136.180	49.485	0	1615.00	0	2.2590	0	34.5190	0	27.574	0	1595.055	0	-1e10	8	-1e10	8	-1E+10	1	-1E+10	1	-1E+10	1	-1E+10	1	-1E+10	1	-1E+10	1
4902554	38	C	02/20/2022	19:01	-136.180	49.485	0	1625.00	0	2.2550	0	34.5210	0	27.576	0	1604.893	0	-1e10	8	-1e10	8	-1E+10	1	-1E+10	1	-1E+10	1	-1E+10	1	-1E+10	1	-1E+10	1
4902554	38	C	02/20/2022	19:01	-136.180	49.485	0	1635.20	0	2.2450	0	34.5220	0	27.578	0	1614.928	0	-1e10	8	-1e10	8	-1E+10	1	-1E+10	1	-1E+10	1	-1E+10	1	-1E+10	1	-1E+10	1
4902554	38	C	02/20/2022	19:01	-136.180	49.485	0	1645.50	0	2.2340	0	34.5250	0	27.581	0	1625.061	0	-1e10	8	-1e10	8	-1E+10	1	-1E+10	1	-1E+10	1	-1E+10	1	-1E+10	1	-1E+10	1
4902554	38	C	02/20/2022	19:01	-136.180	49.485	0	1655.60	0	2.2280	0	34.5260	0	27.583	0	1634.997	0	-1e10	8	-1e10	8	-1E+10	1	-1E+10	1	-1E+10	1	-1E+10	1	-1E+10	1	-1E+10	1
4902554	38	C	02/20/2022	19:01	-136.180	49.485	0	1665.30	0	2.2220	0	34.5270	0	27.584	0	1644.539	0	-1e10	8	-1e10	8	-1E+10	1	-1E+10	1	-1E+10	1	-1E+10	1	-1E+10	1	-1E+10	1
4902554	38	C	02/20/2022	19:01	-136.180	49.485	0	1675.00	0	2.2090	0	34.5290	0	27.587	0	1654.080	0	-1e10	8	-1e10	8	-1E+10	1	-1E+10	1	-1E+10	1	-1E+10	1	-1E+10	1	-1E+10	1
4902554	38	C	02/20/2022	19:01	-136.180	49.485	0	1685.40	0	2.2010	0	34.5310	0	27.589	0	1664.309	0	-1e10	8	-1e10	8	-1E+10	1	-1E+10	1	-1E+10	1	-1E+10	1	-1E+10	1	-1E+10	1
4902554	38	C	02/20/2022	19:01	-136.180	49.485	0	1695.50	0	2.1950	0	34.5330	0	27.591	0	1674.243	0	-1e10	8	-1e10	8	-1E+10	1	-1E+10	1	-1E+10	1	-1E+10	1	-1E+10	1	-1E+10	1
4902554	38	C	02/20/2022	19:01	-136.180	49.485	0	1705.60	0	2.1870	0	34.5340	0	27.593	0	1684.176	0	-1e10	8	-1e10	8	-1E+10	1	-1E+10	1	-1E+10	1	-1E+10	1	-1E+10	1	-1E+10	1
4902554	38	C	02/20/2022	19:01	-136.180	49.485	0	1715.80	0	2.1760	0	34.5360	0	27.595	0	1694.207	0	-1e10	8	-1e10	8	-1E+10	1	-1E+10	1	-1E+10	1	-1E+10	1	-1E+10	1	-1E+10	1
4902554	38	C	02/20/2022	19:01	-136.180	49.485	0	1725.70	0	2.1610	0	34.5390	0	27.599	0	1703.943	0	-1e10	8	-1e10	8	-1E+10	1	-1E+10	1	-1E+10	1	-1E+10	1	-1E+10	1	-1E+10	1
4902554	38	C	02/20/2022	19:01	-136.180	49.485	0	1735.50	0	2.1520	0	34.5410	0	27.601	0	1713.580	0	-1e10	8	-1e10	8	-1E+10	1	-1E+10	1	-1E+10	1	-1E+10	1	-1E+10	1	-1E+10	1
4902554	38	C	02/20/2022	19:01	-136.180	49.485	0	1745.70	0	2.1410	0	34.5430	0	27.604	0	1723.610	0	-1e10	8	-1e10	8	-1E+10	1	-1E+10	1	-1E+10	1	-1E+10	1	-1E+10	1	-1E+10	1
4902554	38	C	02/20/2022	19:01	-136.180	49.485	0	1755.50	0	2.1290	0	34.5460	0	27.607	0	1733.246	0	-1e10	8	-1e10	8	-1E+10	1	-1E+10	1	-1E+10	1	-1E+10	1	-1E+10	1	-1E+10	1
4902554	38	C	02/20/2022	19:01	-136.180	49.485	0	1765.40	0	2.1170	0	34.5480	0	27.610	0	1742.980	0	-1e10	8	-1e10	8	-1E+10	1	-1E+10	1	-1E+10	1	-1E+10	1	-1E+10	1	-1E+10	1
4902554	38	C	02/20/2022	19:01	-136.180	49.485	0	1775.20	0	2.1090	0	34.5500	0	27.612	0	1752.615	0	-1e10	8	-1e10	8	-1E+10	1	-1E+10	1	-1E+10	1	-1E+10	1	-1E+10	1	-1E+10	1
4902554	38	C	02/20/2022	19:01	-136.180	49.485	0	1785.30	0	2.0970	0	34.5520	0	27.615	0	1762.544	0	-1e10	8	-1e10	8	-1E+10	1	-1E+10	1	-1E+10	1	-1E+10	1	-1E+10	1	-1E+10	1
4902554	38	C	02/20/2022	19:01	-136.180	49.485	0	1795.50	0	2.0850	0	34.5540	0	27.617	0	1772.572	0	-1e10	8	-1e10	8	-1E+10	1	-1E+10	1	-1E+10	1	-1E+10	1	-1E+10	1	-1E+10	1
4902554	38	C	02/20/2022	19:01	-136.180	49.485	0	1805.50	0	2.0800	0	34.5560	0	27.619	0	1782.402	0	-1e10	8	-1e10	8	-1E+10	1	-1E+10	1	-1E+10	1	-1E+10	1	-1E+10	1	-1E+10	1
4902554	38	C	02/20/2022	19:01	-136.180	49.485	0	1815.50	0	2.0660	0	34.5580	0	27.622	0	1792.232	0	-1e10	8	-1e10	8	-1E+10	1	-1E+10	1	-1E+10	1	-1E+10	1	-1E+10	1	-1E+10	1
4902554	38	C	02/20/2022	19:01	-136.180	49.485	0	1825.50	0	2.0550	0	34.5600	0	27.625	0	1802.061	0	-1e10	8	-1e10	8	-1E+10	1	-1E+10	1	-1E+10	1	-1E+10	1	-1E+10	1	-1E+10	1
4902554	38	C	02/20/2022	19:01	-136.180	49.485	0	1835.40	0	2.0440	0	34.5630	0	27.628	0	1811.792	0	-1e10	8	-1e10	8	-1E+10	1	-1E+10	1	-1E+10	1	-1E+10	1	-1E+10	1	-1E+10	1
4902554	38	C	02/20/2022	19:01	-136.180	49.485	0	1845.60	0	2.0370	0	34.5640	0	27.629	0	1821.817	0	-1e10	8	-1e10	8	-1E+10	1	-1E+10	1	-1E+10	1	-1E+10	1	-1E+10	1	-1E+10	1
4902554	38	C	02/20/2022	19:01	-136.180	49.485	0	1855.50	0	2.0290	0	34.5650	0	27.631	0	1831.547	0	-1e10	8	-1e10	8	-1E+10	1	-1E+10	1	-1E+10	1	-1E+10	1	-1E+10	1	-1E+10	1
4902554	38	C	02/20/2022	19:01	-136.180	49.485	0	1865.50	0	2.0220	0	34.5670	0	27.633	0	1841.375	0	-1e10	8	-1e10	8	-1E+10	1	-1E+10	1	-1E+10	1	-1E+10	1	-1E+10	1	-1E+10	1
4902554	38	C	02/20/2022	19:01	-136.180	49.485	0	1875.80	0	2.0130	0	34.5690	0	27.635	0	1851.497	0	-1e10	8	-1e10	8	-1E+10	1	-1E+10	1	-1E+10	1	-1E+10	1	-1E+10	1	-1E+10	1
4902554	38	C	02/20/2022	19:01	-136.180	49.485	0	1885.40	0	2.0040	0	34.5700	0	27.637	0	1860.930	0	-1e10	8	-1e10	8	-1E+10	1	-1E+10	1	-1E+10	1	-1E+10	1	-1E+10	1	-1E+10	1
4902554	38	C	02/20/2022	19:01	-136.180	49.485	0	1895.30	0	2.0010	0	34.5710	0	27.638	0	1870.658	0	-1e10	8	-1e10	8	-1E+10	1	-1E+10	1	-1E+10	1	-1E+10	1	-1E+10	1	-1E+10	1
4902554	38	C	02/20/2022	19:01	-136.180	49.485	0	1905.30	0	1.9970	0	34.5720	0	27.639	0	1880.484	0	-1e10	8	-1e10	8	-1E+10	1	-1E+10	1	-1E+10	1	-1E+10	1	-1E+10	1	-1E+10	1
4902554	38	C	02/20/2022	19:01	-136.180	49.485	0	1915.70	0	1.9950	0	34.5730	0	27.640	0	1890.702	0	-1e10	8	-1e10	8	-1E+10	1	-1E+10	1	-1E+10	1	-1E+10	1	-1E+10	1	-1E+10	1
4902554	38	C	02/20/2022	19:01	-136.180	49.485	0	1925.60	0	1.9910	0	34.5740	0	27.641	0	1900.429	0	-1e10	8	-1e10	8	-1E+10	1	-1E+10	1	-1E+10	1	-1E+10	1	-1E+10	1	-1E+10	1
4902554	38	C	02/20/2022	19:01	-136.180	49.485	0	1935.20	0	1.9850	0	34.5750	0	27.643	0	1909.861	0	-1e10	8	-1e10	8	-1E+10	1	-1E+10	1	-1E+10	1	-1E+10	1	-1E+10	1	-1E+10	1
4902554	38	C	02/20/2022	19:01	-136.180	49.485	0	1945.20	0	1.9770	0	34.5760	0	27.644	0	1919.685	0	-1e10	8	-1e10	8	-1E+10	1	-1E+10	1	-1E+10	1	-1E+10	1	-1E+10	1	-1E+10	1
4902554	38	C	02/20/2022	19:01	-136.180	49.485	0	1955.20	0	1.9750	0	34.5770	0	27.645	0	1929.508	0	-1e10	8	-1e10	8	-1E+10	1	-1E+10	1	-1E+10	1	-1E+10	1	-1E+10	1	-1E+10	1
4902554	38	C	02/20/2022	19:01	-136.180	49.485	0	1965.30	0	1.9730	0	34.5780	0	27.646	0	1939.430	0	-1e10	8	-1e10	8	-1E+10	1	-1E+10	1	-1E+10	1	-1E+10	1	-1E+10	1	-1E+10	1
4902554	38	C	02/20/2022	19:01	-136.180	49.485	0	1975.60	0	1.9670	0	34.5790	0	27.647	0	1949.547	0	-1e10	8	-1e10	8	-1E+10	1	-1E+10	1	-1E+10	1	-1E+10	1	-1E+10	1	-1E+10	1
4902554	38	C	02/20/2022	19:01	-136.180	49.485	0	1985.30	0	1.9630	0	34.5800	0	27.649	0	1959.074	0	-1e10	8	-1e10	8	-1E+10	1	-1E+10	1	-1E+10	1	-1E+10	1	-1E+10	1	-1E+10	1
4902554	38	C	02/20/2022	19:01	-136.180	49.485	0	1995.50	0	1.9590	0	34.5800	0	27.649	0	1969.093	0	-1e10	8	-1e10	8	-1E+10	1	-1E+10	1	-1E+10	1	-1E+10	1	-1E+10	1	-1E+10	1
4902554	38	C	02/20/2022	19:01	-136.180	49.485	0	2005.50	0	1.9520	0	34.5820	0	27.651	0	1978.914	0	-1e10	8	-1e10	8	-1E+10	1	-1E+10	1	-1E+10	1	-1E+10	1	-1E+10	1	-1E+10	1
4902554	38	C	02/20/2022	19:01	-136.180	49.485	0	2013.20	0	1.9490	0	34.5830	0	27.652	0	1986.476	0	-1e10	8	-1e10	8	-1E+10	1	-1E+10	1	-1E+10	1	-1E+10	1	-1E+10	1	-1E+10	1
4902554	38	C	02/20/2022	19:01	-136.180	49.485	0																										
4902554	39	C	03/02/2022	23:54	-136.184	49.499	0	1.30	0	6.8210	0	32.3430	0	25.350	0	1.289	0	-1e10	8	-1e10	8	-1E+10	1	-1E+10	1	-1E+10	1	-1E+10	1	-1E+10	1	-1E+10	1
4902554	39	C	03/02/2022	23:54	-136.184	49.499	0	1.40	0	6.8230	0	32.3420	0	25.349	0	1.388	0	-1e10	8	-1e10	8	-1E+10	1	-1E+10	1	-1E+10	1	-1E+10	1	-1E+10	1	-1E+10	1
4902554	39	C	03/02/2022	23:54	-136.184	49.499	0	1.70	0	6.8213	0	32.3433	0	25.350	0	1.685	0	-1e10	1	-1e10	1	-1E+10	1	-1E+10	1	-1E+10	1	-1E+10	1	-1E+10	1	-1E+10	1
4902554	39	C	03/02/2022	23:54	-136.184	49.499	0	2.10	0	6.8190	0	32.3450	0	25.352	0	2.082	0	-1e10	8	-1e10	8	-1E+10	1	-1E+10	1	-1E+10	1	-1E+10	1	-1E+10	1	-1E+10	1
4902554	39	C	03/02/2022	23:54	-136.184	49.499	0	2.60	0	6.8175	0	32.3415	0	25.349	0	2.578	0	-1e10	1	-1e10	1	-1E+10	1	-1E+10	1	-1E+10	1	-1E+10	1	-1E+10	1	-1E+10	1
4902554	39	C	03/02/2022	23:54	-136.184	49.499	0	3.00	0	6.8163	0	32.3387	0	25.347	0	2.974	0	-1e10	1	-1e10	1	-1E+10	1	-1E+10	1	-1E+10	1	-1E+10	1	-1E+10	1	-1E+10	1
4902554	39	C	03/02/2022	23:54	-136.184	49.499	0	3.10	0	6.8160	0	32.3380	0	25.347	0	3.074	0	-1e10	8	-1e10	8	-1E+10	1	-1E+10	1	-1E+10	1	-1E+10	1	-1E+10	1	-1E+10	1
4902554	39	C	03/02/2022	23:54	-136.184	49.499	0	4.00	0	6.8140	0	32.3400	0	25.349	0	3.966	0	-1e10	8	-1e10	8	-1E+10	1	-1E+10	1	-1E+10	1	-1E+10	1	-1E+10	1	-1E+10	1
4902554	39	C	03/02/2022	23:54	-136.184	49.499	0	5.00	0	6.8140	0	32.3400	0	25.349	0	4.957	0	-1e10	8	-1e10	8	-1E+10	1	-1E+10	1	-1E+10	1	-1E+10	1	-1E+10	1	-1E+10	1
4902554	39	C	03/02/2022	23:54	-136.184	49.499	0	5.90	0	6.8150	0	32.3410	0	25.349	0	5.850	0	-1e10	8	-1e10	8	-1E+10	1	-1E+10	1	-1E+10	1	-1E+10	1	-1E+10	1	-1E+10	1
4902554	39	C	03/02/2022	23:54	-136.184	49.499	0	7.00	0	6.8120	0	32.3400	0	25.349	0	6.940	0	-1e10	8	-1e10	8	-1E+10	1	-1E+10	1	-1E+10	1	-1E+10	1	-1E+10	1	-1E+10	1
4902554	39	C	03/02/2022	23:54	-136.184	49.499	0	7.90	0	6.8060	0	32.3390	0	25.349	0	7.832	0	-1e10	8	-1e10	8	-1E+10	1	-1E+10	1	-1E+10	1	-1E+10	1	-1E+10	1	-1E+10	1
4902554	39	C	03/02/2022	23:54	-136.184	49.499	0	9.10	0	6.8030	0	32.3410	0	25.351	0	9.022	0	-1e10	8	-1e10	8	-1E+10	1	-1E+10	1	-1E+10	1	-1E+10	1	-1E+10	1	-1E+10	1
4902554	39	C	03/02/2022	23:54	-136.184	49.499	0	10.00	0	6.8030	0	32.3390	0	25.349	0	9.914	0	-1e10	8	-1e10	8	-1E+10	1	-1E+10	1	-1E+10	1	-1E+10	1	-1E+10	1	-1E+10	1
4902554	39	C	03/02/2022	23:54	-136.184	49.499	0	11.00	0	6.7990	0	32.3400	0	25.351	0	10.906	0	-1e10	8	-1e10	8	-1E+10	1	-1E+10	1	-1E+10	1	-1E+10	1	-1E+10	1	-1E+10	1
4902554	39	C	03/02/2022	23:54	-136.184	49.499	0	11.90	0	6.8090	0	32.3400	0	25.349	0	11.798	0	-1e10	8	-1e10	8	-1E+10	1	-1E+10	1	-1E+10	1	-1E+10	1	-1E+10	1	-1E+10	1
4902554	39	C	03/02/2022	23:54	-136.184	49.499	0	12.90	0	6.7990	0	32.3400	0	25.351	0	12.790	0	-1e10	8	-1e10	8	-1E+10	1	-1E+10	1	-1E+10	1	-1E+10	1	-1E+10	1	-1E+10	1
4902554	39	C	03/02/2022	23:54	-136.184	49.499	0	14.10	0	6.7980	0	32.3390	0	25.350	0	13.979	0	-1e10	8	-1e10	8	-1E+10	1	-1E+10	1	-1E+10	1	-1E+10	1	-1E+10	1	-1E+10	1
4902554	39	C	03/02/2022	23:54	-136.184	49.499	0	14.90	0	6.7940	0	32.3420	0	25.353	0	14.772	0	-1e10	8	-1e10	8	-1E+10	1	-1E+10	1	-1E+10	1	-1E+10	1	-1E+10	1	-1E+10	1
4902554	39	C	03/02/2022	23:54	-136.184	49.499	0	16.20	0	6.8020	0	32.3400	0	25.350	0	16.061	0	-1e10	8	-1e10	8	-1E+10	1	-1E+10	1	-1E+10	1	-1E+10	1	-1E+10	1	-1E+10	1
4902554	39	C	03/02/2022	23:54	-136.184	49.499	0	16.90	0	6.8020	0	32.3400	0	25.350	0	16.755	0	-1e10	8	-1e10	8	-1E+10	1	-1E+10	1	-1E+10	1	-1E+10	1	-1E+10	1	-1E+10	1
4902554	39	C	03/02/2022	23:54	-136.184	49.499	0	17.90	0	6.8010	0	32.3410	0	25.351	0	17.747	0	-1e10	8	-1e10	8	-1E+10	1	-1E+10	1	-1E+10	1	-1E+10	1	-1E+10	1	-1E+10	1
4902554	39	C	03/02/2022	23:54	-136.184	49.499	0	18.90	0	6.7990	0	32.3400	0	25.351	0	18.738	0	-1e10	8	-1e10	8	-1E+10	1	-1E+10	1	-1E+10	1	-1E+10	1	-1E+10	1	-1E+10	1
4902554	39	C	03/02/2022	23:54	-136.184	49.499	0	20.00	0	6.7950	0	32.3390	0	25.351	0	19.828	0	-1e10	8	-1e10	8	-1E+10	1	-1E+10	1	-1E+10	1	-1E+10	1	-1E+10	1	-1E+10	1
4902554	39	C	03/02/2022	23:54	-136.184	49.499	0	21.20	0	6.7920	0	32.3400	0	25.352	0	21.018	0	-1e10	8	-1e10	8	-1E+10	1	-1E+10	1	-1E+10	1	-1E+10	1	-1E+10	1	-1E+10	1
4902554	39	C	03/02/2022	23:54	-136.184	49.499	0	22.00	0	6.7890	0	32.3400	0	25.352	0	21.811	0	-1e10	8	-1e10	8	-1E+10	1	-1E+10	1	-1E+10	1	-1E+10	1	-1E+10	1	-1E+10	1
4902554	39	C	03/02/2022	23:54	-136.184	49.499	0	23.20	0	6.7890	0	32.3400	0	25.352	0	23.001	0	-1e10	8	-1e10	8	-1E+10	1	-1E+10	1	-1E+10	1	-1E+10	1	-1E+10	1	-1E+10	1
4902554	39	C	03/02/2022	23:54	-136.184	49.499	0	24.00	0	6.7870	0	32.3400	0	25.352	0	23.794	0	-1e10	8	-1e10	8	-1E+10	1	-1E+10	1	-1E+10	1	-1E+10	1	-1E+10	1	-1E+10	1
4902554	39	C	03/02/2022	23:54	-136.184	49.499	0	25.20	0	6.7850	0	32.3400	0	25.353	0	24.984	0	-1e10	8	-1e10	8	-1E+10	1	-1E+10	1	-1E+10	1	-1E+10	1	-1E+10	1	-1E+10	1
4902554	39	C	03/02/2022	23:54	-136.184	49.499	0	25.80	0	6.7860	0	32.3390	0	25.352	0	25.578	0	-1e10	8	-1e10	8	-1E+10	1	-1E+10	1	-1E+10	1	-1E+10	1	-1E+10	1	-1E+10	1
4902554	39	C	03/02/2022	23:54	-136.184	49.499	0	26.90	0	6.7870	0	32.3400	0	25.352	0	26.669	0	-1e10	8	-1e10	8	-1E+10	1	-1E+10	1	-1E+10	1	-1E+10	1	-1E+10	1	-1E+10	1
4902554	39	C	03/02/2022	23:54	-136.184	49.499	0	27.90	0	6.7850	0	32.3400	0	25.353	0	27.660	0	-1e10	8	-1e10	8	-1E+10	1	-1E+10	1	-1E+10	1	-1E+10	1	-1E+10	1	-1E+10	1
4902554	39	C	03/02/2022	23:54	-136.184	49.499	0	29.00	0	6.7840	0	32.3400	0	25.353	0	28.751	0	-1e10	8	-1e10	8	-1E+10	1	-1E+10	1	-1E+10	1	-1E+10	1	-1E+10	1	-1E+10	1
4902554	39	C	03/02/2022	23:54	-136.184	49.499	0	30.00	0	6.7790	0	32.3400	0	25.354	0	29.742	0	-1e10	8	-1e10	8	-1E+10	1	-1E+10	1	-1E+10	1	-1E+10	1	-1E+10	1	-1E+10	1
4902554	39	C	03/02/2022	23:54	-136.184	49.499	0	30.80	0	6.7810	0	32.3400	0	25.353	0	30.535	0	-1e10	8	-1e10	8	-1E+10	1	-1E+10	1	-1E+10	1	-1E+10	1	-1E+10	1	-1E+10	1
4902554	39	C	03/02/2022	23:54	-136.184	49.499	0	32.10	0	6.7730	0	32.3390	0	25.354	0	31.824	0	-1e10	8	-1e10	8	-1E+10	1	-1E+10	1	-1E+10	1	-1E+10	1	-1E+10	1	-1E+10	1
4902554	39	C	03/02/2022	23:54	-136.184	49.499	0	33.20	0	6.7700	0	32.3400	0	25.355	0	32.914	0	-1e10	8	-1e10	8	-1E+10	1	-1E+10	1	-1E+10	1	-1E+10	1	-1E+10	1	-1E+10	1
4902554	39	C	03/02/2022	23:54	-136.184	49.499	0	34.10	0	6.7690	0	32.3400	0	25.355	0	33.806	0	-1e10	8	-1e10	8	-1E+10	1	-1E+10	1	-1E+10	1	-1E+10	1	-1E+10	1	-1E+10	1
4902554	39	C	03/02/2022	23:54	-136.184	49.499	0	34.90	0	6.7690	0	32.3400	0	25.355	0	34.599	0	-1e10	8	-1e10	8	-1E+10	1	-1E+10	1	-1E+10	1	-1E+10	1	-1E+10	1	-1E+10	1
4902554	39	C	03/02/2022	23:54	-136.184	49.499	0	36.30	0	6.7700	0	32.3400	0	25.355	0	35.987	0	-1e10	8	-1e10	8	-1E+10	1	-1E+10	1	-1E+10	1	-1E+10	1	-1E+10	1	-1E+10	1
4902554	39	C	03/02/2022	23:54	-136.184	49.499	0	37.20	0	6.7700	0	32.3400	0	25.355	0	36.879	0	-1e10	8	-1e10	8	-1E+10	1	-1E+10	1	-1E+10	1	-1E+10	1	-1E+10	1	-1E+10	1
4902554	39	C	03/02/2022	23:54	-136.184	49.499	0	38.10	0	6.7730	0	32.3400	0	25.354	0	37.772	0	-1e10	8	-1e10	8	-1E+10	1	-1E+10	1	-1E+10	1	-1E+10	1	-1E+10	1	-1E+10	1
4902554	39	C	03/02/2022	23:54	-136.184	49.499	0	38.80	0	6.7720	0	32.3390	0	25.354	0	38.466	0	-1e10	8	-1e10	8	-1E+10	1	-1E+10	1	-1E+10	1	-1E+10	1	-1E+10	1	-1E+10	1
4902554	39	C	03/02/2022	23:54	-136.184	49.499	0	39.80	0	6.7720	0	32.3400	0	25.355	0	39.457	0	-1e10	8	-1e10	8	-1E+10	1	-1E+10	1	-1E+10	1	-1E+10	1	-1E+10	1	-1E+10	1
4902554	39	C	03/02/2022	23:54	-136.184	49.499	0	40.80	0	6.7720	0	32.3400	0	25.355	0	40.448	0	-1e10	8	-1e10	8	-1E+10	1	-1E+10	1	-1E+10	1	-1E+10	1	-1E+10	1	-1E+10	1
4902554	39	C	03/02/2022	23:54	-136.184	49.499	0	42.00	0	6.7720	0	32.3400	0	25.355	0	41.638	0	-1e10	8	-1e10	8	-1E+10	1	-1E+10	1	-1E+10	1	-1E+10	1	-1E+10	1	-1E+10	1
4902554	39	C	03/02/2022	23:54	-136.184	49.499	0	42.70	0	6.7730	0	32.3400	0	25.354	0	42.331	0	-1e10	8	-1e10	8	-1E+10	1	-1E+10	1	-1E+10	1	-1E+10	1	-1E+10	1	-1E+10	1
4902554	39	C	03/02/2022	23:54	-136.184	49.499	0	43.70	0	6.7720	0	32.3400	0	25.355	0	43.323	0	-1e10	8	-1e10	8	-1E+10	1	-1E+10	1	-1E+10	1	-1E+10	1	-1E+10	1	-1E+10	1
4902554	39	C	03/02/2022	23:54	-136.184	49.499	0	44.70	0	6.7700	0	32.3400	0	25.355	0	44.314	0	-1e10	8	-1e10	8	-1E+10	1	-1E+10	1	-1E+10	1	-1E+10	1	-1E+10	1	-1E+10	1
4902554	39	C	03/02/2022	23:54	-136.184	49.499	0	45.70	0	6.7700	0	32.3400	0	25.355	0	45.305	0	-1e10	8	-1e10	8	-1E+10	1	-1E+10	1	-1E+10	1	-1E+10	1	-1E+10	1	-1E+10	1
4902554	39	C	03/02/2022	23:54	-136.184	49.499	0	47.10	0	6.7700	0	32.3400	0	25.355	0	46.693	0	-1e10	8	-1e10	8	-1E+10	1	-1E+10	1	-1E+10	1	-1E+10	1	-1E+10	1	-1E+10	1
4902554	39	C	03/02/2022	23:54	-136.184	49.499	0	48.10	0	6.7700	0	32.3400	0	25.355	0	47.684	0	-1e10	8	-1e10	8	-1E+10	1	-1E+10	1	-1E+10	1	-1E+10	1	-1E+10	1	-1E+10	1
4902554	39	C	03/02/2022	23:54	-136.184	49.499	0	49.30	0	6.7700	0	32.3400	0	25.355	0	48.874	0	-1e10	8	-1e10	8	-1E+10	1	-1E+10	1	-1E+10	1	-1E+10	1	-1E+10	1	-1E+10	1
4902554	39	C	03/02/2022	23:54	-136.184	49.499	0	50.00	0	6.7700	0	32.3400	0	25.355	0	49.568	0	-1e10	8	-1e10	8	-1E+10	1	-1E+10	1	-1E+10	1	-1E+10	1	-1E+10	1	-1E+10	1
4902554	39	C	03/02/2022	23:54	-136.184	49.499	0	51.20	0	6.7700	0	32.3400	0	25.355	0	50.757	0	-1e10	8	-1e10	8	-1E+10	1	-1E+10	1	-1E+10	1	-1E+10	1	-1E+10	1	-1E+10	1
4902554	39	C	03/02/2022	23:54	-136.184	49.499	0	51.90	0	6.7700	0	32.3400	0	25.355	0	51.451	0	-1e10	8	-1e10	8	-1E+10	1	-1E+10	1	-1E+10	1	-1E+10	1	-1E+10	1	-1E+10	1
4902554	39	C	03/02/2022	23:54	-136.184	49.499	0	52.90	0	6.7700	0	32.3400	0	25.355	0	52.442	0	-1e10	8	-1e10	8	-1E+10	1	-1E+10	1	-1E+10	1	-1E+10	1	-1E+10	1	-1E+10	1
4902554	39	C	03/02/2022	23:54	-136.184	49.499	0	53.80	0	6.7680	0	32.3390	0	25.354	0	53.334	0	-1e10	8	-1e10	8	-1E+10	1	-1E+10	1	-1E+10	1	-1E+10	1	-1E+10	1	-1E+10	1
4902554	39	C	03/02/2022	23:54	-136.184	49.499	0	54.80	0	6.7670	0	32.3400	0	25.355	0	54.325	0	-1e10	8	-1e10	8	-1E+10	1	-1E+10	1	-1E+10	1	-1E+10	1	-1E+10	1	-1E+10	1
4902554	39	C	03/02/2022	23:54	-136.184	49.499	0	55.80	0	6.7650	0	32.3390	0	25.355	0	55.317	0	-1e10	8	-1e10	8	-1E+10	1	-1E+10	1	-1E+10	1	-1E+10	1	-1E+10	1	-1E+10	1
4902554	39	C	03/02/2022	23:54	-136.184	49.499	0	56.70	0	6.7660	0	32.3390	0	25.355	0	56.209	0	-1e10	8	-1e10	8	-1E+10	1	-1E+10	1	-1E+10	1	-1E+10	1	-1E+10	1	-1E+10	1
4902554	39	C	03/02/2022	23:54	-136.184	49.499	0	57.80	0	6.7650	0	32.3400	0	25.356	0	57.299	0	-1e10	8	-1e10	8	-1E+10	1	-1E+10	1	-1E+10	1	-1E+10	1	-1E+10	1	-1E+10	1
4902554	39	C	03/02/2022	23:54	-136.184	49.499	0	58.80	0	6.7630	0	32.3400	0	25.356	0	58.290	0	-1e10	8	-1e10	8	-1E+10	1	-1E+10	1	-1E+10	1	-1E+10	1	-1E+10	1	-1E+10	1
4902554	39	C	03/02/2022	23:54	-136.184	49.499	0	59.80	0	6.7640	0	32.3400	0	25.356	0	59.281	0	-1e10	8	-1e10	8	-1E+10	1	-1E+10	1	-1E+10	1	-1E+10	1	-1E+10	1	-1E+10	1
4902554	39	C	03/02/2022	23:54	-136.184	49.499	0	60.80	0	6.7630	0	32.3400	0	25.356	0	60.273	0	-1e10	8	-1e10	8	-1E+10	1	-1E+10	1	-1E+10	1	-1E+10	1	-1E+10	1	-1E+10	1
4902554	39	C	03/02/2022	23:54	-136.184	49.499	0	61.80	0	6.7620	0	32.3410	0	25.357	0	61.264	0	-1e10	8	-1e10	8	-1E+10	1	-1E+10	1	-1E+10	1	-1E+10	1	-1E+10	1	-1E+10	1
4902554	39	C	03/02/2022	23:54	-136.184	49.499	0	62.80	0	6.7610	0	32.3410	0	25.357	0	62.255	0	-1e10	8	-1e10	8	-1E+10	1	-1E+10	1	-1E+10	1	-1E+10	1	-1E+10	1	-1E+10	1
4902554	39	C	03/02/2022	23:54	-136.184	49.499	0	63.90	0	6.7600	0	32.3410	0	25.357	0	63.345	0	-1e10	8	-1e10	8	-1E+10	1	-1E+10	1	-1E+10	1	-1E+10	1	-1E+10	1	-1E+10	1
4902554	39	C	03/02/2022	23:54	-136.184	49.499	0	64.90	0	6.7600	0	32.3410	0	25.357	0	64.336	0	-1e10	8	-1e10	8	-1E+10	1	-1E+10	1	-1E+10	1	-1E+10	1	-1E+10	1	-1E+10	1
4902554	39	C	03/02/2022	23:54	-136.184	49.499	0	66.00	0	6.7600	0	32.3410	0	25.357	0	65.427	0	-1e10	8	-1e10	8	-1E+10	1	-1E+10	1	-1E+10	1	-1E+10	1	-1E+10	1	-1E+10	1
4902554	39	C	03/02/2022	23:54	-136.184	49.499	0	67.00	0	6.7610	0	32.3410	0	25.357	0	66.418	0	-1e10	8	-1e10	8	-1E+10	1	-1E+10	1	-1E+10	1	-1E+10	1	-1E+10	1	-1E+10	1
4902554	39	C	03/02/2022	23:54	-136.184	49.499	0	68.10	0	6.7610	0	32.3410	0	25.357	0	67.508	0	-1e10	8	-1e10	8	-1E+10	1	-1E+10	1	-1E+10	1	-1E+10	1	-1E+10	1	-1E+10	1
4902554	39	C	03/02/2022	23:54	-136.184	49.499	0	69.00	0	6.7610	0	32.3410	0	25.357	0	68.400	0	-1e10	8	-1e10	8	-1E+10	1	-1E+10	1	-1E+10	1	-1E+10	1	-1E+10	1	-1E+10	1
4902554	39	C	03/02/2022	23:54	-136.184	49.499	0	69.70	0	6.7610	0	32.3410	0	25.357	0	69.094	0	-1e10	8	-1e10	8	-1E+10	1	-1E+10	1	-1E+10	1	-1E+10	1	-1E+10	1	-1E+10	1
4902554	39	C	03/02/2022	23:54	-136.184	49.499	0	70.80	0	6.7600	0	32.3410	0	25.357	0	70.184	0	-1e10	8	-1e10	8	-1E+10	1	-1E+10	1	-1E+10	1	-1E+10	1	-1E+10	1	-1E+10	1
4902554	39	C	03/02/2022	23:54	-136.184	49.499	0	71.90	0	6.7610	0	32.3410	0	25.357	0	71.274	0	-1e10	8	-1e10	8	-1E+10	1	-1E+10	1	-1E+10	1	-1E+10	1	-1E+10	1	-1E+10	1
4902554	39	C	03/02/2022	23:54	-136.184	49.499	0	73.00	0	6.7610	0	32.3410	0	25.357	0	72.365	0	-1e10	8	-1e10	8	-1E+10	1	-1E+10	1	-1E+10	1	-1E+10	1	-1E+10	1	-1E+10	1
4902554	39	C	03/02/2022	23:54	-136.184	49.499	0	74.10	0	6.7590	0	32.3420	0	25.358	0	73.455	0	-1e10	8	-1e10	8	-1E+10	1	-1E+10	1	-1E+10	1	-1E+10	1	-1E+10	1	-1E+10	1
4902554	39	C	03/02/2022	23:54	-136.184	49.499	0	75.00	0	6.7580	0	32.3420	0	25.358	0	74.347	0	-1e10	8	-1e10	8	-1E+10	1	-1E+10	1	-1E+10	1	-1E+10	1	-1E+10	1	-1E+10	1
4902554	39	C	03/02/2022	23:54	-136.184	49.499	0	75.80	0	6.7590	0	32.3420	0	25.358	0	75.140	0	-1e10	8	-1e10	8	-1E+10	1	-1E+10	1	-1E+10	1	-1E+10	1	-1E+10	1	-1E+10	1
4902554	39	C	03/02/2022	23:54	-136.184	49.499	0	76.90	0	6.7590	0	32.3420	0	25.358	0	76.230	0	-1e10	8	-1e10	8	-1E+10	1	-1E+10	1	-1E+10	1	-1E+10	1	-1E+10	1	-1E+10	1
4902554	39	C	03/02/2022	23:54	-136.184	49.499	0	77.90	0	6.7570	0	32.3420	0	25.359	0	77.221	0	-1e10	8	-1e10	8	-1E+10	1	-1E+10	1	-1E+10	1	-1E+10	1	-1E+10	1	-1E+10	1
4902554	39	C	03/02/2022	23:54	-136.184	49.499	0	78.90	0	6.7550	0	32.3430	0	25.360	0	78.212	0	-1e10	8	-1e10	8	-1E+10	1	-1E+10	1	-1E+10	1	-1E+10	1	-1E+10	1	-1E+10	1
4902554	39	C	03/02/2022	23:54	-136.184	49.499	0	80.00	0	6.7510	0	32.3440	0	25.361	0	79.302	0	-1e10	8	-1e10	8	-1E+10	1	-1E+10	1	-1E+10	1	-1E+10	1	-1E+10	1	-1E+10	1
4902554	39	C	03/02/2022	23:54	-136.184	49.499	0	81.00	0	6.7480	0	32.3440	0	25.361	0	80.294	0	-1e10	8	-1e10	8	-1E+10	1	-1E+10	1	-1E+10	1	-1E+10	1	-1E+10	1	-1E+10	1
4902554	39	C	03/02/2022	23:54	-136.184	49.499	0	82.10	0	6.7460	0	32.3440	0	25.362	0	81.384	0	-1e10	8	-1e10	8	-1E+10	1	-1E+10	1	-1E+10	1	-1E+10	1	-1E+10	1	-1E+10	1
4902554	39	C	03/02/2022	23:54	-136.184	49.499	0	83.00	0	6.7400	0	32.3450	0	25.363	0	82.276	0	-1e10	8	-1e10	8	-1E+10	1	-1E+10	1	-1E+10	1	-1E+10	1	-1E+10	1	-1E+10	1
4902554	39	C	03/02/2022	23:54	-136.184	49.499	0	83.70	0	6.7380	0	32.3450	0	25.363	0	82.969	0	-1e10	8	-1e10	8	-1E+10	1	-1E+10	1	-1E+10	1	-1E+10	1	-1E+10	1	-1E+10	1
4902554	39	C	03/02/2022	23:54	-136.184	49.499	0	84.80	0	6.7330	0	32.3450	0	25.364	0	84.060	0	-1e10	8	-1e10	8	-1E+10	1	-1E+10	1	-1E+10	1	-1E+10	1	-1E+10	1	-1E+10	1
4902554	39	C	03/02/2022	23:54	-136.184	49.499	0	85.80	0	6.7300	0	32.3450	0	25.365	0	85.051	0	-1e10	8	-1e10	8	-1E+10	1	-1E+10	1	-1E+10	1	-1E+10	1	-1E+10	1	-1E+10	1
4902554	39	C	03/02/2022	23:54	-136.184	49.499	0	86.80	0	6.7250	0	32.3470	0	25.367	0	86.042	0	-1e10	8	-1e10	8	-1E+10	1	-1E+10	1	-1E+10	1	-1E+10	1	-1E+10	1	-1E+10	1
4902554	39	C	03/02/2022	23:54	-136.184	49.499	0	87.80	0	6.7230	0	32.3470	0	25.367	0	87.033	0	-1e10	8	-1e10	8	-1E+10	1	-1E+10	1	-1E+10	1	-1E+10	1	-1E+10	1	-1E+10	1
4902554	39	C	03/02/2022	23:54	-136.184	49.499	0	88.90	0	6.7210	0	32.3470	0	25.367	0	88.123	0	-1e10	8	-1e10	8	-1E+10	1	-1E+10	1	-1E+10	1	-1E+10	1	-1E+10	1	-1E+10	1
4902554	39	C	03/02/2022	23:54	-136.184	49.499	0	89.90	0	6.7190	0	32.3470	0	25.368	0	89.114	0	-1e10	8	-1e10	8	-1E+10	1	-1E+10	1	-1E+10	1	-1E+10	1	-1E+10	1	-1E+10	1
4902554	39	C	03/02/2022	23:54	-136.184	49.499	0	90.90	0	6.7180	0	32.3480	0	25.368	0	90.105	0	-1e10	8	-1e10	8	-1E+10	1	-1E+10	1	-1E+10	1	-1E+10	1	-1E+10	1	-1E+10	1
4902554	39	C	03/02/2022	23:54	-136.184	49.499	0	91.90	0	6.7170	0	32.3480	0	25.369	0	91.096	0	-1e10	8	-1e10	8	-1E+10	1	-1E+10	1	-1E+10	1	-1E+10	1	-1E+10	1	-1E+10	1
4902554	39	C	03/02/2022	23:54	-136.184	49.499	0	92.90	0	6.7160	0	32.3480	0	25.369	0	92.087	0	-1e10	8	-1e10	8	-1E+10	1	-1E+10	1	-1E+10	1	-1E+10	1	-1E+10	1	-1E+10	1
4902554	39	C	03/02/2022	23:54	-136.184	49.499	0	94.00	0	6.7160	0	32.3490	0	25.370	0	93.177	0	-1e10	8	-1e10	8	-1E+10	1	-1E+10	1	-1E+10	1	-1E+10	1	-1E+10	1	-1E+10	1
4902554	39	C	03/02/2022	23:54	-136.184	49.499	0	95.00	0	6.7160	0	32.3490	0	25.370	0	94.168	0	-1e10	8	-1e10	8	-1E+10	1	-1E+10	1	-1E+10	1	-1E+10	1	-1E+10	1	-1E+10	1
4902554	39	C	03/02/2022	23:54	-136.184	49.499	0	96.00	0	6.7150	0	32.3510	0	25.371	0	95.159	0	-1e10	8	-1e10	8	-1E+10	1	-1E+10	1	-1E+10	1	-1E+10	1	-1E+10	1	-1E+10	1
4902554	39	C	03/02/2022	23:54	-136.184	49.499	0	97.00	0	6.6990	0	32.3600	0	25.380	0	96.150	0	-1e10	8	-1e10	8	-1E+10	1	-1E+10	1	-1E+10	1	-1E+10	1	-1E+10	1	-1E+10	1
4902554	39	C	03/02/2022	23:54	-136.184	49.499	0	98.00	0	6.6900	0	32.3650	0	25.386	0	97.141	0	-1e10	8	-1e10	8	-1E+10	1	-1E+10	1	-1E+10	1	-1E+10	1	-1E+10	1	-1E+10	1
4902554	39	C	03/02/2022	23:54	-136.184	49.499	0	99.00	0	6.6800	0	32.3720	0	25.392	0	98.132	0	-1e10	8	-1e10	8	-1E+10	1	-1E+10	1	-1E+10	1	-1E+10	1	-1E+10	1	-1E+10	1
4902554	39	C	03/02/2022	23:54	-136.184	49.499	0	99.90	0	6.6650	0	32.3790	0	25.400	0	99.024	0	-1e10	8	-1e10	8	-1E+10	1	-1E+10	1	-1E+10	1	-1E+10	1	-1E+10	1	-1E+10	1
4902554	39	C	03/02/2022	23:54	-136.184	49.499	0	101.00	0	6.6270	0	32.4030	0	25.424	0	100.114	0	-1e10	8	-1e10	8	-1E+10	1	-1E+10	1	-1E+10	1	-1E+10	1	-1E+10	1	-1E+10	1
4902554	39	C	03/02/2022	23:54	-136.184	49.499	0	102.10	0	6.4840	0	32.5040	0	25.522	0	101.204	0	-1e10	8	-1e10	8	-1E+10	1	-1E+10	1	-1E+10	1	-1E+10	1	-1E+10	1	-1E+10	1
4902554	39	C	03/02/2022	23:54	-136.184	49.499	0	102.90	0	6.4600	0	32.5190	0	25.537	0	101.997	0	-1e10	8	-1e10	8	-1E+10	1	-1E+10	1	-1E+10	1	-1E+10	1	-1E+10	1	-1E+10	1
4902554	39	C	03/02/2022	23:54	-136.184	49.499	0	104.10	0	6.4140	0	32.5450	0	25.563	0	103.186	0	-1e10	8	-1e10	8	-1E+10	1	-1E+10	1	-1E+10	1	-1E+10	1	-1E+10	1	-1E+10	1
4902554	39	C	03/02/2022	23:54	-136.184	49.499	0	105.00	0	6.3180	0	32.6240	0	25.637	0	104.078	0	-1e10	8	-1e10	8	-1E+10	1	-1E+10	1	-1E+10	1	-1E+10	1	-1E+10	1	-1E+10	1
4902554	39	C	03/02/2022	23:54	-136.184	49.499	0	105.90	0	6.2420	0	32.7050	0	25.711	0	104.970	0	-1e10	8	-1e10	8	-1E+10	1	-1E+10	1	-1E+10	1	-1E+10	1	-1E+10	1	-1E+10	1
4902554	39	C	03/02/2022	23:54	-136.184	49.499	0	107.00	0	6.1850	0	32.7930	0	25.787	0	106.060	0	-1e10	8	-1e10	8	-1E+10	1	-1E+10	1	-1E+10	1	-1E+10	1	-1E+10	1	-1E+10	1
4902554	39	C	03/02/2022	23:54	-136.184	49.499	0	108.10	0	6.1670	0	32.8290	0	25.818	0	107.150	0	-1e10	8	-1e10	8	-1E+10	1	-1E+10	1	-1E+10	1	-1E+10	1	-1E+10	1	-1E+10	1
4902554	39	C	03/02/2022	23:54	-136.184	49.499	0	109.10	0	6.1600	0	32.8410	0	25.828	0	108.141	0	-1e10	8	-1e10	8	-1E+10	1	-1E+10	1	-1E+10	1	-1E+10	1	-1E+10	1	-1E+10	1
4902554	39	C	03/02/2022	23:54	-136.184	49.499	0	110.00	0	6.1570	0	32.8490	0	25.835	0	109.033	0	-1e10	8	-1e10	8	-1E+10	1	-1E+10	1	-1E+10	1	-1E+10	1	-1E+10	1	-1E+10	1
4902554	39	C	03/02/2022	23:54	-136.184	49.499	0	110.80	0	6.1540	0	32.8540	0	25.839	0	109.826	0	-1e10	8	-1e10	8	-1E+10	1	-1E+10	1	-1E+10	1	-1E+10	1	-1E+10	1	-1E+10	1
4902554	39	C	03/02/2022	23:54	-136.184	49.499	0	111.90	0	6.1430	0	32.8690	0	25.853	0	110.916	0	-1e10	8	-1e10	8	-1E+10	1	-1E+10	1	-1E+10	1	-1E+10	1	-1E+10	1	-1E+10	1
4902554	39	C	03/02/2022	23:54	-136.184	49.499	0	113.00	0	6.1090	0	32.9200	0	25.897	0	112.006	0	-1e10	8	-1e10	8	-1E+10	1	-1E+10	1	-1E+10	1	-1E+10	1	-1E+10	1	-1E+10	1
4902554	39	C	03/02/2022	23:54	-136.184	49.499	0	113.90	0	6.0990	0	32.9550	0	25.926	0	112.898	0	-1e10	8	-1e10	8	-1E+10	1	-1E+10	1	-1E+10	1	-1E+10	1	-1E+10	1	-1E+10	1
4902554	39	C	03/02/2022	23:54	-136.184	49.499	0	114.90	0	6.0840	0	33.0540	0	26.006	0	113.888	0	-1e10	8	-1e10	8	-1E+10	1	-1E+10	1	-1E+10	1	-1E+10	1	-1E+10	1	-1E+10	1
4902554	39	C	03/02/2022	23:54	-136.184	49.499	0	115.90	0	6.0830	0	33.1010	0	26.043	0	114.879	0	-1e10	8	-1e10	8	-1E+10	1	-1E+10	1	-1E+10	1	-1E+10	1	-1E+10	1	-1E+10	1
4902554	39	C	03/02/2022	23:54	-136.184	49.499	0	116.90	0	6.0820	0	33.1090	0	26.050	0	115.870	0	-1e10	8	-1e10	8	-1E+10	1	-1E+10	1	-1E+10	1	-1E+10	1	-1E+10	1	-1E+10	1
4902554	39	C	03/02/2022	23:54	-136.184	49.499	0	118.10	0	6.0830	0	33.1630	0	26.092	0	117.059	0	-1e10	8	-1e10	8	-1E+10	1	-1E+10	1	-1E+10	1	-1E+10	1	-1E+10	1	-1E+10	1
4902554	39	C	03/02/2022	23:54	-136.184	49.499	0	118.90	0	6.0870	0	33.1920	0	26.115	0	117.852	0	-1e10	8	-1e10	8	-1E+10	1	-1E+10	1	-1E+10	1	-1E+10	1	-1E+10	1	-1E+10	1
4902554	39	C	03/02/2022	23:54	-136.184	49.499	0	120.00	0	6.0900	0	33.2060	0	26.125	0	118.942	0	-1e10	8	-1e10	8	-1E+10	1	-1E+10	1	-1E+10	1	-1E+10	1	-1E+10	1	-1E+10	1
4902554	39	C	03/02/2022	23:54	-136.184	49.499	0	121.20	0	6.0920	0	33.2170	0	26.134	0	120.131	0	-1e10	8	-1e10	8	-1E+10	1	-1E+10	1	-1E+10	1	-1E+10	1	-1E+10	1	-1E+10	1
4902554	39	C	03/02/2022	23:54	-136.184	49.499	0	122.00	0	6.0930	0	33.2200	0	26.136	0	120.924	0	-1e10	8	-1e10	8	-1E+10	1	-1E+10	1	-1E+10	1	-1E+10	1	-1E+10	1	-1E+10	1
4902554	39	C	03/02/2022	23:54	-136.184	49.499	0	122.80	0	6.0940	0	33.2230	0	26.138	0	121.717	0	-1e10	8	-1e10	8	-1E+10	1	-1E+10	1	-1E+10	1	-1E+10	1	-1E+10	1	-1E+10	1
4902554	39	C	03/02/2022	23:54	-136.184	49.499	0	123.70	0	6.0960	0	33.2330	0	26.146	0	122.608	0	-1e10	8	-1e10	8	-1E+10	1	-1E+10	1	-1E+10	1	-1E+10	1	-1E+10	1	-1E+10	1
4902554	39	C	03/02/2022	23:54	-136.184	49.499	0	124.90	0	6.0990	0	33.2480	0	26.157	0	123.797	0	-1e10	8	-1e10	8	-1E+10	1	-1E+10	1	-1E+10	1	-1E+10	1	-1E+10	1	-1E+10	1
4902554	39	C	03/02/2022	23:54	-136.184	49.499	0	126.10	0	6.1050	0	33.2730	0	26.177	0	124.986	0	-1e10	8	-1e10	8	-1E+10	1	-1E+10	1	-1E+10	1	-1E+10	1	-1E+10	1	-1E+10	1
4902554	39	C	03/02/2022	23:54	-136.184	49.499	0	126.90	0	6.1090	0	33.2960	0	26.194	0	125.779	0	-1e10	8	-1e10	8	-1E+10	1	-1E+10	1	-1E+10	1	-1E+10	1	-1E+10	1	-1E+10	1
4902554	39	C	03/02/2022	23:54	-136.184	49.499	0	127.80	0	6.1050	0	33.3290	0	26.221	0	126.671	0	-1e10	8	-1e10	8	-1E+10	1	-1E+10	1	-1E+10	1	-1E+10	1	-1E+10	1	-1E+10	1
4902554	39	C	03/02/2022	23:54	-136.184	49.499	0	128.70	0	6.0950	0	33.3420	0	26.232	0	127.563	0	-1e10	8	-1e10	8	-1E+10	1	-1E+10	1	-1E+10	1	-1E+10	1	-1E+10	1	-1E+10	1
4902554	39	C	03/02/2022	23:54	-136.184	49.499	0	129.60	0	6.0960	0	33.3650	0	26.250	0	128.454	0	-1e10	8	-1e10	8	-1E+10	1	-1E+10	1	-1E+10	1	-1E+10	1	-1E+10	1	-1E+10	1
4902554	39	C	03/02/2022	23:54	-136.184	49.499	0	130.90	0	6.0980	0	33.3870	0	26.267	0	129.743	0	-1e10	8	-1e10	8	-1E+10	1	-1E+10	1	-1E+10	1	-1E+10	1	-1E+10	1	-1E+10	1
4902554	39	C	03/02/2022	23:54	-136.184	49.499	0	132.20	0	6.0950	0	33.4040	0	26.281	0	131.031	0	-1e10	8	-1e10	8	-1E+10	1	-1E+10	1	-1E+10	1	-1E+10	1	-1E+10	1	-1E+10	1
4902554	39	C	03/02/2022	23:54	-136.184	49.499	0	133.20	0	6.0860	0	33.4180	0	26.293	0	132.022	0	-1e10	8	-1e10	8	-1E+10	1	-1E+10	1	-1E+10	1	-1E+10	1	-1E+10	1	-1E+10	1
4902554	39	C	03/02/2022	23:54	-136.184	49.499	0	134.10	0	6.0820	0	33.4290	0	26.303	0	132.913	0	-1e10	8	-1e10	8	-1E+10	1	-1E+10	1	-1E+10	1	-1E+10	1	-1E+10	1	-1E+10	1
4902554	39	C	03/02/2022	23:54	-136.184	49.499	0	135.10	0	6.0810	0	33.4470	0	26.317	0	133.904	0	-1e10	8	-1e10	8	-1E+10	1	-1E+10	1	-1E+10	1	-1E+10	1	-1E+10	1	-1E+10	1
4902554	39	C	03/02/2022	23:54	-136.184	49.499	0	136.10	0	6.0740	0	33.4660	0	26.333	0	134.895	0	-1e10	8	-1e10	8	-1E+10	1	-1E+10	1	-1E+10	1	-1E+10	1	-1E+10	1	-1E+10	1
4902554	39	C	03/02/2022	23:54	-136.184	49.499	0	137.10	0	6.0660	0	33.4780	0	26.343	0	135.886	0	-1e10	8	-1e10	8	-1E+10	1	-1E+10	1	-1E+10	1	-1E+10	1	-1E+10	1	-1E+10	1
4902554	39	C	03/02/2022	23:54	-136.184	49.499	0	138.10	0	6.0640	0	33.4810	0	26.346	0	136.877	0	-1e10	8	-1e10	8	-1E+10	1	-1E+10	1	-1E+10	1	-1E+10	1	-1E+10	1	-1E+10	1
4902554	39	C	03/02/2022	23:54	-136.184	49.499	0	139.10	0	6.0480	0	33.4930	0	26.358	0	137.867	0	-1e10	8	-1e10	8	-1E+10	1	-1E+10	1	-1E+10	1	-1E+10	1	-1E+10	1	-1E+10	1
4902554	39	C	03/02/2022	23:54	-136.184	49.499	0	140.20	0	6.0410	0	33.5000	0	26.364	0	138.957	0	-1e10	8	-1e10	8	-1E+10	1	-1E+10	1	-1E+10	1	-1E+10	1	-1E+10	1	-1E+10	1
4902554	39	C	03/02/2022	23:54	-136.184	49.499	0	141.20	0	6.0220	0	33.5180	0	26.381	0	139.948	0	-1e10	8	-1e10	8	-1E+10	1	-1E+10	1	-1E+10	1	-1E+10	1	-1E+10	1	-1E+10	1
4902554	39	C	03/02/2022	23:54	-136.184	49.499	0	142.20	0	6.0100	0	33.5340	0	26.395	0	140.939	0	-1e10	8	-1e10	8	-1E+10	1	-1E+10	1	-1E+10	1	-1E+10	1	-1E+10	1	-1E+10	1
4902554	39	C	03/02/2022	23:54	-136.184	49.499	0	143.30	0	6.0060	0	33.5400	0	26.400	0	142.029	0	-1e10	8	-1e10	8	-1E+10	1	-1E+10	1	-1E+10	1	-1E+10	1	-1E+10	1	-1E+10	1
4902554	39	C	03/02/2022	23:54	-136.184	49.499	0	144.30	0	6.0010	0	33.5470	0	26.406	0	143.019	0	-1e10	8	-1e10	8	-1E+10	1	-1E+10	1	-1E+10	1	-1E+10	1	-1E+10	1	-1E+10	1
4902554	39	C	03/02/2022	23:54	-136.184	49.499	0	145.40	0	6.0000	0	33.5480	0	26.407	0	144.109	0	-1e10	8	-1e10	8	-1E+10	1	-1E+10	1	-1E+10	1	-1E+10	1	-1E+10	1	-1E+10	1
4902554	39	C	03/02/2022	23:54	-136.184	49.499	0	146.40	0	5.9960	0	33.5550	0	26.413	0	145.100	0	-1e10	8	-1e10	8	-1E+10	1	-1E+10	1	-1E+10	1	-1E+10	1	-1E+10	1	-1E+10	1
4902554	39	C	03/02/2022	23:54	-136.184	49.499	0	147.50	0	5.9890	0	33.5630	0	26.420	0	146.190	0	-1e10	8	-1e10	8	-1E+10	1	-1E+10	1	-1E+10	1	-1E+10	1	-1E+10	1	-1E+10	1
4902554	39	C	03/02/2022	23:54	-136.184	49.499	0	148.50	0	5.9790	0	33.5810	0	26.436	0	147.181	0	-1e10	8	-1e10	8	-1E+10	1	-1E+10	1	-1E+10	1	-1E+10	1	-1E+10	1	-1E+10	1
4902554	39	C	03/02/2022	23:54	-136.184	49.499	0	149.50	0	5.9680	0	33.5940	0	26.447	0	148.171	0	-1e10	8	-1e10	8	-1E+10	1	-1E+10	1	-1E+10	1	-1E+10	1	-1E+10	1	-1E+10	1
4902554	39	C	03/02/2022	23:54	-136.184	49.499	0	150.60	0	5.9590	0	33.6010	0	26.454	0	149.261	0	-1e10	8	-1e10	8	-1E+10	1	-1E+10	1	-1E+10	1	-1E+10	1	-1E+10	1	-1E+10	1
4902554	39	C	03/02/2022	23:54	-136.184	49.499	0	151.60	0	5.9510	0	33.6100	0	26.462	0	150.252	0	-1e10	8	-1e10	8	-1E+10	1	-1E+10	1	-1E+10	1	-1E+10	1	-1E+10	1	-1E+10	1
4902554	39	C	03/02/2022	23:54	-136.184	49.499	0	152.70	0	5.9420	0	33.6180	0	26.470	0	151.342	0	-1e10	8	-1e10	8	-1E+10	1	-1E+10	1	-1E+10	1	-1E+10	1	-1E+10	1	-1E+10	1
4902554	39	C	03/02/2022	23:54	-136.184	49.499	0	153.70	0	5.9260	0	33.6280	0	26.479	0	152.333	0	-1e10	8	-1e10	8	-1E+10	1	-1E+10	1	-1E+10	1	-1E+10	1	-1E+10	1	-1E+10	1
4902554	39	C	03/02/2022	23:54	-136.184	49.499	0	154.80	0	5.9020	0	33.6410	0	26.493	0	153.422	0	-1e10	8	-1e10	8	-1E+10	1	-1E+10	1	-1E+10	1	-1E+10	1	-1E+10	1	-1E+10	1
4902554	39	C	03/02/2022	23:54	-136.184	49.499	0	155.80	0	5.8980	0	33.6460	0	26.497	0	154.413	0	-1e10	8	-1e10	8	-1E+10	1	-1E+10	1	-1E+10	1	-1E+10	1	-1E+10	1	-1E+10	1
4902554	39	C	03/02/2022	23:54	-136.184	49.499	0	156.90	0	5.8920	0	33.6510	0	26.502	0	155.503	0	-1e10	8	-1e10	8	-1E+10	1	-1E+10	1	-1E+10	1	-1E+10	1	-1E+10	1	-1E+10	1
4902554	39	C	03/02/2022	23:54	-136.184	49.499	0	158.00	0	5.8670	0	33.6670	0	26.518	0	156.593	0	-1e10	8	-1e10	8	-1E+10	1	-1E+10	1	-1E+10	1	-1E+10	1	-1E+10	1	-1E+10	1
4902554	39	C	03/02/2022	23:54	-136.184	49.499	0	159.00	0	5.8560	0	33.6710	0	26.522	0	157.583	0	-1e10	8	-1e10	8	-1E+10	1	-1E+10	1	-1E+10	1	-1E+10	1	-1E+10	1	-1E+10	1
4902554	39	C	03/02/2022	23:54	-136.184	49.499	0	160.10	0	5.8480	0	33.6730	0	26.525	0	158.673	0	-1e10	8	-1e10	8	-1E+10	1	-1E+10	1	-1E+10	1	-1E+10	1	-1E+10	1	-1E+10	1
4902554	39	C	03/02/2022	23:54	-136.184	49.499	0	161.10	0	5.8450	0	33.6750	0	26.527	0	159.664	0	-1e10	8	-1e10	8	-1E+10	1	-1E+10	1	-1E+10	1	-1E+10	1	-1E+10	1	-1E+10	1
4902554	39	C	03/02/2022	23:54	-136.184	49.499	0	162.20	0	5.8360	0	33.6780	0	26.530	0	160.754	0	-1e10	8	-1e10	8	-1E+10	1	-1E+10	1	-1E+10	1	-1E+10	1	-1E+10	1	-1E+10	1
4902554	39	C	03/02/2022	23:54	-136.184	49.499	0	163.20	0	5.8150	0	33.6870	0	26.540	0	161.744	0	-1e10	8	-1e10	8	-1E+10	1	-1E+10	1	-1E+10	1	-1E+10	1	-1E+10	1	-1E+10	1
4902554	39	C	03/02/2022	23:54	-136.184	49.499	0	164.20	0	5.7830	0	33.7000	0	26.554	0	162.735	0	-1e10	8	-1e10	8	-1E+10	1	-1E+10	1	-1E+10	1	-1E+10	1	-1E+10	1	-1E+10	1
4902554	39	C	03/02/2022	23:54	-136.184	49.499	0	165.20	0	5.7800	0	33.7000	0	26.554	0	163.726	0	-1e10	8	-1e10	8	-1E+10	1	-1E+10	1	-1E+10	1	-1E+10	1	-1E+10	1	-1E+10	1
4902554	39	C	03/02/2022	23:54	-136.184	49.499	0	166.20	0	5.7700	0	33.7020	0	26.557	0	164.716	0	-1e10	8	-1e10	8	-1E+10	1	-1E+10	1	-1E+10	1	-1E+10	1	-1E+10	1	-1E+10	1
4902554	39	C	03/02/2022	23:54	-136.184	49.499	0	166.90	0	5.7430	0	33.7110	0	26.568	0	165.410	0	-1e10	8	-1e10	8	-1E+10	1	-1E+10	1	-1E+10	1	-1E+10	1	-1E+10	1	-1E+10	1
4902554	39	C	03/02/2022	23:54	-136.184	49.499	0	167.70	0	5.7250	0	33.7140	0	26.572	0	166.202	0	-1e10	8	-1e10	8	-1E+10	1	-1E+10	1	-1E+10	1	-1E+10	1	-1E+10	1	-1E+10	1
4902554	39	C	03/02/2022	23:54	-136.184	49.499	0	168.90	0	5.7170	0	33.7150	0	26.574	0	167.391	0	-1e10	8	-1e10	8	-1E+10	1	-1E+10	1	-1E+10	1	-1E+10	1	-1E+10	1	-1E+10	1
4902554	39	C	03/02/2022	23:54	-136.184	49.499	0	170.00	0	5.7130	0	33.7160	0	26.575	0	168.481	0	-1e10	8	-1e10	8	-1E+10	1	-1E+10	1	-1E+10	1	-1E+10	1	-1E+10	1	-1E+10	1
4902554	39	C	03/02/2022	23:54	-136.184	49.499	0	170.80	0	5.7080	0	33.7170	0	26.577	0	169.273	0	-1e10	8	-1e10	8	-1E+10	1	-1E+10	1	-1E+10	1	-1E+10	1	-1E+10	1	-1E+10	1
4902554	39	C	03/02/2022	23:54	-136.184	49.499	0	171.90	0	5.7060	0	33.7180	0	26.578	0	170.363	0	-1e10	8	-1e10	8	-1E+10	1	-1E+10	1	-1E+10	1	-1E+10	1	-1E+10	1	-1E+10	1
4902554	39	C	03/02/2022	23:54	-136.184	49.499	0	173.10	0	5.6950	0	33.7210	0	26.581	0	171.552	0	-1e10	8	-1e10	8	-1E+10	1	-1E+10	1	-1E+10	1	-1E+10	1	-1E+10	1	-1E+10	1
4902554	39	C	03/02/2022	23:54	-136.184	49.499	0	173.80	0	5.6870	0	33.7220	0	26.583	0	172.245	0	-1e10	8	-1e10	8	-1E+10	1	-1E+10	1	-1E+10	1	-1E+10	1	-1E+10	1	-1E+10	1
4902554	39	C	03/02/2022	23:54	-136.184	49.499	0	175.00	0	5.6730	0	33.7250	0	26.587	0	173.434	0	-1e10	8	-1e10	8	-1E+10	1	-1E+10	1	-1E+10	1	-1E+10	1	-1E+10	1	-1E+10	1
4902554	39	C	03/02/2022	23:54	-136.184	49.499	0	176.20	0	5.6690	0	33.7260	0	26.589	0	174.623	0	-1e10	8	-1e10	8	-1E+10	1	-1E+10	1	-1E+10	1	-1E+10	1	-1E+10	1	-1E+10	1
4902554	39	C	03/02/2022	23:54	-136.184	49.499	0	176.90	0	5.6670	0	33.7270	0	26.590	0	175.316	0	-1e10	8	-1e10	8	-1E+10	1	-1E+10	1	-1E+10	1	-1E+10	1	-1E+10	1	-1E+10	1
4902554	39	C	03/02/2022	23:54	-136.184	49.499	0	177.70	0	5.6600	0	33.7270	0	26.591	0	176.109	0	-1e10	8	-1e10	8	-1E+10	1	-1E+10	1	-1E+10	1	-1E+10	1	-1E+10	1	-1E+10	1
4902554	39	C	03/02/2022	23:54	-136.184	49.499	0	178.90	0	5.6540	0	33.7280	0	26.592	0	177.298	0	-1e10	8	-1e10	8	-1E+10	1	-1E+10	1	-1E+10	1	-1E+10	1	-1E+10	1	-1E+10	1
4902554	39	C	03/02/2022	23:54	-136.184	49.499	0	180.10	0	5.6360	0	33.7320	0	26.597	0	178.486	0	-1e10	8	-1e10	8	-1E+10	1	-1E+10	1	-1E+10	1	-1E+10	1	-1E+10	1	-1E+10	1
4902554	39	C	03/02/2022	23:54	-136.184	49.499	0	180.90	0	5.6270	0	33.7330	0	26.599	0	179.279	0	-1e10	8	-1e10	8	-1E+10	1	-1E+10	1	-1E+10	1	-1E+10	1	-1E+10	1	-1E+10	1
4902554	39	C	03/02/2022	23:54	-136.184	49.499	0	181.70	0	5.6170	0	33.7350	0	26.602	0	180.071	0	-1e10	8	-1e10	8	-1E+10	1	-1E+10	1	-1E+10	1	-1E+10	1	-1E+10	1	-1E+10	1
4902554	39	C	03/02/2022	23:54	-136.184	49.499	0	182.90	0	5.6010	0	33.7380	0	26.606	0	181.260	0	-1e10	8	-1e10	8	-1E+10	1	-1E+10	1	-1E+10	1	-1E+10	1	-1E+10	1	-1E+10	1
4902554	39	C	03/02/2022	23:54	-136.184	49.499	0	184.20	0	5.5770	0	33.7420	0	26.612	0	182.548	0	-1e10	8	-1e10	8	-1E+10	1	-1E+10	1	-1E+10	1	-1E+10	1	-1E+10	1	-1E+10	1
4902554	39	C	03/02/2022	23:54	-136.184	49.499	0	185.00	0	5.5720	0	33.7420	0	26.613	0	183.340	0	-1e10	8	-1e10	8	-1E+10	1	-1E+10	1	-1E+10	1	-1E+10	1	-1E+10	1	-1E+10	1
4902554	39	C	03/02/2022	23:54	-136.184	49.499	0	185.90	0	5.5610	0	33.7450	0	26.617	0	184.232	0	-1e10	8	-1e10	8	-1E+10	1	-1E+10	1	-1E+10	1	-1E+10	1	-1E+10	1	-1E+10	1
4902554	39	C	03/02/2022	23:54	-136.184	49.499	0	186.70	0	5.5540	0	33.7460	0	26.618	0	185.024	0	-1e10	8	-1e10	8	-1E+10	1	-1E+10	1	-1E+10	1	-1E+10	1	-1E+10	1	-1E+10	1
4902554	39	C	03/02/2022	23:54	-136.184	49.499	0	188.00	0	5.5400	0	33.7460	0	26.620	0	186.312	0	-1e10	8	-1e10	8	-1E+10	1	-1E+10	1	-1E+10	1	-1E+10	1	-1E+10	1	-1E+10	1
4902554	39	C	03/02/2022	23:54	-136.184	49.499	0	189.20	0	5.5300	0	33.7470	0	26.622	0	187.501	0	-1e10	8	-1e10	8	-1E+10	1	-1E+10	1	-1E+10	1	-1E+10	1	-1E+10	1	-1E+10	1
4902554	39	C	03/02/2022	23:54	-136.184	49.499	0	190.10	0	5.5200	0	33.7490	0	26.625	0	188.392	0	-1e10	8	-1e10	8	-1E+10	1	-1E+10	1	-1E+10	1	-1E+10	1	-1E+10	1	-1E+10	1
4902554	39	C	03/02/2022	23:54	-136.184	49.499	0	190.90	0	5.5100	0	33.7490	0	26.626	0	189.185	0	-1e10	8	-1e10	8	-1E+10	1	-1E+10	1	-1E+10	1	-1E+10	1	-1E+10	1	-1E+10	1
4902554	39	C	03/02/2022	23:54	-136.184	49.499	0	191.80	0	5.4980	0	33.7490	0	26.627	0	190.076	0	-1e10	8	-1e10	8	-1E+10	1	-1E+10	1	-1E+10	1	-1E+10	1	-1E+10	1	-1E+10	1
4902554	39	C	03/02/2022	23:54	-136.184	49.499	0	192.70	0	5.4530	0	33.7550	0	26.638	0	190.968	0	-1e10	8	-1e10	8	-1E+10	1	-1E+10	1	-1E+10	1	-1E+10	1	-1E+10	1	-1E+10	1
4902554	39	C	03/02/2022	23:54	-136.184	49.499	0	193.90	0	5.4340	0	33.7560	0	26.641	0	192.156	0	-1e10	8	-1e10	8	-1E+10	1	-1E+10	1	-1E+10	1	-1E+10	1	-1E+10	1	-1E+10	1
4902554	39	C	03/02/2022	23:54	-136.184	49.499	0	195.30	0	5.4240	0	33.7590	0	26.644	0	193.543	0	-1e10	8	-1e10	8	-1E+10	1	-1E+10	1	-1E+10	1	-1E+10	1	-1E+10	1	-1E+10	1
4902554	39	C	03/02/2022	23:54	-136.184	49.499	0	196.10	0	5.4150	0	33.7570	0	26.644	0	194.335	0	-1e10	8	-1e10	8	-1E+10	1	-1E+10	1	-1E+10	1	-1E+10	1	-1E+10	1	-1E+10	1
4902554	39	C	03/02/2022	23:54	-136.184	49.499	0	197.00	0	5.4130	0	33.7580	0	26.645	0	195.227	0	-1e10	8	-1e10	8	-1E+10	1	-1E+10	1	-1E+10	1	-1E+10	1	-1E+10	1	-1E+10	1
4902554	39	C	03/02/2022	23:54	-136.184	49.499	0	197.80	0	5.4060	0	33.7570	0	26.645	0	196.019	0	-1e10	8	-1e10	8	-1E+10	1	-1E+10	1	-1E+10	1	-1E+10	1	-1E+10	1	-1E+10	1
4902554	39	C	03/02/2022	23:54	-136.184	49.499	0	198.70	0	5.4020	0	33.7600	0	26.648	0	196.911	0	-1e10	8	-1e10	8	-1E+10	1	-1E+10	1	-1E+10	1	-1E+10	1	-1E+10	1	-1E+10	1
4902554	39	C	03/02/2022	23:54	-136.184	49.499	0	199.60	0	5.3960	0	33.7580	0	26.647	0	197.802	0	-1e10	8	-1e10	8	-1E+10	1	-1E+10	1	-1E+10	1	-1E+10	1	-1E+10	1	-1E+10	1
4902554	39	C	03/02/2022	23:54	-136.184	49.499	0	200.90	0	5.3810	0	33.7580	0	26.649	0	199.090	0	-1e10	8	-1e10	8	-1E+10	1	-1E+10	1	-1E+10	1	-1E+10	1	-1E+10	1	-1E+10	1
4902554	39	C	03/02/2022	23:54	-136.184	49.499	0	202.20	0	5.3740	0	33.7590	0	26.650	0	200.378	0	-1e10	8	-1e10	8	-1E+10	1	-1E+10	1	-1E+10	1	-1E+10	1	-1E+10	1	-1E+10	1
4902554	39	C	03/02/2022	23:54	-136.184	49.499	0	203.10	0	5.3580	0	33.7610	0	26.654	0	201.269	0	-1e10	8	-1e10	8	-1E+10	1	-1E+10	1	-1E+10	1	-1E+10	1	-1E+10	1	-1E+10	1
4902554	39	C	03/02/2022	23:54	-136.184	49.499	0	204.00	0	5.3510	0	33.7620	0	26.655	0	202.160	0	-1e10	8	-1e10	8	-1E+10	1	-1E+10	1	-1E+10	1	-1E+10	1	-1E+10	1	-1E+10	1
4902554	39	C	03/02/2022	23:54	-136.184	49.499	0	204.90	0	5.3430	0	33.7630	0	26.657	0	203.052	0	-1e10	8	-1e10	8	-1E+10	1	-1E+10	1	-1E+10	1	-1E+10	1	-1E+10	1	-1E+10	1
4902554	39	C	03/02/2022	23:54	-136.184	49.499	0	205.80	0	5.3410	0	33.7630	0	26.657	0	203.943	0	-1e10	8	-1e10	8	-1E+10	1	-1E+10	1	-1E+10	1	-1E+10	1	-1E+10	1	-1E+10	1
4902554	39	C	03/02/2022	23:54	-136.184	49.499	0	206.70	0	5.3390	0	33.7620	0	26.657	0	204.835	0	-1e10	8	-1e10	8	-1E+10	1	-1E+10	1	-1E+10	1	-1E+10	1	-1E+10	1	-1E+10	1
4902554	39	C	03/02/2022	23:54	-136.184	49.499	0	207.90	0	5.3350	0	33.7630	0	26.658	0	206.023	0	-1e10	8	-1e10	8	-1E+10	1	-1E+10	1	-1E+10	1	-1E+10	1	-1E+10	1	-1E+10	1
4902554	39	C	03/02/2022	23:54	-136.184	49.499	0	209.30	0	5.3310	0	33.7640	0	26.659	0	207.410	0	-1e10	8	-1e10	8	-1E+10	1	-1E+10	1	-1E+10	1	-1E+10	1	-1E+10	1	-1E+10	1
4902554	39	C	03/02/2022	23:54	-136.184	49.499	0	210.20	0	5.3290	0	33.7630	0	26.659	0	208.301	0	-1e10	8	-1e10	8	-1E+10	1	-1E+10	1	-1E+10	1	-1E+10	1	-1E+10	1	-1E+10	1
4902554	39	C	03/02/2022	23:54	-136.184	49.499	0	211.10	0	5.3200	0	33.7760	0	26.670	0	209.193	0	-1e10	8	-1e10	8	-1E+10	1	-1E+10	1	-1E+10	1	-1E+10	1	-1E+10	1	-1E+10	1
4902554	39	C	03/02/2022	23:54	-136.184	49.499	0	212.10	0	5.2990	0	33.7730	0	26.670	0	210.183	0	-1e10	8	-1e10	8	-1E+10	1	-1E+10	1	-1E+10	1	-1E+10	1	-1E+10	1	-1E+10	1
4902554	39	C	03/02/2022	23:54	-136.184	49.499	0	213.00	0	5.2690	0	33.7770	0	26.677	0	211.075	0	-1e10	8	-1e10	8	-1E+10	1	-1E+10	1	-1E+10	1	-1E+10	1	-1E+10	1	-1E+10	1
4902554	39	C	03/02/2022	23:54	-136.184	49.499	0	213.90	0	5.2410	0	33.7810	0	26.683	0	211.966	0	-1e10	8	-1e10	8	-1E+10	1	-1E+10	1	-1E+10	1	-1E+10	1	-1E+10	1	-1E+10	1
4902554	39	C	03/02/2022	23:54	-136.184	49.499	0	214.80	0	5.2380	0	33.7800	0	26.683	0	212.858	0	-1e10	8	-1e10	8	-1E+10	1	-1E+10	1	-1E+10	1	-1E+10	1	-1E+10	1	-1E+10	1
4902554	39	C	03/02/2022	23:54	-136.184	49.499	0	215.70	0	5.2220	0	33.7850	0	26.689	0	213.749	0	-1e10	8	-1e10	8	-1E+10	1	-1E+10	1	-1E+10	1	-1E+10	1	-1E+10	1	-1E+10	1
4902554	39	C	03/02/2022	23:54	-136.184	49.499	0	216.70	0	5.1930	0	33.7840	0	26.691	0	214.739	0	-1e10	8	-1e10	8	-1E+10	1	-1E+10	1	-1E+10	1	-1E+10	1	-1E+10	1	-1E+10	1
4902554	39	C	03/02/2022	23:54	-136.184	49.499	0	217.60	0	5.1840	0	33.7840	0	26.692	0	215.631	0	-1e10	8	-1e10	8	-1E+10	1	-1E+10	1	-1E+10	1	-1E+10	1	-1E+10	1	-1E+10	1
4902554	39	C	03/02/2022	23:54	-136.184	49.499	0	218.90	0	5.1710	0	33.7840	0	26.694	0	216.918	0	-1e10	8	-1e10	8	-1E+10	1	-1E+10	1	-1E+10	1	-1E+10	1	-1E+10	1	-1E+10	1
4902554	39	C	03/02/2022	23:54	-136.184	49.499	0	220.40	0	5.1530	0	33.7870	0	26.698	0	218.404	0	-1e10	8	-1e10	8	-1E+10	1	-1E+10	1	-1E+10	1	-1E+10	1	-1E+10	1	-1E+10	1
4902554	39	C	03/02/2022	23:54	-136.184	49.499	0	221.30	0	5.1550	0	33.7890	0	26.700	0	219.295	0	-1e10	8	-1e10	8	-1E+10	1	-1E+10	1	-1E+10	1	-1E+10	1	-1E+10	1	-1E+10	1
4902554	39	C	03/02/2022	23:54	-136.184	49.499	0	222.20	0	5.1230	0	33.7910	0	26.705	0	220.187	0	-1e10	8	-1e10	8	-1E+10	1	-1E+10	1	-1E+10	1	-1E+10	1	-1E+10	1	-1E+10	1
4902554	39	C	03/02/2022	23:54	-136.184	49.499	0	223.10	0	5.1140	0	33.7910	0	26.706	0	221.078	0	-1e10	8	-1e10	8	-1E+10	1	-1E+10	1	-1E+10	1	-1E+10	1	-1E+10	1	-1E+10	1
4902554	39	C	03/02/2022	23:54	-136.184	49.499	0	224.10	0	5.1170	0	33.7930	0	26.707	0	222.068	0	-1e10	8	-1e10	8	-1E+10	1	-1E+10	1	-1E+10	1	-1E+10	1	-1E+10	1	-1E+10	1
4902554	39	C	03/02/2022	23:54	-136.184	49.499	0	225.00	0	5.1090	0	33.7950	0	26.710	0	222.960	0	-1e10	8	-1e10	8	-1E+10	1	-1E+10	1	-1E+10	1	-1E+10	1	-1E+10	1	-1E+10	1
4902554	39	C	03/02/2022	23:54	-136.184	49.499	0	225.90	0	5.0950	0	33.7960	0	26.712	0	223.851	0	-1e10	8	-1e10	8	-1E+10	1	-1E+10	1	-1E+10	1	-1E+10	1	-1E+10	1	-1E+10	1
4902554	39	C	03/02/2022	23:54	-136.184	49.499	0	226.90	0	5.0880	0	33.7960	0	26.713	0	224.842	0	-1e10	8	-1e10	8	-1E+10	1	-1E+10	1	-1E+10	1	-1E+10	1	-1E+10	1	-1E+10	1
4902554	39	C	03/02/2022	23:54	-136.184	49.499	0	227.80	0	5.0860	0	33.7970	0	26.714	0	225.733	0	-1e10	8	-1e10	8	-1E+10	1	-1E+10	1	-1E+10	1	-1E+10	1	-1E+10	1	-1E+10	1
4902554	39	C	03/02/2022	23:54	-136.184	49.499	0	228.70	0	5.0530	0	33.8010	0	26.721	0	226.624	0	-1e10	8	-1e10	8	-1E+10	1	-1E+10	1	-1E+10	1	-1E+10	1	-1E+10	1	-1E+10	1
4902554	39	C	03/02/2022	23:54	-136.184	49.499	0	229.70	0	5.0340	0	33.8020	0	26.724	0	227.615	0	-1e10	8	-1e10	8	-1E+10	1	-1E+10	1	-1E+10	1	-1E+10	1	-1E+10	1	-1E+10	1
4902554	39	C	03/02/2022	23:54	-136.184	49.499	0	230.60	0	5.0200	0	33.8030	0	26.726	0	228.506	0	-1e10	8	-1e10	8	-1E+10	1	-1E+10	1	-1E+10	1	-1E+10	1	-1E+10	1	-1E+10	1
4902554	39	C	03/02/2022	23:54	-136.184	49.499	0	231.60	0	5.0130	0	33.8030	0	26.727	0	229.496	0	-1e10	8	-1e10	8	-1E+10	1	-1E+10	1	-1E+10	1	-1E+10	1	-1E+10	1	-1E+10	1
4902554	39	C	03/02/2022	23:54	-136.184	49.499	0	232.90	0	5.0020	0	33.8030	0	26.728	0	230.784	0	-1e10	8	-1e10	8	-1E+10	1	-1E+10	1	-1E+10	1	-1E+10	1	-1E+10	1	-1E+10	1
4902554	39	C	03/02/2022	23:54	-136.184	49.499	0	234.40	0	4.9860	0	33.8040	0	26.731	0	232.269	0	-1e10	8	-1e10	8	-1E+10	1	-1E+10	1	-1E+10	1	-1E+10	1	-1E+10	1	-1E+10	1
4902554	39	C	03/02/2022	23:54	-136.184	49.499	0	235.30	0	4.9840	0	33.8030	0	26.730	0	233.161	0	-1e10	8	-1e10	8	-1E+10	1	-1E+10	1	-1E+10	1	-1E+10	1	-1E+10	1	-1E+10	1
4902554	39	C	03/02/2022	23:54	-136.184	49.499	0	236.20	0	4.9690	0	33.8040	0	26.733	0	234.052	0	-1e10	8	-1e10	8	-1E+10	1	-1E+10	1	-1E+10	1	-1E+10	1	-1E+10	1	-1E+10	1
4902554	39	C	03/02/2022	23:54	-136.184	49.499	0	237.20	0	4.9650	0	33.8050	0	26.734	0	235.042	0	-1e10	8	-1e10	8	-1E+10	1	-1E+10	1	-1E+10	1	-1E+10	1	-1E+10	1	-1E+10	1
4902554	39	C	03/02/2022	23:54	-136.184	49.499	0	238.10	0	4.9580	0	33.8050	0	26.735	0	235.934	0	-1e10	8	-1e10	8	-1E+10	1	-1E+10	1	-1E+10	1	-1E+10	1	-1E+10	1	-1E+10	1
4902554	39	C	03/02/2022	23:54	-136.184	49.499	0	239.00	0	4.9560	0	33.8050	0	26.735	0	236.825	0	-1e10	8	-1e10	8	-1E+10	1	-1E+10	1	-1E+10	1	-1E+10	1	-1E+10	1	-1E+10	1
4902554	39	C	03/02/2022	23:54	-136.184	49.499	0	240.00	0	4.9510	0	33.8060	0	26.736	0	237.815	0	-1e10	8	-1e10	8	-1E+10	1	-1E+10	1	-1E+10	1	-1E+10	1	-1E+10	1	-1E+10	1
4902554	39	C	03/02/2022	23:54	-136.184	49.499	0	240.90	0	4.9460	0	33.8060	0	26.737	0	238.706	0	-1e10	8	-1e10	8	-1E+10	1	-1E+10	1	-1E+10	1	-1E+10	1	-1E+10	1	-1E+10	1
4902554	39	C	03/02/2022	23:54	-136.184	49.499	0	241.80	0	4.9420	0	33.8070	0	26.738	0	239.598	0	-1e10	8	-1e10	8	-1E+10	1	-1E+10	1	-1E+10	1	-1E+10	1	-1E+10	1	-1E+10	1
4902554	39	C	03/02/2022	23:54	-136.184	49.499	0	242.70	0	4.9370	0	33.8070	0	26.739	0	240.489	0	-1e10	8	-1e10	8	-1E+10	1	-1E+10	1	-1E+10	1	-1E+10	1	-1E+10	1	-1E+10	1
4902554	39	C	03/02/2022	23:54	-136.184	49.499	0	243.60	0	4.9330	0	33.8080	0	26.740	0	241.380	0	-1e10	8	-1e10	8	-1E+10	1	-1E+10	1	-1E+10	1	-1E+10	1	-1E+10	1	-1E+10	1
4902554	39	C	03/02/2022	23:54	-136.184	49.499	0	244.90	0	4.9130	0	33.8110	0	26.745	0	242.668	0	-1e10	8	-1e10	8	-1E+10	1	-1E+10	1	-1E+10	1	-1E+10	1	-1E+10	1	-1E+10	1
4902554	39	C	03/02/2022	23:54	-136.184	49.499	0	246.30	0	4.8910	0	33.8150	0	26.750	0	244.054	0	-1e10	8	-1e10	8	-1E+10	1	-1E+10	1	-1E+10	1	-1E+10	1	-1E+10	1	-1E+10	1
4902554	39	C	03/02/2022	23:54	-136.184	49.499	0	247.30	0	4.8900	0	33.8150	0	26.750	0	245.044	0	-1e10	8	-1e10	8	-1E+10	1	-1E+10	1	-1E+10	1	-1E+10	1	-1E+10	1	-1E+10	1
4902554	39	C	03/02/2022	23:54	-136.184	49.499	0	248.20	0	4.8890	0	33.8140	0	26.750	0	245.936	0	-1e10	8	-1e10	8	-1E+10	1	-1E+10	1	-1E+10	1	-1E+10	1	-1E+10	1	-1E+10	1
4902554	39	C	03/02/2022	23:54	-136.184	49.499	0	249.10	0	4.8700	0	33.8160	0	26.753	0	246.827	0	-1e10	8	-1e10	8	-1E+10	1	-1E+10	1	-1E+10	1	-1E+10	1	-1E+10	1	-1E+10	1
4902554	39	C	03/02/2022	23:54	-136.184	49.499	0	250.00	0	4.8560	0	33.8180	0	26.757	0	247.718	0	-1e10	8	-1e10	8	-1E+10	1	-1E+10	1	-1E+10	1	-1E+10	1	-1E+10	1	-1E+10	1
4902554	39	C	03/02/2022	23:54	-136.184	49.499	0	250.90	0	4.8460	0	33.8190	0	26.759	0	248.609	0	-1e10	8	-1e10	8	-1E+10	1	-1E+10	1	-1E+10	1	-1E+10	1	-1E+10	1	-1E+10	1
4902554	39	C	03/02/2022	23:54	-136.184	49.499	0	251.80	0	4.8380	0	33.8210	0	26.761	0	249.501	0	-1e10	8	-1e10	8	-1E+10	1	-1E+10	1	-1E+10	1	-1E+10	1	-1E+10	1	-1E+10	1
4902554	39	C	03/02/2022	23:54	-136.184	49.499	0	252.70	0	4.8370	0	33.8210	0	26.761	0	250.392	0	-1e10	8	-1e10	8	-1E+10	1	-1E+10	1	-1E+10	1	-1E+10	1	-1E+10	1	-1E+10	1
4902554	39	C	03/02/2022	23:54	-136.184	49.499	0	253.60	0	4.8280	0	33.8220	0	26.763	0	251.283	0	-1e10	8	-1e10	8	-1E+10	1	-1E+10	1	-1E+10	1	-1E+10	1	-1E+10	1	-1E+10	1
4902554	39	C	03/02/2022	23:54	-136.184	49.499	0	254.60	0	4.8240	0	33.8230	0	26.764	0	252.273	0	-1e10	8	-1e10	8	-1E+10	1	-1E+10	1	-1E+10	1	-1E+10	1	-1E+10	1	-1E+10	1
4902554	39	C	03/02/2022	23:54	-136.184	49.499	0	255.90	0	4.8130	0	33.8250	0	26.767	0	253.561	0	-1e10	8	-1e10	8	-1E+10	1	-1E+10	1	-1E+10	1	-1E+10	1	-1E+10	1	-1E+10	1
4902554	39	C	03/02/2022	23:54	-136.184	49.499	0	257.40	0	4.8100	0	33.8260	0	26.768	0	255.046	0	-1e10	8	-1e10	8	-1E+10	1	-1E+10	1	-1E+10	1	-1E+10	1	-1E+10	1	-1E+10	1
4902554	39	C	03/02/2022	23:54	-136.184	49.499	0	258.30	0	4.8140	0	33.8280	0	26.769	0	255.937	0	-1e10	8	-1e10	8	-1E+10	1	-1E+10	1	-1E+10	1	-1E+10	1	-1E+10	1	-1E+10	1
4902554	39	C	03/02/2022	23:54	-136.184	49.499	0	259.20	0	4.8140	0	33.8290	0	26.770	0	256.829	0	-1e10	8	-1e10	8	-1E+10	1	-1E+10	1	-1E+10	1	-1E+10	1	-1E+10	1	-1E+10	1
4902554	39	C	03/02/2022	23:54	-136.184	49.499	0	260.10	0	4.8180	0	33.8290	0	26.770	0	257.720	0	-1e10	8	-1e10	8	-1E+10	1	-1E+10	1	-1E+10	1	-1E+10	1	-1E+10	1	-1E+10	1
4902554	39	C	03/02/2022	23:54	-136.184	49.499	0	261.00	0	4.8020	0	33.8330	0	26.775	0	258.611	0	-1e10	8	-1e10	8	-1E+10	1	-1E+10	1	-1E+10	1	-1E+10	1	-1E+10	1	-1E+10	1
4902554	39	C	03/02/2022	23:54	-136.184	49.499	0	261.90	0	4.7950	0	33.8320	0	26.775	0	259.502	0	-1e10	8	-1e10	8	-1E+10	1	-1E+10	1	-1E+10	1	-1E+10	1	-1E+10	1	-1E+10	1
4902554	39	C	03/02/2022	23:54	-136.184	49.499	0	262.90	0	4.7950	0	33.8320	0	26.775	0	260.492	0	-1e10	8	-1e10	8	-1E+10	1	-1E+10	1	-1E+10	1	-1E+10	1	-1E+10	1	-1E+10	1
4902554	39	C	03/02/2022	23:54	-136.184	49.499	0	263.80	0	4.7940	0	33.8320	0	26.775	0	261.383	0	-1e10	8	-1e10	8	-1E+10	1	-1E+10	1	-1E+10	1	-1E+10	1	-1E+10	1	-1E+10	1
4902554	39	C	03/02/2022	23:54	-136.184	49.499	0	264.70	0	4.7790	0	33.8340	0	26.778	0	262.275	0	-1e10	8	-1e10	8	-1E+10	1	-1E+10	1	-1E+10	1	-1E+10	1	-1E+10	1	-1E+10	1
4902554	39	C	03/02/2022	23:54	-136.184	49.499	0	265.60	0	4.7790	0	33.8350	0	26.779	0	263.166	0	-1e10	8	-1e10	8	-1E+10	1	-1E+10	1	-1E+10	1	-1E+10	1	-1E+10	1	-1E+10	1
4902554	39	C	03/02/2022	23:54	-136.184	49.499	0	266.60	0	4.7750	0	33.8370	0	26.781	0	264.156	0	-1e10	8	-1e10	8	-1E+10	1	-1E+10	1	-1E+10	1	-1E+10	1	-1E+10	1	-1E+10	1
4902554	39	C	03/02/2022	23:54	-136.184	49.499	0	267.90	0	4.7710	0	33.8390	0	26.783	0	265.443	0	-1e10	8	-1e10	8	-1E+10	1	-1E+10	1	-1E+10	1	-1E+10	1	-1E+10	1	-1E+10	1
4902554	39	C	03/02/2022	23:54	-136.184	49.499	0	269.30	0	4.7570	0	33.8430	0	26.788	0	266.830	0	-1e10	8	-1e10	8	-1E+10	1	-1E+10	1	-1E+10	1	-1E+10	1	-1E+10	1	-1E+10	1
4902554	39	C	03/02/2022	23:54	-136.184	49.499	0	270.30	0	4.7370	0	33.8460	0	26.792	0	267.820	0	-1e10	8	-1e10	8	-1E+10	1	-1E+10	1	-1E+10	1	-1E+10	1	-1E+10	1	-1E+10	1
4902554	39	C	03/02/2022	23:54	-136.184	49.499	0	271.20	0	4.7350	0	33.8460	0	26.792	0	268.711	0	-1e10	8	-1e10	8	-1E+10	1	-1E+10	1	-1E+10	1	-1E+10	1	-1E+10	1	-1E+10	1
4902554	39	C	03/02/2022	23:54	-136.184	49.499	0	272.20	0	4.7330	0	33.8470	0	26.793	0	269.701	0	-1e10	8	-1e10	8	-1E+10	1	-1E+10	1	-1E+10	1	-1E+10	1	-1E+10	1	-1E+10	1
4902554	39	C	03/02/2022	23:54	-136.184	49.499	0	273.10	0	4.7240	0	33.8480	0	26.795	0	270.592	0	-1e10	8	-1e10	8	-1E+10	1	-1E+10	1	-1E+10	1	-1E+10	1	-1E+10	1	-1E+10	1
4902554	39	C	03/02/2022	23:54	-136.184	49.499	0	274.00	0	4.7110	0	33.8510	0	26.799	0	271.483	0	-1e10	8	-1e10	8	-1E+10	1	-1E+10	1	-1E+10	1	-1E+10	1	-1E+10	1	-1E+10	1
4902554	39	C	03/02/2022	23:54	-136.184	49.499	0	275.00	0	4.7050	0	33.8520	0	26.801	0	272.474	0	-1e10	8	-1e10	8	-1E+10	1	-1E+10	1	-1E+10	1	-1E+10	1	-1E+10	1	-1E+10	1
4902554	39	C	03/02/2022	23:54	-136.184	49.499	0	275.90	0	4.7040	0	33.8520	0	26.801	0	273.365	0	-1e10	8	-1e10	8	-1E+10	1	-1E+10	1	-1E+10	1	-1E+10	1	-1E+10	1	-1E+10	1
4902554	39	C	03/02/2022	23:54	-136.184	49.499	0	276.90	0	4.7030	0	33.8530	0	26.802	0	274.355	0	-1e10	8	-1e10	8	-1E+10	1	-1E+10	1	-1E+10	1	-1E+10	1	-1E+10	1	-1E+10	1
4902554	39	C	03/02/2022	23:54	-136.184	49.499	0	277.80	0	4.6990	0	33.8530	0	26.802	0	275.246	0	-1e10	8	-1e10	8	-1E+10	1	-1E+10	1	-1E+10	1	-1E+10	1	-1E+10	1	-1E+10	1
4902554	39	C	03/02/2022	23:54	-136.184	49.499	0	278.80	0	4.6980	0	33.8530	0	26.802	0	276.236	0	-1e10	8	-1e10	8	-1E+10	1	-1E+10	1	-1E+10	1	-1E+10	1	-1E+10	1	-1E+10	1
4902554	39	C	03/02/2022	23:54	-136.184	49.499	0	279.70	0	4.6910	0	33.8560	0	26.805	0	277.127	0	-1e10	8	-1e10	8	-1E+10	1	-1E+10	1	-1E+10	1	-1E+10	1	-1E+10	1	-1E+10	1
4902554	39	C	03/02/2022	23:54	-136.184	49.499	0	280.70	0	4.6910	0	33.8550	0	26.805	0	278.117	0	-1e10	8	-1e10	8	-1E+10	1	-1E+10	1	-1E+10	1	-1E+10	1	-1E+10	1	-1E+10	1
4902554	39	C	03/02/2022	23:54	-136.184	49.499	0	281.60	0	4.6880	0	33.8550	0	26.805	0	279.008	0	-1e10	8	-1e10	8	-1E+10	1	-1E+10	1	-1E+10	1	-1E+10	1	-1E+10	1	-1E+10	1
4902554	39	C	03/02/2022	23:54	-136.184	49.499	0	282.60	0	4.6860	0	33.8550	0	26.805	0	279.999	0	-1e10	8	-1e10	8	-1E+10	1	-1E+10	1	-1E+10	1	-1E+10	1	-1E+10	1	-1E+10	1
4902554	39	C	03/02/2022	23:54	-136.184	49.499	0	283.60	0	4.6730	0	33.8590	0	26.810	0	280.989	0	-1e10	8	-1e10	8	-1E+10	1	-1E+10	1	-1E+10	1	-1E+10	1	-1E+10	1	-1E+10	1
4902554	39	C	03/02/2022	23:54	-136.184	49.499	0	284.50	0	4.6680	0	33.8600	0	26.811	0	281.880	0	-1e10	8	-1e10	8	-1E+10	1	-1E+10	1	-1E+10	1	-1E+10	1	-1E+10	1	-1E+10	1
4902554	39	C	03/02/2022	23:54	-136.184	49.499	0	285.90	0	4.6600	0	33.8620	0	26.813	0	283.266	0	-1e10	8	-1e10	8	-1E+10	1	-1E+10	1	-1E+10	1	-1E+10	1	-1E+10	1	-1E+10	1
4902554	39	C	03/02/2022	23:54	-136.184	49.499	0	287.40	0	4.6560	0	33.8630	0	26.815	0	284.751	0	-1e10	8	-1e10	8	-1E+10	1	-1E+10	1	-1E+10	1	-1E+10	1	-1E+10	1	-1E+10	1
4902554	39	C	03/02/2022	23:54	-136.184	49.499	0	288.30	0	4.6530	0	33.8630	0	26.815	0	285.642	0	-1e10	8	-1e10	8	-1E+10	1	-1E+10	1	-1E+10	1	-1E+10	1	-1E+10	1	-1E+10	1
4902554	39	C	03/02/2022	23:54	-136.184	49.499	0	289.30	0	4.6500	0	33.8640	0	26.816	0	286.632	0	-1e10	8	-1e10	8	-1E+10	1	-1E+10	1	-1E+10	1	-1E+10	1	-1E+10	1	-1E+10	1
4902554	39	C	03/02/2022	23:54	-136.184	49.499	0	290.30	0	4.6460	0	33.8650	0	26.817	0	287.622	0	-1e10	8	-1e10	8	-1E+10	1	-1E+10	1	-1E+10	1	-1E+10	1	-1E+10	1	-1E+10	1
4902554	39	C	03/02/2022	23:54	-136.184	49.499	0	291.20	0	4.6360	0	33.8670	0	26.820	0	288.513	0	-1e10	8	-1e10	8	-1E+10	1	-1E+10	1	-1E+10	1	-1E+10	1	-1E+10	1	-1E+10	1
4902554	39	C	03/02/2022	23:54	-136.184	49.499	0	292.20	0	4.6300	0	33.8680	0	26.822	0	289.504	0	-1e10	8	-1e10	8	-1E+10	1	-1E+10	1	-1E+10	1	-1E+10	1	-1E+10	1	-1E+10	1
4902554	39	C	03/02/2022	23:54	-136.184	49.499	0	293.20	0	4.6210	0	33.8700	0	26.824	0	290.494	0	-1e10	8	-1e10	8	-1E+10	1	-1E+10	1	-1E+10	1	-1E+10	1	-1E+10	1	-1E+10	1
4902554	39	C	03/02/2022	23:54	-136.184	49.499	0	294.20	0	4.6110	0	33.8710	0	26.826	0	291.484	0	-1e10	8	-1e10	8	-1E+10	1	-1E+10	1	-1E+10	1	-1E+10	1	-1E+10	1	-1E+10	1
4902554	39	C	03/02/2022	23:54	-136.184	49.499	0	295.10	0	4.6050	0	33.8710	0	26.827	0	292.375	0	-1e10	8	-1e10	8	-1E+10	1	-1E+10	1	-1E+10	1	-1E+10	1	-1E+10	1	-1E+10	1
4902554	39	C	03/02/2022	23:54	-136.184	49.499	0	296.10	0	4.6030	0	33.8720	0	26.828	0	293.365	0	-1e10	8	-1e10	8	-1E+10	1	-1E+10	1	-1E+10	1	-1E+10	1	-1E+10	1	-1E+10	1
4902554	39	C	03/02/2022	23:54	-136.184	49.499	0	297.10	0	4.6010	0	33.8750	0	26.830	0	294.355	0	-1e10	8	-1e10	8	-1E+10	1	-1E+10	1	-1E+10	1	-1E+10	1	-1E+10	1	-1E+10	1
4902554	39	C	03/02/2022	23:54	-136.184	49.499	0	298.00	0	4.5970	0	33.8750	0	26.831	0	295.246	0	-1e10	8	-1e10	8	-1E+10	1	-1E+10	1	-1E+10	1	-1E+10	1	-1E+10	1	-1E+10	1
4902554	39	C	03/02/2022	23:54	-136.184	49.499	0	299.00	0	4.5910	0	33.8760	0	26.832	0	296.236	0	-1e10	8	-1e10	8	-1E+10	1	-1E+10	1	-1E+10	1	-1E+10	1	-1E+10	1	-1E+10	1
4902554	39	C	03/02/2022	23:54	-136.184	49.499	0	300.00	0	4.5890	0	33.8770	0	26.833	0	297.226	0	-1e10	8	-1e10	8	-1E+10	1	-1E+10	1	-1E+10	1	-1E+10	1	-1E+10	1	-1E+10	1
4902554	39	C	03/02/2022	23:54	-136.184	49.499	0	301.00	0	4.5870	0	33.8770	0	26.833	0	298.216	0	-1e10	8	-1e10	8	-1E+10	1	-1E+10	1	-1E+10	1	-1E+10	1	-1E+10	1	-1E+10	1
4902554	39	C	03/02/2022	23:54	-136.184	49.499	0	301.90	0	4.5820	0	33.8790	0	26.836	0	299.107	0	-1e10	8	-1e10	8	-1E+10	1	-1E+10	1	-1E+10	1	-1E+10	1	-1E+10	1	-1E+10	1
4902554	39	C	03/02/2022	23:54	-136.184	49.499	0	302.90	0	4.5730	0	33.8820	0	26.839	0	300.097	0	-1e10	8	-1e10	8	-1E+10	1	-1E+10	1	-1E+10	1	-1E+10	1	-1E+10	1	-1E+10	1
4902554	39	C	03/02/2022	23:54	-136.184	49.499	0	303.90	0	4.5680	0	33.8830	0	26.840	0	301.087	0	-1e10	8	-1e10	8	-1E+10	1	-1E+10	1	-1E+10	1	-1E+10	1	-1E+10	1	-1E+10	1
4902554	39	C	03/02/2022	23:54	-136.184	49.499	0	304.90	0	4.5650	0	33.8840	0	26.841	0	302.077	0	-1e10	8	-1e10	8	-1E+10	1	-1E+10	1	-1E+10	1	-1E+10	1	-1E+10	1	-1E+10	1
4902554	39	C	03/02/2022	23:54	-136.184	49.499	0	305.80	0	4.5620	0	33.8850	0	26.843	0	302.968	0	-1e10	8	-1e10	8	-1E+10	1	-1E+10	1	-1E+10	1	-1E+10	1	-1E+10	1	-1E+10	1
4902554	39	C	03/02/2022	23:54	-136.184	49.499	0	306.80	0	4.5580	0	33.8870	0	26.845	0	303.958	0	-1e10	8	-1e10	8	-1E+10	1	-1E+10	1	-1E+10	1	-1E+10	1	-1E+10	1	-1E+10	1
4902554	39	C	03/02/2022	23:54	-136.184	49.499	0	307.80	0	4.5520	0	33.8890	0	26.847	0	304.948	0	-1e10	8	-1e10	8	-1E+10	1	-1E+10	1	-1E+10	1	-1E+10	1	-1E+10	1	-1E+10	1
4902554	39	C	03/02/2022	23:54	-136.184	49.499	0	308.80	0	4.5470	0	33.8910	0	26.849	0	305.938	0	-1e10	8	-1e10	8	-1E+10	1	-1E+10	1	-1E+10	1	-1E+10	1	-1E+10	1	-1E+10	1
4902554	39	C	03/02/2022	23:54	-136.184	49.499	0	309.90	0	4.5430	0	33.8920	0	26.850	0	307.027	0	-1e10	8	-1e10	8	-1E+10	1	-1E+10	1	-1E+10	1	-1E+10	1	-1E+10	1	-1E+10	1
4902554	39	C	03/02/2022	23:54	-136.184	49.499	0	310.90	0	4.5390	0	33.8940	0	26.852	0	308.017	0	-1e10	8	-1e10	8	-1E+10	1	-1E+10	1	-1E+10	1	-1E+10	1	-1E+10	1	-1E+10	1
4902554	39	C	03/02/2022	23:54	-136.184	49.499	0	311.90	0	4.5360	0	33.8950	0	26.853	0	309.007	0	-1e10	8	-1e10	8	-1E+10	1	-1E+10	1	-1E+10	1	-1E+10	1	-1E+10	1	-1E+10	1
4902554	39	C	03/02/2022	23:54	-136.184	49.499	0	312.90	0	4.5350	0	33.8950	0	26.853	0	309.997	0	-1e10	8	-1e10	8	-1E+10	1	-1E+10	1	-1E+10	1	-1E+10	1	-1E+10	1	-1E+10	1
4902554	39	C	03/02/2022	23:54	-136.184	49.499	0	313.90	0	4.5350	0	33.8950	0	26.853	0	310.987	0	-1e10	8	-1e10	8	-1E+10	1	-1E+10	1	-1E+10	1	-1E+10	1	-1E+10	1	-1E+10	1
4902554	39	C	03/02/2022	23:54	-136.184	49.499	0	315.00	0	4.5330	0	33.8950	0	26.854	0	312.076	0	-1e10	8	-1e10	8	-1E+10	1	-1E+10	1	-1E+10	1	-1E+10	1	-1E+10	1	-1E+10	1
4902554	39	C	03/02/2022	23:54	-136.184	49.499	0	316.00	0	4.5320	0	33.8950	0	26.854	0	313.066	0	-1e10	8	-1e10	8	-1E+10	1	-1E+10	1	-1E+10	1	-1E+10	1	-1E+10	1	-1E+10	1
4902554	39	C	03/02/2022	23:54	-136.184	49.499	0	317.00	0	4.5310	0	33.8960	0	26.855	0	314.056	0	-1e10	8	-1e10	8	-1E+10	1	-1E+10	1	-1E+10	1	-1E+10	1	-1E+10	1	-1E+10	1
4902554	39	C	03/02/2022	23:54	-136.184	49.499	0	317.90	0	4.5300	0	33.8960	0	26.855	0	314.947	0	-1e10	8	-1e10	8	-1E+10	1	-1E+10	1	-1E+10	1	-1E+10	1	-1E+10	1	-1E+10	1
4902554	39	C	03/02/2022	23:54	-136.184	49.499	0	318.90	0	4.5270	0	33.8970	0	26.856	0	315.937	0	-1e10	8	-1e10	8	-1E+10	1	-1E+10	1	-1E+10	1	-1E+10	1	-1E+10	1	-1E+10	1
4902554	39	C	03/02/2022	23:54	-136.184	49.499	0	320.00	0	4.5220	0	33.8980	0	26.857	0	317.026	0	-1e10	8	-1e10	8	-1E+10	1	-1E+10	1	-1E+10	1	-1E+10	1	-1E+10	1	-1E+10	1
4902554	39	C	03/02/2022	23:54	-136.184	49.499	0	321.20	0	4.5200	0	33.9000	0	26.859	0	318.214	0	-1e10	8	-1e10	8	-1E+10	1	-1E+10	1	-1E+10	1	-1E+10	1	-1E+10	1	-1E+10	1
4902554	39	C	03/02/2022	23:54	-136.184	49.499	0	322.00	0	4.5190	0	33.9000	0	26.859	0	319.006	0	-1e10	8	-1e10	8	-1E+10	1	-1E+10	1	-1E+10	1	-1E+10	1	-1E+10	1	-1E+10	1
4902554	39	C	03/02/2022	23:54	-136.184	49.499	0	322.80	0	4.5170	0	33.9010	0	26.860	0	319.797	0	-1e10	8	-1e10	8	-1E+10	1	-1E+10	1	-1E+10	1	-1E+10	1	-1E+10	1	-1E+10	1
4902554	39	C	03/02/2022	23:54	-136.184	49.499	0	324.00	0	4.5150	0	33.9010	0	26.860	0	320.985	0	-1e10	8	-1e10	8	-1E+10	1	-1E+10	1	-1E+10	1	-1E+10	1	-1E+10	1	-1E+10	1
4902554	39	C	03/02/2022	23:54	-136.184	49.499	0	325.10	0	4.5140	0	33.9020	0	26.861	0	322.074	0	-1e10	8	-1e10	8	-1E+10	1	-1E+10	1	-1E+10	1	-1E+10	1	-1E+10	1	-1E+10	1
4902554	39	C	03/02/2022	23:54	-136.184	49.499	0	326.00	0	4.5090	0	33.9030	0	26.863	0	322.965	0	-1e10	8	-1e10	8	-1E+10	1	-1E+10	1	-1E+10	1	-1E+10	1	-1E+10	1	-1E+10	1
4902554	39	C	03/02/2022	23:54	-136.184	49.499	0	326.70	0	4.5050	0	33.9050	0	26.865	0	323.658	0	-1e10	8	-1e10	8	-1E+10	1	-1E+10	1	-1E+10	1	-1E+10	1	-1E+10	1	-1E+10	1
4902554	39	C	03/02/2022	23:54	-136.184	49.499	0	328.00	0	4.5000	0	33.9060	0	26.866	0	324.945	0	-1e10	8	-1e10	8	-1E+10	1	-1E+10	1	-1E+10	1	-1E+10	1	-1E+10	1	-1E+10	1
4902554	39	C	03/02/2022	23:54	-136.184	49.499	0	329.20	0	4.4940	0	33.9090	0	26.869	0	326.133	0	-1e10	8	-1e10	8	-1E+10	1	-1E+10	1	-1E+10	1	-1E+10	1	-1E+10	1	-1E+10	1
4902554	39	C	03/02/2022	23:54	-136.184	49.499	0	330.00	0	4.4890	0	33.9110	0	26.871	0	326.925	0	-1e10	8	-1e10	8	-1E+10	1	-1E+10	1	-1E+10	1	-1E+10	1	-1E+10	1	-1E+10	1
4902554	39	C	03/02/2022	23:54	-136.184	49.499	0	330.80	0	4.4870	0	33.9120	0	26.872	0	327.717	0	-1e10	8	-1e10	8	-1E+10	1	-1E+10	1	-1E+10	1	-1E+10	1	-1E+10	1	-1E+10	1
4902554	39	C	03/02/2022	23:54	-136.184	49.499	0	331.70	0	4.4850	0	33.9130	0	26.873	0	328.608	0	-1e10	8	-1e10	8	-1E+10	1	-1E+10	1	-1E+10	1	-1E+10	1	-1E+10	1	-1E+10	1
4902554	39	C	03/02/2022	23:54	-136.184	49.499	0	332.90	0	4.4810	0	33.9140	0	26.875	0	329.796	0	-1e10	8	-1e10	8	-1E+10	1	-1E+10	1	-1E+10	1	-1E+10	1	-1E+10	1	-1E+10	1
4902554	39	C	03/02/2022	23:54	-136.184	49.499	0	334.10	0	4.4800	0	33.9140	0	26.875	0	330.983	0	-1e10	8	-1e10	8	-1E+10	1	-1E+10	1	-1E+10	1	-1E+10	1	-1E+10	1	-1E+10	1
4902554	39	C	03/02/2022	23:54	-136.184	49.499	0	335.00	0	4.4790	0	33.9150	0	26.876	0	331.874	0	-1e10	8	-1e10	8	-1E+10	1	-1E+10	1	-1E+10	1	-1E+10	1	-1E+10	1	-1E+10	1
4902554	39	C	03/02/2022	23:54	-136.184	49.499	0	335.80	0	4.4780	0	33.9150	0	26.876	0	332.666	0	-1e10	8	-1e10	8	-1E+10	1	-1E+10	1	-1E+10	1	-1E+10	1	-1E+10	1	-1E+10	1
4902554	39	C	03/02/2022	23:54	-136.184	49.499	0	336.60	0	4.4760	0	33.9160	0	26.877	0	333.458	0	-1e10	8	-1e10	8	-1E+10	1	-1E+10	1	-1E+10	1	-1E+10	1	-1E+10	1	-1E+10	1
4902554	39	C	03/02/2022	23:54	-136.184	49.499	0	337.90	0	4.4720	0	33.9170	0	26.878	0	334.745	0	-1e10	8	-1e10	8	-1E+10	1	-1E+10	1	-1E+10	1	-1E+10	1	-1E+10	1	-1E+10	1
4902554	39	C	03/02/2022	23:54	-136.184	49.499	0	339.20	0	4.4690	0	33.9190	0	26.880	0	336.032	0	-1e10	8	-1e10	8	-1E+10	1	-1E+10	1	-1E+10	1	-1E+10	1	-1E+10	1	-1E+10	1
4902554	39	C	03/02/2022	23:54	-136.184	49.499	0	340.10	0	4.4650	0	33.9210	0	26.882	0	336.923	0	-1e10	8	-1e10	8	-1E+10	1	-1E+10	1	-1E+10	1	-1E+10	1	-1E+10	1	-1E+10	1
4902554	39	C	03/02/2022	23:54	-136.184	49.499	0	340.90	0	4.4620	0	33.9220	0	26.883	0	337.714	0	-1e10	8	-1e10	8	-1E+10	1	-1E+10	1	-1E+10	1	-1E+10	1	-1E+10	1	-1E+10	1
4902554	39	C	03/02/2022	23:54	-136.184	49.499	0	341.80	0	4.4620	0	33.9230	0	26.884	0	338.605	0	-1e10	8	-1e10	8	-1E+10	1	-1E+10	1	-1E+10	1	-1E+10	1	-1E+10	1	-1E+10	1
4902554	39	C	03/02/2022	23:54	-136.184	49.499	0	342.60	0	4.4600	0	33.9220	0	26.883	0	339.397	0	-1e10	8	-1e10	8	-1E+10	1	-1E+10	1	-1E+10	1	-1E+10	1	-1E+10	1	-1E+10	1
4902554	39	C	03/02/2022	23:54	-136.184	49.499	0	343.90	0	4.4560	0	33.9240	0	26.885	0	340.684	0	-1e10	8	-1e10	8	-1E+10	1	-1E+10	1	-1E+10	1	-1E+10	1	-1E+10	1	-1E+10	1
4902554	39	C	03/02/2022	23:54	-136.184	49.499	0	345.30	0	4.4550	0	33.9250	0	26.886	0	342.070	0	-1e10	8	-1e10	8	-1E+10	1	-1E+10	1	-1E+10	1	-1E+10	1	-1E+10	1	-1E+10	1
4902554	39	C	03/02/2022	23:54	-136.184	49.499	0	346.10	0	4.4530	0	33.9260	0	26.887	0	342.862	0	-1e10	8	-1e10	8	-1E+10	1	-1E+10	1	-1E+10	1	-1E+10	1	-1E+10	1	-1E+10	1
4902554	39	C	03/02/2022	23:54	-136.184	49.499	0	347.00	0	4.4520	0	33.9260	0	26.887	0	343.752	0	-1e10	8	-1e10	8	-1E+10	1	-1E+10	1	-1E+10	1	-1E+10	1	-1E+10	1	-1E+10	1
4902554	39	C	03/02/2022	23:54	-136.184	49.499	0	347.90	0	4.4510	0	33.9260	0	26.887	0	344.643	0	-1e10	8	-1e10	8	-1E+10	1	-1E+10	1	-1E+10	1	-1E+10	1	-1E+10	1	-1E+10	1
4902554	39	C	03/02/2022	23:54	-136.184	49.499	0	348.80	0	4.4490	0	33.9280	0	26.889	0	345.534	0	-1e10	8	-1e10	8	-1E+10	1	-1E+10	1	-1E+10	1	-1E+10	1	-1E+10	1	-1E+10	1
4902554	39	C	03/02/2022	23:54	-136.184	49.499	0	349.70	0	4.4460	0	33.9290	0	26.890	0	346.425	0	-1e10	8	-1e10	8	-1E+10	1	-1E+10	1	-1E+10	1	-1E+10	1	-1E+10	1	-1E+10	1
4902554	39	C	03/02/2022	23:54	-136.184	49.499	0	352.80	0	4.4360	0	33.9330	0	26.895	0	349.493	0	-1e10	8	-1e10	8	-1E+10	1	-1E+10	1	-1E+10	1	-1E+10	1	-1E+10	1	-1E+10	1
4902554	39	C	03/02/2022	23:54	-136.184	49.499	0	358.20	0	4.4310	0	33.9360	0	26.898	0	354.838	0	-1e10	8	-1e10	8	-1E+10	1	-1E+10	1	-1E+10	1	-1E+10	1	-1E+10	1	-1E+10	1
4902554	39	C	03/02/2022	23:54	-136.184	49.499	0	362.90	0	4.4180	0	33.9430	0	26.905	0	359.490	0	-1e10	8	-1e10	8	-1E+10	1	-1E+10	1	-1E+10	1	-1E+10	1	-1E+10	1	-1E+10	1
4902554	39	C	03/02/2022	23:54	-136.184	49.499	0	367.60	0	4.4100	0	33.9470	0	26.909	0	364.141	0	-1e10	8	-1e10	8	-1E+10	1	-1E+10	1	-1E+10	1	-1E+10	1	-1E+10	1	-1E+10	1
4902554	39	C	03/02/2022	23:54	-136.184	49.499	0	372.40	0	4.3980	0	33.9540	0	26.915	0	368.892	0	-1e10	8	-1e10	8	-1E+10	1	-1E+10	1	-1E+10	1	-1E+10	1	-1E+10	1	-1E+10	1
4902554	39	C	03/02/2022	23:54	-136.184	49.499	0	377.50	0	4.3890	0	33.9590	0	26.920	0	373.939	0	-1e10	8	-1e10	8	-1E+10	1	-1E+10	1	-1E+10	1	-1E+10	1	-1E+10	1	-1E+10	1
4902554	39	C	03/02/2022	23:54	-136.184	49.499	0	382.60	0	4.3880	0	33.9600	0	26.921	0	378.987	0	-1e10	8	-1e10	8	-1E+10	1	-1E+10	1	-1E+10	1	-1E+10	1	-1E+10	1	-1E+10	1
4902554	39	C	03/02/2022	23:54	-136.184	49.499	0	387.80	0	4.3830	0	33.9630	0	26.924	0	384.133	0	-1e10	8	-1e10	8	-1E+10	1	-1E+10	1	-1E+10	1	-1E+10	1	-1E+10	1	-1E+10	1
4902554	39	C	03/02/2022	23:54	-136.184	49.499	0	392.90	0	4.3760	0	33.9670	0	26.928	0	389.180	0	-1e10	8	-1e10	8	-1E+10	1	-1E+10	1	-1E+10	1	-1E+10	1	-1E+10	1	-1E+10	1
4902554	39	C	03/02/2022	23:54	-136.184	49.499	0	398.10	0	4.3670	0	33.9720	0	26.933	0	394.326	0	-1e10	8	-1e10	8	-1E+10	1	-1E+10	1	-1E+10	1	-1E+10	1	-1E+10	1	-1E+10	1
4902554	39	C	03/02/2022	23:54	-136.184	49.499	0	403.20	0	4.3550	0	33.9780	0	26.939	0	399.372	0	-1e10	8	-1e10	8	-1E+10	1	-1E+10	1	-1E+10	1	-1E+10	1	-1E+10	1	-1E+10	1
4902554	39	C	03/02/2022	23:54	-136.184	49.499	0	408.20	0	4.3510	0	33.9810	0	26.942	0	404.320	0	-1e10	8	-1e10	8	-1E+10	1	-1E+10	1	-1E+10	1	-1E+10	1	-1E+10	1	-1E+10	1
4902554	39	C	03/02/2022	23:54	-136.184	49.499	0	413.10	0	4.3480	0	33.9820	0	26.943	0	409.169	0	-1e10	8	-1e10	8	-1E+10	1	-1E+10	1	-1E+10	1	-1E+10	1	-1E+10	1	-1E+10	1
4902554	39	C	03/02/2022	23:54	-136.184	49.499	0	417.90	0	4.3370	0	33.9890	0	26.950	0	413.918	0	-1e10	8	-1e10	8	-1E+10	1	-1E+10	1	-1E+10	1	-1E+10	1	-1E+10	1	-1E+10	1
4902554	39	C	03/02/2022	23:54	-136.184	49.499	0	422.60	0	4.3260	0	33.9940	0	26.955	0	418.569	0	-1e10	8	-1e10	8	-1E+10	1	-1E+10	1	-1E+10	1	-1E+10	1	-1E+10	1	-1E+10	1
4902554	39	C	03/02/2022	23:54	-136.184	49.499	0	427.80	0	4.3170	0	33.9990	0	26.960	0	423.714	0	-1e10	8	-1e10	8	-1E+10	1	-1E+10	1	-1E+10	1	-1E+10	1	-1E+10	1	-1E+10	1
4902554	39	C	03/02/2022	23:54	-136.184	49.499	0	432.80	0	4.3030	0	34.0070	0	26.968	0	428.661	0	-1e10	8	-1e10	8	-1E+10	1	-1E+10	1	-1E+10	1	-1E+10	1	-1E+10	1	-1E+10	1
4902554	39	C	03/02/2022	23:54	-136.184	49.499	0	437.90	0	4.2960	0	34.0120	0	26.973	0	433.707	0	-1e10	8	-1e10	8	-1E+10	1	-1E+10	1	-1E+10	1	-1E+10	1	-1E+10	1	-1E+10	1
4902554	39	C	03/02/2022	23:54	-136.184	49.499	0	443.00	0	4.2850	0	34.0190	0	26.980	0	438.752	0	-1e10	8	-1e10	8	-1E+10	1	-1E+10	1	-1E+10	1	-1E+10	1	-1E+10	1	-1E+10	1
4902554	39	C	03/02/2022	23:54	-136.184	49.499	0	448.00	0	4.2790	0	34.0240	0	26.984	0	443.699	0	-1e10	8	-1e10	8	-1E+10	1	-1E+10	1	-1E+10	1	-1E+10	1	-1E+10	1	-1E+10	1
4902554	39	C	03/02/2022	23:54	-136.184	49.499	0	453.10	0	4.2650	0	34.0330	0	26.993	0	448.745	0	-1e10	8	-1e10	8	-1E+10	1	-1E+10	1	-1E+10	1	-1E+10	1	-1E+10	1	-1E+10	1
4902554	39	C	03/02/2022	23:54	-136.184	49.499	0	457.70	0	4.2610	0	34.0370	0	26.997	0	453.295	0	-1e10	8	-1e10	8	-1E+10	1	-1E+10	1	-1E+10	1	-1E+10	1	-1E+10	1	-1E+10	1
4902554	39	C	03/02/2022	23:54	-136.184	49.499	0	462.90	0	4.2580	0	34.0410	0	27.000	0	458.440	0	-1e10	8	-1e10	8	-1E+10	1	-1E+10	1	-1E+10	1	-1E+10	1	-1E+10	1	-1E+10	1
4902554	39	C	03/02/2022	23:54	-136.184	49.499	0	468.20	0	4.2520	0	34.0470	0	27.006	0	463.683	0	-1e10	8	-1e10	8	-1E+10	1	-1E+10	1	-1E+10	1	-1E+10	1	-1E+10	1	-1E+10	1
4902554	39	C	03/02/2022	23:54	-136.184	49.499	0	473.10	0	4.2360	0	34.0540	0	27.013	0	468.530	0	-1e10	8	-1e10	8	-1E+10	1	-1E+10	1	-1E+10	1	-1E+10	1	-1E+10	1	-1E+10	1
4902554	39	C	03/02/2022	23:54	-136.184	49.499	0	478.10	0	4.2250	0	34.0590	0	27.018	0	473.476	0	-1e10	8	-1e10	8	-1E+10	1	-1E+10	1	-1E+10	1	-1E+10	1	-1E+10	1	-1E+10	1
4902554	39	C	03/02/2022	23:54	-136.184	49.499	0	483.10	0	4.2150	0	34.0630	0	27.022	0	478.422	0	-1e10	8	-1e10	8	-1E+10	1	-1E+10	1	-1E+10	1	-1E+10	1	-1E+10	1	-1E+10	1
4902554	39	C	03/02/2022	23:54	-136.184	49.499	0	488.30	0	4.2060	0	34.0680	0	27.027	0	483.565	0	-1e10	8	-1e10	8	-1E+10	1	-1E+10	1	-1E+10	1	-1E+10	1	-1E+10	1	-1E+10	1
4902554	39	C	03/02/2022	23:54	-136.184	49.499	0	493.00	0	4.2000	0	34.0720	0	27.031	0	488.214	0	-1e10	8	-1e10	8	-1E+10	1	-1E+10	1	-1E+10	1	-1E+10	1	-1E+10	1	-1E+10	1
4902554	39	C	03/02/2022	23:54	-136.184	49.499	0	497.90	0	4.1800	0	34.0780	0	27.038	0	493.061	0	-1e10	8	-1e10	8	-1E+10	1	-1E+10	1	-1E+10	1	-1E+10	1	-1E+10	1	-1E+10	1
4902554	39	C	03/02/2022	23:54	-136.184	49.499	0	503.00	0	4.1710	0	34.0830	0	27.043	0	498.105	0	-1e10	8	-1e10	8	-1E+10	1	-1E+10	1	-1E+10	1	-1E+10	1	-1E+10	1	-1E+10	1
4902554	39	C	03/02/2022	23:54	-136.184	49.499	0	507.80	0	4.1600	0	34.0860	0	27.046	0	502.853	0	-1e10	8	-1e10	8	-1E+10	1	-1E+10	1	-1E+10	1	-1E+10	1	-1E+10	1	-1E+10	1
4902554	39	C	03/02/2022	23:54	-136.184	49.499	0	512.80	0	4.1440	0	34.0900	0	27.051	0	507.798	0	-1e10	8	-1e10	8	-1E+10	1	-1E+10	1	-1E+10	1	-1E+10	1	-1E+10	1	-1E+10	1
4902554	39	C	03/02/2022	23:54	-136.184	49.499	0	517.90	0	4.1330	0	34.0940	0	27.056	0	512.842	0	-1e10	8	-1e10	8	-1E+10	1	-1E+10	1	-1E+10	1	-1E+10	1	-1E+10	1	-1E+10	1
4902554	39	C	03/02/2022	23:54	-136.184	49.499	0	523.00	0	4.1270	0	34.1010	0	27.062	0	517.886	0	-1e10	8	-1e10	8	-1E+10	1	-1E+10	1	-1E+10	1	-1E+10	1	-1E+10	1	-1E+10	1
4902554	39	C	03/02/2022	23:54	-136.184	49.499	0	527.90	0	4.1110	0	34.1040	0	27.066	0	522.732	0	-1e10	8	-1e10	8	-1E+10	1	-1E+10	1	-1E+10	1	-1E+10	1	-1E+10	1	-1E+10	1
4902554	39	C	03/02/2022	23:54	-136.184	49.499	0	532.80	0	4.0990	0	34.1050	0	27.068	0	527.577	0	-1e10	8	-1e10	8	-1E+10	1	-1E+10	1	-1E+10	1	-1E+10	1	-1E+10	1	-1E+10	1
4902554	39	C	03/02/2022	23:54	-136.184	49.499	0	537.90	0	4.0920	0	34.1090	0	27.072	0	532.621	0	-1e10	8	-1e10	8	-1E+10	1	-1E+10	1	-1E+10	1	-1E+10	1	-1E+10	1	-1E+10	1
4902554	39	C	03/02/2022	23:54	-136.184	49.499	0	543.00	0	4.0790	0	34.1130	0	27.077	0	537.664	0	-1e10	8	-1e10	8	-1E+10	1	-1E+10	1	-1E+10	1	-1E+10	1	-1E+10	1	-1E+10	1
4902554	39	C	03/02/2022	23:54	-136.184	49.499	0	548.10	0	4.0740	0	34.1170	0	27.080	0	542.707	0	-1e10	8	-1e10	8	-1E+10	1	-1E+10	1	-1E+10	1	-1E+10	1	-1E+10	1	-1E+10	1
4902554	39	C	03/02/2022	23:54	-136.184	49.499	0	552.70	0	4.0660	0	34.1200	0	27.084	0	547.256	0	-1e10	8	-1e10	8	-1E+10	1	-1E+10	1	-1E+10	1	-1E+10	1	-1E+10	1	-1E+10	1
4902554	39	C	03/02/2022	23:54	-136.184	49.499	0	557.80	0	4.0480	0	34.1250	0	27.089	0	552.299	0	-1e10	8	-1e10	8	-1E+10	1	-1E+10	1	-1E+10	1	-1E+10	1	-1E+10	1	-1E+10	1
4902554	39	C	03/02/2022	23:54	-136.184	49.499	0	563.00	0	4.0380	0	34.1300	0	27.094	0	557.441	0	-1e10	8	-1e10	8	-1E+10	1	-1E+10	1	-1E+10	1	-1E+10	1	-1E+10	1	-1E+10	1
4902554	39	C	03/02/2022	23:54	-136.184	49.499	0	567.80	0	4.0330	0	34.1340	0	27.098	0	562.187	0	-1e10	8	-1e10	8	-1E+10	1	-1E+10	1	-1E+10	1	-1E+10	1	-1E+10	1	-1E+10	1
4902554	39	C	03/02/2022	23:54	-136.184	49.499	0	572.60	0	4.0250	0	34.1380	0	27.102	0	566.933	0	-1e10	8	-1e10	8	-1E+10	1	-1E+10	1	-1E+10	1	-1E+10	1	-1E+10	1	-1E+10	1
4902554	39	C	03/02/2022	23:54	-136.184	49.499	0	577.90	0	4.0100	0	34.1440	0	27.109	0	572.173	0	-1e10	8	-1e10	8	-1E+10	1	-1E+10	1	-1E+10	1	-1E+10	1	-1E+10	1	-1E+10	1
4902554	39	C	03/02/2022	23:54	-136.184	49.499	0	583.10	0	3.9970	0	34.1490	0	27.114	0	577.314	0	-1e10	8	-1e10	8	-1E+10	1	-1E+10	1	-1E+10	1	-1E+10	1	-1E+10	1	-1E+10	1
4902554	39	C	03/02/2022	23:54	-136.184	49.499	0	587.90	0	3.9860	0	34.1530	0	27.118	0	582.060	0	-1e10	8	-1e10	8	-1E+10	1	-1E+10	1	-1E+10	1	-1E+10	1	-1E+10	1	-1E+10	1
4902554	39	C	03/02/2022	23:54	-136.184	49.499	0	592.80	0	3.9780	0	34.1570	0	27.122	0	586.905	0	-1e10	8	-1e10	8	-1E+10	1	-1E+10	1	-1E+10	1	-1E+10	1	-1E+10	1	-1E+10	1
4902554	39	C	03/02/2022	23:54	-136.184	49.499	0	597.60	0	3.9710	0	34.1590	0	27.125	0	591.650	0	-1e10	8	-1e10	8	-1E+10	1	-1E+10	1	-1E+10	1	-1E+10	1	-1E+10	1	-1E+10	1
4902554	39	C	03/02/2022	23:54	-136.184	49.499	0	602.90	0	3.9580	0	34.1630	0	27.129	0	596.890	0	-1e10	8	-1e10	8	-1E+10	1	-1E+10	1	-1E+10	1	-1E+10	1	-1E+10	1	-1E+10	1
4902554	39	C	03/02/2022	23:54	-136.184	49.499	0	608.20	0	3.9400	0	34.1690	0	27.136	0	602.129	0	-1e10	8	-1e10	8	-1E+10	1	-1E+10	1	-1E+10	1	-1E+10	1	-1E+10	1	-1E+10	1
4902554	39	C	03/02/2022	23:54	-136.184	49.499	0	613.00	0	3.9300	0	34.1710	0	27.138	0	606.874	0	-1e10	8	-1e10	8	-1E+10	1	-1E+10	1	-1E+10	1	-1E+10	1	-1E+10	1	-1E+10	1
4902554	39	C	03/02/2022	23:54	-136.184	49.499	0	617.80	0	3.9140	0	34.1770	0	27.145	0	611.619	0	-1e10	8	-1e10	8	-1E+10	1	-1E+10	1	-1E+10	1	-1E+10	1	-1E+10	1	-1E+10	1
4902554	39	C	03/02/2022	23:54	-136.184	49.499	0	622.70	0	3.9010	0	34.1810	0	27.149	0	616.463	0	-1e10	8	-1e10	8	-1E+10	1	-1E+10	1	-1E+10	1	-1E+10	1	-1E+10	1	-1E+10	1
4902554	39	C	03/02/2022	23:54	-136.184	49.499	0	628.00	0	3.8980	0	34.1820	0	27.150	0	621.702	0	-1e10	8	-1e10	8	-1E+10	1	-1E+10	1	-1E+10	1	-1E+10	1	-1E+10	1	-1E+10	1
4902554	39	C	03/02/2022	23:54	-136.184	49.499	0	633.30	0	3.8940	0	34.1830	0	27.152	0	626.941	0	-1e10	8	-1e10	8	-1E+10	1	-1E+10	1	-1E+10	1	-1E+10	1	-1E+10	1	-1E+10	1
4902554	39	C	03/02/2022	23:54	-136.184	49.499	0	638.20	0	3.8830	0	34.1860	0	27.155	0	631.784	0	-1e10	8	-1e10	8	-1E+10	1	-1E+10	1	-1E+10	1	-1E+10	1	-1E+10	1	-1E+10	1
4902554	39	C	03/02/2022	23:54	-136.184	49.499	0	643.10	0	3.8730	0	34.1890	0	27.159	0	636.627	0	-1e10	8	-1e10	8	-1E+10	1	-1E+10	1	-1E+10	1	-1E+10	1	-1E+10	1	-1E+10	1
4902554	39	C	03/02/2022	23:54	-136.184	49.499	0	648.00	0	3.8600	0	34.1930	0	27.163	0	641.471	0	-1e10	8	-1e10	8	-1E+10	1	-1E+10	1	-1E+10	1	-1E+10	1	-1E+10	1	-1E+10	1
4902554	39	C	03/02/2022	23:54	-136.184	49.499	0	652.90	0	3.8420	0	34.1970	0	27.168	0	646.314	0	-1e10	8	-1e10	8	-1E+10	1	-1E+10	1	-1E+10	1	-1E+10	1	-1E+10	1	-1E+10	1
4902554	39	C	03/02/2022	23:54	-136.184	49.499	0	657.90	0	3.8290	0	34.2010	0	27.173	0	651.255	0	-1e10	8	-1e10	8	-1E+10	1	-1E+10	1	-1E+10	1	-1E+10	1	-1E+10	1	-1E+10	1
4902554	39	C	03/02/2022	23:54	-136.184	49.499	0	662.90	0	3.8140	0	34.2040	0	27.177	0	656.197	0	-1e10	8	-1e10	8	-1E+10	1	-1E+10	1	-1E+10	1	-1E+10	1	-1E+10	1	-1E+10	1
4902554	39	C	03/02/2022	23:54	-136.184	49.499	0	667.90	0	3.7910	0	34.2100	0	27.184	0	661.139	0	-1e10	8	-1e10	8	-1E+10	1	-1E+10	1	-1E+10	1	-1E+10	1	-1E+10	1	-1E+10	1
4902554	39	C	03/02/2022	23:54	-136.184	49.499	0	673.00	0	3.7780	0	34.2130	0	27.187	0	666.179	0	-1e10	8	-1e10	8	-1E+10	1	-1E+10	1	-1E+10	1	-1E+10	1	-1E+10	1	-1E+10	1
4902554	39	C	03/02/2022	23:54	-136.184	49.499	0	678.10	0	3.7710	0	34.2140	0	27.189	0	671.219	0	-1e10	8	-1e10	8	-1E+10	1	-1E+10	1	-1E+10	1	-1E+10	1	-1E+10	1	-1E+10	1
4902554	39	C	03/02/2022	23:54	-136.184	49.499	0	683.30	0	3.7590	0	34.2170	0	27.193	0	676.358	0	-1e10	8	-1e10	8	-1E+10	1	-1E+10	1	-1E+10	1	-1E+10	1	-1E+10	1	-1E+10	1
4902554	39	C	03/02/2022	23:54	-136.184	49.499	0	687.90	0	3.7490	0	34.2190	0	27.195	0	680.903	0	-1e10	8	-1e10	8	-1E+10	1	-1E+10	1	-1E+10	1	-1E+10	1	-1E+10	1	-1E+10	1
4902554	39	C	03/02/2022	23:54	-136.184	49.499	0	692.60	0	3.7390	0	34.2210	0	27.198	0	685.548	0	-1e10	8	-1e10	8	-1E+10	1	-1E+10	1	-1E+10	1	-1E+10	1	-1E+10	1	-1E+10	1
4902554	39	C	03/02/2022	23:54	-136.184	49.499	0	697.70	0	3.7200	0	34.2260	0	27.204	0	690.588	0	-1e10	8	-1e10	8	-1E+10	1	-1E+10	1	-1E+10	1	-1E+10	1	-1E+10	1	-1E+10	1
4902554	39	C	03/02/2022	23:54	-136.184	49.499	0	703.20	0	3.7020	0	34.2290	0	27.208	0	696.022	0	-1e10	8	-1e10	8	-1E+10	1	-1E+10	1	-1E+10	1	-1E+10	1	-1E+10	1	-1E+10	1
4902554	39	C	03/02/2022	23:54	-136.184	49.499	0	708.10	0	3.6820	0	34.2330	0	27.213	0	700.864	0	-1e10	8	-1e10	8	-1E+10	1	-1E+10	1	-1E+10	1	-1E+10	1	-1E+10	1	-1E+10	1
4902554	39	C	03/02/2022	23:54	-136.184	49.499	0	712.90	0	3.6720	0	34.2360	0	27.217	0	705.607	0	-1e10	8	-1e10	8	-1E+10	1	-1E+10	1	-1E+10	1	-1E+10	1	-1E+10	1	-1E+10	1
4902554	39	C	03/02/2022	23:54	-136.184	49.499	0	717.80	0	3.6690	0	34.2370	0	27.218	0	710.448	0	-1e10	8	-1e10	8	-1E+10	1	-1E+10	1	-1E+10	1	-1E+10	1	-1E+10	1	-1E+10	1
4902554	39	C	03/02/2022	23:54	-136.184	49.499	0	722.70	0	3.6590	0	34.2390	0	27.220	0	715.290	0	-1e10	8	-1e10	8	-1E+10	1	-1E+10	1	-1E+10	1	-1E+10	1	-1E+10	1	-1E+10	1
4902554	39	C	03/02/2022	23:54	-136.184	49.499	0	727.60	0	3.6460	0	34.2430	0	27.225	0	720.131	0	-1e10	8	-1e10	8	-1E+10	1	-1E+10	1	-1E+10	1	-1E+10	1	-1E+10	1	-1E+10	1
4902554	39	C	03/02/2022	23:54	-136.184	49.499	0	732.70	0	3.6370	0	34.2450	0	27.227	0	725.170	0	-1e10	8	-1e10	8	-1E+10	1	-1E+10	1	-1E+10	1	-1E+10	1	-1E+10	1	-1E+10	1
4902554	39	C	03/02/2022	23:54	-136.184	49.499	0	737.80	0	3.6230	0	34.2480	0	27.231	0	730.209	0	-1e10	8	-1e10	8	-1E+10	1	-1E+10	1	-1E+10	1	-1E+10	1	-1E+10	1	-1E+10	1
4902554	39	C	03/02/2022	23:54	-136.184	49.499	0	742.90	0	3.6090	0	34.2520	0	27.236	0	735.247	0	-1e10	8	-1e10	8	-1E+10	1	-1E+10	1	-1E+10	1	-1E+10	1	-1E+10	1	-1E+10	1
4902554	39	C	03/02/2022	23:54	-136.184	49.499	0	747.80	0	3.6000	0	34.2540	0	27.238	0	740.088	0	-1e10	8	-1e10	8	-1E+10	1	-1E+10	1	-1E+10	1	-1E+10	1	-1E+10	1	-1E+10	1
4902554	39	C	03/02/2022	23:54	-136.184	49.499	0	752.60	0	3.5880	0	34.2570	0	27.242	0	744.830	0	-1e10	8	-1e10	8	-1E+10	1	-1E+10	1	-1E+10	1	-1E+10	1	-1E+10	1	-1E+10	1
4902554	39	C	03/02/2022	23:54	-136.184	49.499	0	758.00	0	3.5760	0	34.2590	0	27.245	0	750.164	0	-1e10	8	-1e10	8	-1E+10	1	-1E+10	1	-1E+10	1	-1E+10	1	-1E+10	1	-1E+10	1
4902554	39	C	03/02/2022	23:54	-136.184	49.499	0	763.00	0	3.5590	0	34.2640	0	27.250	0	755.104	0	-1e10	8	-1e10	8	-1E+10	1	-1E+10	1	-1E+10	1	-1E+10	1	-1E+10	1	-1E+10	1
4902554	39	C	03/02/2022	23:54	-136.184	49.499	0	767.60	0	3.5550	0	34.2650	0	27.251	0	759.648	0	-1e10	8	-1e10	8	-1E+10	1	-1E+10	1	-1E+10	1	-1E+10	1	-1E+10	1	-1E+10	1
4902554	39	C	03/02/2022	23:54	-136.184	49.499	0	772.70	0	3.5480	0	34.2660	0	27.253	0	764.686	0	-1e10	8	-1e10	8	-1E+10	1	-1E+10	1	-1E+10	1	-1E+10	1	-1E+10	1	-1E+10	1
4902554	39	C	03/02/2022	23:54	-136.184	49.499	0	777.90	0	3.5430	0	34.2680	0	27.255	0	769.822	0	-1e10	8	-1e10	8	-1E+10	1	-1E+10	1	-1E+10	1	-1E+10	1	-1E+10	1	-1E+10	1
4902554	39	C	03/02/2022	23:54	-136.184	49.499	0	782.70	0	3.5330	0	34.2700	0	27.258	0	774.563	0	-1e10	8	-1e10	8	-1E+10	1	-1E+10	1	-1E+10	1	-1E+10	1	-1E+10	1	-1E+10	1
4902554	39	C	03/02/2022	23:54	-136.184	49.499	0	788.00	0	3.5230	0	34.2720	0	27.260	0	779.798	0	-1e10	8	-1e10	8	-1E+10	1	-1E+10	1	-1E+10	1	-1E+10	1	-1E+10	1	-1E+10	1
4902554	39	C	03/02/2022	23:54	-136.184	49.499	0	793.20	0	3.5120	0	34.2740	0	27.263	0	784.934	0	-1e10	8	-1e10	8	-1E+10	1	-1E+10	1	-1E+10	1	-1E+10	1	-1E+10	1	-1E+10	1
4902554	39	C	03/02/2022	23:54	-136.184	49.499	0	798.00	0	3.4880	0	34.2760	0	27.267	0	789.675	0	-1e10	8	-1e10	8	-1E+10	1	-1E+10	1	-1E+10	1	-1E+10	1	-1E+10	1	-1E+10	1
4902554	39	C	03/02/2022	23:54	-136.184	49.499	0	802.80	0	3.4780	0	34.2790	0	27.270	0	794.416	0	-1e10	8	-1e10	8	-1E+10	1	-1E+10	1	-1E+10	1	-1E+10	1	-1E+10	1	-1E+10	1
4902554	39	C	03/02/2022	23:54	-136.184	49.499	0	807.70	0	3.4610	0	34.2820	0	27.274	0	799.256	0	-1e10	8	-1e10	8	-1E+10	1	-1E+10	1	-1E+10	1	-1E+10	1	-1E+10	1	-1E+10	1
4902554	39	C	03/02/2022	23:54	-136.184	49.499	0	812.50	0	3.4450	0	34.2860	0	27.279	0	803.996	0	-1e10	8	-1e10	8	-1E+10	1	-1E+10	1	-1E+10	1	-1E+10	1	-1E+10	1	-1E+10	1
4902554	39	C	03/02/2022	23:54	-136.184	49.499	0	817.90	0	3.4350	0	34.2880	0	27.282	0	809.329	0	-1e10	8	-1e10	8	-1E+10	1	-1E+10	1	-1E+10	1	-1E+10	1	-1E+10	1	-1E+10	1
4902554	39	C	03/02/2022	23:54	-136.184	49.499	0	823.30	0	3.4100	0	34.2920	0	27.287	0	814.662	0	-1e10	8	-1e10	8	-1E+10	1	-1E+10	1	-1E+10	1	-1E+10	1	-1E+10	1	-1E+10	1
4902554	39	C	03/02/2022	23:54	-136.184	49.499	0	828.30	0	3.3990	0	34.2940	0	27.290	0	819.600	0	-1e10	8	-1e10	8	-1E+10	1	-1E+10	1	-1E+10	1	-1E+10	1	-1E+10	1	-1E+10	1
4902554	39	C	03/02/2022	23:54	-136.184	49.499	0	833.30	0	3.3890	0	34.2960	0	27.292	0	824.537	0	-1e10	8	-1e10	8	-1E+10	1	-1E+10	1	-1E+10	1	-1E+10	1	-1E+10	1	-1E+10	1
4902554	39	C	03/02/2022	23:54	-136.184	49.499	0	837.90	0	3.3760	0	34.2980	0	27.295	0	829.080	0	-1e10	8	-1e10	8	-1E+10	1	-1E+10	1	-1E+10	1	-1E+10	1	-1E+10	1	-1E+10	1
4902554	39	C	03/02/2022	23:54	-136.184	49.499	0	842.50	0	3.3560	0	34.3030	0	27.301	0	833.622	0	-1e10	8	-1e10	8	-1E+10	1	-1E+10	1	-1E+10	1	-1E+10	1	-1E+10	1	-1E+10	1
4902554	39	C	03/02/2022	23:54	-136.184	49.499	0	847.70	0	3.3400	0	34.3050	0	27.304	0	838.757	0	-1e10	8	-1e10	8	-1E+10	1	-1E+10	1	-1E+10	1	-1E+10	1	-1E+10	1	-1E+10	1
4902554	39	C	03/02/2022	23:54	-136.184	49.499	0	852.90	0	3.3300	0	34.3070	0	27.307	0	843.892	0	-1e10	8	-1e10	8	-1E+10	1	-1E+10	1	-1E+10	1	-1E+10	1	-1E+10	1	-1E+10	1
4902554	39	C	03/02/2022	23:54	-136.184	49.499	0	858.10	0	3.3150	0	34.3100	0	27.311	0	849.026	0	-1e10	8	-1e10	8	-1E+10	1	-1E+10	1	-1E+10	1	-1E+10	1	-1E+10	1	-1E+10	1
4902554	39	C	03/02/2022	23:54	-136.184	49.499	0	862.80	0	3.3080	0	34.3120	0	27.313	0	853.667	0	-1e10	8	-1e10	8	-1E+10	1	-1E+10	1	-1E+10	1	-1E+10	1	-1E+10	1	-1E+10	1
4902554	39	C	03/02/2022	23:54	-136.184	49.499	0	867.50	0	3.2950	0	34.3140	0	27.316	0	858.308	0	-1e10	8	-1e10	8	-1E+10	1	-1E+10	1	-1E+10	1	-1E+10	1	-1E+10	1	-1E+10	1
4902554	39	C	03/02/2022	23:54	-136.184	49.499	0	872.60	0	3.2760	0	34.3190	0	27.322	0	863.343	0	-1e10	8	-1e10	8	-1E+10	1	-1E+10	1	-1E+10	1	-1E+10	1	-1E+10	1	-1E+10	1
4902554	39	C	03/02/2022	23:54	-136.184	49.499	0	877.80	0	3.2650	0	34.3200	0	27.323	0	868.477	0	-1e10	8	-1e10	8	-1E+10	1	-1E+10	1	-1E+10	1	-1E+10	1	-1E+10	1	-1E+10	1
4902554	39	C	03/02/2022	23:54	-136.184	49.499	0	883.00	0	3.2540	0	34.3220	0	27.326	0	873.611	0	-1e10	8	-1e10	8	-1E+10	1	-1E+10	1	-1E+10	1	-1E+10	1	-1E+10	1	-1E+10	1
4902554	39	C	03/02/2022	23:54	-136.184	49.499	0	887.90	0	3.2490	0	34.3230	0	27.327	0	878.449	0	-1e10	8	-1e10	8	-1E+10	1	-1E+10	1	-1E+10	1	-1E+10	1	-1E+10	1	-1E+10	1
4902554	39	C	03/02/2022	23:54	-136.184	49.499	0	892.70	0	3.2430	0	34.3240	0	27.329	0	883.187	0	-1e10	8	-1e10	8	-1E+10	1	-1E+10	1	-1E+10	1	-1E+10	1	-1E+10	1	-1E+10	1
4902554	39	C	03/02/2022	23:54	-136.184	49.499	0	897.70	0	3.2330	0	34.3260	0	27.331	0	888.124	0	-1e10	8	-1e10	8	-1E+10	1	-1E+10	1	-1E+10	1	-1E+10	1	-1E+10	1	-1E+10	1
4902554	39	C	03/02/2022	23:54	-136.184	49.499	0	902.60	0	3.2230	0	34.3280	0	27.334	0	892.961	0	-1e10	8	-1e10	8	-1E+10	1	-1E+10	1	-1E+10	1	-1E+10	1	-1E+10	1	-1E+10	1
4902554	39	C	03/02/2022	23:54	-136.184	49.499	0	907.60	0	3.2180	0	34.3290	0	27.335	0	897.897	0	-1e10	8	-1e10	8	-1E+10	1	-1E+10	1	-1E+10	1	-1E+10	1	-1E+10	1	-1E+10	1
4902554	39	C	03/02/2022	23:54	-136.184	49.499	0	912.60	0	3.2060	0	34.3310	0	27.338	0	902.832	0	-1e10	8	-1e10	8	-1E+10	1	-1E+10	1	-1E+10	1	-1E+10	1	-1E+10	1	-1E+10	1
4902554	39	C	03/02/2022	23:54	-136.184	49.499	0	917.70	0	3.1940	0	34.3340	0	27.341	0	907.867	0	-1e10	8	-1e10	8	-1E+10	1	-1E+10	1	-1E+10	1	-1E+10	1	-1E+10	1	-1E+10	1
4902554	39	C	03/02/2022	23:54	-136.184	49.499	0	922.90	0	3.1850	0	34.3350	0	27.343	0	913.000	0	-1e10	8	-1e10	8	-1E+10	1	-1E+10	1	-1E+10	1	-1E+10	1	-1E+10	1	-1E+10	1
4902554	39	C	03/02/2022	23:54	-136.184	49.499	0	927.80	0	3.1820	0	34.3360	0	27.344	0	917.836	0	-1e10	8	-1e10	8	-1E+10	1	-1E+10	1	-1E+10	1	-1E+10	1	-1E+10	1	-1E+10	1
4902554	39	C	03/02/2022	23:54	-136.184	49.499	0	932.60	0	3.1780	0	34.3370	0	27.345	0	922.574	0	-1e10	8	-1e10	8	-1E+10	1	-1E+10	1	-1E+10	1	-1E+10	1	-1E+10	1	-1E+10	1
4902554	39	C	03/02/2022	23:54	-136.184	49.499	0	938.00	0	3.1700	0	34.3380	0	27.347	0	927.904	0	-1e10	8	-1e10	8	-1E+10	1	-1E+10	1	-1E+10	1	-1E+10	1	-1E+10	1	-1E+10	1
4902554	39	C	03/02/2022	23:54	-136.184	49.499	0	943.00	0	3.1550	0	34.3420	0	27.352	0	932.839	0	-1e10	8	-1e10	8	-1E+10	1	-1E+10	1	-1E+10	1	-1E+10	1	-1E+10	1	-1E+10	1
4902554	39	C	03/02/2022	23:54	-136.184	49.499	0	947.90	0	3.1460	0	34.3440	0	27.354	0	937.676	0	-1e10	8	-1e10	8	-1E+10	1	-1E+10	1	-1E+10	1	-1E+10	1	-1E+10	1	-1E+10	1
4902554	39	C	03/02/2022	23:54	-136.184	49.499	0	952.90	0	3.1400	0	34.3450	0	27.355	0	942.610	0	-1e10	8	-1e10	8	-1E+10	1	-1E+10	1	-1E+10	1	-1E+10	1	-1E+10	1	-1E+10	1
4902554	39	C	03/02/2022	23:54	-136.184	49.499	0	957.90	0	3.1250	0	34.3480	0	27.359	0	947.545	0	-1e10	8	-1e10	8	-1E+10	1	-1E+10	1	-1E+10	1	-1E+10	1	-1E+10	1	-1E+10	1
4902554	39	C	03/02/2022	23:54	-136.184	49.499	0	963.00	0	3.1140	0	34.3510	0	27.363	0	952.578	0	-1e10	8	-1e10	8	-1E+10	1	-1E+10	1	-1E+10	1	-1E+10	1	-1E+10	1	-1E+10	1
4902554	39	C	03/02/2022	23:54	-136.184	49.499	0	967.70	0	3.1080	0	34.3520	0	27.364	0	957.217	0	-1e10	8	-1e10	8	-1E+10	1	-1E+10	1	-1E+10	1	-1E+10	1	-1E+10	1	-1E+10	1
4902554	39	C	03/02/2022	23:54	-136.184	49.499	0	973.00	0	3.1010	0	34.3530	0	27.366	0	962.447	0	-1e10	8	-1e10	8	-1E+10	1	-1E+10	1	-1E+10	1	-1E+10	1	-1E+10	1	-1E+10	1
4902554	39	C	03/02/2022	23:54	-136.184	49.499	0	978.20	0	3.0920	0	34.3550	0	27.368	0	967.579	0	-1e10	8	-1e10	8	-1E+10	1	-1E+10	1	-1E+10	1	-1E+10	1	-1E+10	1	-1E+10	1
4902554	39	C	03/02/2022	23:54	-136.184	49.499	0	983.00	0	3.0820	0	34.3570	0	27.370	0	972.316	0	-1e10	8	-1e10	8	-1E+10	1	-1E+10	1	-1E+10	1	-1E+10	1	-1E+10	1	-1E+10	1
4902554	39	C	03/02/2022	23:54	-136.184	49.499	0	987.90	0	3.0750	0	34.3580	0	27.372	0	977.151	0	-1e10	8	-1e10	8	-1E+10	1	-1E+10	1	-1E+10	1	-1E+10	1	-1E+10	1	-1E+10	1
4902554	39	C	03/02/2022	23:54	-136.184	49.499	0	992.70	0	3.0700	0	34.3600	0	27.374	0	981.887	0	-1e10	8	-1e10	8	-1E+10	1	-1E+10	1	-1E+10	1	-1E+10	1	-1E+10	1	-1E+10	1
4902554	39	C	03/02/2022	23:54	-136.184	49.499	0	997.60	0	3.0610	0	34.3610	0	27.376	0	986.722	0	-1e10	8	-1e10	8	-1E+10	1	-1E+10	1	-1E+10	1	-1E+10	1	-1E+10	1	-1E+10	1
4902554	39	C	03/02/2022	23:54	-136.184	49.499	0	1005.30	0	3.0490	0	34.3640	0	27.379	0	994.320	0	-1e10	8	-1e10	8	-1E+10	1	-1E+10	1	-1E+10	1	-1E+10	1	-1E+10	1	-1E+10	1
4902554	39	C	03/02/2022	23:54	-136.184	49.499	0	1015.40	0	3.0250	0	34.3690	0	27.385	0	1004.286	0	-1e10	8	-1e10	8	-1E+10	1	-1E+10	1	-1E+10	1	-1E+10	1	-1E+10	1	-1E+10	1
4902554	39	C	03/02/2022	23:54	-136.184	49.499	0	1025.20	0	3.0110	0	34.3710	0	27.388	0	1013.955	0	-1e10	8	-1e10	8	-1E+10	1	-1E+10	1	-1E+10	1	-1E+10	1	-1E+10	1	-1E+10	1
4902554	39	C	03/02/2022	23:54	-136.184	49.499	0	1035.00	0	2.9950	0	34.3740	0	27.392	0	1023.623	0	-1e10	8	-1e10	8	-1E+10	1	-1E+10	1	-1E+10	1	-1E+10	1	-1E+10	1	-1E+10	1
4902554	39	C	03/02/2022	23:54	-136.184	49.499	0	1045.40	0	2.9820	0	34.3760	0	27.395	0	1033.884	0	-1e10	8	-1e10	8	-1E+10	1	-1E+10	1	-1E+10	1	-1E+10	1	-1E+10	1	-1E+10	1
4902554	39	C	03/02/2022	23:54	-136.184	49.499	0	1055.80	0	2.9620	0	34.3810	0	27.401	0	1044.143	0	-1e10	8	-1e10	8	-1E+10	1	-1E+10	1	-1E+10	1	-1E+10	1	-1E+10	1	-1E+10	1
4902554	39	C	03/02/2022	23:54	-136.184	49.499	0	1065.80	0	2.9440	0	34.3850	0	27.406	0	1054.008	0	-1e10	8	-1e10	8	-1E+10	1	-1E+10	1	-1E+10	1	-1E+10	1	-1E+10	1	-1E+10	1
4902554	39	C	03/02/2022	23:54	-136.184	49.499	0	1075.80	0	2.9220	0	34.3890	0	27.411	0	1063.872	0	-1e10	8	-1e10	8	-1E+10	1	-1E+10	1	-1E+10	1	-1E+10	1	-1E+10	1	-1E+10	1
4902554	39	C	03/02/2022	23:54	-136.184	49.499	0	1085.40	0	2.9040	0	34.3930	0	27.416	0	1073.341	0	-1e10	8	-1e10	8	-1E+10	1	-1E+10	1	-1E+10	1	-1E+10	1	-1E+10	1	-1E+10	1
4902554	39	C	03/02/2022	23:54	-136.184	49.499	0	1095.40	0	2.8950	0	34.3940	0	27.417	0	1083.204	0	-1e10	8	-1e10	8	-1E+10	1	-1E+10	1	-1E+10	1	-1E+10	1	-1E+10	1	-1E+10	1
4902554	39	C	03/02/2022	23:54	-136.184	49.499	0	1105.30	0	2.8790	0	34.3970	0	27.421	0	1092.968	0	-1e10	8	-1e10	8	-1E+10	1	-1E+10	1	-1E+10	1	-1E+10	1	-1E+10	1	-1E+10	1
4902554	39	C	03/02/2022	23:54	-136.184	49.499	0	1115.50	0	2.8590	0	34.4000	0	27.426	0	1103.027	0	-1e10	8	-1e10	8	-1E+10	1	-1E+10	1	-1E+10	1	-1E+10	1	-1E+10	1	-1E+10	1
4902554	39	C	03/02/2022	23:54	-136.184	49.499	0	1125.50	0	2.8460	0	34.4030	0	27.429	0	1112.889	0	-1e10	8	-1e10	8	-1E+10	1	-1E+10	1	-1E+10	1	-1E+10	1	-1E+10	1	-1E+10	1
4902554	39	C	03/02/2022	23:54	-136.184	49.499	0	1135.10	0	2.8300	0	34.4060	0	27.433	0	1122.356	0	-1e10	8	-1e10	8	-1E+10	1	-1E+10	1	-1E+10	1	-1E+10	1	-1E+10	1	-1E+10	1
4902554	39	C	03/02/2022	23:54	-136.184	49.499	0	1145.00	0	2.8220	0	34.4070	0	27.435	0	1132.118	0	-1e10	8	-1e10	8	-1E+10	1	-1E+10	1	-1E+10	1	-1E+10	1	-1E+10	1	-1E+10	1
4902554	39	C	03/02/2022	23:54	-136.184	49.499	0	1155.30	0	2.8120	0	34.4090	0	27.437	0	1142.274	0	-1e10	8	-1e10	8	-1E+10	1	-1E+10	1	-1E+10	1	-1E+10	1	-1E+10	1	-1E+10	1
4902554	39	C	03/02/2022	23:54	-136.184	49.499	0	1165.40	0	2.8040	0	34.4110	0	27.440	0	1152.232	0	-1e10	8	-1e10	8	-1E+10	1	-1E+10	1	-1E+10	1	-1E+10	1	-1E+10	1	-1E+10	1
4902554	39	C	03/02/2022	23:54	-136.184	49.499	0	1175.20	0	2.7910	0	34.4140	0	27.443	0	1161.895	0	-1e10	8	-1e10	8	-1E+10	1	-1E+10	1	-1E+10	1	-1E+10	1	-1E+10	1	-1E+10	1
4902554	39	C	03/02/2022	23:54	-136.184	49.499	0	1185.30	0	2.7750	0	34.4160	0	27.446	0	1171.852	0	-1e10	8	-1e10	8	-1E+10	1	-1E+10	1	-1E+10	1	-1E+10	1	-1E+10	1	-1E+10	1
4902554	39	C	03/02/2022	23:54	-136.184	49.499	0	1195.50	0	2.7630	0	34.4190	0	27.450	0	1181.908	0	-1e10	8	-1e10	8	-1E+10	1	-1E+10	1	-1E+10	1	-1E+10	1	-1E+10	1	-1E+10	1
4902554	39	C	03/02/2022	23:54	-136.184	49.499	0	1205.30	0	2.7460	0	34.4220	0	27.454	0	1191.569	0	-1e10	8	-1e10	8	-1E+10	1	-1E+10	1	-1E+10	1	-1E+10	1	-1E+10	1	-1E+10	1
4902554	39	C	03/02/2022	23:54	-136.184	49.499	0	1215.30	0	2.7310	0	34.4250	0	27.457	0	1201.426	0	-1e10	8	-1e10	8	-1E+10	1	-1E+10	1	-1E+10	1	-1E+10	1	-1E+10	1	-1E+10	1
4902554	39	C	03/02/2022	23:54	-136.184	49.499	0	1225.50	0	2.7160	0	34.4290	0	27.462	0	1211.480	0	-1e10	8	-1e10	8	-1E+10	1	-1E+10	1	-1E+10	1	-1E+10	1	-1E+10	1	-1E+10	1
4902554	39	C	03/02/2022	23:54	-136.184	49.499	0	1235.20	0	2.7040	0	34.4310	0	27.465	0	1221.041	0	-1e10	8	-1e10	8	-1E+10	1	-1E+10	1	-1E+10	1	-1E+10	1	-1E+10	1	-1E+10	1
4902554	39	C	03/02/2022	23:54	-136.184	49.499	0	1245.00	0	2.6990	0	34.4320	0	27.466	0	1230.700	0	-1e10	8	-1e10	8	-1E+10	1	-1E+10	1	-1E+10	1	-1E+10	1	-1E+10	1	-1E+10	1
4902554	39	C	03/02/2022	23:54	-136.184	49.499	0	1255.30	0	2.6880	0	34.4340	0	27.468	0	1240.852	0	-1e10	8	-1e10	8	-1E+10	1	-1E+10	1	-1E+10	1	-1E+10	1	-1E+10	1	-1E+10	1
4902554	39	C	03/02/2022	23:54	-136.184	49.499	0	1265.50	0	2.6740	0	34.4370	0	27.472	0	1250.904	0	-1e10	8	-1e10	8	-1E+10	1	-1E+10	1	-1E+10	1	-1E+10	1	-1E+10	1	-1E+10	1
4902554	39	C	03/02/2022	23:54	-136.184	49.499	0	1275.10	0	2.6630	0	34.4390	0	27.475	0	1260.364	0	-1e10	8	-1e10	8	-1E+10	1	-1E+10	1	-1E+10	1	-1E+10	1	-1E+10	1	-1E+10	1
4902554	39	C	03/02/2022	23:54	-136.184	49.499	0	1285.30	0	2.6430	0	34.4430	0	27.480	0	1270.416	0	-1e10	8	-1e10	8	-1E+10	1	-1E+10	1	-1E+10	1	-1E+10	1	-1E+10	1	-1E+10	1
4902554	39	C	03/02/2022	23:54	-136.184	49.499	0	1295.50	0	2.6260	0	34.4460	0	27.484	0	1280.467	0	-1e10	8	-1e10	8	-1E+10	1	-1E+10	1	-1E+10	1	-1E+10	1	-1E+10	1	-1E+10	1
4902554	39	C	03/02/2022	23:54	-136.184	49.499	0	1305.60	0	2.6190	0	34.4480	0	27.486	0	1290.418	0	-1e10	8	-1e10	8	-1E+10	1	-1E+10	1	-1E+10	1	-1E+10	1	-1E+10	1	-1E+10	1
4902554	39	C	03/02/2022	23:54	-136.184	49.499	0	1315.60	0	2.6030	0	34.4510	0	27.490	0	1300.271	0	-1e10	8	-1e10	8	-1E+10	1	-1E+10	1	-1E+10	1	-1E+10	1	-1E+10	1	-1E+10	1
4902554	39	C	03/02/2022	23:54	-136.184	49.499	0	1325.20	0	2.5890	0	34.4540	0	27.493	0	1309.730	0	-1e10	8	-1e10	8	-1E+10	1	-1E+10	1	-1E+10	1	-1E+10	1	-1E+10	1	-1E+10	1
4902554	39	C	03/02/2022	23:54	-136.184	49.499	0	1335.30	0	2.5720	0	34.4570	0	27.497	0	1319.680	0	-1e10	8	-1e10	8	-1E+10	1	-1E+10	1	-1E+10	1	-1E+10	1	-1E+10	1	-1E+10	1
4902554	39	C	03/02/2022	23:54	-136.184	49.499	0	1345.30	0	2.5590	0	34.4600	0	27.501	0	1329.532	0	-1e10	8	-1e10	8	-1E+10	1	-1E+10	1	-1E+10	1	-1E+10	1	-1E+10	1	-1E+10	1
4902554	39	C	03/02/2022	23:54	-136.184	49.499	0	1355.40	0	2.5500	0	34.4620	0	27.503	0	1339.481	0	-1e10	8	-1e10	8	-1E+10	1	-1E+10	1	-1E+10	1	-1E+10	1	-1E+10	1	-1E+10	1
4902554	39	C	03/02/2022	23:54	-136.184	49.499	0	1365.20	0	2.5400	0	34.4630	0	27.505	0	1349.135	0	-1e10	8	-1e10	8	-1E+10	1	-1E+10	1	-1E+10	1	-1E+10	1	-1E+10	1	-1E+10	1
4902554	39	C	03/02/2022	23:54	-136.184	49.499	0	1375.30	0	2.5280	0	34.4660	0	27.508	0	1359.083	0	-1e10	8	-1e10	8	-1E+10	1	-1E+10	1	-1E+10	1	-1E+10	1	-1E+10	1	-1E+10	1
4902554	39	C	03/02/2022	23:54	-136.184	49.499	0	1385.50	0	2.5060	0	34.4700	0	27.513	0	1369.130	0	-1e10	8	-1e10	8	-1E+10	1	-1E+10	1	-1E+10	1	-1E+10	1	-1E+10	1	-1E+10	1
4902554	39	C	03/02/2022	23:54	-136.184	49.499	0	1395.40	0	2.4950	0	34.4720	0	27.516	0	1378.881	0	-1e10	8	-1e10	8	-1E+10	1	-1E+10	1	-1E+10	1	-1E+10	1	-1E+10	1	-1E+10	1
4902554	39	C	03/02/2022	23:54	-136.184	49.499	0	1405.40	0	2.4790	0	34.4750	0	27.520	0	1388.730	0	-1e10	8	-1e10	8	-1E+10	1	-1E+10	1	-1E+10	1	-1E+10	1	-1E+10	1	-1E+10	1
4902554	39	C	03/02/2022	23:54	-136.184	49.499	0	1415.30	0	2.4540	0	34.4800	0	27.526	0	1398.479	0	-1e10	8	-1e10	8	-1E+10	1	-1E+10	1	-1E+10	1	-1E+10	1	-1E+10	1	-1E+10	1
4902554	39	C	03/02/2022	23:54	-136.184	49.499	0	1425.20	0	2.4370	0	34.4830	0	27.530	0	1408.229	0	-1e10	8	-1e10	8	-1E+10	1	-1E+10	1	-1E+10	1	-1E+10	1	-1E+10	1	-1E+10	1
4902554	39	C	03/02/2022	23:54	-136.184	49.499	0	1435.50	0	2.4160	0	34.4870	0	27.535	0	1418.371	0	-1e10	8	-1e10	8	-1E+10	1	-1E+10	1	-1E+10	1	-1E+10	1	-1E+10	1	-1E+10	1
4902554	39	C	03/02/2022	23:54	-136.184	49.499	0	1445.30	0	2.3990	0	34.4900	0	27.539	0	1428.021	0	-1e10	8	-1e10	8	-1E+10	1	-1E+10	1	-1E+10	1	-1E+10	1	-1E+10	1	-1E+10	1
4902554	39	C	03/02/2022	23:54	-136.184	49.499	0	1455.10	0	2.3900	0	34.4920	0	27.541	0	1437.671	0	-1e10	8	-1e10	8	-1E+10	1	-1E+10	1	-1E+10	1	-1E+10	1	-1E+10	1	-1E+10	1
4902554	39	C	03/02/2022	23:54	-136.184	49.499	0	1465.20	0	2.3860	0	34.4930	0	27.542	0	1447.615	0	-1e10	8	-1e10	8	-1E+10	1	-1E+10	1	-1E+10	1	-1E+10	1	-1E+10	1	-1E+10	1
4902554	39	C	03/02/2022	23:54	-136.184	49.499	0	1475.20	0	2.3770	0	34.4950	0	27.545	0	1457.461	0	-1e10	8	-1e10	8	-1E+10	1	-1E+10	1	-1E+10	1	-1E+10	1	-1E+10	1	-1E+10	1
4902554	39	C	03/02/2022	23:54	-136.184	49.499	0	1485.50	0	2.3670	0	34.4970	0	27.547	0	1467.601	0	-1e10	8	-1e10	8	-1E+10	1	-1E+10	1	-1E+10	1	-1E+10	1	-1E+10	1	-1E+10	1
4902554	39	C	03/02/2022	23:54	-136.184	49.499	0	1495.20	0	2.3630	0	34.4980	0	27.548	0	1477.150	0	-1e10	8	-1e10	8	-1E+10	1	-1E+10	1	-1E+10	1	-1E+10	1	-1E+10	1	-1E+10	1
4902554	39	C	03/02/2022	23:54	-136.184	49.499	0	1505.10	0	2.3550	0	34.4990	0	27.550	0	1486.896	0	-1e10	8	-1e10	8	-1E+10	1	-1E+10	1	-1E+10	1	-1E+10	1	-1E+10	1	-1E+10	1
4902554	39	C	03/02/2022	23:54	-136.184	49.499	0	1515.30	0	2.3430	0	34.5020	0	27.553	0	1496.937	0	-1e10	8	-1e10	8	-1E+10	1	-1E+10	1	-1E+10	1	-1E+10	1	-1E+10	1	-1E+10	1
4902554	39	C	03/02/2022	23:54	-136.184	49.499	0	1525.40	0	2.3370	0	34.5030	0	27.555	0	1506.878	0	-1e10	8	-1e10	8	-1E+10	1	-1E+10	1	-1E+10	1	-1E+10	1	-1E+10	1	-1E+10	1
4902554	39	C	03/02/2022	23:54	-136.184	49.499	0	1535.30	0	2.3240	0	34.5060	0	27.558	0	1516.623	0	-1e10	8	-1e10	8	-1E+10	1	-1E+10	1	-1E+10	1	-1E+10	1	-1E+10	1	-1E+10	1
4902554	39	C	03/02/2022	23:54	-136.184	49.499	0	1545.40	0	2.3190	0	34.5070	0	27.559	0	1526.563	0	-1e10	8	-1e10	8	-1E+10	1	-1E+10	1	-1E+10	1	-1E+10	1	-1E+10	1	-1E+10	1
4902554	39	C	03/02/2022	23:54	-136.184	49.499	0	1555.60	0	2.3130	0	34.5080	0	27.561	0	1536.602	0	-1e10	8	-1e10	8	-1E+10	1	-1E+10	1	-1E+10	1	-1E+10	1	-1E+10	1	-1E+10	1
4902554	39	C	03/02/2022	23:54	-136.184	49.499	0	1565.40	0	2.3040	0	34.5100	0	27.563	0	1546.246	0	-1e10	8	-1e10	8	-1E+10	1	-1E+10	1	-1E+10	1	-1E+10	1	-1E+10	1	-1E+10	1
4902554	39	C	03/02/2022	23:54	-136.184	49.499	0	1575.40	0	2.2990	0	34.5110	0	27.564	0	1556.087	0	-1e10	8	-1e10	8	-1E+10	1	-1E+10	1	-1E+10	1	-1E+10	1	-1E+10	1	-1E+10	1
4902554	39	C	03/02/2022	23:54	-136.184	49.499	0	1585.40	0	2.2920	0	34.5130	0	27.567	0	1565.928	0	-1e10	8	-1e10	8	-1E+10	1	-1E+10	1	-1E+10	1	-1E+10	1	-1E+10	1	-1E+10	1
4902554	39	C	03/02/2022	23:54	-136.184	49.499	0	1595.00	0	2.2850	0	34.5140	0	27.568	0	1575.374	0	-1e10	8	-1e10	8	-1E+10	1	-1E+10	1	-1E+10	1	-1E+10	1	-1E+10	1	-1E+10	1
4902554	39	C	03/02/2022	23:54	-136.184	49.499	0	1605.40	0	2.2740	0	34.5160	0	27.571	0	1585.607	0	-1e10	8	-1e10	8	-1E+10	1	-1E+10	1	-1E+10	1	-1E+10	1	-1E+10	1	-1E+10	1
4902554	39	C	03/02/2022	23:54	-136.184	49.499	0	1615.90	0	2.2650	0	34.5180	0	27.573	0	1595.938	0	-1e10	8	-1e10	8	-1E+10	1	-1E+10	1	-1E+10	1	-1E+10	1	-1E+10	1	-1E+10	1
4902554	39	C	03/02/2022	23:54	-136.184	49.499	0	1625.70	0	2.2530	0	34.5200	0	27.576	0	1605.580	0	-1e10	8	-1e10	8	-1E+10	1	-1E+10	1	-1E+10	1	-1E+10	1	-1E+10	1	-1E+10	1
4902554	39	C	03/02/2022	23:54	-136.184	49.499	0	1635.70	0	2.2450	0	34.5220	0	27.578	0	1615.418	0	-1e10	8	-1e10	8	-1E+10	1	-1E+10	1	-1E+10	1	-1E+10	1	-1E+10	1	-1E+10	1
4902554	39	C	03/02/2022	23:54	-136.184	49.499	0	1645.60	0	2.2390	0	34.5240	0	27.580	0	1625.157	0	-1e10	8	-1e10	8	-1E+10	1	-1E+10	1	-1E+10	1	-1E+10	1	-1E+10	1	-1E+10	1
4902554	39	C	03/02/2022	23:54	-136.184	49.499	0	1655.50	0	2.2230	0	34.5270	0	27.584	0	1634.896	0	-1e10	8	-1e10	8	-1E+10	1	-1E+10	1	-1E+10	1	-1E+10	1	-1E+10	1	-1E+10	1
4902554	39	C	03/02/2022	23:54	-136.184	49.499	0	1665.40	0	2.2160	0	34.5280	0	27.585	0	1644.635	0	-1e10	8	-1e10	8	-1E+10	1	-1E+10	1	-1E+10	1	-1E+10	1	-1E+10	1	-1E+10	1
4902554	39	C	03/02/2022	23:54	-136.184	49.499	0	1675.20	0	2.2040	0	34.5310	0	27.589	0	1654.274	0	-1e10	8	-1e10	8	-1E+10	1	-1E+10	1	-1E+10	1	-1E+10	1	-1E+10	1	-1E+10	1
4902554	39	C	03/02/2022	23:54	-136.184	49.499	0	1685.50	0	2.1960	0	34.5320	0	27.590	0	1664.405	0	-1e10	8	-1e10	8	-1E+10	1	-1E+10	1	-1E+10	1	-1E+10	1	-1E+10	1	-1E+10	1
4902554	39	C	03/02/2022	23:54	-136.184	49.499	0	1695.60	0	2.1800	0	34.5350	0	27.594	0	1674.339	0	-1e10	8	-1e10	8	-1E+10	1	-1E+10	1	-1E+10	1	-1E+10	1	-1E+10	1	-1E+10	1
4902554	39	C	03/02/2022	23:54	-136.184	49.499	0	1705.10	0	2.1660	0	34.5380	0	27.597	0	1683.682	0	-1e10	8	-1e10	8	-1E+10	1	-1E+10	1	-1E+10	1	-1E+10	1	-1E+10	1	-1E+10	1
4902554	39	C	03/02/2022	23:54	-136.184	49.499	0	1715.30	0	2.1520	0	34.5410	0	27.601	0	1693.713	0	-1e10	8	-1e10	8	-1E+10	1	-1E+10	1	-1E+10	1	-1E+10	1	-1E+10	1	-1E+10	1
4902554	39	C	03/02/2022	23:54	-136.184	49.499	0	1725.30	0	2.1430	0	34.5430	0	27.603	0	1703.547	0	-1e10	8	-1e10	8	-1E+10	1	-1E+10	1	-1E+10	1	-1E+10	1	-1E+10	1	-1E+10	1
4902554	39	C	03/02/2022	23:54	-136.184	49.499	0	1735.20	0	2.1340	0	34.5440	0	27.605	0	1713.282	0	-1e10	8	-1e10	8	-1E+10	1	-1E+10	1	-1E+10	1	-1E+10	1	-1E+10	1	-1E+10	1
4902554	39	C	03/02/2022	23:54	-136.184	49.499	0	1745.20	0	2.1270	0	34.5460	0	27.607	0	1723.116	0	-1e10	8	-1e10	8	-1E+10	1	-1E+10	1	-1E+10	1	-1E+10	1	-1E+10	1	-1E+10	1
4902554	39	C	03/02/2022	23:54	-136.184	49.499	0	1755.30	0	2.1180	0	34.5480	0	27.610	0	1733.047	0	-1e10	8	-1e10	8	-1E+10	1	-1E+10	1	-1E+10	1	-1E+10	1	-1E+10	1	-1E+10	1
4902554	39	C	03/02/2022	23:54	-136.184	49.499	0	1765.40	0	2.1100	0	34.5490	0	27.611	0	1742.977	0	-1e10	8	-1e10	8	-1E+10	1	-1E+10	1	-1E+10	1	-1E+10	1	-1E+10	1	-1E+10	1
4902554	39	C	03/02/2022	23:54	-136.184	49.499	0	1775.80	0	2.1010	0	34.5510	0	27.613	0	1753.202	0	-1e10	8	-1e10	8	-1E+10	1	-1E+10	1	-1E+10	1	-1E+10	1	-1E+10	1	-1E+10	1
4902554	39	C	03/02/2022	23:54	-136.184	49.499	0	1785.50	0	2.0940	0	34.5530	0	27.616	0	1762.738	0	-1e10	8	-1e10	8	-1E+10	1	-1E+10	1	-1E+10	1	-1E+10	1	-1E+10	1	-1E+10	1
4902554	39	C	03/02/2022	23:54	-136.184	49.499	0	1795.40	0	2.0870	0	34.5540	0	27.617	0	1772.471	0	-1e10	8	-1e10	8	-1E+10	1	-1E+10	1	-1E+10	1	-1E+10	1	-1E+10	1	-1E+10	1
4902554	39	C	03/02/2022	23:54	-136.184	49.499	0	1805.50	0	2.0790	0	34.5560	0	27.619	0	1782.400	0	-1e10	8	-1e10	8	-1E+10	1	-1E+10	1	-1E+10	1	-1E+10	1	-1E+10	1	-1E+10	1
4902554	39	C	03/02/2022	23:54	-136.184	49.499	0	1815.50	0	2.0720	0	34.5570	0	27.621	0	1792.230	0	-1e10	8	-1e10	8	-1E+10	1	-1E+10	1	-1E+10	1	-1E+10	1	-1E+10	1	-1E+10	1
4902554	39	C	03/02/2022	23:54	-136.184	49.499	0	1825.40	0	2.0600	0	34.5590	0	27.623	0	1801.961	0	-1e10	8	-1e10	8	-1E+10	1	-1E+10	1	-1E+10	1	-1E+10	1	-1E+10	1	-1E+10	1
4902554	39	C	03/02/2022	23:54	-136.184	49.499	0	1835.30	0	2.0520	0	34.5610	0	27.626	0	1811.691	0	-1e10	8	-1e10	8	-1E+10	1	-1E+10	1	-1E+10	1	-1E+10	1	-1E+10	1	-1E+10	1
4902554	39	C	03/02/2022	23:54	-136.184	49.499	0	1845.50	0	2.0440	0	34.5630	0	27.628	0	1821.717	0	-1e10	8	-1e10	8	-1E+10	1	-1E+10	1	-1E+10	1	-1E+10	1	-1E+10	1	-1E+10	1
4902554	39	C	03/02/2022	23:54	-136.184	49.499	0	1855.40	0	2.0340	0	34.5650	0	27.630	0	1831.446	0	-1e10	8	-1e10	8	-1E+10	1	-1E+10	1	-1E+10	1	-1E+10	1	-1E+10	1	-1E+10	1
4902554	39	C	03/02/2022	23:54	-136.184	49.499	0	1865.20	0	2.0270	0	34.5660	0	27.632	0	1841.077	0	-1e10	8	-1e10	8	-1E+10	1	-1E+10	1	-1E+10	1	-1E+10	1	-1E+10	1	-1E+10	1
4902554	39	C	03/02/2022	23:54	-136.184	49.499	0	1875.10	0	2.0240	0	34.5670	0	27.633	0	1850.806	0	-1e10	8	-1e10	8	-1E+10	1	-1E+10	1	-1E+10	1	-1E+10	1	-1E+10	1	-1E+10	1
4902554	39	C	03/02/2022	23:54	-136.184	49.499	0	1885.70	0	2.0170	0	34.5680	0	27.634	0	1861.223	0	-1e10	8	-1e10	8	-1E+10	1	-1E+10	1	-1E+10	1	-1E+10	1	-1E+10	1	-1E+10	1
4902554	39	C	03/02/2022	23:54	-136.184	49.499	0	1895.70	0	2.0100	0	34.5700	0	27.636	0	1871.049	0	-1e10	8	-1e10	8	-1E+10	1	-1E+10	1	-1E+10	1	-1E+10	1	-1E+10	1	-1E+10	1
4902554	39	C	03/02/2022	23:54	-136.184	49.499	0	1905.40	0	2.0030	0	34.5710	0	27.638	0	1880.580	0	-1e10	8	-1e10	8	-1E+10	1	-1E+10	1	-1E+10	1	-1E+10	1	-1E+10	1	-1E+10	1
4902554	39	C	03/02/2022	23:54	-136.184	49.499	0	1915.40	0	1.9950	0	34.5730	0	27.640	0	1890.405	0	-1e10	8	-1e10	8	-1E+10	1	-1E+10	1	-1E+10	1	-1E+10	1	-1E+10	1	-1E+10	1
4902554	39	C	03/02/2022	23:54	-136.184	49.499	0	1925.60	0	1.9910	0	34.5740	0	27.641	0	1900.427	0	-1e10	8	-1e10	8	-1E+10	1	-1E+10	1	-1E+10	1	-1E+10	1	-1E+10	1	-1E+10	1
4902554	39	C	03/02/2022	23:54	-136.184	49.499	0	1935.60	0	1.9860	0	34.5750	0	27.643	0	1910.251	0	-1e10	8	-1e10	8	-1E+10	1	-1E+10	1	-1E+10	1	-1E+10	1	-1E+10	1	-1E+10	1
4902554	39	C	03/02/2022	23:54	-136.184	49.499	0	1945.30	0	1.9790	0	34.5760	0	27.644	0	1919.780	0	-1e10	8	-1e10	8	-1E+10	1	-1E+10	1	-1E+10	1	-1E+10	1	-1E+10	1	-1E+10	1
4902554	39	C	03/02/2022	23:54	-136.184	49.499	0	1955.20	0	1.9750	0	34.5770	0	27.645	0	1929.506	0	-1e10	8	-1e10	8	-1E+10	1	-1E+10	1	-1E+10	1	-1E+10	1	-1E+10	1	-1E+10	1
4902554	39	C	03/02/2022	23:54	-136.184	49.499	0	1965.30	0	1.9660	0	34.5790	0	27.647	0	1939.427	0	-1e10	8	-1e10	8	-1E+10	1	-1E+10	1	-1E+10	1	-1E+10	1	-1E+10	1	-1E+10	1
4902554	39	C	03/02/2022	23:54	-136.184	49.499	0	1975.10	0	1.9590	0	34.5800	0	27.649	0	1949.053	0	-1e10	8	-1e10	8	-1E+10	1	-1E+10	1	-1E+10	1	-1E+10	1	-1E+10	1	-1E+10	1
4902554	39	C	03/02/2022	23:54	-136.184	49.499	0	1985.00	0	1.9570	0	34.5810	0	27.650	0	1958.777	0	-1e10	8	-1e10	8	-1E+10	1	-1E+10	1	-1E+10	1	-1E+10	1	-1E+10	1	-1E+10	1
4902554	39	C	03/02/2022	23:54	-136.184	49.499	0	1995.00	0	1.9510	0	34.5820	0	27.651	0	1968.599	0	-1e10	8	-1e10	8	-1E+10	1	-1E+10	1	-1E+10	1	-1E+10	1	-1E+10	1	-1E+10	1
4902554	39	C	03/02/2022	23:54	-136.184	49.499	0	2005.70	0	1.9420	0	34.5840	0	27.654	0	1979.108	0	-1e10	8	-1e10	8	-1E+10	1	-1E+10	1	-1E+10	1	-1E+10	1	-1E+10	1	-1E+10	1
4902554	39	C	03/02/2022	23:54	-136.184	49.499	0	2013.00	0	1.9370	0	34.5850	0	27.655	0	1986.277	0	-1e10	8	-1e10	8	-1E+10	1	-1E+10	1	-1E+10	1	-1E+10	1	-1E+10	1	-1E+10	1
4902554	39	C	03/02/2022	23:54	-136.184	49.499	0																										
4902554	40	C	03/13/2022	05:04	-136.152	49.465	0	0.10	0	6.9410	0	32.3390	0	25.331	0	0.099	0	-1e10	8	-1e10	8	-1E+10	1	-1E+10	1	-1E+10	1	-1E+10	1	-1E+10	1	-1E+10	1
4902554	40	C	03/13/2022	05:04	-136.152	49.465	0	0.20	0	6.9390	0	32.3400	0	25.332	0	0.198	0	-1e10	1	-1e10	1	-1E+10	1	-1E+10	1	-1E+10	1	-1E+10	1	-1E+10	1	-1E+10	1
4902554	40	C	03/13/2022	05:04	-136.152	49.465	0	0.30	0	6.9490	0	32.3410	0	25.332	0	0.297	0	-1e10	8	-1e10	8	-1E+10	1	-1E+10	1	-1E+10	1	-1E+10	1	-1E+10	1	-1E+10	1
4902554	40	C	03/13/2022	05:04	-136.152	49.465	0	1.10	0	6.9500	0	32.3410	0	25.332	0	1.091	0	-1e10	8	-1e10	8	-1E+10	1	-1E+10	1	-1E+10	1	-1E+10	1	-1E+10	1	-1E+10	1
4902554	40	C	03/13/2022	05:04	-136.152	49.465	0	1.90	0	6.9550	0	32.3380	0	25.329	0	1.884	0	-1e10	8	-1e10	8	-1E+10	1	-1E+10	1	-1E+10	1	-1E+10	1	-1E+10	1	-1E+10	1
4902554	40	C	03/13/2022	05:04	-136.152	49.465	0	2.90	0	6.9560	0	32.3380	0	25.328	0	2.875	0	-1e10	8	-1e10	8	-1E+10	1	-1E+10	1	-1E+10	1	-1E+10	1	-1E+10	1	-1E+10	1
4902554	40	C	03/13/2022	05:04	-136.152	49.465	0	3.90	0	6.9550	0	32.3400	0	25.330	0	3.867	0	-1e10	8	-1e10	8	-1E+10	1	-1E+10	1	-1E+10	1	-1E+10	1	-1E+10	1	-1E+10	1
4902554	40	C	03/13/2022	05:04	-136.152	49.465	0	4.90	0	6.9570	0	32.3380	0	25.328	0	4.858	0	-1e10	8	-1e10	8	-1E+10	1	-1E+10	1	-1E+10	1	-1E+10	1	-1E+10	1	-1E+10	1
4902554	40	C	03/13/2022	05:04	-136.152	49.465	0	6.10	0	6.9590	0	32.3380	0	25.328	0	6.048	0	-1e10	8	-1e10	8	-1E+10	1	-1E+10	1	-1E+10	1	-1E+10	1	-1E+10	1	-1E+10	1
4902554	40	C	03/13/2022	05:04	-136.152	49.465	0	6.90	0	6.9590	0	32.3380	0	25.328	0	6.841	0	-1e10	8	-1e10	8	-1E+10	1	-1E+10	1	-1E+10	1	-1E+10	1	-1E+10	1	-1E+10	1
4902554	40	C	03/13/2022	05:04	-136.152	49.465	0	7.90	0	6.9560	0	32.3380	0	25.328	0	7.833	0	-1e10	8	-1e10	8	-1E+10	1	-1E+10	1	-1E+10	1	-1E+10	1	-1E+10	1	-1E+10	1
4902554	40	C	03/13/2022	05:04	-136.152	49.465	0	9.10	0	6.9550	0	32.3390	0	25.329	0	9.022	0	-1e10	8	-1e10	8	-1E+10	1	-1E+10	1	-1E+10	1	-1E+10	1	-1E+10	1	-1E+10	1
4902554	40	C	03/13/2022	05:04	-136.152	49.465	0	10.00	0	6.9570	0	32.3380	0	25.328	0	9.915	0	-1e10	8	-1e10	8	-1E+10	1	-1E+10	1	-1E+10	1	-1E+10	1	-1E+10	1	-1E+10	1
4902554	40	C	03/13/2022	05:04	-136.152	49.465	0	11.30	0	6.9560	0	32.3380	0	25.329	0	11.203	0	-1e10	8	-1e10	8	-1E+10	1	-1E+10	1	-1E+10	1	-1E+10	1	-1E+10	1	-1E+10	1
4902554	40	C	03/13/2022	05:04	-136.152	49.465	0	12.00	0	6.9560	0	32.3380	0	25.329	0	11.897	0	-1e10	8	-1e10	8	-1E+10	1	-1E+10	1	-1E+10	1	-1E+10	1	-1E+10	1	-1E+10	1
4902554	40	C	03/13/2022	05:04	-136.152	49.465	0	13.10	0	6.9570	0	32.3380	0	25.328	0	12.988	0	-1e10	8	-1e10	8	-1E+10	1	-1E+10	1	-1E+10	1	-1E+10	1	-1E+10	1	-1E+10	1
4902554	40	C	03/13/2022	05:04	-136.152	49.465	0	13.80	0	6.9570	0	32.3380	0	25.328	0	13.682	0	-1e10	8	-1e10	8	-1E+10	1	-1E+10	1	-1E+10	1	-1E+10	1	-1E+10	1	-1E+10	1
4902554	40	C	03/13/2022	05:04	-136.152	49.465	0	15.10	0	6.9570	0	32.3390	0	25.329	0	14.971	0	-1e10	8	-1e10	8	-1E+10	1	-1E+10	1	-1E+10	1	-1E+10	1	-1E+10	1	-1E+10	1
4902554	40	C	03/13/2022	05:04	-136.152	49.465	0	16.00	0	6.9560	0	32.3380	0	25.329	0	15.863	0	-1e10	8	-1e10	8	-1E+10	1	-1E+10	1	-1E+10	1	-1E+10	1	-1E+10	1	-1E+10	1
4902554	40	C	03/13/2022	05:04	-136.152	49.465	0	16.80	0	6.9580	0	32.3380	0	25.328	0	16.656	0	-1e10	8	-1e10	8	-1E+10	1	-1E+10	1	-1E+10	1	-1E+10	1	-1E+10	1	-1E+10	1
4902554	40	C	03/13/2022	05:04	-136.152	49.465	0	17.70	0	6.9580	0	32.3380	0	25.328	0	17.548	0	-1e10	8	-1e10	8	-1E+10	1	-1E+10	1	-1E+10	1	-1E+10	1	-1E+10	1	-1E+10	1
4902554	40	C	03/13/2022	05:04	-136.152	49.465	0	18.80	0	6.9580	0	32.3380	0	25.328	0	18.639	0	-1e10	8	-1e10	8	-1E+10	1	-1E+10	1	-1E+10	1	-1E+10	1	-1E+10	1	-1E+10	1
4902554	40	C	03/13/2022	05:04	-136.152	49.465	0	19.90	0	6.9580	0	32.3370	0	25.328	0	19.729	0	-1e10	8	-1e10	8	-1E+10	1	-1E+10	1	-1E+10	1	-1E+10	1	-1E+10	1	-1E+10	1
4902554	40	C	03/13/2022	05:04	-136.152	49.465	0	21.00	0	6.9580	0	32.3380	0	25.328	0	20.820	0	-1e10	8	-1e10	8	-1E+10	1	-1E+10	1	-1E+10	1	-1E+10	1	-1E+10	1	-1E+10	1
4902554	40	C	03/13/2022	05:04	-136.152	49.465	0	22.00	0	6.9520	0	32.3380	0	25.329	0	21.811	0	-1e10	8	-1e10	8	-1E+10	1	-1E+10	1	-1E+10	1	-1E+10	1	-1E+10	1	-1E+10	1
4902554	40	C	03/13/2022	05:04	-136.152	49.465	0	23.00	0	6.9520	0	32.3380	0	25.329	0	22.803	0	-1e10	8	-1e10	8	-1E+10	1	-1E+10	1	-1E+10	1	-1E+10	1	-1E+10	1	-1E+10	1
4902554	40	C	03/13/2022	05:04	-136.152	49.465	0	24.00	0	6.9410	0	32.3410	0	25.333	0	23.794	0	-1e10	8	-1e10	8	-1E+10	1	-1E+10	1	-1E+10	1	-1E+10	1	-1E+10	1	-1E+10	1
4902554	40	C	03/13/2022	05:04	-136.152	49.465	0	25.10	0	6.9340	0	32.3370	0	25.331	0	24.885	0	-1e10	8	-1e10	8	-1E+10	1	-1E+10	1	-1E+10	1	-1E+10	1	-1E+10	1	-1E+10	1
4902554	40	C	03/13/2022	05:04	-136.152	49.465	0	26.00	0	6.9350	0	32.3370	0	25.331	0	25.777	0	-1e10	8	-1e10	8	-1E+10	1	-1E+10	1	-1E+10	1	-1E+10	1	-1E+10	1	-1E+10	1
4902554	40	C	03/13/2022	05:04	-136.152	49.465	0	27.10	0	6.9310	0	32.3390	0	25.333	0	26.867	0	-1e10	8	-1e10	8	-1E+10	1	-1E+10	1	-1E+10	1	-1E+10	1	-1E+10	1	-1E+10	1
4902554	40	C	03/13/2022	05:04	-136.152	49.465	0	28.00	0	6.9300	0	32.3370	0	25.331	0	27.759	0	-1e10	8	-1e10	8	-1E+10	1	-1E+10	1	-1E+10	1	-1E+10	1	-1E+10	1	-1E+10	1
4902554	40	C	03/13/2022	05:04	-136.152	49.465	0	28.90	0	6.9190	0	32.3370	0	25.333	0	28.652	0	-1e10	8	-1e10	8	-1E+10	1	-1E+10	1	-1E+10	1	-1E+10	1	-1E+10	1	-1E+10	1
4902554	40	C	03/13/2022	05:04	-136.152	49.465	0	29.80	0	6.8910	0	32.3390	0	25.338	0	29.544	0	-1e10	8	-1e10	8	-1E+10	1	-1E+10	1	-1E+10	1	-1E+10	1	-1E+10	1	-1E+10	1
4902554	40	C	03/13/2022	05:04	-136.152	49.465	0	30.80	0	6.8570	0	32.3410	0	25.344	0	30.535	0	-1e10	8	-1e10	8	-1E+10	1	-1E+10	1	-1E+10	1	-1E+10	1	-1E+10	1	-1E+10	1
4902554	40	C	03/13/2022	05:04	-136.152	49.465	0	31.90	0	6.8180	0	32.3460	0	25.353	0	31.626	0	-1e10	8	-1e10	8	-1E+10	1	-1E+10	1	-1E+10	1	-1E+10	1	-1E+10	1	-1E+10	1
4902554	40	C	03/13/2022	05:04	-136.152	49.465	0	33.00	0	6.7380	0	32.3530	0	25.369	0	32.716	0	-1e10	8	-1e10	8	-1E+10	1	-1E+10	1	-1E+10	1	-1E+10	1	-1E+10	1	-1E+10	1
4902554	40	C	03/13/2022	05:04	-136.152	49.465	0	34.00	0	6.7050	0	32.3560	0	25.376	0	33.707	0	-1e10	8	-1e10	8	-1E+10	1	-1E+10	1	-1E+10	1	-1E+10	1	-1E+10	1	-1E+10	1
4902554	40	C	03/13/2022	05:04	-136.152	49.465	0	35.10	0	6.6860	0	32.3570	0	25.379	0	34.798	0	-1e10	8	-1e10	8	-1E+10	1	-1E+10	1	-1E+10	1	-1E+10	1	-1E+10	1	-1E+10	1
4902554	40	C	03/13/2022	05:04	-136.152	49.465	0	35.90	0	6.6790	0	32.3570	0	25.380	0	35.591	0	-1e10	8	-1e10	8	-1E+10	1	-1E+10	1	-1E+10	1	-1E+10	1	-1E+10	1	-1E+10	1
4902554	40	C	03/13/2022	05:04	-136.152	49.465	0	37.10	0	6.6720	0	32.3580	0	25.382	0	36.780	0	-1e10	8	-1e10	8	-1E+10	1	-1E+10	1	-1E+10	1	-1E+10	1	-1E+10	1	-1E+10	1
4902554	40	C	03/13/2022	05:04	-136.152	49.465	0	38.10	0	6.6650	0	32.3580	0	25.383	0	37.772	0	-1e10	8	-1e10	8	-1E+10	1	-1E+10	1	-1E+10	1	-1E+10	1	-1E+10	1	-1E+10	1
4902554	40	C	03/13/2022	05:04	-136.152	49.465	0	39.20	0	6.6520	0	32.3590	0	25.385	0	38.862	0	-1e10	8	-1e10	8	-1E+10	1	-1E+10	1	-1E+10	1	-1E+10	1	-1E+10	1	-1E+10	1
4902554	40	C	03/13/2022	05:04	-136.152	49.465	0	40.00	0	6.6510	0	32.3580	0	25.384	0	39.655	0	-1e10	8	-1e10	8	-1E+10	1	-1E+10	1	-1E+10	1	-1E+10	1	-1E+10	1	-1E+10	1
4902554	40	C	03/13/2022	05:04	-136.152	49.465	0	41.20	0	6.6480	0	32.3590	0	25.386	0	40.845	0	-1e10	8	-1e10	8	-1E+10	1	-1E+10	1	-1E+10	1	-1E+10	1	-1E+10	1	-1E+10	1
4902554	40	C	03/13/2022	05:04	-136.152	49.465	0	41.90	0	6.6460	0	32.3590	0	25.386	0	41.539	0	-1e10	8	-1e10	8	-1E+10	1	-1E+10	1	-1E+10	1	-1E+10	1	-1E+10	1	-1E+10	1
4902554	40	C	03/13/2022	05:04	-136.152	49.465	0	42.90	0	6.6400	0	32.3590	0	25.387	0	42.530	0	-1e10	8	-1e10	8	-1E+10	1	-1E+10	1	-1E+10	1	-1E+10	1	-1E+10	1	-1E+10	1
4902554	40	C	03/13/2022	05:04	-136.152	49.465	0	43.90	0	6.6310	0	32.3580	0	25.387	0	43.521	0	-1e10	8	-1e10	8	-1E+10	1	-1E+10	1	-1E+10	1	-1E+10	1	-1E+10	1	-1E+10	1
4902554	40	C	03/13/2022	05:04	-136.152	49.465	0	45.10	0	6.6230	0	32.3590	0	25.389	0	44.711	0	-1e10	8	-1e10	8	-1E+10	1	-1E+10	1	-1E+10	1	-1E+10	1	-1E+10	1	-1E+10	1
4902554	40	C	03/13/2022	05:04	-136.152	49.465	0	45.90	0	6.6220	0	32.3590	0	25.389	0	45.504	0	-1e10	8	-1e10	8	-1E+10	1	-1E+10	1	-1E+10	1	-1E+10	1	-1E+10	1	-1E+10	1
4902554	40	C	03/13/2022	05:04	-136.152	49.465	0	47.20	0	6.6180	0	32.3590	0	25.390	0	46.792	0	-1e10	8	-1e10	8	-1E+10	1	-1E+10	1	-1E+10	1	-1E+10	1	-1E+10	1	-1E+10	1
4902554	40	C	03/13/2022	05:04	-136.152	49.465	0	48.00	0	6.6180	0	32.3580	0	25.389	0	47.585	0	-1e10	8	-1e10	8	-1E+10	1	-1E+10	1	-1E+10	1	-1E+10	1	-1E+10	1	-1E+10	1
4902554	40	C	03/13/2022	05:04	-136.152	49.465	0	49.30	0	6.6180	0	32.3590	0	25.390	0	48.874	0	-1e10	8	-1e10	8	-1E+10	1	-1E+10	1	-1E+10	1	-1E+10	1	-1E+10	1	-1E+10	1
4902554	40	C	03/13/2022	05:04	-136.152	49.465	0	49.90	0	6.6140	0	32.3580	0	25.389	0	49.469	0	-1e10	8	-1e10	8	-1E+10	1	-1E+10	1	-1E+10	1	-1E+10	1	-1E+10	1	-1E+10	1
4902554	40	C	03/13/2022	05:04	-136.152	49.465	0	50.80	0	6.6070	0	32.3580	0	25.390	0	50.361	0	-1e10	8	-1e10	8	-1E+10	1	-1E+10	1	-1E+10	1	-1E+10	1	-1E+10	1	-1E+10	1
4902554	40	C	03/13/2022	05:04	-136.152	49.465	0	51.70	0	6.6000	0	32.3580	0	25.391	0	51.253	0	-1e10	8	-1e10	8	-1E+10	1	-1E+10	1	-1E+10	1	-1E+10	1	-1E+10	1	-1E+10	1
4902554	40	C	03/13/2022	05:04	-136.152	49.465	0	53.10	0	6.5840	0	32.3590	0	25.394	0	52.641	0	-1e10	8	-1e10	8	-1E+10	1	-1E+10	1	-1E+10	1	-1E+10	1	-1E+10	1	-1E+10	1
4902554	40	C	03/13/2022	05:04	-136.152	49.465	0	54.00	0	6.5810	0	32.3590	0	25.394	0	53.533	0	-1e10	8	-1e10	8	-1E+10	1	-1E+10	1	-1E+10	1	-1E+10	1	-1E+10	1	-1E+10	1
4902554	40	C	03/13/2022	05:04	-136.152	49.465	0	54.90	0	6.5790	0	32.3590	0	25.395	0	54.425	0	-1e10	8	-1e10	8	-1E+10	1	-1E+10	1	-1E+10	1	-1E+10	1	-1E+10	1	-1E+10	1
4902554	40	C	03/13/2022	05:04	-136.152	49.465	0	56.10	0	6.5800	0	32.3600	0	25.395	0	55.614	0	-1e10	8	-1e10	8	-1E+10	1	-1E+10	1	-1E+10	1	-1E+10	1	-1E+10	1	-1E+10	1
4902554	40	C	03/13/2022	05:04	-136.152	49.465	0	56.80	0	6.5890	0	32.3610	0	25.395	0	56.308	0	-1e10	8	-1e10	8	-1E+10	1	-1E+10	1	-1E+10	1	-1E+10	1	-1E+10	1	-1E+10	1
4902554	40	C	03/13/2022	05:04	-136.152	49.465	0	57.80	0	6.5860	0	32.3620	0	25.396	0	57.299	0	-1e10	8	-1e10	8	-1E+10	1	-1E+10	1	-1E+10	1	-1E+10	1	-1E+10	1	-1E+10	1
4902554	40	C	03/13/2022	05:04	-136.152	49.465	0	59.00	0	6.5840	0	32.3620	0	25.396	0	58.489	0	-1e10	8	-1e10	8	-1E+10	1	-1E+10	1	-1E+10	1	-1E+10	1	-1E+10	1	-1E+10	1
4902554	40	C	03/13/2022	05:04	-136.152	49.465	0	59.70	0	6.5820	0	32.3620	0	25.397	0	59.183	0	-1e10	8	-1e10	8	-1E+10	1	-1E+10	1	-1E+10	1	-1E+10	1	-1E+10	1	-1E+10	1
4902554	40	C	03/13/2022	05:04	-136.152	49.465	0	60.70	0	6.5790	0	32.3620	0	25.397	0	60.174	0	-1e10	8	-1e10	8	-1E+10	1	-1E+10	1	-1E+10	1	-1E+10	1	-1E+10	1	-1E+10	1
4902554	40	C	03/13/2022	05:04	-136.152	49.465	0	61.70	0	6.5730	0	32.3620	0	25.398	0	61.165	0	-1e10	8	-1e10	8	-1E+10	1	-1E+10	1	-1E+10	1	-1E+10	1	-1E+10	1	-1E+10	1
4902554	40	C	03/13/2022	05:04	-136.152	49.465	0	62.70	0	6.5720	0	32.3620	0	25.398	0	62.156	0	-1e10	8	-1e10	8	-1E+10	1	-1E+10	1	-1E+10	1	-1E+10	1	-1E+10	1	-1E+10	1
4902554	40	C	03/13/2022	05:04	-136.152	49.465	0	63.70	0	6.5700	0	32.3620	0	25.398	0	63.147	0	-1e10	8	-1e10	8	-1E+10	1	-1E+10	1	-1E+10	1	-1E+10	1	-1E+10	1	-1E+10	1
4902554	40	C	03/13/2022	05:04	-136.152	49.465	0	64.70	0	6.5690	0	32.3620	0	25.398	0	64.138	0	-1e10	8	-1e10	8	-1E+10	1	-1E+10	1	-1E+10	1	-1E+10	1	-1E+10	1	-1E+10	1
4902554	40	C	03/13/2022	05:04	-136.152	49.465	0	65.70	0	6.5650	0	32.3620	0	25.399	0	65.130	0	-1e10	8	-1e10	8	-1E+10	1	-1E+10	1	-1E+10	1	-1E+10	1	-1E+10	1	-1E+10	1
4902554	40	C	03/13/2022	05:04	-136.152	49.465	0	66.80	0	6.5590	0	32.3630	0	25.401	0	66.220	0	-1e10	8	-1e10	8	-1E+10	1	-1E+10	1	-1E+10	1	-1E+10	1	-1E+10	1	-1E+10	1
4902554	40	C	03/13/2022	05:04	-136.152	49.465	0	67.80	0	6.5550	0	32.3630	0	25.401	0	67.211	0	-1e10	8	-1e10	8	-1E+10	1	-1E+10	1	-1E+10	1	-1E+10	1	-1E+10	1	-1E+10	1
4902554	40	C	03/13/2022	05:04	-136.152	49.465	0	68.80	0	6.5550	0	32.3640	0	25.402	0	68.202	0	-1e10	8	-1e10	8	-1E+10	1	-1E+10	1	-1E+10	1	-1E+10	1	-1E+10	1	-1E+10	1
4902554	40	C	03/13/2022	05:04	-136.152	49.465	0	69.80	0	6.5550	0	32.3630	0	25.401	0	69.193	0	-1e10	8	-1e10	8	-1E+10	1	-1E+10	1	-1E+10	1	-1E+10	1	-1E+10	1	-1E+10	1
4902554	40	C	03/13/2022	05:04	-136.152	49.465	0	70.90	0	6.5530	0	32.3640	0	25.402	0	70.284	0	-1e10	8	-1e10	8	-1E+10	1	-1E+10	1	-1E+10	1	-1E+10	1	-1E+10	1	-1E+10	1
4902554	40	C	03/13/2022	05:04	-136.152	49.465	0	71.90	0	6.5520	0	32.3640	0	25.402	0	71.275	0	-1e10	8	-1e10	8	-1E+10	1	-1E+10	1	-1E+10	1	-1E+10	1	-1E+10	1	-1E+10	1
4902554	40	C	03/13/2022	05:04	-136.152	49.465	0	73.00	0	6.5520	0	32.3640	0	25.402	0	72.365	0	-1e10	8	-1e10	8	-1E+10	1	-1E+10	1	-1E+10	1	-1E+10	1	-1E+10	1	-1E+10	1
4902554	40	C	03/13/2022	05:04	-136.152	49.465	0	74.00	0	6.5520	0	32.3650	0	25.403	0	73.356	0	-1e10	8	-1e10	8	-1E+10	1	-1E+10	1	-1E+10	1	-1E+10	1	-1E+10	1	-1E+10	1
4902554	40	C	03/13/2022	05:04	-136.152	49.465	0	75.10	0	6.5500	0	32.3650	0	25.403	0	74.446	0	-1e10	8	-1e10	8	-1E+10	1	-1E+10	1	-1E+10	1	-1E+10	1	-1E+10	1	-1E+10	1
4902554	40	C	03/13/2022	05:04	-136.152	49.465	0	76.10	0	6.5470	0	32.3640	0	25.403	0	75.437	0	-1e10	8	-1e10	8	-1E+10	1	-1E+10	1	-1E+10	1	-1E+10	1	-1E+10	1	-1E+10	1
4902554	40	C	03/13/2022	05:04	-136.152	49.465	0	76.90	0	6.5410	0	32.3650	0	25.404	0	76.230	0	-1e10	8	-1e10	8	-1E+10	1	-1E+10	1	-1E+10	1	-1E+10	1	-1E+10	1	-1E+10	1
4902554	40	C	03/13/2022	05:04	-136.152	49.465	0	77.70	0	6.5410	0	32.3640	0	25.404	0	77.023	0	-1e10	8	-1e10	8	-1E+10	1	-1E+10	1	-1E+10	1	-1E+10	1	-1E+10	1	-1E+10	1
4902554	40	C	03/13/2022	05:04	-136.152	49.465	0	78.70	0	6.5350	0	32.3660	0	25.406	0	78.014	0	-1e10	8	-1e10	8	-1E+10	1	-1E+10	1	-1E+10	1	-1E+10	1	-1E+10	1	-1E+10	1
4902554	40	C	03/13/2022	05:04	-136.152	49.465	0	79.80	0	6.5320	0	32.3680	0	25.408	0	79.104	0	-1e10	8	-1e10	8	-1E+10	1	-1E+10	1	-1E+10	1	-1E+10	1	-1E+10	1	-1E+10	1
4902554	40	C	03/13/2022	05:04	-136.152	49.465	0	80.90	0	6.5260	0	32.3700	0	25.410	0	80.195	0	-1e10	8	-1e10	8	-1E+10	1	-1E+10	1	-1E+10	1	-1E+10	1	-1E+10	1	-1E+10	1
4902554	40	C	03/13/2022	05:04	-136.152	49.465	0	82.00	0	6.5220	0	32.3720	0	25.412	0	81.285	0	-1e10	8	-1e10	8	-1E+10	1	-1E+10	1	-1E+10	1	-1E+10	1	-1E+10	1	-1E+10	1
4902554	40	C	03/13/2022	05:04	-136.152	49.465	0	83.10	0	6.5210	0	32.3740	0	25.414	0	82.375	0	-1e10	8	-1e10	8	-1E+10	1	-1E+10	1	-1E+10	1	-1E+10	1	-1E+10	1	-1E+10	1
4902554	40	C	03/13/2022	05:04	-136.152	49.465	0	83.90	0	6.5200	0	32.3740	0	25.414	0	83.168	0	-1e10	8	-1e10	8	-1E+10	1	-1E+10	1	-1E+10	1	-1E+10	1	-1E+10	1	-1E+10	1
4902554	40	C	03/13/2022	05:04	-136.152	49.465	0	84.70	0	6.5170	0	32.3750	0	25.416	0	83.961	0	-1e10	8	-1e10	8	-1E+10	1	-1E+10	1	-1E+10	1	-1E+10	1	-1E+10	1	-1E+10	1
4902554	40	C	03/13/2022	05:04	-136.152	49.465	0	85.90	0	6.5110	0	32.3790	0	25.419	0	85.150	0	-1e10	8	-1e10	8	-1E+10	1	-1E+10	1	-1E+10	1	-1E+10	1	-1E+10	1	-1E+10	1
4902554	40	C	03/13/2022	05:04	-136.152	49.465	0	87.00	0	6.5050	0	32.3810	0	25.422	0	86.240	0	-1e10	8	-1e10	8	-1E+10	1	-1E+10	1	-1E+10	1	-1E+10	1	-1E+10	1	-1E+10	1
4902554	40	C	03/13/2022	05:04	-136.152	49.465	0	88.10	0	6.4930	0	32.3830	0	25.425	0	87.330	0	-1e10	8	-1e10	8	-1E+10	1	-1E+10	1	-1E+10	1	-1E+10	1	-1E+10	1	-1E+10	1
4902554	40	C	03/13/2022	05:04	-136.152	49.465	0	89.00	0	6.4820	0	32.3860	0	25.429	0	88.222	0	-1e10	8	-1e10	8	-1E+10	1	-1E+10	1	-1E+10	1	-1E+10	1	-1E+10	1	-1E+10	1
4902554	40	C	03/13/2022	05:04	-136.152	49.465	0	89.90	0	6.4480	0	32.3920	0	25.438	0	89.114	0	-1e10	8	-1e10	8	-1E+10	1	-1E+10	1	-1E+10	1	-1E+10	1	-1E+10	1	-1E+10	1
4902554	40	C	03/13/2022	05:04	-136.152	49.465	0	91.00	0	6.4050	0	32.3980	0	25.448	0	90.204	0	-1e10	8	-1e10	8	-1E+10	1	-1E+10	1	-1E+10	1	-1E+10	1	-1E+10	1	-1E+10	1
4902554	40	C	03/13/2022	05:04	-136.152	49.465	0	91.90	0	6.3960	0	32.4000	0	25.451	0	91.096	0	-1e10	8	-1e10	8	-1E+10	1	-1E+10	1	-1E+10	1	-1E+10	1	-1E+10	1	-1E+10	1
4902554	40	C	03/13/2022	05:04	-136.152	49.465	0	92.70	0	6.3810	0	32.4050	0	25.456	0	91.889	0	-1e10	8	-1e10	8	-1E+10	1	-1E+10	1	-1E+10	1	-1E+10	1	-1E+10	1	-1E+10	1
4902554	40	C	03/13/2022	05:04	-136.152	49.465	0	93.90	0	6.3680	0	32.4130	0	25.464	0	93.078	0	-1e10	8	-1e10	8	-1E+10	1	-1E+10	1	-1E+10	1	-1E+10	1	-1E+10	1	-1E+10	1
4902554	40	C	03/13/2022	05:04	-136.152	49.465	0	95.00	0	6.3810	0	32.4270	0	25.474	0	94.168	0	-1e10	8	-1e10	8	-1E+10	1	-1E+10	1	-1E+10	1	-1E+10	1	-1E+10	1	-1E+10	1
4902554	40	C	03/13/2022	05:04	-136.152	49.465	0	96.10	0	6.3750	0	32.4360	0	25.482	0	95.259	0	-1e10	8	-1e10	8	-1E+10	1	-1E+10	1	-1E+10	1	-1E+10	1	-1E+10	1	-1E+10	1
4902554	40	C	03/13/2022	05:04	-136.152	49.465	0	97.00	0	6.3890	0	32.4500	0	25.491	0	96.151	0	-1e10	8	-1e10	8	-1E+10	1	-1E+10	1	-1E+10	1	-1E+10	1	-1E+10	1	-1E+10	1
4902554	40	C	03/13/2022	05:04	-136.152	49.465	0	97.90	0	6.3830	0	32.4740	0	25.511	0	97.042	0	-1e10	8	-1e10	8	-1E+10	1	-1E+10	1	-1E+10	1	-1E+10	1	-1E+10	1	-1E+10	1
4902554	40	C	03/13/2022	05:04	-136.152	49.465	0	99.00	0	6.3560	0	32.4970	0	25.532	0	98.133	0	-1e10	8	-1e10	8	-1E+10	1	-1E+10	1	-1E+10	1	-1E+10	1	-1E+10	1	-1E+10	1
4902554	40	C	03/13/2022	05:04	-136.152	49.465	0	99.90	0	6.3480	0	32.5020	0	25.537	0	99.024	0	-1e10	8	-1e10	8	-1E+10	1	-1E+10	1	-1E+10	1	-1E+10	1	-1E+10	1	-1E+10	1
4902554	40	C	03/13/2022	05:04	-136.152	49.465	0	100.80	0	6.3360	0	32.5130	0	25.547	0	99.916	0	-1e10	8	-1e10	8	-1E+10	1	-1E+10	1	-1E+10	1	-1E+10	1	-1E+10	1	-1E+10	1
4902554	40	C	03/13/2022	05:04	-136.152	49.465	0	102.00	0	6.3140	0	32.5400	0	25.572	0	101.106	0	-1e10	8	-1e10	8	-1E+10	1	-1E+10	1	-1E+10	1	-1E+10	1	-1E+10	1	-1E+10	1
4902554	40	C	03/13/2022	05:04	-136.152	49.465	0	103.10	0	6.2750	0	32.5580	0	25.591	0	102.196	0	-1e10	8	-1e10	8	-1E+10	1	-1E+10	1	-1E+10	1	-1E+10	1	-1E+10	1	-1E+10	1
4902554	40	C	03/13/2022	05:04	-136.152	49.465	0	104.10	0	6.2290	0	32.5630	0	25.600	0	103.187	0	-1e10	8	-1e10	8	-1E+10	1	-1E+10	1	-1E+10	1	-1E+10	1	-1E+10	1	-1E+10	1
4902554	40	C	03/13/2022	05:04	-136.152	49.465	0	105.00	0	6.2220	0	32.5640	0	25.602	0	104.078	0	-1e10	8	-1e10	8	-1E+10	1	-1E+10	1	-1E+10	1	-1E+10	1	-1E+10	1	-1E+10	1
4902554	40	C	03/13/2022	05:04	-136.152	49.465	0	105.80	0	6.2290	0	32.5720	0	25.607	0	104.871	0	-1e10	8	-1e10	8	-1E+10	1	-1E+10	1	-1E+10	1	-1E+10	1	-1E+10	1	-1E+10	1
4902554	40	C	03/13/2022	05:04	-136.152	49.465	0	107.00	0	6.2120	0	32.6050	0	25.636	0	106.060	0	-1e10	8	-1e10	8	-1E+10	1	-1E+10	1	-1E+10	1	-1E+10	1	-1E+10	1	-1E+10	1
4902554	40	C	03/13/2022	05:04	-136.152	49.465	0	108.10	0	6.2150	0	32.6320	0	25.657	0	107.150	0	-1e10	8	-1e10	8	-1E+10	1	-1E+10	1	-1E+10	1	-1E+10	1	-1E+10	1	-1E+10	1
4902554	40	C	03/13/2022	05:04	-136.152	49.465	0	109.00	0	6.2160	0	32.6670	0	25.684	0	108.042	0	-1e10	8	-1e10	8	-1E+10	1	-1E+10	1	-1E+10	1	-1E+10	1	-1E+10	1	-1E+10	1
4902554	40	C	03/13/2022	05:04	-136.152	49.465	0	110.00	0	6.1410	0	32.7590	0	25.766	0	109.033	0	-1e10	8	-1e10	8	-1E+10	1	-1E+10	1	-1E+10	1	-1E+10	1	-1E+10	1	-1E+10	1
4902554	40	C	03/13/2022	05:04	-136.152	49.465	0	111.20	0	6.1160	0	32.8320	0	25.827	0	110.222	0	-1e10	8	-1e10	8	-1E+10	1	-1E+10	1	-1E+10	1	-1E+10	1	-1E+10	1	-1E+10	1
4902554	40	C	03/13/2022	05:04	-136.152	49.465	0	112.00	0	6.0990	0	32.8800	0	25.867	0	111.015	0	-1e10	8	-1e10	8	-1E+10	1	-1E+10	1	-1E+10	1	-1E+10	1	-1E+10	1	-1E+10	1
4902554	40	C	03/13/2022	05:04	-136.152	49.465	0	113.10	0	6.0630	0	32.9720	0	25.944	0	112.105	0	-1e10	8	-1e10	8	-1E+10	1	-1E+10	1	-1E+10	1	-1E+10	1	-1E+10	1	-1E+10	1
4902554	40	C	03/13/2022	05:04	-136.152	49.465	0	114.10	0	6.0640	0	32.9960	0	25.963	0	113.096	0	-1e10	8	-1e10	8	-1E+10	1	-1E+10	1	-1E+10	1	-1E+10	1	-1E+10	1	-1E+10	1
4902554	40	C	03/13/2022	05:04	-136.152	49.465	0	115.20	0	6.0650	0	33.0160	0	25.978	0	114.186	0	-1e10	8	-1e10	8	-1E+10	1	-1E+10	1	-1E+10	1	-1E+10	1	-1E+10	1	-1E+10	1
4902554	40	C	03/13/2022	05:04	-136.152	49.465	0	115.90	0	6.0640	0	33.0420	0	25.999	0	114.880	0	-1e10	8	-1e10	8	-1E+10	1	-1E+10	1	-1E+10	1	-1E+10	1	-1E+10	1	-1E+10	1
4902554	40	C	03/13/2022	05:04	-136.152	49.465	0	117.00	0	6.0580	0	33.0950	0	26.042	0	115.970	0	-1e10	8	-1e10	8	-1E+10	1	-1E+10	1	-1E+10	1	-1E+10	1	-1E+10	1	-1E+10	1
4902554	40	C	03/13/2022	05:04	-136.152	49.465	0	118.00	0	6.0470	0	33.1230	0	26.065	0	116.961	0	-1e10	8	-1e10	8	-1E+10	1	-1E+10	1	-1E+10	1	-1E+10	1	-1E+10	1	-1E+10	1
4902554	40	C	03/13/2022	05:04	-136.152	49.465	0	118.90	0	6.0280	0	33.1750	0	26.109	0	117.852	0	-1e10	8	-1e10	8	-1E+10	1	-1E+10	1	-1E+10	1	-1E+10	1	-1E+10	1	-1E+10	1
4902554	40	C	03/13/2022	05:04	-136.152	49.465	0	120.10	0	6.0250	0	33.2040	0	26.132	0	119.042	0	-1e10	8	-1e10	8	-1E+10	1	-1E+10	1	-1E+10	1	-1E+10	1	-1E+10	1	-1E+10	1
4902554	40	C	03/13/2022	05:04	-136.152	49.465	0	120.90	0	6.0160	0	33.2170	0	26.143	0	119.834	0	-1e10	8	-1e10	8	-1E+10	1	-1E+10	1	-1E+10	1	-1E+10	1	-1E+10	1	-1E+10	1
4902554	40	C	03/13/2022	05:04	-136.152	49.465	0	122.20	0	5.9990	0	33.2600	0	26.179	0	121.122	0	-1e10	8	-1e10	8	-1E+10	1	-1E+10	1	-1E+10	1	-1E+10	1	-1E+10	1	-1E+10	1
4902554	40	C	03/13/2022	05:04	-136.152	49.465	0	122.90	0	5.9980	0	33.2870	0	26.201	0	121.816	0	-1e10	8	-1e10	8	-1E+10	1	-1E+10	1	-1E+10	1	-1E+10	1	-1E+10	1	-1E+10	1
4902554	40	C	03/13/2022	05:04	-136.152	49.465	0	123.80	0	6.0040	0	33.2930	0	26.205	0	122.708	0	-1e10	8	-1e10	8	-1E+10	1	-1E+10	1	-1E+10	1	-1E+10	1	-1E+10	1	-1E+10	1
4902554	40	C	03/13/2022	05:04	-136.152	49.465	0	124.90	0	6.0290	0	33.3350	0	26.235	0	123.798	0	-1e10	8	-1e10	8	-1E+10	1	-1E+10	1	-1E+10	1	-1E+10	1	-1E+10	1	-1E+10	1
4902554	40	C	03/13/2022	05:04	-136.152	49.465	0	126.10	0	6.0280	0	33.3750	0	26.267	0	124.987	0	-1e10	8	-1e10	8	-1E+10	1	-1E+10	1	-1E+10	1	-1E+10	1	-1E+10	1	-1E+10	1
4902554	40	C	03/13/2022	05:04	-136.152	49.465	0	127.10	0	6.0270	0	33.3960	0	26.283	0	125.978	0	-1e10	8	-1e10	8	-1E+10	1	-1E+10	1	-1E+10	1	-1E+10	1	-1E+10	1	-1E+10	1
4902554	40	C	03/13/2022	05:04	-136.152	49.465	0	128.00	0	6.0410	0	33.4180	0	26.299	0	126.870	0	-1e10	8	-1e10	8	-1E+10	1	-1E+10	1	-1E+10	1	-1E+10	1	-1E+10	1	-1E+10	1
4902554	40	C	03/13/2022	05:04	-136.152	49.465	0	129.00	0	6.0420	0	33.4310	0	26.309	0	127.860	0	-1e10	8	-1e10	8	-1E+10	1	-1E+10	1	-1E+10	1	-1E+10	1	-1E+10	1	-1E+10	1
4902554	40	C	03/13/2022	05:04	-136.152	49.465	0	129.90	0	6.0460	0	33.4460	0	26.321	0	128.752	0	-1e10	8	-1e10	8	-1E+10	1	-1E+10	1	-1E+10	1	-1E+10	1	-1E+10	1	-1E+10	1
4902554	40	C	03/13/2022	05:04	-136.152	49.465	0	130.90	0	6.0470	0	33.4470	0	26.321	0	129.743	0	-1e10	8	-1e10	8	-1E+10	1	-1E+10	1	-1E+10	1	-1E+10	1	-1E+10	1	-1E+10	1
4902554	40	C	03/13/2022	05:04	-136.152	49.465	0	131.90	0	6.0480	0	33.4480	0	26.322	0	130.734	0	-1e10	8	-1e10	8	-1E+10	1	-1E+10	1	-1E+10	1	-1E+10	1	-1E+10	1	-1E+10	1
4902554	40	C	03/13/2022	05:04	-136.152	49.465	0	132.80	0	6.0500	0	33.4510	0	26.324	0	131.626	0	-1e10	8	-1e10	8	-1E+10	1	-1E+10	1	-1E+10	1	-1E+10	1	-1E+10	1	-1E+10	1
4902554	40	C	03/13/2022	05:04	-136.152	49.465	0	133.80	0	6.0520	0	33.4890	0	26.354	0	132.616	0	-1e10	8	-1e10	8	-1E+10	1	-1E+10	1	-1E+10	1	-1E+10	1	-1E+10	1	-1E+10	1
4902554	40	C	03/13/2022	05:04	-136.152	49.465	0	134.80	0	6.0500	0	33.5000	0	26.363	0	133.607	0	-1e10	8	-1e10	8	-1E+10	1	-1E+10	1	-1E+10	1	-1E+10	1	-1E+10	1	-1E+10	1
4902554	40	C	03/13/2022	05:04	-136.152	49.465	0	135.80	0	6.0510	0	33.5190	0	26.378	0	134.598	0	-1e10	8	-1e10	8	-1E+10	1	-1E+10	1	-1E+10	1	-1E+10	1	-1E+10	1	-1E+10	1
4902554	40	C	03/13/2022	05:04	-136.152	49.465	0	137.00	0	6.0500	0	33.5360	0	26.391	0	135.787	0	-1e10	8	-1e10	8	-1E+10	1	-1E+10	1	-1E+10	1	-1E+10	1	-1E+10	1	-1E+10	1
4902554	40	C	03/13/2022	05:04	-136.152	49.465	0	138.00	0	6.0470	0	33.5430	0	26.397	0	136.778	0	-1e10	8	-1e10	8	-1E+10	1	-1E+10	1	-1E+10	1	-1E+10	1	-1E+10	1	-1E+10	1
4902554	40	C	03/13/2022	05:04	-136.152	49.465	0	139.20	0	6.0460	0	33.5550	0	26.407	0	137.967	0	-1e10	8	-1e10	8	-1E+10	1	-1E+10	1	-1E+10	1	-1E+10	1	-1E+10	1	-1E+10	1
4902554	40	C	03/13/2022	05:04	-136.152	49.465	0	139.90	0	6.0450	0	33.5620	0	26.412	0	138.660	0	-1e10	8	-1e10	8	-1E+10	1	-1E+10	1	-1E+10	1	-1E+10	1	-1E+10	1	-1E+10	1
4902554	40	C	03/13/2022	05:04	-136.152	49.465	0	141.00	0	6.0420	0	33.5700	0	26.419	0	139.750	0	-1e10	8	-1e10	8	-1E+10	1	-1E+10	1	-1E+10	1	-1E+10	1	-1E+10	1	-1E+10	1
4902554	40	C	03/13/2022	05:04	-136.152	49.465	0	142.10	0	6.0420	0	33.5740	0	26.422	0	140.840	0	-1e10	8	-1e10	8	-1E+10	1	-1E+10	1	-1E+10	1	-1E+10	1	-1E+10	1	-1E+10	1
4902554	40	C	03/13/2022	05:04	-136.152	49.465	0	142.90	0	6.0410	0	33.5740	0	26.422	0	141.633	0	-1e10	8	-1e10	8	-1E+10	1	-1E+10	1	-1E+10	1	-1E+10	1	-1E+10	1	-1E+10	1
4902554	40	C	03/13/2022	05:04	-136.152	49.465	0	144.00	0	6.0290	0	33.5850	0	26.433	0	142.723	0	-1e10	8	-1e10	8	-1E+10	1	-1E+10	1	-1E+10	1	-1E+10	1	-1E+10	1	-1E+10	1
4902554	40	C	03/13/2022	05:04	-136.152	49.465	0	145.10	0	6.0110	0	33.5990	0	26.446	0	143.813	0	-1e10	8	-1e10	8	-1E+10	1	-1E+10	1	-1E+10	1	-1E+10	1	-1E+10	1	-1E+10	1
4902554	40	C	03/13/2022	05:04	-136.152	49.465	0	145.90	0	6.0070	0	33.6010	0	26.448	0	144.605	0	-1e10	8	-1e10	8	-1E+10	1	-1E+10	1	-1E+10	1	-1E+10	1	-1E+10	1	-1E+10	1
4902554	40	C	03/13/2022	05:04	-136.152	49.465	0	146.90	0	5.9960	0	33.6120	0	26.458	0	145.596	0	-1e10	8	-1e10	8	-1E+10	1	-1E+10	1	-1E+10	1	-1E+10	1	-1E+10	1	-1E+10	1
4902554	40	C	03/13/2022	05:04	-136.152	49.465	0	148.00	0	5.9870	0	33.6200	0	26.466	0	146.686	0	-1e10	8	-1e10	8	-1E+10	1	-1E+10	1	-1E+10	1	-1E+10	1	-1E+10	1	-1E+10	1
4902554	40	C	03/13/2022	05:04	-136.152	49.465	0	148.80	0	5.9750	0	33.6330	0	26.477	0	147.478	0	-1e10	8	-1e10	8	-1E+10	1	-1E+10	1	-1E+10	1	-1E+10	1	-1E+10	1	-1E+10	1
4902554	40	C	03/13/2022	05:04	-136.152	49.465	0	149.90	0	5.9740	0	33.6360	0	26.480	0	148.568	0	-1e10	8	-1e10	8	-1E+10	1	-1E+10	1	-1E+10	1	-1E+10	1	-1E+10	1	-1E+10	1
4902554	40	C	03/13/2022	05:04	-136.152	49.465	0	151.00	0	5.9670	0	33.6430	0	26.486	0	149.658	0	-1e10	8	-1e10	8	-1E+10	1	-1E+10	1	-1E+10	1	-1E+10	1	-1E+10	1	-1E+10	1
4902554	40	C	03/13/2022	05:04	-136.152	49.465	0	151.80	0	5.9620	0	33.6540	0	26.496	0	150.451	0	-1e10	8	-1e10	8	-1E+10	1	-1E+10	1	-1E+10	1	-1E+10	1	-1E+10	1	-1E+10	1
4902554	40	C	03/13/2022	05:04	-136.152	49.465	0	153.00	0	5.9490	0	33.6600	0	26.502	0	151.640	0	-1e10	8	-1e10	8	-1E+10	1	-1E+10	1	-1E+10	1	-1E+10	1	-1E+10	1	-1E+10	1
4902554	40	C	03/13/2022	05:04	-136.152	49.465	0	154.20	0	5.9280	0	33.6660	0	26.509	0	152.828	0	-1e10	8	-1e10	8	-1E+10	1	-1E+10	1	-1E+10	1	-1E+10	1	-1E+10	1	-1E+10	1
4902554	40	C	03/13/2022	05:04	-136.152	49.465	0	155.00	0	5.9170	0	33.6690	0	26.513	0	153.621	0	-1e10	8	-1e10	8	-1E+10	1	-1E+10	1	-1E+10	1	-1E+10	1	-1E+10	1	-1E+10	1
4902554	40	C	03/13/2022	05:04	-136.152	49.465	0	155.80	0	5.9130	0	33.6690	0	26.514	0	154.414	0	-1e10	8	-1e10	8	-1E+10	1	-1E+10	1	-1E+10	1	-1E+10	1	-1E+10	1	-1E+10	1
4902554	40	C	03/13/2022	05:04	-136.152	49.465	0	156.70	0	5.9000	0	33.6700	0	26.516	0	155.305	0	-1e10	8	-1e10	8	-1E+10	1	-1E+10	1	-1E+10	1	-1E+10	1	-1E+10	1	-1E+10	1
4902554	40	C	03/13/2022	05:04	-136.152	49.465	0	157.90	0	5.8790	0	33.6790	0	26.526	0	156.494	0	-1e10	8	-1e10	8	-1E+10	1	-1E+10	1	-1E+10	1	-1E+10	1	-1E+10	1	-1E+10	1
4902554	40	C	03/13/2022	05:04	-136.152	49.465	0	159.20	0	5.8660	0	33.6810	0	26.529	0	157.782	0	-1e10	8	-1e10	8	-1E+10	1	-1E+10	1	-1E+10	1	-1E+10	1	-1E+10	1	-1E+10	1
4902554	40	C	03/13/2022	05:04	-136.152	49.465	0	160.10	0	5.8620	0	33.6820	0	26.530	0	158.674	0	-1e10	8	-1e10	8	-1E+10	1	-1E+10	1	-1E+10	1	-1E+10	1	-1E+10	1	-1E+10	1
4902554	40	C	03/13/2022	05:04	-136.152	49.465	0	160.90	0	5.8520	0	33.6840	0	26.533	0	159.466	0	-1e10	8	-1e10	8	-1E+10	1	-1E+10	1	-1E+10	1	-1E+10	1	-1E+10	1	-1E+10	1
4902554	40	C	03/13/2022	05:04	-136.152	49.465	0	161.80	0	5.8440	0	33.6860	0	26.536	0	160.358	0	-1e10	8	-1e10	8	-1E+10	1	-1E+10	1	-1E+10	1	-1E+10	1	-1E+10	1	-1E+10	1
4902554	40	C	03/13/2022	05:04	-136.152	49.465	0	162.60	0	5.8370	0	33.6870	0	26.537	0	161.150	0	-1e10	8	-1e10	8	-1E+10	1	-1E+10	1	-1E+10	1	-1E+10	1	-1E+10	1	-1E+10	1
4902554	40	C	03/13/2022	05:04	-136.152	49.465	0	163.90	0	5.8080	0	33.6930	0	26.545	0	162.438	0	-1e10	8	-1e10	8	-1E+10	1	-1E+10	1	-1E+10	1	-1E+10	1	-1E+10	1	-1E+10	1
4902554	40	C	03/13/2022	05:04	-136.152	49.465	0	165.30	0	5.7760	0	33.6990	0	26.554	0	163.825	0	-1e10	8	-1e10	8	-1E+10	1	-1E+10	1	-1E+10	1	-1E+10	1	-1E+10	1	-1E+10	1
4902554	40	C	03/13/2022	05:04	-136.152	49.465	0	166.20	0	5.7670	0	33.7000	0	26.556	0	164.717	0	-1e10	8	-1e10	8	-1E+10	1	-1E+10	1	-1E+10	1	-1E+10	1	-1E+10	1	-1E+10	1
4902554	40	C	03/13/2022	05:04	-136.152	49.465	0	167.10	0	5.7630	0	33.7000	0	26.557	0	165.609	0	-1e10	8	-1e10	8	-1E+10	1	-1E+10	1	-1E+10	1	-1E+10	1	-1E+10	1	-1E+10	1
4902554	40	C	03/13/2022	05:04	-136.152	49.465	0	168.00	0	5.7430	0	33.7030	0	26.561	0	166.500	0	-1e10	8	-1e10	8	-1E+10	1	-1E+10	1	-1E+10	1	-1E+10	1	-1E+10	1	-1E+10	1
4902554	40	C	03/13/2022	05:04	-136.152	49.465	0	168.90	0	5.7320	0	33.7030	0	26.563	0	167.392	0	-1e10	8	-1e10	8	-1E+10	1	-1E+10	1	-1E+10	1	-1E+10	1	-1E+10	1	-1E+10	1
4902554	40	C	03/13/2022	05:04	-136.152	49.465	0	169.80	0	5.7170	0	33.7070	0	26.568	0	168.283	0	-1e10	8	-1e10	8	-1E+10	1	-1E+10	1	-1E+10	1	-1E+10	1	-1E+10	1	-1E+10	1
4902554	40	C	03/13/2022	05:04	-136.152	49.465	0	170.70	0	5.6990	0	33.7070	0	26.570	0	169.175	0	-1e10	8	-1e10	8	-1E+10	1	-1E+10	1	-1E+10	1	-1E+10	1	-1E+10	1	-1E+10	1
4902554	40	C	03/13/2022	05:04	-136.152	49.465	0	171.60	0	5.6870	0	33.7090	0	26.573	0	170.067	0	-1e10	8	-1e10	8	-1E+10	1	-1E+10	1	-1E+10	1	-1E+10	1	-1E+10	1	-1E+10	1
4902554	40	C	03/13/2022	05:04	-136.152	49.465	0	172.60	0	5.6790	0	33.7090	0	26.574	0	171.057	0	-1e10	8	-1e10	8	-1E+10	1	-1E+10	1	-1E+10	1	-1E+10	1	-1E+10	1	-1E+10	1
4902554	40	C	03/13/2022	05:04	-136.152	49.465	0	173.50	0	5.6620	0	33.7110	0	26.578	0	171.949	0	-1e10	8	-1e10	8	-1E+10	1	-1E+10	1	-1E+10	1	-1E+10	1	-1E+10	1	-1E+10	1
4902554	40	C	03/13/2022	05:04	-136.152	49.465	0	174.90	0	5.6320	0	33.7160	0	26.585	0	173.336	0	-1e10	8	-1e10	8	-1E+10	1	-1E+10	1	-1E+10	1	-1E+10	1	-1E+10	1	-1E+10	1
4902554	40	C	03/13/2022	05:04	-136.152	49.465	0	176.30	0	5.6270	0	33.7170	0	26.587	0	174.723	0	-1e10	8	-1e10	8	-1E+10	1	-1E+10	1	-1E+10	1	-1E+10	1	-1E+10	1	-1E+10	1
4902554	40	C	03/13/2022	05:04	-136.152	49.465	0	177.30	0	5.6130	0	33.7190	0	26.590	0	175.713	0	-1e10	8	-1e10	8	-1E+10	1	-1E+10	1	-1E+10	1	-1E+10	1	-1E+10	1	-1E+10	1
4902554	40	C	03/13/2022	05:04	-136.152	49.465	0	178.20	0	5.6060	0	33.7230	0	26.594	0	176.605	0	-1e10	8	-1e10	8	-1E+10	1	-1E+10	1	-1E+10	1	-1E+10	1	-1E+10	1	-1E+10	1
4902554	40	C	03/13/2022	05:04	-136.152	49.465	0	179.10	0	5.6100	0	33.7230	0	26.593	0	177.496	0	-1e10	8	-1e10	8	-1E+10	1	-1E+10	1	-1E+10	1	-1E+10	1	-1E+10	1	-1E+10	1
4902554	40	C	03/13/2022	05:04	-136.152	49.465	0	180.10	0	5.6070	0	33.7220	0	26.593	0	178.487	0	-1e10	8	-1e10	8	-1E+10	1	-1E+10	1	-1E+10	1	-1E+10	1	-1E+10	1	-1E+10	1
4902554	40	C	03/13/2022	05:04	-136.152	49.465	0	181.00	0	5.6030	0	33.7230	0	26.594	0	179.378	0	-1e10	8	-1e10	8	-1E+10	1	-1E+10	1	-1E+10	1	-1E+10	1	-1E+10	1	-1E+10	1
4902554	40	C	03/13/2022	05:04	-136.152	49.465	0	182.00	0	5.5870	0	33.7230	0	26.596	0	180.369	0	-1e10	8	-1e10	8	-1E+10	1	-1E+10	1	-1E+10	1	-1E+10	1	-1E+10	1	-1E+10	1
4902554	40	C	03/13/2022	05:04	-136.152	49.465	0	182.90	0	5.5760	0	33.7240	0	26.598	0	181.261	0	-1e10	8	-1e10	8	-1E+10	1	-1E+10	1	-1E+10	1	-1E+10	1	-1E+10	1	-1E+10	1
4902554	40	C	03/13/2022	05:04	-136.152	49.465	0	183.80	0	5.5700	0	33.7240	0	26.599	0	182.152	0	-1e10	8	-1e10	8	-1E+10	1	-1E+10	1	-1E+10	1	-1E+10	1	-1E+10	1	-1E+10	1
4902554	40	C	03/13/2022	05:04	-136.152	49.465	0	184.80	0	5.5700	0	33.7240	0	26.599	0	183.143	0	-1e10	8	-1e10	8	-1E+10	1	-1E+10	1	-1E+10	1	-1E+10	1	-1E+10	1	-1E+10	1
4902554	40	C	03/13/2022	05:04	-136.152	49.465	0	185.70	0	5.5700	0	33.7240	0	26.599	0	184.034	0	-1e10	8	-1e10	8	-1E+10	1	-1E+10	1	-1E+10	1	-1E+10	1	-1E+10	1	-1E+10	1
4902554	40	C	03/13/2022	05:04	-136.152	49.465	0	186.60	0	5.5610	0	33.7250	0	26.601	0	184.926	0	-1e10	8	-1e10	8	-1E+10	1	-1E+10	1	-1E+10	1	-1E+10	1	-1E+10	1	-1E+10	1
4902554	40	C	03/13/2022	05:04	-136.152	49.465	0	187.60	0	5.5410	0	33.7340	0	26.610	0	185.916	0	-1e10	8	-1e10	8	-1E+10	1	-1E+10	1	-1E+10	1	-1E+10	1	-1E+10	1	-1E+10	1
4902554	40	C	03/13/2022	05:04	-136.152	49.465	0	188.90	0	5.5120	0	33.7370	0	26.616	0	187.204	0	-1e10	8	-1e10	8	-1E+10	1	-1E+10	1	-1E+10	1	-1E+10	1	-1E+10	1	-1E+10	1
4902554	40	C	03/13/2022	05:04	-136.152	49.465	0	190.40	0	5.5000	0	33.7380	0	26.619	0	188.690	0	-1e10	8	-1e10	8	-1E+10	1	-1E+10	1	-1E+10	1	-1E+10	1	-1E+10	1	-1E+10	1
4902554	40	C	03/13/2022	05:04	-136.152	49.465	0	191.30	0	5.4960	0	33.7390	0	26.620	0	189.581	0	-1e10	8	-1e10	8	-1E+10	1	-1E+10	1	-1E+10	1	-1E+10	1	-1E+10	1	-1E+10	1
4902554	40	C	03/13/2022	05:04	-136.152	49.465	0	192.20	0	5.5030	0	33.7410	0	26.621	0	190.473	0	-1e10	8	-1e10	8	-1E+10	1	-1E+10	1	-1E+10	1	-1E+10	1	-1E+10	1	-1E+10	1
4902554	40	C	03/13/2022	05:04	-136.152	49.465	0	193.10	0	5.4850	0	33.7430	0	26.624	0	191.364	0	-1e10	8	-1e10	8	-1E+10	1	-1E+10	1	-1E+10	1	-1E+10	1	-1E+10	1	-1E+10	1
4902554	40	C	03/13/2022	05:04	-136.152	49.465	0	194.00	0	5.4840	0	33.7450	0	26.626	0	192.256	0	-1e10	8	-1e10	8	-1E+10	1	-1E+10	1	-1E+10	1	-1E+10	1	-1E+10	1	-1E+10	1
4902554	40	C	03/13/2022	05:04	-136.152	49.465	0	194.90	0	5.4680	0	33.7450	0	26.628	0	193.147	0	-1e10	8	-1e10	8	-1E+10	1	-1E+10	1	-1E+10	1	-1E+10	1	-1E+10	1	-1E+10	1
4902554	40	C	03/13/2022	05:04	-136.152	49.465	0	195.80	0	5.4630	0	33.7460	0	26.629	0	194.039	0	-1e10	8	-1e10	8	-1E+10	1	-1E+10	1	-1E+10	1	-1E+10	1	-1E+10	1	-1E+10	1
4902554	40	C	03/13/2022	05:04	-136.152	49.465	0	196.80	0	5.4560	0	33.7480	0	26.632	0	195.029	0	-1e10	8	-1e10	8	-1E+10	1	-1E+10	1	-1E+10	1	-1E+10	1	-1E+10	1	-1E+10	1
4902554	40	C	03/13/2022	05:04	-136.152	49.465	0	197.70	0	5.4390	0	33.7510	0	26.636	0	195.921	0	-1e10	8	-1e10	8	-1E+10	1	-1E+10	1	-1E+10	1	-1E+10	1	-1E+10	1	-1E+10	1
4902554	40	C	03/13/2022	05:04	-136.152	49.465	0	198.60	0	5.4330	0	33.7500	0	26.636	0	196.812	0	-1e10	8	-1e10	8	-1E+10	1	-1E+10	1	-1E+10	1	-1E+10	1	-1E+10	1	-1E+10	1
4902554	40	C	03/13/2022	05:04	-136.152	49.465	0	199.90	0	5.4140	0	33.7520	0	26.640	0	198.100	0	-1e10	8	-1e10	8	-1E+10	1	-1E+10	1	-1E+10	1	-1E+10	1	-1E+10	1	-1E+10	1
4902554	40	C	03/13/2022	05:04	-136.152	49.465	0	201.30	0	5.3940	0	33.7540	0	26.644	0	199.487	0	-1e10	8	-1e10	8	-1E+10	1	-1E+10	1	-1E+10	1	-1E+10	1	-1E+10	1	-1E+10	1
4902554	40	C	03/13/2022	05:04	-136.152	49.465	0	202.30	0	5.3740	0	33.7550	0	26.647	0	200.477	0	-1e10	8	-1e10	8	-1E+10	1	-1E+10	1	-1E+10	1	-1E+10	1	-1E+10	1	-1E+10	1
4902554	40	C	03/13/2022	05:04	-136.152	49.465	0	203.20	0	5.3500	0	33.7570	0	26.651	0	201.369	0	-1e10	8	-1e10	8	-1E+10	1	-1E+10	1	-1E+10	1	-1E+10	1	-1E+10	1	-1E+10	1
4902554	40	C	03/13/2022	05:04	-136.152	49.465	0	204.10	0	5.3270	0	33.7570	0	26.654	0	202.260	0	-1e10	8	-1e10	8	-1E+10	1	-1E+10	1	-1E+10	1	-1E+10	1	-1E+10	1	-1E+10	1
4902554	40	C	03/13/2022	05:04	-136.152	49.465	0	205.00	0	5.3270	0	33.7580	0	26.655	0	203.152	0	-1e10	8	-1e10	8	-1E+10	1	-1E+10	1	-1E+10	1	-1E+10	1	-1E+10	1	-1E+10	1
4902554	40	C	03/13/2022	05:04	-136.152	49.465	0	205.90	0	5.3230	0	33.7590	0	26.656	0	204.043	0	-1e10	8	-1e10	8	-1E+10	1	-1E+10	1	-1E+10	1	-1E+10	1	-1E+10	1	-1E+10	1
4902554	40	C	03/13/2022	05:04	-136.152	49.465	0	206.80	0	5.3140	0	33.7600	0	26.658	0	204.935	0	-1e10	8	-1e10	8	-1E+10	1	-1E+10	1	-1E+10	1	-1E+10	1	-1E+10	1	-1E+10	1
4902554	40	C	03/13/2022	05:04	-136.152	49.465	0	207.70	0	5.3060	0	33.7600	0	26.659	0	205.826	0	-1e10	8	-1e10	8	-1E+10	1	-1E+10	1	-1E+10	1	-1E+10	1	-1E+10	1	-1E+10	1
4902554	40	C	03/13/2022	05:04	-136.152	49.465	0	208.70	0	5.3040	0	33.7610	0	26.660	0	206.816	0	-1e10	8	-1e10	8	-1E+10	1	-1E+10	1	-1E+10	1	-1E+10	1	-1E+10	1	-1E+10	1
4902554	40	C	03/13/2022	05:04	-136.152	49.465	0	209.50	0	5.3040	0	33.7610	0	26.660	0	207.609	0	-1e10	8	-1e10	8	-1E+10	1	-1E+10	1	-1E+10	1	-1E+10	1	-1E+10	1	-1E+10	1
4902554	40	C	03/13/2022	05:04	-136.152	49.465	0	210.90	0	5.2990	0	33.7620	0	26.661	0	208.995	0	-1e10	8	-1e10	8	-1E+10	1	-1E+10	1	-1E+10	1	-1E+10	1	-1E+10	1	-1E+10	1
4902554	40	C	03/13/2022	05:04	-136.152	49.465	0	212.30	0	5.2940	0	33.7660	0	26.665	0	210.382	0	-1e10	8	-1e10	8	-1E+10	1	-1E+10	1	-1E+10	1	-1E+10	1	-1E+10	1	-1E+10	1
4902554	40	C	03/13/2022	05:04	-136.152	49.465	0	213.20	0	5.2880	0	33.7690	0	26.668	0	211.273	0	-1e10	8	-1e10	8	-1E+10	1	-1E+10	1	-1E+10	1	-1E+10	1	-1E+10	1	-1E+10	1
4902554	40	C	03/13/2022	05:04	-136.152	49.465	0	214.10	0	5.2950	0	33.7780	0	26.675	0	212.165	0	-1e10	8	-1e10	8	-1E+10	1	-1E+10	1	-1E+10	1	-1E+10	1	-1E+10	1	-1E+10	1
4902554	40	C	03/13/2022	05:04	-136.152	49.465	0	215.00	0	5.2870	0	33.7800	0	26.677	0	213.056	0	-1e10	8	-1e10	8	-1E+10	1	-1E+10	1	-1E+10	1	-1E+10	1	-1E+10	1	-1E+10	1
4902554	40	C	03/13/2022	05:04	-136.152	49.465	0	215.90	0	5.2800	0	33.7800	0	26.678	0	213.948	0	-1e10	8	-1e10	8	-1E+10	1	-1E+10	1	-1E+10	1	-1E+10	1	-1E+10	1	-1E+10	1
4902554	40	C	03/13/2022	05:04	-136.152	49.465	0	216.80	0	5.2770	0	33.7800	0	26.678	0	214.839	0	-1e10	8	-1e10	8	-1E+10	1	-1E+10	1	-1E+10	1	-1E+10	1	-1E+10	1	-1E+10	1
4902554	40	C	03/13/2022	05:04	-136.152	49.465	0	217.70	0	5.2680	0	33.7810	0	26.680	0	215.730	0	-1e10	8	-1e10	8	-1E+10	1	-1E+10	1	-1E+10	1	-1E+10	1	-1E+10	1	-1E+10	1
4902554	40	C	03/13/2022	05:04	-136.152	49.465	0	218.60	0	5.2570	0	33.7820	0	26.682	0	216.622	0	-1e10	8	-1e10	8	-1E+10	1	-1E+10	1	-1E+10	1	-1E+10	1	-1E+10	1	-1E+10	1
4902554	40	C	03/13/2022	05:04	-136.152	49.465	0	219.90	0	5.2440	0	33.7850	0	26.686	0	217.909	0	-1e10	8	-1e10	8	-1E+10	1	-1E+10	1	-1E+10	1	-1E+10	1	-1E+10	1	-1E+10	1
4902554	40	C	03/13/2022	05:04	-136.152	49.465	0	221.30	0	5.2380	0	33.7840	0	26.686	0	219.296	0	-1e10	8	-1e10	8	-1E+10	1	-1E+10	1	-1E+10	1	-1E+10	1	-1E+10	1	-1E+10	1
4902554	40	C	03/13/2022	05:04	-136.152	49.465	0	222.10	0	5.2340	0	33.7850	0	26.687	0	220.088	0	-1e10	8	-1e10	8	-1E+10	1	-1E+10	1	-1E+10	1	-1E+10	1	-1E+10	1	-1E+10	1
4902554	40	C	03/13/2022	05:04	-136.152	49.465	0	223.10	0	5.2060	0	33.7880	0	26.693	0	221.079	0	-1e10	8	-1e10	8	-1E+10	1	-1E+10	1	-1E+10	1	-1E+10	1	-1E+10	1	-1E+10	1
4902554	40	C	03/13/2022	05:04	-136.152	49.465	0	224.00	0	5.2030	0	33.7880	0	26.693	0	221.970	0	-1e10	8	-1e10	8	-1E+10	1	-1E+10	1	-1E+10	1	-1E+10	1	-1E+10	1	-1E+10	1
4902554	40	C	03/13/2022	05:04	-136.152	49.465	0	224.80	0	5.2030	0	33.7880	0	26.693	0	222.762	0	-1e10	8	-1e10	8	-1E+10	1	-1E+10	1	-1E+10	1	-1E+10	1	-1E+10	1	-1E+10	1
4902554	40	C	03/13/2022	05:04	-136.152	49.465	0	225.80	0	5.1900	0	33.7900	0	26.696	0	223.753	0	-1e10	8	-1e10	8	-1E+10	1	-1E+10	1	-1E+10	1	-1E+10	1	-1E+10	1	-1E+10	1
4902554	40	C	03/13/2022	05:04	-136.152	49.465	0	226.70	0	5.1890	0	33.7890	0	26.696	0	224.644	0	-1e10	8	-1e10	8	-1E+10	1	-1E+10	1	-1E+10	1	-1E+10	1	-1E+10	1	-1E+10	1
4902554	40	C	03/13/2022	05:04	-136.152	49.465	0	227.60	0	5.1720	0	33.7920	0	26.700	0	225.536	0	-1e10	8	-1e10	8	-1E+10	1	-1E+10	1	-1E+10	1	-1E+10	1	-1E+10	1	-1E+10	1
4902554	40	C	03/13/2022	05:04	-136.152	49.465	0	228.90	0	5.1570	0	33.7920	0	26.702	0	226.823	0	-1e10	8	-1e10	8	-1E+10	1	-1E+10	1	-1E+10	1	-1E+10	1	-1E+10	1	-1E+10	1
4902554	40	C	03/13/2022	05:04	-136.152	49.465	0	230.30	0	5.1460	0	33.7940	0	26.705	0	228.210	0	-1e10	8	-1e10	8	-1E+10	1	-1E+10	1	-1E+10	1	-1E+10	1	-1E+10	1	-1E+10	1
4902554	40	C	03/13/2022	05:04	-136.152	49.465	0	231.20	0	5.1380	0	33.7940	0	26.706	0	229.101	0	-1e10	8	-1e10	8	-1E+10	1	-1E+10	1	-1E+10	1	-1E+10	1	-1E+10	1	-1E+10	1
4902554	40	C	03/13/2022	05:04	-136.152	49.465	0	232.10	0	5.1290	0	33.7940	0	26.707	0	229.992	0	-1e10	8	-1e10	8	-1E+10	1	-1E+10	1	-1E+10	1	-1E+10	1	-1E+10	1	-1E+10	1
4902554	40	C	03/13/2022	05:04	-136.152	49.465	0	233.00	0	5.1220	0	33.7940	0	26.707	0	230.884	0	-1e10	8	-1e10	8	-1E+10	1	-1E+10	1	-1E+10	1	-1E+10	1	-1E+10	1	-1E+10	1
4902554	40	C	03/13/2022	05:04	-136.152	49.465	0	233.90	0	5.1090	0	33.7970	0	26.711	0	231.775	0	-1e10	8	-1e10	8	-1E+10	1	-1E+10	1	-1E+10	1	-1E+10	1	-1E+10	1	-1E+10	1
4902554	40	C	03/13/2022	05:04	-136.152	49.465	0	234.80	0	5.1050	0	33.7980	0	26.713	0	232.666	0	-1e10	8	-1e10	8	-1E+10	1	-1E+10	1	-1E+10	1	-1E+10	1	-1E+10	1	-1E+10	1
4902554	40	C	03/13/2022	05:04	-136.152	49.465	0	235.70	0	5.1020	0	33.7970	0	26.712	0	233.557	0	-1e10	8	-1e10	8	-1E+10	1	-1E+10	1	-1E+10	1	-1E+10	1	-1E+10	1	-1E+10	1
4902554	40	C	03/13/2022	05:04	-136.152	49.465	0	236.60	0	5.0890	0	33.8000	0	26.716	0	234.449	0	-1e10	8	-1e10	8	-1E+10	1	-1E+10	1	-1E+10	1	-1E+10	1	-1E+10	1	-1E+10	1
4902554	40	C	03/13/2022	05:04	-136.152	49.465	0	237.90	0	5.0750	0	33.8010	0	26.718	0	235.736	0	-1e10	8	-1e10	8	-1E+10	1	-1E+10	1	-1E+10	1	-1E+10	1	-1E+10	1	-1E+10	1
4902554	40	C	03/13/2022	05:04	-136.152	49.465	0	239.30	0	5.0640	0	33.8030	0	26.721	0	237.123	0	-1e10	8	-1e10	8	-1E+10	1	-1E+10	1	-1E+10	1	-1E+10	1	-1E+10	1	-1E+10	1
4902554	40	C	03/13/2022	05:04	-136.152	49.465	0	240.20	0	5.0490	0	33.8040	0	26.724	0	238.014	0	-1e10	8	-1e10	8	-1E+10	1	-1E+10	1	-1E+10	1	-1E+10	1	-1E+10	1	-1E+10	1
4902554	40	C	03/13/2022	05:04	-136.152	49.465	0	241.10	0	5.0440	0	33.8040	0	26.724	0	238.905	0	-1e10	8	-1e10	8	-1E+10	1	-1E+10	1	-1E+10	1	-1E+10	1	-1E+10	1	-1E+10	1
4902554	40	C	03/13/2022	05:04	-136.152	49.465	0	242.00	0	5.0190	0	33.8090	0	26.731	0	239.797	0	-1e10	8	-1e10	8	-1E+10	1	-1E+10	1	-1E+10	1	-1E+10	1	-1E+10	1	-1E+10	1
4902554	40	C	03/13/2022	05:04	-136.152	49.465	0	243.00	0	5.0090	0	33.8090	0	26.732	0	240.787	0	-1e10	8	-1e10	8	-1E+10	1	-1E+10	1	-1E+10	1	-1E+10	1	-1E+10	1	-1E+10	1
4902554	40	C	03/13/2022	05:04	-136.152	49.465	0	243.90	0	5.0070	0	33.8090	0	26.732	0	241.678	0	-1e10	8	-1e10	8	-1E+10	1	-1E+10	1	-1E+10	1	-1E+10	1	-1E+10	1	-1E+10	1
4902554	40	C	03/13/2022	05:04	-136.152	49.465	0	244.90	0	5.0020	0	33.8100	0	26.734	0	242.668	0	-1e10	8	-1e10	8	-1E+10	1	-1E+10	1	-1E+10	1	-1E+10	1	-1E+10	1	-1E+10	1
4902554	40	C	03/13/2022	05:04	-136.152	49.465	0	245.90	0	4.9920	0	33.8120	0	26.737	0	243.659	0	-1e10	8	-1e10	8	-1E+10	1	-1E+10	1	-1E+10	1	-1E+10	1	-1E+10	1	-1E+10	1
4902554	40	C	03/13/2022	05:04	-136.152	49.465	0	246.80	0	4.9860	0	33.8130	0	26.738	0	244.550	0	-1e10	8	-1e10	8	-1E+10	1	-1E+10	1	-1E+10	1	-1E+10	1	-1E+10	1	-1E+10	1
4902554	40	C	03/13/2022	05:04	-136.152	49.465	0	247.80	0	4.9820	0	33.8130	0	26.739	0	245.540	0	-1e10	8	-1e10	8	-1E+10	1	-1E+10	1	-1E+10	1	-1E+10	1	-1E+10	1	-1E+10	1
4902554	40	C	03/13/2022	05:04	-136.152	49.465	0	248.80	0	4.9800	0	33.8130	0	26.739	0	246.531	0	-1e10	8	-1e10	8	-1E+10	1	-1E+10	1	-1E+10	1	-1E+10	1	-1E+10	1	-1E+10	1
4902554	40	C	03/13/2022	05:04	-136.152	49.465	0	249.70	0	4.9760	0	33.8130	0	26.739	0	247.422	0	-1e10	8	-1e10	8	-1E+10	1	-1E+10	1	-1E+10	1	-1E+10	1	-1E+10	1	-1E+10	1
4902554	40	C	03/13/2022	05:04	-136.152	49.465	0	250.70	0	4.9640	0	33.8160	0	26.743	0	248.412	0	-1e10	8	-1e10	8	-1E+10	1	-1E+10	1	-1E+10	1	-1E+10	1	-1E+10	1	-1E+10	1
4902554	40	C	03/13/2022	05:04	-136.152	49.465	0	251.70	0	4.9570	0	33.8170	0	26.745	0	249.402	0	-1e10	8	-1e10	8	-1E+10	1	-1E+10	1	-1E+10	1	-1E+10	1	-1E+10	1	-1E+10	1
4902554	40	C	03/13/2022	05:04	-136.152	49.465	0	252.70	0	4.9340	0	33.8200	0	26.750	0	250.393	0	-1e10	8	-1e10	8	-1E+10	1	-1E+10	1	-1E+10	1	-1E+10	1	-1E+10	1	-1E+10	1
4902554	40	C	03/13/2022	05:04	-136.152	49.465	0	253.70	0	4.9290	0	33.8180	0	26.749	0	251.383	0	-1e10	8	-1e10	8	-1E+10	1	-1E+10	1	-1E+10	1	-1E+10	1	-1E+10	1	-1E+10	1
4902554	40	C	03/13/2022	05:04	-136.152	49.465	0	254.60	0	4.9270	0	33.8180	0	26.749	0	252.274	0	-1e10	8	-1e10	8	-1E+10	1	-1E+10	1	-1E+10	1	-1E+10	1	-1E+10	1	-1E+10	1
4902554	40	C	03/13/2022	05:04	-136.152	49.465	0	255.60	0	4.9150	0	33.8210	0	26.752	0	253.264	0	-1e10	8	-1e10	8	-1E+10	1	-1E+10	1	-1E+10	1	-1E+10	1	-1E+10	1	-1E+10	1
4902554	40	C	03/13/2022	05:04	-136.152	49.465	0	256.60	0	4.9120	0	33.8210	0	26.753	0	254.255	0	-1e10	8	-1e10	8	-1E+10	1	-1E+10	1	-1E+10	1	-1E+10	1	-1E+10	1	-1E+10	1
4902554	40	C	03/13/2022	05:04	-136.152	49.465	0	257.60	0	4.9090	0	33.8220	0	26.754	0	255.245	0	-1e10	8	-1e10	8	-1E+10	1	-1E+10	1	-1E+10	1	-1E+10	1	-1E+10	1	-1E+10	1
4902554	40	C	03/13/2022	05:04	-136.152	49.465	0	258.60	0	4.9050	0	33.8230	0	26.755	0	256.235	0	-1e10	8	-1e10	8	-1E+10	1	-1E+10	1	-1E+10	1	-1E+10	1	-1E+10	1	-1E+10	1
4902554	40	C	03/13/2022	05:04	-136.152	49.465	0	259.60	0	4.9020	0	33.8230	0	26.756	0	257.225	0	-1e10	8	-1e10	8	-1E+10	1	-1E+10	1	-1E+10	1	-1E+10	1	-1E+10	1	-1E+10	1
4902554	40	C	03/13/2022	05:04	-136.152	49.465	0	260.60	0	4.8990	0	33.8230	0	26.756	0	258.216	0	-1e10	8	-1e10	8	-1E+10	1	-1E+10	1	-1E+10	1	-1E+10	1	-1E+10	1	-1E+10	1
4902554	40	C	03/13/2022	05:04	-136.152	49.465	0	261.60	0	4.8970	0	33.8230	0	26.756	0	259.206	0	-1e10	8	-1e10	8	-1E+10	1	-1E+10	1	-1E+10	1	-1E+10	1	-1E+10	1	-1E+10	1
4902554	40	C	03/13/2022	05:04	-136.152	49.465	0	262.70	0	4.8960	0	33.8230	0	26.756	0	260.295	0	-1e10	8	-1e10	8	-1E+10	1	-1E+10	1	-1E+10	1	-1E+10	1	-1E+10	1	-1E+10	1
4902554	40	C	03/13/2022	05:04	-136.152	49.465	0	263.70	0	4.8880	0	33.8240	0	26.758	0	261.285	0	-1e10	8	-1e10	8	-1E+10	1	-1E+10	1	-1E+10	1	-1E+10	1	-1E+10	1	-1E+10	1
4902554	40	C	03/13/2022	05:04	-136.152	49.465	0	264.70	0	4.8810	0	33.8250	0	26.760	0	262.276	0	-1e10	8	-1e10	8	-1E+10	1	-1E+10	1	-1E+10	1	-1E+10	1	-1E+10	1	-1E+10	1
4902554	40	C	03/13/2022	05:04	-136.152	49.465	0	265.70	0	4.8740	0	33.8270	0	26.762	0	263.266	0	-1e10	8	-1e10	8	-1E+10	1	-1E+10	1	-1E+10	1	-1E+10	1	-1E+10	1	-1E+10	1
4902554	40	C	03/13/2022	05:04	-136.152	49.465	0	266.70	0	4.8640	0	33.8270	0	26.763	0	264.256	0	-1e10	8	-1e10	8	-1E+10	1	-1E+10	1	-1E+10	1	-1E+10	1	-1E+10	1	-1E+10	1
4902554	40	C	03/13/2022	05:04	-136.152	49.465	0	267.70	0	4.8460	0	33.8300	0	26.767	0	265.246	0	-1e10	8	-1e10	8	-1E+10	1	-1E+10	1	-1E+10	1	-1E+10	1	-1E+10	1	-1E+10	1
4902554	40	C	03/13/2022	05:04	-136.152	49.465	0	268.70	0	4.8290	0	33.8350	0	26.773	0	266.236	0	-1e10	8	-1e10	8	-1E+10	1	-1E+10	1	-1E+10	1	-1E+10	1	-1E+10	1	-1E+10	1
4902554	40	C	03/13/2022	05:04	-136.152	49.465	0	269.80	0	4.8200	0	33.8340	0	26.774	0	267.325	0	-1e10	8	-1e10	8	-1E+10	1	-1E+10	1	-1E+10	1	-1E+10	1	-1E+10	1	-1E+10	1
4902554	40	C	03/13/2022	05:04	-136.152	49.465	0	270.80	0	4.8180	0	33.8350	0	26.775	0	268.316	0	-1e10	8	-1e10	8	-1E+10	1	-1E+10	1	-1E+10	1	-1E+10	1	-1E+10	1	-1E+10	1
4902554	40	C	03/13/2022	05:04	-136.152	49.465	0	271.90	0	4.8180	0	33.8340	0	26.774	0	269.405	0	-1e10	8	-1e10	8	-1E+10	1	-1E+10	1	-1E+10	1	-1E+10	1	-1E+10	1	-1E+10	1
4902554	40	C	03/13/2022	05:04	-136.152	49.465	0	272.90	0	4.8100	0	33.8370	0	26.777	0	270.395	0	-1e10	8	-1e10	8	-1E+10	1	-1E+10	1	-1E+10	1	-1E+10	1	-1E+10	1	-1E+10	1
4902554	40	C	03/13/2022	05:04	-136.152	49.465	0	274.00	0	4.8050	0	33.8380	0	26.778	0	271.484	0	-1e10	8	-1e10	8	-1E+10	1	-1E+10	1	-1E+10	1	-1E+10	1	-1E+10	1	-1E+10	1
4902554	40	C	03/13/2022	05:04	-136.152	49.465	0	275.10	0	4.7890	0	33.8430	0	26.784	0	272.573	0	-1e10	8	-1e10	8	-1E+10	1	-1E+10	1	-1E+10	1	-1E+10	1	-1E+10	1	-1E+10	1
4902554	40	C	03/13/2022	05:04	-136.152	49.465	0	276.20	0	4.7830	0	33.8410	0	26.783	0	273.663	0	-1e10	8	-1e10	8	-1E+10	1	-1E+10	1	-1E+10	1	-1E+10	1	-1E+10	1	-1E+10	1
4902554	40	C	03/13/2022	05:04	-136.152	49.465	0	277.20	0	4.7820	0	33.8410	0	26.783	0	274.653	0	-1e10	8	-1e10	8	-1E+10	1	-1E+10	1	-1E+10	1	-1E+10	1	-1E+10	1	-1E+10	1
4902554	40	C	03/13/2022	05:04	-136.152	49.465	0	278.30	0	4.7700	0	33.8420	0	26.785	0	275.742	0	-1e10	8	-1e10	8	-1E+10	1	-1E+10	1	-1E+10	1	-1E+10	1	-1E+10	1	-1E+10	1
4902554	40	C	03/13/2022	05:04	-136.152	49.465	0	279.40	0	4.7650	0	33.8430	0	26.787	0	276.831	0	-1e10	8	-1e10	8	-1E+10	1	-1E+10	1	-1E+10	1	-1E+10	1	-1E+10	1	-1E+10	1
4902554	40	C	03/13/2022	05:04	-136.152	49.465	0	280.50	0	4.7530	0	33.8430	0	26.788	0	277.920	0	-1e10	8	-1e10	8	-1E+10	1	-1E+10	1	-1E+10	1	-1E+10	1	-1E+10	1	-1E+10	1
4902554	40	C	03/13/2022	05:04	-136.152	49.465	0	281.60	0	4.7460	0	33.8440	0	26.790	0	279.009	0	-1e10	8	-1e10	8	-1E+10	1	-1E+10	1	-1E+10	1	-1E+10	1	-1E+10	1	-1E+10	1
4902554	40	C	03/13/2022	05:04	-136.152	49.465	0	282.60	0	4.7430	0	33.8450	0	26.791	0	279.999	0	-1e10	8	-1e10	8	-1E+10	1	-1E+10	1	-1E+10	1	-1E+10	1	-1E+10	1	-1E+10	1
4902554	40	C	03/13/2022	05:04	-136.152	49.465	0	283.70	0	4.7410	0	33.8440	0	26.790	0	281.089	0	-1e10	8	-1e10	8	-1E+10	1	-1E+10	1	-1E+10	1	-1E+10	1	-1E+10	1	-1E+10	1
4902554	40	C	03/13/2022	05:04	-136.152	49.465	0	284.80	0	4.7400	0	33.8450	0	26.791	0	282.178	0	-1e10	8	-1e10	8	-1E+10	1	-1E+10	1	-1E+10	1	-1E+10	1	-1E+10	1	-1E+10	1
4902554	40	C	03/13/2022	05:04	-136.152	49.465	0	285.90	0	4.7310	0	33.8470	0	26.794	0	283.267	0	-1e10	8	-1e10	8	-1E+10	1	-1E+10	1	-1E+10	1	-1E+10	1	-1E+10	1	-1E+10	1
4902554	40	C	03/13/2022	05:04	-136.152	49.465	0	287.00	0	4.7290	0	33.8470	0	26.794	0	284.356	0	-1e10	8	-1e10	8	-1E+10	1	-1E+10	1	-1E+10	1	-1E+10	1	-1E+10	1	-1E+10	1
4902554	40	C	03/13/2022	05:04	-136.152	49.465	0	288.10	0	4.7240	0	33.8480	0	26.795	0	285.445	0	-1e10	8	-1e10	8	-1E+10	1	-1E+10	1	-1E+10	1	-1E+10	1	-1E+10	1	-1E+10	1
4902554	40	C	03/13/2022	05:04	-136.152	49.465	0	289.20	0	4.7190	0	33.8490	0	26.797	0	286.534	0	-1e10	8	-1e10	8	-1E+10	1	-1E+10	1	-1E+10	1	-1E+10	1	-1E+10	1	-1E+10	1
4902554	40	C	03/13/2022	05:04	-136.152	49.465	0	290.30	0	4.7150	0	33.8510	0	26.799	0	287.623	0	-1e10	8	-1e10	8	-1E+10	1	-1E+10	1	-1E+10	1	-1E+10	1	-1E+10	1	-1E+10	1
4902554	40	C	03/13/2022	05:04	-136.152	49.465	0	291.30	0	4.7150	0	33.8510	0	26.799	0	288.613	0	-1e10	8	-1e10	8	-1E+10	1	-1E+10	1	-1E+10	1	-1E+10	1	-1E+10	1	-1E+10	1
4902554	40	C	03/13/2022	05:04	-136.152	49.465	0	292.40	0	4.7100	0	33.8520	0	26.800	0	289.702	0	-1e10	8	-1e10	8	-1E+10	1	-1E+10	1	-1E+10	1	-1E+10	1	-1E+10	1	-1E+10	1
4902554	40	C	03/13/2022	05:04	-136.152	49.465	0	293.50	0	4.7020	0	33.8530	0	26.802	0	290.791	0	-1e10	8	-1e10	8	-1E+10	1	-1E+10	1	-1E+10	1	-1E+10	1	-1E+10	1	-1E+10	1
4902554	40	C	03/13/2022	05:04	-136.152	49.465	0	294.60	0	4.6990	0	33.8540	0	26.803	0	291.881	0	-1e10	8	-1e10	8	-1E+10	1	-1E+10	1	-1E+10	1	-1E+10	1	-1E+10	1	-1E+10	1
4902554	40	C	03/13/2022	05:04	-136.152	49.465	0	295.70	0	4.6910	0	33.8550	0	26.805	0	292.970	0	-1e10	8	-1e10	8	-1E+10	1	-1E+10	1	-1E+10	1	-1E+10	1	-1E+10	1	-1E+10	1
4902554	40	C	03/13/2022	05:04	-136.152	49.465	0	296.80	0	4.6860	0	33.8550	0	26.805	0	294.059	0	-1e10	8	-1e10	8	-1E+10	1	-1E+10	1	-1E+10	1	-1E+10	1	-1E+10	1	-1E+10	1
4902554	40	C	03/13/2022	05:04	-136.152	49.465	0	298.00	0	4.6840	0	33.8540	0	26.805	0	295.247	0	-1e10	8	-1e10	8	-1E+10	1	-1E+10	1	-1E+10	1	-1E+10	1	-1E+10	1	-1E+10	1
4902554	40	C	03/13/2022	05:04	-136.152	49.465	0	299.10	0	4.6840	0	33.8540	0	26.805	0	296.336	0	-1e10	8	-1e10	8	-1E+10	1	-1E+10	1	-1E+10	1	-1E+10	1	-1E+10	1	-1E+10	1
4902554	40	C	03/13/2022	05:04	-136.152	49.465	0	300.10	0	4.6830	0	33.8540	0	26.805	0	297.326	0	-1e10	8	-1e10	8	-1E+10	1	-1E+10	1	-1E+10	1	-1E+10	1	-1E+10	1	-1E+10	1
4902554	40	C	03/13/2022	05:04	-136.152	49.465	0	301.20	0	4.6770	0	33.8570	0	26.808	0	298.415	0	-1e10	8	-1e10	8	-1E+10	1	-1E+10	1	-1E+10	1	-1E+10	1	-1E+10	1	-1E+10	1
4902554	40	C	03/13/2022	05:04	-136.152	49.465	0	302.30	0	4.6750	0	33.8580	0	26.809	0	299.504	0	-1e10	8	-1e10	8	-1E+10	1	-1E+10	1	-1E+10	1	-1E+10	1	-1E+10	1	-1E+10	1
4902554	40	C	03/13/2022	05:04	-136.152	49.465	0	303.40	0	4.6740	0	33.8580	0	26.809	0	300.593	0	-1e10	8	-1e10	8	-1E+10	1	-1E+10	1	-1E+10	1	-1E+10	1	-1E+10	1	-1E+10	1
4902554	40	C	03/13/2022	05:04	-136.152	49.465	0	304.50	0	4.6690	0	33.8590	0	26.810	0	301.682	0	-1e10	8	-1e10	8	-1E+10	1	-1E+10	1	-1E+10	1	-1E+10	1	-1E+10	1	-1E+10	1
4902554	40	C	03/13/2022	05:04	-136.152	49.465	0	305.60	0	4.6640	0	33.8590	0	26.811	0	302.771	0	-1e10	8	-1e10	8	-1E+10	1	-1E+10	1	-1E+10	1	-1E+10	1	-1E+10	1	-1E+10	1
4902554	40	C	03/13/2022	05:04	-136.152	49.465	0	306.70	0	4.6570	0	33.8600	0	26.812	0	303.860	0	-1e10	8	-1e10	8	-1E+10	1	-1E+10	1	-1E+10	1	-1E+10	1	-1E+10	1	-1E+10	1
4902554	40	C	03/13/2022	05:04	-136.152	49.465	0	307.60	0	4.6510	0	33.8600	0	26.813	0	304.751	0	-1e10	8	-1e10	8	-1E+10	1	-1E+10	1	-1E+10	1	-1E+10	1	-1E+10	1	-1E+10	1
4902554	40	C	03/13/2022	05:04	-136.152	49.465	0	308.70	0	4.6430	0	33.8610	0	26.815	0	305.840	0	-1e10	8	-1e10	8	-1E+10	1	-1E+10	1	-1E+10	1	-1E+10	1	-1E+10	1	-1E+10	1
4902554	40	C	03/13/2022	05:04	-136.152	49.465	0	309.90	0	4.6400	0	33.8610	0	26.815	0	307.028	0	-1e10	8	-1e10	8	-1E+10	1	-1E+10	1	-1E+10	1	-1E+10	1	-1E+10	1	-1E+10	1
4902554	40	C	03/13/2022	05:04	-136.152	49.465	0	311.10	0	4.6350	0	33.8650	0	26.819	0	308.216	0	-1e10	8	-1e10	8	-1E+10	1	-1E+10	1	-1E+10	1	-1E+10	1	-1E+10	1	-1E+10	1
4902554	40	C	03/13/2022	05:04	-136.152	49.465	0	311.90	0	4.6330	0	33.8650	0	26.819	0	309.008	0	-1e10	8	-1e10	8	-1E+10	1	-1E+10	1	-1E+10	1	-1E+10	1	-1E+10	1	-1E+10	1
4902554	40	C	03/13/2022	05:04	-136.152	49.465	0	312.70	0	4.6330	0	33.8660	0	26.820	0	309.800	0	-1e10	8	-1e10	8	-1E+10	1	-1E+10	1	-1E+10	1	-1E+10	1	-1E+10	1	-1E+10	1
4902554	40	C	03/13/2022	05:04	-136.152	49.465	0	313.90	0	4.6190	0	33.8680	0	26.823	0	310.988	0	-1e10	8	-1e10	8	-1E+10	1	-1E+10	1	-1E+10	1	-1E+10	1	-1E+10	1	-1E+10	1
4902554	40	C	03/13/2022	05:04	-136.152	49.465	0	315.20	0	4.6130	0	33.8710	0	26.826	0	312.275	0	-1e10	8	-1e10	8	-1E+10	1	-1E+10	1	-1E+10	1	-1E+10	1	-1E+10	1	-1E+10	1
4902554	40	C	03/13/2022	05:04	-136.152	49.465	0	316.00	0	4.6110	0	33.8710	0	26.826	0	313.067	0	-1e10	8	-1e10	8	-1E+10	1	-1E+10	1	-1E+10	1	-1E+10	1	-1E+10	1	-1E+10	1
4902554	40	C	03/13/2022	05:04	-136.152	49.465	0	316.80	0	4.6090	0	33.8720	0	26.827	0	313.859	0	-1e10	8	-1e10	8	-1E+10	1	-1E+10	1	-1E+10	1	-1E+10	1	-1E+10	1	-1E+10	1
4902554	40	C	03/13/2022	05:04	-136.152	49.465	0	318.00	0	4.6070	0	33.8720	0	26.827	0	315.047	0	-1e10	8	-1e10	8	-1E+10	1	-1E+10	1	-1E+10	1	-1E+10	1	-1E+10	1	-1E+10	1
4902554	40	C	03/13/2022	05:04	-136.152	49.465	0	319.30	0	4.6050	0	33.8730	0	26.829	0	316.334	0	-1e10	8	-1e10	8	-1E+10	1	-1E+10	1	-1E+10	1	-1E+10	1	-1E+10	1	-1E+10	1
4902554	40	C	03/13/2022	05:04	-136.152	49.465	0	320.10	0	4.6040	0	33.8730	0	26.829	0	317.126	0	-1e10	8	-1e10	8	-1E+10	1	-1E+10	1	-1E+10	1	-1E+10	1	-1E+10	1	-1E+10	1
4902554	40	C	03/13/2022	05:04	-136.152	49.465	0	320.90	0	4.6040	0	33.8730	0	26.829	0	317.918	0	-1e10	8	-1e10	8	-1E+10	1	-1E+10	1	-1E+10	1	-1E+10	1	-1E+10	1	-1E+10	1
4902554	40	C	03/13/2022	05:04	-136.152	49.465	0	321.70	0	4.6010	0	33.8740	0	26.830	0	318.710	0	-1e10	8	-1e10	8	-1E+10	1	-1E+10	1	-1E+10	1	-1E+10	1	-1E+10	1	-1E+10	1
4902554	40	C	03/13/2022	05:04	-136.152	49.465	0	322.90	0	4.5930	0	33.8760	0	26.832	0	319.897	0	-1e10	8	-1e10	8	-1E+10	1	-1E+10	1	-1E+10	1	-1E+10	1	-1E+10	1	-1E+10	1
4902554	40	C	03/13/2022	05:04	-136.152	49.465	0	324.10	0	4.5920	0	33.8760	0	26.832	0	321.085	0	-1e10	8	-1e10	8	-1E+10	1	-1E+10	1	-1E+10	1	-1E+10	1	-1E+10	1	-1E+10	1
4902554	40	C	03/13/2022	05:04	-136.152	49.465	0	325.00	0	4.5900	0	33.8770	0	26.833	0	321.976	0	-1e10	8	-1e10	8	-1E+10	1	-1E+10	1	-1E+10	1	-1E+10	1	-1E+10	1	-1E+10	1
4902554	40	C	03/13/2022	05:04	-136.152	49.465	0	325.80	0	4.5850	0	33.8780	0	26.835	0	322.768	0	-1e10	8	-1e10	8	-1E+10	1	-1E+10	1	-1E+10	1	-1E+10	1	-1E+10	1	-1E+10	1
4902554	40	C	03/13/2022	05:04	-136.152	49.465	0	327.00	0	4.5820	0	33.8780	0	26.835	0	323.956	0	-1e10	8	-1e10	8	-1E+10	1	-1E+10	1	-1E+10	1	-1E+10	1	-1E+10	1	-1E+10	1
4902554	40	C	03/13/2022	05:04	-136.152	49.465	0	328.20	0	4.5810	0	33.8800	0	26.837	0	325.144	0	-1e10	8	-1e10	8	-1E+10	1	-1E+10	1	-1E+10	1	-1E+10	1	-1E+10	1	-1E+10	1
4902554	40	C	03/13/2022	05:04	-136.152	49.465	0	329.00	0	4.5790	0	33.8810	0	26.838	0	325.936	0	-1e10	8	-1e10	8	-1E+10	1	-1E+10	1	-1E+10	1	-1E+10	1	-1E+10	1	-1E+10	1
4902554	40	C	03/13/2022	05:04	-136.152	49.465	0	329.90	0	4.5780	0	33.8810	0	26.838	0	326.827	0	-1e10	8	-1e10	8	-1E+10	1	-1E+10	1	-1E+10	1	-1E+10	1	-1E+10	1	-1E+10	1
4902554	40	C	03/13/2022	05:04	-136.152	49.465	0	330.70	0	4.5770	0	33.8810	0	26.838	0	327.619	0	-1e10	8	-1e10	8	-1E+10	1	-1E+10	1	-1E+10	1	-1E+10	1	-1E+10	1	-1E+10	1
4902554	40	C	03/13/2022	05:04	-136.152	49.465	0	331.90	0	4.5750	0	33.8810	0	26.838	0	328.807	0	-1e10	8	-1e10	8	-1E+10	1	-1E+10	1	-1E+10	1	-1E+10	1	-1E+10	1	-1E+10	1
4902554	40	C	03/13/2022	05:04	-136.152	49.465	0	333.20	0	4.5720	0	33.8830	0	26.840	0	330.094	0	-1e10	8	-1e10	8	-1E+10	1	-1E+10	1	-1E+10	1	-1E+10	1	-1E+10	1	-1E+10	1
4902554	40	C	03/13/2022	05:04	-136.152	49.465	0	334.00	0	4.5700	0	33.8840	0	26.841	0	330.885	0	-1e10	8	-1e10	8	-1E+10	1	-1E+10	1	-1E+10	1	-1E+10	1	-1E+10	1	-1E+10	1
4902554	40	C	03/13/2022	05:04	-136.152	49.465	0	334.90	0	4.5680	0	33.8840	0	26.841	0	331.776	0	-1e10	8	-1e10	8	-1E+10	1	-1E+10	1	-1E+10	1	-1E+10	1	-1E+10	1	-1E+10	1
4902554	40	C	03/13/2022	05:04	-136.152	49.465	0	335.70	0	4.5640	0	33.8860	0	26.843	0	332.568	0	-1e10	8	-1e10	8	-1E+10	1	-1E+10	1	-1E+10	1	-1E+10	1	-1E+10	1	-1E+10	1
4902554	40	C	03/13/2022	05:04	-136.152	49.465	0	336.90	0	4.5560	0	33.8880	0	26.846	0	333.756	0	-1e10	8	-1e10	8	-1E+10	1	-1E+10	1	-1E+10	1	-1E+10	1	-1E+10	1	-1E+10	1
4902554	40	C	03/13/2022	05:04	-136.152	49.465	0	338.20	0	4.5520	0	33.8900	0	26.848	0	335.043	0	-1e10	8	-1e10	8	-1E+10	1	-1E+10	1	-1E+10	1	-1E+10	1	-1E+10	1	-1E+10	1
4902554	40	C	03/13/2022	05:04	-136.152	49.465	0	339.00	0	4.5490	0	33.8900	0	26.848	0	335.835	0	-1e10	8	-1e10	8	-1E+10	1	-1E+10	1	-1E+10	1	-1E+10	1	-1E+10	1	-1E+10	1
4902554	40	C	03/13/2022	05:04	-136.152	49.465	0	339.80	0	4.5450	8	33.8910	8	26.849	0	336.627	0	-1e10	8	-1e10	8	-1E+10	1	-1E+10	1	-1E+10	1	-1E+10	1	-1E+10	1	-1E+10	1
4902554	40	C	03/13/2022	05:04	-136.152	49.465	0	340.70	0	4.5380	8	33.4030	8	26.463	0	337.517	0	-1e10	8	-1e10	8	-1E+10	1	-1E+10	1	-1E+10	1	-1E+10	1	-1E+10	1	-1E+10	1
4902554	40	C	03/13/2022	05:04	-136.152	49.465	0	341.90	0	4.5340	0	33.4300	0	26.485	0	338.705	0	-1e10	8	-1e10	8	-1E+10	1	-1E+10	1	-1E+10	1	-1E+10	1	-1E+10	1	-1E+10	1
4902554	40	C	03/13/2022	05:04	-136.152	49.465	0	343.20	0	4.5310	0	33.4550	0	26.505	0	339.992	0	-1e10	8	-1e10	8	-1E+10	1	-1E+10	1	-1E+10	1	-1E+10	1	-1E+10	1	-1E+10	1
4902554	40	C	03/13/2022	05:04	-136.152	49.465	0	344.00	0	4.5280	0	33.4730	0	26.519	0	340.784	0	-1e10	8	-1e10	8	-1E+10	1	-1E+10	1	-1E+10	1	-1E+10	1	-1E+10	1	-1E+10	1
4902554	40	C	03/13/2022	05:04	-136.152	49.465	0	344.90	0	4.5260	0	33.4960	0	26.538	0	341.675	0	-1e10	8	-1e10	8	-1E+10	1	-1E+10	1	-1E+10	1	-1E+10	1	-1E+10	1	-1E+10	1
4902554	40	C	03/13/2022	05:04	-136.152	49.465	0	345.70	0	4.5250	0	33.5250	0	26.561	0	342.467	0	-1e10	8	-1e10	8	-1E+10	1	-1E+10	1	-1E+10	1	-1E+10	1	-1E+10	1	-1E+10	1
4902554	40	C	03/13/2022	05:04	-136.152	49.465	0	346.90	0	4.5210	0	33.5640	0	26.592	0	343.654	0	-1e10	8	-1e10	8	-1E+10	1	-1E+10	1	-1E+10	1	-1E+10	1	-1E+10	1	-1E+10	1
4902554	40	C	03/13/2022	05:04	-136.152	49.465	0	348.20	0	4.5190	0	33.5990	0	26.620	0	344.941	0	-1e10	8	-1e10	8	-1E+10	1	-1E+10	1	-1E+10	1	-1E+10	1	-1E+10	1	-1E+10	1
4902554	40	C	03/13/2022	05:04	-136.152	49.465	0	349.00	0	4.5170	0	33.6210	0	26.638	0	345.733	0	-1e10	8	-1e10	8	-1E+10	1	-1E+10	1	-1E+10	1	-1E+10	1	-1E+10	1	-1E+10	1
4902554	40	C	03/13/2022	05:04	-136.152	49.465	0	349.90	0	4.5170	0	33.6420	0	26.655	0	346.624	0	-1e10	8	-1e10	8	-1E+10	1	-1E+10	1	-1E+10	1	-1E+10	1	-1E+10	1	-1E+10	1
4902554	40	C	03/13/2022	05:04	-136.152	49.465	0	352.70	0	4.5140	0	33.7860	0	26.770	0	349.395	0	-1e10	8	-1e10	8	-1E+10	1	-1E+10	1	-1E+10	1	-1E+10	1	-1E+10	1	-1E+10	1
4902554	40	C	03/13/2022	05:04	-136.152	49.465	0	357.90	0	4.4970	0	33.9100	0	26.870	0	354.542	0	-1e10	8	-1e10	8	-1E+10	1	-1E+10	1	-1E+10	1	-1E+10	1	-1E+10	1	-1E+10	1
4902554	40	C	03/13/2022	05:04	-136.152	49.465	0	362.80	0	4.4860	0	33.9150	0	26.875	0	359.392	0	-1e10	8	-1e10	8	-1E+10	1	-1E+10	1	-1E+10	1	-1E+10	1	-1E+10	1	-1E+10	1
4902554	40	C	03/13/2022	05:04	-136.152	49.465	0	367.60	0	4.4790	0	33.9200	0	26.880	0	364.143	0	-1e10	8	-1e10	8	-1E+10	1	-1E+10	1	-1E+10	1	-1E+10	1	-1E+10	1	-1E+10	1
4902554	40	C	03/13/2022	05:04	-136.152	49.465	0	373.00	0	4.4690	0	33.9270	0	26.886	0	369.487	0	-1e10	8	-1e10	8	-1E+10	1	-1E+10	1	-1E+10	1	-1E+10	1	-1E+10	1	-1E+10	1
4902554	40	C	03/13/2022	05:04	-136.152	49.465	0	378.10	0	4.4530	0	33.9340	0	26.894	0	374.534	0	-1e10	8	-1e10	8	-1E+10	1	-1E+10	1	-1E+10	1	-1E+10	1	-1E+10	1	-1E+10	1
4902554	40	C	03/13/2022	05:04	-136.152	49.465	0	383.10	0	4.4340	0	33.9450	0	26.905	0	379.483	0	-1e10	8	-1e10	8	-1E+10	1	-1E+10	1	-1E+10	1	-1E+10	1	-1E+10	1	-1E+10	1
4902554	40	C	03/13/2022	05:04	-136.152	49.465	0	388.10	0	4.4230	0	33.9540	0	26.913	0	384.431	0	-1e10	8	-1e10	8	-1E+10	1	-1E+10	1	-1E+10	1	-1E+10	1	-1E+10	1	-1E+10	1
4902554	40	C	03/13/2022	05:04	-136.152	49.465	0	392.70	0	4.4140	0	33.9600	0	26.919	0	388.983	0	-1e10	8	-1e10	8	-1E+10	1	-1E+10	1	-1E+10	1	-1E+10	1	-1E+10	1	-1E+10	1
4902554	40	C	03/13/2022	05:04	-136.152	49.465	0	397.80	0	4.4000	0	33.9660	0	26.925	0	394.030	0	-1e10	8	-1e10	8	-1E+10	1	-1E+10	1	-1E+10	1	-1E+10	1	-1E+10	1	-1E+10	1
4902554	40	C	03/13/2022	05:04	-136.152	49.465	0	403.00	0	4.3750	0	33.9770	0	26.936	0	399.176	0	-1e10	8	-1e10	8	-1E+10	1	-1E+10	1	-1E+10	1	-1E+10	1	-1E+10	1	-1E+10	1
4902554	40	C	03/13/2022	05:04	-136.152	49.465	0	407.70	0	4.3640	0	33.9820	0	26.942	0	403.826	0	-1e10	8	-1e10	8	-1E+10	1	-1E+10	1	-1E+10	1	-1E+10	1	-1E+10	1	-1E+10	1
4902554	40	C	03/13/2022	05:04	-136.152	49.465	0	412.90	0	4.3420	0	33.9900	0	26.950	0	408.972	0	-1e10	8	-1e10	8	-1E+10	1	-1E+10	1	-1E+10	1	-1E+10	1	-1E+10	1	-1E+10	1
4902554	40	C	03/13/2022	05:04	-136.152	49.465	0	418.20	0	4.3290	0	33.9960	0	26.957	0	414.216	0	-1e10	8	-1e10	8	-1E+10	1	-1E+10	1	-1E+10	1	-1E+10	1	-1E+10	1	-1E+10	1
4902554	40	C	03/13/2022	05:04	-136.152	49.465	0	422.90	0	4.3200	0	34.0010	0	26.962	0	418.867	0	-1e10	8	-1e10	8	-1E+10	1	-1E+10	1	-1E+10	1	-1E+10	1	-1E+10	1	-1E+10	1
4902554	40	C	03/13/2022	05:04	-136.152	49.465	0	427.70	0	4.3130	0	34.0070	0	26.967	0	423.616	0	-1e10	8	-1e10	8	-1E+10	1	-1E+10	1	-1E+10	1	-1E+10	1	-1E+10	1	-1E+10	1
4902554	40	C	03/13/2022	05:04	-136.152	49.465	0	433.00	0	4.3020	0	34.0110	0	26.971	0	428.860	0	-1e10	8	-1e10	8	-1E+10	1	-1E+10	1	-1E+10	1	-1E+10	1	-1E+10	1	-1E+10	1
4902554	40	C	03/13/2022	05:04	-136.152	49.465	0	438.20	0	4.2930	0	34.0170	0	26.977	0	434.005	0	-1e10	8	-1e10	8	-1E+10	1	-1E+10	1	-1E+10	1	-1E+10	1	-1E+10	1	-1E+10	1
4902554	40	C	03/13/2022	05:04	-136.152	49.465	0	443.00	0	4.2840	0	34.0240	0	26.984	0	438.754	0	-1e10	8	-1e10	8	-1E+10	1	-1E+10	1	-1E+10	1	-1E+10	1	-1E+10	1	-1E+10	1
4902554	40	C	03/13/2022	05:04	-136.152	49.465	0	447.90	0	4.2710	0	34.0300	0	26.990	0	443.602	0	-1e10	8	-1e10	8	-1E+10	1	-1E+10	1	-1E+10	1	-1E+10	1	-1E+10	1	-1E+10	1
4902554	40	C	03/13/2022	05:04	-136.152	49.465	0	452.70	0	4.2640	0	34.0360	0	26.995	0	448.350	0	-1e10	8	-1e10	8	-1E+10	1	-1E+10	1	-1E+10	1	-1E+10	1	-1E+10	1	-1E+10	1
4902554	40	C	03/13/2022	05:04	-136.152	49.465	0	457.60	0	4.2480	0	34.0430	0	27.003	0	453.198	0	-1e10	8	-1e10	8	-1E+10	1	-1E+10	1	-1E+10	1	-1E+10	1	-1E+10	1	-1E+10	1
4902554	40	C	03/13/2022	05:04	-136.152	49.465	0	462.60	0	4.2410	0	34.0490	0	27.008	0	458.144	0	-1e10	8	-1e10	8	-1E+10	1	-1E+10	1	-1E+10	1	-1E+10	1	-1E+10	1	-1E+10	1
4902554	40	C	03/13/2022	05:04	-136.152	49.465	0	467.50	0	4.2330	0	34.0570	0	27.015	0	462.992	0	-1e10	8	-1e10	8	-1E+10	1	-1E+10	1	-1E+10	1	-1E+10	1	-1E+10	1	-1E+10	1
4902554	40	C	03/13/2022	05:04	-136.152	49.465	0	472.60	0	4.2230	0	34.0630	0	27.021	0	468.037	0	-1e10	8	-1e10	8	-1E+10	1	-1E+10	1	-1E+10	1	-1E+10	1	-1E+10	1	-1E+10	1
4902554	40	C	03/13/2022	05:04	-136.152	49.465	0	477.70	0	4.2170	0	34.0670	0	27.025	0	473.082	0	-1e10	8	-1e10	8	-1E+10	1	-1E+10	1	-1E+10	1	-1E+10	1	-1E+10	1	-1E+10	1
4902554	40	C	03/13/2022	05:04	-136.152	49.465	0	483.10	0	4.2100	0	34.0690	0	27.028	0	478.423	0	-1e10	8	-1e10	8	-1E+10	1	-1E+10	1	-1E+10	1	-1E+10	1	-1E+10	1	-1E+10	1
4902554	40	C	03/13/2022	05:04	-136.152	49.465	0	488.00	0	4.1890	0	34.0700	0	27.031	0	483.270	0	-1e10	8	-1e10	8	-1E+10	1	-1E+10	1	-1E+10	1	-1E+10	1	-1E+10	1	-1E+10	1
4902554	40	C	03/13/2022	05:04	-136.152	49.465	0	492.80	0	4.1770	0	34.0790	0	27.039	0	488.018	0	-1e10	8	-1e10	8	-1E+10	1	-1E+10	1	-1E+10	1	-1E+10	1	-1E+10	1	-1E+10	1
4902554	40	C	03/13/2022	05:04	-136.152	49.465	0	498.00	0	4.1670	0	34.0820	0	27.042	0	493.161	0	-1e10	8	-1e10	8	-1E+10	1	-1E+10	1	-1E+10	1	-1E+10	1	-1E+10	1	-1E+10	1
4902554	40	C	03/13/2022	05:04	-136.152	49.465	0	502.90	0	4.1480	0	34.0860	0	27.048	0	498.008	0	-1e10	8	-1e10	8	-1E+10	1	-1E+10	1	-1E+10	1	-1E+10	1	-1E+10	1	-1E+10	1
4902554	40	C	03/13/2022	05:04	-136.152	49.465	0	507.60	0	4.1340	0	34.0890	0	27.052	0	502.656	0	-1e10	8	-1e10	8	-1E+10	1	-1E+10	1	-1E+10	1	-1E+10	1	-1E+10	1	-1E+10	1
4902554	40	C	03/13/2022	05:04	-136.152	49.465	0	512.80	0	4.1310	0	34.0950	0	27.057	0	507.799	0	-1e10	8	-1e10	8	-1E+10	1	-1E+10	1	-1E+10	1	-1E+10	1	-1E+10	1	-1E+10	1
4902554	40	C	03/13/2022	05:04	-136.152	49.465	0	518.10	0	4.1210	0	34.1010	0	27.063	0	513.041	0	-1e10	8	-1e10	8	-1E+10	1	-1E+10	1	-1E+10	1	-1E+10	1	-1E+10	1	-1E+10	1
4902554	40	C	03/13/2022	05:04	-136.152	49.465	0	523.10	0	4.1090	0	34.1060	0	27.068	0	517.986	0	-1e10	8	-1e10	8	-1E+10	1	-1E+10	1	-1E+10	1	-1E+10	1	-1E+10	1	-1E+10	1
4902554	40	C	03/13/2022	05:04	-136.152	49.465	0	527.80	0	4.1030	0	34.1090	0	27.071	0	522.634	0	-1e10	8	-1e10	8	-1E+10	1	-1E+10	1	-1E+10	1	-1E+10	1	-1E+10	1	-1E+10	1
4902554	40	C	03/13/2022	05:04	-136.152	49.465	0	533.00	0	4.0940	0	34.1140	0	27.076	0	527.777	0	-1e10	8	-1e10	8	-1E+10	1	-1E+10	1	-1E+10	1	-1E+10	1	-1E+10	1	-1E+10	1
4902554	40	C	03/13/2022	05:04	-136.152	49.465	0	538.30	0	4.0780	0	34.1160	0	27.079	0	533.018	0	-1e10	8	-1e10	8	-1E+10	1	-1E+10	1	-1E+10	1	-1E+10	1	-1E+10	1	-1E+10	1
4902554	40	C	03/13/2022	05:04	-136.152	49.465	0	543.20	0	4.0770	0	34.1210	0	27.083	0	537.864	0	-1e10	8	-1e10	8	-1E+10	1	-1E+10	1	-1E+10	1	-1E+10	1	-1E+10	1	-1E+10	1
4902554	40	C	03/13/2022	05:04	-136.152	49.465	0	548.10	0	4.0720	0	34.1230	0	27.085	0	542.709	0	-1e10	8	-1e10	8	-1E+10	1	-1E+10	1	-1E+10	1	-1E+10	1	-1E+10	1	-1E+10	1
4902554	40	C	03/13/2022	05:04	-136.152	49.465	0	553.00	0	4.0650	0	34.1270	0	27.089	0	547.554	0	-1e10	8	-1e10	8	-1E+10	1	-1E+10	1	-1E+10	1	-1E+10	1	-1E+10	1	-1E+10	1
4902554	40	C	03/13/2022	05:04	-136.152	49.465	0	557.90	0	4.0560	0	34.1320	0	27.094	0	552.400	0	-1e10	8	-1e10	8	-1E+10	1	-1E+10	1	-1E+10	1	-1E+10	1	-1E+10	1	-1E+10	1
4902554	40	C	03/13/2022	05:04	-136.152	49.465	0	562.80	0	4.0440	0	34.1350	0	27.098	0	557.245	0	-1e10	8	-1e10	8	-1E+10	1	-1E+10	1	-1E+10	1	-1E+10	1	-1E+10	1	-1E+10	1
4902554	40	C	03/13/2022	05:04	-136.152	49.465	0	567.80	0	4.0300	0	34.1380	0	27.102	0	562.189	0	-1e10	8	-1e10	8	-1E+10	1	-1E+10	1	-1E+10	1	-1E+10	1	-1E+10	1	-1E+10	1
4902554	40	C	03/13/2022	05:04	-136.152	49.465	0	572.80	0	4.0180	0	34.1420	0	27.106	0	567.132	0	-1e10	8	-1e10	8	-1E+10	1	-1E+10	1	-1E+10	1	-1E+10	1	-1E+10	1	-1E+10	1
4902554	40	C	03/13/2022	05:04	-136.152	49.465	0	577.70	0	4.0060	0	34.1480	0	27.112	0	571.977	0	-1e10	8	-1e10	8	-1E+10	1	-1E+10	1	-1E+10	1	-1E+10	1	-1E+10	1	-1E+10	1
4902554	40	C	03/13/2022	05:04	-136.152	49.465	0	582.60	0	3.9960	0	34.1520	0	27.116	0	576.822	0	-1e10	8	-1e10	8	-1E+10	1	-1E+10	1	-1E+10	1	-1E+10	1	-1E+10	1	-1E+10	1
4902554	40	C	03/13/2022	05:04	-136.152	49.465	0	587.60	0	3.9840	0	34.1560	0	27.121	0	581.765	0	-1e10	8	-1e10	8	-1E+10	1	-1E+10	1	-1E+10	1	-1E+10	1	-1E+10	1	-1E+10	1
4902554	40	C	03/13/2022	05:04	-136.152	49.465	0	592.50	0	3.9750	0	34.1580	0	27.123	0	586.610	0	-1e10	8	-1e10	8	-1E+10	1	-1E+10	1	-1E+10	1	-1E+10	1	-1E+10	1	-1E+10	1
4902554	40	C	03/13/2022	05:04	-136.152	49.465	0	597.90	0	3.9660	0	34.1600	0	27.126	0	591.948	0	-1e10	8	-1e10	8	-1E+10	1	-1E+10	1	-1E+10	1	-1E+10	1	-1E+10	1	-1E+10	1
4902554	40	C	03/13/2022	05:04	-136.152	49.465	0	603.30	0	3.9540	0	34.1640	0	27.130	0	597.287	0	-1e10	8	-1e10	8	-1E+10	1	-1E+10	1	-1E+10	1	-1E+10	1	-1E+10	1	-1E+10	1
4902554	40	C	03/13/2022	05:04	-136.152	49.465	0	608.30	0	3.9450	0	34.1670	0	27.134	0	602.230	0	-1e10	8	-1e10	8	-1E+10	1	-1E+10	1	-1E+10	1	-1E+10	1	-1E+10	1	-1E+10	1
4902554	40	C	03/13/2022	05:04	-136.152	49.465	0	613.10	0	3.9370	0	34.1700	0	27.137	0	606.975	0	-1e10	8	-1e10	8	-1E+10	1	-1E+10	1	-1E+10	1	-1E+10	1	-1E+10	1	-1E+10	1
4902554	40	C	03/13/2022	05:04	-136.152	49.465	0	617.90	0	3.9230	0	34.1740	0	27.142	0	611.720	0	-1e10	8	-1e10	8	-1E+10	1	-1E+10	1	-1E+10	1	-1E+10	1	-1E+10	1	-1E+10	1
4902554	40	C	03/13/2022	05:04	-136.152	49.465	0	622.70	0	3.9030	0	34.1810	0	27.149	0	616.465	0	-1e10	8	-1e10	8	-1E+10	1	-1E+10	1	-1E+10	1	-1E+10	1	-1E+10	1	-1E+10	1
4902554	40	C	03/13/2022	05:04	-136.152	49.465	0	627.80	0	3.8910	0	34.1850	0	27.154	0	621.506	0	-1e10	8	-1e10	8	-1E+10	1	-1E+10	1	-1E+10	1	-1E+10	1	-1E+10	1	-1E+10	1
4902554	40	C	03/13/2022	05:04	-136.152	49.465	0	633.00	0	3.8800	0	34.1870	0	27.156	0	626.646	0	-1e10	8	-1e10	8	-1E+10	1	-1E+10	1	-1E+10	1	-1E+10	1	-1E+10	1	-1E+10	1
4902554	40	C	03/13/2022	05:04	-136.152	49.465	0	637.70	0	3.8700	0	34.1900	0	27.160	0	631.292	0	-1e10	8	-1e10	8	-1E+10	1	-1E+10	1	-1E+10	1	-1E+10	1	-1E+10	1	-1E+10	1
4902554	40	C	03/13/2022	05:04	-136.152	49.465	0	642.80	0	3.8630	0	34.1920	0	27.162	0	636.333	0	-1e10	8	-1e10	8	-1E+10	1	-1E+10	1	-1E+10	1	-1E+10	1	-1E+10	1	-1E+10	1
4902554	40	C	03/13/2022	05:04	-136.152	49.465	0	648.00	0	3.8520	0	34.1950	0	27.166	0	641.473	0	-1e10	8	-1e10	8	-1E+10	1	-1E+10	1	-1E+10	1	-1E+10	1	-1E+10	1	-1E+10	1
4902554	40	C	03/13/2022	05:04	-136.152	49.465	0	652.70	0	3.8500	0	34.1960	0	27.167	0	646.118	0	-1e10	8	-1e10	8	-1E+10	1	-1E+10	1	-1E+10	1	-1E+10	1	-1E+10	1	-1E+10	1
4902554	40	C	03/13/2022	05:04	-136.152	49.465	0	657.90	0	3.8390	0	34.1980	0	27.169	0	651.257	0	-1e10	8	-1e10	8	-1E+10	1	-1E+10	1	-1E+10	1	-1E+10	1	-1E+10	1	-1E+10	1
4902554	40	C	03/13/2022	05:04	-136.152	49.465	0	663.10	0	3.8230	0	34.2020	0	27.174	0	656.397	0	-1e10	8	-1e10	8	-1E+10	1	-1E+10	1	-1E+10	1	-1E+10	1	-1E+10	1	-1E+10	1
4902554	40	C	03/13/2022	05:04	-136.152	49.465	0	667.90	0	3.8140	0	34.2050	0	27.178	0	661.141	0	-1e10	8	-1e10	8	-1E+10	1	-1E+10	1	-1E+10	1	-1E+10	1	-1E+10	1	-1E+10	1
4902554	40	C	03/13/2022	05:04	-136.152	49.465	0	672.70	0	3.8010	0	34.2080	0	27.181	0	665.884	0	-1e10	8	-1e10	8	-1E+10	1	-1E+10	1	-1E+10	1	-1E+10	1	-1E+10	1	-1E+10	1
4902554	40	C	03/13/2022	05:04	-136.152	49.465	0	678.00	0	3.7840	0	34.2120	0	27.186	0	671.122	0	-1e10	8	-1e10	8	-1E+10	1	-1E+10	1	-1E+10	1	-1E+10	1	-1E+10	1	-1E+10	1
4902554	40	C	03/13/2022	05:04	-136.152	49.465	0	683.30	0	3.7700	0	34.2160	0	27.191	0	676.360	0	-1e10	8	-1e10	8	-1E+10	1	-1E+10	1	-1E+10	1	-1E+10	1	-1E+10	1	-1E+10	1
4902554	40	C	03/13/2022	05:04	-136.152	49.465	0	688.00	0	3.7640	0	34.2170	0	27.192	0	681.004	0	-1e10	8	-1e10	8	-1E+10	1	-1E+10	1	-1E+10	1	-1E+10	1	-1E+10	1	-1E+10	1
4902554	40	C	03/13/2022	05:04	-136.152	49.465	0	692.90	0	3.7510	0	34.2200	0	27.196	0	685.847	0	-1e10	8	-1e10	8	-1E+10	1	-1E+10	1	-1E+10	1	-1E+10	1	-1E+10	1	-1E+10	1
4902554	40	C	03/13/2022	05:04	-136.152	49.465	0	698.00	0	3.7430	0	34.2220	0	27.198	0	690.886	0	-1e10	8	-1e10	8	-1E+10	1	-1E+10	1	-1E+10	1	-1E+10	1	-1E+10	1	-1E+10	1
4902554	40	C	03/13/2022	05:04	-136.152	49.465	0	702.80	0	3.7230	0	34.2260	0	27.203	0	695.629	0	-1e10	8	-1e10	8	-1E+10	1	-1E+10	1	-1E+10	1	-1E+10	1	-1E+10	1	-1E+10	1
4902554	40	C	03/13/2022	05:04	-136.152	49.465	0	707.80	0	3.7140	0	34.2290	0	27.207	0	700.570	0	-1e10	8	-1e10	8	-1E+10	1	-1E+10	1	-1E+10	1	-1E+10	1	-1E+10	1	-1E+10	1
4902554	40	C	03/13/2022	05:04	-136.152	49.465	0	712.80	0	3.7020	0	34.2320	0	27.210	0	705.510	0	-1e10	8	-1e10	8	-1E+10	1	-1E+10	1	-1E+10	1	-1E+10	1	-1E+10	1	-1E+10	1
4902554	40	C	03/13/2022	05:04	-136.152	49.465	0	717.90	0	3.6920	0	34.2340	0	27.213	0	710.549	0	-1e10	8	-1e10	8	-1E+10	1	-1E+10	1	-1E+10	1	-1E+10	1	-1E+10	1	-1E+10	1
4902554	40	C	03/13/2022	05:04	-136.152	49.465	0	722.80	0	3.6820	0	34.2360	0	27.216	0	715.391	0	-1e10	8	-1e10	8	-1E+10	1	-1E+10	1	-1E+10	1	-1E+10	1	-1E+10	1	-1E+10	1
4902554	40	C	03/13/2022	05:04	-136.152	49.465	0	727.70	0	3.6650	0	34.2410	0	27.221	0	720.232	0	-1e10	8	-1e10	8	-1E+10	1	-1E+10	1	-1E+10	1	-1E+10	1	-1E+10	1	-1E+10	1
4902554	40	C	03/13/2022	05:04	-136.152	49.465	0	732.80	0	3.6510	0	34.2440	0	27.225	0	725.271	0	-1e10	8	-1e10	8	-1E+10	1	-1E+10	1	-1E+10	1	-1E+10	1	-1E+10	1	-1E+10	1
4902554	40	C	03/13/2022	05:04	-136.152	49.465	0	738.00	0	3.6400	0	34.2470	0	27.229	0	730.408	0	-1e10	8	-1e10	8	-1E+10	1	-1E+10	1	-1E+10	1	-1E+10	1	-1E+10	1	-1E+10	1
4902554	40	C	03/13/2022	05:04	-136.152	49.465	0	743.20	0	3.6370	0	34.2480	0	27.230	0	735.546	0	-1e10	8	-1e10	8	-1E+10	1	-1E+10	1	-1E+10	1	-1E+10	1	-1E+10	1	-1E+10	1
4902554	40	C	03/13/2022	05:04	-136.152	49.465	0	748.10	0	3.6200	0	34.2520	0	27.235	0	740.387	0	-1e10	8	-1e10	8	-1E+10	1	-1E+10	1	-1E+10	1	-1E+10	1	-1E+10	1	-1E+10	1
4902554	40	C	03/13/2022	05:04	-136.152	49.465	0	753.00	0	3.6120	0	34.2540	0	27.237	0	745.227	0	-1e10	8	-1e10	8	-1E+10	1	-1E+10	1	-1E+10	1	-1E+10	1	-1E+10	1	-1E+10	1
4902554	40	C	03/13/2022	05:04	-136.152	49.465	0	758.00	0	3.6050	0	34.2560	0	27.239	0	750.167	0	-1e10	8	-1e10	8	-1E+10	1	-1E+10	1	-1E+10	1	-1E+10	1	-1E+10	1	-1E+10	1
4902554	40	C	03/13/2022	05:04	-136.152	49.465	0	763.10	0	3.5910	0	34.2590	0	27.243	0	755.205	0	-1e10	8	-1e10	8	-1E+10	1	-1E+10	1	-1E+10	1	-1E+10	1	-1E+10	1	-1E+10	1
4902554	40	C	03/13/2022	05:04	-136.152	49.465	0	768.10	0	3.5750	0	34.2620	0	27.247	0	760.144	0	-1e10	8	-1e10	8	-1E+10	1	-1E+10	1	-1E+10	1	-1E+10	1	-1E+10	1	-1E+10	1
4902554	40	C	03/13/2022	05:04	-136.152	49.465	0	773.20	0	3.5620	0	34.2650	0	27.251	0	765.182	0	-1e10	8	-1e10	8	-1E+10	1	-1E+10	1	-1E+10	1	-1E+10	1	-1E+10	1	-1E+10	1
4902554	40	C	03/13/2022	05:04	-136.152	49.465	0	778.20	0	3.5510	0	34.2670	0	27.253	0	770.121	0	-1e10	8	-1e10	8	-1E+10	1	-1E+10	1	-1E+10	1	-1E+10	1	-1E+10	1	-1E+10	1
4902554	40	C	03/13/2022	05:04	-136.152	49.465	0	782.90	0	3.5420	0	34.2680	0	27.255	0	774.763	0	-1e10	8	-1e10	8	-1E+10	1	-1E+10	1	-1E+10	1	-1E+10	1	-1E+10	1	-1E+10	1
4902554	40	C	03/13/2022	05:04	-136.152	49.465	0	787.70	0	3.5330	0	34.2710	0	27.258	0	779.504	0	-1e10	8	-1e10	8	-1E+10	1	-1E+10	1	-1E+10	1	-1E+10	1	-1E+10	1	-1E+10	1
4902554	40	C	03/13/2022	05:04	-136.152	49.465	0	792.90	0	3.5250	0	34.2730	0	27.261	0	784.641	0	-1e10	8	-1e10	8	-1E+10	1	-1E+10	1	-1E+10	1	-1E+10	1	-1E+10	1	-1E+10	1
4902554	40	C	03/13/2022	05:04	-136.152	49.465	0	798.30	0	3.5170	0	34.2750	0	27.263	0	789.974	0	-1e10	8	-1e10	8	-1E+10	1	-1E+10	1	-1E+10	1	-1E+10	1	-1E+10	1	-1E+10	1
4902554	40	C	03/13/2022	05:04	-136.152	49.465	0	803.10	0	3.5090	0	34.2770	0	27.266	0	794.715	0	-1e10	8	-1e10	8	-1E+10	1	-1E+10	1	-1E+10	1	-1E+10	1	-1E+10	1	-1E+10	1
4902554	40	C	03/13/2022	05:04	-136.152	49.465	0	807.90	0	3.4960	0	34.2800	0	27.269	0	799.456	0	-1e10	8	-1e10	8	-1E+10	1	-1E+10	1	-1E+10	1	-1E+10	1	-1E+10	1	-1E+10	1
4902554	40	C	03/13/2022	05:04	-136.152	49.465	0	813.20	0	3.4750	0	34.2850	0	27.275	0	804.690	0	-1e10	8	-1e10	8	-1E+10	1	-1E+10	1	-1E+10	1	-1E+10	1	-1E+10	1	-1E+10	1
4902554	40	C	03/13/2022	05:04	-136.152	49.465	0	818.00	0	3.4640	0	34.2870	0	27.278	0	809.430	0	-1e10	8	-1e10	8	-1E+10	1	-1E+10	1	-1E+10	1	-1E+10	1	-1E+10	1	-1E+10	1
4902554	40	C	03/13/2022	05:04	-136.152	49.465	0	822.90	0	3.4460	0	34.2900	0	27.282	0	814.270	0	-1e10	8	-1e10	8	-1E+10	1	-1E+10	1	-1E+10	1	-1E+10	1	-1E+10	1	-1E+10	1
4902554	40	C	03/13/2022	05:04	-136.152	49.465	0	827.80	0	3.4320	0	34.2930	0	27.286	0	819.109	0	-1e10	8	-1e10	8	-1E+10	1	-1E+10	1	-1E+10	1	-1E+10	1	-1E+10	1	-1E+10	1
4902554	40	C	03/13/2022	05:04	-136.152	49.465	0	832.70	0	3.4210	0	34.2960	0	27.289	0	823.948	0	-1e10	8	-1e10	8	-1E+10	1	-1E+10	1	-1E+10	1	-1E+10	1	-1E+10	1	-1E+10	1
4902554	40	C	03/13/2022	05:04	-136.152	49.465	0	838.10	0	3.4040	0	34.2980	0	27.293	0	829.280	0	-1e10	8	-1e10	8	-1E+10	1	-1E+10	1	-1E+10	1	-1E+10	1	-1E+10	1	-1E+10	1
4902554	40	C	03/13/2022	05:04	-136.152	49.465	0	843.00	0	3.3940	0	34.3000	0	27.295	0	834.119	0	-1e10	8	-1e10	8	-1E+10	1	-1E+10	1	-1E+10	1	-1E+10	1	-1E+10	1	-1E+10	1
4902554	40	C	03/13/2022	05:04	-136.152	49.465	0	847.90	0	3.3810	0	34.3020	0	27.298	0	838.957	0	-1e10	8	-1e10	8	-1E+10	1	-1E+10	1	-1E+10	1	-1E+10	1	-1E+10	1	-1E+10	1
4902554	40	C	03/13/2022	05:04	-136.152	49.465	0	852.80	0	3.3720	0	34.3040	0	27.301	0	843.796	0	-1e10	8	-1e10	8	-1E+10	1	-1E+10	1	-1E+10	1	-1E+10	1	-1E+10	1	-1E+10	1
4902554	40	C	03/13/2022	05:04	-136.152	49.465	0	857.70	0	3.3580	0	34.3060	0	27.303	0	848.634	0	-1e10	8	-1e10	8	-1E+10	1	-1E+10	1	-1E+10	1	-1E+10	1	-1E+10	1	-1E+10	1
4902554	40	C	03/13/2022	05:04	-136.152	49.465	0	863.10	0	3.3360	0	34.3080	0	27.307	0	853.966	0	-1e10	8	-1e10	8	-1E+10	1	-1E+10	1	-1E+10	1	-1E+10	1	-1E+10	1	-1E+10	1
4902554	40	C	03/13/2022	05:04	-136.152	49.465	0	867.90	0	3.3300	0	34.3110	0	27.310	0	858.705	0	-1e10	8	-1e10	8	-1E+10	1	-1E+10	1	-1E+10	1	-1E+10	1	-1E+10	1	-1E+10	1
4902554	40	C	03/13/2022	05:04	-136.152	49.465	0	872.70	0	3.3230	0	34.3140	0	27.313	0	863.445	0	-1e10	8	-1e10	8	-1E+10	1	-1E+10	1	-1E+10	1	-1E+10	1	-1E+10	1	-1E+10	1
4902554	40	C	03/13/2022	05:04	-136.152	49.465	0	878.10	0	3.3080	0	34.3180	0	27.318	0	868.776	0	-1e10	8	-1e10	8	-1E+10	1	-1E+10	1	-1E+10	1	-1E+10	1	-1E+10	1	-1E+10	1
4902554	40	C	03/13/2022	05:04	-136.152	49.465	0	882.90	0	3.2950	0	34.3190	0	27.320	0	873.515	0	-1e10	8	-1e10	8	-1E+10	1	-1E+10	1	-1E+10	1	-1E+10	1	-1E+10	1	-1E+10	1
4902554	40	C	03/13/2022	05:04	-136.152	49.465	0	887.80	0	3.2850	0	34.3200	0	27.322	0	878.353	0	-1e10	8	-1e10	8	-1E+10	1	-1E+10	1	-1E+10	1	-1E+10	1	-1E+10	1	-1E+10	1
4902554	40	C	03/13/2022	05:04	-136.152	49.465	0	892.70	0	3.2760	0	34.3220	0	27.324	0	883.190	0	-1e10	8	-1e10	8	-1E+10	1	-1E+10	1	-1E+10	1	-1E+10	1	-1E+10	1	-1E+10	1
4902554	40	C	03/13/2022	05:04	-136.152	49.465	0	897.60	0	3.2580	0	34.3240	0	27.327	0	888.028	0	-1e10	8	-1e10	8	-1E+10	1	-1E+10	1	-1E+10	1	-1E+10	1	-1E+10	1	-1E+10	1
4902554	40	C	03/13/2022	05:04	-136.152	49.465	0	902.50	0	3.2420	0	34.3270	0	27.331	0	892.865	0	-1e10	8	-1e10	8	-1E+10	1	-1E+10	1	-1E+10	1	-1E+10	1	-1E+10	1	-1E+10	1
4902554	40	C	03/13/2022	05:04	-136.152	49.465	0	907.90	0	3.2300	0	34.3280	0	27.333	0	898.196	0	-1e10	8	-1e10	8	-1E+10	1	-1E+10	1	-1E+10	1	-1E+10	1	-1E+10	1	-1E+10	1
4902554	40	C	03/13/2022	05:04	-136.152	49.465	0	913.20	0	3.2210	0	34.3300	0	27.336	0	903.428	0	-1e10	8	-1e10	8	-1E+10	1	-1E+10	1	-1E+10	1	-1E+10	1	-1E+10	1	-1E+10	1
4902554	40	C	03/13/2022	05:04	-136.152	49.465	0	918.10	0	3.2140	0	34.3310	0	27.337	0	908.264	0	-1e10	8	-1e10	8	-1E+10	1	-1E+10	1	-1E+10	1	-1E+10	1	-1E+10	1	-1E+10	1
4902554	40	C	03/13/2022	05:04	-136.152	49.465	0	923.20	0	3.2010	0	34.3340	0	27.341	0	913.299	0	-1e10	8	-1e10	8	-1E+10	1	-1E+10	1	-1E+10	1	-1E+10	1	-1E+10	1	-1E+10	1
4902554	40	C	03/13/2022	05:04	-136.152	49.465	0	928.30	0	3.1900	0	34.3370	0	27.344	0	918.333	0	-1e10	8	-1e10	8	-1E+10	1	-1E+10	1	-1E+10	1	-1E+10	1	-1E+10	1	-1E+10	1
4902554	40	C	03/13/2022	05:04	-136.152	49.465	0	933.00	0	3.1810	0	34.3390	0	27.347	0	922.972	0	-1e10	8	-1e10	8	-1E+10	1	-1E+10	1	-1E+10	1	-1E+10	1	-1E+10	1	-1E+10	1
4902554	40	C	03/13/2022	05:04	-136.152	49.465	0	937.70	0	3.1680	0	34.3420	0	27.350	0	927.611	0	-1e10	8	-1e10	8	-1E+10	1	-1E+10	1	-1E+10	1	-1E+10	1	-1E+10	1	-1E+10	1
4902554	40	C	03/13/2022	05:04	-136.152	49.465	0	942.80	0	3.1600	0	34.3430	0	27.352	0	932.645	0	-1e10	8	-1e10	8	-1E+10	1	-1E+10	1	-1E+10	1	-1E+10	1	-1E+10	1	-1E+10	1
4902554	40	C	03/13/2022	05:04	-136.152	49.465	0	947.90	0	3.1470	0	34.3450	0	27.355	0	937.679	0	-1e10	8	-1e10	8	-1E+10	1	-1E+10	1	-1E+10	1	-1E+10	1	-1E+10	1	-1E+10	1
4902554	40	C	03/13/2022	05:04	-136.152	49.465	0	953.00	0	3.1280	0	34.3480	0	27.359	0	942.712	0	-1e10	8	-1e10	8	-1E+10	1	-1E+10	1	-1E+10	1	-1E+10	1	-1E+10	1	-1E+10	1
4902554	40	C	03/13/2022	05:04	-136.152	49.465	0	957.80	0	3.1230	0	34.3490	0	27.360	0	947.449	0	-1e10	8	-1e10	8	-1E+10	1	-1E+10	1	-1E+10	1	-1E+10	1	-1E+10	1	-1E+10	1
4902554	40	C	03/13/2022	05:04	-136.152	49.465	0	962.60	0	3.1130	0	34.3520	0	27.364	0	952.187	0	-1e10	8	-1e10	8	-1E+10	1	-1E+10	1	-1E+10	1	-1E+10	1	-1E+10	1	-1E+10	1
4902554	40	C	03/13/2022	05:04	-136.152	49.465	0	968.00	0	3.1020	0	34.3530	0	27.365	0	957.516	0	-1e10	8	-1e10	8	-1E+10	1	-1E+10	1	-1E+10	1	-1E+10	1	-1E+10	1	-1E+10	1
4902554	40	C	03/13/2022	05:04	-136.152	49.465	0	972.90	0	3.0970	0	34.3550	0	27.367	0	962.352	0	-1e10	8	-1e10	8	-1E+10	1	-1E+10	1	-1E+10	1	-1E+10	1	-1E+10	1	-1E+10	1
4902554	40	C	03/13/2022	05:04	-136.152	49.465	0	977.70	0	3.0870	0	34.3560	0	27.369	0	967.088	0	-1e10	8	-1e10	8	-1E+10	1	-1E+10	1	-1E+10	1	-1E+10	1	-1E+10	1	-1E+10	1
4902554	40	C	03/13/2022	05:04	-136.152	49.465	0	983.10	0	3.0700	0	34.3590	0	27.373	0	972.417	0	-1e10	8	-1e10	8	-1E+10	1	-1E+10	1	-1E+10	1	-1E+10	1	-1E+10	1	-1E+10	1
4902554	40	C	03/13/2022	05:04	-136.152	49.465	0	988.00	0	3.0640	0	34.3600	0	27.375	0	977.253	0	-1e10	8	-1e10	8	-1E+10	1	-1E+10	1	-1E+10	1	-1E+10	1	-1E+10	1	-1E+10	1
4902554	40	C	03/13/2022	05:04	-136.152	49.465	0	992.90	0	3.0550	0	34.3620	0	27.377	0	982.088	0	-1e10	8	-1e10	8	-1E+10	1	-1E+10	1	-1E+10	1	-1E+10	1	-1E+10	1	-1E+10	1
4902554	40	C	03/13/2022	05:04	-136.152	49.465	0	997.80	0	3.0470	0	34.3640	0	27.379	0	986.923	0	-1e10	8	-1e10	8	-1E+10	1	-1E+10	1	-1E+10	1	-1E+10	1	-1E+10	1	-1E+10	1
4902554	40	C	03/13/2022	05:04	-136.152	49.465	0	1005.40	0	3.0290	0	34.3670	0	27.383	0	994.422	0	-1e10	8	-1e10	8	-1E+10	1	-1E+10	1	-1E+10	1	-1E+10	1	-1E+10	1	-1E+10	1
4902554	40	C	03/13/2022	05:04	-136.152	49.465	0	1015.70	0	3.0010	0	34.3720	0	27.390	0	1004.585	0	-1e10	8	-1e10	8	-1E+10	1	-1E+10	1	-1E+10	1	-1E+10	1	-1E+10	1	-1E+10	1
4902554	40	C	03/13/2022	05:04	-136.152	49.465	0	1025.60	0	2.9820	0	34.3760	0	27.395	0	1014.353	0	-1e10	8	-1e10	8	-1E+10	1	-1E+10	1	-1E+10	1	-1E+10	1	-1E+10	1	-1E+10	1
4902554	40	C	03/13/2022	05:04	-136.152	49.465	0	1035.30	0	2.9610	0	34.3800	0	27.400	0	1023.923	0	-1e10	8	-1e10	8	-1E+10	1	-1E+10	1	-1E+10	1	-1E+10	1	-1E+10	1	-1E+10	1
4902554	40	C	03/13/2022	05:04	-136.152	49.465	0	1045.20	0	2.9440	0	34.3830	0	27.404	0	1033.689	0	-1e10	8	-1e10	8	-1E+10	1	-1E+10	1	-1E+10	1	-1E+10	1	-1E+10	1	-1E+10	1
4902554	40	C	03/13/2022	05:04	-136.152	49.465	0	1055.20	0	2.9270	0	34.3880	0	27.410	0	1043.554	0	-1e10	8	-1e10	8	-1E+10	1	-1E+10	1	-1E+10	1	-1E+10	1	-1E+10	1	-1E+10	1
4902554	40	C	03/13/2022	05:04	-136.152	49.465	0	1065.50	0	2.9030	0	34.3930	0	27.416	0	1053.715	0	-1e10	8	-1e10	8	-1E+10	1	-1E+10	1	-1E+10	1	-1E+10	1	-1E+10	1	-1E+10	1
4902554	40	C	03/13/2022	05:04	-136.152	49.465	0	1075.20	0	2.8870	0	34.3950	0	27.419	0	1063.283	0	-1e10	8	-1e10	8	-1E+10	1	-1E+10	1	-1E+10	1	-1E+10	1	-1E+10	1	-1E+10	1
4902554	40	C	03/13/2022	05:04	-136.152	49.465	0	1085.10	0	2.8630	0	34.3990	0	27.424	0	1073.048	0	-1e10	8	-1e10	8	-1E+10	1	-1E+10	1	-1E+10	1	-1E+10	1	-1E+10	1	-1E+10	1
4902554	40	C	03/13/2022	05:04	-136.152	49.465	0	1095.40	0	2.8490	0	34.4030	0	27.429	0	1083.207	0	-1e10	8	-1e10	8	-1E+10	1	-1E+10	1	-1E+10	1	-1E+10	1	-1E+10	1	-1E+10	1
4902554	40	C	03/13/2022	05:04	-136.152	49.465	0	1105.60	0	2.8330	0	34.4060	0	27.433	0	1093.267	0	-1e10	8	-1e10	8	-1E+10	1	-1E+10	1	-1E+10	1	-1E+10	1	-1E+10	1	-1E+10	1
4902554	40	C	03/13/2022	05:04	-136.152	49.465	0	1115.70	0	2.8050	0	34.4110	0	27.439	0	1103.228	0	-1e10	8	-1e10	8	-1E+10	1	-1E+10	1	-1E+10	1	-1E+10	1	-1E+10	1	-1E+10	1
4902554	40	C	03/13/2022	05:04	-136.152	49.465	0	1125.50	0	2.7920	0	34.4130	0	27.442	0	1112.892	0	-1e10	8	-1e10	8	-1E+10	1	-1E+10	1	-1E+10	1	-1E+10	1	-1E+10	1	-1E+10	1
4902554	40	C	03/13/2022	05:04	-136.152	49.465	0	1135.50	0	2.7870	0	34.4150	0	27.444	0	1122.754	0	-1e10	8	-1e10	8	-1E+10	1	-1E+10	1	-1E+10	1	-1E+10	1	-1E+10	1	-1E+10	1
4902554	40	C	03/13/2022	05:04	-136.152	49.465	0	1145.70	0	2.7760	0	34.4170	0	27.447	0	1132.812	0	-1e10	8	-1e10	8	-1E+10	1	-1E+10	1	-1E+10	1	-1E+10	1	-1E+10	1	-1E+10	1
4902554	40	C	03/13/2022	05:04	-136.152	49.465	0	1155.50	0	2.7650	0	34.4190	0	27.449	0	1142.475	0	-1e10	8	-1e10	8	-1E+10	1	-1E+10	1	-1E+10	1	-1E+10	1	-1E+10	1	-1E+10	1
4902554	40	C	03/13/2022	05:04	-136.152	49.465	0	1165.60	0	2.7500	0	34.4220	0	27.453	0	1152.433	0	-1e10	8	-1e10	8	-1E+10	1	-1E+10	1	-1E+10	1	-1E+10	1	-1E+10	1	-1E+10	1
4902554	40	C	03/13/2022	05:04	-136.152	49.465	0	1175.50	0	2.7270	0	34.4260	0	27.458	0	1162.194	0	-1e10	8	-1e10	8	-1E+10	1	-1E+10	1	-1E+10	1	-1E+10	1	-1E+10	1	-1E+10	1
4902554	40	C	03/13/2022	05:04	-136.152	49.465	0	1185.60	0	2.7180	0	34.4270	0	27.460	0	1172.151	0	-1e10	8	-1e10	8	-1E+10	1	-1E+10	1	-1E+10	1	-1E+10	1	-1E+10	1	-1E+10	1
4902554	40	C	03/13/2022	05:04	-136.152	49.465	0	1195.60	0	2.7060	0	34.4300	0	27.463	0	1182.010	0	-1e10	8	-1e10	8	-1E+10	1	-1E+10	1	-1E+10	1	-1E+10	1	-1E+10	1	-1E+10	1
4902554	40	C	03/13/2022	05:04	-136.152	49.465	0	1205.60	0	2.6950	0	34.4320	0	27.466	0	1191.868	0	-1e10	8	-1e10	8	-1E+10	1	-1E+10	1	-1E+10	1	-1E+10	1	-1E+10	1	-1E+10	1
4902554	40	C	03/13/2022	05:04	-136.152	49.465	0	1215.50	0	2.6790	0	34.4350	0	27.470	0	1201.627	0	-1e10	8	-1e10	8	-1E+10	1	-1E+10	1	-1E+10	1	-1E+10	1	-1E+10	1	-1E+10	1
4902554	40	C	03/13/2022	05:04	-136.152	49.465	0	1225.60	0	2.6670	0	34.4380	0	27.473	0	1211.583	0	-1e10	8	-1e10	8	-1E+10	1	-1E+10	1	-1E+10	1	-1E+10	1	-1E+10	1	-1E+10	1
4902554	40	C	03/13/2022	05:04	-136.152	49.465	0	1235.60	0	2.6580	0	34.4390	0	27.475	0	1221.439	0	-1e10	8	-1e10	8	-1E+10	1	-1E+10	1	-1E+10	1	-1E+10	1	-1E+10	1	-1E+10	1
4902554	40	C	03/13/2022	05:04	-136.152	49.465	0	1245.30	0	2.6550	0	34.4400	0	27.476	0	1231.000	0	-1e10	8	-1e10	8	-1E+10	1	-1E+10	1	-1E+10	1	-1E+10	1	-1E+10	1	-1E+10	1
4902554	40	C	03/13/2022	05:04	-136.152	49.465	0	1255.10	0	2.6540	0	34.4410	0	27.477	0	1240.658	0	-1e10	8	-1e10	8	-1E+10	1	-1E+10	1	-1E+10	1	-1E+10	1	-1E+10	1	-1E+10	1
4902554	40	C	03/13/2022	05:04	-136.152	49.465	0	1265.10	0	2.6340	0	34.4440	0	27.481	0	1250.513	0	-1e10	8	-1e10	8	-1E+10	1	-1E+10	1	-1E+10	1	-1E+10	1	-1E+10	1	-1E+10	1
4902554	40	C	03/13/2022	05:04	-136.152	49.465	0	1275.40	0	2.6170	0	34.4480	0	27.486	0	1260.664	0	-1e10	8	-1e10	8	-1E+10	1	-1E+10	1	-1E+10	1	-1E+10	1	-1E+10	1	-1E+10	1
4902554	40	C	03/13/2022	05:04	-136.152	49.465	0	1285.80	0	2.6020	0	34.4510	0	27.490	0	1270.912	0	-1e10	8	-1e10	8	-1E+10	1	-1E+10	1	-1E+10	1	-1E+10	1	-1E+10	1	-1E+10	1
4902554	40	C	03/13/2022	05:04	-136.152	49.465	0	1295.80	0	2.5900	0	34.4530	0	27.492	0	1280.766	0	-1e10	8	-1e10	8	-1E+10	1	-1E+10	1	-1E+10	1	-1E+10	1	-1E+10	1	-1E+10	1
4902554	40	C	03/13/2022	05:04	-136.152	49.465	0	1305.40	0	2.5720	0	34.4560	0	27.496	0	1290.225	0	-1e10	8	-1e10	8	-1E+10	1	-1E+10	1	-1E+10	1	-1E+10	1	-1E+10	1	-1E+10	1
4902554	40	C	03/13/2022	05:04	-136.152	49.465	0	1315.30	0	2.5670	0	34.4570	0	27.498	0	1299.980	0	-1e10	8	-1e10	8	-1E+10	1	-1E+10	1	-1E+10	1	-1E+10	1	-1E+10	1	-1E+10	1
4902554	40	C	03/13/2022	05:04	-136.152	49.465	0	1325.30	0	2.5610	0	34.4590	0	27.500	0	1309.832	0	-1e10	8	-1e10	8	-1E+10	1	-1E+10	1	-1E+10	1	-1E+10	1	-1E+10	1	-1E+10	1
4902554	40	C	03/13/2022	05:04	-136.152	49.465	0	1335.30	0	2.5490	0	34.4610	0	27.502	0	1319.684	0	-1e10	8	-1e10	8	-1E+10	1	-1E+10	1	-1E+10	1	-1E+10	1	-1E+10	1	-1E+10	1
4902554	40	C	03/13/2022	05:04	-136.152	49.465	0	1345.60	0	2.5400	0	34.4630	0	27.505	0	1329.831	0	-1e10	8	-1e10	8	-1E+10	1	-1E+10	1	-1E+10	1	-1E+10	1	-1E+10	1	-1E+10	1
4902554	40	C	03/13/2022	05:04	-136.152	49.465	0	1355.50	0	2.5230	0	34.4660	0	27.509	0	1339.584	0	-1e10	8	-1e10	8	-1E+10	1	-1E+10	1	-1E+10	1	-1E+10	1	-1E+10	1	-1E+10	1
4902554	40	C	03/13/2022	05:04	-136.152	49.465	0	1365.30	0	2.5090	0	34.4690	0	27.512	0	1349.238	0	-1e10	8	-1e10	8	-1E+10	1	-1E+10	1	-1E+10	1	-1E+10	1	-1E+10	1	-1E+10	1
4902554	40	C	03/13/2022	05:04	-136.152	49.465	0	1375.20	0	2.4940	0	34.4720	0	27.516	0	1358.989	0	-1e10	8	-1e10	8	-1E+10	1	-1E+10	1	-1E+10	1	-1E+10	1	-1E+10	1	-1E+10	1
4902554	40	C	03/13/2022	05:04	-136.152	49.465	0	1385.20	0	2.4810	0	34.4740	0	27.519	0	1368.839	0	-1e10	8	-1e10	8	-1E+10	1	-1E+10	1	-1E+10	1	-1E+10	1	-1E+10	1	-1E+10	1
4902554	40	C	03/13/2022	05:04	-136.152	49.465	0	1395.50	0	2.4680	0	34.4770	0	27.522	0	1378.984	0	-1e10	8	-1e10	8	-1E+10	1	-1E+10	1	-1E+10	1	-1E+10	1	-1E+10	1	-1E+10	1
4902554	40	C	03/13/2022	05:04	-136.152	49.465	0	1405.30	0	2.4530	0	34.4800	0	27.526	0	1388.635	0	-1e10	8	-1e10	8	-1E+10	1	-1E+10	1	-1E+10	1	-1E+10	1	-1E+10	1	-1E+10	1
4902554	40	C	03/13/2022	05:04	-136.152	49.465	0	1415.30	0	2.4380	0	34.4830	0	27.530	0	1398.484	0	-1e10	8	-1e10	8	-1E+10	1	-1E+10	1	-1E+10	1	-1E+10	1	-1E+10	1	-1E+10	1
4902554	40	C	03/13/2022	05:04	-136.152	49.465	0	1425.50	0	2.4290	0	34.4850	0	27.532	0	1408.528	0	-1e10	8	-1e10	8	-1E+10	1	-1E+10	1	-1E+10	1	-1E+10	1	-1E+10	1	-1E+10	1
4902554	40	C	03/13/2022	05:04	-136.152	49.465	0	1435.30	0	2.4230	0	34.4860	0	27.533	0	1418.179	0	-1e10	8	-1e10	8	-1E+10	1	-1E+10	1	-1E+10	1	-1E+10	1	-1E+10	1	-1E+10	1
4902554	40	C	03/13/2022	05:04	-136.152	49.465	0	1445.60	0	2.4140	0	34.4880	0	27.536	0	1428.321	0	-1e10	8	-1e10	8	-1E+10	1	-1E+10	1	-1E+10	1	-1E+10	1	-1E+10	1	-1E+10	1
4902554	40	C	03/13/2022	05:04	-136.152	49.465	0	1455.60	0	2.4050	0	34.4900	0	27.538	0	1438.168	0	-1e10	8	-1e10	8	-1E+10	1	-1E+10	1	-1E+10	1	-1E+10	1	-1E+10	1	-1E+10	1
4902554	40	C	03/13/2022	05:04	-136.152	49.465	0	1465.60	0	2.3880	0	34.4930	0	27.542	0	1448.014	0	-1e10	8	-1e10	8	-1E+10	1	-1E+10	1	-1E+10	1	-1E+10	1	-1E+10	1	-1E+10	1
4902554	40	C	03/13/2022	05:04	-136.152	49.465	0	1475.40	0	2.3770	0	34.4960	0	27.545	0	1457.662	0	-1e10	8	-1e10	8	-1E+10	1	-1E+10	1	-1E+10	1	-1E+10	1	-1E+10	1	-1E+10	1
4902554	40	C	03/13/2022	05:04	-136.152	49.465	0	1485.30	0	2.3670	0	34.4970	0	27.547	0	1467.409	0	-1e10	8	-1e10	8	-1E+10	1	-1E+10	1	-1E+10	1	-1E+10	1	-1E+10	1	-1E+10	1
4902554	40	C	03/13/2022	05:04	-136.152	49.465	0	1495.30	0	2.3570	0	34.4990	0	27.550	0	1477.253	0	-1e10	8	-1e10	8	-1E+10	1	-1E+10	1	-1E+10	1	-1E+10	1	-1E+10	1	-1E+10	1
4902554	40	C	03/13/2022	05:04	-136.152	49.465	0	1505.50	0	2.3440	0	34.5020	0	27.553	0	1487.294	0	-1e10	8	-1e10	8	-1E+10	1	-1E+10	1	-1E+10	1	-1E+10	1	-1E+10	1	-1E+10	1
4902554	40	C	03/13/2022	05:04	-136.152	49.465	0	1515.40	0	2.3360	0	34.5030	0	27.555	0	1497.040	0	-1e10	8	-1e10	8	-1E+10	1	-1E+10	1	-1E+10	1	-1E+10	1	-1E+10	1	-1E+10	1
4902554	40	C	03/13/2022	05:04	-136.152	49.465	0	1525.10	0	2.3310	0	34.5050	0	27.557	0	1506.588	0	-1e10	8	-1e10	8	-1E+10	1	-1E+10	1	-1E+10	1	-1E+10	1	-1E+10	1	-1E+10	1
4902554	40	C	03/13/2022	05:04	-136.152	49.465	0	1535.00	0	2.3230	0	34.5060	0	27.558	0	1516.332	0	-1e10	8	-1e10	8	-1E+10	1	-1E+10	1	-1E+10	1	-1E+10	1	-1E+10	1	-1E+10	1
4902554	40	C	03/13/2022	05:04	-136.152	49.465	0	1545.30	0	2.3130	0	34.5080	0	27.561	0	1526.470	0	-1e10	8	-1e10	8	-1E+10	1	-1E+10	1	-1E+10	1	-1E+10	1	-1E+10	1	-1E+10	1
4902554	40	C	03/13/2022	05:04	-136.152	49.465	0	1555.60	0	2.3040	0	34.5100	0	27.563	0	1536.607	0	-1e10	8	-1e10	8	-1E+10	1	-1E+10	1	-1E+10	1	-1E+10	1	-1E+10	1	-1E+10	1
4902554	40	C	03/13/2022	05:04	-136.152	49.465	0	1565.50	0	2.2940	0	34.5120	0	27.566	0	1546.350	0	-1e10	8	-1e10	8	-1E+10	1	-1E+10	1	-1E+10	1	-1E+10	1	-1E+10	1	-1E+10	1
4902554	40	C	03/13/2022	05:04	-136.152	49.465	0	1575.50	0	2.2860	0	34.5140	0	27.568	0	1556.191	0	-1e10	8	-1e10	8	-1E+10	1	-1E+10	1	-1E+10	1	-1E+10	1	-1E+10	1	-1E+10	1
4902554	40	C	03/13/2022	05:04	-136.152	49.465	0	1585.50	0	2.2770	0	34.5160	0	27.570	0	1566.031	0	-1e10	8	-1e10	8	-1E+10	1	-1E+10	1	-1E+10	1	-1E+10	1	-1E+10	1	-1E+10	1
4902554	40	C	03/13/2022	05:04	-136.152	49.465	0	1595.50	0	2.2630	0	34.5190	0	27.574	0	1575.871	0	-1e10	8	-1e10	8	-1E+10	1	-1E+10	1	-1E+10	1	-1E+10	1	-1E+10	1	-1E+10	1
4902554	40	C	03/13/2022	05:04	-136.152	49.465	0	1605.60	0	2.2530	0	34.5200	0	27.576	0	1585.809	0	-1e10	8	-1e10	8	-1E+10	1	-1E+10	1	-1E+10	1	-1E+10	1	-1E+10	1	-1E+10	1
4902554	40	C	03/13/2022	05:04	-136.152	49.465	0	1615.20	0	2.2450	0	34.5220	0	27.578	0	1595.254	0	-1e10	8	-1e10	8	-1E+10	1	-1E+10	1	-1E+10	1	-1E+10	1	-1E+10	1	-1E+10	1
4902554	40	C	03/13/2022	05:04	-136.152	49.465	0	1625.40	0	2.2380	0	34.5230	0	27.579	0	1605.290	0	-1e10	8	-1e10	8	-1E+10	1	-1E+10	1	-1E+10	1	-1E+10	1	-1E+10	1	-1E+10	1
4902554	40	C	03/13/2022	05:04	-136.152	49.465	0	1635.60	0	2.2260	0	34.5260	0	27.583	0	1615.325	0	-1e10	8	-1e10	8	-1E+10	1	-1E+10	1	-1E+10	1	-1E+10	1	-1E+10	1	-1E+10	1
4902554	40	C	03/13/2022	05:04	-136.152	49.465	0	1645.20	0	2.2180	0	34.5280	0	27.585	0	1624.769	0	-1e10	8	-1e10	8	-1E+10	1	-1E+10	1	-1E+10	1	-1E+10	1	-1E+10	1	-1E+10	1
4902554	40	C	03/13/2022	05:04	-136.152	49.465	0	1655.40	0	2.2090	0	34.5290	0	27.587	0	1634.803	0	-1e10	8	-1e10	8	-1E+10	1	-1E+10	1	-1E+10	1	-1E+10	1	-1E+10	1	-1E+10	1
4902554	40	C	03/13/2022	05:04	-136.152	49.465	0	1665.40	0	2.1990	0	34.5310	0	27.589	0	1644.640	0	-1e10	8	-1e10	8	-1E+10	1	-1E+10	1	-1E+10	1	-1E+10	1	-1E+10	1	-1E+10	1
4902554	40	C	03/13/2022	05:04	-136.152	49.465	0	1675.40	0	2.1900	0	34.5330	0	27.591	0	1654.476	0	-1e10	8	-1e10	8	-1E+10	1	-1E+10	1	-1E+10	1	-1E+10	1	-1E+10	1	-1E+10	1
4902554	40	C	03/13/2022	05:04	-136.152	49.465	0	1685.50	0	2.1810	0	34.5350	0	27.594	0	1664.410	0	-1e10	8	-1e10	8	-1E+10	1	-1E+10	1	-1E+10	1	-1E+10	1	-1E+10	1	-1E+10	1
4902554	40	C	03/13/2022	05:04	-136.152	49.465	0	1695.40	0	2.1780	0	34.5360	0	27.595	0	1674.147	0	-1e10	8	-1e10	8	-1E+10	1	-1E+10	1	-1E+10	1	-1E+10	1	-1E+10	1	-1E+10	1
4902554	40	C	03/13/2022	05:04	-136.152	49.465	0	1705.10	0	2.1710	0	34.5370	0	27.596	0	1683.687	0	-1e10	8	-1e10	8	-1E+10	1	-1E+10	1	-1E+10	1	-1E+10	1	-1E+10	1	-1E+10	1
4902554	40	C	03/13/2022	05:04	-136.152	49.465	0	1715.00	0	2.1630	0	34.5390	0	27.599	0	1693.424	0	-1e10	8	-1e10	8	-1E+10	1	-1E+10	1	-1E+10	1	-1E+10	1	-1E+10	1	-1E+10	1
4902554	40	C	03/13/2022	05:04	-136.152	49.465	0	1725.00	0	2.1560	0	34.5400	0	27.600	0	1703.258	0	-1e10	8	-1e10	8	-1E+10	1	-1E+10	1	-1E+10	1	-1E+10	1	-1E+10	1	-1E+10	1
4902554	40	C	03/13/2022	05:04	-136.152	49.465	0	1735.20	0	2.1450	0	34.5420	0	27.603	0	1713.288	0	-1e10	8	-1e10	8	-1E+10	1	-1E+10	1	-1E+10	1	-1E+10	1	-1E+10	1	-1E+10	1
4902554	40	C	03/13/2022	05:04	-136.152	49.465	0	1745.50	0	2.1350	0	34.5440	0	27.605	0	1723.416	0	-1e10	8	-1e10	8	-1E+10	1	-1E+10	1	-1E+10	1	-1E+10	1	-1E+10	1	-1E+10	1
4902554	40	C	03/13/2022	05:04	-136.152	49.465	0	1755.50	0	2.1270	0	34.5460	0	27.607	0	1733.249	0	-1e10	8	-1e10	8	-1E+10	1	-1E+10	1	-1E+10	1	-1E+10	1	-1E+10	1	-1E+10	1
4902554	40	C	03/13/2022	05:04	-136.152	49.465	0	1765.60	0	2.1140	0	34.5490	0	27.611	0	1743.179	0	-1e10	8	-1e10	8	-1E+10	1	-1E+10	1	-1E+10	1	-1E+10	1	-1E+10	1	-1E+10	1
4902554	40	C	03/13/2022	05:04	-136.152	49.465	0	1775.70	0	2.1060	0	34.5500	0	27.612	0	1753.109	0	-1e10	8	-1e10	8	-1E+10	1	-1E+10	1	-1E+10	1	-1E+10	1	-1E+10	1	-1E+10	1
4902554	40	C	03/13/2022	05:04	-136.152	49.465	0	1785.30	0	2.0950	0	34.5520	0	27.615	0	1762.547	0	-1e10	8	-1e10	8	-1E+10	1	-1E+10	1	-1E+10	1	-1E+10	1	-1E+10	1	-1E+10	1
4902554	40	C	03/13/2022	05:04	-136.152	49.465	0	1795.10	0	2.0840	0	34.5550	0	27.618	0	1772.182	0	-1e10	8	-1e10	8	-1E+10	1	-1E+10	1	-1E+10	1	-1E+10	1	-1E+10	1	-1E+10	1
4902554	40	C	03/13/2022	05:04	-136.152	49.465	0	1805.40	0	2.0780	0	34.5560	0	27.619	0	1782.307	0	-1e10	8	-1e10	8	-1E+10	1	-1E+10	1	-1E+10	1	-1E+10	1	-1E+10	1	-1E+10	1
4902554	40	C	03/13/2022	05:04	-136.152	49.465	0	1815.40	0	2.0730	0	34.5570	0	27.621	0	1792.137	0	-1e10	8	-1e10	8	-1E+10	1	-1E+10	1	-1E+10	1	-1E+10	1	-1E+10	1	-1E+10	1
4902554	40	C	03/13/2022	05:04	-136.152	49.465	0	1825.10	0	2.0670	0	34.5580	0	27.622	0	1801.671	0	-1e10	8	-1e10	8	-1E+10	1	-1E+10	1	-1E+10	1	-1E+10	1	-1E+10	1	-1E+10	1
4902554	40	C	03/13/2022	05:04	-136.152	49.465	0	1835.40	0	2.0580	0	34.5600	0	27.624	0	1811.795	0	-1e10	8	-1e10	8	-1E+10	1	-1E+10	1	-1E+10	1	-1E+10	1	-1E+10	1	-1E+10	1
4902554	40	C	03/13/2022	05:04	-136.152	49.465	0	1845.70	0	2.0530	0	34.5610	0	27.626	0	1821.919	0	-1e10	8	-1e10	8	-1E+10	1	-1E+10	1	-1E+10	1	-1E+10	1	-1E+10	1	-1E+10	1
4902554	40	C	03/13/2022	05:04	-136.152	49.465	0	1855.60	0	2.0450	0	34.5630	0	27.628	0	1831.649	0	-1e10	8	-1e10	8	-1E+10	1	-1E+10	1	-1E+10	1	-1E+10	1	-1E+10	1	-1E+10	1
4902554	40	C	03/13/2022	05:04	-136.152	49.465	0	1865.60	0	2.0400	0	34.5640	0	27.629	0	1841.476	0	-1e10	8	-1e10	8	-1E+10	1	-1E+10	1	-1E+10	1	-1E+10	1	-1E+10	1	-1E+10	1
4902554	40	C	03/13/2022	05:04	-136.152	49.465	0	1875.50	0	2.0300	0	34.5660	0	27.632	0	1851.205	0	-1e10	8	-1e10	8	-1E+10	1	-1E+10	1	-1E+10	1	-1E+10	1	-1E+10	1	-1E+10	1
4902554	40	C	03/13/2022	05:04	-136.152	49.465	0	1885.50	0	2.0240	0	34.5670	0	27.633	0	1861.032	0	-1e10	8	-1e10	8	-1E+10	1	-1E+10	1	-1E+10	1	-1E+10	1	-1E+10	1	-1E+10	1
4902554	40	C	03/13/2022	05:04	-136.152	49.465	0	1895.30	0	2.0130	0	34.5690	0	27.635	0	1870.662	0	-1e10	8	-1e10	8	-1E+10	1	-1E+10	1	-1E+10	1	-1E+10	1	-1E+10	1	-1E+10	1
4902554	40	C	03/13/2022	05:04	-136.152	49.465	0	1905.70	0	2.0070	0	34.5700	0	27.637	0	1880.880	0	-1e10	8	-1e10	8	-1E+10	1	-1E+10	1	-1E+10	1	-1E+10	1	-1E+10	1	-1E+10	1
4902554	40	C	03/13/2022	05:04	-136.152	49.465	0	1915.60	0	2.0000	0	34.5720	0	27.639	0	1890.608	0	-1e10	8	-1e10	8	-1E+10	1	-1E+10	1	-1E+10	1	-1E+10	1	-1E+10	1	-1E+10	1
4902554	40	C	03/13/2022	05:04	-136.152	49.465	0	1925.30	0	1.9920	0	34.5730	0	27.640	0	1900.138	0	-1e10	8	-1e10	8	-1E+10	1	-1E+10	1	-1E+10	1	-1E+10	1	-1E+10	1	-1E+10	1
4902554	40	C	03/13/2022	05:04	-136.152	49.465	0	1935.40	0	1.9850	0	34.5750	0	27.643	0	1910.061	0	-1e10	8	-1e10	8	-1E+10	1	-1E+10	1	-1E+10	1	-1E+10	1	-1E+10	1	-1E+10	1
4902554	40	C	03/13/2022	05:04	-136.152	49.465	0	1945.70	0	1.9770	0	34.5760	0	27.644	0	1920.179	0	-1e10	8	-1e10	8	-1E+10	1	-1E+10	1	-1E+10	1	-1E+10	1	-1E+10	1	-1E+10	1
4902554	40	C	03/13/2022	05:04	-136.152	49.465	0	1955.70	0	1.9710	0	34.5780	0	27.646	0	1930.003	0	-1e10	8	-1e10	8	-1E+10	1	-1E+10	1	-1E+10	1	-1E+10	1	-1E+10	1	-1E+10	1
4902554	40	C	03/13/2022	05:04	-136.152	49.465	0	1965.50	0	1.9640	0	34.5790	0	27.648	0	1939.629	0	-1e10	8	-1e10	8	-1E+10	1	-1E+10	1	-1E+10	1	-1E+10	1	-1E+10	1	-1E+10	1
4902554	40	C	03/13/2022	05:04	-136.152	49.465	0	1975.70	0	1.9600	0	34.5800	0	27.649	0	1949.649	0	-1e10	8	-1e10	8	-1E+10	1	-1E+10	1	-1E+10	1	-1E+10	1	-1E+10	1	-1E+10	1
4902554	40	C	03/13/2022	05:04	-136.152	49.465	0																										
4902554	41	C	03/23/2022	09:57	-136.105	49.462	0	0.40	0	6.9530	0	32.3400	0	25.330	0	0.397	0	-1e10	8	-1e10	8	-1E+10	1	-1E+10	1	-1E+10	1	-1E+10	1	-1E+10	1	-1E+10	1
4902554	41	C	03/23/2022	09:57	-136.105	49.462	0	0.90	0	6.9530	0	32.3400	0	25.330	0	0.892	0	-1e10	8	-1e10	8	-1E+10	1	-1E+10	1	-1E+10	1	-1E+10	1	-1E+10	1	-1E+10	1
4902554	41	C	03/23/2022	09:57	-136.105	49.462	0	2.00	0	6.9540	0	32.3400	0	25.330	0	1.983	0	-1e10	8	-1e10	8	-1E+10	1	-1E+10	1	-1E+10	1	-1E+10	1	-1E+10	1	-1E+10	1
4902554	41	C	03/23/2022	09:57	-136.105	49.462	0	3.20	0	6.9540	0	32.3410	0	25.331	0	3.173	0	-1e10	8	-1e10	8	-1E+10	1	-1E+10	1	-1E+10	1	-1E+10	1	-1E+10	1	-1E+10	1
4902554	41	C	03/23/2022	09:57	-136.105	49.462	0	3.90	0	6.9540	0	32.3410	0	25.331	0	3.867	0	-1e10	8	-1e10	8	-1E+10	1	-1E+10	1	-1E+10	1	-1E+10	1	-1E+10	1	-1E+10	1
4902554	41	C	03/23/2022	09:57	-136.105	49.462	0	4.90	0	6.9530	0	32.3410	0	25.331	0	4.858	0	-1e10	1	-1e10	1	-1E+10	1	-1E+10	1	-1E+10	1	-1E+10	1	-1E+10	1	-1E+10	1
4902554	41	C	03/23/2022	09:57	-136.105	49.462	0	5.20	0	6.9533	0	32.3410	0	25.331	0	5.156	0	-1e10	8	-1e10	8	-1E+10	1	-1E+10	1	-1E+10	1	-1E+10	1	-1E+10	1	-1E+10	1
4902554	41	C	03/23/2022	09:57	-136.105	49.462	0	6.00	0	6.9540	0	32.3410	0	25.331	0	5.949	0	-1e10	1	-1e10	1	-1E+10	1	-1E+10	1	-1E+10	1	-1E+10	1	-1E+10	1	-1E+10	1
4902554	41	C	03/23/2022	09:57	-136.105	49.462	0	6.10	0	6.9538	0	32.3409	0	25.331	0	6.048	0	-1e10	8	-1e10	8	-1E+10	1	-1E+10	1	-1E+10	1	-1E+10	1	-1E+10	1	-1E+10	1
4902554	41	C	03/23/2022	09:57	-136.105	49.462	0	6.70	0	6.9524	0	32.3402	0	25.331	0	6.643	0	-1e10	8	-1e10	8	-1E+10	1	-1E+10	1	-1E+10	1	-1E+10	1	-1E+10	1	-1E+10	1
4902554	41	C	03/23/2022	09:57	-136.105	49.462	0	6.90	0	6.9520	0	32.3400	0	25.331	0	6.841	0	-1e10	8	-1e10	8	-1E+10	1	-1E+10	1	-1E+10	1	-1E+10	1	-1E+10	1	-1E+10	1
4902554	41	C	03/23/2022	09:57	-136.105	49.462	0	8.00	0	6.9530	0	32.3400	0	25.330	0	7.932	0	-1e10	8	-1e10	8	-1E+10	1	-1E+10	1	-1E+10	1	-1E+10	1	-1E+10	1	-1E+10	1
4902554	41	C	03/23/2022	09:57	-136.105	49.462	0	9.20	0	6.9530	0	32.3410	0	25.331	0	9.121	0	-1e10	8	-1e10	8	-1E+10	1	-1E+10	1	-1E+10	1	-1E+10	1	-1E+10	1	-1E+10	1
4902554	41	C	03/23/2022	09:57	-136.105	49.462	0	9.90	0	6.9540	0	32.3400	0	25.330	0	9.815	0	-1e10	8	-1e10	8	-1E+10	1	-1E+10	1	-1E+10	1	-1E+10	1	-1E+10	1	-1E+10	1
4902554	41	C	03/23/2022	09:57	-136.105	49.462	0	11.10	0	6.9530	0	32.3400	0	25.330	0	11.005	0	-1e10	8	-1e10	8	-1E+10	1	-1E+10	1	-1E+10	1	-1E+10	1	-1E+10	1	-1E+10	1
4902554	41	C	03/23/2022	09:57	-136.105	49.462	0	11.80	0	6.9520	0	32.3400	0	25.331	0	11.699	0	-1e10	8	-1e10	8	-1E+10	1	-1E+10	1	-1E+10	1	-1E+10	1	-1E+10	1	-1E+10	1
4902554	41	C	03/23/2022	09:57	-136.105	49.462	0	12.80	0	6.9530	0	32.3400	0	25.331	0	12.690	0	-1e10	8	-1e10	8	-1E+10	1	-1E+10	1	-1E+10	1	-1E+10	1	-1E+10	1	-1E+10	1
4902554	41	C	03/23/2022	09:57	-136.105	49.462	0	13.70	0	6.9540	0	32.3410	0	25.331	0	13.583	0	-1e10	8	-1e10	8	-1E+10	1	-1E+10	1	-1E+10	1	-1E+10	1	-1E+10	1	-1E+10	1
4902554	41	C	03/23/2022	09:57	-136.105	49.462	0	14.70	0	6.9540	0	32.3410	0	25.331	0	14.574	0	-1e10	8	-1e10	8	-1E+10	1	-1E+10	1	-1E+10	1	-1E+10	1	-1E+10	1	-1E+10	1
4902554	41	C	03/23/2022	09:57	-136.105	49.462	0	15.70	0	6.9540	0	32.3400	0	25.330	0	15.566	0	-1e10	8	-1e10	8	-1E+10	1	-1E+10	1	-1E+10	1	-1E+10	1	-1E+10	1	-1E+10	1
4902554	41	C	03/23/2022	09:57	-136.105	49.462	0	16.70	0	6.9520	0	32.3410	0	25.331	0	16.557	0	-1e10	8	-1e10	8	-1E+10	1	-1E+10	1	-1E+10	1	-1E+10	1	-1E+10	1	-1E+10	1
4902554	41	C	03/23/2022	09:57	-136.105	49.462	0	17.70	0	6.9510	0	32.3400	0	25.331	0	17.548	0	-1e10	8	-1e10	8	-1E+10	1	-1E+10	1	-1E+10	1	-1E+10	1	-1E+10	1	-1E+10	1
4902554	41	C	03/23/2022	09:57	-136.105	49.462	0	18.90	0	6.9520	0	32.3400	0	25.331	0	18.738	0	-1e10	8	-1e10	8	-1E+10	1	-1E+10	1	-1E+10	1	-1E+10	1	-1E+10	1	-1E+10	1
4902554	41	C	03/23/2022	09:57	-136.105	49.462	0	20.40	0	6.9550	0	32.3400	0	25.330	0	20.225	0	-1e10	8	-1e10	8	-1E+10	1	-1E+10	1	-1E+10	1	-1E+10	1	-1E+10	1	-1E+10	1
4902554	41	C	03/23/2022	09:57	-136.105	49.462	0	21.30	0	6.9550	0	32.3410	0	25.331	0	21.117	0	-1e10	8	-1e10	8	-1E+10	1	-1E+10	1	-1E+10	1	-1E+10	1	-1E+10	1	-1E+10	1
4902554	41	C	03/23/2022	09:57	-136.105	49.462	0	22.20	0	6.9560	0	32.3410	0	25.331	0	22.010	0	-1e10	8	-1e10	8	-1E+10	1	-1E+10	1	-1E+10	1	-1E+10	1	-1E+10	1	-1E+10	1
4902554	41	C	03/23/2022	09:57	-136.105	49.462	0	23.10	0	6.9550	0	32.3410	0	25.331	0	22.902	0	-1e10	8	-1e10	8	-1E+10	1	-1E+10	1	-1E+10	1	-1E+10	1	-1E+10	1	-1E+10	1
4902554	41	C	03/23/2022	09:57	-136.105	49.462	0	24.00	0	6.9550	0	32.3400	0	25.330	0	23.794	0	-1e10	8	-1e10	8	-1E+10	1	-1E+10	1	-1E+10	1	-1E+10	1	-1E+10	1	-1E+10	1
4902554	41	C	03/23/2022	09:57	-136.105	49.462	0	24.80	0	6.9510	0	32.3400	0	25.331	0	24.587	0	-1e10	8	-1e10	8	-1E+10	1	-1E+10	1	-1E+10	1	-1E+10	1	-1E+10	1	-1E+10	1
4902554	41	C	03/23/2022	09:57	-136.105	49.462	0	25.80	0	6.9520	0	32.3390	0	25.330	0	25.578	0	-1e10	8	-1e10	8	-1E+10	1	-1E+10	1	-1E+10	1	-1E+10	1	-1E+10	1	-1E+10	1
4902554	41	C	03/23/2022	09:57	-136.105	49.462	0	26.90	0	6.9500	0	32.3400	0	25.331	0	26.669	0	-1e10	8	-1e10	8	-1E+10	1	-1E+10	1	-1E+10	1	-1E+10	1	-1E+10	1	-1E+10	1
4902554	41	C	03/23/2022	09:57	-136.105	49.462	0	28.00	0	6.9510	0	32.3390	0	25.330	0	27.759	0	-1e10	8	-1e10	8	-1E+10	1	-1E+10	1	-1E+10	1	-1E+10	1	-1E+10	1	-1E+10	1
4902554	41	C	03/23/2022	09:57	-136.105	49.462	0	29.00	0	6.9490	0	32.3400	0	25.331	0	28.751	0	-1e10	8	-1e10	8	-1E+10	1	-1E+10	1	-1E+10	1	-1E+10	1	-1E+10	1	-1E+10	1
4902554	41	C	03/23/2022	09:57	-136.105	49.462	0	30.10	0	6.9520	0	32.3410	0	25.332	0	29.841	0	-1e10	8	-1e10	8	-1E+10	1	-1E+10	1	-1E+10	1	-1E+10	1	-1E+10	1	-1E+10	1
4902554	41	C	03/23/2022	09:57	-136.105	49.462	0	31.10	0	6.9520	0	32.3410	0	25.332	0	30.833	0	-1e10	8	-1e10	8	-1E+10	1	-1E+10	1	-1E+10	1	-1E+10	1	-1E+10	1	-1E+10	1
4902554	41	C	03/23/2022	09:57	-136.105	49.462	0	32.00	0	6.9500	0	32.3400	0	25.331	0	31.725	0	-1e10	8	-1e10	8	-1E+10	1	-1E+10	1	-1E+10	1	-1E+10	1	-1E+10	1	-1E+10	1
4902554	41	C	03/23/2022	09:57	-136.105	49.462	0	33.00	0	6.9540	0	32.3400	0	25.331	0	32.716	0	-1e10	8	-1e10	8	-1E+10	1	-1E+10	1	-1E+10	1	-1E+10	1	-1E+10	1	-1E+10	1
4902554	41	C	03/23/2022	09:57	-136.105	49.462	0	34.10	0	6.9560	0	32.3410	0	25.331	0	33.807	0	-1e10	8	-1e10	8	-1E+10	1	-1E+10	1	-1E+10	1	-1E+10	1	-1E+10	1	-1E+10	1
4902554	41	C	03/23/2022	09:57	-136.105	49.462	0	35.10	0	6.9550	0	32.3410	0	25.331	0	34.798	0	-1e10	8	-1e10	8	-1E+10	1	-1E+10	1	-1E+10	1	-1E+10	1	-1E+10	1	-1E+10	1
4902554	41	C	03/23/2022	09:57	-136.105	49.462	0	36.00	0	6.9540	0	32.3410	0	25.331	0	35.690	0	-1e10	8	-1e10	8	-1E+10	1	-1E+10	1	-1E+10	1	-1E+10	1	-1E+10	1	-1E+10	1
4902554	41	C	03/23/2022	09:57	-136.105	49.462	0	36.70	0	6.9540	0	32.3410	0	25.331	0	36.384	0	-1e10	8	-1e10	8	-1E+10	1	-1E+10	1	-1E+10	1	-1E+10	1	-1E+10	1	-1E+10	1
4902554	41	C	03/23/2022	09:57	-136.105	49.462	0	37.80	0	6.9550	0	32.3410	0	25.331	0	37.474	0	-1e10	8	-1e10	8	-1E+10	1	-1E+10	1	-1E+10	1	-1E+10	1	-1E+10	1	-1E+10	1
4902554	41	C	03/23/2022	09:57	-136.105	49.462	0	38.80	0	6.9580	0	32.3410	0	25.331	0	38.466	0	-1e10	8	-1e10	8	-1E+10	1	-1E+10	1	-1E+10	1	-1E+10	1	-1E+10	1	-1E+10	1
4902554	41	C	03/23/2022	09:57	-136.105	49.462	0	39.80	0	6.9570	0	32.3410	0	25.331	0	39.457	0	-1e10	8	-1e10	8	-1E+10	1	-1E+10	1	-1E+10	1	-1E+10	1	-1E+10	1	-1E+10	1
4902554	41	C	03/23/2022	09:57	-136.105	49.462	0	41.00	0	6.9560	0	32.3410	0	25.331	0	40.646	0	-1e10	8	-1e10	8	-1E+10	1	-1E+10	1	-1E+10	1	-1E+10	1	-1E+10	1	-1E+10	1
4902554	41	C	03/23/2022	09:57	-136.105	49.462	0	41.70	0	6.9560	0	32.3410	0	25.331	0	41.340	0	-1e10	8	-1e10	8	-1E+10	1	-1E+10	1	-1E+10	1	-1E+10	1	-1E+10	1	-1E+10	1
4902554	41	C	03/23/2022	09:57	-136.105	49.462	0	42.70	0	6.9580	0	32.3400	0	25.330	0	42.332	0	-1e10	8	-1e10	8	-1E+10	1	-1E+10	1	-1E+10	1	-1E+10	1	-1E+10	1	-1E+10	1
4902554	41	C	03/23/2022	09:57	-136.105	49.462	0	43.90	0	6.9560	0	32.3410	0	25.331	0	43.521	0	-1e10	8	-1e10	8	-1E+10	1	-1E+10	1	-1E+10	1	-1E+10	1	-1E+10	1	-1E+10	1
4902554	41	C	03/23/2022	09:57	-136.105	49.462	0	45.10	0	6.9570	0	32.3410	0	25.331	0	44.711	0	-1e10	8	-1e10	8	-1E+10	1	-1E+10	1	-1E+10	1	-1E+10	1	-1E+10	1	-1E+10	1
4902554	41	C	03/23/2022	09:57	-136.105	49.462	0	46.00	0	6.9550	0	32.3420	0	25.332	0	45.603	0	-1e10	8	-1e10	8	-1E+10	1	-1E+10	1	-1E+10	1	-1E+10	1	-1E+10	1	-1E+10	1
4902554	41	C	03/23/2022	09:57	-136.105	49.462	0	46.90	0	6.9560	0	32.3410	0	25.331	0	46.495	0	-1e10	8	-1e10	8	-1E+10	1	-1E+10	1	-1E+10	1	-1E+10	1	-1E+10	1	-1E+10	1
4902554	41	C	03/23/2022	09:57	-136.105	49.462	0	47.90	0	6.9580	0	32.3410	0	25.331	0	47.486	0	-1e10	8	-1e10	8	-1E+10	1	-1E+10	1	-1E+10	1	-1E+10	1	-1E+10	1	-1E+10	1
4902554	41	C	03/23/2022	09:57	-136.105	49.462	0	49.00	0	6.9570	0	32.3410	0	25.331	0	48.577	0	-1e10	8	-1e10	8	-1E+10	1	-1E+10	1	-1E+10	1	-1E+10	1	-1E+10	1	-1E+10	1
4902554	41	C	03/23/2022	09:57	-136.105	49.462	0	50.00	0	6.9540	0	32.3410	0	25.332	0	49.568	0	-1e10	8	-1e10	8	-1E+10	1	-1E+10	1	-1E+10	1	-1E+10	1	-1E+10	1	-1E+10	1
4902554	41	C	03/23/2022	09:57	-136.105	49.462	0	51.10	0	6.9560	0	32.3410	0	25.331	0	50.658	0	-1e10	8	-1e10	8	-1E+10	1	-1E+10	1	-1E+10	1	-1E+10	1	-1E+10	1	-1E+10	1
4902554	41	C	03/23/2022	09:57	-136.105	49.462	0	51.90	0	6.9560	0	32.3410	0	25.331	0	51.451	0	-1e10	8	-1e10	8	-1E+10	1	-1E+10	1	-1E+10	1	-1E+10	1	-1E+10	1	-1E+10	1
4902554	41	C	03/23/2022	09:57	-136.105	49.462	0	53.30	0	6.9560	0	32.3420	0	25.332	0	52.839	0	-1e10	8	-1e10	8	-1E+10	1	-1E+10	1	-1E+10	1	-1E+10	1	-1E+10	1	-1E+10	1
4902554	41	C	03/23/2022	09:57	-136.105	49.462	0	54.10	0	6.9550	0	32.3410	0	25.332	0	53.632	0	-1e10	8	-1e10	8	-1E+10	1	-1E+10	1	-1E+10	1	-1E+10	1	-1E+10	1	-1E+10	1
4902554	41	C	03/23/2022	09:57	-136.105	49.462	0	54.90	0	6.9570	0	32.3410	0	25.331	0	54.425	0	-1e10	8	-1e10	8	-1E+10	1	-1E+10	1	-1E+10	1	-1E+10	1	-1E+10	1	-1E+10	1
4902554	41	C	03/23/2022	09:57	-136.105	49.462	0	56.00	0	6.9580	0	32.3400	0	25.330	0	55.515	0	-1e10	8	-1e10	8	-1E+10	1	-1E+10	1	-1E+10	1	-1E+10	1	-1E+10	1	-1E+10	1
4902554	41	C	03/23/2022	09:57	-136.105	49.462	0	57.20	0	6.9580	0	32.3410	0	25.331	0	56.705	0	-1e10	8	-1e10	8	-1E+10	1	-1E+10	1	-1E+10	1	-1E+10	1	-1E+10	1	-1E+10	1
4902554	41	C	03/23/2022	09:57	-136.105	49.462	0	57.90	0	6.9600	0	32.3410	0	25.331	0	57.398	0	-1e10	8	-1e10	8	-1E+10	1	-1E+10	1	-1E+10	1	-1E+10	1	-1E+10	1	-1E+10	1
4902554	41	C	03/23/2022	09:57	-136.105	49.462	0	58.90	0	6.9590	0	32.3400	0	25.330	0	58.390	0	-1e10	8	-1e10	8	-1E+10	1	-1E+10	1	-1E+10	1	-1E+10	1	-1E+10	1	-1E+10	1
4902554	41	C	03/23/2022	09:57	-136.105	49.462	0	59.90	0	6.9340	0	32.3410	0	25.334	0	59.381	0	-1e10	8	-1e10	8	-1E+10	1	-1E+10	1	-1E+10	1	-1E+10	1	-1E+10	1	-1E+10	1
4902554	41	C	03/23/2022	09:57	-136.105	49.462	0	61.00	0	6.9260	0	32.3390	0	25.334	0	60.471	0	-1e10	8	-1e10	8	-1E+10	1	-1E+10	1	-1E+10	1	-1E+10	1	-1E+10	1	-1E+10	1
4902554	41	C	03/23/2022	09:57	-136.105	49.462	0	62.10	0	6.9280	0	32.3410	0	25.335	0	61.561	0	-1e10	8	-1e10	8	-1E+10	1	-1E+10	1	-1E+10	1	-1E+10	1	-1E+10	1	-1E+10	1
4902554	41	C	03/23/2022	09:57	-136.105	49.462	0	62.80	0	6.9290	0	32.3400	0	25.334	0	62.255	0	-1e10	8	-1e10	8	-1E+10	1	-1E+10	1	-1E+10	1	-1E+10	1	-1E+10	1	-1E+10	1
4902554	41	C	03/23/2022	09:57	-136.105	49.462	0	63.90	0	6.9300	0	32.3400	0	25.334	0	63.345	0	-1e10	8	-1e10	8	-1E+10	1	-1E+10	1	-1E+10	1	-1E+10	1	-1E+10	1	-1E+10	1
4902554	41	C	03/23/2022	09:57	-136.105	49.462	0	64.90	0	6.9290	0	32.3390	0	25.334	0	64.337	0	-1e10	8	-1e10	8	-1E+10	1	-1E+10	1	-1E+10	1	-1E+10	1	-1E+10	1	-1E+10	1
4902554	41	C	03/23/2022	09:57	-136.105	49.462	0	65.90	0	6.9210	0	32.3410	0	25.336	0	65.328	0	-1e10	8	-1e10	8	-1E+10	1	-1E+10	1	-1E+10	1	-1E+10	1	-1E+10	1	-1E+10	1
4902554	41	C	03/23/2022	09:57	-136.105	49.462	0	66.90	0	6.9100	0	32.3410	0	25.338	0	66.319	0	-1e10	8	-1e10	8	-1E+10	1	-1E+10	1	-1E+10	1	-1E+10	1	-1E+10	1	-1E+10	1
4902554	41	C	03/23/2022	09:57	-136.105	49.462	0	67.90	0	6.9040	0	32.3420	0	25.339	0	67.310	0	-1e10	8	-1e10	8	-1E+10	1	-1E+10	1	-1E+10	1	-1E+10	1	-1E+10	1	-1E+10	1
4902554	41	C	03/23/2022	09:57	-136.105	49.462	0	68.90	0	6.9010	0	32.3420	0	25.340	0	68.301	0	-1e10	8	-1e10	8	-1E+10	1	-1E+10	1	-1E+10	1	-1E+10	1	-1E+10	1	-1E+10	1
4902554	41	C	03/23/2022	09:57	-136.105	49.462	0	70.00	0	6.9000	0	32.3430	0	25.341	0	69.392	0	-1e10	8	-1e10	8	-1E+10	1	-1E+10	1	-1E+10	1	-1E+10	1	-1E+10	1	-1E+10	1
4902554	41	C	03/23/2022	09:57	-136.105	49.462	0	71.20	0	6.8970	0	32.3430	0	25.341	0	70.581	0	-1e10	8	-1e10	8	-1E+10	1	-1E+10	1	-1E+10	1	-1E+10	1	-1E+10	1	-1E+10	1
4902554	41	C	03/23/2022	09:57	-136.105	49.462	0	72.00	0	6.8950	0	32.3430	0	25.341	0	71.374	0	-1e10	8	-1e10	8	-1E+10	1	-1E+10	1	-1E+10	1	-1E+10	1	-1E+10	1	-1E+10	1
4902554	41	C	03/23/2022	09:57	-136.105	49.462	0	73.20	0	6.8950	0	32.3430	0	25.341	0	72.563	0	-1e10	8	-1e10	8	-1E+10	1	-1E+10	1	-1E+10	1	-1E+10	1	-1E+10	1	-1E+10	1
4902554	41	C	03/23/2022	09:57	-136.105	49.462	0	74.00	0	6.8930	0	32.3430	0	25.342	0	73.356	0	-1e10	8	-1e10	8	-1E+10	1	-1E+10	1	-1E+10	1	-1E+10	1	-1E+10	1	-1E+10	1
4902554	41	C	03/23/2022	09:57	-136.105	49.462	0	75.20	0	6.8870	0	32.3440	0	25.343	0	74.545	0	-1e10	8	-1e10	8	-1E+10	1	-1E+10	1	-1E+10	1	-1E+10	1	-1E+10	1	-1E+10	1
4902554	41	C	03/23/2022	09:57	-136.105	49.462	0	75.80	0	6.8860	0	32.3440	0	25.343	0	75.140	0	-1e10	8	-1e10	8	-1E+10	1	-1E+10	1	-1E+10	1	-1E+10	1	-1E+10	1	-1E+10	1
4902554	41	C	03/23/2022	09:57	-136.105	49.462	0	76.90	0	6.8780	0	32.3450	0	25.345	0	76.230	0	-1e10	8	-1e10	8	-1E+10	1	-1E+10	1	-1E+10	1	-1E+10	1	-1E+10	1	-1E+10	1
4902554	41	C	03/23/2022	09:57	-136.105	49.462	0	78.00	0	6.8690	0	32.3460	0	25.347	0	77.320	0	-1e10	8	-1e10	8	-1E+10	1	-1E+10	1	-1E+10	1	-1E+10	1	-1E+10	1	-1E+10	1
4902554	41	C	03/23/2022	09:57	-136.105	49.462	0	78.90	0	6.8660	0	32.3470	0	25.348	0	78.212	0	-1e10	8	-1e10	8	-1E+10	1	-1E+10	1	-1E+10	1	-1E+10	1	-1E+10	1	-1E+10	1
4902554	41	C	03/23/2022	09:57	-136.105	49.462	0	79.80	0	6.8660	0	32.3460	0	25.347	0	79.104	0	-1e10	8	-1e10	8	-1E+10	1	-1E+10	1	-1E+10	1	-1E+10	1	-1E+10	1	-1E+10	1
4902554	41	C	03/23/2022	09:57	-136.105	49.462	0	80.70	0	6.8570	0	32.3460	0	25.349	0	79.996	0	-1e10	8	-1e10	8	-1E+10	1	-1E+10	1	-1E+10	1	-1E+10	1	-1E+10	1	-1E+10	1
4902554	41	C	03/23/2022	09:57	-136.105	49.462	0	82.10	0	6.8150	0	32.3530	0	25.360	0	81.384	0	-1e10	8	-1e10	8	-1E+10	1	-1E+10	1	-1E+10	1	-1E+10	1	-1E+10	1	-1E+10	1
4902554	41	C	03/23/2022	09:57	-136.105	49.462	0	83.20	0	6.7930	0	32.3550	0	25.364	0	82.474	0	-1e10	8	-1e10	8	-1E+10	1	-1E+10	1	-1E+10	1	-1E+10	1	-1E+10	1	-1E+10	1
4902554	41	C	03/23/2022	09:57	-136.105	49.462	0	84.10	0	6.7580	0	32.3610	0	25.373	0	83.366	0	-1e10	8	-1e10	8	-1E+10	1	-1E+10	1	-1E+10	1	-1E+10	1	-1E+10	1	-1E+10	1
4902554	41	C	03/23/2022	09:57	-136.105	49.462	0	85.00	0	6.7310	0	32.3650	0	25.380	0	84.258	0	-1e10	8	-1e10	8	-1E+10	1	-1E+10	1	-1E+10	1	-1E+10	1	-1E+10	1	-1E+10	1
4902554	41	C	03/23/2022	09:57	-136.105	49.462	0	85.90	0	6.6930	0	32.3700	0	25.389	0	85.150	0	-1e10	8	-1e10	8	-1E+10	1	-1E+10	1	-1E+10	1	-1E+10	1	-1E+10	1	-1E+10	1
4902554	41	C	03/23/2022	09:57	-136.105	49.462	0	87.20	0	6.6440	0	32.3740	0	25.398	0	86.438	0	-1e10	8	-1e10	8	-1E+10	1	-1E+10	1	-1E+10	1	-1E+10	1	-1E+10	1	-1E+10	1
4902554	41	C	03/23/2022	09:57	-136.105	49.462	0	87.90	0	6.5300	0	32.4020	0	25.435	0	87.132	0	-1e10	8	-1e10	8	-1E+10	1	-1E+10	1	-1E+10	1	-1E+10	1	-1E+10	1	-1E+10	1
4902554	41	C	03/23/2022	09:57	-136.105	49.462	0	88.90	0	6.4520	0	32.4310	0	25.468	0	88.123	0	-1e10	8	-1e10	8	-1E+10	1	-1E+10	1	-1E+10	1	-1E+10	1	-1E+10	1	-1E+10	1
4902554	41	C	03/23/2022	09:57	-136.105	49.462	0	89.90	0	6.3980	0	32.4510	0	25.491	0	89.114	0	-1e10	8	-1e10	8	-1E+10	1	-1E+10	1	-1E+10	1	-1E+10	1	-1E+10	1	-1E+10	1
4902554	41	C	03/23/2022	09:57	-136.105	49.462	0	90.90	0	6.3800	0	32.4570	0	25.498	0	90.105	0	-1e10	8	-1e10	8	-1E+10	1	-1E+10	1	-1E+10	1	-1E+10	1	-1E+10	1	-1E+10	1
4902554	41	C	03/23/2022	09:57	-136.105	49.462	0	91.90	0	6.3630	0	32.4640	0	25.505	0	91.096	0	-1e10	8	-1e10	8	-1E+10	1	-1E+10	1	-1E+10	1	-1E+10	1	-1E+10	1	-1E+10	1
4902554	41	C	03/23/2022	09:57	-136.105	49.462	0	93.00	0	6.3140	0	32.5070	0	25.545	0	92.186	0	-1e10	8	-1e10	8	-1E+10	1	-1E+10	1	-1E+10	1	-1E+10	1	-1E+10	1	-1E+10	1
4902554	41	C	03/23/2022	09:57	-136.105	49.462	0	94.10	0	6.3010	0	32.5190	0	25.556	0	93.277	0	-1e10	8	-1e10	8	-1E+10	1	-1E+10	1	-1E+10	1	-1E+10	1	-1E+10	1	-1E+10	1
4902554	41	C	03/23/2022	09:57	-136.105	49.462	0	95.10	0	6.2830	0	32.5360	0	25.572	0	94.268	0	-1e10	8	-1e10	8	-1E+10	1	-1E+10	1	-1E+10	1	-1E+10	1	-1E+10	1	-1E+10	1
4902554	41	C	03/23/2022	09:57	-136.105	49.462	0	96.00	0	6.2550	0	32.5720	0	25.604	0	95.160	0	-1e10	8	-1e10	8	-1E+10	1	-1E+10	1	-1E+10	1	-1E+10	1	-1E+10	1	-1E+10	1
4902554	41	C	03/23/2022	09:57	-136.105	49.462	0	97.00	0	6.2280	0	32.6170	0	25.643	0	96.151	0	-1e10	8	-1e10	8	-1E+10	1	-1E+10	1	-1E+10	1	-1E+10	1	-1E+10	1	-1E+10	1
4902554	41	C	03/23/2022	09:57	-136.105	49.462	0	98.20	0	6.2180	0	32.6360	0	25.659	0	97.340	0	-1e10	8	-1e10	8	-1E+10	1	-1E+10	1	-1E+10	1	-1E+10	1	-1E+10	1	-1E+10	1
4902554	41	C	03/23/2022	09:57	-136.105	49.462	0	98.90	0	6.2140	0	32.6410	0	25.664	0	98.033	0	-1e10	8	-1e10	8	-1E+10	1	-1E+10	1	-1E+10	1	-1E+10	1	-1E+10	1	-1E+10	1
4902554	41	C	03/23/2022	09:57	-136.105	49.462	0	100.20	0	6.2030	0	32.6600	0	25.680	0	99.322	0	-1e10	8	-1e10	8	-1E+10	1	-1E+10	1	-1E+10	1	-1E+10	1	-1E+10	1	-1E+10	1
4902554	41	C	03/23/2022	09:57	-136.105	49.462	0	101.10	0	6.1920	0	32.6790	0	25.696	0	100.214	0	-1e10	8	-1e10	8	-1E+10	1	-1E+10	1	-1E+10	1	-1E+10	1	-1E+10	1	-1E+10	1
4902554	41	C	03/23/2022	09:57	-136.105	49.462	0	101.80	0	6.1860	0	32.6870	0	25.703	0	100.907	0	-1e10	8	-1e10	8	-1E+10	1	-1E+10	1	-1E+10	1	-1E+10	1	-1E+10	1	-1E+10	1
4902554	41	C	03/23/2022	09:57	-136.105	49.462	0	103.00	0	6.1700	0	32.7120	0	25.725	0	102.097	0	-1e10	8	-1e10	8	-1E+10	1	-1E+10	1	-1E+10	1	-1E+10	1	-1E+10	1	-1E+10	1
4902554	41	C	03/23/2022	09:57	-136.105	49.462	0	103.70	0	6.1680	0	32.7140	0	25.727	0	102.790	0	-1e10	8	-1e10	8	-1E+10	1	-1E+10	1	-1E+10	1	-1E+10	1	-1E+10	1	-1E+10	1
4902554	41	C	03/23/2022	09:57	-136.105	49.462	0	104.80	0	6.1420	0	32.7470	0	25.756	0	103.880	0	-1e10	8	-1e10	8	-1E+10	1	-1E+10	1	-1E+10	1	-1E+10	1	-1E+10	1	-1E+10	1
4902554	41	C	03/23/2022	09:57	-136.105	49.462	0	106.00	0	6.1110	0	32.7870	0	25.792	0	105.069	0	-1e10	8	-1e10	8	-1E+10	1	-1E+10	1	-1E+10	1	-1E+10	1	-1E+10	1	-1E+10	1
4902554	41	C	03/23/2022	09:57	-136.105	49.462	0	106.90	0	6.0940	0	32.8070	0	25.810	0	105.961	0	-1e10	8	-1e10	8	-1E+10	1	-1E+10	1	-1E+10	1	-1E+10	1	-1E+10	1	-1E+10	1
4902554	41	C	03/23/2022	09:57	-136.105	49.462	0	107.80	0	6.0870	0	32.8120	0	25.815	0	106.853	0	-1e10	8	-1e10	8	-1E+10	1	-1E+10	1	-1E+10	1	-1E+10	1	-1E+10	1	-1E+10	1
4902554	41	C	03/23/2022	09:57	-136.105	49.462	0	109.10	0	6.0750	0	32.8240	0	25.825	0	108.141	0	-1e10	8	-1e10	8	-1E+10	1	-1E+10	1	-1E+10	1	-1E+10	1	-1E+10	1	-1E+10	1
4902554	41	C	03/23/2022	09:57	-136.105	49.462	0	110.00	0	6.0630	0	32.8460	0	25.844	0	109.033	0	-1e10	8	-1e10	8	-1E+10	1	-1E+10	1	-1E+10	1	-1E+10	1	-1E+10	1	-1E+10	1
4902554	41	C	03/23/2022	09:57	-136.105	49.462	0	111.00	0	6.0570	0	32.8700	0	25.864	0	110.024	0	-1e10	8	-1e10	8	-1E+10	1	-1E+10	1	-1E+10	1	-1E+10	1	-1E+10	1	-1E+10	1
4902554	41	C	03/23/2022	09:57	-136.105	49.462	0	111.90	0	6.0480	0	32.8920	0	25.883	0	110.916	0	-1e10	8	-1e10	8	-1E+10	1	-1E+10	1	-1E+10	1	-1E+10	1	-1E+10	1	-1E+10	1
4902554	41	C	03/23/2022	09:57	-136.105	49.462	0	112.80	0	6.0460	0	32.8980	0	25.888	0	111.808	0	-1e10	8	-1e10	8	-1E+10	1	-1E+10	1	-1E+10	1	-1E+10	1	-1E+10	1	-1E+10	1
4902554	41	C	03/23/2022	09:57	-136.105	49.462	0	113.90	0	6.0390	0	32.9130	0	25.900	0	112.898	0	-1e10	8	-1e10	8	-1E+10	1	-1E+10	1	-1E+10	1	-1E+10	1	-1E+10	1	-1E+10	1
4902554	41	C	03/23/2022	09:57	-136.105	49.462	0	114.80	0	6.0190	0	32.9620	0	25.941	0	113.790	0	-1e10	8	-1e10	8	-1E+10	1	-1E+10	1	-1E+10	1	-1E+10	1	-1E+10	1	-1E+10	1
4902554	41	C	03/23/2022	09:57	-136.105	49.462	0	115.80	0	5.9890	0	33.0120	0	25.985	0	114.781	0	-1e10	8	-1e10	8	-1E+10	1	-1E+10	1	-1E+10	1	-1E+10	1	-1E+10	1	-1E+10	1
4902554	41	C	03/23/2022	09:57	-136.105	49.462	0	116.80	0	5.9560	0	33.0320	0	26.004	0	115.772	0	-1e10	8	-1e10	8	-1E+10	1	-1E+10	1	-1E+10	1	-1E+10	1	-1E+10	1	-1E+10	1
4902554	41	C	03/23/2022	09:57	-136.105	49.462	0	117.80	0	5.9470	0	33.0350	0	26.008	0	116.763	0	-1e10	8	-1e10	8	-1E+10	1	-1E+10	1	-1E+10	1	-1E+10	1	-1E+10	1	-1E+10	1
4902554	41	C	03/23/2022	09:57	-136.105	49.462	0	119.10	0	5.9310	0	33.0520	0	26.023	0	118.051	0	-1e10	8	-1e10	8	-1E+10	1	-1E+10	1	-1E+10	1	-1E+10	1	-1E+10	1	-1E+10	1
4902554	41	C	03/23/2022	09:57	-136.105	49.462	0	120.10	0	5.9220	0	33.0640	0	26.034	0	119.042	0	-1e10	8	-1e10	8	-1E+10	1	-1E+10	1	-1E+10	1	-1E+10	1	-1E+10	1	-1E+10	1
4902554	41	C	03/23/2022	09:57	-136.105	49.462	0	121.00	0	5.9180	0	33.0690	0	26.038	0	119.933	0	-1e10	8	-1e10	8	-1E+10	1	-1E+10	1	-1E+10	1	-1E+10	1	-1E+10	1	-1E+10	1
4902554	41	C	03/23/2022	09:57	-136.105	49.462	0	122.00	0	5.9120	0	33.0790	0	26.047	0	120.924	0	-1e10	8	-1e10	8	-1E+10	1	-1E+10	1	-1E+10	1	-1E+10	1	-1E+10	1	-1E+10	1
4902554	41	C	03/23/2022	09:57	-136.105	49.462	0	122.70	0	5.8920	0	33.1090	0	26.073	0	121.618	0	-1e10	8	-1e10	8	-1E+10	1	-1E+10	1	-1E+10	1	-1E+10	1	-1E+10	1	-1E+10	1
4902554	41	C	03/23/2022	09:57	-136.105	49.462	0	123.80	0	5.8710	0	33.1370	0	26.098	0	122.708	0	-1e10	8	-1e10	8	-1E+10	1	-1E+10	1	-1E+10	1	-1E+10	1	-1E+10	1	-1E+10	1
4902554	41	C	03/23/2022	09:57	-136.105	49.462	0	124.90	0	5.8650	0	33.1410	0	26.102	0	123.798	0	-1e10	8	-1e10	8	-1E+10	1	-1E+10	1	-1E+10	1	-1E+10	1	-1E+10	1	-1E+10	1
4902554	41	C	03/23/2022	09:57	-136.105	49.462	0	125.90	0	5.8620	0	33.1430	0	26.104	0	124.789	0	-1e10	8	-1e10	8	-1E+10	1	-1E+10	1	-1E+10	1	-1E+10	1	-1E+10	1	-1E+10	1
4902554	41	C	03/23/2022	09:57	-136.105	49.462	0	127.10	0	5.8530	0	33.2170	0	26.163	0	125.978	0	-1e10	8	-1e10	8	-1E+10	1	-1E+10	1	-1E+10	1	-1E+10	1	-1E+10	1	-1E+10	1
4902554	41	C	03/23/2022	09:57	-136.105	49.462	0	127.80	0	5.8530	0	33.2480	0	26.188	0	126.671	0	-1e10	8	-1e10	8	-1E+10	1	-1E+10	1	-1E+10	1	-1E+10	1	-1E+10	1	-1E+10	1
4902554	41	C	03/23/2022	09:57	-136.105	49.462	0	129.00	0	5.8540	0	33.2570	0	26.195	0	127.860	0	-1e10	8	-1e10	8	-1E+10	1	-1E+10	1	-1E+10	1	-1E+10	1	-1E+10	1	-1E+10	1
4902554	41	C	03/23/2022	09:57	-136.105	49.462	0	130.10	0	5.8550	0	33.2630	0	26.199	0	128.950	0	-1e10	8	-1e10	8	-1E+10	1	-1E+10	1	-1E+10	1	-1E+10	1	-1E+10	1	-1E+10	1
4902554	41	C	03/23/2022	09:57	-136.105	49.462	0	130.80	0	5.8550	0	33.2720	0	26.207	0	129.644	0	-1e10	8	-1e10	8	-1E+10	1	-1E+10	1	-1E+10	1	-1E+10	1	-1E+10	1	-1E+10	1
4902554	41	C	03/23/2022	09:57	-136.105	49.462	0	131.90	0	5.8550	0	33.2780	0	26.211	0	130.734	0	-1e10	8	-1e10	8	-1E+10	1	-1E+10	1	-1E+10	1	-1E+10	1	-1E+10	1	-1E+10	1
4902554	41	C	03/23/2022	09:57	-136.105	49.462	0	132.90	0	5.8560	0	33.2900	0	26.221	0	131.725	0	-1e10	8	-1e10	8	-1E+10	1	-1E+10	1	-1E+10	1	-1E+10	1	-1E+10	1	-1E+10	1
4902554	41	C	03/23/2022	09:57	-136.105	49.462	0	133.90	0	5.8590	0	33.3100	0	26.236	0	132.716	0	-1e10	8	-1e10	8	-1E+10	1	-1E+10	1	-1E+10	1	-1E+10	1	-1E+10	1	-1E+10	1
4902554	41	C	03/23/2022	09:57	-136.105	49.462	0	134.90	0	5.8630	0	33.3170	0	26.241	0	133.706	0	-1e10	8	-1e10	8	-1E+10	1	-1E+10	1	-1E+10	1	-1E+10	1	-1E+10	1	-1E+10	1
4902554	41	C	03/23/2022	09:57	-136.105	49.462	0	136.00	0	5.8710	0	33.3520	0	26.268	0	134.796	0	-1e10	8	-1e10	8	-1E+10	1	-1E+10	1	-1E+10	1	-1E+10	1	-1E+10	1	-1E+10	1
4902554	41	C	03/23/2022	09:57	-136.105	49.462	0	137.20	0	5.8610	0	33.3800	0	26.291	0	135.985	0	-1e10	8	-1e10	8	-1E+10	1	-1E+10	1	-1E+10	1	-1E+10	1	-1E+10	1	-1E+10	1
4902554	41	C	03/23/2022	09:57	-136.105	49.462	0	138.00	0	5.8310	0	33.4280	0	26.333	0	136.778	0	-1e10	8	-1e10	8	-1E+10	1	-1E+10	1	-1E+10	1	-1E+10	1	-1E+10	1	-1E+10	1
4902554	41	C	03/23/2022	09:57	-136.105	49.462	0	138.80	0	5.8360	0	33.4420	0	26.343	0	137.571	0	-1e10	8	-1e10	8	-1E+10	1	-1E+10	1	-1E+10	1	-1E+10	1	-1E+10	1	-1E+10	1
4902554	41	C	03/23/2022	09:57	-136.105	49.462	0	139.70	0	5.8420	0	33.4480	0	26.347	0	138.462	0	-1e10	8	-1e10	8	-1E+10	1	-1E+10	1	-1E+10	1	-1E+10	1	-1E+10	1	-1E+10	1
4902554	41	C	03/23/2022	09:57	-136.105	49.462	0	140.90	0	5.8560	0	33.4650	0	26.359	0	139.651	0	-1e10	8	-1e10	8	-1E+10	1	-1E+10	1	-1E+10	1	-1E+10	1	-1E+10	1	-1E+10	1
4902554	41	C	03/23/2022	09:57	-136.105	49.462	0	142.20	0	5.8620	0	33.4740	0	26.366	0	140.939	0	-1e10	8	-1e10	8	-1E+10	1	-1E+10	1	-1E+10	1	-1E+10	1	-1E+10	1	-1E+10	1
4902554	41	C	03/23/2022	09:57	-136.105	49.462	0	143.00	0	5.8660	0	33.4800	0	26.370	0	141.732	0	-1e10	8	-1e10	8	-1E+10	1	-1E+10	1	-1E+10	1	-1E+10	1	-1E+10	1	-1E+10	1
4902554	41	C	03/23/2022	09:57	-136.105	49.462	0	143.90	0	5.8690	0	33.4890	0	26.377	0	142.624	0	-1e10	8	-1e10	8	-1E+10	1	-1E+10	1	-1E+10	1	-1E+10	1	-1E+10	1	-1E+10	1
4902554	41	C	03/23/2022	09:57	-136.105	49.462	0	144.70	0	5.8750	0	33.4980	0	26.383	0	143.416	0	-1e10	8	-1e10	8	-1E+10	1	-1E+10	1	-1E+10	1	-1E+10	1	-1E+10	1	-1E+10	1
4902554	41	C	03/23/2022	09:57	-136.105	49.462	0	145.60	0	5.9020	0	33.5360	0	26.410	0	144.308	0	-1e10	8	-1e10	8	-1E+10	1	-1E+10	1	-1E+10	1	-1E+10	1	-1E+10	1	-1E+10	1
4902554	41	C	03/23/2022	09:57	-136.105	49.462	0	146.50	0	5.9020	0	33.5380	0	26.411	0	145.200	0	-1e10	8	-1e10	8	-1E+10	1	-1E+10	1	-1E+10	1	-1E+10	1	-1E+10	1	-1E+10	1
4902554	41	C	03/23/2022	09:57	-136.105	49.462	0	147.90	0	5.9070	0	33.5530	0	26.422	0	146.587	0	-1e10	8	-1e10	8	-1E+10	1	-1E+10	1	-1E+10	1	-1E+10	1	-1E+10	1	-1E+10	1
4902554	41	C	03/23/2022	09:57	-136.105	49.462	0	149.30	0	5.9080	0	33.5590	0	26.427	0	147.974	0	-1e10	8	-1e10	8	-1E+10	1	-1E+10	1	-1E+10	1	-1E+10	1	-1E+10	1	-1E+10	1
4902554	41	C	03/23/2022	09:57	-136.105	49.462	0	150.20	0	5.9090	0	33.5630	0	26.430	0	148.865	0	-1e10	8	-1e10	8	-1E+10	1	-1E+10	1	-1E+10	1	-1E+10	1	-1E+10	1	-1E+10	1
4902554	41	C	03/23/2022	09:57	-136.105	49.462	0	151.10	0	5.9130	0	33.5720	0	26.437	0	149.757	0	-1e10	8	-1e10	8	-1E+10	1	-1E+10	1	-1E+10	1	-1E+10	1	-1E+10	1	-1E+10	1
4902554	41	C	03/23/2022	09:57	-136.105	49.462	0	152.10	0	5.9260	0	33.6060	0	26.462	0	150.748	0	-1e10	8	-1e10	8	-1E+10	1	-1E+10	1	-1E+10	1	-1E+10	1	-1E+10	1	-1E+10	1
4902554	41	C	03/23/2022	09:57	-136.105	49.462	0	153.10	0	5.9230	0	33.6270	0	26.479	0	151.739	0	-1e10	8	-1e10	8	-1E+10	1	-1E+10	1	-1E+10	1	-1E+10	1	-1E+10	1	-1E+10	1
4902554	41	C	03/23/2022	09:57	-136.105	49.462	0	154.00	0	5.9140	0	33.6350	0	26.487	0	152.630	0	-1e10	8	-1e10	8	-1E+10	1	-1E+10	1	-1E+10	1	-1E+10	1	-1E+10	1	-1E+10	1
4902554	41	C	03/23/2022	09:57	-136.105	49.462	0	155.00	0	5.9090	0	33.6400	0	26.491	0	153.621	0	-1e10	8	-1e10	8	-1E+10	1	-1E+10	1	-1E+10	1	-1E+10	1	-1E+10	1	-1E+10	1
4902554	41	C	03/23/2022	09:57	-136.105	49.462	0	156.00	0	5.9040	0	33.6430	0	26.494	0	154.612	0	-1e10	8	-1e10	8	-1E+10	1	-1E+10	1	-1E+10	1	-1E+10	1	-1E+10	1	-1E+10	1
4902554	41	C	03/23/2022	09:57	-136.105	49.462	0	157.00	0	5.9000	0	33.6470	0	26.498	0	155.603	0	-1e10	8	-1e10	8	-1E+10	1	-1E+10	1	-1E+10	1	-1E+10	1	-1E+10	1	-1E+10	1
4902554	41	C	03/23/2022	09:57	-136.105	49.462	0	158.00	0	5.8980	0	33.6490	0	26.500	0	156.593	0	-1e10	8	-1e10	8	-1E+10	1	-1E+10	1	-1E+10	1	-1E+10	1	-1E+10	1	-1E+10	1
4902554	41	C	03/23/2022	09:57	-136.105	49.462	0	159.10	0	5.8960	0	33.6530	0	26.503	0	157.683	0	-1e10	8	-1e10	8	-1E+10	1	-1E+10	1	-1E+10	1	-1E+10	1	-1E+10	1	-1E+10	1
4902554	41	C	03/23/2022	09:57	-136.105	49.462	0	160.10	0	5.8960	0	33.6560	0	26.505	0	158.674	0	-1e10	8	-1e10	8	-1E+10	1	-1E+10	1	-1E+10	1	-1E+10	1	-1E+10	1	-1E+10	1
4902554	41	C	03/23/2022	09:57	-136.105	49.462	0	161.10	0	5.8950	0	33.6600	0	26.509	0	159.664	0	-1e10	8	-1e10	8	-1E+10	1	-1E+10	1	-1E+10	1	-1E+10	1	-1E+10	1	-1E+10	1
4902554	41	C	03/23/2022	09:57	-136.105	49.462	0	162.10	0	5.8930	0	33.6640	0	26.512	0	160.655	0	-1e10	8	-1e10	8	-1E+10	1	-1E+10	1	-1E+10	1	-1E+10	1	-1E+10	1	-1E+10	1
4902554	41	C	03/23/2022	09:57	-136.105	49.462	0	163.10	0	5.8840	0	33.6700	0	26.518	0	161.646	0	-1e10	8	-1e10	8	-1E+10	1	-1E+10	1	-1E+10	1	-1E+10	1	-1E+10	1	-1E+10	1
4902554	41	C	03/23/2022	09:57	-136.105	49.462	0	164.10	0	5.8710	0	33.6760	0	26.524	0	162.637	0	-1e10	8	-1e10	8	-1E+10	1	-1E+10	1	-1E+10	1	-1E+10	1	-1E+10	1	-1E+10	1
4902554	41	C	03/23/2022	09:57	-136.105	49.462	0	165.20	0	5.8340	0	33.6880	0	26.538	0	163.726	0	-1e10	8	-1e10	8	-1E+10	1	-1E+10	1	-1E+10	1	-1E+10	1	-1E+10	1	-1E+10	1
4902554	41	C	03/23/2022	09:57	-136.105	49.462	0	166.20	0	5.8270	0	33.6900	0	26.541	0	164.717	0	-1e10	8	-1e10	8	-1E+10	1	-1E+10	1	-1E+10	1	-1E+10	1	-1E+10	1	-1E+10	1
4902554	41	C	03/23/2022	09:57	-136.105	49.462	0	167.30	0	5.7910	0	33.6990	0	26.552	0	165.807	0	-1e10	8	-1e10	8	-1E+10	1	-1E+10	1	-1E+10	1	-1E+10	1	-1E+10	1	-1E+10	1
4902554	41	C	03/23/2022	09:57	-136.105	49.462	0	168.40	0	5.7820	0	33.6990	0	26.553	0	166.896	0	-1e10	8	-1e10	8	-1E+10	1	-1E+10	1	-1E+10	1	-1E+10	1	-1E+10	1	-1E+10	1
4902554	41	C	03/23/2022	09:57	-136.105	49.462	0	169.40	0	5.7740	0	33.6990	0	26.554	0	167.887	0	-1e10	8	-1e10	8	-1E+10	1	-1E+10	1	-1E+10	1	-1E+10	1	-1E+10	1	-1E+10	1
4902554	41	C	03/23/2022	09:57	-136.105	49.462	0	170.50	0	5.7580	0	33.7020	0	26.559	0	168.977	0	-1e10	8	-1e10	8	-1E+10	1	-1E+10	1	-1E+10	1	-1E+10	1	-1E+10	1	-1E+10	1
4902554	41	C	03/23/2022	09:57	-136.105	49.462	0	171.50	0	5.7520	0	33.7030	0	26.560	0	169.967	0	-1e10	8	-1e10	8	-1E+10	1	-1E+10	1	-1E+10	1	-1E+10	1	-1E+10	1	-1E+10	1
4902554	41	C	03/23/2022	09:57	-136.105	49.462	0	172.60	0	5.7380	0	33.7060	0	26.564	0	171.057	0	-1e10	8	-1e10	8	-1E+10	1	-1E+10	1	-1E+10	1	-1E+10	1	-1E+10	1	-1E+10	1
4902554	41	C	03/23/2022	09:57	-136.105	49.462	0	173.70	0	5.7230	0	33.7080	0	26.568	0	172.147	0	-1e10	8	-1e10	8	-1E+10	1	-1E+10	1	-1E+10	1	-1E+10	1	-1E+10	1	-1E+10	1
4902554	41	C	03/23/2022	09:57	-136.105	49.462	0	174.70	0	5.7200	0	33.7080	0	26.568	0	173.138	0	-1e10	8	-1e10	8	-1E+10	1	-1E+10	1	-1E+10	1	-1E+10	1	-1E+10	1	-1E+10	1
4902554	41	C	03/23/2022	09:57	-136.105	49.462	0	175.80	0	5.7090	0	33.7130	0	26.573	0	174.227	0	-1e10	8	-1e10	8	-1E+10	1	-1E+10	1	-1E+10	1	-1E+10	1	-1E+10	1	-1E+10	1
4902554	41	C	03/23/2022	09:57	-136.105	49.462	0	176.90	0	5.6870	0	33.7120	0	26.575	0	175.317	0	-1e10	8	-1e10	8	-1E+10	1	-1E+10	1	-1E+10	1	-1E+10	1	-1E+10	1	-1E+10	1
4902554	41	C	03/23/2022	09:57	-136.105	49.462	0	177.90	0	5.6570	0	33.7140	0	26.581	0	176.308	0	-1e10	8	-1e10	8	-1E+10	1	-1E+10	1	-1E+10	1	-1E+10	1	-1E+10	1	-1E+10	1
4902554	41	C	03/23/2022	09:57	-136.105	49.462	0	179.00	0	5.6210	0	33.7190	0	26.589	0	177.397	0	-1e10	8	-1e10	8	-1E+10	1	-1E+10	1	-1E+10	1	-1E+10	1	-1E+10	1	-1E+10	1
4902554	41	C	03/23/2022	09:57	-136.105	49.462	0	180.00	0	5.6080	0	33.7200	0	26.591	0	178.388	0	-1e10	8	-1e10	8	-1E+10	1	-1E+10	1	-1E+10	1	-1E+10	1	-1E+10	1	-1E+10	1
4902554	41	C	03/23/2022	09:57	-136.105	49.462	0	181.10	0	5.5760	0	33.7230	0	26.597	0	179.478	0	-1e10	8	-1e10	8	-1E+10	1	-1E+10	1	-1E+10	1	-1E+10	1	-1E+10	1	-1E+10	1
4902554	41	C	03/23/2022	09:57	-136.105	49.462	0	182.10	0	5.5420	0	33.7260	0	26.604	0	180.468	0	-1e10	8	-1e10	8	-1E+10	1	-1E+10	1	-1E+10	1	-1E+10	1	-1E+10	1	-1E+10	1
4902554	41	C	03/23/2022	09:57	-136.105	49.462	0	183.20	0	5.5380	0	33.7260	0	26.604	0	181.558	0	-1e10	8	-1e10	8	-1E+10	1	-1E+10	1	-1E+10	1	-1E+10	1	-1E+10	1	-1E+10	1
4902554	41	C	03/23/2022	09:57	-136.105	49.462	0	184.20	0	5.5090	0	33.7300	0	26.611	0	182.548	0	-1e10	8	-1e10	8	-1E+10	1	-1E+10	1	-1E+10	1	-1E+10	1	-1E+10	1	-1E+10	1
4902554	41	C	03/23/2022	09:57	-136.105	49.462	0	185.30	0	5.5020	0	33.7300	0	26.612	0	183.638	0	-1e10	8	-1e10	8	-1E+10	1	-1E+10	1	-1E+10	1	-1E+10	1	-1E+10	1	-1E+10	1
4902554	41	C	03/23/2022	09:57	-136.105	49.462	0	186.30	0	5.5000	0	33.7300	0	26.612	0	184.629	0	-1e10	8	-1e10	8	-1E+10	1	-1E+10	1	-1E+10	1	-1E+10	1	-1E+10	1	-1E+10	1
4902554	41	C	03/23/2022	09:57	-136.105	49.462	0	187.40	0	5.5000	0	33.7290	0	26.611	0	185.718	0	-1e10	8	-1e10	8	-1E+10	1	-1E+10	1	-1E+10	1	-1E+10	1	-1E+10	1	-1E+10	1
4902554	41	C	03/23/2022	09:57	-136.105	49.462	0	188.40	0	5.4950	0	33.7320	0	26.614	0	186.709	0	-1e10	8	-1e10	8	-1E+10	1	-1E+10	1	-1E+10	1	-1E+10	1	-1E+10	1	-1E+10	1
4902554	41	C	03/23/2022	09:57	-136.105	49.462	0	189.50	0	5.4370	0	33.7360	0	26.624	0	187.798	0	-1e10	8	-1e10	8	-1E+10	1	-1E+10	1	-1E+10	1	-1E+10	1	-1E+10	1	-1E+10	1
4902554	41	C	03/23/2022	09:57	-136.105	49.462	0	190.50	0	5.4150	0	33.7380	0	26.629	0	188.789	0	-1e10	8	-1e10	8	-1E+10	1	-1E+10	1	-1E+10	1	-1E+10	1	-1E+10	1	-1E+10	1
4902554	41	C	03/23/2022	09:57	-136.105	49.462	0	191.60	0	5.3980	0	33.7410	0	26.633	0	189.879	0	-1e10	8	-1e10	8	-1E+10	1	-1E+10	1	-1E+10	1	-1E+10	1	-1E+10	1	-1E+10	1
4902554	41	C	03/23/2022	09:57	-136.105	49.462	0	192.60	0	5.3900	0	33.7460	0	26.638	0	190.869	0	-1e10	8	-1e10	8	-1E+10	1	-1E+10	1	-1E+10	1	-1E+10	1	-1E+10	1	-1E+10	1
4902554	41	C	03/23/2022	09:57	-136.105	49.462	0	193.70	0	5.3800	0	33.7500	0	26.642	0	191.959	0	-1e10	8	-1e10	8	-1E+10	1	-1E+10	1	-1E+10	1	-1E+10	1	-1E+10	1	-1E+10	1
4902554	41	C	03/23/2022	09:57	-136.105	49.462	0	194.70	0	5.3530	0	33.7540	0	26.649	0	192.949	0	-1e10	8	-1e10	8	-1E+10	1	-1E+10	1	-1E+10	1	-1E+10	1	-1E+10	1	-1E+10	1
4902554	41	C	03/23/2022	09:57	-136.105	49.462	0	195.70	0	5.3360	0	33.7580	0	26.654	0	193.940	0	-1e10	8	-1e10	8	-1E+10	1	-1E+10	1	-1E+10	1	-1E+10	1	-1E+10	1	-1E+10	1
4902554	41	C	03/23/2022	09:57	-136.105	49.462	0	196.70	0	5.3170	0	33.7580	0	26.656	0	194.930	0	-1e10	8	-1e10	8	-1E+10	1	-1E+10	1	-1E+10	1	-1E+10	1	-1E+10	1	-1E+10	1
4902554	41	C	03/23/2022	09:57	-136.105	49.462	0	197.70	0	5.3060	0	33.7570	0	26.656	0	195.921	0	-1e10	8	-1e10	8	-1E+10	1	-1E+10	1	-1E+10	1	-1E+10	1	-1E+10	1	-1E+10	1
4902554	41	C	03/23/2022	09:57	-136.105	49.462	0	198.90	0	5.2520	0	33.7610	0	26.666	0	197.110	0	-1e10	8	-1e10	8	-1E+10	1	-1E+10	1	-1E+10	1	-1E+10	1	-1E+10	1	-1E+10	1
4902554	41	C	03/23/2022	09:57	-136.105	49.462	0	200.00	0	5.2060	0	33.7640	0	26.674	0	198.199	0	-1e10	8	-1e10	8	-1E+10	1	-1E+10	1	-1E+10	1	-1E+10	1	-1E+10	1	-1E+10	1
4902554	41	C	03/23/2022	09:57	-136.105	49.462	0	200.80	0	5.1930	0	33.7650	0	26.676	0	198.992	0	-1e10	8	-1e10	8	-1E+10	1	-1E+10	1	-1E+10	1	-1E+10	1	-1E+10	1	-1E+10	1
4902554	41	C	03/23/2022	09:57	-136.105	49.462	0	202.00	0	5.1810	0	33.7650	0	26.677	0	200.180	0	-1e10	8	-1e10	8	-1E+10	1	-1E+10	1	-1E+10	1	-1E+10	1	-1E+10	1	-1E+10	1
4902554	41	C	03/23/2022	09:57	-136.105	49.462	0	203.20	0	5.1620	0	33.7610	0	26.676	0	201.369	0	-1e10	8	-1e10	8	-1E+10	1	-1E+10	1	-1E+10	1	-1E+10	1	-1E+10	1	-1E+10	1
4902554	41	C	03/23/2022	09:57	-136.105	49.462	0	204.00	0	5.1460	0	33.7660	0	26.682	0	202.161	0	-1e10	8	-1e10	8	-1E+10	1	-1E+10	1	-1E+10	1	-1E+10	1	-1E+10	1	-1E+10	1
4902554	41	C	03/23/2022	09:57	-136.105	49.462	0	204.80	0	5.1410	0	33.7680	0	26.684	0	202.954	0	-1e10	8	-1e10	8	-1E+10	1	-1E+10	1	-1E+10	1	-1E+10	1	-1E+10	1	-1E+10	1
4902554	41	C	03/23/2022	09:57	-136.105	49.462	0	206.00	0	5.1410	0	33.7680	0	26.684	0	204.142	0	-1e10	8	-1e10	8	-1E+10	1	-1E+10	1	-1E+10	1	-1E+10	1	-1E+10	1	-1E+10	1
4902554	41	C	03/23/2022	09:57	-136.105	49.462	0	207.20	0	5.1410	0	33.7660	0	26.683	0	205.331	0	-1e10	8	-1e10	8	-1E+10	1	-1E+10	1	-1E+10	1	-1E+10	1	-1E+10	1	-1E+10	1
4902554	41	C	03/23/2022	09:57	-136.105	49.462	0	208.00	0	5.1230	0	33.7670	0	26.686	0	206.123	0	-1e10	8	-1e10	8	-1E+10	1	-1E+10	1	-1E+10	1	-1E+10	1	-1E+10	1	-1E+10	1
4902554	41	C	03/23/2022	09:57	-136.105	49.462	0	208.80	0	5.1180	0	33.7670	0	26.686	0	206.916	0	-1e10	8	-1e10	8	-1E+10	1	-1E+10	1	-1E+10	1	-1E+10	1	-1E+10	1	-1E+10	1
4902554	41	C	03/23/2022	09:57	-136.105	49.462	0	210.00	0	5.0960	0	33.7680	0	26.690	0	208.104	0	-1e10	8	-1e10	8	-1E+10	1	-1E+10	1	-1E+10	1	-1E+10	1	-1E+10	1	-1E+10	1
4902554	41	C	03/23/2022	09:57	-136.105	49.462	0	211.20	0	5.0810	0	33.7700	0	26.693	0	209.293	0	-1e10	8	-1e10	8	-1E+10	1	-1E+10	1	-1E+10	1	-1E+10	1	-1E+10	1	-1E+10	1
4902554	41	C	03/23/2022	09:57	-136.105	49.462	0	212.10	0	5.0520	0	33.7730	0	26.699	0	210.184	0	-1e10	8	-1e10	8	-1E+10	1	-1E+10	1	-1E+10	1	-1E+10	1	-1E+10	1	-1E+10	1
4902554	41	C	03/23/2022	09:57	-136.105	49.462	0	213.00	0	5.0260	0	33.7750	0	26.703	0	211.075	0	-1e10	8	-1e10	8	-1E+10	1	-1E+10	1	-1E+10	1	-1E+10	1	-1E+10	1	-1E+10	1
4902554	41	C	03/23/2022	09:57	-136.105	49.462	0	213.80	0	5.0200	0	33.7770	0	26.705	0	211.868	0	-1e10	8	-1e10	8	-1E+10	1	-1E+10	1	-1E+10	1	-1E+10	1	-1E+10	1	-1E+10	1
4902554	41	C	03/23/2022	09:57	-136.105	49.462	0	214.70	0	5.0150	0	33.7770	0	26.706	0	212.759	0	-1e10	8	-1e10	8	-1E+10	1	-1E+10	1	-1E+10	1	-1E+10	1	-1E+10	1	-1E+10	1
4902554	41	C	03/23/2022	09:57	-136.105	49.462	0	216.00	0	5.0110	0	33.7780	0	26.707	0	214.047	0	-1e10	8	-1e10	8	-1E+10	1	-1E+10	1	-1E+10	1	-1E+10	1	-1E+10	1	-1E+10	1
4902554	41	C	03/23/2022	09:57	-136.105	49.462	0	217.30	0	5.0080	0	33.7780	0	26.708	0	215.334	0	-1e10	8	-1e10	8	-1E+10	1	-1E+10	1	-1E+10	1	-1E+10	1	-1E+10	1	-1E+10	1
4902554	41	C	03/23/2022	09:57	-136.105	49.462	0	218.20	0	5.0030	0	33.7790	0	26.709	0	216.226	0	-1e10	8	-1e10	8	-1E+10	1	-1E+10	1	-1E+10	1	-1E+10	1	-1E+10	1	-1E+10	1
4902554	41	C	03/23/2022	09:57	-136.105	49.462	0	219.10	0	5.0010	0	33.7780	0	26.708	0	217.117	0	-1e10	8	-1e10	8	-1E+10	1	-1E+10	1	-1E+10	1	-1E+10	1	-1E+10	1	-1E+10	1
4902554	41	C	03/23/2022	09:57	-136.105	49.462	0	219.90	0	4.9990	0	33.7780	0	26.709	0	217.909	0	-1e10	8	-1e10	8	-1E+10	1	-1E+10	1	-1E+10	1	-1E+10	1	-1E+10	1	-1E+10	1
4902554	41	C	03/23/2022	09:57	-136.105	49.462	0	220.80	0	4.9890	0	33.7790	0	26.711	0	218.801	0	-1e10	8	-1e10	8	-1E+10	1	-1E+10	1	-1E+10	1	-1E+10	1	-1E+10	1	-1E+10	1
4902554	41	C	03/23/2022	09:57	-136.105	49.462	0	221.70	0	4.9730	0	33.7810	0	26.714	0	219.692	0	-1e10	8	-1e10	8	-1E+10	1	-1E+10	1	-1E+10	1	-1E+10	1	-1E+10	1	-1E+10	1
4902554	41	C	03/23/2022	09:57	-136.105	49.462	0	223.00	0	4.9530	0	33.7830	0	26.718	0	220.980	0	-1e10	8	-1e10	8	-1E+10	1	-1E+10	1	-1E+10	1	-1E+10	1	-1E+10	1	-1E+10	1
4902554	41	C	03/23/2022	09:57	-136.105	49.462	0	224.30	0	4.9440	0	33.7840	0	26.720	0	222.267	0	-1e10	8	-1e10	8	-1E+10	1	-1E+10	1	-1E+10	1	-1E+10	1	-1E+10	1	-1E+10	1
4902554	41	C	03/23/2022	09:57	-136.105	49.462	0	225.20	0	4.9410	0	33.7840	0	26.720	0	223.159	0	-1e10	8	-1e10	8	-1E+10	1	-1E+10	1	-1E+10	1	-1E+10	1	-1E+10	1	-1E+10	1
4902554	41	C	03/23/2022	09:57	-136.105	49.462	0	226.20	0	4.9350	0	33.7850	0	26.721	0	224.149	0	-1e10	8	-1e10	8	-1E+10	1	-1E+10	1	-1E+10	1	-1E+10	1	-1E+10	1	-1E+10	1
4902554	41	C	03/23/2022	09:57	-136.105	49.462	0	227.10	0	4.9320	0	33.7850	0	26.722	0	225.040	0	-1e10	8	-1e10	8	-1E+10	1	-1E+10	1	-1E+10	1	-1E+10	1	-1E+10	1	-1E+10	1
4902554	41	C	03/23/2022	09:57	-136.105	49.462	0	228.00	0	4.9290	0	33.7840	0	26.721	0	225.932	0	-1e10	8	-1e10	8	-1E+10	1	-1E+10	1	-1E+10	1	-1E+10	1	-1E+10	1	-1E+10	1
4902554	41	C	03/23/2022	09:57	-136.105	49.462	0	228.90	0	4.9250	0	33.7850	0	26.723	0	226.823	0	-1e10	8	-1e10	8	-1E+10	1	-1E+10	1	-1E+10	1	-1E+10	1	-1E+10	1	-1E+10	1
4902554	41	C	03/23/2022	09:57	-136.105	49.462	0	229.80	0	4.9240	0	33.7840	0	26.722	0	227.714	0	-1e10	8	-1e10	8	-1E+10	1	-1E+10	1	-1E+10	1	-1E+10	1	-1E+10	1	-1E+10	1
4902554	41	C	03/23/2022	09:57	-136.105	49.462	0	230.80	0	4.9030	0	33.7930	0	26.731	0	228.705	0	-1e10	8	-1e10	8	-1E+10	1	-1E+10	1	-1E+10	1	-1E+10	1	-1E+10	1	-1E+10	1
4902554	41	C	03/23/2022	09:57	-136.105	49.462	0	231.70	0	4.8910	0	33.7880	0	26.729	0	229.596	0	-1e10	8	-1e10	8	-1E+10	1	-1E+10	1	-1E+10	1	-1E+10	1	-1E+10	1	-1E+10	1
4902554	41	C	03/23/2022	09:57	-136.105	49.462	0	232.60	0	4.8860	0	33.7890	0	26.730	0	230.487	0	-1e10	8	-1e10	8	-1E+10	1	-1E+10	1	-1E+10	1	-1E+10	1	-1E+10	1	-1E+10	1
4902554	41	C	03/23/2022	09:57	-136.105	49.462	0	233.90	0	4.8820	0	33.7890	0	26.731	0	231.775	0	-1e10	8	-1e10	8	-1E+10	1	-1E+10	1	-1E+10	1	-1E+10	1	-1E+10	1	-1E+10	1
4902554	41	C	03/23/2022	09:57	-136.105	49.462	0	235.40	0	4.8580	0	33.7940	0	26.737	0	233.260	0	-1e10	8	-1e10	8	-1E+10	1	-1E+10	1	-1E+10	1	-1E+10	1	-1E+10	1	-1E+10	1
4902554	41	C	03/23/2022	09:57	-136.105	49.462	0	236.30	0	4.8320	0	33.7950	0	26.741	0	234.152	0	-1e10	8	-1e10	8	-1E+10	1	-1E+10	1	-1E+10	1	-1E+10	1	-1E+10	1	-1E+10	1
4902554	41	C	03/23/2022	09:57	-136.105	49.462	0	237.20	0	4.8310	0	33.7950	0	26.741	0	235.043	0	-1e10	8	-1e10	8	-1E+10	1	-1E+10	1	-1E+10	1	-1E+10	1	-1E+10	1	-1E+10	1
4902554	41	C	03/23/2022	09:57	-136.105	49.462	0	238.10	0	4.8310	0	33.7950	0	26.741	0	235.934	0	-1e10	8	-1e10	8	-1E+10	1	-1E+10	1	-1E+10	1	-1E+10	1	-1E+10	1	-1E+10	1
4902554	41	C	03/23/2022	09:57	-136.105	49.462	0	239.10	0	4.8330	0	33.7940	0	26.740	0	236.925	0	-1e10	8	-1e10	8	-1E+10	1	-1E+10	1	-1E+10	1	-1E+10	1	-1E+10	1	-1E+10	1
4902554	41	C	03/23/2022	09:57	-136.105	49.462	0	240.10	0	4.8340	0	33.7940	0	26.740	0	237.915	0	-1e10	8	-1e10	8	-1E+10	1	-1E+10	1	-1E+10	1	-1E+10	1	-1E+10	1	-1E+10	1
4902554	41	C	03/23/2022	09:57	-136.105	49.462	0	241.00	0	4.8180	0	33.7970	0	26.744	0	238.806	0	-1e10	8	-1e10	8	-1E+10	1	-1E+10	1	-1E+10	1	-1E+10	1	-1E+10	1	-1E+10	1
4902554	41	C	03/23/2022	09:57	-136.105	49.462	0	242.00	0	4.8000	0	33.7990	0	26.748	0	239.797	0	-1e10	8	-1e10	8	-1E+10	1	-1E+10	1	-1E+10	1	-1E+10	1	-1E+10	1	-1E+10	1
4902554	41	C	03/23/2022	09:57	-136.105	49.462	0	243.00	0	4.7970	0	33.7990	0	26.748	0	240.787	0	-1e10	8	-1e10	8	-1E+10	1	-1E+10	1	-1E+10	1	-1E+10	1	-1E+10	1	-1E+10	1
4902554	41	C	03/23/2022	09:57	-136.105	49.462	0	243.90	0	4.7800	0	33.8010	0	26.752	0	241.678	0	-1e10	8	-1e10	8	-1E+10	1	-1E+10	1	-1E+10	1	-1E+10	1	-1E+10	1	-1E+10	1
4902554	41	C	03/23/2022	09:57	-136.105	49.462	0	244.90	0	4.7760	0	33.8030	0	26.754	0	242.669	0	-1e10	8	-1e10	8	-1E+10	1	-1E+10	1	-1E+10	1	-1E+10	1	-1E+10	1	-1E+10	1
4902554	41	C	03/23/2022	09:57	-136.105	49.462	0	245.90	0	4.7690	0	33.8060	0	26.757	0	243.659	0	-1e10	8	-1e10	8	-1E+10	1	-1E+10	1	-1E+10	1	-1E+10	1	-1E+10	1	-1E+10	1
4902554	41	C	03/23/2022	09:57	-136.105	49.462	0	246.90	0	4.7600	0	33.8110	0	26.762	0	244.649	0	-1e10	8	-1e10	8	-1E+10	1	-1E+10	1	-1E+10	1	-1E+10	1	-1E+10	1	-1E+10	1
4902554	41	C	03/23/2022	09:57	-136.105	49.462	0	247.90	0	4.7600	0	33.8120	0	26.763	0	245.639	0	-1e10	8	-1e10	8	-1E+10	1	-1E+10	1	-1E+10	1	-1E+10	1	-1E+10	1	-1E+10	1
4902554	41	C	03/23/2022	09:57	-136.105	49.462	0	249.00	0	4.7590	0	33.8140	0	26.764	0	246.729	0	-1e10	8	-1e10	8	-1E+10	1	-1E+10	1	-1E+10	1	-1E+10	1	-1E+10	1	-1E+10	1
4902554	41	C	03/23/2022	09:57	-136.105	49.462	0	250.00	0	4.7590	0	33.8140	0	26.764	0	247.719	0	-1e10	8	-1e10	8	-1E+10	1	-1E+10	1	-1E+10	1	-1E+10	1	-1E+10	1	-1E+10	1
4902554	41	C	03/23/2022	09:57	-136.105	49.462	0	251.00	0	4.7590	0	33.8140	0	26.764	0	248.709	0	-1e10	8	-1e10	8	-1E+10	1	-1E+10	1	-1E+10	1	-1E+10	1	-1E+10	1	-1E+10	1
4902554	41	C	03/23/2022	09:57	-136.105	49.462	0	252.10	0	4.7700	0	33.8180	0	26.766	0	249.799	0	-1e10	8	-1e10	8	-1E+10	1	-1E+10	1	-1E+10	1	-1E+10	1	-1E+10	1	-1E+10	1
4902554	41	C	03/23/2022	09:57	-136.105	49.462	0	253.10	0	4.7660	0	33.8170	0	26.766	0	250.789	0	-1e10	8	-1e10	8	-1E+10	1	-1E+10	1	-1E+10	1	-1E+10	1	-1E+10	1	-1E+10	1
4902554	41	C	03/23/2022	09:57	-136.105	49.462	0	254.20	0	4.7640	0	33.8190	0	26.768	0	251.878	0	-1e10	8	-1e10	8	-1E+10	1	-1E+10	1	-1E+10	1	-1E+10	1	-1E+10	1	-1E+10	1
4902554	41	C	03/23/2022	09:57	-136.105	49.462	0	255.20	0	4.7530	0	33.8210	0	26.770	0	252.868	0	-1e10	8	-1e10	8	-1E+10	1	-1E+10	1	-1E+10	1	-1E+10	1	-1E+10	1	-1E+10	1
4902554	41	C	03/23/2022	09:57	-136.105	49.462	0	256.30	0	4.7510	0	33.8220	0	26.772	0	253.958	0	-1e10	8	-1e10	8	-1E+10	1	-1E+10	1	-1E+10	1	-1E+10	1	-1E+10	1	-1E+10	1
4902554	41	C	03/23/2022	09:57	-136.105	49.462	0	257.30	0	4.7490	0	33.8220	0	26.772	0	254.948	0	-1e10	8	-1e10	8	-1E+10	1	-1E+10	1	-1E+10	1	-1E+10	1	-1E+10	1	-1E+10	1
4902554	41	C	03/23/2022	09:57	-136.105	49.462	0	258.40	0	4.7450	0	33.8220	0	26.772	0	256.037	0	-1e10	8	-1e10	8	-1E+10	1	-1E+10	1	-1E+10	1	-1E+10	1	-1E+10	1	-1E+10	1
4902554	41	C	03/23/2022	09:57	-136.105	49.462	0	259.40	0	4.7450	0	33.8220	0	26.772	0	257.027	0	-1e10	8	-1e10	8	-1E+10	1	-1E+10	1	-1E+10	1	-1E+10	1	-1E+10	1	-1E+10	1
4902554	41	C	03/23/2022	09:57	-136.105	49.462	0	260.50	0	4.7330	0	33.8230	0	26.774	0	258.117	0	-1e10	8	-1e10	8	-1E+10	1	-1E+10	1	-1E+10	1	-1E+10	1	-1E+10	1	-1E+10	1
4902554	41	C	03/23/2022	09:57	-136.105	49.462	0	261.60	0	4.7280	0	33.8220	0	26.774	0	259.206	0	-1e10	8	-1e10	8	-1E+10	1	-1E+10	1	-1E+10	1	-1E+10	1	-1E+10	1	-1E+10	1
4902554	41	C	03/23/2022	09:57	-136.105	49.462	0	262.70	0	4.7140	0	33.8240	0	26.777	0	260.295	0	-1e10	8	-1e10	8	-1E+10	1	-1E+10	1	-1E+10	1	-1E+10	1	-1E+10	1	-1E+10	1
4902554	41	C	03/23/2022	09:57	-136.105	49.462	0	263.80	0	4.7070	0	33.8310	0	26.784	0	261.384	0	-1e10	8	-1e10	8	-1E+10	1	-1E+10	1	-1E+10	1	-1E+10	1	-1E+10	1	-1E+10	1
4902554	41	C	03/23/2022	09:57	-136.105	49.462	0	264.90	0	4.7040	0	33.8300	0	26.783	0	262.474	0	-1e10	8	-1e10	8	-1E+10	1	-1E+10	1	-1E+10	1	-1E+10	1	-1E+10	1	-1E+10	1
4902554	41	C	03/23/2022	09:57	-136.105	49.462	0	266.00	0	4.7030	0	33.8310	0	26.784	0	263.563	0	-1e10	8	-1e10	8	-1E+10	1	-1E+10	1	-1E+10	1	-1E+10	1	-1E+10	1	-1E+10	1
4902554	41	C	03/23/2022	09:57	-136.105	49.462	0	267.10	0	4.7040	0	33.8310	0	26.784	0	264.652	0	-1e10	8	-1e10	8	-1E+10	1	-1E+10	1	-1E+10	1	-1E+10	1	-1E+10	1	-1E+10	1
4902554	41	C	03/23/2022	09:57	-136.105	49.462	0	268.20	0	4.7040	0	33.8310	0	26.784	0	265.741	0	-1e10	8	-1e10	8	-1E+10	1	-1E+10	1	-1E+10	1	-1E+10	1	-1E+10	1	-1E+10	1
4902554	41	C	03/23/2022	09:57	-136.105	49.462	0	269.30	0	4.7040	0	33.8320	0	26.785	0	266.830	0	-1e10	8	-1e10	8	-1E+10	1	-1E+10	1	-1E+10	1	-1E+10	1	-1E+10	1	-1E+10	1
4902554	41	C	03/23/2022	09:57	-136.105	49.462	0	270.40	0	4.7000	0	33.8330	0	26.786	0	267.920	0	-1e10	8	-1e10	8	-1E+10	1	-1E+10	1	-1E+10	1	-1E+10	1	-1E+10	1	-1E+10	1
4902554	41	C	03/23/2022	09:57	-136.105	49.462	0	271.50	0	4.6960	0	33.8330	0	26.786	0	269.009	0	-1e10	8	-1e10	8	-1E+10	1	-1E+10	1	-1E+10	1	-1E+10	1	-1E+10	1	-1E+10	1
4902554	41	C	03/23/2022	09:57	-136.105	49.462	0	272.70	0	4.6900	0	33.8340	0	26.788	0	270.197	0	-1e10	8	-1e10	8	-1E+10	1	-1E+10	1	-1E+10	1	-1E+10	1	-1E+10	1	-1E+10	1
4902554	41	C	03/23/2022	09:57	-136.105	49.462	0	273.80	0	4.6870	0	33.8350	0	26.789	0	271.286	0	-1e10	8	-1e10	8	-1E+10	1	-1E+10	1	-1E+10	1	-1E+10	1	-1E+10	1	-1E+10	1
4902554	41	C	03/23/2022	09:57	-136.105	49.462	0	274.90	0	4.6840	0	33.8370	0	26.791	0	272.375	0	-1e10	8	-1e10	8	-1E+10	1	-1E+10	1	-1E+10	1	-1E+10	1	-1E+10	1	-1E+10	1
4902554	41	C	03/23/2022	09:57	-136.105	49.462	0	276.00	0	4.6830	0	33.8370	0	26.791	0	273.465	0	-1e10	8	-1e10	8	-1E+10	1	-1E+10	1	-1E+10	1	-1E+10	1	-1E+10	1	-1E+10	1
4902554	41	C	03/23/2022	09:57	-136.105	49.462	0	277.10	0	4.6800	0	33.8380	0	26.792	0	274.554	0	-1e10	8	-1e10	8	-1E+10	1	-1E+10	1	-1E+10	1	-1E+10	1	-1E+10	1	-1E+10	1
4902554	41	C	03/23/2022	09:57	-136.105	49.462	0	278.30	0	4.6790	0	33.8380	0	26.792	0	275.742	0	-1e10	8	-1e10	8	-1E+10	1	-1E+10	1	-1E+10	1	-1E+10	1	-1E+10	1	-1E+10	1
4902554	41	C	03/23/2022	09:57	-136.105	49.462	0	279.40	0	4.6780	0	33.8380	0	26.792	0	276.831	0	-1e10	8	-1e10	8	-1E+10	1	-1E+10	1	-1E+10	1	-1E+10	1	-1E+10	1	-1E+10	1
4902554	41	C	03/23/2022	09:57	-136.105	49.462	0	280.50	0	4.6770	0	33.8390	0	26.793	0	277.920	0	-1e10	8	-1e10	8	-1E+10	1	-1E+10	1	-1E+10	1	-1E+10	1	-1E+10	1	-1E+10	1
4902554	41	C	03/23/2022	09:57	-136.105	49.462	0	281.60	0	4.6760	0	33.8390	0	26.793	0	279.009	0	-1e10	8	-1e10	8	-1E+10	1	-1E+10	1	-1E+10	1	-1E+10	1	-1E+10	1	-1E+10	1
4902554	41	C	03/23/2022	09:57	-136.105	49.462	0	282.70	0	4.6770	0	33.8390	0	26.793	0	280.099	0	-1e10	8	-1e10	8	-1E+10	1	-1E+10	1	-1E+10	1	-1E+10	1	-1E+10	1	-1E+10	1
4902554	41	C	03/23/2022	09:57	-136.105	49.462	0	283.80	0	4.6770	0	33.8390	0	26.793	0	281.188	0	-1e10	8	-1e10	8	-1E+10	1	-1E+10	1	-1E+10	1	-1E+10	1	-1E+10	1	-1E+10	1
4902554	41	C	03/23/2022	09:57	-136.105	49.462	0	284.90	0	4.6770	0	33.8390	0	26.793	0	282.277	0	-1e10	8	-1e10	8	-1E+10	1	-1E+10	1	-1E+10	1	-1E+10	1	-1E+10	1	-1E+10	1
4902554	41	C	03/23/2022	09:57	-136.105	49.462	0	286.00	0	4.6760	0	33.8410	0	26.795	0	283.366	0	-1e10	8	-1e10	8	-1E+10	1	-1E+10	1	-1E+10	1	-1E+10	1	-1E+10	1	-1E+10	1
4902554	41	C	03/23/2022	09:57	-136.105	49.462	0	287.10	0	4.6720	0	33.8410	0	26.796	0	284.455	0	-1e10	8	-1e10	8	-1E+10	1	-1E+10	1	-1E+10	1	-1E+10	1	-1E+10	1	-1E+10	1
4902554	41	C	03/23/2022	09:57	-136.105	49.462	0	288.20	0	4.6670	0	33.8410	0	26.796	0	285.544	0	-1e10	8	-1e10	8	-1E+10	1	-1E+10	1	-1E+10	1	-1E+10	1	-1E+10	1	-1E+10	1
4902554	41	C	03/23/2022	09:57	-136.105	49.462	0	289.40	0	4.6640	0	33.8420	0	26.797	0	286.732	0	-1e10	8	-1e10	8	-1E+10	1	-1E+10	1	-1E+10	1	-1E+10	1	-1E+10	1	-1E+10	1
4902554	41	C	03/23/2022	09:57	-136.105	49.462	0	290.50	0	4.6560	0	33.8440	0	26.800	0	287.821	0	-1e10	8	-1e10	8	-1E+10	1	-1E+10	1	-1E+10	1	-1E+10	1	-1E+10	1	-1E+10	1
4902554	41	C	03/23/2022	09:57	-136.105	49.462	0	291.60	0	4.6520	0	33.8450	0	26.801	0	288.910	0	-1e10	8	-1e10	8	-1E+10	1	-1E+10	1	-1E+10	1	-1E+10	1	-1E+10	1	-1E+10	1
4902554	41	C	03/23/2022	09:57	-136.105	49.462	0	292.70	0	4.6480	0	33.8470	0	26.803	0	290.000	0	-1e10	8	-1e10	8	-1E+10	1	-1E+10	1	-1E+10	1	-1E+10	1	-1E+10	1	-1E+10	1
4902554	41	C	03/23/2022	09:57	-136.105	49.462	0	293.80	0	4.6610	0	33.8490	0	26.803	0	291.089	0	-1e10	8	-1e10	8	-1E+10	1	-1E+10	1	-1E+10	1	-1E+10	1	-1E+10	1	-1E+10	1
4902554	41	C	03/23/2022	09:57	-136.105	49.462	0	294.90	0	4.6620	0	33.8520	0	26.805	0	292.178	0	-1e10	8	-1e10	8	-1E+10	1	-1E+10	1	-1E+10	1	-1E+10	1	-1E+10	1	-1E+10	1
4902554	41	C	03/23/2022	09:57	-136.105	49.462	0	295.90	0	4.6640	0	33.8530	0	26.806	0	293.168	0	-1e10	8	-1e10	8	-1E+10	1	-1E+10	1	-1E+10	1	-1E+10	1	-1E+10	1	-1E+10	1
4902554	41	C	03/23/2022	09:57	-136.105	49.462	0	297.00	0	4.6650	0	33.8530	0	26.806	0	294.257	0	-1e10	8	-1e10	8	-1E+10	1	-1E+10	1	-1E+10	1	-1E+10	1	-1E+10	1	-1E+10	1
4902554	41	C	03/23/2022	09:57	-136.105	49.462	0	298.10	0	4.6660	0	33.8530	0	26.806	0	295.346	0	-1e10	8	-1e10	8	-1E+10	1	-1E+10	1	-1E+10	1	-1E+10	1	-1E+10	1	-1E+10	1
4902554	41	C	03/23/2022	09:57	-136.105	49.462	0	299.20	0	4.6700	0	33.8560	0	26.808	0	296.435	0	-1e10	8	-1e10	8	-1E+10	1	-1E+10	1	-1E+10	1	-1E+10	1	-1E+10	1	-1E+10	1
4902554	41	C	03/23/2022	09:57	-136.105	49.462	0	300.20	0	4.6540	0	33.8580	0	26.811	0	297.425	0	-1e10	8	-1e10	8	-1E+10	1	-1E+10	1	-1E+10	1	-1E+10	1	-1E+10	1	-1E+10	1
4902554	41	C	03/23/2022	09:57	-136.105	49.462	0	301.30	0	4.6340	0	33.8610	0	26.816	0	298.514	0	-1e10	8	-1e10	8	-1E+10	1	-1E+10	1	-1E+10	1	-1E+10	1	-1E+10	1	-1E+10	1
4902554	41	C	03/23/2022	09:57	-136.105	49.462	0	302.30	0	4.6220	0	33.8630	0	26.819	0	299.504	0	-1e10	8	-1e10	8	-1E+10	1	-1E+10	1	-1E+10	1	-1E+10	1	-1E+10	1	-1E+10	1
4902554	41	C	03/23/2022	09:57	-136.105	49.462	0	303.40	0	4.6190	0	33.8620	0	26.818	0	300.593	0	-1e10	8	-1e10	8	-1E+10	1	-1E+10	1	-1E+10	1	-1E+10	1	-1E+10	1	-1E+10	1
4902554	41	C	03/23/2022	09:57	-136.105	49.462	0	304.50	0	4.6170	0	33.8620	0	26.818	0	301.682	0	-1e10	8	-1e10	8	-1E+10	1	-1E+10	1	-1E+10	1	-1E+10	1	-1E+10	1	-1E+10	1
4902554	41	C	03/23/2022	09:57	-136.105	49.462	0	305.60	0	4.6160	0	33.8630	0	26.819	0	302.771	0	-1e10	8	-1e10	8	-1E+10	1	-1E+10	1	-1E+10	1	-1E+10	1	-1E+10	1	-1E+10	1
4902554	41	C	03/23/2022	09:57	-136.105	49.462	0	306.60	0	4.6150	0	33.8640	0	26.820	0	303.761	0	-1e10	8	-1e10	8	-1E+10	1	-1E+10	1	-1E+10	1	-1E+10	1	-1E+10	1	-1E+10	1
4902554	41	C	03/23/2022	09:57	-136.105	49.462	0	307.70	0	4.6130	0	33.8640	0	26.820	0	304.850	0	-1e10	8	-1e10	8	-1E+10	1	-1E+10	1	-1E+10	1	-1E+10	1	-1E+10	1	-1E+10	1
4902554	41	C	03/23/2022	09:57	-136.105	49.462	0	308.70	0	4.6120	0	33.8650	0	26.821	0	305.840	0	-1e10	8	-1e10	8	-1E+10	1	-1E+10	1	-1E+10	1	-1E+10	1	-1E+10	1	-1E+10	1
4902554	41	C	03/23/2022	09:57	-136.105	49.462	0	309.80	0	4.6100	0	33.8660	0	26.822	0	306.929	0	-1e10	8	-1e10	8	-1E+10	1	-1E+10	1	-1E+10	1	-1E+10	1	-1E+10	1	-1E+10	1
4902554	41	C	03/23/2022	09:57	-136.105	49.462	0	310.80	0	4.6080	0	33.8660	0	26.823	0	307.919	0	-1e10	8	-1e10	8	-1E+10	1	-1E+10	1	-1E+10	1	-1E+10	1	-1E+10	1	-1E+10	1
4902554	41	C	03/23/2022	09:57	-136.105	49.462	0	311.90	0	4.6070	0	33.8660	0	26.823	0	309.008	0	-1e10	8	-1e10	8	-1E+10	1	-1E+10	1	-1E+10	1	-1E+10	1	-1E+10	1	-1E+10	1
4902554	41	C	03/23/2022	09:57	-136.105	49.462	0	312.90	0	4.6050	0	33.8670	0	26.824	0	309.998	0	-1e10	8	-1e10	8	-1E+10	1	-1E+10	1	-1E+10	1	-1E+10	1	-1E+10	1	-1E+10	1
4902554	41	C	03/23/2022	09:57	-136.105	49.462	0	313.90	0	4.6030	0	33.8670	0	26.824	0	310.988	0	-1e10	8	-1e10	8	-1E+10	1	-1E+10	1	-1E+10	1	-1E+10	1	-1E+10	1	-1E+10	1
4902554	41	C	03/23/2022	09:57	-136.105	49.462	0	315.00	0	4.5980	0	33.8690	0	26.826	0	312.077	0	-1e10	8	-1e10	8	-1E+10	1	-1E+10	1	-1E+10	1	-1E+10	1	-1E+10	1	-1E+10	1
4902554	41	C	03/23/2022	09:57	-136.105	49.462	0	316.00	0	4.5900	0	33.8710	0	26.829	0	313.067	0	-1e10	8	-1e10	8	-1E+10	1	-1E+10	1	-1E+10	1	-1E+10	1	-1E+10	1	-1E+10	1
4902554	41	C	03/23/2022	09:57	-136.105	49.462	0	317.10	0	4.5780	0	33.8750	0	26.833	0	314.156	0	-1e10	8	-1e10	8	-1E+10	1	-1E+10	1	-1E+10	1	-1E+10	1	-1E+10	1	-1E+10	1
4902554	41	C	03/23/2022	09:57	-136.105	49.462	0	318.10	0	4.5760	0	33.8760	0	26.834	0	315.146	0	-1e10	8	-1e10	8	-1E+10	1	-1E+10	1	-1E+10	1	-1E+10	1	-1E+10	1	-1E+10	1
4902554	41	C	03/23/2022	09:57	-136.105	49.462	0	319.10	0	4.5750	0	33.8760	0	26.834	0	316.136	0	-1e10	8	-1e10	8	-1E+10	1	-1E+10	1	-1E+10	1	-1E+10	1	-1E+10	1	-1E+10	1
4902554	41	C	03/23/2022	09:57	-136.105	49.462	0	320.10	0	4.5750	0	33.8760	0	26.834	0	317.126	0	-1e10	8	-1e10	8	-1E+10	1	-1E+10	1	-1E+10	1	-1E+10	1	-1E+10	1	-1E+10	1
4902554	41	C	03/23/2022	09:57	-136.105	49.462	0	321.20	0	4.5740	0	33.8760	0	26.834	0	318.215	0	-1e10	8	-1e10	8	-1E+10	1	-1E+10	1	-1E+10	1	-1E+10	1	-1E+10	1	-1E+10	1
4902554	41	C	03/23/2022	09:57	-136.105	49.462	0	322.20	0	4.5730	0	33.8760	0	26.834	0	319.205	0	-1e10	8	-1e10	8	-1E+10	1	-1E+10	1	-1E+10	1	-1E+10	1	-1E+10	1	-1E+10	1
4902554	41	C	03/23/2022	09:57	-136.105	49.462	0	323.20	0	4.5730	0	33.8760	0	26.834	0	320.195	0	-1e10	8	-1e10	8	-1E+10	1	-1E+10	1	-1E+10	1	-1E+10	1	-1E+10	1	-1E+10	1
4902554	41	C	03/23/2022	09:57	-136.105	49.462	0	324.20	0	4.5710	0	33.8770	0	26.835	0	321.184	0	-1e10	8	-1e10	8	-1E+10	1	-1E+10	1	-1E+10	1	-1E+10	1	-1E+10	1	-1E+10	1
4902554	41	C	03/23/2022	09:57	-136.105	49.462	0	325.20	0	4.5670	0	33.8780	0	26.837	0	322.174	0	-1e10	8	-1e10	8	-1E+10	1	-1E+10	1	-1E+10	1	-1E+10	1	-1E+10	1	-1E+10	1
4902554	41	C	03/23/2022	09:57	-136.105	49.462	0	326.30	0	4.5550	0	33.8820	0	26.841	0	323.263	0	-1e10	8	-1e10	8	-1E+10	1	-1E+10	1	-1E+10	1	-1E+10	1	-1E+10	1	-1E+10	1
4902554	41	C	03/23/2022	09:57	-136.105	49.462	0	327.20	0	4.5530	0	33.8820	0	26.841	0	324.154	0	-1e10	8	-1e10	8	-1E+10	1	-1E+10	1	-1E+10	1	-1E+10	1	-1E+10	1	-1E+10	1
4902554	41	C	03/23/2022	09:57	-136.105	49.462	0	328.30	0	4.5480	0	33.8830	0	26.843	0	325.243	0	-1e10	8	-1e10	8	-1E+10	1	-1E+10	1	-1E+10	1	-1E+10	1	-1E+10	1	-1E+10	1
4902554	41	C	03/23/2022	09:57	-136.105	49.462	0	329.20	0	4.5480	0	33.8840	0	26.843	0	326.134	0	-1e10	8	-1e10	8	-1E+10	1	-1E+10	1	-1E+10	1	-1E+10	1	-1E+10	1	-1E+10	1
4902554	41	C	03/23/2022	09:57	-136.105	49.462	0	330.20	0	4.5450	0	33.8850	0	26.845	0	327.124	0	-1e10	8	-1e10	8	-1E+10	1	-1E+10	1	-1E+10	1	-1E+10	1	-1E+10	1	-1E+10	1
4902554	41	C	03/23/2022	09:57	-136.105	49.462	0	331.30	0	4.5450	0	33.8850	0	26.845	0	328.213	0	-1e10	8	-1e10	8	-1E+10	1	-1E+10	1	-1E+10	1	-1E+10	1	-1E+10	1	-1E+10	1
4902554	41	C	03/23/2022	09:57	-136.105	49.462	0	332.30	0	4.5430	0	33.8870	0	26.846	0	329.203	0	-1e10	8	-1e10	8	-1E+10	1	-1E+10	1	-1E+10	1	-1E+10	1	-1E+10	1	-1E+10	1
4902554	41	C	03/23/2022	09:57	-136.105	49.462	0	333.30	0	4.5430	0	33.8870	0	26.846	0	330.193	0	-1e10	8	-1e10	8	-1E+10	1	-1E+10	1	-1E+10	1	-1E+10	1	-1E+10	1	-1E+10	1
4902554	41	C	03/23/2022	09:57	-136.105	49.462	0	334.30	0	4.5400	0	33.8890	0	26.848	0	331.182	0	-1e10	8	-1e10	8	-1E+10	1	-1E+10	1	-1E+10	1	-1E+10	1	-1E+10	1	-1E+10	1
4902554	41	C	03/23/2022	09:57	-136.105	49.462	0	335.30	0	4.5400	0	33.8890	0	26.848	0	332.172	0	-1e10	8	-1e10	8	-1E+10	1	-1E+10	1	-1E+10	1	-1E+10	1	-1E+10	1	-1E+10	1
4902554	41	C	03/23/2022	09:57	-136.105	49.462	0	336.30	0	4.5390	0	33.8890	0	26.848	0	333.162	0	-1e10	8	-1e10	8	-1E+10	1	-1E+10	1	-1E+10	1	-1E+10	1	-1E+10	1	-1E+10	1
4902554	41	C	03/23/2022	09:57	-136.105	49.462	0	337.30	0	4.5370	0	33.8900	0	26.850	0	334.152	0	-1e10	8	-1e10	8	-1E+10	1	-1E+10	1	-1E+10	1	-1E+10	1	-1E+10	1	-1E+10	1
4902554	41	C	03/23/2022	09:57	-136.105	49.462	0	338.30	0	4.5310	0	33.8920	0	26.852	0	335.142	0	-1e10	8	-1e10	8	-1E+10	1	-1E+10	1	-1E+10	1	-1E+10	1	-1E+10	1	-1E+10	1
4902554	41	C	03/23/2022	09:57	-136.105	49.462	0	339.20	0	4.5270	0	33.8940	0	26.854	0	336.033	0	-1e10	8	-1e10	8	-1E+10	1	-1E+10	1	-1E+10	1	-1E+10	1	-1E+10	1	-1E+10	1
4902554	41	C	03/23/2022	09:57	-136.105	49.462	0	340.10	0	4.5290	0	33.8960	0	26.855	0	336.924	0	-1e10	8	-1e10	8	-1E+10	1	-1E+10	1	-1E+10	1	-1E+10	1	-1E+10	1	-1E+10	1
4902554	41	C	03/23/2022	09:57	-136.105	49.462	0	340.90	0	4.5290	0	33.8980	0	26.857	0	337.716	0	-1e10	8	-1e10	8	-1E+10	1	-1E+10	1	-1E+10	1	-1E+10	1	-1E+10	1	-1E+10	1
4902554	41	C	03/23/2022	09:57	-136.105	49.462	0	342.00	0	4.5280	0	33.9000	0	26.858	0	338.804	0	-1e10	8	-1e10	8	-1E+10	1	-1E+10	1	-1E+10	1	-1E+10	1	-1E+10	1	-1E+10	1
4902554	41	C	03/23/2022	09:57	-136.105	49.462	0	343.10	0	4.5280	0	33.9010	0	26.859	0	339.893	0	-1e10	8	-1e10	8	-1E+10	1	-1E+10	1	-1E+10	1	-1E+10	1	-1E+10	1	-1E+10	1
4902554	41	C	03/23/2022	09:57	-136.105	49.462	0	343.90	0	4.5230	0	33.9030	0	26.861	0	340.685	0	-1e10	8	-1e10	8	-1E+10	1	-1E+10	1	-1E+10	1	-1E+10	1	-1E+10	1	-1E+10	1
4902554	41	C	03/23/2022	09:57	-136.105	49.462	0	345.00	0	4.5120	0	33.9060	0	26.865	0	341.774	0	-1e10	8	-1e10	8	-1E+10	1	-1E+10	1	-1E+10	1	-1E+10	1	-1E+10	1	-1E+10	1
4902554	41	C	03/23/2022	09:57	-136.105	49.462	0	346.10	0	4.5050	0	33.9080	0	26.867	0	342.863	0	-1e10	8	-1e10	8	-1E+10	1	-1E+10	1	-1E+10	1	-1E+10	1	-1E+10	1	-1E+10	1
4902554	41	C	03/23/2022	09:57	-136.105	49.462	0	346.90	0	4.5020	0	33.9090	0	26.868	0	343.655	0	-1e10	8	-1e10	8	-1E+10	1	-1E+10	1	-1E+10	1	-1E+10	1	-1E+10	1	-1E+10	1
4902554	41	C	03/23/2022	09:57	-136.105	49.462	0	347.70	0	4.5000	0	33.9090	0	26.869	0	344.446	0	-1e10	8	-1e10	8	-1E+10	1	-1E+10	1	-1E+10	1	-1E+10	1	-1E+10	1	-1E+10	1
4902554	41	C	03/23/2022	09:57	-136.105	49.462	0	348.80	0	4.5000	0	33.9090	0	26.869	0	345.535	0	-1e10	8	-1e10	8	-1E+10	1	-1E+10	1	-1E+10	1	-1E+10	1	-1E+10	1	-1E+10	1
4902554	41	C	03/23/2022	09:57	-136.105	49.462	0	350.00	0	4.5000	0	33.9100	0	26.869	0	346.723	0	-1e10	8	-1e10	8	-1E+10	1	-1E+10	1	-1E+10	1	-1E+10	1	-1E+10	1	-1E+10	1
4902554	41	C	03/23/2022	09:57	-136.105	49.462	0	352.70	0	4.4930	0	33.9120	0	26.872	0	349.395	0	-1e10	8	-1e10	8	-1E+10	1	-1E+10	1	-1E+10	1	-1E+10	1	-1E+10	1	-1E+10	1
4902554	41	C	03/23/2022	09:57	-136.105	49.462	0	357.90	0	4.4790	0	33.9190	0	26.879	0	354.542	0	-1e10	8	-1e10	8	-1E+10	1	-1E+10	1	-1E+10	1	-1E+10	1	-1E+10	1	-1E+10	1
4902554	41	C	03/23/2022	09:57	-136.105	49.462	0	363.10	0	4.4650	0	33.9260	0	26.886	0	359.689	0	-1e10	8	-1e10	8	-1E+10	1	-1E+10	1	-1E+10	1	-1E+10	1	-1E+10	1	-1E+10	1
4902554	41	C	03/23/2022	09:57	-136.105	49.462	0	368.10	0	4.4490	0	33.9340	0	26.894	0	364.638	0	-1e10	8	-1e10	8	-1E+10	1	-1E+10	1	-1E+10	1	-1E+10	1	-1E+10	1	-1E+10	1
4902554	41	C	03/23/2022	09:57	-136.105	49.462	0	372.90	0	4.4400	0	33.9400	0	26.900	0	369.388	0	-1e10	8	-1e10	8	-1E+10	1	-1E+10	1	-1E+10	1	-1E+10	1	-1E+10	1	-1E+10	1
4902554	41	C	03/23/2022	09:57	-136.105	49.462	0	377.80	0	4.4340	0	33.9420	0	26.902	0	374.238	0	-1e10	8	-1e10	8	-1E+10	1	-1E+10	1	-1E+10	1	-1E+10	1	-1E+10	1	-1E+10	1
4902554	41	C	03/23/2022	09:57	-136.105	49.462	0	382.70	0	4.4220	0	33.9470	0	26.907	0	379.087	0	-1e10	8	-1e10	8	-1E+10	1	-1E+10	1	-1E+10	1	-1E+10	1	-1E+10	1	-1E+10	1
4902554	41	C	03/23/2022	09:57	-136.105	49.462	0	387.70	0	4.4160	0	33.9510	0	26.911	0	384.035	0	-1e10	8	-1e10	8	-1E+10	1	-1E+10	1	-1E+10	1	-1E+10	1	-1E+10	1	-1E+10	1
4902554	41	C	03/23/2022	09:57	-136.105	49.462	0	392.70	0	4.4100	0	33.9540	0	26.914	0	388.983	0	-1e10	8	-1e10	8	-1E+10	1	-1E+10	1	-1E+10	1	-1E+10	1	-1E+10	1	-1E+10	1
4902554	41	C	03/23/2022	09:57	-136.105	49.462	0	397.70	0	4.3970	0	33.9620	0	26.922	0	393.931	0	-1e10	8	-1e10	8	-1E+10	1	-1E+10	1	-1E+10	1	-1E+10	1	-1E+10	1	-1E+10	1
4902554	41	C	03/23/2022	09:57	-136.105	49.462	0	402.80	0	4.3850	0	33.9670	0	26.927	0	398.978	0	-1e10	8	-1e10	8	-1E+10	1	-1E+10	1	-1E+10	1	-1E+10	1	-1E+10	1	-1E+10	1
4902554	41	C	03/23/2022	09:57	-136.105	49.462	0	408.00	0	4.3730	0	33.9730	0	26.934	0	404.123	0	-1e10	8	-1e10	8	-1E+10	1	-1E+10	1	-1E+10	1	-1E+10	1	-1E+10	1	-1E+10	1
4902554	41	C	03/23/2022	09:57	-136.105	49.462	0	413.30	0	4.3650	0	33.9770	0	26.938	0	409.368	0	-1e10	8	-1e10	8	-1E+10	1	-1E+10	1	-1E+10	1	-1E+10	1	-1E+10	1	-1E+10	1
4902554	41	C	03/23/2022	09:57	-136.105	49.462	0	418.10	0	4.3550	0	33.9820	0	26.943	0	414.117	0	-1e10	8	-1e10	8	-1E+10	1	-1E+10	1	-1E+10	1	-1E+10	1	-1E+10	1	-1E+10	1
4902554	41	C	03/23/2022	09:57	-136.105	49.462	0	422.90	0	4.3450	0	33.9880	0	26.949	0	418.867	0	-1e10	8	-1e10	8	-1E+10	1	-1E+10	1	-1E+10	1	-1E+10	1	-1E+10	1	-1E+10	1
4902554	41	C	03/23/2022	09:57	-136.105	49.462	0	427.90	0	4.3400	0	33.9920	0	26.952	0	423.814	0	-1e10	8	-1e10	8	-1E+10	1	-1E+10	1	-1E+10	1	-1E+10	1	-1E+10	1	-1E+10	1
4902554	41	C	03/23/2022	09:57	-136.105	49.462	0	432.80	0	4.3370	0	33.9940	0	26.954	0	428.662	0	-1e10	8	-1e10	8	-1E+10	1	-1E+10	1	-1E+10	1	-1E+10	1	-1E+10	1	-1E+10	1
4902554	41	C	03/23/2022	09:57	-136.105	49.462	0	437.80	0	4.3310	0	33.9970	0	26.957	0	433.609	0	-1e10	8	-1e10	8	-1E+10	1	-1E+10	1	-1E+10	1	-1E+10	1	-1E+10	1	-1E+10	1
4902554	41	C	03/23/2022	09:57	-136.105	49.462	0	442.70	0	4.3220	0	34.0020	0	26.962	0	438.457	0	-1e10	8	-1e10	8	-1E+10	1	-1E+10	1	-1E+10	1	-1E+10	1	-1E+10	1	-1E+10	1
4902554	41	C	03/23/2022	09:57	-136.105	49.462	0	447.70	0	4.3070	0	34.0110	0	26.971	0	443.404	0	-1e10	8	-1e10	8	-1E+10	1	-1E+10	1	-1E+10	1	-1E+10	1	-1E+10	1	-1E+10	1
4902554	41	C	03/23/2022	09:57	-136.105	49.462	0	452.50	0	4.2970	0	34.0180	0	26.978	0	448.153	0	-1e10	8	-1e10	8	-1E+10	1	-1E+10	1	-1E+10	1	-1E+10	1	-1E+10	1	-1E+10	1
4902554	41	C	03/23/2022	09:57	-136.105	49.462	0	457.90	0	4.2860	0	34.0250	0	26.984	0	453.495	0	-1e10	8	-1e10	8	-1E+10	1	-1E+10	1	-1E+10	1	-1E+10	1	-1E+10	1	-1E+10	1
4902554	41	C	03/23/2022	09:57	-136.105	49.462	0	463.10	0	4.2740	0	34.0320	0	26.991	0	458.639	0	-1e10	8	-1e10	8	-1E+10	1	-1E+10	1	-1E+10	1	-1E+10	1	-1E+10	1	-1E+10	1
4902554	41	C	03/23/2022	09:57	-136.105	49.462	0	467.90	0	4.2620	0	34.0410	0	27.000	0	463.387	0	-1e10	8	-1e10	8	-1E+10	1	-1E+10	1	-1E+10	1	-1E+10	1	-1E+10	1	-1E+10	1
4902554	41	C	03/23/2022	09:57	-136.105	49.462	0	472.70	0	4.2480	0	34.0500	0	27.008	0	468.136	0	-1e10	8	-1e10	8	-1E+10	1	-1E+10	1	-1E+10	1	-1E+10	1	-1E+10	1	-1E+10	1
4902554	41	C	03/23/2022	09:57	-136.105	49.462	0	478.00	0	4.2390	0	34.0570	0	27.015	0	473.378	0	-1e10	8	-1e10	8	-1E+10	1	-1E+10	1	-1E+10	1	-1E+10	1	-1E+10	1	-1E+10	1
4902554	41	C	03/23/2022	09:57	-136.105	49.462	0	483.30	0	4.2300	0	34.0630	0	27.021	0	478.621	0	-1e10	8	-1e10	8	-1E+10	1	-1E+10	1	-1E+10	1	-1E+10	1	-1E+10	1	-1E+10	1
4902554	41	C	03/23/2022	09:57	-136.105	49.462	0	488.00	0	4.2220	0	34.0670	0	27.025	0	483.270	0	-1e10	8	-1e10	8	-1E+10	1	-1E+10	1	-1E+10	1	-1E+10	1	-1E+10	1	-1E+10	1
4902554	41	C	03/23/2022	09:57	-136.105	49.462	0	492.70	0	4.2080	0	34.0750	0	27.033	0	487.919	0	-1e10	8	-1e10	8	-1E+10	1	-1E+10	1	-1E+10	1	-1E+10	1	-1E+10	1	-1E+10	1
4902554	41	C	03/23/2022	09:57	-136.105	49.462	0	497.90	0	4.1890	0	34.0820	0	27.040	0	493.062	0	-1e10	8	-1e10	8	-1E+10	1	-1E+10	1	-1E+10	1	-1E+10	1	-1E+10	1	-1E+10	1
4902554	41	C	03/23/2022	09:57	-136.105	49.462	0	503.20	0	4.1690	0	34.0910	0	27.049	0	498.305	0	-1e10	8	-1e10	8	-1E+10	1	-1E+10	1	-1E+10	1	-1E+10	1	-1E+10	1	-1E+10	1
4902554	41	C	03/23/2022	09:57	-136.105	49.462	0	508.10	0	4.1540	0	34.0970	0	27.056	0	503.151	0	-1e10	8	-1e10	8	-1E+10	1	-1E+10	1	-1E+10	1	-1E+10	1	-1E+10	1	-1E+10	1
4902554	41	C	03/23/2022	09:57	-136.105	49.462	0	513.00	0	4.1440	0	34.1000	0	27.059	0	507.997	0	-1e10	8	-1e10	8	-1E+10	1	-1E+10	1	-1E+10	1	-1E+10	1	-1E+10	1	-1E+10	1
4902554	41	C	03/23/2022	09:57	-136.105	49.462	0	517.90	0	4.1300	0	34.1050	0	27.065	0	512.844	0	-1e10	8	-1e10	8	-1E+10	1	-1E+10	1	-1E+10	1	-1E+10	1	-1E+10	1	-1E+10	1
4902554	41	C	03/23/2022	09:57	-136.105	49.462	0	522.90	0	4.1110	0	34.1120	0	27.072	0	517.788	0	-1e10	8	-1e10	8	-1E+10	1	-1E+10	1	-1E+10	1	-1E+10	1	-1E+10	1	-1E+10	1
4902554	41	C	03/23/2022	09:57	-136.105	49.462	0	528.10	0	4.0860	0	34.1180	0	27.080	0	522.931	0	-1e10	8	-1e10	8	-1E+10	1	-1E+10	1	-1E+10	1	-1E+10	1	-1E+10	1	-1E+10	1
4902554	41	C	03/23/2022	09:57	-136.105	49.462	0	532.90	0	4.0600	0	34.1250	0	27.088	0	527.678	0	-1e10	8	-1e10	8	-1E+10	1	-1E+10	1	-1E+10	1	-1E+10	1	-1E+10	1	-1E+10	1
4902554	41	C	03/23/2022	09:57	-136.105	49.462	0	537.90	0	4.0510	0	34.1300	0	27.093	0	532.623	0	-1e10	8	-1e10	8	-1E+10	1	-1E+10	1	-1E+10	1	-1E+10	1	-1E+10	1	-1E+10	1
4902554	41	C	03/23/2022	09:57	-136.105	49.462	0	543.10	0	4.0410	0	34.1340	0	27.097	0	537.765	0	-1e10	8	-1e10	8	-1E+10	1	-1E+10	1	-1E+10	1	-1E+10	1	-1E+10	1	-1E+10	1
4902554	41	C	03/23/2022	09:57	-136.105	49.462	0	548.00	0	4.0310	0	34.1380	0	27.101	0	542.610	0	-1e10	8	-1e10	8	-1E+10	1	-1E+10	1	-1E+10	1	-1E+10	1	-1E+10	1	-1E+10	1
4902554	41	C	03/23/2022	09:57	-136.105	49.462	0	553.10	0	4.0230	0	34.1410	0	27.105	0	547.653	0	-1e10	8	-1e10	8	-1E+10	1	-1E+10	1	-1E+10	1	-1E+10	1	-1E+10	1	-1E+10	1
4902554	41	C	03/23/2022	09:57	-136.105	49.462	0	557.90	0	4.0130	0	34.1450	0	27.109	0	552.400	0	-1e10	8	-1e10	8	-1E+10	1	-1E+10	1	-1E+10	1	-1E+10	1	-1E+10	1	-1E+10	1
4902554	41	C	03/23/2022	09:57	-136.105	49.462	0	562.80	0	3.9990	0	34.1500	0	27.114	0	557.245	0	-1e10	8	-1e10	8	-1E+10	1	-1E+10	1	-1E+10	1	-1E+10	1	-1E+10	1	-1E+10	1
4902554	41	C	03/23/2022	09:57	-136.105	49.462	0	567.90	0	3.9870	0	34.1550	0	27.120	0	562.288	0	-1e10	8	-1e10	8	-1E+10	1	-1E+10	1	-1E+10	1	-1E+10	1	-1E+10	1	-1E+10	1
4902554	41	C	03/23/2022	09:57	-136.105	49.462	0	573.00	0	3.9740	0	34.1590	0	27.124	0	567.330	0	-1e10	8	-1e10	8	-1E+10	1	-1E+10	1	-1E+10	1	-1E+10	1	-1E+10	1	-1E+10	1
4902554	41	C	03/23/2022	09:57	-136.105	49.462	0	578.10	0	3.9630	0	34.1620	0	27.128	0	572.373	0	-1e10	8	-1e10	8	-1E+10	1	-1E+10	1	-1E+10	1	-1E+10	1	-1E+10	1	-1E+10	1
4902554	41	C	03/23/2022	09:57	-136.105	49.462	0	582.90	0	3.9520	0	34.1660	0	27.132	0	577.119	0	-1e10	8	-1e10	8	-1E+10	1	-1E+10	1	-1E+10	1	-1E+10	1	-1E+10	1	-1E+10	1
4902554	41	C	03/23/2022	09:57	-136.105	49.462	0	587.90	0	3.9450	0	34.1680	0	27.134	0	582.062	0	-1e10	8	-1e10	8	-1E+10	1	-1E+10	1	-1E+10	1	-1E+10	1	-1E+10	1	-1E+10	1
4902554	41	C	03/23/2022	09:57	-136.105	49.462	0	592.90	0	3.9370	0	34.1710	0	27.138	0	587.005	0	-1e10	8	-1e10	8	-1E+10	1	-1E+10	1	-1E+10	1	-1E+10	1	-1E+10	1	-1E+10	1
4902554	41	C	03/23/2022	09:57	-136.105	49.462	0	597.90	0	3.9280	0	34.1730	0	27.140	0	591.949	0	-1e10	8	-1e10	8	-1E+10	1	-1E+10	1	-1E+10	1	-1E+10	1	-1E+10	1	-1E+10	1
4902554	41	C	03/23/2022	09:57	-136.105	49.462	0	603.10	0	3.9210	0	34.1750	0	27.142	0	597.089	0	-1e10	8	-1e10	8	-1E+10	1	-1E+10	1	-1E+10	1	-1E+10	1	-1E+10	1	-1E+10	1
4902554	41	C	03/23/2022	09:57	-136.105	49.462	0	608.30	0	3.9040	0	34.1800	0	27.148	0	602.230	0	-1e10	8	-1e10	8	-1E+10	1	-1E+10	1	-1E+10	1	-1E+10	1	-1E+10	1	-1E+10	1
4902554	41	C	03/23/2022	09:57	-136.105	49.462	0	612.90	0	3.8940	0	34.1830	0	27.152	0	606.777	0	-1e10	8	-1e10	8	-1E+10	1	-1E+10	1	-1E+10	1	-1E+10	1	-1E+10	1	-1E+10	1
4902554	41	C	03/23/2022	09:57	-136.105	49.462	0	617.60	0	3.8830	0	34.1870	0	27.156	0	611.424	0	-1e10	8	-1e10	8	-1E+10	1	-1E+10	1	-1E+10	1	-1E+10	1	-1E+10	1	-1E+10	1
4902554	41	C	03/23/2022	09:57	-136.105	49.462	0	622.80	0	3.8730	0	34.1890	0	27.159	0	616.564	0	-1e10	8	-1e10	8	-1E+10	1	-1E+10	1	-1E+10	1	-1E+10	1	-1E+10	1	-1E+10	1
4902554	41	C	03/23/2022	09:57	-136.105	49.462	0	628.00	0	3.8620	0	34.1930	0	27.163	0	621.704	0	-1e10	8	-1e10	8	-1E+10	1	-1E+10	1	-1E+10	1	-1E+10	1	-1E+10	1	-1E+10	1
4902554	41	C	03/23/2022	09:57	-136.105	49.462	0	633.20	0	3.8570	0	34.1940	0	27.164	0	626.844	0	-1e10	8	-1e10	8	-1E+10	1	-1E+10	1	-1E+10	1	-1E+10	1	-1E+10	1	-1E+10	1
4902554	41	C	03/23/2022	09:57	-136.105	49.462	0	637.90	0	3.8500	0	34.1950	0	27.166	0	631.490	0	-1e10	8	-1e10	8	-1E+10	1	-1E+10	1	-1E+10	1	-1E+10	1	-1E+10	1	-1E+10	1
4902554	41	C	03/23/2022	09:57	-136.105	49.462	0	642.60	0	3.8340	0	34.1990	0	27.171	0	636.135	0	-1e10	8	-1e10	8	-1E+10	1	-1E+10	1	-1E+10	1	-1E+10	1	-1E+10	1	-1E+10	1
4902554	41	C	03/23/2022	09:57	-136.105	49.462	0	647.90	0	3.8160	0	34.2040	0	27.176	0	641.374	0	-1e10	8	-1e10	8	-1E+10	1	-1E+10	1	-1E+10	1	-1E+10	1	-1E+10	1	-1E+10	1
4902554	41	C	03/23/2022	09:57	-136.105	49.462	0	653.20	0	3.8020	0	34.2070	0	27.180	0	646.612	0	-1e10	8	-1e10	8	-1E+10	1	-1E+10	1	-1E+10	1	-1E+10	1	-1E+10	1	-1E+10	1
4902554	41	C	03/23/2022	09:57	-136.105	49.462	0	657.90	0	3.7920	0	34.2090	0	27.183	0	651.258	0	-1e10	8	-1e10	8	-1E+10	1	-1E+10	1	-1E+10	1	-1E+10	1	-1E+10	1	-1E+10	1
4902554	41	C	03/23/2022	09:57	-136.105	49.462	0	662.60	0	3.7860	0	34.2110	0	27.185	0	655.903	0	-1e10	8	-1e10	8	-1E+10	1	-1E+10	1	-1E+10	1	-1E+10	1	-1E+10	1	-1E+10	1
4902554	41	C	03/23/2022	09:57	-136.105	49.462	0	667.80	0	3.7800	0	34.2130	0	27.187	0	661.042	0	-1e10	8	-1e10	8	-1E+10	1	-1E+10	1	-1E+10	1	-1E+10	1	-1E+10	1	-1E+10	1
4902554	41	C	03/23/2022	09:57	-136.105	49.462	0	673.00	0	3.7710	0	34.2150	0	27.190	0	666.181	0	-1e10	8	-1e10	8	-1E+10	1	-1E+10	1	-1E+10	1	-1E+10	1	-1E+10	1	-1E+10	1
4902554	41	C	03/23/2022	09:57	-136.105	49.462	0	678.10	0	3.7630	0	34.2160	0	27.191	0	671.221	0	-1e10	8	-1e10	8	-1E+10	1	-1E+10	1	-1E+10	1	-1E+10	1	-1E+10	1	-1E+10	1
4902554	41	C	03/23/2022	09:57	-136.105	49.462	0	683.30	0	3.7540	0	34.2180	0	27.194	0	676.360	0	-1e10	8	-1e10	8	-1E+10	1	-1E+10	1	-1E+10	1	-1E+10	1	-1E+10	1	-1E+10	1
4902554	41	C	03/23/2022	09:57	-136.105	49.462	0	687.90	0	3.7320	0	34.2230	0	27.200	0	680.906	0	-1e10	8	-1e10	8	-1E+10	1	-1E+10	1	-1E+10	1	-1E+10	1	-1E+10	1	-1E+10	1
4902554	41	C	03/23/2022	09:57	-136.105	49.462	0	692.50	0	3.7260	0	34.2240	0	27.202	0	685.451	0	-1e10	8	-1e10	8	-1E+10	1	-1E+10	1	-1E+10	1	-1E+10	1	-1E+10	1	-1E+10	1
4902554	41	C	03/23/2022	09:57	-136.105	49.462	0	697.70	0	3.7190	0	34.2260	0	27.204	0	690.590	0	-1e10	8	-1e10	8	-1E+10	1	-1E+10	1	-1E+10	1	-1E+10	1	-1E+10	1	-1E+10	1
4902554	41	C	03/23/2022	09:57	-136.105	49.462	0	702.70	0	3.7050	0	34.2290	0	27.208	0	695.531	0	-1e10	8	-1e10	8	-1E+10	1	-1E+10	1	-1E+10	1	-1E+10	1	-1E+10	1	-1E+10	1
4902554	41	C	03/23/2022	09:57	-136.105	49.462	0	707.90	0	3.6940	0	34.2310	0	27.210	0	700.669	0	-1e10	8	-1e10	8	-1E+10	1	-1E+10	1	-1E+10	1	-1E+10	1	-1E+10	1	-1E+10	1
4902554	41	C	03/23/2022	09:57	-136.105	49.462	0	712.90	0	3.6770	0	34.2340	0	27.214	0	705.609	0	-1e10	8	-1e10	8	-1E+10	1	-1E+10	1	-1E+10	1	-1E+10	1	-1E+10	1	-1E+10	1
4902554	41	C	03/23/2022	09:57	-136.105	49.462	0	718.00	0	3.6600	0	34.2390	0	27.220	0	710.648	0	-1e10	8	-1e10	8	-1E+10	1	-1E+10	1	-1E+10	1	-1E+10	1	-1E+10	1	-1E+10	1
4902554	41	C	03/23/2022	09:57	-136.105	49.462	0	723.10	0	3.6440	0	34.2430	0	27.225	0	715.687	0	-1e10	8	-1e10	8	-1E+10	1	-1E+10	1	-1E+10	1	-1E+10	1	-1E+10	1	-1E+10	1
4902554	41	C	03/23/2022	09:57	-136.105	49.462	0	728.30	0	3.6310	0	34.2460	0	27.229	0	720.825	0	-1e10	8	-1e10	8	-1E+10	1	-1E+10	1	-1E+10	1	-1E+10	1	-1E+10	1	-1E+10	1
4902554	41	C	03/23/2022	09:57	-136.105	49.462	0	733.40	0	3.6230	0	34.2480	0	27.231	0	725.864	0	-1e10	8	-1e10	8	-1E+10	1	-1E+10	1	-1E+10	1	-1E+10	1	-1E+10	1	-1E+10	1
4902554	41	C	03/23/2022	09:57	-136.105	49.462	0	738.40	0	3.6140	0	34.2500	0	27.234	0	730.804	0	-1e10	8	-1e10	8	-1E+10	1	-1E+10	1	-1E+10	1	-1E+10	1	-1E+10	1	-1E+10	1
4902554	41	C	03/23/2022	09:57	-136.105	49.462	0	743.40	0	3.6080	0	34.2520	0	27.236	0	735.744	0	-1e10	8	-1e10	8	-1E+10	1	-1E+10	1	-1E+10	1	-1E+10	1	-1E+10	1	-1E+10	1
4902554	41	C	03/23/2022	09:57	-136.105	49.462	0	748.40	0	3.6020	0	34.2530	0	27.237	0	740.683	0	-1e10	8	-1e10	8	-1E+10	1	-1E+10	1	-1E+10	1	-1E+10	1	-1E+10	1	-1E+10	1
4902554	41	C	03/23/2022	09:57	-136.105	49.462	0	753.00	0	3.5850	0	34.2580	0	27.243	0	745.228	0	-1e10	8	-1e10	8	-1E+10	1	-1E+10	1	-1E+10	1	-1E+10	1	-1E+10	1	-1E+10	1
4902554	41	C	03/23/2022	09:57	-136.105	49.462	0	757.50	0	3.5790	0	34.2600	0	27.245	0	749.673	0	-1e10	8	-1e10	8	-1E+10	1	-1E+10	1	-1E+10	1	-1E+10	1	-1E+10	1	-1E+10	1
4902554	41	C	03/23/2022	09:57	-136.105	49.462	0	762.50	0	3.5730	0	34.2610	0	27.246	0	754.612	0	-1e10	8	-1e10	8	-1E+10	1	-1E+10	1	-1E+10	1	-1E+10	1	-1E+10	1	-1E+10	1
4902554	41	C	03/23/2022	09:57	-136.105	49.462	0	767.50	0	3.5610	0	34.2640	0	27.250	0	759.552	0	-1e10	8	-1e10	8	-1E+10	1	-1E+10	1	-1E+10	1	-1E+10	1	-1E+10	1	-1E+10	1
4902554	41	C	03/23/2022	09:57	-136.105	49.462	0	772.60	0	3.5530	0	34.2660	0	27.252	0	764.589	0	-1e10	8	-1e10	8	-1E+10	1	-1E+10	1	-1E+10	1	-1E+10	1	-1E+10	1	-1E+10	1
4902554	41	C	03/23/2022	09:57	-136.105	49.462	0	778.00	0	3.5430	0	34.2690	0	27.256	0	769.923	0	-1e10	8	-1e10	8	-1E+10	1	-1E+10	1	-1E+10	1	-1E+10	1	-1E+10	1	-1E+10	1
4902554	41	C	03/23/2022	09:57	-136.105	49.462	0	783.20	0	3.5300	0	34.2720	0	27.259	0	775.060	0	-1e10	8	-1e10	8	-1E+10	1	-1E+10	1	-1E+10	1	-1E+10	1	-1E+10	1	-1E+10	1
4902554	41	C	03/23/2022	09:57	-136.105	49.462	0	787.90	0	3.5260	0	34.2730	0	27.261	0	779.702	0	-1e10	8	-1e10	8	-1E+10	1	-1E+10	1	-1E+10	1	-1E+10	1	-1E+10	1	-1E+10	1
4902554	41	C	03/23/2022	09:57	-136.105	49.462	0	792.90	0	3.5130	0	34.2760	0	27.264	0	784.641	0	-1e10	8	-1e10	8	-1E+10	1	-1E+10	1	-1E+10	1	-1E+10	1	-1E+10	1	-1E+10	1
4902554	41	C	03/23/2022	09:57	-136.105	49.462	0	797.80	0	3.5040	0	34.2780	0	27.267	0	789.480	0	-1e10	8	-1e10	8	-1E+10	1	-1E+10	1	-1E+10	1	-1E+10	1	-1E+10	1	-1E+10	1
4902554	41	C	03/23/2022	09:57	-136.105	49.462	0	802.80	0	3.4890	0	34.2810	0	27.271	0	794.419	0	-1e10	8	-1e10	8	-1E+10	1	-1E+10	1	-1E+10	1	-1E+10	1	-1E+10	1	-1E+10	1
4902554	41	C	03/23/2022	09:57	-136.105	49.462	0	807.80	0	3.4690	0	34.2850	0	27.276	0	799.357	0	-1e10	8	-1e10	8	-1E+10	1	-1E+10	1	-1E+10	1	-1E+10	1	-1E+10	1	-1E+10	1
4902554	41	C	03/23/2022	09:57	-136.105	49.462	0	812.80	0	3.4520	0	34.2890	0	27.281	0	804.295	0	-1e10	8	-1e10	8	-1E+10	1	-1E+10	1	-1E+10	1	-1E+10	1	-1E+10	1	-1E+10	1
4902554	41	C	03/23/2022	09:57	-136.105	49.462	0	817.90	0	3.4420	0	34.2920	0	27.284	0	809.332	0	-1e10	8	-1e10	8	-1E+10	1	-1E+10	1	-1E+10	1	-1E+10	1	-1E+10	1	-1E+10	1
4902554	41	C	03/23/2022	09:57	-136.105	49.462	0	823.00	0	3.4290	0	34.2950	0	27.288	0	814.369	0	-1e10	8	-1e10	8	-1E+10	1	-1E+10	1	-1E+10	1	-1E+10	1	-1E+10	1	-1E+10	1
4902554	41	C	03/23/2022	09:57	-136.105	49.462	0	827.80	0	3.4180	0	34.2970	0	27.290	0	819.109	0	-1e10	8	-1e10	8	-1E+10	1	-1E+10	1	-1E+10	1	-1E+10	1	-1E+10	1	-1E+10	1
4902554	41	C	03/23/2022	09:57	-136.105	49.462	0	832.60	0	3.3990	0	34.3010	0	27.295	0	823.849	0	-1e10	8	-1e10	8	-1E+10	1	-1E+10	1	-1E+10	1	-1E+10	1	-1E+10	1	-1E+10	1
4902554	41	C	03/23/2022	09:57	-136.105	49.462	0	838.10	0	3.3840	0	34.3030	0	27.298	0	829.280	0	-1e10	8	-1e10	8	-1E+10	1	-1E+10	1	-1E+10	1	-1E+10	1	-1E+10	1	-1E+10	1
4902554	41	C	03/23/2022	09:57	-136.105	49.462	0	843.10	0	3.3750	0	34.3040	0	27.300	0	834.218	0	-1e10	8	-1e10	8	-1E+10	1	-1E+10	1	-1E+10	1	-1E+10	1	-1E+10	1	-1E+10	1
4902554	41	C	03/23/2022	09:57	-136.105	49.462	0	847.80	0	3.3570	0	34.3070	0	27.304	0	838.859	0	-1e10	8	-1e10	8	-1E+10	1	-1E+10	1	-1E+10	1	-1E+10	1	-1E+10	1	-1E+10	1
4902554	41	C	03/23/2022	09:57	-136.105	49.462	0	852.70	0	3.3340	0	34.3100	0	27.309	0	843.697	0	-1e10	8	-1e10	8	-1E+10	1	-1E+10	1	-1E+10	1	-1E+10	1	-1E+10	1	-1E+10	1
4902554	41	C	03/23/2022	09:57	-136.105	49.462	0	857.60	0	3.3210	0	34.3120	0	27.312	0	848.535	0	-1e10	8	-1e10	8	-1E+10	1	-1E+10	1	-1E+10	1	-1E+10	1	-1E+10	1	-1E+10	1
4902554	41	C	03/23/2022	09:57	-136.105	49.462	0	862.50	0	3.3130	0	34.3160	0	27.316	0	853.374	0	-1e10	8	-1e10	8	-1E+10	1	-1E+10	1	-1E+10	1	-1E+10	1	-1E+10	1	-1E+10	1
4902554	41	C	03/23/2022	09:57	-136.105	49.462	0	867.50	0	3.3090	0	34.3170	0	27.317	0	858.311	0	-1e10	8	-1e10	8	-1E+10	1	-1E+10	1	-1E+10	1	-1E+10	1	-1E+10	1	-1E+10	1
4902554	41	C	03/23/2022	09:57	-136.105	49.462	0	872.50	0	3.3040	0	34.3180	0	27.318	0	863.247	0	-1e10	8	-1e10	8	-1E+10	1	-1E+10	1	-1E+10	1	-1E+10	1	-1E+10	1	-1E+10	1
4902554	41	C	03/23/2022	09:57	-136.105	49.462	0	877.60	0	3.2940	0	34.3190	0	27.320	0	868.283	0	-1e10	8	-1e10	8	-1E+10	1	-1E+10	1	-1E+10	1	-1E+10	1	-1E+10	1	-1E+10	1
4902554	41	C	03/23/2022	09:57	-136.105	49.462	0	883.00	0	3.2780	0	34.3190	0	27.321	0	873.614	0	-1e10	8	-1e10	8	-1E+10	1	-1E+10	1	-1E+10	1	-1E+10	1	-1E+10	1	-1E+10	1
4902554	41	C	03/23/2022	09:57	-136.105	49.462	0	888.00	0	3.2760	0	34.3230	0	27.325	0	878.550	0	-1e10	8	-1e10	8	-1E+10	1	-1E+10	1	-1E+10	1	-1E+10	1	-1E+10	1	-1E+10	1
4902554	41	C	03/23/2022	09:57	-136.105	49.462	0	892.90	0	3.2780	0	34.3250	0	27.326	0	883.388	0	-1e10	8	-1e10	8	-1E+10	1	-1E+10	1	-1E+10	1	-1E+10	1	-1E+10	1	-1E+10	1
4902554	41	C	03/23/2022	09:57	-136.105	49.462	0	897.90	0	3.2660	0	34.3270	0	27.329	0	888.324	0	-1e10	8	-1e10	8	-1E+10	1	-1E+10	1	-1E+10	1	-1E+10	1	-1E+10	1	-1E+10	1
4902554	41	C	03/23/2022	09:57	-136.105	49.462	0	902.90	0	3.2570	0	34.3290	0	27.332	0	893.260	0	-1e10	8	-1e10	8	-1E+10	1	-1E+10	1	-1E+10	1	-1E+10	1	-1E+10	1	-1E+10	1
4902554	41	C	03/23/2022	09:57	-136.105	49.462	0	908.00	0	3.2450	0	34.3310	0	27.334	0	898.295	0	-1e10	8	-1e10	8	-1E+10	1	-1E+10	1	-1E+10	1	-1E+10	1	-1E+10	1	-1E+10	1
4902554	41	C	03/23/2022	09:57	-136.105	49.462	0	913.10	0	3.2290	0	34.3330	0	27.337	0	903.329	0	-1e10	8	-1e10	8	-1E+10	1	-1E+10	1	-1E+10	1	-1E+10	1	-1E+10	1	-1E+10	1
4902554	41	C	03/23/2022	09:57	-136.105	49.462	0	918.20	0	3.2190	0	34.3340	0	27.339	0	908.363	0	-1e10	8	-1e10	8	-1E+10	1	-1E+10	1	-1E+10	1	-1E+10	1	-1E+10	1	-1E+10	1
4902554	41	C	03/23/2022	09:57	-136.105	49.462	0	923.00	0	3.2100	0	34.3340	0	27.340	0	913.102	0	-1e10	8	-1e10	8	-1E+10	1	-1E+10	1	-1E+10	1	-1E+10	1	-1E+10	1	-1E+10	1
4902554	41	C	03/23/2022	09:57	-136.105	49.462	0	927.70	0	3.2040	0	34.3350	0	27.341	0	917.741	0	-1e10	8	-1e10	8	-1E+10	1	-1E+10	1	-1E+10	1	-1E+10	1	-1E+10	1	-1E+10	1
4902554	41	C	03/23/2022	09:57	-136.105	49.462	0	932.90	0	3.1980	0	34.3370	0	27.344	0	922.874	0	-1e10	8	-1e10	8	-1E+10	1	-1E+10	1	-1E+10	1	-1E+10	1	-1E+10	1	-1E+10	1
4902554	41	C	03/23/2022	09:57	-136.105	49.462	0	937.80	0	3.1850	0	34.3390	0	27.346	0	927.710	0	-1e10	8	-1e10	8	-1E+10	1	-1E+10	1	-1E+10	1	-1E+10	1	-1E+10	1	-1E+10	1
4902554	41	C	03/23/2022	09:57	-136.105	49.462	0	942.80	0	3.1830	0	34.3400	0	27.347	0	932.645	0	-1e10	8	-1e10	8	-1E+10	1	-1E+10	1	-1E+10	1	-1E+10	1	-1E+10	1	-1E+10	1
4902554	41	C	03/23/2022	09:57	-136.105	49.462	0	947.80	0	3.1830	0	34.3410	0	27.348	0	937.580	0	-1e10	8	-1e10	8	-1E+10	1	-1E+10	1	-1E+10	1	-1E+10	1	-1E+10	1	-1E+10	1
4902554	41	C	03/23/2022	09:57	-136.105	49.462	0	952.90	0	3.1770	0	34.3420	0	27.350	0	942.614	0	-1e10	8	-1e10	8	-1E+10	1	-1E+10	1	-1E+10	1	-1E+10	1	-1E+10	1	-1E+10	1
4902554	41	C	03/23/2022	09:57	-136.105	49.462	0	958.00	0	3.1660	0	34.3440	0	27.352	0	947.647	0	-1e10	8	-1e10	8	-1E+10	1	-1E+10	1	-1E+10	1	-1E+10	1	-1E+10	1	-1E+10	1
4902554	41	C	03/23/2022	09:57	-136.105	49.462	0	962.70	0	3.1580	0	34.3450	0	27.354	0	952.286	0	-1e10	8	-1e10	8	-1E+10	1	-1E+10	1	-1E+10	1	-1E+10	1	-1E+10	1	-1E+10	1
4902554	41	C	03/23/2022	09:57	-136.105	49.462	0	967.90	0	3.1490	0	34.3470	0	27.356	0	957.417	0	-1e10	8	-1e10	8	-1E+10	1	-1E+10	1	-1E+10	1	-1E+10	1	-1E+10	1	-1E+10	1
4902554	41	C	03/23/2022	09:57	-136.105	49.462	0	973.10	0	3.1320	0	34.3490	0	27.359	0	962.549	0	-1e10	8	-1e10	8	-1E+10	1	-1E+10	1	-1E+10	1	-1E+10	1	-1E+10	1	-1E+10	1
4902554	41	C	03/23/2022	09:57	-136.105	49.462	0	977.80	0	3.1220	0	34.3510	0	27.362	0	967.187	0	-1e10	8	-1e10	8	-1E+10	1	-1E+10	1	-1E+10	1	-1E+10	1	-1E+10	1	-1E+10	1
4902554	41	C	03/23/2022	09:57	-136.105	49.462	0	983.00	0	3.1010	0	34.3540	0	27.366	0	972.319	0	-1e10	8	-1e10	8	-1E+10	1	-1E+10	1	-1E+10	1	-1E+10	1	-1E+10	1	-1E+10	1
4902554	41	C	03/23/2022	09:57	-136.105	49.462	0	988.20	0	3.0900	0	34.3570	0	27.370	0	977.450	0	-1e10	8	-1e10	8	-1E+10	1	-1E+10	1	-1E+10	1	-1E+10	1	-1E+10	1	-1E+10	1
4902554	41	C	03/23/2022	09:57	-136.105	49.462	0	992.90	0	3.0840	0	34.3580	0	27.371	0	982.088	0	-1e10	8	-1e10	8	-1E+10	1	-1E+10	1	-1E+10	1	-1E+10	1	-1E+10	1	-1E+10	1
4902554	41	C	03/23/2022	09:57	-136.105	49.462	0	997.70	0	3.0770	0	34.3590	0	27.373	0	986.825	0	-1e10	8	-1e10	8	-1E+10	1	-1E+10	1	-1E+10	1	-1E+10	1	-1E+10	1	-1E+10	1
4902554	41	C	03/23/2022	09:57	-136.105	49.462	0	1005.30	0	3.0620	0	34.3610	0	27.376	0	994.324	0	-1e10	8	-1e10	8	-1E+10	1	-1E+10	1	-1E+10	1	-1E+10	1	-1E+10	1	-1E+10	1
4902554	41	C	03/23/2022	09:57	-136.105	49.462	0	1015.40	0	3.0480	0	34.3640	0	27.379	0	1004.289	0	-1e10	8	-1e10	8	-1E+10	1	-1E+10	1	-1E+10	1	-1E+10	1	-1E+10	1	-1E+10	1
4902554	41	C	03/23/2022	09:57	-136.105	49.462	0	1025.10	0	3.0400	0	34.3650	0	27.381	0	1013.860	0	-1e10	8	-1e10	8	-1E+10	1	-1E+10	1	-1E+10	1	-1E+10	1	-1E+10	1	-1E+10	1
4902554	41	C	03/23/2022	09:57	-136.105	49.462	0	1035.00	0	3.0250	0	34.3680	0	27.385	0	1023.627	0	-1e10	8	-1e10	8	-1E+10	1	-1E+10	1	-1E+10	1	-1E+10	1	-1E+10	1	-1E+10	1
4902554	41	C	03/23/2022	09:57	-136.105	49.462	0	1045.00	0	3.0120	0	34.3710	0	27.388	0	1033.492	0	-1e10	8	-1e10	8	-1E+10	1	-1E+10	1	-1E+10	1	-1E+10	1	-1E+10	1	-1E+10	1
4902554	41	C	03/23/2022	09:57	-136.105	49.462	0	1055.10	0	2.9890	0	34.3750	0	27.394	0	1043.456	0	-1e10	8	-1e10	8	-1E+10	1	-1E+10	1	-1E+10	1	-1E+10	1	-1E+10	1	-1E+10	1
4902554	41	C	03/23/2022	09:57	-136.105	49.462	0	1065.10	0	2.9670	0	34.3790	0	27.399	0	1053.321	0	-1e10	8	-1e10	8	-1E+10	1	-1E+10	1	-1E+10	1	-1E+10	1	-1E+10	1	-1E+10	1
4902554	41	C	03/23/2022	09:57	-136.105	49.462	0	1075.20	0	2.9580	0	34.3810	0	27.401	0	1063.283	0	-1e10	8	-1e10	8	-1E+10	1	-1E+10	1	-1E+10	1	-1E+10	1	-1E+10	1	-1E+10	1
4902554	41	C	03/23/2022	09:57	-136.105	49.462	0	1085.40	0	2.9450	0	34.3840	0	27.405	0	1073.344	0	-1e10	8	-1e10	8	-1E+10	1	-1E+10	1	-1E+10	1	-1E+10	1	-1E+10	1	-1E+10	1
4902554	41	C	03/23/2022	09:57	-136.105	49.462	0	1095.70	0	2.9310	0	34.3870	0	27.409	0	1083.503	0	-1e10	8	-1e10	8	-1E+10	1	-1E+10	1	-1E+10	1	-1E+10	1	-1E+10	1	-1E+10	1
4902554	41	C	03/23/2022	09:57	-136.105	49.462	0	1105.90	0	2.9120	0	34.3910	0	27.414	0	1093.563	0	-1e10	8	-1e10	8	-1E+10	1	-1E+10	1	-1E+10	1	-1E+10	1	-1E+10	1	-1E+10	1
4902554	41	C	03/23/2022	09:57	-136.105	49.462	0	1115.50	0	2.8900	0	34.3940	0	27.418	0	1103.031	0	-1e10	8	-1e10	8	-1E+10	1	-1E+10	1	-1E+10	1	-1E+10	1	-1E+10	1	-1E+10	1
4902554	41	C	03/23/2022	09:57	-136.105	49.462	0	1125.30	0	2.8670	0	34.3990	0	27.424	0	1112.695	0	-1e10	8	-1e10	8	-1E+10	1	-1E+10	1	-1E+10	1	-1E+10	1	-1E+10	1	-1E+10	1
4902554	41	C	03/23/2022	09:57	-136.105	49.462	0	1135.40	0	2.8510	0	34.4020	0	27.428	0	1122.655	0	-1e10	8	-1e10	8	-1E+10	1	-1E+10	1	-1E+10	1	-1E+10	1	-1E+10	1	-1E+10	1
4902554	41	C	03/23/2022	09:57	-136.105	49.462	0	1145.20	0	2.8400	0	34.4040	0	27.431	0	1132.319	0	-1e10	8	-1e10	8	-1E+10	1	-1E+10	1	-1E+10	1	-1E+10	1	-1E+10	1	-1E+10	1
4902554	41	C	03/23/2022	09:57	-136.105	49.462	0	1155.20	0	2.8240	0	34.4070	0	27.435	0	1142.179	0	-1e10	8	-1e10	8	-1E+10	1	-1E+10	1	-1E+10	1	-1E+10	1	-1E+10	1	-1E+10	1
4902554	41	C	03/23/2022	09:57	-136.105	49.462	0	1165.30	0	2.8030	0	34.4110	0	27.440	0	1152.138	0	-1e10	8	-1e10	8	-1E+10	1	-1E+10	1	-1E+10	1	-1E+10	1	-1E+10	1	-1E+10	1
4902554	41	C	03/23/2022	09:57	-136.105	49.462	0	1175.30	0	2.7820	0	34.4150	0	27.445	0	1161.997	0	-1e10	8	-1e10	8	-1E+10	1	-1E+10	1	-1E+10	1	-1E+10	1	-1E+10	1	-1E+10	1
4902554	41	C	03/23/2022	09:57	-136.105	49.462	0	1185.30	0	2.7660	0	34.4180	0	27.449	0	1171.856	0	-1e10	8	-1e10	8	-1E+10	1	-1E+10	1	-1E+10	1	-1E+10	1	-1E+10	1	-1E+10	1
4902554	41	C	03/23/2022	09:57	-136.105	49.462	0	1195.50	0	2.7490	0	34.4220	0	27.453	0	1181.912	0	-1e10	8	-1e10	8	-1E+10	1	-1E+10	1	-1E+10	1	-1E+10	1	-1E+10	1	-1E+10	1
4902554	41	C	03/23/2022	09:57	-136.105	49.462	0	1205.60	0	2.7290	0	34.4250	0	27.457	0	1191.868	0	-1e10	8	-1e10	8	-1E+10	1	-1E+10	1	-1E+10	1	-1E+10	1	-1E+10	1	-1E+10	1
4902554	41	C	03/23/2022	09:57	-136.105	49.462	0	1215.60	0	2.7210	0	34.4270	0	27.460	0	1201.726	0	-1e10	8	-1e10	8	-1E+10	1	-1E+10	1	-1E+10	1	-1E+10	1	-1E+10	1	-1E+10	1
4902554	41	C	03/23/2022	09:57	-136.105	49.462	0	1225.20	0	2.7130	0	34.4290	0	27.462	0	1211.189	0	-1e10	8	-1e10	8	-1E+10	1	-1E+10	1	-1E+10	1	-1E+10	1	-1E+10	1	-1E+10	1
4902554	41	C	03/23/2022	09:57	-136.105	49.462	0	1235.00	0	2.7000	0	34.4310	0	27.465	0	1220.848	0	-1e10	8	-1e10	8	-1E+10	1	-1E+10	1	-1E+10	1	-1E+10	1	-1E+10	1	-1E+10	1
4902554	41	C	03/23/2022	09:57	-136.105	49.462	0	1244.90	0	2.6820	0	34.4340	0	27.469	0	1230.606	0	-1e10	8	-1e10	8	-1E+10	1	-1E+10	1	-1E+10	1	-1E+10	1	-1E+10	1	-1E+10	1
4902554	41	C	03/23/2022	09:57	-136.105	49.462	0	1255.10	0	2.6700	0	34.4370	0	27.472	0	1240.659	0	-1e10	8	-1e10	8	-1E+10	1	-1E+10	1	-1E+10	1	-1E+10	1	-1E+10	1	-1E+10	1
4902554	41	C	03/23/2022	09:57	-136.105	49.462	0	1265.30	0	2.6500	0	34.4410	0	27.477	0	1250.711	0	-1e10	8	-1e10	8	-1E+10	1	-1E+10	1	-1E+10	1	-1E+10	1	-1E+10	1	-1E+10	1
4902554	41	C	03/23/2022	09:57	-136.105	49.462	0	1275.30	0	2.6340	0	34.4440	0	27.481	0	1260.566	0	-1e10	8	-1e10	8	-1E+10	1	-1E+10	1	-1E+10	1	-1E+10	1	-1E+10	1	-1E+10	1
4902554	41	C	03/23/2022	09:57	-136.105	49.462	0	1285.40	0	2.6170	0	34.4480	0	27.486	0	1270.519	0	-1e10	8	-1e10	8	-1E+10	1	-1E+10	1	-1E+10	1	-1E+10	1	-1E+10	1	-1E+10	1
4902554	41	C	03/23/2022	09:57	-136.105	49.462	0	1295.50	0	2.6040	0	34.4500	0	27.489	0	1280.471	0	-1e10	8	-1e10	8	-1E+10	1	-1E+10	1	-1E+10	1	-1E+10	1	-1E+10	1	-1E+10	1
4902554	41	C	03/23/2022	09:57	-136.105	49.462	0	1305.60	0	2.5940	0	34.4520	0	27.491	0	1290.423	0	-1e10	8	-1e10	8	-1E+10	1	-1E+10	1	-1E+10	1	-1E+10	1	-1E+10	1	-1E+10	1
4902554	41	C	03/23/2022	09:57	-136.105	49.462	0	1315.30	0	2.5880	0	34.4540	0	27.493	0	1299.980	0	-1e10	8	-1e10	8	-1E+10	1	-1E+10	1	-1E+10	1	-1E+10	1	-1E+10	1	-1E+10	1
4902554	41	C	03/23/2022	09:57	-136.105	49.462	0	1325.10	0	2.5780	0	34.4560	0	27.496	0	1309.636	0	-1e10	8	-1e10	8	-1E+10	1	-1E+10	1	-1E+10	1	-1E+10	1	-1E+10	1	-1E+10	1
4902554	41	C	03/23/2022	09:57	-136.105	49.462	0	1335.10	0	2.5650	0	34.4590	0	27.499	0	1319.488	0	-1e10	8	-1e10	8	-1E+10	1	-1E+10	1	-1E+10	1	-1E+10	1	-1E+10	1	-1E+10	1
4902554	41	C	03/23/2022	09:57	-136.105	49.462	0	1345.40	0	2.5580	0	34.4600	0	27.501	0	1329.635	0	-1e10	8	-1e10	8	-1E+10	1	-1E+10	1	-1E+10	1	-1E+10	1	-1E+10	1	-1E+10	1
4902554	41	C	03/23/2022	09:57	-136.105	49.462	0	1355.40	0	2.5500	0	34.4610	0	27.502	0	1339.486	0	-1e10	8	-1e10	8	-1E+10	1	-1E+10	1	-1E+10	1	-1E+10	1	-1E+10	1	-1E+10	1
4902554	41	C	03/23/2022	09:57	-136.105	49.462	0	1365.10	0	2.5370	0	34.4640	0	27.506	0	1349.041	0	-1e10	8	-1e10	8	-1E+10	1	-1E+10	1	-1E+10	1	-1E+10	1	-1E+10	1	-1E+10	1
4902554	41	C	03/23/2022	09:57	-136.105	49.462	0	1375.50	0	2.5240	0	34.4670	0	27.510	0	1359.285	0	-1e10	8	-1e10	8	-1E+10	1	-1E+10	1	-1E+10	1	-1E+10	1	-1E+10	1	-1E+10	1
4902554	41	C	03/23/2022	09:57	-136.105	49.462	0	1385.60	0	2.5130	0	34.4690	0	27.512	0	1369.233	0	-1e10	8	-1e10	8	-1E+10	1	-1E+10	1	-1E+10	1	-1E+10	1	-1E+10	1	-1E+10	1
4902554	41	C	03/23/2022	09:57	-136.105	49.462	0	1395.50	0	2.5000	0	34.4710	0	27.515	0	1378.984	0	-1e10	8	-1e10	8	-1E+10	1	-1E+10	1	-1E+10	1	-1E+10	1	-1E+10	1	-1E+10	1
4902554	41	C	03/23/2022	09:57	-136.105	49.462	0	1405.50	0	2.4890	0	34.4730	0	27.517	0	1388.833	0	-1e10	8	-1e10	8	-1E+10	1	-1E+10	1	-1E+10	1	-1E+10	1	-1E+10	1	-1E+10	1
4902554	41	C	03/23/2022	09:57	-136.105	49.462	0	1415.40	0	2.4780	0	34.4760	0	27.521	0	1398.583	0	-1e10	8	-1e10	8	-1E+10	1	-1E+10	1	-1E+10	1	-1E+10	1	-1E+10	1	-1E+10	1
4902554	41	C	03/23/2022	09:57	-136.105	49.462	0	1425.30	0	2.4700	0	34.4770	0	27.522	0	1408.332	0	-1e10	8	-1e10	8	-1E+10	1	-1E+10	1	-1E+10	1	-1E+10	1	-1E+10	1	-1E+10	1
4902554	41	C	03/23/2022	09:57	-136.105	49.462	0	1435.30	0	2.4540	0	34.4800	0	27.526	0	1418.179	0	-1e10	8	-1e10	8	-1E+10	1	-1E+10	1	-1E+10	1	-1E+10	1	-1E+10	1	-1E+10	1
4902554	41	C	03/23/2022	09:57	-136.105	49.462	0	1445.40	0	2.4350	0	34.4830	0	27.530	0	1428.125	0	-1e10	8	-1e10	8	-1E+10	1	-1E+10	1	-1E+10	1	-1E+10	1	-1E+10	1	-1E+10	1
4902554	41	C	03/23/2022	09:57	-136.105	49.462	0	1455.60	0	2.4210	0	34.4860	0	27.534	0	1438.168	0	-1e10	8	-1e10	8	-1E+10	1	-1E+10	1	-1E+10	1	-1E+10	1	-1E+10	1	-1E+10	1
4902554	41	C	03/23/2022	09:57	-136.105	49.462	0	1465.60	0	2.4060	0	34.4890	0	27.537	0	1448.014	0	-1e10	8	-1e10	8	-1E+10	1	-1E+10	1	-1E+10	1	-1E+10	1	-1E+10	1	-1E+10	1
4902554	41	C	03/23/2022	09:57	-136.105	49.462	0	1475.80	0	2.3960	0	34.4910	0	27.540	0	1458.056	0	-1e10	8	-1e10	8	-1E+10	1	-1E+10	1	-1E+10	1	-1E+10	1	-1E+10	1	-1E+10	1
4902554	41	C	03/23/2022	09:57	-136.105	49.462	0	1485.60	0	2.3860	0	34.4930	0	27.542	0	1467.705	0	-1e10	8	-1e10	8	-1E+10	1	-1E+10	1	-1E+10	1	-1E+10	1	-1E+10	1	-1E+10	1
4902554	41	C	03/23/2022	09:57	-136.105	49.462	0	1495.20	0	2.3770	0	34.4950	0	27.545	0	1477.155	0	-1e10	8	-1e10	8	-1E+10	1	-1E+10	1	-1E+10	1	-1E+10	1	-1E+10	1	-1E+10	1
4902554	41	C	03/23/2022	09:57	-136.105	49.462	0	1505.40	0	2.3630	0	34.4980	0	27.548	0	1487.196	0	-1e10	8	-1e10	8	-1E+10	1	-1E+10	1	-1E+10	1	-1E+10	1	-1E+10	1	-1E+10	1
4902554	41	C	03/23/2022	09:57	-136.105	49.462	0	1515.80	0	2.3490	0	34.5010	0	27.552	0	1497.434	0	-1e10	8	-1e10	8	-1E+10	1	-1E+10	1	-1E+10	1	-1E+10	1	-1E+10	1	-1E+10	1
4902554	41	C	03/23/2022	09:57	-136.105	49.462	0	1525.40	0	2.3380	0	34.5030	0	27.555	0	1506.883	0	-1e10	8	-1e10	8	-1E+10	1	-1E+10	1	-1E+10	1	-1E+10	1	-1E+10	1	-1E+10	1
4902554	41	C	03/23/2022	09:57	-136.105	49.462	0	1535.30	0	2.3230	0	34.5060	0	27.558	0	1516.628	0	-1e10	8	-1e10	8	-1E+10	1	-1E+10	1	-1E+10	1	-1E+10	1	-1E+10	1	-1E+10	1
4902554	41	C	03/23/2022	09:57	-136.105	49.462	0	1545.30	0	2.3120	0	34.5080	0	27.561	0	1526.470	0	-1e10	8	-1e10	8	-1E+10	1	-1E+10	1	-1E+10	1	-1E+10	1	-1E+10	1	-1E+10	1
4902554	41	C	03/23/2022	09:57	-136.105	49.462	0	1555.40	0	2.3040	0	34.5100	0	27.563	0	1536.410	0	-1e10	8	-1e10	8	-1E+10	1	-1E+10	1	-1E+10	1	-1E+10	1	-1E+10	1	-1E+10	1
4902554	41	C	03/23/2022	09:57	-136.105	49.462	0	1565.40	0	2.2940	0	34.5120	0	27.566	0	1546.252	0	-1e10	8	-1e10	8	-1E+10	1	-1E+10	1	-1E+10	1	-1E+10	1	-1E+10	1	-1E+10	1
4902554	41	C	03/23/2022	09:57	-136.105	49.462	0	1575.20	0	2.2830	0	34.5150	0	27.569	0	1555.896	0	-1e10	8	-1e10	8	-1E+10	1	-1E+10	1	-1E+10	1	-1E+10	1	-1E+10	1	-1E+10	1
4902554	41	C	03/23/2022	09:57	-136.105	49.462	0	1585.60	0	2.2750	0	34.5160	0	27.570	0	1566.130	0	-1e10	8	-1e10	8	-1E+10	1	-1E+10	1	-1E+10	1	-1E+10	1	-1E+10	1	-1E+10	1
4902554	41	C	03/23/2022	09:57	-136.105	49.462	0	1595.80	0	2.2660	0	34.5180	0	27.573	0	1576.167	0	-1e10	8	-1e10	8	-1E+10	1	-1E+10	1	-1E+10	1	-1E+10	1	-1E+10	1	-1E+10	1
4902554	41	C	03/23/2022	09:57	-136.105	49.462	0	1605.50	0	2.2570	0	34.5190	0	27.574	0	1585.711	0	-1e10	8	-1e10	8	-1E+10	1	-1E+10	1	-1E+10	1	-1E+10	1	-1E+10	1	-1E+10	1
4902554	41	C	03/23/2022	09:57	-136.105	49.462	0	1615.50	0	2.2460	0	34.5220	0	27.578	0	1595.550	0	-1e10	8	-1e10	8	-1E+10	1	-1E+10	1	-1E+10	1	-1E+10	1	-1E+10	1	-1E+10	1
4902554	41	C	03/23/2022	09:57	-136.105	49.462	0	1625.50	0	2.2380	0	34.5230	0	27.579	0	1605.389	0	-1e10	8	-1e10	8	-1E+10	1	-1E+10	1	-1E+10	1	-1E+10	1	-1E+10	1	-1E+10	1
4902554	41	C	03/23/2022	09:57	-136.105	49.462	0	1635.60	0	2.2290	0	34.5250	0	27.582	0	1615.325	0	-1e10	8	-1e10	8	-1E+10	1	-1E+10	1	-1E+10	1	-1E+10	1	-1E+10	1	-1E+10	1
4902554	41	C	03/23/2022	09:57	-136.105	49.462	0	1645.30	0	2.2180	0	34.5270	0	27.584	0	1624.868	0	-1e10	8	-1e10	8	-1E+10	1	-1E+10	1	-1E+10	1	-1E+10	1	-1E+10	1	-1E+10	1
4902554	41	C	03/23/2022	09:57	-136.105	49.462	0	1655.10	0	2.2100	0	34.5290	0	27.586	0	1634.508	0	-1e10	8	-1e10	8	-1E+10	1	-1E+10	1	-1E+10	1	-1E+10	1	-1E+10	1	-1E+10	1
4902554	41	C	03/23/2022	09:57	-136.105	49.462	0	1665.40	0	2.2060	0	34.5310	0	27.588	0	1644.640	0	-1e10	8	-1e10	8	-1E+10	1	-1E+10	1	-1E+10	1	-1E+10	1	-1E+10	1	-1E+10	1
4902554	41	C	03/23/2022	09:57	-136.105	49.462	0	1675.30	0	2.1920	0	34.5340	0	27.592	0	1654.378	0	-1e10	8	-1e10	8	-1E+10	1	-1E+10	1	-1E+10	1	-1E+10	1	-1E+10	1	-1E+10	1
4902554	41	C	03/23/2022	09:57	-136.105	49.462	0	1685.30	0	2.1790	0	34.5370	0	27.596	0	1664.214	0	-1e10	8	-1e10	8	-1E+10	1	-1E+10	1	-1E+10	1	-1E+10	1	-1E+10	1	-1E+10	1
4902554	41	C	03/23/2022	09:57	-136.105	49.462	0	1695.00	0	2.1700	0	34.5380	0	27.597	0	1673.755	0	-1e10	8	-1e10	8	-1E+10	1	-1E+10	1	-1E+10	1	-1E+10	1	-1E+10	1	-1E+10	1
4902554	41	C	03/23/2022	09:57	-136.105	49.462	0	1705.00	0	2.1600	0	34.5390	0	27.599	0	1683.590	0	-1e10	8	-1e10	8	-1E+10	1	-1E+10	1	-1E+10	1	-1E+10	1	-1E+10	1	-1E+10	1
4902554	41	C	03/23/2022	09:57	-136.105	49.462	0	1715.10	0	2.1560	0	34.5400	0	27.600	0	1693.522	0	-1e10	8	-1e10	8	-1E+10	1	-1E+10	1	-1E+10	1	-1E+10	1	-1E+10	1	-1E+10	1
4902554	41	C	03/23/2022	09:57	-136.105	49.462	0	1725.30	0	2.1490	0	34.5420	0	27.602	0	1703.553	0	-1e10	8	-1e10	8	-1E+10	1	-1E+10	1	-1E+10	1	-1E+10	1	-1E+10	1	-1E+10	1
4902554	41	C	03/23/2022	09:57	-136.105	49.462	0	1735.40	0	2.1390	0	34.5440	0	27.605	0	1713.485	0	-1e10	8	-1e10	8	-1E+10	1	-1E+10	1	-1E+10	1	-1E+10	1	-1E+10	1	-1E+10	1
4902554	41	C	03/23/2022	09:57	-136.105	49.462	0	1745.40	0	2.1280	0	34.5460	0	27.607	0	1723.318	0	-1e10	8	-1e10	8	-1E+10	1	-1E+10	1	-1E+10	1	-1E+10	1	-1E+10	1	-1E+10	1
4902554	41	C	03/23/2022	09:57	-136.105	49.462	0	1755.20	0	2.1210	0	34.5470	0	27.609	0	1732.954	0	-1e10	8	-1e10	8	-1E+10	1	-1E+10	1	-1E+10	1	-1E+10	1	-1E+10	1	-1E+10	1
4902554	41	C	03/23/2022	09:57	-136.105	49.462	0	1765.10	0	2.1130	0	34.5490	0	27.611	0	1742.688	0	-1e10	8	-1e10	8	-1E+10	1	-1E+10	1	-1E+10	1	-1E+10	1	-1E+10	1	-1E+10	1
4902554	41	C	03/23/2022	09:57	-136.105	49.462	0	1775.20	0	2.1080	0	34.5500	0	27.612	0	1752.618	0	-1e10	8	-1e10	8	-1E+10	1	-1E+10	1	-1E+10	1	-1E+10	1	-1E+10	1	-1E+10	1
4902554	41	C	03/23/2022	09:57	-136.105	49.462	0	1785.40	0	2.1000	0	34.5510	0	27.614	0	1762.646	0	-1e10	8	-1e10	8	-1E+10	1	-1E+10	1	-1E+10	1	-1E+10	1	-1E+10	1	-1E+10	1
4902554	41	C	03/23/2022	09:57	-136.105	49.462	0	1795.20	0	2.0900	0	34.5530	0	27.616	0	1772.280	0	-1e10	8	-1e10	8	-1E+10	1	-1E+10	1	-1E+10	1	-1E+10	1	-1E+10	1	-1E+10	1
4902554	41	C	03/23/2022	09:57	-136.105	49.462	0	1805.20	0	2.0790	0	34.5550	0	27.619	0	1782.111	0	-1e10	8	-1e10	8	-1E+10	1	-1E+10	1	-1E+10	1	-1E+10	1	-1E+10	1	-1E+10	1
4902554	41	C	03/23/2022	09:57	-136.105	49.462	0	1815.30	0	2.0700	0	34.5570	0	27.621	0	1792.039	0	-1e10	8	-1e10	8	-1E+10	1	-1E+10	1	-1E+10	1	-1E+10	1	-1E+10	1	-1E+10	1
4902554	41	C	03/23/2022	09:57	-136.105	49.462	0	1825.10	0	2.0620	0	34.5590	0	27.623	0	1801.672	0	-1e10	8	-1e10	8	-1E+10	1	-1E+10	1	-1E+10	1	-1E+10	1	-1E+10	1	-1E+10	1
4902554	41	C	03/23/2022	09:57	-136.105	49.462	0	1835.20	0	2.0550	0	34.5600	0	27.625	0	1811.599	0	-1e10	8	-1e10	8	-1E+10	1	-1E+10	1	-1E+10	1	-1E+10	1	-1E+10	1	-1E+10	1
4902554	41	C	03/23/2022	09:57	-136.105	49.462	0	1845.40	0	2.0480	0	34.5620	0	27.627	0	1821.624	0	-1e10	8	-1e10	8	-1E+10	1	-1E+10	1	-1E+10	1	-1E+10	1	-1E+10	1	-1E+10	1
4902554	41	C	03/23/2022	09:57	-136.105	49.462	0	1855.40	0	2.0360	0	34.5640	0	27.629	0	1831.453	0	-1e10	8	-1e10	8	-1E+10	1	-1E+10	1	-1E+10	1	-1E+10	1	-1E+10	1	-1E+10	1
4902554	41	C	03/23/2022	09:57	-136.105	49.462	0	1865.40	0	2.0270	0	34.5660	0	27.632	0	1841.280	0	-1e10	8	-1e10	8	-1E+10	1	-1E+10	1	-1E+10	1	-1E+10	1	-1E+10	1	-1E+10	1
4902554	41	C	03/23/2022	09:57	-136.105	49.462	0	1875.50	0	2.0180	0	34.5680	0	27.634	0	1851.206	0	-1e10	8	-1e10	8	-1E+10	1	-1E+10	1	-1E+10	1	-1E+10	1	-1E+10	1	-1E+10	1
4902554	41	C	03/23/2022	09:57	-136.105	49.462	0	1885.40	0	2.0130	0	34.5690	0	27.635	0	1860.934	0	-1e10	8	-1e10	8	-1E+10	1	-1E+10	1	-1E+10	1	-1E+10	1	-1E+10	1	-1E+10	1
4902554	41	C	03/23/2022	09:57	-136.105	49.462	0	1895.50	0	2.0070	0	34.5700	0	27.637	0	1870.859	0	-1e10	8	-1e10	8	-1E+10	1	-1E+10	1	-1E+10	1	-1E+10	1	-1E+10	1	-1E+10	1
4902554	41	C	03/23/2022	09:57	-136.105	49.462	0	1905.50	0	1.9980	0	34.5720	0	27.639	0	1880.685	0	-1e10	8	-1e10	8	-1E+10	1	-1E+10	1	-1E+10	1	-1E+10	1	-1E+10	1	-1E+10	1
4902554	41	C	03/23/2022	09:57	-136.105	49.462	0	1915.30	0	1.9940	0	34.5730	0	27.640	0	1890.313	0	-1e10	8	-1e10	8	-1E+10	1	-1E+10	1	-1E+10	1	-1E+10	1	-1E+10	1	-1E+10	1
4902554	41	C	03/23/2022	09:57	-136.105	49.462	0	1925.40	0	1.9910	0	34.5740	0	27.641	0	1900.237	0	-1e10	8	-1e10	8	-1E+10	1	-1E+10	1	-1E+10	1	-1E+10	1	-1E+10	1	-1E+10	1
4902554	41	C	03/23/2022	09:57	-136.105	49.462	0	1935.30	0	1.9880	0	34.5740	0	27.642	0	1909.963	0	-1e10	8	-1e10	8	-1E+10	1	-1E+10	1	-1E+10	1	-1E+10	1	-1E+10	1	-1E+10	1
4902554	41	C	03/23/2022	09:57	-136.105	49.462	0	1945.20	0	1.9840	0	34.5750	0	27.643	0	1919.689	0	-1e10	8	-1e10	8	-1E+10	1	-1E+10	1	-1E+10	1	-1E+10	1	-1E+10	1	-1E+10	1
4902554	41	C	03/23/2022	09:57	-136.105	49.462	0	1955.50	0	1.9780	0	34.5760	0	27.644	0	1929.807	0	-1e10	8	-1e10	8	-1E+10	1	-1E+10	1	-1E+10	1	-1E+10	1	-1E+10	1	-1E+10	1
4902554	41	C	03/23/2022	09:57	-136.105	49.462	0	1965.30	0	1.9740	0	34.5770	0	27.645	0	1939.434	0	-1e10	8	-1e10	8	-1E+10	1	-1E+10	1	-1E+10	1	-1E+10	1	-1E+10	1	-1E+10	1
4902554	41	C	03/23/2022	09:57	-136.105	49.462	0	1975.40	0	1.9710	0	34.5780	0	27.646	0	1949.354	0	-1e10	8	-1e10	8	-1E+10	1	-1E+10	1	-1E+10	1	-1E+10	1	-1E+10	1	-1E+10	1
4902554	41	C	03/23/2022	09:57	-136.105	49.462	0	1985.60	0	1.9660	0	34.5790	0	27.648	0	1959.373	0	-1e10	8	-1e10	8	-1E+10	1	-1E+10	1	-1E+10	1	-1E+10	1	-1E+10	1	-1E+10	1
4902554	41	C	03/23/2022	09:57	-136.105	49.462	0	1995.40	0	1.9600	0	34.5800	0	27.649	0	1968.998	0	-1e10	8	-1e10	8	-1E+10	1	-1E+10	1	-1E+10	1	-1E+10	1	-1E+10	1	-1E+10	1
4902554	41	C	03/23/2022	09:57	-136.105	49.462	0	2005.20	0	1.9550	0	34.5820	0	27.651	0	1978.623	0	-1e10	8	-1e10	8	-1E+10	1	-1E+10	1	-1E+10	1	-1E+10	1	-1E+10	1	-1E+10	1
4902554	41	C	03/23/2022	09:57	-136.105	49.462	0	2015.80	0	1.9510	0	34.5830	0	27.652	0	1989.033	0	-1e10	8	-1e10	8	-1E+10	1	-1E+10	1	-1E+10	1	-1E+10	1	-1E+10	1	-1E+10	1
4902554	41	C	03/23/2022	09:57	-136.105	49.462	0	2023.20	0	1.9500	0	34.5830	0	27.652	0	1996.300	0	-1e10	8	-1e10	8	-1E+10	1	-1E+10	1	-1E+10	1	-1E+10	1	-1E+10	1	-1E+10	1
4902554	41	C	03/23/2022	09:57	-136.105	49.462	0																										
4902554	42	C	04/02/2022	15:03	-136.006	49.475	0	0.10	0	6.9680	0	32.3430	0	25.331	0	0.099	0	-1e10	8	-1e10	8	-1E+10	1	-1E+10	1	-1E+10	1	-1E+10	1	-1E+10	1	-1E+10	1
4902554	42	C	04/02/2022	15:03	-136.006	49.475	0	0.20	0	6.9681	0	32.3430	0	25.331	0	0.198	0	-1e10	1	-1e10	1	-1E+10	1	-1E+10	1	-1E+10	1	-1E+10	1	-1E+10	1	-1E+10	1
4902554	42	C	04/02/2022	15:03	-136.006	49.475	0	0.30	0	6.9682	0	32.3430	0	25.331	0	0.297	0	-1e10	1	-1e10	1	-1E+10	1	-1E+10	1	-1E+10	1	-1E+10	1	-1E+10	1	-1E+10	1
4902554	42	C	04/02/2022	15:03	-136.006	49.475	0	0.50	0	6.9685	0	32.3430	0	25.331	0	0.496	0	-1e10	1	-1e10	1	-1E+10	1	-1E+10	1	-1E+10	1	-1E+10	1	-1E+10	1	-1E+10	1
4902554	42	C	04/02/2022	15:03	-136.006	49.475	0	0.60	0	6.9686	0	32.3430	0	25.331	0	0.595	0	-1e10	1	-1e10	1	-1E+10	1	-1E+10	1	-1E+10	1	-1E+10	1	-1E+10	1	-1E+10	1
4902554	42	C	04/02/2022	15:03	-136.006	49.475	0	0.90	0	6.9690	0	32.3430	0	25.331	0	0.892	0	-1e10	8	-1e10	8	-1E+10	1	-1E+10	1	-1E+10	1	-1E+10	1	-1E+10	1	-1E+10	1
4902554	42	C	04/02/2022	15:03	-136.006	49.475	0	2.00	0	6.9690	0	32.3430	0	25.331	0	1.983	0	-1e10	8	-1e10	8	-1E+10	1	-1E+10	1	-1E+10	1	-1E+10	1	-1E+10	1	-1E+10	1
4902554	42	C	04/02/2022	15:03	-136.006	49.475	0	3.00	0	6.9690	0	32.3430	0	25.331	0	2.974	0	-1e10	8	-1e10	8	-1E+10	1	-1E+10	1	-1E+10	1	-1E+10	1	-1E+10	1	-1E+10	1
4902554	42	C	04/02/2022	15:03	-136.006	49.475	0	4.00	0	6.9700	0	32.3440	0	25.331	0	3.966	0	-1e10	8	-1e10	8	-1E+10	1	-1E+10	1	-1E+10	1	-1E+10	1	-1E+10	1	-1E+10	1
4902554	42	C	04/02/2022	15:03	-136.006	49.475	0	5.10	0	6.9690	0	32.3450	0	25.332	0	5.056	0	-1e10	8	-1e10	8	-1E+10	1	-1E+10	1	-1E+10	1	-1E+10	1	-1E+10	1	-1E+10	1
4902554	42	C	04/02/2022	15:03	-136.006	49.475	0	6.00	0	6.9690	0	32.3460	0	25.333	0	5.949	0	-1e10	8	-1e10	8	-1E+10	1	-1E+10	1	-1E+10	1	-1E+10	1	-1E+10	1	-1E+10	1
4902554	42	C	04/02/2022	15:03	-136.006	49.475	0	7.00	0	6.9690	0	32.3460	0	25.333	0	6.940	0	-1e10	8	-1e10	8	-1E+10	1	-1E+10	1	-1E+10	1	-1E+10	1	-1E+10	1	-1E+10	1
4902554	42	C	04/02/2022	15:03	-136.006	49.475	0	8.00	0	6.9700	0	32.3440	0	25.331	0	7.932	0	-1e10	8	-1e10	8	-1E+10	1	-1E+10	1	-1E+10	1	-1E+10	1	-1E+10	1	-1E+10	1
4902554	42	C	04/02/2022	15:03	-136.006	49.475	0	9.00	0	6.9700	0	32.3440	0	25.331	0	8.923	0	-1e10	8	-1e10	8	-1E+10	1	-1E+10	1	-1E+10	1	-1E+10	1	-1E+10	1	-1E+10	1
4902554	42	C	04/02/2022	15:03	-136.006	49.475	0	10.00	0	6.9710	0	32.3430	0	25.330	0	9.915	0	-1e10	8	-1e10	8	-1E+10	1	-1E+10	1	-1E+10	1	-1E+10	1	-1E+10	1	-1E+10	1
4902554	42	C	04/02/2022	15:03	-136.006	49.475	0	10.80	0	6.9700	0	32.3450	0	25.332	0	10.708	0	-1e10	8	-1e10	8	-1E+10	1	-1E+10	1	-1E+10	1	-1E+10	1	-1E+10	1	-1E+10	1
4902554	42	C	04/02/2022	15:03	-136.006	49.475	0	11.90	0	6.9710	0	32.3430	0	25.330	0	11.798	0	-1e10	8	-1e10	8	-1E+10	1	-1E+10	1	-1E+10	1	-1E+10	1	-1E+10	1	-1E+10	1
4902554	42	C	04/02/2022	15:03	-136.006	49.475	0	13.10	0	6.9710	0	32.3440	0	25.331	0	12.988	0	-1e10	8	-1e10	8	-1E+10	1	-1E+10	1	-1E+10	1	-1E+10	1	-1E+10	1	-1E+10	1
4902554	42	C	04/02/2022	15:03	-136.006	49.475	0	13.90	0	6.9710	0	32.3440	0	25.331	0	13.781	0	-1e10	8	-1e10	8	-1E+10	1	-1E+10	1	-1E+10	1	-1E+10	1	-1E+10	1	-1E+10	1
4902554	42	C	04/02/2022	15:03	-136.006	49.475	0	14.90	0	6.9710	0	32.3440	0	25.331	0	14.772	0	-1e10	8	-1e10	8	-1E+10	1	-1E+10	1	-1E+10	1	-1E+10	1	-1E+10	1	-1E+10	1
4902554	42	C	04/02/2022	15:03	-136.006	49.475	0	16.10	0	6.9710	0	32.3440	0	25.331	0	15.962	0	-1e10	8	-1e10	8	-1E+10	1	-1E+10	1	-1E+10	1	-1E+10	1	-1E+10	1	-1E+10	1
4902554	42	C	04/02/2022	15:03	-136.006	49.475	0	17.10	0	6.9710	0	32.3440	0	25.331	0	16.954	0	-1e10	8	-1e10	8	-1E+10	1	-1E+10	1	-1E+10	1	-1E+10	1	-1E+10	1	-1E+10	1
4902554	42	C	04/02/2022	15:03	-136.006	49.475	0	17.90	0	6.9710	0	32.3440	0	25.331	0	17.747	0	-1e10	8	-1e10	8	-1E+10	1	-1E+10	1	-1E+10	1	-1E+10	1	-1E+10	1	-1E+10	1
4902554	42	C	04/02/2022	15:03	-136.006	49.475	0	18.80	0	6.9710	0	32.3440	0	25.331	0	18.639	0	-1e10	8	-1e10	8	-1E+10	1	-1E+10	1	-1E+10	1	-1E+10	1	-1E+10	1	-1E+10	1
4902554	42	C	04/02/2022	15:03	-136.006	49.475	0	20.10	0	6.9710	0	32.3440	0	25.331	0	19.928	0	-1e10	8	-1e10	8	-1E+10	1	-1E+10	1	-1E+10	1	-1E+10	1	-1E+10	1	-1E+10	1
4902554	42	C	04/02/2022	15:03	-136.006	49.475	0	21.10	0	6.9710	0	32.3450	0	25.332	0	20.919	0	-1e10	8	-1e10	8	-1E+10	1	-1E+10	1	-1E+10	1	-1E+10	1	-1E+10	1	-1E+10	1
4902554	42	C	04/02/2022	15:03	-136.006	49.475	0	22.10	0	6.9720	0	32.3450	0	25.332	0	21.910	0	-1e10	8	-1e10	8	-1E+10	1	-1E+10	1	-1E+10	1	-1E+10	1	-1E+10	1	-1E+10	1
4902554	42	C	04/02/2022	15:03	-136.006	49.475	0	23.00	0	6.9720	0	32.3450	0	25.332	0	22.803	0	-1e10	8	-1e10	8	-1E+10	1	-1E+10	1	-1E+10	1	-1E+10	1	-1E+10	1	-1E+10	1
4902554	42	C	04/02/2022	15:03	-136.006	49.475	0	24.10	0	6.9710	0	32.3460	0	25.333	0	23.893	0	-1e10	8	-1e10	8	-1E+10	1	-1E+10	1	-1E+10	1	-1E+10	1	-1E+10	1	-1E+10	1
4902554	42	C	04/02/2022	15:03	-136.006	49.475	0	24.90	0	6.9710	0	32.3460	0	25.333	0	24.686	0	-1e10	8	-1e10	8	-1E+10	1	-1E+10	1	-1E+10	1	-1E+10	1	-1E+10	1	-1E+10	1
4902554	42	C	04/02/2022	15:03	-136.006	49.475	0	25.70	0	6.9710	0	32.3450	0	25.332	0	25.479	0	-1e10	8	-1e10	8	-1E+10	1	-1E+10	1	-1E+10	1	-1E+10	1	-1E+10	1	-1E+10	1
4902554	42	C	04/02/2022	15:03	-136.006	49.475	0	26.80	0	6.9710	0	32.3460	0	25.333	0	26.570	0	-1e10	8	-1e10	8	-1E+10	1	-1E+10	1	-1E+10	1	-1E+10	1	-1E+10	1	-1E+10	1
4902554	42	C	04/02/2022	15:03	-136.006	49.475	0	27.90	0	6.9710	0	32.3460	0	25.333	0	27.660	0	-1e10	8	-1e10	8	-1E+10	1	-1E+10	1	-1E+10	1	-1E+10	1	-1E+10	1	-1E+10	1
4902554	42	C	04/02/2022	15:03	-136.006	49.475	0	29.00	0	6.9710	0	32.3460	0	25.333	0	28.751	0	-1e10	8	-1e10	8	-1E+10	1	-1E+10	1	-1E+10	1	-1E+10	1	-1E+10	1	-1E+10	1
4902554	42	C	04/02/2022	15:03	-136.006	49.475	0	30.10	0	6.9710	0	32.3460	0	25.333	0	29.841	0	-1e10	8	-1e10	8	-1E+10	1	-1E+10	1	-1E+10	1	-1E+10	1	-1E+10	1	-1E+10	1
4902554	42	C	04/02/2022	15:03	-136.006	49.475	0	30.90	0	6.9710	0	32.3460	0	25.333	0	30.634	0	-1e10	8	-1e10	8	-1E+10	1	-1E+10	1	-1E+10	1	-1E+10	1	-1E+10	1	-1E+10	1
4902554	42	C	04/02/2022	15:03	-136.006	49.475	0	32.10	0	6.9720	0	32.3460	0	25.333	0	31.824	0	-1e10	8	-1e10	8	-1E+10	1	-1E+10	1	-1E+10	1	-1E+10	1	-1E+10	1	-1E+10	1
4902554	42	C	04/02/2022	15:03	-136.006	49.475	0	33.10	0	6.9720	0	32.3460	0	25.333	0	32.815	0	-1e10	8	-1e10	8	-1E+10	1	-1E+10	1	-1E+10	1	-1E+10	1	-1E+10	1	-1E+10	1
4902554	42	C	04/02/2022	15:03	-136.006	49.475	0	33.80	0	6.9720	0	32.3460	0	25.333	0	33.509	0	-1e10	8	-1e10	8	-1E+10	1	-1E+10	1	-1E+10	1	-1E+10	1	-1E+10	1	-1E+10	1
4902554	42	C	04/02/2022	15:03	-136.006	49.475	0	34.80	0	6.9720	0	32.3460	0	25.333	0	34.500	0	-1e10	8	-1e10	8	-1E+10	1	-1E+10	1	-1E+10	1	-1E+10	1	-1E+10	1	-1E+10	1
4902554	42	C	04/02/2022	15:03	-136.006	49.475	0	36.00	0	6.9700	0	32.3460	0	25.333	0	35.690	0	-1e10	8	-1e10	8	-1E+10	1	-1E+10	1	-1E+10	1	-1E+10	1	-1E+10	1	-1E+10	1
4902554	42	C	04/02/2022	15:03	-136.006	49.475	0	36.70	0	6.9700	0	32.3460	0	25.333	0	36.384	0	-1e10	8	-1e10	8	-1E+10	1	-1E+10	1	-1E+10	1	-1E+10	1	-1E+10	1	-1E+10	1
4902554	42	C	04/02/2022	15:03	-136.006	49.475	0	37.90	0	6.9720	0	32.3460	0	25.333	0	37.573	0	-1e10	8	-1e10	8	-1E+10	1	-1E+10	1	-1E+10	1	-1E+10	1	-1E+10	1	-1E+10	1
4902554	42	C	04/02/2022	15:03	-136.006	49.475	0	39.10	0	6.9720	0	32.3460	0	25.333	0	38.763	0	-1e10	8	-1e10	8	-1E+10	1	-1E+10	1	-1E+10	1	-1E+10	1	-1E+10	1	-1E+10	1
4902554	42	C	04/02/2022	15:03	-136.006	49.475	0	39.90	0	6.9720	0	32.3460	0	25.333	0	39.556	0	-1e10	8	-1e10	8	-1E+10	1	-1E+10	1	-1E+10	1	-1E+10	1	-1E+10	1	-1E+10	1
4902554	42	C	04/02/2022	15:03	-136.006	49.475	0	40.80	0	6.9710	0	32.3460	0	25.333	0	40.448	0	-1e10	8	-1e10	8	-1E+10	1	-1E+10	1	-1E+10	1	-1E+10	1	-1E+10	1	-1E+10	1
4902554	42	C	04/02/2022	15:03	-136.006	49.475	0	41.80	0	6.9720	0	32.3460	0	25.333	0	41.439	0	-1e10	8	-1e10	8	-1E+10	1	-1E+10	1	-1E+10	1	-1E+10	1	-1E+10	1	-1E+10	1
4902554	42	C	04/02/2022	15:03	-136.006	49.475	0	42.90	0	6.9730	0	32.3460	0	25.333	0	42.530	0	-1e10	8	-1e10	8	-1E+10	1	-1E+10	1	-1E+10	1	-1E+10	1	-1E+10	1	-1E+10	1
4902554	42	C	04/02/2022	15:03	-136.006	49.475	0	44.20	0	6.9720	0	32.3460	0	25.333	0	43.818	0	-1e10	8	-1e10	8	-1E+10	1	-1E+10	1	-1E+10	1	-1E+10	1	-1E+10	1	-1E+10	1
4902554	42	C	04/02/2022	15:03	-136.006	49.475	0	44.90	0	6.9710	0	32.3460	0	25.333	0	44.512	0	-1e10	8	-1e10	8	-1E+10	1	-1E+10	1	-1E+10	1	-1E+10	1	-1E+10	1	-1E+10	1
4902554	42	C	04/02/2022	15:03	-136.006	49.475	0	45.90	0	6.9710	0	32.3460	0	25.333	0	45.504	0	-1e10	8	-1e10	8	-1E+10	1	-1E+10	1	-1E+10	1	-1E+10	1	-1E+10	1	-1E+10	1
4902554	42	C	04/02/2022	15:03	-136.006	49.475	0	47.00	0	6.9720	0	32.3460	0	25.333	0	46.594	0	-1e10	8	-1e10	8	-1E+10	1	-1E+10	1	-1E+10	1	-1E+10	1	-1E+10	1	-1E+10	1
4902554	42	C	04/02/2022	15:03	-136.006	49.475	0	48.30	0	6.9730	0	32.3460	0	25.333	0	47.883	0	-1e10	8	-1e10	8	-1E+10	1	-1E+10	1	-1E+10	1	-1E+10	1	-1E+10	1	-1E+10	1
4902554	42	C	04/02/2022	15:03	-136.006	49.475	0	48.90	0	6.9730	0	32.3460	0	25.333	0	48.477	0	-1e10	8	-1e10	8	-1E+10	1	-1E+10	1	-1E+10	1	-1E+10	1	-1E+10	1	-1E+10	1
4902554	42	C	04/02/2022	15:03	-136.006	49.475	0	50.10	0	6.9730	0	32.3460	0	25.333	0	49.667	0	-1e10	8	-1e10	8	-1E+10	1	-1E+10	1	-1E+10	1	-1E+10	1	-1E+10	1	-1E+10	1
4902554	42	C	04/02/2022	15:03	-136.006	49.475	0	51.00	0	6.9730	0	32.3460	0	25.333	0	50.559	0	-1e10	8	-1e10	8	-1E+10	1	-1E+10	1	-1E+10	1	-1E+10	1	-1E+10	1	-1E+10	1
4902554	42	C	04/02/2022	15:03	-136.006	49.475	0	52.00	0	6.9720	0	32.3460	0	25.333	0	51.550	0	-1e10	8	-1e10	8	-1E+10	1	-1E+10	1	-1E+10	1	-1E+10	1	-1E+10	1	-1E+10	1
4902554	42	C	04/02/2022	15:03	-136.006	49.475	0	52.90	0	6.9710	0	32.3470	0	25.334	0	52.442	0	-1e10	8	-1e10	8	-1E+10	1	-1E+10	1	-1E+10	1	-1E+10	1	-1E+10	1	-1E+10	1
4902554	42	C	04/02/2022	15:03	-136.006	49.475	0	53.90	0	6.9710	0	32.3460	0	25.333	0	53.434	0	-1e10	8	-1e10	8	-1E+10	1	-1E+10	1	-1E+10	1	-1E+10	1	-1E+10	1	-1E+10	1
4902554	42	C	04/02/2022	15:03	-136.006	49.475	0	55.10	0	6.9720	0	32.3460	0	25.333	0	54.623	0	-1e10	8	-1e10	8	-1E+10	1	-1E+10	1	-1E+10	1	-1E+10	1	-1E+10	1	-1E+10	1
4902554	42	C	04/02/2022	15:03	-136.006	49.475	0	55.90	0	6.9720	0	32.3460	0	25.333	0	55.416	0	-1e10	8	-1e10	8	-1E+10	1	-1E+10	1	-1E+10	1	-1E+10	1	-1E+10	1	-1E+10	1
4902554	42	C	04/02/2022	15:03	-136.006	49.475	0	56.80	0	6.9710	0	32.3460	0	25.333	0	56.308	0	-1e10	8	-1e10	8	-1E+10	1	-1E+10	1	-1E+10	1	-1E+10	1	-1E+10	1	-1E+10	1
4902554	42	C	04/02/2022	15:03	-136.006	49.475	0	57.90	0	6.9710	0	32.3460	0	25.333	0	57.398	0	-1e10	8	-1e10	8	-1E+10	1	-1E+10	1	-1E+10	1	-1E+10	1	-1E+10	1	-1E+10	1
4902554	42	C	04/02/2022	15:03	-136.006	49.475	0	59.00	0	6.9710	0	32.3460	0	25.333	0	58.489	0	-1e10	8	-1e10	8	-1E+10	1	-1E+10	1	-1E+10	1	-1E+10	1	-1E+10	1	-1E+10	1
4902554	42	C	04/02/2022	15:03	-136.006	49.475	0	59.90	0	6.9720	0	32.3460	0	25.333	0	59.381	0	-1e10	8	-1e10	8	-1E+10	1	-1E+10	1	-1E+10	1	-1E+10	1	-1E+10	1	-1E+10	1
4902554	42	C	04/02/2022	15:03	-136.006	49.475	0	60.80	0	6.9710	0	32.3460	0	25.333	0	60.273	0	-1e10	8	-1e10	8	-1E+10	1	-1E+10	1	-1E+10	1	-1E+10	1	-1E+10	1	-1E+10	1
4902554	42	C	04/02/2022	15:03	-136.006	49.475	0	62.10	0	6.9680	0	32.3460	0	25.334	0	61.561	0	-1e10	8	-1e10	8	-1E+10	1	-1E+10	1	-1E+10	1	-1E+10	1	-1E+10	1	-1E+10	1
4902554	42	C	04/02/2022	15:03	-136.006	49.475	0	63.00	0	6.9680	0	32.3470	0	25.335	0	62.453	0	-1e10	8	-1e10	8	-1E+10	1	-1E+10	1	-1E+10	1	-1E+10	1	-1E+10	1	-1E+10	1
4902554	42	C	04/02/2022	15:03	-136.006	49.475	0	64.00	0	6.9710	0	32.3460	0	25.333	0	63.445	0	-1e10	8	-1e10	8	-1E+10	1	-1E+10	1	-1E+10	1	-1E+10	1	-1E+10	1	-1E+10	1
4902554	42	C	04/02/2022	15:03	-136.006	49.475	0	64.90	0	6.9730	0	32.3460	0	25.333	0	64.337	0	-1e10	8	-1e10	8	-1E+10	1	-1E+10	1	-1E+10	1	-1E+10	1	-1E+10	1	-1E+10	1
4902554	42	C	04/02/2022	15:03	-136.006	49.475	0	65.80	0	6.9720	0	32.3460	0	25.333	0	65.229	0	-1e10	8	-1e10	8	-1E+10	1	-1E+10	1	-1E+10	1	-1E+10	1	-1E+10	1	-1E+10	1
4902554	42	C	04/02/2022	15:03	-136.006	49.475	0	67.00	0	6.9730	0	32.3460	0	25.333	0	66.418	0	-1e10	8	-1e10	8	-1E+10	1	-1E+10	1	-1E+10	1	-1E+10	1	-1E+10	1	-1E+10	1
4902554	42	C	04/02/2022	15:03	-136.006	49.475	0	68.10	0	6.9730	0	32.3460	0	25.333	0	67.508	0	-1e10	8	-1e10	8	-1E+10	1	-1E+10	1	-1E+10	1	-1E+10	1	-1E+10	1	-1E+10	1
4902554	42	C	04/02/2022	15:03	-136.006	49.475	0	69.10	0	6.9720	0	32.3450	0	25.333	0	68.499	0	-1e10	8	-1e10	8	-1E+10	1	-1E+10	1	-1E+10	1	-1E+10	1	-1E+10	1	-1E+10	1
4902554	42	C	04/02/2022	15:03	-136.006	49.475	0	70.10	0	6.9700	0	32.3440	0	25.332	0	69.491	0	-1e10	8	-1e10	8	-1E+10	1	-1E+10	1	-1E+10	1	-1E+10	1	-1E+10	1	-1E+10	1
4902554	42	C	04/02/2022	15:03	-136.006	49.475	0	71.30	0	6.9730	0	32.3460	0	25.333	0	70.680	0	-1e10	8	-1e10	8	-1E+10	1	-1E+10	1	-1E+10	1	-1E+10	1	-1E+10	1	-1E+10	1
4902554	42	C	04/02/2022	15:03	-136.006	49.475	0	71.90	0	6.9710	0	32.3460	0	25.334	0	71.275	0	-1e10	8	-1e10	8	-1E+10	1	-1E+10	1	-1E+10	1	-1E+10	1	-1E+10	1	-1E+10	1
4902554	42	C	04/02/2022	15:03	-136.006	49.475	0	73.00	0	6.9600	0	32.3470	0	25.336	0	72.365	0	-1e10	8	-1e10	8	-1E+10	1	-1E+10	1	-1E+10	1	-1E+10	1	-1E+10	1	-1E+10	1
4902554	42	C	04/02/2022	15:03	-136.006	49.475	0	74.20	0	6.9630	0	32.3460	0	25.335	0	73.554	0	-1e10	8	-1e10	8	-1E+10	1	-1E+10	1	-1E+10	1	-1E+10	1	-1E+10	1	-1E+10	1
4902554	42	C	04/02/2022	15:03	-136.006	49.475	0	75.10	0	6.9630	0	32.3470	0	25.335	0	74.446	0	-1e10	8	-1e10	8	-1E+10	1	-1E+10	1	-1E+10	1	-1E+10	1	-1E+10	1	-1E+10	1
4902554	42	C	04/02/2022	15:03	-136.006	49.475	0	75.70	0	6.9640	0	32.3470	0	25.335	0	75.041	0	-1e10	8	-1e10	8	-1E+10	1	-1E+10	1	-1E+10	1	-1E+10	1	-1E+10	1	-1E+10	1
4902554	42	C	04/02/2022	15:03	-136.006	49.475	0	76.80	0	6.9620	0	32.3450	0	25.334	0	76.131	0	-1e10	8	-1e10	8	-1E+10	1	-1E+10	1	-1E+10	1	-1E+10	1	-1E+10	1	-1E+10	1
4902554	42	C	04/02/2022	15:03	-136.006	49.475	0	77.90	0	6.9410	0	32.3460	0	25.338	0	77.221	0	-1e10	8	-1e10	8	-1E+10	1	-1E+10	1	-1E+10	1	-1E+10	1	-1E+10	1	-1E+10	1
4902554	42	C	04/02/2022	15:03	-136.006	49.475	0	78.90	0	6.9350	0	32.3470	0	25.339	0	78.212	0	-1e10	8	-1e10	8	-1E+10	1	-1E+10	1	-1E+10	1	-1E+10	1	-1E+10	1	-1E+10	1
4902554	42	C	04/02/2022	15:03	-136.006	49.475	0	79.90	0	6.9320	0	32.3480	0	25.340	0	79.203	0	-1e10	8	-1e10	8	-1E+10	1	-1E+10	1	-1E+10	1	-1E+10	1	-1E+10	1	-1E+10	1
4902554	42	C	04/02/2022	15:03	-136.006	49.475	0	81.00	0	6.9310	0	32.3480	0	25.341	0	80.294	0	-1e10	8	-1e10	8	-1E+10	1	-1E+10	1	-1E+10	1	-1E+10	1	-1E+10	1	-1E+10	1
4902554	42	C	04/02/2022	15:03	-136.006	49.475	0	82.20	0	6.9310	0	32.3480	0	25.341	0	81.483	0	-1e10	8	-1e10	8	-1E+10	1	-1E+10	1	-1E+10	1	-1E+10	1	-1E+10	1	-1E+10	1
4902554	42	C	04/02/2022	15:03	-136.006	49.475	0	82.90	0	6.9300	0	32.3480	0	25.341	0	82.177	0	-1e10	8	-1e10	8	-1E+10	1	-1E+10	1	-1E+10	1	-1E+10	1	-1E+10	1	-1E+10	1
4902554	42	C	04/02/2022	15:03	-136.006	49.475	0	84.10	0	6.8950	0	32.3530	0	25.349	0	83.366	0	-1e10	8	-1e10	8	-1E+10	1	-1E+10	1	-1E+10	1	-1E+10	1	-1E+10	1	-1E+10	1
4902554	42	C	04/02/2022	15:03	-136.006	49.475	0	84.90	0	6.8780	0	32.3560	0	25.354	0	84.159	0	-1e10	8	-1e10	8	-1E+10	1	-1E+10	1	-1E+10	1	-1E+10	1	-1E+10	1	-1E+10	1
4902554	42	C	04/02/2022	15:03	-136.006	49.475	0	86.00	0	6.8460	0	32.3600	0	25.361	0	85.249	0	-1e10	8	-1e10	8	-1E+10	1	-1E+10	1	-1E+10	1	-1E+10	1	-1E+10	1	-1E+10	1
4902554	42	C	04/02/2022	15:03	-136.006	49.475	0	87.20	0	6.7470	0	32.3810	0	25.391	0	86.438	0	-1e10	8	-1e10	8	-1E+10	1	-1E+10	1	-1E+10	1	-1E+10	1	-1E+10	1	-1E+10	1
4902554	42	C	04/02/2022	15:03	-136.006	49.475	0	88.10	0	6.7190	0	32.3860	0	25.398	0	87.330	0	-1e10	8	-1e10	8	-1E+10	1	-1E+10	1	-1E+10	1	-1E+10	1	-1E+10	1	-1E+10	1
4902554	42	C	04/02/2022	15:03	-136.006	49.475	0	88.80	0	6.6920	0	32.3920	0	25.406	0	88.024	0	-1e10	8	-1e10	8	-1E+10	1	-1E+10	1	-1E+10	1	-1E+10	1	-1E+10	1	-1E+10	1
4902554	42	C	04/02/2022	15:03	-136.006	49.475	0	90.10	0	6.6490	0	32.4020	0	25.420	0	89.312	0	-1e10	8	-1e10	8	-1E+10	1	-1E+10	1	-1E+10	1	-1E+10	1	-1E+10	1	-1E+10	1
4902554	42	C	04/02/2022	15:03	-136.006	49.475	0	91.10	0	6.6100	0	32.4130	0	25.434	0	90.303	0	-1e10	8	-1e10	8	-1E+10	1	-1E+10	1	-1E+10	1	-1E+10	1	-1E+10	1	-1E+10	1
4902554	42	C	04/02/2022	15:03	-136.006	49.475	0	92.10	0	6.5540	0	32.4300	0	25.454	0	91.294	0	-1e10	8	-1e10	8	-1E+10	1	-1E+10	1	-1E+10	1	-1E+10	1	-1E+10	1	-1E+10	1
4902554	42	C	04/02/2022	15:03	-136.006	49.475	0	93.10	0	6.5240	0	32.4400	0	25.466	0	92.285	0	-1e10	8	-1e10	8	-1E+10	1	-1E+10	1	-1E+10	1	-1E+10	1	-1E+10	1	-1E+10	1
4902554	42	C	04/02/2022	15:03	-136.006	49.475	0	94.10	0	6.5060	0	32.4460	0	25.473	0	93.276	0	-1e10	8	-1e10	8	-1E+10	1	-1E+10	1	-1E+10	1	-1E+10	1	-1E+10	1	-1E+10	1
4902554	42	C	04/02/2022	15:03	-136.006	49.475	0	94.90	0	6.4810	0	32.4570	0	25.485	0	94.069	0	-1e10	8	-1e10	8	-1E+10	1	-1E+10	1	-1E+10	1	-1E+10	1	-1E+10	1	-1E+10	1
4902554	42	C	04/02/2022	15:03	-136.006	49.475	0	95.70	0	6.4530	0	32.4670	0	25.496	0	94.862	0	-1e10	8	-1e10	8	-1E+10	1	-1E+10	1	-1E+10	1	-1E+10	1	-1E+10	1	-1E+10	1
4902554	42	C	04/02/2022	15:03	-136.006	49.475	0	96.90	0	6.4320	0	32.4750	0	25.505	0	96.051	0	-1e10	8	-1e10	8	-1E+10	1	-1E+10	1	-1E+10	1	-1E+10	1	-1E+10	1	-1E+10	1
4902554	42	C	04/02/2022	15:03	-136.006	49.475	0	98.00	0	6.4120	0	32.4840	0	25.515	0	97.141	0	-1e10	8	-1e10	8	-1E+10	1	-1E+10	1	-1E+10	1	-1E+10	1	-1E+10	1	-1E+10	1
4902554	42	C	04/02/2022	15:03	-136.006	49.475	0	98.80	0	6.3970	0	32.4910	0	25.522	0	97.934	0	-1e10	8	-1e10	8	-1E+10	1	-1E+10	1	-1E+10	1	-1E+10	1	-1E+10	1	-1E+10	1
4902554	42	C	04/02/2022	15:03	-136.006	49.475	0	100.00	0	6.3800	0	32.4990	0	25.531	0	99.123	0	-1e10	8	-1e10	8	-1E+10	1	-1E+10	1	-1E+10	1	-1E+10	1	-1E+10	1	-1E+10	1
4902554	42	C	04/02/2022	15:03	-136.006	49.475	0	101.00	0	6.3640	0	32.5120	0	25.543	0	100.114	0	-1e10	8	-1e10	8	-1E+10	1	-1E+10	1	-1E+10	1	-1E+10	1	-1E+10	1	-1E+10	1
4902554	42	C	04/02/2022	15:03	-136.006	49.475	0	102.10	0	6.3460	0	32.5250	0	25.556	0	101.205	0	-1e10	8	-1e10	8	-1E+10	1	-1E+10	1	-1E+10	1	-1E+10	1	-1E+10	1	-1E+10	1
4902554	42	C	04/02/2022	15:03	-136.006	49.475	0	103.00	0	6.3360	0	32.5310	0	25.562	0	102.096	0	-1e10	8	-1e10	8	-1E+10	1	-1E+10	1	-1E+10	1	-1E+10	1	-1E+10	1	-1E+10	1
4902554	42	C	04/02/2022	15:03	-136.006	49.475	0	104.10	0	6.3250	0	32.5400	0	25.570	0	103.186	0	-1e10	8	-1e10	8	-1E+10	1	-1E+10	1	-1E+10	1	-1E+10	1	-1E+10	1	-1E+10	1
4902554	42	C	04/02/2022	15:03	-136.006	49.475	0	104.80	0	6.3180	0	32.5450	0	25.575	0	103.880	0	-1e10	8	-1e10	8	-1E+10	1	-1E+10	1	-1E+10	1	-1E+10	1	-1E+10	1	-1E+10	1
4902554	42	C	04/02/2022	15:03	-136.006	49.475	0	106.00	0	6.3090	0	32.5520	0	25.582	0	105.069	0	-1e10	8	-1e10	8	-1E+10	1	-1E+10	1	-1E+10	1	-1E+10	1	-1E+10	1	-1E+10	1
4902554	42	C	04/02/2022	15:03	-136.006	49.475	0	107.20	0	6.2870	0	32.5700	0	25.599	0	106.258	0	-1e10	8	-1e10	8	-1E+10	1	-1E+10	1	-1E+10	1	-1E+10	1	-1E+10	1	-1E+10	1
4902554	42	C	04/02/2022	15:03	-136.006	49.475	0	107.80	0	6.2760	0	32.5790	0	25.607	0	106.853	0	-1e10	8	-1e10	8	-1E+10	1	-1E+10	1	-1E+10	1	-1E+10	1	-1E+10	1	-1E+10	1
4902554	42	C	04/02/2022	15:03	-136.006	49.475	0	108.90	0	6.2600	0	32.5940	0	25.621	0	107.943	0	-1e10	8	-1e10	8	-1E+10	1	-1E+10	1	-1E+10	1	-1E+10	1	-1E+10	1	-1E+10	1
4902554	42	C	04/02/2022	15:03	-136.006	49.475	0	110.00	0	6.2500	0	32.6070	0	25.632	0	109.033	0	-1e10	8	-1e10	8	-1E+10	1	-1E+10	1	-1E+10	1	-1E+10	1	-1E+10	1	-1E+10	1
4902554	42	C	04/02/2022	15:03	-136.006	49.475	0	111.20	0	6.2240	0	32.6430	0	25.664	0	110.222	0	-1e10	8	-1e10	8	-1E+10	1	-1E+10	1	-1E+10	1	-1E+10	1	-1E+10	1	-1E+10	1
4902554	42	C	04/02/2022	15:03	-136.006	49.475	0	111.90	0	6.2000	0	32.6810	0	25.697	0	110.916	0	-1e10	8	-1e10	8	-1E+10	1	-1E+10	1	-1E+10	1	-1E+10	1	-1E+10	1	-1E+10	1
4902554	42	C	04/02/2022	15:03	-136.006	49.475	0	113.00	0	6.1640	0	32.7550	0	25.760	0	112.006	0	-1e10	8	-1e10	8	-1E+10	1	-1E+10	1	-1E+10	1	-1E+10	1	-1E+10	1	-1E+10	1
4902554	42	C	04/02/2022	15:03	-136.006	49.475	0	113.90	0	6.1420	0	32.8000	0	25.798	0	112.898	0	-1e10	8	-1e10	8	-1E+10	1	-1E+10	1	-1E+10	1	-1E+10	1	-1E+10	1	-1E+10	1
4902554	42	C	04/02/2022	15:03	-136.006	49.475	0	114.80	0	6.1130	0	32.8700	0	25.857	0	113.790	0	-1e10	8	-1e10	8	-1E+10	1	-1E+10	1	-1E+10	1	-1E+10	1	-1E+10	1	-1E+10	1
4902554	42	C	04/02/2022	15:03	-136.006	49.475	0	115.80	0	6.0960	0	32.9190	0	25.898	0	114.781	0	-1e10	8	-1e10	8	-1E+10	1	-1E+10	1	-1E+10	1	-1E+10	1	-1E+10	1	-1E+10	1
4902554	42	C	04/02/2022	15:03	-136.006	49.475	0	116.80	0	6.0940	0	32.9260	0	25.904	0	115.771	0	-1e10	8	-1e10	8	-1E+10	1	-1E+10	1	-1E+10	1	-1E+10	1	-1E+10	1	-1E+10	1
4902554	42	C	04/02/2022	15:03	-136.006	49.475	0	117.80	0	6.0900	0	32.9360	0	25.912	0	116.762	0	-1e10	8	-1e10	8	-1E+10	1	-1E+10	1	-1E+10	1	-1E+10	1	-1E+10	1	-1E+10	1
4902554	42	C	04/02/2022	15:03	-136.006	49.475	0	118.80	0	6.0850	0	32.9520	0	25.925	0	117.753	0	-1e10	8	-1e10	8	-1E+10	1	-1E+10	1	-1E+10	1	-1E+10	1	-1E+10	1	-1E+10	1
4902554	42	C	04/02/2022	15:03	-136.006	49.475	0	120.00	0	6.0830	0	32.9570	0	25.930	0	118.942	0	-1e10	8	-1e10	8	-1E+10	1	-1E+10	1	-1E+10	1	-1E+10	1	-1E+10	1	-1E+10	1
4902554	42	C	04/02/2022	15:03	-136.006	49.475	0	121.00	0	6.0740	0	33.0020	0	25.966	0	119.933	0	-1e10	8	-1e10	8	-1E+10	1	-1E+10	1	-1E+10	1	-1E+10	1	-1E+10	1	-1E+10	1
4902554	42	C	04/02/2022	15:03	-136.006	49.475	0	122.00	0	6.0620	0	33.0380	0	25.996	0	120.924	0	-1e10	8	-1e10	8	-1E+10	1	-1E+10	1	-1E+10	1	-1E+10	1	-1E+10	1	-1E+10	1
4902554	42	C	04/02/2022	15:03	-136.006	49.475	0	123.00	0	6.0580	0	33.0520	0	26.008	0	121.915	0	-1e10	8	-1e10	8	-1E+10	1	-1E+10	1	-1E+10	1	-1E+10	1	-1E+10	1	-1E+10	1
4902554	42	C	04/02/2022	15:03	-136.006	49.475	0	123.90	0	6.0500	0	33.0770	0	26.029	0	122.807	0	-1e10	8	-1e10	8	-1E+10	1	-1E+10	1	-1E+10	1	-1E+10	1	-1E+10	1	-1E+10	1
4902554	42	C	04/02/2022	15:03	-136.006	49.475	0	125.00	0	6.0370	0	33.1220	0	26.066	0	123.897	0	-1e10	8	-1e10	8	-1E+10	1	-1E+10	1	-1E+10	1	-1E+10	1	-1E+10	1	-1E+10	1
4902554	42	C	04/02/2022	15:03	-136.006	49.475	0	126.00	0	6.0250	0	33.1570	0	26.095	0	124.888	0	-1e10	8	-1e10	8	-1E+10	1	-1E+10	1	-1E+10	1	-1E+10	1	-1E+10	1	-1E+10	1
4902554	42	C	04/02/2022	15:03	-136.006	49.475	0	127.20	0	6.0070	0	33.2320	0	26.156	0	126.077	0	-1e10	8	-1e10	8	-1E+10	1	-1E+10	1	-1E+10	1	-1E+10	1	-1E+10	1	-1E+10	1
4902554	42	C	04/02/2022	15:03	-136.006	49.475	0	128.00	0	6.0050	0	33.2530	0	26.173	0	126.869	0	-1e10	8	-1e10	8	-1E+10	1	-1E+10	1	-1E+10	1	-1E+10	1	-1E+10	1	-1E+10	1
4902554	42	C	04/02/2022	15:03	-136.006	49.475	0	128.80	0	6.0020	0	33.2630	0	26.181	0	127.662	0	-1e10	8	-1e10	8	-1E+10	1	-1E+10	1	-1E+10	1	-1E+10	1	-1E+10	1	-1E+10	1
4902554	42	C	04/02/2022	15:03	-136.006	49.475	0	130.00	0	5.9990	0	33.2700	0	26.187	0	128.851	0	-1e10	8	-1e10	8	-1E+10	1	-1E+10	1	-1E+10	1	-1E+10	1	-1E+10	1	-1E+10	1
4902554	42	C	04/02/2022	15:03	-136.006	49.475	0	131.10	0	5.9930	0	33.2790	0	26.195	0	129.941	0	-1e10	8	-1e10	8	-1E+10	1	-1E+10	1	-1E+10	1	-1E+10	1	-1E+10	1	-1E+10	1
4902554	42	C	04/02/2022	15:03	-136.006	49.475	0	131.90	0	5.9870	0	33.2840	0	26.200	0	130.734	0	-1e10	8	-1e10	8	-1E+10	1	-1E+10	1	-1E+10	1	-1E+10	1	-1E+10	1	-1E+10	1
4902554	42	C	04/02/2022	15:03	-136.006	49.475	0	133.00	0	5.9780	0	33.3060	0	26.218	0	131.824	0	-1e10	8	-1e10	8	-1E+10	1	-1E+10	1	-1E+10	1	-1E+10	1	-1E+10	1	-1E+10	1
4902554	42	C	04/02/2022	15:03	-136.006	49.475	0	134.20	0	5.9710	0	33.3250	0	26.234	0	133.013	0	-1e10	8	-1e10	8	-1E+10	1	-1E+10	1	-1E+10	1	-1E+10	1	-1E+10	1	-1E+10	1
4902554	42	C	04/02/2022	15:03	-136.006	49.475	0	135.00	0	5.9280	0	33.3510	0	26.260	0	133.805	0	-1e10	8	-1e10	8	-1E+10	1	-1E+10	1	-1E+10	1	-1E+10	1	-1E+10	1	-1E+10	1
4902554	42	C	04/02/2022	15:03	-136.006	49.475	0	135.80	0	5.9500	0	33.3760	0	26.277	0	134.598	0	-1e10	8	-1e10	8	-1E+10	1	-1E+10	1	-1E+10	1	-1E+10	1	-1E+10	1	-1E+10	1
4902554	42	C	04/02/2022	15:03	-136.006	49.475	0	137.00	0	5.9390	0	33.4100	0	26.305	0	135.787	0	-1e10	8	-1e10	8	-1E+10	1	-1E+10	1	-1E+10	1	-1E+10	1	-1E+10	1	-1E+10	1
4902554	42	C	04/02/2022	15:03	-136.006	49.475	0	138.20	0	5.9380	0	33.4240	0	26.317	0	136.976	0	-1e10	8	-1e10	8	-1E+10	1	-1E+10	1	-1E+10	1	-1E+10	1	-1E+10	1	-1E+10	1
4902554	42	C	04/02/2022	15:03	-136.006	49.475	0	139.00	0	5.9160	0	33.4370	0	26.330	0	137.769	0	-1e10	8	-1e10	8	-1E+10	1	-1E+10	1	-1E+10	1	-1E+10	1	-1E+10	1	-1E+10	1
4902554	42	C	04/02/2022	15:03	-136.006	49.475	0	139.80	0	5.8880	0	33.4510	0	26.344	0	138.561	0	-1e10	8	-1e10	8	-1E+10	1	-1E+10	1	-1E+10	1	-1E+10	1	-1E+10	1	-1E+10	1
4902554	42	C	04/02/2022	15:03	-136.006	49.475	0	140.70	0	5.8730	0	33.4640	0	26.356	0	139.453	0	-1e10	8	-1e10	8	-1E+10	1	-1E+10	1	-1E+10	1	-1E+10	1	-1E+10	1	-1E+10	1
4902554	42	C	04/02/2022	15:03	-136.006	49.475	0	141.90	0	5.8710	0	33.4930	0	26.379	0	140.642	0	-1e10	8	-1e10	8	-1E+10	1	-1E+10	1	-1E+10	1	-1E+10	1	-1E+10	1	-1E+10	1
4902554	42	C	04/02/2022	15:03	-136.006	49.475	0	143.20	0	5.8830	0	33.5330	0	26.410	0	141.930	0	-1e10	8	-1e10	8	-1E+10	1	-1E+10	1	-1E+10	1	-1E+10	1	-1E+10	1	-1E+10	1
4902554	42	C	04/02/2022	15:03	-136.006	49.475	0	144.10	0	5.8720	0	33.5450	0	26.420	0	142.822	0	-1e10	8	-1e10	8	-1E+10	1	-1E+10	1	-1E+10	1	-1E+10	1	-1E+10	1	-1E+10	1
4902554	42	C	04/02/2022	15:03	-136.006	49.475	0	145.00	0	5.8620	0	33.5580	0	26.432	0	143.713	0	-1e10	8	-1e10	8	-1E+10	1	-1E+10	1	-1E+10	1	-1E+10	1	-1E+10	1	-1E+10	1
4902554	42	C	04/02/2022	15:03	-136.006	49.475	0	145.80	0	5.8680	0	33.5630	0	26.435	0	144.506	0	-1e10	8	-1e10	8	-1E+10	1	-1E+10	1	-1E+10	1	-1E+10	1	-1E+10	1	-1E+10	1
4902554	42	C	04/02/2022	15:03	-136.006	49.475	0	146.70	0	5.8680	0	33.5790	0	26.448	0	145.398	0	-1e10	8	-1e10	8	-1E+10	1	-1E+10	1	-1E+10	1	-1E+10	1	-1E+10	1	-1E+10	1
4902554	42	C	04/02/2022	15:03	-136.006	49.475	0	147.60	0	5.8680	0	33.5820	0	26.450	0	146.289	0	-1e10	8	-1e10	8	-1E+10	1	-1E+10	1	-1E+10	1	-1E+10	1	-1E+10	1	-1E+10	1
4902554	42	C	04/02/2022	15:03	-136.006	49.475	0	148.90	0	5.8680	0	33.5890	0	26.456	0	147.577	0	-1e10	8	-1e10	8	-1E+10	1	-1E+10	1	-1E+10	1	-1E+10	1	-1E+10	1	-1E+10	1
4902554	42	C	04/02/2022	15:03	-136.006	49.475	0	150.20	0	5.8620	0	33.5950	0	26.461	0	148.865	0	-1e10	8	-1e10	8	-1E+10	1	-1E+10	1	-1E+10	1	-1E+10	1	-1E+10	1	-1E+10	1
4902554	42	C	04/02/2022	15:03	-136.006	49.475	0	151.10	0	5.8630	0	33.6080	0	26.471	0	149.757	0	-1e10	8	-1e10	8	-1E+10	1	-1E+10	1	-1E+10	1	-1E+10	1	-1E+10	1	-1E+10	1
4902554	42	C	04/02/2022	15:03	-136.006	49.475	0	152.00	0	5.8550	0	33.6160	0	26.479	0	150.649	0	-1e10	8	-1e10	8	-1E+10	1	-1E+10	1	-1E+10	1	-1E+10	1	-1E+10	1	-1E+10	1
4902554	42	C	04/02/2022	15:03	-136.006	49.475	0	152.90	0	5.8180	0	33.6130	0	26.481	0	151.540	0	-1e10	8	-1e10	8	-1E+10	1	-1E+10	1	-1E+10	1	-1E+10	1	-1E+10	1	-1E+10	1
4902554	42	C	04/02/2022	15:03	-136.006	49.475	0	153.80	0	5.8040	0	33.6200	0	26.488	0	152.432	0	-1e10	8	-1e10	8	-1E+10	1	-1E+10	1	-1E+10	1	-1E+10	1	-1E+10	1	-1E+10	1
4902554	42	C	04/02/2022	15:03	-136.006	49.475	0	154.70	0	5.7980	0	33.6250	0	26.493	0	153.324	0	-1e10	8	-1e10	8	-1E+10	1	-1E+10	1	-1E+10	1	-1E+10	1	-1E+10	1	-1E+10	1
4902554	42	C	04/02/2022	15:03	-136.006	49.475	0	155.60	0	5.8050	0	33.6290	0	26.495	0	154.215	0	-1e10	8	-1e10	8	-1E+10	1	-1E+10	1	-1E+10	1	-1E+10	1	-1E+10	1	-1E+10	1
4902554	42	C	04/02/2022	15:03	-136.006	49.475	0	156.60	0	5.8130	0	33.6290	0	26.494	0	155.206	0	-1e10	8	-1e10	8	-1E+10	1	-1E+10	1	-1E+10	1	-1E+10	1	-1E+10	1	-1E+10	1
4902554	42	C	04/02/2022	15:03	-136.006	49.475	0	157.90	0	5.8160	0	33.6340	0	26.498	0	156.494	0	-1e10	8	-1e10	8	-1E+10	1	-1E+10	1	-1E+10	1	-1E+10	1	-1E+10	1	-1E+10	1
4902554	42	C	04/02/2022	15:03	-136.006	49.475	0	159.30	0	5.7770	0	33.6440	0	26.510	0	157.881	0	-1e10	8	-1e10	8	-1E+10	1	-1E+10	1	-1E+10	1	-1E+10	1	-1E+10	1	-1E+10	1
4902554	42	C	04/02/2022	15:03	-136.006	49.475	0	160.20	0	5.7530	0	33.6490	0	26.517	0	158.773	0	-1e10	8	-1e10	8	-1E+10	1	-1E+10	1	-1E+10	1	-1E+10	1	-1E+10	1	-1E+10	1
4902554	42	C	04/02/2022	15:03	-136.006	49.475	0	161.10	0	5.7330	0	33.6550	0	26.525	0	159.664	0	-1e10	8	-1e10	8	-1E+10	1	-1E+10	1	-1E+10	1	-1E+10	1	-1E+10	1	-1E+10	1
4902554	42	C	04/02/2022	15:03	-136.006	49.475	0	162.10	0	5.7090	0	33.6640	0	26.535	0	160.655	0	-1e10	8	-1e10	8	-1E+10	1	-1E+10	1	-1E+10	1	-1E+10	1	-1E+10	1	-1E+10	1
4902554	42	C	04/02/2022	15:03	-136.006	49.475	0	163.00	0	5.7050	0	33.6680	0	26.538	0	161.547	0	-1e10	8	-1e10	8	-1E+10	1	-1E+10	1	-1E+10	1	-1E+10	1	-1E+10	1	-1E+10	1
4902554	42	C	04/02/2022	15:03	-136.006	49.475	0	163.80	0	5.6970	0	33.6700	0	26.541	0	162.339	0	-1e10	8	-1e10	8	-1E+10	1	-1E+10	1	-1E+10	1	-1E+10	1	-1E+10	1	-1E+10	1
4902554	42	C	04/02/2022	15:03	-136.006	49.475	0	165.00	0	5.6920	0	33.6710	0	26.542	0	163.528	0	-1e10	8	-1e10	8	-1E+10	1	-1E+10	1	-1E+10	1	-1E+10	1	-1E+10	1	-1E+10	1
4902554	42	C	04/02/2022	15:03	-136.006	49.475	0	166.10	0	5.6870	0	33.6720	0	26.544	0	164.618	0	-1e10	8	-1e10	8	-1E+10	1	-1E+10	1	-1E+10	1	-1E+10	1	-1E+10	1	-1E+10	1
4902554	42	C	04/02/2022	15:03	-136.006	49.475	0	166.80	0	5.6760	0	33.6750	0	26.547	0	165.311	0	-1e10	8	-1e10	8	-1E+10	1	-1E+10	1	-1E+10	1	-1E+10	1	-1E+10	1	-1E+10	1
4902554	42	C	04/02/2022	15:03	-136.006	49.475	0	167.90	0	5.6460	0	33.6820	0	26.557	0	166.401	0	-1e10	8	-1e10	8	-1E+10	1	-1E+10	1	-1E+10	1	-1E+10	1	-1E+10	1	-1E+10	1
4902554	42	C	04/02/2022	15:03	-136.006	49.475	0	169.00	0	5.6220	0	33.6880	0	26.564	0	167.491	0	-1e10	8	-1e10	8	-1E+10	1	-1E+10	1	-1E+10	1	-1E+10	1	-1E+10	1	-1E+10	1
4902554	42	C	04/02/2022	15:03	-136.006	49.475	0	169.70	0	5.6220	0	33.6890	0	26.565	0	168.184	0	-1e10	8	-1e10	8	-1E+10	1	-1E+10	1	-1E+10	1	-1E+10	1	-1E+10	1	-1E+10	1
4902554	42	C	04/02/2022	15:03	-136.006	49.475	0	170.80	0	5.5950	0	33.6940	0	26.572	0	169.274	0	-1e10	8	-1e10	8	-1E+10	1	-1E+10	1	-1E+10	1	-1E+10	1	-1E+10	1	-1E+10	1
4902554	42	C	04/02/2022	15:03	-136.006	49.475	0	172.00	0	5.5750	0	33.6960	0	26.576	0	170.463	0	-1e10	8	-1e10	8	-1E+10	1	-1E+10	1	-1E+10	1	-1E+10	1	-1E+10	1	-1E+10	1
4902554	42	C	04/02/2022	15:03	-136.006	49.475	0	172.80	0	5.5650	0	33.6980	0	26.579	0	171.255	0	-1e10	8	-1e10	8	-1E+10	1	-1E+10	1	-1E+10	1	-1E+10	1	-1E+10	1	-1E+10	1
4902554	42	C	04/02/2022	15:03	-136.006	49.475	0	174.00	0	5.5490	0	33.7010	0	26.583	0	172.444	0	-1e10	8	-1e10	8	-1E+10	1	-1E+10	1	-1E+10	1	-1E+10	1	-1E+10	1	-1E+10	1
4902554	42	C	04/02/2022	15:03	-136.006	49.475	0	175.20	0	5.5350	0	33.7060	0	26.589	0	173.633	0	-1e10	8	-1e10	8	-1E+10	1	-1E+10	1	-1E+10	1	-1E+10	1	-1E+10	1	-1E+10	1
4902554	42	C	04/02/2022	15:03	-136.006	49.475	0	176.00	0	5.5310	0	33.7050	0	26.589	0	174.425	0	-1e10	8	-1e10	8	-1E+10	1	-1E+10	1	-1E+10	1	-1E+10	1	-1E+10	1	-1E+10	1
4902554	42	C	04/02/2022	15:03	-136.006	49.475	0	176.80	0	5.5260	0	33.7050	0	26.589	0	175.218	0	-1e10	8	-1e10	8	-1E+10	1	-1E+10	1	-1E+10	1	-1E+10	1	-1E+10	1	-1E+10	1
4902554	42	C	04/02/2022	15:03	-136.006	49.475	0	177.60	0	5.5230	0	33.7060	0	26.590	0	176.010	0	-1e10	8	-1e10	8	-1E+10	1	-1E+10	1	-1E+10	1	-1E+10	1	-1E+10	1	-1E+10	1
4902554	42	C	04/02/2022	15:03	-136.006	49.475	0	178.90	0	5.5200	0	33.7060	0	26.591	0	177.298	0	-1e10	8	-1e10	8	-1E+10	1	-1E+10	1	-1E+10	1	-1E+10	1	-1E+10	1	-1E+10	1
4902554	42	C	04/02/2022	15:03	-136.006	49.475	0	180.20	0	5.5120	0	33.7100	0	26.595	0	178.586	0	-1e10	8	-1e10	8	-1E+10	1	-1E+10	1	-1E+10	1	-1E+10	1	-1E+10	1	-1E+10	1
4902554	42	C	04/02/2022	15:03	-136.006	49.475	0	181.00	0	5.5080	0	33.7120	0	26.597	0	179.378	0	-1e10	8	-1e10	8	-1E+10	1	-1E+10	1	-1E+10	1	-1E+10	1	-1E+10	1	-1E+10	1
4902554	42	C	04/02/2022	15:03	-136.006	49.475	0	181.90	0	5.5050	0	33.7140	0	26.599	0	180.270	0	-1e10	8	-1e10	8	-1E+10	1	-1E+10	1	-1E+10	1	-1E+10	1	-1E+10	1	-1E+10	1
4902554	42	C	04/02/2022	15:03	-136.006	49.475	0	182.70	0	5.5010	0	33.7160	0	26.601	0	181.062	0	-1e10	8	-1e10	8	-1E+10	1	-1E+10	1	-1E+10	1	-1E+10	1	-1E+10	1	-1E+10	1
4902554	42	C	04/02/2022	15:03	-136.006	49.475	0	184.00	0	5.4820	0	33.7200	0	26.606	0	182.350	0	-1e10	8	-1e10	8	-1E+10	1	-1E+10	1	-1E+10	1	-1E+10	1	-1E+10	1	-1E+10	1
4902554	42	C	04/02/2022	15:03	-136.006	49.475	0	185.30	0	5.4720	0	33.7210	0	26.608	0	183.638	0	-1e10	8	-1e10	8	-1E+10	1	-1E+10	1	-1E+10	1	-1E+10	1	-1E+10	1	-1E+10	1
4902554	42	C	04/02/2022	15:03	-136.006	49.475	0	186.20	0	5.4650	0	33.7220	0	26.610	0	184.529	0	-1e10	8	-1e10	8	-1E+10	1	-1E+10	1	-1E+10	1	-1E+10	1	-1E+10	1	-1E+10	1
4902554	42	C	04/02/2022	15:03	-136.006	49.475	0	187.10	0	5.4550	0	33.7220	0	26.611	0	185.421	0	-1e10	8	-1e10	8	-1E+10	1	-1E+10	1	-1E+10	1	-1E+10	1	-1E+10	1	-1E+10	1
4902554	42	C	04/02/2022	15:03	-136.006	49.475	0	187.90	0	5.4500	0	33.7220	0	26.612	0	186.213	0	-1e10	8	-1e10	8	-1E+10	1	-1E+10	1	-1E+10	1	-1E+10	1	-1E+10	1	-1E+10	1
4902554	42	C	04/02/2022	15:03	-136.006	49.475	0	188.80	0	5.4380	0	33.7230	0	26.614	0	187.105	0	-1e10	8	-1e10	8	-1E+10	1	-1E+10	1	-1E+10	1	-1E+10	1	-1E+10	1	-1E+10	1
4902554	42	C	04/02/2022	15:03	-136.006	49.475	0	189.70	0	5.4320	0	33.7240	0	26.615	0	187.996	0	-1e10	8	-1e10	8	-1E+10	1	-1E+10	1	-1E+10	1	-1E+10	1	-1E+10	1	-1E+10	1
4902554	42	C	04/02/2022	15:03	-136.006	49.475	0	190.60	0	5.4250	0	33.7250	0	26.617	0	188.888	0	-1e10	8	-1e10	8	-1E+10	1	-1E+10	1	-1E+10	1	-1E+10	1	-1E+10	1	-1E+10	1
4902554	42	C	04/02/2022	15:03	-136.006	49.475	0	191.90	0	5.4100	0	33.7260	0	26.620	0	190.176	0	-1e10	8	-1e10	8	-1E+10	1	-1E+10	1	-1E+10	1	-1E+10	1	-1E+10	1	-1E+10	1
4902554	42	C	04/02/2022	15:03	-136.006	49.475	0	193.30	0	5.3920	0	33.7280	0	26.623	0	191.562	0	-1e10	8	-1e10	8	-1E+10	1	-1E+10	1	-1E+10	1	-1E+10	1	-1E+10	1	-1E+10	1
4902554	42	C	04/02/2022	15:03	-136.006	49.475	0	194.20	0	5.3880	0	33.7280	0	26.624	0	192.454	0	-1e10	8	-1e10	8	-1E+10	1	-1E+10	1	-1E+10	1	-1E+10	1	-1E+10	1	-1E+10	1
4902554	42	C	04/02/2022	15:03	-136.006	49.475	0	195.10	0	5.3830	0	33.7290	0	26.625	0	193.345	0	-1e10	8	-1e10	8	-1E+10	1	-1E+10	1	-1E+10	1	-1E+10	1	-1E+10	1	-1E+10	1
4902554	42	C	04/02/2022	15:03	-136.006	49.475	0	196.00	0	5.3690	0	33.7300	0	26.628	0	194.237	0	-1e10	8	-1e10	8	-1E+10	1	-1E+10	1	-1E+10	1	-1E+10	1	-1E+10	1	-1E+10	1
4902554	42	C	04/02/2022	15:03	-136.006	49.475	0	196.90	0	5.3630	0	33.7300	0	26.628	0	195.128	0	-1e10	8	-1e10	8	-1E+10	1	-1E+10	1	-1E+10	1	-1E+10	1	-1E+10	1	-1E+10	1
4902554	42	C	04/02/2022	15:03	-136.006	49.475	0	197.80	0	5.3560	0	33.7300	0	26.629	0	196.020	0	-1e10	8	-1e10	8	-1E+10	1	-1E+10	1	-1E+10	1	-1E+10	1	-1E+10	1	-1E+10	1
4902554	42	C	04/02/2022	15:03	-136.006	49.475	0	198.70	0	5.3540	0	33.7310	0	26.630	0	196.911	0	-1e10	8	-1e10	8	-1E+10	1	-1E+10	1	-1E+10	1	-1E+10	1	-1E+10	1	-1E+10	1
4902554	42	C	04/02/2022	15:03	-136.006	49.475	0	199.70	0	5.3260	0	33.7330	0	26.635	0	197.902	0	-1e10	8	-1e10	8	-1E+10	1	-1E+10	1	-1E+10	1	-1E+10	1	-1E+10	1	-1E+10	1
4902554	42	C	04/02/2022	15:03	-136.006	49.475	0	200.60	0	5.3170	0	33.7340	0	26.637	0	198.793	0	-1e10	8	-1e10	8	-1E+10	1	-1E+10	1	-1E+10	1	-1E+10	1	-1E+10	1	-1E+10	1
4902554	42	C	04/02/2022	15:03	-136.006	49.475	0	201.90	0	5.3090	0	33.7350	0	26.639	0	200.081	0	-1e10	8	-1e10	8	-1E+10	1	-1E+10	1	-1E+10	1	-1E+10	1	-1E+10	1	-1E+10	1
4902554	42	C	04/02/2022	15:03	-136.006	49.475	0	203.40	0	5.2670	0	33.7390	0	26.647	0	201.567	0	-1e10	8	-1e10	8	-1E+10	1	-1E+10	1	-1E+10	1	-1E+10	1	-1E+10	1	-1E+10	1
4902554	42	C	04/02/2022	15:03	-136.006	49.475	0	204.30	0	5.2610	0	33.7400	0	26.648	0	202.458	0	-1e10	8	-1e10	8	-1E+10	1	-1E+10	1	-1E+10	1	-1E+10	1	-1E+10	1	-1E+10	1
4902554	42	C	04/02/2022	15:03	-136.006	49.475	0	205.20	0	5.2620	0	33.7400	0	26.648	0	203.350	0	-1e10	8	-1e10	8	-1E+10	1	-1E+10	1	-1E+10	1	-1E+10	1	-1E+10	1	-1E+10	1
4902554	42	C	04/02/2022	15:03	-136.006	49.475	0	206.10	0	5.2600	0	33.7400	0	26.648	0	204.241	0	-1e10	8	-1e10	8	-1E+10	1	-1E+10	1	-1E+10	1	-1E+10	1	-1E+10	1	-1E+10	1
4902554	42	C	04/02/2022	15:03	-136.006	49.475	0	207.00	0	5.2590	0	33.7400	0	26.649	0	205.132	0	-1e10	8	-1e10	8	-1E+10	1	-1E+10	1	-1E+10	1	-1E+10	1	-1E+10	1	-1E+10	1
4902554	42	C	04/02/2022	15:03	-136.006	49.475	0	207.90	0	5.2590	0	33.7390	0	26.648	0	206.024	0	-1e10	8	-1e10	8	-1E+10	1	-1E+10	1	-1E+10	1	-1E+10	1	-1E+10	1	-1E+10	1
4902554	42	C	04/02/2022	15:03	-136.006	49.475	0	208.80	0	5.2500	0	33.7400	0	26.650	0	206.915	0	-1e10	8	-1e10	8	-1E+10	1	-1E+10	1	-1E+10	1	-1E+10	1	-1E+10	1	-1E+10	1
4902554	42	C	04/02/2022	15:03	-136.006	49.475	0	209.70	0	5.2480	0	33.7410	0	26.651	0	207.807	0	-1e10	8	-1e10	8	-1E+10	1	-1E+10	1	-1E+10	1	-1E+10	1	-1E+10	1	-1E+10	1
4902554	42	C	04/02/2022	15:03	-136.006	49.475	0	210.70	0	5.2390	0	33.7410	0	26.652	0	208.797	0	-1e10	8	-1e10	8	-1E+10	1	-1E+10	1	-1E+10	1	-1E+10	1	-1E+10	1	-1E+10	1
4902554	42	C	04/02/2022	15:03	-136.006	49.475	0	211.60	0	5.1960	0	33.7480	0	26.662	0	209.689	0	-1e10	8	-1e10	8	-1E+10	1	-1E+10	1	-1E+10	1	-1E+10	1	-1E+10	1	-1E+10	1
4902554	42	C	04/02/2022	15:03	-136.006	49.475	0	212.60	0	5.1940	0	33.7480	0	26.662	0	210.679	0	-1e10	8	-1e10	8	-1E+10	1	-1E+10	1	-1E+10	1	-1E+10	1	-1E+10	1	-1E+10	1
4902554	42	C	04/02/2022	15:03	-136.006	49.475	0	213.50	0	5.1900	0	33.7470	0	26.662	0	211.570	0	-1e10	8	-1e10	8	-1E+10	1	-1E+10	1	-1E+10	1	-1E+10	1	-1E+10	1	-1E+10	1
4902554	42	C	04/02/2022	15:03	-136.006	49.475	0	214.90	0	5.1850	0	33.7470	0	26.663	0	212.957	0	-1e10	8	-1e10	8	-1E+10	1	-1E+10	1	-1E+10	1	-1E+10	1	-1E+10	1	-1E+10	1
4902554	42	C	04/02/2022	15:03	-136.006	49.475	0	216.40	0	5.1750	0	33.7480	0	26.665	0	214.443	0	-1e10	8	-1e10	8	-1E+10	1	-1E+10	1	-1E+10	1	-1E+10	1	-1E+10	1	-1E+10	1
4902554	42	C	04/02/2022	15:03	-136.006	49.475	0	217.30	0	5.1650	0	33.7490	0	26.667	0	215.334	0	-1e10	8	-1e10	8	-1E+10	1	-1E+10	1	-1E+10	1	-1E+10	1	-1E+10	1	-1E+10	1
4902554	42	C	04/02/2022	15:03	-136.006	49.475	0	218.30	0	5.1510	0	33.7510	0	26.670	0	216.325	0	-1e10	8	-1e10	8	-1E+10	1	-1E+10	1	-1E+10	1	-1E+10	1	-1E+10	1	-1E+10	1
4902554	42	C	04/02/2022	15:03	-136.006	49.475	0	219.20	0	5.1300	0	33.7540	0	26.675	0	217.216	0	-1e10	8	-1e10	8	-1E+10	1	-1E+10	1	-1E+10	1	-1E+10	1	-1E+10	1	-1E+10	1
4902554	42	C	04/02/2022	15:03	-136.006	49.475	0	220.20	0	5.1200	0	33.7560	0	26.677	0	218.206	0	-1e10	8	-1e10	8	-1E+10	1	-1E+10	1	-1E+10	1	-1E+10	1	-1E+10	1	-1E+10	1
4902554	42	C	04/02/2022	15:03	-136.006	49.475	0	221.10	0	5.1110	0	33.7570	0	26.679	0	219.098	0	-1e10	8	-1e10	8	-1E+10	1	-1E+10	1	-1E+10	1	-1E+10	1	-1E+10	1	-1E+10	1
4902554	42	C	04/02/2022	15:03	-136.006	49.475	0	222.10	0	5.1090	0	33.7570	0	26.679	0	220.088	0	-1e10	8	-1e10	8	-1E+10	1	-1E+10	1	-1E+10	1	-1E+10	1	-1E+10	1	-1E+10	1
4902554	42	C	04/02/2022	15:03	-136.006	49.475	0	223.00	0	5.0960	0	33.7590	0	26.683	0	220.980	0	-1e10	8	-1e10	8	-1E+10	1	-1E+10	1	-1E+10	1	-1E+10	1	-1E+10	1	-1E+10	1
4902554	42	C	04/02/2022	15:03	-136.006	49.475	0	224.00	0	5.0890	0	33.7620	0	26.686	0	221.970	0	-1e10	8	-1e10	8	-1E+10	1	-1E+10	1	-1E+10	1	-1E+10	1	-1E+10	1	-1E+10	1
4902554	42	C	04/02/2022	15:03	-136.006	49.475	0	225.00	0	5.0850	0	33.7620	0	26.686	0	222.960	0	-1e10	8	-1e10	8	-1E+10	1	-1E+10	1	-1E+10	1	-1E+10	1	-1E+10	1	-1E+10	1
4902554	42	C	04/02/2022	15:03	-136.006	49.475	0	225.90	0	5.0820	0	33.7620	0	26.687	0	223.852	0	-1e10	8	-1e10	8	-1E+10	1	-1E+10	1	-1E+10	1	-1E+10	1	-1E+10	1	-1E+10	1
4902554	42	C	04/02/2022	15:03	-136.006	49.475	0	226.80	0	5.0790	0	33.7630	0	26.688	0	224.743	0	-1e10	8	-1e10	8	-1E+10	1	-1E+10	1	-1E+10	1	-1E+10	1	-1E+10	1	-1E+10	1
4902554	42	C	04/02/2022	15:03	-136.006	49.475	0	227.80	0	5.0730	0	33.7640	0	26.689	0	225.733	0	-1e10	8	-1e10	8	-1E+10	1	-1E+10	1	-1E+10	1	-1E+10	1	-1E+10	1	-1E+10	1
4902554	42	C	04/02/2022	15:03	-136.006	49.475	0	228.80	0	5.0690	0	33.7660	0	26.691	0	226.724	0	-1e10	8	-1e10	8	-1E+10	1	-1E+10	1	-1E+10	1	-1E+10	1	-1E+10	1	-1E+10	1
4902554	42	C	04/02/2022	15:03	-136.006	49.475	0	229.70	0	5.0680	0	33.7670	0	26.692	0	227.615	0	-1e10	8	-1e10	8	-1E+10	1	-1E+10	1	-1E+10	1	-1E+10	1	-1E+10	1	-1E+10	1
4902554	42	C	04/02/2022	15:03	-136.006	49.475	0	230.70	0	5.0680	0	33.7680	0	26.693	0	228.605	0	-1e10	8	-1e10	8	-1E+10	1	-1E+10	1	-1E+10	1	-1E+10	1	-1E+10	1	-1E+10	1
4902554	42	C	04/02/2022	15:03	-136.006	49.475	0	231.70	0	5.0660	0	33.7690	0	26.694	0	229.596	0	-1e10	8	-1e10	8	-1E+10	1	-1E+10	1	-1E+10	1	-1E+10	1	-1E+10	1	-1E+10	1
4902554	42	C	04/02/2022	15:03	-136.006	49.475	0	232.70	0	5.0710	0	33.7720	0	26.696	0	230.586	0	-1e10	8	-1e10	8	-1E+10	1	-1E+10	1	-1E+10	1	-1E+10	1	-1E+10	1	-1E+10	1
4902554	42	C	04/02/2022	15:03	-136.006	49.475	0	233.60	0	5.0720	0	33.7720	0	26.696	0	231.478	0	-1e10	8	-1e10	8	-1E+10	1	-1E+10	1	-1E+10	1	-1E+10	1	-1E+10	1	-1E+10	1
4902554	42	C	04/02/2022	15:03	-136.006	49.475	0	234.60	0	5.0740	0	33.7770	0	26.699	0	232.468	0	-1e10	8	-1e10	8	-1E+10	1	-1E+10	1	-1E+10	1	-1E+10	1	-1E+10	1	-1E+10	1
4902554	42	C	04/02/2022	15:03	-136.006	49.475	0	235.60	0	5.0720	0	33.7770	0	26.700	0	233.458	0	-1e10	8	-1e10	8	-1E+10	1	-1E+10	1	-1E+10	1	-1E+10	1	-1E+10	1	-1E+10	1
4902554	42	C	04/02/2022	15:03	-136.006	49.475	0	236.50	0	5.0710	0	33.7770	0	26.700	0	234.350	0	-1e10	8	-1e10	8	-1E+10	1	-1E+10	1	-1E+10	1	-1E+10	1	-1E+10	1	-1E+10	1
4902554	42	C	04/02/2022	15:03	-136.006	49.475	0	237.90	0	5.0610	0	33.7790	0	26.703	0	235.736	0	-1e10	8	-1e10	8	-1E+10	1	-1E+10	1	-1E+10	1	-1E+10	1	-1E+10	1	-1E+10	1
4902554	42	C	04/02/2022	15:03	-136.006	49.475	0	239.40	0	5.0560	0	33.7800	0	26.704	0	237.222	0	-1e10	8	-1e10	8	-1E+10	1	-1E+10	1	-1E+10	1	-1E+10	1	-1E+10	1	-1E+10	1
4902554	42	C	04/02/2022	15:03	-136.006	49.475	0	240.30	0	5.0420	0	33.7820	0	26.707	0	238.113	0	-1e10	8	-1e10	8	-1E+10	1	-1E+10	1	-1E+10	1	-1E+10	1	-1E+10	1	-1E+10	1
4902554	42	C	04/02/2022	15:03	-136.006	49.475	0	241.30	0	5.0400	0	33.7820	0	26.707	0	239.103	0	-1e10	8	-1e10	8	-1E+10	1	-1E+10	1	-1E+10	1	-1E+10	1	-1E+10	1	-1E+10	1
4902554	42	C	04/02/2022	15:03	-136.006	49.475	0	242.20	0	5.0340	0	33.7820	0	26.708	0	239.994	0	-1e10	8	-1e10	8	-1E+10	1	-1E+10	1	-1E+10	1	-1E+10	1	-1E+10	1	-1E+10	1
4902554	42	C	04/02/2022	15:03	-136.006	49.475	0	243.20	0	5.0230	0	33.7850	0	26.712	0	240.985	0	-1e10	8	-1e10	8	-1E+10	1	-1E+10	1	-1E+10	1	-1E+10	1	-1E+10	1	-1E+10	1
4902554	42	C	04/02/2022	15:03	-136.006	49.475	0	244.10	0	5.0180	0	33.7860	0	26.713	0	241.876	0	-1e10	8	-1e10	8	-1E+10	1	-1E+10	1	-1E+10	1	-1E+10	1	-1E+10	1	-1E+10	1
4902554	42	C	04/02/2022	15:03	-136.006	49.475	0	245.00	0	5.0120	0	33.7860	0	26.714	0	242.767	0	-1e10	8	-1e10	8	-1E+10	1	-1E+10	1	-1E+10	1	-1E+10	1	-1E+10	1	-1E+10	1
4902554	42	C	04/02/2022	15:03	-136.006	49.475	0	246.00	0	5.0070	0	33.7870	0	26.715	0	243.758	0	-1e10	8	-1e10	8	-1E+10	1	-1E+10	1	-1E+10	1	-1E+10	1	-1E+10	1	-1E+10	1
4902554	42	C	04/02/2022	15:03	-136.006	49.475	0	246.90	0	5.0030	0	33.7880	0	26.716	0	244.649	0	-1e10	8	-1e10	8	-1E+10	1	-1E+10	1	-1E+10	1	-1E+10	1	-1E+10	1	-1E+10	1
4902554	42	C	04/02/2022	15:03	-136.006	49.475	0	247.90	0	4.9930	0	33.7900	0	26.719	0	245.639	0	-1e10	8	-1e10	8	-1E+10	1	-1E+10	1	-1E+10	1	-1E+10	1	-1E+10	1	-1E+10	1
4902554	42	C	04/02/2022	15:03	-136.006	49.475	0	248.80	0	4.9840	0	33.7910	0	26.721	0	246.530	0	-1e10	8	-1e10	8	-1E+10	1	-1E+10	1	-1E+10	1	-1E+10	1	-1E+10	1	-1E+10	1
4902554	42	C	04/02/2022	15:03	-136.006	49.475	0	249.70	0	4.9770	0	33.7910	0	26.722	0	247.422	0	-1e10	8	-1e10	8	-1E+10	1	-1E+10	1	-1E+10	1	-1E+10	1	-1E+10	1	-1E+10	1
4902554	42	C	04/02/2022	15:03	-136.006	49.475	0	250.60	0	4.9720	0	33.7920	0	26.723	0	248.313	0	-1e10	8	-1e10	8	-1E+10	1	-1E+10	1	-1E+10	1	-1E+10	1	-1E+10	1	-1E+10	1
4902554	42	C	04/02/2022	15:03	-136.006	49.475	0	251.60	0	4.9480	0	33.7960	0	26.729	0	249.303	0	-1e10	8	-1e10	8	-1E+10	1	-1E+10	1	-1E+10	1	-1E+10	1	-1E+10	1	-1E+10	1
4902554	42	C	04/02/2022	15:03	-136.006	49.475	0	252.90	0	4.9440	0	33.7960	0	26.729	0	250.590	0	-1e10	8	-1e10	8	-1E+10	1	-1E+10	1	-1E+10	1	-1E+10	1	-1E+10	1	-1E+10	1
4902554	42	C	04/02/2022	15:03	-136.006	49.475	0	254.30	0	4.9360	0	33.7980	0	26.732	0	251.977	0	-1e10	8	-1e10	8	-1E+10	1	-1E+10	1	-1E+10	1	-1E+10	1	-1E+10	1	-1E+10	1
4902554	42	C	04/02/2022	15:03	-136.006	49.475	0	255.20	0	4.9340	0	33.7980	0	26.732	0	252.868	0	-1e10	8	-1e10	8	-1E+10	1	-1E+10	1	-1E+10	1	-1E+10	1	-1E+10	1	-1E+10	1
4902554	42	C	04/02/2022	15:03	-136.006	49.475	0	256.20	0	4.9310	0	33.7980	0	26.732	0	253.858	0	-1e10	8	-1e10	8	-1E+10	1	-1E+10	1	-1E+10	1	-1E+10	1	-1E+10	1	-1E+10	1
4902554	42	C	04/02/2022	15:03	-136.006	49.475	0	257.10	0	4.9170	0	33.8000	0	26.736	0	254.750	0	-1e10	8	-1e10	8	-1E+10	1	-1E+10	1	-1E+10	1	-1E+10	1	-1E+10	1	-1E+10	1
4902554	42	C	04/02/2022	15:03	-136.006	49.475	0	258.00	0	4.9160	0	33.8000	0	26.736	0	255.641	0	-1e10	8	-1e10	8	-1E+10	1	-1E+10	1	-1E+10	1	-1E+10	1	-1E+10	1	-1E+10	1
4902554	42	C	04/02/2022	15:03	-136.006	49.475	0	258.90	0	4.9100	0	33.8000	0	26.736	0	256.532	0	-1e10	8	-1e10	8	-1E+10	1	-1E+10	1	-1E+10	1	-1E+10	1	-1E+10	1	-1E+10	1
4902554	42	C	04/02/2022	15:03	-136.006	49.475	0	259.80	0	4.9080	0	33.8000	0	26.737	0	257.423	0	-1e10	8	-1e10	8	-1E+10	1	-1E+10	1	-1E+10	1	-1E+10	1	-1E+10	1	-1E+10	1
4902554	42	C	04/02/2022	15:03	-136.006	49.475	0	260.70	0	4.9030	0	33.8000	0	26.737	0	258.314	0	-1e10	8	-1e10	8	-1E+10	1	-1E+10	1	-1E+10	1	-1E+10	1	-1E+10	1	-1E+10	1
4902554	42	C	04/02/2022	15:03	-136.006	49.475	0	261.60	0	4.8640	0	33.8040	0	26.745	0	259.206	0	-1e10	8	-1e10	8	-1E+10	1	-1E+10	1	-1E+10	1	-1E+10	1	-1E+10	1	-1E+10	1
4902554	42	C	04/02/2022	15:03	-136.006	49.475	0	262.90	0	4.8510	0	33.8030	0	26.745	0	260.493	0	-1e10	8	-1e10	8	-1E+10	1	-1E+10	1	-1E+10	1	-1E+10	1	-1E+10	1	-1E+10	1
4902554	42	C	04/02/2022	15:03	-136.006	49.475	0	264.30	0	4.8580	0	33.8080	0	26.749	0	261.879	0	-1e10	8	-1e10	8	-1E+10	1	-1E+10	1	-1E+10	1	-1E+10	1	-1E+10	1	-1E+10	1
4902554	42	C	04/02/2022	15:03	-136.006	49.475	0	265.20	0	4.8340	0	33.8110	0	26.754	0	262.770	0	-1e10	8	-1e10	8	-1E+10	1	-1E+10	1	-1E+10	1	-1E+10	1	-1E+10	1	-1E+10	1
4902554	42	C	04/02/2022	15:03	-136.006	49.475	0	266.10	0	4.8390	0	33.8150	0	26.756	0	263.662	0	-1e10	8	-1e10	8	-1E+10	1	-1E+10	1	-1E+10	1	-1E+10	1	-1E+10	1	-1E+10	1
4902554	42	C	04/02/2022	15:03	-136.006	49.475	0	267.00	0	4.8410	0	33.8150	0	26.756	0	264.553	0	-1e10	8	-1e10	8	-1E+10	1	-1E+10	1	-1E+10	1	-1E+10	1	-1E+10	1	-1E+10	1
4902554	42	C	04/02/2022	15:03	-136.006	49.475	0	267.90	0	4.8390	0	33.8140	0	26.756	0	265.444	0	-1e10	8	-1e10	8	-1E+10	1	-1E+10	1	-1E+10	1	-1E+10	1	-1E+10	1	-1E+10	1
4902554	42	C	04/02/2022	15:03	-136.006	49.475	0	268.80	0	4.8350	0	33.8180	0	26.759	0	266.335	0	-1e10	8	-1e10	8	-1E+10	1	-1E+10	1	-1E+10	1	-1E+10	1	-1E+10	1	-1E+10	1
4902554	42	C	04/02/2022	15:03	-136.006	49.475	0	269.70	0	4.8220	0	33.8170	0	26.760	0	267.226	0	-1e10	8	-1e10	8	-1E+10	1	-1E+10	1	-1E+10	1	-1E+10	1	-1E+10	1	-1E+10	1
4902554	42	C	04/02/2022	15:03	-136.006	49.475	0	270.60	0	4.8150	0	33.8180	0	26.761	0	268.117	0	-1e10	8	-1e10	8	-1E+10	1	-1E+10	1	-1E+10	1	-1E+10	1	-1E+10	1	-1E+10	1
4902554	42	C	04/02/2022	15:03	-136.006	49.475	0	271.50	0	4.7980	0	33.8180	0	26.763	0	269.009	0	-1e10	8	-1e10	8	-1E+10	1	-1E+10	1	-1E+10	1	-1E+10	1	-1E+10	1	-1E+10	1
4902554	42	C	04/02/2022	15:03	-136.006	49.475	0	272.90	0	4.7850	0	33.8170	0	26.764	0	270.395	0	-1e10	8	-1e10	8	-1E+10	1	-1E+10	1	-1E+10	1	-1E+10	1	-1E+10	1	-1E+10	1
4902554	42	C	04/02/2022	15:03	-136.006	49.475	0	274.30	0	4.7720	0	33.8180	0	26.766	0	271.781	0	-1e10	8	-1e10	8	-1E+10	1	-1E+10	1	-1E+10	1	-1E+10	1	-1E+10	1	-1E+10	1
4902554	42	C	04/02/2022	15:03	-136.006	49.475	0	275.20	0	4.7700	0	33.8220	0	26.770	0	272.672	0	-1e10	8	-1e10	8	-1E+10	1	-1E+10	1	-1E+10	1	-1E+10	1	-1E+10	1	-1E+10	1
4902554	42	C	04/02/2022	15:03	-136.006	49.475	0	276.10	0	4.7770	0	33.8240	0	26.770	0	273.563	0	-1e10	8	-1e10	8	-1E+10	1	-1E+10	1	-1E+10	1	-1E+10	1	-1E+10	1	-1E+10	1
4902554	42	C	04/02/2022	15:03	-136.006	49.475	0	277.00	0	4.7270	0	33.8250	0	26.777	0	274.454	0	-1e10	8	-1e10	8	-1E+10	1	-1E+10	1	-1E+10	1	-1E+10	1	-1E+10	1	-1E+10	1
4902554	42	C	04/02/2022	15:03	-136.006	49.475	0	277.90	0	4.6800	0	33.8220	0	26.779	0	275.346	0	-1e10	8	-1e10	8	-1E+10	1	-1E+10	1	-1E+10	1	-1E+10	1	-1E+10	1	-1E+10	1
4902554	42	C	04/02/2022	15:03	-136.006	49.475	0	278.80	0	4.6610	0	33.8260	0	26.785	0	276.237	0	-1e10	8	-1e10	8	-1E+10	1	-1E+10	1	-1E+10	1	-1E+10	1	-1E+10	1	-1E+10	1
4902554	42	C	04/02/2022	15:03	-136.006	49.475	0	279.80	0	4.6420	0	33.8270	0	26.788	0	277.227	0	-1e10	8	-1e10	8	-1E+10	1	-1E+10	1	-1E+10	1	-1E+10	1	-1E+10	1	-1E+10	1
4902554	42	C	04/02/2022	15:03	-136.006	49.475	0	280.70	0	4.6330	0	33.8290	0	26.790	0	278.118	0	-1e10	8	-1e10	8	-1E+10	1	-1E+10	1	-1E+10	1	-1E+10	1	-1E+10	1	-1E+10	1
4902554	42	C	04/02/2022	15:03	-136.006	49.475	0	281.60	0	4.6280	0	33.8310	0	26.792	0	279.009	0	-1e10	8	-1e10	8	-1E+10	1	-1E+10	1	-1E+10	1	-1E+10	1	-1E+10	1	-1E+10	1
4902554	42	C	04/02/2022	15:03	-136.006	49.475	0	282.50	0	4.6250	0	33.8330	0	26.794	0	279.900	0	-1e10	8	-1e10	8	-1E+10	1	-1E+10	1	-1E+10	1	-1E+10	1	-1E+10	1	-1E+10	1
4902554	42	C	04/02/2022	15:03	-136.006	49.475	0	283.90	0	4.6250	0	33.8350	0	26.796	0	281.286	0	-1e10	8	-1e10	8	-1E+10	1	-1E+10	1	-1E+10	1	-1E+10	1	-1E+10	1	-1E+10	1
4902554	42	C	04/02/2022	15:03	-136.006	49.475	0	285.40	0	4.6170	0	33.8390	0	26.800	0	282.772	0	-1e10	8	-1e10	8	-1E+10	1	-1E+10	1	-1E+10	1	-1E+10	1	-1E+10	1	-1E+10	1
4902554	42	C	04/02/2022	15:03	-136.006	49.475	0	286.30	0	4.6170	0	33.8390	0	26.800	0	283.663	0	-1e10	8	-1e10	8	-1E+10	1	-1E+10	1	-1E+10	1	-1E+10	1	-1E+10	1	-1E+10	1
4902554	42	C	04/02/2022	15:03	-136.006	49.475	0	287.20	0	4.6350	0	33.8410	0	26.800	0	284.554	0	-1e10	8	-1e10	8	-1E+10	1	-1E+10	1	-1E+10	1	-1E+10	1	-1E+10	1	-1E+10	1
4902554	42	C	04/02/2022	15:03	-136.006	49.475	0	288.20	0	4.6500	0	33.8490	0	26.804	0	285.544	0	-1e10	8	-1e10	8	-1E+10	1	-1E+10	1	-1E+10	1	-1E+10	1	-1E+10	1	-1E+10	1
4902554	42	C	04/02/2022	15:03	-136.006	49.475	0	289.10	0	4.6560	0	33.8510	0	26.805	0	286.435	0	-1e10	8	-1e10	8	-1E+10	1	-1E+10	1	-1E+10	1	-1E+10	1	-1E+10	1	-1E+10	1
4902554	42	C	04/02/2022	15:03	-136.006	49.475	0	290.00	0	4.6630	0	33.8530	0	26.806	0	287.326	0	-1e10	8	-1e10	8	-1E+10	1	-1E+10	1	-1E+10	1	-1E+10	1	-1E+10	1	-1E+10	1
4902554	42	C	04/02/2022	15:03	-136.006	49.475	0	290.90	0	4.6620	0	33.8560	0	26.809	0	288.217	0	-1e10	8	-1e10	8	-1E+10	1	-1E+10	1	-1E+10	1	-1E+10	1	-1E+10	1	-1E+10	1
4902554	42	C	04/02/2022	15:03	-136.006	49.475	0	291.90	0	4.6420	0	33.8600	0	26.814	0	289.207	0	-1e10	8	-1e10	8	-1E+10	1	-1E+10	1	-1E+10	1	-1E+10	1	-1E+10	1	-1E+10	1
4902554	42	C	04/02/2022	15:03	-136.006	49.475	0	292.80	0	4.6330	0	33.8610	0	26.816	0	290.098	0	-1e10	8	-1e10	8	-1E+10	1	-1E+10	1	-1E+10	1	-1E+10	1	-1E+10	1	-1E+10	1
4902554	42	C	04/02/2022	15:03	-136.006	49.475	0	293.70	0	4.6310	0	33.8620	0	26.817	0	290.989	0	-1e10	8	-1e10	8	-1E+10	1	-1E+10	1	-1E+10	1	-1E+10	1	-1E+10	1	-1E+10	1
4902554	42	C	04/02/2022	15:03	-136.006	49.475	0	294.70	0	4.6290	0	33.8620	0	26.817	0	291.979	0	-1e10	8	-1e10	8	-1E+10	1	-1E+10	1	-1E+10	1	-1E+10	1	-1E+10	1	-1E+10	1
4902554	42	C	04/02/2022	15:03	-136.006	49.475	0	295.60	0	4.6230	0	33.8650	0	26.820	0	292.870	0	-1e10	8	-1e10	8	-1E+10	1	-1E+10	1	-1E+10	1	-1E+10	1	-1E+10	1	-1E+10	1
4902554	42	C	04/02/2022	15:03	-136.006	49.475	0	296.60	0	4.6210	0	33.8650	0	26.820	0	293.860	0	-1e10	8	-1e10	8	-1E+10	1	-1E+10	1	-1E+10	1	-1E+10	1	-1E+10	1	-1E+10	1
4902554	42	C	04/02/2022	15:03	-136.006	49.475	0	297.90	0	4.6190	0	33.8660	0	26.821	0	295.147	0	-1e10	8	-1e10	8	-1E+10	1	-1E+10	1	-1E+10	1	-1E+10	1	-1E+10	1	-1E+10	1
4902554	42	C	04/02/2022	15:03	-136.006	49.475	0	299.40	0	4.6170	0	33.8670	0	26.822	0	296.633	0	-1e10	8	-1e10	8	-1E+10	1	-1E+10	1	-1E+10	1	-1E+10	1	-1E+10	1	-1E+10	1
4902554	42	C	04/02/2022	15:03	-136.006	49.475	0	300.30	0	4.6160	0	33.8670	0	26.822	0	297.524	0	-1e10	8	-1e10	8	-1E+10	1	-1E+10	1	-1E+10	1	-1E+10	1	-1E+10	1	-1E+10	1
4902554	42	C	04/02/2022	15:03	-136.006	49.475	0	301.30	0	4.6140	0	33.8680	0	26.823	0	298.514	0	-1e10	8	-1e10	8	-1E+10	1	-1E+10	1	-1E+10	1	-1E+10	1	-1E+10	1	-1E+10	1
4902554	42	C	04/02/2022	15:03	-136.006	49.475	0	302.20	0	4.6120	0	33.8680	0	26.824	0	299.405	0	-1e10	8	-1e10	8	-1E+10	1	-1E+10	1	-1E+10	1	-1E+10	1	-1E+10	1	-1E+10	1
4902554	42	C	04/02/2022	15:03	-136.006	49.475	0	303.10	0	4.6100	0	33.8690	0	26.825	0	300.296	0	-1e10	8	-1e10	8	-1E+10	1	-1E+10	1	-1E+10	1	-1E+10	1	-1E+10	1	-1E+10	1
4902554	42	C	04/02/2022	15:03	-136.006	49.475	0	304.10	0	4.6050	0	33.8700	0	26.826	0	301.286	0	-1e10	8	-1e10	8	-1E+10	1	-1E+10	1	-1E+10	1	-1E+10	1	-1E+10	1	-1E+10	1
4902554	42	C	04/02/2022	15:03	-136.006	49.475	0	305.00	0	4.5940	0	33.8720	0	26.829	0	302.177	0	-1e10	8	-1e10	8	-1E+10	1	-1E+10	1	-1E+10	1	-1E+10	1	-1E+10	1	-1E+10	1
4902554	42	C	04/02/2022	15:03	-136.006	49.475	0	306.00	0	4.5940	0	33.8720	0	26.829	0	303.167	0	-1e10	8	-1e10	8	-1E+10	1	-1E+10	1	-1E+10	1	-1E+10	1	-1E+10	1	-1E+10	1
4902554	42	C	04/02/2022	15:03	-136.006	49.475	0	306.90	0	4.5870	0	33.8740	0	26.831	0	304.058	0	-1e10	8	-1e10	8	-1E+10	1	-1E+10	1	-1E+10	1	-1E+10	1	-1E+10	1	-1E+10	1
4902554	42	C	04/02/2022	15:03	-136.006	49.475	0	307.90	0	4.5800	0	33.8780	0	26.835	0	305.048	0	-1e10	8	-1e10	8	-1E+10	1	-1E+10	1	-1E+10	1	-1E+10	1	-1E+10	1	-1E+10	1
4902554	42	C	04/02/2022	15:03	-136.006	49.475	0	308.90	0	4.5770	0	33.8790	0	26.836	0	306.038	0	-1e10	8	-1e10	8	-1E+10	1	-1E+10	1	-1E+10	1	-1E+10	1	-1E+10	1	-1E+10	1
4902554	42	C	04/02/2022	15:03	-136.006	49.475	0	309.90	0	4.5760	0	33.8800	0	26.837	0	307.028	0	-1e10	8	-1e10	8	-1E+10	1	-1E+10	1	-1E+10	1	-1E+10	1	-1E+10	1	-1E+10	1
4902554	42	C	04/02/2022	15:03	-136.006	49.475	0	310.80	0	4.5750	0	33.8800	0	26.837	0	307.919	0	-1e10	8	-1e10	8	-1E+10	1	-1E+10	1	-1E+10	1	-1E+10	1	-1E+10	1	-1E+10	1
4902554	42	C	04/02/2022	15:03	-136.006	49.475	0	311.80	0	4.5720	0	33.8810	0	26.838	0	308.909	0	-1e10	8	-1e10	8	-1E+10	1	-1E+10	1	-1E+10	1	-1E+10	1	-1E+10	1	-1E+10	1
4902554	42	C	04/02/2022	15:03	-136.006	49.475	0	312.80	0	4.5700	0	33.8820	0	26.839	0	309.899	0	-1e10	8	-1e10	8	-1E+10	1	-1E+10	1	-1E+10	1	-1E+10	1	-1E+10	1	-1E+10	1
4902554	42	C	04/02/2022	15:03	-136.006	49.475	0	313.80	0	4.5690	0	33.8830	0	26.840	0	310.889	0	-1e10	8	-1e10	8	-1E+10	1	-1E+10	1	-1E+10	1	-1E+10	1	-1E+10	1	-1E+10	1
4902554	42	C	04/02/2022	15:03	-136.006	49.475	0	314.70	0	4.5660	0	33.8840	0	26.841	0	311.780	0	-1e10	8	-1e10	8	-1E+10	1	-1E+10	1	-1E+10	1	-1E+10	1	-1E+10	1	-1E+10	1
4902554	42	C	04/02/2022	15:03	-136.006	49.475	0	315.70	0	4.5650	0	33.8850	0	26.842	0	312.770	0	-1e10	8	-1e10	8	-1E+10	1	-1E+10	1	-1E+10	1	-1E+10	1	-1E+10	1	-1E+10	1
4902554	42	C	04/02/2022	15:03	-136.006	49.475	0	316.60	0	4.5630	0	33.8860	0	26.843	0	313.661	0	-1e10	8	-1e10	8	-1E+10	1	-1E+10	1	-1E+10	1	-1E+10	1	-1E+10	1	-1E+10	1
4902554	42	C	04/02/2022	15:03	-136.006	49.475	0	317.80	0	4.5590	0	33.8870	0	26.845	0	314.848	0	-1e10	8	-1e10	8	-1E+10	1	-1E+10	1	-1E+10	1	-1E+10	1	-1E+10	1	-1E+10	1
4902554	42	C	04/02/2022	15:03	-136.006	49.475	0	318.90	0	4.5560	0	33.8880	0	26.846	0	315.937	0	-1e10	8	-1e10	8	-1E+10	1	-1E+10	1	-1E+10	1	-1E+10	1	-1E+10	1	-1E+10	1
4902554	42	C	04/02/2022	15:03	-136.006	49.475	0	320.00	0	4.5510	0	33.8900	0	26.848	0	317.026	0	-1e10	8	-1e10	8	-1E+10	1	-1E+10	1	-1E+10	1	-1E+10	1	-1E+10	1	-1E+10	1
4902554	42	C	04/02/2022	15:03	-136.006	49.475	0	321.20	0	4.5500	0	33.8910	0	26.849	0	318.214	0	-1e10	8	-1e10	8	-1E+10	1	-1E+10	1	-1E+10	1	-1E+10	1	-1E+10	1	-1E+10	1
4902554	42	C	04/02/2022	15:03	-136.006	49.475	0	321.90	0	4.5490	0	33.8910	0	26.849	0	318.907	0	-1e10	8	-1e10	8	-1E+10	1	-1E+10	1	-1E+10	1	-1E+10	1	-1E+10	1	-1E+10	1
4902554	42	C	04/02/2022	15:03	-136.006	49.475	0	323.00	0	4.5460	0	33.8910	0	26.849	0	319.996	0	-1e10	8	-1e10	8	-1E+10	1	-1E+10	1	-1E+10	1	-1E+10	1	-1E+10	1	-1E+10	1
4902554	42	C	04/02/2022	15:03	-136.006	49.475	0	324.10	0	4.5450	0	33.8920	0	26.850	0	321.085	0	-1e10	8	-1e10	8	-1E+10	1	-1E+10	1	-1E+10	1	-1E+10	1	-1E+10	1	-1E+10	1
4902554	42	C	04/02/2022	15:03	-136.006	49.475	0	324.90	0	4.5430	0	33.8930	0	26.851	0	321.877	0	-1e10	8	-1e10	8	-1E+10	1	-1E+10	1	-1E+10	1	-1E+10	1	-1E+10	1	-1E+10	1
4902554	42	C	04/02/2022	15:03	-136.006	49.475	0	326.00	0	4.5400	0	33.8940	0	26.852	0	322.966	0	-1e10	8	-1e10	8	-1E+10	1	-1E+10	1	-1E+10	1	-1E+10	1	-1E+10	1	-1E+10	1
4902554	42	C	04/02/2022	15:03	-136.006	49.475	0	327.10	0	4.5370	0	33.8940	0	26.853	0	324.055	0	-1e10	8	-1e10	8	-1E+10	1	-1E+10	1	-1E+10	1	-1E+10	1	-1E+10	1	-1E+10	1
4902554	42	C	04/02/2022	15:03	-136.006	49.475	0	327.90	0	4.5340	0	33.8960	0	26.855	0	324.847	0	-1e10	8	-1e10	8	-1E+10	1	-1E+10	1	-1E+10	1	-1E+10	1	-1E+10	1	-1E+10	1
4902554	42	C	04/02/2022	15:03	-136.006	49.475	0	329.00	0	4.5280	0	33.8990	0	26.858	0	325.936	0	-1e10	8	-1e10	8	-1E+10	1	-1E+10	1	-1E+10	1	-1E+10	1	-1E+10	1	-1E+10	1
4902554	42	C	04/02/2022	15:03	-136.006	49.475	0	330.10	0	4.5240	0	33.9010	0	26.860	0	327.025	0	-1e10	8	-1e10	8	-1E+10	1	-1E+10	1	-1E+10	1	-1E+10	1	-1E+10	1	-1E+10	1
4902554	42	C	04/02/2022	15:03	-136.006	49.475	0	330.90	0	4.5230	0	33.9020	0	26.860	0	327.816	0	-1e10	8	-1e10	8	-1E+10	1	-1E+10	1	-1E+10	1	-1E+10	1	-1E+10	1	-1E+10	1
4902554	42	C	04/02/2022	15:03	-136.006	49.475	0	331.70	0	4.5230	0	33.9020	0	26.860	0	328.608	0	-1e10	8	-1e10	8	-1E+10	1	-1E+10	1	-1E+10	1	-1E+10	1	-1E+10	1	-1E+10	1
4902554	42	C	04/02/2022	15:03	-136.006	49.475	0	332.80	0	4.5190	0	33.9030	0	26.862	0	329.697	0	-1e10	8	-1e10	8	-1E+10	1	-1E+10	1	-1E+10	1	-1E+10	1	-1E+10	1	-1E+10	1
4902554	42	C	04/02/2022	15:03	-136.006	49.475	0	334.00	0	4.5170	0	33.9060	0	26.864	0	330.885	0	-1e10	8	-1e10	8	-1E+10	1	-1E+10	1	-1E+10	1	-1E+10	1	-1E+10	1	-1E+10	1
4902554	42	C	04/02/2022	15:03	-136.006	49.475	0	334.80	0	4.5150	0	33.9060	0	26.865	0	331.677	0	-1e10	8	-1e10	8	-1E+10	1	-1E+10	1	-1E+10	1	-1E+10	1	-1E+10	1	-1E+10	1
4902554	42	C	04/02/2022	15:03	-136.006	49.475	0	336.00	0	4.5060	0	33.9100	0	26.869	0	332.865	0	-1e10	8	-1e10	8	-1E+10	1	-1E+10	1	-1E+10	1	-1E+10	1	-1E+10	1	-1E+10	1
4902554	42	C	04/02/2022	15:03	-136.006	49.475	0	337.20	0	4.5040	0	33.9120	0	26.871	0	334.053	0	-1e10	8	-1e10	8	-1E+10	1	-1E+10	1	-1E+10	1	-1E+10	1	-1E+10	1	-1E+10	1
4902554	42	C	04/02/2022	15:03	-136.006	49.475	0	338.10	0	4.5030	0	33.9130	0	26.871	0	334.944	0	-1e10	8	-1e10	8	-1E+10	1	-1E+10	1	-1E+10	1	-1E+10	1	-1E+10	1	-1E+10	1
4902554	42	C	04/02/2022	15:03	-136.006	49.475	0	338.90	0	4.5010	0	33.9140	0	26.872	0	335.735	0	-1e10	8	-1e10	8	-1E+10	1	-1E+10	1	-1E+10	1	-1E+10	1	-1E+10	1	-1E+10	1
4902554	42	C	04/02/2022	15:03	-136.006	49.475	0	339.80	0	4.5000	0	33.9160	0	26.874	0	336.626	0	-1e10	8	-1e10	8	-1E+10	1	-1E+10	1	-1E+10	1	-1E+10	1	-1E+10	1	-1E+10	1
4902554	42	C	04/02/2022	15:03	-136.006	49.475	0	340.60	0	4.5000	0	33.9160	0	26.874	0	337.418	0	-1e10	8	-1e10	8	-1E+10	1	-1E+10	1	-1E+10	1	-1E+10	1	-1E+10	1	-1E+10	1
4902554	42	C	04/02/2022	15:03	-136.006	49.475	0	341.90	0	4.5000	0	33.9160	0	26.874	0	338.705	0	-1e10	8	-1e10	8	-1E+10	1	-1E+10	1	-1E+10	1	-1E+10	1	-1E+10	1	-1E+10	1
4902554	42	C	04/02/2022	15:03	-136.006	49.475	0	343.20	0	4.4990	0	33.9170	0	26.875	0	339.992	0	-1e10	8	-1e10	8	-1E+10	1	-1E+10	1	-1E+10	1	-1E+10	1	-1E+10	1	-1E+10	1
4902554	42	C	04/02/2022	15:03	-136.006	49.475	0	344.10	0	4.4990	0	33.9170	0	26.875	0	340.883	0	-1e10	8	-1e10	8	-1E+10	1	-1E+10	1	-1E+10	1	-1E+10	1	-1E+10	1	-1E+10	1
4902554	42	C	04/02/2022	15:03	-136.006	49.475	0	345.00	0	4.4990	0	33.9170	0	26.875	0	341.773	0	-1e10	8	-1e10	8	-1E+10	1	-1E+10	1	-1E+10	1	-1E+10	1	-1E+10	1	-1E+10	1
4902554	42	C	04/02/2022	15:03	-136.006	49.475	0	345.80	0	4.4990	0	33.9180	0	26.876	0	342.565	0	-1e10	8	-1e10	8	-1E+10	1	-1E+10	1	-1E+10	1	-1E+10	1	-1E+10	1	-1E+10	1
4902554	42	C	04/02/2022	15:03	-136.006	49.475	0	346.70	0	4.4990	0	33.9180	0	26.876	0	343.456	0	-1e10	8	-1e10	8	-1E+10	1	-1E+10	1	-1E+10	1	-1E+10	1	-1E+10	1	-1E+10	1
4902554	42	C	04/02/2022	15:03	-136.006	49.475	0	347.60	0	4.4990	0	33.9180	0	26.876	0	344.347	0	-1e10	8	-1e10	8	-1E+10	1	-1E+10	1	-1E+10	1	-1E+10	1	-1E+10	1	-1E+10	1
4902554	42	C	04/02/2022	15:03	-136.006	49.475	0	348.90	0	4.4990	0	33.9180	0	26.876	0	345.634	0	-1e10	8	-1e10	8	-1E+10	1	-1E+10	1	-1E+10	1	-1E+10	1	-1E+10	1	-1E+10	1
4902554	42	C	04/02/2022	15:03	-136.006	49.475	0	350.40	0	4.4990	0	33.9180	0	26.876	0	347.118	0	-1e10	8	-1e10	8	-1E+10	1	-1E+10	1	-1E+10	1	-1E+10	1	-1E+10	1	-1E+10	1
4902554	42	C	04/02/2022	15:03	-136.006	49.475	0	353.10	0	4.4950	0	33.9190	0	26.877	0	349.791	0	-1e10	8	-1e10	8	-1E+10	1	-1E+10	1	-1E+10	1	-1E+10	1	-1E+10	1	-1E+10	1
4902554	42	C	04/02/2022	15:03	-136.006	49.475	0	357.80	0	4.4830	0	33.9260	0	26.884	0	354.443	0	-1e10	8	-1e10	8	-1E+10	1	-1E+10	1	-1E+10	1	-1E+10	1	-1E+10	1	-1E+10	1
4902554	42	C	04/02/2022	15:03	-136.006	49.475	0	362.60	0	4.4670	0	33.9380	0	26.895	0	359.194	0	-1e10	8	-1e10	8	-1E+10	1	-1E+10	1	-1E+10	1	-1E+10	1	-1E+10	1	-1E+10	1
4902554	42	C	04/02/2022	15:03	-136.006	49.475	0	367.50	0	4.4610	0	33.9420	0	26.899	0	364.043	0	-1e10	8	-1e10	8	-1E+10	1	-1E+10	1	-1E+10	1	-1E+10	1	-1E+10	1	-1E+10	1
4902554	42	C	04/02/2022	15:03	-136.006	49.475	0	372.50	0	4.4500	0	33.9480	0	26.905	0	368.992	0	-1e10	8	-1e10	8	-1E+10	1	-1E+10	1	-1E+10	1	-1E+10	1	-1E+10	1	-1E+10	1
4902554	42	C	04/02/2022	15:03	-136.006	49.475	0	377.90	0	4.4430	0	33.9530	0	26.910	0	374.336	0	-1e10	8	-1e10	8	-1E+10	1	-1E+10	1	-1E+10	1	-1E+10	1	-1E+10	1	-1E+10	1
4902554	42	C	04/02/2022	15:03	-136.006	49.475	0	383.40	0	4.4290	0	33.9590	0	26.916	0	379.779	0	-1e10	8	-1e10	8	-1E+10	1	-1E+10	1	-1E+10	1	-1E+10	1	-1E+10	1	-1E+10	1
4902554	42	C	04/02/2022	15:03	-136.006	49.475	0	387.90	0	4.4210	0	33.9630	0	26.920	0	384.232	0	-1e10	8	-1e10	8	-1E+10	1	-1E+10	1	-1E+10	1	-1E+10	1	-1E+10	1	-1E+10	1
4902554	42	C	04/02/2022	15:03	-136.006	49.475	0	392.50	0	4.4120	0	33.9660	0	26.924	0	388.785	0	-1e10	8	-1e10	8	-1E+10	1	-1E+10	1	-1E+10	1	-1E+10	1	-1E+10	1	-1E+10	1
4902554	42	C	04/02/2022	15:03	-136.006	49.475	0	397.60	0	4.4040	0	33.9700	0	26.928	0	393.832	0	-1e10	8	-1e10	8	-1E+10	1	-1E+10	1	-1E+10	1	-1E+10	1	-1E+10	1	-1E+10	1
4902554	42	C	04/02/2022	15:03	-136.006	49.475	0	402.70	0	4.3950	0	33.9780	0	26.935	0	398.878	0	-1e10	8	-1e10	8	-1E+10	1	-1E+10	1	-1E+10	1	-1E+10	1	-1E+10	1	-1E+10	1
4902554	42	C	04/02/2022	15:03	-136.006	49.475	0	407.80	0	4.3850	0	33.9830	0	26.940	0	403.925	0	-1e10	8	-1e10	8	-1E+10	1	-1E+10	1	-1E+10	1	-1E+10	1	-1E+10	1	-1E+10	1
4902554	42	C	04/02/2022	15:03	-136.006	49.475	0	412.80	0	4.3760	0	33.9880	0	26.945	0	408.873	0	-1e10	8	-1e10	8	-1E+10	1	-1E+10	1	-1E+10	1	-1E+10	1	-1E+10	1	-1E+10	1
4902554	42	C	04/02/2022	15:03	-136.006	49.475	0	417.80	0	4.3620	0	33.9910	0	26.949	0	413.820	0	-1e10	8	-1e10	8	-1E+10	1	-1E+10	1	-1E+10	1	-1E+10	1	-1E+10	1	-1E+10	1
4902554	42	C	04/02/2022	15:03	-136.006	49.475	0	422.90	0	4.3360	0	34.0000	0	26.959	0	418.866	0	-1e10	8	-1e10	8	-1E+10	1	-1E+10	1	-1E+10	1	-1E+10	1	-1E+10	1	-1E+10	1
4902554	42	C	04/02/2022	15:03	-136.006	49.475	0	428.00	0	4.3240	0	34.0070	0	26.966	0	423.912	0	-1e10	8	-1e10	8	-1E+10	1	-1E+10	1	-1E+10	1	-1E+10	1	-1E+10	1	-1E+10	1
4902554	42	C	04/02/2022	15:03	-136.006	49.475	0	433.10	0	4.3150	0	34.0120	0	26.971	0	428.958	0	-1e10	8	-1e10	8	-1E+10	1	-1E+10	1	-1E+10	1	-1E+10	1	-1E+10	1	-1E+10	1
4902554	42	C	04/02/2022	15:03	-136.006	49.475	0	438.20	0	4.3050	0	34.0180	0	26.977	0	434.004	0	-1e10	8	-1e10	8	-1E+10	1	-1E+10	1	-1E+10	1	-1E+10	1	-1E+10	1	-1E+10	1
4902554	42	C	04/02/2022	15:03	-136.006	49.475	0	442.90	0	4.2950	0	34.0240	0	26.983	0	438.654	0	-1e10	8	-1e10	8	-1E+10	1	-1E+10	1	-1E+10	1	-1E+10	1	-1E+10	1	-1E+10	1
4902554	42	C	04/02/2022	15:03	-136.006	49.475	0	447.50	0	4.2870	0	34.0290	0	26.987	0	443.205	0	-1e10	8	-1e10	8	-1E+10	1	-1E+10	1	-1E+10	1	-1E+10	1	-1E+10	1	-1E+10	1
4902554	42	C	04/02/2022	15:03	-136.006	49.475	0	452.70	0	4.2780	0	34.0340	0	26.992	0	448.350	0	-1e10	8	-1e10	8	-1E+10	1	-1E+10	1	-1E+10	1	-1E+10	1	-1E+10	1	-1E+10	1
4902554	42	C	04/02/2022	15:03	-136.006	49.475	0	458.00	0	4.2650	0	34.0430	0	27.001	0	453.593	0	-1e10	8	-1e10	8	-1E+10	1	-1E+10	1	-1E+10	1	-1E+10	1	-1E+10	1	-1E+10	1
4902554	42	C	04/02/2022	15:03	-136.006	49.475	0	462.80	0	4.2520	0	34.0500	0	27.008	0	458.342	0	-1e10	8	-1e10	8	-1E+10	1	-1E+10	1	-1E+10	1	-1E+10	1	-1E+10	1	-1E+10	1
4902554	42	C	04/02/2022	15:03	-136.006	49.475	0	467.50	0	4.2370	0	34.0580	0	27.016	0	462.991	0	-1e10	8	-1e10	8	-1E+10	1	-1E+10	1	-1E+10	1	-1E+10	1	-1E+10	1	-1E+10	1
4902554	42	C	04/02/2022	15:03	-136.006	49.475	0	472.80	0	4.2260	0	34.0640	0	27.022	0	468.234	0	-1e10	8	-1e10	8	-1E+10	1	-1E+10	1	-1E+10	1	-1E+10	1	-1E+10	1	-1E+10	1
4902554	42	C	04/02/2022	15:03	-136.006	49.475	0	478.10	0	4.2130	0	34.0710	0	27.029	0	473.477	0	-1e10	8	-1e10	8	-1E+10	1	-1E+10	1	-1E+10	1	-1E+10	1	-1E+10	1	-1E+10	1
4902554	42	C	04/02/2022	15:03	-136.006	49.475	0	482.90	0	4.2030	0	34.0770	0	27.035	0	478.225	0	-1e10	8	-1e10	8	-1E+10	1	-1E+10	1	-1E+10	1	-1E+10	1	-1E+10	1	-1E+10	1
4902554	42	C	04/02/2022	15:03	-136.006	49.475	0	487.70	0	4.1990	0	34.0810	0	27.038	0	482.973	0	-1e10	8	-1e10	8	-1E+10	1	-1E+10	1	-1E+10	1	-1E+10	1	-1E+10	1	-1E+10	1
4902554	42	C	04/02/2022	15:03	-136.006	49.475	0	492.90	0	4.1920	0	34.0850	0	27.042	0	488.116	0	-1e10	8	-1e10	8	-1E+10	1	-1E+10	1	-1E+10	1	-1E+10	1	-1E+10	1	-1E+10	1
4902554	42	C	04/02/2022	15:03	-136.006	49.475	0	497.80	0	4.1850	0	34.0890	0	27.046	0	492.963	0	-1e10	8	-1e10	8	-1E+10	1	-1E+10	1	-1E+10	1	-1E+10	1	-1E+10	1	-1E+10	1
4902554	42	C	04/02/2022	15:03	-136.006	49.475	0	503.00	0	4.1770	0	34.0900	0	27.048	0	498.106	0	-1e10	8	-1e10	8	-1E+10	1	-1E+10	1	-1E+10	1	-1E+10	1	-1E+10	1	-1E+10	1
4902554	42	C	04/02/2022	15:03	-136.006	49.475	0	508.20	0	4.1780	0	34.0960	0	27.053	0	503.249	0	-1e10	8	-1e10	8	-1E+10	1	-1E+10	1	-1E+10	1	-1E+10	1	-1E+10	1	-1E+10	1
4902554	42	C	04/02/2022	15:03	-136.006	49.475	0	513.20	0	4.1840	0	34.1060	0	27.060	0	508.195	0	-1e10	8	-1e10	8	-1E+10	1	-1E+10	1	-1E+10	1	-1E+10	1	-1E+10	1	-1E+10	1
4902554	42	C	04/02/2022	15:03	-136.006	49.475	0	518.10	0	4.1860	0	34.1140	0	27.066	0	513.041	0	-1e10	8	-1e10	8	-1E+10	1	-1E+10	1	-1E+10	1	-1E+10	1	-1E+10	1	-1E+10	1
4902554	42	C	04/02/2022	15:03	-136.006	49.475	0	523.20	0	4.1820	0	34.1160	0	27.068	0	518.085	0	-1e10	8	-1e10	8	-1E+10	1	-1E+10	1	-1E+10	1	-1E+10	1	-1E+10	1	-1E+10	1
4902554	42	C	04/02/2022	15:03	-136.006	49.475	0	527.90	0	4.1800	0	34.1170	0	27.069	0	522.733	0	-1e10	8	-1e10	8	-1E+10	1	-1E+10	1	-1E+10	1	-1E+10	1	-1E+10	1	-1E+10	1
4902554	42	C	04/02/2022	15:03	-136.006	49.475	0	532.70	0	4.1730	0	34.1210	0	27.073	0	527.480	0	-1e10	8	-1e10	8	-1E+10	1	-1E+10	1	-1E+10	1	-1E+10	1	-1E+10	1	-1E+10	1
4902554	42	C	04/02/2022	15:03	-136.006	49.475	0	538.00	0	4.1620	0	34.1240	0	27.077	0	532.721	0	-1e10	8	-1e10	8	-1E+10	1	-1E+10	1	-1E+10	1	-1E+10	1	-1E+10	1	-1E+10	1
4902554	42	C	04/02/2022	15:03	-136.006	49.475	0	542.80	0	4.1570	0	34.1260	0	27.079	0	537.468	0	-1e10	8	-1e10	8	-1E+10	1	-1E+10	1	-1E+10	1	-1E+10	1	-1E+10	1	-1E+10	1
4902554	42	C	04/02/2022	15:03	-136.006	49.475	0	547.70	0	4.1440	0	34.1280	0	27.082	0	542.313	0	-1e10	8	-1e10	8	-1E+10	1	-1E+10	1	-1E+10	1	-1E+10	1	-1E+10	1	-1E+10	1
4902554	42	C	04/02/2022	15:03	-136.006	49.475	0	553.10	0	4.1320	0	34.1310	0	27.086	0	547.653	0	-1e10	8	-1e10	8	-1E+10	1	-1E+10	1	-1E+10	1	-1E+10	1	-1E+10	1	-1E+10	1
4902554	42	C	04/02/2022	15:03	-136.006	49.475	0	558.10	0	4.1250	0	34.1330	0	27.088	0	552.597	0	-1e10	8	-1e10	8	-1E+10	1	-1E+10	1	-1E+10	1	-1E+10	1	-1E+10	1	-1E+10	1
4902554	42	C	04/02/2022	15:03	-136.006	49.475	0	562.70	0	4.1140	0	34.1350	0	27.091	0	557.145	0	-1e10	8	-1e10	8	-1E+10	1	-1E+10	1	-1E+10	1	-1E+10	1	-1E+10	1	-1E+10	1
4902554	42	C	04/02/2022	15:03	-136.006	49.475	0	567.90	0	4.1000	0	34.1360	0	27.093	0	562.287	0	-1e10	8	-1e10	8	-1E+10	1	-1E+10	1	-1E+10	1	-1E+10	1	-1E+10	1	-1E+10	1
4902554	42	C	04/02/2022	15:03	-136.006	49.475	0	573.20	0	4.0830	0	34.1390	0	27.097	0	567.527	0	-1e10	8	-1e10	8	-1E+10	1	-1E+10	1	-1E+10	1	-1E+10	1	-1E+10	1	-1E+10	1
4902554	42	C	04/02/2022	15:03	-136.006	49.475	0	578.00	0	4.0720	0	34.1410	0	27.100	0	572.273	0	-1e10	8	-1e10	8	-1E+10	1	-1E+10	1	-1E+10	1	-1E+10	1	-1E+10	1	-1E+10	1
4902554	42	C	04/02/2022	15:03	-136.006	49.475	0	582.80	0	4.0630	0	34.1420	0	27.102	0	577.019	0	-1e10	8	-1e10	8	-1E+10	1	-1E+10	1	-1E+10	1	-1E+10	1	-1E+10	1	-1E+10	1
4902554	42	C	04/02/2022	15:03	-136.006	49.475	0	587.60	0	4.0540	0	34.1440	0	27.104	0	581.765	0	-1e10	8	-1e10	8	-1E+10	1	-1E+10	1	-1E+10	1	-1E+10	1	-1E+10	1	-1E+10	1
4902554	42	C	04/02/2022	15:03	-136.006	49.475	0	592.50	0	4.0520	0	34.1450	0	27.105	0	586.609	0	-1e10	8	-1e10	8	-1E+10	1	-1E+10	1	-1E+10	1	-1E+10	1	-1E+10	1	-1E+10	1
4902554	42	C	04/02/2022	15:03	-136.006	49.475	0	597.90	0	4.0410	0	34.1460	0	27.107	0	591.948	0	-1e10	8	-1e10	8	-1E+10	1	-1E+10	1	-1E+10	1	-1E+10	1	-1E+10	1	-1E+10	1
4902554	42	C	04/02/2022	15:03	-136.006	49.475	0	603.00	0	4.0270	0	34.1500	0	27.112	0	596.990	0	-1e10	8	-1e10	8	-1E+10	1	-1E+10	1	-1E+10	1	-1E+10	1	-1E+10	1	-1E+10	1
4902554	42	C	04/02/2022	15:03	-136.006	49.475	0	607.50	0	4.0060	0	34.1540	0	27.117	0	601.438	0	-1e10	8	-1e10	8	-1E+10	1	-1E+10	1	-1E+10	1	-1E+10	1	-1E+10	1	-1E+10	1
4902554	42	C	04/02/2022	15:03	-136.006	49.475	0	612.60	0	3.9970	0	34.1570	0	27.120	0	606.480	0	-1e10	8	-1e10	8	-1E+10	1	-1E+10	1	-1E+10	1	-1E+10	1	-1E+10	1	-1E+10	1
4902554	42	C	04/02/2022	15:03	-136.006	49.475	0	617.70	0	3.9730	0	34.1610	0	27.126	0	611.522	0	-1e10	8	-1e10	8	-1E+10	1	-1E+10	1	-1E+10	1	-1E+10	1	-1E+10	1	-1E+10	1
4902554	42	C	04/02/2022	15:03	-136.006	49.475	0	622.80	0	3.9540	0	34.1660	0	27.132	0	616.563	0	-1e10	8	-1e10	8	-1E+10	1	-1E+10	1	-1E+10	1	-1E+10	1	-1E+10	1	-1E+10	1
4902554	42	C	04/02/2022	15:03	-136.006	49.475	0	627.80	0	3.9410	0	34.1700	0	27.137	0	621.506	0	-1e10	8	-1e10	8	-1E+10	1	-1E+10	1	-1E+10	1	-1E+10	1	-1E+10	1	-1E+10	1
4902554	42	C	04/02/2022	15:03	-136.006	49.475	0	633.00	0	3.9250	0	34.1730	0	27.141	0	626.646	0	-1e10	8	-1e10	8	-1E+10	1	-1E+10	1	-1E+10	1	-1E+10	1	-1E+10	1	-1E+10	1
4902554	42	C	04/02/2022	15:03	-136.006	49.475	0	638.10	0	3.9110	0	34.1770	0	27.145	0	631.687	0	-1e10	8	-1e10	8	-1E+10	1	-1E+10	1	-1E+10	1	-1E+10	1	-1E+10	1	-1E+10	1
4902554	42	C	04/02/2022	15:03	-136.006	49.475	0	643.30	0	3.8870	0	34.1840	0	27.153	0	636.827	0	-1e10	8	-1e10	8	-1E+10	1	-1E+10	1	-1E+10	1	-1E+10	1	-1E+10	1	-1E+10	1
4902554	42	C	04/02/2022	15:03	-136.006	49.475	0	647.90	0	3.8680	0	34.1890	0	27.159	0	641.373	0	-1e10	8	-1e10	8	-1E+10	1	-1E+10	1	-1E+10	1	-1E+10	1	-1E+10	1	-1E+10	1
4902554	42	C	04/02/2022	15:03	-136.006	49.475	0	652.60	0	3.8460	0	34.1940	0	27.165	0	646.019	0	-1e10	8	-1e10	8	-1E+10	1	-1E+10	1	-1E+10	1	-1E+10	1	-1E+10	1	-1E+10	1
4902554	42	C	04/02/2022	15:03	-136.006	49.475	0	657.80	0	3.8390	0	34.1960	0	27.168	0	651.158	0	-1e10	8	-1e10	8	-1E+10	1	-1E+10	1	-1E+10	1	-1E+10	1	-1E+10	1	-1E+10	1
4902554	42	C	04/02/2022	15:03	-136.006	49.475	0	663.10	0	3.8270	0	34.2000	0	27.172	0	656.396	0	-1e10	8	-1e10	8	-1E+10	1	-1E+10	1	-1E+10	1	-1E+10	1	-1E+10	1	-1E+10	1
4902554	42	C	04/02/2022	15:03	-136.006	49.475	0	668.00	0	3.8040	0	34.2070	0	27.180	0	661.239	0	-1e10	8	-1e10	8	-1E+10	1	-1E+10	1	-1E+10	1	-1E+10	1	-1E+10	1	-1E+10	1
4902554	42	C	04/02/2022	15:03	-136.006	49.475	0	672.90	0	3.7910	0	34.2110	0	27.185	0	666.081	0	-1e10	8	-1e10	8	-1E+10	1	-1E+10	1	-1E+10	1	-1E+10	1	-1E+10	1	-1E+10	1
4902554	42	C	04/02/2022	15:03	-136.006	49.475	0	677.90	0	3.7850	0	34.2120	0	27.186	0	671.023	0	-1e10	8	-1e10	8	-1E+10	1	-1E+10	1	-1E+10	1	-1E+10	1	-1E+10	1	-1E+10	1
4902554	42	C	04/02/2022	15:03	-136.006	49.475	0	682.70	0	3.7730	0	34.2150	0	27.190	0	675.766	0	-1e10	8	-1e10	8	-1E+10	1	-1E+10	1	-1E+10	1	-1E+10	1	-1E+10	1	-1E+10	1
4902554	42	C	04/02/2022	15:03	-136.006	49.475	0	687.60	0	3.7560	0	34.2190	0	27.195	0	680.608	0	-1e10	8	-1e10	8	-1E+10	1	-1E+10	1	-1E+10	1	-1E+10	1	-1E+10	1	-1E+10	1
4902554	42	C	04/02/2022	15:03	-136.006	49.475	0	692.60	0	3.7330	0	34.2240	0	27.201	0	685.549	0	-1e10	8	-1e10	8	-1E+10	1	-1E+10	1	-1E+10	1	-1E+10	1	-1E+10	1	-1E+10	1
4902554	42	C	04/02/2022	15:03	-136.006	49.475	0	697.60	0	3.7210	0	34.2270	0	27.204	0	690.490	0	-1e10	8	-1e10	8	-1E+10	1	-1E+10	1	-1E+10	1	-1E+10	1	-1E+10	1	-1E+10	1
4902554	42	C	04/02/2022	15:03	-136.006	49.475	0	702.70	0	3.7160	0	34.2280	0	27.206	0	695.530	0	-1e10	8	-1e10	8	-1E+10	1	-1E+10	1	-1E+10	1	-1E+10	1	-1E+10	1	-1E+10	1
4902554	42	C	04/02/2022	15:03	-136.006	49.475	0	707.90	0	3.7050	0	34.2310	0	27.209	0	700.668	0	-1e10	8	-1e10	8	-1E+10	1	-1E+10	1	-1E+10	1	-1E+10	1	-1E+10	1	-1E+10	1
4902554	42	C	04/02/2022	15:03	-136.006	49.475	0	713.10	0	3.6860	0	34.2360	0	27.215	0	705.806	0	-1e10	8	-1e10	8	-1E+10	1	-1E+10	1	-1E+10	1	-1E+10	1	-1E+10	1	-1E+10	1
4902554	42	C	04/02/2022	15:03	-136.006	49.475	0	717.90	0	3.6810	0	34.2370	0	27.216	0	710.549	0	-1e10	8	-1e10	8	-1E+10	1	-1E+10	1	-1E+10	1	-1E+10	1	-1E+10	1	-1E+10	1
4902554	42	C	04/02/2022	15:03	-136.006	49.475	0	722.70	0	3.6740	0	34.2390	0	27.219	0	715.291	0	-1e10	8	-1e10	8	-1E+10	1	-1E+10	1	-1E+10	1	-1E+10	1	-1E+10	1	-1E+10	1
4902554	42	C	04/02/2022	15:03	-136.006	49.475	0	728.00	0	3.6650	0	34.2410	0	27.221	0	720.528	0	-1e10	8	-1e10	8	-1E+10	1	-1E+10	1	-1E+10	1	-1E+10	1	-1E+10	1	-1E+10	1
4902554	42	C	04/02/2022	15:03	-136.006	49.475	0	732.80	0	3.6590	0	34.2430	0	27.224	0	725.270	0	-1e10	8	-1e10	8	-1E+10	1	-1E+10	1	-1E+10	1	-1E+10	1	-1E+10	1	-1E+10	1
4902554	42	C	04/02/2022	15:03	-136.006	49.475	0	737.70	0	3.6470	0	34.2440	0	27.226	0	730.111	0	-1e10	8	-1e10	8	-1E+10	1	-1E+10	1	-1E+10	1	-1E+10	1	-1E+10	1	-1E+10	1
4902554	42	C	04/02/2022	15:03	-136.006	49.475	0	743.10	0	3.6300	0	34.2480	0	27.230	0	735.446	0	-1e10	8	-1e10	8	-1E+10	1	-1E+10	1	-1E+10	1	-1E+10	1	-1E+10	1	-1E+10	1
4902554	42	C	04/02/2022	15:03	-136.006	49.475	0	748.20	0	3.6190	0	34.2510	0	27.234	0	740.485	0	-1e10	8	-1e10	8	-1E+10	1	-1E+10	1	-1E+10	1	-1E+10	1	-1E+10	1	-1E+10	1
4902554	42	C	04/02/2022	15:03	-136.006	49.475	0	752.80	0	3.6080	0	34.2540	0	27.237	0	745.029	0	-1e10	8	-1e10	8	-1E+10	1	-1E+10	1	-1E+10	1	-1E+10	1	-1E+10	1	-1E+10	1
4902554	42	C	04/02/2022	15:03	-136.006	49.475	0	757.90	0	3.6030	0	34.2550	0	27.239	0	750.067	0	-1e10	8	-1e10	8	-1E+10	1	-1E+10	1	-1E+10	1	-1E+10	1	-1E+10	1	-1E+10	1
4902554	42	C	04/02/2022	15:03	-136.006	49.475	0	763.00	0	3.5970	0	34.2560	0	27.240	0	755.105	0	-1e10	8	-1e10	8	-1E+10	1	-1E+10	1	-1E+10	1	-1E+10	1	-1E+10	1	-1E+10	1
4902554	42	C	04/02/2022	15:03	-136.006	49.475	0	768.00	0	3.5850	0	34.2590	0	27.244	0	760.045	0	-1e10	8	-1e10	8	-1E+10	1	-1E+10	1	-1E+10	1	-1E+10	1	-1E+10	1	-1E+10	1
4902554	42	C	04/02/2022	15:03	-136.006	49.475	0	773.10	0	3.5680	0	34.2640	0	27.249	0	765.082	0	-1e10	8	-1e10	8	-1E+10	1	-1E+10	1	-1E+10	1	-1E+10	1	-1E+10	1	-1E+10	1
4902554	42	C	04/02/2022	15:03	-136.006	49.475	0	777.70	0	3.5600	0	34.2660	0	27.252	0	769.626	0	-1e10	8	-1e10	8	-1E+10	1	-1E+10	1	-1E+10	1	-1E+10	1	-1E+10	1	-1E+10	1
4902554	42	C	04/02/2022	15:03	-136.006	49.475	0	782.90	0	3.5460	0	34.2690	0	27.256	0	774.763	0	-1e10	8	-1e10	8	-1E+10	1	-1E+10	1	-1E+10	1	-1E+10	1	-1E+10	1	-1E+10	1
4902554	42	C	04/02/2022	15:03	-136.006	49.475	0	788.10	0	3.5350	0	34.2720	0	27.259	0	779.899	0	-1e10	8	-1e10	8	-1E+10	1	-1E+10	1	-1E+10	1	-1E+10	1	-1E+10	1	-1E+10	1
4902554	42	C	04/02/2022	15:03	-136.006	49.475	0	792.90	0	3.5240	0	34.2740	0	27.262	0	784.640	0	-1e10	8	-1e10	8	-1E+10	1	-1E+10	1	-1E+10	1	-1E+10	1	-1E+10	1	-1E+10	1
4902554	42	C	04/02/2022	15:03	-136.006	49.475	0	797.70	0	3.5180	0	34.2750	0	27.263	0	789.381	0	-1e10	8	-1e10	8	-1E+10	1	-1E+10	1	-1E+10	1	-1E+10	1	-1E+10	1	-1E+10	1
4902554	42	C	04/02/2022	15:03	-136.006	49.475	0	802.60	0	3.5110	0	34.2770	0	27.265	0	794.220	0	-1e10	8	-1e10	8	-1E+10	1	-1E+10	1	-1E+10	1	-1E+10	1	-1E+10	1	-1E+10	1
4902554	42	C	04/02/2022	15:03	-136.006	49.475	0	807.50	0	3.5040	0	34.2790	0	27.268	0	799.060	0	-1e10	8	-1e10	8	-1E+10	1	-1E+10	1	-1E+10	1	-1E+10	1	-1E+10	1	-1E+10	1
4902554	42	C	04/02/2022	15:03	-136.006	49.475	0	812.50	0	3.4960	0	34.2810	0	27.270	0	803.998	0	-1e10	8	-1e10	8	-1E+10	1	-1E+10	1	-1E+10	1	-1E+10	1	-1E+10	1	-1E+10	1
4902554	42	C	04/02/2022	15:03	-136.006	49.475	0	817.90	0	3.4940	0	34.2820	0	27.271	0	809.331	0	-1e10	8	-1e10	8	-1E+10	1	-1E+10	1	-1E+10	1	-1E+10	1	-1E+10	1	-1E+10	1
4902554	42	C	04/02/2022	15:03	-136.006	49.475	0	823.30	0	3.4790	0	34.2850	0	27.275	0	814.664	0	-1e10	8	-1e10	8	-1E+10	1	-1E+10	1	-1E+10	1	-1E+10	1	-1E+10	1	-1E+10	1
4902554	42	C	04/02/2022	15:03	-136.006	49.475	0	828.20	0	3.4620	0	34.2870	0	27.278	0	819.503	0	-1e10	8	-1e10	8	-1E+10	1	-1E+10	1	-1E+10	1	-1E+10	1	-1E+10	1	-1E+10	1
4902554	42	C	04/02/2022	15:03	-136.006	49.475	0	833.00	0	3.4540	0	34.2880	0	27.280	0	824.243	0	-1e10	8	-1e10	8	-1E+10	1	-1E+10	1	-1E+10	1	-1E+10	1	-1E+10	1	-1E+10	1
4902554	42	C	04/02/2022	15:03	-136.006	49.475	0	837.70	0	3.4420	0	34.2910	0	27.283	0	828.884	0	-1e10	8	-1e10	8	-1E+10	1	-1E+10	1	-1E+10	1	-1E+10	1	-1E+10	1	-1E+10	1
4902554	42	C	04/02/2022	15:03	-136.006	49.475	0	843.00	0	3.4360	0	34.2910	0	27.284	0	834.118	0	-1e10	8	-1e10	8	-1E+10	1	-1E+10	1	-1E+10	1	-1E+10	1	-1E+10	1	-1E+10	1
4902554	42	C	04/02/2022	15:03	-136.006	49.475	0	848.20	0	3.4190	0	34.2950	0	27.289	0	839.253	0	-1e10	8	-1e10	8	-1E+10	1	-1E+10	1	-1E+10	1	-1E+10	1	-1E+10	1	-1E+10	1
4902554	42	C	04/02/2022	15:03	-136.006	49.475	0	852.90	0	3.4130	0	34.2970	0	27.291	0	843.894	0	-1e10	8	-1e10	8	-1E+10	1	-1E+10	1	-1E+10	1	-1E+10	1	-1E+10	1	-1E+10	1
4902554	42	C	04/02/2022	15:03	-136.006	49.475	0	857.70	0	3.4040	0	34.2990	0	27.294	0	848.633	0	-1e10	8	-1e10	8	-1E+10	1	-1E+10	1	-1E+10	1	-1E+10	1	-1E+10	1	-1E+10	1
4902554	42	C	04/02/2022	15:03	-136.006	49.475	0	863.00	0	3.3850	0	34.3020	0	27.298	0	853.866	0	-1e10	8	-1e10	8	-1E+10	1	-1E+10	1	-1E+10	1	-1E+10	1	-1E+10	1	-1E+10	1
4902554	42	C	04/02/2022	15:03	-136.006	49.475	0	868.30	0	3.3600	0	34.3060	0	27.303	0	859.099	0	-1e10	8	-1e10	8	-1E+10	1	-1E+10	1	-1E+10	1	-1E+10	1	-1E+10	1	-1E+10	1
4902554	42	C	04/02/2022	15:03	-136.006	49.475	0	873.10	0	3.3510	0	34.3070	0	27.305	0	863.839	0	-1e10	8	-1e10	8	-1E+10	1	-1E+10	1	-1E+10	1	-1E+10	1	-1E+10	1	-1E+10	1
4902554	42	C	04/02/2022	15:03	-136.006	49.475	0	877.90	0	3.3480	0	34.3090	0	27.307	0	868.578	0	-1e10	8	-1e10	8	-1E+10	1	-1E+10	1	-1E+10	1	-1E+10	1	-1E+10	1	-1E+10	1
4902554	42	C	04/02/2022	15:03	-136.006	49.475	0	882.80	0	3.3350	0	34.3110	0	27.310	0	873.415	0	-1e10	8	-1e10	8	-1E+10	1	-1E+10	1	-1E+10	1	-1E+10	1	-1E+10	1	-1E+10	1
4902554	42	C	04/02/2022	15:03	-136.006	49.475	0	887.80	0	3.3080	0	34.3140	0	27.315	0	878.352	0	-1e10	8	-1e10	8	-1E+10	1	-1E+10	1	-1E+10	1	-1E+10	1	-1E+10	1	-1E+10	1
4902554	42	C	04/02/2022	15:03	-136.006	49.475	0	892.80	0	3.2930	0	34.3180	0	27.319	0	883.288	0	-1e10	8	-1e10	8	-1E+10	1	-1E+10	1	-1E+10	1	-1E+10	1	-1E+10	1	-1E+10	1
4902554	42	C	04/02/2022	15:03	-136.006	49.475	0	897.90	0	3.2840	0	34.3190	0	27.321	0	888.323	0	-1e10	8	-1e10	8	-1E+10	1	-1E+10	1	-1E+10	1	-1E+10	1	-1E+10	1	-1E+10	1
4902554	42	C	04/02/2022	15:03	-136.006	49.475	0	903.00	0	3.2740	0	34.3210	0	27.324	0	893.358	0	-1e10	8	-1e10	8	-1E+10	1	-1E+10	1	-1E+10	1	-1E+10	1	-1E+10	1	-1E+10	1
4902554	42	C	04/02/2022	15:03	-136.006	49.475	0	907.80	0	3.2610	0	34.3240	0	27.327	0	898.096	0	-1e10	8	-1e10	8	-1E+10	1	-1E+10	1	-1E+10	1	-1E+10	1	-1E+10	1	-1E+10	1
4902554	42	C	04/02/2022	15:03	-136.006	49.475	0	913.00	0	3.2480	0	34.3260	0	27.330	0	903.229	0	-1e10	8	-1e10	8	-1E+10	1	-1E+10	1	-1E+10	1	-1E+10	1	-1E+10	1	-1E+10	1
4902554	42	C	04/02/2022	15:03	-136.006	49.475	0	918.20	0	3.2350	0	34.3290	0	27.334	0	908.362	0	-1e10	8	-1e10	8	-1E+10	1	-1E+10	1	-1E+10	1	-1E+10	1	-1E+10	1	-1E+10	1
4902554	42	C	04/02/2022	15:03	-136.006	49.475	0	923.10	0	3.2260	0	34.3300	0	27.335	0	913.199	0	-1e10	8	-1e10	8	-1E+10	1	-1E+10	1	-1E+10	1	-1E+10	1	-1E+10	1	-1E+10	1
4902554	42	C	04/02/2022	15:03	-136.006	49.475	0	928.00	0	3.2240	0	34.3330	0	27.338	0	918.036	0	-1e10	8	-1e10	8	-1E+10	1	-1E+10	1	-1E+10	1	-1E+10	1	-1E+10	1	-1E+10	1
4902554	42	C	04/02/2022	15:03	-136.006	49.475	0	932.90	0	3.2160	0	34.3350	0	27.340	0	922.872	0	-1e10	8	-1e10	8	-1E+10	1	-1E+10	1	-1E+10	1	-1E+10	1	-1E+10	1	-1E+10	1
4902554	42	C	04/02/2022	15:03	-136.006	49.475	0	938.00	0	3.2010	0	34.3370	0	27.343	0	927.906	0	-1e10	8	-1e10	8	-1E+10	1	-1E+10	1	-1E+10	1	-1E+10	1	-1E+10	1	-1E+10	1
4902554	42	C	04/02/2022	15:03	-136.006	49.475	0	943.20	0	3.1900	0	34.3380	0	27.345	0	933.039	0	-1e10	8	-1e10	8	-1E+10	1	-1E+10	1	-1E+10	1	-1E+10	1	-1E+10	1	-1E+10	1
4902554	42	C	04/02/2022	15:03	-136.006	49.475	0	947.90	0	3.1790	0	34.3410	0	27.349	0	937.678	0	-1e10	8	-1e10	8	-1E+10	1	-1E+10	1	-1E+10	1	-1E+10	1	-1E+10	1	-1E+10	1
4902554	42	C	04/02/2022	15:03	-136.006	49.475	0	952.80	0	3.1730	0	34.3420	0	27.350	0	942.514	0	-1e10	8	-1e10	8	-1E+10	1	-1E+10	1	-1E+10	1	-1E+10	1	-1E+10	1	-1E+10	1
4902554	42	C	04/02/2022	15:03	-136.006	49.475	0	958.10	0	3.1630	0	34.3440	0	27.353	0	947.745	0	-1e10	8	-1e10	8	-1E+10	1	-1E+10	1	-1E+10	1	-1E+10	1	-1E+10	1	-1E+10	1
4902554	42	C	04/02/2022	15:03	-136.006	49.475	0	963.00	0	3.1600	0	34.3460	0	27.354	0	952.580	0	-1e10	8	-1e10	8	-1E+10	1	-1E+10	1	-1E+10	1	-1E+10	1	-1E+10	1	-1E+10	1
4902554	42	C	04/02/2022	15:03	-136.006	49.475	0	967.90	0	3.1510	0	34.3490	0	27.358	0	957.416	0	-1e10	8	-1e10	8	-1E+10	1	-1E+10	1	-1E+10	1	-1E+10	1	-1E+10	1	-1E+10	1
4902554	42	C	04/02/2022	15:03	-136.006	49.475	0	972.80	0	3.1410	0	34.3500	0	27.359	0	962.252	0	-1e10	8	-1e10	8	-1E+10	1	-1E+10	1	-1E+10	1	-1E+10	1	-1E+10	1	-1E+10	1
4902554	42	C	04/02/2022	15:03	-136.006	49.475	0	977.70	0	3.1310	0	34.3510	0	27.361	0	967.088	0	-1e10	8	-1e10	8	-1E+10	1	-1E+10	1	-1E+10	1	-1E+10	1	-1E+10	1	-1E+10	1
4902554	42	C	04/02/2022	15:03	-136.006	49.475	0	982.80	0	3.1160	0	34.3530	0	27.364	0	972.120	0	-1e10	8	-1e10	8	-1E+10	1	-1E+10	1	-1E+10	1	-1E+10	1	-1E+10	1	-1E+10	1
4902554	42	C	04/02/2022	15:03	-136.006	49.475	0	987.70	0	3.1040	0	34.3550	0	27.367	0	976.956	0	-1e10	8	-1e10	8	-1E+10	1	-1E+10	1	-1E+10	1	-1E+10	1	-1E+10	1	-1E+10	1
4902554	42	C	04/02/2022	15:03	-136.006	49.475	0	993.10	0	3.0960	0	34.3570	0	27.369	0	982.284	0	-1e10	8	-1e10	8	-1E+10	1	-1E+10	1	-1E+10	1	-1E+10	1	-1E+10	1	-1E+10	1
4902554	42	C	04/02/2022	15:03	-136.006	49.475	0	998.10	0	3.0850	0	34.3590	0	27.372	0	987.218	0	-1e10	8	-1e10	8	-1E+10	1	-1E+10	1	-1E+10	1	-1E+10	1	-1E+10	1	-1E+10	1
4902554	42	C	04/02/2022	15:03	-136.006	49.475	0	1005.50	0	3.0690	0	34.3620	0	27.376	0	994.520	0	-1e10	8	-1e10	8	-1E+10	1	-1E+10	1	-1E+10	1	-1E+10	1	-1E+10	1	-1E+10	1
4902554	42	C	04/02/2022	15:03	-136.006	49.475	0	1015.70	0	3.0340	0	34.3660	0	27.382	0	1004.584	0	-1e10	8	-1e10	8	-1E+10	1	-1E+10	1	-1E+10	1	-1E+10	1	-1E+10	1	-1E+10	1
4902554	42	C	04/02/2022	15:03	-136.006	49.475	0	1025.60	0	3.0100	0	34.3710	0	27.388	0	1014.352	0	-1e10	8	-1e10	8	-1E+10	1	-1E+10	1	-1E+10	1	-1E+10	1	-1E+10	1	-1E+10	1
4902554	42	C	04/02/2022	15:03	-136.006	49.475	0	1035.20	0	2.9900	0	34.3750	0	27.393	0	1023.823	0	-1e10	8	-1e10	8	-1E+10	1	-1E+10	1	-1E+10	1	-1E+10	1	-1E+10	1	-1E+10	1
4902554	42	C	04/02/2022	15:03	-136.006	49.475	0	1045.40	0	2.9710	0	34.3790	0	27.398	0	1033.886	0	-1e10	8	-1e10	8	-1E+10	1	-1E+10	1	-1E+10	1	-1E+10	1	-1E+10	1	-1E+10	1
4902554	42	C	04/02/2022	15:03	-136.006	49.475	0	1055.70	0	2.9540	0	34.3830	0	27.403	0	1044.047	0	-1e10	8	-1e10	8	-1E+10	1	-1E+10	1	-1E+10	1	-1E+10	1	-1E+10	1	-1E+10	1
4902554	42	C	04/02/2022	15:03	-136.006	49.475	0	1065.40	0	2.9380	0	34.3860	0	27.407	0	1053.615	0	-1e10	8	-1e10	8	-1E+10	1	-1E+10	1	-1E+10	1	-1E+10	1	-1E+10	1	-1E+10	1
4902554	42	C	04/02/2022	15:03	-136.006	49.475	0	1075.30	0	2.9220	0	34.3890	0	27.411	0	1063.381	0	-1e10	8	-1e10	8	-1E+10	1	-1E+10	1	-1E+10	1	-1E+10	1	-1E+10	1	-1E+10	1
4902554	42	C	04/02/2022	15:03	-136.006	49.475	0	1085.30	0	2.9140	0	34.3900	0	27.413	0	1073.244	0	-1e10	8	-1e10	8	-1E+10	1	-1E+10	1	-1E+10	1	-1E+10	1	-1E+10	1	-1E+10	1
4902554	42	C	04/02/2022	15:03	-136.006	49.475	0	1095.50	0	2.9010	0	34.3930	0	27.416	0	1083.305	0	-1e10	8	-1e10	8	-1E+10	1	-1E+10	1	-1E+10	1	-1E+10	1	-1E+10	1	-1E+10	1
4902554	42	C	04/02/2022	15:03	-136.006	49.475	0	1105.40	0	2.8890	0	34.3950	0	27.419	0	1093.069	0	-1e10	8	-1e10	8	-1E+10	1	-1E+10	1	-1E+10	1	-1E+10	1	-1E+10	1	-1E+10	1
4902554	42	C	04/02/2022	15:03	-136.006	49.475	0	1115.10	0	2.8780	0	34.3970	0	27.422	0	1102.635	0	-1e10	8	-1e10	8	-1E+10	1	-1E+10	1	-1E+10	1	-1E+10	1	-1E+10	1	-1E+10	1
4902554	42	C	04/02/2022	15:03	-136.006	49.475	0	1125.20	0	2.8620	0	34.4000	0	27.425	0	1112.595	0	-1e10	8	-1e10	8	-1E+10	1	-1E+10	1	-1E+10	1	-1E+10	1	-1E+10	1	-1E+10	1
4902554	42	C	04/02/2022	15:03	-136.006	49.475	0	1135.00	0	2.8400	0	34.4040	0	27.431	0	1122.259	0	-1e10	8	-1e10	8	-1E+10	1	-1E+10	1	-1E+10	1	-1E+10	1	-1E+10	1	-1E+10	1
4902554	42	C	04/02/2022	15:03	-136.006	49.475	0	1145.00	0	2.8190	0	34.4080	0	27.436	0	1132.120	0	-1e10	8	-1e10	8	-1E+10	1	-1E+10	1	-1E+10	1	-1E+10	1	-1E+10	1	-1E+10	1
4902554	42	C	04/02/2022	15:03	-136.006	49.475	0	1155.20	0	2.8020	0	34.4110	0	27.440	0	1142.178	0	-1e10	8	-1e10	8	-1E+10	1	-1E+10	1	-1E+10	1	-1E+10	1	-1E+10	1	-1E+10	1
4902554	42	C	04/02/2022	15:03	-136.006	49.475	0	1165.70	0	2.7850	0	34.4140	0	27.444	0	1152.531	0	-1e10	8	-1e10	8	-1E+10	1	-1E+10	1	-1E+10	1	-1E+10	1	-1E+10	1	-1E+10	1
4902554	42	C	04/02/2022	15:03	-136.006	49.475	0	1175.60	0	2.7720	0	34.4170	0	27.447	0	1162.291	0	-1e10	8	-1e10	8	-1E+10	1	-1E+10	1	-1E+10	1	-1E+10	1	-1E+10	1	-1E+10	1
4902554	42	C	04/02/2022	15:03	-136.006	49.475	0	1185.30	0	2.7610	0	34.4190	0	27.450	0	1171.855	0	-1e10	8	-1e10	8	-1E+10	1	-1E+10	1	-1E+10	1	-1E+10	1	-1E+10	1	-1E+10	1
4902554	42	C	04/02/2022	15:03	-136.006	49.475	0	1195.30	0	2.7410	0	34.4230	0	27.455	0	1181.713	0	-1e10	8	-1e10	8	-1E+10	1	-1E+10	1	-1E+10	1	-1E+10	1	-1E+10	1	-1E+10	1
4902554	42	C	04/02/2022	15:03	-136.006	49.475	0	1205.70	0	2.7250	0	34.4260	0	27.459	0	1191.965	0	-1e10	8	-1e10	8	-1E+10	1	-1E+10	1	-1E+10	1	-1E+10	1	-1E+10	1	-1E+10	1
4902554	42	C	04/02/2022	15:03	-136.006	49.475	0	1215.50	0	2.7110	0	34.4290	0	27.462	0	1201.626	0	-1e10	8	-1e10	8	-1E+10	1	-1E+10	1	-1E+10	1	-1E+10	1	-1E+10	1	-1E+10	1
4902554	42	C	04/02/2022	15:03	-136.006	49.475	0	1225.50	0	2.7000	0	34.4310	0	27.465	0	1211.483	0	-1e10	8	-1e10	8	-1E+10	1	-1E+10	1	-1E+10	1	-1E+10	1	-1E+10	1	-1E+10	1
4902554	42	C	04/02/2022	15:03	-136.006	49.475	0	1235.70	0	2.6840	0	34.4350	0	27.470	0	1221.537	0	-1e10	8	-1e10	8	-1E+10	1	-1E+10	1	-1E+10	1	-1E+10	1	-1E+10	1	-1E+10	1
4902554	42	C	04/02/2022	15:03	-136.006	49.475	0	1245.60	0	2.6660	0	34.4380	0	27.474	0	1231.294	0	-1e10	8	-1e10	8	-1E+10	1	-1E+10	1	-1E+10	1	-1E+10	1	-1E+10	1	-1E+10	1
4902554	42	C	04/02/2022	15:03	-136.006	49.475	0	1255.70	0	2.6490	0	34.4410	0	27.477	0	1241.248	0	-1e10	8	-1e10	8	-1E+10	1	-1E+10	1	-1E+10	1	-1E+10	1	-1E+10	1	-1E+10	1
4902554	42	C	04/02/2022	15:03	-136.006	49.475	0	1265.50	0	2.6330	0	34.4440	0	27.481	0	1250.907	0	-1e10	8	-1e10	8	-1E+10	1	-1E+10	1	-1E+10	1	-1E+10	1	-1E+10	1	-1E+10	1
4902554	42	C	04/02/2022	15:03	-136.006	49.475	0	1275.40	0	2.6180	0	34.4470	0	27.485	0	1260.663	0	-1e10	8	-1e10	8	-1E+10	1	-1E+10	1	-1E+10	1	-1E+10	1	-1E+10	1	-1E+10	1
4902554	42	C	04/02/2022	15:03	-136.006	49.475	0	1285.50	0	2.6050	0	34.4500	0	27.489	0	1270.616	0	-1e10	8	-1e10	8	-1E+10	1	-1E+10	1	-1E+10	1	-1E+10	1	-1E+10	1	-1E+10	1
4902554	42	C	04/02/2022	15:03	-136.006	49.475	0	1295.20	0	2.5890	0	34.4540	0	27.493	0	1280.174	0	-1e10	8	-1e10	8	-1E+10	1	-1E+10	1	-1E+10	1	-1E+10	1	-1E+10	1	-1E+10	1
4902554	42	C	04/02/2022	15:03	-136.006	49.475	0	1305.20	0	2.5760	0	34.4560	0	27.496	0	1290.027	0	-1e10	8	-1e10	8	-1E+10	1	-1E+10	1	-1E+10	1	-1E+10	1	-1E+10	1	-1E+10	1
4902554	42	C	04/02/2022	15:03	-136.006	49.475	0	1315.70	0	2.5600	0	34.4590	0	27.500	0	1300.373	0	-1e10	8	-1e10	8	-1E+10	1	-1E+10	1	-1E+10	1	-1E+10	1	-1E+10	1	-1E+10	1
4902554	42	C	04/02/2022	15:03	-136.006	49.475	0	1325.40	0	2.5510	0	34.4610	0	27.502	0	1309.930	0	-1e10	8	-1e10	8	-1E+10	1	-1E+10	1	-1E+10	1	-1E+10	1	-1E+10	1	-1E+10	1
4902554	42	C	04/02/2022	15:03	-136.006	49.475	0	1335.50	0	2.5360	0	34.4630	0	27.505	0	1319.880	0	-1e10	8	-1e10	8	-1E+10	1	-1E+10	1	-1E+10	1	-1E+10	1	-1E+10	1	-1E+10	1
4902554	42	C	04/02/2022	15:03	-136.006	49.475	0	1345.70	0	2.5260	0	34.4650	0	27.508	0	1329.929	0	-1e10	8	-1e10	8	-1E+10	1	-1E+10	1	-1E+10	1	-1E+10	1	-1E+10	1	-1E+10	1
4902554	42	C	04/02/2022	15:03	-136.006	49.475	0	1355.60	0	2.5180	0	34.4670	0	27.510	0	1339.681	0	-1e10	8	-1e10	8	-1E+10	1	-1E+10	1	-1E+10	1	-1E+10	1	-1E+10	1	-1E+10	1
4902554	42	C	04/02/2022	15:03	-136.006	49.475	0	1365.60	0	2.5080	0	34.4690	0	27.512	0	1349.532	0	-1e10	8	-1e10	8	-1E+10	1	-1E+10	1	-1E+10	1	-1E+10	1	-1E+10	1	-1E+10	1
4902554	42	C	04/02/2022	15:03	-136.006	49.475	0	1375.50	0	2.4980	0	34.4710	0	27.515	0	1359.283	0	-1e10	8	-1e10	8	-1E+10	1	-1E+10	1	-1E+10	1	-1E+10	1	-1E+10	1	-1E+10	1
4902554	42	C	04/02/2022	15:03	-136.006	49.475	0	1385.10	0	2.4840	0	34.4740	0	27.519	0	1368.739	0	-1e10	8	-1e10	8	-1E+10	1	-1E+10	1	-1E+10	1	-1E+10	1	-1E+10	1	-1E+10	1
4902554	42	C	04/02/2022	15:03	-136.006	49.475	0	1395.40	0	2.4760	0	34.4750	0	27.520	0	1378.884	0	-1e10	8	-1e10	8	-1E+10	1	-1E+10	1	-1E+10	1	-1E+10	1	-1E+10	1	-1E+10	1
4902554	42	C	04/02/2022	15:03	-136.006	49.475	0	1405.50	0	2.4610	0	34.4780	0	27.524	0	1388.831	0	-1e10	8	-1e10	8	-1E+10	1	-1E+10	1	-1E+10	1	-1E+10	1	-1E+10	1	-1E+10	1
4902554	42	C	04/02/2022	15:03	-136.006	49.475	0	1415.30	0	2.4460	0	34.4810	0	27.527	0	1398.482	0	-1e10	8	-1e10	8	-1E+10	1	-1E+10	1	-1E+10	1	-1E+10	1	-1E+10	1	-1E+10	1
4902554	42	C	04/02/2022	15:03	-136.006	49.475	0	1425.30	0	2.4290	0	34.4840	0	27.531	0	1408.330	0	-1e10	8	-1e10	8	-1E+10	1	-1E+10	1	-1E+10	1	-1E+10	1	-1E+10	1	-1E+10	1
4902554	42	C	04/02/2022	15:03	-136.006	49.475	0	1435.50	0	2.4090	0	34.4880	0	27.536	0	1418.374	0	-1e10	8	-1e10	8	-1E+10	1	-1E+10	1	-1E+10	1	-1E+10	1	-1E+10	1	-1E+10	1
4902554	42	C	04/02/2022	15:03	-136.006	49.475	0	1445.90	0	2.3970	0	34.4910	0	27.540	0	1428.615	0	-1e10	8	-1e10	8	-1E+10	1	-1E+10	1	-1E+10	1	-1E+10	1	-1E+10	1	-1E+10	1
4902554	42	C	04/02/2022	15:03	-136.006	49.475	0	1455.40	0	2.3880	0	34.4920	0	27.541	0	1437.969	0	-1e10	8	-1e10	8	-1E+10	1	-1E+10	1	-1E+10	1	-1E+10	1	-1E+10	1	-1E+10	1
4902554	42	C	04/02/2022	15:03	-136.006	49.475	0	1465.50	0	2.3770	0	34.4950	0	27.545	0	1447.914	0	-1e10	8	-1e10	8	-1E+10	1	-1E+10	1	-1E+10	1	-1E+10	1	-1E+10	1	-1E+10	1
4902554	42	C	04/02/2022	15:03	-136.006	49.475	0	1475.30	0	2.3680	0	34.4970	0	27.547	0	1457.562	0	-1e10	8	-1e10	8	-1E+10	1	-1E+10	1	-1E+10	1	-1E+10	1	-1E+10	1	-1E+10	1
4902554	42	C	04/02/2022	15:03	-136.006	49.475	0	1485.30	0	2.3570	0	34.4990	0	27.550	0	1467.407	0	-1e10	8	-1e10	8	-1E+10	1	-1E+10	1	-1E+10	1	-1E+10	1	-1E+10	1	-1E+10	1
4902554	42	C	04/02/2022	15:03	-136.006	49.475	0	1495.30	0	2.3460	0	34.5010	0	27.552	0	1477.252	0	-1e10	8	-1e10	8	-1E+10	1	-1E+10	1	-1E+10	1	-1E+10	1	-1E+10	1	-1E+10	1
4902554	42	C	04/02/2022	15:03	-136.006	49.475	0	1505.20	0	2.3390	0	34.5020	0	27.554	0	1486.998	0	-1e10	8	-1e10	8	-1E+10	1	-1E+10	1	-1E+10	1	-1E+10	1	-1E+10	1	-1E+10	1
4902554	42	C	04/02/2022	15:03	-136.006	49.475	0	1515.40	0	2.3340	0	34.5040	0	27.556	0	1497.038	0	-1e10	8	-1e10	8	-1E+10	1	-1E+10	1	-1E+10	1	-1E+10	1	-1E+10	1	-1E+10	1
4902554	42	C	04/02/2022	15:03	-136.006	49.475	0	1525.30	0	2.3270	0	34.5050	0	27.557	0	1506.783	0	-1e10	8	-1e10	8	-1E+10	1	-1E+10	1	-1E+10	1	-1E+10	1	-1E+10	1	-1E+10	1
4902554	42	C	04/02/2022	15:03	-136.006	49.475	0	1535.10	0	2.3190	0	34.5070	0	27.559	0	1516.429	0	-1e10	8	-1e10	8	-1E+10	1	-1E+10	1	-1E+10	1	-1E+10	1	-1E+10	1	-1E+10	1
4902554	42	C	04/02/2022	15:03	-136.006	49.475	0	1545.10	0	2.3110	0	34.5090	0	27.562	0	1526.271	0	-1e10	8	-1e10	8	-1E+10	1	-1E+10	1	-1E+10	1	-1E+10	1	-1E+10	1	-1E+10	1
4902554	42	C	04/02/2022	15:03	-136.006	49.475	0	1555.20	0	2.3060	0	34.5100	0	27.563	0	1536.212	0	-1e10	8	-1e10	8	-1E+10	1	-1E+10	1	-1E+10	1	-1E+10	1	-1E+10	1	-1E+10	1
4902554	42	C	04/02/2022	15:03	-136.006	49.475	0	1565.50	0	2.3000	0	34.5110	0	27.564	0	1546.348	0	-1e10	8	-1e10	8	-1E+10	1	-1E+10	1	-1E+10	1	-1E+10	1	-1E+10	1	-1E+10	1
4902554	42	C	04/02/2022	15:03	-136.006	49.475	0	1575.30	0	2.2890	0	34.5140	0	27.568	0	1555.992	0	-1e10	8	-1e10	8	-1E+10	1	-1E+10	1	-1E+10	1	-1E+10	1	-1E+10	1	-1E+10	1
4902554	42	C	04/02/2022	15:03	-136.006	49.475	0	1585.30	0	2.2830	0	34.5150	0	27.569	0	1565.833	0	-1e10	8	-1e10	8	-1E+10	1	-1E+10	1	-1E+10	1	-1E+10	1	-1E+10	1	-1E+10	1
4902554	42	C	04/02/2022	15:03	-136.006	49.475	0	1595.50	0	2.2780	0	34.5160	0	27.570	0	1575.870	0	-1e10	8	-1e10	8	-1E+10	1	-1E+10	1	-1E+10	1	-1E+10	1	-1E+10	1	-1E+10	1
4902554	42	C	04/02/2022	15:03	-136.006	49.475	0	1605.20	0	2.2670	0	34.5180	0	27.573	0	1585.414	0	-1e10	8	-1e10	8	-1E+10	1	-1E+10	1	-1E+10	1	-1E+10	1	-1E+10	1	-1E+10	1
4902554	42	C	04/02/2022	15:03	-136.006	49.475	0	1615.20	0	2.2610	0	34.5200	0	27.575	0	1595.253	0	-1e10	8	-1e10	8	-1E+10	1	-1E+10	1	-1E+10	1	-1E+10	1	-1E+10	1	-1E+10	1
4902554	42	C	04/02/2022	15:03	-136.006	49.475	0	1625.20	0	2.2530	0	34.5210	0	27.576	0	1605.092	0	-1e10	8	-1e10	8	-1E+10	1	-1E+10	1	-1E+10	1	-1E+10	1	-1E+10	1	-1E+10	1
4902554	42	C	04/02/2022	15:03	-136.006	49.475	0	1635.10	0	2.2500	0	34.5220	0	27.578	0	1614.831	0	-1e10	8	-1e10	8	-1E+10	1	-1E+10	1	-1E+10	1	-1E+10	1	-1E+10	1	-1E+10	1
4902554	42	C	04/02/2022	15:03	-136.006	49.475	0	1645.50	0	2.2380	0	34.5250	0	27.581	0	1625.063	0	-1e10	8	-1e10	8	-1E+10	1	-1E+10	1	-1E+10	1	-1E+10	1	-1E+10	1	-1E+10	1
4902554	42	C	04/02/2022	15:03	-136.006	49.475	0	1655.60	0	2.2260	0	34.5270	0	27.584	0	1634.998	0	-1e10	8	-1e10	8	-1E+10	1	-1E+10	1	-1E+10	1	-1E+10	1	-1E+10	1	-1E+10	1
4902554	42	C	04/02/2022	15:03	-136.006	49.475	0	1665.70	0	2.2170	0	34.5290	0	27.586	0	1644.933	0	-1e10	8	-1e10	8	-1E+10	1	-1E+10	1	-1E+10	1	-1E+10	1	-1E+10	1	-1E+10	1
4902554	42	C	04/02/2022	15:03	-136.006	49.475	0	1675.50	0	2.2060	0	34.5310	0	27.589	0	1654.573	0	-1e10	8	-1e10	8	-1E+10	1	-1E+10	1	-1E+10	1	-1E+10	1	-1E+10	1	-1E+10	1
4902554	42	C	04/02/2022	15:03	-136.006	49.475	0	1685.60	0	2.1900	0	34.5340	0	27.592	0	1664.507	0	-1e10	8	-1e10	8	-1E+10	1	-1E+10	1	-1E+10	1	-1E+10	1	-1E+10	1	-1E+10	1
4902554	42	C	04/02/2022	15:03	-136.006	49.475	0	1695.50	0	2.1800	0	34.5370	0	27.596	0	1674.244	0	-1e10	8	-1e10	8	-1E+10	1	-1E+10	1	-1E+10	1	-1E+10	1	-1E+10	1	-1E+10	1
4902554	42	C	04/02/2022	15:03	-136.006	49.475	0	1705.20	0	2.1700	0	34.5390	0	27.598	0	1683.784	0	-1e10	8	-1e10	8	-1E+10	1	-1E+10	1	-1E+10	1	-1E+10	1	-1E+10	1	-1E+10	1
4902554	42	C	04/02/2022	15:03	-136.006	49.475	0	1715.40	0	2.1550	0	34.5410	0	27.601	0	1693.815	0	-1e10	8	-1e10	8	-1E+10	1	-1E+10	1	-1E+10	1	-1E+10	1	-1E+10	1	-1E+10	1
4902554	42	C	04/02/2022	15:03	-136.006	49.475	0	1725.60	0	2.1400	0	34.5440	0	27.604	0	1703.846	0	-1e10	8	-1e10	8	-1E+10	1	-1E+10	1	-1E+10	1	-1E+10	1	-1E+10	1	-1E+10	1
4902554	42	C	04/02/2022	15:03	-136.006	49.475	0	1735.40	0	2.1280	0	34.5460	0	27.607	0	1713.483	0	-1e10	8	-1e10	8	-1E+10	1	-1E+10	1	-1E+10	1	-1E+10	1	-1E+10	1	-1E+10	1
4902554	42	C	04/02/2022	15:03	-136.006	49.475	0	1745.40	0	2.1190	0	34.5480	0	27.609	0	1723.316	0	-1e10	8	-1e10	8	-1E+10	1	-1E+10	1	-1E+10	1	-1E+10	1	-1E+10	1	-1E+10	1
4902554	42	C	04/02/2022	15:03	-136.006	49.475	0	1755.90	0	2.1050	0	34.5510	0	27.613	0	1733.640	0	-1e10	8	-1e10	8	-1E+10	1	-1E+10	1	-1E+10	1	-1E+10	1	-1E+10	1	-1E+10	1
4902554	42	C	04/02/2022	15:03	-136.006	49.475	0	1765.40	0	2.0980	0	34.5530	0	27.615	0	1742.981	0	-1e10	8	-1e10	8	-1E+10	1	-1E+10	1	-1E+10	1	-1E+10	1	-1E+10	1	-1E+10	1
4902554	42	C	04/02/2022	15:03	-136.006	49.475	0	1775.10	0	2.0940	0	34.5530	0	27.616	0	1752.518	0	-1e10	8	-1e10	8	-1E+10	1	-1E+10	1	-1E+10	1	-1E+10	1	-1E+10	1	-1E+10	1
4902554	42	C	04/02/2022	15:03	-136.006	49.475	0	1785.10	0	2.0900	0	34.5540	0	27.617	0	1762.349	0	-1e10	8	-1e10	8	-1E+10	1	-1E+10	1	-1E+10	1	-1E+10	1	-1E+10	1	-1E+10	1
4902554	42	C	04/02/2022	15:03	-136.006	49.475	0	1795.20	0	2.0810	0	34.5560	0	27.619	0	1772.278	0	-1e10	8	-1e10	8	-1E+10	1	-1E+10	1	-1E+10	1	-1E+10	1	-1E+10	1	-1E+10	1
4902554	42	C	04/02/2022	15:03	-136.006	49.475	0	1805.20	0	2.0730	0	34.5580	0	27.621	0	1782.109	0	-1e10	8	-1e10	8	-1E+10	1	-1E+10	1	-1E+10	1	-1E+10	1	-1E+10	1	-1E+10	1
4902554	42	C	04/02/2022	15:03	-136.006	49.475	0	1815.40	0	2.0680	0	34.5590	0	27.623	0	1792.135	0	-1e10	8	-1e10	8	-1E+10	1	-1E+10	1	-1E+10	1	-1E+10	1	-1E+10	1	-1E+10	1
4902554	42	C	04/02/2022	15:03	-136.006	49.475	0	1825.50	0	2.0590	0	34.5600	0	27.624	0	1802.063	0	-1e10	8	-1e10	8	-1E+10	1	-1E+10	1	-1E+10	1	-1E+10	1	-1E+10	1	-1E+10	1
4902554	42	C	04/02/2022	15:03	-136.006	49.475	0	1835.30	0	2.0510	0	34.5620	0	27.626	0	1811.695	0	-1e10	8	-1e10	8	-1E+10	1	-1E+10	1	-1E+10	1	-1E+10	1	-1E+10	1	-1E+10	1
4902554	42	C	04/02/2022	15:03	-136.006	49.475	0	1845.30	0	2.0420	0	34.5640	0	27.629	0	1821.524	0	-1e10	8	-1e10	8	-1E+10	1	-1E+10	1	-1E+10	1	-1E+10	1	-1E+10	1	-1E+10	1
4902554	42	C	04/02/2022	15:03	-136.006	49.475	0	1855.60	0	2.0360	0	34.5660	0	27.631	0	1831.647	0	-1e10	8	-1e10	8	-1E+10	1	-1E+10	1	-1E+10	1	-1E+10	1	-1E+10	1	-1E+10	1
4902554	42	C	04/02/2022	15:03	-136.006	49.475	0	1865.70	0	2.0300	0	34.5670	0	27.632	0	1841.573	0	-1e10	8	-1e10	8	-1E+10	1	-1E+10	1	-1E+10	1	-1E+10	1	-1E+10	1	-1E+10	1
4902554	42	C	04/02/2022	15:03	-136.006	49.475	0	1875.40	0	2.0190	0	34.5690	0	27.635	0	1851.105	0	-1e10	8	-1e10	8	-1E+10	1	-1E+10	1	-1E+10	1	-1E+10	1	-1E+10	1	-1E+10	1
4902554	42	C	04/02/2022	15:03	-136.006	49.475	0	1885.30	0	2.0130	0	34.5700	0	27.636	0	1860.834	0	-1e10	8	-1e10	8	-1E+10	1	-1E+10	1	-1E+10	1	-1E+10	1	-1E+10	1	-1E+10	1
4902554	42	C	04/02/2022	15:03	-136.006	49.475	0	1895.30	0	2.0100	0	34.5700	0	27.636	0	1870.660	0	-1e10	8	-1e10	8	-1E+10	1	-1E+10	1	-1E+10	1	-1E+10	1	-1E+10	1	-1E+10	1
4902554	42	C	04/02/2022	15:03	-136.006	49.475	0	1905.20	0	2.0030	0	34.5720	0	27.639	0	1880.387	0	-1e10	8	-1e10	8	-1E+10	1	-1E+10	1	-1E+10	1	-1E+10	1	-1E+10	1	-1E+10	1
4902554	42	C	04/02/2022	15:03	-136.006	49.475	0	1915.20	0	2.0010	0	34.5720	0	27.639	0	1890.213	0	-1e10	8	-1e10	8	-1E+10	1	-1E+10	1	-1E+10	1	-1E+10	1	-1E+10	1	-1E+10	1
4902554	42	C	04/02/2022	15:03	-136.006	49.475	0	1925.20	0	1.9940	0	34.5740	0	27.641	0	1900.038	0	-1e10	8	-1e10	8	-1E+10	1	-1E+10	1	-1E+10	1	-1E+10	1	-1E+10	1	-1E+10	1
4902554	42	C	04/02/2022	15:03	-136.006	49.475	0	1935.40	0	1.9860	0	34.5750	0	27.643	0	1910.059	0	-1e10	8	-1e10	8	-1E+10	1	-1E+10	1	-1E+10	1	-1E+10	1	-1E+10	1	-1E+10	1
4902554	42	C	04/02/2022	15:03	-136.006	49.475	0	1945.30	0	1.9810	0	34.5760	0	27.644	0	1919.785	0	-1e10	8	-1e10	8	-1E+10	1	-1E+10	1	-1E+10	1	-1E+10	1	-1E+10	1	-1E+10	1
4902554	42	C	04/02/2022	15:03	-136.006	49.475	0	1955.20	0	1.9780	0	34.5770	0	27.645	0	1929.510	0	-1e10	8	-1e10	8	-1E+10	1	-1E+10	1	-1E+10	1	-1E+10	1	-1E+10	1	-1E+10	1
4902554	42	C	04/02/2022	15:03	-136.006	49.475	0	1965.50	0	1.9720	0	34.5780	0	27.646	0	1939.628	0	-1e10	8	-1e10	8	-1E+10	1	-1E+10	1	-1E+10	1	-1E+10	1	-1E+10	1	-1E+10	1
4902554	42	C	04/02/2022	15:03	-136.006	49.475	0	1975.50	0	1.9660	0	34.5790	0	27.647	0	1949.450	0	-1e10	8	-1e10	8	-1E+10	1	-1E+10	1	-1E+10	1	-1E+10	1	-1E+10	1	-1E+10	1
4902554	42	C	04/02/2022	15:03	-136.006	49.475	0	1985.50	0	1.9620	0	34.5800	0	27.649	0	1959.272	0	-1e10	8	-1e10	8	-1E+10	1	-1E+10	1	-1E+10	1	-1E+10	1	-1E+10	1	-1E+10	1
4902554	42	C	04/02/2022	15:03	-136.006	49.475	0	1995.60	0	1.9590	0	34.5810	0	27.650	0	1969.192	0	-1e10	8	-1e10	8	-1E+10	1	-1E+10	1	-1E+10	1	-1E+10	1	-1E+10	1	-1E+10	1
4902554	42	C	04/02/2022	15:03	-136.006	49.475	0	2006.00	0	1.9520	0	34.5820	0	27.651	0	1979.407	0	-1e10	8	-1e10	8	-1E+10	1	-1E+10	1	-1E+10	1	-1E+10	1	-1E+10	1	-1E+10	1
4902554	42	C	04/02/2022	15:03	-136.006	49.475	0	2010.70	0	1.9490	0	34.5830	0	27.652	0	1984.022	0	-1e10	8	-1e10	8	-1E+10	1	-1E+10	1	-1E+10	1	-1E+10	1	-1E+10	1	-1E+10	1
4902554	42	C	04/02/2022	15:03	-136.006	49.475	0																										
4902554	43	C	04/12/2022	19:58	-135.891	49.457	0	1.40	0	6.9540	0	32.3420	0	25.332	0	1.388	0	-1e10	8	-1e10	8	-1E+10	1	-1E+10	1	-1E+10	1	-1E+10	1	-1E+10	1	-1E+10	1
4902554	43	C	04/12/2022	19:58	-135.891	49.457	0	2.10	0	6.9560	0	32.3380	0	25.328	0	2.082	0	-1e10	8	-1e10	8	-1E+10	1	-1E+10	1	-1E+10	1	-1E+10	1	-1E+10	1	-1E+10	1
4902554	43	C	04/12/2022	19:58	-135.891	49.457	0	3.00	0	6.9470	0	32.3450	0	25.335	0	2.974	0	-1e10	8	-1e10	8	-1E+10	1	-1E+10	1	-1E+10	1	-1E+10	1	-1E+10	1	-1E+10	1
4902554	43	C	04/12/2022	19:58	-135.891	49.457	0	4.00	0	6.9450	0	32.3470	0	25.337	0	3.966	0	-1e10	8	-1e10	8	-1E+10	1	-1E+10	1	-1E+10	1	-1E+10	1	-1E+10	1	-1E+10	1
4902554	43	C	04/12/2022	19:58	-135.891	49.457	0	5.00	0	6.9420	0	32.3500	0	25.340	0	4.957	0	-1e10	8	-1e10	8	-1E+10	1	-1E+10	1	-1E+10	1	-1E+10	1	-1E+10	1	-1E+10	1
4902554	43	C	04/12/2022	19:58	-135.891	49.457	0	5.60	0	6.9410	0	32.3510	0	25.341	0	5.552	0	-1e10	1	-1e10	1	-1E+10	1	-1E+10	1	-1E+10	1	-1E+10	1	-1E+10	1	-1E+10	1
4902554	43	C	04/12/2022	19:58	-135.891	49.457	0	5.90	0	6.9415	0	32.3508	0	25.340	0	5.850	0	-1e10	8	-1e10	8	-1E+10	1	-1E+10	1	-1E+10	1	-1E+10	1	-1E+10	1	-1E+10	1
4902554	43	C	04/12/2022	19:58	-135.891	49.457	0	6.90	0	6.9430	0	32.3500	0	25.340	0	6.841	0	-1e10	8	-1e10	8	-1E+10	1	-1E+10	1	-1E+10	1	-1E+10	1	-1E+10	1	-1E+10	1
4902554	43	C	04/12/2022	19:58	-135.891	49.457	0	8.30	0	6.9440	0	32.3500	0	25.340	0	8.229	0	-1e10	8	-1e10	8	-1E+10	1	-1E+10	1	-1E+10	1	-1E+10	1	-1E+10	1	-1E+10	1
4902554	43	C	04/12/2022	19:58	-135.891	49.457	0	9.20	0	6.9440	0	32.3500	0	25.340	0	9.121	0	-1e10	8	-1e10	8	-1E+10	1	-1E+10	1	-1E+10	1	-1E+10	1	-1E+10	1	-1E+10	1
4902554	43	C	04/12/2022	19:58	-135.891	49.457	0	10.20	0	6.9450	0	32.3500	0	25.339	0	10.113	0	-1e10	8	-1e10	8	-1E+10	1	-1E+10	1	-1E+10	1	-1E+10	1	-1E+10	1	-1E+10	1
4902554	43	C	04/12/2022	19:58	-135.891	49.457	0	11.00	0	6.9450	0	32.3500	0	25.339	0	10.906	0	-1e10	1	-1e10	1	-1E+10	1	-1E+10	1	-1E+10	1	-1E+10	1	-1E+10	1	-1E+10	1
4902554	43	C	04/12/2022	19:58	-135.891	49.457	0	11.10	0	6.9445	0	32.3501	0	25.340	0	11.005	0	-1e10	8	-1e10	8	-1E+10	1	-1E+10	1	-1E+10	1	-1E+10	1	-1E+10	1	-1E+10	1
4902554	43	C	04/12/2022	19:58	-135.891	49.457	0	12.00	0	6.9400	0	32.3510	0	25.341	0	11.897	0	-1e10	8	-1e10	8	-1E+10	1	-1E+10	1	-1E+10	1	-1E+10	1	-1E+10	1	-1E+10	1
4902554	43	C	04/12/2022	19:58	-135.891	49.457	0	13.00	0	6.9410	0	32.3510	0	25.341	0	12.889	0	-1e10	8	-1e10	8	-1E+10	1	-1E+10	1	-1E+10	1	-1E+10	1	-1E+10	1	-1E+10	1
4902554	43	C	04/12/2022	19:58	-135.891	49.457	0	13.90	0	6.9410	0	32.3510	0	25.341	0	13.781	0	-1e10	8	-1e10	8	-1E+10	1	-1E+10	1	-1E+10	1	-1E+10	1	-1E+10	1	-1E+10	1
4902554	43	C	04/12/2022	19:58	-135.891	49.457	0	15.00	0	6.9410	0	32.3510	0	25.341	0	14.872	0	-1e10	8	-1e10	8	-1E+10	1	-1E+10	1	-1E+10	1	-1E+10	1	-1E+10	1	-1E+10	1
4902554	43	C	04/12/2022	19:58	-135.891	49.457	0	15.90	0	6.9410	0	32.3500	0	25.340	0	15.764	0	-1e10	8	-1e10	8	-1E+10	1	-1E+10	1	-1E+10	1	-1E+10	1	-1E+10	1	-1E+10	1
4902554	43	C	04/12/2022	19:58	-135.891	49.457	0	17.10	0	6.9410	0	32.3510	0	25.341	0	16.954	0	-1e10	8	-1e10	8	-1E+10	1	-1E+10	1	-1E+10	1	-1E+10	1	-1E+10	1	-1E+10	1
4902554	43	C	04/12/2022	19:58	-135.891	49.457	0	18.10	0	6.9410	0	32.3510	0	25.341	0	17.945	0	-1e10	8	-1e10	8	-1E+10	1	-1E+10	1	-1E+10	1	-1E+10	1	-1E+10	1	-1E+10	1
4902554	43	C	04/12/2022	19:58	-135.891	49.457	0	19.00	0	6.9410	0	32.3500	0	25.340	0	18.837	0	-1e10	8	-1e10	8	-1E+10	1	-1E+10	1	-1E+10	1	-1E+10	1	-1E+10	1	-1E+10	1
4902554	43	C	04/12/2022	19:58	-135.891	49.457	0	20.00	0	6.9420	0	32.3500	0	25.340	0	19.829	0	-1e10	8	-1e10	8	-1E+10	1	-1E+10	1	-1E+10	1	-1E+10	1	-1E+10	1	-1E+10	1
4902554	43	C	04/12/2022	19:58	-135.891	49.457	0	20.90	0	6.9420	0	32.3500	0	25.340	0	20.721	0	-1e10	8	-1e10	8	-1E+10	1	-1E+10	1	-1E+10	1	-1E+10	1	-1E+10	1	-1E+10	1
4902554	43	C	04/12/2022	19:58	-135.891	49.457	0	22.10	0	6.9420	0	32.3500	0	25.340	0	21.910	0	-1e10	8	-1e10	8	-1E+10	1	-1E+10	1	-1E+10	1	-1E+10	1	-1E+10	1	-1E+10	1
4902554	43	C	04/12/2022	19:58	-135.891	49.457	0	23.10	0	6.9420	0	32.3510	0	25.341	0	22.902	0	-1e10	8	-1e10	8	-1E+10	1	-1E+10	1	-1E+10	1	-1E+10	1	-1E+10	1	-1E+10	1
4902554	43	C	04/12/2022	19:58	-135.891	49.457	0	24.00	0	6.9420	0	32.3500	0	25.340	0	23.794	0	-1e10	8	-1e10	8	-1E+10	1	-1E+10	1	-1E+10	1	-1E+10	1	-1E+10	1	-1E+10	1
4902554	43	C	04/12/2022	19:58	-135.891	49.457	0	25.10	0	6.9420	0	32.3510	0	25.341	0	24.885	0	-1e10	8	-1e10	8	-1E+10	1	-1E+10	1	-1E+10	1	-1E+10	1	-1E+10	1	-1E+10	1
4902554	43	C	04/12/2022	19:58	-135.891	49.457	0	25.80	0	6.9410	0	32.3510	0	25.341	0	25.578	0	-1e10	8	-1e10	8	-1E+10	1	-1E+10	1	-1E+10	1	-1E+10	1	-1E+10	1	-1E+10	1
4902554	43	C	04/12/2022	19:58	-135.891	49.457	0	26.80	0	6.9410	0	32.3500	0	25.340	0	26.570	0	-1e10	8	-1e10	8	-1E+10	1	-1E+10	1	-1E+10	1	-1E+10	1	-1E+10	1	-1E+10	1
4902554	43	C	04/12/2022	19:58	-135.891	49.457	0	27.90	0	6.9430	0	32.3500	0	25.340	0	27.660	0	-1e10	8	-1e10	8	-1E+10	1	-1E+10	1	-1E+10	1	-1E+10	1	-1E+10	1	-1E+10	1
4902554	43	C	04/12/2022	19:58	-135.891	49.457	0	28.90	0	6.9420	0	32.3500	0	25.340	0	28.652	0	-1e10	8	-1e10	8	-1E+10	1	-1E+10	1	-1E+10	1	-1E+10	1	-1E+10	1	-1E+10	1
4902554	43	C	04/12/2022	19:58	-135.891	49.457	0	30.00	0	6.9420	0	32.3510	0	25.341	0	29.742	0	-1e10	8	-1e10	8	-1E+10	1	-1E+10	1	-1E+10	1	-1E+10	1	-1E+10	1	-1E+10	1
4902554	43	C	04/12/2022	19:58	-135.891	49.457	0	31.00	0	6.9420	0	32.3500	0	25.340	0	30.733	0	-1e10	8	-1e10	8	-1E+10	1	-1E+10	1	-1E+10	1	-1E+10	1	-1E+10	1	-1E+10	1
4902554	43	C	04/12/2022	19:58	-135.891	49.457	0	32.00	0	6.9430	0	32.3500	0	25.340	0	31.725	0	-1e10	8	-1e10	8	-1E+10	1	-1E+10	1	-1E+10	1	-1E+10	1	-1E+10	1	-1E+10	1
4902554	43	C	04/12/2022	19:58	-135.891	49.457	0	32.90	0	6.9420	0	32.3500	0	25.340	0	32.617	0	-1e10	8	-1e10	8	-1E+10	1	-1E+10	1	-1E+10	1	-1E+10	1	-1E+10	1	-1E+10	1
4902554	43	C	04/12/2022	19:58	-135.891	49.457	0	33.90	0	6.9420	0	32.3510	0	25.341	0	33.608	0	-1e10	8	-1e10	8	-1E+10	1	-1E+10	1	-1E+10	1	-1E+10	1	-1E+10	1	-1E+10	1
4902554	43	C	04/12/2022	19:58	-135.891	49.457	0	34.70	0	6.9430	0	32.3500	0	25.340	0	34.401	0	-1e10	8	-1e10	8	-1E+10	1	-1E+10	1	-1E+10	1	-1E+10	1	-1E+10	1	-1E+10	1
4902554	43	C	04/12/2022	19:58	-135.891	49.457	0	35.90	0	6.9430	0	32.3500	0	25.340	0	35.591	0	-1e10	8	-1e10	8	-1E+10	1	-1E+10	1	-1E+10	1	-1E+10	1	-1E+10	1	-1E+10	1
4902554	43	C	04/12/2022	19:58	-135.891	49.457	0	36.90	0	6.9430	0	32.3500	0	25.340	0	36.582	0	-1e10	8	-1e10	8	-1E+10	1	-1E+10	1	-1E+10	1	-1E+10	1	-1E+10	1	-1E+10	1
4902554	43	C	04/12/2022	19:58	-135.891	49.457	0	38.10	0	6.9440	0	32.3500	0	25.340	0	37.772	0	-1e10	8	-1e10	8	-1E+10	1	-1E+10	1	-1E+10	1	-1E+10	1	-1E+10	1	-1E+10	1
4902554	43	C	04/12/2022	19:58	-135.891	49.457	0	39.00	0	6.9440	0	32.3500	0	25.340	0	38.664	0	-1e10	8	-1e10	8	-1E+10	1	-1E+10	1	-1E+10	1	-1E+10	1	-1E+10	1	-1E+10	1
4902554	43	C	04/12/2022	19:58	-135.891	49.457	0	40.00	0	6.9440	0	32.3500	0	25.340	0	39.655	0	-1e10	8	-1e10	8	-1E+10	1	-1E+10	1	-1E+10	1	-1E+10	1	-1E+10	1	-1E+10	1
4902554	43	C	04/12/2022	19:58	-135.891	49.457	0	40.90	0	6.9440	0	32.3500	0	25.340	0	40.547	0	-1e10	8	-1e10	8	-1E+10	1	-1E+10	1	-1E+10	1	-1E+10	1	-1E+10	1	-1E+10	1
4902554	43	C	04/12/2022	19:58	-135.891	49.457	0	41.90	0	6.9430	0	32.3500	0	25.340	0	41.539	0	-1e10	8	-1e10	8	-1E+10	1	-1E+10	1	-1E+10	1	-1E+10	1	-1E+10	1	-1E+10	1
4902554	43	C	04/12/2022	19:58	-135.891	49.457	0	42.80	0	6.9430	0	32.3500	0	25.340	0	42.431	0	-1e10	8	-1e10	8	-1E+10	1	-1E+10	1	-1E+10	1	-1E+10	1	-1E+10	1	-1E+10	1
4902554	43	C	04/12/2022	19:58	-135.891	49.457	0	43.80	0	6.9430	0	32.3500	0	25.340	0	43.422	0	-1e10	8	-1e10	8	-1E+10	1	-1E+10	1	-1E+10	1	-1E+10	1	-1E+10	1	-1E+10	1
4902554	43	C	04/12/2022	19:58	-135.891	49.457	0	45.10	0	6.9440	0	32.3500	0	25.340	0	44.711	0	-1e10	8	-1e10	8	-1E+10	1	-1E+10	1	-1E+10	1	-1E+10	1	-1E+10	1	-1E+10	1
4902554	43	C	04/12/2022	19:58	-135.891	49.457	0	46.10	0	6.9440	0	32.3500	0	25.340	0	45.702	0	-1e10	8	-1e10	8	-1E+10	1	-1E+10	1	-1E+10	1	-1E+10	1	-1E+10	1	-1E+10	1
4902554	43	C	04/12/2022	19:58	-135.891	49.457	0	47.00	0	6.9440	0	32.3500	0	25.340	0	46.594	0	-1e10	8	-1e10	8	-1E+10	1	-1E+10	1	-1E+10	1	-1E+10	1	-1E+10	1	-1E+10	1
4902554	43	C	04/12/2022	19:58	-135.891	49.457	0	48.10	0	6.9440	0	32.3500	0	25.340	0	47.684	0	-1e10	8	-1e10	8	-1E+10	1	-1E+10	1	-1E+10	1	-1E+10	1	-1E+10	1	-1E+10	1
4902554	43	C	04/12/2022	19:58	-135.891	49.457	0	48.80	0	6.9440	0	32.3500	0	25.340	0	48.378	0	-1e10	8	-1e10	8	-1E+10	1	-1E+10	1	-1E+10	1	-1E+10	1	-1E+10	1	-1E+10	1
4902554	43	C	04/12/2022	19:58	-135.891	49.457	0	49.80	0	6.9440	0	32.3500	0	25.340	0	49.370	0	-1e10	8	-1e10	8	-1E+10	1	-1E+10	1	-1E+10	1	-1E+10	1	-1E+10	1	-1E+10	1
4902554	43	C	04/12/2022	19:58	-135.891	49.457	0	50.90	0	6.9430	0	32.3510	0	25.341	0	50.460	0	-1e10	8	-1e10	8	-1E+10	1	-1E+10	1	-1E+10	1	-1E+10	1	-1E+10	1	-1E+10	1
4902554	43	C	04/12/2022	19:58	-135.891	49.457	0	51.90	0	6.9430	0	32.3510	0	25.341	0	51.451	0	-1e10	8	-1e10	8	-1E+10	1	-1E+10	1	-1E+10	1	-1E+10	1	-1E+10	1	-1E+10	1
4902554	43	C	04/12/2022	19:58	-135.891	49.457	0	53.10	0	6.9430	0	32.3510	0	25.341	0	52.641	0	-1e10	8	-1e10	8	-1E+10	1	-1E+10	1	-1E+10	1	-1E+10	1	-1E+10	1	-1E+10	1
4902554	43	C	04/12/2022	19:58	-135.891	49.457	0	54.00	0	6.9430	0	32.3500	0	25.340	0	53.533	0	-1e10	8	-1e10	8	-1E+10	1	-1E+10	1	-1E+10	1	-1E+10	1	-1E+10	1	-1E+10	1
4902554	43	C	04/12/2022	19:58	-135.891	49.457	0	55.10	0	6.9430	0	32.3510	0	25.341	0	54.623	0	-1e10	8	-1e10	8	-1E+10	1	-1E+10	1	-1E+10	1	-1E+10	1	-1E+10	1	-1E+10	1
4902554	43	C	04/12/2022	19:58	-135.891	49.457	0	55.80	0	6.9430	0	32.3510	0	25.341	0	55.317	0	-1e10	8	-1e10	8	-1E+10	1	-1E+10	1	-1E+10	1	-1E+10	1	-1E+10	1	-1E+10	1
4902554	43	C	04/12/2022	19:58	-135.891	49.457	0	56.80	0	6.9420	0	32.3510	0	25.341	0	56.308	0	-1e10	8	-1e10	8	-1E+10	1	-1E+10	1	-1E+10	1	-1E+10	1	-1E+10	1	-1E+10	1
4902554	43	C	04/12/2022	19:58	-135.891	49.457	0	57.90	0	6.9410	0	32.3520	0	25.342	0	57.398	0	-1e10	8	-1e10	8	-1E+10	1	-1E+10	1	-1E+10	1	-1E+10	1	-1E+10	1	-1E+10	1
4902554	43	C	04/12/2022	19:58	-135.891	49.457	0	58.80	0	6.9410	0	32.3520	0	25.342	0	58.290	0	-1e10	8	-1e10	8	-1E+10	1	-1E+10	1	-1E+10	1	-1E+10	1	-1E+10	1	-1E+10	1
4902554	43	C	04/12/2022	19:58	-135.891	49.457	0	59.80	0	6.9420	0	32.3510	0	25.341	0	59.282	0	-1e10	8	-1e10	8	-1E+10	1	-1E+10	1	-1E+10	1	-1E+10	1	-1E+10	1	-1E+10	1
4902554	43	C	04/12/2022	19:58	-135.891	49.457	0	60.80	0	6.9410	0	32.3510	0	25.341	0	60.273	0	-1e10	8	-1e10	8	-1E+10	1	-1E+10	1	-1E+10	1	-1E+10	1	-1E+10	1	-1E+10	1
4902554	43	C	04/12/2022	19:58	-135.891	49.457	0	62.10	0	6.9420	0	32.3510	0	25.341	0	61.561	0	-1e10	8	-1e10	8	-1E+10	1	-1E+10	1	-1E+10	1	-1E+10	1	-1E+10	1	-1E+10	1
4902554	43	C	04/12/2022	19:58	-135.891	49.457	0	62.90	0	6.9430	0	32.3510	0	25.341	0	62.354	0	-1e10	8	-1e10	8	-1E+10	1	-1E+10	1	-1E+10	1	-1E+10	1	-1E+10	1	-1E+10	1
4902554	43	C	04/12/2022	19:58	-135.891	49.457	0	63.80	0	6.9420	0	32.3510	0	25.341	0	63.246	0	-1e10	8	-1e10	8	-1E+10	1	-1E+10	1	-1E+10	1	-1E+10	1	-1E+10	1	-1E+10	1
4902554	43	C	04/12/2022	19:58	-135.891	49.457	0	65.00	0	6.9430	0	32.3500	0	25.340	0	64.436	0	-1e10	8	-1e10	8	-1E+10	1	-1E+10	1	-1E+10	1	-1E+10	1	-1E+10	1	-1E+10	1
4902554	43	C	04/12/2022	19:58	-135.891	49.457	0	66.10	0	6.9430	0	32.3510	0	25.341	0	65.526	0	-1e10	8	-1e10	8	-1E+10	1	-1E+10	1	-1E+10	1	-1E+10	1	-1E+10	1	-1E+10	1
4902554	43	C	04/12/2022	19:58	-135.891	49.457	0	67.00	0	6.9430	0	32.3510	0	25.341	0	66.418	0	-1e10	8	-1e10	8	-1E+10	1	-1E+10	1	-1E+10	1	-1E+10	1	-1E+10	1	-1E+10	1
4902554	43	C	04/12/2022	19:58	-135.891	49.457	0	67.80	0	6.9430	0	32.3510	0	25.341	0	67.211	0	-1e10	8	-1e10	8	-1E+10	1	-1E+10	1	-1E+10	1	-1E+10	1	-1E+10	1	-1E+10	1
4902554	43	C	04/12/2022	19:58	-135.891	49.457	0	68.90	0	6.9420	0	32.3510	0	25.341	0	68.301	0	-1e10	8	-1e10	8	-1E+10	1	-1E+10	1	-1E+10	1	-1E+10	1	-1E+10	1	-1E+10	1
4902554	43	C	04/12/2022	19:58	-135.891	49.457	0	69.90	0	6.9400	0	32.3520	0	25.342	0	69.292	0	-1e10	8	-1e10	8	-1E+10	1	-1E+10	1	-1E+10	1	-1E+10	1	-1E+10	1	-1E+10	1
4902554	43	C	04/12/2022	19:58	-135.891	49.457	0	70.80	0	6.9400	0	32.3520	0	25.342	0	70.184	0	-1e10	8	-1e10	8	-1E+10	1	-1E+10	1	-1E+10	1	-1E+10	1	-1E+10	1	-1E+10	1
4902554	43	C	04/12/2022	19:58	-135.891	49.457	0	71.80	0	6.9420	0	32.3510	0	25.341	0	71.176	0	-1e10	8	-1e10	8	-1E+10	1	-1E+10	1	-1E+10	1	-1E+10	1	-1E+10	1	-1E+10	1
4902554	43	C	04/12/2022	19:58	-135.891	49.457	0	73.10	0	6.9410	0	32.3520	0	25.342	0	72.464	0	-1e10	8	-1e10	8	-1E+10	1	-1E+10	1	-1E+10	1	-1E+10	1	-1E+10	1	-1E+10	1
4902554	43	C	04/12/2022	19:58	-135.891	49.457	0	74.20	0	6.9420	0	32.3510	0	25.341	0	73.554	0	-1e10	8	-1e10	8	-1E+10	1	-1E+10	1	-1E+10	1	-1E+10	1	-1E+10	1	-1E+10	1
4902554	43	C	04/12/2022	19:58	-135.891	49.457	0	75.00	0	6.9420	0	32.3510	0	25.341	0	74.347	0	-1e10	8	-1e10	8	-1E+10	1	-1E+10	1	-1E+10	1	-1E+10	1	-1E+10	1	-1E+10	1
4902554	43	C	04/12/2022	19:58	-135.891	49.457	0	75.90	0	6.9400	0	32.3520	0	25.342	0	75.239	0	-1e10	8	-1e10	8	-1E+10	1	-1E+10	1	-1E+10	1	-1E+10	1	-1E+10	1	-1E+10	1
4902554	43	C	04/12/2022	19:58	-135.891	49.457	0	77.20	0	6.9350	0	32.3540	0	25.345	0	76.528	0	-1e10	8	-1e10	8	-1E+10	1	-1E+10	1	-1E+10	1	-1E+10	1	-1E+10	1	-1E+10	1
4902554	43	C	04/12/2022	19:58	-135.891	49.457	0	77.80	0	6.9370	0	32.3530	0	25.344	0	77.122	0	-1e10	8	-1e10	8	-1E+10	1	-1E+10	1	-1E+10	1	-1E+10	1	-1E+10	1	-1E+10	1
4902554	43	C	04/12/2022	19:58	-135.891	49.457	0	79.10	0	6.9350	0	32.3530	0	25.344	0	78.411	0	-1e10	8	-1e10	8	-1E+10	1	-1E+10	1	-1E+10	1	-1E+10	1	-1E+10	1	-1E+10	1
4902554	43	C	04/12/2022	19:58	-135.891	49.457	0	80.20	0	6.9350	0	32.3540	0	25.345	0	79.501	0	-1e10	8	-1e10	8	-1E+10	1	-1E+10	1	-1E+10	1	-1E+10	1	-1E+10	1	-1E+10	1
4902554	43	C	04/12/2022	19:58	-135.891	49.457	0	80.80	0	6.9350	0	32.3530	0	25.344	0	80.096	0	-1e10	8	-1e10	8	-1E+10	1	-1E+10	1	-1E+10	1	-1E+10	1	-1E+10	1	-1E+10	1
4902554	43	C	04/12/2022	19:58	-135.891	49.457	0	82.10	0	6.9210	0	32.3590	0	25.351	0	81.384	0	-1e10	8	-1e10	8	-1E+10	1	-1E+10	1	-1E+10	1	-1E+10	1	-1E+10	1	-1E+10	1
4902554	43	C	04/12/2022	19:58	-135.891	49.457	0	83.00	0	6.9160	0	32.3590	0	25.351	0	82.276	0	-1e10	8	-1e10	8	-1E+10	1	-1E+10	1	-1E+10	1	-1E+10	1	-1E+10	1	-1E+10	1
4902554	43	C	04/12/2022	19:58	-135.891	49.457	0	84.10	0	6.9060	0	32.3650	0	25.357	0	83.366	0	-1e10	8	-1e10	8	-1E+10	1	-1E+10	1	-1E+10	1	-1E+10	1	-1E+10	1	-1E+10	1
4902554	43	C	04/12/2022	19:58	-135.891	49.457	0	84.90	0	6.9020	0	32.3660	0	25.359	0	84.159	0	-1e10	8	-1e10	8	-1E+10	1	-1E+10	1	-1E+10	1	-1E+10	1	-1E+10	1	-1E+10	1
4902554	43	C	04/12/2022	19:58	-135.891	49.457	0	86.10	0	6.8970	0	32.3690	0	25.362	0	85.348	0	-1e10	8	-1e10	8	-1E+10	1	-1E+10	1	-1E+10	1	-1E+10	1	-1E+10	1	-1E+10	1
4902554	43	C	04/12/2022	19:58	-135.891	49.457	0	86.90	0	6.8960	0	32.3700	0	25.363	0	86.141	0	-1e10	8	-1e10	8	-1E+10	1	-1E+10	1	-1E+10	1	-1E+10	1	-1E+10	1	-1E+10	1
4902554	43	C	04/12/2022	19:58	-135.891	49.457	0	88.00	0	6.8890	0	32.3740	0	25.367	0	87.231	0	-1e10	8	-1e10	8	-1E+10	1	-1E+10	1	-1E+10	1	-1E+10	1	-1E+10	1	-1E+10	1
4902554	43	C	04/12/2022	19:58	-135.891	49.457	0	89.20	0	6.8870	0	32.3750	0	25.368	0	88.421	0	-1e10	8	-1e10	8	-1E+10	1	-1E+10	1	-1E+10	1	-1E+10	1	-1E+10	1	-1E+10	1
4902554	43	C	04/12/2022	19:58	-135.891	49.457	0	89.90	0	6.8840	0	32.3750	0	25.368	0	89.114	0	-1e10	8	-1e10	8	-1E+10	1	-1E+10	1	-1E+10	1	-1E+10	1	-1E+10	1	-1E+10	1
4902554	43	C	04/12/2022	19:58	-135.891	49.457	0	91.00	0	6.8830	0	32.3750	0	25.368	0	90.204	0	-1e10	8	-1e10	8	-1E+10	1	-1E+10	1	-1E+10	1	-1E+10	1	-1E+10	1	-1E+10	1
4902554	43	C	04/12/2022	19:58	-135.891	49.457	0	92.00	0	6.8800	0	32.3750	0	25.369	0	91.195	0	-1e10	8	-1e10	8	-1E+10	1	-1E+10	1	-1E+10	1	-1E+10	1	-1E+10	1	-1E+10	1
4902554	43	C	04/12/2022	19:58	-135.891	49.457	0	93.10	0	6.8660	0	32.3800	0	25.374	0	92.286	0	-1e10	8	-1e10	8	-1E+10	1	-1E+10	1	-1E+10	1	-1E+10	1	-1E+10	1	-1E+10	1
4902554	43	C	04/12/2022	19:58	-135.891	49.457	0	94.10	0	6.8590	0	32.3810	0	25.376	0	93.277	0	-1e10	8	-1e10	8	-1E+10	1	-1E+10	1	-1E+10	1	-1E+10	1	-1E+10	1	-1E+10	1
4902554	43	C	04/12/2022	19:58	-135.891	49.457	0	94.90	0	6.8480	0	32.3850	0	25.381	0	94.069	0	-1e10	8	-1e10	8	-1E+10	1	-1E+10	1	-1E+10	1	-1E+10	1	-1E+10	1	-1E+10	1
4902554	43	C	04/12/2022	19:58	-135.891	49.457	0	95.80	0	6.7960	0	32.4080	0	25.406	0	94.961	0	-1e10	8	-1e10	8	-1E+10	1	-1E+10	1	-1E+10	1	-1E+10	1	-1E+10	1	-1E+10	1
4902554	43	C	04/12/2022	19:58	-135.891	49.457	0	97.10	0	6.7620	0	32.4260	0	25.424	0	96.250	0	-1e10	8	-1e10	8	-1E+10	1	-1E+10	1	-1E+10	1	-1E+10	1	-1E+10	1	-1E+10	1
4902554	43	C	04/12/2022	19:58	-135.891	49.457	0	98.00	0	6.7680	0	32.4220	0	25.420	0	97.142	0	-1e10	8	-1e10	8	-1E+10	1	-1E+10	1	-1E+10	1	-1E+10	1	-1E+10	1	-1E+10	1
4902554	43	C	04/12/2022	19:58	-135.891	49.457	0	98.90	0	6.7540	0	32.4300	0	25.429	0	98.034	0	-1e10	8	-1e10	8	-1E+10	1	-1E+10	1	-1E+10	1	-1E+10	1	-1E+10	1	-1E+10	1
4902554	43	C	04/12/2022	19:58	-135.891	49.457	0	99.80	0	6.7330	0	32.4410	0	25.440	0	98.925	0	-1e10	8	-1e10	8	-1E+10	1	-1E+10	1	-1E+10	1	-1E+10	1	-1E+10	1	-1E+10	1
4902554	43	C	04/12/2022	19:58	-135.891	49.457	0	101.10	0	6.7090	0	32.4550	0	25.454	0	100.214	0	-1e10	8	-1e10	8	-1E+10	1	-1E+10	1	-1E+10	1	-1E+10	1	-1E+10	1	-1E+10	1
4902554	43	C	04/12/2022	19:58	-135.891	49.457	0	102.30	0	6.6820	0	32.4720	0	25.471	0	101.403	0	-1e10	8	-1e10	8	-1E+10	1	-1E+10	1	-1E+10	1	-1E+10	1	-1E+10	1	-1E+10	1
4902554	43	C	04/12/2022	19:58	-135.891	49.457	0	103.00	0	6.6730	0	32.4780	0	25.477	0	102.097	0	-1e10	8	-1e10	8	-1E+10	1	-1E+10	1	-1E+10	1	-1E+10	1	-1E+10	1	-1E+10	1
4902554	43	C	04/12/2022	19:58	-135.891	49.457	0	104.00	0	6.6680	0	32.4800	0	25.479	0	103.088	0	-1e10	8	-1e10	8	-1E+10	1	-1E+10	1	-1E+10	1	-1E+10	1	-1E+10	1	-1E+10	1
4902554	43	C	04/12/2022	19:58	-135.891	49.457	0	105.00	0	6.6650	0	32.4820	0	25.481	0	104.079	0	-1e10	8	-1e10	8	-1E+10	1	-1E+10	1	-1E+10	1	-1E+10	1	-1E+10	1	-1E+10	1
4902554	43	C	04/12/2022	19:58	-135.891	49.457	0	106.10	0	6.6350	0	32.4980	0	25.498	0	105.169	0	-1e10	8	-1e10	8	-1E+10	1	-1E+10	1	-1E+10	1	-1E+10	1	-1E+10	1	-1E+10	1
4902554	43	C	04/12/2022	19:58	-135.891	49.457	0	107.00	0	6.5910	0	32.5300	0	25.528	0	106.060	0	-1e10	8	-1e10	8	-1E+10	1	-1E+10	1	-1E+10	1	-1E+10	1	-1E+10	1	-1E+10	1
4902554	43	C	04/12/2022	19:58	-135.891	49.457	0	108.10	0	6.5550	0	32.5500	0	25.549	0	107.151	0	-1e10	8	-1e10	8	-1E+10	1	-1E+10	1	-1E+10	1	-1E+10	1	-1E+10	1	-1E+10	1
4902554	43	C	04/12/2022	19:58	-135.891	49.457	0	108.80	0	6.5480	0	32.5530	0	25.552	0	107.844	0	-1e10	8	-1e10	8	-1E+10	1	-1E+10	1	-1E+10	1	-1E+10	1	-1E+10	1	-1E+10	1
4902554	43	C	04/12/2022	19:58	-135.891	49.457	0	109.80	0	6.5250	0	32.5670	0	25.566	0	108.835	0	-1e10	8	-1e10	8	-1E+10	1	-1E+10	1	-1E+10	1	-1E+10	1	-1E+10	1	-1E+10	1
4902554	43	C	04/12/2022	19:58	-135.891	49.457	0	111.00	0	6.5170	0	32.5710	0	25.570	0	110.024	0	-1e10	8	-1e10	8	-1E+10	1	-1E+10	1	-1E+10	1	-1E+10	1	-1E+10	1	-1E+10	1
4902554	43	C	04/12/2022	19:58	-135.891	49.457	0	112.20	0	6.4940	0	32.5830	0	25.583	0	111.213	0	-1e10	8	-1e10	8	-1E+10	1	-1E+10	1	-1E+10	1	-1E+10	1	-1E+10	1	-1E+10	1
4902554	43	C	04/12/2022	19:58	-135.891	49.457	0	113.10	0	6.4330	0	32.6210	0	25.620	0	112.105	0	-1e10	8	-1e10	8	-1E+10	1	-1E+10	1	-1E+10	1	-1E+10	1	-1E+10	1	-1E+10	1
4902554	43	C	04/12/2022	19:58	-135.891	49.457	0	113.80	0	6.3990	0	32.6440	0	25.643	0	112.799	0	-1e10	8	-1e10	8	-1E+10	1	-1E+10	1	-1E+10	1	-1E+10	1	-1E+10	1	-1E+10	1
4902554	43	C	04/12/2022	19:58	-135.891	49.457	0	114.90	0	6.3710	0	32.6610	0	25.660	0	113.889	0	-1e10	8	-1e10	8	-1E+10	1	-1E+10	1	-1E+10	1	-1E+10	1	-1E+10	1	-1E+10	1
4902554	43	C	04/12/2022	19:58	-135.891	49.457	0	116.10	0	6.3320	0	32.6870	0	25.685	0	115.078	0	-1e10	8	-1e10	8	-1E+10	1	-1E+10	1	-1E+10	1	-1E+10	1	-1E+10	1	-1E+10	1
4902554	43	C	04/12/2022	19:58	-135.891	49.457	0	117.00	0	6.2900	0	32.7200	0	25.717	0	115.970	0	-1e10	8	-1e10	8	-1E+10	1	-1E+10	1	-1E+10	1	-1E+10	1	-1E+10	1	-1E+10	1
4902554	43	C	04/12/2022	19:58	-135.891	49.457	0	118.00	0	6.2160	0	32.7920	0	25.783	0	116.961	0	-1e10	8	-1e10	8	-1E+10	1	-1E+10	1	-1E+10	1	-1E+10	1	-1E+10	1	-1E+10	1
4902554	43	C	04/12/2022	19:58	-135.891	49.457	0	119.10	0	6.1660	0	32.8520	0	25.836	0	118.051	0	-1e10	8	-1e10	8	-1E+10	1	-1E+10	1	-1E+10	1	-1E+10	1	-1E+10	1	-1E+10	1
4902554	43	C	04/12/2022	19:58	-135.891	49.457	0	119.80	0	6.1480	0	32.8830	0	25.863	0	118.744	0	-1e10	8	-1e10	8	-1E+10	1	-1E+10	1	-1E+10	1	-1E+10	1	-1E+10	1	-1E+10	1
4902554	43	C	04/12/2022	19:58	-135.891	49.457	0	120.80	0	6.1400	0	32.9000	0	25.878	0	119.735	0	-1e10	8	-1e10	8	-1E+10	1	-1E+10	1	-1E+10	1	-1E+10	1	-1E+10	1	-1E+10	1
4902554	43	C	04/12/2022	19:58	-135.891	49.457	0	122.00	0	6.1230	0	32.9350	0	25.907	0	120.924	0	-1e10	8	-1e10	8	-1E+10	1	-1E+10	1	-1E+10	1	-1E+10	1	-1E+10	1	-1E+10	1
4902554	43	C	04/12/2022	19:58	-135.891	49.457	0	123.00	0	6.1060	0	32.9790	0	25.944	0	121.915	0	-1e10	8	-1e10	8	-1E+10	1	-1E+10	1	-1E+10	1	-1E+10	1	-1E+10	1	-1E+10	1
4902554	43	C	04/12/2022	19:58	-135.891	49.457	0	124.00	0	6.0930	0	33.0240	0	25.981	0	122.906	0	-1e10	8	-1e10	8	-1E+10	1	-1E+10	1	-1E+10	1	-1E+10	1	-1E+10	1	-1E+10	1
4902554	43	C	04/12/2022	19:58	-135.891	49.457	0	125.00	0	6.0850	0	33.0530	0	26.005	0	123.897	0	-1e10	8	-1e10	8	-1E+10	1	-1E+10	1	-1E+10	1	-1E+10	1	-1E+10	1	-1E+10	1
4902554	43	C	04/12/2022	19:58	-135.891	49.457	0	126.00	0	6.0690	0	33.1320	0	26.070	0	124.888	0	-1e10	8	-1e10	8	-1E+10	1	-1E+10	1	-1E+10	1	-1E+10	1	-1E+10	1	-1E+10	1
4902554	43	C	04/12/2022	19:58	-135.891	49.457	0	127.10	0	6.0560	0	33.2120	0	26.134	0	125.978	0	-1e10	8	-1e10	8	-1E+10	1	-1E+10	1	-1E+10	1	-1E+10	1	-1E+10	1	-1E+10	1
4902554	43	C	04/12/2022	19:58	-135.891	49.457	0	127.80	0	6.0530	0	33.2220	0	26.143	0	126.671	0	-1e10	8	-1e10	8	-1E+10	1	-1E+10	1	-1E+10	1	-1E+10	1	-1E+10	1	-1E+10	1
4902554	43	C	04/12/2022	19:58	-135.891	49.457	0	128.80	0	6.0430	0	33.2440	0	26.161	0	127.662	0	-1e10	8	-1e10	8	-1E+10	1	-1E+10	1	-1E+10	1	-1E+10	1	-1E+10	1	-1E+10	1
4902554	43	C	04/12/2022	19:58	-135.891	49.457	0	129.90	0	6.0410	0	33.2510	0	26.167	0	128.752	0	-1e10	8	-1e10	8	-1E+10	1	-1E+10	1	-1E+10	1	-1E+10	1	-1E+10	1	-1E+10	1
4902554	43	C	04/12/2022	19:58	-135.891	49.457	0	131.00	0	6.0330	0	33.3060	0	26.212	0	129.842	0	-1e10	8	-1e10	8	-1E+10	1	-1E+10	1	-1E+10	1	-1E+10	1	-1E+10	1	-1E+10	1
4902554	43	C	04/12/2022	19:58	-135.891	49.457	0	132.10	0	6.0250	0	33.3490	0	26.247	0	130.932	0	-1e10	8	-1e10	8	-1E+10	1	-1E+10	1	-1E+10	1	-1E+10	1	-1E+10	1	-1E+10	1
4902554	43	C	04/12/2022	19:58	-135.891	49.457	0	132.90	0	6.0190	0	33.3580	0	26.254	0	131.725	0	-1e10	8	-1e10	8	-1E+10	1	-1E+10	1	-1E+10	1	-1E+10	1	-1E+10	1	-1E+10	1
4902554	43	C	04/12/2022	19:58	-135.891	49.457	0	133.70	0	6.0110	0	33.3730	0	26.267	0	132.517	0	-1e10	8	-1e10	8	-1E+10	1	-1E+10	1	-1E+10	1	-1E+10	1	-1E+10	1	-1E+10	1
4902554	43	C	04/12/2022	19:58	-135.891	49.457	0	134.90	0	5.9970	0	33.3900	0	26.282	0	133.706	0	-1e10	8	-1e10	8	-1E+10	1	-1E+10	1	-1E+10	1	-1E+10	1	-1E+10	1	-1E+10	1
4902554	43	C	04/12/2022	19:58	-135.891	49.457	0	136.20	0	5.9920	0	33.3980	0	26.289	0	134.995	0	-1e10	8	-1e10	8	-1E+10	1	-1E+10	1	-1E+10	1	-1E+10	1	-1E+10	1	-1E+10	1
4902554	43	C	04/12/2022	19:58	-135.891	49.457	0	137.00	0	5.9880	0	33.4050	0	26.295	0	135.787	0	-1e10	8	-1e10	8	-1E+10	1	-1E+10	1	-1E+10	1	-1E+10	1	-1E+10	1	-1E+10	1
4902554	43	C	04/12/2022	19:58	-135.891	49.457	0	137.80	0	5.9820	0	33.4200	0	26.308	0	136.580	0	-1e10	8	-1e10	8	-1E+10	1	-1E+10	1	-1E+10	1	-1E+10	1	-1E+10	1	-1E+10	1
4902554	43	C	04/12/2022	19:58	-135.891	49.457	0	138.70	0	5.9800	0	33.4270	0	26.314	0	137.472	0	-1e10	8	-1e10	8	-1E+10	1	-1E+10	1	-1E+10	1	-1E+10	1	-1E+10	1	-1E+10	1
4902554	43	C	04/12/2022	19:58	-135.891	49.457	0	139.90	0	5.9740	0	33.4480	0	26.331	0	138.661	0	-1e10	8	-1e10	8	-1E+10	1	-1E+10	1	-1E+10	1	-1E+10	1	-1E+10	1	-1E+10	1
4902554	43	C	04/12/2022	19:58	-135.891	49.457	0	141.30	0	5.9630	0	33.4940	0	26.369	0	140.048	0	-1e10	8	-1e10	8	-1E+10	1	-1E+10	1	-1E+10	1	-1E+10	1	-1E+10	1	-1E+10	1
4902554	43	C	04/12/2022	19:58	-135.891	49.457	0	142.30	0	5.9570	0	33.5000	0	26.374	0	141.038	0	-1e10	8	-1e10	8	-1E+10	1	-1E+10	1	-1E+10	1	-1E+10	1	-1E+10	1	-1E+10	1
4902554	43	C	04/12/2022	19:58	-135.891	49.457	0	143.30	0	5.9550	0	33.5020	0	26.376	0	142.029	0	-1e10	8	-1e10	8	-1E+10	1	-1E+10	1	-1E+10	1	-1E+10	1	-1E+10	1	-1E+10	1
4902554	43	C	04/12/2022	19:58	-135.891	49.457	0	144.20	0	5.9530	0	33.5070	0	26.380	0	142.921	0	-1e10	8	-1e10	8	-1E+10	1	-1E+10	1	-1E+10	1	-1E+10	1	-1E+10	1	-1E+10	1
4902554	43	C	04/12/2022	19:58	-135.891	49.457	0	145.20	0	5.9520	0	33.5110	0	26.384	0	143.912	0	-1e10	8	-1e10	8	-1E+10	1	-1E+10	1	-1E+10	1	-1E+10	1	-1E+10	1	-1E+10	1
4902554	43	C	04/12/2022	19:58	-135.891	49.457	0	146.20	0	5.9510	0	33.5150	0	26.387	0	144.902	0	-1e10	8	-1e10	8	-1E+10	1	-1E+10	1	-1E+10	1	-1E+10	1	-1E+10	1	-1E+10	1
4902554	43	C	04/12/2022	19:58	-135.891	49.457	0	147.20	0	5.9520	0	33.5160	0	26.388	0	145.893	0	-1e10	8	-1e10	8	-1E+10	1	-1E+10	1	-1E+10	1	-1E+10	1	-1E+10	1	-1E+10	1
4902554	43	C	04/12/2022	19:58	-135.891	49.457	0	148.30	0	5.9500	0	33.5240	0	26.394	0	146.983	0	-1e10	8	-1e10	8	-1E+10	1	-1E+10	1	-1E+10	1	-1E+10	1	-1E+10	1	-1E+10	1
4902554	43	C	04/12/2022	19:58	-135.891	49.457	0	149.30	0	5.9440	0	33.5360	0	26.405	0	147.974	0	-1e10	8	-1e10	8	-1E+10	1	-1E+10	1	-1E+10	1	-1E+10	1	-1E+10	1	-1E+10	1
4902554	43	C	04/12/2022	19:58	-135.891	49.457	0	150.30	0	5.9320	0	33.5530	0	26.419	0	148.965	0	-1e10	8	-1e10	8	-1E+10	1	-1E+10	1	-1E+10	1	-1E+10	1	-1E+10	1	-1E+10	1
4902554	43	C	04/12/2022	19:58	-135.891	49.457	0	151.40	0	5.9210	0	33.5640	0	26.429	0	150.054	0	-1e10	8	-1e10	8	-1E+10	1	-1E+10	1	-1E+10	1	-1E+10	1	-1E+10	1	-1E+10	1
4902554	43	C	04/12/2022	19:58	-135.891	49.457	0	152.40	0	5.9080	0	33.5830	0	26.446	0	151.045	0	-1e10	8	-1e10	8	-1E+10	1	-1E+10	1	-1E+10	1	-1E+10	1	-1E+10	1	-1E+10	1
4902554	43	C	04/12/2022	19:58	-135.891	49.457	0	153.50	0	5.8970	0	33.5940	0	26.456	0	152.135	0	-1e10	8	-1e10	8	-1E+10	1	-1E+10	1	-1E+10	1	-1E+10	1	-1E+10	1	-1E+10	1
4902554	43	C	04/12/2022	19:58	-135.891	49.457	0	154.60	0	5.8920	0	33.5980	0	26.460	0	153.225	0	-1e10	8	-1e10	8	-1E+10	1	-1E+10	1	-1E+10	1	-1E+10	1	-1E+10	1	-1E+10	1
4902554	43	C	04/12/2022	19:58	-135.891	49.457	0	155.70	0	5.8840	0	33.6030	0	26.465	0	154.315	0	-1e10	8	-1e10	8	-1E+10	1	-1E+10	1	-1E+10	1	-1E+10	1	-1E+10	1	-1E+10	1
4902554	43	C	04/12/2022	19:58	-135.891	49.457	0	156.80	0	5.8790	0	33.6060	0	26.468	0	155.404	0	-1e10	8	-1e10	8	-1E+10	1	-1E+10	1	-1E+10	1	-1E+10	1	-1E+10	1	-1E+10	1
4902554	43	C	04/12/2022	19:58	-135.891	49.457	0	157.90	0	5.8690	0	33.6110	0	26.473	0	156.494	0	-1e10	8	-1e10	8	-1E+10	1	-1E+10	1	-1E+10	1	-1E+10	1	-1E+10	1	-1E+10	1
4902554	43	C	04/12/2022	19:58	-135.891	49.457	0	159.00	0	5.8550	0	33.6180	0	26.480	0	157.584	0	-1e10	8	-1e10	8	-1E+10	1	-1E+10	1	-1E+10	1	-1E+10	1	-1E+10	1	-1E+10	1
4902554	43	C	04/12/2022	19:58	-135.891	49.457	0	160.10	0	5.8420	0	33.6240	0	26.487	0	158.674	0	-1e10	8	-1e10	8	-1E+10	1	-1E+10	1	-1E+10	1	-1E+10	1	-1E+10	1	-1E+10	1
4902554	43	C	04/12/2022	19:58	-135.891	49.457	0	161.30	0	5.8350	0	33.6270	0	26.490	0	159.863	0	-1e10	8	-1e10	8	-1E+10	1	-1E+10	1	-1E+10	1	-1E+10	1	-1E+10	1	-1E+10	1
4902554	43	C	04/12/2022	19:58	-135.891	49.457	0	162.40	0	5.8160	0	33.6350	0	26.499	0	160.952	0	-1e10	8	-1e10	8	-1E+10	1	-1E+10	1	-1E+10	1	-1E+10	1	-1E+10	1	-1E+10	1
4902554	43	C	04/12/2022	19:58	-135.891	49.457	0	163.50	0	5.8050	0	33.6400	0	26.504	0	162.042	0	-1e10	8	-1e10	8	-1E+10	1	-1E+10	1	-1E+10	1	-1E+10	1	-1E+10	1	-1E+10	1
4902554	43	C	04/12/2022	19:58	-135.891	49.457	0	164.60	0	5.7820	0	33.6530	0	26.517	0	163.132	0	-1e10	8	-1e10	8	-1E+10	1	-1E+10	1	-1E+10	1	-1E+10	1	-1E+10	1	-1E+10	1
4902554	43	C	04/12/2022	19:58	-135.891	49.457	0	165.80	0	5.7730	0	33.6590	0	26.523	0	164.321	0	-1e10	8	-1e10	8	-1E+10	1	-1E+10	1	-1E+10	1	-1E+10	1	-1E+10	1	-1E+10	1
4902554	43	C	04/12/2022	19:58	-135.891	49.457	0	166.90	0	5.7710	0	33.6600	0	26.524	0	165.410	0	-1e10	8	-1e10	8	-1E+10	1	-1E+10	1	-1E+10	1	-1E+10	1	-1E+10	1	-1E+10	1
4902554	43	C	04/12/2022	19:58	-135.891	49.457	0	168.00	0	5.7620	0	33.6650	0	26.529	0	166.500	0	-1e10	8	-1e10	8	-1E+10	1	-1E+10	1	-1E+10	1	-1E+10	1	-1E+10	1	-1E+10	1
4902554	43	C	04/12/2022	19:58	-135.891	49.457	0	169.10	0	5.7530	0	33.6690	0	26.533	0	167.590	0	-1e10	8	-1e10	8	-1E+10	1	-1E+10	1	-1E+10	1	-1E+10	1	-1E+10	1	-1E+10	1
4902554	43	C	04/12/2022	19:58	-135.891	49.457	0	170.30	0	5.7180	0	33.6810	0	26.547	0	168.779	0	-1e10	8	-1e10	8	-1E+10	1	-1E+10	1	-1E+10	1	-1E+10	1	-1E+10	1	-1E+10	1
4902554	43	C	04/12/2022	19:58	-135.891	49.457	0	171.30	0	5.6940	0	33.6800	0	26.549	0	169.769	0	-1e10	8	-1e10	8	-1E+10	1	-1E+10	1	-1E+10	1	-1E+10	1	-1E+10	1	-1E+10	1
4902554	43	C	04/12/2022	19:58	-135.891	49.457	0	172.50	0	5.6740	0	33.6850	0	26.556	0	170.958	0	-1e10	8	-1e10	8	-1E+10	1	-1E+10	1	-1E+10	1	-1E+10	1	-1E+10	1	-1E+10	1
4902554	43	C	04/12/2022	19:58	-135.891	49.457	0	173.50	0	5.6670	0	33.6860	0	26.557	0	171.949	0	-1e10	8	-1e10	8	-1E+10	1	-1E+10	1	-1E+10	1	-1E+10	1	-1E+10	1	-1E+10	1
4902554	43	C	04/12/2022	19:58	-135.891	49.457	0	174.90	0	5.6470	0	33.6900	0	26.563	0	173.336	0	-1e10	8	-1e10	8	-1E+10	1	-1E+10	1	-1E+10	1	-1E+10	1	-1E+10	1	-1E+10	1
4902554	43	C	04/12/2022	19:58	-135.891	49.457	0	176.20	0	5.6350	0	33.6920	0	26.566	0	174.624	0	-1e10	8	-1e10	8	-1E+10	1	-1E+10	1	-1E+10	1	-1E+10	1	-1E+10	1	-1E+10	1
4902554	43	C	04/12/2022	19:58	-135.891	49.457	0	177.00	0	5.6290	0	33.6940	0	26.568	0	175.416	0	-1e10	8	-1e10	8	-1E+10	1	-1E+10	1	-1E+10	1	-1E+10	1	-1E+10	1	-1E+10	1
4902554	43	C	04/12/2022	19:58	-135.891	49.457	0	177.80	0	5.6220	0	33.6950	0	26.570	0	176.209	0	-1e10	8	-1e10	8	-1E+10	1	-1E+10	1	-1E+10	1	-1E+10	1	-1E+10	1	-1E+10	1
4902554	43	C	04/12/2022	19:58	-135.891	49.457	0	179.00	0	5.5930	0	33.7020	0	26.579	0	177.397	0	-1e10	8	-1e10	8	-1E+10	1	-1E+10	1	-1E+10	1	-1E+10	1	-1E+10	1	-1E+10	1
4902554	43	C	04/12/2022	19:58	-135.891	49.457	0	180.20	0	5.5760	0	33.7040	0	26.582	0	178.586	0	-1e10	8	-1e10	8	-1E+10	1	-1E+10	1	-1E+10	1	-1E+10	1	-1E+10	1	-1E+10	1
4902554	43	C	04/12/2022	19:58	-135.891	49.457	0	181.00	0	5.5690	0	33.7040	0	26.583	0	179.379	0	-1e10	8	-1e10	8	-1E+10	1	-1E+10	1	-1E+10	1	-1E+10	1	-1E+10	1	-1E+10	1
4902554	43	C	04/12/2022	19:58	-135.891	49.457	0	181.80	0	5.5620	0	33.7040	0	26.584	0	180.171	0	-1e10	8	-1e10	8	-1E+10	1	-1E+10	1	-1E+10	1	-1E+10	1	-1E+10	1	-1E+10	1
4902554	43	C	04/12/2022	19:58	-135.891	49.457	0	182.70	0	5.5420	0	33.7070	0	26.589	0	181.063	0	-1e10	8	-1e10	8	-1E+10	1	-1E+10	1	-1E+10	1	-1E+10	1	-1E+10	1	-1E+10	1
4902554	43	C	04/12/2022	19:58	-135.891	49.457	0	183.90	0	5.5310	0	33.7080	0	26.591	0	182.251	0	-1e10	8	-1e10	8	-1E+10	1	-1E+10	1	-1E+10	1	-1E+10	1	-1E+10	1	-1E+10	1
4902554	43	C	04/12/2022	19:58	-135.891	49.457	0	185.10	0	5.5190	0	33.7100	0	26.594	0	183.440	0	-1e10	8	-1e10	8	-1E+10	1	-1E+10	1	-1E+10	1	-1E+10	1	-1E+10	1	-1E+10	1
4902554	43	C	04/12/2022	19:58	-135.891	49.457	0	185.90	0	5.4860	0	33.7160	0	26.603	0	184.232	0	-1e10	8	-1e10	8	-1E+10	1	-1E+10	1	-1E+10	1	-1E+10	1	-1E+10	1	-1E+10	1
4902554	43	C	04/12/2022	19:58	-135.891	49.457	0	186.70	0	5.4760	0	33.7150	0	26.603	0	185.025	0	-1e10	8	-1e10	8	-1E+10	1	-1E+10	1	-1E+10	1	-1E+10	1	-1E+10	1	-1E+10	1
4902554	43	C	04/12/2022	19:58	-135.891	49.457	0	187.90	0	5.4490	0	33.7170	0	26.608	0	186.214	0	-1e10	8	-1e10	8	-1E+10	1	-1E+10	1	-1E+10	1	-1E+10	1	-1E+10	1	-1E+10	1
4902554	43	C	04/12/2022	19:58	-135.891	49.457	0	189.10	0	5.4410	0	33.7180	0	26.610	0	187.402	0	-1e10	8	-1e10	8	-1E+10	1	-1E+10	1	-1E+10	1	-1E+10	1	-1E+10	1	-1E+10	1
4902554	43	C	04/12/2022	19:58	-135.891	49.457	0	189.90	0	5.4300	0	33.7190	0	26.612	0	188.195	0	-1e10	8	-1e10	8	-1E+10	1	-1E+10	1	-1E+10	1	-1E+10	1	-1E+10	1	-1E+10	1
4902554	43	C	04/12/2022	19:58	-135.891	49.457	0	190.70	0	5.4170	0	33.7210	0	26.615	0	188.987	0	-1e10	8	-1e10	8	-1E+10	1	-1E+10	1	-1E+10	1	-1E+10	1	-1E+10	1	-1E+10	1
4902554	43	C	04/12/2022	19:58	-135.891	49.457	0	191.90	0	5.4020	0	33.7230	0	26.618	0	190.176	0	-1e10	8	-1e10	8	-1E+10	1	-1E+10	1	-1E+10	1	-1E+10	1	-1E+10	1	-1E+10	1
4902554	43	C	04/12/2022	19:58	-135.891	49.457	0	193.20	0	5.3910	0	33.7230	0	26.620	0	191.464	0	-1e10	8	-1e10	8	-1E+10	1	-1E+10	1	-1E+10	1	-1E+10	1	-1E+10	1	-1E+10	1
4902554	43	C	04/12/2022	19:58	-135.891	49.457	0	194.00	0	5.3740	0	33.7280	0	26.626	0	192.256	0	-1e10	8	-1e10	8	-1E+10	1	-1E+10	1	-1E+10	1	-1E+10	1	-1E+10	1	-1E+10	1
4902554	43	C	04/12/2022	19:58	-135.891	49.457	0	194.90	0	5.3260	0	33.7310	0	26.634	0	193.148	0	-1e10	8	-1e10	8	-1E+10	1	-1E+10	1	-1E+10	1	-1E+10	1	-1E+10	1	-1E+10	1
4902554	43	C	04/12/2022	19:58	-135.891	49.457	0	195.70	0	5.3230	0	33.7320	0	26.635	0	193.940	0	-1e10	8	-1e10	8	-1E+10	1	-1E+10	1	-1E+10	1	-1E+10	1	-1E+10	1	-1E+10	1
4902554	43	C	04/12/2022	19:58	-135.891	49.457	0	197.00	0	5.3130	0	33.7330	0	26.637	0	195.228	0	-1e10	8	-1e10	8	-1E+10	1	-1E+10	1	-1E+10	1	-1E+10	1	-1E+10	1	-1E+10	1
4902554	43	C	04/12/2022	19:58	-135.891	49.457	0	198.20	0	5.3060	0	33.7330	0	26.637	0	196.416	0	-1e10	8	-1e10	8	-1E+10	1	-1E+10	1	-1E+10	1	-1E+10	1	-1E+10	1	-1E+10	1
4902554	43	C	04/12/2022	19:58	-135.891	49.457	0	199.10	0	5.2970	0	33.7350	0	26.640	0	197.308	0	-1e10	8	-1e10	8	-1E+10	1	-1E+10	1	-1E+10	1	-1E+10	1	-1E+10	1	-1E+10	1
4902554	43	C	04/12/2022	19:58	-135.891	49.457	0	199.90	0	5.2890	0	33.7350	0	26.641	0	198.100	0	-1e10	8	-1e10	8	-1E+10	1	-1E+10	1	-1E+10	1	-1E+10	1	-1E+10	1	-1E+10	1
4902554	43	C	04/12/2022	19:58	-135.891	49.457	0	200.70	0	5.2810	0	33.7350	0	26.642	0	198.893	0	-1e10	8	-1e10	8	-1E+10	1	-1E+10	1	-1E+10	1	-1E+10	1	-1E+10	1	-1E+10	1
4902554	43	C	04/12/2022	19:58	-135.891	49.457	0	202.00	0	5.2580	0	33.7430	0	26.651	0	200.180	0	-1e10	8	-1e10	8	-1E+10	1	-1E+10	1	-1E+10	1	-1E+10	1	-1E+10	1	-1E+10	1
4902554	43	C	04/12/2022	19:58	-135.891	49.457	0	203.20	0	5.2290	0	33.7440	0	26.655	0	201.369	0	-1e10	8	-1e10	8	-1E+10	1	-1E+10	1	-1E+10	1	-1E+10	1	-1E+10	1	-1E+10	1
4902554	43	C	04/12/2022	19:58	-135.891	49.457	0	204.10	0	5.2190	0	33.7440	0	26.656	0	202.260	0	-1e10	8	-1e10	8	-1E+10	1	-1E+10	1	-1E+10	1	-1E+10	1	-1E+10	1	-1E+10	1
4902554	43	C	04/12/2022	19:58	-135.891	49.457	0	205.00	0	5.2000	0	33.7460	0	26.660	0	203.152	0	-1e10	8	-1e10	8	-1E+10	1	-1E+10	1	-1E+10	1	-1E+10	1	-1E+10	1	-1E+10	1
4902554	43	C	04/12/2022	19:58	-135.891	49.457	0	205.90	0	5.1900	0	33.7470	0	26.662	0	204.043	0	-1e10	8	-1e10	8	-1E+10	1	-1E+10	1	-1E+10	1	-1E+10	1	-1E+10	1	-1E+10	1
4902554	43	C	04/12/2022	19:58	-135.891	49.457	0	206.70	0	5.1890	0	33.7470	0	26.662	0	204.836	0	-1e10	8	-1e10	8	-1E+10	1	-1E+10	1	-1E+10	1	-1E+10	1	-1E+10	1	-1E+10	1
4902554	43	C	04/12/2022	19:58	-135.891	49.457	0	207.60	0	5.1860	0	33.7480	0	26.663	0	205.727	0	-1e10	8	-1e10	8	-1E+10	1	-1E+10	1	-1E+10	1	-1E+10	1	-1E+10	1	-1E+10	1
4902554	43	C	04/12/2022	19:58	-135.891	49.457	0	208.90	0	5.1790	0	33.7490	0	26.665	0	207.015	0	-1e10	8	-1e10	8	-1E+10	1	-1E+10	1	-1E+10	1	-1E+10	1	-1E+10	1	-1E+10	1
4902554	43	C	04/12/2022	19:58	-135.891	49.457	0	210.30	0	5.1720	0	33.7500	0	26.667	0	208.401	0	-1e10	8	-1e10	8	-1E+10	1	-1E+10	1	-1E+10	1	-1E+10	1	-1E+10	1	-1E+10	1
4902554	43	C	04/12/2022	19:58	-135.891	49.457	0	211.20	0	5.1710	0	33.7500	0	26.667	0	209.293	0	-1e10	8	-1e10	8	-1E+10	1	-1E+10	1	-1E+10	1	-1E+10	1	-1E+10	1	-1E+10	1
4902554	43	C	04/12/2022	19:58	-135.891	49.457	0	212.10	0	5.1680	0	33.7500	0	26.667	0	210.184	0	-1e10	8	-1e10	8	-1E+10	1	-1E+10	1	-1E+10	1	-1E+10	1	-1E+10	1	-1E+10	1
4902554	43	C	04/12/2022	19:58	-135.891	49.457	0	213.00	0	5.1580	0	33.7500	0	26.668	0	211.076	0	-1e10	8	-1e10	8	-1E+10	1	-1E+10	1	-1E+10	1	-1E+10	1	-1E+10	1	-1E+10	1
4902554	43	C	04/12/2022	19:58	-135.891	49.457	0	213.90	0	5.1340	0	33.7560	0	26.676	0	211.967	0	-1e10	8	-1e10	8	-1E+10	1	-1E+10	1	-1E+10	1	-1E+10	1	-1E+10	1	-1E+10	1
4902554	43	C	04/12/2022	19:58	-135.891	49.457	0	214.90	0	5.1220	0	33.7580	0	26.679	0	212.957	0	-1e10	8	-1e10	8	-1E+10	1	-1E+10	1	-1E+10	1	-1E+10	1	-1E+10	1	-1E+10	1
4902554	43	C	04/12/2022	19:58	-135.891	49.457	0	215.80	0	5.1140	0	33.7600	0	26.681	0	213.849	0	-1e10	8	-1e10	8	-1E+10	1	-1E+10	1	-1E+10	1	-1E+10	1	-1E+10	1	-1E+10	1
4902554	43	C	04/12/2022	19:58	-135.891	49.457	0	216.70	0	5.1090	0	33.7610	0	26.683	0	214.740	0	-1e10	8	-1e10	8	-1E+10	1	-1E+10	1	-1E+10	1	-1E+10	1	-1E+10	1	-1E+10	1
4902554	43	C	04/12/2022	19:58	-135.891	49.457	0	217.70	0	5.0970	0	33.7630	0	26.686	0	215.731	0	-1e10	8	-1e10	8	-1E+10	1	-1E+10	1	-1E+10	1	-1E+10	1	-1E+10	1	-1E+10	1
4902554	43	C	04/12/2022	19:58	-135.891	49.457	0	218.60	0	5.0810	0	33.7650	0	26.689	0	216.622	0	-1e10	8	-1e10	8	-1E+10	1	-1E+10	1	-1E+10	1	-1E+10	1	-1E+10	1	-1E+10	1
4902554	43	C	04/12/2022	19:58	-135.891	49.457	0	219.60	0	5.0750	0	33.7640	0	26.689	0	217.612	0	-1e10	8	-1e10	8	-1E+10	1	-1E+10	1	-1E+10	1	-1E+10	1	-1E+10	1	-1E+10	1
4902554	43	C	04/12/2022	19:58	-135.891	49.457	0	220.50	0	5.0730	0	33.7640	0	26.689	0	218.504	0	-1e10	8	-1e10	8	-1E+10	1	-1E+10	1	-1E+10	1	-1E+10	1	-1E+10	1	-1E+10	1
4902554	43	C	04/12/2022	19:58	-135.891	49.457	0	221.90	0	5.0640	0	33.7650	0	26.691	0	219.890	0	-1e10	8	-1e10	8	-1E+10	1	-1E+10	1	-1E+10	1	-1E+10	1	-1E+10	1	-1E+10	1
4902554	43	C	04/12/2022	19:58	-135.891	49.457	0	223.40	0	5.0520	0	33.7680	0	26.695	0	221.376	0	-1e10	8	-1e10	8	-1E+10	1	-1E+10	1	-1E+10	1	-1E+10	1	-1E+10	1	-1E+10	1
4902554	43	C	04/12/2022	19:58	-135.891	49.457	0	224.30	0	5.0480	0	33.7680	0	26.695	0	222.267	0	-1e10	8	-1e10	8	-1E+10	1	-1E+10	1	-1E+10	1	-1E+10	1	-1E+10	1	-1E+10	1
4902554	43	C	04/12/2022	19:58	-135.891	49.457	0	225.30	0	5.0460	0	33.7680	0	26.695	0	223.258	0	-1e10	8	-1e10	8	-1E+10	1	-1E+10	1	-1E+10	1	-1E+10	1	-1E+10	1	-1E+10	1
4902554	43	C	04/12/2022	19:58	-135.891	49.457	0	226.20	0	5.0280	0	33.7710	0	26.700	0	224.149	0	-1e10	8	-1e10	8	-1E+10	1	-1E+10	1	-1E+10	1	-1E+10	1	-1E+10	1	-1E+10	1
4902554	43	C	04/12/2022	19:58	-135.891	49.457	0	227.20	0	5.0120	0	33.7760	0	26.706	0	225.140	0	-1e10	8	-1e10	8	-1E+10	1	-1E+10	1	-1E+10	1	-1E+10	1	-1E+10	1	-1E+10	1
4902554	43	C	04/12/2022	19:58	-135.891	49.457	0	228.10	0	5.0090	0	33.7770	0	26.707	0	226.031	0	-1e10	8	-1e10	8	-1E+10	1	-1E+10	1	-1E+10	1	-1E+10	1	-1E+10	1	-1E+10	1
4902554	43	C	04/12/2022	19:58	-135.891	49.457	0	229.10	0	5.0060	0	33.7780	0	26.708	0	227.021	0	-1e10	8	-1e10	8	-1E+10	1	-1E+10	1	-1E+10	1	-1E+10	1	-1E+10	1	-1E+10	1
4902554	43	C	04/12/2022	19:58	-135.891	49.457	0	230.10	0	5.0060	0	33.7780	0	26.708	0	228.012	0	-1e10	8	-1e10	8	-1E+10	1	-1E+10	1	-1E+10	1	-1E+10	1	-1E+10	1	-1E+10	1
4902554	43	C	04/12/2022	19:58	-135.891	49.457	0	231.00	0	5.0050	0	33.7780	0	26.708	0	228.903	0	-1e10	8	-1e10	8	-1E+10	1	-1E+10	1	-1E+10	1	-1E+10	1	-1E+10	1	-1E+10	1
4902554	43	C	04/12/2022	19:58	-135.891	49.457	0	232.00	0	5.0050	0	33.7770	0	26.707	0	229.893	0	-1e10	8	-1e10	8	-1E+10	1	-1E+10	1	-1E+10	1	-1E+10	1	-1E+10	1	-1E+10	1
4902554	43	C	04/12/2022	19:58	-135.891	49.457	0	233.00	0	5.0010	0	33.7780	0	26.708	0	230.884	0	-1e10	8	-1e10	8	-1E+10	1	-1E+10	1	-1E+10	1	-1E+10	1	-1E+10	1	-1E+10	1
4902554	43	C	04/12/2022	19:58	-135.891	49.457	0	233.90	0	4.9980	0	33.7780	0	26.709	0	231.775	0	-1e10	8	-1e10	8	-1E+10	1	-1E+10	1	-1E+10	1	-1E+10	1	-1E+10	1	-1E+10	1
4902554	43	C	04/12/2022	19:58	-135.891	49.457	0	234.90	0	4.9910	0	33.7800	0	26.711	0	232.765	0	-1e10	8	-1e10	8	-1E+10	1	-1E+10	1	-1E+10	1	-1E+10	1	-1E+10	1	-1E+10	1
4902554	43	C	04/12/2022	19:58	-135.891	49.457	0	235.80	0	4.9890	0	33.7820	0	26.713	0	233.657	0	-1e10	8	-1e10	8	-1E+10	1	-1E+10	1	-1E+10	1	-1E+10	1	-1E+10	1	-1E+10	1
4902554	43	C	04/12/2022	19:58	-135.891	49.457	0	236.80	0	4.9880	0	33.7830	0	26.714	0	234.647	0	-1e10	8	-1e10	8	-1E+10	1	-1E+10	1	-1E+10	1	-1E+10	1	-1E+10	1	-1E+10	1
4902554	43	C	04/12/2022	19:58	-135.891	49.457	0	237.70	0	4.9870	0	33.7840	0	26.715	0	235.538	0	-1e10	8	-1e10	8	-1E+10	1	-1E+10	1	-1E+10	1	-1E+10	1	-1E+10	1	-1E+10	1
4902554	43	C	04/12/2022	19:58	-135.891	49.457	0	238.70	0	4.9870	0	33.7840	0	26.715	0	236.529	0	-1e10	8	-1e10	8	-1E+10	1	-1E+10	1	-1E+10	1	-1E+10	1	-1E+10	1	-1E+10	1
4902554	43	C	04/12/2022	19:58	-135.891	49.457	0	239.60	0	4.9830	0	33.7850	0	26.716	0	237.420	0	-1e10	8	-1e10	8	-1E+10	1	-1E+10	1	-1E+10	1	-1E+10	1	-1E+10	1	-1E+10	1
4902554	43	C	04/12/2022	19:58	-135.891	49.457	0	240.60	0	4.9720	0	33.7890	0	26.721	0	238.410	0	-1e10	8	-1e10	8	-1E+10	1	-1E+10	1	-1E+10	1	-1E+10	1	-1E+10	1	-1E+10	1
4902554	43	C	04/12/2022	19:58	-135.891	49.457	0	241.60	0	4.9670	0	33.7910	0	26.723	0	239.401	0	-1e10	8	-1e10	8	-1E+10	1	-1E+10	1	-1E+10	1	-1E+10	1	-1E+10	1	-1E+10	1
4902554	43	C	04/12/2022	19:58	-135.891	49.457	0	242.60	0	4.9520	0	33.7940	0	26.727	0	240.391	0	-1e10	8	-1e10	8	-1E+10	1	-1E+10	1	-1E+10	1	-1E+10	1	-1E+10	1	-1E+10	1
4902554	43	C	04/12/2022	19:58	-135.891	49.457	0	243.50	0	4.9490	0	33.7940	0	26.727	0	241.282	0	-1e10	8	-1e10	8	-1E+10	1	-1E+10	1	-1E+10	1	-1E+10	1	-1E+10	1	-1E+10	1
4902554	43	C	04/12/2022	19:58	-135.891	49.457	0	244.90	0	4.9390	0	33.7950	0	26.729	0	242.669	0	-1e10	8	-1e10	8	-1E+10	1	-1E+10	1	-1E+10	1	-1E+10	1	-1E+10	1	-1E+10	1
4902554	43	C	04/12/2022	19:58	-135.891	49.457	0	246.40	0	4.9260	0	33.7970	0	26.732	0	244.154	0	-1e10	8	-1e10	8	-1E+10	1	-1E+10	1	-1E+10	1	-1E+10	1	-1E+10	1	-1E+10	1
4902554	43	C	04/12/2022	19:58	-135.891	49.457	0	247.30	0	4.9200	0	33.7980	0	26.734	0	245.045	0	-1e10	8	-1e10	8	-1E+10	1	-1E+10	1	-1E+10	1	-1E+10	1	-1E+10	1	-1E+10	1
4902554	43	C	04/12/2022	19:58	-135.891	49.457	0	248.30	0	4.9010	0	33.8000	0	26.737	0	246.036	0	-1e10	8	-1e10	8	-1E+10	1	-1E+10	1	-1E+10	1	-1E+10	1	-1E+10	1	-1E+10	1
4902554	43	C	04/12/2022	19:58	-135.891	49.457	0	249.20	0	4.8830	0	33.8030	0	26.742	0	246.927	0	-1e10	8	-1e10	8	-1E+10	1	-1E+10	1	-1E+10	1	-1E+10	1	-1E+10	1	-1E+10	1
4902554	43	C	04/12/2022	19:58	-135.891	49.457	0	250.20	0	4.8660	0	33.8040	0	26.744	0	247.917	0	-1e10	8	-1e10	8	-1E+10	1	-1E+10	1	-1E+10	1	-1E+10	1	-1E+10	1	-1E+10	1
4902554	43	C	04/12/2022	19:58	-135.891	49.457	0	251.20	0	4.8610	0	33.8040	0	26.745	0	248.907	0	-1e10	8	-1e10	8	-1E+10	1	-1E+10	1	-1E+10	1	-1E+10	1	-1E+10	1	-1E+10	1
4902554	43	C	04/12/2022	19:58	-135.891	49.457	0	252.10	0	4.8500	0	33.8050	0	26.747	0	249.799	0	-1e10	8	-1e10	8	-1E+10	1	-1E+10	1	-1E+10	1	-1E+10	1	-1E+10	1	-1E+10	1
4902554	43	C	04/12/2022	19:58	-135.891	49.457	0	253.10	0	4.8440	0	33.8060	0	26.748	0	250.789	0	-1e10	8	-1e10	8	-1E+10	1	-1E+10	1	-1E+10	1	-1E+10	1	-1E+10	1	-1E+10	1
4902554	43	C	04/12/2022	19:58	-135.891	49.457	0	254.00	0	4.8400	0	33.8060	0	26.749	0	251.680	0	-1e10	8	-1e10	8	-1E+10	1	-1E+10	1	-1E+10	1	-1E+10	1	-1E+10	1	-1E+10	1
4902554	43	C	04/12/2022	19:58	-135.891	49.457	0	255.00	0	4.8380	0	33.8070	0	26.750	0	252.670	0	-1e10	8	-1e10	8	-1E+10	1	-1E+10	1	-1E+10	1	-1E+10	1	-1E+10	1	-1E+10	1
4902554	43	C	04/12/2022	19:58	-135.891	49.457	0	255.90	0	4.8390	0	33.8080	0	26.751	0	253.562	0	-1e10	8	-1e10	8	-1E+10	1	-1E+10	1	-1E+10	1	-1E+10	1	-1E+10	1	-1E+10	1
4902554	43	C	04/12/2022	19:58	-135.891	49.457	0	256.80	0	4.8290	0	33.8110	0	26.754	0	254.453	0	-1e10	8	-1e10	8	-1E+10	1	-1E+10	1	-1E+10	1	-1E+10	1	-1E+10	1	-1E+10	1
4902554	43	C	04/12/2022	19:58	-135.891	49.457	0	257.80	0	4.8200	0	33.8130	0	26.757	0	255.443	0	-1e10	8	-1e10	8	-1E+10	1	-1E+10	1	-1E+10	1	-1E+10	1	-1E+10	1	-1E+10	1
4902554	43	C	04/12/2022	19:58	-135.891	49.457	0	258.70	0	4.8160	0	33.8130	0	26.757	0	256.334	0	-1e10	8	-1e10	8	-1E+10	1	-1E+10	1	-1E+10	1	-1E+10	1	-1E+10	1	-1E+10	1
4902554	43	C	04/12/2022	19:58	-135.891	49.457	0	259.60	0	4.8150	0	33.8130	0	26.757	0	257.226	0	-1e10	8	-1e10	8	-1E+10	1	-1E+10	1	-1E+10	1	-1E+10	1	-1E+10	1	-1E+10	1
4902554	43	C	04/12/2022	19:58	-135.891	49.457	0	260.60	0	4.8100	0	33.8150	0	26.759	0	258.216	0	-1e10	8	-1e10	8	-1E+10	1	-1E+10	1	-1E+10	1	-1E+10	1	-1E+10	1	-1E+10	1
4902554	43	C	04/12/2022	19:58	-135.891	49.457	0	261.90	0	4.7990	0	33.8160	0	26.762	0	259.503	0	-1e10	8	-1e10	8	-1E+10	1	-1E+10	1	-1E+10	1	-1E+10	1	-1E+10	1	-1E+10	1
4902554	43	C	04/12/2022	19:58	-135.891	49.457	0	263.40	0	4.7910	0	33.8190	0	26.765	0	260.988	0	-1e10	8	-1e10	8	-1E+10	1	-1E+10	1	-1E+10	1	-1E+10	1	-1E+10	1	-1E+10	1
4902554	43	C	04/12/2022	19:58	-135.891	49.457	0	264.30	0	4.7840	0	33.8180	0	26.765	0	261.880	0	-1e10	8	-1e10	8	-1E+10	1	-1E+10	1	-1E+10	1	-1E+10	1	-1E+10	1	-1E+10	1
4902554	43	C	04/12/2022	19:58	-135.891	49.457	0	265.30	0	4.7810	0	33.8180	0	26.765	0	262.870	0	-1e10	8	-1e10	8	-1E+10	1	-1E+10	1	-1E+10	1	-1E+10	1	-1E+10	1	-1E+10	1
4902554	43	C	04/12/2022	19:58	-135.891	49.457	0	266.20	0	4.7770	0	33.8190	0	26.766	0	263.761	0	-1e10	8	-1e10	8	-1E+10	1	-1E+10	1	-1E+10	1	-1E+10	1	-1E+10	1	-1E+10	1
4902554	43	C	04/12/2022	19:58	-135.891	49.457	0	267.20	0	4.7720	0	33.8190	0	26.767	0	264.751	0	-1e10	8	-1e10	8	-1E+10	1	-1E+10	1	-1E+10	1	-1E+10	1	-1E+10	1	-1E+10	1
4902554	43	C	04/12/2022	19:58	-135.891	49.457	0	268.10	0	4.7640	0	33.8210	0	26.769	0	265.642	0	-1e10	8	-1e10	8	-1E+10	1	-1E+10	1	-1E+10	1	-1E+10	1	-1E+10	1	-1E+10	1
4902554	43	C	04/12/2022	19:58	-135.891	49.457	0	269.10	0	4.7590	0	33.8220	0	26.771	0	266.633	0	-1e10	8	-1e10	8	-1E+10	1	-1E+10	1	-1E+10	1	-1E+10	1	-1E+10	1	-1E+10	1
4902554	43	C	04/12/2022	19:58	-135.891	49.457	0	270.00	0	4.7570	0	33.8220	0	26.771	0	267.524	0	-1e10	8	-1e10	8	-1E+10	1	-1E+10	1	-1E+10	1	-1E+10	1	-1E+10	1	-1E+10	1
4902554	43	C	04/12/2022	19:58	-135.891	49.457	0	270.90	0	4.7560	0	33.8220	0	26.771	0	268.415	0	-1e10	8	-1e10	8	-1E+10	1	-1E+10	1	-1E+10	1	-1E+10	1	-1E+10	1	-1E+10	1
4902554	43	C	04/12/2022	19:58	-135.891	49.457	0	271.90	0	4.7530	0	33.8220	0	26.771	0	269.405	0	-1e10	8	-1e10	8	-1E+10	1	-1E+10	1	-1E+10	1	-1E+10	1	-1E+10	1	-1E+10	1
4902554	43	C	04/12/2022	19:58	-135.891	49.457	0	272.80	0	4.7470	0	33.8240	0	26.774	0	270.296	0	-1e10	8	-1e10	8	-1E+10	1	-1E+10	1	-1E+10	1	-1E+10	1	-1E+10	1	-1E+10	1
4902554	43	C	04/12/2022	19:58	-135.891	49.457	0	273.80	0	4.7420	0	33.8240	0	26.774	0	271.286	0	-1e10	8	-1e10	8	-1E+10	1	-1E+10	1	-1E+10	1	-1E+10	1	-1E+10	1	-1E+10	1
4902554	43	C	04/12/2022	19:58	-135.891	49.457	0	274.80	0	4.7390	0	33.8260	0	26.776	0	272.277	0	-1e10	8	-1e10	8	-1E+10	1	-1E+10	1	-1E+10	1	-1E+10	1	-1E+10	1	-1E+10	1
4902554	43	C	04/12/2022	19:58	-135.891	49.457	0	275.70	0	4.7270	0	33.8290	0	26.780	0	273.168	0	-1e10	8	-1e10	8	-1E+10	1	-1E+10	1	-1E+10	1	-1E+10	1	-1E+10	1	-1E+10	1
4902554	43	C	04/12/2022	19:58	-135.891	49.457	0	276.70	0	4.7170	0	33.8300	0	26.782	0	274.158	0	-1e10	8	-1e10	8	-1E+10	1	-1E+10	1	-1E+10	1	-1E+10	1	-1E+10	1	-1E+10	1
4902554	43	C	04/12/2022	19:58	-135.891	49.457	0	277.60	0	4.7130	0	33.8310	0	26.783	0	275.049	0	-1e10	8	-1e10	8	-1E+10	1	-1E+10	1	-1E+10	1	-1E+10	1	-1E+10	1	-1E+10	1
4902554	43	C	04/12/2022	19:58	-135.891	49.457	0	278.60	0	4.7110	0	33.8320	0	26.784	0	276.039	0	-1e10	8	-1e10	8	-1E+10	1	-1E+10	1	-1E+10	1	-1E+10	1	-1E+10	1	-1E+10	1
4902554	43	C	04/12/2022	19:58	-135.891	49.457	0	279.60	0	4.7050	0	33.8330	0	26.786	0	277.029	0	-1e10	8	-1e10	8	-1E+10	1	-1E+10	1	-1E+10	1	-1E+10	1	-1E+10	1	-1E+10	1
4902554	43	C	04/12/2022	19:58	-135.891	49.457	0	280.60	0	4.6980	0	33.8340	0	26.787	0	278.019	0	-1e10	8	-1e10	8	-1E+10	1	-1E+10	1	-1E+10	1	-1E+10	1	-1E+10	1	-1E+10	1
4902554	43	C	04/12/2022	19:58	-135.891	49.457	0	281.60	0	4.6880	0	33.8360	0	26.790	0	279.010	0	-1e10	8	-1e10	8	-1E+10	1	-1E+10	1	-1E+10	1	-1E+10	1	-1E+10	1	-1E+10	1
4902554	43	C	04/12/2022	19:58	-135.891	49.457	0	282.60	0	4.6810	0	33.8380	0	26.792	0	280.000	0	-1e10	8	-1e10	8	-1E+10	1	-1E+10	1	-1E+10	1	-1E+10	1	-1E+10	1	-1E+10	1
4902554	43	C	04/12/2022	19:58	-135.891	49.457	0	283.60	0	4.6720	0	33.8380	0	26.793	0	280.990	0	-1e10	8	-1e10	8	-1E+10	1	-1E+10	1	-1E+10	1	-1E+10	1	-1E+10	1	-1E+10	1
4902554	43	C	04/12/2022	19:58	-135.891	49.457	0	284.60	0	4.6610	0	33.8410	0	26.797	0	281.980	0	-1e10	8	-1e10	8	-1E+10	1	-1E+10	1	-1E+10	1	-1E+10	1	-1E+10	1	-1E+10	1
4902554	43	C	04/12/2022	19:58	-135.891	49.457	0	285.60	0	4.6560	0	33.8400	0	26.796	0	282.970	0	-1e10	8	-1e10	8	-1E+10	1	-1E+10	1	-1E+10	1	-1E+10	1	-1E+10	1	-1E+10	1
4902554	43	C	04/12/2022	19:58	-135.891	49.457	0	286.60	0	4.6520	0	33.8410	0	26.798	0	283.960	0	-1e10	8	-1e10	8	-1E+10	1	-1E+10	1	-1E+10	1	-1E+10	1	-1E+10	1	-1E+10	1
4902554	43	C	04/12/2022	19:58	-135.891	49.457	0	287.60	0	4.6430	0	33.8410	0	26.799	0	284.950	0	-1e10	8	-1e10	8	-1E+10	1	-1E+10	1	-1E+10	1	-1E+10	1	-1E+10	1	-1E+10	1
4902554	43	C	04/12/2022	19:58	-135.891	49.457	0	288.60	0	4.6380	0	33.8420	0	26.800	0	285.940	0	-1e10	8	-1e10	8	-1E+10	1	-1E+10	1	-1E+10	1	-1E+10	1	-1E+10	1	-1E+10	1
4902554	43	C	04/12/2022	19:58	-135.891	49.457	0	289.60	0	4.6340	0	33.8430	0	26.801	0	286.930	0	-1e10	8	-1e10	8	-1E+10	1	-1E+10	1	-1E+10	1	-1E+10	1	-1E+10	1	-1E+10	1
4902554	43	C	04/12/2022	19:58	-135.891	49.457	0	290.70	0	4.6290	0	33.8440	0	26.803	0	288.019	0	-1e10	8	-1e10	8	-1E+10	1	-1E+10	1	-1E+10	1	-1E+10	1	-1E+10	1	-1E+10	1
4902554	43	C	04/12/2022	19:58	-135.891	49.457	0	291.70	0	4.6250	0	33.8450	0	26.804	0	289.010	0	-1e10	8	-1e10	8	-1E+10	1	-1E+10	1	-1E+10	1	-1E+10	1	-1E+10	1	-1E+10	1
4902554	43	C	04/12/2022	19:58	-135.891	49.457	0	292.70	0	4.6250	0	33.8450	0	26.804	0	290.000	0	-1e10	8	-1e10	8	-1E+10	1	-1E+10	1	-1E+10	1	-1E+10	1	-1E+10	1	-1E+10	1
4902554	43	C	04/12/2022	19:58	-135.891	49.457	0	293.70	0	4.6230	0	33.8460	0	26.805	0	290.990	0	-1e10	8	-1e10	8	-1E+10	1	-1E+10	1	-1E+10	1	-1E+10	1	-1E+10	1	-1E+10	1
4902554	43	C	04/12/2022	19:58	-135.891	49.457	0	294.70	0	4.6190	0	33.8470	0	26.806	0	291.980	0	-1e10	8	-1e10	8	-1E+10	1	-1E+10	1	-1E+10	1	-1E+10	1	-1E+10	1	-1E+10	1
4902554	43	C	04/12/2022	19:58	-135.891	49.457	0	295.70	0	4.6180	0	33.8470	0	26.806	0	292.970	0	-1e10	8	-1e10	8	-1E+10	1	-1E+10	1	-1E+10	1	-1E+10	1	-1E+10	1	-1E+10	1
4902554	43	C	04/12/2022	19:58	-135.891	49.457	0	296.70	0	4.6110	0	33.8490	0	26.809	0	293.960	0	-1e10	8	-1e10	8	-1E+10	1	-1E+10	1	-1E+10	1	-1E+10	1	-1E+10	1	-1E+10	1
4902554	43	C	04/12/2022	19:58	-135.891	49.457	0	297.70	0	4.6030	0	33.8520	0	26.812	0	294.950	0	-1e10	8	-1e10	8	-1E+10	1	-1E+10	1	-1E+10	1	-1E+10	1	-1E+10	1	-1E+10	1
4902554	43	C	04/12/2022	19:58	-135.891	49.457	0	298.70	0	4.5900	0	33.8530	0	26.814	0	295.940	0	-1e10	8	-1e10	8	-1E+10	1	-1E+10	1	-1E+10	1	-1E+10	1	-1E+10	1	-1E+10	1
4902554	43	C	04/12/2022	19:58	-135.891	49.457	0	299.70	0	4.5860	0	33.8530	0	26.815	0	296.930	0	-1e10	8	-1e10	8	-1E+10	1	-1E+10	1	-1E+10	1	-1E+10	1	-1E+10	1	-1E+10	1
4902554	43	C	04/12/2022	19:58	-135.891	49.457	0	300.80	0	4.5820	0	33.8550	0	26.817	0	298.019	0	-1e10	8	-1e10	8	-1E+10	1	-1E+10	1	-1E+10	1	-1E+10	1	-1E+10	1	-1E+10	1
4902554	43	C	04/12/2022	19:58	-135.891	49.457	0	301.80	0	4.5820	0	33.8580	0	26.819	0	299.009	0	-1e10	8	-1e10	8	-1E+10	1	-1E+10	1	-1E+10	1	-1E+10	1	-1E+10	1	-1E+10	1
4902554	43	C	04/12/2022	19:58	-135.891	49.457	0	302.80	0	4.5810	0	33.8580	0	26.819	0	299.999	0	-1e10	8	-1e10	8	-1E+10	1	-1E+10	1	-1E+10	1	-1E+10	1	-1E+10	1	-1E+10	1
4902554	43	C	04/12/2022	19:58	-135.891	49.457	0	303.80	0	4.5790	0	33.8580	0	26.819	0	300.989	0	-1e10	8	-1e10	8	-1E+10	1	-1E+10	1	-1E+10	1	-1E+10	1	-1E+10	1	-1E+10	1
4902554	43	C	04/12/2022	19:58	-135.891	49.457	0	304.90	0	4.5750	0	33.8590	0	26.821	0	302.078	0	-1e10	8	-1e10	8	-1E+10	1	-1E+10	1	-1E+10	1	-1E+10	1	-1E+10	1	-1E+10	1
4902554	43	C	04/12/2022	19:58	-135.891	49.457	0	305.90	0	4.5720	0	33.8600	0	26.822	0	303.068	0	-1e10	8	-1e10	8	-1E+10	1	-1E+10	1	-1E+10	1	-1E+10	1	-1E+10	1	-1E+10	1
4902554	43	C	04/12/2022	19:58	-135.891	49.457	0	306.90	0	4.5700	0	33.8600	0	26.822	0	304.058	0	-1e10	8	-1e10	8	-1E+10	1	-1E+10	1	-1E+10	1	-1E+10	1	-1E+10	1	-1E+10	1
4902554	43	C	04/12/2022	19:58	-135.891	49.457	0	307.90	0	4.5690	0	33.8610	0	26.823	0	305.048	0	-1e10	8	-1e10	8	-1E+10	1	-1E+10	1	-1E+10	1	-1E+10	1	-1E+10	1	-1E+10	1
4902554	43	C	04/12/2022	19:58	-135.891	49.457	0	309.00	0	4.5680	0	33.8600	0	26.822	0	306.137	0	-1e10	8	-1e10	8	-1E+10	1	-1E+10	1	-1E+10	1	-1E+10	1	-1E+10	1	-1E+10	1
4902554	43	C	04/12/2022	19:58	-135.891	49.457	0	310.00	0	4.5660	0	33.8610	0	26.823	0	307.127	0	-1e10	8	-1e10	8	-1E+10	1	-1E+10	1	-1E+10	1	-1E+10	1	-1E+10	1	-1E+10	1
4902554	43	C	04/12/2022	19:58	-135.891	49.457	0	311.00	0	4.5640	0	33.8620	0	26.824	0	308.117	0	-1e10	8	-1e10	8	-1E+10	1	-1E+10	1	-1E+10	1	-1E+10	1	-1E+10	1	-1E+10	1
4902554	43	C	04/12/2022	19:58	-135.891	49.457	0	312.10	0	4.5620	0	33.8620	0	26.824	0	309.206	0	-1e10	8	-1e10	8	-1E+10	1	-1E+10	1	-1E+10	1	-1E+10	1	-1E+10	1	-1E+10	1
4902554	43	C	04/12/2022	19:58	-135.891	49.457	0	313.10	0	4.5600	0	33.8630	0	26.825	0	310.196	0	-1e10	8	-1e10	8	-1E+10	1	-1E+10	1	-1E+10	1	-1E+10	1	-1E+10	1	-1E+10	1
4902554	43	C	04/12/2022	19:58	-135.891	49.457	0	314.10	0	4.5540	0	33.8650	0	26.828	0	311.186	0	-1e10	8	-1e10	8	-1E+10	1	-1E+10	1	-1E+10	1	-1E+10	1	-1E+10	1	-1E+10	1
4902554	43	C	04/12/2022	19:58	-135.891	49.457	0	315.10	0	4.5420	0	33.8700	0	26.833	0	312.176	0	-1e10	8	-1e10	8	-1E+10	1	-1E+10	1	-1E+10	1	-1E+10	1	-1E+10	1	-1E+10	1
4902554	43	C	04/12/2022	19:58	-135.891	49.457	0	316.20	0	4.5390	0	33.8700	0	26.833	0	313.265	0	-1e10	8	-1e10	8	-1E+10	1	-1E+10	1	-1E+10	1	-1E+10	1	-1E+10	1	-1E+10	1
4902554	43	C	04/12/2022	19:58	-135.891	49.457	0	317.20	0	4.5320	0	33.8730	0	26.836	0	314.255	0	-1e10	8	-1e10	8	-1E+10	1	-1E+10	1	-1E+10	1	-1E+10	1	-1E+10	1	-1E+10	1
4902554	43	C	04/12/2022	19:58	-135.891	49.457	0	318.30	0	4.5250	0	33.8790	0	26.842	0	315.344	0	-1e10	8	-1e10	8	-1E+10	1	-1E+10	1	-1E+10	1	-1E+10	1	-1E+10	1	-1E+10	1
4902554	43	C	04/12/2022	19:58	-135.891	49.457	0	319.30	0	4.5260	0	33.8810	0	26.843	0	316.334	0	-1e10	8	-1e10	8	-1E+10	1	-1E+10	1	-1E+10	1	-1E+10	1	-1E+10	1	-1E+10	1
4902554	43	C	04/12/2022	19:58	-135.891	49.457	0	320.30	0	4.5270	0	33.8820	0	26.844	0	317.324	0	-1e10	8	-1e10	8	-1E+10	1	-1E+10	1	-1E+10	1	-1E+10	1	-1E+10	1	-1E+10	1
4902554	43	C	04/12/2022	19:58	-135.891	49.457	0	321.30	0	4.5260	0	33.8820	0	26.844	0	318.314	0	-1e10	8	-1e10	8	-1E+10	1	-1E+10	1	-1E+10	1	-1E+10	1	-1E+10	1	-1E+10	1
4902554	43	C	04/12/2022	19:58	-135.891	49.457	0	322.40	0	4.5250	0	33.8830	0	26.845	0	319.403	0	-1e10	8	-1e10	8	-1E+10	1	-1E+10	1	-1E+10	1	-1E+10	1	-1E+10	1	-1E+10	1
4902554	43	C	04/12/2022	19:58	-135.891	49.457	0	323.40	0	4.5190	0	33.8880	0	26.850	0	320.393	0	-1e10	8	-1e10	8	-1E+10	1	-1E+10	1	-1E+10	1	-1E+10	1	-1E+10	1	-1E+10	1
4902554	43	C	04/12/2022	19:58	-135.891	49.457	0	324.40	0	4.5170	0	33.8900	0	26.852	0	321.383	0	-1e10	8	-1e10	8	-1E+10	1	-1E+10	1	-1E+10	1	-1E+10	1	-1E+10	1	-1E+10	1
4902554	43	C	04/12/2022	19:58	-135.891	49.457	0	325.50	0	4.5160	0	33.8910	0	26.852	0	322.472	0	-1e10	8	-1e10	8	-1E+10	1	-1E+10	1	-1E+10	1	-1E+10	1	-1E+10	1	-1E+10	1
4902554	43	C	04/12/2022	19:58	-135.891	49.457	0	326.50	0	4.5130	0	33.8920	0	26.854	0	323.461	0	-1e10	8	-1e10	8	-1E+10	1	-1E+10	1	-1E+10	1	-1E+10	1	-1E+10	1	-1E+10	1
4902554	43	C	04/12/2022	19:58	-135.891	49.457	0	327.50	0	4.5110	0	33.8930	0	26.855	0	324.451	0	-1e10	8	-1e10	8	-1E+10	1	-1E+10	1	-1E+10	1	-1E+10	1	-1E+10	1	-1E+10	1
4902554	43	C	04/12/2022	19:58	-135.891	49.457	0	328.60	0	4.5060	0	33.8960	0	26.858	0	325.540	0	-1e10	8	-1e10	8	-1E+10	1	-1E+10	1	-1E+10	1	-1E+10	1	-1E+10	1	-1E+10	1
4902554	43	C	04/12/2022	19:58	-135.891	49.457	0	329.60	0	4.5050	0	33.8970	0	26.858	0	326.530	0	-1e10	8	-1e10	8	-1E+10	1	-1E+10	1	-1E+10	1	-1E+10	1	-1E+10	1	-1E+10	1
4902554	43	C	04/12/2022	19:58	-135.891	49.457	0	330.60	0	4.5050	0	33.8970	0	26.858	0	327.520	0	-1e10	8	-1e10	8	-1E+10	1	-1E+10	1	-1E+10	1	-1E+10	1	-1E+10	1	-1E+10	1
4902554	43	C	04/12/2022	19:58	-135.891	49.457	0	331.70	0	4.5050	0	33.8970	0	26.858	0	328.609	0	-1e10	8	-1e10	8	-1E+10	1	-1E+10	1	-1E+10	1	-1E+10	1	-1E+10	1	-1E+10	1
4902554	43	C	04/12/2022	19:58	-135.891	49.457	0	332.70	0	4.5050	0	33.8970	0	26.858	0	329.599	0	-1e10	8	-1e10	8	-1E+10	1	-1E+10	1	-1E+10	1	-1E+10	1	-1E+10	1	-1E+10	1
4902554	43	C	04/12/2022	19:58	-135.891	49.457	0	333.80	0	4.5040	0	33.8990	0	26.860	0	330.688	0	-1e10	8	-1e10	8	-1E+10	1	-1E+10	1	-1E+10	1	-1E+10	1	-1E+10	1	-1E+10	1
4902554	43	C	04/12/2022	19:58	-135.891	49.457	0	334.80	0	4.5030	0	33.9000	0	26.861	0	331.678	0	-1e10	8	-1e10	8	-1E+10	1	-1E+10	1	-1E+10	1	-1E+10	1	-1E+10	1	-1E+10	1
4902554	43	C	04/12/2022	19:58	-135.891	49.457	0	335.90	0	4.5030	0	33.9000	0	26.861	0	332.766	0	-1e10	8	-1e10	8	-1E+10	1	-1E+10	1	-1E+10	1	-1E+10	1	-1E+10	1	-1E+10	1
4902554	43	C	04/12/2022	19:58	-135.891	49.457	0	336.90	0	4.5030	0	33.9000	0	26.861	0	333.756	0	-1e10	8	-1e10	8	-1E+10	1	-1E+10	1	-1E+10	1	-1E+10	1	-1E+10	1	-1E+10	1
4902554	43	C	04/12/2022	19:58	-135.891	49.457	0	338.00	0	4.5030	0	33.9010	0	26.862	0	334.845	0	-1e10	8	-1e10	8	-1E+10	1	-1E+10	1	-1E+10	1	-1E+10	1	-1E+10	1	-1E+10	1
4902554	43	C	04/12/2022	19:58	-135.891	49.457	0	339.00	0	4.5030	0	33.9010	0	26.862	0	335.835	0	-1e10	8	-1e10	8	-1E+10	1	-1E+10	1	-1E+10	1	-1E+10	1	-1E+10	1	-1E+10	1
4902554	43	C	04/12/2022	19:58	-135.891	49.457	0	340.10	0	4.5030	0	33.9020	0	26.863	0	336.924	0	-1e10	8	-1e10	8	-1E+10	1	-1E+10	1	-1E+10	1	-1E+10	1	-1E+10	1	-1E+10	1
4902554	43	C	04/12/2022	19:58	-135.891	49.457	0	341.10	0	4.5030	0	33.9040	0	26.864	0	337.914	0	-1e10	8	-1e10	8	-1E+10	1	-1E+10	1	-1E+10	1	-1E+10	1	-1E+10	1	-1E+10	1
4902554	43	C	04/12/2022	19:58	-135.891	49.457	0	342.20	0	4.5000	0	33.9100	0	26.869	0	339.002	0	-1e10	8	-1e10	8	-1E+10	1	-1E+10	1	-1E+10	1	-1E+10	1	-1E+10	1	-1E+10	1
4902554	43	C	04/12/2022	19:58	-135.891	49.457	0	343.20	0	4.5000	0	33.9110	0	26.870	0	339.992	0	-1e10	8	-1e10	8	-1E+10	1	-1E+10	1	-1E+10	1	-1E+10	1	-1E+10	1	-1E+10	1
4902554	43	C	04/12/2022	19:58	-135.891	49.457	0	344.30	0	4.4990	0	33.9130	0	26.872	0	341.081	0	-1e10	8	-1e10	8	-1E+10	1	-1E+10	1	-1E+10	1	-1E+10	1	-1E+10	1	-1E+10	1
4902554	43	C	04/12/2022	19:58	-135.891	49.457	0	345.30	0	4.4980	0	33.9140	0	26.873	0	342.071	0	-1e10	8	-1e10	8	-1E+10	1	-1E+10	1	-1E+10	1	-1E+10	1	-1E+10	1	-1E+10	1
4902554	43	C	04/12/2022	19:58	-135.891	49.457	0	346.40	0	4.4980	0	33.9150	0	26.874	0	343.160	0	-1e10	8	-1e10	8	-1E+10	1	-1E+10	1	-1E+10	1	-1E+10	1	-1E+10	1	-1E+10	1
4902554	43	C	04/12/2022	19:58	-135.891	49.457	0	347.40	0	4.4960	0	33.9170	0	26.875	0	344.150	0	-1e10	8	-1e10	8	-1E+10	1	-1E+10	1	-1E+10	1	-1E+10	1	-1E+10	1	-1E+10	1
4902554	43	C	04/12/2022	19:58	-135.891	49.457	0	348.50	0	4.4960	0	33.9180	0	26.876	0	345.238	0	-1e10	8	-1e10	8	-1E+10	1	-1E+10	1	-1E+10	1	-1E+10	1	-1E+10	1	-1E+10	1
4902554	43	C	04/12/2022	19:58	-135.891	49.457	0	349.60	0	4.4940	0	33.9200	0	26.878	0	346.327	0	-1e10	8	-1e10	8	-1E+10	1	-1E+10	1	-1E+10	1	-1E+10	1	-1E+10	1	-1E+10	1
4902554	43	C	04/12/2022	19:58	-135.891	49.457	0	352.70	0	4.4900	0	33.9230	0	26.881	0	349.396	0	-1e10	8	-1e10	8	-1E+10	1	-1E+10	1	-1E+10	1	-1E+10	1	-1E+10	1	-1E+10	1
4902554	43	C	04/12/2022	19:58	-135.891	49.457	0	357.90	0	4.4760	0	33.9250	0	26.884	0	354.542	0	-1e10	8	-1e10	8	-1E+10	1	-1E+10	1	-1E+10	1	-1E+10	1	-1E+10	1	-1E+10	1
4902554	43	C	04/12/2022	19:58	-135.891	49.457	0	363.20	0	4.4560	0	33.9270	0	26.888	0	359.788	0	-1e10	8	-1e10	8	-1E+10	1	-1E+10	1	-1E+10	1	-1E+10	1	-1E+10	1	-1E+10	1
4902554	43	C	04/12/2022	19:58	-135.891	49.457	0	367.90	0	4.4440	0	33.9320	0	26.893	0	364.440	0	-1e10	8	-1e10	8	-1E+10	1	-1E+10	1	-1E+10	1	-1E+10	1	-1E+10	1	-1E+10	1
4902554	43	C	04/12/2022	19:58	-135.891	49.457	0	372.80	0	4.4230	0	33.9400	0	26.902	0	369.289	0	-1e10	8	-1e10	8	-1E+10	1	-1E+10	1	-1E+10	1	-1E+10	1	-1E+10	1	-1E+10	1
4902554	43	C	04/12/2022	19:58	-135.891	49.457	0	378.00	0	4.4150	0	33.9460	0	26.907	0	374.436	0	-1e10	8	-1e10	8	-1E+10	1	-1E+10	1	-1E+10	1	-1E+10	1	-1E+10	1	-1E+10	1
4902554	43	C	04/12/2022	19:58	-135.891	49.457	0	382.80	0	4.4140	0	33.9540	0	26.914	0	379.186	0	-1e10	8	-1e10	8	-1E+10	1	-1E+10	1	-1E+10	1	-1E+10	1	-1E+10	1	-1E+10	1
4902554	43	C	04/12/2022	19:58	-135.891	49.457	0	387.60	0	4.4130	0	33.9620	0	26.920	0	383.936	0	-1e10	8	-1e10	8	-1E+10	1	-1E+10	1	-1E+10	1	-1E+10	1	-1E+10	1	-1E+10	1
4902554	43	C	04/12/2022	19:58	-135.891	49.457	0	392.60	0	4.3890	0	33.9690	0	26.929	0	388.884	0	-1e10	8	-1e10	8	-1E+10	1	-1E+10	1	-1E+10	1	-1E+10	1	-1E+10	1	-1E+10	1
4902554	43	C	04/12/2022	19:58	-135.891	49.457	0	397.60	0	4.3890	0	33.9750	0	26.933	0	393.832	0	-1e10	8	-1e10	8	-1E+10	1	-1E+10	1	-1E+10	1	-1E+10	1	-1E+10	1	-1E+10	1
4902554	43	C	04/12/2022	19:58	-135.891	49.457	0	402.80	0	4.3720	0	33.9830	0	26.942	0	398.978	0	-1e10	8	-1e10	8	-1E+10	1	-1E+10	1	-1E+10	1	-1E+10	1	-1E+10	1	-1E+10	1
4902554	43	C	04/12/2022	19:58	-135.891	49.457	0	408.10	0	4.3690	0	33.9890	0	26.947	0	404.223	0	-1e10	8	-1e10	8	-1E+10	1	-1E+10	1	-1E+10	1	-1E+10	1	-1E+10	1	-1E+10	1
4902554	43	C	04/12/2022	19:58	-135.891	49.457	0	413.10	0	4.3590	0	33.9970	0	26.954	0	409.170	0	-1e10	8	-1e10	8	-1E+10	1	-1E+10	1	-1E+10	1	-1E+10	1	-1E+10	1	-1E+10	1
4902554	43	C	04/12/2022	19:58	-135.891	49.457	0	417.70	0	4.3480	0	34.0050	0	26.962	0	413.722	0	-1e10	8	-1e10	8	-1E+10	1	-1E+10	1	-1E+10	1	-1E+10	1	-1E+10	1	-1E+10	1
4902554	43	C	04/12/2022	19:58	-135.891	49.457	0	422.50	0	4.3360	0	34.0120	0	26.969	0	418.471	0	-1e10	8	-1e10	8	-1E+10	1	-1E+10	1	-1E+10	1	-1E+10	1	-1E+10	1	-1E+10	1
4902554	43	C	04/12/2022	19:58	-135.891	49.457	0	427.90	0	4.3250	0	34.0180	0	26.975	0	423.814	0	-1e10	8	-1e10	8	-1E+10	1	-1E+10	1	-1E+10	1	-1E+10	1	-1E+10	1	-1E+10	1
4902554	43	C	04/12/2022	19:58	-135.891	49.457	0	433.00	0	4.3170	0	34.0240	0	26.980	0	428.860	0	-1e10	8	-1e10	8	-1E+10	1	-1E+10	1	-1E+10	1	-1E+10	1	-1E+10	1	-1E+10	1
4902554	43	C	04/12/2022	19:58	-135.891	49.457	0	437.50	0	4.3100	0	34.0260	0	26.983	0	433.312	0	-1e10	8	-1e10	8	-1E+10	1	-1E+10	1	-1E+10	1	-1E+10	1	-1E+10	1	-1E+10	1
4902554	43	C	04/12/2022	19:58	-135.891	49.457	0	442.50	0	4.3010	0	34.0310	0	26.988	0	438.259	0	-1e10	8	-1e10	8	-1E+10	1	-1E+10	1	-1E+10	1	-1E+10	1	-1E+10	1	-1E+10	1
4902554	43	C	04/12/2022	19:58	-135.891	49.457	0	447.60	0	4.2920	0	34.0350	0	26.992	0	443.305	0	-1e10	8	-1e10	8	-1E+10	1	-1E+10	1	-1E+10	1	-1E+10	1	-1E+10	1	-1E+10	1
4902554	43	C	04/12/2022	19:58	-135.891	49.457	0	452.80	0	4.2720	0	34.0410	0	26.999	0	448.450	0	-1e10	8	-1e10	8	-1E+10	1	-1E+10	1	-1E+10	1	-1E+10	1	-1E+10	1	-1E+10	1
4902554	43	C	04/12/2022	19:58	-135.891	49.457	0	458.10	0	4.2610	0	34.0470	0	27.005	0	453.693	0	-1e10	8	-1e10	8	-1E+10	1	-1E+10	1	-1E+10	1	-1E+10	1	-1E+10	1	-1E+10	1
4902554	43	C	04/12/2022	19:58	-135.891	49.457	0	462.80	0	4.2580	0	34.0500	0	27.007	0	458.342	0	-1e10	8	-1e10	8	-1E+10	1	-1E+10	1	-1E+10	1	-1E+10	1	-1E+10	1	-1E+10	1
4902554	43	C	04/12/2022	19:58	-135.891	49.457	0	467.50	0	4.2460	0	34.0540	0	27.012	0	462.992	0	-1e10	8	-1e10	8	-1E+10	1	-1E+10	1	-1E+10	1	-1E+10	1	-1E+10	1	-1E+10	1
4902554	43	C	04/12/2022	19:58	-135.891	49.457	0	473.00	0	4.2350	0	34.0590	0	27.017	0	468.433	0	-1e10	8	-1e10	8	-1E+10	1	-1E+10	1	-1E+10	1	-1E+10	1	-1E+10	1	-1E+10	1
4902554	43	C	04/12/2022	19:58	-135.891	49.457	0	478.20	0	4.2310	0	34.0610	0	27.019	0	473.577	0	-1e10	8	-1e10	8	-1E+10	1	-1E+10	1	-1E+10	1	-1E+10	1	-1E+10	1	-1E+10	1
4902554	43	C	04/12/2022	19:58	-135.891	49.457	0	482.90	0	4.2280	0	34.0640	0	27.022	0	478.226	0	-1e10	8	-1e10	8	-1E+10	1	-1E+10	1	-1E+10	1	-1E+10	1	-1E+10	1	-1E+10	1
4902554	43	C	04/12/2022	19:58	-135.891	49.457	0	487.80	0	4.2220	0	34.0660	0	27.024	0	483.073	0	-1e10	8	-1e10	8	-1E+10	1	-1E+10	1	-1E+10	1	-1E+10	1	-1E+10	1	-1E+10	1
4902554	43	C	04/12/2022	19:58	-135.891	49.457	0	492.80	0	4.2060	0	34.0710	0	27.030	0	488.018	0	-1e10	8	-1e10	8	-1E+10	1	-1E+10	1	-1E+10	1	-1E+10	1	-1E+10	1	-1E+10	1
4902554	43	C	04/12/2022	19:58	-135.891	49.457	0	497.70	0	4.2000	0	34.0730	0	27.032	0	492.865	0	-1e10	8	-1e10	8	-1E+10	1	-1E+10	1	-1E+10	1	-1E+10	1	-1E+10	1	-1E+10	1
4902554	43	C	04/12/2022	19:58	-135.891	49.457	0	502.70	0	4.1870	0	34.0800	0	27.039	0	497.810	0	-1e10	8	-1e10	8	-1E+10	1	-1E+10	1	-1E+10	1	-1E+10	1	-1E+10	1	-1E+10	1
4902554	43	C	04/12/2022	19:58	-135.891	49.457	0	507.60	0	4.1780	0	34.0840	0	27.043	0	502.657	0	-1e10	8	-1e10	8	-1E+10	1	-1E+10	1	-1E+10	1	-1E+10	1	-1E+10	1	-1E+10	1
4902554	43	C	04/12/2022	19:58	-135.891	49.457	0	512.70	0	4.1730	0	34.0880	0	27.047	0	507.701	0	-1e10	8	-1e10	8	-1E+10	1	-1E+10	1	-1E+10	1	-1E+10	1	-1E+10	1	-1E+10	1
4902554	43	C	04/12/2022	19:58	-135.891	49.457	0	517.70	0	4.1690	0	34.0920	0	27.050	0	512.646	0	-1e10	8	-1e10	8	-1E+10	1	-1E+10	1	-1E+10	1	-1E+10	1	-1E+10	1	-1E+10	1
4902554	43	C	04/12/2022	19:58	-135.891	49.457	0	522.80	0	4.1710	0	34.0970	0	27.054	0	517.690	0	-1e10	8	-1e10	8	-1E+10	1	-1E+10	1	-1E+10	1	-1E+10	1	-1E+10	1	-1E+10	1
4902554	43	C	04/12/2022	19:58	-135.891	49.457	0	527.90	0	4.1650	0	34.1020	0	27.059	0	522.734	0	-1e10	8	-1e10	8	-1E+10	1	-1E+10	1	-1E+10	1	-1E+10	1	-1E+10	1	-1E+10	1
4902554	43	C	04/12/2022	19:58	-135.891	49.457	0	533.00	0	4.1510	0	34.1060	0	27.063	0	527.777	0	-1e10	8	-1e10	8	-1E+10	1	-1E+10	1	-1E+10	1	-1E+10	1	-1E+10	1	-1E+10	1
4902554	43	C	04/12/2022	19:58	-135.891	49.457	0	538.20	0	4.1380	0	34.1090	0	27.067	0	532.920	0	-1e10	8	-1e10	8	-1E+10	1	-1E+10	1	-1E+10	1	-1E+10	1	-1E+10	1	-1E+10	1
4902554	43	C	04/12/2022	19:58	-135.891	49.457	0	543.30	0	4.1270	0	34.1110	0	27.070	0	537.963	0	-1e10	8	-1e10	8	-1E+10	1	-1E+10	1	-1E+10	1	-1E+10	1	-1E+10	1	-1E+10	1
4902554	43	C	04/12/2022	19:58	-135.891	49.457	0	547.90	0	4.1080	0	34.1150	0	27.075	0	542.512	0	-1e10	8	-1e10	8	-1E+10	1	-1E+10	1	-1E+10	1	-1E+10	1	-1E+10	1	-1E+10	1
4902554	43	C	04/12/2022	19:58	-135.891	49.457	0	552.60	0	4.0960	0	34.1170	0	27.078	0	547.159	0	-1e10	8	-1e10	8	-1E+10	1	-1E+10	1	-1E+10	1	-1E+10	1	-1E+10	1	-1E+10	1
4902554	43	C	04/12/2022	19:58	-135.891	49.457	0	557.70	0	4.0840	0	34.1200	0	27.082	0	552.202	0	-1e10	8	-1e10	8	-1E+10	1	-1E+10	1	-1E+10	1	-1E+10	1	-1E+10	1	-1E+10	1
4902554	43	C	04/12/2022	19:58	-135.891	49.457	0	562.90	0	4.0730	0	34.1240	0	27.086	0	557.344	0	-1e10	8	-1e10	8	-1E+10	1	-1E+10	1	-1E+10	1	-1E+10	1	-1E+10	1	-1E+10	1
4902554	43	C	04/12/2022	19:58	-135.891	49.457	0	567.80	0	4.0570	0	34.1280	0	27.091	0	562.189	0	-1e10	8	-1e10	8	-1E+10	1	-1E+10	1	-1E+10	1	-1E+10	1	-1E+10	1	-1E+10	1
4902554	43	C	04/12/2022	19:58	-135.891	49.457	0	572.60	0	4.0410	0	34.1340	0	27.097	0	566.935	0	-1e10	8	-1e10	8	-1E+10	1	-1E+10	1	-1E+10	1	-1E+10	1	-1E+10	1	-1E+10	1
4902554	43	C	04/12/2022	19:58	-135.891	49.457	0	578.00	0	4.0200	0	34.1410	0	27.105	0	572.274	0	-1e10	8	-1e10	8	-1E+10	1	-1E+10	1	-1E+10	1	-1E+10	1	-1E+10	1	-1E+10	1
4902554	43	C	04/12/2022	19:58	-135.891	49.457	0	583.00	0	4.0110	0	34.1440	0	27.108	0	577.218	0	-1e10	8	-1e10	8	-1E+10	1	-1E+10	1	-1E+10	1	-1E+10	1	-1E+10	1	-1E+10	1
4902554	43	C	04/12/2022	19:58	-135.891	49.457	0	587.90	0	4.0000	0	34.1480	0	27.113	0	582.062	0	-1e10	8	-1e10	8	-1E+10	1	-1E+10	1	-1E+10	1	-1E+10	1	-1E+10	1	-1E+10	1
4902554	43	C	04/12/2022	19:58	-135.891	49.457	0	592.90	0	3.9830	0	34.1520	0	27.118	0	587.006	0	-1e10	8	-1e10	8	-1E+10	1	-1E+10	1	-1E+10	1	-1E+10	1	-1E+10	1	-1E+10	1
4902554	43	C	04/12/2022	19:58	-135.891	49.457	0	597.80	0	3.9770	0	34.1540	0	27.120	0	591.850	0	-1e10	8	-1e10	8	-1E+10	1	-1E+10	1	-1E+10	1	-1E+10	1	-1E+10	1	-1E+10	1
4902554	43	C	04/12/2022	19:58	-135.891	49.457	0	602.80	0	3.9680	0	34.1570	0	27.123	0	596.793	0	-1e10	8	-1e10	8	-1E+10	1	-1E+10	1	-1E+10	1	-1E+10	1	-1E+10	1	-1E+10	1
4902554	43	C	04/12/2022	19:58	-135.891	49.457	0	607.80	0	3.9520	0	34.1630	0	27.130	0	601.736	0	-1e10	8	-1e10	8	-1E+10	1	-1E+10	1	-1E+10	1	-1E+10	1	-1E+10	1	-1E+10	1
4902554	43	C	04/12/2022	19:58	-135.891	49.457	0	612.80	0	3.9470	0	34.1650	0	27.132	0	606.679	0	-1e10	8	-1e10	8	-1E+10	1	-1E+10	1	-1E+10	1	-1E+10	1	-1E+10	1	-1E+10	1
4902554	43	C	04/12/2022	19:58	-135.891	49.457	0	617.80	0	3.9370	0	34.1670	0	27.135	0	611.622	0	-1e10	8	-1e10	8	-1E+10	1	-1E+10	1	-1E+10	1	-1E+10	1	-1E+10	1	-1E+10	1
4902554	43	C	04/12/2022	19:58	-135.891	49.457	0	622.80	0	3.9250	0	34.1710	0	27.139	0	616.564	0	-1e10	8	-1e10	8	-1E+10	1	-1E+10	1	-1E+10	1	-1E+10	1	-1E+10	1	-1E+10	1
4902554	43	C	04/12/2022	19:58	-135.891	49.457	0	627.80	0	3.9090	0	34.1750	0	27.144	0	621.507	0	-1e10	8	-1e10	8	-1E+10	1	-1E+10	1	-1E+10	1	-1E+10	1	-1E+10	1	-1E+10	1
4902554	43	C	04/12/2022	19:58	-135.891	49.457	0	632.90	0	3.8950	0	34.1790	0	27.148	0	626.548	0	-1e10	8	-1e10	8	-1E+10	1	-1E+10	1	-1E+10	1	-1E+10	1	-1E+10	1	-1E+10	1
4902554	43	C	04/12/2022	19:58	-135.891	49.457	0	637.90	0	3.8800	0	34.1810	0	27.152	0	631.490	0	-1e10	8	-1e10	8	-1E+10	1	-1E+10	1	-1E+10	1	-1E+10	1	-1E+10	1	-1E+10	1
4902554	43	C	04/12/2022	19:58	-135.891	49.457	0	643.10	0	3.8580	0	34.1870	0	27.159	0	636.630	0	-1e10	8	-1e10	8	-1E+10	1	-1E+10	1	-1E+10	1	-1E+10	1	-1E+10	1	-1E+10	1
4902554	43	C	04/12/2022	19:58	-135.891	49.457	0	647.80	0	3.8500	0	34.1890	0	27.161	0	641.275	0	-1e10	8	-1e10	8	-1E+10	1	-1E+10	1	-1E+10	1	-1E+10	1	-1E+10	1	-1E+10	1
4902554	43	C	04/12/2022	19:58	-135.891	49.457	0	652.70	0	3.8310	0	34.1930	0	27.166	0	646.118	0	-1e10	8	-1e10	8	-1E+10	1	-1E+10	1	-1E+10	1	-1E+10	1	-1E+10	1	-1E+10	1
4902554	43	C	04/12/2022	19:58	-135.891	49.457	0	657.60	0	3.8160	0	34.1970	0	27.171	0	650.961	0	-1e10	8	-1e10	8	-1E+10	1	-1E+10	1	-1E+10	1	-1E+10	1	-1E+10	1	-1E+10	1
4902554	43	C	04/12/2022	19:58	-135.891	49.457	0	662.60	0	3.7960	0	34.2020	0	27.177	0	655.903	0	-1e10	8	-1e10	8	-1E+10	1	-1E+10	1	-1E+10	1	-1E+10	1	-1E+10	1	-1E+10	1
4902554	43	C	04/12/2022	19:58	-135.891	49.457	0	667.60	0	3.7840	0	34.2080	0	27.183	0	660.845	0	-1e10	8	-1e10	8	-1E+10	1	-1E+10	1	-1E+10	1	-1E+10	1	-1E+10	1	-1E+10	1
4902554	43	C	04/12/2022	19:58	-135.891	49.457	0	672.60	0	3.7740	0	34.2130	0	27.188	0	665.786	0	-1e10	8	-1e10	8	-1E+10	1	-1E+10	1	-1E+10	1	-1E+10	1	-1E+10	1	-1E+10	1
4902554	43	C	04/12/2022	19:58	-135.891	49.457	0	677.80	0	3.7640	0	34.2160	0	27.191	0	670.925	0	-1e10	8	-1e10	8	-1E+10	1	-1E+10	1	-1E+10	1	-1E+10	1	-1E+10	1	-1E+10	1
4902554	43	C	04/12/2022	19:58	-135.891	49.457	0	682.90	0	3.7490	0	34.2190	0	27.195	0	675.965	0	-1e10	8	-1e10	8	-1E+10	1	-1E+10	1	-1E+10	1	-1E+10	1	-1E+10	1	-1E+10	1
4902554	43	C	04/12/2022	19:58	-135.891	49.457	0	688.10	0	3.7430	0	34.2210	0	27.197	0	681.104	0	-1e10	8	-1e10	8	-1E+10	1	-1E+10	1	-1E+10	1	-1E+10	1	-1E+10	1	-1E+10	1
4902554	43	C	04/12/2022	19:58	-135.891	49.457	0	693.30	0	3.7310	0	34.2240	0	27.201	0	686.242	0	-1e10	8	-1e10	8	-1E+10	1	-1E+10	1	-1E+10	1	-1E+10	1	-1E+10	1	-1E+10	1
4902554	43	C	04/12/2022	19:58	-135.891	49.457	0	697.90	0	3.7090	0	34.2290	0	27.207	0	690.788	0	-1e10	8	-1e10	8	-1E+10	1	-1E+10	1	-1E+10	1	-1E+10	1	-1E+10	1	-1E+10	1
4902554	43	C	04/12/2022	19:58	-135.891	49.457	0	702.60	0	3.6920	0	34.2340	0	27.213	0	695.432	0	-1e10	8	-1e10	8	-1E+10	1	-1E+10	1	-1E+10	1	-1E+10	1	-1E+10	1	-1E+10	1
4902554	43	C	04/12/2022	19:58	-135.891	49.457	0	707.80	0	3.6820	0	34.2360	0	27.216	0	700.570	0	-1e10	8	-1e10	8	-1E+10	1	-1E+10	1	-1E+10	1	-1E+10	1	-1E+10	1	-1E+10	1
4902554	43	C	04/12/2022	19:58	-135.891	49.457	0	713.00	0	3.6670	0	34.2400	0	27.220	0	705.708	0	-1e10	8	-1e10	8	-1E+10	1	-1E+10	1	-1E+10	1	-1E+10	1	-1E+10	1	-1E+10	1
4902554	43	C	04/12/2022	19:58	-135.891	49.457	0	718.20	0	3.6590	0	34.2410	0	27.222	0	710.846	0	-1e10	8	-1e10	8	-1E+10	1	-1E+10	1	-1E+10	1	-1E+10	1	-1E+10	1	-1E+10	1
4902554	43	C	04/12/2022	19:58	-135.891	49.457	0	722.90	0	3.6510	0	34.2430	0	27.224	0	715.490	0	-1e10	8	-1e10	8	-1E+10	1	-1E+10	1	-1E+10	1	-1E+10	1	-1E+10	1	-1E+10	1
4902554	43	C	04/12/2022	19:58	-135.891	49.457	0	727.50	0	3.6330	0	34.2470	0	27.229	0	720.035	0	-1e10	8	-1e10	8	-1E+10	1	-1E+10	1	-1E+10	1	-1E+10	1	-1E+10	1	-1E+10	1
4902554	43	C	04/12/2022	19:58	-135.891	49.457	0	733.00	0	3.6160	0	34.2510	0	27.234	0	725.469	0	-1e10	8	-1e10	8	-1E+10	1	-1E+10	1	-1E+10	1	-1E+10	1	-1E+10	1	-1E+10	1
4902554	43	C	04/12/2022	19:58	-135.891	49.457	0	738.00	0	3.6100	0	34.2520	0	27.236	0	730.409	0	-1e10	8	-1e10	8	-1E+10	1	-1E+10	1	-1E+10	1	-1E+10	1	-1E+10	1	-1E+10	1
4902554	43	C	04/12/2022	19:58	-135.891	49.457	0	742.90	0	3.6020	0	34.2550	0	27.239	0	735.250	0	-1e10	8	-1e10	8	-1E+10	1	-1E+10	1	-1E+10	1	-1E+10	1	-1E+10	1	-1E+10	1
4902554	43	C	04/12/2022	19:58	-135.891	49.457	0	747.90	0	3.5950	0	34.2560	0	27.240	0	740.190	0	-1e10	8	-1e10	8	-1E+10	1	-1E+10	1	-1E+10	1	-1E+10	1	-1E+10	1	-1E+10	1
4902554	43	C	04/12/2022	19:58	-135.891	49.457	0	753.00	0	3.5880	0	34.2580	0	27.243	0	745.228	0	-1e10	8	-1e10	8	-1E+10	1	-1E+10	1	-1E+10	1	-1E+10	1	-1E+10	1	-1E+10	1
4902554	43	C	04/12/2022	19:58	-135.891	49.457	0	758.10	0	3.5780	0	34.2610	0	27.246	0	750.266	0	-1e10	8	-1e10	8	-1E+10	1	-1E+10	1	-1E+10	1	-1E+10	1	-1E+10	1	-1E+10	1
4902554	43	C	04/12/2022	19:58	-135.891	49.457	0	762.80	0	3.5700	0	34.2630	0	27.248	0	754.909	0	-1e10	8	-1e10	8	-1E+10	1	-1E+10	1	-1E+10	1	-1E+10	1	-1E+10	1	-1E+10	1
4902554	43	C	04/12/2022	19:58	-135.891	49.457	0	767.60	0	3.5530	0	34.2670	0	27.253	0	759.651	0	-1e10	8	-1e10	8	-1E+10	1	-1E+10	1	-1E+10	1	-1E+10	1	-1E+10	1	-1E+10	1
4902554	43	C	04/12/2022	19:58	-135.891	49.457	0	773.00	0	3.5350	0	34.2710	0	27.258	0	764.985	0	-1e10	8	-1e10	8	-1E+10	1	-1E+10	1	-1E+10	1	-1E+10	1	-1E+10	1	-1E+10	1
4902554	43	C	04/12/2022	19:58	-135.891	49.457	0	778.00	0	3.5170	0	34.2750	0	27.263	0	769.924	0	-1e10	8	-1e10	8	-1E+10	1	-1E+10	1	-1E+10	1	-1E+10	1	-1E+10	1	-1E+10	1
4902554	43	C	04/12/2022	19:58	-135.891	49.457	0	783.00	0	3.5070	0	34.2780	0	27.266	0	774.863	0	-1e10	8	-1e10	8	-1E+10	1	-1E+10	1	-1E+10	1	-1E+10	1	-1E+10	1	-1E+10	1
4902554	43	C	04/12/2022	19:58	-135.891	49.457	0	788.10	0	3.4930	0	34.2810	0	27.270	0	779.900	0	-1e10	8	-1e10	8	-1E+10	1	-1E+10	1	-1E+10	1	-1E+10	1	-1E+10	1	-1E+10	1
4902554	43	C	04/12/2022	19:58	-135.891	49.457	0	792.90	0	3.4800	0	34.2830	0	27.273	0	784.641	0	-1e10	8	-1e10	8	-1E+10	1	-1E+10	1	-1E+10	1	-1E+10	1	-1E+10	1	-1E+10	1
4902554	43	C	04/12/2022	19:58	-135.891	49.457	0	797.80	0	3.4720	0	34.2860	0	27.276	0	789.481	0	-1e10	8	-1e10	8	-1E+10	1	-1E+10	1	-1E+10	1	-1E+10	1	-1E+10	1	-1E+10	1
4902554	43	C	04/12/2022	19:58	-135.891	49.457	0	802.60	0	3.4620	0	34.2870	0	27.278	0	794.222	0	-1e10	8	-1e10	8	-1E+10	1	-1E+10	1	-1E+10	1	-1E+10	1	-1E+10	1	-1E+10	1
4902554	43	C	04/12/2022	19:58	-135.891	49.457	0	807.60	0	3.4460	0	34.2910	0	27.283	0	799.160	0	-1e10	8	-1e10	8	-1E+10	1	-1E+10	1	-1E+10	1	-1E+10	1	-1E+10	1	-1E+10	1
4902554	43	C	04/12/2022	19:58	-135.891	49.457	0	812.70	0	3.4420	0	34.2920	0	27.284	0	804.197	0	-1e10	8	-1e10	8	-1E+10	1	-1E+10	1	-1E+10	1	-1E+10	1	-1E+10	1	-1E+10	1
4902554	43	C	04/12/2022	19:58	-135.891	49.457	0	817.70	0	3.4330	0	34.2940	0	27.287	0	809.135	0	-1e10	8	-1e10	8	-1E+10	1	-1E+10	1	-1E+10	1	-1E+10	1	-1E+10	1	-1E+10	1
4902554	43	C	04/12/2022	19:58	-135.891	49.457	0	822.80	0	3.4280	0	34.2940	0	27.287	0	814.171	0	-1e10	8	-1e10	8	-1E+10	1	-1E+10	1	-1E+10	1	-1E+10	1	-1E+10	1	-1E+10	1
4902554	43	C	04/12/2022	19:58	-135.891	49.457	0	827.80	0	3.4170	0	34.2970	0	27.291	0	819.109	0	-1e10	8	-1e10	8	-1E+10	1	-1E+10	1	-1E+10	1	-1E+10	1	-1E+10	1	-1E+10	1
4902554	43	C	04/12/2022	19:58	-135.891	49.457	0	832.80	0	3.4080	0	34.2980	0	27.292	0	824.047	0	-1e10	8	-1e10	8	-1E+10	1	-1E+10	1	-1E+10	1	-1E+10	1	-1E+10	1	-1E+10	1
4902554	43	C	04/12/2022	19:58	-135.891	49.457	0	837.90	0	3.4000	0	34.2990	0	27.294	0	829.083	0	-1e10	8	-1e10	8	-1E+10	1	-1E+10	1	-1E+10	1	-1E+10	1	-1E+10	1	-1E+10	1
4902554	43	C	04/12/2022	19:58	-135.891	49.457	0	842.90	0	3.3960	0	34.3000	0	27.295	0	834.021	0	-1e10	8	-1e10	8	-1E+10	1	-1E+10	1	-1E+10	1	-1E+10	1	-1E+10	1	-1E+10	1
4902554	43	C	04/12/2022	19:58	-135.891	49.457	0	848.00	0	3.3810	0	34.3030	0	27.299	0	839.057	0	-1e10	8	-1e10	8	-1E+10	1	-1E+10	1	-1E+10	1	-1E+10	1	-1E+10	1	-1E+10	1
4902554	43	C	04/12/2022	19:58	-135.891	49.457	0	853.10	0	3.3710	0	34.3050	0	27.301	0	844.092	0	-1e10	8	-1e10	8	-1E+10	1	-1E+10	1	-1E+10	1	-1E+10	1	-1E+10	1	-1E+10	1
4902554	43	C	04/12/2022	19:58	-135.891	49.457	0	857.90	0	3.3540	0	34.3060	0	27.304	0	848.832	0	-1e10	8	-1e10	8	-1E+10	1	-1E+10	1	-1E+10	1	-1E+10	1	-1E+10	1	-1E+10	1
4902554	43	C	04/12/2022	19:58	-135.891	49.457	0	862.80	0	3.3410	0	34.3090	0	27.307	0	853.670	0	-1e10	8	-1e10	8	-1E+10	1	-1E+10	1	-1E+10	1	-1E+10	1	-1E+10	1	-1E+10	1
4902554	43	C	04/12/2022	19:58	-135.891	49.457	0	867.80	0	3.3250	0	34.3110	0	27.311	0	858.607	0	-1e10	8	-1e10	8	-1E+10	1	-1E+10	1	-1E+10	1	-1E+10	1	-1E+10	1	-1E+10	1
4902554	43	C	04/12/2022	19:58	-135.891	49.457	0	872.80	0	3.3140	0	34.3130	0	27.313	0	863.544	0	-1e10	8	-1e10	8	-1E+10	1	-1E+10	1	-1E+10	1	-1E+10	1	-1E+10	1	-1E+10	1
4902554	43	C	04/12/2022	19:58	-135.891	49.457	0	877.90	0	3.3020	0	34.3160	0	27.317	0	868.579	0	-1e10	8	-1e10	8	-1E+10	1	-1E+10	1	-1E+10	1	-1E+10	1	-1E+10	1	-1E+10	1
4902554	43	C	04/12/2022	19:58	-135.891	49.457	0	883.10	0	3.2990	0	34.3170	0	27.318	0	873.713	0	-1e10	8	-1e10	8	-1E+10	1	-1E+10	1	-1E+10	1	-1E+10	1	-1E+10	1	-1E+10	1
4902554	43	C	04/12/2022	19:58	-135.891	49.457	0	887.90	0	3.2930	0	34.3180	0	27.319	0	878.452	0	-1e10	8	-1e10	8	-1E+10	1	-1E+10	1	-1E+10	1	-1E+10	1	-1E+10	1	-1E+10	1
4902554	43	C	04/12/2022	19:58	-135.891	49.457	0	892.80	0	3.2830	0	34.3200	0	27.322	0	883.290	0	-1e10	8	-1e10	8	-1E+10	1	-1E+10	1	-1E+10	1	-1E+10	1	-1E+10	1	-1E+10	1
4902554	43	C	04/12/2022	19:58	-135.891	49.457	0	898.00	0	3.2680	0	34.3230	0	27.326	0	888.423	0	-1e10	8	-1e10	8	-1E+10	1	-1E+10	1	-1E+10	1	-1E+10	1	-1E+10	1	-1E+10	1
4902554	43	C	04/12/2022	19:58	-135.891	49.457	0	902.90	0	3.2600	0	34.3260	0	27.329	0	893.260	0	-1e10	8	-1e10	8	-1E+10	1	-1E+10	1	-1E+10	1	-1E+10	1	-1E+10	1	-1E+10	1
4902554	43	C	04/12/2022	19:58	-135.891	49.457	0	907.80	0	3.2510	0	34.3270	0	27.331	0	898.098	0	-1e10	8	-1e10	8	-1E+10	1	-1E+10	1	-1E+10	1	-1E+10	1	-1E+10	1	-1E+10	1
4902554	43	C	04/12/2022	19:58	-135.891	49.457	0	913.10	0	3.2320	0	34.3300	0	27.335	0	903.329	0	-1e10	8	-1e10	8	-1E+10	1	-1E+10	1	-1E+10	1	-1E+10	1	-1E+10	1	-1E+10	1
4902554	43	C	04/12/2022	19:58	-135.891	49.457	0	918.10	0	3.2170	0	34.3310	0	27.337	0	908.265	0	-1e10	8	-1e10	8	-1E+10	1	-1E+10	1	-1E+10	1	-1E+10	1	-1E+10	1	-1E+10	1
4902554	43	C	04/12/2022	19:58	-135.891	49.457	0	923.00	0	3.2080	0	34.3330	0	27.339	0	913.102	0	-1e10	8	-1e10	8	-1E+10	1	-1E+10	1	-1E+10	1	-1E+10	1	-1E+10	1	-1E+10	1
4902554	43	C	04/12/2022	19:58	-135.891	49.457	0	928.10	0	3.1990	0	34.3360	0	27.343	0	918.136	0	-1e10	8	-1e10	8	-1E+10	1	-1E+10	1	-1E+10	1	-1E+10	1	-1E+10	1	-1E+10	1
4902554	43	C	04/12/2022	19:58	-135.891	49.457	0	932.70	0	3.1890	0	34.3390	0	27.346	0	922.677	0	-1e10	8	-1e10	8	-1E+10	1	-1E+10	1	-1E+10	1	-1E+10	1	-1E+10	1	-1E+10	1
4902554	43	C	04/12/2022	19:58	-135.891	49.457	0	937.70	0	3.1770	0	34.3410	0	27.349	0	927.612	0	-1e10	8	-1e10	8	-1E+10	1	-1E+10	1	-1E+10	1	-1E+10	1	-1E+10	1	-1E+10	1
4902554	43	C	04/12/2022	19:58	-135.891	49.457	0	942.80	0	3.1700	0	34.3420	0	27.350	0	932.646	0	-1e10	8	-1e10	8	-1E+10	1	-1E+10	1	-1E+10	1	-1E+10	1	-1E+10	1	-1E+10	1
4902554	43	C	04/12/2022	19:58	-135.891	49.457	0	948.00	0	3.1580	0	34.3430	0	27.352	0	937.778	0	-1e10	8	-1e10	8	-1E+10	1	-1E+10	1	-1E+10	1	-1E+10	1	-1E+10	1	-1E+10	1
4902554	43	C	04/12/2022	19:58	-135.891	49.457	0	953.10	0	3.1490	0	34.3450	0	27.355	0	942.811	0	-1e10	8	-1e10	8	-1E+10	1	-1E+10	1	-1E+10	1	-1E+10	1	-1E+10	1	-1E+10	1
4902554	43	C	04/12/2022	19:58	-135.891	49.457	0	957.90	0	3.1390	0	34.3460	0	27.356	0	947.549	0	-1e10	8	-1e10	8	-1E+10	1	-1E+10	1	-1E+10	1	-1E+10	1	-1E+10	1	-1E+10	1
4902554	43	C	04/12/2022	19:58	-135.891	49.457	0	962.70	0	3.1260	0	34.3480	0	27.359	0	952.286	0	-1e10	8	-1e10	8	-1E+10	1	-1E+10	1	-1E+10	1	-1E+10	1	-1E+10	1	-1E+10	1
4902554	43	C	04/12/2022	19:58	-135.891	49.457	0	967.90	0	3.1170	0	34.3500	0	27.362	0	957.418	0	-1e10	8	-1e10	8	-1E+10	1	-1E+10	1	-1E+10	1	-1E+10	1	-1E+10	1	-1E+10	1
4902554	43	C	04/12/2022	19:58	-135.891	49.457	0	973.30	0	3.1120	0	34.3520	0	27.364	0	962.747	0	-1e10	8	-1e10	8	-1E+10	1	-1E+10	1	-1E+10	1	-1E+10	1	-1E+10	1	-1E+10	1
4902554	43	C	04/12/2022	19:58	-135.891	49.457	0	978.10	0	3.1070	0	34.3540	0	27.366	0	967.484	0	-1e10	8	-1e10	8	-1E+10	1	-1E+10	1	-1E+10	1	-1E+10	1	-1E+10	1	-1E+10	1
4902554	43	C	04/12/2022	19:58	-135.891	49.457	0	982.90	0	3.0940	0	34.3560	0	27.369	0	972.221	0	-1e10	8	-1e10	8	-1E+10	1	-1E+10	1	-1E+10	1	-1E+10	1	-1E+10	1	-1E+10	1
4902554	43	C	04/12/2022	19:58	-135.891	49.457	0	987.80	0	3.0790	0	34.3580	0	27.372	0	977.056	0	-1e10	8	-1e10	8	-1E+10	1	-1E+10	1	-1E+10	1	-1E+10	1	-1E+10	1	-1E+10	1
4902554	43	C	04/12/2022	19:58	-135.891	49.457	0	992.70	0	3.0720	0	34.3600	0	27.374	0	981.891	0	-1e10	8	-1e10	8	-1E+10	1	-1E+10	1	-1E+10	1	-1E+10	1	-1E+10	1	-1E+10	1
4902554	43	C	04/12/2022	19:58	-135.891	49.457	0	997.60	0	3.0690	0	34.3600	0	27.374	0	986.726	0	-1e10	8	-1e10	8	-1E+10	1	-1E+10	1	-1E+10	1	-1E+10	1	-1E+10	1	-1E+10	1
4902554	43	C	04/12/2022	19:58	-135.891	49.457	0	1005.00	0	3.0550	0	34.3620	0	27.377	0	994.028	0	-1e10	8	-1e10	8	-1E+10	1	-1E+10	1	-1E+10	1	-1E+10	1	-1E+10	1	-1E+10	1
4902554	43	C	04/12/2022	19:58	-135.891	49.457	0	1015.10	0	3.0390	0	34.3660	0	27.382	0	1003.994	0	-1e10	8	-1e10	8	-1E+10	1	-1E+10	1	-1E+10	1	-1E+10	1	-1E+10	1	-1E+10	1
4902554	43	C	04/12/2022	19:58	-135.891	49.457	0	1025.20	0	3.0210	0	34.3700	0	27.387	0	1013.959	0	-1e10	8	-1e10	8	-1E+10	1	-1E+10	1	-1E+10	1	-1E+10	1	-1E+10	1	-1E+10	1
4902554	43	C	04/12/2022	19:58	-135.891	49.457	0	1035.40	0	3.0070	0	34.3720	0	27.390	0	1024.022	0	-1e10	8	-1e10	8	-1E+10	1	-1E+10	1	-1E+10	1	-1E+10	1	-1E+10	1	-1E+10	1
4902554	43	C	04/12/2022	19:58	-135.891	49.457	0	1045.70	0	2.9850	0	34.3760	0	27.395	0	1034.183	0	-1e10	8	-1e10	8	-1E+10	1	-1E+10	1	-1E+10	1	-1E+10	1	-1E+10	1	-1E+10	1
4902554	43	C	04/12/2022	19:58	-135.891	49.457	0	1055.50	0	2.9650	0	34.3800	0	27.400	0	1043.851	0	-1e10	8	-1e10	8	-1E+10	1	-1E+10	1	-1E+10	1	-1E+10	1	-1E+10	1	-1E+10	1
4902554	43	C	04/12/2022	19:58	-135.891	49.457	0	1065.40	0	2.9480	0	34.3830	0	27.404	0	1053.617	0	-1e10	8	-1e10	8	-1E+10	1	-1E+10	1	-1E+10	1	-1E+10	1	-1E+10	1	-1E+10	1
4902554	43	C	04/12/2022	19:58	-135.891	49.457	0	1075.30	0	2.9300	0	34.3870	0	27.409	0	1063.382	0	-1e10	8	-1e10	8	-1E+10	1	-1E+10	1	-1E+10	1	-1E+10	1	-1E+10	1	-1E+10	1
4902554	43	C	04/12/2022	19:58	-135.891	49.457	0	1085.40	0	2.9180	0	34.3900	0	27.412	0	1073.345	0	-1e10	8	-1e10	8	-1E+10	1	-1E+10	1	-1E+10	1	-1E+10	1	-1E+10	1	-1E+10	1
4902554	43	C	04/12/2022	19:58	-135.891	49.457	0	1095.40	0	2.9110	0	34.3910	0	27.414	0	1083.208	0	-1e10	8	-1e10	8	-1E+10	1	-1E+10	1	-1E+10	1	-1E+10	1	-1E+10	1	-1E+10	1
4902554	43	C	04/12/2022	19:58	-135.891	49.457	0	1105.50	0	2.8930	0	34.3940	0	27.418	0	1093.169	0	-1e10	8	-1e10	8	-1E+10	1	-1E+10	1	-1E+10	1	-1E+10	1	-1E+10	1	-1E+10	1
4902554	43	C	04/12/2022	19:58	-135.891	49.457	0	1115.40	0	2.8780	0	34.3970	0	27.422	0	1102.933	0	-1e10	8	-1e10	8	-1E+10	1	-1E+10	1	-1E+10	1	-1E+10	1	-1E+10	1	-1E+10	1
4902554	43	C	04/12/2022	19:58	-135.891	49.457	0	1125.30	0	2.8700	0	34.3990	0	27.424	0	1112.696	0	-1e10	8	-1e10	8	-1E+10	1	-1E+10	1	-1E+10	1	-1E+10	1	-1E+10	1	-1E+10	1
4902554	43	C	04/12/2022	19:58	-135.891	49.457	0	1135.60	0	2.8580	0	34.4010	0	27.427	0	1122.853	0	-1e10	8	-1e10	8	-1E+10	1	-1E+10	1	-1E+10	1	-1E+10	1	-1E+10	1	-1E+10	1
4902554	43	C	04/12/2022	19:58	-135.891	49.457	0	1145.40	0	2.8380	0	34.4050	0	27.432	0	1132.517	0	-1e10	8	-1e10	8	-1E+10	1	-1E+10	1	-1E+10	1	-1E+10	1	-1E+10	1	-1E+10	1
4902554	43	C	04/12/2022	19:58	-135.891	49.457	0	1155.40	0	2.8230	0	34.4070	0	27.435	0	1142.377	0	-1e10	8	-1e10	8	-1E+10	1	-1E+10	1	-1E+10	1	-1E+10	1	-1E+10	1	-1E+10	1
4902554	43	C	04/12/2022	19:58	-135.891	49.457	0	1165.50	0	2.8040	0	34.4110	0	27.440	0	1152.335	0	-1e10	8	-1e10	8	-1E+10	1	-1E+10	1	-1E+10	1	-1E+10	1	-1E+10	1	-1E+10	1
4902554	43	C	04/12/2022	19:58	-135.891	49.457	0	1175.70	0	2.7900	0	34.4140	0	27.443	0	1162.392	0	-1e10	8	-1e10	8	-1E+10	1	-1E+10	1	-1E+10	1	-1E+10	1	-1E+10	1	-1E+10	1
4902554	43	C	04/12/2022	19:58	-135.891	49.457	0	1185.30	0	2.7740	0	34.4170	0	27.447	0	1171.857	0	-1e10	8	-1e10	8	-1E+10	1	-1E+10	1	-1E+10	1	-1E+10	1	-1E+10	1	-1E+10	1
4902554	43	C	04/12/2022	19:58	-135.891	49.457	0	1195.20	0	2.7610	0	34.4190	0	27.450	0	1181.616	0	-1e10	8	-1e10	8	-1E+10	1	-1E+10	1	-1E+10	1	-1E+10	1	-1E+10	1	-1E+10	1
4902554	43	C	04/12/2022	19:58	-135.891	49.457	0	1205.60	0	2.7490	0	34.4220	0	27.453	0	1191.869	0	-1e10	8	-1e10	8	-1E+10	1	-1E+10	1	-1E+10	1	-1E+10	1	-1E+10	1	-1E+10	1
4902554	43	C	04/12/2022	19:58	-135.891	49.457	0	1215.60	0	2.7310	0	34.4250	0	27.457	0	1201.726	0	-1e10	8	-1e10	8	-1E+10	1	-1E+10	1	-1E+10	1	-1E+10	1	-1E+10	1	-1E+10	1
4902554	43	C	04/12/2022	19:58	-135.891	49.457	0	1225.40	0	2.7070	0	34.4300	0	27.463	0	1211.386	0	-1e10	8	-1e10	8	-1E+10	1	-1E+10	1	-1E+10	1	-1E+10	1	-1E+10	1	-1E+10	1
4902554	43	C	04/12/2022	19:58	-135.891	49.457	0	1235.50	0	2.6970	0	34.4320	0	27.466	0	1221.342	0	-1e10	8	-1e10	8	-1E+10	1	-1E+10	1	-1E+10	1	-1E+10	1	-1E+10	1	-1E+10	1
4902554	43	C	04/12/2022	19:58	-135.891	49.457	0	1245.50	0	2.6840	0	34.4350	0	27.470	0	1231.198	0	-1e10	8	-1e10	8	-1E+10	1	-1E+10	1	-1E+10	1	-1E+10	1	-1E+10	1	-1E+10	1
4902554	43	C	04/12/2022	19:58	-135.891	49.457	0	1255.20	0	2.6740	0	34.4370	0	27.472	0	1240.758	0	-1e10	8	-1e10	8	-1E+10	1	-1E+10	1	-1E+10	1	-1E+10	1	-1E+10	1	-1E+10	1
4902554	43	C	04/12/2022	19:58	-135.891	49.457	0	1265.20	0	2.6570	0	34.4400	0	27.476	0	1250.613	0	-1e10	8	-1e10	8	-1E+10	1	-1E+10	1	-1E+10	1	-1E+10	1	-1E+10	1	-1E+10	1
4902554	43	C	04/12/2022	19:58	-135.891	49.457	0	1275.10	0	2.6410	0	34.4430	0	27.480	0	1260.369	0	-1e10	8	-1e10	8	-1E+10	1	-1E+10	1	-1E+10	1	-1E+10	1	-1E+10	1	-1E+10	1
4902554	43	C	04/12/2022	19:58	-135.891	49.457	0	1285.40	0	2.6280	0	34.4460	0	27.483	0	1270.519	0	-1e10	8	-1e10	8	-1E+10	1	-1E+10	1	-1E+10	1	-1E+10	1	-1E+10	1	-1E+10	1
4902554	43	C	04/12/2022	19:58	-135.891	49.457	0	1295.40	0	2.6070	0	34.4500	0	27.488	0	1280.373	0	-1e10	8	-1e10	8	-1E+10	1	-1E+10	1	-1E+10	1	-1E+10	1	-1E+10	1	-1E+10	1
4902554	43	C	04/12/2022	19:58	-135.891	49.457	0	1305.70	0	2.5900	0	34.4530	0	27.492	0	1290.522	0	-1e10	8	-1e10	8	-1E+10	1	-1E+10	1	-1E+10	1	-1E+10	1	-1E+10	1	-1E+10	1
4902554	43	C	04/12/2022	19:58	-135.891	49.457	0	1315.60	0	2.5760	0	34.4560	0	27.496	0	1300.276	0	-1e10	8	-1e10	8	-1E+10	1	-1E+10	1	-1E+10	1	-1E+10	1	-1E+10	1	-1E+10	1
4902554	43	C	04/12/2022	19:58	-135.891	49.457	0	1325.20	0	2.5660	0	34.4580	0	27.498	0	1309.735	0	-1e10	8	-1e10	8	-1E+10	1	-1E+10	1	-1E+10	1	-1E+10	1	-1E+10	1	-1E+10	1
4902554	43	C	04/12/2022	19:58	-135.891	49.457	0	1335.10	0	2.5600	0	34.4590	0	27.500	0	1319.488	0	-1e10	8	-1e10	8	-1E+10	1	-1E+10	1	-1E+10	1	-1E+10	1	-1E+10	1	-1E+10	1
4902554	43	C	04/12/2022	19:58	-135.891	49.457	0	1345.10	0	2.5500	0	34.4610	0	27.502	0	1329.340	0	-1e10	8	-1e10	8	-1E+10	1	-1E+10	1	-1E+10	1	-1E+10	1	-1E+10	1	-1E+10	1
4902554	43	C	04/12/2022	19:58	-135.891	49.457	0	1355.20	0	2.5360	0	34.4640	0	27.506	0	1339.289	0	-1e10	8	-1e10	8	-1E+10	1	-1E+10	1	-1E+10	1	-1E+10	1	-1E+10	1	-1E+10	1
4902554	43	C	04/12/2022	19:58	-135.891	49.457	0	1365.50	0	2.5250	0	34.4660	0	27.509	0	1349.435	0	-1e10	8	-1e10	8	-1E+10	1	-1E+10	1	-1E+10	1	-1E+10	1	-1E+10	1	-1E+10	1
4902554	43	C	04/12/2022	19:58	-135.891	49.457	0	1375.60	0	2.5190	0	34.4680	0	27.511	0	1359.384	0	-1e10	8	-1e10	8	-1E+10	1	-1E+10	1	-1E+10	1	-1E+10	1	-1E+10	1	-1E+10	1
4902554	43	C	04/12/2022	19:58	-135.891	49.457	0	1385.30	0	2.5060	0	34.4700	0	27.513	0	1368.938	0	-1e10	8	-1e10	8	-1E+10	1	-1E+10	1	-1E+10	1	-1E+10	1	-1E+10	1	-1E+10	1
4902554	43	C	04/12/2022	19:58	-135.891	49.457	0	1395.50	0	2.4970	0	34.4720	0	27.516	0	1378.985	0	-1e10	8	-1e10	8	-1E+10	1	-1E+10	1	-1E+10	1	-1E+10	1	-1E+10	1	-1E+10	1
4902554	43	C	04/12/2022	19:58	-135.891	49.457	0	1405.80	0	2.4900	0	34.4730	0	27.517	0	1389.129	0	-1e10	8	-1e10	8	-1E+10	1	-1E+10	1	-1E+10	1	-1E+10	1	-1E+10	1	-1E+10	1
4902554	43	C	04/12/2022	19:58	-135.891	49.457	0	1415.70	0	2.4810	0	34.4750	0	27.520	0	1398.878	0	-1e10	8	-1e10	8	-1E+10	1	-1E+10	1	-1E+10	1	-1E+10	1	-1E+10	1	-1E+10	1
4902554	43	C	04/12/2022	19:58	-135.891	49.457	0	1425.80	0	2.4620	0	34.4790	0	27.525	0	1408.825	0	-1e10	8	-1e10	8	-1E+10	1	-1E+10	1	-1E+10	1	-1E+10	1	-1E+10	1	-1E+10	1
4902554	43	C	04/12/2022	19:58	-135.891	49.457	0	1435.40	0	2.4490	0	34.4810	0	27.527	0	1418.278	0	-1e10	8	-1e10	8	-1E+10	1	-1E+10	1	-1E+10	1	-1E+10	1	-1E+10	1	-1E+10	1
4902554	43	C	04/12/2022	19:58	-135.891	49.457	0	1445.20	0	2.4390	0	34.4830	0	27.530	0	1427.928	0	-1e10	8	-1e10	8	-1E+10	1	-1E+10	1	-1E+10	1	-1E+10	1	-1E+10	1	-1E+10	1
4902554	43	C	04/12/2022	19:58	-135.891	49.457	0	1455.40	0	2.4310	0	34.4850	0	27.532	0	1437.972	0	-1e10	8	-1e10	8	-1E+10	1	-1E+10	1	-1E+10	1	-1E+10	1	-1E+10	1	-1E+10	1
4902554	43	C	04/12/2022	19:58	-135.891	49.457	0	1465.70	0	2.4140	0	34.4880	0	27.536	0	1448.113	0	-1e10	8	-1e10	8	-1E+10	1	-1E+10	1	-1E+10	1	-1E+10	1	-1E+10	1	-1E+10	1
4902554	43	C	04/12/2022	19:58	-135.891	49.457	0	1476.00	0	2.4000	0	34.4920	0	27.540	0	1458.254	0	-1e10	8	-1e10	8	-1E+10	1	-1E+10	1	-1E+10	1	-1E+10	1	-1E+10	1	-1E+10	1
4902554	43	C	04/12/2022	19:58	-135.891	49.457	0	1485.60	0	2.3890	0	34.4940	0	27.543	0	1467.705	0	-1e10	8	-1e10	8	-1E+10	1	-1E+10	1	-1E+10	1	-1E+10	1	-1E+10	1	-1E+10	1
4902554	43	C	04/12/2022	19:58	-135.891	49.457	0	1495.20	0	2.3810	0	34.4950	0	27.544	0	1477.156	0	-1e10	8	-1e10	8	-1E+10	1	-1E+10	1	-1E+10	1	-1E+10	1	-1E+10	1	-1E+10	1
4902554	43	C	04/12/2022	19:58	-135.891	49.457	0	1505.10	0	2.3740	0	34.4970	0	27.547	0	1486.902	0	-1e10	8	-1e10	8	-1E+10	1	-1E+10	1	-1E+10	1	-1E+10	1	-1E+10	1	-1E+10	1
4902554	43	C	04/12/2022	19:58	-135.891	49.457	0	1515.20	0	2.3640	0	34.4990	0	27.549	0	1496.844	0	-1e10	8	-1e10	8	-1E+10	1	-1E+10	1	-1E+10	1	-1E+10	1	-1E+10	1	-1E+10	1
4902554	43	C	04/12/2022	19:58	-135.891	49.457	0	1525.40	0	2.3580	0	34.5000	0	27.551	0	1506.884	0	-1e10	8	-1e10	8	-1E+10	1	-1E+10	1	-1E+10	1	-1E+10	1	-1E+10	1	-1E+10	1
4902554	43	C	04/12/2022	19:58	-135.891	49.457	0	1535.30	0	2.3500	0	34.5020	0	27.553	0	1516.628	0	-1e10	8	-1e10	8	-1E+10	1	-1E+10	1	-1E+10	1	-1E+10	1	-1E+10	1	-1E+10	1
4902554	43	C	04/12/2022	19:58	-135.891	49.457	0	1545.30	0	2.3370	0	34.5040	0	27.556	0	1526.471	0	-1e10	8	-1e10	8	-1E+10	1	-1E+10	1	-1E+10	1	-1E+10	1	-1E+10	1	-1E+10	1
4902554	43	C	04/12/2022	19:58	-135.891	49.457	0	1555.30	0	2.3280	0	34.5060	0	27.558	0	1536.313	0	-1e10	8	-1e10	8	-1E+10	1	-1E+10	1	-1E+10	1	-1E+10	1	-1E+10	1	-1E+10	1
4902554	43	C	04/12/2022	19:58	-135.891	49.457	0	1565.40	0	2.3170	0	34.5090	0	27.561	0	1546.252	0	-1e10	8	-1e10	8	-1E+10	1	-1E+10	1	-1E+10	1	-1E+10	1	-1E+10	1	-1E+10	1
4902554	43	C	04/12/2022	19:58	-135.891	49.457	0	1575.50	0	2.3090	0	34.5110	0	27.564	0	1556.192	0	-1e10	8	-1e10	8	-1E+10	1	-1E+10	1	-1E+10	1	-1E+10	1	-1E+10	1	-1E+10	1
4902554	43	C	04/12/2022	19:58	-135.891	49.457	0	1585.10	0	2.3000	0	34.5120	0	27.565	0	1565.638	0	-1e10	8	-1e10	8	-1E+10	1	-1E+10	1	-1E+10	1	-1E+10	1	-1E+10	1	-1E+10	1
4902554	43	C	04/12/2022	19:58	-135.891	49.457	0	1595.40	0	2.2860	0	34.5150	0	27.569	0	1575.774	0	-1e10	8	-1e10	8	-1E+10	1	-1E+10	1	-1E+10	1	-1E+10	1	-1E+10	1	-1E+10	1
4902554	43	C	04/12/2022	19:58	-135.891	49.457	0	1605.50	0	2.2740	0	34.5170	0	27.571	0	1585.712	0	-1e10	8	-1e10	8	-1E+10	1	-1E+10	1	-1E+10	1	-1E+10	1	-1E+10	1	-1E+10	1
4902554	43	C	04/12/2022	19:58	-135.891	49.457	0	1615.30	0	2.2640	0	34.5200	0	27.575	0	1595.354	0	-1e10	8	-1e10	8	-1E+10	1	-1E+10	1	-1E+10	1	-1E+10	1	-1E+10	1	-1E+10	1
4902554	43	C	04/12/2022	19:58	-135.891	49.457	0	1625.20	0	2.2550	0	34.5220	0	27.577	0	1605.094	0	-1e10	8	-1e10	8	-1E+10	1	-1E+10	1	-1E+10	1	-1E+10	1	-1E+10	1	-1E+10	1
4902554	43	C	04/12/2022	19:58	-135.891	49.457	0	1635.40	0	2.2440	0	34.5240	0	27.580	0	1615.129	0	-1e10	8	-1e10	8	-1E+10	1	-1E+10	1	-1E+10	1	-1E+10	1	-1E+10	1	-1E+10	1
4902554	43	C	04/12/2022	19:58	-135.891	49.457	0	1645.70	0	2.2320	0	34.5260	0	27.582	0	1625.262	0	-1e10	8	-1e10	8	-1E+10	1	-1E+10	1	-1E+10	1	-1E+10	1	-1E+10	1	-1E+10	1
4902554	43	C	04/12/2022	19:58	-135.891	49.457	0	1655.10	0	2.2220	0	34.5280	0	27.585	0	1634.509	0	-1e10	8	-1e10	8	-1E+10	1	-1E+10	1	-1E+10	1	-1E+10	1	-1E+10	1	-1E+10	1
4902554	43	C	04/12/2022	19:58	-135.891	49.457	0	1665.30	0	2.2140	0	34.5300	0	27.587	0	1644.543	0	-1e10	8	-1e10	8	-1E+10	1	-1E+10	1	-1E+10	1	-1E+10	1	-1E+10	1	-1E+10	1
4902554	43	C	04/12/2022	19:58	-135.891	49.457	0	1675.50	0	2.2080	0	34.5310	0	27.588	0	1654.576	0	-1e10	8	-1e10	8	-1E+10	1	-1E+10	1	-1E+10	1	-1E+10	1	-1E+10	1	-1E+10	1
4902554	43	C	04/12/2022	19:58	-135.891	49.457	0	1685.60	0	2.1990	0	34.5330	0	27.591	0	1664.510	0	-1e10	8	-1e10	8	-1E+10	1	-1E+10	1	-1E+10	1	-1E+10	1	-1E+10	1	-1E+10	1
4902554	43	C	04/12/2022	19:58	-135.891	49.457	0	1695.50	0	2.1920	0	34.5340	0	27.592	0	1674.247	0	-1e10	8	-1e10	8	-1E+10	1	-1E+10	1	-1E+10	1	-1E+10	1	-1E+10	1	-1E+10	1
4902554	43	C	04/12/2022	19:58	-135.891	49.457	0	1705.40	0	2.1840	0	34.5360	0	27.594	0	1683.984	0	-1e10	8	-1e10	8	-1E+10	1	-1E+10	1	-1E+10	1	-1E+10	1	-1E+10	1	-1E+10	1
4902554	43	C	04/12/2022	19:58	-135.891	49.457	0	1715.40	0	2.1780	0	34.5370	0	27.596	0	1693.818	0	-1e10	8	-1e10	8	-1E+10	1	-1E+10	1	-1E+10	1	-1E+10	1	-1E+10	1	-1E+10	1
4902554	43	C	04/12/2022	19:58	-135.891	49.457	0	1725.30	0	2.1720	0	34.5380	0	27.597	0	1703.554	0	-1e10	8	-1e10	8	-1E+10	1	-1E+10	1	-1E+10	1	-1E+10	1	-1E+10	1	-1E+10	1
4902554	43	C	04/12/2022	19:58	-135.891	49.457	0	1735.30	0	2.1650	0	34.5400	0	27.599	0	1713.387	0	-1e10	8	-1e10	8	-1E+10	1	-1E+10	1	-1E+10	1	-1E+10	1	-1E+10	1	-1E+10	1
4902554	43	C	04/12/2022	19:58	-135.891	49.457	0	1745.10	0	2.1530	0	34.5420	0	27.602	0	1723.024	0	-1e10	8	-1e10	8	-1E+10	1	-1E+10	1	-1E+10	1	-1E+10	1	-1E+10	1	-1E+10	1
4902554	43	C	04/12/2022	19:58	-135.891	49.457	0	1755.30	0	2.1430	0	34.5440	0	27.604	0	1733.053	0	-1e10	8	-1e10	8	-1E+10	1	-1E+10	1	-1E+10	1	-1E+10	1	-1E+10	1	-1E+10	1
4902554	43	C	04/12/2022	19:58	-135.891	49.457	0	1765.60	0	2.1370	0	34.5460	0	27.607	0	1743.180	0	-1e10	8	-1e10	8	-1E+10	1	-1E+10	1	-1E+10	1	-1E+10	1	-1E+10	1	-1E+10	1
4902554	43	C	04/12/2022	19:58	-135.891	49.457	0	1775.50	0	2.1300	0	34.5470	0	27.608	0	1752.914	0	-1e10	8	-1e10	8	-1E+10	1	-1E+10	1	-1E+10	1	-1E+10	1	-1E+10	1	-1E+10	1
4902554	43	C	04/12/2022	19:58	-135.891	49.457	0	1785.20	0	2.1210	0	34.5490	0	27.610	0	1762.450	0	-1e10	8	-1e10	8	-1E+10	1	-1E+10	1	-1E+10	1	-1E+10	1	-1E+10	1	-1E+10	1
4902554	43	C	04/12/2022	19:58	-135.891	49.457	0	1795.40	0	2.1130	0	34.5510	0	27.613	0	1772.478	0	-1e10	8	-1e10	8	-1E+10	1	-1E+10	1	-1E+10	1	-1E+10	1	-1E+10	1	-1E+10	1
4902554	43	C	04/12/2022	19:58	-135.891	49.457	0	1805.70	0	2.1050	0	34.5530	0	27.615	0	1782.603	0	-1e10	8	-1e10	8	-1E+10	1	-1E+10	1	-1E+10	1	-1E+10	1	-1E+10	1	-1E+10	1
4902554	43	C	04/12/2022	19:58	-135.891	49.457	0	1815.50	0	2.0940	0	34.5540	0	27.617	0	1792.236	0	-1e10	8	-1e10	8	-1E+10	1	-1E+10	1	-1E+10	1	-1E+10	1	-1E+10	1	-1E+10	1
4902554	43	C	04/12/2022	19:58	-135.891	49.457	0	1825.50	0	2.0840	0	34.5560	0	27.619	0	1802.066	0	-1e10	8	-1e10	8	-1E+10	1	-1E+10	1	-1E+10	1	-1E+10	1	-1E+10	1	-1E+10	1
4902554	43	C	04/12/2022	19:58	-135.891	49.457	0	1835.50	0	2.0740	0	34.5590	0	27.622	0	1811.895	0	-1e10	8	-1e10	8	-1E+10	1	-1E+10	1	-1E+10	1	-1E+10	1	-1E+10	1	-1E+10	1
4902554	43	C	04/12/2022	19:58	-135.891	49.457	0	1845.70	0	2.0610	0	34.5610	0	27.625	0	1821.920	0	-1e10	8	-1e10	8	-1E+10	1	-1E+10	1	-1E+10	1	-1E+10	1	-1E+10	1	-1E+10	1
4902554	43	C	04/12/2022	19:58	-135.891	49.457	0	1855.60	0	2.0530	0	34.5620	0	27.626	0	1831.650	0	-1e10	8	-1e10	8	-1E+10	1	-1E+10	1	-1E+10	1	-1E+10	1	-1E+10	1	-1E+10	1
4902554	43	C	04/12/2022	19:58	-135.891	49.457	0	1865.20	0	2.0440	0	34.5650	0	27.630	0	1841.084	0	-1e10	8	-1e10	8	-1E+10	1	-1E+10	1	-1E+10	1	-1E+10	1	-1E+10	1	-1E+10	1
4902554	43	C	04/12/2022	19:58	-135.891	49.457	0	1875.50	0	2.0350	0	34.5660	0	27.631	0	1851.206	0	-1e10	8	-1e10	8	-1E+10	1	-1E+10	1	-1E+10	1	-1E+10	1	-1E+10	1	-1E+10	1
4902554	43	C	04/12/2022	19:58	-135.891	49.457	0	1885.90	0	2.0250	0	34.5680	0	27.634	0	1861.426	0	-1e10	8	-1e10	8	-1E+10	1	-1E+10	1	-1E+10	1	-1E+10	1	-1E+10	1	-1E+10	1
4902554	43	C	04/12/2022	19:58	-135.891	49.457	0	1895.90	0	2.0150	0	34.5700	0	27.636	0	1871.253	0	-1e10	8	-1e10	8	-1E+10	1	-1E+10	1	-1E+10	1	-1E+10	1	-1E+10	1	-1E+10	1
4902554	43	C	04/12/2022	19:58	-135.891	49.457	0	1905.70	0	2.0080	0	34.5720	0	27.638	0	1880.882	0	-1e10	8	-1e10	8	-1E+10	1	-1E+10	1	-1E+10	1	-1E+10	1	-1E+10	1	-1E+10	1
4902554	43	C	04/12/2022	19:58	-135.891	49.457	0	1915.10	0	2.0010	0	34.5730	0	27.640	0	1890.118	0	-1e10	8	-1e10	8	-1E+10	1	-1E+10	1	-1E+10	1	-1E+10	1	-1E+10	1	-1E+10	1
4902554	43	C	04/12/2022	19:58	-135.891	49.457	0	1925.40	0	1.9940	0	34.5740	0	27.641	0	1900.237	0	-1e10	8	-1e10	8	-1E+10	1	-1E+10	1	-1E+10	1	-1E+10	1	-1E+10	1	-1E+10	1
4902554	43	C	04/12/2022	19:58	-135.891	49.457	0	1935.80	0	1.9860	0	34.5760	0	27.643	0	1910.455	0	-1e10	8	-1e10	8	-1E+10	1	-1E+10	1	-1E+10	1	-1E+10	1	-1E+10	1	-1E+10	1
4902554	43	C	04/12/2022	19:58	-135.891	49.457	0	1945.40	0	1.9780	0	34.5770	0	27.645	0	1919.886	0	-1e10	8	-1e10	8	-1E+10	1	-1E+10	1	-1E+10	1	-1E+10	1	-1E+10	1	-1E+10	1
4902554	43	C	04/12/2022	19:58	-135.891	49.457	0	1955.20	0	1.9720	0	34.5780	0	27.646	0	1929.513	0	-1e10	8	-1e10	8	-1E+10	1	-1E+10	1	-1E+10	1	-1E+10	1	-1E+10	1	-1E+10	1
4902554	43	C	04/12/2022	19:58	-135.891	49.457	0	1965.50	0	1.9670	0	34.5800	0	27.648	0	1939.631	0	-1e10	8	-1e10	8	-1E+10	1	-1E+10	1	-1E+10	1	-1E+10	1	-1E+10	1	-1E+10	1
4902554	43	C	04/12/2022	19:58	-135.891	49.457	0	1975.30	0	1.9610	0	34.5810	0	27.649	0	1949.257	0	-1e10	8	-1e10	8	-1E+10	1	-1E+10	1	-1E+10	1	-1E+10	1	-1E+10	1	-1E+10	1
4902554	43	C	04/12/2022	19:58	-135.891	49.457	0	1985.40	0	1.9540	0	34.5830	0	27.652	0	1959.177	0	-1e10	8	-1e10	8	-1E+10	1	-1E+10	1	-1E+10	1	-1E+10	1	-1E+10	1	-1E+10	1
4902554	43	C	04/12/2022	19:58	-135.891	49.457	0	1996.10	0	1.9450	0	34.5840	0	27.653	0	1969.687	0	-1e10	8	-1e10	8	-1E+10	1	-1E+10	1	-1E+10	1	-1E+10	1	-1E+10	1	-1E+10	1
4902554	43	C	04/12/2022	19:58	-135.891	49.457	0	2001.00	0	1.9410	0	34.5860	0	27.655	0	1974.499	0	-1e10	8	-1e10	8	-1E+10	1	-1E+10	1	-1E+10	1	-1E+10	1	-1E+10	1	-1E+10	1
4902554	43	C	04/12/2022	19:58	-135.891	49.457	0																										
4902554	44	C	04/23/2022	00:56	-135.730	49.496	0	0.40	0	7.0850	0	32.3620	0	25.330	0	0.397	0	-1e10	8	-1e10	8	-1E+10	1	-1E+10	1	-1E+10	1	-1E+10	1	-1E+10	1	-1E+10	1
4902554	44	C	04/23/2022	00:56	-135.730	49.496	0	0.90	0	7.0830	0	32.3640	0	25.332	0	0.892	0	-1e10	8	-1e10	8	-1E+10	1	-1E+10	1	-1E+10	1	-1E+10	1	-1E+10	1	-1E+10	1
4902554	44	C	04/23/2022	00:56	-135.730	49.496	0	2.10	0	7.0830	0	32.3640	0	25.332	0	2.082	0	-1e10	8	-1e10	8	-1E+10	1	-1E+10	1	-1E+10	1	-1E+10	1	-1E+10	1	-1E+10	1
4902554	44	C	04/23/2022	00:56	-135.730	49.496	0	2.90	0	7.0820	0	32.3650	0	25.333	0	2.875	0	-1e10	8	-1e10	8	-1E+10	1	-1E+10	1	-1E+10	1	-1E+10	1	-1E+10	1	-1E+10	1
4902554	44	C	04/23/2022	00:56	-135.730	49.496	0	3.90	0	7.0810	0	32.3660	0	25.334	0	3.867	0	-1e10	8	-1e10	8	-1E+10	1	-1E+10	1	-1E+10	1	-1E+10	1	-1E+10	1	-1E+10	1
4902554	44	C	04/23/2022	00:56	-135.730	49.496	0	4.90	0	7.0820	0	32.3670	0	25.335	0	4.858	0	-1e10	8	-1e10	8	-1E+10	1	-1E+10	1	-1E+10	1	-1E+10	1	-1E+10	1	-1E+10	1
4902554	44	C	04/23/2022	00:56	-135.730	49.496	0	5.30	0	7.0826	0	32.3670	0	25.334	0	5.255	0	-1e10	8	-1e10	8	-1E+10	1	-1E+10	1	-1E+10	1	-1E+10	1	-1E+10	1	-1E+10	1
4902554	44	C	04/23/2022	00:56	-135.730	49.496	0	6.20	0	7.0840	0	32.3670	0	25.334	0	6.147	0	-1e10	8	-1e10	8	-1E+10	1	-1E+10	1	-1E+10	1	-1E+10	1	-1E+10	1	-1E+10	1
4902554	44	C	04/23/2022	00:56	-135.730	49.496	0	6.90	0	7.0800	0	32.3670	0	25.335	0	6.841	0	-1e10	8	-1e10	8	-1E+10	1	-1E+10	1	-1E+10	1	-1E+10	1	-1E+10	1	-1E+10	1
4902554	44	C	04/23/2022	00:56	-135.730	49.496	0	7.80	0	7.0780	0	32.3670	0	25.335	0	7.733	0	-1e10	8	-1e10	8	-1E+10	1	-1E+10	1	-1E+10	1	-1E+10	1	-1E+10	1	-1E+10	1
4902554	44	C	04/23/2022	00:56	-135.730	49.496	0	9.00	0	7.0760	0	32.3660	0	25.335	0	8.923	0	-1e10	8	-1e10	8	-1E+10	1	-1E+10	1	-1E+10	1	-1E+10	1	-1E+10	1	-1E+10	1
4902554	44	C	04/23/2022	00:56	-135.730	49.496	0	10.20	0	7.0750	0	32.3670	0	25.336	0	10.113	0	-1e10	8	-1e10	8	-1E+10	1	-1E+10	1	-1E+10	1	-1E+10	1	-1E+10	1	-1E+10	1
4902554	44	C	04/23/2022	00:56	-135.730	49.496	0	11.00	0	7.0720	0	32.3670	0	25.336	0	10.906	0	-1e10	8	-1e10	8	-1E+10	1	-1E+10	1	-1E+10	1	-1E+10	1	-1E+10	1	-1E+10	1
4902554	44	C	04/23/2022	00:56	-135.730	49.496	0	12.10	0	7.0670	0	32.3680	0	25.337	0	11.996	0	-1e10	8	-1e10	8	-1E+10	1	-1E+10	1	-1E+10	1	-1E+10	1	-1E+10	1	-1E+10	1
4902554	44	C	04/23/2022	00:56	-135.730	49.496	0	12.90	0	7.0690	0	32.3670	0	25.336	0	12.790	0	-1e10	8	-1e10	8	-1E+10	1	-1E+10	1	-1E+10	1	-1E+10	1	-1E+10	1	-1E+10	1
4902554	44	C	04/23/2022	00:56	-135.730	49.496	0	13.90	0	7.0690	0	32.3680	0	25.337	0	13.781	0	-1e10	8	-1e10	8	-1E+10	1	-1E+10	1	-1E+10	1	-1E+10	1	-1E+10	1	-1E+10	1
4902554	44	C	04/23/2022	00:56	-135.730	49.496	0	14.70	0	7.0550	0	32.3670	0	25.338	0	14.574	0	-1e10	8	-1e10	8	-1E+10	1	-1E+10	1	-1E+10	1	-1E+10	1	-1E+10	1	-1E+10	1
4902554	44	C	04/23/2022	00:56	-135.730	49.496	0	15.90	0	7.0550	0	32.3670	0	25.338	0	15.764	0	-1e10	8	-1e10	8	-1E+10	1	-1E+10	1	-1E+10	1	-1E+10	1	-1E+10	1	-1E+10	1
4902554	44	C	04/23/2022	00:56	-135.730	49.496	0	17.10	0	7.0520	0	32.3680	0	25.339	0	16.953	0	-1e10	8	-1e10	8	-1E+10	1	-1E+10	1	-1E+10	1	-1E+10	1	-1E+10	1	-1E+10	1
4902554	44	C	04/23/2022	00:56	-135.730	49.496	0	18.10	0	7.0510	0	32.3670	0	25.339	0	17.945	0	-1e10	8	-1e10	8	-1E+10	1	-1E+10	1	-1E+10	1	-1E+10	1	-1E+10	1	-1E+10	1
4902554	44	C	04/23/2022	00:56	-135.730	49.496	0	18.80	0	7.0510	0	32.3670	0	25.339	0	18.639	0	-1e10	8	-1e10	8	-1E+10	1	-1E+10	1	-1E+10	1	-1E+10	1	-1E+10	1	-1E+10	1
4902554	44	C	04/23/2022	00:56	-135.730	49.496	0	19.80	0	7.0510	0	32.3670	0	25.339	0	19.630	0	-1e10	8	-1e10	8	-1E+10	1	-1E+10	1	-1E+10	1	-1E+10	1	-1E+10	1	-1E+10	1
4902554	44	C	04/23/2022	00:56	-135.730	49.496	0	20.90	0	7.0500	0	32.3680	0	25.340	0	20.721	0	-1e10	8	-1e10	8	-1E+10	1	-1E+10	1	-1E+10	1	-1E+10	1	-1E+10	1	-1E+10	1
4902554	44	C	04/23/2022	00:56	-135.730	49.496	0	21.90	0	7.0490	0	32.3670	0	25.339	0	21.712	0	-1e10	8	-1e10	8	-1E+10	1	-1E+10	1	-1E+10	1	-1E+10	1	-1E+10	1	-1E+10	1
4902554	44	C	04/23/2022	00:56	-135.730	49.496	0	23.00	0	7.0520	0	32.3680	0	25.340	0	22.803	0	-1e10	8	-1e10	8	-1E+10	1	-1E+10	1	-1E+10	1	-1E+10	1	-1E+10	1	-1E+10	1
4902554	44	C	04/23/2022	00:56	-135.730	49.496	0	23.80	0	7.0530	0	32.3670	0	25.339	0	23.596	0	-1e10	8	-1e10	8	-1E+10	1	-1E+10	1	-1E+10	1	-1E+10	1	-1E+10	1	-1E+10	1
4902554	44	C	04/23/2022	00:56	-135.730	49.496	0	24.80	0	7.0530	0	32.3660	0	25.338	0	24.587	0	-1e10	8	-1e10	8	-1E+10	1	-1E+10	1	-1E+10	1	-1E+10	1	-1E+10	1	-1E+10	1
4902554	44	C	04/23/2022	00:56	-135.730	49.496	0	25.90	0	7.0560	0	32.3670	0	25.338	0	25.678	0	-1e10	8	-1e10	8	-1E+10	1	-1E+10	1	-1E+10	1	-1E+10	1	-1E+10	1	-1E+10	1
4902554	44	C	04/23/2022	00:56	-135.730	49.496	0	26.90	0	7.0360	0	32.3680	0	25.342	0	26.669	0	-1e10	8	-1e10	8	-1E+10	1	-1E+10	1	-1E+10	1	-1E+10	1	-1E+10	1	-1E+10	1
4902554	44	C	04/23/2022	00:56	-135.730	49.496	0	27.90	0	7.0360	0	32.3650	0	25.339	0	27.660	0	-1e10	8	-1e10	8	-1E+10	1	-1E+10	1	-1E+10	1	-1E+10	1	-1E+10	1	-1E+10	1
4902554	44	C	04/23/2022	00:56	-135.730	49.496	0	28.90	0	7.0410	0	32.3630	0	25.337	0	28.652	0	-1e10	8	-1e10	8	-1E+10	1	-1E+10	1	-1E+10	1	-1E+10	1	-1E+10	1	-1E+10	1
4902554	44	C	04/23/2022	00:56	-135.730	49.496	0	30.10	0	7.0360	0	32.3700	0	25.343	0	29.841	0	-1e10	8	-1e10	8	-1E+10	1	-1E+10	1	-1E+10	1	-1E+10	1	-1E+10	1	-1E+10	1
4902554	44	C	04/23/2022	00:56	-135.730	49.496	0	31.00	0	7.0410	0	32.3670	0	25.340	0	30.733	0	-1e10	8	-1e10	8	-1E+10	1	-1E+10	1	-1E+10	1	-1E+10	1	-1E+10	1	-1E+10	1
4902554	44	C	04/23/2022	00:56	-135.730	49.496	0	31.90	0	7.0490	0	32.3680	0	25.340	0	31.626	0	-1e10	8	-1e10	8	-1E+10	1	-1E+10	1	-1E+10	1	-1E+10	1	-1E+10	1	-1E+10	1
4902554	44	C	04/23/2022	00:56	-135.730	49.496	0	32.90	0	7.0480	0	32.3690	0	25.341	0	32.617	0	-1e10	8	-1e10	8	-1E+10	1	-1E+10	1	-1E+10	1	-1E+10	1	-1E+10	1	-1E+10	1
4902554	44	C	04/23/2022	00:56	-135.730	49.496	0	33.80	0	7.0510	0	32.3680	0	25.340	0	33.509	0	-1e10	8	-1e10	8	-1E+10	1	-1E+10	1	-1E+10	1	-1E+10	1	-1E+10	1	-1E+10	1
4902554	44	C	04/23/2022	00:56	-135.730	49.496	0	34.80	0	7.0490	0	32.3680	0	25.340	0	34.500	0	-1e10	8	-1e10	8	-1E+10	1	-1E+10	1	-1E+10	1	-1E+10	1	-1E+10	1	-1E+10	1
4902554	44	C	04/23/2022	00:56	-135.730	49.496	0	35.90	0	7.0500	0	32.3670	0	25.339	0	35.591	0	-1e10	8	-1e10	8	-1E+10	1	-1E+10	1	-1E+10	1	-1E+10	1	-1E+10	1	-1E+10	1
4902554	44	C	04/23/2022	00:56	-135.730	49.496	0	37.10	0	7.0470	0	32.3660	0	25.339	0	36.780	0	-1e10	8	-1e10	8	-1E+10	1	-1E+10	1	-1E+10	1	-1E+10	1	-1E+10	1	-1E+10	1
4902554	44	C	04/23/2022	00:56	-135.730	49.496	0	37.80	0	7.0210	0	32.3680	0	25.344	0	37.474	0	-1e10	8	-1e10	8	-1E+10	1	-1E+10	1	-1E+10	1	-1E+10	1	-1E+10	1	-1E+10	1
4902554	44	C	04/23/2022	00:56	-135.730	49.496	0	38.80	0	7.0600	0	32.3670	0	25.338	0	38.466	0	-1e10	8	-1e10	8	-1E+10	1	-1E+10	1	-1E+10	1	-1E+10	1	-1E+10	1	-1E+10	1
4902554	44	C	04/23/2022	00:56	-135.730	49.496	0	39.90	0	7.0600	0	32.3670	0	25.338	0	39.556	0	-1e10	8	-1e10	8	-1E+10	1	-1E+10	1	-1E+10	1	-1E+10	1	-1E+10	1	-1E+10	1
4902554	44	C	04/23/2022	00:56	-135.730	49.496	0	40.90	0	7.0580	0	32.3660	0	25.337	0	40.547	0	-1e10	8	-1e10	8	-1E+10	1	-1E+10	1	-1E+10	1	-1E+10	1	-1E+10	1	-1E+10	1
4902554	44	C	04/23/2022	00:56	-135.730	49.496	0	42.10	0	7.0160	0	32.3660	0	25.343	0	41.737	0	-1e10	8	-1e10	8	-1E+10	1	-1E+10	1	-1E+10	1	-1E+10	1	-1E+10	1	-1E+10	1
4902554	44	C	04/23/2022	00:56	-135.730	49.496	0	42.90	0	7.0150	0	32.3680	0	25.345	0	42.530	0	-1e10	8	-1e10	8	-1E+10	1	-1E+10	1	-1E+10	1	-1E+10	1	-1E+10	1	-1E+10	1
4902554	44	C	04/23/2022	00:56	-135.730	49.496	0	44.10	0	7.0110	0	32.3710	0	25.348	0	43.719	0	-1e10	8	-1e10	8	-1E+10	1	-1E+10	1	-1E+10	1	-1E+10	1	-1E+10	1	-1E+10	1
4902554	44	C	04/23/2022	00:56	-135.730	49.496	0	45.10	0	7.0070	0	32.3670	0	25.345	0	44.711	0	-1e10	8	-1e10	8	-1E+10	1	-1E+10	1	-1E+10	1	-1E+10	1	-1E+10	1	-1E+10	1
4902554	44	C	04/23/2022	00:56	-135.730	49.496	0	46.00	0	7.0040	0	32.3660	0	25.345	0	45.603	0	-1e10	8	-1e10	8	-1E+10	1	-1E+10	1	-1E+10	1	-1E+10	1	-1E+10	1	-1E+10	1
4902554	44	C	04/23/2022	00:56	-135.730	49.496	0	47.00	0	6.9930	0	32.3670	0	25.347	0	46.594	0	-1e10	8	-1e10	8	-1E+10	1	-1E+10	1	-1E+10	1	-1E+10	1	-1E+10	1	-1E+10	1
4902554	44	C	04/23/2022	00:56	-135.730	49.496	0	48.20	0	6.9790	0	32.3660	0	25.348	0	47.783	0	-1e10	8	-1e10	8	-1E+10	1	-1E+10	1	-1E+10	1	-1E+10	1	-1E+10	1	-1E+10	1
4902554	44	C	04/23/2022	00:56	-135.730	49.496	0	48.90	0	6.9770	0	32.3670	0	25.349	0	48.477	0	-1e10	8	-1e10	8	-1E+10	1	-1E+10	1	-1E+10	1	-1E+10	1	-1E+10	1	-1E+10	1
4902554	44	C	04/23/2022	00:56	-135.730	49.496	0	50.10	0	6.9740	0	32.3670	0	25.349	0	49.667	0	-1e10	8	-1e10	8	-1E+10	1	-1E+10	1	-1E+10	1	-1E+10	1	-1E+10	1	-1E+10	1
4902554	44	C	04/23/2022	00:56	-135.730	49.496	0	50.90	0	6.9740	0	32.3660	0	25.349	0	50.460	0	-1e10	8	-1e10	8	-1E+10	1	-1E+10	1	-1E+10	1	-1E+10	1	-1E+10	1	-1E+10	1
4902554	44	C	04/23/2022	00:56	-135.730	49.496	0	52.00	0	6.9820	0	32.3660	0	25.348	0	51.550	0	-1e10	8	-1e10	8	-1E+10	1	-1E+10	1	-1E+10	1	-1E+10	1	-1E+10	1	-1E+10	1
4902554	44	C	04/23/2022	00:56	-135.730	49.496	0	52.80	0	6.9810	0	32.3660	0	25.348	0	52.343	0	-1e10	8	-1e10	8	-1E+10	1	-1E+10	1	-1E+10	1	-1E+10	1	-1E+10	1	-1E+10	1
4902554	44	C	04/23/2022	00:56	-135.730	49.496	0	53.80	0	6.9570	0	32.3670	0	25.352	0	53.334	0	-1e10	8	-1e10	8	-1E+10	1	-1E+10	1	-1E+10	1	-1E+10	1	-1E+10	1	-1E+10	1
4902554	44	C	04/23/2022	00:56	-135.730	49.496	0	54.80	0	6.9540	0	32.3660	0	25.351	0	54.325	0	-1e10	8	-1e10	8	-1E+10	1	-1E+10	1	-1E+10	1	-1E+10	1	-1E+10	1	-1E+10	1
4902554	44	C	04/23/2022	00:56	-135.730	49.496	0	55.80	0	6.9470	0	32.3660	0	25.352	0	55.317	0	-1e10	8	-1e10	8	-1E+10	1	-1E+10	1	-1E+10	1	-1E+10	1	-1E+10	1	-1E+10	1
4902554	44	C	04/23/2022	00:56	-135.730	49.496	0	56.80	0	6.9420	0	32.3670	0	25.354	0	56.308	0	-1e10	8	-1e10	8	-1E+10	1	-1E+10	1	-1E+10	1	-1E+10	1	-1E+10	1	-1E+10	1
4902554	44	C	04/23/2022	00:56	-135.730	49.496	0	57.80	0	6.9380	0	32.3670	0	25.354	0	57.299	0	-1e10	8	-1e10	8	-1E+10	1	-1E+10	1	-1E+10	1	-1E+10	1	-1E+10	1	-1E+10	1
4902554	44	C	04/23/2022	00:56	-135.730	49.496	0	58.80	0	6.9360	0	32.3670	0	25.355	0	58.290	0	-1e10	8	-1e10	8	-1E+10	1	-1E+10	1	-1E+10	1	-1E+10	1	-1E+10	1	-1E+10	1
4902554	44	C	04/23/2022	00:56	-135.730	49.496	0	59.80	0	6.9300	0	32.3660	0	25.355	0	59.281	0	-1e10	8	-1e10	8	-1E+10	1	-1E+10	1	-1E+10	1	-1E+10	1	-1E+10	1	-1E+10	1
4902554	44	C	04/23/2022	00:56	-135.730	49.496	0	60.80	0	6.9280	0	32.3670	0	25.356	0	60.273	0	-1e10	8	-1e10	8	-1E+10	1	-1E+10	1	-1E+10	1	-1E+10	1	-1E+10	1	-1E+10	1
4902554	44	C	04/23/2022	00:56	-135.730	49.496	0	61.80	0	6.9160	0	32.3660	0	25.356	0	61.264	0	-1e10	8	-1e10	8	-1E+10	1	-1E+10	1	-1E+10	1	-1E+10	1	-1E+10	1	-1E+10	1
4902554	44	C	04/23/2022	00:56	-135.730	49.496	0	63.00	0	6.9020	0	32.3680	0	25.360	0	62.453	0	-1e10	8	-1e10	8	-1E+10	1	-1E+10	1	-1E+10	1	-1E+10	1	-1E+10	1	-1E+10	1
4902554	44	C	04/23/2022	00:56	-135.730	49.496	0	63.70	0	6.9010	0	32.3680	0	25.360	0	63.147	0	-1e10	8	-1e10	8	-1E+10	1	-1E+10	1	-1E+10	1	-1E+10	1	-1E+10	1	-1E+10	1
4902554	44	C	04/23/2022	00:56	-135.730	49.496	0	65.10	0	6.9010	0	32.3680	0	25.360	0	64.535	0	-1e10	8	-1e10	8	-1E+10	1	-1E+10	1	-1E+10	1	-1E+10	1	-1E+10	1	-1E+10	1
4902554	44	C	04/23/2022	00:56	-135.730	49.496	0	66.10	0	6.9020	0	32.3680	0	25.360	0	65.526	0	-1e10	8	-1e10	8	-1E+10	1	-1E+10	1	-1E+10	1	-1E+10	1	-1E+10	1	-1E+10	1
4902554	44	C	04/23/2022	00:56	-135.730	49.496	0	67.10	0	6.8990	0	32.3680	0	25.360	0	66.517	0	-1e10	8	-1e10	8	-1E+10	1	-1E+10	1	-1E+10	1	-1E+10	1	-1E+10	1	-1E+10	1
4902554	44	C	04/23/2022	00:56	-135.730	49.496	0	68.10	0	6.8950	0	32.3690	0	25.362	0	67.508	0	-1e10	8	-1e10	8	-1E+10	1	-1E+10	1	-1E+10	1	-1E+10	1	-1E+10	1	-1E+10	1
4902554	44	C	04/23/2022	00:56	-135.730	49.496	0	69.10	0	6.8870	0	32.3690	0	25.363	0	68.499	0	-1e10	8	-1e10	8	-1E+10	1	-1E+10	1	-1E+10	1	-1E+10	1	-1E+10	1	-1E+10	1
4902554	44	C	04/23/2022	00:56	-135.730	49.496	0	70.10	0	6.8850	0	32.3700	0	25.364	0	69.490	0	-1e10	8	-1e10	8	-1E+10	1	-1E+10	1	-1E+10	1	-1E+10	1	-1E+10	1	-1E+10	1
4902554	44	C	04/23/2022	00:56	-135.730	49.496	0	71.10	0	6.8820	0	32.3710	0	25.365	0	70.482	0	-1e10	8	-1e10	8	-1E+10	1	-1E+10	1	-1E+10	1	-1E+10	1	-1E+10	1	-1E+10	1
4902554	44	C	04/23/2022	00:56	-135.730	49.496	0	72.10	0	6.8800	0	32.3710	0	25.365	0	71.473	0	-1e10	8	-1e10	8	-1E+10	1	-1E+10	1	-1E+10	1	-1E+10	1	-1E+10	1	-1E+10	1
4902554	44	C	04/23/2022	00:56	-135.730	49.496	0	73.10	0	6.8780	0	32.3710	0	25.366	0	72.464	0	-1e10	8	-1e10	8	-1E+10	1	-1E+10	1	-1E+10	1	-1E+10	1	-1E+10	1	-1E+10	1
4902554	44	C	04/23/2022	00:56	-135.730	49.496	0	74.10	0	6.8750	0	32.3710	0	25.366	0	73.455	0	-1e10	8	-1e10	8	-1E+10	1	-1E+10	1	-1E+10	1	-1E+10	1	-1E+10	1	-1E+10	1
4902554	44	C	04/23/2022	00:56	-135.730	49.496	0	75.30	0	6.8720	0	32.3740	0	25.369	0	74.644	0	-1e10	8	-1e10	8	-1E+10	1	-1E+10	1	-1E+10	1	-1E+10	1	-1E+10	1	-1E+10	1
4902554	44	C	04/23/2022	00:56	-135.730	49.496	0	76.00	0	6.8720	0	32.3760	0	25.370	0	75.338	0	-1e10	8	-1e10	8	-1E+10	1	-1E+10	1	-1E+10	1	-1E+10	1	-1E+10	1	-1E+10	1
4902554	44	C	04/23/2022	00:56	-135.730	49.496	0	77.00	0	6.8720	0	32.3760	0	25.370	0	76.329	0	-1e10	8	-1e10	8	-1E+10	1	-1E+10	1	-1E+10	1	-1E+10	1	-1E+10	1	-1E+10	1
4902554	44	C	04/23/2022	00:56	-135.730	49.496	0	77.90	0	6.8730	0	32.3760	0	25.370	0	77.221	0	-1e10	8	-1e10	8	-1E+10	1	-1E+10	1	-1E+10	1	-1E+10	1	-1E+10	1	-1E+10	1
4902554	44	C	04/23/2022	00:56	-135.730	49.496	0	78.80	0	6.8720	0	32.3750	0	25.370	0	78.113	0	-1e10	8	-1e10	8	-1E+10	1	-1E+10	1	-1E+10	1	-1E+10	1	-1E+10	1	-1E+10	1
4902554	44	C	04/23/2022	00:56	-135.730	49.496	0	80.00	0	6.8730	0	32.3780	0	25.372	0	79.302	0	-1e10	8	-1e10	8	-1E+10	1	-1E+10	1	-1E+10	1	-1E+10	1	-1E+10	1	-1E+10	1
4902554	44	C	04/23/2022	00:56	-135.730	49.496	0	81.10	0	6.8740	0	32.3760	0	25.370	0	80.393	0	-1e10	8	-1e10	8	-1E+10	1	-1E+10	1	-1E+10	1	-1E+10	1	-1E+10	1	-1E+10	1
4902554	44	C	04/23/2022	00:56	-135.730	49.496	0	82.10	0	6.8710	0	32.3800	0	25.374	0	81.384	0	-1e10	8	-1e10	8	-1E+10	1	-1E+10	1	-1E+10	1	-1E+10	1	-1E+10	1	-1E+10	1
4902554	44	C	04/23/2022	00:56	-135.730	49.496	0	82.90	0	6.8530	0	32.3810	0	25.377	0	82.177	0	-1e10	8	-1e10	8	-1E+10	1	-1E+10	1	-1E+10	1	-1E+10	1	-1E+10	1	-1E+10	1
4902554	44	C	04/23/2022	00:56	-135.730	49.496	0	84.10	0	6.8360	0	32.3830	0	25.381	0	83.366	0	-1e10	8	-1e10	8	-1E+10	1	-1E+10	1	-1E+10	1	-1E+10	1	-1E+10	1	-1E+10	1
4902554	44	C	04/23/2022	00:56	-135.730	49.496	0	85.10	0	6.8260	0	32.3840	0	25.383	0	84.357	0	-1e10	8	-1e10	8	-1E+10	1	-1E+10	1	-1E+10	1	-1E+10	1	-1E+10	1	-1E+10	1
4902554	44	C	04/23/2022	00:56	-135.730	49.496	0	85.90	0	6.8170	0	32.3850	0	25.385	0	85.150	0	-1e10	8	-1e10	8	-1E+10	1	-1E+10	1	-1E+10	1	-1E+10	1	-1E+10	1	-1E+10	1
4902554	44	C	04/23/2022	00:56	-135.730	49.496	0	86.70	0	6.8030	0	32.3870	0	25.388	0	85.943	0	-1e10	8	-1e10	8	-1E+10	1	-1E+10	1	-1E+10	1	-1E+10	1	-1E+10	1	-1E+10	1
4902554	44	C	04/23/2022	00:56	-135.730	49.496	0	87.70	0	6.8050	0	32.3850	0	25.386	0	86.934	0	-1e10	8	-1e10	8	-1E+10	1	-1E+10	1	-1E+10	1	-1E+10	1	-1E+10	1	-1E+10	1
4902554	44	C	04/23/2022	00:56	-135.730	49.496	0	88.80	0	6.8030	0	32.3850	0	25.387	0	88.024	0	-1e10	8	-1e10	8	-1E+10	1	-1E+10	1	-1E+10	1	-1E+10	1	-1E+10	1	-1E+10	1
4902554	44	C	04/23/2022	00:56	-135.730	49.496	0	89.80	0	6.7940	0	32.3850	0	25.388	0	89.015	0	-1e10	8	-1e10	8	-1E+10	1	-1E+10	1	-1E+10	1	-1E+10	1	-1E+10	1	-1E+10	1
4902554	44	C	04/23/2022	00:56	-135.730	49.496	0	90.80	0	6.7890	0	32.3860	0	25.389	0	90.006	0	-1e10	8	-1e10	8	-1E+10	1	-1E+10	1	-1E+10	1	-1E+10	1	-1E+10	1	-1E+10	1
4902554	44	C	04/23/2022	00:56	-135.730	49.496	0	91.90	0	6.7740	0	32.3880	0	25.393	0	91.096	0	-1e10	8	-1e10	8	-1E+10	1	-1E+10	1	-1E+10	1	-1E+10	1	-1E+10	1	-1E+10	1
4902554	44	C	04/23/2022	00:56	-135.730	49.496	0	93.00	0	6.7320	0	32.3930	0	25.402	0	92.186	0	-1e10	8	-1e10	8	-1E+10	1	-1E+10	1	-1E+10	1	-1E+10	1	-1E+10	1	-1E+10	1
4902554	44	C	04/23/2022	00:56	-135.730	49.496	0	94.00	0	6.6960	0	32.3970	0	25.410	0	93.177	0	-1e10	8	-1e10	8	-1E+10	1	-1E+10	1	-1E+10	1	-1E+10	1	-1E+10	1	-1E+10	1
4902554	44	C	04/23/2022	00:56	-135.730	49.496	0	95.00	0	6.7000	0	32.3980	0	25.410	0	94.168	0	-1e10	8	-1e10	8	-1E+10	1	-1E+10	1	-1E+10	1	-1E+10	1	-1E+10	1	-1E+10	1
4902554	44	C	04/23/2022	00:56	-135.730	49.496	0	96.00	0	6.7000	0	32.3990	0	25.411	0	95.159	0	-1e10	8	-1e10	8	-1E+10	1	-1E+10	1	-1E+10	1	-1E+10	1	-1E+10	1	-1E+10	1
4902554	44	C	04/23/2022	00:56	-135.730	49.496	0	97.00	0	6.6970	0	32.4030	0	25.415	0	96.150	0	-1e10	8	-1e10	8	-1E+10	1	-1E+10	1	-1E+10	1	-1E+10	1	-1E+10	1	-1E+10	1
4902554	44	C	04/23/2022	00:56	-135.730	49.496	0	98.00	0	6.6850	0	32.4110	0	25.422	0	97.141	0	-1e10	8	-1e10	8	-1E+10	1	-1E+10	1	-1E+10	1	-1E+10	1	-1E+10	1	-1E+10	1
4902554	44	C	04/23/2022	00:56	-135.730	49.496	0	99.00	0	6.6850	0	32.4230	0	25.432	0	98.132	0	-1e10	8	-1e10	8	-1E+10	1	-1E+10	1	-1E+10	1	-1E+10	1	-1E+10	1	-1E+10	1
4902554	44	C	04/23/2022	00:56	-135.730	49.496	0	99.90	0	6.6390	0	32.4350	0	25.447	0	99.024	0	-1e10	8	-1e10	8	-1E+10	1	-1E+10	1	-1E+10	1	-1E+10	1	-1E+10	1	-1E+10	1
4902554	44	C	04/23/2022	00:56	-135.730	49.496	0	101.10	0	6.6030	0	32.4340	0	25.451	0	100.213	0	-1e10	8	-1e10	8	-1E+10	1	-1E+10	1	-1E+10	1	-1E+10	1	-1E+10	1	-1E+10	1
4902554	44	C	04/23/2022	00:56	-135.730	49.496	0	101.80	0	6.5850	0	32.4470	0	25.464	0	100.907	0	-1e10	8	-1e10	8	-1E+10	1	-1E+10	1	-1E+10	1	-1E+10	1	-1E+10	1	-1E+10	1
4902554	44	C	04/23/2022	00:56	-135.730	49.496	0	102.70	0	6.5860	0	32.4710	0	25.483	0	101.799	0	-1e10	8	-1e10	8	-1E+10	1	-1E+10	1	-1E+10	1	-1E+10	1	-1E+10	1	-1E+10	1
4902554	44	C	04/23/2022	00:56	-135.730	49.496	0	103.70	0	6.5640	0	32.5200	0	25.524	0	102.790	0	-1e10	8	-1e10	8	-1E+10	1	-1E+10	1	-1E+10	1	-1E+10	1	-1E+10	1	-1E+10	1
4902554	44	C	04/23/2022	00:56	-135.730	49.496	0	104.70	0	6.5690	0	32.5360	0	25.536	0	103.781	0	-1e10	8	-1e10	8	-1E+10	1	-1E+10	1	-1E+10	1	-1E+10	1	-1E+10	1	-1E+10	1
4902554	44	C	04/23/2022	00:56	-135.730	49.496	0	105.90	0	6.5570	0	32.5440	0	25.544	0	104.970	0	-1e10	8	-1e10	8	-1E+10	1	-1E+10	1	-1E+10	1	-1E+10	1	-1E+10	1	-1E+10	1
4902554	44	C	04/23/2022	00:56	-135.730	49.496	0	107.10	0	6.5130	0	32.5590	0	25.561	0	106.159	0	-1e10	8	-1e10	8	-1E+10	1	-1E+10	1	-1E+10	1	-1E+10	1	-1E+10	1	-1E+10	1
4902554	44	C	04/23/2022	00:56	-135.730	49.496	0	108.10	0	6.4710	0	32.6080	0	25.605	0	107.150	0	-1e10	8	-1e10	8	-1E+10	1	-1E+10	1	-1E+10	1	-1E+10	1	-1E+10	1	-1E+10	1
4902554	44	C	04/23/2022	00:56	-135.730	49.496	0	109.00	0	6.4100	0	32.6620	0	25.656	0	108.042	0	-1e10	8	-1e10	8	-1E+10	1	-1E+10	1	-1E+10	1	-1E+10	1	-1E+10	1	-1E+10	1
4902554	44	C	04/23/2022	00:56	-135.730	49.496	0	109.90	0	6.3040	0	32.7770	0	25.760	0	108.934	0	-1e10	8	-1e10	8	-1E+10	1	-1E+10	1	-1E+10	1	-1E+10	1	-1E+10	1	-1E+10	1
4902554	44	C	04/23/2022	00:56	-135.730	49.496	0	110.90	0	6.1860	0	32.9130	0	25.882	0	109.925	0	-1e10	8	-1e10	8	-1E+10	1	-1E+10	1	-1E+10	1	-1E+10	1	-1E+10	1	-1E+10	1
4902554	44	C	04/23/2022	00:56	-135.730	49.496	0	111.90	0	6.1400	0	32.9610	0	25.926	0	110.916	0	-1e10	8	-1e10	8	-1E+10	1	-1E+10	1	-1E+10	1	-1E+10	1	-1E+10	1	-1E+10	1
4902554	44	C	04/23/2022	00:56	-135.730	49.496	0	113.10	0	6.1200	0	32.9780	0	25.942	0	112.105	0	-1e10	8	-1e10	8	-1E+10	1	-1E+10	1	-1E+10	1	-1E+10	1	-1E+10	1	-1E+10	1
4902554	44	C	04/23/2022	00:56	-135.730	49.496	0	113.90	0	6.1260	0	32.9920	0	25.952	0	112.898	0	-1e10	8	-1e10	8	-1E+10	1	-1E+10	1	-1E+10	1	-1E+10	1	-1E+10	1	-1E+10	1
4902554	44	C	04/23/2022	00:56	-135.730	49.496	0	114.70	0	6.1270	0	32.9970	0	25.956	0	113.690	0	-1e10	8	-1e10	8	-1E+10	1	-1E+10	1	-1E+10	1	-1E+10	1	-1E+10	1	-1E+10	1
4902554	44	C	04/23/2022	00:56	-135.730	49.496	0	115.80	0	6.1200	0	33.0100	0	25.967	0	114.780	0	-1e10	8	-1e10	8	-1E+10	1	-1E+10	1	-1E+10	1	-1E+10	1	-1E+10	1	-1E+10	1
4902554	44	C	04/23/2022	00:56	-135.730	49.496	0	117.00	0	6.0510	0	33.1110	0	26.055	0	115.969	0	-1e10	8	-1e10	8	-1E+10	1	-1E+10	1	-1E+10	1	-1E+10	1	-1E+10	1	-1E+10	1
4902554	44	C	04/23/2022	00:56	-135.730	49.496	0	118.10	0	6.0160	0	33.1900	0	26.122	0	117.059	0	-1e10	8	-1e10	8	-1E+10	1	-1E+10	1	-1E+10	1	-1E+10	1	-1E+10	1	-1E+10	1
4902554	44	C	04/23/2022	00:56	-135.730	49.496	0	118.80	0	6.0140	0	33.1990	0	26.129	0	117.753	0	-1e10	8	-1e10	8	-1E+10	1	-1E+10	1	-1E+10	1	-1E+10	1	-1E+10	1	-1E+10	1
4902554	44	C	04/23/2022	00:56	-135.730	49.496	0	119.80	0	6.0120	0	33.2130	0	26.141	0	118.744	0	-1e10	8	-1e10	8	-1E+10	1	-1E+10	1	-1E+10	1	-1E+10	1	-1E+10	1	-1E+10	1
4902554	44	C	04/23/2022	00:56	-135.730	49.496	0	120.90	0	6.0140	0	33.2400	0	26.162	0	119.834	0	-1e10	8	-1e10	8	-1E+10	1	-1E+10	1	-1E+10	1	-1E+10	1	-1E+10	1	-1E+10	1
4902554	44	C	04/23/2022	00:56	-135.730	49.496	0	121.90	0	6.0140	0	33.2510	0	26.170	0	120.825	0	-1e10	8	-1e10	8	-1E+10	1	-1E+10	1	-1E+10	1	-1E+10	1	-1E+10	1	-1E+10	1
4902554	44	C	04/23/2022	00:56	-135.730	49.496	0	123.00	0	6.0180	0	33.2620	0	26.179	0	121.915	0	-1e10	8	-1e10	8	-1E+10	1	-1E+10	1	-1E+10	1	-1E+10	1	-1E+10	1	-1E+10	1
4902554	44	C	04/23/2022	00:56	-135.730	49.496	0	123.70	0	6.0220	0	33.2640	0	26.180	0	122.608	0	-1e10	8	-1e10	8	-1E+10	1	-1E+10	1	-1E+10	1	-1E+10	1	-1E+10	1	-1E+10	1
4902554	44	C	04/23/2022	00:56	-135.730	49.496	0	124.80	0	6.0320	0	33.2840	0	26.194	0	123.698	0	-1e10	8	-1e10	8	-1E+10	1	-1E+10	1	-1E+10	1	-1E+10	1	-1E+10	1	-1E+10	1
4902554	44	C	04/23/2022	00:56	-135.730	49.496	0	126.00	0	6.0360	0	33.2970	0	26.204	0	124.887	0	-1e10	8	-1e10	8	-1E+10	1	-1E+10	1	-1E+10	1	-1E+10	1	-1E+10	1	-1E+10	1
4902554	44	C	04/23/2022	00:56	-135.730	49.496	0	127.00	0	6.0340	0	33.3000	0	26.207	0	125.878	0	-1e10	8	-1e10	8	-1E+10	1	-1E+10	1	-1E+10	1	-1E+10	1	-1E+10	1	-1E+10	1
4902554	44	C	04/23/2022	00:56	-135.730	49.496	0	128.20	0	6.0300	0	33.3190	0	26.222	0	127.067	0	-1e10	8	-1e10	8	-1E+10	1	-1E+10	1	-1E+10	1	-1E+10	1	-1E+10	1	-1E+10	1
4902554	44	C	04/23/2022	00:56	-135.730	49.496	0	128.90	0	6.0270	0	33.3340	0	26.234	0	127.761	0	-1e10	8	-1e10	8	-1E+10	1	-1E+10	1	-1E+10	1	-1E+10	1	-1E+10	1	-1E+10	1
4902554	44	C	04/23/2022	00:56	-135.730	49.496	0	130.00	0	6.0240	0	33.3470	0	26.245	0	128.851	0	-1e10	8	-1e10	8	-1E+10	1	-1E+10	1	-1E+10	1	-1E+10	1	-1E+10	1	-1E+10	1
4902554	44	C	04/23/2022	00:56	-135.730	49.496	0	131.10	0	6.0240	0	33.3580	0	26.254	0	129.941	0	-1e10	8	-1e10	8	-1E+10	1	-1E+10	1	-1E+10	1	-1E+10	1	-1E+10	1	-1E+10	1
4902554	44	C	04/23/2022	00:56	-135.730	49.496	0	131.80	0	6.0230	0	33.3650	0	26.259	0	130.634	0	-1e10	8	-1e10	8	-1E+10	1	-1E+10	1	-1E+10	1	-1E+10	1	-1E+10	1	-1E+10	1
4902554	44	C	04/23/2022	00:56	-135.730	49.496	0	132.90	0	6.0200	0	33.3770	0	26.269	0	131.724	0	-1e10	8	-1e10	8	-1E+10	1	-1E+10	1	-1E+10	1	-1E+10	1	-1E+10	1	-1E+10	1
4902554	44	C	04/23/2022	00:56	-135.730	49.496	0	134.20	0	6.0120	0	33.4290	0	26.311	0	133.012	0	-1e10	8	-1e10	8	-1E+10	1	-1E+10	1	-1E+10	1	-1E+10	1	-1E+10	1	-1E+10	1
4902554	44	C	04/23/2022	00:56	-135.730	49.496	0	135.10	0	6.0090	0	33.4430	0	26.323	0	133.904	0	-1e10	8	-1e10	8	-1E+10	1	-1E+10	1	-1E+10	1	-1E+10	1	-1E+10	1	-1E+10	1
4902554	44	C	04/23/2022	00:56	-135.730	49.496	0	135.90	0	6.0060	0	33.4510	0	26.330	0	134.697	0	-1e10	8	-1e10	8	-1E+10	1	-1E+10	1	-1E+10	1	-1E+10	1	-1E+10	1	-1E+10	1
4902554	44	C	04/23/2022	00:56	-135.730	49.496	0	136.80	0	6.0040	0	33.4640	0	26.340	0	135.589	0	-1e10	8	-1e10	8	-1E+10	1	-1E+10	1	-1E+10	1	-1E+10	1	-1E+10	1	-1E+10	1
4902554	44	C	04/23/2022	00:56	-135.730	49.496	0	137.70	0	5.9950	0	33.4810	0	26.355	0	136.480	0	-1e10	8	-1e10	8	-1E+10	1	-1E+10	1	-1E+10	1	-1E+10	1	-1E+10	1	-1E+10	1
4902554	44	C	04/23/2022	00:56	-135.730	49.496	0	138.70	0	5.9950	0	33.4860	0	26.359	0	137.471	0	-1e10	8	-1e10	8	-1E+10	1	-1E+10	1	-1E+10	1	-1E+10	1	-1E+10	1	-1E+10	1
4902554	44	C	04/23/2022	00:56	-135.730	49.496	0	139.60	0	5.9920	0	33.4900	0	26.362	0	138.363	0	-1e10	8	-1e10	8	-1E+10	1	-1E+10	1	-1E+10	1	-1E+10	1	-1E+10	1	-1E+10	1
4902554	44	C	04/23/2022	00:56	-135.730	49.496	0	140.50	0	5.9850	0	33.5060	0	26.376	0	139.255	0	-1e10	8	-1e10	8	-1E+10	1	-1E+10	1	-1E+10	1	-1E+10	1	-1E+10	1	-1E+10	1
4902554	44	C	04/23/2022	00:56	-135.730	49.496	0	141.90	0	5.9460	0	33.5520	0	26.417	0	140.642	0	-1e10	8	-1e10	8	-1E+10	1	-1E+10	1	-1E+10	1	-1E+10	1	-1E+10	1	-1E+10	1
4902554	44	C	04/23/2022	00:56	-135.730	49.496	0	143.40	0	5.9330	0	33.5670	0	26.430	0	142.128	0	-1e10	8	-1e10	8	-1E+10	1	-1E+10	1	-1E+10	1	-1E+10	1	-1E+10	1	-1E+10	1
4902554	44	C	04/23/2022	00:56	-135.730	49.496	0	144.40	0	5.9120	0	33.5800	0	26.443	0	143.119	0	-1e10	8	-1e10	8	-1E+10	1	-1E+10	1	-1E+10	1	-1E+10	1	-1E+10	1	-1E+10	1
4902554	44	C	04/23/2022	00:56	-135.730	49.496	0	145.40	0	5.8970	0	33.5890	0	26.452	0	144.109	0	-1e10	8	-1e10	8	-1E+10	1	-1E+10	1	-1E+10	1	-1E+10	1	-1E+10	1	-1E+10	1
4902554	44	C	04/23/2022	00:56	-135.730	49.496	0	146.50	0	5.8850	0	33.5970	0	26.460	0	145.199	0	-1e10	8	-1e10	8	-1E+10	1	-1E+10	1	-1E+10	1	-1E+10	1	-1E+10	1	-1E+10	1
4902554	44	C	04/23/2022	00:56	-135.730	49.496	0	147.50	0	5.8810	0	33.6000	0	26.463	0	146.190	0	-1e10	8	-1e10	8	-1E+10	1	-1E+10	1	-1E+10	1	-1E+10	1	-1E+10	1	-1E+10	1
4902554	44	C	04/23/2022	00:56	-135.730	49.496	0	148.50	0	5.8610	0	33.6150	0	26.477	0	147.181	0	-1e10	8	-1e10	8	-1E+10	1	-1E+10	1	-1E+10	1	-1E+10	1	-1E+10	1	-1E+10	1
4902554	44	C	04/23/2022	00:56	-135.730	49.496	0	149.60	0	5.8540	0	33.6170	0	26.480	0	148.271	0	-1e10	8	-1e10	8	-1E+10	1	-1E+10	1	-1E+10	1	-1E+10	1	-1E+10	1	-1E+10	1
4902554	44	C	04/23/2022	00:56	-135.730	49.496	0	150.70	0	5.8370	0	33.6270	0	26.490	0	149.360	0	-1e10	8	-1e10	8	-1E+10	1	-1E+10	1	-1E+10	1	-1E+10	1	-1E+10	1	-1E+10	1
4902554	44	C	04/23/2022	00:56	-135.730	49.496	0	151.70	0	5.8290	0	33.6300	0	26.493	0	150.351	0	-1e10	8	-1e10	8	-1E+10	1	-1E+10	1	-1E+10	1	-1E+10	1	-1E+10	1	-1E+10	1
4902554	44	C	04/23/2022	00:56	-135.730	49.496	0	152.80	0	5.8200	0	33.6360	0	26.499	0	151.441	0	-1e10	8	-1e10	8	-1E+10	1	-1E+10	1	-1E+10	1	-1E+10	1	-1E+10	1	-1E+10	1
4902554	44	C	04/23/2022	00:56	-135.730	49.496	0	153.80	0	5.8160	0	33.6390	0	26.502	0	152.432	0	-1e10	8	-1e10	8	-1E+10	1	-1E+10	1	-1E+10	1	-1E+10	1	-1E+10	1	-1E+10	1
4902554	44	C	04/23/2022	00:56	-135.730	49.496	0	154.90	0	5.8110	0	33.6400	0	26.503	0	153.522	0	-1e10	8	-1e10	8	-1E+10	1	-1E+10	1	-1E+10	1	-1E+10	1	-1E+10	1	-1E+10	1
4902554	44	C	04/23/2022	00:56	-135.730	49.496	0	156.00	0	5.8050	0	33.6420	0	26.505	0	154.611	0	-1e10	8	-1e10	8	-1E+10	1	-1E+10	1	-1E+10	1	-1E+10	1	-1E+10	1	-1E+10	1
4902554	44	C	04/23/2022	00:56	-135.730	49.496	0	157.10	0	5.7930	0	33.6450	0	26.509	0	155.701	0	-1e10	8	-1e10	8	-1E+10	1	-1E+10	1	-1E+10	1	-1E+10	1	-1E+10	1	-1E+10	1
4902554	44	C	04/23/2022	00:56	-135.730	49.496	0	158.20	0	5.7880	0	33.6470	0	26.512	0	156.791	0	-1e10	8	-1e10	8	-1E+10	1	-1E+10	1	-1E+10	1	-1E+10	1	-1E+10	1	-1E+10	1
4902554	44	C	04/23/2022	00:56	-135.730	49.496	0	159.30	0	5.7820	0	33.6490	0	26.514	0	157.881	0	-1e10	8	-1e10	8	-1E+10	1	-1E+10	1	-1E+10	1	-1E+10	1	-1E+10	1	-1E+10	1
4902554	44	C	04/23/2022	00:56	-135.730	49.496	0	160.40	0	5.7800	0	33.6490	0	26.514	0	158.970	0	-1e10	8	-1e10	8	-1E+10	1	-1E+10	1	-1E+10	1	-1E+10	1	-1E+10	1	-1E+10	1
4902554	44	C	04/23/2022	00:56	-135.730	49.496	0	161.50	0	5.7710	0	33.6520	0	26.518	0	160.060	0	-1e10	8	-1e10	8	-1E+10	1	-1E+10	1	-1E+10	1	-1E+10	1	-1E+10	1	-1E+10	1
4902554	44	C	04/23/2022	00:56	-135.730	49.496	0	162.60	0	5.7580	0	33.6560	0	26.522	0	161.150	0	-1e10	8	-1e10	8	-1E+10	1	-1E+10	1	-1E+10	1	-1E+10	1	-1E+10	1	-1E+10	1
4902554	44	C	04/23/2022	00:56	-135.730	49.496	0	163.70	0	5.7280	0	33.6700	0	26.537	0	162.240	0	-1e10	8	-1e10	8	-1E+10	1	-1E+10	1	-1E+10	1	-1E+10	1	-1E+10	1	-1E+10	1
4902554	44	C	04/23/2022	00:56	-135.730	49.496	0	164.80	0	5.7130	0	33.6770	0	26.544	0	163.330	0	-1e10	8	-1e10	8	-1E+10	1	-1E+10	1	-1E+10	1	-1E+10	1	-1E+10	1	-1E+10	1
4902554	44	C	04/23/2022	00:56	-135.730	49.496	0	165.90	0	5.6970	0	33.6810	0	26.550	0	164.419	0	-1e10	8	-1e10	8	-1E+10	1	-1E+10	1	-1E+10	1	-1E+10	1	-1E+10	1	-1E+10	1
4902554	44	C	04/23/2022	00:56	-135.730	49.496	0	167.00	0	5.6740	0	33.6860	0	26.556	0	165.509	0	-1e10	8	-1e10	8	-1E+10	1	-1E+10	1	-1E+10	1	-1E+10	1	-1E+10	1	-1E+10	1
4902554	44	C	04/23/2022	00:56	-135.730	49.496	0	168.10	0	5.6650	0	33.6880	0	26.559	0	166.599	0	-1e10	8	-1e10	8	-1E+10	1	-1E+10	1	-1E+10	1	-1E+10	1	-1E+10	1	-1E+10	1
4902554	44	C	04/23/2022	00:56	-135.730	49.496	0	169.20	0	5.6620	0	33.6890	0	26.560	0	167.688	0	-1e10	8	-1e10	8	-1E+10	1	-1E+10	1	-1E+10	1	-1E+10	1	-1E+10	1	-1E+10	1
4902554	44	C	04/23/2022	00:56	-135.730	49.496	0	170.40	0	5.6600	0	33.6900	0	26.561	0	168.877	0	-1e10	8	-1e10	8	-1E+10	1	-1E+10	1	-1E+10	1	-1E+10	1	-1E+10	1	-1E+10	1
4902554	44	C	04/23/2022	00:56	-135.730	49.496	0	171.50	0	5.6570	0	33.6900	0	26.562	0	169.967	0	-1e10	8	-1e10	8	-1E+10	1	-1E+10	1	-1E+10	1	-1E+10	1	-1E+10	1	-1E+10	1
4902554	44	C	04/23/2022	00:56	-135.730	49.496	0	172.60	0	5.6320	0	33.6950	0	26.569	0	171.057	0	-1e10	8	-1e10	8	-1E+10	1	-1E+10	1	-1E+10	1	-1E+10	1	-1E+10	1	-1E+10	1
4902554	44	C	04/23/2022	00:56	-135.730	49.496	0	173.80	0	5.6180	0	33.6970	0	26.572	0	172.245	0	-1e10	8	-1e10	8	-1E+10	1	-1E+10	1	-1E+10	1	-1E+10	1	-1E+10	1	-1E+10	1
4902554	44	C	04/23/2022	00:56	-135.730	49.496	0	174.90	0	5.6130	0	33.6980	0	26.573	0	173.335	0	-1e10	8	-1e10	8	-1E+10	1	-1E+10	1	-1E+10	1	-1E+10	1	-1E+10	1	-1E+10	1
4902554	44	C	04/23/2022	00:56	-135.730	49.496	0	176.00	0	5.6130	0	33.6980	0	26.573	0	174.425	0	-1e10	8	-1e10	8	-1E+10	1	-1E+10	1	-1E+10	1	-1E+10	1	-1E+10	1	-1E+10	1
4902554	44	C	04/23/2022	00:56	-135.730	49.496	0	177.20	0	5.6070	0	33.6990	0	26.575	0	175.614	0	-1e10	8	-1e10	8	-1E+10	1	-1E+10	1	-1E+10	1	-1E+10	1	-1E+10	1	-1E+10	1
4902554	44	C	04/23/2022	00:56	-135.730	49.496	0	178.30	0	5.6040	0	33.6990	0	26.575	0	176.703	0	-1e10	8	-1e10	8	-1E+10	1	-1E+10	1	-1E+10	1	-1E+10	1	-1E+10	1	-1E+10	1
4902554	44	C	04/23/2022	00:56	-135.730	49.496	0	179.50	0	5.5670	0	33.7050	0	26.584	0	177.892	0	-1e10	8	-1e10	8	-1E+10	1	-1E+10	1	-1E+10	1	-1E+10	1	-1E+10	1	-1E+10	1
4902554	44	C	04/23/2022	00:56	-135.730	49.496	0	180.60	0	5.5670	0	33.7040	0	26.584	0	178.982	0	-1e10	8	-1e10	8	-1E+10	1	-1E+10	1	-1E+10	1	-1E+10	1	-1E+10	1	-1E+10	1
4902554	44	C	04/23/2022	00:56	-135.730	49.496	0	181.70	0	5.5540	0	33.7050	0	26.586	0	180.071	0	-1e10	8	-1e10	8	-1E+10	1	-1E+10	1	-1E+10	1	-1E+10	1	-1E+10	1	-1E+10	1
4902554	44	C	04/23/2022	00:56	-135.730	49.496	0	182.80	0	5.5490	0	33.7070	0	26.588	0	181.161	0	-1e10	8	-1e10	8	-1E+10	1	-1E+10	1	-1E+10	1	-1E+10	1	-1E+10	1	-1E+10	1
4902554	44	C	04/23/2022	00:56	-135.730	49.496	0	184.00	0	5.5300	0	33.7150	0	26.597	0	182.350	0	-1e10	8	-1e10	8	-1E+10	1	-1E+10	1	-1E+10	1	-1E+10	1	-1E+10	1	-1E+10	1
4902554	44	C	04/23/2022	00:56	-135.730	49.496	0	185.10	0	5.5000	0	33.7150	0	26.600	0	183.439	0	-1e10	8	-1e10	8	-1E+10	1	-1E+10	1	-1E+10	1	-1E+10	1	-1E+10	1	-1E+10	1
4902554	44	C	04/23/2022	00:56	-135.730	49.496	0	186.20	0	5.4880	0	33.7170	0	26.603	0	184.529	0	-1e10	8	-1e10	8	-1E+10	1	-1E+10	1	-1E+10	1	-1E+10	1	-1E+10	1	-1E+10	1
4902554	44	C	04/23/2022	00:56	-135.730	49.496	0	187.30	0	5.4730	0	33.7200	0	26.607	0	185.619	0	-1e10	8	-1e10	8	-1E+10	1	-1E+10	1	-1E+10	1	-1E+10	1	-1E+10	1	-1E+10	1
4902554	44	C	04/23/2022	00:56	-135.730	49.496	0	188.40	0	5.4620	0	33.7200	0	26.609	0	186.708	0	-1e10	8	-1e10	8	-1E+10	1	-1E+10	1	-1E+10	1	-1E+10	1	-1E+10	1	-1E+10	1
4902554	44	C	04/23/2022	00:56	-135.730	49.496	0	189.50	0	5.4600	0	33.7200	0	26.609	0	187.798	0	-1e10	8	-1e10	8	-1E+10	1	-1E+10	1	-1E+10	1	-1E+10	1	-1E+10	1	-1E+10	1
4902554	44	C	04/23/2022	00:56	-135.730	49.496	0	190.60	0	5.4490	0	33.7220	0	26.612	0	188.888	0	-1e10	8	-1e10	8	-1E+10	1	-1E+10	1	-1E+10	1	-1E+10	1	-1E+10	1	-1E+10	1
4902554	44	C	04/23/2022	00:56	-135.730	49.496	0	191.60	0	5.4360	0	33.7240	0	26.615	0	189.878	0	-1e10	8	-1e10	8	-1E+10	1	-1E+10	1	-1E+10	1	-1E+10	1	-1E+10	1	-1E+10	1
4902554	44	C	04/23/2022	00:56	-135.730	49.496	0	192.60	0	5.4270	0	33.7250	0	26.617	0	190.869	0	-1e10	8	-1e10	8	-1E+10	1	-1E+10	1	-1E+10	1	-1E+10	1	-1E+10	1	-1E+10	1
4902554	44	C	04/23/2022	00:56	-135.730	49.496	0	193.90	0	5.4220	0	33.7250	0	26.617	0	192.156	0	-1e10	8	-1e10	8	-1E+10	1	-1E+10	1	-1E+10	1	-1E+10	1	-1E+10	1	-1E+10	1
4902554	44	C	04/23/2022	00:56	-135.730	49.496	0	195.10	0	5.4130	0	33.7270	0	26.620	0	193.345	0	-1e10	8	-1e10	8	-1E+10	1	-1E+10	1	-1E+10	1	-1E+10	1	-1E+10	1	-1E+10	1
4902554	44	C	04/23/2022	00:56	-135.730	49.496	0	195.90	0	5.4050	0	33.7260	0	26.620	0	194.137	0	-1e10	8	-1e10	8	-1E+10	1	-1E+10	1	-1E+10	1	-1E+10	1	-1E+10	1	-1E+10	1
4902554	44	C	04/23/2022	00:56	-135.730	49.496	0	196.70	0	5.4040	0	33.7270	0	26.621	0	194.930	0	-1e10	8	-1e10	8	-1E+10	1	-1E+10	1	-1E+10	1	-1E+10	1	-1E+10	1	-1E+10	1
4902554	44	C	04/23/2022	00:56	-135.730	49.496	0	197.90	0	5.3980	0	33.7260	0	26.621	0	196.118	0	-1e10	8	-1e10	8	-1E+10	1	-1E+10	1	-1E+10	1	-1E+10	1	-1E+10	1	-1E+10	1
4902554	44	C	04/23/2022	00:56	-135.730	49.496	0	199.20	0	5.3950	0	33.7260	0	26.622	0	197.406	0	-1e10	8	-1e10	8	-1E+10	1	-1E+10	1	-1E+10	1	-1E+10	1	-1E+10	1	-1E+10	1
4902554	44	C	04/23/2022	00:56	-135.730	49.496	0	200.00	0	5.3940	0	33.7270	0	26.622	0	198.199	0	-1e10	8	-1e10	8	-1E+10	1	-1E+10	1	-1E+10	1	-1E+10	1	-1E+10	1	-1E+10	1
4902554	44	C	04/23/2022	00:56	-135.730	49.496	0	200.80	0	5.3880	0	33.7270	0	26.623	0	198.991	0	-1e10	8	-1e10	8	-1E+10	1	-1E+10	1	-1E+10	1	-1E+10	1	-1E+10	1	-1E+10	1
4902554	44	C	04/23/2022	00:56	-135.730	49.496	0	202.00	0	5.3780	0	33.7270	0	26.624	0	200.180	0	-1e10	8	-1e10	8	-1E+10	1	-1E+10	1	-1E+10	1	-1E+10	1	-1E+10	1	-1E+10	1
4902554	44	C	04/23/2022	00:56	-135.730	49.496	0	203.20	0	5.3720	0	33.7260	0	26.624	0	201.368	0	-1e10	8	-1e10	8	-1E+10	1	-1E+10	1	-1E+10	1	-1E+10	1	-1E+10	1	-1E+10	1
4902554	44	C	04/23/2022	00:56	-135.730	49.496	0	204.00	0	5.3420	0	33.7300	0	26.631	0	202.161	0	-1e10	8	-1e10	8	-1E+10	1	-1E+10	1	-1E+10	1	-1E+10	1	-1E+10	1	-1E+10	1
4902554	44	C	04/23/2022	00:56	-135.730	49.496	0	204.80	0	5.2800	0	33.7370	0	26.644	0	202.953	0	-1e10	8	-1e10	8	-1E+10	1	-1E+10	1	-1E+10	1	-1E+10	1	-1E+10	1	-1E+10	1
4902554	44	C	04/23/2022	00:56	-135.730	49.496	0	206.00	0	5.2580	0	33.7390	0	26.648	0	204.142	0	-1e10	8	-1e10	8	-1E+10	1	-1E+10	1	-1E+10	1	-1E+10	1	-1E+10	1	-1E+10	1
4902554	44	C	04/23/2022	00:56	-135.730	49.496	0	207.30	0	5.2340	0	33.7450	0	26.655	0	205.429	0	-1e10	8	-1e10	8	-1E+10	1	-1E+10	1	-1E+10	1	-1E+10	1	-1E+10	1	-1E+10	1
4902554	44	C	04/23/2022	00:56	-135.730	49.496	0	208.10	0	5.2190	0	33.7480	0	26.660	0	206.222	0	-1e10	8	-1e10	8	-1E+10	1	-1E+10	1	-1E+10	1	-1E+10	1	-1E+10	1	-1E+10	1
4902554	44	C	04/23/2022	00:56	-135.730	49.496	0	209.00	0	5.1970	0	33.7460	0	26.661	0	207.113	0	-1e10	8	-1e10	8	-1E+10	1	-1E+10	1	-1E+10	1	-1E+10	1	-1E+10	1	-1E+10	1
4902554	44	C	04/23/2022	00:56	-135.730	49.496	0	209.80	0	5.1920	0	33.7460	0	26.661	0	207.905	0	-1e10	8	-1e10	8	-1E+10	1	-1E+10	1	-1E+10	1	-1E+10	1	-1E+10	1	-1E+10	1
4902554	44	C	04/23/2022	00:56	-135.730	49.496	0	210.70	0	5.1810	0	33.7480	0	26.664	0	208.797	0	-1e10	8	-1e10	8	-1E+10	1	-1E+10	1	-1E+10	1	-1E+10	1	-1E+10	1	-1E+10	1
4902554	44	C	04/23/2022	00:56	-135.730	49.496	0	211.90	0	5.1590	0	33.7500	0	26.668	0	209.985	0	-1e10	8	-1e10	8	-1E+10	1	-1E+10	1	-1E+10	1	-1E+10	1	-1E+10	1	-1E+10	1
4902554	44	C	04/23/2022	00:56	-135.730	49.496	0	213.20	0	5.1230	0	33.7560	0	26.677	0	211.273	0	-1e10	8	-1e10	8	-1E+10	1	-1E+10	1	-1E+10	1	-1E+10	1	-1E+10	1	-1E+10	1
4902554	44	C	04/23/2022	00:56	-135.730	49.496	0	214.00	0	5.1100	0	33.7580	0	26.680	0	212.065	0	-1e10	8	-1e10	8	-1E+10	1	-1E+10	1	-1E+10	1	-1E+10	1	-1E+10	1	-1E+10	1
4902554	44	C	04/23/2022	00:56	-135.730	49.496	0	214.90	0	5.1070	0	33.7580	0	26.680	0	212.957	0	-1e10	8	-1e10	8	-1E+10	1	-1E+10	1	-1E+10	1	-1E+10	1	-1E+10	1	-1E+10	1
4902554	44	C	04/23/2022	00:56	-135.730	49.496	0	215.70	0	5.1040	0	33.7580	0	26.681	0	213.749	0	-1e10	8	-1e10	8	-1E+10	1	-1E+10	1	-1E+10	1	-1E+10	1	-1E+10	1	-1E+10	1
4902554	44	C	04/23/2022	00:56	-135.730	49.496	0	216.90	0	5.0810	0	33.7630	0	26.687	0	214.938	0	-1e10	8	-1e10	8	-1E+10	1	-1E+10	1	-1E+10	1	-1E+10	1	-1E+10	1	-1E+10	1
4902554	44	C	04/23/2022	00:56	-135.730	49.496	0	218.20	0	5.0630	0	33.7660	0	26.692	0	216.225	0	-1e10	8	-1e10	8	-1E+10	1	-1E+10	1	-1E+10	1	-1E+10	1	-1E+10	1	-1E+10	1
4902554	44	C	04/23/2022	00:56	-135.730	49.496	0	219.00	0	5.0540	0	33.7680	0	26.694	0	217.017	0	-1e10	8	-1e10	8	-1E+10	1	-1E+10	1	-1E+10	1	-1E+10	1	-1E+10	1	-1E+10	1
4902554	44	C	04/23/2022	00:56	-135.730	49.496	0	219.80	0	5.0460	0	33.7690	0	26.696	0	217.810	0	-1e10	8	-1e10	8	-1E+10	1	-1E+10	1	-1E+10	1	-1E+10	1	-1E+10	1	-1E+10	1
4902554	44	C	04/23/2022	00:56	-135.730	49.496	0	220.60	0	5.0390	0	33.7690	0	26.697	0	218.602	0	-1e10	8	-1e10	8	-1E+10	1	-1E+10	1	-1E+10	1	-1E+10	1	-1E+10	1	-1E+10	1
4902554	44	C	04/23/2022	00:56	-135.730	49.496	0	221.90	0	5.0210	0	33.7720	0	26.701	0	219.890	0	-1e10	8	-1e10	8	-1E+10	1	-1E+10	1	-1E+10	1	-1E+10	1	-1E+10	1	-1E+10	1
4902554	44	C	04/23/2022	00:56	-135.730	49.496	0	223.10	0	5.0150	0	33.7730	0	26.703	0	221.078	0	-1e10	8	-1e10	8	-1E+10	1	-1E+10	1	-1E+10	1	-1E+10	1	-1E+10	1	-1E+10	1
4902554	44	C	04/23/2022	00:56	-135.730	49.496	0	224.00	0	5.0010	0	33.7770	0	26.708	0	221.969	0	-1e10	8	-1e10	8	-1E+10	1	-1E+10	1	-1E+10	1	-1E+10	1	-1E+10	1	-1E+10	1
4902554	44	C	04/23/2022	00:56	-135.730	49.496	0	224.80	0	4.9990	0	33.7780	0	26.709	0	222.762	0	-1e10	8	-1e10	8	-1E+10	1	-1E+10	1	-1E+10	1	-1E+10	1	-1E+10	1	-1E+10	1
4902554	44	C	04/23/2022	00:56	-135.730	49.496	0	225.60	0	4.9950	0	33.7770	0	26.708	0	223.554	0	-1e10	8	-1e10	8	-1E+10	1	-1E+10	1	-1E+10	1	-1E+10	1	-1E+10	1	-1E+10	1
4902554	44	C	04/23/2022	00:56	-135.730	49.496	0	226.90	0	4.9860	0	33.7770	0	26.709	0	224.842	0	-1e10	8	-1e10	8	-1E+10	1	-1E+10	1	-1E+10	1	-1E+10	1	-1E+10	1	-1E+10	1
4902554	44	C	04/23/2022	00:56	-135.730	49.496	0	228.10	0	4.9750	0	33.7820	0	26.715	0	226.030	0	-1e10	8	-1e10	8	-1E+10	1	-1E+10	1	-1E+10	1	-1E+10	1	-1E+10	1	-1E+10	1
4902554	44	C	04/23/2022	00:56	-135.730	49.496	0	228.90	0	4.9690	0	33.7820	0	26.715	0	226.822	0	-1e10	8	-1e10	8	-1E+10	1	-1E+10	1	-1E+10	1	-1E+10	1	-1E+10	1	-1E+10	1
4902554	44	C	04/23/2022	00:56	-135.730	49.496	0	229.70	0	4.9640	0	33.7820	0	26.716	0	227.615	0	-1e10	8	-1e10	8	-1E+10	1	-1E+10	1	-1E+10	1	-1E+10	1	-1E+10	1	-1E+10	1
4902554	44	C	04/23/2022	00:56	-135.730	49.496	0	231.00	0	4.9530	0	33.7840	0	26.719	0	228.902	0	-1e10	8	-1e10	8	-1E+10	1	-1E+10	1	-1E+10	1	-1E+10	1	-1E+10	1	-1E+10	1
4902554	44	C	04/23/2022	00:56	-135.730	49.496	0	232.20	0	4.9480	0	33.7840	0	26.719	0	230.091	0	-1e10	8	-1e10	8	-1E+10	1	-1E+10	1	-1E+10	1	-1E+10	1	-1E+10	1	-1E+10	1
4902554	44	C	04/23/2022	00:56	-135.730	49.496	0	233.10	0	4.9450	0	33.7850	0	26.720	0	230.982	0	-1e10	8	-1e10	8	-1E+10	1	-1E+10	1	-1E+10	1	-1E+10	1	-1E+10	1	-1E+10	1
4902554	44	C	04/23/2022	00:56	-135.730	49.496	0	233.90	0	4.9420	0	33.7850	0	26.721	0	231.774	0	-1e10	8	-1e10	8	-1E+10	1	-1E+10	1	-1E+10	1	-1E+10	1	-1E+10	1	-1E+10	1
4902554	44	C	04/23/2022	00:56	-135.730	49.496	0	234.70	0	4.9380	0	33.7860	0	26.722	0	232.566	0	-1e10	8	-1e10	8	-1E+10	1	-1E+10	1	-1E+10	1	-1E+10	1	-1E+10	1	-1E+10	1
4902554	44	C	04/23/2022	00:56	-135.730	49.496	0	235.90	0	4.9310	0	33.7870	0	26.724	0	233.755	0	-1e10	8	-1e10	8	-1E+10	1	-1E+10	1	-1E+10	1	-1E+10	1	-1E+10	1	-1E+10	1
4902554	44	C	04/23/2022	00:56	-135.730	49.496	0	237.20	0	4.9160	0	33.7890	0	26.727	0	235.042	0	-1e10	8	-1e10	8	-1E+10	1	-1E+10	1	-1E+10	1	-1E+10	1	-1E+10	1	-1E+10	1
4902554	44	C	04/23/2022	00:56	-135.730	49.496	0	238.00	0	4.9120	0	33.7910	0	26.729	0	235.835	0	-1e10	8	-1e10	8	-1E+10	1	-1E+10	1	-1E+10	1	-1E+10	1	-1E+10	1	-1E+10	1
4902554	44	C	04/23/2022	00:56	-135.730	49.496	0	238.90	0	4.9020	0	33.7940	0	26.732	0	236.726	0	-1e10	8	-1e10	8	-1E+10	1	-1E+10	1	-1E+10	1	-1E+10	1	-1E+10	1	-1E+10	1
4902554	44	C	04/23/2022	00:56	-135.730	49.496	0	239.70	0	4.8930	0	33.7960	0	26.735	0	237.518	0	-1e10	8	-1e10	8	-1E+10	1	-1E+10	1	-1E+10	1	-1E+10	1	-1E+10	1	-1E+10	1
4902554	44	C	04/23/2022	00:56	-135.730	49.496	0	241.00	0	4.8840	0	33.7970	0	26.737	0	238.806	0	-1e10	8	-1e10	8	-1E+10	1	-1E+10	1	-1E+10	1	-1E+10	1	-1E+10	1	-1E+10	1
4902554	44	C	04/23/2022	00:56	-135.730	49.496	0	242.20	0	4.8690	0	33.8000	0	26.741	0	239.994	0	-1e10	8	-1e10	8	-1E+10	1	-1E+10	1	-1E+10	1	-1E+10	1	-1E+10	1	-1E+10	1
4902554	44	C	04/23/2022	00:56	-135.730	49.496	0	243.10	0	4.8600	0	33.8010	0	26.743	0	240.885	0	-1e10	8	-1e10	8	-1E+10	1	-1E+10	1	-1E+10	1	-1E+10	1	-1E+10	1	-1E+10	1
4902554	44	C	04/23/2022	00:56	-135.730	49.496	0	243.90	0	4.8500	0	33.8030	0	26.745	0	241.677	0	-1e10	8	-1e10	8	-1E+10	1	-1E+10	1	-1E+10	1	-1E+10	1	-1E+10	1	-1E+10	1
4902554	44	C	04/23/2022	00:56	-135.730	49.496	0	244.70	0	4.8350	0	33.8030	0	26.747	0	242.470	0	-1e10	8	-1e10	8	-1E+10	1	-1E+10	1	-1E+10	1	-1E+10	1	-1E+10	1	-1E+10	1
4902554	44	C	04/23/2022	00:56	-135.730	49.496	0	245.90	0	4.8260	0	33.8050	0	26.750	0	243.658	0	-1e10	8	-1e10	8	-1E+10	1	-1E+10	1	-1E+10	1	-1E+10	1	-1E+10	1	-1E+10	1
4902554	44	C	04/23/2022	00:56	-135.730	49.496	0	247.20	0	4.8020	0	33.8100	0	26.756	0	244.945	0	-1e10	8	-1e10	8	-1E+10	1	-1E+10	1	-1E+10	1	-1E+10	1	-1E+10	1	-1E+10	1
4902554	44	C	04/23/2022	00:56	-135.730	49.496	0	248.10	0	4.7950	0	33.8110	0	26.758	0	245.837	0	-1e10	8	-1e10	8	-1E+10	1	-1E+10	1	-1E+10	1	-1E+10	1	-1E+10	1	-1E+10	1
4902554	44	C	04/23/2022	00:56	-135.730	49.496	0	248.90	0	4.7880	0	33.8110	0	26.759	0	246.629	0	-1e10	8	-1e10	8	-1E+10	1	-1E+10	1	-1E+10	1	-1E+10	1	-1E+10	1	-1E+10	1
4902554	44	C	04/23/2022	00:56	-135.730	49.496	0	249.70	0	4.7800	0	33.8130	0	26.761	0	247.421	0	-1e10	8	-1e10	8	-1E+10	1	-1E+10	1	-1E+10	1	-1E+10	1	-1E+10	1	-1E+10	1
4902554	44	C	04/23/2022	00:56	-135.730	49.496	0	251.00	0	4.7610	0	33.8150	0	26.765	0	248.709	0	-1e10	8	-1e10	8	-1E+10	1	-1E+10	1	-1E+10	1	-1E+10	1	-1E+10	1	-1E+10	1
4902554	44	C	04/23/2022	00:56	-135.730	49.496	0	252.20	0	4.7570	0	33.8170	0	26.767	0	249.897	0	-1e10	8	-1e10	8	-1E+10	1	-1E+10	1	-1E+10	1	-1E+10	1	-1E+10	1	-1E+10	1
4902554	44	C	04/23/2022	00:56	-135.730	49.496	0	253.10	0	4.7550	0	33.8160	0	26.766	0	250.788	0	-1e10	8	-1e10	8	-1E+10	1	-1E+10	1	-1E+10	1	-1E+10	1	-1E+10	1	-1E+10	1
4902554	44	C	04/23/2022	00:56	-135.730	49.496	0	253.90	0	4.7520	0	33.8160	0	26.767	0	251.580	0	-1e10	8	-1e10	8	-1E+10	1	-1E+10	1	-1E+10	1	-1E+10	1	-1E+10	1	-1E+10	1
4902554	44	C	04/23/2022	00:56	-135.730	49.496	0	254.70	0	4.7330	0	33.8170	0	26.770	0	252.372	0	-1e10	8	-1e10	8	-1E+10	1	-1E+10	1	-1E+10	1	-1E+10	1	-1E+10	1	-1E+10	1
4902554	44	C	04/23/2022	00:56	-135.730	49.496	0	256.00	0	4.7220	0	33.8170	0	26.771	0	253.660	0	-1e10	8	-1e10	8	-1E+10	1	-1E+10	1	-1E+10	1	-1E+10	1	-1E+10	1	-1E+10	1
4902554	44	C	04/23/2022	00:56	-135.730	49.496	0	257.20	0	4.7030	0	33.8180	0	26.774	0	254.848	0	-1e10	8	-1e10	8	-1E+10	1	-1E+10	1	-1E+10	1	-1E+10	1	-1E+10	1	-1E+10	1
4902554	44	C	04/23/2022	00:56	-135.730	49.496	0	258.10	0	4.6850	0	33.8190	0	26.776	0	255.739	0	-1e10	8	-1e10	8	-1E+10	1	-1E+10	1	-1E+10	1	-1E+10	1	-1E+10	1	-1E+10	1
4902554	44	C	04/23/2022	00:56	-135.730	49.496	0	258.90	0	4.6780	0	33.8210	0	26.779	0	256.531	0	-1e10	8	-1e10	8	-1E+10	1	-1E+10	1	-1E+10	1	-1E+10	1	-1E+10	1	-1E+10	1
4902554	44	C	04/23/2022	00:56	-135.730	49.496	0	259.80	0	4.6720	0	33.8220	0	26.780	0	257.423	0	-1e10	8	-1e10	8	-1E+10	1	-1E+10	1	-1E+10	1	-1E+10	1	-1E+10	1	-1E+10	1
4902554	44	C	04/23/2022	00:56	-135.730	49.496	0	261.00	0	4.6720	0	33.8230	0	26.781	0	258.611	0	-1e10	8	-1e10	8	-1E+10	1	-1E+10	1	-1E+10	1	-1E+10	1	-1E+10	1	-1E+10	1
4902554	44	C	04/23/2022	00:56	-135.730	49.496	0	262.30	0	4.6740	0	33.8250	0	26.782	0	259.898	0	-1e10	8	-1e10	8	-1E+10	1	-1E+10	1	-1E+10	1	-1E+10	1	-1E+10	1	-1E+10	1
4902554	44	C	04/23/2022	00:56	-135.730	49.496	0	263.10	0	4.6630	0	33.8270	0	26.785	0	260.690	0	-1e10	8	-1e10	8	-1E+10	1	-1E+10	1	-1E+10	1	-1E+10	1	-1E+10	1	-1E+10	1
4902554	44	C	04/23/2022	00:56	-135.730	49.496	0	263.90	0	4.6590	0	33.8260	0	26.785	0	261.483	0	-1e10	8	-1e10	8	-1E+10	1	-1E+10	1	-1E+10	1	-1E+10	1	-1E+10	1	-1E+10	1
4902554	44	C	04/23/2022	00:56	-135.730	49.496	0	264.80	0	4.6520	0	33.8290	0	26.788	0	262.374	0	-1e10	8	-1e10	8	-1E+10	1	-1E+10	1	-1E+10	1	-1E+10	1	-1E+10	1	-1E+10	1
4902554	44	C	04/23/2022	00:56	-135.730	49.496	0	265.60	0	4.6600	0	33.8310	0	26.789	0	263.166	0	-1e10	8	-1e10	8	-1E+10	1	-1E+10	1	-1E+10	1	-1E+10	1	-1E+10	1	-1E+10	1
4902554	44	C	04/23/2022	00:56	-135.730	49.496	0	266.90	0	4.6190	0	33.8380	0	26.799	0	264.453	0	-1e10	8	-1e10	8	-1E+10	1	-1E+10	1	-1E+10	1	-1E+10	1	-1E+10	1	-1E+10	1
4902554	44	C	04/23/2022	00:56	-135.730	49.496	0	268.20	0	4.6100	0	33.8400	0	26.801	0	265.740	0	-1e10	8	-1e10	8	-1E+10	1	-1E+10	1	-1E+10	1	-1E+10	1	-1E+10	1	-1E+10	1
4902554	44	C	04/23/2022	00:56	-135.730	49.496	0	269.00	0	4.6080	0	33.8410	0	26.802	0	266.533	0	-1e10	8	-1e10	8	-1E+10	1	-1E+10	1	-1E+10	1	-1E+10	1	-1E+10	1	-1E+10	1
4902554	44	C	04/23/2022	00:56	-135.730	49.496	0	269.90	0	4.6060	0	33.8410	0	26.803	0	267.424	0	-1e10	8	-1e10	8	-1E+10	1	-1E+10	1	-1E+10	1	-1E+10	1	-1E+10	1	-1E+10	1
4902554	44	C	04/23/2022	00:56	-135.730	49.496	0	270.70	0	4.6050	0	33.8410	0	26.803	0	268.216	0	-1e10	8	-1e10	8	-1E+10	1	-1E+10	1	-1E+10	1	-1E+10	1	-1E+10	1	-1E+10	1
4902554	44	C	04/23/2022	00:56	-135.730	49.496	0	271.90	0	4.5930	0	33.8430	0	26.806	0	269.404	0	-1e10	8	-1e10	8	-1E+10	1	-1E+10	1	-1E+10	1	-1E+10	1	-1E+10	1	-1E+10	1
4902554	44	C	04/23/2022	00:56	-135.730	49.496	0	273.30	0	4.5850	0	33.8440	0	26.807	0	270.790	0	-1e10	8	-1e10	8	-1E+10	1	-1E+10	1	-1E+10	1	-1E+10	1	-1E+10	1	-1E+10	1
4902554	44	C	04/23/2022	00:56	-135.730	49.496	0	274.10	0	4.5690	0	33.8500	0	26.814	0	271.582	0	-1e10	8	-1e10	8	-1E+10	1	-1E+10	1	-1E+10	1	-1E+10	1	-1E+10	1	-1E+10	1
4902554	44	C	04/23/2022	00:56	-135.730	49.496	0	275.00	0	4.5660	0	33.8510	0	26.815	0	272.474	0	-1e10	8	-1e10	8	-1E+10	1	-1E+10	1	-1E+10	1	-1E+10	1	-1E+10	1	-1E+10	1
4902554	44	C	04/23/2022	00:56	-135.730	49.496	0	275.90	0	4.5640	0	33.8520	0	26.816	0	273.365	0	-1e10	8	-1e10	8	-1E+10	1	-1E+10	1	-1E+10	1	-1E+10	1	-1E+10	1	-1E+10	1
4902554	44	C	04/23/2022	00:56	-135.730	49.496	0	276.70	0	4.5620	0	33.8520	0	26.816	0	274.157	0	-1e10	8	-1e10	8	-1E+10	1	-1E+10	1	-1E+10	1	-1E+10	1	-1E+10	1	-1E+10	1
4902554	44	C	04/23/2022	00:56	-135.730	49.496	0	277.60	0	4.5600	0	33.8530	0	26.817	0	275.048	0	-1e10	8	-1e10	8	-1E+10	1	-1E+10	1	-1E+10	1	-1E+10	1	-1E+10	1	-1E+10	1
4902554	44	C	04/23/2022	00:56	-135.730	49.496	0	278.90	0	4.5570	0	33.8530	0	26.817	0	276.335	0	-1e10	8	-1e10	8	-1E+10	1	-1E+10	1	-1E+10	1	-1E+10	1	-1E+10	1	-1E+10	1
4902554	44	C	04/23/2022	00:56	-135.730	49.496	0	280.20	0	4.5500	0	33.8550	0	26.820	0	277.622	0	-1e10	8	-1e10	8	-1E+10	1	-1E+10	1	-1E+10	1	-1E+10	1	-1E+10	1	-1E+10	1
4902554	44	C	04/23/2022	00:56	-135.730	49.496	0	281.10	0	4.5470	0	33.8550	0	26.820	0	278.513	0	-1e10	8	-1e10	8	-1E+10	1	-1E+10	1	-1E+10	1	-1E+10	1	-1E+10	1	-1E+10	1
4902554	44	C	04/23/2022	00:56	-135.730	49.496	0	281.90	0	4.5450	0	33.8560	0	26.821	0	279.306	0	-1e10	8	-1e10	8	-1E+10	1	-1E+10	1	-1E+10	1	-1E+10	1	-1E+10	1	-1E+10	1
4902554	44	C	04/23/2022	00:56	-135.730	49.496	0	282.80	0	4.5440	0	33.8560	0	26.821	0	280.197	0	-1e10	8	-1e10	8	-1E+10	1	-1E+10	1	-1E+10	1	-1E+10	1	-1E+10	1	-1E+10	1
4902554	44	C	04/23/2022	00:56	-135.730	49.496	0	283.70	0	4.5440	0	33.8570	0	26.822	0	281.088	0	-1e10	8	-1e10	8	-1E+10	1	-1E+10	1	-1E+10	1	-1E+10	1	-1E+10	1	-1E+10	1
4902554	44	C	04/23/2022	00:56	-135.730	49.496	0	284.90	0	4.5420	0	33.8570	0	26.822	0	282.276	0	-1e10	8	-1e10	8	-1E+10	1	-1E+10	1	-1E+10	1	-1E+10	1	-1E+10	1	-1E+10	1
4902554	44	C	04/23/2022	00:56	-135.730	49.496	0	286.20	0	4.5400	0	33.8580	0	26.823	0	283.563	0	-1e10	8	-1e10	8	-1E+10	1	-1E+10	1	-1E+10	1	-1E+10	1	-1E+10	1	-1E+10	1
4902554	44	C	04/23/2022	00:56	-135.730	49.496	0	287.10	0	4.5310	0	33.8610	0	26.827	0	284.454	0	-1e10	8	-1e10	8	-1E+10	1	-1E+10	1	-1E+10	1	-1E+10	1	-1E+10	1	-1E+10	1
4902554	44	C	04/23/2022	00:56	-135.730	49.496	0	288.00	0	4.5250	0	33.8610	0	26.827	0	285.345	0	-1e10	8	-1e10	8	-1E+10	1	-1E+10	1	-1E+10	1	-1E+10	1	-1E+10	1	-1E+10	1
4902554	44	C	04/23/2022	00:56	-135.730	49.496	0	288.90	0	4.5260	0	33.8610	0	26.827	0	286.236	0	-1e10	8	-1e10	8	-1E+10	1	-1E+10	1	-1E+10	1	-1E+10	1	-1E+10	1	-1E+10	1
4902554	44	C	04/23/2022	00:56	-135.730	49.496	0	289.80	0	4.5240	0	33.8620	0	26.828	0	287.127	0	-1e10	8	-1e10	8	-1E+10	1	-1E+10	1	-1E+10	1	-1E+10	1	-1E+10	1	-1E+10	1
4902554	44	C	04/23/2022	00:56	-135.730	49.496	0	290.70	0	4.5230	0	33.8630	0	26.829	0	288.018	0	-1e10	8	-1e10	8	-1E+10	1	-1E+10	1	-1E+10	1	-1E+10	1	-1E+10	1	-1E+10	1
4902554	44	C	04/23/2022	00:56	-135.730	49.496	0	291.60	0	4.5220	0	33.8630	0	26.829	0	288.910	0	-1e10	8	-1e10	8	-1E+10	1	-1E+10	1	-1E+10	1	-1E+10	1	-1E+10	1	-1E+10	1
4902554	44	C	04/23/2022	00:56	-135.730	49.496	0	292.90	0	4.5110	0	33.8660	0	26.833	0	290.197	0	-1e10	8	-1e10	8	-1E+10	1	-1E+10	1	-1E+10	1	-1E+10	1	-1E+10	1	-1E+10	1
4902554	44	C	04/23/2022	00:56	-135.730	49.496	0	294.30	0	4.5020	0	33.8670	0	26.835	0	291.583	0	-1e10	8	-1e10	8	-1E+10	1	-1E+10	1	-1E+10	1	-1E+10	1	-1E+10	1	-1E+10	1
4902554	44	C	04/23/2022	00:56	-135.730	49.496	0	295.30	0	4.4920	0	33.8690	0	26.837	0	292.573	0	-1e10	8	-1e10	8	-1E+10	1	-1E+10	1	-1E+10	1	-1E+10	1	-1E+10	1	-1E+10	1
4902554	44	C	04/23/2022	00:56	-135.730	49.496	0	296.20	0	4.4900	0	33.8710	0	26.839	0	293.464	0	-1e10	8	-1e10	8	-1E+10	1	-1E+10	1	-1E+10	1	-1E+10	1	-1E+10	1	-1E+10	1
4902554	44	C	04/23/2022	00:56	-135.730	49.496	0	297.20	0	4.4900	0	33.8730	0	26.841	0	294.454	0	-1e10	8	-1e10	8	-1E+10	1	-1E+10	1	-1E+10	1	-1E+10	1	-1E+10	1	-1E+10	1
4902554	44	C	04/23/2022	00:56	-135.730	49.496	0	298.10	0	4.4870	0	33.8760	0	26.843	0	295.345	0	-1e10	8	-1e10	8	-1E+10	1	-1E+10	1	-1E+10	1	-1E+10	1	-1E+10	1	-1E+10	1
4902554	44	C	04/23/2022	00:56	-135.730	49.496	0	299.10	0	4.4870	0	33.8780	0	26.845	0	296.335	0	-1e10	8	-1e10	8	-1E+10	1	-1E+10	1	-1E+10	1	-1E+10	1	-1E+10	1	-1E+10	1
4902554	44	C	04/23/2022	00:56	-135.730	49.496	0	300.00	0	4.4870	0	33.8810	0	26.847	0	297.226	0	-1e10	8	-1e10	8	-1E+10	1	-1E+10	1	-1E+10	1	-1E+10	1	-1E+10	1	-1E+10	1
4902554	44	C	04/23/2022	00:56	-135.730	49.496	0	301.00	0	4.4840	0	33.8830	0	26.849	0	298.216	0	-1e10	8	-1e10	8	-1E+10	1	-1E+10	1	-1E+10	1	-1E+10	1	-1E+10	1	-1E+10	1
4902554	44	C	04/23/2022	00:56	-135.730	49.496	0	301.90	0	4.4840	0	33.8840	0	26.850	0	299.107	0	-1e10	8	-1e10	8	-1E+10	1	-1E+10	1	-1E+10	1	-1E+10	1	-1E+10	1	-1E+10	1
4902554	44	C	04/23/2022	00:56	-135.730	49.496	0	302.90	0	4.4810	0	33.8850	0	26.851	0	300.097	0	-1e10	8	-1e10	8	-1E+10	1	-1E+10	1	-1E+10	1	-1E+10	1	-1E+10	1	-1E+10	1
4902554	44	C	04/23/2022	00:56	-135.730	49.496	0	303.90	0	4.4770	0	33.8870	0	26.853	0	301.087	0	-1e10	8	-1e10	8	-1E+10	1	-1E+10	1	-1E+10	1	-1E+10	1	-1E+10	1	-1E+10	1
4902554	44	C	04/23/2022	00:56	-135.730	49.496	0	304.90	0	4.4750	0	33.8890	0	26.855	0	302.077	0	-1e10	8	-1e10	8	-1E+10	1	-1E+10	1	-1E+10	1	-1E+10	1	-1E+10	1	-1E+10	1
4902554	44	C	04/23/2022	00:56	-135.730	49.496	0	305.90	0	4.4690	0	33.8890	0	26.856	0	303.067	0	-1e10	8	-1e10	8	-1E+10	1	-1E+10	1	-1E+10	1	-1E+10	1	-1E+10	1	-1E+10	1
4902554	44	C	04/23/2022	00:56	-135.730	49.496	0	306.90	0	4.4480	0	33.8930	0	26.861	0	304.057	0	-1e10	8	-1e10	8	-1E+10	1	-1E+10	1	-1E+10	1	-1E+10	1	-1E+10	1	-1E+10	1
4902554	44	C	04/23/2022	00:56	-135.730	49.496	0	307.90	0	4.4440	0	33.8940	0	26.862	0	305.047	0	-1e10	8	-1e10	8	-1E+10	1	-1E+10	1	-1E+10	1	-1E+10	1	-1E+10	1	-1E+10	1
4902554	44	C	04/23/2022	00:56	-135.730	49.496	0	308.90	0	4.4400	0	33.8950	0	26.864	0	306.037	0	-1e10	8	-1e10	8	-1E+10	1	-1E+10	1	-1E+10	1	-1E+10	1	-1E+10	1	-1E+10	1
4902554	44	C	04/23/2022	00:56	-135.730	49.496	0	309.90	0	4.4340	0	33.8970	0	26.866	0	307.027	0	-1e10	8	-1e10	8	-1E+10	1	-1E+10	1	-1E+10	1	-1E+10	1	-1E+10	1	-1E+10	1
4902554	44	C	04/23/2022	00:56	-135.730	49.496	0	310.90	0	4.4280	0	33.9000	0	26.869	0	308.017	0	-1e10	8	-1e10	8	-1E+10	1	-1E+10	1	-1E+10	1	-1E+10	1	-1E+10	1	-1E+10	1
4902554	44	C	04/23/2022	00:56	-135.730	49.496	0	311.90	0	4.4220	0	33.9020	0	26.871	0	309.007	0	-1e10	8	-1e10	8	-1E+10	1	-1E+10	1	-1E+10	1	-1E+10	1	-1E+10	1	-1E+10	1
4902554	44	C	04/23/2022	00:56	-135.730	49.496	0	312.90	0	4.4210	0	33.9030	0	26.872	0	309.997	0	-1e10	8	-1e10	8	-1E+10	1	-1E+10	1	-1E+10	1	-1E+10	1	-1E+10	1	-1E+10	1
4902554	44	C	04/23/2022	00:56	-135.730	49.496	0	313.90	0	4.4200	0	33.9030	0	26.872	0	310.987	0	-1e10	8	-1e10	8	-1E+10	1	-1E+10	1	-1E+10	1	-1E+10	1	-1E+10	1	-1E+10	1
4902554	44	C	04/23/2022	00:56	-135.730	49.496	0	314.90	0	4.4190	0	33.9040	0	26.873	0	311.977	0	-1e10	8	-1e10	8	-1E+10	1	-1E+10	1	-1E+10	1	-1E+10	1	-1E+10	1	-1E+10	1
4902554	44	C	04/23/2022	00:56	-135.730	49.496	0	315.90	0	4.4180	0	33.9040	0	26.873	0	312.967	0	-1e10	8	-1e10	8	-1E+10	1	-1E+10	1	-1E+10	1	-1E+10	1	-1E+10	1	-1E+10	1
4902554	44	C	04/23/2022	00:56	-135.730	49.496	0	316.80	0	4.4150	0	33.9070	0	26.876	0	313.858	0	-1e10	8	-1e10	8	-1E+10	1	-1E+10	1	-1E+10	1	-1E+10	1	-1E+10	1	-1E+10	1
4902554	44	C	04/23/2022	00:56	-135.730	49.496	0	318.00	0	4.4110	0	33.9070	0	26.876	0	315.046	0	-1e10	8	-1e10	8	-1E+10	1	-1E+10	1	-1E+10	1	-1E+10	1	-1E+10	1	-1E+10	1
4902554	44	C	04/23/2022	00:56	-135.730	49.496	0	319.20	0	4.4070	0	33.9080	0	26.878	0	316.234	0	-1e10	8	-1e10	8	-1E+10	1	-1E+10	1	-1E+10	1	-1E+10	1	-1E+10	1	-1E+10	1
4902554	44	C	04/23/2022	00:56	-135.730	49.496	0	320.00	0	4.4000	0	33.9120	0	26.881	0	317.026	0	-1e10	8	-1e10	8	-1E+10	1	-1E+10	1	-1E+10	1	-1E+10	1	-1E+10	1	-1E+10	1
4902554	44	C	04/23/2022	00:56	-135.730	49.496	0	320.80	0	4.3970	0	33.9120	0	26.882	0	317.818	0	-1e10	8	-1e10	8	-1E+10	1	-1E+10	1	-1E+10	1	-1E+10	1	-1E+10	1	-1E+10	1
4902554	44	C	04/23/2022	00:56	-135.730	49.496	0	322.00	0	4.3930	0	33.9150	0	26.885	0	319.006	0	-1e10	8	-1e10	8	-1E+10	1	-1E+10	1	-1E+10	1	-1E+10	1	-1E+10	1	-1E+10	1
4902554	44	C	04/23/2022	00:56	-135.730	49.496	0	323.20	0	4.3930	0	33.9150	0	26.885	0	320.194	0	-1e10	8	-1e10	8	-1E+10	1	-1E+10	1	-1E+10	1	-1E+10	1	-1E+10	1	-1E+10	1
4902554	44	C	04/23/2022	00:56	-135.730	49.496	0	324.00	0	4.3920	0	33.9160	0	26.886	0	320.985	0	-1e10	8	-1e10	8	-1E+10	1	-1E+10	1	-1E+10	1	-1E+10	1	-1E+10	1	-1E+10	1
4902554	44	C	04/23/2022	00:56	-135.730	49.496	0	324.80	0	4.3910	0	33.9160	0	26.886	0	321.777	0	-1e10	8	-1e10	8	-1E+10	1	-1E+10	1	-1E+10	1	-1E+10	1	-1E+10	1	-1E+10	1
4902554	44	C	04/23/2022	00:56	-135.730	49.496	0	326.00	0	4.3890	0	33.9170	0	26.887	0	322.965	0	-1e10	8	-1e10	8	-1E+10	1	-1E+10	1	-1E+10	1	-1E+10	1	-1E+10	1	-1E+10	1
4902554	44	C	04/23/2022	00:56	-135.730	49.496	0	327.20	0	4.3870	0	33.9200	0	26.889	0	324.153	0	-1e10	8	-1e10	8	-1E+10	1	-1E+10	1	-1E+10	1	-1E+10	1	-1E+10	1	-1E+10	1
4902554	44	C	04/23/2022	00:56	-135.730	49.496	0	328.10	0	4.3870	0	33.9210	0	26.890	0	325.044	0	-1e10	8	-1e10	8	-1E+10	1	-1E+10	1	-1E+10	1	-1E+10	1	-1E+10	1	-1E+10	1
4902554	44	C	04/23/2022	00:56	-135.730	49.496	0	328.90	0	4.3870	0	33.9210	0	26.890	0	325.836	0	-1e10	8	-1e10	8	-1E+10	1	-1E+10	1	-1E+10	1	-1E+10	1	-1E+10	1	-1E+10	1
4902554	44	C	04/23/2022	00:56	-135.730	49.496	0	329.70	0	4.3860	0	33.9220	0	26.891	0	326.628	0	-1e10	8	-1e10	8	-1E+10	1	-1E+10	1	-1E+10	1	-1E+10	1	-1E+10	1	-1E+10	1
4902554	44	C	04/23/2022	00:56	-135.730	49.496	0	331.00	0	4.3850	0	33.9220	0	26.891	0	327.915	0	-1e10	8	-1e10	8	-1E+10	1	-1E+10	1	-1E+10	1	-1E+10	1	-1E+10	1	-1E+10	1
4902554	44	C	04/23/2022	00:56	-135.730	49.496	0	332.30	0	4.3840	0	33.9230	0	26.892	0	329.202	0	-1e10	8	-1e10	8	-1E+10	1	-1E+10	1	-1E+10	1	-1E+10	1	-1E+10	1	-1E+10	1
4902554	44	C	04/23/2022	00:56	-135.730	49.496	0	333.10	0	4.3840	0	33.9240	0	26.893	0	329.994	0	-1e10	8	-1e10	8	-1E+10	1	-1E+10	1	-1E+10	1	-1E+10	1	-1E+10	1	-1E+10	1
4902554	44	C	04/23/2022	00:56	-135.730	49.496	0	334.00	0	4.3840	0	33.9240	0	26.893	0	330.884	0	-1e10	8	-1e10	8	-1E+10	1	-1E+10	1	-1E+10	1	-1E+10	1	-1E+10	1	-1E+10	1
4902554	44	C	04/23/2022	00:56	-135.730	49.496	0	334.80	0	4.3830	0	33.9250	0	26.894	0	331.676	0	-1e10	8	-1e10	8	-1E+10	1	-1E+10	1	-1E+10	1	-1E+10	1	-1E+10	1	-1E+10	1
4902554	44	C	04/23/2022	00:56	-135.730	49.496	0	335.70	0	4.3830	0	33.9250	0	26.894	0	332.567	0	-1e10	8	-1e10	8	-1E+10	1	-1E+10	1	-1E+10	1	-1E+10	1	-1E+10	1	-1E+10	1
4902554	44	C	04/23/2022	00:56	-135.730	49.496	0	336.90	0	4.3820	0	33.9280	0	26.896	0	333.755	0	-1e10	8	-1e10	8	-1E+10	1	-1E+10	1	-1E+10	1	-1E+10	1	-1E+10	1	-1E+10	1
4902554	44	C	04/23/2022	00:56	-135.730	49.496	0	338.30	0	4.3800	0	33.9330	0	26.900	0	335.141	0	-1e10	8	-1e10	8	-1E+10	1	-1E+10	1	-1E+10	1	-1E+10	1	-1E+10	1	-1E+10	1
4902554	44	C	04/23/2022	00:56	-135.730	49.496	0	339.10	0	4.3800	0	33.9360	0	26.903	0	335.933	0	-1e10	8	-1e10	8	-1E+10	1	-1E+10	1	-1E+10	1	-1E+10	1	-1E+10	1	-1E+10	1
4902554	44	C	04/23/2022	00:56	-135.730	49.496	0	340.00	0	4.3790	0	33.9360	0	26.903	0	336.824	0	-1e10	8	-1e10	8	-1E+10	1	-1E+10	1	-1E+10	1	-1E+10	1	-1E+10	1	-1E+10	1
4902554	44	C	04/23/2022	00:56	-135.730	49.496	0	340.90	0	4.3790	0	33.9360	0	26.903	0	337.714	0	-1e10	8	-1e10	8	-1E+10	1	-1E+10	1	-1E+10	1	-1E+10	1	-1E+10	1	-1E+10	1
4902554	44	C	04/23/2022	00:56	-135.730	49.496	0	341.80	0	4.3790	0	33.9360	0	26.903	0	338.605	0	-1e10	8	-1e10	8	-1E+10	1	-1E+10	1	-1E+10	1	-1E+10	1	-1E+10	1	-1E+10	1
4902554	44	C	04/23/2022	00:56	-135.730	49.496	0	342.60	0	4.3780	0	33.9370	0	26.904	0	339.397	0	-1e10	8	-1e10	8	-1E+10	1	-1E+10	1	-1E+10	1	-1E+10	1	-1E+10	1	-1E+10	1
4902554	44	C	04/23/2022	00:56	-135.730	49.496	0	343.90	0	4.3780	0	33.9380	0	26.905	0	340.684	0	-1e10	8	-1e10	8	-1E+10	1	-1E+10	1	-1E+10	1	-1E+10	1	-1E+10	1	-1E+10	1
4902554	44	C	04/23/2022	00:56	-135.730	49.496	0	345.30	0	4.3780	0	33.9400	0	26.906	0	342.070	0	-1e10	8	-1e10	8	-1E+10	1	-1E+10	1	-1E+10	1	-1E+10	1	-1E+10	1	-1E+10	1
4902554	44	C	04/23/2022	00:56	-135.730	49.496	0	346.20	0	4.3770	0	33.9410	0	26.907	0	342.961	0	-1e10	8	-1e10	8	-1E+10	1	-1E+10	1	-1E+10	1	-1E+10	1	-1E+10	1	-1E+10	1
4902554	44	C	04/23/2022	00:56	-135.730	49.496	0	347.10	0	4.3750	0	33.9410	0	26.907	0	343.851	0	-1e10	8	-1e10	8	-1E+10	1	-1E+10	1	-1E+10	1	-1E+10	1	-1E+10	1	-1E+10	1
4902554	44	C	04/23/2022	00:56	-135.730	49.496	0	348.00	0	4.3740	0	33.9410	0	26.908	0	344.742	0	-1e10	8	-1e10	8	-1E+10	1	-1E+10	1	-1E+10	1	-1E+10	1	-1E+10	1	-1E+10	1
4902554	44	C	04/23/2022	00:56	-135.730	49.496	0	348.90	0	4.3740	0	33.9430	0	26.909	0	345.633	0	-1e10	8	-1e10	8	-1E+10	1	-1E+10	1	-1E+10	1	-1E+10	1	-1E+10	1	-1E+10	1
4902554	44	C	04/23/2022	00:56	-135.730	49.496	0	349.70	0	4.3760	0	33.9460	0	26.911	0	346.425	0	-1e10	8	-1e10	8	-1E+10	1	-1E+10	1	-1E+10	1	-1E+10	1	-1E+10	1	-1E+10	1
4902554	44	C	04/23/2022	00:56	-135.730	49.496	0	352.80	0	4.3650	0	33.9470	0	26.913	0	349.493	0	-1e10	8	-1e10	8	-1E+10	1	-1E+10	1	-1E+10	1	-1E+10	1	-1E+10	1	-1E+10	1
4902554	44	C	04/23/2022	00:56	-135.730	49.496	0	358.10	0	4.3610	0	33.9510	0	26.917	0	354.739	0	-1e10	8	-1e10	8	-1E+10	1	-1E+10	1	-1E+10	1	-1E+10	1	-1E+10	1	-1E+10	1
4902554	44	C	04/23/2022	00:56	-135.730	49.496	0	363.10	0	4.3620	0	33.9590	0	26.923	0	359.688	0	-1e10	8	-1e10	8	-1E+10	1	-1E+10	1	-1E+10	1	-1E+10	1	-1E+10	1	-1E+10	1
4902554	44	C	04/23/2022	00:56	-135.730	49.496	0	367.70	0	4.3810	0	33.9690	0	26.929	0	364.241	0	-1e10	8	-1e10	8	-1E+10	1	-1E+10	1	-1E+10	1	-1E+10	1	-1E+10	1	-1E+10	1
4902554	44	C	04/23/2022	00:56	-135.730	49.496	0	372.70	0	4.3750	0	33.9750	0	26.935	0	369.189	0	-1e10	8	-1e10	8	-1E+10	1	-1E+10	1	-1E+10	1	-1E+10	1	-1E+10	1	-1E+10	1
4902554	44	C	04/23/2022	00:56	-135.730	49.496	0	377.70	0	4.3710	0	33.9760	0	26.936	0	374.137	0	-1e10	8	-1e10	8	-1E+10	1	-1E+10	1	-1E+10	1	-1E+10	1	-1E+10	1	-1E+10	1
4902554	44	C	04/23/2022	00:56	-135.730	49.496	0	382.80	0	4.3670	0	33.9800	0	26.940	0	379.185	0	-1e10	8	-1e10	8	-1E+10	1	-1E+10	1	-1E+10	1	-1E+10	1	-1E+10	1	-1E+10	1
4902554	44	C	04/23/2022	00:56	-135.730	49.496	0	387.80	0	4.3680	0	33.9850	0	26.943	0	384.133	0	-1e10	8	-1e10	8	-1E+10	1	-1E+10	1	-1E+10	1	-1E+10	1	-1E+10	1	-1E+10	1
4902554	44	C	04/23/2022	00:56	-135.730	49.496	0	392.80	0	4.3680	0	33.9910	0	26.948	0	389.081	0	-1e10	8	-1e10	8	-1E+10	1	-1E+10	1	-1E+10	1	-1E+10	1	-1E+10	1	-1E+10	1
4902554	44	C	04/23/2022	00:56	-135.730	49.496	0	397.90	0	4.3670	0	33.9940	0	26.951	0	394.128	0	-1e10	8	-1e10	8	-1E+10	1	-1E+10	1	-1E+10	1	-1E+10	1	-1E+10	1	-1E+10	1
4902554	44	C	04/23/2022	00:56	-135.730	49.496	0	403.00	0	4.3610	0	33.9990	0	26.955	0	399.174	0	-1e10	8	-1e10	8	-1E+10	1	-1E+10	1	-1E+10	1	-1E+10	1	-1E+10	1	-1E+10	1
4902554	44	C	04/23/2022	00:56	-135.730	49.496	0	408.10	0	4.3470	0	34.0080	0	26.964	0	404.221	0	-1e10	8	-1e10	8	-1E+10	1	-1E+10	1	-1E+10	1	-1E+10	1	-1E+10	1	-1E+10	1
4902554	44	C	04/23/2022	00:56	-135.730	49.496	0	412.90	0	4.3380	0	34.0130	0	26.969	0	408.971	0	-1e10	8	-1e10	8	-1E+10	1	-1E+10	1	-1E+10	1	-1E+10	1	-1E+10	1	-1E+10	1
4902554	44	C	04/23/2022	00:56	-135.730	49.496	0	418.00	0	4.3340	0	34.0150	0	26.971	0	414.017	0	-1e10	8	-1e10	8	-1E+10	1	-1E+10	1	-1E+10	1	-1E+10	1	-1E+10	1	-1E+10	1
4902554	44	C	04/23/2022	00:56	-135.730	49.496	0	423.10	0	4.3250	0	34.0200	0	26.976	0	419.063	0	-1e10	8	-1e10	8	-1E+10	1	-1E+10	1	-1E+10	1	-1E+10	1	-1E+10	1	-1E+10	1
4902554	44	C	04/23/2022	00:56	-135.730	49.496	0	427.70	0	4.3190	0	34.0240	0	26.980	0	423.615	0	-1e10	8	-1e10	8	-1E+10	1	-1E+10	1	-1E+10	1	-1E+10	1	-1E+10	1	-1E+10	1
4902554	44	C	04/23/2022	00:56	-135.730	49.496	0	432.60	0	4.3090	0	34.0290	0	26.985	0	428.463	0	-1e10	8	-1e10	8	-1E+10	1	-1E+10	1	-1E+10	1	-1E+10	1	-1E+10	1	-1E+10	1
4902554	44	C	04/23/2022	00:56	-135.730	49.496	0	438.00	0	4.2960	0	34.0340	0	26.990	0	433.806	0	-1e10	8	-1e10	8	-1E+10	1	-1E+10	1	-1E+10	1	-1E+10	1	-1E+10	1	-1E+10	1
4902554	44	C	04/23/2022	00:56	-135.730	49.496	0	443.00	0	4.2820	0	34.0400	0	26.997	0	438.752	0	-1e10	8	-1e10	8	-1E+10	1	-1E+10	1	-1E+10	1	-1E+10	1	-1E+10	1	-1E+10	1
4902554	44	C	04/23/2022	00:56	-135.730	49.496	0	448.10	0	4.2760	0	34.0430	0	27.000	0	443.798	0	-1e10	8	-1e10	8	-1E+10	1	-1E+10	1	-1E+10	1	-1E+10	1	-1E+10	1	-1E+10	1
4902554	44	C	04/23/2022	00:56	-135.730	49.496	0	453.10	0	4.2630	0	34.0480	0	27.005	0	448.745	0	-1e10	8	-1e10	8	-1E+10	1	-1E+10	1	-1E+10	1	-1E+10	1	-1E+10	1	-1E+10	1
4902554	44	C	04/23/2022	00:56	-135.730	49.496	0	458.10	0	4.2480	0	34.0530	0	27.011	0	453.691	0	-1e10	8	-1e10	8	-1E+10	1	-1E+10	1	-1E+10	1	-1E+10	1	-1E+10	1	-1E+10	1
4902554	44	C	04/23/2022	00:56	-135.730	49.496	0	463.10	0	4.2370	0	34.0550	0	27.013	0	458.638	0	-1e10	8	-1e10	8	-1E+10	1	-1E+10	1	-1E+10	1	-1E+10	1	-1E+10	1	-1E+10	1
4902554	44	C	04/23/2022	00:56	-135.730	49.496	0	467.70	0	4.2260	0	34.0590	0	27.018	0	463.188	0	-1e10	8	-1e10	8	-1E+10	1	-1E+10	1	-1E+10	1	-1E+10	1	-1E+10	1	-1E+10	1
4902554	44	C	04/23/2022	00:56	-135.730	49.496	0	472.80	0	4.2050	0	34.0680	0	27.027	0	468.233	0	-1e10	8	-1e10	8	-1E+10	1	-1E+10	1	-1E+10	1	-1E+10	1	-1E+10	1	-1E+10	1
4902554	44	C	04/23/2022	00:56	-135.730	49.496	0	478.00	0	4.1860	0	34.0770	0	27.036	0	473.377	0	-1e10	8	-1e10	8	-1E+10	1	-1E+10	1	-1E+10	1	-1E+10	1	-1E+10	1	-1E+10	1
4902554	44	C	04/23/2022	00:56	-135.730	49.496	0	482.70	0	4.1790	0	34.0800	0	27.040	0	478.026	0	-1e10	8	-1e10	8	-1E+10	1	-1E+10	1	-1E+10	1	-1E+10	1	-1E+10	1	-1E+10	1
4902554	44	C	04/23/2022	00:56	-135.730	49.496	0	487.90	0	4.1660	0	34.0870	0	27.046	0	483.170	0	-1e10	8	-1e10	8	-1E+10	1	-1E+10	1	-1E+10	1	-1E+10	1	-1E+10	1	-1E+10	1
4902554	44	C	04/23/2022	00:56	-135.730	49.496	0	493.30	0	4.1600	0	34.0920	0	27.051	0	488.511	0	-1e10	8	-1e10	8	-1E+10	1	-1E+10	1	-1E+10	1	-1E+10	1	-1E+10	1	-1E+10	1
4902554	44	C	04/23/2022	00:56	-135.730	49.496	0	498.20	0	4.1490	0	34.0970	0	27.056	0	493.358	0	-1e10	8	-1e10	8	-1E+10	1	-1E+10	1	-1E+10	1	-1E+10	1	-1E+10	1	-1E+10	1
4902554	44	C	04/23/2022	00:56	-135.730	49.496	0	503.20	0	4.1370	0	34.1010	0	27.061	0	498.303	0	-1e10	8	-1e10	8	-1E+10	1	-1E+10	1	-1E+10	1	-1E+10	1	-1E+10	1	-1E+10	1
4902554	44	C	04/23/2022	00:56	-135.730	49.496	0	508.20	0	4.1300	0	34.1040	0	27.064	0	503.248	0	-1e10	8	-1e10	8	-1E+10	1	-1E+10	1	-1E+10	1	-1E+10	1	-1E+10	1	-1E+10	1
4902554	44	C	04/23/2022	00:56	-135.730	49.496	0	513.10	0	4.1200	0	34.1080	0	27.068	0	508.095	0	-1e10	8	-1e10	8	-1E+10	1	-1E+10	1	-1E+10	1	-1E+10	1	-1E+10	1	-1E+10	1
4902554	44	C	04/23/2022	00:56	-135.730	49.496	0	517.90	0	4.1110	0	34.1110	0	27.071	0	512.842	0	-1e10	8	-1e10	8	-1E+10	1	-1E+10	1	-1E+10	1	-1E+10	1	-1E+10	1	-1E+10	1
4902554	44	C	04/23/2022	00:56	-135.730	49.496	0	523.00	0	4.0920	0	34.1180	0	27.079	0	517.886	0	-1e10	8	-1e10	8	-1E+10	1	-1E+10	1	-1E+10	1	-1E+10	1	-1E+10	1	-1E+10	1
4902554	44	C	04/23/2022	00:56	-135.730	49.496	0	527.80	0	4.0780	0	34.1230	0	27.084	0	522.633	0	-1e10	8	-1e10	8	-1E+10	1	-1E+10	1	-1E+10	1	-1E+10	1	-1E+10	1	-1E+10	1
4902554	44	C	04/23/2022	00:56	-135.730	49.496	0	532.60	0	4.0660	0	34.1280	0	27.090	0	527.380	0	-1e10	8	-1e10	8	-1E+10	1	-1E+10	1	-1E+10	1	-1E+10	1	-1E+10	1	-1E+10	1
4902554	44	C	04/23/2022	00:56	-135.730	49.496	0	537.60	0	4.0580	0	34.1300	0	27.092	0	532.324	0	-1e10	8	-1e10	8	-1E+10	1	-1E+10	1	-1E+10	1	-1E+10	1	-1E+10	1	-1E+10	1
4902554	44	C	04/23/2022	00:56	-135.730	49.496	0	542.60	0	4.0420	0	34.1360	0	27.099	0	537.269	0	-1e10	8	-1e10	8	-1E+10	1	-1E+10	1	-1E+10	1	-1E+10	1	-1E+10	1	-1E+10	1
4902554	44	C	04/23/2022	00:56	-135.730	49.496	0	547.80	0	4.0350	0	34.1380	0	27.101	0	542.411	0	-1e10	8	-1e10	8	-1E+10	1	-1E+10	1	-1E+10	1	-1E+10	1	-1E+10	1	-1E+10	1
4902554	44	C	04/23/2022	00:56	-135.730	49.496	0	553.10	0	4.0260	0	34.1410	0	27.104	0	547.652	0	-1e10	8	-1e10	8	-1E+10	1	-1E+10	1	-1E+10	1	-1E+10	1	-1E+10	1	-1E+10	1
4902554	44	C	04/23/2022	00:56	-135.730	49.496	0	558.10	0	4.0180	0	34.1440	0	27.108	0	552.596	0	-1e10	8	-1e10	8	-1E+10	1	-1E+10	1	-1E+10	1	-1E+10	1	-1E+10	1	-1E+10	1
4902554	44	C	04/23/2022	00:56	-135.730	49.496	0	563.00	0	4.0040	0	34.1480	0	27.112	0	557.441	0	-1e10	8	-1e10	8	-1E+10	1	-1E+10	1	-1E+10	1	-1E+10	1	-1E+10	1	-1E+10	1
4902554	44	C	04/23/2022	00:56	-135.730	49.496	0	568.00	0	3.9910	0	34.1510	0	27.116	0	562.385	0	-1e10	8	-1e10	8	-1E+10	1	-1E+10	1	-1E+10	1	-1E+10	1	-1E+10	1	-1E+10	1
4902554	44	C	04/23/2022	00:56	-135.730	49.496	0	573.00	0	3.9810	0	34.1540	0	27.119	0	567.329	0	-1e10	8	-1e10	8	-1E+10	1	-1E+10	1	-1E+10	1	-1E+10	1	-1E+10	1	-1E+10	1
4902554	44	C	04/23/2022	00:56	-135.730	49.496	0	578.10	0	3.9650	0	34.1590	0	27.125	0	572.371	0	-1e10	8	-1e10	8	-1E+10	1	-1E+10	1	-1E+10	1	-1E+10	1	-1E+10	1	-1E+10	1
4902554	44	C	04/23/2022	00:56	-135.730	49.496	0	582.80	0	3.9510	0	34.1640	0	27.130	0	577.018	0	-1e10	8	-1e10	8	-1E+10	1	-1E+10	1	-1E+10	1	-1E+10	1	-1E+10	1	-1E+10	1
4902554	44	C	04/23/2022	00:56	-135.730	49.496	0	587.60	0	3.9420	0	34.1670	0	27.134	0	581.764	0	-1e10	8	-1e10	8	-1E+10	1	-1E+10	1	-1E+10	1	-1E+10	1	-1E+10	1	-1E+10	1
4902554	44	C	04/23/2022	00:56	-135.730	49.496	0	592.50	0	3.9250	0	34.1720	0	27.140	0	586.608	0	-1e10	8	-1e10	8	-1E+10	1	-1E+10	1	-1E+10	1	-1E+10	1	-1E+10	1	-1E+10	1
4902554	44	C	04/23/2022	00:56	-135.730	49.496	0	597.50	0	3.9020	0	34.1770	0	27.146	0	591.551	0	-1e10	8	-1e10	8	-1E+10	1	-1E+10	1	-1E+10	1	-1E+10	1	-1E+10	1	-1E+10	1
4902554	44	C	04/23/2022	00:56	-135.730	49.496	0	602.50	0	3.8970	0	34.1790	0	27.148	0	596.494	0	-1e10	8	-1e10	8	-1E+10	1	-1E+10	1	-1E+10	1	-1E+10	1	-1E+10	1	-1E+10	1
4902554	44	C	04/23/2022	00:56	-135.730	49.496	0	607.50	0	3.8870	0	34.1820	0	27.151	0	601.437	0	-1e10	8	-1e10	8	-1E+10	1	-1E+10	1	-1E+10	1	-1E+10	1	-1E+10	1	-1E+10	1
4902554	44	C	04/23/2022	00:56	-135.730	49.496	0	612.60	0	3.8750	0	34.1850	0	27.155	0	606.479	0	-1e10	8	-1e10	8	-1E+10	1	-1E+10	1	-1E+10	1	-1E+10	1	-1E+10	1	-1E+10	1
4902554	44	C	04/23/2022	00:56	-135.730	49.496	0	617.70	0	3.8730	0	34.1850	0	27.155	0	611.521	0	-1e10	8	-1e10	8	-1E+10	1	-1E+10	1	-1E+10	1	-1E+10	1	-1E+10	1	-1E+10	1
4902554	44	C	04/23/2022	00:56	-135.730	49.496	0	622.80	0	3.8660	0	34.1870	0	27.158	0	616.562	0	-1e10	8	-1e10	8	-1E+10	1	-1E+10	1	-1E+10	1	-1E+10	1	-1E+10	1	-1E+10	1
4902554	44	C	04/23/2022	00:56	-135.730	49.496	0	627.80	0	3.8570	0	34.1890	0	27.160	0	621.504	0	-1e10	8	-1e10	8	-1E+10	1	-1E+10	1	-1E+10	1	-1E+10	1	-1E+10	1	-1E+10	1
4902554	44	C	04/23/2022	00:56	-135.730	49.496	0	632.90	0	3.8380	0	34.1930	0	27.165	0	626.546	0	-1e10	8	-1e10	8	-1E+10	1	-1E+10	1	-1E+10	1	-1E+10	1	-1E+10	1	-1E+10	1
4902554	44	C	04/23/2022	00:56	-135.730	49.496	0	638.10	0	3.8250	0	34.1970	0	27.170	0	631.686	0	-1e10	8	-1e10	8	-1E+10	1	-1E+10	1	-1E+10	1	-1E+10	1	-1E+10	1	-1E+10	1
4902554	44	C	04/23/2022	00:56	-135.730	49.496	0	643.30	0	3.8120	0	34.2000	0	27.174	0	636.825	0	-1e10	8	-1e10	8	-1E+10	1	-1E+10	1	-1E+10	1	-1E+10	1	-1E+10	1	-1E+10	1
4902554	44	C	04/23/2022	00:56	-135.730	49.496	0	647.90	0	3.8050	0	34.2020	0	27.176	0	641.372	0	-1e10	8	-1e10	8	-1E+10	1	-1E+10	1	-1E+10	1	-1E+10	1	-1E+10	1	-1E+10	1
4902554	44	C	04/23/2022	00:56	-135.730	49.496	0	652.60	0	3.7930	0	34.2050	0	27.179	0	646.017	0	-1e10	8	-1e10	8	-1E+10	1	-1E+10	1	-1E+10	1	-1E+10	1	-1E+10	1	-1E+10	1
4902554	44	C	04/23/2022	00:56	-135.730	49.496	0	657.70	0	3.7840	0	34.2060	0	27.181	0	651.058	0	-1e10	8	-1e10	8	-1E+10	1	-1E+10	1	-1E+10	1	-1E+10	1	-1E+10	1	-1E+10	1
4902554	44	C	04/23/2022	00:56	-135.730	49.496	0	662.90	0	3.7720	0	34.2090	0	27.185	0	656.197	0	-1e10	8	-1e10	8	-1E+10	1	-1E+10	1	-1E+10	1	-1E+10	1	-1E+10	1	-1E+10	1
4902554	44	C	04/23/2022	00:56	-135.730	49.496	0	668.10	0	3.7620	0	34.2110	0	27.187	0	661.336	0	-1e10	8	-1e10	8	-1E+10	1	-1E+10	1	-1E+10	1	-1E+10	1	-1E+10	1	-1E+10	1
4902554	44	C	04/23/2022	00:56	-135.730	49.496	0	673.20	0	3.7500	0	34.2140	0	27.191	0	666.377	0	-1e10	8	-1e10	8	-1E+10	1	-1E+10	1	-1E+10	1	-1E+10	1	-1E+10	1	-1E+10	1
4902554	44	C	04/23/2022	00:56	-135.730	49.496	0	677.90	0	3.7430	0	34.2160	0	27.193	0	671.021	0	-1e10	8	-1e10	8	-1E+10	1	-1E+10	1	-1E+10	1	-1E+10	1	-1E+10	1	-1E+10	1
4902554	44	C	04/23/2022	00:56	-135.730	49.496	0	682.50	0	3.7380	0	34.2170	0	27.195	0	675.567	0	-1e10	8	-1e10	8	-1E+10	1	-1E+10	1	-1E+10	1	-1E+10	1	-1E+10	1	-1E+10	1
4902554	44	C	04/23/2022	00:56	-135.730	49.496	0	687.70	0	3.7330	0	34.2180	0	27.196	0	680.706	0	-1e10	8	-1e10	8	-1E+10	1	-1E+10	1	-1E+10	1	-1E+10	1	-1E+10	1	-1E+10	1
4902554	44	C	04/23/2022	00:56	-135.730	49.496	0	692.90	0	3.7260	0	34.2220	0	27.200	0	685.845	0	-1e10	8	-1e10	8	-1E+10	1	-1E+10	1	-1E+10	1	-1E+10	1	-1E+10	1	-1E+10	1
4902554	44	C	04/23/2022	00:56	-135.730	49.496	0	698.00	0	3.7180	0	34.2250	0	27.203	0	690.884	0	-1e10	8	-1e10	8	-1E+10	1	-1E+10	1	-1E+10	1	-1E+10	1	-1E+10	1	-1E+10	1
4902554	44	C	04/23/2022	00:56	-135.730	49.496	0	703.20	0	3.7100	0	34.2270	0	27.206	0	696.022	0	-1e10	8	-1e10	8	-1E+10	1	-1E+10	1	-1E+10	1	-1E+10	1	-1E+10	1	-1E+10	1
4902554	44	C	04/23/2022	00:56	-135.730	49.496	0	707.90	0	3.7060	0	34.2290	0	27.208	0	700.667	0	-1e10	8	-1e10	8	-1E+10	1	-1E+10	1	-1E+10	1	-1E+10	1	-1E+10	1	-1E+10	1
4902554	44	C	04/23/2022	00:56	-135.730	49.496	0	712.60	0	3.6990	0	34.2310	0	27.210	0	705.311	0	-1e10	8	-1e10	8	-1E+10	1	-1E+10	1	-1E+10	1	-1E+10	1	-1E+10	1	-1E+10	1
4902554	44	C	04/23/2022	00:56	-135.730	49.496	0	717.80	0	3.6820	0	34.2350	0	27.215	0	710.449	0	-1e10	8	-1e10	8	-1E+10	1	-1E+10	1	-1E+10	1	-1E+10	1	-1E+10	1	-1E+10	1
4902554	44	C	04/23/2022	00:56	-135.730	49.496	0	723.10	0	3.6770	0	34.2360	0	27.216	0	715.685	0	-1e10	8	-1e10	8	-1E+10	1	-1E+10	1	-1E+10	1	-1E+10	1	-1E+10	1	-1E+10	1
4902554	44	C	04/23/2022	00:56	-135.730	49.496	0	728.30	0	3.6640	0	34.2400	0	27.221	0	720.823	0	-1e10	8	-1e10	8	-1E+10	1	-1E+10	1	-1E+10	1	-1E+10	1	-1E+10	1	-1E+10	1
4902554	44	C	04/23/2022	00:56	-135.730	49.496	0	733.00	0	3.6500	0	34.2430	0	27.224	0	725.467	0	-1e10	8	-1e10	8	-1E+10	1	-1E+10	1	-1E+10	1	-1E+10	1	-1E+10	1	-1E+10	1
4902554	44	C	04/23/2022	00:56	-135.730	49.496	0	737.60	0	3.6280	0	34.2490	0	27.231	0	730.011	0	-1e10	8	-1e10	8	-1E+10	1	-1E+10	1	-1E+10	1	-1E+10	1	-1E+10	1	-1E+10	1
4902554	44	C	04/23/2022	00:56	-135.730	49.496	0	742.70	0	3.6160	0	34.2510	0	27.234	0	735.050	0	-1e10	8	-1e10	8	-1E+10	1	-1E+10	1	-1E+10	1	-1E+10	1	-1E+10	1	-1E+10	1
4902554	44	C	04/23/2022	00:56	-135.730	49.496	0	747.80	0	3.6020	0	34.2550	0	27.239	0	740.088	0	-1e10	8	-1e10	8	-1E+10	1	-1E+10	1	-1E+10	1	-1E+10	1	-1E+10	1	-1E+10	1
4902554	44	C	04/23/2022	00:56	-135.730	49.496	0	753.00	0	3.5820	0	34.2600	0	27.245	0	745.225	0	-1e10	8	-1e10	8	-1E+10	1	-1E+10	1	-1E+10	1	-1E+10	1	-1E+10	1	-1E+10	1
4902554	44	C	04/23/2022	00:56	-135.730	49.496	0	758.20	0	3.5690	0	34.2630	0	27.248	0	750.362	0	-1e10	8	-1e10	8	-1E+10	1	-1E+10	1	-1E+10	1	-1E+10	1	-1E+10	1	-1E+10	1
4902554	44	C	04/23/2022	00:56	-135.730	49.496	0	763.10	0	3.5630	0	34.2640	0	27.250	0	755.203	0	-1e10	8	-1e10	8	-1E+10	1	-1E+10	1	-1E+10	1	-1E+10	1	-1E+10	1	-1E+10	1
4902554	44	C	04/23/2022	00:56	-135.730	49.496	0	768.10	0	3.5460	0	34.2690	0	27.255	0	760.142	0	-1e10	8	-1e10	8	-1E+10	1	-1E+10	1	-1E+10	1	-1E+10	1	-1E+10	1	-1E+10	1
4902554	44	C	04/23/2022	00:56	-135.730	49.496	0	773.20	0	3.5280	0	34.2730	0	27.260	0	765.180	0	-1e10	8	-1e10	8	-1E+10	1	-1E+10	1	-1E+10	1	-1E+10	1	-1E+10	1	-1E+10	1
4902554	44	C	04/23/2022	00:56	-135.730	49.496	0	778.10	0	3.5190	0	34.2740	0	27.262	0	770.020	0	-1e10	8	-1e10	8	-1E+10	1	-1E+10	1	-1E+10	1	-1E+10	1	-1E+10	1	-1E+10	1
4902554	44	C	04/23/2022	00:56	-135.730	49.496	0	782.90	0	3.5090	0	34.2770	0	27.265	0	774.761	0	-1e10	8	-1e10	8	-1E+10	1	-1E+10	1	-1E+10	1	-1E+10	1	-1E+10	1	-1E+10	1
4902554	44	C	04/23/2022	00:56	-135.730	49.496	0	788.00	0	3.4860	0	34.2810	0	27.271	0	779.799	0	-1e10	8	-1e10	8	-1E+10	1	-1E+10	1	-1E+10	1	-1E+10	1	-1E+10	1	-1E+10	1
4902554	44	C	04/23/2022	00:56	-135.730	49.496	0	792.60	0	3.4690	0	34.2840	0	27.275	0	784.342	0	-1e10	8	-1e10	8	-1E+10	1	-1E+10	1	-1E+10	1	-1E+10	1	-1E+10	1	-1E+10	1
4902554	44	C	04/23/2022	00:56	-135.730	49.496	0	797.80	0	3.4520	0	34.2870	0	27.279	0	789.478	0	-1e10	8	-1e10	8	-1E+10	1	-1E+10	1	-1E+10	1	-1E+10	1	-1E+10	1	-1E+10	1
4902554	44	C	04/23/2022	00:56	-135.730	49.496	0	803.20	0	3.4390	0	34.2910	0	27.283	0	794.811	0	-1e10	8	-1e10	8	-1E+10	1	-1E+10	1	-1E+10	1	-1E+10	1	-1E+10	1	-1E+10	1
4902554	44	C	04/23/2022	00:56	-135.730	49.496	0	808.20	0	3.4290	0	34.2940	0	27.287	0	799.750	0	-1e10	8	-1e10	8	-1E+10	1	-1E+10	1	-1E+10	1	-1E+10	1	-1E+10	1	-1E+10	1
4902554	44	C	04/23/2022	00:56	-135.730	49.496	0	813.20	0	3.4180	0	34.2960	0	27.290	0	804.688	0	-1e10	8	-1e10	8	-1E+10	1	-1E+10	1	-1E+10	1	-1E+10	1	-1E+10	1	-1E+10	1
4902554	44	C	04/23/2022	00:56	-135.730	49.496	0	817.90	0	3.4090	0	34.2980	0	27.292	0	809.329	0	-1e10	8	-1e10	8	-1E+10	1	-1E+10	1	-1E+10	1	-1E+10	1	-1E+10	1	-1E+10	1
4902554	44	C	04/23/2022	00:56	-135.730	49.496	0	822.60	0	3.3980	0	34.3000	0	27.295	0	813.971	0	-1e10	8	-1e10	8	-1E+10	1	-1E+10	1	-1E+10	1	-1E+10	1	-1E+10	1	-1E+10	1
4902554	44	C	04/23/2022	00:56	-135.730	49.496	0	828.00	0	3.3940	0	34.3010	0	27.296	0	819.304	0	-1e10	8	-1e10	8	-1E+10	1	-1E+10	1	-1E+10	1	-1E+10	1	-1E+10	1	-1E+10	1
4902554	44	C	04/23/2022	00:56	-135.730	49.496	0	832.80	0	3.3880	0	34.3020	0	27.297	0	824.044	0	-1e10	8	-1e10	8	-1E+10	1	-1E+10	1	-1E+10	1	-1E+10	1	-1E+10	1	-1E+10	1
4902554	44	C	04/23/2022	00:56	-135.730	49.496	0	837.80	0	3.3760	0	34.3030	0	27.299	0	828.981	0	-1e10	8	-1e10	8	-1E+10	1	-1E+10	1	-1E+10	1	-1E+10	1	-1E+10	1	-1E+10	1
4902554	44	C	04/23/2022	00:56	-135.730	49.496	0	842.90	0	3.3660	0	34.3050	0	27.302	0	834.018	0	-1e10	8	-1e10	8	-1E+10	1	-1E+10	1	-1E+10	1	-1E+10	1	-1E+10	1	-1E+10	1
4902554	44	C	04/23/2022	00:56	-135.730	49.496	0	848.00	0	3.3610	0	34.3060	0	27.303	0	839.054	0	-1e10	8	-1e10	8	-1E+10	1	-1E+10	1	-1E+10	1	-1E+10	1	-1E+10	1	-1E+10	1
4902554	44	C	04/23/2022	00:56	-135.730	49.496	0	853.20	0	3.3500	0	34.3080	0	27.306	0	844.188	0	-1e10	8	-1e10	8	-1E+10	1	-1E+10	1	-1E+10	1	-1E+10	1	-1E+10	1	-1E+10	1
4902554	44	C	04/23/2022	00:56	-135.730	49.496	0	857.70	0	3.3450	0	34.3100	0	27.308	0	848.632	0	-1e10	8	-1e10	8	-1E+10	1	-1E+10	1	-1E+10	1	-1E+10	1	-1E+10	1	-1E+10	1
4902554	44	C	04/23/2022	00:56	-135.730	49.496	0	862.80	0	3.3480	0	34.3120	0	27.309	0	853.667	0	-1e10	8	-1e10	8	-1E+10	1	-1E+10	1	-1E+10	1	-1E+10	1	-1E+10	1	-1E+10	1
4902554	44	C	04/23/2022	00:56	-135.730	49.496	0	868.00	0	3.3490	0	34.3130	0	27.310	0	858.802	0	-1e10	8	-1e10	8	-1E+10	1	-1E+10	1	-1E+10	1	-1E+10	1	-1E+10	1	-1E+10	1
4902554	44	C	04/23/2022	00:56	-135.730	49.496	0	873.10	0	3.3420	0	34.3140	0	27.311	0	863.837	0	-1e10	8	-1e10	8	-1E+10	1	-1E+10	1	-1E+10	1	-1E+10	1	-1E+10	1	-1E+10	1
4902554	44	C	04/23/2022	00:56	-135.730	49.496	0	878.10	0	3.3270	0	34.3170	0	27.315	0	868.774	0	-1e10	8	-1e10	8	-1E+10	1	-1E+10	1	-1E+10	1	-1E+10	1	-1E+10	1	-1E+10	1
4902554	44	C	04/23/2022	00:56	-135.730	49.496	0	882.70	0	3.3090	0	34.3200	0	27.319	0	873.315	0	-1e10	8	-1e10	8	-1E+10	1	-1E+10	1	-1E+10	1	-1E+10	1	-1E+10	1	-1E+10	1
4902554	44	C	04/23/2022	00:56	-135.730	49.496	0	887.80	0	3.2970	0	34.3220	0	27.322	0	878.350	0	-1e10	8	-1e10	8	-1E+10	1	-1E+10	1	-1E+10	1	-1E+10	1	-1E+10	1	-1E+10	1
4902554	44	C	04/23/2022	00:56	-135.730	49.496	0	892.90	0	3.2950	0	34.3240	0	27.324	0	883.385	0	-1e10	8	-1e10	8	-1E+10	1	-1E+10	1	-1E+10	1	-1E+10	1	-1E+10	1	-1E+10	1
4902554	44	C	04/23/2022	00:56	-135.730	49.496	0	898.00	0	3.2720	0	34.3260	0	27.328	0	888.420	0	-1e10	8	-1e10	8	-1E+10	1	-1E+10	1	-1E+10	1	-1E+10	1	-1E+10	1	-1E+10	1
4902554	44	C	04/23/2022	00:56	-135.730	49.496	0	903.10	0	3.2510	0	34.3280	0	27.331	0	893.455	0	-1e10	8	-1e10	8	-1E+10	1	-1E+10	1	-1E+10	1	-1E+10	1	-1E+10	1	-1E+10	1
4902554	44	C	04/23/2022	00:56	-135.730	49.496	0	907.60	0	3.2430	0	34.3290	0	27.333	0	897.897	0	-1e10	8	-1e10	8	-1E+10	1	-1E+10	1	-1E+10	1	-1E+10	1	-1E+10	1	-1E+10	1
4902554	44	C	04/23/2022	00:56	-135.730	49.496	0	912.70	0	3.2390	0	34.3290	0	27.333	0	902.931	0	-1e10	8	-1e10	8	-1E+10	1	-1E+10	1	-1E+10	1	-1E+10	1	-1E+10	1	-1E+10	1
4902554	44	C	04/23/2022	00:56	-135.730	49.496	0	917.70	0	3.2240	0	34.3320	0	27.337	0	907.867	0	-1e10	8	-1e10	8	-1E+10	1	-1E+10	1	-1E+10	1	-1E+10	1	-1E+10	1	-1E+10	1
4902554	44	C	04/23/2022	00:56	-135.730	49.496	0	922.60	0	3.2170	0	34.3330	0	27.339	0	912.704	0	-1e10	8	-1e10	8	-1E+10	1	-1E+10	1	-1E+10	1	-1E+10	1	-1E+10	1	-1E+10	1
4902554	44	C	04/23/2022	00:56	-135.730	49.496	0	928.10	0	3.2030	0	34.3360	0	27.342	0	918.133	0	-1e10	8	-1e10	8	-1E+10	1	-1E+10	1	-1E+10	1	-1E+10	1	-1E+10	1	-1E+10	1
4902554	44	C	04/23/2022	00:56	-135.730	49.496	0	933.10	0	3.1920	0	34.3380	0	27.345	0	923.068	0	-1e10	8	-1e10	8	-1E+10	1	-1E+10	1	-1E+10	1	-1E+10	1	-1E+10	1	-1E+10	1
4902554	44	C	04/23/2022	00:56	-135.730	49.496	0	938.00	0	3.1780	0	34.3400	0	27.348	0	927.905	0	-1e10	8	-1e10	8	-1E+10	1	-1E+10	1	-1E+10	1	-1E+10	1	-1E+10	1	-1E+10	1
4902554	44	C	04/23/2022	00:56	-135.730	49.496	0	943.00	0	3.1600	0	34.3430	0	27.352	0	932.840	0	-1e10	8	-1e10	8	-1E+10	1	-1E+10	1	-1E+10	1	-1E+10	1	-1E+10	1	-1E+10	1
4902554	44	C	04/23/2022	00:56	-135.730	49.496	0	947.90	0	3.1500	0	34.3450	0	27.354	0	937.676	0	-1e10	8	-1e10	8	-1E+10	1	-1E+10	1	-1E+10	1	-1E+10	1	-1E+10	1	-1E+10	1
4902554	44	C	04/23/2022	00:56	-135.730	49.496	0	952.80	0	3.1400	0	34.3470	0	27.357	0	942.512	0	-1e10	8	-1e10	8	-1E+10	1	-1E+10	1	-1E+10	1	-1E+10	1	-1E+10	1	-1E+10	1
4902554	44	C	04/23/2022	00:56	-135.730	49.496	0	957.60	0	3.1230	0	34.3500	0	27.361	0	947.249	0	-1e10	8	-1e10	8	-1E+10	1	-1E+10	1	-1E+10	1	-1E+10	1	-1E+10	1	-1E+10	1
4902554	44	C	04/23/2022	00:56	-135.730	49.496	0	962.90	0	3.1130	0	34.3530	0	27.364	0	952.480	0	-1e10	8	-1e10	8	-1E+10	1	-1E+10	1	-1E+10	1	-1E+10	1	-1E+10	1	-1E+10	1
4902554	44	C	04/23/2022	00:56	-135.730	49.496	0	968.20	0	3.1040	0	34.3550	0	27.367	0	957.711	0	-1e10	8	-1e10	8	-1E+10	1	-1E+10	1	-1E+10	1	-1E+10	1	-1E+10	1	-1E+10	1
4902554	44	C	04/23/2022	00:56	-135.730	49.496	0	973.00	0	3.0950	0	34.3560	0	27.368	0	962.448	0	-1e10	8	-1e10	8	-1E+10	1	-1E+10	1	-1E+10	1	-1E+10	1	-1E+10	1	-1E+10	1
4902554	44	C	04/23/2022	00:56	-135.730	49.496	0	977.80	0	3.0840	0	34.3580	0	27.371	0	967.184	0	-1e10	8	-1e10	8	-1E+10	1	-1E+10	1	-1E+10	1	-1E+10	1	-1E+10	1	-1E+10	1
4902554	44	C	04/23/2022	00:56	-135.730	49.496	0	983.00	0	3.0730	0	34.3600	0	27.374	0	972.316	0	-1e10	8	-1e10	8	-1E+10	1	-1E+10	1	-1E+10	1	-1E+10	1	-1E+10	1	-1E+10	1
4902554	44	C	04/23/2022	00:56	-135.730	49.496	0	988.30	0	3.0620	0	34.3610	0	27.376	0	977.546	0	-1e10	8	-1e10	8	-1E+10	1	-1E+10	1	-1E+10	1	-1E+10	1	-1E+10	1	-1E+10	1
4902554	44	C	04/23/2022	00:56	-135.730	49.496	0	993.40	0	3.0490	0	34.3630	0	27.378	0	982.578	0	-1e10	8	-1e10	8	-1E+10	1	-1E+10	1	-1E+10	1	-1E+10	1	-1E+10	1	-1E+10	1
4902554	44	C	04/23/2022	00:56	-135.730	49.496	0	998.10	0	3.0360	0	34.3660	0	27.382	0	987.216	0	-1e10	8	-1e10	8	-1E+10	1	-1E+10	1	-1E+10	1	-1E+10	1	-1E+10	1	-1E+10	1
4902554	44	C	04/23/2022	00:56	-135.730	49.496	0	1005.50	0	3.0250	0	34.3680	0	27.385	0	994.518	0	-1e10	8	-1e10	8	-1E+10	1	-1E+10	1	-1E+10	1	-1E+10	1	-1E+10	1	-1E+10	1
4902554	44	C	04/23/2022	00:56	-135.730	49.496	0	1015.50	0	3.0020	0	34.3730	0	27.391	0	1004.385	0	-1e10	8	-1e10	8	-1E+10	1	-1E+10	1	-1E+10	1	-1E+10	1	-1E+10	1	-1E+10	1
4902554	44	C	04/23/2022	00:56	-135.730	49.496	0	1025.30	0	2.9830	0	34.3760	0	27.395	0	1014.054	0	-1e10	8	-1e10	8	-1E+10	1	-1E+10	1	-1E+10	1	-1E+10	1	-1E+10	1	-1E+10	1
4902554	44	C	04/23/2022	00:56	-135.730	49.496	0	1035.40	0	2.9660	0	34.3790	0	27.399	0	1024.018	0	-1e10	8	-1e10	8	-1E+10	1	-1E+10	1	-1E+10	1	-1E+10	1	-1E+10	1	-1E+10	1
4902554	44	C	04/23/2022	00:56	-135.730	49.496	0	1045.50	0	2.9450	0	34.3840	0	27.405	0	1033.982	0	-1e10	8	-1e10	8	-1E+10	1	-1E+10	1	-1E+10	1	-1E+10	1	-1E+10	1	-1E+10	1
4902554	44	C	04/23/2022	00:56	-135.730	49.496	0	1055.30	0	2.9320	0	34.3870	0	27.408	0	1043.650	0	-1e10	8	-1e10	8	-1E+10	1	-1E+10	1	-1E+10	1	-1E+10	1	-1E+10	1	-1E+10	1
4902554	44	C	04/23/2022	00:56	-135.730	49.496	0	1065.30	0	2.9240	0	34.3880	0	27.410	0	1053.515	0	-1e10	8	-1e10	8	-1E+10	1	-1E+10	1	-1E+10	1	-1E+10	1	-1E+10	1	-1E+10	1
4902554	44	C	04/23/2022	00:56	-135.730	49.496	0	1075.50	0	2.9100	0	34.3910	0	27.414	0	1063.576	0	-1e10	8	-1e10	8	-1E+10	1	-1E+10	1	-1E+10	1	-1E+10	1	-1E+10	1	-1E+10	1
4902554	44	C	04/23/2022	00:56	-135.730	49.496	0	1085.50	0	2.8900	0	34.3950	0	27.419	0	1073.440	0	-1e10	8	-1e10	8	-1E+10	1	-1E+10	1	-1E+10	1	-1E+10	1	-1E+10	1	-1E+10	1
4902554	44	C	04/23/2022	00:56	-135.730	49.496	0	1095.40	0	2.8750	0	34.3970	0	27.422	0	1083.204	0	-1e10	8	-1e10	8	-1E+10	1	-1E+10	1	-1E+10	1	-1E+10	1	-1E+10	1	-1E+10	1
4902554	44	C	04/23/2022	00:56	-135.730	49.496	0	1105.60	0	2.8600	0	34.4000	0	27.425	0	1093.264	0	-1e10	8	-1e10	8	-1E+10	1	-1E+10	1	-1E+10	1	-1E+10	1	-1E+10	1	-1E+10	1
4902554	44	C	04/23/2022	00:56	-135.730	49.496	0	1115.30	0	2.8420	0	34.4040	0	27.430	0	1102.830	0	-1e10	8	-1e10	8	-1E+10	1	-1E+10	1	-1E+10	1	-1E+10	1	-1E+10	1	-1E+10	1
4902554	44	C	04/23/2022	00:56	-135.730	49.496	0	1125.00	0	2.8250	0	34.4060	0	27.433	0	1112.396	0	-1e10	8	-1e10	8	-1E+10	1	-1E+10	1	-1E+10	1	-1E+10	1	-1E+10	1	-1E+10	1
4902554	44	C	04/23/2022	00:56	-135.730	49.496	0	1135.10	0	2.8130	0	34.4090	0	27.437	0	1122.356	0	-1e10	8	-1e10	8	-1E+10	1	-1E+10	1	-1E+10	1	-1E+10	1	-1E+10	1	-1E+10	1
4902554	44	C	04/23/2022	00:56	-135.730	49.496	0	1145.20	0	2.7970	0	34.4120	0	27.441	0	1132.315	0	-1e10	8	-1e10	8	-1E+10	1	-1E+10	1	-1E+10	1	-1E+10	1	-1E+10	1	-1E+10	1
4902554	44	C	04/23/2022	00:56	-135.730	49.496	0	1155.20	0	2.7790	0	34.4150	0	27.445	0	1142.176	0	-1e10	8	-1e10	8	-1E+10	1	-1E+10	1	-1E+10	1	-1E+10	1	-1E+10	1	-1E+10	1
4902554	44	C	04/23/2022	00:56	-135.730	49.496	0	1165.20	0	2.7670	0	34.4180	0	27.448	0	1152.035	0	-1e10	8	-1e10	8	-1E+10	1	-1E+10	1	-1E+10	1	-1E+10	1	-1E+10	1	-1E+10	1
4902554	44	C	04/23/2022	00:56	-135.730	49.496	0	1175.50	0	2.7540	0	34.4200	0	27.451	0	1162.191	0	-1e10	8	-1e10	8	-1E+10	1	-1E+10	1	-1E+10	1	-1E+10	1	-1E+10	1	-1E+10	1
4902554	44	C	04/23/2022	00:56	-135.730	49.496	0	1185.40	0	2.7350	0	34.4240	0	27.456	0	1171.951	0	-1e10	8	-1e10	8	-1E+10	1	-1E+10	1	-1E+10	1	-1E+10	1	-1E+10	1	-1E+10	1
4902554	44	C	04/23/2022	00:56	-135.730	49.496	0	1195.30	0	2.7230	0	34.4270	0	27.460	0	1181.711	0	-1e10	8	-1e10	8	-1E+10	1	-1E+10	1	-1E+10	1	-1E+10	1	-1E+10	1	-1E+10	1
4902554	44	C	04/23/2022	00:56	-135.730	49.496	0	1205.30	0	2.7180	0	34.4280	0	27.461	0	1191.569	0	-1e10	8	-1e10	8	-1E+10	1	-1E+10	1	-1E+10	1	-1E+10	1	-1E+10	1	-1E+10	1
4902554	44	C	04/23/2022	00:56	-135.730	49.496	0	1215.50	0	2.7050	0	34.4300	0	27.464	0	1201.624	0	-1e10	8	-1e10	8	-1E+10	1	-1E+10	1	-1E+10	1	-1E+10	1	-1E+10	1	-1E+10	1
4902554	44	C	04/23/2022	00:56	-135.730	49.496	0	1225.90	0	2.6900	0	34.4330	0	27.467	0	1211.875	0	-1e10	8	-1e10	8	-1E+10	1	-1E+10	1	-1E+10	1	-1E+10	1	-1E+10	1	-1E+10	1
4902554	44	C	04/23/2022	00:56	-135.730	49.496	0	1235.30	0	2.6720	0	34.4370	0	27.472	0	1221.140	0	-1e10	8	-1e10	8	-1E+10	1	-1E+10	1	-1E+10	1	-1E+10	1	-1E+10	1	-1E+10	1
4902554	44	C	04/23/2022	00:56	-135.730	49.496	0	1245.20	0	2.6570	0	34.4400	0	27.476	0	1230.898	0	-1e10	8	-1e10	8	-1E+10	1	-1E+10	1	-1E+10	1	-1E+10	1	-1E+10	1	-1E+10	1
4902554	44	C	04/23/2022	00:56	-135.730	49.496	0	1255.40	0	2.6470	0	34.4420	0	27.478	0	1240.950	0	-1e10	8	-1e10	8	-1E+10	1	-1E+10	1	-1E+10	1	-1E+10	1	-1E+10	1	-1E+10	1
4902554	44	C	04/23/2022	00:56	-135.730	49.496	0	1265.30	0	2.6370	0	34.4440	0	27.481	0	1250.707	0	-1e10	8	-1e10	8	-1E+10	1	-1E+10	1	-1E+10	1	-1E+10	1	-1E+10	1	-1E+10	1
4902554	44	C	04/23/2022	00:56	-135.730	49.496	0	1275.20	0	2.6270	0	34.4460	0	27.483	0	1260.463	0	-1e10	8	-1e10	8	-1E+10	1	-1E+10	1	-1E+10	1	-1E+10	1	-1E+10	1	-1E+10	1
4902554	44	C	04/23/2022	00:56	-135.730	49.496	0	1285.60	0	2.6190	0	34.4480	0	27.486	0	1270.712	0	-1e10	8	-1e10	8	-1E+10	1	-1E+10	1	-1E+10	1	-1E+10	1	-1E+10	1	-1E+10	1
4902554	44	C	04/23/2022	00:56	-135.730	49.496	0	1295.60	0	2.6070	0	34.4500	0	27.488	0	1280.566	0	-1e10	8	-1e10	8	-1E+10	1	-1E+10	1	-1E+10	1	-1E+10	1	-1E+10	1	-1E+10	1
4902554	44	C	04/23/2022	00:56	-135.730	49.496	0	1305.50	0	2.5930	0	34.4530	0	27.492	0	1290.320	0	-1e10	8	-1e10	8	-1E+10	1	-1E+10	1	-1E+10	1	-1E+10	1	-1E+10	1	-1E+10	1
4902554	44	C	04/23/2022	00:56	-135.730	49.496	0	1315.40	0	2.5800	0	34.4550	0	27.495	0	1300.075	0	-1e10	8	-1e10	8	-1E+10	1	-1E+10	1	-1E+10	1	-1E+10	1	-1E+10	1	-1E+10	1
4902554	44	C	04/23/2022	00:56	-135.730	49.496	0	1325.40	0	2.5640	0	34.4580	0	27.499	0	1309.927	0	-1e10	8	-1e10	8	-1E+10	1	-1E+10	1	-1E+10	1	-1E+10	1	-1E+10	1	-1E+10	1
4902554	44	C	04/23/2022	00:56	-135.730	49.496	0	1335.40	0	2.5490	0	34.4620	0	27.503	0	1319.779	0	-1e10	8	-1e10	8	-1E+10	1	-1E+10	1	-1E+10	1	-1E+10	1	-1E+10	1	-1E+10	1
4902554	44	C	04/23/2022	00:56	-135.730	49.496	0	1345.60	0	2.5310	0	34.4650	0	27.507	0	1329.828	0	-1e10	8	-1e10	8	-1E+10	1	-1E+10	1	-1E+10	1	-1E+10	1	-1E+10	1	-1E+10	1
4902554	44	C	04/23/2022	00:56	-135.730	49.496	0	1355.60	0	2.5170	0	34.4680	0	27.511	0	1339.679	0	-1e10	8	-1e10	8	-1E+10	1	-1E+10	1	-1E+10	1	-1E+10	1	-1E+10	1	-1E+10	1
4902554	44	C	04/23/2022	00:56	-135.730	49.496	0	1365.60	0	2.5000	0	34.4710	0	27.515	0	1349.529	0	-1e10	8	-1e10	8	-1E+10	1	-1E+10	1	-1E+10	1	-1E+10	1	-1E+10	1	-1E+10	1
4902554	44	C	04/23/2022	00:56	-135.730	49.496	0	1375.70	0	2.4870	0	34.4740	0	27.518	0	1359.478	0	-1e10	8	-1e10	8	-1E+10	1	-1E+10	1	-1E+10	1	-1E+10	1	-1E+10	1	-1E+10	1
4902554	44	C	04/23/2022	00:56	-135.730	49.496	0	1385.50	0	2.4750	0	34.4760	0	27.521	0	1369.130	0	-1e10	8	-1e10	8	-1E+10	1	-1E+10	1	-1E+10	1	-1E+10	1	-1E+10	1	-1E+10	1
4902554	44	C	04/23/2022	00:56	-135.730	49.496	0	1395.40	0	2.4630	0	34.4790	0	27.524	0	1378.881	0	-1e10	8	-1e10	8	-1E+10	1	-1E+10	1	-1E+10	1	-1E+10	1	-1E+10	1	-1E+10	1
4902554	44	C	04/23/2022	00:56	-135.730	49.496	0	1405.30	0	2.4550	0	34.4800	0	27.526	0	1388.631	0	-1e10	8	-1e10	8	-1E+10	1	-1E+10	1	-1E+10	1	-1E+10	1	-1E+10	1	-1E+10	1
4902554	44	C	04/23/2022	00:56	-135.730	49.496	0	1415.20	0	2.4470	0	34.4820	0	27.528	0	1398.381	0	-1e10	8	-1e10	8	-1E+10	1	-1E+10	1	-1E+10	1	-1E+10	1	-1E+10	1	-1E+10	1
4902554	44	C	04/23/2022	00:56	-135.730	49.496	0	1425.20	0	2.4350	0	34.4840	0	27.531	0	1408.229	0	-1e10	8	-1e10	8	-1E+10	1	-1E+10	1	-1E+10	1	-1E+10	1	-1E+10	1	-1E+10	1
4902554	44	C	04/23/2022	00:56	-135.730	49.496	0	1435.30	0	2.4250	0	34.4860	0	27.533	0	1418.175	0	-1e10	8	-1e10	8	-1E+10	1	-1E+10	1	-1E+10	1	-1E+10	1	-1E+10	1	-1E+10	1
4902554	44	C	04/23/2022	00:56	-135.730	49.496	0	1445.40	0	2.4150	0	34.4880	0	27.536	0	1428.120	0	-1e10	8	-1e10	8	-1E+10	1	-1E+10	1	-1E+10	1	-1E+10	1	-1E+10	1	-1E+10	1
4902554	44	C	04/23/2022	00:56	-135.730	49.496	0	1455.30	0	2.4050	0	34.4900	0	27.538	0	1437.868	0	-1e10	8	-1e10	8	-1E+10	1	-1E+10	1	-1E+10	1	-1E+10	1	-1E+10	1	-1E+10	1
4902554	44	C	04/23/2022	00:56	-135.730	49.496	0	1465.20	0	2.3940	0	34.4920	0	27.541	0	1447.616	0	-1e10	8	-1e10	8	-1E+10	1	-1E+10	1	-1E+10	1	-1E+10	1	-1E+10	1	-1E+10	1
4902554	44	C	04/23/2022	00:56	-135.730	49.496	0	1475.30	0	2.3880	0	34.4940	0	27.543	0	1457.560	0	-1e10	8	-1e10	8	-1E+10	1	-1E+10	1	-1E+10	1	-1E+10	1	-1E+10	1	-1E+10	1
4902554	44	C	04/23/2022	00:56	-135.730	49.496	0	1485.40	0	2.3780	0	34.4960	0	27.545	0	1467.503	0	-1e10	8	-1e10	8	-1E+10	1	-1E+10	1	-1E+10	1	-1E+10	1	-1E+10	1	-1E+10	1
4902554	44	C	04/23/2022	00:56	-135.730	49.496	0	1495.50	0	2.3700	0	34.4980	0	27.548	0	1477.446	0	-1e10	8	-1e10	8	-1E+10	1	-1E+10	1	-1E+10	1	-1E+10	1	-1E+10	1	-1E+10	1
4902554	44	C	04/23/2022	00:56	-135.730	49.496	0	1505.70	0	2.3520	0	34.5010	0	27.552	0	1487.487	0	-1e10	8	-1e10	8	-1E+10	1	-1E+10	1	-1E+10	1	-1E+10	1	-1E+10	1	-1E+10	1
4902554	44	C	04/23/2022	00:56	-135.730	49.496	0	1515.60	0	2.3390	0	34.5040	0	27.555	0	1497.232	0	-1e10	8	-1e10	8	-1E+10	1	-1E+10	1	-1E+10	1	-1E+10	1	-1E+10	1	-1E+10	1
4902554	44	C	04/23/2022	00:56	-135.730	49.496	0	1525.80	0	2.3270	0	34.5070	0	27.559	0	1507.272	0	-1e10	8	-1e10	8	-1E+10	1	-1E+10	1	-1E+10	1	-1E+10	1	-1E+10	1	-1E+10	1
4902554	44	C	04/23/2022	00:56	-135.730	49.496	0	1535.40	0	2.3080	0	34.5100	0	27.563	0	1516.721	0	-1e10	8	-1e10	8	-1E+10	1	-1E+10	1	-1E+10	1	-1E+10	1	-1E+10	1	-1E+10	1
4902554	44	C	04/23/2022	00:56	-135.730	49.496	0	1545.40	0	2.2960	0	34.5130	0	27.566	0	1526.564	0	-1e10	8	-1e10	8	-1E+10	1	-1E+10	1	-1E+10	1	-1E+10	1	-1E+10	1	-1E+10	1
4902554	44	C	04/23/2022	00:56	-135.730	49.496	0	1555.50	0	2.2860	0	34.5150	0	27.569	0	1536.504	0	-1e10	8	-1e10	8	-1E+10	1	-1E+10	1	-1E+10	1	-1E+10	1	-1E+10	1	-1E+10	1
4902554	44	C	04/23/2022	00:56	-135.730	49.496	0	1565.50	0	2.2780	0	34.5160	0	27.570	0	1546.345	0	-1e10	8	-1e10	8	-1E+10	1	-1E+10	1	-1E+10	1	-1E+10	1	-1E+10	1	-1E+10	1
4902554	44	C	04/23/2022	00:56	-135.730	49.496	0	1575.40	0	2.2710	0	34.5180	0	27.572	0	1556.088	0	-1e10	8	-1e10	8	-1E+10	1	-1E+10	1	-1E+10	1	-1E+10	1	-1E+10	1	-1E+10	1
4902554	44	C	04/23/2022	00:56	-135.730	49.496	0	1585.20	0	2.2600	0	34.5200	0	27.575	0	1565.731	0	-1e10	8	-1e10	8	-1E+10	1	-1E+10	1	-1E+10	1	-1E+10	1	-1E+10	1	-1E+10	1
4902554	44	C	04/23/2022	00:56	-135.730	49.496	0	1595.40	0	2.2530	0	34.5220	0	27.577	0	1575.768	0	-1e10	8	-1e10	8	-1E+10	1	-1E+10	1	-1E+10	1	-1E+10	1	-1E+10	1	-1E+10	1
4902554	44	C	04/23/2022	00:56	-135.730	49.496	0	1605.40	0	2.2450	0	34.5240	0	27.579	0	1585.608	0	-1e10	8	-1e10	8	-1E+10	1	-1E+10	1	-1E+10	1	-1E+10	1	-1E+10	1	-1E+10	1
4902554	44	C	04/23/2022	00:56	-135.730	49.496	0	1615.50	0	2.2350	0	34.5260	0	27.582	0	1595.545	0	-1e10	8	-1e10	8	-1E+10	1	-1E+10	1	-1E+10	1	-1E+10	1	-1E+10	1	-1E+10	1
4902554	44	C	04/23/2022	00:56	-135.730	49.496	0	1625.30	0	2.2230	0	34.5280	0	27.584	0	1605.187	0	-1e10	8	-1e10	8	-1E+10	1	-1E+10	1	-1E+10	1	-1E+10	1	-1E+10	1	-1E+10	1
4902554	44	C	04/23/2022	00:56	-135.730	49.496	0	1635.20	0	2.2140	0	34.5300	0	27.587	0	1614.927	0	-1e10	8	-1e10	8	-1E+10	1	-1E+10	1	-1E+10	1	-1E+10	1	-1E+10	1	-1E+10	1
4902554	44	C	04/23/2022	00:56	-135.730	49.496	0	1645.50	0	2.2090	0	34.5310	0	27.588	0	1625.060	0	-1e10	8	-1e10	8	-1E+10	1	-1E+10	1	-1E+10	1	-1E+10	1	-1E+10	1	-1E+10	1
4902554	44	C	04/23/2022	00:56	-135.730	49.496	0	1655.70	0	2.2020	0	34.5330	0	27.590	0	1635.093	0	-1e10	8	-1e10	8	-1E+10	1	-1E+10	1	-1E+10	1	-1E+10	1	-1E+10	1	-1E+10	1
4902554	44	C	04/23/2022	00:56	-135.730	49.496	0	1665.70	0	2.1950	0	34.5340	0	27.592	0	1644.930	0	-1e10	8	-1e10	8	-1E+10	1	-1E+10	1	-1E+10	1	-1E+10	1	-1E+10	1	-1E+10	1
4902554	44	C	04/23/2022	00:56	-135.730	49.496	0	1675.50	0	2.1920	0	34.5350	0	27.593	0	1654.570	0	-1e10	8	-1e10	8	-1E+10	1	-1E+10	1	-1E+10	1	-1E+10	1	-1E+10	1	-1E+10	1
4902554	44	C	04/23/2022	00:56	-135.730	49.496	0	1685.20	0	2.1890	0	34.5360	0	27.594	0	1664.111	0	-1e10	8	-1e10	8	-1E+10	1	-1E+10	1	-1E+10	1	-1E+10	1	-1E+10	1	-1E+10	1
4902554	44	C	04/23/2022	00:56	-135.730	49.496	0	1695.00	0	2.1840	0	34.5370	0	27.595	0	1673.749	0	-1e10	8	-1e10	8	-1E+10	1	-1E+10	1	-1E+10	1	-1E+10	1	-1E+10	1	-1E+10	1
4902554	44	C	04/23/2022	00:56	-135.730	49.496	0	1705.00	0	2.1770	0	34.5380	0	27.597	0	1683.584	0	-1e10	8	-1e10	8	-1E+10	1	-1E+10	1	-1E+10	1	-1E+10	1	-1E+10	1	-1E+10	1
4902554	44	C	04/23/2022	00:56	-135.730	49.496	0	1715.00	0	2.1710	0	34.5400	0	27.599	0	1693.419	0	-1e10	8	-1e10	8	-1E+10	1	-1E+10	1	-1E+10	1	-1E+10	1	-1E+10	1	-1E+10	1
4902554	44	C	04/23/2022	00:56	-135.730	49.496	0	1725.00	0	2.1650	0	34.5410	0	27.600	0	1703.253	0	-1e10	8	-1e10	8	-1E+10	1	-1E+10	1	-1E+10	1	-1E+10	1	-1E+10	1	-1E+10	1
4902554	44	C	04/23/2022	00:56	-135.730	49.496	0	1735.10	0	2.1570	0	34.5430	0	27.602	0	1713.185	0	-1e10	8	-1e10	8	-1E+10	1	-1E+10	1	-1E+10	1	-1E+10	1	-1E+10	1	-1E+10	1
4902554	44	C	04/23/2022	00:56	-135.730	49.496	0	1745.10	0	2.1480	0	34.5440	0	27.604	0	1723.018	0	-1e10	8	-1e10	8	-1E+10	1	-1E+10	1	-1E+10	1	-1E+10	1	-1E+10	1	-1E+10	1
4902554	44	C	04/23/2022	00:56	-135.730	49.496	0	1755.10	0	2.1400	0	34.5460	0	27.606	0	1732.850	0	-1e10	8	-1e10	8	-1E+10	1	-1E+10	1	-1E+10	1	-1E+10	1	-1E+10	1	-1E+10	1
4902554	44	C	04/23/2022	00:56	-135.730	49.496	0	1765.10	0	2.1290	0	34.5480	0	27.609	0	1742.683	0	-1e10	8	-1e10	8	-1E+10	1	-1E+10	1	-1E+10	1	-1E+10	1	-1E+10	1	-1E+10	1
4902554	44	C	04/23/2022	00:56	-135.730	49.496	0	1775.20	0	2.1240	0	34.5490	0	27.610	0	1752.613	0	-1e10	8	-1e10	8	-1E+10	1	-1E+10	1	-1E+10	1	-1E+10	1	-1E+10	1	-1E+10	1
4902554	44	C	04/23/2022	00:56	-135.730	49.496	0	1785.20	0	2.1160	0	34.5510	0	27.612	0	1762.444	0	-1e10	8	-1e10	8	-1E+10	1	-1E+10	1	-1E+10	1	-1E+10	1	-1E+10	1	-1E+10	1
4902554	44	C	04/23/2022	00:56	-135.730	49.496	0	1795.30	0	2.1040	0	34.5530	0	27.615	0	1772.373	0	-1e10	8	-1e10	8	-1E+10	1	-1E+10	1	-1E+10	1	-1E+10	1	-1E+10	1	-1E+10	1
4902554	44	C	04/23/2022	00:56	-135.730	49.496	0	1805.30	0	2.0960	0	34.5550	0	27.617	0	1782.204	0	-1e10	8	-1e10	8	-1E+10	1	-1E+10	1	-1E+10	1	-1E+10	1	-1E+10	1	-1E+10	1
4902554	44	C	04/23/2022	00:56	-135.730	49.496	0	1815.40	0	2.0840	0	34.5570	0	27.620	0	1792.132	0	-1e10	8	-1e10	8	-1E+10	1	-1E+10	1	-1E+10	1	-1E+10	1	-1E+10	1	-1E+10	1
4902554	44	C	04/23/2022	00:56	-135.730	49.496	0	1825.30	0	2.0770	0	34.5580	0	27.621	0	1801.863	0	-1e10	8	-1e10	8	-1E+10	1	-1E+10	1	-1E+10	1	-1E+10	1	-1E+10	1	-1E+10	1
4902554	44	C	04/23/2022	00:56	-135.730	49.496	0	1835.50	0	2.0710	0	34.5590	0	27.623	0	1811.889	0	-1e10	8	-1e10	8	-1E+10	1	-1E+10	1	-1E+10	1	-1E+10	1	-1E+10	1	-1E+10	1
4902554	44	C	04/23/2022	00:56	-135.730	49.496	0	1845.60	0	2.0660	0	34.5600	0	27.624	0	1821.815	0	-1e10	8	-1e10	8	-1E+10	1	-1E+10	1	-1E+10	1	-1E+10	1	-1E+10	1	-1E+10	1
4902554	44	C	04/23/2022	00:56	-135.730	49.496	0	1855.30	0	2.0630	0	34.5620	0	27.626	0	1831.349	0	-1e10	8	-1e10	8	-1E+10	1	-1E+10	1	-1E+10	1	-1E+10	1	-1E+10	1	-1E+10	1
4902554	44	C	04/23/2022	00:56	-135.730	49.496	0	1865.50	0	2.0570	0	34.5640	0	27.628	0	1841.373	0	-1e10	8	-1e10	8	-1E+10	1	-1E+10	1	-1E+10	1	-1E+10	1	-1E+10	1	-1E+10	1
4902554	44	C	04/23/2022	00:56	-135.730	49.496	0	1875.60	0	2.0510	0	34.5660	0	27.630	0	1851.298	0	-1e10	8	-1e10	8	-1E+10	1	-1E+10	1	-1E+10	1	-1E+10	1	-1E+10	1	-1E+10	1
4902554	44	C	04/23/2022	00:56	-135.730	49.496	0	1885.60	0	2.0460	0	34.5660	0	27.630	0	1861.125	0	-1e10	8	-1e10	8	-1E+10	1	-1E+10	1	-1E+10	1	-1E+10	1	-1E+10	1	-1E+10	1
4902554	44	C	04/23/2022	00:56	-135.730	49.496	0	1895.50	0	2.0370	0	34.5680	0	27.633	0	1870.853	0	-1e10	8	-1e10	8	-1E+10	1	-1E+10	1	-1E+10	1	-1E+10	1	-1E+10	1	-1E+10	1
4902554	44	C	04/23/2022	00:56	-135.730	49.496	0	1905.20	0	2.0250	0	34.5710	0	27.636	0	1880.384	0	-1e10	8	-1e10	8	-1E+10	1	-1E+10	1	-1E+10	1	-1E+10	1	-1E+10	1	-1E+10	1
4902554	44	C	04/23/2022	00:56	-135.730	49.496	0	1915.40	0	2.0150	0	34.5720	0	27.638	0	1890.406	0	-1e10	8	-1e10	8	-1E+10	1	-1E+10	1	-1E+10	1	-1E+10	1	-1E+10	1	-1E+10	1
4902554	44	C	04/23/2022	00:56	-135.730	49.496	0	1925.30	0	2.0070	0	34.5740	0	27.640	0	1900.132	0	-1e10	8	-1e10	8	-1E+10	1	-1E+10	1	-1E+10	1	-1E+10	1	-1E+10	1	-1E+10	1
4902554	44	C	04/23/2022	00:56	-135.730	49.496	0	1935.30	0	1.9980	0	34.5760	0	27.642	0	1909.957	0	-1e10	8	-1e10	8	-1E+10	1	-1E+10	1	-1E+10	1	-1E+10	1	-1E+10	1	-1E+10	1
4902554	44	C	04/23/2022	00:56	-135.730	49.496	0	1945.60	0	1.9890	0	34.5770	0	27.644	0	1920.076	0	-1e10	8	-1e10	8	-1E+10	1	-1E+10	1	-1E+10	1	-1E+10	1	-1E+10	1	-1E+10	1
4902554	44	C	04/23/2022	00:56	-135.730	49.496	0	1955.50	0	1.9840	0	34.5780	0	27.645	0	1929.801	0	-1e10	8	-1e10	8	-1E+10	1	-1E+10	1	-1E+10	1	-1E+10	1	-1E+10	1	-1E+10	1
4902554	44	C	04/23/2022	00:56	-135.730	49.496	0	1965.80	0	1.9770	0	34.5790	0	27.647	0	1939.919	0	-1e10	8	-1e10	8	-1E+10	1	-1E+10	1	-1E+10	1	-1E+10	1	-1E+10	1	-1E+10	1
4902554	44	C	04/23/2022	00:56	-135.730	49.496	0	1975.50	0	1.9710	0	34.5800	0	27.648	0	1949.447	0	-1e10	8	-1e10	8	-1E+10	1	-1E+10	1	-1E+10	1	-1E+10	1	-1E+10	1	-1E+10	1
4902554	44	C	04/23/2022	00:56	-135.730	49.496	0	1985.40	0	1.9690	0	34.5810	0	27.649	0	1959.171	0	-1e10	8	-1e10	8	-1E+10	1	-1E+10	1	-1E+10	1	-1E+10	1	-1E+10	1	-1E+10	1
4902554	44	C	04/23/2022	00:56	-135.730	49.496	0	1995.30	0	1.9660	0	34.5820	0	27.650	0	1968.894	0	-1e10	8	-1e10	8	-1E+10	1	-1E+10	1	-1E+10	1	-1E+10	1	-1E+10	1	-1E+10	1
4902554	44	C	04/23/2022	00:56	-135.730	49.496	0	2005.10	0	1.9630	0	34.5830	0	27.651	0	1978.519	0	-1e10	8	-1e10	8	-1E+10	1	-1E+10	1	-1E+10	1	-1E+10	1	-1E+10	1	-1E+10	1
4902554	44	C	04/23/2022	00:56	-135.730	49.496	0	2015.30	0	1.9560	0	34.5840	0	27.653	0	1988.536	0	-1e10	8	-1e10	8	-1E+10	1	-1E+10	1	-1E+10	1	-1E+10	1	-1E+10	1	-1E+10	1
4902554	44	C	04/23/2022	00:56	-135.730	49.496	0																										
4902554	45	C	05/03/2022	05:58	-135.556	49.494	0	1.20	0	7.4610	0	32.3380	0	25.260	0	1.190	0	-1e10	8	-1e10	8	-1E+10	1	-1E+10	1	-1E+10	1	-1E+10	1	-1E+10	1	-1E+10	1
4902554	45	C	05/03/2022	05:58	-135.556	49.494	0	1.30	0	7.4590	0	32.3400	0	25.262	0	1.289	0	-1e10	1	-1e10	1	-1E+10	1	-1E+10	1	-1E+10	1	-1E+10	1	-1E+10	1	-1E+10	1
4902554	45	C	05/03/2022	05:58	-135.556	49.494	0	1.40	0	7.4589	0	32.3400	0	25.262	0	1.388	0	-1e10	8	-1e10	8	-1E+10	1	-1E+10	1	-1E+10	1	-1E+10	1	-1E+10	1	-1E+10	1
4902554	45	C	05/03/2022	05:58	-135.556	49.494	0	1.60	0	7.4586	0	32.3400	0	25.262	0	1.586	0	-1e10	1	-1e10	1	-1E+10	1	-1E+10	1	-1E+10	1	-1E+10	1	-1E+10	1	-1E+10	1
4902554	45	C	05/03/2022	05:58	-135.556	49.494	0	2.10	0	7.4580	0	32.3400	0	25.262	0	2.082	0	-1e10	8	-1e10	8	-1E+10	1	-1E+10	1	-1E+10	1	-1E+10	1	-1E+10	1	-1E+10	1
4902554	45	C	05/03/2022	05:58	-135.556	49.494	0	2.60	0	7.4587	0	32.3400	0	25.262	0	2.578	0	-1e10	1	-1e10	1	-1E+10	1	-1E+10	1	-1E+10	1	-1E+10	1	-1E+10	1	-1E+10	1
4902554	45	C	05/03/2022	05:58	-135.556	49.494	0	2.80	0	7.4590	0	32.3400	0	25.262	0	2.776	0	-1e10	8	-1e10	8	-1E+10	1	-1E+10	1	-1E+10	1	-1E+10	1	-1E+10	1	-1E+10	1
4902554	45	C	05/03/2022	05:58	-135.556	49.494	0	3.30	0	7.4594	0	32.3404	0	25.262	0	3.272	0	-1e10	1	-1e10	1	-1E+10	1	-1E+10	1	-1E+10	1	-1E+10	1	-1E+10	1	-1E+10	1
4902554	45	C	05/03/2022	05:58	-135.556	49.494	0	3.70	0	7.4598	0	32.3408	0	25.262	0	3.668	0	-1e10	1	-1e10	1	-1E+10	1	-1E+10	1	-1E+10	1	-1E+10	1	-1E+10	1	-1E+10	1
4902554	45	C	05/03/2022	05:58	-135.556	49.494	0	4.00	0	7.4600	0	32.3410	0	25.263	0	3.966	0	-1e10	8	-1e10	8	-1E+10	1	-1E+10	1	-1E+10	1	-1E+10	1	-1E+10	1	-1E+10	1
4902554	45	C	05/03/2022	05:58	-135.556	49.494	0	5.10	0	7.4590	0	32.3420	0	25.264	0	5.056	0	-1e10	8	-1e10	8	-1E+10	1	-1E+10	1	-1E+10	1	-1E+10	1	-1E+10	1	-1E+10	1
4902554	45	C	05/03/2022	05:58	-135.556	49.494	0	5.90	0	7.4600	0	32.3410	0	25.263	0	5.850	0	-1e10	8	-1e10	8	-1E+10	1	-1E+10	1	-1E+10	1	-1E+10	1	-1E+10	1	-1E+10	1
4902554	45	C	05/03/2022	05:58	-135.556	49.494	0	6.80	0	7.4600	0	32.3420	0	25.263	0	6.742	0	-1e10	8	-1e10	8	-1E+10	1	-1E+10	1	-1E+10	1	-1E+10	1	-1E+10	1	-1E+10	1
4902554	45	C	05/03/2022	05:58	-135.556	49.494	0	7.80	0	7.4600	0	32.3420	0	25.263	0	7.733	0	-1e10	8	-1e10	8	-1E+10	1	-1E+10	1	-1E+10	1	-1E+10	1	-1E+10	1	-1E+10	1
4902554	45	C	05/03/2022	05:58	-135.556	49.494	0	8.90	0	7.4600	0	32.3420	0	25.263	0	8.824	0	-1e10	8	-1e10	8	-1E+10	1	-1E+10	1	-1E+10	1	-1E+10	1	-1E+10	1	-1E+10	1
4902554	45	C	05/03/2022	05:58	-135.556	49.494	0	10.00	0	7.4600	0	32.3420	0	25.263	0	9.914	0	-1e10	8	-1e10	8	-1E+10	1	-1E+10	1	-1E+10	1	-1E+10	1	-1E+10	1	-1E+10	1
4902554	45	C	05/03/2022	05:58	-135.556	49.494	0	11.20	0	7.4580	0	32.3430	0	25.265	0	11.104	0	-1e10	8	-1e10	8	-1E+10	1	-1E+10	1	-1E+10	1	-1E+10	1	-1E+10	1	-1E+10	1
4902554	45	C	05/03/2022	05:58	-135.556	49.494	0	12.20	0	7.4580	0	32.3430	0	25.265	0	12.096	0	-1e10	8	-1e10	8	-1E+10	1	-1E+10	1	-1E+10	1	-1E+10	1	-1E+10	1	-1E+10	1
4902554	45	C	05/03/2022	05:58	-135.556	49.494	0	13.10	0	7.4580	0	32.3420	0	25.264	0	12.988	0	-1e10	8	-1e10	8	-1E+10	1	-1E+10	1	-1E+10	1	-1E+10	1	-1E+10	1	-1E+10	1
4902554	45	C	05/03/2022	05:58	-135.556	49.494	0	14.00	0	7.4580	0	32.3430	0	25.265	0	13.880	0	-1e10	8	-1e10	8	-1E+10	1	-1E+10	1	-1E+10	1	-1E+10	1	-1E+10	1	-1E+10	1
4902554	45	C	05/03/2022	05:58	-135.556	49.494	0	15.00	0	7.4580	0	32.3420	0	25.264	0	14.872	0	-1e10	8	-1e10	8	-1E+10	1	-1E+10	1	-1E+10	1	-1E+10	1	-1E+10	1	-1E+10	1
4902554	45	C	05/03/2022	05:58	-135.556	49.494	0	16.00	0	7.4580	0	32.3430	0	25.265	0	15.863	0	-1e10	8	-1e10	8	-1E+10	1	-1E+10	1	-1E+10	1	-1E+10	1	-1E+10	1	-1E+10	1
4902554	45	C	05/03/2022	05:58	-135.556	49.494	0	17.00	0	7.4580	0	32.3430	0	25.265	0	16.854	0	-1e10	8	-1e10	8	-1E+10	1	-1E+10	1	-1E+10	1	-1E+10	1	-1E+10	1	-1E+10	1
4902554	45	C	05/03/2022	05:58	-135.556	49.494	0	17.90	0	7.4570	0	32.3430	0	25.265	0	17.747	0	-1e10	8	-1e10	8	-1E+10	1	-1E+10	1	-1E+10	1	-1E+10	1	-1E+10	1	-1E+10	1
4902554	45	C	05/03/2022	05:58	-135.556	49.494	0	19.10	0	7.4570	0	32.3430	0	25.265	0	18.936	0	-1e10	8	-1e10	8	-1E+10	1	-1E+10	1	-1E+10	1	-1E+10	1	-1E+10	1	-1E+10	1
4902554	45	C	05/03/2022	05:58	-135.556	49.494	0	20.00	0	7.4570	0	32.3430	0	25.265	0	19.828	0	-1e10	8	-1e10	8	-1E+10	1	-1E+10	1	-1E+10	1	-1E+10	1	-1E+10	1	-1E+10	1
4902554	45	C	05/03/2022	05:58	-135.556	49.494	0	20.90	0	7.4580	0	32.3420	0	25.264	0	20.721	0	-1e10	8	-1e10	8	-1E+10	1	-1E+10	1	-1E+10	1	-1E+10	1	-1E+10	1	-1E+10	1
4902554	45	C	05/03/2022	05:58	-135.556	49.494	0	22.10	0	7.4570	0	32.3430	0	25.265	0	21.910	0	-1e10	8	-1e10	8	-1E+10	1	-1E+10	1	-1E+10	1	-1E+10	1	-1E+10	1	-1E+10	1
4902554	45	C	05/03/2022	05:58	-135.556	49.494	0	23.00	0	7.4600	0	32.3420	0	25.264	0	22.803	0	-1e10	8	-1e10	8	-1E+10	1	-1E+10	1	-1E+10	1	-1E+10	1	-1E+10	1	-1E+10	1
4902554	45	C	05/03/2022	05:58	-135.556	49.494	0	24.00	0	7.4590	0	32.3420	0	25.264	0	23.794	0	-1e10	8	-1e10	8	-1E+10	1	-1E+10	1	-1E+10	1	-1E+10	1	-1E+10	1	-1E+10	1
4902554	45	C	05/03/2022	05:58	-135.556	49.494	0	25.10	0	7.4590	0	32.3410	0	25.263	0	24.884	0	-1e10	8	-1e10	8	-1E+10	1	-1E+10	1	-1E+10	1	-1E+10	1	-1E+10	1	-1E+10	1
4902554	45	C	05/03/2022	05:58	-135.556	49.494	0	25.90	0	7.4590	0	32.3420	0	25.264	0	25.678	0	-1e10	8	-1e10	8	-1E+10	1	-1E+10	1	-1E+10	1	-1E+10	1	-1E+10	1	-1E+10	1
4902554	45	C	05/03/2022	05:58	-135.556	49.494	0	27.00	0	7.4640	0	32.3410	0	25.262	0	26.768	0	-1e10	8	-1e10	8	-1E+10	1	-1E+10	1	-1E+10	1	-1E+10	1	-1E+10	1	-1E+10	1
4902554	45	C	05/03/2022	05:58	-135.556	49.494	0	27.90	0	7.4630	0	32.3410	0	25.263	0	27.660	0	-1e10	8	-1e10	8	-1E+10	1	-1E+10	1	-1E+10	1	-1E+10	1	-1E+10	1	-1E+10	1
4902554	45	C	05/03/2022	05:58	-135.556	49.494	0	29.00	0	7.4630	0	32.3410	0	25.263	0	28.751	0	-1e10	8	-1e10	8	-1E+10	1	-1E+10	1	-1E+10	1	-1E+10	1	-1E+10	1	-1E+10	1
4902554	45	C	05/03/2022	05:58	-135.556	49.494	0	30.10	0	7.4440	0	32.3430	0	25.267	0	29.841	0	-1e10	8	-1e10	8	-1E+10	1	-1E+10	1	-1E+10	1	-1E+10	1	-1E+10	1	-1E+10	1
4902554	45	C	05/03/2022	05:58	-135.556	49.494	0	30.90	0	7.4290	0	32.3430	0	25.269	0	30.634	0	-1e10	8	-1e10	8	-1E+10	1	-1E+10	1	-1E+10	1	-1E+10	1	-1E+10	1	-1E+10	1
4902554	45	C	05/03/2022	05:58	-135.556	49.494	0	31.70	0	7.4260	0	32.3430	0	25.269	0	31.427	0	-1e10	8	-1e10	8	-1E+10	1	-1E+10	1	-1E+10	1	-1E+10	1	-1E+10	1	-1E+10	1
4902554	45	C	05/03/2022	05:58	-135.556	49.494	0	33.10	0	7.4210	0	32.3420	0	25.269	0	32.815	0	-1e10	8	-1e10	8	-1E+10	1	-1E+10	1	-1E+10	1	-1E+10	1	-1E+10	1	-1E+10	1
4902554	45	C	05/03/2022	05:58	-135.556	49.494	0	34.10	0	7.4230	0	32.3430	0	25.270	0	33.806	0	-1e10	8	-1e10	8	-1E+10	1	-1E+10	1	-1E+10	1	-1E+10	1	-1E+10	1	-1E+10	1
4902554	45	C	05/03/2022	05:58	-135.556	49.494	0	35.30	0	7.3610	0	32.3470	0	25.281	0	34.996	0	-1e10	8	-1e10	8	-1E+10	1	-1E+10	1	-1E+10	1	-1E+10	1	-1E+10	1	-1E+10	1
4902554	45	C	05/03/2022	05:58	-135.556	49.494	0	36.20	0	7.3640	0	32.3490	0	25.283	0	35.888	0	-1e10	8	-1e10	8	-1E+10	1	-1E+10	1	-1E+10	1	-1E+10	1	-1E+10	1	-1E+10	1
4902554	45	C	05/03/2022	05:58	-135.556	49.494	0	37.10	0	7.3330	0	32.3490	0	25.287	0	36.780	0	-1e10	8	-1e10	8	-1E+10	1	-1E+10	1	-1E+10	1	-1E+10	1	-1E+10	1	-1E+10	1
4902554	45	C	05/03/2022	05:58	-135.556	49.494	0	38.00	0	7.3390	0	32.3480	0	25.285	0	37.673	0	-1e10	8	-1e10	8	-1E+10	1	-1E+10	1	-1E+10	1	-1E+10	1	-1E+10	1	-1E+10	1
4902554	45	C	05/03/2022	05:58	-135.556	49.494	0	39.20	0	7.3150	0	32.3500	0	25.290	0	38.862	0	-1e10	8	-1e10	8	-1E+10	1	-1E+10	1	-1E+10	1	-1E+10	1	-1E+10	1	-1E+10	1
4902554	45	C	05/03/2022	05:58	-135.556	49.494	0	39.90	0	7.3110	0	32.3490	0	25.290	0	39.556	0	-1e10	8	-1e10	8	-1E+10	1	-1E+10	1	-1E+10	1	-1E+10	1	-1E+10	1	-1E+10	1
4902554	45	C	05/03/2022	05:58	-135.556	49.494	0	41.00	0	7.3000	0	32.3460	0	25.289	0	40.646	0	-1e10	8	-1e10	8	-1E+10	1	-1E+10	1	-1E+10	1	-1E+10	1	-1E+10	1	-1E+10	1
4902554	45	C	05/03/2022	05:58	-135.556	49.494	0	42.10	0	7.2950	0	32.3510	0	25.294	0	41.737	0	-1e10	8	-1e10	8	-1E+10	1	-1E+10	1	-1E+10	1	-1E+10	1	-1E+10	1	-1E+10	1
4902554	45	C	05/03/2022	05:58	-135.556	49.494	0	42.80	0	7.2750	0	32.3500	0	25.296	0	42.431	0	-1e10	8	-1e10	8	-1E+10	1	-1E+10	1	-1E+10	1	-1E+10	1	-1E+10	1	-1E+10	1
4902554	45	C	05/03/2022	05:58	-135.556	49.494	0	43.90	0	7.2230	0	32.3440	0	25.298	0	43.521	0	-1e10	8	-1e10	8	-1E+10	1	-1E+10	1	-1E+10	1	-1E+10	1	-1E+10	1	-1E+10	1
4902554	45	C	05/03/2022	05:58	-135.556	49.494	0	45.20	0	7.1410	0	32.3540	0	25.317	0	44.810	0	-1e10	8	-1e10	8	-1E+10	1	-1E+10	1	-1E+10	1	-1E+10	1	-1E+10	1	-1E+10	1
4902554	45	C	05/03/2022	05:58	-135.556	49.494	0	46.10	0	7.1190	0	32.3540	0	25.320	0	45.702	0	-1e10	8	-1e10	8	-1E+10	1	-1E+10	1	-1E+10	1	-1E+10	1	-1E+10	1	-1E+10	1
4902554	45	C	05/03/2022	05:58	-135.556	49.494	0	46.90	0	7.1070	0	32.3550	0	25.322	0	46.495	0	-1e10	8	-1e10	8	-1E+10	1	-1E+10	1	-1E+10	1	-1E+10	1	-1E+10	1	-1E+10	1
4902554	45	C	05/03/2022	05:58	-135.556	49.494	0	48.20	0	7.0940	0	32.3550	0	25.324	0	47.783	0	-1e10	8	-1e10	8	-1E+10	1	-1E+10	1	-1E+10	1	-1E+10	1	-1E+10	1	-1E+10	1
4902554	45	C	05/03/2022	05:58	-135.556	49.494	0	48.80	0	7.0860	0	32.3560	0	25.326	0	48.378	0	-1e10	8	-1e10	8	-1E+10	1	-1E+10	1	-1E+10	1	-1E+10	1	-1E+10	1	-1E+10	1
4902554	45	C	05/03/2022	05:58	-135.556	49.494	0	49.80	0	7.0750	0	32.3550	0	25.327	0	49.369	0	-1e10	8	-1e10	8	-1E+10	1	-1E+10	1	-1E+10	1	-1E+10	1	-1E+10	1	-1E+10	1
4902554	45	C	05/03/2022	05:58	-135.556	49.494	0	51.00	0	7.0290	0	32.3550	0	25.333	0	50.559	0	-1e10	8	-1e10	8	-1E+10	1	-1E+10	1	-1E+10	1	-1E+10	1	-1E+10	1	-1E+10	1
4902554	45	C	05/03/2022	05:58	-135.556	49.494	0	52.20	0	6.9830	0	32.3570	0	25.340	0	51.748	0	-1e10	8	-1e10	8	-1E+10	1	-1E+10	1	-1E+10	1	-1E+10	1	-1E+10	1	-1E+10	1
4902554	45	C	05/03/2022	05:58	-135.556	49.494	0	52.80	0	6.9460	0	32.3600	0	25.348	0	52.343	0	-1e10	8	-1e10	8	-1E+10	1	-1E+10	1	-1E+10	1	-1E+10	1	-1E+10	1	-1E+10	1
4902554	45	C	05/03/2022	05:58	-135.556	49.494	0	53.90	0	6.9240	0	32.3660	0	25.355	0	53.433	0	-1e10	8	-1e10	8	-1E+10	1	-1E+10	1	-1E+10	1	-1E+10	1	-1E+10	1	-1E+10	1
4902554	45	C	05/03/2022	05:58	-135.556	49.494	0	55.20	0	6.9070	0	32.3680	0	25.359	0	54.722	0	-1e10	8	-1e10	8	-1E+10	1	-1E+10	1	-1E+10	1	-1E+10	1	-1E+10	1	-1E+10	1
4902554	45	C	05/03/2022	05:58	-135.556	49.494	0	56.00	0	6.9020	0	32.3680	0	25.360	0	55.515	0	-1e10	8	-1e10	8	-1E+10	1	-1E+10	1	-1E+10	1	-1E+10	1	-1E+10	1	-1E+10	1
4902554	45	C	05/03/2022	05:58	-135.556	49.494	0	57.00	0	6.8960	0	32.3670	0	25.360	0	56.506	0	-1e10	8	-1e10	8	-1E+10	1	-1E+10	1	-1E+10	1	-1E+10	1	-1E+10	1	-1E+10	1
4902554	45	C	05/03/2022	05:58	-135.556	49.494	0	58.00	0	6.8950	0	32.3670	0	25.360	0	57.497	0	-1e10	8	-1e10	8	-1E+10	1	-1E+10	1	-1E+10	1	-1E+10	1	-1E+10	1	-1E+10	1
4902554	45	C	05/03/2022	05:58	-135.556	49.494	0	58.80	0	6.8880	0	32.3670	0	25.361	0	58.290	0	-1e10	8	-1e10	8	-1E+10	1	-1E+10	1	-1E+10	1	-1E+10	1	-1E+10	1	-1E+10	1
4902554	45	C	05/03/2022	05:58	-135.556	49.494	0	60.00	0	6.8600	0	32.3650	0	25.363	0	59.480	0	-1e10	8	-1e10	8	-1E+10	1	-1E+10	1	-1E+10	1	-1E+10	1	-1E+10	1	-1E+10	1
4902554	45	C	05/03/2022	05:58	-135.556	49.494	0	61.20	0	6.8330	0	32.3640	0	25.366	0	60.669	0	-1e10	8	-1e10	8	-1E+10	1	-1E+10	1	-1E+10	1	-1E+10	1	-1E+10	1	-1E+10	1
4902554	45	C	05/03/2022	05:58	-135.556	49.494	0	62.00	0	6.8220	0	32.3630	0	25.366	0	61.462	0	-1e10	8	-1e10	8	-1E+10	1	-1E+10	1	-1E+10	1	-1E+10	1	-1E+10	1	-1E+10	1
4902554	45	C	05/03/2022	05:58	-135.556	49.494	0	63.10	0	6.8140	0	32.3630	0	25.367	0	62.552	0	-1e10	8	-1e10	8	-1E+10	1	-1E+10	1	-1E+10	1	-1E+10	1	-1E+10	1	-1E+10	1
4902554	45	C	05/03/2022	05:58	-135.556	49.494	0	63.90	0	6.8110	0	32.3620	0	25.367	0	63.345	0	-1e10	8	-1e10	8	-1E+10	1	-1E+10	1	-1E+10	1	-1E+10	1	-1E+10	1	-1E+10	1
4902554	45	C	05/03/2022	05:58	-135.556	49.494	0	65.10	0	6.7970	0	32.3620	0	25.369	0	64.535	0	-1e10	8	-1e10	8	-1E+10	1	-1E+10	1	-1E+10	1	-1E+10	1	-1E+10	1	-1E+10	1
4902554	45	C	05/03/2022	05:58	-135.556	49.494	0	65.90	0	6.7900	0	32.3620	0	25.370	0	65.328	0	-1e10	8	-1e10	8	-1E+10	1	-1E+10	1	-1E+10	1	-1E+10	1	-1E+10	1	-1E+10	1
4902554	45	C	05/03/2022	05:58	-135.556	49.494	0	66.90	0	6.7850	0	32.3620	0	25.371	0	66.319	0	-1e10	8	-1e10	8	-1E+10	1	-1E+10	1	-1E+10	1	-1E+10	1	-1E+10	1	-1E+10	1
4902554	45	C	05/03/2022	05:58	-135.556	49.494	0	68.00	0	6.7820	0	32.3620	0	25.371	0	67.409	0	-1e10	8	-1e10	8	-1E+10	1	-1E+10	1	-1E+10	1	-1E+10	1	-1E+10	1	-1E+10	1
4902554	45	C	05/03/2022	05:58	-135.556	49.494	0	69.00	0	6.7790	0	32.3620	0	25.371	0	68.400	0	-1e10	8	-1e10	8	-1E+10	1	-1E+10	1	-1E+10	1	-1E+10	1	-1E+10	1	-1E+10	1
4902554	45	C	05/03/2022	05:58	-135.556	49.494	0	69.90	0	6.7770	0	32.3620	0	25.372	0	69.292	0	-1e10	8	-1e10	8	-1E+10	1	-1E+10	1	-1E+10	1	-1E+10	1	-1E+10	1	-1E+10	1
4902554	45	C	05/03/2022	05:58	-135.556	49.494	0	71.00	0	6.7740	0	32.3630	0	25.373	0	70.382	0	-1e10	8	-1e10	8	-1E+10	1	-1E+10	1	-1E+10	1	-1E+10	1	-1E+10	1	-1E+10	1
4902554	45	C	05/03/2022	05:58	-135.556	49.494	0	72.10	0	6.7710	0	32.3630	0	25.373	0	71.473	0	-1e10	8	-1e10	8	-1E+10	1	-1E+10	1	-1E+10	1	-1E+10	1	-1E+10	1	-1E+10	1
4902554	45	C	05/03/2022	05:58	-135.556	49.494	0	73.30	0	6.7670	0	32.3630	0	25.374	0	72.662	0	-1e10	8	-1e10	8	-1E+10	1	-1E+10	1	-1E+10	1	-1E+10	1	-1E+10	1	-1E+10	1
4902554	45	C	05/03/2022	05:58	-135.556	49.494	0	74.20	0	6.7660	0	32.3640	0	25.375	0	73.554	0	-1e10	8	-1e10	8	-1E+10	1	-1E+10	1	-1E+10	1	-1E+10	1	-1E+10	1	-1E+10	1
4902554	45	C	05/03/2022	05:58	-135.556	49.494	0	74.90	0	6.7640	0	32.3630	0	25.374	0	74.248	0	-1e10	8	-1e10	8	-1E+10	1	-1E+10	1	-1E+10	1	-1E+10	1	-1E+10	1	-1E+10	1
4902554	45	C	05/03/2022	05:58	-135.556	49.494	0	75.90	0	6.7590	0	32.3640	0	25.376	0	75.239	0	-1e10	8	-1e10	8	-1E+10	1	-1E+10	1	-1E+10	1	-1E+10	1	-1E+10	1	-1E+10	1
4902554	45	C	05/03/2022	05:58	-135.556	49.494	0	76.80	0	6.7510	0	32.3650	0	25.377	0	76.131	0	-1e10	8	-1e10	8	-1E+10	1	-1E+10	1	-1E+10	1	-1E+10	1	-1E+10	1	-1E+10	1
4902554	45	C	05/03/2022	05:58	-135.556	49.494	0	77.80	0	6.7420	0	32.3660	0	25.379	0	77.122	0	-1e10	8	-1e10	8	-1E+10	1	-1E+10	1	-1E+10	1	-1E+10	1	-1E+10	1	-1E+10	1
4902554	45	C	05/03/2022	05:58	-135.556	49.494	0	78.80	0	6.7300	0	32.3670	0	25.382	0	78.113	0	-1e10	8	-1e10	8	-1E+10	1	-1E+10	1	-1E+10	1	-1E+10	1	-1E+10	1	-1E+10	1
4902554	45	C	05/03/2022	05:58	-135.556	49.494	0	79.80	0	6.7230	0	32.3680	0	25.383	0	79.104	0	-1e10	8	-1e10	8	-1E+10	1	-1E+10	1	-1E+10	1	-1E+10	1	-1E+10	1	-1E+10	1
4902554	45	C	05/03/2022	05:58	-135.556	49.494	0	80.80	0	6.7180	0	32.3680	0	25.384	0	80.095	0	-1e10	8	-1e10	8	-1E+10	1	-1E+10	1	-1E+10	1	-1E+10	1	-1E+10	1	-1E+10	1
4902554	45	C	05/03/2022	05:58	-135.556	49.494	0	81.80	0	6.7060	0	32.3700	0	25.387	0	81.086	0	-1e10	8	-1e10	8	-1E+10	1	-1E+10	1	-1E+10	1	-1E+10	1	-1E+10	1	-1E+10	1
4902554	45	C	05/03/2022	05:58	-135.556	49.494	0	82.80	0	6.6890	0	32.3760	0	25.394	0	82.077	0	-1e10	8	-1e10	8	-1E+10	1	-1E+10	1	-1E+10	1	-1E+10	1	-1E+10	1	-1E+10	1
4902554	45	C	05/03/2022	05:58	-135.556	49.494	0	83.80	0	6.6840	0	32.3770	0	25.396	0	83.069	0	-1e10	8	-1e10	8	-1E+10	1	-1E+10	1	-1E+10	1	-1E+10	1	-1E+10	1	-1E+10	1
4902554	45	C	05/03/2022	05:58	-135.556	49.494	0	84.90	0	6.6580	0	32.3870	0	25.407	0	84.159	0	-1e10	8	-1e10	8	-1E+10	1	-1E+10	1	-1E+10	1	-1E+10	1	-1E+10	1	-1E+10	1
4902554	45	C	05/03/2022	05:58	-135.556	49.494	0	85.90	0	6.6200	0	32.4050	0	25.426	0	85.150	0	-1e10	8	-1e10	8	-1E+10	1	-1E+10	1	-1E+10	1	-1E+10	1	-1E+10	1	-1E+10	1
4902554	45	C	05/03/2022	05:58	-135.556	49.494	0	87.00	0	6.5980	0	32.4180	0	25.439	0	86.240	0	-1e10	8	-1e10	8	-1E+10	1	-1E+10	1	-1E+10	1	-1E+10	1	-1E+10	1	-1E+10	1
4902554	45	C	05/03/2022	05:58	-135.556	49.494	0	88.10	0	6.5740	0	32.4320	0	25.453	0	87.330	0	-1e10	8	-1e10	8	-1E+10	1	-1E+10	1	-1E+10	1	-1E+10	1	-1E+10	1	-1E+10	1
4902554	45	C	05/03/2022	05:58	-135.556	49.494	0	88.90	0	6.5690	0	32.4350	0	25.456	0	88.123	0	-1e10	8	-1e10	8	-1E+10	1	-1E+10	1	-1E+10	1	-1E+10	1	-1E+10	1	-1E+10	1
4902554	45	C	05/03/2022	05:58	-135.556	49.494	0	89.70	0	6.5630	0	32.4410	0	25.462	0	88.916	0	-1e10	8	-1e10	8	-1E+10	1	-1E+10	1	-1E+10	1	-1E+10	1	-1E+10	1	-1E+10	1
4902554	45	C	05/03/2022	05:58	-135.556	49.494	0	90.80	0	6.5280	0	32.4650	0	25.485	0	90.006	0	-1e10	8	-1e10	8	-1E+10	1	-1E+10	1	-1E+10	1	-1E+10	1	-1E+10	1	-1E+10	1
4902554	45	C	05/03/2022	05:58	-135.556	49.494	0	91.90	0	6.5020	0	32.4820	0	25.502	0	91.096	0	-1e10	8	-1e10	8	-1E+10	1	-1E+10	1	-1E+10	1	-1E+10	1	-1E+10	1	-1E+10	1
4902554	45	C	05/03/2022	05:58	-135.556	49.494	0	92.90	0	6.4930	0	32.4900	0	25.509	0	92.087	0	-1e10	8	-1e10	8	-1E+10	1	-1E+10	1	-1E+10	1	-1E+10	1	-1E+10	1	-1E+10	1
4902554	45	C	05/03/2022	05:58	-135.556	49.494	0	94.00	0	6.4760	0	32.5000	0	25.519	0	93.177	0	-1e10	8	-1e10	8	-1E+10	1	-1E+10	1	-1E+10	1	-1E+10	1	-1E+10	1	-1E+10	1
4902554	45	C	05/03/2022	05:58	-135.556	49.494	0	95.10	0	6.4010	0	32.5480	0	25.567	0	94.267	0	-1e10	8	-1e10	8	-1E+10	1	-1E+10	1	-1E+10	1	-1E+10	1	-1E+10	1	-1E+10	1
4902554	45	C	05/03/2022	05:58	-135.556	49.494	0	96.10	0	6.2910	0	32.6320	0	25.647	0	95.258	0	-1e10	8	-1e10	8	-1E+10	1	-1E+10	1	-1E+10	1	-1E+10	1	-1E+10	1	-1E+10	1
4902554	45	C	05/03/2022	05:58	-135.556	49.494	0	96.80	0	6.2200	0	32.6760	0	25.691	0	95.952	0	-1e10	8	-1e10	8	-1E+10	1	-1E+10	1	-1E+10	1	-1E+10	1	-1E+10	1	-1E+10	1
4902554	45	C	05/03/2022	05:58	-135.556	49.494	0	98.10	0	6.1770	0	32.7150	0	25.727	0	97.240	0	-1e10	8	-1e10	8	-1E+10	1	-1E+10	1	-1E+10	1	-1E+10	1	-1E+10	1	-1E+10	1
4902554	45	C	05/03/2022	05:58	-135.556	49.494	0	98.80	0	6.1620	0	32.7280	0	25.739	0	97.934	0	-1e10	8	-1e10	8	-1E+10	1	-1E+10	1	-1E+10	1	-1E+10	1	-1E+10	1	-1E+10	1
4902554	45	C	05/03/2022	05:58	-135.556	49.494	0	99.80	0	6.1290	0	32.7520	0	25.762	0	98.925	0	-1e10	8	-1e10	8	-1E+10	1	-1E+10	1	-1E+10	1	-1E+10	1	-1E+10	1	-1E+10	1
4902554	45	C	05/03/2022	05:58	-135.556	49.494	0	100.80	0	6.1180	0	32.7610	0	25.770	0	99.916	0	-1e10	8	-1e10	8	-1E+10	1	-1E+10	1	-1E+10	1	-1E+10	1	-1E+10	1	-1E+10	1
4902554	45	C	05/03/2022	05:58	-135.556	49.494	0	101.80	0	6.1120	0	32.7670	0	25.776	0	100.907	0	-1e10	8	-1e10	8	-1E+10	1	-1E+10	1	-1E+10	1	-1E+10	1	-1E+10	1	-1E+10	1
4902554	45	C	05/03/2022	05:58	-135.556	49.494	0	102.90	0	6.0930	0	32.7900	0	25.796	0	101.997	0	-1e10	8	-1e10	8	-1E+10	1	-1E+10	1	-1E+10	1	-1E+10	1	-1E+10	1	-1E+10	1
4902554	45	C	05/03/2022	05:58	-135.556	49.494	0	103.90	0	6.0800	0	32.8140	0	25.817	0	102.988	0	-1e10	8	-1e10	8	-1E+10	1	-1E+10	1	-1E+10	1	-1E+10	1	-1E+10	1	-1E+10	1
4902554	45	C	05/03/2022	05:58	-135.556	49.494	0	104.90	0	6.0730	0	32.8270	0	25.828	0	103.979	0	-1e10	8	-1e10	8	-1E+10	1	-1E+10	1	-1E+10	1	-1E+10	1	-1E+10	1	-1E+10	1
4902554	45	C	05/03/2022	05:58	-135.556	49.494	0	106.10	0	6.0620	0	32.8630	0	25.858	0	105.168	0	-1e10	8	-1e10	8	-1E+10	1	-1E+10	1	-1E+10	1	-1E+10	1	-1E+10	1	-1E+10	1
4902554	45	C	05/03/2022	05:58	-135.556	49.494	0	107.00	0	6.0600	0	32.8810	0	25.872	0	106.060	0	-1e10	8	-1e10	8	-1E+10	1	-1E+10	1	-1E+10	1	-1E+10	1	-1E+10	1	-1E+10	1
4902554	45	C	05/03/2022	05:58	-135.556	49.494	0	107.90	0	6.0550	0	32.8940	0	25.883	0	106.952	0	-1e10	8	-1e10	8	-1E+10	1	-1E+10	1	-1E+10	1	-1E+10	1	-1E+10	1	-1E+10	1
4902554	45	C	05/03/2022	05:58	-135.556	49.494	0	108.90	0	6.0500	0	32.9030	0	25.891	0	107.943	0	-1e10	8	-1e10	8	-1E+10	1	-1E+10	1	-1E+10	1	-1E+10	1	-1E+10	1	-1E+10	1
4902554	45	C	05/03/2022	05:58	-135.556	49.494	0	110.00	0	6.0410	0	32.9290	0	25.913	0	109.033	0	-1e10	8	-1e10	8	-1E+10	1	-1E+10	1	-1E+10	1	-1E+10	1	-1E+10	1	-1E+10	1
4902554	45	C	05/03/2022	05:58	-135.556	49.494	0	110.70	0	6.0330	0	32.9510	0	25.931	0	109.727	0	-1e10	8	-1e10	8	-1E+10	1	-1E+10	1	-1E+10	1	-1E+10	1	-1E+10	1	-1E+10	1
4902554	45	C	05/03/2022	05:58	-135.556	49.494	0	111.70	0	6.0100	0	33.0810	0	26.036	0	110.718	0	-1e10	8	-1e10	8	-1E+10	1	-1E+10	1	-1E+10	1	-1E+10	1	-1E+10	1	-1E+10	1
4902554	45	C	05/03/2022	05:58	-135.556	49.494	0	112.70	0	5.9980	0	33.1160	0	26.066	0	111.708	0	-1e10	8	-1e10	8	-1E+10	1	-1E+10	1	-1E+10	1	-1E+10	1	-1E+10	1	-1E+10	1
4902554	45	C	05/03/2022	05:58	-135.556	49.494	0	113.90	0	5.9780	0	33.1380	0	26.085	0	112.898	0	-1e10	8	-1e10	8	-1E+10	1	-1E+10	1	-1E+10	1	-1E+10	1	-1E+10	1	-1E+10	1
4902554	45	C	05/03/2022	05:58	-135.556	49.494	0	115.00	0	5.9770	0	33.1510	0	26.096	0	113.988	0	-1e10	8	-1e10	8	-1E+10	1	-1E+10	1	-1E+10	1	-1E+10	1	-1E+10	1	-1E+10	1
4902554	45	C	05/03/2022	05:58	-135.556	49.494	0	116.00	0	5.9750	0	33.1610	0	26.104	0	114.979	0	-1e10	8	-1e10	8	-1E+10	1	-1E+10	1	-1E+10	1	-1E+10	1	-1E+10	1	-1E+10	1
4902554	45	C	05/03/2022	05:58	-135.556	49.494	0	116.90	0	5.9700	0	33.1680	0	26.110	0	115.870	0	-1e10	8	-1e10	8	-1E+10	1	-1E+10	1	-1E+10	1	-1E+10	1	-1E+10	1	-1E+10	1
4902554	45	C	05/03/2022	05:58	-135.556	49.494	0	117.90	0	5.9600	0	33.1750	0	26.117	0	116.861	0	-1e10	8	-1e10	8	-1E+10	1	-1E+10	1	-1E+10	1	-1E+10	1	-1E+10	1	-1E+10	1
4902554	45	C	05/03/2022	05:58	-135.556	49.494	0	118.80	0	5.9520	0	33.1870	0	26.127	0	117.753	0	-1e10	8	-1e10	8	-1E+10	1	-1E+10	1	-1E+10	1	-1E+10	1	-1E+10	1	-1E+10	1
4902554	45	C	05/03/2022	05:58	-135.556	49.494	0	119.90	0	5.9520	0	33.2020	0	26.139	0	118.843	0	-1e10	8	-1e10	8	-1E+10	1	-1E+10	1	-1E+10	1	-1E+10	1	-1E+10	1	-1E+10	1
4902554	45	C	05/03/2022	05:58	-135.556	49.494	0	120.90	0	5.9570	0	33.2220	0	26.155	0	119.834	0	-1e10	8	-1e10	8	-1E+10	1	-1E+10	1	-1E+10	1	-1E+10	1	-1E+10	1	-1E+10	1
4902554	45	C	05/03/2022	05:58	-135.556	49.494	0	122.00	0	5.9610	0	33.2330	0	26.163	0	120.924	0	-1e10	8	-1e10	8	-1E+10	1	-1E+10	1	-1E+10	1	-1E+10	1	-1E+10	1	-1E+10	1
4902554	45	C	05/03/2022	05:58	-135.556	49.494	0	122.70	0	5.9620	0	33.2380	0	26.167	0	121.618	0	-1e10	8	-1e10	8	-1E+10	1	-1E+10	1	-1E+10	1	-1E+10	1	-1E+10	1	-1E+10	1
4902554	45	C	05/03/2022	05:58	-135.556	49.494	0	123.80	0	5.9690	0	33.2640	0	26.186	0	122.708	0	-1e10	8	-1e10	8	-1E+10	1	-1E+10	1	-1E+10	1	-1E+10	1	-1E+10	1	-1E+10	1
4902554	45	C	05/03/2022	05:58	-135.556	49.494	0	125.00	0	5.9740	0	33.2900	0	26.206	0	123.897	0	-1e10	8	-1e10	8	-1E+10	1	-1E+10	1	-1E+10	1	-1E+10	1	-1E+10	1	-1E+10	1
4902554	45	C	05/03/2022	05:58	-135.556	49.494	0	125.90	0	5.9770	0	33.2950	0	26.210	0	124.788	0	-1e10	8	-1e10	8	-1E+10	1	-1E+10	1	-1E+10	1	-1E+10	1	-1E+10	1	-1E+10	1
4902554	45	C	05/03/2022	05:58	-135.556	49.494	0	126.70	0	5.9810	0	33.3020	0	26.215	0	125.581	0	-1e10	8	-1e10	8	-1E+10	1	-1E+10	1	-1E+10	1	-1E+10	1	-1E+10	1	-1E+10	1
4902554	45	C	05/03/2022	05:58	-135.556	49.494	0	127.60	0	5.9860	0	33.3150	0	26.224	0	126.473	0	-1e10	8	-1e10	8	-1E+10	1	-1E+10	1	-1E+10	1	-1E+10	1	-1E+10	1	-1E+10	1
4902554	45	C	05/03/2022	05:58	-135.556	49.494	0	128.90	0	5.9860	0	33.3170	0	26.226	0	127.761	0	-1e10	8	-1e10	8	-1E+10	1	-1E+10	1	-1E+10	1	-1E+10	1	-1E+10	1	-1E+10	1
4902554	45	C	05/03/2022	05:58	-135.556	49.494	0	130.20	0	5.9870	0	33.3230	0	26.231	0	129.049	0	-1e10	8	-1e10	8	-1E+10	1	-1E+10	1	-1E+10	1	-1E+10	1	-1E+10	1	-1E+10	1
4902554	45	C	05/03/2022	05:58	-135.556	49.494	0	131.10	0	5.9870	0	33.3250	0	26.232	0	129.941	0	-1e10	8	-1e10	8	-1E+10	1	-1E+10	1	-1E+10	1	-1E+10	1	-1E+10	1	-1E+10	1
4902554	45	C	05/03/2022	05:58	-135.556	49.494	0	132.00	0	5.9900	0	33.3500	0	26.252	0	130.833	0	-1e10	8	-1e10	8	-1E+10	1	-1E+10	1	-1E+10	1	-1E+10	1	-1E+10	1	-1E+10	1
4902554	45	C	05/03/2022	05:58	-135.556	49.494	0	132.90	0	5.9940	0	33.3890	0	26.282	0	131.724	0	-1e10	8	-1e10	8	-1E+10	1	-1E+10	1	-1E+10	1	-1E+10	1	-1E+10	1	-1E+10	1
4902554	45	C	05/03/2022	05:58	-135.556	49.494	0	133.80	0	5.9970	0	33.4060	0	26.295	0	132.616	0	-1e10	8	-1e10	8	-1E+10	1	-1E+10	1	-1E+10	1	-1E+10	1	-1E+10	1	-1E+10	1
4902554	45	C	05/03/2022	05:58	-135.556	49.494	0	134.70	0	5.9970	0	33.4100	0	26.298	0	133.508	0	-1e10	8	-1e10	8	-1E+10	1	-1E+10	1	-1E+10	1	-1E+10	1	-1E+10	1	-1E+10	1
4902554	45	C	05/03/2022	05:58	-135.556	49.494	0	135.60	0	5.9940	0	33.4360	0	26.319	0	134.400	0	-1e10	8	-1e10	8	-1E+10	1	-1E+10	1	-1E+10	1	-1E+10	1	-1E+10	1	-1E+10	1
4902554	45	C	05/03/2022	05:58	-135.556	49.494	0	136.90	0	5.9780	0	33.4600	0	26.340	0	135.688	0	-1e10	8	-1e10	8	-1E+10	1	-1E+10	1	-1E+10	1	-1E+10	1	-1E+10	1	-1E+10	1
4902554	45	C	05/03/2022	05:58	-135.556	49.494	0	138.40	0	5.9730	0	33.4720	0	26.350	0	137.174	0	-1e10	8	-1e10	8	-1E+10	1	-1E+10	1	-1E+10	1	-1E+10	1	-1E+10	1	-1E+10	1
4902554	45	C	05/03/2022	05:58	-135.556	49.494	0	139.40	0	5.9730	0	33.4820	0	26.358	0	138.165	0	-1e10	8	-1e10	8	-1E+10	1	-1E+10	1	-1E+10	1	-1E+10	1	-1E+10	1	-1E+10	1
4902554	45	C	05/03/2022	05:58	-135.556	49.494	0	140.30	0	5.9630	0	33.4930	0	26.368	0	139.056	0	-1e10	8	-1e10	8	-1E+10	1	-1E+10	1	-1E+10	1	-1E+10	1	-1E+10	1	-1E+10	1
4902554	45	C	05/03/2022	05:58	-135.556	49.494	0	141.30	0	5.9490	0	33.5070	0	26.381	0	140.047	0	-1e10	8	-1e10	8	-1E+10	1	-1E+10	1	-1E+10	1	-1E+10	1	-1E+10	1	-1E+10	1
4902554	45	C	05/03/2022	05:58	-135.556	49.494	0	142.30	0	5.9460	0	33.5120	0	26.385	0	141.038	0	-1e10	8	-1e10	8	-1E+10	1	-1E+10	1	-1E+10	1	-1E+10	1	-1E+10	1	-1E+10	1
4902554	45	C	05/03/2022	05:58	-135.556	49.494	0	143.20	0	5.9470	0	33.5200	0	26.391	0	141.930	0	-1e10	8	-1e10	8	-1E+10	1	-1E+10	1	-1E+10	1	-1E+10	1	-1E+10	1	-1E+10	1
4902554	45	C	05/03/2022	05:58	-135.556	49.494	0	144.20	0	5.9400	0	33.5370	0	26.406	0	142.920	0	-1e10	8	-1e10	8	-1E+10	1	-1E+10	1	-1E+10	1	-1E+10	1	-1E+10	1	-1E+10	1
4902554	45	C	05/03/2022	05:58	-135.556	49.494	0	145.20	0	5.9490	0	33.5440	0	26.410	0	143.911	0	-1e10	8	-1e10	8	-1E+10	1	-1E+10	1	-1E+10	1	-1E+10	1	-1E+10	1	-1E+10	1
4902554	45	C	05/03/2022	05:58	-135.556	49.494	0	146.10	0	5.9330	0	33.5500	0	26.417	0	144.803	0	-1e10	8	-1e10	8	-1E+10	1	-1E+10	1	-1E+10	1	-1E+10	1	-1E+10	1	-1E+10	1
4902554	45	C	05/03/2022	05:58	-135.556	49.494	0	147.10	0	5.8880	0	33.5940	0	26.457	0	145.794	0	-1e10	8	-1e10	8	-1E+10	1	-1E+10	1	-1E+10	1	-1E+10	1	-1E+10	1	-1E+10	1
4902554	45	C	05/03/2022	05:58	-135.556	49.494	0	148.10	0	5.8600	0	33.6130	0	26.476	0	146.784	0	-1e10	8	-1e10	8	-1E+10	1	-1E+10	1	-1E+10	1	-1E+10	1	-1E+10	1	-1E+10	1
4902554	45	C	05/03/2022	05:58	-135.556	49.494	0	149.00	0	5.8560	0	33.6180	0	26.480	0	147.676	0	-1e10	8	-1e10	8	-1E+10	1	-1E+10	1	-1E+10	1	-1E+10	1	-1E+10	1	-1E+10	1
4902554	45	C	05/03/2022	05:58	-135.556	49.494	0	150.00	0	5.8550	0	33.6190	0	26.481	0	148.667	0	-1e10	8	-1e10	8	-1E+10	1	-1E+10	1	-1E+10	1	-1E+10	1	-1E+10	1	-1E+10	1
4902554	45	C	05/03/2022	05:58	-135.556	49.494	0	151.00	0	5.8550	0	33.6220	0	26.483	0	149.658	0	-1e10	8	-1e10	8	-1E+10	1	-1E+10	1	-1E+10	1	-1E+10	1	-1E+10	1	-1E+10	1
4902554	45	C	05/03/2022	05:58	-135.556	49.494	0	151.90	0	5.8450	0	33.6280	0	26.489	0	150.549	0	-1e10	8	-1e10	8	-1E+10	1	-1E+10	1	-1E+10	1	-1E+10	1	-1E+10	1	-1E+10	1
4902554	45	C	05/03/2022	05:58	-135.556	49.494	0	152.90	0	5.8070	0	33.6450	0	26.508	0	151.540	0	-1e10	8	-1e10	8	-1E+10	1	-1E+10	1	-1E+10	1	-1E+10	1	-1E+10	1	-1E+10	1
4902554	45	C	05/03/2022	05:58	-135.556	49.494	0	153.90	0	5.7990	0	33.6500	0	26.512	0	152.531	0	-1e10	8	-1e10	8	-1E+10	1	-1E+10	1	-1E+10	1	-1E+10	1	-1E+10	1	-1E+10	1
4902554	45	C	05/03/2022	05:58	-135.556	49.494	0	154.80	0	5.7910	0	33.6540	0	26.517	0	153.422	0	-1e10	8	-1e10	8	-1E+10	1	-1E+10	1	-1E+10	1	-1E+10	1	-1E+10	1	-1E+10	1
4902554	45	C	05/03/2022	05:58	-135.556	49.494	0	156.00	0	5.7620	0	33.6650	0	26.529	0	154.611	0	-1e10	8	-1e10	8	-1E+10	1	-1E+10	1	-1E+10	1	-1E+10	1	-1E+10	1	-1E+10	1
4902554	45	C	05/03/2022	05:58	-135.556	49.494	0	157.10	0	5.7330	0	33.6730	0	26.539	0	155.701	0	-1e10	8	-1e10	8	-1E+10	1	-1E+10	1	-1E+10	1	-1E+10	1	-1E+10	1	-1E+10	1
4902554	45	C	05/03/2022	05:58	-135.556	49.494	0	157.80	0	5.7330	0	33.6730	0	26.539	0	156.395	0	-1e10	8	-1e10	8	-1E+10	1	-1E+10	1	-1E+10	1	-1E+10	1	-1E+10	1	-1E+10	1
4902554	45	C	05/03/2022	05:58	-135.556	49.494	0	158.90	0	5.7360	0	33.6720	0	26.538	0	157.484	0	-1e10	8	-1e10	8	-1E+10	1	-1E+10	1	-1E+10	1	-1E+10	1	-1E+10	1	-1E+10	1
4902554	45	C	05/03/2022	05:58	-135.556	49.494	0	160.10	0	5.7320	0	33.6750	0	26.540	0	158.673	0	-1e10	8	-1e10	8	-1E+10	1	-1E+10	1	-1E+10	1	-1E+10	1	-1E+10	1	-1E+10	1
4902554	45	C	05/03/2022	05:58	-135.556	49.494	0	160.80	0	5.7130	0	33.6820	0	26.548	0	159.367	0	-1e10	8	-1e10	8	-1E+10	1	-1E+10	1	-1E+10	1	-1E+10	1	-1E+10	1	-1E+10	1
4902554	45	C	05/03/2022	05:58	-135.556	49.494	0	161.90	0	5.6910	0	33.6830	0	26.552	0	160.457	0	-1e10	8	-1e10	8	-1E+10	1	-1E+10	1	-1E+10	1	-1E+10	1	-1E+10	1	-1E+10	1
4902554	45	C	05/03/2022	05:58	-135.556	49.494	0	163.10	0	5.6600	0	33.6900	0	26.561	0	161.645	0	-1e10	8	-1e10	8	-1E+10	1	-1E+10	1	-1E+10	1	-1E+10	1	-1E+10	1	-1E+10	1
4902554	45	C	05/03/2022	05:58	-135.556	49.494	0	163.90	0	5.6460	0	33.6930	0	26.565	0	162.438	0	-1e10	8	-1e10	8	-1E+10	1	-1E+10	1	-1E+10	1	-1E+10	1	-1E+10	1	-1E+10	1
4902554	45	C	05/03/2022	05:58	-135.556	49.494	0	165.00	0	5.6030	0	33.6990	0	26.575	0	163.528	0	-1e10	8	-1e10	8	-1E+10	1	-1E+10	1	-1E+10	1	-1E+10	1	-1E+10	1	-1E+10	1
4902554	45	C	05/03/2022	05:58	-135.556	49.494	0	166.20	0	5.5800	0	33.7010	0	26.579	0	164.716	0	-1e10	8	-1e10	8	-1E+10	1	-1E+10	1	-1E+10	1	-1E+10	1	-1E+10	1	-1E+10	1
4902554	45	C	05/03/2022	05:58	-135.556	49.494	0	167.00	0	5.5590	0	33.7020	0	26.583	0	165.509	0	-1e10	8	-1e10	8	-1E+10	1	-1E+10	1	-1E+10	1	-1E+10	1	-1E+10	1	-1E+10	1
4902554	45	C	05/03/2022	05:58	-135.556	49.494	0	167.90	0	5.5320	0	33.7040	0	26.588	0	166.401	0	-1e10	8	-1e10	8	-1E+10	1	-1E+10	1	-1E+10	1	-1E+10	1	-1E+10	1	-1E+10	1
4902554	45	C	05/03/2022	05:58	-135.556	49.494	0	168.70	0	5.5290	0	33.7040	0	26.588	0	167.193	0	-1e10	8	-1e10	8	-1E+10	1	-1E+10	1	-1E+10	1	-1E+10	1	-1E+10	1	-1E+10	1
4902554	45	C	05/03/2022	05:58	-135.556	49.494	0	169.90	0	5.4960	0	33.7070	0	26.594	0	168.382	0	-1e10	8	-1e10	8	-1E+10	1	-1E+10	1	-1E+10	1	-1E+10	1	-1E+10	1	-1E+10	1
4902554	45	C	05/03/2022	05:58	-135.556	49.494	0	171.20	0	5.4680	0	33.7100	0	26.600	0	169.670	0	-1e10	8	-1e10	8	-1E+10	1	-1E+10	1	-1E+10	1	-1E+10	1	-1E+10	1	-1E+10	1
4902554	45	C	05/03/2022	05:58	-135.556	49.494	0	172.00	0	5.4610	0	33.7100	0	26.601	0	170.462	0	-1e10	8	-1e10	8	-1E+10	1	-1E+10	1	-1E+10	1	-1E+10	1	-1E+10	1	-1E+10	1
4902554	45	C	05/03/2022	05:58	-135.556	49.494	0	172.90	0	5.4580	0	33.7110	0	26.602	0	171.354	0	-1e10	8	-1e10	8	-1E+10	1	-1E+10	1	-1E+10	1	-1E+10	1	-1E+10	1	-1E+10	1
4902554	45	C	05/03/2022	05:58	-135.556	49.494	0	173.80	0	5.4380	0	33.7120	0	26.605	0	172.245	0	-1e10	8	-1e10	8	-1E+10	1	-1E+10	1	-1E+10	1	-1E+10	1	-1E+10	1	-1E+10	1
4902554	45	C	05/03/2022	05:58	-135.556	49.494	0	174.60	0	5.3990	0	33.7190	0	26.615	0	173.038	0	-1e10	8	-1e10	8	-1E+10	1	-1E+10	1	-1E+10	1	-1E+10	1	-1E+10	1	-1E+10	1
4902554	45	C	05/03/2022	05:58	-135.556	49.494	0	175.90	0	5.3640	0	33.7220	0	26.622	0	174.326	0	-1e10	8	-1e10	8	-1E+10	1	-1E+10	1	-1E+10	1	-1E+10	1	-1E+10	1	-1E+10	1
4902554	45	C	05/03/2022	05:58	-135.556	49.494	0	177.30	0	5.3510	0	33.7240	0	26.625	0	175.713	0	-1e10	8	-1e10	8	-1E+10	1	-1E+10	1	-1E+10	1	-1E+10	1	-1E+10	1	-1E+10	1
4902554	45	C	05/03/2022	05:58	-135.556	49.494	0	178.20	0	5.3440	0	33.7260	0	26.627	0	176.604	0	-1e10	8	-1e10	8	-1E+10	1	-1E+10	1	-1E+10	1	-1E+10	1	-1E+10	1	-1E+10	1
4902554	45	C	05/03/2022	05:58	-135.556	49.494	0	179.10	0	5.3410	0	33.7260	0	26.628	0	177.496	0	-1e10	8	-1e10	8	-1E+10	1	-1E+10	1	-1E+10	1	-1E+10	1	-1E+10	1	-1E+10	1
4902554	45	C	05/03/2022	05:58	-135.556	49.494	0	180.00	0	5.3380	0	33.7250	0	26.627	0	178.387	0	-1e10	8	-1e10	8	-1E+10	1	-1E+10	1	-1E+10	1	-1E+10	1	-1E+10	1	-1E+10	1
4902554	45	C	05/03/2022	05:58	-135.556	49.494	0	180.90	0	5.3130	0	33.7280	0	26.633	0	179.279	0	-1e10	8	-1e10	8	-1E+10	1	-1E+10	1	-1E+10	1	-1E+10	1	-1E+10	1	-1E+10	1
4902554	45	C	05/03/2022	05:58	-135.556	49.494	0	181.80	0	5.3040	0	33.7290	0	26.634	0	180.170	0	-1e10	8	-1e10	8	-1E+10	1	-1E+10	1	-1E+10	1	-1E+10	1	-1E+10	1	-1E+10	1
4902554	45	C	05/03/2022	05:58	-135.556	49.494	0	182.70	0	5.3000	0	33.7280	0	26.634	0	181.062	0	-1e10	8	-1e10	8	-1E+10	1	-1E+10	1	-1E+10	1	-1E+10	1	-1E+10	1	-1E+10	1
4902554	45	C	05/03/2022	05:58	-135.556	49.494	0	183.60	0	5.2900	0	33.7290	0	26.636	0	181.954	0	-1e10	8	-1e10	8	-1E+10	1	-1E+10	1	-1E+10	1	-1E+10	1	-1E+10	1	-1E+10	1
4902554	45	C	05/03/2022	05:58	-135.556	49.494	0	184.90	0	5.2810	0	33.7290	0	26.637	0	183.241	0	-1e10	8	-1e10	8	-1E+10	1	-1E+10	1	-1E+10	1	-1E+10	1	-1E+10	1	-1E+10	1
4902554	45	C	05/03/2022	05:58	-135.556	49.494	0	186.30	0	5.2690	0	33.7310	0	26.640	0	184.628	0	-1e10	8	-1e10	8	-1E+10	1	-1E+10	1	-1E+10	1	-1E+10	1	-1E+10	1	-1E+10	1
4902554	45	C	05/03/2022	05:58	-135.556	49.494	0	187.20	0	5.2490	0	33.7320	0	26.643	0	185.520	0	-1e10	8	-1e10	8	-1E+10	1	-1E+10	1	-1E+10	1	-1E+10	1	-1E+10	1	-1E+10	1
4902554	45	C	05/03/2022	05:58	-135.556	49.494	0	188.10	0	5.2210	0	33.7360	0	26.650	0	186.411	0	-1e10	8	-1e10	8	-1E+10	1	-1E+10	1	-1E+10	1	-1E+10	1	-1E+10	1	-1E+10	1
4902554	45	C	05/03/2022	05:58	-135.556	49.494	0	189.00	0	5.2100	0	33.7370	0	26.652	0	187.303	0	-1e10	8	-1e10	8	-1E+10	1	-1E+10	1	-1E+10	1	-1E+10	1	-1E+10	1	-1E+10	1
4902554	45	C	05/03/2022	05:58	-135.556	49.494	0	189.90	0	5.1980	0	33.7390	0	26.655	0	188.194	0	-1e10	8	-1e10	8	-1E+10	1	-1E+10	1	-1E+10	1	-1E+10	1	-1E+10	1	-1E+10	1
4902554	45	C	05/03/2022	05:58	-135.556	49.494	0	190.80	0	5.1950	0	33.7390	0	26.655	0	189.086	0	-1e10	8	-1e10	8	-1E+10	1	-1E+10	1	-1E+10	1	-1E+10	1	-1E+10	1	-1E+10	1
4902554	45	C	05/03/2022	05:58	-135.556	49.494	0	191.70	0	5.1920	0	33.7400	0	26.656	0	189.977	0	-1e10	8	-1e10	8	-1E+10	1	-1E+10	1	-1E+10	1	-1E+10	1	-1E+10	1	-1E+10	1
4902554	45	C	05/03/2022	05:58	-135.556	49.494	0	192.60	0	5.1860	0	33.7410	0	26.658	0	190.869	0	-1e10	8	-1e10	8	-1E+10	1	-1E+10	1	-1E+10	1	-1E+10	1	-1E+10	1	-1E+10	1
4902554	45	C	05/03/2022	05:58	-135.556	49.494	0	193.90	0	5.1760	0	33.7420	0	26.660	0	192.156	0	-1e10	8	-1e10	8	-1E+10	1	-1E+10	1	-1E+10	1	-1E+10	1	-1E+10	1	-1E+10	1
4902554	45	C	05/03/2022	05:58	-135.556	49.494	0	195.20	0	5.1730	0	33.7430	0	26.661	0	193.444	0	-1e10	8	-1e10	8	-1E+10	1	-1E+10	1	-1E+10	1	-1E+10	1	-1E+10	1	-1E+10	1
4902554	45	C	05/03/2022	05:58	-135.556	49.494	0	196.10	0	5.1690	0	33.7440	0	26.662	0	194.336	0	-1e10	8	-1e10	8	-1E+10	1	-1E+10	1	-1E+10	1	-1E+10	1	-1E+10	1	-1E+10	1
4902554	45	C	05/03/2022	05:58	-135.556	49.494	0	196.90	0	5.1560	0	33.7480	0	26.667	0	195.128	0	-1e10	8	-1e10	8	-1E+10	1	-1E+10	1	-1E+10	1	-1E+10	1	-1E+10	1	-1E+10	1
4902554	45	C	05/03/2022	05:58	-135.556	49.494	0	197.80	0	5.1520	0	33.7490	0	26.668	0	196.019	0	-1e10	8	-1e10	8	-1E+10	1	-1E+10	1	-1E+10	1	-1E+10	1	-1E+10	1	-1E+10	1
4902554	45	C	05/03/2022	05:58	-135.556	49.494	0	198.60	0	5.1500	0	33.7490	0	26.668	0	196.812	0	-1e10	8	-1e10	8	-1E+10	1	-1E+10	1	-1E+10	1	-1E+10	1	-1E+10	1	-1E+10	1
4902554	45	C	05/03/2022	05:58	-135.556	49.494	0	199.90	0	5.1400	0	33.7520	0	26.672	0	198.100	0	-1e10	8	-1e10	8	-1E+10	1	-1E+10	1	-1E+10	1	-1E+10	1	-1E+10	1	-1E+10	1
4902554	45	C	05/03/2022	05:58	-135.556	49.494	0	201.30	0	5.1320	0	33.7530	0	26.673	0	199.486	0	-1e10	8	-1e10	8	-1E+10	1	-1E+10	1	-1E+10	1	-1E+10	1	-1E+10	1	-1E+10	1
4902554	45	C	05/03/2022	05:58	-135.556	49.494	0	202.20	0	5.1320	0	33.7530	0	26.673	0	200.378	0	-1e10	8	-1e10	8	-1E+10	1	-1E+10	1	-1E+10	1	-1E+10	1	-1E+10	1	-1E+10	1
4902554	45	C	05/03/2022	05:58	-135.556	49.494	0	203.00	0	5.1300	0	33.7540	0	26.675	0	201.170	0	-1e10	8	-1e10	8	-1E+10	1	-1E+10	1	-1E+10	1	-1E+10	1	-1E+10	1	-1E+10	1
4902554	45	C	05/03/2022	05:58	-135.556	49.494	0	203.90	0	5.1250	0	33.7550	0	26.676	0	202.062	0	-1e10	8	-1e10	8	-1E+10	1	-1E+10	1	-1E+10	1	-1E+10	1	-1E+10	1	-1E+10	1
4902554	45	C	05/03/2022	05:58	-135.556	49.494	0	204.80	0	5.1210	0	33.7560	0	26.677	0	202.953	0	-1e10	8	-1e10	8	-1E+10	1	-1E+10	1	-1E+10	1	-1E+10	1	-1E+10	1	-1E+10	1
4902554	45	C	05/03/2022	05:58	-135.556	49.494	0	205.70	0	5.1190	0	33.7560	0	26.677	0	203.844	0	-1e10	8	-1e10	8	-1E+10	1	-1E+10	1	-1E+10	1	-1E+10	1	-1E+10	1	-1E+10	1
4902554	45	C	05/03/2022	05:58	-135.556	49.494	0	206.90	0	5.1140	0	33.7570	0	26.679	0	205.033	0	-1e10	8	-1e10	8	-1E+10	1	-1E+10	1	-1E+10	1	-1E+10	1	-1E+10	1	-1E+10	1
4902554	45	C	05/03/2022	05:58	-135.556	49.494	0	208.30	0	5.1000	0	33.7580	0	26.681	0	206.420	0	-1e10	8	-1e10	8	-1E+10	1	-1E+10	1	-1E+10	1	-1E+10	1	-1E+10	1	-1E+10	1
4902554	45	C	05/03/2022	05:58	-135.556	49.494	0	209.20	0	5.0980	0	33.7580	0	26.681	0	207.311	0	-1e10	8	-1e10	8	-1E+10	1	-1E+10	1	-1E+10	1	-1E+10	1	-1E+10	1	-1E+10	1
4902554	45	C	05/03/2022	05:58	-135.556	49.494	0	210.00	0	5.0890	0	33.7600	0	26.684	0	208.103	0	-1e10	8	-1e10	8	-1E+10	1	-1E+10	1	-1E+10	1	-1E+10	1	-1E+10	1	-1E+10	1
4902554	45	C	05/03/2022	05:58	-135.556	49.494	0	210.90	0	5.0700	0	33.7630	0	26.689	0	208.995	0	-1e10	8	-1e10	8	-1E+10	1	-1E+10	1	-1E+10	1	-1E+10	1	-1E+10	1	-1E+10	1
4902554	45	C	05/03/2022	05:58	-135.556	49.494	0	211.80	0	5.0640	0	33.7640	0	26.690	0	209.886	0	-1e10	8	-1e10	8	-1E+10	1	-1E+10	1	-1E+10	1	-1E+10	1	-1E+10	1	-1E+10	1
4902554	45	C	05/03/2022	05:58	-135.556	49.494	0	212.70	0	5.0490	0	33.7680	0	26.695	0	210.778	0	-1e10	8	-1e10	8	-1E+10	1	-1E+10	1	-1E+10	1	-1E+10	1	-1E+10	1	-1E+10	1
4902554	45	C	05/03/2022	05:58	-135.556	49.494	0	213.60	0	5.0340	0	33.7700	0	26.698	0	211.669	0	-1e10	8	-1e10	8	-1E+10	1	-1E+10	1	-1E+10	1	-1E+10	1	-1E+10	1	-1E+10	1
4902554	45	C	05/03/2022	05:58	-135.556	49.494	0	214.90	0	5.0250	0	33.7710	0	26.700	0	212.957	0	-1e10	8	-1e10	8	-1E+10	1	-1E+10	1	-1E+10	1	-1E+10	1	-1E+10	1	-1E+10	1
4902554	45	C	05/03/2022	05:58	-135.556	49.494	0	216.30	0	5.0180	0	33.7720	0	26.702	0	214.343	0	-1e10	8	-1e10	8	-1E+10	1	-1E+10	1	-1E+10	1	-1E+10	1	-1E+10	1	-1E+10	1
4902554	45	C	05/03/2022	05:58	-135.556	49.494	0	217.20	0	5.0170	0	33.7720	0	26.702	0	215.235	0	-1e10	8	-1e10	8	-1E+10	1	-1E+10	1	-1E+10	1	-1E+10	1	-1E+10	1	-1E+10	1
4902554	45	C	05/03/2022	05:58	-135.556	49.494	0	218.20	0	5.0150	0	33.7730	0	26.703	0	216.225	0	-1e10	8	-1e10	8	-1E+10	1	-1E+10	1	-1E+10	1	-1E+10	1	-1E+10	1	-1E+10	1
4902554	45	C	05/03/2022	05:58	-135.556	49.494	0	219.10	0	5.0110	0	33.7740	0	26.704	0	217.117	0	-1e10	8	-1e10	8	-1E+10	1	-1E+10	1	-1E+10	1	-1E+10	1	-1E+10	1	-1E+10	1
4902554	45	C	05/03/2022	05:58	-135.556	49.494	0	220.00	0	5.0080	0	33.7730	0	26.704	0	218.008	0	-1e10	8	-1e10	8	-1E+10	1	-1E+10	1	-1E+10	1	-1E+10	1	-1E+10	1	-1E+10	1
4902554	45	C	05/03/2022	05:58	-135.556	49.494	0	221.00	0	5.0070	0	33.7740	0	26.705	0	218.998	0	-1e10	8	-1e10	8	-1E+10	1	-1E+10	1	-1E+10	1	-1E+10	1	-1E+10	1	-1E+10	1
4902554	45	C	05/03/2022	05:58	-135.556	49.494	0	221.90	0	5.0050	0	33.7740	0	26.705	0	219.890	0	-1e10	8	-1e10	8	-1E+10	1	-1E+10	1	-1E+10	1	-1E+10	1	-1E+10	1	-1E+10	1
4902554	45	C	05/03/2022	05:58	-135.556	49.494	0	222.80	0	5.0020	0	33.7740	0	26.705	0	220.781	0	-1e10	8	-1e10	8	-1E+10	1	-1E+10	1	-1E+10	1	-1E+10	1	-1E+10	1	-1E+10	1
4902554	45	C	05/03/2022	05:58	-135.556	49.494	0	223.80	0	4.9980	0	33.7750	0	26.706	0	221.771	0	-1e10	8	-1e10	8	-1E+10	1	-1E+10	1	-1E+10	1	-1E+10	1	-1E+10	1	-1E+10	1
4902554	45	C	05/03/2022	05:58	-135.556	49.494	0	224.70	0	4.9920	0	33.7750	0	26.707	0	222.663	0	-1e10	8	-1e10	8	-1E+10	1	-1E+10	1	-1E+10	1	-1E+10	1	-1E+10	1	-1E+10	1
4902554	45	C	05/03/2022	05:58	-135.556	49.494	0	225.70	0	4.9830	0	33.7770	0	26.710	0	223.653	0	-1e10	8	-1e10	8	-1E+10	1	-1E+10	1	-1E+10	1	-1E+10	1	-1E+10	1	-1E+10	1
4902554	45	C	05/03/2022	05:58	-135.556	49.494	0	226.60	0	4.9700	0	33.7810	0	26.714	0	224.545	0	-1e10	8	-1e10	8	-1E+10	1	-1E+10	1	-1E+10	1	-1E+10	1	-1E+10	1	-1E+10	1
4902554	45	C	05/03/2022	05:58	-135.556	49.494	0	227.60	0	4.9570	0	33.7820	0	26.717	0	225.535	0	-1e10	8	-1e10	8	-1E+10	1	-1E+10	1	-1E+10	1	-1E+10	1	-1E+10	1	-1E+10	1
4902554	45	C	05/03/2022	05:58	-135.556	49.494	0	228.60	0	4.9400	0	33.7850	0	26.721	0	226.525	0	-1e10	8	-1e10	8	-1E+10	1	-1E+10	1	-1E+10	1	-1E+10	1	-1E+10	1	-1E+10	1
4902554	45	C	05/03/2022	05:58	-135.556	49.494	0	229.60	0	4.9350	0	33.7840	0	26.721	0	227.516	0	-1e10	8	-1e10	8	-1E+10	1	-1E+10	1	-1E+10	1	-1E+10	1	-1E+10	1	-1E+10	1
4902554	45	C	05/03/2022	05:58	-135.556	49.494	0	230.50	0	4.9330	0	33.7850	0	26.722	0	228.407	0	-1e10	8	-1e10	8	-1E+10	1	-1E+10	1	-1E+10	1	-1E+10	1	-1E+10	1	-1E+10	1
4902554	45	C	05/03/2022	05:58	-135.556	49.494	0	231.60	0	4.9170	0	33.7890	0	26.727	0	229.496	0	-1e10	8	-1e10	8	-1E+10	1	-1E+10	1	-1E+10	1	-1E+10	1	-1E+10	1	-1E+10	1
4902554	45	C	05/03/2022	05:58	-135.556	49.494	0	232.60	0	4.9150	0	33.7890	0	26.727	0	230.487	0	-1e10	8	-1e10	8	-1E+10	1	-1E+10	1	-1E+10	1	-1E+10	1	-1E+10	1	-1E+10	1
4902554	45	C	05/03/2022	05:58	-135.556	49.494	0	233.50	0	4.9080	0	33.7930	0	26.731	0	231.378	0	-1e10	8	-1e10	8	-1E+10	1	-1E+10	1	-1E+10	1	-1E+10	1	-1E+10	1	-1E+10	1
4902554	45	C	05/03/2022	05:58	-135.556	49.494	0	234.60	0	4.9050	0	33.7930	0	26.731	0	232.467	0	-1e10	8	-1e10	8	-1E+10	1	-1E+10	1	-1E+10	1	-1E+10	1	-1E+10	1	-1E+10	1
4902554	45	C	05/03/2022	05:58	-135.556	49.494	0	235.60	0	4.9040	0	33.7930	0	26.731	0	233.458	0	-1e10	8	-1e10	8	-1E+10	1	-1E+10	1	-1E+10	1	-1E+10	1	-1E+10	1	-1E+10	1
4902554	45	C	05/03/2022	05:58	-135.556	49.494	0	236.60	0	4.8930	0	33.7960	0	26.735	0	234.448	0	-1e10	8	-1e10	8	-1E+10	1	-1E+10	1	-1E+10	1	-1E+10	1	-1E+10	1	-1E+10	1
4902554	45	C	05/03/2022	05:58	-135.556	49.494	0	237.60	0	4.8730	0	33.7980	0	26.739	0	235.439	0	-1e10	8	-1e10	8	-1E+10	1	-1E+10	1	-1E+10	1	-1E+10	1	-1E+10	1	-1E+10	1
4902554	45	C	05/03/2022	05:58	-135.556	49.494	0	238.60	0	4.8500	0	33.8030	0	26.745	0	236.429	0	-1e10	8	-1e10	8	-1E+10	1	-1E+10	1	-1E+10	1	-1E+10	1	-1E+10	1	-1E+10	1
4902554	45	C	05/03/2022	05:58	-135.556	49.494	0	239.60	0	4.8420	0	33.8040	0	26.747	0	237.419	0	-1e10	8	-1e10	8	-1E+10	1	-1E+10	1	-1E+10	1	-1E+10	1	-1E+10	1	-1E+10	1
4902554	45	C	05/03/2022	05:58	-135.556	49.494	0	240.60	0	4.8380	0	33.8050	0	26.748	0	238.410	0	-1e10	8	-1e10	8	-1E+10	1	-1E+10	1	-1E+10	1	-1E+10	1	-1E+10	1	-1E+10	1
4902554	45	C	05/03/2022	05:58	-135.556	49.494	0	241.60	0	4.8340	0	33.8050	0	26.749	0	239.400	0	-1e10	8	-1e10	8	-1E+10	1	-1E+10	1	-1E+10	1	-1E+10	1	-1E+10	1	-1E+10	1
4902554	45	C	05/03/2022	05:58	-135.556	49.494	0	242.60	0	4.8310	0	33.8060	0	26.750	0	240.390	0	-1e10	8	-1e10	8	-1E+10	1	-1E+10	1	-1E+10	1	-1E+10	1	-1E+10	1	-1E+10	1
4902554	45	C	05/03/2022	05:58	-135.556	49.494	0	243.60	0	4.8260	0	33.8070	0	26.751	0	241.380	0	-1e10	8	-1e10	8	-1E+10	1	-1E+10	1	-1E+10	1	-1E+10	1	-1E+10	1	-1E+10	1
4902554	45	C	05/03/2022	05:58	-135.556	49.494	0	244.60	0	4.8230	0	33.8070	0	26.752	0	242.371	0	-1e10	8	-1e10	8	-1E+10	1	-1E+10	1	-1E+10	1	-1E+10	1	-1E+10	1	-1E+10	1
4902554	45	C	05/03/2022	05:58	-135.556	49.494	0	245.60	0	4.8180	0	33.8080	0	26.753	0	243.361	0	-1e10	8	-1e10	8	-1E+10	1	-1E+10	1	-1E+10	1	-1E+10	1	-1E+10	1	-1E+10	1
4902554	45	C	05/03/2022	05:58	-135.556	49.494	0	246.60	0	4.8160	0	33.8090	0	26.754	0	244.351	0	-1e10	8	-1e10	8	-1E+10	1	-1E+10	1	-1E+10	1	-1E+10	1	-1E+10	1	-1E+10	1
4902554	45	C	05/03/2022	05:58	-135.556	49.494	0	247.50	0	4.8140	0	33.8080	0	26.753	0	245.243	0	-1e10	8	-1e10	8	-1E+10	1	-1E+10	1	-1E+10	1	-1E+10	1	-1E+10	1	-1E+10	1
4902554	45	C	05/03/2022	05:58	-135.556	49.494	0	248.50	0	4.8090	0	33.8100	0	26.756	0	246.233	0	-1e10	8	-1e10	8	-1E+10	1	-1E+10	1	-1E+10	1	-1E+10	1	-1E+10	1	-1E+10	1
4902554	45	C	05/03/2022	05:58	-135.556	49.494	0	249.50	0	4.8010	0	33.8110	0	26.757	0	247.223	0	-1e10	8	-1e10	8	-1E+10	1	-1E+10	1	-1E+10	1	-1E+10	1	-1E+10	1	-1E+10	1
4902554	45	C	05/03/2022	05:58	-135.556	49.494	0	250.50	0	4.7960	0	33.8120	0	26.759	0	248.213	0	-1e10	8	-1e10	8	-1E+10	1	-1E+10	1	-1E+10	1	-1E+10	1	-1E+10	1	-1E+10	1
4902554	45	C	05/03/2022	05:58	-135.556	49.494	0	251.50	0	4.7920	0	33.8130	0	26.760	0	249.204	0	-1e10	8	-1e10	8	-1E+10	1	-1E+10	1	-1E+10	1	-1E+10	1	-1E+10	1	-1E+10	1
4902554	45	C	05/03/2022	05:58	-135.556	49.494	0	252.50	0	4.7880	0	33.8130	0	26.760	0	250.194	0	-1e10	8	-1e10	8	-1E+10	1	-1E+10	1	-1E+10	1	-1E+10	1	-1E+10	1	-1E+10	1
4902554	45	C	05/03/2022	05:58	-135.556	49.494	0	253.50	0	4.7820	0	33.8140	0	26.762	0	251.184	0	-1e10	8	-1e10	8	-1E+10	1	-1E+10	1	-1E+10	1	-1E+10	1	-1E+10	1	-1E+10	1
4902554	45	C	05/03/2022	05:58	-135.556	49.494	0	254.50	0	4.7740	0	33.8160	0	26.764	0	252.174	0	-1e10	8	-1e10	8	-1E+10	1	-1E+10	1	-1E+10	1	-1E+10	1	-1E+10	1	-1E+10	1
4902554	45	C	05/03/2022	05:58	-135.556	49.494	0	255.50	0	4.7580	0	33.8200	0	26.769	0	253.165	0	-1e10	8	-1e10	8	-1E+10	1	-1E+10	1	-1E+10	1	-1E+10	1	-1E+10	1	-1E+10	1
4902554	45	C	05/03/2022	05:58	-135.556	49.494	0	256.50	0	4.7500	0	33.8210	0	26.771	0	254.155	0	-1e10	8	-1e10	8	-1E+10	1	-1E+10	1	-1E+10	1	-1E+10	1	-1E+10	1	-1E+10	1
4902554	45	C	05/03/2022	05:58	-135.556	49.494	0	257.50	0	4.7460	0	33.8210	0	26.771	0	255.145	0	-1e10	8	-1e10	8	-1E+10	1	-1E+10	1	-1E+10	1	-1E+10	1	-1E+10	1	-1E+10	1
4902554	45	C	05/03/2022	05:58	-135.556	49.494	0	258.50	0	4.7400	0	33.8230	0	26.774	0	256.135	0	-1e10	8	-1e10	8	-1E+10	1	-1E+10	1	-1E+10	1	-1E+10	1	-1E+10	1	-1E+10	1
4902554	45	C	05/03/2022	05:58	-135.556	49.494	0	259.50	0	4.7350	0	33.8240	0	26.775	0	257.126	0	-1e10	8	-1e10	8	-1E+10	1	-1E+10	1	-1E+10	1	-1E+10	1	-1E+10	1	-1E+10	1
4902554	45	C	05/03/2022	05:58	-135.556	49.494	0	260.90	0	4.7310	0	33.8240	0	26.775	0	258.512	0	-1e10	8	-1e10	8	-1E+10	1	-1E+10	1	-1E+10	1	-1E+10	1	-1E+10	1	-1E+10	1
4902554	45	C	05/03/2022	05:58	-135.556	49.494	0	262.40	0	4.7240	0	33.8250	0	26.777	0	259.997	0	-1e10	8	-1e10	8	-1E+10	1	-1E+10	1	-1E+10	1	-1E+10	1	-1E+10	1	-1E+10	1
4902554	45	C	05/03/2022	05:58	-135.556	49.494	0	263.40	0	4.7130	0	33.8270	0	26.780	0	260.988	0	-1e10	8	-1e10	8	-1E+10	1	-1E+10	1	-1E+10	1	-1E+10	1	-1E+10	1	-1E+10	1
4902554	45	C	05/03/2022	05:58	-135.556	49.494	0	264.40	0	4.6910	0	33.8310	0	26.785	0	261.978	0	-1e10	8	-1e10	8	-1E+10	1	-1E+10	1	-1E+10	1	-1E+10	1	-1E+10	1	-1E+10	1
4902554	45	C	05/03/2022	05:58	-135.556	49.494	0	265.40	0	4.6670	0	33.8350	0	26.791	0	262.968	0	-1e10	8	-1e10	8	-1E+10	1	-1E+10	1	-1E+10	1	-1E+10	1	-1E+10	1	-1E+10	1
4902554	45	C	05/03/2022	05:58	-135.556	49.494	0	266.30	0	4.6540	0	33.8360	0	26.793	0	263.859	0	-1e10	8	-1e10	8	-1E+10	1	-1E+10	1	-1E+10	1	-1E+10	1	-1E+10	1	-1E+10	1
4902554	45	C	05/03/2022	05:58	-135.556	49.494	0	267.30	0	4.6520	0	33.8360	0	26.794	0	264.849	0	-1e10	8	-1e10	8	-1E+10	1	-1E+10	1	-1E+10	1	-1E+10	1	-1E+10	1	-1E+10	1
4902554	45	C	05/03/2022	05:58	-135.556	49.494	0	268.20	0	4.6450	0	33.8380	0	26.796	0	265.741	0	-1e10	8	-1e10	8	-1E+10	1	-1E+10	1	-1E+10	1	-1E+10	1	-1E+10	1	-1E+10	1
4902554	45	C	05/03/2022	05:58	-135.556	49.494	0	269.20	0	4.6340	0	33.8400	0	26.799	0	266.731	0	-1e10	8	-1e10	8	-1E+10	1	-1E+10	1	-1E+10	1	-1E+10	1	-1E+10	1	-1E+10	1
4902554	45	C	05/03/2022	05:58	-135.556	49.494	0	270.20	0	4.6200	0	33.8410	0	26.801	0	267.721	0	-1e10	8	-1e10	8	-1E+10	1	-1E+10	1	-1E+10	1	-1E+10	1	-1E+10	1	-1E+10	1
4902554	45	C	05/03/2022	05:58	-135.556	49.494	0	271.20	0	4.6190	0	33.8420	0	26.802	0	268.711	0	-1e10	8	-1e10	8	-1E+10	1	-1E+10	1	-1E+10	1	-1E+10	1	-1E+10	1	-1E+10	1
4902554	45	C	05/03/2022	05:58	-135.556	49.494	0	272.20	0	4.6190	0	33.8430	0	26.803	0	269.701	0	-1e10	8	-1e10	8	-1E+10	1	-1E+10	1	-1E+10	1	-1E+10	1	-1E+10	1	-1E+10	1
4902554	45	C	05/03/2022	05:58	-135.556	49.494	0	273.20	0	4.6190	0	33.8430	0	26.803	0	270.691	0	-1e10	8	-1e10	8	-1E+10	1	-1E+10	1	-1E+10	1	-1E+10	1	-1E+10	1	-1E+10	1
4902554	45	C	05/03/2022	05:58	-135.556	49.494	0	274.20	0	4.6210	0	33.8440	0	26.803	0	271.682	0	-1e10	8	-1e10	8	-1E+10	1	-1E+10	1	-1E+10	1	-1E+10	1	-1E+10	1	-1E+10	1
4902554	45	C	05/03/2022	05:58	-135.556	49.494	0	275.10	0	4.6150	0	33.8460	0	26.806	0	272.573	0	-1e10	8	-1e10	8	-1E+10	1	-1E+10	1	-1E+10	1	-1E+10	1	-1E+10	1	-1E+10	1
4902554	45	C	05/03/2022	05:58	-135.556	49.494	0	276.10	0	4.6100	0	33.8480	0	26.808	0	273.563	0	-1e10	8	-1e10	8	-1E+10	1	-1E+10	1	-1E+10	1	-1E+10	1	-1E+10	1	-1E+10	1
4902554	45	C	05/03/2022	05:58	-135.556	49.494	0	277.10	0	4.6090	0	33.8490	0	26.809	0	274.553	0	-1e10	8	-1e10	8	-1E+10	1	-1E+10	1	-1E+10	1	-1E+10	1	-1E+10	1	-1E+10	1
4902554	45	C	05/03/2022	05:58	-135.556	49.494	0	278.00	0	4.6080	0	33.8490	0	26.809	0	275.444	0	-1e10	8	-1e10	8	-1E+10	1	-1E+10	1	-1E+10	1	-1E+10	1	-1E+10	1	-1E+10	1
4902554	45	C	05/03/2022	05:58	-135.556	49.494	0	279.00	0	4.6020	0	33.8520	0	26.812	0	276.434	0	-1e10	8	-1e10	8	-1E+10	1	-1E+10	1	-1E+10	1	-1E+10	1	-1E+10	1	-1E+10	1
4902554	45	C	05/03/2022	05:58	-135.556	49.494	0	280.00	0	4.6000	0	33.8500	0	26.810	0	277.424	0	-1e10	8	-1e10	8	-1E+10	1	-1E+10	1	-1E+10	1	-1E+10	1	-1E+10	1	-1E+10	1
4902554	45	C	05/03/2022	05:58	-135.556	49.494	0	281.10	0	4.6010	0	33.8510	0	26.811	0	278.514	0	-1e10	8	-1e10	8	-1E+10	1	-1E+10	1	-1E+10	1	-1E+10	1	-1E+10	1	-1E+10	1
4902554	45	C	05/03/2022	05:58	-135.556	49.494	0	282.10	0	4.6020	0	33.8500	0	26.810	0	279.504	0	-1e10	8	-1e10	8	-1E+10	1	-1E+10	1	-1E+10	1	-1E+10	1	-1E+10	1	-1E+10	1
4902554	45	C	05/03/2022	05:58	-135.556	49.494	0	283.10	0	4.6030	0	33.8490	0	26.809	0	280.494	0	-1e10	8	-1e10	8	-1E+10	1	-1E+10	1	-1E+10	1	-1E+10	1	-1E+10	1	-1E+10	1
4902554	45	C	05/03/2022	05:58	-135.556	49.494	0	284.10	0	4.6050	0	33.8490	0	26.809	0	281.484	0	-1e10	8	-1e10	8	-1E+10	1	-1E+10	1	-1E+10	1	-1E+10	1	-1E+10	1	-1E+10	1
4902554	45	C	05/03/2022	05:58	-135.556	49.494	0	285.10	0	4.5990	0	33.8490	0	26.810	0	282.474	0	-1e10	8	-1e10	8	-1E+10	1	-1E+10	1	-1E+10	1	-1E+10	1	-1E+10	1	-1E+10	1
4902554	45	C	05/03/2022	05:58	-135.556	49.494	0	286.10	0	4.5840	0	33.8590	0	26.819	0	283.464	0	-1e10	8	-1e10	8	-1E+10	1	-1E+10	1	-1E+10	1	-1E+10	1	-1E+10	1	-1E+10	1
4902554	45	C	05/03/2022	05:58	-135.556	49.494	0	287.20	0	4.5680	0	33.8590	0	26.821	0	284.553	0	-1e10	8	-1e10	8	-1E+10	1	-1E+10	1	-1E+10	1	-1E+10	1	-1E+10	1	-1E+10	1
4902554	45	C	05/03/2022	05:58	-135.556	49.494	0	288.20	0	4.5630	0	33.8610	0	26.823	0	285.543	0	-1e10	8	-1e10	8	-1E+10	1	-1E+10	1	-1E+10	1	-1E+10	1	-1E+10	1	-1E+10	1
4902554	45	C	05/03/2022	05:58	-135.556	49.494	0	289.20	0	4.5480	0	33.8610	0	26.825	0	286.533	0	-1e10	8	-1e10	8	-1E+10	1	-1E+10	1	-1E+10	1	-1E+10	1	-1E+10	1	-1E+10	1
4902554	45	C	05/03/2022	05:58	-135.556	49.494	0	290.20	0	4.5490	0	33.8610	0	26.825	0	287.523	0	-1e10	8	-1e10	8	-1E+10	1	-1E+10	1	-1E+10	1	-1E+10	1	-1E+10	1	-1E+10	1
4902554	45	C	05/03/2022	05:58	-135.556	49.494	0	291.20	0	4.5490	0	33.8610	0	26.825	0	288.514	0	-1e10	8	-1e10	8	-1E+10	1	-1E+10	1	-1E+10	1	-1E+10	1	-1E+10	1	-1E+10	1
4902554	45	C	05/03/2022	05:58	-135.556	49.494	0	292.20	0	4.5450	0	33.8610	0	26.825	0	289.504	0	-1e10	8	-1e10	8	-1E+10	1	-1E+10	1	-1E+10	1	-1E+10	1	-1E+10	1	-1E+10	1
4902554	45	C	05/03/2022	05:58	-135.556	49.494	0	293.20	0	4.5400	0	33.8640	0	26.828	0	290.494	0	-1e10	8	-1e10	8	-1E+10	1	-1E+10	1	-1E+10	1	-1E+10	1	-1E+10	1	-1E+10	1
4902554	45	C	05/03/2022	05:58	-135.556	49.494	0	294.20	0	4.5350	0	33.8620	0	26.827	0	291.484	0	-1e10	8	-1e10	8	-1E+10	1	-1E+10	1	-1E+10	1	-1E+10	1	-1E+10	1	-1E+10	1
4902554	45	C	05/03/2022	05:58	-135.556	49.494	0	295.20	0	4.5350	0	33.8620	0	26.827	0	292.474	0	-1e10	8	-1e10	8	-1E+10	1	-1E+10	1	-1E+10	1	-1E+10	1	-1E+10	1	-1E+10	1
4902554	45	C	05/03/2022	05:58	-135.556	49.494	0	296.10	0	4.5240	0	33.8650	0	26.831	0	293.365	0	-1e10	8	-1e10	8	-1E+10	1	-1E+10	1	-1E+10	1	-1E+10	1	-1E+10	1	-1E+10	1
4902554	45	C	05/03/2022	05:58	-135.556	49.494	0	297.10	0	4.5180	0	33.8660	0	26.832	0	294.355	0	-1e10	8	-1e10	8	-1E+10	1	-1E+10	1	-1E+10	1	-1E+10	1	-1E+10	1	-1E+10	1
4902554	45	C	05/03/2022	05:58	-135.556	49.494	0	298.10	0	4.5150	0	33.8670	0	26.833	0	295.345	0	-1e10	8	-1e10	8	-1E+10	1	-1E+10	1	-1E+10	1	-1E+10	1	-1E+10	1	-1E+10	1
4902554	45	C	05/03/2022	05:58	-135.556	49.494	0	299.10	0	4.5090	0	33.8680	0	26.835	0	296.335	0	-1e10	8	-1e10	8	-1E+10	1	-1E+10	1	-1E+10	1	-1E+10	1	-1E+10	1	-1E+10	1
4902554	45	C	05/03/2022	05:58	-135.556	49.494	0	300.10	0	4.5010	0	33.8700	0	26.837	0	297.325	0	-1e10	8	-1e10	8	-1E+10	1	-1E+10	1	-1E+10	1	-1E+10	1	-1E+10	1	-1E+10	1
4902554	45	C	05/03/2022	05:58	-135.556	49.494	0	301.10	0	4.4990	0	33.8720	0	26.839	0	298.315	0	-1e10	8	-1e10	8	-1E+10	1	-1E+10	1	-1E+10	1	-1E+10	1	-1E+10	1	-1E+10	1
4902554	45	C	05/03/2022	05:58	-135.556	49.494	0	302.10	0	4.4970	0	33.8720	0	26.839	0	299.305	0	-1e10	8	-1e10	8	-1E+10	1	-1E+10	1	-1E+10	1	-1E+10	1	-1E+10	1	-1E+10	1
4902554	45	C	05/03/2022	05:58	-135.556	49.494	0	303.00	0	4.4970	0	33.8720	0	26.839	0	300.196	0	-1e10	8	-1e10	8	-1E+10	1	-1E+10	1	-1E+10	1	-1E+10	1	-1E+10	1	-1E+10	1
4902554	45	C	05/03/2022	05:58	-135.556	49.494	0	304.00	0	4.4970	0	33.8720	0	26.839	0	301.186	0	-1e10	8	-1e10	8	-1E+10	1	-1E+10	1	-1E+10	1	-1E+10	1	-1E+10	1	-1E+10	1
4902554	45	C	05/03/2022	05:58	-135.556	49.494	0	305.00	0	4.4960	0	33.8730	0	26.840	0	302.176	0	-1e10	8	-1e10	8	-1E+10	1	-1E+10	1	-1E+10	1	-1E+10	1	-1E+10	1	-1E+10	1
4902554	45	C	05/03/2022	05:58	-135.556	49.494	0	306.00	0	4.4920	0	33.8740	0	26.841	0	303.166	0	-1e10	8	-1e10	8	-1E+10	1	-1E+10	1	-1E+10	1	-1E+10	1	-1E+10	1	-1E+10	1
4902554	45	C	05/03/2022	05:58	-135.556	49.494	0	307.00	0	4.4880	0	33.8760	0	26.843	0	304.156	0	-1e10	8	-1e10	8	-1E+10	1	-1E+10	1	-1E+10	1	-1E+10	1	-1E+10	1	-1E+10	1
4902554	45	C	05/03/2022	05:58	-135.556	49.494	0	308.00	0	4.4870	0	33.8760	0	26.844	0	305.146	0	-1e10	8	-1e10	8	-1E+10	1	-1E+10	1	-1E+10	1	-1E+10	1	-1E+10	1	-1E+10	1
4902554	45	C	05/03/2022	05:58	-135.556	49.494	0	309.00	0	4.4860	0	33.8770	0	26.844	0	306.136	0	-1e10	8	-1e10	8	-1E+10	1	-1E+10	1	-1E+10	1	-1E+10	1	-1E+10	1	-1E+10	1
4902554	45	C	05/03/2022	05:58	-135.556	49.494	0	309.90	0	4.4840	0	33.8790	0	26.846	0	307.027	0	-1e10	8	-1e10	8	-1E+10	1	-1E+10	1	-1E+10	1	-1E+10	1	-1E+10	1	-1E+10	1
4902554	45	C	05/03/2022	05:58	-135.556	49.494	0	310.90	0	4.4830	0	33.8800	0	26.847	0	308.017	0	-1e10	8	-1e10	8	-1E+10	1	-1E+10	1	-1E+10	1	-1E+10	1	-1E+10	1	-1E+10	1
4902554	45	C	05/03/2022	05:58	-135.556	49.494	0	311.90	0	4.4820	0	33.8800	0	26.847	0	309.007	0	-1e10	8	-1e10	8	-1E+10	1	-1E+10	1	-1E+10	1	-1E+10	1	-1E+10	1	-1E+10	1
4902554	45	C	05/03/2022	05:58	-135.556	49.494	0	312.90	0	4.4790	0	33.8810	0	26.848	0	309.997	0	-1e10	8	-1e10	8	-1E+10	1	-1E+10	1	-1E+10	1	-1E+10	1	-1E+10	1	-1E+10	1
4902554	45	C	05/03/2022	05:58	-135.556	49.494	0	313.90	0	4.4720	0	33.8850	0	26.852	0	310.987	0	-1e10	8	-1e10	8	-1E+10	1	-1E+10	1	-1E+10	1	-1E+10	1	-1E+10	1	-1E+10	1
4902554	45	C	05/03/2022	05:58	-135.556	49.494	0	314.80	0	4.4690	0	33.8860	0	26.853	0	311.878	0	-1e10	8	-1e10	8	-1E+10	1	-1E+10	1	-1E+10	1	-1E+10	1	-1E+10	1	-1E+10	1
4902554	45	C	05/03/2022	05:58	-135.556	49.494	0	315.80	0	4.4670	0	33.8870	0	26.854	0	312.868	0	-1e10	8	-1e10	8	-1E+10	1	-1E+10	1	-1E+10	1	-1E+10	1	-1E+10	1	-1E+10	1
4902554	45	C	05/03/2022	05:58	-135.556	49.494	0	316.80	0	4.4640	0	33.8890	0	26.856	0	313.858	0	-1e10	8	-1e10	8	-1E+10	1	-1E+10	1	-1E+10	1	-1E+10	1	-1E+10	1	-1E+10	1
4902554	45	C	05/03/2022	05:58	-135.556	49.494	0	317.80	0	4.4570	0	33.8910	0	26.859	0	314.848	0	-1e10	8	-1e10	8	-1E+10	1	-1E+10	1	-1E+10	1	-1E+10	1	-1E+10	1	-1E+10	1
4902554	45	C	05/03/2022	05:58	-135.556	49.494	0	318.70	0	4.4530	0	33.8940	0	26.862	0	315.739	0	-1e10	8	-1e10	8	-1E+10	1	-1E+10	1	-1E+10	1	-1E+10	1	-1E+10	1	-1E+10	1
4902554	45	C	05/03/2022	05:58	-135.556	49.494	0	319.70	0	4.4500	0	33.8950	0	26.863	0	316.729	0	-1e10	8	-1e10	8	-1E+10	1	-1E+10	1	-1E+10	1	-1E+10	1	-1E+10	1	-1E+10	1
4902554	45	C	05/03/2022	05:58	-135.556	49.494	0	320.70	0	4.4510	0	33.8940	0	26.862	0	317.719	0	-1e10	8	-1e10	8	-1E+10	1	-1E+10	1	-1E+10	1	-1E+10	1	-1E+10	1	-1E+10	1
4902554	45	C	05/03/2022	05:58	-135.556	49.494	0	321.70	0	4.4480	0	33.8950	0	26.863	0	318.709	0	-1e10	8	-1e10	8	-1E+10	1	-1E+10	1	-1E+10	1	-1E+10	1	-1E+10	1	-1E+10	1
4902554	45	C	05/03/2022	05:58	-135.556	49.494	0	322.70	0	4.4470	0	33.8960	0	26.864	0	319.699	0	-1e10	8	-1e10	8	-1E+10	1	-1E+10	1	-1E+10	1	-1E+10	1	-1E+10	1	-1E+10	1
4902554	45	C	05/03/2022	05:58	-135.556	49.494	0	323.70	0	4.4460	0	33.8970	0	26.865	0	320.689	0	-1e10	8	-1e10	8	-1E+10	1	-1E+10	1	-1E+10	1	-1E+10	1	-1E+10	1	-1E+10	1
4902554	45	C	05/03/2022	05:58	-135.556	49.494	0	324.70	0	4.4460	0	33.8970	0	26.865	0	321.679	0	-1e10	8	-1e10	8	-1E+10	1	-1E+10	1	-1E+10	1	-1E+10	1	-1E+10	1	-1E+10	1
4902554	45	C	05/03/2022	05:58	-135.556	49.494	0	325.60	0	4.4460	0	33.8980	0	26.866	0	322.569	0	-1e10	8	-1e10	8	-1E+10	1	-1E+10	1	-1E+10	1	-1E+10	1	-1E+10	1	-1E+10	1
4902554	45	C	05/03/2022	05:58	-135.556	49.494	0	326.70	0	4.4450	0	33.8980	0	26.866	0	323.658	0	-1e10	8	-1e10	8	-1E+10	1	-1E+10	1	-1E+10	1	-1E+10	1	-1E+10	1	-1E+10	1
4902554	45	C	05/03/2022	05:58	-135.556	49.494	0	327.70	0	4.4440	0	33.9000	0	26.867	0	324.648	0	-1e10	8	-1e10	8	-1E+10	1	-1E+10	1	-1E+10	1	-1E+10	1	-1E+10	1	-1E+10	1
4902554	45	C	05/03/2022	05:58	-135.556	49.494	0	328.70	0	4.4430	0	33.9020	0	26.869	0	325.638	0	-1e10	8	-1e10	8	-1E+10	1	-1E+10	1	-1E+10	1	-1E+10	1	-1E+10	1	-1E+10	1
4902554	45	C	05/03/2022	05:58	-135.556	49.494	0	329.70	0	4.4390	0	33.9040	0	26.871	0	326.628	0	-1e10	8	-1e10	8	-1E+10	1	-1E+10	1	-1E+10	1	-1E+10	1	-1E+10	1	-1E+10	1
4902554	45	C	05/03/2022	05:58	-135.556	49.494	0	330.70	0	4.4360	0	33.9050	0	26.872	0	327.618	0	-1e10	8	-1e10	8	-1E+10	1	-1E+10	1	-1E+10	1	-1E+10	1	-1E+10	1	-1E+10	1
4902554	45	C	05/03/2022	05:58	-135.556	49.494	0	331.70	0	4.4340	0	33.9060	0	26.873	0	328.608	0	-1e10	8	-1e10	8	-1E+10	1	-1E+10	1	-1E+10	1	-1E+10	1	-1E+10	1	-1E+10	1
4902554	45	C	05/03/2022	05:58	-135.556	49.494	0	332.70	0	4.4340	0	33.9060	0	26.873	0	329.598	0	-1e10	8	-1e10	8	-1E+10	1	-1E+10	1	-1E+10	1	-1E+10	1	-1E+10	1	-1E+10	1
4902554	45	C	05/03/2022	05:58	-135.556	49.494	0	333.70	0	4.4310	0	33.9070	0	26.874	0	330.588	0	-1e10	8	-1e10	8	-1E+10	1	-1E+10	1	-1E+10	1	-1E+10	1	-1E+10	1	-1E+10	1
4902554	45	C	05/03/2022	05:58	-135.556	49.494	0	334.60	0	4.4250	0	33.9090	0	26.877	0	331.478	0	-1e10	8	-1e10	8	-1E+10	1	-1E+10	1	-1E+10	1	-1E+10	1	-1E+10	1	-1E+10	1
4902554	45	C	05/03/2022	05:58	-135.556	49.494	0	336.00	0	4.4210	0	33.9100	0	26.878	0	332.864	0	-1e10	8	-1e10	8	-1E+10	1	-1E+10	1	-1E+10	1	-1E+10	1	-1E+10	1	-1E+10	1
4902554	45	C	05/03/2022	05:58	-135.556	49.494	0	337.10	0	4.4180	0	33.9110	0	26.879	0	333.953	0	-1e10	8	-1e10	8	-1E+10	1	-1E+10	1	-1E+10	1	-1E+10	1	-1E+10	1	-1E+10	1
4902554	45	C	05/03/2022	05:58	-135.556	49.494	0	337.90	0	4.4190	0	33.9120	0	26.880	0	334.745	0	-1e10	8	-1e10	8	-1E+10	1	-1E+10	1	-1E+10	1	-1E+10	1	-1E+10	1	-1E+10	1
4902554	45	C	05/03/2022	05:58	-135.556	49.494	0	339.00	0	4.4190	0	33.9120	0	26.880	0	335.834	0	-1e10	8	-1e10	8	-1E+10	1	-1E+10	1	-1E+10	1	-1E+10	1	-1E+10	1	-1E+10	1
4902554	45	C	05/03/2022	05:58	-135.556	49.494	0	340.20	0	4.4200	0	33.9140	0	26.881	0	337.022	0	-1e10	8	-1e10	8	-1E+10	1	-1E+10	1	-1E+10	1	-1E+10	1	-1E+10	1	-1E+10	1
4902554	45	C	05/03/2022	05:58	-135.556	49.494	0	340.90	0	4.4200	0	33.9140	0	26.881	0	337.715	0	-1e10	8	-1e10	8	-1E+10	1	-1E+10	1	-1E+10	1	-1E+10	1	-1E+10	1	-1E+10	1
4902554	45	C	05/03/2022	05:58	-135.556	49.494	0	341.70	0	4.4200	0	33.9150	0	26.882	0	338.506	0	-1e10	8	-1e10	8	-1E+10	1	-1E+10	1	-1E+10	1	-1E+10	1	-1E+10	1	-1E+10	1
4902554	45	C	05/03/2022	05:58	-135.556	49.494	0	342.90	0	4.4190	0	33.9150	0	26.882	0	339.694	0	-1e10	8	-1e10	8	-1E+10	1	-1E+10	1	-1E+10	1	-1E+10	1	-1E+10	1	-1E+10	1
4902554	45	C	05/03/2022	05:58	-135.556	49.494	0	344.10	0	4.4170	0	33.9160	0	26.883	0	340.882	0	-1e10	8	-1e10	8	-1E+10	1	-1E+10	1	-1E+10	1	-1E+10	1	-1E+10	1	-1E+10	1
4902554	45	C	05/03/2022	05:58	-135.556	49.494	0	344.90	0	4.4160	0	33.9170	0	26.884	0	341.674	0	-1e10	8	-1e10	8	-1E+10	1	-1E+10	1	-1E+10	1	-1E+10	1	-1E+10	1	-1E+10	1
4902554	45	C	05/03/2022	05:58	-135.556	49.494	0	346.00	0	4.4130	0	33.9200	0	26.887	0	342.763	0	-1e10	8	-1e10	8	-1E+10	1	-1E+10	1	-1E+10	1	-1E+10	1	-1E+10	1	-1E+10	1
4902554	45	C	05/03/2022	05:58	-135.556	49.494	0	347.20	0	4.4100	0	33.9210	0	26.888	0	343.950	0	-1e10	8	-1e10	8	-1E+10	1	-1E+10	1	-1E+10	1	-1E+10	1	-1E+10	1	-1E+10	1
4902554	45	C	05/03/2022	05:58	-135.556	49.494	0	348.00	0	4.4100	0	33.9230	0	26.889	0	344.742	0	-1e10	8	-1e10	8	-1E+10	1	-1E+10	1	-1E+10	1	-1E+10	1	-1E+10	1	-1E+10	1
4902554	45	C	05/03/2022	05:58	-135.556	49.494	0	348.90	0	4.4080	0	33.9230	0	26.890	0	345.633	0	-1e10	8	-1e10	8	-1E+10	1	-1E+10	1	-1E+10	1	-1E+10	1	-1E+10	1	-1E+10	1
4902554	45	C	05/03/2022	05:58	-135.556	49.494	0	349.70	0	4.4060	0	33.9240	0	26.891	0	346.425	0	-1e10	8	-1e10	8	-1E+10	1	-1E+10	1	-1E+10	1	-1E+10	1	-1E+10	1	-1E+10	1
4902554	45	C	05/03/2022	05:58	-135.556	49.494	0	352.90	0	4.4020	0	33.9300	0	26.896	0	349.592	0	-1e10	8	-1e10	8	-1E+10	1	-1E+10	1	-1E+10	1	-1E+10	1	-1E+10	1	-1E+10	1
4902554	45	C	05/03/2022	05:58	-135.556	49.494	0	357.90	0	4.4190	0	33.9400	0	26.902	0	354.541	0	-1e10	8	-1e10	8	-1E+10	1	-1E+10	1	-1E+10	1	-1E+10	1	-1E+10	1	-1E+10	1
4902554	45	C	05/03/2022	05:58	-135.556	49.494	0	362.70	0	4.4240	0	33.9540	0	26.913	0	359.292	0	-1e10	8	-1e10	8	-1E+10	1	-1E+10	1	-1E+10	1	-1E+10	1	-1E+10	1	-1E+10	1
4902554	45	C	05/03/2022	05:58	-135.556	49.494	0	368.00	0	4.4160	0	33.9620	0	26.920	0	364.538	0	-1e10	8	-1e10	8	-1E+10	1	-1E+10	1	-1E+10	1	-1E+10	1	-1E+10	1	-1E+10	1
4902554	45	C	05/03/2022	05:58	-135.556	49.494	0	373.00	0	4.4010	0	33.9720	0	26.929	0	369.486	0	-1e10	8	-1e10	8	-1E+10	1	-1E+10	1	-1E+10	1	-1E+10	1	-1E+10	1	-1E+10	1
4902554	45	C	05/03/2022	05:58	-135.556	49.494	0	377.80	0	4.3890	0	33.9790	0	26.936	0	374.236	0	-1e10	8	-1e10	8	-1E+10	1	-1E+10	1	-1E+10	1	-1E+10	1	-1E+10	1	-1E+10	1
4902554	45	C	05/03/2022	05:58	-135.556	49.494	0	382.70	0	4.3760	0	33.9850	0	26.943	0	379.086	0	-1e10	8	-1e10	8	-1E+10	1	-1E+10	1	-1E+10	1	-1E+10	1	-1E+10	1	-1E+10	1
4902554	45	C	05/03/2022	05:58	-135.556	49.494	0	387.70	0	4.3700	0	33.9880	0	26.946	0	384.034	0	-1e10	8	-1e10	8	-1E+10	1	-1E+10	1	-1E+10	1	-1E+10	1	-1E+10	1	-1E+10	1
4902554	45	C	05/03/2022	05:58	-135.556	49.494	0	392.80	0	4.3630	0	33.9920	0	26.950	0	389.081	0	-1e10	8	-1e10	8	-1E+10	1	-1E+10	1	-1E+10	1	-1E+10	1	-1E+10	1	-1E+10	1
4902554	45	C	05/03/2022	05:58	-135.556	49.494	0	398.00	0	4.3650	0	33.9960	0	26.953	0	394.227	0	-1e10	8	-1e10	8	-1E+10	1	-1E+10	1	-1E+10	1	-1E+10	1	-1E+10	1	-1E+10	1
4902554	45	C	05/03/2022	05:58	-135.556	49.494	0	402.80	0	4.3480	0	33.9990	0	26.957	0	398.977	0	-1e10	8	-1e10	8	-1E+10	1	-1E+10	1	-1E+10	1	-1E+10	1	-1E+10	1	-1E+10	1
4902554	45	C	05/03/2022	05:58	-135.556	49.494	0	407.70	0	4.3370	0	34.0040	0	26.962	0	403.825	0	-1e10	8	-1e10	8	-1E+10	1	-1E+10	1	-1E+10	1	-1E+10	1	-1E+10	1	-1E+10	1
4902554	45	C	05/03/2022	05:58	-135.556	49.494	0	412.60	0	4.3260	0	34.0080	0	26.966	0	408.674	0	-1e10	8	-1e10	8	-1E+10	1	-1E+10	1	-1E+10	1	-1E+10	1	-1E+10	1	-1E+10	1
4902554	45	C	05/03/2022	05:58	-135.556	49.494	0	417.70	0	4.3130	0	34.0130	0	26.972	0	413.720	0	-1e10	8	-1e10	8	-1E+10	1	-1E+10	1	-1E+10	1	-1E+10	1	-1E+10	1	-1E+10	1
4902554	45	C	05/03/2022	05:58	-135.556	49.494	0	423.20	0	4.3030	0	34.0150	0	26.974	0	419.162	0	-1e10	8	-1e10	8	-1E+10	1	-1E+10	1	-1E+10	1	-1E+10	1	-1E+10	1	-1E+10	1
4902554	45	C	05/03/2022	05:58	-135.556	49.494	0	428.10	0	4.2950	0	34.0190	0	26.978	0	424.011	0	-1e10	8	-1e10	8	-1E+10	1	-1E+10	1	-1E+10	1	-1E+10	1	-1E+10	1	-1E+10	1
4902554	45	C	05/03/2022	05:58	-135.556	49.494	0	433.10	0	4.2980	0	34.0240	0	26.982	0	428.958	0	-1e10	8	-1e10	8	-1E+10	1	-1E+10	1	-1E+10	1	-1E+10	1	-1E+10	1	-1E+10	1
4902554	45	C	05/03/2022	05:58	-135.556	49.494	0	437.90	0	4.2910	0	34.0280	0	26.986	0	433.707	0	-1e10	8	-1e10	8	-1E+10	1	-1E+10	1	-1E+10	1	-1E+10	1	-1E+10	1	-1E+10	1
4902554	45	C	05/03/2022	05:58	-135.556	49.494	0	442.70	0	4.2780	0	34.0320	0	26.991	0	438.456	0	-1e10	8	-1e10	8	-1E+10	1	-1E+10	1	-1E+10	1	-1E+10	1	-1E+10	1	-1E+10	1
4902554	45	C	05/03/2022	05:58	-135.556	49.494	0	448.00	0	4.2780	0	34.0390	0	26.996	0	443.699	0	-1e10	8	-1e10	8	-1E+10	1	-1E+10	1	-1E+10	1	-1E+10	1	-1E+10	1	-1E+10	1
4902554	45	C	05/03/2022	05:58	-135.556	49.494	0	453.30	0	4.2650	0	34.0440	0	27.002	0	448.943	0	-1e10	8	-1e10	8	-1E+10	1	-1E+10	1	-1E+10	1	-1E+10	1	-1E+10	1	-1E+10	1
4902554	45	C	05/03/2022	05:58	-135.556	49.494	0	458.00	0	4.2520	0	34.0470	0	27.005	0	453.592	0	-1e10	8	-1e10	8	-1E+10	1	-1E+10	1	-1E+10	1	-1E+10	1	-1E+10	1	-1E+10	1
4902554	45	C	05/03/2022	05:58	-135.556	49.494	0	462.70	0	4.2430	0	34.0490	0	27.008	0	458.242	0	-1e10	8	-1e10	8	-1E+10	1	-1E+10	1	-1E+10	1	-1E+10	1	-1E+10	1	-1E+10	1
4902554	45	C	05/03/2022	05:58	-135.556	49.494	0	467.90	0	4.2190	0	34.0540	0	27.015	0	463.386	0	-1e10	8	-1e10	8	-1E+10	1	-1E+10	1	-1E+10	1	-1E+10	1	-1E+10	1	-1E+10	1
4902554	45	C	05/03/2022	05:58	-135.556	49.494	0	473.20	0	4.2070	0	34.0570	0	27.018	0	468.629	0	-1e10	8	-1e10	8	-1E+10	1	-1E+10	1	-1E+10	1	-1E+10	1	-1E+10	1	-1E+10	1
4902554	45	C	05/03/2022	05:58	-135.556	49.494	0	477.90	0	4.2050	0	34.0590	0	27.020	0	473.278	0	-1e10	8	-1e10	8	-1E+10	1	-1E+10	1	-1E+10	1	-1E+10	1	-1E+10	1	-1E+10	1
4902554	45	C	05/03/2022	05:58	-135.556	49.494	0	482.50	0	4.2060	0	34.0630	0	27.023	0	477.828	0	-1e10	8	-1e10	8	-1E+10	1	-1E+10	1	-1E+10	1	-1E+10	1	-1E+10	1	-1E+10	1
4902554	45	C	05/03/2022	05:58	-135.556	49.494	0	487.60	0	4.2020	0	34.0660	0	27.026	0	482.873	0	-1e10	8	-1e10	8	-1E+10	1	-1E+10	1	-1E+10	1	-1E+10	1	-1E+10	1	-1E+10	1
4902554	45	C	05/03/2022	05:58	-135.556	49.494	0	492.60	0	4.1900	0	34.0680	0	27.029	0	487.819	0	-1e10	8	-1e10	8	-1E+10	1	-1E+10	1	-1E+10	1	-1E+10	1	-1E+10	1	-1E+10	1
4902554	45	C	05/03/2022	05:58	-135.556	49.494	0	497.70	0	4.1750	0	34.0720	0	27.034	0	492.863	0	-1e10	8	-1e10	8	-1E+10	1	-1E+10	1	-1E+10	1	-1E+10	1	-1E+10	1	-1E+10	1
4902554	45	C	05/03/2022	05:58	-135.556	49.494	0	502.80	0	4.1740	0	34.0790	0	27.039	0	497.908	0	-1e10	8	-1e10	8	-1E+10	1	-1E+10	1	-1E+10	1	-1E+10	1	-1E+10	1	-1E+10	1
4902554	45	C	05/03/2022	05:58	-135.556	49.494	0	507.80	0	4.1760	0	34.0850	0	27.044	0	502.853	0	-1e10	8	-1e10	8	-1E+10	1	-1E+10	1	-1E+10	1	-1E+10	1	-1E+10	1	-1E+10	1
4902554	45	C	05/03/2022	05:58	-135.556	49.494	0	512.80	0	4.1650	0	34.0910	0	27.050	0	507.798	0	-1e10	8	-1e10	8	-1E+10	1	-1E+10	1	-1E+10	1	-1E+10	1	-1E+10	1	-1E+10	1
4902554	45	C	05/03/2022	05:58	-135.556	49.494	0	517.90	0	4.1580	0	34.0930	0	27.052	0	512.842	0	-1e10	8	-1e10	8	-1E+10	1	-1E+10	1	-1E+10	1	-1E+10	1	-1E+10	1	-1E+10	1
4902554	45	C	05/03/2022	05:58	-135.556	49.494	0	523.00	0	4.1530	0	34.0940	0	27.054	0	517.886	0	-1e10	8	-1e10	8	-1E+10	1	-1E+10	1	-1E+10	1	-1E+10	1	-1E+10	1	-1E+10	1
4902554	45	C	05/03/2022	05:58	-135.556	49.494	0	528.10	0	4.1340	0	34.1020	0	27.062	0	522.930	0	-1e10	8	-1e10	8	-1E+10	1	-1E+10	1	-1E+10	1	-1E+10	1	-1E+10	1	-1E+10	1
4902554	45	C	05/03/2022	05:58	-135.556	49.494	0	533.10	0	4.1210	0	34.1080	0	27.068	0	527.874	0	-1e10	8	-1e10	8	-1E+10	1	-1E+10	1	-1E+10	1	-1E+10	1	-1E+10	1	-1E+10	1
4902554	45	C	05/03/2022	05:58	-135.556	49.494	0	538.10	0	4.1080	0	34.1140	0	27.074	0	532.819	0	-1e10	8	-1e10	8	-1E+10	1	-1E+10	1	-1E+10	1	-1E+10	1	-1E+10	1	-1E+10	1
4902554	45	C	05/03/2022	05:58	-135.556	49.494	0	543.10	0	4.0940	0	34.1200	0	27.081	0	537.763	0	-1e10	8	-1e10	8	-1E+10	1	-1E+10	1	-1E+10	1	-1E+10	1	-1E+10	1	-1E+10	1
4902554	45	C	05/03/2022	05:58	-135.556	49.494	0	548.10	0	4.0860	0	34.1220	0	27.083	0	542.708	0	-1e10	8	-1e10	8	-1E+10	1	-1E+10	1	-1E+10	1	-1E+10	1	-1E+10	1	-1E+10	1
4902554	45	C	05/03/2022	05:58	-135.556	49.494	0	553.00	0	4.0750	0	34.1260	0	27.087	0	547.553	0	-1e10	8	-1e10	8	-1E+10	1	-1E+10	1	-1E+10	1	-1E+10	1	-1E+10	1	-1E+10	1
4902554	45	C	05/03/2022	05:58	-135.556	49.494	0	558.00	0	4.0580	0	34.1320	0	27.094	0	552.497	0	-1e10	8	-1e10	8	-1E+10	1	-1E+10	1	-1E+10	1	-1E+10	1	-1E+10	1	-1E+10	1
4902554	45	C	05/03/2022	05:58	-135.556	49.494	0	562.80	0	4.0490	0	34.1350	0	27.097	0	557.243	0	-1e10	8	-1e10	8	-1E+10	1	-1E+10	1	-1E+10	1	-1E+10	1	-1E+10	1	-1E+10	1
4902554	45	C	05/03/2022	05:58	-135.556	49.494	0	567.70	0	4.0350	0	34.1390	0	27.102	0	562.088	0	-1e10	8	-1e10	8	-1E+10	1	-1E+10	1	-1E+10	1	-1E+10	1	-1E+10	1	-1E+10	1
4902554	45	C	05/03/2022	05:58	-135.556	49.494	0	572.60	0	4.0080	0	34.1460	0	27.110	0	566.933	0	-1e10	8	-1e10	8	-1E+10	1	-1E+10	1	-1E+10	1	-1E+10	1	-1E+10	1	-1E+10	1
4902554	45	C	05/03/2022	05:58	-135.556	49.494	0	577.50	0	3.9930	0	34.1510	0	27.116	0	571.778	0	-1e10	8	-1e10	8	-1E+10	1	-1E+10	1	-1E+10	1	-1E+10	1	-1E+10	1	-1E+10	1
4902554	45	C	05/03/2022	05:58	-135.556	49.494	0	582.50	0	3.9800	0	34.1550	0	27.120	0	576.722	0	-1e10	8	-1e10	8	-1E+10	1	-1E+10	1	-1E+10	1	-1E+10	1	-1E+10	1	-1E+10	1
4902554	45	C	05/03/2022	05:58	-135.556	49.494	0	587.80	0	3.9730	0	34.1570	0	27.123	0	581.962	0	-1e10	8	-1e10	8	-1E+10	1	-1E+10	1	-1E+10	1	-1E+10	1	-1E+10	1	-1E+10	1
4902554	45	C	05/03/2022	05:58	-135.556	49.494	0	593.00	0	3.9660	0	34.1590	0	27.125	0	587.103	0	-1e10	8	-1e10	8	-1E+10	1	-1E+10	1	-1E+10	1	-1E+10	1	-1E+10	1	-1E+10	1
4902554	45	C	05/03/2022	05:58	-135.556	49.494	0	598.00	0	3.9500	0	34.1650	0	27.131	0	592.046	0	-1e10	8	-1e10	8	-1E+10	1	-1E+10	1	-1E+10	1	-1E+10	1	-1E+10	1	-1E+10	1
4902554	45	C	05/03/2022	05:58	-135.556	49.494	0	603.00	0	3.9370	0	34.1680	0	27.135	0	596.989	0	-1e10	8	-1e10	8	-1E+10	1	-1E+10	1	-1E+10	1	-1E+10	1	-1E+10	1	-1E+10	1
4902554	45	C	05/03/2022	05:58	-135.556	49.494	0	608.10	0	3.9190	0	34.1730	0	27.141	0	602.031	0	-1e10	8	-1e10	8	-1E+10	1	-1E+10	1	-1E+10	1	-1E+10	1	-1E+10	1	-1E+10	1
4902554	45	C	05/03/2022	05:58	-135.556	49.494	0	613.00	0	3.9070	0	34.1770	0	27.145	0	606.875	0	-1e10	8	-1e10	8	-1E+10	1	-1E+10	1	-1E+10	1	-1E+10	1	-1E+10	1	-1E+10	1
4902554	45	C	05/03/2022	05:58	-135.556	49.494	0	617.90	0	3.8970	0	34.1800	0	27.149	0	611.718	0	-1e10	8	-1e10	8	-1E+10	1	-1E+10	1	-1E+10	1	-1E+10	1	-1E+10	1	-1E+10	1
4902554	45	C	05/03/2022	05:58	-135.556	49.494	0	622.90	0	3.8840	0	34.1840	0	27.153	0	616.661	0	-1e10	8	-1e10	8	-1E+10	1	-1E+10	1	-1E+10	1	-1E+10	1	-1E+10	1	-1E+10	1
4902554	45	C	05/03/2022	05:58	-135.556	49.494	0	627.60	0	3.8710	0	34.1880	0	27.158	0	621.307	0	-1e10	8	-1e10	8	-1E+10	1	-1E+10	1	-1E+10	1	-1E+10	1	-1E+10	1	-1E+10	1
4902554	45	C	05/03/2022	05:58	-135.556	49.494	0	632.80	0	3.8620	0	34.1910	0	27.161	0	626.447	0	-1e10	8	-1e10	8	-1E+10	1	-1E+10	1	-1E+10	1	-1E+10	1	-1E+10	1	-1E+10	1
4902554	45	C	05/03/2022	05:58	-135.556	49.494	0	638.20	0	3.8460	0	34.1960	0	27.167	0	631.785	0	-1e10	8	-1e10	8	-1E+10	1	-1E+10	1	-1E+10	1	-1E+10	1	-1E+10	1	-1E+10	1
4902554	45	C	05/03/2022	05:58	-135.556	49.494	0	643.20	0	3.8300	0	34.1980	0	27.170	0	636.727	0	-1e10	8	-1e10	8	-1E+10	1	-1E+10	1	-1E+10	1	-1E+10	1	-1E+10	1	-1E+10	1
4902554	45	C	05/03/2022	05:58	-135.556	49.494	0	648.10	0	3.8260	0	34.2010	0	27.173	0	641.570	0	-1e10	8	-1e10	8	-1E+10	1	-1E+10	1	-1E+10	1	-1E+10	1	-1E+10	1	-1E+10	1
4902554	45	C	05/03/2022	05:58	-135.556	49.494	0	653.10	0	3.8040	0	34.2050	0	27.178	0	646.512	0	-1e10	8	-1e10	8	-1E+10	1	-1E+10	1	-1E+10	1	-1E+10	1	-1E+10	1	-1E+10	1
4902554	45	C	05/03/2022	05:58	-135.556	49.494	0	658.10	0	3.7790	0	34.2080	0	27.183	0	651.453	0	-1e10	8	-1e10	8	-1E+10	1	-1E+10	1	-1E+10	1	-1E+10	1	-1E+10	1	-1E+10	1
4902554	45	C	05/03/2022	05:58	-135.556	49.494	0	662.90	0	3.7680	0	34.2110	0	27.187	0	656.197	0	-1e10	8	-1e10	8	-1E+10	1	-1E+10	1	-1E+10	1	-1E+10	1	-1E+10	1	-1E+10	1
4902554	45	C	05/03/2022	05:58	-135.556	49.494	0	667.80	0	3.7540	0	34.2150	0	27.191	0	661.040	0	-1e10	8	-1e10	8	-1E+10	1	-1E+10	1	-1E+10	1	-1E+10	1	-1E+10	1	-1E+10	1
4902554	45	C	05/03/2022	05:58	-135.556	49.494	0	672.80	0	3.7490	0	34.2170	0	27.194	0	665.981	0	-1e10	8	-1e10	8	-1E+10	1	-1E+10	1	-1E+10	1	-1E+10	1	-1E+10	1	-1E+10	1
4902554	45	C	05/03/2022	05:58	-135.556	49.494	0	677.90	0	3.7370	0	34.2190	0	27.196	0	671.022	0	-1e10	8	-1e10	8	-1E+10	1	-1E+10	1	-1E+10	1	-1E+10	1	-1E+10	1	-1E+10	1
4902554	45	C	05/03/2022	05:58	-135.556	49.494	0	682.80	0	3.7200	0	34.2230	0	27.201	0	675.864	0	-1e10	8	-1e10	8	-1E+10	1	-1E+10	1	-1E+10	1	-1E+10	1	-1E+10	1	-1E+10	1
4902554	45	C	05/03/2022	05:58	-135.556	49.494	0	687.70	0	3.6990	0	34.2260	0	27.206	0	680.706	0	-1e10	8	-1e10	8	-1E+10	1	-1E+10	1	-1E+10	1	-1E+10	1	-1E+10	1	-1E+10	1
4902554	45	C	05/03/2022	05:58	-135.556	49.494	0	692.70	0	3.6790	0	34.2300	0	27.211	0	685.647	0	-1e10	8	-1e10	8	-1E+10	1	-1E+10	1	-1E+10	1	-1E+10	1	-1E+10	1	-1E+10	1
4902554	45	C	05/03/2022	05:58	-135.556	49.494	0	697.80	0	3.6700	0	34.2320	0	27.213	0	690.687	0	-1e10	8	-1e10	8	-1E+10	1	-1E+10	1	-1E+10	1	-1E+10	1	-1E+10	1	-1E+10	1
4902554	45	C	05/03/2022	05:58	-135.556	49.494	0	703.00	0	3.6640	0	34.2340	0	27.216	0	695.825	0	-1e10	8	-1e10	8	-1E+10	1	-1E+10	1	-1E+10	1	-1E+10	1	-1E+10	1	-1E+10	1
4902554	45	C	05/03/2022	05:58	-135.556	49.494	0	707.80	0	3.6600	0	34.2360	0	27.218	0	700.568	0	-1e10	8	-1e10	8	-1E+10	1	-1E+10	1	-1E+10	1	-1E+10	1	-1E+10	1	-1E+10	1
4902554	45	C	05/03/2022	05:58	-135.556	49.494	0	712.80	0	3.6510	0	34.2380	0	27.220	0	705.508	0	-1e10	8	-1e10	8	-1E+10	1	-1E+10	1	-1E+10	1	-1E+10	1	-1E+10	1	-1E+10	1
4902554	45	C	05/03/2022	05:58	-135.556	49.494	0	717.70	0	3.6430	0	34.2410	0	27.223	0	710.350	0	-1e10	8	-1e10	8	-1E+10	1	-1E+10	1	-1E+10	1	-1E+10	1	-1E+10	1	-1E+10	1
4902554	45	C	05/03/2022	05:58	-135.556	49.494	0	722.50	0	3.6410	0	34.2420	0	27.224	0	715.093	0	-1e10	8	-1e10	8	-1E+10	1	-1E+10	1	-1E+10	1	-1E+10	1	-1E+10	1	-1E+10	1
4902554	45	C	05/03/2022	05:58	-135.556	49.494	0	727.90	0	3.6340	0	34.2420	0	27.225	0	720.428	0	-1e10	8	-1e10	8	-1E+10	1	-1E+10	1	-1E+10	1	-1E+10	1	-1E+10	1	-1E+10	1
4902554	45	C	05/03/2022	05:58	-135.556	49.494	0	733.30	0	3.6290	0	34.2440	0	27.227	0	725.763	0	-1e10	8	-1e10	8	-1E+10	1	-1E+10	1	-1E+10	1	-1E+10	1	-1E+10	1	-1E+10	1
4902554	45	C	05/03/2022	05:58	-135.556	49.494	0	738.10	0	3.6220	0	34.2450	0	27.229	0	730.505	0	-1e10	8	-1e10	8	-1E+10	1	-1E+10	1	-1E+10	1	-1E+10	1	-1E+10	1	-1E+10	1
4902554	45	C	05/03/2022	05:58	-135.556	49.494	0	742.90	0	3.6000	0	34.2510	0	27.236	0	735.247	0	-1e10	8	-1e10	8	-1E+10	1	-1E+10	1	-1E+10	1	-1E+10	1	-1E+10	1	-1E+10	1
4902554	45	C	05/03/2022	05:58	-135.556	49.494	0	747.60	0	3.5900	0	34.2560	0	27.241	0	739.891	0	-1e10	8	-1e10	8	-1E+10	1	-1E+10	1	-1E+10	1	-1E+10	1	-1E+10	1	-1E+10	1
4902554	45	C	05/03/2022	05:58	-135.556	49.494	0	752.80	0	3.5720	0	34.2600	0	27.246	0	745.028	0	-1e10	8	-1e10	8	-1E+10	1	-1E+10	1	-1E+10	1	-1E+10	1	-1E+10	1	-1E+10	1
4902554	45	C	05/03/2022	05:58	-135.556	49.494	0	758.10	0	3.5530	0	34.2610	0	27.248	0	750.264	0	-1e10	8	-1e10	8	-1E+10	1	-1E+10	1	-1E+10	1	-1E+10	1	-1E+10	1	-1E+10	1
4902554	45	C	05/03/2022	05:58	-135.556	49.494	0	762.90	0	3.5340	0	34.2640	0	27.253	0	755.005	0	-1e10	8	-1e10	8	-1E+10	1	-1E+10	1	-1E+10	1	-1E+10	1	-1E+10	1	-1E+10	1
4902554	45	C	05/03/2022	05:58	-135.556	49.494	0	767.60	0	3.5210	0	34.2660	0	27.255	0	759.648	0	-1e10	8	-1e10	8	-1E+10	1	-1E+10	1	-1E+10	1	-1E+10	1	-1E+10	1	-1E+10	1
4902554	45	C	05/03/2022	05:58	-135.556	49.494	0	772.80	0	3.5100	0	34.2690	0	27.259	0	764.785	0	-1e10	8	-1e10	8	-1E+10	1	-1E+10	1	-1E+10	1	-1E+10	1	-1E+10	1	-1E+10	1
4902554	45	C	05/03/2022	05:58	-135.556	49.494	0	778.00	0	3.5010	0	34.2720	0	27.262	0	769.921	0	-1e10	8	-1e10	8	-1E+10	1	-1E+10	1	-1E+10	1	-1E+10	1	-1E+10	1	-1E+10	1
4902554	45	C	05/03/2022	05:58	-135.556	49.494	0	783.00	0	3.4940	0	34.2730	0	27.264	0	774.860	0	-1e10	8	-1e10	8	-1E+10	1	-1E+10	1	-1E+10	1	-1E+10	1	-1E+10	1	-1E+10	1
4902554	45	C	05/03/2022	05:58	-135.556	49.494	0	788.00	0	3.4820	0	34.2750	0	27.267	0	779.799	0	-1e10	8	-1e10	8	-1E+10	1	-1E+10	1	-1E+10	1	-1E+10	1	-1E+10	1	-1E+10	1
4902554	45	C	05/03/2022	05:58	-135.556	49.494	0	792.60	0	3.4700	0	34.2780	0	27.270	0	784.342	0	-1e10	8	-1e10	8	-1E+10	1	-1E+10	1	-1E+10	1	-1E+10	1	-1E+10	1	-1E+10	1
4902554	45	C	05/03/2022	05:58	-135.556	49.494	0	797.80	0	3.4540	0	34.2810	0	27.274	0	789.478	0	-1e10	8	-1e10	8	-1E+10	1	-1E+10	1	-1E+10	1	-1E+10	1	-1E+10	1	-1E+10	1
4902554	45	C	05/03/2022	05:58	-135.556	49.494	0	802.80	0	3.4450	0	34.2840	0	27.277	0	794.417	0	-1e10	8	-1e10	8	-1E+10	1	-1E+10	1	-1E+10	1	-1E+10	1	-1E+10	1	-1E+10	1
4902554	45	C	05/03/2022	05:58	-135.556	49.494	0	807.80	0	3.4320	0	34.2870	0	27.281	0	799.355	0	-1e10	8	-1e10	8	-1E+10	1	-1E+10	1	-1E+10	1	-1E+10	1	-1E+10	1	-1E+10	1
4902554	45	C	05/03/2022	05:58	-135.556	49.494	0	812.90	0	3.4200	0	34.2900	0	27.285	0	804.392	0	-1e10	8	-1e10	8	-1E+10	1	-1E+10	1	-1E+10	1	-1E+10	1	-1E+10	1	-1E+10	1
4902554	45	C	05/03/2022	05:58	-135.556	49.494	0	817.60	0	3.4160	0	34.2910	0	27.286	0	809.033	0	-1e10	8	-1e10	8	-1E+10	1	-1E+10	1	-1E+10	1	-1E+10	1	-1E+10	1	-1E+10	1
4902554	45	C	05/03/2022	05:58	-135.556	49.494	0	822.80	0	3.4040	0	34.2930	0	27.289	0	814.169	0	-1e10	8	-1e10	8	-1E+10	1	-1E+10	1	-1E+10	1	-1E+10	1	-1E+10	1	-1E+10	1
4902554	45	C	05/03/2022	05:58	-135.556	49.494	0	828.00	0	3.3960	0	34.2940	0	27.290	0	819.304	0	-1e10	8	-1e10	8	-1E+10	1	-1E+10	1	-1E+10	1	-1E+10	1	-1E+10	1	-1E+10	1
4902554	45	C	05/03/2022	05:58	-135.556	49.494	0	832.70	0	3.3890	0	34.2960	0	27.292	0	823.945	0	-1e10	8	-1e10	8	-1E+10	1	-1E+10	1	-1E+10	1	-1E+10	1	-1E+10	1	-1E+10	1
4902554	45	C	05/03/2022	05:58	-135.556	49.494	0	837.90	0	3.3870	0	34.2980	0	27.294	0	829.080	0	-1e10	8	-1e10	8	-1E+10	1	-1E+10	1	-1E+10	1	-1E+10	1	-1E+10	1	-1E+10	1
4902554	45	C	05/03/2022	05:58	-135.556	49.494	0	843.20	0	3.3800	0	34.3000	0	27.297	0	834.314	0	-1e10	8	-1e10	8	-1E+10	1	-1E+10	1	-1E+10	1	-1E+10	1	-1E+10	1	-1E+10	1
4902554	45	C	05/03/2022	05:58	-135.556	49.494	0	848.10	0	3.3730	0	34.3030	0	27.300	0	839.153	0	-1e10	8	-1e10	8	-1E+10	1	-1E+10	1	-1E+10	1	-1E+10	1	-1E+10	1	-1E+10	1
4902554	45	C	05/03/2022	05:58	-135.556	49.494	0	852.90	0	3.3700	0	34.3040	0	27.301	0	843.892	0	-1e10	8	-1e10	8	-1E+10	1	-1E+10	1	-1E+10	1	-1E+10	1	-1E+10	1	-1E+10	1
4902554	45	C	05/03/2022	05:58	-135.556	49.494	0	857.70	0	3.3610	0	34.3060	0	27.303	0	848.632	0	-1e10	8	-1e10	8	-1E+10	1	-1E+10	1	-1E+10	1	-1E+10	1	-1E+10	1	-1E+10	1
4902554	45	C	05/03/2022	05:58	-135.556	49.494	0	862.60	0	3.3510	0	34.3080	0	27.306	0	853.470	0	-1e10	8	-1e10	8	-1E+10	1	-1E+10	1	-1E+10	1	-1E+10	1	-1E+10	1	-1E+10	1
4902554	45	C	05/03/2022	05:58	-135.556	49.494	0	867.50	0	3.3430	0	34.3090	0	27.307	0	858.308	0	-1e10	8	-1e10	8	-1E+10	1	-1E+10	1	-1E+10	1	-1E+10	1	-1E+10	1	-1E+10	1
4902554	45	C	05/03/2022	05:58	-135.556	49.494	0	872.50	0	3.3320	0	34.3110	0	27.310	0	863.245	0	-1e10	8	-1e10	8	-1E+10	1	-1E+10	1	-1E+10	1	-1E+10	1	-1E+10	1	-1E+10	1
4902554	45	C	05/03/2022	05:58	-135.556	49.494	0	877.50	0	3.3200	0	34.3130	0	27.313	0	868.181	0	-1e10	8	-1e10	8	-1E+10	1	-1E+10	1	-1E+10	1	-1E+10	1	-1E+10	1	-1E+10	1
4902554	45	C	05/03/2022	05:58	-135.556	49.494	0	882.50	0	3.3100	0	34.3150	0	27.315	0	873.118	0	-1e10	8	-1e10	8	-1E+10	1	-1E+10	1	-1E+10	1	-1E+10	1	-1E+10	1	-1E+10	1
4902554	45	C	05/03/2022	05:58	-135.556	49.494	0	887.60	0	3.2980	0	34.3150	0	27.316	0	878.153	0	-1e10	8	-1e10	8	-1E+10	1	-1E+10	1	-1E+10	1	-1E+10	1	-1E+10	1	-1E+10	1
4902554	45	C	05/03/2022	05:58	-135.556	49.494	0	892.70	0	3.2870	0	34.3180	0	27.320	0	883.188	0	-1e10	8	-1e10	8	-1E+10	1	-1E+10	1	-1E+10	1	-1E+10	1	-1E+10	1	-1E+10	1
4902554	45	C	05/03/2022	05:58	-135.556	49.494	0	897.90	0	3.2820	0	34.3200	0	27.322	0	888.321	0	-1e10	8	-1e10	8	-1E+10	1	-1E+10	1	-1E+10	1	-1E+10	1	-1E+10	1	-1E+10	1
4902554	45	C	05/03/2022	05:58	-135.556	49.494	0	902.70	0	3.2700	0	34.3220	0	27.325	0	893.060	0	-1e10	8	-1e10	8	-1E+10	1	-1E+10	1	-1E+10	1	-1E+10	1	-1E+10	1	-1E+10	1
4902554	45	C	05/03/2022	05:58	-135.556	49.494	0	907.60	0	3.2510	0	34.3240	0	27.328	0	897.897	0	-1e10	8	-1e10	8	-1E+10	1	-1E+10	1	-1E+10	1	-1E+10	1	-1E+10	1	-1E+10	1
4902554	45	C	05/03/2022	05:58	-135.556	49.494	0	912.50	0	3.2470	0	34.3270	0	27.331	0	902.734	0	-1e10	8	-1e10	8	-1E+10	1	-1E+10	1	-1E+10	1	-1E+10	1	-1E+10	1	-1E+10	1
4902554	45	C	05/03/2022	05:58	-135.556	49.494	0	917.90	0	3.2350	0	34.3290	0	27.334	0	908.065	0	-1e10	8	-1e10	8	-1E+10	1	-1E+10	1	-1E+10	1	-1E+10	1	-1E+10	1	-1E+10	1
4902554	45	C	05/03/2022	05:58	-135.556	49.494	0	923.30	0	3.2220	0	34.3310	0	27.337	0	913.395	0	-1e10	8	-1e10	8	-1E+10	1	-1E+10	1	-1E+10	1	-1E+10	1	-1E+10	1	-1E+10	1
4902554	45	C	05/03/2022	05:58	-135.556	49.494	0	928.10	0	3.2130	0	34.3330	0	27.339	0	918.133	0	-1e10	8	-1e10	8	-1E+10	1	-1E+10	1	-1E+10	1	-1E+10	1	-1E+10	1	-1E+10	1
4902554	45	C	05/03/2022	05:58	-135.556	49.494	0	932.80	0	3.2030	0	34.3350	0	27.342	0	922.772	0	-1e10	8	-1e10	8	-1E+10	1	-1E+10	1	-1E+10	1	-1E+10	1	-1E+10	1	-1E+10	1
4902554	45	C	05/03/2022	05:58	-135.556	49.494	0	937.90	0	3.1810	0	34.3380	0	27.346	0	927.806	0	-1e10	8	-1e10	8	-1E+10	1	-1E+10	1	-1E+10	1	-1E+10	1	-1E+10	1	-1E+10	1
4902554	45	C	05/03/2022	05:58	-135.556	49.494	0	942.80	0	3.1620	0	34.3410	0	27.350	0	932.642	0	-1e10	8	-1e10	8	-1E+10	1	-1E+10	1	-1E+10	1	-1E+10	1	-1E+10	1	-1E+10	1
4902554	45	C	05/03/2022	05:58	-135.556	49.494	0	947.70	0	3.1520	0	34.3440	0	27.354	0	937.479	0	-1e10	8	-1e10	8	-1E+10	1	-1E+10	1	-1E+10	1	-1E+10	1	-1E+10	1	-1E+10	1
4902554	45	C	05/03/2022	05:58	-135.556	49.494	0	953.10	0	3.1300	0	34.3470	0	27.358	0	942.808	0	-1e10	8	-1e10	8	-1E+10	1	-1E+10	1	-1E+10	1	-1E+10	1	-1E+10	1	-1E+10	1
4902554	45	C	05/03/2022	05:58	-135.556	49.494	0	958.00	0	3.1210	0	34.3490	0	27.360	0	947.644	0	-1e10	8	-1e10	8	-1E+10	1	-1E+10	1	-1E+10	1	-1E+10	1	-1E+10	1	-1E+10	1
4902554	45	C	05/03/2022	05:58	-135.556	49.494	0	962.90	0	3.1070	0	34.3520	0	27.364	0	952.480	0	-1e10	8	-1e10	8	-1E+10	1	-1E+10	1	-1E+10	1	-1E+10	1	-1E+10	1	-1E+10	1
4902554	45	C	05/03/2022	05:58	-135.556	49.494	0	967.90	0	3.0960	0	34.3530	0	27.366	0	957.415	0	-1e10	8	-1e10	8	-1E+10	1	-1E+10	1	-1E+10	1	-1E+10	1	-1E+10	1	-1E+10	1
4902554	45	C	05/03/2022	05:58	-135.556	49.494	0	972.90	0	3.0820	0	34.3560	0	27.370	0	962.349	0	-1e10	8	-1e10	8	-1E+10	1	-1E+10	1	-1E+10	1	-1E+10	1	-1E+10	1	-1E+10	1
4902554	45	C	05/03/2022	05:58	-135.556	49.494	0	977.90	0	3.0730	0	34.3580	0	27.372	0	967.283	0	-1e10	8	-1e10	8	-1E+10	1	-1E+10	1	-1E+10	1	-1E+10	1	-1E+10	1	-1E+10	1
4902554	45	C	05/03/2022	05:58	-135.556	49.494	0	982.90	0	3.0670	0	34.3590	0	27.373	0	972.217	0	-1e10	8	-1e10	8	-1E+10	1	-1E+10	1	-1E+10	1	-1E+10	1	-1E+10	1	-1E+10	1
4902554	45	C	05/03/2022	05:58	-135.556	49.494	0	988.00	0	3.0560	0	34.3610	0	27.376	0	977.250	0	-1e10	8	-1e10	8	-1E+10	1	-1E+10	1	-1E+10	1	-1E+10	1	-1E+10	1	-1E+10	1
4902554	45	C	05/03/2022	05:58	-135.556	49.494	0	992.80	0	3.0490	0	34.3630	0	27.378	0	981.987	0	-1e10	8	-1e10	8	-1E+10	1	-1E+10	1	-1E+10	1	-1E+10	1	-1E+10	1	-1E+10	1
4902554	45	C	05/03/2022	05:58	-135.556	49.494	0	997.90	0	3.0370	0	34.3650	0	27.381	0	987.019	0	-1e10	8	-1e10	8	-1E+10	1	-1E+10	1	-1E+10	1	-1E+10	1	-1E+10	1	-1E+10	1
4902554	45	C	05/03/2022	05:58	-135.556	49.494	0	1005.60	0	3.0250	0	34.3680	0	27.385	0	994.617	0	-1e10	8	-1e10	8	-1E+10	1	-1E+10	1	-1E+10	1	-1E+10	1	-1E+10	1	-1E+10	1
4902554	45	C	05/03/2022	05:58	-135.556	49.494	0	1015.60	0	3.0070	0	34.3710	0	27.389	0	1004.484	0	-1e10	8	-1e10	8	-1E+10	1	-1E+10	1	-1E+10	1	-1E+10	1	-1E+10	1	-1E+10	1
4902554	45	C	05/03/2022	05:58	-135.556	49.494	0	1025.60	0	2.9860	0	34.3760	0	27.395	0	1014.350	0	-1e10	8	-1e10	8	-1E+10	1	-1E+10	1	-1E+10	1	-1E+10	1	-1E+10	1	-1E+10	1
4902554	45	C	05/03/2022	05:58	-135.556	49.494	0	1035.60	0	2.9650	0	34.3800	0	27.400	0	1024.216	0	-1e10	8	-1e10	8	-1E+10	1	-1E+10	1	-1E+10	1	-1E+10	1	-1E+10	1	-1E+10	1
4902554	45	C	05/03/2022	05:58	-135.556	49.494	0	1045.30	0	2.9500	0	34.3830	0	27.404	0	1033.785	0	-1e10	8	-1e10	8	-1E+10	1	-1E+10	1	-1E+10	1	-1E+10	1	-1E+10	1	-1E+10	1
4902554	45	C	05/03/2022	05:58	-135.556	49.494	0	1055.20	0	2.9350	0	34.3860	0	27.407	0	1043.552	0	-1e10	8	-1e10	8	-1E+10	1	-1E+10	1	-1E+10	1	-1E+10	1	-1E+10	1	-1E+10	1
4902554	45	C	05/03/2022	05:58	-135.556	49.494	0	1065.30	0	2.9200	0	34.3890	0	27.411	0	1053.515	0	-1e10	8	-1e10	8	-1E+10	1	-1E+10	1	-1E+10	1	-1E+10	1	-1E+10	1	-1E+10	1
4902554	45	C	05/03/2022	05:58	-135.556	49.494	0	1075.40	0	2.9000	0	34.3930	0	27.416	0	1063.478	0	-1e10	8	-1e10	8	-1E+10	1	-1E+10	1	-1E+10	1	-1E+10	1	-1E+10	1	-1E+10	1
4902554	45	C	05/03/2022	05:58	-135.556	49.494	0	1085.50	0	2.8870	0	34.3950	0	27.419	0	1073.440	0	-1e10	8	-1e10	8	-1E+10	1	-1E+10	1	-1E+10	1	-1E+10	1	-1E+10	1	-1E+10	1
4902554	45	C	05/03/2022	05:58	-135.556	49.494	0	1095.40	0	2.8660	0	34.4000	0	27.425	0	1083.204	0	-1e10	8	-1e10	8	-1E+10	1	-1E+10	1	-1E+10	1	-1E+10	1	-1E+10	1	-1E+10	1
4902554	45	C	05/03/2022	05:58	-135.556	49.494	0	1105.70	0	2.8420	0	34.4040	0	27.430	0	1093.363	0	-1e10	8	-1e10	8	-1E+10	1	-1E+10	1	-1E+10	1	-1E+10	1	-1E+10	1	-1E+10	1
4902554	45	C	05/03/2022	05:58	-135.556	49.494	0	1115.20	0	2.8200	0	34.4090	0	27.436	0	1102.732	0	-1e10	8	-1e10	8	-1E+10	1	-1E+10	1	-1E+10	1	-1E+10	1	-1E+10	1	-1E+10	1
4902554	45	C	05/03/2022	05:58	-135.556	49.494	0	1125.30	0	2.8090	0	34.4110	0	27.439	0	1112.692	0	-1e10	8	-1e10	8	-1E+10	1	-1E+10	1	-1E+10	1	-1E+10	1	-1E+10	1	-1E+10	1
4902554	45	C	05/03/2022	05:58	-135.556	49.494	0	1135.60	0	2.7950	0	34.4130	0	27.442	0	1122.849	0	-1e10	8	-1e10	8	-1E+10	1	-1E+10	1	-1E+10	1	-1E+10	1	-1E+10	1	-1E+10	1
4902554	45	C	05/03/2022	05:58	-135.556	49.494	0	1145.50	0	2.7830	0	34.4160	0	27.445	0	1132.611	0	-1e10	8	-1e10	8	-1E+10	1	-1E+10	1	-1E+10	1	-1E+10	1	-1E+10	1	-1E+10	1
4902554	45	C	05/03/2022	05:58	-135.556	49.494	0	1155.40	0	2.7720	0	34.4180	0	27.448	0	1142.373	0	-1e10	8	-1e10	8	-1E+10	1	-1E+10	1	-1E+10	1	-1E+10	1	-1E+10	1	-1E+10	1
4902554	45	C	05/03/2022	05:58	-135.556	49.494	0	1165.50	0	2.7630	0	34.4200	0	27.450	0	1152.332	0	-1e10	8	-1e10	8	-1E+10	1	-1E+10	1	-1E+10	1	-1E+10	1	-1E+10	1	-1E+10	1
4902554	45	C	05/03/2022	05:58	-135.556	49.494	0	1175.40	0	2.7490	0	34.4230	0	27.454	0	1162.092	0	-1e10	8	-1e10	8	-1E+10	1	-1E+10	1	-1E+10	1	-1E+10	1	-1E+10	1	-1E+10	1
4902554	45	C	05/03/2022	05:58	-135.556	49.494	0	1185.40	0	2.7400	0	34.4250	0	27.456	0	1171.951	0	-1e10	8	-1e10	8	-1E+10	1	-1E+10	1	-1E+10	1	-1E+10	1	-1E+10	1	-1E+10	1
4902554	45	C	05/03/2022	05:58	-135.556	49.494	0	1195.50	0	2.7280	0	34.4270	0	27.459	0	1181.908	0	-1e10	8	-1e10	8	-1E+10	1	-1E+10	1	-1E+10	1	-1E+10	1	-1E+10	1	-1E+10	1
4902554	45	C	05/03/2022	05:58	-135.556	49.494	0	1205.40	0	2.7140	0	34.4290	0	27.462	0	1191.668	0	-1e10	8	-1e10	8	-1E+10	1	-1E+10	1	-1E+10	1	-1E+10	1	-1E+10	1	-1E+10	1
4902554	45	C	05/03/2022	05:58	-135.556	49.494	0	1215.40	0	2.7010	0	34.4320	0	27.466	0	1201.525	0	-1e10	8	-1e10	8	-1E+10	1	-1E+10	1	-1E+10	1	-1E+10	1	-1E+10	1	-1E+10	1
4902554	45	C	05/03/2022	05:58	-135.556	49.494	0	1225.60	0	2.6920	0	34.4340	0	27.468	0	1211.579	0	-1e10	8	-1e10	8	-1E+10	1	-1E+10	1	-1E+10	1	-1E+10	1	-1E+10	1	-1E+10	1
4902554	45	C	05/03/2022	05:58	-135.556	49.494	0	1235.50	0	2.6790	0	34.4370	0	27.472	0	1221.337	0	-1e10	8	-1e10	8	-1E+10	1	-1E+10	1	-1E+10	1	-1E+10	1	-1E+10	1	-1E+10	1
4902554	45	C	05/03/2022	05:58	-135.556	49.494	0	1245.50	0	2.6690	0	34.4390	0	27.474	0	1231.194	0	-1e10	8	-1e10	8	-1E+10	1	-1E+10	1	-1E+10	1	-1E+10	1	-1E+10	1	-1E+10	1
4902554	45	C	05/03/2022	05:58	-135.556	49.494	0	1255.20	0	2.6570	0	34.4420	0	27.478	0	1240.754	0	-1e10	8	-1e10	8	-1E+10	1	-1E+10	1	-1E+10	1	-1E+10	1	-1E+10	1	-1E+10	1
4902554	45	C	05/03/2022	05:58	-135.556	49.494	0	1265.60	0	2.6420	0	34.4440	0	27.480	0	1251.003	0	-1e10	8	-1e10	8	-1E+10	1	-1E+10	1	-1E+10	1	-1E+10	1	-1E+10	1	-1E+10	1
4902554	45	C	05/03/2022	05:58	-135.556	49.494	0	1275.50	0	2.6350	0	34.4460	0	27.483	0	1260.759	0	-1e10	8	-1e10	8	-1E+10	1	-1E+10	1	-1E+10	1	-1E+10	1	-1E+10	1	-1E+10	1
4902554	45	C	05/03/2022	05:58	-135.556	49.494	0	1285.40	0	2.6210	0	34.4480	0	27.486	0	1270.515	0	-1e10	8	-1e10	8	-1E+10	1	-1E+10	1	-1E+10	1	-1E+10	1	-1E+10	1	-1E+10	1
4902554	45	C	05/03/2022	05:58	-135.556	49.494	0	1295.20	0	2.6090	0	34.4500	0	27.488	0	1280.172	0	-1e10	8	-1e10	8	-1E+10	1	-1E+10	1	-1E+10	1	-1E+10	1	-1E+10	1	-1E+10	1
4902554	45	C	05/03/2022	05:58	-135.556	49.494	0	1305.40	0	2.5970	0	34.4530	0	27.492	0	1290.222	0	-1e10	8	-1e10	8	-1E+10	1	-1E+10	1	-1E+10	1	-1E+10	1	-1E+10	1	-1E+10	1
4902554	45	C	05/03/2022	05:58	-135.556	49.494	0	1315.30	0	2.5830	0	34.4550	0	27.495	0	1299.976	0	-1e10	8	-1e10	8	-1E+10	1	-1E+10	1	-1E+10	1	-1E+10	1	-1E+10	1	-1E+10	1
4902554	45	C	05/03/2022	05:58	-135.556	49.494	0	1325.40	0	2.5760	0	34.4570	0	27.497	0	1309.927	0	-1e10	8	-1e10	8	-1E+10	1	-1E+10	1	-1E+10	1	-1E+10	1	-1E+10	1	-1E+10	1
4902554	45	C	05/03/2022	05:58	-135.556	49.494	0	1335.70	0	2.5680	0	34.4580	0	27.498	0	1320.075	0	-1e10	8	-1e10	8	-1E+10	1	-1E+10	1	-1E+10	1	-1E+10	1	-1E+10	1	-1E+10	1
4902554	45	C	05/03/2022	05:58	-135.556	49.494	0	1345.70	0	2.5600	0	34.4600	0	27.501	0	1329.926	0	-1e10	8	-1e10	8	-1E+10	1	-1E+10	1	-1E+10	1	-1E+10	1	-1E+10	1	-1E+10	1
4902554	45	C	05/03/2022	05:58	-135.556	49.494	0	1355.60	0	2.5470	0	34.4620	0	27.503	0	1339.679	0	-1e10	8	-1e10	8	-1E+10	1	-1E+10	1	-1E+10	1	-1E+10	1	-1E+10	1	-1E+10	1
4902554	45	C	05/03/2022	05:58	-135.556	49.494	0	1365.30	0	2.5360	0	34.4650	0	27.507	0	1349.234	0	-1e10	8	-1e10	8	-1E+10	1	-1E+10	1	-1E+10	1	-1E+10	1	-1E+10	1	-1E+10	1
4902554	45	C	05/03/2022	05:58	-135.556	49.494	0	1375.50	0	2.5200	0	34.4670	0	27.510	0	1359.281	0	-1e10	8	-1e10	8	-1E+10	1	-1E+10	1	-1E+10	1	-1E+10	1	-1E+10	1	-1E+10	1
4902554	45	C	05/03/2022	05:58	-135.556	49.494	0	1385.70	0	2.5050	0	34.4710	0	27.514	0	1369.328	0	-1e10	8	-1e10	8	-1E+10	1	-1E+10	1	-1E+10	1	-1E+10	1	-1E+10	1	-1E+10	1
4902554	45	C	05/03/2022	05:58	-135.556	49.494	0	1395.50	0	2.4860	0	34.4740	0	27.518	0	1378.980	0	-1e10	8	-1e10	8	-1E+10	1	-1E+10	1	-1E+10	1	-1E+10	1	-1E+10	1	-1E+10	1
4902554	45	C	05/03/2022	05:58	-135.556	49.494	0	1405.50	0	2.4780	0	34.4760	0	27.521	0	1388.829	0	-1e10	8	-1e10	8	-1E+10	1	-1E+10	1	-1E+10	1	-1E+10	1	-1E+10	1	-1E+10	1
4902554	45	C	05/03/2022	05:58	-135.556	49.494	0	1415.50	0	2.4690	0	34.4780	0	27.523	0	1398.677	0	-1e10	8	-1e10	8	-1E+10	1	-1E+10	1	-1E+10	1	-1E+10	1	-1E+10	1	-1E+10	1
4902554	45	C	05/03/2022	05:58	-135.556	49.494	0	1425.50	0	2.4500	0	34.4820	0	27.528	0	1408.525	0	-1e10	8	-1e10	8	-1E+10	1	-1E+10	1	-1E+10	1	-1E+10	1	-1E+10	1	-1E+10	1
4902554	45	C	05/03/2022	05:58	-135.556	49.494	0	1435.30	0	2.4410	0	34.4840	0	27.530	0	1418.175	0	-1e10	8	-1e10	8	-1E+10	1	-1E+10	1	-1E+10	1	-1E+10	1	-1E+10	1	-1E+10	1
4902554	45	C	05/03/2022	05:58	-135.556	49.494	0	1445.10	0	2.4260	0	34.4870	0	27.534	0	1427.825	0	-1e10	8	-1e10	8	-1E+10	1	-1E+10	1	-1E+10	1	-1E+10	1	-1E+10	1	-1E+10	1
4902554	45	C	05/03/2022	05:58	-135.556	49.494	0	1455.60	0	2.4200	0	34.4880	0	27.535	0	1438.164	0	-1e10	8	-1e10	8	-1E+10	1	-1E+10	1	-1E+10	1	-1E+10	1	-1E+10	1	-1E+10	1
4902554	45	C	05/03/2022	05:58	-135.556	49.494	0	1465.60	0	2.4110	0	34.4900	0	27.538	0	1448.010	0	-1e10	8	-1e10	8	-1E+10	1	-1E+10	1	-1E+10	1	-1E+10	1	-1E+10	1	-1E+10	1
4902554	45	C	05/03/2022	05:58	-135.556	49.494	0	1475.60	0	2.3980	0	34.4930	0	27.541	0	1457.855	0	-1e10	8	-1e10	8	-1E+10	1	-1E+10	1	-1E+10	1	-1E+10	1	-1E+10	1	-1E+10	1
4902554	45	C	05/03/2022	05:58	-135.556	49.494	0	1485.70	0	2.3880	0	34.4950	0	27.544	0	1467.799	0	-1e10	8	-1e10	8	-1E+10	1	-1E+10	1	-1E+10	1	-1E+10	1	-1E+10	1	-1E+10	1
4902554	45	C	05/03/2022	05:58	-135.556	49.494	0	1495.30	0	2.3820	0	34.4960	0	27.545	0	1477.250	0	-1e10	8	-1e10	8	-1E+10	1	-1E+10	1	-1E+10	1	-1E+10	1	-1E+10	1	-1E+10	1
4902554	45	C	05/03/2022	05:58	-135.556	49.494	0	1505.40	0	2.3750	0	34.4980	0	27.547	0	1487.192	0	-1e10	8	-1e10	8	-1E+10	1	-1E+10	1	-1E+10	1	-1E+10	1	-1E+10	1	-1E+10	1
4902554	45	C	05/03/2022	05:58	-135.556	49.494	0	1515.40	0	2.3640	0	34.5000	0	27.550	0	1497.036	0	-1e10	8	-1e10	8	-1E+10	1	-1E+10	1	-1E+10	1	-1E+10	1	-1E+10	1	-1E+10	1
4902554	45	C	05/03/2022	05:58	-135.556	49.494	0	1525.40	0	2.3570	0	34.5010	0	27.551	0	1506.879	0	-1e10	8	-1e10	8	-1E+10	1	-1E+10	1	-1E+10	1	-1E+10	1	-1E+10	1	-1E+10	1
4902554	45	C	05/03/2022	05:58	-135.556	49.494	0	1535.30	0	2.3480	0	34.5030	0	27.554	0	1516.623	0	-1e10	8	-1e10	8	-1E+10	1	-1E+10	1	-1E+10	1	-1E+10	1	-1E+10	1	-1E+10	1
4902554	45	C	05/03/2022	05:58	-135.556	49.494	0	1545.20	0	2.3410	0	34.5040	0	27.555	0	1526.367	0	-1e10	8	-1e10	8	-1E+10	1	-1E+10	1	-1E+10	1	-1E+10	1	-1E+10	1	-1E+10	1
4902554	45	C	05/03/2022	05:58	-135.556	49.494	0	1555.60	0	2.3300	0	34.5070	0	27.559	0	1536.603	0	-1e10	8	-1e10	8	-1E+10	1	-1E+10	1	-1E+10	1	-1E+10	1	-1E+10	1	-1E+10	1
4902554	45	C	05/03/2022	05:58	-135.556	49.494	0	1565.50	0	2.3160	0	34.5100	0	27.562	0	1546.346	0	-1e10	8	-1e10	8	-1E+10	1	-1E+10	1	-1E+10	1	-1E+10	1	-1E+10	1	-1E+10	1
4902554	45	C	05/03/2022	05:58	-135.556	49.494	0	1575.30	0	2.3080	0	34.5120	0	27.565	0	1555.990	0	-1e10	8	-1e10	8	-1E+10	1	-1E+10	1	-1E+10	1	-1E+10	1	-1E+10	1	-1E+10	1
4902554	45	C	05/03/2022	05:58	-135.556	49.494	0	1585.50	0	2.3010	0	34.5130	0	27.566	0	1566.027	0	-1e10	8	-1e10	8	-1E+10	1	-1E+10	1	-1E+10	1	-1E+10	1	-1E+10	1	-1E+10	1
4902554	45	C	05/03/2022	05:58	-135.556	49.494	0	1595.70	0	2.2870	0	34.5160	0	27.570	0	1576.064	0	-1e10	8	-1e10	8	-1E+10	1	-1E+10	1	-1E+10	1	-1E+10	1	-1E+10	1	-1E+10	1
4902554	45	C	05/03/2022	05:58	-135.556	49.494	0	1605.60	0	2.2740	0	34.5180	0	27.572	0	1585.805	0	-1e10	8	-1e10	8	-1E+10	1	-1E+10	1	-1E+10	1	-1E+10	1	-1E+10	1	-1E+10	1
4902554	45	C	05/03/2022	05:58	-135.556	49.494	0	1615.40	0	2.2660	0	34.5200	0	27.575	0	1595.447	0	-1e10	8	-1e10	8	-1E+10	1	-1E+10	1	-1E+10	1	-1E+10	1	-1E+10	1	-1E+10	1
4902554	45	C	05/03/2022	05:58	-135.556	49.494	0	1625.30	0	2.2570	0	34.5220	0	27.577	0	1605.187	0	-1e10	8	-1e10	8	-1E+10	1	-1E+10	1	-1E+10	1	-1E+10	1	-1E+10	1	-1E+10	1
4902554	45	C	05/03/2022	05:58	-135.556	49.494	0	1635.20	0	2.2390	0	34.5250	0	27.581	0	1614.927	0	-1e10	8	-1e10	8	-1E+10	1	-1E+10	1	-1E+10	1	-1E+10	1	-1E+10	1	-1E+10	1
4902554	45	C	05/03/2022	05:58	-135.556	49.494	0	1645.30	0	2.2230	0	34.5280	0	27.585	0	1624.863	0	-1e10	8	-1e10	8	-1E+10	1	-1E+10	1	-1E+10	1	-1E+10	1	-1E+10	1	-1E+10	1
4902554	45	C	05/03/2022	05:58	-135.556	49.494	0	1655.30	0	2.2130	0	34.5310	0	27.588	0	1634.700	0	-1e10	8	-1e10	8	-1E+10	1	-1E+10	1	-1E+10	1	-1E+10	1	-1E+10	1	-1E+10	1
4902554	45	C	05/03/2022	05:58	-135.556	49.494	0	1665.20	0	2.2000	0	34.5330	0	27.591	0	1644.439	0	-1e10	8	-1e10	8	-1E+10	1	-1E+10	1	-1E+10	1	-1E+10	1	-1E+10	1	-1E+10	1
4902554	45	C	05/03/2022	05:58	-135.556	49.494	0	1675.30	0	2.1900	0	34.5350	0	27.593	0	1654.373	0	-1e10	8	-1e10	8	-1E+10	1	-1E+10	1	-1E+10	1	-1E+10	1	-1E+10	1	-1E+10	1
4902554	45	C	05/03/2022	05:58	-135.556	49.494	0	1685.60	0	2.1830	0	34.5370	0	27.595	0	1664.504	0	-1e10	8	-1e10	8	-1E+10	1	-1E+10	1	-1E+10	1	-1E+10	1	-1E+10	1	-1E+10	1
4902554	45	C	05/03/2022	05:58	-135.556	49.494	0	1695.70	0	2.1720	0	34.5390	0	27.598	0	1674.438	0	-1e10	8	-1e10	8	-1E+10	1	-1E+10	1	-1E+10	1	-1E+10	1	-1E+10	1	-1E+10	1
4902554	45	C	05/03/2022	05:58	-135.556	49.494	0	1705.50	0	2.1610	0	34.5410	0	27.600	0	1684.076	0	-1e10	8	-1e10	8	-1E+10	1	-1E+10	1	-1E+10	1	-1E+10	1	-1E+10	1	-1E+10	1
4902554	45	C	05/03/2022	05:58	-135.556	49.494	0	1715.20	0	2.1530	0	34.5430	0	27.603	0	1693.616	0	-1e10	8	-1e10	8	-1E+10	1	-1E+10	1	-1E+10	1	-1E+10	1	-1E+10	1	-1E+10	1
4902554	45	C	05/03/2022	05:58	-135.556	49.494	0	1725.60	0	2.1440	0	34.5450	0	27.605	0	1703.843	0	-1e10	8	-1e10	8	-1E+10	1	-1E+10	1	-1E+10	1	-1E+10	1	-1E+10	1	-1E+10	1
4902554	45	C	05/03/2022	05:58	-135.556	49.494	0	1735.40	0	2.1360	0	34.5460	0	27.606	0	1713.480	0	-1e10	8	-1e10	8	-1E+10	1	-1E+10	1	-1E+10	1	-1E+10	1	-1E+10	1	-1E+10	1
4902554	45	C	05/03/2022	05:58	-135.556	49.494	0	1745.40	0	2.1290	0	34.5480	0	27.609	0	1723.313	0	-1e10	8	-1e10	8	-1E+10	1	-1E+10	1	-1E+10	1	-1E+10	1	-1E+10	1	-1E+10	1
4902554	45	C	05/03/2022	05:58	-135.556	49.494	0	1755.40	0	2.1210	0	34.5490	0	27.610	0	1733.146	0	-1e10	8	-1e10	8	-1E+10	1	-1E+10	1	-1E+10	1	-1E+10	1	-1E+10	1	-1E+10	1
4902554	45	C	05/03/2022	05:58	-135.556	49.494	0	1765.50	0	2.1170	0	34.5500	0	27.611	0	1743.076	0	-1e10	8	-1e10	8	-1E+10	1	-1E+10	1	-1E+10	1	-1E+10	1	-1E+10	1	-1E+10	1
4902554	45	C	05/03/2022	05:58	-135.556	49.494	0	1775.80	0	2.1100	0	34.5510	0	27.613	0	1753.203	0	-1e10	8	-1e10	8	-1E+10	1	-1E+10	1	-1E+10	1	-1E+10	1	-1E+10	1	-1E+10	1
4902554	45	C	05/03/2022	05:58	-135.556	49.494	0	1785.60	0	2.1050	0	34.5530	0	27.615	0	1762.838	0	-1e10	8	-1e10	8	-1E+10	1	-1E+10	1	-1E+10	1	-1E+10	1	-1E+10	1	-1E+10	1
4902554	45	C	05/03/2022	05:58	-135.556	49.494	0	1795.50	0	2.1000	0	34.5540	0	27.616	0	1772.570	0	-1e10	8	-1e10	8	-1E+10	1	-1E+10	1	-1E+10	1	-1E+10	1	-1E+10	1	-1E+10	1
4902554	45	C	05/03/2022	05:58	-135.556	49.494	0	1805.70	0	2.0900	0	34.5560	0	27.618	0	1782.597	0	-1e10	8	-1e10	8	-1E+10	1	-1E+10	1	-1E+10	1	-1E+10	1	-1E+10	1	-1E+10	1
4902554	45	C	05/03/2022	05:58	-135.556	49.494	0	1815.60	0	2.0850	0	34.5570	0	27.620	0	1792.329	0	-1e10	8	-1e10	8	-1E+10	1	-1E+10	1	-1E+10	1	-1E+10	1	-1E+10	1	-1E+10	1
4902554	45	C	05/03/2022	05:58	-135.556	49.494	0	1825.10	0	2.0780	0	34.5580	0	27.621	0	1801.667	0	-1e10	8	-1e10	8	-1E+10	1	-1E+10	1	-1E+10	1	-1E+10	1	-1E+10	1	-1E+10	1
4902554	45	C	05/03/2022	05:58	-135.556	49.494	0	1835.30	0	2.0690	0	34.5600	0	27.623	0	1811.692	0	-1e10	8	-1e10	8	-1E+10	1	-1E+10	1	-1E+10	1	-1E+10	1	-1E+10	1	-1E+10	1
4902554	45	C	05/03/2022	05:58	-135.556	49.494	0	1845.50	0	2.0630	0	34.5610	0	27.625	0	1821.717	0	-1e10	8	-1e10	8	-1E+10	1	-1E+10	1	-1E+10	1	-1E+10	1	-1E+10	1	-1E+10	1
4902554	45	C	05/03/2022	05:58	-135.556	49.494	0	1855.40	0	2.0560	0	34.5630	0	27.627	0	1831.447	0	-1e10	8	-1e10	8	-1E+10	1	-1E+10	1	-1E+10	1	-1E+10	1	-1E+10	1	-1E+10	1
4902554	45	C	05/03/2022	05:58	-135.556	49.494	0	1865.30	0	2.0460	0	34.5650	0	27.629	0	1841.177	0	-1e10	8	-1e10	8	-1E+10	1	-1E+10	1	-1E+10	1	-1E+10	1	-1E+10	1	-1E+10	1
4902554	45	C	05/03/2022	05:58	-135.556	49.494	0	1875.20	0	2.0340	0	34.5670	0	27.632	0	1850.905	0	-1e10	8	-1e10	8	-1E+10	1	-1E+10	1	-1E+10	1	-1E+10	1	-1E+10	1	-1E+10	1
4902554	45	C	05/03/2022	05:58	-135.556	49.494	0	1885.20	0	2.0230	0	34.5690	0	27.635	0	1860.732	0	-1e10	8	-1e10	8	-1E+10	1	-1E+10	1	-1E+10	1	-1E+10	1	-1E+10	1	-1E+10	1
4902554	45	C	05/03/2022	05:58	-135.556	49.494	0	1895.30	0	2.0130	0	34.5710	0	27.637	0	1870.657	0	-1e10	8	-1e10	8	-1E+10	1	-1E+10	1	-1E+10	1	-1E+10	1	-1E+10	1	-1E+10	1
4902554	45	C	05/03/2022	05:58	-135.556	49.494	0	1905.40	0	2.0040	0	34.5730	0	27.639	0	1880.581	0	-1e10	8	-1e10	8	-1E+10	1	-1E+10	1	-1E+10	1	-1E+10	1	-1E+10	1	-1E+10	1
4902554	45	C	05/03/2022	05:58	-135.556	49.494	0	1915.60	0	1.9960	0	34.5750	0	27.642	0	1890.603	0	-1e10	8	-1e10	8	-1E+10	1	-1E+10	1	-1E+10	1	-1E+10	1	-1E+10	1	-1E+10	1
4902554	45	C	05/03/2022	05:58	-135.556	49.494	0	1925.50	0	1.9880	0	34.5760	0	27.643	0	1900.329	0	-1e10	8	-1e10	8	-1E+10	1	-1E+10	1	-1E+10	1	-1E+10	1	-1E+10	1	-1E+10	1
4902554	45	C	05/03/2022	05:58	-135.556	49.494	0	1935.30	0	1.9800	0	34.5770	0	27.645	0	1909.957	0	-1e10	8	-1e10	8	-1E+10	1	-1E+10	1	-1E+10	1	-1E+10	1	-1E+10	1	-1E+10	1
4902554	45	C	05/03/2022	05:58	-135.556	49.494	0	1945.20	0	1.9680	0	34.5800	0	27.648	0	1919.683	0	-1e10	8	-1e10	8	-1E+10	1	-1E+10	1	-1E+10	1	-1E+10	1	-1E+10	1	-1E+10	1
4902554	45	C	05/03/2022	05:58	-135.556	49.494	0	1955.40	0	1.9610	0	34.5810	0	27.649	0	1929.703	0	-1e10	8	-1e10	8	-1E+10	1	-1E+10	1	-1E+10	1	-1E+10	1	-1E+10	1	-1E+10	1
4902554	45	C	05/03/2022	05:58	-135.556	49.494	0	1965.30	0	1.9530	0	34.5830	0	27.652	0	1939.428	0	-1e10	8	-1e10	8	-1E+10	1	-1E+10	1	-1E+10	1	-1E+10	1	-1E+10	1	-1E+10	1
4902554	45	C	05/03/2022	05:58	-135.556	49.494	0	1975.30	0	1.9470	0	34.5840	0	27.653	0	1949.251	0	-1e10	8	-1e10	8	-1E+10	1	-1E+10	1	-1E+10	1	-1E+10	1	-1E+10	1	-1E+10	1
4902554	45	C	05/03/2022	05:58	-135.556	49.494	0	1985.50	0	1.9400	0	34.5860	0	27.655	0	1959.269	0	-1e10	8	-1e10	8	-1E+10	1	-1E+10	1	-1E+10	1	-1E+10	1	-1E+10	1	-1E+10	1
4902554	45	C	05/03/2022	05:58	-135.556	49.494	0	1995.40	0	1.9350	0	34.5870	0	27.656	0	1968.993	0	-1e10	8	-1e10	8	-1E+10	1	-1E+10	1	-1E+10	1	-1E+10	1	-1E+10	1	-1E+10	1
4902554	45	C	05/03/2022	05:58	-135.556	49.494	0	2005.90	0	1.9340	0	34.5880	0	27.657	0	1979.305	0	-1e10	8	-1e10	8	-1E+10	1	-1E+10	1	-1E+10	1	-1E+10	1	-1E+10	1	-1E+10	1
4902554	45	C	05/03/2022	05:58	-135.556	49.494	0	2011.00	0	1.9310	0	34.5890	0	27.658	0	1984.314	0	-1e10	8	-1e10	8	-1E+10	1	-1E+10	1	-1E+10	1	-1E+10	1	-1E+10	1	-1E+10	1
4902554	45	C	05/03/2022	05:58	-135.556	49.494	0																										
4902554	46	C	05/13/2022	10:59	-135.373	49.489	0	0.30	0	7.8610	0	32.3550	0	25.217	0	0.297	0	-1e10	1	-1e10	1	-1E+10	1	-1E+10	1	-1E+10	1	-1E+10	1	-1E+10	1	-1E+10	1
4902554	46	C	05/13/2022	10:59	-135.373	49.489	0	0.40	0	7.8640	0	32.3560	0	25.218	0	0.397	0	-1e10	8	-1e10	8	-1E+10	1	-1E+10	1	-1E+10	1	-1E+10	1	-1E+10	1	-1E+10	1
4902554	46	C	05/13/2022	10:59	-135.373	49.489	0	1.00	0	7.8660	0	32.3550	0	25.217	0	0.991	0	-1e10	8	-1e10	8	-1E+10	1	-1E+10	1	-1E+10	1	-1E+10	1	-1E+10	1	-1E+10	1
4902554	46	C	05/13/2022	10:59	-135.373	49.489	0	1.90	0	7.8670	0	32.3550	0	25.216	0	1.884	0	-1e10	8	-1e10	8	-1E+10	1	-1E+10	1	-1E+10	1	-1E+10	1	-1E+10	1	-1E+10	1
4902554	46	C	05/13/2022	10:59	-135.373	49.489	0	3.20	0	7.8700	0	32.3530	0	25.215	0	3.173	0	-1e10	8	-1e10	8	-1E+10	1	-1E+10	1	-1E+10	1	-1E+10	1	-1E+10	1	-1E+10	1
4902554	46	C	05/13/2022	10:59	-135.373	49.489	0	3.90	0	7.8700	0	32.3540	0	25.215	0	3.867	0	-1e10	8	-1e10	8	-1E+10	1	-1E+10	1	-1E+10	1	-1E+10	1	-1E+10	1	-1E+10	1
4902554	46	C	05/13/2022	10:59	-135.373	49.489	0	4.90	0	7.8700	0	32.3550	0	25.216	0	4.858	0	-1e10	8	-1e10	8	-1E+10	1	-1E+10	1	-1E+10	1	-1E+10	1	-1E+10	1	-1E+10	1
4902554	46	C	05/13/2022	10:59	-135.373	49.489	0	6.00	0	7.8660	0	32.3560	0	25.217	0	5.949	0	-1e10	8	-1e10	8	-1E+10	1	-1E+10	1	-1E+10	1	-1E+10	1	-1E+10	1	-1E+10	1
4902554	46	C	05/13/2022	10:59	-135.373	49.489	0	7.10	0	7.8690	0	32.3550	0	25.216	0	7.039	0	-1e10	8	-1e10	8	-1E+10	1	-1E+10	1	-1E+10	1	-1E+10	1	-1E+10	1	-1E+10	1
4902554	46	C	05/13/2022	10:59	-135.373	49.489	0	8.00	0	7.8700	0	32.3560	0	25.217	0	7.932	0	-1e10	8	-1e10	8	-1E+10	1	-1E+10	1	-1E+10	1	-1E+10	1	-1E+10	1	-1E+10	1
4902554	46	C	05/13/2022	10:59	-135.373	49.489	0	8.80	0	7.8720	0	32.3550	0	25.216	0	8.725	0	-1e10	8	-1e10	8	-1E+10	1	-1E+10	1	-1E+10	1	-1E+10	1	-1E+10	1	-1E+10	1
4902554	46	C	05/13/2022	10:59	-135.373	49.489	0	9.90	0	7.8700	0	32.3550	0	25.216	0	9.815	0	-1e10	8	-1e10	8	-1E+10	1	-1E+10	1	-1E+10	1	-1E+10	1	-1E+10	1	-1E+10	1
4902554	46	C	05/13/2022	10:59	-135.373	49.489	0	11.00	0	7.8680	0	32.3550	0	25.216	0	10.906	0	-1e10	8	-1e10	8	-1E+10	1	-1E+10	1	-1E+10	1	-1E+10	1	-1E+10	1	-1E+10	1
4902554	46	C	05/13/2022	10:59	-135.373	49.489	0	12.20	0	7.8700	0	32.3550	0	25.216	0	12.096	0	-1e10	8	-1e10	8	-1E+10	1	-1E+10	1	-1E+10	1	-1E+10	1	-1E+10	1	-1E+10	1
4902554	46	C	05/13/2022	10:59	-135.373	49.489	0	13.10	0	7.8690	0	32.3550	0	25.216	0	12.988	0	-1e10	8	-1e10	8	-1E+10	1	-1E+10	1	-1E+10	1	-1E+10	1	-1E+10	1	-1E+10	1
4902554	46	C	05/13/2022	10:59	-135.373	49.489	0	13.90	0	7.8680	0	32.3550	0	25.217	0	13.781	0	-1e10	8	-1e10	8	-1E+10	1	-1E+10	1	-1E+10	1	-1E+10	1	-1E+10	1	-1E+10	1
4902554	46	C	05/13/2022	10:59	-135.373	49.489	0	15.10	0	7.8690	0	32.3550	0	25.216	0	14.971	0	-1e10	8	-1e10	8	-1E+10	1	-1E+10	1	-1E+10	1	-1E+10	1	-1E+10	1	-1E+10	1
4902554	46	C	05/13/2022	10:59	-135.373	49.489	0	16.10	0	7.8680	0	32.3550	0	25.217	0	15.962	0	-1e10	8	-1e10	8	-1E+10	1	-1E+10	1	-1E+10	1	-1E+10	1	-1E+10	1	-1E+10	1
4902554	46	C	05/13/2022	10:59	-135.373	49.489	0	17.00	0	7.8690	0	32.3550	0	25.216	0	16.854	0	-1e10	8	-1e10	8	-1E+10	1	-1E+10	1	-1E+10	1	-1E+10	1	-1E+10	1	-1E+10	1
4902554	46	C	05/13/2022	10:59	-135.373	49.489	0	17.90	0	7.8680	0	32.3550	0	25.217	0	17.747	0	-1e10	8	-1e10	8	-1E+10	1	-1E+10	1	-1E+10	1	-1E+10	1	-1E+10	1	-1E+10	1
4902554	46	C	05/13/2022	10:59	-135.373	49.489	0	18.80	0	7.8690	0	32.3550	0	25.216	0	18.639	0	-1e10	8	-1e10	8	-1E+10	1	-1E+10	1	-1E+10	1	-1E+10	1	-1E+10	1	-1E+10	1
4902554	46	C	05/13/2022	10:59	-135.373	49.489	0	20.10	0	7.8700	0	32.3550	0	25.216	0	19.928	0	-1e10	8	-1e10	8	-1E+10	1	-1E+10	1	-1E+10	1	-1E+10	1	-1E+10	1	-1E+10	1
4902554	46	C	05/13/2022	10:59	-135.373	49.489	0	21.00	0	7.8700	0	32.3550	0	25.216	0	20.820	0	-1e10	8	-1e10	8	-1E+10	1	-1E+10	1	-1E+10	1	-1E+10	1	-1E+10	1	-1E+10	1
4902554	46	C	05/13/2022	10:59	-135.373	49.489	0	22.00	0	7.8710	0	32.3550	0	25.216	0	21.811	0	-1e10	8	-1e10	8	-1E+10	1	-1E+10	1	-1E+10	1	-1E+10	1	-1E+10	1	-1E+10	1
4902554	46	C	05/13/2022	10:59	-135.373	49.489	0	23.10	0	7.8710	0	32.3550	0	25.216	0	22.902	0	-1e10	8	-1e10	8	-1E+10	1	-1E+10	1	-1E+10	1	-1E+10	1	-1E+10	1	-1E+10	1
4902554	46	C	05/13/2022	10:59	-135.373	49.489	0	23.80	0	7.8710	0	32.3550	0	25.216	0	23.596	0	-1e10	8	-1e10	8	-1E+10	1	-1E+10	1	-1E+10	1	-1E+10	1	-1E+10	1	-1E+10	1
4902554	46	C	05/13/2022	10:59	-135.373	49.489	0	25.00	0	7.8710	0	32.3550	0	25.216	0	24.785	0	-1e10	8	-1e10	8	-1E+10	1	-1E+10	1	-1E+10	1	-1E+10	1	-1E+10	1	-1E+10	1
4902554	46	C	05/13/2022	10:59	-135.373	49.489	0	26.20	0	7.8720	0	32.3550	0	25.216	0	25.975	0	-1e10	8	-1e10	8	-1E+10	1	-1E+10	1	-1E+10	1	-1E+10	1	-1E+10	1	-1E+10	1
4902554	46	C	05/13/2022	10:59	-135.373	49.489	0	26.90	0	7.8720	0	32.3550	0	25.216	0	26.669	0	-1e10	8	-1e10	8	-1E+10	1	-1E+10	1	-1E+10	1	-1E+10	1	-1E+10	1	-1E+10	1
4902554	46	C	05/13/2022	10:59	-135.373	49.489	0	28.00	0	7.8720	0	32.3550	0	25.216	0	27.759	0	-1e10	8	-1e10	8	-1E+10	1	-1E+10	1	-1E+10	1	-1E+10	1	-1E+10	1	-1E+10	1
4902554	46	C	05/13/2022	10:59	-135.373	49.489	0	29.10	0	7.8720	0	32.3560	0	25.217	0	28.850	0	-1e10	8	-1e10	8	-1E+10	1	-1E+10	1	-1E+10	1	-1E+10	1	-1E+10	1	-1E+10	1
4902554	46	C	05/13/2022	10:59	-135.373	49.489	0	29.80	0	7.8720	0	32.3550	0	25.216	0	29.544	0	-1e10	8	-1e10	8	-1E+10	1	-1E+10	1	-1E+10	1	-1E+10	1	-1E+10	1	-1E+10	1
4902554	46	C	05/13/2022	10:59	-135.373	49.489	0	30.90	0	7.8730	0	32.3550	0	25.216	0	30.634	0	-1e10	8	-1e10	8	-1E+10	1	-1E+10	1	-1E+10	1	-1E+10	1	-1E+10	1	-1E+10	1
4902554	46	C	05/13/2022	10:59	-135.373	49.489	0	32.00	0	7.8730	0	32.3550	0	25.216	0	31.725	0	-1e10	8	-1e10	8	-1E+10	1	-1E+10	1	-1E+10	1	-1E+10	1	-1E+10	1	-1E+10	1
4902554	46	C	05/13/2022	10:59	-135.373	49.489	0	33.10	0	7.8700	0	32.3550	0	25.216	0	32.815	0	-1e10	8	-1e10	8	-1E+10	1	-1E+10	1	-1E+10	1	-1E+10	1	-1E+10	1	-1E+10	1
4902554	46	C	05/13/2022	10:59	-135.373	49.489	0	33.80	0	7.8710	0	32.3560	0	25.217	0	33.509	0	-1e10	8	-1e10	8	-1E+10	1	-1E+10	1	-1E+10	1	-1E+10	1	-1E+10	1	-1E+10	1
4902554	46	C	05/13/2022	10:59	-135.373	49.489	0	34.90	0	7.8710	0	32.3550	0	25.216	0	34.599	0	-1e10	8	-1e10	8	-1E+10	1	-1E+10	1	-1E+10	1	-1E+10	1	-1E+10	1	-1E+10	1
4902554	46	C	05/13/2022	10:59	-135.373	49.489	0	36.00	0	7.8720	0	32.3550	0	25.216	0	35.690	0	-1e10	8	-1e10	8	-1E+10	1	-1E+10	1	-1E+10	1	-1E+10	1	-1E+10	1	-1E+10	1
4902554	46	C	05/13/2022	10:59	-135.373	49.489	0	37.20	0	7.8650	0	32.3550	0	25.217	0	36.879	0	-1e10	8	-1e10	8	-1E+10	1	-1E+10	1	-1E+10	1	-1E+10	1	-1E+10	1	-1E+10	1
4902554	46	C	05/13/2022	10:59	-135.373	49.489	0	38.00	0	7.8500	0	32.3570	0	25.221	0	37.673	0	-1e10	8	-1e10	8	-1E+10	1	-1E+10	1	-1E+10	1	-1E+10	1	-1E+10	1	-1E+10	1
4902554	46	C	05/13/2022	10:59	-135.373	49.489	0	39.10	0	7.8370	0	32.3560	0	25.222	0	38.763	0	-1e10	8	-1e10	8	-1E+10	1	-1E+10	1	-1E+10	1	-1E+10	1	-1E+10	1	-1E+10	1
4902554	46	C	05/13/2022	10:59	-135.373	49.489	0	39.80	0	7.8350	0	32.3560	0	25.222	0	39.457	0	-1e10	8	-1e10	8	-1E+10	1	-1E+10	1	-1E+10	1	-1E+10	1	-1E+10	1	-1E+10	1
4902554	46	C	05/13/2022	10:59	-135.373	49.489	0	41.00	0	7.8320	0	32.3550	0	25.222	0	40.646	0	-1e10	8	-1e10	8	-1E+10	1	-1E+10	1	-1E+10	1	-1E+10	1	-1E+10	1	-1E+10	1
4902554	46	C	05/13/2022	10:59	-135.373	49.489	0	42.10	0	7.8000	0	32.3530	0	25.225	0	41.737	0	-1e10	8	-1e10	8	-1E+10	1	-1E+10	1	-1E+10	1	-1E+10	1	-1E+10	1	-1E+10	1
4902554	46	C	05/13/2022	10:59	-135.373	49.489	0	42.90	0	7.7600	0	32.3570	0	25.234	0	42.530	0	-1e10	8	-1e10	8	-1E+10	1	-1E+10	1	-1E+10	1	-1E+10	1	-1E+10	1	-1E+10	1
4902554	46	C	05/13/2022	10:59	-135.373	49.489	0	44.20	0	7.7390	0	32.3500	0	25.231	0	43.818	0	-1e10	8	-1e10	8	-1E+10	1	-1E+10	1	-1E+10	1	-1E+10	1	-1E+10	1	-1E+10	1
4902554	46	C	05/13/2022	10:59	-135.373	49.489	0	45.10	0	7.6450	0	32.3620	0	25.254	0	44.711	0	-1e10	8	-1e10	8	-1E+10	1	-1E+10	1	-1E+10	1	-1E+10	1	-1E+10	1	-1E+10	1
4902554	46	C	05/13/2022	10:59	-135.373	49.489	0	46.00	0	7.6040	0	32.3580	0	25.257	0	45.603	0	-1e10	8	-1e10	8	-1E+10	1	-1E+10	1	-1E+10	1	-1E+10	1	-1E+10	1	-1E+10	1
4902554	46	C	05/13/2022	10:59	-135.373	49.489	0	46.70	0	7.5490	0	32.3610	0	25.267	0	46.297	0	-1e10	8	-1e10	8	-1E+10	1	-1E+10	1	-1E+10	1	-1E+10	1	-1E+10	1	-1E+10	1
4902554	46	C	05/13/2022	10:59	-135.373	49.489	0	47.70	0	7.4360	0	32.3610	0	25.282	0	47.288	0	-1e10	8	-1e10	8	-1E+10	1	-1E+10	1	-1E+10	1	-1E+10	1	-1E+10	1	-1E+10	1
4902554	46	C	05/13/2022	10:59	-135.373	49.489	0	49.10	0	7.3500	0	32.3610	0	25.294	0	48.676	0	-1e10	8	-1e10	8	-1E+10	1	-1E+10	1	-1E+10	1	-1E+10	1	-1E+10	1	-1E+10	1
4902554	46	C	05/13/2022	10:59	-135.373	49.489	0	50.10	0	7.2770	0	32.3630	0	25.306	0	49.667	0	-1e10	8	-1e10	8	-1E+10	1	-1E+10	1	-1E+10	1	-1E+10	1	-1E+10	1	-1E+10	1
4902554	46	C	05/13/2022	10:59	-135.373	49.489	0	51.10	0	7.1640	0	32.3670	0	25.324	0	50.658	0	-1e10	8	-1e10	8	-1E+10	1	-1E+10	1	-1E+10	1	-1E+10	1	-1E+10	1	-1E+10	1
4902554	46	C	05/13/2022	10:59	-135.373	49.489	0	52.10	0	7.1220	0	32.3670	0	25.330	0	51.649	0	-1e10	8	-1e10	8	-1E+10	1	-1E+10	1	-1E+10	1	-1E+10	1	-1E+10	1	-1E+10	1
4902554	46	C	05/13/2022	10:59	-135.373	49.489	0	53.10	0	7.1180	0	32.3670	0	25.330	0	52.640	0	-1e10	8	-1e10	8	-1E+10	1	-1E+10	1	-1E+10	1	-1E+10	1	-1E+10	1	-1E+10	1
4902554	46	C	05/13/2022	10:59	-135.373	49.489	0	54.10	0	7.1050	0	32.3670	0	25.332	0	53.632	0	-1e10	8	-1e10	8	-1E+10	1	-1E+10	1	-1E+10	1	-1E+10	1	-1E+10	1	-1E+10	1
4902554	46	C	05/13/2022	10:59	-135.373	49.489	0	55.10	0	7.0710	0	32.3700	0	25.339	0	54.623	0	-1e10	8	-1e10	8	-1E+10	1	-1E+10	1	-1E+10	1	-1E+10	1	-1E+10	1	-1E+10	1
4902554	46	C	05/13/2022	10:59	-135.373	49.489	0	56.10	0	7.0500	0	32.3700	0	25.342	0	55.614	0	-1e10	8	-1e10	8	-1E+10	1	-1E+10	1	-1E+10	1	-1E+10	1	-1E+10	1	-1E+10	1
4902554	46	C	05/13/2022	10:59	-135.373	49.489	0	57.10	0	7.0150	0	32.3730	0	25.349	0	56.605	0	-1e10	8	-1e10	8	-1E+10	1	-1E+10	1	-1E+10	1	-1E+10	1	-1E+10	1	-1E+10	1
4902554	46	C	05/13/2022	10:59	-135.373	49.489	0	58.10	0	6.9980	0	32.3740	0	25.352	0	57.596	0	-1e10	8	-1e10	8	-1E+10	1	-1E+10	1	-1E+10	1	-1E+10	1	-1E+10	1	-1E+10	1
4902554	46	C	05/13/2022	10:59	-135.373	49.489	0	59.10	0	6.9810	0	32.3750	0	25.355	0	58.588	0	-1e10	8	-1e10	8	-1E+10	1	-1E+10	1	-1E+10	1	-1E+10	1	-1E+10	1	-1E+10	1
4902554	46	C	05/13/2022	10:59	-135.373	49.489	0	60.10	0	6.9600	0	32.3760	0	25.358	0	59.579	0	-1e10	8	-1e10	8	-1E+10	1	-1E+10	1	-1E+10	1	-1E+10	1	-1E+10	1	-1E+10	1
4902554	46	C	05/13/2022	10:59	-135.373	49.489	0	61.10	0	6.9460	0	32.3770	0	25.361	0	60.570	0	-1e10	8	-1e10	8	-1E+10	1	-1E+10	1	-1E+10	1	-1E+10	1	-1E+10	1	-1E+10	1
4902554	46	C	05/13/2022	10:59	-135.373	49.489	0	62.10	0	6.9290	0	32.3780	0	25.364	0	61.561	0	-1e10	8	-1e10	8	-1E+10	1	-1E+10	1	-1E+10	1	-1E+10	1	-1E+10	1	-1E+10	1
4902554	46	C	05/13/2022	10:59	-135.373	49.489	0	63.10	0	6.9220	0	32.3780	0	25.365	0	62.552	0	-1e10	8	-1e10	8	-1E+10	1	-1E+10	1	-1E+10	1	-1E+10	1	-1E+10	1	-1E+10	1
4902554	46	C	05/13/2022	10:59	-135.373	49.489	0	63.90	0	6.9160	0	32.3790	0	25.367	0	63.345	0	-1e10	8	-1e10	8	-1E+10	1	-1E+10	1	-1E+10	1	-1E+10	1	-1E+10	1	-1E+10	1
4902554	46	C	05/13/2022	10:59	-135.373	49.489	0	64.70	0	6.8970	0	32.3790	0	25.369	0	64.138	0	-1e10	8	-1e10	8	-1E+10	1	-1E+10	1	-1E+10	1	-1E+10	1	-1E+10	1	-1E+10	1
4902554	46	C	05/13/2022	10:59	-135.373	49.489	0	65.70	0	6.8650	0	32.3800	0	25.374	0	65.129	0	-1e10	8	-1e10	8	-1E+10	1	-1E+10	1	-1E+10	1	-1E+10	1	-1E+10	1	-1E+10	1
4902554	46	C	05/13/2022	10:59	-135.373	49.489	0	66.80	0	6.8630	0	32.3800	0	25.375	0	66.220	0	-1e10	8	-1e10	8	-1E+10	1	-1E+10	1	-1E+10	1	-1E+10	1	-1E+10	1	-1E+10	1
4902554	46	C	05/13/2022	10:59	-135.373	49.489	0	67.80	0	6.8610	0	32.3800	0	25.375	0	67.211	0	-1e10	8	-1e10	8	-1E+10	1	-1E+10	1	-1E+10	1	-1E+10	1	-1E+10	1	-1E+10	1
4902554	46	C	05/13/2022	10:59	-135.373	49.489	0	68.80	0	6.8590	0	32.3800	0	25.375	0	68.202	0	-1e10	8	-1e10	8	-1E+10	1	-1E+10	1	-1E+10	1	-1E+10	1	-1E+10	1	-1E+10	1
4902554	46	C	05/13/2022	10:59	-135.373	49.489	0	69.80	0	6.8540	0	32.3800	0	25.376	0	69.193	0	-1e10	8	-1e10	8	-1E+10	1	-1E+10	1	-1E+10	1	-1E+10	1	-1E+10	1	-1E+10	1
4902554	46	C	05/13/2022	10:59	-135.373	49.489	0	70.80	0	6.8350	0	32.3800	0	25.378	0	70.184	0	-1e10	8	-1e10	8	-1E+10	1	-1E+10	1	-1E+10	1	-1E+10	1	-1E+10	1	-1E+10	1
4902554	46	C	05/13/2022	10:59	-135.373	49.489	0	71.90	0	6.8140	0	32.3830	0	25.383	0	71.275	0	-1e10	8	-1e10	8	-1E+10	1	-1E+10	1	-1E+10	1	-1E+10	1	-1E+10	1	-1E+10	1
4902554	46	C	05/13/2022	10:59	-135.373	49.489	0	72.90	0	6.8100	0	32.3830	0	25.384	0	72.266	0	-1e10	8	-1e10	8	-1E+10	1	-1E+10	1	-1E+10	1	-1E+10	1	-1E+10	1	-1E+10	1
4902554	46	C	05/13/2022	10:59	-135.373	49.489	0	73.90	0	6.8060	0	32.3830	0	25.384	0	73.257	0	-1e10	8	-1e10	8	-1E+10	1	-1E+10	1	-1E+10	1	-1E+10	1	-1E+10	1	-1E+10	1
4902554	46	C	05/13/2022	10:59	-135.373	49.489	0	75.00	0	6.8030	0	32.3840	0	25.386	0	74.347	0	-1e10	8	-1e10	8	-1E+10	1	-1E+10	1	-1E+10	1	-1E+10	1	-1E+10	1	-1E+10	1
4902554	46	C	05/13/2022	10:59	-135.373	49.489	0	76.00	0	6.8010	0	32.3840	0	25.386	0	75.338	0	-1e10	8	-1e10	8	-1E+10	1	-1E+10	1	-1E+10	1	-1E+10	1	-1E+10	1	-1E+10	1
4902554	46	C	05/13/2022	10:59	-135.373	49.489	0	77.00	0	6.7970	0	32.3850	0	25.387	0	76.329	0	-1e10	8	-1e10	8	-1E+10	1	-1E+10	1	-1E+10	1	-1E+10	1	-1E+10	1	-1E+10	1
4902554	46	C	05/13/2022	10:59	-135.373	49.489	0	78.00	0	6.7950	0	32.3850	0	25.387	0	77.320	0	-1e10	8	-1e10	8	-1E+10	1	-1E+10	1	-1E+10	1	-1E+10	1	-1E+10	1	-1E+10	1
4902554	46	C	05/13/2022	10:59	-135.373	49.489	0	79.00	0	6.7920	0	32.3860	0	25.389	0	78.311	0	-1e10	8	-1e10	8	-1E+10	1	-1E+10	1	-1E+10	1	-1E+10	1	-1E+10	1	-1E+10	1
4902554	46	C	05/13/2022	10:59	-135.373	49.489	0	80.00	0	6.7900	0	32.3870	0	25.390	0	79.302	0	-1e10	8	-1e10	8	-1E+10	1	-1E+10	1	-1E+10	1	-1E+10	1	-1E+10	1	-1E+10	1
4902554	46	C	05/13/2022	10:59	-135.373	49.489	0	81.00	0	6.7890	0	32.3870	0	25.390	0	80.294	0	-1e10	8	-1e10	8	-1E+10	1	-1E+10	1	-1E+10	1	-1E+10	1	-1E+10	1	-1E+10	1
4902554	46	C	05/13/2022	10:59	-135.373	49.489	0	82.00	0	6.7880	0	32.3870	0	25.390	0	81.285	0	-1e10	8	-1e10	8	-1E+10	1	-1E+10	1	-1E+10	1	-1E+10	1	-1E+10	1	-1E+10	1
4902554	46	C	05/13/2022	10:59	-135.373	49.489	0	83.00	0	6.7840	0	32.3870	0	25.391	0	82.276	0	-1e10	8	-1e10	8	-1E+10	1	-1E+10	1	-1E+10	1	-1E+10	1	-1E+10	1	-1E+10	1
4902554	46	C	05/13/2022	10:59	-135.373	49.489	0	84.00	0	6.7790	0	32.3880	0	25.392	0	83.267	0	-1e10	8	-1e10	8	-1E+10	1	-1E+10	1	-1E+10	1	-1E+10	1	-1E+10	1	-1E+10	1
4902554	46	C	05/13/2022	10:59	-135.373	49.489	0	85.00	0	6.7730	0	32.3880	0	25.393	0	84.258	0	-1e10	8	-1e10	8	-1E+10	1	-1E+10	1	-1E+10	1	-1E+10	1	-1E+10	1	-1E+10	1
4902554	46	C	05/13/2022	10:59	-135.373	49.489	0	86.00	0	6.7680	0	32.3890	0	25.394	0	85.249	0	-1e10	8	-1e10	8	-1E+10	1	-1E+10	1	-1E+10	1	-1E+10	1	-1E+10	1	-1E+10	1
4902554	46	C	05/13/2022	10:59	-135.373	49.489	0	87.00	0	6.7640	0	32.3900	0	25.396	0	86.240	0	-1e10	8	-1e10	8	-1E+10	1	-1E+10	1	-1E+10	1	-1E+10	1	-1E+10	1	-1E+10	1
4902554	46	C	05/13/2022	10:59	-135.373	49.489	0	88.00	0	6.7610	0	32.3910	0	25.397	0	87.231	0	-1e10	8	-1e10	8	-1E+10	1	-1E+10	1	-1E+10	1	-1E+10	1	-1E+10	1	-1E+10	1
4902554	46	C	05/13/2022	10:59	-135.373	49.489	0	89.00	0	6.7580	0	32.3910	0	25.397	0	88.222	0	-1e10	8	-1e10	8	-1E+10	1	-1E+10	1	-1E+10	1	-1E+10	1	-1E+10	1	-1E+10	1
4902554	46	C	05/13/2022	10:59	-135.373	49.489	0	90.00	0	6.7480	0	32.3930	0	25.400	0	89.213	0	-1e10	8	-1e10	8	-1E+10	1	-1E+10	1	-1E+10	1	-1E+10	1	-1E+10	1	-1E+10	1
4902554	46	C	05/13/2022	10:59	-135.373	49.489	0	91.10	0	6.7330	0	32.3950	0	25.404	0	90.303	0	-1e10	8	-1e10	8	-1E+10	1	-1E+10	1	-1E+10	1	-1E+10	1	-1E+10	1	-1E+10	1
4902554	46	C	05/13/2022	10:59	-135.373	49.489	0	92.10	0	6.7270	0	32.3950	0	25.404	0	91.294	0	-1e10	8	-1e10	8	-1E+10	1	-1E+10	1	-1E+10	1	-1E+10	1	-1E+10	1	-1E+10	1
4902554	46	C	05/13/2022	10:59	-135.373	49.489	0	93.00	0	6.7230	0	32.3960	0	25.406	0	92.186	0	-1e10	8	-1e10	8	-1E+10	1	-1E+10	1	-1E+10	1	-1E+10	1	-1E+10	1	-1E+10	1
4902554	46	C	05/13/2022	10:59	-135.373	49.489	0	93.80	0	6.7070	0	32.3980	0	25.409	0	92.979	0	-1e10	8	-1e10	8	-1E+10	1	-1E+10	1	-1E+10	1	-1E+10	1	-1E+10	1	-1E+10	1
4902554	46	C	05/13/2022	10:59	-135.373	49.489	0	94.90	0	6.6830	0	32.4050	0	25.418	0	94.069	0	-1e10	8	-1e10	8	-1E+10	1	-1E+10	1	-1E+10	1	-1E+10	1	-1E+10	1	-1E+10	1
4902554	46	C	05/13/2022	10:59	-135.373	49.489	0	96.00	0	6.6800	0	32.4050	0	25.418	0	95.159	0	-1e10	8	-1e10	8	-1E+10	1	-1E+10	1	-1E+10	1	-1E+10	1	-1E+10	1	-1E+10	1
4902554	46	C	05/13/2022	10:59	-135.373	49.489	0	96.90	0	6.6770	0	32.4050	0	25.419	0	96.051	0	-1e10	8	-1e10	8	-1E+10	1	-1E+10	1	-1E+10	1	-1E+10	1	-1E+10	1	-1E+10	1
4902554	46	C	05/13/2022	10:59	-135.373	49.489	0	97.80	0	6.6300	0	32.4240	0	25.440	0	96.943	0	-1e10	8	-1e10	8	-1E+10	1	-1E+10	1	-1E+10	1	-1E+10	1	-1E+10	1	-1E+10	1
4902554	46	C	05/13/2022	10:59	-135.373	49.489	0	98.90	0	6.5860	0	32.4440	0	25.461	0	98.033	0	-1e10	8	-1e10	8	-1E+10	1	-1E+10	1	-1E+10	1	-1E+10	1	-1E+10	1	-1E+10	1
4902554	46	C	05/13/2022	10:59	-135.373	49.489	0	100.00	0	6.5720	0	32.4500	0	25.468	0	99.123	0	-1e10	8	-1e10	8	-1E+10	1	-1E+10	1	-1E+10	1	-1E+10	1	-1E+10	1	-1E+10	1
4902554	46	C	05/13/2022	10:59	-135.373	49.489	0	101.00	0	6.5520	0	32.4610	0	25.479	0	100.114	0	-1e10	8	-1e10	8	-1E+10	1	-1E+10	1	-1E+10	1	-1E+10	1	-1E+10	1	-1E+10	1
4902554	46	C	05/13/2022	10:59	-135.373	49.489	0	101.80	0	6.5310	0	32.4730	0	25.491	0	100.907	0	-1e10	8	-1e10	8	-1E+10	1	-1E+10	1	-1E+10	1	-1E+10	1	-1E+10	1	-1E+10	1
4902554	46	C	05/13/2022	10:59	-135.373	49.489	0	103.10	0	6.4400	0	32.5170	0	25.537	0	102.195	0	-1e10	8	-1e10	8	-1E+10	1	-1E+10	1	-1E+10	1	-1E+10	1	-1E+10	1	-1E+10	1
4902554	46	C	05/13/2022	10:59	-135.373	49.489	0	104.00	0	6.4280	0	32.5240	0	25.545	0	103.087	0	-1e10	8	-1e10	8	-1E+10	1	-1E+10	1	-1E+10	1	-1E+10	1	-1E+10	1	-1E+10	1
4902554	46	C	05/13/2022	10:59	-135.373	49.489	0	104.90	0	6.4250	0	32.5260	0	25.546	0	103.979	0	-1e10	8	-1e10	8	-1E+10	1	-1E+10	1	-1E+10	1	-1E+10	1	-1E+10	1	-1E+10	1
4902554	46	C	05/13/2022	10:59	-135.373	49.489	0	106.00	0	6.4200	0	32.5280	0	25.549	0	105.069	0	-1e10	8	-1e10	8	-1E+10	1	-1E+10	1	-1E+10	1	-1E+10	1	-1E+10	1	-1E+10	1
4902554	46	C	05/13/2022	10:59	-135.373	49.489	0	106.90	0	6.4050	0	32.5360	0	25.557	0	105.961	0	-1e10	8	-1e10	8	-1E+10	1	-1E+10	1	-1E+10	1	-1E+10	1	-1E+10	1	-1E+10	1
4902554	46	C	05/13/2022	10:59	-135.373	49.489	0	107.80	0	6.3490	0	32.5720	0	25.592	0	106.853	0	-1e10	8	-1e10	8	-1E+10	1	-1E+10	1	-1E+10	1	-1E+10	1	-1E+10	1	-1E+10	1
4902554	46	C	05/13/2022	10:59	-135.373	49.489	0	108.80	0	6.2900	0	32.6180	0	25.636	0	107.844	0	-1e10	8	-1e10	8	-1E+10	1	-1E+10	1	-1E+10	1	-1E+10	1	-1E+10	1	-1E+10	1
4902554	46	C	05/13/2022	10:59	-135.373	49.489	0	109.90	0	6.2500	0	32.6540	0	25.670	0	108.934	0	-1e10	8	-1e10	8	-1E+10	1	-1E+10	1	-1E+10	1	-1E+10	1	-1E+10	1	-1E+10	1
4902554	46	C	05/13/2022	10:59	-135.373	49.489	0	111.10	0	6.1780	0	32.7270	0	25.736	0	110.123	0	-1e10	8	-1e10	8	-1E+10	1	-1E+10	1	-1E+10	1	-1E+10	1	-1E+10	1	-1E+10	1
4902554	46	C	05/13/2022	10:59	-135.373	49.489	0	112.00	0	6.1500	0	32.7560	0	25.763	0	111.015	0	-1e10	8	-1e10	8	-1E+10	1	-1E+10	1	-1E+10	1	-1E+10	1	-1E+10	1	-1E+10	1
4902554	46	C	05/13/2022	10:59	-135.373	49.489	0	112.70	0	6.1110	0	32.8140	0	25.813	0	111.709	0	-1e10	8	-1e10	8	-1E+10	1	-1E+10	1	-1E+10	1	-1E+10	1	-1E+10	1	-1E+10	1
4902554	46	C	05/13/2022	10:59	-135.373	49.489	0	113.90	0	6.0660	0	32.9000	0	25.887	0	112.898	0	-1e10	8	-1e10	8	-1E+10	1	-1E+10	1	-1E+10	1	-1E+10	1	-1E+10	1	-1E+10	1
4902554	46	C	05/13/2022	10:59	-135.373	49.489	0	115.10	0	6.0390	0	32.9570	0	25.935	0	114.087	0	-1e10	8	-1e10	8	-1E+10	1	-1E+10	1	-1E+10	1	-1E+10	1	-1E+10	1	-1E+10	1
4902554	46	C	05/13/2022	10:59	-135.373	49.489	0	116.00	0	6.0360	0	32.9620	0	25.939	0	114.979	0	-1e10	8	-1e10	8	-1E+10	1	-1E+10	1	-1E+10	1	-1E+10	1	-1E+10	1	-1E+10	1
4902554	46	C	05/13/2022	10:59	-135.373	49.489	0	117.00	0	6.0210	0	32.9970	0	25.969	0	115.970	0	-1e10	8	-1e10	8	-1E+10	1	-1E+10	1	-1E+10	1	-1E+10	1	-1E+10	1	-1E+10	1
4902554	46	C	05/13/2022	10:59	-135.373	49.489	0	118.00	0	6.0150	0	33.0110	0	25.981	0	116.960	0	-1e10	8	-1e10	8	-1E+10	1	-1E+10	1	-1E+10	1	-1E+10	1	-1E+10	1	-1E+10	1
4902554	46	C	05/13/2022	10:59	-135.373	49.489	0	119.00	0	6.0110	0	33.0170	0	25.986	0	117.951	0	-1e10	8	-1e10	8	-1E+10	1	-1E+10	1	-1E+10	1	-1E+10	1	-1E+10	1	-1E+10	1
4902554	46	C	05/13/2022	10:59	-135.373	49.489	0	120.10	0	6.0080	0	33.0310	0	25.997	0	119.041	0	-1e10	8	-1e10	8	-1E+10	1	-1E+10	1	-1E+10	1	-1E+10	1	-1E+10	1	-1E+10	1
4902554	46	C	05/13/2022	10:59	-135.373	49.489	0	120.80	0	5.9850	0	33.0890	0	26.046	0	119.735	0	-1e10	8	-1e10	8	-1E+10	1	-1E+10	1	-1E+10	1	-1E+10	1	-1E+10	1	-1E+10	1
4902554	46	C	05/13/2022	10:59	-135.373	49.489	0	121.90	0	5.9740	0	33.1380	0	26.086	0	120.825	0	-1e10	8	-1e10	8	-1E+10	1	-1E+10	1	-1E+10	1	-1E+10	1	-1E+10	1	-1E+10	1
4902554	46	C	05/13/2022	10:59	-135.373	49.489	0	123.20	0	5.9650	0	33.1970	0	26.134	0	122.113	0	-1e10	8	-1e10	8	-1E+10	1	-1E+10	1	-1E+10	1	-1E+10	1	-1E+10	1	-1E+10	1
4902554	46	C	05/13/2022	10:59	-135.373	49.489	0	124.00	0	5.9600	0	33.2250	0	26.157	0	122.906	0	-1e10	8	-1e10	8	-1E+10	1	-1E+10	1	-1E+10	1	-1E+10	1	-1E+10	1	-1E+10	1
4902554	46	C	05/13/2022	10:59	-135.373	49.489	0	124.90	0	5.9560	0	33.2650	0	26.189	0	123.798	0	-1e10	8	-1e10	8	-1E+10	1	-1E+10	1	-1E+10	1	-1E+10	1	-1E+10	1	-1E+10	1
4902554	46	C	05/13/2022	10:59	-135.373	49.489	0	125.80	0	5.9550	0	33.2740	0	26.196	0	124.689	0	-1e10	8	-1e10	8	-1E+10	1	-1E+10	1	-1E+10	1	-1E+10	1	-1E+10	1	-1E+10	1
4902554	46	C	05/13/2022	10:59	-135.373	49.489	0	126.70	0	5.9540	0	33.2810	0	26.202	0	125.581	0	-1e10	8	-1e10	8	-1E+10	1	-1E+10	1	-1E+10	1	-1E+10	1	-1E+10	1	-1E+10	1
4902554	46	C	05/13/2022	10:59	-135.373	49.489	0	127.90	0	5.9530	0	33.2860	0	26.206	0	126.770	0	-1e10	8	-1e10	8	-1E+10	1	-1E+10	1	-1E+10	1	-1E+10	1	-1E+10	1	-1E+10	1
4902554	46	C	05/13/2022	10:59	-135.373	49.489	0	129.30	0	5.9510	0	33.2960	0	26.214	0	128.157	0	-1e10	8	-1e10	8	-1E+10	1	-1E+10	1	-1E+10	1	-1E+10	1	-1E+10	1	-1E+10	1
4902554	46	C	05/13/2022	10:59	-135.373	49.489	0	130.20	0	5.9510	0	33.2960	0	26.214	0	129.049	0	-1e10	8	-1e10	8	-1E+10	1	-1E+10	1	-1E+10	1	-1E+10	1	-1E+10	1	-1E+10	1
4902554	46	C	05/13/2022	10:59	-135.373	49.489	0	131.10	0	5.9510	0	33.2980	0	26.215	0	129.941	0	-1e10	8	-1e10	8	-1E+10	1	-1E+10	1	-1E+10	1	-1E+10	1	-1E+10	1	-1E+10	1
4902554	46	C	05/13/2022	10:59	-135.373	49.489	0	131.90	0	5.9460	0	33.3100	0	26.226	0	130.734	0	-1e10	8	-1e10	8	-1E+10	1	-1E+10	1	-1E+10	1	-1E+10	1	-1E+10	1	-1E+10	1
4902554	46	C	05/13/2022	10:59	-135.373	49.489	0	132.80	0	5.9450	0	33.3160	0	26.230	0	131.625	0	-1e10	8	-1e10	8	-1E+10	1	-1E+10	1	-1E+10	1	-1E+10	1	-1E+10	1	-1E+10	1
4902554	46	C	05/13/2022	10:59	-135.373	49.489	0	133.70	0	5.9520	0	33.3510	0	26.257	0	132.517	0	-1e10	8	-1e10	8	-1E+10	1	-1E+10	1	-1E+10	1	-1E+10	1	-1E+10	1	-1E+10	1
4902554	46	C	05/13/2022	10:59	-135.373	49.489	0	134.60	0	5.9540	0	33.3630	0	26.266	0	133.409	0	-1e10	8	-1e10	8	-1E+10	1	-1E+10	1	-1E+10	1	-1E+10	1	-1E+10	1	-1E+10	1
4902554	46	C	05/13/2022	10:59	-135.373	49.489	0	135.90	0	5.9550	0	33.3760	0	26.277	0	134.697	0	-1e10	8	-1e10	8	-1E+10	1	-1E+10	1	-1E+10	1	-1E+10	1	-1E+10	1	-1E+10	1
4902554	46	C	05/13/2022	10:59	-135.373	49.489	0	137.20	0	5.9540	0	33.3900	0	26.288	0	135.985	0	-1e10	8	-1e10	8	-1E+10	1	-1E+10	1	-1E+10	1	-1E+10	1	-1E+10	1	-1E+10	1
4902554	46	C	05/13/2022	10:59	-135.373	49.489	0	138.10	0	5.9540	0	33.3980	0	26.294	0	136.877	0	-1e10	8	-1e10	8	-1E+10	1	-1E+10	1	-1E+10	1	-1E+10	1	-1E+10	1	-1E+10	1
4902554	46	C	05/13/2022	10:59	-135.373	49.489	0	139.10	0	5.9280	0	33.4420	0	26.332	0	137.867	0	-1e10	8	-1e10	8	-1E+10	1	-1E+10	1	-1E+10	1	-1E+10	1	-1E+10	1	-1E+10	1
4902554	46	C	05/13/2022	10:59	-135.373	49.489	0	140.00	0	5.9220	0	33.4570	0	26.345	0	138.759	0	-1e10	8	-1e10	8	-1E+10	1	-1E+10	1	-1E+10	1	-1E+10	1	-1E+10	1	-1E+10	1
4902554	46	C	05/13/2022	10:59	-135.373	49.489	0	140.90	0	5.8910	0	33.4730	0	26.361	0	139.651	0	-1e10	8	-1e10	8	-1E+10	1	-1E+10	1	-1E+10	1	-1E+10	1	-1E+10	1	-1E+10	1
4902554	46	C	05/13/2022	10:59	-135.373	49.489	0	141.90	0	5.8710	0	33.4890	0	26.376	0	140.642	0	-1e10	8	-1e10	8	-1E+10	1	-1E+10	1	-1E+10	1	-1E+10	1	-1E+10	1	-1E+10	1
4902554	46	C	05/13/2022	10:59	-135.373	49.489	0	142.80	0	5.8600	0	33.5090	0	26.393	0	141.533	0	-1e10	8	-1e10	8	-1E+10	1	-1E+10	1	-1E+10	1	-1E+10	1	-1E+10	1	-1E+10	1
4902554	46	C	05/13/2022	10:59	-135.373	49.489	0	143.70	0	5.8490	0	33.5240	0	26.407	0	142.425	0	-1e10	8	-1e10	8	-1E+10	1	-1E+10	1	-1E+10	1	-1E+10	1	-1E+10	1	-1E+10	1
4902554	46	C	05/13/2022	10:59	-135.373	49.489	0	144.70	0	5.8400	0	33.5350	0	26.416	0	143.416	0	-1e10	8	-1e10	8	-1E+10	1	-1E+10	1	-1E+10	1	-1E+10	1	-1E+10	1	-1E+10	1
4902554	46	C	05/13/2022	10:59	-135.373	49.489	0	145.70	0	5.8370	0	33.5450	0	26.425	0	144.407	0	-1e10	8	-1e10	8	-1E+10	1	-1E+10	1	-1E+10	1	-1E+10	1	-1E+10	1	-1E+10	1
4902554	46	C	05/13/2022	10:59	-135.373	49.489	0	146.60	0	5.8400	0	33.5560	0	26.433	0	145.298	0	-1e10	8	-1e10	8	-1E+10	1	-1E+10	1	-1E+10	1	-1E+10	1	-1E+10	1	-1E+10	1
4902554	46	C	05/13/2022	10:59	-135.373	49.489	0	147.60	0	5.8490	0	33.5600	0	26.435	0	146.289	0	-1e10	8	-1e10	8	-1E+10	1	-1E+10	1	-1E+10	1	-1E+10	1	-1E+10	1	-1E+10	1
4902554	46	C	05/13/2022	10:59	-135.373	49.489	0	148.60	0	5.8540	0	33.5640	0	26.438	0	147.280	0	-1e10	8	-1e10	8	-1E+10	1	-1E+10	1	-1E+10	1	-1E+10	1	-1E+10	1	-1E+10	1
4902554	46	C	05/13/2022	10:59	-135.373	49.489	0	149.50	0	5.8670	0	33.5680	0	26.439	0	148.172	0	-1e10	8	-1e10	8	-1E+10	1	-1E+10	1	-1E+10	1	-1E+10	1	-1E+10	1	-1E+10	1
4902554	46	C	05/13/2022	10:59	-135.373	49.489	0	150.50	0	5.8900	0	33.5740	0	26.441	0	149.162	0	-1e10	8	-1e10	8	-1E+10	1	-1E+10	1	-1E+10	1	-1E+10	1	-1E+10	1	-1E+10	1
4902554	46	C	05/13/2022	10:59	-135.373	49.489	0	151.90	0	5.8820	0	33.6080	0	26.469	0	150.549	0	-1e10	8	-1e10	8	-1E+10	1	-1E+10	1	-1E+10	1	-1E+10	1	-1E+10	1	-1E+10	1
4902554	46	C	05/13/2022	10:59	-135.373	49.489	0	153.40	0	5.8700	0	33.6160	0	26.477	0	152.036	0	-1e10	8	-1e10	8	-1E+10	1	-1E+10	1	-1E+10	1	-1E+10	1	-1E+10	1	-1E+10	1
4902554	46	C	05/13/2022	10:59	-135.373	49.489	0	154.30	0	5.8490	0	33.6310	0	26.491	0	152.927	0	-1e10	8	-1e10	8	-1E+10	1	-1E+10	1	-1E+10	1	-1E+10	1	-1E+10	1	-1E+10	1
4902554	46	C	05/13/2022	10:59	-135.373	49.489	0	155.30	0	5.8470	0	33.6330	0	26.493	0	153.918	0	-1e10	8	-1e10	8	-1E+10	1	-1E+10	1	-1E+10	1	-1E+10	1	-1E+10	1	-1E+10	1
4902554	46	C	05/13/2022	10:59	-135.373	49.489	0	156.30	0	5.8410	0	33.6400	0	26.499	0	154.909	0	-1e10	8	-1e10	8	-1E+10	1	-1E+10	1	-1E+10	1	-1E+10	1	-1E+10	1	-1E+10	1
4902554	46	C	05/13/2022	10:59	-135.373	49.489	0	157.30	0	5.8380	0	33.6460	0	26.505	0	155.899	0	-1e10	8	-1e10	8	-1E+10	1	-1E+10	1	-1E+10	1	-1E+10	1	-1E+10	1	-1E+10	1
4902554	46	C	05/13/2022	10:59	-135.373	49.489	0	158.30	0	5.8310	0	33.6560	0	26.513	0	156.890	0	-1e10	8	-1e10	8	-1E+10	1	-1E+10	1	-1E+10	1	-1E+10	1	-1E+10	1	-1E+10	1
4902554	46	C	05/13/2022	10:59	-135.373	49.489	0	159.30	0	5.8270	0	33.6590	0	26.516	0	157.881	0	-1e10	8	-1e10	8	-1E+10	1	-1E+10	1	-1E+10	1	-1E+10	1	-1E+10	1	-1E+10	1
4902554	46	C	05/13/2022	10:59	-135.373	49.489	0	160.30	0	5.8260	0	33.6590	0	26.516	0	158.871	0	-1e10	8	-1e10	8	-1E+10	1	-1E+10	1	-1E+10	1	-1E+10	1	-1E+10	1	-1E+10	1
4902554	46	C	05/13/2022	10:59	-135.373	49.489	0	161.30	0	5.8260	0	33.6590	0	26.516	0	159.862	0	-1e10	8	-1e10	8	-1E+10	1	-1E+10	1	-1E+10	1	-1E+10	1	-1E+10	1	-1E+10	1
4902554	46	C	05/13/2022	10:59	-135.373	49.489	0	162.30	0	5.8210	0	33.6610	0	26.519	0	160.853	0	-1e10	8	-1e10	8	-1E+10	1	-1E+10	1	-1E+10	1	-1E+10	1	-1E+10	1	-1E+10	1
4902554	46	C	05/13/2022	10:59	-135.373	49.489	0	163.30	0	5.8120	0	33.6650	0	26.523	0	161.844	0	-1e10	8	-1e10	8	-1E+10	1	-1E+10	1	-1E+10	1	-1E+10	1	-1E+10	1	-1E+10	1
4902554	46	C	05/13/2022	10:59	-135.373	49.489	0	164.30	0	5.7880	0	33.6740	0	26.533	0	162.834	0	-1e10	8	-1e10	8	-1E+10	1	-1E+10	1	-1E+10	1	-1E+10	1	-1E+10	1	-1E+10	1
4902554	46	C	05/13/2022	10:59	-135.373	49.489	0	165.40	0	5.7690	0	33.6790	0	26.539	0	163.924	0	-1e10	8	-1e10	8	-1E+10	1	-1E+10	1	-1E+10	1	-1E+10	1	-1E+10	1	-1E+10	1
4902554	46	C	05/13/2022	10:59	-135.373	49.489	0	166.40	0	5.7490	0	33.6840	0	26.546	0	164.915	0	-1e10	8	-1e10	8	-1E+10	1	-1E+10	1	-1E+10	1	-1E+10	1	-1E+10	1	-1E+10	1
4902554	46	C	05/13/2022	10:59	-135.373	49.489	0	167.40	0	5.7310	0	33.6870	0	26.550	0	165.905	0	-1e10	8	-1e10	8	-1E+10	1	-1E+10	1	-1E+10	1	-1E+10	1	-1E+10	1	-1E+10	1
4902554	46	C	05/13/2022	10:59	-135.373	49.489	0	168.40	0	5.6860	0	33.6940	0	26.561	0	166.896	0	-1e10	8	-1e10	8	-1E+10	1	-1E+10	1	-1E+10	1	-1E+10	1	-1E+10	1	-1E+10	1
4902554	46	C	05/13/2022	10:59	-135.373	49.489	0	169.50	0	5.6680	0	33.6940	0	26.563	0	167.986	0	-1e10	8	-1e10	8	-1E+10	1	-1E+10	1	-1E+10	1	-1E+10	1	-1E+10	1	-1E+10	1
4902554	46	C	05/13/2022	10:59	-135.373	49.489	0	170.50	0	5.6470	0	33.6970	0	26.568	0	168.976	0	-1e10	8	-1e10	8	-1E+10	1	-1E+10	1	-1E+10	1	-1E+10	1	-1E+10	1	-1E+10	1
4902554	46	C	05/13/2022	10:59	-135.373	49.489	0	171.50	0	5.6310	0	33.6990	0	26.572	0	169.967	0	-1e10	8	-1e10	8	-1E+10	1	-1E+10	1	-1E+10	1	-1E+10	1	-1E+10	1	-1E+10	1
4902554	46	C	05/13/2022	10:59	-135.373	49.489	0	172.60	0	5.6050	0	33.7020	0	26.577	0	171.057	0	-1e10	8	-1e10	8	-1E+10	1	-1E+10	1	-1E+10	1	-1E+10	1	-1E+10	1	-1E+10	1
4902554	46	C	05/13/2022	10:59	-135.373	49.489	0	173.60	0	5.5580	0	33.7080	0	26.588	0	172.047	0	-1e10	8	-1e10	8	-1E+10	1	-1E+10	1	-1E+10	1	-1E+10	1	-1E+10	1	-1E+10	1
4902554	46	C	05/13/2022	10:59	-135.373	49.489	0	174.60	0	5.5430	0	33.7080	0	26.589	0	173.038	0	-1e10	8	-1e10	8	-1E+10	1	-1E+10	1	-1E+10	1	-1E+10	1	-1E+10	1	-1E+10	1
4902554	46	C	05/13/2022	10:59	-135.373	49.489	0	175.70	0	5.5310	0	33.7090	0	26.592	0	174.128	0	-1e10	8	-1e10	8	-1E+10	1	-1E+10	1	-1E+10	1	-1E+10	1	-1E+10	1	-1E+10	1
4902554	46	C	05/13/2022	10:59	-135.373	49.489	0	176.70	0	5.5230	0	33.7100	0	26.593	0	175.118	0	-1e10	8	-1e10	8	-1E+10	1	-1E+10	1	-1E+10	1	-1E+10	1	-1E+10	1	-1E+10	1
4902554	46	C	05/13/2022	10:59	-135.373	49.489	0	177.70	0	5.5200	0	33.7090	0	26.593	0	176.109	0	-1e10	8	-1e10	8	-1E+10	1	-1E+10	1	-1E+10	1	-1E+10	1	-1E+10	1	-1E+10	1
4902554	46	C	05/13/2022	10:59	-135.373	49.489	0	178.70	0	5.5130	0	33.7100	0	26.595	0	177.100	0	-1e10	8	-1e10	8	-1E+10	1	-1E+10	1	-1E+10	1	-1E+10	1	-1E+10	1	-1E+10	1
4902554	46	C	05/13/2022	10:59	-135.373	49.489	0	180.00	0	5.5000	0	33.7110	0	26.597	0	178.387	0	-1e10	8	-1e10	8	-1E+10	1	-1E+10	1	-1E+10	1	-1E+10	1	-1E+10	1	-1E+10	1
4902554	46	C	05/13/2022	10:59	-135.373	49.489	0	181.20	0	5.4920	0	33.7110	0	26.598	0	179.576	0	-1e10	8	-1e10	8	-1E+10	1	-1E+10	1	-1E+10	1	-1E+10	1	-1E+10	1	-1E+10	1
4902554	46	C	05/13/2022	10:59	-135.373	49.489	0	181.90	0	5.4740	0	33.7120	0	26.601	0	180.270	0	-1e10	8	-1e10	8	-1E+10	1	-1E+10	1	-1E+10	1	-1E+10	1	-1E+10	1	-1E+10	1
4902554	46	C	05/13/2022	10:59	-135.373	49.489	0	182.70	0	5.4590	0	33.7150	0	26.605	0	181.062	0	-1e10	8	-1e10	8	-1E+10	1	-1E+10	1	-1E+10	1	-1E+10	1	-1E+10	1	-1E+10	1
4902554	46	C	05/13/2022	10:59	-135.373	49.489	0	183.90	0	5.4210	0	33.7150	0	26.610	0	182.251	0	-1e10	8	-1e10	8	-1E+10	1	-1E+10	1	-1E+10	1	-1E+10	1	-1E+10	1	-1E+10	1
4902554	46	C	05/13/2022	10:59	-135.373	49.489	0	185.10	0	5.4090	0	33.7170	0	26.613	0	183.439	0	-1e10	8	-1e10	8	-1E+10	1	-1E+10	1	-1E+10	1	-1E+10	1	-1E+10	1	-1E+10	1
4902554	46	C	05/13/2022	10:59	-135.373	49.489	0	185.90	0	5.4100	0	33.7170	0	26.613	0	184.232	0	-1e10	8	-1e10	8	-1E+10	1	-1E+10	1	-1E+10	1	-1E+10	1	-1E+10	1	-1E+10	1
4902554	46	C	05/13/2022	10:59	-135.373	49.489	0	187.00	0	5.4000	0	33.7160	0	26.613	0	185.322	0	-1e10	8	-1e10	8	-1E+10	1	-1E+10	1	-1E+10	1	-1E+10	1	-1E+10	1	-1E+10	1
4902554	46	C	05/13/2022	10:59	-135.373	49.489	0	188.20	0	5.4010	0	33.7160	0	26.613	0	186.510	0	-1e10	8	-1e10	8	-1E+10	1	-1E+10	1	-1E+10	1	-1E+10	1	-1E+10	1	-1E+10	1
4902554	46	C	05/13/2022	10:59	-135.373	49.489	0	189.10	0	5.3930	0	33.7150	0	26.613	0	187.402	0	-1e10	8	-1e10	8	-1E+10	1	-1E+10	1	-1E+10	1	-1E+10	1	-1E+10	1	-1E+10	1
4902554	46	C	05/13/2022	10:59	-135.373	49.489	0	189.90	0	5.3610	0	33.7210	0	26.621	0	188.194	0	-1e10	8	-1e10	8	-1E+10	1	-1E+10	1	-1E+10	1	-1E+10	1	-1E+10	1	-1E+10	1
4902554	46	C	05/13/2022	10:59	-135.373	49.489	0	190.70	0	5.3430	0	33.7210	0	26.624	0	188.987	0	-1e10	8	-1e10	8	-1E+10	1	-1E+10	1	-1E+10	1	-1E+10	1	-1E+10	1	-1E+10	1
4902554	46	C	05/13/2022	10:59	-135.373	49.489	0	191.90	0	5.3110	0	33.7220	0	26.628	0	190.175	0	-1e10	8	-1e10	8	-1E+10	1	-1E+10	1	-1E+10	1	-1E+10	1	-1E+10	1	-1E+10	1
4902554	46	C	05/13/2022	10:59	-135.373	49.489	0	193.20	0	5.2950	0	33.7240	0	26.632	0	191.463	0	-1e10	8	-1e10	8	-1E+10	1	-1E+10	1	-1E+10	1	-1E+10	1	-1E+10	1	-1E+10	1
4902554	46	C	05/13/2022	10:59	-135.373	49.489	0	194.00	0	5.2450	0	33.7370	0	26.648	0	192.255	0	-1e10	8	-1e10	8	-1E+10	1	-1E+10	1	-1E+10	1	-1E+10	1	-1E+10	1	-1E+10	1
4902554	46	C	05/13/2022	10:59	-135.373	49.489	0	194.90	0	5.2340	0	33.7290	0	26.643	0	193.147	0	-1e10	8	-1e10	8	-1E+10	1	-1E+10	1	-1E+10	1	-1E+10	1	-1E+10	1	-1E+10	1
4902554	46	C	05/13/2022	10:59	-135.373	49.489	0	195.70	0	5.2280	0	33.7290	0	26.643	0	193.939	0	-1e10	8	-1e10	8	-1E+10	1	-1E+10	1	-1E+10	1	-1E+10	1	-1E+10	1	-1E+10	1
4902554	46	C	05/13/2022	10:59	-135.373	49.489	0	196.60	0	5.2200	0	33.7300	0	26.645	0	194.831	0	-1e10	8	-1e10	8	-1E+10	1	-1E+10	1	-1E+10	1	-1E+10	1	-1E+10	1	-1E+10	1
4902554	46	C	05/13/2022	10:59	-135.373	49.489	0	197.90	0	5.2000	0	33.7340	0	26.651	0	196.119	0	-1e10	8	-1e10	8	-1E+10	1	-1E+10	1	-1E+10	1	-1E+10	1	-1E+10	1	-1E+10	1
4902554	46	C	05/13/2022	10:59	-135.373	49.489	0	199.20	0	5.1820	0	33.7380	0	26.656	0	197.406	0	-1e10	8	-1e10	8	-1E+10	1	-1E+10	1	-1E+10	1	-1E+10	1	-1E+10	1	-1E+10	1
4902554	46	C	05/13/2022	10:59	-135.373	49.489	0	200.10	0	5.1800	0	33.7380	0	26.656	0	198.298	0	-1e10	8	-1e10	8	-1E+10	1	-1E+10	1	-1E+10	1	-1E+10	1	-1E+10	1	-1E+10	1
4902554	46	C	05/13/2022	10:59	-135.373	49.489	0	201.00	0	5.1780	0	33.7390	0	26.657	0	199.189	0	-1e10	8	-1e10	8	-1E+10	1	-1E+10	1	-1E+10	1	-1E+10	1	-1E+10	1	-1E+10	1
4902554	46	C	05/13/2022	10:59	-135.373	49.489	0	201.90	0	5.1740	0	33.7390	0	26.658	0	200.081	0	-1e10	8	-1e10	8	-1E+10	1	-1E+10	1	-1E+10	1	-1E+10	1	-1E+10	1	-1E+10	1
4902554	46	C	05/13/2022	10:59	-135.373	49.489	0	202.80	0	5.1710	0	33.7400	0	26.659	0	200.972	0	-1e10	8	-1e10	8	-1E+10	1	-1E+10	1	-1E+10	1	-1E+10	1	-1E+10	1	-1E+10	1
4902554	46	C	05/13/2022	10:59	-135.373	49.489	0	203.70	0	5.1690	0	33.7400	0	26.659	0	201.864	0	-1e10	8	-1e10	8	-1E+10	1	-1E+10	1	-1E+10	1	-1E+10	1	-1E+10	1	-1E+10	1
4902554	46	C	05/13/2022	10:59	-135.373	49.489	0	204.60	0	5.1690	0	33.7390	0	26.658	0	202.755	0	-1e10	8	-1e10	8	-1E+10	1	-1E+10	1	-1E+10	1	-1E+10	1	-1E+10	1	-1E+10	1
4902554	46	C	05/13/2022	10:59	-135.373	49.489	0	205.90	0	5.1390	0	33.7440	0	26.666	0	204.043	0	-1e10	8	-1e10	8	-1E+10	1	-1E+10	1	-1E+10	1	-1E+10	1	-1E+10	1	-1E+10	1
4902554	46	C	05/13/2022	10:59	-135.373	49.489	0	207.30	0	5.1180	0	33.7470	0	26.670	0	205.429	0	-1e10	8	-1e10	8	-1E+10	1	-1E+10	1	-1E+10	1	-1E+10	1	-1E+10	1	-1E+10	1
4902554	46	C	05/13/2022	10:59	-135.373	49.489	0	208.20	0	5.1100	0	33.7480	0	26.672	0	206.321	0	-1e10	8	-1e10	8	-1E+10	1	-1E+10	1	-1E+10	1	-1E+10	1	-1E+10	1	-1E+10	1
4902554	46	C	05/13/2022	10:59	-135.373	49.489	0	209.20	0	5.1020	0	33.7480	0	26.673	0	207.311	0	-1e10	8	-1e10	8	-1E+10	1	-1E+10	1	-1E+10	1	-1E+10	1	-1E+10	1	-1E+10	1
4902554	46	C	05/13/2022	10:59	-135.373	49.489	0	210.10	0	5.0860	0	33.7510	0	26.677	0	208.203	0	-1e10	8	-1e10	8	-1E+10	1	-1E+10	1	-1E+10	1	-1E+10	1	-1E+10	1	-1E+10	1
4902554	46	C	05/13/2022	10:59	-135.373	49.489	0	211.00	0	5.0770	0	33.7530	0	26.680	0	209.094	0	-1e10	8	-1e10	8	-1E+10	1	-1E+10	1	-1E+10	1	-1E+10	1	-1E+10	1	-1E+10	1
4902554	46	C	05/13/2022	10:59	-135.373	49.489	0	212.00	0	5.0690	0	33.7550	0	26.682	0	210.084	0	-1e10	8	-1e10	8	-1E+10	1	-1E+10	1	-1E+10	1	-1E+10	1	-1E+10	1	-1E+10	1
4902554	46	C	05/13/2022	10:59	-135.373	49.489	0	212.90	0	5.0590	0	33.7550	0	26.684	0	210.976	0	-1e10	8	-1e10	8	-1E+10	1	-1E+10	1	-1E+10	1	-1E+10	1	-1E+10	1	-1E+10	1
4902554	46	C	05/13/2022	10:59	-135.373	49.489	0	213.80	0	5.0570	0	33.7560	0	26.685	0	211.867	0	-1e10	8	-1e10	8	-1E+10	1	-1E+10	1	-1E+10	1	-1E+10	1	-1E+10	1	-1E+10	1
4902554	46	C	05/13/2022	10:59	-135.373	49.489	0	214.70	0	5.0550	0	33.7560	0	26.685	0	212.759	0	-1e10	8	-1e10	8	-1E+10	1	-1E+10	1	-1E+10	1	-1E+10	1	-1E+10	1	-1E+10	1
4902554	46	C	05/13/2022	10:59	-135.373	49.489	0	215.70	0	5.0470	0	33.7570	0	26.686	0	213.749	0	-1e10	8	-1e10	8	-1E+10	1	-1E+10	1	-1E+10	1	-1E+10	1	-1E+10	1	-1E+10	1
4902554	46	C	05/13/2022	10:59	-135.373	49.489	0	216.60	0	5.0450	0	33.7570	0	26.687	0	214.641	0	-1e10	8	-1e10	8	-1E+10	1	-1E+10	1	-1E+10	1	-1E+10	1	-1E+10	1	-1E+10	1
4902554	46	C	05/13/2022	10:59	-135.373	49.489	0	217.60	0	5.0400	0	33.7590	0	26.689	0	215.631	0	-1e10	8	-1e10	8	-1E+10	1	-1E+10	1	-1E+10	1	-1E+10	1	-1E+10	1	-1E+10	1
4902554	46	C	05/13/2022	10:59	-135.373	49.489	0	218.60	0	5.0320	0	33.7600	0	26.691	0	216.621	0	-1e10	8	-1e10	8	-1E+10	1	-1E+10	1	-1E+10	1	-1E+10	1	-1E+10	1	-1E+10	1
4902554	46	C	05/13/2022	10:59	-135.373	49.489	0	219.50	0	5.0260	0	33.7600	0	26.691	0	217.513	0	-1e10	8	-1e10	8	-1E+10	1	-1E+10	1	-1E+10	1	-1E+10	1	-1E+10	1	-1E+10	1
4902554	46	C	05/13/2022	10:59	-135.373	49.489	0	220.90	0	5.0240	0	33.7600	0	26.692	0	218.899	0	-1e10	8	-1e10	8	-1E+10	1	-1E+10	1	-1E+10	1	-1E+10	1	-1E+10	1	-1E+10	1
4902554	46	C	05/13/2022	10:59	-135.373	49.489	0	222.40	0	5.0220	0	33.7610	0	26.693	0	220.385	0	-1e10	8	-1e10	8	-1E+10	1	-1E+10	1	-1E+10	1	-1E+10	1	-1E+10	1	-1E+10	1
4902554	46	C	05/13/2022	10:59	-135.373	49.489	0	223.40	0	5.0160	0	33.7640	0	26.696	0	221.375	0	-1e10	8	-1e10	8	-1E+10	1	-1E+10	1	-1E+10	1	-1E+10	1	-1E+10	1	-1E+10	1
4902554	46	C	05/13/2022	10:59	-135.373	49.489	0	224.30	0	5.0100	0	33.7630	0	26.696	0	222.267	0	-1e10	8	-1e10	8	-1E+10	1	-1E+10	1	-1E+10	1	-1E+10	1	-1E+10	1	-1E+10	1
4902554	46	C	05/13/2022	10:59	-135.373	49.489	0	225.30	0	5.0080	0	33.7630	0	26.696	0	223.257	0	-1e10	8	-1e10	8	-1E+10	1	-1E+10	1	-1E+10	1	-1E+10	1	-1E+10	1	-1E+10	1
4902554	46	C	05/13/2022	10:59	-135.373	49.489	0	226.30	0	4.9920	0	33.7660	0	26.700	0	224.248	0	-1e10	8	-1e10	8	-1E+10	1	-1E+10	1	-1E+10	1	-1E+10	1	-1E+10	1	-1E+10	1
4902554	46	C	05/13/2022	10:59	-135.373	49.489	0	227.20	0	4.9780	0	33.7680	0	26.703	0	225.139	0	-1e10	8	-1e10	8	-1E+10	1	-1E+10	1	-1E+10	1	-1E+10	1	-1E+10	1	-1E+10	1
4902554	46	C	05/13/2022	10:59	-135.373	49.489	0	228.20	0	4.9760	0	33.7680	0	26.703	0	226.129	0	-1e10	8	-1e10	8	-1E+10	1	-1E+10	1	-1E+10	1	-1E+10	1	-1E+10	1	-1E+10	1
4902554	46	C	05/13/2022	10:59	-135.373	49.489	0	229.10	0	4.9750	0	33.7680	0	26.703	0	227.021	0	-1e10	8	-1e10	8	-1E+10	1	-1E+10	1	-1E+10	1	-1E+10	1	-1E+10	1	-1E+10	1
4902554	46	C	05/13/2022	10:59	-135.373	49.489	0	230.10	0	4.9720	0	33.7690	0	26.705	0	228.011	0	-1e10	8	-1e10	8	-1E+10	1	-1E+10	1	-1E+10	1	-1E+10	1	-1E+10	1	-1E+10	1
4902554	46	C	05/13/2022	10:59	-135.373	49.489	0	231.10	0	4.9700	0	33.7690	0	26.705	0	229.001	0	-1e10	8	-1e10	8	-1E+10	1	-1E+10	1	-1E+10	1	-1E+10	1	-1E+10	1	-1E+10	1
4902554	46	C	05/13/2022	10:59	-135.373	49.489	0	232.00	0	4.9690	0	33.7690	0	26.705	0	229.893	0	-1e10	8	-1e10	8	-1E+10	1	-1E+10	1	-1E+10	1	-1E+10	1	-1E+10	1	-1E+10	1
4902554	46	C	05/13/2022	10:59	-135.373	49.489	0	233.00	0	4.9540	0	33.7730	0	26.710	0	230.883	0	-1e10	8	-1e10	8	-1E+10	1	-1E+10	1	-1E+10	1	-1E+10	1	-1E+10	1	-1E+10	1
4902554	46	C	05/13/2022	10:59	-135.373	49.489	0	233.90	0	4.9460	0	33.7750	0	26.712	0	231.774	0	-1e10	8	-1e10	8	-1E+10	1	-1E+10	1	-1E+10	1	-1E+10	1	-1E+10	1	-1E+10	1
4902554	46	C	05/13/2022	10:59	-135.373	49.489	0	234.90	0	4.9420	0	33.7770	0	26.714	0	232.765	0	-1e10	8	-1e10	8	-1E+10	1	-1E+10	1	-1E+10	1	-1E+10	1	-1E+10	1	-1E+10	1
4902554	46	C	05/13/2022	10:59	-135.373	49.489	0	235.90	0	4.9340	0	33.7790	0	26.717	0	233.755	0	-1e10	8	-1e10	8	-1E+10	1	-1E+10	1	-1E+10	1	-1E+10	1	-1E+10	1	-1E+10	1
4902554	46	C	05/13/2022	10:59	-135.373	49.489	0	236.90	0	4.9300	0	33.7800	0	26.718	0	234.745	0	-1e10	8	-1e10	8	-1E+10	1	-1E+10	1	-1E+10	1	-1E+10	1	-1E+10	1	-1E+10	1
4902554	46	C	05/13/2022	10:59	-135.373	49.489	0	237.90	0	4.9180	0	33.7820	0	26.721	0	235.736	0	-1e10	8	-1e10	8	-1E+10	1	-1E+10	1	-1E+10	1	-1E+10	1	-1E+10	1	-1E+10	1
4902554	46	C	05/13/2022	10:59	-135.373	49.489	0	238.90	0	4.9180	0	33.7820	0	26.721	0	236.726	0	-1e10	8	-1e10	8	-1E+10	1	-1E+10	1	-1E+10	1	-1E+10	1	-1E+10	1	-1E+10	1
4902554	46	C	05/13/2022	10:59	-135.373	49.489	0	239.90	0	4.9100	0	33.7820	0	26.722	0	237.716	0	-1e10	8	-1e10	8	-1E+10	1	-1E+10	1	-1E+10	1	-1E+10	1	-1E+10	1	-1E+10	1
4902554	46	C	05/13/2022	10:59	-135.373	49.489	0	240.80	0	4.9100	0	33.7810	0	26.721	0	238.608	0	-1e10	8	-1e10	8	-1E+10	1	-1E+10	1	-1E+10	1	-1E+10	1	-1E+10	1	-1E+10	1
4902554	46	C	05/13/2022	10:59	-135.373	49.489	0	241.80	0	4.9060	0	33.7820	0	26.722	0	239.598	0	-1e10	8	-1e10	8	-1E+10	1	-1E+10	1	-1E+10	1	-1E+10	1	-1E+10	1	-1E+10	1
4902554	46	C	05/13/2022	10:59	-135.373	49.489	0	242.80	0	4.8590	0	33.7830	0	26.728	0	240.588	0	-1e10	8	-1e10	8	-1E+10	1	-1E+10	1	-1E+10	1	-1E+10	1	-1E+10	1	-1E+10	1
4902554	46	C	05/13/2022	10:59	-135.373	49.489	0	243.80	0	4.8480	0	33.7860	0	26.732	0	241.579	0	-1e10	8	-1e10	8	-1E+10	1	-1E+10	1	-1E+10	1	-1E+10	1	-1E+10	1	-1E+10	1
4902554	46	C	05/13/2022	10:59	-135.373	49.489	0	244.80	0	4.8470	0	33.7860	0	26.732	0	242.569	0	-1e10	8	-1e10	8	-1E+10	1	-1E+10	1	-1E+10	1	-1E+10	1	-1E+10	1	-1E+10	1
4902554	46	C	05/13/2022	10:59	-135.373	49.489	0	245.80	0	4.8460	0	33.7860	0	26.732	0	243.559	0	-1e10	8	-1e10	8	-1E+10	1	-1E+10	1	-1E+10	1	-1E+10	1	-1E+10	1	-1E+10	1
4902554	46	C	05/13/2022	10:59	-135.373	49.489	0	246.80	0	4.8460	0	33.7860	0	26.732	0	244.550	0	-1e10	8	-1e10	8	-1E+10	1	-1E+10	1	-1E+10	1	-1E+10	1	-1E+10	1	-1E+10	1
4902554	46	C	05/13/2022	10:59	-135.373	49.489	0	247.80	0	4.8440	0	33.7870	0	26.733	0	245.540	0	-1e10	8	-1e10	8	-1E+10	1	-1E+10	1	-1E+10	1	-1E+10	1	-1E+10	1	-1E+10	1
4902554	46	C	05/13/2022	10:59	-135.373	49.489	0	248.80	0	4.8360	0	33.7880	0	26.735	0	246.530	0	-1e10	8	-1e10	8	-1E+10	1	-1E+10	1	-1E+10	1	-1E+10	1	-1E+10	1	-1E+10	1
4902554	46	C	05/13/2022	10:59	-135.373	49.489	0	249.80	0	4.8250	0	33.7870	0	26.736	0	247.520	0	-1e10	8	-1e10	8	-1E+10	1	-1E+10	1	-1E+10	1	-1E+10	1	-1E+10	1	-1E+10	1
4902554	46	C	05/13/2022	10:59	-135.373	49.489	0	250.80	0	4.8220	0	33.7880	0	26.737	0	248.511	0	-1e10	8	-1e10	8	-1E+10	1	-1E+10	1	-1E+10	1	-1E+10	1	-1E+10	1	-1E+10	1
4902554	46	C	05/13/2022	10:59	-135.373	49.489	0	251.80	0	4.8080	0	33.7890	0	26.739	0	249.501	0	-1e10	8	-1e10	8	-1E+10	1	-1E+10	1	-1E+10	1	-1E+10	1	-1E+10	1	-1E+10	1
4902554	46	C	05/13/2022	10:59	-135.373	49.489	0	252.80	0	4.7760	0	33.7930	0	26.746	0	250.491	0	-1e10	8	-1e10	8	-1E+10	1	-1E+10	1	-1E+10	1	-1E+10	1	-1E+10	1	-1E+10	1
4902554	46	C	05/13/2022	10:59	-135.373	49.489	0	253.80	0	4.7700	0	33.7930	0	26.746	0	251.481	0	-1e10	8	-1e10	8	-1E+10	1	-1E+10	1	-1E+10	1	-1E+10	1	-1E+10	1	-1E+10	1
4902554	46	C	05/13/2022	10:59	-135.373	49.489	0	254.90	0	4.7670	0	33.7940	0	26.748	0	252.571	0	-1e10	8	-1e10	8	-1E+10	1	-1E+10	1	-1E+10	1	-1E+10	1	-1E+10	1	-1E+10	1
4902554	46	C	05/13/2022	10:59	-135.373	49.489	0	255.90	0	4.7650	0	33.7930	0	26.747	0	253.561	0	-1e10	8	-1e10	8	-1E+10	1	-1E+10	1	-1E+10	1	-1E+10	1	-1E+10	1	-1E+10	1
4902554	46	C	05/13/2022	10:59	-135.373	49.489	0	256.90	0	4.7550	0	33.7950	0	26.750	0	254.551	0	-1e10	8	-1e10	8	-1E+10	1	-1E+10	1	-1E+10	1	-1E+10	1	-1E+10	1	-1E+10	1
4902554	46	C	05/13/2022	10:59	-135.373	49.489	0	257.90	0	4.7500	0	33.7960	0	26.751	0	255.541	0	-1e10	8	-1e10	8	-1E+10	1	-1E+10	1	-1E+10	1	-1E+10	1	-1E+10	1	-1E+10	1
4902554	46	C	05/13/2022	10:59	-135.373	49.489	0	258.90	0	4.7470	0	33.7960	0	26.751	0	256.532	0	-1e10	8	-1e10	8	-1E+10	1	-1E+10	1	-1E+10	1	-1E+10	1	-1E+10	1	-1E+10	1
4902554	46	C	05/13/2022	10:59	-135.373	49.489	0	259.90	0	4.7290	0	33.7980	0	26.755	0	257.522	0	-1e10	8	-1e10	8	-1E+10	1	-1E+10	1	-1E+10	1	-1E+10	1	-1E+10	1	-1E+10	1
4902554	46	C	05/13/2022	10:59	-135.373	49.489	0	260.90	0	4.7270	0	33.7980	0	26.755	0	258.512	0	-1e10	8	-1e10	8	-1E+10	1	-1E+10	1	-1E+10	1	-1E+10	1	-1E+10	1	-1E+10	1
4902554	46	C	05/13/2022	10:59	-135.373	49.489	0	262.00	0	4.7250	0	33.7980	0	26.755	0	259.601	0	-1e10	8	-1e10	8	-1E+10	1	-1E+10	1	-1E+10	1	-1E+10	1	-1E+10	1	-1E+10	1
4902554	46	C	05/13/2022	10:59	-135.373	49.489	0	263.00	0	4.7060	0	33.8050	0	26.763	0	260.592	0	-1e10	8	-1e10	8	-1E+10	1	-1E+10	1	-1E+10	1	-1E+10	1	-1E+10	1	-1E+10	1
4902554	46	C	05/13/2022	10:59	-135.373	49.489	0	264.00	0	4.6910	0	33.8040	0	26.764	0	261.582	0	-1e10	8	-1e10	8	-1E+10	1	-1E+10	1	-1E+10	1	-1E+10	1	-1E+10	1	-1E+10	1
4902554	46	C	05/13/2022	10:59	-135.373	49.489	0	265.00	0	4.6880	0	33.8040	0	26.764	0	262.572	0	-1e10	8	-1e10	8	-1E+10	1	-1E+10	1	-1E+10	1	-1E+10	1	-1E+10	1	-1E+10	1
4902554	46	C	05/13/2022	10:59	-135.373	49.489	0	266.00	0	4.6850	0	33.8050	0	26.765	0	263.562	0	-1e10	8	-1e10	8	-1E+10	1	-1E+10	1	-1E+10	1	-1E+10	1	-1E+10	1	-1E+10	1
4902554	46	C	05/13/2022	10:59	-135.373	49.489	0	267.00	0	4.6750	0	33.8050	0	26.766	0	264.552	0	-1e10	8	-1e10	8	-1E+10	1	-1E+10	1	-1E+10	1	-1E+10	1	-1E+10	1	-1E+10	1
4902554	46	C	05/13/2022	10:59	-135.373	49.489	0	268.00	0	4.6710	0	33.8060	0	26.768	0	265.543	0	-1e10	8	-1e10	8	-1E+10	1	-1E+10	1	-1E+10	1	-1E+10	1	-1E+10	1	-1E+10	1
4902554	46	C	05/13/2022	10:59	-135.373	49.489	0	269.10	0	4.6660	0	33.8060	0	26.768	0	266.632	0	-1e10	8	-1e10	8	-1E+10	1	-1E+10	1	-1E+10	1	-1E+10	1	-1E+10	1	-1E+10	1
4902554	46	C	05/13/2022	10:59	-135.373	49.489	0	270.10	0	4.6560	0	33.8080	0	26.771	0	267.622	0	-1e10	8	-1e10	8	-1E+10	1	-1E+10	1	-1E+10	1	-1E+10	1	-1E+10	1	-1E+10	1
4902554	46	C	05/13/2022	10:59	-135.373	49.489	0	271.10	0	4.6550	0	33.8080	0	26.771	0	268.612	0	-1e10	8	-1e10	8	-1E+10	1	-1E+10	1	-1E+10	1	-1E+10	1	-1E+10	1	-1E+10	1
4902554	46	C	05/13/2022	10:59	-135.373	49.489	0	272.10	0	4.6490	0	33.8100	0	26.773	0	269.602	0	-1e10	8	-1e10	8	-1E+10	1	-1E+10	1	-1E+10	1	-1E+10	1	-1E+10	1	-1E+10	1
4902554	46	C	05/13/2022	10:59	-135.373	49.489	0	273.10	0	4.6410	0	33.8110	0	26.775	0	270.592	0	-1e10	8	-1e10	8	-1E+10	1	-1E+10	1	-1E+10	1	-1E+10	1	-1E+10	1	-1E+10	1
4902554	46	C	05/13/2022	10:59	-135.373	49.489	0	274.20	0	4.6390	0	33.8110	0	26.775	0	271.682	0	-1e10	8	-1e10	8	-1E+10	1	-1E+10	1	-1E+10	1	-1E+10	1	-1E+10	1	-1E+10	1
4902554	46	C	05/13/2022	10:59	-135.373	49.489	0	275.20	0	4.6370	0	33.8110	0	26.775	0	272.672	0	-1e10	8	-1e10	8	-1E+10	1	-1E+10	1	-1E+10	1	-1E+10	1	-1E+10	1	-1E+10	1
4902554	46	C	05/13/2022	10:59	-135.373	49.489	0	276.20	0	4.6310	0	33.8140	0	26.778	0	273.662	0	-1e10	8	-1e10	8	-1E+10	1	-1E+10	1	-1E+10	1	-1E+10	1	-1E+10	1	-1E+10	1
4902554	46	C	05/13/2022	10:59	-135.373	49.489	0	277.20	0	4.6270	0	33.8150	0	26.780	0	274.652	0	-1e10	8	-1e10	8	-1E+10	1	-1E+10	1	-1E+10	1	-1E+10	1	-1E+10	1	-1E+10	1
4902554	46	C	05/13/2022	10:59	-135.373	49.489	0	278.30	0	4.6200	0	33.8190	0	26.784	0	275.741	0	-1e10	8	-1e10	8	-1E+10	1	-1E+10	1	-1E+10	1	-1E+10	1	-1E+10	1	-1E+10	1
4902554	46	C	05/13/2022	10:59	-135.373	49.489	0	279.30	0	4.6180	0	33.8190	0	26.784	0	276.731	0	-1e10	8	-1e10	8	-1E+10	1	-1E+10	1	-1E+10	1	-1E+10	1	-1E+10	1	-1E+10	1
4902554	46	C	05/13/2022	10:59	-135.373	49.489	0	280.30	0	4.6170	0	33.8180	0	26.783	0	277.722	0	-1e10	8	-1e10	8	-1E+10	1	-1E+10	1	-1E+10	1	-1E+10	1	-1E+10	1	-1E+10	1
4902554	46	C	05/13/2022	10:59	-135.373	49.489	0	281.30	0	4.6070	0	33.8200	0	26.786	0	278.712	0	-1e10	8	-1e10	8	-1E+10	1	-1E+10	1	-1E+10	1	-1E+10	1	-1E+10	1	-1E+10	1
4902554	46	C	05/13/2022	10:59	-135.373	49.489	0	282.30	0	4.5860	0	33.8230	0	26.791	0	279.702	0	-1e10	8	-1e10	8	-1E+10	1	-1E+10	1	-1E+10	1	-1E+10	1	-1E+10	1	-1E+10	1
4902554	46	C	05/13/2022	10:59	-135.373	49.489	0	283.30	0	4.5880	0	33.8240	0	26.791	0	280.692	0	-1e10	8	-1e10	8	-1E+10	1	-1E+10	1	-1E+10	1	-1E+10	1	-1E+10	1	-1E+10	1
4902554	46	C	05/13/2022	10:59	-135.373	49.489	0	284.40	0	4.5860	0	33.8250	0	26.792	0	281.781	0	-1e10	8	-1e10	8	-1E+10	1	-1E+10	1	-1E+10	1	-1E+10	1	-1E+10	1	-1E+10	1
4902554	46	C	05/13/2022	10:59	-135.373	49.489	0	285.40	0	4.5760	0	33.8260	0	26.794	0	282.771	0	-1e10	8	-1e10	8	-1E+10	1	-1E+10	1	-1E+10	1	-1E+10	1	-1E+10	1	-1E+10	1
4902554	46	C	05/13/2022	10:59	-135.373	49.489	0	286.40	0	4.5700	0	33.8280	0	26.796	0	283.761	0	-1e10	8	-1e10	8	-1E+10	1	-1E+10	1	-1E+10	1	-1E+10	1	-1E+10	1	-1E+10	1
4902554	46	C	05/13/2022	10:59	-135.373	49.489	0	287.40	0	4.5650	0	33.8300	0	26.798	0	284.751	0	-1e10	8	-1e10	8	-1E+10	1	-1E+10	1	-1E+10	1	-1E+10	1	-1E+10	1	-1E+10	1
4902554	46	C	05/13/2022	10:59	-135.373	49.489	0	288.40	0	4.5660	0	33.8310	0	26.799	0	285.741	0	-1e10	8	-1e10	8	-1E+10	1	-1E+10	1	-1E+10	1	-1E+10	1	-1E+10	1	-1E+10	1
4902554	46	C	05/13/2022	10:59	-135.373	49.489	0	289.40	0	4.5610	0	33.8340	0	26.802	0	286.732	0	-1e10	8	-1e10	8	-1E+10	1	-1E+10	1	-1E+10	1	-1E+10	1	-1E+10	1	-1E+10	1
4902554	46	C	05/13/2022	10:59	-135.373	49.489	0	290.50	0	4.5500	0	33.8350	0	26.804	0	287.821	0	-1e10	8	-1e10	8	-1E+10	1	-1E+10	1	-1E+10	1	-1E+10	1	-1E+10	1	-1E+10	1
4902554	46	C	05/13/2022	10:59	-135.373	49.489	0	291.50	0	4.5470	0	33.8360	0	26.805	0	288.811	0	-1e10	8	-1e10	8	-1E+10	1	-1E+10	1	-1E+10	1	-1E+10	1	-1E+10	1	-1E+10	1
4902554	46	C	05/13/2022	10:59	-135.373	49.489	0	292.50	0	4.5310	0	33.8420	0	26.812	0	289.801	0	-1e10	8	-1e10	8	-1E+10	1	-1E+10	1	-1E+10	1	-1E+10	1	-1E+10	1	-1E+10	1
4902554	46	C	05/13/2022	10:59	-135.373	49.489	0	293.50	0	4.5270	0	33.8410	0	26.811	0	290.791	0	-1e10	8	-1e10	8	-1E+10	1	-1E+10	1	-1E+10	1	-1E+10	1	-1E+10	1	-1E+10	1
4902554	46	C	05/13/2022	10:59	-135.373	49.489	0	294.50	0	4.5260	0	33.8420	0	26.812	0	291.781	0	-1e10	8	-1e10	8	-1E+10	1	-1E+10	1	-1E+10	1	-1E+10	1	-1E+10	1	-1E+10	1
4902554	46	C	05/13/2022	10:59	-135.373	49.489	0	295.50	0	4.5260	0	33.8420	0	26.812	0	292.771	0	-1e10	8	-1e10	8	-1E+10	1	-1E+10	1	-1E+10	1	-1E+10	1	-1E+10	1	-1E+10	1
4902554	46	C	05/13/2022	10:59	-135.373	49.489	0	296.60	0	4.5200	0	33.8440	0	26.814	0	293.860	0	-1e10	8	-1e10	8	-1E+10	1	-1E+10	1	-1E+10	1	-1E+10	1	-1E+10	1	-1E+10	1
4902554	46	C	05/13/2022	10:59	-135.373	49.489	0	297.60	0	4.5160	0	33.8450	0	26.816	0	294.850	0	-1e10	8	-1e10	8	-1E+10	1	-1E+10	1	-1E+10	1	-1E+10	1	-1E+10	1	-1E+10	1
4902554	46	C	05/13/2022	10:59	-135.373	49.489	0	298.70	0	4.5130	0	33.8450	0	26.816	0	295.939	0	-1e10	8	-1e10	8	-1E+10	1	-1E+10	1	-1E+10	1	-1E+10	1	-1E+10	1	-1E+10	1
4902554	46	C	05/13/2022	10:59	-135.373	49.489	0	299.70	0	4.5090	0	33.8470	0	26.818	0	296.929	0	-1e10	8	-1e10	8	-1E+10	1	-1E+10	1	-1E+10	1	-1E+10	1	-1E+10	1	-1E+10	1
4902554	46	C	05/13/2022	10:59	-135.373	49.489	0	300.80	0	4.5050	0	33.8490	0	26.820	0	298.018	0	-1e10	8	-1e10	8	-1E+10	1	-1E+10	1	-1E+10	1	-1E+10	1	-1E+10	1	-1E+10	1
4902554	46	C	05/13/2022	10:59	-135.373	49.489	0	301.80	0	4.5030	0	33.8500	0	26.821	0	299.008	0	-1e10	8	-1e10	8	-1E+10	1	-1E+10	1	-1E+10	1	-1E+10	1	-1E+10	1	-1E+10	1
4902554	46	C	05/13/2022	10:59	-135.373	49.489	0	302.90	0	4.5010	0	33.8510	0	26.822	0	300.097	0	-1e10	8	-1e10	8	-1E+10	1	-1E+10	1	-1E+10	1	-1E+10	1	-1E+10	1	-1E+10	1
4902554	46	C	05/13/2022	10:59	-135.373	49.489	0	303.90	0	4.4990	0	33.8520	0	26.823	0	301.087	0	-1e10	8	-1e10	8	-1E+10	1	-1E+10	1	-1E+10	1	-1E+10	1	-1E+10	1	-1E+10	1
4902554	46	C	05/13/2022	10:59	-135.373	49.489	0	304.90	0	4.4980	0	33.8530	0	26.824	0	302.077	0	-1e10	8	-1e10	8	-1E+10	1	-1E+10	1	-1E+10	1	-1E+10	1	-1E+10	1	-1E+10	1
4902554	46	C	05/13/2022	10:59	-135.373	49.489	0	306.00	0	4.4940	0	33.8540	0	26.825	0	303.166	0	-1e10	8	-1e10	8	-1E+10	1	-1E+10	1	-1E+10	1	-1E+10	1	-1E+10	1	-1E+10	1
4902554	46	C	05/13/2022	10:59	-135.373	49.489	0	307.00	0	4.4910	0	33.8550	0	26.826	0	304.156	0	-1e10	8	-1e10	8	-1E+10	1	-1E+10	1	-1E+10	1	-1E+10	1	-1E+10	1	-1E+10	1
4902554	46	C	05/13/2022	10:59	-135.373	49.489	0	308.00	0	4.4920	0	33.8540	0	26.826	0	305.146	0	-1e10	8	-1e10	8	-1E+10	1	-1E+10	1	-1E+10	1	-1E+10	1	-1E+10	1	-1E+10	1
4902554	46	C	05/13/2022	10:59	-135.373	49.489	0	309.10	0	4.4900	0	33.8540	0	26.826	0	306.235	0	-1e10	8	-1e10	8	-1E+10	1	-1E+10	1	-1E+10	1	-1E+10	1	-1E+10	1	-1E+10	1
4902554	46	C	05/13/2022	10:59	-135.373	49.489	0	310.10	0	4.4820	0	33.8580	0	26.830	0	307.225	0	-1e10	8	-1e10	8	-1E+10	1	-1E+10	1	-1E+10	1	-1E+10	1	-1E+10	1	-1E+10	1
4902554	46	C	05/13/2022	10:59	-135.373	49.489	0	311.20	0	4.4800	0	33.8590	0	26.831	0	308.314	0	-1e10	8	-1e10	8	-1E+10	1	-1E+10	1	-1E+10	1	-1E+10	1	-1E+10	1	-1E+10	1
4902554	46	C	05/13/2022	10:59	-135.373	49.489	0	312.20	0	4.4770	0	33.8610	0	26.833	0	309.304	0	-1e10	8	-1e10	8	-1E+10	1	-1E+10	1	-1E+10	1	-1E+10	1	-1E+10	1	-1E+10	1
4902554	46	C	05/13/2022	10:59	-135.373	49.489	0	313.20	0	4.4780	0	33.8610	0	26.833	0	310.294	0	-1e10	8	-1e10	8	-1E+10	1	-1E+10	1	-1E+10	1	-1E+10	1	-1E+10	1	-1E+10	1
4902554	46	C	05/13/2022	10:59	-135.373	49.489	0	314.30	0	4.4770	0	33.8630	0	26.834	0	311.383	0	-1e10	8	-1e10	8	-1E+10	1	-1E+10	1	-1E+10	1	-1E+10	1	-1E+10	1	-1E+10	1
4902554	46	C	05/13/2022	10:59	-135.373	49.489	0	315.30	0	4.4710	0	33.8640	0	26.836	0	312.373	0	-1e10	8	-1e10	8	-1E+10	1	-1E+10	1	-1E+10	1	-1E+10	1	-1E+10	1	-1E+10	1
4902554	46	C	05/13/2022	10:59	-135.373	49.489	0	316.30	0	4.4660	0	33.8670	0	26.839	0	313.363	0	-1e10	8	-1e10	8	-1E+10	1	-1E+10	1	-1E+10	1	-1E+10	1	-1E+10	1	-1E+10	1
4902554	46	C	05/13/2022	10:59	-135.373	49.489	0	317.30	0	4.4630	0	33.8670	0	26.839	0	314.353	0	-1e10	8	-1e10	8	-1E+10	1	-1E+10	1	-1E+10	1	-1E+10	1	-1E+10	1	-1E+10	1
4902554	46	C	05/13/2022	10:59	-135.373	49.489	0	318.40	0	4.4630	0	33.8690	0	26.841	0	315.442	0	-1e10	8	-1e10	8	-1E+10	1	-1E+10	1	-1E+10	1	-1E+10	1	-1E+10	1	-1E+10	1
4902554	46	C	05/13/2022	10:59	-135.373	49.489	0	319.40	0	4.4620	0	33.8710	0	26.842	0	316.432	0	-1e10	8	-1e10	8	-1E+10	1	-1E+10	1	-1E+10	1	-1E+10	1	-1E+10	1	-1E+10	1
4902554	46	C	05/13/2022	10:59	-135.373	49.489	0	320.40	0	4.4500	0	33.8720	0	26.844	0	317.422	0	-1e10	8	-1e10	8	-1E+10	1	-1E+10	1	-1E+10	1	-1E+10	1	-1E+10	1	-1E+10	1
4902554	46	C	05/13/2022	10:59	-135.373	49.489	0	321.40	0	4.4650	0	33.8750	0	26.845	0	318.412	0	-1e10	8	-1e10	8	-1E+10	1	-1E+10	1	-1E+10	1	-1E+10	1	-1E+10	1	-1E+10	1
4902554	46	C	05/13/2022	10:59	-135.373	49.489	0	322.40	0	4.4650	0	33.8770	0	26.847	0	319.402	0	-1e10	8	-1e10	8	-1E+10	1	-1E+10	1	-1E+10	1	-1E+10	1	-1E+10	1	-1E+10	1
4902554	46	C	05/13/2022	10:59	-135.373	49.489	0	323.40	0	4.4550	0	33.8770	0	26.848	0	320.392	0	-1e10	8	-1e10	8	-1E+10	1	-1E+10	1	-1E+10	1	-1E+10	1	-1E+10	1	-1E+10	1
4902554	46	C	05/13/2022	10:59	-135.373	49.489	0	324.90	0	4.4440	0	33.8770	0	26.849	0	321.877	0	-1e10	8	-1e10	8	-1E+10	1	-1E+10	1	-1E+10	1	-1E+10	1	-1E+10	1	-1E+10	1
4902554	46	C	05/13/2022	10:59	-135.373	49.489	0	326.90	0	4.4580	0	33.8810	0	26.851	0	323.856	0	-1e10	8	-1e10	8	-1E+10	1	-1E+10	1	-1E+10	1	-1E+10	1	-1E+10	1	-1E+10	1
4902554	46	C	05/13/2022	10:59	-135.373	49.489	0	328.40	0	4.4460	0	33.8860	0	26.856	0	325.341	0	-1e10	8	-1e10	8	-1E+10	1	-1E+10	1	-1E+10	1	-1E+10	1	-1E+10	1	-1E+10	1
4902554	46	C	05/13/2022	10:59	-135.373	49.489	0	329.40	0	4.4340	0	33.8840	0	26.856	0	326.331	0	-1e10	8	-1e10	8	-1E+10	1	-1E+10	1	-1E+10	1	-1E+10	1	-1E+10	1	-1E+10	1
4902554	46	C	05/13/2022	10:59	-135.373	49.489	0	330.50	0	4.4340	0	33.8860	0	26.857	0	327.420	0	-1e10	8	-1e10	8	-1E+10	1	-1E+10	1	-1E+10	1	-1E+10	1	-1E+10	1	-1E+10	1
4902554	46	C	05/13/2022	10:59	-135.373	49.489	0	331.50	0	4.4340	0	33.8860	0	26.857	0	328.410	0	-1e10	8	-1e10	8	-1E+10	1	-1E+10	1	-1E+10	1	-1E+10	1	-1E+10	1	-1E+10	1
4902554	46	C	05/13/2022	10:59	-135.373	49.489	0	332.50	0	4.4340	0	33.8870	0	26.858	0	329.400	0	-1e10	8	-1e10	8	-1E+10	1	-1E+10	1	-1E+10	1	-1E+10	1	-1E+10	1	-1E+10	1
4902554	46	C	05/13/2022	10:59	-135.373	49.489	0	333.50	0	4.4350	0	33.8880	0	26.859	0	330.390	0	-1e10	8	-1e10	8	-1E+10	1	-1E+10	1	-1E+10	1	-1E+10	1	-1E+10	1	-1E+10	1
4902554	46	C	05/13/2022	10:59	-135.373	49.489	0	334.50	0	4.4370	0	33.8910	0	26.861	0	331.380	0	-1e10	8	-1e10	8	-1E+10	1	-1E+10	1	-1E+10	1	-1E+10	1	-1E+10	1	-1E+10	1
4902554	46	C	05/13/2022	10:59	-135.373	49.489	0	335.50	0	4.4390	0	33.8930	0	26.862	0	332.370	0	-1e10	8	-1e10	8	-1E+10	1	-1E+10	1	-1E+10	1	-1E+10	1	-1E+10	1	-1E+10	1
4902554	46	C	05/13/2022	10:59	-135.373	49.489	0	336.50	0	4.4420	0	33.8960	0	26.864	0	333.359	0	-1e10	8	-1e10	8	-1E+10	1	-1E+10	1	-1E+10	1	-1E+10	1	-1E+10	1	-1E+10	1
4902554	46	C	05/13/2022	10:59	-135.373	49.489	0	337.50	0	4.4380	0	33.8990	0	26.867	0	334.349	0	-1e10	8	-1e10	8	-1E+10	1	-1E+10	1	-1E+10	1	-1E+10	1	-1E+10	1	-1E+10	1
4902554	46	C	05/13/2022	10:59	-135.373	49.489	0	338.50	0	4.4370	0	33.9020	0	26.870	0	335.339	0	-1e10	8	-1e10	8	-1E+10	1	-1E+10	1	-1E+10	1	-1E+10	1	-1E+10	1	-1E+10	1
4902554	46	C	05/13/2022	10:59	-135.373	49.489	0	339.50	0	4.4410	0	33.9050	0	26.872	0	336.329	0	-1e10	8	-1e10	8	-1E+10	1	-1E+10	1	-1E+10	1	-1E+10	1	-1E+10	1	-1E+10	1
4902554	46	C	05/13/2022	10:59	-135.373	49.489	0	340.50	0	4.4400	0	33.9100	0	26.876	0	337.319	0	-1e10	8	-1e10	8	-1E+10	1	-1E+10	1	-1E+10	1	-1E+10	1	-1E+10	1	-1E+10	1
4902554	46	C	05/13/2022	10:59	-135.373	49.489	0	341.60	0	4.4410	0	33.9130	0	26.878	0	338.408	0	-1e10	8	-1e10	8	-1E+10	1	-1E+10	1	-1E+10	1	-1E+10	1	-1E+10	1	-1E+10	1
4902554	46	C	05/13/2022	10:59	-135.373	49.489	0	342.60	0	4.4410	0	33.9140	0	26.879	0	339.397	0	-1e10	8	-1e10	8	-1E+10	1	-1E+10	1	-1E+10	1	-1E+10	1	-1E+10	1	-1E+10	1
4902554	46	C	05/13/2022	10:59	-135.373	49.489	0	343.60	0	4.4400	0	33.9150	0	26.880	0	340.387	0	-1e10	8	-1e10	8	-1E+10	1	-1E+10	1	-1E+10	1	-1E+10	1	-1E+10	1	-1E+10	1
4902554	46	C	05/13/2022	10:59	-135.373	49.489	0	344.60	0	4.4400	0	33.9170	0	26.881	0	341.377	0	-1e10	8	-1e10	8	-1E+10	1	-1E+10	1	-1E+10	1	-1E+10	1	-1E+10	1	-1E+10	1
4902554	46	C	05/13/2022	10:59	-135.373	49.489	0	345.60	0	4.4400	0	33.9170	0	26.881	0	342.367	0	-1e10	8	-1e10	8	-1E+10	1	-1E+10	1	-1E+10	1	-1E+10	1	-1E+10	1	-1E+10	1
4902554	46	C	05/13/2022	10:59	-135.373	49.489	0	346.60	0	4.4380	0	33.9190	0	26.883	0	343.357	0	-1e10	8	-1e10	8	-1E+10	1	-1E+10	1	-1E+10	1	-1E+10	1	-1E+10	1	-1E+10	1
4902554	46	C	05/13/2022	10:59	-135.373	49.489	0	347.70	0	4.4340	0	33.9250	0	26.888	0	344.446	0	-1e10	8	-1e10	8	-1E+10	1	-1E+10	1	-1E+10	1	-1E+10	1	-1E+10	1	-1E+10	1
4902554	46	C	05/13/2022	10:59	-135.373	49.489	0	348.70	0	4.4340	0	33.9260	0	26.889	0	345.435	0	-1e10	8	-1e10	8	-1E+10	1	-1E+10	1	-1E+10	1	-1E+10	1	-1E+10	1	-1E+10	1
4902554	46	C	05/13/2022	10:59	-135.373	49.489	0	349.70	0	4.4330	0	33.9270	0	26.890	0	346.425	0	-1e10	8	-1e10	8	-1E+10	1	-1E+10	1	-1E+10	1	-1E+10	1	-1E+10	1	-1E+10	1
4902554	46	C	05/13/2022	10:59	-135.373	49.489	0	353.10	0	4.4250	0	33.9330	0	26.896	0	349.790	0	-1e10	8	-1e10	8	-1E+10	1	-1E+10	1	-1E+10	1	-1E+10	1	-1E+10	1	-1E+10	1
4902554	46	C	05/13/2022	10:59	-135.373	49.489	0	358.20	0	4.4150	0	33.9460	0	26.907	0	354.838	0	-1e10	8	-1e10	8	-1E+10	1	-1E+10	1	-1E+10	1	-1E+10	1	-1E+10	1	-1E+10	1
4902554	46	C	05/13/2022	10:59	-135.373	49.489	0	363.10	0	4.4080	0	33.9530	0	26.914	0	359.688	0	-1e10	8	-1e10	8	-1E+10	1	-1E+10	1	-1E+10	1	-1E+10	1	-1E+10	1	-1E+10	1
4902554	46	C	05/13/2022	10:59	-135.373	49.489	0	368.10	0	4.4040	0	33.9580	0	26.918	0	364.637	0	-1e10	8	-1e10	8	-1E+10	1	-1E+10	1	-1E+10	1	-1E+10	1	-1E+10	1	-1E+10	1
4902554	46	C	05/13/2022	10:59	-135.373	49.489	0	373.20	0	4.3980	0	33.9640	0	26.923	0	369.684	0	-1e10	8	-1e10	8	-1E+10	1	-1E+10	1	-1E+10	1	-1E+10	1	-1E+10	1	-1E+10	1
4902554	46	C	05/13/2022	10:59	-135.373	49.489	0	377.90	0	4.3890	0	33.9700	0	26.929	0	374.336	0	-1e10	8	-1e10	8	-1E+10	1	-1E+10	1	-1E+10	1	-1E+10	1	-1E+10	1	-1E+10	1
4902554	46	C	05/13/2022	10:59	-135.373	49.489	0	382.80	0	4.3750	0	33.9780	0	26.937	0	379.185	0	-1e10	8	-1e10	8	-1E+10	1	-1E+10	1	-1E+10	1	-1E+10	1	-1E+10	1	-1E+10	1
4902554	46	C	05/13/2022	10:59	-135.373	49.489	0	387.80	0	4.3680	0	33.9820	0	26.941	0	384.133	0	-1e10	8	-1e10	8	-1E+10	1	-1E+10	1	-1E+10	1	-1E+10	1	-1E+10	1	-1E+10	1
4902554	46	C	05/13/2022	10:59	-135.373	49.489	0	392.80	0	4.3620	0	33.9860	0	26.945	0	389.081	0	-1e10	8	-1e10	8	-1E+10	1	-1E+10	1	-1E+10	1	-1E+10	1	-1E+10	1	-1E+10	1
4902554	46	C	05/13/2022	10:59	-135.373	49.489	0	398.00	0	4.3490	0	33.9950	0	26.953	0	394.227	0	-1e10	8	-1e10	8	-1E+10	1	-1E+10	1	-1E+10	1	-1E+10	1	-1E+10	1	-1E+10	1
4902554	46	C	05/13/2022	10:59	-135.373	49.489	0	402.80	0	4.3440	0	33.9990	0	26.957	0	398.977	0	-1e10	8	-1e10	8	-1E+10	1	-1E+10	1	-1E+10	1	-1E+10	1	-1E+10	1	-1E+10	1
4902554	46	C	05/13/2022	10:59	-135.373	49.489	0	407.60	0	4.3340	0	34.0050	0	26.963	0	403.727	0	-1e10	8	-1e10	8	-1E+10	1	-1E+10	1	-1E+10	1	-1E+10	1	-1E+10	1	-1E+10	1
4902554	46	C	05/13/2022	10:59	-135.373	49.489	0	413.00	0	4.3290	0	34.0080	0	26.966	0	409.070	0	-1e10	8	-1e10	8	-1E+10	1	-1E+10	1	-1E+10	1	-1E+10	1	-1E+10	1	-1E+10	1
4902554	46	C	05/13/2022	10:59	-135.373	49.489	0	418.20	0	4.3190	0	34.0140	0	26.972	0	414.215	0	-1e10	8	-1e10	8	-1E+10	1	-1E+10	1	-1E+10	1	-1E+10	1	-1E+10	1	-1E+10	1
4902554	46	C	05/13/2022	10:59	-135.373	49.489	0	423.00	0	4.3110	0	34.0180	0	26.976	0	418.965	0	-1e10	8	-1e10	8	-1E+10	1	-1E+10	1	-1E+10	1	-1E+10	1	-1E+10	1	-1E+10	1
4902554	46	C	05/13/2022	10:59	-135.373	49.489	0	427.80	0	4.2970	0	34.0260	0	26.984	0	423.714	0	-1e10	8	-1e10	8	-1E+10	1	-1E+10	1	-1E+10	1	-1E+10	1	-1E+10	1	-1E+10	1
4902554	46	C	05/13/2022	10:59	-135.373	49.489	0	432.60	0	4.2790	0	34.0320	0	26.991	0	428.463	0	-1e10	8	-1e10	8	-1E+10	1	-1E+10	1	-1E+10	1	-1E+10	1	-1E+10	1	-1E+10	1
4902554	46	C	05/13/2022	10:59	-135.373	49.489	0	437.80	0	4.2700	0	34.0370	0	26.995	0	433.608	0	-1e10	8	-1e10	8	-1E+10	1	-1E+10	1	-1E+10	1	-1E+10	1	-1E+10	1	-1E+10	1
4902554	46	C	05/13/2022	10:59	-135.373	49.489	0	443.10	0	4.2530	0	34.0440	0	27.003	0	438.852	0	-1e10	8	-1e10	8	-1E+10	1	-1E+10	1	-1E+10	1	-1E+10	1	-1E+10	1	-1E+10	1
4902554	46	C	05/13/2022	10:59	-135.373	49.489	0	447.90	0	4.2440	0	34.0490	0	27.008	0	443.601	0	-1e10	8	-1e10	8	-1E+10	1	-1E+10	1	-1E+10	1	-1E+10	1	-1E+10	1	-1E+10	1
4902554	46	C	05/13/2022	10:59	-135.373	49.489	0	452.70	0	4.2400	0	34.0570	0	27.015	0	448.349	0	-1e10	8	-1e10	8	-1E+10	1	-1E+10	1	-1E+10	1	-1E+10	1	-1E+10	1	-1E+10	1
4902554	46	C	05/13/2022	10:59	-135.373	49.489	0	457.60	0	4.2350	0	34.0620	0	27.019	0	453.197	0	-1e10	8	-1e10	8	-1E+10	1	-1E+10	1	-1E+10	1	-1E+10	1	-1E+10	1	-1E+10	1
4902554	46	C	05/13/2022	10:59	-135.373	49.489	0	462.90	0	4.2230	0	34.0680	0	27.025	0	458.440	0	-1e10	8	-1e10	8	-1E+10	1	-1E+10	1	-1E+10	1	-1E+10	1	-1E+10	1	-1E+10	1
4902554	46	C	05/13/2022	10:59	-135.373	49.489	0	468.20	0	4.2030	0	34.0760	0	27.034	0	463.683	0	-1e10	8	-1e10	8	-1E+10	1	-1E+10	1	-1E+10	1	-1E+10	1	-1E+10	1	-1E+10	1
4902554	46	C	05/13/2022	10:59	-135.373	49.489	0	473.10	0	4.1940	0	34.0790	0	27.037	0	468.530	0	-1e10	8	-1e10	8	-1E+10	1	-1E+10	1	-1E+10	1	-1E+10	1	-1E+10	1	-1E+10	1
4902554	46	C	05/13/2022	10:59	-135.373	49.489	0	478.10	0	4.1710	0	34.0890	0	27.047	0	473.476	0	-1e10	8	-1e10	8	-1E+10	1	-1E+10	1	-1E+10	1	-1E+10	1	-1E+10	1	-1E+10	1
4902554	46	C	05/13/2022	10:59	-135.373	49.489	0	483.10	0	4.1660	0	34.0910	0	27.050	0	478.422	0	-1e10	8	-1e10	8	-1E+10	1	-1E+10	1	-1E+10	1	-1E+10	1	-1E+10	1	-1E+10	1
4902554	46	C	05/13/2022	10:59	-135.373	49.489	0	488.00	0	4.1600	0	34.0930	0	27.052	0	483.269	0	-1e10	8	-1e10	8	-1E+10	1	-1E+10	1	-1E+10	1	-1E+10	1	-1E+10	1	-1E+10	1
4902554	46	C	05/13/2022	10:59	-135.373	49.489	0	492.80	0	4.1480	0	34.0970	0	27.056	0	488.017	0	-1e10	8	-1e10	8	-1E+10	1	-1E+10	1	-1E+10	1	-1E+10	1	-1E+10	1	-1E+10	1
4902554	46	C	05/13/2022	10:59	-135.373	49.489	0	497.80	0	4.1380	0	34.1010	0	27.061	0	492.962	0	-1e10	8	-1e10	8	-1E+10	1	-1E+10	1	-1E+10	1	-1E+10	1	-1E+10	1	-1E+10	1
4902554	46	C	05/13/2022	10:59	-135.373	49.489	0	503.00	0	4.1280	0	34.1040	0	27.064	0	498.106	0	-1e10	8	-1e10	8	-1E+10	1	-1E+10	1	-1E+10	1	-1E+10	1	-1E+10	1	-1E+10	1
4902554	46	C	05/13/2022	10:59	-135.373	49.489	0	508.10	0	4.1210	0	34.1070	0	27.067	0	503.150	0	-1e10	8	-1e10	8	-1E+10	1	-1E+10	1	-1E+10	1	-1E+10	1	-1E+10	1	-1E+10	1
4902554	46	C	05/13/2022	10:59	-135.373	49.489	0	513.00	0	4.1140	0	34.1100	0	27.070	0	507.996	0	-1e10	8	-1e10	8	-1E+10	1	-1E+10	1	-1E+10	1	-1E+10	1	-1E+10	1	-1E+10	1
4902554	46	C	05/13/2022	10:59	-135.373	49.489	0	518.10	0	4.1070	0	34.1120	0	27.073	0	513.040	0	-1e10	8	-1e10	8	-1E+10	1	-1E+10	1	-1E+10	1	-1E+10	1	-1E+10	1	-1E+10	1
4902554	46	C	05/13/2022	10:59	-135.373	49.489	0	522.80	0	4.1060	0	34.1130	0	27.074	0	517.688	0	-1e10	8	-1e10	8	-1E+10	1	-1E+10	1	-1E+10	1	-1E+10	1	-1E+10	1	-1E+10	1
4902554	46	C	05/13/2022	10:59	-135.373	49.489	0	527.60	0	4.1040	0	34.1140	0	27.075	0	522.435	0	-1e10	8	-1e10	8	-1E+10	1	-1E+10	1	-1E+10	1	-1E+10	1	-1E+10	1	-1E+10	1
4902554	46	C	05/13/2022	10:59	-135.373	49.489	0	533.10	0	4.0960	0	34.1160	0	27.077	0	527.874	0	-1e10	8	-1e10	8	-1E+10	1	-1E+10	1	-1E+10	1	-1E+10	1	-1E+10	1	-1E+10	1
4902554	46	C	05/13/2022	10:59	-135.373	49.489	0	538.20	0	4.0880	0	34.1190	0	27.080	0	532.918	0	-1e10	8	-1e10	8	-1E+10	1	-1E+10	1	-1E+10	1	-1E+10	1	-1E+10	1	-1E+10	1
4902554	46	C	05/13/2022	10:59	-135.373	49.489	0	542.80	0	4.0820	0	34.1210	0	27.083	0	537.467	0	-1e10	8	-1e10	8	-1E+10	1	-1E+10	1	-1E+10	1	-1E+10	1	-1E+10	1	-1E+10	1
4902554	46	C	05/13/2022	10:59	-135.373	49.489	0	547.50	0	4.0770	0	34.1230	0	27.085	0	542.115	0	-1e10	8	-1e10	8	-1E+10	1	-1E+10	1	-1E+10	1	-1E+10	1	-1E+10	1	-1E+10	1
4902554	46	C	05/13/2022	10:59	-135.373	49.489	0	552.80	0	4.0690	0	34.1260	0	27.088	0	547.355	0	-1e10	8	-1e10	8	-1E+10	1	-1E+10	1	-1E+10	1	-1E+10	1	-1E+10	1	-1E+10	1
4902554	46	C	05/13/2022	10:59	-135.373	49.489	0	558.20	0	4.0550	0	34.1300	0	27.093	0	552.695	0	-1e10	8	-1e10	8	-1E+10	1	-1E+10	1	-1E+10	1	-1E+10	1	-1E+10	1	-1E+10	1
4902554	46	C	05/13/2022	10:59	-135.373	49.489	0	563.20	0	4.0420	0	34.1340	0	27.097	0	557.639	0	-1e10	8	-1e10	8	-1E+10	1	-1E+10	1	-1E+10	1	-1E+10	1	-1E+10	1	-1E+10	1
4902554	46	C	05/13/2022	10:59	-135.373	49.489	0	568.10	0	4.0340	0	34.1380	0	27.101	0	562.484	0	-1e10	8	-1e10	8	-1E+10	1	-1E+10	1	-1E+10	1	-1E+10	1	-1E+10	1	-1E+10	1
4902554	46	C	05/13/2022	10:59	-135.373	49.489	0	573.20	0	4.0210	0	34.1430	0	27.107	0	567.527	0	-1e10	8	-1e10	8	-1E+10	1	-1E+10	1	-1E+10	1	-1E+10	1	-1E+10	1	-1E+10	1
4902554	46	C	05/13/2022	10:59	-135.373	49.489	0	578.20	0	4.0060	0	34.1470	0	27.111	0	572.470	0	-1e10	8	-1e10	8	-1E+10	1	-1E+10	1	-1E+10	1	-1E+10	1	-1E+10	1	-1E+10	1
4902554	46	C	05/13/2022	10:59	-135.373	49.489	0	583.30	0	3.9930	0	34.1510	0	27.116	0	577.513	0	-1e10	8	-1e10	8	-1E+10	1	-1E+10	1	-1E+10	1	-1E+10	1	-1E+10	1	-1E+10	1
4902554	46	C	05/13/2022	10:59	-135.373	49.489	0	587.90	0	3.9820	0	34.1540	0	27.119	0	582.061	0	-1e10	8	-1e10	8	-1E+10	1	-1E+10	1	-1E+10	1	-1E+10	1	-1E+10	1	-1E+10	1
4902554	46	C	05/13/2022	10:59	-135.373	49.489	0	592.60	0	3.9750	0	34.1560	0	27.122	0	586.707	0	-1e10	8	-1e10	8	-1E+10	1	-1E+10	1	-1E+10	1	-1E+10	1	-1E+10	1	-1E+10	1
4902554	46	C	05/13/2022	10:59	-135.373	49.489	0	597.90	0	3.9640	0	34.1600	0	27.126	0	591.947	0	-1e10	8	-1e10	8	-1E+10	1	-1E+10	1	-1E+10	1	-1E+10	1	-1E+10	1	-1E+10	1
4902554	46	C	05/13/2022	10:59	-135.373	49.489	0	603.30	0	3.9530	0	34.1630	0	27.130	0	597.286	0	-1e10	8	-1e10	8	-1E+10	1	-1E+10	1	-1E+10	1	-1E+10	1	-1E+10	1	-1E+10	1
4902554	46	C	05/13/2022	10:59	-135.373	49.489	0	608.10	0	3.9360	0	34.1680	0	27.135	0	602.031	0	-1e10	8	-1e10	8	-1E+10	1	-1E+10	1	-1E+10	1	-1E+10	1	-1E+10	1	-1E+10	1
4902554	46	C	05/13/2022	10:59	-135.373	49.489	0	613.00	0	3.9260	0	34.1720	0	27.140	0	606.875	0	-1e10	8	-1e10	8	-1E+10	1	-1E+10	1	-1E+10	1	-1E+10	1	-1E+10	1	-1E+10	1
4902554	46	C	05/13/2022	10:59	-135.373	49.489	0	617.90	0	3.9120	0	34.1770	0	27.145	0	611.719	0	-1e10	8	-1e10	8	-1E+10	1	-1E+10	1	-1E+10	1	-1E+10	1	-1E+10	1	-1E+10	1
4902554	46	C	05/13/2022	10:59	-135.373	49.489	0	622.90	0	3.8970	0	34.1810	0	27.150	0	616.661	0	-1e10	8	-1e10	8	-1E+10	1	-1E+10	1	-1E+10	1	-1E+10	1	-1E+10	1	-1E+10	1
4902554	46	C	05/13/2022	10:59	-135.373	49.489	0	627.80	0	3.8870	0	34.1830	0	27.152	0	621.505	0	-1e10	8	-1e10	8	-1E+10	1	-1E+10	1	-1E+10	1	-1E+10	1	-1E+10	1	-1E+10	1
4902554	46	C	05/13/2022	10:59	-135.373	49.489	0	632.80	0	3.8760	0	34.1860	0	27.156	0	626.447	0	-1e10	8	-1e10	8	-1E+10	1	-1E+10	1	-1E+10	1	-1E+10	1	-1E+10	1	-1E+10	1
4902554	46	C	05/13/2022	10:59	-135.373	49.489	0	637.80	0	3.8660	0	34.1880	0	27.159	0	631.389	0	-1e10	8	-1e10	8	-1E+10	1	-1E+10	1	-1E+10	1	-1E+10	1	-1E+10	1	-1E+10	1
4902554	46	C	05/13/2022	10:59	-135.373	49.489	0	642.80	0	3.8520	0	34.1920	0	27.163	0	636.332	0	-1e10	8	-1e10	8	-1E+10	1	-1E+10	1	-1E+10	1	-1E+10	1	-1E+10	1	-1E+10	1
4902554	46	C	05/13/2022	10:59	-135.373	49.489	0	647.80	0	3.8390	0	34.1960	0	27.168	0	641.274	0	-1e10	8	-1e10	8	-1E+10	1	-1E+10	1	-1E+10	1	-1E+10	1	-1E+10	1	-1E+10	1
4902554	46	C	05/13/2022	10:59	-135.373	49.489	0	652.80	0	3.8310	0	34.1980	0	27.170	0	646.215	0	-1e10	8	-1e10	8	-1E+10	1	-1E+10	1	-1E+10	1	-1E+10	1	-1E+10	1	-1E+10	1
4902554	46	C	05/13/2022	10:59	-135.373	49.489	0	657.70	0	3.8170	0	34.2030	0	27.176	0	651.058	0	-1e10	8	-1e10	8	-1E+10	1	-1E+10	1	-1E+10	1	-1E+10	1	-1E+10	1	-1E+10	1
4902554	46	C	05/13/2022	10:59	-135.373	49.489	0	662.60	0	3.8050	0	34.2050	0	27.178	0	655.901	0	-1e10	8	-1e10	8	-1E+10	1	-1E+10	1	-1E+10	1	-1E+10	1	-1E+10	1	-1E+10	1
4902554	46	C	05/13/2022	10:59	-135.373	49.489	0	668.00	0	3.7920	0	34.2080	0	27.182	0	661.238	0	-1e10	8	-1e10	8	-1E+10	1	-1E+10	1	-1E+10	1	-1E+10	1	-1E+10	1	-1E+10	1
4902554	46	C	05/13/2022	10:59	-135.373	49.489	0	672.90	0	3.7790	0	34.2120	0	27.187	0	666.081	0	-1e10	8	-1e10	8	-1E+10	1	-1E+10	1	-1E+10	1	-1E+10	1	-1E+10	1	-1E+10	1
4902554	46	C	05/13/2022	10:59	-135.373	49.489	0	677.70	0	3.7640	0	34.2130	0	27.189	0	670.824	0	-1e10	8	-1e10	8	-1E+10	1	-1E+10	1	-1E+10	1	-1E+10	1	-1E+10	1	-1E+10	1
4902554	46	C	05/13/2022	10:59	-135.373	49.489	0	683.00	0	3.7500	0	34.2150	0	27.192	0	676.062	0	-1e10	8	-1e10	8	-1E+10	1	-1E+10	1	-1E+10	1	-1E+10	1	-1E+10	1	-1E+10	1
4902554	46	C	05/13/2022	10:59	-135.373	49.489	0	688.10	0	3.7170	0	34.2210	0	27.200	0	681.102	0	-1e10	8	-1e10	8	-1E+10	1	-1E+10	1	-1E+10	1	-1E+10	1	-1E+10	1	-1E+10	1
4902554	46	C	05/13/2022	10:59	-135.373	49.489	0	692.80	0	3.6960	0	34.2260	0	27.206	0	685.746	0	-1e10	8	-1e10	8	-1E+10	1	-1E+10	1	-1E+10	1	-1E+10	1	-1E+10	1	-1E+10	1
4902554	46	C	05/13/2022	10:59	-135.373	49.489	0	697.50	0	3.6910	0	34.2270	0	27.207	0	690.391	0	-1e10	8	-1e10	8	-1E+10	1	-1E+10	1	-1E+10	1	-1E+10	1	-1E+10	1	-1E+10	1
4902554	46	C	05/13/2022	10:59	-135.373	49.489	0	702.70	0	3.6840	0	34.2290	0	27.210	0	695.529	0	-1e10	8	-1e10	8	-1E+10	1	-1E+10	1	-1E+10	1	-1E+10	1	-1E+10	1	-1E+10	1
4902554	46	C	05/13/2022	10:59	-135.373	49.489	0	707.90	0	3.6680	0	34.2320	0	27.214	0	700.667	0	-1e10	8	-1e10	8	-1E+10	1	-1E+10	1	-1E+10	1	-1E+10	1	-1E+10	1	-1E+10	1
4902554	46	C	05/13/2022	10:59	-135.373	49.489	0	713.10	0	3.6630	0	34.2340	0	27.216	0	705.805	0	-1e10	8	-1e10	8	-1E+10	1	-1E+10	1	-1E+10	1	-1E+10	1	-1E+10	1	-1E+10	1
4902554	46	C	05/13/2022	10:59	-135.373	49.489	0	718.20	0	3.6510	0	34.2360	0	27.219	0	710.844	0	-1e10	8	-1e10	8	-1E+10	1	-1E+10	1	-1E+10	1	-1E+10	1	-1E+10	1	-1E+10	1
4902554	46	C	05/13/2022	10:59	-135.373	49.489	0	723.20	0	3.6360	0	34.2420	0	27.225	0	715.785	0	-1e10	8	-1e10	8	-1E+10	1	-1E+10	1	-1E+10	1	-1E+10	1	-1E+10	1	-1E+10	1
4902554	46	C	05/13/2022	10:59	-135.373	49.489	0	728.20	0	3.6260	0	34.2460	0	27.229	0	720.725	0	-1e10	8	-1e10	8	-1E+10	1	-1E+10	1	-1E+10	1	-1E+10	1	-1E+10	1	-1E+10	1
4902554	46	C	05/13/2022	10:59	-135.373	49.489	0	733.10	0	3.6080	0	34.2490	0	27.233	0	725.566	0	-1e10	8	-1e10	8	-1E+10	1	-1E+10	1	-1E+10	1	-1E+10	1	-1E+10	1	-1E+10	1
4902554	46	C	05/13/2022	10:59	-135.373	49.489	0	738.10	0	3.5960	0	34.2510	0	27.236	0	730.506	0	-1e10	8	-1e10	8	-1E+10	1	-1E+10	1	-1E+10	1	-1E+10	1	-1E+10	1	-1E+10	1
4902554	46	C	05/13/2022	10:59	-135.373	49.489	0	743.20	0	3.5880	0	34.2530	0	27.238	0	735.544	0	-1e10	8	-1e10	8	-1E+10	1	-1E+10	1	-1E+10	1	-1E+10	1	-1E+10	1	-1E+10	1
4902554	46	C	05/13/2022	10:59	-135.373	49.489	0	748.20	0	3.5680	0	34.2570	0	27.244	0	740.484	0	-1e10	8	-1e10	8	-1E+10	1	-1E+10	1	-1E+10	1	-1E+10	1	-1E+10	1	-1E+10	1
4902554	46	C	05/13/2022	10:59	-135.373	49.489	0	752.90	0	3.5530	0	34.2600	0	27.247	0	745.127	0	-1e10	8	-1e10	8	-1E+10	1	-1E+10	1	-1E+10	1	-1E+10	1	-1E+10	1	-1E+10	1
4902554	46	C	05/13/2022	10:59	-135.373	49.489	0	757.60	0	3.5490	0	34.2610	0	27.249	0	749.770	0	-1e10	8	-1e10	8	-1E+10	1	-1E+10	1	-1E+10	1	-1E+10	1	-1E+10	1	-1E+10	1
4902554	46	C	05/13/2022	10:59	-135.373	49.489	0	763.10	0	3.5320	0	34.2620	0	27.251	0	755.203	0	-1e10	8	-1e10	8	-1E+10	1	-1E+10	1	-1E+10	1	-1E+10	1	-1E+10	1	-1E+10	1
4902554	46	C	05/13/2022	10:59	-135.373	49.489	0	768.00	0	3.5200	0	34.2640	0	27.254	0	760.044	0	-1e10	8	-1e10	8	-1E+10	1	-1E+10	1	-1E+10	1	-1E+10	1	-1E+10	1	-1E+10	1
4902554	46	C	05/13/2022	10:59	-135.373	49.489	0	772.80	0	3.5220	0	34.2680	0	27.257	0	764.785	0	-1e10	8	-1e10	8	-1E+10	1	-1E+10	1	-1E+10	1	-1E+10	1	-1E+10	1	-1E+10	1
4902554	46	C	05/13/2022	10:59	-135.373	49.489	0	777.70	0	3.5150	0	34.2710	0	27.260	0	769.625	0	-1e10	8	-1e10	8	-1E+10	1	-1E+10	1	-1E+10	1	-1E+10	1	-1E+10	1	-1E+10	1
4902554	46	C	05/13/2022	10:59	-135.373	49.489	0	782.70	0	3.5060	0	34.2730	0	27.263	0	774.564	0	-1e10	8	-1e10	8	-1E+10	1	-1E+10	1	-1E+10	1	-1E+10	1	-1E+10	1	-1E+10	1
4902554	46	C	05/13/2022	10:59	-135.373	49.489	0	787.70	0	3.4940	0	34.2750	0	27.265	0	779.503	0	-1e10	8	-1e10	8	-1E+10	1	-1E+10	1	-1E+10	1	-1E+10	1	-1E+10	1	-1E+10	1
4902554	46	C	05/13/2022	10:59	-135.373	49.489	0	792.90	0	3.4920	0	34.2770	0	27.267	0	784.639	0	-1e10	8	-1e10	8	-1E+10	1	-1E+10	1	-1E+10	1	-1E+10	1	-1E+10	1	-1E+10	1
4902554	46	C	05/13/2022	10:59	-135.373	49.489	0	798.10	0	3.4720	0	34.2800	0	27.272	0	789.775	0	-1e10	8	-1e10	8	-1E+10	1	-1E+10	1	-1E+10	1	-1E+10	1	-1E+10	1	-1E+10	1
4902554	46	C	05/13/2022	10:59	-135.373	49.489	0	803.10	0	3.4610	0	34.2810	0	27.273	0	794.713	0	-1e10	8	-1e10	8	-1E+10	1	-1E+10	1	-1E+10	1	-1E+10	1	-1E+10	1	-1E+10	1
4902554	46	C	05/13/2022	10:59	-135.373	49.489	0	808.10	0	3.4570	0	34.2830	0	27.275	0	799.651	0	-1e10	8	-1e10	8	-1E+10	1	-1E+10	1	-1E+10	1	-1E+10	1	-1E+10	1	-1E+10	1
4902554	46	C	05/13/2022	10:59	-135.373	49.489	0	813.10	0	3.4500	0	34.2850	0	27.278	0	804.589	0	-1e10	8	-1e10	8	-1E+10	1	-1E+10	1	-1E+10	1	-1E+10	1	-1E+10	1	-1E+10	1
4902554	46	C	05/13/2022	10:59	-135.373	49.489	0	818.00	0	3.4350	0	34.2890	0	27.282	0	809.429	0	-1e10	8	-1e10	8	-1E+10	1	-1E+10	1	-1E+10	1	-1E+10	1	-1E+10	1	-1E+10	1
4902554	46	C	05/13/2022	10:59	-135.373	49.489	0	823.00	0	3.4320	0	34.2900	0	27.283	0	814.367	0	-1e10	8	-1e10	8	-1E+10	1	-1E+10	1	-1E+10	1	-1E+10	1	-1E+10	1	-1E+10	1
4902554	46	C	05/13/2022	10:59	-135.373	49.489	0	827.70	0	3.4190	0	34.2930	0	27.287	0	819.008	0	-1e10	8	-1e10	8	-1E+10	1	-1E+10	1	-1E+10	1	-1E+10	1	-1E+10	1	-1E+10	1
4902554	46	C	05/13/2022	10:59	-135.373	49.489	0	832.80	0	3.4070	0	34.2960	0	27.291	0	824.044	0	-1e10	8	-1e10	8	-1E+10	1	-1E+10	1	-1E+10	1	-1E+10	1	-1E+10	1	-1E+10	1
4902554	46	C	05/13/2022	10:59	-135.373	49.489	0	838.00	0	3.3940	0	34.3000	0	27.295	0	829.180	0	-1e10	8	-1e10	8	-1E+10	1	-1E+10	1	-1E+10	1	-1E+10	1	-1E+10	1	-1E+10	1
4902554	46	C	05/13/2022	10:59	-135.373	49.489	0	842.80	0	3.3880	0	34.3010	0	27.297	0	833.919	0	-1e10	8	-1e10	8	-1E+10	1	-1E+10	1	-1E+10	1	-1E+10	1	-1E+10	1	-1E+10	1
4902554	46	C	05/13/2022	10:59	-135.373	49.489	0	847.60	0	3.3810	0	34.3020	0	27.298	0	838.659	0	-1e10	8	-1e10	8	-1E+10	1	-1E+10	1	-1E+10	1	-1E+10	1	-1E+10	1	-1E+10	1
4902554	46	C	05/13/2022	10:59	-135.373	49.489	0	852.90	0	3.3640	0	34.3050	0	27.302	0	843.893	0	-1e10	8	-1e10	8	-1E+10	1	-1E+10	1	-1E+10	1	-1E+10	1	-1E+10	1	-1E+10	1
4902554	46	C	05/13/2022	10:59	-135.373	49.489	0	858.20	0	3.3520	0	34.3080	0	27.306	0	849.126	0	-1e10	8	-1e10	8	-1E+10	1	-1E+10	1	-1E+10	1	-1E+10	1	-1E+10	1	-1E+10	1
4902554	46	C	05/13/2022	10:59	-135.373	49.489	0	863.00	0	3.3410	0	34.3100	0	27.308	0	853.865	0	-1e10	8	-1e10	8	-1E+10	1	-1E+10	1	-1E+10	1	-1E+10	1	-1E+10	1	-1E+10	1
4902554	46	C	05/13/2022	10:59	-135.373	49.489	0	867.80	0	3.3280	0	34.3120	0	27.311	0	858.605	0	-1e10	8	-1e10	8	-1E+10	1	-1E+10	1	-1E+10	1	-1E+10	1	-1E+10	1	-1E+10	1
4902554	46	C	05/13/2022	10:59	-135.373	49.489	0	872.60	0	3.3110	0	34.3150	0	27.315	0	863.344	0	-1e10	8	-1e10	8	-1E+10	1	-1E+10	1	-1E+10	1	-1E+10	1	-1E+10	1	-1E+10	1
4902554	46	C	05/13/2022	10:59	-135.373	49.489	0	877.90	0	3.3010	0	34.3180	0	27.319	0	868.577	0	-1e10	8	-1e10	8	-1E+10	1	-1E+10	1	-1E+10	1	-1E+10	1	-1E+10	1	-1E+10	1
4902554	46	C	05/13/2022	10:59	-135.373	49.489	0	883.20	0	3.2930	0	34.3190	0	27.320	0	873.809	0	-1e10	8	-1e10	8	-1E+10	1	-1E+10	1	-1E+10	1	-1E+10	1	-1E+10	1	-1E+10	1
4902554	46	C	05/13/2022	10:59	-135.373	49.489	0	888.20	0	3.2790	0	34.3210	0	27.323	0	878.746	0	-1e10	8	-1e10	8	-1E+10	1	-1E+10	1	-1E+10	1	-1E+10	1	-1E+10	1	-1E+10	1
4902554	46	C	05/13/2022	10:59	-135.373	49.489	0	893.10	0	3.2640	0	34.3240	0	27.327	0	883.583	0	-1e10	8	-1e10	8	-1E+10	1	-1E+10	1	-1E+10	1	-1E+10	1	-1E+10	1	-1E+10	1
4902554	46	C	05/13/2022	10:59	-135.373	49.489	0	898.00	0	3.2470	0	34.3270	0	27.331	0	888.421	0	-1e10	8	-1e10	8	-1E+10	1	-1E+10	1	-1E+10	1	-1E+10	1	-1E+10	1	-1E+10	1
4902554	46	C	05/13/2022	10:59	-135.373	49.489	0	903.00	0	3.2370	0	34.3290	0	27.333	0	893.357	0	-1e10	8	-1e10	8	-1E+10	1	-1E+10	1	-1E+10	1	-1E+10	1	-1E+10	1	-1E+10	1
4902554	46	C	05/13/2022	10:59	-135.373	49.489	0	908.10	0	3.2250	0	34.3300	0	27.335	0	898.391	0	-1e10	8	-1e10	8	-1E+10	1	-1E+10	1	-1E+10	1	-1E+10	1	-1E+10	1	-1E+10	1
4902554	46	C	05/13/2022	10:59	-135.373	49.489	0	912.80	0	3.2030	0	34.3330	0	27.340	0	903.031	0	-1e10	8	-1e10	8	-1E+10	1	-1E+10	1	-1E+10	1	-1E+10	1	-1E+10	1	-1E+10	1
4902554	46	C	05/13/2022	10:59	-135.373	49.489	0	917.80	0	3.1850	0	34.3370	0	27.345	0	907.966	0	-1e10	8	-1e10	8	-1E+10	1	-1E+10	1	-1E+10	1	-1E+10	1	-1E+10	1	-1E+10	1
4902554	46	C	05/13/2022	10:59	-135.373	49.489	0	923.00	0	3.1740	0	34.3390	0	27.347	0	913.099	0	-1e10	8	-1e10	8	-1E+10	1	-1E+10	1	-1E+10	1	-1E+10	1	-1E+10	1	-1E+10	1
4902554	46	C	05/13/2022	10:59	-135.373	49.489	0	927.80	0	3.1710	0	34.3400	0	27.348	0	917.837	0	-1e10	8	-1e10	8	-1E+10	1	-1E+10	1	-1E+10	1	-1E+10	1	-1E+10	1	-1E+10	1
4902554	46	C	05/13/2022	10:59	-135.373	49.489	0	932.70	0	3.1630	0	34.3410	0	27.350	0	922.674	0	-1e10	8	-1e10	8	-1E+10	1	-1E+10	1	-1E+10	1	-1E+10	1	-1E+10	1	-1E+10	1
4902554	46	C	05/13/2022	10:59	-135.373	49.489	0	937.80	0	3.1400	0	34.3440	0	27.355	0	927.708	0	-1e10	8	-1e10	8	-1E+10	1	-1E+10	1	-1E+10	1	-1E+10	1	-1E+10	1	-1E+10	1
4902554	46	C	05/13/2022	10:59	-135.373	49.489	0	942.90	0	3.1290	0	34.3460	0	27.357	0	932.742	0	-1e10	8	-1e10	8	-1E+10	1	-1E+10	1	-1E+10	1	-1E+10	1	-1E+10	1	-1E+10	1
4902554	46	C	05/13/2022	10:59	-135.373	49.489	0	948.10	0	3.1240	0	34.3470	0	27.358	0	937.874	0	-1e10	8	-1e10	8	-1E+10	1	-1E+10	1	-1E+10	1	-1E+10	1	-1E+10	1	-1E+10	1
4902554	46	C	05/13/2022	10:59	-135.373	49.489	0	953.00	0	3.1180	0	34.3490	0	27.361	0	942.710	0	-1e10	8	-1e10	8	-1E+10	1	-1E+10	1	-1E+10	1	-1E+10	1	-1E+10	1	-1E+10	1
4902554	46	C	05/13/2022	10:59	-135.373	49.489	0	957.90	0	3.1020	0	34.3520	0	27.365	0	947.546	0	-1e10	8	-1e10	8	-1E+10	1	-1E+10	1	-1E+10	1	-1E+10	1	-1E+10	1	-1E+10	1
4902554	46	C	05/13/2022	10:59	-135.373	49.489	0	962.80	0	3.0910	0	34.3540	0	27.367	0	952.382	0	-1e10	8	-1e10	8	-1E+10	1	-1E+10	1	-1E+10	1	-1E+10	1	-1E+10	1	-1E+10	1
4902554	46	C	05/13/2022	10:59	-135.373	49.489	0	967.70	0	3.0810	0	34.3560	0	27.370	0	957.218	0	-1e10	8	-1e10	8	-1E+10	1	-1E+10	1	-1E+10	1	-1E+10	1	-1E+10	1	-1E+10	1
4902554	46	C	05/13/2022	10:59	-135.373	49.489	0	972.70	0	3.0620	0	34.3600	0	27.375	0	962.152	0	-1e10	8	-1e10	8	-1E+10	1	-1E+10	1	-1E+10	1	-1E+10	1	-1E+10	1	-1E+10	1
4902554	46	C	05/13/2022	10:59	-135.373	49.489	0	977.90	0	3.0530	0	34.3620	0	27.377	0	967.284	0	-1e10	8	-1e10	8	-1E+10	1	-1E+10	1	-1E+10	1	-1E+10	1	-1E+10	1	-1E+10	1
4902554	46	C	05/13/2022	10:59	-135.373	49.489	0	983.00	0	3.0440	0	34.3640	0	27.380	0	972.317	0	-1e10	8	-1e10	8	-1E+10	1	-1E+10	1	-1E+10	1	-1E+10	1	-1E+10	1	-1E+10	1
4902554	46	C	05/13/2022	10:59	-135.373	49.489	0	987.80	0	3.0370	0	34.3650	0	27.381	0	977.053	0	-1e10	8	-1e10	8	-1E+10	1	-1E+10	1	-1E+10	1	-1E+10	1	-1E+10	1	-1E+10	1
4902554	46	C	05/13/2022	10:59	-135.373	49.489	0	993.00	0	3.0330	0	34.3660	0	27.382	0	982.184	0	-1e10	8	-1e10	8	-1E+10	1	-1E+10	1	-1E+10	1	-1E+10	1	-1E+10	1	-1E+10	1
4902554	46	C	05/13/2022	10:59	-135.373	49.489	0	998.20	0	3.0270	0	34.3680	0	27.384	0	987.316	0	-1e10	8	-1e10	8	-1E+10	1	-1E+10	1	-1E+10	1	-1E+10	1	-1E+10	1	-1E+10	1
4902554	46	C	05/13/2022	10:59	-135.373	49.489	0	1005.20	0	3.0180	0	34.3700	0	27.387	0	994.223	0	-1e10	8	-1e10	8	-1E+10	1	-1E+10	1	-1E+10	1	-1E+10	1	-1E+10	1	-1E+10	1
4902554	46	C	05/13/2022	10:59	-135.373	49.489	0	1015.10	0	3.0010	0	34.3740	0	27.392	0	1003.991	0	-1e10	8	-1e10	8	-1E+10	1	-1E+10	1	-1E+10	1	-1E+10	1	-1E+10	1	-1E+10	1
4902554	46	C	05/13/2022	10:59	-135.373	49.489	0	1025.30	0	2.9840	0	34.3770	0	27.396	0	1014.055	0	-1e10	8	-1e10	8	-1E+10	1	-1E+10	1	-1E+10	1	-1E+10	1	-1E+10	1	-1E+10	1
4902554	46	C	05/13/2022	10:59	-135.373	49.489	0	1035.40	0	2.9700	0	34.3800	0	27.399	0	1024.019	0	-1e10	8	-1e10	8	-1E+10	1	-1E+10	1	-1E+10	1	-1E+10	1	-1E+10	1	-1E+10	1
4902554	46	C	05/13/2022	10:59	-135.373	49.489	0	1045.60	0	2.9500	0	34.3840	0	27.404	0	1034.082	0	-1e10	8	-1e10	8	-1E+10	1	-1E+10	1	-1E+10	1	-1E+10	1	-1E+10	1	-1E+10	1
4902554	46	C	05/13/2022	10:59	-135.373	49.489	0	1055.40	0	2.9300	0	34.3890	0	27.410	0	1043.750	0	-1e10	8	-1e10	8	-1E+10	1	-1E+10	1	-1E+10	1	-1E+10	1	-1E+10	1	-1E+10	1
4902554	46	C	05/13/2022	10:59	-135.373	49.489	0	1065.30	0	2.9140	0	34.3910	0	27.413	0	1053.515	0	-1e10	8	-1e10	8	-1E+10	1	-1E+10	1	-1E+10	1	-1E+10	1	-1E+10	1	-1E+10	1
4902554	46	C	05/13/2022	10:59	-135.373	49.489	0	1075.50	0	2.9010	0	34.3940	0	27.417	0	1063.577	0	-1e10	8	-1e10	8	-1E+10	1	-1E+10	1	-1E+10	1	-1E+10	1	-1E+10	1	-1E+10	1
4902554	46	C	05/13/2022	10:59	-135.373	49.489	0	1085.40	0	2.8820	0	34.3980	0	27.422	0	1073.342	0	-1e10	8	-1e10	8	-1E+10	1	-1E+10	1	-1E+10	1	-1E+10	1	-1E+10	1	-1E+10	1
4902554	46	C	05/13/2022	10:59	-135.373	49.489	0	1095.40	0	2.8650	0	34.4010	0	27.426	0	1083.205	0	-1e10	8	-1e10	8	-1E+10	1	-1E+10	1	-1E+10	1	-1E+10	1	-1E+10	1	-1E+10	1
4902554	46	C	05/13/2022	10:59	-135.373	49.489	0	1105.20	0	2.8530	0	34.4030	0	27.428	0	1092.870	0	-1e10	8	-1e10	8	-1E+10	1	-1E+10	1	-1E+10	1	-1E+10	1	-1E+10	1	-1E+10	1
4902554	46	C	05/13/2022	10:59	-135.373	49.489	0	1115.30	0	2.8440	0	34.4050	0	27.431	0	1102.831	0	-1e10	8	-1e10	8	-1E+10	1	-1E+10	1	-1E+10	1	-1E+10	1	-1E+10	1	-1E+10	1
4902554	46	C	05/13/2022	10:59	-135.373	49.489	0	1125.40	0	2.8260	0	34.4080	0	27.435	0	1112.791	0	-1e10	8	-1e10	8	-1E+10	1	-1E+10	1	-1E+10	1	-1E+10	1	-1E+10	1	-1E+10	1
4902554	46	C	05/13/2022	10:59	-135.373	49.489	0	1135.40	0	2.8050	0	34.4130	0	27.441	0	1122.653	0	-1e10	8	-1e10	8	-1E+10	1	-1E+10	1	-1E+10	1	-1E+10	1	-1E+10	1	-1E+10	1
4902554	46	C	05/13/2022	10:59	-135.373	49.489	0	1145.30	0	2.7900	0	34.4160	0	27.445	0	1132.415	0	-1e10	8	-1e10	8	-1E+10	1	-1E+10	1	-1E+10	1	-1E+10	1	-1E+10	1	-1E+10	1
4902554	46	C	05/13/2022	10:59	-135.373	49.489	0	1155.30	0	2.7730	0	34.4200	0	27.449	0	1142.275	0	-1e10	8	-1e10	8	-1E+10	1	-1E+10	1	-1E+10	1	-1E+10	1	-1E+10	1	-1E+10	1
4902554	46	C	05/13/2022	10:59	-135.373	49.489	0	1165.30	0	2.7620	0	34.4220	0	27.452	0	1152.135	0	-1e10	8	-1e10	8	-1E+10	1	-1E+10	1	-1E+10	1	-1E+10	1	-1E+10	1	-1E+10	1
4902554	46	C	05/13/2022	10:59	-135.373	49.489	0	1175.50	0	2.7500	0	34.4250	0	27.455	0	1162.191	0	-1e10	8	-1e10	8	-1E+10	1	-1E+10	1	-1E+10	1	-1E+10	1	-1E+10	1	-1E+10	1
4902554	46	C	05/13/2022	10:59	-135.373	49.489	0	1185.60	0	2.7360	0	34.4270	0	27.458	0	1172.149	0	-1e10	8	-1e10	8	-1E+10	1	-1E+10	1	-1E+10	1	-1E+10	1	-1E+10	1	-1E+10	1
4902554	46	C	05/13/2022	10:59	-135.373	49.489	0	1195.50	0	2.7210	0	34.4300	0	27.462	0	1181.909	0	-1e10	8	-1e10	8	-1E+10	1	-1E+10	1	-1E+10	1	-1E+10	1	-1E+10	1	-1E+10	1
4902554	46	C	05/13/2022	10:59	-135.373	49.489	0	1205.70	0	2.7120	0	34.4310	0	27.464	0	1191.964	0	-1e10	8	-1e10	8	-1E+10	1	-1E+10	1	-1E+10	1	-1E+10	1	-1E+10	1	-1E+10	1
4902554	46	C	05/13/2022	10:59	-135.373	49.489	0	1215.40	0	2.7020	0	34.4330	0	27.466	0	1201.526	0	-1e10	8	-1e10	8	-1E+10	1	-1E+10	1	-1E+10	1	-1E+10	1	-1E+10	1	-1E+10	1
4902554	46	C	05/13/2022	10:59	-135.373	49.489	0	1225.50	0	2.6890	0	34.4360	0	27.470	0	1211.481	0	-1e10	8	-1e10	8	-1E+10	1	-1E+10	1	-1E+10	1	-1E+10	1	-1E+10	1	-1E+10	1
4902554	46	C	05/13/2022	10:59	-135.373	49.489	0	1235.50	0	2.6800	0	34.4380	0	27.472	0	1221.338	0	-1e10	8	-1e10	8	-1E+10	1	-1E+10	1	-1E+10	1	-1E+10	1	-1E+10	1	-1E+10	1
4902554	46	C	05/13/2022	10:59	-135.373	49.489	0	1245.50	0	2.6700	0	34.4390	0	27.474	0	1231.194	0	-1e10	8	-1e10	8	-1E+10	1	-1E+10	1	-1E+10	1	-1E+10	1	-1E+10	1	-1E+10	1
4902554	46	C	05/13/2022	10:59	-135.373	49.489	0	1255.40	0	2.6550	0	34.4420	0	27.478	0	1240.951	0	-1e10	8	-1e10	8	-1E+10	1	-1E+10	1	-1E+10	1	-1E+10	1	-1E+10	1	-1E+10	1
4902554	46	C	05/13/2022	10:59	-135.373	49.489	0	1265.40	0	2.6450	0	34.4440	0	27.480	0	1250.806	0	-1e10	8	-1e10	8	-1E+10	1	-1E+10	1	-1E+10	1	-1E+10	1	-1E+10	1	-1E+10	1
4902554	46	C	05/13/2022	10:59	-135.373	49.489	0	1275.30	0	2.6260	0	34.4480	0	27.485	0	1260.563	0	-1e10	8	-1e10	8	-1E+10	1	-1E+10	1	-1E+10	1	-1E+10	1	-1E+10	1	-1E+10	1
4902554	46	C	05/13/2022	10:59	-135.373	49.489	0	1285.40	0	2.6160	0	34.4500	0	27.488	0	1270.516	0	-1e10	8	-1e10	8	-1E+10	1	-1E+10	1	-1E+10	1	-1E+10	1	-1E+10	1	-1E+10	1
4902554	46	C	05/13/2022	10:59	-135.373	49.489	0	1295.70	0	2.6060	0	34.4520	0	27.490	0	1280.665	0	-1e10	8	-1e10	8	-1E+10	1	-1E+10	1	-1E+10	1	-1E+10	1	-1E+10	1	-1E+10	1
4902554	46	C	05/13/2022	10:59	-135.373	49.489	0	1305.30	0	2.5950	0	34.4540	0	27.493	0	1290.124	0	-1e10	8	-1e10	8	-1E+10	1	-1E+10	1	-1E+10	1	-1E+10	1	-1E+10	1	-1E+10	1
4902554	46	C	05/13/2022	10:59	-135.373	49.489	0	1315.10	0	2.5880	0	34.4550	0	27.494	0	1299.780	0	-1e10	8	-1e10	8	-1E+10	1	-1E+10	1	-1E+10	1	-1E+10	1	-1E+10	1	-1E+10	1
4902554	46	C	05/13/2022	10:59	-135.373	49.489	0	1325.30	0	2.5790	0	34.4570	0	27.497	0	1309.830	0	-1e10	8	-1e10	8	-1E+10	1	-1E+10	1	-1E+10	1	-1E+10	1	-1E+10	1	-1E+10	1
4902554	46	C	05/13/2022	10:59	-135.373	49.489	0	1335.20	0	2.5710	0	34.4590	0	27.499	0	1319.583	0	-1e10	8	-1e10	8	-1E+10	1	-1E+10	1	-1E+10	1	-1E+10	1	-1E+10	1	-1E+10	1
4902554	46	C	05/13/2022	10:59	-135.373	49.489	0	1345.10	0	2.5610	0	34.4610	0	27.501	0	1329.336	0	-1e10	8	-1e10	8	-1E+10	1	-1E+10	1	-1E+10	1	-1E+10	1	-1E+10	1	-1E+10	1
4902554	46	C	05/13/2022	10:59	-135.373	49.489	0	1355.50	0	2.5490	0	34.4630	0	27.504	0	1339.581	0	-1e10	8	-1e10	8	-1E+10	1	-1E+10	1	-1E+10	1	-1E+10	1	-1E+10	1	-1E+10	1
4902554	46	C	05/13/2022	10:59	-135.373	49.489	0	1365.60	0	2.5350	0	34.4660	0	27.508	0	1349.530	0	-1e10	8	-1e10	8	-1E+10	1	-1E+10	1	-1E+10	1	-1E+10	1	-1E+10	1	-1E+10	1
4902554	46	C	05/13/2022	10:59	-135.373	49.489	0	1375.20	0	2.5240	0	34.4680	0	27.510	0	1358.986	0	-1e10	8	-1e10	8	-1E+10	1	-1E+10	1	-1E+10	1	-1E+10	1	-1E+10	1	-1E+10	1
4902554	46	C	05/13/2022	10:59	-135.373	49.489	0	1385.40	0	2.5080	0	34.4710	0	27.514	0	1369.033	0	-1e10	8	-1e10	8	-1E+10	1	-1E+10	1	-1E+10	1	-1E+10	1	-1E+10	1	-1E+10	1
4902554	46	C	05/13/2022	10:59	-135.373	49.489	0	1395.50	0	2.4970	0	34.4740	0	27.517	0	1378.981	0	-1e10	8	-1e10	8	-1E+10	1	-1E+10	1	-1E+10	1	-1E+10	1	-1E+10	1	-1E+10	1
4902554	46	C	05/13/2022	10:59	-135.373	49.489	0	1405.50	0	2.4890	0	34.4750	0	27.519	0	1388.829	0	-1e10	8	-1e10	8	-1E+10	1	-1E+10	1	-1E+10	1	-1E+10	1	-1E+10	1	-1E+10	1
4902554	46	C	05/13/2022	10:59	-135.373	49.489	0	1415.60	0	2.4690	0	34.4790	0	27.524	0	1398.776	0	-1e10	8	-1e10	8	-1E+10	1	-1E+10	1	-1E+10	1	-1E+10	1	-1E+10	1	-1E+10	1
4902554	46	C	05/13/2022	10:59	-135.373	49.489	0	1425.30	0	2.4600	0	34.4810	0	27.526	0	1408.328	0	-1e10	8	-1e10	8	-1E+10	1	-1E+10	1	-1E+10	1	-1E+10	1	-1E+10	1	-1E+10	1
4902554	46	C	05/13/2022	10:59	-135.373	49.489	0	1435.00	0	2.4490	0	34.4830	0	27.529	0	1417.880	0	-1e10	8	-1e10	8	-1E+10	1	-1E+10	1	-1E+10	1	-1E+10	1	-1E+10	1	-1E+10	1
4902554	46	C	05/13/2022	10:59	-135.373	49.489	0	1445.40	0	2.4440	0	34.4840	0	27.530	0	1428.121	0	-1e10	8	-1e10	8	-1E+10	1	-1E+10	1	-1E+10	1	-1E+10	1	-1E+10	1	-1E+10	1
4902554	46	C	05/13/2022	10:59	-135.373	49.489	0	1455.70	0	2.4330	0	34.4860	0	27.533	0	1438.263	0	-1e10	8	-1e10	8	-1E+10	1	-1E+10	1	-1E+10	1	-1E+10	1	-1E+10	1	-1E+10	1
4902554	46	C	05/13/2022	10:59	-135.373	49.489	0	1465.60	0	2.4150	0	34.4890	0	27.537	0	1448.010	0	-1e10	8	-1e10	8	-1E+10	1	-1E+10	1	-1E+10	1	-1E+10	1	-1E+10	1	-1E+10	1
4902554	46	C	05/13/2022	10:59	-135.373	49.489	0	1475.50	0	2.4070	0	34.4910	0	27.539	0	1457.757	0	-1e10	8	-1e10	8	-1E+10	1	-1E+10	1	-1E+10	1	-1E+10	1	-1E+10	1	-1E+10	1
4902554	46	C	05/13/2022	10:59	-135.373	49.489	0	1485.40	0	2.3940	0	34.4930	0	27.542	0	1467.504	0	-1e10	8	-1e10	8	-1E+10	1	-1E+10	1	-1E+10	1	-1E+10	1	-1E+10	1	-1E+10	1
4902554	46	C	05/13/2022	10:59	-135.373	49.489	0	1495.60	0	2.3870	0	34.4950	0	27.544	0	1477.546	0	-1e10	8	-1e10	8	-1E+10	1	-1E+10	1	-1E+10	1	-1E+10	1	-1E+10	1	-1E+10	1
4902554	46	C	05/13/2022	10:59	-135.373	49.489	0	1505.30	0	2.3810	0	34.4960	0	27.545	0	1487.094	0	-1e10	8	-1e10	8	-1E+10	1	-1E+10	1	-1E+10	1	-1E+10	1	-1E+10	1	-1E+10	1
4902554	46	C	05/13/2022	10:59	-135.373	49.489	0	1515.00	0	2.3690	0	34.4980	0	27.548	0	1496.643	0	-1e10	8	-1e10	8	-1E+10	1	-1E+10	1	-1E+10	1	-1E+10	1	-1E+10	1	-1E+10	1
4902554	46	C	05/13/2022	10:59	-135.373	49.489	0	1525.10	0	2.3570	0	34.5010	0	27.551	0	1506.584	0	-1e10	8	-1e10	8	-1E+10	1	-1E+10	1	-1E+10	1	-1E+10	1	-1E+10	1	-1E+10	1
4902554	46	C	05/13/2022	10:59	-135.373	49.489	0	1535.20	0	2.3510	0	34.5020	0	27.553	0	1516.525	0	-1e10	8	-1e10	8	-1E+10	1	-1E+10	1	-1E+10	1	-1E+10	1	-1E+10	1	-1E+10	1
4902554	46	C	05/13/2022	10:59	-135.373	49.489	0	1545.40	0	2.3380	0	34.5050	0	27.556	0	1526.565	0	-1e10	8	-1e10	8	-1E+10	1	-1E+10	1	-1E+10	1	-1E+10	1	-1E+10	1	-1E+10	1
4902554	46	C	05/13/2022	10:59	-135.373	49.489	0	1555.60	0	2.3280	0	34.5070	0	27.559	0	1536.603	0	-1e10	8	-1e10	8	-1E+10	1	-1E+10	1	-1E+10	1	-1E+10	1	-1E+10	1	-1E+10	1
4902554	46	C	05/13/2022	10:59	-135.373	49.489	0	1565.50	0	2.3220	0	34.5080	0	27.560	0	1546.346	0	-1e10	8	-1e10	8	-1E+10	1	-1E+10	1	-1E+10	1	-1E+10	1	-1E+10	1	-1E+10	1
4902554	46	C	05/13/2022	10:59	-135.373	49.489	0	1575.50	0	2.3130	0	34.5100	0	27.563	0	1556.187	0	-1e10	8	-1e10	8	-1E+10	1	-1E+10	1	-1E+10	1	-1E+10	1	-1E+10	1	-1E+10	1
4902554	46	C	05/13/2022	10:59	-135.373	49.489	0	1585.60	0	2.2980	0	34.5130	0	27.566	0	1566.126	0	-1e10	8	-1e10	8	-1E+10	1	-1E+10	1	-1E+10	1	-1E+10	1	-1E+10	1	-1E+10	1
4902554	46	C	05/13/2022	10:59	-135.373	49.489	0	1595.50	0	2.2860	0	34.5150	0	27.569	0	1575.868	0	-1e10	8	-1e10	8	-1E+10	1	-1E+10	1	-1E+10	1	-1E+10	1	-1E+10	1	-1E+10	1
4902554	46	C	05/13/2022	10:59	-135.373	49.489	0	1605.50	0	2.2760	0	34.5180	0	27.572	0	1585.707	0	-1e10	8	-1e10	8	-1E+10	1	-1E+10	1	-1E+10	1	-1E+10	1	-1E+10	1	-1E+10	1
4902554	46	C	05/13/2022	10:59	-135.373	49.489	0	1615.50	0	2.2640	0	34.5200	0	27.575	0	1595.546	0	-1e10	8	-1e10	8	-1E+10	1	-1E+10	1	-1E+10	1	-1E+10	1	-1E+10	1	-1E+10	1
4902554	46	C	05/13/2022	10:59	-135.373	49.489	0	1625.30	0	2.2510	0	34.5230	0	27.578	0	1605.188	0	-1e10	8	-1e10	8	-1E+10	1	-1E+10	1	-1E+10	1	-1E+10	1	-1E+10	1	-1E+10	1
4902554	46	C	05/13/2022	10:59	-135.373	49.489	0	1635.30	0	2.2400	0	34.5250	0	27.581	0	1615.026	0	-1e10	8	-1e10	8	-1E+10	1	-1E+10	1	-1E+10	1	-1E+10	1	-1E+10	1	-1E+10	1
4902554	46	C	05/13/2022	10:59	-135.373	49.489	0	1645.40	0	2.2330	0	34.5260	0	27.582	0	1624.962	0	-1e10	8	-1e10	8	-1E+10	1	-1E+10	1	-1E+10	1	-1E+10	1	-1E+10	1	-1E+10	1
4902554	46	C	05/13/2022	10:59	-135.373	49.489	0	1655.70	0	2.2300	0	34.5270	0	27.583	0	1635.095	0	-1e10	8	-1e10	8	-1E+10	1	-1E+10	1	-1E+10	1	-1E+10	1	-1E+10	1	-1E+10	1
4902554	46	C	05/13/2022	10:59	-135.373	49.489	0	1665.60	0	2.2250	0	34.5280	0	27.585	0	1644.833	0	-1e10	8	-1e10	8	-1E+10	1	-1E+10	1	-1E+10	1	-1E+10	1	-1E+10	1	-1E+10	1
4902554	46	C	05/13/2022	10:59	-135.373	49.489	0	1675.50	0	2.2190	0	34.5290	0	27.586	0	1654.571	0	-1e10	8	-1e10	8	-1E+10	1	-1E+10	1	-1E+10	1	-1E+10	1	-1E+10	1	-1E+10	1
4902554	46	C	05/13/2022	10:59	-135.373	49.489	0	1685.40	0	2.2100	0	34.5310	0	27.588	0	1664.308	0	-1e10	8	-1e10	8	-1E+10	1	-1E+10	1	-1E+10	1	-1E+10	1	-1E+10	1	-1E+10	1
4902554	46	C	05/13/2022	10:59	-135.373	49.489	0	1695.50	0	2.2040	0	34.5330	0	27.590	0	1674.242	0	-1e10	8	-1e10	8	-1E+10	1	-1E+10	1	-1E+10	1	-1E+10	1	-1E+10	1	-1E+10	1
4902554	46	C	05/13/2022	10:59	-135.373	49.489	0	1705.50	0	2.1920	0	34.5350	0	27.593	0	1684.077	0	-1e10	8	-1e10	8	-1E+10	1	-1E+10	1	-1E+10	1	-1E+10	1	-1E+10	1	-1E+10	1
4902554	46	C	05/13/2022	10:59	-135.373	49.489	0	1715.70	0	2.1840	0	34.5370	0	27.595	0	1694.108	0	-1e10	8	-1e10	8	-1E+10	1	-1E+10	1	-1E+10	1	-1E+10	1	-1E+10	1	-1E+10	1
4902554	46	C	05/13/2022	10:59	-135.373	49.489	0	1725.50	0	2.1730	0	34.5390	0	27.598	0	1703.746	0	-1e10	8	-1e10	8	-1E+10	1	-1E+10	1	-1E+10	1	-1E+10	1	-1E+10	1	-1E+10	1
4902554	46	C	05/13/2022	10:59	-135.373	49.489	0	1735.60	0	2.1680	0	34.5400	0	27.599	0	1713.677	0	-1e10	8	-1e10	8	-1E+10	1	-1E+10	1	-1E+10	1	-1E+10	1	-1E+10	1	-1E+10	1
4902554	46	C	05/13/2022	10:59	-135.373	49.489	0	1745.70	0	2.1560	0	34.5430	0	27.603	0	1723.609	0	-1e10	8	-1e10	8	-1E+10	1	-1E+10	1	-1E+10	1	-1E+10	1	-1E+10	1	-1E+10	1
4902554	46	C	05/13/2022	10:59	-135.373	49.489	0	1755.50	0	2.1470	0	34.5440	0	27.604	0	1733.245	0	-1e10	8	-1e10	8	-1E+10	1	-1E+10	1	-1E+10	1	-1E+10	1	-1E+10	1	-1E+10	1
4902554	46	C	05/13/2022	10:59	-135.373	49.489	0	1765.40	0	2.1330	0	34.5470	0	27.608	0	1742.979	0	-1e10	8	-1e10	8	-1E+10	1	-1E+10	1	-1E+10	1	-1E+10	1	-1E+10	1	-1E+10	1
4902554	46	C	05/13/2022	10:59	-135.373	49.489	0	1775.40	0	2.1240	0	34.5490	0	27.610	0	1752.811	0	-1e10	8	-1e10	8	-1E+10	1	-1E+10	1	-1E+10	1	-1E+10	1	-1E+10	1	-1E+10	1
4902554	46	C	05/13/2022	10:59	-135.373	49.489	0	1785.20	0	2.1150	0	34.5510	0	27.612	0	1762.445	0	-1e10	8	-1e10	8	-1E+10	1	-1E+10	1	-1E+10	1	-1E+10	1	-1E+10	1	-1E+10	1
4902554	46	C	05/13/2022	10:59	-135.373	49.489	0	1795.00	0	2.1060	0	34.5530	0	27.615	0	1772.079	0	-1e10	8	-1e10	8	-1E+10	1	-1E+10	1	-1E+10	1	-1E+10	1	-1E+10	1	-1E+10	1
4902554	46	C	05/13/2022	10:59	-135.373	49.489	0	1805.00	0	2.0970	0	34.5540	0	27.616	0	1781.910	0	-1e10	8	-1e10	8	-1E+10	1	-1E+10	1	-1E+10	1	-1E+10	1	-1E+10	1	-1E+10	1
4902554	46	C	05/13/2022	10:59	-135.373	49.489	0	1815.00	0	2.0900	0	34.5550	0	27.618	0	1791.740	0	-1e10	8	-1e10	8	-1E+10	1	-1E+10	1	-1E+10	1	-1E+10	1	-1E+10	1	-1E+10	1
4902554	46	C	05/13/2022	10:59	-135.373	49.489	0	1825.20	0	2.0760	0	34.5580	0	27.621	0	1801.766	0	-1e10	8	-1e10	8	-1E+10	1	-1E+10	1	-1E+10	1	-1E+10	1	-1E+10	1	-1E+10	1
4902554	46	C	05/13/2022	10:59	-135.373	49.489	0	1835.30	0	2.0660	0	34.5600	0	27.624	0	1811.693	0	-1e10	8	-1e10	8	-1E+10	1	-1E+10	1	-1E+10	1	-1E+10	1	-1E+10	1	-1E+10	1
4902554	46	C	05/13/2022	10:59	-135.373	49.489	0	1845.40	0	2.0540	0	34.5630	0	27.627	0	1821.620	0	-1e10	8	-1e10	8	-1E+10	1	-1E+10	1	-1E+10	1	-1E+10	1	-1E+10	1	-1E+10	1
4902554	46	C	05/13/2022	10:59	-135.373	49.489	0	1855.60	0	2.0460	0	34.5640	0	27.629	0	1831.645	0	-1e10	8	-1e10	8	-1E+10	1	-1E+10	1	-1E+10	1	-1E+10	1	-1E+10	1	-1E+10	1
4902554	46	C	05/13/2022	10:59	-135.373	49.489	0	1865.60	0	2.0430	0	34.5650	0	27.630	0	1841.472	0	-1e10	8	-1e10	8	-1E+10	1	-1E+10	1	-1E+10	1	-1E+10	1	-1E+10	1	-1E+10	1
4902554	46	C	05/13/2022	10:59	-135.373	49.489	0	1875.70	0	2.0350	0	34.5660	0	27.631	0	1851.398	0	-1e10	8	-1e10	8	-1E+10	1	-1E+10	1	-1E+10	1	-1E+10	1	-1E+10	1	-1E+10	1
4902554	46	C	05/13/2022	10:59	-135.373	49.489	0	1885.50	0	2.0280	0	34.5670	0	27.633	0	1861.028	0	-1e10	8	-1e10	8	-1E+10	1	-1E+10	1	-1E+10	1	-1E+10	1	-1E+10	1	-1E+10	1
4902554	46	C	05/13/2022	10:59	-135.373	49.489	0	1895.10	0	2.0220	0	34.5690	0	27.635	0	1870.461	0	-1e10	8	-1e10	8	-1E+10	1	-1E+10	1	-1E+10	1	-1E+10	1	-1E+10	1	-1E+10	1
4902554	46	C	05/13/2022	10:59	-135.373	49.489	0	1905.30	0	2.0140	0	34.5700	0	27.636	0	1880.483	0	-1e10	8	-1e10	8	-1E+10	1	-1E+10	1	-1E+10	1	-1E+10	1	-1E+10	1	-1E+10	1
4902554	46	C	05/13/2022	10:59	-135.373	49.489	0	1915.80	0	2.0080	0	34.5720	0	27.638	0	1890.800	0	-1e10	8	-1e10	8	-1E+10	1	-1E+10	1	-1E+10	1	-1E+10	1	-1E+10	1	-1E+10	1
4902554	46	C	05/13/2022	10:59	-135.373	49.489	0	1925.60	0	2.0020	0	34.5730	0	27.640	0	1900.428	0	-1e10	8	-1e10	8	-1E+10	1	-1E+10	1	-1E+10	1	-1E+10	1	-1E+10	1	-1E+10	1
4902554	46	C	05/13/2022	10:59	-135.373	49.489	0	1935.40	0	1.9920	0	34.5750	0	27.642	0	1910.056	0	-1e10	8	-1e10	8	-1E+10	1	-1E+10	1	-1E+10	1	-1E+10	1	-1E+10	1	-1E+10	1
4902554	46	C	05/13/2022	10:59	-135.373	49.489	0	1945.50	0	1.9830	0	34.5770	0	27.644	0	1919.979	0	-1e10	8	-1e10	8	-1E+10	1	-1E+10	1	-1E+10	1	-1E+10	1	-1E+10	1	-1E+10	1
4902554	46	C	05/13/2022	10:59	-135.373	49.489	0	1955.40	0	1.9760	0	34.5780	0	27.646	0	1929.704	0	-1e10	8	-1e10	8	-1E+10	1	-1E+10	1	-1E+10	1	-1E+10	1	-1E+10	1	-1E+10	1
4902554	46	C	05/13/2022	10:59	-135.373	49.489	0	1965.30	0	1.9690	0	34.5800	0	27.648	0	1939.429	0	-1e10	8	-1e10	8	-1E+10	1	-1E+10	1	-1E+10	1	-1E+10	1	-1E+10	1	-1E+10	1
4902554	46	C	05/13/2022	10:59	-135.373	49.489	0	1975.40	0	1.9630	0	34.5810	0	27.649	0	1949.350	0	-1e10	8	-1e10	8	-1E+10	1	-1E+10	1	-1E+10	1	-1E+10	1	-1E+10	1	-1E+10	1
4902554	46	C	05/13/2022	10:59	-135.373	49.489	0	1985.40	0	1.9560	0	34.5820	0	27.651	0	1959.172	0	-1e10	8	-1e10	8	-1E+10	1	-1E+10	1	-1E+10	1	-1E+10	1	-1E+10	1	-1E+10	1
4902554	46	C	05/13/2022	10:59	-135.373	49.489	0	1995.80	0	1.9430	0	34.5840	0	27.653	0	1969.386	0	-1e10	8	-1e10	8	-1E+10	1	-1E+10	1	-1E+10	1	-1E+10	1	-1E+10	1	-1E+10	1
4902554	46	C	05/13/2022	10:59	-135.373	49.489	0	2001.40	0	1.9390	0	34.5850	0	27.655	0	1974.886	0	-1e10	8	-1e10	8	-1E+10	1	-1E+10	1	-1E+10	1	-1E+10	1	-1E+10	1	-1E+10	1
4902554	46	C	05/13/2022	10:59	-135.373	49.489	0																										
4902554	47	C	05/23/2022	15:58	-135.218	49.479	0	0.40	0	8.4960	0	32.3300	0	25.105	0	0.397	0	-1e10	8	-1e10	8	-1E+10	1	-1E+10	1	-1E+10	1	-1E+10	1	-1E+10	1	-1E+10	1
4902554	47	C	05/23/2022	15:58	-135.218	49.479	0	0.80	0	8.4950	0	32.3300	0	25.105	0	0.793	0	-1e10	8	-1e10	8	-1E+10	1	-1E+10	1	-1E+10	1	-1E+10	1	-1E+10	1	-1E+10	1
4902554	47	C	05/23/2022	15:58	-135.218	49.479	0	1.80	0	8.4940	0	32.3310	0	25.106	0	1.785	0	-1e10	8	-1e10	8	-1E+10	1	-1E+10	1	-1E+10	1	-1E+10	1	-1E+10	1	-1E+10	1
4902554	47	C	05/23/2022	15:58	-135.218	49.479	0	2.90	0	8.4920	0	32.3330	0	25.108	0	2.875	0	-1e10	8	-1e10	8	-1E+10	1	-1E+10	1	-1E+10	1	-1E+10	1	-1E+10	1	-1E+10	1
4902554	47	C	05/23/2022	15:58	-135.218	49.479	0	4.00	0	8.4910	0	32.3340	0	25.109	0	3.966	0	-1e10	8	-1e10	8	-1E+10	1	-1E+10	1	-1E+10	1	-1E+10	1	-1E+10	1	-1E+10	1
4902554	47	C	05/23/2022	15:58	-135.218	49.479	0	4.90	0	8.4910	0	32.3350	0	25.110	0	4.858	0	-1e10	8	-1e10	8	-1E+10	1	-1E+10	1	-1E+10	1	-1E+10	1	-1E+10	1	-1E+10	1
4902554	47	C	05/23/2022	15:58	-135.218	49.479	0	5.90	0	8.4880	0	32.3360	0	25.111	0	5.850	0	-1e10	8	-1e10	8	-1E+10	1	-1E+10	1	-1E+10	1	-1E+10	1	-1E+10	1	-1E+10	1
4902554	47	C	05/23/2022	15:58	-135.218	49.479	0	6.90	0	8.4870	0	32.3350	0	25.110	0	6.841	0	-1e10	8	-1e10	8	-1E+10	1	-1E+10	1	-1E+10	1	-1E+10	1	-1E+10	1	-1E+10	1
4902554	47	C	05/23/2022	15:58	-135.218	49.479	0	8.00	0	8.4870	0	32.3360	0	25.111	0	7.932	0	-1e10	8	-1e10	8	-1E+10	1	-1E+10	1	-1E+10	1	-1E+10	1	-1E+10	1	-1E+10	1
4902554	47	C	05/23/2022	15:58	-135.218	49.479	0	9.10	0	8.4870	0	32.3350	0	25.110	0	9.022	0	-1e10	8	-1e10	8	-1E+10	1	-1E+10	1	-1E+10	1	-1E+10	1	-1E+10	1	-1E+10	1
4902554	47	C	05/23/2022	15:58	-135.218	49.479	0	10.00	0	8.4880	0	32.3350	0	25.110	0	9.915	0	-1e10	8	-1e10	8	-1E+10	1	-1E+10	1	-1E+10	1	-1E+10	1	-1E+10	1	-1E+10	1
4902554	47	C	05/23/2022	15:58	-135.218	49.479	0	10.90	0	8.4870	0	32.3350	0	25.110	0	10.807	0	-1e10	8	-1e10	8	-1E+10	1	-1E+10	1	-1E+10	1	-1E+10	1	-1E+10	1	-1E+10	1
4902554	47	C	05/23/2022	15:58	-135.218	49.479	0	12.10	0	8.4860	0	32.3360	0	25.111	0	11.996	0	-1e10	8	-1e10	8	-1E+10	1	-1E+10	1	-1E+10	1	-1E+10	1	-1E+10	1	-1E+10	1
4902554	47	C	05/23/2022	15:58	-135.218	49.479	0	13.10	0	8.4870	0	32.3350	0	25.110	0	12.988	0	-1e10	8	-1e10	8	-1E+10	1	-1E+10	1	-1E+10	1	-1E+10	1	-1E+10	1	-1E+10	1
4902554	47	C	05/23/2022	15:58	-135.218	49.479	0	14.00	0	8.4860	0	32.3350	0	25.111	0	13.880	0	-1e10	8	-1e10	8	-1E+10	1	-1E+10	1	-1E+10	1	-1E+10	1	-1E+10	1	-1E+10	1
4902554	47	C	05/23/2022	15:58	-135.218	49.479	0	14.90	0	8.4870	0	32.3360	0	25.111	0	14.772	0	-1e10	8	-1e10	8	-1E+10	1	-1E+10	1	-1E+10	1	-1E+10	1	-1E+10	1	-1E+10	1
4902554	47	C	05/23/2022	15:58	-135.218	49.479	0	15.80	0	8.4860	0	32.3350	0	25.111	0	15.665	0	-1e10	8	-1e10	8	-1E+10	1	-1E+10	1	-1E+10	1	-1E+10	1	-1E+10	1	-1E+10	1
4902554	47	C	05/23/2022	15:58	-135.218	49.479	0	17.10	0	8.4860	0	32.3360	0	25.111	0	16.954	0	-1e10	8	-1e10	8	-1E+10	1	-1E+10	1	-1E+10	1	-1E+10	1	-1E+10	1	-1E+10	1
4902554	47	C	05/23/2022	15:58	-135.218	49.479	0	18.10	0	8.4840	0	32.3360	0	25.112	0	17.945	0	-1e10	8	-1e10	8	-1E+10	1	-1E+10	1	-1E+10	1	-1E+10	1	-1E+10	1	-1E+10	1
4902554	47	C	05/23/2022	15:58	-135.218	49.479	0	19.00	0	8.4840	0	32.3350	0	25.111	0	18.837	0	-1e10	8	-1e10	8	-1E+10	1	-1E+10	1	-1E+10	1	-1E+10	1	-1E+10	1	-1E+10	1
4902554	47	C	05/23/2022	15:58	-135.218	49.479	0	20.10	0	8.4740	0	32.3350	0	25.112	0	19.928	0	-1e10	8	-1e10	8	-1E+10	1	-1E+10	1	-1E+10	1	-1E+10	1	-1E+10	1	-1E+10	1
4902554	47	C	05/23/2022	15:58	-135.218	49.479	0	20.80	0	8.4640	0	32.3370	0	25.116	0	20.622	0	-1e10	8	-1e10	8	-1E+10	1	-1E+10	1	-1E+10	1	-1E+10	1	-1E+10	1	-1E+10	1
4902554	47	C	05/23/2022	15:58	-135.218	49.479	0	21.80	0	8.4640	0	32.3350	0	25.114	0	21.613	0	-1e10	8	-1e10	8	-1E+10	1	-1E+10	1	-1E+10	1	-1E+10	1	-1E+10	1	-1E+10	1
4902554	47	C	05/23/2022	15:58	-135.218	49.479	0	22.80	0	8.4640	0	32.3360	0	25.115	0	22.604	0	-1e10	8	-1e10	8	-1E+10	1	-1E+10	1	-1E+10	1	-1E+10	1	-1E+10	1	-1E+10	1
4902554	47	C	05/23/2022	15:58	-135.218	49.479	0	23.80	0	8.4650	0	32.3350	0	25.114	0	23.596	0	-1e10	8	-1e10	8	-1E+10	1	-1E+10	1	-1E+10	1	-1E+10	1	-1E+10	1	-1E+10	1
4902554	47	C	05/23/2022	15:58	-135.218	49.479	0	25.10	0	8.4490	0	32.3410	0	25.121	0	24.884	0	-1e10	8	-1e10	8	-1E+10	1	-1E+10	1	-1E+10	1	-1E+10	1	-1E+10	1	-1E+10	1
4902554	47	C	05/23/2022	15:58	-135.218	49.479	0	26.10	0	8.4530	0	32.3360	0	25.116	0	25.876	0	-1e10	8	-1e10	8	-1E+10	1	-1E+10	1	-1E+10	1	-1E+10	1	-1E+10	1	-1E+10	1
4902554	47	C	05/23/2022	15:58	-135.218	49.479	0	27.00	0	8.4390	0	32.3350	0	25.118	0	26.768	0	-1e10	8	-1e10	8	-1E+10	1	-1E+10	1	-1E+10	1	-1E+10	1	-1E+10	1	-1E+10	1
4902554	47	C	05/23/2022	15:58	-135.218	49.479	0	28.00	0	8.4310	0	32.3370	0	25.121	0	27.759	0	-1e10	8	-1e10	8	-1E+10	1	-1E+10	1	-1E+10	1	-1E+10	1	-1E+10	1	-1E+10	1
4902554	47	C	05/23/2022	15:58	-135.218	49.479	0	28.90	0	8.4270	0	32.3370	0	25.121	0	28.652	0	-1e10	8	-1e10	8	-1E+10	1	-1E+10	1	-1E+10	1	-1E+10	1	-1E+10	1	-1E+10	1
4902554	47	C	05/23/2022	15:58	-135.218	49.479	0	29.90	0	8.4130	0	32.3370	0	25.123	0	29.643	0	-1e10	8	-1e10	8	-1E+10	1	-1E+10	1	-1E+10	1	-1E+10	1	-1E+10	1	-1E+10	1
4902554	47	C	05/23/2022	15:58	-135.218	49.479	0	30.80	0	8.4020	0	32.3370	0	25.125	0	30.535	0	-1e10	8	-1e10	8	-1E+10	1	-1E+10	1	-1E+10	1	-1E+10	1	-1E+10	1	-1E+10	1
4902554	47	C	05/23/2022	15:58	-135.218	49.479	0	31.80	0	8.3910	0	32.3370	0	25.127	0	31.526	0	-1e10	8	-1e10	8	-1E+10	1	-1E+10	1	-1E+10	1	-1E+10	1	-1E+10	1	-1E+10	1
4902554	47	C	05/23/2022	15:58	-135.218	49.479	0	32.80	0	8.3820	0	32.3370	0	25.128	0	32.518	0	-1e10	8	-1e10	8	-1E+10	1	-1E+10	1	-1E+10	1	-1E+10	1	-1E+10	1	-1E+10	1
4902554	47	C	05/23/2022	15:58	-135.218	49.479	0	34.10	0	8.3740	0	32.3370	0	25.129	0	33.806	0	-1e10	8	-1e10	8	-1E+10	1	-1E+10	1	-1E+10	1	-1E+10	1	-1E+10	1	-1E+10	1
4902554	47	C	05/23/2022	15:58	-135.218	49.479	0	35.00	0	8.3690	0	32.3380	0	25.131	0	34.699	0	-1e10	8	-1e10	8	-1E+10	1	-1E+10	1	-1E+10	1	-1E+10	1	-1E+10	1	-1E+10	1
4902554	47	C	05/23/2022	15:58	-135.218	49.479	0	35.90	0	8.3480	0	32.3370	0	25.133	0	35.591	0	-1e10	8	-1e10	8	-1E+10	1	-1E+10	1	-1E+10	1	-1E+10	1	-1E+10	1	-1E+10	1
4902554	47	C	05/23/2022	15:58	-135.218	49.479	0	36.90	0	8.3380	0	32.3370	0	25.134	0	36.582	0	-1e10	8	-1e10	8	-1E+10	1	-1E+10	1	-1E+10	1	-1E+10	1	-1E+10	1	-1E+10	1
4902554	47	C	05/23/2022	15:58	-135.218	49.479	0	37.80	0	8.3270	0	32.3380	0	25.137	0	37.474	0	-1e10	8	-1e10	8	-1E+10	1	-1E+10	1	-1E+10	1	-1E+10	1	-1E+10	1	-1E+10	1
4902554	47	C	05/23/2022	15:58	-135.218	49.479	0	39.00	0	8.3210	0	32.3370	0	25.137	0	38.664	0	-1e10	8	-1e10	8	-1E+10	1	-1E+10	1	-1E+10	1	-1E+10	1	-1E+10	1	-1E+10	1
4902554	47	C	05/23/2022	15:58	-135.218	49.479	0	40.20	0	8.2970	0	32.3370	0	25.141	0	39.853	0	-1e10	8	-1e10	8	-1E+10	1	-1E+10	1	-1E+10	1	-1E+10	1	-1E+10	1	-1E+10	1
4902554	47	C	05/23/2022	15:58	-135.218	49.479	0	41.10	0	8.2360	0	32.3560	0	25.164	0	40.746	0	-1e10	8	-1e10	8	-1E+10	1	-1E+10	1	-1E+10	1	-1E+10	1	-1E+10	1	-1E+10	1
4902554	47	C	05/23/2022	15:58	-135.218	49.479	0	42.00	0	8.1680	0	32.3410	0	25.163	0	41.638	0	-1e10	8	-1e10	8	-1E+10	1	-1E+10	1	-1E+10	1	-1E+10	1	-1E+10	1	-1E+10	1
4902554	47	C	05/23/2022	15:58	-135.218	49.479	0	42.90	0	8.1340	0	32.3410	0	25.168	0	42.530	0	-1e10	8	-1e10	8	-1E+10	1	-1E+10	1	-1E+10	1	-1E+10	1	-1E+10	1	-1E+10	1
4902554	47	C	05/23/2022	15:58	-135.218	49.479	0	43.80	0	8.0990	0	32.3440	0	25.175	0	43.422	0	-1e10	8	-1e10	8	-1E+10	1	-1E+10	1	-1E+10	1	-1E+10	1	-1E+10	1	-1E+10	1
4902554	47	C	05/23/2022	15:58	-135.218	49.479	0	44.80	0	8.0480	0	32.3430	0	25.182	0	44.413	0	-1e10	8	-1e10	8	-1E+10	1	-1E+10	1	-1E+10	1	-1E+10	1	-1E+10	1	-1E+10	1
4902554	47	C	05/23/2022	15:58	-135.218	49.479	0	45.80	0	7.9830	0	32.3510	0	25.197	0	45.404	0	-1e10	8	-1e10	8	-1E+10	1	-1E+10	1	-1E+10	1	-1E+10	1	-1E+10	1	-1E+10	1
4902554	47	C	05/23/2022	15:58	-135.218	49.479	0	46.80	0	7.9270	0	32.3500	0	25.205	0	46.396	0	-1e10	8	-1e10	8	-1E+10	1	-1E+10	1	-1E+10	1	-1E+10	1	-1E+10	1	-1E+10	1
4902554	47	C	05/23/2022	15:58	-135.218	49.479	0	48.00	0	7.8370	0	32.3560	0	25.222	0	47.585	0	-1e10	8	-1e10	8	-1E+10	1	-1E+10	1	-1E+10	1	-1E+10	1	-1E+10	1	-1E+10	1
4902554	47	C	05/23/2022	15:58	-135.218	49.479	0	49.20	0	7.7260	0	32.3530	0	25.236	0	48.775	0	-1e10	8	-1e10	8	-1E+10	1	-1E+10	1	-1E+10	1	-1E+10	1	-1E+10	1	-1E+10	1
4902554	47	C	05/23/2022	15:58	-135.218	49.479	0	49.80	0	7.6460	0	32.3580	0	25.251	0	49.369	0	-1e10	8	-1e10	8	-1E+10	1	-1E+10	1	-1E+10	1	-1E+10	1	-1E+10	1	-1E+10	1
4902554	47	C	05/23/2022	15:58	-135.218	49.479	0	50.70	0	7.5570	0	32.3600	0	25.265	0	50.262	0	-1e10	8	-1e10	8	-1E+10	1	-1E+10	1	-1E+10	1	-1E+10	1	-1E+10	1	-1E+10	1
4902554	47	C	05/23/2022	15:58	-135.218	49.479	0	51.70	0	7.4120	0	32.3630	0	25.287	0	51.253	0	-1e10	8	-1e10	8	-1E+10	1	-1E+10	1	-1E+10	1	-1E+10	1	-1E+10	1	-1E+10	1
4902554	47	C	05/23/2022	15:58	-135.218	49.479	0	52.70	0	7.3110	0	32.3660	0	25.303	0	52.244	0	-1e10	8	-1e10	8	-1E+10	1	-1E+10	1	-1E+10	1	-1E+10	1	-1E+10	1	-1E+10	1
4902554	47	C	05/23/2022	15:58	-135.218	49.479	0	53.80	0	7.2300	0	32.3710	0	25.318	0	53.334	0	-1e10	8	-1e10	8	-1E+10	1	-1E+10	1	-1E+10	1	-1E+10	1	-1E+10	1	-1E+10	1
4902554	47	C	05/23/2022	15:58	-135.218	49.479	0	54.80	0	7.2310	0	32.3700	0	25.317	0	54.326	0	-1e10	8	-1e10	8	-1E+10	1	-1E+10	1	-1E+10	1	-1E+10	1	-1E+10	1	-1E+10	1
4902554	47	C	05/23/2022	15:58	-135.218	49.479	0	55.90	0	7.2150	0	32.3770	0	25.325	0	55.416	0	-1e10	8	-1e10	8	-1E+10	1	-1E+10	1	-1E+10	1	-1E+10	1	-1E+10	1	-1E+10	1
4902554	47	C	05/23/2022	15:58	-135.218	49.479	0	56.90	0	7.1750	0	32.3690	0	25.324	0	56.407	0	-1e10	8	-1e10	8	-1E+10	1	-1E+10	1	-1E+10	1	-1E+10	1	-1E+10	1	-1E+10	1
4902554	47	C	05/23/2022	15:58	-135.218	49.479	0	58.10	0	7.0880	0	32.3760	0	25.341	0	57.597	0	-1e10	8	-1e10	8	-1E+10	1	-1E+10	1	-1E+10	1	-1E+10	1	-1E+10	1	-1E+10	1
4902554	47	C	05/23/2022	15:58	-135.218	49.479	0	59.00	0	6.9970	0	32.3790	0	25.356	0	58.489	0	-1e10	8	-1e10	8	-1E+10	1	-1E+10	1	-1E+10	1	-1E+10	1	-1E+10	1	-1E+10	1
4902554	47	C	05/23/2022	15:58	-135.218	49.479	0	60.00	0	6.9890	0	32.3780	0	25.356	0	59.480	0	-1e10	8	-1e10	8	-1E+10	1	-1E+10	1	-1E+10	1	-1E+10	1	-1E+10	1	-1E+10	1
4902554	47	C	05/23/2022	15:58	-135.218	49.479	0	60.90	0	6.9820	0	32.3760	0	25.356	0	60.372	0	-1e10	8	-1e10	8	-1E+10	1	-1E+10	1	-1E+10	1	-1E+10	1	-1E+10	1	-1E+10	1
4902554	47	C	05/23/2022	15:58	-135.218	49.479	0	61.80	0	6.9790	0	32.3760	0	25.356	0	61.264	0	-1e10	8	-1e10	8	-1E+10	1	-1E+10	1	-1E+10	1	-1E+10	1	-1E+10	1	-1E+10	1
4902554	47	C	05/23/2022	15:58	-135.218	49.479	0	62.90	0	6.9780	0	32.3760	0	25.356	0	62.354	0	-1e10	8	-1e10	8	-1E+10	1	-1E+10	1	-1E+10	1	-1E+10	1	-1E+10	1	-1E+10	1
4902554	47	C	05/23/2022	15:58	-135.218	49.479	0	64.10	0	6.9720	0	32.3760	0	25.357	0	63.544	0	-1e10	8	-1e10	8	-1E+10	1	-1E+10	1	-1E+10	1	-1E+10	1	-1E+10	1	-1E+10	1
4902554	47	C	05/23/2022	15:58	-135.218	49.479	0	65.00	0	6.9620	0	32.3760	0	25.358	0	64.436	0	-1e10	8	-1e10	8	-1E+10	1	-1E+10	1	-1E+10	1	-1E+10	1	-1E+10	1	-1E+10	1
4902554	47	C	05/23/2022	15:58	-135.218	49.479	0	65.90	0	6.9420	0	32.3770	0	25.362	0	65.328	0	-1e10	8	-1e10	8	-1E+10	1	-1E+10	1	-1E+10	1	-1E+10	1	-1E+10	1	-1E+10	1
4902554	47	C	05/23/2022	15:58	-135.218	49.479	0	67.10	0	6.9210	0	32.3770	0	25.365	0	66.517	0	-1e10	8	-1e10	8	-1E+10	1	-1E+10	1	-1E+10	1	-1E+10	1	-1E+10	1	-1E+10	1
4902554	47	C	05/23/2022	15:58	-135.218	49.479	0	68.00	0	6.8950	0	32.3790	0	25.370	0	67.409	0	-1e10	8	-1e10	8	-1E+10	1	-1E+10	1	-1E+10	1	-1E+10	1	-1E+10	1	-1E+10	1
4902554	47	C	05/23/2022	15:58	-135.218	49.479	0	68.80	0	6.8820	0	32.3820	0	25.374	0	68.202	0	-1e10	8	-1e10	8	-1E+10	1	-1E+10	1	-1E+10	1	-1E+10	1	-1E+10	1	-1E+10	1
4902554	47	C	05/23/2022	15:58	-135.218	49.479	0	70.10	0	6.8630	0	32.3840	0	25.378	0	69.491	0	-1e10	8	-1e10	8	-1E+10	1	-1E+10	1	-1E+10	1	-1E+10	1	-1E+10	1	-1E+10	1
4902554	47	C	05/23/2022	15:58	-135.218	49.479	0	71.00	0	6.8510	0	32.3850	0	25.380	0	70.383	0	-1e10	8	-1e10	8	-1E+10	1	-1E+10	1	-1E+10	1	-1E+10	1	-1E+10	1	-1E+10	1
4902554	47	C	05/23/2022	15:58	-135.218	49.479	0	71.90	0	6.8440	0	32.3850	0	25.381	0	71.275	0	-1e10	8	-1e10	8	-1E+10	1	-1E+10	1	-1E+10	1	-1E+10	1	-1E+10	1	-1E+10	1
4902554	47	C	05/23/2022	15:58	-135.218	49.479	0	73.10	0	6.8340	0	32.3850	0	25.382	0	72.464	0	-1e10	8	-1e10	8	-1E+10	1	-1E+10	1	-1E+10	1	-1E+10	1	-1E+10	1	-1E+10	1
4902554	47	C	05/23/2022	15:58	-135.218	49.479	0	74.00	0	6.8330	0	32.3850	0	25.382	0	73.356	0	-1e10	8	-1e10	8	-1E+10	1	-1E+10	1	-1E+10	1	-1E+10	1	-1E+10	1	-1E+10	1
4902554	47	C	05/23/2022	15:58	-135.218	49.479	0	74.80	0	6.8300	0	32.3850	0	25.383	0	74.149	0	-1e10	8	-1e10	8	-1E+10	1	-1E+10	1	-1E+10	1	-1E+10	1	-1E+10	1	-1E+10	1
4902554	47	C	05/23/2022	15:58	-135.218	49.479	0	76.00	0	6.8190	0	32.3870	0	25.386	0	75.338	0	-1e10	8	-1e10	8	-1E+10	1	-1E+10	1	-1E+10	1	-1E+10	1	-1E+10	1	-1E+10	1
4902554	47	C	05/23/2022	15:58	-135.218	49.479	0	76.90	0	6.8170	0	32.3870	0	25.386	0	76.230	0	-1e10	8	-1e10	8	-1E+10	1	-1E+10	1	-1E+10	1	-1E+10	1	-1E+10	1	-1E+10	1
4902554	47	C	05/23/2022	15:58	-135.218	49.479	0	77.80	0	6.8150	0	32.3860	0	25.386	0	77.122	0	-1e10	8	-1e10	8	-1E+10	1	-1E+10	1	-1E+10	1	-1E+10	1	-1E+10	1	-1E+10	1
4902554	47	C	05/23/2022	15:58	-135.218	49.479	0	78.90	0	6.8030	0	32.3870	0	25.388	0	78.212	0	-1e10	8	-1e10	8	-1E+10	1	-1E+10	1	-1E+10	1	-1E+10	1	-1E+10	1	-1E+10	1
4902554	47	C	05/23/2022	15:58	-135.218	49.479	0	80.00	0	6.7800	0	32.3880	0	25.392	0	79.303	0	-1e10	8	-1e10	8	-1E+10	1	-1E+10	1	-1E+10	1	-1E+10	1	-1E+10	1	-1E+10	1
4902554	47	C	05/23/2022	15:58	-135.218	49.479	0	80.90	0	6.7720	0	32.3900	0	25.394	0	80.195	0	-1e10	8	-1e10	8	-1E+10	1	-1E+10	1	-1E+10	1	-1E+10	1	-1E+10	1	-1E+10	1
4902554	47	C	05/23/2022	15:58	-135.218	49.479	0	81.70	0	6.7710	0	32.3890	0	25.394	0	80.987	0	-1e10	8	-1e10	8	-1E+10	1	-1E+10	1	-1E+10	1	-1E+10	1	-1E+10	1	-1E+10	1
4902554	47	C	05/23/2022	15:58	-135.218	49.479	0	82.80	0	6.7680	0	32.3890	0	25.394	0	82.078	0	-1e10	8	-1e10	8	-1E+10	1	-1E+10	1	-1E+10	1	-1E+10	1	-1E+10	1	-1E+10	1
4902554	47	C	05/23/2022	15:58	-135.218	49.479	0	83.90	0	6.7680	0	32.3900	0	25.395	0	83.168	0	-1e10	8	-1e10	8	-1E+10	1	-1E+10	1	-1E+10	1	-1E+10	1	-1E+10	1	-1E+10	1
4902554	47	C	05/23/2022	15:58	-135.218	49.479	0	85.00	0	6.7660	0	32.3900	0	25.395	0	84.258	0	-1e10	8	-1e10	8	-1E+10	1	-1E+10	1	-1E+10	1	-1E+10	1	-1E+10	1	-1E+10	1
4902554	47	C	05/23/2022	15:58	-135.218	49.479	0	86.10	0	6.7670	0	32.3900	0	25.395	0	85.348	0	-1e10	8	-1e10	8	-1E+10	1	-1E+10	1	-1E+10	1	-1E+10	1	-1E+10	1	-1E+10	1
4902554	47	C	05/23/2022	15:58	-135.218	49.479	0	87.10	0	6.7670	0	32.3900	0	25.395	0	86.339	0	-1e10	8	-1e10	8	-1E+10	1	-1E+10	1	-1E+10	1	-1E+10	1	-1E+10	1	-1E+10	1
4902554	47	C	05/23/2022	15:58	-135.218	49.479	0	88.10	0	6.7660	0	32.3900	0	25.395	0	87.330	0	-1e10	8	-1e10	8	-1E+10	1	-1E+10	1	-1E+10	1	-1E+10	1	-1E+10	1	-1E+10	1
4902554	47	C	05/23/2022	15:58	-135.218	49.479	0	89.00	0	6.7630	0	32.3900	0	25.396	0	88.222	0	-1e10	8	-1e10	8	-1E+10	1	-1E+10	1	-1E+10	1	-1E+10	1	-1E+10	1	-1E+10	1
4902554	47	C	05/23/2022	15:58	-135.218	49.479	0	89.70	0	6.7570	0	32.3910	0	25.397	0	88.916	0	-1e10	8	-1e10	8	-1E+10	1	-1E+10	1	-1E+10	1	-1E+10	1	-1E+10	1	-1E+10	1
4902554	47	C	05/23/2022	15:58	-135.218	49.479	0	90.80	0	6.7520	0	32.3920	0	25.399	0	90.006	0	-1e10	8	-1e10	8	-1E+10	1	-1E+10	1	-1E+10	1	-1E+10	1	-1E+10	1	-1E+10	1
4902554	47	C	05/23/2022	15:58	-135.218	49.479	0	91.80	0	6.7300	0	32.3970	0	25.406	0	90.997	0	-1e10	8	-1e10	8	-1E+10	1	-1E+10	1	-1E+10	1	-1E+10	1	-1E+10	1	-1E+10	1
4902554	47	C	05/23/2022	15:58	-135.218	49.479	0	92.90	0	6.7210	0	32.3990	0	25.408	0	92.087	0	-1e10	8	-1e10	8	-1E+10	1	-1E+10	1	-1E+10	1	-1E+10	1	-1E+10	1	-1E+10	1
4902554	47	C	05/23/2022	15:58	-135.218	49.479	0	94.00	0	6.7190	0	32.4000	0	25.409	0	93.177	0	-1e10	8	-1e10	8	-1E+10	1	-1E+10	1	-1E+10	1	-1E+10	1	-1E+10	1	-1E+10	1
4902554	47	C	05/23/2022	15:58	-135.218	49.479	0	95.10	0	6.7120	0	32.4020	0	25.412	0	94.267	0	-1e10	8	-1e10	8	-1E+10	1	-1E+10	1	-1E+10	1	-1E+10	1	-1E+10	1	-1E+10	1
4902554	47	C	05/23/2022	15:58	-135.218	49.479	0	96.00	0	6.7100	0	32.4030	0	25.413	0	95.159	0	-1e10	8	-1e10	8	-1E+10	1	-1E+10	1	-1E+10	1	-1E+10	1	-1E+10	1	-1E+10	1
4902554	47	C	05/23/2022	15:58	-135.218	49.479	0	96.80	0	6.7010	0	32.4050	0	25.416	0	95.952	0	-1e10	8	-1e10	8	-1E+10	1	-1E+10	1	-1E+10	1	-1E+10	1	-1E+10	1	-1E+10	1
4902554	47	C	05/23/2022	15:58	-135.218	49.479	0	97.90	0	6.6890	0	32.4080	0	25.420	0	97.042	0	-1e10	8	-1e10	8	-1E+10	1	-1E+10	1	-1E+10	1	-1E+10	1	-1E+10	1	-1E+10	1
4902554	47	C	05/23/2022	15:58	-135.218	49.479	0	99.00	0	6.6750	0	32.4120	0	25.425	0	98.132	0	-1e10	8	-1e10	8	-1E+10	1	-1E+10	1	-1E+10	1	-1E+10	1	-1E+10	1	-1E+10	1
4902554	47	C	05/23/2022	15:58	-135.218	49.479	0	99.90	0	6.6650	0	32.4150	0	25.428	0	99.024	0	-1e10	8	-1e10	8	-1E+10	1	-1E+10	1	-1E+10	1	-1E+10	1	-1E+10	1	-1E+10	1
4902554	47	C	05/23/2022	15:58	-135.218	49.479	0	101.00	0	6.6470	0	32.4220	0	25.436	0	100.114	0	-1e10	8	-1e10	8	-1E+10	1	-1E+10	1	-1E+10	1	-1E+10	1	-1E+10	1	-1E+10	1
4902554	47	C	05/23/2022	15:58	-135.218	49.479	0	101.90	0	6.6110	0	32.4370	0	25.453	0	101.006	0	-1e10	8	-1e10	8	-1E+10	1	-1E+10	1	-1E+10	1	-1E+10	1	-1E+10	1	-1E+10	1
4902554	47	C	05/23/2022	15:58	-135.218	49.479	0	103.00	0	6.5430	0	32.4720	0	25.489	0	102.096	0	-1e10	8	-1e10	8	-1E+10	1	-1E+10	1	-1E+10	1	-1E+10	1	-1E+10	1	-1E+10	1
4902554	47	C	05/23/2022	15:58	-135.218	49.479	0	103.90	0	6.5040	0	32.4890	0	25.507	0	102.988	0	-1e10	8	-1e10	8	-1E+10	1	-1E+10	1	-1E+10	1	-1E+10	1	-1E+10	1	-1E+10	1
4902554	47	C	05/23/2022	15:58	-135.218	49.479	0	104.80	0	6.4380	0	32.5180	0	25.539	0	103.880	0	-1e10	8	-1e10	8	-1E+10	1	-1E+10	1	-1E+10	1	-1E+10	1	-1E+10	1	-1E+10	1
4902554	47	C	05/23/2022	15:58	-135.218	49.479	0	105.80	0	6.3840	0	32.5490	0	25.570	0	104.871	0	-1e10	8	-1e10	8	-1E+10	1	-1E+10	1	-1E+10	1	-1E+10	1	-1E+10	1	-1E+10	1
4902554	47	C	05/23/2022	15:58	-135.218	49.479	0	107.10	0	6.3050	0	32.6060	0	25.625	0	106.159	0	-1e10	8	-1e10	8	-1E+10	1	-1E+10	1	-1E+10	1	-1E+10	1	-1E+10	1	-1E+10	1
4902554	47	C	05/23/2022	15:58	-135.218	49.479	0	108.00	0	6.2550	0	32.6530	0	25.668	0	107.051	0	-1e10	8	-1e10	8	-1E+10	1	-1E+10	1	-1E+10	1	-1E+10	1	-1E+10	1	-1E+10	1
4902554	47	C	05/23/2022	15:58	-135.218	49.479	0	108.90	0	6.2310	0	32.6810	0	25.693	0	107.943	0	-1e10	8	-1e10	8	-1E+10	1	-1E+10	1	-1E+10	1	-1E+10	1	-1E+10	1	-1E+10	1
4902554	47	C	05/23/2022	15:58	-135.218	49.479	0	110.00	0	6.2190	0	32.6970	0	25.707	0	109.033	0	-1e10	8	-1e10	8	-1E+10	1	-1E+10	1	-1E+10	1	-1E+10	1	-1E+10	1	-1E+10	1
4902554	47	C	05/23/2022	15:58	-135.218	49.479	0	111.00	0	6.2130	0	32.7040	0	25.714	0	110.024	0	-1e10	8	-1e10	8	-1E+10	1	-1E+10	1	-1E+10	1	-1E+10	1	-1E+10	1	-1E+10	1
4902554	47	C	05/23/2022	15:58	-135.218	49.479	0	111.80	0	6.2040	0	32.7120	0	25.721	0	110.817	0	-1e10	8	-1e10	8	-1E+10	1	-1E+10	1	-1E+10	1	-1E+10	1	-1E+10	1	-1E+10	1
4902554	47	C	05/23/2022	15:58	-135.218	49.479	0	113.10	0	6.1840	0	32.7320	0	25.739	0	112.105	0	-1e10	8	-1e10	8	-1E+10	1	-1E+10	1	-1E+10	1	-1E+10	1	-1E+10	1	-1E+10	1
4902554	47	C	05/23/2022	15:58	-135.218	49.479	0	114.10	0	6.1270	0	32.8000	0	25.800	0	113.096	0	-1e10	8	-1e10	8	-1E+10	1	-1E+10	1	-1E+10	1	-1E+10	1	-1E+10	1	-1E+10	1
4902554	47	C	05/23/2022	15:58	-135.218	49.479	0	115.10	0	6.1020	0	32.8290	0	25.826	0	114.087	0	-1e10	8	-1e10	8	-1E+10	1	-1E+10	1	-1E+10	1	-1E+10	1	-1E+10	1	-1E+10	1
4902554	47	C	05/23/2022	15:58	-135.218	49.479	0	116.10	0	6.0930	0	32.8390	0	25.835	0	115.078	0	-1e10	8	-1e10	8	-1E+10	1	-1E+10	1	-1E+10	1	-1E+10	1	-1E+10	1	-1E+10	1
4902554	47	C	05/23/2022	15:58	-135.218	49.479	0	116.90	0	6.0820	0	32.8530	0	25.848	0	115.871	0	-1e10	8	-1e10	8	-1E+10	1	-1E+10	1	-1E+10	1	-1E+10	1	-1E+10	1	-1E+10	1
4902554	47	C	05/23/2022	15:58	-135.218	49.479	0	117.80	0	6.0560	0	32.8830	0	25.874	0	116.762	0	-1e10	8	-1e10	8	-1E+10	1	-1E+10	1	-1E+10	1	-1E+10	1	-1E+10	1	-1E+10	1
4902554	47	C	05/23/2022	15:58	-135.218	49.479	0	119.00	0	6.0060	0	32.9470	0	25.931	0	117.951	0	-1e10	8	-1e10	8	-1E+10	1	-1E+10	1	-1E+10	1	-1E+10	1	-1E+10	1	-1E+10	1
4902554	47	C	05/23/2022	15:58	-135.218	49.479	0	119.90	0	5.9920	0	32.9660	0	25.948	0	118.843	0	-1e10	8	-1e10	8	-1E+10	1	-1E+10	1	-1E+10	1	-1E+10	1	-1E+10	1	-1E+10	1
4902554	47	C	05/23/2022	15:58	-135.218	49.479	0	120.80	0	5.9790	0	32.9830	0	25.963	0	119.735	0	-1e10	8	-1e10	8	-1E+10	1	-1E+10	1	-1E+10	1	-1E+10	1	-1E+10	1	-1E+10	1
4902554	47	C	05/23/2022	15:58	-135.218	49.479	0	122.10	0	5.9530	0	33.0140	0	25.991	0	121.023	0	-1e10	8	-1e10	8	-1E+10	1	-1E+10	1	-1E+10	1	-1E+10	1	-1E+10	1	-1E+10	1
4902554	47	C	05/23/2022	15:58	-135.218	49.479	0	123.10	0	5.9020	0	33.0770	0	26.047	0	122.014	0	-1e10	8	-1e10	8	-1E+10	1	-1E+10	1	-1E+10	1	-1E+10	1	-1E+10	1	-1E+10	1
4902554	47	C	05/23/2022	15:58	-135.218	49.479	0	124.10	0	5.8850	0	33.1070	0	26.072	0	123.005	0	-1e10	8	-1e10	8	-1E+10	1	-1E+10	1	-1E+10	1	-1E+10	1	-1E+10	1	-1E+10	1
4902554	47	C	05/23/2022	15:58	-135.218	49.479	0	125.20	0	5.8750	0	33.1270	0	26.090	0	124.095	0	-1e10	8	-1e10	8	-1E+10	1	-1E+10	1	-1E+10	1	-1E+10	1	-1E+10	1	-1E+10	1
4902554	47	C	05/23/2022	15:58	-135.218	49.479	0	125.90	0	5.8630	0	33.1500	0	26.109	0	124.789	0	-1e10	8	-1e10	8	-1E+10	1	-1E+10	1	-1E+10	1	-1E+10	1	-1E+10	1	-1E+10	1
4902554	47	C	05/23/2022	15:58	-135.218	49.479	0	126.70	0	5.8550	0	33.1620	0	26.120	0	125.581	0	-1e10	8	-1e10	8	-1E+10	1	-1E+10	1	-1E+10	1	-1E+10	1	-1E+10	1	-1E+10	1
4902554	47	C	05/23/2022	15:58	-135.218	49.479	0	127.90	0	5.8370	0	33.1910	0	26.145	0	126.770	0	-1e10	8	-1e10	8	-1E+10	1	-1E+10	1	-1E+10	1	-1E+10	1	-1E+10	1	-1E+10	1
4902554	47	C	05/23/2022	15:58	-135.218	49.479	0	129.10	0	5.8210	0	33.2300	0	26.178	0	127.959	0	-1e10	8	-1e10	8	-1E+10	1	-1E+10	1	-1E+10	1	-1E+10	1	-1E+10	1	-1E+10	1
4902554	47	C	05/23/2022	15:58	-135.218	49.479	0	129.90	0	5.8180	0	33.2380	0	26.184	0	128.752	0	-1e10	8	-1e10	8	-1E+10	1	-1E+10	1	-1E+10	1	-1E+10	1	-1E+10	1	-1E+10	1
4902554	47	C	05/23/2022	15:58	-135.218	49.479	0	130.70	0	5.8150	0	33.2440	0	26.189	0	129.545	0	-1e10	8	-1e10	8	-1E+10	1	-1E+10	1	-1E+10	1	-1E+10	1	-1E+10	1	-1E+10	1
4902554	47	C	05/23/2022	15:58	-135.218	49.479	0	132.00	0	5.7780	0	33.3060	0	26.243	0	130.833	0	-1e10	8	-1e10	8	-1E+10	1	-1E+10	1	-1E+10	1	-1E+10	1	-1E+10	1	-1E+10	1
4902554	47	C	05/23/2022	15:58	-135.218	49.479	0	133.30	0	5.7570	0	33.3460	0	26.277	0	132.121	0	-1e10	8	-1e10	8	-1E+10	1	-1E+10	1	-1E+10	1	-1E+10	1	-1E+10	1	-1E+10	1
4902554	47	C	05/23/2022	15:58	-135.218	49.479	0	134.10	0	5.7520	0	33.3540	0	26.284	0	132.914	0	-1e10	8	-1e10	8	-1E+10	1	-1E+10	1	-1E+10	1	-1E+10	1	-1E+10	1	-1E+10	1
4902554	47	C	05/23/2022	15:58	-135.218	49.479	0	135.00	0	5.7420	0	33.3720	0	26.299	0	133.805	0	-1e10	8	-1e10	8	-1E+10	1	-1E+10	1	-1E+10	1	-1E+10	1	-1E+10	1	-1E+10	1
4902554	47	C	05/23/2022	15:58	-135.218	49.479	0	135.90	0	5.7460	0	33.3650	0	26.293	0	134.697	0	-1e10	8	-1e10	8	-1E+10	1	-1E+10	1	-1E+10	1	-1E+10	1	-1E+10	1	-1E+10	1
4902554	47	C	05/23/2022	15:58	-135.218	49.479	0	136.90	0	5.7330	0	33.3930	0	26.317	0	135.688	0	-1e10	8	-1e10	8	-1E+10	1	-1E+10	1	-1E+10	1	-1E+10	1	-1E+10	1	-1E+10	1
4902554	47	C	05/23/2022	15:58	-135.218	49.479	0	137.90	0	5.7280	0	33.4020	0	26.325	0	136.679	0	-1e10	8	-1e10	8	-1E+10	1	-1E+10	1	-1E+10	1	-1E+10	1	-1E+10	1	-1E+10	1
4902554	47	C	05/23/2022	15:58	-135.218	49.479	0	138.80	0	5.7200	0	33.4160	0	26.337	0	137.570	0	-1e10	8	-1e10	8	-1E+10	1	-1E+10	1	-1E+10	1	-1E+10	1	-1E+10	1	-1E+10	1
4902554	47	C	05/23/2022	15:58	-135.218	49.479	0	139.80	0	5.7200	0	33.4170	0	26.338	0	138.561	0	-1e10	8	-1e10	8	-1E+10	1	-1E+10	1	-1E+10	1	-1E+10	1	-1E+10	1	-1E+10	1
4902554	47	C	05/23/2022	15:58	-135.218	49.479	0	140.80	0	5.7190	0	33.4170	0	26.338	0	139.552	0	-1e10	8	-1e10	8	-1E+10	1	-1E+10	1	-1E+10	1	-1E+10	1	-1E+10	1	-1E+10	1
4902554	47	C	05/23/2022	15:58	-135.218	49.479	0	141.70	0	5.7190	0	33.4180	0	26.339	0	140.444	0	-1e10	8	-1e10	8	-1E+10	1	-1E+10	1	-1E+10	1	-1E+10	1	-1E+10	1	-1E+10	1
4902554	47	C	05/23/2022	15:58	-135.218	49.479	0	142.60	0	5.7170	0	33.4200	0	26.340	0	141.335	0	-1e10	8	-1e10	8	-1E+10	1	-1E+10	1	-1E+10	1	-1E+10	1	-1E+10	1	-1E+10	1
4902554	47	C	05/23/2022	15:58	-135.218	49.479	0	143.50	0	5.7050	0	33.4420	0	26.359	0	142.227	0	-1e10	8	-1e10	8	-1E+10	1	-1E+10	1	-1E+10	1	-1E+10	1	-1E+10	1	-1E+10	1
4902554	47	C	05/23/2022	15:58	-135.218	49.479	0	144.90	0	5.6990	0	33.4530	0	26.369	0	143.614	0	-1e10	8	-1e10	8	-1E+10	1	-1E+10	1	-1E+10	1	-1E+10	1	-1E+10	1	-1E+10	1
4902554	47	C	05/23/2022	15:58	-135.218	49.479	0	146.30	0	5.6940	0	33.4660	0	26.380	0	145.001	0	-1e10	8	-1e10	8	-1E+10	1	-1E+10	1	-1E+10	1	-1E+10	1	-1E+10	1	-1E+10	1
4902554	47	C	05/23/2022	15:58	-135.218	49.479	0	147.20	0	5.6920	0	33.4690	0	26.382	0	145.893	0	-1e10	8	-1e10	8	-1E+10	1	-1E+10	1	-1E+10	1	-1E+10	1	-1E+10	1	-1E+10	1
4902554	47	C	05/23/2022	15:58	-135.218	49.479	0	148.10	0	5.6820	0	33.4840	0	26.395	0	146.785	0	-1e10	8	-1e10	8	-1E+10	1	-1E+10	1	-1E+10	1	-1E+10	1	-1E+10	1	-1E+10	1
4902554	47	C	05/23/2022	15:58	-135.218	49.479	0	149.00	0	5.6590	0	33.5160	0	26.423	0	147.676	0	-1e10	8	-1e10	8	-1E+10	1	-1E+10	1	-1E+10	1	-1E+10	1	-1E+10	1	-1E+10	1
4902554	47	C	05/23/2022	15:58	-135.218	49.479	0	149.90	0	5.6380	0	33.5570	0	26.458	0	148.568	0	-1e10	8	-1e10	8	-1E+10	1	-1E+10	1	-1E+10	1	-1E+10	1	-1E+10	1	-1E+10	1
4902554	47	C	05/23/2022	15:58	-135.218	49.479	0	150.80	0	5.6340	0	33.5670	0	26.467	0	149.460	0	-1e10	8	-1e10	8	-1E+10	1	-1E+10	1	-1E+10	1	-1E+10	1	-1E+10	1	-1E+10	1
4902554	47	C	05/23/2022	15:58	-135.218	49.479	0	151.80	0	5.6330	0	33.5700	0	26.469	0	150.450	0	-1e10	8	-1e10	8	-1E+10	1	-1E+10	1	-1E+10	1	-1E+10	1	-1E+10	1	-1E+10	1
4902554	47	C	05/23/2022	15:58	-135.218	49.479	0	152.80	0	5.6320	0	33.5730	0	26.472	0	151.441	0	-1e10	8	-1e10	8	-1E+10	1	-1E+10	1	-1E+10	1	-1E+10	1	-1E+10	1	-1E+10	1
4902554	47	C	05/23/2022	15:58	-135.218	49.479	0	153.70	0	5.6310	0	33.5770	0	26.475	0	152.333	0	-1e10	8	-1e10	8	-1E+10	1	-1E+10	1	-1E+10	1	-1E+10	1	-1E+10	1	-1E+10	1
4902554	47	C	05/23/2022	15:58	-135.218	49.479	0	154.70	0	5.6290	0	33.5810	0	26.479	0	153.324	0	-1e10	8	-1e10	8	-1E+10	1	-1E+10	1	-1E+10	1	-1E+10	1	-1E+10	1	-1E+10	1
4902554	47	C	05/23/2022	15:58	-135.218	49.479	0	155.70	0	5.6240	0	33.5890	0	26.485	0	154.314	0	-1e10	8	-1e10	8	-1E+10	1	-1E+10	1	-1E+10	1	-1E+10	1	-1E+10	1	-1E+10	1
4902554	47	C	05/23/2022	15:58	-135.218	49.479	0	156.60	0	5.6220	0	33.5920	0	26.488	0	155.206	0	-1e10	8	-1e10	8	-1E+10	1	-1E+10	1	-1E+10	1	-1E+10	1	-1E+10	1	-1E+10	1
4902554	47	C	05/23/2022	15:58	-135.218	49.479	0	157.60	0	5.6190	0	33.5970	0	26.492	0	156.197	0	-1e10	8	-1e10	8	-1E+10	1	-1E+10	1	-1E+10	1	-1E+10	1	-1E+10	1	-1E+10	1
4902554	47	C	05/23/2022	15:58	-135.218	49.479	0	158.60	0	5.6100	0	33.6070	0	26.501	0	157.187	0	-1e10	8	-1e10	8	-1E+10	1	-1E+10	1	-1E+10	1	-1E+10	1	-1E+10	1	-1E+10	1
4902554	47	C	05/23/2022	15:58	-135.218	49.479	0	159.60	0	5.6020	0	33.6150	0	26.509	0	158.178	0	-1e10	8	-1e10	8	-1E+10	1	-1E+10	1	-1E+10	1	-1E+10	1	-1E+10	1	-1E+10	1
4902554	47	C	05/23/2022	15:58	-135.218	49.479	0	160.60	0	5.5910	0	33.6300	0	26.522	0	159.169	0	-1e10	8	-1e10	8	-1E+10	1	-1E+10	1	-1E+10	1	-1E+10	1	-1E+10	1	-1E+10	1
4902554	47	C	05/23/2022	15:58	-135.218	49.479	0	161.60	0	5.5750	0	33.6400	0	26.532	0	160.160	0	-1e10	8	-1e10	8	-1E+10	1	-1E+10	1	-1E+10	1	-1E+10	1	-1E+10	1	-1E+10	1
4902554	47	C	05/23/2022	15:58	-135.218	49.479	0	162.60	0	5.5570	0	33.6530	0	26.544	0	161.150	0	-1e10	8	-1e10	8	-1E+10	1	-1E+10	1	-1E+10	1	-1E+10	1	-1E+10	1	-1E+10	1
4902554	47	C	05/23/2022	15:58	-135.218	49.479	0	163.60	0	5.5520	0	33.6570	0	26.548	0	162.141	0	-1e10	8	-1e10	8	-1E+10	1	-1E+10	1	-1E+10	1	-1E+10	1	-1E+10	1	-1E+10	1
4902554	47	C	05/23/2022	15:58	-135.218	49.479	0	164.70	0	5.5510	0	33.6580	0	26.549	0	163.231	0	-1e10	8	-1e10	8	-1E+10	1	-1E+10	1	-1E+10	1	-1E+10	1	-1E+10	1	-1E+10	1
4902554	47	C	05/23/2022	15:58	-135.218	49.479	0	165.60	0	5.5510	0	33.6680	0	26.557	0	164.122	0	-1e10	8	-1e10	8	-1E+10	1	-1E+10	1	-1E+10	1	-1E+10	1	-1E+10	1	-1E+10	1
4902554	47	C	05/23/2022	15:58	-135.218	49.479	0	166.70	0	5.5400	0	33.6730	0	26.562	0	165.212	0	-1e10	8	-1e10	8	-1E+10	1	-1E+10	1	-1E+10	1	-1E+10	1	-1E+10	1	-1E+10	1
4902554	47	C	05/23/2022	15:58	-135.218	49.479	0	167.60	0	5.5290	0	33.6740	0	26.564	0	166.104	0	-1e10	8	-1e10	8	-1E+10	1	-1E+10	1	-1E+10	1	-1E+10	1	-1E+10	1	-1E+10	1
4902554	47	C	05/23/2022	15:58	-135.218	49.479	0	168.70	0	5.5200	0	33.6770	0	26.568	0	167.193	0	-1e10	8	-1e10	8	-1E+10	1	-1E+10	1	-1E+10	1	-1E+10	1	-1E+10	1	-1E+10	1
4902554	47	C	05/23/2022	15:58	-135.218	49.479	0	169.70	0	5.5130	0	33.6770	0	26.568	0	168.184	0	-1e10	8	-1e10	8	-1E+10	1	-1E+10	1	-1E+10	1	-1E+10	1	-1E+10	1	-1E+10	1
4902554	47	C	05/23/2022	15:58	-135.218	49.479	0	170.70	0	5.5050	0	33.6800	0	26.572	0	169.175	0	-1e10	8	-1e10	8	-1E+10	1	-1E+10	1	-1E+10	1	-1E+10	1	-1E+10	1	-1E+10	1
4902554	47	C	05/23/2022	15:58	-135.218	49.479	0	171.70	0	5.4900	0	33.6820	0	26.575	0	170.165	0	-1e10	8	-1e10	8	-1E+10	1	-1E+10	1	-1E+10	1	-1E+10	1	-1E+10	1	-1E+10	1
4902554	47	C	05/23/2022	15:58	-135.218	49.479	0	172.60	0	5.4780	0	33.6850	0	26.579	0	171.057	0	-1e10	8	-1e10	8	-1E+10	1	-1E+10	1	-1E+10	1	-1E+10	1	-1E+10	1	-1E+10	1
4902554	47	C	05/23/2022	15:58	-135.218	49.479	0	173.60	0	5.4540	0	33.6980	0	26.592	0	172.048	0	-1e10	8	-1e10	8	-1E+10	1	-1E+10	1	-1E+10	1	-1E+10	1	-1E+10	1	-1E+10	1
4902554	47	C	05/23/2022	15:58	-135.218	49.479	0	174.60	0	5.4460	0	33.6940	0	26.590	0	173.038	0	-1e10	8	-1e10	8	-1E+10	1	-1E+10	1	-1E+10	1	-1E+10	1	-1E+10	1	-1E+10	1
4902554	47	C	05/23/2022	15:58	-135.218	49.479	0	175.50	0	5.4370	0	33.6960	0	26.593	0	173.930	0	-1e10	8	-1e10	8	-1E+10	1	-1E+10	1	-1E+10	1	-1E+10	1	-1E+10	1	-1E+10	1
4902554	47	C	05/23/2022	15:58	-135.218	49.479	0	176.50	0	5.4200	0	33.7090	0	26.605	0	174.920	0	-1e10	8	-1e10	8	-1E+10	1	-1E+10	1	-1E+10	1	-1E+10	1	-1E+10	1	-1E+10	1
4902554	47	C	05/23/2022	15:58	-135.218	49.479	0	177.50	0	5.4120	0	33.7050	0	26.603	0	175.911	0	-1e10	8	-1e10	8	-1E+10	1	-1E+10	1	-1E+10	1	-1E+10	1	-1E+10	1	-1E+10	1
4902554	47	C	05/23/2022	15:58	-135.218	49.479	0	178.50	0	5.4100	0	33.7050	0	26.603	0	176.902	0	-1e10	8	-1e10	8	-1E+10	1	-1E+10	1	-1E+10	1	-1E+10	1	-1E+10	1	-1E+10	1
4902554	47	C	05/23/2022	15:58	-135.218	49.479	0	179.50	0	5.4080	0	33.7060	0	26.604	0	177.892	0	-1e10	8	-1e10	8	-1E+10	1	-1E+10	1	-1E+10	1	-1E+10	1	-1E+10	1	-1E+10	1
4902554	47	C	05/23/2022	15:58	-135.218	49.479	0	180.50	0	5.4040	0	33.7070	0	26.605	0	178.883	0	-1e10	8	-1e10	8	-1E+10	1	-1E+10	1	-1E+10	1	-1E+10	1	-1E+10	1	-1E+10	1
4902554	47	C	05/23/2022	15:58	-135.218	49.479	0	181.50	0	5.4000	0	33.7070	0	26.606	0	179.874	0	-1e10	8	-1e10	8	-1E+10	1	-1E+10	1	-1E+10	1	-1E+10	1	-1E+10	1	-1E+10	1
4902554	47	C	05/23/2022	15:58	-135.218	49.479	0	182.50	0	5.3640	0	33.7190	0	26.619	0	180.864	0	-1e10	8	-1e10	8	-1E+10	1	-1E+10	1	-1E+10	1	-1E+10	1	-1E+10	1	-1E+10	1
4902554	47	C	05/23/2022	15:58	-135.218	49.479	0	183.50	0	5.3020	0	33.7280	0	26.634	0	181.855	0	-1e10	8	-1e10	8	-1E+10	1	-1E+10	1	-1E+10	1	-1E+10	1	-1E+10	1	-1E+10	1
4902554	47	C	05/23/2022	15:58	-135.218	49.479	0	184.90	0	5.2850	0	33.7300	0	26.637	0	183.242	0	-1e10	8	-1e10	8	-1E+10	1	-1E+10	1	-1E+10	1	-1E+10	1	-1E+10	1	-1E+10	1
4902554	47	C	05/23/2022	15:58	-135.218	49.479	0	186.10	0	5.2590	0	33.7360	0	26.645	0	184.430	0	-1e10	8	-1e10	8	-1E+10	1	-1E+10	1	-1E+10	1	-1E+10	1	-1E+10	1	-1E+10	1
4902554	47	C	05/23/2022	15:58	-135.218	49.479	0	186.90	0	5.2560	0	33.7350	0	26.645	0	185.223	0	-1e10	8	-1e10	8	-1E+10	1	-1E+10	1	-1E+10	1	-1E+10	1	-1E+10	1	-1E+10	1
4902554	47	C	05/23/2022	15:58	-135.218	49.479	0	187.70	0	5.2490	0	33.7350	0	26.646	0	186.015	0	-1e10	8	-1e10	8	-1E+10	1	-1E+10	1	-1E+10	1	-1E+10	1	-1E+10	1	-1E+10	1
4902554	47	C	05/23/2022	15:58	-135.218	49.479	0	189.00	0	5.2310	0	33.7380	0	26.650	0	187.303	0	-1e10	8	-1e10	8	-1E+10	1	-1E+10	1	-1E+10	1	-1E+10	1	-1E+10	1	-1E+10	1
4902554	47	C	05/23/2022	15:58	-135.218	49.479	0	190.20	0	5.2100	0	33.7410	0	26.655	0	188.492	0	-1e10	8	-1e10	8	-1E+10	1	-1E+10	1	-1E+10	1	-1E+10	1	-1E+10	1	-1E+10	1
4902554	47	C	05/23/2022	15:58	-135.218	49.479	0	191.00	0	5.2090	0	33.7410	0	26.655	0	189.284	0	-1e10	8	-1e10	8	-1E+10	1	-1E+10	1	-1E+10	1	-1E+10	1	-1E+10	1	-1E+10	1
4902554	47	C	05/23/2022	15:58	-135.218	49.479	0	191.90	0	5.2060	0	33.7410	0	26.655	0	190.176	0	-1e10	8	-1e10	8	-1E+10	1	-1E+10	1	-1E+10	1	-1E+10	1	-1E+10	1	-1E+10	1
4902554	47	C	05/23/2022	15:58	-135.218	49.479	0	192.70	0	5.2020	0	33.7420	0	26.657	0	190.968	0	-1e10	8	-1e10	8	-1E+10	1	-1E+10	1	-1E+10	1	-1E+10	1	-1E+10	1	-1E+10	1
4902554	47	C	05/23/2022	15:58	-135.218	49.479	0	193.90	0	5.1960	0	33.7430	0	26.658	0	192.157	0	-1e10	8	-1e10	8	-1E+10	1	-1E+10	1	-1E+10	1	-1E+10	1	-1E+10	1	-1E+10	1
4902554	47	C	05/23/2022	15:58	-135.218	49.479	0	195.20	0	5.1890	0	33.7420	0	26.658	0	193.444	0	-1e10	8	-1e10	8	-1E+10	1	-1E+10	1	-1E+10	1	-1E+10	1	-1E+10	1	-1E+10	1
4902554	47	C	05/23/2022	15:58	-135.218	49.479	0	196.10	0	5.1730	0	33.7430	0	26.661	0	194.336	0	-1e10	8	-1e10	8	-1E+10	1	-1E+10	1	-1E+10	1	-1E+10	1	-1E+10	1	-1E+10	1
4902554	47	C	05/23/2022	15:58	-135.218	49.479	0	197.00	0	5.1700	0	33.7440	0	26.662	0	195.227	0	-1e10	8	-1e10	8	-1E+10	1	-1E+10	1	-1E+10	1	-1E+10	1	-1E+10	1	-1E+10	1
4902554	47	C	05/23/2022	15:58	-135.218	49.479	0	197.90	0	5.1660	0	33.7440	0	26.662	0	196.119	0	-1e10	8	-1e10	8	-1E+10	1	-1E+10	1	-1E+10	1	-1E+10	1	-1E+10	1	-1E+10	1
4902554	47	C	05/23/2022	15:58	-135.218	49.479	0	198.70	0	5.1510	0	33.7460	0	26.666	0	196.911	0	-1e10	8	-1e10	8	-1E+10	1	-1E+10	1	-1E+10	1	-1E+10	1	-1E+10	1	-1E+10	1
4902554	47	C	05/23/2022	15:58	-135.218	49.479	0	199.60	0	5.1500	0	33.7460	0	26.666	0	197.803	0	-1e10	8	-1e10	8	-1E+10	1	-1E+10	1	-1E+10	1	-1E+10	1	-1E+10	1	-1E+10	1
4902554	47	C	05/23/2022	15:58	-135.218	49.479	0	200.90	0	5.1390	0	33.7470	0	26.668	0	199.090	0	-1e10	8	-1e10	8	-1E+10	1	-1E+10	1	-1E+10	1	-1E+10	1	-1E+10	1	-1E+10	1
4902554	47	C	05/23/2022	15:58	-135.218	49.479	0	202.20	0	5.1350	0	33.7480	0	26.669	0	200.378	0	-1e10	8	-1e10	8	-1E+10	1	-1E+10	1	-1E+10	1	-1E+10	1	-1E+10	1	-1E+10	1
4902554	47	C	05/23/2022	15:58	-135.218	49.479	0	203.10	0	5.1300	0	33.7490	0	26.671	0	201.269	0	-1e10	8	-1e10	8	-1E+10	1	-1E+10	1	-1E+10	1	-1E+10	1	-1E+10	1	-1E+10	1
4902554	47	C	05/23/2022	15:58	-135.218	49.479	0	204.00	0	5.1290	0	33.7490	0	26.671	0	202.161	0	-1e10	8	-1e10	8	-1E+10	1	-1E+10	1	-1E+10	1	-1E+10	1	-1E+10	1	-1E+10	1
4902554	47	C	05/23/2022	15:58	-135.218	49.479	0	204.90	0	5.1270	0	33.7490	0	26.671	0	203.052	0	-1e10	8	-1e10	8	-1E+10	1	-1E+10	1	-1E+10	1	-1E+10	1	-1E+10	1	-1E+10	1
4902554	47	C	05/23/2022	15:58	-135.218	49.479	0	205.80	0	5.1260	0	33.7490	0	26.671	0	203.944	0	-1e10	8	-1e10	8	-1E+10	1	-1E+10	1	-1E+10	1	-1E+10	1	-1E+10	1	-1E+10	1
4902554	47	C	05/23/2022	15:58	-135.218	49.479	0	206.60	0	5.1260	0	33.7490	0	26.671	0	204.736	0	-1e10	8	-1e10	8	-1E+10	1	-1E+10	1	-1E+10	1	-1E+10	1	-1E+10	1	-1E+10	1
4902554	47	C	05/23/2022	15:58	-135.218	49.479	0	207.90	0	5.1240	0	33.7490	0	26.671	0	206.024	0	-1e10	8	-1e10	8	-1E+10	1	-1E+10	1	-1E+10	1	-1E+10	1	-1E+10	1	-1E+10	1
4902554	47	C	05/23/2022	15:58	-135.218	49.479	0	209.20	0	5.1150	0	33.7500	0	26.673	0	207.311	0	-1e10	8	-1e10	8	-1E+10	1	-1E+10	1	-1E+10	1	-1E+10	1	-1E+10	1	-1E+10	1
4902554	47	C	05/23/2022	15:58	-135.218	49.479	0	210.00	0	5.1000	0	33.7520	0	26.676	0	208.104	0	-1e10	8	-1e10	8	-1E+10	1	-1E+10	1	-1E+10	1	-1E+10	1	-1E+10	1	-1E+10	1
4902554	47	C	05/23/2022	15:58	-135.218	49.479	0	210.80	0	5.0830	0	33.7570	0	26.682	0	208.896	0	-1e10	8	-1e10	8	-1E+10	1	-1E+10	1	-1E+10	1	-1E+10	1	-1E+10	1	-1E+10	1
4902554	47	C	05/23/2022	15:58	-135.218	49.479	0	211.70	0	5.0600	0	33.7610	0	26.688	0	209.788	0	-1e10	8	-1e10	8	-1E+10	1	-1E+10	1	-1E+10	1	-1E+10	1	-1E+10	1	-1E+10	1
4902554	47	C	05/23/2022	15:58	-135.218	49.479	0	213.00	0	5.0460	0	33.7610	0	26.690	0	211.075	0	-1e10	8	-1e10	8	-1E+10	1	-1E+10	1	-1E+10	1	-1E+10	1	-1E+10	1	-1E+10	1
4902554	47	C	05/23/2022	15:58	-135.218	49.479	0	214.30	0	5.0260	0	33.7650	0	26.695	0	212.363	0	-1e10	8	-1e10	8	-1E+10	1	-1E+10	1	-1E+10	1	-1E+10	1	-1E+10	1	-1E+10	1
4902554	47	C	05/23/2022	15:58	-135.218	49.479	0	215.20	0	5.0200	0	33.7650	0	26.696	0	213.254	0	-1e10	8	-1e10	8	-1E+10	1	-1E+10	1	-1E+10	1	-1E+10	1	-1E+10	1	-1E+10	1
4902554	47	C	05/23/2022	15:58	-135.218	49.479	0	216.00	0	5.0060	0	33.7670	0	26.699	0	214.046	0	-1e10	8	-1e10	8	-1E+10	1	-1E+10	1	-1E+10	1	-1E+10	1	-1E+10	1	-1E+10	1
4902554	47	C	05/23/2022	15:58	-135.218	49.479	0	216.90	0	4.9970	0	33.7680	0	26.701	0	214.938	0	-1e10	8	-1e10	8	-1E+10	1	-1E+10	1	-1E+10	1	-1E+10	1	-1E+10	1	-1E+10	1
4902554	47	C	05/23/2022	15:58	-135.218	49.479	0	217.80	0	4.9940	0	33.7690	0	26.702	0	215.829	0	-1e10	8	-1e10	8	-1E+10	1	-1E+10	1	-1E+10	1	-1E+10	1	-1E+10	1	-1E+10	1
4902554	47	C	05/23/2022	15:58	-135.218	49.479	0	218.70	0	4.9870	0	33.7700	0	26.704	0	216.721	0	-1e10	8	-1e10	8	-1E+10	1	-1E+10	1	-1E+10	1	-1E+10	1	-1E+10	1	-1E+10	1
4902554	47	C	05/23/2022	15:58	-135.218	49.479	0	219.60	0	4.9830	0	33.7710	0	26.705	0	217.612	0	-1e10	8	-1e10	8	-1E+10	1	-1E+10	1	-1E+10	1	-1E+10	1	-1E+10	1	-1E+10	1
4902554	47	C	05/23/2022	15:58	-135.218	49.479	0	220.50	0	4.9770	0	33.7710	0	26.706	0	218.503	0	-1e10	8	-1e10	8	-1E+10	1	-1E+10	1	-1E+10	1	-1E+10	1	-1E+10	1	-1E+10	1
4902554	47	C	05/23/2022	15:58	-135.218	49.479	0	221.90	0	4.9450	0	33.7740	0	26.712	0	219.890	0	-1e10	8	-1e10	8	-1E+10	1	-1E+10	1	-1E+10	1	-1E+10	1	-1E+10	1	-1E+10	1
4902554	47	C	05/23/2022	15:58	-135.218	49.479	0	223.30	0	4.9310	0	33.7750	0	26.714	0	221.277	0	-1e10	8	-1e10	8	-1E+10	1	-1E+10	1	-1E+10	1	-1E+10	1	-1E+10	1	-1E+10	1
4902554	47	C	05/23/2022	15:58	-135.218	49.479	0	224.20	0	4.9250	0	33.7750	0	26.715	0	222.168	0	-1e10	8	-1e10	8	-1E+10	1	-1E+10	1	-1E+10	1	-1E+10	1	-1E+10	1	-1E+10	1
4902554	47	C	05/23/2022	15:58	-135.218	49.479	0	225.20	0	4.9230	0	33.7760	0	26.716	0	223.158	0	-1e10	8	-1e10	8	-1E+10	1	-1E+10	1	-1E+10	1	-1E+10	1	-1E+10	1	-1E+10	1
4902554	47	C	05/23/2022	15:58	-135.218	49.479	0	226.10	0	4.9200	0	33.7750	0	26.715	0	224.050	0	-1e10	8	-1e10	8	-1E+10	1	-1E+10	1	-1E+10	1	-1E+10	1	-1E+10	1	-1E+10	1
4902554	47	C	05/23/2022	15:58	-135.218	49.479	0	227.00	0	4.9090	0	33.7770	0	26.718	0	224.941	0	-1e10	8	-1e10	8	-1E+10	1	-1E+10	1	-1E+10	1	-1E+10	1	-1E+10	1	-1E+10	1
4902554	47	C	05/23/2022	15:58	-135.218	49.479	0	227.90	0	4.8870	0	33.7830	0	26.725	0	225.832	0	-1e10	8	-1e10	8	-1E+10	1	-1E+10	1	-1E+10	1	-1E+10	1	-1E+10	1	-1E+10	1
4902554	47	C	05/23/2022	15:58	-135.218	49.479	0	228.80	0	4.8780	0	33.7790	0	26.723	0	226.724	0	-1e10	8	-1e10	8	-1E+10	1	-1E+10	1	-1E+10	1	-1E+10	1	-1E+10	1	-1E+10	1
4902554	47	C	05/23/2022	15:58	-135.218	49.479	0	229.80	0	4.8680	0	33.7810	0	26.726	0	227.714	0	-1e10	8	-1e10	8	-1E+10	1	-1E+10	1	-1E+10	1	-1E+10	1	-1E+10	1	-1E+10	1
4902554	47	C	05/23/2022	15:58	-135.218	49.479	0	230.70	0	4.8440	0	33.7790	0	26.727	0	228.605	0	-1e10	8	-1e10	8	-1E+10	1	-1E+10	1	-1E+10	1	-1E+10	1	-1E+10	1	-1E+10	1
4902554	47	C	05/23/2022	15:58	-135.218	49.479	0	231.60	0	4.8330	0	33.7830	0	26.731	0	229.497	0	-1e10	8	-1e10	8	-1E+10	1	-1E+10	1	-1E+10	1	-1E+10	1	-1E+10	1	-1E+10	1
4902554	47	C	05/23/2022	15:58	-135.218	49.479	0	232.60	0	4.8270	0	33.7840	0	26.733	0	230.487	0	-1e10	8	-1e10	8	-1E+10	1	-1E+10	1	-1E+10	1	-1E+10	1	-1E+10	1	-1E+10	1
4902554	47	C	05/23/2022	15:58	-135.218	49.479	0	233.50	0	4.8180	0	33.7860	0	26.735	0	231.378	0	-1e10	8	-1e10	8	-1E+10	1	-1E+10	1	-1E+10	1	-1E+10	1	-1E+10	1	-1E+10	1
4902554	47	C	05/23/2022	15:58	-135.218	49.479	0	234.90	0	4.8060	0	33.7860	0	26.737	0	232.765	0	-1e10	8	-1e10	8	-1E+10	1	-1E+10	1	-1E+10	1	-1E+10	1	-1E+10	1	-1E+10	1
4902554	47	C	05/23/2022	15:58	-135.218	49.479	0	236.40	0	4.7890	0	33.7880	0	26.740	0	234.250	0	-1e10	8	-1e10	8	-1E+10	1	-1E+10	1	-1E+10	1	-1E+10	1	-1E+10	1	-1E+10	1
4902554	47	C	05/23/2022	15:58	-135.218	49.479	0	237.30	0	4.7880	0	33.7890	0	26.741	0	235.142	0	-1e10	8	-1e10	8	-1E+10	1	-1E+10	1	-1E+10	1	-1E+10	1	-1E+10	1	-1E+10	1
4902554	47	C	05/23/2022	15:58	-135.218	49.479	0	238.30	0	4.7740	0	33.7900	0	26.743	0	236.132	0	-1e10	8	-1e10	8	-1E+10	1	-1E+10	1	-1E+10	1	-1E+10	1	-1E+10	1	-1E+10	1
4902554	47	C	05/23/2022	15:58	-135.218	49.479	0	239.20	0	4.7560	0	33.7930	0	26.748	0	237.023	0	-1e10	8	-1e10	8	-1E+10	1	-1E+10	1	-1E+10	1	-1E+10	1	-1E+10	1	-1E+10	1
4902554	47	C	05/23/2022	15:58	-135.218	49.479	0	240.20	0	4.7460	0	33.7940	0	26.750	0	238.014	0	-1e10	8	-1e10	8	-1E+10	1	-1E+10	1	-1E+10	1	-1E+10	1	-1E+10	1	-1E+10	1
4902554	47	C	05/23/2022	15:58	-135.218	49.479	0	241.10	0	4.7380	0	33.7950	0	26.751	0	238.905	0	-1e10	8	-1e10	8	-1E+10	1	-1E+10	1	-1E+10	1	-1E+10	1	-1E+10	1	-1E+10	1
4902554	47	C	05/23/2022	15:58	-135.218	49.479	0	242.10	0	4.7320	0	33.7960	0	26.753	0	239.895	0	-1e10	8	-1e10	8	-1E+10	1	-1E+10	1	-1E+10	1	-1E+10	1	-1E+10	1	-1E+10	1
4902554	47	C	05/23/2022	15:58	-135.218	49.479	0	243.10	0	4.7290	0	33.7960	0	26.753	0	240.886	0	-1e10	8	-1e10	8	-1E+10	1	-1E+10	1	-1E+10	1	-1E+10	1	-1E+10	1	-1E+10	1
4902554	47	C	05/23/2022	15:58	-135.218	49.479	0	244.10	0	4.7250	0	33.7970	0	26.754	0	241.876	0	-1e10	8	-1e10	8	-1E+10	1	-1E+10	1	-1E+10	1	-1E+10	1	-1E+10	1	-1E+10	1
4902554	47	C	05/23/2022	15:58	-135.218	49.479	0	245.00	0	4.7200	0	33.7980	0	26.756	0	242.767	0	-1e10	8	-1e10	8	-1E+10	1	-1E+10	1	-1E+10	1	-1E+10	1	-1E+10	1	-1E+10	1
4902554	47	C	05/23/2022	15:58	-135.218	49.479	0	246.00	0	4.7190	0	33.7990	0	26.757	0	243.757	0	-1e10	8	-1e10	8	-1E+10	1	-1E+10	1	-1E+10	1	-1E+10	1	-1E+10	1	-1E+10	1
4902554	47	C	05/23/2022	15:58	-135.218	49.479	0	247.00	0	4.7180	0	33.7990	0	26.757	0	244.748	0	-1e10	8	-1e10	8	-1E+10	1	-1E+10	1	-1E+10	1	-1E+10	1	-1E+10	1	-1E+10	1
4902554	47	C	05/23/2022	15:58	-135.218	49.479	0	247.90	0	4.7130	0	33.8010	0	26.759	0	245.639	0	-1e10	8	-1e10	8	-1E+10	1	-1E+10	1	-1E+10	1	-1E+10	1	-1E+10	1	-1E+10	1
4902554	47	C	05/23/2022	15:58	-135.218	49.479	0	248.90	0	4.7120	0	33.8020	0	26.760	0	246.629	0	-1e10	8	-1e10	8	-1E+10	1	-1E+10	1	-1E+10	1	-1E+10	1	-1E+10	1	-1E+10	1
4902554	47	C	05/23/2022	15:58	-135.218	49.479	0	249.90	0	4.7120	0	33.8020	0	26.760	0	247.620	0	-1e10	8	-1e10	8	-1E+10	1	-1E+10	1	-1E+10	1	-1E+10	1	-1E+10	1	-1E+10	1
4902554	47	C	05/23/2022	15:58	-135.218	49.479	0	250.80	0	4.7110	0	33.8020	0	26.760	0	248.511	0	-1e10	8	-1e10	8	-1E+10	1	-1E+10	1	-1E+10	1	-1E+10	1	-1E+10	1	-1E+10	1
4902554	47	C	05/23/2022	15:58	-135.218	49.479	0	251.80	0	4.7070	0	33.8030	0	26.761	0	249.501	0	-1e10	8	-1e10	8	-1E+10	1	-1E+10	1	-1E+10	1	-1E+10	1	-1E+10	1	-1E+10	1
4902554	47	C	05/23/2022	15:58	-135.218	49.479	0	252.70	0	4.7040	0	33.8040	0	26.762	0	250.392	0	-1e10	8	-1e10	8	-1E+10	1	-1E+10	1	-1E+10	1	-1E+10	1	-1E+10	1	-1E+10	1
4902554	47	C	05/23/2022	15:58	-135.218	49.479	0	253.70	0	4.7010	0	33.8060	0	26.764	0	251.383	0	-1e10	8	-1e10	8	-1E+10	1	-1E+10	1	-1E+10	1	-1E+10	1	-1E+10	1	-1E+10	1
4902554	47	C	05/23/2022	15:58	-135.218	49.479	0	254.70	0	4.6980	0	33.8060	0	26.765	0	252.373	0	-1e10	8	-1e10	8	-1E+10	1	-1E+10	1	-1E+10	1	-1E+10	1	-1E+10	1	-1E+10	1
4902554	47	C	05/23/2022	15:58	-135.218	49.479	0	255.60	0	4.6940	0	33.8070	0	26.766	0	253.264	0	-1e10	8	-1e10	8	-1E+10	1	-1E+10	1	-1E+10	1	-1E+10	1	-1E+10	1	-1E+10	1
4902554	47	C	05/23/2022	15:58	-135.218	49.479	0	256.60	0	4.6910	0	33.8090	0	26.768	0	254.254	0	-1e10	8	-1e10	8	-1E+10	1	-1E+10	1	-1E+10	1	-1E+10	1	-1E+10	1	-1E+10	1
4902554	47	C	05/23/2022	15:58	-135.218	49.479	0	257.60	0	4.6890	0	33.8090	0	26.768	0	255.245	0	-1e10	8	-1e10	8	-1E+10	1	-1E+10	1	-1E+10	1	-1E+10	1	-1E+10	1	-1E+10	1
4902554	47	C	05/23/2022	15:58	-135.218	49.479	0	258.60	0	4.6880	0	33.8090	0	26.768	0	256.235	0	-1e10	8	-1e10	8	-1E+10	1	-1E+10	1	-1E+10	1	-1E+10	1	-1E+10	1	-1E+10	1
4902554	47	C	05/23/2022	15:58	-135.218	49.479	0	259.50	0	4.6850	0	33.8100	0	26.769	0	257.126	0	-1e10	8	-1e10	8	-1E+10	1	-1E+10	1	-1E+10	1	-1E+10	1	-1E+10	1	-1E+10	1
4902554	47	C	05/23/2022	15:58	-135.218	49.479	0	260.50	0	4.6820	0	33.8120	0	26.771	0	258.116	0	-1e10	8	-1e10	8	-1E+10	1	-1E+10	1	-1E+10	1	-1E+10	1	-1E+10	1	-1E+10	1
4902554	47	C	05/23/2022	15:58	-135.218	49.479	0	261.50	0	4.6790	0	33.8120	0	26.772	0	259.106	0	-1e10	8	-1e10	8	-1E+10	1	-1E+10	1	-1E+10	1	-1E+10	1	-1E+10	1	-1E+10	1
4902554	47	C	05/23/2022	15:58	-135.218	49.479	0	262.90	0	4.6760	0	33.8140	0	26.773	0	260.493	0	-1e10	8	-1e10	8	-1E+10	1	-1E+10	1	-1E+10	1	-1E+10	1	-1E+10	1	-1E+10	1
4902554	47	C	05/23/2022	15:58	-135.218	49.479	0	264.40	0	4.6740	0	33.8150	0	26.774	0	261.978	0	-1e10	8	-1e10	8	-1E+10	1	-1E+10	1	-1E+10	1	-1E+10	1	-1E+10	1	-1E+10	1
4902554	47	C	05/23/2022	15:58	-135.218	49.479	0	265.40	0	4.6690	0	33.8170	0	26.777	0	262.968	0	-1e10	8	-1e10	8	-1E+10	1	-1E+10	1	-1E+10	1	-1E+10	1	-1E+10	1	-1E+10	1
4902554	47	C	05/23/2022	15:58	-135.218	49.479	0	266.30	0	4.6690	0	33.8170	0	26.777	0	263.859	0	-1e10	8	-1e10	8	-1E+10	1	-1E+10	1	-1E+10	1	-1E+10	1	-1E+10	1	-1E+10	1
4902554	47	C	05/23/2022	15:58	-135.218	49.479	0	267.30	0	4.6680	0	33.8180	0	26.778	0	264.850	0	-1e10	8	-1e10	8	-1E+10	1	-1E+10	1	-1E+10	1	-1E+10	1	-1E+10	1	-1E+10	1
4902554	47	C	05/23/2022	15:58	-135.218	49.479	0	268.30	0	4.6610	0	33.8210	0	26.781	0	265.840	0	-1e10	8	-1e10	8	-1E+10	1	-1E+10	1	-1E+10	1	-1E+10	1	-1E+10	1	-1E+10	1
4902554	47	C	05/23/2022	15:58	-135.218	49.479	0	269.30	0	4.6530	0	33.8220	0	26.782	0	266.830	0	-1e10	8	-1e10	8	-1E+10	1	-1E+10	1	-1E+10	1	-1E+10	1	-1E+10	1	-1E+10	1
4902554	47	C	05/23/2022	15:58	-135.218	49.479	0	270.30	0	4.6450	0	33.8240	0	26.785	0	267.820	0	-1e10	8	-1e10	8	-1E+10	1	-1E+10	1	-1E+10	1	-1E+10	1	-1E+10	1	-1E+10	1
4902554	47	C	05/23/2022	15:58	-135.218	49.479	0	271.20	0	4.6440	0	33.8250	0	26.786	0	268.711	0	-1e10	8	-1e10	8	-1E+10	1	-1E+10	1	-1E+10	1	-1E+10	1	-1E+10	1	-1E+10	1
4902554	47	C	05/23/2022	15:58	-135.218	49.479	0	272.20	0	4.6420	0	33.8260	0	26.787	0	269.702	0	-1e10	8	-1e10	8	-1E+10	1	-1E+10	1	-1E+10	1	-1E+10	1	-1E+10	1	-1E+10	1
4902554	47	C	05/23/2022	15:58	-135.218	49.479	0	273.20	0	4.6410	0	33.8260	0	26.787	0	270.692	0	-1e10	8	-1e10	8	-1E+10	1	-1E+10	1	-1E+10	1	-1E+10	1	-1E+10	1	-1E+10	1
4902554	47	C	05/23/2022	15:58	-135.218	49.479	0	274.20	0	4.6410	0	33.8260	0	26.787	0	271.682	0	-1e10	8	-1e10	8	-1E+10	1	-1E+10	1	-1E+10	1	-1E+10	1	-1E+10	1	-1E+10	1
4902554	47	C	05/23/2022	15:58	-135.218	49.479	0	275.20	0	4.6410	0	33.8260	0	26.787	0	272.672	0	-1e10	8	-1e10	8	-1E+10	1	-1E+10	1	-1E+10	1	-1E+10	1	-1E+10	1	-1E+10	1
4902554	47	C	05/23/2022	15:58	-135.218	49.479	0	276.10	0	4.6350	0	33.8260	0	26.788	0	273.563	0	-1e10	8	-1e10	8	-1E+10	1	-1E+10	1	-1E+10	1	-1E+10	1	-1E+10	1	-1E+10	1
4902554	47	C	05/23/2022	15:58	-135.218	49.479	0	277.10	0	4.6300	0	33.8280	0	26.790	0	274.553	0	-1e10	8	-1e10	8	-1E+10	1	-1E+10	1	-1E+10	1	-1E+10	1	-1E+10	1	-1E+10	1
4902554	47	C	05/23/2022	15:58	-135.218	49.479	0	278.10	0	4.6240	0	33.8300	0	26.792	0	275.544	0	-1e10	8	-1e10	8	-1E+10	1	-1E+10	1	-1E+10	1	-1E+10	1	-1E+10	1	-1E+10	1
4902554	47	C	05/23/2022	15:58	-135.218	49.479	0	279.00	0	4.6150	0	33.8320	0	26.795	0	276.435	0	-1e10	8	-1e10	8	-1E+10	1	-1E+10	1	-1E+10	1	-1E+10	1	-1E+10	1	-1E+10	1
4902554	47	C	05/23/2022	15:58	-135.218	49.479	0	280.00	0	4.6010	0	33.8350	0	26.798	0	277.425	0	-1e10	8	-1e10	8	-1E+10	1	-1E+10	1	-1E+10	1	-1E+10	1	-1E+10	1	-1E+10	1
4902554	47	C	05/23/2022	15:58	-135.218	49.479	0	281.00	0	4.6000	0	33.8350	0	26.799	0	278.415	0	-1e10	8	-1e10	8	-1E+10	1	-1E+10	1	-1E+10	1	-1E+10	1	-1E+10	1	-1E+10	1
4902554	47	C	05/23/2022	15:58	-135.218	49.479	0	282.00	0	4.6000	0	33.8360	0	26.799	0	279.405	0	-1e10	8	-1e10	8	-1E+10	1	-1E+10	1	-1E+10	1	-1E+10	1	-1E+10	1	-1E+10	1
4902554	47	C	05/23/2022	15:58	-135.218	49.479	0	282.90	0	4.5960	0	33.8360	0	26.800	0	280.296	0	-1e10	8	-1e10	8	-1E+10	1	-1E+10	1	-1E+10	1	-1E+10	1	-1E+10	1	-1E+10	1
4902554	47	C	05/23/2022	15:58	-135.218	49.479	0	283.90	0	4.5930	0	33.8370	0	26.801	0	281.286	0	-1e10	8	-1e10	8	-1E+10	1	-1E+10	1	-1E+10	1	-1E+10	1	-1E+10	1	-1E+10	1
4902554	47	C	05/23/2022	15:58	-135.218	49.479	0	284.90	0	4.5880	0	33.8380	0	26.802	0	282.276	0	-1e10	8	-1e10	8	-1E+10	1	-1E+10	1	-1E+10	1	-1E+10	1	-1E+10	1	-1E+10	1
4902554	47	C	05/23/2022	15:58	-135.218	49.479	0	285.90	0	4.5870	0	33.8380	0	26.802	0	283.266	0	-1e10	8	-1e10	8	-1E+10	1	-1E+10	1	-1E+10	1	-1E+10	1	-1E+10	1	-1E+10	1
4902554	47	C	05/23/2022	15:58	-135.218	49.479	0	286.90	0	4.5870	0	33.8380	0	26.802	0	284.257	0	-1e10	8	-1e10	8	-1E+10	1	-1E+10	1	-1E+10	1	-1E+10	1	-1E+10	1	-1E+10	1
4902554	47	C	05/23/2022	15:58	-135.218	49.479	0	287.90	0	4.5850	0	33.8390	0	26.803	0	285.247	0	-1e10	8	-1e10	8	-1E+10	1	-1E+10	1	-1E+10	1	-1E+10	1	-1E+10	1	-1E+10	1
4902554	47	C	05/23/2022	15:58	-135.218	49.479	0	288.90	0	4.5810	0	33.8400	0	26.805	0	286.237	0	-1e10	8	-1e10	8	-1E+10	1	-1E+10	1	-1E+10	1	-1E+10	1	-1E+10	1	-1E+10	1
4902554	47	C	05/23/2022	15:58	-135.218	49.479	0	289.80	0	4.5800	0	33.8390	0	26.804	0	287.128	0	-1e10	8	-1e10	8	-1E+10	1	-1E+10	1	-1E+10	1	-1E+10	1	-1E+10	1	-1E+10	1
4902554	47	C	05/23/2022	15:58	-135.218	49.479	0	290.80	0	4.5750	0	33.8410	0	26.806	0	288.118	0	-1e10	8	-1e10	8	-1E+10	1	-1E+10	1	-1E+10	1	-1E+10	1	-1E+10	1	-1E+10	1
4902554	47	C	05/23/2022	15:58	-135.218	49.479	0	291.80	0	4.5740	0	33.8410	0	26.806	0	289.108	0	-1e10	8	-1e10	8	-1E+10	1	-1E+10	1	-1E+10	1	-1E+10	1	-1E+10	1	-1E+10	1
4902554	47	C	05/23/2022	15:58	-135.218	49.479	0	292.70	0	4.5710	0	33.8410	0	26.807	0	289.999	0	-1e10	8	-1e10	8	-1E+10	1	-1E+10	1	-1E+10	1	-1E+10	1	-1E+10	1	-1E+10	1
4902554	47	C	05/23/2022	15:58	-135.218	49.479	0	293.70	0	4.5700	0	33.8410	0	26.807	0	290.989	0	-1e10	8	-1e10	8	-1E+10	1	-1E+10	1	-1E+10	1	-1E+10	1	-1E+10	1	-1E+10	1
4902554	47	C	05/23/2022	15:58	-135.218	49.479	0	294.70	0	4.5540	0	33.8450	0	26.812	0	291.979	0	-1e10	8	-1e10	8	-1E+10	1	-1E+10	1	-1E+10	1	-1E+10	1	-1E+10	1	-1E+10	1
4902554	47	C	05/23/2022	15:58	-135.218	49.479	0	295.60	0	4.5400	0	33.8460	0	26.814	0	292.870	0	-1e10	8	-1e10	8	-1E+10	1	-1E+10	1	-1E+10	1	-1E+10	1	-1E+10	1	-1E+10	1
4902554	47	C	05/23/2022	15:58	-135.218	49.479	0	296.60	0	4.5370	0	33.8480	0	26.816	0	293.860	0	-1e10	8	-1e10	8	-1E+10	1	-1E+10	1	-1E+10	1	-1E+10	1	-1E+10	1	-1E+10	1
4902554	47	C	05/23/2022	15:58	-135.218	49.479	0	297.60	0	4.5300	0	33.8480	0	26.817	0	294.850	0	-1e10	8	-1e10	8	-1E+10	1	-1E+10	1	-1E+10	1	-1E+10	1	-1E+10	1	-1E+10	1
4902554	47	C	05/23/2022	15:58	-135.218	49.479	0	298.60	0	4.5090	0	33.8530	0	26.823	0	295.840	0	-1e10	8	-1e10	8	-1E+10	1	-1E+10	1	-1E+10	1	-1E+10	1	-1E+10	1	-1E+10	1
4902554	47	C	05/23/2022	15:58	-135.218	49.479	0	299.50	0	4.5020	0	33.8540	0	26.824	0	296.731	0	-1e10	8	-1e10	8	-1E+10	1	-1E+10	1	-1E+10	1	-1E+10	1	-1E+10	1	-1E+10	1
4902554	47	C	05/23/2022	15:58	-135.218	49.479	0	300.50	0	4.4940	0	33.8560	0	26.827	0	297.721	0	-1e10	8	-1e10	8	-1E+10	1	-1E+10	1	-1E+10	1	-1E+10	1	-1E+10	1	-1E+10	1
4902554	47	C	05/23/2022	15:58	-135.218	49.479	0	301.90	0	4.4930	0	33.8560	0	26.827	0	299.108	0	-1e10	8	-1e10	8	-1E+10	1	-1E+10	1	-1E+10	1	-1E+10	1	-1E+10	1	-1E+10	1
4902554	47	C	05/23/2022	15:58	-135.218	49.479	0	303.40	0	4.4920	0	33.8560	0	26.827	0	300.593	0	-1e10	8	-1e10	8	-1E+10	1	-1E+10	1	-1E+10	1	-1E+10	1	-1E+10	1	-1E+10	1
4902554	47	C	05/23/2022	15:58	-135.218	49.479	0	304.30	0	4.4910	0	33.8570	0	26.828	0	301.484	0	-1e10	8	-1e10	8	-1E+10	1	-1E+10	1	-1E+10	1	-1E+10	1	-1E+10	1	-1E+10	1
4902554	47	C	05/23/2022	15:58	-135.218	49.479	0	305.30	0	4.4900	0	33.8570	0	26.828	0	302.474	0	-1e10	8	-1e10	8	-1E+10	1	-1E+10	1	-1E+10	1	-1E+10	1	-1E+10	1	-1E+10	1
4902554	47	C	05/23/2022	15:58	-135.218	49.479	0	306.20	0	4.4890	0	33.8570	0	26.828	0	303.365	0	-1e10	8	-1e10	8	-1E+10	1	-1E+10	1	-1E+10	1	-1E+10	1	-1E+10	1	-1E+10	1
4902554	47	C	05/23/2022	15:58	-135.218	49.479	0	307.20	0	4.4820	0	33.8590	0	26.831	0	304.355	0	-1e10	8	-1e10	8	-1E+10	1	-1E+10	1	-1E+10	1	-1E+10	1	-1E+10	1	-1E+10	1
4902554	47	C	05/23/2022	15:58	-135.218	49.479	0	308.10	0	4.4800	0	33.8590	0	26.831	0	305.246	0	-1e10	8	-1e10	8	-1E+10	1	-1E+10	1	-1E+10	1	-1E+10	1	-1E+10	1	-1E+10	1
4902554	47	C	05/23/2022	15:58	-135.218	49.479	0	309.00	0	4.4790	0	33.8590	0	26.831	0	306.137	0	-1e10	8	-1e10	8	-1E+10	1	-1E+10	1	-1E+10	1	-1E+10	1	-1E+10	1	-1E+10	1
4902554	47	C	05/23/2022	15:58	-135.218	49.479	0	310.00	0	4.4730	0	33.8600	0	26.832	0	307.127	0	-1e10	8	-1e10	8	-1E+10	1	-1E+10	1	-1E+10	1	-1E+10	1	-1E+10	1	-1E+10	1
4902554	47	C	05/23/2022	15:58	-135.218	49.479	0	310.90	0	4.4670	0	33.8620	0	26.835	0	308.018	0	-1e10	8	-1e10	8	-1E+10	1	-1E+10	1	-1E+10	1	-1E+10	1	-1E+10	1	-1E+10	1
4902554	47	C	05/23/2022	15:58	-135.218	49.479	0	311.80	0	4.4650	0	33.8630	0	26.836	0	308.909	0	-1e10	8	-1e10	8	-1E+10	1	-1E+10	1	-1E+10	1	-1E+10	1	-1E+10	1	-1E+10	1
4902554	47	C	05/23/2022	15:58	-135.218	49.479	0	312.80	0	4.4570	0	33.8660	0	26.839	0	309.899	0	-1e10	8	-1e10	8	-1E+10	1	-1E+10	1	-1E+10	1	-1E+10	1	-1E+10	1	-1E+10	1
4902554	47	C	05/23/2022	15:58	-135.218	49.479	0	313.70	0	4.4540	0	33.8680	0	26.841	0	310.790	0	-1e10	8	-1e10	8	-1E+10	1	-1E+10	1	-1E+10	1	-1E+10	1	-1E+10	1	-1E+10	1
4902554	47	C	05/23/2022	15:58	-135.218	49.479	0	314.70	0	4.4530	0	33.8680	0	26.841	0	311.780	0	-1e10	8	-1e10	8	-1E+10	1	-1E+10	1	-1E+10	1	-1E+10	1	-1E+10	1	-1E+10	1
4902554	47	C	05/23/2022	15:58	-135.218	49.479	0	315.60	0	4.4490	0	33.8700	0	26.843	0	312.670	0	-1e10	8	-1e10	8	-1E+10	1	-1E+10	1	-1E+10	1	-1E+10	1	-1E+10	1	-1E+10	1
4902554	47	C	05/23/2022	15:58	-135.218	49.479	0	316.60	0	4.4470	0	33.8710	0	26.844	0	313.660	0	-1e10	8	-1e10	8	-1E+10	1	-1E+10	1	-1E+10	1	-1E+10	1	-1E+10	1	-1E+10	1
4902554	47	C	05/23/2022	15:58	-135.218	49.479	0	317.90	0	4.4420	0	33.8740	0	26.847	0	314.947	0	-1e10	8	-1e10	8	-1E+10	1	-1E+10	1	-1E+10	1	-1E+10	1	-1E+10	1	-1E+10	1
4902554	47	C	05/23/2022	15:58	-135.218	49.479	0	319.30	0	4.4390	0	33.8760	0	26.849	0	316.333	0	-1e10	8	-1e10	8	-1E+10	1	-1E+10	1	-1E+10	1	-1E+10	1	-1E+10	1	-1E+10	1
4902554	47	C	05/23/2022	15:58	-135.218	49.479	0	320.30	0	4.4380	0	33.8770	0	26.850	0	317.323	0	-1e10	8	-1e10	8	-1E+10	1	-1E+10	1	-1E+10	1	-1E+10	1	-1E+10	1	-1E+10	1
4902554	47	C	05/23/2022	15:58	-135.218	49.479	0	321.20	0	4.4370	0	33.8780	0	26.851	0	318.214	0	-1e10	8	-1e10	8	-1E+10	1	-1E+10	1	-1E+10	1	-1E+10	1	-1E+10	1	-1E+10	1
4902554	47	C	05/23/2022	15:58	-135.218	49.479	0	322.10	0	4.4370	0	33.8790	0	26.851	0	319.105	0	-1e10	8	-1e10	8	-1E+10	1	-1E+10	1	-1E+10	1	-1E+10	1	-1E+10	1	-1E+10	1
4902554	47	C	05/23/2022	15:58	-135.218	49.479	0	323.00	0	4.4370	0	33.8790	0	26.851	0	319.996	0	-1e10	8	-1e10	8	-1E+10	1	-1E+10	1	-1E+10	1	-1E+10	1	-1E+10	1	-1E+10	1
4902554	47	C	05/23/2022	15:58	-135.218	49.479	0	324.00	0	4.4380	0	33.8800	0	26.852	0	320.986	0	-1e10	8	-1e10	8	-1E+10	1	-1E+10	1	-1E+10	1	-1E+10	1	-1E+10	1	-1E+10	1
4902554	47	C	05/23/2022	15:58	-135.218	49.479	0	324.90	0	4.4420	0	33.8840	0	26.855	0	321.877	0	-1e10	8	-1e10	8	-1E+10	1	-1E+10	1	-1E+10	1	-1E+10	1	-1E+10	1	-1E+10	1
4902554	47	C	05/23/2022	15:58	-135.218	49.479	0	325.90	0	4.4500	0	33.8870	0	26.856	0	322.867	0	-1e10	8	-1e10	8	-1E+10	1	-1E+10	1	-1E+10	1	-1E+10	1	-1E+10	1	-1E+10	1
4902554	47	C	05/23/2022	15:58	-135.218	49.479	0	326.80	0	4.4470	0	33.8900	0	26.859	0	323.758	0	-1e10	8	-1e10	8	-1E+10	1	-1E+10	1	-1E+10	1	-1E+10	1	-1E+10	1	-1E+10	1
4902554	47	C	05/23/2022	15:58	-135.218	49.479	0	327.80	0	4.4360	0	33.8930	0	26.863	0	324.748	0	-1e10	8	-1e10	8	-1E+10	1	-1E+10	1	-1E+10	1	-1E+10	1	-1E+10	1	-1E+10	1
4902554	47	C	05/23/2022	15:58	-135.218	49.479	0	328.70	0	4.4340	0	33.8930	0	26.863	0	325.639	0	-1e10	8	-1e10	8	-1E+10	1	-1E+10	1	-1E+10	1	-1E+10	1	-1E+10	1	-1E+10	1
4902554	47	C	05/23/2022	15:58	-135.218	49.479	0	329.70	0	4.4290	0	33.8930	0	26.863	0	326.629	0	-1e10	8	-1e10	8	-1E+10	1	-1E+10	1	-1E+10	1	-1E+10	1	-1E+10	1	-1E+10	1
4902554	47	C	05/23/2022	15:58	-135.218	49.479	0	330.60	0	4.4380	0	33.8960	0	26.865	0	327.519	0	-1e10	8	-1e10	8	-1E+10	1	-1E+10	1	-1E+10	1	-1E+10	1	-1E+10	1	-1E+10	1
4902554	47	C	05/23/2022	15:58	-135.218	49.479	0	331.60	0	4.4380	0	33.8970	0	26.866	0	328.509	0	-1e10	8	-1e10	8	-1E+10	1	-1E+10	1	-1E+10	1	-1E+10	1	-1E+10	1	-1E+10	1
4902554	47	C	05/23/2022	15:58	-135.218	49.479	0	332.50	0	4.4380	0	33.8980	0	26.866	0	329.400	0	-1e10	8	-1e10	8	-1E+10	1	-1E+10	1	-1E+10	1	-1E+10	1	-1E+10	1	-1E+10	1
4902554	47	C	05/23/2022	15:58	-135.218	49.479	0	333.90	0	4.4360	0	33.9010	0	26.869	0	330.786	0	-1e10	8	-1e10	8	-1E+10	1	-1E+10	1	-1E+10	1	-1E+10	1	-1E+10	1	-1E+10	1
4902554	47	C	05/23/2022	15:58	-135.218	49.479	0	335.40	0	4.4340	0	33.9070	0	26.874	0	332.271	0	-1e10	8	-1e10	8	-1E+10	1	-1E+10	1	-1E+10	1	-1E+10	1	-1E+10	1	-1E+10	1
4902554	47	C	05/23/2022	15:58	-135.218	49.479	0	336.40	0	4.4330	0	33.9100	0	26.877	0	333.261	0	-1e10	8	-1e10	8	-1E+10	1	-1E+10	1	-1E+10	1	-1E+10	1	-1E+10	1	-1E+10	1
4902554	47	C	05/23/2022	15:58	-135.218	49.479	0	337.40	0	4.4330	0	33.9110	0	26.877	0	334.251	0	-1e10	8	-1e10	8	-1E+10	1	-1E+10	1	-1E+10	1	-1E+10	1	-1E+10	1	-1E+10	1
4902554	47	C	05/23/2022	15:58	-135.218	49.479	0	338.30	0	4.4330	0	33.9110	0	26.877	0	335.141	0	-1e10	8	-1e10	8	-1E+10	1	-1E+10	1	-1E+10	1	-1E+10	1	-1E+10	1	-1E+10	1
4902554	47	C	05/23/2022	15:58	-135.218	49.479	0	339.30	0	4.4330	0	33.9120	0	26.878	0	336.131	0	-1e10	8	-1e10	8	-1E+10	1	-1E+10	1	-1E+10	1	-1E+10	1	-1E+10	1	-1E+10	1
4902554	47	C	05/23/2022	15:58	-135.218	49.479	0	340.20	0	4.4330	0	33.9130	0	26.879	0	337.022	0	-1e10	8	-1e10	8	-1E+10	1	-1E+10	1	-1E+10	1	-1E+10	1	-1E+10	1	-1E+10	1
4902554	47	C	05/23/2022	15:58	-135.218	49.479	0	341.20	0	4.4330	0	33.9140	0	26.880	0	338.012	0	-1e10	8	-1e10	8	-1E+10	1	-1E+10	1	-1E+10	1	-1E+10	1	-1E+10	1	-1E+10	1
4902554	47	C	05/23/2022	15:58	-135.218	49.479	0	341.90	0	4.4330	0	33.9130	0	26.879	0	338.705	0	-1e10	8	-1e10	8	-1E+10	1	-1E+10	1	-1E+10	1	-1E+10	1	-1E+10	1	-1E+10	1
4902554	47	C	05/23/2022	15:58	-135.218	49.479	0	343.00	0	4.4330	0	33.9130	0	26.879	0	339.794	0	-1e10	8	-1e10	8	-1E+10	1	-1E+10	1	-1E+10	1	-1E+10	1	-1E+10	1	-1E+10	1
4902554	47	C	05/23/2022	15:58	-135.218	49.479	0	344.10	0	4.4320	0	33.9150	0	26.881	0	340.883	0	-1e10	8	-1e10	8	-1E+10	1	-1E+10	1	-1E+10	1	-1E+10	1	-1E+10	1	-1E+10	1
4902554	47	C	05/23/2022	15:58	-135.218	49.479	0	344.90	0	4.4250	0	33.9190	0	26.885	0	341.674	0	-1e10	8	-1e10	8	-1E+10	1	-1E+10	1	-1E+10	1	-1E+10	1	-1E+10	1	-1E+10	1
4902554	47	C	05/23/2022	15:58	-135.218	49.479	0	345.70	0	4.4190	0	33.9200	0	26.886	0	342.466	0	-1e10	8	-1e10	8	-1E+10	1	-1E+10	1	-1E+10	1	-1E+10	1	-1E+10	1	-1E+10	1
4902554	47	C	05/23/2022	15:58	-135.218	49.479	0	346.80	0	4.4180	0	33.9210	0	26.887	0	343.555	0	-1e10	8	-1e10	8	-1E+10	1	-1E+10	1	-1E+10	1	-1E+10	1	-1E+10	1	-1E+10	1
4902554	47	C	05/23/2022	15:58	-135.218	49.479	0	348.00	0	4.4190	0	33.9220	0	26.888	0	344.743	0	-1e10	8	-1e10	8	-1E+10	1	-1E+10	1	-1E+10	1	-1E+10	1	-1E+10	1	-1E+10	1
4902554	47	C	05/23/2022	15:58	-135.218	49.479	0	348.80	0	4.4180	0	33.9220	0	26.888	0	345.535	0	-1e10	8	-1e10	8	-1E+10	1	-1E+10	1	-1E+10	1	-1E+10	1	-1E+10	1	-1E+10	1
4902554	47	C	05/23/2022	15:58	-135.218	49.479	0	349.90	0	4.4180	0	33.9230	0	26.889	0	346.623	0	-1e10	8	-1e10	8	-1E+10	1	-1E+10	1	-1E+10	1	-1E+10	1	-1E+10	1	-1E+10	1
4902554	47	C	05/23/2022	15:58	-135.218	49.479	0	353.10	0	4.4230	0	33.9290	0	26.893	0	349.791	0	-1e10	8	-1e10	8	-1E+10	1	-1E+10	1	-1E+10	1	-1E+10	1	-1E+10	1	-1E+10	1
4902554	47	C	05/23/2022	15:58	-135.218	49.479	0	357.90	0	4.4220	0	33.9330	0	26.896	0	354.542	0	-1e10	8	-1e10	8	-1E+10	1	-1E+10	1	-1E+10	1	-1E+10	1	-1E+10	1	-1E+10	1
4902554	47	C	05/23/2022	15:58	-135.218	49.479	0	363.00	0	4.4240	0	33.9390	0	26.901	0	359.589	0	-1e10	8	-1e10	8	-1E+10	1	-1E+10	1	-1E+10	1	-1E+10	1	-1E+10	1	-1E+10	1
4902554	47	C	05/23/2022	15:58	-135.218	49.479	0	367.80	0	4.4200	0	33.9470	0	26.908	0	364.340	0	-1e10	8	-1e10	8	-1E+10	1	-1E+10	1	-1E+10	1	-1E+10	1	-1E+10	1	-1E+10	1
4902554	47	C	05/23/2022	15:58	-135.218	49.479	0	372.70	0	4.3960	0	33.9550	0	26.917	0	369.190	0	-1e10	8	-1e10	8	-1E+10	1	-1E+10	1	-1E+10	1	-1E+10	1	-1E+10	1	-1E+10	1
4902554	47	C	05/23/2022	15:58	-135.218	49.479	0	378.10	0	4.3830	0	33.9590	0	26.921	0	374.534	0	-1e10	8	-1e10	8	-1E+10	1	-1E+10	1	-1E+10	1	-1E+10	1	-1E+10	1	-1E+10	1
4902554	47	C	05/23/2022	15:58	-135.218	49.479	0	383.10	0	4.3790	0	33.9630	0	26.925	0	379.482	0	-1e10	8	-1e10	8	-1E+10	1	-1E+10	1	-1E+10	1	-1E+10	1	-1E+10	1	-1E+10	1
4902554	47	C	05/23/2022	15:58	-135.218	49.479	0	387.80	0	4.3800	0	33.9700	0	26.930	0	384.133	0	-1e10	8	-1e10	8	-1E+10	1	-1E+10	1	-1E+10	1	-1E+10	1	-1E+10	1	-1E+10	1
4902554	47	C	05/23/2022	15:58	-135.218	49.479	0	392.50	0	4.3760	0	33.9730	0	26.933	0	388.785	0	-1e10	8	-1e10	8	-1E+10	1	-1E+10	1	-1E+10	1	-1E+10	1	-1E+10	1	-1E+10	1
4902554	47	C	05/23/2022	15:58	-135.218	49.479	0	397.90	0	4.3620	0	33.9800	0	26.940	0	394.128	0	-1e10	8	-1e10	8	-1E+10	1	-1E+10	1	-1E+10	1	-1E+10	1	-1E+10	1	-1E+10	1
4902554	47	C	05/23/2022	15:58	-135.218	49.479	0	403.40	0	4.3520	0	33.9850	0	26.945	0	399.571	0	-1e10	8	-1e10	8	-1E+10	1	-1E+10	1	-1E+10	1	-1E+10	1	-1E+10	1	-1E+10	1
4902554	47	C	05/23/2022	15:58	-135.218	49.479	0	408.30	0	4.3490	0	33.9870	0	26.947	0	404.420	0	-1e10	8	-1e10	8	-1E+10	1	-1E+10	1	-1E+10	1	-1E+10	1	-1E+10	1	-1E+10	1
4902554	47	C	05/23/2022	15:58	-135.218	49.479	0	413.30	0	4.3470	0	33.9890	0	26.949	0	409.367	0	-1e10	8	-1e10	8	-1E+10	1	-1E+10	1	-1E+10	1	-1E+10	1	-1E+10	1	-1E+10	1
4902554	47	C	05/23/2022	15:58	-135.218	49.479	0	418.30	0	4.3390	0	33.9940	0	26.954	0	414.315	0	-1e10	8	-1e10	8	-1E+10	1	-1E+10	1	-1E+10	1	-1E+10	1	-1E+10	1	-1E+10	1
4902554	47	C	05/23/2022	15:58	-135.218	49.479	0	423.30	0	4.3280	0	33.9990	0	26.959	0	419.262	0	-1e10	8	-1e10	8	-1E+10	1	-1E+10	1	-1E+10	1	-1E+10	1	-1E+10	1	-1E+10	1
4902554	47	C	05/23/2022	15:58	-135.218	49.479	0	428.30	0	4.3170	0	34.0040	0	26.964	0	424.209	0	-1e10	8	-1e10	8	-1E+10	1	-1E+10	1	-1E+10	1	-1E+10	1	-1E+10	1	-1E+10	1
4902554	47	C	05/23/2022	15:58	-135.218	49.479	0	433.30	0	4.3110	0	34.0080	0	26.968	0	429.156	0	-1e10	8	-1e10	8	-1E+10	1	-1E+10	1	-1E+10	1	-1E+10	1	-1E+10	1	-1E+10	1
4902554	47	C	05/23/2022	15:58	-135.218	49.479	0	438.30	0	4.2860	0	34.0170	0	26.978	0	434.103	0	-1e10	8	-1e10	8	-1E+10	1	-1E+10	1	-1E+10	1	-1E+10	1	-1E+10	1	-1E+10	1
4902554	47	C	05/23/2022	15:58	-135.218	49.479	0	443.20	0	4.2780	0	34.0200	0	26.981	0	438.951	0	-1e10	8	-1e10	8	-1E+10	1	-1E+10	1	-1E+10	1	-1E+10	1	-1E+10	1	-1E+10	1
4902554	47	C	05/23/2022	15:58	-135.218	49.479	0	448.20	0	4.2690	0	34.0240	0	26.985	0	443.898	0	-1e10	8	-1e10	8	-1E+10	1	-1E+10	1	-1E+10	1	-1E+10	1	-1E+10	1	-1E+10	1
4902554	47	C	05/23/2022	15:58	-135.218	49.479	0	453.10	0	4.2600	0	34.0290	0	26.990	0	448.745	0	-1e10	8	-1e10	8	-1E+10	1	-1E+10	1	-1E+10	1	-1E+10	1	-1E+10	1	-1E+10	1
4902554	47	C	05/23/2022	15:58	-135.218	49.479	0	458.10	0	4.2530	0	34.0320	0	26.993	0	453.692	0	-1e10	8	-1e10	8	-1E+10	1	-1E+10	1	-1E+10	1	-1E+10	1	-1E+10	1	-1E+10	1
4902554	47	C	05/23/2022	15:58	-135.218	49.479	0	463.10	0	4.2380	0	34.0370	0	26.999	0	458.638	0	-1e10	8	-1e10	8	-1E+10	1	-1E+10	1	-1E+10	1	-1E+10	1	-1E+10	1	-1E+10	1
4902554	47	C	05/23/2022	15:58	-135.218	49.479	0	468.10	0	4.2200	0	34.0410	0	27.004	0	463.585	0	-1e10	8	-1e10	8	-1E+10	1	-1E+10	1	-1E+10	1	-1E+10	1	-1E+10	1	-1E+10	1
4902554	47	C	05/23/2022	15:58	-135.218	49.479	0	473.20	0	4.1970	0	34.0490	0	27.013	0	468.630	0	-1e10	8	-1e10	8	-1E+10	1	-1E+10	1	-1E+10	1	-1E+10	1	-1E+10	1	-1E+10	1
4902554	47	C	05/23/2022	15:58	-135.218	49.479	0	477.80	0	4.1900	0	34.0520	0	27.016	0	473.180	0	-1e10	8	-1e10	8	-1E+10	1	-1E+10	1	-1E+10	1	-1E+10	1	-1E+10	1	-1E+10	1
4902554	47	C	05/23/2022	15:58	-135.218	49.479	0	482.50	0	4.1840	0	34.0560	0	27.020	0	477.829	0	-1e10	8	-1e10	8	-1E+10	1	-1E+10	1	-1E+10	1	-1E+10	1	-1E+10	1	-1E+10	1
4902554	47	C	05/23/2022	15:58	-135.218	49.479	0	488.00	0	4.1760	0	34.0590	0	27.023	0	483.269	0	-1e10	8	-1e10	8	-1E+10	1	-1E+10	1	-1E+10	1	-1E+10	1	-1E+10	1	-1E+10	1
4902554	47	C	05/23/2022	15:58	-135.218	49.479	0	493.00	0	4.1650	0	34.0640	0	27.028	0	488.215	0	-1e10	8	-1e10	8	-1E+10	1	-1E+10	1	-1E+10	1	-1E+10	1	-1E+10	1	-1E+10	1
4902554	47	C	05/23/2022	15:58	-135.218	49.479	0	497.70	0	4.1560	0	34.0700	0	27.034	0	492.864	0	-1e10	8	-1e10	8	-1E+10	1	-1E+10	1	-1E+10	1	-1E+10	1	-1E+10	1	-1E+10	1
4902554	47	C	05/23/2022	15:58	-135.218	49.479	0	503.00	0	4.1530	0	34.0750	0	27.038	0	498.106	0	-1e10	8	-1e10	8	-1E+10	1	-1E+10	1	-1E+10	1	-1E+10	1	-1E+10	1	-1E+10	1
4902554	47	C	05/23/2022	15:58	-135.218	49.479	0	508.30	0	4.1530	0	34.0790	0	27.042	0	503.348	0	-1e10	8	-1e10	8	-1E+10	1	-1E+10	1	-1E+10	1	-1E+10	1	-1E+10	1	-1E+10	1
4902554	47	C	05/23/2022	15:58	-135.218	49.479	0	513.30	0	4.1500	0	34.0860	0	27.048	0	508.293	0	-1e10	8	-1e10	8	-1E+10	1	-1E+10	1	-1E+10	1	-1E+10	1	-1E+10	1	-1E+10	1
4902554	47	C	05/23/2022	15:58	-135.218	49.479	0	517.90	0	4.1460	0	34.0910	0	27.052	0	512.843	0	-1e10	8	-1e10	8	-1E+10	1	-1E+10	1	-1E+10	1	-1E+10	1	-1E+10	1	-1E+10	1
4902554	47	C	05/23/2022	15:58	-135.218	49.479	0	522.70	0	4.1380	0	34.0940	0	27.055	0	517.590	0	-1e10	8	-1e10	8	-1E+10	1	-1E+10	1	-1E+10	1	-1E+10	1	-1E+10	1	-1E+10	1
4902554	47	C	05/23/2022	15:58	-135.218	49.479	0	528.00	0	4.1230	0	34.0990	0	27.061	0	522.831	0	-1e10	8	-1e10	8	-1E+10	1	-1E+10	1	-1E+10	1	-1E+10	1	-1E+10	1	-1E+10	1
4902554	47	C	05/23/2022	15:58	-135.218	49.479	0	532.90	0	4.1100	0	34.1040	0	27.066	0	527.677	0	-1e10	8	-1e10	8	-1E+10	1	-1E+10	1	-1E+10	1	-1E+10	1	-1E+10	1	-1E+10	1
4902554	47	C	05/23/2022	15:58	-135.218	49.479	0	537.90	0	4.1000	0	34.1090	0	27.071	0	532.622	0	-1e10	8	-1e10	8	-1E+10	1	-1E+10	1	-1E+10	1	-1E+10	1	-1E+10	1	-1E+10	1
4902554	47	C	05/23/2022	15:58	-135.218	49.479	0	543.00	0	4.0930	0	34.1130	0	27.075	0	537.665	0	-1e10	8	-1e10	8	-1E+10	1	-1E+10	1	-1E+10	1	-1E+10	1	-1E+10	1	-1E+10	1
4902554	47	C	05/23/2022	15:58	-135.218	49.479	0	547.70	0	4.0860	0	34.1170	0	27.079	0	542.313	0	-1e10	8	-1e10	8	-1E+10	1	-1E+10	1	-1E+10	1	-1E+10	1	-1E+10	1	-1E+10	1
4902554	47	C	05/23/2022	15:58	-135.218	49.479	0	552.50	0	4.0740	0	34.1210	0	27.084	0	547.059	0	-1e10	8	-1e10	8	-1E+10	1	-1E+10	1	-1E+10	1	-1E+10	1	-1E+10	1	-1E+10	1
4902554	47	C	05/23/2022	15:58	-135.218	49.479	0	557.80	0	4.0720	0	34.1250	0	27.087	0	552.300	0	-1e10	8	-1e10	8	-1E+10	1	-1E+10	1	-1E+10	1	-1E+10	1	-1E+10	1	-1E+10	1
4902554	47	C	05/23/2022	15:58	-135.218	49.479	0	563.00	0	4.0670	0	34.1270	0	27.089	0	557.442	0	-1e10	8	-1e10	8	-1E+10	1	-1E+10	1	-1E+10	1	-1E+10	1	-1E+10	1	-1E+10	1
4902554	47	C	05/23/2022	15:58	-135.218	49.479	0	567.70	0	4.0580	0	34.1300	0	27.092	0	562.089	0	-1e10	8	-1e10	8	-1E+10	1	-1E+10	1	-1E+10	1	-1E+10	1	-1E+10	1	-1E+10	1
4902554	47	C	05/23/2022	15:58	-135.218	49.479	0	572.90	0	4.0420	0	34.1350	0	27.098	0	567.231	0	-1e10	8	-1e10	8	-1E+10	1	-1E+10	1	-1E+10	1	-1E+10	1	-1E+10	1	-1E+10	1
4902554	47	C	05/23/2022	15:58	-135.218	49.479	0	578.10	0	4.0320	0	34.1380	0	27.102	0	572.372	0	-1e10	8	-1e10	8	-1E+10	1	-1E+10	1	-1E+10	1	-1E+10	1	-1E+10	1	-1E+10	1
4902554	47	C	05/23/2022	15:58	-135.218	49.479	0	582.80	0	4.0260	0	34.1400	0	27.104	0	577.019	0	-1e10	8	-1e10	8	-1E+10	1	-1E+10	1	-1E+10	1	-1E+10	1	-1E+10	1	-1E+10	1
4902554	47	C	05/23/2022	15:58	-135.218	49.479	0	587.60	0	4.0130	0	34.1430	0	27.108	0	581.765	0	-1e10	8	-1e10	8	-1E+10	1	-1E+10	1	-1E+10	1	-1E+10	1	-1E+10	1	-1E+10	1
4902554	47	C	05/23/2022	15:58	-135.218	49.479	0	592.80	0	4.0030	0	34.1470	0	27.112	0	586.906	0	-1e10	8	-1e10	8	-1E+10	1	-1E+10	1	-1E+10	1	-1E+10	1	-1E+10	1	-1E+10	1
4902554	47	C	05/23/2022	15:58	-135.218	49.479	0	598.20	0	3.9910	0	34.1510	0	27.116	0	592.244	0	-1e10	8	-1e10	8	-1E+10	1	-1E+10	1	-1E+10	1	-1E+10	1	-1E+10	1	-1E+10	1
4902554	47	C	05/23/2022	15:58	-135.218	49.479	0	603.10	0	3.9810	0	34.1540	0	27.120	0	597.088	0	-1e10	8	-1e10	8	-1E+10	1	-1E+10	1	-1E+10	1	-1E+10	1	-1E+10	1	-1E+10	1
4902554	47	C	05/23/2022	15:58	-135.218	49.479	0	607.90	0	3.9640	0	34.1590	0	27.125	0	601.834	0	-1e10	8	-1e10	8	-1E+10	1	-1E+10	1	-1E+10	1	-1E+10	1	-1E+10	1	-1E+10	1
4902554	47	C	05/23/2022	15:58	-135.218	49.479	0	612.80	0	3.9530	0	34.1630	0	27.130	0	606.678	0	-1e10	8	-1e10	8	-1E+10	1	-1E+10	1	-1E+10	1	-1E+10	1	-1E+10	1	-1E+10	1
4902554	47	C	05/23/2022	15:58	-135.218	49.479	0	617.70	0	3.9390	0	34.1680	0	27.135	0	611.522	0	-1e10	8	-1e10	8	-1E+10	1	-1E+10	1	-1E+10	1	-1E+10	1	-1E+10	1	-1E+10	1
4902554	47	C	05/23/2022	15:58	-135.218	49.479	0	622.50	0	3.9220	0	34.1730	0	27.141	0	616.266	0	-1e10	8	-1e10	8	-1E+10	1	-1E+10	1	-1E+10	1	-1E+10	1	-1E+10	1	-1E+10	1
4902554	47	C	05/23/2022	15:58	-135.218	49.479	0	627.90	0	3.9160	0	34.1730	0	27.142	0	621.604	0	-1e10	8	-1e10	8	-1E+10	1	-1E+10	1	-1E+10	1	-1E+10	1	-1E+10	1	-1E+10	1
4902554	47	C	05/23/2022	15:58	-135.218	49.479	0	633.30	0	3.9130	0	34.1740	0	27.143	0	626.942	0	-1e10	8	-1e10	8	-1E+10	1	-1E+10	1	-1E+10	1	-1E+10	1	-1E+10	1	-1E+10	1
4902554	47	C	05/23/2022	15:58	-135.218	49.479	0	638.20	0	3.9040	0	34.1780	0	27.147	0	631.785	0	-1e10	8	-1e10	8	-1E+10	1	-1E+10	1	-1E+10	1	-1E+10	1	-1E+10	1	-1E+10	1
4902554	47	C	05/23/2022	15:58	-135.218	49.479	0	643.00	0	3.8930	0	34.1810	0	27.150	0	636.530	0	-1e10	8	-1e10	8	-1E+10	1	-1E+10	1	-1E+10	1	-1E+10	1	-1E+10	1	-1E+10	1
4902554	47	C	05/23/2022	15:58	-135.218	49.479	0	647.80	0	3.8870	0	34.1820	0	27.152	0	641.274	0	-1e10	8	-1e10	8	-1E+10	1	-1E+10	1	-1E+10	1	-1E+10	1	-1E+10	1	-1E+10	1
4902554	47	C	05/23/2022	15:58	-135.218	49.479	0	652.70	0	3.8770	0	34.1850	0	27.155	0	646.117	0	-1e10	8	-1e10	8	-1E+10	1	-1E+10	1	-1E+10	1	-1E+10	1	-1E+10	1	-1E+10	1
4902554	47	C	05/23/2022	15:58	-135.218	49.479	0	657.70	0	3.8590	0	34.1910	0	27.162	0	651.059	0	-1e10	8	-1e10	8	-1E+10	1	-1E+10	1	-1E+10	1	-1E+10	1	-1E+10	1	-1E+10	1
4902554	47	C	05/23/2022	15:58	-135.218	49.479	0	662.70	0	3.8420	0	34.1950	0	27.167	0	656.001	0	-1e10	8	-1e10	8	-1E+10	1	-1E+10	1	-1E+10	1	-1E+10	1	-1E+10	1	-1E+10	1
4902554	47	C	05/23/2022	15:58	-135.218	49.479	0	667.80	0	3.8290	0	34.1990	0	27.171	0	661.041	0	-1e10	8	-1e10	8	-1E+10	1	-1E+10	1	-1E+10	1	-1E+10	1	-1E+10	1	-1E+10	1
4902554	47	C	05/23/2022	15:58	-135.218	49.479	0	672.80	0	3.8180	0	34.2020	0	27.175	0	665.982	0	-1e10	8	-1e10	8	-1E+10	1	-1E+10	1	-1E+10	1	-1E+10	1	-1E+10	1	-1E+10	1
4902554	47	C	05/23/2022	15:58	-135.218	49.479	0	677.90	0	3.7920	0	34.2080	0	27.182	0	671.022	0	-1e10	8	-1e10	8	-1E+10	1	-1E+10	1	-1E+10	1	-1E+10	1	-1E+10	1	-1E+10	1
4902554	47	C	05/23/2022	15:58	-135.218	49.479	0	682.90	0	3.7700	0	34.2130	0	27.188	0	675.964	0	-1e10	8	-1e10	8	-1E+10	1	-1E+10	1	-1E+10	1	-1E+10	1	-1E+10	1	-1E+10	1
4902554	47	C	05/23/2022	15:58	-135.218	49.479	0	688.00	0	3.7650	0	34.2140	0	27.190	0	681.004	0	-1e10	8	-1e10	8	-1E+10	1	-1E+10	1	-1E+10	1	-1E+10	1	-1E+10	1	-1E+10	1
4902554	47	C	05/23/2022	15:58	-135.218	49.479	0	692.90	0	3.7540	0	34.2180	0	27.194	0	685.846	0	-1e10	8	-1e10	8	-1E+10	1	-1E+10	1	-1E+10	1	-1E+10	1	-1E+10	1	-1E+10	1
4902554	47	C	05/23/2022	15:58	-135.218	49.479	0	698.00	0	3.7490	0	34.2190	0	27.195	0	690.885	0	-1e10	8	-1e10	8	-1E+10	1	-1E+10	1	-1E+10	1	-1E+10	1	-1E+10	1	-1E+10	1
4902554	47	C	05/23/2022	15:58	-135.218	49.479	0	703.10	0	3.7360	0	34.2220	0	27.199	0	695.925	0	-1e10	8	-1e10	8	-1E+10	1	-1E+10	1	-1E+10	1	-1E+10	1	-1E+10	1	-1E+10	1
4902554	47	C	05/23/2022	15:58	-135.218	49.479	0	707.90	0	3.7220	0	34.2260	0	27.204	0	700.668	0	-1e10	8	-1e10	8	-1E+10	1	-1E+10	1	-1E+10	1	-1E+10	1	-1E+10	1	-1E+10	1
4902554	47	C	05/23/2022	15:58	-135.218	49.479	0	712.70	0	3.7000	0	34.2300	0	27.209	0	705.411	0	-1e10	8	-1e10	8	-1E+10	1	-1E+10	1	-1E+10	1	-1E+10	1	-1E+10	1	-1E+10	1
4902554	47	C	05/23/2022	15:58	-135.218	49.479	0	717.60	0	3.6850	0	34.2330	0	27.213	0	710.252	0	-1e10	8	-1e10	8	-1E+10	1	-1E+10	1	-1E+10	1	-1E+10	1	-1E+10	1	-1E+10	1
4902554	47	C	05/23/2022	15:58	-135.218	49.479	0	722.70	0	3.6760	0	34.2350	0	27.215	0	715.291	0	-1e10	8	-1e10	8	-1E+10	1	-1E+10	1	-1E+10	1	-1E+10	1	-1E+10	1	-1E+10	1
4902554	47	C	05/23/2022	15:58	-135.218	49.479	0	727.90	0	3.6640	0	34.2370	0	27.218	0	720.429	0	-1e10	8	-1e10	8	-1E+10	1	-1E+10	1	-1E+10	1	-1E+10	1	-1E+10	1	-1E+10	1
4902554	47	C	05/23/2022	15:58	-135.218	49.479	0	733.10	0	3.6450	0	34.2400	0	27.223	0	725.566	0	-1e10	8	-1e10	8	-1E+10	1	-1E+10	1	-1E+10	1	-1E+10	1	-1E+10	1	-1E+10	1
4902554	47	C	05/23/2022	15:58	-135.218	49.479	0	737.80	0	3.6210	0	34.2440	0	27.228	0	730.210	0	-1e10	8	-1e10	8	-1E+10	1	-1E+10	1	-1E+10	1	-1E+10	1	-1E+10	1	-1E+10	1
4902554	47	C	05/23/2022	15:58	-135.218	49.479	0	742.70	0	3.6090	0	34.2480	0	27.232	0	735.051	0	-1e10	8	-1e10	8	-1E+10	1	-1E+10	1	-1E+10	1	-1E+10	1	-1E+10	1	-1E+10	1
4902554	47	C	05/23/2022	15:58	-135.218	49.479	0	748.10	0	3.6040	0	34.2510	0	27.235	0	740.386	0	-1e10	8	-1e10	8	-1E+10	1	-1E+10	1	-1E+10	1	-1E+10	1	-1E+10	1	-1E+10	1
4902554	47	C	05/23/2022	15:58	-135.218	49.479	0	753.10	0	3.5990	0	34.2520	0	27.237	0	745.325	0	-1e10	8	-1e10	8	-1E+10	1	-1E+10	1	-1E+10	1	-1E+10	1	-1E+10	1	-1E+10	1
4902554	47	C	05/23/2022	15:58	-135.218	49.479	0	757.70	0	3.5820	0	34.2560	0	27.242	0	749.869	0	-1e10	8	-1e10	8	-1E+10	1	-1E+10	1	-1E+10	1	-1E+10	1	-1E+10	1	-1E+10	1
4902554	47	C	05/23/2022	15:58	-135.218	49.479	0	762.90	0	3.5620	0	34.2590	0	27.246	0	755.006	0	-1e10	8	-1e10	8	-1E+10	1	-1E+10	1	-1E+10	1	-1E+10	1	-1E+10	1	-1E+10	1
4902554	47	C	05/23/2022	15:58	-135.218	49.479	0	768.20	0	3.5400	0	34.2620	0	27.250	0	760.242	0	-1e10	8	-1e10	8	-1E+10	1	-1E+10	1	-1E+10	1	-1E+10	1	-1E+10	1	-1E+10	1
4902554	47	C	05/23/2022	15:58	-135.218	49.479	0	773.10	0	3.5290	0	34.2670	0	27.256	0	765.082	0	-1e10	8	-1e10	8	-1E+10	1	-1E+10	1	-1E+10	1	-1E+10	1	-1E+10	1	-1E+10	1
4902554	47	C	05/23/2022	15:58	-135.218	49.479	0	778.00	0	3.5200	0	34.2700	0	27.259	0	769.922	0	-1e10	8	-1e10	8	-1E+10	1	-1E+10	1	-1E+10	1	-1E+10	1	-1E+10	1	-1E+10	1
4902554	47	C	05/23/2022	15:58	-135.218	49.479	0	783.10	0	3.5190	0	34.2710	0	27.260	0	774.960	0	-1e10	8	-1e10	8	-1E+10	1	-1E+10	1	-1E+10	1	-1E+10	1	-1E+10	1	-1E+10	1
4902554	47	C	05/23/2022	15:58	-135.218	49.479	0	788.10	0	3.5150	0	34.2720	0	27.261	0	779.899	0	-1e10	8	-1e10	8	-1E+10	1	-1E+10	1	-1E+10	1	-1E+10	1	-1E+10	1	-1E+10	1
4902554	47	C	05/23/2022	15:58	-135.218	49.479	0	793.20	0	3.5110	0	34.2720	0	27.261	0	784.936	0	-1e10	8	-1e10	8	-1E+10	1	-1E+10	1	-1E+10	1	-1E+10	1	-1E+10	1	-1E+10	1
4902554	47	C	05/23/2022	15:58	-135.218	49.479	0	798.20	0	3.4980	0	34.2750	0	27.265	0	789.874	0	-1e10	8	-1e10	8	-1E+10	1	-1E+10	1	-1E+10	1	-1E+10	1	-1E+10	1	-1E+10	1
4902554	47	C	05/23/2022	15:58	-135.218	49.479	0	803.00	0	3.4770	0	34.2790	0	27.270	0	794.615	0	-1e10	8	-1e10	8	-1E+10	1	-1E+10	1	-1E+10	1	-1E+10	1	-1E+10	1	-1E+10	1
4902554	47	C	05/23/2022	15:58	-135.218	49.479	0	807.70	0	3.4700	0	34.2800	0	27.272	0	799.257	0	-1e10	8	-1e10	8	-1E+10	1	-1E+10	1	-1E+10	1	-1E+10	1	-1E+10	1	-1E+10	1
4902554	47	C	05/23/2022	15:58	-135.218	49.479	0	812.80	0	3.4530	0	34.2830	0	27.276	0	804.294	0	-1e10	8	-1e10	8	-1E+10	1	-1E+10	1	-1E+10	1	-1E+10	1	-1E+10	1	-1E+10	1
4902554	47	C	05/23/2022	15:58	-135.218	49.479	0	817.90	0	3.4270	0	34.2860	0	27.281	0	809.331	0	-1e10	8	-1e10	8	-1E+10	1	-1E+10	1	-1E+10	1	-1E+10	1	-1E+10	1	-1E+10	1
4902554	47	C	05/23/2022	15:58	-135.218	49.479	0	822.90	0	3.4120	0	34.2880	0	27.284	0	814.269	0	-1e10	8	-1e10	8	-1E+10	1	-1E+10	1	-1E+10	1	-1E+10	1	-1E+10	1	-1E+10	1
4902554	47	C	05/23/2022	15:58	-135.218	49.479	0	828.00	0	3.4010	0	34.2900	0	27.286	0	819.305	0	-1e10	8	-1e10	8	-1E+10	1	-1E+10	1	-1E+10	1	-1E+10	1	-1E+10	1	-1E+10	1
4902554	47	C	05/23/2022	15:58	-135.218	49.479	0	833.00	0	3.3950	0	34.2910	0	27.288	0	824.243	0	-1e10	8	-1e10	8	-1E+10	1	-1E+10	1	-1E+10	1	-1E+10	1	-1E+10	1	-1E+10	1
4902554	47	C	05/23/2022	15:58	-135.218	49.479	0	838.00	0	3.3820	0	34.2950	0	27.292	0	829.180	0	-1e10	8	-1e10	8	-1E+10	1	-1E+10	1	-1E+10	1	-1E+10	1	-1E+10	1	-1E+10	1
4902554	47	C	05/23/2022	15:58	-135.218	49.479	0	842.80	0	3.3660	0	34.2980	0	27.296	0	833.920	0	-1e10	8	-1e10	8	-1E+10	1	-1E+10	1	-1E+10	1	-1E+10	1	-1E+10	1	-1E+10	1
4902554	47	C	05/23/2022	15:58	-135.218	49.479	0	847.70	0	3.3590	0	34.2990	0	27.298	0	838.759	0	-1e10	8	-1e10	8	-1E+10	1	-1E+10	1	-1E+10	1	-1E+10	1	-1E+10	1	-1E+10	1
4902554	47	C	05/23/2022	15:58	-135.218	49.479	0	853.00	0	3.3480	0	34.3010	0	27.300	0	843.992	0	-1e10	8	-1e10	8	-1E+10	1	-1E+10	1	-1E+10	1	-1E+10	1	-1E+10	1	-1E+10	1
4902554	47	C	05/23/2022	15:58	-135.218	49.479	0	858.20	0	3.3400	0	34.3030	0	27.303	0	849.127	0	-1e10	8	-1e10	8	-1E+10	1	-1E+10	1	-1E+10	1	-1E+10	1	-1E+10	1	-1E+10	1
4902554	47	C	05/23/2022	15:58	-135.218	49.479	0	863.00	0	3.3340	0	34.3070	0	27.307	0	853.866	0	-1e10	8	-1e10	8	-1E+10	1	-1E+10	1	-1E+10	1	-1E+10	1	-1E+10	1	-1E+10	1
4902554	47	C	05/23/2022	15:58	-135.218	49.479	0	867.80	0	3.3310	0	34.3110	0	27.310	0	858.605	0	-1e10	8	-1e10	8	-1E+10	1	-1E+10	1	-1E+10	1	-1E+10	1	-1E+10	1	-1E+10	1
4902554	47	C	05/23/2022	15:58	-135.218	49.479	0	872.60	0	3.3220	0	34.3130	0	27.313	0	863.345	0	-1e10	8	-1e10	8	-1E+10	1	-1E+10	1	-1E+10	1	-1E+10	1	-1E+10	1	-1E+10	1
4902554	47	C	05/23/2022	15:58	-135.218	49.479	0	877.90	0	3.3130	0	34.3150	0	27.315	0	868.577	0	-1e10	8	-1e10	8	-1E+10	1	-1E+10	1	-1E+10	1	-1E+10	1	-1E+10	1	-1E+10	1
4902554	47	C	05/23/2022	15:58	-135.218	49.479	0	883.20	0	3.2950	0	34.3170	0	27.318	0	873.810	0	-1e10	8	-1e10	8	-1E+10	1	-1E+10	1	-1E+10	1	-1E+10	1	-1E+10	1	-1E+10	1
4902554	47	C	05/23/2022	15:58	-135.218	49.479	0	888.10	0	3.2820	0	34.3210	0	27.323	0	878.648	0	-1e10	8	-1e10	8	-1E+10	1	-1E+10	1	-1E+10	1	-1E+10	1	-1E+10	1	-1E+10	1
4902554	47	C	05/23/2022	15:58	-135.218	49.479	0	893.00	0	3.2650	0	34.3240	0	27.327	0	883.485	0	-1e10	8	-1e10	8	-1E+10	1	-1E+10	1	-1E+10	1	-1E+10	1	-1E+10	1	-1E+10	1
4902554	47	C	05/23/2022	15:58	-135.218	49.479	0	897.80	0	3.2370	0	34.3290	0	27.333	0	888.224	0	-1e10	8	-1e10	8	-1E+10	1	-1E+10	1	-1E+10	1	-1E+10	1	-1E+10	1	-1E+10	1
4902554	47	C	05/23/2022	15:58	-135.218	49.479	0	902.70	0	3.2220	0	34.3310	0	27.336	0	893.061	0	-1e10	8	-1e10	8	-1E+10	1	-1E+10	1	-1E+10	1	-1E+10	1	-1E+10	1	-1E+10	1
4902554	47	C	05/23/2022	15:58	-135.218	49.479	0	907.60	0	3.2050	0	34.3330	0	27.340	0	897.898	0	-1e10	8	-1e10	8	-1E+10	1	-1E+10	1	-1E+10	1	-1E+10	1	-1E+10	1	-1E+10	1
4902554	47	C	05/23/2022	15:58	-135.218	49.479	0	912.60	0	3.1860	0	34.3360	0	27.344	0	902.834	0	-1e10	8	-1e10	8	-1E+10	1	-1E+10	1	-1E+10	1	-1E+10	1	-1E+10	1	-1E+10	1
4902554	47	C	05/23/2022	15:58	-135.218	49.479	0	917.60	0	3.1720	0	34.3390	0	27.347	0	907.770	0	-1e10	8	-1e10	8	-1E+10	1	-1E+10	1	-1E+10	1	-1E+10	1	-1E+10	1	-1E+10	1
4902554	47	C	05/23/2022	15:58	-135.218	49.479	0	922.70	0	3.1600	0	34.3410	0	27.350	0	912.804	0	-1e10	8	-1e10	8	-1E+10	1	-1E+10	1	-1E+10	1	-1E+10	1	-1E+10	1	-1E+10	1
4902554	47	C	05/23/2022	15:58	-135.218	49.479	0	928.00	0	3.1520	0	34.3430	0	27.353	0	918.036	0	-1e10	8	-1e10	8	-1E+10	1	-1E+10	1	-1E+10	1	-1E+10	1	-1E+10	1	-1E+10	1
4902554	47	C	05/23/2022	15:58	-135.218	49.479	0	932.80	0	3.1420	0	34.3450	0	27.355	0	922.773	0	-1e10	8	-1e10	8	-1E+10	1	-1E+10	1	-1E+10	1	-1E+10	1	-1E+10	1	-1E+10	1
4902554	47	C	05/23/2022	15:58	-135.218	49.479	0	937.90	0	3.1340	0	34.3460	0	27.357	0	927.807	0	-1e10	8	-1e10	8	-1E+10	1	-1E+10	1	-1E+10	1	-1E+10	1	-1E+10	1	-1E+10	1
4902554	47	C	05/23/2022	15:58	-135.218	49.479	0	943.10	0	3.1210	0	34.3480	0	27.359	0	932.940	0	-1e10	8	-1e10	8	-1E+10	1	-1E+10	1	-1E+10	1	-1E+10	1	-1E+10	1	-1E+10	1
4902554	47	C	05/23/2022	15:58	-135.218	49.479	0	948.00	0	3.1120	0	34.3500	0	27.362	0	937.776	0	-1e10	8	-1e10	8	-1E+10	1	-1E+10	1	-1E+10	1	-1E+10	1	-1E+10	1	-1E+10	1
4902554	47	C	05/23/2022	15:58	-135.218	49.479	0	953.20	0	3.1100	0	34.3510	0	27.363	0	942.908	0	-1e10	8	-1e10	8	-1E+10	1	-1E+10	1	-1E+10	1	-1E+10	1	-1E+10	1	-1E+10	1
4902554	47	C	05/23/2022	15:58	-135.218	49.479	0	958.10	0	3.1060	0	34.3520	0	27.364	0	947.744	0	-1e10	8	-1e10	8	-1E+10	1	-1E+10	1	-1E+10	1	-1E+10	1	-1E+10	1	-1E+10	1
4902554	47	C	05/23/2022	15:58	-135.218	49.479	0	962.70	0	3.0970	0	34.3530	0	27.366	0	952.284	0	-1e10	8	-1e10	8	-1E+10	1	-1E+10	1	-1E+10	1	-1E+10	1	-1E+10	1	-1E+10	1
4902554	47	C	05/23/2022	15:58	-135.218	49.479	0	967.80	0	3.0800	0	34.3570	0	27.371	0	957.317	0	-1e10	8	-1e10	8	-1E+10	1	-1E+10	1	-1E+10	1	-1E+10	1	-1E+10	1	-1E+10	1
4902554	47	C	05/23/2022	15:58	-135.218	49.479	0	973.00	0	3.0640	0	34.3600	0	27.374	0	962.449	0	-1e10	8	-1e10	8	-1E+10	1	-1E+10	1	-1E+10	1	-1E+10	1	-1E+10	1	-1E+10	1
4902554	47	C	05/23/2022	15:58	-135.218	49.479	0	978.00	0	3.0570	0	34.3620	0	27.377	0	967.383	0	-1e10	8	-1e10	8	-1E+10	1	-1E+10	1	-1E+10	1	-1E+10	1	-1E+10	1	-1E+10	1
4902554	47	C	05/23/2022	15:58	-135.218	49.479	0	982.90	0	3.0570	0	34.3620	0	27.377	0	972.219	0	-1e10	8	-1e10	8	-1E+10	1	-1E+10	1	-1E+10	1	-1E+10	1	-1E+10	1	-1E+10	1
4902554	47	C	05/23/2022	15:58	-135.218	49.479	0	987.90	0	3.0510	0	34.3630	0	27.378	0	977.153	0	-1e10	8	-1e10	8	-1E+10	1	-1E+10	1	-1E+10	1	-1E+10	1	-1E+10	1	-1E+10	1
4902554	47	C	05/23/2022	15:58	-135.218	49.479	0	993.00	0	3.0440	0	34.3640	0	27.380	0	982.185	0	-1e10	8	-1e10	8	-1E+10	1	-1E+10	1	-1E+10	1	-1E+10	1	-1E+10	1	-1E+10	1
4902554	47	C	05/23/2022	15:58	-135.218	49.479	0	998.00	0	3.0370	0	34.3660	0	27.382	0	987.119	0	-1e10	8	-1e10	8	-1E+10	1	-1E+10	1	-1E+10	1	-1E+10	1	-1E+10	1	-1E+10	1
4902554	47	C	05/23/2022	15:58	-135.218	49.479	0	1005.60	0	3.0270	0	34.3680	0	27.384	0	994.618	0	-1e10	8	-1e10	8	-1E+10	1	-1E+10	1	-1E+10	1	-1E+10	1	-1E+10	1	-1E+10	1
4902554	47	C	05/23/2022	15:58	-135.218	49.479	0	1015.70	0	3.0170	0	34.3700	0	27.387	0	1004.584	0	-1e10	8	-1e10	8	-1E+10	1	-1E+10	1	-1E+10	1	-1E+10	1	-1E+10	1	-1E+10	1
4902554	47	C	05/23/2022	15:58	-135.218	49.479	0	1025.80	0	2.9970	0	34.3740	0	27.392	0	1014.549	0	-1e10	8	-1e10	8	-1E+10	1	-1E+10	1	-1E+10	1	-1E+10	1	-1E+10	1	-1E+10	1
4902554	47	C	05/23/2022	15:58	-135.218	49.479	0	1035.50	0	2.9850	0	34.3770	0	27.396	0	1024.119	0	-1e10	8	-1e10	8	-1E+10	1	-1E+10	1	-1E+10	1	-1E+10	1	-1E+10	1	-1E+10	1
4902554	47	C	05/23/2022	15:58	-135.218	49.479	0	1045.30	0	2.9810	0	34.3780	0	27.397	0	1033.787	0	-1e10	8	-1e10	8	-1E+10	1	-1E+10	1	-1E+10	1	-1E+10	1	-1E+10	1	-1E+10	1
4902554	47	C	05/23/2022	15:58	-135.218	49.479	0	1055.40	0	2.9670	0	34.3810	0	27.400	0	1043.750	0	-1e10	8	-1e10	8	-1E+10	1	-1E+10	1	-1E+10	1	-1E+10	1	-1E+10	1	-1E+10	1
4902554	47	C	05/23/2022	15:58	-135.218	49.479	0	1065.30	0	2.9430	0	34.3860	0	27.407	0	1053.516	0	-1e10	8	-1e10	8	-1E+10	1	-1E+10	1	-1E+10	1	-1E+10	1	-1E+10	1	-1E+10	1
4902554	47	C	05/23/2022	15:58	-135.218	49.479	0	1075.30	0	2.9220	0	34.3900	0	27.412	0	1063.380	0	-1e10	8	-1e10	8	-1E+10	1	-1E+10	1	-1E+10	1	-1E+10	1	-1E+10	1	-1E+10	1
4902554	47	C	05/23/2022	15:58	-135.218	49.479	0	1085.40	0	2.9090	0	34.3930	0	27.415	0	1073.343	0	-1e10	8	-1e10	8	-1E+10	1	-1E+10	1	-1E+10	1	-1E+10	1	-1E+10	1	-1E+10	1
4902554	47	C	05/23/2022	15:58	-135.218	49.479	0	1095.50	0	2.8980	0	34.3950	0	27.418	0	1083.304	0	-1e10	8	-1e10	8	-1E+10	1	-1E+10	1	-1E+10	1	-1E+10	1	-1E+10	1	-1E+10	1
4902554	47	C	05/23/2022	15:58	-135.218	49.479	0	1105.30	0	2.8890	0	34.3970	0	27.420	0	1092.970	0	-1e10	8	-1e10	8	-1E+10	1	-1E+10	1	-1E+10	1	-1E+10	1	-1E+10	1	-1E+10	1
4902554	47	C	05/23/2022	15:58	-135.218	49.479	0	1115.40	0	2.8760	0	34.3990	0	27.423	0	1102.931	0	-1e10	8	-1e10	8	-1E+10	1	-1E+10	1	-1E+10	1	-1E+10	1	-1E+10	1	-1E+10	1
4902554	47	C	05/23/2022	15:58	-135.218	49.479	0	1125.60	0	2.8650	0	34.4020	0	27.427	0	1112.989	0	-1e10	8	-1e10	8	-1E+10	1	-1E+10	1	-1E+10	1	-1E+10	1	-1E+10	1	-1E+10	1
4902554	47	C	05/23/2022	15:58	-135.218	49.479	0	1135.30	0	2.8570	0	34.4030	0	27.428	0	1122.555	0	-1e10	8	-1e10	8	-1E+10	1	-1E+10	1	-1E+10	1	-1E+10	1	-1E+10	1	-1E+10	1
4902554	47	C	05/23/2022	15:58	-135.218	49.479	0	1145.30	0	2.8330	0	34.4080	0	27.434	0	1132.416	0	-1e10	8	-1e10	8	-1E+10	1	-1E+10	1	-1E+10	1	-1E+10	1	-1E+10	1	-1E+10	1
4902554	47	C	05/23/2022	15:58	-135.218	49.479	0	1155.20	0	2.8100	0	34.4130	0	27.441	0	1142.177	0	-1e10	8	-1e10	8	-1E+10	1	-1E+10	1	-1E+10	1	-1E+10	1	-1E+10	1	-1E+10	1
4902554	47	C	05/23/2022	15:58	-135.218	49.479	0	1165.10	0	2.8000	0	34.4150	0	27.443	0	1151.939	0	-1e10	8	-1e10	8	-1E+10	1	-1E+10	1	-1E+10	1	-1E+10	1	-1E+10	1	-1E+10	1
4902554	47	C	05/23/2022	15:58	-135.218	49.479	0	1175.10	0	2.7810	0	34.4180	0	27.447	0	1161.798	0	-1e10	8	-1e10	8	-1E+10	1	-1E+10	1	-1E+10	1	-1E+10	1	-1E+10	1	-1E+10	1
4902554	47	C	05/23/2022	15:58	-135.218	49.479	0	1185.40	0	2.7680	0	34.4210	0	27.451	0	1171.953	0	-1e10	8	-1e10	8	-1E+10	1	-1E+10	1	-1E+10	1	-1E+10	1	-1E+10	1	-1E+10	1
4902554	47	C	05/23/2022	15:58	-135.218	49.479	0	1195.30	0	2.7560	0	34.4240	0	27.454	0	1181.713	0	-1e10	8	-1e10	8	-1E+10	1	-1E+10	1	-1E+10	1	-1E+10	1	-1E+10	1	-1E+10	1
4902554	47	C	05/23/2022	15:58	-135.218	49.479	0	1205.20	0	2.7410	0	34.4260	0	27.457	0	1191.472	0	-1e10	8	-1e10	8	-1E+10	1	-1E+10	1	-1E+10	1	-1E+10	1	-1E+10	1	-1E+10	1
4902554	47	C	05/23/2022	15:58	-135.218	49.479	0	1215.20	0	2.7250	0	34.4300	0	27.462	0	1201.330	0	-1e10	8	-1e10	8	-1E+10	1	-1E+10	1	-1E+10	1	-1E+10	1	-1E+10	1	-1E+10	1
4902554	47	C	05/23/2022	15:58	-135.218	49.479	0	1225.30	0	2.7070	0	34.4340	0	27.467	0	1211.285	0	-1e10	8	-1e10	8	-1E+10	1	-1E+10	1	-1E+10	1	-1E+10	1	-1E+10	1	-1E+10	1
4902554	47	C	05/23/2022	15:58	-135.218	49.479	0	1235.30	0	2.6950	0	34.4360	0	27.469	0	1221.142	0	-1e10	8	-1e10	8	-1E+10	1	-1E+10	1	-1E+10	1	-1E+10	1	-1E+10	1	-1E+10	1
4902554	47	C	05/23/2022	15:58	-135.218	49.479	0	1245.30	0	2.6720	0	34.4390	0	27.474	0	1230.998	0	-1e10	8	-1e10	8	-1E+10	1	-1E+10	1	-1E+10	1	-1E+10	1	-1E+10	1	-1E+10	1
4902554	47	C	05/23/2022	15:58	-135.218	49.479	0	1255.50	0	2.6530	0	34.4430	0	27.479	0	1241.051	0	-1e10	8	-1e10	8	-1E+10	1	-1E+10	1	-1E+10	1	-1E+10	1	-1E+10	1	-1E+10	1
4902554	47	C	05/23/2022	15:58	-135.218	49.479	0	1265.60	0	2.6370	0	34.4460	0	27.483	0	1251.005	0	-1e10	8	-1e10	8	-1E+10	1	-1E+10	1	-1E+10	1	-1E+10	1	-1E+10	1	-1E+10	1
4902554	47	C	05/23/2022	15:58	-135.218	49.479	0	1275.50	0	2.6290	0	34.4480	0	27.485	0	1260.761	0	-1e10	8	-1e10	8	-1E+10	1	-1E+10	1	-1E+10	1	-1E+10	1	-1E+10	1	-1E+10	1
4902554	47	C	05/23/2022	15:58	-135.218	49.479	0	1285.50	0	2.6210	0	34.4490	0	27.486	0	1270.615	0	-1e10	8	-1e10	8	-1E+10	1	-1E+10	1	-1E+10	1	-1E+10	1	-1E+10	1	-1E+10	1
4902554	47	C	05/23/2022	15:58	-135.218	49.479	0	1295.70	0	2.6140	0	34.4500	0	27.488	0	1280.666	0	-1e10	8	-1e10	8	-1E+10	1	-1E+10	1	-1E+10	1	-1E+10	1	-1E+10	1	-1E+10	1
4902554	47	C	05/23/2022	15:58	-135.218	49.479	0	1305.60	0	2.6040	0	34.4520	0	27.490	0	1290.421	0	-1e10	8	-1e10	8	-1E+10	1	-1E+10	1	-1E+10	1	-1E+10	1	-1E+10	1	-1E+10	1
4902554	47	C	05/23/2022	15:58	-135.218	49.479	0	1315.20	0	2.5880	0	34.4560	0	27.495	0	1299.880	0	-1e10	8	-1e10	8	-1E+10	1	-1E+10	1	-1E+10	1	-1E+10	1	-1E+10	1	-1E+10	1
4902554	47	C	05/23/2022	15:58	-135.218	49.479	0	1325.10	0	2.5700	0	34.4590	0	27.499	0	1309.634	0	-1e10	8	-1e10	8	-1E+10	1	-1E+10	1	-1E+10	1	-1E+10	1	-1E+10	1	-1E+10	1
4902554	47	C	05/23/2022	15:58	-135.218	49.479	0	1335.10	0	2.5530	0	34.4630	0	27.504	0	1319.486	0	-1e10	8	-1e10	8	-1E+10	1	-1E+10	1	-1E+10	1	-1E+10	1	-1E+10	1	-1E+10	1
4902554	47	C	05/23/2022	15:58	-135.218	49.479	0	1345.40	0	2.5340	0	34.4670	0	27.508	0	1329.633	0	-1e10	8	-1e10	8	-1E+10	1	-1E+10	1	-1E+10	1	-1E+10	1	-1E+10	1	-1E+10	1
4902554	47	C	05/23/2022	15:58	-135.218	49.479	0	1355.30	0	2.5140	0	34.4700	0	27.513	0	1339.385	0	-1e10	8	-1e10	8	-1E+10	1	-1E+10	1	-1E+10	1	-1E+10	1	-1E+10	1	-1E+10	1
4902554	47	C	05/23/2022	15:58	-135.218	49.479	0	1365.30	0	2.4890	0	34.4750	0	27.519	0	1349.236	0	-1e10	8	-1e10	8	-1E+10	1	-1E+10	1	-1E+10	1	-1E+10	1	-1E+10	1	-1E+10	1
4902554	47	C	05/23/2022	15:58	-135.218	49.479	0	1375.30	0	2.4790	0	34.4770	0	27.521	0	1359.086	0	-1e10	8	-1e10	8	-1E+10	1	-1E+10	1	-1E+10	1	-1E+10	1	-1E+10	1	-1E+10	1
4902554	47	C	05/23/2022	15:58	-135.218	49.479	0	1385.30	0	2.4710	0	34.4780	0	27.523	0	1368.936	0	-1e10	8	-1e10	8	-1E+10	1	-1E+10	1	-1E+10	1	-1E+10	1	-1E+10	1	-1E+10	1
4902554	47	C	05/23/2022	15:58	-135.218	49.479	0	1395.30	0	2.4600	0	34.4800	0	27.525	0	1378.785	0	-1e10	8	-1e10	8	-1E+10	1	-1E+10	1	-1E+10	1	-1E+10	1	-1E+10	1	-1E+10	1
4902554	47	C	05/23/2022	15:58	-135.218	49.479	0	1405.30	0	2.4470	0	34.4830	0	27.529	0	1388.634	0	-1e10	8	-1e10	8	-1E+10	1	-1E+10	1	-1E+10	1	-1E+10	1	-1E+10	1	-1E+10	1
4902554	47	C	05/23/2022	15:58	-135.218	49.479	0	1415.40	0	2.4340	0	34.4850	0	27.532	0	1398.580	0	-1e10	8	-1e10	8	-1E+10	1	-1E+10	1	-1E+10	1	-1E+10	1	-1E+10	1	-1E+10	1
4902554	47	C	05/23/2022	15:58	-135.218	49.479	0	1425.20	0	2.4260	0	34.4870	0	27.534	0	1408.231	0	-1e10	8	-1e10	8	-1E+10	1	-1E+10	1	-1E+10	1	-1E+10	1	-1E+10	1	-1E+10	1
4902554	47	C	05/23/2022	15:58	-135.218	49.479	0	1435.20	0	2.4190	0	34.4880	0	27.535	0	1418.079	0	-1e10	8	-1e10	8	-1E+10	1	-1E+10	1	-1E+10	1	-1E+10	1	-1E+10	1	-1E+10	1
4902554	47	C	05/23/2022	15:58	-135.218	49.479	0	1445.80	0	2.4060	0	34.4900	0	27.538	0	1428.516	0	-1e10	8	-1e10	8	-1E+10	1	-1E+10	1	-1E+10	1	-1E+10	1	-1E+10	1	-1E+10	1
4902554	47	C	05/23/2022	15:58	-135.218	49.479	0	1455.40	0	2.3870	0	34.4940	0	27.543	0	1437.969	0	-1e10	8	-1e10	8	-1E+10	1	-1E+10	1	-1E+10	1	-1E+10	1	-1E+10	1	-1E+10	1
4902554	47	C	05/23/2022	15:58	-135.218	49.479	0	1465.10	0	2.3740	0	34.4970	0	27.546	0	1447.519	0	-1e10	8	-1e10	8	-1E+10	1	-1E+10	1	-1E+10	1	-1E+10	1	-1E+10	1	-1E+10	1
4902554	47	C	05/23/2022	15:58	-135.218	49.479	0	1475.20	0	2.3630	0	34.4990	0	27.549	0	1457.463	0	-1e10	8	-1e10	8	-1E+10	1	-1E+10	1	-1E+10	1	-1E+10	1	-1E+10	1	-1E+10	1
4902554	47	C	05/23/2022	15:58	-135.218	49.479	0	1485.40	0	2.3520	0	34.5010	0	27.552	0	1467.505	0	-1e10	8	-1e10	8	-1E+10	1	-1E+10	1	-1E+10	1	-1E+10	1	-1E+10	1	-1E+10	1
4902554	47	C	05/23/2022	15:58	-135.218	49.479	0	1495.50	0	2.3440	0	34.5030	0	27.554	0	1477.448	0	-1e10	8	-1e10	8	-1E+10	1	-1E+10	1	-1E+10	1	-1E+10	1	-1E+10	1	-1E+10	1
4902554	47	C	05/23/2022	15:58	-135.218	49.479	0	1505.30	0	2.3360	0	34.5050	0	27.556	0	1487.096	0	-1e10	8	-1e10	8	-1E+10	1	-1E+10	1	-1E+10	1	-1E+10	1	-1E+10	1	-1E+10	1
4902554	47	C	05/23/2022	15:58	-135.218	49.479	0	1515.20	0	2.3280	0	34.5060	0	27.558	0	1496.841	0	-1e10	8	-1e10	8	-1E+10	1	-1E+10	1	-1E+10	1	-1E+10	1	-1E+10	1	-1E+10	1
4902554	47	C	05/23/2022	15:58	-135.218	49.479	0	1525.20	0	2.3140	0	34.5090	0	27.561	0	1506.684	0	-1e10	8	-1e10	8	-1E+10	1	-1E+10	1	-1E+10	1	-1E+10	1	-1E+10	1	-1E+10	1
4902554	47	C	05/23/2022	15:58	-135.218	49.479	0	1535.40	0	2.3090	0	34.5100	0	27.563	0	1516.724	0	-1e10	8	-1e10	8	-1E+10	1	-1E+10	1	-1E+10	1	-1E+10	1	-1E+10	1	-1E+10	1
4902554	47	C	05/23/2022	15:58	-135.218	49.479	0	1545.70	0	2.3040	0	34.5110	0	27.564	0	1526.861	0	-1e10	8	-1e10	8	-1E+10	1	-1E+10	1	-1E+10	1	-1E+10	1	-1E+10	1	-1E+10	1
4902554	47	C	05/23/2022	15:58	-135.218	49.479	0	1555.60	0	2.2910	0	34.5140	0	27.567	0	1536.605	0	-1e10	8	-1e10	8	-1E+10	1	-1E+10	1	-1E+10	1	-1E+10	1	-1E+10	1	-1E+10	1
4902554	47	C	05/23/2022	15:58	-135.218	49.479	0	1565.70	0	2.2770	0	34.5170	0	27.571	0	1546.544	0	-1e10	8	-1e10	8	-1E+10	1	-1E+10	1	-1E+10	1	-1E+10	1	-1E+10	1	-1E+10	1
4902554	47	C	05/23/2022	15:58	-135.218	49.479	0	1575.80	0	2.2610	0	34.5200	0	27.575	0	1556.484	0	-1e10	8	-1e10	8	-1E+10	1	-1E+10	1	-1E+10	1	-1E+10	1	-1E+10	1	-1E+10	1
4902554	47	C	05/23/2022	15:58	-135.218	49.479	0	1585.50	0	2.2540	0	34.5220	0	27.577	0	1566.029	0	-1e10	8	-1e10	8	-1E+10	1	-1E+10	1	-1E+10	1	-1E+10	1	-1E+10	1	-1E+10	1
4902554	47	C	05/23/2022	15:58	-135.218	49.479	0	1595.30	0	2.2440	0	34.5240	0	27.579	0	1575.672	0	-1e10	8	-1e10	8	-1E+10	1	-1E+10	1	-1E+10	1	-1E+10	1	-1E+10	1	-1E+10	1
4902554	47	C	05/23/2022	15:58	-135.218	49.479	0	1605.60	0	2.2350	0	34.5260	0	27.582	0	1585.807	0	-1e10	8	-1e10	8	-1E+10	1	-1E+10	1	-1E+10	1	-1E+10	1	-1E+10	1	-1E+10	1
4902554	47	C	05/23/2022	15:58	-135.218	49.479	0	1615.60	0	2.2290	0	34.5270	0	27.583	0	1595.646	0	-1e10	8	-1e10	8	-1E+10	1	-1E+10	1	-1E+10	1	-1E+10	1	-1E+10	1	-1E+10	1
4902554	47	C	05/23/2022	15:58	-135.218	49.479	0	1625.20	0	2.2180	0	34.5290	0	27.586	0	1605.091	0	-1e10	8	-1e10	8	-1E+10	1	-1E+10	1	-1E+10	1	-1E+10	1	-1E+10	1	-1E+10	1
4902554	47	C	05/23/2022	15:58	-135.218	49.479	0	1635.40	0	2.2140	0	34.5300	0	27.587	0	1615.126	0	-1e10	8	-1e10	8	-1E+10	1	-1E+10	1	-1E+10	1	-1E+10	1	-1E+10	1	-1E+10	1
4902554	47	C	05/23/2022	15:58	-135.218	49.479	0	1645.40	0	2.2050	0	34.5320	0	27.589	0	1624.964	0	-1e10	8	-1e10	8	-1E+10	1	-1E+10	1	-1E+10	1	-1E+10	1	-1E+10	1	-1E+10	1
4902554	47	C	05/23/2022	15:58	-135.218	49.479	0	1655.00	0	2.1930	0	34.5340	0	27.592	0	1634.407	0	-1e10	8	-1e10	8	-1E+10	1	-1E+10	1	-1E+10	1	-1E+10	1	-1E+10	1	-1E+10	1
4902554	47	C	05/23/2022	15:58	-135.218	49.479	0	1665.20	0	2.1830	0	34.5360	0	27.594	0	1644.441	0	-1e10	8	-1e10	8	-1E+10	1	-1E+10	1	-1E+10	1	-1E+10	1	-1E+10	1	-1E+10	1
4902554	47	C	05/23/2022	15:58	-135.218	49.479	0	1675.60	0	2.1760	0	34.5380	0	27.596	0	1654.671	0	-1e10	8	-1e10	8	-1E+10	1	-1E+10	1	-1E+10	1	-1E+10	1	-1E+10	1	-1E+10	1
4902554	47	C	05/23/2022	15:58	-135.218	49.479	0	1685.60	0	2.1690	0	34.5390	0	27.598	0	1664.507	0	-1e10	8	-1e10	8	-1E+10	1	-1E+10	1	-1E+10	1	-1E+10	1	-1E+10	1	-1E+10	1
4902554	47	C	05/23/2022	15:58	-135.218	49.479	0	1695.50	0	2.1640	0	34.5400	0	27.599	0	1674.244	0	-1e10	8	-1e10	8	-1E+10	1	-1E+10	1	-1E+10	1	-1E+10	1	-1E+10	1	-1E+10	1
4902554	47	C	05/23/2022	15:58	-135.218	49.479	0	1705.30	0	2.1630	0	34.5410	0	27.600	0	1683.882	0	-1e10	8	-1e10	8	-1E+10	1	-1E+10	1	-1E+10	1	-1E+10	1	-1E+10	1	-1E+10	1
4902554	47	C	05/23/2022	15:58	-135.218	49.479	0	1715.50	0	2.1580	0	34.5420	0	27.601	0	1693.913	0	-1e10	8	-1e10	8	-1E+10	1	-1E+10	1	-1E+10	1	-1E+10	1	-1E+10	1	-1E+10	1
4902554	47	C	05/23/2022	15:58	-135.218	49.479	0	1725.40	0	2.1440	0	34.5440	0	27.604	0	1703.649	0	-1e10	8	-1e10	8	-1E+10	1	-1E+10	1	-1E+10	1	-1E+10	1	-1E+10	1	-1E+10	1
4902554	47	C	05/23/2022	15:58	-135.218	49.479	0	1735.30	0	2.1320	0	34.5470	0	27.608	0	1713.384	0	-1e10	8	-1e10	8	-1E+10	1	-1E+10	1	-1E+10	1	-1E+10	1	-1E+10	1	-1E+10	1
4902554	47	C	05/23/2022	15:58	-135.218	49.479	0	1745.60	0	2.1180	0	34.5500	0	27.611	0	1723.512	0	-1e10	8	-1e10	8	-1E+10	1	-1E+10	1	-1E+10	1	-1E+10	1	-1E+10	1	-1E+10	1
4902554	47	C	05/23/2022	15:58	-135.218	49.479	0	1755.50	0	2.1080	0	34.5510	0	27.613	0	1733.247	0	-1e10	8	-1e10	8	-1E+10	1	-1E+10	1	-1E+10	1	-1E+10	1	-1E+10	1	-1E+10	1
4902554	47	C	05/23/2022	15:58	-135.218	49.479	0	1765.30	0	2.1000	0	34.5530	0	27.615	0	1742.882	0	-1e10	8	-1e10	8	-1E+10	1	-1E+10	1	-1E+10	1	-1E+10	1	-1E+10	1	-1E+10	1
4902554	47	C	05/23/2022	15:58	-135.218	49.479	0	1775.50	0	2.0940	0	34.5540	0	27.616	0	1752.910	0	-1e10	8	-1e10	8	-1E+10	1	-1E+10	1	-1E+10	1	-1E+10	1	-1E+10	1	-1E+10	1
4902554	47	C	05/23/2022	15:58	-135.218	49.479	0	1785.50	0	2.0830	0	34.5560	0	27.619	0	1762.742	0	-1e10	8	-1e10	8	-1E+10	1	-1E+10	1	-1E+10	1	-1E+10	1	-1E+10	1	-1E+10	1
4902554	47	C	05/23/2022	15:58	-135.218	49.479	0	1795.20	0	2.0750	0	34.5580	0	27.621	0	1772.278	0	-1e10	8	-1e10	8	-1E+10	1	-1E+10	1	-1E+10	1	-1E+10	1	-1E+10	1	-1E+10	1
4902554	47	C	05/23/2022	15:58	-135.218	49.479	0	1805.10	0	2.0710	0	34.5590	0	27.622	0	1782.010	0	-1e10	8	-1e10	8	-1E+10	1	-1E+10	1	-1E+10	1	-1E+10	1	-1E+10	1	-1E+10	1
4902554	47	C	05/23/2022	15:58	-135.218	49.479	0	1815.10	0	2.0650	0	34.5600	0	27.624	0	1791.840	0	-1e10	8	-1e10	8	-1E+10	1	-1E+10	1	-1E+10	1	-1E+10	1	-1E+10	1	-1E+10	1
4902554	47	C	05/23/2022	15:58	-135.218	49.479	0	1825.40	0	2.0570	0	34.5620	0	27.626	0	1801.964	0	-1e10	8	-1e10	8	-1E+10	1	-1E+10	1	-1E+10	1	-1E+10	1	-1E+10	1	-1E+10	1
4902554	47	C	05/23/2022	15:58	-135.218	49.479	0	1835.20	0	2.0510	0	34.5630	0	27.627	0	1811.596	0	-1e10	8	-1e10	8	-1E+10	1	-1E+10	1	-1E+10	1	-1E+10	1	-1E+10	1	-1E+10	1
4902554	47	C	05/23/2022	15:58	-135.218	49.479	0	1845.30	0	2.0330	0	34.5650	0	27.630	0	1821.523	0	-1e10	8	-1e10	8	-1E+10	1	-1E+10	1	-1E+10	1	-1E+10	1	-1E+10	1	-1E+10	1
4902554	47	C	05/23/2022	15:58	-135.218	49.479	0	1855.30	0	2.0270	0	34.5660	0	27.632	0	1831.352	0	-1e10	8	-1e10	8	-1E+10	1	-1E+10	1	-1E+10	1	-1E+10	1	-1E+10	1	-1E+10	1
4902554	47	C	05/23/2022	15:58	-135.218	49.479	0	1865.20	0	2.0210	0	34.5670	0	27.633	0	1841.081	0	-1e10	8	-1e10	8	-1E+10	1	-1E+10	1	-1E+10	1	-1E+10	1	-1E+10	1	-1E+10	1
4902554	47	C	05/23/2022	15:58	-135.218	49.479	0	1875.30	0	2.0170	0	34.5680	0	27.634	0	1851.006	0	-1e10	8	-1e10	8	-1E+10	1	-1E+10	1	-1E+10	1	-1E+10	1	-1E+10	1	-1E+10	1
4902554	47	C	05/23/2022	15:58	-135.218	49.479	0	1885.30	0	2.0110	0	34.5690	0	27.635	0	1860.833	0	-1e10	8	-1e10	8	-1E+10	1	-1E+10	1	-1E+10	1	-1E+10	1	-1E+10	1	-1E+10	1
4902554	47	C	05/23/2022	15:58	-135.218	49.479	0	1895.40	0	2.0040	0	34.5710	0	27.638	0	1870.758	0	-1e10	8	-1e10	8	-1E+10	1	-1E+10	1	-1E+10	1	-1E+10	1	-1E+10	1	-1E+10	1
4902554	47	C	05/23/2022	15:58	-135.218	49.479	0	1905.70	0	1.9960	0	34.5720	0	27.639	0	1880.878	0	-1e10	8	-1e10	8	-1E+10	1	-1E+10	1	-1E+10	1	-1E+10	1	-1E+10	1	-1E+10	1
4902554	47	C	05/23/2022	15:58	-135.218	49.479	0	1915.40	0	1.9920	0	34.5730	0	27.640	0	1890.409	0	-1e10	8	-1e10	8	-1E+10	1	-1E+10	1	-1E+10	1	-1E+10	1	-1E+10	1	-1E+10	1
4902554	47	C	05/23/2022	15:58	-135.218	49.479	0	1925.20	0	1.9860	0	34.5740	0	27.642	0	1900.037	0	-1e10	8	-1e10	8	-1E+10	1	-1E+10	1	-1E+10	1	-1E+10	1	-1E+10	1	-1E+10	1
4902554	47	C	05/23/2022	15:58	-135.218	49.479	0	1935.40	0	1.9770	0	34.5760	0	27.644	0	1910.058	0	-1e10	8	-1e10	8	-1E+10	1	-1E+10	1	-1E+10	1	-1E+10	1	-1E+10	1	-1E+10	1
4902554	47	C	05/23/2022	15:58	-135.218	49.479	0	1945.30	0	1.9730	0	34.5760	0	27.644	0	1919.784	0	-1e10	8	-1e10	8	-1E+10	1	-1E+10	1	-1E+10	1	-1E+10	1	-1E+10	1	-1E+10	1
4902554	47	C	05/23/2022	15:58	-135.218	49.479	0	1955.30	0	1.9620	0	34.5780	0	27.647	0	1929.608	0	-1e10	8	-1e10	8	-1E+10	1	-1E+10	1	-1E+10	1	-1E+10	1	-1E+10	1	-1E+10	1
4902554	47	C	05/23/2022	15:58	-135.218	49.479	0	1965.40	0	1.9510	0	34.5810	0	27.650	0	1939.529	0	-1e10	8	-1e10	8	-1E+10	1	-1E+10	1	-1E+10	1	-1E+10	1	-1E+10	1	-1E+10	1
4902554	47	C	05/23/2022	15:58	-135.218	49.479	0	1975.50	0	1.9450	0	34.5820	0	27.651	0	1949.450	0	-1e10	8	-1e10	8	-1E+10	1	-1E+10	1	-1E+10	1	-1E+10	1	-1E+10	1	-1E+10	1
4902554	47	C	05/23/2022	15:58	-135.218	49.479	0	1986.00	0	1.9420	0	34.5830	0	27.653	0	1959.763	0	-1e10	8	-1e10	8	-1E+10	1	-1E+10	1	-1E+10	1	-1E+10	1	-1E+10	1	-1E+10	1
4902554	47	C	05/23/2022	15:58	-135.218	49.479	0	1993.70	0	1.9400	0	34.5830	0	27.653	0	1967.326	0	-1e10	8	-1e10	8	-1E+10	1	-1E+10	1	-1E+10	1	-1E+10	1	-1E+10	1	-1E+10	1
4902554	47	C	05/23/2022	15:58	-135.218	49.479	0																										
4902554	48	C	06/02/2022	20:56	-135.009	49.464	0	0.10	0	9.6450	0	32.2940	0	24.898	0	0.099	0	-1e10	8	-1e10	8	-1E+10	1	-1E+10	1	-1E+10	1	-1E+10	1	-1E+10	1	-1E+10	1
4902554	48	C	06/02/2022	20:56	-135.009	49.464	0	0.20	0	9.6520	0	32.2690	0	24.877	0	0.198	0	-1e10	1	-1e10	1	-1E+10	1	-1E+10	1	-1E+10	1	-1E+10	1	-1E+10	1	-1E+10	1
4902554	48	C	06/02/2022	20:56	-135.009	49.464	0	0.40	0	9.5780	0	32.1890	0	24.827	0	0.397	0	-1e10	8	-1e10	8	-1E+10	1	-1E+10	1	-1E+10	1	-1E+10	1	-1E+10	1	-1E+10	1
4902554	48	C	06/02/2022	20:56	-135.009	49.464	0	1.00	0	9.5730	0	32.1900	0	24.828	0	0.991	0	-1e10	8	-1e10	8	-1E+10	1	-1E+10	1	-1E+10	1	-1E+10	1	-1E+10	1	-1E+10	1
4902554	48	C	06/02/2022	20:56	-135.009	49.464	0	2.10	0	9.5500	0	32.1820	0	24.826	0	2.082	0	-1e10	8	-1e10	8	-1E+10	1	-1E+10	1	-1E+10	1	-1E+10	1	-1E+10	1	-1E+10	1
4902554	48	C	06/02/2022	20:56	-135.009	49.464	0	2.80	0	9.4920	0	32.2250	0	24.869	0	2.776	0	-1e10	8	-1e10	8	-1E+10	1	-1E+10	1	-1E+10	1	-1E+10	1	-1E+10	1	-1E+10	1
4902554	48	C	06/02/2022	20:56	-135.009	49.464	0	4.00	0	9.4700	0	32.2610	0	24.900	0	3.966	0	-1e10	8	-1e10	8	-1E+10	1	-1E+10	1	-1E+10	1	-1E+10	1	-1E+10	1	-1E+10	1
4902554	48	C	06/02/2022	20:56	-135.009	49.464	0	5.20	0	9.3970	0	32.3070	0	24.948	0	5.156	0	-1e10	8	-1e10	8	-1E+10	1	-1E+10	1	-1E+10	1	-1E+10	1	-1E+10	1	-1E+10	1
4902554	48	C	06/02/2022	20:56	-135.009	49.464	0	5.90	0	9.3410	0	32.3060	0	24.956	0	5.850	0	-1e10	8	-1e10	8	-1E+10	1	-1E+10	1	-1E+10	1	-1E+10	1	-1E+10	1	-1E+10	1
4902554	48	C	06/02/2022	20:56	-135.009	49.464	0	6.80	0	9.2180	0	32.3040	0	24.974	0	6.742	0	-1e10	8	-1e10	8	-1E+10	1	-1E+10	1	-1E+10	1	-1E+10	1	-1E+10	1	-1E+10	1
4902554	48	C	06/02/2022	20:56	-135.009	49.464	0	7.80	0	9.0950	0	32.3080	0	24.996	0	7.733	0	-1e10	8	-1e10	8	-1E+10	1	-1E+10	1	-1E+10	1	-1E+10	1	-1E+10	1	-1E+10	1
4902554	48	C	06/02/2022	20:56	-135.009	49.464	0	8.80	0	9.0460	0	32.3090	0	25.005	0	8.725	0	-1e10	8	-1e10	8	-1E+10	1	-1E+10	1	-1E+10	1	-1E+10	1	-1E+10	1	-1E+10	1
4902554	48	C	06/02/2022	20:56	-135.009	49.464	0	9.90	0	8.9610	0	32.3060	0	25.016	0	9.815	0	-1e10	8	-1e10	8	-1E+10	1	-1E+10	1	-1E+10	1	-1E+10	1	-1E+10	1	-1E+10	1
4902554	48	C	06/02/2022	20:56	-135.009	49.464	0	11.10	0	8.9060	0	32.3060	0	25.024	0	11.005	0	-1e10	8	-1e10	8	-1E+10	1	-1E+10	1	-1E+10	1	-1E+10	1	-1E+10	1	-1E+10	1
4902554	48	C	06/02/2022	20:56	-135.009	49.464	0	12.00	0	8.8880	0	32.3050	0	25.026	0	11.897	0	-1e10	8	-1e10	8	-1E+10	1	-1E+10	1	-1E+10	1	-1E+10	1	-1E+10	1	-1E+10	1
4902554	48	C	06/02/2022	20:56	-135.009	49.464	0	12.80	0	8.8800	0	32.3050	0	25.027	0	12.690	0	-1e10	8	-1e10	8	-1E+10	1	-1E+10	1	-1E+10	1	-1E+10	1	-1E+10	1	-1E+10	1
4902554	48	C	06/02/2022	20:56	-135.009	49.464	0	14.00	0	8.8650	0	32.3050	0	25.030	0	13.880	0	-1e10	8	-1e10	8	-1E+10	1	-1E+10	1	-1E+10	1	-1E+10	1	-1E+10	1	-1E+10	1
4902554	48	C	06/02/2022	20:56	-135.009	49.464	0	14.90	0	8.8530	0	32.3060	0	25.032	0	14.772	0	-1e10	8	-1e10	8	-1E+10	1	-1E+10	1	-1E+10	1	-1E+10	1	-1E+10	1	-1E+10	1
4902554	48	C	06/02/2022	20:56	-135.009	49.464	0	15.80	0	8.8500	0	32.3050	0	25.032	0	15.665	0	-1e10	8	-1e10	8	-1E+10	1	-1E+10	1	-1E+10	1	-1E+10	1	-1E+10	1	-1E+10	1
4902554	48	C	06/02/2022	20:56	-135.009	49.464	0	17.00	0	8.8460	0	32.3060	0	25.034	0	16.854	0	-1e10	8	-1e10	8	-1E+10	1	-1E+10	1	-1E+10	1	-1E+10	1	-1E+10	1	-1E+10	1
4902554	48	C	06/02/2022	20:56	-135.009	49.464	0	18.00	0	8.8440	0	32.3060	0	25.034	0	17.846	0	-1e10	8	-1e10	8	-1E+10	1	-1E+10	1	-1E+10	1	-1E+10	1	-1E+10	1	-1E+10	1
4902554	48	C	06/02/2022	20:56	-135.009	49.464	0	18.80	0	8.8400	0	32.3060	0	25.034	0	18.639	0	-1e10	8	-1e10	8	-1E+10	1	-1E+10	1	-1E+10	1	-1E+10	1	-1E+10	1	-1E+10	1
4902554	48	C	06/02/2022	20:56	-135.009	49.464	0	20.10	0	8.8340	0	32.3060	0	25.035	0	19.928	0	-1e10	8	-1e10	8	-1E+10	1	-1E+10	1	-1E+10	1	-1E+10	1	-1E+10	1	-1E+10	1
4902554	48	C	06/02/2022	20:56	-135.009	49.464	0	21.00	0	8.8290	0	32.3060	0	25.036	0	20.820	0	-1e10	8	-1e10	8	-1E+10	1	-1E+10	1	-1E+10	1	-1E+10	1	-1E+10	1	-1E+10	1
4902554	48	C	06/02/2022	20:56	-135.009	49.464	0	21.90	0	8.8290	0	32.3060	0	25.036	0	21.712	0	-1e10	8	-1e10	8	-1E+10	1	-1E+10	1	-1E+10	1	-1E+10	1	-1E+10	1	-1E+10	1
4902554	48	C	06/02/2022	20:56	-135.009	49.464	0	23.10	0	8.8290	0	32.3060	0	25.036	0	22.902	0	-1e10	8	-1e10	8	-1E+10	1	-1E+10	1	-1E+10	1	-1E+10	1	-1E+10	1	-1E+10	1
4902554	48	C	06/02/2022	20:56	-135.009	49.464	0	24.00	0	8.8280	0	32.3060	0	25.036	0	23.794	0	-1e10	8	-1e10	8	-1E+10	1	-1E+10	1	-1E+10	1	-1E+10	1	-1E+10	1	-1E+10	1
4902554	48	C	06/02/2022	20:56	-135.009	49.464	0	24.90	0	8.8250	0	32.3060	0	25.037	0	24.686	0	-1e10	8	-1e10	8	-1E+10	1	-1E+10	1	-1E+10	1	-1E+10	1	-1E+10	1	-1E+10	1
4902554	48	C	06/02/2022	20:56	-135.009	49.464	0	25.90	0	8.8220	0	32.3050	0	25.037	0	25.678	0	-1e10	8	-1e10	8	-1E+10	1	-1E+10	1	-1E+10	1	-1E+10	1	-1E+10	1	-1E+10	1
4902554	48	C	06/02/2022	20:56	-135.009	49.464	0	26.80	0	8.8180	0	32.3060	0	25.038	0	26.570	0	-1e10	8	-1e10	8	-1E+10	1	-1E+10	1	-1E+10	1	-1E+10	1	-1E+10	1	-1E+10	1
4902554	48	C	06/02/2022	20:56	-135.009	49.464	0	28.00	0	8.8150	0	32.3050	0	25.038	0	27.759	0	-1e10	8	-1e10	8	-1E+10	1	-1E+10	1	-1E+10	1	-1E+10	1	-1E+10	1	-1E+10	1
4902554	48	C	06/02/2022	20:56	-135.009	49.464	0	29.00	0	8.8120	0	32.3060	0	25.039	0	28.751	0	-1e10	8	-1e10	8	-1E+10	1	-1E+10	1	-1E+10	1	-1E+10	1	-1E+10	1	-1E+10	1
4902554	48	C	06/02/2022	20:56	-135.009	49.464	0	29.90	0	8.8100	0	32.3050	0	25.038	0	29.643	0	-1e10	8	-1e10	8	-1E+10	1	-1E+10	1	-1E+10	1	-1E+10	1	-1E+10	1	-1E+10	1
4902554	48	C	06/02/2022	20:56	-135.009	49.464	0	31.10	0	8.8080	0	32.3050	0	25.039	0	30.833	0	-1e10	8	-1e10	8	-1E+10	1	-1E+10	1	-1E+10	1	-1E+10	1	-1E+10	1	-1E+10	1
4902554	48	C	06/02/2022	20:56	-135.009	49.464	0	32.10	0	8.8060	0	32.3050	0	25.039	0	31.824	0	-1e10	8	-1e10	8	-1E+10	1	-1E+10	1	-1E+10	1	-1E+10	1	-1E+10	1	-1E+10	1
4902554	48	C	06/02/2022	20:56	-135.009	49.464	0	33.00	0	8.8040	0	32.3050	0	25.039	0	32.716	0	-1e10	8	-1e10	8	-1E+10	1	-1E+10	1	-1E+10	1	-1E+10	1	-1E+10	1	-1E+10	1
4902554	48	C	06/02/2022	20:56	-135.009	49.464	0	33.90	0	8.8020	0	32.3050	0	25.040	0	33.608	0	-1e10	8	-1e10	8	-1E+10	1	-1E+10	1	-1E+10	1	-1E+10	1	-1E+10	1	-1E+10	1
4902554	48	C	06/02/2022	20:56	-135.009	49.464	0	34.80	0	8.7990	0	32.3050	0	25.040	0	34.500	0	-1e10	8	-1e10	8	-1E+10	1	-1E+10	1	-1E+10	1	-1E+10	1	-1E+10	1	-1E+10	1
4902554	48	C	06/02/2022	20:56	-135.009	49.464	0	36.10	0	8.7950	0	32.3040	0	25.040	0	35.789	0	-1e10	8	-1e10	8	-1E+10	1	-1E+10	1	-1E+10	1	-1E+10	1	-1E+10	1	-1E+10	1
4902554	48	C	06/02/2022	20:56	-135.009	49.464	0	36.90	0	8.7900	0	32.3040	0	25.041	0	36.582	0	-1e10	8	-1e10	8	-1E+10	1	-1E+10	1	-1E+10	1	-1E+10	1	-1E+10	1	-1E+10	1
4902554	48	C	06/02/2022	20:56	-135.009	49.464	0	37.80	0	8.7810	0	32.3030	0	25.041	0	37.474	0	-1e10	8	-1e10	8	-1E+10	1	-1E+10	1	-1E+10	1	-1E+10	1	-1E+10	1	-1E+10	1
4902554	48	C	06/02/2022	20:56	-135.009	49.464	0	39.00	0	8.7540	0	32.3030	0	25.046	0	38.664	0	-1e10	8	-1e10	8	-1E+10	1	-1E+10	1	-1E+10	1	-1E+10	1	-1E+10	1	-1E+10	1
4902554	48	C	06/02/2022	20:56	-135.009	49.464	0	39.90	0	8.6800	0	32.3110	0	25.063	0	39.556	0	-1e10	8	-1e10	8	-1E+10	1	-1E+10	1	-1E+10	1	-1E+10	1	-1E+10	1	-1E+10	1
4902554	48	C	06/02/2022	20:56	-135.009	49.464	0	40.80	0	8.5660	0	32.3200	0	25.087	0	40.448	0	-1e10	8	-1e10	8	-1E+10	1	-1E+10	1	-1E+10	1	-1E+10	1	-1E+10	1	-1E+10	1
4902554	48	C	06/02/2022	20:56	-135.009	49.464	0	42.10	0	8.5120	0	32.3230	0	25.098	0	41.737	0	-1e10	8	-1e10	8	-1E+10	1	-1E+10	1	-1E+10	1	-1E+10	1	-1E+10	1	-1E+10	1
4902554	48	C	06/02/2022	20:56	-135.009	49.464	0	43.10	0	8.4670	0	32.3260	0	25.107	0	42.728	0	-1e10	8	-1e10	8	-1E+10	1	-1E+10	1	-1E+10	1	-1E+10	1	-1E+10	1	-1E+10	1
4902554	48	C	06/02/2022	20:56	-135.009	49.464	0	44.00	0	8.4470	0	32.3270	0	25.111	0	43.620	0	-1e10	8	-1e10	8	-1E+10	1	-1E+10	1	-1E+10	1	-1E+10	1	-1E+10	1	-1E+10	1
4902554	48	C	06/02/2022	20:56	-135.009	49.464	0	45.00	0	8.4250	0	32.3280	0	25.115	0	44.612	0	-1e10	8	-1e10	8	-1E+10	1	-1E+10	1	-1E+10	1	-1E+10	1	-1E+10	1	-1E+10	1
4902554	48	C	06/02/2022	20:56	-135.009	49.464	0	45.70	0	8.3990	0	32.3300	0	25.120	0	45.305	0	-1e10	8	-1e10	8	-1E+10	1	-1E+10	1	-1E+10	1	-1E+10	1	-1E+10	1	-1E+10	1
4902554	48	C	06/02/2022	20:56	-135.009	49.464	0	47.00	0	8.3550	0	32.3310	0	25.127	0	46.594	0	-1e10	8	-1e10	8	-1E+10	1	-1E+10	1	-1E+10	1	-1E+10	1	-1E+10	1	-1E+10	1
4902554	48	C	06/02/2022	20:56	-135.009	49.464	0	47.90	0	8.3000	0	32.3320	0	25.136	0	47.486	0	-1e10	8	-1e10	8	-1E+10	1	-1E+10	1	-1E+10	1	-1E+10	1	-1E+10	1	-1E+10	1
4902554	48	C	06/02/2022	20:56	-135.009	49.464	0	49.10	0	8.1830	0	32.3360	0	25.157	0	48.676	0	-1e10	8	-1e10	8	-1E+10	1	-1E+10	1	-1E+10	1	-1E+10	1	-1E+10	1	-1E+10	1
4902554	48	C	06/02/2022	20:56	-135.009	49.464	0	50.00	0	8.0320	0	32.3450	0	25.186	0	49.568	0	-1e10	8	-1e10	8	-1E+10	1	-1E+10	1	-1E+10	1	-1E+10	1	-1E+10	1	-1E+10	1
4902554	48	C	06/02/2022	20:56	-135.009	49.464	0	51.00	0	7.9070	0	32.3490	0	25.207	0	50.559	0	-1e10	8	-1e10	8	-1E+10	1	-1E+10	1	-1E+10	1	-1E+10	1	-1E+10	1	-1E+10	1
4902554	48	C	06/02/2022	20:56	-135.009	49.464	0	52.20	0	7.7630	0	32.3590	0	25.235	0	51.748	0	-1e10	8	-1e10	8	-1E+10	1	-1E+10	1	-1E+10	1	-1E+10	1	-1E+10	1	-1E+10	1
4902554	48	C	06/02/2022	20:56	-135.009	49.464	0	52.80	0	7.7030	0	32.3580	0	25.243	0	52.343	0	-1e10	8	-1e10	8	-1E+10	1	-1E+10	1	-1E+10	1	-1E+10	1	-1E+10	1	-1E+10	1
4902554	48	C	06/02/2022	20:56	-135.009	49.464	0	53.90	0	7.6360	0	32.3580	0	25.252	0	53.434	0	-1e10	8	-1e10	8	-1E+10	1	-1E+10	1	-1E+10	1	-1E+10	1	-1E+10	1	-1E+10	1
4902554	48	C	06/02/2022	20:56	-135.009	49.464	0	55.10	0	7.5100	0	32.3630	0	25.274	0	54.623	0	-1e10	8	-1e10	8	-1E+10	1	-1E+10	1	-1E+10	1	-1E+10	1	-1E+10	1	-1E+10	1
4902554	48	C	06/02/2022	20:56	-135.009	49.464	0	55.90	0	7.4900	0	32.3650	0	25.278	0	55.416	0	-1e10	8	-1e10	8	-1E+10	1	-1E+10	1	-1E+10	1	-1E+10	1	-1E+10	1	-1E+10	1
4902554	48	C	06/02/2022	20:56	-135.009	49.464	0	57.20	0	7.4360	0	32.3680	0	25.288	0	56.705	0	-1e10	8	-1e10	8	-1E+10	1	-1E+10	1	-1E+10	1	-1E+10	1	-1E+10	1	-1E+10	1
4902554	48	C	06/02/2022	20:56	-135.009	49.464	0	57.80	0	7.4170	0	32.3670	0	25.290	0	57.299	0	-1e10	8	-1e10	8	-1E+10	1	-1E+10	1	-1E+10	1	-1E+10	1	-1E+10	1	-1E+10	1
4902554	48	C	06/02/2022	20:56	-135.009	49.464	0	59.10	0	7.3720	0	32.3660	0	25.295	0	58.588	0	-1e10	8	-1e10	8	-1E+10	1	-1E+10	1	-1E+10	1	-1E+10	1	-1E+10	1	-1E+10	1
4902554	48	C	06/02/2022	20:56	-135.009	49.464	0	60.00	0	7.3030	0	32.3670	0	25.305	0	59.480	0	-1e10	8	-1e10	8	-1E+10	1	-1E+10	1	-1E+10	1	-1E+10	1	-1E+10	1	-1E+10	1
4902554	48	C	06/02/2022	20:56	-135.009	49.464	0	61.00	0	7.1630	0	32.3730	0	25.329	0	60.471	0	-1e10	8	-1e10	8	-1E+10	1	-1E+10	1	-1E+10	1	-1E+10	1	-1E+10	1	-1E+10	1
4902554	48	C	06/02/2022	20:56	-135.009	49.464	0	62.00	0	7.0980	0	32.3750	0	25.339	0	61.462	0	-1e10	8	-1e10	8	-1E+10	1	-1E+10	1	-1E+10	1	-1E+10	1	-1E+10	1	-1E+10	1
4902554	48	C	06/02/2022	20:56	-135.009	49.464	0	63.10	0	7.0320	0	32.3830	0	25.354	0	62.553	0	-1e10	8	-1e10	8	-1E+10	1	-1E+10	1	-1E+10	1	-1E+10	1	-1E+10	1	-1E+10	1
4902554	48	C	06/02/2022	20:56	-135.009	49.464	0	64.00	0	6.9960	0	32.3780	0	25.355	0	63.445	0	-1e10	8	-1e10	8	-1E+10	1	-1E+10	1	-1E+10	1	-1E+10	1	-1E+10	1	-1E+10	1
4902554	48	C	06/02/2022	20:56	-135.009	49.464	0	64.80	0	6.9900	0	32.3780	0	25.356	0	64.238	0	-1e10	8	-1e10	8	-1E+10	1	-1E+10	1	-1E+10	1	-1E+10	1	-1E+10	1	-1E+10	1
4902554	48	C	06/02/2022	20:56	-135.009	49.464	0	65.90	0	6.9770	0	32.3780	0	25.358	0	65.328	0	-1e10	8	-1e10	8	-1E+10	1	-1E+10	1	-1E+10	1	-1E+10	1	-1E+10	1	-1E+10	1
4902554	48	C	06/02/2022	20:56	-135.009	49.464	0	67.10	0	6.9690	0	32.3780	0	25.359	0	66.517	0	-1e10	8	-1e10	8	-1E+10	1	-1E+10	1	-1E+10	1	-1E+10	1	-1E+10	1	-1E+10	1
4902554	48	C	06/02/2022	20:56	-135.009	49.464	0	68.00	0	6.9690	0	32.3780	0	25.359	0	67.409	0	-1e10	8	-1e10	8	-1E+10	1	-1E+10	1	-1E+10	1	-1E+10	1	-1E+10	1	-1E+10	1
4902554	48	C	06/02/2022	20:56	-135.009	49.464	0	68.90	0	6.9700	0	32.3780	0	25.359	0	68.301	0	-1e10	8	-1e10	8	-1E+10	1	-1E+10	1	-1E+10	1	-1E+10	1	-1E+10	1	-1E+10	1
4902554	48	C	06/02/2022	20:56	-135.009	49.464	0	70.10	0	6.9740	0	32.3790	0	25.359	0	69.491	0	-1e10	8	-1e10	8	-1E+10	1	-1E+10	1	-1E+10	1	-1E+10	1	-1E+10	1	-1E+10	1
4902554	48	C	06/02/2022	20:56	-135.009	49.464	0	71.00	0	6.9780	0	32.3810	0	25.360	0	70.383	0	-1e10	8	-1e10	8	-1E+10	1	-1E+10	1	-1E+10	1	-1E+10	1	-1E+10	1	-1E+10	1
4902554	48	C	06/02/2022	20:56	-135.009	49.464	0	71.90	0	6.9750	0	32.3790	0	25.359	0	71.275	0	-1e10	8	-1e10	8	-1E+10	1	-1E+10	1	-1E+10	1	-1E+10	1	-1E+10	1	-1E+10	1
4902554	48	C	06/02/2022	20:56	-135.009	49.464	0	73.00	0	6.9810	0	32.3800	0	25.359	0	72.365	0	-1e10	8	-1e10	8	-1E+10	1	-1E+10	1	-1E+10	1	-1E+10	1	-1E+10	1	-1E+10	1
4902554	48	C	06/02/2022	20:56	-135.009	49.464	0	73.90	0	6.9830	0	32.3810	0	25.360	0	73.257	0	-1e10	8	-1e10	8	-1E+10	1	-1E+10	1	-1E+10	1	-1E+10	1	-1E+10	1	-1E+10	1
4902554	48	C	06/02/2022	20:56	-135.009	49.464	0	74.90	0	6.9670	0	32.3830	0	25.363	0	74.248	0	-1e10	8	-1e10	8	-1E+10	1	-1E+10	1	-1E+10	1	-1E+10	1	-1E+10	1	-1E+10	1
4902554	48	C	06/02/2022	20:56	-135.009	49.464	0	76.00	0	6.9400	0	32.3860	0	25.369	0	75.338	0	-1e10	8	-1e10	8	-1E+10	1	-1E+10	1	-1E+10	1	-1E+10	1	-1E+10	1	-1E+10	1
4902554	48	C	06/02/2022	20:56	-135.009	49.464	0	76.90	0	6.9290	0	32.3860	0	25.371	0	76.230	0	-1e10	8	-1e10	8	-1E+10	1	-1E+10	1	-1E+10	1	-1E+10	1	-1E+10	1	-1E+10	1
4902554	48	C	06/02/2022	20:56	-135.009	49.464	0	77.80	0	6.9220	0	32.3850	0	25.371	0	77.122	0	-1e10	8	-1e10	8	-1E+10	1	-1E+10	1	-1E+10	1	-1E+10	1	-1E+10	1	-1E+10	1
4902554	48	C	06/02/2022	20:56	-135.009	49.464	0	79.00	0	6.9210	0	32.3870	0	25.373	0	78.312	0	-1e10	8	-1e10	8	-1E+10	1	-1E+10	1	-1E+10	1	-1E+10	1	-1E+10	1	-1E+10	1
4902554	48	C	06/02/2022	20:56	-135.009	49.464	0	79.90	0	6.9020	0	32.3890	0	25.377	0	79.204	0	-1e10	8	-1e10	8	-1E+10	1	-1E+10	1	-1E+10	1	-1E+10	1	-1E+10	1	-1E+10	1
4902554	48	C	06/02/2022	20:56	-135.009	49.464	0	80.90	0	6.8680	0	32.3850	0	25.378	0	80.195	0	-1e10	8	-1e10	8	-1E+10	1	-1E+10	1	-1E+10	1	-1E+10	1	-1E+10	1	-1E+10	1
4902554	48	C	06/02/2022	20:56	-135.009	49.464	0	82.10	0	6.8690	0	32.3870	0	25.379	0	81.384	0	-1e10	8	-1e10	8	-1E+10	1	-1E+10	1	-1E+10	1	-1E+10	1	-1E+10	1	-1E+10	1
4902554	48	C	06/02/2022	20:56	-135.009	49.464	0	83.00	0	6.8670	0	32.3880	0	25.380	0	82.276	0	-1e10	8	-1e10	8	-1E+10	1	-1E+10	1	-1E+10	1	-1E+10	1	-1E+10	1	-1E+10	1
4902554	48	C	06/02/2022	20:56	-135.009	49.464	0	83.90	0	6.8650	0	32.3880	0	25.381	0	83.168	0	-1e10	8	-1e10	8	-1E+10	1	-1E+10	1	-1E+10	1	-1E+10	1	-1E+10	1	-1E+10	1
4902554	48	C	06/02/2022	20:56	-135.009	49.464	0	85.10	0	6.8570	0	32.3900	0	25.383	0	84.357	0	-1e10	8	-1e10	8	-1E+10	1	-1E+10	1	-1E+10	1	-1E+10	1	-1E+10	1	-1E+10	1
4902554	48	C	06/02/2022	20:56	-135.009	49.464	0	86.00	0	6.8510	0	32.3900	0	25.384	0	85.249	0	-1e10	8	-1e10	8	-1E+10	1	-1E+10	1	-1E+10	1	-1E+10	1	-1E+10	1	-1E+10	1
4902554	48	C	06/02/2022	20:56	-135.009	49.464	0	86.80	0	6.8440	0	32.3910	0	25.386	0	86.042	0	-1e10	8	-1e10	8	-1E+10	1	-1E+10	1	-1E+10	1	-1E+10	1	-1E+10	1	-1E+10	1
4902554	48	C	06/02/2022	20:56	-135.009	49.464	0	88.00	0	6.8360	0	32.3910	0	25.387	0	87.231	0	-1e10	8	-1e10	8	-1E+10	1	-1E+10	1	-1E+10	1	-1E+10	1	-1E+10	1	-1E+10	1
4902554	48	C	06/02/2022	20:56	-135.009	49.464	0	89.10	0	6.8240	0	32.3910	0	25.389	0	88.321	0	-1e10	8	-1e10	8	-1E+10	1	-1E+10	1	-1E+10	1	-1E+10	1	-1E+10	1	-1E+10	1
4902554	48	C	06/02/2022	20:56	-135.009	49.464	0	90.00	0	6.8210	0	32.3930	0	25.391	0	89.213	0	-1e10	8	-1e10	8	-1E+10	1	-1E+10	1	-1E+10	1	-1E+10	1	-1E+10	1	-1E+10	1
4902554	48	C	06/02/2022	20:56	-135.009	49.464	0	90.80	0	6.8130	0	32.3940	0	25.392	0	90.006	0	-1e10	8	-1e10	8	-1E+10	1	-1E+10	1	-1E+10	1	-1E+10	1	-1E+10	1	-1E+10	1
4902554	48	C	06/02/2022	20:56	-135.009	49.464	0	92.00	0	6.7870	0	32.3950	0	25.397	0	91.195	0	-1e10	8	-1e10	8	-1E+10	1	-1E+10	1	-1E+10	1	-1E+10	1	-1E+10	1	-1E+10	1
4902554	48	C	06/02/2022	20:56	-135.009	49.464	0	93.10	0	6.7720	0	32.3990	0	25.402	0	92.286	0	-1e10	8	-1e10	8	-1E+10	1	-1E+10	1	-1E+10	1	-1E+10	1	-1E+10	1	-1E+10	1
4902554	48	C	06/02/2022	20:56	-135.009	49.464	0	93.90	0	6.7680	0	32.4000	0	25.403	0	93.078	0	-1e10	8	-1e10	8	-1E+10	1	-1E+10	1	-1E+10	1	-1E+10	1	-1E+10	1	-1E+10	1
4902554	48	C	06/02/2022	20:56	-135.009	49.464	0	94.70	0	6.7550	0	32.4010	0	25.405	0	93.871	0	-1e10	8	-1e10	8	-1E+10	1	-1E+10	1	-1E+10	1	-1E+10	1	-1E+10	1	-1E+10	1
4902554	48	C	06/02/2022	20:56	-135.009	49.464	0	95.90	0	6.7490	0	32.4020	0	25.407	0	95.060	0	-1e10	8	-1e10	8	-1E+10	1	-1E+10	1	-1E+10	1	-1E+10	1	-1E+10	1	-1E+10	1
4902554	48	C	06/02/2022	20:56	-135.009	49.464	0	97.00	0	6.7350	0	32.4070	0	25.413	0	96.151	0	-1e10	8	-1e10	8	-1E+10	1	-1E+10	1	-1E+10	1	-1E+10	1	-1E+10	1	-1E+10	1
4902554	48	C	06/02/2022	20:56	-135.009	49.464	0	98.10	0	6.7210	0	32.4120	0	25.419	0	97.241	0	-1e10	8	-1e10	8	-1E+10	1	-1E+10	1	-1E+10	1	-1E+10	1	-1E+10	1	-1E+10	1
4902554	48	C	06/02/2022	20:56	-135.009	49.464	0	99.10	0	6.7080	0	32.4190	0	25.426	0	98.232	0	-1e10	8	-1e10	8	-1E+10	1	-1E+10	1	-1E+10	1	-1E+10	1	-1E+10	1	-1E+10	1
4902554	48	C	06/02/2022	20:56	-135.009	49.464	0	100.10	0	6.6870	0	32.4310	0	25.438	0	99.223	0	-1e10	8	-1e10	8	-1E+10	1	-1E+10	1	-1E+10	1	-1E+10	1	-1E+10	1	-1E+10	1
4902554	48	C	06/02/2022	20:56	-135.009	49.464	0	101.10	0	6.6690	0	32.4380	0	25.446	0	100.214	0	-1e10	8	-1e10	8	-1E+10	1	-1E+10	1	-1E+10	1	-1E+10	1	-1E+10	1	-1E+10	1
4902554	48	C	06/02/2022	20:56	-135.009	49.464	0	102.00	0	6.6200	0	32.4610	0	25.470	0	101.106	0	-1e10	8	-1e10	8	-1E+10	1	-1E+10	1	-1E+10	1	-1E+10	1	-1E+10	1	-1E+10	1
4902554	48	C	06/02/2022	20:56	-135.009	49.464	0	103.10	0	6.5380	0	32.5020	0	25.513	0	102.196	0	-1e10	8	-1e10	8	-1E+10	1	-1E+10	1	-1E+10	1	-1E+10	1	-1E+10	1	-1E+10	1
4902554	48	C	06/02/2022	20:56	-135.009	49.464	0	104.10	0	6.4910	0	32.5220	0	25.535	0	103.187	0	-1e10	8	-1e10	8	-1E+10	1	-1E+10	1	-1E+10	1	-1E+10	1	-1E+10	1	-1E+10	1
4902554	48	C	06/02/2022	20:56	-135.009	49.464	0	105.00	0	6.4290	0	32.5620	0	25.574	0	104.078	0	-1e10	8	-1e10	8	-1E+10	1	-1E+10	1	-1E+10	1	-1E+10	1	-1E+10	1	-1E+10	1
4902554	48	C	06/02/2022	20:56	-135.009	49.464	0	105.90	0	6.4040	0	32.5800	0	25.592	0	104.970	0	-1e10	8	-1e10	8	-1E+10	1	-1E+10	1	-1E+10	1	-1E+10	1	-1E+10	1	-1E+10	1
4902554	48	C	06/02/2022	20:56	-135.009	49.464	0	107.00	0	6.3870	0	32.5940	0	25.605	0	106.060	0	-1e10	8	-1e10	8	-1E+10	1	-1E+10	1	-1E+10	1	-1E+10	1	-1E+10	1	-1E+10	1
4902554	48	C	06/02/2022	20:56	-135.009	49.464	0	108.10	0	6.3620	0	32.6150	0	25.625	0	107.150	0	-1e10	8	-1e10	8	-1E+10	1	-1E+10	1	-1E+10	1	-1E+10	1	-1E+10	1	-1E+10	1
4902554	48	C	06/02/2022	20:56	-135.009	49.464	0	108.90	0	6.3070	0	32.6650	0	25.671	0	107.943	0	-1e10	8	-1e10	8	-1E+10	1	-1E+10	1	-1E+10	1	-1E+10	1	-1E+10	1	-1E+10	1
4902554	48	C	06/02/2022	20:56	-135.009	49.464	0	109.80	0	6.2640	0	32.7220	0	25.721	0	108.835	0	-1e10	8	-1e10	8	-1E+10	1	-1E+10	1	-1E+10	1	-1E+10	1	-1E+10	1	-1E+10	1
4902554	48	C	06/02/2022	20:56	-135.009	49.464	0	110.80	0	6.2260	0	32.7730	0	25.766	0	109.826	0	-1e10	8	-1e10	8	-1E+10	1	-1E+10	1	-1E+10	1	-1E+10	1	-1E+10	1	-1E+10	1
4902554	48	C	06/02/2022	20:56	-135.009	49.464	0	112.00	0	6.2180	0	32.7850	0	25.777	0	111.015	0	-1e10	8	-1e10	8	-1E+10	1	-1E+10	1	-1E+10	1	-1E+10	1	-1E+10	1	-1E+10	1
4902554	48	C	06/02/2022	20:56	-135.009	49.464	0	113.20	0	6.2170	0	32.7950	0	25.785	0	112.204	0	-1e10	8	-1e10	8	-1E+10	1	-1E+10	1	-1E+10	1	-1E+10	1	-1E+10	1	-1E+10	1
4902554	48	C	06/02/2022	20:56	-135.009	49.464	0	114.00	0	6.2160	0	32.8010	0	25.790	0	112.997	0	-1e10	8	-1e10	8	-1E+10	1	-1E+10	1	-1E+10	1	-1E+10	1	-1E+10	1	-1E+10	1
4902554	48	C	06/02/2022	20:56	-135.009	49.464	0	115.10	0	6.2180	0	32.8370	0	25.818	0	114.087	0	-1e10	8	-1e10	8	-1E+10	1	-1E+10	1	-1E+10	1	-1E+10	1	-1E+10	1	-1E+10	1
4902554	48	C	06/02/2022	20:56	-135.009	49.464	0	115.90	0	6.2090	0	32.8930	0	25.863	0	114.880	0	-1e10	8	-1e10	8	-1E+10	1	-1E+10	1	-1E+10	1	-1E+10	1	-1E+10	1	-1E+10	1
4902554	48	C	06/02/2022	20:56	-135.009	49.464	0	116.80	0	6.1600	0	32.9350	0	25.903	0	115.772	0	-1e10	8	-1e10	8	-1E+10	1	-1E+10	1	-1E+10	1	-1E+10	1	-1E+10	1	-1E+10	1
4902554	48	C	06/02/2022	20:56	-135.009	49.464	0	118.00	0	6.0780	0	32.9930	0	25.959	0	116.961	0	-1e10	8	-1e10	8	-1E+10	1	-1E+10	1	-1E+10	1	-1E+10	1	-1E+10	1	-1E+10	1
4902554	48	C	06/02/2022	20:56	-135.009	49.464	0	119.00	0	6.0430	0	33.0420	0	26.002	0	117.952	0	-1e10	8	-1e10	8	-1E+10	1	-1E+10	1	-1E+10	1	-1E+10	1	-1E+10	1	-1E+10	1
4902554	48	C	06/02/2022	20:56	-135.009	49.464	0	120.00	0	6.0380	0	33.0550	0	26.013	0	118.942	0	-1e10	8	-1e10	8	-1E+10	1	-1E+10	1	-1E+10	1	-1E+10	1	-1E+10	1	-1E+10	1
4902554	48	C	06/02/2022	20:56	-135.009	49.464	0	121.10	0	6.0330	0	33.0640	0	26.020	0	120.032	0	-1e10	8	-1e10	8	-1E+10	1	-1E+10	1	-1E+10	1	-1E+10	1	-1E+10	1	-1E+10	1
4902554	48	C	06/02/2022	20:56	-135.009	49.464	0	122.00	0	6.0210	0	33.0780	0	26.033	0	120.924	0	-1e10	8	-1e10	8	-1E+10	1	-1E+10	1	-1E+10	1	-1E+10	1	-1E+10	1	-1E+10	1
4902554	48	C	06/02/2022	20:56	-135.009	49.464	0	123.10	0	6.0170	0	33.0970	0	26.048	0	122.014	0	-1e10	8	-1e10	8	-1E+10	1	-1E+10	1	-1E+10	1	-1E+10	1	-1E+10	1	-1E+10	1
4902554	48	C	06/02/2022	20:56	-135.009	49.464	0	123.80	0	6.0160	0	33.1040	0	26.054	0	122.708	0	-1e10	8	-1e10	8	-1E+10	1	-1E+10	1	-1E+10	1	-1E+10	1	-1E+10	1	-1E+10	1
4902554	48	C	06/02/2022	20:56	-135.009	49.464	0	124.80	0	6.0100	0	33.1230	0	26.070	0	123.699	0	-1e10	8	-1e10	8	-1E+10	1	-1E+10	1	-1E+10	1	-1E+10	1	-1E+10	1	-1E+10	1
4902554	48	C	06/02/2022	20:56	-135.009	49.464	0	125.90	0	6.0070	0	33.1440	0	26.087	0	124.789	0	-1e10	8	-1e10	8	-1E+10	1	-1E+10	1	-1E+10	1	-1E+10	1	-1E+10	1	-1E+10	1
4902554	48	C	06/02/2022	20:56	-135.009	49.464	0	126.90	0	6.0040	0	33.1560	0	26.097	0	125.780	0	-1e10	8	-1e10	8	-1E+10	1	-1E+10	1	-1E+10	1	-1E+10	1	-1E+10	1	-1E+10	1
4902554	48	C	06/02/2022	20:56	-135.009	49.464	0	128.00	0	6.0040	0	33.2130	0	26.142	0	126.870	0	-1e10	8	-1e10	8	-1E+10	1	-1E+10	1	-1E+10	1	-1E+10	1	-1E+10	1	-1E+10	1
4902554	48	C	06/02/2022	20:56	-135.009	49.464	0	128.80	0	6.0050	0	33.2540	0	26.174	0	127.662	0	-1e10	8	-1e10	8	-1E+10	1	-1E+10	1	-1E+10	1	-1E+10	1	-1E+10	1	-1E+10	1
4902554	48	C	06/02/2022	20:56	-135.009	49.464	0	130.00	0	5.9870	0	33.2960	0	26.209	0	128.851	0	-1e10	8	-1e10	8	-1E+10	1	-1E+10	1	-1E+10	1	-1E+10	1	-1E+10	1	-1E+10	1
4902554	48	C	06/02/2022	20:56	-135.009	49.464	0	131.20	0	5.9940	0	33.3050	0	26.216	0	130.040	0	-1e10	8	-1e10	8	-1E+10	1	-1E+10	1	-1E+10	1	-1E+10	1	-1E+10	1	-1E+10	1
4902554	48	C	06/02/2022	20:56	-135.009	49.464	0	132.00	0	5.9940	0	33.3090	0	26.219	0	130.833	0	-1e10	8	-1e10	8	-1E+10	1	-1E+10	1	-1E+10	1	-1E+10	1	-1E+10	1	-1E+10	1
4902554	48	C	06/02/2022	20:56	-135.009	49.464	0	132.70	0	5.9880	0	33.3460	0	26.249	0	131.527	0	-1e10	8	-1e10	8	-1E+10	1	-1E+10	1	-1E+10	1	-1E+10	1	-1E+10	1	-1E+10	1
4902554	48	C	06/02/2022	20:56	-135.009	49.464	0	133.90	0	5.9500	0	33.3740	0	26.276	0	132.716	0	-1e10	8	-1e10	8	-1E+10	1	-1E+10	1	-1E+10	1	-1E+10	1	-1E+10	1	-1E+10	1
4902554	48	C	06/02/2022	20:56	-135.009	49.464	0	135.10	0	5.8740	0	33.4110	0	26.314	0	133.905	0	-1e10	8	-1e10	8	-1E+10	1	-1E+10	1	-1E+10	1	-1E+10	1	-1E+10	1	-1E+10	1
4902554	48	C	06/02/2022	20:56	-135.009	49.464	0	136.00	0	5.8570	0	33.4120	0	26.317	0	134.796	0	-1e10	8	-1e10	8	-1E+10	1	-1E+10	1	-1E+10	1	-1E+10	1	-1E+10	1	-1E+10	1
4902554	48	C	06/02/2022	20:56	-135.009	49.464	0	136.90	0	5.8440	0	33.4200	0	26.325	0	135.688	0	-1e10	8	-1e10	8	-1E+10	1	-1E+10	1	-1E+10	1	-1E+10	1	-1E+10	1	-1E+10	1
4902554	48	C	06/02/2022	20:56	-135.009	49.464	0	137.80	0	5.8280	0	33.4320	0	26.336	0	136.580	0	-1e10	8	-1e10	8	-1E+10	1	-1E+10	1	-1E+10	1	-1E+10	1	-1E+10	1	-1E+10	1
4902554	48	C	06/02/2022	20:56	-135.009	49.464	0	138.70	0	5.8040	0	33.4610	0	26.362	0	137.471	0	-1e10	8	-1e10	8	-1E+10	1	-1E+10	1	-1E+10	1	-1E+10	1	-1E+10	1	-1E+10	1
4902554	48	C	06/02/2022	20:56	-135.009	49.464	0	139.70	0	5.7980	0	33.4830	0	26.380	0	138.462	0	-1e10	8	-1e10	8	-1E+10	1	-1E+10	1	-1E+10	1	-1E+10	1	-1E+10	1	-1E+10	1
4902554	48	C	06/02/2022	20:56	-135.009	49.464	0	140.60	0	5.7650	0	33.5010	0	26.399	0	139.354	0	-1e10	8	-1e10	8	-1E+10	1	-1E+10	1	-1E+10	1	-1E+10	1	-1E+10	1	-1E+10	1
4902554	48	C	06/02/2022	20:56	-135.009	49.464	0	141.60	0	5.7650	0	33.5220	0	26.415	0	140.345	0	-1e10	8	-1e10	8	-1E+10	1	-1E+10	1	-1E+10	1	-1E+10	1	-1E+10	1	-1E+10	1
4902554	48	C	06/02/2022	20:56	-135.009	49.464	0	142.60	0	5.7690	0	33.5440	0	26.432	0	141.336	0	-1e10	8	-1e10	8	-1E+10	1	-1E+10	1	-1E+10	1	-1E+10	1	-1E+10	1	-1E+10	1
4902554	48	C	06/02/2022	20:56	-135.009	49.464	0	143.60	0	5.7700	0	33.5460	0	26.434	0	142.326	0	-1e10	8	-1e10	8	-1E+10	1	-1E+10	1	-1E+10	1	-1E+10	1	-1E+10	1	-1E+10	1
4902554	48	C	06/02/2022	20:56	-135.009	49.464	0	144.60	0	5.8030	0	33.5720	0	26.450	0	143.317	0	-1e10	8	-1e10	8	-1E+10	1	-1E+10	1	-1E+10	1	-1E+10	1	-1E+10	1	-1E+10	1
4902554	48	C	06/02/2022	20:56	-135.009	49.464	0	145.60	0	5.8160	0	33.5820	0	26.457	0	144.308	0	-1e10	8	-1e10	8	-1E+10	1	-1E+10	1	-1E+10	1	-1E+10	1	-1E+10	1	-1E+10	1
4902554	48	C	06/02/2022	20:56	-135.009	49.464	0	146.60	0	5.8150	0	33.5910	0	26.464	0	145.299	0	-1e10	8	-1e10	8	-1E+10	1	-1E+10	1	-1E+10	1	-1E+10	1	-1E+10	1	-1E+10	1
4902554	48	C	06/02/2022	20:56	-135.009	49.464	0	147.60	0	5.8070	0	33.5980	0	26.470	0	146.289	0	-1e10	8	-1e10	8	-1E+10	1	-1E+10	1	-1E+10	1	-1E+10	1	-1E+10	1	-1E+10	1
4902554	48	C	06/02/2022	20:56	-135.009	49.464	0	148.60	0	5.7910	0	33.6070	0	26.479	0	147.280	0	-1e10	8	-1e10	8	-1E+10	1	-1E+10	1	-1E+10	1	-1E+10	1	-1E+10	1	-1E+10	1
4902554	48	C	06/02/2022	20:56	-135.009	49.464	0	149.90	0	5.7710	0	33.6130	0	26.487	0	148.568	0	-1e10	8	-1e10	8	-1E+10	1	-1E+10	1	-1E+10	1	-1E+10	1	-1E+10	1	-1E+10	1
4902554	48	C	06/02/2022	20:56	-135.009	49.464	0	151.40	0	5.7510	0	33.6220	0	26.496	0	150.054	0	-1e10	8	-1e10	8	-1E+10	1	-1E+10	1	-1E+10	1	-1E+10	1	-1E+10	1	-1E+10	1
4902554	48	C	06/02/2022	20:56	-135.009	49.464	0	152.10	0	5.7470	0	33.6250	0	26.499	0	150.748	0	-1e10	8	-1e10	8	-1E+10	1	-1E+10	1	-1E+10	1	-1E+10	1	-1E+10	1	-1E+10	1
4902554	48	C	06/02/2022	20:56	-135.009	49.464	0	152.80	0	5.7470	0	33.6260	0	26.500	0	151.441	0	-1e10	8	-1e10	8	-1E+10	1	-1E+10	1	-1E+10	1	-1E+10	1	-1E+10	1	-1E+10	1
4902554	48	C	06/02/2022	20:56	-135.009	49.464	0	153.90	0	5.7460	0	33.6270	0	26.501	0	152.531	0	-1e10	8	-1e10	8	-1E+10	1	-1E+10	1	-1E+10	1	-1E+10	1	-1E+10	1	-1E+10	1
4902554	48	C	06/02/2022	20:56	-135.009	49.464	0	155.00	0	5.7430	0	33.6300	0	26.504	0	153.621	0	-1e10	8	-1e10	8	-1E+10	1	-1E+10	1	-1E+10	1	-1E+10	1	-1E+10	1	-1E+10	1
4902554	48	C	06/02/2022	20:56	-135.009	49.464	0	156.00	0	5.7200	0	33.6380	0	26.513	0	154.612	0	-1e10	8	-1e10	8	-1E+10	1	-1E+10	1	-1E+10	1	-1E+10	1	-1E+10	1	-1E+10	1
4902554	48	C	06/02/2022	20:56	-135.009	49.464	0	157.20	0	5.7020	0	33.6450	0	26.520	0	155.801	0	-1e10	8	-1e10	8	-1E+10	1	-1E+10	1	-1E+10	1	-1E+10	1	-1E+10	1	-1E+10	1
4902554	48	C	06/02/2022	20:56	-135.009	49.464	0	157.90	0	5.6890	0	33.6530	0	26.528	0	156.494	0	-1e10	8	-1e10	8	-1E+10	1	-1E+10	1	-1E+10	1	-1E+10	1	-1E+10	1	-1E+10	1
4902554	48	C	06/02/2022	20:56	-135.009	49.464	0	158.70	0	5.6840	0	33.6540	0	26.530	0	157.287	0	-1e10	8	-1e10	8	-1E+10	1	-1E+10	1	-1E+10	1	-1E+10	1	-1E+10	1	-1E+10	1
4902554	48	C	06/02/2022	20:56	-135.009	49.464	0	159.80	0	5.6720	0	33.6590	0	26.535	0	158.376	0	-1e10	8	-1e10	8	-1E+10	1	-1E+10	1	-1E+10	1	-1E+10	1	-1E+10	1	-1E+10	1
4902554	48	C	06/02/2022	20:56	-135.009	49.464	0	161.00	0	5.6600	0	33.6650	0	26.541	0	159.565	0	-1e10	8	-1e10	8	-1E+10	1	-1E+10	1	-1E+10	1	-1E+10	1	-1E+10	1	-1E+10	1
4902554	48	C	06/02/2022	20:56	-135.009	49.464	0	161.80	0	5.6570	0	33.6660	0	26.542	0	160.358	0	-1e10	8	-1e10	8	-1E+10	1	-1E+10	1	-1E+10	1	-1E+10	1	-1E+10	1	-1E+10	1
4902554	48	C	06/02/2022	20:56	-135.009	49.464	0	162.90	0	5.6500	0	33.6680	0	26.545	0	161.448	0	-1e10	8	-1e10	8	-1E+10	1	-1E+10	1	-1E+10	1	-1E+10	1	-1E+10	1	-1E+10	1
4902554	48	C	06/02/2022	20:56	-135.009	49.464	0	164.10	0	5.6310	0	33.6760	0	26.554	0	162.637	0	-1e10	8	-1e10	8	-1E+10	1	-1E+10	1	-1E+10	1	-1E+10	1	-1E+10	1	-1E+10	1
4902554	48	C	06/02/2022	20:56	-135.009	49.464	0	164.90	0	5.6060	0	33.6840	0	26.563	0	163.429	0	-1e10	8	-1e10	8	-1E+10	1	-1E+10	1	-1E+10	1	-1E+10	1	-1E+10	1	-1E+10	1
4902554	48	C	06/02/2022	20:56	-135.009	49.464	0	166.00	0	5.5760	0	33.6900	0	26.571	0	164.519	0	-1e10	8	-1e10	8	-1E+10	1	-1E+10	1	-1E+10	1	-1E+10	1	-1E+10	1	-1E+10	1
4902554	48	C	06/02/2022	20:56	-135.009	49.464	0	167.20	0	5.5510	0	33.6950	0	26.578	0	165.708	0	-1e10	8	-1e10	8	-1E+10	1	-1E+10	1	-1E+10	1	-1E+10	1	-1E+10	1	-1E+10	1
4902554	48	C	06/02/2022	20:56	-135.009	49.464	0	168.10	0	5.5450	0	33.6950	0	26.579	0	166.599	0	-1e10	8	-1e10	8	-1E+10	1	-1E+10	1	-1E+10	1	-1E+10	1	-1E+10	1	-1E+10	1
4902554	48	C	06/02/2022	20:56	-135.009	49.464	0	168.90	0	5.5390	0	33.6960	0	26.580	0	167.392	0	-1e10	8	-1e10	8	-1E+10	1	-1E+10	1	-1E+10	1	-1E+10	1	-1E+10	1	-1E+10	1
4902554	48	C	06/02/2022	20:56	-135.009	49.464	0	169.70	0	5.5250	0	33.7000	0	26.585	0	168.184	0	-1e10	8	-1e10	8	-1E+10	1	-1E+10	1	-1E+10	1	-1E+10	1	-1E+10	1	-1E+10	1
4902554	48	C	06/02/2022	20:56	-135.009	49.464	0	170.90	0	5.5140	0	33.7000	0	26.587	0	169.373	0	-1e10	8	-1e10	8	-1E+10	1	-1E+10	1	-1E+10	1	-1E+10	1	-1E+10	1	-1E+10	1
4902554	48	C	06/02/2022	20:56	-135.009	49.464	0	172.10	0	5.5010	0	33.7030	0	26.591	0	170.562	0	-1e10	8	-1e10	8	-1E+10	1	-1E+10	1	-1E+10	1	-1E+10	1	-1E+10	1	-1E+10	1
4902554	48	C	06/02/2022	20:56	-135.009	49.464	0	172.90	0	5.4760	0	33.7090	0	26.598	0	171.354	0	-1e10	8	-1e10	8	-1E+10	1	-1E+10	1	-1E+10	1	-1E+10	1	-1E+10	1	-1E+10	1
4902554	48	C	06/02/2022	20:56	-135.009	49.464	0	173.70	0	5.4630	0	33.7130	0	26.603	0	172.147	0	-1e10	8	-1e10	8	-1E+10	1	-1E+10	1	-1E+10	1	-1E+10	1	-1E+10	1	-1E+10	1
4902554	48	C	06/02/2022	20:56	-135.009	49.464	0	174.90	0	5.4440	0	33.7170	0	26.608	0	173.336	0	-1e10	8	-1e10	8	-1E+10	1	-1E+10	1	-1E+10	1	-1E+10	1	-1E+10	1	-1E+10	1
4902554	48	C	06/02/2022	20:56	-135.009	49.464	0	176.20	0	5.4250	0	33.7180	0	26.611	0	174.623	0	-1e10	8	-1e10	8	-1E+10	1	-1E+10	1	-1E+10	1	-1E+10	1	-1E+10	1	-1E+10	1
4902554	48	C	06/02/2022	20:56	-135.009	49.464	0	177.00	0	5.4060	0	33.7200	0	26.615	0	175.416	0	-1e10	8	-1e10	8	-1E+10	1	-1E+10	1	-1E+10	1	-1E+10	1	-1E+10	1	-1E+10	1
4902554	48	C	06/02/2022	20:56	-135.009	49.464	0	177.80	0	5.3970	0	33.7220	0	26.618	0	176.208	0	-1e10	8	-1e10	8	-1E+10	1	-1E+10	1	-1E+10	1	-1E+10	1	-1E+10	1	-1E+10	1
4902554	48	C	06/02/2022	20:56	-135.009	49.464	0	178.70	0	5.3840	0	33.7230	0	26.620	0	177.100	0	-1e10	8	-1e10	8	-1E+10	1	-1E+10	1	-1E+10	1	-1E+10	1	-1E+10	1	-1E+10	1
4902554	48	C	06/02/2022	20:56	-135.009	49.464	0	179.90	0	5.3580	0	33.7270	0	26.626	0	178.289	0	-1e10	8	-1e10	8	-1E+10	1	-1E+10	1	-1E+10	1	-1E+10	1	-1E+10	1	-1E+10	1
4902554	48	C	06/02/2022	20:56	-135.009	49.464	0	181.20	0	5.3440	0	33.7270	0	26.628	0	179.577	0	-1e10	8	-1e10	8	-1E+10	1	-1E+10	1	-1E+10	1	-1E+10	1	-1E+10	1	-1E+10	1
4902554	48	C	06/02/2022	20:56	-135.009	49.464	0	182.00	0	5.3410	0	33.7270	0	26.628	0	180.369	0	-1e10	8	-1e10	8	-1E+10	1	-1E+10	1	-1E+10	1	-1E+10	1	-1E+10	1	-1E+10	1
4902554	48	C	06/02/2022	20:56	-135.009	49.464	0	182.90	0	5.3400	0	33.7270	0	26.629	0	181.261	0	-1e10	8	-1e10	8	-1E+10	1	-1E+10	1	-1E+10	1	-1E+10	1	-1E+10	1	-1E+10	1
4902554	48	C	06/02/2022	20:56	-135.009	49.464	0	183.70	0	5.3370	0	33.7270	0	26.629	0	182.053	0	-1e10	8	-1e10	8	-1E+10	1	-1E+10	1	-1E+10	1	-1E+10	1	-1E+10	1	-1E+10	1
4902554	48	C	06/02/2022	20:56	-135.009	49.464	0	185.00	0	5.3190	0	33.7290	0	26.633	0	183.341	0	-1e10	8	-1e10	8	-1E+10	1	-1E+10	1	-1E+10	1	-1E+10	1	-1E+10	1	-1E+10	1
4902554	48	C	06/02/2022	20:56	-135.009	49.464	0	186.30	0	5.2880	0	33.7320	0	26.639	0	184.629	0	-1e10	8	-1e10	8	-1E+10	1	-1E+10	1	-1E+10	1	-1E+10	1	-1E+10	1	-1E+10	1
4902554	48	C	06/02/2022	20:56	-135.009	49.464	0	187.10	0	5.2840	0	33.7320	0	26.639	0	185.421	0	-1e10	8	-1e10	8	-1E+10	1	-1E+10	1	-1E+10	1	-1E+10	1	-1E+10	1	-1E+10	1
4902554	48	C	06/02/2022	20:56	-135.009	49.464	0	188.00	0	5.2830	0	33.7310	0	26.638	0	186.313	0	-1e10	8	-1e10	8	-1E+10	1	-1E+10	1	-1E+10	1	-1E+10	1	-1E+10	1	-1E+10	1
4902554	48	C	06/02/2022	20:56	-135.009	49.464	0	188.80	0	5.2810	0	33.7310	0	26.639	0	187.105	0	-1e10	8	-1e10	8	-1E+10	1	-1E+10	1	-1E+10	1	-1E+10	1	-1E+10	1	-1E+10	1
4902554	48	C	06/02/2022	20:56	-135.009	49.464	0	189.70	0	5.2780	0	33.7310	0	26.639	0	187.997	0	-1e10	8	-1e10	8	-1E+10	1	-1E+10	1	-1E+10	1	-1E+10	1	-1E+10	1	-1E+10	1
4902554	48	C	06/02/2022	20:56	-135.009	49.464	0	190.90	0	5.2610	0	33.7320	0	26.642	0	189.185	0	-1e10	8	-1e10	8	-1E+10	1	-1E+10	1	-1E+10	1	-1E+10	1	-1E+10	1	-1E+10	1
4902554	48	C	06/02/2022	20:56	-135.009	49.464	0	192.20	0	5.2500	0	33.7320	0	26.643	0	190.473	0	-1e10	8	-1e10	8	-1E+10	1	-1E+10	1	-1E+10	1	-1E+10	1	-1E+10	1	-1E+10	1
4902554	48	C	06/02/2022	20:56	-135.009	49.464	0	193.10	0	5.2020	0	33.7380	0	26.653	0	191.364	0	-1e10	8	-1e10	8	-1E+10	1	-1E+10	1	-1E+10	1	-1E+10	1	-1E+10	1	-1E+10	1
4902554	48	C	06/02/2022	20:56	-135.009	49.464	0	194.00	0	5.1900	0	33.7390	0	26.656	0	192.256	0	-1e10	8	-1e10	8	-1E+10	1	-1E+10	1	-1E+10	1	-1E+10	1	-1E+10	1	-1E+10	1
4902554	48	C	06/02/2022	20:56	-135.009	49.464	0	194.80	0	5.1780	0	33.7400	0	26.658	0	193.048	0	-1e10	8	-1e10	8	-1E+10	1	-1E+10	1	-1E+10	1	-1E+10	1	-1E+10	1	-1E+10	1
4902554	48	C	06/02/2022	20:56	-135.009	49.464	0	195.70	0	5.1670	0	33.7400	0	26.659	0	193.940	0	-1e10	8	-1e10	8	-1E+10	1	-1E+10	1	-1E+10	1	-1E+10	1	-1E+10	1	-1E+10	1
4902554	48	C	06/02/2022	20:56	-135.009	49.464	0	197.00	0	5.1570	0	33.7410	0	26.661	0	195.228	0	-1e10	8	-1e10	8	-1E+10	1	-1E+10	1	-1E+10	1	-1E+10	1	-1E+10	1	-1E+10	1
4902554	48	C	06/02/2022	20:56	-135.009	49.464	0	198.30	0	5.1390	0	33.7420	0	26.664	0	196.515	0	-1e10	8	-1e10	8	-1E+10	1	-1E+10	1	-1E+10	1	-1E+10	1	-1E+10	1	-1E+10	1
4902554	48	C	06/02/2022	20:56	-135.009	49.464	0	199.20	0	5.1350	0	33.7420	0	26.664	0	197.407	0	-1e10	8	-1e10	8	-1E+10	1	-1E+10	1	-1E+10	1	-1E+10	1	-1E+10	1	-1E+10	1
4902554	48	C	06/02/2022	20:56	-135.009	49.464	0	200.00	0	5.1150	0	33.7450	0	26.669	0	198.199	0	-1e10	8	-1e10	8	-1E+10	1	-1E+10	1	-1E+10	1	-1E+10	1	-1E+10	1	-1E+10	1
4902554	48	C	06/02/2022	20:56	-135.009	49.464	0	200.90	0	5.1090	0	33.7450	0	26.670	0	199.091	0	-1e10	8	-1e10	8	-1E+10	1	-1E+10	1	-1E+10	1	-1E+10	1	-1E+10	1	-1E+10	1
4902554	48	C	06/02/2022	20:56	-135.009	49.464	0	201.70	0	5.1050	0	33.7440	0	26.669	0	199.883	0	-1e10	8	-1e10	8	-1E+10	1	-1E+10	1	-1E+10	1	-1E+10	1	-1E+10	1	-1E+10	1
4902554	48	C	06/02/2022	20:56	-135.009	49.464	0	202.60	0	5.1020	0	33.7440	0	26.670	0	200.774	0	-1e10	8	-1e10	8	-1E+10	1	-1E+10	1	-1E+10	1	-1E+10	1	-1E+10	1	-1E+10	1
4902554	48	C	06/02/2022	20:56	-135.009	49.464	0	203.90	0	5.0820	0	33.7470	0	26.674	0	202.062	0	-1e10	8	-1e10	8	-1E+10	1	-1E+10	1	-1E+10	1	-1E+10	1	-1E+10	1	-1E+10	1
4902554	48	C	06/02/2022	20:56	-135.009	49.464	0	205.20	0	5.0570	0	33.7510	0	26.680	0	203.350	0	-1e10	8	-1e10	8	-1E+10	1	-1E+10	1	-1E+10	1	-1E+10	1	-1E+10	1	-1E+10	1
4902554	48	C	06/02/2022	20:56	-135.009	49.464	0	206.10	0	5.0560	0	33.7500	0	26.680	0	204.241	0	-1e10	8	-1e10	8	-1E+10	1	-1E+10	1	-1E+10	1	-1E+10	1	-1E+10	1	-1E+10	1
4902554	48	C	06/02/2022	20:56	-135.009	49.464	0	206.90	0	5.0540	0	33.7510	0	26.681	0	205.034	0	-1e10	8	-1e10	8	-1E+10	1	-1E+10	1	-1E+10	1	-1E+10	1	-1E+10	1	-1E+10	1
4902554	48	C	06/02/2022	20:56	-135.009	49.464	0	207.70	0	5.0530	0	33.7500	0	26.680	0	205.826	0	-1e10	8	-1e10	8	-1E+10	1	-1E+10	1	-1E+10	1	-1E+10	1	-1E+10	1	-1E+10	1
4902554	48	C	06/02/2022	20:56	-135.009	49.464	0	209.00	0	5.0500	0	33.7510	0	26.681	0	207.114	0	-1e10	8	-1e10	8	-1E+10	1	-1E+10	1	-1E+10	1	-1E+10	1	-1E+10	1	-1E+10	1
4902554	48	C	06/02/2022	20:56	-135.009	49.464	0	210.30	0	5.0380	0	33.7520	0	26.683	0	208.401	0	-1e10	8	-1e10	8	-1E+10	1	-1E+10	1	-1E+10	1	-1E+10	1	-1E+10	1	-1E+10	1
4902554	48	C	06/02/2022	20:56	-135.009	49.464	0	211.10	0	5.0310	0	33.7530	0	26.685	0	209.194	0	-1e10	8	-1e10	8	-1E+10	1	-1E+10	1	-1E+10	1	-1E+10	1	-1E+10	1	-1E+10	1
4902554	48	C	06/02/2022	20:56	-135.009	49.464	0	211.90	0	5.0210	0	33.7530	0	26.686	0	209.986	0	-1e10	8	-1e10	8	-1E+10	1	-1E+10	1	-1E+10	1	-1E+10	1	-1E+10	1	-1E+10	1
4902554	48	C	06/02/2022	20:56	-135.009	49.464	0	212.80	0	5.0080	0	33.7550	0	26.689	0	210.877	0	-1e10	8	-1e10	8	-1E+10	1	-1E+10	1	-1E+10	1	-1E+10	1	-1E+10	1	-1E+10	1
4902554	48	C	06/02/2022	20:56	-135.009	49.464	0	213.60	0	4.9960	0	33.7560	0	26.691	0	211.670	0	-1e10	8	-1e10	8	-1E+10	1	-1E+10	1	-1E+10	1	-1E+10	1	-1E+10	1	-1E+10	1
4902554	48	C	06/02/2022	20:56	-135.009	49.464	0	214.90	0	4.9790	0	33.7580	0	26.695	0	212.957	0	-1e10	8	-1e10	8	-1E+10	1	-1E+10	1	-1E+10	1	-1E+10	1	-1E+10	1	-1E+10	1
4902554	48	C	06/02/2022	20:56	-135.009	49.464	0	216.20	0	4.9550	0	33.7620	0	26.701	0	214.245	0	-1e10	8	-1e10	8	-1E+10	1	-1E+10	1	-1E+10	1	-1E+10	1	-1E+10	1	-1E+10	1
4902554	48	C	06/02/2022	20:56	-135.009	49.464	0	217.00	0	4.9390	0	33.7650	0	26.705	0	215.037	0	-1e10	8	-1e10	8	-1E+10	1	-1E+10	1	-1E+10	1	-1E+10	1	-1E+10	1	-1E+10	1
4902554	48	C	06/02/2022	20:56	-135.009	49.464	0	217.90	0	4.9280	0	33.7680	0	26.709	0	215.929	0	-1e10	8	-1e10	8	-1E+10	1	-1E+10	1	-1E+10	1	-1E+10	1	-1E+10	1	-1E+10	1
4902554	48	C	06/02/2022	20:56	-135.009	49.464	0	218.80	0	4.9240	0	33.7680	0	26.709	0	216.820	0	-1e10	8	-1e10	8	-1E+10	1	-1E+10	1	-1E+10	1	-1E+10	1	-1E+10	1	-1E+10	1
4902554	48	C	06/02/2022	20:56	-135.009	49.464	0	219.60	0	4.9190	0	33.7690	0	26.710	0	217.612	0	-1e10	8	-1e10	8	-1E+10	1	-1E+10	1	-1E+10	1	-1E+10	1	-1E+10	1	-1E+10	1
4902554	48	C	06/02/2022	20:56	-135.009	49.464	0	220.90	0	4.9090	0	33.7690	0	26.712	0	218.900	0	-1e10	8	-1e10	8	-1E+10	1	-1E+10	1	-1E+10	1	-1E+10	1	-1E+10	1	-1E+10	1
4902554	48	C	06/02/2022	20:56	-135.009	49.464	0	222.20	0	4.9090	0	33.7690	0	26.712	0	220.187	0	-1e10	8	-1e10	8	-1E+10	1	-1E+10	1	-1E+10	1	-1E+10	1	-1E+10	1	-1E+10	1
4902554	48	C	06/02/2022	20:56	-135.009	49.464	0	223.00	0	4.9090	0	33.7690	0	26.712	0	220.980	0	-1e10	8	-1e10	8	-1E+10	1	-1E+10	1	-1E+10	1	-1E+10	1	-1E+10	1	-1E+10	1
4902554	48	C	06/02/2022	20:56	-135.009	49.464	0	223.90	0	4.9080	0	33.7690	0	26.712	0	221.871	0	-1e10	8	-1e10	8	-1E+10	1	-1E+10	1	-1E+10	1	-1E+10	1	-1E+10	1	-1E+10	1
4902554	48	C	06/02/2022	20:56	-135.009	49.464	0	224.80	0	4.9010	0	33.7690	0	26.713	0	222.762	0	-1e10	8	-1e10	8	-1E+10	1	-1E+10	1	-1E+10	1	-1E+10	1	-1E+10	1	-1E+10	1
4902554	48	C	06/02/2022	20:56	-135.009	49.464	0	225.60	0	4.8940	0	33.7670	0	26.712	0	223.555	0	-1e10	8	-1e10	8	-1E+10	1	-1E+10	1	-1E+10	1	-1E+10	1	-1E+10	1	-1E+10	1
4902554	48	C	06/02/2022	20:56	-135.009	49.464	0	226.90	0	4.8790	0	33.7700	0	26.716	0	224.842	0	-1e10	8	-1e10	8	-1E+10	1	-1E+10	1	-1E+10	1	-1E+10	1	-1E+10	1	-1E+10	1
4902554	48	C	06/02/2022	20:56	-135.009	49.464	0	228.30	0	4.8680	0	33.7730	0	26.719	0	226.229	0	-1e10	8	-1e10	8	-1E+10	1	-1E+10	1	-1E+10	1	-1E+10	1	-1E+10	1	-1E+10	1
4902554	48	C	06/02/2022	20:56	-135.009	49.464	0	229.10	0	4.8610	0	33.7740	0	26.721	0	227.021	0	-1e10	8	-1e10	8	-1E+10	1	-1E+10	1	-1E+10	1	-1E+10	1	-1E+10	1	-1E+10	1
4902554	48	C	06/02/2022	20:56	-135.009	49.464	0	230.00	0	4.8530	0	33.7750	0	26.723	0	227.912	0	-1e10	8	-1e10	8	-1E+10	1	-1E+10	1	-1E+10	1	-1E+10	1	-1E+10	1	-1E+10	1
4902554	48	C	06/02/2022	20:56	-135.009	49.464	0	230.90	0	4.8410	0	33.7790	0	26.727	0	228.804	0	-1e10	8	-1e10	8	-1E+10	1	-1E+10	1	-1E+10	1	-1E+10	1	-1E+10	1	-1E+10	1
4902554	48	C	06/02/2022	20:56	-135.009	49.464	0	231.80	0	4.8360	0	33.7800	0	26.729	0	229.695	0	-1e10	8	-1e10	8	-1E+10	1	-1E+10	1	-1E+10	1	-1E+10	1	-1E+10	1	-1E+10	1
4902554	48	C	06/02/2022	20:56	-135.009	49.464	0	232.70	0	4.8320	0	33.7800	0	26.729	0	230.586	0	-1e10	8	-1e10	8	-1E+10	1	-1E+10	1	-1E+10	1	-1E+10	1	-1E+10	1	-1E+10	1
4902554	48	C	06/02/2022	20:56	-135.009	49.464	0	233.60	0	4.8310	0	33.7810	0	26.730	0	231.478	0	-1e10	8	-1e10	8	-1E+10	1	-1E+10	1	-1E+10	1	-1E+10	1	-1E+10	1	-1E+10	1
4902554	48	C	06/02/2022	20:56	-135.009	49.464	0	234.90	0	4.8180	0	33.7840	0	26.734	0	232.765	0	-1e10	8	-1e10	8	-1E+10	1	-1E+10	1	-1E+10	1	-1E+10	1	-1E+10	1	-1E+10	1
4902554	48	C	06/02/2022	20:56	-135.009	49.464	0	236.30	0	4.8050	0	33.7870	0	26.738	0	234.152	0	-1e10	8	-1e10	8	-1E+10	1	-1E+10	1	-1E+10	1	-1E+10	1	-1E+10	1	-1E+10	1
4902554	48	C	06/02/2022	20:56	-135.009	49.464	0	237.20	0	4.7970	0	33.7870	0	26.739	0	235.043	0	-1e10	8	-1e10	8	-1E+10	1	-1E+10	1	-1E+10	1	-1E+10	1	-1E+10	1	-1E+10	1
4902554	48	C	06/02/2022	20:56	-135.009	49.464	0	238.10	0	4.7890	0	33.7890	0	26.741	0	235.934	0	-1e10	8	-1e10	8	-1E+10	1	-1E+10	1	-1E+10	1	-1E+10	1	-1E+10	1	-1E+10	1
4902554	48	C	06/02/2022	20:56	-135.009	49.464	0	239.00	0	4.7820	0	33.7890	0	26.742	0	236.826	0	-1e10	8	-1e10	8	-1E+10	1	-1E+10	1	-1E+10	1	-1E+10	1	-1E+10	1	-1E+10	1
4902554	48	C	06/02/2022	20:56	-135.009	49.464	0	239.90	0	4.7650	0	33.7930	0	26.747	0	237.717	0	-1e10	8	-1e10	8	-1E+10	1	-1E+10	1	-1E+10	1	-1E+10	1	-1E+10	1	-1E+10	1
4902554	48	C	06/02/2022	20:56	-135.009	49.464	0	240.80	0	4.7640	0	33.7930	0	26.747	0	238.608	0	-1e10	8	-1e10	8	-1E+10	1	-1E+10	1	-1E+10	1	-1E+10	1	-1E+10	1	-1E+10	1
4902554	48	C	06/02/2022	20:56	-135.009	49.464	0	241.70	0	4.7630	0	33.7930	0	26.747	0	239.499	0	-1e10	8	-1e10	8	-1E+10	1	-1E+10	1	-1E+10	1	-1E+10	1	-1E+10	1	-1E+10	1
4902554	48	C	06/02/2022	20:56	-135.009	49.464	0	242.60	0	4.7560	0	33.7950	0	26.749	0	240.391	0	-1e10	8	-1e10	8	-1E+10	1	-1E+10	1	-1E+10	1	-1E+10	1	-1E+10	1	-1E+10	1
4902554	48	C	06/02/2022	20:56	-135.009	49.464	0	243.60	0	4.7560	0	33.7940	0	26.749	0	241.381	0	-1e10	8	-1e10	8	-1E+10	1	-1E+10	1	-1E+10	1	-1E+10	1	-1E+10	1	-1E+10	1
4902554	48	C	06/02/2022	20:56	-135.009	49.464	0	244.90	0	4.7330	0	33.7980	0	26.754	0	242.668	0	-1e10	8	-1e10	8	-1E+10	1	-1E+10	1	-1E+10	1	-1E+10	1	-1E+10	1	-1E+10	1
4902554	48	C	06/02/2022	20:56	-135.009	49.464	0	246.30	0	4.7220	0	33.8010	0	26.758	0	244.055	0	-1e10	8	-1e10	8	-1E+10	1	-1E+10	1	-1E+10	1	-1E+10	1	-1E+10	1	-1E+10	1
4902554	48	C	06/02/2022	20:56	-135.009	49.464	0	247.20	0	4.7200	0	33.8010	0	26.758	0	244.946	0	-1e10	8	-1e10	8	-1E+10	1	-1E+10	1	-1E+10	1	-1E+10	1	-1E+10	1	-1E+10	1
4902554	48	C	06/02/2022	20:56	-135.009	49.464	0	248.20	0	4.7170	0	33.8030	0	26.760	0	245.936	0	-1e10	8	-1e10	8	-1E+10	1	-1E+10	1	-1E+10	1	-1E+10	1	-1E+10	1	-1E+10	1
4902554	48	C	06/02/2022	20:56	-135.009	49.464	0	249.10	0	4.7090	0	33.8040	0	26.762	0	246.828	0	-1e10	8	-1e10	8	-1E+10	1	-1E+10	1	-1E+10	1	-1E+10	1	-1E+10	1	-1E+10	1
4902554	48	C	06/02/2022	20:56	-135.009	49.464	0	250.10	0	4.7070	0	33.8050	0	26.763	0	247.818	0	-1e10	8	-1e10	8	-1E+10	1	-1E+10	1	-1E+10	1	-1E+10	1	-1E+10	1	-1E+10	1
4902554	48	C	06/02/2022	20:56	-135.009	49.464	0	251.00	0	4.7050	0	33.8040	0	26.762	0	248.709	0	-1e10	8	-1e10	8	-1E+10	1	-1E+10	1	-1E+10	1	-1E+10	1	-1E+10	1	-1E+10	1
4902554	48	C	06/02/2022	20:56	-135.009	49.464	0	251.90	0	4.7010	0	33.8050	0	26.763	0	249.600	0	-1e10	8	-1e10	8	-1E+10	1	-1E+10	1	-1E+10	1	-1E+10	1	-1E+10	1	-1E+10	1
4902554	48	C	06/02/2022	20:56	-135.009	49.464	0	252.90	0	4.6970	0	33.8070	0	26.766	0	250.591	0	-1e10	8	-1e10	8	-1E+10	1	-1E+10	1	-1E+10	1	-1E+10	1	-1E+10	1	-1E+10	1
4902554	48	C	06/02/2022	20:56	-135.009	49.464	0	253.80	0	4.6960	0	33.8070	0	26.766	0	251.482	0	-1e10	8	-1e10	8	-1E+10	1	-1E+10	1	-1E+10	1	-1E+10	1	-1E+10	1	-1E+10	1
4902554	48	C	06/02/2022	20:56	-135.009	49.464	0	254.80	0	4.6810	0	33.8080	0	26.768	0	252.472	0	-1e10	8	-1e10	8	-1E+10	1	-1E+10	1	-1E+10	1	-1E+10	1	-1E+10	1	-1E+10	1
4902554	48	C	06/02/2022	20:56	-135.009	49.464	0	255.70	0	4.6740	0	33.8100	0	26.770	0	253.363	0	-1e10	8	-1e10	8	-1E+10	1	-1E+10	1	-1E+10	1	-1E+10	1	-1E+10	1	-1E+10	1
4902554	48	C	06/02/2022	20:56	-135.009	49.464	0	256.70	0	4.6630	0	33.8120	0	26.773	0	254.354	0	-1e10	8	-1e10	8	-1E+10	1	-1E+10	1	-1E+10	1	-1E+10	1	-1E+10	1	-1E+10	1
4902554	48	C	06/02/2022	20:56	-135.009	49.464	0	257.60	0	4.6600	0	33.8120	0	26.774	0	255.245	0	-1e10	8	-1e10	8	-1E+10	1	-1E+10	1	-1E+10	1	-1E+10	1	-1E+10	1	-1E+10	1
4902554	48	C	06/02/2022	20:56	-135.009	49.464	0	258.60	0	4.6570	0	33.8110	0	26.773	0	256.235	0	-1e10	8	-1e10	8	-1E+10	1	-1E+10	1	-1E+10	1	-1E+10	1	-1E+10	1	-1E+10	1
4902554	48	C	06/02/2022	20:56	-135.009	49.464	0	259.50	0	4.6490	0	33.8130	0	26.776	0	257.126	0	-1e10	8	-1e10	8	-1E+10	1	-1E+10	1	-1E+10	1	-1E+10	1	-1E+10	1	-1E+10	1
4902554	48	C	06/02/2022	20:56	-135.009	49.464	0	260.90	0	4.6400	0	33.8150	0	26.778	0	258.513	0	-1e10	8	-1e10	8	-1E+10	1	-1E+10	1	-1E+10	1	-1E+10	1	-1E+10	1	-1E+10	1
4902554	48	C	06/02/2022	20:56	-135.009	49.464	0	262.40	0	4.6320	0	33.8160	0	26.780	0	259.998	0	-1e10	8	-1e10	8	-1E+10	1	-1E+10	1	-1E+10	1	-1E+10	1	-1E+10	1	-1E+10	1
4902554	48	C	06/02/2022	20:56	-135.009	49.464	0	263.30	0	4.6310	0	33.8160	0	26.780	0	260.889	0	-1e10	8	-1e10	8	-1E+10	1	-1E+10	1	-1E+10	1	-1E+10	1	-1E+10	1	-1E+10	1
4902554	48	C	06/02/2022	20:56	-135.009	49.464	0	264.30	0	4.6280	0	33.8170	0	26.781	0	261.879	0	-1e10	8	-1e10	8	-1E+10	1	-1E+10	1	-1E+10	1	-1E+10	1	-1E+10	1	-1E+10	1
4902554	48	C	06/02/2022	20:56	-135.009	49.464	0	265.30	0	4.6270	0	33.8170	0	26.781	0	262.870	0	-1e10	8	-1e10	8	-1E+10	1	-1E+10	1	-1E+10	1	-1E+10	1	-1E+10	1	-1E+10	1
4902554	48	C	06/02/2022	20:56	-135.009	49.464	0	266.30	0	4.6250	0	33.8180	0	26.782	0	263.860	0	-1e10	8	-1e10	8	-1E+10	1	-1E+10	1	-1E+10	1	-1E+10	1	-1E+10	1	-1E+10	1
4902554	48	C	06/02/2022	20:56	-135.009	49.464	0	267.20	0	4.6200	0	33.8190	0	26.784	0	264.751	0	-1e10	8	-1e10	8	-1E+10	1	-1E+10	1	-1E+10	1	-1E+10	1	-1E+10	1	-1E+10	1
4902554	48	C	06/02/2022	20:56	-135.009	49.464	0	268.20	0	4.6170	0	33.8190	0	26.784	0	265.741	0	-1e10	8	-1e10	8	-1E+10	1	-1E+10	1	-1E+10	1	-1E+10	1	-1E+10	1	-1E+10	1
4902554	48	C	06/02/2022	20:56	-135.009	49.464	0	269.20	0	4.6130	0	33.8200	0	26.785	0	266.731	0	-1e10	8	-1e10	8	-1E+10	1	-1E+10	1	-1E+10	1	-1E+10	1	-1E+10	1	-1E+10	1
4902554	48	C	06/02/2022	20:56	-135.009	49.464	0	270.20	0	4.6110	0	33.8210	0	26.786	0	267.722	0	-1e10	8	-1e10	8	-1E+10	1	-1E+10	1	-1E+10	1	-1E+10	1	-1E+10	1	-1E+10	1
4902554	48	C	06/02/2022	20:56	-135.009	49.464	0	271.20	0	4.6100	0	33.8220	0	26.787	0	268.712	0	-1e10	8	-1e10	8	-1E+10	1	-1E+10	1	-1E+10	1	-1E+10	1	-1E+10	1	-1E+10	1
4902554	48	C	06/02/2022	20:56	-135.009	49.464	0	272.20	0	4.6090	0	33.8230	0	26.788	0	269.702	0	-1e10	8	-1e10	8	-1E+10	1	-1E+10	1	-1E+10	1	-1E+10	1	-1E+10	1	-1E+10	1
4902554	48	C	06/02/2022	20:56	-135.009	49.464	0	273.20	0	4.6090	0	33.8230	0	26.788	0	270.692	0	-1e10	8	-1e10	8	-1E+10	1	-1E+10	1	-1E+10	1	-1E+10	1	-1E+10	1	-1E+10	1
4902554	48	C	06/02/2022	20:56	-135.009	49.464	0	274.20	0	4.6070	0	33.8240	0	26.789	0	271.682	0	-1e10	8	-1e10	8	-1E+10	1	-1E+10	1	-1E+10	1	-1E+10	1	-1E+10	1	-1E+10	1
4902554	48	C	06/02/2022	20:56	-135.009	49.464	0	275.30	0	4.6040	0	33.8270	0	26.792	0	272.771	0	-1e10	8	-1e10	8	-1E+10	1	-1E+10	1	-1E+10	1	-1E+10	1	-1E+10	1	-1E+10	1
4902554	48	C	06/02/2022	20:56	-135.009	49.464	0	276.30	0	4.6030	0	33.8280	0	26.793	0	273.762	0	-1e10	8	-1e10	8	-1E+10	1	-1E+10	1	-1E+10	1	-1E+10	1	-1E+10	1	-1E+10	1
4902554	48	C	06/02/2022	20:56	-135.009	49.464	0	277.30	0	4.6030	0	33.8290	0	26.793	0	274.752	0	-1e10	8	-1e10	8	-1E+10	1	-1E+10	1	-1E+10	1	-1E+10	1	-1E+10	1	-1E+10	1
4902554	48	C	06/02/2022	20:56	-135.009	49.464	0	278.30	0	4.6030	0	33.8290	0	26.793	0	275.742	0	-1e10	8	-1e10	8	-1E+10	1	-1E+10	1	-1E+10	1	-1E+10	1	-1E+10	1	-1E+10	1
4902554	48	C	06/02/2022	20:56	-135.009	49.464	0	279.40	0	4.6020	0	33.8300	0	26.794	0	276.831	0	-1e10	8	-1e10	8	-1E+10	1	-1E+10	1	-1E+10	1	-1E+10	1	-1E+10	1	-1E+10	1
4902554	48	C	06/02/2022	20:56	-135.009	49.464	0	280.40	0	4.6010	0	33.8300	0	26.794	0	277.821	0	-1e10	8	-1e10	8	-1E+10	1	-1E+10	1	-1E+10	1	-1E+10	1	-1E+10	1	-1E+10	1
4902554	48	C	06/02/2022	20:56	-135.009	49.464	0	281.40	0	4.6010	0	33.8300	0	26.794	0	278.811	0	-1e10	8	-1e10	8	-1E+10	1	-1E+10	1	-1E+10	1	-1E+10	1	-1E+10	1	-1E+10	1
4902554	48	C	06/02/2022	20:56	-135.009	49.464	0	282.40	0	4.6000	0	33.8310	0	26.795	0	279.801	0	-1e10	8	-1e10	8	-1E+10	1	-1E+10	1	-1E+10	1	-1E+10	1	-1E+10	1	-1E+10	1
4902554	48	C	06/02/2022	20:56	-135.009	49.464	0	283.50	0	4.5990	0	33.8310	0	26.796	0	280.891	0	-1e10	8	-1e10	8	-1E+10	1	-1E+10	1	-1E+10	1	-1E+10	1	-1E+10	1	-1E+10	1
4902554	48	C	06/02/2022	20:56	-135.009	49.464	0	284.50	0	4.5970	0	33.8320	0	26.797	0	281.881	0	-1e10	8	-1e10	8	-1E+10	1	-1E+10	1	-1E+10	1	-1E+10	1	-1E+10	1	-1E+10	1
4902554	48	C	06/02/2022	20:56	-135.009	49.464	0	285.50	0	4.5960	0	33.8320	0	26.797	0	282.871	0	-1e10	8	-1e10	8	-1E+10	1	-1E+10	1	-1E+10	1	-1E+10	1	-1E+10	1	-1E+10	1
4902554	48	C	06/02/2022	20:56	-135.009	49.464	0	286.50	0	4.5930	0	33.8330	0	26.798	0	283.861	0	-1e10	8	-1e10	8	-1E+10	1	-1E+10	1	-1E+10	1	-1E+10	1	-1E+10	1	-1E+10	1
4902554	48	C	06/02/2022	20:56	-135.009	49.464	0	287.50	0	4.5910	0	33.8340	0	26.799	0	284.851	0	-1e10	8	-1e10	8	-1E+10	1	-1E+10	1	-1E+10	1	-1E+10	1	-1E+10	1	-1E+10	1
4902554	48	C	06/02/2022	20:56	-135.009	49.464	0	288.50	0	4.5810	0	33.8380	0	26.803	0	285.841	0	-1e10	8	-1e10	8	-1E+10	1	-1E+10	1	-1E+10	1	-1E+10	1	-1E+10	1	-1E+10	1
4902554	48	C	06/02/2022	20:56	-135.009	49.464	0	289.50	0	4.5670	0	33.8390	0	26.805	0	286.831	0	-1e10	8	-1e10	8	-1E+10	1	-1E+10	1	-1E+10	1	-1E+10	1	-1E+10	1	-1E+10	1
4902554	48	C	06/02/2022	20:56	-135.009	49.464	0	290.50	0	4.5660	0	33.8390	0	26.805	0	287.821	0	-1e10	8	-1e10	8	-1E+10	1	-1E+10	1	-1E+10	1	-1E+10	1	-1E+10	1	-1E+10	1
4902554	48	C	06/02/2022	20:56	-135.009	49.464	0	291.60	0	4.5630	0	33.8390	0	26.806	0	288.910	0	-1e10	8	-1e10	8	-1E+10	1	-1E+10	1	-1E+10	1	-1E+10	1	-1E+10	1	-1E+10	1
4902554	48	C	06/02/2022	20:56	-135.009	49.464	0	292.60	0	4.5600	0	33.8400	0	26.807	0	289.900	0	-1e10	8	-1e10	8	-1E+10	1	-1E+10	1	-1E+10	1	-1E+10	1	-1E+10	1	-1E+10	1
4902554	48	C	06/02/2022	20:56	-135.009	49.464	0	293.60	0	4.5580	0	33.8410	0	26.808	0	290.891	0	-1e10	8	-1e10	8	-1E+10	1	-1E+10	1	-1E+10	1	-1E+10	1	-1E+10	1	-1E+10	1
4902554	48	C	06/02/2022	20:56	-135.009	49.464	0	294.60	0	4.5550	0	33.8430	0	26.810	0	291.881	0	-1e10	8	-1e10	8	-1E+10	1	-1E+10	1	-1E+10	1	-1E+10	1	-1E+10	1	-1E+10	1
4902554	48	C	06/02/2022	20:56	-135.009	49.464	0	295.60	0	4.5540	0	33.8440	0	26.811	0	292.871	0	-1e10	8	-1e10	8	-1E+10	1	-1E+10	1	-1E+10	1	-1E+10	1	-1E+10	1	-1E+10	1
4902554	48	C	06/02/2022	20:56	-135.009	49.464	0	296.60	0	4.5500	0	33.8450	0	26.812	0	293.861	0	-1e10	8	-1e10	8	-1E+10	1	-1E+10	1	-1E+10	1	-1E+10	1	-1E+10	1	-1E+10	1
4902554	48	C	06/02/2022	20:56	-135.009	49.464	0	297.60	0	4.5450	0	33.8470	0	26.814	0	294.851	0	-1e10	8	-1e10	8	-1E+10	1	-1E+10	1	-1E+10	1	-1E+10	1	-1E+10	1	-1E+10	1
4902554	48	C	06/02/2022	20:56	-135.009	49.464	0	298.60	0	4.5450	0	33.8480	0	26.815	0	295.841	0	-1e10	8	-1e10	8	-1E+10	1	-1E+10	1	-1E+10	1	-1E+10	1	-1E+10	1	-1E+10	1
4902554	48	C	06/02/2022	20:56	-135.009	49.464	0	299.60	0	4.5450	0	33.8480	0	26.815	0	296.831	0	-1e10	8	-1e10	8	-1E+10	1	-1E+10	1	-1E+10	1	-1E+10	1	-1E+10	1	-1E+10	1
4902554	48	C	06/02/2022	20:56	-135.009	49.464	0	300.70	0	4.5450	0	33.8490	0	26.816	0	297.920	0	-1e10	8	-1e10	8	-1E+10	1	-1E+10	1	-1E+10	1	-1E+10	1	-1E+10	1	-1E+10	1
4902554	48	C	06/02/2022	20:56	-135.009	49.464	0	301.60	0	4.5450	0	33.8490	0	26.816	0	298.811	0	-1e10	8	-1e10	8	-1E+10	1	-1E+10	1	-1E+10	1	-1E+10	1	-1E+10	1	-1E+10	1
4902554	48	C	06/02/2022	20:56	-135.009	49.464	0	302.60	0	4.5450	0	33.8490	0	26.816	0	299.801	0	-1e10	8	-1e10	8	-1E+10	1	-1E+10	1	-1E+10	1	-1E+10	1	-1E+10	1	-1E+10	1
4902554	48	C	06/02/2022	20:56	-135.009	49.464	0	303.70	0	4.5450	0	33.8480	0	26.815	0	300.890	0	-1e10	8	-1e10	8	-1E+10	1	-1E+10	1	-1E+10	1	-1E+10	1	-1E+10	1	-1E+10	1
4902554	48	C	06/02/2022	20:56	-135.009	49.464	0	304.70	0	4.5340	0	33.8530	0	26.820	0	301.880	0	-1e10	8	-1e10	8	-1E+10	1	-1E+10	1	-1E+10	1	-1E+10	1	-1E+10	1	-1E+10	1
4902554	48	C	06/02/2022	20:56	-135.009	49.464	0	305.70	0	4.5330	0	33.8530	0	26.820	0	302.870	0	-1e10	8	-1e10	8	-1E+10	1	-1E+10	1	-1E+10	1	-1E+10	1	-1E+10	1	-1E+10	1
4902554	48	C	06/02/2022	20:56	-135.009	49.464	0	306.70	0	4.5320	0	33.8530	0	26.820	0	303.860	0	-1e10	8	-1e10	8	-1E+10	1	-1E+10	1	-1E+10	1	-1E+10	1	-1E+10	1	-1E+10	1
4902554	48	C	06/02/2022	20:56	-135.009	49.464	0	307.70	0	4.5310	0	33.8530	0	26.821	0	304.850	0	-1e10	8	-1e10	8	-1E+10	1	-1E+10	1	-1E+10	1	-1E+10	1	-1E+10	1	-1E+10	1
4902554	48	C	06/02/2022	20:56	-135.009	49.464	0	308.70	0	4.5150	0	33.8580	0	26.826	0	305.840	0	-1e10	8	-1e10	8	-1E+10	1	-1E+10	1	-1E+10	1	-1E+10	1	-1E+10	1	-1E+10	1
4902554	48	C	06/02/2022	20:56	-135.009	49.464	0	309.70	0	4.5090	0	33.8600	0	26.828	0	306.830	0	-1e10	8	-1e10	8	-1E+10	1	-1E+10	1	-1E+10	1	-1E+10	1	-1E+10	1	-1E+10	1
4902554	48	C	06/02/2022	20:56	-135.009	49.464	0	310.70	0	4.5060	0	33.8610	0	26.830	0	307.820	0	-1e10	8	-1e10	8	-1E+10	1	-1E+10	1	-1E+10	1	-1E+10	1	-1E+10	1	-1E+10	1
4902554	48	C	06/02/2022	20:56	-135.009	49.464	0	311.60	0	4.5040	0	33.8620	0	26.831	0	308.711	0	-1e10	8	-1e10	8	-1E+10	1	-1E+10	1	-1E+10	1	-1E+10	1	-1E+10	1	-1E+10	1
4902554	48	C	06/02/2022	20:56	-135.009	49.464	0	312.90	0	4.4970	0	33.8640	0	26.833	0	309.998	0	-1e10	8	-1e10	8	-1E+10	1	-1E+10	1	-1E+10	1	-1E+10	1	-1E+10	1	-1E+10	1
4902554	48	C	06/02/2022	20:56	-135.009	49.464	0	314.10	0	4.4930	0	33.8650	0	26.834	0	311.186	0	-1e10	8	-1e10	8	-1E+10	1	-1E+10	1	-1E+10	1	-1E+10	1	-1E+10	1	-1E+10	1
4902554	48	C	06/02/2022	20:56	-135.009	49.464	0	314.80	0	4.4860	0	33.8670	0	26.837	0	311.879	0	-1e10	8	-1e10	8	-1E+10	1	-1E+10	1	-1E+10	1	-1E+10	1	-1E+10	1	-1E+10	1
4902554	48	C	06/02/2022	20:56	-135.009	49.464	0	315.90	0	4.4770	0	33.8700	0	26.840	0	312.968	0	-1e10	8	-1e10	8	-1E+10	1	-1E+10	1	-1E+10	1	-1E+10	1	-1E+10	1	-1E+10	1
4902554	48	C	06/02/2022	20:56	-135.009	49.464	0	317.10	0	4.4760	0	33.8710	0	26.841	0	314.156	0	-1e10	8	-1e10	8	-1E+10	1	-1E+10	1	-1E+10	1	-1E+10	1	-1E+10	1	-1E+10	1
4902554	48	C	06/02/2022	20:56	-135.009	49.464	0	317.80	0	4.4700	0	33.8740	0	26.844	0	314.849	0	-1e10	8	-1e10	8	-1E+10	1	-1E+10	1	-1E+10	1	-1E+10	1	-1E+10	1	-1E+10	1
4902554	48	C	06/02/2022	20:56	-135.009	49.464	0	318.90	0	4.4680	0	33.8740	0	26.844	0	315.938	0	-1e10	8	-1e10	8	-1E+10	1	-1E+10	1	-1E+10	1	-1E+10	1	-1E+10	1	-1E+10	1
4902554	48	C	06/02/2022	20:56	-135.009	49.464	0	320.10	0	4.4670	0	33.8750	0	26.845	0	317.126	0	-1e10	8	-1e10	8	-1E+10	1	-1E+10	1	-1E+10	1	-1E+10	1	-1E+10	1	-1E+10	1
4902554	48	C	06/02/2022	20:56	-135.009	49.464	0	320.90	0	4.4650	0	33.8750	0	26.845	0	317.918	0	-1e10	8	-1e10	8	-1E+10	1	-1E+10	1	-1E+10	1	-1E+10	1	-1E+10	1	-1E+10	1
4902554	48	C	06/02/2022	20:56	-135.009	49.464	0	321.70	0	4.4630	0	33.8760	0	26.846	0	318.710	0	-1e10	8	-1e10	8	-1E+10	1	-1E+10	1	-1E+10	1	-1E+10	1	-1E+10	1	-1E+10	1
4902554	48	C	06/02/2022	20:56	-135.009	49.464	0	322.90	0	4.4590	0	33.8780	0	26.848	0	319.898	0	-1e10	8	-1e10	8	-1E+10	1	-1E+10	1	-1E+10	1	-1E+10	1	-1E+10	1	-1E+10	1
4902554	48	C	06/02/2022	20:56	-135.009	49.464	0	324.10	0	4.4560	0	33.8800	0	26.850	0	321.085	0	-1e10	8	-1e10	8	-1E+10	1	-1E+10	1	-1E+10	1	-1E+10	1	-1E+10	1	-1E+10	1
4902554	48	C	06/02/2022	20:56	-135.009	49.464	0	324.90	0	4.4550	0	33.8790	0	26.849	0	321.877	0	-1e10	8	-1e10	8	-1E+10	1	-1E+10	1	-1E+10	1	-1E+10	1	-1E+10	1	-1E+10	1
4902554	48	C	06/02/2022	20:56	-135.009	49.464	0	325.70	0	4.4530	0	33.8800	0	26.850	0	322.669	0	-1e10	8	-1e10	8	-1E+10	1	-1E+10	1	-1E+10	1	-1E+10	1	-1E+10	1	-1E+10	1
4902554	48	C	06/02/2022	20:56	-135.009	49.464	0	326.90	0	4.4520	0	33.8800	0	26.851	0	323.857	0	-1e10	8	-1e10	8	-1E+10	1	-1E+10	1	-1E+10	1	-1E+10	1	-1E+10	1	-1E+10	1
4902554	48	C	06/02/2022	20:56	-135.009	49.464	0	328.10	0	4.4470	0	33.8840	0	26.854	0	325.045	0	-1e10	8	-1e10	8	-1E+10	1	-1E+10	1	-1E+10	1	-1E+10	1	-1E+10	1	-1E+10	1
4902554	48	C	06/02/2022	20:56	-135.009	49.464	0	328.90	0	4.4440	0	33.8860	0	26.856	0	325.837	0	-1e10	8	-1e10	8	-1E+10	1	-1E+10	1	-1E+10	1	-1E+10	1	-1E+10	1	-1E+10	1
4902554	48	C	06/02/2022	20:56	-135.009	49.464	0	329.80	0	4.4420	0	33.8860	0	26.856	0	326.728	0	-1e10	8	-1e10	8	-1E+10	1	-1E+10	1	-1E+10	1	-1E+10	1	-1E+10	1	-1E+10	1
4902554	48	C	06/02/2022	20:56	-135.009	49.464	0	330.60	0	4.4380	0	33.8900	0	26.860	0	327.520	0	-1e10	8	-1e10	8	-1E+10	1	-1E+10	1	-1E+10	1	-1E+10	1	-1E+10	1	-1E+10	1
4902554	48	C	06/02/2022	20:56	-135.009	49.464	0	331.90	0	4.4310	0	33.8920	0	26.862	0	328.807	0	-1e10	8	-1e10	8	-1E+10	1	-1E+10	1	-1E+10	1	-1E+10	1	-1E+10	1	-1E+10	1
4902554	48	C	06/02/2022	20:56	-135.009	49.464	0	333.10	0	4.4290	0	33.8920	0	26.863	0	329.995	0	-1e10	8	-1e10	8	-1E+10	1	-1E+10	1	-1E+10	1	-1E+10	1	-1E+10	1	-1E+10	1
4902554	48	C	06/02/2022	20:56	-135.009	49.464	0	334.00	0	4.4280	0	33.8930	0	26.864	0	330.885	0	-1e10	8	-1e10	8	-1E+10	1	-1E+10	1	-1E+10	1	-1E+10	1	-1E+10	1	-1E+10	1
4902554	48	C	06/02/2022	20:56	-135.009	49.464	0	334.80	0	4.4280	0	33.8930	0	26.864	0	331.677	0	-1e10	8	-1e10	8	-1E+10	1	-1E+10	1	-1E+10	1	-1E+10	1	-1E+10	1	-1E+10	1
4902554	48	C	06/02/2022	20:56	-135.009	49.464	0	335.70	0	4.4270	0	33.8930	0	26.864	0	332.568	0	-1e10	8	-1e10	8	-1E+10	1	-1E+10	1	-1E+10	1	-1E+10	1	-1E+10	1	-1E+10	1
4902554	48	C	06/02/2022	20:56	-135.009	49.464	0	336.90	0	4.4250	0	33.8930	0	26.864	0	333.756	0	-1e10	8	-1e10	8	-1E+10	1	-1E+10	1	-1E+10	1	-1E+10	1	-1E+10	1	-1E+10	1
4902554	48	C	06/02/2022	20:56	-135.009	49.464	0	338.30	0	4.4170	0	33.8980	0	26.869	0	335.142	0	-1e10	8	-1e10	8	-1E+10	1	-1E+10	1	-1E+10	1	-1E+10	1	-1E+10	1	-1E+10	1
4902554	48	C	06/02/2022	20:56	-135.009	49.464	0	339.10	0	4.4150	0	33.8990	0	26.870	0	335.934	0	-1e10	8	-1e10	8	-1E+10	1	-1E+10	1	-1E+10	1	-1E+10	1	-1E+10	1	-1E+10	1
4902554	48	C	06/02/2022	20:56	-135.009	49.464	0	340.00	0	4.4130	0	33.9010	0	26.872	0	336.825	0	-1e10	8	-1e10	8	-1E+10	1	-1E+10	1	-1E+10	1	-1E+10	1	-1E+10	1	-1E+10	1
4902554	48	C	06/02/2022	20:56	-135.009	49.464	0	340.90	0	4.4120	0	33.9030	0	26.873	0	337.715	0	-1e10	8	-1e10	8	-1E+10	1	-1E+10	1	-1E+10	1	-1E+10	1	-1E+10	1	-1E+10	1
4902554	48	C	06/02/2022	20:56	-135.009	49.464	0	341.80	0	4.4120	0	33.9030	0	26.873	0	338.606	0	-1e10	8	-1e10	8	-1E+10	1	-1E+10	1	-1E+10	1	-1E+10	1	-1E+10	1	-1E+10	1
4902554	48	C	06/02/2022	20:56	-135.009	49.464	0	342.60	0	4.4110	0	33.9040	0	26.874	0	339.398	0	-1e10	8	-1e10	8	-1E+10	1	-1E+10	1	-1E+10	1	-1E+10	1	-1E+10	1	-1E+10	1
4902554	48	C	06/02/2022	20:56	-135.009	49.464	0	343.90	0	4.4080	0	33.9060	0	26.876	0	340.685	0	-1e10	8	-1e10	8	-1E+10	1	-1E+10	1	-1E+10	1	-1E+10	1	-1E+10	1	-1E+10	1
4902554	48	C	06/02/2022	20:56	-135.009	49.464	0	345.30	0	4.4040	0	33.9090	0	26.879	0	342.071	0	-1e10	8	-1e10	8	-1E+10	1	-1E+10	1	-1E+10	1	-1E+10	1	-1E+10	1	-1E+10	1
4902554	48	C	06/02/2022	20:56	-135.009	49.464	0	346.20	0	4.4030	0	33.9100	0	26.880	0	342.962	0	-1e10	8	-1e10	8	-1E+10	1	-1E+10	1	-1E+10	1	-1E+10	1	-1E+10	1	-1E+10	1
4902554	48	C	06/02/2022	20:56	-135.009	49.464	0	347.10	0	4.4030	0	33.9100	0	26.880	0	343.852	0	-1e10	8	-1e10	8	-1E+10	1	-1E+10	1	-1E+10	1	-1E+10	1	-1E+10	1	-1E+10	1
4902554	48	C	06/02/2022	20:56	-135.009	49.464	0	348.00	0	4.4030	0	33.9100	0	26.880	0	344.743	0	-1e10	8	-1e10	8	-1E+10	1	-1E+10	1	-1E+10	1	-1E+10	1	-1E+10	1	-1E+10	1
4902554	48	C	06/02/2022	20:56	-135.009	49.464	0	348.90	0	4.4030	0	33.9110	0	26.881	0	345.634	0	-1e10	8	-1e10	8	-1E+10	1	-1E+10	1	-1E+10	1	-1E+10	1	-1E+10	1	-1E+10	1
4902554	48	C	06/02/2022	20:56	-135.009	49.464	0	349.80	0	4.4020	0	33.9110	0	26.881	0	346.525	0	-1e10	8	-1e10	8	-1E+10	1	-1E+10	1	-1E+10	1	-1E+10	1	-1E+10	1	-1E+10	1
4902554	48	C	06/02/2022	20:56	-135.009	49.464	0	352.90	0	4.3950	0	33.9130	0	26.883	0	349.593	0	-1e10	8	-1e10	8	-1E+10	1	-1E+10	1	-1E+10	1	-1E+10	1	-1E+10	1	-1E+10	1
4902554	48	C	06/02/2022	20:56	-135.009	49.464	0	357.90	0	4.3860	0	33.9170	0	26.887	0	354.542	0	-1e10	8	-1e10	8	-1E+10	1	-1E+10	1	-1E+10	1	-1E+10	1	-1E+10	1	-1E+10	1
4902554	48	C	06/02/2022	20:56	-135.009	49.464	0	362.90	0	4.3700	0	33.9250	0	26.895	0	359.491	0	-1e10	8	-1e10	8	-1E+10	1	-1E+10	1	-1E+10	1	-1E+10	1	-1E+10	1	-1E+10	1
4902554	48	C	06/02/2022	20:56	-135.009	49.464	0	368.00	0	4.3540	0	33.9340	0	26.904	0	364.539	0	-1e10	8	-1e10	8	-1E+10	1	-1E+10	1	-1E+10	1	-1E+10	1	-1E+10	1	-1E+10	1
4902554	48	C	06/02/2022	20:56	-135.009	49.464	0	372.70	0	4.3450	0	33.9420	0	26.912	0	369.190	0	-1e10	8	-1e10	8	-1E+10	1	-1E+10	1	-1E+10	1	-1E+10	1	-1E+10	1	-1E+10	1
4902554	48	C	06/02/2022	20:56	-135.009	49.464	0	378.00	0	4.3400	0	33.9470	0	26.916	0	374.435	0	-1e10	8	-1e10	8	-1E+10	1	-1E+10	1	-1E+10	1	-1E+10	1	-1E+10	1	-1E+10	1
4902554	48	C	06/02/2022	20:56	-135.009	49.464	0	383.30	0	4.3420	0	33.9510	0	26.919	0	379.681	0	-1e10	8	-1e10	8	-1E+10	1	-1E+10	1	-1E+10	1	-1E+10	1	-1E+10	1	-1E+10	1
4902554	48	C	06/02/2022	20:56	-135.009	49.464	0	388.20	0	4.3380	0	33.9540	0	26.922	0	384.530	0	-1e10	8	-1e10	8	-1E+10	1	-1E+10	1	-1E+10	1	-1E+10	1	-1E+10	1	-1E+10	1
4902554	48	C	06/02/2022	20:56	-135.009	49.464	0	393.10	0	4.3290	0	33.9600	0	26.928	0	389.379	0	-1e10	8	-1e10	8	-1E+10	1	-1E+10	1	-1E+10	1	-1E+10	1	-1E+10	1	-1E+10	1
4902554	48	C	06/02/2022	20:56	-135.009	49.464	0	398.00	0	4.3270	0	33.9620	0	26.930	0	394.228	0	-1e10	8	-1e10	8	-1E+10	1	-1E+10	1	-1E+10	1	-1E+10	1	-1E+10	1	-1E+10	1
4902554	48	C	06/02/2022	20:56	-135.009	49.464	0	402.80	0	4.3190	0	33.9680	0	26.935	0	398.978	0	-1e10	8	-1e10	8	-1E+10	1	-1E+10	1	-1E+10	1	-1E+10	1	-1E+10	1	-1E+10	1
4902554	48	C	06/02/2022	20:56	-135.009	49.464	0	407.50	0	4.3190	0	33.9710	0	26.938	0	403.629	0	-1e10	8	-1e10	8	-1E+10	1	-1E+10	1	-1E+10	1	-1E+10	1	-1E+10	1	-1E+10	1
4902554	48	C	06/02/2022	20:56	-135.009	49.464	0	412.90	0	4.3170	0	33.9750	0	26.941	0	408.972	0	-1e10	8	-1e10	8	-1E+10	1	-1E+10	1	-1E+10	1	-1E+10	1	-1E+10	1	-1E+10	1
4902554	48	C	06/02/2022	20:56	-135.009	49.464	0	418.30	0	4.3150	0	33.9830	0	26.948	0	414.315	0	-1e10	8	-1e10	8	-1E+10	1	-1E+10	1	-1E+10	1	-1E+10	1	-1E+10	1	-1E+10	1
4902554	48	C	06/02/2022	20:56	-135.009	49.464	0	423.20	0	4.3080	0	33.9900	0	26.954	0	419.164	0	-1e10	8	-1e10	8	-1E+10	1	-1E+10	1	-1E+10	1	-1E+10	1	-1E+10	1	-1E+10	1
4902554	48	C	06/02/2022	20:56	-135.009	49.464	0	428.00	0	4.3000	0	33.9900	0	26.955	0	423.913	0	-1e10	8	-1e10	8	-1E+10	1	-1E+10	1	-1E+10	1	-1E+10	1	-1E+10	1	-1E+10	1
4902554	48	C	06/02/2022	20:56	-135.009	49.464	0	432.80	0	4.2830	0	33.9930	0	26.959	0	428.662	0	-1e10	8	-1e10	8	-1E+10	1	-1E+10	1	-1E+10	1	-1E+10	1	-1E+10	1	-1E+10	1
4902554	48	C	06/02/2022	20:56	-135.009	49.464	0	438.00	0	4.2740	0	33.9990	0	26.965	0	433.807	0	-1e10	8	-1e10	8	-1E+10	1	-1E+10	1	-1E+10	1	-1E+10	1	-1E+10	1	-1E+10	1
4902554	48	C	06/02/2022	20:56	-135.009	49.464	0	443.10	0	4.2620	0	34.0070	0	26.973	0	438.853	0	-1e10	8	-1e10	8	-1E+10	1	-1E+10	1	-1E+10	1	-1E+10	1	-1E+10	1	-1E+10	1
4902554	48	C	06/02/2022	20:56	-135.009	49.464	0	447.80	0	4.2500	0	34.0160	0	26.981	0	443.503	0	-1e10	8	-1e10	8	-1E+10	1	-1E+10	1	-1E+10	1	-1E+10	1	-1E+10	1	-1E+10	1
4902554	48	C	06/02/2022	20:56	-135.009	49.464	0	452.90	0	4.2420	0	34.0230	0	26.987	0	448.548	0	-1e10	8	-1e10	8	-1E+10	1	-1E+10	1	-1E+10	1	-1E+10	1	-1E+10	1	-1E+10	1
4902554	48	C	06/02/2022	20:56	-135.009	49.464	0	458.10	0	4.2360	0	34.0280	0	26.992	0	453.693	0	-1e10	8	-1e10	8	-1E+10	1	-1E+10	1	-1E+10	1	-1E+10	1	-1E+10	1	-1E+10	1
4902554	48	C	06/02/2022	20:56	-135.009	49.464	0	462.70	0	4.2320	0	34.0300	0	26.994	0	458.243	0	-1e10	8	-1e10	8	-1E+10	1	-1E+10	1	-1E+10	1	-1E+10	1	-1E+10	1	-1E+10	1
4902554	48	C	06/02/2022	20:56	-135.009	49.464	0	467.90	0	4.2210	0	34.0370	0	27.001	0	463.387	0	-1e10	8	-1e10	8	-1E+10	1	-1E+10	1	-1E+10	1	-1E+10	1	-1E+10	1	-1E+10	1
4902554	48	C	06/02/2022	20:56	-135.009	49.464	0	473.10	0	4.2110	0	34.0420	0	27.006	0	468.531	0	-1e10	8	-1e10	8	-1E+10	1	-1E+10	1	-1E+10	1	-1E+10	1	-1E+10	1	-1E+10	1
4902554	48	C	06/02/2022	20:56	-135.009	49.464	0	477.70	0	4.2030	0	34.0470	0	27.011	0	473.082	0	-1e10	8	-1e10	8	-1E+10	1	-1E+10	1	-1E+10	1	-1E+10	1	-1E+10	1	-1E+10	1
4902554	48	C	06/02/2022	20:56	-135.009	49.464	0	482.90	0	4.1880	0	34.0550	0	27.019	0	478.225	0	-1e10	8	-1e10	8	-1E+10	1	-1E+10	1	-1E+10	1	-1E+10	1	-1E+10	1	-1E+10	1
4902554	48	C	06/02/2022	20:56	-135.009	49.464	0	488.20	0	4.1800	0	34.0650	0	27.028	0	483.468	0	-1e10	8	-1e10	8	-1E+10	1	-1E+10	1	-1E+10	1	-1E+10	1	-1E+10	1	-1E+10	1
4902554	48	C	06/02/2022	20:56	-135.009	49.464	0	493.20	0	4.1700	0	34.0710	0	27.033	0	488.414	0	-1e10	8	-1e10	8	-1E+10	1	-1E+10	1	-1E+10	1	-1E+10	1	-1E+10	1	-1E+10	1
4902554	48	C	06/02/2022	20:56	-135.009	49.464	0	498.10	0	4.1640	0	34.0800	0	27.041	0	493.260	0	-1e10	8	-1e10	8	-1E+10	1	-1E+10	1	-1E+10	1	-1E+10	1	-1E+10	1	-1E+10	1
4902554	48	C	06/02/2022	20:56	-135.009	49.464	0	503.10	0	4.1570	0	34.0840	0	27.045	0	498.206	0	-1e10	8	-1e10	8	-1E+10	1	-1E+10	1	-1E+10	1	-1E+10	1	-1E+10	1	-1E+10	1
4902554	48	C	06/02/2022	20:56	-135.009	49.464	0	508.10	0	4.1470	0	34.0880	0	27.049	0	503.151	0	-1e10	8	-1e10	8	-1E+10	1	-1E+10	1	-1E+10	1	-1E+10	1	-1E+10	1	-1E+10	1
4902554	48	C	06/02/2022	20:56	-135.009	49.464	0	512.90	0	4.1350	0	34.0910	0	27.053	0	507.898	0	-1e10	8	-1e10	8	-1E+10	1	-1E+10	1	-1E+10	1	-1E+10	1	-1E+10	1	-1E+10	1
4902554	48	C	06/02/2022	20:56	-135.009	49.464	0	517.70	0	4.1300	0	34.0940	0	27.056	0	512.646	0	-1e10	8	-1e10	8	-1E+10	1	-1E+10	1	-1E+10	1	-1E+10	1	-1E+10	1	-1E+10	1
4902554	48	C	06/02/2022	20:56	-135.009	49.464	0	522.50	0	4.1250	0	34.0980	0	27.060	0	517.393	0	-1e10	8	-1e10	8	-1E+10	1	-1E+10	1	-1E+10	1	-1E+10	1	-1E+10	1	-1E+10	1
4902554	48	C	06/02/2022	20:56	-135.009	49.464	0	527.90	0	4.1050	0	34.1020	0	27.065	0	522.733	0	-1e10	8	-1e10	8	-1E+10	1	-1E+10	1	-1E+10	1	-1E+10	1	-1E+10	1	-1E+10	1
4902554	48	C	06/02/2022	20:56	-135.009	49.464	0	532.90	0	4.1010	0	34.1080	0	27.070	0	527.678	0	-1e10	8	-1e10	8	-1E+10	1	-1E+10	1	-1E+10	1	-1E+10	1	-1E+10	1	-1E+10	1
4902554	48	C	06/02/2022	20:56	-135.009	49.464	0	537.60	0	4.0910	0	34.1130	0	27.075	0	532.326	0	-1e10	8	-1e10	8	-1E+10	1	-1E+10	1	-1E+10	1	-1E+10	1	-1E+10	1	-1E+10	1
4902554	48	C	06/02/2022	20:56	-135.009	49.464	0	542.80	0	4.0790	0	34.1170	0	27.080	0	537.468	0	-1e10	8	-1e10	8	-1E+10	1	-1E+10	1	-1E+10	1	-1E+10	1	-1E+10	1	-1E+10	1
4902554	48	C	06/02/2022	20:56	-135.009	49.464	0	548.10	0	4.0690	0	34.1210	0	27.084	0	542.709	0	-1e10	8	-1e10	8	-1E+10	1	-1E+10	1	-1E+10	1	-1E+10	1	-1E+10	1	-1E+10	1
4902554	48	C	06/02/2022	20:56	-135.009	49.464	0	553.10	0	4.0630	0	34.1220	0	27.085	0	547.653	0	-1e10	8	-1e10	8	-1E+10	1	-1E+10	1	-1E+10	1	-1E+10	1	-1E+10	1	-1E+10	1
4902554	48	C	06/02/2022	20:56	-135.009	49.464	0	557.70	0	4.0600	0	34.1240	0	27.087	0	552.202	0	-1e10	8	-1e10	8	-1E+10	1	-1E+10	1	-1E+10	1	-1E+10	1	-1E+10	1	-1E+10	1
4902554	48	C	06/02/2022	20:56	-135.009	49.464	0	562.80	0	4.0440	0	34.1290	0	27.093	0	557.245	0	-1e10	8	-1e10	8	-1E+10	1	-1E+10	1	-1E+10	1	-1E+10	1	-1E+10	1	-1E+10	1
4902554	48	C	06/02/2022	20:56	-135.009	49.464	0	567.90	0	4.0300	0	34.1310	0	27.096	0	562.288	0	-1e10	8	-1e10	8	-1E+10	1	-1E+10	1	-1E+10	1	-1E+10	1	-1E+10	1	-1E+10	1
4902554	48	C	06/02/2022	20:56	-135.009	49.464	0	572.70	0	4.0140	0	34.1340	0	27.100	0	567.034	0	-1e10	8	-1e10	8	-1E+10	1	-1E+10	1	-1E+10	1	-1E+10	1	-1E+10	1	-1E+10	1
4902554	48	C	06/02/2022	20:56	-135.009	49.464	0	578.00	0	3.9990	0	34.1380	0	27.105	0	572.274	0	-1e10	8	-1e10	8	-1E+10	1	-1E+10	1	-1E+10	1	-1E+10	1	-1E+10	1	-1E+10	1
4902554	48	C	06/02/2022	20:56	-135.009	49.464	0	583.30	0	3.9830	0	34.1440	0	27.111	0	577.514	0	-1e10	8	-1e10	8	-1E+10	1	-1E+10	1	-1E+10	1	-1E+10	1	-1E+10	1	-1E+10	1
4902554	48	C	06/02/2022	20:56	-135.009	49.464	0	588.20	0	3.9750	0	34.1480	0	27.115	0	582.359	0	-1e10	8	-1e10	8	-1E+10	1	-1E+10	1	-1E+10	1	-1E+10	1	-1E+10	1	-1E+10	1
4902554	48	C	06/02/2022	20:56	-135.009	49.464	0	593.00	0	3.9700	0	34.1500	0	27.117	0	587.104	0	-1e10	8	-1e10	8	-1E+10	1	-1E+10	1	-1E+10	1	-1E+10	1	-1E+10	1	-1E+10	1
4902554	48	C	06/02/2022	20:56	-135.009	49.464	0	597.90	0	3.9610	0	34.1540	0	27.122	0	591.949	0	-1e10	8	-1e10	8	-1E+10	1	-1E+10	1	-1E+10	1	-1E+10	1	-1E+10	1	-1E+10	1
4902554	48	C	06/02/2022	20:56	-135.009	49.464	0	602.90	0	3.9480	0	34.1580	0	27.126	0	596.892	0	-1e10	8	-1e10	8	-1E+10	1	-1E+10	1	-1E+10	1	-1E+10	1	-1E+10	1	-1E+10	1
4902554	48	C	06/02/2022	20:56	-135.009	49.464	0	608.00	0	3.9330	0	34.1650	0	27.133	0	601.933	0	-1e10	8	-1e10	8	-1E+10	1	-1E+10	1	-1E+10	1	-1E+10	1	-1E+10	1	-1E+10	1
4902554	48	C	06/02/2022	20:56	-135.009	49.464	0	613.10	0	3.9210	0	34.1700	0	27.139	0	606.975	0	-1e10	8	-1e10	8	-1E+10	1	-1E+10	1	-1E+10	1	-1E+10	1	-1E+10	1	-1E+10	1
4902554	48	C	06/02/2022	20:56	-135.009	49.464	0	618.30	0	3.9050	0	34.1760	0	27.145	0	612.115	0	-1e10	8	-1e10	8	-1E+10	1	-1E+10	1	-1E+10	1	-1E+10	1	-1E+10	1	-1E+10	1
4902554	48	C	06/02/2022	20:56	-135.009	49.464	0	623.00	0	3.8950	0	34.1790	0	27.148	0	616.762	0	-1e10	8	-1e10	8	-1E+10	1	-1E+10	1	-1E+10	1	-1E+10	1	-1E+10	1	-1E+10	1
4902554	48	C	06/02/2022	20:56	-135.009	49.464	0	627.70	0	3.8820	0	34.1840	0	27.154	0	621.407	0	-1e10	8	-1e10	8	-1E+10	1	-1E+10	1	-1E+10	1	-1E+10	1	-1E+10	1	-1E+10	1
4902554	48	C	06/02/2022	20:56	-135.009	49.464	0	633.00	0	3.8750	0	34.1860	0	27.156	0	626.646	0	-1e10	8	-1e10	8	-1E+10	1	-1E+10	1	-1E+10	1	-1E+10	1	-1E+10	1	-1E+10	1
4902554	48	C	06/02/2022	20:56	-135.009	49.464	0	638.30	0	3.8660	0	34.1890	0	27.159	0	631.885	0	-1e10	8	-1e10	8	-1E+10	1	-1E+10	1	-1E+10	1	-1E+10	1	-1E+10	1	-1E+10	1
4902554	48	C	06/02/2022	20:56	-135.009	49.464	0	643.10	0	3.8580	0	34.1910	0	27.162	0	636.630	0	-1e10	8	-1e10	8	-1E+10	1	-1E+10	1	-1E+10	1	-1E+10	1	-1E+10	1	-1E+10	1
4902554	48	C	06/02/2022	20:56	-135.009	49.464	0	647.90	0	3.8500	0	34.1930	0	27.164	0	641.374	0	-1e10	8	-1e10	8	-1E+10	1	-1E+10	1	-1E+10	1	-1E+10	1	-1E+10	1	-1E+10	1
4902554	48	C	06/02/2022	20:56	-135.009	49.464	0	652.80	0	3.8440	0	34.1950	0	27.166	0	646.217	0	-1e10	8	-1e10	8	-1E+10	1	-1E+10	1	-1E+10	1	-1E+10	1	-1E+10	1	-1E+10	1
4902554	48	C	06/02/2022	20:56	-135.009	49.464	0	658.00	0	3.8300	0	34.1990	0	27.171	0	651.356	0	-1e10	8	-1e10	8	-1E+10	1	-1E+10	1	-1E+10	1	-1E+10	1	-1E+10	1	-1E+10	1
4902554	48	C	06/02/2022	20:56	-135.009	49.464	0	663.10	0	3.8170	0	34.2030	0	27.176	0	656.397	0	-1e10	8	-1e10	8	-1E+10	1	-1E+10	1	-1E+10	1	-1E+10	1	-1E+10	1	-1E+10	1
4902554	48	C	06/02/2022	20:56	-135.009	49.464	0	668.00	0	3.8040	0	34.2060	0	27.179	0	661.240	0	-1e10	8	-1e10	8	-1E+10	1	-1E+10	1	-1E+10	1	-1E+10	1	-1E+10	1	-1E+10	1
4902554	48	C	06/02/2022	20:56	-135.009	49.464	0	672.90	0	3.7820	0	34.2110	0	27.185	0	666.082	0	-1e10	8	-1e10	8	-1E+10	1	-1E+10	1	-1E+10	1	-1E+10	1	-1E+10	1	-1E+10	1
4902554	48	C	06/02/2022	20:56	-135.009	49.464	0	677.80	0	3.7620	0	34.2150	0	27.191	0	670.925	0	-1e10	8	-1e10	8	-1E+10	1	-1E+10	1	-1E+10	1	-1E+10	1	-1E+10	1	-1E+10	1
4902554	48	C	06/02/2022	20:56	-135.009	49.464	0	682.80	0	3.7500	0	34.2180	0	27.194	0	675.866	0	-1e10	8	-1e10	8	-1E+10	1	-1E+10	1	-1E+10	1	-1E+10	1	-1E+10	1	-1E+10	1
4902554	48	C	06/02/2022	20:56	-135.009	49.464	0	687.70	0	3.7400	0	34.2200	0	27.197	0	680.708	0	-1e10	8	-1e10	8	-1E+10	1	-1E+10	1	-1E+10	1	-1E+10	1	-1E+10	1	-1E+10	1
4902554	48	C	06/02/2022	20:56	-135.009	49.464	0	692.70	0	3.7330	0	34.2210	0	27.198	0	685.649	0	-1e10	8	-1e10	8	-1E+10	1	-1E+10	1	-1E+10	1	-1E+10	1	-1E+10	1	-1E+10	1
4902554	48	C	06/02/2022	20:56	-135.009	49.464	0	697.60	0	3.7200	0	34.2240	0	27.202	0	690.491	0	-1e10	8	-1e10	8	-1E+10	1	-1E+10	1	-1E+10	1	-1E+10	1	-1E+10	1	-1E+10	1
4902554	48	C	06/02/2022	20:56	-135.009	49.464	0	702.90	0	3.7050	0	34.2270	0	27.206	0	695.728	0	-1e10	8	-1e10	8	-1E+10	1	-1E+10	1	-1E+10	1	-1E+10	1	-1E+10	1	-1E+10	1
4902554	48	C	06/02/2022	20:56	-135.009	49.464	0	708.20	0	3.6940	0	34.2300	0	27.210	0	700.965	0	-1e10	8	-1e10	8	-1E+10	1	-1E+10	1	-1E+10	1	-1E+10	1	-1E+10	1	-1E+10	1
4902554	48	C	06/02/2022	20:56	-135.009	49.464	0	713.20	0	3.6810	0	34.2330	0	27.213	0	705.906	0	-1e10	8	-1e10	8	-1E+10	1	-1E+10	1	-1E+10	1	-1E+10	1	-1E+10	1	-1E+10	1
4902554	48	C	06/02/2022	20:56	-135.009	49.464	0	718.20	0	3.6740	0	34.2340	0	27.215	0	710.846	0	-1e10	8	-1e10	8	-1E+10	1	-1E+10	1	-1E+10	1	-1E+10	1	-1E+10	1	-1E+10	1
4902554	48	C	06/02/2022	20:56	-135.009	49.464	0	722.90	0	3.6680	0	34.2350	0	27.216	0	715.490	0	-1e10	8	-1e10	8	-1E+10	1	-1E+10	1	-1E+10	1	-1E+10	1	-1E+10	1	-1E+10	1
4902554	48	C	06/02/2022	20:56	-135.009	49.464	0	727.60	0	3.6560	0	34.2380	0	27.220	0	720.133	0	-1e10	8	-1e10	8	-1E+10	1	-1E+10	1	-1E+10	1	-1E+10	1	-1E+10	1	-1E+10	1
4902554	48	C	06/02/2022	20:56	-135.009	49.464	0	732.60	0	3.6330	0	34.2440	0	27.227	0	725.073	0	-1e10	8	-1e10	8	-1E+10	1	-1E+10	1	-1E+10	1	-1E+10	1	-1E+10	1	-1E+10	1
4902554	48	C	06/02/2022	20:56	-135.009	49.464	0	737.60	0	3.6220	0	34.2460	0	27.230	0	730.013	0	-1e10	8	-1e10	8	-1E+10	1	-1E+10	1	-1E+10	1	-1E+10	1	-1E+10	1	-1E+10	1
4902554	48	C	06/02/2022	20:56	-135.009	49.464	0	742.60	0	3.6070	0	34.2490	0	27.233	0	734.953	0	-1e10	8	-1e10	8	-1E+10	1	-1E+10	1	-1E+10	1	-1E+10	1	-1E+10	1	-1E+10	1
4902554	48	C	06/02/2022	20:56	-135.009	49.464	0	747.60	0	3.5930	0	34.2530	0	27.238	0	739.893	0	-1e10	8	-1e10	8	-1E+10	1	-1E+10	1	-1E+10	1	-1E+10	1	-1E+10	1	-1E+10	1
4902554	48	C	06/02/2022	20:56	-135.009	49.464	0	752.60	0	3.5760	0	34.2560	0	27.242	0	744.832	0	-1e10	8	-1e10	8	-1E+10	1	-1E+10	1	-1E+10	1	-1E+10	1	-1E+10	1	-1E+10	1
4902554	48	C	06/02/2022	20:56	-135.009	49.464	0	757.70	0	3.5710	0	34.2580	0	27.244	0	749.871	0	-1e10	8	-1e10	8	-1E+10	1	-1E+10	1	-1E+10	1	-1E+10	1	-1E+10	1	-1E+10	1
4902554	48	C	06/02/2022	20:56	-135.009	49.464	0	762.70	0	3.5530	0	34.2610	0	27.248	0	754.810	0	-1e10	8	-1e10	8	-1E+10	1	-1E+10	1	-1E+10	1	-1E+10	1	-1E+10	1	-1E+10	1
4902554	48	C	06/02/2022	20:56	-135.009	49.464	0	767.90	0	3.5290	0	34.2650	0	27.254	0	759.947	0	-1e10	8	-1e10	8	-1E+10	1	-1E+10	1	-1E+10	1	-1E+10	1	-1E+10	1	-1E+10	1
4902554	48	C	06/02/2022	20:56	-135.009	49.464	0	773.10	0	3.5060	0	34.2670	0	27.258	0	765.083	0	-1e10	8	-1e10	8	-1E+10	1	-1E+10	1	-1E+10	1	-1E+10	1	-1E+10	1	-1E+10	1
4902554	48	C	06/02/2022	20:56	-135.009	49.464	0	778.00	0	3.4920	0	34.2690	0	27.261	0	769.923	0	-1e10	8	-1e10	8	-1E+10	1	-1E+10	1	-1E+10	1	-1E+10	1	-1E+10	1	-1E+10	1
4902554	48	C	06/02/2022	20:56	-135.009	49.464	0	782.90	0	3.4810	0	34.2710	0	27.263	0	774.763	0	-1e10	8	-1e10	8	-1E+10	1	-1E+10	1	-1E+10	1	-1E+10	1	-1E+10	1	-1E+10	1
4902554	48	C	06/02/2022	20:56	-135.009	49.464	0	787.80	0	3.4750	0	34.2720	0	27.265	0	779.603	0	-1e10	8	-1e10	8	-1E+10	1	-1E+10	1	-1E+10	1	-1E+10	1	-1E+10	1	-1E+10	1
4902554	48	C	06/02/2022	20:56	-135.009	49.464	0	792.80	0	3.4620	0	34.2760	0	27.269	0	784.542	0	-1e10	8	-1e10	8	-1E+10	1	-1E+10	1	-1E+10	1	-1E+10	1	-1E+10	1	-1E+10	1
4902554	48	C	06/02/2022	20:56	-135.009	49.464	0	797.80	0	3.4550	0	34.2810	0	27.274	0	789.480	0	-1e10	8	-1e10	8	-1E+10	1	-1E+10	1	-1E+10	1	-1E+10	1	-1E+10	1	-1E+10	1
4902554	48	C	06/02/2022	20:56	-135.009	49.464	0	802.90	0	3.4510	0	34.2840	0	27.277	0	794.517	0	-1e10	8	-1e10	8	-1E+10	1	-1E+10	1	-1E+10	1	-1E+10	1	-1E+10	1	-1E+10	1
4902554	48	C	06/02/2022	20:56	-135.009	49.464	0	808.10	0	3.4350	0	34.2880	0	27.281	0	799.653	0	-1e10	8	-1e10	8	-1E+10	1	-1E+10	1	-1E+10	1	-1E+10	1	-1E+10	1	-1E+10	1
4902554	48	C	06/02/2022	20:56	-135.009	49.464	0	812.80	0	3.4250	0	34.2910	0	27.285	0	804.295	0	-1e10	8	-1e10	8	-1E+10	1	-1E+10	1	-1E+10	1	-1E+10	1	-1E+10	1	-1E+10	1
4902554	48	C	06/02/2022	20:56	-135.009	49.464	0	818.00	0	3.3870	0	34.2940	0	27.291	0	809.431	0	-1e10	8	-1e10	8	-1E+10	1	-1E+10	1	-1E+10	1	-1E+10	1	-1E+10	1	-1E+10	1
4902554	48	C	06/02/2022	20:56	-135.009	49.464	0	823.30	0	3.3740	0	34.2970	0	27.295	0	814.665	0	-1e10	8	-1e10	8	-1E+10	1	-1E+10	1	-1E+10	1	-1E+10	1	-1E+10	1	-1E+10	1
4902554	48	C	06/02/2022	20:56	-135.009	49.464	0	828.10	0	3.3710	0	34.3010	0	27.298	0	819.405	0	-1e10	8	-1e10	8	-1E+10	1	-1E+10	1	-1E+10	1	-1E+10	1	-1E+10	1	-1E+10	1
4902554	48	C	06/02/2022	20:56	-135.009	49.464	0	833.00	0	3.3680	0	34.3030	0	27.300	0	824.244	0	-1e10	8	-1e10	8	-1E+10	1	-1E+10	1	-1E+10	1	-1E+10	1	-1E+10	1	-1E+10	1
4902554	48	C	06/02/2022	20:56	-135.009	49.464	0	837.90	0	3.3590	0	34.3040	0	27.302	0	829.083	0	-1e10	8	-1e10	8	-1E+10	1	-1E+10	1	-1E+10	1	-1E+10	1	-1E+10	1	-1E+10	1
4902554	48	C	06/02/2022	20:56	-135.009	49.464	0	842.70	0	3.3450	0	34.3070	0	27.305	0	833.823	0	-1e10	8	-1e10	8	-1E+10	1	-1E+10	1	-1E+10	1	-1E+10	1	-1E+10	1	-1E+10	1
4902554	48	C	06/02/2022	20:56	-135.009	49.464	0	847.60	0	3.3300	0	34.3090	0	27.308	0	838.661	0	-1e10	8	-1e10	8	-1E+10	1	-1E+10	1	-1E+10	1	-1E+10	1	-1E+10	1	-1E+10	1
4902554	48	C	06/02/2022	20:56	-135.009	49.464	0	852.90	0	3.3160	0	34.3120	0	27.312	0	843.895	0	-1e10	8	-1e10	8	-1E+10	1	-1E+10	1	-1E+10	1	-1E+10	1	-1E+10	1	-1E+10	1
4902554	48	C	06/02/2022	20:56	-135.009	49.464	0	858.40	0	3.3030	0	34.3140	0	27.315	0	849.325	0	-1e10	8	-1e10	8	-1E+10	1	-1E+10	1	-1E+10	1	-1E+10	1	-1E+10	1	-1E+10	1
4902554	48	C	06/02/2022	20:56	-135.009	49.464	0	863.40	0	3.2890	0	34.3170	0	27.319	0	854.262	0	-1e10	8	-1e10	8	-1E+10	1	-1E+10	1	-1E+10	1	-1E+10	1	-1E+10	1	-1E+10	1
4902554	48	C	06/02/2022	20:56	-135.009	49.464	0	868.40	0	3.2860	0	34.3180	0	27.320	0	859.199	0	-1e10	8	-1e10	8	-1E+10	1	-1E+10	1	-1E+10	1	-1E+10	1	-1E+10	1	-1E+10	1
4902554	48	C	06/02/2022	20:56	-135.009	49.464	0	873.40	0	3.2830	0	34.3180	0	27.320	0	864.136	0	-1e10	8	-1e10	8	-1E+10	1	-1E+10	1	-1E+10	1	-1E+10	1	-1E+10	1	-1E+10	1
4902554	48	C	06/02/2022	20:56	-135.009	49.464	0	877.90	0	3.2720	0	34.3210	0	27.324	0	868.579	0	-1e10	8	-1e10	8	-1E+10	1	-1E+10	1	-1E+10	1	-1E+10	1	-1E+10	1	-1E+10	1
4902554	48	C	06/02/2022	20:56	-135.009	49.464	0	882.50	0	3.2630	0	34.3230	0	27.326	0	873.120	0	-1e10	8	-1e10	8	-1E+10	1	-1E+10	1	-1E+10	1	-1E+10	1	-1E+10	1	-1E+10	1
4902554	48	C	06/02/2022	20:56	-135.009	49.464	0	887.70	0	3.2390	0	34.3260	0	27.331	0	878.254	0	-1e10	8	-1e10	8	-1E+10	1	-1E+10	1	-1E+10	1	-1E+10	1	-1E+10	1	-1E+10	1
4902554	48	C	06/02/2022	20:56	-135.009	49.464	0	892.80	0	3.2270	0	34.3290	0	27.334	0	883.289	0	-1e10	8	-1e10	8	-1E+10	1	-1E+10	1	-1E+10	1	-1E+10	1	-1E+10	1	-1E+10	1
4902554	48	C	06/02/2022	20:56	-135.009	49.464	0	898.00	0	3.2090	0	34.3310	0	27.338	0	888.423	0	-1e10	8	-1e10	8	-1E+10	1	-1E+10	1	-1E+10	1	-1E+10	1	-1E+10	1	-1E+10	1
4902554	48	C	06/02/2022	20:56	-135.009	49.464	0	903.20	0	3.1960	0	34.3330	0	27.340	0	893.556	0	-1e10	8	-1e10	8	-1E+10	1	-1E+10	1	-1E+10	1	-1E+10	1	-1E+10	1	-1E+10	1
4902554	48	C	06/02/2022	20:56	-135.009	49.464	0	908.10	0	3.1880	0	34.3350	0	27.343	0	898.393	0	-1e10	8	-1e10	8	-1E+10	1	-1E+10	1	-1E+10	1	-1E+10	1	-1E+10	1	-1E+10	1
4902554	48	C	06/02/2022	20:56	-135.009	49.464	0	913.10	0	3.1850	0	34.3380	0	27.345	0	903.329	0	-1e10	8	-1e10	8	-1E+10	1	-1E+10	1	-1E+10	1	-1E+10	1	-1E+10	1	-1E+10	1
4902554	48	C	06/02/2022	20:56	-135.009	49.464	0	918.20	0	3.1720	0	34.3400	0	27.348	0	908.363	0	-1e10	8	-1e10	8	-1E+10	1	-1E+10	1	-1E+10	1	-1E+10	1	-1E+10	1	-1E+10	1
4902554	48	C	06/02/2022	20:56	-135.009	49.464	0	922.80	0	3.1630	0	34.3420	0	27.351	0	912.904	0	-1e10	8	-1e10	8	-1E+10	1	-1E+10	1	-1E+10	1	-1E+10	1	-1E+10	1	-1E+10	1
4902554	48	C	06/02/2022	20:56	-135.009	49.464	0	927.60	0	3.1590	0	34.3420	0	27.351	0	917.642	0	-1e10	8	-1e10	8	-1E+10	1	-1E+10	1	-1E+10	1	-1E+10	1	-1E+10	1	-1E+10	1
4902554	48	C	06/02/2022	20:56	-135.009	49.464	0	932.80	0	3.1540	0	34.3430	0	27.352	0	922.775	0	-1e10	8	-1e10	8	-1E+10	1	-1E+10	1	-1E+10	1	-1E+10	1	-1E+10	1	-1E+10	1
4902554	48	C	06/02/2022	20:56	-135.009	49.464	0	937.80	0	3.1400	0	34.3450	0	27.355	0	927.710	0	-1e10	8	-1e10	8	-1E+10	1	-1E+10	1	-1E+10	1	-1E+10	1	-1E+10	1	-1E+10	1
4902554	48	C	06/02/2022	20:56	-135.009	49.464	0	942.80	0	3.1330	0	34.3470	0	27.358	0	932.645	0	-1e10	8	-1e10	8	-1E+10	1	-1E+10	1	-1E+10	1	-1E+10	1	-1E+10	1	-1E+10	1
4902554	48	C	06/02/2022	20:56	-135.009	49.464	0	947.90	0	3.1290	0	34.3470	0	27.358	0	937.679	0	-1e10	8	-1e10	8	-1E+10	1	-1E+10	1	-1E+10	1	-1E+10	1	-1E+10	1	-1E+10	1
4902554	48	C	06/02/2022	20:56	-135.009	49.464	0	952.60	0	3.1250	0	34.3480	0	27.359	0	942.317	0	-1e10	8	-1e10	8	-1E+10	1	-1E+10	1	-1E+10	1	-1E+10	1	-1E+10	1	-1E+10	1
4902554	48	C	06/02/2022	20:56	-135.009	49.464	0	957.80	0	3.1160	0	34.3500	0	27.362	0	947.449	0	-1e10	8	-1e10	8	-1E+10	1	-1E+10	1	-1E+10	1	-1E+10	1	-1E+10	1	-1E+10	1
4902554	48	C	06/02/2022	20:56	-135.009	49.464	0	963.10	0	3.1110	0	34.3510	0	27.363	0	952.680	0	-1e10	8	-1e10	8	-1E+10	1	-1E+10	1	-1E+10	1	-1E+10	1	-1E+10	1	-1E+10	1
4902554	48	C	06/02/2022	20:56	-135.009	49.464	0	968.00	0	3.1020	0	34.3530	0	27.365	0	957.516	0	-1e10	8	-1e10	8	-1E+10	1	-1E+10	1	-1E+10	1	-1E+10	1	-1E+10	1	-1E+10	1
4902554	48	C	06/02/2022	20:56	-135.009	49.464	0	973.00	0	3.0960	0	34.3540	0	27.367	0	962.450	0	-1e10	8	-1e10	8	-1E+10	1	-1E+10	1	-1E+10	1	-1E+10	1	-1E+10	1	-1E+10	1
4902554	48	C	06/02/2022	20:56	-135.009	49.464	0	978.10	0	3.0900	0	34.3550	0	27.368	0	967.483	0	-1e10	8	-1e10	8	-1E+10	1	-1E+10	1	-1E+10	1	-1E+10	1	-1E+10	1	-1E+10	1
4902554	48	C	06/02/2022	20:56	-135.009	49.464	0	983.20	0	3.0830	0	34.3570	0	27.370	0	972.516	0	-1e10	8	-1e10	8	-1E+10	1	-1E+10	1	-1E+10	1	-1E+10	1	-1E+10	1	-1E+10	1
4902554	48	C	06/02/2022	20:56	-135.009	49.464	0	988.30	0	3.0770	0	34.3580	0	27.372	0	977.549	0	-1e10	8	-1e10	8	-1E+10	1	-1E+10	1	-1E+10	1	-1E+10	1	-1E+10	1	-1E+10	1
4902554	48	C	06/02/2022	20:56	-135.009	49.464	0	992.90	0	3.0710	0	34.3590	0	27.373	0	982.088	0	-1e10	8	-1e10	8	-1E+10	1	-1E+10	1	-1E+10	1	-1E+10	1	-1E+10	1	-1E+10	1
4902554	48	C	06/02/2022	20:56	-135.009	49.464	0	997.60	0	3.0660	0	34.3600	0	27.374	0	986.726	0	-1e10	8	-1e10	8	-1E+10	1	-1E+10	1	-1E+10	1	-1E+10	1	-1E+10	1	-1E+10	1
4902554	48	C	06/02/2022	20:56	-135.009	49.464	0	1005.30	0	3.0580	0	34.3620	0	27.377	0	994.324	0	-1e10	8	-1e10	8	-1E+10	1	-1E+10	1	-1E+10	1	-1E+10	1	-1E+10	1	-1E+10	1
4902554	48	C	06/02/2022	20:56	-135.009	49.464	0	1015.60	0	3.0430	0	34.3650	0	27.381	0	1004.486	0	-1e10	8	-1e10	8	-1E+10	1	-1E+10	1	-1E+10	1	-1E+10	1	-1E+10	1	-1E+10	1
4902554	48	C	06/02/2022	20:56	-135.009	49.464	0	1025.80	0	3.0260	0	34.3690	0	27.385	0	1014.550	0	-1e10	8	-1e10	8	-1E+10	1	-1E+10	1	-1E+10	1	-1E+10	1	-1E+10	1	-1E+10	1
4902554	48	C	06/02/2022	20:56	-135.009	49.464	0	1035.70	0	3.0060	0	34.3720	0	27.390	0	1024.317	0	-1e10	8	-1e10	8	-1E+10	1	-1E+10	1	-1E+10	1	-1E+10	1	-1E+10	1	-1E+10	1
4902554	48	C	06/02/2022	20:56	-135.009	49.464	0	1045.70	0	2.9850	0	34.3770	0	27.396	0	1034.183	0	-1e10	8	-1e10	8	-1E+10	1	-1E+10	1	-1E+10	1	-1E+10	1	-1E+10	1	-1E+10	1
4902554	48	C	06/02/2022	20:56	-135.009	49.464	0	1055.80	0	2.9750	0	34.3800	0	27.399	0	1044.146	0	-1e10	8	-1e10	8	-1E+10	1	-1E+10	1	-1E+10	1	-1E+10	1	-1E+10	1	-1E+10	1
4902554	48	C	06/02/2022	20:56	-135.009	49.464	0	1065.50	0	2.9590	0	34.3830	0	27.403	0	1053.715	0	-1e10	8	-1e10	8	-1E+10	1	-1E+10	1	-1E+10	1	-1E+10	1	-1E+10	1	-1E+10	1
4902554	48	C	06/02/2022	20:56	-135.009	49.464	0	1075.60	0	2.9330	0	34.3890	0	27.410	0	1063.678	0	-1e10	8	-1e10	8	-1E+10	1	-1E+10	1	-1E+10	1	-1E+10	1	-1E+10	1	-1E+10	1
4902554	48	C	06/02/2022	20:56	-135.009	49.464	0	1085.40	0	2.9060	0	34.3940	0	27.416	0	1073.344	0	-1e10	8	-1e10	8	-1E+10	1	-1E+10	1	-1E+10	1	-1E+10	1	-1E+10	1	-1E+10	1
4902554	48	C	06/02/2022	20:56	-135.009	49.464	0	1095.40	0	2.8780	0	34.3990	0	27.423	0	1083.207	0	-1e10	8	-1e10	8	-1E+10	1	-1E+10	1	-1E+10	1	-1E+10	1	-1E+10	1	-1E+10	1
4902554	48	C	06/02/2022	20:56	-135.009	49.464	0	1105.40	0	2.8590	0	34.4030	0	27.428	0	1093.070	0	-1e10	8	-1e10	8	-1E+10	1	-1E+10	1	-1E+10	1	-1E+10	1	-1E+10	1	-1E+10	1
4902554	48	C	06/02/2022	20:56	-135.009	49.464	0	1115.20	0	2.8490	0	34.4060	0	27.431	0	1102.735	0	-1e10	8	-1e10	8	-1E+10	1	-1E+10	1	-1E+10	1	-1E+10	1	-1E+10	1	-1E+10	1
4902554	48	C	06/02/2022	20:56	-135.009	49.464	0	1125.30	0	2.8410	0	34.4070	0	27.433	0	1112.695	0	-1e10	8	-1e10	8	-1E+10	1	-1E+10	1	-1E+10	1	-1E+10	1	-1E+10	1	-1E+10	1
4902554	48	C	06/02/2022	20:56	-135.009	49.464	0	1135.10	0	2.8270	0	34.4100	0	27.437	0	1122.359	0	-1e10	8	-1e10	8	-1E+10	1	-1E+10	1	-1E+10	1	-1E+10	1	-1E+10	1	-1E+10	1
4902554	48	C	06/02/2022	20:56	-135.009	49.464	0	1145.30	0	2.8000	0	34.4150	0	27.443	0	1132.417	0	-1e10	8	-1e10	8	-1E+10	1	-1E+10	1	-1E+10	1	-1E+10	1	-1E+10	1	-1E+10	1
4902554	48	C	06/02/2022	20:56	-135.009	49.464	0	1155.60	0	2.7860	0	34.4180	0	27.447	0	1142.573	0	-1e10	8	-1e10	8	-1E+10	1	-1E+10	1	-1E+10	1	-1E+10	1	-1E+10	1	-1E+10	1
4902554	48	C	06/02/2022	20:56	-135.009	49.464	0	1165.40	0	2.7800	0	34.4190	0	27.448	0	1152.236	0	-1e10	8	-1e10	8	-1E+10	1	-1E+10	1	-1E+10	1	-1E+10	1	-1E+10	1	-1E+10	1
4902554	48	C	06/02/2022	20:56	-135.009	49.464	0	1175.20	0	2.7610	0	34.4230	0	27.453	0	1161.898	0	-1e10	8	-1e10	8	-1E+10	1	-1E+10	1	-1E+10	1	-1E+10	1	-1E+10	1	-1E+10	1
4902554	48	C	06/02/2022	20:56	-135.009	49.464	0	1185.30	0	2.7390	0	34.4260	0	27.457	0	1171.856	0	-1e10	8	-1e10	8	-1E+10	1	-1E+10	1	-1E+10	1	-1E+10	1	-1E+10	1	-1E+10	1
4902554	48	C	06/02/2022	20:56	-135.009	49.464	0	1195.50	0	2.7150	0	34.4310	0	27.463	0	1181.912	0	-1e10	8	-1e10	8	-1E+10	1	-1E+10	1	-1E+10	1	-1E+10	1	-1E+10	1	-1E+10	1
4902554	48	C	06/02/2022	20:56	-135.009	49.464	0	1205.50	0	2.7030	0	34.4340	0	27.467	0	1191.770	0	-1e10	8	-1e10	8	-1E+10	1	-1E+10	1	-1E+10	1	-1E+10	1	-1E+10	1	-1E+10	1
4902554	48	C	06/02/2022	20:56	-135.009	49.464	0	1215.50	0	2.6830	0	34.4370	0	27.471	0	1201.627	0	-1e10	8	-1e10	8	-1E+10	1	-1E+10	1	-1E+10	1	-1E+10	1	-1E+10	1	-1E+10	1
4902554	48	C	06/02/2022	20:56	-135.009	49.464	0	1225.10	0	2.6660	0	34.4410	0	27.476	0	1211.090	0	-1e10	8	-1e10	8	-1E+10	1	-1E+10	1	-1E+10	1	-1E+10	1	-1E+10	1	-1E+10	1
4902554	48	C	06/02/2022	20:56	-135.009	49.464	0	1235.00	0	2.6540	0	34.4430	0	27.478	0	1220.848	0	-1e10	8	-1e10	8	-1E+10	1	-1E+10	1	-1E+10	1	-1E+10	1	-1E+10	1	-1E+10	1
4902554	48	C	06/02/2022	20:56	-135.009	49.464	0	1245.00	0	2.6360	0	34.4460	0	27.482	0	1230.704	0	-1e10	8	-1e10	8	-1E+10	1	-1E+10	1	-1E+10	1	-1E+10	1	-1E+10	1	-1E+10	1
4902554	48	C	06/02/2022	20:56	-135.009	49.464	0	1255.20	0	2.6210	0	34.4480	0	27.485	0	1240.757	0	-1e10	8	-1e10	8	-1E+10	1	-1E+10	1	-1E+10	1	-1E+10	1	-1E+10	1	-1E+10	1
4902554	48	C	06/02/2022	20:56	-135.009	49.464	0	1265.50	0	2.6070	0	34.4510	0	27.489	0	1250.908	0	-1e10	8	-1e10	8	-1E+10	1	-1E+10	1	-1E+10	1	-1E+10	1	-1E+10	1	-1E+10	1
4902554	48	C	06/02/2022	20:56	-135.009	49.464	0	1275.50	0	2.5880	0	34.4550	0	27.494	0	1260.763	0	-1e10	8	-1e10	8	-1E+10	1	-1E+10	1	-1E+10	1	-1E+10	1	-1E+10	1	-1E+10	1
4902554	48	C	06/02/2022	20:56	-135.009	49.464	0	1285.60	0	2.5760	0	34.4570	0	27.497	0	1270.715	0	-1e10	8	-1e10	8	-1E+10	1	-1E+10	1	-1E+10	1	-1E+10	1	-1E+10	1	-1E+10	1
4902554	48	C	06/02/2022	20:56	-135.009	49.464	0	1295.60	0	2.5720	0	34.4580	0	27.498	0	1280.569	0	-1e10	8	-1e10	8	-1E+10	1	-1E+10	1	-1E+10	1	-1E+10	1	-1E+10	1	-1E+10	1
4902554	48	C	06/02/2022	20:56	-135.009	49.464	0	1305.60	0	2.5590	0	34.4600	0	27.501	0	1290.423	0	-1e10	8	-1e10	8	-1E+10	1	-1E+10	1	-1E+10	1	-1E+10	1	-1E+10	1	-1E+10	1
4902554	48	C	06/02/2022	20:56	-135.009	49.464	0	1315.50	0	2.5430	0	34.4640	0	27.505	0	1300.177	0	-1e10	8	-1e10	8	-1E+10	1	-1E+10	1	-1E+10	1	-1E+10	1	-1E+10	1	-1E+10	1
4902554	48	C	06/02/2022	20:56	-135.009	49.464	0	1325.50	0	2.5300	0	34.4660	0	27.508	0	1310.030	0	-1e10	8	-1e10	8	-1E+10	1	-1E+10	1	-1E+10	1	-1E+10	1	-1E+10	1	-1E+10	1
4902554	48	C	06/02/2022	20:56	-135.009	49.464	0	1335.60	0	2.5160	0	34.4690	0	27.512	0	1319.980	0	-1e10	8	-1e10	8	-1E+10	1	-1E+10	1	-1E+10	1	-1E+10	1	-1E+10	1	-1E+10	1
4902554	48	C	06/02/2022	20:56	-135.009	49.464	0	1345.70	0	2.5030	0	34.4720	0	27.515	0	1329.930	0	-1e10	8	-1e10	8	-1E+10	1	-1E+10	1	-1E+10	1	-1E+10	1	-1E+10	1	-1E+10	1
4902554	48	C	06/02/2022	20:56	-135.009	49.464	0	1355.60	0	2.4950	0	34.4730	0	27.517	0	1339.683	0	-1e10	8	-1e10	8	-1E+10	1	-1E+10	1	-1E+10	1	-1E+10	1	-1E+10	1	-1E+10	1
4902554	48	C	06/02/2022	20:56	-135.009	49.464	0	1365.10	0	2.4860	0	34.4740	0	27.518	0	1349.041	0	-1e10	8	-1e10	8	-1E+10	1	-1E+10	1	-1E+10	1	-1E+10	1	-1E+10	1	-1E+10	1
4902554	48	C	06/02/2022	20:56	-135.009	49.464	0	1375.30	0	2.4760	0	34.4770	0	27.522	0	1359.088	0	-1e10	8	-1e10	8	-1E+10	1	-1E+10	1	-1E+10	1	-1E+10	1	-1E+10	1	-1E+10	1
4902554	48	C	06/02/2022	20:56	-135.009	49.464	0	1385.50	0	2.4650	0	34.4790	0	27.524	0	1369.134	0	-1e10	8	-1e10	8	-1E+10	1	-1E+10	1	-1E+10	1	-1E+10	1	-1E+10	1	-1E+10	1
4902554	48	C	06/02/2022	20:56	-135.009	49.464	0	1395.50	0	2.4580	0	34.4800	0	27.526	0	1378.984	0	-1e10	8	-1e10	8	-1E+10	1	-1E+10	1	-1E+10	1	-1E+10	1	-1E+10	1	-1E+10	1
4902554	48	C	06/02/2022	20:56	-135.009	49.464	0	1405.60	0	2.4480	0	34.4820	0	27.528	0	1388.931	0	-1e10	8	-1e10	8	-1E+10	1	-1E+10	1	-1E+10	1	-1E+10	1	-1E+10	1	-1E+10	1
4902554	48	C	06/02/2022	20:56	-135.009	49.464	0	1415.30	0	2.4330	0	34.4850	0	27.532	0	1398.484	0	-1e10	8	-1e10	8	-1E+10	1	-1E+10	1	-1E+10	1	-1E+10	1	-1E+10	1	-1E+10	1
4902554	48	C	06/02/2022	20:56	-135.009	49.464	0	1425.10	0	2.4230	0	34.4870	0	27.534	0	1408.135	0	-1e10	8	-1e10	8	-1E+10	1	-1E+10	1	-1E+10	1	-1E+10	1	-1E+10	1	-1E+10	1
4902554	48	C	06/02/2022	20:56	-135.009	49.464	0	1435.50	0	2.4120	0	34.4890	0	27.537	0	1418.376	0	-1e10	8	-1e10	8	-1E+10	1	-1E+10	1	-1E+10	1	-1E+10	1	-1E+10	1	-1E+10	1
4902554	48	C	06/02/2022	20:56	-135.009	49.464	0	1445.30	0	2.4020	0	34.4910	0	27.539	0	1428.026	0	-1e10	8	-1e10	8	-1E+10	1	-1E+10	1	-1E+10	1	-1E+10	1	-1E+10	1	-1E+10	1
4902554	48	C	06/02/2022	20:56	-135.009	49.464	0	1455.10	0	2.3930	0	34.4930	0	27.542	0	1437.675	0	-1e10	8	-1e10	8	-1E+10	1	-1E+10	1	-1E+10	1	-1E+10	1	-1E+10	1	-1E+10	1
4902554	48	C	06/02/2022	20:56	-135.009	49.464	0	1465.40	0	2.3800	0	34.4960	0	27.545	0	1447.817	0	-1e10	8	-1e10	8	-1E+10	1	-1E+10	1	-1E+10	1	-1E+10	1	-1E+10	1	-1E+10	1
4902554	48	C	06/02/2022	20:56	-135.009	49.464	0	1475.70	0	2.3690	0	34.4980	0	27.548	0	1457.958	0	-1e10	8	-1e10	8	-1E+10	1	-1E+10	1	-1E+10	1	-1E+10	1	-1E+10	1	-1E+10	1
4902554	48	C	06/02/2022	20:56	-135.009	49.464	0	1485.50	0	2.3550	0	34.5010	0	27.551	0	1467.606	0	-1e10	8	-1e10	8	-1E+10	1	-1E+10	1	-1E+10	1	-1E+10	1	-1E+10	1	-1E+10	1
4902554	48	C	06/02/2022	20:56	-135.009	49.464	0	1495.50	0	2.3460	0	34.5030	0	27.554	0	1477.450	0	-1e10	8	-1e10	8	-1E+10	1	-1E+10	1	-1E+10	1	-1E+10	1	-1E+10	1	-1E+10	1
4902554	48	C	06/02/2022	20:56	-135.009	49.464	0	1505.40	0	2.3320	0	34.5060	0	27.557	0	1487.196	0	-1e10	8	-1e10	8	-1E+10	1	-1E+10	1	-1E+10	1	-1E+10	1	-1E+10	1	-1E+10	1
4902554	48	C	06/02/2022	20:56	-135.009	49.464	0	1515.10	0	2.3240	0	34.5070	0	27.559	0	1496.745	0	-1e10	8	-1e10	8	-1E+10	1	-1E+10	1	-1E+10	1	-1E+10	1	-1E+10	1	-1E+10	1
4902554	48	C	06/02/2022	20:56	-135.009	49.464	0	1525.30	0	2.3130	0	34.5090	0	27.561	0	1506.785	0	-1e10	8	-1e10	8	-1E+10	1	-1E+10	1	-1E+10	1	-1E+10	1	-1E+10	1	-1E+10	1
4902554	48	C	06/02/2022	20:56	-135.009	49.464	0	1535.60	0	2.2950	0	34.5130	0	27.566	0	1516.923	0	-1e10	8	-1e10	8	-1E+10	1	-1E+10	1	-1E+10	1	-1E+10	1	-1E+10	1	-1E+10	1
4902554	48	C	06/02/2022	20:56	-135.009	49.464	0	1545.70	0	2.2840	0	34.5150	0	27.569	0	1526.863	0	-1e10	8	-1e10	8	-1E+10	1	-1E+10	1	-1E+10	1	-1E+10	1	-1E+10	1	-1E+10	1
4902554	48	C	06/02/2022	20:56	-135.009	49.464	0	1555.40	0	2.2730	0	34.5170	0	27.571	0	1536.410	0	-1e10	8	-1e10	8	-1E+10	1	-1E+10	1	-1E+10	1	-1E+10	1	-1E+10	1	-1E+10	1
4902554	48	C	06/02/2022	20:56	-135.009	49.464	0	1565.20	0	2.2610	0	34.5200	0	27.575	0	1546.055	0	-1e10	8	-1e10	8	-1E+10	1	-1E+10	1	-1E+10	1	-1E+10	1	-1E+10	1	-1E+10	1
4902554	48	C	06/02/2022	20:56	-135.009	49.464	0	1575.30	0	2.2490	0	34.5220	0	27.577	0	1555.994	0	-1e10	8	-1e10	8	-1E+10	1	-1E+10	1	-1E+10	1	-1E+10	1	-1E+10	1	-1E+10	1
4902554	48	C	06/02/2022	20:56	-135.009	49.464	0	1585.30	0	2.2370	0	34.5240	0	27.580	0	1565.834	0	-1e10	8	-1e10	8	-1E+10	1	-1E+10	1	-1E+10	1	-1E+10	1	-1E+10	1	-1E+10	1
4902554	48	C	06/02/2022	20:56	-135.009	49.464	0	1595.20	0	2.2320	0	34.5260	0	27.582	0	1575.576	0	-1e10	8	-1e10	8	-1E+10	1	-1E+10	1	-1E+10	1	-1E+10	1	-1E+10	1	-1E+10	1
4902554	48	C	06/02/2022	20:56	-135.009	49.464	0	1605.30	0	2.2200	0	34.5280	0	27.585	0	1585.514	0	-1e10	8	-1e10	8	-1E+10	1	-1E+10	1	-1E+10	1	-1E+10	1	-1E+10	1	-1E+10	1
4902554	48	C	06/02/2022	20:56	-135.009	49.464	0	1615.80	0	2.2060	0	34.5310	0	27.588	0	1595.845	0	-1e10	8	-1e10	8	-1E+10	1	-1E+10	1	-1E+10	1	-1E+10	1	-1E+10	1	-1E+10	1
4902554	48	C	06/02/2022	20:56	-135.009	49.464	0	1625.90	0	2.2000	0	34.5320	0	27.589	0	1605.782	0	-1e10	8	-1e10	8	-1E+10	1	-1E+10	1	-1E+10	1	-1E+10	1	-1E+10	1	-1E+10	1
4902554	48	C	06/02/2022	20:56	-135.009	49.464	0	1635.60	0	2.1940	0	34.5340	0	27.592	0	1615.325	0	-1e10	8	-1e10	8	-1E+10	1	-1E+10	1	-1E+10	1	-1E+10	1	-1E+10	1	-1E+10	1
4902554	48	C	06/02/2022	20:56	-135.009	49.464	0	1645.70	0	2.1870	0	34.5350	0	27.593	0	1625.261	0	-1e10	8	-1e10	8	-1E+10	1	-1E+10	1	-1E+10	1	-1E+10	1	-1E+10	1	-1E+10	1
4902554	48	C	06/02/2022	20:56	-135.009	49.464	0	1655.40	0	2.1840	0	34.5360	0	27.594	0	1634.803	0	-1e10	8	-1e10	8	-1E+10	1	-1E+10	1	-1E+10	1	-1E+10	1	-1E+10	1	-1E+10	1
4902554	48	C	06/02/2022	20:56	-135.009	49.464	0	1665.00	0	2.1720	0	34.5380	0	27.597	0	1644.247	0	-1e10	8	-1e10	8	-1E+10	1	-1E+10	1	-1E+10	1	-1E+10	1	-1E+10	1	-1E+10	1
4902554	48	C	06/02/2022	20:56	-135.009	49.464	0	1675.40	0	2.1690	0	34.5390	0	27.598	0	1654.476	0	-1e10	8	-1e10	8	-1E+10	1	-1E+10	1	-1E+10	1	-1E+10	1	-1E+10	1	-1E+10	1
4902554	48	C	06/02/2022	20:56	-135.009	49.464	0	1685.80	0	2.1630	0	34.5400	0	27.599	0	1664.706	0	-1e10	8	-1e10	8	-1E+10	1	-1E+10	1	-1E+10	1	-1E+10	1	-1E+10	1	-1E+10	1
4902554	48	C	06/02/2022	20:56	-135.009	49.464	0	1695.40	0	2.1540	0	34.5420	0	27.602	0	1674.148	0	-1e10	8	-1e10	8	-1E+10	1	-1E+10	1	-1E+10	1	-1E+10	1	-1E+10	1	-1E+10	1
4902554	48	C	06/02/2022	20:56	-135.009	49.464	0	1705.10	0	2.1470	0	34.5430	0	27.603	0	1683.688	0	-1e10	8	-1e10	8	-1E+10	1	-1E+10	1	-1E+10	1	-1E+10	1	-1E+10	1	-1E+10	1
4902554	48	C	06/02/2022	20:56	-135.009	49.464	0	1715.40	0	2.1380	0	34.5450	0	27.605	0	1693.817	0	-1e10	8	-1e10	8	-1E+10	1	-1E+10	1	-1E+10	1	-1E+10	1	-1E+10	1	-1E+10	1
4902554	48	C	06/02/2022	20:56	-135.009	49.464	0	1725.40	0	2.1320	0	34.5460	0	27.607	0	1703.651	0	-1e10	8	-1e10	8	-1E+10	1	-1E+10	1	-1E+10	1	-1E+10	1	-1E+10	1	-1E+10	1
4902554	48	C	06/02/2022	20:56	-135.009	49.464	0	1735.10	0	2.1250	0	34.5470	0	27.608	0	1713.190	0	-1e10	8	-1e10	8	-1E+10	1	-1E+10	1	-1E+10	1	-1E+10	1	-1E+10	1	-1E+10	1
4902554	48	C	06/02/2022	20:56	-135.009	49.464	0	1745.50	0	2.1160	0	34.5490	0	27.610	0	1723.416	0	-1e10	8	-1e10	8	-1E+10	1	-1E+10	1	-1E+10	1	-1E+10	1	-1E+10	1	-1E+10	1
4902554	48	C	06/02/2022	20:56	-135.009	49.464	0	1755.80	0	2.1050	0	34.5510	0	27.613	0	1733.544	0	-1e10	8	-1e10	8	-1E+10	1	-1E+10	1	-1E+10	1	-1E+10	1	-1E+10	1	-1E+10	1
4902554	48	C	06/02/2022	20:56	-135.009	49.464	0	1765.70	0	2.0970	0	34.5520	0	27.614	0	1743.278	0	-1e10	8	-1e10	8	-1E+10	1	-1E+10	1	-1E+10	1	-1E+10	1	-1E+10	1	-1E+10	1
4902554	48	C	06/02/2022	20:56	-135.009	49.464	0	1775.50	0	2.0890	0	34.5540	0	27.617	0	1752.913	0	-1e10	8	-1e10	8	-1E+10	1	-1E+10	1	-1E+10	1	-1E+10	1	-1E+10	1	-1E+10	1
4902554	48	C	06/02/2022	20:56	-135.009	49.464	0	1785.40	0	2.0830	0	34.5550	0	27.618	0	1762.646	0	-1e10	8	-1e10	8	-1E+10	1	-1E+10	1	-1E+10	1	-1E+10	1	-1E+10	1	-1E+10	1
4902554	48	C	06/02/2022	20:56	-135.009	49.464	0	1795.50	0	2.0770	0	34.5560	0	27.619	0	1772.575	0	-1e10	8	-1e10	8	-1E+10	1	-1E+10	1	-1E+10	1	-1E+10	1	-1E+10	1	-1E+10	1
4902554	48	C	06/02/2022	20:56	-135.009	49.464	0	1805.60	0	2.0710	0	34.5580	0	27.622	0	1782.504	0	-1e10	8	-1e10	8	-1E+10	1	-1E+10	1	-1E+10	1	-1E+10	1	-1E+10	1	-1E+10	1
4902554	48	C	06/02/2022	20:56	-135.009	49.464	0	1815.30	0	2.0630	0	34.5590	0	27.623	0	1792.039	0	-1e10	8	-1e10	8	-1E+10	1	-1E+10	1	-1E+10	1	-1E+10	1	-1E+10	1	-1E+10	1
4902554	48	C	06/02/2022	20:56	-135.009	49.464	0	1825.00	0	2.0560	0	34.5610	0	27.625	0	1801.573	0	-1e10	8	-1e10	8	-1E+10	1	-1E+10	1	-1E+10	1	-1E+10	1	-1E+10	1	-1E+10	1
4902554	48	C	06/02/2022	20:56	-135.009	49.464	0	1835.20	0	2.0510	0	34.5620	0	27.626	0	1811.599	0	-1e10	8	-1e10	8	-1E+10	1	-1E+10	1	-1E+10	1	-1E+10	1	-1E+10	1	-1E+10	1
4902554	48	C	06/02/2022	20:56	-135.009	49.464	0	1845.40	0	2.0460	0	34.5630	0	27.628	0	1821.624	0	-1e10	8	-1e10	8	-1E+10	1	-1E+10	1	-1E+10	1	-1E+10	1	-1E+10	1	-1E+10	1
4902554	48	C	06/02/2022	20:56	-135.009	49.464	0	1855.70	0	2.0380	0	34.5650	0	27.630	0	1831.747	0	-1e10	8	-1e10	8	-1E+10	1	-1E+10	1	-1E+10	1	-1E+10	1	-1E+10	1	-1E+10	1
4902554	48	C	06/02/2022	20:56	-135.009	49.464	0	1865.30	0	2.0310	0	34.5670	0	27.632	0	1841.182	0	-1e10	8	-1e10	8	-1E+10	1	-1E+10	1	-1E+10	1	-1E+10	1	-1E+10	1	-1E+10	1
4902554	48	C	06/02/2022	20:56	-135.009	49.464	0	1875.00	0	2.0290	0	34.5670	0	27.632	0	1850.714	0	-1e10	8	-1e10	8	-1E+10	1	-1E+10	1	-1E+10	1	-1E+10	1	-1E+10	1	-1E+10	1
4902554	48	C	06/02/2022	20:56	-135.009	49.464	0	1885.20	0	2.0220	0	34.5680	0	27.634	0	1860.737	0	-1e10	8	-1e10	8	-1E+10	1	-1E+10	1	-1E+10	1	-1E+10	1	-1E+10	1	-1E+10	1
4902554	48	C	06/02/2022	20:56	-135.009	49.464	0	1895.50	0	2.0140	0	34.5700	0	27.636	0	1870.858	0	-1e10	8	-1e10	8	-1E+10	1	-1E+10	1	-1E+10	1	-1E+10	1	-1E+10	1	-1E+10	1
4902554	48	C	06/02/2022	20:56	-135.009	49.464	0	1905.30	0	2.0080	0	34.5710	0	27.637	0	1880.488	0	-1e10	8	-1e10	8	-1E+10	1	-1E+10	1	-1E+10	1	-1E+10	1	-1E+10	1	-1E+10	1
4902554	48	C	06/02/2022	20:56	-135.009	49.464	0	1915.30	0	1.9980	0	34.5730	0	27.640	0	1890.313	0	-1e10	8	-1e10	8	-1E+10	1	-1E+10	1	-1E+10	1	-1E+10	1	-1E+10	1	-1E+10	1
4902554	48	C	06/02/2022	20:56	-135.009	49.464	0	1925.40	0	1.9970	0	34.5740	0	27.641	0	1900.236	0	-1e10	8	-1e10	8	-1E+10	1	-1E+10	1	-1E+10	1	-1E+10	1	-1E+10	1	-1E+10	1
4902554	48	C	06/02/2022	20:56	-135.009	49.464	0	1935.00	0	1.9940	0	34.5740	0	27.641	0	1909.668	0	-1e10	8	-1e10	8	-1E+10	1	-1E+10	1	-1E+10	1	-1E+10	1	-1E+10	1	-1E+10	1
4902554	48	C	06/02/2022	20:56	-135.009	49.464	0	1945.20	0	1.9850	0	34.5760	0	27.643	0	1919.688	0	-1e10	8	-1e10	8	-1E+10	1	-1E+10	1	-1E+10	1	-1E+10	1	-1E+10	1	-1E+10	1
4902554	48	C	06/02/2022	20:56	-135.009	49.464	0	1955.20	0	1.9760	0	34.5780	0	27.646	0	1929.512	0	-1e10	8	-1e10	8	-1E+10	1	-1E+10	1	-1E+10	1	-1E+10	1	-1E+10	1	-1E+10	1
4902554	48	C	06/02/2022	20:56	-135.009	49.464	0	1965.20	0	1.9670	0	34.5790	0	27.647	0	1939.335	0	-1e10	8	-1e10	8	-1E+10	1	-1E+10	1	-1E+10	1	-1E+10	1	-1E+10	1	-1E+10	1
4902554	48	C	06/02/2022	20:56	-135.009	49.464	0	1975.50	0	1.9650	0	34.5800	0	27.648	0	1949.452	0	-1e10	8	-1e10	8	-1E+10	1	-1E+10	1	-1E+10	1	-1E+10	1	-1E+10	1	-1E+10	1
4902554	48	C	06/02/2022	20:56	-135.009	49.464	0	1985.30	0	1.9580	0	34.5810	0	27.650	0	1959.078	0	-1e10	8	-1e10	8	-1E+10	1	-1E+10	1	-1E+10	1	-1E+10	1	-1E+10	1	-1E+10	1
4902554	48	C	06/02/2022	20:56	-135.009	49.464	0	1995.00	0	1.9530	0	34.5820	0	27.651	0	1968.605	0	-1e10	8	-1e10	8	-1E+10	1	-1E+10	1	-1E+10	1	-1E+10	1	-1E+10	1	-1E+10	1
4902554	48	C	06/02/2022	20:56	-135.009	49.464	0	2005.40	0	1.9460	0	34.5840	0	27.653	0	1978.819	0	-1e10	8	-1e10	8	-1E+10	1	-1E+10	1	-1E+10	1	-1E+10	1	-1E+10	1	-1E+10	1
4902554	48	C	06/02/2022	20:56	-135.009	49.464	0	2015.80	0	1.9360	0	34.5850	0	27.655	0	1989.033	0	-1e10	8	-1e10	8	-1E+10	1	-1E+10	1	-1E+10	1	-1E+10	1	-1E+10	1	-1E+10	1
4902554	48	C	06/02/2022	20:56	-135.009	49.464	0	2020.80	0	1.9280	0	34.5870	0	27.657	0	1993.943	0	-1e10	8	-1e10	8	-1E+10	1	-1E+10	1	-1E+10	1	-1E+10	1	-1E+10	1	-1E+10	1
4902554	48	C	06/02/2022	20:56	-135.009	49.464	0																										
4902554	49	C	06/13/2022	02:01	-134.824	49.476	0	0.40	0	9.7580	0	32.2950	0	24.881	0	0.397	0	-1e10	8	-1e10	8	-1E+10	1	-1E+10	1	-1E+10	1	-1E+10	1	-1E+10	1	-1E+10	1
4902554	49	C	06/13/2022	02:01	-134.824	49.476	0	0.50	0	9.7581	0	32.2944	0	24.880	0	0.496	0	-1e10	1	-1e10	1	-1E+10	1	-1E+10	1	-1E+10	1	-1E+10	1	-1E+10	1	-1E+10	1
4902554	49	C	06/13/2022	02:01	-134.824	49.476	0	0.60	0	9.7583	0	32.2939	0	24.880	0	0.595	0	-1e10	1	-1e10	1	-1E+10	1	-1E+10	1	-1E+10	1	-1E+10	1	-1E+10	1	-1E+10	1
4902554	49	C	06/13/2022	02:01	-134.824	49.476	0	0.80	0	9.7586	0	32.2927	0	24.879	0	0.793	0	-1e10	8	-1e10	8	-1E+10	1	-1E+10	1	-1E+10	1	-1E+10	1	-1E+10	1	-1E+10	1
4902554	49	C	06/13/2022	02:01	-134.824	49.476	0	1.10	0	9.7590	0	32.2910	0	24.877	0	1.091	0	-1e10	1	-1e10	1	-1E+10	1	-1E+10	1	-1E+10	1	-1E+10	1	-1E+10	1	-1E+10	1
4902554	49	C	06/13/2022	02:01	-134.824	49.476	0	1.50	0	9.7582	0	32.2906	0	24.877	0	1.487	0	-1e10	1	-1e10	1	-1E+10	1	-1E+10	1	-1E+10	1	-1E+10	1	-1E+10	1	-1E+10	1
4902554	49	C	06/13/2022	02:01	-134.824	49.476	0	2.10	0	9.7570	0	32.2900	0	24.877	0	2.082	0	-1e10	1	-1e10	1	-1E+10	1	-1E+10	1	-1E+10	1	-1E+10	1	-1E+10	1	-1E+10	1
4902554	49	C	06/13/2022	02:01	-134.824	49.476	0	2.20	0	9.7572	0	32.2899	0	24.877	0	2.181	0	-1e10	8	-1e10	8	-1E+10	1	-1E+10	1	-1E+10	1	-1E+10	1	-1E+10	1	-1E+10	1
4902554	49	C	06/13/2022	02:01	-134.824	49.476	0	2.50	0	9.7578	0	32.2896	0	24.876	0	2.479	0	-1e10	1	-1e10	1	-1E+10	1	-1E+10	1	-1E+10	1	-1E+10	1	-1E+10	1	-1E+10	1
4902554	49	C	06/13/2022	02:01	-134.824	49.476	0	2.60	0	9.7580	0	32.2895	0	24.876	0	2.578	0	-1e10	1	-1e10	1	-1E+10	1	-1E+10	1	-1E+10	1	-1E+10	1	-1E+10	1	-1E+10	1
4902554	49	C	06/13/2022	02:01	-134.824	49.476	0	2.90	0	9.7586	0	32.2892	0	24.876	0	2.875	0	-1e10	1	-1e10	1	-1E+10	1	-1E+10	1	-1E+10	1	-1E+10	1	-1E+10	1	-1E+10	1
4902554	49	C	06/13/2022	02:01	-134.824	49.476	0	3.10	0	9.7590	0	32.2890	0	24.876	0	3.074	0	-1e10	8	-1e10	8	-1E+10	1	-1E+10	1	-1E+10	1	-1E+10	1	-1E+10	1	-1E+10	1
4902554	49	C	06/13/2022	02:01	-134.824	49.476	0	4.10	0	9.7590	0	32.2900	0	24.877	0	4.065	0	-1e10	8	-1e10	8	-1E+10	1	-1E+10	1	-1E+10	1	-1E+10	1	-1E+10	1	-1E+10	1
4902554	49	C	06/13/2022	02:01	-134.824	49.476	0	5.10	0	9.7560	0	32.2950	0	24.881	0	5.056	0	-1e10	8	-1e10	8	-1E+10	1	-1E+10	1	-1E+10	1	-1E+10	1	-1E+10	1	-1E+10	1
4902554	49	C	06/13/2022	02:01	-134.824	49.476	0	6.00	0	9.7540	0	32.2950	0	24.881	0	5.949	0	-1e10	8	-1e10	8	-1E+10	1	-1E+10	1	-1E+10	1	-1E+10	1	-1E+10	1	-1E+10	1
4902554	49	C	06/13/2022	02:01	-134.824	49.476	0	7.00	0	9.7560	0	32.2960	0	24.882	0	6.940	0	-1e10	8	-1e10	8	-1E+10	1	-1E+10	1	-1E+10	1	-1E+10	1	-1E+10	1	-1E+10	1
4902554	49	C	06/13/2022	02:01	-134.824	49.476	0	8.00	0	9.7560	0	32.2940	0	24.880	0	7.932	0	-1e10	8	-1e10	8	-1E+10	1	-1E+10	1	-1E+10	1	-1E+10	1	-1E+10	1	-1E+10	1
4902554	49	C	06/13/2022	02:01	-134.824	49.476	0	9.10	0	9.7530	0	32.2960	0	24.882	0	9.022	0	-1e10	8	-1e10	8	-1E+10	1	-1E+10	1	-1E+10	1	-1E+10	1	-1E+10	1	-1E+10	1
4902554	49	C	06/13/2022	02:01	-134.824	49.476	0	9.80	0	9.7530	0	32.2940	0	24.881	0	9.716	0	-1e10	8	-1e10	8	-1E+10	1	-1E+10	1	-1E+10	1	-1E+10	1	-1E+10	1	-1E+10	1
4902554	49	C	06/13/2022	02:01	-134.824	49.476	0	10.80	0	9.7500	0	32.2950	0	24.882	0	10.708	0	-1e10	8	-1e10	8	-1E+10	1	-1E+10	1	-1E+10	1	-1E+10	1	-1E+10	1	-1E+10	1
4902554	49	C	06/13/2022	02:01	-134.824	49.476	0	11.90	0	9.7410	0	32.2950	0	24.883	0	11.798	0	-1e10	8	-1e10	8	-1E+10	1	-1E+10	1	-1E+10	1	-1E+10	1	-1E+10	1	-1E+10	1
4902554	49	C	06/13/2022	02:01	-134.824	49.476	0	13.30	0	9.7510	0	32.2930	0	24.880	0	13.186	0	-1e10	8	-1e10	8	-1E+10	1	-1E+10	1	-1E+10	1	-1E+10	1	-1E+10	1	-1E+10	1
4902554	49	C	06/13/2022	02:01	-134.824	49.476	0	14.20	0	9.7520	0	32.2960	0	24.883	0	14.078	0	-1e10	8	-1e10	8	-1E+10	1	-1E+10	1	-1E+10	1	-1E+10	1	-1E+10	1	-1E+10	1
4902554	49	C	06/13/2022	02:01	-134.824	49.476	0	15.10	0	9.7330	0	32.2970	0	24.886	0	14.971	0	-1e10	8	-1e10	8	-1E+10	1	-1E+10	1	-1E+10	1	-1E+10	1	-1E+10	1	-1E+10	1
4902554	49	C	06/13/2022	02:01	-134.824	49.476	0	15.90	0	9.7200	0	32.2970	0	24.889	0	15.764	0	-1e10	8	-1e10	8	-1E+10	1	-1E+10	1	-1E+10	1	-1E+10	1	-1E+10	1	-1E+10	1
4902554	49	C	06/13/2022	02:01	-134.824	49.476	0	17.10	0	9.6930	0	32.3000	0	24.895	0	16.954	0	-1e10	8	-1e10	8	-1E+10	1	-1E+10	1	-1E+10	1	-1E+10	1	-1E+10	1	-1E+10	1
4902554	49	C	06/13/2022	02:01	-134.824	49.476	0	17.90	0	9.6780	0	32.3020	0	24.899	0	17.747	0	-1e10	8	-1e10	8	-1E+10	1	-1E+10	1	-1E+10	1	-1E+10	1	-1E+10	1	-1E+10	1
4902554	49	C	06/13/2022	02:01	-134.824	49.476	0	19.10	0	9.6370	0	32.3080	0	24.911	0	18.936	0	-1e10	8	-1e10	8	-1E+10	1	-1E+10	1	-1E+10	1	-1E+10	1	-1E+10	1	-1E+10	1
4902554	49	C	06/13/2022	02:01	-134.824	49.476	0	20.00	0	9.5990	0	32.3100	0	24.918	0	19.829	0	-1e10	8	-1e10	8	-1E+10	1	-1E+10	1	-1E+10	1	-1E+10	1	-1E+10	1	-1E+10	1
4902554	49	C	06/13/2022	02:01	-134.824	49.476	0	20.90	0	9.5080	0	32.3120	0	24.935	0	20.721	0	-1e10	8	-1e10	8	-1E+10	1	-1E+10	1	-1E+10	1	-1E+10	1	-1E+10	1	-1E+10	1
4902554	49	C	06/13/2022	02:01	-134.824	49.476	0	22.10	0	9.4260	0	32.3180	0	24.952	0	21.910	0	-1e10	8	-1e10	8	-1E+10	1	-1E+10	1	-1E+10	1	-1E+10	1	-1E+10	1	-1E+10	1
4902554	49	C	06/13/2022	02:01	-134.824	49.476	0	23.10	0	9.4080	0	32.3170	0	24.954	0	22.902	0	-1e10	8	-1e10	8	-1E+10	1	-1E+10	1	-1E+10	1	-1E+10	1	-1E+10	1	-1E+10	1
4902554	49	C	06/13/2022	02:01	-134.824	49.476	0	24.10	0	9.3960	0	32.3170	0	24.956	0	23.893	0	-1e10	8	-1e10	8	-1E+10	1	-1E+10	1	-1E+10	1	-1E+10	1	-1E+10	1	-1E+10	1
4902554	49	C	06/13/2022	02:01	-134.824	49.476	0	25.10	0	9.3900	0	32.3180	0	24.958	0	24.884	0	-1e10	8	-1e10	8	-1E+10	1	-1E+10	1	-1E+10	1	-1E+10	1	-1E+10	1	-1E+10	1
4902554	49	C	06/13/2022	02:01	-134.824	49.476	0	26.10	0	9.3820	0	32.3180	0	24.959	0	25.876	0	-1e10	8	-1e10	8	-1E+10	1	-1E+10	1	-1E+10	1	-1E+10	1	-1E+10	1	-1E+10	1
4902554	49	C	06/13/2022	02:01	-134.824	49.476	0	27.10	0	9.3720	0	32.3180	0	24.961	0	26.867	0	-1e10	8	-1e10	8	-1E+10	1	-1E+10	1	-1E+10	1	-1E+10	1	-1E+10	1	-1E+10	1
4902554	49	C	06/13/2022	02:01	-134.824	49.476	0	28.10	0	9.3700	0	32.3180	0	24.961	0	27.859	0	-1e10	8	-1e10	8	-1E+10	1	-1E+10	1	-1E+10	1	-1E+10	1	-1E+10	1	-1E+10	1
4902554	49	C	06/13/2022	02:01	-134.824	49.476	0	28.90	0	9.3680	0	32.3190	0	24.962	0	28.652	0	-1e10	8	-1e10	8	-1E+10	1	-1E+10	1	-1E+10	1	-1E+10	1	-1E+10	1	-1E+10	1
4902554	49	C	06/13/2022	02:01	-134.824	49.476	0	29.70	0	9.3650	0	32.3180	0	24.962	0	29.445	0	-1e10	8	-1e10	8	-1E+10	1	-1E+10	1	-1E+10	1	-1E+10	1	-1E+10	1	-1E+10	1
4902554	49	C	06/13/2022	02:01	-134.824	49.476	0	30.70	0	9.3610	0	32.3190	0	24.964	0	30.436	0	-1e10	8	-1e10	8	-1E+10	1	-1E+10	1	-1E+10	1	-1E+10	1	-1E+10	1	-1E+10	1
4902554	49	C	06/13/2022	02:01	-134.824	49.476	0	31.70	0	9.3550	0	32.3190	0	24.965	0	31.427	0	-1e10	8	-1e10	8	-1E+10	1	-1E+10	1	-1E+10	1	-1E+10	1	-1E+10	1	-1E+10	1
4902554	49	C	06/13/2022	02:01	-134.824	49.476	0	32.80	0	9.3510	0	32.3180	0	24.964	0	32.518	0	-1e10	8	-1e10	8	-1E+10	1	-1E+10	1	-1E+10	1	-1E+10	1	-1E+10	1	-1E+10	1
4902554	49	C	06/13/2022	02:01	-134.824	49.476	0	33.80	0	9.3330	0	32.3200	0	24.969	0	33.509	0	-1e10	8	-1e10	8	-1E+10	1	-1E+10	1	-1E+10	1	-1E+10	1	-1E+10	1	-1E+10	1
4902554	49	C	06/13/2022	02:01	-134.824	49.476	0	34.90	0	9.3020	0	32.3210	0	24.975	0	34.600	0	-1e10	8	-1e10	8	-1E+10	1	-1E+10	1	-1E+10	1	-1E+10	1	-1E+10	1	-1E+10	1
4902554	49	C	06/13/2022	02:01	-134.824	49.476	0	36.00	0	9.2490	0	32.3260	0	24.987	0	35.690	0	-1e10	8	-1e10	8	-1E+10	1	-1E+10	1	-1E+10	1	-1E+10	1	-1E+10	1	-1E+10	1
4902554	49	C	06/13/2022	02:01	-134.824	49.476	0	37.10	0	9.2190	0	32.3280	0	24.993	0	36.780	0	-1e10	8	-1e10	8	-1E+10	1	-1E+10	1	-1E+10	1	-1E+10	1	-1E+10	1	-1E+10	1
4902554	49	C	06/13/2022	02:01	-134.824	49.476	0	37.90	0	9.1960	0	32.3320	0	25.000	0	37.573	0	-1e10	8	-1e10	8	-1E+10	1	-1E+10	1	-1E+10	1	-1E+10	1	-1E+10	1	-1E+10	1
4902554	49	C	06/13/2022	02:01	-134.824	49.476	0	38.70	0	9.1770	0	32.3300	0	25.001	0	38.366	0	-1e10	8	-1e10	8	-1E+10	1	-1E+10	1	-1E+10	1	-1E+10	1	-1E+10	1	-1E+10	1
4902554	49	C	06/13/2022	02:01	-134.824	49.476	0	39.80	0	9.1610	0	32.3300	0	25.004	0	39.457	0	-1e10	8	-1e10	8	-1E+10	1	-1E+10	1	-1E+10	1	-1E+10	1	-1E+10	1	-1E+10	1
4902554	49	C	06/13/2022	02:01	-134.824	49.476	0	40.80	0	9.1440	0	32.3300	0	25.007	0	40.448	0	-1e10	8	-1e10	8	-1E+10	1	-1E+10	1	-1E+10	1	-1E+10	1	-1E+10	1	-1E+10	1
4902554	49	C	06/13/2022	02:01	-134.824	49.476	0	41.90	0	9.1330	0	32.3280	0	25.007	0	41.539	0	-1e10	8	-1e10	8	-1E+10	1	-1E+10	1	-1E+10	1	-1E+10	1	-1E+10	1	-1E+10	1
4902554	49	C	06/13/2022	02:01	-134.824	49.476	0	42.90	0	9.0990	0	32.3300	0	25.014	0	42.530	0	-1e10	8	-1e10	8	-1E+10	1	-1E+10	1	-1E+10	1	-1E+10	1	-1E+10	1	-1E+10	1
4902554	49	C	06/13/2022	02:01	-134.824	49.476	0	43.80	0	9.0710	0	32.3280	0	25.016	0	43.422	0	-1e10	8	-1e10	8	-1E+10	1	-1E+10	1	-1E+10	1	-1E+10	1	-1E+10	1	-1E+10	1
4902554	49	C	06/13/2022	02:01	-134.824	49.476	0	45.00	0	8.9630	0	32.3320	0	25.036	0	44.611	0	-1e10	8	-1e10	8	-1E+10	1	-1E+10	1	-1E+10	1	-1E+10	1	-1E+10	1	-1E+10	1
4902554	49	C	06/13/2022	02:01	-134.824	49.476	0	45.70	0	8.8520	0	32.3350	0	25.056	0	45.305	0	-1e10	8	-1e10	8	-1E+10	1	-1E+10	1	-1E+10	1	-1E+10	1	-1E+10	1	-1E+10	1
4902554	49	C	06/13/2022	02:01	-134.824	49.476	0	47.10	0	8.6420	0	32.3390	0	25.091	0	46.693	0	-1e10	8	-1e10	8	-1E+10	1	-1E+10	1	-1E+10	1	-1E+10	1	-1E+10	1	-1E+10	1
4902554	49	C	06/13/2022	02:01	-134.824	49.476	0	48.10	0	8.5920	0	32.3380	0	25.098	0	47.684	0	-1e10	8	-1e10	8	-1E+10	1	-1E+10	1	-1E+10	1	-1E+10	1	-1E+10	1	-1E+10	1
4902554	49	C	06/13/2022	02:01	-134.824	49.476	0	49.10	0	8.4470	0	32.3570	0	25.134	0	48.676	0	-1e10	8	-1e10	8	-1E+10	1	-1E+10	1	-1E+10	1	-1E+10	1	-1E+10	1	-1E+10	1
4902554	49	C	06/13/2022	02:01	-134.824	49.476	0	50.00	0	8.3700	0	32.3480	0	25.139	0	49.568	0	-1e10	8	-1e10	8	-1E+10	1	-1E+10	1	-1E+10	1	-1E+10	1	-1E+10	1	-1E+10	1
4902554	49	C	06/13/2022	02:01	-134.824	49.476	0	50.90	0	8.2850	0	32.3440	0	25.148	0	50.460	0	-1e10	8	-1e10	8	-1E+10	1	-1E+10	1	-1E+10	1	-1E+10	1	-1E+10	1	-1E+10	1
4902554	49	C	06/13/2022	02:01	-134.824	49.476	0	52.00	0	7.9140	0	32.3580	0	25.213	0	51.550	0	-1e10	8	-1e10	8	-1E+10	1	-1E+10	1	-1E+10	1	-1E+10	1	-1E+10	1	-1E+10	1
4902554	49	C	06/13/2022	02:01	-134.824	49.476	0	53.10	0	7.6970	0	32.3610	0	25.246	0	52.641	0	-1e10	8	-1e10	8	-1E+10	1	-1E+10	1	-1E+10	1	-1E+10	1	-1E+10	1	-1E+10	1
4902554	49	C	06/13/2022	02:01	-134.824	49.476	0	53.90	0	7.5600	0	32.3670	0	25.270	0	53.433	0	-1e10	8	-1e10	8	-1E+10	1	-1E+10	1	-1E+10	1	-1E+10	1	-1E+10	1	-1E+10	1
4902554	49	C	06/13/2022	02:01	-134.824	49.476	0	54.80	0	7.4410	0	32.3690	0	25.288	0	54.326	0	-1e10	8	-1e10	8	-1E+10	1	-1E+10	1	-1E+10	1	-1E+10	1	-1E+10	1	-1E+10	1
4902554	49	C	06/13/2022	02:01	-134.824	49.476	0	55.80	0	7.3250	0	32.3760	0	25.309	0	55.317	0	-1e10	8	-1e10	8	-1E+10	1	-1E+10	1	-1E+10	1	-1E+10	1	-1E+10	1	-1E+10	1
4902554	49	C	06/13/2022	02:01	-134.824	49.476	0	56.90	0	7.2640	0	32.3780	0	25.319	0	56.407	0	-1e10	8	-1e10	8	-1E+10	1	-1E+10	1	-1E+10	1	-1E+10	1	-1E+10	1	-1E+10	1
4902554	49	C	06/13/2022	02:01	-134.824	49.476	0	58.10	0	7.1930	0	32.3800	0	25.330	0	57.597	0	-1e10	8	-1e10	8	-1E+10	1	-1E+10	1	-1E+10	1	-1E+10	1	-1E+10	1	-1E+10	1
4902554	49	C	06/13/2022	02:01	-134.824	49.476	0	58.90	0	7.1400	0	32.3810	0	25.338	0	58.390	0	-1e10	8	-1e10	8	-1E+10	1	-1E+10	1	-1E+10	1	-1E+10	1	-1E+10	1	-1E+10	1
4902554	49	C	06/13/2022	02:01	-134.824	49.476	0	60.00	0	7.0940	0	32.3840	0	25.347	0	59.480	0	-1e10	8	-1e10	8	-1E+10	1	-1E+10	1	-1E+10	1	-1E+10	1	-1E+10	1	-1E+10	1
4902554	49	C	06/13/2022	02:01	-134.824	49.476	0	61.00	0	7.0820	0	32.3840	0	25.349	0	60.471	0	-1e10	8	-1e10	8	-1E+10	1	-1E+10	1	-1E+10	1	-1E+10	1	-1E+10	1	-1E+10	1
4902554	49	C	06/13/2022	02:01	-134.824	49.476	0	62.10	0	7.0580	0	32.3870	0	25.354	0	61.561	0	-1e10	8	-1e10	8	-1E+10	1	-1E+10	1	-1E+10	1	-1E+10	1	-1E+10	1	-1E+10	1
4902554	49	C	06/13/2022	02:01	-134.824	49.476	0	62.90	0	7.0470	0	32.3880	0	25.356	0	62.354	0	-1e10	8	-1e10	8	-1E+10	1	-1E+10	1	-1E+10	1	-1E+10	1	-1E+10	1	-1E+10	1
4902554	49	C	06/13/2022	02:01	-134.824	49.476	0	63.90	0	7.0380	0	32.3870	0	25.357	0	63.345	0	-1e10	8	-1e10	8	-1E+10	1	-1E+10	1	-1E+10	1	-1E+10	1	-1E+10	1	-1E+10	1
4902554	49	C	06/13/2022	02:01	-134.824	49.476	0	65.00	0	7.0230	0	32.3870	0	25.359	0	64.436	0	-1e10	8	-1e10	8	-1E+10	1	-1E+10	1	-1E+10	1	-1E+10	1	-1E+10	1	-1E+10	1
4902554	49	C	06/13/2022	02:01	-134.824	49.476	0	66.10	0	7.0020	0	32.3890	0	25.363	0	65.526	0	-1e10	8	-1e10	8	-1E+10	1	-1E+10	1	-1E+10	1	-1E+10	1	-1E+10	1	-1E+10	1
4902554	49	C	06/13/2022	02:01	-134.824	49.476	0	67.20	0	6.9810	0	32.3900	0	25.367	0	66.616	0	-1e10	8	-1e10	8	-1E+10	1	-1E+10	1	-1E+10	1	-1E+10	1	-1E+10	1	-1E+10	1
4902554	49	C	06/13/2022	02:01	-134.824	49.476	0	68.10	0	6.9700	0	32.3900	0	25.368	0	67.508	0	-1e10	8	-1e10	8	-1E+10	1	-1E+10	1	-1E+10	1	-1E+10	1	-1E+10	1	-1E+10	1
4902554	49	C	06/13/2022	02:01	-134.824	49.476	0	69.00	0	6.9450	0	32.3910	0	25.372	0	68.400	0	-1e10	8	-1e10	8	-1E+10	1	-1E+10	1	-1E+10	1	-1E+10	1	-1E+10	1	-1E+10	1
4902554	49	C	06/13/2022	02:01	-134.824	49.476	0	69.70	0	6.9260	0	32.3910	0	25.375	0	69.094	0	-1e10	8	-1e10	8	-1E+10	1	-1E+10	1	-1E+10	1	-1E+10	1	-1E+10	1	-1E+10	1
4902554	49	C	06/13/2022	02:01	-134.824	49.476	0	71.10	0	6.9060	0	32.3920	0	25.378	0	70.482	0	-1e10	8	-1e10	8	-1E+10	1	-1E+10	1	-1E+10	1	-1E+10	1	-1E+10	1	-1E+10	1
4902554	49	C	06/13/2022	02:01	-134.824	49.476	0	72.00	0	6.8970	0	32.3920	0	25.380	0	71.374	0	-1e10	8	-1e10	8	-1E+10	1	-1E+10	1	-1E+10	1	-1E+10	1	-1E+10	1	-1E+10	1
4902554	49	C	06/13/2022	02:01	-134.824	49.476	0	73.00	0	6.8890	0	32.3930	0	25.381	0	72.365	0	-1e10	8	-1e10	8	-1E+10	1	-1E+10	1	-1E+10	1	-1E+10	1	-1E+10	1	-1E+10	1
4902554	49	C	06/13/2022	02:01	-134.824	49.476	0	74.00	0	6.8760	0	32.3920	0	25.382	0	73.356	0	-1e10	8	-1e10	8	-1E+10	1	-1E+10	1	-1E+10	1	-1E+10	1	-1E+10	1	-1E+10	1
4902554	49	C	06/13/2022	02:01	-134.824	49.476	0	75.20	0	6.8670	0	32.3950	0	25.386	0	74.545	0	-1e10	8	-1e10	8	-1E+10	1	-1E+10	1	-1E+10	1	-1E+10	1	-1E+10	1	-1E+10	1
4902554	49	C	06/13/2022	02:01	-134.824	49.476	0	75.90	0	6.8580	0	32.3960	0	25.388	0	75.239	0	-1e10	8	-1e10	8	-1E+10	1	-1E+10	1	-1E+10	1	-1E+10	1	-1E+10	1	-1E+10	1
4902554	49	C	06/13/2022	02:01	-134.824	49.476	0	76.90	0	6.8450	0	32.3970	0	25.390	0	76.230	0	-1e10	8	-1e10	8	-1E+10	1	-1E+10	1	-1E+10	1	-1E+10	1	-1E+10	1	-1E+10	1
4902554	49	C	06/13/2022	02:01	-134.824	49.476	0	77.90	0	6.8350	0	32.3980	0	25.392	0	77.221	0	-1e10	8	-1e10	8	-1E+10	1	-1E+10	1	-1E+10	1	-1E+10	1	-1E+10	1	-1E+10	1
4902554	49	C	06/13/2022	02:01	-134.824	49.476	0	78.90	0	6.8430	0	32.4000	0	25.393	0	78.212	0	-1e10	8	-1e10	8	-1E+10	1	-1E+10	1	-1E+10	1	-1E+10	1	-1E+10	1	-1E+10	1
4902554	49	C	06/13/2022	02:01	-134.824	49.476	0	79.90	0	6.8540	0	32.4070	0	25.397	0	79.203	0	-1e10	8	-1e10	8	-1E+10	1	-1E+10	1	-1E+10	1	-1E+10	1	-1E+10	1	-1E+10	1
4902554	49	C	06/13/2022	02:01	-134.824	49.476	0	80.90	0	6.8600	0	32.4090	0	25.398	0	80.195	0	-1e10	8	-1e10	8	-1E+10	1	-1E+10	1	-1E+10	1	-1E+10	1	-1E+10	1	-1E+10	1
4902554	49	C	06/13/2022	02:01	-134.824	49.476	0	81.90	0	6.8570	0	32.4100	0	25.399	0	81.186	0	-1e10	8	-1e10	8	-1E+10	1	-1E+10	1	-1E+10	1	-1E+10	1	-1E+10	1	-1E+10	1
4902554	49	C	06/13/2022	02:01	-134.824	49.476	0	82.80	0	6.8650	0	32.4150	0	25.402	0	82.078	0	-1e10	8	-1e10	8	-1E+10	1	-1E+10	1	-1E+10	1	-1E+10	1	-1E+10	1	-1E+10	1
4902554	49	C	06/13/2022	02:01	-134.824	49.476	0	83.80	0	6.8610	0	32.4200	0	25.406	0	83.069	0	-1e10	8	-1e10	8	-1E+10	1	-1E+10	1	-1E+10	1	-1E+10	1	-1E+10	1	-1E+10	1
4902554	49	C	06/13/2022	02:01	-134.824	49.476	0	84.70	0	6.8310	0	32.4250	0	25.414	0	83.961	0	-1e10	8	-1e10	8	-1E+10	1	-1E+10	1	-1E+10	1	-1E+10	1	-1E+10	1	-1E+10	1
4902554	49	C	06/13/2022	02:01	-134.824	49.476	0	86.10	0	6.7240	0	32.4190	0	25.424	0	85.348	0	-1e10	8	-1e10	8	-1E+10	1	-1E+10	1	-1E+10	1	-1E+10	1	-1E+10	1	-1E+10	1
4902554	49	C	06/13/2022	02:01	-134.824	49.476	0	87.30	0	6.6810	0	32.4300	0	25.438	0	86.537	0	-1e10	8	-1e10	8	-1E+10	1	-1E+10	1	-1E+10	1	-1E+10	1	-1E+10	1	-1E+10	1
4902554	49	C	06/13/2022	02:01	-134.824	49.476	0	88.20	0	6.6770	0	32.4310	0	25.439	0	87.429	0	-1e10	8	-1e10	8	-1E+10	1	-1E+10	1	-1E+10	1	-1E+10	1	-1E+10	1	-1E+10	1
4902554	49	C	06/13/2022	02:01	-134.824	49.476	0	89.10	0	6.6730	0	32.4320	0	25.440	0	88.321	0	-1e10	8	-1e10	8	-1E+10	1	-1E+10	1	-1E+10	1	-1E+10	1	-1E+10	1	-1E+10	1
4902554	49	C	06/13/2022	02:01	-134.824	49.476	0	89.90	0	6.6460	0	32.4420	0	25.452	0	89.114	0	-1e10	8	-1e10	8	-1E+10	1	-1E+10	1	-1E+10	1	-1E+10	1	-1E+10	1	-1E+10	1
4902554	49	C	06/13/2022	02:01	-134.824	49.476	0	91.00	0	6.6170	0	32.4550	0	25.466	0	90.204	0	-1e10	8	-1e10	8	-1E+10	1	-1E+10	1	-1E+10	1	-1E+10	1	-1E+10	1	-1E+10	1
4902554	49	C	06/13/2022	02:01	-134.824	49.476	0	92.10	0	6.6040	0	32.4620	0	25.473	0	91.294	0	-1e10	8	-1e10	8	-1E+10	1	-1E+10	1	-1E+10	1	-1E+10	1	-1E+10	1	-1E+10	1
4902554	49	C	06/13/2022	02:01	-134.824	49.476	0	93.00	0	6.5860	0	32.4720	0	25.483	0	92.186	0	-1e10	8	-1e10	8	-1E+10	1	-1E+10	1	-1E+10	1	-1E+10	1	-1E+10	1	-1E+10	1
4902554	49	C	06/13/2022	02:01	-134.824	49.476	0	94.10	0	6.5650	0	32.4820	0	25.494	0	93.276	0	-1e10	8	-1e10	8	-1E+10	1	-1E+10	1	-1E+10	1	-1E+10	1	-1E+10	1	-1E+10	1
4902554	49	C	06/13/2022	02:01	-134.824	49.476	0	95.00	0	6.5350	0	32.5020	0	25.513	0	94.168	0	-1e10	8	-1e10	8	-1E+10	1	-1E+10	1	-1E+10	1	-1E+10	1	-1E+10	1	-1E+10	1
4902554	49	C	06/13/2022	02:01	-134.824	49.476	0	96.00	0	6.4920	0	32.5300	0	25.541	0	95.159	0	-1e10	8	-1e10	8	-1E+10	1	-1E+10	1	-1E+10	1	-1E+10	1	-1E+10	1	-1E+10	1
4902554	49	C	06/13/2022	02:01	-134.824	49.476	0	97.00	0	6.4560	0	32.5540	0	25.565	0	96.150	0	-1e10	8	-1e10	8	-1E+10	1	-1E+10	1	-1E+10	1	-1E+10	1	-1E+10	1	-1E+10	1
4902554	49	C	06/13/2022	02:01	-134.824	49.476	0	98.00	0	6.4540	0	32.5540	0	25.565	0	97.141	0	-1e10	8	-1e10	8	-1E+10	1	-1E+10	1	-1E+10	1	-1E+10	1	-1E+10	1	-1E+10	1
4902554	49	C	06/13/2022	02:01	-134.824	49.476	0	99.10	0	6.4260	0	32.5750	0	25.585	0	98.232	0	-1e10	8	-1e10	8	-1E+10	1	-1E+10	1	-1E+10	1	-1E+10	1	-1E+10	1	-1E+10	1
4902554	49	C	06/13/2022	02:01	-134.824	49.476	0	100.10	0	6.3900	0	32.5990	0	25.608	0	99.223	0	-1e10	8	-1e10	8	-1E+10	1	-1E+10	1	-1E+10	1	-1E+10	1	-1E+10	1	-1E+10	1
4902554	49	C	06/13/2022	02:01	-134.824	49.476	0	101.10	0	6.3590	0	32.6190	0	25.628	0	100.214	0	-1e10	8	-1e10	8	-1E+10	1	-1E+10	1	-1E+10	1	-1E+10	1	-1E+10	1	-1E+10	1
4902554	49	C	06/13/2022	02:01	-134.824	49.476	0	101.90	0	6.3240	0	32.6470	0	25.655	0	101.006	0	-1e10	8	-1e10	8	-1E+10	1	-1E+10	1	-1E+10	1	-1E+10	1	-1E+10	1	-1E+10	1
4902554	49	C	06/13/2022	02:01	-134.824	49.476	0	103.00	0	6.3110	0	32.6570	0	25.664	0	102.096	0	-1e10	8	-1e10	8	-1E+10	1	-1E+10	1	-1E+10	1	-1E+10	1	-1E+10	1	-1E+10	1
4902554	49	C	06/13/2022	02:01	-134.824	49.476	0	104.10	0	6.2910	0	32.6710	0	25.678	0	103.186	0	-1e10	8	-1e10	8	-1E+10	1	-1E+10	1	-1E+10	1	-1E+10	1	-1E+10	1	-1E+10	1
4902554	49	C	06/13/2022	02:01	-134.824	49.476	0	105.00	0	6.2580	0	32.6970	0	25.702	0	104.078	0	-1e10	8	-1e10	8	-1E+10	1	-1E+10	1	-1E+10	1	-1E+10	1	-1E+10	1	-1E+10	1
4902554	49	C	06/13/2022	02:01	-134.824	49.476	0	105.90	0	6.2310	0	32.7190	0	25.723	0	104.970	0	-1e10	8	-1e10	8	-1E+10	1	-1E+10	1	-1E+10	1	-1E+10	1	-1E+10	1	-1E+10	1
4902554	49	C	06/13/2022	02:01	-134.824	49.476	0	106.80	0	6.2140	0	32.7350	0	25.738	0	105.862	0	-1e10	8	-1e10	8	-1E+10	1	-1E+10	1	-1E+10	1	-1E+10	1	-1E+10	1	-1E+10	1
4902554	49	C	06/13/2022	02:01	-134.824	49.476	0	107.80	0	6.1890	0	32.7600	0	25.761	0	106.853	0	-1e10	8	-1e10	8	-1E+10	1	-1E+10	1	-1E+10	1	-1E+10	1	-1E+10	1	-1E+10	1
4902554	49	C	06/13/2022	02:01	-134.824	49.476	0	108.90	0	6.1640	0	32.7880	0	25.786	0	107.943	0	-1e10	8	-1e10	8	-1E+10	1	-1E+10	1	-1E+10	1	-1E+10	1	-1E+10	1	-1E+10	1
4902554	49	C	06/13/2022	02:01	-134.824	49.476	0	110.10	0	6.1520	0	32.8020	0	25.799	0	109.132	0	-1e10	8	-1e10	8	-1E+10	1	-1E+10	1	-1E+10	1	-1E+10	1	-1E+10	1	-1E+10	1
4902554	49	C	06/13/2022	02:01	-134.824	49.476	0	110.70	0	6.1180	0	32.8340	0	25.828	0	109.727	0	-1e10	8	-1e10	8	-1E+10	1	-1E+10	1	-1E+10	1	-1E+10	1	-1E+10	1	-1E+10	1
4902554	49	C	06/13/2022	02:01	-134.824	49.476	0	111.80	0	6.0670	0	32.8970	0	25.884	0	110.817	0	-1e10	8	-1e10	8	-1E+10	1	-1E+10	1	-1E+10	1	-1E+10	1	-1E+10	1	-1E+10	1
4902554	49	C	06/13/2022	02:01	-134.824	49.476	0	112.80	0	6.0430	0	32.9280	0	25.912	0	111.808	0	-1e10	8	-1e10	8	-1E+10	1	-1E+10	1	-1E+10	1	-1E+10	1	-1E+10	1	-1E+10	1
4902554	49	C	06/13/2022	02:01	-134.824	49.476	0	113.80	0	6.0360	0	32.9340	0	25.917	0	112.799	0	-1e10	8	-1e10	8	-1E+10	1	-1E+10	1	-1E+10	1	-1E+10	1	-1E+10	1	-1E+10	1
4902554	49	C	06/13/2022	02:01	-134.824	49.476	0	114.90	0	6.0210	0	32.9530	0	25.934	0	113.889	0	-1e10	8	-1e10	8	-1E+10	1	-1E+10	1	-1E+10	1	-1E+10	1	-1E+10	1	-1E+10	1
4902554	49	C	06/13/2022	02:01	-134.824	49.476	0	116.10	0	5.9980	0	32.9790	0	25.957	0	115.078	0	-1e10	8	-1e10	8	-1E+10	1	-1E+10	1	-1E+10	1	-1E+10	1	-1E+10	1	-1E+10	1
4902554	49	C	06/13/2022	02:01	-134.824	49.476	0	116.90	0	5.9710	0	33.0180	0	25.992	0	115.871	0	-1e10	8	-1e10	8	-1E+10	1	-1E+10	1	-1E+10	1	-1E+10	1	-1E+10	1	-1E+10	1
4902554	49	C	06/13/2022	02:01	-134.824	49.476	0	117.90	0	5.9520	0	33.0430	0	26.014	0	116.861	0	-1e10	8	-1e10	8	-1E+10	1	-1E+10	1	-1E+10	1	-1E+10	1	-1E+10	1	-1E+10	1
4902554	49	C	06/13/2022	02:01	-134.824	49.476	0	118.90	0	5.9170	0	33.0970	0	26.061	0	117.852	0	-1e10	8	-1e10	8	-1E+10	1	-1E+10	1	-1E+10	1	-1E+10	1	-1E+10	1	-1E+10	1
4902554	49	C	06/13/2022	02:01	-134.824	49.476	0	119.90	0	5.8890	0	33.1380	0	26.096	0	118.843	0	-1e10	8	-1e10	8	-1E+10	1	-1E+10	1	-1E+10	1	-1E+10	1	-1E+10	1	-1E+10	1
4902554	49	C	06/13/2022	02:01	-134.824	49.476	0	121.00	0	5.8710	0	33.1790	0	26.131	0	119.933	0	-1e10	8	-1e10	8	-1E+10	1	-1E+10	1	-1E+10	1	-1E+10	1	-1E+10	1	-1E+10	1
4902554	49	C	06/13/2022	02:01	-134.824	49.476	0	121.70	0	5.8720	0	33.1830	0	26.134	0	120.627	0	-1e10	8	-1e10	8	-1E+10	1	-1E+10	1	-1E+10	1	-1E+10	1	-1E+10	1	-1E+10	1
4902554	49	C	06/13/2022	02:01	-134.824	49.476	0	122.80	0	5.8690	0	33.1900	0	26.140	0	121.717	0	-1e10	8	-1e10	8	-1E+10	1	-1E+10	1	-1E+10	1	-1E+10	1	-1E+10	1	-1E+10	1
4902554	49	C	06/13/2022	02:01	-134.824	49.476	0	124.00	0	5.8670	0	33.1970	0	26.146	0	122.906	0	-1e10	8	-1e10	8	-1E+10	1	-1E+10	1	-1E+10	1	-1E+10	1	-1E+10	1	-1E+10	1
4902554	49	C	06/13/2022	02:01	-134.824	49.476	0	124.70	0	5.8510	0	33.2460	0	26.186	0	123.600	0	-1e10	8	-1e10	8	-1E+10	1	-1E+10	1	-1E+10	1	-1E+10	1	-1E+10	1	-1E+10	1
4902554	49	C	06/13/2022	02:01	-134.824	49.476	0	125.90	0	5.8450	0	33.2580	0	26.197	0	124.789	0	-1e10	8	-1e10	8	-1E+10	1	-1E+10	1	-1E+10	1	-1E+10	1	-1E+10	1	-1E+10	1
4902554	49	C	06/13/2022	02:01	-134.824	49.476	0	127.00	0	5.8410	0	33.2650	0	26.203	0	125.879	0	-1e10	8	-1e10	8	-1E+10	1	-1E+10	1	-1E+10	1	-1E+10	1	-1E+10	1	-1E+10	1
4902554	49	C	06/13/2022	02:01	-134.824	49.476	0	127.80	0	5.8360	0	33.2970	0	26.229	0	126.671	0	-1e10	8	-1e10	8	-1E+10	1	-1E+10	1	-1E+10	1	-1E+10	1	-1E+10	1	-1E+10	1
4902554	49	C	06/13/2022	02:01	-134.824	49.476	0	129.00	0	5.8360	0	33.2990	0	26.230	0	127.860	0	-1e10	8	-1e10	8	-1E+10	1	-1E+10	1	-1E+10	1	-1E+10	1	-1E+10	1	-1E+10	1
4902554	49	C	06/13/2022	02:01	-134.824	49.476	0	130.20	0	5.8350	0	33.3050	0	26.235	0	129.049	0	-1e10	8	-1e10	8	-1E+10	1	-1E+10	1	-1E+10	1	-1E+10	1	-1E+10	1	-1E+10	1
4902554	49	C	06/13/2022	02:01	-134.824	49.476	0	130.90	0	5.8340	0	33.3070	0	26.237	0	129.743	0	-1e10	8	-1e10	8	-1E+10	1	-1E+10	1	-1E+10	1	-1E+10	1	-1E+10	1	-1E+10	1
4902554	49	C	06/13/2022	02:01	-134.824	49.476	0	131.80	0	5.8340	0	33.3080	0	26.238	0	130.635	0	-1e10	8	-1e10	8	-1E+10	1	-1E+10	1	-1E+10	1	-1E+10	1	-1E+10	1	-1E+10	1
4902554	49	C	06/13/2022	02:01	-134.824	49.476	0	132.90	0	5.8310	0	33.3100	0	26.240	0	131.725	0	-1e10	8	-1e10	8	-1E+10	1	-1E+10	1	-1E+10	1	-1E+10	1	-1E+10	1	-1E+10	1
4902554	49	C	06/13/2022	02:01	-134.824	49.476	0	134.10	0	5.8290	0	33.3120	0	26.241	0	132.914	0	-1e10	8	-1e10	8	-1E+10	1	-1E+10	1	-1E+10	1	-1E+10	1	-1E+10	1	-1E+10	1
4902554	49	C	06/13/2022	02:01	-134.824	49.476	0	134.90	0	5.8260	0	33.3140	0	26.243	0	133.706	0	-1e10	8	-1e10	8	-1E+10	1	-1E+10	1	-1E+10	1	-1E+10	1	-1E+10	1	-1E+10	1
4902554	49	C	06/13/2022	02:01	-134.824	49.476	0	135.70	0	5.8220	0	33.3180	0	26.247	0	134.499	0	-1e10	8	-1e10	8	-1E+10	1	-1E+10	1	-1E+10	1	-1E+10	1	-1E+10	1	-1E+10	1
4902554	49	C	06/13/2022	02:01	-134.824	49.476	0	136.90	0	5.8080	0	33.3460	0	26.271	0	135.688	0	-1e10	8	-1e10	8	-1E+10	1	-1E+10	1	-1E+10	1	-1E+10	1	-1E+10	1	-1E+10	1
4902554	49	C	06/13/2022	02:01	-134.824	49.476	0	138.20	0	5.7910	0	33.3930	0	26.310	0	136.976	0	-1e10	8	-1e10	8	-1E+10	1	-1E+10	1	-1E+10	1	-1E+10	1	-1E+10	1	-1E+10	1
4902554	49	C	06/13/2022	02:01	-134.824	49.476	0	139.00	0	5.7870	0	33.4240	0	26.335	0	137.769	0	-1e10	8	-1e10	8	-1E+10	1	-1E+10	1	-1E+10	1	-1E+10	1	-1E+10	1	-1E+10	1
4902554	49	C	06/13/2022	02:01	-134.824	49.476	0	140.00	0	5.7870	0	33.4850	0	26.383	0	138.759	0	-1e10	8	-1e10	8	-1E+10	1	-1E+10	1	-1E+10	1	-1E+10	1	-1E+10	1	-1E+10	1
4902554	49	C	06/13/2022	02:01	-134.824	49.476	0	140.90	0	5.7820	0	33.4950	0	26.392	0	139.651	0	-1e10	8	-1e10	8	-1E+10	1	-1E+10	1	-1E+10	1	-1E+10	1	-1E+10	1	-1E+10	1
4902554	49	C	06/13/2022	02:01	-134.824	49.476	0	141.80	0	5.7790	0	33.5090	0	26.403	0	140.543	0	-1e10	8	-1e10	8	-1E+10	1	-1E+10	1	-1E+10	1	-1E+10	1	-1E+10	1	-1E+10	1
4902554	49	C	06/13/2022	02:01	-134.824	49.476	0	142.70	0	5.7760	0	33.5220	0	26.414	0	141.435	0	-1e10	8	-1e10	8	-1E+10	1	-1E+10	1	-1E+10	1	-1E+10	1	-1E+10	1	-1E+10	1
4902554	49	C	06/13/2022	02:01	-134.824	49.476	0	143.70	0	5.7730	0	33.5380	0	26.427	0	142.425	0	-1e10	8	-1e10	8	-1E+10	1	-1E+10	1	-1E+10	1	-1E+10	1	-1E+10	1	-1E+10	1
4902554	49	C	06/13/2022	02:01	-134.824	49.476	0	144.60	0	5.7700	0	33.5490	0	26.436	0	143.317	0	-1e10	8	-1e10	8	-1E+10	1	-1E+10	1	-1E+10	1	-1E+10	1	-1E+10	1	-1E+10	1
4902554	49	C	06/13/2022	02:01	-134.824	49.476	0	145.90	0	5.7680	0	33.5620	0	26.447	0	144.605	0	-1e10	8	-1e10	8	-1E+10	1	-1E+10	1	-1E+10	1	-1E+10	1	-1E+10	1	-1E+10	1
4902554	49	C	06/13/2022	02:01	-134.824	49.476	0	147.30	0	5.7590	0	33.5870	0	26.467	0	145.992	0	-1e10	8	-1e10	8	-1E+10	1	-1E+10	1	-1E+10	1	-1E+10	1	-1E+10	1	-1E+10	1
4902554	49	C	06/13/2022	02:01	-134.824	49.476	0	148.30	0	5.7450	0	33.5950	0	26.476	0	146.983	0	-1e10	8	-1e10	8	-1E+10	1	-1E+10	1	-1E+10	1	-1E+10	1	-1E+10	1	-1E+10	1
4902554	49	C	06/13/2022	02:01	-134.824	49.476	0	149.20	0	5.7320	0	33.6010	0	26.482	0	147.875	0	-1e10	8	-1e10	8	-1E+10	1	-1E+10	1	-1E+10	1	-1E+10	1	-1E+10	1	-1E+10	1
4902554	49	C	06/13/2022	02:01	-134.824	49.476	0	150.10	0	5.7280	0	33.5990	0	26.481	0	148.766	0	-1e10	8	-1e10	8	-1E+10	1	-1E+10	1	-1E+10	1	-1E+10	1	-1E+10	1	-1E+10	1
4902554	49	C	06/13/2022	02:01	-134.824	49.476	0	151.10	0	5.7100	0	33.6030	0	26.486	0	149.757	0	-1e10	8	-1e10	8	-1E+10	1	-1E+10	1	-1E+10	1	-1E+10	1	-1E+10	1	-1E+10	1
4902554	49	C	06/13/2022	02:01	-134.824	49.476	0	152.00	0	5.6820	0	33.6180	0	26.501	0	150.649	0	-1e10	8	-1e10	8	-1E+10	1	-1E+10	1	-1E+10	1	-1E+10	1	-1E+10	1	-1E+10	1
4902554	49	C	06/13/2022	02:01	-134.824	49.476	0	153.00	0	5.6770	0	33.6250	0	26.508	0	151.639	0	-1e10	8	-1e10	8	-1E+10	1	-1E+10	1	-1E+10	1	-1E+10	1	-1E+10	1	-1E+10	1
4902554	49	C	06/13/2022	02:01	-134.824	49.476	0	153.90	0	5.6750	0	33.6260	0	26.509	0	152.531	0	-1e10	8	-1e10	8	-1E+10	1	-1E+10	1	-1E+10	1	-1E+10	1	-1E+10	1	-1E+10	1
4902554	49	C	06/13/2022	02:01	-134.824	49.476	0	154.90	0	5.6730	0	33.6270	0	26.510	0	153.522	0	-1e10	8	-1e10	8	-1E+10	1	-1E+10	1	-1E+10	1	-1E+10	1	-1E+10	1	-1E+10	1
4902554	49	C	06/13/2022	02:01	-134.824	49.476	0	155.80	0	5.6670	0	33.6320	0	26.514	0	154.413	0	-1e10	8	-1e10	8	-1E+10	1	-1E+10	1	-1E+10	1	-1E+10	1	-1E+10	1	-1E+10	1
4902554	49	C	06/13/2022	02:01	-134.824	49.476	0	156.80	0	5.6630	0	33.6380	0	26.520	0	155.404	0	-1e10	8	-1e10	8	-1E+10	1	-1E+10	1	-1E+10	1	-1E+10	1	-1E+10	1	-1E+10	1
4902554	49	C	06/13/2022	02:01	-134.824	49.476	0	157.70	0	5.6590	0	33.6440	0	26.525	0	156.296	0	-1e10	8	-1e10	8	-1E+10	1	-1E+10	1	-1E+10	1	-1E+10	1	-1E+10	1	-1E+10	1
4902554	49	C	06/13/2022	02:01	-134.824	49.476	0	158.70	0	5.6570	0	33.6480	0	26.528	0	157.287	0	-1e10	8	-1e10	8	-1E+10	1	-1E+10	1	-1E+10	1	-1E+10	1	-1E+10	1	-1E+10	1
4902554	49	C	06/13/2022	02:01	-134.824	49.476	0	159.60	0	5.6530	0	33.6560	0	26.535	0	158.178	0	-1e10	8	-1e10	8	-1E+10	1	-1E+10	1	-1E+10	1	-1E+10	1	-1E+10	1	-1E+10	1
4902554	49	C	06/13/2022	02:01	-134.824	49.476	0	160.60	0	5.6440	0	33.6600	0	26.539	0	159.169	0	-1e10	8	-1e10	8	-1E+10	1	-1E+10	1	-1E+10	1	-1E+10	1	-1E+10	1	-1E+10	1
4902554	49	C	06/13/2022	02:01	-134.824	49.476	0	161.90	0	5.6250	0	33.6680	0	26.548	0	160.457	0	-1e10	8	-1e10	8	-1E+10	1	-1E+10	1	-1E+10	1	-1E+10	1	-1E+10	1	-1E+10	1
4902554	49	C	06/13/2022	02:01	-134.824	49.476	0	163.30	0	5.6170	0	33.6710	0	26.551	0	161.844	0	-1e10	8	-1e10	8	-1E+10	1	-1E+10	1	-1E+10	1	-1E+10	1	-1E+10	1	-1E+10	1
4902554	49	C	06/13/2022	02:01	-134.824	49.476	0	164.30	0	5.5990	0	33.6840	0	26.564	0	162.834	0	-1e10	8	-1e10	8	-1E+10	1	-1E+10	1	-1E+10	1	-1E+10	1	-1E+10	1	-1E+10	1
4902554	49	C	06/13/2022	02:01	-134.824	49.476	0	165.20	0	5.5830	0	33.6880	0	26.569	0	163.726	0	-1e10	8	-1e10	8	-1E+10	1	-1E+10	1	-1E+10	1	-1E+10	1	-1E+10	1	-1E+10	1
4902554	49	C	06/13/2022	02:01	-134.824	49.476	0	166.20	0	5.5700	0	33.6950	0	26.576	0	164.717	0	-1e10	8	-1e10	8	-1E+10	1	-1E+10	1	-1E+10	1	-1E+10	1	-1E+10	1	-1E+10	1
4902554	49	C	06/13/2022	02:01	-134.824	49.476	0	167.10	0	5.5350	0	33.7010	0	26.585	0	165.608	0	-1e10	8	-1e10	8	-1E+10	1	-1E+10	1	-1E+10	1	-1E+10	1	-1E+10	1	-1E+10	1
4902554	49	C	06/13/2022	02:01	-134.824	49.476	0	168.00	0	5.5210	0	33.7010	0	26.587	0	166.500	0	-1e10	8	-1e10	8	-1E+10	1	-1E+10	1	-1E+10	1	-1E+10	1	-1E+10	1	-1E+10	1
4902554	49	C	06/13/2022	02:01	-134.824	49.476	0	169.00	0	5.5000	0	33.7050	0	26.592	0	167.491	0	-1e10	8	-1e10	8	-1E+10	1	-1E+10	1	-1E+10	1	-1E+10	1	-1E+10	1	-1E+10	1
4902554	49	C	06/13/2022	02:01	-134.824	49.476	0	169.90	0	5.4970	0	33.7040	0	26.592	0	168.382	0	-1e10	8	-1e10	8	-1E+10	1	-1E+10	1	-1E+10	1	-1E+10	1	-1E+10	1	-1E+10	1
4902554	49	C	06/13/2022	02:01	-134.824	49.476	0	170.80	0	5.4920	0	33.7040	0	26.592	0	169.274	0	-1e10	8	-1e10	8	-1E+10	1	-1E+10	1	-1E+10	1	-1E+10	1	-1E+10	1	-1E+10	1
4902554	49	C	06/13/2022	02:01	-134.824	49.476	0	171.80	0	5.4800	0	33.7090	0	26.598	0	170.264	0	-1e10	8	-1e10	8	-1E+10	1	-1E+10	1	-1E+10	1	-1E+10	1	-1E+10	1	-1E+10	1
4902554	49	C	06/13/2022	02:01	-134.824	49.476	0	172.70	0	5.4520	0	33.7170	0	26.607	0	171.156	0	-1e10	8	-1e10	8	-1E+10	1	-1E+10	1	-1E+10	1	-1E+10	1	-1E+10	1	-1E+10	1
4902554	49	C	06/13/2022	02:01	-134.824	49.476	0	173.60	0	5.4170	0	33.7180	0	26.612	0	172.048	0	-1e10	8	-1e10	8	-1E+10	1	-1E+10	1	-1E+10	1	-1E+10	1	-1E+10	1	-1E+10	1
4902554	49	C	06/13/2022	02:01	-134.824	49.476	0	174.60	0	5.3770	0	33.7240	0	26.622	0	173.038	0	-1e10	8	-1e10	8	-1E+10	1	-1E+10	1	-1E+10	1	-1E+10	1	-1E+10	1	-1E+10	1
4902554	49	C	06/13/2022	02:01	-134.824	49.476	0	175.60	0	5.3630	0	33.7240	0	26.623	0	174.029	0	-1e10	8	-1e10	8	-1E+10	1	-1E+10	1	-1E+10	1	-1E+10	1	-1E+10	1	-1E+10	1
4902554	49	C	06/13/2022	02:01	-134.824	49.476	0	176.50	0	5.3590	0	33.7230	0	26.623	0	174.920	0	-1e10	8	-1e10	8	-1E+10	1	-1E+10	1	-1E+10	1	-1E+10	1	-1E+10	1	-1E+10	1
4902554	49	C	06/13/2022	02:01	-134.824	49.476	0	177.50	0	5.3530	0	33.7230	0	26.624	0	175.911	0	-1e10	8	-1e10	8	-1E+10	1	-1E+10	1	-1E+10	1	-1E+10	1	-1E+10	1	-1E+10	1
4902554	49	C	06/13/2022	02:01	-134.824	49.476	0	178.90	0	5.3410	0	33.7240	0	26.626	0	177.298	0	-1e10	8	-1e10	8	-1E+10	1	-1E+10	1	-1E+10	1	-1E+10	1	-1E+10	1	-1E+10	1
4902554	49	C	06/13/2022	02:01	-134.824	49.476	0	180.40	0	5.2970	0	33.7300	0	26.636	0	178.784	0	-1e10	8	-1e10	8	-1E+10	1	-1E+10	1	-1E+10	1	-1E+10	1	-1E+10	1	-1E+10	1
4902554	49	C	06/13/2022	02:01	-134.824	49.476	0	181.40	0	5.2650	0	33.7310	0	26.641	0	179.774	0	-1e10	8	-1e10	8	-1E+10	1	-1E+10	1	-1E+10	1	-1E+10	1	-1E+10	1	-1E+10	1
4902554	49	C	06/13/2022	02:01	-134.824	49.476	0	182.40	0	5.2550	0	33.7320	0	26.642	0	180.765	0	-1e10	8	-1e10	8	-1E+10	1	-1E+10	1	-1E+10	1	-1E+10	1	-1E+10	1	-1E+10	1
4902554	49	C	06/13/2022	02:01	-134.824	49.476	0	183.40	0	5.2520	0	33.7320	0	26.643	0	181.756	0	-1e10	8	-1e10	8	-1E+10	1	-1E+10	1	-1E+10	1	-1E+10	1	-1E+10	1	-1E+10	1
4902554	49	C	06/13/2022	02:01	-134.824	49.476	0	184.40	0	5.2520	0	33.7320	0	26.643	0	182.746	0	-1e10	8	-1e10	8	-1E+10	1	-1E+10	1	-1E+10	1	-1E+10	1	-1E+10	1	-1E+10	1
4902554	49	C	06/13/2022	02:01	-134.824	49.476	0	185.40	0	5.2490	0	33.7330	0	26.644	0	183.737	0	-1e10	8	-1e10	8	-1E+10	1	-1E+10	1	-1E+10	1	-1E+10	1	-1E+10	1	-1E+10	1
4902554	49	C	06/13/2022	02:01	-134.824	49.476	0	186.40	0	5.2460	0	33.7330	0	26.644	0	184.727	0	-1e10	8	-1e10	8	-1E+10	1	-1E+10	1	-1E+10	1	-1E+10	1	-1E+10	1	-1E+10	1
4902554	49	C	06/13/2022	02:01	-134.824	49.476	0	187.40	0	5.2430	0	33.7330	0	26.645	0	185.718	0	-1e10	8	-1e10	8	-1E+10	1	-1E+10	1	-1E+10	1	-1E+10	1	-1E+10	1	-1E+10	1
4902554	49	C	06/13/2022	02:01	-134.824	49.476	0	188.40	0	5.2340	0	33.7330	0	26.646	0	186.709	0	-1e10	8	-1e10	8	-1E+10	1	-1E+10	1	-1E+10	1	-1E+10	1	-1E+10	1	-1E+10	1
4902554	49	C	06/13/2022	02:01	-134.824	49.476	0	189.40	0	5.2280	0	33.7350	0	26.648	0	187.699	0	-1e10	8	-1e10	8	-1E+10	1	-1E+10	1	-1E+10	1	-1E+10	1	-1E+10	1	-1E+10	1
4902554	49	C	06/13/2022	02:01	-134.824	49.476	0	190.30	0	5.2300	0	33.7330	0	26.646	0	188.591	0	-1e10	8	-1e10	8	-1E+10	1	-1E+10	1	-1E+10	1	-1E+10	1	-1E+10	1	-1E+10	1
4902554	49	C	06/13/2022	02:01	-134.824	49.476	0	191.30	0	5.2190	0	33.7340	0	26.648	0	189.581	0	-1e10	8	-1e10	8	-1E+10	1	-1E+10	1	-1E+10	1	-1E+10	1	-1E+10	1	-1E+10	1
4902554	49	C	06/13/2022	02:01	-134.824	49.476	0	192.30	0	5.2080	0	33.7360	0	26.651	0	190.572	0	-1e10	8	-1e10	8	-1E+10	1	-1E+10	1	-1E+10	1	-1E+10	1	-1E+10	1	-1E+10	1
4902554	49	C	06/13/2022	02:01	-134.824	49.476	0	193.30	0	5.1780	0	33.7390	0	26.657	0	191.562	0	-1e10	8	-1e10	8	-1E+10	1	-1E+10	1	-1E+10	1	-1E+10	1	-1E+10	1	-1E+10	1
4902554	49	C	06/13/2022	02:01	-134.824	49.476	0	194.30	0	5.1640	0	33.7400	0	26.659	0	192.553	0	-1e10	8	-1e10	8	-1E+10	1	-1E+10	1	-1E+10	1	-1E+10	1	-1E+10	1	-1E+10	1
4902554	49	C	06/13/2022	02:01	-134.824	49.476	0	195.40	0	5.1580	0	33.7410	0	26.661	0	193.642	0	-1e10	8	-1e10	8	-1E+10	1	-1E+10	1	-1E+10	1	-1E+10	1	-1E+10	1	-1E+10	1
4902554	49	C	06/13/2022	02:01	-134.824	49.476	0	196.40	0	5.1480	0	33.7420	0	26.663	0	194.633	0	-1e10	8	-1e10	8	-1E+10	1	-1E+10	1	-1E+10	1	-1E+10	1	-1E+10	1	-1E+10	1
4902554	49	C	06/13/2022	02:01	-134.824	49.476	0	197.40	0	5.1330	0	33.7430	0	26.665	0	195.624	0	-1e10	8	-1e10	8	-1E+10	1	-1E+10	1	-1E+10	1	-1E+10	1	-1E+10	1	-1E+10	1
4902554	49	C	06/13/2022	02:01	-134.824	49.476	0	198.40	0	5.1220	0	33.7450	0	26.668	0	196.614	0	-1e10	8	-1e10	8	-1E+10	1	-1E+10	1	-1E+10	1	-1E+10	1	-1E+10	1	-1E+10	1
4902554	49	C	06/13/2022	02:01	-134.824	49.476	0	199.40	0	5.1140	0	33.7460	0	26.670	0	197.605	0	-1e10	8	-1e10	8	-1E+10	1	-1E+10	1	-1E+10	1	-1E+10	1	-1E+10	1	-1E+10	1
4902554	49	C	06/13/2022	02:01	-134.824	49.476	0	200.50	0	5.1100	0	33.7480	0	26.672	0	198.694	0	-1e10	8	-1e10	8	-1E+10	1	-1E+10	1	-1E+10	1	-1E+10	1	-1E+10	1	-1E+10	1
4902554	49	C	06/13/2022	02:01	-134.824	49.476	0	201.50	0	5.1070	0	33.7480	0	26.672	0	199.685	0	-1e10	8	-1e10	8	-1E+10	1	-1E+10	1	-1E+10	1	-1E+10	1	-1E+10	1	-1E+10	1
4902554	49	C	06/13/2022	02:01	-134.824	49.476	0	202.50	0	5.1030	0	33.7490	0	26.674	0	200.675	0	-1e10	8	-1e10	8	-1E+10	1	-1E+10	1	-1E+10	1	-1E+10	1	-1E+10	1	-1E+10	1
4902554	49	C	06/13/2022	02:01	-134.824	49.476	0	203.60	0	5.1020	0	33.7490	0	26.674	0	201.765	0	-1e10	8	-1e10	8	-1E+10	1	-1E+10	1	-1E+10	1	-1E+10	1	-1E+10	1	-1E+10	1
4902554	49	C	06/13/2022	02:01	-134.824	49.476	0	204.60	0	5.0980	0	33.7490	0	26.674	0	202.755	0	-1e10	8	-1e10	8	-1E+10	1	-1E+10	1	-1E+10	1	-1E+10	1	-1E+10	1	-1E+10	1
4902554	49	C	06/13/2022	02:01	-134.824	49.476	0	205.70	0	5.0890	0	33.7510	0	26.677	0	203.845	0	-1e10	8	-1e10	8	-1E+10	1	-1E+10	1	-1E+10	1	-1E+10	1	-1E+10	1	-1E+10	1
4902554	49	C	06/13/2022	02:01	-134.824	49.476	0	206.70	0	5.0840	0	33.7520	0	26.678	0	204.835	0	-1e10	8	-1e10	8	-1E+10	1	-1E+10	1	-1E+10	1	-1E+10	1	-1E+10	1	-1E+10	1
4902554	49	C	06/13/2022	02:01	-134.824	49.476	0	207.70	0	5.0800	0	33.7530	0	26.679	0	205.826	0	-1e10	8	-1e10	8	-1E+10	1	-1E+10	1	-1E+10	1	-1E+10	1	-1E+10	1	-1E+10	1
4902554	49	C	06/13/2022	02:01	-134.824	49.476	0	208.60	0	5.0730	0	33.7560	0	26.683	0	206.717	0	-1e10	8	-1e10	8	-1E+10	1	-1E+10	1	-1E+10	1	-1E+10	1	-1E+10	1	-1E+10	1
4902554	49	C	06/13/2022	02:01	-134.824	49.476	0	210.00	0	5.0870	0	33.7630	0	26.687	0	208.104	0	-1e10	8	-1e10	8	-1E+10	1	-1E+10	1	-1E+10	1	-1E+10	1	-1E+10	1	-1E+10	1
4902554	49	C	06/13/2022	02:01	-134.824	49.476	0	211.30	0	5.0740	0	33.7710	0	26.694	0	209.391	0	-1e10	8	-1e10	8	-1E+10	1	-1E+10	1	-1E+10	1	-1E+10	1	-1E+10	1	-1E+10	1
4902554	49	C	06/13/2022	02:01	-134.824	49.476	0	212.10	0	5.1010	0	33.7750	0	26.695	0	210.184	0	-1e10	8	-1e10	8	-1E+10	1	-1E+10	1	-1E+10	1	-1E+10	1	-1E+10	1	-1E+10	1
4902554	49	C	06/13/2022	02:01	-134.824	49.476	0	212.90	0	5.0950	0	33.7730	0	26.694	0	210.976	0	-1e10	8	-1e10	8	-1E+10	1	-1E+10	1	-1E+10	1	-1E+10	1	-1E+10	1	-1E+10	1
4902554	49	C	06/13/2022	02:01	-134.824	49.476	0	213.70	0	5.0950	0	33.7740	0	26.694	0	211.769	0	-1e10	8	-1e10	8	-1E+10	1	-1E+10	1	-1E+10	1	-1E+10	1	-1E+10	1	-1E+10	1
4902554	49	C	06/13/2022	02:01	-134.824	49.476	0	214.90	0	5.0890	0	33.7790	0	26.699	0	212.957	0	-1e10	8	-1e10	8	-1E+10	1	-1E+10	1	-1E+10	1	-1E+10	1	-1E+10	1	-1E+10	1
4902554	49	C	06/13/2022	02:01	-134.824	49.476	0	216.10	0	5.0750	0	33.7830	0	26.704	0	214.146	0	-1e10	8	-1e10	8	-1E+10	1	-1E+10	1	-1E+10	1	-1E+10	1	-1E+10	1	-1E+10	1
4902554	49	C	06/13/2022	02:01	-134.824	49.476	0	216.90	0	5.0720	0	33.7830	0	26.704	0	214.938	0	-1e10	8	-1e10	8	-1E+10	1	-1E+10	1	-1E+10	1	-1E+10	1	-1E+10	1	-1E+10	1
4902554	49	C	06/13/2022	02:01	-134.824	49.476	0	217.70	0	5.0630	0	33.7840	0	26.706	0	215.730	0	-1e10	8	-1e10	8	-1E+10	1	-1E+10	1	-1E+10	1	-1E+10	1	-1E+10	1	-1E+10	1
4902554	49	C	06/13/2022	02:01	-134.824	49.476	0	218.90	0	5.0290	0	33.7860	0	26.712	0	216.919	0	-1e10	8	-1e10	8	-1E+10	1	-1E+10	1	-1E+10	1	-1E+10	1	-1E+10	1	-1E+10	1
4902554	49	C	06/13/2022	02:01	-134.824	49.476	0	220.20	0	4.9970	0	33.7840	0	26.714	0	218.206	0	-1e10	8	-1e10	8	-1E+10	1	-1E+10	1	-1E+10	1	-1E+10	1	-1E+10	1	-1E+10	1
4902554	49	C	06/13/2022	02:01	-134.824	49.476	0	221.10	0	4.9890	0	33.7840	0	26.715	0	219.098	0	-1e10	8	-1e10	8	-1E+10	1	-1E+10	1	-1E+10	1	-1E+10	1	-1E+10	1	-1E+10	1
4902554	49	C	06/13/2022	02:01	-134.824	49.476	0	221.90	0	4.9770	0	33.7850	0	26.717	0	219.890	0	-1e10	8	-1e10	8	-1E+10	1	-1E+10	1	-1E+10	1	-1E+10	1	-1E+10	1	-1E+10	1
4902554	49	C	06/13/2022	02:01	-134.824	49.476	0	222.70	0	4.9660	0	33.7840	0	26.717	0	220.682	0	-1e10	8	-1e10	8	-1E+10	1	-1E+10	1	-1E+10	1	-1E+10	1	-1E+10	1	-1E+10	1
4902554	49	C	06/13/2022	02:01	-134.824	49.476	0	224.00	0	4.9390	0	33.7840	0	26.720	0	221.970	0	-1e10	8	-1e10	8	-1E+10	1	-1E+10	1	-1E+10	1	-1E+10	1	-1E+10	1	-1E+10	1
4902554	49	C	06/13/2022	02:01	-134.824	49.476	0	225.20	0	4.9280	0	33.7830	0	26.721	0	223.158	0	-1e10	8	-1e10	8	-1E+10	1	-1E+10	1	-1E+10	1	-1E+10	1	-1E+10	1	-1E+10	1
4902554	49	C	06/13/2022	02:01	-134.824	49.476	0	226.10	0	4.9190	0	33.7840	0	26.722	0	224.050	0	-1e10	8	-1e10	8	-1E+10	1	-1E+10	1	-1E+10	1	-1E+10	1	-1E+10	1	-1E+10	1
4902554	49	C	06/13/2022	02:01	-134.824	49.476	0	226.90	0	4.9150	0	33.7830	0	26.722	0	224.842	0	-1e10	8	-1e10	8	-1E+10	1	-1E+10	1	-1E+10	1	-1E+10	1	-1E+10	1	-1E+10	1
4902554	49	C	06/13/2022	02:01	-134.824	49.476	0	227.70	0	4.9120	0	33.7830	0	26.722	0	225.634	0	-1e10	8	-1e10	8	-1E+10	1	-1E+10	1	-1E+10	1	-1E+10	1	-1E+10	1	-1E+10	1
4902554	49	C	06/13/2022	02:01	-134.824	49.476	0	228.90	0	4.9050	0	33.7820	0	26.722	0	226.823	0	-1e10	8	-1e10	8	-1E+10	1	-1E+10	1	-1E+10	1	-1E+10	1	-1E+10	1	-1E+10	1
4902554	49	C	06/13/2022	02:01	-134.824	49.476	0	230.20	0	4.8980	0	33.7830	0	26.724	0	228.110	0	-1e10	8	-1e10	8	-1E+10	1	-1E+10	1	-1E+10	1	-1E+10	1	-1E+10	1	-1E+10	1
4902554	49	C	06/13/2022	02:01	-134.824	49.476	0	231.10	0	4.8940	0	33.7820	0	26.724	0	229.002	0	-1e10	8	-1e10	8	-1E+10	1	-1E+10	1	-1E+10	1	-1E+10	1	-1E+10	1	-1E+10	1
4902554	49	C	06/13/2022	02:01	-134.824	49.476	0	231.90	0	4.8850	0	33.7820	0	26.725	0	229.794	0	-1e10	8	-1e10	8	-1E+10	1	-1E+10	1	-1E+10	1	-1E+10	1	-1E+10	1	-1E+10	1
4902554	49	C	06/13/2022	02:01	-134.824	49.476	0	232.70	0	4.8730	0	33.7820	0	26.726	0	230.586	0	-1e10	8	-1e10	8	-1E+10	1	-1E+10	1	-1E+10	1	-1E+10	1	-1E+10	1	-1E+10	1
4902554	49	C	06/13/2022	02:01	-134.824	49.476	0	233.60	0	4.8610	0	33.7820	0	26.727	0	231.478	0	-1e10	8	-1e10	8	-1E+10	1	-1E+10	1	-1E+10	1	-1E+10	1	-1E+10	1	-1E+10	1
4902554	49	C	06/13/2022	02:01	-134.824	49.476	0	234.90	0	4.8170	0	33.7840	0	26.734	0	232.765	0	-1e10	8	-1e10	8	-1E+10	1	-1E+10	1	-1E+10	1	-1E+10	1	-1E+10	1	-1E+10	1
4902554	49	C	06/13/2022	02:01	-134.824	49.476	0	236.20	0	4.8090	0	33.7840	0	26.735	0	234.052	0	-1e10	8	-1e10	8	-1E+10	1	-1E+10	1	-1E+10	1	-1E+10	1	-1E+10	1	-1E+10	1
4902554	49	C	06/13/2022	02:01	-134.824	49.476	0	237.10	0	4.8080	0	33.7830	0	26.734	0	234.944	0	-1e10	8	-1e10	8	-1E+10	1	-1E+10	1	-1E+10	1	-1E+10	1	-1E+10	1	-1E+10	1
4902554	49	C	06/13/2022	02:01	-134.824	49.476	0	237.90	0	4.8010	0	33.7830	0	26.735	0	235.736	0	-1e10	8	-1e10	8	-1E+10	1	-1E+10	1	-1E+10	1	-1E+10	1	-1E+10	1	-1E+10	1
4902554	49	C	06/13/2022	02:01	-134.824	49.476	0	238.90	0	4.7890	0	33.7850	0	26.738	0	236.726	0	-1e10	8	-1e10	8	-1E+10	1	-1E+10	1	-1E+10	1	-1E+10	1	-1E+10	1	-1E+10	1
4902554	49	C	06/13/2022	02:01	-134.824	49.476	0	239.80	0	4.7840	0	33.7860	0	26.739	0	237.618	0	-1e10	8	-1e10	8	-1E+10	1	-1E+10	1	-1E+10	1	-1E+10	1	-1E+10	1	-1E+10	1
4902554	49	C	06/13/2022	02:01	-134.824	49.476	0	240.70	0	4.7810	0	33.7870	0	26.740	0	238.509	0	-1e10	8	-1e10	8	-1E+10	1	-1E+10	1	-1E+10	1	-1E+10	1	-1E+10	1	-1E+10	1
4902554	49	C	06/13/2022	02:01	-134.824	49.476	0	241.50	0	4.7730	0	33.7880	0	26.742	0	239.301	0	-1e10	8	-1e10	8	-1E+10	1	-1E+10	1	-1E+10	1	-1E+10	1	-1E+10	1	-1E+10	1
4902554	49	C	06/13/2022	02:01	-134.824	49.476	0	242.90	0	4.7540	0	33.7900	0	26.746	0	240.688	0	-1e10	8	-1e10	8	-1E+10	1	-1E+10	1	-1E+10	1	-1E+10	1	-1E+10	1	-1E+10	1
4902554	49	C	06/13/2022	02:01	-134.824	49.476	0	244.30	0	4.7330	0	33.7900	0	26.748	0	242.074	0	-1e10	8	-1e10	8	-1E+10	1	-1E+10	1	-1E+10	1	-1E+10	1	-1E+10	1	-1E+10	1
4902554	49	C	06/13/2022	02:01	-134.824	49.476	0	245.20	0	4.7150	0	33.7940	0	26.753	0	242.965	0	-1e10	8	-1e10	8	-1E+10	1	-1E+10	1	-1E+10	1	-1E+10	1	-1E+10	1	-1E+10	1
4902554	49	C	06/13/2022	02:01	-134.824	49.476	0	246.10	0	4.6930	0	33.7950	0	26.756	0	243.857	0	-1e10	8	-1e10	8	-1E+10	1	-1E+10	1	-1E+10	1	-1E+10	1	-1E+10	1	-1E+10	1
4902554	49	C	06/13/2022	02:01	-134.824	49.476	0	247.00	0	4.6820	0	33.7930	0	26.756	0	244.748	0	-1e10	8	-1e10	8	-1E+10	1	-1E+10	1	-1E+10	1	-1E+10	1	-1E+10	1	-1E+10	1
4902554	49	C	06/13/2022	02:01	-134.824	49.476	0	247.90	0	4.6820	0	33.7950	0	26.758	0	245.639	0	-1e10	8	-1e10	8	-1E+10	1	-1E+10	1	-1E+10	1	-1E+10	1	-1E+10	1	-1E+10	1
4902554	49	C	06/13/2022	02:01	-134.824	49.476	0	248.80	0	4.6800	0	33.7940	0	26.757	0	246.530	0	-1e10	8	-1e10	8	-1E+10	1	-1E+10	1	-1E+10	1	-1E+10	1	-1E+10	1	-1E+10	1
4902554	49	C	06/13/2022	02:01	-134.824	49.476	0	249.70	0	4.6660	0	33.7970	0	26.761	0	247.422	0	-1e10	8	-1e10	8	-1E+10	1	-1E+10	1	-1E+10	1	-1E+10	1	-1E+10	1	-1E+10	1
4902554	49	C	06/13/2022	02:01	-134.824	49.476	0	250.70	0	4.6660	0	33.7990	0	26.763	0	248.412	0	-1e10	8	-1e10	8	-1E+10	1	-1E+10	1	-1E+10	1	-1E+10	1	-1E+10	1	-1E+10	1
4902554	49	C	06/13/2022	02:01	-134.824	49.476	0	251.70	0	4.6650	0	33.8000	0	26.763	0	249.402	0	-1e10	8	-1e10	8	-1E+10	1	-1E+10	1	-1E+10	1	-1E+10	1	-1E+10	1	-1E+10	1
4902554	49	C	06/13/2022	02:01	-134.824	49.476	0	252.60	0	4.6570	0	33.8010	0	26.765	0	250.293	0	-1e10	8	-1e10	8	-1E+10	1	-1E+10	1	-1E+10	1	-1E+10	1	-1E+10	1	-1E+10	1
4902554	49	C	06/13/2022	02:01	-134.824	49.476	0	253.60	0	4.6520	0	33.8010	0	26.766	0	251.284	0	-1e10	8	-1e10	8	-1E+10	1	-1E+10	1	-1E+10	1	-1E+10	1	-1E+10	1	-1E+10	1
4902554	49	C	06/13/2022	02:01	-134.824	49.476	0	254.50	0	4.6500	0	33.8010	0	26.766	0	252.175	0	-1e10	8	-1e10	8	-1E+10	1	-1E+10	1	-1E+10	1	-1E+10	1	-1E+10	1	-1E+10	1
4902554	49	C	06/13/2022	02:01	-134.824	49.476	0	255.90	0	4.6350	0	33.8030	0	26.769	0	253.561	0	-1e10	8	-1e10	8	-1E+10	1	-1E+10	1	-1E+10	1	-1E+10	1	-1E+10	1	-1E+10	1
4902554	49	C	06/13/2022	02:01	-134.824	49.476	0	257.40	0	4.6270	0	33.8020	0	26.769	0	255.047	0	-1e10	8	-1e10	8	-1E+10	1	-1E+10	1	-1E+10	1	-1E+10	1	-1E+10	1	-1E+10	1
4902554	49	C	06/13/2022	02:01	-134.824	49.476	0	258.30	0	4.6190	0	33.8030	0	26.771	0	255.938	0	-1e10	8	-1e10	8	-1E+10	1	-1E+10	1	-1E+10	1	-1E+10	1	-1E+10	1	-1E+10	1
4902554	49	C	06/13/2022	02:01	-134.824	49.476	0	259.30	0	4.6050	0	33.8060	0	26.775	0	256.928	0	-1e10	8	-1e10	8	-1E+10	1	-1E+10	1	-1E+10	1	-1E+10	1	-1E+10	1	-1E+10	1
4902554	49	C	06/13/2022	02:01	-134.824	49.476	0	260.30	0	4.5990	0	33.8070	0	26.776	0	257.918	0	-1e10	8	-1e10	8	-1E+10	1	-1E+10	1	-1E+10	1	-1E+10	1	-1E+10	1	-1E+10	1
4902554	49	C	06/13/2022	02:01	-134.824	49.476	0	261.20	0	4.5890	0	33.8100	0	26.780	0	258.810	0	-1e10	8	-1e10	8	-1E+10	1	-1E+10	1	-1E+10	1	-1E+10	1	-1E+10	1	-1E+10	1
4902554	49	C	06/13/2022	02:01	-134.824	49.476	0	262.20	0	4.5880	0	33.8110	0	26.781	0	259.800	0	-1e10	8	-1e10	8	-1E+10	1	-1E+10	1	-1E+10	1	-1E+10	1	-1E+10	1	-1E+10	1
4902554	49	C	06/13/2022	02:01	-134.824	49.476	0	263.20	0	4.5860	0	33.8110	0	26.781	0	260.790	0	-1e10	8	-1e10	8	-1E+10	1	-1E+10	1	-1E+10	1	-1E+10	1	-1E+10	1	-1E+10	1
4902554	49	C	06/13/2022	02:01	-134.824	49.476	0	264.20	0	4.5840	0	33.8130	0	26.783	0	261.780	0	-1e10	8	-1e10	8	-1E+10	1	-1E+10	1	-1E+10	1	-1E+10	1	-1E+10	1	-1E+10	1
4902554	49	C	06/13/2022	02:01	-134.824	49.476	0	265.10	0	4.5800	0	33.8140	0	26.784	0	262.671	0	-1e10	8	-1e10	8	-1E+10	1	-1E+10	1	-1E+10	1	-1E+10	1	-1E+10	1	-1E+10	1
4902554	49	C	06/13/2022	02:01	-134.824	49.476	0	266.10	0	4.5780	0	33.8140	0	26.784	0	263.662	0	-1e10	8	-1e10	8	-1E+10	1	-1E+10	1	-1E+10	1	-1E+10	1	-1E+10	1	-1E+10	1
4902554	49	C	06/13/2022	02:01	-134.824	49.476	0	267.10	0	4.5770	0	33.8150	0	26.785	0	264.652	0	-1e10	8	-1e10	8	-1E+10	1	-1E+10	1	-1E+10	1	-1E+10	1	-1E+10	1	-1E+10	1
4902554	49	C	06/13/2022	02:01	-134.824	49.476	0	268.10	0	4.5750	0	33.8150	0	26.785	0	265.642	0	-1e10	8	-1e10	8	-1E+10	1	-1E+10	1	-1E+10	1	-1E+10	1	-1E+10	1	-1E+10	1
4902554	49	C	06/13/2022	02:01	-134.824	49.476	0	269.10	0	4.5730	0	33.8160	0	26.786	0	266.632	0	-1e10	8	-1e10	8	-1E+10	1	-1E+10	1	-1E+10	1	-1E+10	1	-1E+10	1	-1E+10	1
4902554	49	C	06/13/2022	02:01	-134.824	49.476	0	270.10	0	4.5680	0	33.8180	0	26.788	0	267.622	0	-1e10	8	-1e10	8	-1E+10	1	-1E+10	1	-1E+10	1	-1E+10	1	-1E+10	1	-1E+10	1
4902554	49	C	06/13/2022	02:01	-134.824	49.476	0	271.10	0	4.5630	0	33.8190	0	26.790	0	268.612	0	-1e10	8	-1e10	8	-1E+10	1	-1E+10	1	-1E+10	1	-1E+10	1	-1E+10	1	-1E+10	1
4902554	49	C	06/13/2022	02:01	-134.824	49.476	0	272.10	0	4.5580	0	33.8220	0	26.793	0	269.603	0	-1e10	8	-1e10	8	-1E+10	1	-1E+10	1	-1E+10	1	-1E+10	1	-1E+10	1	-1E+10	1
4902554	49	C	06/13/2022	02:01	-134.824	49.476	0	273.10	0	4.5510	0	33.8230	0	26.794	0	270.593	0	-1e10	8	-1e10	8	-1E+10	1	-1E+10	1	-1E+10	1	-1E+10	1	-1E+10	1	-1E+10	1
4902554	49	C	06/13/2022	02:01	-134.824	49.476	0	274.10	0	4.5500	0	33.8230	0	26.794	0	271.583	0	-1e10	8	-1e10	8	-1E+10	1	-1E+10	1	-1E+10	1	-1E+10	1	-1E+10	1	-1E+10	1
4902554	49	C	06/13/2022	02:01	-134.824	49.476	0	275.10	0	4.5490	0	33.8230	0	26.795	0	272.573	0	-1e10	8	-1e10	8	-1E+10	1	-1E+10	1	-1E+10	1	-1E+10	1	-1E+10	1	-1E+10	1
4902554	49	C	06/13/2022	02:01	-134.824	49.476	0	276.10	0	4.5490	0	33.8230	0	26.795	0	273.563	0	-1e10	8	-1e10	8	-1E+10	1	-1E+10	1	-1E+10	1	-1E+10	1	-1E+10	1	-1E+10	1
4902554	49	C	06/13/2022	02:01	-134.824	49.476	0	277.10	0	4.5490	0	33.8240	0	26.795	0	274.553	0	-1e10	8	-1e10	8	-1E+10	1	-1E+10	1	-1E+10	1	-1E+10	1	-1E+10	1	-1E+10	1
4902554	49	C	06/13/2022	02:01	-134.824	49.476	0	278.10	0	4.5450	0	33.8250	0	26.797	0	275.544	0	-1e10	8	-1e10	8	-1E+10	1	-1E+10	1	-1E+10	1	-1E+10	1	-1E+10	1	-1E+10	1
4902554	49	C	06/13/2022	02:01	-134.824	49.476	0	279.10	0	4.5460	0	33.8250	0	26.796	0	276.534	0	-1e10	8	-1e10	8	-1E+10	1	-1E+10	1	-1E+10	1	-1E+10	1	-1E+10	1	-1E+10	1
4902554	49	C	06/13/2022	02:01	-134.824	49.476	0	280.20	0	4.5470	0	33.8280	0	26.799	0	277.623	0	-1e10	8	-1e10	8	-1E+10	1	-1E+10	1	-1E+10	1	-1E+10	1	-1E+10	1	-1E+10	1
4902554	49	C	06/13/2022	02:01	-134.824	49.476	0	281.20	0	4.5420	0	33.8280	0	26.799	0	278.613	0	-1e10	8	-1e10	8	-1E+10	1	-1E+10	1	-1E+10	1	-1E+10	1	-1E+10	1	-1E+10	1
4902554	49	C	06/13/2022	02:01	-134.824	49.476	0	282.20	0	4.5470	0	33.8290	0	26.800	0	279.603	0	-1e10	8	-1e10	8	-1E+10	1	-1E+10	1	-1E+10	1	-1E+10	1	-1E+10	1	-1E+10	1
4902554	49	C	06/13/2022	02:01	-134.824	49.476	0	283.20	0	4.5450	0	33.8310	0	26.801	0	280.593	0	-1e10	8	-1e10	8	-1E+10	1	-1E+10	1	-1E+10	1	-1E+10	1	-1E+10	1	-1E+10	1
4902554	49	C	06/13/2022	02:01	-134.824	49.476	0	284.20	0	4.5430	0	33.8330	0	26.803	0	281.583	0	-1e10	8	-1e10	8	-1E+10	1	-1E+10	1	-1E+10	1	-1E+10	1	-1E+10	1	-1E+10	1
4902554	49	C	06/13/2022	02:01	-134.824	49.476	0	285.20	0	4.5370	0	33.8350	0	26.805	0	282.573	0	-1e10	8	-1e10	8	-1E+10	1	-1E+10	1	-1E+10	1	-1E+10	1	-1E+10	1	-1E+10	1
4902554	49	C	06/13/2022	02:01	-134.824	49.476	0	286.30	0	4.5320	0	33.8330	0	26.804	0	283.663	0	-1e10	8	-1e10	8	-1E+10	1	-1E+10	1	-1E+10	1	-1E+10	1	-1E+10	1	-1E+10	1
4902554	49	C	06/13/2022	02:01	-134.824	49.476	0	287.30	0	4.5340	0	33.8360	0	26.807	0	284.653	0	-1e10	8	-1e10	8	-1E+10	1	-1E+10	1	-1E+10	1	-1E+10	1	-1E+10	1	-1E+10	1
4902554	49	C	06/13/2022	02:01	-134.824	49.476	0	288.30	0	4.5340	0	33.8400	0	26.810	0	285.643	0	-1e10	8	-1e10	8	-1E+10	1	-1E+10	1	-1E+10	1	-1E+10	1	-1E+10	1	-1E+10	1
4902554	49	C	06/13/2022	02:01	-134.824	49.476	0	289.30	0	4.5190	0	33.8420	0	26.813	0	286.633	0	-1e10	8	-1e10	8	-1E+10	1	-1E+10	1	-1E+10	1	-1E+10	1	-1E+10	1	-1E+10	1
4902554	49	C	06/13/2022	02:01	-134.824	49.476	0	290.30	0	4.5080	0	33.8400	0	26.813	0	287.623	0	-1e10	8	-1e10	8	-1E+10	1	-1E+10	1	-1E+10	1	-1E+10	1	-1E+10	1	-1E+10	1
4902554	49	C	06/13/2022	02:01	-134.824	49.476	0	291.30	0	4.5080	0	33.8410	0	26.813	0	288.613	0	-1e10	8	-1e10	8	-1E+10	1	-1E+10	1	-1E+10	1	-1E+10	1	-1E+10	1	-1E+10	1
4902554	49	C	06/13/2022	02:01	-134.824	49.476	0	292.40	0	4.5040	0	33.8410	0	26.814	0	289.702	0	-1e10	8	-1e10	8	-1E+10	1	-1E+10	1	-1E+10	1	-1E+10	1	-1E+10	1	-1E+10	1
4902554	49	C	06/13/2022	02:01	-134.824	49.476	0	293.40	0	4.5030	0	33.8420	0	26.815	0	290.692	0	-1e10	8	-1e10	8	-1E+10	1	-1E+10	1	-1E+10	1	-1E+10	1	-1E+10	1	-1E+10	1
4902554	49	C	06/13/2022	02:01	-134.824	49.476	0	294.40	0	4.4990	0	33.8420	0	26.815	0	291.682	0	-1e10	8	-1e10	8	-1E+10	1	-1E+10	1	-1E+10	1	-1E+10	1	-1E+10	1	-1E+10	1
4902554	49	C	06/13/2022	02:01	-134.824	49.476	0	295.40	0	4.4970	0	33.8430	0	26.816	0	292.672	0	-1e10	8	-1e10	8	-1E+10	1	-1E+10	1	-1E+10	1	-1E+10	1	-1E+10	1	-1E+10	1
4902554	49	C	06/13/2022	02:01	-134.824	49.476	0	296.40	0	4.4870	0	33.8440	0	26.818	0	293.662	0	-1e10	8	-1e10	8	-1E+10	1	-1E+10	1	-1E+10	1	-1E+10	1	-1E+10	1	-1E+10	1
4902554	49	C	06/13/2022	02:01	-134.824	49.476	0	297.40	0	4.4790	0	33.8480	0	26.822	0	294.652	0	-1e10	8	-1e10	8	-1E+10	1	-1E+10	1	-1E+10	1	-1E+10	1	-1E+10	1	-1E+10	1
4902554	49	C	06/13/2022	02:01	-134.824	49.476	0	298.50	0	4.4810	0	33.8500	0	26.823	0	295.741	0	-1e10	8	-1e10	8	-1E+10	1	-1E+10	1	-1E+10	1	-1E+10	1	-1E+10	1	-1E+10	1
4902554	49	C	06/13/2022	02:01	-134.824	49.476	0	299.50	0	4.4820	0	33.8500	0	26.823	0	296.732	0	-1e10	8	-1e10	8	-1E+10	1	-1E+10	1	-1E+10	1	-1E+10	1	-1E+10	1	-1E+10	1
4902554	49	C	06/13/2022	02:01	-134.824	49.476	0	300.50	0	4.4820	0	33.8500	0	26.823	0	297.722	0	-1e10	8	-1e10	8	-1E+10	1	-1E+10	1	-1E+10	1	-1E+10	1	-1E+10	1	-1E+10	1
4902554	49	C	06/13/2022	02:01	-134.824	49.476	0	301.50	0	4.4810	0	33.8510	0	26.824	0	298.712	0	-1e10	8	-1e10	8	-1E+10	1	-1E+10	1	-1E+10	1	-1E+10	1	-1E+10	1	-1E+10	1
4902554	49	C	06/13/2022	02:01	-134.824	49.476	0	302.50	0	4.4810	0	33.8520	0	26.825	0	299.702	0	-1e10	8	-1e10	8	-1E+10	1	-1E+10	1	-1E+10	1	-1E+10	1	-1E+10	1	-1E+10	1
4902554	49	C	06/13/2022	02:01	-134.824	49.476	0	303.50	0	4.4810	0	33.8520	0	26.825	0	300.692	0	-1e10	8	-1e10	8	-1E+10	1	-1E+10	1	-1E+10	1	-1E+10	1	-1E+10	1	-1E+10	1
4902554	49	C	06/13/2022	02:01	-134.824	49.476	0	304.50	0	4.4810	0	33.8510	0	26.824	0	301.682	0	-1e10	8	-1e10	8	-1E+10	1	-1E+10	1	-1E+10	1	-1E+10	1	-1E+10	1	-1E+10	1
4902554	49	C	06/13/2022	02:01	-134.824	49.476	0	305.60	0	4.4850	0	33.8580	0	26.829	0	302.771	0	-1e10	8	-1e10	8	-1E+10	1	-1E+10	1	-1E+10	1	-1E+10	1	-1E+10	1	-1E+10	1
4902554	49	C	06/13/2022	02:01	-134.824	49.476	0	306.60	0	4.4690	0	33.8570	0	26.830	0	303.761	0	-1e10	8	-1e10	8	-1E+10	1	-1E+10	1	-1E+10	1	-1E+10	1	-1E+10	1	-1E+10	1
4902554	49	C	06/13/2022	02:01	-134.824	49.476	0	307.60	0	4.4630	0	33.8580	0	26.832	0	304.751	0	-1e10	8	-1e10	8	-1E+10	1	-1E+10	1	-1E+10	1	-1E+10	1	-1E+10	1	-1E+10	1
4902554	49	C	06/13/2022	02:01	-134.824	49.476	0	308.60	0	4.4590	0	33.8610	0	26.835	0	305.741	0	-1e10	8	-1e10	8	-1E+10	1	-1E+10	1	-1E+10	1	-1E+10	1	-1E+10	1	-1E+10	1
4902554	49	C	06/13/2022	02:01	-134.824	49.476	0	309.70	0	4.4590	0	33.8610	0	26.835	0	306.830	0	-1e10	8	-1e10	8	-1E+10	1	-1E+10	1	-1E+10	1	-1E+10	1	-1E+10	1	-1E+10	1
4902554	49	C	06/13/2022	02:01	-134.824	49.476	0	310.60	0	4.4590	0	33.8620	0	26.835	0	307.721	0	-1e10	8	-1e10	8	-1E+10	1	-1E+10	1	-1E+10	1	-1E+10	1	-1E+10	1	-1E+10	1
4902554	49	C	06/13/2022	02:01	-134.824	49.476	0	311.70	0	4.4550	0	33.8640	0	26.837	0	308.810	0	-1e10	8	-1e10	8	-1E+10	1	-1E+10	1	-1E+10	1	-1E+10	1	-1E+10	1	-1E+10	1
4902554	49	C	06/13/2022	02:01	-134.824	49.476	0	312.70	0	4.4540	0	33.8650	0	26.838	0	309.800	0	-1e10	8	-1e10	8	-1E+10	1	-1E+10	1	-1E+10	1	-1E+10	1	-1E+10	1	-1E+10	1
4902554	49	C	06/13/2022	02:01	-134.824	49.476	0	313.70	0	4.4660	0	33.8670	0	26.839	0	310.790	0	-1e10	8	-1e10	8	-1E+10	1	-1E+10	1	-1E+10	1	-1E+10	1	-1E+10	1	-1E+10	1
4902554	49	C	06/13/2022	02:01	-134.824	49.476	0	314.70	0	4.4620	0	33.8700	0	26.841	0	311.780	0	-1e10	8	-1e10	8	-1E+10	1	-1E+10	1	-1E+10	1	-1E+10	1	-1E+10	1	-1E+10	1
4902554	49	C	06/13/2022	02:01	-134.824	49.476	0	315.70	0	4.4580	0	33.8710	0	26.843	0	312.770	0	-1e10	8	-1e10	8	-1E+10	1	-1E+10	1	-1E+10	1	-1E+10	1	-1E+10	1	-1E+10	1
4902554	49	C	06/13/2022	02:01	-134.824	49.476	0	316.70	0	4.4550	0	33.8720	0	26.844	0	313.760	0	-1e10	8	-1e10	8	-1E+10	1	-1E+10	1	-1E+10	1	-1E+10	1	-1E+10	1	-1E+10	1
4902554	49	C	06/13/2022	02:01	-134.824	49.476	0	317.80	0	4.4520	0	33.8730	0	26.845	0	314.848	0	-1e10	8	-1e10	8	-1E+10	1	-1E+10	1	-1E+10	1	-1E+10	1	-1E+10	1	-1E+10	1
4902554	49	C	06/13/2022	02:01	-134.824	49.476	0	318.80	0	4.4500	0	33.8760	0	26.848	0	315.838	0	-1e10	8	-1e10	8	-1E+10	1	-1E+10	1	-1E+10	1	-1E+10	1	-1E+10	1	-1E+10	1
4902554	49	C	06/13/2022	02:01	-134.824	49.476	0	319.80	0	4.4440	0	33.8790	0	26.851	0	316.828	0	-1e10	8	-1e10	8	-1E+10	1	-1E+10	1	-1E+10	1	-1E+10	1	-1E+10	1	-1E+10	1
4902554	49	C	06/13/2022	02:01	-134.824	49.476	0	320.80	0	4.4390	0	33.8800	0	26.852	0	317.818	0	-1e10	8	-1e10	8	-1E+10	1	-1E+10	1	-1E+10	1	-1E+10	1	-1E+10	1	-1E+10	1
4902554	49	C	06/13/2022	02:01	-134.824	49.476	0	321.90	0	4.4330	0	33.8830	0	26.855	0	318.907	0	-1e10	8	-1e10	8	-1E+10	1	-1E+10	1	-1E+10	1	-1E+10	1	-1E+10	1	-1E+10	1
4902554	49	C	06/13/2022	02:01	-134.824	49.476	0	322.90	0	4.4170	0	33.8830	0	26.857	0	319.897	0	-1e10	8	-1e10	8	-1E+10	1	-1E+10	1	-1E+10	1	-1E+10	1	-1E+10	1	-1E+10	1
4902554	49	C	06/13/2022	02:01	-134.824	49.476	0	323.90	0	4.4210	0	33.8860	0	26.859	0	320.887	0	-1e10	8	-1e10	8	-1E+10	1	-1E+10	1	-1E+10	1	-1E+10	1	-1E+10	1	-1E+10	1
4902554	49	C	06/13/2022	02:01	-134.824	49.476	0	325.00	0	4.4320	0	33.8880	0	26.859	0	321.976	0	-1e10	8	-1e10	8	-1E+10	1	-1E+10	1	-1E+10	1	-1E+10	1	-1E+10	1	-1E+10	1
4902554	49	C	06/13/2022	02:01	-134.824	49.476	0	326.00	0	4.4320	0	33.8880	0	26.859	0	322.966	0	-1e10	8	-1e10	8	-1E+10	1	-1E+10	1	-1E+10	1	-1E+10	1	-1E+10	1	-1E+10	1
4902554	49	C	06/13/2022	02:01	-134.824	49.476	0	327.00	0	4.4320	0	33.8880	0	26.859	0	323.956	0	-1e10	8	-1e10	8	-1E+10	1	-1E+10	1	-1E+10	1	-1E+10	1	-1E+10	1	-1E+10	1
4902554	49	C	06/13/2022	02:01	-134.824	49.476	0	328.00	0	4.4320	0	33.8890	0	26.860	0	324.946	0	-1e10	8	-1e10	8	-1E+10	1	-1E+10	1	-1E+10	1	-1E+10	1	-1E+10	1	-1E+10	1
4902554	49	C	06/13/2022	02:01	-134.824	49.476	0	329.10	0	4.4310	0	33.8890	0	26.860	0	326.035	0	-1e10	8	-1e10	8	-1E+10	1	-1E+10	1	-1E+10	1	-1E+10	1	-1E+10	1	-1E+10	1
4902554	49	C	06/13/2022	02:01	-134.824	49.476	0	330.10	0	4.4290	0	33.8900	0	26.861	0	327.025	0	-1e10	8	-1e10	8	-1E+10	1	-1E+10	1	-1E+10	1	-1E+10	1	-1E+10	1	-1E+10	1
4902554	49	C	06/13/2022	02:01	-134.824	49.476	0	331.10	0	4.4270	0	33.8910	0	26.862	0	328.014	0	-1e10	8	-1e10	8	-1E+10	1	-1E+10	1	-1E+10	1	-1E+10	1	-1E+10	1	-1E+10	1
4902554	49	C	06/13/2022	02:01	-134.824	49.476	0	332.20	0	4.4260	0	33.8920	0	26.863	0	329.103	0	-1e10	8	-1e10	8	-1E+10	1	-1E+10	1	-1E+10	1	-1E+10	1	-1E+10	1	-1E+10	1
4902554	49	C	06/13/2022	02:01	-134.824	49.476	0	333.20	0	4.4180	0	33.8980	0	26.869	0	330.093	0	-1e10	8	-1e10	8	-1E+10	1	-1E+10	1	-1E+10	1	-1E+10	1	-1E+10	1	-1E+10	1
4902554	49	C	06/13/2022	02:01	-134.824	49.476	0	334.20	0	4.4100	0	33.9010	0	26.872	0	331.083	0	-1e10	8	-1e10	8	-1E+10	1	-1E+10	1	-1E+10	1	-1E+10	1	-1E+10	1	-1E+10	1
4902554	49	C	06/13/2022	02:01	-134.824	49.476	0	335.20	0	4.4090	0	33.9020	0	26.873	0	332.073	0	-1e10	8	-1e10	8	-1E+10	1	-1E+10	1	-1E+10	1	-1E+10	1	-1E+10	1	-1E+10	1
4902554	49	C	06/13/2022	02:01	-134.824	49.476	0	336.30	0	4.4080	0	33.9010	0	26.872	0	333.162	0	-1e10	8	-1e10	8	-1E+10	1	-1E+10	1	-1E+10	1	-1E+10	1	-1E+10	1	-1E+10	1
4902554	49	C	06/13/2022	02:01	-134.824	49.476	0	337.30	0	4.4070	0	33.9020	0	26.873	0	334.152	0	-1e10	8	-1e10	8	-1E+10	1	-1E+10	1	-1E+10	1	-1E+10	1	-1E+10	1	-1E+10	1
4902554	49	C	06/13/2022	02:01	-134.824	49.476	0	338.40	0	4.4030	0	33.9040	0	26.875	0	335.240	0	-1e10	8	-1e10	8	-1E+10	1	-1E+10	1	-1E+10	1	-1E+10	1	-1E+10	1	-1E+10	1
4902554	49	C	06/13/2022	02:01	-134.824	49.476	0	339.40	0	4.4000	0	33.9060	0	26.877	0	336.230	0	-1e10	8	-1e10	8	-1E+10	1	-1E+10	1	-1E+10	1	-1E+10	1	-1E+10	1	-1E+10	1
4902554	49	C	06/13/2022	02:01	-134.824	49.476	0	340.50	0	4.3970	0	33.9060	0	26.877	0	337.319	0	-1e10	8	-1e10	8	-1E+10	1	-1E+10	1	-1E+10	1	-1E+10	1	-1E+10	1	-1E+10	1
4902554	49	C	06/13/2022	02:01	-134.824	49.476	0	341.50	0	4.3970	0	33.9070	0	26.878	0	338.309	0	-1e10	8	-1e10	8	-1E+10	1	-1E+10	1	-1E+10	1	-1E+10	1	-1E+10	1	-1E+10	1
4902554	49	C	06/13/2022	02:01	-134.824	49.476	0	342.60	0	4.3950	0	33.9080	0	26.879	0	339.398	0	-1e10	8	-1e10	8	-1E+10	1	-1E+10	1	-1E+10	1	-1E+10	1	-1E+10	1	-1E+10	1
4902554	49	C	06/13/2022	02:01	-134.824	49.476	0	343.60	0	4.3940	0	33.9090	0	26.880	0	340.388	0	-1e10	8	-1e10	8	-1E+10	1	-1E+10	1	-1E+10	1	-1E+10	1	-1E+10	1	-1E+10	1
4902554	49	C	06/13/2022	02:01	-134.824	49.476	0	344.60	0	4.3940	0	33.9090	0	26.880	0	341.378	0	-1e10	8	-1e10	8	-1E+10	1	-1E+10	1	-1E+10	1	-1E+10	1	-1E+10	1	-1E+10	1
4902554	49	C	06/13/2022	02:01	-134.824	49.476	0	345.60	0	4.3930	0	33.9100	0	26.881	0	342.367	0	-1e10	8	-1e10	8	-1E+10	1	-1E+10	1	-1E+10	1	-1E+10	1	-1E+10	1	-1E+10	1
4902554	49	C	06/13/2022	02:01	-134.824	49.476	0	346.60	0	4.3890	0	33.9130	0	26.884	0	343.357	0	-1e10	8	-1e10	8	-1E+10	1	-1E+10	1	-1E+10	1	-1E+10	1	-1E+10	1	-1E+10	1
4902554	49	C	06/13/2022	02:01	-134.824	49.476	0	347.90	0	4.3840	0	33.9160	0	26.887	0	344.644	0	-1e10	8	-1e10	8	-1E+10	1	-1E+10	1	-1E+10	1	-1E+10	1	-1E+10	1	-1E+10	1
4902554	49	C	06/13/2022	02:01	-134.824	49.476	0	349.10	0	4.3820	0	33.9180	0	26.888	0	345.832	0	-1e10	8	-1e10	8	-1E+10	1	-1E+10	1	-1E+10	1	-1E+10	1	-1E+10	1	-1E+10	1
4902554	49	C	06/13/2022	02:01	-134.824	49.476	0	349.90	0	4.3810	0	33.9220	0	26.892	0	346.624	0	-1e10	8	-1e10	8	-1E+10	1	-1E+10	1	-1E+10	1	-1E+10	1	-1E+10	1	-1E+10	1
4902554	49	C	06/13/2022	02:01	-134.824	49.476	0	353.00	0	4.3710	0	33.9240	0	26.894	0	349.692	0	-1e10	8	-1e10	8	-1E+10	1	-1E+10	1	-1E+10	1	-1E+10	1	-1E+10	1	-1E+10	1
4902554	49	C	06/13/2022	02:01	-134.824	49.476	0	358.20	0	4.3550	0	33.9320	0	26.902	0	354.839	0	-1e10	8	-1e10	8	-1E+10	1	-1E+10	1	-1E+10	1	-1E+10	1	-1E+10	1	-1E+10	1
4902554	49	C	06/13/2022	02:01	-134.824	49.476	0	363.10	0	4.3450	0	33.9400	0	26.910	0	359.688	0	-1e10	8	-1e10	8	-1E+10	1	-1E+10	1	-1E+10	1	-1E+10	1	-1E+10	1	-1E+10	1
4902554	49	C	06/13/2022	02:01	-134.824	49.476	0	368.20	0	4.3400	0	33.9470	0	26.916	0	364.736	0	-1e10	8	-1e10	8	-1E+10	1	-1E+10	1	-1E+10	1	-1E+10	1	-1E+10	1	-1E+10	1
4902554	49	C	06/13/2022	02:01	-134.824	49.476	0	372.90	0	4.3310	0	33.9530	0	26.922	0	369.388	0	-1e10	8	-1e10	8	-1E+10	1	-1E+10	1	-1E+10	1	-1E+10	1	-1E+10	1	-1E+10	1
4902554	49	C	06/13/2022	02:01	-134.824	49.476	0	377.70	0	4.3210	0	33.9600	0	26.928	0	374.138	0	-1e10	8	-1e10	8	-1E+10	1	-1E+10	1	-1E+10	1	-1E+10	1	-1E+10	1	-1E+10	1
4902554	49	C	06/13/2022	02:01	-134.824	49.476	0	383.00	0	4.3170	0	33.9680	0	26.935	0	379.383	0	-1e10	8	-1e10	8	-1E+10	1	-1E+10	1	-1E+10	1	-1E+10	1	-1E+10	1	-1E+10	1
4902554	49	C	06/13/2022	02:01	-134.824	49.476	0	388.00	0	4.3100	0	33.9780	0	26.944	0	384.331	0	-1e10	8	-1e10	8	-1E+10	1	-1E+10	1	-1E+10	1	-1E+10	1	-1E+10	1	-1E+10	1
4902554	49	C	06/13/2022	02:01	-134.824	49.476	0	392.60	0	4.3080	0	33.9810	0	26.947	0	388.884	0	-1e10	8	-1e10	8	-1E+10	1	-1E+10	1	-1E+10	1	-1E+10	1	-1E+10	1	-1E+10	1
4902554	49	C	06/13/2022	02:01	-134.824	49.476	0	397.80	0	4.3040	0	33.9840	0	26.949	0	394.029	0	-1e10	8	-1e10	8	-1E+10	1	-1E+10	1	-1E+10	1	-1E+10	1	-1E+10	1	-1E+10	1
4902554	49	C	06/13/2022	02:01	-134.824	49.476	0	403.00	0	4.2960	0	33.9900	0	26.955	0	399.175	0	-1e10	8	-1e10	8	-1E+10	1	-1E+10	1	-1E+10	1	-1E+10	1	-1E+10	1	-1E+10	1
4902554	49	C	06/13/2022	02:01	-134.824	49.476	0	407.80	0	4.2910	0	33.9940	0	26.959	0	403.925	0	-1e10	8	-1e10	8	-1E+10	1	-1E+10	1	-1E+10	1	-1E+10	1	-1E+10	1	-1E+10	1
4902554	49	C	06/13/2022	02:01	-134.824	49.476	0	412.70	0	4.2800	0	34.0010	0	26.966	0	408.774	0	-1e10	8	-1e10	8	-1E+10	1	-1E+10	1	-1E+10	1	-1E+10	1	-1E+10	1	-1E+10	1
4902554	49	C	06/13/2022	02:01	-134.824	49.476	0	417.50	0	4.2720	0	34.0060	0	26.970	0	413.523	0	-1e10	8	-1e10	8	-1E+10	1	-1E+10	1	-1E+10	1	-1E+10	1	-1E+10	1	-1E+10	1
4902554	49	C	06/13/2022	02:01	-134.824	49.476	0	422.50	0	4.2620	0	34.0120	0	26.976	0	418.470	0	-1e10	8	-1e10	8	-1E+10	1	-1E+10	1	-1E+10	1	-1E+10	1	-1E+10	1	-1E+10	1
4902554	49	C	06/13/2022	02:01	-134.824	49.476	0	427.50	0	4.2530	0	34.0160	0	26.980	0	423.418	0	-1e10	8	-1e10	8	-1E+10	1	-1E+10	1	-1E+10	1	-1E+10	1	-1E+10	1	-1E+10	1
4902554	49	C	06/13/2022	02:01	-134.824	49.476	0	432.50	0	4.2460	0	34.0200	0	26.984	0	428.365	0	-1e10	8	-1e10	8	-1E+10	1	-1E+10	1	-1E+10	1	-1E+10	1	-1E+10	1	-1E+10	1
4902554	49	C	06/13/2022	02:01	-134.824	49.476	0	437.40	0	4.2350	0	34.0270	0	26.991	0	433.213	0	-1e10	8	-1e10	8	-1E+10	1	-1E+10	1	-1E+10	1	-1E+10	1	-1E+10	1	-1E+10	1
4902554	49	C	06/13/2022	02:01	-134.824	49.476	0	442.60	0	4.2210	0	34.0320	0	26.997	0	438.358	0	-1e10	8	-1e10	8	-1E+10	1	-1E+10	1	-1E+10	1	-1E+10	1	-1E+10	1	-1E+10	1
4902554	49	C	06/13/2022	02:01	-134.824	49.476	0	447.80	0	4.2120	0	34.0350	0	27.000	0	443.502	0	-1e10	8	-1e10	8	-1E+10	1	-1E+10	1	-1E+10	1	-1E+10	1	-1E+10	1	-1E+10	1
4902554	49	C	06/13/2022	02:01	-134.824	49.476	0	453.00	0	4.2020	0	34.0390	0	27.004	0	448.647	0	-1e10	8	-1e10	8	-1E+10	1	-1E+10	1	-1E+10	1	-1E+10	1	-1E+10	1	-1E+10	1
4902554	49	C	06/13/2022	02:01	-134.824	49.476	0	458.20	0	4.1940	0	34.0420	0	27.008	0	453.791	0	-1e10	8	-1e10	8	-1E+10	1	-1E+10	1	-1E+10	1	-1E+10	1	-1E+10	1	-1E+10	1
4902554	49	C	06/13/2022	02:01	-134.824	49.476	0	462.90	0	4.1820	0	34.0480	0	27.014	0	458.441	0	-1e10	8	-1e10	8	-1E+10	1	-1E+10	1	-1E+10	1	-1E+10	1	-1E+10	1	-1E+10	1
4902554	49	C	06/13/2022	02:01	-134.824	49.476	0	467.60	0	4.1660	0	34.0540	0	27.020	0	463.090	0	-1e10	8	-1e10	8	-1E+10	1	-1E+10	1	-1E+10	1	-1E+10	1	-1E+10	1	-1E+10	1
4902554	49	C	06/13/2022	02:01	-134.824	49.476	0	472.80	0	4.1530	0	34.0580	0	27.025	0	468.234	0	-1e10	8	-1e10	8	-1E+10	1	-1E+10	1	-1E+10	1	-1E+10	1	-1E+10	1	-1E+10	1
4902554	49	C	06/13/2022	02:01	-134.824	49.476	0	478.10	0	4.1470	0	34.0650	0	27.031	0	473.477	0	-1e10	8	-1e10	8	-1E+10	1	-1E+10	1	-1E+10	1	-1E+10	1	-1E+10	1	-1E+10	1
4902554	49	C	06/13/2022	02:01	-134.824	49.476	0	482.90	0	4.1370	0	34.0720	0	27.038	0	478.225	0	-1e10	8	-1e10	8	-1E+10	1	-1E+10	1	-1E+10	1	-1E+10	1	-1E+10	1	-1E+10	1
4902554	49	C	06/13/2022	02:01	-134.824	49.476	0	487.60	0	4.1260	0	34.0750	0	27.041	0	482.874	0	-1e10	8	-1e10	8	-1E+10	1	-1E+10	1	-1E+10	1	-1E+10	1	-1E+10	1	-1E+10	1
4902554	49	C	06/13/2022	02:01	-134.824	49.476	0	492.80	0	4.1250	0	34.0760	0	27.042	0	488.017	0	-1e10	8	-1e10	8	-1E+10	1	-1E+10	1	-1E+10	1	-1E+10	1	-1E+10	1	-1E+10	1
4902554	49	C	06/13/2022	02:01	-134.824	49.476	0	498.10	0	4.1160	0	34.0810	0	27.047	0	493.260	0	-1e10	8	-1e10	8	-1E+10	1	-1E+10	1	-1E+10	1	-1E+10	1	-1E+10	1	-1E+10	1
4902554	49	C	06/13/2022	02:01	-134.824	49.476	0	502.80	0	4.0900	0	34.0850	0	27.053	0	497.908	0	-1e10	8	-1e10	8	-1E+10	1	-1E+10	1	-1E+10	1	-1E+10	1	-1E+10	1	-1E+10	1
4902554	49	C	06/13/2022	02:01	-134.824	49.476	0	507.50	0	4.0800	0	34.0870	0	27.055	0	502.557	0	-1e10	8	-1e10	8	-1E+10	1	-1E+10	1	-1E+10	1	-1E+10	1	-1E+10	1	-1E+10	1
4902554	49	C	06/13/2022	02:01	-134.824	49.476	0	512.90	0	4.0750	0	34.0950	0	27.062	0	507.898	0	-1e10	8	-1e10	8	-1E+10	1	-1E+10	1	-1E+10	1	-1E+10	1	-1E+10	1	-1E+10	1
4902554	49	C	06/13/2022	02:01	-134.824	49.476	0	518.10	0	4.0730	0	34.1000	0	27.067	0	513.041	0	-1e10	8	-1e10	8	-1E+10	1	-1E+10	1	-1E+10	1	-1E+10	1	-1E+10	1	-1E+10	1
4902554	49	C	06/13/2022	02:01	-134.824	49.476	0	522.90	0	4.0680	0	34.1030	0	27.070	0	517.788	0	-1e10	8	-1e10	8	-1E+10	1	-1E+10	1	-1E+10	1	-1E+10	1	-1E+10	1	-1E+10	1
4902554	49	C	06/13/2022	02:01	-134.824	49.476	0	527.70	0	4.0610	0	34.1100	0	27.076	0	522.535	0	-1e10	8	-1e10	8	-1E+10	1	-1E+10	1	-1E+10	1	-1E+10	1	-1E+10	1	-1E+10	1
4902554	49	C	06/13/2022	02:01	-134.824	49.476	0	533.00	0	4.0600	0	34.1140	0	27.079	0	527.776	0	-1e10	8	-1e10	8	-1E+10	1	-1E+10	1	-1E+10	1	-1E+10	1	-1E+10	1	-1E+10	1
4902554	49	C	06/13/2022	02:01	-134.824	49.476	0	537.80	0	4.0550	0	34.1170	0	27.082	0	532.523	0	-1e10	8	-1e10	8	-1E+10	1	-1E+10	1	-1E+10	1	-1E+10	1	-1E+10	1	-1E+10	1
4902554	49	C	06/13/2022	02:01	-134.824	49.476	0	542.60	0	4.0420	0	34.1200	0	27.086	0	537.270	0	-1e10	8	-1e10	8	-1E+10	1	-1E+10	1	-1E+10	1	-1E+10	1	-1E+10	1	-1E+10	1
4902554	49	C	06/13/2022	02:01	-134.824	49.476	0	548.00	0	4.0310	0	34.1240	0	27.090	0	542.610	0	-1e10	8	-1e10	8	-1E+10	1	-1E+10	1	-1E+10	1	-1E+10	1	-1E+10	1	-1E+10	1
4902554	49	C	06/13/2022	02:01	-134.824	49.476	0	552.90	0	4.0150	0	34.1290	0	27.096	0	547.455	0	-1e10	8	-1e10	8	-1E+10	1	-1E+10	1	-1E+10	1	-1E+10	1	-1E+10	1	-1E+10	1
4902554	49	C	06/13/2022	02:01	-134.824	49.476	0	557.70	0	4.0000	0	34.1360	0	27.103	0	552.201	0	-1e10	8	-1e10	8	-1E+10	1	-1E+10	1	-1E+10	1	-1E+10	1	-1E+10	1	-1E+10	1
4902554	49	C	06/13/2022	02:01	-134.824	49.476	0	562.80	0	3.9950	0	34.1410	0	27.108	0	557.244	0	-1e10	8	-1e10	8	-1E+10	1	-1E+10	1	-1E+10	1	-1E+10	1	-1E+10	1	-1E+10	1
4902554	49	C	06/13/2022	02:01	-134.824	49.476	0	567.90	0	3.9910	0	34.1420	0	27.109	0	562.287	0	-1e10	8	-1e10	8	-1E+10	1	-1E+10	1	-1E+10	1	-1E+10	1	-1E+10	1	-1E+10	1
4902554	49	C	06/13/2022	02:01	-134.824	49.476	0	573.00	0	3.9770	0	34.1470	0	27.114	0	567.330	0	-1e10	8	-1e10	8	-1E+10	1	-1E+10	1	-1E+10	1	-1E+10	1	-1E+10	1	-1E+10	1
4902554	49	C	06/13/2022	02:01	-134.824	49.476	0	577.80	0	3.9650	0	34.1510	0	27.119	0	572.076	0	-1e10	8	-1e10	8	-1E+10	1	-1E+10	1	-1E+10	1	-1E+10	1	-1E+10	1	-1E+10	1
4902554	49	C	06/13/2022	02:01	-134.824	49.476	0	582.60	0	3.9520	0	34.1550	0	27.123	0	576.821	0	-1e10	8	-1e10	8	-1E+10	1	-1E+10	1	-1E+10	1	-1E+10	1	-1E+10	1	-1E+10	1
4902554	49	C	06/13/2022	02:01	-134.824	49.476	0	588.00	0	3.9340	0	34.1620	0	27.131	0	582.160	0	-1e10	8	-1e10	8	-1E+10	1	-1E+10	1	-1E+10	1	-1E+10	1	-1E+10	1	-1E+10	1
4902554	49	C	06/13/2022	02:01	-134.824	49.476	0	593.00	0	3.9200	0	34.1670	0	27.136	0	587.104	0	-1e10	8	-1e10	8	-1E+10	1	-1E+10	1	-1E+10	1	-1E+10	1	-1E+10	1	-1E+10	1
4902554	49	C	06/13/2022	02:01	-134.824	49.476	0	598.00	0	3.9040	0	34.1720	0	27.142	0	592.047	0	-1e10	8	-1e10	8	-1E+10	1	-1E+10	1	-1E+10	1	-1E+10	1	-1E+10	1	-1E+10	1
4902554	49	C	06/13/2022	02:01	-134.824	49.476	0	603.10	0	3.8940	0	34.1750	0	27.145	0	597.089	0	-1e10	8	-1e10	8	-1E+10	1	-1E+10	1	-1E+10	1	-1E+10	1	-1E+10	1	-1E+10	1
4902554	49	C	06/13/2022	02:01	-134.824	49.476	0	607.90	0	3.8820	0	34.1790	0	27.150	0	601.834	0	-1e10	8	-1e10	8	-1E+10	1	-1E+10	1	-1E+10	1	-1E+10	1	-1E+10	1	-1E+10	1
4902554	49	C	06/13/2022	02:01	-134.824	49.476	0	612.70	0	3.8730	0	34.1820	0	27.153	0	606.579	0	-1e10	8	-1e10	8	-1E+10	1	-1E+10	1	-1E+10	1	-1E+10	1	-1E+10	1	-1E+10	1
4902554	49	C	06/13/2022	02:01	-134.824	49.476	0	618.00	0	3.8650	0	34.1850	0	27.156	0	611.818	0	-1e10	8	-1e10	8	-1E+10	1	-1E+10	1	-1E+10	1	-1E+10	1	-1E+10	1	-1E+10	1
4902554	49	C	06/13/2022	02:01	-134.824	49.476	0	623.30	0	3.8500	0	34.1890	0	27.161	0	617.057	0	-1e10	8	-1e10	8	-1E+10	1	-1E+10	1	-1E+10	1	-1E+10	1	-1E+10	1	-1E+10	1
4902554	49	C	06/13/2022	02:01	-134.824	49.476	0	628.20	0	3.8340	0	34.1940	0	27.166	0	621.901	0	-1e10	8	-1e10	8	-1E+10	1	-1E+10	1	-1E+10	1	-1E+10	1	-1E+10	1	-1E+10	1
4902554	49	C	06/13/2022	02:01	-134.824	49.476	0	633.10	0	3.8230	0	34.1970	0	27.170	0	626.744	0	-1e10	8	-1e10	8	-1E+10	1	-1E+10	1	-1E+10	1	-1E+10	1	-1E+10	1	-1E+10	1
4902554	49	C	06/13/2022	02:01	-134.824	49.476	0	638.00	0	3.8130	0	34.2000	0	27.173	0	631.588	0	-1e10	8	-1e10	8	-1E+10	1	-1E+10	1	-1E+10	1	-1E+10	1	-1E+10	1	-1E+10	1
4902554	49	C	06/13/2022	02:01	-134.824	49.476	0	642.90	0	3.8000	0	34.2040	0	27.178	0	636.431	0	-1e10	8	-1e10	8	-1E+10	1	-1E+10	1	-1E+10	1	-1E+10	1	-1E+10	1	-1E+10	1
4902554	49	C	06/13/2022	02:01	-134.824	49.476	0	647.90	0	3.7940	0	34.2050	0	27.179	0	641.373	0	-1e10	8	-1e10	8	-1E+10	1	-1E+10	1	-1E+10	1	-1E+10	1	-1E+10	1	-1E+10	1
4902554	49	C	06/13/2022	02:01	-134.824	49.476	0	652.90	0	3.7840	0	34.2080	0	27.183	0	646.315	0	-1e10	8	-1e10	8	-1E+10	1	-1E+10	1	-1E+10	1	-1E+10	1	-1E+10	1	-1E+10	1
4902554	49	C	06/13/2022	02:01	-134.824	49.476	0	657.80	0	3.7810	0	34.2090	0	27.184	0	651.158	0	-1e10	8	-1e10	8	-1E+10	1	-1E+10	1	-1E+10	1	-1E+10	1	-1E+10	1	-1E+10	1
4902554	49	C	06/13/2022	02:01	-134.824	49.476	0	662.80	0	3.7700	0	34.2120	0	27.187	0	656.100	0	-1e10	8	-1e10	8	-1E+10	1	-1E+10	1	-1E+10	1	-1E+10	1	-1E+10	1	-1E+10	1
4902554	49	C	06/13/2022	02:01	-134.824	49.476	0	667.70	0	3.7560	0	34.2160	0	27.192	0	660.942	0	-1e10	8	-1e10	8	-1E+10	1	-1E+10	1	-1E+10	1	-1E+10	1	-1E+10	1	-1E+10	1
4902554	49	C	06/13/2022	02:01	-134.824	49.476	0	672.70	0	3.7420	0	34.2200	0	27.197	0	665.884	0	-1e10	8	-1e10	8	-1E+10	1	-1E+10	1	-1E+10	1	-1E+10	1	-1E+10	1	-1E+10	1
4902554	49	C	06/13/2022	02:01	-134.824	49.476	0	677.60	0	3.7260	0	34.2230	0	27.201	0	670.726	0	-1e10	8	-1e10	8	-1E+10	1	-1E+10	1	-1E+10	1	-1E+10	1	-1E+10	1	-1E+10	1
4902554	49	C	06/13/2022	02:01	-134.824	49.476	0	682.60	0	3.7090	0	34.2280	0	27.206	0	675.667	0	-1e10	8	-1e10	8	-1E+10	1	-1E+10	1	-1E+10	1	-1E+10	1	-1E+10	1	-1E+10	1
4902554	49	C	06/13/2022	02:01	-134.824	49.476	0	687.60	0	3.7000	0	34.2310	0	27.210	0	680.608	0	-1e10	8	-1e10	8	-1E+10	1	-1E+10	1	-1E+10	1	-1E+10	1	-1E+10	1	-1E+10	1
4902554	49	C	06/13/2022	02:01	-134.824	49.476	0	692.70	0	3.6930	0	34.2320	0	27.211	0	685.648	0	-1e10	8	-1e10	8	-1E+10	1	-1E+10	1	-1E+10	1	-1E+10	1	-1E+10	1	-1E+10	1
4902554	49	C	06/13/2022	02:01	-134.824	49.476	0	697.90	0	3.6870	0	34.2340	0	27.213	0	690.787	0	-1e10	8	-1e10	8	-1E+10	1	-1E+10	1	-1E+10	1	-1E+10	1	-1E+10	1	-1E+10	1
4902554	49	C	06/13/2022	02:01	-134.824	49.476	0	703.00	0	3.6800	0	34.2350	0	27.215	0	695.826	0	-1e10	8	-1e10	8	-1E+10	1	-1E+10	1	-1E+10	1	-1E+10	1	-1E+10	1	-1E+10	1
4902554	49	C	06/13/2022	02:01	-134.824	49.476	0	708.20	0	3.6630	0	34.2400	0	27.221	0	700.964	0	-1e10	8	-1e10	8	-1E+10	1	-1E+10	1	-1E+10	1	-1E+10	1	-1E+10	1	-1E+10	1
4902554	49	C	06/13/2022	02:01	-134.824	49.476	0	712.90	0	3.6510	0	34.2430	0	27.224	0	705.608	0	-1e10	8	-1e10	8	-1E+10	1	-1E+10	1	-1E+10	1	-1E+10	1	-1E+10	1	-1E+10	1
4902554	49	C	06/13/2022	02:01	-134.824	49.476	0	717.90	0	3.6440	0	34.2440	0	27.226	0	710.549	0	-1e10	8	-1e10	8	-1E+10	1	-1E+10	1	-1E+10	1	-1E+10	1	-1E+10	1	-1E+10	1
4902554	49	C	06/13/2022	02:01	-134.824	49.476	0	722.90	0	3.6350	0	34.2460	0	27.228	0	715.489	0	-1e10	8	-1e10	8	-1E+10	1	-1E+10	1	-1E+10	1	-1E+10	1	-1E+10	1	-1E+10	1
4902554	49	C	06/13/2022	02:01	-134.824	49.476	0	727.70	0	3.6280	0	34.2480	0	27.230	0	720.231	0	-1e10	8	-1e10	8	-1E+10	1	-1E+10	1	-1E+10	1	-1E+10	1	-1E+10	1	-1E+10	1
4902554	49	C	06/13/2022	02:01	-134.824	49.476	0	732.60	0	3.6180	0	34.2500	0	27.233	0	725.073	0	-1e10	8	-1e10	8	-1E+10	1	-1E+10	1	-1E+10	1	-1E+10	1	-1E+10	1	-1E+10	1
4902554	49	C	06/13/2022	02:01	-134.824	49.476	0	737.50	0	3.6090	0	34.2530	0	27.236	0	729.914	0	-1e10	8	-1e10	8	-1E+10	1	-1E+10	1	-1E+10	1	-1E+10	1	-1E+10	1	-1E+10	1
4902554	49	C	06/13/2022	02:01	-134.824	49.476	0	742.90	0	3.5980	0	34.2550	0	27.239	0	735.249	0	-1e10	8	-1e10	8	-1E+10	1	-1E+10	1	-1E+10	1	-1E+10	1	-1E+10	1	-1E+10	1
4902554	49	C	06/13/2022	02:01	-134.824	49.476	0	748.30	0	3.5920	0	34.2560	0	27.241	0	740.583	0	-1e10	8	-1e10	8	-1E+10	1	-1E+10	1	-1E+10	1	-1E+10	1	-1E+10	1	-1E+10	1
4902554	49	C	06/13/2022	02:01	-134.824	49.476	0	753.30	0	3.5830	0	34.2570	0	27.242	0	745.523	0	-1e10	8	-1e10	8	-1E+10	1	-1E+10	1	-1E+10	1	-1E+10	1	-1E+10	1	-1E+10	1
4902554	49	C	06/13/2022	02:01	-134.824	49.476	0	758.20	0	3.5610	0	34.2620	0	27.248	0	750.364	0	-1e10	8	-1e10	8	-1E+10	1	-1E+10	1	-1E+10	1	-1E+10	1	-1E+10	1	-1E+10	1
4902554	49	C	06/13/2022	02:01	-134.824	49.476	0	763.20	0	3.5430	0	34.2660	0	27.253	0	755.303	0	-1e10	8	-1e10	8	-1E+10	1	-1E+10	1	-1E+10	1	-1E+10	1	-1E+10	1	-1E+10	1
4902554	49	C	06/13/2022	02:01	-134.824	49.476	0	768.20	0	3.5320	0	34.2690	0	27.257	0	760.242	0	-1e10	8	-1e10	8	-1E+10	1	-1E+10	1	-1E+10	1	-1E+10	1	-1E+10	1	-1E+10	1
4902554	49	C	06/13/2022	02:01	-134.824	49.476	0	772.90	0	3.5200	0	34.2710	0	27.260	0	764.885	0	-1e10	8	-1e10	8	-1E+10	1	-1E+10	1	-1E+10	1	-1E+10	1	-1E+10	1	-1E+10	1
4902554	49	C	06/13/2022	02:01	-134.824	49.476	0	777.50	0	3.5090	0	34.2740	0	27.263	0	769.429	0	-1e10	8	-1e10	8	-1E+10	1	-1E+10	1	-1E+10	1	-1E+10	1	-1E+10	1	-1E+10	1
4902554	49	C	06/13/2022	02:01	-134.824	49.476	0	782.60	0	3.4960	0	34.2780	0	27.268	0	774.466	0	-1e10	8	-1e10	8	-1E+10	1	-1E+10	1	-1E+10	1	-1E+10	1	-1E+10	1	-1E+10	1
4902554	49	C	06/13/2022	02:01	-134.824	49.476	0	787.80	0	3.4820	0	34.2810	0	27.271	0	779.602	0	-1e10	8	-1e10	8	-1E+10	1	-1E+10	1	-1E+10	1	-1E+10	1	-1E+10	1	-1E+10	1
4902554	49	C	06/13/2022	02:01	-134.824	49.476	0	792.80	0	3.4670	0	34.2840	0	27.275	0	784.541	0	-1e10	8	-1e10	8	-1E+10	1	-1E+10	1	-1E+10	1	-1E+10	1	-1E+10	1	-1E+10	1
4902554	49	C	06/13/2022	02:01	-134.824	49.476	0	797.90	0	3.4550	0	34.2870	0	27.279	0	789.578	0	-1e10	8	-1e10	8	-1E+10	1	-1E+10	1	-1E+10	1	-1E+10	1	-1E+10	1	-1E+10	1
4902554	49	C	06/13/2022	02:01	-134.824	49.476	0	803.10	0	3.4490	0	34.2880	0	27.280	0	794.714	0	-1e10	8	-1e10	8	-1E+10	1	-1E+10	1	-1E+10	1	-1E+10	1	-1E+10	1	-1E+10	1
4902554	49	C	06/13/2022	02:01	-134.824	49.476	0	807.90	0	3.4360	0	34.2900	0	27.283	0	799.455	0	-1e10	8	-1e10	8	-1E+10	1	-1E+10	1	-1E+10	1	-1E+10	1	-1E+10	1	-1E+10	1
4902554	49	C	06/13/2022	02:01	-134.824	49.476	0	812.80	0	3.4240	0	34.2920	0	27.286	0	804.294	0	-1e10	8	-1e10	8	-1E+10	1	-1E+10	1	-1E+10	1	-1E+10	1	-1E+10	1	-1E+10	1
4902554	49	C	06/13/2022	02:01	-134.824	49.476	0	817.70	0	3.4120	0	34.2950	0	27.289	0	809.133	0	-1e10	8	-1e10	8	-1E+10	1	-1E+10	1	-1E+10	1	-1E+10	1	-1E+10	1	-1E+10	1
4902554	49	C	06/13/2022	02:01	-134.824	49.476	0	822.70	0	3.4050	0	34.2960	0	27.291	0	814.071	0	-1e10	8	-1e10	8	-1E+10	1	-1E+10	1	-1E+10	1	-1E+10	1	-1E+10	1	-1E+10	1
4902554	49	C	06/13/2022	02:01	-134.824	49.476	0	827.80	0	3.3950	0	34.2980	0	27.293	0	819.108	0	-1e10	8	-1e10	8	-1E+10	1	-1E+10	1	-1E+10	1	-1E+10	1	-1E+10	1	-1E+10	1
4902554	49	C	06/13/2022	02:01	-134.824	49.476	0	832.90	0	3.3880	0	34.3000	0	27.296	0	824.144	0	-1e10	8	-1e10	8	-1E+10	1	-1E+10	1	-1E+10	1	-1E+10	1	-1E+10	1	-1E+10	1
4902554	49	C	06/13/2022	02:01	-134.824	49.476	0	838.00	0	3.3740	0	34.3030	0	27.299	0	829.180	0	-1e10	8	-1e10	8	-1E+10	1	-1E+10	1	-1E+10	1	-1E+10	1	-1E+10	1	-1E+10	1
4902554	49	C	06/13/2022	02:01	-134.824	49.476	0	842.70	0	3.3610	0	34.3060	0	27.303	0	833.822	0	-1e10	8	-1e10	8	-1E+10	1	-1E+10	1	-1E+10	1	-1E+10	1	-1E+10	1	-1E+10	1
4902554	49	C	06/13/2022	02:01	-134.824	49.476	0	847.90	0	3.3470	0	34.3080	0	27.306	0	838.956	0	-1e10	8	-1e10	8	-1E+10	1	-1E+10	1	-1E+10	1	-1E+10	1	-1E+10	1	-1E+10	1
4902554	49	C	06/13/2022	02:01	-134.824	49.476	0	853.20	0	3.3350	0	34.3110	0	27.310	0	844.190	0	-1e10	8	-1e10	8	-1E+10	1	-1E+10	1	-1E+10	1	-1E+10	1	-1E+10	1	-1E+10	1
4902554	49	C	06/13/2022	02:01	-134.824	49.476	0	858.20	0	3.3210	0	34.3140	0	27.313	0	849.127	0	-1e10	8	-1e10	8	-1E+10	1	-1E+10	1	-1E+10	1	-1E+10	1	-1E+10	1	-1E+10	1
4902554	49	C	06/13/2022	02:01	-134.824	49.476	0	863.10	0	3.3080	0	34.3160	0	27.316	0	853.965	0	-1e10	8	-1e10	8	-1E+10	1	-1E+10	1	-1E+10	1	-1E+10	1	-1E+10	1	-1E+10	1
4902554	49	C	06/13/2022	02:01	-134.824	49.476	0	868.10	0	3.2920	0	34.3180	0	27.319	0	858.902	0	-1e10	8	-1e10	8	-1E+10	1	-1E+10	1	-1E+10	1	-1E+10	1	-1E+10	1	-1E+10	1
4902554	49	C	06/13/2022	02:01	-134.824	49.476	0	873.10	0	3.2840	0	34.3210	0	27.322	0	863.839	0	-1e10	8	-1e10	8	-1E+10	1	-1E+10	1	-1E+10	1	-1E+10	1	-1E+10	1	-1E+10	1
4902554	49	C	06/13/2022	02:01	-134.824	49.476	0	878.20	0	3.2760	0	34.3210	0	27.323	0	868.874	0	-1e10	8	-1e10	8	-1E+10	1	-1E+10	1	-1E+10	1	-1E+10	1	-1E+10	1	-1E+10	1
4902554	49	C	06/13/2022	02:01	-134.824	49.476	0	883.20	0	3.2570	0	34.3250	0	27.328	0	873.810	0	-1e10	8	-1e10	8	-1E+10	1	-1E+10	1	-1E+10	1	-1E+10	1	-1E+10	1	-1E+10	1
4902554	49	C	06/13/2022	02:01	-134.824	49.476	0	888.30	0	3.2390	0	34.3280	0	27.332	0	878.845	0	-1e10	8	-1e10	8	-1E+10	1	-1E+10	1	-1E+10	1	-1E+10	1	-1E+10	1	-1E+10	1
4902554	49	C	06/13/2022	02:01	-134.824	49.476	0	893.00	0	3.2290	0	34.3290	0	27.334	0	883.485	0	-1e10	8	-1e10	8	-1E+10	1	-1E+10	1	-1E+10	1	-1E+10	1	-1E+10	1	-1E+10	1
4902554	49	C	06/13/2022	02:01	-134.824	49.476	0	897.60	0	3.2220	0	34.3310	0	27.336	0	888.027	0	-1e10	8	-1e10	8	-1E+10	1	-1E+10	1	-1E+10	1	-1E+10	1	-1E+10	1	-1E+10	1
4902554	49	C	06/13/2022	02:01	-134.824	49.476	0	902.70	0	3.2160	0	34.3320	0	27.338	0	893.061	0	-1e10	8	-1e10	8	-1E+10	1	-1E+10	1	-1E+10	1	-1E+10	1	-1E+10	1	-1E+10	1
4902554	49	C	06/13/2022	02:01	-134.824	49.476	0	908.00	0	3.2010	0	34.3330	0	27.340	0	898.293	0	-1e10	8	-1e10	8	-1E+10	1	-1E+10	1	-1E+10	1	-1E+10	1	-1E+10	1	-1E+10	1
4902554	49	C	06/13/2022	02:01	-134.824	49.476	0	913.20	0	3.1980	0	34.3350	0	27.342	0	903.427	0	-1e10	8	-1e10	8	-1E+10	1	-1E+10	1	-1E+10	1	-1E+10	1	-1E+10	1	-1E+10	1
4902554	49	C	06/13/2022	02:01	-134.824	49.476	0	918.10	0	3.1890	0	34.3360	0	27.344	0	908.264	0	-1e10	8	-1e10	8	-1E+10	1	-1E+10	1	-1E+10	1	-1E+10	1	-1E+10	1	-1E+10	1
4902554	49	C	06/13/2022	02:01	-134.824	49.476	0	923.00	0	3.1780	0	34.3380	0	27.346	0	913.100	0	-1e10	8	-1e10	8	-1E+10	1	-1E+10	1	-1E+10	1	-1E+10	1	-1E+10	1	-1E+10	1
4902554	49	C	06/13/2022	02:01	-134.824	49.476	0	928.00	0	3.1650	0	34.3410	0	27.350	0	918.036	0	-1e10	8	-1e10	8	-1E+10	1	-1E+10	1	-1E+10	1	-1E+10	1	-1E+10	1	-1E+10	1
4902554	49	C	06/13/2022	02:01	-134.824	49.476	0	932.90	0	3.1600	0	34.3420	0	27.351	0	922.872	0	-1e10	8	-1e10	8	-1E+10	1	-1E+10	1	-1E+10	1	-1E+10	1	-1E+10	1	-1E+10	1
4902554	49	C	06/13/2022	02:01	-134.824	49.476	0	938.00	0	3.1550	0	34.3420	0	27.352	0	927.906	0	-1e10	8	-1e10	8	-1E+10	1	-1E+10	1	-1E+10	1	-1E+10	1	-1E+10	1	-1E+10	1
4902554	49	C	06/13/2022	02:01	-134.824	49.476	0	943.10	0	3.1430	0	34.3440	0	27.354	0	932.940	0	-1e10	8	-1e10	8	-1E+10	1	-1E+10	1	-1E+10	1	-1E+10	1	-1E+10	1	-1E+10	1
4902554	49	C	06/13/2022	02:01	-134.824	49.476	0	948.20	0	3.1330	0	34.3460	0	27.357	0	937.974	0	-1e10	8	-1e10	8	-1E+10	1	-1E+10	1	-1E+10	1	-1E+10	1	-1E+10	1	-1E+10	1
4902554	49	C	06/13/2022	02:01	-134.824	49.476	0	953.00	0	3.1220	0	34.3480	0	27.359	0	942.711	0	-1e10	8	-1e10	8	-1E+10	1	-1E+10	1	-1E+10	1	-1E+10	1	-1E+10	1	-1E+10	1
4902554	49	C	06/13/2022	02:01	-134.824	49.476	0	957.90	0	3.1110	0	34.3510	0	27.363	0	947.547	0	-1e10	8	-1e10	8	-1E+10	1	-1E+10	1	-1E+10	1	-1E+10	1	-1E+10	1	-1E+10	1
4902554	49	C	06/13/2022	02:01	-134.824	49.476	0	962.80	0	3.1040	0	34.3520	0	27.364	0	952.383	0	-1e10	8	-1e10	8	-1E+10	1	-1E+10	1	-1E+10	1	-1E+10	1	-1E+10	1	-1E+10	1
4902554	49	C	06/13/2022	02:01	-134.824	49.476	0	967.70	0	3.0970	0	34.3530	0	27.366	0	957.219	0	-1e10	8	-1e10	8	-1E+10	1	-1E+10	1	-1E+10	1	-1E+10	1	-1E+10	1	-1E+10	1
4902554	49	C	06/13/2022	02:01	-134.824	49.476	0	973.00	0	3.0930	0	34.3540	0	27.367	0	962.449	0	-1e10	8	-1e10	8	-1E+10	1	-1E+10	1	-1E+10	1	-1E+10	1	-1E+10	1	-1E+10	1
4902554	49	C	06/13/2022	02:01	-134.824	49.476	0	978.00	0	3.0880	0	34.3550	0	27.368	0	967.384	0	-1e10	8	-1e10	8	-1E+10	1	-1E+10	1	-1E+10	1	-1E+10	1	-1E+10	1	-1E+10	1
4902554	49	C	06/13/2022	02:01	-134.824	49.476	0	982.90	0	3.0840	0	34.3560	0	27.370	0	972.219	0	-1e10	8	-1e10	8	-1E+10	1	-1E+10	1	-1E+10	1	-1E+10	1	-1E+10	1	-1E+10	1
4902554	49	C	06/13/2022	02:01	-134.824	49.476	0	987.90	0	3.0830	0	34.3570	0	27.370	0	977.153	0	-1e10	8	-1e10	8	-1E+10	1	-1E+10	1	-1E+10	1	-1E+10	1	-1E+10	1	-1E+10	1
4902554	49	C	06/13/2022	02:01	-134.824	49.476	0	993.00	0	3.0740	0	34.3580	0	27.372	0	982.186	0	-1e10	8	-1e10	8	-1E+10	1	-1E+10	1	-1E+10	1	-1E+10	1	-1E+10	1	-1E+10	1
4902554	49	C	06/13/2022	02:01	-134.824	49.476	0	998.10	0	3.0590	0	34.3610	0	27.376	0	987.218	0	-1e10	8	-1e10	8	-1E+10	1	-1E+10	1	-1E+10	1	-1E+10	1	-1E+10	1	-1E+10	1
4902554	49	C	06/13/2022	02:01	-134.824	49.476	0	1005.30	0	3.0510	0	34.3630	0	27.378	0	994.322	0	-1e10	8	-1e10	8	-1E+10	1	-1E+10	1	-1E+10	1	-1E+10	1	-1E+10	1	-1E+10	1
4902554	49	C	06/13/2022	02:01	-134.824	49.476	0	1015.10	0	3.0310	0	34.3670	0	27.383	0	1003.992	0	-1e10	8	-1e10	8	-1E+10	1	-1E+10	1	-1E+10	1	-1E+10	1	-1E+10	1	-1E+10	1
4902554	49	C	06/13/2022	02:01	-134.824	49.476	0	1025.40	0	3.0100	0	34.3720	0	27.389	0	1014.154	0	-1e10	8	-1e10	8	-1E+10	1	-1E+10	1	-1E+10	1	-1E+10	1	-1E+10	1	-1E+10	1
4902554	49	C	06/13/2022	02:01	-134.824	49.476	0	1035.80	0	2.9880	0	34.3760	0	27.394	0	1024.415	0	-1e10	8	-1e10	8	-1E+10	1	-1E+10	1	-1E+10	1	-1E+10	1	-1E+10	1	-1E+10	1
4902554	49	C	06/13/2022	02:01	-134.824	49.476	0	1045.70	0	2.9710	0	34.3800	0	27.399	0	1034.182	0	-1e10	8	-1e10	8	-1E+10	1	-1E+10	1	-1E+10	1	-1E+10	1	-1E+10	1	-1E+10	1
4902554	49	C	06/13/2022	02:01	-134.824	49.476	0	1055.30	0	2.9600	0	34.3830	0	27.403	0	1043.652	0	-1e10	8	-1e10	8	-1E+10	1	-1E+10	1	-1E+10	1	-1E+10	1	-1E+10	1	-1E+10	1
4902554	49	C	06/13/2022	02:01	-134.824	49.476	0	1065.60	0	2.9420	0	34.3870	0	27.408	0	1053.813	0	-1e10	8	-1e10	8	-1E+10	1	-1E+10	1	-1E+10	1	-1E+10	1	-1E+10	1	-1E+10	1
4902554	49	C	06/13/2022	02:01	-134.824	49.476	0	1075.60	0	2.9310	0	34.3890	0	27.410	0	1063.677	0	-1e10	8	-1e10	8	-1E+10	1	-1E+10	1	-1E+10	1	-1E+10	1	-1E+10	1	-1E+10	1
4902554	49	C	06/13/2022	02:01	-134.824	49.476	0	1085.40	0	2.9210	0	34.3910	0	27.413	0	1073.343	0	-1e10	8	-1e10	8	-1E+10	1	-1E+10	1	-1E+10	1	-1E+10	1	-1E+10	1	-1E+10	1
4902554	49	C	06/13/2022	02:01	-134.824	49.476	0	1095.40	0	2.9040	0	34.3950	0	27.418	0	1083.206	0	-1e10	8	-1e10	8	-1E+10	1	-1E+10	1	-1E+10	1	-1E+10	1	-1E+10	1	-1E+10	1
4902554	49	C	06/13/2022	02:01	-134.824	49.476	0	1105.20	0	2.8880	0	34.3980	0	27.421	0	1092.871	0	-1e10	8	-1e10	8	-1E+10	1	-1E+10	1	-1E+10	1	-1E+10	1	-1E+10	1	-1E+10	1
4902554	49	C	06/13/2022	02:01	-134.824	49.476	0	1115.40	0	2.8690	0	34.4020	0	27.426	0	1102.931	0	-1e10	8	-1e10	8	-1E+10	1	-1E+10	1	-1E+10	1	-1E+10	1	-1E+10	1	-1E+10	1
4902554	49	C	06/13/2022	02:01	-134.824	49.476	0	1125.40	0	2.8610	0	34.4050	0	27.429	0	1112.793	0	-1e10	8	-1e10	8	-1E+10	1	-1E+10	1	-1E+10	1	-1E+10	1	-1E+10	1	-1E+10	1
4902554	49	C	06/13/2022	02:01	-134.824	49.476	0	1135.10	0	2.8500	0	34.4070	0	27.432	0	1122.358	0	-1e10	8	-1e10	8	-1E+10	1	-1E+10	1	-1E+10	1	-1E+10	1	-1E+10	1	-1E+10	1
4902554	49	C	06/13/2022	02:01	-134.824	49.476	0	1145.30	0	2.8320	0	34.4110	0	27.437	0	1132.416	0	-1e10	8	-1e10	8	-1E+10	1	-1E+10	1	-1E+10	1	-1E+10	1	-1E+10	1	-1E+10	1
4902554	49	C	06/13/2022	02:01	-134.824	49.476	0	1155.20	0	2.8160	0	34.4140	0	27.441	0	1142.178	0	-1e10	8	-1e10	8	-1E+10	1	-1E+10	1	-1E+10	1	-1E+10	1	-1E+10	1	-1E+10	1
4902554	49	C	06/13/2022	02:01	-134.824	49.476	0	1165.10	0	2.8010	0	34.4190	0	27.446	0	1151.939	0	-1e10	8	-1e10	8	-1E+10	1	-1E+10	1	-1E+10	1	-1E+10	1	-1E+10	1	-1E+10	1
4902554	49	C	06/13/2022	02:01	-134.824	49.476	0	1175.10	0	2.7810	0	34.4230	0	27.451	0	1161.798	0	-1e10	8	-1e10	8	-1E+10	1	-1E+10	1	-1E+10	1	-1E+10	1	-1E+10	1	-1E+10	1
4902554	49	C	06/13/2022	02:01	-134.824	49.476	0	1185.10	0	2.7620	0	34.4260	0	27.455	0	1171.657	0	-1e10	8	-1e10	8	-1E+10	1	-1E+10	1	-1E+10	1	-1E+10	1	-1E+10	1	-1E+10	1
4902554	49	C	06/13/2022	02:01	-134.824	49.476	0	1195.20	0	2.7500	0	34.4280	0	27.458	0	1181.614	0	-1e10	8	-1e10	8	-1E+10	1	-1E+10	1	-1E+10	1	-1E+10	1	-1E+10	1	-1E+10	1
4902554	49	C	06/13/2022	02:01	-134.824	49.476	0	1205.40	0	2.7300	0	34.4310	0	27.462	0	1191.670	0	-1e10	8	-1e10	8	-1E+10	1	-1E+10	1	-1E+10	1	-1E+10	1	-1E+10	1	-1E+10	1
4902554	49	C	06/13/2022	02:01	-134.824	49.476	0	1215.50	0	2.7140	0	34.4340	0	27.466	0	1201.626	0	-1e10	8	-1e10	8	-1E+10	1	-1E+10	1	-1E+10	1	-1E+10	1	-1E+10	1	-1E+10	1
4902554	49	C	06/13/2022	02:01	-134.824	49.476	0	1225.60	0	2.7030	0	34.4350	0	27.468	0	1211.581	0	-1e10	8	-1e10	8	-1E+10	1	-1E+10	1	-1E+10	1	-1E+10	1	-1E+10	1	-1E+10	1
4902554	49	C	06/13/2022	02:01	-134.824	49.476	0	1235.40	0	2.6910	0	34.4380	0	27.471	0	1221.241	0	-1e10	8	-1e10	8	-1E+10	1	-1E+10	1	-1E+10	1	-1E+10	1	-1E+10	1	-1E+10	1
4902554	49	C	06/13/2022	02:01	-134.824	49.476	0	1245.20	0	2.6810	0	34.4400	0	27.474	0	1230.900	0	-1e10	8	-1e10	8	-1E+10	1	-1E+10	1	-1E+10	1	-1E+10	1	-1E+10	1	-1E+10	1
4902554	49	C	06/13/2022	02:01	-134.824	49.476	0	1255.50	0	2.6650	0	34.4430	0	27.478	0	1241.051	0	-1e10	8	-1e10	8	-1E+10	1	-1E+10	1	-1E+10	1	-1E+10	1	-1E+10	1	-1E+10	1
4902554	49	C	06/13/2022	02:01	-134.824	49.476	0	1265.50	0	2.6490	0	34.4450	0	27.481	0	1250.907	0	-1e10	8	-1e10	8	-1E+10	1	-1E+10	1	-1E+10	1	-1E+10	1	-1E+10	1	-1E+10	1
4902554	49	C	06/13/2022	02:01	-134.824	49.476	0	1275.10	0	2.6420	0	34.4470	0	27.483	0	1260.367	0	-1e10	8	-1e10	8	-1E+10	1	-1E+10	1	-1E+10	1	-1E+10	1	-1E+10	1	-1E+10	1
4902554	49	C	06/13/2022	02:01	-134.824	49.476	0	1285.20	0	2.6320	0	34.4480	0	27.485	0	1270.320	0	-1e10	8	-1e10	8	-1E+10	1	-1E+10	1	-1E+10	1	-1E+10	1	-1E+10	1	-1E+10	1
4902554	49	C	06/13/2022	02:01	-134.824	49.476	0	1295.60	0	2.6110	0	34.4530	0	27.490	0	1280.568	0	-1e10	8	-1e10	8	-1E+10	1	-1E+10	1	-1E+10	1	-1E+10	1	-1E+10	1	-1E+10	1
4902554	49	C	06/13/2022	02:01	-134.824	49.476	0	1305.70	0	2.5980	0	34.4550	0	27.493	0	1290.520	0	-1e10	8	-1e10	8	-1E+10	1	-1E+10	1	-1E+10	1	-1E+10	1	-1E+10	1	-1E+10	1
4902554	49	C	06/13/2022	02:01	-134.824	49.476	0	1315.90	0	2.5910	0	34.4570	0	27.496	0	1300.570	0	-1e10	8	-1e10	8	-1E+10	1	-1E+10	1	-1E+10	1	-1E+10	1	-1E+10	1	-1E+10	1
4902554	49	C	06/13/2022	02:01	-134.824	49.476	0	1325.50	0	2.5780	0	34.4590	0	27.498	0	1310.028	0	-1e10	8	-1e10	8	-1E+10	1	-1E+10	1	-1E+10	1	-1E+10	1	-1E+10	1	-1E+10	1
4902554	49	C	06/13/2022	02:01	-134.824	49.476	0	1335.30	0	2.5680	0	34.4610	0	27.501	0	1319.683	0	-1e10	8	-1e10	8	-1E+10	1	-1E+10	1	-1E+10	1	-1E+10	1	-1E+10	1	-1E+10	1
4902554	49	C	06/13/2022	02:01	-134.824	49.476	0	1345.20	0	2.5500	0	34.4640	0	27.505	0	1329.436	0	-1e10	8	-1e10	8	-1E+10	1	-1E+10	1	-1E+10	1	-1E+10	1	-1E+10	1	-1E+10	1
4902554	49	C	06/13/2022	02:01	-134.824	49.476	0	1355.40	0	2.5370	0	34.4670	0	27.508	0	1339.484	0	-1e10	8	-1e10	8	-1E+10	1	-1E+10	1	-1E+10	1	-1E+10	1	-1E+10	1	-1E+10	1
4902554	49	C	06/13/2022	02:01	-134.824	49.476	0	1365.30	0	2.5210	0	34.4690	0	27.511	0	1349.236	0	-1e10	8	-1e10	8	-1E+10	1	-1E+10	1	-1E+10	1	-1E+10	1	-1E+10	1	-1E+10	1
4902554	49	C	06/13/2022	02:01	-134.824	49.476	0	1375.30	0	2.5080	0	34.4720	0	27.515	0	1359.086	0	-1e10	8	-1e10	8	-1E+10	1	-1E+10	1	-1E+10	1	-1E+10	1	-1E+10	1	-1E+10	1
4902554	49	C	06/13/2022	02:01	-134.824	49.476	0	1385.60	0	2.4920	0	34.4740	0	27.518	0	1369.231	0	-1e10	8	-1e10	8	-1E+10	1	-1E+10	1	-1E+10	1	-1E+10	1	-1E+10	1	-1E+10	1
4902554	49	C	06/13/2022	02:01	-134.824	49.476	0	1395.60	0	2.4820	0	34.4760	0	27.520	0	1379.081	0	-1e10	8	-1e10	8	-1E+10	1	-1E+10	1	-1E+10	1	-1E+10	1	-1E+10	1	-1E+10	1
4902554	49	C	06/13/2022	02:01	-134.824	49.476	0	1405.10	0	2.4680	0	34.4790	0	27.524	0	1388.437	0	-1e10	8	-1e10	8	-1E+10	1	-1E+10	1	-1E+10	1	-1E+10	1	-1E+10	1	-1E+10	1
4902554	49	C	06/13/2022	02:01	-134.824	49.476	0	1415.20	0	2.4560	0	34.4810	0	27.527	0	1398.384	0	-1e10	8	-1e10	8	-1E+10	1	-1E+10	1	-1E+10	1	-1E+10	1	-1E+10	1	-1E+10	1
4902554	49	C	06/13/2022	02:01	-134.824	49.476	0	1425.40	0	2.4420	0	34.4840	0	27.530	0	1408.429	0	-1e10	8	-1e10	8	-1E+10	1	-1E+10	1	-1E+10	1	-1E+10	1	-1E+10	1	-1E+10	1
4902554	49	C	06/13/2022	02:01	-134.824	49.476	0	1435.60	0	2.4250	0	34.4860	0	27.533	0	1418.473	0	-1e10	8	-1e10	8	-1E+10	1	-1E+10	1	-1E+10	1	-1E+10	1	-1E+10	1	-1E+10	1
4902554	49	C	06/13/2022	02:01	-134.824	49.476	0	1445.70	0	2.4130	0	34.4890	0	27.537	0	1428.418	0	-1e10	8	-1e10	8	-1E+10	1	-1E+10	1	-1E+10	1	-1E+10	1	-1E+10	1	-1E+10	1
4902554	49	C	06/13/2022	02:01	-134.824	49.476	0	1455.50	0	2.4040	0	34.4900	0	27.538	0	1438.068	0	-1e10	8	-1e10	8	-1E+10	1	-1E+10	1	-1E+10	1	-1E+10	1	-1E+10	1	-1E+10	1
4902554	49	C	06/13/2022	02:01	-134.824	49.476	0	1465.50	0	2.4000	0	34.4910	0	27.540	0	1447.914	0	-1e10	8	-1e10	8	-1E+10	1	-1E+10	1	-1E+10	1	-1E+10	1	-1E+10	1	-1E+10	1
4902554	49	C	06/13/2022	02:01	-134.824	49.476	0	1475.60	0	2.3920	0	34.4920	0	27.541	0	1457.858	0	-1e10	8	-1e10	8	-1E+10	1	-1E+10	1	-1E+10	1	-1E+10	1	-1E+10	1	-1E+10	1
4902554	49	C	06/13/2022	02:01	-134.824	49.476	0	1485.40	0	2.3870	0	34.4930	0	27.542	0	1467.506	0	-1e10	8	-1e10	8	-1E+10	1	-1E+10	1	-1E+10	1	-1E+10	1	-1E+10	1	-1E+10	1
4902554	49	C	06/13/2022	02:01	-134.824	49.476	0	1495.00	0	2.3840	0	34.4940	0	27.543	0	1476.957	0	-1e10	8	-1e10	8	-1E+10	1	-1E+10	1	-1E+10	1	-1E+10	1	-1E+10	1	-1E+10	1
4902554	49	C	06/13/2022	02:01	-134.824	49.476	0	1505.40	0	2.3710	0	34.4970	0	27.547	0	1487.195	0	-1e10	8	-1e10	8	-1E+10	1	-1E+10	1	-1E+10	1	-1E+10	1	-1E+10	1	-1E+10	1
4902554	49	C	06/13/2022	02:01	-134.824	49.476	0	1515.90	0	2.3590	0	34.4990	0	27.550	0	1497.530	0	-1e10	8	-1e10	8	-1E+10	1	-1E+10	1	-1E+10	1	-1E+10	1	-1E+10	1	-1E+10	1
4902554	49	C	06/13/2022	02:01	-134.824	49.476	0	1525.40	0	2.3460	0	34.5010	0	27.552	0	1506.881	0	-1e10	8	-1e10	8	-1E+10	1	-1E+10	1	-1E+10	1	-1E+10	1	-1E+10	1	-1E+10	1
4902554	49	C	06/13/2022	02:01	-134.824	49.476	0	1535.00	0	2.3310	0	34.5040	0	27.556	0	1516.330	0	-1e10	8	-1e10	8	-1E+10	1	-1E+10	1	-1E+10	1	-1E+10	1	-1E+10	1	-1E+10	1
4902554	49	C	06/13/2022	02:01	-134.824	49.476	0	1545.60	0	2.3220	0	34.5060	0	27.558	0	1526.763	0	-1e10	8	-1e10	8	-1E+10	1	-1E+10	1	-1E+10	1	-1E+10	1	-1E+10	1	-1E+10	1
4902554	49	C	06/13/2022	02:01	-134.824	49.476	0	1555.40	0	2.3120	0	34.5080	0	27.561	0	1536.408	0	-1e10	8	-1e10	8	-1E+10	1	-1E+10	1	-1E+10	1	-1E+10	1	-1E+10	1	-1E+10	1
4902554	49	C	06/13/2022	02:01	-134.824	49.476	0	1565.30	0	2.3000	0	34.5100	0	27.563	0	1546.151	0	-1e10	8	-1e10	8	-1E+10	1	-1E+10	1	-1E+10	1	-1E+10	1	-1E+10	1	-1E+10	1
4902554	49	C	06/13/2022	02:01	-134.824	49.476	0	1575.30	0	2.2930	0	34.5120	0	27.566	0	1555.992	0	-1e10	8	-1e10	8	-1E+10	1	-1E+10	1	-1E+10	1	-1E+10	1	-1E+10	1	-1E+10	1
4902554	49	C	06/13/2022	02:01	-134.824	49.476	0	1585.50	0	2.2860	0	34.5130	0	27.567	0	1566.029	0	-1e10	8	-1e10	8	-1E+10	1	-1E+10	1	-1E+10	1	-1E+10	1	-1E+10	1	-1E+10	1
4902554	49	C	06/13/2022	02:01	-134.824	49.476	0	1595.60	0	2.2740	0	34.5150	0	27.570	0	1575.968	0	-1e10	8	-1e10	8	-1E+10	1	-1E+10	1	-1E+10	1	-1E+10	1	-1E+10	1	-1E+10	1
4902554	49	C	06/13/2022	02:01	-134.824	49.476	0	1605.50	0	2.2640	0	34.5180	0	27.573	0	1585.709	0	-1e10	8	-1e10	8	-1E+10	1	-1E+10	1	-1E+10	1	-1E+10	1	-1E+10	1	-1E+10	1
4902554	49	C	06/13/2022	02:01	-134.824	49.476	0	1615.50	0	2.2560	0	34.5190	0	27.575	0	1595.548	0	-1e10	8	-1e10	8	-1E+10	1	-1E+10	1	-1E+10	1	-1E+10	1	-1E+10	1	-1E+10	1
4902554	49	C	06/13/2022	02:01	-134.824	49.476	0	1625.50	0	2.2460	0	34.5210	0	27.577	0	1605.387	0	-1e10	8	-1e10	8	-1E+10	1	-1E+10	1	-1E+10	1	-1E+10	1	-1E+10	1	-1E+10	1
4902554	49	C	06/13/2022	02:01	-134.824	49.476	0	1635.40	0	2.2370	0	34.5230	0	27.579	0	1615.126	0	-1e10	8	-1e10	8	-1E+10	1	-1E+10	1	-1E+10	1	-1E+10	1	-1E+10	1	-1E+10	1
4902554	49	C	06/13/2022	02:01	-134.824	49.476	0	1645.30	0	2.2300	0	34.5240	0	27.581	0	1624.866	0	-1e10	8	-1e10	8	-1E+10	1	-1E+10	1	-1E+10	1	-1E+10	1	-1E+10	1	-1E+10	1
4902554	49	C	06/13/2022	02:01	-134.824	49.476	0	1655.30	0	2.2210	0	34.5270	0	27.584	0	1634.703	0	-1e10	8	-1e10	8	-1E+10	1	-1E+10	1	-1E+10	1	-1E+10	1	-1E+10	1	-1E+10	1
4902554	49	C	06/13/2022	02:01	-134.824	49.476	0	1665.40	0	2.2120	0	34.5290	0	27.586	0	1644.638	0	-1e10	8	-1e10	8	-1E+10	1	-1E+10	1	-1E+10	1	-1E+10	1	-1E+10	1	-1E+10	1
4902554	49	C	06/13/2022	02:01	-134.824	49.476	0	1675.70	0	2.2010	0	34.5310	0	27.589	0	1654.770	0	-1e10	8	-1e10	8	-1E+10	1	-1E+10	1	-1E+10	1	-1E+10	1	-1E+10	1	-1E+10	1
4902554	49	C	06/13/2022	02:01	-134.824	49.476	0	1685.50	0	2.1890	0	34.5330	0	27.592	0	1664.409	0	-1e10	8	-1e10	8	-1E+10	1	-1E+10	1	-1E+10	1	-1E+10	1	-1E+10	1	-1E+10	1
4902554	49	C	06/13/2022	02:01	-134.824	49.476	0	1695.30	0	2.1730	0	34.5360	0	27.595	0	1674.048	0	-1e10	8	-1e10	8	-1E+10	1	-1E+10	1	-1E+10	1	-1E+10	1	-1E+10	1	-1E+10	1
4902554	49	C	06/13/2022	02:01	-134.824	49.476	0	1705.30	0	2.1620	0	34.5380	0	27.598	0	1683.882	0	-1e10	8	-1e10	8	-1E+10	1	-1E+10	1	-1E+10	1	-1E+10	1	-1E+10	1	-1E+10	1
4902554	49	C	06/13/2022	02:01	-134.824	49.476	0	1715.40	0	2.1500	0	34.5410	0	27.601	0	1693.815	0	-1e10	8	-1e10	8	-1E+10	1	-1E+10	1	-1E+10	1	-1E+10	1	-1E+10	1	-1E+10	1
4902554	49	C	06/13/2022	02:01	-134.824	49.476	0	1725.50	0	2.1420	0	34.5420	0	27.603	0	1703.748	0	-1e10	8	-1e10	8	-1E+10	1	-1E+10	1	-1E+10	1	-1E+10	1	-1E+10	1	-1E+10	1
4902554	49	C	06/13/2022	02:01	-134.824	49.476	0	1735.70	0	2.1360	0	34.5440	0	27.605	0	1713.778	0	-1e10	8	-1e10	8	-1E+10	1	-1E+10	1	-1E+10	1	-1E+10	1	-1E+10	1	-1E+10	1
4902554	49	C	06/13/2022	02:01	-134.824	49.476	0	1745.90	0	2.1270	0	34.5450	0	27.606	0	1723.808	0	-1e10	8	-1e10	8	-1E+10	1	-1E+10	1	-1E+10	1	-1E+10	1	-1E+10	1	-1E+10	1
4902554	49	C	06/13/2022	02:01	-134.824	49.476	0	1755.60	0	2.1150	0	34.5480	0	27.610	0	1733.345	0	-1e10	8	-1e10	8	-1E+10	1	-1E+10	1	-1E+10	1	-1E+10	1	-1E+10	1	-1E+10	1
4902554	49	C	06/13/2022	02:01	-134.824	49.476	0	1765.50	0	2.1050	0	34.5500	0	27.612	0	1743.079	0	-1e10	8	-1e10	8	-1E+10	1	-1E+10	1	-1E+10	1	-1E+10	1	-1E+10	1	-1E+10	1
4902554	49	C	06/13/2022	02:01	-134.824	49.476	0	1775.30	0	2.0940	0	34.5520	0	27.615	0	1752.714	0	-1e10	8	-1e10	8	-1E+10	1	-1E+10	1	-1E+10	1	-1E+10	1	-1E+10	1	-1E+10	1
4902554	49	C	06/13/2022	02:01	-134.824	49.476	0	1785.30	0	2.0860	0	34.5540	0	27.617	0	1762.546	0	-1e10	8	-1e10	8	-1E+10	1	-1E+10	1	-1E+10	1	-1E+10	1	-1E+10	1	-1E+10	1
4902554	49	C	06/13/2022	02:01	-134.824	49.476	0	1795.60	0	2.0800	0	34.5550	0	27.618	0	1772.671	0	-1e10	8	-1e10	8	-1E+10	1	-1E+10	1	-1E+10	1	-1E+10	1	-1E+10	1	-1E+10	1
4902554	49	C	06/13/2022	02:01	-134.824	49.476	0	1805.60	0	2.0770	0	34.5560	0	27.619	0	1782.502	0	-1e10	8	-1e10	8	-1E+10	1	-1E+10	1	-1E+10	1	-1E+10	1	-1E+10	1	-1E+10	1
4902554	49	C	06/13/2022	02:01	-134.824	49.476	0	1815.60	0	2.0730	0	34.5570	0	27.621	0	1792.332	0	-1e10	8	-1e10	8	-1E+10	1	-1E+10	1	-1E+10	1	-1E+10	1	-1E+10	1	-1E+10	1
4902554	49	C	06/13/2022	02:01	-134.824	49.476	0	1825.50	0	2.0660	0	34.5580	0	27.622	0	1802.063	0	-1e10	8	-1e10	8	-1E+10	1	-1E+10	1	-1E+10	1	-1E+10	1	-1E+10	1	-1E+10	1
4902554	49	C	06/13/2022	02:01	-134.824	49.476	0	1835.90	0	2.0590	0	34.5600	0	27.624	0	1812.285	0	-1e10	8	-1e10	8	-1E+10	1	-1E+10	1	-1E+10	1	-1E+10	1	-1E+10	1	-1E+10	1
4902554	49	C	06/13/2022	02:01	-134.824	49.476	0	1845.30	0	2.0490	0	34.5610	0	27.626	0	1821.524	0	-1e10	8	-1e10	8	-1E+10	1	-1E+10	1	-1E+10	1	-1E+10	1	-1E+10	1	-1E+10	1
4902554	49	C	06/13/2022	02:01	-134.824	49.476	0	1855.40	0	2.0440	0	34.5620	0	27.627	0	1831.450	0	-1e10	8	-1e10	8	-1E+10	1	-1E+10	1	-1E+10	1	-1E+10	1	-1E+10	1	-1E+10	1
4902554	49	C	06/13/2022	02:01	-134.824	49.476	0	1865.30	0	2.0340	0	34.5640	0	27.630	0	1841.180	0	-1e10	8	-1e10	8	-1E+10	1	-1E+10	1	-1E+10	1	-1E+10	1	-1E+10	1	-1E+10	1
4902554	49	C	06/13/2022	02:01	-134.824	49.476	0	1875.10	0	2.0250	0	34.5660	0	27.632	0	1850.810	0	-1e10	8	-1e10	8	-1E+10	1	-1E+10	1	-1E+10	1	-1E+10	1	-1E+10	1	-1E+10	1
4902554	49	C	06/13/2022	02:01	-134.824	49.476	0	1885.00	0	2.0210	0	34.5670	0	27.633	0	1860.539	0	-1e10	8	-1e10	8	-1E+10	1	-1E+10	1	-1E+10	1	-1E+10	1	-1E+10	1	-1E+10	1
4902554	49	C	06/13/2022	02:01	-134.824	49.476	0	1895.20	0	2.0130	0	34.5680	0	27.635	0	1870.562	0	-1e10	8	-1e10	8	-1E+10	1	-1E+10	1	-1E+10	1	-1E+10	1	-1E+10	1	-1E+10	1
4902554	49	C	06/13/2022	02:01	-134.824	49.476	0	1905.30	0	2.0090	0	34.5690	0	27.636	0	1880.486	0	-1e10	8	-1e10	8	-1E+10	1	-1E+10	1	-1E+10	1	-1E+10	1	-1E+10	1	-1E+10	1
4902554	49	C	06/13/2022	02:01	-134.824	49.476	0	1915.20	0	2.0020	0	34.5710	0	27.638	0	1890.213	0	-1e10	8	-1e10	8	-1E+10	1	-1E+10	1	-1E+10	1	-1E+10	1	-1E+10	1	-1E+10	1
4902554	49	C	06/13/2022	02:01	-134.824	49.476	0	1925.10	0	1.9960	0	34.5720	0	27.639	0	1899.939	0	-1e10	8	-1e10	8	-1E+10	1	-1E+10	1	-1E+10	1	-1E+10	1	-1E+10	1	-1E+10	1
4902554	49	C	06/13/2022	02:01	-134.824	49.476	0	1935.40	0	1.9900	0	34.5730	0	27.641	0	1910.059	0	-1e10	8	-1e10	8	-1E+10	1	-1E+10	1	-1E+10	1	-1E+10	1	-1E+10	1	-1E+10	1
4902554	49	C	06/13/2022	02:01	-134.824	49.476	0	1945.60	0	1.9880	0	34.5740	0	27.642	0	1920.079	0	-1e10	8	-1e10	8	-1E+10	1	-1E+10	1	-1E+10	1	-1E+10	1	-1E+10	1	-1E+10	1
4902554	49	C	06/13/2022	02:01	-134.824	49.476	0	1955.50	0	1.9840	0	34.5750	0	27.643	0	1929.804	0	-1e10	8	-1e10	8	-1E+10	1	-1E+10	1	-1E+10	1	-1E+10	1	-1E+10	1	-1E+10	1
4902554	49	C	06/13/2022	02:01	-134.824	49.476	0	1965.50	0	1.9760	0	34.5760	0	27.644	0	1939.628	0	-1e10	8	-1e10	8	-1E+10	1	-1E+10	1	-1E+10	1	-1E+10	1	-1E+10	1	-1E+10	1
4902554	49	C	06/13/2022	02:01	-134.824	49.476	0	1975.40	0	1.9710	0	34.5780	0	27.646	0	1949.352	0	-1e10	8	-1e10	8	-1E+10	1	-1E+10	1	-1E+10	1	-1E+10	1	-1E+10	1	-1E+10	1
4902554	49	C	06/13/2022	02:01	-134.824	49.476	0	1985.40	0	1.9660	0	34.5790	0	27.648	0	1959.174	0	-1e10	8	-1e10	8	-1E+10	1	-1E+10	1	-1E+10	1	-1E+10	1	-1E+10	1	-1E+10	1
4902554	49	C	06/13/2022	02:01	-134.824	49.476	0	1995.30	0	1.9600	0	34.5810	0	27.650	0	1968.898	0	-1e10	8	-1e10	8	-1E+10	1	-1E+10	1	-1E+10	1	-1E+10	1	-1E+10	1	-1E+10	1
4902554	49	C	06/13/2022	02:01	-134.824	49.476	0	2005.90	0	1.9500	0	34.5830	0	27.652	0	1979.308	0	-1e10	8	-1e10	8	-1E+10	1	-1E+10	1	-1E+10	1	-1E+10	1	-1E+10	1	-1E+10	1
4902554	49	C	06/13/2022	02:01	-134.824	49.476	0	2011.70	0	1.9460	0	34.5840	0	27.653	0	1985.004	0	-1e10	8	-1e10	8	-1E+10	1	-1E+10	1	-1E+10	1	-1E+10	1	-1E+10	1	-1E+10	1
4902554	49	C	06/13/2022	02:01	-134.824	49.476	0																										
4902554	50	C	06/23/2022	07:04	-134.647	49.516	0	0.40	0	10.9740	0	32.2040	0	24.604	0	0.397	0	-1e10	8	-1e10	8	-1E+10	1	-1E+10	1	-1E+10	1	-1E+10	1	-1E+10	1	-1E+10	1
4902554	50	C	06/23/2022	07:04	-134.647	49.516	0	1.00	0	10.9730	0	32.1790	0	24.585	0	0.991	0	-1e10	8	-1e10	8	-1E+10	1	-1E+10	1	-1E+10	1	-1E+10	1	-1E+10	1	-1E+10	1
4902554	50	C	06/23/2022	07:04	-134.647	49.516	0	2.00	0	10.9740	0	32.2020	0	24.602	0	1.983	0	-1e10	8	-1e10	8	-1E+10	1	-1E+10	1	-1E+10	1	-1E+10	1	-1E+10	1	-1E+10	1
4902554	50	C	06/23/2022	07:04	-134.647	49.516	0	3.00	0	10.9750	0	32.2040	0	24.604	0	2.974	0	-1e10	8	-1e10	8	-1E+10	1	-1E+10	1	-1E+10	1	-1E+10	1	-1E+10	1	-1E+10	1
4902554	50	C	06/23/2022	07:04	-134.647	49.516	0	4.00	0	10.9750	0	32.2050	0	24.605	0	3.966	0	-1e10	8	-1e10	8	-1E+10	1	-1E+10	1	-1E+10	1	-1E+10	1	-1E+10	1	-1E+10	1
4902554	50	C	06/23/2022	07:04	-134.647	49.516	0	5.00	0	10.9690	0	32.2160	0	24.614	0	4.957	0	-1e10	8	-1e10	8	-1E+10	1	-1E+10	1	-1E+10	1	-1E+10	1	-1E+10	1	-1E+10	1
4902554	50	C	06/23/2022	07:04	-134.647	49.516	0	6.00	0	10.9460	0	32.2150	0	24.618	0	5.949	0	-1e10	8	-1e10	8	-1E+10	1	-1E+10	1	-1E+10	1	-1E+10	1	-1E+10	1	-1E+10	1
4902554	50	C	06/23/2022	07:04	-134.647	49.516	0	6.80	0	10.9000	0	32.2180	0	24.628	0	6.742	0	-1e10	8	-1e10	8	-1E+10	1	-1E+10	1	-1E+10	1	-1E+10	1	-1E+10	1	-1E+10	1
4902554	50	C	06/23/2022	07:04	-134.647	49.516	0	8.10	0	10.8320	0	32.2220	0	24.643	0	8.031	0	-1e10	8	-1e10	8	-1E+10	1	-1E+10	1	-1E+10	1	-1E+10	1	-1E+10	1	-1E+10	1
4902554	50	C	06/23/2022	07:04	-134.647	49.516	0	9.10	0	10.8000	0	32.2200	0	24.647	0	9.022	0	-1e10	8	-1e10	8	-1E+10	1	-1E+10	1	-1E+10	1	-1E+10	1	-1E+10	1	-1E+10	1
4902554	50	C	06/23/2022	07:04	-134.647	49.516	0	9.90	0	10.7070	0	32.2320	0	24.672	0	9.815	0	-1e10	8	-1e10	8	-1E+10	1	-1E+10	1	-1E+10	1	-1E+10	1	-1E+10	1	-1E+10	1
4902554	50	C	06/23/2022	07:04	-134.647	49.516	0	11.10	0	10.6420	0	32.2340	0	24.685	0	11.005	0	-1e10	8	-1e10	8	-1E+10	1	-1E+10	1	-1E+10	1	-1E+10	1	-1E+10	1	-1E+10	1
4902554	50	C	06/23/2022	07:04	-134.647	49.516	0	11.80	0	10.6350	0	32.2340	0	24.686	0	11.699	0	-1e10	8	-1e10	8	-1E+10	1	-1E+10	1	-1E+10	1	-1E+10	1	-1E+10	1	-1E+10	1
4902554	50	C	06/23/2022	07:04	-134.647	49.516	0	13.00	0	10.6260	0	32.2350	0	24.689	0	12.889	0	-1e10	8	-1e10	8	-1E+10	1	-1E+10	1	-1E+10	1	-1E+10	1	-1E+10	1	-1E+10	1
4902554	50	C	06/23/2022	07:04	-134.647	49.516	0	14.10	0	10.6130	0	32.2360	0	24.692	0	13.979	0	-1e10	8	-1e10	8	-1E+10	1	-1E+10	1	-1E+10	1	-1E+10	1	-1E+10	1	-1E+10	1
4902554	50	C	06/23/2022	07:04	-134.647	49.516	0	14.90	0	10.5960	0	32.2370	0	24.696	0	14.772	0	-1e10	8	-1e10	8	-1E+10	1	-1E+10	1	-1E+10	1	-1E+10	1	-1E+10	1	-1E+10	1
4902554	50	C	06/23/2022	07:04	-134.647	49.516	0	16.00	0	10.5530	0	32.2400	0	24.705	0	15.863	0	-1e10	8	-1e10	8	-1E+10	1	-1E+10	1	-1E+10	1	-1E+10	1	-1E+10	1	-1E+10	1
4902554	50	C	06/23/2022	07:04	-134.647	49.516	0	17.10	0	10.5070	0	32.2430	0	24.715	0	16.953	0	-1e10	8	-1e10	8	-1E+10	1	-1E+10	1	-1E+10	1	-1E+10	1	-1E+10	1	-1E+10	1
4902554	50	C	06/23/2022	07:04	-134.647	49.516	0	17.90	0	10.4400	0	32.2520	0	24.734	0	17.747	0	-1e10	8	-1e10	8	-1E+10	1	-1E+10	1	-1E+10	1	-1E+10	1	-1E+10	1	-1E+10	1
4902554	50	C	06/23/2022	07:04	-134.647	49.516	0	19.10	0	10.3590	0	32.2610	0	24.755	0	18.936	0	-1e10	8	-1e10	8	-1E+10	1	-1E+10	1	-1E+10	1	-1E+10	1	-1E+10	1	-1E+10	1
4902554	50	C	06/23/2022	07:04	-134.647	49.516	0	19.90	0	10.2800	0	32.2700	0	24.775	0	19.729	0	-1e10	8	-1e10	8	-1E+10	1	-1E+10	1	-1E+10	1	-1E+10	1	-1E+10	1	-1E+10	1
4902554	50	C	06/23/2022	07:04	-134.647	49.516	0	21.30	0	10.1670	0	32.2810	0	24.803	0	21.117	0	-1e10	8	-1e10	8	-1E+10	1	-1E+10	1	-1E+10	1	-1E+10	1	-1E+10	1	-1E+10	1
4902554	50	C	06/23/2022	07:04	-134.647	49.516	0	22.10	0	10.1210	0	32.2850	0	24.813	0	21.910	0	-1e10	8	-1e10	8	-1E+10	1	-1E+10	1	-1E+10	1	-1E+10	1	-1E+10	1	-1E+10	1
4902554	50	C	06/23/2022	07:04	-134.647	49.516	0	22.90	0	10.0900	0	32.2840	0	24.818	0	22.703	0	-1e10	8	-1e10	8	-1E+10	1	-1E+10	1	-1E+10	1	-1E+10	1	-1E+10	1	-1E+10	1
4902554	50	C	06/23/2022	07:04	-134.647	49.516	0	24.00	0	10.0310	0	32.2860	0	24.829	0	23.794	0	-1e10	8	-1e10	8	-1E+10	1	-1E+10	1	-1E+10	1	-1E+10	1	-1E+10	1	-1E+10	1
4902554	50	C	06/23/2022	07:04	-134.647	49.516	0	25.20	0	9.9250	0	32.2900	0	24.850	0	24.984	0	-1e10	8	-1e10	8	-1E+10	1	-1E+10	1	-1E+10	1	-1E+10	1	-1E+10	1	-1E+10	1
4902554	50	C	06/23/2022	07:04	-134.647	49.516	0	25.90	0	9.9150	0	32.2910	0	24.852	0	25.677	0	-1e10	8	-1e10	8	-1E+10	1	-1E+10	1	-1E+10	1	-1E+10	1	-1E+10	1	-1E+10	1
4902554	50	C	06/23/2022	07:04	-134.647	49.516	0	27.20	0	9.8530	0	32.2930	0	24.864	0	26.966	0	-1e10	8	-1e10	8	-1E+10	1	-1E+10	1	-1E+10	1	-1E+10	1	-1E+10	1	-1E+10	1
4902554	50	C	06/23/2022	07:04	-134.647	49.516	0	28.00	0	9.7930	0	32.2970	0	24.877	0	27.759	0	-1e10	8	-1e10	8	-1E+10	1	-1E+10	1	-1E+10	1	-1E+10	1	-1E+10	1	-1E+10	1
4902554	50	C	06/23/2022	07:04	-134.647	49.516	0	28.90	0	9.7370	0	32.3000	0	24.888	0	28.652	0	-1e10	8	-1e10	8	-1E+10	1	-1E+10	1	-1E+10	1	-1E+10	1	-1E+10	1	-1E+10	1
4902554	50	C	06/23/2022	07:04	-134.647	49.516	0	30.10	0	9.6330	0	32.3020	0	24.907	0	29.841	0	-1e10	8	-1e10	8	-1E+10	1	-1E+10	1	-1E+10	1	-1E+10	1	-1E+10	1	-1E+10	1
4902554	50	C	06/23/2022	07:04	-134.647	49.516	0	30.80	0	9.4690	0	32.3120	0	24.941	0	30.535	0	-1e10	8	-1e10	8	-1E+10	1	-1E+10	1	-1E+10	1	-1E+10	1	-1E+10	1	-1E+10	1
4902554	50	C	06/23/2022	07:04	-134.647	49.516	0	31.90	0	9.3740	0	32.3130	0	24.957	0	31.625	0	-1e10	8	-1e10	8	-1E+10	1	-1E+10	1	-1E+10	1	-1E+10	1	-1E+10	1	-1E+10	1
4902554	50	C	06/23/2022	07:04	-134.647	49.516	0	33.30	0	9.3580	0	32.3060	0	24.954	0	33.013	0	-1e10	8	-1e10	8	-1E+10	1	-1E+10	1	-1E+10	1	-1E+10	1	-1E+10	1	-1E+10	1
4902554	50	C	06/23/2022	07:04	-134.647	49.516	0	33.90	0	9.3240	0	32.3220	0	24.972	0	33.608	0	-1e10	8	-1e10	8	-1E+10	1	-1E+10	1	-1E+10	1	-1E+10	1	-1E+10	1	-1E+10	1
4902554	50	C	06/23/2022	07:04	-134.647	49.516	0	34.90	0	9.2250	0	32.3170	0	24.984	0	34.599	0	-1e10	8	-1e10	8	-1E+10	1	-1E+10	1	-1E+10	1	-1E+10	1	-1E+10	1	-1E+10	1
4902554	50	C	06/23/2022	07:04	-134.647	49.516	0	35.90	0	9.1860	0	32.3190	0	24.991	0	35.591	0	-1e10	8	-1e10	8	-1E+10	1	-1E+10	1	-1E+10	1	-1E+10	1	-1E+10	1	-1E+10	1
4902554	50	C	06/23/2022	07:04	-134.647	49.516	0	37.00	0	9.1220	0	32.3240	0	25.005	0	36.681	0	-1e10	8	-1e10	8	-1E+10	1	-1E+10	1	-1E+10	1	-1E+10	1	-1E+10	1	-1E+10	1
4902554	50	C	06/23/2022	07:04	-134.647	49.516	0	38.10	0	9.0820	0	32.3240	0	25.011	0	37.772	0	-1e10	8	-1e10	8	-1E+10	1	-1E+10	1	-1E+10	1	-1E+10	1	-1E+10	1	-1E+10	1
4902554	50	C	06/23/2022	07:04	-134.647	49.516	0	38.90	0	9.0480	0	32.3350	0	25.025	0	38.565	0	-1e10	8	-1e10	8	-1E+10	1	-1E+10	1	-1E+10	1	-1E+10	1	-1E+10	1	-1E+10	1
4902554	50	C	06/23/2022	07:04	-134.647	49.516	0	39.80	0	8.9670	0	32.3330	0	25.036	0	39.457	0	-1e10	8	-1e10	8	-1E+10	1	-1E+10	1	-1E+10	1	-1E+10	1	-1E+10	1	-1E+10	1
4902554	50	C	06/23/2022	07:04	-134.647	49.516	0	40.90	0	8.9250	0	32.3340	0	25.044	0	40.547	0	-1e10	8	-1e10	8	-1E+10	1	-1E+10	1	-1E+10	1	-1E+10	1	-1E+10	1	-1E+10	1
4902554	50	C	06/23/2022	07:04	-134.647	49.516	0	42.00	0	8.8880	0	32.3350	0	25.050	0	41.638	0	-1e10	8	-1e10	8	-1E+10	1	-1E+10	1	-1E+10	1	-1E+10	1	-1E+10	1	-1E+10	1
4902554	50	C	06/23/2022	07:04	-134.647	49.516	0	42.90	0	8.8510	0	32.3350	0	25.056	0	42.530	0	-1e10	8	-1e10	8	-1E+10	1	-1E+10	1	-1E+10	1	-1E+10	1	-1E+10	1	-1E+10	1
4902554	50	C	06/23/2022	07:04	-134.647	49.516	0	43.70	0	8.7770	0	32.3390	0	25.070	0	43.323	0	-1e10	8	-1e10	8	-1E+10	1	-1E+10	1	-1E+10	1	-1E+10	1	-1E+10	1	-1E+10	1
4902554	50	C	06/23/2022	07:04	-134.647	49.516	0	44.80	0	8.7500	0	32.3400	0	25.075	0	44.413	0	-1e10	8	-1e10	8	-1E+10	1	-1E+10	1	-1E+10	1	-1E+10	1	-1E+10	1	-1E+10	1
4902554	50	C	06/23/2022	07:04	-134.647	49.516	0	45.90	0	8.7340	0	32.3380	0	25.076	0	45.503	0	-1e10	8	-1e10	8	-1E+10	1	-1E+10	1	-1E+10	1	-1E+10	1	-1E+10	1	-1E+10	1
4902554	50	C	06/23/2022	07:04	-134.647	49.516	0	46.90	0	8.7090	0	32.3390	0	25.081	0	46.495	0	-1e10	8	-1e10	8	-1E+10	1	-1E+10	1	-1E+10	1	-1E+10	1	-1E+10	1	-1E+10	1
4902554	50	C	06/23/2022	07:04	-134.647	49.516	0	48.00	0	8.6580	0	32.3410	0	25.090	0	47.585	0	-1e10	8	-1e10	8	-1E+10	1	-1E+10	1	-1E+10	1	-1E+10	1	-1E+10	1	-1E+10	1
4902554	50	C	06/23/2022	07:04	-134.647	49.516	0	49.00	0	8.4980	0	32.3570	0	25.127	0	48.576	0	-1e10	8	-1e10	8	-1E+10	1	-1E+10	1	-1E+10	1	-1E+10	1	-1E+10	1	-1E+10	1
4902554	50	C	06/23/2022	07:04	-134.647	49.516	0	49.90	0	8.4140	0	32.3440	0	25.129	0	49.468	0	-1e10	8	-1e10	8	-1E+10	1	-1E+10	1	-1E+10	1	-1E+10	1	-1E+10	1	-1E+10	1
4902554	50	C	06/23/2022	07:04	-134.647	49.516	0	50.70	0	8.3870	0	32.3500	0	25.138	0	50.261	0	-1e10	8	-1e10	8	-1E+10	1	-1E+10	1	-1E+10	1	-1E+10	1	-1E+10	1	-1E+10	1
4902554	50	C	06/23/2022	07:04	-134.647	49.516	0	51.80	0	8.3710	0	32.3520	0	25.142	0	51.352	0	-1e10	8	-1e10	8	-1E+10	1	-1E+10	1	-1E+10	1	-1E+10	1	-1E+10	1	-1E+10	1
4902554	50	C	06/23/2022	07:04	-134.647	49.516	0	52.90	0	8.3600	0	32.3500	0	25.142	0	52.442	0	-1e10	8	-1e10	8	-1E+10	1	-1E+10	1	-1E+10	1	-1E+10	1	-1E+10	1	-1E+10	1
4902554	50	C	06/23/2022	07:04	-134.647	49.516	0	54.10	0	8.3360	0	32.3480	0	25.144	0	53.632	0	-1e10	8	-1e10	8	-1E+10	1	-1E+10	1	-1E+10	1	-1E+10	1	-1E+10	1	-1E+10	1
4902554	50	C	06/23/2022	07:04	-134.647	49.516	0	54.90	0	8.2700	0	32.3470	0	25.153	0	54.425	0	-1e10	8	-1e10	8	-1E+10	1	-1E+10	1	-1E+10	1	-1E+10	1	-1E+10	1	-1E+10	1
4902554	50	C	06/23/2022	07:04	-134.647	49.516	0	56.00	0	8.1780	0	32.3540	0	25.172	0	55.515	0	-1e10	8	-1e10	8	-1E+10	1	-1E+10	1	-1E+10	1	-1E+10	1	-1E+10	1	-1E+10	1
4902554	50	C	06/23/2022	07:04	-134.647	49.516	0	56.90	0	8.1030	0	32.3580	0	25.186	0	56.407	0	-1e10	8	-1e10	8	-1E+10	1	-1E+10	1	-1E+10	1	-1E+10	1	-1E+10	1	-1E+10	1
4902554	50	C	06/23/2022	07:04	-134.647	49.516	0	58.10	0	8.0060	0	32.3610	0	25.202	0	57.596	0	-1e10	8	-1e10	8	-1E+10	1	-1E+10	1	-1E+10	1	-1E+10	1	-1E+10	1	-1E+10	1
4902554	50	C	06/23/2022	07:04	-134.647	49.516	0	59.00	0	7.9550	0	32.3630	0	25.211	0	58.488	0	-1e10	8	-1e10	8	-1E+10	1	-1E+10	1	-1E+10	1	-1E+10	1	-1E+10	1	-1E+10	1
4902554	50	C	06/23/2022	07:04	-134.647	49.516	0	60.00	0	7.8920	0	32.3650	0	25.222	0	59.480	0	-1e10	8	-1e10	8	-1E+10	1	-1E+10	1	-1E+10	1	-1E+10	1	-1E+10	1	-1E+10	1
4902554	50	C	06/23/2022	07:04	-134.647	49.516	0	61.20	0	7.8050	0	32.3670	0	25.236	0	60.669	0	-1e10	8	-1e10	8	-1E+10	1	-1E+10	1	-1E+10	1	-1E+10	1	-1E+10	1	-1E+10	1
4902554	50	C	06/23/2022	07:04	-134.647	49.516	0	61.90	0	7.7500	0	32.3700	0	25.246	0	61.363	0	-1e10	8	-1e10	8	-1E+10	1	-1E+10	1	-1E+10	1	-1E+10	1	-1E+10	1	-1E+10	1
4902554	50	C	06/23/2022	07:04	-134.647	49.516	0	63.00	0	7.6720	0	32.3710	0	25.257	0	62.453	0	-1e10	8	-1e10	8	-1E+10	1	-1E+10	1	-1E+10	1	-1E+10	1	-1E+10	1	-1E+10	1
4902554	50	C	06/23/2022	07:04	-134.647	49.516	0	64.30	0	7.6120	0	32.3720	0	25.267	0	63.742	0	-1e10	8	-1e10	8	-1E+10	1	-1E+10	1	-1E+10	1	-1E+10	1	-1E+10	1	-1E+10	1
4902554	50	C	06/23/2022	07:04	-134.647	49.516	0	65.10	0	7.4360	0	32.3820	0	25.299	0	64.535	0	-1e10	8	-1e10	8	-1E+10	1	-1E+10	1	-1E+10	1	-1E+10	1	-1E+10	1	-1E+10	1
4902554	50	C	06/23/2022	07:04	-134.647	49.516	0	66.00	0	7.4150	0	32.3800	0	25.300	0	65.427	0	-1e10	8	-1e10	8	-1E+10	1	-1E+10	1	-1E+10	1	-1E+10	1	-1E+10	1	-1E+10	1
4902554	50	C	06/23/2022	07:04	-134.647	49.516	0	67.10	0	7.3560	0	32.3830	0	25.311	0	66.517	0	-1e10	8	-1e10	8	-1E+10	1	-1E+10	1	-1E+10	1	-1E+10	1	-1E+10	1	-1E+10	1
4902554	50	C	06/23/2022	07:04	-134.647	49.516	0	68.10	0	7.3180	0	32.3850	0	25.318	0	67.508	0	-1e10	8	-1e10	8	-1E+10	1	-1E+10	1	-1E+10	1	-1E+10	1	-1E+10	1	-1E+10	1
4902554	50	C	06/23/2022	07:04	-134.647	49.516	0	69.00	0	7.3090	0	32.3850	0	25.319	0	68.400	0	-1e10	8	-1e10	8	-1E+10	1	-1E+10	1	-1E+10	1	-1E+10	1	-1E+10	1	-1E+10	1
4902554	50	C	06/23/2022	07:04	-134.647	49.516	0	70.00	0	7.2850	0	32.3870	0	25.324	0	69.391	0	-1e10	8	-1e10	8	-1E+10	1	-1E+10	1	-1E+10	1	-1E+10	1	-1E+10	1	-1E+10	1
4902554	50	C	06/23/2022	07:04	-134.647	49.516	0	71.00	0	7.2690	0	32.3870	0	25.326	0	70.382	0	-1e10	8	-1e10	8	-1E+10	1	-1E+10	1	-1E+10	1	-1E+10	1	-1E+10	1	-1E+10	1
4902554	50	C	06/23/2022	07:04	-134.647	49.516	0	72.00	0	7.2630	0	32.3880	0	25.327	0	71.373	0	-1e10	8	-1e10	8	-1E+10	1	-1E+10	1	-1E+10	1	-1E+10	1	-1E+10	1	-1E+10	1
4902554	50	C	06/23/2022	07:04	-134.647	49.516	0	73.00	0	7.2570	0	32.3860	0	25.327	0	72.365	0	-1e10	8	-1e10	8	-1E+10	1	-1E+10	1	-1E+10	1	-1E+10	1	-1E+10	1	-1E+10	1
4902554	50	C	06/23/2022	07:04	-134.647	49.516	0	74.10	0	7.2370	0	32.3920	0	25.334	0	73.455	0	-1e10	8	-1e10	8	-1E+10	1	-1E+10	1	-1E+10	1	-1E+10	1	-1E+10	1	-1E+10	1
4902554	50	C	06/23/2022	07:04	-134.647	49.516	0	75.00	0	7.2040	0	32.3930	0	25.339	0	74.347	0	-1e10	8	-1e10	8	-1E+10	1	-1E+10	1	-1E+10	1	-1E+10	1	-1E+10	1	-1E+10	1
4902554	50	C	06/23/2022	07:04	-134.647	49.516	0	75.90	0	7.1610	0	32.3930	0	25.345	0	75.239	0	-1e10	8	-1e10	8	-1E+10	1	-1E+10	1	-1E+10	1	-1E+10	1	-1E+10	1	-1E+10	1
4902554	50	C	06/23/2022	07:04	-134.647	49.516	0	77.10	0	7.1440	0	32.3930	0	25.348	0	76.428	0	-1e10	8	-1e10	8	-1E+10	1	-1E+10	1	-1E+10	1	-1E+10	1	-1E+10	1	-1E+10	1
4902554	50	C	06/23/2022	07:04	-134.647	49.516	0	78.00	0	7.0710	0	32.4000	0	25.363	0	77.320	0	-1e10	8	-1e10	8	-1E+10	1	-1E+10	1	-1E+10	1	-1E+10	1	-1E+10	1	-1E+10	1
4902554	50	C	06/23/2022	07:04	-134.647	49.516	0	78.90	0	7.0590	0	32.4000	0	25.364	0	78.212	0	-1e10	8	-1e10	8	-1E+10	1	-1E+10	1	-1E+10	1	-1E+10	1	-1E+10	1	-1E+10	1
4902554	50	C	06/23/2022	07:04	-134.647	49.516	0	80.10	0	7.0550	0	32.4000	0	25.365	0	79.401	0	-1e10	8	-1e10	8	-1E+10	1	-1E+10	1	-1E+10	1	-1E+10	1	-1E+10	1	-1E+10	1
4902554	50	C	06/23/2022	07:04	-134.647	49.516	0	81.00	0	7.0480	0	32.4000	0	25.366	0	80.293	0	-1e10	8	-1e10	8	-1E+10	1	-1E+10	1	-1E+10	1	-1E+10	1	-1E+10	1	-1E+10	1
4902554	50	C	06/23/2022	07:04	-134.647	49.516	0	81.90	0	7.0410	0	32.4000	0	25.367	0	81.185	0	-1e10	8	-1e10	8	-1E+10	1	-1E+10	1	-1E+10	1	-1E+10	1	-1E+10	1	-1E+10	1
4902554	50	C	06/23/2022	07:04	-134.647	49.516	0	83.00	0	7.0340	0	32.4010	0	25.369	0	82.276	0	-1e10	8	-1e10	8	-1E+10	1	-1E+10	1	-1E+10	1	-1E+10	1	-1E+10	1	-1E+10	1
4902554	50	C	06/23/2022	07:04	-134.647	49.516	0	84.10	0	7.0240	0	32.4020	0	25.371	0	83.366	0	-1e10	8	-1e10	8	-1E+10	1	-1E+10	1	-1E+10	1	-1E+10	1	-1E+10	1	-1E+10	1
4902554	50	C	06/23/2022	07:04	-134.647	49.516	0	85.10	0	7.0010	0	32.4040	0	25.375	0	84.357	0	-1e10	8	-1e10	8	-1E+10	1	-1E+10	1	-1E+10	1	-1E+10	1	-1E+10	1	-1E+10	1
4902554	50	C	06/23/2022	07:04	-134.647	49.516	0	86.10	0	6.9960	0	32.4040	0	25.376	0	85.348	0	-1e10	8	-1e10	8	-1E+10	1	-1E+10	1	-1E+10	1	-1E+10	1	-1E+10	1	-1E+10	1
4902554	50	C	06/23/2022	07:04	-134.647	49.516	0	87.30	0	6.9590	0	32.4060	0	25.383	0	86.537	0	-1e10	8	-1e10	8	-1E+10	1	-1E+10	1	-1E+10	1	-1E+10	1	-1E+10	1	-1E+10	1
4902554	50	C	06/23/2022	07:04	-134.647	49.516	0	88.00	0	6.9390	0	32.4090	0	25.388	0	87.231	0	-1e10	8	-1e10	8	-1E+10	1	-1E+10	1	-1E+10	1	-1E+10	1	-1E+10	1	-1E+10	1
4902554	50	C	06/23/2022	07:04	-134.647	49.516	0	89.00	0	6.9000	0	32.4130	0	25.396	0	88.222	0	-1e10	8	-1e10	8	-1E+10	1	-1E+10	1	-1E+10	1	-1E+10	1	-1E+10	1	-1E+10	1
4902554	50	C	06/23/2022	07:04	-134.647	49.516	0	89.90	0	6.8670	0	32.4190	0	25.405	0	89.114	0	-1e10	8	-1e10	8	-1E+10	1	-1E+10	1	-1E+10	1	-1E+10	1	-1E+10	1	-1E+10	1
4902554	50	C	06/23/2022	07:04	-134.647	49.516	0	91.10	0	6.8620	0	32.4200	0	25.406	0	90.303	0	-1e10	8	-1e10	8	-1E+10	1	-1E+10	1	-1E+10	1	-1E+10	1	-1E+10	1	-1E+10	1
4902554	50	C	06/23/2022	07:04	-134.647	49.516	0	91.80	0	6.8480	0	32.4220	0	25.410	0	90.997	0	-1e10	8	-1e10	8	-1E+10	1	-1E+10	1	-1E+10	1	-1E+10	1	-1E+10	1	-1E+10	1
4902554	50	C	06/23/2022	07:04	-134.647	49.516	0	92.90	0	6.7970	0	32.4390	0	25.430	0	92.087	0	-1e10	8	-1e10	8	-1E+10	1	-1E+10	1	-1E+10	1	-1E+10	1	-1E+10	1	-1E+10	1
4902554	50	C	06/23/2022	07:04	-134.647	49.516	0	94.00	0	6.7750	0	32.4480	0	25.440	0	93.177	0	-1e10	8	-1e10	8	-1E+10	1	-1E+10	1	-1E+10	1	-1E+10	1	-1E+10	1	-1E+10	1
4902554	50	C	06/23/2022	07:04	-134.647	49.516	0	94.90	0	6.7380	0	32.4600	0	25.454	0	94.069	0	-1e10	8	-1e10	8	-1E+10	1	-1E+10	1	-1E+10	1	-1E+10	1	-1E+10	1	-1E+10	1
4902554	50	C	06/23/2022	07:04	-134.647	49.516	0	95.90	0	6.7250	0	32.4680	0	25.462	0	95.060	0	-1e10	8	-1e10	8	-1E+10	1	-1E+10	1	-1E+10	1	-1E+10	1	-1E+10	1	-1E+10	1
4902554	50	C	06/23/2022	07:04	-134.647	49.516	0	96.80	0	6.7070	0	32.4810	0	25.475	0	95.952	0	-1e10	8	-1e10	8	-1E+10	1	-1E+10	1	-1E+10	1	-1E+10	1	-1E+10	1	-1E+10	1
4902554	50	C	06/23/2022	07:04	-134.647	49.516	0	97.80	0	6.6970	0	32.4840	0	25.478	0	96.943	0	-1e10	8	-1e10	8	-1E+10	1	-1E+10	1	-1E+10	1	-1E+10	1	-1E+10	1	-1E+10	1
4902554	50	C	06/23/2022	07:04	-134.647	49.516	0	99.00	0	6.6180	0	32.5110	0	25.510	0	98.132	0	-1e10	8	-1e10	8	-1E+10	1	-1E+10	1	-1E+10	1	-1E+10	1	-1E+10	1	-1E+10	1
4902554	50	C	06/23/2022	07:04	-134.647	49.516	0	100.10	0	6.5920	0	32.5240	0	25.524	0	99.222	0	-1e10	8	-1e10	8	-1E+10	1	-1E+10	1	-1E+10	1	-1E+10	1	-1E+10	1	-1E+10	1
4902554	50	C	06/23/2022	07:04	-134.647	49.516	0	101.00	0	6.5750	0	32.5340	0	25.534	0	100.114	0	-1e10	8	-1e10	8	-1E+10	1	-1E+10	1	-1E+10	1	-1E+10	1	-1E+10	1	-1E+10	1
4902554	50	C	06/23/2022	07:04	-134.647	49.516	0	102.00	0	6.5550	0	32.5530	0	25.551	0	101.105	0	-1e10	8	-1e10	8	-1E+10	1	-1E+10	1	-1E+10	1	-1E+10	1	-1E+10	1	-1E+10	1
4902554	50	C	06/23/2022	07:04	-134.647	49.516	0	103.00	0	6.4960	0	32.6040	0	25.599	0	102.096	0	-1e10	8	-1e10	8	-1E+10	1	-1E+10	1	-1E+10	1	-1E+10	1	-1E+10	1	-1E+10	1
4902554	50	C	06/23/2022	07:04	-134.647	49.516	0	104.10	0	6.4510	0	32.6360	0	25.630	0	103.186	0	-1e10	8	-1e10	8	-1E+10	1	-1E+10	1	-1E+10	1	-1E+10	1	-1E+10	1	-1E+10	1
4902554	50	C	06/23/2022	07:04	-134.647	49.516	0	104.90	0	6.4430	0	32.6390	0	25.633	0	103.979	0	-1e10	8	-1e10	8	-1E+10	1	-1E+10	1	-1E+10	1	-1E+10	1	-1E+10	1	-1E+10	1
4902554	50	C	06/23/2022	07:04	-134.647	49.516	0	105.90	0	6.4120	0	32.6610	0	25.655	0	104.970	0	-1e10	8	-1e10	8	-1E+10	1	-1E+10	1	-1E+10	1	-1E+10	1	-1E+10	1	-1E+10	1
4902554	50	C	06/23/2022	07:04	-134.647	49.516	0	107.00	0	6.3830	0	32.6810	0	25.674	0	106.060	0	-1e10	8	-1e10	8	-1E+10	1	-1E+10	1	-1E+10	1	-1E+10	1	-1E+10	1	-1E+10	1
4902554	50	C	06/23/2022	07:04	-134.647	49.516	0	108.10	0	6.3490	0	32.7090	0	25.700	0	107.150	0	-1e10	8	-1e10	8	-1E+10	1	-1E+10	1	-1E+10	1	-1E+10	1	-1E+10	1	-1E+10	1
4902554	50	C	06/23/2022	07:04	-134.647	49.516	0	109.00	0	6.3130	0	32.7410	0	25.730	0	108.042	0	-1e10	8	-1e10	8	-1E+10	1	-1E+10	1	-1E+10	1	-1E+10	1	-1E+10	1	-1E+10	1
4902554	50	C	06/23/2022	07:04	-134.647	49.516	0	110.20	0	6.2680	0	32.7760	0	25.764	0	109.231	0	-1e10	8	-1e10	8	-1E+10	1	-1E+10	1	-1E+10	1	-1E+10	1	-1E+10	1	-1E+10	1
4902554	50	C	06/23/2022	07:04	-134.647	49.516	0	110.90	0	6.1940	0	32.8500	0	25.831	0	109.925	0	-1e10	8	-1e10	8	-1E+10	1	-1E+10	1	-1E+10	1	-1E+10	1	-1E+10	1	-1E+10	1
4902554	50	C	06/23/2022	07:04	-134.647	49.516	0	111.80	0	6.1670	0	32.8800	0	25.858	0	110.816	0	-1e10	8	-1e10	8	-1E+10	1	-1E+10	1	-1E+10	1	-1E+10	1	-1E+10	1	-1E+10	1
4902554	50	C	06/23/2022	07:04	-134.647	49.516	0	112.80	0	6.1420	0	32.8950	0	25.873	0	111.807	0	-1e10	8	-1e10	8	-1E+10	1	-1E+10	1	-1E+10	1	-1E+10	1	-1E+10	1	-1E+10	1
4902554	50	C	06/23/2022	07:04	-134.647	49.516	0	113.80	0	6.0730	0	32.9500	0	25.925	0	112.798	0	-1e10	8	-1e10	8	-1E+10	1	-1E+10	1	-1E+10	1	-1E+10	1	-1E+10	1	-1E+10	1
4902554	50	C	06/23/2022	07:04	-134.647	49.516	0	114.90	0	6.0490	0	32.9950	0	25.964	0	113.888	0	-1e10	8	-1e10	8	-1E+10	1	-1E+10	1	-1E+10	1	-1E+10	1	-1E+10	1	-1E+10	1
4902554	50	C	06/23/2022	07:04	-134.647	49.516	0	115.90	0	6.0540	0	33.0000	0	25.967	0	114.879	0	-1e10	8	-1e10	8	-1E+10	1	-1E+10	1	-1E+10	1	-1E+10	1	-1E+10	1	-1E+10	1
4902554	50	C	06/23/2022	07:04	-134.647	49.516	0	116.90	0	6.0480	0	33.0040	0	25.971	0	115.870	0	-1e10	8	-1e10	8	-1E+10	1	-1E+10	1	-1E+10	1	-1E+10	1	-1E+10	1	-1E+10	1
4902554	50	C	06/23/2022	07:04	-134.647	49.516	0	117.90	0	6.0370	0	33.0090	0	25.976	0	116.861	0	-1e10	8	-1e10	8	-1E+10	1	-1E+10	1	-1E+10	1	-1E+10	1	-1E+10	1	-1E+10	1
4902554	50	C	06/23/2022	07:04	-134.647	49.516	0	119.00	0	6.0330	0	33.0160	0	25.982	0	117.951	0	-1e10	8	-1e10	8	-1E+10	1	-1E+10	1	-1E+10	1	-1E+10	1	-1E+10	1	-1E+10	1
4902554	50	C	06/23/2022	07:04	-134.647	49.516	0	120.10	0	6.0180	0	33.0400	0	26.003	0	119.041	0	-1e10	8	-1e10	8	-1E+10	1	-1E+10	1	-1E+10	1	-1E+10	1	-1E+10	1	-1E+10	1
4902554	50	C	06/23/2022	07:04	-134.647	49.516	0	121.00	0	5.9940	0	33.0710	0	26.031	0	119.933	0	-1e10	8	-1e10	8	-1E+10	1	-1E+10	1	-1E+10	1	-1E+10	1	-1E+10	1	-1E+10	1
4902554	50	C	06/23/2022	07:04	-134.647	49.516	0	122.00	0	5.9880	0	33.0760	0	26.035	0	120.924	0	-1e10	8	-1e10	8	-1E+10	1	-1E+10	1	-1E+10	1	-1E+10	1	-1E+10	1	-1E+10	1
4902554	50	C	06/23/2022	07:04	-134.647	49.516	0	122.90	0	5.9820	0	33.0840	0	26.042	0	121.816	0	-1e10	8	-1e10	8	-1E+10	1	-1E+10	1	-1E+10	1	-1E+10	1	-1E+10	1	-1E+10	1
4902554	50	C	06/23/2022	07:04	-134.647	49.516	0	123.90	0	5.9750	0	33.0910	0	26.049	0	122.806	0	-1e10	8	-1e10	8	-1E+10	1	-1E+10	1	-1E+10	1	-1E+10	1	-1E+10	1	-1E+10	1
4902554	50	C	06/23/2022	07:04	-134.647	49.516	0	124.90	0	5.9710	0	33.0970	0	26.054	0	123.797	0	-1e10	8	-1e10	8	-1E+10	1	-1E+10	1	-1E+10	1	-1E+10	1	-1E+10	1	-1E+10	1
4902554	50	C	06/23/2022	07:04	-134.647	49.516	0	125.80	0	5.9660	0	33.1030	0	26.059	0	124.689	0	-1e10	8	-1e10	8	-1E+10	1	-1E+10	1	-1E+10	1	-1E+10	1	-1E+10	1	-1E+10	1
4902554	50	C	06/23/2022	07:04	-134.647	49.516	0	127.10	0	5.9620	0	33.1060	0	26.062	0	125.977	0	-1e10	8	-1e10	8	-1E+10	1	-1E+10	1	-1E+10	1	-1E+10	1	-1E+10	1	-1E+10	1
4902554	50	C	06/23/2022	07:04	-134.647	49.516	0	128.00	0	5.9540	0	33.1240	0	26.078	0	126.869	0	-1e10	8	-1e10	8	-1E+10	1	-1E+10	1	-1E+10	1	-1E+10	1	-1E+10	1	-1E+10	1
4902554	50	C	06/23/2022	07:04	-134.647	49.516	0	129.00	0	5.9460	0	33.1370	0	26.089	0	127.860	0	-1e10	8	-1e10	8	-1E+10	1	-1E+10	1	-1E+10	1	-1E+10	1	-1E+10	1	-1E+10	1
4902554	50	C	06/23/2022	07:04	-134.647	49.516	0	130.10	0	5.9190	0	33.1830	0	26.128	0	128.950	0	-1e10	8	-1e10	8	-1E+10	1	-1E+10	1	-1E+10	1	-1E+10	1	-1E+10	1	-1E+10	1
4902554	50	C	06/23/2022	07:04	-134.647	49.516	0	130.80	0	5.9070	0	33.2170	0	26.157	0	129.643	0	-1e10	8	-1e10	8	-1E+10	1	-1E+10	1	-1E+10	1	-1E+10	1	-1E+10	1	-1E+10	1
4902554	50	C	06/23/2022	07:04	-134.647	49.516	0	131.90	0	5.8910	0	33.2570	0	26.190	0	130.733	0	-1e10	8	-1e10	8	-1E+10	1	-1E+10	1	-1E+10	1	-1E+10	1	-1E+10	1	-1E+10	1
4902554	50	C	06/23/2022	07:04	-134.647	49.516	0	133.10	0	5.8840	0	33.2740	0	26.205	0	131.922	0	-1e10	8	-1e10	8	-1E+10	1	-1E+10	1	-1E+10	1	-1E+10	1	-1E+10	1	-1E+10	1
4902554	50	C	06/23/2022	07:04	-134.647	49.516	0	133.90	0	5.8780	0	33.2890	0	26.217	0	132.715	0	-1e10	8	-1e10	8	-1E+10	1	-1E+10	1	-1E+10	1	-1E+10	1	-1E+10	1	-1E+10	1
4902554	50	C	06/23/2022	07:04	-134.647	49.516	0	134.80	0	5.8660	0	33.3180	0	26.242	0	133.607	0	-1e10	8	-1e10	8	-1E+10	1	-1E+10	1	-1E+10	1	-1E+10	1	-1E+10	1	-1E+10	1
4902554	50	C	06/23/2022	07:04	-134.647	49.516	0	135.70	0	5.8580	0	33.3710	0	26.285	0	134.498	0	-1e10	8	-1e10	8	-1E+10	1	-1E+10	1	-1E+10	1	-1E+10	1	-1E+10	1	-1E+10	1
4902554	50	C	06/23/2022	07:04	-134.647	49.516	0	136.60	0	5.8410	0	33.3910	0	26.302	0	135.390	0	-1e10	8	-1e10	8	-1E+10	1	-1E+10	1	-1E+10	1	-1E+10	1	-1E+10	1	-1E+10	1
4902554	50	C	06/23/2022	07:04	-134.647	49.516	0	137.90	0	5.8360	0	33.4080	0	26.316	0	136.678	0	-1e10	8	-1e10	8	-1E+10	1	-1E+10	1	-1E+10	1	-1E+10	1	-1E+10	1	-1E+10	1
4902554	50	C	06/23/2022	07:04	-134.647	49.516	0	139.20	0	5.8250	0	33.4350	0	26.339	0	137.966	0	-1e10	8	-1e10	8	-1E+10	1	-1E+10	1	-1E+10	1	-1E+10	1	-1E+10	1	-1E+10	1
4902554	50	C	06/23/2022	07:04	-134.647	49.516	0	140.20	0	5.8110	0	33.4480	0	26.351	0	138.957	0	-1e10	8	-1e10	8	-1E+10	1	-1E+10	1	-1E+10	1	-1E+10	1	-1E+10	1	-1E+10	1
4902554	50	C	06/23/2022	07:04	-134.647	49.516	0	141.10	0	5.7980	0	33.4590	0	26.361	0	139.849	0	-1e10	8	-1e10	8	-1E+10	1	-1E+10	1	-1E+10	1	-1E+10	1	-1E+10	1	-1E+10	1
4902554	50	C	06/23/2022	07:04	-134.647	49.516	0	142.00	0	5.7590	0	33.4950	0	26.395	0	140.740	0	-1e10	8	-1e10	8	-1E+10	1	-1E+10	1	-1E+10	1	-1E+10	1	-1E+10	1	-1E+10	1
4902554	50	C	06/23/2022	07:04	-134.647	49.516	0	142.90	0	5.7330	0	33.5120	0	26.411	0	141.632	0	-1e10	8	-1e10	8	-1E+10	1	-1E+10	1	-1E+10	1	-1E+10	1	-1E+10	1	-1E+10	1
4902554	50	C	06/23/2022	07:04	-134.647	49.516	0	143.90	0	5.7140	0	33.5290	0	26.427	0	142.623	0	-1e10	8	-1e10	8	-1E+10	1	-1E+10	1	-1E+10	1	-1E+10	1	-1E+10	1	-1E+10	1
4902554	50	C	06/23/2022	07:04	-134.647	49.516	0	144.90	0	5.6920	0	33.5460	0	26.443	0	143.614	0	-1e10	8	-1e10	8	-1E+10	1	-1E+10	1	-1E+10	1	-1E+10	1	-1E+10	1	-1E+10	1
4902554	50	C	06/23/2022	07:04	-134.647	49.516	0	145.90	0	5.6860	0	33.5510	0	26.448	0	144.604	0	-1e10	8	-1e10	8	-1E+10	1	-1E+10	1	-1E+10	1	-1E+10	1	-1E+10	1	-1E+10	1
4902554	50	C	06/23/2022	07:04	-134.647	49.516	0	146.90	0	5.6780	0	33.5610	0	26.457	0	145.595	0	-1e10	8	-1e10	8	-1E+10	1	-1E+10	1	-1E+10	1	-1E+10	1	-1E+10	1	-1E+10	1
4902554	50	C	06/23/2022	07:04	-134.647	49.516	0	147.90	0	5.6740	0	33.5650	0	26.460	0	146.586	0	-1e10	8	-1e10	8	-1E+10	1	-1E+10	1	-1E+10	1	-1E+10	1	-1E+10	1	-1E+10	1
4902554	50	C	06/23/2022	07:04	-134.647	49.516	0	148.90	0	5.6710	0	33.5680	0	26.463	0	147.577	0	-1e10	8	-1e10	8	-1E+10	1	-1E+10	1	-1E+10	1	-1E+10	1	-1E+10	1	-1E+10	1
4902554	50	C	06/23/2022	07:04	-134.647	49.516	0	149.90	0	5.6510	0	33.5890	0	26.482	0	148.568	0	-1e10	8	-1e10	8	-1E+10	1	-1E+10	1	-1E+10	1	-1E+10	1	-1E+10	1	-1E+10	1
4902554	50	C	06/23/2022	07:04	-134.647	49.516	0	150.80	0	5.6500	0	33.5890	0	26.482	0	149.459	0	-1e10	8	-1e10	8	-1E+10	1	-1E+10	1	-1E+10	1	-1E+10	1	-1E+10	1	-1E+10	1
4902554	50	C	06/23/2022	07:04	-134.647	49.516	0	151.80	0	5.6490	0	33.5900	0	26.483	0	150.450	0	-1e10	8	-1e10	8	-1E+10	1	-1E+10	1	-1E+10	1	-1E+10	1	-1E+10	1	-1E+10	1
4902554	50	C	06/23/2022	07:04	-134.647	49.516	0	152.80	0	5.6350	0	33.6100	0	26.501	0	151.441	0	-1e10	8	-1e10	8	-1E+10	1	-1E+10	1	-1E+10	1	-1E+10	1	-1E+10	1	-1E+10	1
4902554	50	C	06/23/2022	07:04	-134.647	49.516	0	153.80	0	5.6370	0	33.6160	0	26.505	0	152.431	0	-1e10	8	-1e10	8	-1E+10	1	-1E+10	1	-1E+10	1	-1E+10	1	-1E+10	1	-1E+10	1
4902554	50	C	06/23/2022	07:04	-134.647	49.516	0	154.80	0	5.6390	0	33.6170	0	26.506	0	153.422	0	-1e10	8	-1e10	8	-1E+10	1	-1E+10	1	-1E+10	1	-1E+10	1	-1E+10	1	-1E+10	1
4902554	50	C	06/23/2022	07:04	-134.647	49.516	0	155.80	0	5.6400	0	33.6180	0	26.506	0	154.413	0	-1e10	8	-1e10	8	-1E+10	1	-1E+10	1	-1E+10	1	-1E+10	1	-1E+10	1	-1E+10	1
4902554	50	C	06/23/2022	07:04	-134.647	49.516	0	156.80	0	5.6390	0	33.6330	0	26.518	0	155.404	0	-1e10	8	-1e10	8	-1E+10	1	-1E+10	1	-1E+10	1	-1E+10	1	-1E+10	1	-1E+10	1
4902554	50	C	06/23/2022	07:04	-134.647	49.516	0	157.80	0	5.6310	0	33.6350	0	26.521	0	156.394	0	-1e10	8	-1e10	8	-1E+10	1	-1E+10	1	-1E+10	1	-1E+10	1	-1E+10	1	-1E+10	1
4902554	50	C	06/23/2022	07:04	-134.647	49.516	0	158.80	0	5.5930	0	33.6380	0	26.528	0	157.385	0	-1e10	8	-1e10	8	-1E+10	1	-1E+10	1	-1E+10	1	-1E+10	1	-1E+10	1	-1E+10	1
4902554	50	C	06/23/2022	07:04	-134.647	49.516	0	159.80	0	5.5770	0	33.6410	0	26.532	0	158.376	0	-1e10	8	-1e10	8	-1E+10	1	-1E+10	1	-1E+10	1	-1E+10	1	-1E+10	1	-1E+10	1
4902554	50	C	06/23/2022	07:04	-134.647	49.516	0	160.80	0	5.5630	0	33.6460	0	26.538	0	159.366	0	-1e10	8	-1e10	8	-1E+10	1	-1E+10	1	-1E+10	1	-1E+10	1	-1E+10	1	-1E+10	1
4902554	50	C	06/23/2022	07:04	-134.647	49.516	0	161.90	0	5.5520	0	33.6500	0	26.542	0	160.456	0	-1e10	8	-1e10	8	-1E+10	1	-1E+10	1	-1E+10	1	-1E+10	1	-1E+10	1	-1E+10	1
4902554	50	C	06/23/2022	07:04	-134.647	49.516	0	162.90	0	5.5490	0	33.6580	0	26.549	0	161.447	0	-1e10	8	-1e10	8	-1E+10	1	-1E+10	1	-1E+10	1	-1E+10	1	-1E+10	1	-1E+10	1
4902554	50	C	06/23/2022	07:04	-134.647	49.516	0	163.90	0	5.5510	0	33.6610	0	26.551	0	162.438	0	-1e10	8	-1e10	8	-1E+10	1	-1E+10	1	-1E+10	1	-1E+10	1	-1E+10	1	-1E+10	1
4902554	50	C	06/23/2022	07:04	-134.647	49.516	0	164.90	0	5.5430	0	33.6640	0	26.555	0	163.428	0	-1e10	8	-1e10	8	-1E+10	1	-1E+10	1	-1E+10	1	-1E+10	1	-1E+10	1	-1E+10	1
4902554	50	C	06/23/2022	07:04	-134.647	49.516	0	165.90	0	5.5440	0	33.6660	0	26.556	0	164.419	0	-1e10	8	-1e10	8	-1E+10	1	-1E+10	1	-1E+10	1	-1E+10	1	-1E+10	1	-1E+10	1
4902554	50	C	06/23/2022	07:04	-134.647	49.516	0	166.90	0	5.5350	0	33.6670	0	26.558	0	165.410	0	-1e10	8	-1e10	8	-1E+10	1	-1E+10	1	-1E+10	1	-1E+10	1	-1E+10	1	-1E+10	1
4902554	50	C	06/23/2022	07:04	-134.647	49.516	0	167.90	0	5.5240	0	33.6680	0	26.560	0	166.400	0	-1e10	8	-1e10	8	-1E+10	1	-1E+10	1	-1E+10	1	-1E+10	1	-1E+10	1	-1E+10	1
4902554	50	C	06/23/2022	07:04	-134.647	49.516	0	168.90	0	5.5010	0	33.6750	0	26.568	0	167.391	0	-1e10	8	-1e10	8	-1E+10	1	-1E+10	1	-1E+10	1	-1E+10	1	-1E+10	1	-1E+10	1
4902554	50	C	06/23/2022	07:04	-134.647	49.516	0	169.80	0	5.4920	0	33.6860	0	26.578	0	168.283	0	-1e10	8	-1e10	8	-1E+10	1	-1E+10	1	-1E+10	1	-1E+10	1	-1E+10	1	-1E+10	1
4902554	50	C	06/23/2022	07:04	-134.647	49.516	0	170.80	0	5.4660	0	33.6880	0	26.583	0	169.273	0	-1e10	8	-1e10	8	-1E+10	1	-1E+10	1	-1E+10	1	-1E+10	1	-1E+10	1	-1E+10	1
4902554	50	C	06/23/2022	07:04	-134.647	49.516	0	171.90	0	5.4590	0	33.6880	0	26.584	0	170.363	0	-1e10	8	-1e10	8	-1E+10	1	-1E+10	1	-1E+10	1	-1E+10	1	-1E+10	1	-1E+10	1
4902554	50	C	06/23/2022	07:04	-134.647	49.516	0	173.00	0	5.4500	0	33.6910	0	26.587	0	171.453	0	-1e10	8	-1e10	8	-1E+10	1	-1E+10	1	-1E+10	1	-1E+10	1	-1E+10	1	-1E+10	1
4902554	50	C	06/23/2022	07:04	-134.647	49.516	0	173.80	0	5.4440	0	33.6930	0	26.589	0	172.245	0	-1e10	8	-1e10	8	-1E+10	1	-1E+10	1	-1E+10	1	-1E+10	1	-1E+10	1	-1E+10	1
4902554	50	C	06/23/2022	07:04	-134.647	49.516	0	175.00	0	5.4350	0	33.7040	0	26.599	0	173.434	0	-1e10	8	-1e10	8	-1E+10	1	-1E+10	1	-1E+10	1	-1E+10	1	-1E+10	1	-1E+10	1
4902554	50	C	06/23/2022	07:04	-134.647	49.516	0	176.20	0	5.4170	0	33.7120	0	26.608	0	174.623	0	-1e10	8	-1e10	8	-1E+10	1	-1E+10	1	-1E+10	1	-1E+10	1	-1E+10	1	-1E+10	1
4902554	50	C	06/23/2022	07:04	-134.647	49.516	0	177.00	0	5.3740	0	33.7140	0	26.614	0	175.415	0	-1e10	8	-1e10	8	-1E+10	1	-1E+10	1	-1E+10	1	-1E+10	1	-1E+10	1	-1E+10	1
4902554	50	C	06/23/2022	07:04	-134.647	49.516	0	177.90	0	5.3620	0	33.7140	0	26.616	0	176.307	0	-1e10	8	-1e10	8	-1E+10	1	-1E+10	1	-1E+10	1	-1E+10	1	-1E+10	1	-1E+10	1
4902554	50	C	06/23/2022	07:04	-134.647	49.516	0	178.60	0	5.3590	0	33.7150	0	26.617	0	177.000	0	-1e10	8	-1e10	8	-1E+10	1	-1E+10	1	-1E+10	1	-1E+10	1	-1E+10	1	-1E+10	1
4902554	50	C	06/23/2022	07:04	-134.647	49.516	0	179.90	0	5.3540	0	33.7200	0	26.621	0	178.288	0	-1e10	8	-1e10	8	-1E+10	1	-1E+10	1	-1E+10	1	-1E+10	1	-1E+10	1	-1E+10	1
4902554	50	C	06/23/2022	07:04	-134.647	49.516	0	181.10	0	5.3480	0	33.7270	0	26.628	0	179.477	0	-1e10	8	-1e10	8	-1E+10	1	-1E+10	1	-1E+10	1	-1E+10	1	-1E+10	1	-1E+10	1
4902554	50	C	06/23/2022	07:04	-134.647	49.516	0	182.00	0	5.3450	0	33.7280	0	26.629	0	180.368	0	-1e10	8	-1e10	8	-1E+10	1	-1E+10	1	-1E+10	1	-1E+10	1	-1E+10	1	-1E+10	1
4902554	50	C	06/23/2022	07:04	-134.647	49.516	0	182.80	0	5.3420	0	33.7290	0	26.630	0	181.161	0	-1e10	8	-1e10	8	-1E+10	1	-1E+10	1	-1E+10	1	-1E+10	1	-1E+10	1	-1E+10	1
4902554	50	C	06/23/2022	07:04	-134.647	49.516	0	183.60	0	5.3410	0	33.7290	0	26.630	0	181.953	0	-1e10	8	-1e10	8	-1E+10	1	-1E+10	1	-1E+10	1	-1E+10	1	-1E+10	1	-1E+10	1
4902554	50	C	06/23/2022	07:04	-134.647	49.516	0	184.90	0	5.3330	0	33.7310	0	26.633	0	183.241	0	-1e10	8	-1e10	8	-1E+10	1	-1E+10	1	-1E+10	1	-1E+10	1	-1E+10	1	-1E+10	1
4902554	50	C	06/23/2022	07:04	-134.647	49.516	0	186.10	0	5.3230	0	33.7340	0	26.636	0	184.430	0	-1e10	8	-1e10	8	-1E+10	1	-1E+10	1	-1E+10	1	-1E+10	1	-1E+10	1	-1E+10	1
4902554	50	C	06/23/2022	07:04	-134.647	49.516	0	187.00	0	5.3060	0	33.7380	0	26.641	0	185.321	0	-1e10	8	-1e10	8	-1E+10	1	-1E+10	1	-1E+10	1	-1E+10	1	-1E+10	1	-1E+10	1
4902554	50	C	06/23/2022	07:04	-134.647	49.516	0	187.80	0	5.3000	0	33.7410	0	26.644	0	186.114	0	-1e10	8	-1e10	8	-1E+10	1	-1E+10	1	-1E+10	1	-1E+10	1	-1E+10	1	-1E+10	1
4902554	50	C	06/23/2022	07:04	-134.647	49.516	0	188.70	0	5.2580	0	33.7410	0	26.649	0	187.005	0	-1e10	8	-1e10	8	-1E+10	1	-1E+10	1	-1E+10	1	-1E+10	1	-1E+10	1	-1E+10	1
4902554	50	C	06/23/2022	07:04	-134.647	49.516	0	190.00	0	5.2520	0	33.7430	0	26.652	0	188.293	0	-1e10	8	-1e10	8	-1E+10	1	-1E+10	1	-1E+10	1	-1E+10	1	-1E+10	1	-1E+10	1
4902554	50	C	06/23/2022	07:04	-134.647	49.516	0	191.30	0	5.2510	0	33.7450	0	26.653	0	189.581	0	-1e10	8	-1e10	8	-1E+10	1	-1E+10	1	-1E+10	1	-1E+10	1	-1E+10	1	-1E+10	1
4902554	50	C	06/23/2022	07:04	-134.647	49.516	0	192.20	0	5.2550	0	33.7470	0	26.654	0	190.472	0	-1e10	8	-1e10	8	-1E+10	1	-1E+10	1	-1E+10	1	-1E+10	1	-1E+10	1	-1E+10	1
4902554	50	C	06/23/2022	07:04	-134.647	49.516	0	193.10	0	5.2480	0	33.7470	0	26.655	0	191.364	0	-1e10	8	-1e10	8	-1E+10	1	-1E+10	1	-1E+10	1	-1E+10	1	-1E+10	1	-1E+10	1
4902554	50	C	06/23/2022	07:04	-134.647	49.516	0	194.00	0	5.2490	0	33.7470	0	26.655	0	192.255	0	-1e10	8	-1e10	8	-1E+10	1	-1E+10	1	-1E+10	1	-1E+10	1	-1E+10	1	-1E+10	1
4902554	50	C	06/23/2022	07:04	-134.647	49.516	0	194.80	0	5.2450	0	33.7470	0	26.656	0	193.047	0	-1e10	8	-1e10	8	-1E+10	1	-1E+10	1	-1E+10	1	-1E+10	1	-1E+10	1	-1E+10	1
4902554	50	C	06/23/2022	07:04	-134.647	49.516	0	195.70	0	5.2330	0	33.7480	0	26.658	0	193.939	0	-1e10	8	-1e10	8	-1E+10	1	-1E+10	1	-1E+10	1	-1E+10	1	-1E+10	1	-1E+10	1
4902554	50	C	06/23/2022	07:04	-134.647	49.516	0	197.00	0	5.1870	0	33.7480	0	26.663	0	195.227	0	-1e10	8	-1e10	8	-1E+10	1	-1E+10	1	-1E+10	1	-1E+10	1	-1E+10	1	-1E+10	1
4902554	50	C	06/23/2022	07:04	-134.647	49.516	0	198.30	0	5.1500	0	33.7550	0	26.673	0	196.514	0	-1e10	8	-1e10	8	-1E+10	1	-1E+10	1	-1E+10	1	-1E+10	1	-1E+10	1	-1E+10	1
4902554	50	C	06/23/2022	07:04	-134.647	49.516	0	199.20	0	5.1290	0	33.7530	0	26.674	0	197.406	0	-1e10	8	-1e10	8	-1E+10	1	-1E+10	1	-1E+10	1	-1E+10	1	-1E+10	1	-1E+10	1
4902554	50	C	06/23/2022	07:04	-134.647	49.516	0	200.00	0	5.1090	0	33.7550	0	26.678	0	198.198	0	-1e10	8	-1e10	8	-1E+10	1	-1E+10	1	-1E+10	1	-1E+10	1	-1E+10	1	-1E+10	1
4902554	50	C	06/23/2022	07:04	-134.647	49.516	0	200.90	0	5.1040	0	33.7540	0	26.677	0	199.090	0	-1e10	8	-1e10	8	-1E+10	1	-1E+10	1	-1E+10	1	-1E+10	1	-1E+10	1	-1E+10	1
4902554	50	C	06/23/2022	07:04	-134.647	49.516	0	201.80	0	5.0970	0	33.7550	0	26.679	0	199.981	0	-1e10	8	-1e10	8	-1E+10	1	-1E+10	1	-1E+10	1	-1E+10	1	-1E+10	1	-1E+10	1
4902554	50	C	06/23/2022	07:04	-134.647	49.516	0	202.70	0	5.0940	0	33.7560	0	26.680	0	200.873	0	-1e10	8	-1e10	8	-1E+10	1	-1E+10	1	-1E+10	1	-1E+10	1	-1E+10	1	-1E+10	1
4902554	50	C	06/23/2022	07:04	-134.647	49.516	0	203.60	0	5.0890	0	33.7570	0	26.682	0	201.764	0	-1e10	8	-1e10	8	-1E+10	1	-1E+10	1	-1E+10	1	-1E+10	1	-1E+10	1	-1E+10	1
4902554	50	C	06/23/2022	07:04	-134.647	49.516	0	204.90	0	5.0670	0	33.7580	0	26.685	0	203.052	0	-1e10	8	-1e10	8	-1E+10	1	-1E+10	1	-1E+10	1	-1E+10	1	-1E+10	1	-1E+10	1
4902554	50	C	06/23/2022	07:04	-134.647	49.516	0	206.30	0	5.0560	0	33.7610	0	26.689	0	204.438	0	-1e10	8	-1e10	8	-1E+10	1	-1E+10	1	-1E+10	1	-1E+10	1	-1E+10	1	-1E+10	1
4902554	50	C	06/23/2022	07:04	-134.647	49.516	0	207.20	0	5.0540	0	33.7610	0	26.689	0	205.330	0	-1e10	8	-1e10	8	-1E+10	1	-1E+10	1	-1E+10	1	-1E+10	1	-1E+10	1	-1E+10	1
4902554	50	C	06/23/2022	07:04	-134.647	49.516	0	208.10	0	5.0520	0	33.7600	0	26.688	0	206.221	0	-1e10	8	-1e10	8	-1E+10	1	-1E+10	1	-1E+10	1	-1E+10	1	-1E+10	1	-1E+10	1
4902554	50	C	06/23/2022	07:04	-134.647	49.516	0	209.00	0	5.0370	0	33.7610	0	26.691	0	207.113	0	-1e10	8	-1e10	8	-1E+10	1	-1E+10	1	-1E+10	1	-1E+10	1	-1E+10	1	-1E+10	1
4902554	50	C	06/23/2022	07:04	-134.647	49.516	0	210.00	0	5.0300	0	33.7630	0	26.693	0	208.103	0	-1e10	8	-1e10	8	-1E+10	1	-1E+10	1	-1E+10	1	-1E+10	1	-1E+10	1	-1E+10	1
4902554	50	C	06/23/2022	07:04	-134.647	49.516	0	210.90	0	5.0290	0	33.7630	0	26.693	0	208.994	0	-1e10	8	-1e10	8	-1E+10	1	-1E+10	1	-1E+10	1	-1E+10	1	-1E+10	1	-1E+10	1
4902554	50	C	06/23/2022	07:04	-134.647	49.516	0	211.80	0	5.0280	0	33.7640	0	26.694	0	209.886	0	-1e10	8	-1e10	8	-1E+10	1	-1E+10	1	-1E+10	1	-1E+10	1	-1E+10	1	-1E+10	1
4902554	50	C	06/23/2022	07:04	-134.647	49.516	0	212.70	0	5.0270	0	33.7640	0	26.694	0	210.777	0	-1e10	8	-1e10	8	-1E+10	1	-1E+10	1	-1E+10	1	-1E+10	1	-1E+10	1	-1E+10	1
4902554	50	C	06/23/2022	07:04	-134.647	49.516	0	213.60	0	5.0260	0	33.7640	0	26.694	0	211.669	0	-1e10	8	-1e10	8	-1E+10	1	-1E+10	1	-1E+10	1	-1E+10	1	-1E+10	1	-1E+10	1
4902554	50	C	06/23/2022	07:04	-134.647	49.516	0	214.60	0	5.0250	0	33.7630	0	26.694	0	212.659	0	-1e10	8	-1e10	8	-1E+10	1	-1E+10	1	-1E+10	1	-1E+10	1	-1E+10	1	-1E+10	1
4902554	50	C	06/23/2022	07:04	-134.647	49.516	0	215.90	0	5.0170	0	33.7640	0	26.695	0	213.947	0	-1e10	8	-1e10	8	-1E+10	1	-1E+10	1	-1E+10	1	-1E+10	1	-1E+10	1	-1E+10	1
4902554	50	C	06/23/2022	07:04	-134.647	49.516	0	217.30	0	5.0130	0	33.7640	0	26.696	0	215.333	0	-1e10	8	-1e10	8	-1E+10	1	-1E+10	1	-1E+10	1	-1E+10	1	-1E+10	1	-1E+10	1
4902554	50	C	06/23/2022	07:04	-134.647	49.516	0	218.20	0	5.0130	0	33.7640	0	26.696	0	216.225	0	-1e10	8	-1e10	8	-1E+10	1	-1E+10	1	-1E+10	1	-1E+10	1	-1E+10	1	-1E+10	1
4902554	50	C	06/23/2022	07:04	-134.647	49.516	0	219.20	0	5.0080	0	33.7640	0	26.696	0	217.215	0	-1e10	8	-1e10	8	-1E+10	1	-1E+10	1	-1E+10	1	-1E+10	1	-1E+10	1	-1E+10	1
4902554	50	C	06/23/2022	07:04	-134.647	49.516	0	220.10	0	5.0000	0	33.7650	0	26.698	0	218.107	0	-1e10	8	-1e10	8	-1E+10	1	-1E+10	1	-1E+10	1	-1E+10	1	-1E+10	1	-1E+10	1
4902554	50	C	06/23/2022	07:04	-134.647	49.516	0	221.00	0	4.9800	0	33.7670	0	26.702	0	218.998	0	-1e10	8	-1e10	8	-1E+10	1	-1E+10	1	-1E+10	1	-1E+10	1	-1E+10	1	-1E+10	1
4902554	50	C	06/23/2022	07:04	-134.647	49.516	0	221.90	0	4.9600	0	33.7710	0	26.707	0	219.889	0	-1e10	8	-1e10	8	-1E+10	1	-1E+10	1	-1E+10	1	-1E+10	1	-1E+10	1	-1E+10	1
4902554	50	C	06/23/2022	07:04	-134.647	49.516	0	222.80	0	4.9520	0	33.7760	0	26.712	0	220.781	0	-1e10	8	-1e10	8	-1E+10	1	-1E+10	1	-1E+10	1	-1E+10	1	-1E+10	1	-1E+10	1
4902554	50	C	06/23/2022	07:04	-134.647	49.516	0	223.80	0	4.9520	0	33.7770	0	26.713	0	221.771	0	-1e10	8	-1e10	8	-1E+10	1	-1E+10	1	-1E+10	1	-1E+10	1	-1E+10	1	-1E+10	1
4902554	50	C	06/23/2022	07:04	-134.647	49.516	0	224.70	0	4.9480	0	33.7790	0	26.715	0	222.662	0	-1e10	8	-1e10	8	-1E+10	1	-1E+10	1	-1E+10	1	-1E+10	1	-1E+10	1	-1E+10	1
4902554	50	C	06/23/2022	07:04	-134.647	49.516	0	225.60	0	4.9380	0	33.7810	0	26.718	0	223.554	0	-1e10	8	-1e10	8	-1E+10	1	-1E+10	1	-1E+10	1	-1E+10	1	-1E+10	1	-1E+10	1
4902554	50	C	06/23/2022	07:04	-134.647	49.516	0	226.60	0	4.9270	0	33.7810	0	26.719	0	224.544	0	-1e10	8	-1e10	8	-1E+10	1	-1E+10	1	-1E+10	1	-1E+10	1	-1E+10	1	-1E+10	1
4902554	50	C	06/23/2022	07:04	-134.647	49.516	0	227.90	0	4.9160	0	33.7830	0	26.722	0	225.832	0	-1e10	8	-1e10	8	-1E+10	1	-1E+10	1	-1E+10	1	-1E+10	1	-1E+10	1	-1E+10	1
4902554	50	C	06/23/2022	07:04	-134.647	49.516	0	229.40	0	4.9060	0	33.7860	0	26.726	0	227.317	0	-1e10	8	-1e10	8	-1E+10	1	-1E+10	1	-1E+10	1	-1E+10	1	-1E+10	1	-1E+10	1
4902554	50	C	06/23/2022	07:04	-134.647	49.516	0	230.30	0	4.8830	0	33.7830	0	26.726	0	228.208	0	-1e10	8	-1e10	8	-1E+10	1	-1E+10	1	-1E+10	1	-1E+10	1	-1E+10	1	-1E+10	1
4902554	50	C	06/23/2022	07:04	-134.647	49.516	0	231.30	0	4.8740	0	33.7850	0	26.728	0	229.199	0	-1e10	8	-1e10	8	-1E+10	1	-1E+10	1	-1E+10	1	-1E+10	1	-1E+10	1	-1E+10	1
4902554	50	C	06/23/2022	07:04	-134.647	49.516	0	232.20	0	4.8670	0	33.7850	0	26.729	0	230.090	0	-1e10	8	-1e10	8	-1E+10	1	-1E+10	1	-1E+10	1	-1E+10	1	-1E+10	1	-1E+10	1
4902554	50	C	06/23/2022	07:04	-134.647	49.516	0	233.20	0	4.8550	0	33.7860	0	26.731	0	231.081	0	-1e10	8	-1e10	8	-1E+10	1	-1E+10	1	-1E+10	1	-1E+10	1	-1E+10	1	-1E+10	1
4902554	50	C	06/23/2022	07:04	-134.647	49.516	0	234.10	0	4.8530	0	33.7860	0	26.731	0	231.972	0	-1e10	8	-1e10	8	-1E+10	1	-1E+10	1	-1E+10	1	-1E+10	1	-1E+10	1	-1E+10	1
4902554	50	C	06/23/2022	07:04	-134.647	49.516	0	235.10	0	4.8500	0	33.7880	0	26.733	0	232.962	0	-1e10	8	-1e10	8	-1E+10	1	-1E+10	1	-1E+10	1	-1E+10	1	-1E+10	1	-1E+10	1
4902554	50	C	06/23/2022	07:04	-134.647	49.516	0	236.00	0	4.8450	0	33.7890	0	26.735	0	233.854	0	-1e10	8	-1e10	8	-1E+10	1	-1E+10	1	-1E+10	1	-1E+10	1	-1E+10	1	-1E+10	1
4902554	50	C	06/23/2022	07:04	-134.647	49.516	0	237.00	0	4.8430	0	33.7900	0	26.736	0	234.844	0	-1e10	8	-1e10	8	-1E+10	1	-1E+10	1	-1E+10	1	-1E+10	1	-1E+10	1	-1E+10	1
4902554	50	C	06/23/2022	07:04	-134.647	49.516	0	237.90	0	4.8430	0	33.7900	0	26.736	0	235.735	0	-1e10	8	-1e10	8	-1E+10	1	-1E+10	1	-1E+10	1	-1E+10	1	-1E+10	1	-1E+10	1
4902554	50	C	06/23/2022	07:04	-134.647	49.516	0	238.90	0	4.8360	0	33.7930	0	26.739	0	236.725	0	-1e10	8	-1e10	8	-1E+10	1	-1E+10	1	-1E+10	1	-1E+10	1	-1E+10	1	-1E+10	1
4902554	50	C	06/23/2022	07:04	-134.647	49.516	0	239.90	0	4.8220	0	33.7960	0	26.743	0	237.716	0	-1e10	8	-1e10	8	-1E+10	1	-1E+10	1	-1E+10	1	-1E+10	1	-1E+10	1	-1E+10	1
4902554	50	C	06/23/2022	07:04	-134.647	49.516	0	240.90	0	4.8150	0	33.7970	0	26.744	0	238.706	0	-1e10	8	-1e10	8	-1E+10	1	-1E+10	1	-1E+10	1	-1E+10	1	-1E+10	1	-1E+10	1
4902554	50	C	06/23/2022	07:04	-134.647	49.516	0	241.80	0	4.8090	0	33.7990	0	26.747	0	239.597	0	-1e10	8	-1e10	8	-1E+10	1	-1E+10	1	-1E+10	1	-1E+10	1	-1E+10	1	-1E+10	1
4902554	50	C	06/23/2022	07:04	-134.647	49.516	0	242.80	0	4.7970	0	33.8000	0	26.749	0	240.588	0	-1e10	8	-1e10	8	-1E+10	1	-1E+10	1	-1E+10	1	-1E+10	1	-1E+10	1	-1E+10	1
4902554	50	C	06/23/2022	07:04	-134.647	49.516	0	243.80	0	4.7980	0	33.8040	0	26.752	0	241.578	0	-1e10	8	-1e10	8	-1E+10	1	-1E+10	1	-1E+10	1	-1E+10	1	-1E+10	1	-1E+10	1
4902554	50	C	06/23/2022	07:04	-134.647	49.516	0	244.80	0	4.7860	0	33.8060	0	26.755	0	242.568	0	-1e10	8	-1e10	8	-1E+10	1	-1E+10	1	-1E+10	1	-1E+10	1	-1E+10	1	-1E+10	1
4902554	50	C	06/23/2022	07:04	-134.647	49.516	0	245.80	0	4.7810	0	33.8050	0	26.755	0	243.559	0	-1e10	8	-1e10	8	-1E+10	1	-1E+10	1	-1E+10	1	-1E+10	1	-1E+10	1	-1E+10	1
4902554	50	C	06/23/2022	07:04	-134.647	49.516	0	246.80	0	4.7770	0	33.8060	0	26.756	0	244.549	0	-1e10	8	-1e10	8	-1E+10	1	-1E+10	1	-1E+10	1	-1E+10	1	-1E+10	1	-1E+10	1
4902554	50	C	06/23/2022	07:04	-134.647	49.516	0	247.70	0	4.7620	0	33.8040	0	26.756	0	245.440	0	-1e10	8	-1e10	8	-1E+10	1	-1E+10	1	-1E+10	1	-1E+10	1	-1E+10	1	-1E+10	1
4902554	50	C	06/23/2022	07:04	-134.647	49.516	0	248.70	0	4.7480	0	33.8070	0	26.760	0	246.430	0	-1e10	8	-1e10	8	-1E+10	1	-1E+10	1	-1E+10	1	-1E+10	1	-1E+10	1	-1E+10	1
4902554	50	C	06/23/2022	07:04	-134.647	49.516	0	249.70	0	4.7320	0	33.8080	0	26.762	0	247.421	0	-1e10	8	-1e10	8	-1E+10	1	-1E+10	1	-1E+10	1	-1E+10	1	-1E+10	1	-1E+10	1
4902554	50	C	06/23/2022	07:04	-134.647	49.516	0	250.70	0	4.7280	0	33.8090	0	26.764	0	248.411	0	-1e10	8	-1e10	8	-1E+10	1	-1E+10	1	-1E+10	1	-1E+10	1	-1E+10	1	-1E+10	1
4902554	50	C	06/23/2022	07:04	-134.647	49.516	0	251.70	0	4.7260	0	33.8090	0	26.764	0	249.401	0	-1e10	8	-1e10	8	-1E+10	1	-1E+10	1	-1E+10	1	-1E+10	1	-1E+10	1	-1E+10	1
4902554	50	C	06/23/2022	07:04	-134.647	49.516	0	252.70	0	4.7220	0	33.8110	0	26.766	0	250.392	0	-1e10	8	-1e10	8	-1E+10	1	-1E+10	1	-1E+10	1	-1E+10	1	-1E+10	1	-1E+10	1
4902554	50	C	06/23/2022	07:04	-134.647	49.516	0	253.70	0	4.7090	0	33.8140	0	26.770	0	251.382	0	-1e10	8	-1e10	8	-1E+10	1	-1E+10	1	-1E+10	1	-1E+10	1	-1E+10	1	-1E+10	1
4902554	50	C	06/23/2022	07:04	-134.647	49.516	0	254.80	0	4.7020	0	33.8140	0	26.771	0	252.471	0	-1e10	8	-1e10	8	-1E+10	1	-1E+10	1	-1E+10	1	-1E+10	1	-1E+10	1	-1E+10	1
4902554	50	C	06/23/2022	07:04	-134.647	49.516	0	255.80	0	4.6980	0	33.8150	0	26.772	0	253.461	0	-1e10	8	-1e10	8	-1E+10	1	-1E+10	1	-1E+10	1	-1E+10	1	-1E+10	1	-1E+10	1
4902554	50	C	06/23/2022	07:04	-134.647	49.516	0	256.80	0	4.6900	0	33.8160	0	26.773	0	254.452	0	-1e10	8	-1e10	8	-1E+10	1	-1E+10	1	-1E+10	1	-1E+10	1	-1E+10	1	-1E+10	1
4902554	50	C	06/23/2022	07:04	-134.647	49.516	0	257.80	0	4.6850	0	33.8170	0	26.775	0	255.442	0	-1e10	8	-1e10	8	-1E+10	1	-1E+10	1	-1E+10	1	-1E+10	1	-1E+10	1	-1E+10	1
4902554	50	C	06/23/2022	07:04	-134.647	49.516	0	258.80	0	4.6750	0	33.8190	0	26.778	0	256.432	0	-1e10	8	-1e10	8	-1E+10	1	-1E+10	1	-1E+10	1	-1E+10	1	-1E+10	1	-1E+10	1
4902554	50	C	06/23/2022	07:04	-134.647	49.516	0	259.80	0	4.6720	0	33.8200	0	26.779	0	257.422	0	-1e10	8	-1e10	8	-1E+10	1	-1E+10	1	-1E+10	1	-1E+10	1	-1E+10	1	-1E+10	1
4902554	50	C	06/23/2022	07:04	-134.647	49.516	0	260.90	0	4.6540	0	33.8240	0	26.784	0	258.511	0	-1e10	8	-1e10	8	-1E+10	1	-1E+10	1	-1E+10	1	-1E+10	1	-1E+10	1	-1E+10	1
4902554	50	C	06/23/2022	07:04	-134.647	49.516	0	261.90	0	4.6430	0	33.8250	0	26.786	0	259.502	0	-1e10	8	-1e10	8	-1E+10	1	-1E+10	1	-1E+10	1	-1E+10	1	-1E+10	1	-1E+10	1
4902554	50	C	06/23/2022	07:04	-134.647	49.516	0	263.00	0	4.6370	0	33.8260	0	26.787	0	260.591	0	-1e10	8	-1e10	8	-1E+10	1	-1E+10	1	-1E+10	1	-1E+10	1	-1E+10	1	-1E+10	1
4902554	50	C	06/23/2022	07:04	-134.647	49.516	0	264.00	0	4.6360	0	33.8260	0	26.787	0	261.581	0	-1e10	8	-1e10	8	-1E+10	1	-1E+10	1	-1E+10	1	-1E+10	1	-1E+10	1	-1E+10	1
4902554	50	C	06/23/2022	07:04	-134.647	49.516	0	265.00	0	4.6360	0	33.8260	0	26.787	0	262.571	0	-1e10	8	-1e10	8	-1E+10	1	-1E+10	1	-1E+10	1	-1E+10	1	-1E+10	1	-1E+10	1
4902554	50	C	06/23/2022	07:04	-134.647	49.516	0	266.10	0	4.6350	0	33.8260	0	26.787	0	263.661	0	-1e10	8	-1e10	8	-1E+10	1	-1E+10	1	-1E+10	1	-1E+10	1	-1E+10	1	-1E+10	1
4902554	50	C	06/23/2022	07:04	-134.647	49.516	0	267.10	0	4.6340	0	33.8260	0	26.788	0	264.651	0	-1e10	8	-1e10	8	-1E+10	1	-1E+10	1	-1E+10	1	-1E+10	1	-1E+10	1	-1E+10	1
4902554	50	C	06/23/2022	07:04	-134.647	49.516	0	268.20	0	4.6340	0	33.8260	0	26.788	0	265.740	0	-1e10	8	-1e10	8	-1E+10	1	-1E+10	1	-1E+10	1	-1E+10	1	-1E+10	1	-1E+10	1
4902554	50	C	06/23/2022	07:04	-134.647	49.516	0	269.30	0	4.6320	0	33.8260	0	26.788	0	266.829	0	-1e10	8	-1e10	8	-1E+10	1	-1E+10	1	-1E+10	1	-1E+10	1	-1E+10	1	-1E+10	1
4902554	50	C	06/23/2022	07:04	-134.647	49.516	0	270.30	0	4.6280	0	33.8260	0	26.788	0	267.819	0	-1e10	8	-1e10	8	-1E+10	1	-1E+10	1	-1E+10	1	-1E+10	1	-1E+10	1	-1E+10	1
4902554	50	C	06/23/2022	07:04	-134.647	49.516	0	271.40	0	4.6210	0	33.8280	0	26.791	0	268.909	0	-1e10	8	-1e10	8	-1E+10	1	-1E+10	1	-1E+10	1	-1E+10	1	-1E+10	1	-1E+10	1
4902554	50	C	06/23/2022	07:04	-134.647	49.516	0	272.40	0	4.6130	0	33.8280	0	26.792	0	269.899	0	-1e10	8	-1e10	8	-1E+10	1	-1E+10	1	-1E+10	1	-1E+10	1	-1E+10	1	-1E+10	1
4902554	50	C	06/23/2022	07:04	-134.647	49.516	0	273.50	0	4.6040	0	33.8280	0	26.793	0	270.988	0	-1e10	8	-1e10	8	-1E+10	1	-1E+10	1	-1E+10	1	-1E+10	1	-1E+10	1	-1E+10	1
4902554	50	C	06/23/2022	07:04	-134.647	49.516	0	274.50	0	4.5990	0	33.8280	0	26.793	0	271.978	0	-1e10	8	-1e10	8	-1E+10	1	-1E+10	1	-1E+10	1	-1E+10	1	-1E+10	1	-1E+10	1
4902554	50	C	06/23/2022	07:04	-134.647	49.516	0	275.60	0	4.5960	0	33.8290	0	26.794	0	273.067	0	-1e10	8	-1e10	8	-1E+10	1	-1E+10	1	-1E+10	1	-1E+10	1	-1E+10	1	-1E+10	1
4902554	50	C	06/23/2022	07:04	-134.647	49.516	0	276.60	0	4.5890	0	33.8290	0	26.795	0	274.057	0	-1e10	8	-1e10	8	-1E+10	1	-1E+10	1	-1E+10	1	-1E+10	1	-1E+10	1	-1E+10	1
4902554	50	C	06/23/2022	07:04	-134.647	49.516	0	277.70	0	4.5810	0	33.8300	0	26.797	0	275.147	0	-1e10	8	-1e10	8	-1E+10	1	-1E+10	1	-1E+10	1	-1E+10	1	-1E+10	1	-1E+10	1
4902554	50	C	06/23/2022	07:04	-134.647	49.516	0	278.70	0	4.5760	0	33.8310	0	26.798	0	276.137	0	-1e10	8	-1e10	8	-1E+10	1	-1E+10	1	-1E+10	1	-1E+10	1	-1E+10	1	-1E+10	1
4902554	50	C	06/23/2022	07:04	-134.647	49.516	0	279.70	0	4.5740	0	33.8310	0	26.798	0	277.127	0	-1e10	8	-1e10	8	-1E+10	1	-1E+10	1	-1E+10	1	-1E+10	1	-1E+10	1	-1E+10	1
4902554	50	C	06/23/2022	07:04	-134.647	49.516	0	280.70	0	4.5720	0	33.8320	0	26.799	0	278.117	0	-1e10	8	-1e10	8	-1E+10	1	-1E+10	1	-1E+10	1	-1E+10	1	-1E+10	1	-1E+10	1
4902554	50	C	06/23/2022	07:04	-134.647	49.516	0	281.70	0	4.5650	0	33.8330	0	26.801	0	279.107	0	-1e10	8	-1e10	8	-1E+10	1	-1E+10	1	-1E+10	1	-1E+10	1	-1E+10	1	-1E+10	1
4902554	50	C	06/23/2022	07:04	-134.647	49.516	0	282.70	0	4.5550	0	33.8350	0	26.803	0	280.097	0	-1e10	8	-1e10	8	-1E+10	1	-1E+10	1	-1E+10	1	-1E+10	1	-1E+10	1	-1E+10	1
4902554	50	C	06/23/2022	07:04	-134.647	49.516	0	283.70	0	4.5500	0	33.8360	0	26.805	0	281.087	0	-1e10	8	-1e10	8	-1E+10	1	-1E+10	1	-1E+10	1	-1E+10	1	-1E+10	1	-1E+10	1
4902554	50	C	06/23/2022	07:04	-134.647	49.516	0	284.80	0	4.5470	0	33.8360	0	26.805	0	282.176	0	-1e10	8	-1e10	8	-1E+10	1	-1E+10	1	-1E+10	1	-1E+10	1	-1E+10	1	-1E+10	1
4902554	50	C	06/23/2022	07:04	-134.647	49.516	0	285.70	0	4.5330	0	33.8400	0	26.810	0	283.068	0	-1e10	8	-1e10	8	-1E+10	1	-1E+10	1	-1E+10	1	-1E+10	1	-1E+10	1	-1E+10	1
4902554	50	C	06/23/2022	07:04	-134.647	49.516	0	286.70	0	4.5250	0	33.8420	0	26.812	0	284.058	0	-1e10	8	-1e10	8	-1E+10	1	-1E+10	1	-1E+10	1	-1E+10	1	-1E+10	1	-1E+10	1
4902554	50	C	06/23/2022	07:04	-134.647	49.516	0	287.70	0	4.5250	0	33.8420	0	26.812	0	285.048	0	-1e10	8	-1e10	8	-1E+10	1	-1E+10	1	-1E+10	1	-1E+10	1	-1E+10	1	-1E+10	1
4902554	50	C	06/23/2022	07:04	-134.647	49.516	0	288.70	0	4.5250	0	33.8410	0	26.811	0	286.038	0	-1e10	8	-1e10	8	-1E+10	1	-1E+10	1	-1E+10	1	-1E+10	1	-1E+10	1	-1E+10	1
4902554	50	C	06/23/2022	07:04	-134.647	49.516	0	289.70	0	4.5250	0	33.8410	0	26.811	0	287.028	0	-1e10	8	-1e10	8	-1E+10	1	-1E+10	1	-1E+10	1	-1E+10	1	-1E+10	1	-1E+10	1
4902554	50	C	06/23/2022	07:04	-134.647	49.516	0	290.80	0	4.5180	0	33.8430	0	26.814	0	288.117	0	-1e10	8	-1e10	8	-1E+10	1	-1E+10	1	-1E+10	1	-1E+10	1	-1E+10	1	-1E+10	1
4902554	50	C	06/23/2022	07:04	-134.647	49.516	0	291.80	0	4.5100	0	33.8440	0	26.816	0	289.107	0	-1e10	8	-1e10	8	-1E+10	1	-1E+10	1	-1E+10	1	-1E+10	1	-1E+10	1	-1E+10	1
4902554	50	C	06/23/2022	07:04	-134.647	49.516	0	292.90	0	4.5010	0	33.8460	0	26.818	0	290.196	0	-1e10	8	-1e10	8	-1E+10	1	-1E+10	1	-1E+10	1	-1E+10	1	-1E+10	1	-1E+10	1
4902554	50	C	06/23/2022	07:04	-134.647	49.516	0	293.90	0	4.4990	0	33.8460	0	26.818	0	291.186	0	-1e10	8	-1e10	8	-1E+10	1	-1E+10	1	-1E+10	1	-1E+10	1	-1E+10	1	-1E+10	1
4902554	50	C	06/23/2022	07:04	-134.647	49.516	0	294.90	0	4.4960	0	33.8470	0	26.819	0	292.176	0	-1e10	8	-1e10	8	-1E+10	1	-1E+10	1	-1E+10	1	-1E+10	1	-1E+10	1	-1E+10	1
4902554	50	C	06/23/2022	07:04	-134.647	49.516	0	296.00	0	4.4950	0	33.8470	0	26.820	0	293.265	0	-1e10	8	-1e10	8	-1E+10	1	-1E+10	1	-1E+10	1	-1E+10	1	-1E+10	1	-1E+10	1
4902554	50	C	06/23/2022	07:04	-134.647	49.516	0	297.00	0	4.4930	0	33.8480	0	26.821	0	294.255	0	-1e10	8	-1e10	8	-1E+10	1	-1E+10	1	-1E+10	1	-1E+10	1	-1E+10	1	-1E+10	1
4902554	50	C	06/23/2022	07:04	-134.647	49.516	0	298.10	0	4.4910	0	33.8490	0	26.822	0	295.344	0	-1e10	8	-1e10	8	-1E+10	1	-1E+10	1	-1E+10	1	-1E+10	1	-1E+10	1	-1E+10	1
4902554	50	C	06/23/2022	07:04	-134.647	49.516	0	299.10	0	4.4880	0	33.8500	0	26.823	0	296.334	0	-1e10	8	-1e10	8	-1E+10	1	-1E+10	1	-1E+10	1	-1E+10	1	-1E+10	1	-1E+10	1
4902554	50	C	06/23/2022	07:04	-134.647	49.516	0	300.10	0	4.4880	0	33.8500	0	26.823	0	297.324	0	-1e10	8	-1e10	8	-1E+10	1	-1E+10	1	-1E+10	1	-1E+10	1	-1E+10	1	-1E+10	1
4902554	50	C	06/23/2022	07:04	-134.647	49.516	0	301.20	0	4.4860	0	33.8510	0	26.824	0	298.414	0	-1e10	8	-1e10	8	-1E+10	1	-1E+10	1	-1E+10	1	-1E+10	1	-1E+10	1	-1E+10	1
4902554	50	C	06/23/2022	07:04	-134.647	49.516	0	302.20	0	4.4860	0	33.8510	0	26.824	0	299.404	0	-1e10	8	-1e10	8	-1E+10	1	-1E+10	1	-1E+10	1	-1E+10	1	-1E+10	1	-1E+10	1
4902554	50	C	06/23/2022	07:04	-134.647	49.516	0	303.30	0	4.4840	0	33.8510	0	26.824	0	300.493	0	-1e10	8	-1e10	8	-1E+10	1	-1E+10	1	-1E+10	1	-1E+10	1	-1E+10	1	-1E+10	1
4902554	50	C	06/23/2022	07:04	-134.647	49.516	0	304.30	0	4.4840	0	33.8510	0	26.824	0	301.483	0	-1e10	8	-1e10	8	-1E+10	1	-1E+10	1	-1E+10	1	-1E+10	1	-1E+10	1	-1E+10	1
4902554	50	C	06/23/2022	07:04	-134.647	49.516	0	305.30	0	4.4840	0	33.8500	0	26.823	0	302.473	0	-1e10	8	-1e10	8	-1E+10	1	-1E+10	1	-1E+10	1	-1E+10	1	-1E+10	1	-1E+10	1
4902554	50	C	06/23/2022	07:04	-134.647	49.516	0	306.40	0	4.4840	0	33.8510	0	26.824	0	303.562	0	-1e10	8	-1e10	8	-1E+10	1	-1E+10	1	-1E+10	1	-1E+10	1	-1E+10	1	-1E+10	1
4902554	50	C	06/23/2022	07:04	-134.647	49.516	0	307.40	0	4.4830	0	33.8510	0	26.824	0	304.552	0	-1e10	8	-1e10	8	-1E+10	1	-1E+10	1	-1E+10	1	-1E+10	1	-1E+10	1	-1E+10	1
4902554	50	C	06/23/2022	07:04	-134.647	49.516	0	308.40	0	4.4830	0	33.8510	0	26.824	0	305.542	0	-1e10	8	-1e10	8	-1E+10	1	-1E+10	1	-1E+10	1	-1E+10	1	-1E+10	1	-1E+10	1
4902554	50	C	06/23/2022	07:04	-134.647	49.516	0	309.50	0	4.4800	0	33.8520	0	26.825	0	306.631	0	-1e10	8	-1e10	8	-1E+10	1	-1E+10	1	-1E+10	1	-1E+10	1	-1E+10	1	-1E+10	1
4902554	50	C	06/23/2022	07:04	-134.647	49.516	0	310.50	0	4.4790	0	33.8520	0	26.825	0	307.621	0	-1e10	8	-1e10	8	-1E+10	1	-1E+10	1	-1E+10	1	-1E+10	1	-1E+10	1	-1E+10	1
4902554	50	C	06/23/2022	07:04	-134.647	49.516	0	311.50	0	4.4710	0	33.8550	0	26.829	0	308.611	0	-1e10	8	-1e10	8	-1E+10	1	-1E+10	1	-1E+10	1	-1E+10	1	-1E+10	1	-1E+10	1
4902554	50	C	06/23/2022	07:04	-134.647	49.516	0	312.50	0	4.4680	0	33.8560	0	26.830	0	309.601	0	-1e10	8	-1e10	8	-1E+10	1	-1E+10	1	-1E+10	1	-1E+10	1	-1E+10	1	-1E+10	1
4902554	50	C	06/23/2022	07:04	-134.647	49.516	0	313.60	0	4.4580	0	33.8610	0	26.835	0	310.690	0	-1e10	8	-1e10	8	-1E+10	1	-1E+10	1	-1E+10	1	-1E+10	1	-1E+10	1	-1E+10	1
4902554	50	C	06/23/2022	07:04	-134.647	49.516	0	314.60	0	4.4580	0	33.8600	0	26.834	0	311.679	0	-1e10	8	-1e10	8	-1E+10	1	-1E+10	1	-1E+10	1	-1E+10	1	-1E+10	1	-1E+10	1
4902554	50	C	06/23/2022	07:04	-134.647	49.516	0	315.70	0	4.4490	0	33.8630	0	26.837	0	312.768	0	-1e10	8	-1e10	8	-1E+10	1	-1E+10	1	-1E+10	1	-1E+10	1	-1E+10	1	-1E+10	1
4902554	50	C	06/23/2022	07:04	-134.647	49.516	0	316.70	0	4.4440	0	33.8640	0	26.839	0	313.758	0	-1e10	8	-1e10	8	-1E+10	1	-1E+10	1	-1E+10	1	-1E+10	1	-1E+10	1	-1E+10	1
4902554	50	C	06/23/2022	07:04	-134.647	49.516	0	317.80	0	4.4380	0	33.8650	0	26.840	0	314.847	0	-1e10	8	-1e10	8	-1E+10	1	-1E+10	1	-1E+10	1	-1E+10	1	-1E+10	1	-1E+10	1
4902554	50	C	06/23/2022	07:04	-134.647	49.516	0	318.80	0	4.4350	0	33.8670	0	26.842	0	315.837	0	-1e10	8	-1e10	8	-1E+10	1	-1E+10	1	-1E+10	1	-1E+10	1	-1E+10	1	-1E+10	1
4902554	50	C	06/23/2022	07:04	-134.647	49.516	0	319.90	0	4.4320	0	33.8690	0	26.844	0	316.926	0	-1e10	8	-1e10	8	-1E+10	1	-1E+10	1	-1E+10	1	-1E+10	1	-1E+10	1	-1E+10	1
4902554	50	C	06/23/2022	07:04	-134.647	49.516	0	320.90	0	4.4270	0	33.8710	0	26.846	0	317.916	0	-1e10	8	-1e10	8	-1E+10	1	-1E+10	1	-1E+10	1	-1E+10	1	-1E+10	1	-1E+10	1
4902554	50	C	06/23/2022	07:04	-134.647	49.516	0	322.00	0	4.4240	0	33.8710	0	26.846	0	319.005	0	-1e10	8	-1e10	8	-1E+10	1	-1E+10	1	-1E+10	1	-1E+10	1	-1E+10	1	-1E+10	1
4902554	50	C	06/23/2022	07:04	-134.647	49.516	0	323.00	0	4.4240	0	33.8710	0	26.846	0	319.995	0	-1e10	8	-1e10	8	-1E+10	1	-1E+10	1	-1E+10	1	-1E+10	1	-1E+10	1	-1E+10	1
4902554	50	C	06/23/2022	07:04	-134.647	49.516	0	324.10	0	4.4210	0	33.8710	0	26.847	0	321.084	0	-1e10	8	-1e10	8	-1E+10	1	-1E+10	1	-1E+10	1	-1E+10	1	-1E+10	1	-1E+10	1
4902554	50	C	06/23/2022	07:04	-134.647	49.516	0	325.20	0	4.4180	0	33.8720	0	26.848	0	322.173	0	-1e10	8	-1e10	8	-1E+10	1	-1E+10	1	-1E+10	1	-1E+10	1	-1E+10	1	-1E+10	1
4902554	50	C	06/23/2022	07:04	-134.647	49.516	0	326.30	0	4.4070	0	33.8770	0	26.853	0	323.262	0	-1e10	8	-1e10	8	-1E+10	1	-1E+10	1	-1E+10	1	-1E+10	1	-1E+10	1	-1E+10	1
4902554	50	C	06/23/2022	07:04	-134.647	49.516	0	327.30	0	4.3940	0	33.8830	0	26.859	0	324.252	0	-1e10	8	-1e10	8	-1E+10	1	-1E+10	1	-1E+10	1	-1E+10	1	-1E+10	1	-1E+10	1
4902554	50	C	06/23/2022	07:04	-134.647	49.516	0	328.40	0	4.3910	0	33.8840	0	26.860	0	325.341	0	-1e10	8	-1e10	8	-1E+10	1	-1E+10	1	-1E+10	1	-1E+10	1	-1E+10	1	-1E+10	1
4902554	50	C	06/23/2022	07:04	-134.647	49.516	0	329.50	0	4.3900	0	33.8850	0	26.861	0	326.429	0	-1e10	8	-1e10	8	-1E+10	1	-1E+10	1	-1E+10	1	-1E+10	1	-1E+10	1	-1E+10	1
4902554	50	C	06/23/2022	07:04	-134.647	49.516	0	330.50	0	4.3900	0	33.8850	0	26.861	0	327.419	0	-1e10	8	-1e10	8	-1E+10	1	-1E+10	1	-1E+10	1	-1E+10	1	-1E+10	1	-1E+10	1
4902554	50	C	06/23/2022	07:04	-134.647	49.516	0	331.50	0	4.3890	0	33.8860	0	26.862	0	328.409	0	-1e10	8	-1e10	8	-1E+10	1	-1E+10	1	-1E+10	1	-1E+10	1	-1E+10	1	-1E+10	1
4902554	50	C	06/23/2022	07:04	-134.647	49.516	0	332.90	0	4.3860	0	33.8870	0	26.863	0	329.795	0	-1e10	8	-1e10	8	-1E+10	1	-1E+10	1	-1E+10	1	-1E+10	1	-1E+10	1	-1E+10	1
4902554	50	C	06/23/2022	07:04	-134.647	49.516	0	334.10	0	4.3850	0	33.8890	0	26.865	0	330.983	0	-1e10	8	-1e10	8	-1E+10	1	-1E+10	1	-1E+10	1	-1E+10	1	-1E+10	1	-1E+10	1
4902554	50	C	06/23/2022	07:04	-134.647	49.516	0	335.00	0	4.3830	0	33.8900	0	26.866	0	331.874	0	-1e10	8	-1e10	8	-1E+10	1	-1E+10	1	-1E+10	1	-1E+10	1	-1E+10	1	-1E+10	1
4902554	50	C	06/23/2022	07:04	-134.647	49.516	0	335.80	0	4.3830	0	33.8910	0	26.867	0	332.666	0	-1e10	8	-1e10	8	-1E+10	1	-1E+10	1	-1E+10	1	-1E+10	1	-1E+10	1	-1E+10	1
4902554	50	C	06/23/2022	07:04	-134.647	49.516	0	337.00	0	4.3810	0	33.8910	0	26.867	0	333.853	0	-1e10	8	-1e10	8	-1E+10	1	-1E+10	1	-1E+10	1	-1E+10	1	-1E+10	1	-1E+10	1
4902554	50	C	06/23/2022	07:04	-134.647	49.516	0	338.20	0	4.3800	0	33.8920	0	26.868	0	335.041	0	-1e10	8	-1e10	8	-1E+10	1	-1E+10	1	-1E+10	1	-1E+10	1	-1E+10	1	-1E+10	1
4902554	50	C	06/23/2022	07:04	-134.647	49.516	0	339.00	0	4.3730	0	33.8970	0	26.873	0	335.833	0	-1e10	8	-1e10	8	-1E+10	1	-1E+10	1	-1E+10	1	-1E+10	1	-1E+10	1	-1E+10	1
4902554	50	C	06/23/2022	07:04	-134.647	49.516	0	339.90	0	4.3710	0	33.8980	0	26.874	0	336.724	0	-1e10	8	-1e10	8	-1E+10	1	-1E+10	1	-1E+10	1	-1E+10	1	-1E+10	1	-1E+10	1
4902554	50	C	06/23/2022	07:04	-134.647	49.516	0	340.70	0	4.3700	0	33.8990	0	26.875	0	337.516	0	-1e10	8	-1e10	8	-1E+10	1	-1E+10	1	-1E+10	1	-1E+10	1	-1E+10	1	-1E+10	1
4902554	50	C	06/23/2022	07:04	-134.647	49.516	0	341.90	0	4.3690	0	33.9000	0	26.875	0	338.704	0	-1e10	8	-1e10	8	-1E+10	1	-1E+10	1	-1E+10	1	-1E+10	1	-1E+10	1	-1E+10	1
4902554	50	C	06/23/2022	07:04	-134.647	49.516	0	343.20	0	4.3670	0	33.9010	0	26.876	0	339.991	0	-1e10	8	-1e10	8	-1E+10	1	-1E+10	1	-1E+10	1	-1E+10	1	-1E+10	1	-1E+10	1
4902554	50	C	06/23/2022	07:04	-134.647	49.516	0	344.10	0	4.3660	0	33.9010	0	26.877	0	340.881	0	-1e10	8	-1e10	8	-1E+10	1	-1E+10	1	-1E+10	1	-1E+10	1	-1E+10	1	-1E+10	1
4902554	50	C	06/23/2022	07:04	-134.647	49.516	0	344.90	0	4.3630	0	33.9030	0	26.878	0	341.673	0	-1e10	8	-1e10	8	-1E+10	1	-1E+10	1	-1E+10	1	-1E+10	1	-1E+10	1	-1E+10	1
4902554	50	C	06/23/2022	07:04	-134.647	49.516	0	345.80	0	4.3570	0	33.9060	0	26.881	0	342.564	0	-1e10	8	-1e10	8	-1E+10	1	-1E+10	1	-1E+10	1	-1E+10	1	-1E+10	1	-1E+10	1
4902554	50	C	06/23/2022	07:04	-134.647	49.516	0	346.60	0	4.3540	0	33.9080	0	26.883	0	343.356	0	-1e10	8	-1e10	8	-1E+10	1	-1E+10	1	-1E+10	1	-1E+10	1	-1E+10	1	-1E+10	1
4902554	50	C	06/23/2022	07:04	-134.647	49.516	0	347.90	0	4.3530	0	33.9090	0	26.884	0	344.643	0	-1e10	8	-1e10	8	-1E+10	1	-1E+10	1	-1E+10	1	-1E+10	1	-1E+10	1	-1E+10	1
4902554	50	C	06/23/2022	07:04	-134.647	49.516	0	349.30	0	4.3510	0	33.9110	0	26.886	0	346.028	0	-1e10	8	-1e10	8	-1E+10	1	-1E+10	1	-1E+10	1	-1E+10	1	-1E+10	1	-1E+10	1
4902554	50	C	06/23/2022	07:04	-134.647	49.516	0	350.20	0	4.3500	0	33.9120	0	26.887	0	346.919	0	-1e10	8	-1e10	8	-1E+10	1	-1E+10	1	-1E+10	1	-1E+10	1	-1E+10	1	-1E+10	1
4902554	50	C	06/23/2022	07:04	-134.647	49.516	0	352.80	0	4.3500	0	33.9140	0	26.889	0	349.493	0	-1e10	8	-1e10	8	-1E+10	1	-1E+10	1	-1E+10	1	-1E+10	1	-1E+10	1	-1E+10	1
4902554	50	C	06/23/2022	07:04	-134.647	49.516	0	357.70	0	4.3500	0	33.9230	0	26.896	0	354.343	0	-1e10	8	-1e10	8	-1E+10	1	-1E+10	1	-1E+10	1	-1E+10	1	-1E+10	1	-1E+10	1
4902554	50	C	06/23/2022	07:04	-134.647	49.516	0	363.00	0	4.3430	0	33.9290	0	26.901	0	359.588	0	-1e10	8	-1e10	8	-1E+10	1	-1E+10	1	-1E+10	1	-1E+10	1	-1E+10	1	-1E+10	1
4902554	50	C	06/23/2022	07:04	-134.647	49.516	0	368.00	0	4.3370	0	33.9350	0	26.907	0	364.537	0	-1e10	8	-1e10	8	-1E+10	1	-1E+10	1	-1E+10	1	-1E+10	1	-1E+10	1	-1E+10	1
4902554	50	C	06/23/2022	07:04	-134.647	49.516	0	373.10	0	4.3330	0	33.9400	0	26.911	0	369.584	0	-1e10	8	-1e10	8	-1E+10	1	-1E+10	1	-1E+10	1	-1E+10	1	-1E+10	1	-1E+10	1
4902554	50	C	06/23/2022	07:04	-134.647	49.516	0	378.10	0	4.3280	0	33.9440	0	26.915	0	374.533	0	-1e10	8	-1e10	8	-1E+10	1	-1E+10	1	-1E+10	1	-1E+10	1	-1E+10	1	-1E+10	1
4902554	50	C	06/23/2022	07:04	-134.647	49.516	0	383.00	0	4.3240	0	33.9480	0	26.919	0	379.382	0	-1e10	8	-1e10	8	-1E+10	1	-1E+10	1	-1E+10	1	-1E+10	1	-1E+10	1	-1E+10	1
4902554	50	C	06/23/2022	07:04	-134.647	49.516	0	388.00	0	4.3180	0	33.9570	0	26.926	0	384.330	0	-1e10	8	-1e10	8	-1E+10	1	-1E+10	1	-1E+10	1	-1E+10	1	-1E+10	1	-1E+10	1
4902554	50	C	06/23/2022	07:04	-134.647	49.516	0	392.90	0	4.3130	0	33.9620	0	26.931	0	389.179	0	-1e10	8	-1e10	8	-1E+10	1	-1E+10	1	-1E+10	1	-1E+10	1	-1E+10	1	-1E+10	1
4902554	50	C	06/23/2022	07:04	-134.647	49.516	0	397.90	0	4.3080	0	33.9680	0	26.936	0	394.127	0	-1e10	8	-1e10	8	-1E+10	1	-1E+10	1	-1E+10	1	-1E+10	1	-1E+10	1	-1E+10	1
4902554	50	C	06/23/2022	07:04	-134.647	49.516	0	402.90	0	4.3080	0	33.9730	0	26.940	0	399.075	0	-1e10	8	-1e10	8	-1E+10	1	-1E+10	1	-1E+10	1	-1E+10	1	-1E+10	1	-1E+10	1
4902554	50	C	06/23/2022	07:04	-134.647	49.516	0	408.00	0	4.3020	0	33.9770	0	26.944	0	404.121	0	-1e10	8	-1e10	8	-1E+10	1	-1E+10	1	-1E+10	1	-1E+10	1	-1E+10	1	-1E+10	1
4902554	50	C	06/23/2022	07:04	-134.647	49.516	0	413.00	0	4.2930	0	33.9850	0	26.952	0	409.069	0	-1e10	8	-1e10	8	-1E+10	1	-1E+10	1	-1E+10	1	-1E+10	1	-1E+10	1	-1E+10	1
4902554	50	C	06/23/2022	07:04	-134.647	49.516	0	418.00	0	4.2900	0	33.9890	0	26.955	0	414.016	0	-1e10	8	-1e10	8	-1E+10	1	-1E+10	1	-1E+10	1	-1E+10	1	-1E+10	1	-1E+10	1
4902554	50	C	06/23/2022	07:04	-134.647	49.516	0	423.00	0	4.2770	0	33.9970	0	26.963	0	418.964	0	-1e10	8	-1e10	8	-1E+10	1	-1E+10	1	-1E+10	1	-1E+10	1	-1E+10	1	-1E+10	1
4902554	50	C	06/23/2022	07:04	-134.647	49.516	0	428.10	0	4.2700	0	34.0030	0	26.968	0	424.010	0	-1e10	8	-1e10	8	-1E+10	1	-1E+10	1	-1E+10	1	-1E+10	1	-1E+10	1	-1E+10	1
4902554	50	C	06/23/2022	07:04	-134.647	49.516	0	432.70	0	4.2630	0	34.0070	0	26.972	0	428.561	0	-1e10	8	-1e10	8	-1E+10	1	-1E+10	1	-1E+10	1	-1E+10	1	-1E+10	1	-1E+10	1
4902554	50	C	06/23/2022	07:04	-134.647	49.516	0	437.80	0	4.2550	0	34.0120	0	26.977	0	433.607	0	-1e10	8	-1e10	8	-1E+10	1	-1E+10	1	-1E+10	1	-1E+10	1	-1E+10	1	-1E+10	1
4902554	50	C	06/23/2022	07:04	-134.647	49.516	0	443.00	0	4.2460	0	34.0160	0	26.981	0	438.752	0	-1e10	8	-1e10	8	-1E+10	1	-1E+10	1	-1E+10	1	-1E+10	1	-1E+10	1	-1E+10	1
4902554	50	C	06/23/2022	07:04	-134.647	49.516	0	447.80	0	4.2360	0	34.0210	0	26.986	0	443.501	0	-1e10	8	-1e10	8	-1E+10	1	-1E+10	1	-1E+10	1	-1E+10	1	-1E+10	1	-1E+10	1
4902554	50	C	06/23/2022	07:04	-134.647	49.516	0	452.60	0	4.2280	0	34.0260	0	26.991	0	448.249	0	-1e10	8	-1e10	8	-1E+10	1	-1E+10	1	-1E+10	1	-1E+10	1	-1E+10	1	-1E+10	1
4902554	50	C	06/23/2022	07:04	-134.647	49.516	0	457.50	0	4.2190	0	34.0300	0	26.995	0	453.097	0	-1e10	8	-1e10	8	-1E+10	1	-1E+10	1	-1E+10	1	-1E+10	1	-1E+10	1	-1E+10	1
4902554	50	C	06/23/2022	07:04	-134.647	49.516	0	462.80	0	4.2100	0	34.0350	0	27.000	0	458.340	0	-1e10	8	-1e10	8	-1E+10	1	-1E+10	1	-1E+10	1	-1E+10	1	-1E+10	1	-1E+10	1
4902554	50	C	06/23/2022	07:04	-134.647	49.516	0	468.10	0	4.1980	0	34.0420	0	27.007	0	463.583	0	-1e10	8	-1e10	8	-1E+10	1	-1E+10	1	-1E+10	1	-1E+10	1	-1E+10	1	-1E+10	1
4902554	50	C	06/23/2022	07:04	-134.647	49.516	0	472.90	0	4.1930	0	34.0460	0	27.011	0	468.331	0	-1e10	8	-1e10	8	-1E+10	1	-1E+10	1	-1E+10	1	-1E+10	1	-1E+10	1	-1E+10	1
4902554	50	C	06/23/2022	07:04	-134.647	49.516	0	477.80	0	4.1760	0	34.0550	0	27.020	0	473.178	0	-1e10	8	-1e10	8	-1E+10	1	-1E+10	1	-1E+10	1	-1E+10	1	-1E+10	1	-1E+10	1
4902554	50	C	06/23/2022	07:04	-134.647	49.516	0	482.70	0	4.1660	0	34.0600	0	27.025	0	478.025	0	-1e10	8	-1e10	8	-1E+10	1	-1E+10	1	-1E+10	1	-1E+10	1	-1E+10	1	-1E+10	1
4902554	50	C	06/23/2022	07:04	-134.647	49.516	0	487.70	0	4.1540	0	34.0640	0	27.029	0	482.971	0	-1e10	8	-1e10	8	-1E+10	1	-1E+10	1	-1E+10	1	-1E+10	1	-1E+10	1	-1E+10	1
4902554	50	C	06/23/2022	07:04	-134.647	49.516	0	492.60	0	4.1430	0	34.0680	0	27.034	0	487.818	0	-1e10	8	-1e10	8	-1E+10	1	-1E+10	1	-1E+10	1	-1E+10	1	-1E+10	1	-1E+10	1
4902554	50	C	06/23/2022	07:04	-134.647	49.516	0	497.60	0	4.1320	0	34.0720	0	27.038	0	492.763	0	-1e10	8	-1e10	8	-1E+10	1	-1E+10	1	-1E+10	1	-1E+10	1	-1E+10	1	-1E+10	1
4902554	50	C	06/23/2022	07:04	-134.647	49.516	0	502.60	0	4.1150	0	34.0770	0	27.044	0	497.709	0	-1e10	8	-1e10	8	-1E+10	1	-1E+10	1	-1E+10	1	-1E+10	1	-1E+10	1	-1E+10	1
4902554	50	C	06/23/2022	07:04	-134.647	49.516	0	507.70	0	4.0910	0	34.0850	0	27.053	0	502.753	0	-1e10	8	-1e10	8	-1E+10	1	-1E+10	1	-1E+10	1	-1E+10	1	-1E+10	1	-1E+10	1
4902554	50	C	06/23/2022	07:04	-134.647	49.516	0	512.90	0	4.0730	0	34.0910	0	27.059	0	507.896	0	-1e10	8	-1e10	8	-1E+10	1	-1E+10	1	-1E+10	1	-1E+10	1	-1E+10	1	-1E+10	1
4902554	50	C	06/23/2022	07:04	-134.647	49.516	0	517.90	0	4.0650	0	34.0950	0	27.063	0	512.841	0	-1e10	8	-1e10	8	-1E+10	1	-1E+10	1	-1E+10	1	-1E+10	1	-1E+10	1	-1E+10	1
4902554	50	C	06/23/2022	07:04	-134.647	49.516	0	522.70	0	4.0590	0	34.0980	0	27.067	0	517.588	0	-1e10	8	-1e10	8	-1E+10	1	-1E+10	1	-1E+10	1	-1E+10	1	-1E+10	1	-1E+10	1
4902554	50	C	06/23/2022	07:04	-134.647	49.516	0	527.60	0	4.0530	0	34.1010	0	27.070	0	522.434	0	-1e10	8	-1e10	8	-1E+10	1	-1E+10	1	-1E+10	1	-1E+10	1	-1E+10	1	-1E+10	1
4902554	50	C	06/23/2022	07:04	-134.647	49.516	0	532.70	0	4.0490	0	34.1030	0	27.072	0	527.478	0	-1e10	8	-1e10	8	-1E+10	1	-1E+10	1	-1E+10	1	-1E+10	1	-1E+10	1	-1E+10	1
4902554	50	C	06/23/2022	07:04	-134.647	49.516	0	537.90	0	4.0350	0	34.1090	0	27.078	0	532.620	0	-1e10	8	-1e10	8	-1E+10	1	-1E+10	1	-1E+10	1	-1E+10	1	-1E+10	1	-1E+10	1
4902554	50	C	06/23/2022	07:04	-134.647	49.516	0	542.80	0	4.0230	0	34.1130	0	27.082	0	537.466	0	-1e10	8	-1e10	8	-1E+10	1	-1E+10	1	-1E+10	1	-1E+10	1	-1E+10	1	-1E+10	1
4902554	50	C	06/23/2022	07:04	-134.647	49.516	0	547.70	0	4.0120	0	34.1170	0	27.087	0	542.311	0	-1e10	8	-1e10	8	-1E+10	1	-1E+10	1	-1E+10	1	-1E+10	1	-1E+10	1	-1E+10	1
4902554	50	C	06/23/2022	07:04	-134.647	49.516	0	552.80	0	3.9950	0	34.1250	0	27.095	0	547.354	0	-1e10	8	-1e10	8	-1E+10	1	-1E+10	1	-1E+10	1	-1E+10	1	-1E+10	1	-1E+10	1
4902554	50	C	06/23/2022	07:04	-134.647	49.516	0	558.00	0	3.9870	0	34.1290	0	27.099	0	552.496	0	-1e10	8	-1e10	8	-1E+10	1	-1E+10	1	-1E+10	1	-1E+10	1	-1E+10	1	-1E+10	1
4902554	50	C	06/23/2022	07:04	-134.647	49.516	0	563.30	0	3.9770	0	34.1340	0	27.104	0	557.737	0	-1e10	8	-1e10	8	-1E+10	1	-1E+10	1	-1E+10	1	-1E+10	1	-1E+10	1	-1E+10	1
4902554	50	C	06/23/2022	07:04	-134.647	49.516	0	568.20	0	3.9700	0	34.1370	0	27.107	0	562.582	0	-1e10	8	-1e10	8	-1E+10	1	-1E+10	1	-1E+10	1	-1E+10	1	-1E+10	1	-1E+10	1
4902554	50	C	06/23/2022	07:04	-134.647	49.516	0	573.10	0	3.9630	0	34.1400	0	27.110	0	567.426	0	-1e10	8	-1e10	8	-1E+10	1	-1E+10	1	-1E+10	1	-1E+10	1	-1E+10	1	-1E+10	1
4902554	50	C	06/23/2022	07:04	-134.647	49.516	0	578.00	0	3.9610	0	34.1430	0	27.113	0	572.271	0	-1e10	8	-1e10	8	-1E+10	1	-1E+10	1	-1E+10	1	-1E+10	1	-1E+10	1	-1E+10	1
4902554	50	C	06/23/2022	07:04	-134.647	49.516	0	582.90	0	3.9580	0	34.1460	0	27.115	0	577.116	0	-1e10	8	-1e10	8	-1E+10	1	-1E+10	1	-1E+10	1	-1E+10	1	-1E+10	1	-1E+10	1
4902554	50	C	06/23/2022	07:04	-134.647	49.516	0	587.90	0	3.9540	0	34.1480	0	27.117	0	582.059	0	-1e10	8	-1e10	8	-1E+10	1	-1E+10	1	-1E+10	1	-1E+10	1	-1E+10	1	-1E+10	1
4902554	50	C	06/23/2022	07:04	-134.647	49.516	0	592.90	0	3.9430	0	34.1530	0	27.123	0	587.003	0	-1e10	8	-1e10	8	-1E+10	1	-1E+10	1	-1E+10	1	-1E+10	1	-1E+10	1	-1E+10	1
4902554	50	C	06/23/2022	07:04	-134.647	49.516	0	597.90	0	3.9320	0	34.1580	0	27.128	0	591.946	0	-1e10	8	-1e10	8	-1E+10	1	-1E+10	1	-1E+10	1	-1E+10	1	-1E+10	1	-1E+10	1
4902554	50	C	06/23/2022	07:04	-134.647	49.516	0	602.80	0	3.9230	0	34.1620	0	27.132	0	596.790	0	-1e10	8	-1e10	8	-1E+10	1	-1E+10	1	-1E+10	1	-1E+10	1	-1E+10	1	-1E+10	1
4902554	50	C	06/23/2022	07:04	-134.647	49.516	0	607.70	0	3.9080	0	34.1670	0	27.137	0	601.634	0	-1e10	8	-1e10	8	-1E+10	1	-1E+10	1	-1E+10	1	-1E+10	1	-1E+10	1	-1E+10	1
4902554	50	C	06/23/2022	07:04	-134.647	49.516	0	612.60	0	3.8950	0	34.1730	0	27.144	0	606.478	0	-1e10	8	-1e10	8	-1E+10	1	-1E+10	1	-1E+10	1	-1E+10	1	-1E+10	1	-1E+10	1
4902554	50	C	06/23/2022	07:04	-134.647	49.516	0	617.50	0	3.8830	0	34.1770	0	27.148	0	611.322	0	-1e10	8	-1e10	8	-1E+10	1	-1E+10	1	-1E+10	1	-1E+10	1	-1E+10	1	-1E+10	1
4902554	50	C	06/23/2022	07:04	-134.647	49.516	0	622.90	0	3.8740	0	34.1800	0	27.151	0	616.660	0	-1e10	8	-1e10	8	-1E+10	1	-1E+10	1	-1E+10	1	-1E+10	1	-1E+10	1	-1E+10	1
4902554	50	C	06/23/2022	07:04	-134.647	49.516	0	628.30	0	3.8640	0	34.1840	0	27.155	0	621.998	0	-1e10	8	-1e10	8	-1E+10	1	-1E+10	1	-1E+10	1	-1E+10	1	-1E+10	1	-1E+10	1
4902554	50	C	06/23/2022	07:04	-134.647	49.516	0	633.10	0	3.8570	0	34.1860	0	27.158	0	626.742	0	-1e10	8	-1e10	8	-1E+10	1	-1E+10	1	-1E+10	1	-1E+10	1	-1E+10	1	-1E+10	1
4902554	50	C	06/23/2022	07:04	-134.647	49.516	0	638.10	0	3.8430	0	34.1910	0	27.163	0	631.684	0	-1e10	8	-1e10	8	-1E+10	1	-1E+10	1	-1E+10	1	-1E+10	1	-1E+10	1	-1E+10	1
4902554	50	C	06/23/2022	07:04	-134.647	49.516	0	643.00	0	3.8320	0	34.1950	0	27.168	0	636.528	0	-1e10	8	-1e10	8	-1E+10	1	-1E+10	1	-1E+10	1	-1E+10	1	-1E+10	1	-1E+10	1
4902554	50	C	06/23/2022	07:04	-134.647	49.516	0	647.90	0	3.8240	0	34.1980	0	27.171	0	641.371	0	-1e10	8	-1e10	8	-1E+10	1	-1E+10	1	-1E+10	1	-1E+10	1	-1E+10	1	-1E+10	1
4902554	50	C	06/23/2022	07:04	-134.647	49.516	0	652.80	0	3.8130	0	34.2010	0	27.174	0	646.214	0	-1e10	8	-1e10	8	-1E+10	1	-1E+10	1	-1E+10	1	-1E+10	1	-1E+10	1	-1E+10	1
4902554	50	C	06/23/2022	07:04	-134.647	49.516	0	657.80	0	3.8040	0	34.2040	0	27.178	0	651.156	0	-1e10	8	-1e10	8	-1E+10	1	-1E+10	1	-1E+10	1	-1E+10	1	-1E+10	1	-1E+10	1
4902554	50	C	06/23/2022	07:04	-134.647	49.516	0	662.90	0	3.7930	0	34.2080	0	27.182	0	656.196	0	-1e10	8	-1e10	8	-1E+10	1	-1E+10	1	-1E+10	1	-1E+10	1	-1E+10	1	-1E+10	1
4902554	50	C	06/23/2022	07:04	-134.647	49.516	0	668.10	0	3.7810	0	34.2110	0	27.186	0	661.335	0	-1e10	8	-1e10	8	-1E+10	1	-1E+10	1	-1E+10	1	-1E+10	1	-1E+10	1	-1E+10	1
4902554	50	C	06/23/2022	07:04	-134.647	49.516	0	673.30	0	3.7700	0	34.2130	0	27.188	0	666.474	0	-1e10	8	-1e10	8	-1E+10	1	-1E+10	1	-1E+10	1	-1E+10	1	-1E+10	1	-1E+10	1
4902554	50	C	06/23/2022	07:04	-134.647	49.516	0	677.90	0	3.7550	0	34.2170	0	27.193	0	671.020	0	-1e10	8	-1e10	8	-1E+10	1	-1E+10	1	-1E+10	1	-1E+10	1	-1E+10	1	-1E+10	1
4902554	50	C	06/23/2022	07:04	-134.647	49.516	0	682.60	0	3.7450	0	34.2190	0	27.196	0	675.665	0	-1e10	8	-1e10	8	-1E+10	1	-1E+10	1	-1E+10	1	-1E+10	1	-1E+10	1	-1E+10	1
4902554	50	C	06/23/2022	07:04	-134.647	49.516	0	687.90	0	3.7250	0	34.2230	0	27.201	0	680.902	0	-1e10	8	-1e10	8	-1E+10	1	-1E+10	1	-1E+10	1	-1E+10	1	-1E+10	1	-1E+10	1
4902554	50	C	06/23/2022	07:04	-134.647	49.516	0	693.20	0	3.7160	0	34.2250	0	27.203	0	686.140	0	-1e10	8	-1e10	8	-1E+10	1	-1E+10	1	-1E+10	1	-1E+10	1	-1E+10	1	-1E+10	1
4902554	50	C	06/23/2022	07:04	-134.647	49.516	0	697.90	0	3.7100	0	34.2260	0	27.205	0	690.784	0	-1e10	8	-1e10	8	-1E+10	1	-1E+10	1	-1E+10	1	-1E+10	1	-1E+10	1	-1E+10	1
4902554	50	C	06/23/2022	07:04	-134.647	49.516	0	702.60	0	3.6970	0	34.2290	0	27.208	0	695.428	0	-1e10	8	-1e10	8	-1E+10	1	-1E+10	1	-1E+10	1	-1E+10	1	-1E+10	1	-1E+10	1
4902554	50	C	06/23/2022	07:04	-134.647	49.516	0	707.90	0	3.6910	0	34.2300	0	27.210	0	700.665	0	-1e10	8	-1e10	8	-1E+10	1	-1E+10	1	-1E+10	1	-1E+10	1	-1E+10	1	-1E+10	1
4902554	50	C	06/23/2022	07:04	-134.647	49.516	0	712.80	0	3.6660	0	34.2370	0	27.218	0	705.507	0	-1e10	8	-1e10	8	-1E+10	1	-1E+10	1	-1E+10	1	-1E+10	1	-1E+10	1	-1E+10	1
4902554	50	C	06/23/2022	07:04	-134.647	49.516	0	717.70	0	3.6610	0	34.2380	0	27.219	0	710.349	0	-1e10	8	-1e10	8	-1E+10	1	-1E+10	1	-1E+10	1	-1E+10	1	-1E+10	1	-1E+10	1
4902554	50	C	06/23/2022	07:04	-134.647	49.516	0	723.10	0	3.6540	0	34.2400	0	27.222	0	715.684	0	-1e10	8	-1e10	8	-1E+10	1	-1E+10	1	-1E+10	1	-1E+10	1	-1E+10	1	-1E+10	1
4902554	50	C	06/23/2022	07:04	-134.647	49.516	0	728.00	0	3.6440	0	34.2430	0	27.225	0	720.525	0	-1e10	8	-1e10	8	-1E+10	1	-1E+10	1	-1E+10	1	-1E+10	1	-1E+10	1	-1E+10	1
4902554	50	C	06/23/2022	07:04	-134.647	49.516	0	733.00	0	3.6260	0	34.2460	0	27.229	0	725.465	0	-1e10	8	-1e10	8	-1E+10	1	-1E+10	1	-1E+10	1	-1E+10	1	-1E+10	1	-1E+10	1
4902554	50	C	06/23/2022	07:04	-134.647	49.516	0	738.10	0	3.6090	0	34.2480	0	27.232	0	730.504	0	-1e10	8	-1e10	8	-1E+10	1	-1E+10	1	-1E+10	1	-1E+10	1	-1E+10	1	-1E+10	1
4902554	50	C	06/23/2022	07:04	-134.647	49.516	0	743.00	0	3.5990	0	34.2520	0	27.237	0	735.345	0	-1e10	8	-1e10	8	-1E+10	1	-1E+10	1	-1E+10	1	-1E+10	1	-1E+10	1	-1E+10	1
4902554	50	C	06/23/2022	07:04	-134.647	49.516	0	748.00	0	3.5910	0	34.2540	0	27.239	0	740.284	0	-1e10	8	-1e10	8	-1E+10	1	-1E+10	1	-1E+10	1	-1E+10	1	-1E+10	1	-1E+10	1
4902554	50	C	06/23/2022	07:04	-134.647	49.516	0	753.00	0	3.5830	0	34.2570	0	27.242	0	745.224	0	-1e10	8	-1e10	8	-1E+10	1	-1E+10	1	-1E+10	1	-1E+10	1	-1E+10	1	-1E+10	1
4902554	50	C	06/23/2022	07:04	-134.647	49.516	0	758.00	0	3.5720	0	34.2600	0	27.246	0	750.163	0	-1e10	8	-1e10	8	-1E+10	1	-1E+10	1	-1E+10	1	-1E+10	1	-1E+10	1	-1E+10	1
4902554	50	C	06/23/2022	07:04	-134.647	49.516	0	763.10	0	3.5620	0	34.2620	0	27.248	0	755.201	0	-1e10	8	-1e10	8	-1E+10	1	-1E+10	1	-1E+10	1	-1E+10	1	-1E+10	1	-1E+10	1
4902554	50	C	06/23/2022	07:04	-134.647	49.516	0	768.10	0	3.5510	0	34.2650	0	27.252	0	760.140	0	-1e10	8	-1e10	8	-1E+10	1	-1E+10	1	-1E+10	1	-1E+10	1	-1E+10	1	-1E+10	1
4902554	50	C	06/23/2022	07:04	-134.647	49.516	0	772.70	0	3.5450	0	34.2660	0	27.253	0	764.684	0	-1e10	8	-1e10	8	-1E+10	1	-1E+10	1	-1E+10	1	-1E+10	1	-1E+10	1	-1E+10	1
4902554	50	C	06/23/2022	07:04	-134.647	49.516	0	777.70	0	3.5340	0	34.2680	0	27.256	0	769.623	0	-1e10	8	-1e10	8	-1E+10	1	-1E+10	1	-1E+10	1	-1E+10	1	-1E+10	1	-1E+10	1
4902554	50	C	06/23/2022	07:04	-134.647	49.516	0	782.70	0	3.5190	0	34.2710	0	27.260	0	774.562	0	-1e10	8	-1e10	8	-1E+10	1	-1E+10	1	-1E+10	1	-1E+10	1	-1E+10	1	-1E+10	1
4902554	50	C	06/23/2022	07:04	-134.647	49.516	0	787.70	0	3.4960	0	34.2720	0	27.263	0	779.501	0	-1e10	8	-1e10	8	-1E+10	1	-1E+10	1	-1E+10	1	-1E+10	1	-1E+10	1	-1E+10	1
4902554	50	C	06/23/2022	07:04	-134.647	49.516	0	792.70	0	3.4880	0	34.2740	0	27.265	0	784.439	0	-1e10	8	-1e10	8	-1E+10	1	-1E+10	1	-1E+10	1	-1E+10	1	-1E+10	1	-1E+10	1
4902554	50	C	06/23/2022	07:04	-134.647	49.516	0	797.70	0	3.4700	0	34.2750	0	27.268	0	789.378	0	-1e10	8	-1e10	8	-1E+10	1	-1E+10	1	-1E+10	1	-1E+10	1	-1E+10	1	-1E+10	1
4902554	50	C	06/23/2022	07:04	-134.647	49.516	0	802.70	0	3.4410	0	34.2780	0	27.273	0	794.316	0	-1e10	8	-1e10	8	-1E+10	1	-1E+10	1	-1E+10	1	-1E+10	1	-1E+10	1	-1E+10	1
4902554	50	C	06/23/2022	07:04	-134.647	49.516	0	807.70	0	3.4290	0	34.2810	0	27.276	0	799.254	0	-1e10	8	-1e10	8	-1E+10	1	-1E+10	1	-1E+10	1	-1E+10	1	-1E+10	1	-1E+10	1
4902554	50	C	06/23/2022	07:04	-134.647	49.516	0	812.70	0	3.4150	0	34.2850	0	27.281	0	804.192	0	-1e10	8	-1e10	8	-1E+10	1	-1E+10	1	-1E+10	1	-1E+10	1	-1E+10	1	-1E+10	1
4902554	50	C	06/23/2022	07:04	-134.647	49.516	0	817.70	0	3.4050	0	34.2870	0	27.284	0	809.130	0	-1e10	8	-1e10	8	-1E+10	1	-1E+10	1	-1E+10	1	-1E+10	1	-1E+10	1	-1E+10	1
4902554	50	C	06/23/2022	07:04	-134.647	49.516	0	822.70	0	3.4000	0	34.2920	0	27.288	0	814.068	0	-1e10	8	-1e10	8	-1E+10	1	-1E+10	1	-1E+10	1	-1E+10	1	-1E+10	1	-1E+10	1
4902554	50	C	06/23/2022	07:04	-134.647	49.516	0	827.90	0	3.3870	0	34.2930	0	27.290	0	819.204	0	-1e10	8	-1e10	8	-1E+10	1	-1E+10	1	-1E+10	1	-1E+10	1	-1E+10	1	-1E+10	1
4902554	50	C	06/23/2022	07:04	-134.647	49.516	0	833.10	0	3.3710	0	34.2970	0	27.295	0	824.339	0	-1e10	8	-1e10	8	-1E+10	1	-1E+10	1	-1E+10	1	-1E+10	1	-1E+10	1	-1E+10	1
4902554	50	C	06/23/2022	07:04	-134.647	49.516	0	838.00	0	3.3580	0	34.3000	0	27.299	0	829.177	0	-1e10	8	-1e10	8	-1E+10	1	-1E+10	1	-1E+10	1	-1E+10	1	-1E+10	1	-1E+10	1
4902554	50	C	06/23/2022	07:04	-134.647	49.516	0	842.80	0	3.3580	0	34.3030	0	27.301	0	833.917	0	-1e10	8	-1e10	8	-1E+10	1	-1E+10	1	-1E+10	1	-1E+10	1	-1E+10	1	-1E+10	1
4902554	50	C	06/23/2022	07:04	-134.647	49.516	0	847.80	0	3.3510	0	34.3050	0	27.303	0	838.855	0	-1e10	8	-1e10	8	-1E+10	1	-1E+10	1	-1E+10	1	-1E+10	1	-1E+10	1	-1E+10	1
4902554	50	C	06/23/2022	07:04	-134.647	49.516	0	852.80	0	3.3390	0	34.3070	0	27.306	0	843.792	0	-1e10	8	-1e10	8	-1E+10	1	-1E+10	1	-1E+10	1	-1E+10	1	-1E+10	1	-1E+10	1
4902554	50	C	06/23/2022	07:04	-134.647	49.516	0	858.00	0	3.3190	0	34.3120	0	27.312	0	848.926	0	-1e10	8	-1e10	8	-1E+10	1	-1E+10	1	-1E+10	1	-1E+10	1	-1E+10	1	-1E+10	1
4902554	50	C	06/23/2022	07:04	-134.647	49.516	0	863.10	0	3.3030	0	34.3150	0	27.316	0	853.962	0	-1e10	8	-1e10	8	-1E+10	1	-1E+10	1	-1E+10	1	-1E+10	1	-1E+10	1	-1E+10	1
4902554	50	C	06/23/2022	07:04	-134.647	49.516	0	867.90	0	3.2980	0	34.3160	0	27.317	0	858.701	0	-1e10	8	-1e10	8	-1E+10	1	-1E+10	1	-1E+10	1	-1E+10	1	-1E+10	1	-1E+10	1
4902554	50	C	06/23/2022	07:04	-134.647	49.516	0	872.80	0	3.2930	0	34.3170	0	27.318	0	863.539	0	-1e10	8	-1e10	8	-1E+10	1	-1E+10	1	-1E+10	1	-1E+10	1	-1E+10	1	-1E+10	1
4902554	50	C	06/23/2022	07:04	-134.647	49.516	0	877.80	0	3.2870	0	34.3170	0	27.319	0	868.476	0	-1e10	8	-1e10	8	-1E+10	1	-1E+10	1	-1E+10	1	-1E+10	1	-1E+10	1	-1E+10	1
4902554	50	C	06/23/2022	07:04	-134.647	49.516	0	882.90	0	3.2750	0	34.3180	0	27.321	0	873.511	0	-1e10	8	-1e10	8	-1E+10	1	-1E+10	1	-1E+10	1	-1E+10	1	-1E+10	1	-1E+10	1
4902554	50	C	06/23/2022	07:04	-134.647	49.516	0	888.00	0	3.2680	0	34.3200	0	27.323	0	878.546	0	-1e10	8	-1e10	8	-1E+10	1	-1E+10	1	-1E+10	1	-1E+10	1	-1E+10	1	-1E+10	1
4902554	50	C	06/23/2022	07:04	-134.647	49.516	0	893.10	0	3.2590	0	34.3220	0	27.326	0	883.581	0	-1e10	8	-1e10	8	-1E+10	1	-1E+10	1	-1E+10	1	-1E+10	1	-1E+10	1	-1E+10	1
4902554	50	C	06/23/2022	07:04	-134.647	49.516	0	897.90	0	3.2540	0	34.3240	0	27.328	0	888.320	0	-1e10	8	-1e10	8	-1E+10	1	-1E+10	1	-1E+10	1	-1E+10	1	-1E+10	1	-1E+10	1
4902554	50	C	06/23/2022	07:04	-134.647	49.516	0	902.70	0	3.2500	0	34.3240	0	27.328	0	893.058	0	-1e10	8	-1e10	8	-1E+10	1	-1E+10	1	-1E+10	1	-1E+10	1	-1E+10	1	-1E+10	1
4902554	50	C	06/23/2022	07:04	-134.647	49.516	0	908.00	0	3.2410	0	34.3260	0	27.331	0	898.290	0	-1e10	8	-1e10	8	-1E+10	1	-1E+10	1	-1E+10	1	-1E+10	1	-1E+10	1	-1E+10	1
4902554	50	C	06/23/2022	07:04	-134.647	49.516	0	912.90	0	3.2250	0	34.3290	0	27.335	0	903.127	0	-1e10	8	-1e10	8	-1E+10	1	-1E+10	1	-1E+10	1	-1E+10	1	-1E+10	1	-1E+10	1
4902554	50	C	06/23/2022	07:04	-134.647	49.516	0	917.90	0	3.2100	0	34.3320	0	27.338	0	908.063	0	-1e10	8	-1e10	8	-1E+10	1	-1E+10	1	-1E+10	1	-1E+10	1	-1E+10	1	-1E+10	1
4902554	50	C	06/23/2022	07:04	-134.647	49.516	0	922.90	0	3.1920	0	34.3350	0	27.342	0	912.998	0	-1e10	8	-1e10	8	-1E+10	1	-1E+10	1	-1E+10	1	-1E+10	1	-1E+10	1	-1E+10	1
4902554	50	C	06/23/2022	07:04	-134.647	49.516	0	928.00	0	3.1850	0	34.3360	0	27.344	0	918.032	0	-1e10	8	-1e10	8	-1E+10	1	-1E+10	1	-1E+10	1	-1E+10	1	-1E+10	1	-1E+10	1
4902554	50	C	06/23/2022	07:04	-134.647	49.516	0	933.00	0	3.1740	0	34.3380	0	27.347	0	922.968	0	-1e10	8	-1e10	8	-1E+10	1	-1E+10	1	-1E+10	1	-1E+10	1	-1E+10	1	-1E+10	1
4902554	50	C	06/23/2022	07:04	-134.647	49.516	0	937.60	0	3.1670	0	34.3390	0	27.348	0	927.508	0	-1e10	8	-1e10	8	-1E+10	1	-1E+10	1	-1E+10	1	-1E+10	1	-1E+10	1	-1E+10	1
4902554	50	C	06/23/2022	07:04	-134.647	49.516	0	942.80	0	3.1620	0	34.3400	0	27.349	0	932.641	0	-1e10	8	-1e10	8	-1E+10	1	-1E+10	1	-1E+10	1	-1E+10	1	-1E+10	1	-1E+10	1
4902554	50	C	06/23/2022	07:04	-134.647	49.516	0	947.90	0	3.1580	0	34.3410	0	27.351	0	937.674	0	-1e10	8	-1e10	8	-1E+10	1	-1E+10	1	-1E+10	1	-1E+10	1	-1E+10	1	-1E+10	1
4902554	50	C	06/23/2022	07:04	-134.647	49.516	0	953.00	0	3.1520	0	34.3430	0	27.353	0	942.708	0	-1e10	8	-1e10	8	-1E+10	1	-1E+10	1	-1E+10	1	-1E+10	1	-1E+10	1	-1E+10	1
4902554	50	C	06/23/2022	07:04	-134.647	49.516	0	958.00	0	3.1420	0	34.3450	0	27.355	0	947.642	0	-1e10	8	-1e10	8	-1E+10	1	-1E+10	1	-1E+10	1	-1E+10	1	-1E+10	1	-1E+10	1
4902554	50	C	06/23/2022	07:04	-134.647	49.516	0	962.60	0	3.1300	0	34.3470	0	27.358	0	952.182	0	-1e10	8	-1e10	8	-1E+10	1	-1E+10	1	-1E+10	1	-1E+10	1	-1E+10	1	-1E+10	1
4902554	50	C	06/23/2022	07:04	-134.647	49.516	0	967.70	0	3.1210	0	34.3480	0	27.360	0	957.215	0	-1e10	8	-1e10	8	-1E+10	1	-1E+10	1	-1E+10	1	-1E+10	1	-1E+10	1	-1E+10	1
4902554	50	C	06/23/2022	07:04	-134.647	49.516	0	972.80	0	3.1080	0	34.3510	0	27.363	0	962.248	0	-1e10	8	-1e10	8	-1E+10	1	-1E+10	1	-1E+10	1	-1E+10	1	-1E+10	1	-1E+10	1
4902554	50	C	06/23/2022	07:04	-134.647	49.516	0	977.80	0	3.1050	0	34.3520	0	27.364	0	967.183	0	-1e10	8	-1e10	8	-1E+10	1	-1E+10	1	-1E+10	1	-1E+10	1	-1E+10	1	-1E+10	1
4902554	50	C	06/23/2022	07:04	-134.647	49.516	0	982.80	0	3.0950	0	34.3540	0	27.367	0	972.117	0	-1e10	8	-1e10	8	-1E+10	1	-1E+10	1	-1E+10	1	-1E+10	1	-1E+10	1	-1E+10	1
4902554	50	C	06/23/2022	07:04	-134.647	49.516	0	987.70	0	3.0910	0	34.3550	0	27.368	0	976.952	0	-1e10	8	-1e10	8	-1E+10	1	-1E+10	1	-1E+10	1	-1E+10	1	-1E+10	1	-1E+10	1
4902554	50	C	06/23/2022	07:04	-134.647	49.516	0	992.70	0	3.0850	0	34.3560	0	27.369	0	981.886	0	-1e10	8	-1e10	8	-1E+10	1	-1E+10	1	-1E+10	1	-1E+10	1	-1E+10	1	-1E+10	1
4902554	50	C	06/23/2022	07:04	-134.647	49.516	0	997.60	0	3.0770	0	34.3580	0	27.372	0	986.721	0	-1e10	8	-1e10	8	-1E+10	1	-1E+10	1	-1E+10	1	-1E+10	1	-1E+10	1	-1E+10	1
4902554	50	C	06/23/2022	07:04	-134.647	49.516	0	1005.30	0	3.0660	0	34.3600	0	27.374	0	994.319	0	-1e10	8	-1e10	8	-1E+10	1	-1E+10	1	-1E+10	1	-1E+10	1	-1E+10	1	-1E+10	1
4902554	50	C	06/23/2022	07:04	-134.647	49.516	0	1015.40	0	3.0490	0	34.3640	0	27.379	0	1004.284	0	-1e10	8	-1e10	8	-1E+10	1	-1E+10	1	-1E+10	1	-1E+10	1	-1E+10	1	-1E+10	1
4902554	50	C	06/23/2022	07:04	-134.647	49.516	0	1025.50	0	3.0320	0	34.3680	0	27.384	0	1014.249	0	-1e10	8	-1e10	8	-1E+10	1	-1E+10	1	-1E+10	1	-1E+10	1	-1E+10	1	-1E+10	1
4902554	50	C	06/23/2022	07:04	-134.647	49.516	0	1035.60	0	3.0100	0	34.3730	0	27.390	0	1024.214	0	-1e10	8	-1e10	8	-1E+10	1	-1E+10	1	-1E+10	1	-1E+10	1	-1E+10	1	-1E+10	1
4902554	50	C	06/23/2022	07:04	-134.647	49.516	0	1045.30	0	2.9870	0	34.3780	0	27.396	0	1033.783	0	-1e10	8	-1e10	8	-1E+10	1	-1E+10	1	-1E+10	1	-1E+10	1	-1E+10	1	-1E+10	1
4902554	50	C	06/23/2022	07:04	-134.647	49.516	0	1055.30	0	2.9710	0	34.3810	0	27.400	0	1043.648	0	-1e10	8	-1e10	8	-1E+10	1	-1E+10	1	-1E+10	1	-1E+10	1	-1E+10	1	-1E+10	1
4902554	50	C	06/23/2022	07:04	-134.647	49.516	0	1065.50	0	2.9570	0	34.3840	0	27.404	0	1053.710	0	-1e10	8	-1e10	8	-1E+10	1	-1E+10	1	-1E+10	1	-1E+10	1	-1E+10	1	-1E+10	1
4902554	50	C	06/23/2022	07:04	-134.647	49.516	0	1075.50	0	2.9400	0	34.3880	0	27.409	0	1063.574	0	-1e10	8	-1e10	8	-1E+10	1	-1E+10	1	-1E+10	1	-1E+10	1	-1E+10	1	-1E+10	1
4902554	50	C	06/23/2022	07:04	-134.647	49.516	0	1085.60	0	2.9260	0	34.3920	0	27.413	0	1073.536	0	-1e10	8	-1e10	8	-1E+10	1	-1E+10	1	-1E+10	1	-1E+10	1	-1E+10	1	-1E+10	1
4902554	50	C	06/23/2022	07:04	-134.647	49.516	0	1095.30	0	2.9110	0	34.3950	0	27.417	0	1083.103	0	-1e10	8	-1e10	8	-1E+10	1	-1E+10	1	-1E+10	1	-1E+10	1	-1E+10	1	-1E+10	1
4902554	50	C	06/23/2022	07:04	-134.647	49.516	0	1105.50	0	2.8980	0	34.3980	0	27.420	0	1093.163	0	-1e10	8	-1e10	8	-1E+10	1	-1E+10	1	-1E+10	1	-1E+10	1	-1E+10	1	-1E+10	1
4902554	50	C	06/23/2022	07:04	-134.647	49.516	0	1115.50	0	2.8880	0	34.4000	0	27.423	0	1103.025	0	-1e10	8	-1e10	8	-1E+10	1	-1E+10	1	-1E+10	1	-1E+10	1	-1E+10	1	-1E+10	1
4902554	50	C	06/23/2022	07:04	-134.647	49.516	0	1125.40	0	2.8780	0	34.4030	0	27.426	0	1112.789	0	-1e10	8	-1e10	8	-1E+10	1	-1E+10	1	-1E+10	1	-1E+10	1	-1E+10	1	-1E+10	1
4902554	50	C	06/23/2022	07:04	-134.647	49.516	0	1135.60	0	2.8620	0	34.4060	0	27.430	0	1122.847	0	-1e10	8	-1e10	8	-1E+10	1	-1E+10	1	-1E+10	1	-1E+10	1	-1E+10	1	-1E+10	1
4902554	50	C	06/23/2022	07:04	-134.647	49.516	0	1145.60	0	2.8480	0	34.4100	0	27.435	0	1132.708	0	-1e10	8	-1e10	8	-1E+10	1	-1E+10	1	-1E+10	1	-1E+10	1	-1E+10	1	-1E+10	1
4902554	50	C	06/23/2022	07:04	-134.647	49.516	0	1155.30	0	2.8270	0	34.4150	0	27.441	0	1142.272	0	-1e10	8	-1e10	8	-1E+10	1	-1E+10	1	-1E+10	1	-1E+10	1	-1E+10	1	-1E+10	1
4902554	50	C	06/23/2022	07:04	-134.647	49.516	0	1165.10	0	2.8080	0	34.4180	0	27.445	0	1151.935	0	-1e10	8	-1e10	8	-1E+10	1	-1E+10	1	-1E+10	1	-1E+10	1	-1E+10	1	-1E+10	1
4902554	50	C	06/23/2022	07:04	-134.647	49.516	0	1175.00	0	2.7950	0	34.4210	0	27.448	0	1161.696	0	-1e10	8	-1e10	8	-1E+10	1	-1E+10	1	-1E+10	1	-1E+10	1	-1E+10	1	-1E+10	1
4902554	50	C	06/23/2022	07:04	-134.647	49.516	0	1185.20	0	2.7770	0	34.4240	0	27.452	0	1171.752	0	-1e10	8	-1e10	8	-1E+10	1	-1E+10	1	-1E+10	1	-1E+10	1	-1E+10	1	-1E+10	1
4902554	50	C	06/23/2022	07:04	-134.647	49.516	0	1195.30	0	2.7630	0	34.4260	0	27.455	0	1181.709	0	-1e10	8	-1e10	8	-1E+10	1	-1E+10	1	-1E+10	1	-1E+10	1	-1E+10	1	-1E+10	1
4902554	50	C	06/23/2022	07:04	-134.647	49.516	0	1205.00	0	2.7500	0	34.4280	0	27.458	0	1191.271	0	-1e10	8	-1e10	8	-1E+10	1	-1E+10	1	-1E+10	1	-1E+10	1	-1E+10	1	-1E+10	1
4902554	50	C	06/23/2022	07:04	-134.647	49.516	0	1215.40	0	2.7310	0	34.4310	0	27.462	0	1201.523	0	-1e10	8	-1e10	8	-1E+10	1	-1E+10	1	-1E+10	1	-1E+10	1	-1E+10	1	-1E+10	1
4902554	50	C	06/23/2022	07:04	-134.647	49.516	0	1225.40	0	2.7040	0	34.4360	0	27.469	0	1211.380	0	-1e10	8	-1e10	8	-1E+10	1	-1E+10	1	-1E+10	1	-1E+10	1	-1E+10	1	-1E+10	1
4902554	50	C	06/23/2022	07:04	-134.647	49.516	0	1235.00	0	2.6860	0	34.4400	0	27.473	0	1220.842	0	-1e10	8	-1e10	8	-1E+10	1	-1E+10	1	-1E+10	1	-1E+10	1	-1E+10	1	-1E+10	1
4902554	50	C	06/23/2022	07:04	-134.647	49.516	0	1245.40	0	2.6700	0	34.4420	0	27.476	0	1231.093	0	-1e10	8	-1e10	8	-1E+10	1	-1E+10	1	-1E+10	1	-1E+10	1	-1E+10	1	-1E+10	1
4902554	50	C	06/23/2022	07:04	-134.647	49.516	0	1255.60	0	2.6560	0	34.4450	0	27.480	0	1241.145	0	-1e10	8	-1e10	8	-1E+10	1	-1E+10	1	-1E+10	1	-1E+10	1	-1E+10	1	-1E+10	1
4902554	50	C	06/23/2022	07:04	-134.647	49.516	0	1265.50	0	2.6380	0	34.4480	0	27.484	0	1250.902	0	-1e10	8	-1e10	8	-1E+10	1	-1E+10	1	-1E+10	1	-1E+10	1	-1E+10	1	-1E+10	1
4902554	50	C	06/23/2022	07:04	-134.647	49.516	0	1275.60	0	2.6280	0	34.4500	0	27.487	0	1260.855	0	-1e10	8	-1e10	8	-1E+10	1	-1E+10	1	-1E+10	1	-1E+10	1	-1E+10	1	-1E+10	1
4902554	50	C	06/23/2022	07:04	-134.647	49.516	0	1285.30	0	2.6150	0	34.4530	0	27.490	0	1270.414	0	-1e10	8	-1e10	8	-1E+10	1	-1E+10	1	-1E+10	1	-1E+10	1	-1E+10	1	-1E+10	1
4902554	50	C	06/23/2022	07:04	-134.647	49.516	0	1295.40	0	2.6020	0	34.4560	0	27.494	0	1280.366	0	-1e10	8	-1e10	8	-1E+10	1	-1E+10	1	-1E+10	1	-1E+10	1	-1E+10	1	-1E+10	1
4902554	50	C	06/23/2022	07:04	-134.647	49.516	0	1305.40	0	2.5930	0	34.4580	0	27.496	0	1290.220	0	-1e10	8	-1e10	8	-1E+10	1	-1E+10	1	-1E+10	1	-1E+10	1	-1E+10	1	-1E+10	1
4902554	50	C	06/23/2022	07:04	-134.647	49.516	0	1315.50	0	2.5810	0	34.4600	0	27.499	0	1300.171	0	-1e10	8	-1e10	8	-1E+10	1	-1E+10	1	-1E+10	1	-1E+10	1	-1E+10	1	-1E+10	1
4902554	50	C	06/23/2022	07:04	-134.647	49.516	0	1325.60	0	2.5720	0	34.4620	0	27.501	0	1310.122	0	-1e10	8	-1e10	8	-1E+10	1	-1E+10	1	-1E+10	1	-1E+10	1	-1E+10	1	-1E+10	1
4902554	50	C	06/23/2022	07:04	-134.647	49.516	0	1335.40	0	2.5640	0	34.4630	0	27.503	0	1319.777	0	-1e10	8	-1e10	8	-1E+10	1	-1E+10	1	-1E+10	1	-1E+10	1	-1E+10	1	-1E+10	1
4902554	50	C	06/23/2022	07:04	-134.647	49.516	0	1345.20	0	2.5490	0	34.4650	0	27.506	0	1329.431	0	-1e10	8	-1e10	8	-1E+10	1	-1E+10	1	-1E+10	1	-1E+10	1	-1E+10	1	-1E+10	1
4902554	50	C	06/23/2022	07:04	-134.647	49.516	0	1355.10	0	2.5400	0	34.4670	0	27.508	0	1339.184	0	-1e10	8	-1e10	8	-1E+10	1	-1E+10	1	-1E+10	1	-1E+10	1	-1E+10	1	-1E+10	1
4902554	50	C	06/23/2022	07:04	-134.647	49.516	0	1365.40	0	2.5280	0	34.4690	0	27.511	0	1349.330	0	-1e10	8	-1e10	8	-1E+10	1	-1E+10	1	-1E+10	1	-1E+10	1	-1E+10	1	-1E+10	1
4902554	50	C	06/23/2022	07:04	-134.647	49.516	0	1375.80	0	2.5180	0	34.4700	0	27.512	0	1359.574	0	-1e10	8	-1e10	8	-1E+10	1	-1E+10	1	-1E+10	1	-1E+10	1	-1E+10	1	-1E+10	1
4902554	50	C	06/23/2022	07:04	-134.647	49.516	0	1385.50	0	2.5000	0	34.4730	0	27.516	0	1369.128	0	-1e10	8	-1e10	8	-1E+10	1	-1E+10	1	-1E+10	1	-1E+10	1	-1E+10	1	-1E+10	1
4902554	50	C	06/23/2022	07:04	-134.647	49.516	0	1395.20	0	2.4900	0	34.4750	0	27.519	0	1378.682	0	-1e10	8	-1e10	8	-1E+10	1	-1E+10	1	-1E+10	1	-1E+10	1	-1E+10	1	-1E+10	1
4902554	50	C	06/23/2022	07:04	-134.647	49.516	0	1405.50	0	2.4760	0	34.4770	0	27.522	0	1388.826	0	-1e10	8	-1e10	8	-1E+10	1	-1E+10	1	-1E+10	1	-1E+10	1	-1E+10	1	-1E+10	1
4902554	50	C	06/23/2022	07:04	-134.647	49.516	0	1415.60	0	2.4690	0	34.4790	0	27.524	0	1398.773	0	-1e10	8	-1e10	8	-1E+10	1	-1E+10	1	-1E+10	1	-1E+10	1	-1E+10	1	-1E+10	1
4902554	50	C	06/23/2022	07:04	-134.647	49.516	0	1425.20	0	2.4670	0	34.4790	0	27.524	0	1408.226	0	-1e10	8	-1e10	8	-1E+10	1	-1E+10	1	-1E+10	1	-1E+10	1	-1E+10	1	-1E+10	1
4902554	50	C	06/23/2022	07:04	-134.647	49.516	0	1435.50	0	2.4580	0	34.4810	0	27.527	0	1418.369	0	-1e10	8	-1e10	8	-1E+10	1	-1E+10	1	-1E+10	1	-1E+10	1	-1E+10	1	-1E+10	1
4902554	50	C	06/23/2022	07:04	-134.647	49.516	0	1445.60	0	2.4380	0	34.4850	0	27.531	0	1428.315	0	-1e10	8	-1e10	8	-1E+10	1	-1E+10	1	-1E+10	1	-1E+10	1	-1E+10	1	-1E+10	1
4902554	50	C	06/23/2022	07:04	-134.647	49.516	0	1455.60	0	2.4260	0	34.4870	0	27.534	0	1438.161	0	-1e10	8	-1e10	8	-1E+10	1	-1E+10	1	-1E+10	1	-1E+10	1	-1E+10	1	-1E+10	1
4902554	50	C	06/23/2022	07:04	-134.647	49.516	0	1465.60	0	2.4110	0	34.4900	0	27.538	0	1448.007	0	-1e10	8	-1e10	8	-1E+10	1	-1E+10	1	-1E+10	1	-1E+10	1	-1E+10	1	-1E+10	1
4902554	50	C	06/23/2022	07:04	-134.647	49.516	0	1475.30	0	2.4020	0	34.4920	0	27.540	0	1457.557	0	-1e10	8	-1e10	8	-1E+10	1	-1E+10	1	-1E+10	1	-1E+10	1	-1E+10	1	-1E+10	1
4902554	50	C	06/23/2022	07:04	-134.647	49.516	0	1485.40	0	2.3910	0	34.4940	0	27.543	0	1467.500	0	-1e10	8	-1e10	8	-1E+10	1	-1E+10	1	-1E+10	1	-1E+10	1	-1E+10	1	-1E+10	1
4902554	50	C	06/23/2022	07:04	-134.647	49.516	0	1495.70	0	2.3730	0	34.4980	0	27.548	0	1477.640	0	-1e10	8	-1e10	8	-1E+10	1	-1E+10	1	-1E+10	1	-1E+10	1	-1E+10	1	-1E+10	1
4902554	50	C	06/23/2022	07:04	-134.647	49.516	0	1505.70	0	2.3600	0	34.5000	0	27.550	0	1487.484	0	-1e10	8	-1e10	8	-1E+10	1	-1E+10	1	-1E+10	1	-1E+10	1	-1E+10	1	-1E+10	1
4902554	50	C	06/23/2022	07:04	-134.647	49.516	0	1515.60	0	2.3510	0	34.5020	0	27.553	0	1497.230	0	-1e10	8	-1e10	8	-1E+10	1	-1E+10	1	-1E+10	1	-1E+10	1	-1E+10	1	-1E+10	1
4902554	50	C	06/23/2022	07:04	-134.647	49.516	0	1525.40	0	2.3370	0	34.5050	0	27.556	0	1506.876	0	-1e10	8	-1e10	8	-1E+10	1	-1E+10	1	-1E+10	1	-1E+10	1	-1E+10	1	-1E+10	1
4902554	50	C	06/23/2022	07:04	-134.647	49.516	0	1535.70	0	2.3300	0	34.5060	0	27.558	0	1517.014	0	-1e10	8	-1e10	8	-1E+10	1	-1E+10	1	-1E+10	1	-1E+10	1	-1E+10	1	-1E+10	1
4902554	50	C	06/23/2022	07:04	-134.647	49.516	0	1545.30	0	2.3260	0	34.5070	0	27.559	0	1526.463	0	-1e10	8	-1e10	8	-1E+10	1	-1E+10	1	-1E+10	1	-1E+10	1	-1E+10	1	-1E+10	1
4902554	50	C	06/23/2022	07:04	-134.647	49.516	0	1555.20	0	2.3150	0	34.5100	0	27.562	0	1536.206	0	-1e10	8	-1e10	8	-1E+10	1	-1E+10	1	-1E+10	1	-1E+10	1	-1E+10	1	-1E+10	1
4902554	50	C	06/23/2022	07:04	-134.647	49.516	0	1565.50	0	2.3040	0	34.5120	0	27.565	0	1546.342	0	-1e10	8	-1e10	8	-1E+10	1	-1E+10	1	-1E+10	1	-1E+10	1	-1E+10	1	-1E+10	1
4902554	50	C	06/23/2022	07:04	-134.647	49.516	0	1575.40	0	2.2970	0	34.5140	0	27.567	0	1556.085	0	-1e10	8	-1e10	8	-1E+10	1	-1E+10	1	-1E+10	1	-1E+10	1	-1E+10	1	-1E+10	1
4902554	50	C	06/23/2022	07:04	-134.647	49.516	0	1585.40	0	2.2880	0	34.5160	0	27.569	0	1565.925	0	-1e10	8	-1e10	8	-1E+10	1	-1E+10	1	-1E+10	1	-1E+10	1	-1E+10	1	-1E+10	1
4902554	50	C	06/23/2022	07:04	-134.647	49.516	0	1595.60	0	2.2770	0	34.5180	0	27.572	0	1575.962	0	-1e10	8	-1e10	8	-1E+10	1	-1E+10	1	-1E+10	1	-1E+10	1	-1E+10	1	-1E+10	1
4902554	50	C	06/23/2022	07:04	-134.647	49.516	0	1605.50	0	2.2700	0	34.5200	0	27.574	0	1585.703	0	-1e10	8	-1e10	8	-1E+10	1	-1E+10	1	-1E+10	1	-1E+10	1	-1E+10	1	-1E+10	1
4902554	50	C	06/23/2022	07:04	-134.647	49.516	0	1615.20	0	2.2550	0	34.5230	0	27.578	0	1595.247	0	-1e10	8	-1e10	8	-1E+10	1	-1E+10	1	-1E+10	1	-1E+10	1	-1E+10	1	-1E+10	1
4902554	50	C	06/23/2022	07:04	-134.647	49.516	0	1625.10	0	2.2490	0	34.5240	0	27.579	0	1604.987	0	-1e10	8	-1e10	8	-1E+10	1	-1E+10	1	-1E+10	1	-1E+10	1	-1E+10	1	-1E+10	1
4902554	50	C	06/23/2022	07:04	-134.647	49.516	0	1635.30	0	2.2400	0	34.5260	0	27.582	0	1615.022	0	-1e10	8	-1e10	8	-1E+10	1	-1E+10	1	-1E+10	1	-1E+10	1	-1E+10	1	-1E+10	1
4902554	50	C	06/23/2022	07:04	-134.647	49.516	0	1645.70	0	2.2270	0	34.5280	0	27.584	0	1625.253	0	-1e10	8	-1e10	8	-1E+10	1	-1E+10	1	-1E+10	1	-1E+10	1	-1E+10	1	-1E+10	1
4902554	50	C	06/23/2022	07:04	-134.647	49.516	0	1655.70	0	2.2120	0	34.5320	0	27.589	0	1635.091	0	-1e10	8	-1e10	8	-1E+10	1	-1E+10	1	-1E+10	1	-1E+10	1	-1E+10	1	-1E+10	1
4902554	50	C	06/23/2022	07:04	-134.647	49.516	0	1665.50	0	2.2030	0	34.5330	0	27.590	0	1644.731	0	-1e10	8	-1e10	8	-1E+10	1	-1E+10	1	-1E+10	1	-1E+10	1	-1E+10	1	-1E+10	1
4902554	50	C	06/23/2022	07:04	-134.647	49.516	0	1675.50	0	2.1890	0	34.5360	0	27.594	0	1654.567	0	-1e10	8	-1e10	8	-1E+10	1	-1E+10	1	-1E+10	1	-1E+10	1	-1E+10	1	-1E+10	1
4902554	50	C	06/23/2022	07:04	-134.647	49.516	0	1685.60	0	2.1770	0	34.5380	0	27.596	0	1664.501	0	-1e10	8	-1e10	8	-1E+10	1	-1E+10	1	-1E+10	1	-1E+10	1	-1E+10	1	-1E+10	1
4902554	50	C	06/23/2022	07:04	-134.647	49.516	0	1695.50	0	2.1710	0	34.5400	0	27.599	0	1674.238	0	-1e10	8	-1e10	8	-1E+10	1	-1E+10	1	-1E+10	1	-1E+10	1	-1E+10	1	-1E+10	1
4902554	50	C	06/23/2022	07:04	-134.647	49.516	0	1705.30	0	2.1670	0	34.5410	0	27.600	0	1683.876	0	-1e10	8	-1e10	8	-1E+10	1	-1E+10	1	-1E+10	1	-1E+10	1	-1E+10	1	-1E+10	1
4902554	50	C	06/23/2022	07:04	-134.647	49.516	0	1715.30	0	2.1620	0	34.5420	0	27.601	0	1693.711	0	-1e10	8	-1e10	8	-1E+10	1	-1E+10	1	-1E+10	1	-1E+10	1	-1E+10	1	-1E+10	1
4902554	50	C	06/23/2022	07:04	-134.647	49.516	0	1725.10	0	2.1560	0	34.5430	0	27.602	0	1703.348	0	-1e10	8	-1e10	8	-1E+10	1	-1E+10	1	-1E+10	1	-1E+10	1	-1E+10	1	-1E+10	1
4902554	50	C	06/23/2022	07:04	-134.647	49.516	0	1735.20	0	2.1480	0	34.5440	0	27.604	0	1713.280	0	-1e10	8	-1e10	8	-1E+10	1	-1E+10	1	-1E+10	1	-1E+10	1	-1E+10	1	-1E+10	1
4902554	50	C	06/23/2022	07:04	-134.647	49.516	0	1745.60	0	2.1400	0	34.5460	0	27.606	0	1723.506	0	-1e10	8	-1e10	8	-1E+10	1	-1E+10	1	-1E+10	1	-1E+10	1	-1E+10	1	-1E+10	1
4902554	50	C	06/23/2022	07:04	-134.647	49.516	0	1755.70	0	2.1250	0	34.5490	0	27.610	0	1733.437	0	-1e10	8	-1e10	8	-1E+10	1	-1E+10	1	-1E+10	1	-1E+10	1	-1E+10	1	-1E+10	1
4902554	50	C	06/23/2022	07:04	-134.647	49.516	0	1765.60	0	2.1160	0	34.5510	0	27.612	0	1743.171	0	-1e10	8	-1e10	8	-1E+10	1	-1E+10	1	-1E+10	1	-1E+10	1	-1E+10	1	-1E+10	1
4902554	50	C	06/23/2022	07:04	-134.647	49.516	0	1775.30	0	2.1080	0	34.5530	0	27.614	0	1752.708	0	-1e10	8	-1e10	8	-1E+10	1	-1E+10	1	-1E+10	1	-1E+10	1	-1E+10	1	-1E+10	1
4902554	50	C	06/23/2022	07:04	-134.647	49.516	0	1785.30	0	2.0980	0	34.5550	0	27.617	0	1762.539	0	-1e10	8	-1e10	8	-1E+10	1	-1E+10	1	-1E+10	1	-1E+10	1	-1E+10	1	-1E+10	1
4902554	50	C	06/23/2022	07:04	-134.647	49.516	0	1795.30	0	2.0920	0	34.5560	0	27.618	0	1772.370	0	-1e10	8	-1e10	8	-1E+10	1	-1E+10	1	-1E+10	1	-1E+10	1	-1E+10	1	-1E+10	1
4902554	50	C	06/23/2022	07:04	-134.647	49.516	0	1805.30	0	2.0840	0	34.5570	0	27.620	0	1782.200	0	-1e10	8	-1e10	8	-1E+10	1	-1E+10	1	-1E+10	1	-1E+10	1	-1E+10	1	-1E+10	1
4902554	50	C	06/23/2022	07:04	-134.647	49.516	0	1815.40	0	2.0760	0	34.5590	0	27.622	0	1792.129	0	-1e10	8	-1e10	8	-1E+10	1	-1E+10	1	-1E+10	1	-1E+10	1	-1E+10	1	-1E+10	1
4902554	50	C	06/23/2022	07:04	-134.647	49.516	0	1825.50	0	2.0640	0	34.5610	0	27.625	0	1802.056	0	-1e10	8	-1e10	8	-1E+10	1	-1E+10	1	-1E+10	1	-1E+10	1	-1E+10	1	-1E+10	1
4902554	50	C	06/23/2022	07:04	-134.647	49.516	0	1835.70	0	2.0530	0	34.5620	0	27.626	0	1812.082	0	-1e10	8	-1e10	8	-1E+10	1	-1E+10	1	-1E+10	1	-1E+10	1	-1E+10	1	-1E+10	1
4902554	50	C	06/23/2022	07:04	-134.647	49.516	0	1845.50	0	2.0480	0	34.5640	0	27.628	0	1821.714	0	-1e10	8	-1e10	8	-1E+10	1	-1E+10	1	-1E+10	1	-1E+10	1	-1E+10	1	-1E+10	1
4902554	50	C	06/23/2022	07:04	-134.647	49.516	0	1855.50	0	2.0420	0	34.5660	0	27.631	0	1831.542	0	-1e10	8	-1e10	8	-1E+10	1	-1E+10	1	-1E+10	1	-1E+10	1	-1E+10	1	-1E+10	1
4902554	50	C	06/23/2022	07:04	-134.647	49.516	0	1865.70	0	2.0320	0	34.5670	0	27.632	0	1841.566	0	-1e10	8	-1e10	8	-1E+10	1	-1E+10	1	-1E+10	1	-1E+10	1	-1E+10	1	-1E+10	1
4902554	50	C	06/23/2022	07:04	-134.647	49.516	0	1875.50	0	2.0230	0	34.5690	0	27.634	0	1851.197	0	-1e10	8	-1e10	8	-1E+10	1	-1E+10	1	-1E+10	1	-1E+10	1	-1E+10	1	-1E+10	1
4902554	50	C	06/23/2022	07:04	-134.647	49.516	0	1885.20	0	2.0200	0	34.5700	0	27.636	0	1860.728	0	-1e10	8	-1e10	8	-1E+10	1	-1E+10	1	-1E+10	1	-1E+10	1	-1E+10	1	-1E+10	1
4902554	50	C	06/23/2022	07:04	-134.647	49.516	0	1895.20	0	2.0120	0	34.5720	0	27.638	0	1870.555	0	-1e10	8	-1e10	8	-1E+10	1	-1E+10	1	-1E+10	1	-1E+10	1	-1E+10	1	-1E+10	1
4902554	50	C	06/23/2022	07:04	-134.647	49.516	0	1905.20	0	2.0050	0	34.5740	0	27.640	0	1880.381	0	-1e10	8	-1e10	8	-1E+10	1	-1E+10	1	-1E+10	1	-1E+10	1	-1E+10	1	-1E+10	1
4902554	50	C	06/23/2022	07:04	-134.647	49.516	0	1915.40	0	1.9960	0	34.5750	0	27.642	0	1890.402	0	-1e10	8	-1e10	8	-1E+10	1	-1E+10	1	-1E+10	1	-1E+10	1	-1E+10	1	-1E+10	1
4902554	50	C	06/23/2022	07:04	-134.647	49.516	0	1925.80	0	1.9870	0	34.5770	0	27.644	0	1900.620	0	-1e10	8	-1e10	8	-1E+10	1	-1E+10	1	-1E+10	1	-1E+10	1	-1E+10	1	-1E+10	1
4902554	50	C	06/23/2022	07:04	-134.647	49.516	0	1935.40	0	1.9760	0	34.5790	0	27.646	0	1910.052	0	-1e10	8	-1e10	8	-1E+10	1	-1E+10	1	-1E+10	1	-1E+10	1	-1E+10	1	-1E+10	1
4902554	50	C	06/23/2022	07:04	-134.647	49.516	0	1945.30	0	1.9690	0	34.5800	0	27.648	0	1919.777	0	-1e10	8	-1e10	8	-1E+10	1	-1E+10	1	-1E+10	1	-1E+10	1	-1E+10	1	-1E+10	1
4902554	50	C	06/23/2022	07:04	-134.647	49.516	0	1955.50	0	1.9640	0	34.5810	0	27.649	0	1929.797	0	-1e10	8	-1e10	8	-1E+10	1	-1E+10	1	-1E+10	1	-1E+10	1	-1E+10	1	-1E+10	1
4902554	50	C	06/23/2022	07:04	-134.647	49.516	0	1965.40	0	1.9580	0	34.5830	0	27.651	0	1939.522	0	-1e10	8	-1e10	8	-1E+10	1	-1E+10	1	-1E+10	1	-1E+10	1	-1E+10	1	-1E+10	1
4902554	50	C	06/23/2022	07:04	-134.647	49.516	0	1975.50	0	1.9530	0	34.5840	0	27.652	0	1949.443	0	-1e10	8	-1e10	8	-1E+10	1	-1E+10	1	-1E+10	1	-1E+10	1	-1E+10	1	-1E+10	1
4902554	50	C	06/23/2022	07:04	-134.647	49.516	0	1985.40	0	1.9470	0	34.5850	0	27.654	0	1959.167	0	-1e10	8	-1e10	8	-1E+10	1	-1E+10	1	-1E+10	1	-1E+10	1	-1E+10	1	-1E+10	1
4902554	50	C	06/23/2022	07:04	-134.647	49.516	0	1995.40	0	1.9410	0	34.5860	0	27.655	0	1968.989	0	-1e10	8	-1e10	8	-1E+10	1	-1E+10	1	-1E+10	1	-1E+10	1	-1E+10	1	-1E+10	1
4902554	50	C	06/23/2022	07:04	-134.647	49.516	0	2006.00	0	1.9360	0	34.5870	0	27.656	0	1979.399	0	-1e10	8	-1e10	8	-1E+10	1	-1E+10	1	-1E+10	1	-1E+10	1	-1E+10	1	-1E+10	1
4902554	50	C	06/23/2022	07:04	-134.647	49.516	0	2010.90	0	1.9330	0	34.5880	0	27.657	0	1984.211	0	-1e10	8	-1e10	8	-1E+10	1	-1E+10	1	-1E+10	1	-1E+10	1	-1E+10	1	-1E+10	1
4902554	50	C	06/23/2022	07:04	-134.647	49.516	0																										
4902554	51	C	07/03/2022	12:07	-134.529	49.555	0	0.10	0	12.3110	0	32.1790	0	24.341	0	0.099	0	-1e10	8	-1e10	8	-1E+10	1	-1E+10	1	-1E+10	1	-1E+10	1	-1E+10	1	-1E+10	1
4902554	51	C	07/03/2022	12:07	-134.529	49.555	0	0.20	0	12.3120	0	32.1660	0	24.331	0	0.198	0	-1e10	1	-1e10	1	-1E+10	1	-1E+10	1	-1E+10	1	-1E+10	1	-1E+10	1	-1E+10	1
4902554	51	C	07/03/2022	12:07	-134.529	49.555	0	0.30	0	12.3130	8	32.0240	8	24.221	0	0.297	0	-1e10	8	-1e10	8	-1E+10	1	-1E+10	1	-1E+10	1	-1E+10	1	-1E+10	1	-1E+10	1
4902554	51	C	07/03/2022	12:07	-134.529	49.555	0	0.90	0	12.3160	8	31.9830	8	24.188	0	0.892	0	-1e10	8	-1e10	8	-1E+10	1	-1E+10	1	-1E+10	1	-1E+10	1	-1E+10	1	-1E+10	1
4902554	51	C	07/03/2022	12:07	-134.529	49.555	0	2.00	0	12.3110	8	31.8660	8	24.099	0	1.983	0	-1e10	8	-1e10	8	-1E+10	1	-1E+10	1	-1E+10	1	-1E+10	1	-1E+10	1	-1E+10	1
4902554	51	C	07/03/2022	12:07	-134.529	49.555	0	2.70	0	12.2780	0	31.8640	0	24.103	0	2.677	0	-1e10	8	-1e10	8	-1E+10	1	-1E+10	1	-1E+10	1	-1E+10	1	-1E+10	1	-1E+10	1
4902554	51	C	07/03/2022	12:07	-134.529	49.555	0	3.80	0	11.9080	0	32.1820	0	24.419	0	3.768	0	-1e10	8	-1e10	8	-1E+10	1	-1E+10	1	-1E+10	1	-1E+10	1	-1E+10	1	-1E+10	1
4902554	51	C	07/03/2022	12:07	-134.529	49.555	0	4.90	0	11.8560	0	32.2470	0	24.479	0	4.858	0	-1e10	8	-1e10	8	-1E+10	1	-1E+10	1	-1E+10	1	-1E+10	1	-1E+10	1	-1E+10	1
4902554	51	C	07/03/2022	12:07	-134.529	49.555	0	6.00	0	11.7790	0	32.2500	0	24.495	0	5.949	0	-1e10	8	-1e10	8	-1E+10	1	-1E+10	1	-1E+10	1	-1E+10	1	-1E+10	1	-1E+10	1
4902554	51	C	07/03/2022	12:07	-134.529	49.555	0	7.00	0	11.6830	0	32.2520	0	24.515	0	6.940	0	-1e10	8	-1e10	8	-1E+10	1	-1E+10	1	-1E+10	1	-1E+10	1	-1E+10	1	-1E+10	1
4902554	51	C	07/03/2022	12:07	-134.529	49.555	0	7.90	0	11.6330	0	32.2560	0	24.527	0	7.832	0	-1e10	8	-1e10	8	-1E+10	1	-1E+10	1	-1E+10	1	-1E+10	1	-1E+10	1	-1E+10	1
4902554	51	C	07/03/2022	12:07	-134.529	49.555	0	9.10	0	11.5780	0	32.2560	0	24.537	0	9.022	0	-1e10	8	-1e10	8	-1E+10	1	-1E+10	1	-1E+10	1	-1E+10	1	-1E+10	1	-1E+10	1
4902554	51	C	07/03/2022	12:07	-134.529	49.555	0	10.00	0	11.5330	0	32.2580	0	24.547	0	9.914	0	-1e10	8	-1e10	8	-1E+10	1	-1E+10	1	-1E+10	1	-1E+10	1	-1E+10	1	-1E+10	1
4902554	51	C	07/03/2022	12:07	-134.529	49.555	0	11.00	0	11.4540	0	32.2590	0	24.562	0	10.906	0	-1e10	8	-1e10	8	-1E+10	1	-1E+10	1	-1E+10	1	-1E+10	1	-1E+10	1	-1E+10	1
4902554	51	C	07/03/2022	12:07	-134.529	49.555	0	11.90	0	11.3670	0	32.2610	0	24.579	0	11.798	0	-1e10	8	-1e10	8	-1E+10	1	-1E+10	1	-1E+10	1	-1E+10	1	-1E+10	1	-1E+10	1
4902554	51	C	07/03/2022	12:07	-134.529	49.555	0	12.80	0	11.3110	0	32.2580	0	24.587	0	12.690	0	-1e10	8	-1e10	8	-1E+10	1	-1E+10	1	-1E+10	1	-1E+10	1	-1E+10	1	-1E+10	1
4902554	51	C	07/03/2022	12:07	-134.529	49.555	0	14.10	0	11.2830	0	32.2570	0	24.591	0	13.979	0	-1e10	8	-1e10	8	-1E+10	1	-1E+10	1	-1E+10	1	-1E+10	1	-1E+10	1	-1E+10	1
4902554	51	C	07/03/2022	12:07	-134.529	49.555	0	15.00	0	11.2670	0	32.2570	0	24.594	0	14.871	0	-1e10	8	-1e10	8	-1E+10	1	-1E+10	1	-1E+10	1	-1E+10	1	-1E+10	1	-1E+10	1
4902554	51	C	07/03/2022	12:07	-134.529	49.555	0	16.10	0	11.2490	0	32.2560	0	24.596	0	15.962	0	-1e10	8	-1e10	8	-1E+10	1	-1E+10	1	-1E+10	1	-1E+10	1	-1E+10	1	-1E+10	1
4902554	51	C	07/03/2022	12:07	-134.529	49.555	0	16.90	0	11.2310	0	32.2550	0	24.599	0	16.755	0	-1e10	8	-1e10	8	-1E+10	1	-1E+10	1	-1E+10	1	-1E+10	1	-1E+10	1	-1E+10	1
4902554	51	C	07/03/2022	12:07	-134.529	49.555	0	18.00	0	11.2060	0	32.2550	0	24.603	0	17.846	0	-1e10	8	-1e10	8	-1E+10	1	-1E+10	1	-1E+10	1	-1E+10	1	-1E+10	1	-1E+10	1
4902554	51	C	07/03/2022	12:07	-134.529	49.555	0	19.10	0	11.1400	0	32.2590	0	24.618	0	18.936	0	-1e10	8	-1e10	8	-1E+10	1	-1E+10	1	-1E+10	1	-1E+10	1	-1E+10	1	-1E+10	1
4902554	51	C	07/03/2022	12:07	-134.529	49.555	0	20.00	0	11.0470	0	32.2600	0	24.635	0	19.828	0	-1e10	8	-1e10	8	-1E+10	1	-1E+10	1	-1E+10	1	-1E+10	1	-1E+10	1	-1E+10	1
4902554	51	C	07/03/2022	12:07	-134.529	49.555	0	21.10	0	10.8560	0	32.2710	0	24.677	0	20.919	0	-1e10	8	-1e10	8	-1E+10	1	-1E+10	1	-1E+10	1	-1E+10	1	-1E+10	1	-1E+10	1
4902554	51	C	07/03/2022	12:07	-134.529	49.555	0	21.90	0	10.7040	0	32.2840	0	24.714	0	21.712	0	-1e10	8	-1e10	8	-1E+10	1	-1E+10	1	-1E+10	1	-1E+10	1	-1E+10	1	-1E+10	1
4902554	51	C	07/03/2022	12:07	-134.529	49.555	0	23.20	0	10.6330	0	32.2870	0	24.728	0	23.001	0	-1e10	8	-1e10	8	-1E+10	1	-1E+10	1	-1E+10	1	-1E+10	1	-1E+10	1	-1E+10	1
4902554	51	C	07/03/2022	12:07	-134.529	49.555	0	24.00	0	10.6200	0	32.2880	0	24.731	0	23.794	0	-1e10	8	-1e10	8	-1E+10	1	-1E+10	1	-1E+10	1	-1E+10	1	-1E+10	1	-1E+10	1
4902554	51	C	07/03/2022	12:07	-134.529	49.555	0	25.20	0	10.5820	0	32.2970	0	24.745	0	24.983	0	-1e10	8	-1e10	8	-1E+10	1	-1E+10	1	-1E+10	1	-1E+10	1	-1E+10	1	-1E+10	1
4902554	51	C	07/03/2022	12:07	-134.529	49.555	0	26.00	0	10.5530	0	32.2900	0	24.744	0	25.777	0	-1e10	8	-1e10	8	-1E+10	1	-1E+10	1	-1E+10	1	-1E+10	1	-1E+10	1	-1E+10	1
4902554	51	C	07/03/2022	12:07	-134.529	49.555	0	27.30	0	10.5240	0	32.2880	0	24.748	0	27.065	0	-1e10	8	-1e10	8	-1E+10	1	-1E+10	1	-1E+10	1	-1E+10	1	-1E+10	1	-1E+10	1
4902554	51	C	07/03/2022	12:07	-134.529	49.555	0	28.00	0	10.3830	0	32.2950	0	24.777	0	27.759	0	-1e10	8	-1e10	8	-1E+10	1	-1E+10	1	-1E+10	1	-1E+10	1	-1E+10	1	-1E+10	1
4902554	51	C	07/03/2022	12:07	-134.529	49.555	0	28.90	0	10.1570	0	32.3200	0	24.835	0	28.651	0	-1e10	8	-1e10	8	-1E+10	1	-1E+10	1	-1E+10	1	-1E+10	1	-1E+10	1	-1E+10	1
4902554	51	C	07/03/2022	12:07	-134.529	49.555	0	29.80	0	10.1010	0	32.3300	0	24.852	0	29.544	0	-1e10	8	-1e10	8	-1E+10	1	-1E+10	1	-1E+10	1	-1E+10	1	-1E+10	1	-1E+10	1
4902554	51	C	07/03/2022	12:07	-134.529	49.555	0	30.90	0	10.0810	0	32.3260	0	24.852	0	30.634	0	-1e10	8	-1e10	8	-1E+10	1	-1E+10	1	-1E+10	1	-1E+10	1	-1E+10	1	-1E+10	1
4902554	51	C	07/03/2022	12:07	-134.529	49.555	0	32.10	0	10.0670	0	32.3270	0	24.855	0	31.824	0	-1e10	8	-1e10	8	-1E+10	1	-1E+10	1	-1E+10	1	-1E+10	1	-1E+10	1	-1E+10	1
4902554	51	C	07/03/2022	12:07	-134.529	49.555	0	32.90	0	10.0490	0	32.3250	0	24.857	0	32.617	0	-1e10	8	-1e10	8	-1E+10	1	-1E+10	1	-1E+10	1	-1E+10	1	-1E+10	1	-1E+10	1
4902554	51	C	07/03/2022	12:07	-134.529	49.555	0	33.80	0	9.9930	0	32.3320	0	24.871	0	33.509	0	-1e10	8	-1e10	8	-1E+10	1	-1E+10	1	-1E+10	1	-1E+10	1	-1E+10	1	-1E+10	1
4902554	51	C	07/03/2022	12:07	-134.529	49.555	0	35.10	0	9.8420	0	32.3360	0	24.899	0	34.798	0	-1e10	8	-1e10	8	-1E+10	1	-1E+10	1	-1E+10	1	-1E+10	1	-1E+10	1	-1E+10	1
4902554	51	C	07/03/2022	12:07	-134.529	49.555	0	36.00	0	9.7310	0	32.3380	0	24.919	0	35.690	0	-1e10	8	-1e10	8	-1E+10	1	-1E+10	1	-1E+10	1	-1E+10	1	-1E+10	1	-1E+10	1
4902554	51	C	07/03/2022	12:07	-134.529	49.555	0	36.90	0	9.6790	0	32.3360	0	24.926	0	36.582	0	-1e10	8	-1e10	8	-1E+10	1	-1E+10	1	-1E+10	1	-1E+10	1	-1E+10	1	-1E+10	1
4902554	51	C	07/03/2022	12:07	-134.529	49.555	0	38.10	0	9.6350	0	32.3330	0	24.931	0	37.771	0	-1e10	8	-1e10	8	-1E+10	1	-1E+10	1	-1E+10	1	-1E+10	1	-1E+10	1	-1E+10	1
4902554	51	C	07/03/2022	12:07	-134.529	49.555	0	39.10	0	9.6220	0	32.3320	0	24.932	0	38.763	0	-1e10	8	-1e10	8	-1E+10	1	-1E+10	1	-1E+10	1	-1E+10	1	-1E+10	1	-1E+10	1
4902554	51	C	07/03/2022	12:07	-134.529	49.555	0	40.00	0	9.5570	0	32.3350	0	24.945	0	39.655	0	-1e10	8	-1e10	8	-1E+10	1	-1E+10	1	-1E+10	1	-1E+10	1	-1E+10	1	-1E+10	1
4902554	51	C	07/03/2022	12:07	-134.529	49.555	0	40.90	0	9.5060	0	32.3330	0	24.952	0	40.547	0	-1e10	8	-1e10	8	-1E+10	1	-1E+10	1	-1E+10	1	-1E+10	1	-1E+10	1	-1E+10	1
4902554	51	C	07/03/2022	12:07	-134.529	49.555	0	41.90	0	9.4320	0	32.3430	0	24.971	0	41.538	0	-1e10	8	-1e10	8	-1E+10	1	-1E+10	1	-1E+10	1	-1E+10	1	-1E+10	1	-1E+10	1
4902554	51	C	07/03/2022	12:07	-134.529	49.555	0	42.90	0	9.3630	0	32.3440	0	24.983	0	42.530	0	-1e10	8	-1e10	8	-1E+10	1	-1E+10	1	-1E+10	1	-1E+10	1	-1E+10	1	-1E+10	1
4902554	51	C	07/03/2022	12:07	-134.529	49.555	0	43.80	0	9.3540	0	32.3430	0	24.984	0	43.422	0	-1e10	8	-1e10	8	-1E+10	1	-1E+10	1	-1E+10	1	-1E+10	1	-1E+10	1	-1E+10	1
4902554	51	C	07/03/2022	12:07	-134.529	49.555	0	45.10	0	9.3410	0	32.3420	0	24.985	0	44.710	0	-1e10	8	-1e10	8	-1E+10	1	-1E+10	1	-1E+10	1	-1E+10	1	-1E+10	1	-1E+10	1
4902554	51	C	07/03/2022	12:07	-134.529	49.555	0	46.00	0	9.2180	0	32.3250	0	24.991	0	45.602	0	-1e10	8	-1e10	8	-1E+10	1	-1E+10	1	-1E+10	1	-1E+10	1	-1E+10	1	-1E+10	1
4902554	51	C	07/03/2022	12:07	-134.529	49.555	0	47.00	0	9.1130	0	32.3430	0	25.022	0	46.594	0	-1e10	8	-1e10	8	-1E+10	1	-1E+10	1	-1E+10	1	-1E+10	1	-1E+10	1	-1E+10	1
4902554	51	C	07/03/2022	12:07	-134.529	49.555	0	48.00	0	9.0990	0	32.3610	0	25.038	0	47.585	0	-1e10	8	-1e10	8	-1E+10	1	-1E+10	1	-1E+10	1	-1E+10	1	-1E+10	1	-1E+10	1
4902554	51	C	07/03/2022	12:07	-134.529	49.555	0	48.90	0	9.0780	0	32.3620	0	25.042	0	48.477	0	-1e10	8	-1e10	8	-1E+10	1	-1E+10	1	-1E+10	1	-1E+10	1	-1E+10	1	-1E+10	1
4902554	51	C	07/03/2022	12:07	-134.529	49.555	0	49.90	0	8.9960	0	32.3660	0	25.058	0	49.468	0	-1e10	8	-1e10	8	-1E+10	1	-1E+10	1	-1E+10	1	-1E+10	1	-1E+10	1	-1E+10	1
4902554	51	C	07/03/2022	12:07	-134.529	49.555	0	50.90	0	8.9380	0	32.3670	0	25.068	0	50.459	0	-1e10	8	-1e10	8	-1E+10	1	-1E+10	1	-1E+10	1	-1E+10	1	-1E+10	1	-1E+10	1
4902554	51	C	07/03/2022	12:07	-134.529	49.555	0	51.90	0	8.8560	0	32.3710	0	25.083	0	51.451	0	-1e10	8	-1e10	8	-1E+10	1	-1E+10	1	-1E+10	1	-1E+10	1	-1E+10	1	-1E+10	1
4902554	51	C	07/03/2022	12:07	-134.529	49.555	0	52.80	0	8.7020	0	32.3790	0	25.113	0	52.343	0	-1e10	8	-1e10	8	-1E+10	1	-1E+10	1	-1E+10	1	-1E+10	1	-1E+10	1	-1E+10	1
4902554	51	C	07/03/2022	12:07	-134.529	49.555	0	53.90	0	8.6190	0	32.3820	0	25.128	0	53.433	0	-1e10	8	-1e10	8	-1E+10	1	-1E+10	1	-1E+10	1	-1E+10	1	-1E+10	1	-1E+10	1
4902554	51	C	07/03/2022	12:07	-134.529	49.555	0	55.00	0	8.6030	0	32.3810	0	25.130	0	54.523	0	-1e10	8	-1e10	8	-1E+10	1	-1E+10	1	-1E+10	1	-1E+10	1	-1E+10	1	-1E+10	1
4902554	51	C	07/03/2022	12:07	-134.529	49.555	0	55.90	0	8.5860	0	32.3800	0	25.132	0	55.416	0	-1e10	8	-1e10	8	-1E+10	1	-1E+10	1	-1E+10	1	-1E+10	1	-1E+10	1	-1E+10	1
4902554	51	C	07/03/2022	12:07	-134.529	49.555	0	57.10	0	8.3740	0	32.3870	0	25.169	0	56.605	0	-1e10	8	-1e10	8	-1E+10	1	-1E+10	1	-1E+10	1	-1E+10	1	-1E+10	1	-1E+10	1
4902554	51	C	07/03/2022	12:07	-134.529	49.555	0	58.00	0	8.1870	0	32.3900	0	25.199	0	57.497	0	-1e10	8	-1e10	8	-1E+10	1	-1E+10	1	-1E+10	1	-1E+10	1	-1E+10	1	-1E+10	1
4902554	51	C	07/03/2022	12:07	-134.529	49.555	0	59.00	0	8.1360	0	32.3910	0	25.207	0	58.488	0	-1e10	8	-1e10	8	-1E+10	1	-1E+10	1	-1E+10	1	-1E+10	1	-1E+10	1	-1E+10	1
4902554	51	C	07/03/2022	12:07	-134.529	49.555	0	60.00	0	8.1090	0	32.3910	0	25.211	0	59.479	0	-1e10	8	-1e10	8	-1E+10	1	-1E+10	1	-1E+10	1	-1E+10	1	-1E+10	1	-1E+10	1
4902554	51	C	07/03/2022	12:07	-134.529	49.555	0	61.00	0	7.9060	0	32.3920	0	25.241	0	60.471	0	-1e10	8	-1e10	8	-1E+10	1	-1E+10	1	-1E+10	1	-1E+10	1	-1E+10	1	-1E+10	1
4902554	51	C	07/03/2022	12:07	-134.529	49.555	0	62.10	0	7.6390	0	32.4130	0	25.295	0	61.561	0	-1e10	8	-1e10	8	-1E+10	1	-1E+10	1	-1E+10	1	-1E+10	1	-1E+10	1	-1E+10	1
4902554	51	C	07/03/2022	12:07	-134.529	49.555	0	62.90	0	7.5820	0	32.3920	0	25.287	0	62.354	0	-1e10	8	-1e10	8	-1E+10	1	-1E+10	1	-1E+10	1	-1E+10	1	-1E+10	1	-1E+10	1
4902554	51	C	07/03/2022	12:07	-134.529	49.555	0	64.00	0	7.5200	0	32.3870	0	25.291	0	63.444	0	-1e10	8	-1e10	8	-1E+10	1	-1E+10	1	-1E+10	1	-1E+10	1	-1E+10	1	-1E+10	1
4902554	51	C	07/03/2022	12:07	-134.529	49.555	0	65.10	0	7.4750	0	32.3840	0	25.295	0	64.534	0	-1e10	8	-1e10	8	-1E+10	1	-1E+10	1	-1E+10	1	-1E+10	1	-1E+10	1	-1E+10	1
4902554	51	C	07/03/2022	12:07	-134.529	49.555	0	65.90	0	7.4440	0	32.3880	0	25.303	0	65.327	0	-1e10	8	-1e10	8	-1E+10	1	-1E+10	1	-1E+10	1	-1E+10	1	-1E+10	1	-1E+10	1
4902554	51	C	07/03/2022	12:07	-134.529	49.555	0	67.10	0	7.3920	0	32.3860	0	25.308	0	66.517	0	-1e10	8	-1e10	8	-1E+10	1	-1E+10	1	-1E+10	1	-1E+10	1	-1E+10	1	-1E+10	1
4902554	51	C	07/03/2022	12:07	-134.529	49.555	0	67.90	0	7.3780	0	32.3860	0	25.310	0	67.310	0	-1e10	8	-1e10	8	-1E+10	1	-1E+10	1	-1E+10	1	-1E+10	1	-1E+10	1	-1E+10	1
4902554	51	C	07/03/2022	12:07	-134.529	49.555	0	69.10	0	7.3600	0	32.3850	0	25.312	0	68.499	0	-1e10	8	-1e10	8	-1E+10	1	-1E+10	1	-1E+10	1	-1E+10	1	-1E+10	1	-1E+10	1
4902554	51	C	07/03/2022	12:07	-134.529	49.555	0	70.00	0	7.2870	0	32.3880	0	25.324	0	69.391	0	-1e10	8	-1e10	8	-1E+10	1	-1E+10	1	-1E+10	1	-1E+10	1	-1E+10	1	-1E+10	1
4902554	51	C	07/03/2022	12:07	-134.529	49.555	0	71.10	0	7.2250	0	32.3910	0	25.335	0	70.481	0	-1e10	8	-1e10	8	-1E+10	1	-1E+10	1	-1E+10	1	-1E+10	1	-1E+10	1	-1E+10	1
4902554	51	C	07/03/2022	12:07	-134.529	49.555	0	72.00	0	7.1920	0	32.3930	0	25.341	0	71.373	0	-1e10	8	-1e10	8	-1E+10	1	-1E+10	1	-1E+10	1	-1E+10	1	-1E+10	1	-1E+10	1
4902554	51	C	07/03/2022	12:07	-134.529	49.555	0	73.00	0	7.1790	0	32.3940	0	25.344	0	72.364	0	-1e10	8	-1e10	8	-1E+10	1	-1E+10	1	-1E+10	1	-1E+10	1	-1E+10	1	-1E+10	1
4902554	51	C	07/03/2022	12:07	-134.529	49.555	0	74.20	0	7.1570	0	32.3950	0	25.347	0	73.554	0	-1e10	8	-1e10	8	-1E+10	1	-1E+10	1	-1E+10	1	-1E+10	1	-1E+10	1	-1E+10	1
4902554	51	C	07/03/2022	12:07	-134.529	49.555	0	74.90	0	7.1490	0	32.3950	0	25.348	0	74.247	0	-1e10	8	-1e10	8	-1E+10	1	-1E+10	1	-1E+10	1	-1E+10	1	-1E+10	1	-1E+10	1
4902554	51	C	07/03/2022	12:07	-134.529	49.555	0	75.90	0	7.1220	0	32.3960	0	25.353	0	75.239	0	-1e10	8	-1e10	8	-1E+10	1	-1E+10	1	-1E+10	1	-1E+10	1	-1E+10	1	-1E+10	1
4902554	51	C	07/03/2022	12:07	-134.529	49.555	0	76.90	0	7.0980	0	32.3980	0	25.358	0	76.230	0	-1e10	8	-1e10	8	-1E+10	1	-1E+10	1	-1E+10	1	-1E+10	1	-1E+10	1	-1E+10	1
4902554	51	C	07/03/2022	12:07	-134.529	49.555	0	77.90	0	7.0940	0	32.3970	0	25.357	0	77.221	0	-1e10	8	-1e10	8	-1E+10	1	-1E+10	1	-1E+10	1	-1E+10	1	-1E+10	1	-1E+10	1
4902554	51	C	07/03/2022	12:07	-134.529	49.555	0	78.90	0	7.0690	0	32.3970	0	25.361	0	78.212	0	-1e10	8	-1e10	8	-1E+10	1	-1E+10	1	-1E+10	1	-1E+10	1	-1E+10	1	-1E+10	1
4902554	51	C	07/03/2022	12:07	-134.529	49.555	0	79.90	0	7.0430	0	32.3970	0	25.364	0	79.203	0	-1e10	8	-1e10	8	-1E+10	1	-1E+10	1	-1E+10	1	-1E+10	1	-1E+10	1	-1E+10	1
4902554	51	C	07/03/2022	12:07	-134.529	49.555	0	80.90	0	7.0350	0	32.3960	0	25.365	0	80.194	0	-1e10	8	-1e10	8	-1E+10	1	-1E+10	1	-1E+10	1	-1E+10	1	-1E+10	1	-1E+10	1
4902554	51	C	07/03/2022	12:07	-134.529	49.555	0	82.10	0	7.0300	0	32.3970	0	25.366	0	81.383	0	-1e10	8	-1e10	8	-1E+10	1	-1E+10	1	-1E+10	1	-1E+10	1	-1E+10	1	-1E+10	1
4902554	51	C	07/03/2022	12:07	-134.529	49.555	0	82.80	0	6.9890	0	32.4020	0	25.375	0	82.077	0	-1e10	8	-1e10	8	-1E+10	1	-1E+10	1	-1E+10	1	-1E+10	1	-1E+10	1	-1E+10	1
4902554	51	C	07/03/2022	12:07	-134.529	49.555	0	84.00	0	6.9730	0	32.4030	0	25.378	0	83.266	0	-1e10	8	-1e10	8	-1E+10	1	-1E+10	1	-1E+10	1	-1E+10	1	-1E+10	1	-1E+10	1
4902554	51	C	07/03/2022	12:07	-134.529	49.555	0	84.70	0	6.9640	0	32.4050	0	25.381	0	83.960	0	-1e10	8	-1e10	8	-1E+10	1	-1E+10	1	-1E+10	1	-1E+10	1	-1E+10	1	-1E+10	1
4902554	51	C	07/03/2022	12:07	-134.529	49.555	0	86.10	0	6.9550	0	32.4090	0	25.385	0	85.348	0	-1e10	8	-1e10	8	-1E+10	1	-1E+10	1	-1E+10	1	-1E+10	1	-1E+10	1	-1E+10	1
4902554	51	C	07/03/2022	12:07	-134.529	49.555	0	87.10	0	6.9450	0	32.4140	0	25.391	0	86.339	0	-1e10	8	-1e10	8	-1E+10	1	-1E+10	1	-1E+10	1	-1E+10	1	-1E+10	1	-1E+10	1
4902554	51	C	07/03/2022	12:07	-134.529	49.555	0	88.00	0	6.9070	0	32.4160	0	25.397	0	87.231	0	-1e10	8	-1e10	8	-1E+10	1	-1E+10	1	-1E+10	1	-1E+10	1	-1E+10	1	-1E+10	1
4902554	51	C	07/03/2022	12:07	-134.529	49.555	0	88.90	0	6.9100	0	32.4220	0	25.402	0	88.122	0	-1e10	8	-1e10	8	-1E+10	1	-1E+10	1	-1E+10	1	-1E+10	1	-1E+10	1	-1E+10	1
4902554	51	C	07/03/2022	12:07	-134.529	49.555	0	90.10	0	6.9150	0	32.4280	0	25.406	0	89.312	0	-1e10	8	-1e10	8	-1E+10	1	-1E+10	1	-1E+10	1	-1E+10	1	-1E+10	1	-1E+10	1
4902554	51	C	07/03/2022	12:07	-134.529	49.555	0	91.00	0	6.9100	0	32.4330	0	25.410	0	90.204	0	-1e10	8	-1e10	8	-1E+10	1	-1E+10	1	-1E+10	1	-1E+10	1	-1E+10	1	-1E+10	1
4902554	51	C	07/03/2022	12:07	-134.529	49.555	0	92.10	0	6.8940	0	32.4350	0	25.414	0	91.294	0	-1e10	8	-1e10	8	-1E+10	1	-1E+10	1	-1E+10	1	-1E+10	1	-1E+10	1	-1E+10	1
4902554	51	C	07/03/2022	12:07	-134.529	49.555	0	93.00	0	6.8310	0	32.4300	0	25.418	0	92.186	0	-1e10	8	-1e10	8	-1E+10	1	-1E+10	1	-1E+10	1	-1E+10	1	-1E+10	1	-1E+10	1
4902554	51	C	07/03/2022	12:07	-134.529	49.555	0	94.10	0	6.8210	0	32.4370	0	25.425	0	93.276	0	-1e10	8	-1e10	8	-1E+10	1	-1E+10	1	-1E+10	1	-1E+10	1	-1E+10	1	-1E+10	1
4902554	51	C	07/03/2022	12:07	-134.529	49.555	0	94.80	0	6.8240	0	32.4420	0	25.429	0	93.970	0	-1e10	8	-1e10	8	-1E+10	1	-1E+10	1	-1E+10	1	-1E+10	1	-1E+10	1	-1E+10	1
4902554	51	C	07/03/2022	12:07	-134.529	49.555	0	95.70	0	6.8350	0	32.4500	0	25.434	0	94.861	0	-1e10	8	-1e10	8	-1E+10	1	-1E+10	1	-1E+10	1	-1E+10	1	-1E+10	1	-1E+10	1
4902554	51	C	07/03/2022	12:07	-134.529	49.555	0	96.90	0	6.8190	0	32.4590	0	25.443	0	96.051	0	-1e10	8	-1e10	8	-1E+10	1	-1E+10	1	-1E+10	1	-1E+10	1	-1E+10	1	-1E+10	1
4902554	51	C	07/03/2022	12:07	-134.529	49.555	0	98.10	0	6.8130	0	32.4610	0	25.445	0	97.240	0	-1e10	8	-1e10	8	-1E+10	1	-1E+10	1	-1E+10	1	-1E+10	1	-1E+10	1	-1E+10	1
4902554	51	C	07/03/2022	12:07	-134.529	49.555	0	99.00	0	6.7900	0	32.4610	0	25.448	0	98.132	0	-1e10	8	-1e10	8	-1E+10	1	-1E+10	1	-1E+10	1	-1E+10	1	-1E+10	1	-1E+10	1
4902554	51	C	07/03/2022	12:07	-134.529	49.555	0	99.90	0	6.7450	0	32.4710	0	25.462	0	99.024	0	-1e10	8	-1e10	8	-1E+10	1	-1E+10	1	-1E+10	1	-1E+10	1	-1E+10	1	-1E+10	1
4902554	51	C	07/03/2022	12:07	-134.529	49.555	0	100.90	0	6.7190	0	32.4860	0	25.477	0	100.015	0	-1e10	8	-1e10	8	-1E+10	1	-1E+10	1	-1E+10	1	-1E+10	1	-1E+10	1	-1E+10	1
4902554	51	C	07/03/2022	12:07	-134.529	49.555	0	101.90	0	6.7030	0	32.4970	0	25.488	0	101.006	0	-1e10	8	-1e10	8	-1E+10	1	-1E+10	1	-1E+10	1	-1E+10	1	-1E+10	1	-1E+10	1
4902554	51	C	07/03/2022	12:07	-134.529	49.555	0	102.90	0	6.6770	0	32.5100	0	25.502	0	101.997	0	-1e10	8	-1e10	8	-1E+10	1	-1E+10	1	-1E+10	1	-1E+10	1	-1E+10	1	-1E+10	1
4902554	51	C	07/03/2022	12:07	-134.529	49.555	0	104.00	0	6.6610	0	32.5450	0	25.531	0	103.087	0	-1e10	8	-1e10	8	-1E+10	1	-1E+10	1	-1E+10	1	-1E+10	1	-1E+10	1	-1E+10	1
4902554	51	C	07/03/2022	12:07	-134.529	49.555	0	105.00	0	6.6680	0	32.5690	0	25.549	0	104.078	0	-1e10	8	-1e10	8	-1E+10	1	-1E+10	1	-1E+10	1	-1E+10	1	-1E+10	1	-1E+10	1
4902554	51	C	07/03/2022	12:07	-134.529	49.555	0	106.00	0	6.6600	0	32.5880	0	25.565	0	105.069	0	-1e10	8	-1e10	8	-1E+10	1	-1E+10	1	-1E+10	1	-1E+10	1	-1E+10	1	-1E+10	1
4902554	51	C	07/03/2022	12:07	-134.529	49.555	0	106.90	0	6.6110	0	32.6180	0	25.595	0	105.960	0	-1e10	8	-1e10	8	-1E+10	1	-1E+10	1	-1E+10	1	-1E+10	1	-1E+10	1	-1E+10	1
4902554	51	C	07/03/2022	12:07	-134.529	49.555	0	107.80	0	6.5810	0	32.6340	0	25.612	0	106.852	0	-1e10	8	-1e10	8	-1E+10	1	-1E+10	1	-1E+10	1	-1E+10	1	-1E+10	1	-1E+10	1
4902554	51	C	07/03/2022	12:07	-134.529	49.555	0	108.80	0	6.5580	0	32.6450	0	25.623	0	107.843	0	-1e10	8	-1e10	8	-1E+10	1	-1E+10	1	-1E+10	1	-1E+10	1	-1E+10	1	-1E+10	1
4902554	51	C	07/03/2022	12:07	-134.529	49.555	0	110.00	0	6.5220	0	32.6570	0	25.638	0	109.032	0	-1e10	8	-1e10	8	-1E+10	1	-1E+10	1	-1E+10	1	-1E+10	1	-1E+10	1	-1E+10	1
4902554	51	C	07/03/2022	12:07	-134.529	49.555	0	111.20	0	6.5070	0	32.6660	0	25.647	0	110.221	0	-1e10	8	-1e10	8	-1E+10	1	-1E+10	1	-1E+10	1	-1E+10	1	-1E+10	1	-1E+10	1
4902554	51	C	07/03/2022	12:07	-134.529	49.555	0	111.80	0	6.4930	0	32.6930	0	25.670	0	110.816	0	-1e10	8	-1e10	8	-1E+10	1	-1E+10	1	-1E+10	1	-1E+10	1	-1E+10	1	-1E+10	1
4902554	51	C	07/03/2022	12:07	-134.529	49.555	0	112.90	0	6.4840	0	32.7120	0	25.686	0	111.906	0	-1e10	8	-1e10	8	-1E+10	1	-1E+10	1	-1E+10	1	-1E+10	1	-1E+10	1	-1E+10	1
4902554	51	C	07/03/2022	12:07	-134.529	49.555	0	114.30	0	6.4720	0	32.7280	0	25.700	0	113.293	0	-1e10	8	-1e10	8	-1E+10	1	-1E+10	1	-1E+10	1	-1E+10	1	-1E+10	1	-1E+10	1
4902554	51	C	07/03/2022	12:07	-134.529	49.555	0	115.00	0	6.4430	0	32.7430	0	25.715	0	113.987	0	-1e10	8	-1e10	8	-1E+10	1	-1E+10	1	-1E+10	1	-1E+10	1	-1E+10	1	-1E+10	1
4902554	51	C	07/03/2022	12:07	-134.529	49.555	0	116.00	0	6.4200	0	32.7970	0	25.761	0	114.978	0	-1e10	8	-1e10	8	-1E+10	1	-1E+10	1	-1E+10	1	-1E+10	1	-1E+10	1	-1E+10	1
4902554	51	C	07/03/2022	12:07	-134.529	49.555	0	117.20	0	6.4010	0	32.8300	0	25.789	0	116.167	0	-1e10	8	-1e10	8	-1E+10	1	-1E+10	1	-1E+10	1	-1E+10	1	-1E+10	1	-1E+10	1
4902554	51	C	07/03/2022	12:07	-134.529	49.555	0	117.90	0	6.3910	0	32.8390	0	25.798	0	116.861	0	-1e10	8	-1e10	8	-1E+10	1	-1E+10	1	-1E+10	1	-1E+10	1	-1E+10	1	-1E+10	1
4902554	51	C	07/03/2022	12:07	-134.529	49.555	0	118.90	0	6.3550	0	32.8740	0	25.830	0	117.852	0	-1e10	8	-1e10	8	-1E+10	1	-1E+10	1	-1E+10	1	-1E+10	1	-1E+10	1	-1E+10	1
4902554	51	C	07/03/2022	12:07	-134.529	49.555	0	120.00	0	6.3300	0	32.9020	0	25.855	0	118.942	0	-1e10	8	-1e10	8	-1E+10	1	-1E+10	1	-1E+10	1	-1E+10	1	-1E+10	1	-1E+10	1
4902554	51	C	07/03/2022	12:07	-134.529	49.555	0	121.00	0	6.2820	0	32.9360	0	25.888	0	119.932	0	-1e10	8	-1e10	8	-1E+10	1	-1E+10	1	-1E+10	1	-1E+10	1	-1E+10	1	-1E+10	1
4902554	51	C	07/03/2022	12:07	-134.529	49.555	0	122.10	0	6.2270	0	32.9640	0	25.917	0	121.022	0	-1e10	8	-1e10	8	-1E+10	1	-1E+10	1	-1E+10	1	-1E+10	1	-1E+10	1	-1E+10	1
4902554	51	C	07/03/2022	12:07	-134.529	49.555	0	122.90	0	6.2000	0	32.9710	0	25.926	0	121.815	0	-1e10	8	-1e10	8	-1E+10	1	-1E+10	1	-1E+10	1	-1E+10	1	-1E+10	1	-1E+10	1
4902554	51	C	07/03/2022	12:07	-134.529	49.555	0	123.80	0	6.1370	0	33.0070	0	25.962	0	122.707	0	-1e10	8	-1e10	8	-1E+10	1	-1E+10	1	-1E+10	1	-1E+10	1	-1E+10	1	-1E+10	1
4902554	51	C	07/03/2022	12:07	-134.529	49.555	0	124.90	0	6.0840	0	33.0530	0	26.005	0	123.797	0	-1e10	8	-1e10	8	-1E+10	1	-1E+10	1	-1E+10	1	-1E+10	1	-1E+10	1	-1E+10	1
4902554	51	C	07/03/2022	12:07	-134.529	49.555	0	126.10	0	6.0610	0	33.0820	0	26.031	0	124.986	0	-1e10	8	-1e10	8	-1E+10	1	-1E+10	1	-1E+10	1	-1E+10	1	-1E+10	1	-1E+10	1
4902554	51	C	07/03/2022	12:07	-134.529	49.555	0	127.00	0	6.0450	0	33.1060	0	26.052	0	125.878	0	-1e10	8	-1e10	8	-1E+10	1	-1E+10	1	-1E+10	1	-1E+10	1	-1E+10	1	-1E+10	1
4902554	51	C	07/03/2022	12:07	-134.529	49.555	0	127.90	0	6.0350	0	33.1150	0	26.060	0	126.769	0	-1e10	8	-1e10	8	-1E+10	1	-1E+10	1	-1E+10	1	-1E+10	1	-1E+10	1	-1E+10	1
4902554	51	C	07/03/2022	12:07	-134.529	49.555	0	129.00	0	6.0110	0	33.1320	0	26.077	0	127.859	0	-1e10	8	-1e10	8	-1E+10	1	-1E+10	1	-1E+10	1	-1E+10	1	-1E+10	1	-1E+10	1
4902554	51	C	07/03/2022	12:07	-134.529	49.555	0	129.90	0	5.9730	0	33.1760	0	26.116	0	128.751	0	-1e10	8	-1e10	8	-1E+10	1	-1E+10	1	-1E+10	1	-1E+10	1	-1E+10	1	-1E+10	1
4902554	51	C	07/03/2022	12:07	-134.529	49.555	0	130.90	0	5.9530	0	33.2370	0	26.167	0	129.742	0	-1e10	8	-1e10	8	-1E+10	1	-1E+10	1	-1E+10	1	-1E+10	1	-1E+10	1	-1E+10	1
4902554	51	C	07/03/2022	12:07	-134.529	49.555	0	132.00	0	5.9330	0	33.2810	0	26.204	0	130.832	0	-1e10	8	-1e10	8	-1E+10	1	-1E+10	1	-1E+10	1	-1E+10	1	-1E+10	1	-1E+10	1
4902554	51	C	07/03/2022	12:07	-134.529	49.555	0	133.00	0	5.9260	0	33.2940	0	26.215	0	131.823	0	-1e10	8	-1e10	8	-1E+10	1	-1E+10	1	-1E+10	1	-1E+10	1	-1E+10	1	-1E+10	1
4902554	51	C	07/03/2022	12:07	-134.529	49.555	0	134.10	0	5.9150	0	33.3110	0	26.230	0	132.913	0	-1e10	8	-1e10	8	-1E+10	1	-1E+10	1	-1E+10	1	-1E+10	1	-1E+10	1	-1E+10	1
4902554	51	C	07/03/2022	12:07	-134.529	49.555	0	134.80	0	5.9070	0	33.3190	0	26.237	0	133.606	0	-1e10	8	-1e10	8	-1E+10	1	-1E+10	1	-1E+10	1	-1E+10	1	-1E+10	1	-1E+10	1
4902554	51	C	07/03/2022	12:07	-134.529	49.555	0	135.90	0	5.8920	0	33.3470	0	26.261	0	134.696	0	-1e10	8	-1e10	8	-1E+10	1	-1E+10	1	-1E+10	1	-1E+10	1	-1E+10	1	-1E+10	1
4902554	51	C	07/03/2022	12:07	-134.529	49.555	0	137.10	0	5.8720	0	33.3880	0	26.296	0	135.885	0	-1e10	8	-1e10	8	-1E+10	1	-1E+10	1	-1E+10	1	-1E+10	1	-1E+10	1	-1E+10	1
4902554	51	C	07/03/2022	12:07	-134.529	49.555	0	137.80	0	5.8710	0	33.3970	0	26.304	0	136.579	0	-1e10	8	-1e10	8	-1E+10	1	-1E+10	1	-1E+10	1	-1E+10	1	-1E+10	1	-1E+10	1
4902554	51	C	07/03/2022	12:07	-134.529	49.555	0	138.70	0	5.8900	0	33.4400	0	26.335	0	137.470	0	-1e10	8	-1e10	8	-1E+10	1	-1E+10	1	-1E+10	1	-1E+10	1	-1E+10	1	-1E+10	1
4902554	51	C	07/03/2022	12:07	-134.529	49.555	0	139.90	0	5.8850	0	33.4620	0	26.353	0	138.659	0	-1e10	8	-1e10	8	-1E+10	1	-1E+10	1	-1E+10	1	-1E+10	1	-1E+10	1	-1E+10	1
4902554	51	C	07/03/2022	12:07	-134.529	49.555	0	141.20	0	5.8790	0	33.4830	0	26.371	0	139.947	0	-1e10	8	-1e10	8	-1E+10	1	-1E+10	1	-1E+10	1	-1E+10	1	-1E+10	1	-1E+10	1
4902554	51	C	07/03/2022	12:07	-134.529	49.555	0	142.10	0	5.8710	0	33.4980	0	26.383	0	140.839	0	-1e10	8	-1e10	8	-1E+10	1	-1E+10	1	-1E+10	1	-1E+10	1	-1E+10	1	-1E+10	1
4902554	51	C	07/03/2022	12:07	-134.529	49.555	0	143.00	0	5.8410	0	33.5270	0	26.410	0	141.731	0	-1e10	8	-1e10	8	-1E+10	1	-1E+10	1	-1E+10	1	-1E+10	1	-1E+10	1	-1E+10	1
4902554	51	C	07/03/2022	12:07	-134.529	49.555	0	143.90	0	5.8360	0	33.5400	0	26.421	0	142.622	0	-1e10	8	-1e10	8	-1E+10	1	-1E+10	1	-1E+10	1	-1E+10	1	-1E+10	1	-1E+10	1
4902554	51	C	07/03/2022	12:07	-134.529	49.555	0	144.80	0	5.8050	0	33.5600	0	26.441	0	143.514	0	-1e10	8	-1e10	8	-1E+10	1	-1E+10	1	-1E+10	1	-1E+10	1	-1E+10	1	-1E+10	1
4902554	51	C	07/03/2022	12:07	-134.529	49.555	0	145.70	0	5.7990	0	33.5640	0	26.444	0	144.406	0	-1e10	8	-1e10	8	-1E+10	1	-1E+10	1	-1E+10	1	-1E+10	1	-1E+10	1	-1E+10	1
4902554	51	C	07/03/2022	12:07	-134.529	49.555	0	146.60	0	5.7880	0	33.5680	0	26.449	0	145.298	0	-1e10	8	-1e10	8	-1E+10	1	-1E+10	1	-1E+10	1	-1E+10	1	-1E+10	1	-1E+10	1
4902554	51	C	07/03/2022	12:07	-134.529	49.555	0	147.60	0	5.7680	0	33.5720	0	26.455	0	146.288	0	-1e10	8	-1e10	8	-1E+10	1	-1E+10	1	-1E+10	1	-1E+10	1	-1E+10	1	-1E+10	1
4902554	51	C	07/03/2022	12:07	-134.529	49.555	0	148.50	0	5.7530	0	33.5780	0	26.461	0	147.180	0	-1e10	8	-1e10	8	-1E+10	1	-1E+10	1	-1E+10	1	-1E+10	1	-1E+10	1	-1E+10	1
4902554	51	C	07/03/2022	12:07	-134.529	49.555	0	149.90	0	5.6940	0	33.5940	0	26.481	0	148.567	0	-1e10	8	-1e10	8	-1E+10	1	-1E+10	1	-1E+10	1	-1E+10	1	-1E+10	1	-1E+10	1
4902554	51	C	07/03/2022	12:07	-134.529	49.555	0	151.40	0	5.6590	0	33.6040	0	26.493	0	150.053	0	-1e10	8	-1e10	8	-1E+10	1	-1E+10	1	-1E+10	1	-1E+10	1	-1E+10	1	-1E+10	1
4902554	51	C	07/03/2022	12:07	-134.529	49.555	0	152.40	0	5.6600	0	33.6050	0	26.494	0	151.044	0	-1e10	8	-1e10	8	-1E+10	1	-1E+10	1	-1E+10	1	-1E+10	1	-1E+10	1	-1E+10	1
4902554	51	C	07/03/2022	12:07	-134.529	49.555	0	153.40	0	5.6910	0	33.6130	0	26.496	0	152.035	0	-1e10	8	-1e10	8	-1E+10	1	-1E+10	1	-1E+10	1	-1E+10	1	-1E+10	1	-1E+10	1
4902554	51	C	07/03/2022	12:07	-134.529	49.555	0	154.40	0	5.7030	0	33.6230	0	26.503	0	153.025	0	-1e10	8	-1e10	8	-1E+10	1	-1E+10	1	-1E+10	1	-1E+10	1	-1E+10	1	-1E+10	1
4902554	51	C	07/03/2022	12:07	-134.529	49.555	0	155.40	0	5.7030	0	33.6270	0	26.506	0	154.016	0	-1e10	8	-1e10	8	-1E+10	1	-1E+10	1	-1E+10	1	-1E+10	1	-1E+10	1	-1E+10	1
4902554	51	C	07/03/2022	12:07	-134.529	49.555	0	156.40	0	5.6850	0	33.6300	0	26.511	0	155.007	0	-1e10	8	-1e10	8	-1E+10	1	-1E+10	1	-1E+10	1	-1E+10	1	-1E+10	1	-1E+10	1
4902554	51	C	07/03/2022	12:07	-134.529	49.555	0	157.40	0	5.6660	0	33.6310	0	26.514	0	155.997	0	-1e10	8	-1e10	8	-1E+10	1	-1E+10	1	-1E+10	1	-1E+10	1	-1E+10	1	-1E+10	1
4902554	51	C	07/03/2022	12:07	-134.529	49.555	0	158.40	0	5.6550	0	33.6290	0	26.513	0	156.988	0	-1e10	8	-1e10	8	-1E+10	1	-1E+10	1	-1E+10	1	-1E+10	1	-1E+10	1	-1E+10	1
4902554	51	C	07/03/2022	12:07	-134.529	49.555	0	159.40	0	5.6400	0	33.6290	0	26.515	0	157.979	0	-1e10	8	-1e10	8	-1E+10	1	-1E+10	1	-1E+10	1	-1E+10	1	-1E+10	1	-1E+10	1
4902554	51	C	07/03/2022	12:07	-134.529	49.555	0	160.40	0	5.6030	0	33.6310	0	26.521	0	158.970	0	-1e10	8	-1e10	8	-1E+10	1	-1E+10	1	-1E+10	1	-1E+10	1	-1E+10	1	-1E+10	1
4902554	51	C	07/03/2022	12:07	-134.529	49.555	0	161.40	0	5.5760	0	33.6330	0	26.526	0	159.960	0	-1e10	8	-1e10	8	-1E+10	1	-1E+10	1	-1E+10	1	-1E+10	1	-1E+10	1	-1E+10	1
4902554	51	C	07/03/2022	12:07	-134.529	49.555	0	162.50	0	5.5600	0	33.6410	0	26.534	0	161.050	0	-1e10	8	-1e10	8	-1E+10	1	-1E+10	1	-1E+10	1	-1E+10	1	-1E+10	1	-1E+10	1
4902554	51	C	07/03/2022	12:07	-134.529	49.555	0	163.50	0	5.5390	0	33.6530	0	26.546	0	162.041	0	-1e10	8	-1e10	8	-1E+10	1	-1E+10	1	-1E+10	1	-1E+10	1	-1E+10	1	-1E+10	1
4902554	51	C	07/03/2022	12:07	-134.529	49.555	0	164.50	0	5.5220	0	33.6620	0	26.555	0	163.031	0	-1e10	8	-1e10	8	-1E+10	1	-1E+10	1	-1E+10	1	-1E+10	1	-1E+10	1	-1E+10	1
4902554	51	C	07/03/2022	12:07	-134.529	49.555	0	165.60	0	5.5230	0	33.6680	0	26.560	0	164.121	0	-1e10	8	-1e10	8	-1E+10	1	-1E+10	1	-1E+10	1	-1E+10	1	-1E+10	1	-1E+10	1
4902554	51	C	07/03/2022	12:07	-134.529	49.555	0	166.60	0	5.5220	0	33.6730	0	26.564	0	165.112	0	-1e10	8	-1e10	8	-1E+10	1	-1E+10	1	-1E+10	1	-1E+10	1	-1E+10	1	-1E+10	1
4902554	51	C	07/03/2022	12:07	-134.529	49.555	0	167.60	0	5.5210	0	33.6750	0	26.566	0	166.103	0	-1e10	8	-1e10	8	-1E+10	1	-1E+10	1	-1E+10	1	-1E+10	1	-1E+10	1	-1E+10	1
4902554	51	C	07/03/2022	12:07	-134.529	49.555	0	168.70	0	5.5180	0	33.6780	0	26.569	0	167.192	0	-1e10	8	-1e10	8	-1E+10	1	-1E+10	1	-1E+10	1	-1E+10	1	-1E+10	1	-1E+10	1
4902554	51	C	07/03/2022	12:07	-134.529	49.555	0	169.70	0	5.5160	0	33.6780	0	26.569	0	168.183	0	-1e10	8	-1e10	8	-1E+10	1	-1E+10	1	-1E+10	1	-1E+10	1	-1E+10	1	-1E+10	1
4902554	51	C	07/03/2022	12:07	-134.529	49.555	0	170.70	0	5.5040	0	33.6840	0	26.575	0	169.174	0	-1e10	8	-1e10	8	-1E+10	1	-1E+10	1	-1E+10	1	-1E+10	1	-1E+10	1	-1E+10	1
4902554	51	C	07/03/2022	12:07	-134.529	49.555	0	171.80	0	5.4970	0	33.6880	0	26.579	0	170.263	0	-1e10	8	-1e10	8	-1E+10	1	-1E+10	1	-1E+10	1	-1E+10	1	-1E+10	1	-1E+10	1
4902554	51	C	07/03/2022	12:07	-134.529	49.555	0	172.80	0	5.4840	0	33.6890	0	26.581	0	171.254	0	-1e10	8	-1e10	8	-1E+10	1	-1E+10	1	-1E+10	1	-1E+10	1	-1E+10	1	-1E+10	1
4902554	51	C	07/03/2022	12:07	-134.529	49.555	0	173.90	0	5.4730	0	33.6940	0	26.587	0	172.344	0	-1e10	8	-1e10	8	-1E+10	1	-1E+10	1	-1E+10	1	-1E+10	1	-1E+10	1	-1E+10	1
4902554	51	C	07/03/2022	12:07	-134.529	49.555	0	174.90	0	5.4540	0	33.7030	0	26.596	0	173.334	0	-1e10	8	-1e10	8	-1E+10	1	-1E+10	1	-1E+10	1	-1E+10	1	-1E+10	1	-1E+10	1
4902554	51	C	07/03/2022	12:07	-134.529	49.555	0	176.00	0	5.4460	0	33.7000	0	26.595	0	174.424	0	-1e10	8	-1e10	8	-1E+10	1	-1E+10	1	-1E+10	1	-1E+10	1	-1E+10	1	-1E+10	1
4902554	51	C	07/03/2022	12:07	-134.529	49.555	0	177.00	0	5.4460	0	33.7010	0	26.596	0	175.415	0	-1e10	8	-1e10	8	-1E+10	1	-1E+10	1	-1E+10	1	-1E+10	1	-1E+10	1	-1E+10	1
4902554	51	C	07/03/2022	12:07	-134.529	49.555	0	178.10	0	5.4440	0	33.7020	0	26.597	0	176.504	0	-1e10	8	-1e10	8	-1E+10	1	-1E+10	1	-1E+10	1	-1E+10	1	-1E+10	1	-1E+10	1
4902554	51	C	07/03/2022	12:07	-134.529	49.555	0	179.10	0	5.4460	0	33.7030	0	26.597	0	177.495	0	-1e10	8	-1e10	8	-1E+10	1	-1E+10	1	-1E+10	1	-1E+10	1	-1E+10	1	-1E+10	1
4902554	51	C	07/03/2022	12:07	-134.529	49.555	0	180.20	0	5.4460	0	33.7030	0	26.597	0	178.584	0	-1e10	8	-1e10	8	-1E+10	1	-1E+10	1	-1E+10	1	-1E+10	1	-1E+10	1	-1E+10	1
4902554	51	C	07/03/2022	12:07	-134.529	49.555	0	181.20	0	5.4470	0	33.7040	0	26.598	0	179.575	0	-1e10	8	-1e10	8	-1E+10	1	-1E+10	1	-1E+10	1	-1E+10	1	-1E+10	1	-1E+10	1
4902554	51	C	07/03/2022	12:07	-134.529	49.555	0	182.30	0	5.4470	0	33.7060	0	26.599	0	180.665	0	-1e10	8	-1e10	8	-1E+10	1	-1E+10	1	-1E+10	1	-1E+10	1	-1E+10	1	-1E+10	1
4902554	51	C	07/03/2022	12:07	-134.529	49.555	0	183.40	0	5.4350	0	33.7120	0	26.606	0	181.754	0	-1e10	8	-1e10	8	-1E+10	1	-1E+10	1	-1E+10	1	-1E+10	1	-1E+10	1	-1E+10	1
4902554	51	C	07/03/2022	12:07	-134.529	49.555	0	184.40	0	5.4280	0	33.7150	0	26.609	0	182.745	0	-1e10	8	-1e10	8	-1E+10	1	-1E+10	1	-1E+10	1	-1E+10	1	-1E+10	1	-1E+10	1
4902554	51	C	07/03/2022	12:07	-134.529	49.555	0	185.50	0	5.4200	0	33.7180	0	26.612	0	183.835	0	-1e10	8	-1e10	8	-1E+10	1	-1E+10	1	-1E+10	1	-1E+10	1	-1E+10	1	-1E+10	1
4902554	51	C	07/03/2022	12:07	-134.529	49.555	0	186.50	0	5.4140	0	33.7180	0	26.613	0	184.825	0	-1e10	8	-1e10	8	-1E+10	1	-1E+10	1	-1E+10	1	-1E+10	1	-1E+10	1	-1E+10	1
4902554	51	C	07/03/2022	12:07	-134.529	49.555	0	187.50	0	5.4100	0	33.7200	0	26.615	0	185.816	0	-1e10	8	-1e10	8	-1E+10	1	-1E+10	1	-1E+10	1	-1E+10	1	-1E+10	1	-1E+10	1
4902554	51	C	07/03/2022	12:07	-134.529	49.555	0	188.90	0	5.3990	0	33.7220	0	26.618	0	187.203	0	-1e10	8	-1e10	8	-1E+10	1	-1E+10	1	-1E+10	1	-1E+10	1	-1E+10	1	-1E+10	1
4902554	51	C	07/03/2022	12:07	-134.529	49.555	0	190.10	0	5.3720	0	33.7250	0	26.623	0	188.391	0	-1e10	8	-1e10	8	-1E+10	1	-1E+10	1	-1E+10	1	-1E+10	1	-1E+10	1	-1E+10	1
4902554	51	C	07/03/2022	12:07	-134.529	49.555	0	190.90	0	5.3520	0	33.7270	0	26.627	0	189.184	0	-1e10	8	-1e10	8	-1E+10	1	-1E+10	1	-1E+10	1	-1E+10	1	-1E+10	1	-1E+10	1
4902554	51	C	07/03/2022	12:07	-134.529	49.555	0	191.70	0	5.3370	0	33.7320	0	26.633	0	189.976	0	-1e10	8	-1e10	8	-1E+10	1	-1E+10	1	-1E+10	1	-1E+10	1	-1E+10	1	-1E+10	1
4902554	51	C	07/03/2022	12:07	-134.529	49.555	0	192.90	0	5.3270	0	33.7340	0	26.636	0	191.165	0	-1e10	8	-1e10	8	-1E+10	1	-1E+10	1	-1E+10	1	-1E+10	1	-1E+10	1	-1E+10	1
4902554	51	C	07/03/2022	12:07	-134.529	49.555	0	194.10	0	5.3070	0	33.7420	0	26.644	0	192.353	0	-1e10	8	-1e10	8	-1E+10	1	-1E+10	1	-1E+10	1	-1E+10	1	-1E+10	1	-1E+10	1
4902554	51	C	07/03/2022	12:07	-134.529	49.555	0	194.90	0	5.2970	0	33.7420	0	26.646	0	193.146	0	-1e10	8	-1e10	8	-1E+10	1	-1E+10	1	-1E+10	1	-1E+10	1	-1E+10	1	-1E+10	1
4902554	51	C	07/03/2022	12:07	-134.529	49.555	0	195.80	0	5.2810	0	33.7430	0	26.648	0	194.037	0	-1e10	8	-1e10	8	-1E+10	1	-1E+10	1	-1E+10	1	-1E+10	1	-1E+10	1	-1E+10	1
4902554	51	C	07/03/2022	12:07	-134.529	49.555	0	197.00	0	5.2550	0	33.7480	0	26.655	0	195.226	0	-1e10	8	-1e10	8	-1E+10	1	-1E+10	1	-1E+10	1	-1E+10	1	-1E+10	1	-1E+10	1
4902554	51	C	07/03/2022	12:07	-134.529	49.555	0	198.20	0	5.2330	0	33.7540	0	26.663	0	196.415	0	-1e10	8	-1e10	8	-1E+10	1	-1E+10	1	-1E+10	1	-1E+10	1	-1E+10	1	-1E+10	1
4902554	51	C	07/03/2022	12:07	-134.529	49.555	0	199.10	0	5.2310	0	33.7550	0	26.664	0	197.306	0	-1e10	8	-1e10	8	-1E+10	1	-1E+10	1	-1E+10	1	-1E+10	1	-1E+10	1	-1E+10	1
4902554	51	C	07/03/2022	12:07	-134.529	49.555	0	199.90	0	5.2190	0	33.7620	0	26.671	0	198.098	0	-1e10	8	-1e10	8	-1E+10	1	-1E+10	1	-1E+10	1	-1E+10	1	-1E+10	1	-1E+10	1
4902554	51	C	07/03/2022	12:07	-134.529	49.555	0	200.80	0	5.2110	0	33.7610	0	26.671	0	198.990	0	-1e10	8	-1e10	8	-1E+10	1	-1E+10	1	-1E+10	1	-1E+10	1	-1E+10	1	-1E+10	1
4902554	51	C	07/03/2022	12:07	-134.529	49.555	0	201.60	0	5.2060	0	33.7620	0	26.672	0	199.782	0	-1e10	8	-1e10	8	-1E+10	1	-1E+10	1	-1E+10	1	-1E+10	1	-1E+10	1	-1E+10	1
4902554	51	C	07/03/2022	12:07	-134.529	49.555	0	202.90	0	5.1910	0	33.7640	0	26.675	0	201.070	0	-1e10	8	-1e10	8	-1E+10	1	-1E+10	1	-1E+10	1	-1E+10	1	-1E+10	1	-1E+10	1
4902554	51	C	07/03/2022	12:07	-134.529	49.555	0	204.20	0	5.1730	0	33.7680	0	26.681	0	202.358	0	-1e10	8	-1e10	8	-1E+10	1	-1E+10	1	-1E+10	1	-1E+10	1	-1E+10	1	-1E+10	1
4902554	51	C	07/03/2022	12:07	-134.529	49.555	0	205.00	0	5.1590	0	33.7690	0	26.683	0	203.150	0	-1e10	8	-1e10	8	-1E+10	1	-1E+10	1	-1E+10	1	-1E+10	1	-1E+10	1	-1E+10	1
4902554	51	C	07/03/2022	12:07	-134.529	49.555	0	205.80	0	5.1540	0	33.7690	0	26.684	0	203.942	0	-1e10	8	-1e10	8	-1E+10	1	-1E+10	1	-1E+10	1	-1E+10	1	-1E+10	1	-1E+10	1
4902554	51	C	07/03/2022	12:07	-134.529	49.555	0	206.70	0	5.1410	0	33.7700	0	26.686	0	204.834	0	-1e10	8	-1e10	8	-1E+10	1	-1E+10	1	-1E+10	1	-1E+10	1	-1E+10	1	-1E+10	1
4902554	51	C	07/03/2022	12:07	-134.529	49.555	0	207.90	0	5.1250	0	33.7720	0	26.689	0	206.022	0	-1e10	8	-1e10	8	-1E+10	1	-1E+10	1	-1E+10	1	-1E+10	1	-1E+10	1	-1E+10	1
4902554	51	C	07/03/2022	12:07	-134.529	49.555	0	209.20	0	5.1150	0	33.7730	0	26.691	0	207.310	0	-1e10	8	-1e10	8	-1E+10	1	-1E+10	1	-1E+10	1	-1E+10	1	-1E+10	1	-1E+10	1
4902554	51	C	07/03/2022	12:07	-134.529	49.555	0	210.00	0	5.1060	0	33.7740	0	26.693	0	208.102	0	-1e10	8	-1e10	8	-1E+10	1	-1E+10	1	-1E+10	1	-1E+10	1	-1E+10	1	-1E+10	1
4902554	51	C	07/03/2022	12:07	-134.529	49.555	0	210.80	0	5.0910	0	33.7760	0	26.696	0	208.895	0	-1e10	8	-1e10	8	-1E+10	1	-1E+10	1	-1E+10	1	-1E+10	1	-1E+10	1	-1E+10	1
4902554	51	C	07/03/2022	12:07	-134.529	49.555	0	211.70	0	5.0640	0	33.7800	0	26.703	0	209.786	0	-1e10	8	-1e10	8	-1E+10	1	-1E+10	1	-1E+10	1	-1E+10	1	-1E+10	1	-1E+10	1
4902554	51	C	07/03/2022	12:07	-134.529	49.555	0	212.90	0	5.0470	0	33.7790	0	26.704	0	210.975	0	-1e10	8	-1e10	8	-1E+10	1	-1E+10	1	-1E+10	1	-1E+10	1	-1E+10	1	-1E+10	1
4902554	51	C	07/03/2022	12:07	-134.529	49.555	0	214.30	0	5.0320	0	33.7810	0	26.707	0	212.361	0	-1e10	8	-1e10	8	-1E+10	1	-1E+10	1	-1E+10	1	-1E+10	1	-1E+10	1	-1E+10	1
4902554	51	C	07/03/2022	12:07	-134.529	49.555	0	215.10	0	5.0240	0	33.7800	0	26.707	0	213.154	0	-1e10	8	-1e10	8	-1E+10	1	-1E+10	1	-1E+10	1	-1E+10	1	-1E+10	1	-1E+10	1
4902554	51	C	07/03/2022	12:07	-134.529	49.555	0	216.00	0	5.0170	0	33.7820	0	26.710	0	214.045	0	-1e10	8	-1e10	8	-1E+10	1	-1E+10	1	-1E+10	1	-1E+10	1	-1E+10	1	-1E+10	1
4902554	51	C	07/03/2022	12:07	-134.529	49.555	0	216.90	0	5.0130	0	33.7810	0	26.709	0	214.936	0	-1e10	8	-1e10	8	-1E+10	1	-1E+10	1	-1E+10	1	-1E+10	1	-1E+10	1	-1E+10	1
4902554	51	C	07/03/2022	12:07	-134.529	49.555	0	217.80	0	5.0080	0	33.7770	0	26.707	0	215.828	0	-1e10	8	-1e10	8	-1E+10	1	-1E+10	1	-1E+10	1	-1E+10	1	-1E+10	1	-1E+10	1
4902554	51	C	07/03/2022	12:07	-134.529	49.555	0	218.70	0	4.9970	0	33.7810	0	26.711	0	216.719	0	-1e10	8	-1e10	8	-1E+10	1	-1E+10	1	-1E+10	1	-1E+10	1	-1E+10	1	-1E+10	1
4902554	51	C	07/03/2022	12:07	-134.529	49.555	0	219.60	0	4.9890	0	33.7840	0	26.714	0	217.611	0	-1e10	8	-1e10	8	-1E+10	1	-1E+10	1	-1E+10	1	-1E+10	1	-1E+10	1	-1E+10	1
4902554	51	C	07/03/2022	12:07	-134.529	49.555	0	220.90	0	4.9650	0	33.7780	0	26.712	0	218.898	0	-1e10	8	-1e10	8	-1E+10	1	-1E+10	1	-1E+10	1	-1E+10	1	-1E+10	1	-1E+10	1
4902554	51	C	07/03/2022	12:07	-134.529	49.555	0	222.40	0	4.9060	0	33.7840	0	26.724	0	220.384	0	-1e10	8	-1e10	8	-1E+10	1	-1E+10	1	-1E+10	1	-1E+10	1	-1E+10	1	-1E+10	1
4902554	51	C	07/03/2022	12:07	-134.529	49.555	0	223.30	0	4.9030	0	33.7830	0	26.723	0	221.275	0	-1e10	8	-1e10	8	-1E+10	1	-1E+10	1	-1E+10	1	-1E+10	1	-1E+10	1	-1E+10	1
4902554	51	C	07/03/2022	12:07	-134.529	49.555	0	224.20	0	4.9010	0	33.7830	0	26.724	0	222.166	0	-1e10	8	-1e10	8	-1E+10	1	-1E+10	1	-1E+10	1	-1E+10	1	-1E+10	1	-1E+10	1
4902554	51	C	07/03/2022	12:07	-134.529	49.555	0	225.10	0	4.8990	0	33.7840	0	26.725	0	223.058	0	-1e10	8	-1e10	8	-1E+10	1	-1E+10	1	-1E+10	1	-1E+10	1	-1E+10	1	-1E+10	1
4902554	51	C	07/03/2022	12:07	-134.529	49.555	0	226.00	0	4.8970	0	33.7830	0	26.724	0	223.949	0	-1e10	8	-1e10	8	-1E+10	1	-1E+10	1	-1E+10	1	-1E+10	1	-1E+10	1	-1E+10	1
4902554	51	C	07/03/2022	12:07	-134.529	49.555	0	226.90	0	4.8930	0	33.7840	0	26.725	0	224.840	0	-1e10	8	-1e10	8	-1E+10	1	-1E+10	1	-1E+10	1	-1E+10	1	-1E+10	1	-1E+10	1
4902554	51	C	07/03/2022	12:07	-134.529	49.555	0	227.80	0	4.8930	0	33.7840	0	26.725	0	225.732	0	-1e10	8	-1e10	8	-1E+10	1	-1E+10	1	-1E+10	1	-1E+10	1	-1E+10	1	-1E+10	1
4902554	51	C	07/03/2022	12:07	-134.529	49.555	0	228.70	0	4.8850	0	33.7850	0	26.727	0	226.623	0	-1e10	8	-1e10	8	-1E+10	1	-1E+10	1	-1E+10	1	-1E+10	1	-1E+10	1	-1E+10	1
4902554	51	C	07/03/2022	12:07	-134.529	49.555	0	229.60	0	4.8800	0	33.7850	0	26.728	0	227.514	0	-1e10	8	-1e10	8	-1E+10	1	-1E+10	1	-1E+10	1	-1E+10	1	-1E+10	1	-1E+10	1
4902554	51	C	07/03/2022	12:07	-134.529	49.555	0	230.90	0	4.8750	0	33.7850	0	26.728	0	228.802	0	-1e10	8	-1e10	8	-1E+10	1	-1E+10	1	-1E+10	1	-1E+10	1	-1E+10	1	-1E+10	1
4902554	51	C	07/03/2022	12:07	-134.529	49.555	0	232.30	0	4.8730	0	33.7860	0	26.729	0	230.188	0	-1e10	8	-1e10	8	-1E+10	1	-1E+10	1	-1E+10	1	-1E+10	1	-1E+10	1	-1E+10	1
4902554	51	C	07/03/2022	12:07	-134.529	49.555	0	233.30	0	4.8720	0	33.7860	0	26.729	0	231.179	0	-1e10	8	-1e10	8	-1E+10	1	-1E+10	1	-1E+10	1	-1E+10	1	-1E+10	1	-1E+10	1
4902554	51	C	07/03/2022	12:07	-134.529	49.555	0	234.20	0	4.8720	0	33.7850	0	26.729	0	232.070	0	-1e10	8	-1e10	8	-1E+10	1	-1E+10	1	-1E+10	1	-1E+10	1	-1E+10	1	-1E+10	1
4902554	51	C	07/03/2022	12:07	-134.529	49.555	0	235.10	0	4.8680	0	33.7850	0	26.729	0	232.961	0	-1e10	8	-1e10	8	-1E+10	1	-1E+10	1	-1E+10	1	-1E+10	1	-1E+10	1	-1E+10	1
4902554	51	C	07/03/2022	12:07	-134.529	49.555	0	236.00	0	4.8640	0	33.7830	0	26.728	0	233.853	0	-1e10	8	-1e10	8	-1E+10	1	-1E+10	1	-1E+10	1	-1E+10	1	-1E+10	1	-1E+10	1
4902554	51	C	07/03/2022	12:07	-134.529	49.555	0	236.90	0	4.8530	0	33.7860	0	26.731	0	234.744	0	-1e10	8	-1e10	8	-1E+10	1	-1E+10	1	-1E+10	1	-1E+10	1	-1E+10	1	-1E+10	1
4902554	51	C	07/03/2022	12:07	-134.529	49.555	0	237.80	0	4.8140	0	33.7880	0	26.737	0	235.635	0	-1e10	8	-1e10	8	-1E+10	1	-1E+10	1	-1E+10	1	-1E+10	1	-1E+10	1	-1E+10	1
4902554	51	C	07/03/2022	12:07	-134.529	49.555	0	238.80	0	4.8070	0	33.7890	0	26.739	0	236.626	0	-1e10	8	-1e10	8	-1E+10	1	-1E+10	1	-1E+10	1	-1E+10	1	-1E+10	1	-1E+10	1
4902554	51	C	07/03/2022	12:07	-134.529	49.555	0	239.70	0	4.8030	0	33.7900	0	26.740	0	237.517	0	-1e10	8	-1e10	8	-1E+10	1	-1E+10	1	-1E+10	1	-1E+10	1	-1E+10	1	-1E+10	1
4902554	51	C	07/03/2022	12:07	-134.529	49.555	0	240.70	0	4.8020	0	33.7900	0	26.740	0	238.507	0	-1e10	8	-1e10	8	-1E+10	1	-1E+10	1	-1E+10	1	-1E+10	1	-1E+10	1	-1E+10	1
4902554	51	C	07/03/2022	12:07	-134.529	49.555	0	241.60	0	4.8000	0	33.7900	0	26.741	0	239.398	0	-1e10	8	-1e10	8	-1E+10	1	-1E+10	1	-1E+10	1	-1E+10	1	-1E+10	1	-1E+10	1
4902554	51	C	07/03/2022	12:07	-134.529	49.555	0	242.60	0	4.7970	0	33.7910	0	26.742	0	240.389	0	-1e10	8	-1e10	8	-1E+10	1	-1E+10	1	-1E+10	1	-1E+10	1	-1E+10	1	-1E+10	1
4902554	51	C	07/03/2022	12:07	-134.529	49.555	0	243.90	0	4.7880	0	33.7920	0	26.744	0	241.676	0	-1e10	8	-1e10	8	-1E+10	1	-1E+10	1	-1E+10	1	-1E+10	1	-1E+10	1	-1E+10	1
4902554	51	C	07/03/2022	12:07	-134.529	49.555	0	245.40	0	4.7840	0	33.7930	0	26.745	0	243.162	0	-1e10	8	-1e10	8	-1E+10	1	-1E+10	1	-1E+10	1	-1E+10	1	-1E+10	1	-1E+10	1
4902554	51	C	07/03/2022	12:07	-134.529	49.555	0	246.30	0	4.7830	0	33.7930	0	26.745	0	244.053	0	-1e10	8	-1e10	8	-1E+10	1	-1E+10	1	-1E+10	1	-1E+10	1	-1E+10	1	-1E+10	1
4902554	51	C	07/03/2022	12:07	-134.529	49.555	0	247.20	0	4.7820	0	33.7930	0	26.745	0	244.944	0	-1e10	8	-1e10	8	-1E+10	1	-1E+10	1	-1E+10	1	-1E+10	1	-1E+10	1	-1E+10	1
4902554	51	C	07/03/2022	12:07	-134.529	49.555	0	248.10	0	4.7830	0	33.7930	0	26.745	0	245.835	0	-1e10	8	-1e10	8	-1E+10	1	-1E+10	1	-1E+10	1	-1E+10	1	-1E+10	1	-1E+10	1
4902554	51	C	07/03/2022	12:07	-134.529	49.555	0	249.10	0	4.7850	0	33.7950	0	26.746	0	246.826	0	-1e10	8	-1e10	8	-1E+10	1	-1E+10	1	-1E+10	1	-1E+10	1	-1E+10	1	-1E+10	1
4902554	51	C	07/03/2022	12:07	-134.529	49.555	0	250.00	0	4.7870	0	33.7960	0	26.747	0	247.717	0	-1e10	8	-1e10	8	-1E+10	1	-1E+10	1	-1E+10	1	-1E+10	1	-1E+10	1	-1E+10	1
4902554	51	C	07/03/2022	12:07	-134.529	49.555	0	250.90	0	4.7920	0	33.7970	0	26.747	0	248.608	0	-1e10	8	-1e10	8	-1E+10	1	-1E+10	1	-1E+10	1	-1E+10	1	-1E+10	1	-1E+10	1
4902554	51	C	07/03/2022	12:07	-134.529	49.555	0	251.90	0	4.7970	0	33.7970	0	26.747	0	249.598	0	-1e10	8	-1e10	8	-1E+10	1	-1E+10	1	-1E+10	1	-1E+10	1	-1E+10	1	-1E+10	1
4902554	51	C	07/03/2022	12:07	-134.529	49.555	0	252.80	0	4.8140	0	33.8010	0	26.748	0	250.490	0	-1e10	8	-1e10	8	-1E+10	1	-1E+10	1	-1E+10	1	-1E+10	1	-1E+10	1	-1E+10	1
4902554	51	C	07/03/2022	12:07	-134.529	49.555	0	253.70	0	4.8160	0	33.8030	0	26.749	0	251.381	0	-1e10	8	-1e10	8	-1E+10	1	-1E+10	1	-1E+10	1	-1E+10	1	-1E+10	1	-1E+10	1
4902554	51	C	07/03/2022	12:07	-134.529	49.555	0	254.70	0	4.8130	0	33.8040	0	26.750	0	252.371	0	-1e10	8	-1e10	8	-1E+10	1	-1E+10	1	-1E+10	1	-1E+10	1	-1E+10	1	-1E+10	1
4902554	51	C	07/03/2022	12:07	-134.529	49.555	0	255.60	0	4.8090	0	33.8040	0	26.751	0	253.262	0	-1e10	8	-1e10	8	-1E+10	1	-1E+10	1	-1E+10	1	-1E+10	1	-1E+10	1	-1E+10	1
4902554	51	C	07/03/2022	12:07	-134.529	49.555	0	256.50	0	4.8080	0	33.8050	0	26.752	0	254.154	0	-1e10	8	-1e10	8	-1E+10	1	-1E+10	1	-1E+10	1	-1E+10	1	-1E+10	1	-1E+10	1
4902554	51	C	07/03/2022	12:07	-134.529	49.555	0	257.90	0	4.8040	0	33.8030	0	26.751	0	255.540	0	-1e10	8	-1e10	8	-1E+10	1	-1E+10	1	-1E+10	1	-1E+10	1	-1E+10	1	-1E+10	1
4902554	51	C	07/03/2022	12:07	-134.529	49.555	0	259.30	0	4.7970	0	33.8030	0	26.751	0	256.926	0	-1e10	8	-1e10	8	-1E+10	1	-1E+10	1	-1E+10	1	-1E+10	1	-1E+10	1	-1E+10	1
4902554	51	C	07/03/2022	12:07	-134.529	49.555	0	260.20	0	4.7780	0	33.8050	0	26.755	0	257.817	0	-1e10	8	-1e10	8	-1E+10	1	-1E+10	1	-1E+10	1	-1E+10	1	-1E+10	1	-1E+10	1
4902554	51	C	07/03/2022	12:07	-134.529	49.555	0	261.20	0	4.7680	0	33.8060	0	26.757	0	258.808	0	-1e10	8	-1e10	8	-1E+10	1	-1E+10	1	-1E+10	1	-1E+10	1	-1E+10	1	-1E+10	1
4902554	51	C	07/03/2022	12:07	-134.529	49.555	0	262.10	0	4.7410	0	33.8080	0	26.762	0	259.699	0	-1e10	8	-1e10	8	-1E+10	1	-1E+10	1	-1E+10	1	-1E+10	1	-1E+10	1	-1E+10	1
4902554	51	C	07/03/2022	12:07	-134.529	49.555	0	263.00	0	4.7250	0	33.8080	0	26.763	0	260.590	0	-1e10	8	-1e10	8	-1E+10	1	-1E+10	1	-1E+10	1	-1E+10	1	-1E+10	1	-1E+10	1
4902554	51	C	07/03/2022	12:07	-134.529	49.555	0	264.00	0	4.7150	0	33.8090	0	26.765	0	261.580	0	-1e10	8	-1e10	8	-1E+10	1	-1E+10	1	-1E+10	1	-1E+10	1	-1E+10	1	-1E+10	1
4902554	51	C	07/03/2022	12:07	-134.529	49.555	0	264.90	0	4.7150	0	33.8090	0	26.765	0	262.471	0	-1e10	8	-1e10	8	-1E+10	1	-1E+10	1	-1E+10	1	-1E+10	1	-1E+10	1	-1E+10	1
4902554	51	C	07/03/2022	12:07	-134.529	49.555	0	265.90	0	4.7130	0	33.8100	0	26.766	0	263.462	0	-1e10	8	-1e10	8	-1E+10	1	-1E+10	1	-1E+10	1	-1E+10	1	-1E+10	1	-1E+10	1
4902554	51	C	07/03/2022	12:07	-134.529	49.555	0	266.80	0	4.7140	0	33.8120	0	26.768	0	264.353	0	-1e10	8	-1e10	8	-1E+10	1	-1E+10	1	-1E+10	1	-1E+10	1	-1E+10	1	-1E+10	1
4902554	51	C	07/03/2022	12:07	-134.529	49.555	0	267.80	0	4.7110	0	33.8140	0	26.770	0	265.343	0	-1e10	8	-1e10	8	-1E+10	1	-1E+10	1	-1E+10	1	-1E+10	1	-1E+10	1	-1E+10	1
4902554	51	C	07/03/2022	12:07	-134.529	49.555	0	268.70	0	4.6980	0	33.8160	0	26.773	0	266.234	0	-1e10	8	-1e10	8	-1E+10	1	-1E+10	1	-1E+10	1	-1E+10	1	-1E+10	1	-1E+10	1
4902554	51	C	07/03/2022	12:07	-134.529	49.555	0	269.70	0	4.6900	0	33.8160	0	26.774	0	267.224	0	-1e10	8	-1e10	8	-1E+10	1	-1E+10	1	-1E+10	1	-1E+10	1	-1E+10	1	-1E+10	1
4902554	51	C	07/03/2022	12:07	-134.529	49.555	0	270.60	0	4.6870	0	33.8170	0	26.775	0	268.115	0	-1e10	8	-1e10	8	-1E+10	1	-1E+10	1	-1E+10	1	-1E+10	1	-1E+10	1	-1E+10	1
4902554	51	C	07/03/2022	12:07	-134.529	49.555	0	271.60	0	4.6760	0	33.8180	0	26.777	0	269.106	0	-1e10	8	-1e10	8	-1E+10	1	-1E+10	1	-1E+10	1	-1E+10	1	-1E+10	1	-1E+10	1
4902554	51	C	07/03/2022	12:07	-134.529	49.555	0	272.60	0	4.6630	0	33.8200	0	26.780	0	270.096	0	-1e10	8	-1e10	8	-1E+10	1	-1E+10	1	-1E+10	1	-1E+10	1	-1E+10	1	-1E+10	1
4902554	51	C	07/03/2022	12:07	-134.529	49.555	0	273.50	0	4.6550	0	33.8200	0	26.781	0	270.987	0	-1e10	8	-1e10	8	-1E+10	1	-1E+10	1	-1E+10	1	-1E+10	1	-1E+10	1	-1E+10	1
4902554	51	C	07/03/2022	12:07	-134.529	49.555	0	274.90	0	4.6370	0	33.8220	0	26.784	0	272.373	0	-1e10	8	-1e10	8	-1E+10	1	-1E+10	1	-1E+10	1	-1E+10	1	-1E+10	1	-1E+10	1
4902554	51	C	07/03/2022	12:07	-134.529	49.555	0	276.40	0	4.6220	0	33.8250	0	26.788	0	273.858	0	-1e10	8	-1e10	8	-1E+10	1	-1E+10	1	-1E+10	1	-1E+10	1	-1E+10	1	-1E+10	1
4902554	51	C	07/03/2022	12:07	-134.529	49.555	0	277.40	0	4.6150	0	33.8260	0	26.790	0	274.848	0	-1e10	8	-1e10	8	-1E+10	1	-1E+10	1	-1E+10	1	-1E+10	1	-1E+10	1	-1E+10	1
4902554	51	C	07/03/2022	12:07	-134.529	49.555	0	278.30	0	4.6080	0	33.8280	0	26.792	0	275.740	0	-1e10	8	-1e10	8	-1E+10	1	-1E+10	1	-1E+10	1	-1E+10	1	-1E+10	1	-1E+10	1
4902554	51	C	07/03/2022	12:07	-134.529	49.555	0	279.20	0	4.6060	0	33.8280	0	26.792	0	276.631	0	-1e10	8	-1e10	8	-1E+10	1	-1E+10	1	-1E+10	1	-1E+10	1	-1E+10	1	-1E+10	1
4902554	51	C	07/03/2022	12:07	-134.529	49.555	0	280.20	0	4.6050	0	33.8280	0	26.792	0	277.621	0	-1e10	8	-1e10	8	-1E+10	1	-1E+10	1	-1E+10	1	-1E+10	1	-1E+10	1	-1E+10	1
4902554	51	C	07/03/2022	12:07	-134.529	49.555	0	281.10	0	4.6040	0	33.8280	0	26.793	0	278.512	0	-1e10	8	-1e10	8	-1E+10	1	-1E+10	1	-1E+10	1	-1E+10	1	-1E+10	1	-1E+10	1
4902554	51	C	07/03/2022	12:07	-134.529	49.555	0	282.10	0	4.5990	0	33.8300	0	26.795	0	279.502	0	-1e10	8	-1e10	8	-1E+10	1	-1E+10	1	-1E+10	1	-1E+10	1	-1E+10	1	-1E+10	1
4902554	51	C	07/03/2022	12:07	-134.529	49.555	0	283.10	0	4.5980	0	33.8300	0	26.795	0	280.492	0	-1e10	8	-1e10	8	-1E+10	1	-1E+10	1	-1E+10	1	-1E+10	1	-1E+10	1	-1E+10	1
4902554	51	C	07/03/2022	12:07	-134.529	49.555	0	284.00	0	4.5930	0	33.8330	0	26.798	0	281.383	0	-1e10	8	-1e10	8	-1E+10	1	-1E+10	1	-1E+10	1	-1E+10	1	-1E+10	1	-1E+10	1
4902554	51	C	07/03/2022	12:07	-134.529	49.555	0	284.90	0	4.5770	0	33.8360	0	26.802	0	282.274	0	-1e10	8	-1e10	8	-1E+10	1	-1E+10	1	-1E+10	1	-1E+10	1	-1E+10	1	-1E+10	1
4902554	51	C	07/03/2022	12:07	-134.529	49.555	0	285.90	0	4.5760	0	33.8360	0	26.802	0	283.264	0	-1e10	8	-1e10	8	-1E+10	1	-1E+10	1	-1E+10	1	-1E+10	1	-1E+10	1	-1E+10	1
4902554	51	C	07/03/2022	12:07	-134.529	49.555	0	286.80	0	4.5730	0	33.8360	0	26.802	0	284.156	0	-1e10	8	-1e10	8	-1E+10	1	-1E+10	1	-1E+10	1	-1E+10	1	-1E+10	1	-1E+10	1
4902554	51	C	07/03/2022	12:07	-134.529	49.555	0	287.70	0	4.5690	0	33.8370	0	26.804	0	285.047	0	-1e10	8	-1e10	8	-1E+10	1	-1E+10	1	-1E+10	1	-1E+10	1	-1E+10	1	-1E+10	1
4902554	51	C	07/03/2022	12:07	-134.529	49.555	0	288.60	0	4.5570	0	33.8390	0	26.806	0	285.938	0	-1e10	8	-1e10	8	-1E+10	1	-1E+10	1	-1E+10	1	-1E+10	1	-1E+10	1	-1E+10	1
4902554	51	C	07/03/2022	12:07	-134.529	49.555	0	289.60	0	4.5480	0	33.8400	0	26.808	0	286.928	0	-1e10	8	-1e10	8	-1E+10	1	-1E+10	1	-1E+10	1	-1E+10	1	-1E+10	1	-1E+10	1
4902554	51	C	07/03/2022	12:07	-134.529	49.555	0	290.90	0	4.5280	0	33.8440	0	26.814	0	288.215	0	-1e10	8	-1e10	8	-1E+10	1	-1E+10	1	-1E+10	1	-1E+10	1	-1E+10	1	-1E+10	1
4902554	51	C	07/03/2022	12:07	-134.529	49.555	0	292.30	0	4.5130	0	33.8480	0	26.818	0	289.601	0	-1e10	8	-1e10	8	-1E+10	1	-1E+10	1	-1E+10	1	-1E+10	1	-1E+10	1	-1E+10	1
4902554	51	C	07/03/2022	12:07	-134.529	49.555	0	293.30	0	4.5100	0	33.8480	0	26.819	0	290.591	0	-1e10	8	-1e10	8	-1E+10	1	-1E+10	1	-1E+10	1	-1E+10	1	-1E+10	1	-1E+10	1
4902554	51	C	07/03/2022	12:07	-134.529	49.555	0	294.20	0	4.5080	0	33.8490	0	26.820	0	291.482	0	-1e10	8	-1e10	8	-1E+10	1	-1E+10	1	-1E+10	1	-1E+10	1	-1E+10	1	-1E+10	1
4902554	51	C	07/03/2022	12:07	-134.529	49.555	0	295.10	0	4.5060	0	33.8490	0	26.820	0	292.373	0	-1e10	8	-1e10	8	-1E+10	1	-1E+10	1	-1E+10	1	-1E+10	1	-1E+10	1	-1E+10	1
4902554	51	C	07/03/2022	12:07	-134.529	49.555	0	296.00	0	4.5030	0	33.8510	0	26.822	0	293.264	0	-1e10	8	-1e10	8	-1E+10	1	-1E+10	1	-1E+10	1	-1E+10	1	-1E+10	1	-1E+10	1
4902554	51	C	07/03/2022	12:07	-134.529	49.555	0	296.90	0	4.4980	0	33.8520	0	26.823	0	294.155	0	-1e10	8	-1e10	8	-1E+10	1	-1E+10	1	-1E+10	1	-1E+10	1	-1E+10	1	-1E+10	1
4902554	51	C	07/03/2022	12:07	-134.529	49.555	0	297.80	0	4.4960	0	33.8530	0	26.824	0	295.046	0	-1e10	8	-1e10	8	-1E+10	1	-1E+10	1	-1E+10	1	-1E+10	1	-1E+10	1	-1E+10	1
4902554	51	C	07/03/2022	12:07	-134.529	49.555	0	298.70	0	4.4950	0	33.8540	0	26.825	0	295.937	0	-1e10	8	-1e10	8	-1E+10	1	-1E+10	1	-1E+10	1	-1E+10	1	-1E+10	1	-1E+10	1
4902554	51	C	07/03/2022	12:07	-134.529	49.555	0	299.60	0	4.4940	0	33.8540	0	26.825	0	296.828	0	-1e10	8	-1e10	8	-1E+10	1	-1E+10	1	-1E+10	1	-1E+10	1	-1E+10	1	-1E+10	1
4902554	51	C	07/03/2022	12:07	-134.529	49.555	0	300.90	0	4.4930	0	33.8540	0	26.825	0	298.115	0	-1e10	8	-1e10	8	-1E+10	1	-1E+10	1	-1E+10	1	-1E+10	1	-1E+10	1	-1E+10	1
4902554	51	C	07/03/2022	12:07	-134.529	49.555	0	302.30	0	4.4920	0	33.8550	0	26.826	0	299.501	0	-1e10	8	-1e10	8	-1E+10	1	-1E+10	1	-1E+10	1	-1E+10	1	-1E+10	1	-1E+10	1
4902554	51	C	07/03/2022	12:07	-134.529	49.555	0	303.20	0	4.4900	0	33.8550	0	26.826	0	300.392	0	-1e10	8	-1e10	8	-1E+10	1	-1E+10	1	-1E+10	1	-1E+10	1	-1E+10	1	-1E+10	1
4902554	51	C	07/03/2022	12:07	-134.529	49.555	0	304.10	0	4.4880	0	33.8570	0	26.828	0	301.283	0	-1e10	8	-1e10	8	-1E+10	1	-1E+10	1	-1E+10	1	-1E+10	1	-1E+10	1	-1E+10	1
4902554	51	C	07/03/2022	12:07	-134.529	49.555	0	305.10	0	4.4860	0	33.8570	0	26.829	0	302.274	0	-1e10	8	-1e10	8	-1E+10	1	-1E+10	1	-1E+10	1	-1E+10	1	-1E+10	1	-1E+10	1
4902554	51	C	07/03/2022	12:07	-134.529	49.555	0	306.00	0	4.4820	0	33.8580	0	26.830	0	303.165	0	-1e10	8	-1e10	8	-1E+10	1	-1E+10	1	-1E+10	1	-1E+10	1	-1E+10	1	-1E+10	1
4902554	51	C	07/03/2022	12:07	-134.529	49.555	0	306.90	0	4.4810	0	33.8590	0	26.831	0	304.055	0	-1e10	8	-1e10	8	-1E+10	1	-1E+10	1	-1E+10	1	-1E+10	1	-1E+10	1	-1E+10	1
4902554	51	C	07/03/2022	12:07	-134.529	49.555	0	307.80	0	4.4690	0	33.8640	0	26.836	0	304.946	0	-1e10	8	-1e10	8	-1E+10	1	-1E+10	1	-1E+10	1	-1E+10	1	-1E+10	1	-1E+10	1
4902554	51	C	07/03/2022	12:07	-134.529	49.555	0	308.70	0	4.4630	0	33.8660	0	26.838	0	305.838	0	-1e10	8	-1e10	8	-1E+10	1	-1E+10	1	-1E+10	1	-1E+10	1	-1E+10	1	-1E+10	1
4902554	51	C	07/03/2022	12:07	-134.529	49.555	0	309.60	0	4.4620	0	33.8670	0	26.839	0	306.728	0	-1e10	8	-1e10	8	-1E+10	1	-1E+10	1	-1E+10	1	-1E+10	1	-1E+10	1	-1E+10	1
4902554	51	C	07/03/2022	12:07	-134.529	49.555	0	310.90	0	4.4600	0	33.8680	0	26.840	0	308.015	0	-1e10	8	-1e10	8	-1E+10	1	-1E+10	1	-1E+10	1	-1E+10	1	-1E+10	1	-1E+10	1
4902554	51	C	07/03/2022	12:07	-134.529	49.555	0	312.30	0	4.4600	0	33.8680	0	26.840	0	309.401	0	-1e10	8	-1e10	8	-1E+10	1	-1E+10	1	-1E+10	1	-1E+10	1	-1E+10	1	-1E+10	1
4902554	51	C	07/03/2022	12:07	-134.529	49.555	0	313.10	0	4.4600	0	33.8700	0	26.842	0	310.193	0	-1e10	8	-1e10	8	-1E+10	1	-1E+10	1	-1E+10	1	-1E+10	1	-1E+10	1	-1E+10	1
4902554	51	C	07/03/2022	12:07	-134.529	49.555	0	314.00	0	4.4600	0	33.8700	0	26.842	0	311.084	0	-1e10	8	-1e10	8	-1E+10	1	-1E+10	1	-1E+10	1	-1E+10	1	-1E+10	1	-1E+10	1
4902554	51	C	07/03/2022	12:07	-134.529	49.555	0	314.90	0	4.4600	0	33.8710	0	26.842	0	311.975	0	-1e10	8	-1e10	8	-1E+10	1	-1E+10	1	-1E+10	1	-1E+10	1	-1E+10	1	-1E+10	1
4902554	51	C	07/03/2022	12:07	-134.529	49.555	0	315.80	0	4.4590	0	33.8710	0	26.843	0	312.866	0	-1e10	8	-1e10	8	-1E+10	1	-1E+10	1	-1E+10	1	-1E+10	1	-1E+10	1	-1E+10	1
4902554	51	C	07/03/2022	12:07	-134.529	49.555	0	316.70	0	4.4540	0	33.8730	0	26.845	0	313.757	0	-1e10	8	-1e10	8	-1E+10	1	-1E+10	1	-1E+10	1	-1E+10	1	-1E+10	1	-1E+10	1
4902554	51	C	07/03/2022	12:07	-134.529	49.555	0	317.60	0	4.4530	0	33.8740	0	26.846	0	314.648	0	-1e10	8	-1e10	8	-1E+10	1	-1E+10	1	-1E+10	1	-1E+10	1	-1E+10	1	-1E+10	1
4902554	51	C	07/03/2022	12:07	-134.529	49.555	0	318.90	0	4.4480	0	33.8760	0	26.848	0	315.935	0	-1e10	8	-1e10	8	-1E+10	1	-1E+10	1	-1E+10	1	-1E+10	1	-1E+10	1	-1E+10	1
4902554	51	C	07/03/2022	12:07	-134.529	49.555	0	320.30	0	4.4340	0	33.8820	0	26.854	0	317.321	0	-1e10	8	-1e10	8	-1E+10	1	-1E+10	1	-1E+10	1	-1E+10	1	-1E+10	1	-1E+10	1
4902554	51	C	07/03/2022	12:07	-134.529	49.555	0	321.20	0	4.4300	0	33.8850	0	26.857	0	318.212	0	-1e10	8	-1e10	8	-1E+10	1	-1E+10	1	-1E+10	1	-1E+10	1	-1E+10	1	-1E+10	1
4902554	51	C	07/03/2022	12:07	-134.529	49.555	0	322.10	0	4.4230	0	33.8880	0	26.860	0	319.103	0	-1e10	8	-1e10	8	-1E+10	1	-1E+10	1	-1E+10	1	-1E+10	1	-1E+10	1	-1E+10	1
4902554	51	C	07/03/2022	12:07	-134.529	49.555	0	323.00	0	4.4210	0	33.8890	0	26.861	0	319.994	0	-1e10	8	-1e10	8	-1E+10	1	-1E+10	1	-1E+10	1	-1E+10	1	-1E+10	1	-1E+10	1
4902554	51	C	07/03/2022	12:07	-134.529	49.555	0	324.00	0	4.4210	0	33.8890	0	26.861	0	320.984	0	-1e10	8	-1e10	8	-1E+10	1	-1E+10	1	-1E+10	1	-1E+10	1	-1E+10	1	-1E+10	1
4902554	51	C	07/03/2022	12:07	-134.529	49.555	0	324.90	0	4.4200	0	33.8890	0	26.861	0	321.875	0	-1e10	8	-1e10	8	-1E+10	1	-1E+10	1	-1E+10	1	-1E+10	1	-1E+10	1	-1E+10	1
4902554	51	C	07/03/2022	12:07	-134.529	49.555	0	325.80	0	4.4190	0	33.8890	0	26.861	0	322.766	0	-1e10	8	-1e10	8	-1E+10	1	-1E+10	1	-1E+10	1	-1E+10	1	-1E+10	1	-1E+10	1
4902554	51	C	07/03/2022	12:07	-134.529	49.555	0	326.70	0	4.4190	0	33.8890	0	26.861	0	323.657	0	-1e10	8	-1e10	8	-1E+10	1	-1E+10	1	-1E+10	1	-1E+10	1	-1E+10	1	-1E+10	1
4902554	51	C	07/03/2022	12:07	-134.529	49.555	0	327.60	0	4.4130	0	33.8930	0	26.865	0	324.547	0	-1e10	8	-1e10	8	-1E+10	1	-1E+10	1	-1E+10	1	-1E+10	1	-1E+10	1	-1E+10	1
4902554	51	C	07/03/2022	12:07	-134.529	49.555	0	328.50	0	4.4100	0	33.8940	0	26.866	0	325.438	0	-1e10	8	-1e10	8	-1E+10	1	-1E+10	1	-1E+10	1	-1E+10	1	-1E+10	1	-1E+10	1
4902554	51	C	07/03/2022	12:07	-134.529	49.555	0	329.90	0	4.4050	0	33.8960	0	26.868	0	326.824	0	-1e10	8	-1e10	8	-1E+10	1	-1E+10	1	-1E+10	1	-1E+10	1	-1E+10	1	-1E+10	1
4902554	51	C	07/03/2022	12:07	-134.529	49.555	0	331.30	0	4.4020	0	33.8990	0	26.871	0	328.210	0	-1e10	8	-1e10	8	-1E+10	1	-1E+10	1	-1E+10	1	-1E+10	1	-1E+10	1	-1E+10	1
4902554	51	C	07/03/2022	12:07	-134.529	49.555	0	332.20	0	4.4000	0	33.9000	0	26.872	0	329.101	0	-1e10	8	-1e10	8	-1E+10	1	-1E+10	1	-1E+10	1	-1E+10	1	-1E+10	1	-1E+10	1
4902554	51	C	07/03/2022	12:07	-134.529	49.555	0	333.10	0	4.3990	0	33.9010	0	26.873	0	329.992	0	-1e10	8	-1e10	8	-1E+10	1	-1E+10	1	-1E+10	1	-1E+10	1	-1E+10	1	-1E+10	1
4902554	51	C	07/03/2022	12:07	-134.529	49.555	0	334.10	0	4.3990	0	33.9010	0	26.873	0	330.982	0	-1e10	8	-1e10	8	-1E+10	1	-1E+10	1	-1E+10	1	-1E+10	1	-1E+10	1	-1E+10	1
4902554	51	C	07/03/2022	12:07	-134.529	49.555	0	335.00	0	4.3990	0	33.9020	0	26.874	0	331.873	0	-1e10	8	-1e10	8	-1E+10	1	-1E+10	1	-1E+10	1	-1E+10	1	-1E+10	1	-1E+10	1
4902554	51	C	07/03/2022	12:07	-134.529	49.555	0	336.00	0	4.3980	0	33.9020	0	26.874	0	332.862	0	-1e10	8	-1e10	8	-1E+10	1	-1E+10	1	-1E+10	1	-1E+10	1	-1E+10	1	-1E+10	1
4902554	51	C	07/03/2022	12:07	-134.529	49.555	0	336.90	0	4.3980	0	33.9030	0	26.875	0	333.753	0	-1e10	8	-1e10	8	-1E+10	1	-1E+10	1	-1E+10	1	-1E+10	1	-1E+10	1	-1E+10	1
4902554	51	C	07/03/2022	12:07	-134.529	49.555	0	337.80	0	4.3970	0	33.9030	0	26.875	0	334.644	0	-1e10	8	-1e10	8	-1E+10	1	-1E+10	1	-1E+10	1	-1E+10	1	-1E+10	1	-1E+10	1
4902554	51	C	07/03/2022	12:07	-134.529	49.555	0	338.80	0	4.3970	0	33.9040	0	26.876	0	335.634	0	-1e10	8	-1e10	8	-1E+10	1	-1E+10	1	-1E+10	1	-1E+10	1	-1E+10	1	-1E+10	1
4902554	51	C	07/03/2022	12:07	-134.529	49.555	0	339.70	0	4.3960	0	33.9050	0	26.877	0	336.525	0	-1e10	8	-1e10	8	-1E+10	1	-1E+10	1	-1E+10	1	-1E+10	1	-1E+10	1	-1E+10	1
4902554	51	C	07/03/2022	12:07	-134.529	49.555	0	340.70	0	4.3920	0	33.9070	0	26.879	0	337.515	0	-1e10	8	-1e10	8	-1E+10	1	-1E+10	1	-1E+10	1	-1E+10	1	-1E+10	1	-1E+10	1
4902554	51	C	07/03/2022	12:07	-134.529	49.555	0	341.60	0	4.3900	0	33.9080	0	26.880	0	338.406	0	-1e10	8	-1e10	8	-1E+10	1	-1E+10	1	-1E+10	1	-1E+10	1	-1E+10	1	-1E+10	1
4902554	51	C	07/03/2022	12:07	-134.529	49.555	0	342.60	0	4.3850	0	33.9110	0	26.882	0	339.395	0	-1e10	8	-1e10	8	-1E+10	1	-1E+10	1	-1E+10	1	-1E+10	1	-1E+10	1	-1E+10	1
4902554	51	C	07/03/2022	12:07	-134.529	49.555	0	343.90	0	4.3850	0	33.9100	0	26.882	0	340.682	0	-1e10	8	-1e10	8	-1E+10	1	-1E+10	1	-1E+10	1	-1E+10	1	-1E+10	1	-1E+10	1
4902554	51	C	07/03/2022	12:07	-134.529	49.555	0	345.40	0	4.3860	0	33.9100	0	26.882	0	342.167	0	-1e10	8	-1e10	8	-1E+10	1	-1E+10	1	-1E+10	1	-1E+10	1	-1E+10	1	-1E+10	1
4902554	51	C	07/03/2022	12:07	-134.529	49.555	0	346.30	0	4.3800	0	33.9130	0	26.885	0	343.058	0	-1e10	8	-1e10	8	-1E+10	1	-1E+10	1	-1E+10	1	-1E+10	1	-1E+10	1	-1E+10	1
4902554	51	C	07/03/2022	12:07	-134.529	49.555	0	347.30	0	4.3710	0	33.9160	0	26.888	0	344.048	0	-1e10	8	-1e10	8	-1E+10	1	-1E+10	1	-1E+10	1	-1E+10	1	-1E+10	1	-1E+10	1
4902554	51	C	07/03/2022	12:07	-134.529	49.555	0	348.30	0	4.3710	0	33.9180	0	26.890	0	345.037	0	-1e10	8	-1e10	8	-1E+10	1	-1E+10	1	-1E+10	1	-1E+10	1	-1E+10	1	-1E+10	1
4902554	51	C	07/03/2022	12:07	-134.529	49.555	0	349.20	0	4.3700	0	33.9190	0	26.890	0	345.928	0	-1e10	8	-1e10	8	-1E+10	1	-1E+10	1	-1E+10	1	-1E+10	1	-1E+10	1	-1E+10	1
4902554	51	C	07/03/2022	12:07	-134.529	49.555	0	350.20	0	4.3700	0	33.9210	0	26.892	0	346.918	0	-1e10	8	-1e10	8	-1E+10	1	-1E+10	1	-1E+10	1	-1E+10	1	-1E+10	1	-1E+10	1
4902554	51	C	07/03/2022	12:07	-134.529	49.555	0	353.00	0	4.3670	0	33.9220	0	26.893	0	349.689	0	-1e10	8	-1e10	8	-1E+10	1	-1E+10	1	-1E+10	1	-1E+10	1	-1E+10	1	-1E+10	1
4902554	51	C	07/03/2022	12:07	-134.529	49.555	0	357.80	0	4.3550	0	33.9270	0	26.898	0	354.440	0	-1e10	8	-1e10	8	-1E+10	1	-1E+10	1	-1E+10	1	-1E+10	1	-1E+10	1	-1E+10	1
4902554	51	C	07/03/2022	12:07	-134.529	49.555	0	362.70	0	4.3490	0	33.9280	0	26.900	0	359.290	0	-1e10	8	-1e10	8	-1E+10	1	-1E+10	1	-1E+10	1	-1E+10	1	-1E+10	1	-1E+10	1
4902554	51	C	07/03/2022	12:07	-134.529	49.555	0	367.50	0	4.3410	0	33.9310	0	26.903	0	364.041	0	-1e10	8	-1e10	8	-1E+10	1	-1E+10	1	-1E+10	1	-1E+10	1	-1E+10	1	-1E+10	1
4902554	51	C	07/03/2022	12:07	-134.529	49.555	0	372.80	0	4.3300	0	33.9360	0	26.908	0	369.286	0	-1e10	8	-1e10	8	-1E+10	1	-1E+10	1	-1E+10	1	-1E+10	1	-1E+10	1	-1E+10	1
4902554	51	C	07/03/2022	12:07	-134.529	49.555	0	377.80	0	4.3160	0	33.9460	0	26.918	0	374.234	0	-1e10	8	-1e10	8	-1E+10	1	-1E+10	1	-1E+10	1	-1E+10	1	-1E+10	1	-1E+10	1
4902554	51	C	07/03/2022	12:07	-134.529	49.555	0	382.70	0	4.3080	0	33.9550	0	26.926	0	379.084	0	-1e10	8	-1e10	8	-1E+10	1	-1E+10	1	-1E+10	1	-1E+10	1	-1E+10	1	-1E+10	1
4902554	51	C	07/03/2022	12:07	-134.529	49.555	0	387.90	0	4.3000	0	33.9620	0	26.932	0	384.230	0	-1e10	8	-1e10	8	-1E+10	1	-1E+10	1	-1E+10	1	-1E+10	1	-1E+10	1	-1E+10	1
4902554	51	C	07/03/2022	12:07	-134.529	49.555	0	392.70	0	4.2920	0	33.9650	0	26.936	0	388.980	0	-1e10	8	-1e10	8	-1E+10	1	-1E+10	1	-1E+10	1	-1E+10	1	-1E+10	1	-1E+10	1
4902554	51	C	07/03/2022	12:07	-134.529	49.555	0	397.50	0	4.2900	0	33.9700	0	26.940	0	393.730	0	-1e10	8	-1e10	8	-1E+10	1	-1E+10	1	-1E+10	1	-1E+10	1	-1E+10	1	-1E+10	1
4902554	51	C	07/03/2022	12:07	-134.529	49.555	0	402.50	0	4.2880	0	33.9760	0	26.945	0	398.678	0	-1e10	8	-1e10	8	-1E+10	1	-1E+10	1	-1E+10	1	-1E+10	1	-1E+10	1	-1E+10	1
4902554	51	C	07/03/2022	12:07	-134.529	49.555	0	407.60	0	4.2800	0	33.9830	0	26.951	0	403.724	0	-1e10	8	-1e10	8	-1E+10	1	-1E+10	1	-1E+10	1	-1E+10	1	-1E+10	1	-1E+10	1
4902554	51	C	07/03/2022	12:07	-134.529	49.555	0	412.70	0	4.2730	0	33.9890	0	26.957	0	408.771	0	-1e10	8	-1e10	8	-1E+10	1	-1E+10	1	-1E+10	1	-1E+10	1	-1E+10	1	-1E+10	1
4902554	51	C	07/03/2022	12:07	-134.529	49.555	0	417.90	0	4.2620	0	33.9960	0	26.964	0	413.916	0	-1e10	8	-1e10	8	-1E+10	1	-1E+10	1	-1E+10	1	-1E+10	1	-1E+10	1	-1E+10	1
4902554	51	C	07/03/2022	12:07	-134.529	49.555	0	422.90	0	4.2530	0	34.0020	0	26.969	0	418.863	0	-1e10	8	-1e10	8	-1E+10	1	-1E+10	1	-1E+10	1	-1E+10	1	-1E+10	1	-1E+10	1
4902554	51	C	07/03/2022	12:07	-134.529	49.555	0	427.90	0	4.2490	0	34.0070	0	26.974	0	423.810	0	-1e10	8	-1e10	8	-1E+10	1	-1E+10	1	-1E+10	1	-1E+10	1	-1E+10	1	-1E+10	1
4902554	51	C	07/03/2022	12:07	-134.529	49.555	0	433.00	0	4.2460	0	34.0090	0	26.976	0	428.856	0	-1e10	8	-1e10	8	-1E+10	1	-1E+10	1	-1E+10	1	-1E+10	1	-1E+10	1	-1E+10	1
4902554	51	C	07/03/2022	12:07	-134.529	49.555	0	437.60	0	4.2370	0	34.0150	0	26.981	0	433.408	0	-1e10	8	-1e10	8	-1E+10	1	-1E+10	1	-1E+10	1	-1E+10	1	-1E+10	1	-1E+10	1
4902554	51	C	07/03/2022	12:07	-134.529	49.555	0	442.90	0	4.2310	0	34.0200	0	26.986	0	438.651	0	-1e10	8	-1e10	8	-1E+10	1	-1E+10	1	-1E+10	1	-1E+10	1	-1E+10	1	-1E+10	1
4902554	51	C	07/03/2022	12:07	-134.529	49.555	0	448.10	0	4.2180	0	34.0290	0	26.995	0	443.796	0	-1e10	8	-1e10	8	-1E+10	1	-1E+10	1	-1E+10	1	-1E+10	1	-1E+10	1	-1E+10	1
4902554	51	C	07/03/2022	12:07	-134.529	49.555	0	453.00	0	4.2150	0	34.0310	0	26.997	0	448.643	0	-1e10	8	-1e10	8	-1E+10	1	-1E+10	1	-1E+10	1	-1E+10	1	-1E+10	1	-1E+10	1
4902554	51	C	07/03/2022	12:07	-134.529	49.555	0	458.00	0	4.2110	0	34.0330	0	26.999	0	453.590	0	-1e10	8	-1e10	8	-1E+10	1	-1E+10	1	-1E+10	1	-1E+10	1	-1E+10	1	-1E+10	1
4902554	51	C	07/03/2022	12:07	-134.529	49.555	0	462.90	0	4.2000	0	34.0380	0	27.004	0	458.437	0	-1e10	8	-1e10	8	-1E+10	1	-1E+10	1	-1E+10	1	-1E+10	1	-1E+10	1	-1E+10	1
4902554	51	C	07/03/2022	12:07	-134.529	49.555	0	467.80	0	4.1960	0	34.0410	0	27.007	0	463.285	0	-1e10	8	-1e10	8	-1E+10	1	-1E+10	1	-1E+10	1	-1E+10	1	-1E+10	1	-1E+10	1
4902554	51	C	07/03/2022	12:07	-134.529	49.555	0	472.80	0	4.1930	0	34.0420	0	27.008	0	468.231	0	-1e10	8	-1e10	8	-1E+10	1	-1E+10	1	-1E+10	1	-1E+10	1	-1E+10	1	-1E+10	1
4902554	51	C	07/03/2022	12:07	-134.529	49.555	0	477.60	0	4.1880	0	34.0430	0	27.009	0	472.979	0	-1e10	8	-1e10	8	-1E+10	1	-1E+10	1	-1E+10	1	-1E+10	1	-1E+10	1	-1E+10	1
4902554	51	C	07/03/2022	12:07	-134.529	49.555	0	482.50	0	4.1640	0	34.0520	0	27.019	0	477.826	0	-1e10	8	-1e10	8	-1E+10	1	-1E+10	1	-1E+10	1	-1E+10	1	-1E+10	1	-1E+10	1
4902554	51	C	07/03/2022	12:07	-134.529	49.555	0	487.50	0	4.1530	0	34.0570	0	27.024	0	482.772	0	-1e10	8	-1e10	8	-1E+10	1	-1E+10	1	-1E+10	1	-1E+10	1	-1E+10	1	-1E+10	1
4902554	51	C	07/03/2022	12:07	-134.529	49.555	0	492.50	0	4.1460	0	34.0600	0	27.027	0	487.717	0	-1e10	8	-1e10	8	-1E+10	1	-1E+10	1	-1E+10	1	-1E+10	1	-1E+10	1	-1E+10	1
4902554	51	C	07/03/2022	12:07	-134.529	49.555	0	497.60	0	4.1400	0	34.0640	0	27.031	0	492.762	0	-1e10	8	-1e10	8	-1E+10	1	-1E+10	1	-1E+10	1	-1E+10	1	-1E+10	1	-1E+10	1
4902554	51	C	07/03/2022	12:07	-134.529	49.555	0	502.60	0	4.1350	0	34.0660	0	27.033	0	497.707	0	-1e10	8	-1e10	8	-1E+10	1	-1E+10	1	-1E+10	1	-1E+10	1	-1E+10	1	-1E+10	1
4902554	51	C	07/03/2022	12:07	-134.529	49.555	0	507.70	0	4.1210	0	34.0710	0	27.039	0	502.751	0	-1e10	8	-1e10	8	-1E+10	1	-1E+10	1	-1E+10	1	-1E+10	1	-1E+10	1	-1E+10	1
4902554	51	C	07/03/2022	12:07	-134.529	49.555	0	512.80	0	4.1040	0	34.0770	0	27.045	0	507.795	0	-1e10	8	-1e10	8	-1E+10	1	-1E+10	1	-1E+10	1	-1E+10	1	-1E+10	1	-1E+10	1
4902554	51	C	07/03/2022	12:07	-134.529	49.555	0	518.20	0	4.0920	0	34.0820	0	27.050	0	513.136	0	-1e10	8	-1e10	8	-1E+10	1	-1E+10	1	-1E+10	1	-1E+10	1	-1E+10	1	-1E+10	1
4902554	51	C	07/03/2022	12:07	-134.529	49.555	0	523.00	0	4.0760	0	34.0890	0	27.058	0	517.883	0	-1e10	8	-1e10	8	-1E+10	1	-1E+10	1	-1E+10	1	-1E+10	1	-1E+10	1	-1E+10	1
4902554	51	C	07/03/2022	12:07	-134.529	49.555	0	527.70	0	4.0640	0	34.0930	0	27.062	0	522.531	0	-1e10	8	-1e10	8	-1E+10	1	-1E+10	1	-1E+10	1	-1E+10	1	-1E+10	1	-1E+10	1
4902554	51	C	07/03/2022	12:07	-134.529	49.555	0	532.60	0	4.0510	0	34.0990	0	27.068	0	527.377	0	-1e10	8	-1e10	8	-1E+10	1	-1E+10	1	-1E+10	1	-1E+10	1	-1E+10	1	-1E+10	1
4902554	51	C	07/03/2022	12:07	-134.529	49.555	0	537.70	0	4.0320	0	34.1060	0	27.076	0	532.420	0	-1e10	8	-1e10	8	-1E+10	1	-1E+10	1	-1E+10	1	-1E+10	1	-1E+10	1	-1E+10	1
4902554	51	C	07/03/2022	12:07	-134.529	49.555	0	542.90	0	4.0190	0	34.1100	0	27.080	0	537.563	0	-1e10	8	-1e10	8	-1E+10	1	-1E+10	1	-1E+10	1	-1E+10	1	-1E+10	1	-1E+10	1
4902554	51	C	07/03/2022	12:07	-134.529	49.555	0	547.80	0	4.0120	0	34.1130	0	27.083	0	542.408	0	-1e10	8	-1e10	8	-1E+10	1	-1E+10	1	-1E+10	1	-1E+10	1	-1E+10	1	-1E+10	1
4902554	51	C	07/03/2022	12:07	-134.529	49.555	0	552.70	0	4.0050	0	34.1160	0	27.087	0	547.253	0	-1e10	8	-1e10	8	-1E+10	1	-1E+10	1	-1E+10	1	-1E+10	1	-1E+10	1	-1E+10	1
4902554	51	C	07/03/2022	12:07	-134.529	49.555	0	557.70	0	3.9980	0	34.1190	0	27.090	0	552.197	0	-1e10	8	-1e10	8	-1E+10	1	-1E+10	1	-1E+10	1	-1E+10	1	-1E+10	1	-1E+10	1
4902554	51	C	07/03/2022	12:07	-134.529	49.555	0	562.80	0	3.9900	0	34.1220	0	27.093	0	557.240	0	-1e10	8	-1e10	8	-1E+10	1	-1E+10	1	-1E+10	1	-1E+10	1	-1E+10	1	-1E+10	1
4902554	51	C	07/03/2022	12:07	-134.529	49.555	0	567.90	0	3.9750	0	34.1280	0	27.099	0	562.283	0	-1e10	8	-1e10	8	-1E+10	1	-1E+10	1	-1E+10	1	-1E+10	1	-1E+10	1	-1E+10	1
4902554	51	C	07/03/2022	12:07	-134.529	49.555	0	572.60	0	3.9670	0	34.1310	0	27.103	0	566.930	0	-1e10	8	-1e10	8	-1E+10	1	-1E+10	1	-1E+10	1	-1E+10	1	-1E+10	1	-1E+10	1
4902554	51	C	07/03/2022	12:07	-134.529	49.555	0	577.90	0	3.9610	0	34.1340	0	27.106	0	572.170	0	-1e10	8	-1e10	8	-1E+10	1	-1E+10	1	-1E+10	1	-1E+10	1	-1E+10	1	-1E+10	1
4902554	51	C	07/03/2022	12:07	-134.529	49.555	0	583.10	0	3.9550	0	34.1380	0	27.109	0	577.312	0	-1e10	8	-1e10	8	-1E+10	1	-1E+10	1	-1E+10	1	-1E+10	1	-1E+10	1	-1E+10	1
4902554	51	C	07/03/2022	12:07	-134.529	49.555	0	588.00	0	3.9410	0	34.1440	0	27.116	0	582.156	0	-1e10	8	-1e10	8	-1E+10	1	-1E+10	1	-1E+10	1	-1E+10	1	-1E+10	1	-1E+10	1
4902554	51	C	07/03/2022	12:07	-134.529	49.555	0	592.90	0	3.9370	0	34.1450	0	27.117	0	587.000	0	-1e10	8	-1e10	8	-1E+10	1	-1E+10	1	-1E+10	1	-1E+10	1	-1E+10	1	-1E+10	1
4902554	51	C	07/03/2022	12:07	-134.529	49.555	0	597.70	0	3.9310	0	34.1490	0	27.121	0	591.746	0	-1e10	8	-1e10	8	-1E+10	1	-1E+10	1	-1E+10	1	-1E+10	1	-1E+10	1	-1E+10	1
4902554	51	C	07/03/2022	12:07	-134.529	49.555	0	602.50	0	3.9270	0	34.1540	0	27.125	0	596.491	0	-1e10	8	-1e10	8	-1E+10	1	-1E+10	1	-1E+10	1	-1E+10	1	-1E+10	1	-1E+10	1
4902554	51	C	07/03/2022	12:07	-134.529	49.555	0	607.80	0	3.9200	0	34.1560	0	27.127	0	601.731	0	-1e10	8	-1e10	8	-1E+10	1	-1E+10	1	-1E+10	1	-1E+10	1	-1E+10	1	-1E+10	1
4902554	51	C	07/03/2022	12:07	-134.529	49.555	0	613.00	0	3.9090	0	34.1590	0	27.131	0	606.871	0	-1e10	8	-1e10	8	-1E+10	1	-1E+10	1	-1E+10	1	-1E+10	1	-1E+10	1	-1E+10	1
4902554	51	C	07/03/2022	12:07	-134.529	49.555	0	617.80	0	3.9070	0	34.1610	0	27.133	0	611.616	0	-1e10	8	-1e10	8	-1E+10	1	-1E+10	1	-1E+10	1	-1E+10	1	-1E+10	1	-1E+10	1
4902554	51	C	07/03/2022	12:07	-134.529	49.555	0	622.90	0	3.9050	0	34.1610	0	27.133	0	616.658	0	-1e10	8	-1e10	8	-1E+10	1	-1E+10	1	-1E+10	1	-1E+10	1	-1E+10	1	-1E+10	1
4902554	51	C	07/03/2022	12:07	-134.529	49.555	0	628.10	0	3.8910	0	34.1700	0	27.142	0	621.798	0	-1e10	8	-1e10	8	-1E+10	1	-1E+10	1	-1E+10	1	-1E+10	1	-1E+10	1	-1E+10	1
4902554	51	C	07/03/2022	12:07	-134.529	49.555	0	632.70	0	3.8840	0	34.1750	0	27.146	0	626.345	0	-1e10	8	-1e10	8	-1E+10	1	-1E+10	1	-1E+10	1	-1E+10	1	-1E+10	1	-1E+10	1
4902554	51	C	07/03/2022	12:07	-134.529	49.555	0	637.80	0	3.8750	0	34.1770	0	27.149	0	631.386	0	-1e10	8	-1e10	8	-1E+10	1	-1E+10	1	-1E+10	1	-1E+10	1	-1E+10	1	-1E+10	1
4902554	51	C	07/03/2022	12:07	-134.529	49.555	0	642.90	0	3.8640	0	34.1810	0	27.153	0	636.427	0	-1e10	8	-1e10	8	-1E+10	1	-1E+10	1	-1E+10	1	-1E+10	1	-1E+10	1	-1E+10	1
4902554	51	C	07/03/2022	12:07	-134.529	49.555	0	647.90	0	3.8550	0	34.1840	0	27.157	0	641.369	0	-1e10	8	-1e10	8	-1E+10	1	-1E+10	1	-1E+10	1	-1E+10	1	-1E+10	1	-1E+10	1
4902554	51	C	07/03/2022	12:07	-134.529	49.555	0	653.10	0	3.8380	0	34.1890	0	27.162	0	646.508	0	-1e10	8	-1e10	8	-1E+10	1	-1E+10	1	-1E+10	1	-1E+10	1	-1E+10	1	-1E+10	1
4902554	51	C	07/03/2022	12:07	-134.529	49.555	0	658.10	0	3.8160	0	34.1950	0	27.169	0	651.450	0	-1e10	8	-1e10	8	-1E+10	1	-1E+10	1	-1E+10	1	-1E+10	1	-1E+10	1	-1E+10	1
4902554	51	C	07/03/2022	12:07	-134.529	49.555	0	663.10	0	3.7900	0	34.2010	0	27.177	0	656.391	0	-1e10	8	-1e10	8	-1E+10	1	-1E+10	1	-1E+10	1	-1E+10	1	-1E+10	1	-1E+10	1
4902554	51	C	07/03/2022	12:07	-134.529	49.555	0	667.80	0	3.7780	0	34.2070	0	27.183	0	661.036	0	-1e10	8	-1e10	8	-1E+10	1	-1E+10	1	-1E+10	1	-1E+10	1	-1E+10	1	-1E+10	1
4902554	51	C	07/03/2022	12:07	-134.529	49.555	0	672.90	0	3.7730	0	34.2080	0	27.184	0	666.077	0	-1e10	8	-1e10	8	-1E+10	1	-1E+10	1	-1E+10	1	-1E+10	1	-1E+10	1	-1E+10	1
4902554	51	C	07/03/2022	12:07	-134.529	49.555	0	678.10	0	3.7690	0	34.2100	0	27.186	0	671.215	0	-1e10	8	-1e10	8	-1E+10	1	-1E+10	1	-1E+10	1	-1E+10	1	-1E+10	1	-1E+10	1
4902554	51	C	07/03/2022	12:07	-134.529	49.555	0	682.80	0	3.7570	0	34.2140	0	27.190	0	675.860	0	-1e10	8	-1e10	8	-1E+10	1	-1E+10	1	-1E+10	1	-1E+10	1	-1E+10	1	-1E+10	1
4902554	51	C	07/03/2022	12:07	-134.529	49.555	0	687.60	0	3.7420	0	34.2190	0	27.196	0	680.603	0	-1e10	8	-1e10	8	-1E+10	1	-1E+10	1	-1E+10	1	-1E+10	1	-1E+10	1	-1E+10	1
4902554	51	C	07/03/2022	12:07	-134.529	49.555	0	692.90	0	3.7270	0	34.2230	0	27.201	0	685.841	0	-1e10	8	-1e10	8	-1E+10	1	-1E+10	1	-1E+10	1	-1E+10	1	-1E+10	1	-1E+10	1
4902554	51	C	07/03/2022	12:07	-134.529	49.555	0	698.30	0	3.7160	0	34.2250	0	27.203	0	691.177	0	-1e10	8	-1e10	8	-1E+10	1	-1E+10	1	-1E+10	1	-1E+10	1	-1E+10	1	-1E+10	1
4902554	51	C	07/03/2022	12:07	-134.529	49.555	0	703.20	0	3.7120	0	34.2260	0	27.205	0	696.019	0	-1e10	8	-1e10	8	-1E+10	1	-1E+10	1	-1E+10	1	-1E+10	1	-1E+10	1	-1E+10	1
4902554	51	C	07/03/2022	12:07	-134.529	49.555	0	708.20	0	3.6930	0	34.2310	0	27.210	0	700.959	0	-1e10	8	-1e10	8	-1E+10	1	-1E+10	1	-1E+10	1	-1E+10	1	-1E+10	1	-1E+10	1
4902554	51	C	07/03/2022	12:07	-134.529	49.555	0	713.20	0	3.6730	0	34.2370	0	27.217	0	705.900	0	-1e10	8	-1e10	8	-1E+10	1	-1E+10	1	-1E+10	1	-1E+10	1	-1E+10	1	-1E+10	1
4902554	51	C	07/03/2022	12:07	-134.529	49.555	0	718.30	0	3.6670	0	34.2390	0	27.219	0	710.939	0	-1e10	8	-1e10	8	-1E+10	1	-1E+10	1	-1E+10	1	-1E+10	1	-1E+10	1	-1E+10	1
4902554	51	C	07/03/2022	12:07	-134.529	49.555	0	723.40	0	3.6650	0	34.2390	0	27.220	0	715.978	0	-1e10	8	-1e10	8	-1E+10	1	-1E+10	1	-1E+10	1	-1E+10	1	-1E+10	1	-1E+10	1
4902554	51	C	07/03/2022	12:07	-134.529	49.555	0	728.00	0	3.6610	0	34.2400	0	27.221	0	720.523	0	-1e10	8	-1e10	8	-1E+10	1	-1E+10	1	-1E+10	1	-1E+10	1	-1E+10	1	-1E+10	1
4902554	51	C	07/03/2022	12:07	-134.529	49.555	0	732.70	0	3.6520	0	34.2430	0	27.224	0	725.166	0	-1e10	8	-1e10	8	-1E+10	1	-1E+10	1	-1E+10	1	-1E+10	1	-1E+10	1	-1E+10	1
4902554	51	C	07/03/2022	12:07	-134.529	49.555	0	738.00	0	3.6320	0	34.2470	0	27.229	0	730.402	0	-1e10	8	-1e10	8	-1E+10	1	-1E+10	1	-1E+10	1	-1E+10	1	-1E+10	1	-1E+10	1
4902554	51	C	07/03/2022	12:07	-134.529	49.555	0	743.30	0	3.6170	0	34.2500	0	27.233	0	735.639	0	-1e10	8	-1e10	8	-1E+10	1	-1E+10	1	-1E+10	1	-1E+10	1	-1E+10	1	-1E+10	1
4902554	51	C	07/03/2022	12:07	-134.529	49.555	0	747.90	0	3.6020	0	34.2530	0	27.237	0	740.183	0	-1e10	8	-1e10	8	-1E+10	1	-1E+10	1	-1E+10	1	-1E+10	1	-1E+10	1	-1E+10	1
4902554	51	C	07/03/2022	12:07	-134.529	49.555	0	752.60	0	3.5900	0	34.2560	0	27.241	0	744.826	0	-1e10	8	-1e10	8	-1E+10	1	-1E+10	1	-1E+10	1	-1E+10	1	-1E+10	1	-1E+10	1
4902554	51	C	07/03/2022	12:07	-134.529	49.555	0	757.70	0	3.5790	0	34.2580	0	27.243	0	749.864	0	-1e10	8	-1e10	8	-1E+10	1	-1E+10	1	-1E+10	1	-1E+10	1	-1E+10	1	-1E+10	1
4902554	51	C	07/03/2022	12:07	-134.529	49.555	0	762.90	0	3.5630	0	34.2620	0	27.248	0	755.001	0	-1e10	8	-1e10	8	-1E+10	1	-1E+10	1	-1E+10	1	-1E+10	1	-1E+10	1	-1E+10	1
4902554	51	C	07/03/2022	12:07	-134.529	49.555	0	768.20	0	3.5550	0	34.2630	0	27.250	0	760.237	0	-1e10	8	-1e10	8	-1E+10	1	-1E+10	1	-1E+10	1	-1E+10	1	-1E+10	1	-1E+10	1
4902554	51	C	07/03/2022	12:07	-134.529	49.555	0	773.10	0	3.5480	0	34.2650	0	27.252	0	765.077	0	-1e10	8	-1e10	8	-1E+10	1	-1E+10	1	-1E+10	1	-1E+10	1	-1E+10	1	-1E+10	1
4902554	51	C	07/03/2022	12:07	-134.529	49.555	0	778.00	0	3.5360	0	34.2680	0	27.256	0	769.917	0	-1e10	8	-1e10	8	-1E+10	1	-1E+10	1	-1E+10	1	-1E+10	1	-1E+10	1	-1E+10	1
4902554	51	C	07/03/2022	12:07	-134.529	49.555	0	782.90	0	3.5280	0	34.2700	0	27.258	0	774.757	0	-1e10	8	-1e10	8	-1E+10	1	-1E+10	1	-1E+10	1	-1E+10	1	-1E+10	1	-1E+10	1
4902554	51	C	07/03/2022	12:07	-134.529	49.555	0	787.80	0	3.5170	0	34.2720	0	27.261	0	779.597	0	-1e10	8	-1e10	8	-1E+10	1	-1E+10	1	-1E+10	1	-1E+10	1	-1E+10	1	-1E+10	1
4902554	51	C	07/03/2022	12:07	-134.529	49.555	0	792.80	0	3.4980	0	34.2760	0	27.266	0	784.535	0	-1e10	8	-1e10	8	-1E+10	1	-1E+10	1	-1E+10	1	-1E+10	1	-1E+10	1	-1E+10	1
4902554	51	C	07/03/2022	12:07	-134.529	49.555	0	797.80	0	3.4920	0	34.2770	0	27.267	0	789.474	0	-1e10	8	-1e10	8	-1E+10	1	-1E+10	1	-1E+10	1	-1E+10	1	-1E+10	1	-1E+10	1
4902554	51	C	07/03/2022	12:07	-134.529	49.555	0	802.80	0	3.4780	0	34.2790	0	27.270	0	794.412	0	-1e10	8	-1e10	8	-1E+10	1	-1E+10	1	-1E+10	1	-1E+10	1	-1E+10	1	-1E+10	1
4902554	51	C	07/03/2022	12:07	-134.529	49.555	0	807.80	0	3.4580	0	34.2830	0	27.275	0	799.350	0	-1e10	8	-1e10	8	-1E+10	1	-1E+10	1	-1E+10	1	-1E+10	1	-1E+10	1	-1E+10	1
4902554	51	C	07/03/2022	12:07	-134.529	49.555	0	812.80	0	3.4340	0	34.2880	0	27.282	0	804.288	0	-1e10	8	-1e10	8	-1E+10	1	-1E+10	1	-1E+10	1	-1E+10	1	-1E+10	1	-1E+10	1
4902554	51	C	07/03/2022	12:07	-134.529	49.555	0	818.00	0	3.4180	0	34.2910	0	27.286	0	809.424	0	-1e10	8	-1e10	8	-1E+10	1	-1E+10	1	-1E+10	1	-1E+10	1	-1E+10	1	-1E+10	1
4902554	51	C	07/03/2022	12:07	-134.529	49.555	0	823.10	0	3.4080	0	34.2940	0	27.289	0	814.460	0	-1e10	8	-1e10	8	-1E+10	1	-1E+10	1	-1E+10	1	-1E+10	1	-1E+10	1	-1E+10	1
4902554	51	C	07/03/2022	12:07	-134.529	49.555	0	827.80	0	3.3990	0	34.2960	0	27.291	0	819.102	0	-1e10	8	-1e10	8	-1E+10	1	-1E+10	1	-1E+10	1	-1E+10	1	-1E+10	1	-1E+10	1
4902554	51	C	07/03/2022	12:07	-134.529	49.555	0	832.60	0	3.3860	0	34.2980	0	27.294	0	823.842	0	-1e10	8	-1e10	8	-1E+10	1	-1E+10	1	-1E+10	1	-1E+10	1	-1E+10	1	-1E+10	1
4902554	51	C	07/03/2022	12:07	-134.529	49.555	0	838.00	0	3.3730	0	34.3000	0	27.297	0	829.174	0	-1e10	8	-1e10	8	-1E+10	1	-1E+10	1	-1E+10	1	-1E+10	1	-1E+10	1	-1E+10	1
4902554	51	C	07/03/2022	12:07	-134.529	49.555	0	843.40	0	3.3600	0	34.3040	0	27.302	0	834.507	0	-1e10	8	-1e10	8	-1E+10	1	-1E+10	1	-1E+10	1	-1E+10	1	-1E+10	1	-1E+10	1
4902554	51	C	07/03/2022	12:07	-134.529	49.555	0	848.30	0	3.3510	0	34.3050	0	27.303	0	839.345	0	-1e10	8	-1e10	8	-1E+10	1	-1E+10	1	-1E+10	1	-1E+10	1	-1E+10	1	-1E+10	1
4902554	51	C	07/03/2022	12:07	-134.529	49.555	0	853.20	0	3.3430	0	34.3070	0	27.306	0	844.184	0	-1e10	8	-1e10	8	-1E+10	1	-1E+10	1	-1E+10	1	-1E+10	1	-1E+10	1	-1E+10	1
4902554	51	C	07/03/2022	12:07	-134.529	49.555	0	858.20	0	3.3320	0	34.3090	0	27.308	0	849.121	0	-1e10	8	-1e10	8	-1E+10	1	-1E+10	1	-1E+10	1	-1E+10	1	-1E+10	1	-1E+10	1
4902554	51	C	07/03/2022	12:07	-134.529	49.555	0	863.30	0	3.3160	0	34.3120	0	27.312	0	854.156	0	-1e10	8	-1e10	8	-1E+10	1	-1E+10	1	-1E+10	1	-1E+10	1	-1E+10	1	-1E+10	1
4902554	51	C	07/03/2022	12:07	-134.529	49.555	0	868.30	0	3.3040	0	34.3140	0	27.315	0	859.093	0	-1e10	8	-1e10	8	-1E+10	1	-1E+10	1	-1E+10	1	-1E+10	1	-1E+10	1	-1E+10	1
4902554	51	C	07/03/2022	12:07	-134.529	49.555	0	873.30	0	3.2910	0	34.3160	0	27.318	0	864.030	0	-1e10	8	-1e10	8	-1E+10	1	-1E+10	1	-1E+10	1	-1E+10	1	-1E+10	1	-1E+10	1
4902554	51	C	07/03/2022	12:07	-134.529	49.555	0	878.20	0	3.2870	0	34.3180	0	27.320	0	868.868	0	-1e10	8	-1e10	8	-1E+10	1	-1E+10	1	-1E+10	1	-1E+10	1	-1E+10	1	-1E+10	1
4902554	51	C	07/03/2022	12:07	-134.529	49.555	0	883.10	0	3.2720	0	34.3210	0	27.324	0	873.705	0	-1e10	8	-1e10	8	-1E+10	1	-1E+10	1	-1E+10	1	-1E+10	1	-1E+10	1	-1E+10	1
4902554	51	C	07/03/2022	12:07	-134.529	49.555	0	888.00	0	3.2660	0	34.3220	0	27.325	0	878.543	0	-1e10	8	-1e10	8	-1E+10	1	-1E+10	1	-1E+10	1	-1E+10	1	-1E+10	1	-1E+10	1
4902554	51	C	07/03/2022	12:07	-134.529	49.555	0	892.90	0	3.2600	0	34.3230	0	27.326	0	883.380	0	-1e10	8	-1e10	8	-1E+10	1	-1E+10	1	-1E+10	1	-1E+10	1	-1E+10	1	-1E+10	1
4902554	51	C	07/03/2022	12:07	-134.529	49.555	0	897.70	0	3.2520	0	34.3250	0	27.329	0	888.119	0	-1e10	8	-1e10	8	-1E+10	1	-1E+10	1	-1E+10	1	-1E+10	1	-1E+10	1	-1E+10	1
4902554	51	C	07/03/2022	12:07	-134.529	49.555	0	902.90	0	3.2450	0	34.3260	0	27.330	0	893.252	0	-1e10	8	-1e10	8	-1E+10	1	-1E+10	1	-1E+10	1	-1E+10	1	-1E+10	1	-1E+10	1
4902554	51	C	07/03/2022	12:07	-134.529	49.555	0	908.20	0	3.2260	0	34.3290	0	27.334	0	898.484	0	-1e10	8	-1e10	8	-1E+10	1	-1E+10	1	-1E+10	1	-1E+10	1	-1E+10	1	-1E+10	1
4902554	51	C	07/03/2022	12:07	-134.529	49.555	0	912.80	0	3.2240	0	34.3300	0	27.335	0	903.025	0	-1e10	8	-1e10	8	-1E+10	1	-1E+10	1	-1E+10	1	-1E+10	1	-1E+10	1	-1E+10	1
4902554	51	C	07/03/2022	12:07	-134.529	49.555	0	918.00	0	3.2210	0	34.3300	0	27.336	0	908.158	0	-1e10	8	-1e10	8	-1E+10	1	-1E+10	1	-1E+10	1	-1E+10	1	-1E+10	1	-1E+10	1
4902554	51	C	07/03/2022	12:07	-134.529	49.555	0	923.20	0	3.2080	0	34.3330	0	27.339	0	913.291	0	-1e10	8	-1e10	8	-1E+10	1	-1E+10	1	-1E+10	1	-1E+10	1	-1E+10	1	-1E+10	1
4902554	51	C	07/03/2022	12:07	-134.529	49.555	0	927.90	0	3.1990	0	34.3340	0	27.341	0	917.931	0	-1e10	8	-1e10	8	-1E+10	1	-1E+10	1	-1E+10	1	-1E+10	1	-1E+10	1	-1E+10	1
4902554	51	C	07/03/2022	12:07	-134.529	49.555	0	932.70	0	3.1880	0	34.3370	0	27.345	0	922.668	0	-1e10	8	-1e10	8	-1E+10	1	-1E+10	1	-1E+10	1	-1E+10	1	-1E+10	1	-1E+10	1
4902554	51	C	07/03/2022	12:07	-134.529	49.555	0	938.00	0	3.1770	0	34.3390	0	27.347	0	927.900	0	-1e10	8	-1e10	8	-1E+10	1	-1E+10	1	-1E+10	1	-1E+10	1	-1E+10	1	-1E+10	1
4902554	51	C	07/03/2022	12:07	-134.529	49.555	0	943.30	0	3.1620	0	34.3420	0	27.351	0	933.131	0	-1e10	8	-1e10	8	-1E+10	1	-1E+10	1	-1E+10	1	-1E+10	1	-1E+10	1	-1E+10	1
4902554	51	C	07/03/2022	12:07	-134.529	49.555	0	948.10	0	3.1560	0	34.3430	0	27.352	0	937.868	0	-1e10	8	-1e10	8	-1E+10	1	-1E+10	1	-1E+10	1	-1E+10	1	-1E+10	1	-1E+10	1
4902554	51	C	07/03/2022	12:07	-134.529	49.555	0	953.00	0	3.1440	0	34.3450	0	27.355	0	942.704	0	-1e10	8	-1e10	8	-1E+10	1	-1E+10	1	-1E+10	1	-1E+10	1	-1E+10	1	-1E+10	1
4902554	51	C	07/03/2022	12:07	-134.529	49.555	0	957.90	0	3.1290	0	34.3480	0	27.359	0	947.540	0	-1e10	8	-1e10	8	-1E+10	1	-1E+10	1	-1E+10	1	-1E+10	1	-1E+10	1	-1E+10	1
4902554	51	C	07/03/2022	12:07	-134.529	49.555	0	962.80	0	3.1090	0	34.3510	0	27.363	0	952.376	0	-1e10	8	-1e10	8	-1E+10	1	-1E+10	1	-1E+10	1	-1E+10	1	-1E+10	1	-1E+10	1
4902554	51	C	07/03/2022	12:07	-134.529	49.555	0	967.70	0	3.1000	0	34.3530	0	27.366	0	957.212	0	-1e10	8	-1e10	8	-1E+10	1	-1E+10	1	-1E+10	1	-1E+10	1	-1E+10	1	-1E+10	1
4902554	51	C	07/03/2022	12:07	-134.529	49.555	0	972.90	0	3.0880	0	34.3550	0	27.368	0	962.344	0	-1e10	8	-1e10	8	-1E+10	1	-1E+10	1	-1E+10	1	-1E+10	1	-1E+10	1	-1E+10	1
4902554	51	C	07/03/2022	12:07	-134.529	49.555	0	978.10	0	3.0780	0	34.3570	0	27.371	0	967.475	0	-1e10	8	-1e10	8	-1E+10	1	-1E+10	1	-1E+10	1	-1E+10	1	-1E+10	1	-1E+10	1
4902554	51	C	07/03/2022	12:07	-134.529	49.555	0	983.10	0	3.0680	0	34.3600	0	27.374	0	972.409	0	-1e10	8	-1e10	8	-1E+10	1	-1E+10	1	-1E+10	1	-1E+10	1	-1E+10	1	-1E+10	1
4902554	51	C	07/03/2022	12:07	-134.529	49.555	0	987.90	0	3.0610	0	34.3610	0	27.376	0	977.146	0	-1e10	8	-1e10	8	-1E+10	1	-1E+10	1	-1E+10	1	-1E+10	1	-1E+10	1	-1E+10	1
4902554	51	C	07/03/2022	12:07	-134.529	49.555	0	992.70	0	3.0590	0	34.3620	0	27.377	0	981.882	0	-1e10	8	-1e10	8	-1E+10	1	-1E+10	1	-1E+10	1	-1E+10	1	-1E+10	1	-1E+10	1
4902554	51	C	07/03/2022	12:07	-134.529	49.555	0	998.10	0	3.0460	0	34.3640	0	27.379	0	987.211	0	-1e10	8	-1e10	8	-1E+10	1	-1E+10	1	-1E+10	1	-1E+10	1	-1E+10	1	-1E+10	1
4902554	51	C	07/03/2022	12:07	-134.529	49.555	0	1005.30	0	3.0300	0	34.3680	0	27.384	0	994.315	0	-1e10	8	-1e10	8	-1E+10	1	-1E+10	1	-1E+10	1	-1E+10	1	-1E+10	1	-1E+10	1
4902554	51	C	07/03/2022	12:07	-134.529	49.555	0	1015.10	0	3.0080	0	34.3720	0	27.389	0	1003.985	0	-1e10	8	-1e10	8	-1E+10	1	-1E+10	1	-1E+10	1	-1E+10	1	-1E+10	1	-1E+10	1
4902554	51	C	07/03/2022	12:07	-134.529	49.555	0	1025.30	0	2.9900	0	34.3760	0	27.394	0	1014.048	0	-1e10	8	-1e10	8	-1E+10	1	-1E+10	1	-1E+10	1	-1E+10	1	-1E+10	1	-1E+10	1
4902554	51	C	07/03/2022	12:07	-134.529	49.555	0	1035.40	0	2.9790	0	34.3790	0	27.398	0	1024.013	0	-1e10	8	-1e10	8	-1E+10	1	-1E+10	1	-1E+10	1	-1E+10	1	-1E+10	1	-1E+10	1
4902554	51	C	07/03/2022	12:07	-134.529	49.555	0	1045.50	0	2.9710	0	34.3810	0	27.400	0	1033.977	0	-1e10	8	-1e10	8	-1E+10	1	-1E+10	1	-1E+10	1	-1E+10	1	-1E+10	1	-1E+10	1
4902554	51	C	07/03/2022	12:07	-134.529	49.555	0	1055.40	0	2.9630	0	34.3830	0	27.402	0	1043.743	0	-1e10	8	-1e10	8	-1E+10	1	-1E+10	1	-1E+10	1	-1E+10	1	-1E+10	1	-1E+10	1
4902554	51	C	07/03/2022	12:07	-134.529	49.555	0	1065.70	0	2.9520	0	34.3850	0	27.405	0	1053.903	0	-1e10	8	-1e10	8	-1E+10	1	-1E+10	1	-1E+10	1	-1E+10	1	-1E+10	1	-1E+10	1
4902554	51	C	07/03/2022	12:07	-134.529	49.555	0	1075.50	0	2.9440	0	34.3870	0	27.407	0	1063.570	0	-1e10	8	-1e10	8	-1E+10	1	-1E+10	1	-1E+10	1	-1E+10	1	-1E+10	1	-1E+10	1
4902554	51	C	07/03/2022	12:07	-134.529	49.555	0	1085.30	0	2.9320	0	34.3900	0	27.411	0	1073.237	0	-1e10	8	-1e10	8	-1E+10	1	-1E+10	1	-1E+10	1	-1E+10	1	-1E+10	1	-1E+10	1
4902554	51	C	07/03/2022	12:07	-134.529	49.555	0	1095.60	0	2.9200	0	34.3920	0	27.414	0	1083.395	0	-1e10	8	-1e10	8	-1E+10	1	-1E+10	1	-1E+10	1	-1E+10	1	-1E+10	1	-1E+10	1
4902554	51	C	07/03/2022	12:07	-134.529	49.555	0	1105.30	0	2.9010	0	34.3960	0	27.419	0	1092.962	0	-1e10	8	-1e10	8	-1E+10	1	-1E+10	1	-1E+10	1	-1E+10	1	-1E+10	1	-1E+10	1
4902554	51	C	07/03/2022	12:07	-134.529	49.555	0	1115.10	0	2.8910	0	34.3980	0	27.421	0	1102.627	0	-1e10	8	-1e10	8	-1E+10	1	-1E+10	1	-1E+10	1	-1E+10	1	-1E+10	1	-1E+10	1
4902554	51	C	07/03/2022	12:07	-134.529	49.555	0	1125.10	0	2.8790	0	34.4010	0	27.425	0	1112.489	0	-1e10	8	-1e10	8	-1E+10	1	-1E+10	1	-1E+10	1	-1E+10	1	-1E+10	1	-1E+10	1
4902554	51	C	07/03/2022	12:07	-134.529	49.555	0	1135.10	0	2.8640	0	34.4040	0	27.428	0	1122.350	0	-1e10	8	-1e10	8	-1E+10	1	-1E+10	1	-1E+10	1	-1E+10	1	-1E+10	1	-1E+10	1
4902554	51	C	07/03/2022	12:07	-134.529	49.555	0	1145.00	0	2.8520	0	34.4060	0	27.431	0	1132.112	0	-1e10	8	-1e10	8	-1E+10	1	-1E+10	1	-1E+10	1	-1E+10	1	-1E+10	1	-1E+10	1
4902554	51	C	07/03/2022	12:07	-134.529	49.555	0	1155.40	0	2.8430	0	34.4100	0	27.435	0	1142.367	0	-1e10	8	-1e10	8	-1E+10	1	-1E+10	1	-1E+10	1	-1E+10	1	-1E+10	1	-1E+10	1
4902554	51	C	07/03/2022	12:07	-134.529	49.555	0	1165.40	0	2.8250	0	34.4130	0	27.439	0	1152.227	0	-1e10	8	-1e10	8	-1E+10	1	-1E+10	1	-1E+10	1	-1E+10	1	-1E+10	1	-1E+10	1
4902554	51	C	07/03/2022	12:07	-134.529	49.555	0	1175.20	0	2.8100	0	34.4160	0	27.443	0	1161.889	0	-1e10	8	-1e10	8	-1E+10	1	-1E+10	1	-1E+10	1	-1E+10	1	-1E+10	1	-1E+10	1
4902554	51	C	07/03/2022	12:07	-134.529	49.555	0	1185.20	0	2.7900	0	34.4190	0	27.447	0	1171.747	0	-1e10	8	-1e10	8	-1E+10	1	-1E+10	1	-1E+10	1	-1E+10	1	-1E+10	1	-1E+10	1
4902554	51	C	07/03/2022	12:07	-134.529	49.555	0	1195.30	0	2.7720	0	34.4220	0	27.451	0	1181.705	0	-1e10	8	-1e10	8	-1E+10	1	-1E+10	1	-1E+10	1	-1E+10	1	-1E+10	1	-1E+10	1
4902554	51	C	07/03/2022	12:07	-134.529	49.555	0	1205.40	0	2.7480	0	34.4270	0	27.457	0	1191.661	0	-1e10	8	-1e10	8	-1E+10	1	-1E+10	1	-1E+10	1	-1E+10	1	-1E+10	1	-1E+10	1
4902554	51	C	07/03/2022	12:07	-134.529	49.555	0	1215.30	0	2.7360	0	34.4290	0	27.460	0	1201.420	0	-1e10	8	-1e10	8	-1E+10	1	-1E+10	1	-1E+10	1	-1E+10	1	-1E+10	1	-1E+10	1
4902554	51	C	07/03/2022	12:07	-134.529	49.555	0	1225.50	0	2.7260	0	34.4310	0	27.463	0	1211.474	0	-1e10	8	-1e10	8	-1E+10	1	-1E+10	1	-1E+10	1	-1E+10	1	-1E+10	1	-1E+10	1
4902554	51	C	07/03/2022	12:07	-134.529	49.555	0	1235.40	0	2.7150	0	34.4330	0	27.465	0	1221.232	0	-1e10	8	-1e10	8	-1E+10	1	-1E+10	1	-1E+10	1	-1E+10	1	-1E+10	1	-1E+10	1
4902554	51	C	07/03/2022	12:07	-134.529	49.555	0	1245.50	0	2.7040	0	34.4350	0	27.468	0	1231.187	0	-1e10	8	-1e10	8	-1E+10	1	-1E+10	1	-1E+10	1	-1E+10	1	-1E+10	1	-1E+10	1
4902554	51	C	07/03/2022	12:07	-134.529	49.555	0	1255.60	0	2.6970	0	34.4360	0	27.469	0	1241.141	0	-1e10	8	-1e10	8	-1E+10	1	-1E+10	1	-1E+10	1	-1E+10	1	-1E+10	1	-1E+10	1
4902554	51	C	07/03/2022	12:07	-134.529	49.555	0	1265.40	0	2.6820	0	34.4400	0	27.474	0	1250.799	0	-1e10	8	-1e10	8	-1E+10	1	-1E+10	1	-1E+10	1	-1E+10	1	-1E+10	1	-1E+10	1
4902554	51	C	07/03/2022	12:07	-134.529	49.555	0	1275.40	0	2.6690	0	34.4420	0	27.477	0	1260.654	0	-1e10	8	-1e10	8	-1E+10	1	-1E+10	1	-1E+10	1	-1E+10	1	-1E+10	1	-1E+10	1
4902554	51	C	07/03/2022	12:07	-134.529	49.555	0	1285.90	0	2.6590	0	34.4440	0	27.479	0	1271.001	0	-1e10	8	-1e10	8	-1E+10	1	-1E+10	1	-1E+10	1	-1E+10	1	-1E+10	1	-1E+10	1
4902554	51	C	07/03/2022	12:07	-134.529	49.555	0	1295.60	0	2.6470	0	34.4460	0	27.482	0	1280.559	0	-1e10	8	-1e10	8	-1E+10	1	-1E+10	1	-1E+10	1	-1E+10	1	-1E+10	1	-1E+10	1
4902554	51	C	07/03/2022	12:07	-134.529	49.555	0	1305.50	0	2.6410	0	34.4480	0	27.484	0	1290.313	0	-1e10	8	-1e10	8	-1E+10	1	-1E+10	1	-1E+10	1	-1E+10	1	-1E+10	1	-1E+10	1
4902554	51	C	07/03/2022	12:07	-134.529	49.555	0	1315.50	0	2.6270	0	34.4500	0	27.487	0	1300.166	0	-1e10	8	-1e10	8	-1E+10	1	-1E+10	1	-1E+10	1	-1E+10	1	-1E+10	1	-1E+10	1
4902554	51	C	07/03/2022	12:07	-134.529	49.555	0	1325.60	0	2.6090	0	34.4540	0	27.492	0	1310.117	0	-1e10	8	-1e10	8	-1E+10	1	-1E+10	1	-1E+10	1	-1E+10	1	-1E+10	1	-1E+10	1
4902554	51	C	07/03/2022	12:07	-134.529	49.555	0	1335.50	0	2.5940	0	34.4570	0	27.495	0	1319.871	0	-1e10	8	-1e10	8	-1E+10	1	-1E+10	1	-1E+10	1	-1E+10	1	-1E+10	1	-1E+10	1
4902554	51	C	07/03/2022	12:07	-134.529	49.555	0	1345.40	0	2.5840	0	34.4590	0	27.498	0	1329.623	0	-1e10	8	-1e10	8	-1E+10	1	-1E+10	1	-1E+10	1	-1E+10	1	-1E+10	1	-1E+10	1
4902554	51	C	07/03/2022	12:07	-134.529	49.555	0	1355.30	0	2.5690	0	34.4610	0	27.501	0	1339.376	0	-1e10	8	-1e10	8	-1E+10	1	-1E+10	1	-1E+10	1	-1E+10	1	-1E+10	1	-1E+10	1
4902554	51	C	07/03/2022	12:07	-134.529	49.555	0	1365.30	0	2.5590	0	34.4630	0	27.503	0	1349.226	0	-1e10	8	-1e10	8	-1E+10	1	-1E+10	1	-1E+10	1	-1E+10	1	-1E+10	1	-1E+10	1
4902554	51	C	07/03/2022	12:07	-134.529	49.555	0	1375.50	0	2.5480	0	34.4650	0	27.506	0	1359.274	0	-1e10	8	-1e10	8	-1E+10	1	-1E+10	1	-1E+10	1	-1E+10	1	-1E+10	1	-1E+10	1
4902554	51	C	07/03/2022	12:07	-134.529	49.555	0	1385.70	0	2.5250	0	34.4680	0	27.510	0	1369.320	0	-1e10	8	-1e10	8	-1E+10	1	-1E+10	1	-1E+10	1	-1E+10	1	-1E+10	1	-1E+10	1
4902554	51	C	07/03/2022	12:07	-134.529	49.555	0	1395.40	0	2.5120	0	34.4710	0	27.514	0	1378.874	0	-1e10	8	-1e10	8	-1E+10	1	-1E+10	1	-1E+10	1	-1E+10	1	-1E+10	1	-1E+10	1
4902554	51	C	07/03/2022	12:07	-134.529	49.555	0	1405.40	0	2.4990	0	34.4740	0	27.517	0	1388.722	0	-1e10	8	-1e10	8	-1E+10	1	-1E+10	1	-1E+10	1	-1E+10	1	-1E+10	1	-1E+10	1
4902554	51	C	07/03/2022	12:07	-134.529	49.555	0	1415.60	0	2.4840	0	34.4760	0	27.520	0	1398.768	0	-1e10	8	-1e10	8	-1E+10	1	-1E+10	1	-1E+10	1	-1E+10	1	-1E+10	1	-1E+10	1
4902554	51	C	07/03/2022	12:07	-134.529	49.555	0	1425.50	0	2.4710	0	34.4790	0	27.524	0	1408.517	0	-1e10	8	-1e10	8	-1E+10	1	-1E+10	1	-1E+10	1	-1E+10	1	-1E+10	1	-1E+10	1
4902554	51	C	07/03/2022	12:07	-134.529	49.555	0	1435.60	0	2.4560	0	34.4820	0	27.528	0	1418.463	0	-1e10	8	-1e10	8	-1E+10	1	-1E+10	1	-1E+10	1	-1E+10	1	-1E+10	1	-1E+10	1
4902554	51	C	07/03/2022	12:07	-134.529	49.555	0	1445.60	0	2.4440	0	34.4840	0	27.530	0	1428.309	0	-1e10	8	-1e10	8	-1E+10	1	-1E+10	1	-1E+10	1	-1E+10	1	-1E+10	1	-1E+10	1
4902554	51	C	07/03/2022	12:07	-134.529	49.555	0	1455.70	0	2.4330	0	34.4860	0	27.533	0	1438.254	0	-1e10	8	-1e10	8	-1E+10	1	-1E+10	1	-1E+10	1	-1E+10	1	-1E+10	1	-1E+10	1
4902554	51	C	07/03/2022	12:07	-134.529	49.555	0	1465.50	0	2.4170	0	34.4890	0	27.537	0	1447.903	0	-1e10	8	-1e10	8	-1E+10	1	-1E+10	1	-1E+10	1	-1E+10	1	-1E+10	1	-1E+10	1
4902554	51	C	07/03/2022	12:07	-134.529	49.555	0	1475.50	0	2.4080	0	34.4910	0	27.539	0	1457.749	0	-1e10	8	-1e10	8	-1E+10	1	-1E+10	1	-1E+10	1	-1E+10	1	-1E+10	1	-1E+10	1
4902554	51	C	07/03/2022	12:07	-134.529	49.555	0	1485.80	0	2.3930	0	34.4940	0	27.543	0	1467.889	0	-1e10	8	-1e10	8	-1E+10	1	-1E+10	1	-1E+10	1	-1E+10	1	-1E+10	1	-1E+10	1
4902554	51	C	07/03/2022	12:07	-134.529	49.555	0	1495.80	0	2.3780	0	34.4970	0	27.546	0	1477.734	0	-1e10	8	-1e10	8	-1E+10	1	-1E+10	1	-1E+10	1	-1E+10	1	-1E+10	1	-1E+10	1
4902554	51	C	07/03/2022	12:07	-134.529	49.555	0	1505.50	0	2.3610	0	34.5000	0	27.550	0	1487.282	0	-1e10	8	-1e10	8	-1E+10	1	-1E+10	1	-1E+10	1	-1E+10	1	-1E+10	1	-1E+10	1
4902554	51	C	07/03/2022	12:07	-134.529	49.555	0	1515.40	0	2.3510	0	34.5020	0	27.553	0	1497.027	0	-1e10	8	-1e10	8	-1E+10	1	-1E+10	1	-1E+10	1	-1E+10	1	-1E+10	1	-1E+10	1
4902554	51	C	07/03/2022	12:07	-134.529	49.555	0	1525.60	0	2.3400	0	34.5050	0	27.556	0	1507.067	0	-1e10	8	-1e10	8	-1E+10	1	-1E+10	1	-1E+10	1	-1E+10	1	-1E+10	1	-1E+10	1
4902554	51	C	07/03/2022	12:07	-134.529	49.555	0	1535.80	0	2.3300	0	34.5060	0	27.558	0	1517.107	0	-1e10	8	-1e10	8	-1E+10	1	-1E+10	1	-1E+10	1	-1E+10	1	-1E+10	1	-1E+10	1
4902554	51	C	07/03/2022	12:07	-134.529	49.555	0	1545.40	0	2.3190	0	34.5090	0	27.561	0	1526.555	0	-1e10	8	-1e10	8	-1E+10	1	-1E+10	1	-1E+10	1	-1E+10	1	-1E+10	1	-1E+10	1
4902554	51	C	07/03/2022	12:07	-134.529	49.555	0	1555.30	0	2.3110	0	34.5100	0	27.563	0	1536.299	0	-1e10	8	-1e10	8	-1E+10	1	-1E+10	1	-1E+10	1	-1E+10	1	-1E+10	1	-1E+10	1
4902554	51	C	07/03/2022	12:07	-134.529	49.555	0	1565.70	0	2.2990	0	34.5130	0	27.566	0	1546.534	0	-1e10	8	-1e10	8	-1E+10	1	-1E+10	1	-1E+10	1	-1E+10	1	-1E+10	1	-1E+10	1
4902554	51	C	07/03/2022	12:07	-134.529	49.555	0	1575.50	0	2.2880	0	34.5150	0	27.569	0	1556.178	0	-1e10	8	-1e10	8	-1E+10	1	-1E+10	1	-1E+10	1	-1E+10	1	-1E+10	1	-1E+10	1
4902554	51	C	07/03/2022	12:07	-134.529	49.555	0	1585.20	0	2.2740	0	34.5180	0	27.572	0	1565.723	0	-1e10	8	-1e10	8	-1E+10	1	-1E+10	1	-1E+10	1	-1E+10	1	-1E+10	1	-1E+10	1
4902554	51	C	07/03/2022	12:07	-134.529	49.555	0	1595.10	0	2.2620	0	34.5200	0	27.575	0	1575.464	0	-1e10	8	-1e10	8	-1E+10	1	-1E+10	1	-1E+10	1	-1E+10	1	-1E+10	1	-1E+10	1
4902554	51	C	07/03/2022	12:07	-134.529	49.555	0	1605.30	0	2.2530	0	34.5220	0	27.577	0	1585.501	0	-1e10	8	-1e10	8	-1E+10	1	-1E+10	1	-1E+10	1	-1E+10	1	-1E+10	1	-1E+10	1
4902554	51	C	07/03/2022	12:07	-134.529	49.555	0	1615.40	0	2.2400	0	34.5250	0	27.581	0	1595.438	0	-1e10	8	-1e10	8	-1E+10	1	-1E+10	1	-1E+10	1	-1E+10	1	-1E+10	1	-1E+10	1
4902554	51	C	07/03/2022	12:07	-134.529	49.555	0	1625.10	0	2.2350	0	34.5260	0	27.582	0	1604.982	0	-1e10	8	-1e10	8	-1E+10	1	-1E+10	1	-1E+10	1	-1E+10	1	-1E+10	1	-1E+10	1
4902554	51	C	07/03/2022	12:07	-134.529	49.555	0	1635.10	0	2.2260	0	34.5280	0	27.584	0	1614.820	0	-1e10	8	-1e10	8	-1E+10	1	-1E+10	1	-1E+10	1	-1E+10	1	-1E+10	1	-1E+10	1
4902554	51	C	07/03/2022	12:07	-134.529	49.555	0	1645.10	0	2.2180	0	34.5290	0	27.586	0	1624.657	0	-1e10	8	-1e10	8	-1E+10	1	-1E+10	1	-1E+10	1	-1E+10	1	-1E+10	1	-1E+10	1
4902554	51	C	07/03/2022	12:07	-134.529	49.555	0	1655.10	0	2.2050	0	34.5320	0	27.589	0	1634.494	0	-1e10	8	-1e10	8	-1E+10	1	-1E+10	1	-1E+10	1	-1E+10	1	-1E+10	1	-1E+10	1
4902554	51	C	07/03/2022	12:07	-134.529	49.555	0	1665.40	0	2.2000	0	34.5330	0	27.591	0	1644.626	0	-1e10	8	-1e10	8	-1E+10	1	-1E+10	1	-1E+10	1	-1E+10	1	-1E+10	1	-1E+10	1
4902554	51	C	07/03/2022	12:07	-134.529	49.555	0	1675.30	0	2.1960	0	34.5340	0	27.592	0	1654.364	0	-1e10	8	-1e10	8	-1E+10	1	-1E+10	1	-1E+10	1	-1E+10	1	-1E+10	1	-1E+10	1
4902554	51	C	07/03/2022	12:07	-134.529	49.555	0	1685.20	0	2.1850	0	34.5360	0	27.594	0	1664.102	0	-1e10	8	-1e10	8	-1E+10	1	-1E+10	1	-1E+10	1	-1E+10	1	-1E+10	1	-1E+10	1
4902554	51	C	07/03/2022	12:07	-134.529	49.555	0	1695.70	0	2.1740	0	34.5380	0	27.597	0	1674.429	0	-1e10	8	-1e10	8	-1E+10	1	-1E+10	1	-1E+10	1	-1E+10	1	-1E+10	1	-1E+10	1
4902554	51	C	07/03/2022	12:07	-134.529	49.555	0	1705.60	0	2.1660	0	34.5400	0	27.599	0	1684.165	0	-1e10	8	-1e10	8	-1E+10	1	-1E+10	1	-1E+10	1	-1E+10	1	-1E+10	1	-1E+10	1
4902554	51	C	07/03/2022	12:07	-134.529	49.555	0	1715.50	0	2.1570	0	34.5420	0	27.601	0	1693.901	0	-1e10	8	-1e10	8	-1E+10	1	-1E+10	1	-1E+10	1	-1E+10	1	-1E+10	1	-1E+10	1
4902554	51	C	07/03/2022	12:07	-134.529	49.555	0	1725.70	0	2.1490	0	34.5440	0	27.604	0	1703.932	0	-1e10	8	-1e10	8	-1E+10	1	-1E+10	1	-1E+10	1	-1E+10	1	-1E+10	1	-1E+10	1
4902554	51	C	07/03/2022	12:07	-134.529	49.555	0	1735.70	0	2.1340	0	34.5470	0	27.607	0	1713.765	0	-1e10	8	-1e10	8	-1E+10	1	-1E+10	1	-1E+10	1	-1E+10	1	-1E+10	1	-1E+10	1
4902554	51	C	07/03/2022	12:07	-134.529	49.555	0	1745.40	0	2.1230	0	34.5490	0	27.610	0	1723.304	0	-1e10	8	-1e10	8	-1E+10	1	-1E+10	1	-1E+10	1	-1E+10	1	-1E+10	1	-1E+10	1
4902554	51	C	07/03/2022	12:07	-134.529	49.555	0	1755.00	0	2.1190	0	34.5500	0	27.611	0	1732.743	0	-1e10	8	-1e10	8	-1E+10	1	-1E+10	1	-1E+10	1	-1E+10	1	-1E+10	1	-1E+10	1
4902554	51	C	07/03/2022	12:07	-134.529	49.555	0	1765.60	0	2.1080	0	34.5520	0	27.614	0	1743.165	0	-1e10	8	-1e10	8	-1E+10	1	-1E+10	1	-1E+10	1	-1E+10	1	-1E+10	1	-1E+10	1
4902554	51	C	07/03/2022	12:07	-134.529	49.555	0	1775.60	0	2.0980	0	34.5540	0	27.616	0	1752.997	0	-1e10	8	-1e10	8	-1E+10	1	-1E+10	1	-1E+10	1	-1E+10	1	-1E+10	1	-1E+10	1
4902554	51	C	07/03/2022	12:07	-134.529	49.555	0	1785.40	0	2.0870	0	34.5570	0	27.619	0	1762.631	0	-1e10	8	-1e10	8	-1E+10	1	-1E+10	1	-1E+10	1	-1E+10	1	-1E+10	1	-1E+10	1
4902554	51	C	07/03/2022	12:07	-134.529	49.555	0	1795.30	0	2.0800	0	34.5580	0	27.621	0	1772.364	0	-1e10	8	-1e10	8	-1E+10	1	-1E+10	1	-1E+10	1	-1E+10	1	-1E+10	1	-1E+10	1
4902554	51	C	07/03/2022	12:07	-134.529	49.555	0	1805.50	0	2.0720	0	34.5600	0	27.623	0	1782.391	0	-1e10	8	-1e10	8	-1E+10	1	-1E+10	1	-1E+10	1	-1E+10	1	-1E+10	1	-1E+10	1
4902554	51	C	07/03/2022	12:07	-134.529	49.555	0	1815.60	0	2.0620	0	34.5610	0	27.625	0	1792.319	0	-1e10	8	-1e10	8	-1E+10	1	-1E+10	1	-1E+10	1	-1E+10	1	-1E+10	1	-1E+10	1
4902554	51	C	07/03/2022	12:07	-134.529	49.555	0	1825.50	0	2.0570	0	34.5630	0	27.627	0	1802.050	0	-1e10	8	-1e10	8	-1E+10	1	-1E+10	1	-1E+10	1	-1E+10	1	-1E+10	1	-1E+10	1
4902554	51	C	07/03/2022	12:07	-134.529	49.555	0	1835.40	0	2.0490	0	34.5640	0	27.628	0	1811.780	0	-1e10	8	-1e10	8	-1E+10	1	-1E+10	1	-1E+10	1	-1E+10	1	-1E+10	1	-1E+10	1
4902554	51	C	07/03/2022	12:07	-134.529	49.555	0	1845.20	0	2.0430	0	34.5650	0	27.630	0	1821.412	0	-1e10	8	-1e10	8	-1E+10	1	-1E+10	1	-1E+10	1	-1E+10	1	-1E+10	1	-1E+10	1
4902554	51	C	07/03/2022	12:07	-134.529	49.555	0	1855.40	0	2.0310	0	34.5680	0	27.633	0	1831.437	0	-1e10	8	-1e10	8	-1E+10	1	-1E+10	1	-1E+10	1	-1E+10	1	-1E+10	1	-1E+10	1
4902554	51	C	07/03/2022	12:07	-134.529	49.555	0	1865.60	0	2.0190	0	34.5700	0	27.636	0	1841.461	0	-1e10	8	-1e10	8	-1E+10	1	-1E+10	1	-1E+10	1	-1E+10	1	-1E+10	1	-1E+10	1
4902554	51	C	07/03/2022	12:07	-134.529	49.555	0	1875.80	0	2.0160	0	34.5710	0	27.637	0	1851.485	0	-1e10	8	-1e10	8	-1E+10	1	-1E+10	1	-1E+10	1	-1E+10	1	-1E+10	1	-1E+10	1
4902554	51	C	07/03/2022	12:07	-134.529	49.555	0	1885.80	0	2.0120	0	34.5720	0	27.638	0	1861.311	0	-1e10	8	-1e10	8	-1E+10	1	-1E+10	1	-1E+10	1	-1E+10	1	-1E+10	1	-1E+10	1
4902554	51	C	07/03/2022	12:07	-134.529	49.555	0	1895.50	0	2.0060	0	34.5730	0	27.639	0	1870.843	0	-1e10	8	-1e10	8	-1E+10	1	-1E+10	1	-1E+10	1	-1E+10	1	-1E+10	1	-1E+10	1
4902554	51	C	07/03/2022	12:07	-134.529	49.555	0	1905.20	0	2.0000	0	34.5740	0	27.640	0	1880.374	0	-1e10	8	-1e10	8	-1E+10	1	-1E+10	1	-1E+10	1	-1E+10	1	-1E+10	1	-1E+10	1
4902554	51	C	07/03/2022	12:07	-134.529	49.555	0	1915.60	0	1.9940	0	34.5750	0	27.642	0	1890.592	0	-1e10	8	-1e10	8	-1E+10	1	-1E+10	1	-1E+10	1	-1E+10	1	-1E+10	1	-1E+10	1
4902554	51	C	07/03/2022	12:07	-134.529	49.555	0	1925.50	0	1.9830	0	34.5770	0	27.644	0	1900.319	0	-1e10	8	-1e10	8	-1E+10	1	-1E+10	1	-1E+10	1	-1E+10	1	-1E+10	1	-1E+10	1
4902554	51	C	07/03/2022	12:07	-134.529	49.555	0	1935.60	0	1.9770	0	34.5790	0	27.646	0	1910.241	0	-1e10	8	-1e10	8	-1E+10	1	-1E+10	1	-1E+10	1	-1E+10	1	-1E+10	1	-1E+10	1
4902554	51	C	07/03/2022	12:07	-134.529	49.555	0	1945.70	0	1.9680	0	34.5810	0	27.649	0	1920.163	0	-1e10	8	-1e10	8	-1E+10	1	-1E+10	1	-1E+10	1	-1E+10	1	-1E+10	1	-1E+10	1
4902554	51	C	07/03/2022	12:07	-134.529	49.555	0	1955.60	0	1.9630	0	34.5820	0	27.650	0	1929.889	0	-1e10	8	-1e10	8	-1E+10	1	-1E+10	1	-1E+10	1	-1E+10	1	-1E+10	1	-1E+10	1
4902554	51	C	07/03/2022	12:07	-134.529	49.555	0	1965.30	0	1.9590	0	34.5820	0	27.650	0	1939.417	0	-1e10	8	-1e10	8	-1E+10	1	-1E+10	1	-1E+10	1	-1E+10	1	-1E+10	1	-1E+10	1
4902554	51	C	07/03/2022	12:07	-134.529	49.555	0	1975.10	0	1.9530	0	34.5840	0	27.652	0	1949.043	0	-1e10	8	-1e10	8	-1E+10	1	-1E+10	1	-1E+10	1	-1E+10	1	-1E+10	1	-1E+10	1
4902554	51	C	07/03/2022	12:07	-134.529	49.555	0	1985.40	0	1.9500	0	34.5850	0	27.654	0	1959.160	0	-1e10	8	-1e10	8	-1E+10	1	-1E+10	1	-1E+10	1	-1E+10	1	-1E+10	1	-1E+10	1
4902554	51	C	07/03/2022	12:07	-134.529	49.555	0	1995.70	0	1.9400	0	34.5860	0	27.655	0	1969.276	0	-1e10	8	-1e10	8	-1E+10	1	-1E+10	1	-1E+10	1	-1E+10	1	-1E+10	1	-1E+10	1
4902554	51	C	07/03/2022	12:07	-134.529	49.555	0	2005.80	0	1.9320	0	34.5880	0	27.657	0	1979.196	0	-1e10	8	-1e10	8	-1E+10	1	-1E+10	1	-1E+10	1	-1E+10	1	-1E+10	1	-1E+10	1
4902554	51	C	07/03/2022	12:07	-134.529	49.555	0	2016.00	0	1.9290	0	34.5890	0	27.659	0	1989.213	0	-1e10	8	-1e10	8	-1E+10	1	-1E+10	1	-1E+10	1	-1E+10	1	-1E+10	1	-1E+10	1
4902554	51	C	07/03/2022	12:07	-134.529	49.555	0	2022.30	0	1.9240	0	34.5900	0	27.660	0	1995.400	0	-1e10	8	-1e10	8	-1E+10	1	-1E+10	1	-1E+10	1	-1E+10	1	-1E+10	1	-1E+10	1
4902554	51	C	07/03/2022	12:07	-134.529	49.555	0																										
4902554	52	C	07/13/2022	17:06	-134.354	49.622	0	0.30	0	12.8140	0	32.1700	0	24.238	0	0.297	0	-1e10	1	-1e10	1	-1E+10	1	-1E+10	1	-1E+10	1	-1E+10	1	-1E+10	1	-1E+10	1
4902554	52	C	07/13/2022	17:06	-134.354	49.622	0	0.40	0	12.8137	0	32.1701	0	24.238	0	0.397	0	-1e10	8	-1e10	8	-1E+10	1	-1E+10	1	-1E+10	1	-1E+10	1	-1E+10	1	-1E+10	1
4902554	52	C	07/13/2022	17:06	-134.354	49.622	0	1.00	0	12.8120	0	32.1710	0	24.239	0	0.991	0	-1e10	8	-1e10	8	-1E+10	1	-1E+10	1	-1E+10	1	-1E+10	1	-1E+10	1	-1E+10	1
4902554	52	C	07/13/2022	17:06	-134.354	49.622	0	1.30	0	12.8120	0	32.1680	0	24.237	0	1.289	0	-1e10	8	-1e10	8	-1E+10	1	-1E+10	1	-1E+10	1	-1E+10	1	-1E+10	1	-1E+10	1
4902554	52	C	07/13/2022	17:06	-134.354	49.622	0	1.90	0	12.8120	0	32.1620	0	24.232	0	1.884	0	-1e10	8	-1e10	8	-1E+10	1	-1E+10	1	-1E+10	1	-1E+10	1	-1E+10	1	-1E+10	1
4902554	52	C	07/13/2022	17:06	-134.354	49.622	0	2.80	0	12.8120	0	32.1700	0	24.239	0	2.776	0	-1e10	8	-1e10	8	-1E+10	1	-1E+10	1	-1E+10	1	-1E+10	1	-1E+10	1	-1E+10	1
4902554	52	C	07/13/2022	17:06	-134.354	49.622	0	3.80	0	12.8130	0	32.1710	0	24.239	0	3.768	0	-1e10	8	-1e10	8	-1E+10	1	-1E+10	1	-1E+10	1	-1E+10	1	-1E+10	1	-1E+10	1
4902554	52	C	07/13/2022	17:06	-134.354	49.622	0	4.80	0	12.8110	0	32.1730	0	24.241	0	4.759	0	-1e10	8	-1e10	8	-1E+10	1	-1E+10	1	-1E+10	1	-1E+10	1	-1E+10	1	-1E+10	1
4902554	52	C	07/13/2022	17:06	-134.354	49.622	0	6.00	0	12.8110	0	32.1740	0	24.242	0	5.949	0	-1e10	8	-1e10	8	-1E+10	1	-1E+10	1	-1E+10	1	-1E+10	1	-1E+10	1	-1E+10	1
4902554	52	C	07/13/2022	17:06	-134.354	49.622	0	6.90	0	12.8100	0	32.1740	0	24.242	0	6.841	0	-1e10	8	-1e10	8	-1E+10	1	-1E+10	1	-1E+10	1	-1E+10	1	-1E+10	1	-1E+10	1
4902554	52	C	07/13/2022	17:06	-134.354	49.622	0	8.00	0	12.8110	0	32.1740	0	24.242	0	7.932	0	-1e10	8	-1e10	8	-1E+10	1	-1E+10	1	-1E+10	1	-1E+10	1	-1E+10	1	-1E+10	1
4902554	52	C	07/13/2022	17:06	-134.354	49.622	0	8.70	0	12.8100	0	32.1740	0	24.242	0	8.626	0	-1e10	8	-1e10	8	-1E+10	1	-1E+10	1	-1E+10	1	-1E+10	1	-1E+10	1	-1E+10	1
4902554	52	C	07/13/2022	17:06	-134.354	49.622	0	9.80	0	12.8100	0	32.1740	0	24.242	0	9.716	0	-1e10	8	-1e10	8	-1E+10	1	-1E+10	1	-1E+10	1	-1E+10	1	-1E+10	1	-1E+10	1
4902554	52	C	07/13/2022	17:06	-134.354	49.622	0	10.90	0	12.8100	0	32.1740	0	24.242	0	10.807	0	-1e10	8	-1e10	8	-1E+10	1	-1E+10	1	-1E+10	1	-1E+10	1	-1E+10	1	-1E+10	1
4902554	52	C	07/13/2022	17:06	-134.354	49.622	0	12.00	0	12.8100	0	32.1740	0	24.242	0	11.897	0	-1e10	8	-1e10	8	-1E+10	1	-1E+10	1	-1E+10	1	-1E+10	1	-1E+10	1	-1E+10	1
4902554	52	C	07/13/2022	17:06	-134.354	49.622	0	13.00	0	12.8100	0	32.1740	0	24.242	0	12.889	0	-1e10	8	-1e10	8	-1E+10	1	-1E+10	1	-1E+10	1	-1E+10	1	-1E+10	1	-1E+10	1
4902554	52	C	07/13/2022	17:06	-134.354	49.622	0	14.10	0	12.8100	0	32.1740	0	24.242	0	13.979	0	-1e10	8	-1e10	8	-1E+10	1	-1E+10	1	-1E+10	1	-1E+10	1	-1E+10	1	-1E+10	1
4902554	52	C	07/13/2022	17:06	-134.354	49.622	0	14.90	0	12.8100	0	32.1740	0	24.242	0	14.772	0	-1e10	8	-1e10	8	-1E+10	1	-1E+10	1	-1E+10	1	-1E+10	1	-1E+10	1	-1E+10	1
4902554	52	C	07/13/2022	17:06	-134.354	49.622	0	15.70	0	12.8100	0	32.1740	0	24.242	0	15.565	0	-1e10	8	-1e10	8	-1E+10	1	-1E+10	1	-1E+10	1	-1E+10	1	-1E+10	1	-1E+10	1
4902554	52	C	07/13/2022	17:06	-134.354	49.622	0	16.80	0	12.8110	0	32.1740	0	24.242	0	16.656	0	-1e10	8	-1e10	8	-1E+10	1	-1E+10	1	-1E+10	1	-1E+10	1	-1E+10	1	-1E+10	1
4902554	52	C	07/13/2022	17:06	-134.354	49.622	0	18.00	0	12.8110	0	32.1740	0	24.242	0	17.846	0	-1e10	8	-1e10	8	-1E+10	1	-1E+10	1	-1E+10	1	-1E+10	1	-1E+10	1	-1E+10	1
4902554	52	C	07/13/2022	17:06	-134.354	49.622	0	18.80	0	12.8120	0	32.1740	0	24.242	0	18.639	0	-1e10	8	-1e10	8	-1E+10	1	-1E+10	1	-1E+10	1	-1E+10	1	-1E+10	1	-1E+10	1
4902554	52	C	07/13/2022	17:06	-134.354	49.622	0	20.00	0	12.8120	0	32.1740	0	24.242	0	19.828	0	-1e10	8	-1e10	8	-1E+10	1	-1E+10	1	-1E+10	1	-1E+10	1	-1E+10	1	-1E+10	1
4902554	52	C	07/13/2022	17:06	-134.354	49.622	0	20.80	0	12.8100	0	32.1740	0	24.243	0	20.621	0	-1e10	8	-1e10	8	-1E+10	1	-1E+10	1	-1E+10	1	-1E+10	1	-1E+10	1	-1E+10	1
4902554	52	C	07/13/2022	17:06	-134.354	49.622	0	21.90	0	12.8110	0	32.1740	0	24.242	0	21.712	0	-1e10	8	-1e10	8	-1E+10	1	-1E+10	1	-1E+10	1	-1E+10	1	-1E+10	1	-1E+10	1
4902554	52	C	07/13/2022	17:06	-134.354	49.622	0	22.90	0	12.8110	0	32.1730	0	24.242	0	22.703	0	-1e10	8	-1e10	8	-1E+10	1	-1E+10	1	-1E+10	1	-1E+10	1	-1E+10	1	-1E+10	1
4902554	52	C	07/13/2022	17:06	-134.354	49.622	0	23.90	0	12.8090	0	32.1740	0	24.243	0	23.695	0	-1e10	8	-1e10	8	-1E+10	1	-1E+10	1	-1E+10	1	-1E+10	1	-1E+10	1	-1E+10	1
4902554	52	C	07/13/2022	17:06	-134.354	49.622	0	25.00	0	12.8090	0	32.1710	0	24.241	0	24.785	0	-1e10	8	-1e10	8	-1E+10	1	-1E+10	1	-1E+10	1	-1E+10	1	-1E+10	1	-1E+10	1
4902554	52	C	07/13/2022	17:06	-134.354	49.622	0	25.90	0	12.7490	0	32.1780	0	24.258	0	25.677	0	-1e10	8	-1e10	8	-1E+10	1	-1E+10	1	-1E+10	1	-1E+10	1	-1E+10	1	-1E+10	1
4902554	52	C	07/13/2022	17:06	-134.354	49.622	0	27.20	0	12.7220	0	32.1680	0	24.255	0	26.966	0	-1e10	8	-1e10	8	-1E+10	1	-1E+10	1	-1E+10	1	-1E+10	1	-1E+10	1	-1E+10	1
4902554	52	C	07/13/2022	17:06	-134.354	49.622	0	28.00	0	12.6450	0	32.1480	0	24.254	0	27.759	0	-1e10	8	-1e10	8	-1E+10	1	-1E+10	1	-1E+10	1	-1E+10	1	-1E+10	1	-1E+10	1
4902554	52	C	07/13/2022	17:06	-134.354	49.622	0	28.90	0	12.3900	0	32.1640	0	24.315	0	28.651	0	-1e10	8	-1e10	8	-1E+10	1	-1E+10	1	-1E+10	1	-1E+10	1	-1E+10	1	-1E+10	1
4902554	52	C	07/13/2022	17:06	-134.354	49.622	0	30.00	0	12.1310	0	32.1690	0	24.368	0	29.742	0	-1e10	8	-1e10	8	-1E+10	1	-1E+10	1	-1E+10	1	-1E+10	1	-1E+10	1	-1E+10	1
4902554	52	C	07/13/2022	17:06	-134.354	49.622	0	30.80	0	11.7580	0	32.1840	0	24.449	0	30.535	0	-1e10	8	-1e10	8	-1E+10	1	-1E+10	1	-1E+10	1	-1E+10	1	-1E+10	1	-1E+10	1
4902554	52	C	07/13/2022	17:06	-134.354	49.622	0	32.00	0	11.4070	0	32.1680	0	24.500	0	31.724	0	-1e10	8	-1e10	8	-1E+10	1	-1E+10	1	-1E+10	1	-1E+10	1	-1E+10	1	-1E+10	1
4902554	52	C	07/13/2022	17:06	-134.354	49.622	0	33.00	0	11.0210	0	32.1810	0	24.579	0	32.716	0	-1e10	8	-1e10	8	-1E+10	1	-1E+10	1	-1E+10	1	-1E+10	1	-1E+10	1	-1E+10	1
4902554	52	C	07/13/2022	17:06	-134.354	49.622	0	33.90	0	10.8820	0	32.1780	0	24.601	0	33.608	0	-1e10	8	-1e10	8	-1E+10	1	-1E+10	1	-1E+10	1	-1E+10	1	-1E+10	1	-1E+10	1
4902554	52	C	07/13/2022	17:06	-134.354	49.622	0	35.00	0	10.7080	0	32.1800	0	24.632	0	34.698	0	-1e10	8	-1e10	8	-1E+10	1	-1E+10	1	-1E+10	1	-1E+10	1	-1E+10	1	-1E+10	1
4902554	52	C	07/13/2022	17:06	-134.354	49.622	0	36.00	0	10.5010	0	32.1820	0	24.669	0	35.689	0	-1e10	8	-1e10	8	-1E+10	1	-1E+10	1	-1E+10	1	-1E+10	1	-1E+10	1	-1E+10	1
4902554	52	C	07/13/2022	17:06	-134.354	49.622	0	36.90	0	10.3040	0	32.1950	0	24.713	0	36.582	0	-1e10	8	-1e10	8	-1E+10	1	-1E+10	1	-1E+10	1	-1E+10	1	-1E+10	1	-1E+10	1
4902554	52	C	07/13/2022	17:06	-134.354	49.622	0	37.90	0	10.0590	0	32.2150	0	24.769	0	37.573	0	-1e10	8	-1e10	8	-1E+10	1	-1E+10	1	-1E+10	1	-1E+10	1	-1E+10	1	-1E+10	1
4902554	52	C	07/13/2022	17:06	-134.354	49.622	0	39.10	0	9.7920	0	32.2290	0	24.824	0	38.762	0	-1e10	8	-1e10	8	-1E+10	1	-1E+10	1	-1E+10	1	-1E+10	1	-1E+10	1	-1E+10	1
4902554	52	C	07/13/2022	17:06	-134.354	49.622	0	40.10	0	9.6830	0	32.2350	0	24.847	0	39.754	0	-1e10	8	-1e10	8	-1E+10	1	-1E+10	1	-1E+10	1	-1E+10	1	-1E+10	1	-1E+10	1
4902554	52	C	07/13/2022	17:06	-134.354	49.622	0	40.80	0	9.6210	0	32.2350	0	24.857	0	40.448	0	-1e10	8	-1e10	8	-1E+10	1	-1E+10	1	-1E+10	1	-1E+10	1	-1E+10	1	-1E+10	1
4902554	52	C	07/13/2022	17:06	-134.354	49.622	0	42.10	0	9.4270	0	32.2450	0	24.895	0	41.736	0	-1e10	8	-1e10	8	-1E+10	1	-1E+10	1	-1E+10	1	-1E+10	1	-1E+10	1	-1E+10	1
4902554	52	C	07/13/2022	17:06	-134.354	49.622	0	42.90	0	9.2000	0	32.2560	0	24.940	0	42.529	0	-1e10	8	-1e10	8	-1E+10	1	-1E+10	1	-1E+10	1	-1E+10	1	-1E+10	1	-1E+10	1
4902554	52	C	07/13/2022	17:06	-134.354	49.622	0	44.10	0	9.0720	0	32.2580	0	24.962	0	43.719	0	-1e10	8	-1e10	8	-1E+10	1	-1E+10	1	-1E+10	1	-1E+10	1	-1E+10	1	-1E+10	1
4902554	52	C	07/13/2022	17:06	-134.354	49.622	0	45.00	0	8.8660	0	32.2790	0	25.010	0	44.611	0	-1e10	8	-1e10	8	-1E+10	1	-1E+10	1	-1E+10	1	-1E+10	1	-1E+10	1	-1E+10	1
4902554	52	C	07/13/2022	17:06	-134.354	49.622	0	46.10	0	8.7430	0	32.2920	0	25.039	0	45.701	0	-1e10	8	-1e10	8	-1E+10	1	-1E+10	1	-1E+10	1	-1E+10	1	-1E+10	1	-1E+10	1
4902554	52	C	07/13/2022	17:06	-134.354	49.622	0	47.10	0	8.5950	0	32.3020	0	25.069	0	46.692	0	-1e10	8	-1e10	8	-1E+10	1	-1E+10	1	-1E+10	1	-1E+10	1	-1E+10	1	-1E+10	1
4902554	52	C	07/13/2022	17:06	-134.354	49.622	0	48.10	0	8.5600	0	32.3130	0	25.083	0	47.684	0	-1e10	8	-1e10	8	-1E+10	1	-1E+10	1	-1E+10	1	-1E+10	1	-1E+10	1	-1E+10	1
4902554	52	C	07/13/2022	17:06	-134.354	49.622	0	49.00	0	8.4200	0	32.3060	0	25.098	0	48.576	0	-1e10	8	-1e10	8	-1E+10	1	-1E+10	1	-1E+10	1	-1E+10	1	-1E+10	1	-1E+10	1
4902554	52	C	07/13/2022	17:06	-134.354	49.622	0	49.80	0	8.3720	0	32.3060	0	25.105	0	49.369	0	-1e10	8	-1e10	8	-1E+10	1	-1E+10	1	-1E+10	1	-1E+10	1	-1E+10	1	-1E+10	1
4902554	52	C	07/13/2022	17:06	-134.354	49.622	0	50.80	0	8.3140	0	32.3030	0	25.112	0	50.360	0	-1e10	8	-1e10	8	-1E+10	1	-1E+10	1	-1E+10	1	-1E+10	1	-1E+10	1	-1E+10	1
4902554	52	C	07/13/2022	17:06	-134.354	49.622	0	51.90	0	8.2400	0	32.3030	0	25.122	0	51.450	0	-1e10	8	-1e10	8	-1E+10	1	-1E+10	1	-1E+10	1	-1E+10	1	-1E+10	1	-1E+10	1
4902554	52	C	07/13/2022	17:06	-134.354	49.622	0	53.10	0	8.1050	0	32.3070	0	25.145	0	52.640	0	-1e10	8	-1e10	8	-1E+10	1	-1E+10	1	-1E+10	1	-1E+10	1	-1E+10	1	-1E+10	1
4902554	52	C	07/13/2022	17:06	-134.354	49.622	0	54.10	0	7.9970	0	32.3150	0	25.167	0	53.631	0	-1e10	8	-1e10	8	-1E+10	1	-1E+10	1	-1E+10	1	-1E+10	1	-1E+10	1	-1E+10	1
4902554	52	C	07/13/2022	17:06	-134.354	49.622	0	55.20	0	7.9520	0	32.3130	0	25.172	0	54.721	0	-1e10	8	-1e10	8	-1E+10	1	-1E+10	1	-1E+10	1	-1E+10	1	-1E+10	1	-1E+10	1
4902554	52	C	07/13/2022	17:06	-134.354	49.622	0	56.10	0	7.9120	0	32.3130	0	25.178	0	55.613	0	-1e10	8	-1e10	8	-1E+10	1	-1E+10	1	-1E+10	1	-1E+10	1	-1E+10	1	-1E+10	1
4902554	52	C	07/13/2022	17:06	-134.354	49.622	0	57.00	0	7.8560	0	32.3130	0	25.186	0	56.505	0	-1e10	8	-1e10	8	-1E+10	1	-1E+10	1	-1E+10	1	-1E+10	1	-1E+10	1	-1E+10	1
4902554	52	C	07/13/2022	17:06	-134.354	49.622	0	58.00	0	7.8180	0	32.3150	0	25.193	0	57.497	0	-1e10	8	-1e10	8	-1E+10	1	-1E+10	1	-1E+10	1	-1E+10	1	-1E+10	1	-1E+10	1
4902554	52	C	07/13/2022	17:06	-134.354	49.622	0	59.10	0	7.7040	0	32.3260	0	25.218	0	58.587	0	-1e10	8	-1e10	8	-1E+10	1	-1E+10	1	-1E+10	1	-1E+10	1	-1E+10	1	-1E+10	1
4902554	52	C	07/13/2022	17:06	-134.354	49.622	0	59.90	0	7.6200	0	32.3250	0	25.229	0	59.380	0	-1e10	8	-1e10	8	-1E+10	1	-1E+10	1	-1E+10	1	-1E+10	1	-1E+10	1	-1E+10	1
4902554	52	C	07/13/2022	17:06	-134.354	49.622	0	61.10	0	7.5080	0	32.3250	0	25.244	0	60.569	0	-1e10	8	-1e10	8	-1E+10	1	-1E+10	1	-1E+10	1	-1E+10	1	-1E+10	1	-1E+10	1
4902554	52	C	07/13/2022	17:06	-134.354	49.622	0	61.90	0	7.4900	0	32.3250	0	25.247	0	61.362	0	-1e10	8	-1e10	8	-1E+10	1	-1E+10	1	-1E+10	1	-1E+10	1	-1E+10	1	-1E+10	1
4902554	52	C	07/13/2022	17:06	-134.354	49.622	0	63.00	0	7.4210	0	32.3260	0	25.257	0	62.453	0	-1e10	8	-1e10	8	-1E+10	1	-1E+10	1	-1E+10	1	-1E+10	1	-1E+10	1	-1E+10	1
4902554	52	C	07/13/2022	17:06	-134.354	49.622	0	64.00	0	7.3220	0	32.3310	0	25.274	0	63.444	0	-1e10	8	-1e10	8	-1E+10	1	-1E+10	1	-1E+10	1	-1E+10	1	-1E+10	1	-1E+10	1
4902554	52	C	07/13/2022	17:06	-134.354	49.622	0	65.10	0	7.2860	0	32.3310	0	25.279	0	64.534	0	-1e10	8	-1e10	8	-1E+10	1	-1E+10	1	-1E+10	1	-1E+10	1	-1E+10	1	-1E+10	1
4902554	52	C	07/13/2022	17:06	-134.354	49.622	0	65.80	0	7.2630	0	32.3320	0	25.283	0	65.228	0	-1e10	8	-1e10	8	-1E+10	1	-1E+10	1	-1E+10	1	-1E+10	1	-1E+10	1	-1E+10	1
4902554	52	C	07/13/2022	17:06	-134.354	49.622	0	67.00	0	7.2300	0	32.3360	0	25.291	0	66.417	0	-1e10	8	-1e10	8	-1E+10	1	-1E+10	1	-1E+10	1	-1E+10	1	-1E+10	1	-1E+10	1
4902554	52	C	07/13/2022	17:06	-134.354	49.622	0	68.20	0	7.1970	0	32.3400	0	25.299	0	67.606	0	-1e10	8	-1e10	8	-1E+10	1	-1E+10	1	-1E+10	1	-1E+10	1	-1E+10	1	-1E+10	1
4902554	52	C	07/13/2022	17:06	-134.354	49.622	0	68.80	0	7.1750	0	32.3400	0	25.302	0	68.201	0	-1e10	8	-1e10	8	-1E+10	1	-1E+10	1	-1E+10	1	-1E+10	1	-1E+10	1	-1E+10	1
4902554	52	C	07/13/2022	17:06	-134.354	49.622	0	69.70	0	7.1690	0	32.3420	0	25.304	0	69.093	0	-1e10	8	-1e10	8	-1E+10	1	-1E+10	1	-1E+10	1	-1E+10	1	-1E+10	1	-1E+10	1
4902554	52	C	07/13/2022	17:06	-134.354	49.622	0	70.70	0	7.1540	0	32.3450	0	25.308	0	70.084	0	-1e10	8	-1e10	8	-1E+10	1	-1E+10	1	-1E+10	1	-1E+10	1	-1E+10	1	-1E+10	1
4902554	52	C	07/13/2022	17:06	-134.354	49.622	0	71.70	0	7.1350	0	32.3510	0	25.316	0	71.075	0	-1e10	8	-1e10	8	-1E+10	1	-1E+10	1	-1E+10	1	-1E+10	1	-1E+10	1	-1E+10	1
4902554	52	C	07/13/2022	17:06	-134.354	49.622	0	72.80	0	7.1290	0	32.3530	0	25.318	0	72.166	0	-1e10	8	-1e10	8	-1E+10	1	-1E+10	1	-1E+10	1	-1E+10	1	-1E+10	1	-1E+10	1
4902554	52	C	07/13/2022	17:06	-134.354	49.622	0	73.90	0	7.1270	0	32.3530	0	25.318	0	73.256	0	-1e10	8	-1e10	8	-1E+10	1	-1E+10	1	-1E+10	1	-1E+10	1	-1E+10	1	-1E+10	1
4902554	52	C	07/13/2022	17:06	-134.354	49.622	0	75.00	0	7.1240	0	32.3540	0	25.319	0	74.346	0	-1e10	8	-1e10	8	-1E+10	1	-1E+10	1	-1E+10	1	-1E+10	1	-1E+10	1	-1E+10	1
4902554	52	C	07/13/2022	17:06	-134.354	49.622	0	76.10	0	7.1190	0	32.3550	0	25.321	0	75.436	0	-1e10	8	-1e10	8	-1E+10	1	-1E+10	1	-1E+10	1	-1E+10	1	-1E+10	1	-1E+10	1
4902554	52	C	07/13/2022	17:06	-134.354	49.622	0	77.00	0	7.1110	0	32.3590	0	25.325	0	76.328	0	-1e10	8	-1e10	8	-1E+10	1	-1E+10	1	-1E+10	1	-1E+10	1	-1E+10	1	-1E+10	1
4902554	52	C	07/13/2022	17:06	-134.354	49.622	0	77.70	0	7.1170	0	32.3610	0	25.326	0	77.022	0	-1e10	8	-1e10	8	-1E+10	1	-1E+10	1	-1E+10	1	-1E+10	1	-1E+10	1	-1E+10	1
4902554	52	C	07/13/2022	17:06	-134.354	49.622	0	78.70	0	7.1220	0	32.3640	0	25.328	0	78.013	0	-1e10	8	-1e10	8	-1E+10	1	-1E+10	1	-1E+10	1	-1E+10	1	-1E+10	1	-1E+10	1
4902554	52	C	07/13/2022	17:06	-134.354	49.622	0	79.80	0	7.1180	0	32.3660	0	25.330	0	79.103	0	-1e10	8	-1e10	8	-1E+10	1	-1E+10	1	-1E+10	1	-1E+10	1	-1E+10	1	-1E+10	1
4902554	52	C	07/13/2022	17:06	-134.354	49.622	0	80.80	0	7.1010	0	32.3670	0	25.333	0	80.094	0	-1e10	8	-1e10	8	-1E+10	1	-1E+10	1	-1E+10	1	-1E+10	1	-1E+10	1	-1E+10	1
4902554	52	C	07/13/2022	17:06	-134.354	49.622	0	82.00	0	7.0200	0	32.3680	0	25.344	0	81.284	0	-1e10	8	-1e10	8	-1E+10	1	-1E+10	1	-1E+10	1	-1E+10	1	-1E+10	1	-1E+10	1
4902554	52	C	07/13/2022	17:06	-134.354	49.622	0	82.90	0	7.0000	0	32.3680	0	25.347	0	82.176	0	-1e10	8	-1e10	8	-1E+10	1	-1E+10	1	-1E+10	1	-1E+10	1	-1E+10	1	-1E+10	1
4902554	52	C	07/13/2022	17:06	-134.354	49.622	0	84.20	0	6.9920	0	32.3690	0	25.349	0	83.464	0	-1e10	8	-1e10	8	-1E+10	1	-1E+10	1	-1E+10	1	-1E+10	1	-1E+10	1	-1E+10	1
4902554	52	C	07/13/2022	17:06	-134.354	49.622	0	85.00	0	6.9810	0	32.3690	0	25.350	0	84.257	0	-1e10	8	-1e10	8	-1E+10	1	-1E+10	1	-1E+10	1	-1E+10	1	-1E+10	1	-1E+10	1
4902554	52	C	07/13/2022	17:06	-134.354	49.622	0	86.10	0	6.9520	0	32.3720	0	25.357	0	85.347	0	-1e10	8	-1e10	8	-1E+10	1	-1E+10	1	-1E+10	1	-1E+10	1	-1E+10	1	-1E+10	1
4902554	52	C	07/13/2022	17:06	-134.354	49.622	0	86.90	0	6.9300	0	32.3780	0	25.364	0	86.140	0	-1e10	8	-1e10	8	-1E+10	1	-1E+10	1	-1E+10	1	-1E+10	1	-1E+10	1	-1E+10	1
4902554	52	C	07/13/2022	17:06	-134.354	49.622	0	88.00	0	6.9070	0	32.3790	0	25.368	0	87.230	0	-1e10	8	-1e10	8	-1E+10	1	-1E+10	1	-1E+10	1	-1E+10	1	-1E+10	1	-1E+10	1
4902554	52	C	07/13/2022	17:06	-134.354	49.622	0	89.10	0	6.8840	0	32.3850	0	25.376	0	88.320	0	-1e10	8	-1e10	8	-1E+10	1	-1E+10	1	-1E+10	1	-1E+10	1	-1E+10	1	-1E+10	1
4902554	52	C	07/13/2022	17:06	-134.354	49.622	0	89.90	0	6.8780	0	32.3860	0	25.378	0	89.113	0	-1e10	8	-1e10	8	-1E+10	1	-1E+10	1	-1E+10	1	-1E+10	1	-1E+10	1	-1E+10	1
4902554	52	C	07/13/2022	17:06	-134.354	49.622	0	91.10	0	6.8620	0	32.3920	0	25.384	0	90.302	0	-1e10	8	-1e10	8	-1E+10	1	-1E+10	1	-1E+10	1	-1E+10	1	-1E+10	1	-1E+10	1
4902554	52	C	07/13/2022	17:06	-134.354	49.622	0	91.90	0	6.8340	0	32.4050	0	25.398	0	91.095	0	-1e10	8	-1e10	8	-1E+10	1	-1E+10	1	-1E+10	1	-1E+10	1	-1E+10	1	-1E+10	1
4902554	52	C	07/13/2022	17:06	-134.354	49.622	0	92.90	0	6.8120	0	32.4180	0	25.411	0	92.086	0	-1e10	8	-1e10	8	-1E+10	1	-1E+10	1	-1E+10	1	-1E+10	1	-1E+10	1	-1E+10	1
4902554	52	C	07/13/2022	17:06	-134.354	49.622	0	93.70	0	6.8040	0	32.4230	0	25.416	0	92.879	0	-1e10	8	-1e10	8	-1E+10	1	-1E+10	1	-1E+10	1	-1E+10	1	-1E+10	1	-1E+10	1
4902554	52	C	07/13/2022	17:06	-134.354	49.622	0	94.70	0	6.7930	0	32.4390	0	25.430	0	93.870	0	-1e10	8	-1e10	8	-1E+10	1	-1E+10	1	-1E+10	1	-1E+10	1	-1E+10	1	-1E+10	1
4902554	52	C	07/13/2022	17:06	-134.354	49.622	0	95.80	0	6.7840	0	32.4500	0	25.440	0	94.960	0	-1e10	8	-1e10	8	-1E+10	1	-1E+10	1	-1E+10	1	-1E+10	1	-1E+10	1	-1E+10	1
4902554	52	C	07/13/2022	17:06	-134.354	49.622	0	97.00	0	6.7800	0	32.4560	0	25.446	0	96.149	0	-1e10	8	-1e10	8	-1E+10	1	-1E+10	1	-1E+10	1	-1E+10	1	-1E+10	1	-1E+10	1
4902554	52	C	07/13/2022	17:06	-134.354	49.622	0	97.80	0	6.7810	0	32.4900	0	25.472	0	96.942	0	-1e10	8	-1e10	8	-1E+10	1	-1E+10	1	-1E+10	1	-1E+10	1	-1E+10	1	-1E+10	1
4902554	52	C	07/13/2022	17:06	-134.354	49.622	0	98.80	0	6.7650	0	32.5170	0	25.496	0	97.933	0	-1e10	8	-1e10	8	-1E+10	1	-1E+10	1	-1E+10	1	-1E+10	1	-1E+10	1	-1E+10	1
4902554	52	C	07/13/2022	17:06	-134.354	49.622	0	100.00	0	6.7450	0	32.5380	0	25.515	0	99.122	0	-1e10	8	-1e10	8	-1E+10	1	-1E+10	1	-1E+10	1	-1E+10	1	-1E+10	1	-1E+10	1
4902554	52	C	07/13/2022	17:06	-134.354	49.622	0	101.00	0	6.7410	0	32.5410	0	25.518	0	100.113	0	-1e10	8	-1e10	8	-1E+10	1	-1E+10	1	-1E+10	1	-1E+10	1	-1E+10	1	-1E+10	1
4902554	52	C	07/13/2022	17:06	-134.354	49.622	0	101.90	0	6.7320	0	32.5510	0	25.527	0	101.005	0	-1e10	8	-1e10	8	-1E+10	1	-1E+10	1	-1E+10	1	-1E+10	1	-1E+10	1	-1E+10	1
4902554	52	C	07/13/2022	17:06	-134.354	49.622	0	102.90	0	6.7240	0	32.5630	0	25.537	0	101.996	0	-1e10	8	-1e10	8	-1E+10	1	-1E+10	1	-1E+10	1	-1E+10	1	-1E+10	1	-1E+10	1
4902554	52	C	07/13/2022	17:06	-134.354	49.622	0	103.80	0	6.7040	0	32.5880	0	25.560	0	102.888	0	-1e10	8	-1e10	8	-1E+10	1	-1E+10	1	-1E+10	1	-1E+10	1	-1E+10	1	-1E+10	1
4902554	52	C	07/13/2022	17:06	-134.354	49.622	0	105.10	0	6.6810	0	32.6300	0	25.596	0	104.176	0	-1e10	8	-1e10	8	-1E+10	1	-1E+10	1	-1E+10	1	-1E+10	1	-1E+10	1	-1E+10	1
4902554	52	C	07/13/2022	17:06	-134.354	49.622	0	106.00	0	6.6770	0	32.6350	0	25.600	0	105.068	0	-1e10	8	-1e10	8	-1E+10	1	-1E+10	1	-1E+10	1	-1E+10	1	-1E+10	1	-1E+10	1
4902554	52	C	07/13/2022	17:06	-134.354	49.622	0	107.00	0	6.6740	0	32.6360	0	25.601	0	106.059	0	-1e10	8	-1e10	8	-1E+10	1	-1E+10	1	-1E+10	1	-1E+10	1	-1E+10	1	-1E+10	1
4902554	52	C	07/13/2022	17:06	-134.354	49.622	0	107.90	0	6.6740	0	32.6360	0	25.601	0	106.951	0	-1e10	8	-1e10	8	-1E+10	1	-1E+10	1	-1E+10	1	-1E+10	1	-1E+10	1	-1E+10	1
4902554	52	C	07/13/2022	17:06	-134.354	49.622	0	109.00	0	6.6540	0	32.6470	0	25.613	0	108.041	0	-1e10	8	-1e10	8	-1E+10	1	-1E+10	1	-1E+10	1	-1E+10	1	-1E+10	1	-1E+10	1
4902554	52	C	07/13/2022	17:06	-134.354	49.622	0	110.00	0	6.5790	0	32.7160	0	25.677	0	109.032	0	-1e10	8	-1e10	8	-1E+10	1	-1E+10	1	-1E+10	1	-1E+10	1	-1E+10	1	-1E+10	1
4902554	52	C	07/13/2022	17:06	-134.354	49.622	0	111.20	0	6.5850	0	32.7260	0	25.684	0	110.221	0	-1e10	8	-1e10	8	-1E+10	1	-1E+10	1	-1E+10	1	-1E+10	1	-1E+10	1	-1E+10	1
4902554	52	C	07/13/2022	17:06	-134.354	49.622	0	111.80	0	6.5870	0	32.7270	0	25.684	0	110.815	0	-1e10	8	-1e10	8	-1E+10	1	-1E+10	1	-1E+10	1	-1E+10	1	-1E+10	1	-1E+10	1
4902554	52	C	07/13/2022	17:06	-134.354	49.622	0	112.80	0	6.5800	0	32.7490	0	25.703	0	111.806	0	-1e10	8	-1e10	8	-1E+10	1	-1E+10	1	-1E+10	1	-1E+10	1	-1E+10	1	-1E+10	1
4902554	52	C	07/13/2022	17:06	-134.354	49.622	0	113.90	0	6.5650	0	32.7690	0	25.720	0	112.896	0	-1e10	8	-1e10	8	-1E+10	1	-1E+10	1	-1E+10	1	-1E+10	1	-1E+10	1	-1E+10	1
4902554	52	C	07/13/2022	17:06	-134.354	49.622	0	115.10	0	6.5230	0	32.8090	0	25.757	0	114.085	0	-1e10	8	-1e10	8	-1E+10	1	-1E+10	1	-1E+10	1	-1E+10	1	-1E+10	1	-1E+10	1
4902554	52	C	07/13/2022	17:06	-134.354	49.622	0	116.10	0	6.5010	0	32.8270	0	25.774	0	115.076	0	-1e10	8	-1e10	8	-1E+10	1	-1E+10	1	-1E+10	1	-1E+10	1	-1E+10	1	-1E+10	1
4902554	52	C	07/13/2022	17:06	-134.354	49.622	0	116.80	0	6.4910	0	32.8330	0	25.780	0	115.770	0	-1e10	8	-1e10	8	-1E+10	1	-1E+10	1	-1E+10	1	-1E+10	1	-1E+10	1	-1E+10	1
4902554	52	C	07/13/2022	17:06	-134.354	49.622	0	117.80	0	6.4670	0	32.8540	0	25.800	0	116.761	0	-1e10	8	-1e10	8	-1E+10	1	-1E+10	1	-1E+10	1	-1E+10	1	-1E+10	1	-1E+10	1
4902554	52	C	07/13/2022	17:06	-134.354	49.622	0	119.00	0	6.4410	0	32.8760	0	25.821	0	117.950	0	-1e10	8	-1e10	8	-1E+10	1	-1E+10	1	-1E+10	1	-1E+10	1	-1E+10	1	-1E+10	1
4902554	52	C	07/13/2022	17:06	-134.354	49.622	0	119.70	0	6.4150	0	32.9030	0	25.845	0	118.644	0	-1e10	8	-1e10	8	-1E+10	1	-1E+10	1	-1E+10	1	-1E+10	1	-1E+10	1	-1E+10	1
4902554	52	C	07/13/2022	17:06	-134.354	49.622	0	120.80	0	6.3910	0	32.9280	0	25.868	0	119.733	0	-1e10	8	-1e10	8	-1E+10	1	-1E+10	1	-1E+10	1	-1E+10	1	-1E+10	1	-1E+10	1
4902554	52	C	07/13/2022	17:06	-134.354	49.622	0	122.00	0	6.3440	0	32.9530	0	25.894	0	120.923	0	-1e10	8	-1e10	8	-1E+10	1	-1E+10	1	-1E+10	1	-1E+10	1	-1E+10	1	-1E+10	1
4902554	52	C	07/13/2022	17:06	-134.354	49.622	0	123.00	0	6.3010	0	32.9510	0	25.898	0	121.913	0	-1e10	8	-1e10	8	-1E+10	1	-1E+10	1	-1E+10	1	-1E+10	1	-1E+10	1	-1E+10	1
4902554	52	C	07/13/2022	17:06	-134.354	49.622	0	124.10	0	6.3170	0	32.9800	0	25.919	0	123.003	0	-1e10	8	-1e10	8	-1E+10	1	-1E+10	1	-1E+10	1	-1E+10	1	-1E+10	1	-1E+10	1
4902554	52	C	07/13/2022	17:06	-134.354	49.622	0	124.80	0	6.3060	0	32.9830	0	25.922	0	123.697	0	-1e10	8	-1e10	8	-1E+10	1	-1E+10	1	-1E+10	1	-1E+10	1	-1E+10	1	-1E+10	1
4902554	52	C	07/13/2022	17:06	-134.354	49.622	0	125.90	0	6.2760	0	32.9990	0	25.939	0	124.787	0	-1e10	8	-1e10	8	-1E+10	1	-1E+10	1	-1E+10	1	-1E+10	1	-1E+10	1	-1E+10	1
4902554	52	C	07/13/2022	17:06	-134.354	49.622	0	126.90	0	6.2260	0	33.0320	0	25.971	0	125.778	0	-1e10	8	-1e10	8	-1E+10	1	-1E+10	1	-1E+10	1	-1E+10	1	-1E+10	1	-1E+10	1
4902554	52	C	07/13/2022	17:06	-134.354	49.622	0	127.90	0	6.0740	0	33.0940	0	26.039	0	126.769	0	-1e10	8	-1e10	8	-1E+10	1	-1E+10	1	-1E+10	1	-1E+10	1	-1E+10	1	-1E+10	1
4902554	52	C	07/13/2022	17:06	-134.354	49.622	0	129.10	0	6.0010	0	33.1480	0	26.091	0	127.958	0	-1e10	8	-1e10	8	-1E+10	1	-1E+10	1	-1E+10	1	-1E+10	1	-1E+10	1	-1E+10	1
4902554	52	C	07/13/2022	17:06	-134.354	49.622	0	129.80	0	5.9920	0	33.1580	0	26.100	0	128.651	0	-1e10	8	-1e10	8	-1E+10	1	-1E+10	1	-1E+10	1	-1E+10	1	-1E+10	1	-1E+10	1
4902554	52	C	07/13/2022	17:06	-134.354	49.622	0	130.80	0	5.9800	0	33.1740	0	26.114	0	129.642	0	-1e10	8	-1e10	8	-1E+10	1	-1E+10	1	-1E+10	1	-1E+10	1	-1E+10	1	-1E+10	1
4902554	52	C	07/13/2022	17:06	-134.354	49.622	0	131.80	0	5.9650	0	33.1970	0	26.134	0	130.633	0	-1e10	8	-1e10	8	-1E+10	1	-1E+10	1	-1E+10	1	-1E+10	1	-1E+10	1	-1E+10	1
4902554	52	C	07/13/2022	17:06	-134.354	49.622	0	132.80	0	5.9420	0	33.2350	0	26.167	0	131.624	0	-1e10	8	-1e10	8	-1E+10	1	-1E+10	1	-1E+10	1	-1E+10	1	-1E+10	1	-1E+10	1
4902554	52	C	07/13/2022	17:06	-134.354	49.622	0	133.80	0	5.9330	0	33.2570	0	26.185	0	132.615	0	-1e10	8	-1e10	8	-1E+10	1	-1E+10	1	-1E+10	1	-1E+10	1	-1E+10	1	-1E+10	1
4902554	52	C	07/13/2022	17:06	-134.354	49.622	0	134.80	0	5.9250	0	33.2660	0	26.193	0	133.605	0	-1e10	8	-1e10	8	-1E+10	1	-1E+10	1	-1E+10	1	-1E+10	1	-1E+10	1	-1E+10	1
4902554	52	C	07/13/2022	17:06	-134.354	49.622	0	135.90	0	5.9170	0	33.2750	0	26.201	0	134.695	0	-1e10	8	-1e10	8	-1E+10	1	-1E+10	1	-1E+10	1	-1E+10	1	-1E+10	1	-1E+10	1
4902554	52	C	07/13/2022	17:06	-134.354	49.622	0	137.00	0	5.9120	0	33.2820	0	26.208	0	135.785	0	-1e10	8	-1e10	8	-1E+10	1	-1E+10	1	-1E+10	1	-1E+10	1	-1E+10	1	-1E+10	1
4902554	52	C	07/13/2022	17:06	-134.354	49.622	0	138.10	0	5.9080	0	33.3010	0	26.223	0	136.875	0	-1e10	8	-1e10	8	-1E+10	1	-1E+10	1	-1E+10	1	-1E+10	1	-1E+10	1	-1E+10	1
4902554	52	C	07/13/2022	17:06	-134.354	49.622	0	138.80	0	5.9120	0	33.3230	0	26.240	0	137.569	0	-1e10	8	-1e10	8	-1E+10	1	-1E+10	1	-1E+10	1	-1E+10	1	-1E+10	1	-1E+10	1
4902554	52	C	07/13/2022	17:06	-134.354	49.622	0	140.00	0	5.9090	0	33.3460	0	26.259	0	138.758	0	-1e10	8	-1e10	8	-1E+10	1	-1E+10	1	-1E+10	1	-1E+10	1	-1E+10	1	-1E+10	1
4902554	52	C	07/13/2022	17:06	-134.354	49.622	0	141.20	0	5.8780	0	33.3900	0	26.297	0	139.946	0	-1e10	8	-1e10	8	-1E+10	1	-1E+10	1	-1E+10	1	-1E+10	1	-1E+10	1	-1E+10	1
4902554	52	C	07/13/2022	17:06	-134.354	49.622	0	142.10	0	5.8440	0	33.4210	0	26.326	0	140.838	0	-1e10	8	-1e10	8	-1E+10	1	-1E+10	1	-1E+10	1	-1E+10	1	-1E+10	1	-1E+10	1
4902554	52	C	07/13/2022	17:06	-134.354	49.622	0	143.00	0	5.8340	0	33.4360	0	26.339	0	141.730	0	-1e10	8	-1e10	8	-1E+10	1	-1E+10	1	-1E+10	1	-1E+10	1	-1E+10	1	-1E+10	1
4902554	52	C	07/13/2022	17:06	-134.354	49.622	0	143.90	0	5.8220	0	33.4480	0	26.350	0	142.622	0	-1e10	8	-1e10	8	-1E+10	1	-1E+10	1	-1E+10	1	-1E+10	1	-1E+10	1	-1E+10	1
4902554	52	C	07/13/2022	17:06	-134.354	49.622	0	144.80	0	5.8110	0	33.4660	0	26.365	0	143.513	0	-1e10	8	-1e10	8	-1E+10	1	-1E+10	1	-1E+10	1	-1E+10	1	-1E+10	1	-1E+10	1
4902554	52	C	07/13/2022	17:06	-134.354	49.622	0	145.70	0	5.7990	0	33.4820	0	26.380	0	144.405	0	-1e10	8	-1e10	8	-1E+10	1	-1E+10	1	-1E+10	1	-1E+10	1	-1E+10	1	-1E+10	1
4902554	52	C	07/13/2022	17:06	-134.354	49.622	0	146.60	0	5.7890	0	33.4930	0	26.390	0	145.297	0	-1e10	8	-1e10	8	-1E+10	1	-1E+10	1	-1E+10	1	-1E+10	1	-1E+10	1	-1E+10	1
4902554	52	C	07/13/2022	17:06	-134.354	49.622	0	147.60	0	5.7850	0	33.4990	0	26.395	0	146.287	0	-1e10	8	-1e10	8	-1E+10	1	-1E+10	1	-1E+10	1	-1E+10	1	-1E+10	1	-1E+10	1
4902554	52	C	07/13/2022	17:06	-134.354	49.622	0	148.60	0	5.7780	0	33.5090	0	26.404	0	147.278	0	-1e10	8	-1e10	8	-1E+10	1	-1E+10	1	-1E+10	1	-1E+10	1	-1E+10	1	-1E+10	1
4902554	52	C	07/13/2022	17:06	-134.354	49.622	0	149.60	0	5.7700	0	33.5170	0	26.411	0	148.269	0	-1e10	8	-1e10	8	-1E+10	1	-1E+10	1	-1E+10	1	-1E+10	1	-1E+10	1	-1E+10	1
4902554	52	C	07/13/2022	17:06	-134.354	49.622	0	150.60	0	5.7440	0	33.5460	0	26.437	0	149.260	0	-1e10	8	-1e10	8	-1E+10	1	-1E+10	1	-1E+10	1	-1E+10	1	-1E+10	1	-1E+10	1
4902554	52	C	07/13/2022	17:06	-134.354	49.622	0	151.60	0	5.7300	0	33.5580	0	26.448	0	150.250	0	-1e10	8	-1e10	8	-1E+10	1	-1E+10	1	-1E+10	1	-1E+10	1	-1E+10	1	-1E+10	1
4902554	52	C	07/13/2022	17:06	-134.354	49.622	0	152.60	0	5.7290	0	33.5600	0	26.450	0	151.241	0	-1e10	8	-1e10	8	-1E+10	1	-1E+10	1	-1E+10	1	-1E+10	1	-1E+10	1	-1E+10	1
4902554	52	C	07/13/2022	17:06	-134.354	49.622	0	153.70	0	5.7290	0	33.5600	0	26.450	0	152.331	0	-1e10	8	-1e10	8	-1E+10	1	-1E+10	1	-1E+10	1	-1E+10	1	-1E+10	1	-1E+10	1
4902554	52	C	07/13/2022	17:06	-134.354	49.622	0	154.70	0	5.7280	0	33.5600	0	26.450	0	153.322	0	-1e10	8	-1e10	8	-1E+10	1	-1E+10	1	-1E+10	1	-1E+10	1	-1E+10	1	-1E+10	1
4902554	52	C	07/13/2022	17:06	-134.354	49.622	0	155.70	0	5.7070	0	33.5770	0	26.466	0	154.312	0	-1e10	8	-1e10	8	-1E+10	1	-1E+10	1	-1E+10	1	-1E+10	1	-1E+10	1	-1E+10	1
4902554	52	C	07/13/2022	17:06	-134.354	49.622	0	156.80	0	5.6950	0	33.5910	0	26.479	0	155.402	0	-1e10	8	-1e10	8	-1E+10	1	-1E+10	1	-1E+10	1	-1E+10	1	-1E+10	1	-1E+10	1
4902554	52	C	07/13/2022	17:06	-134.354	49.622	0	157.80	0	5.6920	0	33.5940	0	26.481	0	156.393	0	-1e10	8	-1e10	8	-1E+10	1	-1E+10	1	-1E+10	1	-1E+10	1	-1E+10	1	-1E+10	1
4902554	52	C	07/13/2022	17:06	-134.354	49.622	0	158.80	0	5.6740	0	33.6110	0	26.497	0	157.384	0	-1e10	8	-1e10	8	-1E+10	1	-1E+10	1	-1E+10	1	-1E+10	1	-1E+10	1	-1E+10	1
4902554	52	C	07/13/2022	17:06	-134.354	49.622	0	159.80	0	5.6650	0	33.6150	0	26.501	0	158.374	0	-1e10	8	-1e10	8	-1E+10	1	-1E+10	1	-1E+10	1	-1E+10	1	-1E+10	1	-1E+10	1
4902554	52	C	07/13/2022	17:06	-134.354	49.622	0	160.90	0	5.6530	0	33.6200	0	26.507	0	159.464	0	-1e10	8	-1e10	8	-1E+10	1	-1E+10	1	-1E+10	1	-1E+10	1	-1E+10	1	-1E+10	1
4902554	52	C	07/13/2022	17:06	-134.354	49.622	0	161.90	0	5.6390	0	33.6330	0	26.519	0	160.455	0	-1e10	8	-1e10	8	-1E+10	1	-1E+10	1	-1E+10	1	-1E+10	1	-1E+10	1	-1E+10	1
4902554	52	C	07/13/2022	17:06	-134.354	49.622	0	162.90	0	5.6270	0	33.6380	0	26.524	0	161.445	0	-1e10	8	-1e10	8	-1E+10	1	-1E+10	1	-1E+10	1	-1E+10	1	-1E+10	1	-1E+10	1
4902554	52	C	07/13/2022	17:06	-134.354	49.622	0	163.90	0	5.6240	0	33.6390	0	26.525	0	162.436	0	-1e10	8	-1e10	8	-1E+10	1	-1E+10	1	-1E+10	1	-1E+10	1	-1E+10	1	-1E+10	1
4902554	52	C	07/13/2022	17:06	-134.354	49.622	0	164.90	0	5.6180	0	33.6400	0	26.527	0	163.427	0	-1e10	8	-1e10	8	-1E+10	1	-1E+10	1	-1E+10	1	-1E+10	1	-1E+10	1	-1E+10	1
4902554	52	C	07/13/2022	17:06	-134.354	49.622	0	166.00	0	5.6110	0	33.6440	0	26.531	0	164.516	0	-1e10	8	-1e10	8	-1E+10	1	-1E+10	1	-1E+10	1	-1E+10	1	-1E+10	1	-1E+10	1
4902554	52	C	07/13/2022	17:06	-134.354	49.622	0	167.00	0	5.5940	0	33.6500	0	26.537	0	165.507	0	-1e10	8	-1e10	8	-1E+10	1	-1E+10	1	-1E+10	1	-1E+10	1	-1E+10	1	-1E+10	1
4902554	52	C	07/13/2022	17:06	-134.354	49.622	0	168.00	0	5.5690	0	33.6580	0	26.547	0	166.498	0	-1e10	8	-1e10	8	-1E+10	1	-1E+10	1	-1E+10	1	-1E+10	1	-1E+10	1	-1E+10	1
4902554	52	C	07/13/2022	17:06	-134.354	49.622	0	169.10	0	5.5550	0	33.6620	0	26.552	0	167.587	0	-1e10	8	-1e10	8	-1E+10	1	-1E+10	1	-1E+10	1	-1E+10	1	-1E+10	1	-1E+10	1
4902554	52	C	07/13/2022	17:06	-134.354	49.622	0	170.10	0	5.5490	0	33.6630	0	26.553	0	168.578	0	-1e10	8	-1e10	8	-1E+10	1	-1E+10	1	-1E+10	1	-1E+10	1	-1E+10	1	-1E+10	1
4902554	52	C	07/13/2022	17:06	-134.354	49.622	0	171.20	0	5.5400	0	33.6670	0	26.557	0	169.668	0	-1e10	8	-1e10	8	-1E+10	1	-1E+10	1	-1E+10	1	-1E+10	1	-1E+10	1	-1E+10	1
4902554	52	C	07/13/2022	17:06	-134.354	49.622	0	172.20	0	5.5110	0	33.6770	0	26.569	0	170.658	0	-1e10	8	-1e10	8	-1E+10	1	-1E+10	1	-1E+10	1	-1E+10	1	-1E+10	1	-1E+10	1
4902554	52	C	07/13/2022	17:06	-134.354	49.622	0	173.30	0	5.5000	0	33.6800	0	26.572	0	171.748	0	-1e10	8	-1e10	8	-1E+10	1	-1E+10	1	-1E+10	1	-1E+10	1	-1E+10	1	-1E+10	1
4902554	52	C	07/13/2022	17:06	-134.354	49.622	0	174.30	0	5.4850	0	33.6850	0	26.578	0	172.739	0	-1e10	8	-1e10	8	-1E+10	1	-1E+10	1	-1E+10	1	-1E+10	1	-1E+10	1	-1E+10	1
4902554	52	C	07/13/2022	17:06	-134.354	49.622	0	175.30	0	5.4600	0	33.6910	0	26.586	0	173.729	0	-1e10	8	-1e10	8	-1E+10	1	-1E+10	1	-1E+10	1	-1E+10	1	-1E+10	1	-1E+10	1
4902554	52	C	07/13/2022	17:06	-134.354	49.622	0	176.30	0	5.4380	0	33.6970	0	26.593	0	174.720	0	-1e10	8	-1e10	8	-1E+10	1	-1E+10	1	-1E+10	1	-1E+10	1	-1E+10	1	-1E+10	1
4902554	52	C	07/13/2022	17:06	-134.354	49.622	0	177.20	0	5.4340	0	33.6970	0	26.594	0	175.612	0	-1e10	8	-1e10	8	-1E+10	1	-1E+10	1	-1E+10	1	-1E+10	1	-1E+10	1	-1E+10	1
4902554	52	C	07/13/2022	17:06	-134.354	49.622	0	178.10	0	5.4190	0	33.7000	0	26.598	0	176.503	0	-1e10	8	-1e10	8	-1E+10	1	-1E+10	1	-1E+10	1	-1E+10	1	-1E+10	1	-1E+10	1
4902554	52	C	07/13/2022	17:06	-134.354	49.622	0	178.90	0	5.4010	0	33.7040	0	26.603	0	177.296	0	-1e10	8	-1e10	8	-1E+10	1	-1E+10	1	-1E+10	1	-1E+10	1	-1E+10	1	-1E+10	1
4902554	52	C	07/13/2022	17:06	-134.354	49.622	0	180.00	0	5.3690	0	33.7100	0	26.612	0	178.385	0	-1e10	8	-1e10	8	-1E+10	1	-1E+10	1	-1E+10	1	-1E+10	1	-1E+10	1	-1E+10	1
4902554	52	C	07/13/2022	17:06	-134.354	49.622	0	181.10	0	5.3370	0	33.7170	0	26.621	0	179.475	0	-1e10	8	-1e10	8	-1E+10	1	-1E+10	1	-1E+10	1	-1E+10	1	-1E+10	1	-1E+10	1
4902554	52	C	07/13/2022	17:06	-134.354	49.622	0	181.90	0	5.3330	0	33.7170	0	26.622	0	180.267	0	-1e10	8	-1e10	8	-1E+10	1	-1E+10	1	-1E+10	1	-1E+10	1	-1E+10	1	-1E+10	1
4902554	52	C	07/13/2022	17:06	-134.354	49.622	0	183.00	0	5.3250	0	33.7180	0	26.623	0	181.357	0	-1e10	8	-1e10	8	-1E+10	1	-1E+10	1	-1E+10	1	-1E+10	1	-1E+10	1	-1E+10	1
4902554	52	C	07/13/2022	17:06	-134.354	49.622	0	184.20	0	5.3010	0	33.7230	0	26.630	0	182.546	0	-1e10	8	-1e10	8	-1E+10	1	-1E+10	1	-1E+10	1	-1E+10	1	-1E+10	1	-1E+10	1
4902554	52	C	07/13/2022	17:06	-134.354	49.622	0	184.90	0	5.2980	0	33.7250	0	26.632	0	183.239	0	-1e10	8	-1e10	8	-1E+10	1	-1E+10	1	-1E+10	1	-1E+10	1	-1E+10	1	-1E+10	1
4902554	52	C	07/13/2022	17:06	-134.354	49.622	0	185.70	0	5.2870	0	33.7250	0	26.633	0	184.032	0	-1e10	8	-1e10	8	-1E+10	1	-1E+10	1	-1E+10	1	-1E+10	1	-1E+10	1	-1E+10	1
4902554	52	C	07/13/2022	17:06	-134.354	49.622	0	186.80	0	5.2750	0	33.7270	0	26.636	0	185.121	0	-1e10	8	-1e10	8	-1E+10	1	-1E+10	1	-1E+10	1	-1E+10	1	-1E+10	1	-1E+10	1
4902554	52	C	07/13/2022	17:06	-134.354	49.622	0	188.00	0	5.2630	0	33.7280	0	26.638	0	186.310	0	-1e10	8	-1e10	8	-1E+10	1	-1E+10	1	-1E+10	1	-1E+10	1	-1E+10	1	-1E+10	1
4902554	52	C	07/13/2022	17:06	-134.354	49.622	0	188.70	0	5.2550	0	33.7300	0	26.641	0	187.003	0	-1e10	8	-1e10	8	-1E+10	1	-1E+10	1	-1E+10	1	-1E+10	1	-1E+10	1	-1E+10	1
4902554	52	C	07/13/2022	17:06	-134.354	49.622	0	189.80	0	5.2410	0	33.7330	0	26.645	0	188.093	0	-1e10	8	-1e10	8	-1E+10	1	-1E+10	1	-1E+10	1	-1E+10	1	-1E+10	1	-1E+10	1
4902554	52	C	07/13/2022	17:06	-134.354	49.622	0	191.00	0	5.2000	0	33.7400	0	26.655	0	189.282	0	-1e10	8	-1e10	8	-1E+10	1	-1E+10	1	-1E+10	1	-1E+10	1	-1E+10	1	-1E+10	1
4902554	52	C	07/13/2022	17:06	-134.354	49.622	0	191.80	0	5.1790	0	33.7420	0	26.659	0	190.074	0	-1e10	8	-1e10	8	-1E+10	1	-1E+10	1	-1E+10	1	-1E+10	1	-1E+10	1	-1E+10	1
4902554	52	C	07/13/2022	17:06	-134.354	49.622	0	192.60	0	5.1700	0	33.7430	0	26.661	0	190.866	0	-1e10	8	-1e10	8	-1E+10	1	-1E+10	1	-1E+10	1	-1E+10	1	-1E+10	1	-1E+10	1
4902554	52	C	07/13/2022	17:06	-134.354	49.622	0	193.90	0	5.1540	0	33.7450	0	26.665	0	192.154	0	-1e10	8	-1e10	8	-1E+10	1	-1E+10	1	-1E+10	1	-1E+10	1	-1E+10	1	-1E+10	1
4902554	52	C	07/13/2022	17:06	-134.354	49.622	0	195.10	0	5.1400	0	33.7460	0	26.667	0	193.343	0	-1e10	8	-1e10	8	-1E+10	1	-1E+10	1	-1E+10	1	-1E+10	1	-1E+10	1	-1E+10	1
4902554	52	C	07/13/2022	17:06	-134.354	49.622	0	195.90	0	5.1140	0	33.7510	0	26.674	0	194.135	0	-1e10	8	-1e10	8	-1E+10	1	-1E+10	1	-1E+10	1	-1E+10	1	-1E+10	1	-1E+10	1
4902554	52	C	07/13/2022	17:06	-134.354	49.622	0	196.70	0	5.1050	0	33.7490	0	26.673	0	194.928	0	-1e10	8	-1e10	8	-1E+10	1	-1E+10	1	-1E+10	1	-1E+10	1	-1E+10	1	-1E+10	1
4902554	52	C	07/13/2022	17:06	-134.354	49.622	0	198.00	0	5.1010	0	33.7500	0	26.675	0	196.215	0	-1e10	8	-1e10	8	-1E+10	1	-1E+10	1	-1E+10	1	-1E+10	1	-1E+10	1	-1E+10	1
4902554	52	C	07/13/2022	17:06	-134.354	49.622	0	199.30	0	5.0960	0	33.7500	0	26.675	0	197.503	0	-1e10	8	-1e10	8	-1E+10	1	-1E+10	1	-1E+10	1	-1E+10	1	-1E+10	1	-1E+10	1
4902554	52	C	07/13/2022	17:06	-134.354	49.622	0	200.10	0	5.0930	0	33.7500	0	26.676	0	198.295	0	-1e10	8	-1e10	8	-1E+10	1	-1E+10	1	-1E+10	1	-1E+10	1	-1E+10	1	-1E+10	1
4902554	52	C	07/13/2022	17:06	-134.354	49.622	0	201.00	0	5.0820	0	33.7510	0	26.678	0	199.187	0	-1e10	8	-1e10	8	-1E+10	1	-1E+10	1	-1E+10	1	-1E+10	1	-1E+10	1	-1E+10	1
4902554	52	C	07/13/2022	17:06	-134.354	49.622	0	201.80	0	5.0680	0	33.7520	0	26.680	0	199.979	0	-1e10	8	-1e10	8	-1E+10	1	-1E+10	1	-1E+10	1	-1E+10	1	-1E+10	1	-1E+10	1
4902554	52	C	07/13/2022	17:06	-134.354	49.622	0	202.70	0	5.0610	0	33.7530	0	26.682	0	200.871	0	-1e10	8	-1e10	8	-1E+10	1	-1E+10	1	-1E+10	1	-1E+10	1	-1E+10	1	-1E+10	1
4902554	52	C	07/13/2022	17:06	-134.354	49.622	0	203.60	0	5.0530	0	33.7530	0	26.683	0	201.762	0	-1e10	8	-1e10	8	-1E+10	1	-1E+10	1	-1E+10	1	-1E+10	1	-1E+10	1	-1E+10	1
4902554	52	C	07/13/2022	17:06	-134.354	49.622	0	204.90	0	5.0370	0	33.7580	0	26.688	0	203.050	0	-1e10	8	-1e10	8	-1E+10	1	-1E+10	1	-1E+10	1	-1E+10	1	-1E+10	1	-1E+10	1
4902554	52	C	07/13/2022	17:06	-134.354	49.622	0	206.20	0	5.0340	0	33.7580	0	26.689	0	204.337	0	-1e10	8	-1e10	8	-1E+10	1	-1E+10	1	-1E+10	1	-1E+10	1	-1E+10	1	-1E+10	1
4902554	52	C	07/13/2022	17:06	-134.354	49.622	0	207.10	0	5.0370	0	33.7560	0	26.687	0	205.229	0	-1e10	8	-1e10	8	-1E+10	1	-1E+10	1	-1E+10	1	-1E+10	1	-1E+10	1	-1E+10	1
4902554	52	C	07/13/2022	17:06	-134.354	49.622	0	208.10	0	5.0170	0	33.7610	0	26.693	0	206.219	0	-1e10	8	-1e10	8	-1E+10	1	-1E+10	1	-1E+10	1	-1E+10	1	-1E+10	1	-1E+10	1
4902554	52	C	07/13/2022	17:06	-134.354	49.622	0	209.00	0	5.0170	0	33.7600	0	26.692	0	207.111	0	-1e10	8	-1e10	8	-1E+10	1	-1E+10	1	-1E+10	1	-1E+10	1	-1E+10	1	-1E+10	1
4902554	52	C	07/13/2022	17:06	-134.354	49.622	0	209.90	0	5.0130	0	33.7600	0	26.693	0	208.002	0	-1e10	8	-1e10	8	-1E+10	1	-1E+10	1	-1E+10	1	-1E+10	1	-1E+10	1	-1E+10	1
4902554	52	C	07/13/2022	17:06	-134.354	49.622	0	210.80	0	5.0130	0	33.7600	0	26.693	0	208.893	0	-1e10	8	-1e10	8	-1E+10	1	-1E+10	1	-1E+10	1	-1E+10	1	-1E+10	1	-1E+10	1
4902554	52	C	07/13/2022	17:06	-134.354	49.622	0	211.70	0	5.0080	0	33.7610	0	26.694	0	209.785	0	-1e10	8	-1e10	8	-1E+10	1	-1E+10	1	-1E+10	1	-1E+10	1	-1E+10	1	-1E+10	1
4902554	52	C	07/13/2022	17:06	-134.354	49.622	0	212.60	0	4.9960	0	33.7610	0	26.695	0	210.676	0	-1e10	8	-1e10	8	-1E+10	1	-1E+10	1	-1E+10	1	-1E+10	1	-1E+10	1	-1E+10	1
4902554	52	C	07/13/2022	17:06	-134.354	49.622	0	213.60	0	4.9610	0	33.7660	0	26.703	0	211.667	0	-1e10	8	-1e10	8	-1E+10	1	-1E+10	1	-1E+10	1	-1E+10	1	-1E+10	1	-1E+10	1
4902554	52	C	07/13/2022	17:06	-134.354	49.622	0	214.90	0	4.9510	0	33.7660	0	26.704	0	212.954	0	-1e10	8	-1e10	8	-1E+10	1	-1E+10	1	-1E+10	1	-1E+10	1	-1E+10	1	-1E+10	1
4902554	52	C	07/13/2022	17:06	-134.354	49.622	0	216.40	0	4.9470	0	33.7660	0	26.705	0	214.440	0	-1e10	8	-1e10	8	-1E+10	1	-1E+10	1	-1E+10	1	-1E+10	1	-1E+10	1	-1E+10	1
4902554	52	C	07/13/2022	17:06	-134.354	49.622	0	217.30	0	4.9450	0	33.7660	0	26.705	0	215.331	0	-1e10	8	-1e10	8	-1E+10	1	-1E+10	1	-1E+10	1	-1E+10	1	-1E+10	1	-1E+10	1
4902554	52	C	07/13/2022	17:06	-134.354	49.622	0	218.30	0	4.9440	0	33.7680	0	26.707	0	216.322	0	-1e10	8	-1e10	8	-1E+10	1	-1E+10	1	-1E+10	1	-1E+10	1	-1E+10	1	-1E+10	1
4902554	52	C	07/13/2022	17:06	-134.354	49.622	0	219.20	0	4.9450	0	33.7690	0	26.708	0	217.213	0	-1e10	8	-1e10	8	-1E+10	1	-1E+10	1	-1E+10	1	-1E+10	1	-1E+10	1	-1E+10	1
4902554	52	C	07/13/2022	17:06	-134.354	49.622	0	220.10	0	4.9450	0	33.7690	0	26.708	0	218.104	0	-1e10	8	-1e10	8	-1E+10	1	-1E+10	1	-1E+10	1	-1E+10	1	-1E+10	1	-1E+10	1
4902554	52	C	07/13/2022	17:06	-134.354	49.622	0	221.10	0	4.9450	0	33.7680	0	26.707	0	219.095	0	-1e10	8	-1e10	8	-1E+10	1	-1E+10	1	-1E+10	1	-1E+10	1	-1E+10	1	-1E+10	1
4902554	52	C	07/13/2022	17:06	-134.354	49.622	0	222.00	0	4.9360	0	33.7700	0	26.709	0	219.986	0	-1e10	8	-1e10	8	-1E+10	1	-1E+10	1	-1E+10	1	-1E+10	1	-1E+10	1	-1E+10	1
4902554	52	C	07/13/2022	17:06	-134.354	49.622	0	223.00	0	4.9140	0	33.7710	0	26.713	0	220.977	0	-1e10	8	-1e10	8	-1E+10	1	-1E+10	1	-1E+10	1	-1E+10	1	-1E+10	1	-1E+10	1
4902554	52	C	07/13/2022	17:06	-134.354	49.622	0	224.00	0	4.8800	0	33.7750	0	26.720	0	221.967	0	-1e10	8	-1e10	8	-1E+10	1	-1E+10	1	-1E+10	1	-1E+10	1	-1E+10	1	-1E+10	1
4902554	52	C	07/13/2022	17:06	-134.354	49.622	0	224.90	0	4.8670	0	33.7750	0	26.721	0	222.858	0	-1e10	8	-1e10	8	-1E+10	1	-1E+10	1	-1E+10	1	-1E+10	1	-1E+10	1	-1E+10	1
4902554	52	C	07/13/2022	17:06	-134.354	49.622	0	225.80	0	4.8630	0	33.7760	0	26.722	0	223.750	0	-1e10	8	-1e10	8	-1E+10	1	-1E+10	1	-1E+10	1	-1E+10	1	-1E+10	1	-1E+10	1
4902554	52	C	07/13/2022	17:06	-134.354	49.622	0	226.80	0	4.8470	0	33.7770	0	26.725	0	224.740	0	-1e10	8	-1e10	8	-1E+10	1	-1E+10	1	-1E+10	1	-1E+10	1	-1E+10	1	-1E+10	1
4902554	52	C	07/13/2022	17:06	-134.354	49.622	0	227.70	0	4.8420	0	33.7770	0	26.725	0	225.631	0	-1e10	8	-1e10	8	-1E+10	1	-1E+10	1	-1E+10	1	-1E+10	1	-1E+10	1	-1E+10	1
4902554	52	C	07/13/2022	17:06	-134.354	49.622	0	228.70	0	4.8370	0	33.7790	0	26.728	0	226.622	0	-1e10	8	-1e10	8	-1E+10	1	-1E+10	1	-1E+10	1	-1E+10	1	-1E+10	1	-1E+10	1
4902554	52	C	07/13/2022	17:06	-134.354	49.622	0	229.60	0	4.8340	0	33.7780	0	26.727	0	227.513	0	-1e10	8	-1e10	8	-1E+10	1	-1E+10	1	-1E+10	1	-1E+10	1	-1E+10	1	-1E+10	1
4902554	52	C	07/13/2022	17:06	-134.354	49.622	0	230.90	0	4.8220	0	33.7810	0	26.731	0	228.801	0	-1e10	8	-1e10	8	-1E+10	1	-1E+10	1	-1E+10	1	-1E+10	1	-1E+10	1	-1E+10	1
4902554	52	C	07/13/2022	17:06	-134.354	49.622	0	232.30	0	4.8130	0	33.7820	0	26.733	0	230.187	0	-1e10	8	-1e10	8	-1E+10	1	-1E+10	1	-1E+10	1	-1E+10	1	-1E+10	1	-1E+10	1
4902554	52	C	07/13/2022	17:06	-134.354	49.622	0	233.20	0	4.8080	0	33.7840	0	26.735	0	231.078	0	-1e10	8	-1e10	8	-1E+10	1	-1E+10	1	-1E+10	1	-1E+10	1	-1E+10	1	-1E+10	1
4902554	52	C	07/13/2022	17:06	-134.354	49.622	0	234.20	0	4.7940	0	33.7840	0	26.736	0	232.069	0	-1e10	8	-1e10	8	-1E+10	1	-1E+10	1	-1E+10	1	-1E+10	1	-1E+10	1	-1E+10	1
4902554	52	C	07/13/2022	17:06	-134.354	49.622	0	235.10	0	4.7900	0	33.7850	0	26.738	0	232.960	0	-1e10	8	-1e10	8	-1E+10	1	-1E+10	1	-1E+10	1	-1E+10	1	-1E+10	1	-1E+10	1
4902554	52	C	07/13/2022	17:06	-134.354	49.622	0	236.00	0	4.7850	0	33.7840	0	26.737	0	233.851	0	-1e10	8	-1e10	8	-1E+10	1	-1E+10	1	-1E+10	1	-1E+10	1	-1E+10	1	-1E+10	1
4902554	52	C	07/13/2022	17:06	-134.354	49.622	0	236.90	0	4.7780	0	33.7840	0	26.738	0	234.743	0	-1e10	8	-1e10	8	-1E+10	1	-1E+10	1	-1E+10	1	-1E+10	1	-1E+10	1	-1E+10	1
4902554	52	C	07/13/2022	17:06	-134.354	49.622	0	237.80	0	4.7830	0	33.7860	0	26.739	0	235.634	0	-1e10	8	-1e10	8	-1E+10	1	-1E+10	1	-1E+10	1	-1E+10	1	-1E+10	1	-1E+10	1
4902554	52	C	07/13/2022	17:06	-134.354	49.622	0	238.70	0	4.7740	0	33.7860	0	26.740	0	236.525	0	-1e10	8	-1e10	8	-1E+10	1	-1E+10	1	-1E+10	1	-1E+10	1	-1E+10	1	-1E+10	1
4902554	52	C	07/13/2022	17:06	-134.354	49.622	0	239.60	0	4.7690	0	33.7870	0	26.742	0	237.416	0	-1e10	8	-1e10	8	-1E+10	1	-1E+10	1	-1E+10	1	-1E+10	1	-1E+10	1	-1E+10	1
4902554	52	C	07/13/2022	17:06	-134.354	49.622	0	240.60	0	4.7640	0	33.7860	0	26.741	0	238.407	0	-1e10	8	-1e10	8	-1E+10	1	-1E+10	1	-1E+10	1	-1E+10	1	-1E+10	1	-1E+10	1
4902554	52	C	07/13/2022	17:06	-134.354	49.622	0	241.90	0	4.7520	0	33.7860	0	26.743	0	239.694	0	-1e10	8	-1e10	8	-1E+10	1	-1E+10	1	-1E+10	1	-1E+10	1	-1E+10	1	-1E+10	1
4902554	52	C	07/13/2022	17:06	-134.354	49.622	0	243.30	0	4.7320	0	33.7880	0	26.747	0	241.081	0	-1e10	8	-1e10	8	-1E+10	1	-1E+10	1	-1E+10	1	-1E+10	1	-1E+10	1	-1E+10	1
4902554	52	C	07/13/2022	17:06	-134.354	49.622	0	244.20	0	4.7300	0	33.7900	0	26.748	0	241.972	0	-1e10	8	-1e10	8	-1E+10	1	-1E+10	1	-1E+10	1	-1E+10	1	-1E+10	1	-1E+10	1
4902554	52	C	07/13/2022	17:06	-134.354	49.622	0	245.10	0	4.7300	0	33.7920	0	26.750	0	242.863	0	-1e10	8	-1e10	8	-1E+10	1	-1E+10	1	-1E+10	1	-1E+10	1	-1E+10	1	-1E+10	1
4902554	52	C	07/13/2022	17:06	-134.354	49.622	0	246.00	0	4.7230	0	33.7950	0	26.753	0	243.754	0	-1e10	8	-1e10	8	-1E+10	1	-1E+10	1	-1E+10	1	-1E+10	1	-1E+10	1	-1E+10	1
4902554	52	C	07/13/2022	17:06	-134.354	49.622	0	247.00	0	4.7220	0	33.7950	0	26.753	0	244.745	0	-1e10	8	-1e10	8	-1E+10	1	-1E+10	1	-1E+10	1	-1E+10	1	-1E+10	1	-1E+10	1
4902554	52	C	07/13/2022	17:06	-134.354	49.622	0	247.90	0	4.7160	0	33.7990	0	26.757	0	245.636	0	-1e10	8	-1e10	8	-1E+10	1	-1E+10	1	-1E+10	1	-1E+10	1	-1E+10	1	-1E+10	1
4902554	52	C	07/13/2022	17:06	-134.354	49.622	0	248.80	0	4.7100	0	33.7970	0	26.756	0	246.527	0	-1e10	8	-1e10	8	-1E+10	1	-1E+10	1	-1E+10	1	-1E+10	1	-1E+10	1	-1E+10	1
4902554	52	C	07/13/2022	17:06	-134.354	49.622	0	249.70	0	4.6960	0	33.7990	0	26.759	0	247.418	0	-1e10	8	-1e10	8	-1E+10	1	-1E+10	1	-1E+10	1	-1E+10	1	-1E+10	1	-1E+10	1
4902554	52	C	07/13/2022	17:06	-134.354	49.622	0	250.60	0	4.6820	0	33.8000	0	26.762	0	248.310	0	-1e10	8	-1e10	8	-1E+10	1	-1E+10	1	-1E+10	1	-1E+10	1	-1E+10	1	-1E+10	1
4902554	52	C	07/13/2022	17:06	-134.354	49.622	0	251.90	0	4.6750	0	33.8010	0	26.763	0	249.597	0	-1e10	8	-1e10	8	-1E+10	1	-1E+10	1	-1E+10	1	-1E+10	1	-1E+10	1	-1E+10	1
4902554	52	C	07/13/2022	17:06	-134.354	49.622	0	253.30	0	4.6670	0	33.8020	0	26.765	0	250.983	0	-1e10	8	-1e10	8	-1E+10	1	-1E+10	1	-1E+10	1	-1E+10	1	-1E+10	1	-1E+10	1
4902554	52	C	07/13/2022	17:06	-134.354	49.622	0	254.20	0	4.6540	0	33.8030	0	26.767	0	251.874	0	-1e10	8	-1e10	8	-1E+10	1	-1E+10	1	-1E+10	1	-1E+10	1	-1E+10	1	-1E+10	1
4902554	52	C	07/13/2022	17:06	-134.354	49.622	0	255.10	0	4.6500	0	33.8050	0	26.769	0	252.766	0	-1e10	8	-1e10	8	-1E+10	1	-1E+10	1	-1E+10	1	-1E+10	1	-1E+10	1	-1E+10	1
4902554	52	C	07/13/2022	17:06	-134.354	49.622	0	256.10	0	4.6190	0	33.8090	0	26.776	0	253.756	0	-1e10	8	-1e10	8	-1E+10	1	-1E+10	1	-1E+10	1	-1E+10	1	-1E+10	1	-1E+10	1
4902554	52	C	07/13/2022	17:06	-134.354	49.622	0	257.00	0	4.6150	0	33.8100	0	26.777	0	254.647	0	-1e10	8	-1e10	8	-1E+10	1	-1E+10	1	-1E+10	1	-1E+10	1	-1E+10	1	-1E+10	1
4902554	52	C	07/13/2022	17:06	-134.354	49.622	0	257.90	0	4.6110	0	33.8100	0	26.777	0	255.538	0	-1e10	8	-1e10	8	-1E+10	1	-1E+10	1	-1E+10	1	-1E+10	1	-1E+10	1	-1E+10	1
4902554	52	C	07/13/2022	17:06	-134.354	49.622	0	258.80	0	4.6090	0	33.8100	0	26.778	0	256.430	0	-1e10	8	-1e10	8	-1E+10	1	-1E+10	1	-1E+10	1	-1E+10	1	-1E+10	1	-1E+10	1
4902554	52	C	07/13/2022	17:06	-134.354	49.622	0	259.70	0	4.5990	0	33.8130	0	26.781	0	257.321	0	-1e10	8	-1e10	8	-1E+10	1	-1E+10	1	-1E+10	1	-1E+10	1	-1E+10	1	-1E+10	1
4902554	52	C	07/13/2022	17:06	-134.354	49.622	0	260.70	0	4.5880	0	33.8160	0	26.785	0	258.311	0	-1e10	8	-1e10	8	-1E+10	1	-1E+10	1	-1E+10	1	-1E+10	1	-1E+10	1	-1E+10	1
4902554	52	C	07/13/2022	17:06	-134.354	49.622	0	261.60	0	4.5860	0	33.8170	0	26.786	0	259.202	0	-1e10	8	-1e10	8	-1E+10	1	-1E+10	1	-1E+10	1	-1E+10	1	-1E+10	1	-1E+10	1
4902554	52	C	07/13/2022	17:06	-134.354	49.622	0	262.50	0	4.5800	0	33.8190	0	26.788	0	260.093	0	-1e10	8	-1e10	8	-1E+10	1	-1E+10	1	-1E+10	1	-1E+10	1	-1E+10	1	-1E+10	1
4902554	52	C	07/13/2022	17:06	-134.354	49.622	0	263.90	0	4.5760	0	33.8190	0	26.788	0	261.480	0	-1e10	8	-1e10	8	-1E+10	1	-1E+10	1	-1E+10	1	-1E+10	1	-1E+10	1	-1E+10	1
4902554	52	C	07/13/2022	17:06	-134.354	49.622	0	265.40	0	4.5740	0	33.8200	0	26.789	0	262.965	0	-1e10	8	-1e10	8	-1E+10	1	-1E+10	1	-1E+10	1	-1E+10	1	-1E+10	1	-1E+10	1
4902554	52	C	07/13/2022	17:06	-134.354	49.622	0	266.30	0	4.5710	0	33.8200	0	26.790	0	263.856	0	-1e10	8	-1e10	8	-1E+10	1	-1E+10	1	-1E+10	1	-1E+10	1	-1E+10	1	-1E+10	1
4902554	52	C	07/13/2022	17:06	-134.354	49.622	0	267.20	0	4.5610	0	33.8230	0	26.793	0	264.747	0	-1e10	8	-1e10	8	-1E+10	1	-1E+10	1	-1E+10	1	-1E+10	1	-1E+10	1	-1E+10	1
4902554	52	C	07/13/2022	17:06	-134.354	49.622	0	268.10	0	4.5450	0	33.8320	0	26.802	0	265.638	0	-1e10	8	-1e10	8	-1E+10	1	-1E+10	1	-1E+10	1	-1E+10	1	-1E+10	1	-1E+10	1
4902554	52	C	07/13/2022	17:06	-134.354	49.622	0	269.10	0	4.5410	0	33.8340	0	26.804	0	266.629	0	-1e10	8	-1e10	8	-1E+10	1	-1E+10	1	-1E+10	1	-1E+10	1	-1E+10	1	-1E+10	1
4902554	52	C	07/13/2022	17:06	-134.354	49.622	0	270.00	0	4.5330	0	33.8360	0	26.807	0	267.520	0	-1e10	8	-1e10	8	-1E+10	1	-1E+10	1	-1E+10	1	-1E+10	1	-1E+10	1	-1E+10	1
4902554	52	C	07/13/2022	17:06	-134.354	49.622	0	271.00	0	4.5280	0	33.8360	0	26.807	0	268.510	0	-1e10	8	-1e10	8	-1E+10	1	-1E+10	1	-1E+10	1	-1E+10	1	-1E+10	1	-1E+10	1
4902554	52	C	07/13/2022	17:06	-134.354	49.622	0	271.90	0	4.5270	0	33.8370	0	26.808	0	269.401	0	-1e10	8	-1e10	8	-1E+10	1	-1E+10	1	-1E+10	1	-1E+10	1	-1E+10	1	-1E+10	1
4902554	52	C	07/13/2022	17:06	-134.354	49.622	0	272.90	0	4.5160	0	33.8380	0	26.810	0	270.391	0	-1e10	8	-1e10	8	-1E+10	1	-1E+10	1	-1E+10	1	-1E+10	1	-1E+10	1	-1E+10	1
4902554	52	C	07/13/2022	17:06	-134.354	49.622	0	273.90	0	4.5100	0	33.8390	0	26.811	0	271.381	0	-1e10	8	-1e10	8	-1E+10	1	-1E+10	1	-1E+10	1	-1E+10	1	-1E+10	1	-1E+10	1
4902554	52	C	07/13/2022	17:06	-134.354	49.622	0	274.80	0	4.5000	0	33.8420	0	26.815	0	272.272	0	-1e10	8	-1e10	8	-1E+10	1	-1E+10	1	-1E+10	1	-1E+10	1	-1E+10	1	-1E+10	1
4902554	52	C	07/13/2022	17:06	-134.354	49.622	0	275.80	0	4.4890	0	33.8450	0	26.818	0	273.263	0	-1e10	8	-1e10	8	-1E+10	1	-1E+10	1	-1E+10	1	-1E+10	1	-1E+10	1	-1E+10	1
4902554	52	C	07/13/2022	17:06	-134.354	49.622	0	276.70	0	4.4890	0	33.8450	0	26.818	0	274.154	0	-1e10	8	-1e10	8	-1E+10	1	-1E+10	1	-1E+10	1	-1E+10	1	-1E+10	1	-1E+10	1
4902554	52	C	07/13/2022	17:06	-134.354	49.622	0	277.70	0	4.4860	0	33.8460	0	26.820	0	275.144	0	-1e10	8	-1e10	8	-1E+10	1	-1E+10	1	-1E+10	1	-1E+10	1	-1E+10	1	-1E+10	1
4902554	52	C	07/13/2022	17:06	-134.354	49.622	0	278.70	0	4.4830	0	33.8470	0	26.821	0	276.134	0	-1e10	8	-1e10	8	-1E+10	1	-1E+10	1	-1E+10	1	-1E+10	1	-1E+10	1	-1E+10	1
4902554	52	C	07/13/2022	17:06	-134.354	49.622	0	279.60	0	4.4790	0	33.8480	0	26.822	0	277.025	0	-1e10	8	-1e10	8	-1E+10	1	-1E+10	1	-1E+10	1	-1E+10	1	-1E+10	1	-1E+10	1
4902554	52	C	07/13/2022	17:06	-134.354	49.622	0	280.60	0	4.4710	0	33.8500	0	26.824	0	278.015	0	-1e10	8	-1e10	8	-1E+10	1	-1E+10	1	-1E+10	1	-1E+10	1	-1E+10	1	-1E+10	1
4902554	52	C	07/13/2022	17:06	-134.354	49.622	0	281.60	0	4.4700	0	33.8500	0	26.824	0	279.005	0	-1e10	8	-1e10	8	-1E+10	1	-1E+10	1	-1E+10	1	-1E+10	1	-1E+10	1	-1E+10	1
4902554	52	C	07/13/2022	17:06	-134.354	49.622	0	282.60	0	4.4690	0	33.8510	0	26.825	0	279.995	0	-1e10	8	-1e10	8	-1E+10	1	-1E+10	1	-1E+10	1	-1E+10	1	-1E+10	1	-1E+10	1
4902554	52	C	07/13/2022	17:06	-134.354	49.622	0	283.60	0	4.4610	0	33.8530	0	26.828	0	280.986	0	-1e10	8	-1e10	8	-1E+10	1	-1E+10	1	-1E+10	1	-1E+10	1	-1E+10	1	-1E+10	1
4902554	52	C	07/13/2022	17:06	-134.354	49.622	0	284.60	0	4.4560	0	33.8540	0	26.829	0	281.976	0	-1e10	8	-1e10	8	-1E+10	1	-1E+10	1	-1E+10	1	-1E+10	1	-1E+10	1	-1E+10	1
4902554	52	C	07/13/2022	17:06	-134.354	49.622	0	285.60	0	4.4540	0	33.8550	0	26.830	0	282.966	0	-1e10	8	-1e10	8	-1E+10	1	-1E+10	1	-1E+10	1	-1E+10	1	-1E+10	1	-1E+10	1
4902554	52	C	07/13/2022	17:06	-134.354	49.622	0	286.50	0	4.4520	0	33.8560	0	26.831	0	283.857	0	-1e10	8	-1e10	8	-1E+10	1	-1E+10	1	-1E+10	1	-1E+10	1	-1E+10	1	-1E+10	1
4902554	52	C	07/13/2022	17:06	-134.354	49.622	0	287.50	0	4.4510	0	33.8560	0	26.831	0	284.847	0	-1e10	8	-1e10	8	-1E+10	1	-1E+10	1	-1E+10	1	-1E+10	1	-1E+10	1	-1E+10	1
4902554	52	C	07/13/2022	17:06	-134.354	49.622	0	288.50	0	4.4510	0	33.8550	0	26.831	0	285.837	0	-1e10	8	-1e10	8	-1E+10	1	-1E+10	1	-1E+10	1	-1E+10	1	-1E+10	1	-1E+10	1
4902554	52	C	07/13/2022	17:06	-134.354	49.622	0	289.50	0	4.4480	0	33.8560	0	26.832	0	286.827	0	-1e10	8	-1e10	8	-1E+10	1	-1E+10	1	-1E+10	1	-1E+10	1	-1E+10	1	-1E+10	1
4902554	52	C	07/13/2022	17:06	-134.354	49.622	0	290.90	0	4.4380	0	33.8600	0	26.836	0	288.213	0	-1e10	8	-1e10	8	-1E+10	1	-1E+10	1	-1E+10	1	-1E+10	1	-1E+10	1	-1E+10	1
4902554	52	C	07/13/2022	17:06	-134.354	49.622	0	292.40	0	4.4280	0	33.8650	0	26.841	0	289.698	0	-1e10	8	-1e10	8	-1E+10	1	-1E+10	1	-1E+10	1	-1E+10	1	-1E+10	1	-1E+10	1
4902554	52	C	07/13/2022	17:06	-134.354	49.622	0	293.40	0	4.4170	0	33.8690	0	26.845	0	290.688	0	-1e10	8	-1e10	8	-1E+10	1	-1E+10	1	-1E+10	1	-1E+10	1	-1E+10	1	-1E+10	1
4902554	52	C	07/13/2022	17:06	-134.354	49.622	0	294.40	0	4.4080	0	33.8690	0	26.846	0	291.678	0	-1e10	8	-1e10	8	-1E+10	1	-1E+10	1	-1E+10	1	-1E+10	1	-1E+10	1	-1E+10	1
4902554	52	C	07/13/2022	17:06	-134.354	49.622	0	295.40	0	4.4030	0	33.8690	0	26.847	0	292.668	0	-1e10	8	-1e10	8	-1E+10	1	-1E+10	1	-1E+10	1	-1E+10	1	-1E+10	1	-1E+10	1
4902554	52	C	07/13/2022	17:06	-134.354	49.622	0	296.40	0	4.3930	0	33.8740	0	26.852	0	293.658	0	-1e10	8	-1e10	8	-1E+10	1	-1E+10	1	-1E+10	1	-1E+10	1	-1E+10	1	-1E+10	1
4902554	52	C	07/13/2022	17:06	-134.354	49.622	0	297.40	0	4.3910	0	33.8750	0	26.853	0	294.649	0	-1e10	8	-1e10	8	-1E+10	1	-1E+10	1	-1E+10	1	-1E+10	1	-1E+10	1	-1E+10	1
4902554	52	C	07/13/2022	17:06	-134.354	49.622	0	298.40	0	4.3890	0	33.8770	0	26.855	0	295.639	0	-1e10	8	-1e10	8	-1E+10	1	-1E+10	1	-1E+10	1	-1E+10	1	-1E+10	1	-1E+10	1
4902554	52	C	07/13/2022	17:06	-134.354	49.622	0	299.40	0	4.3880	0	33.8800	0	26.857	0	296.629	0	-1e10	8	-1e10	8	-1E+10	1	-1E+10	1	-1E+10	1	-1E+10	1	-1E+10	1	-1E+10	1
4902554	52	C	07/13/2022	17:06	-134.354	49.622	0	300.40	0	4.3860	0	33.8840	0	26.861	0	297.619	0	-1e10	8	-1e10	8	-1E+10	1	-1E+10	1	-1E+10	1	-1E+10	1	-1E+10	1	-1E+10	1
4902554	52	C	07/13/2022	17:06	-134.354	49.622	0	301.40	0	4.3850	0	33.8840	0	26.861	0	298.609	0	-1e10	8	-1e10	8	-1E+10	1	-1E+10	1	-1E+10	1	-1E+10	1	-1E+10	1	-1E+10	1
4902554	52	C	07/13/2022	17:06	-134.354	49.622	0	302.40	0	4.3840	0	33.8850	0	26.862	0	299.599	0	-1e10	8	-1e10	8	-1E+10	1	-1E+10	1	-1E+10	1	-1E+10	1	-1E+10	1	-1E+10	1
4902554	52	C	07/13/2022	17:06	-134.354	49.622	0	303.40	0	4.3840	0	33.8850	0	26.862	0	300.589	0	-1e10	8	-1e10	8	-1E+10	1	-1E+10	1	-1E+10	1	-1E+10	1	-1E+10	1	-1E+10	1
4902554	52	C	07/13/2022	17:06	-134.354	49.622	0	304.40	0	4.3830	0	33.8850	0	26.862	0	301.579	0	-1e10	8	-1e10	8	-1E+10	1	-1E+10	1	-1E+10	1	-1E+10	1	-1E+10	1	-1E+10	1
4902554	52	C	07/13/2022	17:06	-134.354	49.622	0	305.40	0	4.3790	0	33.8890	0	26.865	0	302.569	0	-1e10	8	-1e10	8	-1E+10	1	-1E+10	1	-1E+10	1	-1E+10	1	-1E+10	1	-1E+10	1
4902554	52	C	07/13/2022	17:06	-134.354	49.622	0	306.40	0	4.3770	0	33.8890	0	26.866	0	303.559	0	-1e10	8	-1e10	8	-1E+10	1	-1E+10	1	-1E+10	1	-1E+10	1	-1E+10	1	-1E+10	1
4902554	52	C	07/13/2022	17:06	-134.354	49.622	0	307.40	0	4.3770	0	33.8890	0	26.866	0	304.549	0	-1e10	8	-1e10	8	-1E+10	1	-1E+10	1	-1E+10	1	-1E+10	1	-1E+10	1	-1E+10	1
4902554	52	C	07/13/2022	17:06	-134.354	49.622	0	308.40	0	4.3770	0	33.8900	0	26.866	0	305.539	0	-1e10	8	-1e10	8	-1E+10	1	-1E+10	1	-1E+10	1	-1E+10	1	-1E+10	1	-1E+10	1
4902554	52	C	07/13/2022	17:06	-134.354	49.622	0	309.50	0	4.3770	0	33.8900	0	26.866	0	306.628	0	-1e10	8	-1e10	8	-1E+10	1	-1E+10	1	-1E+10	1	-1E+10	1	-1E+10	1	-1E+10	1
4902554	52	C	07/13/2022	17:06	-134.354	49.622	0	310.50	0	4.3760	0	33.8910	0	26.867	0	307.618	0	-1e10	8	-1e10	8	-1E+10	1	-1E+10	1	-1E+10	1	-1E+10	1	-1E+10	1	-1E+10	1
4902554	52	C	07/13/2022	17:06	-134.354	49.622	0	311.50	0	4.3750	0	33.8910	0	26.867	0	308.608	0	-1e10	8	-1e10	8	-1E+10	1	-1E+10	1	-1E+10	1	-1E+10	1	-1E+10	1	-1E+10	1
4902554	52	C	07/13/2022	17:06	-134.354	49.622	0	312.50	0	4.3720	0	33.8940	0	26.870	0	309.598	0	-1e10	8	-1e10	8	-1E+10	1	-1E+10	1	-1E+10	1	-1E+10	1	-1E+10	1	-1E+10	1
4902554	52	C	07/13/2022	17:06	-134.354	49.622	0	313.50	0	4.3690	0	33.8950	0	26.871	0	310.588	0	-1e10	8	-1e10	8	-1E+10	1	-1E+10	1	-1E+10	1	-1E+10	1	-1E+10	1	-1E+10	1
4902554	52	C	07/13/2022	17:06	-134.354	49.622	0	314.50	0	4.3700	0	33.8970	0	26.873	0	311.577	0	-1e10	8	-1e10	8	-1E+10	1	-1E+10	1	-1E+10	1	-1E+10	1	-1E+10	1	-1E+10	1
4902554	52	C	07/13/2022	17:06	-134.354	49.622	0	315.50	0	4.3740	0	33.8980	0	26.873	0	312.567	0	-1e10	8	-1e10	8	-1E+10	1	-1E+10	1	-1E+10	1	-1E+10	1	-1E+10	1	-1E+10	1
4902554	52	C	07/13/2022	17:06	-134.354	49.622	0	316.50	0	4.3720	0	33.8990	0	26.874	0	313.557	0	-1e10	8	-1e10	8	-1E+10	1	-1E+10	1	-1E+10	1	-1E+10	1	-1E+10	1	-1E+10	1
4902554	52	C	07/13/2022	17:06	-134.354	49.622	0	317.50	0	4.3680	0	33.9000	0	26.875	0	314.547	0	-1e10	8	-1e10	8	-1E+10	1	-1E+10	1	-1E+10	1	-1E+10	1	-1E+10	1	-1E+10	1
4902554	52	C	07/13/2022	17:06	-134.354	49.622	0	318.50	0	4.3670	0	33.9000	0	26.875	0	315.537	0	-1e10	8	-1e10	8	-1E+10	1	-1E+10	1	-1E+10	1	-1E+10	1	-1E+10	1	-1E+10	1
4902554	52	C	07/13/2022	17:06	-134.354	49.622	0	319.50	0	4.3650	0	33.9020	0	26.877	0	316.527	0	-1e10	8	-1e10	8	-1E+10	1	-1E+10	1	-1E+10	1	-1E+10	1	-1E+10	1	-1E+10	1
4902554	52	C	07/13/2022	17:06	-134.354	49.622	0	320.50	0	4.3630	0	33.9030	0	26.878	0	317.517	0	-1e10	8	-1e10	8	-1E+10	1	-1E+10	1	-1E+10	1	-1E+10	1	-1E+10	1	-1E+10	1
4902554	52	C	07/13/2022	17:06	-134.354	49.622	0	321.60	0	4.3650	0	33.9050	0	26.880	0	318.606	0	-1e10	8	-1e10	8	-1E+10	1	-1E+10	1	-1E+10	1	-1E+10	1	-1E+10	1	-1E+10	1
4902554	52	C	07/13/2022	17:06	-134.354	49.622	0	322.60	0	4.3640	0	33.9070	0	26.881	0	319.596	0	-1e10	8	-1e10	8	-1E+10	1	-1E+10	1	-1E+10	1	-1E+10	1	-1E+10	1	-1E+10	1
4902554	52	C	07/13/2022	17:06	-134.354	49.622	0	323.60	0	4.3630	0	33.9090	0	26.883	0	320.586	0	-1e10	8	-1e10	8	-1E+10	1	-1E+10	1	-1E+10	1	-1E+10	1	-1E+10	1	-1E+10	1
4902554	52	C	07/13/2022	17:06	-134.354	49.622	0	324.60	0	4.3590	0	33.9110	0	26.885	0	321.576	0	-1e10	8	-1e10	8	-1E+10	1	-1E+10	1	-1E+10	1	-1E+10	1	-1E+10	1	-1E+10	1
4902554	52	C	07/13/2022	17:06	-134.354	49.622	0	325.60	0	4.3590	0	33.9110	0	26.885	0	322.566	0	-1e10	8	-1e10	8	-1E+10	1	-1E+10	1	-1E+10	1	-1E+10	1	-1E+10	1	-1E+10	1
4902554	52	C	07/13/2022	17:06	-134.354	49.622	0	326.60	0	4.3580	0	33.9110	0	26.885	0	323.556	0	-1e10	8	-1e10	8	-1E+10	1	-1E+10	1	-1E+10	1	-1E+10	1	-1E+10	1	-1E+10	1
4902554	52	C	07/13/2022	17:06	-134.354	49.622	0	327.60	0	4.3580	0	33.9110	0	26.885	0	324.545	0	-1e10	8	-1e10	8	-1E+10	1	-1E+10	1	-1E+10	1	-1E+10	1	-1E+10	1	-1E+10	1
4902554	52	C	07/13/2022	17:06	-134.354	49.622	0	328.60	0	4.3570	0	33.9120	0	26.886	0	325.535	0	-1e10	8	-1e10	8	-1E+10	1	-1E+10	1	-1E+10	1	-1E+10	1	-1E+10	1	-1E+10	1
4902554	52	C	07/13/2022	17:06	-134.354	49.622	0	329.60	0	4.3560	0	33.9130	0	26.887	0	326.525	0	-1e10	8	-1e10	8	-1E+10	1	-1E+10	1	-1E+10	1	-1E+10	1	-1E+10	1	-1E+10	1
4902554	52	C	07/13/2022	17:06	-134.354	49.622	0	330.60	0	4.3550	0	33.9130	0	26.887	0	327.515	0	-1e10	8	-1e10	8	-1E+10	1	-1E+10	1	-1E+10	1	-1E+10	1	-1E+10	1	-1E+10	1
4902554	52	C	07/13/2022	17:06	-134.354	49.622	0	331.60	0	4.3540	0	33.9130	0	26.887	0	328.505	0	-1e10	8	-1e10	8	-1E+10	1	-1E+10	1	-1E+10	1	-1E+10	1	-1E+10	1	-1E+10	1
4902554	52	C	07/13/2022	17:06	-134.354	49.622	0	332.60	0	4.3530	0	33.9130	0	26.887	0	329.495	0	-1e10	8	-1e10	8	-1E+10	1	-1E+10	1	-1E+10	1	-1E+10	1	-1E+10	1	-1E+10	1
4902554	52	C	07/13/2022	17:06	-134.354	49.622	0	333.60	0	4.3460	0	33.9170	0	26.891	0	330.485	0	-1e10	8	-1e10	8	-1E+10	1	-1E+10	1	-1E+10	1	-1E+10	1	-1E+10	1	-1E+10	1
4902554	52	C	07/13/2022	17:06	-134.354	49.622	0	334.60	0	4.3440	0	33.9190	0	26.893	0	331.475	0	-1e10	8	-1e10	8	-1E+10	1	-1E+10	1	-1E+10	1	-1E+10	1	-1E+10	1	-1E+10	1
4902554	52	C	07/13/2022	17:06	-134.354	49.622	0	335.60	0	4.3400	0	33.9210	0	26.895	0	332.464	0	-1e10	8	-1e10	8	-1E+10	1	-1E+10	1	-1E+10	1	-1E+10	1	-1E+10	1	-1E+10	1
4902554	52	C	07/13/2022	17:06	-134.354	49.622	0	336.60	0	4.3400	0	33.9240	0	26.898	0	333.454	0	-1e10	8	-1e10	8	-1E+10	1	-1E+10	1	-1E+10	1	-1E+10	1	-1E+10	1	-1E+10	1
4902554	52	C	07/13/2022	17:06	-134.354	49.622	0	337.60	0	4.3490	0	33.9290	0	26.901	0	334.444	0	-1e10	8	-1e10	8	-1E+10	1	-1E+10	1	-1E+10	1	-1E+10	1	-1E+10	1	-1E+10	1
4902554	52	C	07/13/2022	17:06	-134.354	49.622	0	338.60	0	4.3430	0	33.9320	0	26.904	0	335.434	0	-1e10	8	-1e10	8	-1E+10	1	-1E+10	1	-1E+10	1	-1E+10	1	-1E+10	1	-1E+10	1
4902554	52	C	07/13/2022	17:06	-134.354	49.622	0	339.60	0	4.3370	0	33.9310	0	26.903	0	336.424	0	-1e10	8	-1e10	8	-1E+10	1	-1E+10	1	-1E+10	1	-1E+10	1	-1E+10	1	-1E+10	1
4902554	52	C	07/13/2022	17:06	-134.354	49.622	0	340.60	0	4.3290	0	33.9320	0	26.905	0	337.414	0	-1e10	8	-1e10	8	-1E+10	1	-1E+10	1	-1E+10	1	-1E+10	1	-1E+10	1	-1E+10	1
4902554	52	C	07/13/2022	17:06	-134.354	49.622	0	341.50	0	4.3280	0	33.9320	0	26.905	0	338.305	0	-1e10	8	-1e10	8	-1E+10	1	-1E+10	1	-1E+10	1	-1E+10	1	-1E+10	1	-1E+10	1
4902554	52	C	07/13/2022	17:06	-134.354	49.622	0	342.50	0	4.3270	0	33.9330	0	26.906	0	339.294	0	-1e10	8	-1e10	8	-1E+10	1	-1E+10	1	-1E+10	1	-1E+10	1	-1E+10	1	-1E+10	1
4902554	52	C	07/13/2022	17:06	-134.354	49.622	0	343.90	0	4.3210	0	33.9370	0	26.910	0	340.680	0	-1e10	8	-1e10	8	-1E+10	1	-1E+10	1	-1E+10	1	-1E+10	1	-1E+10	1	-1E+10	1
4902554	52	C	07/13/2022	17:06	-134.354	49.622	0	345.40	0	4.3090	0	33.9380	0	26.912	0	342.165	0	-1e10	8	-1e10	8	-1E+10	1	-1E+10	1	-1E+10	1	-1E+10	1	-1E+10	1	-1E+10	1
4902554	52	C	07/13/2022	17:06	-134.354	49.622	0	346.10	0	4.3080	0	33.9390	0	26.913	0	342.858	0	-1e10	8	-1e10	8	-1E+10	1	-1E+10	1	-1E+10	1	-1E+10	1	-1E+10	1	-1E+10	1
4902554	52	C	07/13/2022	17:06	-134.354	49.622	0	346.80	0	4.3060	0	33.9410	0	26.915	0	343.551	0	-1e10	8	-1e10	8	-1E+10	1	-1E+10	1	-1E+10	1	-1E+10	1	-1E+10	1	-1E+10	1
4902554	52	C	07/13/2022	17:06	-134.354	49.622	0	348.00	0	4.3060	0	33.9410	0	26.915	0	344.738	0	-1e10	8	-1e10	8	-1E+10	1	-1E+10	1	-1E+10	1	-1E+10	1	-1E+10	1	-1E+10	1
4902554	52	C	07/13/2022	17:06	-134.354	49.622	0	349.10	0	4.3050	0	33.9420	0	26.916	0	345.827	0	-1e10	8	-1e10	8	-1E+10	1	-1E+10	1	-1E+10	1	-1E+10	1	-1E+10	1	-1E+10	1
4902554	52	C	07/13/2022	17:06	-134.354	49.622	0	349.90	0	4.3030	0	33.9450	0	26.918	0	346.619	0	-1e10	8	-1e10	8	-1E+10	1	-1E+10	1	-1E+10	1	-1E+10	1	-1E+10	1	-1E+10	1
4902554	52	C	07/13/2022	17:06	-134.354	49.622	0	352.90	0	4.3000	0	33.9490	0	26.922	0	349.588	0	-1e10	8	-1e10	8	-1E+10	1	-1E+10	1	-1E+10	1	-1E+10	1	-1E+10	1	-1E+10	1
4902554	52	C	07/13/2022	17:06	-134.354	49.622	0	357.90	0	4.2960	0	33.9560	0	26.928	0	354.537	0	-1e10	8	-1e10	8	-1E+10	1	-1E+10	1	-1E+10	1	-1E+10	1	-1E+10	1	-1E+10	1
4902554	52	C	07/13/2022	17:06	-134.354	49.622	0	363.00	0	4.2940	0	33.9580	0	26.930	0	359.585	0	-1e10	8	-1e10	8	-1E+10	1	-1E+10	1	-1E+10	1	-1E+10	1	-1E+10	1	-1E+10	1
4902554	52	C	07/13/2022	17:06	-134.354	49.622	0	368.20	0	4.2950	0	33.9650	0	26.935	0	364.731	0	-1e10	8	-1e10	8	-1E+10	1	-1E+10	1	-1E+10	1	-1E+10	1	-1E+10	1	-1E+10	1
4902554	52	C	07/13/2022	17:06	-134.354	49.622	0	373.10	0	4.2990	0	33.9740	0	26.942	0	369.581	0	-1e10	8	-1e10	8	-1E+10	1	-1E+10	1	-1E+10	1	-1E+10	1	-1E+10	1	-1E+10	1
4902554	52	C	07/13/2022	17:06	-134.354	49.622	0	378.10	0	4.2970	0	33.9800	0	26.947	0	374.529	0	-1e10	8	-1e10	8	-1E+10	1	-1E+10	1	-1E+10	1	-1E+10	1	-1E+10	1	-1E+10	1
4902554	52	C	07/13/2022	17:06	-134.354	49.622	0	382.90	0	4.2930	0	33.9860	0	26.952	0	379.279	0	-1e10	8	-1e10	8	-1E+10	1	-1E+10	1	-1E+10	1	-1E+10	1	-1E+10	1	-1E+10	1
4902554	52	C	07/13/2022	17:06	-134.354	49.622	0	387.80	0	4.2880	0	33.9900	0	26.956	0	384.128	0	-1e10	8	-1e10	8	-1E+10	1	-1E+10	1	-1E+10	1	-1E+10	1	-1E+10	1	-1E+10	1
4902554	52	C	07/13/2022	17:06	-134.354	49.622	0	392.80	0	4.2790	0	33.9960	0	26.962	0	389.076	0	-1e10	8	-1e10	8	-1E+10	1	-1E+10	1	-1E+10	1	-1E+10	1	-1E+10	1	-1E+10	1
4902554	52	C	07/13/2022	17:06	-134.354	49.622	0	397.90	0	4.2640	0	34.0040	0	26.970	0	394.123	0	-1e10	8	-1e10	8	-1E+10	1	-1E+10	1	-1E+10	1	-1E+10	1	-1E+10	1	-1E+10	1
4902554	52	C	07/13/2022	17:06	-134.354	49.622	0	403.10	0	4.2530	0	34.0110	0	26.976	0	399.269	0	-1e10	8	-1e10	8	-1E+10	1	-1E+10	1	-1E+10	1	-1E+10	1	-1E+10	1	-1E+10	1
4902554	52	C	07/13/2022	17:06	-134.354	49.622	0	407.90	0	4.2450	0	34.0150	0	26.980	0	404.019	0	-1e10	8	-1e10	8	-1E+10	1	-1E+10	1	-1E+10	1	-1E+10	1	-1E+10	1	-1E+10	1
4902554	52	C	07/13/2022	17:06	-134.354	49.622	0	412.80	0	4.2380	0	34.0190	0	26.984	0	408.867	0	-1e10	8	-1e10	8	-1E+10	1	-1E+10	1	-1E+10	1	-1E+10	1	-1E+10	1	-1E+10	1
4902554	52	C	07/13/2022	17:06	-134.354	49.622	0	417.70	0	4.2260	0	34.0260	0	26.991	0	413.716	0	-1e10	8	-1e10	8	-1E+10	1	-1E+10	1	-1E+10	1	-1E+10	1	-1E+10	1	-1E+10	1
4902554	52	C	07/13/2022	17:06	-134.354	49.622	0	422.70	0	4.2210	0	34.0300	0	26.995	0	418.663	0	-1e10	8	-1e10	8	-1E+10	1	-1E+10	1	-1E+10	1	-1E+10	1	-1E+10	1	-1E+10	1
4902554	52	C	07/13/2022	17:06	-134.354	49.622	0	427.70	0	4.2010	0	34.0370	0	27.003	0	423.610	0	-1e10	8	-1e10	8	-1E+10	1	-1E+10	1	-1E+10	1	-1E+10	1	-1E+10	1	-1E+10	1
4902554	52	C	07/13/2022	17:06	-134.354	49.622	0	432.90	0	4.1930	0	34.0400	0	27.006	0	428.755	0	-1e10	8	-1e10	8	-1E+10	1	-1E+10	1	-1E+10	1	-1E+10	1	-1E+10	1	-1E+10	1
4902554	52	C	07/13/2022	17:06	-134.354	49.622	0	438.20	0	4.1890	0	34.0430	0	27.009	0	433.999	0	-1e10	8	-1e10	8	-1E+10	1	-1E+10	1	-1E+10	1	-1E+10	1	-1E+10	1	-1E+10	1
4902554	52	C	07/13/2022	17:06	-134.354	49.622	0	443.20	0	4.1840	0	34.0470	0	27.012	0	438.945	0	-1e10	8	-1e10	8	-1E+10	1	-1E+10	1	-1E+10	1	-1E+10	1	-1E+10	1	-1E+10	1
4902554	52	C	07/13/2022	17:06	-134.354	49.622	0	447.90	0	4.1760	0	34.0520	0	27.017	0	443.595	0	-1e10	8	-1e10	8	-1E+10	1	-1E+10	1	-1E+10	1	-1E+10	1	-1E+10	1	-1E+10	1
4902554	52	C	07/13/2022	17:06	-134.354	49.622	0	452.90	0	4.1690	0	34.0550	0	27.020	0	448.542	0	-1e10	8	-1e10	8	-1E+10	1	-1E+10	1	-1E+10	1	-1E+10	1	-1E+10	1	-1E+10	1
4902554	52	C	07/13/2022	17:06	-134.354	49.622	0	458.10	0	4.1640	0	34.0570	0	27.023	0	453.686	0	-1e10	8	-1e10	8	-1E+10	1	-1E+10	1	-1E+10	1	-1E+10	1	-1E+10	1	-1E+10	1
4902554	52	C	07/13/2022	17:06	-134.354	49.622	0	463.00	0	4.1550	0	34.0610	0	27.027	0	458.533	0	-1e10	8	-1e10	8	-1E+10	1	-1E+10	1	-1E+10	1	-1E+10	1	-1E+10	1	-1E+10	1
4902554	52	C	07/13/2022	17:06	-134.354	49.622	0	468.00	0	4.1370	0	34.0680	0	27.034	0	463.480	0	-1e10	8	-1e10	8	-1E+10	1	-1E+10	1	-1E+10	1	-1E+10	1	-1E+10	1	-1E+10	1
4902554	52	C	07/13/2022	17:06	-134.354	49.622	0	473.10	0	4.1240	0	34.0730	0	27.040	0	468.525	0	-1e10	8	-1e10	8	-1E+10	1	-1E+10	1	-1E+10	1	-1E+10	1	-1E+10	1	-1E+10	1
4902554	52	C	07/13/2022	17:06	-134.354	49.622	0	477.90	0	4.1070	0	34.0790	0	27.046	0	473.273	0	-1e10	8	-1e10	8	-1E+10	1	-1E+10	1	-1E+10	1	-1E+10	1	-1E+10	1	-1E+10	1
4902554	52	C	07/13/2022	17:06	-134.354	49.622	0	482.60	0	4.0950	0	34.0840	0	27.051	0	477.922	0	-1e10	8	-1e10	8	-1E+10	1	-1E+10	1	-1E+10	1	-1E+10	1	-1E+10	1	-1E+10	1
4902554	52	C	07/13/2022	17:06	-134.354	49.622	0	487.90	0	4.0830	0	34.0880	0	27.056	0	483.164	0	-1e10	8	-1e10	8	-1E+10	1	-1E+10	1	-1E+10	1	-1E+10	1	-1E+10	1	-1E+10	1
4902554	52	C	07/13/2022	17:06	-134.354	49.622	0	493.10	0	4.0700	0	34.0930	0	27.061	0	488.308	0	-1e10	8	-1e10	8	-1E+10	1	-1E+10	1	-1E+10	1	-1E+10	1	-1E+10	1	-1E+10	1
4902554	52	C	07/13/2022	17:06	-134.354	49.622	0	498.00	0	4.0640	0	34.0950	0	27.063	0	493.154	0	-1e10	8	-1e10	8	-1E+10	1	-1E+10	1	-1E+10	1	-1E+10	1	-1E+10	1	-1E+10	1
4902554	52	C	07/13/2022	17:06	-134.354	49.622	0	502.80	0	4.0560	0	34.0980	0	27.067	0	497.902	0	-1e10	8	-1e10	8	-1E+10	1	-1E+10	1	-1E+10	1	-1E+10	1	-1E+10	1	-1E+10	1
4902554	52	C	07/13/2022	17:06	-134.354	49.622	0	508.10	0	4.0490	0	34.1010	0	27.070	0	503.144	0	-1e10	8	-1e10	8	-1E+10	1	-1E+10	1	-1E+10	1	-1E+10	1	-1E+10	1	-1E+10	1
4902554	52	C	07/13/2022	17:06	-134.354	49.622	0	513.00	0	4.0460	0	34.1030	0	27.072	0	507.990	0	-1e10	8	-1e10	8	-1E+10	1	-1E+10	1	-1E+10	1	-1E+10	1	-1E+10	1	-1E+10	1
4902554	52	C	07/13/2022	17:06	-134.354	49.622	0	517.90	0	4.0400	0	34.1060	0	27.075	0	512.836	0	-1e10	8	-1e10	8	-1E+10	1	-1E+10	1	-1E+10	1	-1E+10	1	-1E+10	1	-1E+10	1
4902554	52	C	07/13/2022	17:06	-134.354	49.622	0	522.90	0	4.0330	0	34.1080	0	27.077	0	517.781	0	-1e10	8	-1e10	8	-1E+10	1	-1E+10	1	-1E+10	1	-1E+10	1	-1E+10	1	-1E+10	1
4902554	52	C	07/13/2022	17:06	-134.354	49.622	0	527.80	0	4.0330	0	34.1100	0	27.079	0	522.627	0	-1e10	8	-1e10	8	-1E+10	1	-1E+10	1	-1E+10	1	-1E+10	1	-1E+10	1	-1E+10	1
4902554	52	C	07/13/2022	17:06	-134.354	49.622	0	533.20	0	4.0240	0	34.1150	0	27.084	0	527.967	0	-1e10	8	-1e10	8	-1E+10	1	-1E+10	1	-1E+10	1	-1E+10	1	-1E+10	1	-1E+10	1
4902554	52	C	07/13/2022	17:06	-134.354	49.622	0	538.10	0	4.0150	0	34.1180	0	27.087	0	532.813	0	-1e10	8	-1e10	8	-1E+10	1	-1E+10	1	-1E+10	1	-1E+10	1	-1E+10	1	-1E+10	1
4902554	52	C	07/13/2022	17:06	-134.354	49.622	0	543.10	0	4.0060	0	34.1220	0	27.091	0	537.757	0	-1e10	8	-1e10	8	-1E+10	1	-1E+10	1	-1E+10	1	-1E+10	1	-1E+10	1	-1E+10	1
4902554	52	C	07/13/2022	17:06	-134.354	49.622	0	548.10	0	4.0020	0	34.1250	0	27.094	0	542.701	0	-1e10	8	-1e10	8	-1E+10	1	-1E+10	1	-1E+10	1	-1E+10	1	-1E+10	1	-1E+10	1
4902554	52	C	07/13/2022	17:06	-134.354	49.622	0	553.10	0	3.9920	0	34.1290	0	27.098	0	547.645	0	-1e10	8	-1e10	8	-1E+10	1	-1E+10	1	-1E+10	1	-1E+10	1	-1E+10	1	-1E+10	1
4902554	52	C	07/13/2022	17:06	-134.354	49.622	0	558.10	0	3.9860	0	34.1310	0	27.100	0	552.590	0	-1e10	8	-1e10	8	-1E+10	1	-1E+10	1	-1E+10	1	-1E+10	1	-1E+10	1	-1E+10	1
4902554	52	C	07/13/2022	17:06	-134.354	49.622	0	562.70	0	3.9750	0	34.1360	0	27.106	0	557.138	0	-1e10	8	-1e10	8	-1E+10	1	-1E+10	1	-1E+10	1	-1E+10	1	-1E+10	1	-1E+10	1
4902554	52	C	07/13/2022	17:06	-134.354	49.622	0	567.80	0	3.9620	0	34.1420	0	27.112	0	562.181	0	-1e10	8	-1e10	8	-1E+10	1	-1E+10	1	-1E+10	1	-1E+10	1	-1E+10	1	-1E+10	1
4902554	52	C	07/13/2022	17:06	-134.354	49.622	0	572.90	0	3.9550	0	34.1440	0	27.114	0	567.223	0	-1e10	8	-1e10	8	-1E+10	1	-1E+10	1	-1E+10	1	-1E+10	1	-1E+10	1	-1E+10	1
4902554	52	C	07/13/2022	17:06	-134.354	49.622	0	578.00	0	3.9460	0	34.1490	0	27.119	0	572.266	0	-1e10	8	-1e10	8	-1E+10	1	-1E+10	1	-1E+10	1	-1E+10	1	-1E+10	1	-1E+10	1
4902554	52	C	07/13/2022	17:06	-134.354	49.622	0	583.20	0	3.9330	0	34.1550	0	27.125	0	577.407	0	-1e10	8	-1e10	8	-1E+10	1	-1E+10	1	-1E+10	1	-1E+10	1	-1E+10	1	-1E+10	1
4902554	52	C	07/13/2022	17:06	-134.354	49.622	0	587.90	0	3.9280	0	34.1580	0	27.128	0	582.054	0	-1e10	8	-1e10	8	-1E+10	1	-1E+10	1	-1E+10	1	-1E+10	1	-1E+10	1	-1E+10	1
4902554	52	C	07/13/2022	17:06	-134.354	49.622	0	592.70	0	3.9240	0	34.1600	0	27.130	0	586.799	0	-1e10	8	-1e10	8	-1E+10	1	-1E+10	1	-1E+10	1	-1E+10	1	-1E+10	1	-1E+10	1
4902554	52	C	07/13/2022	17:06	-134.354	49.622	0	598.00	0	3.9160	0	34.1650	0	27.135	0	592.039	0	-1e10	8	-1e10	8	-1E+10	1	-1E+10	1	-1E+10	1	-1E+10	1	-1E+10	1	-1E+10	1
4902554	52	C	07/13/2022	17:06	-134.354	49.622	0	603.20	0	3.9090	0	34.1670	0	27.137	0	597.180	0	-1e10	8	-1e10	8	-1E+10	1	-1E+10	1	-1E+10	1	-1E+10	1	-1E+10	1	-1E+10	1
4902554	52	C	07/13/2022	17:06	-134.354	49.622	0	608.00	0	3.9040	0	34.1700	0	27.140	0	601.925	0	-1e10	8	-1e10	8	-1E+10	1	-1E+10	1	-1E+10	1	-1E+10	1	-1E+10	1	-1E+10	1
4902554	52	C	07/13/2022	17:06	-134.354	49.622	0	612.80	0	3.8900	0	34.1730	0	27.144	0	606.670	0	-1e10	8	-1e10	8	-1E+10	1	-1E+10	1	-1E+10	1	-1E+10	1	-1E+10	1	-1E+10	1
4902554	52	C	07/13/2022	17:06	-134.354	49.622	0	617.60	0	3.8790	0	34.1760	0	27.148	0	611.415	0	-1e10	8	-1e10	8	-1E+10	1	-1E+10	1	-1E+10	1	-1E+10	1	-1E+10	1	-1E+10	1
4902554	52	C	07/13/2022	17:06	-134.354	49.622	0	622.80	0	3.8650	0	34.1820	0	27.154	0	616.555	0	-1e10	8	-1e10	8	-1E+10	1	-1E+10	1	-1E+10	1	-1E+10	1	-1E+10	1	-1E+10	1
4902554	52	C	07/13/2022	17:06	-134.354	49.622	0	628.00	0	3.8560	0	34.1860	0	27.158	0	621.695	0	-1e10	8	-1e10	8	-1E+10	1	-1E+10	1	-1E+10	1	-1E+10	1	-1E+10	1	-1E+10	1
4902554	52	C	07/13/2022	17:06	-134.354	49.622	0	632.80	0	3.8450	0	34.1900	0	27.162	0	626.440	0	-1e10	8	-1e10	8	-1E+10	1	-1E+10	1	-1E+10	1	-1E+10	1	-1E+10	1	-1E+10	1
4902554	52	C	07/13/2022	17:06	-134.354	49.622	0	637.50	0	3.8380	0	34.1930	0	27.165	0	631.085	0	-1e10	8	-1e10	8	-1E+10	1	-1E+10	1	-1E+10	1	-1E+10	1	-1E+10	1	-1E+10	1
4902554	52	C	07/13/2022	17:06	-134.354	49.622	0	642.80	0	3.8260	0	34.1970	0	27.170	0	636.324	0	-1e10	8	-1e10	8	-1E+10	1	-1E+10	1	-1E+10	1	-1E+10	1	-1E+10	1	-1E+10	1
4902554	52	C	07/13/2022	17:06	-134.354	49.622	0	648.00	0	3.8170	0	34.2000	0	27.173	0	641.463	0	-1e10	8	-1e10	8	-1E+10	1	-1E+10	1	-1E+10	1	-1E+10	1	-1E+10	1	-1E+10	1
4902554	52	C	07/13/2022	17:06	-134.354	49.622	0	652.70	0	3.8010	0	34.2040	0	27.178	0	646.109	0	-1e10	8	-1e10	8	-1E+10	1	-1E+10	1	-1E+10	1	-1E+10	1	-1E+10	1	-1E+10	1
4902554	52	C	07/13/2022	17:06	-134.354	49.622	0	658.00	0	3.7820	0	34.2090	0	27.184	0	651.347	0	-1e10	8	-1e10	8	-1E+10	1	-1E+10	1	-1E+10	1	-1E+10	1	-1E+10	1	-1E+10	1
4902554	52	C	07/13/2022	17:06	-134.354	49.622	0	663.20	0	3.7700	0	34.2130	0	27.188	0	656.486	0	-1e10	8	-1e10	8	-1E+10	1	-1E+10	1	-1E+10	1	-1E+10	1	-1E+10	1	-1E+10	1
4902554	52	C	07/13/2022	17:06	-134.354	49.622	0	668.00	0	3.7600	0	34.2160	0	27.192	0	661.230	0	-1e10	8	-1e10	8	-1E+10	1	-1E+10	1	-1E+10	1	-1E+10	1	-1E+10	1	-1E+10	1
4902554	52	C	07/13/2022	17:06	-134.354	49.622	0	672.80	0	3.7500	0	34.2180	0	27.194	0	665.974	0	-1e10	8	-1e10	8	-1E+10	1	-1E+10	1	-1E+10	1	-1E+10	1	-1E+10	1	-1E+10	1
4902554	52	C	07/13/2022	17:06	-134.354	49.622	0	677.80	0	3.7370	0	34.2220	0	27.199	0	670.915	0	-1e10	8	-1e10	8	-1E+10	1	-1E+10	1	-1E+10	1	-1E+10	1	-1E+10	1	-1E+10	1
4902554	52	C	07/13/2022	17:06	-134.354	49.622	0	682.70	0	3.7300	0	34.2230	0	27.200	0	675.757	0	-1e10	8	-1e10	8	-1E+10	1	-1E+10	1	-1E+10	1	-1E+10	1	-1E+10	1	-1E+10	1
4902554	52	C	07/13/2022	17:06	-134.354	49.622	0	687.70	0	3.7150	0	34.2270	0	27.205	0	680.698	0	-1e10	8	-1e10	8	-1E+10	1	-1E+10	1	-1E+10	1	-1E+10	1	-1E+10	1	-1E+10	1
4902554	52	C	07/13/2022	17:06	-134.354	49.622	0	692.80	0	3.6980	0	34.2310	0	27.210	0	685.738	0	-1e10	8	-1e10	8	-1E+10	1	-1E+10	1	-1E+10	1	-1E+10	1	-1E+10	1	-1E+10	1
4902554	52	C	07/13/2022	17:06	-134.354	49.622	0	697.90	0	3.6880	0	34.2330	0	27.212	0	690.777	0	-1e10	8	-1e10	8	-1E+10	1	-1E+10	1	-1E+10	1	-1E+10	1	-1E+10	1	-1E+10	1
4902554	52	C	07/13/2022	17:06	-134.354	49.622	0	703.00	0	3.6770	0	34.2360	0	27.216	0	695.817	0	-1e10	8	-1e10	8	-1E+10	1	-1E+10	1	-1E+10	1	-1E+10	1	-1E+10	1	-1E+10	1
4902554	52	C	07/13/2022	17:06	-134.354	49.622	0	708.10	0	3.6660	0	34.2380	0	27.219	0	700.856	0	-1e10	8	-1e10	8	-1E+10	1	-1E+10	1	-1E+10	1	-1E+10	1	-1E+10	1	-1E+10	1
4902554	52	C	07/13/2022	17:06	-134.354	49.622	0	712.90	0	3.6520	0	34.2420	0	27.223	0	705.599	0	-1e10	8	-1e10	8	-1E+10	1	-1E+10	1	-1E+10	1	-1E+10	1	-1E+10	1	-1E+10	1
4902554	52	C	07/13/2022	17:06	-134.354	49.622	0	717.90	0	3.6420	0	34.2440	0	27.226	0	710.539	0	-1e10	8	-1e10	8	-1E+10	1	-1E+10	1	-1E+10	1	-1E+10	1	-1E+10	1	-1E+10	1
4902554	52	C	07/13/2022	17:06	-134.354	49.622	0	723.00	0	3.6270	0	34.2470	0	27.230	0	715.578	0	-1e10	8	-1e10	8	-1E+10	1	-1E+10	1	-1E+10	1	-1E+10	1	-1E+10	1	-1E+10	1
4902554	52	C	07/13/2022	17:06	-134.354	49.622	0	727.90	0	3.6160	0	34.2500	0	27.233	0	720.420	0	-1e10	8	-1e10	8	-1E+10	1	-1E+10	1	-1E+10	1	-1E+10	1	-1E+10	1	-1E+10	1
4902554	52	C	07/13/2022	17:06	-134.354	49.622	0	732.80	0	3.6050	0	34.2520	0	27.236	0	725.261	0	-1e10	8	-1e10	8	-1E+10	1	-1E+10	1	-1E+10	1	-1E+10	1	-1E+10	1	-1E+10	1
4902554	52	C	07/13/2022	17:06	-134.354	49.622	0	737.70	0	3.5920	0	34.2550	0	27.240	0	730.102	0	-1e10	8	-1e10	8	-1E+10	1	-1E+10	1	-1E+10	1	-1E+10	1	-1E+10	1	-1E+10	1
4902554	52	C	07/13/2022	17:06	-134.354	49.622	0	742.60	0	3.5820	0	34.2570	0	27.242	0	734.943	0	-1e10	8	-1e10	8	-1E+10	1	-1E+10	1	-1E+10	1	-1E+10	1	-1E+10	1	-1E+10	1
4902554	52	C	07/13/2022	17:06	-134.354	49.622	0	747.50	0	3.5700	0	34.2600	0	27.246	0	739.783	0	-1e10	8	-1e10	8	-1E+10	1	-1E+10	1	-1E+10	1	-1E+10	1	-1E+10	1	-1E+10	1
4902554	52	C	07/13/2022	17:06	-134.354	49.622	0	752.50	0	3.5610	0	34.2620	0	27.248	0	744.723	0	-1e10	8	-1e10	8	-1E+10	1	-1E+10	1	-1E+10	1	-1E+10	1	-1E+10	1	-1E+10	1
4902554	52	C	07/13/2022	17:06	-134.354	49.622	0	757.60	0	3.5540	0	34.2630	0	27.250	0	749.761	0	-1e10	8	-1e10	8	-1E+10	1	-1E+10	1	-1E+10	1	-1E+10	1	-1E+10	1	-1E+10	1
4902554	52	C	07/13/2022	17:06	-134.354	49.622	0	762.80	0	3.5490	0	34.2650	0	27.252	0	754.898	0	-1e10	8	-1e10	8	-1E+10	1	-1E+10	1	-1E+10	1	-1E+10	1	-1E+10	1	-1E+10	1
4902554	52	C	07/13/2022	17:06	-134.354	49.622	0	768.00	0	3.5410	0	34.2660	0	27.254	0	760.034	0	-1e10	8	-1e10	8	-1E+10	1	-1E+10	1	-1E+10	1	-1E+10	1	-1E+10	1	-1E+10	1
4902554	52	C	07/13/2022	17:06	-134.354	49.622	0	773.20	0	3.5290	0	34.2690	0	27.257	0	765.171	0	-1e10	8	-1e10	8	-1E+10	1	-1E+10	1	-1E+10	1	-1E+10	1	-1E+10	1	-1E+10	1
4902554	52	C	07/13/2022	17:06	-134.354	49.622	0	778.00	0	3.5230	0	34.2700	0	27.259	0	769.912	0	-1e10	8	-1e10	8	-1E+10	1	-1E+10	1	-1E+10	1	-1E+10	1	-1E+10	1	-1E+10	1
4902554	52	C	07/13/2022	17:06	-134.354	49.622	0	782.90	0	3.5130	0	34.2730	0	27.262	0	774.752	0	-1e10	8	-1e10	8	-1E+10	1	-1E+10	1	-1E+10	1	-1E+10	1	-1E+10	1	-1E+10	1
4902554	52	C	07/13/2022	17:06	-134.354	49.622	0	788.10	0	3.4980	0	34.2760	0	27.266	0	779.888	0	-1e10	8	-1e10	8	-1E+10	1	-1E+10	1	-1E+10	1	-1E+10	1	-1E+10	1	-1E+10	1
4902554	52	C	07/13/2022	17:06	-134.354	49.622	0	793.10	0	3.4820	0	34.2800	0	27.271	0	784.827	0	-1e10	8	-1e10	8	-1E+10	1	-1E+10	1	-1E+10	1	-1E+10	1	-1E+10	1	-1E+10	1
4902554	52	C	07/13/2022	17:06	-134.354	49.622	0	798.10	0	3.4680	0	34.2820	0	27.274	0	789.765	0	-1e10	8	-1e10	8	-1E+10	1	-1E+10	1	-1E+10	1	-1E+10	1	-1E+10	1	-1E+10	1
4902554	52	C	07/13/2022	17:06	-134.354	49.622	0	803.10	0	3.4590	0	34.2850	0	27.277	0	794.704	0	-1e10	8	-1e10	8	-1E+10	1	-1E+10	1	-1E+10	1	-1E+10	1	-1E+10	1	-1E+10	1
4902554	52	C	07/13/2022	17:06	-134.354	49.622	0	808.10	0	3.4520	0	34.2860	0	27.278	0	799.642	0	-1e10	8	-1e10	8	-1E+10	1	-1E+10	1	-1E+10	1	-1E+10	1	-1E+10	1	-1E+10	1
4902554	52	C	07/13/2022	17:06	-134.354	49.622	0	813.10	0	3.4420	0	34.2880	0	27.281	0	804.580	0	-1e10	8	-1e10	8	-1E+10	1	-1E+10	1	-1E+10	1	-1E+10	1	-1E+10	1	-1E+10	1
4902554	52	C	07/13/2022	17:06	-134.354	49.622	0	817.80	0	3.4350	0	34.2880	0	27.282	0	809.221	0	-1e10	8	-1e10	8	-1E+10	1	-1E+10	1	-1E+10	1	-1E+10	1	-1E+10	1	-1E+10	1
4902554	52	C	07/13/2022	17:06	-134.354	49.622	0	823.00	0	3.4140	0	34.2890	0	27.284	0	814.357	0	-1e10	8	-1e10	8	-1E+10	1	-1E+10	1	-1E+10	1	-1E+10	1	-1E+10	1	-1E+10	1
4902554	52	C	07/13/2022	17:06	-134.354	49.622	0	828.20	0	3.4020	0	34.2900	0	27.286	0	819.492	0	-1e10	8	-1e10	8	-1E+10	1	-1E+10	1	-1E+10	1	-1E+10	1	-1E+10	1	-1E+10	1
4902554	52	C	07/13/2022	17:06	-134.354	49.622	0	832.80	0	3.3940	0	34.2920	0	27.289	0	824.034	0	-1e10	8	-1e10	8	-1E+10	1	-1E+10	1	-1E+10	1	-1E+10	1	-1E+10	1	-1E+10	1
4902554	52	C	07/13/2022	17:06	-134.354	49.622	0	837.90	0	3.3890	0	34.2940	0	27.291	0	829.071	0	-1e10	8	-1e10	8	-1E+10	1	-1E+10	1	-1E+10	1	-1E+10	1	-1E+10	1	-1E+10	1
4902554	52	C	07/13/2022	17:06	-134.354	49.622	0	843.00	0	3.3790	0	34.2970	0	27.294	0	834.107	0	-1e10	8	-1e10	8	-1E+10	1	-1E+10	1	-1E+10	1	-1E+10	1	-1E+10	1	-1E+10	1
4902554	52	C	07/13/2022	17:06	-134.354	49.622	0	848.00	0	3.3660	0	34.2990	0	27.297	0	839.044	0	-1e10	8	-1e10	8	-1E+10	1	-1E+10	1	-1E+10	1	-1E+10	1	-1E+10	1	-1E+10	1
4902554	52	C	07/13/2022	17:06	-134.354	49.622	0	853.10	0	3.3500	0	34.3010	0	27.300	0	844.080	0	-1e10	8	-1e10	8	-1E+10	1	-1E+10	1	-1E+10	1	-1E+10	1	-1E+10	1	-1E+10	1
4902554	52	C	07/13/2022	17:06	-134.354	49.622	0	857.80	0	3.3350	0	34.3030	0	27.303	0	848.721	0	-1e10	8	-1e10	8	-1E+10	1	-1E+10	1	-1E+10	1	-1E+10	1	-1E+10	1	-1E+10	1
4902554	52	C	07/13/2022	17:06	-134.354	49.622	0	862.60	0	3.3220	0	34.3060	0	27.307	0	853.460	0	-1e10	8	-1e10	8	-1E+10	1	-1E+10	1	-1E+10	1	-1E+10	1	-1E+10	1	-1E+10	1
4902554	52	C	07/13/2022	17:06	-134.354	49.622	0	867.90	0	3.3100	0	34.3090	0	27.310	0	858.693	0	-1e10	8	-1e10	8	-1E+10	1	-1E+10	1	-1E+10	1	-1E+10	1	-1E+10	1	-1E+10	1
4902554	52	C	07/13/2022	17:06	-134.354	49.622	0	873.30	0	3.3050	0	34.3100	0	27.312	0	864.025	0	-1e10	8	-1e10	8	-1E+10	1	-1E+10	1	-1E+10	1	-1E+10	1	-1E+10	1	-1E+10	1
4902554	52	C	07/13/2022	17:06	-134.354	49.622	0	878.10	0	3.2950	0	34.3130	0	27.315	0	868.764	0	-1e10	8	-1e10	8	-1E+10	1	-1E+10	1	-1E+10	1	-1E+10	1	-1E+10	1	-1E+10	1
4902554	52	C	07/13/2022	17:06	-134.354	49.622	0	882.80	0	3.2880	0	34.3150	0	27.317	0	873.404	0	-1e10	8	-1e10	8	-1E+10	1	-1E+10	1	-1E+10	1	-1E+10	1	-1E+10	1	-1E+10	1
4902554	52	C	07/13/2022	17:06	-134.354	49.622	0	887.70	0	3.2830	0	34.3160	0	27.319	0	878.241	0	-1e10	8	-1e10	8	-1E+10	1	-1E+10	1	-1E+10	1	-1E+10	1	-1E+10	1	-1E+10	1
4902554	52	C	07/13/2022	17:06	-134.354	49.622	0	892.80	0	3.2770	0	34.3170	0	27.320	0	883.276	0	-1e10	8	-1e10	8	-1E+10	1	-1E+10	1	-1E+10	1	-1E+10	1	-1E+10	1	-1E+10	1
4902554	52	C	07/13/2022	17:06	-134.354	49.622	0	898.10	0	3.2720	0	34.3180	0	27.321	0	888.508	0	-1e10	8	-1e10	8	-1E+10	1	-1E+10	1	-1E+10	1	-1E+10	1	-1E+10	1	-1E+10	1
4902554	52	C	07/13/2022	17:06	-134.354	49.622	0	903.10	0	3.2580	0	34.3200	0	27.324	0	893.444	0	-1e10	8	-1e10	8	-1E+10	1	-1E+10	1	-1E+10	1	-1E+10	1	-1E+10	1	-1E+10	1
4902554	52	C	07/13/2022	17:06	-134.354	49.622	0	908.20	0	3.2410	0	34.3240	0	27.329	0	898.479	0	-1e10	8	-1e10	8	-1E+10	1	-1E+10	1	-1E+10	1	-1E+10	1	-1E+10	1	-1E+10	1
4902554	52	C	07/13/2022	17:06	-134.354	49.622	0	913.00	0	3.2290	0	34.3260	0	27.332	0	903.217	0	-1e10	8	-1e10	8	-1E+10	1	-1E+10	1	-1E+10	1	-1E+10	1	-1E+10	1	-1E+10	1
4902554	52	C	07/13/2022	17:06	-134.354	49.622	0	917.80	0	3.2120	0	34.3280	0	27.335	0	907.955	0	-1e10	8	-1e10	8	-1E+10	1	-1E+10	1	-1E+10	1	-1E+10	1	-1E+10	1	-1E+10	1
4902554	52	C	07/13/2022	17:06	-134.354	49.622	0	922.80	0	3.2050	0	34.3300	0	27.337	0	912.891	0	-1e10	8	-1e10	8	-1E+10	1	-1E+10	1	-1E+10	1	-1E+10	1	-1E+10	1	-1E+10	1
4902554	52	C	07/13/2022	17:06	-134.354	49.622	0	927.90	0	3.2010	0	34.3330	0	27.340	0	917.925	0	-1e10	8	-1e10	8	-1E+10	1	-1E+10	1	-1E+10	1	-1E+10	1	-1E+10	1	-1E+10	1
4902554	52	C	07/13/2022	17:06	-134.354	49.622	0	933.00	0	3.1930	0	34.3360	0	27.343	0	922.959	0	-1e10	8	-1e10	8	-1E+10	1	-1E+10	1	-1E+10	1	-1E+10	1	-1E+10	1	-1E+10	1
4902554	52	C	07/13/2022	17:06	-134.354	49.622	0	937.80	0	3.1810	0	34.3380	0	27.346	0	927.697	0	-1e10	8	-1e10	8	-1E+10	1	-1E+10	1	-1E+10	1	-1E+10	1	-1E+10	1	-1E+10	1
4902554	52	C	07/13/2022	17:06	-134.354	49.622	0	943.00	0	3.1660	0	34.3400	0	27.349	0	932.829	0	-1e10	8	-1e10	8	-1E+10	1	-1E+10	1	-1E+10	1	-1E+10	1	-1E+10	1	-1E+10	1
4902554	52	C	07/13/2022	17:06	-134.354	49.622	0	948.20	0	3.1540	0	34.3430	0	27.353	0	937.961	0	-1e10	8	-1e10	8	-1E+10	1	-1E+10	1	-1E+10	1	-1E+10	1	-1E+10	1	-1E+10	1
4902554	52	C	07/13/2022	17:06	-134.354	49.622	0	952.90	0	3.1490	0	34.3440	0	27.354	0	942.600	0	-1e10	8	-1e10	8	-1E+10	1	-1E+10	1	-1E+10	1	-1E+10	1	-1E+10	1	-1E+10	1
4902554	52	C	07/13/2022	17:06	-134.354	49.622	0	957.60	0	3.1460	0	34.3450	0	27.355	0	947.238	0	-1e10	8	-1e10	8	-1E+10	1	-1E+10	1	-1E+10	1	-1E+10	1	-1E+10	1	-1E+10	1
4902554	52	C	07/13/2022	17:06	-134.354	49.622	0	962.90	0	3.1440	0	34.3450	0	27.355	0	952.469	0	-1e10	8	-1e10	8	-1E+10	1	-1E+10	1	-1E+10	1	-1E+10	1	-1E+10	1	-1E+10	1
4902554	52	C	07/13/2022	17:06	-134.354	49.622	0	968.10	0	3.1410	0	34.3460	0	27.356	0	957.601	0	-1e10	8	-1e10	8	-1E+10	1	-1E+10	1	-1E+10	1	-1E+10	1	-1E+10	1	-1E+10	1
4902554	52	C	07/13/2022	17:06	-134.354	49.622	0	972.80	0	3.1320	0	34.3470	0	27.358	0	962.239	0	-1e10	8	-1e10	8	-1E+10	1	-1E+10	1	-1E+10	1	-1E+10	1	-1E+10	1	-1E+10	1
4902554	52	C	07/13/2022	17:06	-134.354	49.622	0	978.00	0	3.1220	0	34.3490	0	27.360	0	967.371	0	-1e10	8	-1e10	8	-1E+10	1	-1E+10	1	-1E+10	1	-1E+10	1	-1E+10	1	-1E+10	1
4902554	52	C	07/13/2022	17:06	-134.354	49.622	0	983.20	0	3.1070	0	34.3510	0	27.363	0	972.502	0	-1e10	8	-1e10	8	-1E+10	1	-1E+10	1	-1E+10	1	-1E+10	1	-1E+10	1	-1E+10	1
4902554	52	C	07/13/2022	17:06	-134.354	49.622	0	987.90	0	3.0970	0	34.3530	0	27.366	0	977.140	0	-1e10	8	-1e10	8	-1E+10	1	-1E+10	1	-1E+10	1	-1E+10	1	-1E+10	1	-1E+10	1
4902554	52	C	07/13/2022	17:06	-134.354	49.622	0	992.60	0	3.0870	0	34.3560	0	27.369	0	981.778	0	-1e10	8	-1e10	8	-1E+10	1	-1E+10	1	-1E+10	1	-1E+10	1	-1E+10	1	-1E+10	1
4902554	52	C	07/13/2022	17:06	-134.354	49.622	0	997.80	0	3.0730	0	34.3590	0	27.373	0	986.909	0	-1e10	8	-1e10	8	-1E+10	1	-1E+10	1	-1E+10	1	-1E+10	1	-1E+10	1	-1E+10	1
4902554	52	C	07/13/2022	17:06	-134.354	49.622	0	1005.70	0	3.0640	0	34.3610	0	27.375	0	994.704	0	-1e10	8	-1e10	8	-1E+10	1	-1E+10	1	-1E+10	1	-1E+10	1	-1E+10	1	-1E+10	1
4902554	52	C	07/13/2022	17:06	-134.354	49.622	0	1015.50	0	3.0480	0	34.3640	0	27.379	0	1004.373	0	-1e10	8	-1e10	8	-1E+10	1	-1E+10	1	-1E+10	1	-1E+10	1	-1E+10	1	-1E+10	1
4902554	52	C	07/13/2022	17:06	-134.354	49.622	0	1025.30	0	3.0350	0	34.3670	0	27.383	0	1014.042	0	-1e10	8	-1e10	8	-1E+10	1	-1E+10	1	-1E+10	1	-1E+10	1	-1E+10	1	-1E+10	1
4902554	52	C	07/13/2022	17:06	-134.354	49.622	0	1035.60	0	3.0210	0	34.3700	0	27.387	0	1024.204	0	-1e10	8	-1e10	8	-1E+10	1	-1E+10	1	-1E+10	1	-1E+10	1	-1E+10	1	-1E+10	1
4902554	52	C	07/13/2022	17:06	-134.354	49.622	0	1045.50	0	3.0030	0	34.3740	0	27.392	0	1033.971	0	-1e10	8	-1e10	8	-1E+10	1	-1E+10	1	-1E+10	1	-1E+10	1	-1E+10	1	-1E+10	1
4902554	52	C	07/13/2022	17:06	-134.354	49.622	0	1055.20	0	2.9840	0	34.3780	0	27.397	0	1043.539	0	-1e10	8	-1e10	8	-1E+10	1	-1E+10	1	-1E+10	1	-1E+10	1	-1E+10	1	-1E+10	1
4902554	52	C	07/13/2022	17:06	-134.354	49.622	0	1065.20	0	2.9670	0	34.3820	0	27.401	0	1053.404	0	-1e10	8	-1e10	8	-1E+10	1	-1E+10	1	-1E+10	1	-1E+10	1	-1E+10	1	-1E+10	1
4902554	52	C	07/13/2022	17:06	-134.354	49.622	0	1075.30	0	2.9460	0	34.3870	0	27.407	0	1063.367	0	-1e10	8	-1e10	8	-1E+10	1	-1E+10	1	-1E+10	1	-1E+10	1	-1E+10	1	-1E+10	1
4902554	52	C	07/13/2022	17:06	-134.354	49.622	0	1085.40	0	2.9310	0	34.3910	0	27.412	0	1073.329	0	-1e10	8	-1e10	8	-1E+10	1	-1E+10	1	-1E+10	1	-1E+10	1	-1E+10	1	-1E+10	1
4902554	52	C	07/13/2022	17:06	-134.354	49.622	0	1095.50	0	2.9140	0	34.3950	0	27.417	0	1083.290	0	-1e10	8	-1e10	8	-1E+10	1	-1E+10	1	-1E+10	1	-1E+10	1	-1E+10	1	-1E+10	1
4902554	52	C	07/13/2022	17:06	-134.354	49.622	0	1105.60	0	2.8990	0	34.3980	0	27.420	0	1093.251	0	-1e10	8	-1e10	8	-1E+10	1	-1E+10	1	-1E+10	1	-1E+10	1	-1E+10	1	-1E+10	1
4902554	52	C	07/13/2022	17:06	-134.354	49.622	0	1115.60	0	2.8830	0	34.4020	0	27.425	0	1103.113	0	-1e10	8	-1e10	8	-1E+10	1	-1E+10	1	-1E+10	1	-1E+10	1	-1E+10	1	-1E+10	1
4902554	52	C	07/13/2022	17:06	-134.354	49.622	0	1125.60	0	2.8660	0	34.4060	0	27.430	0	1112.975	0	-1e10	8	-1e10	8	-1E+10	1	-1E+10	1	-1E+10	1	-1E+10	1	-1E+10	1	-1E+10	1
4902554	52	C	07/13/2022	17:06	-134.354	49.622	0	1135.70	0	2.8530	0	34.4080	0	27.433	0	1122.935	0	-1e10	8	-1e10	8	-1E+10	1	-1E+10	1	-1E+10	1	-1E+10	1	-1E+10	1	-1E+10	1
4902554	52	C	07/13/2022	17:06	-134.354	49.622	0	1145.40	0	2.8390	0	34.4110	0	27.436	0	1132.500	0	-1e10	8	-1e10	8	-1E+10	1	-1E+10	1	-1E+10	1	-1E+10	1	-1E+10	1	-1E+10	1
4902554	52	C	07/13/2022	17:06	-134.354	49.622	0	1155.20	0	2.8200	0	34.4150	0	27.441	0	1142.163	0	-1e10	8	-1e10	8	-1E+10	1	-1E+10	1	-1E+10	1	-1E+10	1	-1E+10	1	-1E+10	1
4902554	52	C	07/13/2022	17:06	-134.354	49.622	0	1165.60	0	2.7990	0	34.4190	0	27.446	0	1152.417	0	-1e10	8	-1e10	8	-1E+10	1	-1E+10	1	-1E+10	1	-1E+10	1	-1E+10	1	-1E+10	1
4902554	52	C	07/13/2022	17:06	-134.354	49.622	0	1175.60	0	2.7850	0	34.4220	0	27.450	0	1162.276	0	-1e10	8	-1e10	8	-1E+10	1	-1E+10	1	-1E+10	1	-1E+10	1	-1E+10	1	-1E+10	1
4902554	52	C	07/13/2022	17:06	-134.354	49.622	0	1185.30	0	2.7680	0	34.4250	0	27.454	0	1171.839	0	-1e10	8	-1e10	8	-1E+10	1	-1E+10	1	-1E+10	1	-1E+10	1	-1E+10	1	-1E+10	1
4902554	52	C	07/13/2022	17:06	-134.354	49.622	0	1195.30	0	2.7460	0	34.4290	0	27.459	0	1181.697	0	-1e10	8	-1e10	8	-1E+10	1	-1E+10	1	-1E+10	1	-1E+10	1	-1E+10	1	-1E+10	1
4902554	52	C	07/13/2022	17:06	-134.354	49.622	0	1205.40	0	2.7280	0	34.4320	0	27.463	0	1191.654	0	-1e10	8	-1e10	8	-1E+10	1	-1E+10	1	-1E+10	1	-1E+10	1	-1E+10	1	-1E+10	1
4902554	52	C	07/13/2022	17:06	-134.354	49.622	0	1215.40	0	2.7080	0	34.4360	0	27.468	0	1201.511	0	-1e10	8	-1e10	8	-1E+10	1	-1E+10	1	-1E+10	1	-1E+10	1	-1E+10	1	-1E+10	1
4902554	52	C	07/13/2022	17:06	-134.354	49.622	0	1225.50	0	2.6970	0	34.4380	0	27.471	0	1211.467	0	-1e10	8	-1e10	8	-1E+10	1	-1E+10	1	-1E+10	1	-1E+10	1	-1E+10	1	-1E+10	1
4902554	52	C	07/13/2022	17:06	-134.354	49.622	0	1235.40	0	2.6900	0	34.4390	0	27.472	0	1221.225	0	-1e10	8	-1e10	8	-1E+10	1	-1E+10	1	-1E+10	1	-1E+10	1	-1E+10	1	-1E+10	1
4902554	52	C	07/13/2022	17:06	-134.354	49.622	0	1245.30	0	2.6840	0	34.4400	0	27.474	0	1230.982	0	-1e10	8	-1e10	8	-1E+10	1	-1E+10	1	-1E+10	1	-1E+10	1	-1E+10	1	-1E+10	1
4902554	52	C	07/13/2022	17:06	-134.354	49.622	0	1255.40	0	2.6680	0	34.4430	0	27.477	0	1240.936	0	-1e10	8	-1e10	8	-1E+10	1	-1E+10	1	-1E+10	1	-1E+10	1	-1E+10	1	-1E+10	1
4902554	52	C	07/13/2022	17:06	-134.354	49.622	0	1265.70	0	2.6600	0	34.4440	0	27.479	0	1251.087	0	-1e10	8	-1e10	8	-1E+10	1	-1E+10	1	-1E+10	1	-1E+10	1	-1E+10	1	-1E+10	1
4902554	52	C	07/13/2022	17:06	-134.354	49.622	0	1275.70	0	2.6410	0	34.4480	0	27.484	0	1260.942	0	-1e10	8	-1e10	8	-1E+10	1	-1E+10	1	-1E+10	1	-1E+10	1	-1E+10	1	-1E+10	1
4902554	52	C	07/13/2022	17:06	-134.354	49.622	0	1285.30	0	2.6290	0	34.4500	0	27.487	0	1270.402	0	-1e10	8	-1e10	8	-1E+10	1	-1E+10	1	-1E+10	1	-1E+10	1	-1E+10	1	-1E+10	1
4902554	52	C	07/13/2022	17:06	-134.354	49.622	0	1295.30	0	2.6170	0	34.4520	0	27.489	0	1280.255	0	-1e10	8	-1e10	8	-1E+10	1	-1E+10	1	-1E+10	1	-1E+10	1	-1E+10	1	-1E+10	1
4902554	52	C	07/13/2022	17:06	-134.354	49.622	0	1305.10	0	2.6010	0	34.4550	0	27.493	0	1289.911	0	-1e10	8	-1e10	8	-1E+10	1	-1E+10	1	-1E+10	1	-1E+10	1	-1E+10	1	-1E+10	1
4902554	52	C	07/13/2022	17:06	-134.354	49.622	0	1315.00	0	2.5860	0	34.4570	0	27.496	0	1299.666	0	-1e10	8	-1e10	8	-1E+10	1	-1E+10	1	-1E+10	1	-1E+10	1	-1E+10	1	-1E+10	1
4902554	52	C	07/13/2022	17:06	-134.354	49.622	0	1325.10	0	2.5750	0	34.4590	0	27.499	0	1309.617	0	-1e10	8	-1e10	8	-1E+10	1	-1E+10	1	-1E+10	1	-1E+10	1	-1E+10	1	-1E+10	1
4902554	52	C	07/13/2022	17:06	-134.354	49.622	0	1335.20	0	2.5620	0	34.4610	0	27.501	0	1319.567	0	-1e10	8	-1e10	8	-1E+10	1	-1E+10	1	-1E+10	1	-1E+10	1	-1E+10	1	-1E+10	1
4902554	52	C	07/13/2022	17:06	-134.354	49.622	0	1345.30	0	2.5470	0	34.4640	0	27.505	0	1329.517	0	-1e10	8	-1e10	8	-1E+10	1	-1E+10	1	-1E+10	1	-1E+10	1	-1E+10	1	-1E+10	1
4902554	52	C	07/13/2022	17:06	-134.354	49.622	0	1355.60	0	2.5300	0	34.4670	0	27.509	0	1339.663	0	-1e10	8	-1e10	8	-1E+10	1	-1E+10	1	-1E+10	1	-1E+10	1	-1E+10	1	-1E+10	1
4902554	52	C	07/13/2022	17:06	-134.354	49.622	0	1365.60	0	2.5180	0	34.4690	0	27.512	0	1349.514	0	-1e10	8	-1e10	8	-1E+10	1	-1E+10	1	-1E+10	1	-1E+10	1	-1E+10	1	-1E+10	1
4902554	52	C	07/13/2022	17:06	-134.354	49.622	0	1375.30	0	2.5070	0	34.4710	0	27.514	0	1359.068	0	-1e10	8	-1e10	8	-1E+10	1	-1E+10	1	-1E+10	1	-1E+10	1	-1E+10	1	-1E+10	1
4902554	52	C	07/13/2022	17:06	-134.354	49.622	0	1385.40	0	2.4930	0	34.4740	0	27.518	0	1369.016	0	-1e10	8	-1e10	8	-1E+10	1	-1E+10	1	-1E+10	1	-1E+10	1	-1E+10	1	-1E+10	1
4902554	52	C	07/13/2022	17:06	-134.354	49.622	0	1395.30	0	2.4800	0	34.4770	0	27.521	0	1378.767	0	-1e10	8	-1e10	8	-1E+10	1	-1E+10	1	-1E+10	1	-1E+10	1	-1E+10	1	-1E+10	1
4902554	52	C	07/13/2022	17:06	-134.354	49.622	0	1405.20	0	2.4650	0	34.4800	0	27.525	0	1388.517	0	-1e10	8	-1e10	8	-1E+10	1	-1E+10	1	-1E+10	1	-1E+10	1	-1E+10	1	-1E+10	1
4902554	52	C	07/13/2022	17:06	-134.354	49.622	0	1415.30	0	2.4520	0	34.4820	0	27.528	0	1398.464	0	-1e10	8	-1e10	8	-1E+10	1	-1E+10	1	-1E+10	1	-1E+10	1	-1E+10	1	-1E+10	1
4902554	52	C	07/13/2022	17:06	-134.354	49.622	0	1425.40	0	2.4460	0	34.4840	0	27.530	0	1408.410	0	-1e10	8	-1e10	8	-1E+10	1	-1E+10	1	-1E+10	1	-1E+10	1	-1E+10	1	-1E+10	1
4902554	52	C	07/13/2022	17:06	-134.354	49.622	0	1435.70	0	2.4310	0	34.4870	0	27.534	0	1418.552	0	-1e10	8	-1e10	8	-1E+10	1	-1E+10	1	-1E+10	1	-1E+10	1	-1E+10	1	-1E+10	1
4902554	52	C	07/13/2022	17:06	-134.354	49.622	0	1445.60	0	2.4160	0	34.4900	0	27.537	0	1428.301	0	-1e10	8	-1e10	8	-1E+10	1	-1E+10	1	-1E+10	1	-1E+10	1	-1E+10	1	-1E+10	1
4902554	52	C	07/13/2022	17:06	-134.354	49.622	0	1455.60	0	2.4100	0	34.4910	0	27.539	0	1438.147	0	-1e10	8	-1e10	8	-1E+10	1	-1E+10	1	-1E+10	1	-1E+10	1	-1E+10	1	-1E+10	1
4902554	52	C	07/13/2022	17:06	-134.354	49.622	0	1465.30	0	2.4000	0	34.4930	0	27.541	0	1447.698	0	-1e10	8	-1e10	8	-1E+10	1	-1E+10	1	-1E+10	1	-1E+10	1	-1E+10	1	-1E+10	1
4902554	52	C	07/13/2022	17:06	-134.354	49.622	0	1475.30	0	2.3840	0	34.4960	0	27.545	0	1457.543	0	-1e10	8	-1e10	8	-1E+10	1	-1E+10	1	-1E+10	1	-1E+10	1	-1E+10	1	-1E+10	1
4902554	52	C	07/13/2022	17:06	-134.354	49.622	0	1485.50	0	2.3720	0	34.4990	0	27.548	0	1467.585	0	-1e10	8	-1e10	8	-1E+10	1	-1E+10	1	-1E+10	1	-1E+10	1	-1E+10	1	-1E+10	1
4902554	52	C	07/13/2022	17:06	-134.354	49.622	0	1495.40	0	2.3620	0	34.5010	0	27.551	0	1477.331	0	-1e10	8	-1e10	8	-1E+10	1	-1E+10	1	-1E+10	1	-1E+10	1	-1E+10	1	-1E+10	1
4902554	52	C	07/13/2022	17:06	-134.354	49.622	0	1505.30	0	2.3490	0	34.5040	0	27.554	0	1487.076	0	-1e10	8	-1e10	8	-1E+10	1	-1E+10	1	-1E+10	1	-1E+10	1	-1E+10	1	-1E+10	1
4902554	52	C	07/13/2022	17:06	-134.354	49.622	0	1515.30	0	2.3380	0	34.5060	0	27.557	0	1496.920	0	-1e10	8	-1e10	8	-1E+10	1	-1E+10	1	-1E+10	1	-1E+10	1	-1E+10	1	-1E+10	1
4902554	52	C	07/13/2022	17:06	-134.354	49.622	0	1525.20	0	2.3270	0	34.5080	0	27.559	0	1506.664	0	-1e10	8	-1e10	8	-1E+10	1	-1E+10	1	-1E+10	1	-1E+10	1	-1E+10	1	-1E+10	1
4902554	52	C	07/13/2022	17:06	-134.354	49.622	0	1535.20	0	2.3150	0	34.5110	0	27.563	0	1516.507	0	-1e10	8	-1e10	8	-1E+10	1	-1E+10	1	-1E+10	1	-1E+10	1	-1E+10	1	-1E+10	1
4902554	52	C	07/13/2022	17:06	-134.354	49.622	0	1545.30	0	2.3000	0	34.5130	0	27.566	0	1526.448	0	-1e10	8	-1e10	8	-1E+10	1	-1E+10	1	-1E+10	1	-1E+10	1	-1E+10	1	-1E+10	1
4902554	52	C	07/13/2022	17:06	-134.354	49.622	0	1555.40	0	2.2870	0	34.5160	0	27.569	0	1536.388	0	-1e10	8	-1e10	8	-1E+10	1	-1E+10	1	-1E+10	1	-1E+10	1	-1E+10	1	-1E+10	1
4902554	52	C	07/13/2022	17:06	-134.354	49.622	0	1565.50	0	2.2780	0	34.5180	0	27.572	0	1546.328	0	-1e10	8	-1e10	8	-1E+10	1	-1E+10	1	-1E+10	1	-1E+10	1	-1E+10	1	-1E+10	1
4902554	52	C	07/13/2022	17:06	-134.354	49.622	0	1575.80	0	2.2690	0	34.5200	0	27.574	0	1556.464	0	-1e10	8	-1e10	8	-1E+10	1	-1E+10	1	-1E+10	1	-1E+10	1	-1E+10	1	-1E+10	1
4902554	52	C	07/13/2022	17:06	-134.354	49.622	0	1585.70	0	2.2610	0	34.5210	0	27.576	0	1566.205	0	-1e10	8	-1e10	8	-1E+10	1	-1E+10	1	-1E+10	1	-1E+10	1	-1E+10	1	-1E+10	1
4902554	52	C	07/13/2022	17:06	-134.354	49.622	0	1595.60	0	2.2480	0	34.5240	0	27.579	0	1575.947	0	-1e10	8	-1e10	8	-1E+10	1	-1E+10	1	-1E+10	1	-1E+10	1	-1E+10	1	-1E+10	1
4902554	52	C	07/13/2022	17:06	-134.354	49.622	0	1605.60	0	2.2390	0	34.5260	0	27.581	0	1585.786	0	-1e10	8	-1e10	8	-1E+10	1	-1E+10	1	-1E+10	1	-1E+10	1	-1E+10	1	-1E+10	1
4902554	52	C	07/13/2022	17:06	-134.354	49.622	0	1615.40	0	2.2240	0	34.5290	0	27.585	0	1595.428	0	-1e10	8	-1e10	8	-1E+10	1	-1E+10	1	-1E+10	1	-1E+10	1	-1E+10	1	-1E+10	1
4902554	52	C	07/13/2022	17:06	-134.354	49.622	0	1625.10	0	2.2170	0	34.5300	0	27.587	0	1604.972	0	-1e10	8	-1e10	8	-1E+10	1	-1E+10	1	-1E+10	1	-1E+10	1	-1E+10	1	-1E+10	1
4902554	52	C	07/13/2022	17:06	-134.354	49.622	0	1635.00	0	2.2050	0	34.5320	0	27.589	0	1614.711	0	-1e10	8	-1e10	8	-1E+10	1	-1E+10	1	-1E+10	1	-1E+10	1	-1E+10	1	-1E+10	1
4902554	52	C	07/13/2022	17:06	-134.354	49.622	0	1645.10	0	2.1980	0	34.5340	0	27.591	0	1624.647	0	-1e10	8	-1e10	8	-1E+10	1	-1E+10	1	-1E+10	1	-1E+10	1	-1E+10	1	-1E+10	1
4902554	52	C	07/13/2022	17:06	-134.354	49.622	0	1655.50	0	2.1920	0	34.5350	0	27.593	0	1634.878	0	-1e10	8	-1e10	8	-1E+10	1	-1E+10	1	-1E+10	1	-1E+10	1	-1E+10	1	-1E+10	1
4902554	52	C	07/13/2022	17:06	-134.354	49.622	0	1665.70	0	2.1810	0	34.5370	0	27.595	0	1644.911	0	-1e10	8	-1e10	8	-1E+10	1	-1E+10	1	-1E+10	1	-1E+10	1	-1E+10	1	-1E+10	1
4902554	52	C	07/13/2022	17:06	-134.354	49.622	0	1675.70	0	2.1760	0	34.5380	0	27.596	0	1654.748	0	-1e10	8	-1e10	8	-1E+10	1	-1E+10	1	-1E+10	1	-1E+10	1	-1E+10	1	-1E+10	1
4902554	52	C	07/13/2022	17:06	-134.354	49.622	0	1685.30	0	2.1700	0	34.5390	0	27.598	0	1664.190	0	-1e10	8	-1e10	8	-1E+10	1	-1E+10	1	-1E+10	1	-1E+10	1	-1E+10	1	-1E+10	1
4902554	52	C	07/13/2022	17:06	-134.354	49.622	0	1695.00	0	2.1630	0	34.5410	0	27.600	0	1673.730	0	-1e10	8	-1e10	8	-1E+10	1	-1E+10	1	-1E+10	1	-1E+10	1	-1E+10	1	-1E+10	1
4902554	52	C	07/13/2022	17:06	-134.354	49.622	0	1705.40	0	2.1550	0	34.5430	0	27.602	0	1683.958	0	-1e10	8	-1e10	8	-1E+10	1	-1E+10	1	-1E+10	1	-1E+10	1	-1E+10	1	-1E+10	1
4902554	52	C	07/13/2022	17:06	-134.354	49.622	0	1715.40	0	2.1440	0	34.5450	0	27.605	0	1693.793	0	-1e10	8	-1e10	8	-1E+10	1	-1E+10	1	-1E+10	1	-1E+10	1	-1E+10	1	-1E+10	1
4902554	52	C	07/13/2022	17:06	-134.354	49.622	0	1725.30	0	2.1360	0	34.5460	0	27.606	0	1703.528	0	-1e10	8	-1e10	8	-1E+10	1	-1E+10	1	-1E+10	1	-1E+10	1	-1E+10	1	-1E+10	1
4902554	52	C	07/13/2022	17:06	-134.354	49.622	0	1735.20	0	2.1280	0	34.5480	0	27.609	0	1713.263	0	-1e10	8	-1e10	8	-1E+10	1	-1E+10	1	-1E+10	1	-1E+10	1	-1E+10	1	-1E+10	1
4902554	52	C	07/13/2022	17:06	-134.354	49.622	0	1745.30	0	2.1220	0	34.5490	0	27.610	0	1723.195	0	-1e10	8	-1e10	8	-1E+10	1	-1E+10	1	-1E+10	1	-1E+10	1	-1E+10	1	-1E+10	1
4902554	52	C	07/13/2022	17:06	-134.354	49.622	0	1755.40	0	2.1150	0	34.5510	0	27.612	0	1733.126	0	-1e10	8	-1e10	8	-1E+10	1	-1E+10	1	-1E+10	1	-1E+10	1	-1E+10	1	-1E+10	1
4902554	52	C	07/13/2022	17:06	-134.354	49.622	0	1765.30	0	2.1080	0	34.5520	0	27.614	0	1742.859	0	-1e10	8	-1e10	8	-1E+10	1	-1E+10	1	-1E+10	1	-1E+10	1	-1E+10	1	-1E+10	1
4902554	52	C	07/13/2022	17:06	-134.354	49.622	0	1775.50	0	2.1030	0	34.5530	0	27.615	0	1752.888	0	-1e10	8	-1e10	8	-1E+10	1	-1E+10	1	-1E+10	1	-1E+10	1	-1E+10	1	-1E+10	1
4902554	52	C	07/13/2022	17:06	-134.354	49.622	0	1785.50	0	2.0980	0	34.5540	0	27.616	0	1762.719	0	-1e10	8	-1e10	8	-1E+10	1	-1E+10	1	-1E+10	1	-1E+10	1	-1E+10	1	-1E+10	1
4902554	52	C	07/13/2022	17:06	-134.354	49.622	0	1795.50	0	2.0880	0	34.5560	0	27.619	0	1772.550	0	-1e10	8	-1e10	8	-1E+10	1	-1E+10	1	-1E+10	1	-1E+10	1	-1E+10	1	-1E+10	1
4902554	52	C	07/13/2022	17:06	-134.354	49.622	0	1805.30	0	2.0790	0	34.5580	0	27.621	0	1782.183	0	-1e10	8	-1e10	8	-1E+10	1	-1E+10	1	-1E+10	1	-1E+10	1	-1E+10	1	-1E+10	1
4902554	52	C	07/13/2022	17:06	-134.354	49.622	0	1815.00	0	2.0730	0	34.5590	0	27.622	0	1791.718	0	-1e10	8	-1e10	8	-1E+10	1	-1E+10	1	-1E+10	1	-1E+10	1	-1E+10	1	-1E+10	1
4902554	52	C	07/13/2022	17:06	-134.354	49.622	0	1825.10	0	2.0640	0	34.5610	0	27.625	0	1801.646	0	-1e10	8	-1e10	8	-1E+10	1	-1E+10	1	-1E+10	1	-1E+10	1	-1E+10	1	-1E+10	1
4902554	52	C	07/13/2022	17:06	-134.354	49.622	0	1835.50	0	2.0620	0	34.5620	0	27.626	0	1811.868	0	-1e10	8	-1e10	8	-1E+10	1	-1E+10	1	-1E+10	1	-1E+10	1	-1E+10	1	-1E+10	1
4902554	52	C	07/13/2022	17:06	-134.354	49.622	0	1845.50	0	2.0590	0	34.5630	0	27.627	0	1821.696	0	-1e10	8	-1e10	8	-1E+10	1	-1E+10	1	-1E+10	1	-1E+10	1	-1E+10	1	-1E+10	1
4902554	52	C	07/13/2022	17:06	-134.354	49.622	0	1855.50	0	2.0550	0	34.5630	0	27.627	0	1831.524	0	-1e10	8	-1e10	8	-1E+10	1	-1E+10	1	-1E+10	1	-1E+10	1	-1E+10	1	-1E+10	1
4902554	52	C	07/13/2022	17:06	-134.354	49.622	0	1865.60	0	2.0470	0	34.5650	0	27.629	0	1841.450	0	-1e10	8	-1e10	8	-1E+10	1	-1E+10	1	-1E+10	1	-1E+10	1	-1E+10	1	-1E+10	1
4902554	52	C	07/13/2022	17:06	-134.354	49.622	0	1875.40	0	2.0400	0	34.5660	0	27.631	0	1851.080	0	-1e10	8	-1e10	8	-1E+10	1	-1E+10	1	-1E+10	1	-1E+10	1	-1E+10	1	-1E+10	1
4902554	52	C	07/13/2022	17:06	-134.354	49.622	0	1885.40	0	2.0330	0	34.5670	0	27.632	0	1860.907	0	-1e10	8	-1e10	8	-1E+10	1	-1E+10	1	-1E+10	1	-1E+10	1	-1E+10	1	-1E+10	1
4902554	52	C	07/13/2022	17:06	-134.354	49.622	0	1895.60	0	2.0210	0	34.5700	0	27.636	0	1870.930	0	-1e10	8	-1e10	8	-1E+10	1	-1E+10	1	-1E+10	1	-1E+10	1	-1E+10	1	-1E+10	1
4902554	52	C	07/13/2022	17:06	-134.354	49.622	0	1905.60	0	2.0120	0	34.5720	0	27.638	0	1880.755	0	-1e10	8	-1e10	8	-1E+10	1	-1E+10	1	-1E+10	1	-1E+10	1	-1E+10	1	-1E+10	1
4902554	52	C	07/13/2022	17:06	-134.354	49.622	0	1915.40	0	2.0070	0	34.5730	0	27.639	0	1890.384	0	-1e10	8	-1e10	8	-1E+10	1	-1E+10	1	-1E+10	1	-1E+10	1	-1E+10	1	-1E+10	1
4902554	52	C	07/13/2022	17:06	-134.354	49.622	0	1925.40	0	2.0040	0	34.5730	0	27.639	0	1900.209	0	-1e10	8	-1e10	8	-1E+10	1	-1E+10	1	-1E+10	1	-1E+10	1	-1E+10	1	-1E+10	1
4902554	52	C	07/13/2022	17:06	-134.354	49.622	0	1935.60	0	1.9960	0	34.5750	0	27.642	0	1910.230	0	-1e10	8	-1e10	8	-1E+10	1	-1E+10	1	-1E+10	1	-1E+10	1	-1E+10	1	-1E+10	1
4902554	52	C	07/13/2022	17:06	-134.354	49.622	0	1945.50	0	1.9880	0	34.5770	0	27.644	0	1919.955	0	-1e10	8	-1e10	8	-1E+10	1	-1E+10	1	-1E+10	1	-1E+10	1	-1E+10	1	-1E+10	1
4902554	52	C	07/13/2022	17:06	-134.354	49.622	0	1955.40	0	1.9810	0	34.5780	0	27.645	0	1929.681	0	-1e10	8	-1e10	8	-1E+10	1	-1E+10	1	-1E+10	1	-1E+10	1	-1E+10	1	-1E+10	1
4902554	52	C	07/13/2022	17:06	-134.354	49.622	0	1965.70	0	1.9770	0	34.5790	0	27.647	0	1939.798	0	-1e10	8	-1e10	8	-1E+10	1	-1E+10	1	-1E+10	1	-1E+10	1	-1E+10	1	-1E+10	1
4902554	52	C	07/13/2022	17:06	-134.354	49.622	0	1975.70	0	1.9720	0	34.5810	0	27.649	0	1949.621	0	-1e10	8	-1e10	8	-1E+10	1	-1E+10	1	-1E+10	1	-1E+10	1	-1E+10	1	-1E+10	1
4902554	52	C	07/13/2022	17:06	-134.354	49.622	0	1985.40	0	1.9700	0	34.5810	0	27.649	0	1959.148	0	-1e10	8	-1e10	8	-1E+10	1	-1E+10	1	-1E+10	1	-1E+10	1	-1E+10	1	-1E+10	1
4902554	52	C	07/13/2022	17:06	-134.354	49.622	0	1995.30	0	1.9630	0	34.5820	0	27.650	0	1968.872	0	-1e10	8	-1e10	8	-1E+10	1	-1E+10	1	-1E+10	1	-1E+10	1	-1E+10	1	-1E+10	1
4902554	52	C	07/13/2022	17:06	-134.354	49.622	0	2005.50	0	1.9590	0	34.5830	0	27.651	0	1978.889	0	-1e10	8	-1e10	8	-1E+10	1	-1E+10	1	-1E+10	1	-1E+10	1	-1E+10	1	-1E+10	1
4902554	52	C	07/13/2022	17:06	-134.354	49.622	0																										
4902554	53	C	07/23/2022	21:57	-134.206	49.709	0	0.30	0	14.1890	0	32.0050	0	23.835	0	0.297	0	-1e10	8	-1e10	8	-1E+10	1	-1E+10	1	-1E+10	1	-1E+10	1	-1E+10	1	-1E+10	1
4902554	53	C	07/23/2022	21:57	-134.206	49.709	0	0.90	0	14.1770	0	31.9850	0	23.823	0	0.892	0	-1e10	8	-1e10	8	-1E+10	1	-1E+10	1	-1E+10	1	-1E+10	1	-1E+10	1	-1E+10	1
4902554	53	C	07/23/2022	21:57	-134.206	49.709	0	2.00	0	14.1470	0	31.9610	0	23.810	0	1.983	0	-1e10	8	-1e10	8	-1E+10	1	-1E+10	1	-1E+10	1	-1E+10	1	-1E+10	1	-1E+10	1
4902554	53	C	07/23/2022	21:57	-134.206	49.709	0	2.90	0	14.0960	0	31.9780	0	23.834	0	2.875	0	-1e10	8	-1e10	8	-1E+10	1	-1E+10	1	-1E+10	1	-1E+10	1	-1E+10	1	-1E+10	1
4902554	53	C	07/23/2022	21:57	-134.206	49.709	0	3.90	0	13.9920	0	32.0690	0	23.925	0	3.867	0	-1e10	8	-1e10	8	-1E+10	1	-1E+10	1	-1E+10	1	-1E+10	1	-1E+10	1	-1E+10	1
4902554	53	C	07/23/2022	21:57	-134.206	49.709	0	5.10	0	13.8950	0	32.1380	0	23.999	0	5.056	0	-1e10	8	-1e10	8	-1E+10	1	-1E+10	1	-1E+10	1	-1E+10	1	-1E+10	1	-1E+10	1
4902554	53	C	07/23/2022	21:57	-134.206	49.709	0	6.00	0	13.8490	0	32.1360	0	24.006	0	5.949	0	-1e10	8	-1e10	8	-1E+10	1	-1E+10	1	-1E+10	1	-1E+10	1	-1E+10	1	-1E+10	1
4902554	53	C	07/23/2022	21:57	-134.206	49.709	0	6.90	0	13.8360	0	32.1350	0	24.008	0	6.841	0	-1e10	8	-1e10	8	-1E+10	1	-1E+10	1	-1E+10	1	-1E+10	1	-1E+10	1	-1E+10	1
4902554	53	C	07/23/2022	21:57	-134.206	49.709	0	7.80	0	13.8220	0	32.1360	0	24.012	0	7.733	0	-1e10	8	-1e10	8	-1E+10	1	-1E+10	1	-1E+10	1	-1E+10	1	-1E+10	1	-1E+10	1
4902554	53	C	07/23/2022	21:57	-134.206	49.709	0	8.80	0	13.8050	0	32.1360	0	24.016	0	8.725	0	-1e10	8	-1e10	8	-1E+10	1	-1E+10	1	-1E+10	1	-1E+10	1	-1E+10	1	-1E+10	1
4902554	53	C	07/23/2022	21:57	-134.206	49.709	0	10.00	0	13.7910	0	32.1350	0	24.018	0	9.914	0	-1e10	8	-1e10	8	-1E+10	1	-1E+10	1	-1E+10	1	-1E+10	1	-1E+10	1	-1E+10	1
4902554	53	C	07/23/2022	21:57	-134.206	49.709	0	11.00	0	13.7760	0	32.1360	0	24.021	0	10.906	0	-1e10	8	-1e10	8	-1E+10	1	-1E+10	1	-1E+10	1	-1E+10	1	-1E+10	1	-1E+10	1
4902554	53	C	07/23/2022	21:57	-134.206	49.709	0	11.90	0	13.7370	0	32.1360	0	24.029	0	11.798	0	-1e10	8	-1e10	8	-1E+10	1	-1E+10	1	-1E+10	1	-1E+10	1	-1E+10	1	-1E+10	1
4902554	53	C	07/23/2022	21:57	-134.206	49.709	0	12.90	0	13.7000	0	32.1370	0	24.038	0	12.789	0	-1e10	8	-1e10	8	-1E+10	1	-1E+10	1	-1E+10	1	-1E+10	1	-1E+10	1	-1E+10	1
4902554	53	C	07/23/2022	21:57	-134.206	49.709	0	13.80	0	13.6840	0	32.1360	0	24.040	0	13.682	0	-1e10	8	-1e10	8	-1E+10	1	-1E+10	1	-1E+10	1	-1E+10	1	-1E+10	1	-1E+10	1
4902554	53	C	07/23/2022	21:57	-134.206	49.709	0	15.10	0	13.6510	0	32.1350	0	24.046	0	14.970	0	-1e10	8	-1e10	8	-1E+10	1	-1E+10	1	-1E+10	1	-1E+10	1	-1E+10	1	-1E+10	1
4902554	53	C	07/23/2022	21:57	-134.206	49.709	0	16.00	0	13.5860	0	32.1340	0	24.058	0	15.863	0	-1e10	8	-1e10	8	-1E+10	1	-1E+10	1	-1E+10	1	-1E+10	1	-1E+10	1	-1E+10	1
4902554	53	C	07/23/2022	21:57	-134.206	49.709	0	17.00	0	13.5200	0	32.1340	0	24.072	0	16.854	0	-1e10	8	-1e10	8	-1E+10	1	-1E+10	1	-1E+10	1	-1E+10	1	-1E+10	1	-1E+10	1
4902554	53	C	07/23/2022	21:57	-134.206	49.709	0	17.90	0	13.4580	0	32.1360	0	24.086	0	17.746	0	-1e10	8	-1e10	8	-1E+10	1	-1E+10	1	-1E+10	1	-1E+10	1	-1E+10	1	-1E+10	1
4902554	53	C	07/23/2022	21:57	-134.206	49.709	0	18.80	0	13.3570	0	32.1350	0	24.105	0	18.638	0	-1e10	8	-1e10	8	-1E+10	1	-1E+10	1	-1E+10	1	-1E+10	1	-1E+10	1	-1E+10	1
4902554	53	C	07/23/2022	21:57	-134.206	49.709	0	19.90	0	13.2370	0	32.1390	0	24.132	0	19.729	0	-1e10	8	-1e10	8	-1E+10	1	-1E+10	1	-1E+10	1	-1E+10	1	-1E+10	1	-1E+10	1
4902554	53	C	07/23/2022	21:57	-134.206	49.709	0	20.90	0	13.1830	0	32.1380	0	24.142	0	20.720	0	-1e10	8	-1e10	8	-1E+10	1	-1E+10	1	-1E+10	1	-1E+10	1	-1E+10	1	-1E+10	1
4902554	53	C	07/23/2022	21:57	-134.206	49.709	0	22.00	0	13.1520	0	32.1380	0	24.148	0	21.811	0	-1e10	8	-1e10	8	-1E+10	1	-1E+10	1	-1E+10	1	-1E+10	1	-1E+10	1	-1E+10	1
4902554	53	C	07/23/2022	21:57	-134.206	49.709	0	23.10	0	13.1240	0	32.1370	0	24.153	0	22.901	0	-1e10	8	-1e10	8	-1E+10	1	-1E+10	1	-1E+10	1	-1E+10	1	-1E+10	1	-1E+10	1
4902554	53	C	07/23/2022	21:57	-134.206	49.709	0	24.00	0	13.0020	0	32.1460	0	24.184	0	23.793	0	-1e10	8	-1e10	8	-1E+10	1	-1E+10	1	-1E+10	1	-1E+10	1	-1E+10	1	-1E+10	1
4902554	53	C	07/23/2022	21:57	-134.206	49.709	0	24.90	0	12.8280	0	32.1430	0	24.215	0	24.686	0	-1e10	8	-1e10	8	-1E+10	1	-1E+10	1	-1E+10	1	-1E+10	1	-1E+10	1	-1E+10	1
4902554	53	C	07/23/2022	21:57	-134.206	49.709	0	26.00	0	12.5780	0	32.1550	0	24.273	0	25.776	0	-1e10	8	-1e10	8	-1E+10	1	-1E+10	1	-1E+10	1	-1E+10	1	-1E+10	1	-1E+10	1
4902554	53	C	07/23/2022	21:57	-134.206	49.709	0	27.10	0	12.4180	0	32.1600	0	24.307	0	26.867	0	-1e10	8	-1e10	8	-1E+10	1	-1E+10	1	-1E+10	1	-1E+10	1	-1E+10	1	-1E+10	1
4902554	53	C	07/23/2022	21:57	-134.206	49.709	0	27.80	0	12.3880	0	32.1570	0	24.310	0	27.561	0	-1e10	8	-1e10	8	-1E+10	1	-1E+10	1	-1E+10	1	-1E+10	1	-1E+10	1	-1E+10	1
4902554	53	C	07/23/2022	21:57	-134.206	49.709	0	28.80	0	12.3330	0	32.1540	0	24.318	0	28.552	0	-1e10	8	-1e10	8	-1E+10	1	-1E+10	1	-1E+10	1	-1E+10	1	-1E+10	1	-1E+10	1
4902554	53	C	07/23/2022	21:57	-134.206	49.709	0	29.90	0	12.2220	0	32.1570	0	24.342	0	29.642	0	-1e10	8	-1e10	8	-1E+10	1	-1E+10	1	-1E+10	1	-1E+10	1	-1E+10	1	-1E+10	1
4902554	53	C	07/23/2022	21:57	-134.206	49.709	0	30.90	0	11.9590	0	32.1700	0	24.401	0	30.634	0	-1e10	8	-1e10	8	-1E+10	1	-1E+10	1	-1E+10	1	-1E+10	1	-1E+10	1	-1E+10	1
4902554	53	C	07/23/2022	21:57	-134.206	49.709	0	31.90	0	11.4610	0	32.1890	0	24.506	0	31.625	0	-1e10	8	-1e10	8	-1E+10	1	-1E+10	1	-1E+10	1	-1E+10	1	-1E+10	1	-1E+10	1
4902554	53	C	07/23/2022	21:57	-134.206	49.709	0	32.90	0	11.3610	0	32.1880	0	24.524	0	32.616	0	-1e10	8	-1e10	8	-1E+10	1	-1E+10	1	-1E+10	1	-1E+10	1	-1E+10	1	-1E+10	1
4902554	53	C	07/23/2022	21:57	-134.206	49.709	0	33.80	0	11.3560	0	32.1860	0	24.523	0	33.508	0	-1e10	8	-1e10	8	-1E+10	1	-1E+10	1	-1E+10	1	-1E+10	1	-1E+10	1	-1E+10	1
4902554	53	C	07/23/2022	21:57	-134.206	49.709	0	35.10	0	11.3210	0	32.1840	0	24.528	0	34.797	0	-1e10	8	-1e10	8	-1E+10	1	-1E+10	1	-1E+10	1	-1E+10	1	-1E+10	1	-1E+10	1
4902554	53	C	07/23/2022	21:57	-134.206	49.709	0	36.00	0	11.2360	0	32.1850	0	24.544	0	35.689	0	-1e10	8	-1e10	8	-1E+10	1	-1E+10	1	-1E+10	1	-1E+10	1	-1E+10	1	-1E+10	1
4902554	53	C	07/23/2022	21:57	-134.206	49.709	0	37.00	0	11.0160	0	32.1880	0	24.585	0	36.680	0	-1e10	8	-1e10	8	-1E+10	1	-1E+10	1	-1E+10	1	-1E+10	1	-1E+10	1	-1E+10	1
4902554	53	C	07/23/2022	21:57	-134.206	49.709	0	38.00	0	10.3430	0	32.2160	0	24.723	0	37.672	0	-1e10	8	-1e10	8	-1E+10	1	-1E+10	1	-1E+10	1	-1E+10	1	-1E+10	1	-1E+10	1
4902554	53	C	07/23/2022	21:57	-134.206	49.709	0	39.00	0	10.1420	0	32.2190	0	24.759	0	38.663	0	-1e10	8	-1e10	8	-1E+10	1	-1E+10	1	-1E+10	1	-1E+10	1	-1E+10	1	-1E+10	1
4902554	53	C	07/23/2022	21:57	-134.206	49.709	0	40.00	0	9.9320	0	32.2150	0	24.790	0	39.654	0	-1e10	8	-1e10	8	-1E+10	1	-1E+10	1	-1E+10	1	-1E+10	1	-1E+10	1	-1E+10	1
4902554	53	C	07/23/2022	21:57	-134.206	49.709	0	41.00	0	9.6370	0	32.2330	0	24.852	0	40.646	0	-1e10	8	-1e10	8	-1E+10	1	-1E+10	1	-1E+10	1	-1E+10	1	-1E+10	1	-1E+10	1
4902554	53	C	07/23/2022	21:57	-134.206	49.709	0	41.90	0	9.3340	0	32.2370	0	24.904	0	41.538	0	-1e10	8	-1e10	8	-1E+10	1	-1E+10	1	-1E+10	1	-1E+10	1	-1E+10	1	-1E+10	1
4902554	53	C	07/23/2022	21:57	-134.206	49.709	0	43.10	0	9.1840	0	32.2450	0	24.934	0	42.727	0	-1e10	8	-1e10	8	-1E+10	1	-1E+10	1	-1E+10	1	-1E+10	1	-1E+10	1	-1E+10	1
4902554	53	C	07/23/2022	21:57	-134.206	49.709	0	44.10	0	9.0970	0	32.2450	0	24.947	0	43.718	0	-1e10	8	-1e10	8	-1E+10	1	-1E+10	1	-1E+10	1	-1E+10	1	-1E+10	1	-1E+10	1
4902554	53	C	07/23/2022	21:57	-134.206	49.709	0	44.90	0	8.9990	0	32.2470	0	24.964	0	44.511	0	-1e10	8	-1e10	8	-1E+10	1	-1E+10	1	-1E+10	1	-1E+10	1	-1E+10	1	-1E+10	1
4902554	53	C	07/23/2022	21:57	-134.206	49.709	0	45.90	0	8.8630	0	32.2510	0	24.988	0	45.503	0	-1e10	8	-1e10	8	-1E+10	1	-1E+10	1	-1E+10	1	-1E+10	1	-1E+10	1	-1E+10	1
4902554	53	C	07/23/2022	21:57	-134.206	49.709	0	46.90	0	8.5870	0	32.2740	0	25.048	0	46.494	0	-1e10	8	-1e10	8	-1E+10	1	-1E+10	1	-1E+10	1	-1E+10	1	-1E+10	1	-1E+10	1
4902554	53	C	07/23/2022	21:57	-134.206	49.709	0	47.90	0	8.4530	0	32.2740	0	25.068	0	47.485	0	-1e10	8	-1e10	8	-1E+10	1	-1E+10	1	-1E+10	1	-1E+10	1	-1E+10	1	-1E+10	1
4902554	53	C	07/23/2022	21:57	-134.206	49.709	0	49.00	0	8.4360	0	32.2720	0	25.069	0	48.575	0	-1e10	8	-1e10	8	-1E+10	1	-1E+10	1	-1E+10	1	-1E+10	1	-1E+10	1	-1E+10	1
4902554	53	C	07/23/2022	21:57	-134.206	49.709	0	50.10	0	8.4090	0	32.2690	0	25.071	0	49.666	0	-1e10	8	-1e10	8	-1E+10	1	-1E+10	1	-1E+10	1	-1E+10	1	-1E+10	1	-1E+10	1
4902554	53	C	07/23/2022	21:57	-134.206	49.709	0	51.00	0	8.3800	0	32.2630	0	25.070	0	50.558	0	-1e10	8	-1e10	8	-1E+10	1	-1E+10	1	-1E+10	1	-1E+10	1	-1E+10	1	-1E+10	1
4902554	53	C	07/23/2022	21:57	-134.206	49.709	0	51.90	0	8.0600	0	32.2780	0	25.129	0	51.450	0	-1e10	8	-1e10	8	-1E+10	1	-1E+10	1	-1E+10	1	-1E+10	1	-1E+10	1	-1E+10	1
4902554	53	C	07/23/2022	21:57	-134.206	49.709	0	53.00	0	7.9620	0	32.2730	0	25.139	0	52.540	0	-1e10	8	-1e10	8	-1E+10	1	-1E+10	1	-1E+10	1	-1E+10	1	-1E+10	1	-1E+10	1
4902554	53	C	07/23/2022	21:57	-134.206	49.709	0	53.90	0	7.8560	0	32.2770	0	25.158	0	53.432	0	-1e10	8	-1e10	8	-1E+10	1	-1E+10	1	-1E+10	1	-1E+10	1	-1E+10	1	-1E+10	1
4902554	53	C	07/23/2022	21:57	-134.206	49.709	0	55.00	0	7.7510	0	32.2790	0	25.174	0	54.523	0	-1e10	8	-1e10	8	-1E+10	1	-1E+10	1	-1E+10	1	-1E+10	1	-1E+10	1	-1E+10	1
4902554	53	C	07/23/2022	21:57	-134.206	49.709	0	56.00	0	7.6880	0	32.2860	0	25.188	0	55.514	0	-1e10	8	-1e10	8	-1E+10	1	-1E+10	1	-1E+10	1	-1E+10	1	-1E+10	1	-1E+10	1
4902554	53	C	07/23/2022	21:57	-134.206	49.709	0	57.20	0	7.6460	0	32.2900	0	25.197	0	56.703	0	-1e10	8	-1e10	8	-1E+10	1	-1E+10	1	-1E+10	1	-1E+10	1	-1E+10	1	-1E+10	1
4902554	53	C	07/23/2022	21:57	-134.206	49.709	0	57.90	0	7.6220	0	32.2850	0	25.197	0	57.397	0	-1e10	8	-1e10	8	-1E+10	1	-1E+10	1	-1E+10	1	-1E+10	1	-1E+10	1	-1E+10	1
4902554	53	C	07/23/2022	21:57	-134.206	49.709	0	58.90	0	7.5750	0	32.2870	0	25.205	0	58.388	0	-1e10	8	-1e10	8	-1E+10	1	-1E+10	1	-1E+10	1	-1E+10	1	-1E+10	1	-1E+10	1
4902554	53	C	07/23/2022	21:57	-134.206	49.709	0	60.00	0	7.5290	0	32.2900	0	25.214	0	59.479	0	-1e10	8	-1e10	8	-1E+10	1	-1E+10	1	-1E+10	1	-1E+10	1	-1E+10	1	-1E+10	1
4902554	53	C	07/23/2022	21:57	-134.206	49.709	0	61.00	0	7.4920	0	32.2930	0	25.221	0	60.470	0	-1e10	8	-1e10	8	-1E+10	1	-1E+10	1	-1E+10	1	-1E+10	1	-1E+10	1	-1E+10	1
4902554	53	C	07/23/2022	21:57	-134.206	49.709	0	62.10	0	7.4510	0	32.2950	0	25.228	0	61.560	0	-1e10	8	-1e10	8	-1E+10	1	-1E+10	1	-1E+10	1	-1E+10	1	-1E+10	1	-1E+10	1
4902554	53	C	07/23/2022	21:57	-134.206	49.709	0	62.80	0	7.4430	0	32.2950	0	25.230	0	62.254	0	-1e10	8	-1e10	8	-1E+10	1	-1E+10	1	-1E+10	1	-1E+10	1	-1E+10	1	-1E+10	1
4902554	53	C	07/23/2022	21:57	-134.206	49.709	0	63.80	0	7.4240	0	32.2970	0	25.234	0	63.245	0	-1e10	8	-1e10	8	-1E+10	1	-1E+10	1	-1E+10	1	-1E+10	1	-1E+10	1	-1E+10	1
4902554	53	C	07/23/2022	21:57	-134.206	49.709	0	64.90	0	7.4030	0	32.2970	0	25.237	0	64.335	0	-1e10	8	-1e10	8	-1E+10	1	-1E+10	1	-1E+10	1	-1E+10	1	-1E+10	1	-1E+10	1
4902554	53	C	07/23/2022	21:57	-134.206	49.709	0	65.90	0	7.3860	0	32.2970	0	25.239	0	65.326	0	-1e10	8	-1e10	8	-1E+10	1	-1E+10	1	-1E+10	1	-1E+10	1	-1E+10	1	-1E+10	1
4902554	53	C	07/23/2022	21:57	-134.206	49.709	0	66.90	0	7.3610	0	32.3010	0	25.246	0	66.317	0	-1e10	8	-1e10	8	-1E+10	1	-1E+10	1	-1E+10	1	-1E+10	1	-1E+10	1	-1E+10	1
4902554	53	C	07/23/2022	21:57	-134.206	49.709	0	67.80	0	7.3490	0	32.3000	0	25.246	0	67.210	0	-1e10	8	-1e10	8	-1E+10	1	-1E+10	1	-1E+10	1	-1E+10	1	-1E+10	1	-1E+10	1
4902554	53	C	07/23/2022	21:57	-134.206	49.709	0	69.10	0	7.3200	0	32.3020	0	25.252	0	68.498	0	-1e10	8	-1e10	8	-1E+10	1	-1E+10	1	-1E+10	1	-1E+10	1	-1E+10	1	-1E+10	1
4902554	53	C	07/23/2022	21:57	-134.206	49.709	0	70.00	0	7.2140	0	32.3160	0	25.277	0	69.390	0	-1e10	8	-1e10	8	-1E+10	1	-1E+10	1	-1E+10	1	-1E+10	1	-1E+10	1	-1E+10	1
4902554	53	C	07/23/2022	21:57	-134.206	49.709	0	70.90	0	7.2040	0	32.3160	0	25.279	0	70.282	0	-1e10	8	-1e10	8	-1E+10	1	-1E+10	1	-1E+10	1	-1E+10	1	-1E+10	1	-1E+10	1
4902554	53	C	07/23/2022	21:57	-134.206	49.709	0	72.10	0	7.1950	0	32.3170	0	25.281	0	71.471	0	-1e10	8	-1e10	8	-1E+10	1	-1E+10	1	-1E+10	1	-1E+10	1	-1E+10	1	-1E+10	1
4902554	53	C	07/23/2022	21:57	-134.206	49.709	0	73.10	0	7.1840	0	32.3190	0	25.284	0	72.462	0	-1e10	8	-1e10	8	-1E+10	1	-1E+10	1	-1E+10	1	-1E+10	1	-1E+10	1	-1E+10	1
4902554	53	C	07/23/2022	21:57	-134.206	49.709	0	74.00	0	7.1780	0	32.3200	0	25.285	0	73.354	0	-1e10	8	-1e10	8	-1E+10	1	-1E+10	1	-1E+10	1	-1E+10	1	-1E+10	1	-1E+10	1
4902554	53	C	07/23/2022	21:57	-134.206	49.709	0	75.00	0	7.1460	0	32.3240	0	25.293	0	74.345	0	-1e10	8	-1e10	8	-1E+10	1	-1E+10	1	-1E+10	1	-1E+10	1	-1E+10	1	-1E+10	1
4902554	53	C	07/23/2022	21:57	-134.206	49.709	0	76.00	0	7.1220	0	32.3310	0	25.302	0	75.337	0	-1e10	8	-1e10	8	-1E+10	1	-1E+10	1	-1E+10	1	-1E+10	1	-1E+10	1	-1E+10	1
4902554	53	C	07/23/2022	21:57	-134.206	49.709	0	76.90	0	7.1110	0	32.3330	0	25.305	0	76.229	0	-1e10	8	-1e10	8	-1E+10	1	-1E+10	1	-1E+10	1	-1E+10	1	-1E+10	1	-1E+10	1
4902554	53	C	07/23/2022	21:57	-134.206	49.709	0	77.80	0	7.1020	0	32.3360	0	25.308	0	77.121	0	-1e10	8	-1e10	8	-1E+10	1	-1E+10	1	-1E+10	1	-1E+10	1	-1E+10	1	-1E+10	1
4902554	53	C	07/23/2022	21:57	-134.206	49.709	0	78.80	0	7.0790	0	32.3420	0	25.316	0	78.112	0	-1e10	8	-1e10	8	-1E+10	1	-1E+10	1	-1E+10	1	-1E+10	1	-1E+10	1	-1E+10	1
4902554	53	C	07/23/2022	21:57	-134.206	49.709	0	80.00	0	7.0580	0	32.3480	0	25.324	0	79.301	0	-1e10	8	-1e10	8	-1E+10	1	-1E+10	1	-1E+10	1	-1E+10	1	-1E+10	1	-1E+10	1
4902554	53	C	07/23/2022	21:57	-134.206	49.709	0	81.00	0	7.0450	0	32.3520	0	25.329	0	80.292	0	-1e10	8	-1e10	8	-1E+10	1	-1E+10	1	-1E+10	1	-1E+10	1	-1E+10	1	-1E+10	1
4902554	53	C	07/23/2022	21:57	-134.206	49.709	0	82.00	0	7.0390	0	32.3540	0	25.331	0	81.283	0	-1e10	8	-1e10	8	-1E+10	1	-1E+10	1	-1E+10	1	-1E+10	1	-1E+10	1	-1E+10	1
4902554	53	C	07/23/2022	21:57	-134.206	49.709	0	83.00	0	7.0120	0	32.3640	0	25.342	0	82.274	0	-1e10	8	-1e10	8	-1E+10	1	-1E+10	1	-1E+10	1	-1E+10	1	-1E+10	1	-1E+10	1
4902554	53	C	07/23/2022	21:57	-134.206	49.709	0	84.10	0	6.9770	0	32.3790	0	25.359	0	83.364	0	-1e10	8	-1e10	8	-1E+10	1	-1E+10	1	-1E+10	1	-1E+10	1	-1E+10	1	-1E+10	1
4902554	53	C	07/23/2022	21:57	-134.206	49.709	0	85.00	0	6.9520	0	32.3930	0	25.373	0	84.256	0	-1e10	8	-1e10	8	-1E+10	1	-1E+10	1	-1E+10	1	-1E+10	1	-1E+10	1	-1E+10	1
4902554	53	C	07/23/2022	21:57	-134.206	49.709	0	85.80	0	6.9470	0	32.3960	0	25.376	0	85.049	0	-1e10	8	-1e10	8	-1E+10	1	-1E+10	1	-1E+10	1	-1E+10	1	-1E+10	1	-1E+10	1
4902554	53	C	07/23/2022	21:57	-134.206	49.709	0	87.00	0	6.9390	0	32.3990	0	25.380	0	86.238	0	-1e10	8	-1e10	8	-1E+10	1	-1E+10	1	-1E+10	1	-1E+10	1	-1E+10	1	-1E+10	1
4902554	53	C	07/23/2022	21:57	-134.206	49.709	0	88.10	0	6.9360	0	32.4010	0	25.382	0	87.328	0	-1e10	8	-1e10	8	-1E+10	1	-1E+10	1	-1E+10	1	-1E+10	1	-1E+10	1	-1E+10	1
4902554	53	C	07/23/2022	21:57	-134.206	49.709	0	89.10	0	6.9320	0	32.4020	0	25.383	0	88.319	0	-1e10	8	-1e10	8	-1E+10	1	-1E+10	1	-1E+10	1	-1E+10	1	-1E+10	1	-1E+10	1
4902554	53	C	07/23/2022	21:57	-134.206	49.709	0	90.00	0	6.8880	0	32.4300	0	25.411	0	89.211	0	-1e10	8	-1e10	8	-1E+10	1	-1E+10	1	-1E+10	1	-1E+10	1	-1E+10	1	-1E+10	1
4902554	53	C	07/23/2022	21:57	-134.206	49.709	0	91.00	0	6.8700	0	32.4420	0	25.423	0	90.202	0	-1e10	8	-1e10	8	-1E+10	1	-1E+10	1	-1E+10	1	-1E+10	1	-1E+10	1	-1E+10	1
4902554	53	C	07/23/2022	21:57	-134.206	49.709	0	91.90	0	6.8250	0	32.4790	0	25.458	0	91.094	0	-1e10	8	-1e10	8	-1E+10	1	-1E+10	1	-1E+10	1	-1E+10	1	-1E+10	1	-1E+10	1
4902554	53	C	07/23/2022	21:57	-134.206	49.709	0	92.90	0	6.7980	0	32.5000	0	25.478	0	92.085	0	-1e10	8	-1e10	8	-1E+10	1	-1E+10	1	-1E+10	1	-1E+10	1	-1E+10	1	-1E+10	1
4902554	53	C	07/23/2022	21:57	-134.206	49.709	0	93.80	0	6.7930	0	32.5030	0	25.481	0	92.977	0	-1e10	8	-1e10	8	-1E+10	1	-1E+10	1	-1E+10	1	-1E+10	1	-1E+10	1	-1E+10	1
4902554	53	C	07/23/2022	21:57	-134.206	49.709	0	95.00	0	6.7740	0	32.5180	0	25.495	0	94.166	0	-1e10	8	-1e10	8	-1E+10	1	-1E+10	1	-1E+10	1	-1E+10	1	-1E+10	1	-1E+10	1
4902554	53	C	07/23/2022	21:57	-134.206	49.709	0	96.00	0	6.7430	0	32.5460	0	25.521	0	95.157	0	-1e10	8	-1e10	8	-1E+10	1	-1E+10	1	-1E+10	1	-1E+10	1	-1E+10	1	-1E+10	1
4902554	53	C	07/23/2022	21:57	-134.206	49.709	0	96.90	0	6.7280	0	32.5590	0	25.534	0	96.049	0	-1e10	8	-1e10	8	-1E+10	1	-1E+10	1	-1E+10	1	-1E+10	1	-1E+10	1	-1E+10	1
4902554	53	C	07/23/2022	21:57	-134.206	49.709	0	97.80	0	6.7130	0	32.5700	0	25.544	0	96.941	0	-1e10	8	-1e10	8	-1E+10	1	-1E+10	1	-1E+10	1	-1E+10	1	-1E+10	1	-1E+10	1
4902554	53	C	07/23/2022	21:57	-134.206	49.709	0	98.80	0	6.6580	0	32.6280	0	25.597	0	97.932	0	-1e10	8	-1e10	8	-1E+10	1	-1E+10	1	-1E+10	1	-1E+10	1	-1E+10	1	-1E+10	1
4902554	53	C	07/23/2022	21:57	-134.206	49.709	0	100.10	0	6.6210	0	32.6730	0	25.637	0	99.220	0	-1e10	8	-1e10	8	-1E+10	1	-1E+10	1	-1E+10	1	-1E+10	1	-1E+10	1	-1E+10	1
4902554	53	C	07/23/2022	21:57	-134.206	49.709	0	101.00	0	6.5910	0	32.7140	0	25.673	0	100.112	0	-1e10	8	-1e10	8	-1E+10	1	-1E+10	1	-1E+10	1	-1E+10	1	-1E+10	1	-1E+10	1
4902554	53	C	07/23/2022	21:57	-134.206	49.709	0	101.80	0	6.5550	0	32.7670	0	25.720	0	100.905	0	-1e10	8	-1e10	8	-1E+10	1	-1E+10	1	-1E+10	1	-1E+10	1	-1E+10	1	-1E+10	1
4902554	53	C	07/23/2022	21:57	-134.206	49.709	0	103.10	0	6.5450	0	32.7830	0	25.734	0	102.193	0	-1e10	8	-1e10	8	-1E+10	1	-1E+10	1	-1E+10	1	-1E+10	1	-1E+10	1	-1E+10	1
4902554	53	C	07/23/2022	21:57	-134.206	49.709	0	103.90	0	6.5260	0	32.8100	0	25.758	0	102.986	0	-1e10	8	-1e10	8	-1E+10	1	-1E+10	1	-1E+10	1	-1E+10	1	-1E+10	1	-1E+10	1
4902554	53	C	07/23/2022	21:57	-134.206	49.709	0	104.90	0	6.4910	0	32.8470	0	25.791	0	103.977	0	-1e10	8	-1e10	8	-1E+10	1	-1E+10	1	-1E+10	1	-1E+10	1	-1E+10	1	-1E+10	1
4902554	53	C	07/23/2022	21:57	-134.206	49.709	0	106.10	0	6.4100	0	32.9180	0	25.858	0	105.166	0	-1e10	8	-1e10	8	-1E+10	1	-1E+10	1	-1E+10	1	-1E+10	1	-1E+10	1	-1E+10	1
4902554	53	C	07/23/2022	21:57	-134.206	49.709	0	107.00	0	6.3940	0	32.9330	0	25.871	0	106.058	0	-1e10	8	-1e10	8	-1E+10	1	-1E+10	1	-1E+10	1	-1E+10	1	-1E+10	1	-1E+10	1
4902554	53	C	07/23/2022	21:57	-134.206	49.709	0	108.00	0	6.3760	0	32.9510	0	25.888	0	107.049	0	-1e10	8	-1e10	8	-1E+10	1	-1E+10	1	-1E+10	1	-1E+10	1	-1E+10	1	-1E+10	1
4902554	53	C	07/23/2022	21:57	-134.206	49.709	0	109.20	0	6.3480	0	32.9800	0	25.914	0	108.238	0	-1e10	8	-1e10	8	-1E+10	1	-1E+10	1	-1E+10	1	-1E+10	1	-1E+10	1	-1E+10	1
4902554	53	C	07/23/2022	21:57	-134.206	49.709	0	110.00	0	6.3030	0	33.0230	0	25.954	0	109.031	0	-1e10	8	-1e10	8	-1E+10	1	-1E+10	1	-1E+10	1	-1E+10	1	-1E+10	1	-1E+10	1
4902554	53	C	07/23/2022	21:57	-134.206	49.709	0	111.10	0	6.2640	0	33.0710	0	25.997	0	110.121	0	-1e10	8	-1e10	8	-1E+10	1	-1E+10	1	-1E+10	1	-1E+10	1	-1E+10	1	-1E+10	1
4902554	53	C	07/23/2022	21:57	-134.206	49.709	0	112.00	0	6.2330	0	33.0970	0	26.021	0	111.013	0	-1e10	8	-1e10	8	-1E+10	1	-1E+10	1	-1E+10	1	-1E+10	1	-1E+10	1	-1E+10	1
4902554	53	C	07/23/2022	21:57	-134.206	49.709	0	113.10	0	6.2010	0	33.1200	0	26.044	0	112.103	0	-1e10	8	-1e10	8	-1E+10	1	-1E+10	1	-1E+10	1	-1E+10	1	-1E+10	1	-1E+10	1
4902554	53	C	07/23/2022	21:57	-134.206	49.709	0	113.90	0	6.1870	0	33.1310	0	26.054	0	112.895	0	-1e10	8	-1e10	8	-1E+10	1	-1E+10	1	-1E+10	1	-1E+10	1	-1E+10	1	-1E+10	1
4902554	53	C	07/23/2022	21:57	-134.206	49.709	0	114.80	0	6.1770	0	33.1370	0	26.060	0	113.787	0	-1e10	8	-1e10	8	-1E+10	1	-1E+10	1	-1E+10	1	-1E+10	1	-1E+10	1	-1E+10	1
4902554	53	C	07/23/2022	21:57	-134.206	49.709	0	115.90	0	6.1640	0	33.1480	0	26.070	0	114.877	0	-1e10	8	-1e10	8	-1E+10	1	-1E+10	1	-1E+10	1	-1E+10	1	-1E+10	1	-1E+10	1
4902554	53	C	07/23/2022	21:57	-134.206	49.709	0	116.80	0	6.1570	0	33.1560	0	26.078	0	115.769	0	-1e10	8	-1e10	8	-1E+10	1	-1E+10	1	-1E+10	1	-1E+10	1	-1E+10	1	-1E+10	1
4902554	53	C	07/23/2022	21:57	-134.206	49.709	0	117.80	0	6.1170	0	33.1870	0	26.107	0	116.760	0	-1e10	8	-1e10	8	-1E+10	1	-1E+10	1	-1E+10	1	-1E+10	1	-1E+10	1	-1E+10	1
4902554	53	C	07/23/2022	21:57	-134.206	49.709	0	119.00	0	6.0300	0	33.2560	0	26.172	0	117.949	0	-1e10	8	-1e10	8	-1E+10	1	-1E+10	1	-1E+10	1	-1E+10	1	-1E+10	1	-1E+10	1
4902554	53	C	07/23/2022	21:57	-134.206	49.709	0	119.80	0	6.0170	0	33.2660	0	26.182	0	118.742	0	-1e10	8	-1e10	8	-1E+10	1	-1E+10	1	-1E+10	1	-1E+10	1	-1E+10	1	-1E+10	1
4902554	53	C	07/23/2022	21:57	-134.206	49.709	0	120.90	0	5.9540	0	33.3150	0	26.228	0	119.832	0	-1e10	8	-1e10	8	-1E+10	1	-1E+10	1	-1E+10	1	-1E+10	1	-1E+10	1	-1E+10	1
4902554	53	C	07/23/2022	21:57	-134.206	49.709	0	122.10	0	5.9440	0	33.3190	0	26.233	0	121.021	0	-1e10	8	-1e10	8	-1E+10	1	-1E+10	1	-1E+10	1	-1E+10	1	-1E+10	1	-1E+10	1
4902554	53	C	07/23/2022	21:57	-134.206	49.709	0	122.90	0	5.9340	0	33.3240	0	26.238	0	121.813	0	-1e10	8	-1e10	8	-1E+10	1	-1E+10	1	-1E+10	1	-1E+10	1	-1E+10	1	-1E+10	1
4902554	53	C	07/23/2022	21:57	-134.206	49.709	0	124.00	0	5.9140	0	33.3350	0	26.249	0	122.903	0	-1e10	8	-1e10	8	-1E+10	1	-1E+10	1	-1E+10	1	-1E+10	1	-1E+10	1	-1E+10	1
4902554	53	C	07/23/2022	21:57	-134.206	49.709	0	125.20	0	5.9000	0	33.3470	0	26.260	0	124.092	0	-1e10	8	-1e10	8	-1E+10	1	-1E+10	1	-1E+10	1	-1E+10	1	-1E+10	1	-1E+10	1
4902554	53	C	07/23/2022	21:57	-134.206	49.709	0	126.10	0	5.8870	0	33.3550	0	26.268	0	124.984	0	-1e10	8	-1e10	8	-1E+10	1	-1E+10	1	-1E+10	1	-1E+10	1	-1E+10	1	-1E+10	1
4902554	53	C	07/23/2022	21:57	-134.206	49.709	0	126.90	0	5.8570	0	33.3740	0	26.287	0	125.777	0	-1e10	8	-1e10	8	-1E+10	1	-1E+10	1	-1E+10	1	-1E+10	1	-1E+10	1	-1E+10	1
4902554	53	C	07/23/2022	21:57	-134.206	49.709	0	127.80	0	5.8270	0	33.4060	0	26.316	0	126.669	0	-1e10	8	-1e10	8	-1E+10	1	-1E+10	1	-1E+10	1	-1E+10	1	-1E+10	1	-1E+10	1
4902554	53	C	07/23/2022	21:57	-134.206	49.709	0	128.70	0	5.8110	0	33.4280	0	26.335	0	127.560	0	-1e10	8	-1e10	8	-1E+10	1	-1E+10	1	-1E+10	1	-1E+10	1	-1E+10	1	-1E+10	1
4902554	53	C	07/23/2022	21:57	-134.206	49.709	0	129.60	0	5.7860	0	33.4540	0	26.359	0	128.452	0	-1e10	8	-1e10	8	-1E+10	1	-1E+10	1	-1E+10	1	-1E+10	1	-1E+10	1	-1E+10	1
4902554	53	C	07/23/2022	21:57	-134.206	49.709	0	130.90	0	5.7780	0	33.4710	0	26.373	0	129.740	0	-1e10	8	-1e10	8	-1E+10	1	-1E+10	1	-1E+10	1	-1E+10	1	-1E+10	1	-1E+10	1
4902554	53	C	07/23/2022	21:57	-134.206	49.709	0	132.20	0	5.7740	0	33.4770	0	26.379	0	131.028	0	-1e10	8	-1e10	8	-1E+10	1	-1E+10	1	-1E+10	1	-1E+10	1	-1E+10	1	-1E+10	1
4902554	53	C	07/23/2022	21:57	-134.206	49.709	0	133.10	0	5.7670	0	33.4860	0	26.387	0	131.920	0	-1e10	8	-1e10	8	-1E+10	1	-1E+10	1	-1E+10	1	-1E+10	1	-1E+10	1	-1E+10	1
4902554	53	C	07/23/2022	21:57	-134.206	49.709	0	134.00	0	5.7620	0	33.4990	0	26.397	0	132.812	0	-1e10	8	-1e10	8	-1E+10	1	-1E+10	1	-1E+10	1	-1E+10	1	-1E+10	1	-1E+10	1
4902554	53	C	07/23/2022	21:57	-134.206	49.709	0	134.80	0	5.7540	0	33.5150	0	26.411	0	133.604	0	-1e10	8	-1e10	8	-1E+10	1	-1E+10	1	-1E+10	1	-1E+10	1	-1E+10	1	-1E+10	1
4902554	53	C	07/23/2022	21:57	-134.206	49.709	0	135.70	0	5.7550	0	33.5190	0	26.414	0	134.496	0	-1e10	8	-1e10	8	-1E+10	1	-1E+10	1	-1E+10	1	-1E+10	1	-1E+10	1	-1E+10	1
4902554	53	C	07/23/2022	21:57	-134.206	49.709	0	137.00	0	5.7510	0	33.5260	0	26.420	0	135.784	0	-1e10	8	-1e10	8	-1E+10	1	-1E+10	1	-1E+10	1	-1E+10	1	-1E+10	1	-1E+10	1
4902554	53	C	07/23/2022	21:57	-134.206	49.709	0	138.30	0	5.7370	0	33.5360	0	26.430	0	137.072	0	-1e10	8	-1e10	8	-1E+10	1	-1E+10	1	-1E+10	1	-1E+10	1	-1E+10	1	-1E+10	1
4902554	53	C	07/23/2022	21:57	-134.206	49.709	0	139.20	0	5.7230	0	33.5680	0	26.457	0	137.964	0	-1e10	8	-1e10	8	-1E+10	1	-1E+10	1	-1E+10	1	-1E+10	1	-1E+10	1	-1E+10	1
4902554	53	C	07/23/2022	21:57	-134.206	49.709	0	140.00	0	5.7180	0	33.5710	0	26.460	0	138.756	0	-1e10	8	-1e10	8	-1E+10	1	-1E+10	1	-1E+10	1	-1E+10	1	-1E+10	1	-1E+10	1
4902554	53	C	07/23/2022	21:57	-134.206	49.709	0	140.90	0	5.7150	0	33.5730	0	26.462	0	139.648	0	-1e10	8	-1e10	8	-1E+10	1	-1E+10	1	-1E+10	1	-1E+10	1	-1E+10	1	-1E+10	1
4902554	53	C	07/23/2022	21:57	-134.206	49.709	0	141.80	0	5.7100	0	33.5850	0	26.472	0	140.540	0	-1e10	8	-1e10	8	-1E+10	1	-1E+10	1	-1E+10	1	-1E+10	1	-1E+10	1	-1E+10	1
4902554	53	C	07/23/2022	21:57	-134.206	49.709	0	142.60	0	5.6940	0	33.6040	0	26.489	0	141.332	0	-1e10	8	-1e10	8	-1E+10	1	-1E+10	1	-1E+10	1	-1E+10	1	-1E+10	1	-1E+10	1
4902554	53	C	07/23/2022	21:57	-134.206	49.709	0	143.90	0	5.6960	0	33.6200	0	26.501	0	142.620	0	-1e10	8	-1e10	8	-1E+10	1	-1E+10	1	-1E+10	1	-1E+10	1	-1E+10	1	-1E+10	1
4902554	53	C	07/23/2022	21:57	-134.206	49.709	0	145.30	0	5.6800	0	33.6390	0	26.518	0	144.007	0	-1e10	8	-1e10	8	-1E+10	1	-1E+10	1	-1E+10	1	-1E+10	1	-1E+10	1	-1E+10	1
4902554	53	C	07/23/2022	21:57	-134.206	49.709	0	146.10	0	5.6680	0	33.6340	0	26.516	0	144.800	0	-1e10	8	-1e10	8	-1E+10	1	-1E+10	1	-1E+10	1	-1E+10	1	-1E+10	1	-1E+10	1
4902554	53	C	07/23/2022	21:57	-134.206	49.709	0	147.00	0	5.6390	0	33.6470	0	26.529	0	145.692	0	-1e10	8	-1e10	8	-1E+10	1	-1E+10	1	-1E+10	1	-1E+10	1	-1E+10	1	-1E+10	1
4902554	53	C	07/23/2022	21:57	-134.206	49.709	0	147.90	0	5.6270	0	33.6520	0	26.535	0	146.583	0	-1e10	8	-1e10	8	-1E+10	1	-1E+10	1	-1E+10	1	-1E+10	1	-1E+10	1	-1E+10	1
4902554	53	C	07/23/2022	21:57	-134.206	49.709	0	148.70	0	5.6240	0	33.6560	0	26.538	0	147.376	0	-1e10	8	-1e10	8	-1E+10	1	-1E+10	1	-1E+10	1	-1E+10	1	-1E+10	1	-1E+10	1
4902554	53	C	07/23/2022	21:57	-134.206	49.709	0	149.60	0	5.6140	0	33.6600	0	26.543	0	148.268	0	-1e10	8	-1e10	8	-1E+10	1	-1E+10	1	-1E+10	1	-1E+10	1	-1E+10	1	-1E+10	1
4902554	53	C	07/23/2022	21:57	-134.206	49.709	0	150.90	0	5.5830	0	33.6610	0	26.547	0	149.556	0	-1e10	8	-1e10	8	-1E+10	1	-1E+10	1	-1E+10	1	-1E+10	1	-1E+10	1	-1E+10	1
4902554	53	C	07/23/2022	21:57	-134.206	49.709	0	152.20	0	5.5600	0	33.6670	0	26.555	0	150.844	0	-1e10	8	-1e10	8	-1E+10	1	-1E+10	1	-1E+10	1	-1E+10	1	-1E+10	1	-1E+10	1
4902554	53	C	07/23/2022	21:57	-134.206	49.709	0	153.10	0	5.5510	0	33.6700	0	26.558	0	151.735	0	-1e10	8	-1e10	8	-1E+10	1	-1E+10	1	-1E+10	1	-1E+10	1	-1E+10	1	-1E+10	1
4902554	53	C	07/23/2022	21:57	-134.206	49.709	0	154.00	0	5.5400	0	33.6750	0	26.564	0	152.627	0	-1e10	8	-1e10	8	-1E+10	1	-1E+10	1	-1E+10	1	-1E+10	1	-1E+10	1	-1E+10	1
4902554	53	C	07/23/2022	21:57	-134.206	49.709	0	154.90	0	5.5280	0	33.6800	0	26.569	0	153.519	0	-1e10	8	-1e10	8	-1E+10	1	-1E+10	1	-1E+10	1	-1E+10	1	-1E+10	1	-1E+10	1
4902554	53	C	07/23/2022	21:57	-134.206	49.709	0	155.80	0	5.5210	0	33.6820	0	26.571	0	154.410	0	-1e10	8	-1e10	8	-1E+10	1	-1E+10	1	-1E+10	1	-1E+10	1	-1E+10	1	-1E+10	1
4902554	53	C	07/23/2022	21:57	-134.206	49.709	0	156.90	0	5.5080	0	33.6870	0	26.577	0	155.500	0	-1e10	8	-1e10	8	-1E+10	1	-1E+10	1	-1E+10	1	-1E+10	1	-1E+10	1	-1E+10	1
4902554	53	C	07/23/2022	21:57	-134.206	49.709	0	158.00	0	5.5050	0	33.6870	0	26.577	0	156.590	0	-1e10	8	-1e10	8	-1E+10	1	-1E+10	1	-1E+10	1	-1E+10	1	-1E+10	1	-1E+10	1
4902554	53	C	07/23/2022	21:57	-134.206	49.709	0	158.90	0	5.4940	0	33.6900	0	26.581	0	157.481	0	-1e10	8	-1e10	8	-1E+10	1	-1E+10	1	-1E+10	1	-1E+10	1	-1E+10	1	-1E+10	1
4902554	53	C	07/23/2022	21:57	-134.206	49.709	0	159.90	0	5.4920	0	33.6940	0	26.584	0	158.472	0	-1e10	8	-1e10	8	-1E+10	1	-1E+10	1	-1E+10	1	-1E+10	1	-1E+10	1	-1E+10	1
4902554	53	C	07/23/2022	21:57	-134.206	49.709	0	160.90	0	5.4710	0	33.6990	0	26.591	0	159.463	0	-1e10	8	-1e10	8	-1E+10	1	-1E+10	1	-1E+10	1	-1E+10	1	-1E+10	1	-1E+10	1
4902554	53	C	07/23/2022	21:57	-134.206	49.709	0	162.00	0	5.4600	0	33.7010	0	26.594	0	160.552	0	-1e10	8	-1e10	8	-1E+10	1	-1E+10	1	-1E+10	1	-1E+10	1	-1E+10	1	-1E+10	1
4902554	53	C	07/23/2022	21:57	-134.206	49.709	0	162.70	0	5.4490	0	33.7030	0	26.597	0	161.246	0	-1e10	8	-1e10	8	-1E+10	1	-1E+10	1	-1E+10	1	-1E+10	1	-1E+10	1	-1E+10	1
4902554	53	C	07/23/2022	21:57	-134.206	49.709	0	163.80	0	5.4390	0	33.7050	0	26.599	0	162.336	0	-1e10	8	-1e10	8	-1E+10	1	-1E+10	1	-1E+10	1	-1E+10	1	-1E+10	1	-1E+10	1
4902554	53	C	07/23/2022	21:57	-134.206	49.709	0	165.00	0	5.4330	0	33.7070	0	26.602	0	163.524	0	-1e10	8	-1e10	8	-1E+10	1	-1E+10	1	-1E+10	1	-1E+10	1	-1E+10	1	-1E+10	1
4902554	53	C	07/23/2022	21:57	-134.206	49.709	0	165.70	0	5.4300	0	33.7080	0	26.603	0	164.218	0	-1e10	8	-1e10	8	-1E+10	1	-1E+10	1	-1E+10	1	-1E+10	1	-1E+10	1	-1E+10	1
4902554	53	C	07/23/2022	21:57	-134.206	49.709	0	166.90	0	5.4260	0	33.7090	0	26.604	0	165.407	0	-1e10	8	-1e10	8	-1E+10	1	-1E+10	1	-1E+10	1	-1E+10	1	-1E+10	1	-1E+10	1
4902554	53	C	07/23/2022	21:57	-134.206	49.709	0	168.10	0	5.4240	0	33.7100	0	26.605	0	166.595	0	-1e10	8	-1e10	8	-1E+10	1	-1E+10	1	-1E+10	1	-1E+10	1	-1E+10	1	-1E+10	1
4902554	53	C	07/23/2022	21:57	-134.206	49.709	0	168.90	0	5.4200	0	33.7100	0	26.606	0	167.388	0	-1e10	8	-1e10	8	-1E+10	1	-1E+10	1	-1E+10	1	-1E+10	1	-1E+10	1	-1E+10	1
4902554	53	C	07/23/2022	21:57	-134.206	49.709	0	169.70	0	5.4110	0	33.7130	0	26.609	0	168.181	0	-1e10	8	-1e10	8	-1E+10	1	-1E+10	1	-1E+10	1	-1E+10	1	-1E+10	1	-1E+10	1
4902554	53	C	07/23/2022	21:57	-134.206	49.709	0	170.90	0	5.4060	0	33.7130	0	26.610	0	169.369	0	-1e10	8	-1e10	8	-1E+10	1	-1E+10	1	-1E+10	1	-1E+10	1	-1E+10	1	-1E+10	1
4902554	53	C	07/23/2022	21:57	-134.206	49.709	0	172.20	0	5.3930	0	33.7170	0	26.614	0	170.657	0	-1e10	8	-1e10	8	-1E+10	1	-1E+10	1	-1E+10	1	-1E+10	1	-1E+10	1	-1E+10	1
4902554	53	C	07/23/2022	21:57	-134.206	49.709	0	173.10	0	5.3890	0	33.7170	0	26.615	0	171.549	0	-1e10	8	-1e10	8	-1E+10	1	-1E+10	1	-1E+10	1	-1E+10	1	-1E+10	1	-1E+10	1
4902554	53	C	07/23/2022	21:57	-134.206	49.709	0	173.90	0	5.3780	0	33.7200	0	26.619	0	172.341	0	-1e10	8	-1e10	8	-1E+10	1	-1E+10	1	-1E+10	1	-1E+10	1	-1E+10	1	-1E+10	1
4902554	53	C	07/23/2022	21:57	-134.206	49.709	0	174.80	0	5.3650	0	33.7240	0	26.623	0	173.233	0	-1e10	8	-1e10	8	-1E+10	1	-1E+10	1	-1E+10	1	-1E+10	1	-1E+10	1	-1E+10	1
4902554	53	C	07/23/2022	21:57	-134.206	49.709	0	175.70	0	5.3530	0	33.7250	0	26.625	0	174.124	0	-1e10	8	-1e10	8	-1E+10	1	-1E+10	1	-1E+10	1	-1E+10	1	-1E+10	1	-1E+10	1
4902554	53	C	07/23/2022	21:57	-134.206	49.709	0	176.90	0	5.3460	0	33.7260	0	26.627	0	175.313	0	-1e10	8	-1e10	8	-1E+10	1	-1E+10	1	-1E+10	1	-1E+10	1	-1E+10	1	-1E+10	1
4902554	53	C	07/23/2022	21:57	-134.206	49.709	0	178.20	0	5.3360	0	33.7290	0	26.631	0	176.601	0	-1e10	8	-1e10	8	-1E+10	1	-1E+10	1	-1E+10	1	-1E+10	1	-1E+10	1	-1E+10	1
4902554	53	C	07/23/2022	21:57	-134.206	49.709	0	179.10	0	5.3130	0	33.7350	0	26.638	0	177.492	0	-1e10	8	-1e10	8	-1E+10	1	-1E+10	1	-1E+10	1	-1E+10	1	-1E+10	1	-1E+10	1
4902554	53	C	07/23/2022	21:57	-134.206	49.709	0	180.00	0	5.3050	0	33.7350	0	26.639	0	178.384	0	-1e10	8	-1e10	8	-1E+10	1	-1E+10	1	-1E+10	1	-1E+10	1	-1E+10	1	-1E+10	1
4902554	53	C	07/23/2022	21:57	-134.206	49.709	0	180.90	0	5.3030	0	33.7360	0	26.640	0	179.275	0	-1e10	8	-1e10	8	-1E+10	1	-1E+10	1	-1E+10	1	-1E+10	1	-1E+10	1	-1E+10	1
4902554	53	C	07/23/2022	21:57	-134.206	49.709	0	181.70	0	5.3000	0	33.7360	0	26.640	0	180.068	0	-1e10	8	-1e10	8	-1E+10	1	-1E+10	1	-1E+10	1	-1E+10	1	-1E+10	1	-1E+10	1
4902554	53	C	07/23/2022	21:57	-134.206	49.709	0	182.60	0	5.2980	0	33.7370	0	26.641	0	180.959	0	-1e10	8	-1e10	8	-1E+10	1	-1E+10	1	-1E+10	1	-1E+10	1	-1E+10	1	-1E+10	1
4902554	53	C	07/23/2022	21:57	-134.206	49.709	0	183.90	0	5.2720	0	33.7390	0	26.646	0	182.247	0	-1e10	8	-1e10	8	-1E+10	1	-1E+10	1	-1E+10	1	-1E+10	1	-1E+10	1	-1E+10	1
4902554	53	C	07/23/2022	21:57	-134.206	49.709	0	185.30	0	5.2550	0	33.7400	0	26.649	0	183.634	0	-1e10	8	-1e10	8	-1E+10	1	-1E+10	1	-1E+10	1	-1E+10	1	-1E+10	1	-1E+10	1
4902554	53	C	07/23/2022	21:57	-134.206	49.709	0	186.20	0	5.2500	0	33.7400	0	26.649	0	184.525	0	-1e10	8	-1e10	8	-1E+10	1	-1E+10	1	-1E+10	1	-1E+10	1	-1E+10	1	-1E+10	1
4902554	53	C	07/23/2022	21:57	-134.206	49.709	0	187.10	0	5.2390	0	33.7430	0	26.653	0	185.417	0	-1e10	8	-1e10	8	-1E+10	1	-1E+10	1	-1E+10	1	-1E+10	1	-1E+10	1	-1E+10	1
4902554	53	C	07/23/2022	21:57	-134.206	49.709	0	188.00	0	5.2320	0	33.7450	0	26.655	0	186.308	0	-1e10	8	-1e10	8	-1E+10	1	-1E+10	1	-1E+10	1	-1E+10	1	-1E+10	1	-1E+10	1
4902554	53	C	07/23/2022	21:57	-134.206	49.709	0	188.90	0	5.2300	0	33.7450	0	26.656	0	187.200	0	-1e10	8	-1e10	8	-1E+10	1	-1E+10	1	-1E+10	1	-1E+10	1	-1E+10	1	-1E+10	1
4902554	53	C	07/23/2022	21:57	-134.206	49.709	0	189.80	0	5.2230	0	33.7460	0	26.657	0	188.091	0	-1e10	8	-1e10	8	-1E+10	1	-1E+10	1	-1E+10	1	-1E+10	1	-1E+10	1	-1E+10	1
4902554	53	C	07/23/2022	21:57	-134.206	49.709	0	190.70	0	5.2110	0	33.7470	0	26.660	0	188.983	0	-1e10	8	-1e10	8	-1E+10	1	-1E+10	1	-1E+10	1	-1E+10	1	-1E+10	1	-1E+10	1
4902554	53	C	07/23/2022	21:57	-134.206	49.709	0	191.60	0	5.2090	0	33.7480	0	26.661	0	189.874	0	-1e10	8	-1e10	8	-1E+10	1	-1E+10	1	-1E+10	1	-1E+10	1	-1E+10	1	-1E+10	1
4902554	53	C	07/23/2022	21:57	-134.206	49.709	0	192.90	0	5.1960	0	33.7480	0	26.662	0	191.162	0	-1e10	8	-1e10	8	-1E+10	1	-1E+10	1	-1E+10	1	-1E+10	1	-1E+10	1	-1E+10	1
4902554	53	C	07/23/2022	21:57	-134.206	49.709	0	194.30	0	5.1650	0	33.7510	0	26.668	0	192.549	0	-1e10	8	-1e10	8	-1E+10	1	-1E+10	1	-1E+10	1	-1E+10	1	-1E+10	1	-1E+10	1
4902554	53	C	07/23/2022	21:57	-134.206	49.709	0	195.20	0	5.1600	0	33.7510	0	26.669	0	193.440	0	-1e10	8	-1e10	8	-1E+10	1	-1E+10	1	-1E+10	1	-1E+10	1	-1E+10	1	-1E+10	1
4902554	53	C	07/23/2022	21:57	-134.206	49.709	0	196.10	0	5.1520	0	33.7510	0	26.670	0	194.332	0	-1e10	8	-1e10	8	-1E+10	1	-1E+10	1	-1E+10	1	-1E+10	1	-1E+10	1	-1E+10	1
4902554	53	C	07/23/2022	21:57	-134.206	49.709	0	197.00	0	5.1220	0	33.7520	0	26.674	0	195.223	0	-1e10	8	-1e10	8	-1E+10	1	-1E+10	1	-1E+10	1	-1E+10	1	-1E+10	1	-1E+10	1
4902554	53	C	07/23/2022	21:57	-134.206	49.709	0	197.90	0	5.1130	0	33.7520	0	26.675	0	196.115	0	-1e10	8	-1e10	8	-1E+10	1	-1E+10	1	-1E+10	1	-1E+10	1	-1E+10	1	-1E+10	1
4902554	53	C	07/23/2022	21:57	-134.206	49.709	0	198.80	0	5.1090	0	33.7530	0	26.676	0	197.006	0	-1e10	8	-1e10	8	-1E+10	1	-1E+10	1	-1E+10	1	-1E+10	1	-1E+10	1	-1E+10	1
4902554	53	C	07/23/2022	21:57	-134.206	49.709	0	199.70	0	5.1040	0	33.7530	0	26.677	0	197.898	0	-1e10	8	-1e10	8	-1E+10	1	-1E+10	1	-1E+10	1	-1E+10	1	-1E+10	1	-1E+10	1
4902554	53	C	07/23/2022	21:57	-134.206	49.709	0	200.60	0	5.0980	0	33.7530	0	26.677	0	198.789	0	-1e10	8	-1e10	8	-1E+10	1	-1E+10	1	-1E+10	1	-1E+10	1	-1E+10	1	-1E+10	1
4902554	53	C	07/23/2022	21:57	-134.206	49.709	0	201.90	0	5.0830	0	33.7540	0	26.680	0	200.077	0	-1e10	8	-1e10	8	-1E+10	1	-1E+10	1	-1E+10	1	-1E+10	1	-1E+10	1	-1E+10	1
4902554	53	C	07/23/2022	21:57	-134.206	49.709	0	203.30	0	5.0570	0	33.7590	0	26.687	0	201.463	0	-1e10	8	-1e10	8	-1E+10	1	-1E+10	1	-1E+10	1	-1E+10	1	-1E+10	1	-1E+10	1
4902554	53	C	07/23/2022	21:57	-134.206	49.709	0	204.30	0	5.0500	0	33.7570	0	26.686	0	202.454	0	-1e10	8	-1e10	8	-1E+10	1	-1E+10	1	-1E+10	1	-1E+10	1	-1E+10	1	-1E+10	1
4902554	53	C	07/23/2022	21:57	-134.206	49.709	0	205.20	0	5.0340	0	33.7590	0	26.689	0	203.345	0	-1e10	8	-1e10	8	-1E+10	1	-1E+10	1	-1E+10	1	-1E+10	1	-1E+10	1	-1E+10	1
4902554	53	C	07/23/2022	21:57	-134.206	49.709	0	206.10	0	5.0410	0	33.7570	0	26.687	0	204.237	0	-1e10	8	-1e10	8	-1E+10	1	-1E+10	1	-1E+10	1	-1E+10	1	-1E+10	1	-1E+10	1
4902554	53	C	07/23/2022	21:57	-134.206	49.709	0	207.00	0	5.0600	0	33.7650	0	26.691	0	205.128	0	-1e10	8	-1e10	8	-1E+10	1	-1E+10	1	-1E+10	1	-1E+10	1	-1E+10	1	-1E+10	1
4902554	53	C	07/23/2022	21:57	-134.206	49.709	0	208.00	0	5.0570	0	33.7670	0	26.693	0	206.118	0	-1e10	8	-1e10	8	-1E+10	1	-1E+10	1	-1E+10	1	-1E+10	1	-1E+10	1	-1E+10	1
4902554	53	C	07/23/2022	21:57	-134.206	49.709	0	208.90	0	5.0520	0	33.7670	0	26.694	0	207.010	0	-1e10	8	-1e10	8	-1E+10	1	-1E+10	1	-1E+10	1	-1E+10	1	-1E+10	1	-1E+10	1
4902554	53	C	07/23/2022	21:57	-134.206	49.709	0	209.80	0	5.0410	0	33.7670	0	26.695	0	207.901	0	-1e10	8	-1e10	8	-1E+10	1	-1E+10	1	-1E+10	1	-1E+10	1	-1E+10	1	-1E+10	1
4902554	53	C	07/23/2022	21:57	-134.206	49.709	0	210.70	0	5.0220	0	33.7660	0	26.696	0	208.793	0	-1e10	8	-1e10	8	-1E+10	1	-1E+10	1	-1E+10	1	-1E+10	1	-1E+10	1	-1E+10	1
4902554	53	C	07/23/2022	21:57	-134.206	49.709	0	211.70	0	5.0180	0	33.7660	0	26.697	0	209.783	0	-1e10	8	-1e10	8	-1E+10	1	-1E+10	1	-1E+10	1	-1E+10	1	-1E+10	1	-1E+10	1
4902554	53	C	07/23/2022	21:57	-134.206	49.709	0	212.60	0	5.0110	0	33.7690	0	26.700	0	210.675	0	-1e10	8	-1e10	8	-1E+10	1	-1E+10	1	-1E+10	1	-1E+10	1	-1E+10	1	-1E+10	1
4902554	53	C	07/23/2022	21:57	-134.206	49.709	0	213.90	0	4.9780	0	33.7680	0	26.703	0	211.962	0	-1e10	8	-1e10	8	-1E+10	1	-1E+10	1	-1E+10	1	-1E+10	1	-1E+10	1	-1E+10	1
4902554	53	C	07/23/2022	21:57	-134.206	49.709	0	215.30	0	4.9710	0	33.7690	0	26.705	0	213.349	0	-1e10	8	-1e10	8	-1E+10	1	-1E+10	1	-1E+10	1	-1E+10	1	-1E+10	1	-1E+10	1
4902554	53	C	07/23/2022	21:57	-134.206	49.709	0	216.30	0	4.9700	0	33.7690	0	26.705	0	214.339	0	-1e10	8	-1e10	8	-1E+10	1	-1E+10	1	-1E+10	1	-1E+10	1	-1E+10	1	-1E+10	1
4902554	53	C	07/23/2022	21:57	-134.206	49.709	0	217.20	0	4.9670	0	33.7720	0	26.707	0	215.230	0	-1e10	8	-1e10	8	-1E+10	1	-1E+10	1	-1E+10	1	-1E+10	1	-1E+10	1	-1E+10	1
4902554	53	C	07/23/2022	21:57	-134.206	49.709	0	218.10	0	4.9550	0	33.7730	0	26.710	0	216.122	0	-1e10	8	-1e10	8	-1E+10	1	-1E+10	1	-1E+10	1	-1E+10	1	-1E+10	1	-1E+10	1
4902554	53	C	07/23/2022	21:57	-134.206	49.709	0	219.00	0	4.9460	0	33.7740	0	26.711	0	217.013	0	-1e10	8	-1e10	8	-1E+10	1	-1E+10	1	-1E+10	1	-1E+10	1	-1E+10	1	-1E+10	1
4902554	53	C	07/23/2022	21:57	-134.206	49.709	0	219.90	0	4.9440	0	33.7750	0	26.712	0	217.905	0	-1e10	8	-1e10	8	-1E+10	1	-1E+10	1	-1E+10	1	-1E+10	1	-1E+10	1	-1E+10	1
4902554	53	C	07/23/2022	21:57	-134.206	49.709	0	220.80	0	4.9450	0	33.7760	0	26.713	0	218.796	0	-1e10	8	-1e10	8	-1E+10	1	-1E+10	1	-1E+10	1	-1E+10	1	-1E+10	1	-1E+10	1
4902554	53	C	07/23/2022	21:57	-134.206	49.709	0	221.70	0	4.9460	0	33.7760	0	26.713	0	219.687	0	-1e10	8	-1e10	8	-1E+10	1	-1E+10	1	-1E+10	1	-1E+10	1	-1E+10	1	-1E+10	1
4902554	53	C	07/23/2022	21:57	-134.206	49.709	0	222.60	0	4.9330	0	33.7790	0	26.717	0	220.579	0	-1e10	8	-1e10	8	-1E+10	1	-1E+10	1	-1E+10	1	-1E+10	1	-1E+10	1	-1E+10	1
4902554	53	C	07/23/2022	21:57	-134.206	49.709	0	223.50	0	4.9190	0	33.7810	0	26.720	0	221.470	0	-1e10	8	-1e10	8	-1E+10	1	-1E+10	1	-1E+10	1	-1E+10	1	-1E+10	1	-1E+10	1
4902554	53	C	07/23/2022	21:57	-134.206	49.709	0	224.90	0	4.9120	0	33.7810	0	26.721	0	222.857	0	-1e10	8	-1e10	8	-1E+10	1	-1E+10	1	-1E+10	1	-1E+10	1	-1E+10	1	-1E+10	1
4902554	53	C	07/23/2022	21:57	-134.206	49.709	0	226.30	0	4.9130	0	33.7840	0	26.723	0	224.243	0	-1e10	8	-1e10	8	-1E+10	1	-1E+10	1	-1E+10	1	-1E+10	1	-1E+10	1	-1E+10	1
4902554	53	C	07/23/2022	21:57	-134.206	49.709	0	227.20	0	4.9140	0	33.7860	0	26.725	0	225.134	0	-1e10	8	-1e10	8	-1E+10	1	-1E+10	1	-1E+10	1	-1E+10	1	-1E+10	1	-1E+10	1
4902554	53	C	07/23/2022	21:57	-134.206	49.709	0	228.10	0	4.9040	0	33.7870	0	26.727	0	226.026	0	-1e10	8	-1e10	8	-1E+10	1	-1E+10	1	-1E+10	1	-1E+10	1	-1E+10	1	-1E+10	1
4902554	53	C	07/23/2022	21:57	-134.206	49.709	0	229.00	0	4.8990	0	33.7880	0	26.728	0	226.917	0	-1e10	8	-1e10	8	-1E+10	1	-1E+10	1	-1E+10	1	-1E+10	1	-1E+10	1	-1E+10	1
4902554	53	C	07/23/2022	21:57	-134.206	49.709	0	230.00	0	4.9020	0	33.7880	0	26.728	0	227.907	0	-1e10	8	-1e10	8	-1E+10	1	-1E+10	1	-1E+10	1	-1E+10	1	-1E+10	1	-1E+10	1
4902554	53	C	07/23/2022	21:57	-134.206	49.709	0	230.90	0	4.8970	0	33.7900	0	26.730	0	228.799	0	-1e10	8	-1e10	8	-1E+10	1	-1E+10	1	-1E+10	1	-1E+10	1	-1E+10	1	-1E+10	1
4902554	53	C	07/23/2022	21:57	-134.206	49.709	0	231.80	0	4.8990	0	33.7900	0	26.729	0	229.690	0	-1e10	8	-1e10	8	-1E+10	1	-1E+10	1	-1E+10	1	-1E+10	1	-1E+10	1	-1E+10	1
4902554	53	C	07/23/2022	21:57	-134.206	49.709	0	232.70	0	4.8970	0	33.7930	0	26.732	0	230.581	0	-1e10	8	-1e10	8	-1E+10	1	-1E+10	1	-1E+10	1	-1E+10	1	-1E+10	1	-1E+10	1
4902554	53	C	07/23/2022	21:57	-134.206	49.709	0	233.60	0	4.8610	0	33.7950	0	26.738	0	231.473	0	-1e10	8	-1e10	8	-1E+10	1	-1E+10	1	-1E+10	1	-1E+10	1	-1E+10	1	-1E+10	1
4902554	53	C	07/23/2022	21:57	-134.206	49.709	0	234.90	0	4.8420	0	33.7920	0	26.737	0	232.760	0	-1e10	8	-1e10	8	-1E+10	1	-1E+10	1	-1E+10	1	-1E+10	1	-1E+10	1	-1E+10	1
4902554	53	C	07/23/2022	21:57	-134.206	49.709	0	236.30	0	4.8320	0	33.7910	0	26.738	0	234.146	0	-1e10	8	-1e10	8	-1E+10	1	-1E+10	1	-1E+10	1	-1E+10	1	-1E+10	1	-1E+10	1
4902554	53	C	07/23/2022	21:57	-134.206	49.709	0	237.10	0	4.8280	0	33.7960	0	26.742	0	234.939	0	-1e10	8	-1e10	8	-1E+10	1	-1E+10	1	-1E+10	1	-1E+10	1	-1E+10	1	-1E+10	1
4902554	53	C	07/23/2022	21:57	-134.206	49.709	0	238.00	0	4.8250	0	33.7970	0	26.743	0	235.830	0	-1e10	8	-1e10	8	-1E+10	1	-1E+10	1	-1E+10	1	-1E+10	1	-1E+10	1	-1E+10	1
4902554	53	C	07/23/2022	21:57	-134.206	49.709	0	238.90	0	4.8230	0	33.7980	0	26.744	0	236.721	0	-1e10	8	-1e10	8	-1E+10	1	-1E+10	1	-1E+10	1	-1E+10	1	-1E+10	1	-1E+10	1
4902554	53	C	07/23/2022	21:57	-134.206	49.709	0	239.80	0	4.8180	0	33.7990	0	26.746	0	237.613	0	-1e10	8	-1e10	8	-1E+10	1	-1E+10	1	-1E+10	1	-1E+10	1	-1E+10	1	-1E+10	1
4902554	53	C	07/23/2022	21:57	-134.206	49.709	0	240.70	0	4.8150	0	33.7990	0	26.746	0	238.504	0	-1e10	8	-1e10	8	-1E+10	1	-1E+10	1	-1E+10	1	-1E+10	1	-1E+10	1	-1E+10	1
4902554	53	C	07/23/2022	21:57	-134.206	49.709	0	241.60	0	4.8130	0	33.7990	0	26.746	0	239.395	0	-1e10	8	-1e10	8	-1E+10	1	-1E+10	1	-1E+10	1	-1E+10	1	-1E+10	1	-1E+10	1
4902554	53	C	07/23/2022	21:57	-134.206	49.709	0	242.90	0	4.8060	0	33.8000	0	26.748	0	240.682	0	-1e10	8	-1e10	8	-1E+10	1	-1E+10	1	-1E+10	1	-1E+10	1	-1E+10	1	-1E+10	1
4902554	53	C	07/23/2022	21:57	-134.206	49.709	0	244.20	0	4.8040	0	33.8000	0	26.748	0	241.970	0	-1e10	8	-1e10	8	-1E+10	1	-1E+10	1	-1E+10	1	-1E+10	1	-1E+10	1	-1E+10	1
4902554	53	C	07/23/2022	21:57	-134.206	49.709	0	245.10	0	4.7970	0	33.8000	0	26.749	0	242.861	0	-1e10	8	-1e10	8	-1E+10	1	-1E+10	1	-1E+10	1	-1E+10	1	-1E+10	1	-1E+10	1
4902554	53	C	07/23/2022	21:57	-134.206	49.709	0	246.00	0	4.7950	0	33.8000	0	26.749	0	243.752	0	-1e10	8	-1e10	8	-1E+10	1	-1E+10	1	-1E+10	1	-1E+10	1	-1E+10	1	-1E+10	1
4902554	53	C	07/23/2022	21:57	-134.206	49.709	0	246.90	0	4.7910	0	33.8000	0	26.750	0	244.644	0	-1e10	8	-1e10	8	-1E+10	1	-1E+10	1	-1E+10	1	-1E+10	1	-1E+10	1	-1E+10	1
4902554	53	C	07/23/2022	21:57	-134.206	49.709	0	247.70	0	4.7840	0	33.8010	0	26.751	0	245.436	0	-1e10	8	-1e10	8	-1E+10	1	-1E+10	1	-1E+10	1	-1E+10	1	-1E+10	1	-1E+10	1
4902554	53	C	07/23/2022	21:57	-134.206	49.709	0	248.60	0	4.7560	0	33.8080	0	26.760	0	246.327	0	-1e10	8	-1e10	8	-1E+10	1	-1E+10	1	-1E+10	1	-1E+10	1	-1E+10	1	-1E+10	1
4902554	53	C	07/23/2022	21:57	-134.206	49.709	0	249.90	0	4.7260	0	33.8100	0	26.765	0	247.614	0	-1e10	8	-1e10	8	-1E+10	1	-1E+10	1	-1E+10	1	-1E+10	1	-1E+10	1	-1E+10	1
4902554	53	C	07/23/2022	21:57	-134.206	49.709	0	251.30	0	4.7200	0	33.8120	0	26.767	0	249.001	0	-1e10	8	-1e10	8	-1E+10	1	-1E+10	1	-1E+10	1	-1E+10	1	-1E+10	1	-1E+10	1
4902554	53	C	07/23/2022	21:57	-134.206	49.709	0	252.20	0	4.7200	0	33.8120	0	26.767	0	249.892	0	-1e10	8	-1e10	8	-1E+10	1	-1E+10	1	-1E+10	1	-1E+10	1	-1E+10	1	-1E+10	1
4902554	53	C	07/23/2022	21:57	-134.206	49.709	0	253.00	0	4.7190	0	33.8120	0	26.767	0	250.684	0	-1e10	8	-1e10	8	-1E+10	1	-1E+10	1	-1E+10	1	-1E+10	1	-1E+10	1	-1E+10	1
4902554	53	C	07/23/2022	21:57	-134.206	49.709	0	253.90	0	4.7160	0	33.8150	0	26.770	0	251.575	0	-1e10	8	-1e10	8	-1E+10	1	-1E+10	1	-1E+10	1	-1E+10	1	-1E+10	1	-1E+10	1
4902554	53	C	07/23/2022	21:57	-134.206	49.709	0	254.70	0	4.7110	0	33.8160	0	26.771	0	252.368	0	-1e10	8	-1e10	8	-1E+10	1	-1E+10	1	-1E+10	1	-1E+10	1	-1E+10	1	-1E+10	1
4902554	53	C	07/23/2022	21:57	-134.206	49.709	0	255.60	0	4.7080	0	33.8170	0	26.772	0	253.259	0	-1e10	8	-1e10	8	-1E+10	1	-1E+10	1	-1E+10	1	-1E+10	1	-1E+10	1	-1E+10	1
4902554	53	C	07/23/2022	21:57	-134.206	49.709	0	256.90	0	4.7080	0	33.8170	0	26.772	0	254.546	0	-1e10	8	-1e10	8	-1E+10	1	-1E+10	1	-1E+10	1	-1E+10	1	-1E+10	1	-1E+10	1
4902554	53	C	07/23/2022	21:57	-134.206	49.709	0	258.20	0	4.7070	0	33.8170	0	26.772	0	255.833	0	-1e10	8	-1e10	8	-1E+10	1	-1E+10	1	-1E+10	1	-1E+10	1	-1E+10	1	-1E+10	1
4902554	53	C	07/23/2022	21:57	-134.206	49.709	0	259.10	0	4.7060	0	33.8170	0	26.773	0	256.725	0	-1e10	8	-1e10	8	-1E+10	1	-1E+10	1	-1E+10	1	-1E+10	1	-1E+10	1	-1E+10	1
4902554	53	C	07/23/2022	21:57	-134.206	49.709	0	259.90	0	4.7040	0	33.8180	0	26.774	0	257.517	0	-1e10	8	-1e10	8	-1E+10	1	-1E+10	1	-1E+10	1	-1E+10	1	-1E+10	1	-1E+10	1
4902554	53	C	07/23/2022	21:57	-134.206	49.709	0	260.80	0	4.7010	0	33.8190	0	26.775	0	258.408	0	-1e10	8	-1e10	8	-1E+10	1	-1E+10	1	-1E+10	1	-1E+10	1	-1E+10	1	-1E+10	1
4902554	53	C	07/23/2022	21:57	-134.206	49.709	0	261.60	0	4.6990	0	33.8200	0	26.776	0	259.200	0	-1e10	8	-1e10	8	-1E+10	1	-1E+10	1	-1E+10	1	-1E+10	1	-1E+10	1	-1E+10	1
4902554	53	C	07/23/2022	21:57	-134.206	49.709	0	262.90	0	4.6960	0	33.8210	0	26.777	0	260.487	0	-1e10	8	-1e10	8	-1E+10	1	-1E+10	1	-1E+10	1	-1E+10	1	-1E+10	1	-1E+10	1
4902554	53	C	07/23/2022	21:57	-134.206	49.709	0	264.20	0	4.6880	0	33.8220	0	26.779	0	261.775	0	-1e10	8	-1e10	8	-1E+10	1	-1E+10	1	-1E+10	1	-1E+10	1	-1E+10	1	-1E+10	1
4902554	53	C	07/23/2022	21:57	-134.206	49.709	0	265.00	0	4.6750	0	33.8260	0	26.783	0	262.567	0	-1e10	8	-1e10	8	-1E+10	1	-1E+10	1	-1E+10	1	-1E+10	1	-1E+10	1	-1E+10	1
4902554	53	C	07/23/2022	21:57	-134.206	49.709	0	265.90	0	4.6720	0	33.8270	0	26.784	0	263.458	0	-1e10	8	-1e10	8	-1E+10	1	-1E+10	1	-1E+10	1	-1E+10	1	-1E+10	1	-1E+10	1
4902554	53	C	07/23/2022	21:57	-134.206	49.709	0	266.70	0	4.6720	0	33.8270	0	26.784	0	264.250	0	-1e10	8	-1e10	8	-1E+10	1	-1E+10	1	-1E+10	1	-1E+10	1	-1E+10	1	-1E+10	1
4902554	53	C	07/23/2022	21:57	-134.206	49.709	0	267.60	0	4.6710	0	33.8270	0	26.784	0	265.141	0	-1e10	8	-1e10	8	-1E+10	1	-1E+10	1	-1E+10	1	-1E+10	1	-1E+10	1	-1E+10	1
4902554	53	C	07/23/2022	21:57	-134.206	49.709	0	268.90	0	4.6690	0	33.8270	0	26.785	0	266.428	0	-1e10	8	-1e10	8	-1E+10	1	-1E+10	1	-1E+10	1	-1E+10	1	-1E+10	1	-1E+10	1
4902554	53	C	07/23/2022	21:57	-134.206	49.709	0	270.20	0	4.6660	0	33.8280	0	26.786	0	267.716	0	-1e10	8	-1e10	8	-1E+10	1	-1E+10	1	-1E+10	1	-1E+10	1	-1E+10	1	-1E+10	1
4902554	53	C	07/23/2022	21:57	-134.206	49.709	0	271.00	0	4.6650	0	33.8280	0	26.786	0	268.508	0	-1e10	8	-1e10	8	-1E+10	1	-1E+10	1	-1E+10	1	-1E+10	1	-1E+10	1	-1E+10	1
4902554	53	C	07/23/2022	21:57	-134.206	49.709	0	271.90	0	4.6550	0	33.8310	0	26.789	0	269.399	0	-1e10	8	-1e10	8	-1E+10	1	-1E+10	1	-1E+10	1	-1E+10	1	-1E+10	1	-1E+10	1
4902554	53	C	07/23/2022	21:57	-134.206	49.709	0	272.70	0	4.6530	0	33.8310	0	26.790	0	270.191	0	-1e10	8	-1e10	8	-1E+10	1	-1E+10	1	-1E+10	1	-1E+10	1	-1E+10	1	-1E+10	1
4902554	53	C	07/23/2022	21:57	-134.206	49.709	0	274.00	0	4.6450	0	33.8320	0	26.791	0	271.478	0	-1e10	8	-1e10	8	-1E+10	1	-1E+10	1	-1E+10	1	-1E+10	1	-1E+10	1	-1E+10	1
4902554	53	C	07/23/2022	21:57	-134.206	49.709	0	275.30	0	4.6390	0	33.8320	0	26.792	0	272.765	0	-1e10	8	-1e10	8	-1E+10	1	-1E+10	1	-1E+10	1	-1E+10	1	-1E+10	1	-1E+10	1
4902554	53	C	07/23/2022	21:57	-134.206	49.709	0	276.20	0	4.6330	0	33.8330	0	26.793	0	273.656	0	-1e10	8	-1e10	8	-1E+10	1	-1E+10	1	-1E+10	1	-1E+10	1	-1E+10	1	-1E+10	1
4902554	53	C	07/23/2022	21:57	-134.206	49.709	0	277.10	0	4.6270	0	33.8340	0	26.795	0	274.548	0	-1e10	8	-1e10	8	-1E+10	1	-1E+10	1	-1E+10	1	-1E+10	1	-1E+10	1	-1E+10	1
4902554	53	C	07/23/2022	21:57	-134.206	49.709	0	277.90	0	4.6150	0	33.8340	0	26.796	0	275.340	0	-1e10	8	-1e10	8	-1E+10	1	-1E+10	1	-1E+10	1	-1E+10	1	-1E+10	1	-1E+10	1
4902554	53	C	07/23/2022	21:57	-134.206	49.709	0	278.80	0	4.6090	0	33.8350	0	26.798	0	276.231	0	-1e10	8	-1e10	8	-1E+10	1	-1E+10	1	-1E+10	1	-1E+10	1	-1E+10	1	-1E+10	1
4902554	53	C	07/23/2022	21:57	-134.206	49.709	0	279.70	0	4.5970	0	33.8360	0	26.800	0	277.122	0	-1e10	8	-1e10	8	-1E+10	1	-1E+10	1	-1E+10	1	-1E+10	1	-1E+10	1	-1E+10	1
4902554	53	C	07/23/2022	21:57	-134.206	49.709	0	280.60	0	4.5970	0	33.8360	0	26.800	0	278.013	0	-1e10	8	-1e10	8	-1E+10	1	-1E+10	1	-1E+10	1	-1E+10	1	-1E+10	1	-1E+10	1
4902554	53	C	07/23/2022	21:57	-134.206	49.709	0	281.90	0	4.5850	0	33.8370	0	26.802	0	279.300	0	-1e10	8	-1e10	8	-1E+10	1	-1E+10	1	-1E+10	1	-1E+10	1	-1E+10	1	-1E+10	1
4902554	53	C	07/23/2022	21:57	-134.206	49.709	0	283.20	0	4.5740	0	33.8370	0	26.803	0	280.587	0	-1e10	8	-1e10	8	-1E+10	1	-1E+10	1	-1E+10	1	-1E+10	1	-1E+10	1	-1E+10	1
4902554	53	C	07/23/2022	21:57	-134.206	49.709	0	284.10	0	4.5710	0	33.8390	0	26.805	0	281.478	0	-1e10	8	-1e10	8	-1E+10	1	-1E+10	1	-1E+10	1	-1E+10	1	-1E+10	1	-1E+10	1
4902554	53	C	07/23/2022	21:57	-134.206	49.709	0	285.00	0	4.5680	0	33.8410	0	26.807	0	282.369	0	-1e10	8	-1e10	8	-1E+10	1	-1E+10	1	-1E+10	1	-1E+10	1	-1E+10	1	-1E+10	1
4902554	53	C	07/23/2022	21:57	-134.206	49.709	0	285.90	0	4.5680	0	33.8440	0	26.809	0	283.261	0	-1e10	8	-1e10	8	-1E+10	1	-1E+10	1	-1E+10	1	-1E+10	1	-1E+10	1	-1E+10	1
4902554	53	C	07/23/2022	21:57	-134.206	49.709	0	286.80	0	4.5640	0	33.8450	0	26.810	0	284.152	0	-1e10	8	-1e10	8	-1E+10	1	-1E+10	1	-1E+10	1	-1E+10	1	-1E+10	1	-1E+10	1
4902554	53	C	07/23/2022	21:57	-134.206	49.709	0	287.70	0	4.5640	0	33.8460	0	26.811	0	285.043	0	-1e10	8	-1e10	8	-1E+10	1	-1E+10	1	-1E+10	1	-1E+10	1	-1E+10	1	-1E+10	1
4902554	53	C	07/23/2022	21:57	-134.206	49.709	0	288.60	0	4.5610	0	33.8470	0	26.812	0	285.934	0	-1e10	8	-1e10	8	-1E+10	1	-1E+10	1	-1E+10	1	-1E+10	1	-1E+10	1	-1E+10	1
4902554	53	C	07/23/2022	21:57	-134.206	49.709	0	289.90	0	4.5530	0	33.8460	0	26.812	0	287.221	0	-1e10	8	-1e10	8	-1E+10	1	-1E+10	1	-1E+10	1	-1E+10	1	-1E+10	1	-1E+10	1
4902554	53	C	07/23/2022	21:57	-134.206	49.709	0	291.40	0	4.5240	0	33.8470	0	26.816	0	288.706	0	-1e10	8	-1e10	8	-1E+10	1	-1E+10	1	-1E+10	1	-1E+10	1	-1E+10	1	-1E+10	1
4902554	53	C	07/23/2022	21:57	-134.206	49.709	0	292.20	0	4.5360	0	33.8490	0	26.817	0	289.498	0	-1e10	8	-1e10	8	-1E+10	1	-1E+10	1	-1E+10	1	-1E+10	1	-1E+10	1	-1E+10	1
4902554	53	C	07/23/2022	21:57	-134.206	49.709	0	293.10	0	4.5460	0	33.8550	0	26.820	0	290.389	0	-1e10	8	-1e10	8	-1E+10	1	-1E+10	1	-1E+10	1	-1E+10	1	-1E+10	1	-1E+10	1
4902554	53	C	07/23/2022	21:57	-134.206	49.709	0	294.00	0	4.5460	0	33.8570	0	26.822	0	291.280	0	-1e10	8	-1e10	8	-1E+10	1	-1E+10	1	-1E+10	1	-1E+10	1	-1E+10	1	-1E+10	1
4902554	53	C	07/23/2022	21:57	-134.206	49.709	0	294.90	0	4.5450	0	33.8570	0	26.822	0	292.171	0	-1e10	8	-1e10	8	-1E+10	1	-1E+10	1	-1E+10	1	-1E+10	1	-1E+10	1	-1E+10	1
4902554	53	C	07/23/2022	21:57	-134.206	49.709	0	295.80	0	4.5410	0	33.8590	0	26.824	0	293.062	0	-1e10	8	-1e10	8	-1E+10	1	-1E+10	1	-1E+10	1	-1E+10	1	-1E+10	1	-1E+10	1
4902554	53	C	07/23/2022	21:57	-134.206	49.709	0	296.70	0	4.5370	0	33.8610	0	26.826	0	293.953	0	-1e10	8	-1e10	8	-1E+10	1	-1E+10	1	-1E+10	1	-1E+10	1	-1E+10	1	-1E+10	1
4902554	53	C	07/23/2022	21:57	-134.206	49.709	0	297.60	0	4.5310	0	33.8620	0	26.828	0	294.844	0	-1e10	8	-1e10	8	-1E+10	1	-1E+10	1	-1E+10	1	-1E+10	1	-1E+10	1	-1E+10	1
4902554	53	C	07/23/2022	21:57	-134.206	49.709	0	298.90	0	4.5290	0	33.8620	0	26.828	0	296.131	0	-1e10	8	-1e10	8	-1E+10	1	-1E+10	1	-1E+10	1	-1E+10	1	-1E+10	1	-1E+10	1
4902554	53	C	07/23/2022	21:57	-134.206	49.709	0	300.30	0	4.5280	0	33.8630	0	26.829	0	297.517	0	-1e10	8	-1e10	8	-1E+10	1	-1E+10	1	-1E+10	1	-1E+10	1	-1E+10	1	-1E+10	1
4902554	53	C	07/23/2022	21:57	-134.206	49.709	0	301.10	0	4.5250	0	33.8640	0	26.830	0	298.309	0	-1e10	8	-1e10	8	-1E+10	1	-1E+10	1	-1E+10	1	-1E+10	1	-1E+10	1	-1E+10	1
4902554	53	C	07/23/2022	21:57	-134.206	49.709	0	302.00	0	4.5210	0	33.8660	0	26.832	0	299.200	0	-1e10	8	-1e10	8	-1E+10	1	-1E+10	1	-1E+10	1	-1E+10	1	-1E+10	1	-1E+10	1
4902554	53	C	07/23/2022	21:57	-134.206	49.709	0	302.90	0	4.5190	0	33.8680	0	26.834	0	300.091	0	-1e10	8	-1e10	8	-1E+10	1	-1E+10	1	-1E+10	1	-1E+10	1	-1E+10	1	-1E+10	1
4902554	53	C	07/23/2022	21:57	-134.206	49.709	0	303.80	0	4.5180	0	33.8700	0	26.835	0	300.982	0	-1e10	8	-1e10	8	-1E+10	1	-1E+10	1	-1E+10	1	-1E+10	1	-1E+10	1	-1E+10	1
4902554	53	C	07/23/2022	21:57	-134.206	49.709	0	304.70	0	4.5140	0	33.8720	0	26.837	0	301.873	0	-1e10	8	-1e10	8	-1E+10	1	-1E+10	1	-1E+10	1	-1E+10	1	-1E+10	1	-1E+10	1
4902554	53	C	07/23/2022	21:57	-134.206	49.709	0	305.90	0	4.5100	0	33.8730	0	26.839	0	303.061	0	-1e10	8	-1e10	8	-1E+10	1	-1E+10	1	-1E+10	1	-1E+10	1	-1E+10	1	-1E+10	1
4902554	53	C	07/23/2022	21:57	-134.206	49.709	0	307.30	0	4.5010	0	33.8760	0	26.842	0	304.447	0	-1e10	8	-1e10	8	-1E+10	1	-1E+10	1	-1E+10	1	-1E+10	1	-1E+10	1	-1E+10	1
4902554	53	C	07/23/2022	21:57	-134.206	49.709	0	308.20	0	4.5000	0	33.8760	0	26.842	0	305.338	0	-1e10	8	-1e10	8	-1E+10	1	-1E+10	1	-1E+10	1	-1E+10	1	-1E+10	1	-1E+10	1
4902554	53	C	07/23/2022	21:57	-134.206	49.709	0	309.10	0	4.4990	0	33.8770	0	26.843	0	306.229	0	-1e10	8	-1e10	8	-1E+10	1	-1E+10	1	-1E+10	1	-1E+10	1	-1E+10	1	-1E+10	1
4902554	53	C	07/23/2022	21:57	-134.206	49.709	0	310.00	0	4.4970	0	33.8780	0	26.844	0	307.120	0	-1e10	8	-1e10	8	-1E+10	1	-1E+10	1	-1E+10	1	-1E+10	1	-1E+10	1	-1E+10	1
4902554	53	C	07/23/2022	21:57	-134.206	49.709	0	310.90	0	4.4980	0	33.8770	0	26.843	0	308.011	0	-1e10	8	-1e10	8	-1E+10	1	-1E+10	1	-1E+10	1	-1E+10	1	-1E+10	1	-1E+10	1
4902554	53	C	07/23/2022	21:57	-134.206	49.709	0	311.80	0	4.4970	0	33.8770	0	26.843	0	308.902	0	-1e10	8	-1e10	8	-1E+10	1	-1E+10	1	-1E+10	1	-1E+10	1	-1E+10	1	-1E+10	1
4902554	53	C	07/23/2022	21:57	-134.206	49.709	0	312.70	0	4.4950	0	33.8780	0	26.844	0	309.793	0	-1e10	8	-1e10	8	-1E+10	1	-1E+10	1	-1E+10	1	-1E+10	1	-1E+10	1	-1E+10	1
4902554	53	C	07/23/2022	21:57	-134.206	49.709	0	313.90	0	4.4920	0	33.8780	0	26.845	0	310.981	0	-1e10	8	-1e10	8	-1E+10	1	-1E+10	1	-1E+10	1	-1E+10	1	-1E+10	1	-1E+10	1
4902554	53	C	07/23/2022	21:57	-134.206	49.709	0	315.30	0	4.4830	0	33.8820	0	26.849	0	312.367	0	-1e10	8	-1e10	8	-1E+10	1	-1E+10	1	-1E+10	1	-1E+10	1	-1E+10	1	-1E+10	1
4902554	53	C	07/23/2022	21:57	-134.206	49.709	0	316.20	0	4.4810	0	33.8840	0	26.851	0	313.258	0	-1e10	8	-1e10	8	-1E+10	1	-1E+10	1	-1E+10	1	-1E+10	1	-1E+10	1	-1E+10	1
4902554	53	C	07/23/2022	21:57	-134.206	49.709	0	317.10	0	4.4800	0	33.8840	0	26.851	0	314.149	0	-1e10	8	-1e10	8	-1E+10	1	-1E+10	1	-1E+10	1	-1E+10	1	-1E+10	1	-1E+10	1
4902554	53	C	07/23/2022	21:57	-134.206	49.709	0	318.00	0	4.4800	0	33.8830	0	26.850	0	315.040	0	-1e10	8	-1e10	8	-1E+10	1	-1E+10	1	-1E+10	1	-1E+10	1	-1E+10	1	-1E+10	1
4902554	53	C	07/23/2022	21:57	-134.206	49.709	0	318.80	0	4.4770	0	33.8840	0	26.851	0	315.832	0	-1e10	8	-1e10	8	-1E+10	1	-1E+10	1	-1E+10	1	-1E+10	1	-1E+10	1	-1E+10	1
4902554	53	C	07/23/2022	21:57	-134.206	49.709	0	319.70	0	4.4730	0	33.8860	0	26.853	0	316.723	0	-1e10	8	-1e10	8	-1E+10	1	-1E+10	1	-1E+10	1	-1E+10	1	-1E+10	1	-1E+10	1
4902554	53	C	07/23/2022	21:57	-134.206	49.709	0	320.60	0	4.4680	0	33.8880	0	26.855	0	317.614	0	-1e10	8	-1e10	8	-1E+10	1	-1E+10	1	-1E+10	1	-1E+10	1	-1E+10	1	-1E+10	1
4902554	53	C	07/23/2022	21:57	-134.206	49.709	0	321.90	0	4.4670	0	33.8890	0	26.856	0	318.900	0	-1e10	8	-1e10	8	-1E+10	1	-1E+10	1	-1E+10	1	-1E+10	1	-1E+10	1	-1E+10	1
4902554	53	C	07/23/2022	21:57	-134.206	49.709	0	323.20	0	4.4680	0	33.8890	0	26.856	0	320.187	0	-1e10	8	-1e10	8	-1E+10	1	-1E+10	1	-1E+10	1	-1E+10	1	-1E+10	1	-1E+10	1
4902554	53	C	07/23/2022	21:57	-134.206	49.709	0	324.10	0	4.4610	0	33.8930	0	26.860	0	321.078	0	-1e10	8	-1e10	8	-1E+10	1	-1E+10	1	-1E+10	1	-1E+10	1	-1E+10	1	-1E+10	1
4902554	53	C	07/23/2022	21:57	-134.206	49.709	0	325.00	0	4.4570	0	33.8940	0	26.861	0	321.969	0	-1e10	8	-1e10	8	-1E+10	1	-1E+10	1	-1E+10	1	-1E+10	1	-1E+10	1	-1E+10	1
4902554	53	C	07/23/2022	21:57	-134.206	49.709	0	325.80	0	4.4530	0	33.8950	0	26.862	0	322.761	0	-1e10	8	-1e10	8	-1E+10	1	-1E+10	1	-1E+10	1	-1E+10	1	-1E+10	1	-1E+10	1
4902554	53	C	07/23/2022	21:57	-134.206	49.709	0	326.70	0	4.4470	0	33.8970	0	26.865	0	323.652	0	-1e10	8	-1e10	8	-1E+10	1	-1E+10	1	-1E+10	1	-1E+10	1	-1E+10	1	-1E+10	1
4902554	53	C	07/23/2022	21:57	-134.206	49.709	0	327.60	0	4.4430	0	33.9000	0	26.867	0	324.543	0	-1e10	8	-1e10	8	-1E+10	1	-1E+10	1	-1E+10	1	-1E+10	1	-1E+10	1	-1E+10	1
4902554	53	C	07/23/2022	21:57	-134.206	49.709	0	328.90	0	4.4370	0	33.9040	0	26.871	0	325.830	0	-1e10	8	-1e10	8	-1E+10	1	-1E+10	1	-1E+10	1	-1E+10	1	-1E+10	1	-1E+10	1
4902554	53	C	07/23/2022	21:57	-134.206	49.709	0	330.30	0	4.4300	0	33.9070	0	26.874	0	327.216	0	-1e10	8	-1e10	8	-1E+10	1	-1E+10	1	-1E+10	1	-1E+10	1	-1E+10	1	-1E+10	1
4902554	53	C	07/23/2022	21:57	-134.206	49.709	0	331.20	0	4.4270	0	33.9090	0	26.876	0	328.106	0	-1e10	8	-1e10	8	-1E+10	1	-1E+10	1	-1E+10	1	-1E+10	1	-1E+10	1	-1E+10	1
4902554	53	C	07/23/2022	21:57	-134.206	49.709	0	332.10	0	4.4250	0	33.9100	0	26.877	0	328.997	0	-1e10	8	-1e10	8	-1E+10	1	-1E+10	1	-1E+10	1	-1E+10	1	-1E+10	1	-1E+10	1
4902554	53	C	07/23/2022	21:57	-134.206	49.709	0	333.00	0	4.4190	0	33.9130	0	26.880	0	329.888	0	-1e10	8	-1e10	8	-1E+10	1	-1E+10	1	-1E+10	1	-1E+10	1	-1E+10	1	-1E+10	1
4902554	53	C	07/23/2022	21:57	-134.206	49.709	0	333.90	0	4.4150	0	33.9150	0	26.882	0	330.779	0	-1e10	8	-1e10	8	-1E+10	1	-1E+10	1	-1E+10	1	-1E+10	1	-1E+10	1	-1E+10	1
4902554	53	C	07/23/2022	21:57	-134.206	49.709	0	334.80	0	4.4120	0	33.9170	0	26.884	0	331.670	0	-1e10	8	-1e10	8	-1E+10	1	-1E+10	1	-1E+10	1	-1E+10	1	-1E+10	1	-1E+10	1
4902554	53	C	07/23/2022	21:57	-134.206	49.709	0	335.70	0	4.4110	0	33.9180	0	26.885	0	332.561	0	-1e10	8	-1e10	8	-1E+10	1	-1E+10	1	-1E+10	1	-1E+10	1	-1E+10	1	-1E+10	1
4902554	53	C	07/23/2022	21:57	-134.206	49.709	0	336.60	0	4.4080	0	33.9190	0	26.886	0	333.452	0	-1e10	8	-1e10	8	-1E+10	1	-1E+10	1	-1E+10	1	-1E+10	1	-1E+10	1	-1E+10	1
4902554	53	C	07/23/2022	21:57	-134.206	49.709	0	337.90	0	4.4030	0	33.9230	0	26.890	0	334.738	0	-1e10	8	-1e10	8	-1E+10	1	-1E+10	1	-1E+10	1	-1E+10	1	-1E+10	1	-1E+10	1
4902554	53	C	07/23/2022	21:57	-134.206	49.709	0	339.30	0	4.3990	0	33.9260	0	26.893	0	336.124	0	-1e10	8	-1e10	8	-1E+10	1	-1E+10	1	-1E+10	1	-1E+10	1	-1E+10	1	-1E+10	1
4902554	53	C	07/23/2022	21:57	-134.206	49.709	0	340.20	0	4.3960	0	33.9280	0	26.895	0	337.015	0	-1e10	8	-1e10	8	-1E+10	1	-1E+10	1	-1E+10	1	-1E+10	1	-1E+10	1	-1E+10	1
4902554	53	C	07/23/2022	21:57	-134.206	49.709	0	341.10	0	4.3950	0	33.9280	0	26.895	0	337.906	0	-1e10	8	-1e10	8	-1E+10	1	-1E+10	1	-1E+10	1	-1E+10	1	-1E+10	1	-1E+10	1
4902554	53	C	07/23/2022	21:57	-134.206	49.709	0	342.00	0	4.3940	0	33.9290	0	26.896	0	338.797	0	-1e10	8	-1e10	8	-1E+10	1	-1E+10	1	-1E+10	1	-1E+10	1	-1E+10	1	-1E+10	1
4902554	53	C	07/23/2022	21:57	-134.206	49.709	0	342.90	0	4.3940	0	33.9290	0	26.896	0	339.688	0	-1e10	8	-1e10	8	-1E+10	1	-1E+10	1	-1E+10	1	-1E+10	1	-1E+10	1	-1E+10	1
4902554	53	C	07/23/2022	21:57	-134.206	49.709	0	343.80	0	4.3910	0	33.9300	0	26.897	0	340.578	0	-1e10	8	-1e10	8	-1E+10	1	-1E+10	1	-1E+10	1	-1E+10	1	-1E+10	1	-1E+10	1
4902554	53	C	07/23/2022	21:57	-134.206	49.709	0	344.70	0	4.3900	0	33.9320	0	26.899	0	341.469	0	-1e10	8	-1e10	8	-1E+10	1	-1E+10	1	-1E+10	1	-1E+10	1	-1E+10	1	-1E+10	1
4902554	53	C	07/23/2022	21:57	-134.206	49.709	0	346.00	0	4.3880	0	33.9320	0	26.899	0	342.756	0	-1e10	8	-1e10	8	-1E+10	1	-1E+10	1	-1E+10	1	-1E+10	1	-1E+10	1	-1E+10	1
4902554	53	C	07/23/2022	21:57	-134.206	49.709	0	347.10	0	4.3850	0	33.9340	0	26.901	0	343.845	0	-1e10	8	-1e10	8	-1E+10	1	-1E+10	1	-1E+10	1	-1E+10	1	-1E+10	1	-1E+10	1
4902554	53	C	07/23/2022	21:57	-134.206	49.709	0	347.80	0	4.3840	0	33.9350	0	26.902	0	344.538	0	-1e10	8	-1e10	8	-1E+10	1	-1E+10	1	-1E+10	1	-1E+10	1	-1E+10	1	-1E+10	1
4902554	53	C	07/23/2022	21:57	-134.206	49.709	0	348.80	0	4.3830	0	33.9350	0	26.902	0	345.527	0	-1e10	8	-1e10	8	-1E+10	1	-1E+10	1	-1E+10	1	-1E+10	1	-1E+10	1	-1E+10	1
4902554	53	C	07/23/2022	21:57	-134.206	49.709	0	349.90	0	4.3820	0	33.9360	0	26.903	0	346.616	0	-1e10	8	-1e10	8	-1E+10	1	-1E+10	1	-1E+10	1	-1E+10	1	-1E+10	1	-1E+10	1
4902554	53	C	07/23/2022	21:57	-134.206	49.709	0	352.70	0	4.3760	0	33.9400	0	26.907	0	349.388	0	-1e10	8	-1e10	8	-1E+10	1	-1E+10	1	-1E+10	1	-1E+10	1	-1E+10	1	-1E+10	1
4902554	53	C	07/23/2022	21:57	-134.206	49.709	0	358.00	0	4.3630	0	33.9480	0	26.914	0	354.633	0	-1e10	8	-1e10	8	-1E+10	1	-1E+10	1	-1E+10	1	-1E+10	1	-1E+10	1	-1E+10	1
4902554	53	C	07/23/2022	21:57	-134.206	49.709	0	363.20	0	4.3580	0	33.9520	0	26.918	0	359.780	0	-1e10	8	-1e10	8	-1E+10	1	-1E+10	1	-1E+10	1	-1E+10	1	-1E+10	1	-1E+10	1
4902554	53	C	07/23/2022	21:57	-134.206	49.709	0	368.20	0	4.3510	0	33.9570	0	26.923	0	364.728	0	-1e10	8	-1e10	8	-1E+10	1	-1E+10	1	-1E+10	1	-1E+10	1	-1E+10	1	-1E+10	1
4902554	53	C	07/23/2022	21:57	-134.206	49.709	0	372.90	0	4.3430	0	33.9640	0	26.929	0	369.380	0	-1e10	8	-1e10	8	-1E+10	1	-1E+10	1	-1E+10	1	-1E+10	1	-1E+10	1	-1E+10	1
4902554	53	C	07/23/2022	21:57	-134.206	49.709	0	377.80	0	4.3380	0	33.9690	0	26.934	0	374.229	0	-1e10	8	-1e10	8	-1E+10	1	-1E+10	1	-1E+10	1	-1E+10	1	-1E+10	1	-1E+10	1
4902554	53	C	07/23/2022	21:57	-134.206	49.709	0	382.80	0	4.3310	0	33.9750	0	26.939	0	379.177	0	-1e10	8	-1e10	8	-1E+10	1	-1E+10	1	-1E+10	1	-1E+10	1	-1E+10	1	-1E+10	1
4902554	53	C	07/23/2022	21:57	-134.206	49.709	0	387.80	0	4.3230	0	33.9830	0	26.947	0	384.125	0	-1e10	8	-1e10	8	-1E+10	1	-1E+10	1	-1E+10	1	-1E+10	1	-1E+10	1	-1E+10	1
4902554	53	C	07/23/2022	21:57	-134.206	49.709	0	392.90	0	4.3200	0	33.9850	0	26.949	0	389.172	0	-1e10	8	-1e10	8	-1E+10	1	-1E+10	1	-1E+10	1	-1E+10	1	-1E+10	1	-1E+10	1
4902554	53	C	07/23/2022	21:57	-134.206	49.709	0	397.80	0	4.3050	0	33.9900	0	26.954	0	394.021	0	-1e10	8	-1e10	8	-1E+10	1	-1E+10	1	-1E+10	1	-1E+10	1	-1E+10	1	-1E+10	1
4902554	53	C	07/23/2022	21:57	-134.206	49.709	0	402.70	0	4.2940	0	33.9960	0	26.960	0	398.870	0	-1e10	8	-1e10	8	-1E+10	1	-1E+10	1	-1E+10	1	-1E+10	1	-1E+10	1	-1E+10	1
4902554	53	C	07/23/2022	21:57	-134.206	49.709	0	407.70	0	4.2870	0	34.0030	0	26.966	0	403.817	0	-1e10	8	-1e10	8	-1E+10	1	-1E+10	1	-1E+10	1	-1E+10	1	-1E+10	1	-1E+10	1
4902554	53	C	07/23/2022	21:57	-134.206	49.709	0	412.70	0	4.2790	0	34.0090	0	26.972	0	408.765	0	-1e10	8	-1e10	8	-1E+10	1	-1E+10	1	-1E+10	1	-1E+10	1	-1E+10	1	-1E+10	1
4902554	53	C	07/23/2022	21:57	-134.206	49.709	0	418.00	0	4.2650	0	34.0160	0	26.979	0	414.009	0	-1e10	8	-1e10	8	-1E+10	1	-1E+10	1	-1E+10	1	-1E+10	1	-1E+10	1	-1E+10	1
4902554	53	C	07/23/2022	21:57	-134.206	49.709	0	423.30	0	4.2470	0	34.0220	0	26.986	0	419.253	0	-1e10	8	-1e10	8	-1E+10	1	-1E+10	1	-1E+10	1	-1E+10	1	-1E+10	1	-1E+10	1
4902554	53	C	07/23/2022	21:57	-134.206	49.709	0	428.10	0	4.2300	0	34.0290	0	26.993	0	424.002	0	-1e10	8	-1e10	8	-1E+10	1	-1E+10	1	-1E+10	1	-1E+10	1	-1E+10	1	-1E+10	1
4902554	53	C	07/23/2022	21:57	-134.206	49.709	0	432.80	0	4.2270	0	34.0300	0	26.994	0	428.652	0	-1e10	8	-1e10	8	-1E+10	1	-1E+10	1	-1E+10	1	-1E+10	1	-1E+10	1	-1E+10	1
4902554	53	C	07/23/2022	21:57	-134.206	49.709	0	437.90	0	4.2100	0	34.0370	0	27.002	0	433.698	0	-1e10	8	-1e10	8	-1E+10	1	-1E+10	1	-1E+10	1	-1E+10	1	-1E+10	1	-1E+10	1
4902554	53	C	07/23/2022	21:57	-134.206	49.709	0	443.00	0	4.1940	0	34.0450	0	27.010	0	438.744	0	-1e10	8	-1e10	8	-1E+10	1	-1E+10	1	-1E+10	1	-1E+10	1	-1E+10	1	-1E+10	1
4902554	53	C	07/23/2022	21:57	-134.206	49.709	0	448.10	0	4.1820	0	34.0520	0	27.017	0	443.790	0	-1e10	8	-1e10	8	-1E+10	1	-1E+10	1	-1E+10	1	-1E+10	1	-1E+10	1	-1E+10	1
4902554	53	C	07/23/2022	21:57	-134.206	49.709	0	453.20	0	4.1740	0	34.0560	0	27.021	0	448.835	0	-1e10	8	-1e10	8	-1E+10	1	-1E+10	1	-1E+10	1	-1E+10	1	-1E+10	1	-1E+10	1
4902554	53	C	07/23/2022	21:57	-134.206	49.709	0	457.70	0	4.1670	0	34.0620	0	27.026	0	453.287	0	-1e10	8	-1e10	8	-1E+10	1	-1E+10	1	-1E+10	1	-1E+10	1	-1E+10	1	-1E+10	1
4902554	53	C	07/23/2022	21:57	-134.206	49.709	0	462.70	0	4.1680	0	34.0660	0	27.029	0	458.233	0	-1e10	8	-1e10	8	-1E+10	1	-1E+10	1	-1E+10	1	-1E+10	1	-1E+10	1	-1E+10	1
4902554	53	C	07/23/2022	21:57	-134.206	49.709	0	468.10	0	4.1670	0	34.0680	0	27.031	0	463.575	0	-1e10	8	-1e10	8	-1E+10	1	-1E+10	1	-1E+10	1	-1E+10	1	-1E+10	1	-1E+10	1
4902554	53	C	07/23/2022	21:57	-134.206	49.709	0	473.10	0	4.1580	0	34.0740	0	27.037	0	468.521	0	-1e10	8	-1e10	8	-1E+10	1	-1E+10	1	-1E+10	1	-1E+10	1	-1E+10	1	-1E+10	1
4902554	53	C	07/23/2022	21:57	-134.206	49.709	0	478.00	0	4.1440	0	34.0790	0	27.042	0	473.368	0	-1e10	8	-1e10	8	-1E+10	1	-1E+10	1	-1E+10	1	-1E+10	1	-1E+10	1	-1E+10	1
4902554	53	C	07/23/2022	21:57	-134.206	49.709	0	483.10	0	4.1310	0	34.0860	0	27.049	0	478.413	0	-1e10	8	-1e10	8	-1E+10	1	-1E+10	1	-1E+10	1	-1E+10	1	-1E+10	1	-1E+10	1
4902554	53	C	07/23/2022	21:57	-134.206	49.709	0	488.00	0	4.1290	0	34.0880	0	27.051	0	483.259	0	-1e10	8	-1e10	8	-1E+10	1	-1E+10	1	-1E+10	1	-1E+10	1	-1E+10	1	-1E+10	1
4902554	53	C	07/23/2022	21:57	-134.206	49.709	0	493.00	0	4.1240	0	34.0910	0	27.054	0	488.205	0	-1e10	8	-1e10	8	-1E+10	1	-1E+10	1	-1E+10	1	-1E+10	1	-1E+10	1	-1E+10	1
4902554	53	C	07/23/2022	21:57	-134.206	49.709	0	497.90	0	4.1120	0	34.0960	0	27.059	0	493.051	0	-1e10	8	-1e10	8	-1E+10	1	-1E+10	1	-1E+10	1	-1E+10	1	-1E+10	1	-1E+10	1
4902554	53	C	07/23/2022	21:57	-134.206	49.709	0	502.80	0	4.1030	0	34.1000	0	27.063	0	497.898	0	-1e10	8	-1e10	8	-1E+10	1	-1E+10	1	-1E+10	1	-1E+10	1	-1E+10	1	-1E+10	1
4902554	53	C	07/23/2022	21:57	-134.206	49.709	0	507.70	0	4.0850	0	34.1080	0	27.072	0	502.744	0	-1e10	8	-1e10	8	-1E+10	1	-1E+10	1	-1E+10	1	-1E+10	1	-1E+10	1	-1E+10	1
4902554	53	C	07/23/2022	21:57	-134.206	49.709	0	513.10	0	4.0800	0	34.1090	0	27.073	0	508.085	0	-1e10	8	-1e10	8	-1E+10	1	-1E+10	1	-1E+10	1	-1E+10	1	-1E+10	1	-1E+10	1
4902554	53	C	07/23/2022	21:57	-134.206	49.709	0	518.20	0	4.0680	0	34.1140	0	27.078	0	513.129	0	-1e10	8	-1e10	8	-1E+10	1	-1E+10	1	-1E+10	1	-1E+10	1	-1E+10	1	-1E+10	1
4902554	53	C	07/23/2022	21:57	-134.206	49.709	0	523.00	0	4.0630	0	34.1190	0	27.083	0	517.876	0	-1e10	8	-1e10	8	-1E+10	1	-1E+10	1	-1E+10	1	-1E+10	1	-1E+10	1	-1E+10	1
4902554	53	C	07/23/2022	21:57	-134.206	49.709	0	527.90	0	4.0560	0	34.1230	0	27.087	0	522.722	0	-1e10	8	-1e10	8	-1E+10	1	-1E+10	1	-1E+10	1	-1E+10	1	-1E+10	1	-1E+10	1
4902554	53	C	07/23/2022	21:57	-134.206	49.709	0	533.00	0	4.0420	0	34.1290	0	27.093	0	527.765	0	-1e10	8	-1e10	8	-1E+10	1	-1E+10	1	-1E+10	1	-1E+10	1	-1E+10	1	-1E+10	1
4902554	53	C	07/23/2022	21:57	-134.206	49.709	0	538.10	0	4.0290	0	34.1320	0	27.097	0	532.808	0	-1e10	8	-1e10	8	-1E+10	1	-1E+10	1	-1E+10	1	-1E+10	1	-1E+10	1	-1E+10	1
4902554	53	C	07/23/2022	21:57	-134.206	49.709	0	542.80	0	4.0180	0	34.1370	0	27.102	0	537.456	0	-1e10	8	-1e10	8	-1E+10	1	-1E+10	1	-1E+10	1	-1E+10	1	-1E+10	1	-1E+10	1
4902554	53	C	07/23/2022	21:57	-134.206	49.709	0	547.70	0	4.0140	0	34.1390	0	27.104	0	542.301	0	-1e10	8	-1e10	8	-1E+10	1	-1E+10	1	-1E+10	1	-1E+10	1	-1E+10	1	-1E+10	1
4902554	53	C	07/23/2022	21:57	-134.206	49.709	0	552.70	0	4.0080	0	34.1410	0	27.106	0	547.246	0	-1e10	8	-1e10	8	-1E+10	1	-1E+10	1	-1E+10	1	-1E+10	1	-1E+10	1	-1E+10	1
4902554	53	C	07/23/2022	21:57	-134.206	49.709	0	557.70	0	4.0040	0	34.1430	0	27.108	0	552.190	0	-1e10	8	-1e10	8	-1E+10	1	-1E+10	1	-1E+10	1	-1E+10	1	-1E+10	1	-1E+10	1
4902554	53	C	07/23/2022	21:57	-134.206	49.709	0	563.00	0	3.9980	0	34.1450	0	27.110	0	557.430	0	-1e10	8	-1e10	8	-1E+10	1	-1E+10	1	-1E+10	1	-1E+10	1	-1E+10	1	-1E+10	1
4902554	53	C	07/23/2022	21:57	-134.206	49.709	0	567.80	0	3.9820	0	34.1510	0	27.117	0	562.176	0	-1e10	8	-1e10	8	-1E+10	1	-1E+10	1	-1E+10	1	-1E+10	1	-1E+10	1	-1E+10	1
4902554	53	C	07/23/2022	21:57	-134.206	49.709	0	572.90	0	3.9710	0	34.1550	0	27.121	0	567.219	0	-1e10	8	-1e10	8	-1E+10	1	-1E+10	1	-1E+10	1	-1E+10	1	-1E+10	1	-1E+10	1
4902554	53	C	07/23/2022	21:57	-134.206	49.709	0	578.20	0	3.9600	0	34.1590	0	27.126	0	572.459	0	-1e10	8	-1e10	8	-1E+10	1	-1E+10	1	-1E+10	1	-1E+10	1	-1E+10	1	-1E+10	1
4902554	53	C	07/23/2022	21:57	-134.206	49.709	0	582.80	0	3.9480	0	34.1620	0	27.129	0	577.007	0	-1e10	8	-1e10	8	-1E+10	1	-1E+10	1	-1E+10	1	-1E+10	1	-1E+10	1	-1E+10	1
4902554	53	C	07/23/2022	21:57	-134.206	49.709	0	587.60	0	3.9370	0	34.1660	0	27.134	0	581.752	0	-1e10	8	-1e10	8	-1E+10	1	-1E+10	1	-1E+10	1	-1E+10	1	-1E+10	1	-1E+10	1
4902554	53	C	07/23/2022	21:57	-134.206	49.709	0	592.70	0	3.9270	0	34.1690	0	27.137	0	586.795	0	-1e10	8	-1e10	8	-1E+10	1	-1E+10	1	-1E+10	1	-1E+10	1	-1E+10	1	-1E+10	1
4902554	53	C	07/23/2022	21:57	-134.206	49.709	0	597.90	0	3.9160	0	34.1700	0	27.139	0	591.935	0	-1e10	8	-1e10	8	-1E+10	1	-1E+10	1	-1E+10	1	-1E+10	1	-1E+10	1	-1E+10	1
4902554	53	C	07/23/2022	21:57	-134.206	49.709	0	603.30	0	3.8950	0	34.1770	0	27.147	0	597.274	0	-1e10	8	-1e10	8	-1E+10	1	-1E+10	1	-1E+10	1	-1E+10	1	-1E+10	1	-1E+10	1
4902554	53	C	07/23/2022	21:57	-134.206	49.709	0	607.90	0	3.8840	0	34.1800	0	27.150	0	601.821	0	-1e10	8	-1e10	8	-1E+10	1	-1E+10	1	-1E+10	1	-1E+10	1	-1E+10	1	-1E+10	1
4902554	53	C	07/23/2022	21:57	-134.206	49.709	0	612.50	0	3.8800	0	34.1830	0	27.153	0	606.368	0	-1e10	8	-1e10	8	-1E+10	1	-1E+10	1	-1E+10	1	-1E+10	1	-1E+10	1	-1E+10	1
4902554	53	C	07/23/2022	21:57	-134.206	49.709	0	617.80	0	3.8650	0	34.1880	0	27.159	0	611.608	0	-1e10	8	-1e10	8	-1E+10	1	-1E+10	1	-1E+10	1	-1E+10	1	-1E+10	1	-1E+10	1
4902554	53	C	07/23/2022	21:57	-134.206	49.709	0	623.20	0	3.8550	0	34.1920	0	27.163	0	616.945	0	-1e10	8	-1e10	8	-1E+10	1	-1E+10	1	-1E+10	1	-1E+10	1	-1E+10	1	-1E+10	1
4902554	53	C	07/23/2022	21:57	-134.206	49.709	0	628.10	0	3.8450	0	34.1950	0	27.166	0	621.789	0	-1e10	8	-1e10	8	-1E+10	1	-1E+10	1	-1E+10	1	-1E+10	1	-1E+10	1	-1E+10	1
4902554	53	C	07/23/2022	21:57	-134.206	49.709	0	633.10	0	3.8370	0	34.1960	0	27.168	0	626.731	0	-1e10	8	-1e10	8	-1E+10	1	-1E+10	1	-1E+10	1	-1E+10	1	-1E+10	1	-1E+10	1
4902554	53	C	07/23/2022	21:57	-134.206	49.709	0	638.30	0	3.8260	0	34.1990	0	27.171	0	631.871	0	-1e10	8	-1e10	8	-1E+10	1	-1E+10	1	-1E+10	1	-1E+10	1	-1E+10	1	-1E+10	1
4902554	53	C	07/23/2022	21:57	-134.206	49.709	0	642.90	0	3.8150	0	34.2020	0	27.175	0	636.418	0	-1e10	8	-1e10	8	-1E+10	1	-1E+10	1	-1E+10	1	-1E+10	1	-1E+10	1	-1E+10	1
4902554	53	C	07/23/2022	21:57	-134.206	49.709	0	647.60	0	3.8070	0	34.2040	0	27.177	0	641.063	0	-1e10	8	-1e10	8	-1E+10	1	-1E+10	1	-1E+10	1	-1E+10	1	-1E+10	1	-1E+10	1
4902554	53	C	07/23/2022	21:57	-134.206	49.709	0	652.90	0	3.7920	0	34.2080	0	27.182	0	646.301	0	-1e10	8	-1e10	8	-1E+10	1	-1E+10	1	-1E+10	1	-1E+10	1	-1E+10	1	-1E+10	1
4902554	53	C	07/23/2022	21:57	-134.206	49.709	0	658.30	0	3.7810	0	34.2110	0	27.185	0	651.638	0	-1e10	8	-1e10	8	-1E+10	1	-1E+10	1	-1E+10	1	-1E+10	1	-1E+10	1	-1E+10	1
4902554	53	C	07/23/2022	21:57	-134.206	49.709	0	663.10	0	3.7700	0	34.2130	0	27.188	0	656.382	0	-1e10	8	-1e10	8	-1E+10	1	-1E+10	1	-1E+10	1	-1E+10	1	-1E+10	1	-1E+10	1
4902554	53	C	07/23/2022	21:57	-134.206	49.709	0	667.90	0	3.7520	0	34.2180	0	27.194	0	661.126	0	-1e10	8	-1e10	8	-1E+10	1	-1E+10	1	-1E+10	1	-1E+10	1	-1E+10	1	-1E+10	1
4902554	53	C	07/23/2022	21:57	-134.206	49.709	0	672.70	0	3.7430	0	34.2200	0	27.197	0	665.870	0	-1e10	8	-1e10	8	-1E+10	1	-1E+10	1	-1E+10	1	-1E+10	1	-1E+10	1	-1E+10	1
4902554	53	C	07/23/2022	21:57	-134.206	49.709	0	678.00	0	3.7350	0	34.2210	0	27.198	0	671.107	0	-1e10	8	-1e10	8	-1E+10	1	-1E+10	1	-1E+10	1	-1E+10	1	-1E+10	1	-1E+10	1
4902554	53	C	07/23/2022	21:57	-134.206	49.709	0	683.40	0	3.7240	0	34.2240	0	27.202	0	676.444	0	-1e10	8	-1e10	8	-1E+10	1	-1E+10	1	-1E+10	1	-1E+10	1	-1E+10	1	-1E+10	1
4902554	53	C	07/23/2022	21:57	-134.206	49.709	0	688.10	0	3.7180	0	34.2250	0	27.203	0	681.088	0	-1e10	8	-1e10	8	-1E+10	1	-1E+10	1	-1E+10	1	-1E+10	1	-1E+10	1	-1E+10	1
4902554	53	C	07/23/2022	21:57	-134.206	49.709	0	692.80	0	3.7050	0	34.2280	0	27.207	0	685.732	0	-1e10	8	-1e10	8	-1E+10	1	-1E+10	1	-1E+10	1	-1E+10	1	-1E+10	1	-1E+10	1
4902554	53	C	07/23/2022	21:57	-134.206	49.709	0	697.60	0	3.6900	0	34.2320	0	27.211	0	690.475	0	-1e10	8	-1e10	8	-1E+10	1	-1E+10	1	-1E+10	1	-1E+10	1	-1E+10	1	-1E+10	1
4902554	53	C	07/23/2022	21:57	-134.206	49.709	0	702.80	0	3.6850	0	34.2330	0	27.213	0	695.614	0	-1e10	8	-1e10	8	-1E+10	1	-1E+10	1	-1E+10	1	-1E+10	1	-1E+10	1	-1E+10	1
4902554	53	C	07/23/2022	21:57	-134.206	49.709	0	708.10	0	3.6740	0	34.2360	0	27.216	0	700.851	0	-1e10	8	-1e10	8	-1E+10	1	-1E+10	1	-1E+10	1	-1E+10	1	-1E+10	1	-1E+10	1
4902554	53	C	07/23/2022	21:57	-134.206	49.709	0	712.70	0	3.6660	0	34.2370	0	27.218	0	705.396	0	-1e10	8	-1e10	8	-1E+10	1	-1E+10	1	-1E+10	1	-1E+10	1	-1E+10	1	-1E+10	1
4902554	53	C	07/23/2022	21:57	-134.206	49.709	0	717.80	0	3.6530	0	34.2410	0	27.222	0	710.435	0	-1e10	8	-1e10	8	-1E+10	1	-1E+10	1	-1E+10	1	-1E+10	1	-1E+10	1	-1E+10	1
4902554	53	C	07/23/2022	21:57	-134.206	49.709	0	722.80	0	3.6490	0	34.2420	0	27.224	0	715.375	0	-1e10	8	-1e10	8	-1E+10	1	-1E+10	1	-1E+10	1	-1E+10	1	-1E+10	1	-1E+10	1
4902554	53	C	07/23/2022	21:57	-134.206	49.709	0	727.90	0	3.6400	0	34.2440	0	27.226	0	720.414	0	-1e10	8	-1e10	8	-1E+10	1	-1E+10	1	-1E+10	1	-1E+10	1	-1E+10	1	-1E+10	1
4902554	53	C	07/23/2022	21:57	-134.206	49.709	0	732.80	0	3.6290	0	34.2460	0	27.229	0	725.255	0	-1e10	8	-1e10	8	-1E+10	1	-1E+10	1	-1E+10	1	-1E+10	1	-1E+10	1	-1E+10	1
4902554	53	C	07/23/2022	21:57	-134.206	49.709	0	737.80	0	3.6160	0	34.2490	0	27.233	0	730.195	0	-1e10	8	-1e10	8	-1E+10	1	-1E+10	1	-1E+10	1	-1E+10	1	-1E+10	1	-1E+10	1
4902554	53	C	07/23/2022	21:57	-134.206	49.709	0	742.70	0	3.6020	0	34.2520	0	27.236	0	735.035	0	-1e10	8	-1e10	8	-1E+10	1	-1E+10	1	-1E+10	1	-1E+10	1	-1E+10	1	-1E+10	1
4902554	53	C	07/23/2022	21:57	-134.206	49.709	0	747.60	0	3.5920	0	34.2550	0	27.240	0	739.876	0	-1e10	8	-1e10	8	-1E+10	1	-1E+10	1	-1E+10	1	-1E+10	1	-1E+10	1	-1E+10	1
4902554	53	C	07/23/2022	21:57	-134.206	49.709	0	752.90	0	3.5840	0	34.2560	0	27.241	0	745.112	0	-1e10	8	-1e10	8	-1E+10	1	-1E+10	1	-1E+10	1	-1E+10	1	-1E+10	1	-1E+10	1
4902554	53	C	07/23/2022	21:57	-134.206	49.709	0	758.00	0	3.5760	0	34.2580	0	27.244	0	750.150	0	-1e10	8	-1e10	8	-1E+10	1	-1E+10	1	-1E+10	1	-1E+10	1	-1E+10	1	-1E+10	1
4902554	53	C	07/23/2022	21:57	-134.206	49.709	0	763.20	0	3.5640	0	34.2620	0	27.248	0	755.287	0	-1e10	8	-1e10	8	-1E+10	1	-1E+10	1	-1E+10	1	-1E+10	1	-1E+10	1	-1E+10	1
4902554	53	C	07/23/2022	21:57	-134.206	49.709	0	768.30	0	3.5520	0	34.2640	0	27.251	0	760.325	0	-1e10	8	-1e10	8	-1E+10	1	-1E+10	1	-1E+10	1	-1E+10	1	-1E+10	1	-1E+10	1
4902554	53	C	07/23/2022	21:57	-134.206	49.709	0	773.30	0	3.5380	0	34.2680	0	27.255	0	765.264	0	-1e10	8	-1e10	8	-1E+10	1	-1E+10	1	-1E+10	1	-1E+10	1	-1E+10	1	-1E+10	1
4902554	53	C	07/23/2022	21:57	-134.206	49.709	0	777.80	0	3.5190	0	34.2720	0	27.261	0	769.709	0	-1e10	8	-1e10	8	-1E+10	1	-1E+10	1	-1E+10	1	-1E+10	1	-1E+10	1	-1E+10	1
4902554	53	C	07/23/2022	21:57	-134.206	49.709	0	782.50	0	3.5080	0	34.2740	0	27.263	0	774.351	0	-1e10	8	-1e10	8	-1E+10	1	-1E+10	1	-1E+10	1	-1E+10	1	-1E+10	1	-1E+10	1
4902554	53	C	07/23/2022	21:57	-134.206	49.709	0	787.70	0	3.5020	0	34.2750	0	27.265	0	779.487	0	-1e10	8	-1e10	8	-1E+10	1	-1E+10	1	-1E+10	1	-1E+10	1	-1E+10	1	-1E+10	1
4902554	53	C	07/23/2022	21:57	-134.206	49.709	0	792.90	0	3.4980	0	34.2770	0	27.267	0	784.623	0	-1e10	8	-1e10	8	-1E+10	1	-1E+10	1	-1E+10	1	-1E+10	1	-1E+10	1	-1E+10	1
4902554	53	C	07/23/2022	21:57	-134.206	49.709	0	797.80	0	3.4930	0	34.2780	0	27.268	0	789.463	0	-1e10	8	-1e10	8	-1E+10	1	-1E+10	1	-1E+10	1	-1E+10	1	-1E+10	1	-1E+10	1
4902554	53	C	07/23/2022	21:57	-134.206	49.709	0	803.00	0	3.4810	0	34.2810	0	27.271	0	794.598	0	-1e10	8	-1e10	8	-1E+10	1	-1E+10	1	-1E+10	1	-1E+10	1	-1E+10	1	-1E+10	1
4902554	53	C	07/23/2022	21:57	-134.206	49.709	0	808.20	0	3.4710	0	34.2830	0	27.274	0	799.734	0	-1e10	8	-1e10	8	-1E+10	1	-1E+10	1	-1E+10	1	-1E+10	1	-1E+10	1	-1E+10	1
4902554	53	C	07/23/2022	21:57	-134.206	49.709	0	813.10	0	3.4620	0	34.2850	0	27.277	0	804.573	0	-1e10	8	-1e10	8	-1E+10	1	-1E+10	1	-1E+10	1	-1E+10	1	-1E+10	1	-1E+10	1
4902554	53	C	07/23/2022	21:57	-134.206	49.709	0	818.10	0	3.4510	0	34.2870	0	27.279	0	809.511	0	-1e10	8	-1e10	8	-1E+10	1	-1E+10	1	-1E+10	1	-1E+10	1	-1E+10	1	-1E+10	1
4902554	53	C	07/23/2022	21:57	-134.206	49.709	0	823.20	0	3.4330	0	34.2900	0	27.283	0	814.548	0	-1e10	8	-1e10	8	-1E+10	1	-1E+10	1	-1E+10	1	-1E+10	1	-1E+10	1	-1E+10	1
4902554	53	C	07/23/2022	21:57	-134.206	49.709	0	828.20	0	3.4240	0	34.2910	0	27.285	0	819.485	0	-1e10	8	-1e10	8	-1E+10	1	-1E+10	1	-1E+10	1	-1E+10	1	-1E+10	1	-1E+10	1
4902554	53	C	07/23/2022	21:57	-134.206	49.709	0	833.00	0	3.4100	0	34.2940	0	27.289	0	824.225	0	-1e10	8	-1e10	8	-1E+10	1	-1E+10	1	-1E+10	1	-1E+10	1	-1E+10	1	-1E+10	1
4902554	53	C	07/23/2022	21:57	-134.206	49.709	0	837.80	0	3.3970	0	34.2970	0	27.292	0	828.965	0	-1e10	8	-1e10	8	-1E+10	1	-1E+10	1	-1E+10	1	-1E+10	1	-1E+10	1	-1E+10	1
4902554	53	C	07/23/2022	21:57	-134.206	49.709	0	843.10	0	3.3820	0	34.3000	0	27.296	0	834.199	0	-1e10	8	-1e10	8	-1E+10	1	-1E+10	1	-1E+10	1	-1E+10	1	-1E+10	1	-1E+10	1
4902554	53	C	07/23/2022	21:57	-134.206	49.709	0	848.00	0	3.3640	0	34.3030	0	27.300	0	839.037	0	-1e10	8	-1e10	8	-1E+10	1	-1E+10	1	-1E+10	1	-1E+10	1	-1E+10	1	-1E+10	1
4902554	53	C	07/23/2022	21:57	-134.206	49.709	0	853.00	0	3.3470	0	34.3070	0	27.305	0	843.974	0	-1e10	8	-1e10	8	-1E+10	1	-1E+10	1	-1E+10	1	-1E+10	1	-1E+10	1	-1E+10	1
4902554	53	C	07/23/2022	21:57	-134.206	49.709	0	858.10	0	3.3260	0	34.3100	0	27.310	0	849.010	0	-1e10	8	-1e10	8	-1E+10	1	-1E+10	1	-1E+10	1	-1E+10	1	-1E+10	1	-1E+10	1
4902554	53	C	07/23/2022	21:57	-134.206	49.709	0	862.80	0	3.3060	0	34.3110	0	27.312	0	853.651	0	-1e10	8	-1e10	8	-1E+10	1	-1E+10	1	-1E+10	1	-1E+10	1	-1E+10	1	-1E+10	1
4902554	53	C	07/23/2022	21:57	-134.206	49.709	0	868.00	0	3.3010	0	34.3130	0	27.314	0	858.785	0	-1e10	8	-1e10	8	-1E+10	1	-1E+10	1	-1E+10	1	-1E+10	1	-1E+10	1	-1E+10	1
4902554	53	C	07/23/2022	21:57	-134.206	49.709	0	873.30	0	3.2900	0	34.3160	0	27.318	0	864.018	0	-1e10	8	-1e10	8	-1E+10	1	-1E+10	1	-1E+10	1	-1E+10	1	-1E+10	1	-1E+10	1
4902554	53	C	07/23/2022	21:57	-134.206	49.709	0	878.20	0	3.2820	0	34.3180	0	27.320	0	868.855	0	-1e10	8	-1e10	8	-1E+10	1	-1E+10	1	-1E+10	1	-1E+10	1	-1E+10	1	-1E+10	1
4902554	53	C	07/23/2022	21:57	-134.206	49.709	0	883.10	0	3.2680	0	34.3210	0	27.324	0	873.693	0	-1e10	8	-1e10	8	-1E+10	1	-1E+10	1	-1E+10	1	-1E+10	1	-1E+10	1	-1E+10	1
4902554	53	C	07/23/2022	21:57	-134.206	49.709	0	888.10	0	3.2520	0	34.3220	0	27.326	0	878.629	0	-1e10	8	-1e10	8	-1E+10	1	-1E+10	1	-1E+10	1	-1E+10	1	-1E+10	1	-1E+10	1
4902554	53	C	07/23/2022	21:57	-134.206	49.709	0	893.00	0	3.2360	0	34.3240	0	27.329	0	883.467	0	-1e10	8	-1e10	8	-1E+10	1	-1E+10	1	-1E+10	1	-1E+10	1	-1E+10	1	-1E+10	1
4902554	53	C	07/23/2022	21:57	-134.206	49.709	0	898.10	0	3.2270	0	34.3270	0	27.333	0	888.501	0	-1e10	8	-1e10	8	-1E+10	1	-1E+10	1	-1E+10	1	-1E+10	1	-1E+10	1	-1E+10	1
4902554	53	C	07/23/2022	21:57	-134.206	49.709	0	902.90	0	3.2190	0	34.3280	0	27.334	0	893.240	0	-1e10	8	-1e10	8	-1E+10	1	-1E+10	1	-1E+10	1	-1E+10	1	-1E+10	1	-1E+10	1
4902554	53	C	07/23/2022	21:57	-134.206	49.709	0	907.80	0	3.2100	0	34.3300	0	27.337	0	898.077	0	-1e10	8	-1e10	8	-1E+10	1	-1E+10	1	-1E+10	1	-1E+10	1	-1E+10	1	-1E+10	1
4902554	53	C	07/23/2022	21:57	-134.206	49.709	0	912.80	0	3.1970	0	34.3330	0	27.340	0	903.013	0	-1e10	8	-1e10	8	-1E+10	1	-1E+10	1	-1E+10	1	-1E+10	1	-1E+10	1	-1E+10	1
4902554	53	C	07/23/2022	21:57	-134.206	49.709	0	917.90	0	3.1850	0	34.3360	0	27.344	0	908.047	0	-1e10	8	-1e10	8	-1E+10	1	-1E+10	1	-1E+10	1	-1E+10	1	-1E+10	1	-1E+10	1
4902554	53	C	07/23/2022	21:57	-134.206	49.709	0	922.80	0	3.1700	0	34.3390	0	27.348	0	912.884	0	-1e10	8	-1e10	8	-1E+10	1	-1E+10	1	-1E+10	1	-1E+10	1	-1E+10	1	-1E+10	1
4902554	53	C	07/23/2022	21:57	-134.206	49.709	0	927.70	0	3.1610	0	34.3410	0	27.350	0	917.720	0	-1e10	8	-1e10	8	-1E+10	1	-1E+10	1	-1E+10	1	-1E+10	1	-1E+10	1	-1E+10	1
4902554	53	C	07/23/2022	21:57	-134.206	49.709	0	932.80	0	3.1500	0	34.3430	0	27.353	0	922.754	0	-1e10	8	-1e10	8	-1E+10	1	-1E+10	1	-1E+10	1	-1E+10	1	-1E+10	1	-1E+10	1
4902554	53	C	07/23/2022	21:57	-134.206	49.709	0	937.80	0	3.1400	0	34.3450	0	27.355	0	927.689	0	-1e10	8	-1e10	8	-1E+10	1	-1E+10	1	-1E+10	1	-1E+10	1	-1E+10	1	-1E+10	1
4902554	53	C	07/23/2022	21:57	-134.206	49.709	0	942.80	0	3.1270	0	34.3480	0	27.359	0	932.624	0	-1e10	8	-1e10	8	-1E+10	1	-1E+10	1	-1E+10	1	-1E+10	1	-1E+10	1	-1E+10	1
4902554	53	C	07/23/2022	21:57	-134.206	49.709	0	948.00	0	3.1180	0	34.3490	0	27.361	0	937.756	0	-1e10	8	-1e10	8	-1E+10	1	-1E+10	1	-1E+10	1	-1E+10	1	-1E+10	1	-1E+10	1
4902554	53	C	07/23/2022	21:57	-134.206	49.709	0	953.20	0	3.1090	0	34.3510	0	27.363	0	942.889	0	-1e10	8	-1e10	8	-1E+10	1	-1E+10	1	-1E+10	1	-1E+10	1	-1E+10	1	-1E+10	1
4902554	53	C	07/23/2022	21:57	-134.206	49.709	0	958.00	0	3.1030	0	34.3530	0	27.365	0	947.626	0	-1e10	8	-1e10	8	-1E+10	1	-1E+10	1	-1E+10	1	-1E+10	1	-1E+10	1	-1E+10	1
4902554	53	C	07/23/2022	21:57	-134.206	49.709	0	962.70	0	3.0960	0	34.3540	0	27.367	0	952.264	0	-1e10	8	-1e10	8	-1E+10	1	-1E+10	1	-1E+10	1	-1E+10	1	-1E+10	1	-1E+10	1
4902554	53	C	07/23/2022	21:57	-134.206	49.709	0	967.80	0	3.0910	0	34.3550	0	27.368	0	957.297	0	-1e10	8	-1e10	8	-1E+10	1	-1E+10	1	-1E+10	1	-1E+10	1	-1E+10	1	-1E+10	1
4902554	53	C	07/23/2022	21:57	-134.206	49.709	0	972.90	0	3.0810	0	34.3570	0	27.371	0	962.330	0	-1e10	8	-1e10	8	-1E+10	1	-1E+10	1	-1E+10	1	-1E+10	1	-1E+10	1	-1E+10	1
4902554	53	C	07/23/2022	21:57	-134.206	49.709	0	978.10	0	3.0760	0	34.3580	0	27.372	0	967.462	0	-1e10	8	-1e10	8	-1E+10	1	-1E+10	1	-1E+10	1	-1E+10	1	-1E+10	1	-1E+10	1
4902554	53	C	07/23/2022	21:57	-134.206	49.709	0	983.20	0	3.0710	0	34.3590	0	27.373	0	972.494	0	-1e10	8	-1e10	8	-1E+10	1	-1E+10	1	-1E+10	1	-1E+10	1	-1E+10	1	-1E+10	1
4902554	53	C	07/23/2022	21:57	-134.206	49.709	0	988.10	0	3.0640	0	34.3600	0	27.375	0	977.330	0	-1e10	8	-1e10	8	-1E+10	1	-1E+10	1	-1E+10	1	-1E+10	1	-1E+10	1	-1E+10	1
4902554	53	C	07/23/2022	21:57	-134.206	49.709	0	993.00	0	3.0590	0	34.3620	0	27.377	0	982.165	0	-1e10	8	-1e10	8	-1E+10	1	-1E+10	1	-1E+10	1	-1E+10	1	-1E+10	1	-1E+10	1
4902554	53	C	07/23/2022	21:57	-134.206	49.709	0	998.00	0	3.0540	0	34.3630	0	27.378	0	987.098	0	-1e10	8	-1e10	8	-1E+10	1	-1E+10	1	-1E+10	1	-1E+10	1	-1E+10	1	-1E+10	1
4902554	53	C	07/23/2022	21:57	-134.206	49.709	0	1005.50	0	3.0420	0	34.3650	0	27.381	0	994.499	0	-1e10	8	-1e10	8	-1E+10	1	-1E+10	1	-1E+10	1	-1E+10	1	-1E+10	1	-1E+10	1
4902554	53	C	07/23/2022	21:57	-134.206	49.709	0	1015.80	0	3.0260	0	34.3690	0	27.385	0	1004.661	0	-1e10	8	-1e10	8	-1E+10	1	-1E+10	1	-1E+10	1	-1E+10	1	-1E+10	1	-1E+10	1
4902554	53	C	07/23/2022	21:57	-134.206	49.709	0	1025.40	0	3.0220	0	34.3700	0	27.387	0	1014.133	0	-1e10	8	-1e10	8	-1E+10	1	-1E+10	1	-1E+10	1	-1E+10	1	-1E+10	1	-1E+10	1
4902554	53	C	07/23/2022	21:57	-134.206	49.709	0	1035.40	0	3.0080	0	34.3730	0	27.390	0	1023.999	0	-1e10	8	-1e10	8	-1E+10	1	-1E+10	1	-1E+10	1	-1E+10	1	-1E+10	1	-1E+10	1
4902554	53	C	07/23/2022	21:57	-134.206	49.709	0	1045.90	0	2.9910	0	34.3760	0	27.394	0	1034.357	0	-1e10	8	-1e10	8	-1E+10	1	-1E+10	1	-1E+10	1	-1E+10	1	-1E+10	1	-1E+10	1
4902554	53	C	07/23/2022	21:57	-134.206	49.709	0	1055.90	0	2.9710	0	34.3810	0	27.400	0	1044.222	0	-1e10	8	-1e10	8	-1E+10	1	-1E+10	1	-1E+10	1	-1E+10	1	-1E+10	1	-1E+10	1
4902554	53	C	07/23/2022	21:57	-134.206	49.709	0	1065.80	0	2.9570	0	34.3840	0	27.404	0	1053.987	0	-1e10	8	-1e10	8	-1E+10	1	-1E+10	1	-1E+10	1	-1E+10	1	-1E+10	1	-1E+10	1
4902554	53	C	07/23/2022	21:57	-134.206	49.709	0	1075.50	0	2.9450	0	34.3870	0	27.407	0	1063.555	0	-1e10	8	-1e10	8	-1E+10	1	-1E+10	1	-1E+10	1	-1E+10	1	-1E+10	1	-1E+10	1
4902554	53	C	07/23/2022	21:57	-134.206	49.709	0	1085.40	0	2.9290	0	34.3910	0	27.412	0	1073.320	0	-1e10	8	-1e10	8	-1E+10	1	-1E+10	1	-1E+10	1	-1E+10	1	-1E+10	1	-1E+10	1
4902554	53	C	07/23/2022	21:57	-134.206	49.709	0	1095.20	0	2.9130	0	34.3940	0	27.416	0	1082.986	0	-1e10	8	-1e10	8	-1E+10	1	-1E+10	1	-1E+10	1	-1E+10	1	-1E+10	1	-1E+10	1
4902554	53	C	07/23/2022	21:57	-134.206	49.709	0	1105.30	0	2.8940	0	34.3980	0	27.421	0	1092.947	0	-1e10	8	-1e10	8	-1E+10	1	-1E+10	1	-1E+10	1	-1E+10	1	-1E+10	1	-1E+10	1
4902554	53	C	07/23/2022	21:57	-134.206	49.709	0	1115.20	0	2.8770	0	34.4010	0	27.425	0	1102.710	0	-1e10	8	-1e10	8	-1E+10	1	-1E+10	1	-1E+10	1	-1E+10	1	-1E+10	1	-1E+10	1
4902554	53	C	07/23/2022	21:57	-134.206	49.709	0	1125.20	0	2.8610	0	34.4040	0	27.429	0	1112.572	0	-1e10	8	-1e10	8	-1E+10	1	-1E+10	1	-1E+10	1	-1E+10	1	-1E+10	1	-1E+10	1
4902554	53	C	07/23/2022	21:57	-134.206	49.709	0	1135.20	0	2.8550	0	34.4070	0	27.432	0	1122.433	0	-1e10	8	-1e10	8	-1E+10	1	-1E+10	1	-1E+10	1	-1E+10	1	-1E+10	1	-1E+10	1
4902554	53	C	07/23/2022	21:57	-134.206	49.709	0	1145.20	0	2.8350	0	34.4120	0	27.437	0	1132.293	0	-1e10	8	-1e10	8	-1E+10	1	-1E+10	1	-1E+10	1	-1E+10	1	-1E+10	1	-1E+10	1
4902554	53	C	07/23/2022	21:57	-134.206	49.709	0	1155.20	0	2.8200	0	34.4150	0	27.441	0	1142.153	0	-1e10	8	-1e10	8	-1E+10	1	-1E+10	1	-1E+10	1	-1E+10	1	-1E+10	1	-1E+10	1
4902554	53	C	07/23/2022	21:57	-134.206	49.709	0	1165.10	0	2.7990	0	34.4190	0	27.446	0	1151.915	0	-1e10	8	-1e10	8	-1E+10	1	-1E+10	1	-1E+10	1	-1E+10	1	-1E+10	1	-1E+10	1
4902554	53	C	07/23/2022	21:57	-134.206	49.709	0	1175.10	0	2.7810	0	34.4220	0	27.450	0	1161.774	0	-1e10	8	-1e10	8	-1E+10	1	-1E+10	1	-1E+10	1	-1E+10	1	-1E+10	1	-1E+10	1
4902554	53	C	07/23/2022	21:57	-134.206	49.709	0	1185.20	0	2.7610	0	34.4250	0	27.455	0	1171.731	0	-1e10	8	-1e10	8	-1E+10	1	-1E+10	1	-1E+10	1	-1E+10	1	-1E+10	1	-1E+10	1
4902554	53	C	07/23/2022	21:57	-134.206	49.709	0	1195.40	0	2.7510	0	34.4280	0	27.458	0	1181.787	0	-1e10	8	-1e10	8	-1E+10	1	-1E+10	1	-1E+10	1	-1E+10	1	-1E+10	1	-1E+10	1
4902554	53	C	07/23/2022	21:57	-134.206	49.709	0	1205.30	0	2.7420	0	34.4290	0	27.460	0	1191.546	0	-1e10	8	-1e10	8	-1E+10	1	-1E+10	1	-1E+10	1	-1E+10	1	-1E+10	1	-1E+10	1
4902554	53	C	07/23/2022	21:57	-134.206	49.709	0	1215.50	0	2.7240	0	34.4320	0	27.464	0	1201.600	0	-1e10	8	-1e10	8	-1E+10	1	-1E+10	1	-1E+10	1	-1E+10	1	-1E+10	1	-1E+10	1
4902554	53	C	07/23/2022	21:57	-134.206	49.709	0	1225.60	0	2.7050	0	34.4360	0	27.468	0	1211.556	0	-1e10	8	-1e10	8	-1E+10	1	-1E+10	1	-1E+10	1	-1E+10	1	-1E+10	1	-1E+10	1
4902554	53	C	07/23/2022	21:57	-134.206	49.709	0	1235.60	0	2.6950	0	34.4380	0	27.471	0	1221.412	0	-1e10	8	-1e10	8	-1E+10	1	-1E+10	1	-1E+10	1	-1E+10	1	-1E+10	1	-1E+10	1
4902554	53	C	07/23/2022	21:57	-134.206	49.709	0	1245.50	0	2.6800	0	34.4410	0	27.475	0	1231.169	0	-1e10	8	-1e10	8	-1E+10	1	-1E+10	1	-1E+10	1	-1E+10	1	-1E+10	1	-1E+10	1
4902554	53	C	07/23/2022	21:57	-134.206	49.709	0	1255.30	0	2.6660	0	34.4430	0	27.478	0	1240.828	0	-1e10	8	-1e10	8	-1E+10	1	-1E+10	1	-1E+10	1	-1E+10	1	-1E+10	1	-1E+10	1
4902554	53	C	07/23/2022	21:57	-134.206	49.709	0	1265.40	0	2.6470	0	34.4460	0	27.482	0	1250.781	0	-1e10	8	-1e10	8	-1E+10	1	-1E+10	1	-1E+10	1	-1E+10	1	-1E+10	1	-1E+10	1
4902554	53	C	07/23/2022	21:57	-134.206	49.709	0	1275.20	0	2.6320	0	34.4480	0	27.485	0	1260.439	0	-1e10	8	-1e10	8	-1E+10	1	-1E+10	1	-1E+10	1	-1E+10	1	-1E+10	1	-1E+10	1
4902554	53	C	07/23/2022	21:57	-134.206	49.709	0	1285.40	0	2.6190	0	34.4500	0	27.487	0	1270.490	0	-1e10	8	-1e10	8	-1E+10	1	-1E+10	1	-1E+10	1	-1E+10	1	-1E+10	1	-1E+10	1
4902554	53	C	07/23/2022	21:57	-134.206	49.709	0	1295.50	0	2.6040	0	34.4530	0	27.491	0	1280.442	0	-1e10	8	-1e10	8	-1E+10	1	-1E+10	1	-1E+10	1	-1E+10	1	-1E+10	1	-1E+10	1
4902554	53	C	07/23/2022	21:57	-134.206	49.709	0	1305.30	0	2.5930	0	34.4550	0	27.494	0	1290.098	0	-1e10	8	-1e10	8	-1E+10	1	-1E+10	1	-1E+10	1	-1E+10	1	-1E+10	1	-1E+10	1
4902554	53	C	07/23/2022	21:57	-134.206	49.709	0	1315.10	0	2.5830	0	34.4570	0	27.496	0	1299.754	0	-1e10	8	-1e10	8	-1E+10	1	-1E+10	1	-1E+10	1	-1E+10	1	-1E+10	1	-1E+10	1
4902554	53	C	07/23/2022	21:57	-134.206	49.709	0	1325.20	0	2.5780	0	34.4580	0	27.497	0	1309.705	0	-1e10	8	-1e10	8	-1E+10	1	-1E+10	1	-1E+10	1	-1E+10	1	-1E+10	1	-1E+10	1
4902554	53	C	07/23/2022	21:57	-134.206	49.709	0	1335.40	0	2.5710	0	34.4590	0	27.499	0	1319.754	0	-1e10	8	-1e10	8	-1E+10	1	-1E+10	1	-1E+10	1	-1E+10	1	-1E+10	1	-1E+10	1
4902554	53	C	07/23/2022	21:57	-134.206	49.709	0	1345.30	0	2.5610	0	34.4610	0	27.501	0	1329.506	0	-1e10	8	-1e10	8	-1E+10	1	-1E+10	1	-1E+10	1	-1E+10	1	-1E+10	1	-1E+10	1
4902554	53	C	07/23/2022	21:57	-134.206	49.709	0	1355.20	0	2.5530	0	34.4630	0	27.504	0	1339.259	0	-1e10	8	-1e10	8	-1E+10	1	-1E+10	1	-1E+10	1	-1E+10	1	-1E+10	1	-1E+10	1
4902554	53	C	07/23/2022	21:57	-134.206	49.709	0	1365.40	0	2.5390	0	34.4660	0	27.507	0	1349.306	0	-1e10	8	-1e10	8	-1E+10	1	-1E+10	1	-1E+10	1	-1E+10	1	-1E+10	1	-1E+10	1
4902554	53	C	07/23/2022	21:57	-134.206	49.709	0	1375.40	0	2.5330	0	34.4670	0	27.509	0	1359.156	0	-1e10	8	-1e10	8	-1E+10	1	-1E+10	1	-1E+10	1	-1E+10	1	-1E+10	1	-1E+10	1
4902554	53	C	07/23/2022	21:57	-134.206	49.709	0	1385.50	0	2.5280	0	34.4680	0	27.510	0	1369.104	0	-1e10	8	-1e10	8	-1E+10	1	-1E+10	1	-1E+10	1	-1E+10	1	-1E+10	1	-1E+10	1
4902554	53	C	07/23/2022	21:57	-134.206	49.709	0	1395.20	0	2.5130	0	34.4710	0	27.514	0	1378.657	0	-1e10	8	-1e10	8	-1E+10	1	-1E+10	1	-1E+10	1	-1E+10	1	-1E+10	1	-1E+10	1
4902554	53	C	07/23/2022	21:57	-134.206	49.709	0	1405.10	0	2.4990	0	34.4730	0	27.517	0	1388.407	0	-1e10	8	-1e10	8	-1E+10	1	-1E+10	1	-1E+10	1	-1E+10	1	-1E+10	1	-1E+10	1
4902554	53	C	07/23/2022	21:57	-134.206	49.709	0	1415.40	0	2.4860	0	34.4760	0	27.520	0	1398.551	0	-1e10	8	-1e10	8	-1E+10	1	-1E+10	1	-1E+10	1	-1E+10	1	-1E+10	1	-1E+10	1
4902554	53	C	07/23/2022	21:57	-134.206	49.709	0	1425.90	0	2.4730	0	34.4780	0	27.523	0	1408.891	0	-1e10	8	-1e10	8	-1E+10	1	-1E+10	1	-1E+10	1	-1E+10	1	-1E+10	1	-1E+10	1
4902554	53	C	07/23/2022	21:57	-134.206	49.709	0	1435.40	0	2.4650	0	34.4800	0	27.525	0	1418.246	0	-1e10	8	-1e10	8	-1E+10	1	-1E+10	1	-1E+10	1	-1E+10	1	-1E+10	1	-1E+10	1
4902554	53	C	07/23/2022	21:57	-134.206	49.709	0	1445.00	0	2.4590	0	34.4820	0	27.527	0	1427.699	0	-1e10	8	-1e10	8	-1E+10	1	-1E+10	1	-1E+10	1	-1E+10	1	-1E+10	1	-1E+10	1
4902554	53	C	07/23/2022	21:57	-134.206	49.709	0	1455.40	0	2.4510	0	34.4840	0	27.530	0	1437.939	0	-1e10	8	-1e10	8	-1E+10	1	-1E+10	1	-1E+10	1	-1E+10	1	-1E+10	1	-1E+10	1
4902554	53	C	07/23/2022	21:57	-134.206	49.709	0	1465.70	0	2.4420	0	34.4860	0	27.532	0	1448.080	0	-1e10	8	-1e10	8	-1E+10	1	-1E+10	1	-1E+10	1	-1E+10	1	-1E+10	1	-1E+10	1
4902554	53	C	07/23/2022	21:57	-134.206	49.709	0	1475.40	0	2.4320	0	34.4880	0	27.535	0	1457.630	0	-1e10	8	-1e10	8	-1E+10	1	-1E+10	1	-1E+10	1	-1E+10	1	-1E+10	1	-1E+10	1
4902554	53	C	07/23/2022	21:57	-134.206	49.709	0	1485.40	0	2.4150	0	34.4920	0	27.539	0	1467.475	0	-1e10	8	-1e10	8	-1E+10	1	-1E+10	1	-1E+10	1	-1E+10	1	-1E+10	1	-1E+10	1
4902554	53	C	07/23/2022	21:57	-134.206	49.709	0	1495.50	0	2.4020	0	34.4950	0	27.543	0	1477.417	0	-1e10	8	-1e10	8	-1E+10	1	-1E+10	1	-1E+10	1	-1E+10	1	-1E+10	1	-1E+10	1
4902554	53	C	07/23/2022	21:57	-134.206	49.709	0	1505.20	0	2.3940	0	34.4970	0	27.545	0	1486.966	0	-1e10	8	-1e10	8	-1E+10	1	-1E+10	1	-1E+10	1	-1E+10	1	-1E+10	1	-1E+10	1
4902554	53	C	07/23/2022	21:57	-134.206	49.709	0	1515.20	0	2.3830	0	34.5000	0	27.548	0	1496.809	0	-1e10	8	-1e10	8	-1E+10	1	-1E+10	1	-1E+10	1	-1E+10	1	-1E+10	1	-1E+10	1
4902554	53	C	07/23/2022	21:57	-134.206	49.709	0	1525.40	0	2.3690	0	34.5030	0	27.552	0	1506.849	0	-1e10	8	-1e10	8	-1E+10	1	-1E+10	1	-1E+10	1	-1E+10	1	-1E+10	1	-1E+10	1
4902554	53	C	07/23/2022	21:57	-134.206	49.709	0	1535.20	0	2.3550	0	34.5050	0	27.555	0	1516.495	0	-1e10	8	-1e10	8	-1E+10	1	-1E+10	1	-1E+10	1	-1E+10	1	-1E+10	1	-1E+10	1
4902554	53	C	07/23/2022	21:57	-134.206	49.709	0	1545.20	0	2.3400	0	34.5080	0	27.559	0	1526.337	0	-1e10	8	-1e10	8	-1E+10	1	-1E+10	1	-1E+10	1	-1E+10	1	-1E+10	1	-1E+10	1
4902554	53	C	07/23/2022	21:57	-134.206	49.709	0	1555.30	0	2.3300	0	34.5100	0	27.561	0	1536.277	0	-1e10	8	-1e10	8	-1E+10	1	-1E+10	1	-1E+10	1	-1E+10	1	-1E+10	1	-1E+10	1
4902554	53	C	07/23/2022	21:57	-134.206	49.709	0	1565.00	0	2.3180	0	34.5130	0	27.564	0	1545.823	0	-1e10	8	-1e10	8	-1E+10	1	-1E+10	1	-1E+10	1	-1E+10	1	-1E+10	1	-1E+10	1
4902554	53	C	07/23/2022	21:57	-134.206	49.709	0	1575.10	0	2.3060	0	34.5150	0	27.567	0	1555.762	0	-1e10	8	-1e10	8	-1E+10	1	-1E+10	1	-1E+10	1	-1E+10	1	-1E+10	1	-1E+10	1
4902554	53	C	07/23/2022	21:57	-134.206	49.709	0	1585.20	0	2.2930	0	34.5170	0	27.570	0	1565.701	0	-1e10	8	-1e10	8	-1E+10	1	-1E+10	1	-1E+10	1	-1E+10	1	-1E+10	1	-1E+10	1
4902554	53	C	07/23/2022	21:57	-134.206	49.709	0	1595.20	0	2.2830	0	34.5190	0	27.572	0	1575.541	0	-1e10	8	-1e10	8	-1E+10	1	-1E+10	1	-1E+10	1	-1E+10	1	-1E+10	1	-1E+10	1
4902554	53	C	07/23/2022	21:57	-134.206	49.709	0	1605.10	0	2.2680	0	34.5220	0	27.576	0	1585.282	0	-1e10	8	-1e10	8	-1E+10	1	-1E+10	1	-1E+10	1	-1E+10	1	-1E+10	1	-1E+10	1
4902554	53	C	07/23/2022	21:57	-134.206	49.709	0	1615.40	0	2.2600	0	34.5240	0	27.578	0	1595.416	0	-1e10	8	-1e10	8	-1E+10	1	-1E+10	1	-1E+10	1	-1E+10	1	-1E+10	1	-1E+10	1
4902554	53	C	07/23/2022	21:57	-134.206	49.709	0	1625.70	0	2.2510	0	34.5260	0	27.581	0	1605.549	0	-1e10	8	-1e10	8	-1E+10	1	-1E+10	1	-1E+10	1	-1E+10	1	-1E+10	1	-1E+10	1
4902554	53	C	07/23/2022	21:57	-134.206	49.709	0	1635.50	0	2.2440	0	34.5270	0	27.582	0	1615.191	0	-1e10	8	-1e10	8	-1E+10	1	-1E+10	1	-1E+10	1	-1E+10	1	-1E+10	1	-1E+10	1
4902554	53	C	07/23/2022	21:57	-134.206	49.709	0	1645.30	0	2.2350	0	34.5280	0	27.584	0	1624.831	0	-1e10	8	-1e10	8	-1E+10	1	-1E+10	1	-1E+10	1	-1E+10	1	-1E+10	1	-1E+10	1
4902554	53	C	07/23/2022	21:57	-134.206	49.709	0	1655.20	0	2.2060	0	34.5340	0	27.591	0	1634.570	0	-1e10	8	-1e10	8	-1E+10	1	-1E+10	1	-1E+10	1	-1E+10	1	-1E+10	1	-1E+10	1
4902554	53	C	07/23/2022	21:57	-134.206	49.709	0	1665.20	0	2.1900	0	34.5370	0	27.595	0	1644.406	0	-1e10	8	-1e10	8	-1E+10	1	-1E+10	1	-1E+10	1	-1E+10	1	-1E+10	1	-1E+10	1
4902554	53	C	07/23/2022	21:57	-134.206	49.709	0	1675.30	0	2.1810	0	34.5390	0	27.597	0	1654.341	0	-1e10	8	-1e10	8	-1E+10	1	-1E+10	1	-1E+10	1	-1E+10	1	-1E+10	1	-1E+10	1
4902554	53	C	07/23/2022	21:57	-134.206	49.709	0	1685.40	0	2.1640	0	34.5420	0	27.601	0	1664.275	0	-1e10	8	-1e10	8	-1E+10	1	-1E+10	1	-1E+10	1	-1E+10	1	-1E+10	1	-1E+10	1
4902554	53	C	07/23/2022	21:57	-134.206	49.709	0	1695.20	0	2.1560	0	34.5430	0	27.602	0	1673.913	0	-1e10	8	-1e10	8	-1E+10	1	-1E+10	1	-1E+10	1	-1E+10	1	-1E+10	1	-1E+10	1
4902554	53	C	07/23/2022	21:57	-134.206	49.709	0	1705.10	0	2.1470	0	34.5450	0	27.605	0	1683.650	0	-1e10	8	-1e10	8	-1E+10	1	-1E+10	1	-1E+10	1	-1E+10	1	-1E+10	1	-1E+10	1
4902554	53	C	07/23/2022	21:57	-134.206	49.709	0	1715.30	0	2.1400	0	34.5470	0	27.607	0	1693.681	0	-1e10	8	-1e10	8	-1E+10	1	-1E+10	1	-1E+10	1	-1E+10	1	-1E+10	1	-1E+10	1
4902554	53	C	07/23/2022	21:57	-134.206	49.709	0	1725.50	0	2.1310	0	34.5480	0	27.608	0	1703.711	0	-1e10	8	-1e10	8	-1E+10	1	-1E+10	1	-1E+10	1	-1E+10	1	-1E+10	1	-1E+10	1
4902554	53	C	07/23/2022	21:57	-134.206	49.709	0	1735.60	0	2.1210	0	34.5500	0	27.611	0	1713.643	0	-1e10	8	-1e10	8	-1E+10	1	-1E+10	1	-1E+10	1	-1E+10	1	-1E+10	1	-1E+10	1
4902554	53	C	07/23/2022	21:57	-134.206	49.709	0	1745.60	0	2.1070	0	34.5530	0	27.614	0	1723.476	0	-1e10	8	-1e10	8	-1E+10	1	-1E+10	1	-1E+10	1	-1E+10	1	-1E+10	1	-1E+10	1
4902554	53	C	07/23/2022	21:57	-134.206	49.709	0	1755.50	0	2.0920	0	34.5560	0	27.618	0	1733.210	0	-1e10	8	-1e10	8	-1E+10	1	-1E+10	1	-1E+10	1	-1E+10	1	-1E+10	1	-1E+10	1
4902554	53	C	07/23/2022	21:57	-134.206	49.709	0	1765.40	0	2.0800	0	34.5580	0	27.621	0	1742.944	0	-1e10	8	-1e10	8	-1E+10	1	-1E+10	1	-1E+10	1	-1E+10	1	-1E+10	1	-1E+10	1
4902554	53	C	07/23/2022	21:57	-134.206	49.709	0	1775.30	0	2.0700	0	34.5600	0	27.623	0	1752.677	0	-1e10	8	-1e10	8	-1E+10	1	-1E+10	1	-1E+10	1	-1E+10	1	-1E+10	1	-1E+10	1
4902554	53	C	07/23/2022	21:57	-134.206	49.709	0	1785.20	0	2.0630	0	34.5610	0	27.624	0	1762.410	0	-1e10	8	-1e10	8	-1E+10	1	-1E+10	1	-1E+10	1	-1E+10	1	-1E+10	1	-1E+10	1
4902554	53	C	07/23/2022	21:57	-134.206	49.709	0	1795.40	0	2.0600	0	34.5620	0	27.626	0	1772.437	0	-1e10	8	-1e10	8	-1E+10	1	-1E+10	1	-1E+10	1	-1E+10	1	-1E+10	1	-1E+10	1
4902554	53	C	07/23/2022	21:57	-134.206	49.709	0	1805.40	0	2.0560	0	34.5630	0	27.627	0	1782.267	0	-1e10	8	-1e10	8	-1E+10	1	-1E+10	1	-1E+10	1	-1E+10	1	-1E+10	1	-1E+10	1
4902554	53	C	07/23/2022	21:57	-134.206	49.709	0	1815.10	0	2.0490	0	34.5640	0	27.628	0	1791.802	0	-1e10	8	-1e10	8	-1E+10	1	-1E+10	1	-1E+10	1	-1E+10	1	-1E+10	1	-1E+10	1
4902554	53	C	07/23/2022	21:57	-134.206	49.709	0	1825.30	0	2.0430	0	34.5650	0	27.629	0	1801.828	0	-1e10	8	-1e10	8	-1E+10	1	-1E+10	1	-1E+10	1	-1E+10	1	-1E+10	1	-1E+10	1
4902554	53	C	07/23/2022	21:57	-134.206	49.709	0	1835.60	0	2.0400	0	34.5660	0	27.631	0	1811.952	0	-1e10	8	-1e10	8	-1E+10	1	-1E+10	1	-1E+10	1	-1E+10	1	-1E+10	1	-1E+10	1
4902554	53	C	07/23/2022	21:57	-134.206	49.709	0	1845.60	0	2.0370	0	34.5670	0	27.632	0	1821.780	0	-1e10	8	-1e10	8	-1E+10	1	-1E+10	1	-1E+10	1	-1E+10	1	-1E+10	1	-1E+10	1
4902554	53	C	07/23/2022	21:57	-134.206	49.709	0	1855.40	0	2.0320	0	34.5680	0	27.633	0	1831.411	0	-1e10	8	-1e10	8	-1E+10	1	-1E+10	1	-1E+10	1	-1E+10	1	-1E+10	1	-1E+10	1
4902554	53	C	07/23/2022	21:57	-134.206	49.709	0	1865.40	0	2.0280	0	34.5690	0	27.634	0	1841.239	0	-1e10	8	-1e10	8	-1E+10	1	-1E+10	1	-1E+10	1	-1E+10	1	-1E+10	1	-1E+10	1
4902554	53	C	07/23/2022	21:57	-134.206	49.709	0	1875.70	0	2.0200	0	34.5710	0	27.636	0	1851.360	0	-1e10	8	-1e10	8	-1E+10	1	-1E+10	1	-1E+10	1	-1E+10	1	-1E+10	1	-1E+10	1
4902554	53	C	07/23/2022	21:57	-134.206	49.709	0	1885.60	0	2.0160	0	34.5720	0	27.637	0	1861.089	0	-1e10	8	-1e10	8	-1E+10	1	-1E+10	1	-1E+10	1	-1E+10	1	-1E+10	1	-1E+10	1
4902554	53	C	07/23/2022	21:57	-134.206	49.709	0	1895.50	0	2.0120	0	34.5720	0	27.638	0	1870.817	0	-1e10	8	-1e10	8	-1E+10	1	-1E+10	1	-1E+10	1	-1E+10	1	-1E+10	1	-1E+10	1
4902554	53	C	07/23/2022	21:57	-134.206	49.709	0	1905.40	0	2.0050	0	34.5740	0	27.640	0	1880.544	0	-1e10	8	-1e10	8	-1E+10	1	-1E+10	1	-1E+10	1	-1E+10	1	-1E+10	1	-1E+10	1
4902554	53	C	07/23/2022	21:57	-134.206	49.709	0	1915.50	0	2.0030	0	34.5740	0	27.640	0	1890.467	0	-1e10	8	-1e10	8	-1E+10	1	-1E+10	1	-1E+10	1	-1E+10	1	-1E+10	1	-1E+10	1
4902554	53	C	07/23/2022	21:57	-134.206	49.709	0	1925.50	0	1.9960	0	34.5760	0	27.642	0	1900.292	0	-1e10	8	-1e10	8	-1E+10	1	-1E+10	1	-1E+10	1	-1E+10	1	-1E+10	1	-1E+10	1
4902554	53	C	07/23/2022	21:57	-134.206	49.709	0	1935.20	0	1.9870	0	34.5770	0	27.644	0	1909.822	0	-1e10	8	-1e10	8	-1E+10	1	-1E+10	1	-1E+10	1	-1E+10	1	-1E+10	1	-1E+10	1
4902554	53	C	07/23/2022	21:57	-134.206	49.709	0	1945.40	0	1.9820	0	34.5780	0	27.645	0	1919.842	0	-1e10	8	-1e10	8	-1E+10	1	-1E+10	1	-1E+10	1	-1E+10	1	-1E+10	1	-1E+10	1
4902554	53	C	07/23/2022	21:57	-134.206	49.709	0	1955.70	0	1.9720	0	34.5800	0	27.648	0	1929.960	0	-1e10	8	-1e10	8	-1E+10	1	-1E+10	1	-1E+10	1	-1E+10	1	-1E+10	1	-1E+10	1
4902554	53	C	07/23/2022	21:57	-134.206	49.709	0	1965.70	0	1.9650	0	34.5820	0	27.650	0	1939.783	0	-1e10	8	-1e10	8	-1E+10	1	-1E+10	1	-1E+10	1	-1E+10	1	-1E+10	1	-1E+10	1
4902554	53	C	07/23/2022	21:57	-134.206	49.709	0	1975.50	0	1.9600	0	34.5830	0	27.651	0	1949.409	0	-1e10	8	-1e10	8	-1E+10	1	-1E+10	1	-1E+10	1	-1E+10	1	-1E+10	1	-1E+10	1
4902554	53	C	07/23/2022	21:57	-134.206	49.709	0	1985.40	0	1.9540	0	34.5840	0	27.652	0	1959.133	0	-1e10	8	-1e10	8	-1E+10	1	-1E+10	1	-1E+10	1	-1E+10	1	-1E+10	1	-1E+10	1
4902554	53	C	07/23/2022	21:57	-134.206	49.709	0	1995.40	0	1.9490	0	34.5850	0	27.654	0	1968.954	0	-1e10	8	-1e10	8	-1E+10	1	-1E+10	1	-1E+10	1	-1E+10	1	-1E+10	1	-1E+10	1
4902554	53	C	07/23/2022	21:57	-134.206	49.709	0	2005.50	0	1.9440	0	34.5860	0	27.655	0	1978.873	0	-1e10	8	-1e10	8	-1E+10	1	-1E+10	1	-1E+10	1	-1E+10	1	-1E+10	1	-1E+10	1
4902554	53	C	07/23/2022	21:57	-134.206	49.709	0	2015.90	0	1.9370	0	34.5870	0	27.656	0	1989.087	0	-1e10	8	-1e10	8	-1E+10	1	-1E+10	1	-1E+10	1	-1E+10	1	-1E+10	1	-1E+10	1
4902554	53	C	07/23/2022	21:57	-134.206	49.709	0	2021.70	0	1.9350	0	34.5880	0	27.657	0	1994.782	0	-1e10	8	-1e10	8	-1E+10	1	-1E+10	1	-1E+10	1	-1E+10	1	-1E+10	1	-1E+10	1
4902554	53	C	07/23/2022	21:57	-134.206	49.709	0																										
4902554	54	C	08/03/2022	03:01	-133.993	49.689	0	0.20	0	15.0470	0	32.1230	0	23.746	0	0.198	0	-1e10	8	-1e10	8	-1E+10	1	-1E+10	1	-1E+10	1	-1E+10	1	-1E+10	1	-1E+10	1
4902554	54	C	08/03/2022	03:01	-133.993	49.689	0	0.30	0	15.0460	0	32.1300	0	23.751	0	0.297	0	-1e10	1	-1e10	1	-1E+10	1	-1E+10	1	-1E+10	1	-1E+10	1	-1E+10	1	-1E+10	1
4902554	54	C	08/03/2022	03:01	-133.993	49.689	0	0.40	0	15.0450	0	32.1450	0	23.763	0	0.397	0	-1e10	8	-1e10	8	-1E+10	1	-1E+10	1	-1E+10	1	-1E+10	1	-1E+10	1	-1E+10	1
4902554	54	C	08/03/2022	03:01	-133.993	49.689	0	0.90	0	15.0480	0	32.1460	0	23.763	0	0.892	0	-1e10	8	-1e10	8	-1E+10	1	-1E+10	1	-1E+10	1	-1E+10	1	-1E+10	1	-1E+10	1
4902554	54	C	08/03/2022	03:01	-133.993	49.689	0	1.80	0	15.0490	0	32.1450	0	23.762	0	1.785	0	-1e10	8	-1e10	8	-1E+10	1	-1E+10	1	-1E+10	1	-1E+10	1	-1E+10	1	-1E+10	1
4902554	54	C	08/03/2022	03:01	-133.993	49.689	0	2.90	0	15.0520	0	32.1450	0	23.762	0	2.875	0	-1e10	8	-1e10	8	-1E+10	1	-1E+10	1	-1E+10	1	-1E+10	1	-1E+10	1	-1E+10	1
4902554	54	C	08/03/2022	03:01	-133.993	49.689	0	4.10	0	15.0520	0	32.1450	0	23.762	0	4.065	0	-1e10	8	-1e10	8	-1E+10	1	-1E+10	1	-1E+10	1	-1E+10	1	-1E+10	1	-1E+10	1
4902554	54	C	08/03/2022	03:01	-133.993	49.689	0	4.90	0	15.0510	0	32.1480	0	23.764	0	4.858	0	-1e10	8	-1e10	8	-1E+10	1	-1E+10	1	-1E+10	1	-1E+10	1	-1E+10	1	-1E+10	1
4902554	54	C	08/03/2022	03:01	-133.993	49.689	0	6.20	0	15.0470	0	32.1490	0	23.766	0	6.147	0	-1e10	8	-1e10	8	-1E+10	1	-1E+10	1	-1E+10	1	-1E+10	1	-1E+10	1	-1E+10	1
4902554	54	C	08/03/2022	03:01	-133.993	49.689	0	6.90	0	15.0510	0	32.1480	0	23.764	0	6.841	0	-1e10	8	-1e10	8	-1E+10	1	-1E+10	1	-1E+10	1	-1E+10	1	-1E+10	1	-1E+10	1
4902554	54	C	08/03/2022	03:01	-133.993	49.689	0	8.00	0	15.0450	0	32.1470	0	23.765	0	7.931	0	-1e10	8	-1e10	8	-1E+10	1	-1E+10	1	-1E+10	1	-1E+10	1	-1E+10	1	-1E+10	1
4902554	54	C	08/03/2022	03:01	-133.993	49.689	0	9.00	0	15.0390	0	32.1460	0	23.765	0	8.923	0	-1e10	8	-1e10	8	-1E+10	1	-1E+10	1	-1E+10	1	-1E+10	1	-1E+10	1	-1E+10	1
4902554	54	C	08/03/2022	03:01	-133.993	49.689	0	9.90	0	15.0370	0	32.1470	0	23.767	0	9.815	0	-1e10	8	-1e10	8	-1E+10	1	-1E+10	1	-1E+10	1	-1E+10	1	-1E+10	1	-1E+10	1
4902554	54	C	08/03/2022	03:01	-133.993	49.689	0	11.10	0	15.0220	0	32.1460	0	23.769	0	11.005	0	-1e10	8	-1e10	8	-1E+10	1	-1E+10	1	-1E+10	1	-1E+10	1	-1E+10	1	-1E+10	1
4902554	54	C	08/03/2022	03:01	-133.993	49.689	0	12.00	0	15.0080	0	32.1440	0	23.771	0	11.897	0	-1e10	8	-1e10	8	-1E+10	1	-1E+10	1	-1E+10	1	-1E+10	1	-1E+10	1	-1E+10	1
4902554	54	C	08/03/2022	03:01	-133.993	49.689	0	13.30	0	14.9450	0	32.1380	0	23.779	0	13.186	0	-1e10	8	-1e10	8	-1E+10	1	-1E+10	1	-1E+10	1	-1E+10	1	-1E+10	1	-1E+10	1
4902554	54	C	08/03/2022	03:01	-133.993	49.689	0	14.20	0	14.8930	0	32.1420	0	23.794	0	14.078	0	-1e10	8	-1e10	8	-1E+10	1	-1E+10	1	-1E+10	1	-1E+10	1	-1E+10	1	-1E+10	1
4902554	54	C	08/03/2022	03:01	-133.993	49.689	0	14.80	0	14.8370	0	32.1400	0	23.804	0	14.673	0	-1e10	8	-1e10	8	-1E+10	1	-1E+10	1	-1E+10	1	-1E+10	1	-1E+10	1	-1E+10	1
4902554	54	C	08/03/2022	03:01	-133.993	49.689	0	16.10	0	14.7710	0	32.1360	0	23.815	0	15.962	0	-1e10	8	-1e10	8	-1E+10	1	-1E+10	1	-1E+10	1	-1E+10	1	-1E+10	1	-1E+10	1
4902554	54	C	08/03/2022	03:01	-133.993	49.689	0	17.00	0	14.6320	0	32.1410	0	23.848	0	16.854	0	-1e10	8	-1e10	8	-1E+10	1	-1E+10	1	-1E+10	1	-1E+10	1	-1E+10	1	-1E+10	1
4902554	54	C	08/03/2022	03:01	-133.993	49.689	0	18.00	0	14.5320	0	32.1410	0	23.869	0	17.845	0	-1e10	8	-1e10	8	-1E+10	1	-1E+10	1	-1E+10	1	-1E+10	1	-1E+10	1	-1E+10	1
4902554	54	C	08/03/2022	03:01	-133.993	49.689	0	19.00	0	14.4340	0	32.1410	0	23.890	0	18.837	0	-1e10	8	-1e10	8	-1E+10	1	-1E+10	1	-1E+10	1	-1E+10	1	-1E+10	1	-1E+10	1
4902554	54	C	08/03/2022	03:01	-133.993	49.689	0	20.00	0	14.4150	0	32.1380	0	23.892	0	19.828	0	-1e10	8	-1e10	8	-1E+10	1	-1E+10	1	-1E+10	1	-1E+10	1	-1E+10	1	-1E+10	1
4902554	54	C	08/03/2022	03:01	-133.993	49.689	0	21.00	0	14.3590	0	32.1390	0	23.904	0	20.820	0	-1e10	8	-1e10	8	-1E+10	1	-1E+10	1	-1E+10	1	-1E+10	1	-1E+10	1	-1E+10	1
4902554	54	C	08/03/2022	03:01	-133.993	49.689	0	22.00	0	14.2520	0	32.1390	0	23.926	0	21.811	0	-1e10	8	-1e10	8	-1E+10	1	-1E+10	1	-1E+10	1	-1E+10	1	-1E+10	1	-1E+10	1
4902554	54	C	08/03/2022	03:01	-133.993	49.689	0	23.00	0	14.2010	0	32.1320	0	23.932	0	22.802	0	-1e10	8	-1e10	8	-1E+10	1	-1E+10	1	-1E+10	1	-1E+10	1	-1E+10	1	-1E+10	1
4902554	54	C	08/03/2022	03:01	-133.993	49.689	0	24.00	0	13.9760	0	32.1380	0	23.983	0	23.794	0	-1e10	8	-1e10	8	-1E+10	1	-1E+10	1	-1E+10	1	-1E+10	1	-1E+10	1	-1E+10	1
4902554	54	C	08/03/2022	03:01	-133.993	49.689	0	25.00	0	13.6360	0	32.1380	0	24.052	0	24.785	0	-1e10	8	-1e10	8	-1E+10	1	-1E+10	1	-1E+10	1	-1E+10	1	-1E+10	1	-1E+10	1
4902554	54	C	08/03/2022	03:01	-133.993	49.689	0	26.00	0	13.3840	0	32.1500	0	24.111	0	25.776	0	-1e10	8	-1e10	8	-1E+10	1	-1E+10	1	-1E+10	1	-1E+10	1	-1E+10	1	-1E+10	1
4902554	54	C	08/03/2022	03:01	-133.993	49.689	0	27.10	0	13.0830	0	32.1470	0	24.169	0	26.867	0	-1e10	8	-1e10	8	-1E+10	1	-1E+10	1	-1E+10	1	-1E+10	1	-1E+10	1	-1E+10	1
4902554	54	C	08/03/2022	03:01	-133.993	49.689	0	28.00	0	12.8060	0	32.1530	0	24.227	0	27.759	0	-1e10	8	-1e10	8	-1E+10	1	-1E+10	1	-1E+10	1	-1E+10	1	-1E+10	1	-1E+10	1
4902554	54	C	08/03/2022	03:01	-133.993	49.689	0	29.10	0	12.5910	0	32.1580	0	24.273	0	28.849	0	-1e10	8	-1e10	8	-1E+10	1	-1E+10	1	-1E+10	1	-1E+10	1	-1E+10	1	-1E+10	1
4902554	54	C	08/03/2022	03:01	-133.993	49.689	0	30.00	0	12.3360	0	32.1620	0	24.324	0	29.741	0	-1e10	8	-1e10	8	-1E+10	1	-1E+10	1	-1E+10	1	-1E+10	1	-1E+10	1	-1E+10	1
4902554	54	C	08/03/2022	03:01	-133.993	49.689	0	31.10	0	11.7910	0	32.1790	0	24.439	0	30.832	0	-1e10	8	-1e10	8	-1E+10	1	-1E+10	1	-1E+10	1	-1E+10	1	-1E+10	1	-1E+10	1
4902554	54	C	08/03/2022	03:01	-133.993	49.689	0	31.90	0	11.5390	0	32.1810	0	24.486	0	31.625	0	-1e10	8	-1e10	8	-1E+10	1	-1E+10	1	-1E+10	1	-1E+10	1	-1E+10	1	-1E+10	1
4902554	54	C	08/03/2022	03:01	-133.993	49.689	0	33.10	0	11.2900	0	32.1870	0	24.536	0	32.815	0	-1e10	8	-1e10	8	-1E+10	1	-1E+10	1	-1E+10	1	-1E+10	1	-1E+10	1	-1E+10	1
4902554	54	C	08/03/2022	03:01	-133.993	49.689	0	33.90	0	11.1080	0	32.1950	0	24.574	0	33.608	0	-1e10	8	-1e10	8	-1E+10	1	-1E+10	1	-1E+10	1	-1E+10	1	-1E+10	1	-1E+10	1
4902554	54	C	08/03/2022	03:01	-133.993	49.689	0	35.00	0	10.7730	0	32.2030	0	24.639	0	34.698	0	-1e10	8	-1e10	8	-1E+10	1	-1E+10	1	-1E+10	1	-1E+10	1	-1E+10	1	-1E+10	1
4902554	54	C	08/03/2022	03:01	-133.993	49.689	0	36.00	0	10.4360	0	32.2140	0	24.705	0	35.689	0	-1e10	8	-1e10	8	-1E+10	1	-1E+10	1	-1E+10	1	-1E+10	1	-1E+10	1	-1E+10	1
4902554	54	C	08/03/2022	03:01	-133.993	49.689	0	37.00	0	10.1310	0	32.2170	0	24.759	0	36.681	0	-1e10	8	-1e10	8	-1E+10	1	-1E+10	1	-1E+10	1	-1E+10	1	-1E+10	1	-1E+10	1
4902554	54	C	08/03/2022	03:01	-133.993	49.689	0	38.20	0	9.9450	0	32.2240	0	24.795	0	37.870	0	-1e10	8	-1e10	8	-1E+10	1	-1E+10	1	-1E+10	1	-1E+10	1	-1E+10	1	-1E+10	1
4902554	54	C	08/03/2022	03:01	-133.993	49.689	0	39.00	0	9.8690	0	32.2240	0	24.808	0	38.663	0	-1e10	8	-1e10	8	-1E+10	1	-1E+10	1	-1E+10	1	-1E+10	1	-1E+10	1	-1E+10	1
4902554	54	C	08/03/2022	03:01	-133.993	49.689	0	40.00	0	9.7670	0	32.2220	0	24.823	0	39.654	0	-1e10	8	-1e10	8	-1E+10	1	-1E+10	1	-1E+10	1	-1E+10	1	-1E+10	1	-1E+10	1
4902554	54	C	08/03/2022	03:01	-133.993	49.689	0	40.80	0	9.6580	0	32.2200	0	24.839	0	40.447	0	-1e10	8	-1e10	8	-1E+10	1	-1E+10	1	-1E+10	1	-1E+10	1	-1E+10	1	-1E+10	1
4902554	54	C	08/03/2022	03:01	-133.993	49.689	0	41.90	0	9.1750	0	32.2430	0	24.934	0	41.538	0	-1e10	8	-1e10	8	-1E+10	1	-1E+10	1	-1E+10	1	-1E+10	1	-1E+10	1	-1E+10	1
4902554	54	C	08/03/2022	03:01	-133.993	49.689	0	42.90	0	8.9860	0	32.2460	0	24.965	0	42.529	0	-1e10	8	-1e10	8	-1E+10	1	-1E+10	1	-1E+10	1	-1E+10	1	-1E+10	1	-1E+10	1
4902554	54	C	08/03/2022	03:01	-133.993	49.689	0	44.00	0	8.9040	0	32.2450	0	24.977	0	43.619	0	-1e10	8	-1e10	8	-1E+10	1	-1E+10	1	-1E+10	1	-1E+10	1	-1E+10	1	-1E+10	1
4902554	54	C	08/03/2022	03:01	-133.993	49.689	0	45.30	0	8.8150	0	32.2450	0	24.991	0	44.908	0	-1e10	8	-1e10	8	-1E+10	1	-1E+10	1	-1E+10	1	-1E+10	1	-1E+10	1	-1E+10	1
4902554	54	C	08/03/2022	03:01	-133.993	49.689	0	45.90	0	8.7170	0	32.2510	0	25.011	0	45.503	0	-1e10	8	-1e10	8	-1E+10	1	-1E+10	1	-1E+10	1	-1E+10	1	-1E+10	1	-1E+10	1
4902554	54	C	08/03/2022	03:01	-133.993	49.689	0	46.90	0	8.6620	0	32.2460	0	25.015	0	46.494	0	-1e10	8	-1e10	8	-1E+10	1	-1E+10	1	-1E+10	1	-1E+10	1	-1E+10	1	-1E+10	1
4902554	54	C	08/03/2022	03:01	-133.993	49.689	0	48.00	0	8.3800	0	32.2580	0	25.067	0	47.584	0	-1e10	8	-1e10	8	-1E+10	1	-1E+10	1	-1E+10	1	-1E+10	1	-1E+10	1	-1E+10	1
4902554	54	C	08/03/2022	03:01	-133.993	49.689	0	48.90	0	8.1990	0	32.2690	0	25.102	0	48.476	0	-1e10	8	-1e10	8	-1E+10	1	-1E+10	1	-1E+10	1	-1E+10	1	-1E+10	1	-1E+10	1
4902554	54	C	08/03/2022	03:01	-133.993	49.689	0	49.80	0	8.1270	0	32.2680	0	25.111	0	49.369	0	-1e10	8	-1e10	8	-1E+10	1	-1E+10	1	-1E+10	1	-1E+10	1	-1E+10	1	-1E+10	1
4902554	54	C	08/03/2022	03:01	-133.993	49.689	0	51.00	0	8.0810	0	32.2690	0	25.119	0	50.558	0	-1e10	8	-1e10	8	-1E+10	1	-1E+10	1	-1E+10	1	-1E+10	1	-1E+10	1	-1E+10	1
4902554	54	C	08/03/2022	03:01	-133.993	49.689	0	52.10	0	8.0380	0	32.2710	0	25.127	0	51.648	0	-1e10	8	-1e10	8	-1E+10	1	-1E+10	1	-1E+10	1	-1E+10	1	-1E+10	1	-1E+10	1
4902554	54	C	08/03/2022	03:01	-133.993	49.689	0	52.90	0	7.9920	0	32.2760	0	25.137	0	52.441	0	-1e10	8	-1e10	8	-1E+10	1	-1E+10	1	-1E+10	1	-1E+10	1	-1E+10	1	-1E+10	1
4902554	54	C	08/03/2022	03:01	-133.993	49.689	0	53.70	0	7.9270	0	32.2850	0	25.154	0	53.234	0	-1e10	8	-1e10	8	-1E+10	1	-1E+10	1	-1E+10	1	-1E+10	1	-1E+10	1	-1E+10	1
4902554	54	C	08/03/2022	03:01	-133.993	49.689	0	54.70	0	7.8820	0	32.2730	0	25.151	0	54.225	0	-1e10	8	-1e10	8	-1E+10	1	-1E+10	1	-1E+10	1	-1E+10	1	-1E+10	1	-1E+10	1
4902554	54	C	08/03/2022	03:01	-133.993	49.689	0	55.70	0	7.8140	0	32.2800	0	25.166	0	55.217	0	-1e10	8	-1e10	8	-1E+10	1	-1E+10	1	-1E+10	1	-1E+10	1	-1E+10	1	-1E+10	1
4902554	54	C	08/03/2022	03:01	-133.993	49.689	0	57.10	0	7.7280	0	32.2790	0	25.177	0	56.604	0	-1e10	8	-1e10	8	-1E+10	1	-1E+10	1	-1E+10	1	-1E+10	1	-1E+10	1	-1E+10	1
4902554	54	C	08/03/2022	03:01	-133.993	49.689	0	58.10	0	7.6150	0	32.2860	0	25.199	0	57.595	0	-1e10	8	-1e10	8	-1E+10	1	-1E+10	1	-1E+10	1	-1E+10	1	-1E+10	1	-1E+10	1
4902554	54	C	08/03/2022	03:01	-133.993	49.689	0	59.30	0	7.4710	0	32.2960	0	25.226	0	58.785	0	-1e10	8	-1e10	8	-1E+10	1	-1E+10	1	-1E+10	1	-1E+10	1	-1E+10	1	-1E+10	1
4902554	54	C	08/03/2022	03:01	-133.993	49.689	0	60.00	0	7.3810	0	32.3010	0	25.243	0	59.479	0	-1e10	8	-1e10	8	-1E+10	1	-1E+10	1	-1E+10	1	-1E+10	1	-1E+10	1	-1E+10	1
4902554	54	C	08/03/2022	03:01	-133.993	49.689	0	61.00	0	7.3590	0	32.3040	0	25.248	0	60.470	0	-1e10	8	-1e10	8	-1E+10	1	-1E+10	1	-1E+10	1	-1E+10	1	-1E+10	1	-1E+10	1
4902554	54	C	08/03/2022	03:01	-133.993	49.689	0	61.80	0	7.3330	0	32.3060	0	25.253	0	61.263	0	-1e10	8	-1e10	8	-1E+10	1	-1E+10	1	-1E+10	1	-1E+10	1	-1E+10	1	-1E+10	1
4902554	54	C	08/03/2022	03:01	-133.993	49.689	0	62.80	0	7.3120	0	32.3090	0	25.259	0	62.254	0	-1e10	8	-1e10	8	-1E+10	1	-1E+10	1	-1E+10	1	-1E+10	1	-1E+10	1	-1E+10	1
4902554	54	C	08/03/2022	03:01	-133.993	49.689	0	63.80	0	7.2810	0	32.3120	0	25.265	0	63.245	0	-1e10	8	-1e10	8	-1E+10	1	-1E+10	1	-1E+10	1	-1E+10	1	-1E+10	1	-1E+10	1
4902554	54	C	08/03/2022	03:01	-133.993	49.689	0	65.00	0	7.2410	0	32.3160	0	25.274	0	64.434	0	-1e10	8	-1e10	8	-1E+10	1	-1E+10	1	-1E+10	1	-1E+10	1	-1E+10	1	-1E+10	1
4902554	54	C	08/03/2022	03:01	-133.993	49.689	0	66.20	0	7.2250	0	32.3180	0	25.277	0	65.624	0	-1e10	8	-1e10	8	-1E+10	1	-1E+10	1	-1E+10	1	-1E+10	1	-1E+10	1	-1E+10	1
4902554	54	C	08/03/2022	03:01	-133.993	49.689	0	66.80	0	7.1960	0	32.3230	0	25.285	0	66.218	0	-1e10	8	-1e10	8	-1E+10	1	-1E+10	1	-1E+10	1	-1E+10	1	-1E+10	1	-1E+10	1
4902554	54	C	08/03/2022	03:01	-133.993	49.689	0	67.90	0	7.1750	0	32.3290	0	25.293	0	67.309	0	-1e10	8	-1e10	8	-1E+10	1	-1E+10	1	-1E+10	1	-1E+10	1	-1E+10	1	-1E+10	1
4902554	54	C	08/03/2022	03:01	-133.993	49.689	0	69.10	0	7.1400	0	32.3330	0	25.301	0	68.498	0	-1e10	8	-1e10	8	-1E+10	1	-1E+10	1	-1E+10	1	-1E+10	1	-1E+10	1	-1E+10	1
4902554	54	C	08/03/2022	03:01	-133.993	49.689	0	69.90	0	7.1260	0	32.3330	0	25.303	0	69.291	0	-1e10	8	-1e10	8	-1E+10	1	-1E+10	1	-1E+10	1	-1E+10	1	-1E+10	1	-1E+10	1
4902554	54	C	08/03/2022	03:01	-133.993	49.689	0	70.90	0	7.1090	0	32.3380	0	25.309	0	70.282	0	-1e10	8	-1e10	8	-1E+10	1	-1E+10	1	-1E+10	1	-1E+10	1	-1E+10	1	-1E+10	1
4902554	54	C	08/03/2022	03:01	-133.993	49.689	0	72.00	0	7.0960	0	32.3420	0	25.314	0	71.372	0	-1e10	8	-1e10	8	-1E+10	1	-1E+10	1	-1E+10	1	-1E+10	1	-1E+10	1	-1E+10	1
4902554	54	C	08/03/2022	03:01	-133.993	49.689	0	73.00	0	7.0820	0	32.3480	0	25.320	0	72.363	0	-1e10	8	-1e10	8	-1E+10	1	-1E+10	1	-1E+10	1	-1E+10	1	-1E+10	1	-1E+10	1
4902554	54	C	08/03/2022	03:01	-133.993	49.689	0	74.00	0	7.0640	0	32.3560	0	25.329	0	73.355	0	-1e10	8	-1e10	8	-1E+10	1	-1E+10	1	-1E+10	1	-1E+10	1	-1E+10	1	-1E+10	1
4902554	54	C	08/03/2022	03:01	-133.993	49.689	0	75.00	0	7.0480	0	32.3660	0	25.339	0	74.346	0	-1e10	8	-1e10	8	-1E+10	1	-1E+10	1	-1E+10	1	-1E+10	1	-1E+10	1	-1E+10	1
4902554	54	C	08/03/2022	03:01	-133.993	49.689	0	76.10	0	7.0260	0	32.3740	0	25.348	0	75.436	0	-1e10	8	-1e10	8	-1E+10	1	-1E+10	1	-1E+10	1	-1E+10	1	-1E+10	1	-1E+10	1
4902554	54	C	08/03/2022	03:01	-133.993	49.689	0	76.90	0	7.0170	0	32.3770	0	25.352	0	76.229	0	-1e10	8	-1e10	8	-1E+10	1	-1E+10	1	-1E+10	1	-1E+10	1	-1E+10	1	-1E+10	1
4902554	54	C	08/03/2022	03:01	-133.993	49.689	0	78.10	0	6.9860	0	32.3910	0	25.367	0	77.418	0	-1e10	8	-1e10	8	-1E+10	1	-1E+10	1	-1E+10	1	-1E+10	1	-1E+10	1	-1E+10	1
4902554	54	C	08/03/2022	03:01	-133.993	49.689	0	79.10	0	6.9610	0	32.4020	0	25.379	0	78.409	0	-1e10	8	-1e10	8	-1E+10	1	-1E+10	1	-1E+10	1	-1E+10	1	-1E+10	1	-1E+10	1
4902554	54	C	08/03/2022	03:01	-133.993	49.689	0	80.20	0	6.9420	0	32.4110	0	25.389	0	79.499	0	-1e10	8	-1e10	8	-1E+10	1	-1E+10	1	-1E+10	1	-1E+10	1	-1E+10	1	-1E+10	1
4902554	54	C	08/03/2022	03:01	-133.993	49.689	0	80.90	0	6.9240	0	32.4230	0	25.400	0	80.193	0	-1e10	8	-1e10	8	-1E+10	1	-1E+10	1	-1E+10	1	-1E+10	1	-1E+10	1	-1E+10	1
4902554	54	C	08/03/2022	03:01	-133.993	49.689	0	81.90	0	6.8910	0	32.4450	0	25.422	0	81.184	0	-1e10	8	-1e10	8	-1E+10	1	-1E+10	1	-1E+10	1	-1E+10	1	-1E+10	1	-1E+10	1
4902554	54	C	08/03/2022	03:01	-133.993	49.689	0	82.80	0	6.8880	0	32.4490	0	25.426	0	82.076	0	-1e10	8	-1e10	8	-1E+10	1	-1E+10	1	-1E+10	1	-1E+10	1	-1E+10	1	-1E+10	1
4902554	54	C	08/03/2022	03:01	-133.993	49.689	0	83.80	0	6.8860	0	32.4510	0	25.428	0	83.067	0	-1e10	8	-1e10	8	-1E+10	1	-1E+10	1	-1E+10	1	-1E+10	1	-1E+10	1	-1E+10	1
4902554	54	C	08/03/2022	03:01	-133.993	49.689	0	84.90	0	6.8640	0	32.4780	0	25.452	0	84.157	0	-1e10	8	-1e10	8	-1E+10	1	-1E+10	1	-1E+10	1	-1E+10	1	-1E+10	1	-1E+10	1
4902554	54	C	08/03/2022	03:01	-133.993	49.689	0	86.10	0	6.7970	0	32.5190	0	25.493	0	85.346	0	-1e10	8	-1e10	8	-1E+10	1	-1E+10	1	-1E+10	1	-1E+10	1	-1E+10	1	-1E+10	1
4902554	54	C	08/03/2022	03:01	-133.993	49.689	0	87.00	0	6.7470	0	32.5510	0	25.525	0	86.238	0	-1e10	8	-1e10	8	-1E+10	1	-1E+10	1	-1E+10	1	-1E+10	1	-1E+10	1	-1E+10	1
4902554	54	C	08/03/2022	03:01	-133.993	49.689	0	87.90	0	6.7050	0	32.5780	0	25.551	0	87.130	0	-1e10	8	-1e10	8	-1E+10	1	-1E+10	1	-1E+10	1	-1E+10	1	-1E+10	1	-1E+10	1
4902554	54	C	08/03/2022	03:01	-133.993	49.689	0	88.90	0	6.6330	0	32.6250	0	25.598	0	88.121	0	-1e10	8	-1e10	8	-1E+10	1	-1E+10	1	-1E+10	1	-1E+10	1	-1E+10	1	-1E+10	1
4902554	54	C	08/03/2022	03:01	-133.993	49.689	0	89.80	0	6.5930	0	32.6510	0	25.623	0	89.013	0	-1e10	8	-1e10	8	-1E+10	1	-1E+10	1	-1E+10	1	-1E+10	1	-1E+10	1	-1E+10	1
4902554	54	C	08/03/2022	03:01	-133.993	49.689	0	90.90	0	6.5820	0	32.6580	0	25.630	0	90.103	0	-1e10	8	-1e10	8	-1E+10	1	-1E+10	1	-1E+10	1	-1E+10	1	-1E+10	1	-1E+10	1
4902554	54	C	08/03/2022	03:01	-133.993	49.689	0	91.80	0	6.5630	0	32.6720	0	25.644	0	90.995	0	-1e10	8	-1e10	8	-1E+10	1	-1E+10	1	-1E+10	1	-1E+10	1	-1E+10	1	-1E+10	1
4902554	54	C	08/03/2022	03:01	-133.993	49.689	0	93.10	0	6.5470	0	32.6840	0	25.655	0	92.284	0	-1e10	8	-1e10	8	-1E+10	1	-1E+10	1	-1E+10	1	-1E+10	1	-1E+10	1	-1E+10	1
4902554	54	C	08/03/2022	03:01	-133.993	49.689	0	94.00	0	6.5410	0	32.6900	0	25.661	0	93.176	0	-1e10	8	-1e10	8	-1E+10	1	-1E+10	1	-1E+10	1	-1E+10	1	-1E+10	1	-1E+10	1
4902554	54	C	08/03/2022	03:01	-133.993	49.689	0	95.10	0	6.5350	0	32.6950	0	25.666	0	94.266	0	-1e10	8	-1e10	8	-1E+10	1	-1E+10	1	-1E+10	1	-1E+10	1	-1E+10	1	-1E+10	1
4902554	54	C	08/03/2022	03:01	-133.993	49.689	0	96.10	0	6.5070	0	32.7540	0	25.716	0	95.257	0	-1e10	8	-1e10	8	-1E+10	1	-1E+10	1	-1E+10	1	-1E+10	1	-1E+10	1	-1E+10	1
4902554	54	C	08/03/2022	03:01	-133.993	49.689	0	97.10	0	6.4790	0	32.7850	0	25.744	0	96.248	0	-1e10	8	-1e10	8	-1E+10	1	-1E+10	1	-1E+10	1	-1E+10	1	-1E+10	1	-1E+10	1
4902554	54	C	08/03/2022	03:01	-133.993	49.689	0	97.90	0	6.4740	0	32.7910	0	25.749	0	97.040	0	-1e10	8	-1e10	8	-1E+10	1	-1E+10	1	-1E+10	1	-1E+10	1	-1E+10	1	-1E+10	1
4902554	54	C	08/03/2022	03:01	-133.993	49.689	0	98.90	0	6.4560	0	32.8140	0	25.770	0	98.031	0	-1e10	8	-1e10	8	-1E+10	1	-1E+10	1	-1E+10	1	-1E+10	1	-1E+10	1	-1E+10	1
4902554	54	C	08/03/2022	03:01	-133.993	49.689	0	100.00	0	6.4110	0	32.8650	0	25.816	0	99.122	0	-1e10	8	-1e10	8	-1E+10	1	-1E+10	1	-1E+10	1	-1E+10	1	-1E+10	1	-1E+10	1
4902554	54	C	08/03/2022	03:01	-133.993	49.689	0	101.10	0	6.3730	0	32.9150	0	25.860	0	100.212	0	-1e10	8	-1e10	8	-1E+10	1	-1E+10	1	-1E+10	1	-1E+10	1	-1E+10	1	-1E+10	1
4902554	54	C	08/03/2022	03:01	-133.993	49.689	0	102.10	0	6.3450	0	32.9580	0	25.897	0	101.203	0	-1e10	8	-1e10	8	-1E+10	1	-1E+10	1	-1E+10	1	-1E+10	1	-1E+10	1	-1E+10	1
4902554	54	C	08/03/2022	03:01	-133.993	49.689	0	102.90	0	6.3390	0	32.9670	0	25.905	0	101.995	0	-1e10	8	-1e10	8	-1E+10	1	-1E+10	1	-1E+10	1	-1E+10	1	-1E+10	1	-1E+10	1
4902554	54	C	08/03/2022	03:01	-133.993	49.689	0	103.70	0	6.3300	0	32.9770	0	25.914	0	102.788	0	-1e10	8	-1e10	8	-1E+10	1	-1E+10	1	-1E+10	1	-1E+10	1	-1E+10	1	-1E+10	1
4902554	54	C	08/03/2022	03:01	-133.993	49.689	0	104.80	0	6.3220	0	32.9870	0	25.923	0	103.878	0	-1e10	8	-1e10	8	-1E+10	1	-1E+10	1	-1E+10	1	-1E+10	1	-1E+10	1	-1E+10	1
4902554	54	C	08/03/2022	03:01	-133.993	49.689	0	106.00	0	6.3040	0	33.0100	0	25.944	0	105.067	0	-1e10	8	-1e10	8	-1E+10	1	-1E+10	1	-1E+10	1	-1E+10	1	-1E+10	1	-1E+10	1
4902554	54	C	08/03/2022	03:01	-133.993	49.689	0	107.00	0	6.2900	0	33.0260	0	25.958	0	106.058	0	-1e10	8	-1e10	8	-1E+10	1	-1E+10	1	-1E+10	1	-1E+10	1	-1E+10	1	-1E+10	1
4902554	54	C	08/03/2022	03:01	-133.993	49.689	0	107.90	0	6.2610	0	33.0620	0	25.990	0	106.950	0	-1e10	8	-1e10	8	-1E+10	1	-1E+10	1	-1E+10	1	-1E+10	1	-1E+10	1	-1E+10	1
4902554	54	C	08/03/2022	03:01	-133.993	49.689	0	109.00	0	6.2510	0	33.0710	0	25.999	0	108.040	0	-1e10	8	-1e10	8	-1E+10	1	-1E+10	1	-1E+10	1	-1E+10	1	-1E+10	1	-1E+10	1
4902554	54	C	08/03/2022	03:01	-133.993	49.689	0	110.00	0	6.2440	0	33.0780	0	26.005	0	109.031	0	-1e10	8	-1e10	8	-1E+10	1	-1E+10	1	-1E+10	1	-1E+10	1	-1E+10	1	-1E+10	1
4902554	54	C	08/03/2022	03:01	-133.993	49.689	0	111.10	0	6.2420	0	33.0810	0	26.008	0	110.121	0	-1e10	8	-1e10	8	-1E+10	1	-1E+10	1	-1E+10	1	-1E+10	1	-1E+10	1	-1E+10	1
4902554	54	C	08/03/2022	03:01	-133.993	49.689	0	111.80	0	6.2190	0	33.1020	0	26.027	0	110.815	0	-1e10	8	-1e10	8	-1E+10	1	-1E+10	1	-1E+10	1	-1E+10	1	-1E+10	1	-1E+10	1
4902554	54	C	08/03/2022	03:01	-133.993	49.689	0	112.90	0	6.2020	0	33.1170	0	26.041	0	111.905	0	-1e10	8	-1e10	8	-1E+10	1	-1E+10	1	-1E+10	1	-1E+10	1	-1E+10	1	-1E+10	1
4902554	54	C	08/03/2022	03:01	-133.993	49.689	0	114.00	0	6.1850	0	33.1340	0	26.057	0	112.995	0	-1e10	8	-1e10	8	-1E+10	1	-1E+10	1	-1E+10	1	-1E+10	1	-1E+10	1	-1E+10	1
4902554	54	C	08/03/2022	03:01	-133.993	49.689	0	115.00	0	6.1760	0	33.1410	0	26.063	0	113.986	0	-1e10	8	-1e10	8	-1E+10	1	-1E+10	1	-1E+10	1	-1E+10	1	-1E+10	1	-1E+10	1
4902554	54	C	08/03/2022	03:01	-133.993	49.689	0	116.20	0	6.1660	0	33.1490	0	26.071	0	115.175	0	-1e10	8	-1e10	8	-1E+10	1	-1E+10	1	-1E+10	1	-1E+10	1	-1E+10	1	-1E+10	1
4902554	54	C	08/03/2022	03:01	-133.993	49.689	0	116.90	0	6.1250	0	33.1820	0	26.102	0	115.868	0	-1e10	8	-1e10	8	-1E+10	1	-1E+10	1	-1E+10	1	-1E+10	1	-1E+10	1	-1E+10	1
4902554	54	C	08/03/2022	03:01	-133.993	49.689	0	118.00	0	6.1140	0	33.1890	0	26.109	0	116.958	0	-1e10	8	-1e10	8	-1E+10	1	-1E+10	1	-1E+10	1	-1E+10	1	-1E+10	1	-1E+10	1
4902554	54	C	08/03/2022	03:01	-133.993	49.689	0	119.20	0	6.1020	0	33.1970	0	26.117	0	118.147	0	-1e10	8	-1e10	8	-1E+10	1	-1E+10	1	-1E+10	1	-1E+10	1	-1E+10	1	-1E+10	1
4902554	54	C	08/03/2022	03:01	-133.993	49.689	0	119.90	0	6.0930	0	33.2050	0	26.124	0	118.841	0	-1e10	8	-1e10	8	-1E+10	1	-1E+10	1	-1E+10	1	-1E+10	1	-1E+10	1	-1E+10	1
4902554	54	C	08/03/2022	03:01	-133.993	49.689	0	120.70	0	6.0780	0	33.2150	0	26.134	0	119.634	0	-1e10	8	-1e10	8	-1E+10	1	-1E+10	1	-1E+10	1	-1E+10	1	-1E+10	1	-1E+10	1
4902554	54	C	08/03/2022	03:01	-133.993	49.689	0	121.80	0	6.0460	0	33.2370	0	26.155	0	120.724	0	-1e10	8	-1e10	8	-1E+10	1	-1E+10	1	-1E+10	1	-1E+10	1	-1E+10	1	-1E+10	1
4902554	54	C	08/03/2022	03:01	-133.993	49.689	0	122.90	0	6.0200	0	33.2520	0	26.170	0	121.814	0	-1e10	8	-1e10	8	-1E+10	1	-1E+10	1	-1E+10	1	-1E+10	1	-1E+10	1	-1E+10	1
4902554	54	C	08/03/2022	03:01	-133.993	49.689	0	124.00	0	5.9690	0	33.2900	0	26.207	0	122.904	0	-1e10	8	-1e10	8	-1E+10	1	-1E+10	1	-1E+10	1	-1E+10	1	-1E+10	1	-1E+10	1
4902554	54	C	08/03/2022	03:01	-133.993	49.689	0	125.20	0	5.9330	0	33.3360	0	26.248	0	124.093	0	-1e10	8	-1e10	8	-1E+10	1	-1E+10	1	-1E+10	1	-1E+10	1	-1E+10	1	-1E+10	1
4902554	54	C	08/03/2022	03:01	-133.993	49.689	0	125.90	0	5.9070	0	33.3620	0	26.271	0	124.786	0	-1e10	8	-1e10	8	-1E+10	1	-1E+10	1	-1E+10	1	-1E+10	1	-1E+10	1	-1E+10	1
4902554	54	C	08/03/2022	03:01	-133.993	49.689	0	126.70	0	5.8780	0	33.3850	0	26.293	0	125.579	0	-1e10	8	-1e10	8	-1E+10	1	-1E+10	1	-1E+10	1	-1E+10	1	-1E+10	1	-1E+10	1
4902554	54	C	08/03/2022	03:01	-133.993	49.689	0	127.80	0	5.8720	0	33.3920	0	26.299	0	126.669	0	-1e10	8	-1e10	8	-1E+10	1	-1E+10	1	-1E+10	1	-1E+10	1	-1E+10	1	-1E+10	1
4902554	54	C	08/03/2022	03:01	-133.993	49.689	0	129.00	0	5.8640	0	33.4060	0	26.311	0	127.858	0	-1e10	8	-1e10	8	-1E+10	1	-1E+10	1	-1E+10	1	-1E+10	1	-1E+10	1	-1E+10	1
4902554	54	C	08/03/2022	03:01	-133.993	49.689	0	129.80	0	5.8600	0	33.4140	0	26.318	0	128.650	0	-1e10	8	-1e10	8	-1E+10	1	-1E+10	1	-1E+10	1	-1E+10	1	-1E+10	1	-1E+10	1
4902554	54	C	08/03/2022	03:01	-133.993	49.689	0	131.00	0	5.8510	0	33.4220	0	26.326	0	129.839	0	-1e10	8	-1e10	8	-1E+10	1	-1E+10	1	-1E+10	1	-1E+10	1	-1E+10	1	-1E+10	1
4902554	54	C	08/03/2022	03:01	-133.993	49.689	0	132.20	0	5.8420	0	33.4310	0	26.334	0	131.028	0	-1e10	8	-1e10	8	-1E+10	1	-1E+10	1	-1E+10	1	-1E+10	1	-1E+10	1	-1E+10	1
4902554	54	C	08/03/2022	03:01	-133.993	49.689	0	132.90	0	5.8370	0	33.4350	0	26.338	0	131.722	0	-1e10	8	-1e10	8	-1E+10	1	-1E+10	1	-1E+10	1	-1E+10	1	-1E+10	1	-1E+10	1
4902554	54	C	08/03/2022	03:01	-133.993	49.689	0	133.70	0	5.8090	0	33.4630	0	26.363	0	132.515	0	-1e10	8	-1e10	8	-1E+10	1	-1E+10	1	-1E+10	1	-1E+10	1	-1E+10	1	-1E+10	1
4902554	54	C	08/03/2022	03:01	-133.993	49.689	0	134.90	0	5.7810	0	33.4900	0	26.388	0	133.704	0	-1e10	8	-1e10	8	-1E+10	1	-1E+10	1	-1E+10	1	-1E+10	1	-1E+10	1	-1E+10	1
4902554	54	C	08/03/2022	03:01	-133.993	49.689	0	136.00	0	5.7580	0	33.5230	0	26.417	0	134.794	0	-1e10	8	-1e10	8	-1E+10	1	-1E+10	1	-1E+10	1	-1E+10	1	-1E+10	1	-1E+10	1
4902554	54	C	08/03/2022	03:01	-133.993	49.689	0	136.80	0	5.7550	0	33.5280	0	26.421	0	135.586	0	-1e10	8	-1e10	8	-1E+10	1	-1E+10	1	-1E+10	1	-1E+10	1	-1E+10	1	-1E+10	1
4902554	54	C	08/03/2022	03:01	-133.993	49.689	0	138.00	0	5.7410	0	33.5450	0	26.436	0	136.775	0	-1e10	8	-1e10	8	-1E+10	1	-1E+10	1	-1E+10	1	-1E+10	1	-1E+10	1	-1E+10	1
4902554	54	C	08/03/2022	03:01	-133.993	49.689	0	139.20	0	5.7150	0	33.5570	0	26.449	0	137.964	0	-1e10	8	-1e10	8	-1E+10	1	-1E+10	1	-1E+10	1	-1E+10	1	-1E+10	1	-1E+10	1
4902554	54	C	08/03/2022	03:01	-133.993	49.689	0	140.00	0	5.7070	0	33.5610	0	26.453	0	138.757	0	-1e10	8	-1e10	8	-1E+10	1	-1E+10	1	-1E+10	1	-1E+10	1	-1E+10	1	-1E+10	1
4902554	54	C	08/03/2022	03:01	-133.993	49.689	0	140.80	0	5.7030	0	33.5640	0	26.456	0	139.549	0	-1e10	8	-1e10	8	-1E+10	1	-1E+10	1	-1E+10	1	-1E+10	1	-1E+10	1	-1E+10	1
4902554	54	C	08/03/2022	03:01	-133.993	49.689	0	142.00	0	5.6960	0	33.5680	0	26.460	0	140.738	0	-1e10	8	-1e10	8	-1E+10	1	-1E+10	1	-1E+10	1	-1E+10	1	-1E+10	1	-1E+10	1
4902554	54	C	08/03/2022	03:01	-133.993	49.689	0	143.10	0	5.6880	0	33.5750	0	26.467	0	141.828	0	-1e10	8	-1e10	8	-1E+10	1	-1E+10	1	-1E+10	1	-1E+10	1	-1E+10	1	-1E+10	1
4902554	54	C	08/03/2022	03:01	-133.993	49.689	0	143.90	0	5.6710	0	33.5900	0	26.480	0	142.621	0	-1e10	8	-1e10	8	-1E+10	1	-1E+10	1	-1E+10	1	-1E+10	1	-1E+10	1	-1E+10	1
4902554	54	C	08/03/2022	03:01	-133.993	49.689	0	144.70	0	5.6690	0	33.5920	0	26.482	0	143.413	0	-1e10	8	-1e10	8	-1E+10	1	-1E+10	1	-1E+10	1	-1E+10	1	-1E+10	1	-1E+10	1
4902554	54	C	08/03/2022	03:01	-133.993	49.689	0	145.90	0	5.6570	0	33.6000	0	26.490	0	144.602	0	-1e10	8	-1e10	8	-1E+10	1	-1E+10	1	-1E+10	1	-1E+10	1	-1E+10	1	-1E+10	1
4902554	54	C	08/03/2022	03:01	-133.993	49.689	0	147.10	0	5.6490	0	33.6070	0	26.497	0	145.791	0	-1e10	8	-1e10	8	-1E+10	1	-1E+10	1	-1E+10	1	-1E+10	1	-1E+10	1	-1E+10	1
4902554	54	C	08/03/2022	03:01	-133.993	49.689	0	147.90	0	5.6370	0	33.6150	0	26.504	0	146.584	0	-1e10	8	-1e10	8	-1E+10	1	-1E+10	1	-1E+10	1	-1E+10	1	-1E+10	1	-1E+10	1
4902554	54	C	08/03/2022	03:01	-133.993	49.689	0	148.80	0	5.6200	0	33.6250	0	26.514	0	147.475	0	-1e10	8	-1e10	8	-1E+10	1	-1E+10	1	-1E+10	1	-1E+10	1	-1E+10	1	-1E+10	1
4902554	54	C	08/03/2022	03:01	-133.993	49.689	0	149.60	0	5.5850	0	33.6500	0	26.538	0	148.268	0	-1e10	8	-1e10	8	-1E+10	1	-1E+10	1	-1E+10	1	-1E+10	1	-1E+10	1	-1E+10	1
4902554	54	C	08/03/2022	03:01	-133.993	49.689	0	150.90	0	5.5760	0	33.6600	0	26.547	0	149.556	0	-1e10	8	-1e10	8	-1E+10	1	-1E+10	1	-1E+10	1	-1E+10	1	-1E+10	1	-1E+10	1
4902554	54	C	08/03/2022	03:01	-133.993	49.689	0	152.20	0	5.5730	0	33.6620	0	26.549	0	150.844	0	-1e10	8	-1e10	8	-1E+10	1	-1E+10	1	-1E+10	1	-1E+10	1	-1E+10	1	-1E+10	1
4902554	54	C	08/03/2022	03:01	-133.993	49.689	0	153.10	0	5.5560	0	33.6690	0	26.557	0	151.736	0	-1e10	8	-1e10	8	-1E+10	1	-1E+10	1	-1E+10	1	-1E+10	1	-1E+10	1	-1E+10	1
4902554	54	C	08/03/2022	03:01	-133.993	49.689	0	154.00	0	5.5310	0	33.6780	0	26.567	0	152.627	0	-1e10	8	-1e10	8	-1E+10	1	-1E+10	1	-1E+10	1	-1E+10	1	-1E+10	1	-1E+10	1
4902554	54	C	08/03/2022	03:01	-133.993	49.689	0	154.90	0	5.5190	0	33.6890	0	26.577	0	153.519	0	-1e10	8	-1e10	8	-1E+10	1	-1E+10	1	-1E+10	1	-1E+10	1	-1E+10	1	-1E+10	1
4902554	54	C	08/03/2022	03:01	-133.993	49.689	0	155.70	0	5.4930	0	33.6880	0	26.579	0	154.311	0	-1e10	8	-1e10	8	-1E+10	1	-1E+10	1	-1E+10	1	-1E+10	1	-1E+10	1	-1E+10	1
4902554	54	C	08/03/2022	03:01	-133.993	49.689	0	157.00	0	5.4840	0	33.6890	0	26.581	0	155.599	0	-1e10	8	-1e10	8	-1E+10	1	-1E+10	1	-1E+10	1	-1E+10	1	-1E+10	1	-1E+10	1
4902554	54	C	08/03/2022	03:01	-133.993	49.689	0	158.10	0	5.4620	0	33.6940	0	26.588	0	156.689	0	-1e10	8	-1e10	8	-1E+10	1	-1E+10	1	-1E+10	1	-1E+10	1	-1E+10	1	-1E+10	1
4902554	54	C	08/03/2022	03:01	-133.993	49.689	0	159.00	0	5.4350	0	33.6970	0	26.593	0	157.581	0	-1e10	8	-1e10	8	-1E+10	1	-1E+10	1	-1E+10	1	-1E+10	1	-1E+10	1	-1E+10	1
4902554	54	C	08/03/2022	03:01	-133.993	49.689	0	160.10	0	5.4200	0	33.7010	0	26.598	0	158.670	0	-1e10	8	-1e10	8	-1E+10	1	-1E+10	1	-1E+10	1	-1E+10	1	-1E+10	1	-1E+10	1
4902554	54	C	08/03/2022	03:01	-133.993	49.689	0	160.80	0	5.4180	0	33.7030	0	26.600	0	159.364	0	-1e10	8	-1e10	8	-1E+10	1	-1E+10	1	-1E+10	1	-1E+10	1	-1E+10	1	-1E+10	1
4902554	54	C	08/03/2022	03:01	-133.993	49.689	0	161.90	0	5.3950	0	33.7080	0	26.607	0	160.454	0	-1e10	8	-1e10	8	-1E+10	1	-1E+10	1	-1E+10	1	-1E+10	1	-1E+10	1	-1E+10	1
4902554	54	C	08/03/2022	03:01	-133.993	49.689	0	163.10	0	5.3730	0	33.7120	0	26.613	0	161.643	0	-1e10	8	-1e10	8	-1E+10	1	-1E+10	1	-1E+10	1	-1E+10	1	-1E+10	1	-1E+10	1
4902554	54	C	08/03/2022	03:01	-133.993	49.689	0	163.80	0	5.3560	0	33.7140	0	26.616	0	162.336	0	-1e10	8	-1e10	8	-1E+10	1	-1E+10	1	-1E+10	1	-1E+10	1	-1E+10	1	-1E+10	1
4902554	54	C	08/03/2022	03:01	-133.993	49.689	0	164.70	0	5.3400	0	33.7170	0	26.621	0	163.228	0	-1e10	8	-1e10	8	-1E+10	1	-1E+10	1	-1E+10	1	-1E+10	1	-1E+10	1	-1E+10	1
4902554	54	C	08/03/2022	03:01	-133.993	49.689	0	165.90	0	5.3330	0	33.7170	0	26.621	0	164.416	0	-1e10	8	-1e10	8	-1E+10	1	-1E+10	1	-1E+10	1	-1E+10	1	-1E+10	1	-1E+10	1
4902554	54	C	08/03/2022	03:01	-133.993	49.689	0	167.10	0	5.3300	0	33.7170	0	26.622	0	165.605	0	-1e10	8	-1e10	8	-1E+10	1	-1E+10	1	-1E+10	1	-1E+10	1	-1E+10	1	-1E+10	1
4902554	54	C	08/03/2022	03:01	-133.993	49.689	0	168.00	0	5.3240	0	33.7170	0	26.622	0	166.497	0	-1e10	8	-1e10	8	-1E+10	1	-1E+10	1	-1E+10	1	-1E+10	1	-1E+10	1	-1E+10	1
4902554	54	C	08/03/2022	03:01	-133.993	49.689	0	168.80	0	5.3170	0	33.7180	0	26.624	0	167.289	0	-1e10	8	-1e10	8	-1E+10	1	-1E+10	1	-1E+10	1	-1E+10	1	-1E+10	1	-1E+10	1
4902554	54	C	08/03/2022	03:01	-133.993	49.689	0	169.60	0	5.3080	0	33.7190	0	26.626	0	168.082	0	-1e10	8	-1e10	8	-1E+10	1	-1E+10	1	-1E+10	1	-1E+10	1	-1E+10	1	-1E+10	1
4902554	54	C	08/03/2022	03:01	-133.993	49.689	0	170.90	0	5.2750	0	33.7230	0	26.633	0	169.370	0	-1e10	8	-1e10	8	-1E+10	1	-1E+10	1	-1E+10	1	-1E+10	1	-1E+10	1	-1E+10	1
4902554	54	C	08/03/2022	03:01	-133.993	49.689	0	172.20	0	5.2680	0	33.7240	0	26.635	0	170.657	0	-1e10	8	-1e10	8	-1E+10	1	-1E+10	1	-1E+10	1	-1E+10	1	-1E+10	1	-1E+10	1
4902554	54	C	08/03/2022	03:01	-133.993	49.689	0	173.10	0	5.2640	0	33.7240	0	26.635	0	171.549	0	-1e10	8	-1e10	8	-1E+10	1	-1E+10	1	-1E+10	1	-1E+10	1	-1E+10	1	-1E+10	1
4902554	54	C	08/03/2022	03:01	-133.993	49.689	0	174.00	0	5.2640	0	33.7240	0	26.635	0	172.441	0	-1e10	8	-1e10	8	-1E+10	1	-1E+10	1	-1E+10	1	-1E+10	1	-1E+10	1	-1E+10	1
4902554	54	C	08/03/2022	03:01	-133.993	49.689	0	174.90	0	5.2630	0	33.7240	0	26.635	0	173.332	0	-1e10	8	-1e10	8	-1E+10	1	-1E+10	1	-1E+10	1	-1E+10	1	-1E+10	1	-1E+10	1
4902554	54	C	08/03/2022	03:01	-133.993	49.689	0	175.80	0	5.2560	0	33.7250	0	26.637	0	174.224	0	-1e10	8	-1e10	8	-1E+10	1	-1E+10	1	-1E+10	1	-1E+10	1	-1E+10	1	-1E+10	1
4902554	54	C	08/03/2022	03:01	-133.993	49.689	0	176.70	0	5.2450	0	33.7270	0	26.640	0	175.115	0	-1e10	8	-1e10	8	-1E+10	1	-1E+10	1	-1E+10	1	-1E+10	1	-1E+10	1	-1E+10	1
4902554	54	C	08/03/2022	03:01	-133.993	49.689	0	177.60	0	5.2380	0	33.7280	0	26.641	0	176.007	0	-1e10	8	-1e10	8	-1E+10	1	-1E+10	1	-1E+10	1	-1E+10	1	-1E+10	1	-1E+10	1
4902554	54	C	08/03/2022	03:01	-133.993	49.689	0	178.50	0	5.2350	0	33.7280	0	26.642	0	176.898	0	-1e10	8	-1e10	8	-1E+10	1	-1E+10	1	-1E+10	1	-1E+10	1	-1E+10	1	-1E+10	1
4902554	54	C	08/03/2022	03:01	-133.993	49.689	0	179.90	0	5.2180	0	33.7300	0	26.645	0	178.285	0	-1e10	8	-1e10	8	-1E+10	1	-1E+10	1	-1E+10	1	-1E+10	1	-1E+10	1	-1E+10	1
4902554	54	C	08/03/2022	03:01	-133.993	49.689	0	181.30	0	5.1850	0	33.7340	0	26.652	0	179.672	0	-1e10	8	-1e10	8	-1E+10	1	-1E+10	1	-1E+10	1	-1E+10	1	-1E+10	1	-1E+10	1
4902554	54	C	08/03/2022	03:01	-133.993	49.689	0	182.20	0	5.1580	0	33.7380	0	26.658	0	180.563	0	-1e10	8	-1e10	8	-1E+10	1	-1E+10	1	-1E+10	1	-1E+10	1	-1E+10	1	-1E+10	1
4902554	54	C	08/03/2022	03:01	-133.993	49.689	0	183.20	0	5.1430	0	33.7400	0	26.662	0	181.554	0	-1e10	8	-1e10	8	-1E+10	1	-1E+10	1	-1E+10	1	-1E+10	1	-1E+10	1	-1E+10	1
4902554	54	C	08/03/2022	03:01	-133.993	49.689	0	184.10	0	5.1320	0	33.7420	0	26.665	0	182.446	0	-1e10	8	-1e10	8	-1E+10	1	-1E+10	1	-1E+10	1	-1E+10	1	-1E+10	1	-1E+10	1
4902554	54	C	08/03/2022	03:01	-133.993	49.689	0	185.10	0	5.1220	0	33.7430	0	26.667	0	183.436	0	-1e10	8	-1e10	8	-1E+10	1	-1E+10	1	-1E+10	1	-1E+10	1	-1E+10	1	-1E+10	1
4902554	54	C	08/03/2022	03:01	-133.993	49.689	0	186.00	0	5.1180	0	33.7420	0	26.666	0	184.328	0	-1e10	8	-1e10	8	-1E+10	1	-1E+10	1	-1E+10	1	-1E+10	1	-1E+10	1	-1E+10	1
4902554	54	C	08/03/2022	03:01	-133.993	49.689	0	187.00	0	5.1140	0	33.7430	0	26.667	0	185.318	0	-1e10	8	-1e10	8	-1E+10	1	-1E+10	1	-1E+10	1	-1E+10	1	-1E+10	1	-1E+10	1
4902554	54	C	08/03/2022	03:01	-133.993	49.689	0	187.90	0	5.0940	0	33.7460	0	26.672	0	186.210	0	-1e10	8	-1e10	8	-1E+10	1	-1E+10	1	-1E+10	1	-1E+10	1	-1E+10	1	-1E+10	1
4902554	54	C	08/03/2022	03:01	-133.993	49.689	0	188.90	0	5.0910	0	33.7470	0	26.673	0	187.200	0	-1e10	8	-1e10	8	-1E+10	1	-1E+10	1	-1E+10	1	-1E+10	1	-1E+10	1	-1E+10	1
4902554	54	C	08/03/2022	03:01	-133.993	49.689	0	189.80	0	5.0900	0	33.7460	0	26.673	0	188.092	0	-1e10	8	-1e10	8	-1E+10	1	-1E+10	1	-1E+10	1	-1E+10	1	-1E+10	1	-1E+10	1
4902554	54	C	08/03/2022	03:01	-133.993	49.689	0	190.80	0	5.0880	0	33.7470	0	26.674	0	189.082	0	-1e10	8	-1e10	8	-1E+10	1	-1E+10	1	-1E+10	1	-1E+10	1	-1E+10	1	-1E+10	1
4902554	54	C	08/03/2022	03:01	-133.993	49.689	0	191.80	0	5.0860	0	33.7470	0	26.674	0	190.073	0	-1e10	8	-1e10	8	-1E+10	1	-1E+10	1	-1E+10	1	-1E+10	1	-1E+10	1	-1E+10	1
4902554	54	C	08/03/2022	03:01	-133.993	49.689	0	192.70	0	5.0850	0	33.7450	0	26.672	0	190.964	0	-1e10	8	-1e10	8	-1E+10	1	-1E+10	1	-1E+10	1	-1E+10	1	-1E+10	1	-1E+10	1
4902554	54	C	08/03/2022	03:01	-133.993	49.689	0	193.70	0	5.0770	0	33.7480	0	26.676	0	191.955	0	-1e10	8	-1e10	8	-1E+10	1	-1E+10	1	-1E+10	1	-1E+10	1	-1E+10	1	-1E+10	1
4902554	54	C	08/03/2022	03:01	-133.993	49.689	0	194.70	0	5.0550	0	33.7510	0	26.681	0	192.945	0	-1e10	8	-1e10	8	-1E+10	1	-1E+10	1	-1E+10	1	-1E+10	1	-1E+10	1	-1E+10	1
4902554	54	C	08/03/2022	03:01	-133.993	49.689	0	195.70	0	5.0520	0	33.7510	0	26.681	0	193.936	0	-1e10	8	-1e10	8	-1E+10	1	-1E+10	1	-1E+10	1	-1E+10	1	-1E+10	1	-1E+10	1
4902554	54	C	08/03/2022	03:01	-133.993	49.689	0	196.60	0	5.0510	0	33.7510	0	26.681	0	194.827	0	-1e10	8	-1e10	8	-1E+10	1	-1E+10	1	-1E+10	1	-1E+10	1	-1E+10	1	-1E+10	1
4902554	54	C	08/03/2022	03:01	-133.993	49.689	0	197.60	0	5.0450	0	33.7510	0	26.682	0	195.818	0	-1e10	8	-1e10	8	-1E+10	1	-1E+10	1	-1E+10	1	-1E+10	1	-1E+10	1	-1E+10	1
4902554	54	C	08/03/2022	03:01	-133.993	49.689	0	198.60	0	5.0400	0	33.7510	0	26.682	0	196.808	0	-1e10	8	-1e10	8	-1E+10	1	-1E+10	1	-1E+10	1	-1E+10	1	-1E+10	1	-1E+10	1
4902554	54	C	08/03/2022	03:01	-133.993	49.689	0	199.50	0	5.0370	0	33.7520	0	26.684	0	197.700	0	-1e10	8	-1e10	8	-1E+10	1	-1E+10	1	-1E+10	1	-1E+10	1	-1E+10	1	-1E+10	1
4902554	54	C	08/03/2022	03:01	-133.993	49.689	0	200.90	0	5.0280	0	33.7530	0	26.685	0	199.086	0	-1e10	8	-1e10	8	-1E+10	1	-1E+10	1	-1E+10	1	-1E+10	1	-1E+10	1	-1E+10	1
4902554	54	C	08/03/2022	03:01	-133.993	49.689	0	202.40	0	5.0170	0	33.7540	0	26.687	0	200.572	0	-1e10	8	-1e10	8	-1E+10	1	-1E+10	1	-1E+10	1	-1E+10	1	-1E+10	1	-1E+10	1
4902554	54	C	08/03/2022	03:01	-133.993	49.689	0	203.30	0	4.9910	0	33.7580	0	26.694	0	201.464	0	-1e10	8	-1e10	8	-1E+10	1	-1E+10	1	-1E+10	1	-1E+10	1	-1E+10	1	-1E+10	1
4902554	54	C	08/03/2022	03:01	-133.993	49.689	0	204.30	0	4.9800	0	33.7590	0	26.696	0	202.454	0	-1e10	8	-1e10	8	-1E+10	1	-1E+10	1	-1E+10	1	-1E+10	1	-1E+10	1	-1E+10	1
4902554	54	C	08/03/2022	03:01	-133.993	49.689	0	205.20	0	4.9730	0	33.7600	0	26.697	0	203.346	0	-1e10	8	-1e10	8	-1E+10	1	-1E+10	1	-1E+10	1	-1E+10	1	-1E+10	1	-1E+10	1
4902554	54	C	08/03/2022	03:01	-133.993	49.689	0	206.20	0	4.9590	0	33.7630	0	26.701	0	204.336	0	-1e10	8	-1e10	8	-1E+10	1	-1E+10	1	-1E+10	1	-1E+10	1	-1E+10	1	-1E+10	1
4902554	54	C	08/03/2022	03:01	-133.993	49.689	0	207.10	0	4.9490	0	33.7630	0	26.702	0	205.227	0	-1e10	8	-1e10	8	-1E+10	1	-1E+10	1	-1E+10	1	-1E+10	1	-1E+10	1	-1E+10	1
4902554	54	C	08/03/2022	03:01	-133.993	49.689	0	208.10	0	4.9410	0	33.7640	0	26.704	0	206.218	0	-1e10	8	-1e10	8	-1E+10	1	-1E+10	1	-1E+10	1	-1E+10	1	-1E+10	1	-1E+10	1
4902554	54	C	08/03/2022	03:01	-133.993	49.689	0	209.00	0	4.9330	0	33.7660	0	26.706	0	207.109	0	-1e10	8	-1e10	8	-1E+10	1	-1E+10	1	-1E+10	1	-1E+10	1	-1E+10	1	-1E+10	1
4902554	54	C	08/03/2022	03:01	-133.993	49.689	0	209.90	0	4.9250	0	33.7660	0	26.707	0	208.001	0	-1e10	8	-1e10	8	-1E+10	1	-1E+10	1	-1E+10	1	-1E+10	1	-1E+10	1	-1E+10	1
4902554	54	C	08/03/2022	03:01	-133.993	49.689	0	210.90	0	4.9140	0	33.7710	0	26.713	0	208.991	0	-1e10	8	-1e10	8	-1E+10	1	-1E+10	1	-1E+10	1	-1E+10	1	-1E+10	1	-1E+10	1
4902554	54	C	08/03/2022	03:01	-133.993	49.689	0	211.80	0	4.9090	0	33.7680	0	26.711	0	209.883	0	-1e10	8	-1e10	8	-1E+10	1	-1E+10	1	-1E+10	1	-1E+10	1	-1E+10	1	-1E+10	1
4902554	54	C	08/03/2022	03:01	-133.993	49.689	0	212.80	0	4.9090	0	33.7690	0	26.712	0	210.873	0	-1e10	8	-1e10	8	-1E+10	1	-1E+10	1	-1E+10	1	-1E+10	1	-1E+10	1	-1E+10	1
4902554	54	C	08/03/2022	03:01	-133.993	49.689	0	213.70	0	4.9080	0	33.7690	0	26.712	0	211.764	0	-1e10	8	-1e10	8	-1E+10	1	-1E+10	1	-1E+10	1	-1E+10	1	-1E+10	1	-1E+10	1
4902554	54	C	08/03/2022	03:01	-133.993	49.689	0	214.70	0	4.9030	0	33.7700	0	26.713	0	212.755	0	-1e10	8	-1e10	8	-1E+10	1	-1E+10	1	-1E+10	1	-1E+10	1	-1E+10	1	-1E+10	1
4902554	54	C	08/03/2022	03:01	-133.993	49.689	0	215.60	0	4.8970	0	33.7710	0	26.714	0	213.646	0	-1e10	8	-1e10	8	-1E+10	1	-1E+10	1	-1E+10	1	-1E+10	1	-1E+10	1	-1E+10	1
4902554	54	C	08/03/2022	03:01	-133.993	49.689	0	216.60	0	4.8910	0	33.7710	0	26.715	0	214.637	0	-1e10	8	-1e10	8	-1E+10	1	-1E+10	1	-1E+10	1	-1E+10	1	-1E+10	1	-1E+10	1
4902554	54	C	08/03/2022	03:01	-133.993	49.689	0	217.50	0	4.8840	0	33.7720	0	26.717	0	215.528	0	-1e10	8	-1e10	8	-1E+10	1	-1E+10	1	-1E+10	1	-1E+10	1	-1E+10	1	-1E+10	1
4902554	54	C	08/03/2022	03:01	-133.993	49.689	0	218.90	0	4.8730	0	33.7740	0	26.720	0	216.915	0	-1e10	8	-1e10	8	-1E+10	1	-1E+10	1	-1E+10	1	-1E+10	1	-1E+10	1	-1E+10	1
4902554	54	C	08/03/2022	03:01	-133.993	49.689	0	220.40	0	4.8620	0	33.7760	0	26.722	0	218.400	0	-1e10	8	-1e10	8	-1E+10	1	-1E+10	1	-1E+10	1	-1E+10	1	-1E+10	1	-1E+10	1
4902554	54	C	08/03/2022	03:01	-133.993	49.689	0	221.40	0	4.8620	0	33.7750	0	26.722	0	219.391	0	-1e10	8	-1e10	8	-1E+10	1	-1E+10	1	-1E+10	1	-1E+10	1	-1E+10	1	-1E+10	1
4902554	54	C	08/03/2022	03:01	-133.993	49.689	0	222.30	0	4.8560	0	33.7770	0	26.724	0	220.282	0	-1e10	8	-1e10	8	-1E+10	1	-1E+10	1	-1E+10	1	-1E+10	1	-1E+10	1	-1E+10	1
4902554	54	C	08/03/2022	03:01	-133.993	49.689	0	223.20	0	4.8530	0	33.7770	0	26.724	0	221.173	0	-1e10	8	-1e10	8	-1E+10	1	-1E+10	1	-1E+10	1	-1E+10	1	-1E+10	1	-1E+10	1
4902554	54	C	08/03/2022	03:01	-133.993	49.689	0	224.20	0	4.8490	0	33.7770	0	26.725	0	222.164	0	-1e10	8	-1e10	8	-1E+10	1	-1E+10	1	-1E+10	1	-1E+10	1	-1E+10	1	-1E+10	1
4902554	54	C	08/03/2022	03:01	-133.993	49.689	0	225.10	0	4.8460	0	33.7780	0	26.726	0	223.055	0	-1e10	8	-1e10	8	-1E+10	1	-1E+10	1	-1E+10	1	-1E+10	1	-1E+10	1	-1E+10	1
4902554	54	C	08/03/2022	03:01	-133.993	49.689	0	226.10	0	4.8460	0	33.7770	0	26.725	0	224.045	0	-1e10	8	-1e10	8	-1E+10	1	-1E+10	1	-1E+10	1	-1E+10	1	-1E+10	1	-1E+10	1
4902554	54	C	08/03/2022	03:01	-133.993	49.689	0	227.10	0	4.8250	0	33.7820	0	26.731	0	225.036	0	-1e10	8	-1e10	8	-1E+10	1	-1E+10	1	-1E+10	1	-1E+10	1	-1E+10	1	-1E+10	1
4902554	54	C	08/03/2022	03:01	-133.993	49.689	0	228.00	0	4.8200	0	33.7820	0	26.732	0	225.927	0	-1e10	8	-1e10	8	-1E+10	1	-1E+10	1	-1E+10	1	-1E+10	1	-1E+10	1	-1E+10	1
4902554	54	C	08/03/2022	03:01	-133.993	49.689	0	228.90	0	4.8160	0	33.7840	0	26.734	0	226.818	0	-1e10	8	-1e10	8	-1E+10	1	-1E+10	1	-1E+10	1	-1E+10	1	-1E+10	1	-1E+10	1
4902554	54	C	08/03/2022	03:01	-133.993	49.689	0	229.90	0	4.8140	0	33.7830	0	26.733	0	227.809	0	-1e10	8	-1e10	8	-1E+10	1	-1E+10	1	-1E+10	1	-1E+10	1	-1E+10	1	-1E+10	1
4902554	54	C	08/03/2022	03:01	-133.993	49.689	0	230.80	0	4.8140	0	33.7830	0	26.733	0	228.700	0	-1e10	8	-1e10	8	-1E+10	1	-1E+10	1	-1E+10	1	-1E+10	1	-1E+10	1	-1E+10	1
4902554	54	C	08/03/2022	03:01	-133.993	49.689	0	231.80	0	4.8130	0	33.7830	0	26.734	0	229.690	0	-1e10	8	-1e10	8	-1E+10	1	-1E+10	1	-1E+10	1	-1E+10	1	-1E+10	1	-1E+10	1
4902554	54	C	08/03/2022	03:01	-133.993	49.689	0	232.70	0	4.8130	0	33.7830	0	26.734	0	230.582	0	-1e10	8	-1e10	8	-1E+10	1	-1E+10	1	-1E+10	1	-1E+10	1	-1E+10	1	-1E+10	1
4902554	54	C	08/03/2022	03:01	-133.993	49.689	0	233.70	0	4.8050	0	33.7840	0	26.735	0	231.572	0	-1e10	8	-1e10	8	-1E+10	1	-1E+10	1	-1E+10	1	-1E+10	1	-1E+10	1	-1E+10	1
4902554	54	C	08/03/2022	03:01	-133.993	49.689	0	234.60	0	4.8030	0	33.7850	0	26.736	0	232.463	0	-1e10	8	-1e10	8	-1E+10	1	-1E+10	1	-1E+10	1	-1E+10	1	-1E+10	1	-1E+10	1
4902554	54	C	08/03/2022	03:01	-133.993	49.689	0	235.50	0	4.7960	0	33.7860	0	26.738	0	233.355	0	-1e10	8	-1e10	8	-1E+10	1	-1E+10	1	-1E+10	1	-1E+10	1	-1E+10	1	-1E+10	1
4902554	54	C	08/03/2022	03:01	-133.993	49.689	0	236.90	0	4.7920	0	33.7860	0	26.738	0	234.741	0	-1e10	8	-1e10	8	-1E+10	1	-1E+10	1	-1E+10	1	-1E+10	1	-1E+10	1	-1E+10	1
4902554	54	C	08/03/2022	03:01	-133.993	49.689	0	238.40	0	4.7870	0	33.7880	0	26.740	0	236.227	0	-1e10	8	-1e10	8	-1E+10	1	-1E+10	1	-1E+10	1	-1E+10	1	-1E+10	1	-1E+10	1
4902554	54	C	08/03/2022	03:01	-133.993	49.689	0	239.30	0	4.7840	0	33.7870	0	26.740	0	237.118	0	-1e10	8	-1e10	8	-1E+10	1	-1E+10	1	-1E+10	1	-1E+10	1	-1E+10	1	-1E+10	1
4902554	54	C	08/03/2022	03:01	-133.993	49.689	0	240.20	0	4.7810	0	33.7880	0	26.741	0	238.009	0	-1e10	8	-1e10	8	-1E+10	1	-1E+10	1	-1E+10	1	-1E+10	1	-1E+10	1	-1E+10	1
4902554	54	C	08/03/2022	03:01	-133.993	49.689	0	241.20	0	4.7730	0	33.7900	0	26.744	0	238.999	0	-1e10	8	-1e10	8	-1E+10	1	-1E+10	1	-1E+10	1	-1E+10	1	-1E+10	1	-1E+10	1
4902554	54	C	08/03/2022	03:01	-133.993	49.689	0	242.10	0	4.7510	0	33.7930	0	26.748	0	239.891	0	-1e10	8	-1e10	8	-1E+10	1	-1E+10	1	-1E+10	1	-1E+10	1	-1E+10	1	-1E+10	1
4902554	54	C	08/03/2022	03:01	-133.993	49.689	0	243.10	0	4.7360	0	33.7960	0	26.752	0	240.881	0	-1e10	8	-1e10	8	-1E+10	1	-1E+10	1	-1E+10	1	-1E+10	1	-1E+10	1	-1E+10	1
4902554	54	C	08/03/2022	03:01	-133.993	49.689	0	244.10	0	4.7320	0	33.7970	0	26.754	0	241.871	0	-1e10	8	-1e10	8	-1E+10	1	-1E+10	1	-1E+10	1	-1E+10	1	-1E+10	1	-1E+10	1
4902554	54	C	08/03/2022	03:01	-133.993	49.689	0	245.00	0	4.7290	0	33.7970	0	26.754	0	242.763	0	-1e10	8	-1e10	8	-1E+10	1	-1E+10	1	-1E+10	1	-1E+10	1	-1E+10	1	-1E+10	1
4902554	54	C	08/03/2022	03:01	-133.993	49.689	0	246.00	0	4.7260	0	33.7970	0	26.754	0	243.753	0	-1e10	8	-1e10	8	-1E+10	1	-1E+10	1	-1E+10	1	-1E+10	1	-1E+10	1	-1E+10	1
4902554	54	C	08/03/2022	03:01	-133.993	49.689	0	247.00	0	4.7190	0	33.7990	0	26.757	0	244.743	0	-1e10	8	-1e10	8	-1E+10	1	-1E+10	1	-1E+10	1	-1E+10	1	-1E+10	1	-1E+10	1
4902554	54	C	08/03/2022	03:01	-133.993	49.689	0	247.90	0	4.7170	0	33.8000	0	26.758	0	245.634	0	-1e10	8	-1e10	8	-1E+10	1	-1E+10	1	-1E+10	1	-1E+10	1	-1E+10	1	-1E+10	1
4902554	54	C	08/03/2022	03:01	-133.993	49.689	0	248.90	0	4.7130	0	33.8010	0	26.759	0	246.625	0	-1e10	8	-1e10	8	-1E+10	1	-1E+10	1	-1E+10	1	-1E+10	1	-1E+10	1	-1E+10	1
4902554	54	C	08/03/2022	03:01	-133.993	49.689	0	249.80	0	4.7090	0	33.8020	0	26.760	0	247.516	0	-1e10	8	-1e10	8	-1E+10	1	-1E+10	1	-1E+10	1	-1E+10	1	-1E+10	1	-1E+10	1
4902554	54	C	08/03/2022	03:01	-133.993	49.689	0	250.80	0	4.7030	0	33.8030	0	26.762	0	248.506	0	-1e10	8	-1e10	8	-1E+10	1	-1E+10	1	-1E+10	1	-1E+10	1	-1E+10	1	-1E+10	1
4902554	54	C	08/03/2022	03:01	-133.993	49.689	0	251.70	0	4.6990	0	33.8040	0	26.763	0	249.397	0	-1e10	8	-1e10	8	-1E+10	1	-1E+10	1	-1E+10	1	-1E+10	1	-1E+10	1	-1E+10	1
4902554	54	C	08/03/2022	03:01	-133.993	49.689	0	252.70	0	4.6920	0	33.8060	0	26.765	0	250.388	0	-1e10	8	-1e10	8	-1E+10	1	-1E+10	1	-1E+10	1	-1E+10	1	-1E+10	1	-1E+10	1
4902554	54	C	08/03/2022	03:01	-133.993	49.689	0	253.60	0	4.6830	0	33.8080	0	26.768	0	251.279	0	-1e10	8	-1e10	8	-1E+10	1	-1E+10	1	-1E+10	1	-1E+10	1	-1E+10	1	-1E+10	1
4902554	54	C	08/03/2022	03:01	-133.993	49.689	0	254.90	0	4.6750	0	33.8090	0	26.770	0	252.566	0	-1e10	8	-1e10	8	-1E+10	1	-1E+10	1	-1E+10	1	-1E+10	1	-1E+10	1	-1E+10	1
4902554	54	C	08/03/2022	03:01	-133.993	49.689	0	256.40	0	4.6700	0	33.8110	0	26.772	0	254.051	0	-1e10	8	-1e10	8	-1E+10	1	-1E+10	1	-1E+10	1	-1E+10	1	-1E+10	1	-1E+10	1
4902554	54	C	08/03/2022	03:01	-133.993	49.689	0	257.30	0	4.6590	0	33.8140	0	26.775	0	254.943	0	-1e10	8	-1e10	8	-1E+10	1	-1E+10	1	-1E+10	1	-1E+10	1	-1E+10	1	-1E+10	1
4902554	54	C	08/03/2022	03:01	-133.993	49.689	0	258.20	0	4.6560	0	33.8150	0	26.776	0	255.834	0	-1e10	8	-1e10	8	-1E+10	1	-1E+10	1	-1E+10	1	-1E+10	1	-1E+10	1	-1E+10	1
4902554	54	C	08/03/2022	03:01	-133.993	49.689	0	259.20	0	4.6520	0	33.8170	0	26.778	0	256.824	0	-1e10	8	-1e10	8	-1E+10	1	-1E+10	1	-1E+10	1	-1E+10	1	-1E+10	1	-1E+10	1
4902554	54	C	08/03/2022	03:01	-133.993	49.689	0	260.10	0	4.6490	0	33.8170	0	26.779	0	257.715	0	-1e10	8	-1e10	8	-1E+10	1	-1E+10	1	-1E+10	1	-1E+10	1	-1E+10	1	-1E+10	1
4902554	54	C	08/03/2022	03:01	-133.993	49.689	0	261.00	0	4.6440	0	33.8190	0	26.781	0	258.606	0	-1e10	8	-1e10	8	-1E+10	1	-1E+10	1	-1E+10	1	-1E+10	1	-1E+10	1	-1E+10	1
4902554	54	C	08/03/2022	03:01	-133.993	49.689	0	262.00	0	4.6350	0	33.8200	0	26.783	0	259.597	0	-1e10	8	-1e10	8	-1E+10	1	-1E+10	1	-1E+10	1	-1E+10	1	-1E+10	1	-1E+10	1
4902554	54	C	08/03/2022	03:01	-133.993	49.689	0	262.90	0	4.6250	0	33.8200	0	26.784	0	260.488	0	-1e10	8	-1e10	8	-1E+10	1	-1E+10	1	-1E+10	1	-1E+10	1	-1E+10	1	-1E+10	1
4902554	54	C	08/03/2022	03:01	-133.993	49.689	0	263.80	0	4.6230	0	33.8210	0	26.785	0	261.379	0	-1e10	8	-1e10	8	-1E+10	1	-1E+10	1	-1E+10	1	-1E+10	1	-1E+10	1	-1E+10	1
4902554	54	C	08/03/2022	03:01	-133.993	49.689	0	264.70	0	4.6180	0	33.8240	0	26.788	0	262.270	0	-1e10	8	-1e10	8	-1E+10	1	-1E+10	1	-1E+10	1	-1E+10	1	-1E+10	1	-1E+10	1
4902554	54	C	08/03/2022	03:01	-133.993	49.689	0	265.70	0	4.6090	0	33.8240	0	26.789	0	263.260	0	-1e10	8	-1e10	8	-1E+10	1	-1E+10	1	-1E+10	1	-1E+10	1	-1E+10	1	-1E+10	1
4902554	54	C	08/03/2022	03:01	-133.993	49.689	0	266.60	0	4.5980	0	33.8280	0	26.793	0	264.152	0	-1e10	8	-1e10	8	-1E+10	1	-1E+10	1	-1E+10	1	-1E+10	1	-1E+10	1	-1E+10	1
4902554	54	C	08/03/2022	03:01	-133.993	49.689	0	267.50	0	4.5910	0	33.8290	0	26.795	0	265.043	0	-1e10	8	-1e10	8	-1E+10	1	-1E+10	1	-1E+10	1	-1E+10	1	-1E+10	1	-1E+10	1
4902554	54	C	08/03/2022	03:01	-133.993	49.689	0	268.90	0	4.5810	0	33.8320	0	26.798	0	266.429	0	-1e10	8	-1e10	8	-1E+10	1	-1E+10	1	-1E+10	1	-1E+10	1	-1E+10	1	-1E+10	1
4902554	54	C	08/03/2022	03:01	-133.993	49.689	0	270.40	0	4.5770	0	33.8330	0	26.799	0	267.914	0	-1e10	8	-1e10	8	-1E+10	1	-1E+10	1	-1E+10	1	-1E+10	1	-1E+10	1	-1E+10	1
4902554	54	C	08/03/2022	03:01	-133.993	49.689	0	271.30	0	4.5760	0	33.8330	0	26.799	0	268.805	0	-1e10	8	-1e10	8	-1E+10	1	-1E+10	1	-1E+10	1	-1E+10	1	-1E+10	1	-1E+10	1
4902554	54	C	08/03/2022	03:01	-133.993	49.689	0	272.20	0	4.5760	0	33.8340	0	26.800	0	269.696	0	-1e10	8	-1e10	8	-1E+10	1	-1E+10	1	-1E+10	1	-1E+10	1	-1E+10	1	-1E+10	1
4902554	54	C	08/03/2022	03:01	-133.993	49.689	0	273.10	0	4.5720	0	33.8340	0	26.801	0	270.588	0	-1e10	8	-1e10	8	-1E+10	1	-1E+10	1	-1E+10	1	-1E+10	1	-1E+10	1	-1E+10	1
4902554	54	C	08/03/2022	03:01	-133.993	49.689	0	274.00	0	4.5680	0	33.8350	0	26.802	0	271.479	0	-1e10	8	-1e10	8	-1E+10	1	-1E+10	1	-1E+10	1	-1E+10	1	-1E+10	1	-1E+10	1
4902554	54	C	08/03/2022	03:01	-133.993	49.689	0	275.00	0	4.5640	0	33.8380	0	26.805	0	272.469	0	-1e10	8	-1e10	8	-1E+10	1	-1E+10	1	-1E+10	1	-1E+10	1	-1E+10	1	-1E+10	1
4902554	54	C	08/03/2022	03:01	-133.993	49.689	0	275.90	0	4.5610	0	33.8420	0	26.808	0	273.360	0	-1e10	8	-1e10	8	-1E+10	1	-1E+10	1	-1E+10	1	-1E+10	1	-1E+10	1	-1E+10	1
4902554	54	C	08/03/2022	03:01	-133.993	49.689	0	276.90	0	4.5510	0	33.8430	0	26.810	0	274.350	0	-1e10	8	-1e10	8	-1E+10	1	-1E+10	1	-1E+10	1	-1E+10	1	-1E+10	1	-1E+10	1
4902554	54	C	08/03/2022	03:01	-133.993	49.689	0	277.80	0	4.5510	0	33.8430	0	26.810	0	275.241	0	-1e10	8	-1e10	8	-1E+10	1	-1E+10	1	-1E+10	1	-1E+10	1	-1E+10	1	-1E+10	1
4902554	54	C	08/03/2022	03:01	-133.993	49.689	0	278.80	0	4.5460	0	33.8440	0	26.812	0	276.231	0	-1e10	8	-1e10	8	-1E+10	1	-1E+10	1	-1E+10	1	-1E+10	1	-1E+10	1	-1E+10	1
4902554	54	C	08/03/2022	03:01	-133.993	49.689	0	279.70	0	4.5440	0	33.8450	0	26.813	0	277.122	0	-1e10	8	-1e10	8	-1E+10	1	-1E+10	1	-1E+10	1	-1E+10	1	-1E+10	1	-1E+10	1
4902554	54	C	08/03/2022	03:01	-133.993	49.689	0	280.60	0	4.5450	0	33.8440	0	26.812	0	278.014	0	-1e10	8	-1e10	8	-1E+10	1	-1E+10	1	-1E+10	1	-1E+10	1	-1E+10	1	-1E+10	1
4902554	54	C	08/03/2022	03:01	-133.993	49.689	0	281.60	0	4.5420	0	33.8460	0	26.814	0	279.004	0	-1e10	8	-1e10	8	-1E+10	1	-1E+10	1	-1E+10	1	-1E+10	1	-1E+10	1	-1E+10	1
4902554	54	C	08/03/2022	03:01	-133.993	49.689	0	282.50	0	4.5410	0	33.8470	0	26.814	0	279.895	0	-1e10	8	-1e10	8	-1E+10	1	-1E+10	1	-1E+10	1	-1E+10	1	-1E+10	1	-1E+10	1
4902554	54	C	08/03/2022	03:01	-133.993	49.689	0	283.90	0	4.5420	0	33.8500	0	26.817	0	281.281	0	-1e10	8	-1e10	8	-1E+10	1	-1E+10	1	-1E+10	1	-1E+10	1	-1E+10	1	-1E+10	1
4902554	54	C	08/03/2022	03:01	-133.993	49.689	0	285.40	0	4.5390	0	33.8540	0	26.820	0	282.766	0	-1e10	8	-1e10	8	-1E+10	1	-1E+10	1	-1E+10	1	-1E+10	1	-1E+10	1	-1E+10	1
4902554	54	C	08/03/2022	03:01	-133.993	49.689	0	286.30	0	4.5380	0	33.8540	0	26.820	0	283.657	0	-1e10	8	-1e10	8	-1E+10	1	-1E+10	1	-1E+10	1	-1E+10	1	-1E+10	1	-1E+10	1
4902554	54	C	08/03/2022	03:01	-133.993	49.689	0	287.20	0	4.5370	0	33.8540	0	26.821	0	284.548	0	-1e10	8	-1e10	8	-1E+10	1	-1E+10	1	-1E+10	1	-1E+10	1	-1E+10	1	-1E+10	1
4902554	54	C	08/03/2022	03:01	-133.993	49.689	0	288.20	0	4.5370	0	33.8540	0	26.821	0	285.538	0	-1e10	8	-1e10	8	-1E+10	1	-1E+10	1	-1E+10	1	-1E+10	1	-1E+10	1	-1E+10	1
4902554	54	C	08/03/2022	03:01	-133.993	49.689	0	289.10	0	4.5360	0	33.8540	0	26.821	0	286.429	0	-1e10	8	-1e10	8	-1E+10	1	-1E+10	1	-1E+10	1	-1E+10	1	-1E+10	1	-1E+10	1
4902554	54	C	08/03/2022	03:01	-133.993	49.689	0	290.10	0	4.5320	0	33.8550	0	26.822	0	287.419	0	-1e10	8	-1e10	8	-1E+10	1	-1E+10	1	-1E+10	1	-1E+10	1	-1E+10	1	-1E+10	1
4902554	54	C	08/03/2022	03:01	-133.993	49.689	0	291.00	0	4.5310	0	33.8560	0	26.823	0	288.310	0	-1e10	8	-1e10	8	-1E+10	1	-1E+10	1	-1E+10	1	-1E+10	1	-1E+10	1	-1E+10	1
4902554	54	C	08/03/2022	03:01	-133.993	49.689	0	292.00	0	4.5210	0	33.8610	0	26.828	0	289.300	0	-1e10	8	-1e10	8	-1E+10	1	-1E+10	1	-1E+10	1	-1E+10	1	-1E+10	1	-1E+10	1
4902554	54	C	08/03/2022	03:01	-133.993	49.689	0	293.00	0	4.5150	0	33.8630	0	26.830	0	290.291	0	-1e10	8	-1e10	8	-1E+10	1	-1E+10	1	-1E+10	1	-1E+10	1	-1E+10	1	-1E+10	1
4902554	54	C	08/03/2022	03:01	-133.993	49.689	0	293.90	0	4.5030	0	33.8670	0	26.835	0	291.182	0	-1e10	8	-1e10	8	-1E+10	1	-1E+10	1	-1E+10	1	-1E+10	1	-1E+10	1	-1E+10	1
4902554	54	C	08/03/2022	03:01	-133.993	49.689	0	294.90	0	4.5010	0	33.8670	0	26.835	0	292.172	0	-1e10	8	-1e10	8	-1E+10	1	-1E+10	1	-1E+10	1	-1E+10	1	-1E+10	1	-1E+10	1
4902554	54	C	08/03/2022	03:01	-133.993	49.689	0	295.90	0	4.5010	0	33.8680	0	26.836	0	293.162	0	-1e10	8	-1e10	8	-1E+10	1	-1E+10	1	-1E+10	1	-1E+10	1	-1E+10	1	-1E+10	1
4902554	54	C	08/03/2022	03:01	-133.993	49.689	0	296.80	0	4.5020	0	33.8680	0	26.835	0	294.053	0	-1e10	8	-1e10	8	-1E+10	1	-1E+10	1	-1E+10	1	-1E+10	1	-1E+10	1	-1E+10	1
4902554	54	C	08/03/2022	03:01	-133.993	49.689	0	297.80	0	4.5020	0	33.8690	0	26.836	0	295.043	0	-1e10	8	-1e10	8	-1E+10	1	-1E+10	1	-1E+10	1	-1E+10	1	-1E+10	1	-1E+10	1
4902554	54	C	08/03/2022	03:01	-133.993	49.689	0	298.80	0	4.5020	0	33.8690	0	26.836	0	296.033	0	-1e10	8	-1e10	8	-1E+10	1	-1E+10	1	-1E+10	1	-1E+10	1	-1E+10	1	-1E+10	1
4902554	54	C	08/03/2022	03:01	-133.993	49.689	0	299.70	0	4.5040	0	33.8700	0	26.837	0	296.924	0	-1e10	8	-1e10	8	-1E+10	1	-1E+10	1	-1E+10	1	-1E+10	1	-1E+10	1	-1E+10	1
4902554	54	C	08/03/2022	03:01	-133.993	49.689	0	300.70	0	4.5020	0	33.8700	0	26.837	0	297.914	0	-1e10	8	-1e10	8	-1E+10	1	-1E+10	1	-1E+10	1	-1E+10	1	-1E+10	1	-1E+10	1
4902554	54	C	08/03/2022	03:01	-133.993	49.689	0	301.60	0	4.5010	0	33.8710	0	26.838	0	298.805	0	-1e10	8	-1e10	8	-1E+10	1	-1E+10	1	-1E+10	1	-1E+10	1	-1E+10	1	-1E+10	1
4902554	54	C	08/03/2022	03:01	-133.993	49.689	0	302.60	0	4.4850	0	33.8760	0	26.844	0	299.795	0	-1e10	8	-1e10	8	-1E+10	1	-1E+10	1	-1E+10	1	-1E+10	1	-1E+10	1	-1E+10	1
4902554	54	C	08/03/2022	03:01	-133.993	49.689	0	303.60	0	4.4780	0	33.8770	0	26.845	0	300.785	0	-1e10	8	-1e10	8	-1E+10	1	-1E+10	1	-1E+10	1	-1E+10	1	-1E+10	1	-1E+10	1
4902554	54	C	08/03/2022	03:01	-133.993	49.689	0	304.60	0	4.4710	0	33.8790	0	26.848	0	301.775	0	-1e10	8	-1e10	8	-1E+10	1	-1E+10	1	-1E+10	1	-1E+10	1	-1E+10	1	-1E+10	1
4902554	54	C	08/03/2022	03:01	-133.993	49.689	0	305.60	0	4.4700	0	33.8820	0	26.850	0	302.765	0	-1e10	8	-1e10	8	-1E+10	1	-1E+10	1	-1E+10	1	-1E+10	1	-1E+10	1	-1E+10	1
4902554	54	C	08/03/2022	03:01	-133.993	49.689	0	306.60	0	4.4690	0	33.8820	0	26.850	0	303.755	0	-1e10	8	-1e10	8	-1E+10	1	-1E+10	1	-1E+10	1	-1E+10	1	-1E+10	1	-1E+10	1
4902554	54	C	08/03/2022	03:01	-133.993	49.689	0	307.60	0	4.4700	0	33.8830	0	26.851	0	304.745	0	-1e10	8	-1e10	8	-1E+10	1	-1E+10	1	-1E+10	1	-1E+10	1	-1E+10	1	-1E+10	1
4902554	54	C	08/03/2022	03:01	-133.993	49.689	0	308.60	0	4.4660	0	33.8850	0	26.853	0	305.735	0	-1e10	8	-1e10	8	-1E+10	1	-1E+10	1	-1E+10	1	-1E+10	1	-1E+10	1	-1E+10	1
4902554	54	C	08/03/2022	03:01	-133.993	49.689	0	309.60	0	4.4620	0	33.8870	0	26.855	0	306.725	0	-1e10	8	-1e10	8	-1E+10	1	-1E+10	1	-1E+10	1	-1E+10	1	-1E+10	1	-1E+10	1
4902554	54	C	08/03/2022	03:01	-133.993	49.689	0	310.60	0	4.4570	0	33.8880	0	26.856	0	307.715	0	-1e10	8	-1e10	8	-1E+10	1	-1E+10	1	-1E+10	1	-1E+10	1	-1E+10	1	-1E+10	1
4902554	54	C	08/03/2022	03:01	-133.993	49.689	0	311.60	0	4.4570	0	33.8880	0	26.856	0	308.705	0	-1e10	8	-1e10	8	-1E+10	1	-1E+10	1	-1E+10	1	-1E+10	1	-1E+10	1	-1E+10	1
4902554	54	C	08/03/2022	03:01	-133.993	49.689	0	312.60	0	4.4550	0	33.8890	0	26.857	0	309.695	0	-1e10	8	-1e10	8	-1E+10	1	-1E+10	1	-1E+10	1	-1E+10	1	-1E+10	1	-1E+10	1
4902554	54	C	08/03/2022	03:01	-133.993	49.689	0	313.60	0	4.4510	0	33.8900	0	26.859	0	310.685	0	-1e10	8	-1e10	8	-1E+10	1	-1E+10	1	-1E+10	1	-1E+10	1	-1E+10	1	-1E+10	1
4902554	54	C	08/03/2022	03:01	-133.993	49.689	0	314.60	0	4.4500	0	33.8910	0	26.859	0	311.675	0	-1e10	8	-1e10	8	-1E+10	1	-1E+10	1	-1E+10	1	-1E+10	1	-1E+10	1	-1E+10	1
4902554	54	C	08/03/2022	03:01	-133.993	49.689	0	315.70	0	4.4500	0	33.8910	0	26.859	0	312.764	0	-1e10	8	-1e10	8	-1E+10	1	-1E+10	1	-1E+10	1	-1E+10	1	-1E+10	1	-1E+10	1
4902554	54	C	08/03/2022	03:01	-133.993	49.689	0	316.70	0	4.4490	0	33.8920	0	26.860	0	313.753	0	-1e10	8	-1e10	8	-1E+10	1	-1E+10	1	-1E+10	1	-1E+10	1	-1E+10	1	-1E+10	1
4902554	54	C	08/03/2022	03:01	-133.993	49.689	0	317.70	0	4.4490	0	33.8930	0	26.861	0	314.743	0	-1e10	8	-1e10	8	-1E+10	1	-1E+10	1	-1E+10	1	-1E+10	1	-1E+10	1	-1E+10	1
4902554	54	C	08/03/2022	03:01	-133.993	49.689	0	318.80	0	4.4500	0	33.8930	0	26.861	0	315.832	0	-1e10	8	-1e10	8	-1E+10	1	-1E+10	1	-1E+10	1	-1E+10	1	-1E+10	1	-1E+10	1
4902554	54	C	08/03/2022	03:01	-133.993	49.689	0	319.80	0	4.4500	0	33.8940	0	26.862	0	316.822	0	-1e10	8	-1e10	8	-1E+10	1	-1E+10	1	-1E+10	1	-1E+10	1	-1E+10	1	-1E+10	1
4902554	54	C	08/03/2022	03:01	-133.993	49.689	0	320.80	0	4.4500	0	33.8950	0	26.863	0	317.812	0	-1e10	8	-1e10	8	-1E+10	1	-1E+10	1	-1E+10	1	-1E+10	1	-1E+10	1	-1E+10	1
4902554	54	C	08/03/2022	03:01	-133.993	49.689	0	321.90	0	4.4500	0	33.8970	0	26.864	0	318.901	0	-1e10	8	-1e10	8	-1E+10	1	-1E+10	1	-1E+10	1	-1E+10	1	-1E+10	1	-1E+10	1
4902554	54	C	08/03/2022	03:01	-133.993	49.689	0	322.90	0	4.4530	0	33.8990	0	26.866	0	319.891	0	-1e10	8	-1e10	8	-1E+10	1	-1E+10	1	-1E+10	1	-1E+10	1	-1E+10	1	-1E+10	1
4902554	54	C	08/03/2022	03:01	-133.993	49.689	0	323.90	0	4.4510	0	33.9010	0	26.867	0	320.881	0	-1e10	8	-1e10	8	-1E+10	1	-1E+10	1	-1E+10	1	-1E+10	1	-1E+10	1	-1E+10	1
4902554	54	C	08/03/2022	03:01	-133.993	49.689	0	324.80	0	4.4470	0	33.9010	0	26.868	0	321.772	0	-1e10	8	-1e10	8	-1E+10	1	-1E+10	1	-1E+10	1	-1E+10	1	-1E+10	1	-1E+10	1
4902554	54	C	08/03/2022	03:01	-133.993	49.689	0	325.80	0	4.4430	0	33.9040	0	26.871	0	322.762	0	-1e10	8	-1e10	8	-1E+10	1	-1E+10	1	-1E+10	1	-1E+10	1	-1E+10	1	-1E+10	1
4902554	54	C	08/03/2022	03:01	-133.993	49.689	0	327.00	0	4.4430	0	33.9040	0	26.871	0	323.950	0	-1e10	8	-1e10	8	-1E+10	1	-1E+10	1	-1E+10	1	-1E+10	1	-1E+10	1	-1E+10	1
4902554	54	C	08/03/2022	03:01	-133.993	49.689	0	328.20	0	4.4380	0	33.9050	0	26.872	0	325.137	0	-1e10	8	-1e10	8	-1E+10	1	-1E+10	1	-1E+10	1	-1E+10	1	-1E+10	1	-1E+10	1
4902554	54	C	08/03/2022	03:01	-133.993	49.689	0	328.90	0	4.4370	0	33.9060	0	26.873	0	325.830	0	-1e10	8	-1e10	8	-1E+10	1	-1E+10	1	-1E+10	1	-1E+10	1	-1E+10	1	-1E+10	1
4902554	54	C	08/03/2022	03:01	-133.993	49.689	0	329.70	0	4.4370	0	33.9060	0	26.873	0	326.622	0	-1e10	8	-1e10	8	-1E+10	1	-1E+10	1	-1E+10	1	-1E+10	1	-1E+10	1	-1E+10	1
4902554	54	C	08/03/2022	03:01	-133.993	49.689	0	330.90	0	4.4370	0	33.9060	0	26.873	0	327.810	0	-1e10	8	-1e10	8	-1E+10	1	-1E+10	1	-1E+10	1	-1E+10	1	-1E+10	1	-1E+10	1
4902554	54	C	08/03/2022	03:01	-133.993	49.689	0	332.10	0	4.4370	0	33.9070	0	26.874	0	328.998	0	-1e10	8	-1e10	8	-1E+10	1	-1E+10	1	-1E+10	1	-1E+10	1	-1E+10	1	-1E+10	1
4902554	54	C	08/03/2022	03:01	-133.993	49.689	0	332.90	0	4.4370	0	33.9070	0	26.874	0	329.790	0	-1e10	8	-1e10	8	-1E+10	1	-1E+10	1	-1E+10	1	-1E+10	1	-1E+10	1	-1E+10	1
4902554	54	C	08/03/2022	03:01	-133.993	49.689	0	333.70	0	4.4370	0	33.9080	0	26.874	0	330.582	0	-1e10	8	-1e10	8	-1E+10	1	-1E+10	1	-1E+10	1	-1E+10	1	-1E+10	1	-1E+10	1
4902554	54	C	08/03/2022	03:01	-133.993	49.689	0	335.00	0	4.4370	0	33.9090	0	26.875	0	331.869	0	-1e10	8	-1e10	8	-1E+10	1	-1E+10	1	-1E+10	1	-1E+10	1	-1E+10	1	-1E+10	1
4902554	54	C	08/03/2022	03:01	-133.993	49.689	0	336.20	0	4.4370	0	33.9110	0	26.877	0	333.056	0	-1e10	8	-1e10	8	-1E+10	1	-1E+10	1	-1E+10	1	-1E+10	1	-1E+10	1	-1E+10	1
4902554	54	C	08/03/2022	03:01	-133.993	49.689	0	337.00	0	4.4320	0	33.9130	0	26.879	0	333.848	0	-1e10	8	-1e10	8	-1E+10	1	-1E+10	1	-1E+10	1	-1E+10	1	-1E+10	1	-1E+10	1
4902554	54	C	08/03/2022	03:01	-133.993	49.689	0	337.80	0	4.4310	0	33.9140	0	26.880	0	334.640	0	-1e10	8	-1e10	8	-1E+10	1	-1E+10	1	-1E+10	1	-1E+10	1	-1E+10	1	-1E+10	1
4902554	54	C	08/03/2022	03:01	-133.993	49.689	0	338.70	0	4.4290	0	33.9150	0	26.881	0	335.531	0	-1e10	8	-1e10	8	-1E+10	1	-1E+10	1	-1E+10	1	-1E+10	1	-1E+10	1	-1E+10	1
4902554	54	C	08/03/2022	03:01	-133.993	49.689	0	339.90	0	4.4250	0	33.9160	0	26.882	0	336.719	0	-1e10	8	-1e10	8	-1E+10	1	-1E+10	1	-1E+10	1	-1E+10	1	-1E+10	1	-1E+10	1
4902554	54	C	08/03/2022	03:01	-133.993	49.689	0	341.10	0	4.4210	0	33.9170	0	26.883	0	337.907	0	-1e10	8	-1e10	8	-1E+10	1	-1E+10	1	-1E+10	1	-1E+10	1	-1E+10	1	-1E+10	1
4902554	54	C	08/03/2022	03:01	-133.993	49.689	0	342.00	0	4.4200	0	33.9180	0	26.884	0	338.797	0	-1e10	8	-1e10	8	-1E+10	1	-1E+10	1	-1E+10	1	-1E+10	1	-1E+10	1	-1E+10	1
4902554	54	C	08/03/2022	03:01	-133.993	49.689	0	342.80	0	4.4190	0	33.9180	0	26.884	0	339.589	0	-1e10	8	-1e10	8	-1E+10	1	-1E+10	1	-1E+10	1	-1E+10	1	-1E+10	1	-1E+10	1
4902554	54	C	08/03/2022	03:01	-133.993	49.689	0	343.70	0	4.4170	0	33.9190	0	26.885	0	340.480	0	-1e10	8	-1e10	8	-1E+10	1	-1E+10	1	-1E+10	1	-1E+10	1	-1E+10	1	-1E+10	1
4902554	54	C	08/03/2022	03:01	-133.993	49.689	0	344.90	0	4.4160	0	33.9210	0	26.887	0	341.668	0	-1e10	8	-1e10	8	-1E+10	1	-1E+10	1	-1E+10	1	-1E+10	1	-1E+10	1	-1E+10	1
4902554	54	C	08/03/2022	03:01	-133.993	49.689	0	346.20	0	4.4130	0	33.9260	0	26.891	0	342.955	0	-1e10	8	-1e10	8	-1E+10	1	-1E+10	1	-1E+10	1	-1E+10	1	-1E+10	1	-1E+10	1
4902554	54	C	08/03/2022	03:01	-133.993	49.689	0	347.10	0	4.4060	0	33.9270	0	26.893	0	343.845	0	-1e10	8	-1e10	8	-1E+10	1	-1E+10	1	-1E+10	1	-1E+10	1	-1E+10	1	-1E+10	1
4902554	54	C	08/03/2022	03:01	-133.993	49.689	0	348.00	0	4.4050	0	33.9310	0	26.896	0	344.736	0	-1e10	8	-1e10	8	-1E+10	1	-1E+10	1	-1E+10	1	-1E+10	1	-1E+10	1	-1E+10	1
4902554	54	C	08/03/2022	03:01	-133.993	49.689	0	348.80	0	4.4030	0	33.9310	0	26.897	0	345.528	0	-1e10	8	-1e10	8	-1E+10	1	-1E+10	1	-1E+10	1	-1E+10	1	-1E+10	1	-1E+10	1
4902554	54	C	08/03/2022	03:01	-133.993	49.689	0	349.70	0	4.4000	0	33.9320	0	26.898	0	346.419	0	-1e10	8	-1e10	8	-1E+10	1	-1E+10	1	-1E+10	1	-1E+10	1	-1E+10	1	-1E+10	1
4902554	54	C	08/03/2022	03:01	-133.993	49.689	0	352.70	0	4.3990	0	33.9350	0	26.900	0	349.388	0	-1e10	8	-1e10	8	-1E+10	1	-1E+10	1	-1E+10	1	-1E+10	1	-1E+10	1	-1E+10	1
4902554	54	C	08/03/2022	03:01	-133.993	49.689	0	358.00	0	4.3970	0	33.9420	0	26.906	0	354.634	0	-1e10	8	-1e10	8	-1E+10	1	-1E+10	1	-1E+10	1	-1E+10	1	-1E+10	1	-1E+10	1
4902554	54	C	08/03/2022	03:01	-133.993	49.689	0	362.80	0	4.3930	0	33.9450	0	26.909	0	359.385	0	-1e10	8	-1e10	8	-1E+10	1	-1E+10	1	-1E+10	1	-1E+10	1	-1E+10	1	-1E+10	1
4902554	54	C	08/03/2022	03:01	-133.993	49.689	0	367.70	0	4.3820	0	33.9490	0	26.913	0	364.234	0	-1e10	8	-1e10	8	-1E+10	1	-1E+10	1	-1E+10	1	-1E+10	1	-1E+10	1	-1E+10	1
4902554	54	C	08/03/2022	03:01	-133.993	49.689	0	373.10	0	4.3700	0	33.9550	0	26.919	0	369.578	0	-1e10	8	-1e10	8	-1E+10	1	-1E+10	1	-1E+10	1	-1E+10	1	-1E+10	1	-1E+10	1
4902554	54	C	08/03/2022	03:01	-133.993	49.689	0	378.10	0	4.3680	0	33.9640	0	26.927	0	374.527	0	-1e10	8	-1e10	8	-1E+10	1	-1E+10	1	-1E+10	1	-1E+10	1	-1E+10	1	-1E+10	1
4902554	54	C	08/03/2022	03:01	-133.993	49.689	0	383.10	0	4.3610	0	33.9680	0	26.931	0	379.475	0	-1e10	8	-1e10	8	-1E+10	1	-1E+10	1	-1E+10	1	-1E+10	1	-1E+10	1	-1E+10	1
4902554	54	C	08/03/2022	03:01	-133.993	49.689	0	388.10	0	4.3500	0	33.9710	0	26.934	0	384.423	0	-1e10	8	-1e10	8	-1E+10	1	-1E+10	1	-1E+10	1	-1E+10	1	-1E+10	1	-1E+10	1
4902554	54	C	08/03/2022	03:01	-133.993	49.689	0	393.10	0	4.3390	0	33.9800	0	26.943	0	389.371	0	-1e10	8	-1e10	8	-1E+10	1	-1E+10	1	-1E+10	1	-1E+10	1	-1E+10	1	-1E+10	1
4902554	54	C	08/03/2022	03:01	-133.993	49.689	0	398.10	0	4.3290	0	33.9890	0	26.951	0	394.319	0	-1e10	8	-1e10	8	-1E+10	1	-1E+10	1	-1E+10	1	-1E+10	1	-1E+10	1	-1E+10	1
4902554	54	C	08/03/2022	03:01	-133.993	49.689	0	403.10	0	4.3030	0	33.9990	0	26.962	0	399.266	0	-1e10	8	-1e10	8	-1E+10	1	-1E+10	1	-1E+10	1	-1E+10	1	-1E+10	1	-1E+10	1
4902554	54	C	08/03/2022	03:01	-133.993	49.689	0	408.10	0	4.2910	0	34.0050	0	26.968	0	404.214	0	-1e10	8	-1e10	8	-1E+10	1	-1E+10	1	-1E+10	1	-1E+10	1	-1E+10	1	-1E+10	1
4902554	54	C	08/03/2022	03:01	-133.993	49.689	0	412.90	0	4.3010	0	34.0110	0	26.971	0	408.964	0	-1e10	8	-1e10	8	-1E+10	1	-1E+10	1	-1E+10	1	-1E+10	1	-1E+10	1	-1E+10	1
4902554	54	C	08/03/2022	03:01	-133.993	49.689	0	417.80	0	4.3010	0	34.0160	0	26.975	0	413.812	0	-1e10	8	-1e10	8	-1E+10	1	-1E+10	1	-1E+10	1	-1E+10	1	-1E+10	1	-1E+10	1
4902554	54	C	08/03/2022	03:01	-133.993	49.689	0	422.60	0	4.2880	0	34.0200	0	26.980	0	418.561	0	-1e10	8	-1e10	8	-1E+10	1	-1E+10	1	-1E+10	1	-1E+10	1	-1E+10	1	-1E+10	1
4902554	54	C	08/03/2022	03:01	-133.993	49.689	0	427.80	0	4.2750	0	34.0280	0	26.988	0	423.706	0	-1e10	8	-1e10	8	-1E+10	1	-1E+10	1	-1E+10	1	-1E+10	1	-1E+10	1	-1E+10	1
4902554	54	C	08/03/2022	03:01	-133.993	49.689	0	432.80	0	4.2680	0	34.0320	0	26.992	0	428.653	0	-1e10	8	-1e10	8	-1E+10	1	-1E+10	1	-1E+10	1	-1E+10	1	-1E+10	1	-1E+10	1
4902554	54	C	08/03/2022	03:01	-133.993	49.689	0	437.80	0	4.2600	0	34.0350	0	26.995	0	433.600	0	-1e10	8	-1e10	8	-1E+10	1	-1E+10	1	-1E+10	1	-1E+10	1	-1E+10	1	-1E+10	1
4902554	54	C	08/03/2022	03:01	-133.993	49.689	0	442.70	0	4.2440	0	34.0410	0	27.001	0	438.448	0	-1e10	8	-1e10	8	-1E+10	1	-1E+10	1	-1E+10	1	-1E+10	1	-1E+10	1	-1E+10	1
4902554	54	C	08/03/2022	03:01	-133.993	49.689	0	447.70	0	4.2320	0	34.0460	0	27.007	0	443.395	0	-1e10	8	-1e10	8	-1E+10	1	-1E+10	1	-1E+10	1	-1E+10	1	-1E+10	1	-1E+10	1
4902554	54	C	08/03/2022	03:01	-133.993	49.689	0	452.70	0	4.2210	0	34.0500	0	27.011	0	448.341	0	-1e10	8	-1e10	8	-1E+10	1	-1E+10	1	-1E+10	1	-1E+10	1	-1E+10	1	-1E+10	1
4902554	54	C	08/03/2022	03:01	-133.993	49.689	0	457.80	0	4.2030	0	34.0540	0	27.016	0	453.386	0	-1e10	8	-1e10	8	-1E+10	1	-1E+10	1	-1E+10	1	-1E+10	1	-1E+10	1	-1E+10	1
4902554	54	C	08/03/2022	03:01	-133.993	49.689	0	462.90	0	4.1950	0	34.0600	0	27.022	0	458.432	0	-1e10	8	-1e10	8	-1E+10	1	-1E+10	1	-1E+10	1	-1E+10	1	-1E+10	1	-1E+10	1
4902554	54	C	08/03/2022	03:01	-133.993	49.689	0	467.90	0	4.1850	0	34.0630	0	27.025	0	463.378	0	-1e10	8	-1e10	8	-1E+10	1	-1E+10	1	-1E+10	1	-1E+10	1	-1E+10	1	-1E+10	1
4902554	54	C	08/03/2022	03:01	-133.993	49.689	0	473.00	0	4.1660	0	34.0700	0	27.033	0	468.423	0	-1e10	8	-1e10	8	-1E+10	1	-1E+10	1	-1E+10	1	-1E+10	1	-1E+10	1	-1E+10	1
4902554	54	C	08/03/2022	03:01	-133.993	49.689	0	477.80	0	4.1540	0	34.0760	0	27.039	0	473.171	0	-1e10	8	-1e10	8	-1E+10	1	-1E+10	1	-1E+10	1	-1E+10	1	-1E+10	1	-1E+10	1
4902554	54	C	08/03/2022	03:01	-133.993	49.689	0	482.70	0	4.1370	0	34.0820	0	27.045	0	478.018	0	-1e10	8	-1e10	8	-1E+10	1	-1E+10	1	-1E+10	1	-1E+10	1	-1E+10	1	-1E+10	1
4902554	54	C	08/03/2022	03:01	-133.993	49.689	0	487.70	0	4.1260	0	34.0860	0	27.050	0	482.963	0	-1e10	8	-1e10	8	-1E+10	1	-1E+10	1	-1E+10	1	-1E+10	1	-1E+10	1	-1E+10	1
4902554	54	C	08/03/2022	03:01	-133.993	49.689	0	492.90	0	4.1220	0	34.0880	0	27.052	0	488.107	0	-1e10	8	-1e10	8	-1E+10	1	-1E+10	1	-1E+10	1	-1E+10	1	-1E+10	1	-1E+10	1
4902554	54	C	08/03/2022	03:01	-133.993	49.689	0	498.10	0	4.1180	0	34.0920	0	27.055	0	493.250	0	-1e10	8	-1e10	8	-1E+10	1	-1E+10	1	-1E+10	1	-1E+10	1	-1E+10	1	-1E+10	1
4902554	54	C	08/03/2022	03:01	-133.993	49.689	0	503.30	0	4.0970	0	34.1010	0	27.065	0	498.393	0	-1e10	8	-1e10	8	-1E+10	1	-1E+10	1	-1E+10	1	-1E+10	1	-1E+10	1	-1E+10	1
4902554	54	C	08/03/2022	03:01	-133.993	49.689	0	507.90	0	4.0840	0	34.1060	0	27.070	0	502.943	0	-1e10	8	-1e10	8	-1E+10	1	-1E+10	1	-1E+10	1	-1E+10	1	-1E+10	1	-1E+10	1
4902554	54	C	08/03/2022	03:01	-133.993	49.689	0	513.00	0	4.0760	0	34.1090	0	27.073	0	507.987	0	-1e10	8	-1e10	8	-1E+10	1	-1E+10	1	-1E+10	1	-1E+10	1	-1E+10	1	-1E+10	1
4902554	54	C	08/03/2022	03:01	-133.993	49.689	0	518.20	0	4.0660	0	34.1140	0	27.078	0	513.130	0	-1e10	8	-1e10	8	-1E+10	1	-1E+10	1	-1E+10	1	-1E+10	1	-1E+10	1	-1E+10	1
4902554	54	C	08/03/2022	03:01	-133.993	49.689	0	523.10	0	4.0540	0	34.1200	0	27.085	0	517.976	0	-1e10	8	-1e10	8	-1E+10	1	-1E+10	1	-1E+10	1	-1E+10	1	-1E+10	1	-1E+10	1
4902554	54	C	08/03/2022	03:01	-133.993	49.689	0	528.10	0	4.0420	0	34.1260	0	27.091	0	522.920	0	-1e10	8	-1e10	8	-1E+10	1	-1E+10	1	-1E+10	1	-1E+10	1	-1E+10	1	-1E+10	1
4902554	54	C	08/03/2022	03:01	-133.993	49.689	0	533.20	0	4.0310	0	34.1300	0	27.095	0	527.964	0	-1e10	8	-1e10	8	-1E+10	1	-1E+10	1	-1E+10	1	-1E+10	1	-1E+10	1	-1E+10	1
4902554	54	C	08/03/2022	03:01	-133.993	49.689	0	538.00	0	4.0240	0	34.1320	0	27.097	0	532.711	0	-1e10	8	-1e10	8	-1E+10	1	-1E+10	1	-1E+10	1	-1E+10	1	-1E+10	1	-1E+10	1
4902554	54	C	08/03/2022	03:01	-133.993	49.689	0	542.80	0	4.0180	0	34.1350	0	27.100	0	537.457	0	-1e10	8	-1e10	8	-1E+10	1	-1E+10	1	-1E+10	1	-1E+10	1	-1E+10	1	-1E+10	1
4902554	54	C	08/03/2022	03:01	-133.993	49.689	0	547.80	0	4.0100	0	34.1380	0	27.104	0	542.401	0	-1e10	8	-1e10	8	-1E+10	1	-1E+10	1	-1E+10	1	-1E+10	1	-1E+10	1	-1E+10	1
4902554	54	C	08/03/2022	03:01	-133.993	49.689	0	552.80	0	4.0070	0	34.1390	0	27.105	0	547.346	0	-1e10	8	-1e10	8	-1E+10	1	-1E+10	1	-1E+10	1	-1E+10	1	-1E+10	1	-1E+10	1
4902554	54	C	08/03/2022	03:01	-133.993	49.689	0	557.80	0	4.0000	0	34.1420	0	27.108	0	552.290	0	-1e10	8	-1e10	8	-1E+10	1	-1E+10	1	-1E+10	1	-1E+10	1	-1E+10	1	-1E+10	1
4902554	54	C	08/03/2022	03:01	-133.993	49.689	0	562.70	0	3.9860	0	34.1460	0	27.112	0	557.135	0	-1e10	8	-1e10	8	-1E+10	1	-1E+10	1	-1E+10	1	-1E+10	1	-1E+10	1	-1E+10	1
4902554	54	C	08/03/2022	03:01	-133.993	49.689	0	568.10	0	3.9760	0	34.1490	0	27.116	0	562.474	0	-1e10	8	-1e10	8	-1E+10	1	-1E+10	1	-1E+10	1	-1E+10	1	-1E+10	1	-1E+10	1
4902554	54	C	08/03/2022	03:01	-133.993	49.689	0	573.00	0	3.9660	0	34.1530	0	27.120	0	567.319	0	-1e10	8	-1e10	8	-1E+10	1	-1E+10	1	-1E+10	1	-1E+10	1	-1E+10	1	-1E+10	1
4902554	54	C	08/03/2022	03:01	-133.993	49.689	0	577.90	0	3.9540	0	34.1570	0	27.125	0	572.163	0	-1e10	8	-1e10	8	-1E+10	1	-1E+10	1	-1E+10	1	-1E+10	1	-1E+10	1	-1E+10	1
4902554	54	C	08/03/2022	03:01	-133.993	49.689	0	582.80	0	3.9450	0	34.1600	0	27.128	0	577.008	0	-1e10	8	-1e10	8	-1E+10	1	-1E+10	1	-1E+10	1	-1E+10	1	-1E+10	1	-1E+10	1
4902554	54	C	08/03/2022	03:01	-133.993	49.689	0	587.60	0	3.9390	0	34.1630	0	27.131	0	581.753	0	-1e10	8	-1e10	8	-1E+10	1	-1E+10	1	-1E+10	1	-1E+10	1	-1E+10	1	-1E+10	1
4902554	54	C	08/03/2022	03:01	-133.993	49.689	0	592.80	0	3.9280	0	34.1680	0	27.136	0	586.894	0	-1e10	8	-1e10	8	-1E+10	1	-1E+10	1	-1E+10	1	-1E+10	1	-1E+10	1	-1E+10	1
4902554	54	C	08/03/2022	03:01	-133.993	49.689	0	598.10	0	3.9140	0	34.1730	0	27.141	0	592.134	0	-1e10	8	-1e10	8	-1E+10	1	-1E+10	1	-1E+10	1	-1E+10	1	-1E+10	1	-1E+10	1
4902554	54	C	08/03/2022	03:01	-133.993	49.689	0	602.80	0	3.8990	0	34.1780	0	27.147	0	596.780	0	-1e10	8	-1e10	8	-1E+10	1	-1E+10	1	-1E+10	1	-1E+10	1	-1E+10	1	-1E+10	1
4902554	54	C	08/03/2022	03:01	-133.993	49.689	0	607.70	0	3.8890	0	34.1810	0	27.150	0	601.624	0	-1e10	8	-1e10	8	-1E+10	1	-1E+10	1	-1E+10	1	-1E+10	1	-1E+10	1	-1E+10	1
4902554	54	C	08/03/2022	03:01	-133.993	49.689	0	613.00	0	3.8780	0	34.1840	0	27.154	0	606.864	0	-1e10	8	-1e10	8	-1E+10	1	-1E+10	1	-1E+10	1	-1E+10	1	-1E+10	1	-1E+10	1
4902554	54	C	08/03/2022	03:01	-133.993	49.689	0	617.90	0	3.8660	0	34.1870	0	27.158	0	611.708	0	-1e10	8	-1e10	8	-1E+10	1	-1E+10	1	-1E+10	1	-1E+10	1	-1E+10	1	-1E+10	1
4902554	54	C	08/03/2022	03:01	-133.993	49.689	0	622.80	0	3.8560	0	34.1910	0	27.162	0	616.551	0	-1e10	8	-1e10	8	-1E+10	1	-1E+10	1	-1E+10	1	-1E+10	1	-1E+10	1	-1E+10	1
4902554	54	C	08/03/2022	03:01	-133.993	49.689	0	627.90	0	3.8490	0	34.1930	0	27.164	0	621.592	0	-1e10	8	-1e10	8	-1E+10	1	-1E+10	1	-1E+10	1	-1E+10	1	-1E+10	1	-1E+10	1
4902554	54	C	08/03/2022	03:01	-133.993	49.689	0	632.80	0	3.8390	0	34.1950	0	27.167	0	626.436	0	-1e10	8	-1e10	8	-1E+10	1	-1E+10	1	-1E+10	1	-1E+10	1	-1E+10	1	-1E+10	1
4902554	54	C	08/03/2022	03:01	-133.993	49.689	0	637.80	0	3.8220	0	34.2000	0	27.172	0	631.378	0	-1e10	8	-1e10	8	-1E+10	1	-1E+10	1	-1E+10	1	-1E+10	1	-1E+10	1	-1E+10	1
4902554	54	C	08/03/2022	03:01	-133.993	49.689	0	642.80	0	3.7990	0	34.2060	0	27.180	0	636.320	0	-1e10	8	-1e10	8	-1E+10	1	-1E+10	1	-1E+10	1	-1E+10	1	-1E+10	1	-1E+10	1
4902554	54	C	08/03/2022	03:01	-133.993	49.689	0	647.90	0	3.7810	0	34.2100	0	27.185	0	641.361	0	-1e10	8	-1e10	8	-1E+10	1	-1E+10	1	-1E+10	1	-1E+10	1	-1E+10	1	-1E+10	1
4902554	54	C	08/03/2022	03:01	-133.993	49.689	0	653.00	0	3.7610	0	34.2160	0	27.191	0	646.401	0	-1e10	8	-1e10	8	-1E+10	1	-1E+10	1	-1E+10	1	-1E+10	1	-1E+10	1	-1E+10	1
4902554	54	C	08/03/2022	03:01	-133.993	49.689	0	658.20	0	3.7450	0	34.2190	0	27.195	0	651.541	0	-1e10	8	-1e10	8	-1E+10	1	-1E+10	1	-1E+10	1	-1E+10	1	-1E+10	1	-1E+10	1
4902554	54	C	08/03/2022	03:01	-133.993	49.689	0	663.10	0	3.7320	0	34.2220	0	27.199	0	656.383	0	-1e10	8	-1e10	8	-1E+10	1	-1E+10	1	-1E+10	1	-1E+10	1	-1E+10	1	-1E+10	1
4902554	54	C	08/03/2022	03:01	-133.993	49.689	0	668.10	0	3.7190	0	34.2240	0	27.202	0	661.325	0	-1e10	8	-1e10	8	-1E+10	1	-1E+10	1	-1E+10	1	-1E+10	1	-1E+10	1	-1E+10	1
4902554	54	C	08/03/2022	03:01	-133.993	49.689	0	672.90	0	3.7050	0	34.2280	0	27.207	0	666.068	0	-1e10	8	-1e10	8	-1E+10	1	-1E+10	1	-1E+10	1	-1E+10	1	-1E+10	1	-1E+10	1
4902554	54	C	08/03/2022	03:01	-133.993	49.689	0	677.60	0	3.6940	0	34.2300	0	27.209	0	670.713	0	-1e10	8	-1e10	8	-1E+10	1	-1E+10	1	-1E+10	1	-1E+10	1	-1E+10	1	-1E+10	1
4902554	54	C	08/03/2022	03:01	-133.993	49.689	0	682.90	0	3.6830	0	34.2330	0	27.213	0	675.951	0	-1e10	8	-1e10	8	-1E+10	1	-1E+10	1	-1E+10	1	-1E+10	1	-1E+10	1	-1E+10	1
4902554	54	C	08/03/2022	03:01	-133.993	49.689	0	688.00	0	3.6750	0	34.2350	0	27.215	0	680.990	0	-1e10	8	-1e10	8	-1E+10	1	-1E+10	1	-1E+10	1	-1E+10	1	-1E+10	1	-1E+10	1
4902554	54	C	08/03/2022	03:01	-133.993	49.689	0	692.80	0	3.6590	0	34.2380	0	27.219	0	685.734	0	-1e10	8	-1e10	8	-1E+10	1	-1E+10	1	-1E+10	1	-1E+10	1	-1E+10	1	-1E+10	1
4902554	54	C	08/03/2022	03:01	-133.993	49.689	0	697.90	0	3.6410	0	34.2410	0	27.223	0	690.773	0	-1e10	8	-1e10	8	-1E+10	1	-1E+10	1	-1E+10	1	-1E+10	1	-1E+10	1	-1E+10	1
4902554	54	C	08/03/2022	03:01	-133.993	49.689	0	703.00	0	3.6310	0	34.2430	0	27.226	0	695.813	0	-1e10	8	-1e10	8	-1E+10	1	-1E+10	1	-1E+10	1	-1E+10	1	-1E+10	1	-1E+10	1
4902554	54	C	08/03/2022	03:01	-133.993	49.689	0	708.20	0	3.6250	0	34.2450	0	27.228	0	700.951	0	-1e10	8	-1e10	8	-1E+10	1	-1E+10	1	-1E+10	1	-1E+10	1	-1E+10	1	-1E+10	1
4902554	54	C	08/03/2022	03:01	-133.993	49.689	0	713.10	0	3.6160	0	34.2460	0	27.230	0	705.792	0	-1e10	8	-1e10	8	-1E+10	1	-1E+10	1	-1E+10	1	-1E+10	1	-1E+10	1	-1E+10	1
4902554	54	C	08/03/2022	03:01	-133.993	49.689	0	718.10	0	3.6100	0	34.2490	0	27.233	0	710.733	0	-1e10	8	-1e10	8	-1E+10	1	-1E+10	1	-1E+10	1	-1E+10	1	-1E+10	1	-1E+10	1
4902554	54	C	08/03/2022	03:01	-133.993	49.689	0	723.20	0	3.5920	0	34.2510	0	27.236	0	715.771	0	-1e10	8	-1e10	8	-1E+10	1	-1E+10	1	-1E+10	1	-1E+10	1	-1E+10	1	-1E+10	1
4902554	54	C	08/03/2022	03:01	-133.993	49.689	0	728.30	0	3.5750	0	34.2540	0	27.240	0	720.810	0	-1e10	8	-1e10	8	-1E+10	1	-1E+10	1	-1E+10	1	-1E+10	1	-1E+10	1	-1E+10	1
4902554	54	C	08/03/2022	03:01	-133.993	49.689	0	733.00	0	3.5700	0	34.2550	0	27.242	0	725.454	0	-1e10	8	-1e10	8	-1E+10	1	-1E+10	1	-1E+10	1	-1E+10	1	-1E+10	1	-1E+10	1
4902554	54	C	08/03/2022	03:01	-133.993	49.689	0	737.70	0	3.5640	0	34.2580	0	27.245	0	730.097	0	-1e10	8	-1e10	8	-1E+10	1	-1E+10	1	-1E+10	1	-1E+10	1	-1E+10	1	-1E+10	1
4902554	54	C	08/03/2022	03:01	-133.993	49.689	0	742.80	0	3.5570	0	34.2600	0	27.247	0	735.136	0	-1e10	8	-1e10	8	-1E+10	1	-1E+10	1	-1E+10	1	-1E+10	1	-1E+10	1	-1E+10	1
4902554	54	C	08/03/2022	03:01	-133.993	49.689	0	748.00	0	3.5430	0	34.2640	0	27.252	0	740.273	0	-1e10	8	-1e10	8	-1E+10	1	-1E+10	1	-1E+10	1	-1E+10	1	-1E+10	1	-1E+10	1
4902554	54	C	08/03/2022	03:01	-133.993	49.689	0	753.10	0	3.5330	0	34.2660	0	27.254	0	745.311	0	-1e10	8	-1e10	8	-1E+10	1	-1E+10	1	-1E+10	1	-1E+10	1	-1E+10	1	-1E+10	1
4902554	54	C	08/03/2022	03:01	-133.993	49.689	0	758.20	0	3.5280	0	34.2670	0	27.256	0	750.349	0	-1e10	8	-1e10	8	-1E+10	1	-1E+10	1	-1E+10	1	-1E+10	1	-1E+10	1	-1E+10	1
4902554	54	C	08/03/2022	03:01	-133.993	49.689	0	763.30	0	3.5150	0	34.2700	0	27.259	0	755.387	0	-1e10	8	-1e10	8	-1E+10	1	-1E+10	1	-1E+10	1	-1E+10	1	-1E+10	1	-1E+10	1
4902554	54	C	08/03/2022	03:01	-133.993	49.689	0	768.40	0	3.5060	0	34.2730	0	27.262	0	760.425	0	-1e10	8	-1e10	8	-1E+10	1	-1E+10	1	-1E+10	1	-1E+10	1	-1E+10	1	-1E+10	1
4902554	54	C	08/03/2022	03:01	-133.993	49.689	0	773.40	0	3.4950	0	34.2750	0	27.265	0	765.364	0	-1e10	8	-1e10	8	-1E+10	1	-1E+10	1	-1E+10	1	-1E+10	1	-1E+10	1	-1E+10	1
4902554	54	C	08/03/2022	03:01	-133.993	49.689	0	778.30	0	3.4900	0	34.2760	0	27.266	0	770.204	0	-1e10	8	-1e10	8	-1E+10	1	-1E+10	1	-1E+10	1	-1E+10	1	-1E+10	1	-1E+10	1
4902554	54	C	08/03/2022	03:01	-133.993	49.689	0	783.10	0	3.4810	0	34.2780	0	27.269	0	774.945	0	-1e10	8	-1e10	8	-1E+10	1	-1E+10	1	-1E+10	1	-1E+10	1	-1E+10	1	-1E+10	1
4902554	54	C	08/03/2022	03:01	-133.993	49.689	0	787.80	0	3.4780	0	34.2790	0	27.270	0	779.587	0	-1e10	8	-1e10	8	-1E+10	1	-1E+10	1	-1E+10	1	-1E+10	1	-1E+10	1	-1E+10	1
4902554	54	C	08/03/2022	03:01	-133.993	49.689	0	793.00	0	3.4700	0	34.2800	0	27.272	0	784.723	0	-1e10	8	-1e10	8	-1E+10	1	-1E+10	1	-1E+10	1	-1E+10	1	-1E+10	1	-1E+10	1
4902554	54	C	08/03/2022	03:01	-133.993	49.689	0	798.20	0	3.4600	0	34.2820	0	27.274	0	789.859	0	-1e10	8	-1e10	8	-1E+10	1	-1E+10	1	-1E+10	1	-1E+10	1	-1E+10	1	-1E+10	1
4902554	54	C	08/03/2022	03:01	-133.993	49.689	0	802.80	0	3.4510	0	34.2840	0	27.277	0	794.402	0	-1e10	8	-1e10	8	-1E+10	1	-1E+10	1	-1E+10	1	-1E+10	1	-1E+10	1	-1E+10	1
4902554	54	C	08/03/2022	03:01	-133.993	49.689	0	807.80	0	3.4380	0	34.2870	0	27.280	0	799.341	0	-1e10	8	-1e10	8	-1E+10	1	-1E+10	1	-1E+10	1	-1E+10	1	-1E+10	1	-1E+10	1
4902554	54	C	08/03/2022	03:01	-133.993	49.689	0	813.10	0	3.4250	0	34.2890	0	27.283	0	804.575	0	-1e10	8	-1e10	8	-1E+10	1	-1E+10	1	-1E+10	1	-1E+10	1	-1E+10	1	-1E+10	1
4902554	54	C	08/03/2022	03:01	-133.993	49.689	0	818.00	0	3.4130	0	34.2920	0	27.287	0	809.414	0	-1e10	8	-1e10	8	-1E+10	1	-1E+10	1	-1E+10	1	-1E+10	1	-1E+10	1	-1E+10	1
4902554	54	C	08/03/2022	03:01	-133.993	49.689	0	822.90	0	3.3930	0	34.2960	0	27.292	0	814.253	0	-1e10	8	-1e10	8	-1E+10	1	-1E+10	1	-1E+10	1	-1E+10	1	-1E+10	1	-1E+10	1
4902554	54	C	08/03/2022	03:01	-133.993	49.689	0	827.90	0	3.3830	0	34.2970	0	27.294	0	819.191	0	-1e10	8	-1e10	8	-1E+10	1	-1E+10	1	-1E+10	1	-1E+10	1	-1E+10	1	-1E+10	1
4902554	54	C	08/03/2022	03:01	-133.993	49.689	0	832.80	0	3.3610	0	34.3010	0	27.299	0	824.029	0	-1e10	8	-1e10	8	-1E+10	1	-1E+10	1	-1E+10	1	-1E+10	1	-1E+10	1	-1E+10	1
4902554	54	C	08/03/2022	03:01	-133.993	49.689	0	838.10	0	3.3480	0	34.3020	0	27.301	0	829.263	0	-1e10	8	-1e10	8	-1E+10	1	-1E+10	1	-1E+10	1	-1E+10	1	-1E+10	1	-1E+10	1
4902554	54	C	08/03/2022	03:01	-133.993	49.689	0	843.10	0	3.3350	0	34.3040	0	27.304	0	834.200	0	-1e10	8	-1e10	8	-1E+10	1	-1E+10	1	-1E+10	1	-1E+10	1	-1E+10	1	-1E+10	1
4902554	54	C	08/03/2022	03:01	-133.993	49.689	0	847.90	0	3.3300	0	34.3050	0	27.305	0	838.940	0	-1e10	8	-1e10	8	-1E+10	1	-1E+10	1	-1E+10	1	-1E+10	1	-1E+10	1	-1E+10	1
4902554	54	C	08/03/2022	03:01	-133.993	49.689	0	852.80	0	3.3250	0	34.3070	0	27.307	0	843.778	0	-1e10	8	-1e10	8	-1E+10	1	-1E+10	1	-1E+10	1	-1E+10	1	-1E+10	1	-1E+10	1
4902554	54	C	08/03/2022	03:01	-133.993	49.689	0	857.70	0	3.3210	0	34.3080	0	27.309	0	848.617	0	-1e10	8	-1e10	8	-1E+10	1	-1E+10	1	-1E+10	1	-1E+10	1	-1E+10	1	-1E+10	1
4902554	54	C	08/03/2022	03:01	-133.993	49.689	0	863.00	0	3.3040	0	34.3120	0	27.313	0	853.850	0	-1e10	8	-1e10	8	-1E+10	1	-1E+10	1	-1E+10	1	-1E+10	1	-1E+10	1	-1E+10	1
4902554	54	C	08/03/2022	03:01	-133.993	49.689	0	868.00	0	3.2990	0	34.3160	0	27.317	0	858.786	0	-1e10	8	-1e10	8	-1E+10	1	-1E+10	1	-1E+10	1	-1E+10	1	-1E+10	1	-1E+10	1
4902554	54	C	08/03/2022	03:01	-133.993	49.689	0	873.00	0	3.2810	0	34.3180	0	27.320	0	863.723	0	-1e10	8	-1e10	8	-1E+10	1	-1E+10	1	-1E+10	1	-1E+10	1	-1E+10	1	-1E+10	1
4902554	54	C	08/03/2022	03:01	-133.993	49.689	0	878.10	0	3.2570	0	34.3200	0	27.324	0	868.758	0	-1e10	8	-1e10	8	-1E+10	1	-1E+10	1	-1E+10	1	-1E+10	1	-1E+10	1	-1E+10	1
4902554	54	C	08/03/2022	03:01	-133.993	49.689	0	882.80	0	3.2380	0	34.3240	0	27.329	0	873.398	0	-1e10	8	-1e10	8	-1E+10	1	-1E+10	1	-1E+10	1	-1E+10	1	-1E+10	1	-1E+10	1
4902554	54	C	08/03/2022	03:01	-133.993	49.689	0	887.60	0	3.2310	0	34.3260	0	27.331	0	878.137	0	-1e10	8	-1e10	8	-1E+10	1	-1E+10	1	-1E+10	1	-1E+10	1	-1E+10	1	-1E+10	1
4902554	54	C	08/03/2022	03:01	-133.993	49.689	0	892.50	0	3.2190	0	34.3290	0	27.335	0	882.975	0	-1e10	8	-1e10	8	-1E+10	1	-1E+10	1	-1E+10	1	-1E+10	1	-1E+10	1	-1E+10	1
4902554	54	C	08/03/2022	03:01	-133.993	49.689	0	897.90	0	3.2100	0	34.3300	0	27.337	0	888.306	0	-1e10	8	-1e10	8	-1E+10	1	-1E+10	1	-1E+10	1	-1E+10	1	-1E+10	1	-1E+10	1
4902554	54	C	08/03/2022	03:01	-133.993	49.689	0	903.40	0	3.1960	0	34.3330	0	27.340	0	893.735	0	-1e10	8	-1e10	8	-1E+10	1	-1E+10	1	-1E+10	1	-1E+10	1	-1E+10	1	-1E+10	1
4902554	54	C	08/03/2022	03:01	-133.993	49.689	0	908.30	0	3.1800	0	34.3360	0	27.344	0	898.572	0	-1e10	8	-1e10	8	-1E+10	1	-1E+10	1	-1E+10	1	-1E+10	1	-1E+10	1	-1E+10	1
4902554	54	C	08/03/2022	03:01	-133.993	49.689	0	913.40	0	3.1760	0	34.3370	0	27.345	0	903.607	0	-1e10	8	-1e10	8	-1E+10	1	-1E+10	1	-1E+10	1	-1E+10	1	-1E+10	1	-1E+10	1
4902554	54	C	08/03/2022	03:01	-133.993	49.689	0	918.10	0	3.1630	0	34.3390	0	27.348	0	908.246	0	-1e10	8	-1e10	8	-1E+10	1	-1E+10	1	-1E+10	1	-1E+10	1	-1E+10	1	-1E+10	1
4902554	54	C	08/03/2022	03:01	-133.993	49.689	0	922.80	0	3.1540	0	34.3410	0	27.351	0	912.885	0	-1e10	8	-1e10	8	-1E+10	1	-1E+10	1	-1E+10	1	-1E+10	1	-1E+10	1	-1E+10	1
4902554	54	C	08/03/2022	03:01	-133.993	49.689	0	927.80	0	3.1330	0	34.3450	0	27.356	0	917.821	0	-1e10	8	-1e10	8	-1E+10	1	-1E+10	1	-1E+10	1	-1E+10	1	-1E+10	1	-1E+10	1
4902554	54	C	08/03/2022	03:01	-133.993	49.689	0	932.90	0	3.1220	0	34.3470	0	27.359	0	922.855	0	-1e10	8	-1e10	8	-1E+10	1	-1E+10	1	-1E+10	1	-1E+10	1	-1E+10	1	-1E+10	1
4902554	54	C	08/03/2022	03:01	-133.993	49.689	0	938.20	0	3.1050	0	34.3500	0	27.363	0	928.086	0	-1e10	8	-1e10	8	-1E+10	1	-1E+10	1	-1E+10	1	-1E+10	1	-1E+10	1	-1E+10	1
4902554	54	C	08/03/2022	03:01	-133.993	49.689	0	942.90	0	3.0960	0	34.3530	0	27.366	0	932.725	0	-1e10	8	-1e10	8	-1E+10	1	-1E+10	1	-1E+10	1	-1E+10	1	-1E+10	1	-1E+10	1
4902554	54	C	08/03/2022	03:01	-133.993	49.689	0	947.60	0	3.0830	0	34.3550	0	27.369	0	937.363	0	-1e10	8	-1e10	8	-1E+10	1	-1E+10	1	-1E+10	1	-1E+10	1	-1E+10	1	-1E+10	1
4902554	54	C	08/03/2022	03:01	-133.993	49.689	0	952.90	0	3.0680	0	34.3590	0	27.373	0	942.594	0	-1e10	8	-1e10	8	-1E+10	1	-1E+10	1	-1E+10	1	-1E+10	1	-1E+10	1	-1E+10	1
4902554	54	C	08/03/2022	03:01	-133.993	49.689	0	957.90	0	3.0510	0	34.3630	0	27.378	0	947.529	0	-1e10	8	-1e10	8	-1E+10	1	-1E+10	1	-1E+10	1	-1E+10	1	-1E+10	1	-1E+10	1
4902554	54	C	08/03/2022	03:01	-133.993	49.689	0	963.00	0	3.0450	0	34.3640	0	27.379	0	952.562	0	-1e10	8	-1e10	8	-1E+10	1	-1E+10	1	-1E+10	1	-1E+10	1	-1E+10	1	-1E+10	1
4902554	54	C	08/03/2022	03:01	-133.993	49.689	0	968.20	0	3.0370	0	34.3660	0	27.382	0	957.694	0	-1e10	8	-1e10	8	-1E+10	1	-1E+10	1	-1E+10	1	-1E+10	1	-1E+10	1	-1E+10	1
4902554	54	C	08/03/2022	03:01	-133.993	49.689	0	972.90	0	3.0320	0	34.3670	0	27.383	0	962.332	0	-1e10	8	-1e10	8	-1E+10	1	-1E+10	1	-1E+10	1	-1E+10	1	-1E+10	1	-1E+10	1
4902554	54	C	08/03/2022	03:01	-133.993	49.689	0	977.80	0	3.0240	0	34.3690	0	27.385	0	967.167	0	-1e10	8	-1e10	8	-1E+10	1	-1E+10	1	-1E+10	1	-1E+10	1	-1E+10	1	-1E+10	1
4902554	54	C	08/03/2022	03:01	-133.993	49.689	0	982.70	0	3.0210	0	34.3700	0	27.386	0	972.003	0	-1e10	8	-1e10	8	-1E+10	1	-1E+10	1	-1E+10	1	-1E+10	1	-1E+10	1	-1E+10	1
4902554	54	C	08/03/2022	03:01	-133.993	49.689	0	987.70	0	3.0180	0	34.3700	0	27.387	0	976.937	0	-1e10	8	-1e10	8	-1E+10	1	-1E+10	1	-1E+10	1	-1E+10	1	-1E+10	1	-1E+10	1
4902554	54	C	08/03/2022	03:01	-133.993	49.689	0	992.70	0	3.0140	0	34.3710	0	27.388	0	981.870	0	-1e10	8	-1e10	8	-1E+10	1	-1E+10	1	-1E+10	1	-1E+10	1	-1E+10	1	-1E+10	1
4902554	54	C	08/03/2022	03:01	-133.993	49.689	0	997.70	0	3.0070	0	34.3730	0	27.390	0	986.804	0	-1e10	8	-1e10	8	-1E+10	1	-1E+10	1	-1E+10	1	-1E+10	1	-1E+10	1	-1E+10	1
4902554	54	C	08/03/2022	03:01	-133.993	49.689	0	1005.30	0	2.9980	0	34.3750	0	27.393	0	994.303	0	-1e10	8	-1e10	8	-1E+10	1	-1E+10	1	-1E+10	1	-1E+10	1	-1E+10	1	-1E+10	1
4902554	54	C	08/03/2022	03:01	-133.993	49.689	0	1015.60	0	2.9870	0	34.3770	0	27.395	0	1004.466	0	-1e10	8	-1e10	8	-1E+10	1	-1E+10	1	-1E+10	1	-1E+10	1	-1E+10	1	-1E+10	1
4902554	54	C	08/03/2022	03:01	-133.993	49.689	0	1025.80	0	2.9770	0	34.3790	0	27.398	0	1014.529	0	-1e10	8	-1e10	8	-1E+10	1	-1E+10	1	-1E+10	1	-1E+10	1	-1E+10	1	-1E+10	1
4902554	54	C	08/03/2022	03:01	-133.993	49.689	0	1035.50	0	2.9660	0	34.3820	0	27.401	0	1024.099	0	-1e10	8	-1e10	8	-1E+10	1	-1E+10	1	-1E+10	1	-1E+10	1	-1E+10	1	-1E+10	1
4902554	54	C	08/03/2022	03:01	-133.993	49.689	0	1045.30	0	2.9520	0	34.3850	0	27.405	0	1033.767	0	-1e10	8	-1e10	8	-1E+10	1	-1E+10	1	-1E+10	1	-1E+10	1	-1E+10	1	-1E+10	1
4902554	54	C	08/03/2022	03:01	-133.993	49.689	0	1055.60	0	2.9410	0	34.3870	0	27.408	0	1043.928	0	-1e10	8	-1e10	8	-1E+10	1	-1E+10	1	-1E+10	1	-1E+10	1	-1E+10	1	-1E+10	1
4902554	54	C	08/03/2022	03:01	-133.993	49.689	0	1065.40	0	2.9220	0	34.3920	0	27.413	0	1053.595	0	-1e10	8	-1e10	8	-1E+10	1	-1E+10	1	-1E+10	1	-1E+10	1	-1E+10	1	-1E+10	1
4902554	54	C	08/03/2022	03:01	-133.993	49.689	0	1075.20	0	2.9130	0	34.3940	0	27.416	0	1063.261	0	-1e10	8	-1e10	8	-1E+10	1	-1E+10	1	-1E+10	1	-1E+10	1	-1E+10	1	-1E+10	1
4902554	54	C	08/03/2022	03:01	-133.993	49.689	0	1085.60	0	2.9030	0	34.3970	0	27.419	0	1073.519	0	-1e10	8	-1e10	8	-1E+10	1	-1E+10	1	-1E+10	1	-1E+10	1	-1E+10	1	-1E+10	1
4902554	54	C	08/03/2022	03:01	-133.993	49.689	0	1095.50	0	2.8950	0	34.3990	0	27.421	0	1083.284	0	-1e10	8	-1e10	8	-1E+10	1	-1E+10	1	-1E+10	1	-1E+10	1	-1E+10	1	-1E+10	1
4902554	54	C	08/03/2022	03:01	-133.993	49.689	0	1105.30	0	2.8880	0	34.4000	0	27.423	0	1092.949	0	-1e10	8	-1e10	8	-1E+10	1	-1E+10	1	-1E+10	1	-1E+10	1	-1E+10	1	-1E+10	1
4902554	54	C	08/03/2022	03:01	-133.993	49.689	0	1115.30	0	2.8740	0	34.4030	0	27.427	0	1102.811	0	-1e10	8	-1e10	8	-1E+10	1	-1E+10	1	-1E+10	1	-1E+10	1	-1E+10	1	-1E+10	1
4902554	54	C	08/03/2022	03:01	-133.993	49.689	0	1125.70	0	2.8540	0	34.4070	0	27.432	0	1113.067	0	-1e10	8	-1e10	8	-1E+10	1	-1E+10	1	-1E+10	1	-1E+10	1	-1E+10	1	-1E+10	1
4902554	54	C	08/03/2022	03:01	-133.993	49.689	0	1135.60	0	2.8340	0	34.4100	0	27.436	0	1122.829	0	-1e10	8	-1e10	8	-1E+10	1	-1E+10	1	-1E+10	1	-1E+10	1	-1E+10	1	-1E+10	1
4902554	54	C	08/03/2022	03:01	-133.993	49.689	0	1145.30	0	2.8120	0	34.4140	0	27.441	0	1132.394	0	-1e10	8	-1e10	8	-1E+10	1	-1E+10	1	-1E+10	1	-1E+10	1	-1E+10	1	-1E+10	1
4902554	54	C	08/03/2022	03:01	-133.993	49.689	0	1155.50	0	2.7930	0	34.4180	0	27.446	0	1142.451	0	-1e10	8	-1e10	8	-1E+10	1	-1E+10	1	-1E+10	1	-1E+10	1	-1E+10	1	-1E+10	1
4902554	54	C	08/03/2022	03:01	-133.993	49.689	0	1165.80	0	2.7680	0	34.4220	0	27.451	0	1152.607	0	-1e10	8	-1e10	8	-1E+10	1	-1E+10	1	-1E+10	1	-1E+10	1	-1E+10	1	-1E+10	1
4902554	54	C	08/03/2022	03:01	-133.993	49.689	0	1175.50	0	2.7490	0	34.4260	0	27.456	0	1162.170	0	-1e10	8	-1e10	8	-1E+10	1	-1E+10	1	-1E+10	1	-1E+10	1	-1E+10	1	-1E+10	1
4902554	54	C	08/03/2022	03:01	-133.993	49.689	0	1185.50	0	2.7340	0	34.4280	0	27.459	0	1172.029	0	-1e10	8	-1e10	8	-1E+10	1	-1E+10	1	-1E+10	1	-1E+10	1	-1E+10	1	-1E+10	1
4902554	54	C	08/03/2022	03:01	-133.993	49.689	0	1195.70	0	2.7150	0	34.4320	0	27.464	0	1182.084	0	-1e10	8	-1e10	8	-1E+10	1	-1E+10	1	-1E+10	1	-1E+10	1	-1E+10	1	-1E+10	1
4902554	54	C	08/03/2022	03:01	-133.993	49.689	0	1205.70	0	2.7050	0	34.4340	0	27.467	0	1191.942	0	-1e10	8	-1e10	8	-1E+10	1	-1E+10	1	-1E+10	1	-1E+10	1	-1E+10	1	-1E+10	1
4902554	54	C	08/03/2022	03:01	-133.993	49.689	0	1215.80	0	2.6980	0	34.4350	0	27.468	0	1201.898	0	-1e10	8	-1e10	8	-1E+10	1	-1E+10	1	-1E+10	1	-1E+10	1	-1E+10	1	-1E+10	1
4902554	54	C	08/03/2022	03:01	-133.993	49.689	0	1225.50	0	2.6890	0	34.4370	0	27.471	0	1211.459	0	-1e10	8	-1e10	8	-1E+10	1	-1E+10	1	-1E+10	1	-1E+10	1	-1E+10	1	-1E+10	1
4902554	54	C	08/03/2022	03:01	-133.993	49.689	0	1235.50	0	2.6790	0	34.4390	0	27.473	0	1221.316	0	-1e10	8	-1e10	8	-1E+10	1	-1E+10	1	-1E+10	1	-1E+10	1	-1E+10	1	-1E+10	1
4902554	54	C	08/03/2022	03:01	-133.993	49.689	0	1245.50	0	2.6700	0	34.4410	0	27.476	0	1231.172	0	-1e10	8	-1e10	8	-1E+10	1	-1E+10	1	-1E+10	1	-1E+10	1	-1E+10	1	-1E+10	1
4902554	54	C	08/03/2022	03:01	-133.993	49.689	0	1255.30	0	2.6580	0	34.4440	0	27.479	0	1240.830	0	-1e10	8	-1e10	8	-1E+10	1	-1E+10	1	-1E+10	1	-1E+10	1	-1E+10	1	-1E+10	1
4902554	54	C	08/03/2022	03:01	-133.993	49.689	0	1265.50	0	2.6390	0	34.4470	0	27.483	0	1250.882	0	-1e10	8	-1e10	8	-1E+10	1	-1E+10	1	-1E+10	1	-1E+10	1	-1E+10	1	-1E+10	1
4902554	54	C	08/03/2022	03:01	-133.993	49.689	0	1275.70	0	2.6180	0	34.4500	0	27.487	0	1260.934	0	-1e10	8	-1e10	8	-1E+10	1	-1E+10	1	-1E+10	1	-1E+10	1	-1E+10	1	-1E+10	1
4902554	54	C	08/03/2022	03:01	-133.993	49.689	0	1285.40	0	2.6050	0	34.4530	0	27.491	0	1270.492	0	-1e10	8	-1e10	8	-1E+10	1	-1E+10	1	-1E+10	1	-1E+10	1	-1E+10	1	-1E+10	1
4902554	54	C	08/03/2022	03:01	-133.993	49.689	0	1295.50	0	2.5930	0	34.4550	0	27.494	0	1280.445	0	-1e10	8	-1e10	8	-1E+10	1	-1E+10	1	-1E+10	1	-1E+10	1	-1E+10	1	-1E+10	1
4902554	54	C	08/03/2022	03:01	-133.993	49.689	0	1305.50	0	2.5790	0	34.4580	0	27.497	0	1290.298	0	-1e10	8	-1e10	8	-1E+10	1	-1E+10	1	-1E+10	1	-1E+10	1	-1E+10	1	-1E+10	1
4902554	54	C	08/03/2022	03:01	-133.993	49.689	0	1315.10	0	2.5730	0	34.4610	0	27.500	0	1299.756	0	-1e10	8	-1e10	8	-1E+10	1	-1E+10	1	-1E+10	1	-1E+10	1	-1E+10	1	-1E+10	1
4902554	54	C	08/03/2022	03:01	-133.993	49.689	0	1325.30	0	2.5630	0	34.4630	0	27.503	0	1309.806	0	-1e10	8	-1e10	8	-1E+10	1	-1E+10	1	-1E+10	1	-1E+10	1	-1E+10	1	-1E+10	1
4902554	54	C	08/03/2022	03:01	-133.993	49.689	0	1335.60	0	2.5470	0	34.4660	0	27.507	0	1319.953	0	-1e10	8	-1e10	8	-1E+10	1	-1E+10	1	-1E+10	1	-1E+10	1	-1E+10	1	-1E+10	1
4902554	54	C	08/03/2022	03:01	-133.993	49.689	0	1345.40	0	2.5310	0	34.4680	0	27.510	0	1329.607	0	-1e10	8	-1e10	8	-1E+10	1	-1E+10	1	-1E+10	1	-1E+10	1	-1E+10	1	-1E+10	1
4902554	54	C	08/03/2022	03:01	-133.993	49.689	0	1355.20	0	2.5170	0	34.4720	0	27.514	0	1339.261	0	-1e10	8	-1e10	8	-1E+10	1	-1E+10	1	-1E+10	1	-1E+10	1	-1E+10	1	-1E+10	1
4902554	54	C	08/03/2022	03:01	-133.993	49.689	0	1365.10	0	2.5080	0	34.4750	0	27.517	0	1349.013	0	-1e10	8	-1e10	8	-1E+10	1	-1E+10	1	-1E+10	1	-1E+10	1	-1E+10	1	-1E+10	1
4902554	54	C	08/03/2022	03:01	-133.993	49.689	0	1375.40	0	2.4910	0	34.4780	0	27.521	0	1359.158	0	-1e10	8	-1e10	8	-1E+10	1	-1E+10	1	-1E+10	1	-1E+10	1	-1E+10	1	-1E+10	1
4902554	54	C	08/03/2022	03:01	-133.993	49.689	0	1385.40	0	2.4770	0	34.4810	0	27.525	0	1369.008	0	-1e10	8	-1e10	8	-1E+10	1	-1E+10	1	-1E+10	1	-1E+10	1	-1E+10	1	-1E+10	1
4902554	54	C	08/03/2022	03:01	-133.993	49.689	0	1395.40	0	2.4650	0	34.4840	0	27.528	0	1378.857	0	-1e10	8	-1e10	8	-1E+10	1	-1E+10	1	-1E+10	1	-1E+10	1	-1E+10	1	-1E+10	1
4902554	54	C	08/03/2022	03:01	-133.993	49.689	0	1405.20	0	2.4490	0	34.4870	0	27.532	0	1388.508	0	-1e10	8	-1e10	8	-1E+10	1	-1E+10	1	-1E+10	1	-1E+10	1	-1E+10	1	-1E+10	1
4902554	54	C	08/03/2022	03:01	-133.993	49.689	0	1415.20	0	2.4320	0	34.4900	0	27.536	0	1398.357	0	-1e10	8	-1e10	8	-1E+10	1	-1E+10	1	-1E+10	1	-1E+10	1	-1E+10	1	-1E+10	1
4902554	54	C	08/03/2022	03:01	-133.993	49.689	0	1425.40	0	2.4210	0	34.4920	0	27.538	0	1408.401	0	-1e10	8	-1e10	8	-1E+10	1	-1E+10	1	-1E+10	1	-1E+10	1	-1E+10	1	-1E+10	1
4902554	54	C	08/03/2022	03:01	-133.993	49.689	0	1435.70	0	2.4070	0	34.4940	0	27.541	0	1418.544	0	-1e10	8	-1e10	8	-1E+10	1	-1E+10	1	-1E+10	1	-1E+10	1	-1E+10	1	-1E+10	1
4902554	54	C	08/03/2022	03:01	-133.993	49.689	0	1445.40	0	2.3910	0	34.4970	0	27.545	0	1428.095	0	-1e10	8	-1e10	8	-1E+10	1	-1E+10	1	-1E+10	1	-1E+10	1	-1E+10	1	-1E+10	1
4902554	54	C	08/03/2022	03:01	-133.993	49.689	0	1455.50	0	2.3790	0	34.4990	0	27.548	0	1438.040	0	-1e10	8	-1e10	8	-1E+10	1	-1E+10	1	-1E+10	1	-1E+10	1	-1E+10	1	-1E+10	1
4902554	54	C	08/03/2022	03:01	-133.993	49.689	0	1465.90	0	2.3590	0	34.5030	0	27.552	0	1448.279	0	-1e10	8	-1e10	8	-1E+10	1	-1E+10	1	-1E+10	1	-1E+10	1	-1E+10	1	-1E+10	1
4902554	54	C	08/03/2022	03:01	-133.993	49.689	0	1475.50	0	2.3430	0	34.5060	0	27.556	0	1457.731	0	-1e10	8	-1e10	8	-1E+10	1	-1E+10	1	-1E+10	1	-1E+10	1	-1E+10	1	-1E+10	1
4902554	54	C	08/03/2022	03:01	-133.993	49.689	0	1485.40	0	2.3360	0	34.5070	0	27.558	0	1467.477	0	-1e10	8	-1e10	8	-1E+10	1	-1E+10	1	-1E+10	1	-1E+10	1	-1E+10	1	-1E+10	1
4902554	54	C	08/03/2022	03:01	-133.993	49.689	0	1495.60	0	2.3240	0	34.5100	0	27.561	0	1477.519	0	-1e10	8	-1e10	8	-1E+10	1	-1E+10	1	-1E+10	1	-1E+10	1	-1E+10	1	-1E+10	1
4902554	54	C	08/03/2022	03:01	-133.993	49.689	0	1505.50	0	2.3070	0	34.5130	0	27.565	0	1487.264	0	-1e10	8	-1e10	8	-1E+10	1	-1E+10	1	-1E+10	1	-1E+10	1	-1E+10	1	-1E+10	1
4902554	54	C	08/03/2022	03:01	-133.993	49.689	0	1515.30	0	2.2930	0	34.5160	0	27.569	0	1496.911	0	-1e10	8	-1e10	8	-1E+10	1	-1E+10	1	-1E+10	1	-1E+10	1	-1E+10	1	-1E+10	1
4902554	54	C	08/03/2022	03:01	-133.993	49.689	0	1525.40	0	2.2880	0	34.5170	0	27.570	0	1506.852	0	-1e10	8	-1e10	8	-1E+10	1	-1E+10	1	-1E+10	1	-1E+10	1	-1E+10	1	-1E+10	1
4902554	54	C	08/03/2022	03:01	-133.993	49.689	0	1535.40	0	2.2830	0	34.5180	0	27.571	0	1516.695	0	-1e10	8	-1e10	8	-1E+10	1	-1E+10	1	-1E+10	1	-1E+10	1	-1E+10	1	-1E+10	1
4902554	54	C	08/03/2022	03:01	-133.993	49.689	0	1545.30	0	2.2730	0	34.5200	0	27.574	0	1526.438	0	-1e10	8	-1e10	8	-1E+10	1	-1E+10	1	-1E+10	1	-1E+10	1	-1E+10	1	-1E+10	1
4902554	54	C	08/03/2022	03:01	-133.993	49.689	0	1555.30	0	2.2610	0	34.5230	0	27.577	0	1536.280	0	-1e10	8	-1e10	8	-1E+10	1	-1E+10	1	-1E+10	1	-1E+10	1	-1E+10	1	-1E+10	1
4902554	54	C	08/03/2022	03:01	-133.993	49.689	0	1565.20	0	2.2490	0	34.5250	0	27.580	0	1546.023	0	-1e10	8	-1e10	8	-1E+10	1	-1E+10	1	-1E+10	1	-1E+10	1	-1E+10	1	-1E+10	1
4902554	54	C	08/03/2022	03:01	-133.993	49.689	0	1575.10	0	2.2350	0	34.5270	0	27.582	0	1555.765	0	-1e10	8	-1e10	8	-1E+10	1	-1E+10	1	-1E+10	1	-1E+10	1	-1E+10	1	-1E+10	1
4902554	54	C	08/03/2022	03:01	-133.993	49.689	0	1585.20	0	2.2300	0	34.5280	0	27.584	0	1565.704	0	-1e10	8	-1e10	8	-1E+10	1	-1E+10	1	-1E+10	1	-1E+10	1	-1E+10	1	-1E+10	1
4902554	54	C	08/03/2022	03:01	-133.993	49.689	0	1595.20	0	2.2220	0	34.5300	0	27.586	0	1575.544	0	-1e10	8	-1e10	8	-1E+10	1	-1E+10	1	-1E+10	1	-1E+10	1	-1E+10	1	-1E+10	1
4902554	54	C	08/03/2022	03:01	-133.993	49.689	0	1605.60	0	2.2190	0	34.5300	0	27.586	0	1585.777	0	-1e10	8	-1e10	8	-1E+10	1	-1E+10	1	-1E+10	1	-1E+10	1	-1E+10	1	-1E+10	1
4902554	54	C	08/03/2022	03:01	-133.993	49.689	0	1615.50	0	2.2110	0	34.5320	0	27.589	0	1595.517	0	-1e10	8	-1e10	8	-1E+10	1	-1E+10	1	-1E+10	1	-1E+10	1	-1E+10	1	-1E+10	1
4902554	54	C	08/03/2022	03:01	-133.993	49.689	0	1625.10	0	2.1990	0	34.5340	0	27.591	0	1604.962	0	-1e10	8	-1e10	8	-1E+10	1	-1E+10	1	-1E+10	1	-1E+10	1	-1E+10	1	-1E+10	1
4902554	54	C	08/03/2022	03:01	-133.993	49.689	0	1635.20	0	2.1830	0	34.5370	0	27.595	0	1614.898	0	-1e10	8	-1e10	8	-1E+10	1	-1E+10	1	-1E+10	1	-1E+10	1	-1E+10	1	-1E+10	1
4902554	54	C	08/03/2022	03:01	-133.993	49.689	0	1645.60	0	2.1720	0	34.5400	0	27.598	0	1625.129	0	-1e10	8	-1e10	8	-1E+10	1	-1E+10	1	-1E+10	1	-1E+10	1	-1E+10	1	-1E+10	1
4902554	54	C	08/03/2022	03:01	-133.993	49.689	0	1655.60	0	2.1620	0	34.5410	0	27.600	0	1634.966	0	-1e10	8	-1e10	8	-1E+10	1	-1E+10	1	-1E+10	1	-1E+10	1	-1E+10	1	-1E+10	1
4902554	54	C	08/03/2022	03:01	-133.993	49.689	0	1665.60	0	2.1530	0	34.5430	0	27.602	0	1644.803	0	-1e10	8	-1e10	8	-1E+10	1	-1E+10	1	-1E+10	1	-1E+10	1	-1E+10	1	-1E+10	1
4902554	54	C	08/03/2022	03:01	-133.993	49.689	0	1675.60	0	2.1460	0	34.5450	0	27.604	0	1654.639	0	-1e10	8	-1e10	8	-1E+10	1	-1E+10	1	-1E+10	1	-1E+10	1	-1E+10	1	-1E+10	1
4902554	54	C	08/03/2022	03:01	-133.993	49.689	0	1685.50	0	2.1390	0	34.5460	0	27.606	0	1664.376	0	-1e10	8	-1e10	8	-1E+10	1	-1E+10	1	-1E+10	1	-1E+10	1	-1E+10	1	-1E+10	1
4902554	54	C	08/03/2022	03:01	-133.993	49.689	0	1695.60	0	2.1300	0	34.5480	0	27.608	0	1674.310	0	-1e10	8	-1e10	8	-1E+10	1	-1E+10	1	-1E+10	1	-1E+10	1	-1E+10	1	-1E+10	1
4902554	54	C	08/03/2022	03:01	-133.993	49.689	0	1705.20	0	2.1240	0	34.5490	0	27.610	0	1683.751	0	-1e10	8	-1e10	8	-1E+10	1	-1E+10	1	-1E+10	1	-1E+10	1	-1E+10	1	-1E+10	1
4902554	54	C	08/03/2022	03:01	-133.993	49.689	0	1715.30	0	2.1200	0	34.5500	0	27.611	0	1693.684	0	-1e10	8	-1e10	8	-1E+10	1	-1E+10	1	-1E+10	1	-1E+10	1	-1E+10	1	-1E+10	1
4902554	54	C	08/03/2022	03:01	-133.993	49.689	0	1725.40	0	2.1150	0	34.5510	0	27.612	0	1703.616	0	-1e10	8	-1e10	8	-1E+10	1	-1E+10	1	-1E+10	1	-1E+10	1	-1E+10	1	-1E+10	1
4902554	54	C	08/03/2022	03:01	-133.993	49.689	0	1735.40	0	2.1110	0	34.5520	0	27.613	0	1713.450	0	-1e10	8	-1e10	8	-1E+10	1	-1E+10	1	-1E+10	1	-1E+10	1	-1E+10	1	-1E+10	1
4902554	54	C	08/03/2022	03:01	-133.993	49.689	0	1745.30	0	2.1060	0	34.5530	0	27.614	0	1723.184	0	-1e10	8	-1e10	8	-1E+10	1	-1E+10	1	-1E+10	1	-1E+10	1	-1E+10	1	-1E+10	1
4902554	54	C	08/03/2022	03:01	-133.993	49.689	0	1755.50	0	2.0960	0	34.5550	0	27.617	0	1733.213	0	-1e10	8	-1e10	8	-1E+10	1	-1E+10	1	-1E+10	1	-1E+10	1	-1E+10	1	-1E+10	1
4902554	54	C	08/03/2022	03:01	-133.993	49.689	0	1765.30	0	2.0840	0	34.5570	0	27.619	0	1742.849	0	-1e10	8	-1e10	8	-1E+10	1	-1E+10	1	-1E+10	1	-1E+10	1	-1E+10	1	-1E+10	1
4902554	54	C	08/03/2022	03:01	-133.993	49.689	0	1775.20	0	2.0730	0	34.5600	0	27.623	0	1752.582	0	-1e10	8	-1e10	8	-1E+10	1	-1E+10	1	-1E+10	1	-1E+10	1	-1E+10	1	-1E+10	1
4902554	54	C	08/03/2022	03:01	-133.993	49.689	0	1785.40	0	2.0620	0	34.5620	0	27.625	0	1762.610	0	-1e10	8	-1e10	8	-1E+10	1	-1E+10	1	-1E+10	1	-1E+10	1	-1E+10	1	-1E+10	1
4902554	54	C	08/03/2022	03:01	-133.993	49.689	0	1795.30	0	2.0530	0	34.5630	0	27.627	0	1772.342	0	-1e10	8	-1e10	8	-1E+10	1	-1E+10	1	-1E+10	1	-1E+10	1	-1E+10	1	-1E+10	1
4902554	54	C	08/03/2022	03:01	-133.993	49.689	0	1805.10	0	2.0440	0	34.5650	0	27.629	0	1781.976	0	-1e10	8	-1e10	8	-1E+10	1	-1E+10	1	-1E+10	1	-1E+10	1	-1E+10	1	-1E+10	1
4902554	54	C	08/03/2022	03:01	-133.993	49.689	0	1815.10	0	2.0370	0	34.5660	0	27.631	0	1791.805	0	-1e10	8	-1e10	8	-1E+10	1	-1E+10	1	-1E+10	1	-1E+10	1	-1E+10	1	-1E+10	1
4902554	54	C	08/03/2022	03:01	-133.993	49.689	0	1825.20	0	2.0290	0	34.5680	0	27.633	0	1801.733	0	-1e10	8	-1e10	8	-1E+10	1	-1E+10	1	-1E+10	1	-1E+10	1	-1E+10	1	-1E+10	1
4902554	54	C	08/03/2022	03:01	-133.993	49.689	0	1835.50	0	2.0230	0	34.5690	0	27.634	0	1811.857	0	-1e10	8	-1e10	8	-1E+10	1	-1E+10	1	-1E+10	1	-1E+10	1	-1E+10	1	-1E+10	1
4902554	54	C	08/03/2022	03:01	-133.993	49.689	0	1845.50	0	2.0170	0	34.5710	0	27.636	0	1821.685	0	-1e10	8	-1e10	8	-1E+10	1	-1E+10	1	-1E+10	1	-1E+10	1	-1E+10	1	-1E+10	1
4902554	54	C	08/03/2022	03:01	-133.993	49.689	0	1855.20	0	2.0110	0	34.5720	0	27.638	0	1831.218	0	-1e10	8	-1e10	8	-1E+10	1	-1E+10	1	-1E+10	1	-1E+10	1	-1E+10	1	-1E+10	1
4902554	54	C	08/03/2022	03:01	-133.993	49.689	0	1865.10	0	2.0010	0	34.5740	0	27.640	0	1840.947	0	-1e10	8	-1e10	8	-1E+10	1	-1E+10	1	-1E+10	1	-1E+10	1	-1E+10	1	-1E+10	1
4902554	54	C	08/03/2022	03:01	-133.993	49.689	0	1875.20	0	1.9940	0	34.5750	0	27.642	0	1850.873	0	-1e10	8	-1e10	8	-1E+10	1	-1E+10	1	-1E+10	1	-1E+10	1	-1E+10	1	-1E+10	1
4902554	54	C	08/03/2022	03:01	-133.993	49.689	0	1885.40	0	1.9850	0	34.5770	0	27.644	0	1860.896	0	-1e10	8	-1e10	8	-1E+10	1	-1E+10	1	-1E+10	1	-1E+10	1	-1E+10	1	-1E+10	1
4902554	54	C	08/03/2022	03:01	-133.993	49.689	0	1895.20	0	1.9810	0	34.5780	0	27.645	0	1870.525	0	-1e10	8	-1e10	8	-1E+10	1	-1E+10	1	-1E+10	1	-1E+10	1	-1E+10	1	-1E+10	1
4902554	54	C	08/03/2022	03:01	-133.993	49.689	0	1905.10	0	1.9780	0	34.5780	0	27.645	0	1880.253	0	-1e10	8	-1e10	8	-1E+10	1	-1E+10	1	-1E+10	1	-1E+10	1	-1E+10	1	-1E+10	1
4902554	54	C	08/03/2022	03:01	-133.993	49.689	0	1915.60	0	1.9720	0	34.5800	0	27.647	0	1890.569	0	-1e10	8	-1e10	8	-1E+10	1	-1E+10	1	-1E+10	1	-1E+10	1	-1E+10	1	-1E+10	1
4902554	54	C	08/03/2022	03:01	-133.993	49.689	0	1925.80	0	1.9700	0	34.5800	0	27.648	0	1900.590	0	-1e10	8	-1e10	8	-1E+10	1	-1E+10	1	-1E+10	1	-1E+10	1	-1E+10	1	-1E+10	1
4902554	54	C	08/03/2022	03:01	-133.993	49.689	0	1935.10	0	1.9630	0	34.5820	0	27.650	0	1909.727	0	-1e10	8	-1e10	8	-1E+10	1	-1E+10	1	-1E+10	1	-1E+10	1	-1E+10	1	-1E+10	1
4902554	54	C	08/03/2022	03:01	-133.993	49.689	0	1945.00	0	1.9540	0	34.5830	0	27.651	0	1919.452	0	-1e10	8	-1e10	8	-1E+10	1	-1E+10	1	-1E+10	1	-1E+10	1	-1E+10	1	-1E+10	1
4902554	54	C	08/03/2022	03:01	-133.993	49.689	0	1955.10	0	1.9500	0	34.5840	0	27.653	0	1929.374	0	-1e10	8	-1e10	8	-1E+10	1	-1E+10	1	-1E+10	1	-1E+10	1	-1E+10	1	-1E+10	1
4902554	54	C	08/03/2022	03:01	-133.993	49.689	0	1965.30	0	1.9450	0	34.5850	0	27.654	0	1939.394	0	-1e10	8	-1e10	8	-1E+10	1	-1E+10	1	-1E+10	1	-1E+10	1	-1E+10	1	-1E+10	1
4902554	54	C	08/03/2022	03:01	-133.993	49.689	0	1975.60	0	1.9390	0	34.5860	0	27.655	0	1949.511	0	-1e10	8	-1e10	8	-1E+10	1	-1E+10	1	-1E+10	1	-1E+10	1	-1E+10	1	-1E+10	1
4902554	54	C	08/03/2022	03:01	-133.993	49.689	0	1985.50	0	1.9300	0	34.5880	0	27.657	0	1959.234	0	-1e10	8	-1e10	8	-1E+10	1	-1E+10	1	-1E+10	1	-1E+10	1	-1E+10	1	-1E+10	1
4902554	54	C	08/03/2022	03:01	-133.993	49.689	0	1995.30	0	1.9250	0	34.5890	0	27.659	0	1968.860	0	-1e10	8	-1e10	8	-1E+10	1	-1E+10	1	-1E+10	1	-1E+10	1	-1E+10	1	-1E+10	1
4902554	54	C	08/03/2022	03:01	-133.993	49.689	0	2005.30	0	1.9230	0	34.5900	0	27.660	0	1978.681	0	-1e10	8	-1e10	8	-1E+10	1	-1E+10	1	-1E+10	1	-1E+10	1	-1E+10	1	-1E+10	1
4902554	54	C	08/03/2022	03:01	-133.993	49.689	0	2015.90	0	1.9170	0	34.5910	0	27.661	0	1989.090	0	-1e10	8	-1e10	8	-1E+10	1	-1E+10	1	-1E+10	1	-1E+10	1	-1E+10	1	-1E+10	1
4902554	54	C	08/03/2022	03:01	-133.993	49.689	0	2023.20	0	1.9130	0	34.5920	0	27.662	0	1996.259	0	-1e10	8	-1e10	8	-1E+10	1	-1E+10	1	-1E+10	1	-1E+10	1	-1E+10	1	-1E+10	1
4902554	54	C	08/03/2022	03:01	-133.993	49.689	0																										
4902554	55	C	08/13/2022	08:00	-133.855	49.591	0	0.10	0	15.5270	0	32.1760	0	23.682	0	0.099	0	-1e10	8	-1e10	8	-1E+10	1	-1E+10	1	-1E+10	1	-1E+10	1	-1E+10	1	-1E+10	1
4902554	55	C	08/13/2022	08:00	-133.855	49.591	0	1.00	0	15.5240	0	32.1660	0	23.675	0	0.991	0	-1e10	8	-1e10	8	-1E+10	1	-1E+10	1	-1E+10	1	-1E+10	1	-1E+10	1	-1E+10	1
4902554	55	C	08/13/2022	08:00	-133.855	49.591	0	2.00	0	15.5070	0	32.1810	0	23.690	0	1.983	0	-1e10	8	-1e10	8	-1E+10	1	-1E+10	1	-1E+10	1	-1E+10	1	-1E+10	1	-1E+10	1
4902554	55	C	08/13/2022	08:00	-133.855	49.591	0	2.90	0	15.4970	0	32.1910	0	23.700	0	2.875	0	-1e10	8	-1e10	8	-1E+10	1	-1E+10	1	-1E+10	1	-1E+10	1	-1E+10	1	-1E+10	1
4902554	55	C	08/13/2022	08:00	-133.855	49.591	0	4.10	0	15.5190	0	32.1870	0	23.692	0	4.065	0	-1e10	8	-1e10	8	-1E+10	1	-1E+10	1	-1E+10	1	-1E+10	1	-1E+10	1	-1E+10	1
4902554	55	C	08/13/2022	08:00	-133.855	49.591	0	4.90	0	15.3990	0	32.2250	0	23.748	0	4.858	0	-1e10	8	-1e10	8	-1E+10	1	-1E+10	1	-1E+10	1	-1E+10	1	-1E+10	1	-1E+10	1
4902554	55	C	08/13/2022	08:00	-133.855	49.591	0	5.70	0	15.3800	0	32.2140	0	23.744	0	5.651	0	-1e10	8	-1e10	8	-1E+10	1	-1E+10	1	-1E+10	1	-1E+10	1	-1E+10	1	-1E+10	1
4902554	55	C	08/13/2022	08:00	-133.855	49.591	0	6.90	0	15.3740	0	32.2140	0	23.745	0	6.841	0	-1e10	8	-1e10	8	-1E+10	1	-1E+10	1	-1E+10	1	-1E+10	1	-1E+10	1	-1E+10	1
4902554	55	C	08/13/2022	08:00	-133.855	49.591	0	8.20	0	15.3670	0	32.2140	0	23.747	0	8.130	0	-1e10	8	-1e10	8	-1E+10	1	-1E+10	1	-1E+10	1	-1E+10	1	-1E+10	1	-1E+10	1
4902554	55	C	08/13/2022	08:00	-133.855	49.591	0	9.00	0	15.3630	0	32.2150	0	23.748	0	8.923	0	-1e10	8	-1e10	8	-1E+10	1	-1E+10	1	-1E+10	1	-1E+10	1	-1E+10	1	-1E+10	1
4902554	55	C	08/13/2022	08:00	-133.855	49.591	0	9.90	0	15.3600	0	32.2150	0	23.749	0	9.815	0	-1e10	8	-1e10	8	-1E+10	1	-1E+10	1	-1E+10	1	-1E+10	1	-1E+10	1	-1E+10	1
4902554	55	C	08/13/2022	08:00	-133.855	49.591	0	10.70	0	15.3580	0	32.2150	0	23.749	0	10.608	0	-1e10	8	-1e10	8	-1E+10	1	-1E+10	1	-1E+10	1	-1E+10	1	-1E+10	1	-1E+10	1
4902554	55	C	08/13/2022	08:00	-133.855	49.591	0	12.00	0	15.3530	0	32.2150	0	23.751	0	11.897	0	-1e10	8	-1e10	8	-1E+10	1	-1E+10	1	-1E+10	1	-1E+10	1	-1E+10	1	-1E+10	1
4902554	55	C	08/13/2022	08:00	-133.855	49.591	0	13.30	0	15.3510	0	32.2150	0	23.751	0	13.186	0	-1e10	8	-1e10	8	-1E+10	1	-1E+10	1	-1E+10	1	-1E+10	1	-1E+10	1	-1E+10	1
4902554	55	C	08/13/2022	08:00	-133.855	49.591	0	14.20	0	15.3520	0	32.2150	0	23.751	0	14.078	0	-1e10	8	-1e10	8	-1E+10	1	-1E+10	1	-1E+10	1	-1E+10	1	-1E+10	1	-1E+10	1
4902554	55	C	08/13/2022	08:00	-133.855	49.591	0	15.00	0	15.3480	0	32.2150	0	23.752	0	14.871	0	-1e10	8	-1e10	8	-1E+10	1	-1E+10	1	-1E+10	1	-1E+10	1	-1E+10	1	-1E+10	1
4902554	55	C	08/13/2022	08:00	-133.855	49.591	0	15.80	0	15.3470	0	32.2150	0	23.752	0	15.665	0	-1e10	8	-1e10	8	-1E+10	1	-1E+10	1	-1E+10	1	-1E+10	1	-1E+10	1	-1E+10	1
4902554	55	C	08/13/2022	08:00	-133.855	49.591	0	16.70	0	15.3450	0	32.2150	0	23.752	0	16.557	0	-1e10	8	-1e10	8	-1E+10	1	-1E+10	1	-1E+10	1	-1E+10	1	-1E+10	1	-1E+10	1
4902554	55	C	08/13/2022	08:00	-133.855	49.591	0	17.90	0	15.3410	0	32.2150	0	23.753	0	17.746	0	-1e10	8	-1e10	8	-1E+10	1	-1E+10	1	-1E+10	1	-1E+10	1	-1E+10	1	-1E+10	1
4902554	55	C	08/13/2022	08:00	-133.855	49.591	0	19.10	0	15.3410	0	32.2150	0	23.753	0	18.936	0	-1e10	8	-1e10	8	-1E+10	1	-1E+10	1	-1E+10	1	-1E+10	1	-1E+10	1	-1E+10	1
4902554	55	C	08/13/2022	08:00	-133.855	49.591	0	19.90	0	15.3380	0	32.2150	0	23.754	0	19.729	0	-1e10	8	-1e10	8	-1E+10	1	-1E+10	1	-1E+10	1	-1E+10	1	-1E+10	1	-1E+10	1
4902554	55	C	08/13/2022	08:00	-133.855	49.591	0	21.00	0	15.3340	0	32.2140	0	23.754	0	20.820	0	-1e10	8	-1e10	8	-1E+10	1	-1E+10	1	-1E+10	1	-1E+10	1	-1E+10	1	-1E+10	1
4902554	55	C	08/13/2022	08:00	-133.855	49.591	0	22.10	0	15.3330	0	32.2140	0	23.755	0	21.910	0	-1e10	8	-1e10	8	-1E+10	1	-1E+10	1	-1E+10	1	-1E+10	1	-1E+10	1	-1E+10	1
4902554	55	C	08/13/2022	08:00	-133.855	49.591	0	22.90	0	15.3310	0	32.2150	0	23.756	0	22.703	0	-1e10	8	-1e10	8	-1E+10	1	-1E+10	1	-1E+10	1	-1E+10	1	-1E+10	1	-1E+10	1
4902554	55	C	08/13/2022	08:00	-133.855	49.591	0	23.80	0	15.3290	0	32.2150	0	23.756	0	23.595	0	-1e10	8	-1e10	8	-1E+10	1	-1E+10	1	-1E+10	1	-1E+10	1	-1E+10	1	-1E+10	1
4902554	55	C	08/13/2022	08:00	-133.855	49.591	0	24.90	0	15.3220	0	32.2130	0	23.756	0	24.686	0	-1e10	8	-1e10	8	-1E+10	1	-1E+10	1	-1E+10	1	-1E+10	1	-1E+10	1	-1E+10	1
4902554	55	C	08/13/2022	08:00	-133.855	49.591	0	25.80	0	15.2970	0	32.2090	0	23.759	0	25.578	0	-1e10	8	-1e10	8	-1E+10	1	-1E+10	1	-1E+10	1	-1E+10	1	-1E+10	1	-1E+10	1
4902554	55	C	08/13/2022	08:00	-133.855	49.591	0	27.10	0	15.0460	0	32.1810	0	23.791	0	26.867	0	-1e10	8	-1e10	8	-1E+10	1	-1E+10	1	-1E+10	1	-1E+10	1	-1E+10	1	-1E+10	1
4902554	55	C	08/13/2022	08:00	-133.855	49.591	0	28.00	0	14.3100	0	32.1790	0	23.945	0	27.759	0	-1e10	8	-1e10	8	-1E+10	1	-1E+10	1	-1E+10	1	-1E+10	1	-1E+10	1	-1E+10	1
4902554	55	C	08/13/2022	08:00	-133.855	49.591	0	29.00	0	13.5310	0	32.1610	0	24.091	0	28.750	0	-1e10	8	-1e10	8	-1E+10	1	-1E+10	1	-1E+10	1	-1E+10	1	-1E+10	1	-1E+10	1
4902554	55	C	08/13/2022	08:00	-133.855	49.591	0	29.90	0	12.9440	0	32.1400	0	24.190	0	29.643	0	-1e10	8	-1e10	8	-1E+10	1	-1E+10	1	-1E+10	1	-1E+10	1	-1E+10	1	-1E+10	1
4902554	55	C	08/13/2022	08:00	-133.855	49.591	0	31.00	0	11.7790	0	32.1740	0	24.437	0	30.733	0	-1e10	8	-1e10	8	-1E+10	1	-1E+10	1	-1E+10	1	-1E+10	1	-1E+10	1	-1E+10	1
4902554	55	C	08/13/2022	08:00	-133.855	49.591	0	32.10	0	11.2020	0	32.1940	0	24.557	0	31.824	0	-1e10	8	-1e10	8	-1E+10	1	-1E+10	1	-1E+10	1	-1E+10	1	-1E+10	1	-1E+10	1
4902554	55	C	08/13/2022	08:00	-133.855	49.591	0	33.00	0	10.8850	0	32.1940	0	24.612	0	32.716	0	-1e10	8	-1e10	8	-1E+10	1	-1E+10	1	-1E+10	1	-1E+10	1	-1E+10	1	-1E+10	1
4902554	55	C	08/13/2022	08:00	-133.855	49.591	0	33.90	0	10.5130	0	32.2160	0	24.694	0	33.608	0	-1e10	8	-1e10	8	-1E+10	1	-1E+10	1	-1E+10	1	-1E+10	1	-1E+10	1	-1E+10	1
4902554	55	C	08/13/2022	08:00	-133.855	49.591	0	35.00	0	10.3980	0	32.2200	0	24.716	0	34.698	0	-1e10	8	-1e10	8	-1E+10	1	-1E+10	1	-1E+10	1	-1E+10	1	-1E+10	1	-1E+10	1
4902554	55	C	08/13/2022	08:00	-133.855	49.591	0	36.10	0	10.3250	0	32.2210	0	24.730	0	35.789	0	-1e10	8	-1e10	8	-1E+10	1	-1E+10	1	-1E+10	1	-1E+10	1	-1E+10	1	-1E+10	1
4902554	55	C	08/13/2022	08:00	-133.855	49.591	0	37.10	0	10.1890	0	32.2240	0	24.755	0	36.780	0	-1e10	8	-1e10	8	-1E+10	1	-1E+10	1	-1E+10	1	-1E+10	1	-1E+10	1	-1E+10	1
4902554	55	C	08/13/2022	08:00	-133.855	49.591	0	38.00	0	10.0630	0	32.2280	0	24.779	0	37.672	0	-1e10	8	-1e10	8	-1E+10	1	-1E+10	1	-1E+10	1	-1E+10	1	-1E+10	1	-1E+10	1
4902554	55	C	08/13/2022	08:00	-133.855	49.591	0	39.10	0	9.8000	0	32.2370	0	24.829	0	38.763	0	-1e10	8	-1e10	8	-1E+10	1	-1E+10	1	-1E+10	1	-1E+10	1	-1E+10	1	-1E+10	1
4902554	55	C	08/13/2022	08:00	-133.855	49.591	0	40.10	0	9.6480	0	32.2370	0	24.854	0	39.754	0	-1e10	8	-1e10	8	-1E+10	1	-1E+10	1	-1E+10	1	-1E+10	1	-1E+10	1	-1E+10	1
4902554	55	C	08/13/2022	08:00	-133.855	49.591	0	41.20	0	9.4870	0	32.2420	0	24.884	0	40.844	0	-1e10	8	-1e10	8	-1E+10	1	-1E+10	1	-1E+10	1	-1E+10	1	-1E+10	1	-1E+10	1
4902554	55	C	08/13/2022	08:00	-133.855	49.591	0	41.90	0	9.3890	0	32.2430	0	24.900	0	41.538	0	-1e10	8	-1e10	8	-1E+10	1	-1E+10	1	-1E+10	1	-1E+10	1	-1E+10	1	-1E+10	1
4902554	55	C	08/13/2022	08:00	-133.855	49.591	0	43.00	0	9.2200	0	32.2490	0	24.931	0	42.629	0	-1e10	8	-1e10	8	-1E+10	1	-1E+10	1	-1E+10	1	-1E+10	1	-1E+10	1	-1E+10	1
4902554	55	C	08/13/2022	08:00	-133.855	49.591	0	44.00	0	9.1660	0	32.2510	0	24.941	0	43.620	0	-1e10	8	-1e10	8	-1E+10	1	-1E+10	1	-1E+10	1	-1E+10	1	-1E+10	1	-1E+10	1
4902554	55	C	08/13/2022	08:00	-133.855	49.591	0	45.10	0	9.1540	0	32.2520	0	24.944	0	44.710	0	-1e10	8	-1e10	8	-1E+10	1	-1E+10	1	-1E+10	1	-1E+10	1	-1E+10	1	-1E+10	1
4902554	55	C	08/13/2022	08:00	-133.855	49.591	0	46.10	0	9.1470	0	32.2490	0	24.943	0	45.701	0	-1e10	8	-1e10	8	-1E+10	1	-1E+10	1	-1E+10	1	-1E+10	1	-1E+10	1	-1E+10	1
4902554	55	C	08/13/2022	08:00	-133.855	49.591	0	47.10	0	9.1050	0	32.2500	0	24.950	0	46.693	0	-1e10	8	-1e10	8	-1E+10	1	-1E+10	1	-1E+10	1	-1E+10	1	-1E+10	1	-1E+10	1
4902554	55	C	08/13/2022	08:00	-133.855	49.591	0	48.10	0	9.0560	0	32.2460	0	24.955	0	47.684	0	-1e10	8	-1e10	8	-1E+10	1	-1E+10	1	-1E+10	1	-1E+10	1	-1E+10	1	-1E+10	1
4902554	55	C	08/13/2022	08:00	-133.855	49.591	0	49.10	0	8.8580	0	32.2500	0	24.988	0	48.675	0	-1e10	8	-1e10	8	-1E+10	1	-1E+10	1	-1E+10	1	-1E+10	1	-1E+10	1	-1E+10	1
4902554	55	C	08/13/2022	08:00	-133.855	49.591	0	50.00	0	8.5560	0	32.2630	0	25.044	0	49.567	0	-1e10	8	-1e10	8	-1E+10	1	-1E+10	1	-1E+10	1	-1E+10	1	-1E+10	1	-1E+10	1
4902554	55	C	08/13/2022	08:00	-133.855	49.591	0	50.70	0	8.4590	0	32.2660	0	25.061	0	50.261	0	-1e10	8	-1e10	8	-1E+10	1	-1E+10	1	-1E+10	1	-1E+10	1	-1E+10	1	-1E+10	1
4902554	55	C	08/13/2022	08:00	-133.855	49.591	0	52.10	0	8.3420	0	32.2730	0	25.084	0	51.649	0	-1e10	8	-1e10	8	-1E+10	1	-1E+10	1	-1E+10	1	-1E+10	1	-1E+10	1	-1E+10	1
4902554	55	C	08/13/2022	08:00	-133.855	49.591	0	53.00	0	8.2760	0	32.2750	0	25.095	0	52.541	0	-1e10	8	-1e10	8	-1E+10	1	-1E+10	1	-1E+10	1	-1E+10	1	-1E+10	1	-1E+10	1
4902554	55	C	08/13/2022	08:00	-133.855	49.591	0	54.10	0	8.2070	0	32.2750	0	25.105	0	53.631	0	-1e10	8	-1e10	8	-1E+10	1	-1E+10	1	-1E+10	1	-1E+10	1	-1E+10	1	-1E+10	1
4902554	55	C	08/13/2022	08:00	-133.855	49.591	0	55.00	0	8.1520	0	32.2730	0	25.112	0	54.523	0	-1e10	8	-1e10	8	-1E+10	1	-1E+10	1	-1E+10	1	-1E+10	1	-1E+10	1	-1E+10	1
4902554	55	C	08/13/2022	08:00	-133.855	49.591	0	55.90	0	8.0360	0	32.2750	0	25.130	0	55.415	0	-1e10	8	-1e10	8	-1E+10	1	-1E+10	1	-1E+10	1	-1E+10	1	-1E+10	1	-1E+10	1
4902554	55	C	08/13/2022	08:00	-133.855	49.591	0	57.10	0	7.8450	0	32.2870	0	25.167	0	56.605	0	-1e10	8	-1e10	8	-1E+10	1	-1E+10	1	-1E+10	1	-1E+10	1	-1E+10	1	-1E+10	1
4902554	55	C	08/13/2022	08:00	-133.855	49.591	0	57.80	0	7.7610	0	32.2870	0	25.179	0	57.299	0	-1e10	8	-1e10	8	-1E+10	1	-1E+10	1	-1E+10	1	-1E+10	1	-1E+10	1	-1E+10	1
4902554	55	C	08/13/2022	08:00	-133.855	49.591	0	59.10	0	7.6410	0	32.2920	0	25.200	0	58.587	0	-1e10	8	-1e10	8	-1E+10	1	-1E+10	1	-1E+10	1	-1E+10	1	-1E+10	1	-1E+10	1
4902554	55	C	08/13/2022	08:00	-133.855	49.591	0	60.10	0	7.5610	0	32.2930	0	25.212	0	59.578	0	-1e10	8	-1e10	8	-1E+10	1	-1E+10	1	-1E+10	1	-1E+10	1	-1E+10	1	-1E+10	1
4902554	55	C	08/13/2022	08:00	-133.855	49.591	0	61.00	0	7.4760	0	32.2970	0	25.227	0	60.470	0	-1e10	8	-1e10	8	-1E+10	1	-1E+10	1	-1E+10	1	-1E+10	1	-1E+10	1	-1E+10	1
4902554	55	C	08/13/2022	08:00	-133.855	49.591	0	62.00	0	7.4310	0	32.3010	0	25.236	0	61.462	0	-1e10	8	-1e10	8	-1E+10	1	-1E+10	1	-1E+10	1	-1E+10	1	-1E+10	1	-1E+10	1
4902554	55	C	08/13/2022	08:00	-133.855	49.591	0	62.90	0	7.3980	0	32.3040	0	25.243	0	62.354	0	-1e10	8	-1e10	8	-1E+10	1	-1E+10	1	-1E+10	1	-1E+10	1	-1E+10	1	-1E+10	1
4902554	55	C	08/13/2022	08:00	-133.855	49.591	0	64.00	0	7.3500	0	32.3070	0	25.252	0	63.444	0	-1e10	8	-1e10	8	-1E+10	1	-1E+10	1	-1E+10	1	-1E+10	1	-1E+10	1	-1E+10	1
4902554	55	C	08/13/2022	08:00	-133.855	49.591	0	65.00	0	7.2950	0	32.3110	0	25.262	0	64.435	0	-1e10	8	-1e10	8	-1E+10	1	-1E+10	1	-1E+10	1	-1E+10	1	-1E+10	1	-1E+10	1
4902554	55	C	08/13/2022	08:00	-133.855	49.591	0	66.10	0	7.2560	0	32.3150	0	25.271	0	65.525	0	-1e10	8	-1e10	8	-1E+10	1	-1E+10	1	-1E+10	1	-1E+10	1	-1E+10	1	-1E+10	1
4902554	55	C	08/13/2022	08:00	-133.855	49.591	0	67.00	0	7.2250	0	32.3160	0	25.276	0	66.417	0	-1e10	8	-1e10	8	-1E+10	1	-1E+10	1	-1E+10	1	-1E+10	1	-1E+10	1	-1E+10	1
4902554	55	C	08/13/2022	08:00	-133.855	49.591	0	68.10	0	7.1350	0	32.3340	0	25.302	0	67.508	0	-1e10	8	-1e10	8	-1E+10	1	-1E+10	1	-1E+10	1	-1E+10	1	-1E+10	1	-1E+10	1
4902554	55	C	08/13/2022	08:00	-133.855	49.591	0	68.90	0	7.1210	0	32.3380	0	25.307	0	68.300	0	-1e10	8	-1e10	8	-1E+10	1	-1E+10	1	-1E+10	1	-1E+10	1	-1E+10	1	-1E+10	1
4902554	55	C	08/13/2022	08:00	-133.855	49.591	0	70.20	0	7.0720	0	32.3540	0	25.326	0	69.589	0	-1e10	8	-1e10	8	-1E+10	1	-1E+10	1	-1E+10	1	-1E+10	1	-1E+10	1	-1E+10	1
4902554	55	C	08/13/2022	08:00	-133.855	49.591	0	70.90	0	7.0380	0	32.3650	0	25.340	0	70.283	0	-1e10	8	-1e10	8	-1E+10	1	-1E+10	1	-1E+10	1	-1E+10	1	-1E+10	1	-1E+10	1
4902554	55	C	08/13/2022	08:00	-133.855	49.591	0	71.90	0	7.0210	0	32.3720	0	25.347	0	71.274	0	-1e10	8	-1e10	8	-1E+10	1	-1E+10	1	-1E+10	1	-1E+10	1	-1E+10	1	-1E+10	1
4902554	55	C	08/13/2022	08:00	-133.855	49.591	0	72.90	0	7.0080	0	32.3790	0	25.355	0	72.265	0	-1e10	8	-1e10	8	-1E+10	1	-1E+10	1	-1E+10	1	-1E+10	1	-1E+10	1	-1E+10	1
4902554	55	C	08/13/2022	08:00	-133.855	49.591	0	73.90	0	6.9990	0	32.3830	0	25.359	0	73.256	0	-1e10	8	-1e10	8	-1E+10	1	-1E+10	1	-1E+10	1	-1E+10	1	-1E+10	1	-1E+10	1
4902554	55	C	08/13/2022	08:00	-133.855	49.591	0	75.10	0	6.9930	0	32.3860	0	25.362	0	74.445	0	-1e10	8	-1e10	8	-1E+10	1	-1E+10	1	-1E+10	1	-1E+10	1	-1E+10	1	-1E+10	1
4902554	55	C	08/13/2022	08:00	-133.855	49.591	0	75.80	0	6.9890	0	32.3880	0	25.364	0	75.139	0	-1e10	8	-1e10	8	-1E+10	1	-1E+10	1	-1E+10	1	-1E+10	1	-1E+10	1	-1E+10	1
4902554	55	C	08/13/2022	08:00	-133.855	49.591	0	77.00	0	6.9860	0	32.3900	0	25.366	0	76.328	0	-1e10	8	-1e10	8	-1E+10	1	-1E+10	1	-1E+10	1	-1E+10	1	-1E+10	1	-1E+10	1
4902554	55	C	08/13/2022	08:00	-133.855	49.591	0	77.70	0	6.9840	0	32.3910	0	25.367	0	77.022	0	-1e10	8	-1e10	8	-1E+10	1	-1E+10	1	-1E+10	1	-1E+10	1	-1E+10	1	-1E+10	1
4902554	55	C	08/13/2022	08:00	-133.855	49.591	0	78.80	0	6.9650	0	32.4010	0	25.378	0	78.112	0	-1e10	8	-1e10	8	-1E+10	1	-1E+10	1	-1E+10	1	-1E+10	1	-1E+10	1	-1E+10	1
4902554	55	C	08/13/2022	08:00	-133.855	49.591	0	79.80	0	6.9230	0	32.4270	0	25.404	0	79.104	0	-1e10	8	-1e10	8	-1E+10	1	-1E+10	1	-1E+10	1	-1E+10	1	-1E+10	1	-1E+10	1
4902554	55	C	08/13/2022	08:00	-133.855	49.591	0	80.80	0	6.9250	0	32.4260	0	25.403	0	80.095	0	-1e10	8	-1e10	8	-1E+10	1	-1E+10	1	-1E+10	1	-1E+10	1	-1E+10	1	-1E+10	1
4902554	55	C	08/13/2022	08:00	-133.855	49.591	0	81.90	0	6.9250	0	32.4250	0	25.402	0	81.185	0	-1e10	8	-1e10	8	-1E+10	1	-1E+10	1	-1E+10	1	-1E+10	1	-1E+10	1	-1E+10	1
4902554	55	C	08/13/2022	08:00	-133.855	49.591	0	83.00	0	6.9210	0	32.4290	0	25.406	0	82.275	0	-1e10	8	-1e10	8	-1E+10	1	-1E+10	1	-1E+10	1	-1E+10	1	-1E+10	1	-1E+10	1
4902554	55	C	08/13/2022	08:00	-133.855	49.591	0	84.10	0	6.9230	0	32.4270	0	25.404	0	83.365	0	-1e10	8	-1e10	8	-1E+10	1	-1E+10	1	-1E+10	1	-1E+10	1	-1E+10	1	-1E+10	1
4902554	55	C	08/13/2022	08:00	-133.855	49.591	0	84.90	0	6.8980	0	32.4430	0	25.420	0	84.158	0	-1e10	8	-1e10	8	-1E+10	1	-1E+10	1	-1E+10	1	-1E+10	1	-1E+10	1	-1E+10	1
4902554	55	C	08/13/2022	08:00	-133.855	49.591	0	86.10	0	6.8750	0	32.4590	0	25.435	0	85.347	0	-1e10	8	-1e10	8	-1E+10	1	-1E+10	1	-1E+10	1	-1E+10	1	-1E+10	1	-1E+10	1
4902554	55	C	08/13/2022	08:00	-133.855	49.591	0	86.90	0	6.8680	0	32.4620	0	25.439	0	86.140	0	-1e10	8	-1e10	8	-1E+10	1	-1E+10	1	-1E+10	1	-1E+10	1	-1E+10	1	-1E+10	1
4902554	55	C	08/13/2022	08:00	-133.855	49.591	0	88.10	0	6.8240	0	32.4940	0	25.470	0	87.329	0	-1e10	8	-1e10	8	-1E+10	1	-1E+10	1	-1E+10	1	-1E+10	1	-1E+10	1	-1E+10	1
4902554	55	C	08/13/2022	08:00	-133.855	49.591	0	88.90	0	6.7900	0	32.5210	0	25.495	0	88.122	0	-1e10	8	-1e10	8	-1E+10	1	-1E+10	1	-1E+10	1	-1E+10	1	-1E+10	1	-1E+10	1
4902554	55	C	08/13/2022	08:00	-133.855	49.591	0	90.10	0	6.7770	0	32.5300	0	25.504	0	89.311	0	-1e10	8	-1e10	8	-1E+10	1	-1E+10	1	-1E+10	1	-1E+10	1	-1E+10	1	-1E+10	1
4902554	55	C	08/13/2022	08:00	-133.855	49.591	0	91.10	0	6.7640	0	32.5380	0	25.512	0	90.302	0	-1e10	8	-1e10	8	-1E+10	1	-1E+10	1	-1E+10	1	-1E+10	1	-1E+10	1	-1E+10	1
4902554	55	C	08/13/2022	08:00	-133.855	49.591	0	92.00	0	6.7540	0	32.5440	0	25.518	0	91.194	0	-1e10	8	-1e10	8	-1E+10	1	-1E+10	1	-1E+10	1	-1E+10	1	-1E+10	1	-1E+10	1
4902554	55	C	08/13/2022	08:00	-133.855	49.591	0	92.90	0	6.7340	0	32.5590	0	25.533	0	92.086	0	-1e10	8	-1e10	8	-1E+10	1	-1E+10	1	-1E+10	1	-1E+10	1	-1E+10	1	-1E+10	1
4902554	55	C	08/13/2022	08:00	-133.855	49.591	0	93.90	0	6.7130	0	32.5760	0	25.549	0	93.077	0	-1e10	8	-1e10	8	-1E+10	1	-1E+10	1	-1E+10	1	-1E+10	1	-1E+10	1	-1E+10	1
4902554	55	C	08/13/2022	08:00	-133.855	49.591	0	95.00	0	6.6730	0	32.6130	0	25.583	0	94.167	0	-1e10	8	-1e10	8	-1E+10	1	-1E+10	1	-1E+10	1	-1E+10	1	-1E+10	1	-1E+10	1
4902554	55	C	08/13/2022	08:00	-133.855	49.591	0	96.00	0	6.6040	0	32.6810	0	25.646	0	95.158	0	-1e10	8	-1e10	8	-1E+10	1	-1E+10	1	-1E+10	1	-1E+10	1	-1E+10	1	-1E+10	1
4902554	55	C	08/13/2022	08:00	-133.855	49.591	0	97.10	0	6.5880	0	32.6970	0	25.660	0	96.249	0	-1e10	8	-1e10	8	-1E+10	1	-1E+10	1	-1E+10	1	-1E+10	1	-1E+10	1	-1E+10	1
4902554	55	C	08/13/2022	08:00	-133.855	49.591	0	98.20	0	6.5240	0	32.7640	0	25.721	0	97.339	0	-1e10	8	-1e10	8	-1E+10	1	-1E+10	1	-1E+10	1	-1E+10	1	-1E+10	1	-1E+10	1
4902554	55	C	08/13/2022	08:00	-133.855	49.591	0	98.80	0	6.4700	0	32.8210	0	25.773	0	97.933	0	-1e10	8	-1e10	8	-1E+10	1	-1E+10	1	-1E+10	1	-1E+10	1	-1E+10	1	-1E+10	1
4902554	55	C	08/13/2022	08:00	-133.855	49.591	0	99.80	0	6.4120	0	32.8850	0	25.831	0	98.924	0	-1e10	8	-1e10	8	-1E+10	1	-1E+10	1	-1E+10	1	-1E+10	1	-1E+10	1	-1E+10	1
4902554	55	C	08/13/2022	08:00	-133.855	49.591	0	100.80	0	6.3820	0	32.9190	0	25.862	0	99.915	0	-1e10	8	-1e10	8	-1E+10	1	-1E+10	1	-1E+10	1	-1E+10	1	-1E+10	1	-1E+10	1
4902554	55	C	08/13/2022	08:00	-133.855	49.591	0	101.80	0	6.3560	0	32.9480	0	25.888	0	100.906	0	-1e10	8	-1e10	8	-1E+10	1	-1E+10	1	-1E+10	1	-1E+10	1	-1E+10	1	-1E+10	1
4902554	55	C	08/13/2022	08:00	-133.855	49.591	0	102.90	0	6.3420	0	32.9680	0	25.906	0	101.996	0	-1e10	8	-1e10	8	-1E+10	1	-1E+10	1	-1E+10	1	-1E+10	1	-1E+10	1	-1E+10	1
4902554	55	C	08/13/2022	08:00	-133.855	49.591	0	104.00	0	6.3240	0	32.9880	0	25.924	0	103.086	0	-1e10	8	-1e10	8	-1E+10	1	-1E+10	1	-1E+10	1	-1E+10	1	-1E+10	1	-1E+10	1
4902554	55	C	08/13/2022	08:00	-133.855	49.591	0	104.90	0	6.2830	0	33.0340	0	25.965	0	103.978	0	-1e10	8	-1e10	8	-1E+10	1	-1E+10	1	-1E+10	1	-1E+10	1	-1E+10	1	-1E+10	1
4902554	55	C	08/13/2022	08:00	-133.855	49.591	0	105.80	0	6.2700	0	33.0480	0	25.978	0	104.870	0	-1e10	8	-1e10	8	-1E+10	1	-1E+10	1	-1E+10	1	-1E+10	1	-1E+10	1	-1E+10	1
4902554	55	C	08/13/2022	08:00	-133.855	49.591	0	107.00	0	6.2560	0	33.0630	0	25.992	0	106.059	0	-1e10	8	-1e10	8	-1E+10	1	-1E+10	1	-1E+10	1	-1E+10	1	-1E+10	1	-1E+10	1
4902554	55	C	08/13/2022	08:00	-133.855	49.591	0	107.90	0	6.2270	0	33.0960	0	26.021	0	106.951	0	-1e10	8	-1e10	8	-1E+10	1	-1E+10	1	-1E+10	1	-1E+10	1	-1E+10	1	-1E+10	1
4902554	55	C	08/13/2022	08:00	-133.855	49.591	0	108.80	0	6.1890	0	33.1340	0	26.056	0	107.843	0	-1e10	8	-1e10	8	-1E+10	1	-1E+10	1	-1E+10	1	-1E+10	1	-1E+10	1	-1E+10	1
4902554	55	C	08/13/2022	08:00	-133.855	49.591	0	109.80	0	6.1460	0	33.1730	0	26.092	0	108.834	0	-1e10	8	-1e10	8	-1E+10	1	-1E+10	1	-1E+10	1	-1E+10	1	-1E+10	1	-1E+10	1
4902554	55	C	08/13/2022	08:00	-133.855	49.591	0	110.90	0	6.1090	0	33.2030	0	26.121	0	109.924	0	-1e10	8	-1e10	8	-1E+10	1	-1E+10	1	-1E+10	1	-1E+10	1	-1E+10	1	-1E+10	1
4902554	55	C	08/13/2022	08:00	-133.855	49.591	0	112.00	0	6.1020	0	33.2080	0	26.125	0	111.014	0	-1e10	8	-1e10	8	-1E+10	1	-1E+10	1	-1E+10	1	-1E+10	1	-1E+10	1	-1E+10	1
4902554	55	C	08/13/2022	08:00	-133.855	49.591	0	113.00	0	6.0590	0	33.2510	0	26.165	0	112.005	0	-1e10	8	-1e10	8	-1E+10	1	-1E+10	1	-1E+10	1	-1E+10	1	-1E+10	1	-1E+10	1
4902554	55	C	08/13/2022	08:00	-133.855	49.591	0	114.20	0	6.0520	0	33.2630	0	26.175	0	113.194	0	-1e10	8	-1e10	8	-1E+10	1	-1E+10	1	-1E+10	1	-1E+10	1	-1E+10	1	-1E+10	1
4902554	55	C	08/13/2022	08:00	-133.855	49.591	0	114.90	0	6.0500	0	33.2650	0	26.177	0	113.888	0	-1e10	8	-1e10	8	-1E+10	1	-1E+10	1	-1E+10	1	-1E+10	1	-1E+10	1	-1E+10	1
4902554	55	C	08/13/2022	08:00	-133.855	49.591	0	115.90	0	6.0500	0	33.2670	0	26.179	0	114.878	0	-1e10	8	-1e10	8	-1E+10	1	-1E+10	1	-1E+10	1	-1E+10	1	-1E+10	1	-1E+10	1
4902554	55	C	08/13/2022	08:00	-133.855	49.591	0	116.90	0	6.0470	0	33.2700	0	26.181	0	115.869	0	-1e10	8	-1e10	8	-1E+10	1	-1E+10	1	-1E+10	1	-1E+10	1	-1E+10	1	-1E+10	1
4902554	55	C	08/13/2022	08:00	-133.855	49.591	0	118.00	0	6.0180	0	33.3080	0	26.215	0	116.959	0	-1e10	8	-1e10	8	-1E+10	1	-1E+10	1	-1E+10	1	-1E+10	1	-1E+10	1	-1E+10	1
4902554	55	C	08/13/2022	08:00	-133.855	49.591	0	119.00	0	5.9970	0	33.3320	0	26.236	0	117.950	0	-1e10	8	-1e10	8	-1E+10	1	-1E+10	1	-1E+10	1	-1E+10	1	-1E+10	1	-1E+10	1
4902554	55	C	08/13/2022	08:00	-133.855	49.591	0	119.80	0	5.9790	0	33.3460	0	26.250	0	118.743	0	-1e10	8	-1e10	8	-1E+10	1	-1E+10	1	-1E+10	1	-1E+10	1	-1E+10	1	-1E+10	1
4902554	55	C	08/13/2022	08:00	-133.855	49.591	0	120.80	0	5.9330	0	33.3910	0	26.291	0	119.734	0	-1e10	8	-1e10	8	-1E+10	1	-1E+10	1	-1E+10	1	-1E+10	1	-1E+10	1	-1E+10	1
4902554	55	C	08/13/2022	08:00	-133.855	49.591	0	121.90	0	5.9260	0	33.3980	0	26.297	0	120.824	0	-1e10	8	-1e10	8	-1E+10	1	-1E+10	1	-1E+10	1	-1E+10	1	-1E+10	1	-1E+10	1
4902554	55	C	08/13/2022	08:00	-133.855	49.591	0	123.00	0	5.9190	0	33.4150	0	26.312	0	121.914	0	-1e10	8	-1e10	8	-1E+10	1	-1E+10	1	-1E+10	1	-1E+10	1	-1E+10	1	-1E+10	1
4902554	55	C	08/13/2022	08:00	-133.855	49.591	0	124.20	0	5.9130	0	33.4210	0	26.317	0	123.103	0	-1e10	8	-1e10	8	-1E+10	1	-1E+10	1	-1E+10	1	-1E+10	1	-1E+10	1	-1E+10	1
4902554	55	C	08/13/2022	08:00	-133.855	49.591	0	124.90	0	5.8730	0	33.4440	0	26.340	0	123.796	0	-1e10	8	-1e10	8	-1E+10	1	-1E+10	1	-1E+10	1	-1E+10	1	-1E+10	1	-1E+10	1
4902554	55	C	08/13/2022	08:00	-133.855	49.591	0	125.70	0	5.8800	0	33.4490	0	26.343	0	124.589	0	-1e10	8	-1e10	8	-1E+10	1	-1E+10	1	-1E+10	1	-1E+10	1	-1E+10	1	-1E+10	1
4902554	55	C	08/13/2022	08:00	-133.855	49.591	0	126.80	0	5.8380	0	33.4880	0	26.379	0	125.679	0	-1e10	8	-1e10	8	-1E+10	1	-1E+10	1	-1E+10	1	-1E+10	1	-1E+10	1	-1E+10	1
4902554	55	C	08/13/2022	08:00	-133.855	49.591	0	128.00	0	5.8160	0	33.5090	0	26.399	0	126.868	0	-1e10	8	-1e10	8	-1E+10	1	-1E+10	1	-1E+10	1	-1E+10	1	-1E+10	1	-1E+10	1
4902554	55	C	08/13/2022	08:00	-133.855	49.591	0	128.80	0	5.8090	0	33.5170	0	26.406	0	127.661	0	-1e10	8	-1e10	8	-1E+10	1	-1E+10	1	-1E+10	1	-1E+10	1	-1E+10	1	-1E+10	1
4902554	55	C	08/13/2022	08:00	-133.855	49.591	0	129.60	0	5.8060	0	33.5240	0	26.412	0	128.453	0	-1e10	8	-1e10	8	-1E+10	1	-1E+10	1	-1E+10	1	-1E+10	1	-1E+10	1	-1E+10	1
4902554	55	C	08/13/2022	08:00	-133.855	49.591	0	130.90	0	5.8050	0	33.5260	0	26.413	0	129.741	0	-1e10	8	-1e10	8	-1E+10	1	-1E+10	1	-1E+10	1	-1E+10	1	-1E+10	1	-1E+10	1
4902554	55	C	08/13/2022	08:00	-133.855	49.591	0	132.10	0	5.8040	0	33.5290	0	26.416	0	130.931	0	-1e10	8	-1e10	8	-1E+10	1	-1E+10	1	-1E+10	1	-1E+10	1	-1E+10	1	-1E+10	1
4902554	55	C	08/13/2022	08:00	-133.855	49.591	0	133.00	0	5.8050	0	33.5300	0	26.417	0	131.822	0	-1e10	8	-1e10	8	-1E+10	1	-1E+10	1	-1E+10	1	-1E+10	1	-1E+10	1	-1E+10	1
4902554	55	C	08/13/2022	08:00	-133.855	49.591	0	133.90	0	5.8060	0	33.5300	0	26.417	0	132.714	0	-1e10	8	-1e10	8	-1E+10	1	-1E+10	1	-1E+10	1	-1E+10	1	-1E+10	1	-1E+10	1
4902554	55	C	08/13/2022	08:00	-133.855	49.591	0	134.70	0	5.7880	0	33.5490	0	26.434	0	133.507	0	-1e10	8	-1e10	8	-1E+10	1	-1E+10	1	-1E+10	1	-1E+10	1	-1E+10	1	-1E+10	1
4902554	55	C	08/13/2022	08:00	-133.855	49.591	0	135.60	0	5.7530	0	33.5750	0	26.459	0	134.398	0	-1e10	8	-1e10	8	-1E+10	1	-1E+10	1	-1E+10	1	-1E+10	1	-1E+10	1	-1E+10	1
4902554	55	C	08/13/2022	08:00	-133.855	49.591	0	136.60	0	5.7390	0	33.5830	0	26.467	0	135.389	0	-1e10	8	-1e10	8	-1E+10	1	-1E+10	1	-1E+10	1	-1E+10	1	-1E+10	1	-1E+10	1
4902554	55	C	08/13/2022	08:00	-133.855	49.591	0	137.90	0	5.7160	0	33.5990	0	26.482	0	136.677	0	-1e10	8	-1e10	8	-1E+10	1	-1E+10	1	-1E+10	1	-1E+10	1	-1E+10	1	-1E+10	1
4902554	55	C	08/13/2022	08:00	-133.855	49.591	0	139.40	0	5.7040	0	33.6030	0	26.487	0	138.163	0	-1e10	8	-1e10	8	-1E+10	1	-1E+10	1	-1E+10	1	-1E+10	1	-1E+10	1	-1E+10	1
4902554	55	C	08/13/2022	08:00	-133.855	49.591	0	140.30	0	5.6940	0	33.6070	0	26.491	0	139.055	0	-1e10	8	-1e10	8	-1E+10	1	-1E+10	1	-1E+10	1	-1E+10	1	-1E+10	1	-1E+10	1
4902554	55	C	08/13/2022	08:00	-133.855	49.591	0	141.30	0	5.6920	0	33.6070	0	26.491	0	140.046	0	-1e10	8	-1e10	8	-1E+10	1	-1E+10	1	-1E+10	1	-1E+10	1	-1E+10	1	-1E+10	1
4902554	55	C	08/13/2022	08:00	-133.855	49.591	0	142.30	0	5.6850	0	33.6100	0	26.495	0	141.037	0	-1e10	8	-1e10	8	-1E+10	1	-1E+10	1	-1E+10	1	-1E+10	1	-1E+10	1	-1E+10	1
4902554	55	C	08/13/2022	08:00	-133.855	49.591	0	143.30	0	5.6830	0	33.6110	0	26.496	0	142.028	0	-1e10	8	-1e10	8	-1E+10	1	-1E+10	1	-1E+10	1	-1E+10	1	-1E+10	1	-1E+10	1
4902554	55	C	08/13/2022	08:00	-133.855	49.591	0	144.30	0	5.6820	0	33.6120	0	26.497	0	143.018	0	-1e10	8	-1e10	8	-1E+10	1	-1E+10	1	-1E+10	1	-1E+10	1	-1E+10	1	-1E+10	1
4902554	55	C	08/13/2022	08:00	-133.855	49.591	0	145.30	0	5.6760	0	33.6150	0	26.500	0	144.009	0	-1e10	8	-1e10	8	-1E+10	1	-1E+10	1	-1E+10	1	-1E+10	1	-1E+10	1	-1E+10	1
4902554	55	C	08/13/2022	08:00	-133.855	49.591	0	146.40	0	5.6710	0	33.6160	0	26.501	0	145.099	0	-1e10	8	-1e10	8	-1E+10	1	-1E+10	1	-1E+10	1	-1E+10	1	-1E+10	1	-1E+10	1
4902554	55	C	08/13/2022	08:00	-133.855	49.591	0	147.40	0	5.6680	0	33.6180	0	26.503	0	146.090	0	-1e10	8	-1e10	8	-1E+10	1	-1E+10	1	-1E+10	1	-1E+10	1	-1E+10	1	-1E+10	1
4902554	55	C	08/13/2022	08:00	-133.855	49.591	0	148.40	0	5.6450	0	33.6290	0	26.515	0	147.080	0	-1e10	8	-1e10	8	-1E+10	1	-1E+10	1	-1E+10	1	-1E+10	1	-1E+10	1	-1E+10	1
4902554	55	C	08/13/2022	08:00	-133.855	49.591	0	149.50	0	5.6380	0	33.6310	0	26.517	0	148.170	0	-1e10	8	-1e10	8	-1E+10	1	-1E+10	1	-1E+10	1	-1E+10	1	-1E+10	1	-1E+10	1
4902554	55	C	08/13/2022	08:00	-133.855	49.591	0	150.60	0	5.6170	0	33.6410	0	26.527	0	149.260	0	-1e10	8	-1e10	8	-1E+10	1	-1E+10	1	-1E+10	1	-1E+10	1	-1E+10	1	-1E+10	1
4902554	55	C	08/13/2022	08:00	-133.855	49.591	0	151.60	0	5.5960	0	33.6510	0	26.538	0	150.251	0	-1e10	8	-1e10	8	-1E+10	1	-1E+10	1	-1E+10	1	-1E+10	1	-1E+10	1	-1E+10	1
4902554	55	C	08/13/2022	08:00	-133.855	49.591	0	152.70	0	5.5790	0	33.6590	0	26.546	0	151.341	0	-1e10	8	-1e10	8	-1E+10	1	-1E+10	1	-1E+10	1	-1E+10	1	-1E+10	1	-1E+10	1
4902554	55	C	08/13/2022	08:00	-133.855	49.591	0	153.80	0	5.5690	0	33.6620	0	26.550	0	152.430	0	-1e10	8	-1e10	8	-1E+10	1	-1E+10	1	-1E+10	1	-1E+10	1	-1E+10	1	-1E+10	1
4902554	55	C	08/13/2022	08:00	-133.855	49.591	0	154.80	0	5.5660	0	33.6630	0	26.551	0	153.421	0	-1e10	8	-1e10	8	-1E+10	1	-1E+10	1	-1E+10	1	-1E+10	1	-1E+10	1	-1E+10	1
4902554	55	C	08/13/2022	08:00	-133.855	49.591	0	156.00	0	5.5570	0	33.6680	0	26.556	0	154.610	0	-1e10	8	-1e10	8	-1E+10	1	-1E+10	1	-1E+10	1	-1E+10	1	-1E+10	1	-1E+10	1
4902554	55	C	08/13/2022	08:00	-133.855	49.591	0	157.10	0	5.5460	0	33.6720	0	26.560	0	155.700	0	-1e10	8	-1e10	8	-1E+10	1	-1E+10	1	-1E+10	1	-1E+10	1	-1E+10	1	-1E+10	1
4902554	55	C	08/13/2022	08:00	-133.855	49.591	0	158.20	0	5.5400	0	33.6730	0	26.562	0	156.790	0	-1e10	8	-1e10	8	-1E+10	1	-1E+10	1	-1E+10	1	-1E+10	1	-1E+10	1	-1E+10	1
4902554	55	C	08/13/2022	08:00	-133.855	49.591	0	159.30	0	5.5370	0	33.6740	0	26.563	0	157.879	0	-1e10	8	-1e10	8	-1E+10	1	-1E+10	1	-1E+10	1	-1E+10	1	-1E+10	1	-1E+10	1
4902554	55	C	08/13/2022	08:00	-133.855	49.591	0	160.40	0	5.5360	0	33.6740	0	26.563	0	158.969	0	-1e10	8	-1e10	8	-1E+10	1	-1E+10	1	-1E+10	1	-1E+10	1	-1E+10	1	-1E+10	1
4902554	55	C	08/13/2022	08:00	-133.855	49.591	0	161.50	0	5.5340	0	33.6750	0	26.564	0	160.059	0	-1e10	8	-1e10	8	-1E+10	1	-1E+10	1	-1E+10	1	-1E+10	1	-1E+10	1	-1E+10	1
4902554	55	C	08/13/2022	08:00	-133.855	49.591	0	162.60	0	5.5300	0	33.6760	0	26.566	0	161.149	0	-1e10	8	-1e10	8	-1E+10	1	-1E+10	1	-1E+10	1	-1E+10	1	-1E+10	1	-1E+10	1
4902554	55	C	08/13/2022	08:00	-133.855	49.591	0	163.70	0	5.5160	0	33.6800	0	26.570	0	162.238	0	-1e10	8	-1e10	8	-1E+10	1	-1E+10	1	-1E+10	1	-1E+10	1	-1E+10	1	-1E+10	1
4902554	55	C	08/13/2022	08:00	-133.855	49.591	0	164.90	0	5.5040	0	33.6830	0	26.574	0	163.427	0	-1e10	8	-1e10	8	-1E+10	1	-1E+10	1	-1E+10	1	-1E+10	1	-1E+10	1	-1E+10	1
4902554	55	C	08/13/2022	08:00	-133.855	49.591	0	166.00	0	5.4620	0	33.6970	0	26.590	0	164.517	0	-1e10	8	-1e10	8	-1E+10	1	-1E+10	1	-1E+10	1	-1E+10	1	-1E+10	1	-1E+10	1
4902554	55	C	08/13/2022	08:00	-133.855	49.591	0	167.10	0	5.4310	0	33.7050	0	26.600	0	165.607	0	-1e10	8	-1e10	8	-1E+10	1	-1E+10	1	-1E+10	1	-1E+10	1	-1E+10	1	-1E+10	1
4902554	55	C	08/13/2022	08:00	-133.855	49.591	0	168.20	0	5.4230	0	33.7060	0	26.602	0	166.696	0	-1e10	8	-1e10	8	-1E+10	1	-1E+10	1	-1E+10	1	-1E+10	1	-1E+10	1	-1E+10	1
4902554	55	C	08/13/2022	08:00	-133.855	49.591	0	169.30	0	5.4110	0	33.7070	0	26.604	0	167.786	0	-1e10	8	-1e10	8	-1E+10	1	-1E+10	1	-1E+10	1	-1E+10	1	-1E+10	1	-1E+10	1
4902554	55	C	08/13/2022	08:00	-133.855	49.591	0	170.40	0	5.4040	0	33.7090	0	26.607	0	168.876	0	-1e10	8	-1e10	8	-1E+10	1	-1E+10	1	-1E+10	1	-1E+10	1	-1E+10	1	-1E+10	1
4902554	55	C	08/13/2022	08:00	-133.855	49.591	0	171.50	0	5.3570	0	33.7190	0	26.620	0	169.965	0	-1e10	8	-1e10	8	-1E+10	1	-1E+10	1	-1E+10	1	-1E+10	1	-1E+10	1	-1E+10	1
4902554	55	C	08/13/2022	08:00	-133.855	49.591	0	172.70	0	5.3510	0	33.7200	0	26.622	0	171.154	0	-1e10	8	-1e10	8	-1E+10	1	-1E+10	1	-1E+10	1	-1E+10	1	-1E+10	1	-1E+10	1
4902554	55	C	08/13/2022	08:00	-133.855	49.591	0	173.80	0	5.3480	0	33.7200	0	26.622	0	172.244	0	-1e10	8	-1e10	8	-1E+10	1	-1E+10	1	-1E+10	1	-1E+10	1	-1E+10	1	-1E+10	1
4902554	55	C	08/13/2022	08:00	-133.855	49.591	0	174.90	0	5.3430	0	33.7210	0	26.623	0	173.334	0	-1e10	8	-1e10	8	-1E+10	1	-1E+10	1	-1E+10	1	-1E+10	1	-1E+10	1	-1E+10	1
4902554	55	C	08/13/2022	08:00	-133.855	49.591	0	176.00	0	5.3230	0	33.7230	0	26.627	0	174.423	0	-1e10	8	-1e10	8	-1E+10	1	-1E+10	1	-1E+10	1	-1E+10	1	-1E+10	1	-1E+10	1
4902554	55	C	08/13/2022	08:00	-133.855	49.591	0	177.10	0	5.3110	0	33.7260	0	26.631	0	175.513	0	-1e10	8	-1e10	8	-1E+10	1	-1E+10	1	-1E+10	1	-1E+10	1	-1E+10	1	-1E+10	1
4902554	55	C	08/13/2022	08:00	-133.855	49.591	0	178.20	0	5.3060	0	33.7240	0	26.630	0	176.603	0	-1e10	8	-1e10	8	-1E+10	1	-1E+10	1	-1E+10	1	-1E+10	1	-1E+10	1	-1E+10	1
4902554	55	C	08/13/2022	08:00	-133.855	49.591	0	179.30	0	5.2590	0	33.7350	0	26.644	0	177.692	0	-1e10	8	-1e10	8	-1E+10	1	-1E+10	1	-1E+10	1	-1E+10	1	-1E+10	1	-1E+10	1
4902554	55	C	08/13/2022	08:00	-133.855	49.591	0	180.40	0	5.2280	0	33.7390	0	26.651	0	178.782	0	-1e10	8	-1e10	8	-1E+10	1	-1E+10	1	-1E+10	1	-1E+10	1	-1E+10	1	-1E+10	1
4902554	55	C	08/13/2022	08:00	-133.855	49.591	0	181.60	0	5.2230	0	33.7390	0	26.652	0	179.971	0	-1e10	8	-1e10	8	-1E+10	1	-1E+10	1	-1E+10	1	-1E+10	1	-1E+10	1	-1E+10	1
4902554	55	C	08/13/2022	08:00	-133.855	49.591	0	182.70	0	5.2190	0	33.7390	0	26.652	0	181.060	0	-1e10	8	-1e10	8	-1E+10	1	-1E+10	1	-1E+10	1	-1E+10	1	-1E+10	1	-1E+10	1
4902554	55	C	08/13/2022	08:00	-133.855	49.591	0	183.70	0	5.2140	0	33.7390	0	26.653	0	182.051	0	-1e10	8	-1e10	8	-1E+10	1	-1E+10	1	-1E+10	1	-1E+10	1	-1E+10	1	-1E+10	1
4902554	55	C	08/13/2022	08:00	-133.855	49.591	0	184.90	0	5.2040	0	33.7420	0	26.656	0	183.240	0	-1e10	8	-1e10	8	-1E+10	1	-1E+10	1	-1E+10	1	-1E+10	1	-1E+10	1	-1E+10	1
4902554	55	C	08/13/2022	08:00	-133.855	49.591	0	185.90	0	5.1880	0	33.7430	0	26.659	0	184.230	0	-1e10	8	-1e10	8	-1E+10	1	-1E+10	1	-1E+10	1	-1E+10	1	-1E+10	1	-1E+10	1
4902554	55	C	08/13/2022	08:00	-133.855	49.591	0	187.00	0	5.1800	0	33.7440	0	26.661	0	185.320	0	-1e10	8	-1e10	8	-1E+10	1	-1E+10	1	-1E+10	1	-1E+10	1	-1E+10	1	-1E+10	1
4902554	55	C	08/13/2022	08:00	-133.855	49.591	0	188.10	0	5.1790	0	33.7460	0	26.662	0	186.409	0	-1e10	8	-1e10	8	-1E+10	1	-1E+10	1	-1E+10	1	-1E+10	1	-1E+10	1	-1E+10	1
4902554	55	C	08/13/2022	08:00	-133.855	49.591	0	189.20	0	5.1750	0	33.7470	0	26.664	0	187.499	0	-1e10	8	-1e10	8	-1E+10	1	-1E+10	1	-1E+10	1	-1E+10	1	-1E+10	1	-1E+10	1
4902554	55	C	08/13/2022	08:00	-133.855	49.591	0	190.20	0	5.1710	0	33.7470	0	26.664	0	188.490	0	-1e10	8	-1e10	8	-1E+10	1	-1E+10	1	-1E+10	1	-1E+10	1	-1E+10	1	-1E+10	1
4902554	55	C	08/13/2022	08:00	-133.855	49.591	0	191.30	0	5.1600	0	33.7490	0	26.667	0	189.579	0	-1e10	8	-1e10	8	-1E+10	1	-1E+10	1	-1E+10	1	-1E+10	1	-1E+10	1	-1E+10	1
4902554	55	C	08/13/2022	08:00	-133.855	49.591	0	192.40	0	5.1520	0	33.7500	0	26.669	0	190.669	0	-1e10	8	-1e10	8	-1E+10	1	-1E+10	1	-1E+10	1	-1E+10	1	-1E+10	1	-1E+10	1
4902554	55	C	08/13/2022	08:00	-133.855	49.591	0	193.40	0	5.1320	0	33.7510	0	26.672	0	191.659	0	-1e10	8	-1e10	8	-1E+10	1	-1E+10	1	-1E+10	1	-1E+10	1	-1E+10	1	-1E+10	1
4902554	55	C	08/13/2022	08:00	-133.855	49.591	0	194.50	0	5.1160	0	33.7540	0	26.676	0	192.749	0	-1e10	8	-1e10	8	-1E+10	1	-1E+10	1	-1E+10	1	-1E+10	1	-1E+10	1	-1E+10	1
4902554	55	C	08/13/2022	08:00	-133.855	49.591	0	195.50	0	5.1120	0	33.7530	0	26.676	0	193.740	0	-1e10	8	-1e10	8	-1E+10	1	-1E+10	1	-1E+10	1	-1E+10	1	-1E+10	1	-1E+10	1
4902554	55	C	08/13/2022	08:00	-133.855	49.591	0	196.60	0	5.1010	0	33.7550	0	26.679	0	194.829	0	-1e10	8	-1e10	8	-1E+10	1	-1E+10	1	-1E+10	1	-1E+10	1	-1E+10	1	-1E+10	1
4902554	55	C	08/13/2022	08:00	-133.855	49.591	0	197.60	0	5.0950	0	33.7550	0	26.679	0	195.820	0	-1e10	8	-1e10	8	-1E+10	1	-1E+10	1	-1E+10	1	-1E+10	1	-1E+10	1	-1E+10	1
4902554	55	C	08/13/2022	08:00	-133.855	49.591	0	198.70	0	5.0870	0	33.7570	0	26.682	0	196.909	0	-1e10	8	-1e10	8	-1E+10	1	-1E+10	1	-1E+10	1	-1E+10	1	-1E+10	1	-1E+10	1
4902554	55	C	08/13/2022	08:00	-133.855	49.591	0	199.80	0	5.0740	0	33.7570	0	26.683	0	197.999	0	-1e10	8	-1e10	8	-1E+10	1	-1E+10	1	-1E+10	1	-1E+10	1	-1E+10	1	-1E+10	1
4902554	55	C	08/13/2022	08:00	-133.855	49.591	0	200.80	0	5.0620	0	33.7590	0	26.686	0	198.989	0	-1e10	8	-1e10	8	-1E+10	1	-1E+10	1	-1E+10	1	-1E+10	1	-1E+10	1	-1E+10	1
4902554	55	C	08/13/2022	08:00	-133.855	49.591	0	201.80	0	5.0550	0	33.7590	0	26.687	0	199.980	0	-1e10	8	-1e10	8	-1E+10	1	-1E+10	1	-1E+10	1	-1E+10	1	-1E+10	1	-1E+10	1
4902554	55	C	08/13/2022	08:00	-133.855	49.591	0	202.90	0	5.0450	0	33.7600	0	26.689	0	201.069	0	-1e10	8	-1e10	8	-1E+10	1	-1E+10	1	-1E+10	1	-1E+10	1	-1E+10	1	-1E+10	1
4902554	55	C	08/13/2022	08:00	-133.855	49.591	0	203.90	0	5.0310	0	33.7610	0	26.691	0	202.060	0	-1e10	8	-1e10	8	-1E+10	1	-1E+10	1	-1E+10	1	-1E+10	1	-1E+10	1	-1E+10	1
4902554	55	C	08/13/2022	08:00	-133.855	49.591	0	204.90	0	5.0140	0	33.7630	0	26.695	0	203.050	0	-1e10	8	-1e10	8	-1E+10	1	-1E+10	1	-1E+10	1	-1E+10	1	-1E+10	1	-1E+10	1
4902554	55	C	08/13/2022	08:00	-133.855	49.591	0	205.90	0	4.9880	0	33.7650	0	26.699	0	204.041	0	-1e10	8	-1e10	8	-1E+10	1	-1E+10	1	-1E+10	1	-1E+10	1	-1E+10	1	-1E+10	1
4902554	55	C	08/13/2022	08:00	-133.855	49.591	0	206.90	0	4.9750	0	33.7640	0	26.700	0	205.031	0	-1e10	8	-1e10	8	-1E+10	1	-1E+10	1	-1E+10	1	-1E+10	1	-1E+10	1	-1E+10	1
4902554	55	C	08/13/2022	08:00	-133.855	49.591	0	207.90	0	4.9580	0	33.7690	0	26.706	0	206.022	0	-1e10	8	-1e10	8	-1E+10	1	-1E+10	1	-1E+10	1	-1E+10	1	-1E+10	1	-1E+10	1
4902554	55	C	08/13/2022	08:00	-133.855	49.591	0	208.90	0	4.9500	0	33.7680	0	26.706	0	207.012	0	-1e10	8	-1e10	8	-1E+10	1	-1E+10	1	-1E+10	1	-1E+10	1	-1E+10	1	-1E+10	1
4902554	55	C	08/13/2022	08:00	-133.855	49.591	0	209.90	0	4.9190	0	33.7710	0	26.712	0	208.003	0	-1e10	8	-1e10	8	-1E+10	1	-1E+10	1	-1E+10	1	-1E+10	1	-1E+10	1	-1E+10	1
4902554	55	C	08/13/2022	08:00	-133.855	49.591	0	210.90	0	4.9020	0	33.7740	0	26.716	0	208.993	0	-1e10	8	-1e10	8	-1E+10	1	-1E+10	1	-1E+10	1	-1E+10	1	-1E+10	1	-1E+10	1
4902554	55	C	08/13/2022	08:00	-133.855	49.591	0	211.90	0	4.8910	0	33.7760	0	26.719	0	209.983	0	-1e10	8	-1e10	8	-1E+10	1	-1E+10	1	-1E+10	1	-1E+10	1	-1E+10	1	-1E+10	1
4902554	55	C	08/13/2022	08:00	-133.855	49.591	0	212.90	0	4.8820	0	33.7780	0	26.722	0	210.974	0	-1e10	8	-1e10	8	-1E+10	1	-1E+10	1	-1E+10	1	-1E+10	1	-1E+10	1	-1E+10	1
4902554	55	C	08/13/2022	08:00	-133.855	49.591	0	213.90	0	4.8710	0	33.7780	0	26.723	0	211.964	0	-1e10	8	-1e10	8	-1E+10	1	-1E+10	1	-1E+10	1	-1E+10	1	-1E+10	1	-1E+10	1
4902554	55	C	08/13/2022	08:00	-133.855	49.591	0	214.90	0	4.8620	0	33.7810	0	26.726	0	212.955	0	-1e10	8	-1e10	8	-1E+10	1	-1E+10	1	-1E+10	1	-1E+10	1	-1E+10	1	-1E+10	1
4902554	55	C	08/13/2022	08:00	-133.855	49.591	0	215.90	0	4.8540	0	33.7820	0	26.728	0	213.945	0	-1e10	8	-1e10	8	-1E+10	1	-1E+10	1	-1E+10	1	-1E+10	1	-1E+10	1	-1E+10	1
4902554	55	C	08/13/2022	08:00	-133.855	49.591	0	216.90	0	4.8440	0	33.7830	0	26.730	0	214.936	0	-1e10	8	-1e10	8	-1E+10	1	-1E+10	1	-1E+10	1	-1E+10	1	-1E+10	1	-1E+10	1
4902554	55	C	08/13/2022	08:00	-133.855	49.591	0	217.90	0	4.8410	0	33.7850	0	26.732	0	215.926	0	-1e10	8	-1e10	8	-1E+10	1	-1E+10	1	-1E+10	1	-1E+10	1	-1E+10	1	-1E+10	1
4902554	55	C	08/13/2022	08:00	-133.855	49.591	0	218.90	0	4.8310	0	33.7850	0	26.733	0	216.917	0	-1e10	8	-1e10	8	-1E+10	1	-1E+10	1	-1E+10	1	-1E+10	1	-1E+10	1	-1E+10	1
4902554	55	C	08/13/2022	08:00	-133.855	49.591	0	219.90	0	4.8290	0	33.7850	0	26.733	0	217.907	0	-1e10	8	-1e10	8	-1E+10	1	-1E+10	1	-1E+10	1	-1E+10	1	-1E+10	1	-1E+10	1
4902554	55	C	08/13/2022	08:00	-133.855	49.591	0	220.90	0	4.8220	0	33.7860	0	26.735	0	218.897	0	-1e10	8	-1e10	8	-1E+10	1	-1E+10	1	-1E+10	1	-1E+10	1	-1E+10	1	-1E+10	1
4902554	55	C	08/13/2022	08:00	-133.855	49.591	0	221.90	0	4.8190	0	33.7860	0	26.735	0	219.888	0	-1e10	8	-1e10	8	-1E+10	1	-1E+10	1	-1E+10	1	-1E+10	1	-1E+10	1	-1E+10	1
4902554	55	C	08/13/2022	08:00	-133.855	49.591	0	222.90	0	4.8160	0	33.7870	0	26.736	0	220.878	0	-1e10	8	-1e10	8	-1E+10	1	-1E+10	1	-1E+10	1	-1E+10	1	-1E+10	1	-1E+10	1
4902554	55	C	08/13/2022	08:00	-133.855	49.591	0	223.90	0	4.8140	0	33.7870	0	26.737	0	221.869	0	-1e10	8	-1e10	8	-1E+10	1	-1E+10	1	-1E+10	1	-1E+10	1	-1E+10	1	-1E+10	1
4902554	55	C	08/13/2022	08:00	-133.855	49.591	0	224.90	0	4.8100	0	33.7880	0	26.738	0	222.859	0	-1e10	8	-1e10	8	-1E+10	1	-1E+10	1	-1E+10	1	-1E+10	1	-1E+10	1	-1E+10	1
4902554	55	C	08/13/2022	08:00	-133.855	49.591	0	225.90	0	4.8040	0	33.7890	0	26.739	0	223.849	0	-1e10	8	-1e10	8	-1E+10	1	-1E+10	1	-1E+10	1	-1E+10	1	-1E+10	1	-1E+10	1
4902554	55	C	08/13/2022	08:00	-133.855	49.591	0	226.90	0	4.7980	0	33.7910	0	26.741	0	224.840	0	-1e10	8	-1e10	8	-1E+10	1	-1E+10	1	-1E+10	1	-1E+10	1	-1E+10	1	-1E+10	1
4902554	55	C	08/13/2022	08:00	-133.855	49.591	0	227.90	0	4.7910	0	33.7920	0	26.743	0	225.830	0	-1e10	8	-1e10	8	-1E+10	1	-1E+10	1	-1E+10	1	-1E+10	1	-1E+10	1	-1E+10	1
4902554	55	C	08/13/2022	08:00	-133.855	49.591	0	228.90	0	4.7910	0	33.7920	0	26.743	0	226.820	0	-1e10	8	-1e10	8	-1E+10	1	-1E+10	1	-1E+10	1	-1E+10	1	-1E+10	1	-1E+10	1
4902554	55	C	08/13/2022	08:00	-133.855	49.591	0	229.90	0	4.7890	0	33.7920	0	26.743	0	227.811	0	-1e10	8	-1e10	8	-1E+10	1	-1E+10	1	-1E+10	1	-1E+10	1	-1E+10	1	-1E+10	1
4902554	55	C	08/13/2022	08:00	-133.855	49.591	0	230.90	0	4.7840	0	33.7930	0	26.745	0	228.801	0	-1e10	8	-1e10	8	-1E+10	1	-1E+10	1	-1E+10	1	-1E+10	1	-1E+10	1	-1E+10	1
4902554	55	C	08/13/2022	08:00	-133.855	49.591	0	231.90	0	4.7760	0	33.7960	0	26.748	0	229.791	0	-1e10	8	-1e10	8	-1E+10	1	-1E+10	1	-1E+10	1	-1E+10	1	-1E+10	1	-1E+10	1
4902554	55	C	08/13/2022	08:00	-133.855	49.591	0	232.90	0	4.7670	0	33.7970	0	26.750	0	230.782	0	-1e10	8	-1e10	8	-1E+10	1	-1E+10	1	-1E+10	1	-1E+10	1	-1E+10	1	-1E+10	1
4902554	55	C	08/13/2022	08:00	-133.855	49.591	0	233.90	0	4.7680	0	33.8000	0	26.752	0	231.772	0	-1e10	8	-1e10	8	-1E+10	1	-1E+10	1	-1E+10	1	-1E+10	1	-1E+10	1	-1E+10	1
4902554	55	C	08/13/2022	08:00	-133.855	49.591	0	234.90	0	4.7720	0	33.8000	0	26.752	0	232.763	0	-1e10	8	-1e10	8	-1E+10	1	-1E+10	1	-1E+10	1	-1E+10	1	-1E+10	1	-1E+10	1
4902554	55	C	08/13/2022	08:00	-133.855	49.591	0	235.80	0	4.7720	0	33.8030	0	26.754	0	233.654	0	-1e10	8	-1e10	8	-1E+10	1	-1E+10	1	-1E+10	1	-1E+10	1	-1E+10	1	-1E+10	1
4902554	55	C	08/13/2022	08:00	-133.855	49.591	0	236.70	0	4.7600	0	33.8030	0	26.755	0	234.545	0	-1e10	8	-1e10	8	-1E+10	1	-1E+10	1	-1E+10	1	-1E+10	1	-1E+10	1	-1E+10	1
4902554	55	C	08/13/2022	08:00	-133.855	49.591	0	237.90	0	4.7380	0	33.8050	0	26.759	0	235.734	0	-1e10	8	-1e10	8	-1E+10	1	-1E+10	1	-1E+10	1	-1E+10	1	-1E+10	1	-1E+10	1
4902554	55	C	08/13/2022	08:00	-133.855	49.591	0	239.00	0	4.7150	0	33.8090	0	26.765	0	236.823	0	-1e10	8	-1e10	8	-1E+10	1	-1E+10	1	-1E+10	1	-1E+10	1	-1E+10	1	-1E+10	1
4902554	55	C	08/13/2022	08:00	-133.855	49.591	0	239.80	0	4.7050	0	33.8110	0	26.768	0	237.615	0	-1e10	8	-1e10	8	-1E+10	1	-1E+10	1	-1E+10	1	-1E+10	1	-1E+10	1	-1E+10	1
4902554	55	C	08/13/2022	08:00	-133.855	49.591	0	241.00	0	4.6940	0	33.8130	0	26.771	0	238.804	0	-1e10	8	-1e10	8	-1E+10	1	-1E+10	1	-1E+10	1	-1E+10	1	-1E+10	1	-1E+10	1
4902554	55	C	08/13/2022	08:00	-133.855	49.591	0	242.10	0	4.6900	0	33.8140	0	26.772	0	239.893	0	-1e10	8	-1e10	8	-1E+10	1	-1E+10	1	-1E+10	1	-1E+10	1	-1E+10	1	-1E+10	1
4902554	55	C	08/13/2022	08:00	-133.855	49.591	0	242.90	0	4.6850	0	33.8140	0	26.772	0	240.685	0	-1e10	8	-1e10	8	-1E+10	1	-1E+10	1	-1E+10	1	-1E+10	1	-1E+10	1	-1E+10	1
4902554	55	C	08/13/2022	08:00	-133.855	49.591	0	243.70	0	4.6840	0	33.8150	0	26.773	0	241.477	0	-1e10	8	-1e10	8	-1E+10	1	-1E+10	1	-1E+10	1	-1E+10	1	-1E+10	1	-1E+10	1
4902554	55	C	08/13/2022	08:00	-133.855	49.591	0	244.80	0	4.6800	0	33.8140	0	26.773	0	242.567	0	-1e10	8	-1e10	8	-1E+10	1	-1E+10	1	-1E+10	1	-1E+10	1	-1E+10	1	-1E+10	1
4902554	55	C	08/13/2022	08:00	-133.855	49.591	0	246.00	0	4.6780	0	33.8160	0	26.775	0	243.755	0	-1e10	8	-1e10	8	-1E+10	1	-1E+10	1	-1E+10	1	-1E+10	1	-1E+10	1	-1E+10	1
4902554	55	C	08/13/2022	08:00	-133.855	49.591	0	246.90	0	4.6690	0	33.8220	0	26.780	0	244.646	0	-1e10	8	-1e10	8	-1E+10	1	-1E+10	1	-1E+10	1	-1E+10	1	-1E+10	1	-1E+10	1
4902554	55	C	08/13/2022	08:00	-133.855	49.591	0	247.70	0	4.6640	0	33.8200	0	26.779	0	245.438	0	-1e10	8	-1e10	8	-1E+10	1	-1E+10	1	-1E+10	1	-1E+10	1	-1E+10	1	-1E+10	1
4902554	55	C	08/13/2022	08:00	-133.855	49.591	0	248.90	0	4.6640	0	33.8210	0	26.780	0	246.627	0	-1e10	8	-1e10	8	-1E+10	1	-1E+10	1	-1E+10	1	-1E+10	1	-1E+10	1	-1E+10	1
4902554	55	C	08/13/2022	08:00	-133.855	49.591	0	250.20	0	4.6640	0	33.8240	0	26.783	0	247.914	0	-1e10	8	-1e10	8	-1E+10	1	-1E+10	1	-1E+10	1	-1E+10	1	-1E+10	1	-1E+10	1
4902554	55	C	08/13/2022	08:00	-133.855	49.591	0	251.00	0	4.6650	0	33.8250	0	26.783	0	248.706	0	-1e10	8	-1e10	8	-1E+10	1	-1E+10	1	-1E+10	1	-1E+10	1	-1E+10	1	-1E+10	1
4902554	55	C	08/13/2022	08:00	-133.855	49.591	0	251.80	0	4.6650	0	33.8260	0	26.784	0	249.499	0	-1e10	8	-1e10	8	-1E+10	1	-1E+10	1	-1E+10	1	-1E+10	1	-1E+10	1	-1E+10	1
4902554	55	C	08/13/2022	08:00	-133.855	49.591	0	252.70	0	4.6620	0	33.8270	0	26.785	0	250.390	0	-1e10	8	-1e10	8	-1E+10	1	-1E+10	1	-1E+10	1	-1E+10	1	-1E+10	1	-1E+10	1
4902554	55	C	08/13/2022	08:00	-133.855	49.591	0	253.90	0	4.6530	0	33.8280	0	26.787	0	251.578	0	-1e10	8	-1e10	8	-1E+10	1	-1E+10	1	-1E+10	1	-1E+10	1	-1E+10	1	-1E+10	1
4902554	55	C	08/13/2022	08:00	-133.855	49.591	0	255.20	0	4.6480	0	33.8270	0	26.787	0	252.865	0	-1e10	8	-1e10	8	-1E+10	1	-1E+10	1	-1E+10	1	-1E+10	1	-1E+10	1	-1E+10	1
4902554	55	C	08/13/2022	08:00	-133.855	49.591	0	256.10	0	4.6480	0	33.8280	0	26.788	0	253.757	0	-1e10	8	-1e10	8	-1E+10	1	-1E+10	1	-1E+10	1	-1E+10	1	-1E+10	1	-1E+10	1
4902554	55	C	08/13/2022	08:00	-133.855	49.591	0	257.00	0	4.6490	0	33.8320	0	26.791	0	254.648	0	-1e10	8	-1e10	8	-1E+10	1	-1E+10	1	-1E+10	1	-1E+10	1	-1E+10	1	-1E+10	1
4902554	55	C	08/13/2022	08:00	-133.855	49.591	0	257.90	0	4.6440	0	33.8330	0	26.792	0	255.539	0	-1e10	8	-1e10	8	-1E+10	1	-1E+10	1	-1E+10	1	-1E+10	1	-1E+10	1	-1E+10	1
4902554	55	C	08/13/2022	08:00	-133.855	49.591	0	258.80	0	4.6360	0	33.8330	0	26.793	0	256.430	0	-1e10	8	-1e10	8	-1E+10	1	-1E+10	1	-1E+10	1	-1E+10	1	-1E+10	1	-1E+10	1
4902554	55	C	08/13/2022	08:00	-133.855	49.591	0	259.70	0	4.6310	0	33.8330	0	26.793	0	257.321	0	-1e10	8	-1e10	8	-1E+10	1	-1E+10	1	-1E+10	1	-1E+10	1	-1E+10	1	-1E+10	1
4902554	55	C	08/13/2022	08:00	-133.855	49.591	0	260.60	0	4.6290	0	33.8340	0	26.794	0	258.213	0	-1e10	8	-1e10	8	-1E+10	1	-1E+10	1	-1E+10	1	-1E+10	1	-1E+10	1	-1E+10	1
4902554	55	C	08/13/2022	08:00	-133.855	49.591	0	261.90	0	4.6270	0	33.8350	0	26.795	0	259.500	0	-1e10	8	-1e10	8	-1E+10	1	-1E+10	1	-1E+10	1	-1E+10	1	-1E+10	1	-1E+10	1
4902554	55	C	08/13/2022	08:00	-133.855	49.591	0	263.30	0	4.6260	0	33.8380	0	26.798	0	260.886	0	-1e10	8	-1e10	8	-1E+10	1	-1E+10	1	-1E+10	1	-1E+10	1	-1E+10	1	-1E+10	1
4902554	55	C	08/13/2022	08:00	-133.855	49.591	0	264.20	0	4.6210	0	33.8410	0	26.801	0	261.777	0	-1e10	8	-1e10	8	-1E+10	1	-1E+10	1	-1E+10	1	-1E+10	1	-1E+10	1	-1E+10	1
4902554	55	C	08/13/2022	08:00	-133.855	49.591	0	265.20	0	4.6210	0	33.8410	0	26.801	0	262.768	0	-1e10	8	-1e10	8	-1E+10	1	-1E+10	1	-1E+10	1	-1E+10	1	-1E+10	1	-1E+10	1
4902554	55	C	08/13/2022	08:00	-133.855	49.591	0	266.10	0	4.6160	0	33.8430	0	26.803	0	263.659	0	-1e10	8	-1e10	8	-1E+10	1	-1E+10	1	-1E+10	1	-1E+10	1	-1E+10	1	-1E+10	1
4902554	55	C	08/13/2022	08:00	-133.855	49.591	0	267.00	0	4.6070	0	33.8440	0	26.805	0	264.550	0	-1e10	8	-1e10	8	-1E+10	1	-1E+10	1	-1E+10	1	-1E+10	1	-1E+10	1	-1E+10	1
4902554	55	C	08/13/2022	08:00	-133.855	49.591	0	268.00	0	4.6060	0	33.8450	0	26.806	0	265.540	0	-1e10	8	-1e10	8	-1E+10	1	-1E+10	1	-1E+10	1	-1E+10	1	-1E+10	1	-1E+10	1
4902554	55	C	08/13/2022	08:00	-133.855	49.591	0	268.90	0	4.6060	0	33.8450	0	26.806	0	266.431	0	-1e10	8	-1e10	8	-1E+10	1	-1E+10	1	-1E+10	1	-1E+10	1	-1E+10	1	-1E+10	1
4902554	55	C	08/13/2022	08:00	-133.855	49.591	0	269.90	0	4.6030	0	33.8460	0	26.807	0	267.421	0	-1e10	8	-1e10	8	-1E+10	1	-1E+10	1	-1E+10	1	-1E+10	1	-1E+10	1	-1E+10	1
4902554	55	C	08/13/2022	08:00	-133.855	49.591	0	270.80	0	4.5950	0	33.8480	0	26.809	0	268.313	0	-1e10	8	-1e10	8	-1E+10	1	-1E+10	1	-1E+10	1	-1E+10	1	-1E+10	1	-1E+10	1
4902554	55	C	08/13/2022	08:00	-133.855	49.591	0	271.80	0	4.5900	0	33.8490	0	26.811	0	269.303	0	-1e10	8	-1e10	8	-1E+10	1	-1E+10	1	-1E+10	1	-1E+10	1	-1E+10	1	-1E+10	1
4902554	55	C	08/13/2022	08:00	-133.855	49.591	0	272.70	0	4.5840	0	33.8510	0	26.813	0	270.194	0	-1e10	8	-1e10	8	-1E+10	1	-1E+10	1	-1E+10	1	-1E+10	1	-1E+10	1	-1E+10	1
4902554	55	C	08/13/2022	08:00	-133.855	49.591	0	273.70	0	4.5810	0	33.8520	0	26.814	0	271.184	0	-1e10	8	-1e10	8	-1E+10	1	-1E+10	1	-1E+10	1	-1E+10	1	-1E+10	1	-1E+10	1
4902554	55	C	08/13/2022	08:00	-133.855	49.591	0	274.60	0	4.5770	0	33.8530	0	26.815	0	272.075	0	-1e10	8	-1e10	8	-1E+10	1	-1E+10	1	-1E+10	1	-1E+10	1	-1E+10	1	-1E+10	1
4902554	55	C	08/13/2022	08:00	-133.855	49.591	0	275.60	0	4.5740	0	33.8540	0	26.816	0	273.065	0	-1e10	8	-1e10	8	-1E+10	1	-1E+10	1	-1E+10	1	-1E+10	1	-1E+10	1	-1E+10	1
4902554	55	C	08/13/2022	08:00	-133.855	49.591	0	276.60	0	4.5660	0	33.8580	0	26.820	0	274.055	0	-1e10	8	-1e10	8	-1E+10	1	-1E+10	1	-1E+10	1	-1E+10	1	-1E+10	1	-1E+10	1
4902554	55	C	08/13/2022	08:00	-133.855	49.591	0	277.50	0	4.5620	0	33.8600	0	26.822	0	274.947	0	-1e10	8	-1e10	8	-1E+10	1	-1E+10	1	-1E+10	1	-1E+10	1	-1E+10	1	-1E+10	1
4902554	55	C	08/13/2022	08:00	-133.855	49.591	0	278.90	0	4.5610	0	33.8600	0	26.823	0	276.333	0	-1e10	8	-1e10	8	-1E+10	1	-1E+10	1	-1E+10	1	-1E+10	1	-1E+10	1	-1E+10	1
4902554	55	C	08/13/2022	08:00	-133.855	49.591	0	280.40	0	4.5580	0	33.8620	0	26.825	0	277.818	0	-1e10	8	-1e10	8	-1E+10	1	-1E+10	1	-1E+10	1	-1E+10	1	-1E+10	1	-1E+10	1
4902554	55	C	08/13/2022	08:00	-133.855	49.591	0	281.40	0	4.5570	0	33.8630	0	26.825	0	278.808	0	-1e10	8	-1e10	8	-1E+10	1	-1E+10	1	-1E+10	1	-1E+10	1	-1E+10	1	-1E+10	1
4902554	55	C	08/13/2022	08:00	-133.855	49.591	0	282.40	0	4.5520	0	33.8640	0	26.827	0	279.798	0	-1e10	8	-1e10	8	-1E+10	1	-1E+10	1	-1E+10	1	-1E+10	1	-1E+10	1	-1E+10	1
4902554	55	C	08/13/2022	08:00	-133.855	49.591	0	283.30	0	4.5450	0	33.8670	0	26.830	0	280.689	0	-1e10	8	-1e10	8	-1E+10	1	-1E+10	1	-1E+10	1	-1E+10	1	-1E+10	1	-1E+10	1
4902554	55	C	08/13/2022	08:00	-133.855	49.591	0	284.30	0	4.5440	0	33.8690	0	26.832	0	281.679	0	-1e10	8	-1e10	8	-1E+10	1	-1E+10	1	-1E+10	1	-1E+10	1	-1E+10	1	-1E+10	1
4902554	55	C	08/13/2022	08:00	-133.855	49.591	0	285.30	0	4.5440	0	33.8690	0	26.832	0	282.670	0	-1e10	8	-1e10	8	-1E+10	1	-1E+10	1	-1E+10	1	-1E+10	1	-1E+10	1	-1E+10	1
4902554	55	C	08/13/2022	08:00	-133.855	49.591	0	286.30	0	4.5330	0	33.8740	0	26.837	0	283.660	0	-1e10	8	-1e10	8	-1E+10	1	-1E+10	1	-1E+10	1	-1E+10	1	-1E+10	1	-1E+10	1
4902554	55	C	08/13/2022	08:00	-133.855	49.591	0	287.30	0	4.5300	0	33.8750	0	26.838	0	284.650	0	-1e10	8	-1e10	8	-1E+10	1	-1E+10	1	-1E+10	1	-1E+10	1	-1E+10	1	-1E+10	1
4902554	55	C	08/13/2022	08:00	-133.855	49.591	0	288.20	0	4.5270	0	33.8760	0	26.839	0	285.541	0	-1e10	8	-1e10	8	-1E+10	1	-1E+10	1	-1E+10	1	-1E+10	1	-1E+10	1	-1E+10	1
4902554	55	C	08/13/2022	08:00	-133.855	49.591	0	289.20	0	4.5250	0	33.8770	0	26.840	0	286.531	0	-1e10	8	-1e10	8	-1E+10	1	-1E+10	1	-1E+10	1	-1E+10	1	-1E+10	1	-1E+10	1
4902554	55	C	08/13/2022	08:00	-133.855	49.591	0	290.20	0	4.5230	0	33.8780	0	26.841	0	287.521	0	-1e10	8	-1e10	8	-1E+10	1	-1E+10	1	-1E+10	1	-1E+10	1	-1E+10	1	-1E+10	1
4902554	55	C	08/13/2022	08:00	-133.855	49.591	0	291.20	0	4.5200	0	33.8790	0	26.842	0	288.511	0	-1e10	8	-1e10	8	-1E+10	1	-1E+10	1	-1E+10	1	-1E+10	1	-1E+10	1	-1E+10	1
4902554	55	C	08/13/2022	08:00	-133.855	49.591	0	292.20	0	4.5160	0	33.8810	0	26.844	0	289.501	0	-1e10	8	-1e10	8	-1E+10	1	-1E+10	1	-1E+10	1	-1E+10	1	-1E+10	1	-1E+10	1
4902554	55	C	08/13/2022	08:00	-133.855	49.591	0	293.20	0	4.5160	0	33.8820	0	26.845	0	290.491	0	-1e10	8	-1e10	8	-1E+10	1	-1E+10	1	-1E+10	1	-1E+10	1	-1E+10	1	-1E+10	1
4902554	55	C	08/13/2022	08:00	-133.855	49.591	0	294.10	0	4.5160	0	33.8810	0	26.844	0	291.382	0	-1e10	8	-1e10	8	-1E+10	1	-1E+10	1	-1E+10	1	-1E+10	1	-1E+10	1	-1E+10	1
4902554	55	C	08/13/2022	08:00	-133.855	49.591	0	295.10	0	4.5150	0	33.8820	0	26.845	0	292.372	0	-1e10	8	-1e10	8	-1E+10	1	-1E+10	1	-1E+10	1	-1E+10	1	-1E+10	1	-1E+10	1
4902554	55	C	08/13/2022	08:00	-133.855	49.591	0	296.10	0	4.5150	0	33.8830	0	26.846	0	293.362	0	-1e10	8	-1e10	8	-1E+10	1	-1E+10	1	-1E+10	1	-1E+10	1	-1E+10	1	-1E+10	1
4902554	55	C	08/13/2022	08:00	-133.855	49.591	0	297.00	0	4.5100	0	33.8850	0	26.848	0	294.253	0	-1e10	8	-1e10	8	-1E+10	1	-1E+10	1	-1E+10	1	-1E+10	1	-1E+10	1	-1E+10	1
4902554	55	C	08/13/2022	08:00	-133.855	49.591	0	298.10	0	4.5080	0	33.8860	0	26.849	0	295.342	0	-1e10	8	-1e10	8	-1E+10	1	-1E+10	1	-1E+10	1	-1E+10	1	-1E+10	1	-1E+10	1
4902554	55	C	08/13/2022	08:00	-133.855	49.591	0	299.00	0	4.5070	0	33.8880	0	26.851	0	296.233	0	-1e10	8	-1e10	8	-1E+10	1	-1E+10	1	-1E+10	1	-1E+10	1	-1E+10	1	-1E+10	1
4902554	55	C	08/13/2022	08:00	-133.855	49.591	0	300.10	0	4.5070	0	33.8890	0	26.852	0	297.322	0	-1e10	8	-1e10	8	-1E+10	1	-1E+10	1	-1E+10	1	-1E+10	1	-1E+10	1	-1E+10	1
4902554	55	C	08/13/2022	08:00	-133.855	49.591	0	301.10	0	4.5060	0	33.8890	0	26.852	0	298.312	0	-1e10	8	-1e10	8	-1E+10	1	-1E+10	1	-1E+10	1	-1E+10	1	-1E+10	1	-1E+10	1
4902554	55	C	08/13/2022	08:00	-133.855	49.591	0	302.00	0	4.5030	0	33.8910	0	26.854	0	299.203	0	-1e10	8	-1e10	8	-1E+10	1	-1E+10	1	-1E+10	1	-1E+10	1	-1E+10	1	-1E+10	1
4902554	55	C	08/13/2022	08:00	-133.855	49.591	0	303.00	0	4.5000	0	33.8920	0	26.855	0	300.193	0	-1e10	8	-1e10	8	-1E+10	1	-1E+10	1	-1E+10	1	-1E+10	1	-1E+10	1	-1E+10	1
4902554	55	C	08/13/2022	08:00	-133.855	49.591	0	304.00	0	4.4900	0	33.8970	0	26.860	0	301.184	0	-1e10	8	-1e10	8	-1E+10	1	-1E+10	1	-1E+10	1	-1E+10	1	-1E+10	1	-1E+10	1
4902554	55	C	08/13/2022	08:00	-133.855	49.591	0	305.00	0	4.4890	0	33.8980	0	26.861	0	302.174	0	-1e10	8	-1e10	8	-1E+10	1	-1E+10	1	-1E+10	1	-1E+10	1	-1E+10	1	-1E+10	1
4902554	55	C	08/13/2022	08:00	-133.855	49.591	0	306.00	0	4.4890	0	33.8980	0	26.861	0	303.164	0	-1e10	8	-1e10	8	-1E+10	1	-1E+10	1	-1E+10	1	-1E+10	1	-1E+10	1	-1E+10	1
4902554	55	C	08/13/2022	08:00	-133.855	49.591	0	307.00	0	4.4890	0	33.8980	0	26.861	0	304.154	0	-1e10	8	-1e10	8	-1E+10	1	-1E+10	1	-1E+10	1	-1E+10	1	-1E+10	1	-1E+10	1
4902554	55	C	08/13/2022	08:00	-133.855	49.591	0	308.00	0	4.4890	0	33.8980	0	26.861	0	305.144	0	-1e10	8	-1e10	8	-1E+10	1	-1E+10	1	-1E+10	1	-1E+10	1	-1E+10	1	-1E+10	1
4902554	55	C	08/13/2022	08:00	-133.855	49.591	0	309.00	0	4.4890	0	33.8990	0	26.862	0	306.133	0	-1e10	8	-1e10	8	-1E+10	1	-1E+10	1	-1E+10	1	-1E+10	1	-1E+10	1	-1E+10	1
4902554	55	C	08/13/2022	08:00	-133.855	49.591	0	310.00	0	4.4820	0	33.9030	0	26.866	0	307.123	0	-1e10	8	-1e10	8	-1E+10	1	-1E+10	1	-1E+10	1	-1E+10	1	-1E+10	1	-1E+10	1
4902554	55	C	08/13/2022	08:00	-133.855	49.591	0	311.00	0	4.4790	0	33.9040	0	26.867	0	308.113	0	-1e10	8	-1e10	8	-1E+10	1	-1E+10	1	-1E+10	1	-1E+10	1	-1E+10	1	-1E+10	1
4902554	55	C	08/13/2022	08:00	-133.855	49.591	0	312.10	0	4.4750	0	33.9070	0	26.869	0	309.202	0	-1e10	8	-1e10	8	-1E+10	1	-1E+10	1	-1E+10	1	-1E+10	1	-1E+10	1	-1E+10	1
4902554	55	C	08/13/2022	08:00	-133.855	49.591	0	313.10	0	4.4740	0	33.9080	0	26.870	0	310.192	0	-1e10	8	-1e10	8	-1E+10	1	-1E+10	1	-1E+10	1	-1E+10	1	-1E+10	1	-1E+10	1
4902554	55	C	08/13/2022	08:00	-133.855	49.591	0	314.10	0	4.4740	0	33.9080	0	26.870	0	311.182	0	-1e10	8	-1e10	8	-1E+10	1	-1E+10	1	-1E+10	1	-1E+10	1	-1E+10	1	-1E+10	1
4902554	55	C	08/13/2022	08:00	-133.855	49.591	0	315.20	0	4.4720	0	33.9090	0	26.871	0	312.271	0	-1e10	8	-1e10	8	-1E+10	1	-1E+10	1	-1E+10	1	-1E+10	1	-1E+10	1	-1E+10	1
4902554	55	C	08/13/2022	08:00	-133.855	49.591	0	316.20	0	4.4720	0	33.9100	0	26.872	0	313.261	0	-1e10	8	-1e10	8	-1E+10	1	-1E+10	1	-1E+10	1	-1E+10	1	-1E+10	1	-1E+10	1
4902554	55	C	08/13/2022	08:00	-133.855	49.591	0	317.30	0	4.4710	0	33.9100	0	26.872	0	314.350	0	-1e10	8	-1e10	8	-1E+10	1	-1E+10	1	-1E+10	1	-1E+10	1	-1E+10	1	-1E+10	1
4902554	55	C	08/13/2022	08:00	-133.855	49.591	0	318.30	0	4.4700	0	33.9110	0	26.873	0	315.340	0	-1e10	8	-1e10	8	-1E+10	1	-1E+10	1	-1E+10	1	-1E+10	1	-1E+10	1	-1E+10	1
4902554	55	C	08/13/2022	08:00	-133.855	49.591	0	319.40	0	4.4690	0	33.9120	0	26.874	0	316.429	0	-1e10	8	-1e10	8	-1E+10	1	-1E+10	1	-1E+10	1	-1E+10	1	-1E+10	1	-1E+10	1
4902554	55	C	08/13/2022	08:00	-133.855	49.591	0	320.40	0	4.4680	0	33.9120	0	26.874	0	317.419	0	-1e10	8	-1e10	8	-1E+10	1	-1E+10	1	-1E+10	1	-1E+10	1	-1E+10	1	-1E+10	1
4902554	55	C	08/13/2022	08:00	-133.855	49.591	0	321.40	0	4.4640	0	33.9150	0	26.877	0	318.409	0	-1e10	8	-1e10	8	-1E+10	1	-1E+10	1	-1E+10	1	-1E+10	1	-1E+10	1	-1E+10	1
4902554	55	C	08/13/2022	08:00	-133.855	49.591	0	322.50	0	4.4610	0	33.9150	0	26.877	0	319.498	0	-1e10	8	-1e10	8	-1E+10	1	-1E+10	1	-1E+10	1	-1E+10	1	-1E+10	1	-1E+10	1
4902554	55	C	08/13/2022	08:00	-133.855	49.591	0	323.50	0	4.4620	0	33.9150	0	26.877	0	320.488	0	-1e10	8	-1e10	8	-1E+10	1	-1E+10	1	-1E+10	1	-1E+10	1	-1E+10	1	-1E+10	1
4902554	55	C	08/13/2022	08:00	-133.855	49.591	0	324.60	0	4.4620	0	33.9150	0	26.877	0	321.577	0	-1e10	8	-1e10	8	-1E+10	1	-1E+10	1	-1E+10	1	-1E+10	1	-1E+10	1	-1E+10	1
4902554	55	C	08/13/2022	08:00	-133.855	49.591	0	325.60	0	4.4580	0	33.9170	0	26.879	0	322.567	0	-1e10	8	-1e10	8	-1E+10	1	-1E+10	1	-1E+10	1	-1E+10	1	-1E+10	1	-1E+10	1
4902554	55	C	08/13/2022	08:00	-133.855	49.591	0	326.70	0	4.4570	0	33.9170	0	26.879	0	323.655	0	-1e10	8	-1e10	8	-1E+10	1	-1E+10	1	-1E+10	1	-1E+10	1	-1E+10	1	-1E+10	1
4902554	55	C	08/13/2022	08:00	-133.855	49.591	0	327.70	0	4.4560	0	33.9170	0	26.880	0	324.645	0	-1e10	8	-1e10	8	-1E+10	1	-1E+10	1	-1E+10	1	-1E+10	1	-1E+10	1	-1E+10	1
4902554	55	C	08/13/2022	08:00	-133.855	49.591	0	328.80	0	4.4550	0	33.9180	0	26.880	0	325.734	0	-1e10	8	-1e10	8	-1E+10	1	-1E+10	1	-1E+10	1	-1E+10	1	-1E+10	1	-1E+10	1
4902554	55	C	08/13/2022	08:00	-133.855	49.591	0	329.80	0	4.4520	0	33.9200	0	26.882	0	326.724	0	-1e10	8	-1e10	8	-1E+10	1	-1E+10	1	-1E+10	1	-1E+10	1	-1E+10	1	-1E+10	1
4902554	55	C	08/13/2022	08:00	-133.855	49.591	0	330.90	0	4.4480	0	33.9210	0	26.884	0	327.813	0	-1e10	8	-1e10	8	-1E+10	1	-1E+10	1	-1E+10	1	-1E+10	1	-1E+10	1	-1E+10	1
4902554	55	C	08/13/2022	08:00	-133.855	49.591	0	332.00	0	4.4460	0	33.9230	0	26.885	0	328.902	0	-1e10	8	-1e10	8	-1E+10	1	-1E+10	1	-1E+10	1	-1E+10	1	-1E+10	1	-1E+10	1
4902554	55	C	08/13/2022	08:00	-133.855	49.591	0	333.00	0	4.4450	0	33.9230	0	26.886	0	329.892	0	-1e10	8	-1e10	8	-1E+10	1	-1E+10	1	-1E+10	1	-1E+10	1	-1E+10	1	-1E+10	1
4902554	55	C	08/13/2022	08:00	-133.855	49.591	0	334.10	0	4.4420	0	33.9250	0	26.887	0	330.981	0	-1e10	8	-1e10	8	-1E+10	1	-1E+10	1	-1E+10	1	-1E+10	1	-1E+10	1	-1E+10	1
4902554	55	C	08/13/2022	08:00	-133.855	49.591	0	335.20	0	4.4410	0	33.9260	0	26.888	0	332.069	0	-1e10	8	-1e10	8	-1E+10	1	-1E+10	1	-1E+10	1	-1E+10	1	-1E+10	1	-1E+10	1
4902554	55	C	08/13/2022	08:00	-133.855	49.591	0	336.20	0	4.4320	0	33.9310	0	26.893	0	333.059	0	-1e10	8	-1e10	8	-1E+10	1	-1E+10	1	-1E+10	1	-1E+10	1	-1E+10	1	-1E+10	1
4902554	55	C	08/13/2022	08:00	-133.855	49.591	0	337.30	0	4.4280	0	33.9330	0	26.895	0	334.148	0	-1e10	8	-1e10	8	-1E+10	1	-1E+10	1	-1E+10	1	-1E+10	1	-1E+10	1	-1E+10	1
4902554	55	C	08/13/2022	08:00	-133.855	49.591	0	338.40	0	4.4200	0	33.9390	0	26.901	0	335.237	0	-1e10	8	-1e10	8	-1E+10	1	-1E+10	1	-1E+10	1	-1E+10	1	-1E+10	1	-1E+10	1
4902554	55	C	08/13/2022	08:00	-133.855	49.591	0	339.40	0	4.4200	0	33.9390	0	26.901	0	336.227	0	-1e10	8	-1e10	8	-1E+10	1	-1E+10	1	-1E+10	1	-1E+10	1	-1E+10	1	-1E+10	1
4902554	55	C	08/13/2022	08:00	-133.855	49.591	0	340.50	0	4.4190	0	33.9390	0	26.901	0	337.316	0	-1e10	8	-1e10	8	-1E+10	1	-1E+10	1	-1E+10	1	-1E+10	1	-1E+10	1	-1E+10	1
4902554	55	C	08/13/2022	08:00	-133.855	49.591	0	341.60	0	4.4190	0	33.9390	0	26.901	0	338.404	0	-1e10	8	-1e10	8	-1E+10	1	-1E+10	1	-1E+10	1	-1E+10	1	-1E+10	1	-1E+10	1
4902554	55	C	08/13/2022	08:00	-133.855	49.591	0	342.60	0	4.4190	0	33.9390	0	26.901	0	339.394	0	-1e10	8	-1e10	8	-1E+10	1	-1E+10	1	-1E+10	1	-1E+10	1	-1E+10	1	-1E+10	1
4902554	55	C	08/13/2022	08:00	-133.855	49.591	0	343.70	0	4.4180	0	33.9400	0	26.902	0	340.483	0	-1e10	8	-1e10	8	-1E+10	1	-1E+10	1	-1E+10	1	-1E+10	1	-1E+10	1	-1E+10	1
4902554	55	C	08/13/2022	08:00	-133.855	49.591	0	344.80	0	4.4170	0	33.9400	0	26.902	0	341.572	0	-1e10	8	-1e10	8	-1E+10	1	-1E+10	1	-1E+10	1	-1E+10	1	-1E+10	1	-1E+10	1
4902554	55	C	08/13/2022	08:00	-133.855	49.591	0	345.80	0	4.4140	0	33.9420	0	26.904	0	342.562	0	-1e10	8	-1e10	8	-1E+10	1	-1E+10	1	-1E+10	1	-1E+10	1	-1E+10	1	-1E+10	1
4902554	55	C	08/13/2022	08:00	-133.855	49.591	0	346.90	0	4.4120	0	33.9450	0	26.907	0	343.650	0	-1e10	8	-1e10	8	-1E+10	1	-1E+10	1	-1E+10	1	-1E+10	1	-1E+10	1	-1E+10	1
4902554	55	C	08/13/2022	08:00	-133.855	49.591	0	347.90	0	4.4110	0	33.9460	0	26.908	0	344.640	0	-1e10	8	-1e10	8	-1E+10	1	-1E+10	1	-1E+10	1	-1E+10	1	-1E+10	1	-1E+10	1
4902554	55	C	08/13/2022	08:00	-133.855	49.591	0	349.00	0	4.4110	0	33.9460	0	26.908	0	345.729	0	-1e10	8	-1e10	8	-1E+10	1	-1E+10	1	-1E+10	1	-1E+10	1	-1E+10	1	-1E+10	1
4902554	55	C	08/13/2022	08:00	-133.855	49.591	0	350.10	0	4.4090	0	33.9470	0	26.909	0	346.818	0	-1e10	8	-1e10	8	-1E+10	1	-1E+10	1	-1E+10	1	-1E+10	1	-1E+10	1	-1E+10	1
4902554	55	C	08/13/2022	08:00	-133.855	49.591	0	353.20	0	4.4020	0	33.9500	0	26.912	0	349.886	0	-1e10	8	-1e10	8	-1E+10	1	-1E+10	1	-1E+10	1	-1E+10	1	-1E+10	1	-1E+10	1
4902554	55	C	08/13/2022	08:00	-133.855	49.591	0	357.90	0	4.3920	0	33.9540	0	26.916	0	354.538	0	-1e10	8	-1e10	8	-1E+10	1	-1E+10	1	-1E+10	1	-1E+10	1	-1E+10	1	-1E+10	1
4902554	55	C	08/13/2022	08:00	-133.855	49.591	0	362.60	0	4.3820	0	33.9630	0	26.924	0	359.190	0	-1e10	8	-1e10	8	-1E+10	1	-1E+10	1	-1E+10	1	-1E+10	1	-1E+10	1	-1E+10	1
4902554	55	C	08/13/2022	08:00	-133.855	49.591	0	367.80	0	4.3670	0	33.9750	0	26.935	0	364.336	0	-1e10	8	-1e10	8	-1E+10	1	-1E+10	1	-1E+10	1	-1E+10	1	-1E+10	1	-1E+10	1
4902554	55	C	08/13/2022	08:00	-133.855	49.591	0	373.00	0	4.3550	0	33.9820	0	26.942	0	369.483	0	-1e10	8	-1e10	8	-1E+10	1	-1E+10	1	-1E+10	1	-1E+10	1	-1E+10	1	-1E+10	1
4902554	55	C	08/13/2022	08:00	-133.855	49.591	0	378.10	0	4.3470	0	33.9880	0	26.948	0	374.530	0	-1e10	8	-1e10	8	-1E+10	1	-1E+10	1	-1E+10	1	-1E+10	1	-1E+10	1	-1E+10	1
4902554	55	C	08/13/2022	08:00	-133.855	49.591	0	382.90	0	4.3400	0	33.9920	0	26.952	0	379.280	0	-1e10	8	-1e10	8	-1E+10	1	-1E+10	1	-1E+10	1	-1E+10	1	-1E+10	1	-1E+10	1
4902554	55	C	08/13/2022	08:00	-133.855	49.591	0	388.00	0	4.3270	0	34.0000	0	26.960	0	384.327	0	-1e10	8	-1e10	8	-1E+10	1	-1E+10	1	-1E+10	1	-1E+10	1	-1E+10	1	-1E+10	1
4902554	55	C	08/13/2022	08:00	-133.855	49.591	0	393.20	0	4.3150	0	34.0070	0	26.967	0	389.473	0	-1e10	8	-1e10	8	-1E+10	1	-1E+10	1	-1E+10	1	-1E+10	1	-1E+10	1	-1E+10	1
4902554	55	C	08/13/2022	08:00	-133.855	49.591	0	398.10	0	4.3050	0	34.0110	0	26.971	0	394.322	0	-1e10	8	-1e10	8	-1E+10	1	-1E+10	1	-1E+10	1	-1E+10	1	-1E+10	1	-1E+10	1
4902554	55	C	08/13/2022	08:00	-133.855	49.591	0	403.00	0	4.2940	0	34.0160	0	26.976	0	399.171	0	-1e10	8	-1e10	8	-1E+10	1	-1E+10	1	-1E+10	1	-1E+10	1	-1E+10	1	-1E+10	1
4902554	55	C	08/13/2022	08:00	-133.855	49.591	0	408.10	0	4.2860	0	34.0200	0	26.980	0	404.218	0	-1e10	8	-1e10	8	-1E+10	1	-1E+10	1	-1E+10	1	-1E+10	1	-1E+10	1	-1E+10	1
4902554	55	C	08/13/2022	08:00	-133.855	49.591	0	413.10	0	4.2780	0	34.0250	0	26.985	0	409.165	0	-1e10	8	-1e10	8	-1E+10	1	-1E+10	1	-1E+10	1	-1E+10	1	-1E+10	1	-1E+10	1
4902554	55	C	08/13/2022	08:00	-133.855	49.591	0	418.20	0	4.2640	0	34.0330	0	26.993	0	414.211	0	-1e10	8	-1e10	8	-1E+10	1	-1E+10	1	-1E+10	1	-1E+10	1	-1E+10	1	-1E+10	1
4902554	55	C	08/13/2022	08:00	-133.855	49.591	0	422.90	0	4.2520	0	34.0380	0	26.998	0	418.862	0	-1e10	8	-1e10	8	-1E+10	1	-1E+10	1	-1E+10	1	-1E+10	1	-1E+10	1	-1E+10	1
4902554	55	C	08/13/2022	08:00	-133.855	49.591	0	427.70	0	4.2320	0	34.0470	0	27.007	0	423.611	0	-1e10	8	-1e10	8	-1E+10	1	-1E+10	1	-1E+10	1	-1E+10	1	-1E+10	1	-1E+10	1
4902554	55	C	08/13/2022	08:00	-133.855	49.591	0	433.10	0	4.2180	0	34.0500	0	27.011	0	428.954	0	-1e10	8	-1e10	8	-1E+10	1	-1E+10	1	-1E+10	1	-1E+10	1	-1E+10	1	-1E+10	1
4902554	55	C	08/13/2022	08:00	-133.855	49.591	0	438.10	0	4.2000	0	34.0530	0	27.016	0	433.901	0	-1e10	8	-1e10	8	-1E+10	1	-1E+10	1	-1E+10	1	-1E+10	1	-1E+10	1	-1E+10	1
4902554	55	C	08/13/2022	08:00	-133.855	49.591	0	442.70	0	4.1890	0	34.0540	0	27.017	0	438.452	0	-1e10	8	-1e10	8	-1E+10	1	-1E+10	1	-1E+10	1	-1E+10	1	-1E+10	1	-1E+10	1
4902554	55	C	08/13/2022	08:00	-133.855	49.591	0	447.90	0	4.1760	0	34.0570	0	27.021	0	443.596	0	-1e10	8	-1e10	8	-1E+10	1	-1E+10	1	-1E+10	1	-1E+10	1	-1E+10	1	-1E+10	1
4902554	55	C	08/13/2022	08:00	-133.855	49.591	0	453.20	0	4.1690	0	34.0600	0	27.024	0	448.840	0	-1e10	8	-1e10	8	-1E+10	1	-1E+10	1	-1E+10	1	-1E+10	1	-1E+10	1	-1E+10	1
4902554	55	C	08/13/2022	08:00	-133.855	49.591	0	458.00	0	4.1660	0	34.0620	0	27.026	0	453.588	0	-1e10	8	-1e10	8	-1E+10	1	-1E+10	1	-1E+10	1	-1E+10	1	-1E+10	1	-1E+10	1
4902554	55	C	08/13/2022	08:00	-133.855	49.591	0	462.90	0	4.1570	0	34.0670	0	27.031	0	458.436	0	-1e10	8	-1e10	8	-1E+10	1	-1E+10	1	-1E+10	1	-1E+10	1	-1E+10	1	-1E+10	1
4902554	55	C	08/13/2022	08:00	-133.855	49.591	0	467.90	0	4.1490	0	34.0710	0	27.035	0	463.382	0	-1e10	8	-1e10	8	-1E+10	1	-1E+10	1	-1E+10	1	-1E+10	1	-1E+10	1	-1E+10	1
4902554	55	C	08/13/2022	08:00	-133.855	49.591	0	473.00	0	4.1420	0	34.0770	0	27.041	0	468.427	0	-1e10	8	-1e10	8	-1E+10	1	-1E+10	1	-1E+10	1	-1E+10	1	-1E+10	1	-1E+10	1
4902554	55	C	08/13/2022	08:00	-133.855	49.591	0	477.80	0	4.1380	0	34.0790	0	27.043	0	473.175	0	-1e10	8	-1e10	8	-1E+10	1	-1E+10	1	-1E+10	1	-1E+10	1	-1E+10	1	-1E+10	1
4902554	55	C	08/13/2022	08:00	-133.855	49.591	0	482.60	0	4.1290	0	34.0820	0	27.046	0	477.923	0	-1e10	8	-1e10	8	-1E+10	1	-1E+10	1	-1E+10	1	-1E+10	1	-1E+10	1	-1E+10	1
4902554	55	C	08/13/2022	08:00	-133.855	49.591	0	488.00	0	4.1210	0	34.0850	0	27.050	0	483.264	0	-1e10	8	-1e10	8	-1E+10	1	-1E+10	1	-1E+10	1	-1E+10	1	-1E+10	1	-1E+10	1
4902554	55	C	08/13/2022	08:00	-133.855	49.591	0	493.00	0	4.1150	0	34.0870	0	27.052	0	488.210	0	-1e10	8	-1e10	8	-1E+10	1	-1E+10	1	-1E+10	1	-1E+10	1	-1E+10	1	-1E+10	1
4902554	55	C	08/13/2022	08:00	-133.855	49.591	0	498.00	0	4.1020	0	34.0920	0	27.057	0	493.156	0	-1e10	8	-1e10	8	-1E+10	1	-1E+10	1	-1E+10	1	-1E+10	1	-1E+10	1	-1E+10	1
4902554	55	C	08/13/2022	08:00	-133.855	49.591	0	503.00	0	4.1000	0	34.0930	0	27.058	0	498.101	0	-1e10	8	-1e10	8	-1E+10	1	-1E+10	1	-1E+10	1	-1E+10	1	-1E+10	1	-1E+10	1
4902554	55	C	08/13/2022	08:00	-133.855	49.591	0	507.90	0	4.0920	0	34.0970	0	27.062	0	502.947	0	-1e10	8	-1e10	8	-1E+10	1	-1E+10	1	-1E+10	1	-1E+10	1	-1E+10	1	-1E+10	1
4902554	55	C	08/13/2022	08:00	-133.855	49.591	0	512.80	0	4.0850	0	34.1000	0	27.065	0	507.794	0	-1e10	8	-1e10	8	-1E+10	1	-1E+10	1	-1E+10	1	-1E+10	1	-1E+10	1	-1E+10	1
4902554	55	C	08/13/2022	08:00	-133.855	49.591	0	517.80	0	4.0780	0	34.1040	0	27.069	0	512.739	0	-1e10	8	-1e10	8	-1E+10	1	-1E+10	1	-1E+10	1	-1E+10	1	-1E+10	1	-1E+10	1
4902554	55	C	08/13/2022	08:00	-133.855	49.591	0	522.70	0	4.0730	0	34.1070	0	27.072	0	517.585	0	-1e10	8	-1e10	8	-1E+10	1	-1E+10	1	-1E+10	1	-1E+10	1	-1E+10	1	-1E+10	1
4902554	55	C	08/13/2022	08:00	-133.855	49.591	0	527.70	0	4.0640	0	34.1120	0	27.077	0	522.529	0	-1e10	8	-1e10	8	-1E+10	1	-1E+10	1	-1E+10	1	-1E+10	1	-1E+10	1	-1E+10	1
4902554	55	C	08/13/2022	08:00	-133.855	49.591	0	532.70	0	4.0520	0	34.1170	0	27.082	0	527.474	0	-1e10	8	-1e10	8	-1E+10	1	-1E+10	1	-1E+10	1	-1E+10	1	-1E+10	1	-1E+10	1
4902554	55	C	08/13/2022	08:00	-133.855	49.591	0	537.70	0	4.0470	0	34.1200	0	27.085	0	532.419	0	-1e10	8	-1e10	8	-1E+10	1	-1E+10	1	-1E+10	1	-1E+10	1	-1E+10	1	-1E+10	1
4902554	55	C	08/13/2022	08:00	-133.855	49.591	0	543.20	0	4.0340	0	34.1240	0	27.090	0	537.857	0	-1e10	8	-1e10	8	-1E+10	1	-1E+10	1	-1E+10	1	-1E+10	1	-1E+10	1	-1E+10	1
4902554	55	C	08/13/2022	08:00	-133.855	49.591	0	548.10	0	4.0210	0	34.1300	0	27.096	0	542.703	0	-1e10	8	-1e10	8	-1E+10	1	-1E+10	1	-1E+10	1	-1E+10	1	-1E+10	1	-1E+10	1
4902554	55	C	08/13/2022	08:00	-133.855	49.591	0	553.10	0	4.0080	0	34.1340	0	27.101	0	547.647	0	-1e10	8	-1e10	8	-1E+10	1	-1E+10	1	-1E+10	1	-1E+10	1	-1E+10	1	-1E+10	1
4902554	55	C	08/13/2022	08:00	-133.855	49.591	0	558.00	0	3.9950	0	34.1390	0	27.106	0	552.492	0	-1e10	8	-1e10	8	-1E+10	1	-1E+10	1	-1E+10	1	-1E+10	1	-1E+10	1	-1E+10	1
4902554	55	C	08/13/2022	08:00	-133.855	49.591	0	563.10	0	3.9900	0	34.1430	0	27.110	0	557.535	0	-1e10	8	-1e10	8	-1E+10	1	-1E+10	1	-1E+10	1	-1E+10	1	-1E+10	1	-1E+10	1
4902554	55	C	08/13/2022	08:00	-133.855	49.591	0	568.10	0	3.9810	0	34.1470	0	27.114	0	562.479	0	-1e10	8	-1e10	8	-1E+10	1	-1E+10	1	-1E+10	1	-1E+10	1	-1E+10	1	-1E+10	1
4902554	55	C	08/13/2022	08:00	-133.855	49.591	0	573.00	0	3.9690	0	34.1500	0	27.117	0	567.324	0	-1e10	8	-1e10	8	-1E+10	1	-1E+10	1	-1E+10	1	-1E+10	1	-1E+10	1	-1E+10	1
4902554	55	C	08/13/2022	08:00	-133.855	49.591	0	577.90	0	3.9580	0	34.1540	0	27.122	0	572.168	0	-1e10	8	-1e10	8	-1E+10	1	-1E+10	1	-1E+10	1	-1E+10	1	-1E+10	1	-1E+10	1
4902554	55	C	08/13/2022	08:00	-133.855	49.591	0	582.80	0	3.9490	0	34.1570	0	27.125	0	577.013	0	-1e10	8	-1e10	8	-1E+10	1	-1E+10	1	-1E+10	1	-1E+10	1	-1E+10	1	-1E+10	1
4902554	55	C	08/13/2022	08:00	-133.855	49.591	0	588.10	0	3.9410	0	34.1610	0	27.129	0	582.253	0	-1e10	8	-1e10	8	-1E+10	1	-1E+10	1	-1E+10	1	-1E+10	1	-1E+10	1	-1E+10	1
4902554	55	C	08/13/2022	08:00	-133.855	49.591	0	592.90	0	3.9300	0	34.1640	0	27.133	0	586.999	0	-1e10	8	-1e10	8	-1E+10	1	-1E+10	1	-1E+10	1	-1E+10	1	-1E+10	1	-1E+10	1
4902554	55	C	08/13/2022	08:00	-133.855	49.591	0	597.50	0	3.9240	0	34.1670	0	27.136	0	591.546	0	-1e10	8	-1e10	8	-1E+10	1	-1E+10	1	-1E+10	1	-1E+10	1	-1E+10	1	-1E+10	1
4902554	55	C	08/13/2022	08:00	-133.855	49.591	0	602.60	0	3.9150	0	34.1700	0	27.139	0	596.588	0	-1e10	8	-1e10	8	-1E+10	1	-1E+10	1	-1E+10	1	-1E+10	1	-1E+10	1	-1E+10	1
4902554	55	C	08/13/2022	08:00	-133.855	49.591	0	607.70	0	3.9000	0	34.1740	0	27.144	0	601.630	0	-1e10	8	-1e10	8	-1E+10	1	-1E+10	1	-1E+10	1	-1E+10	1	-1E+10	1	-1E+10	1
4902554	55	C	08/13/2022	08:00	-133.855	49.591	0	612.60	0	3.8880	0	34.1770	0	27.147	0	606.474	0	-1e10	8	-1e10	8	-1E+10	1	-1E+10	1	-1E+10	1	-1E+10	1	-1E+10	1	-1E+10	1
4902554	55	C	08/13/2022	08:00	-133.855	49.591	0	617.60	0	3.8720	0	34.1820	0	27.153	0	611.416	0	-1e10	8	-1e10	8	-1E+10	1	-1E+10	1	-1E+10	1	-1E+10	1	-1E+10	1	-1E+10	1
4902554	55	C	08/13/2022	08:00	-133.855	49.591	0	622.80	0	3.8640	0	34.1850	0	27.156	0	616.557	0	-1e10	8	-1e10	8	-1E+10	1	-1E+10	1	-1E+10	1	-1E+10	1	-1E+10	1	-1E+10	1
4902554	55	C	08/13/2022	08:00	-133.855	49.591	0	627.80	0	3.8630	0	34.1860	0	27.157	0	621.499	0	-1e10	8	-1e10	8	-1E+10	1	-1E+10	1	-1E+10	1	-1E+10	1	-1E+10	1	-1E+10	1
4902554	55	C	08/13/2022	08:00	-133.855	49.591	0	632.80	0	3.8430	0	34.1890	0	27.162	0	626.441	0	-1e10	8	-1e10	8	-1E+10	1	-1E+10	1	-1E+10	1	-1E+10	1	-1E+10	1	-1E+10	1
4902554	55	C	08/13/2022	08:00	-133.855	49.591	0	637.90	0	3.8170	0	34.1940	0	27.168	0	631.482	0	-1e10	8	-1e10	8	-1E+10	1	-1E+10	1	-1E+10	1	-1E+10	1	-1E+10	1	-1E+10	1
4902554	55	C	08/13/2022	08:00	-133.855	49.591	0	642.90	0	3.8090	0	34.1960	0	27.171	0	636.424	0	-1e10	8	-1e10	8	-1E+10	1	-1E+10	1	-1E+10	1	-1E+10	1	-1E+10	1	-1E+10	1
4902554	55	C	08/13/2022	08:00	-133.855	49.591	0	647.90	0	3.7910	0	34.2000	0	27.176	0	641.366	0	-1e10	8	-1e10	8	-1E+10	1	-1E+10	1	-1E+10	1	-1E+10	1	-1E+10	1	-1E+10	1
4902554	55	C	08/13/2022	08:00	-133.855	49.591	0	652.90	0	3.7800	0	34.2040	0	27.180	0	646.308	0	-1e10	8	-1e10	8	-1E+10	1	-1E+10	1	-1E+10	1	-1E+10	1	-1E+10	1	-1E+10	1
4902554	55	C	08/13/2022	08:00	-133.855	49.591	0	658.00	0	3.7580	0	34.2110	0	27.188	0	651.349	0	-1e10	8	-1e10	8	-1E+10	1	-1E+10	1	-1E+10	1	-1E+10	1	-1E+10	1	-1E+10	1
4902554	55	C	08/13/2022	08:00	-133.855	49.591	0	663.10	0	3.7420	0	34.2140	0	27.192	0	656.389	0	-1e10	8	-1e10	8	-1E+10	1	-1E+10	1	-1E+10	1	-1E+10	1	-1E+10	1	-1E+10	1
4902554	55	C	08/13/2022	08:00	-133.855	49.591	0	667.90	0	3.7240	0	34.2190	0	27.198	0	661.133	0	-1e10	8	-1e10	8	-1E+10	1	-1E+10	1	-1E+10	1	-1E+10	1	-1E+10	1	-1E+10	1
4902554	55	C	08/13/2022	08:00	-133.855	49.591	0	672.80	0	3.7130	0	34.2220	0	27.201	0	665.976	0	-1e10	8	-1e10	8	-1E+10	1	-1E+10	1	-1E+10	1	-1E+10	1	-1E+10	1	-1E+10	1
4902554	55	C	08/13/2022	08:00	-133.855	49.591	0	677.70	0	3.6950	0	34.2270	0	27.207	0	670.818	0	-1e10	8	-1e10	8	-1E+10	1	-1E+10	1	-1E+10	1	-1E+10	1	-1E+10	1	-1E+10	1
4902554	55	C	08/13/2022	08:00	-133.855	49.591	0	682.70	0	3.6850	0	34.2300	0	27.210	0	675.759	0	-1e10	8	-1e10	8	-1E+10	1	-1E+10	1	-1E+10	1	-1E+10	1	-1E+10	1	-1E+10	1
4902554	55	C	08/13/2022	08:00	-133.855	49.591	0	687.80	0	3.6800	0	34.2320	0	27.212	0	680.799	0	-1e10	8	-1e10	8	-1E+10	1	-1E+10	1	-1E+10	1	-1E+10	1	-1E+10	1	-1E+10	1
4902554	55	C	08/13/2022	08:00	-133.855	49.591	0	693.10	0	3.6690	0	34.2350	0	27.216	0	686.036	0	-1e10	8	-1e10	8	-1E+10	1	-1E+10	1	-1E+10	1	-1E+10	1	-1E+10	1	-1E+10	1
4902554	55	C	08/13/2022	08:00	-133.855	49.591	0	698.10	0	3.6520	0	34.2380	0	27.220	0	690.977	0	-1e10	8	-1e10	8	-1E+10	1	-1E+10	1	-1E+10	1	-1E+10	1	-1E+10	1	-1E+10	1
4902554	55	C	08/13/2022	08:00	-133.855	49.591	0	703.00	0	3.6320	0	34.2420	0	27.225	0	695.819	0	-1e10	8	-1e10	8	-1E+10	1	-1E+10	1	-1E+10	1	-1E+10	1	-1E+10	1	-1E+10	1
4902554	55	C	08/13/2022	08:00	-133.855	49.591	0	708.20	0	3.6150	0	34.2450	0	27.229	0	700.957	0	-1e10	8	-1e10	8	-1E+10	1	-1E+10	1	-1E+10	1	-1E+10	1	-1E+10	1	-1E+10	1
4902554	55	C	08/13/2022	08:00	-133.855	49.591	0	713.10	0	3.6130	0	34.2460	0	27.230	0	705.799	0	-1e10	8	-1e10	8	-1E+10	1	-1E+10	1	-1E+10	1	-1E+10	1	-1E+10	1	-1E+10	1
4902554	55	C	08/13/2022	08:00	-133.855	49.591	0	718.00	0	3.5960	0	34.2480	0	27.234	0	710.640	0	-1e10	8	-1e10	8	-1E+10	1	-1E+10	1	-1E+10	1	-1E+10	1	-1E+10	1	-1E+10	1
4902554	55	C	08/13/2022	08:00	-133.855	49.591	0	722.70	0	3.5740	0	34.2520	0	27.239	0	715.284	0	-1e10	8	-1e10	8	-1E+10	1	-1E+10	1	-1E+10	1	-1E+10	1	-1E+10	1	-1E+10	1
4902554	55	C	08/13/2022	08:00	-133.855	49.591	0	727.50	0	3.5660	0	34.2540	0	27.241	0	720.026	0	-1e10	8	-1e10	8	-1E+10	1	-1E+10	1	-1E+10	1	-1E+10	1	-1E+10	1	-1E+10	1
4902554	55	C	08/13/2022	08:00	-133.855	49.591	0	732.60	0	3.5530	0	34.2570	0	27.245	0	725.065	0	-1e10	8	-1e10	8	-1E+10	1	-1E+10	1	-1E+10	1	-1E+10	1	-1E+10	1	-1E+10	1
4902554	55	C	08/13/2022	08:00	-133.855	49.591	0	737.80	0	3.5400	0	34.2590	0	27.248	0	730.202	0	-1e10	8	-1e10	8	-1E+10	1	-1E+10	1	-1E+10	1	-1E+10	1	-1E+10	1	-1E+10	1
4902554	55	C	08/13/2022	08:00	-133.855	49.591	0	742.90	0	3.5300	0	34.2620	0	27.251	0	735.241	0	-1e10	8	-1e10	8	-1E+10	1	-1E+10	1	-1E+10	1	-1E+10	1	-1E+10	1	-1E+10	1
4902554	55	C	08/13/2022	08:00	-133.855	49.591	0	748.00	0	3.5220	0	34.2640	0	27.254	0	740.279	0	-1e10	8	-1e10	8	-1E+10	1	-1E+10	1	-1E+10	1	-1E+10	1	-1E+10	1	-1E+10	1
4902554	55	C	08/13/2022	08:00	-133.855	49.591	0	753.30	0	3.5120	0	34.2660	0	27.256	0	745.515	0	-1e10	8	-1e10	8	-1E+10	1	-1E+10	1	-1E+10	1	-1E+10	1	-1E+10	1	-1E+10	1
4902554	55	C	08/13/2022	08:00	-133.855	49.591	0	758.10	0	3.5030	0	34.2680	0	27.259	0	750.257	0	-1e10	8	-1e10	8	-1E+10	1	-1E+10	1	-1E+10	1	-1E+10	1	-1E+10	1	-1E+10	1
4902554	55	C	08/13/2022	08:00	-133.855	49.591	0	763.00	0	3.4950	0	34.2700	0	27.261	0	755.097	0	-1e10	8	-1e10	8	-1E+10	1	-1E+10	1	-1E+10	1	-1E+10	1	-1E+10	1	-1E+10	1
4902554	55	C	08/13/2022	08:00	-133.855	49.591	0	767.90	0	3.4850	0	34.2720	0	27.264	0	759.938	0	-1e10	8	-1e10	8	-1E+10	1	-1E+10	1	-1E+10	1	-1E+10	1	-1E+10	1	-1E+10	1
4902554	55	C	08/13/2022	08:00	-133.855	49.591	0	772.90	0	3.4650	0	34.2770	0	27.270	0	764.877	0	-1e10	8	-1e10	8	-1E+10	1	-1E+10	1	-1E+10	1	-1E+10	1	-1E+10	1	-1E+10	1
4902554	55	C	08/13/2022	08:00	-133.855	49.591	0	777.90	0	3.4510	0	34.2790	0	27.273	0	769.816	0	-1e10	8	-1e10	8	-1E+10	1	-1E+10	1	-1E+10	1	-1E+10	1	-1E+10	1	-1E+10	1
4902554	55	C	08/13/2022	08:00	-133.855	49.591	0	783.00	0	3.4480	0	34.2800	0	27.274	0	774.853	0	-1e10	8	-1e10	8	-1E+10	1	-1E+10	1	-1E+10	1	-1E+10	1	-1E+10	1	-1E+10	1
4902554	55	C	08/13/2022	08:00	-133.855	49.591	0	788.00	0	3.4430	0	34.2800	0	27.274	0	779.792	0	-1e10	8	-1e10	8	-1E+10	1	-1E+10	1	-1E+10	1	-1E+10	1	-1E+10	1	-1E+10	1
4902554	55	C	08/13/2022	08:00	-133.855	49.591	0	793.20	0	3.4420	0	34.2810	0	27.275	0	784.928	0	-1e10	8	-1e10	8	-1E+10	1	-1E+10	1	-1E+10	1	-1E+10	1	-1E+10	1	-1E+10	1
4902554	55	C	08/13/2022	08:00	-133.855	49.591	0	798.30	0	3.4350	0	34.2830	0	27.277	0	789.965	0	-1e10	8	-1e10	8	-1E+10	1	-1E+10	1	-1E+10	1	-1E+10	1	-1E+10	1	-1E+10	1
4902554	55	C	08/13/2022	08:00	-133.855	49.591	0	802.90	0	3.4280	0	34.2850	0	27.280	0	794.508	0	-1e10	8	-1e10	8	-1E+10	1	-1E+10	1	-1E+10	1	-1E+10	1	-1E+10	1	-1E+10	1
4902554	55	C	08/13/2022	08:00	-133.855	49.591	0	807.50	0	3.4220	0	34.2860	0	27.281	0	799.051	0	-1e10	8	-1e10	8	-1E+10	1	-1E+10	1	-1E+10	1	-1E+10	1	-1E+10	1	-1E+10	1
4902554	55	C	08/13/2022	08:00	-133.855	49.591	0	812.50	0	3.4130	0	34.2880	0	27.284	0	803.989	0	-1e10	8	-1e10	8	-1E+10	1	-1E+10	1	-1E+10	1	-1E+10	1	-1E+10	1	-1E+10	1
4902554	55	C	08/13/2022	08:00	-133.855	49.591	0	817.60	0	3.3950	0	34.2910	0	27.288	0	809.026	0	-1e10	8	-1e10	8	-1E+10	1	-1E+10	1	-1E+10	1	-1E+10	1	-1E+10	1	-1E+10	1
4902554	55	C	08/13/2022	08:00	-133.855	49.591	0	822.70	0	3.3800	0	34.2930	0	27.291	0	814.063	0	-1e10	8	-1e10	8	-1E+10	1	-1E+10	1	-1E+10	1	-1E+10	1	-1E+10	1	-1E+10	1
4902554	55	C	08/13/2022	08:00	-133.855	49.591	0	827.80	0	3.3740	0	34.2950	0	27.293	0	819.099	0	-1e10	8	-1e10	8	-1E+10	1	-1E+10	1	-1E+10	1	-1E+10	1	-1E+10	1	-1E+10	1
4902554	55	C	08/13/2022	08:00	-133.855	49.591	0	832.90	0	3.3640	0	34.2970	0	27.296	0	824.136	0	-1e10	8	-1e10	8	-1E+10	1	-1E+10	1	-1E+10	1	-1E+10	1	-1E+10	1	-1E+10	1
4902554	55	C	08/13/2022	08:00	-133.855	49.591	0	838.00	0	3.3560	0	34.3000	0	27.299	0	829.172	0	-1e10	8	-1e10	8	-1E+10	1	-1E+10	1	-1E+10	1	-1E+10	1	-1E+10	1	-1E+10	1
4902554	55	C	08/13/2022	08:00	-133.855	49.591	0	843.10	0	3.3460	0	34.3020	0	27.301	0	834.208	0	-1e10	8	-1e10	8	-1E+10	1	-1E+10	1	-1E+10	1	-1E+10	1	-1E+10	1	-1E+10	1
4902554	55	C	08/13/2022	08:00	-133.855	49.591	0	848.10	0	3.3330	0	34.3050	0	27.305	0	839.145	0	-1e10	8	-1e10	8	-1E+10	1	-1E+10	1	-1E+10	1	-1E+10	1	-1E+10	1	-1E+10	1
4902554	55	C	08/13/2022	08:00	-133.855	49.591	0	853.20	0	3.3240	0	34.3070	0	27.307	0	844.181	0	-1e10	8	-1e10	8	-1E+10	1	-1E+10	1	-1E+10	1	-1E+10	1	-1E+10	1	-1E+10	1
4902554	55	C	08/13/2022	08:00	-133.855	49.591	0	858.20	0	3.3120	0	34.3090	0	27.310	0	849.118	0	-1e10	8	-1e10	8	-1E+10	1	-1E+10	1	-1E+10	1	-1E+10	1	-1E+10	1	-1E+10	1
4902554	55	C	08/13/2022	08:00	-133.855	49.591	0	863.20	0	3.3040	0	34.3100	0	27.312	0	854.055	0	-1e10	8	-1e10	8	-1E+10	1	-1E+10	1	-1E+10	1	-1E+10	1	-1E+10	1	-1E+10	1
4902554	55	C	08/13/2022	08:00	-133.855	49.591	0	868.20	0	3.2880	0	34.3130	0	27.316	0	858.992	0	-1e10	8	-1e10	8	-1E+10	1	-1E+10	1	-1E+10	1	-1E+10	1	-1E+10	1	-1E+10	1
4902554	55	C	08/13/2022	08:00	-133.855	49.591	0	873.30	0	3.2760	0	34.3150	0	27.318	0	864.027	0	-1e10	8	-1e10	8	-1E+10	1	-1E+10	1	-1E+10	1	-1E+10	1	-1E+10	1	-1E+10	1
4902554	55	C	08/13/2022	08:00	-133.855	49.591	0	878.30	0	3.2710	0	34.3160	0	27.320	0	868.963	0	-1e10	8	-1e10	8	-1E+10	1	-1E+10	1	-1E+10	1	-1E+10	1	-1E+10	1	-1E+10	1
4902554	55	C	08/13/2022	08:00	-133.855	49.591	0	883.40	0	3.2600	0	34.3180	0	27.322	0	873.999	0	-1e10	8	-1e10	8	-1E+10	1	-1E+10	1	-1E+10	1	-1E+10	1	-1E+10	1	-1E+10	1
4902554	55	C	08/13/2022	08:00	-133.855	49.591	0	887.90	0	3.2490	0	34.3200	0	27.325	0	878.441	0	-1e10	8	-1e10	8	-1E+10	1	-1E+10	1	-1E+10	1	-1E+10	1	-1E+10	1	-1E+10	1
4902554	55	C	08/13/2022	08:00	-133.855	49.591	0	892.50	0	3.2450	0	34.3210	0	27.326	0	882.983	0	-1e10	8	-1e10	8	-1E+10	1	-1E+10	1	-1E+10	1	-1E+10	1	-1E+10	1	-1E+10	1
4902554	55	C	08/13/2022	08:00	-133.855	49.591	0	897.50	0	3.2290	0	34.3240	0	27.330	0	887.919	0	-1e10	8	-1e10	8	-1E+10	1	-1E+10	1	-1E+10	1	-1E+10	1	-1E+10	1	-1E+10	1
4902554	55	C	08/13/2022	08:00	-133.855	49.591	0	902.60	0	3.2250	0	34.3250	0	27.331	0	892.953	0	-1e10	8	-1e10	8	-1E+10	1	-1E+10	1	-1E+10	1	-1E+10	1	-1E+10	1	-1E+10	1
4902554	55	C	08/13/2022	08:00	-133.855	49.591	0	907.70	0	3.2210	0	34.3260	0	27.333	0	897.988	0	-1e10	8	-1e10	8	-1E+10	1	-1E+10	1	-1E+10	1	-1E+10	1	-1E+10	1	-1E+10	1
4902554	55	C	08/13/2022	08:00	-133.855	49.591	0	912.90	0	3.2110	0	34.3280	0	27.335	0	903.121	0	-1e10	8	-1e10	8	-1E+10	1	-1E+10	1	-1E+10	1	-1E+10	1	-1E+10	1	-1E+10	1
4902554	55	C	08/13/2022	08:00	-133.855	49.591	0	918.00	0	3.1970	0	34.3310	0	27.339	0	908.155	0	-1e10	8	-1e10	8	-1E+10	1	-1E+10	1	-1E+10	1	-1E+10	1	-1E+10	1	-1E+10	1
4902554	55	C	08/13/2022	08:00	-133.855	49.591	0	923.20	0	3.1860	0	34.3330	0	27.341	0	913.288	0	-1e10	8	-1e10	8	-1E+10	1	-1E+10	1	-1E+10	1	-1E+10	1	-1E+10	1	-1E+10	1
4902554	55	C	08/13/2022	08:00	-133.855	49.591	0	928.40	0	3.1740	0	34.3360	0	27.345	0	918.421	0	-1e10	8	-1e10	8	-1E+10	1	-1E+10	1	-1E+10	1	-1E+10	1	-1E+10	1	-1E+10	1
4902554	55	C	08/13/2022	08:00	-133.855	49.591	0	933.10	0	3.1650	0	34.3380	0	27.347	0	923.060	0	-1e10	8	-1e10	8	-1E+10	1	-1E+10	1	-1E+10	1	-1E+10	1	-1E+10	1	-1E+10	1
4902554	55	C	08/13/2022	08:00	-133.855	49.591	0	938.00	0	3.1590	0	34.3400	0	27.350	0	927.897	0	-1e10	8	-1e10	8	-1E+10	1	-1E+10	1	-1E+10	1	-1E+10	1	-1E+10	1	-1E+10	1
4902554	55	C	08/13/2022	08:00	-133.855	49.591	0	943.00	0	3.1450	0	34.3430	0	27.353	0	932.832	0	-1e10	8	-1e10	8	-1E+10	1	-1E+10	1	-1E+10	1	-1E+10	1	-1E+10	1	-1E+10	1
4902554	55	C	08/13/2022	08:00	-133.855	49.591	0	948.00	0	3.1400	0	34.3440	0	27.355	0	937.766	0	-1e10	8	-1e10	8	-1E+10	1	-1E+10	1	-1E+10	1	-1E+10	1	-1E+10	1	-1E+10	1
4902554	55	C	08/13/2022	08:00	-133.855	49.591	0	953.10	0	3.1270	0	34.3460	0	27.357	0	942.800	0	-1e10	8	-1e10	8	-1E+10	1	-1E+10	1	-1E+10	1	-1E+10	1	-1E+10	1	-1E+10	1
4902554	55	C	08/13/2022	08:00	-133.855	49.591	0	958.20	0	3.1200	0	34.3480	0	27.360	0	947.833	0	-1e10	8	-1e10	8	-1E+10	1	-1E+10	1	-1E+10	1	-1E+10	1	-1E+10	1	-1E+10	1
4902554	55	C	08/13/2022	08:00	-133.855	49.591	0	962.90	0	3.1100	0	34.3500	0	27.362	0	952.472	0	-1e10	8	-1e10	8	-1E+10	1	-1E+10	1	-1E+10	1	-1E+10	1	-1E+10	1	-1E+10	1
4902554	55	C	08/13/2022	08:00	-133.855	49.591	0	967.50	0	3.1030	0	34.3520	0	27.364	0	957.011	0	-1e10	8	-1e10	8	-1E+10	1	-1E+10	1	-1E+10	1	-1E+10	1	-1E+10	1	-1E+10	1
4902554	55	C	08/13/2022	08:00	-133.855	49.591	0	972.60	0	3.0950	0	34.3530	0	27.366	0	962.044	0	-1e10	8	-1e10	8	-1E+10	1	-1E+10	1	-1E+10	1	-1E+10	1	-1E+10	1	-1E+10	1
4902554	55	C	08/13/2022	08:00	-133.855	49.591	0	977.60	0	3.0830	0	34.3560	0	27.370	0	966.979	0	-1e10	8	-1e10	8	-1E+10	1	-1E+10	1	-1E+10	1	-1E+10	1	-1E+10	1	-1E+10	1
4902554	55	C	08/13/2022	08:00	-133.855	49.591	0	982.70	0	3.0770	0	34.3570	0	27.371	0	972.011	0	-1e10	8	-1e10	8	-1E+10	1	-1E+10	1	-1E+10	1	-1E+10	1	-1E+10	1	-1E+10	1
4902554	55	C	08/13/2022	08:00	-133.855	49.591	0	987.80	0	3.0680	0	34.3590	0	27.373	0	977.044	0	-1e10	8	-1e10	8	-1E+10	1	-1E+10	1	-1E+10	1	-1E+10	1	-1E+10	1	-1E+10	1
4902554	55	C	08/13/2022	08:00	-133.855	49.591	0	993.00	0	3.0550	0	34.3620	0	27.377	0	982.175	0	-1e10	8	-1e10	8	-1E+10	1	-1E+10	1	-1E+10	1	-1E+10	1	-1E+10	1	-1E+10	1
4902554	55	C	08/13/2022	08:00	-133.855	49.591	0	997.80	0	3.0390	0	34.3650	0	27.381	0	986.912	0	-1e10	8	-1e10	8	-1E+10	1	-1E+10	1	-1E+10	1	-1E+10	1	-1E+10	1	-1E+10	1
4902554	55	C	08/13/2022	08:00	-133.855	49.591	0	1005.30	0	3.0130	0	34.3710	0	27.388	0	994.312	0	-1e10	8	-1e10	8	-1E+10	1	-1E+10	1	-1E+10	1	-1E+10	1	-1E+10	1	-1E+10	1
4902554	55	C	08/13/2022	08:00	-133.855	49.591	0	1015.60	0	2.9930	0	34.3760	0	27.394	0	1004.475	0	-1e10	8	-1e10	8	-1E+10	1	-1E+10	1	-1E+10	1	-1E+10	1	-1E+10	1	-1E+10	1
4902554	55	C	08/13/2022	08:00	-133.855	49.591	0	1025.30	0	2.9760	0	34.3800	0	27.399	0	1014.045	0	-1e10	8	-1e10	8	-1E+10	1	-1E+10	1	-1E+10	1	-1E+10	1	-1E+10	1	-1E+10	1
4902554	55	C	08/13/2022	08:00	-133.855	49.591	0	1035.30	0	2.9570	0	34.3840	0	27.404	0	1023.911	0	-1e10	8	-1e10	8	-1E+10	1	-1E+10	1	-1E+10	1	-1E+10	1	-1E+10	1	-1E+10	1
4902554	55	C	08/13/2022	08:00	-133.855	49.591	0	1045.60	0	2.9360	0	34.3890	0	27.410	0	1034.072	0	-1e10	8	-1e10	8	-1E+10	1	-1E+10	1	-1E+10	1	-1E+10	1	-1E+10	1	-1E+10	1
4902554	55	C	08/13/2022	08:00	-133.855	49.591	0	1055.70	0	2.9140	0	34.3930	0	27.415	0	1044.036	0	-1e10	8	-1e10	8	-1E+10	1	-1E+10	1	-1E+10	1	-1E+10	1	-1E+10	1	-1E+10	1
4902554	55	C	08/13/2022	08:00	-133.855	49.591	0	1065.40	0	2.9020	0	34.3960	0	27.418	0	1053.604	0	-1e10	8	-1e10	8	-1E+10	1	-1E+10	1	-1E+10	1	-1E+10	1	-1E+10	1	-1E+10	1
4902554	55	C	08/13/2022	08:00	-133.855	49.591	0	1075.40	0	2.8930	0	34.3980	0	27.421	0	1063.468	0	-1e10	8	-1e10	8	-1E+10	1	-1E+10	1	-1E+10	1	-1E+10	1	-1E+10	1	-1E+10	1
4902554	55	C	08/13/2022	08:00	-133.855	49.591	0	1085.60	0	2.8850	0	34.4000	0	27.423	0	1073.529	0	-1e10	8	-1e10	8	-1E+10	1	-1E+10	1	-1E+10	1	-1E+10	1	-1E+10	1	-1E+10	1
4902554	55	C	08/13/2022	08:00	-133.855	49.591	0	1095.60	0	2.8710	0	34.4020	0	27.426	0	1083.392	0	-1e10	8	-1e10	8	-1E+10	1	-1E+10	1	-1E+10	1	-1E+10	1	-1E+10	1	-1E+10	1
4902554	55	C	08/13/2022	08:00	-133.855	49.591	0	1105.20	0	2.8600	0	34.4050	0	27.429	0	1092.860	0	-1e10	8	-1e10	8	-1E+10	1	-1E+10	1	-1E+10	1	-1E+10	1	-1E+10	1	-1E+10	1
4902554	55	C	08/13/2022	08:00	-133.855	49.591	0	1115.00	0	2.8510	0	34.4080	0	27.433	0	1102.525	0	-1e10	8	-1e10	8	-1E+10	1	-1E+10	1	-1E+10	1	-1E+10	1	-1E+10	1	-1E+10	1
4902554	55	C	08/13/2022	08:00	-133.855	49.591	0	1125.00	0	2.8380	0	34.4100	0	27.435	0	1112.386	0	-1e10	8	-1e10	8	-1E+10	1	-1E+10	1	-1E+10	1	-1E+10	1	-1E+10	1	-1E+10	1
4902554	55	C	08/13/2022	08:00	-133.855	49.591	0	1135.10	0	2.8280	0	34.4110	0	27.437	0	1122.346	0	-1e10	8	-1e10	8	-1E+10	1	-1E+10	1	-1E+10	1	-1E+10	1	-1E+10	1	-1E+10	1
4902554	55	C	08/13/2022	08:00	-133.855	49.591	0	1145.30	0	2.8200	0	34.4130	0	27.440	0	1132.404	0	-1e10	8	-1e10	8	-1E+10	1	-1E+10	1	-1E+10	1	-1E+10	1	-1E+10	1	-1E+10	1
4902554	55	C	08/13/2022	08:00	-133.855	49.591	0	1155.50	0	2.8090	0	34.4150	0	27.442	0	1142.462	0	-1e10	8	-1e10	8	-1E+10	1	-1E+10	1	-1E+10	1	-1E+10	1	-1E+10	1	-1E+10	1
4902554	55	C	08/13/2022	08:00	-133.855	49.591	0	1165.20	0	2.7960	0	34.4170	0	27.445	0	1152.025	0	-1e10	8	-1e10	8	-1E+10	1	-1E+10	1	-1E+10	1	-1E+10	1	-1E+10	1	-1E+10	1
4902554	55	C	08/13/2022	08:00	-133.855	49.591	0	1175.20	0	2.7860	0	34.4190	0	27.448	0	1161.885	0	-1e10	8	-1e10	8	-1E+10	1	-1E+10	1	-1E+10	1	-1E+10	1	-1E+10	1	-1E+10	1
4902554	55	C	08/13/2022	08:00	-133.855	49.591	0	1185.40	0	2.7760	0	34.4210	0	27.450	0	1171.941	0	-1e10	8	-1e10	8	-1E+10	1	-1E+10	1	-1E+10	1	-1E+10	1	-1E+10	1	-1E+10	1
4902554	55	C	08/13/2022	08:00	-133.855	49.591	0	1195.40	0	2.7550	0	34.4250	0	27.455	0	1181.799	0	-1e10	8	-1e10	8	-1E+10	1	-1E+10	1	-1E+10	1	-1E+10	1	-1E+10	1	-1E+10	1
4902554	55	C	08/13/2022	08:00	-133.855	49.591	0	1205.70	0	2.7440	0	34.4270	0	27.458	0	1191.953	0	-1e10	8	-1e10	8	-1E+10	1	-1E+10	1	-1E+10	1	-1E+10	1	-1E+10	1	-1E+10	1
4902554	55	C	08/13/2022	08:00	-133.855	49.591	0	1215.60	0	2.7340	0	34.4300	0	27.461	0	1201.712	0	-1e10	8	-1e10	8	-1E+10	1	-1E+10	1	-1E+10	1	-1E+10	1	-1E+10	1	-1E+10	1
4902554	55	C	08/13/2022	08:00	-133.855	49.591	0	1225.40	0	2.7240	0	34.4310	0	27.463	0	1211.372	0	-1e10	8	-1e10	8	-1E+10	1	-1E+10	1	-1E+10	1	-1E+10	1	-1E+10	1	-1E+10	1
4902554	55	C	08/13/2022	08:00	-133.855	49.591	0	1235.20	0	2.7050	0	34.4350	0	27.468	0	1221.031	0	-1e10	8	-1e10	8	-1E+10	1	-1E+10	1	-1E+10	1	-1E+10	1	-1E+10	1	-1E+10	1
4902554	55	C	08/13/2022	08:00	-133.855	49.591	0	1245.20	0	2.6930	0	34.4370	0	27.470	0	1230.887	0	-1e10	8	-1e10	8	-1E+10	1	-1E+10	1	-1E+10	1	-1E+10	1	-1E+10	1	-1E+10	1
4902554	55	C	08/13/2022	08:00	-133.855	49.591	0	1255.30	0	2.6720	0	34.4410	0	27.475	0	1240.841	0	-1e10	8	-1e10	8	-1E+10	1	-1E+10	1	-1E+10	1	-1E+10	1	-1E+10	1	-1E+10	1
4902554	55	C	08/13/2022	08:00	-133.855	49.591	0	1265.20	0	2.6570	0	34.4430	0	27.478	0	1250.598	0	-1e10	8	-1e10	8	-1E+10	1	-1E+10	1	-1E+10	1	-1E+10	1	-1E+10	1	-1E+10	1
4902554	55	C	08/13/2022	08:00	-133.855	49.591	0	1275.40	0	2.6420	0	34.4460	0	27.482	0	1260.649	0	-1e10	8	-1e10	8	-1E+10	1	-1E+10	1	-1E+10	1	-1E+10	1	-1E+10	1	-1E+10	1
4902554	55	C	08/13/2022	08:00	-133.855	49.591	0	1285.30	0	2.6310	0	34.4480	0	27.485	0	1270.405	0	-1e10	8	-1e10	8	-1E+10	1	-1E+10	1	-1E+10	1	-1E+10	1	-1E+10	1	-1E+10	1
4902554	55	C	08/13/2022	08:00	-133.855	49.591	0	1295.10	0	2.6140	0	34.4520	0	27.489	0	1280.062	0	-1e10	8	-1e10	8	-1E+10	1	-1E+10	1	-1E+10	1	-1E+10	1	-1E+10	1	-1E+10	1
4902554	55	C	08/13/2022	08:00	-133.855	49.591	0	1305.30	0	2.6060	0	34.4530	0	27.491	0	1290.112	0	-1e10	8	-1e10	8	-1E+10	1	-1E+10	1	-1E+10	1	-1E+10	1	-1E+10	1	-1E+10	1
4902554	55	C	08/13/2022	08:00	-133.855	49.591	0	1315.20	0	2.5870	0	34.4560	0	27.495	0	1299.866	0	-1e10	8	-1e10	8	-1E+10	1	-1E+10	1	-1E+10	1	-1E+10	1	-1E+10	1	-1E+10	1
4902554	55	C	08/13/2022	08:00	-133.855	49.591	0	1325.20	0	2.5690	0	34.4600	0	27.500	0	1309.719	0	-1e10	8	-1e10	8	-1E+10	1	-1E+10	1	-1E+10	1	-1E+10	1	-1E+10	1	-1E+10	1
4902554	55	C	08/13/2022	08:00	-133.855	49.591	0	1335.50	0	2.5590	0	34.4620	0	27.502	0	1319.866	0	-1e10	8	-1e10	8	-1E+10	1	-1E+10	1	-1E+10	1	-1E+10	1	-1E+10	1	-1E+10	1
4902554	55	C	08/13/2022	08:00	-133.855	49.591	0	1345.40	0	2.5470	0	34.4640	0	27.505	0	1329.619	0	-1e10	8	-1e10	8	-1E+10	1	-1E+10	1	-1E+10	1	-1E+10	1	-1E+10	1	-1E+10	1
4902554	55	C	08/13/2022	08:00	-133.855	49.591	0	1355.70	0	2.5310	0	34.4680	0	27.510	0	1339.766	0	-1e10	8	-1e10	8	-1E+10	1	-1E+10	1	-1E+10	1	-1E+10	1	-1E+10	1	-1E+10	1
4902554	55	C	08/13/2022	08:00	-133.855	49.591	0	1365.50	0	2.5180	0	34.4710	0	27.513	0	1349.419	0	-1e10	8	-1e10	8	-1E+10	1	-1E+10	1	-1E+10	1	-1E+10	1	-1E+10	1	-1E+10	1
4902554	55	C	08/13/2022	08:00	-133.855	49.591	0	1375.50	0	2.5100	0	34.4730	0	27.515	0	1359.269	0	-1e10	8	-1e10	8	-1E+10	1	-1E+10	1	-1E+10	1	-1E+10	1	-1E+10	1	-1E+10	1
4902554	55	C	08/13/2022	08:00	-133.855	49.591	0	1385.50	0	2.4950	0	34.4760	0	27.519	0	1369.119	0	-1e10	8	-1e10	8	-1E+10	1	-1E+10	1	-1E+10	1	-1E+10	1	-1E+10	1	-1E+10	1
4902554	55	C	08/13/2022	08:00	-133.855	49.591	0	1395.20	0	2.4780	0	34.4790	0	27.523	0	1378.672	0	-1e10	8	-1e10	8	-1E+10	1	-1E+10	1	-1E+10	1	-1E+10	1	-1E+10	1	-1E+10	1
4902554	55	C	08/13/2022	08:00	-133.855	49.591	0	1405.30	0	2.4690	0	34.4810	0	27.525	0	1388.619	0	-1e10	8	-1e10	8	-1E+10	1	-1E+10	1	-1E+10	1	-1E+10	1	-1E+10	1	-1E+10	1
4902554	55	C	08/13/2022	08:00	-133.855	49.591	0	1415.60	0	2.4610	0	34.4820	0	27.527	0	1398.763	0	-1e10	8	-1e10	8	-1E+10	1	-1E+10	1	-1E+10	1	-1E+10	1	-1E+10	1	-1E+10	1
4902554	55	C	08/13/2022	08:00	-133.855	49.591	0	1425.70	0	2.4520	0	34.4840	0	27.529	0	1408.709	0	-1e10	8	-1e10	8	-1E+10	1	-1E+10	1	-1E+10	1	-1E+10	1	-1E+10	1	-1E+10	1
4902554	55	C	08/13/2022	08:00	-133.855	49.591	0	1435.50	0	2.4410	0	34.4860	0	27.532	0	1418.359	0	-1e10	8	-1e10	8	-1E+10	1	-1E+10	1	-1E+10	1	-1E+10	1	-1E+10	1	-1E+10	1
4902554	55	C	08/13/2022	08:00	-133.855	49.591	0	1445.50	0	2.4300	0	34.4880	0	27.535	0	1428.206	0	-1e10	8	-1e10	8	-1E+10	1	-1E+10	1	-1E+10	1	-1E+10	1	-1E+10	1	-1E+10	1
4902554	55	C	08/13/2022	08:00	-133.855	49.591	0	1455.70	0	2.4200	0	34.4900	0	27.537	0	1438.249	0	-1e10	8	-1e10	8	-1E+10	1	-1E+10	1	-1E+10	1	-1E+10	1	-1E+10	1	-1E+10	1
4902554	55	C	08/13/2022	08:00	-133.855	49.591	0	1465.30	0	2.4060	0	34.4930	0	27.541	0	1447.702	0	-1e10	8	-1e10	8	-1E+10	1	-1E+10	1	-1E+10	1	-1E+10	1	-1E+10	1	-1E+10	1
4902554	55	C	08/13/2022	08:00	-133.855	49.591	0	1475.20	0	2.3980	0	34.4950	0	27.543	0	1457.448	0	-1e10	8	-1e10	8	-1E+10	1	-1E+10	1	-1E+10	1	-1E+10	1	-1E+10	1	-1E+10	1
4902554	55	C	08/13/2022	08:00	-133.855	49.591	0	1485.60	0	2.3910	0	34.4960	0	27.544	0	1467.687	0	-1e10	8	-1e10	8	-1E+10	1	-1E+10	1	-1E+10	1	-1E+10	1	-1E+10	1	-1E+10	1
4902554	55	C	08/13/2022	08:00	-133.855	49.591	0	1495.60	0	2.3820	0	34.4980	0	27.547	0	1477.532	0	-1e10	8	-1e10	8	-1E+10	1	-1E+10	1	-1E+10	1	-1E+10	1	-1E+10	1	-1E+10	1
4902554	55	C	08/13/2022	08:00	-133.855	49.591	0	1505.50	0	2.3700	0	34.5010	0	27.550	0	1487.277	0	-1e10	8	-1e10	8	-1E+10	1	-1E+10	1	-1E+10	1	-1E+10	1	-1E+10	1	-1E+10	1
4902554	55	C	08/13/2022	08:00	-133.855	49.591	0	1515.30	0	2.3630	0	34.5030	0	27.552	0	1496.924	0	-1e10	8	-1e10	8	-1E+10	1	-1E+10	1	-1E+10	1	-1E+10	1	-1E+10	1	-1E+10	1
4902554	55	C	08/13/2022	08:00	-133.855	49.591	0	1525.00	0	2.3540	0	34.5040	0	27.554	0	1506.472	0	-1e10	8	-1e10	8	-1E+10	1	-1E+10	1	-1E+10	1	-1E+10	1	-1E+10	1	-1E+10	1
4902554	55	C	08/13/2022	08:00	-133.855	49.591	0	1535.20	0	2.3410	0	34.5070	0	27.558	0	1516.511	0	-1e10	8	-1e10	8	-1E+10	1	-1E+10	1	-1E+10	1	-1E+10	1	-1E+10	1	-1E+10	1
4902554	55	C	08/13/2022	08:00	-133.855	49.591	0	1545.50	0	2.3240	0	34.5100	0	27.561	0	1526.649	0	-1e10	8	-1e10	8	-1E+10	1	-1E+10	1	-1E+10	1	-1E+10	1	-1E+10	1	-1E+10	1
4902554	55	C	08/13/2022	08:00	-133.855	49.591	0	1555.50	0	2.3060	0	34.5140	0	27.566	0	1536.491	0	-1e10	8	-1e10	8	-1E+10	1	-1E+10	1	-1E+10	1	-1E+10	1	-1E+10	1	-1E+10	1
4902554	55	C	08/13/2022	08:00	-133.855	49.591	0	1565.30	0	2.2940	0	34.5160	0	27.569	0	1546.135	0	-1e10	8	-1e10	8	-1E+10	1	-1E+10	1	-1E+10	1	-1E+10	1	-1E+10	1	-1E+10	1
4902554	55	C	08/13/2022	08:00	-133.855	49.591	0	1575.00	0	2.2880	0	34.5170	0	27.570	0	1555.681	0	-1e10	8	-1e10	8	-1E+10	1	-1E+10	1	-1E+10	1	-1E+10	1	-1E+10	1	-1E+10	1
4902554	55	C	08/13/2022	08:00	-133.855	49.591	0	1585.40	0	2.2800	0	34.5190	0	27.572	0	1565.915	0	-1e10	8	-1e10	8	-1E+10	1	-1E+10	1	-1E+10	1	-1E+10	1	-1E+10	1	-1E+10	1
4902554	55	C	08/13/2022	08:00	-133.855	49.591	0	1595.40	0	2.2690	0	34.5210	0	27.575	0	1575.755	0	-1e10	8	-1e10	8	-1E+10	1	-1E+10	1	-1E+10	1	-1E+10	1	-1E+10	1	-1E+10	1
4902554	55	C	08/13/2022	08:00	-133.855	49.591	0	1605.10	0	2.2540	0	34.5240	0	27.579	0	1585.299	0	-1e10	8	-1e10	8	-1E+10	1	-1E+10	1	-1E+10	1	-1E+10	1	-1E+10	1	-1E+10	1
4902554	55	C	08/13/2022	08:00	-133.855	49.591	0	1615.00	0	2.2320	0	34.5280	0	27.584	0	1595.039	0	-1e10	8	-1e10	8	-1E+10	1	-1E+10	1	-1E+10	1	-1E+10	1	-1E+10	1	-1E+10	1
4902554	55	C	08/13/2022	08:00	-133.855	49.591	0	1625.20	0	2.2090	0	34.5330	0	27.590	0	1605.075	0	-1e10	8	-1e10	8	-1E+10	1	-1E+10	1	-1E+10	1	-1E+10	1	-1E+10	1	-1E+10	1
4902554	55	C	08/13/2022	08:00	-133.855	49.591	0	1635.20	0	2.1960	0	34.5350	0	27.592	0	1614.913	0	-1e10	8	-1e10	8	-1E+10	1	-1E+10	1	-1E+10	1	-1E+10	1	-1E+10	1	-1E+10	1
4902554	55	C	08/13/2022	08:00	-133.855	49.591	0	1645.30	0	2.1870	0	34.5370	0	27.595	0	1624.849	0	-1e10	8	-1e10	8	-1E+10	1	-1E+10	1	-1E+10	1	-1E+10	1	-1E+10	1	-1E+10	1
4902554	55	C	08/13/2022	08:00	-133.855	49.591	0	1655.60	0	2.1780	0	34.5390	0	27.597	0	1634.981	0	-1e10	8	-1e10	8	-1E+10	1	-1E+10	1	-1E+10	1	-1E+10	1	-1E+10	1	-1E+10	1
4902554	55	C	08/13/2022	08:00	-133.855	49.591	0	1665.60	0	2.1650	0	34.5410	0	27.600	0	1644.818	0	-1e10	8	-1e10	8	-1E+10	1	-1E+10	1	-1E+10	1	-1E+10	1	-1E+10	1	-1E+10	1
4902554	55	C	08/13/2022	08:00	-133.855	49.591	0	1675.60	0	2.1540	0	34.5430	0	27.602	0	1654.654	0	-1e10	8	-1e10	8	-1E+10	1	-1E+10	1	-1E+10	1	-1E+10	1	-1E+10	1	-1E+10	1
4902554	55	C	08/13/2022	08:00	-133.855	49.591	0	1685.30	0	2.1430	0	34.5450	0	27.605	0	1664.195	0	-1e10	8	-1e10	8	-1E+10	1	-1E+10	1	-1E+10	1	-1E+10	1	-1E+10	1	-1E+10	1
4902554	55	C	08/13/2022	08:00	-133.855	49.591	0	1695.40	0	2.1300	0	34.5470	0	27.607	0	1674.128	0	-1e10	8	-1e10	8	-1E+10	1	-1E+10	1	-1E+10	1	-1E+10	1	-1E+10	1	-1E+10	1
4902554	55	C	08/13/2022	08:00	-133.855	49.591	0	1705.30	0	2.1230	0	34.5480	0	27.609	0	1683.865	0	-1e10	8	-1e10	8	-1E+10	1	-1E+10	1	-1E+10	1	-1E+10	1	-1E+10	1	-1E+10	1
4902554	55	C	08/13/2022	08:00	-133.855	49.591	0	1715.30	0	2.1160	0	34.5500	0	27.611	0	1693.699	0	-1e10	8	-1e10	8	-1E+10	1	-1E+10	1	-1E+10	1	-1E+10	1	-1E+10	1	-1E+10	1
4902554	55	C	08/13/2022	08:00	-133.855	49.591	0	1725.10	0	2.1090	0	34.5520	0	27.613	0	1703.336	0	-1e10	8	-1e10	8	-1E+10	1	-1E+10	1	-1E+10	1	-1E+10	1	-1E+10	1	-1E+10	1
4902554	55	C	08/13/2022	08:00	-133.855	49.591	0	1735.20	0	2.1020	0	34.5530	0	27.615	0	1713.268	0	-1e10	8	-1e10	8	-1E+10	1	-1E+10	1	-1E+10	1	-1E+10	1	-1E+10	1	-1E+10	1
4902554	55	C	08/13/2022	08:00	-133.855	49.591	0	1745.20	0	2.0960	0	34.5550	0	27.617	0	1723.101	0	-1e10	8	-1e10	8	-1E+10	1	-1E+10	1	-1E+10	1	-1E+10	1	-1E+10	1	-1E+10	1
4902554	55	C	08/13/2022	08:00	-133.855	49.591	0	1755.30	0	2.0910	0	34.5560	0	27.618	0	1733.032	0	-1e10	8	-1e10	8	-1E+10	1	-1E+10	1	-1E+10	1	-1E+10	1	-1E+10	1	-1E+10	1
4902554	55	C	08/13/2022	08:00	-133.855	49.591	0	1765.60	0	2.0830	0	34.5570	0	27.620	0	1743.159	0	-1e10	8	-1e10	8	-1E+10	1	-1E+10	1	-1E+10	1	-1E+10	1	-1E+10	1	-1E+10	1
4902554	55	C	08/13/2022	08:00	-133.855	49.591	0	1775.30	0	2.0730	0	34.5590	0	27.622	0	1752.696	0	-1e10	8	-1e10	8	-1E+10	1	-1E+10	1	-1E+10	1	-1E+10	1	-1E+10	1	-1E+10	1
4902554	55	C	08/13/2022	08:00	-133.855	49.591	0	1785.40	0	2.0670	0	34.5610	0	27.624	0	1762.625	0	-1e10	8	-1e10	8	-1E+10	1	-1E+10	1	-1E+10	1	-1E+10	1	-1E+10	1	-1E+10	1
4902554	55	C	08/13/2022	08:00	-133.855	49.591	0	1795.70	0	2.0670	0	34.5610	0	27.624	0	1772.751	0	-1e10	8	-1e10	8	-1E+10	1	-1E+10	1	-1E+10	1	-1E+10	1	-1E+10	1	-1E+10	1
4902554	55	C	08/13/2022	08:00	-133.855	49.591	0	1805.70	0	2.0650	0	34.5610	0	27.624	0	1782.581	0	-1e10	8	-1e10	8	-1E+10	1	-1E+10	1	-1E+10	1	-1E+10	1	-1E+10	1	-1E+10	1
4902554	55	C	08/13/2022	08:00	-133.855	49.591	0	1815.30	0	2.0590	0	34.5620	0	27.626	0	1792.018	0	-1e10	8	-1e10	8	-1E+10	1	-1E+10	1	-1E+10	1	-1E+10	1	-1E+10	1	-1E+10	1
4902554	55	C	08/13/2022	08:00	-133.855	49.591	0	1825.30	0	2.0460	0	34.5650	0	27.629	0	1801.847	0	-1e10	8	-1e10	8	-1E+10	1	-1E+10	1	-1E+10	1	-1E+10	1	-1E+10	1	-1E+10	1
4902554	55	C	08/13/2022	08:00	-133.855	49.591	0	1835.40	0	2.0390	0	34.5670	0	27.631	0	1811.775	0	-1e10	8	-1e10	8	-1E+10	1	-1E+10	1	-1E+10	1	-1E+10	1	-1E+10	1	-1E+10	1
4902554	55	C	08/13/2022	08:00	-133.855	49.591	0	1845.10	0	2.0350	0	34.5670	0	27.632	0	1821.308	0	-1e10	8	-1e10	8	-1E+10	1	-1E+10	1	-1E+10	1	-1E+10	1	-1E+10	1	-1E+10	1
4902554	55	C	08/13/2022	08:00	-133.855	49.591	0	1855.30	0	2.0320	0	34.5680	0	27.633	0	1831.333	0	-1e10	8	-1e10	8	-1E+10	1	-1E+10	1	-1E+10	1	-1E+10	1	-1E+10	1	-1E+10	1
4902554	55	C	08/13/2022	08:00	-133.855	49.591	0	1865.30	0	2.0270	0	34.5690	0	27.634	0	1841.160	0	-1e10	8	-1e10	8	-1E+10	1	-1E+10	1	-1E+10	1	-1E+10	1	-1E+10	1	-1E+10	1
4902554	55	C	08/13/2022	08:00	-133.855	49.591	0	1875.40	0	2.0210	0	34.5710	0	27.636	0	1851.086	0	-1e10	8	-1e10	8	-1E+10	1	-1E+10	1	-1E+10	1	-1E+10	1	-1E+10	1	-1E+10	1
4902554	55	C	08/13/2022	08:00	-133.855	49.591	0	1885.60	0	2.0210	0	34.5710	0	27.636	0	1861.109	0	-1e10	8	-1e10	8	-1E+10	1	-1E+10	1	-1E+10	1	-1E+10	1	-1E+10	1	-1E+10	1
4902554	55	C	08/13/2022	08:00	-133.855	49.591	0	1895.50	0	2.0150	0	34.5720	0	27.638	0	1870.837	0	-1e10	8	-1e10	8	-1E+10	1	-1E+10	1	-1E+10	1	-1E+10	1	-1E+10	1	-1E+10	1
4902554	55	C	08/13/2022	08:00	-133.855	49.591	0	1905.50	0	2.0110	0	34.5720	0	27.638	0	1880.662	0	-1e10	8	-1e10	8	-1E+10	1	-1E+10	1	-1E+10	1	-1E+10	1	-1E+10	1	-1E+10	1
4902554	55	C	08/13/2022	08:00	-133.855	49.591	0	1915.40	0	2.0040	0	34.5740	0	27.640	0	1890.389	0	-1e10	8	-1e10	8	-1E+10	1	-1E+10	1	-1E+10	1	-1E+10	1	-1E+10	1	-1E+10	1
4902554	55	C	08/13/2022	08:00	-133.855	49.591	0	1925.10	0	1.9960	0	34.5760	0	27.642	0	1899.919	0	-1e10	8	-1e10	8	-1E+10	1	-1E+10	1	-1E+10	1	-1E+10	1	-1E+10	1	-1E+10	1
4902554	55	C	08/13/2022	08:00	-133.855	49.591	0	1935.10	0	1.9870	0	34.5770	0	27.644	0	1909.744	0	-1e10	8	-1e10	8	-1E+10	1	-1E+10	1	-1E+10	1	-1E+10	1	-1E+10	1	-1E+10	1
4902554	55	C	08/13/2022	08:00	-133.855	49.591	0	1945.10	0	1.9780	0	34.5790	0	27.646	0	1919.568	0	-1e10	8	-1e10	8	-1E+10	1	-1E+10	1	-1E+10	1	-1E+10	1	-1E+10	1	-1E+10	1
4902554	55	C	08/13/2022	08:00	-133.855	49.591	0	1955.40	0	1.9700	0	34.5810	0	27.649	0	1929.686	0	-1e10	8	-1e10	8	-1E+10	1	-1E+10	1	-1E+10	1	-1E+10	1	-1E+10	1	-1E+10	1
4902554	55	C	08/13/2022	08:00	-133.855	49.591	0	1965.40	0	1.9610	0	34.5820	0	27.650	0	1939.509	0	-1e10	8	-1e10	8	-1E+10	1	-1E+10	1	-1E+10	1	-1E+10	1	-1E+10	1	-1E+10	1
4902554	55	C	08/13/2022	08:00	-133.855	49.591	0	1975.20	0	1.9550	0	34.5840	0	27.652	0	1949.135	0	-1e10	8	-1e10	8	-1E+10	1	-1E+10	1	-1E+10	1	-1E+10	1	-1E+10	1	-1E+10	1
4902554	55	C	08/13/2022	08:00	-133.855	49.591	0	1985.60	0	1.9500	0	34.5850	0	27.654	0	1959.350	0	-1e10	8	-1e10	8	-1E+10	1	-1E+10	1	-1E+10	1	-1E+10	1	-1E+10	1	-1E+10	1
4902554	55	C	08/13/2022	08:00	-133.855	49.591	0	1995.50	0	1.9450	0	34.5860	0	27.655	0	1969.073	0	-1e10	8	-1e10	8	-1E+10	1	-1E+10	1	-1E+10	1	-1E+10	1	-1E+10	1	-1E+10	1
4902554	55	C	08/13/2022	08:00	-133.855	49.591	0	2005.30	0	1.9400	0	34.5870	0	27.656	0	1978.698	0	-1e10	8	-1e10	8	-1E+10	1	-1E+10	1	-1E+10	1	-1E+10	1	-1E+10	1	-1E+10	1
4902554	55	C	08/13/2022	08:00	-133.855	49.591	0	2015.30	0	1.9350	0	34.5880	0	27.657	0	1988.519	0	-1e10	8	-1e10	8	-1E+10	1	-1E+10	1	-1E+10	1	-1E+10	1	-1E+10	1	-1E+10	1
4902554	55	C	08/13/2022	08:00	-133.855	49.591	0	2025.60	0	1.9280	0	34.5890	0	27.659	0	1998.634	0	-1e10	8	-1e10	8	-1E+10	1	-1E+10	1	-1E+10	1	-1E+10	1	-1E+10	1	-1E+10	1
4902554	55	C	08/13/2022	08:00	-133.855	49.591	0	2030.80	0	1.9220	0	34.5910	0	27.661	0	2003.740	0	-1e10	8	-1e10	8	-1E+10	1	-1E+10	1	-1E+10	1	-1E+10	1	-1E+10	1	-1E+10	1
4902554	55	C	08/13/2022	08:00	-133.855	49.591	0																										
4902554	56	C	08/23/2022	13:02	-133.799	49.515	0	0.20	0	17.2610	0	31.8930	0	23.071	0	0.198	0	-1e10	8	-1e10	8	-1E+10	1	-1E+10	1	-1E+10	1	-1E+10	1	-1E+10	1	-1E+10	1
4902554	56	C	08/23/2022	13:02	-133.799	49.515	0	0.90	0	17.2560	0	31.8550	0	23.043	0	0.892	0	-1e10	8	-1e10	8	-1E+10	1	-1E+10	1	-1E+10	1	-1E+10	1	-1E+10	1	-1E+10	1
4902554	56	C	08/23/2022	13:02	-133.799	49.515	0	2.10	0	17.1010	0	31.9370	0	23.142	0	2.082	0	-1e10	8	-1e10	8	-1E+10	1	-1E+10	1	-1E+10	1	-1E+10	1	-1E+10	1	-1E+10	1
4902554	56	C	08/23/2022	13:02	-133.799	49.515	0	3.10	0	16.9810	0	32.0230	0	23.236	0	3.074	0	-1e10	8	-1e10	8	-1E+10	1	-1E+10	1	-1E+10	1	-1E+10	1	-1E+10	1	-1E+10	1
4902554	56	C	08/23/2022	13:02	-133.799	49.515	0	4.10	0	16.9240	0	32.0930	0	23.303	0	4.065	0	-1e10	8	-1e10	8	-1E+10	1	-1E+10	1	-1E+10	1	-1E+10	1	-1E+10	1	-1E+10	1
4902554	56	C	08/23/2022	13:02	-133.799	49.515	0	5.00	0	16.8610	0	32.1370	0	23.351	0	4.957	0	-1e10	8	-1e10	8	-1E+10	1	-1E+10	1	-1E+10	1	-1E+10	1	-1E+10	1	-1E+10	1
4902554	56	C	08/23/2022	13:02	-133.799	49.515	0	5.80	0	16.7810	0	32.1360	0	23.369	0	5.750	0	-1e10	8	-1e10	8	-1E+10	1	-1E+10	1	-1E+10	1	-1E+10	1	-1E+10	1	-1E+10	1
4902554	56	C	08/23/2022	13:02	-133.799	49.515	0	7.00	0	16.6640	0	32.1350	0	23.395	0	6.940	0	-1e10	8	-1e10	8	-1E+10	1	-1E+10	1	-1E+10	1	-1E+10	1	-1E+10	1	-1E+10	1
4902554	56	C	08/23/2022	13:02	-133.799	49.515	0	7.90	0	16.5730	0	32.1320	0	23.414	0	7.832	0	-1e10	8	-1e10	8	-1E+10	1	-1E+10	1	-1E+10	1	-1E+10	1	-1E+10	1	-1E+10	1
4902554	56	C	08/23/2022	13:02	-133.799	49.515	0	8.90	0	16.4330	0	32.1390	0	23.451	0	8.824	0	-1e10	8	-1e10	8	-1E+10	1	-1E+10	1	-1E+10	1	-1E+10	1	-1E+10	1	-1E+10	1
4902554	56	C	08/23/2022	13:02	-133.799	49.515	0	9.90	0	16.3230	0	32.1340	0	23.473	0	9.815	0	-1e10	8	-1e10	8	-1E+10	1	-1E+10	1	-1E+10	1	-1E+10	1	-1E+10	1	-1E+10	1
4902554	56	C	08/23/2022	13:02	-133.799	49.515	0	10.80	0	16.2950	0	32.1320	0	23.477	0	10.708	0	-1e10	8	-1e10	8	-1E+10	1	-1E+10	1	-1E+10	1	-1E+10	1	-1E+10	1	-1E+10	1
4902554	56	C	08/23/2022	13:02	-133.799	49.515	0	11.90	0	16.2800	0	32.1320	0	23.481	0	11.798	0	-1e10	8	-1e10	8	-1E+10	1	-1E+10	1	-1E+10	1	-1E+10	1	-1E+10	1	-1E+10	1
4902554	56	C	08/23/2022	13:02	-133.799	49.515	0	12.80	0	16.2540	0	32.1300	0	23.485	0	12.690	0	-1e10	8	-1e10	8	-1E+10	1	-1E+10	1	-1E+10	1	-1E+10	1	-1E+10	1	-1E+10	1
4902554	56	C	08/23/2022	13:02	-133.799	49.515	0	13.90	0	16.2170	0	32.1320	0	23.495	0	13.781	0	-1e10	8	-1e10	8	-1E+10	1	-1E+10	1	-1E+10	1	-1E+10	1	-1E+10	1	-1E+10	1
4902554	56	C	08/23/2022	13:02	-133.799	49.515	0	15.00	0	16.1600	0	32.1300	0	23.507	0	14.872	0	-1e10	8	-1e10	8	-1E+10	1	-1E+10	1	-1E+10	1	-1E+10	1	-1E+10	1	-1E+10	1
4902554	56	C	08/23/2022	13:02	-133.799	49.515	0	16.10	0	16.0960	0	32.1310	0	23.522	0	15.962	0	-1e10	8	-1e10	8	-1E+10	1	-1E+10	1	-1E+10	1	-1E+10	1	-1E+10	1	-1E+10	1
4902554	56	C	08/23/2022	13:02	-133.799	49.515	0	16.80	0	16.0830	0	32.1300	0	23.524	0	16.656	0	-1e10	8	-1e10	8	-1E+10	1	-1E+10	1	-1E+10	1	-1E+10	1	-1E+10	1	-1E+10	1
4902554	56	C	08/23/2022	13:02	-133.799	49.515	0	17.80	0	16.0570	0	32.1290	0	23.529	0	17.647	0	-1e10	8	-1e10	8	-1E+10	1	-1E+10	1	-1E+10	1	-1E+10	1	-1E+10	1	-1E+10	1
4902554	56	C	08/23/2022	13:02	-133.799	49.515	0	18.90	0	16.0240	0	32.1310	0	23.538	0	18.738	0	-1e10	8	-1e10	8	-1E+10	1	-1E+10	1	-1E+10	1	-1E+10	1	-1E+10	1	-1E+10	1
4902554	56	C	08/23/2022	13:02	-133.799	49.515	0	19.90	0	15.9770	0	32.1290	0	23.547	0	19.729	0	-1e10	8	-1e10	8	-1E+10	1	-1E+10	1	-1E+10	1	-1E+10	1	-1E+10	1	-1E+10	1
4902554	56	C	08/23/2022	13:02	-133.799	49.515	0	21.00	0	15.9550	0	32.1290	0	23.552	0	20.820	0	-1e10	8	-1e10	8	-1E+10	1	-1E+10	1	-1E+10	1	-1E+10	1	-1E+10	1	-1E+10	1
4902554	56	C	08/23/2022	13:02	-133.799	49.515	0	22.00	0	15.9500	0	32.1280	0	23.552	0	21.811	0	-1e10	8	-1e10	8	-1E+10	1	-1E+10	1	-1E+10	1	-1E+10	1	-1E+10	1	-1E+10	1
4902554	56	C	08/23/2022	13:02	-133.799	49.515	0	23.10	0	15.9160	0	32.1300	0	23.562	0	22.902	0	-1e10	8	-1e10	8	-1E+10	1	-1E+10	1	-1E+10	1	-1E+10	1	-1E+10	1	-1E+10	1
4902554	56	C	08/23/2022	13:02	-133.799	49.515	0	24.00	0	15.8990	0	32.1290	0	23.565	0	23.794	0	-1e10	8	-1e10	8	-1E+10	1	-1E+10	1	-1E+10	1	-1E+10	1	-1E+10	1	-1E+10	1
4902554	56	C	08/23/2022	13:02	-133.799	49.515	0	25.10	0	15.8700	0	32.1290	0	23.571	0	24.884	0	-1e10	8	-1e10	8	-1E+10	1	-1E+10	1	-1E+10	1	-1E+10	1	-1E+10	1	-1E+10	1
4902554	56	C	08/23/2022	13:02	-133.799	49.515	0	25.90	0	15.8110	0	32.1300	0	23.585	0	25.677	0	-1e10	8	-1e10	8	-1E+10	1	-1E+10	1	-1E+10	1	-1E+10	1	-1E+10	1	-1E+10	1
4902554	56	C	08/23/2022	13:02	-133.799	49.515	0	27.00	0	15.7100	0	32.1360	0	23.612	0	26.768	0	-1e10	8	-1e10	8	-1E+10	1	-1E+10	1	-1E+10	1	-1E+10	1	-1E+10	1	-1E+10	1
4902554	56	C	08/23/2022	13:02	-133.799	49.515	0	28.00	0	15.5770	0	32.1360	0	23.641	0	27.759	0	-1e10	8	-1e10	8	-1E+10	1	-1E+10	1	-1E+10	1	-1E+10	1	-1E+10	1	-1E+10	1
4902554	56	C	08/23/2022	13:02	-133.799	49.515	0	29.00	0	15.5090	0	32.1360	0	23.656	0	28.751	0	-1e10	8	-1e10	8	-1E+10	1	-1E+10	1	-1E+10	1	-1E+10	1	-1E+10	1	-1E+10	1
4902554	56	C	08/23/2022	13:02	-133.799	49.515	0	30.10	0	15.4050	0	32.1360	0	23.679	0	29.841	0	-1e10	8	-1e10	8	-1E+10	1	-1E+10	1	-1E+10	1	-1E+10	1	-1E+10	1	-1E+10	1
4902554	56	C	08/23/2022	13:02	-133.799	49.515	0	31.10	0	15.2560	0	32.1300	0	23.707	0	30.832	0	-1e10	8	-1e10	8	-1E+10	1	-1E+10	1	-1E+10	1	-1E+10	1	-1E+10	1	-1E+10	1
4902554	56	C	08/23/2022	13:02	-133.799	49.515	0	32.00	0	14.9660	0	32.1370	0	23.775	0	31.725	0	-1e10	8	-1e10	8	-1E+10	1	-1E+10	1	-1E+10	1	-1E+10	1	-1E+10	1	-1E+10	1
4902554	56	C	08/23/2022	13:02	-133.799	49.515	0	32.80	0	14.6600	0	32.1490	0	23.849	0	32.518	0	-1e10	8	-1e10	8	-1E+10	1	-1E+10	1	-1E+10	1	-1E+10	1	-1E+10	1	-1E+10	1
4902554	56	C	08/23/2022	13:02	-133.799	49.515	0	33.80	0	14.5240	0	32.1220	0	23.857	0	33.509	0	-1e10	8	-1e10	8	-1E+10	1	-1E+10	1	-1E+10	1	-1E+10	1	-1E+10	1	-1E+10	1
4902554	56	C	08/23/2022	13:02	-133.799	49.515	0	34.90	0	13.3050	0	32.1720	0	24.144	0	34.599	0	-1e10	8	-1e10	8	-1E+10	1	-1E+10	1	-1E+10	1	-1E+10	1	-1E+10	1	-1E+10	1
4902554	56	C	08/23/2022	13:02	-133.799	49.515	0	35.90	0	12.6910	0	32.1960	0	24.283	0	35.591	0	-1e10	8	-1e10	8	-1E+10	1	-1E+10	1	-1E+10	1	-1E+10	1	-1E+10	1	-1E+10	1
4902554	56	C	08/23/2022	13:02	-133.799	49.515	0	37.00	0	12.3480	0	32.1720	0	24.330	0	36.681	0	-1e10	8	-1e10	8	-1E+10	1	-1E+10	1	-1E+10	1	-1E+10	1	-1E+10	1	-1E+10	1
4902554	56	C	08/23/2022	13:02	-133.799	49.515	0	37.90	0	11.5010	0	32.1820	0	24.494	0	37.573	0	-1e10	8	-1e10	8	-1E+10	1	-1E+10	1	-1E+10	1	-1E+10	1	-1E+10	1	-1E+10	1
4902554	56	C	08/23/2022	13:02	-133.799	49.515	0	39.00	0	10.5990	0	32.2090	0	24.674	0	38.664	0	-1e10	8	-1e10	8	-1E+10	1	-1E+10	1	-1E+10	1	-1E+10	1	-1E+10	1	-1E+10	1
4902554	56	C	08/23/2022	13:02	-133.799	49.515	0	39.80	0	10.2790	0	32.2240	0	24.740	0	39.457	0	-1e10	8	-1e10	8	-1E+10	1	-1E+10	1	-1E+10	1	-1E+10	1	-1E+10	1	-1E+10	1
4902554	56	C	08/23/2022	13:02	-133.799	49.515	0	41.00	0	10.2160	0	32.2240	0	24.750	0	40.646	0	-1e10	8	-1e10	8	-1E+10	1	-1E+10	1	-1E+10	1	-1E+10	1	-1E+10	1	-1E+10	1
4902554	56	C	08/23/2022	13:02	-133.799	49.515	0	42.00	0	10.1680	0	32.2220	0	24.757	0	41.638	0	-1e10	8	-1e10	8	-1E+10	1	-1E+10	1	-1E+10	1	-1E+10	1	-1E+10	1	-1E+10	1
4902554	56	C	08/23/2022	13:02	-133.799	49.515	0	43.10	0	9.8760	0	32.2360	0	24.816	0	42.728	0	-1e10	8	-1e10	8	-1E+10	1	-1E+10	1	-1E+10	1	-1E+10	1	-1E+10	1	-1E+10	1
4902554	56	C	08/23/2022	13:02	-133.799	49.515	0	44.00	0	9.7370	0	32.2420	0	24.843	0	43.620	0	-1e10	8	-1e10	8	-1E+10	1	-1E+10	1	-1E+10	1	-1E+10	1	-1E+10	1	-1E+10	1
4902554	56	C	08/23/2022	13:02	-133.799	49.515	0	45.20	0	9.5820	0	32.2470	0	24.872	0	44.810	0	-1e10	8	-1e10	8	-1E+10	1	-1E+10	1	-1E+10	1	-1E+10	1	-1E+10	1	-1E+10	1
4902554	56	C	08/23/2022	13:02	-133.799	49.515	0	46.00	0	9.5590	0	32.2460	0	24.875	0	45.603	0	-1e10	8	-1e10	8	-1E+10	1	-1E+10	1	-1E+10	1	-1E+10	1	-1E+10	1	-1E+10	1
4902554	56	C	08/23/2022	13:02	-133.799	49.515	0	47.00	0	9.5230	0	32.2470	0	24.882	0	46.594	0	-1e10	8	-1e10	8	-1E+10	1	-1E+10	1	-1E+10	1	-1E+10	1	-1E+10	1	-1E+10	1
4902554	56	C	08/23/2022	13:02	-133.799	49.515	0	48.00	0	9.4720	0	32.2470	0	24.890	0	47.585	0	-1e10	8	-1e10	8	-1E+10	1	-1E+10	1	-1E+10	1	-1E+10	1	-1E+10	1	-1E+10	1
4902554	56	C	08/23/2022	13:02	-133.799	49.515	0	49.30	0	9.3990	0	32.2460	0	24.901	0	48.874	0	-1e10	8	-1e10	8	-1E+10	1	-1E+10	1	-1E+10	1	-1E+10	1	-1E+10	1	-1E+10	1
4902554	56	C	08/23/2022	13:02	-133.799	49.515	0	50.10	0	9.2350	0	32.2500	0	24.930	0	49.667	0	-1e10	8	-1e10	8	-1E+10	1	-1E+10	1	-1E+10	1	-1E+10	1	-1E+10	1	-1E+10	1
4902554	56	C	08/23/2022	13:02	-133.799	49.515	0	50.70	0	9.1600	0	32.2480	0	24.940	0	50.261	0	-1e10	8	-1e10	8	-1E+10	1	-1E+10	1	-1E+10	1	-1E+10	1	-1E+10	1	-1E+10	1
4902554	56	C	08/23/2022	13:02	-133.799	49.515	0	51.70	0	8.7540	0	32.2770	0	25.025	0	51.253	0	-1e10	8	-1e10	8	-1E+10	1	-1E+10	1	-1E+10	1	-1E+10	1	-1E+10	1	-1E+10	1
4902554	56	C	08/23/2022	13:02	-133.799	49.515	0	52.80	0	8.5370	0	32.2740	0	25.056	0	52.343	0	-1e10	8	-1e10	8	-1E+10	1	-1E+10	1	-1E+10	1	-1E+10	1	-1E+10	1	-1E+10	1
4902554	56	C	08/23/2022	13:02	-133.799	49.515	0	53.90	0	8.4070	0	32.2760	0	25.077	0	53.433	0	-1e10	8	-1e10	8	-1E+10	1	-1E+10	1	-1E+10	1	-1E+10	1	-1E+10	1	-1E+10	1
4902554	56	C	08/23/2022	13:02	-133.799	49.515	0	55.00	0	8.2530	0	32.2790	0	25.102	0	54.524	0	-1e10	8	-1e10	8	-1E+10	1	-1E+10	1	-1E+10	1	-1E+10	1	-1E+10	1	-1E+10	1
4902554	56	C	08/23/2022	13:02	-133.799	49.515	0	56.10	0	8.1380	0	32.2860	0	25.124	0	55.614	0	-1e10	8	-1e10	8	-1E+10	1	-1E+10	1	-1E+10	1	-1E+10	1	-1E+10	1	-1E+10	1
4902554	56	C	08/23/2022	13:02	-133.799	49.515	0	57.00	0	7.9560	0	32.3020	0	25.163	0	56.506	0	-1e10	8	-1e10	8	-1E+10	1	-1E+10	1	-1E+10	1	-1E+10	1	-1E+10	1	-1E+10	1
4902554	56	C	08/23/2022	13:02	-133.799	49.515	0	57.80	0	7.8370	0	32.2990	0	25.178	0	57.299	0	-1e10	8	-1e10	8	-1E+10	1	-1E+10	1	-1E+10	1	-1E+10	1	-1E+10	1	-1E+10	1
4902554	56	C	08/23/2022	13:02	-133.799	49.515	0	59.00	0	7.7000	0	32.3030	0	25.200	0	58.488	0	-1e10	8	-1e10	8	-1E+10	1	-1E+10	1	-1E+10	1	-1E+10	1	-1E+10	1	-1E+10	1
4902554	56	C	08/23/2022	13:02	-133.799	49.515	0	60.10	0	7.6270	0	32.3050	0	25.212	0	59.579	0	-1e10	8	-1e10	8	-1E+10	1	-1E+10	1	-1E+10	1	-1E+10	1	-1E+10	1	-1E+10	1
4902554	56	C	08/23/2022	13:02	-133.799	49.515	0	61.10	0	7.5340	0	32.3100	0	25.229	0	60.570	0	-1e10	8	-1e10	8	-1E+10	1	-1E+10	1	-1E+10	1	-1E+10	1	-1E+10	1	-1E+10	1
4902554	56	C	08/23/2022	13:02	-133.799	49.515	0	62.30	0	7.4230	0	32.3150	0	25.248	0	61.759	0	-1e10	8	-1e10	8	-1E+10	1	-1E+10	1	-1E+10	1	-1E+10	1	-1E+10	1	-1E+10	1
4902554	56	C	08/23/2022	13:02	-133.799	49.515	0	63.00	0	7.3600	0	32.3200	0	25.261	0	62.453	0	-1e10	8	-1e10	8	-1E+10	1	-1E+10	1	-1E+10	1	-1E+10	1	-1E+10	1	-1E+10	1
4902554	56	C	08/23/2022	13:02	-133.799	49.515	0	64.00	0	7.3180	0	32.3210	0	25.267	0	63.444	0	-1e10	8	-1e10	8	-1E+10	1	-1E+10	1	-1E+10	1	-1E+10	1	-1E+10	1	-1E+10	1
4902554	56	C	08/23/2022	13:02	-133.799	49.515	0	65.00	0	7.2770	0	32.3240	0	25.275	0	64.435	0	-1e10	8	-1e10	8	-1E+10	1	-1E+10	1	-1E+10	1	-1E+10	1	-1E+10	1	-1E+10	1
4902554	56	C	08/23/2022	13:02	-133.799	49.515	0	66.10	0	7.2660	0	32.3240	0	25.277	0	65.526	0	-1e10	8	-1e10	8	-1E+10	1	-1E+10	1	-1E+10	1	-1E+10	1	-1E+10	1	-1E+10	1
4902554	56	C	08/23/2022	13:02	-133.799	49.515	0	67.00	0	7.2270	0	32.3280	0	25.285	0	66.418	0	-1e10	8	-1e10	8	-1E+10	1	-1E+10	1	-1E+10	1	-1E+10	1	-1E+10	1	-1E+10	1
4902554	56	C	08/23/2022	13:02	-133.799	49.515	0	68.10	0	7.1850	0	32.3340	0	25.295	0	67.508	0	-1e10	8	-1e10	8	-1E+10	1	-1E+10	1	-1E+10	1	-1E+10	1	-1E+10	1	-1E+10	1
4902554	56	C	08/23/2022	13:02	-133.799	49.515	0	69.00	0	7.1750	0	32.3370	0	25.299	0	68.400	0	-1e10	8	-1e10	8	-1E+10	1	-1E+10	1	-1E+10	1	-1E+10	1	-1E+10	1	-1E+10	1
4902554	56	C	08/23/2022	13:02	-133.799	49.515	0	70.10	0	7.1410	0	32.3430	0	25.308	0	69.490	0	-1e10	8	-1e10	8	-1E+10	1	-1E+10	1	-1E+10	1	-1E+10	1	-1E+10	1	-1E+10	1
4902554	56	C	08/23/2022	13:02	-133.799	49.515	0	71.10	0	7.1110	0	32.3490	0	25.317	0	70.481	0	-1e10	8	-1e10	8	-1E+10	1	-1E+10	1	-1E+10	1	-1E+10	1	-1E+10	1	-1E+10	1
4902554	56	C	08/23/2022	13:02	-133.799	49.515	0	72.00	0	7.1030	0	32.3510	0	25.320	0	71.373	0	-1e10	8	-1e10	8	-1E+10	1	-1E+10	1	-1E+10	1	-1E+10	1	-1E+10	1	-1E+10	1
4902554	56	C	08/23/2022	13:02	-133.799	49.515	0	72.80	0	7.0970	0	32.3520	0	25.322	0	72.166	0	-1e10	8	-1e10	8	-1E+10	1	-1E+10	1	-1E+10	1	-1E+10	1	-1E+10	1	-1E+10	1
4902554	56	C	08/23/2022	13:02	-133.799	49.515	0	74.00	0	7.0890	0	32.3530	0	25.323	0	73.356	0	-1e10	8	-1e10	8	-1E+10	1	-1E+10	1	-1E+10	1	-1E+10	1	-1E+10	1	-1E+10	1
4902554	56	C	08/23/2022	13:02	-133.799	49.515	0	75.10	0	7.0710	0	32.3580	0	25.330	0	74.446	0	-1e10	8	-1e10	8	-1E+10	1	-1E+10	1	-1E+10	1	-1E+10	1	-1E+10	1	-1E+10	1
4902554	56	C	08/23/2022	13:02	-133.799	49.515	0	76.00	0	7.0660	0	32.3600	0	25.332	0	75.338	0	-1e10	8	-1e10	8	-1E+10	1	-1E+10	1	-1E+10	1	-1E+10	1	-1E+10	1	-1E+10	1
4902554	56	C	08/23/2022	13:02	-133.799	49.515	0	76.90	0	7.0580	0	32.3620	0	25.335	0	76.230	0	-1e10	8	-1e10	8	-1E+10	1	-1E+10	1	-1E+10	1	-1E+10	1	-1E+10	1	-1E+10	1
4902554	56	C	08/23/2022	13:02	-133.799	49.515	0	78.10	0	7.0440	0	32.3650	0	25.339	0	77.419	0	-1e10	8	-1e10	8	-1E+10	1	-1E+10	1	-1E+10	1	-1E+10	1	-1E+10	1	-1E+10	1
4902554	56	C	08/23/2022	13:02	-133.799	49.515	0	78.90	0	7.0340	0	32.3670	0	25.342	0	78.212	0	-1e10	8	-1e10	8	-1E+10	1	-1E+10	1	-1E+10	1	-1E+10	1	-1E+10	1	-1E+10	1
4902554	56	C	08/23/2022	13:02	-133.799	49.515	0	79.80	0	7.0220	0	32.3700	0	25.346	0	79.104	0	-1e10	8	-1e10	8	-1E+10	1	-1E+10	1	-1E+10	1	-1E+10	1	-1E+10	1	-1E+10	1
4902554	56	C	08/23/2022	13:02	-133.799	49.515	0	80.90	0	7.0080	0	32.3740	0	25.351	0	80.194	0	-1e10	8	-1e10	8	-1E+10	1	-1E+10	1	-1E+10	1	-1E+10	1	-1E+10	1	-1E+10	1
4902554	56	C	08/23/2022	13:02	-133.799	49.515	0	81.90	0	6.9950	0	32.3760	0	25.354	0	81.185	0	-1e10	8	-1e10	8	-1E+10	1	-1E+10	1	-1E+10	1	-1E+10	1	-1E+10	1	-1E+10	1
4902554	56	C	08/23/2022	13:02	-133.799	49.515	0	82.90	0	6.9810	0	32.3820	0	25.361	0	82.176	0	-1e10	8	-1e10	8	-1E+10	1	-1E+10	1	-1E+10	1	-1E+10	1	-1E+10	1	-1E+10	1
4902554	56	C	08/23/2022	13:02	-133.799	49.515	0	83.90	0	6.9700	0	32.3920	0	25.370	0	83.168	0	-1e10	8	-1e10	8	-1E+10	1	-1E+10	1	-1E+10	1	-1E+10	1	-1E+10	1	-1E+10	1
4902554	56	C	08/23/2022	13:02	-133.799	49.515	0	85.00	0	6.9340	0	32.4110	0	25.390	0	84.258	0	-1e10	8	-1e10	8	-1E+10	1	-1E+10	1	-1E+10	1	-1E+10	1	-1E+10	1	-1E+10	1
4902554	56	C	08/23/2022	13:02	-133.799	49.515	0	86.30	0	6.8830	0	32.4420	0	25.421	0	85.546	0	-1e10	8	-1e10	8	-1E+10	1	-1E+10	1	-1E+10	1	-1E+10	1	-1E+10	1	-1E+10	1
4902554	56	C	08/23/2022	13:02	-133.799	49.515	0	87.00	0	6.8510	0	32.4670	0	25.445	0	86.240	0	-1e10	8	-1e10	8	-1E+10	1	-1E+10	1	-1E+10	1	-1E+10	1	-1E+10	1	-1E+10	1
4902554	56	C	08/23/2022	13:02	-133.799	49.515	0	88.20	0	6.8330	0	32.4810	0	25.458	0	87.429	0	-1e10	8	-1e10	8	-1E+10	1	-1E+10	1	-1E+10	1	-1E+10	1	-1E+10	1	-1E+10	1
4902554	56	C	08/23/2022	13:02	-133.799	49.515	0	88.80	0	6.8250	0	32.4880	0	25.465	0	88.024	0	-1e10	8	-1e10	8	-1E+10	1	-1E+10	1	-1E+10	1	-1E+10	1	-1E+10	1	-1E+10	1
4902554	56	C	08/23/2022	13:02	-133.799	49.515	0	90.10	0	6.8130	0	32.4980	0	25.474	0	89.312	0	-1e10	8	-1e10	8	-1E+10	1	-1E+10	1	-1E+10	1	-1E+10	1	-1E+10	1	-1E+10	1
4902554	56	C	08/23/2022	13:02	-133.799	49.515	0	91.00	0	6.7920	0	32.5150	0	25.490	0	90.204	0	-1e10	8	-1e10	8	-1E+10	1	-1E+10	1	-1E+10	1	-1E+10	1	-1E+10	1	-1E+10	1
4902554	56	C	08/23/2022	13:02	-133.799	49.515	0	92.00	0	6.7610	0	32.5420	0	25.516	0	91.195	0	-1e10	8	-1e10	8	-1E+10	1	-1E+10	1	-1E+10	1	-1E+10	1	-1E+10	1	-1E+10	1
4902554	56	C	08/23/2022	13:02	-133.799	49.515	0	93.20	0	6.7390	0	32.5610	0	25.534	0	92.384	0	-1e10	8	-1e10	8	-1E+10	1	-1E+10	1	-1E+10	1	-1E+10	1	-1E+10	1	-1E+10	1
4902554	56	C	08/23/2022	13:02	-133.799	49.515	0	93.80	0	6.7230	0	32.5750	0	25.547	0	92.979	0	-1e10	8	-1e10	8	-1E+10	1	-1E+10	1	-1E+10	1	-1E+10	1	-1E+10	1	-1E+10	1
4902554	56	C	08/23/2022	13:02	-133.799	49.515	0	94.90	0	6.6920	0	32.6000	0	25.570	0	94.069	0	-1e10	8	-1e10	8	-1E+10	1	-1E+10	1	-1E+10	1	-1E+10	1	-1E+10	1	-1E+10	1
4902554	56	C	08/23/2022	13:02	-133.799	49.515	0	96.10	0	6.6520	0	32.6330	0	25.602	0	95.258	0	-1e10	8	-1e10	8	-1E+10	1	-1E+10	1	-1E+10	1	-1E+10	1	-1E+10	1	-1E+10	1
4902554	56	C	08/23/2022	13:02	-133.799	49.515	0	97.10	0	6.6170	0	32.6640	0	25.631	0	96.249	0	-1e10	8	-1e10	8	-1E+10	1	-1E+10	1	-1E+10	1	-1E+10	1	-1E+10	1	-1E+10	1
4902554	56	C	08/23/2022	13:02	-133.799	49.515	0	98.00	0	6.5680	0	32.7130	0	25.676	0	97.141	0	-1e10	8	-1e10	8	-1E+10	1	-1E+10	1	-1E+10	1	-1E+10	1	-1E+10	1	-1E+10	1
4902554	56	C	08/23/2022	13:02	-133.799	49.515	0	99.20	0	6.4980	0	32.7870	0	25.743	0	98.330	0	-1e10	8	-1e10	8	-1E+10	1	-1E+10	1	-1E+10	1	-1E+10	1	-1E+10	1	-1E+10	1
4902554	56	C	08/23/2022	13:02	-133.799	49.515	0	100.10	0	6.4810	0	32.8030	0	25.758	0	99.222	0	-1e10	8	-1e10	8	-1E+10	1	-1E+10	1	-1E+10	1	-1E+10	1	-1E+10	1	-1E+10	1
4902554	56	C	08/23/2022	13:02	-133.799	49.515	0	100.80	0	6.4520	0	32.8390	0	25.790	0	99.916	0	-1e10	8	-1e10	8	-1E+10	1	-1E+10	1	-1E+10	1	-1E+10	1	-1E+10	1	-1E+10	1
4902554	56	C	08/23/2022	13:02	-133.799	49.515	0	101.90	0	6.4340	0	32.8560	0	25.806	0	101.006	0	-1e10	8	-1e10	8	-1E+10	1	-1E+10	1	-1E+10	1	-1E+10	1	-1E+10	1	-1E+10	1
4902554	56	C	08/23/2022	13:02	-133.799	49.515	0	103.10	0	6.4200	0	32.8660	0	25.815	0	102.195	0	-1e10	8	-1e10	8	-1E+10	1	-1E+10	1	-1E+10	1	-1E+10	1	-1E+10	1	-1E+10	1
4902554	56	C	08/23/2022	13:02	-133.799	49.515	0	104.00	0	6.4060	0	32.8750	0	25.824	0	103.087	0	-1e10	8	-1e10	8	-1E+10	1	-1E+10	1	-1E+10	1	-1E+10	1	-1E+10	1	-1E+10	1
4902554	56	C	08/23/2022	13:02	-133.799	49.515	0	104.90	0	6.3780	0	32.8980	0	25.846	0	103.979	0	-1e10	8	-1e10	8	-1E+10	1	-1E+10	1	-1E+10	1	-1E+10	1	-1E+10	1	-1E+10	1
4902554	56	C	08/23/2022	13:02	-133.799	49.515	0	105.90	0	6.3540	0	32.9220	0	25.868	0	104.970	0	-1e10	8	-1e10	8	-1E+10	1	-1E+10	1	-1E+10	1	-1E+10	1	-1E+10	1	-1E+10	1
4902554	56	C	08/23/2022	13:02	-133.799	49.515	0	106.80	0	6.3410	0	32.9330	0	25.878	0	105.862	0	-1e10	8	-1e10	8	-1E+10	1	-1E+10	1	-1E+10	1	-1E+10	1	-1E+10	1	-1E+10	1
4902554	56	C	08/23/2022	13:02	-133.799	49.515	0	107.90	0	6.3390	0	32.9480	0	25.890	0	106.952	0	-1e10	8	-1e10	8	-1E+10	1	-1E+10	1	-1E+10	1	-1E+10	1	-1E+10	1	-1E+10	1
4902554	56	C	08/23/2022	13:02	-133.799	49.515	0	108.80	0	6.3390	0	32.9520	0	25.893	0	107.844	0	-1e10	8	-1e10	8	-1E+10	1	-1E+10	1	-1E+10	1	-1E+10	1	-1E+10	1	-1E+10	1
4902554	56	C	08/23/2022	13:02	-133.799	49.515	0	109.90	0	6.3370	0	32.9590	0	25.899	0	108.934	0	-1e10	8	-1e10	8	-1E+10	1	-1E+10	1	-1E+10	1	-1E+10	1	-1E+10	1	-1E+10	1
4902554	56	C	08/23/2022	13:02	-133.799	49.515	0	110.80	0	6.3240	0	32.9750	0	25.914	0	109.826	0	-1e10	8	-1e10	8	-1E+10	1	-1E+10	1	-1E+10	1	-1E+10	1	-1E+10	1	-1E+10	1
4902554	56	C	08/23/2022	13:02	-133.799	49.515	0	111.90	0	6.3020	0	32.9850	0	25.924	0	110.916	0	-1e10	8	-1e10	8	-1E+10	1	-1E+10	1	-1E+10	1	-1E+10	1	-1E+10	1	-1E+10	1
4902554	56	C	08/23/2022	13:02	-133.799	49.515	0	112.80	0	6.2660	0	33.0080	0	25.947	0	111.807	0	-1e10	8	-1e10	8	-1E+10	1	-1E+10	1	-1E+10	1	-1E+10	1	-1E+10	1	-1E+10	1
4902554	56	C	08/23/2022	13:02	-133.799	49.515	0	113.90	0	6.2420	0	33.0290	0	25.967	0	112.897	0	-1e10	8	-1e10	8	-1E+10	1	-1E+10	1	-1E+10	1	-1E+10	1	-1E+10	1	-1E+10	1
4902554	56	C	08/23/2022	13:02	-133.799	49.515	0	114.90	0	6.2230	0	33.0530	0	25.988	0	113.888	0	-1e10	8	-1e10	8	-1E+10	1	-1E+10	1	-1E+10	1	-1E+10	1	-1E+10	1	-1E+10	1
4902554	56	C	08/23/2022	13:02	-133.799	49.515	0	116.00	0	6.2170	0	33.0620	0	25.996	0	114.978	0	-1e10	8	-1e10	8	-1E+10	1	-1E+10	1	-1E+10	1	-1E+10	1	-1E+10	1	-1E+10	1
4902554	56	C	08/23/2022	13:02	-133.799	49.515	0	116.90	0	6.2150	0	33.0620	0	25.996	0	115.870	0	-1e10	8	-1e10	8	-1E+10	1	-1E+10	1	-1E+10	1	-1E+10	1	-1E+10	1	-1E+10	1
4902554	56	C	08/23/2022	13:02	-133.799	49.515	0	118.10	0	6.2110	0	33.0660	0	26.000	0	117.059	0	-1e10	8	-1e10	8	-1E+10	1	-1E+10	1	-1E+10	1	-1E+10	1	-1E+10	1	-1E+10	1
4902554	56	C	08/23/2022	13:02	-133.799	49.515	0	118.80	0	6.1850	0	33.0940	0	26.025	0	117.753	0	-1e10	8	-1e10	8	-1E+10	1	-1E+10	1	-1E+10	1	-1E+10	1	-1E+10	1	-1E+10	1
4902554	56	C	08/23/2022	13:02	-133.799	49.515	0	119.80	0	6.1590	0	33.1250	0	26.053	0	118.744	0	-1e10	8	-1e10	8	-1E+10	1	-1E+10	1	-1E+10	1	-1E+10	1	-1E+10	1	-1E+10	1
4902554	56	C	08/23/2022	13:02	-133.799	49.515	0	120.90	0	6.1560	0	33.1290	0	26.056	0	119.834	0	-1e10	8	-1e10	8	-1E+10	1	-1E+10	1	-1E+10	1	-1E+10	1	-1E+10	1	-1E+10	1
4902554	56	C	08/23/2022	13:02	-133.799	49.515	0	122.00	0	6.1540	0	33.1300	0	26.057	0	120.924	0	-1e10	8	-1e10	8	-1E+10	1	-1E+10	1	-1E+10	1	-1E+10	1	-1E+10	1	-1E+10	1
4902554	56	C	08/23/2022	13:02	-133.799	49.515	0	123.00	0	6.1520	0	33.1320	0	26.059	0	121.915	0	-1e10	8	-1e10	8	-1E+10	1	-1E+10	1	-1E+10	1	-1E+10	1	-1E+10	1	-1E+10	1
4902554	56	C	08/23/2022	13:02	-133.799	49.515	0	124.00	0	6.1520	0	33.1320	0	26.059	0	122.905	0	-1e10	8	-1e10	8	-1E+10	1	-1E+10	1	-1E+10	1	-1E+10	1	-1E+10	1	-1E+10	1
4902554	56	C	08/23/2022	13:02	-133.799	49.515	0	125.10	0	6.1510	0	33.1340	0	26.061	0	123.995	0	-1e10	8	-1e10	8	-1E+10	1	-1E+10	1	-1E+10	1	-1E+10	1	-1E+10	1	-1E+10	1
4902554	56	C	08/23/2022	13:02	-133.799	49.515	0	125.80	0	6.1510	0	33.1340	0	26.061	0	124.689	0	-1e10	8	-1e10	8	-1E+10	1	-1E+10	1	-1E+10	1	-1E+10	1	-1E+10	1	-1E+10	1
4902554	56	C	08/23/2022	13:02	-133.799	49.515	0	126.90	0	6.1460	0	33.1380	0	26.065	0	125.779	0	-1e10	8	-1e10	8	-1E+10	1	-1E+10	1	-1E+10	1	-1E+10	1	-1E+10	1	-1E+10	1
4902554	56	C	08/23/2022	13:02	-133.799	49.515	0	128.00	0	6.1400	0	33.1430	0	26.069	0	126.869	0	-1e10	8	-1e10	8	-1E+10	1	-1E+10	1	-1E+10	1	-1E+10	1	-1E+10	1	-1E+10	1
4902554	56	C	08/23/2022	13:02	-133.799	49.515	0	129.00	0	6.1350	0	33.1480	0	26.074	0	127.860	0	-1e10	8	-1e10	8	-1E+10	1	-1E+10	1	-1E+10	1	-1E+10	1	-1E+10	1	-1E+10	1
4902554	56	C	08/23/2022	13:02	-133.799	49.515	0	130.20	0	6.1290	0	33.1530	0	26.079	0	129.049	0	-1e10	8	-1e10	8	-1E+10	1	-1E+10	1	-1E+10	1	-1E+10	1	-1E+10	1	-1E+10	1
4902554	56	C	08/23/2022	13:02	-133.799	49.515	0	130.90	0	6.1270	0	33.1550	0	26.081	0	129.742	0	-1e10	8	-1e10	8	-1E+10	1	-1E+10	1	-1E+10	1	-1E+10	1	-1E+10	1	-1E+10	1
4902554	56	C	08/23/2022	13:02	-133.799	49.515	0	131.90	0	6.1170	0	33.1620	0	26.087	0	130.733	0	-1e10	8	-1e10	8	-1E+10	1	-1E+10	1	-1E+10	1	-1E+10	1	-1E+10	1	-1E+10	1
4902554	56	C	08/23/2022	13:02	-133.799	49.515	0	133.00	0	6.1100	0	33.1690	0	26.094	0	131.823	0	-1e10	8	-1e10	8	-1E+10	1	-1E+10	1	-1E+10	1	-1E+10	1	-1E+10	1	-1E+10	1
4902554	56	C	08/23/2022	13:02	-133.799	49.515	0	133.70	0	6.0920	0	33.1840	0	26.108	0	132.517	0	-1e10	8	-1e10	8	-1E+10	1	-1E+10	1	-1E+10	1	-1E+10	1	-1E+10	1	-1E+10	1
4902554	56	C	08/23/2022	13:02	-133.799	49.515	0	134.90	0	6.0690	0	33.2250	0	26.143	0	133.706	0	-1e10	8	-1e10	8	-1E+10	1	-1E+10	1	-1E+10	1	-1E+10	1	-1E+10	1	-1E+10	1
4902554	56	C	08/23/2022	13:02	-133.799	49.515	0	136.10	0	6.0620	0	33.2390	0	26.155	0	134.895	0	-1e10	8	-1e10	8	-1E+10	1	-1E+10	1	-1E+10	1	-1E+10	1	-1E+10	1	-1E+10	1
4902554	56	C	08/23/2022	13:02	-133.799	49.515	0	136.80	0	6.0620	0	33.2400	0	26.156	0	135.588	0	-1e10	8	-1e10	8	-1E+10	1	-1E+10	1	-1E+10	1	-1E+10	1	-1E+10	1	-1E+10	1
4902554	56	C	08/23/2022	13:02	-133.799	49.515	0	137.60	0	6.0590	0	33.2430	0	26.159	0	136.381	0	-1e10	8	-1e10	8	-1E+10	1	-1E+10	1	-1E+10	1	-1E+10	1	-1E+10	1	-1E+10	1
4902554	56	C	08/23/2022	13:02	-133.799	49.515	0	138.90	0	6.0250	0	33.3040	0	26.211	0	137.669	0	-1e10	8	-1e10	8	-1E+10	1	-1E+10	1	-1E+10	1	-1E+10	1	-1E+10	1	-1E+10	1
4902554	56	C	08/23/2022	13:02	-133.799	49.515	0	140.20	0	5.9710	0	33.3620	0	26.264	0	138.957	0	-1e10	8	-1e10	8	-1E+10	1	-1E+10	1	-1E+10	1	-1E+10	1	-1E+10	1	-1E+10	1
4902554	56	C	08/23/2022	13:02	-133.799	49.515	0	141.10	0	5.9620	0	33.3720	0	26.273	0	139.849	0	-1e10	8	-1e10	8	-1E+10	1	-1E+10	1	-1E+10	1	-1E+10	1	-1E+10	1	-1E+10	1
4902554	56	C	08/23/2022	13:02	-133.799	49.515	0	142.00	0	5.9580	0	33.3740	0	26.275	0	140.740	0	-1e10	8	-1e10	8	-1E+10	1	-1E+10	1	-1E+10	1	-1E+10	1	-1E+10	1	-1E+10	1
4902554	56	C	08/23/2022	13:02	-133.799	49.515	0	142.90	0	5.9570	0	33.3720	0	26.273	0	141.632	0	-1e10	8	-1e10	8	-1E+10	1	-1E+10	1	-1E+10	1	-1E+10	1	-1E+10	1	-1E+10	1
4902554	56	C	08/23/2022	13:02	-133.799	49.515	0	143.80	0	5.9520	0	33.3750	0	26.276	0	142.524	0	-1e10	8	-1e10	8	-1E+10	1	-1E+10	1	-1E+10	1	-1E+10	1	-1E+10	1	-1E+10	1
4902554	56	C	08/23/2022	13:02	-133.799	49.515	0	144.70	0	5.9510	0	33.3760	0	26.277	0	143.416	0	-1e10	8	-1e10	8	-1E+10	1	-1E+10	1	-1E+10	1	-1E+10	1	-1E+10	1	-1E+10	1
4902554	56	C	08/23/2022	13:02	-133.799	49.515	0	145.90	0	5.9200	0	33.4000	0	26.300	0	144.605	0	-1e10	8	-1e10	8	-1E+10	1	-1E+10	1	-1E+10	1	-1E+10	1	-1E+10	1	-1E+10	1
4902554	56	C	08/23/2022	13:02	-133.799	49.515	0	147.30	0	5.9090	0	33.4170	0	26.315	0	145.992	0	-1e10	8	-1e10	8	-1E+10	1	-1E+10	1	-1E+10	1	-1E+10	1	-1E+10	1	-1E+10	1
4902554	56	C	08/23/2022	13:02	-133.799	49.515	0	148.20	0	5.9040	0	33.4260	0	26.322	0	146.883	0	-1e10	8	-1e10	8	-1E+10	1	-1E+10	1	-1E+10	1	-1E+10	1	-1E+10	1	-1E+10	1
4902554	56	C	08/23/2022	13:02	-133.799	49.515	0	149.00	0	5.8790	0	33.4540	0	26.348	0	147.676	0	-1e10	8	-1e10	8	-1E+10	1	-1E+10	1	-1E+10	1	-1E+10	1	-1E+10	1	-1E+10	1
4902554	56	C	08/23/2022	13:02	-133.799	49.515	0	150.00	0	5.8260	0	33.5000	0	26.391	0	148.667	0	-1e10	8	-1e10	8	-1E+10	1	-1E+10	1	-1E+10	1	-1E+10	1	-1E+10	1	-1E+10	1
4902554	56	C	08/23/2022	13:02	-133.799	49.515	0	150.90	0	5.8170	0	33.5050	0	26.396	0	149.558	0	-1e10	8	-1e10	8	-1E+10	1	-1E+10	1	-1E+10	1	-1E+10	1	-1E+10	1	-1E+10	1
4902554	56	C	08/23/2022	13:02	-133.799	49.515	0	151.80	0	5.8120	0	33.5110	0	26.401	0	150.450	0	-1e10	8	-1e10	8	-1E+10	1	-1E+10	1	-1E+10	1	-1E+10	1	-1E+10	1	-1E+10	1
4902554	56	C	08/23/2022	13:02	-133.799	49.515	0	152.70	0	5.8060	0	33.5220	0	26.410	0	151.342	0	-1e10	8	-1e10	8	-1E+10	1	-1E+10	1	-1E+10	1	-1E+10	1	-1E+10	1	-1E+10	1
4902554	56	C	08/23/2022	13:02	-133.799	49.515	0	153.70	0	5.7910	0	33.5340	0	26.422	0	152.332	0	-1e10	8	-1e10	8	-1E+10	1	-1E+10	1	-1E+10	1	-1E+10	1	-1E+10	1	-1E+10	1
4902554	56	C	08/23/2022	13:02	-133.799	49.515	0	154.60	0	5.7630	0	33.5480	0	26.436	0	153.224	0	-1e10	8	-1e10	8	-1E+10	1	-1E+10	1	-1E+10	1	-1E+10	1	-1E+10	1	-1E+10	1
4902554	56	C	08/23/2022	13:02	-133.799	49.515	0	155.60	0	5.7550	0	33.5540	0	26.442	0	154.215	0	-1e10	8	-1e10	8	-1E+10	1	-1E+10	1	-1E+10	1	-1E+10	1	-1E+10	1	-1E+10	1
4902554	56	C	08/23/2022	13:02	-133.799	49.515	0	156.50	0	5.7200	0	33.5760	0	26.464	0	155.106	0	-1e10	8	-1e10	8	-1E+10	1	-1E+10	1	-1E+10	1	-1E+10	1	-1E+10	1	-1E+10	1
4902554	56	C	08/23/2022	13:02	-133.799	49.515	0	157.50	0	5.7010	0	33.5910	0	26.478	0	156.097	0	-1e10	8	-1e10	8	-1E+10	1	-1E+10	1	-1E+10	1	-1E+10	1	-1E+10	1	-1E+10	1
4902554	56	C	08/23/2022	13:02	-133.799	49.515	0	158.50	0	5.6880	0	33.6000	0	26.486	0	157.088	0	-1e10	8	-1e10	8	-1E+10	1	-1E+10	1	-1E+10	1	-1E+10	1	-1E+10	1	-1E+10	1
4902554	56	C	08/23/2022	13:02	-133.799	49.515	0	159.90	0	5.6590	0	33.6170	0	26.503	0	158.475	0	-1e10	8	-1e10	8	-1E+10	1	-1E+10	1	-1E+10	1	-1E+10	1	-1E+10	1	-1E+10	1
4902554	56	C	08/23/2022	13:02	-133.799	49.515	0	161.40	0	5.6280	0	33.6370	0	26.523	0	159.961	0	-1e10	8	-1e10	8	-1E+10	1	-1E+10	1	-1E+10	1	-1E+10	1	-1E+10	1	-1E+10	1
4902554	56	C	08/23/2022	13:02	-133.799	49.515	0	162.50	0	5.6040	0	33.6490	0	26.535	0	161.051	0	-1e10	8	-1e10	8	-1E+10	1	-1E+10	1	-1E+10	1	-1E+10	1	-1E+10	1	-1E+10	1
4902554	56	C	08/23/2022	13:02	-133.799	49.515	0	163.50	0	5.5980	0	33.6530	0	26.539	0	162.041	0	-1e10	8	-1e10	8	-1E+10	1	-1E+10	1	-1E+10	1	-1E+10	1	-1E+10	1	-1E+10	1
4902554	56	C	08/23/2022	13:02	-133.799	49.515	0	164.50	0	5.5930	0	33.6600	0	26.545	0	163.032	0	-1e10	8	-1e10	8	-1E+10	1	-1E+10	1	-1E+10	1	-1E+10	1	-1E+10	1	-1E+10	1
4902554	56	C	08/23/2022	13:02	-133.799	49.515	0	165.50	0	5.5760	0	33.6680	0	26.554	0	164.023	0	-1e10	8	-1e10	8	-1E+10	1	-1E+10	1	-1E+10	1	-1E+10	1	-1E+10	1	-1E+10	1
4902554	56	C	08/23/2022	13:02	-133.799	49.515	0	166.60	0	5.5660	0	33.6690	0	26.556	0	165.112	0	-1e10	8	-1e10	8	-1E+10	1	-1E+10	1	-1E+10	1	-1E+10	1	-1E+10	1	-1E+10	1
4902554	56	C	08/23/2022	13:02	-133.799	49.515	0	167.60	0	5.5570	0	33.6730	0	26.560	0	166.103	0	-1e10	8	-1e10	8	-1E+10	1	-1E+10	1	-1E+10	1	-1E+10	1	-1E+10	1	-1E+10	1
4902554	56	C	08/23/2022	13:02	-133.799	49.515	0	168.60	0	5.5470	0	33.6770	0	26.564	0	167.094	0	-1e10	8	-1e10	8	-1E+10	1	-1E+10	1	-1E+10	1	-1E+10	1	-1E+10	1	-1E+10	1
4902554	56	C	08/23/2022	13:02	-133.799	49.515	0	169.70	0	5.5460	0	33.6780	0	26.565	0	168.183	0	-1e10	8	-1e10	8	-1E+10	1	-1E+10	1	-1E+10	1	-1E+10	1	-1E+10	1	-1E+10	1
4902554	56	C	08/23/2022	13:02	-133.799	49.515	0	170.70	0	5.5370	0	33.6810	0	26.569	0	169.174	0	-1e10	8	-1e10	8	-1E+10	1	-1E+10	1	-1E+10	1	-1E+10	1	-1E+10	1	-1E+10	1
4902554	56	C	08/23/2022	13:02	-133.799	49.515	0	171.70	0	5.5300	0	33.6830	0	26.571	0	170.165	0	-1e10	8	-1e10	8	-1E+10	1	-1E+10	1	-1E+10	1	-1E+10	1	-1E+10	1	-1E+10	1
4902554	56	C	08/23/2022	13:02	-133.799	49.515	0	172.80	0	5.5240	0	33.6840	0	26.573	0	171.255	0	-1e10	8	-1e10	8	-1E+10	1	-1E+10	1	-1E+10	1	-1E+10	1	-1E+10	1	-1E+10	1
4902554	56	C	08/23/2022	13:02	-133.799	49.515	0	173.80	0	5.5030	0	33.6910	0	26.581	0	172.245	0	-1e10	8	-1e10	8	-1E+10	1	-1E+10	1	-1E+10	1	-1E+10	1	-1E+10	1	-1E+10	1
4902554	56	C	08/23/2022	13:02	-133.799	49.515	0	174.90	0	5.4880	0	33.6950	0	26.586	0	173.335	0	-1e10	8	-1e10	8	-1E+10	1	-1E+10	1	-1E+10	1	-1E+10	1	-1E+10	1	-1E+10	1
4902554	56	C	08/23/2022	13:02	-133.799	49.515	0	175.90	0	5.4820	0	33.6940	0	26.586	0	174.325	0	-1e10	8	-1e10	8	-1E+10	1	-1E+10	1	-1E+10	1	-1E+10	1	-1E+10	1	-1E+10	1
4902554	56	C	08/23/2022	13:02	-133.799	49.515	0	176.90	0	5.4610	0	33.7020	0	26.595	0	175.316	0	-1e10	8	-1e10	8	-1E+10	1	-1E+10	1	-1E+10	1	-1E+10	1	-1E+10	1	-1E+10	1
4902554	56	C	08/23/2022	13:02	-133.799	49.515	0	177.90	0	5.4520	0	33.7030	0	26.596	0	176.307	0	-1e10	8	-1e10	8	-1E+10	1	-1E+10	1	-1E+10	1	-1E+10	1	-1E+10	1	-1E+10	1
4902554	56	C	08/23/2022	13:02	-133.799	49.515	0	179.00	0	5.4490	0	33.7030	0	26.597	0	177.396	0	-1e10	8	-1e10	8	-1E+10	1	-1E+10	1	-1E+10	1	-1E+10	1	-1E+10	1	-1E+10	1
4902554	56	C	08/23/2022	13:02	-133.799	49.515	0	180.00	0	5.4380	0	33.7040	0	26.599	0	178.387	0	-1e10	8	-1e10	8	-1E+10	1	-1E+10	1	-1E+10	1	-1E+10	1	-1E+10	1	-1E+10	1
4902554	56	C	08/23/2022	13:02	-133.799	49.515	0	181.00	0	5.4150	0	33.7090	0	26.606	0	179.378	0	-1e10	8	-1e10	8	-1E+10	1	-1E+10	1	-1E+10	1	-1E+10	1	-1E+10	1	-1E+10	1
4902554	56	C	08/23/2022	13:02	-133.799	49.515	0	182.00	0	5.3910	0	33.7140	0	26.612	0	180.368	0	-1e10	8	-1e10	8	-1E+10	1	-1E+10	1	-1E+10	1	-1E+10	1	-1E+10	1	-1E+10	1
4902554	56	C	08/23/2022	13:02	-133.799	49.515	0	183.00	0	5.3520	0	33.7220	0	26.623	0	181.359	0	-1e10	8	-1e10	8	-1E+10	1	-1E+10	1	-1E+10	1	-1E+10	1	-1E+10	1	-1E+10	1
4902554	56	C	08/23/2022	13:02	-133.799	49.515	0	184.00	0	5.3280	0	33.7230	0	26.627	0	182.349	0	-1e10	8	-1e10	8	-1E+10	1	-1E+10	1	-1E+10	1	-1E+10	1	-1E+10	1	-1E+10	1
4902554	56	C	08/23/2022	13:02	-133.799	49.515	0	185.00	0	5.3050	0	33.7270	0	26.633	0	183.340	0	-1e10	8	-1e10	8	-1E+10	1	-1E+10	1	-1E+10	1	-1E+10	1	-1E+10	1	-1E+10	1
4902554	56	C	08/23/2022	13:02	-133.799	49.515	0	186.00	0	5.2970	0	33.7270	0	26.634	0	184.331	0	-1e10	8	-1e10	8	-1E+10	1	-1E+10	1	-1E+10	1	-1E+10	1	-1E+10	1	-1E+10	1
4902554	56	C	08/23/2022	13:02	-133.799	49.515	0	187.00	0	5.2820	0	33.7290	0	26.637	0	185.321	0	-1e10	8	-1e10	8	-1E+10	1	-1E+10	1	-1E+10	1	-1E+10	1	-1E+10	1	-1E+10	1
4902554	56	C	08/23/2022	13:02	-133.799	49.515	0	188.00	0	5.2420	0	33.7360	0	26.647	0	186.312	0	-1e10	8	-1e10	8	-1E+10	1	-1E+10	1	-1E+10	1	-1E+10	1	-1E+10	1	-1E+10	1
4902554	56	C	08/23/2022	13:02	-133.799	49.515	0	189.00	0	5.2330	0	33.7360	0	26.648	0	187.302	0	-1e10	8	-1e10	8	-1E+10	1	-1E+10	1	-1E+10	1	-1E+10	1	-1E+10	1	-1E+10	1
4902554	56	C	08/23/2022	13:02	-133.799	49.515	0	189.90	0	5.2310	0	33.7370	0	26.649	0	188.194	0	-1e10	8	-1e10	8	-1E+10	1	-1E+10	1	-1E+10	1	-1E+10	1	-1E+10	1	-1E+10	1
4902554	56	C	08/23/2022	13:02	-133.799	49.515	0	190.90	0	5.2290	0	33.7360	0	26.649	0	189.184	0	-1e10	8	-1e10	8	-1E+10	1	-1E+10	1	-1E+10	1	-1E+10	1	-1E+10	1	-1E+10	1
4902554	56	C	08/23/2022	13:02	-133.799	49.515	0	191.80	0	5.2210	0	33.7360	0	26.650	0	190.076	0	-1e10	8	-1e10	8	-1E+10	1	-1E+10	1	-1E+10	1	-1E+10	1	-1E+10	1	-1E+10	1
4902554	56	C	08/23/2022	13:02	-133.799	49.515	0	192.80	0	5.2020	0	33.7390	0	26.654	0	191.066	0	-1e10	8	-1e10	8	-1E+10	1	-1E+10	1	-1E+10	1	-1E+10	1	-1E+10	1	-1E+10	1
4902554	56	C	08/23/2022	13:02	-133.799	49.515	0	193.80	0	5.1850	0	33.7420	0	26.659	0	192.057	0	-1e10	8	-1e10	8	-1E+10	1	-1E+10	1	-1E+10	1	-1E+10	1	-1E+10	1	-1E+10	1
4902554	56	C	08/23/2022	13:02	-133.799	49.515	0	194.70	0	5.1690	0	33.7460	0	26.664	0	192.948	0	-1e10	8	-1e10	8	-1E+10	1	-1E+10	1	-1E+10	1	-1E+10	1	-1E+10	1	-1E+10	1
4902554	56	C	08/23/2022	13:02	-133.799	49.515	0	195.70	0	5.1570	0	33.7460	0	26.665	0	193.939	0	-1e10	8	-1e10	8	-1E+10	1	-1E+10	1	-1E+10	1	-1E+10	1	-1E+10	1	-1E+10	1
4902554	56	C	08/23/2022	13:02	-133.799	49.515	0	196.70	0	5.1570	0	33.7460	0	26.665	0	194.929	0	-1e10	8	-1e10	8	-1E+10	1	-1E+10	1	-1E+10	1	-1E+10	1	-1E+10	1	-1E+10	1
4902554	56	C	08/23/2022	13:02	-133.799	49.515	0	197.60	0	5.1500	0	33.7470	0	26.667	0	195.821	0	-1e10	8	-1e10	8	-1E+10	1	-1E+10	1	-1E+10	1	-1E+10	1	-1E+10	1	-1E+10	1
4902554	56	C	08/23/2022	13:02	-133.799	49.515	0	198.60	0	5.1400	0	33.7480	0	26.669	0	196.811	0	-1e10	8	-1e10	8	-1E+10	1	-1E+10	1	-1E+10	1	-1E+10	1	-1E+10	1	-1E+10	1
4902554	56	C	08/23/2022	13:02	-133.799	49.515	0	199.50	0	5.1330	0	33.7490	0	26.670	0	197.703	0	-1e10	8	-1e10	8	-1E+10	1	-1E+10	1	-1E+10	1	-1E+10	1	-1E+10	1	-1E+10	1
4902554	56	C	08/23/2022	13:02	-133.799	49.515	0	200.50	0	5.1240	0	33.7500	0	26.672	0	198.693	0	-1e10	8	-1e10	8	-1E+10	1	-1E+10	1	-1E+10	1	-1E+10	1	-1E+10	1	-1E+10	1
4902554	56	C	08/23/2022	13:02	-133.799	49.515	0	201.90	0	5.1050	0	33.7520	0	26.676	0	200.080	0	-1e10	8	-1e10	8	-1E+10	1	-1E+10	1	-1E+10	1	-1E+10	1	-1E+10	1	-1E+10	1
4902554	56	C	08/23/2022	13:02	-133.799	49.515	0	203.40	0	5.0850	0	33.7540	0	26.680	0	201.566	0	-1e10	8	-1e10	8	-1E+10	1	-1E+10	1	-1E+10	1	-1E+10	1	-1E+10	1	-1E+10	1
4902554	56	C	08/23/2022	13:02	-133.799	49.515	0	204.30	0	5.0810	0	33.7540	0	26.680	0	202.457	0	-1e10	8	-1e10	8	-1E+10	1	-1E+10	1	-1E+10	1	-1E+10	1	-1E+10	1	-1E+10	1
4902554	56	C	08/23/2022	13:02	-133.799	49.515	0	205.30	0	5.0560	0	33.7590	0	26.687	0	203.448	0	-1e10	8	-1e10	8	-1E+10	1	-1E+10	1	-1E+10	1	-1E+10	1	-1E+10	1	-1E+10	1
4902554	56	C	08/23/2022	13:02	-133.799	49.515	0	206.20	0	5.0460	0	33.7600	0	26.689	0	204.339	0	-1e10	8	-1e10	8	-1E+10	1	-1E+10	1	-1E+10	1	-1E+10	1	-1E+10	1	-1E+10	1
4902554	56	C	08/23/2022	13:02	-133.799	49.515	0	207.10	0	5.0370	0	33.7620	0	26.692	0	205.231	0	-1e10	8	-1e10	8	-1E+10	1	-1E+10	1	-1E+10	1	-1E+10	1	-1E+10	1	-1E+10	1
4902554	56	C	08/23/2022	13:02	-133.799	49.515	0	208.00	0	5.0240	0	33.7630	0	26.694	0	206.122	0	-1e10	8	-1e10	8	-1E+10	1	-1E+10	1	-1E+10	1	-1E+10	1	-1E+10	1	-1E+10	1
4902554	56	C	08/23/2022	13:02	-133.799	49.515	0	209.00	0	5.0110	0	33.7640	0	26.696	0	207.113	0	-1e10	8	-1e10	8	-1E+10	1	-1E+10	1	-1E+10	1	-1E+10	1	-1E+10	1	-1E+10	1
4902554	56	C	08/23/2022	13:02	-133.799	49.515	0	210.20	0	4.9960	0	33.7650	0	26.699	0	208.301	0	-1e10	8	-1e10	8	-1E+10	1	-1E+10	1	-1E+10	1	-1E+10	1	-1E+10	1	-1E+10	1
4902554	56	C	08/23/2022	13:02	-133.799	49.515	0	210.90	0	4.9820	0	33.7680	0	26.703	0	208.994	0	-1e10	8	-1e10	8	-1E+10	1	-1E+10	1	-1E+10	1	-1E+10	1	-1E+10	1	-1E+10	1
4902554	56	C	08/23/2022	13:02	-133.799	49.515	0	211.70	0	4.9730	0	33.7680	0	26.704	0	209.787	0	-1e10	8	-1e10	8	-1E+10	1	-1E+10	1	-1E+10	1	-1E+10	1	-1E+10	1	-1E+10	1
4902554	56	C	08/23/2022	13:02	-133.799	49.515	0	212.80	0	4.9700	0	33.7690	0	26.705	0	210.876	0	-1e10	8	-1e10	8	-1E+10	1	-1E+10	1	-1E+10	1	-1E+10	1	-1E+10	1	-1E+10	1
4902554	56	C	08/23/2022	13:02	-133.799	49.515	0	214.00	0	4.9670	0	33.7690	0	26.705	0	212.065	0	-1e10	8	-1e10	8	-1E+10	1	-1E+10	1	-1E+10	1	-1E+10	1	-1E+10	1	-1E+10	1
4902554	56	C	08/23/2022	13:02	-133.799	49.515	0	214.80	0	4.9620	0	33.7710	0	26.707	0	212.857	0	-1e10	8	-1e10	8	-1E+10	1	-1E+10	1	-1E+10	1	-1E+10	1	-1E+10	1	-1E+10	1
4902554	56	C	08/23/2022	13:02	-133.799	49.515	0	216.00	0	4.9490	0	33.7720	0	26.709	0	214.046	0	-1e10	8	-1e10	8	-1E+10	1	-1E+10	1	-1E+10	1	-1E+10	1	-1E+10	1	-1E+10	1
4902554	56	C	08/23/2022	13:02	-133.799	49.515	0	217.20	0	4.9300	0	33.7740	0	26.713	0	215.234	0	-1e10	8	-1e10	8	-1E+10	1	-1E+10	1	-1E+10	1	-1E+10	1	-1E+10	1	-1E+10	1
4902554	56	C	08/23/2022	13:02	-133.799	49.515	0	218.00	0	4.9210	0	33.7750	0	26.715	0	216.027	0	-1e10	8	-1e10	8	-1E+10	1	-1E+10	1	-1E+10	1	-1E+10	1	-1E+10	1	-1E+10	1
4902554	56	C	08/23/2022	13:02	-133.799	49.515	0	218.80	0	4.9060	0	33.7780	0	26.719	0	216.819	0	-1e10	8	-1e10	8	-1E+10	1	-1E+10	1	-1E+10	1	-1E+10	1	-1E+10	1	-1E+10	1
4902554	56	C	08/23/2022	13:02	-133.799	49.515	0	219.70	0	4.9030	0	33.7790	0	26.720	0	217.710	0	-1e10	8	-1e10	8	-1E+10	1	-1E+10	1	-1E+10	1	-1E+10	1	-1E+10	1	-1E+10	1
4902554	56	C	08/23/2022	13:02	-133.799	49.515	0	220.90	0	4.9000	0	33.7790	0	26.721	0	218.899	0	-1e10	8	-1e10	8	-1E+10	1	-1E+10	1	-1E+10	1	-1E+10	1	-1E+10	1	-1E+10	1
4902554	56	C	08/23/2022	13:02	-133.799	49.515	0	222.20	0	4.8940	0	33.7800	0	26.722	0	220.186	0	-1e10	8	-1e10	8	-1E+10	1	-1E+10	1	-1E+10	1	-1E+10	1	-1E+10	1	-1E+10	1
4902554	56	C	08/23/2022	13:02	-133.799	49.515	0	223.10	0	4.8890	0	33.7810	0	26.723	0	221.078	0	-1e10	8	-1e10	8	-1E+10	1	-1E+10	1	-1E+10	1	-1E+10	1	-1E+10	1	-1E+10	1
4902554	56	C	08/23/2022	13:02	-133.799	49.515	0	223.90	0	4.8880	0	33.7810	0	26.724	0	221.870	0	-1e10	8	-1e10	8	-1E+10	1	-1E+10	1	-1E+10	1	-1E+10	1	-1E+10	1	-1E+10	1
4902554	56	C	08/23/2022	13:02	-133.799	49.515	0	224.80	0	4.8810	0	33.7830	0	26.726	0	222.761	0	-1e10	8	-1e10	8	-1E+10	1	-1E+10	1	-1E+10	1	-1E+10	1	-1E+10	1	-1E+10	1
4902554	56	C	08/23/2022	13:02	-133.799	49.515	0	225.70	0	4.8790	0	33.7830	0	26.726	0	223.653	0	-1e10	8	-1e10	8	-1E+10	1	-1E+10	1	-1E+10	1	-1E+10	1	-1E+10	1	-1E+10	1
4902554	56	C	08/23/2022	13:02	-133.799	49.515	0	226.90	0	4.8720	0	33.7840	0	26.728	0	224.841	0	-1e10	8	-1e10	8	-1E+10	1	-1E+10	1	-1E+10	1	-1E+10	1	-1E+10	1	-1E+10	1
4902554	56	C	08/23/2022	13:02	-133.799	49.515	0	228.30	0	4.8710	0	33.7840	0	26.728	0	226.228	0	-1e10	8	-1e10	8	-1E+10	1	-1E+10	1	-1E+10	1	-1E+10	1	-1E+10	1	-1E+10	1
4902554	56	C	08/23/2022	13:02	-133.799	49.515	0	229.20	0	4.8660	0	33.7860	0	26.730	0	227.119	0	-1e10	8	-1e10	8	-1E+10	1	-1E+10	1	-1E+10	1	-1E+10	1	-1E+10	1	-1E+10	1
4902554	56	C	08/23/2022	13:02	-133.799	49.515	0	230.00	0	4.8520	0	33.7890	0	26.734	0	227.911	0	-1e10	8	-1e10	8	-1E+10	1	-1E+10	1	-1E+10	1	-1E+10	1	-1E+10	1	-1E+10	1
4902554	56	C	08/23/2022	13:02	-133.799	49.515	0	230.90	0	4.8470	0	33.7900	0	26.735	0	228.803	0	-1e10	8	-1e10	8	-1E+10	1	-1E+10	1	-1E+10	1	-1E+10	1	-1E+10	1	-1E+10	1
4902554	56	C	08/23/2022	13:02	-133.799	49.515	0	231.80	0	4.8330	0	33.7930	0	26.739	0	229.694	0	-1e10	8	-1e10	8	-1E+10	1	-1E+10	1	-1E+10	1	-1E+10	1	-1E+10	1	-1E+10	1
4902554	56	C	08/23/2022	13:02	-133.799	49.515	0	232.70	0	4.8140	0	33.7990	0	26.746	0	230.585	0	-1e10	8	-1e10	8	-1E+10	1	-1E+10	1	-1E+10	1	-1E+10	1	-1E+10	1	-1E+10	1
4902554	56	C	08/23/2022	13:02	-133.799	49.515	0	233.60	0	4.8040	0	33.7980	0	26.746	0	231.477	0	-1e10	8	-1e10	8	-1E+10	1	-1E+10	1	-1E+10	1	-1E+10	1	-1E+10	1	-1E+10	1
4902554	56	C	08/23/2022	13:02	-133.799	49.515	0	234.50	0	4.8030	0	33.7970	0	26.746	0	232.368	0	-1e10	8	-1e10	8	-1E+10	1	-1E+10	1	-1E+10	1	-1E+10	1	-1E+10	1	-1E+10	1
4902554	56	C	08/23/2022	13:02	-133.799	49.515	0	235.90	0	4.7930	0	33.8000	0	26.749	0	233.754	0	-1e10	8	-1e10	8	-1E+10	1	-1E+10	1	-1E+10	1	-1E+10	1	-1E+10	1	-1E+10	1
4902554	56	C	08/23/2022	13:02	-133.799	49.515	0	237.30	0	4.7840	0	33.8020	0	26.752	0	235.141	0	-1e10	8	-1e10	8	-1E+10	1	-1E+10	1	-1E+10	1	-1E+10	1	-1E+10	1	-1E+10	1
4902554	56	C	08/23/2022	13:02	-133.799	49.515	0	238.30	0	4.7900	0	33.8040	0	26.753	0	236.131	0	-1e10	8	-1e10	8	-1E+10	1	-1E+10	1	-1E+10	1	-1E+10	1	-1E+10	1	-1E+10	1
4902554	56	C	08/23/2022	13:02	-133.799	49.515	0	239.20	0	4.7860	0	33.8050	0	26.754	0	237.023	0	-1e10	8	-1e10	8	-1E+10	1	-1E+10	1	-1E+10	1	-1E+10	1	-1E+10	1	-1E+10	1
4902554	56	C	08/23/2022	13:02	-133.799	49.515	0	240.20	0	4.7870	0	33.8050	0	26.754	0	238.013	0	-1e10	8	-1e10	8	-1E+10	1	-1E+10	1	-1E+10	1	-1E+10	1	-1E+10	1	-1E+10	1
4902554	56	C	08/23/2022	13:02	-133.799	49.515	0	241.10	0	4.7850	0	33.8060	0	26.755	0	238.904	0	-1e10	8	-1e10	8	-1E+10	1	-1E+10	1	-1E+10	1	-1E+10	1	-1E+10	1	-1E+10	1
4902554	56	C	08/23/2022	13:02	-133.799	49.515	0	242.10	0	4.7790	0	33.8070	0	26.756	0	239.895	0	-1e10	8	-1e10	8	-1E+10	1	-1E+10	1	-1E+10	1	-1E+10	1	-1E+10	1	-1E+10	1
4902554	56	C	08/23/2022	13:02	-133.799	49.515	0	243.00	0	4.7760	0	33.8080	0	26.758	0	240.786	0	-1e10	8	-1e10	8	-1E+10	1	-1E+10	1	-1E+10	1	-1E+10	1	-1E+10	1	-1E+10	1
4902554	56	C	08/23/2022	13:02	-133.799	49.515	0	244.00	0	4.7740	0	33.8090	0	26.759	0	241.776	0	-1e10	8	-1e10	8	-1E+10	1	-1E+10	1	-1E+10	1	-1E+10	1	-1E+10	1	-1E+10	1
4902554	56	C	08/23/2022	13:02	-133.799	49.515	0	244.90	0	4.7740	0	33.8090	0	26.759	0	242.667	0	-1e10	8	-1e10	8	-1E+10	1	-1E+10	1	-1E+10	1	-1E+10	1	-1E+10	1	-1E+10	1
4902554	56	C	08/23/2022	13:02	-133.799	49.515	0	245.90	0	4.7700	0	33.8090	0	26.759	0	243.658	0	-1e10	8	-1e10	8	-1E+10	1	-1E+10	1	-1E+10	1	-1E+10	1	-1E+10	1	-1E+10	1
4902554	56	C	08/23/2022	13:02	-133.799	49.515	0	246.90	0	4.7690	0	33.8090	0	26.759	0	244.648	0	-1e10	8	-1e10	8	-1E+10	1	-1E+10	1	-1E+10	1	-1E+10	1	-1E+10	1	-1E+10	1
4902554	56	C	08/23/2022	13:02	-133.799	49.515	0	247.80	0	4.7680	0	33.8100	0	26.760	0	245.539	0	-1e10	8	-1e10	8	-1E+10	1	-1E+10	1	-1E+10	1	-1E+10	1	-1E+10	1	-1E+10	1
4902554	56	C	08/23/2022	13:02	-133.799	49.515	0	248.70	0	4.7630	0	33.8100	0	26.761	0	246.430	0	-1e10	8	-1e10	8	-1E+10	1	-1E+10	1	-1E+10	1	-1E+10	1	-1E+10	1	-1E+10	1
4902554	56	C	08/23/2022	13:02	-133.799	49.515	0	249.70	0	4.7380	0	33.8130	0	26.766	0	247.421	0	-1e10	8	-1e10	8	-1E+10	1	-1E+10	1	-1E+10	1	-1E+10	1	-1E+10	1	-1E+10	1
4902554	56	C	08/23/2022	13:02	-133.799	49.515	0	250.70	0	4.7270	0	33.8140	0	26.768	0	248.411	0	-1e10	8	-1e10	8	-1E+10	1	-1E+10	1	-1E+10	1	-1E+10	1	-1E+10	1	-1E+10	1
4902554	56	C	08/23/2022	13:02	-133.799	49.515	0	251.60	0	4.7260	0	33.8140	0	26.768	0	249.302	0	-1e10	8	-1e10	8	-1E+10	1	-1E+10	1	-1E+10	1	-1E+10	1	-1E+10	1	-1E+10	1
4902554	56	C	08/23/2022	13:02	-133.799	49.515	0	252.60	0	4.7170	0	33.8130	0	26.768	0	250.293	0	-1e10	8	-1e10	8	-1E+10	1	-1E+10	1	-1E+10	1	-1E+10	1	-1E+10	1	-1E+10	1
4902554	56	C	08/23/2022	13:02	-133.799	49.515	0	253.90	0	4.7130	0	33.8140	0	26.769	0	251.580	0	-1e10	8	-1e10	8	-1E+10	1	-1E+10	1	-1E+10	1	-1E+10	1	-1E+10	1	-1E+10	1
4902554	56	C	08/23/2022	13:02	-133.799	49.515	0	255.40	0	4.7090	0	33.8150	0	26.771	0	253.065	0	-1e10	8	-1e10	8	-1E+10	1	-1E+10	1	-1E+10	1	-1E+10	1	-1E+10	1	-1E+10	1
4902554	56	C	08/23/2022	13:02	-133.799	49.515	0	256.30	0	4.7050	0	33.8160	0	26.772	0	253.956	0	-1e10	8	-1e10	8	-1E+10	1	-1E+10	1	-1E+10	1	-1E+10	1	-1E+10	1	-1E+10	1
4902554	56	C	08/23/2022	13:02	-133.799	49.515	0	257.30	0	4.7020	0	33.8160	0	26.772	0	254.947	0	-1e10	8	-1e10	8	-1E+10	1	-1E+10	1	-1E+10	1	-1E+10	1	-1E+10	1	-1E+10	1
4902554	56	C	08/23/2022	13:02	-133.799	49.515	0	258.20	0	4.7010	0	33.8160	0	26.772	0	255.838	0	-1e10	8	-1e10	8	-1E+10	1	-1E+10	1	-1E+10	1	-1E+10	1	-1E+10	1	-1E+10	1
4902554	56	C	08/23/2022	13:02	-133.799	49.515	0	259.20	0	4.6860	0	33.8190	0	26.776	0	256.828	0	-1e10	8	-1e10	8	-1E+10	1	-1E+10	1	-1E+10	1	-1E+10	1	-1E+10	1	-1E+10	1
4902554	56	C	08/23/2022	13:02	-133.799	49.515	0	260.10	0	4.6690	0	33.8210	0	26.780	0	257.719	0	-1e10	8	-1e10	8	-1E+10	1	-1E+10	1	-1E+10	1	-1E+10	1	-1E+10	1	-1E+10	1
4902554	56	C	08/23/2022	13:02	-133.799	49.515	0	261.10	0	4.6620	0	33.8230	0	26.782	0	258.710	0	-1e10	8	-1e10	8	-1E+10	1	-1E+10	1	-1E+10	1	-1E+10	1	-1E+10	1	-1E+10	1
4902554	56	C	08/23/2022	13:02	-133.799	49.515	0	262.00	0	4.6540	0	33.8240	0	26.784	0	259.601	0	-1e10	8	-1e10	8	-1E+10	1	-1E+10	1	-1E+10	1	-1E+10	1	-1E+10	1	-1E+10	1
4902554	56	C	08/23/2022	13:02	-133.799	49.515	0	262.90	0	4.6430	0	33.8270	0	26.787	0	260.492	0	-1e10	8	-1e10	8	-1E+10	1	-1E+10	1	-1E+10	1	-1E+10	1	-1E+10	1	-1E+10	1
4902554	56	C	08/23/2022	13:02	-133.799	49.515	0	263.90	0	4.6320	0	33.8280	0	26.789	0	261.482	0	-1e10	8	-1e10	8	-1E+10	1	-1E+10	1	-1E+10	1	-1E+10	1	-1E+10	1	-1E+10	1
4902554	56	C	08/23/2022	13:02	-133.799	49.515	0	264.90	0	4.6180	0	33.8300	0	26.793	0	262.472	0	-1e10	8	-1e10	8	-1E+10	1	-1E+10	1	-1E+10	1	-1E+10	1	-1E+10	1	-1E+10	1
4902554	56	C	08/23/2022	13:02	-133.799	49.515	0	265.80	0	4.6150	0	33.8310	0	26.794	0	263.364	0	-1e10	8	-1e10	8	-1E+10	1	-1E+10	1	-1E+10	1	-1E+10	1	-1E+10	1	-1E+10	1
4902554	56	C	08/23/2022	13:02	-133.799	49.515	0	266.80	0	4.6120	0	33.8340	0	26.796	0	264.354	0	-1e10	8	-1e10	8	-1E+10	1	-1E+10	1	-1E+10	1	-1E+10	1	-1E+10	1	-1E+10	1
4902554	56	C	08/23/2022	13:02	-133.799	49.515	0	267.70	0	4.6130	0	33.8350	0	26.797	0	265.245	0	-1e10	8	-1e10	8	-1E+10	1	-1E+10	1	-1E+10	1	-1E+10	1	-1E+10	1	-1E+10	1
4902554	56	C	08/23/2022	13:02	-133.799	49.515	0	268.70	0	4.6110	0	33.8350	0	26.797	0	266.235	0	-1e10	8	-1e10	8	-1E+10	1	-1E+10	1	-1E+10	1	-1E+10	1	-1E+10	1	-1E+10	1
4902554	56	C	08/23/2022	13:02	-133.799	49.515	0	269.60	0	4.6110	0	33.8350	0	26.797	0	267.126	0	-1e10	8	-1e10	8	-1E+10	1	-1E+10	1	-1E+10	1	-1E+10	1	-1E+10	1	-1E+10	1
4902554	56	C	08/23/2022	13:02	-133.799	49.515	0	270.60	0	4.6100	0	33.8360	0	26.798	0	268.116	0	-1e10	8	-1e10	8	-1E+10	1	-1E+10	1	-1E+10	1	-1E+10	1	-1E+10	1	-1E+10	1
4902554	56	C	08/23/2022	13:02	-133.799	49.515	0	271.50	0	4.6080	0	33.8360	0	26.798	0	269.008	0	-1e10	8	-1e10	8	-1E+10	1	-1E+10	1	-1E+10	1	-1E+10	1	-1E+10	1	-1E+10	1
4902554	56	C	08/23/2022	13:02	-133.799	49.515	0	272.90	0	4.6070	0	33.8360	0	26.799	0	270.394	0	-1e10	8	-1e10	8	-1E+10	1	-1E+10	1	-1E+10	1	-1E+10	1	-1E+10	1	-1E+10	1
4902554	56	C	08/23/2022	13:02	-133.799	49.515	0	274.40	0	4.6050	0	33.8380	0	26.800	0	271.879	0	-1e10	8	-1e10	8	-1E+10	1	-1E+10	1	-1E+10	1	-1E+10	1	-1E+10	1	-1E+10	1
4902554	56	C	08/23/2022	13:02	-133.799	49.515	0	275.30	0	4.5980	0	33.8410	0	26.803	0	272.770	0	-1e10	8	-1e10	8	-1E+10	1	-1E+10	1	-1E+10	1	-1E+10	1	-1E+10	1	-1E+10	1
4902554	56	C	08/23/2022	13:02	-133.799	49.515	0	276.20	0	4.5840	0	33.8430	0	26.807	0	273.661	0	-1e10	8	-1e10	8	-1E+10	1	-1E+10	1	-1E+10	1	-1E+10	1	-1E+10	1	-1E+10	1
4902554	56	C	08/23/2022	13:02	-133.799	49.515	0	277.10	0	4.5830	0	33.8430	0	26.807	0	274.552	0	-1e10	8	-1e10	8	-1E+10	1	-1E+10	1	-1E+10	1	-1E+10	1	-1E+10	1	-1E+10	1
4902554	56	C	08/23/2022	13:02	-133.799	49.515	0	278.10	0	4.5730	0	33.8460	0	26.810	0	275.543	0	-1e10	8	-1e10	8	-1E+10	1	-1E+10	1	-1E+10	1	-1E+10	1	-1E+10	1	-1E+10	1
4902554	56	C	08/23/2022	13:02	-133.799	49.515	0	279.00	0	4.5640	0	33.8460	0	26.811	0	276.434	0	-1e10	8	-1e10	8	-1E+10	1	-1E+10	1	-1E+10	1	-1E+10	1	-1E+10	1	-1E+10	1
4902554	56	C	08/23/2022	13:02	-133.799	49.515	0	279.90	0	4.5640	0	33.8460	0	26.811	0	277.325	0	-1e10	8	-1e10	8	-1E+10	1	-1E+10	1	-1E+10	1	-1E+10	1	-1E+10	1	-1E+10	1
4902554	56	C	08/23/2022	13:02	-133.799	49.515	0	280.90	0	4.5650	0	33.8460	0	26.811	0	278.315	0	-1e10	8	-1e10	8	-1E+10	1	-1E+10	1	-1E+10	1	-1E+10	1	-1E+10	1	-1E+10	1
4902554	56	C	08/23/2022	13:02	-133.799	49.515	0	281.80	0	4.5610	0	33.8490	0	26.814	0	279.206	0	-1e10	8	-1e10	8	-1E+10	1	-1E+10	1	-1E+10	1	-1E+10	1	-1E+10	1	-1E+10	1
4902554	56	C	08/23/2022	13:02	-133.799	49.515	0	282.70	0	4.5590	0	33.8520	0	26.817	0	280.097	0	-1e10	8	-1e10	8	-1E+10	1	-1E+10	1	-1E+10	1	-1E+10	1	-1E+10	1	-1E+10	1
4902554	56	C	08/23/2022	13:02	-133.799	49.515	0	283.70	0	4.5560	0	33.8530	0	26.818	0	281.087	0	-1e10	8	-1e10	8	-1E+10	1	-1E+10	1	-1E+10	1	-1E+10	1	-1E+10	1	-1E+10	1
4902554	56	C	08/23/2022	13:02	-133.799	49.515	0	284.60	0	4.5560	0	33.8530	0	26.818	0	281.978	0	-1e10	8	-1e10	8	-1E+10	1	-1E+10	1	-1E+10	1	-1E+10	1	-1E+10	1	-1E+10	1
4902554	56	C	08/23/2022	13:02	-133.799	49.515	0	285.90	0	4.5540	0	33.8540	0	26.819	0	283.266	0	-1e10	8	-1e10	8	-1E+10	1	-1E+10	1	-1E+10	1	-1E+10	1	-1E+10	1	-1E+10	1
4902554	56	C	08/23/2022	13:02	-133.799	49.515	0	287.40	0	4.5580	0	33.8560	0	26.820	0	284.751	0	-1e10	8	-1e10	8	-1E+10	1	-1E+10	1	-1E+10	1	-1E+10	1	-1E+10	1	-1E+10	1
4902554	56	C	08/23/2022	13:02	-133.799	49.515	0	288.30	0	4.5560	0	33.8570	0	26.821	0	285.642	0	-1e10	8	-1e10	8	-1E+10	1	-1E+10	1	-1E+10	1	-1E+10	1	-1E+10	1	-1E+10	1
4902554	56	C	08/23/2022	13:02	-133.799	49.515	0	289.20	0	4.5530	0	33.8590	0	26.823	0	286.533	0	-1e10	8	-1e10	8	-1E+10	1	-1E+10	1	-1E+10	1	-1E+10	1	-1E+10	1	-1E+10	1
4902554	56	C	08/23/2022	13:02	-133.799	49.515	0	290.10	0	4.5430	0	33.8600	0	26.825	0	287.424	0	-1e10	8	-1e10	8	-1E+10	1	-1E+10	1	-1E+10	1	-1E+10	1	-1E+10	1	-1E+10	1
4902554	56	C	08/23/2022	13:02	-133.799	49.515	0	291.00	0	4.5420	0	33.8600	0	26.825	0	288.315	0	-1e10	8	-1e10	8	-1E+10	1	-1E+10	1	-1E+10	1	-1E+10	1	-1E+10	1	-1E+10	1
4902554	56	C	08/23/2022	13:02	-133.799	49.515	0	292.00	0	4.5420	0	33.8610	0	26.826	0	289.305	0	-1e10	8	-1e10	8	-1E+10	1	-1E+10	1	-1E+10	1	-1E+10	1	-1E+10	1	-1E+10	1
4902554	56	C	08/23/2022	13:02	-133.799	49.515	0	292.90	0	4.5430	0	33.8600	0	26.825	0	290.196	0	-1e10	8	-1e10	8	-1E+10	1	-1E+10	1	-1E+10	1	-1E+10	1	-1E+10	1	-1E+10	1
4902554	56	C	08/23/2022	13:02	-133.799	49.515	0	293.80	0	4.5420	0	33.8600	0	26.825	0	291.087	0	-1e10	8	-1e10	8	-1E+10	1	-1E+10	1	-1E+10	1	-1E+10	1	-1E+10	1	-1E+10	1
4902554	56	C	08/23/2022	13:02	-133.799	49.515	0	294.70	0	4.5350	0	33.8620	0	26.827	0	291.978	0	-1e10	8	-1e10	8	-1E+10	1	-1E+10	1	-1E+10	1	-1E+10	1	-1E+10	1	-1E+10	1
4902554	56	C	08/23/2022	13:02	-133.799	49.515	0	295.60	0	4.5210	0	33.8630	0	26.829	0	292.869	0	-1e10	8	-1e10	8	-1E+10	1	-1E+10	1	-1E+10	1	-1E+10	1	-1E+10	1	-1E+10	1
4902554	56	C	08/23/2022	13:02	-133.799	49.515	0	296.90	0	4.5200	0	33.8630	0	26.830	0	294.156	0	-1e10	8	-1e10	8	-1E+10	1	-1E+10	1	-1E+10	1	-1E+10	1	-1E+10	1	-1E+10	1
4902554	56	C	08/23/2022	13:02	-133.799	49.515	0	298.20	0	4.5140	0	33.8630	0	26.830	0	295.443	0	-1e10	8	-1e10	8	-1E+10	1	-1E+10	1	-1E+10	1	-1E+10	1	-1E+10	1	-1E+10	1
4902554	56	C	08/23/2022	13:02	-133.799	49.515	0	299.10	0	4.5080	0	33.8640	0	26.832	0	296.334	0	-1e10	8	-1e10	8	-1E+10	1	-1E+10	1	-1E+10	1	-1E+10	1	-1E+10	1	-1E+10	1
4902554	56	C	08/23/2022	13:02	-133.799	49.515	0	300.00	0	4.5060	0	33.8650	0	26.833	0	297.225	0	-1e10	8	-1e10	8	-1E+10	1	-1E+10	1	-1E+10	1	-1E+10	1	-1E+10	1	-1E+10	1
4902554	56	C	08/23/2022	13:02	-133.799	49.515	0	300.90	0	4.5050	0	33.8660	0	26.834	0	298.117	0	-1e10	8	-1e10	8	-1E+10	1	-1E+10	1	-1E+10	1	-1E+10	1	-1E+10	1	-1E+10	1
4902554	56	C	08/23/2022	13:02	-133.799	49.515	0	301.80	0	4.5040	0	33.8670	0	26.834	0	299.008	0	-1e10	8	-1e10	8	-1E+10	1	-1E+10	1	-1E+10	1	-1E+10	1	-1E+10	1	-1E+10	1
4902554	56	C	08/23/2022	13:02	-133.799	49.515	0	302.60	0	4.5020	0	33.8660	0	26.834	0	299.800	0	-1e10	8	-1e10	8	-1E+10	1	-1E+10	1	-1E+10	1	-1E+10	1	-1E+10	1	-1E+10	1
4902554	56	C	08/23/2022	13:02	-133.799	49.515	0	303.90	0	4.4900	0	33.8690	0	26.838	0	301.087	0	-1e10	8	-1e10	8	-1E+10	1	-1E+10	1	-1E+10	1	-1E+10	1	-1E+10	1	-1E+10	1
4902554	56	C	08/23/2022	13:02	-133.799	49.515	0	305.30	0	4.4870	0	33.8710	0	26.840	0	302.473	0	-1e10	8	-1e10	8	-1E+10	1	-1E+10	1	-1E+10	1	-1E+10	1	-1E+10	1	-1E+10	1
4902554	56	C	08/23/2022	13:02	-133.799	49.515	0	306.20	0	4.4860	0	33.8720	0	26.840	0	303.364	0	-1e10	8	-1e10	8	-1E+10	1	-1E+10	1	-1E+10	1	-1E+10	1	-1E+10	1	-1E+10	1
4902554	56	C	08/23/2022	13:02	-133.799	49.515	0	307.10	0	4.4850	0	33.8720	0	26.841	0	304.255	0	-1e10	8	-1e10	8	-1E+10	1	-1E+10	1	-1E+10	1	-1E+10	1	-1E+10	1	-1E+10	1
4902554	56	C	08/23/2022	13:02	-133.799	49.515	0	307.90	0	4.4850	0	33.8710	0	26.840	0	305.047	0	-1e10	8	-1e10	8	-1E+10	1	-1E+10	1	-1E+10	1	-1E+10	1	-1E+10	1	-1E+10	1
4902554	56	C	08/23/2022	13:02	-133.799	49.515	0	308.80	0	4.4840	0	33.8730	0	26.841	0	305.938	0	-1e10	8	-1e10	8	-1E+10	1	-1E+10	1	-1E+10	1	-1E+10	1	-1E+10	1	-1E+10	1
4902554	56	C	08/23/2022	13:02	-133.799	49.515	0	309.70	0	4.4830	0	33.8740	0	26.842	0	306.829	0	-1e10	8	-1e10	8	-1E+10	1	-1E+10	1	-1E+10	1	-1E+10	1	-1E+10	1	-1E+10	1
4902554	56	C	08/23/2022	13:02	-133.799	49.515	0	310.90	0	4.4810	0	33.8750	0	26.843	0	308.017	0	-1e10	8	-1e10	8	-1E+10	1	-1E+10	1	-1E+10	1	-1E+10	1	-1E+10	1	-1E+10	1
4902554	56	C	08/23/2022	13:02	-133.799	49.515	0	312.30	0	4.4800	0	33.8760	0	26.844	0	309.403	0	-1e10	8	-1e10	8	-1E+10	1	-1E+10	1	-1E+10	1	-1E+10	1	-1E+10	1	-1E+10	1
4902554	56	C	08/23/2022	13:02	-133.799	49.515	0	313.20	0	4.4800	0	33.8760	0	26.844	0	310.294	0	-1e10	8	-1e10	8	-1E+10	1	-1E+10	1	-1E+10	1	-1E+10	1	-1E+10	1	-1E+10	1
4902554	56	C	08/23/2022	13:02	-133.799	49.515	0	314.00	0	4.4810	0	33.8780	0	26.846	0	311.086	0	-1e10	8	-1e10	8	-1E+10	1	-1E+10	1	-1E+10	1	-1E+10	1	-1E+10	1	-1E+10	1
4902554	56	C	08/23/2022	13:02	-133.799	49.515	0	314.90	0	4.4780	0	33.8820	0	26.849	0	311.976	0	-1e10	8	-1e10	8	-1E+10	1	-1E+10	1	-1E+10	1	-1E+10	1	-1E+10	1	-1E+10	1
4902554	56	C	08/23/2022	13:02	-133.799	49.515	0	315.80	0	4.4770	0	33.8830	0	26.850	0	312.867	0	-1e10	8	-1e10	8	-1E+10	1	-1E+10	1	-1E+10	1	-1E+10	1	-1E+10	1	-1E+10	1
4902554	56	C	08/23/2022	13:02	-133.799	49.515	0	316.60	0	4.4760	0	33.8850	0	26.852	0	313.659	0	-1e10	8	-1e10	8	-1E+10	1	-1E+10	1	-1E+10	1	-1E+10	1	-1E+10	1	-1E+10	1
4902554	56	C	08/23/2022	13:02	-133.799	49.515	0	317.90	0	4.4750	0	33.8850	0	26.852	0	314.946	0	-1e10	8	-1e10	8	-1E+10	1	-1E+10	1	-1E+10	1	-1E+10	1	-1E+10	1	-1E+10	1
4902554	56	C	08/23/2022	13:02	-133.799	49.515	0	319.20	0	4.4740	0	33.8890	0	26.855	0	316.233	0	-1e10	8	-1e10	8	-1E+10	1	-1E+10	1	-1E+10	1	-1E+10	1	-1E+10	1	-1E+10	1
4902554	56	C	08/23/2022	13:02	-133.799	49.515	0	320.10	0	4.4740	0	33.8890	0	26.855	0	317.124	0	-1e10	8	-1e10	8	-1E+10	1	-1E+10	1	-1E+10	1	-1E+10	1	-1E+10	1	-1E+10	1
4902554	56	C	08/23/2022	13:02	-133.799	49.515	0	320.90	0	4.4730	0	33.8910	0	26.857	0	317.916	0	-1e10	8	-1e10	8	-1E+10	1	-1E+10	1	-1E+10	1	-1E+10	1	-1E+10	1	-1E+10	1
4902554	56	C	08/23/2022	13:02	-133.799	49.515	0	321.80	0	4.4720	0	33.8940	0	26.860	0	318.807	0	-1e10	8	-1e10	8	-1E+10	1	-1E+10	1	-1E+10	1	-1E+10	1	-1E+10	1	-1E+10	1
4902554	56	C	08/23/2022	13:02	-133.799	49.515	0	322.60	0	4.4720	0	33.8950	0	26.860	0	319.599	0	-1e10	8	-1e10	8	-1E+10	1	-1E+10	1	-1E+10	1	-1E+10	1	-1E+10	1	-1E+10	1
4902554	56	C	08/23/2022	13:02	-133.799	49.515	0	323.90	0	4.4710	0	33.8960	0	26.861	0	320.886	0	-1e10	8	-1e10	8	-1E+10	1	-1E+10	1	-1E+10	1	-1E+10	1	-1E+10	1	-1E+10	1
4902554	56	C	08/23/2022	13:02	-133.799	49.515	0	325.30	0	4.4690	0	33.8980	0	26.863	0	322.272	0	-1e10	8	-1e10	8	-1E+10	1	-1E+10	1	-1E+10	1	-1E+10	1	-1E+10	1	-1E+10	1
4902554	56	C	08/23/2022	13:02	-133.799	49.515	0	326.10	0	4.4680	0	33.8990	0	26.864	0	323.064	0	-1e10	8	-1e10	8	-1E+10	1	-1E+10	1	-1E+10	1	-1E+10	1	-1E+10	1	-1E+10	1
4902554	56	C	08/23/2022	13:02	-133.799	49.515	0	326.90	0	4.4650	0	33.9020	0	26.867	0	323.856	0	-1e10	8	-1e10	8	-1E+10	1	-1E+10	1	-1E+10	1	-1E+10	1	-1E+10	1	-1E+10	1
4902554	56	C	08/23/2022	13:02	-133.799	49.515	0	327.80	0	4.4630	0	33.9040	0	26.868	0	324.747	0	-1e10	8	-1e10	8	-1E+10	1	-1E+10	1	-1E+10	1	-1E+10	1	-1E+10	1	-1E+10	1
4902554	56	C	08/23/2022	13:02	-133.799	49.515	0	328.60	0	4.4590	0	33.9060	0	26.871	0	325.539	0	-1e10	8	-1e10	8	-1E+10	1	-1E+10	1	-1E+10	1	-1E+10	1	-1E+10	1	-1E+10	1
4902554	56	C	08/23/2022	13:02	-133.799	49.515	0	329.90	0	4.4570	0	33.9080	0	26.872	0	326.825	0	-1e10	8	-1e10	8	-1E+10	1	-1E+10	1	-1E+10	1	-1E+10	1	-1E+10	1	-1E+10	1
4902554	56	C	08/23/2022	13:02	-133.799	49.515	0	331.30	0	4.4560	0	33.9080	0	26.872	0	328.211	0	-1e10	8	-1e10	8	-1E+10	1	-1E+10	1	-1E+10	1	-1E+10	1	-1E+10	1	-1E+10	1
4902554	56	C	08/23/2022	13:02	-133.799	49.515	0	332.10	0	4.4550	0	33.9090	0	26.873	0	329.003	0	-1e10	8	-1e10	8	-1E+10	1	-1E+10	1	-1E+10	1	-1E+10	1	-1E+10	1	-1E+10	1
4902554	56	C	08/23/2022	13:02	-133.799	49.515	0	333.00	0	4.4530	0	33.9110	0	26.875	0	329.894	0	-1e10	8	-1e10	8	-1E+10	1	-1E+10	1	-1E+10	1	-1E+10	1	-1E+10	1	-1E+10	1
4902554	56	C	08/23/2022	13:02	-133.799	49.515	0	333.90	0	4.4510	0	33.9120	0	26.876	0	330.785	0	-1e10	8	-1e10	8	-1E+10	1	-1E+10	1	-1E+10	1	-1E+10	1	-1E+10	1	-1E+10	1
4902554	56	C	08/23/2022	13:02	-133.799	49.515	0	334.80	0	4.4500	0	33.9140	0	26.878	0	331.676	0	-1e10	8	-1e10	8	-1E+10	1	-1E+10	1	-1E+10	1	-1E+10	1	-1E+10	1	-1E+10	1
4902554	56	C	08/23/2022	13:02	-133.799	49.515	0	335.60	0	4.4460	0	33.9160	0	26.880	0	332.468	0	-1e10	8	-1e10	8	-1E+10	1	-1E+10	1	-1E+10	1	-1E+10	1	-1E+10	1	-1E+10	1
4902554	56	C	08/23/2022	13:02	-133.799	49.515	0	336.90	0	4.4400	0	33.9180	0	26.882	0	333.755	0	-1e10	8	-1e10	8	-1E+10	1	-1E+10	1	-1E+10	1	-1E+10	1	-1E+10	1	-1E+10	1
4902554	56	C	08/23/2022	13:02	-133.799	49.515	0	338.30	0	4.4320	0	33.9190	0	26.884	0	335.140	0	-1e10	8	-1e10	8	-1E+10	1	-1E+10	1	-1E+10	1	-1E+10	1	-1E+10	1	-1E+10	1
4902554	56	C	08/23/2022	13:02	-133.799	49.515	0	339.30	0	4.4320	0	33.9190	0	26.884	0	336.130	0	-1e10	8	-1e10	8	-1E+10	1	-1E+10	1	-1E+10	1	-1E+10	1	-1E+10	1	-1E+10	1
4902554	56	C	08/23/2022	13:02	-133.799	49.515	0	340.20	0	4.4310	0	33.9190	0	26.884	0	337.021	0	-1e10	8	-1e10	8	-1E+10	1	-1E+10	1	-1E+10	1	-1E+10	1	-1E+10	1	-1E+10	1
4902554	56	C	08/23/2022	13:02	-133.799	49.515	0	341.10	0	4.4300	0	33.9200	0	26.885	0	337.912	0	-1e10	8	-1e10	8	-1E+10	1	-1E+10	1	-1E+10	1	-1E+10	1	-1E+10	1	-1E+10	1
4902554	56	C	08/23/2022	13:02	-133.799	49.515	0	342.00	0	4.4280	0	33.9200	0	26.885	0	338.803	0	-1e10	8	-1e10	8	-1E+10	1	-1E+10	1	-1E+10	1	-1E+10	1	-1E+10	1	-1E+10	1
4902554	56	C	08/23/2022	13:02	-133.799	49.515	0	343.00	0	4.4270	0	33.9200	0	26.885	0	339.793	0	-1e10	8	-1e10	8	-1E+10	1	-1E+10	1	-1E+10	1	-1E+10	1	-1E+10	1	-1E+10	1
4902554	56	C	08/23/2022	13:02	-133.799	49.515	0	343.90	0	4.4250	0	33.9210	0	26.886	0	340.683	0	-1e10	8	-1e10	8	-1E+10	1	-1E+10	1	-1E+10	1	-1E+10	1	-1E+10	1	-1E+10	1
4902554	56	C	08/23/2022	13:02	-133.799	49.515	0	344.80	0	4.4230	0	33.9240	0	26.889	0	341.574	0	-1e10	8	-1e10	8	-1E+10	1	-1E+10	1	-1E+10	1	-1E+10	1	-1E+10	1	-1E+10	1
4902554	56	C	08/23/2022	13:02	-133.799	49.515	0	345.80	0	4.4230	0	33.9240	0	26.889	0	342.564	0	-1e10	8	-1e10	8	-1E+10	1	-1E+10	1	-1E+10	1	-1E+10	1	-1E+10	1	-1E+10	1
4902554	56	C	08/23/2022	13:02	-133.799	49.515	0	346.70	0	4.4220	0	33.9260	0	26.890	0	343.455	0	-1e10	8	-1e10	8	-1E+10	1	-1E+10	1	-1E+10	1	-1E+10	1	-1E+10	1	-1E+10	1
4902554	56	C	08/23/2022	13:02	-133.799	49.515	0	347.70	0	4.4210	0	33.9290	0	26.893	0	344.445	0	-1e10	8	-1e10	8	-1E+10	1	-1E+10	1	-1E+10	1	-1E+10	1	-1E+10	1	-1E+10	1
4902554	56	C	08/23/2022	13:02	-133.799	49.515	0	348.70	0	4.4180	0	33.9330	0	26.896	0	345.435	0	-1e10	8	-1e10	8	-1E+10	1	-1E+10	1	-1E+10	1	-1E+10	1	-1E+10	1	-1E+10	1
4902554	56	C	08/23/2022	13:02	-133.799	49.515	0	349.70	0	4.4160	0	33.9340	0	26.898	0	346.424	0	-1e10	8	-1e10	8	-1E+10	1	-1E+10	1	-1E+10	1	-1E+10	1	-1E+10	1	-1E+10	1
4902554	56	C	08/23/2022	13:02	-133.799	49.515	0	352.70	0	4.4120	0	33.9390	0	26.902	0	349.394	0	-1e10	8	-1e10	8	-1E+10	1	-1E+10	1	-1E+10	1	-1E+10	1	-1E+10	1	-1E+10	1
4902554	56	C	08/23/2022	13:02	-133.799	49.515	0	358.00	0	4.4030	0	33.9470	0	26.909	0	354.639	0	-1e10	8	-1e10	8	-1E+10	1	-1E+10	1	-1E+10	1	-1E+10	1	-1E+10	1	-1E+10	1
4902554	56	C	08/23/2022	13:02	-133.799	49.515	0	363.00	0	4.4020	0	33.9500	0	26.912	0	359.588	0	-1e10	8	-1e10	8	-1E+10	1	-1E+10	1	-1E+10	1	-1E+10	1	-1E+10	1	-1E+10	1
4902554	56	C	08/23/2022	13:02	-133.799	49.515	0	367.90	0	4.3940	0	33.9570	0	26.918	0	364.438	0	-1e10	8	-1e10	8	-1E+10	1	-1E+10	1	-1E+10	1	-1E+10	1	-1E+10	1	-1E+10	1
4902554	56	C	08/23/2022	13:02	-133.799	49.515	0	373.00	0	4.3800	0	33.9670	0	26.928	0	369.485	0	-1e10	8	-1e10	8	-1E+10	1	-1E+10	1	-1E+10	1	-1E+10	1	-1E+10	1	-1E+10	1
4902554	56	C	08/23/2022	13:02	-133.799	49.515	0	377.80	0	4.3610	0	33.9780	0	26.939	0	374.236	0	-1e10	8	-1e10	8	-1E+10	1	-1E+10	1	-1E+10	1	-1E+10	1	-1E+10	1	-1E+10	1
4902554	56	C	08/23/2022	13:02	-133.799	49.515	0	382.70	0	4.3490	0	33.9870	0	26.947	0	379.085	0	-1e10	8	-1e10	8	-1E+10	1	-1E+10	1	-1E+10	1	-1E+10	1	-1E+10	1	-1E+10	1
4902554	56	C	08/23/2022	13:02	-133.799	49.515	0	388.10	0	4.3410	0	33.9910	0	26.951	0	384.429	0	-1e10	8	-1e10	8	-1E+10	1	-1E+10	1	-1E+10	1	-1E+10	1	-1E+10	1	-1E+10	1
4902554	56	C	08/23/2022	13:02	-133.799	49.515	0	393.20	0	4.3290	0	33.9980	0	26.958	0	389.476	0	-1e10	8	-1e10	8	-1E+10	1	-1E+10	1	-1E+10	1	-1E+10	1	-1E+10	1	-1E+10	1
4902554	56	C	08/23/2022	13:02	-133.799	49.515	0	398.00	0	4.3240	0	34.0020	0	26.962	0	394.226	0	-1e10	8	-1e10	8	-1E+10	1	-1E+10	1	-1E+10	1	-1E+10	1	-1E+10	1	-1E+10	1
4902554	56	C	08/23/2022	13:02	-133.799	49.515	0	403.10	0	4.3230	0	34.0020	0	26.962	0	399.273	0	-1e10	8	-1e10	8	-1E+10	1	-1E+10	1	-1E+10	1	-1E+10	1	-1E+10	1	-1E+10	1
4902554	56	C	08/23/2022	13:02	-133.799	49.515	0	408.30	0	4.3170	0	34.0060	0	26.966	0	404.418	0	-1e10	8	-1e10	8	-1E+10	1	-1E+10	1	-1E+10	1	-1E+10	1	-1E+10	1	-1E+10	1
4902554	56	C	08/23/2022	13:02	-133.799	49.515	0	413.00	0	4.3130	0	34.0080	0	26.968	0	409.069	0	-1e10	8	-1e10	8	-1E+10	1	-1E+10	1	-1E+10	1	-1E+10	1	-1E+10	1	-1E+10	1
4902554	56	C	08/23/2022	13:02	-133.799	49.515	0	417.80	0	4.3040	0	34.0130	0	26.973	0	413.818	0	-1e10	8	-1e10	8	-1E+10	1	-1E+10	1	-1E+10	1	-1E+10	1	-1E+10	1	-1E+10	1
4902554	56	C	08/23/2022	13:02	-133.799	49.515	0	423.20	0	4.2970	0	34.0160	0	26.976	0	419.162	0	-1e10	8	-1e10	8	-1E+10	1	-1E+10	1	-1E+10	1	-1E+10	1	-1E+10	1	-1E+10	1
4902554	56	C	08/23/2022	13:02	-133.799	49.515	0	428.00	0	4.2970	0	34.0170	0	26.977	0	423.911	0	-1e10	8	-1e10	8	-1E+10	1	-1E+10	1	-1E+10	1	-1E+10	1	-1E+10	1	-1E+10	1
4902554	56	C	08/23/2022	13:02	-133.799	49.515	0	432.80	0	4.2910	0	34.0200	0	26.980	0	428.660	0	-1e10	8	-1e10	8	-1E+10	1	-1E+10	1	-1E+10	1	-1E+10	1	-1E+10	1	-1E+10	1
4902554	56	C	08/23/2022	13:02	-133.799	49.515	0	438.10	0	4.2810	0	34.0250	0	26.985	0	433.904	0	-1e10	8	-1e10	8	-1E+10	1	-1E+10	1	-1E+10	1	-1E+10	1	-1E+10	1	-1E+10	1
4902554	56	C	08/23/2022	13:02	-133.799	49.515	0	442.90	0	4.2670	0	34.0320	0	26.992	0	438.653	0	-1e10	8	-1e10	8	-1E+10	1	-1E+10	1	-1E+10	1	-1E+10	1	-1E+10	1	-1E+10	1
4902554	56	C	08/23/2022	13:02	-133.799	49.515	0	447.60	0	4.2600	0	34.0370	0	26.997	0	443.303	0	-1e10	8	-1e10	8	-1E+10	1	-1E+10	1	-1E+10	1	-1E+10	1	-1E+10	1	-1E+10	1
4902554	56	C	08/23/2022	13:02	-133.799	49.515	0	452.90	0	4.2560	0	34.0390	0	26.999	0	448.546	0	-1e10	8	-1e10	8	-1E+10	1	-1E+10	1	-1E+10	1	-1E+10	1	-1E+10	1	-1E+10	1
4902554	56	C	08/23/2022	13:02	-133.799	49.515	0	458.20	0	4.2450	0	34.0450	0	27.005	0	453.789	0	-1e10	8	-1e10	8	-1E+10	1	-1E+10	1	-1E+10	1	-1E+10	1	-1E+10	1	-1E+10	1
4902554	56	C	08/23/2022	13:02	-133.799	49.515	0	463.00	0	4.2390	0	34.0470	0	27.007	0	458.538	0	-1e10	8	-1e10	8	-1E+10	1	-1E+10	1	-1E+10	1	-1E+10	1	-1E+10	1	-1E+10	1
4902554	56	C	08/23/2022	13:02	-133.799	49.515	0	467.70	0	4.2350	0	34.0490	0	27.009	0	463.187	0	-1e10	8	-1e10	8	-1E+10	1	-1E+10	1	-1E+10	1	-1E+10	1	-1E+10	1	-1E+10	1
4902554	56	C	08/23/2022	13:02	-133.799	49.515	0	473.00	0	4.2270	0	34.0520	0	27.012	0	468.430	0	-1e10	8	-1e10	8	-1E+10	1	-1E+10	1	-1E+10	1	-1E+10	1	-1E+10	1	-1E+10	1
4902554	56	C	08/23/2022	13:02	-133.799	49.515	0	478.20	0	4.2080	0	34.0570	0	27.018	0	473.574	0	-1e10	8	-1e10	8	-1E+10	1	-1E+10	1	-1E+10	1	-1E+10	1	-1E+10	1	-1E+10	1
4902554	56	C	08/23/2022	13:02	-133.799	49.515	0	483.30	0	4.1910	0	34.0610	0	27.023	0	478.619	0	-1e10	8	-1e10	8	-1E+10	1	-1E+10	1	-1E+10	1	-1E+10	1	-1E+10	1	-1E+10	1
4902554	56	C	08/23/2022	13:02	-133.799	49.515	0	488.00	0	4.1840	0	34.0630	0	27.026	0	483.268	0	-1e10	8	-1e10	8	-1E+10	1	-1E+10	1	-1E+10	1	-1E+10	1	-1E+10	1	-1E+10	1
4902554	56	C	08/23/2022	13:02	-133.799	49.515	0	492.50	0	4.1820	0	34.0630	0	27.026	0	487.719	0	-1e10	8	-1e10	8	-1E+10	1	-1E+10	1	-1E+10	1	-1E+10	1	-1E+10	1	-1E+10	1
4902554	56	C	08/23/2022	13:02	-133.799	49.515	0	497.70	0	4.1660	0	34.0680	0	27.031	0	492.862	0	-1e10	8	-1e10	8	-1E+10	1	-1E+10	1	-1E+10	1	-1E+10	1	-1E+10	1	-1E+10	1
4902554	56	C	08/23/2022	13:02	-133.799	49.515	0	503.10	0	4.1440	0	34.0760	0	27.040	0	498.203	0	-1e10	8	-1e10	8	-1E+10	1	-1E+10	1	-1E+10	1	-1E+10	1	-1E+10	1	-1E+10	1
4902554	56	C	08/23/2022	13:02	-133.799	49.515	0	507.90	0	4.1340	0	34.0800	0	27.044	0	502.951	0	-1e10	8	-1e10	8	-1E+10	1	-1E+10	1	-1E+10	1	-1E+10	1	-1E+10	1	-1E+10	1
4902554	56	C	08/23/2022	13:02	-133.799	49.515	0	512.60	0	4.1210	0	34.0850	0	27.050	0	507.599	0	-1e10	8	-1e10	8	-1E+10	1	-1E+10	1	-1E+10	1	-1E+10	1	-1E+10	1	-1E+10	1
4902554	56	C	08/23/2022	13:02	-133.799	49.515	0	517.90	0	4.1160	0	34.0870	0	27.052	0	512.841	0	-1e10	8	-1e10	8	-1E+10	1	-1E+10	1	-1E+10	1	-1E+10	1	-1E+10	1	-1E+10	1
4902554	56	C	08/23/2022	13:02	-133.799	49.515	0	523.10	0	4.1080	0	34.0910	0	27.056	0	517.984	0	-1e10	8	-1e10	8	-1E+10	1	-1E+10	1	-1E+10	1	-1E+10	1	-1E+10	1	-1E+10	1
4902554	56	C	08/23/2022	13:02	-133.799	49.515	0	528.00	0	4.0990	0	34.0970	0	27.062	0	522.830	0	-1e10	8	-1e10	8	-1E+10	1	-1E+10	1	-1E+10	1	-1E+10	1	-1E+10	1	-1E+10	1
4902554	56	C	08/23/2022	13:02	-133.799	49.515	0	532.90	0	4.0850	0	34.1040	0	27.069	0	527.675	0	-1e10	8	-1e10	8	-1E+10	1	-1E+10	1	-1E+10	1	-1E+10	1	-1E+10	1	-1E+10	1
4902554	56	C	08/23/2022	13:02	-133.799	49.515	0	537.70	0	4.0760	0	34.1060	0	27.071	0	532.422	0	-1e10	8	-1e10	8	-1E+10	1	-1E+10	1	-1E+10	1	-1E+10	1	-1E+10	1	-1E+10	1
4902554	56	C	08/23/2022	13:02	-133.799	49.515	0	542.70	0	4.0650	0	34.1100	0	27.076	0	537.367	0	-1e10	8	-1e10	8	-1E+10	1	-1E+10	1	-1E+10	1	-1E+10	1	-1E+10	1	-1E+10	1
4902554	56	C	08/23/2022	13:02	-133.799	49.515	0	547.70	0	4.0580	0	34.1160	0	27.081	0	542.311	0	-1e10	8	-1e10	8	-1E+10	1	-1E+10	1	-1E+10	1	-1E+10	1	-1E+10	1	-1E+10	1
4902554	56	C	08/23/2022	13:02	-133.799	49.515	0	552.80	0	4.0430	0	34.1210	0	27.087	0	547.354	0	-1e10	8	-1e10	8	-1E+10	1	-1E+10	1	-1E+10	1	-1E+10	1	-1E+10	1	-1E+10	1
4902554	56	C	08/23/2022	13:02	-133.799	49.515	0	558.00	0	4.0380	0	34.1250	0	27.090	0	552.496	0	-1e10	8	-1e10	8	-1E+10	1	-1E+10	1	-1E+10	1	-1E+10	1	-1E+10	1	-1E+10	1
4902554	56	C	08/23/2022	13:02	-133.799	49.515	0	563.20	0	4.0290	0	34.1290	0	27.095	0	557.638	0	-1e10	8	-1e10	8	-1E+10	1	-1E+10	1	-1E+10	1	-1E+10	1	-1E+10	1	-1E+10	1
4902554	56	C	08/23/2022	13:02	-133.799	49.515	0	567.90	0	4.0180	0	34.1330	0	27.099	0	562.285	0	-1e10	8	-1e10	8	-1E+10	1	-1E+10	1	-1E+10	1	-1E+10	1	-1E+10	1	-1E+10	1
4902554	56	C	08/23/2022	13:02	-133.799	49.515	0	572.80	0	4.0040	0	34.1380	0	27.104	0	567.130	0	-1e10	8	-1e10	8	-1E+10	1	-1E+10	1	-1E+10	1	-1E+10	1	-1E+10	1	-1E+10	1
4902554	56	C	08/23/2022	13:02	-133.799	49.515	0	578.10	0	3.9820	0	34.1450	0	27.112	0	572.370	0	-1e10	8	-1e10	8	-1E+10	1	-1E+10	1	-1E+10	1	-1E+10	1	-1E+10	1	-1E+10	1
4902554	56	C	08/23/2022	13:02	-133.799	49.515	0	583.10	0	3.9720	0	34.1490	0	27.116	0	577.314	0	-1e10	8	-1e10	8	-1E+10	1	-1E+10	1	-1E+10	1	-1E+10	1	-1E+10	1	-1E+10	1
4902554	56	C	08/23/2022	13:02	-133.799	49.515	0	588.10	0	3.9710	0	34.1500	0	27.117	0	582.257	0	-1e10	8	-1e10	8	-1E+10	1	-1E+10	1	-1E+10	1	-1E+10	1	-1E+10	1	-1E+10	1
4902554	56	C	08/23/2022	13:02	-133.799	49.515	0	593.20	0	3.9650	0	34.1520	0	27.120	0	587.299	0	-1e10	8	-1e10	8	-1E+10	1	-1E+10	1	-1E+10	1	-1E+10	1	-1E+10	1	-1E+10	1
4902554	56	C	08/23/2022	13:02	-133.799	49.515	0	597.80	0	3.9530	0	34.1560	0	27.124	0	591.847	0	-1e10	8	-1e10	8	-1E+10	1	-1E+10	1	-1E+10	1	-1E+10	1	-1E+10	1	-1E+10	1
4902554	56	C	08/23/2022	13:02	-133.799	49.515	0	603.00	0	3.9430	0	34.1590	0	27.127	0	596.988	0	-1e10	8	-1e10	8	-1E+10	1	-1E+10	1	-1E+10	1	-1E+10	1	-1E+10	1	-1E+10	1
4902554	56	C	08/23/2022	13:02	-133.799	49.515	0	608.20	0	3.9260	0	34.1650	0	27.134	0	602.128	0	-1e10	8	-1e10	8	-1E+10	1	-1E+10	1	-1E+10	1	-1E+10	1	-1E+10	1	-1E+10	1
4902554	56	C	08/23/2022	13:02	-133.799	49.515	0	612.90	0	3.9140	0	34.1680	0	27.138	0	606.775	0	-1e10	8	-1e10	8	-1E+10	1	-1E+10	1	-1E+10	1	-1E+10	1	-1E+10	1	-1E+10	1
4902554	56	C	08/23/2022	13:02	-133.799	49.515	0	618.00	0	3.9050	0	34.1710	0	27.141	0	611.816	0	-1e10	8	-1e10	8	-1E+10	1	-1E+10	1	-1E+10	1	-1E+10	1	-1E+10	1	-1E+10	1
4902554	56	C	08/23/2022	13:02	-133.799	49.515	0	623.20	0	3.9030	0	34.1720	0	27.142	0	616.956	0	-1e10	8	-1e10	8	-1E+10	1	-1E+10	1	-1E+10	1	-1E+10	1	-1E+10	1	-1E+10	1
4902554	56	C	08/23/2022	13:02	-133.799	49.515	0	627.90	0	3.8960	0	34.1730	0	27.144	0	621.602	0	-1e10	8	-1e10	8	-1E+10	1	-1E+10	1	-1E+10	1	-1E+10	1	-1E+10	1	-1E+10	1
4902554	56	C	08/23/2022	13:02	-133.799	49.515	0	632.70	0	3.8810	0	34.1790	0	27.150	0	626.347	0	-1e10	8	-1e10	8	-1E+10	1	-1E+10	1	-1E+10	1	-1E+10	1	-1E+10	1	-1E+10	1
4902554	56	C	08/23/2022	13:02	-133.799	49.515	0	637.90	0	3.8630	0	34.1860	0	27.157	0	631.487	0	-1e10	8	-1e10	8	-1E+10	1	-1E+10	1	-1E+10	1	-1E+10	1	-1E+10	1	-1E+10	1
4902554	56	C	08/23/2022	13:02	-133.799	49.515	0	643.10	0	3.8580	0	34.1870	0	27.159	0	636.627	0	-1e10	8	-1e10	8	-1E+10	1	-1E+10	1	-1E+10	1	-1E+10	1	-1E+10	1	-1E+10	1
4902554	56	C	08/23/2022	13:02	-133.799	49.515	0	647.80	0	3.8460	0	34.1900	0	27.162	0	641.272	0	-1e10	8	-1e10	8	-1E+10	1	-1E+10	1	-1E+10	1	-1E+10	1	-1E+10	1	-1E+10	1
4902554	56	C	08/23/2022	13:02	-133.799	49.515	0	652.90	0	3.8330	0	34.1920	0	27.165	0	646.313	0	-1e10	8	-1e10	8	-1E+10	1	-1E+10	1	-1E+10	1	-1E+10	1	-1E+10	1	-1E+10	1
4902554	56	C	08/23/2022	13:02	-133.799	49.515	0	658.00	0	3.8260	0	34.1940	0	27.167	0	651.353	0	-1e10	8	-1e10	8	-1E+10	1	-1E+10	1	-1E+10	1	-1E+10	1	-1E+10	1	-1E+10	1
4902554	56	C	08/23/2022	13:02	-133.799	49.515	0	663.10	0	3.8190	0	34.1950	0	27.169	0	656.394	0	-1e10	8	-1e10	8	-1E+10	1	-1E+10	1	-1E+10	1	-1E+10	1	-1E+10	1	-1E+10	1
4902554	56	C	08/23/2022	13:02	-133.799	49.515	0	668.10	0	3.8020	0	34.2010	0	27.176	0	661.335	0	-1e10	8	-1e10	8	-1E+10	1	-1E+10	1	-1E+10	1	-1E+10	1	-1E+10	1	-1E+10	1
4902554	56	C	08/23/2022	13:02	-133.799	49.515	0	672.70	0	3.7980	0	34.2040	0	27.178	0	665.881	0	-1e10	8	-1e10	8	-1E+10	1	-1E+10	1	-1E+10	1	-1E+10	1	-1E+10	1	-1E+10	1
4902554	56	C	08/23/2022	13:02	-133.799	49.515	0	677.80	0	3.7860	0	34.2080	0	27.183	0	670.921	0	-1e10	8	-1e10	8	-1E+10	1	-1E+10	1	-1E+10	1	-1E+10	1	-1E+10	1	-1E+10	1
4902554	56	C	08/23/2022	13:02	-133.799	49.515	0	682.90	0	3.7760	0	34.2110	0	27.186	0	675.961	0	-1e10	8	-1e10	8	-1E+10	1	-1E+10	1	-1E+10	1	-1E+10	1	-1E+10	1	-1E+10	1
4902554	56	C	08/23/2022	13:02	-133.799	49.515	0	688.00	0	3.7600	0	34.2130	0	27.189	0	681.001	0	-1e10	8	-1e10	8	-1E+10	1	-1E+10	1	-1E+10	1	-1E+10	1	-1E+10	1	-1E+10	1
4902554	56	C	08/23/2022	13:02	-133.799	49.515	0	693.20	0	3.7360	0	34.2170	0	27.195	0	686.140	0	-1e10	8	-1e10	8	-1E+10	1	-1E+10	1	-1E+10	1	-1E+10	1	-1E+10	1	-1E+10	1
4902554	56	C	08/23/2022	13:02	-133.799	49.515	0	697.80	0	3.7180	0	34.2210	0	27.200	0	690.685	0	-1e10	8	-1e10	8	-1E+10	1	-1E+10	1	-1E+10	1	-1E+10	1	-1E+10	1	-1E+10	1
4902554	56	C	08/23/2022	13:02	-133.799	49.515	0	702.50	0	3.6930	0	34.2270	0	27.207	0	695.330	0	-1e10	8	-1e10	8	-1E+10	1	-1E+10	1	-1E+10	1	-1E+10	1	-1E+10	1	-1E+10	1
4902554	56	C	08/23/2022	13:02	-133.799	49.515	0	707.80	0	3.6870	0	34.2290	0	27.209	0	700.567	0	-1e10	8	-1e10	8	-1E+10	1	-1E+10	1	-1E+10	1	-1E+10	1	-1E+10	1	-1E+10	1
4902554	56	C	08/23/2022	13:02	-133.799	49.515	0	712.80	0	3.6790	0	34.2320	0	27.213	0	705.507	0	-1e10	8	-1e10	8	-1E+10	1	-1E+10	1	-1E+10	1	-1E+10	1	-1E+10	1	-1E+10	1
4902554	56	C	08/23/2022	13:02	-133.799	49.515	0	717.80	0	3.6650	0	34.2350	0	27.216	0	710.447	0	-1e10	8	-1e10	8	-1E+10	1	-1E+10	1	-1E+10	1	-1E+10	1	-1E+10	1	-1E+10	1
4902554	56	C	08/23/2022	13:02	-133.799	49.515	0	722.90	0	3.6450	0	34.2400	0	27.222	0	715.486	0	-1e10	8	-1e10	8	-1E+10	1	-1E+10	1	-1E+10	1	-1E+10	1	-1E+10	1	-1E+10	1
4902554	56	C	08/23/2022	13:02	-133.799	49.515	0	727.80	0	3.6340	0	34.2420	0	27.225	0	720.328	0	-1e10	8	-1e10	8	-1E+10	1	-1E+10	1	-1E+10	1	-1E+10	1	-1E+10	1	-1E+10	1
4902554	56	C	08/23/2022	13:02	-133.799	49.515	0	732.90	0	3.6190	0	34.2450	0	27.229	0	725.366	0	-1e10	8	-1e10	8	-1E+10	1	-1E+10	1	-1E+10	1	-1E+10	1	-1E+10	1	-1E+10	1
4902554	56	C	08/23/2022	13:02	-133.799	49.515	0	738.20	0	3.6020	0	34.2480	0	27.233	0	730.603	0	-1e10	8	-1e10	8	-1E+10	1	-1E+10	1	-1E+10	1	-1E+10	1	-1E+10	1	-1E+10	1
4902554	56	C	08/23/2022	13:02	-133.799	49.515	0	743.10	0	3.5810	0	34.2520	0	27.238	0	735.444	0	-1e10	8	-1e10	8	-1E+10	1	-1E+10	1	-1E+10	1	-1E+10	1	-1E+10	1	-1E+10	1
4902554	56	C	08/23/2022	13:02	-133.799	49.515	0	748.00	0	3.5500	0	34.2580	0	27.246	0	740.284	0	-1e10	8	-1e10	8	-1E+10	1	-1E+10	1	-1E+10	1	-1E+10	1	-1E+10	1	-1E+10	1
4902554	56	C	08/23/2022	13:02	-133.799	49.515	0	753.10	0	3.5380	0	34.2600	0	27.249	0	745.323	0	-1e10	8	-1e10	8	-1E+10	1	-1E+10	1	-1E+10	1	-1E+10	1	-1E+10	1	-1E+10	1
4902554	56	C	08/23/2022	13:02	-133.799	49.515	0	757.90	0	3.5290	0	34.2630	0	27.252	0	750.065	0	-1e10	8	-1e10	8	-1E+10	1	-1E+10	1	-1E+10	1	-1E+10	1	-1E+10	1	-1E+10	1
4902554	56	C	08/23/2022	13:02	-133.799	49.515	0	762.70	0	3.5240	0	34.2640	0	27.254	0	754.806	0	-1e10	8	-1e10	8	-1E+10	1	-1E+10	1	-1E+10	1	-1E+10	1	-1E+10	1	-1E+10	1
4902554	56	C	08/23/2022	13:02	-133.799	49.515	0	767.60	0	3.5200	0	34.2650	0	27.255	0	759.647	0	-1e10	8	-1e10	8	-1E+10	1	-1E+10	1	-1E+10	1	-1E+10	1	-1E+10	1	-1E+10	1
4902554	56	C	08/23/2022	13:02	-133.799	49.515	0	772.60	0	3.5070	0	34.2680	0	27.258	0	764.586	0	-1e10	8	-1e10	8	-1E+10	1	-1E+10	1	-1E+10	1	-1E+10	1	-1E+10	1	-1E+10	1
4902554	56	C	08/23/2022	13:02	-133.799	49.515	0	777.60	0	3.4960	0	34.2700	0	27.261	0	769.525	0	-1e10	8	-1e10	8	-1E+10	1	-1E+10	1	-1E+10	1	-1E+10	1	-1E+10	1	-1E+10	1
4902554	56	C	08/23/2022	13:02	-133.799	49.515	0	782.70	0	3.4840	0	34.2730	0	27.265	0	774.562	0	-1e10	8	-1e10	8	-1E+10	1	-1E+10	1	-1E+10	1	-1E+10	1	-1E+10	1	-1E+10	1
4902554	56	C	08/23/2022	13:02	-133.799	49.515	0	787.80	0	3.4720	0	34.2750	0	27.267	0	779.600	0	-1e10	8	-1e10	8	-1E+10	1	-1E+10	1	-1E+10	1	-1E+10	1	-1E+10	1	-1E+10	1
4902554	56	C	08/23/2022	13:02	-133.799	49.515	0	792.80	0	3.4680	0	34.2770	0	27.269	0	784.538	0	-1e10	8	-1e10	8	-1E+10	1	-1E+10	1	-1E+10	1	-1E+10	1	-1E+10	1	-1E+10	1
4902554	56	C	08/23/2022	13:02	-133.799	49.515	0	797.90	0	3.4610	0	34.2780	0	27.271	0	789.575	0	-1e10	8	-1e10	8	-1E+10	1	-1E+10	1	-1E+10	1	-1E+10	1	-1E+10	1	-1E+10	1
4902554	56	C	08/23/2022	13:02	-133.799	49.515	0	802.90	0	3.4560	0	34.2800	0	27.273	0	794.514	0	-1e10	8	-1e10	8	-1E+10	1	-1E+10	1	-1E+10	1	-1E+10	1	-1E+10	1	-1E+10	1
4902554	56	C	08/23/2022	13:02	-133.799	49.515	0	808.00	0	3.4510	0	34.2810	0	27.274	0	799.551	0	-1e10	8	-1e10	8	-1E+10	1	-1E+10	1	-1E+10	1	-1E+10	1	-1E+10	1	-1E+10	1
4902554	56	C	08/23/2022	13:02	-133.799	49.515	0	813.20	0	3.4430	0	34.2820	0	27.276	0	804.686	0	-1e10	8	-1e10	8	-1E+10	1	-1E+10	1	-1E+10	1	-1E+10	1	-1E+10	1	-1E+10	1
4902554	56	C	08/23/2022	13:02	-133.799	49.515	0	818.30	0	3.4280	0	34.2860	0	27.281	0	809.723	0	-1e10	8	-1e10	8	-1E+10	1	-1E+10	1	-1E+10	1	-1E+10	1	-1E+10	1	-1E+10	1
4902554	56	C	08/23/2022	13:02	-133.799	49.515	0	823.00	0	3.4170	0	34.2880	0	27.283	0	814.365	0	-1e10	8	-1e10	8	-1E+10	1	-1E+10	1	-1E+10	1	-1E+10	1	-1E+10	1	-1E+10	1
4902554	56	C	08/23/2022	13:02	-133.799	49.515	0	827.60	0	3.3940	0	34.2920	0	27.289	0	818.907	0	-1e10	8	-1e10	8	-1E+10	1	-1E+10	1	-1E+10	1	-1E+10	1	-1E+10	1	-1E+10	1
4902554	56	C	08/23/2022	13:02	-133.799	49.515	0	832.70	0	3.3800	0	34.2960	0	27.293	0	823.944	0	-1e10	8	-1e10	8	-1E+10	1	-1E+10	1	-1E+10	1	-1E+10	1	-1E+10	1	-1E+10	1
4902554	56	C	08/23/2022	13:02	-133.799	49.515	0	837.70	0	3.3640	0	34.2990	0	27.297	0	828.881	0	-1e10	8	-1e10	8	-1E+10	1	-1E+10	1	-1E+10	1	-1E+10	1	-1E+10	1	-1E+10	1
4902554	56	C	08/23/2022	13:02	-133.799	49.515	0	842.80	0	3.3550	0	34.3010	0	27.300	0	833.917	0	-1e10	8	-1e10	8	-1E+10	1	-1E+10	1	-1E+10	1	-1E+10	1	-1E+10	1	-1E+10	1
4902554	56	C	08/23/2022	13:02	-133.799	49.515	0	847.90	0	3.3440	0	34.3030	0	27.302	0	838.953	0	-1e10	8	-1e10	8	-1E+10	1	-1E+10	1	-1E+10	1	-1E+10	1	-1E+10	1	-1E+10	1
4902554	56	C	08/23/2022	13:02	-133.799	49.515	0	853.00	0	3.3400	0	34.3040	0	27.304	0	843.989	0	-1e10	8	-1e10	8	-1E+10	1	-1E+10	1	-1E+10	1	-1E+10	1	-1E+10	1	-1E+10	1
4902554	56	C	08/23/2022	13:02	-133.799	49.515	0	858.20	0	3.3370	0	34.3050	0	27.305	0	849.124	0	-1e10	8	-1e10	8	-1E+10	1	-1E+10	1	-1E+10	1	-1E+10	1	-1E+10	1	-1E+10	1
4902554	56	C	08/23/2022	13:02	-133.799	49.515	0	863.30	0	3.3190	0	34.3080	0	27.309	0	854.159	0	-1e10	8	-1e10	8	-1E+10	1	-1E+10	1	-1E+10	1	-1E+10	1	-1E+10	1	-1E+10	1
4902554	56	C	08/23/2022	13:02	-133.799	49.515	0	868.00	0	3.3090	0	34.3100	0	27.311	0	858.800	0	-1e10	8	-1e10	8	-1E+10	1	-1E+10	1	-1E+10	1	-1E+10	1	-1E+10	1	-1E+10	1
4902554	56	C	08/23/2022	13:02	-133.799	49.515	0	872.60	0	3.3020	0	34.3110	0	27.313	0	863.342	0	-1e10	8	-1e10	8	-1E+10	1	-1E+10	1	-1E+10	1	-1E+10	1	-1E+10	1	-1E+10	1
4902554	56	C	08/23/2022	13:02	-133.799	49.515	0	877.60	0	3.2920	0	34.3130	0	27.315	0	868.278	0	-1e10	8	-1e10	8	-1E+10	1	-1E+10	1	-1E+10	1	-1E+10	1	-1E+10	1	-1E+10	1
4902554	56	C	08/23/2022	13:02	-133.799	49.515	0	882.70	0	3.2770	0	34.3160	0	27.319	0	873.314	0	-1e10	8	-1e10	8	-1E+10	1	-1E+10	1	-1E+10	1	-1E+10	1	-1E+10	1	-1E+10	1
4902554	56	C	08/23/2022	13:02	-133.799	49.515	0	887.80	0	3.2680	0	34.3170	0	27.321	0	878.349	0	-1e10	8	-1e10	8	-1E+10	1	-1E+10	1	-1E+10	1	-1E+10	1	-1E+10	1	-1E+10	1
4902554	56	C	08/23/2022	13:02	-133.799	49.515	0	892.90	0	3.2580	0	34.3190	0	27.323	0	883.384	0	-1e10	8	-1e10	8	-1E+10	1	-1E+10	1	-1E+10	1	-1E+10	1	-1E+10	1	-1E+10	1
4902554	56	C	08/23/2022	13:02	-133.799	49.515	0	898.00	0	3.2530	0	34.3200	0	27.325	0	888.418	0	-1e10	8	-1e10	8	-1E+10	1	-1E+10	1	-1E+10	1	-1E+10	1	-1E+10	1	-1E+10	1
4902554	56	C	08/23/2022	13:02	-133.799	49.515	0	903.20	0	3.2460	0	34.3210	0	27.326	0	893.552	0	-1e10	8	-1e10	8	-1E+10	1	-1E+10	1	-1E+10	1	-1E+10	1	-1E+10	1	-1E+10	1
4902554	56	C	08/23/2022	13:02	-133.799	49.515	0	908.00	0	3.2400	0	34.3230	0	27.328	0	898.290	0	-1e10	8	-1e10	8	-1E+10	1	-1E+10	1	-1E+10	1	-1E+10	1	-1E+10	1	-1E+10	1
4902554	56	C	08/23/2022	13:02	-133.799	49.515	0	912.80	0	3.2310	0	34.3240	0	27.330	0	903.029	0	-1e10	8	-1e10	8	-1E+10	1	-1E+10	1	-1E+10	1	-1E+10	1	-1E+10	1	-1E+10	1
4902554	56	C	08/23/2022	13:02	-133.799	49.515	0	918.10	0	3.2160	0	34.3260	0	27.333	0	908.260	0	-1e10	8	-1e10	8	-1E+10	1	-1E+10	1	-1E+10	1	-1E+10	1	-1E+10	1	-1E+10	1
4902554	56	C	08/23/2022	13:02	-133.799	49.515	0	923.10	0	3.1880	0	34.3330	0	27.341	0	913.196	0	-1e10	8	-1e10	8	-1E+10	1	-1E+10	1	-1E+10	1	-1E+10	1	-1E+10	1	-1E+10	1
4902554	56	C	08/23/2022	13:02	-133.799	49.515	0	927.90	0	3.1830	0	34.3330	0	27.342	0	917.934	0	-1e10	8	-1e10	8	-1E+10	1	-1E+10	1	-1E+10	1	-1E+10	1	-1E+10	1	-1E+10	1
4902554	56	C	08/23/2022	13:02	-133.799	49.515	0	932.80	0	3.1770	0	34.3340	0	27.343	0	922.770	0	-1e10	8	-1e10	8	-1E+10	1	-1E+10	1	-1E+10	1	-1E+10	1	-1E+10	1	-1E+10	1
4902554	56	C	08/23/2022	13:02	-133.799	49.515	0	937.70	0	3.1690	0	34.3360	0	27.345	0	927.607	0	-1e10	8	-1e10	8	-1E+10	1	-1E+10	1	-1E+10	1	-1E+10	1	-1E+10	1	-1E+10	1
4902554	56	C	08/23/2022	13:02	-133.799	49.515	0	942.90	0	3.1600	0	34.3380	0	27.348	0	932.739	0	-1e10	8	-1e10	8	-1E+10	1	-1E+10	1	-1E+10	1	-1E+10	1	-1E+10	1	-1E+10	1
4902554	56	C	08/23/2022	13:02	-133.799	49.515	0	948.10	0	3.1520	0	34.3400	0	27.350	0	937.872	0	-1e10	8	-1e10	8	-1E+10	1	-1E+10	1	-1E+10	1	-1E+10	1	-1E+10	1	-1E+10	1
4902554	56	C	08/23/2022	13:02	-133.799	49.515	0	952.90	0	3.1470	0	34.3410	0	27.352	0	942.609	0	-1e10	8	-1e10	8	-1E+10	1	-1E+10	1	-1E+10	1	-1E+10	1	-1E+10	1	-1E+10	1
4902554	56	C	08/23/2022	13:02	-133.799	49.515	0	957.90	0	3.1350	0	34.3430	0	27.354	0	947.544	0	-1e10	8	-1e10	8	-1E+10	1	-1E+10	1	-1E+10	1	-1E+10	1	-1E+10	1	-1E+10	1
4902554	56	C	08/23/2022	13:02	-133.799	49.515	0	963.00	0	3.1300	0	34.3450	0	27.356	0	952.577	0	-1e10	8	-1e10	8	-1E+10	1	-1E+10	1	-1E+10	1	-1E+10	1	-1E+10	1	-1E+10	1
4902554	56	C	08/23/2022	13:02	-133.799	49.515	0	967.70	0	3.1200	0	34.3470	0	27.359	0	957.215	0	-1e10	8	-1e10	8	-1E+10	1	-1E+10	1	-1E+10	1	-1E+10	1	-1E+10	1	-1E+10	1
4902554	56	C	08/23/2022	13:02	-133.799	49.515	0	972.90	0	3.1090	0	34.3500	0	27.362	0	962.347	0	-1e10	8	-1e10	8	-1E+10	1	-1E+10	1	-1E+10	1	-1E+10	1	-1E+10	1	-1E+10	1
4902554	56	C	08/23/2022	13:02	-133.799	49.515	0	978.30	0	3.0970	0	34.3530	0	27.366	0	967.676	0	-1e10	8	-1e10	8	-1E+10	1	-1E+10	1	-1E+10	1	-1E+10	1	-1E+10	1	-1E+10	1
4902554	56	C	08/23/2022	13:02	-133.799	49.515	0	982.90	0	3.0900	0	34.3540	0	27.367	0	972.216	0	-1e10	8	-1e10	8	-1E+10	1	-1E+10	1	-1E+10	1	-1E+10	1	-1E+10	1	-1E+10	1
4902554	56	C	08/23/2022	13:02	-133.799	49.515	0	987.50	0	3.0840	0	34.3560	0	27.370	0	976.755	0	-1e10	8	-1e10	8	-1E+10	1	-1E+10	1	-1E+10	1	-1E+10	1	-1E+10	1	-1E+10	1
4902554	56	C	08/23/2022	13:02	-133.799	49.515	0	992.90	0	3.0820	0	34.3560	0	27.370	0	982.083	0	-1e10	8	-1e10	8	-1E+10	1	-1E+10	1	-1E+10	1	-1E+10	1	-1E+10	1	-1E+10	1
4902554	56	C	08/23/2022	13:02	-133.799	49.515	0	998.20	0	3.0760	0	34.3580	0	27.372	0	987.313	0	-1e10	8	-1e10	8	-1E+10	1	-1E+10	1	-1E+10	1	-1E+10	1	-1E+10	1	-1E+10	1
4902554	56	C	08/23/2022	13:02	-133.799	49.515	0	1005.60	0	3.0650	0	34.3600	0	27.375	0	994.615	0	-1e10	8	-1e10	8	-1E+10	1	-1E+10	1	-1E+10	1	-1E+10	1	-1E+10	1	-1E+10	1
4902554	56	C	08/23/2022	13:02	-133.799	49.515	0	1015.30	0	3.0510	0	34.3630	0	27.378	0	1004.186	0	-1e10	8	-1e10	8	-1E+10	1	-1E+10	1	-1E+10	1	-1E+10	1	-1E+10	1	-1E+10	1
4902554	56	C	08/23/2022	13:02	-133.799	49.515	0	1025.10	0	3.0420	0	34.3650	0	27.381	0	1013.855	0	-1e10	8	-1e10	8	-1E+10	1	-1E+10	1	-1E+10	1	-1E+10	1	-1E+10	1	-1E+10	1
4902554	56	C	08/23/2022	13:02	-133.799	49.515	0	1035.40	0	3.0320	0	34.3670	0	27.383	0	1024.017	0	-1e10	8	-1e10	8	-1E+10	1	-1E+10	1	-1E+10	1	-1E+10	1	-1E+10	1	-1E+10	1
4902554	56	C	08/23/2022	13:02	-133.799	49.515	0	1045.60	0	3.0180	0	34.3710	0	27.388	0	1034.079	0	-1e10	8	-1e10	8	-1E+10	1	-1E+10	1	-1E+10	1	-1E+10	1	-1E+10	1	-1E+10	1
4902554	56	C	08/23/2022	13:02	-133.799	49.515	0	1055.20	0	2.9970	0	34.3750	0	27.393	0	1043.550	0	-1e10	8	-1e10	8	-1E+10	1	-1E+10	1	-1E+10	1	-1E+10	1	-1E+10	1	-1E+10	1
4902554	56	C	08/23/2022	13:02	-133.799	49.515	0	1065.20	0	2.9730	0	34.3800	0	27.399	0	1053.414	0	-1e10	8	-1e10	8	-1E+10	1	-1E+10	1	-1E+10	1	-1E+10	1	-1E+10	1	-1E+10	1
4902554	56	C	08/23/2022	13:02	-133.799	49.515	0	1075.70	0	2.9600	0	34.3830	0	27.403	0	1063.771	0	-1e10	8	-1e10	8	-1E+10	1	-1E+10	1	-1E+10	1	-1E+10	1	-1E+10	1	-1E+10	1
4902554	56	C	08/23/2022	13:02	-133.799	49.515	0	1085.50	0	2.9390	0	34.3880	0	27.409	0	1073.438	0	-1e10	8	-1e10	8	-1E+10	1	-1E+10	1	-1E+10	1	-1E+10	1	-1E+10	1	-1E+10	1
4902554	56	C	08/23/2022	13:02	-133.799	49.515	0	1095.30	0	2.9200	0	34.3920	0	27.414	0	1083.104	0	-1e10	8	-1e10	8	-1E+10	1	-1E+10	1	-1E+10	1	-1E+10	1	-1E+10	1	-1E+10	1
4902554	56	C	08/23/2022	13:02	-133.799	49.515	0	1105.50	0	2.9060	0	34.3950	0	27.417	0	1093.163	0	-1e10	8	-1e10	8	-1E+10	1	-1E+10	1	-1E+10	1	-1E+10	1	-1E+10	1	-1E+10	1
4902554	56	C	08/23/2022	13:02	-133.799	49.515	0	1115.60	0	2.8940	0	34.3980	0	27.421	0	1103.124	0	-1e10	8	-1e10	8	-1E+10	1	-1E+10	1	-1E+10	1	-1E+10	1	-1E+10	1	-1E+10	1
4902554	56	C	08/23/2022	13:02	-133.799	49.515	0	1125.80	0	2.8820	0	34.4010	0	27.424	0	1113.183	0	-1e10	8	-1e10	8	-1E+10	1	-1E+10	1	-1E+10	1	-1E+10	1	-1E+10	1	-1E+10	1
4902554	56	C	08/23/2022	13:02	-133.799	49.515	0	1135.80	0	2.8710	0	34.4030	0	27.427	0	1123.044	0	-1e10	8	-1e10	8	-1E+10	1	-1E+10	1	-1E+10	1	-1E+10	1	-1E+10	1	-1E+10	1
4902554	56	C	08/23/2022	13:02	-133.799	49.515	0	1145.70	0	2.8610	0	34.4050	0	27.430	0	1132.806	0	-1e10	8	-1e10	8	-1E+10	1	-1E+10	1	-1E+10	1	-1E+10	1	-1E+10	1	-1E+10	1
4902554	56	C	08/23/2022	13:02	-133.799	49.515	0	1155.70	0	2.8400	0	34.4100	0	27.436	0	1142.667	0	-1e10	8	-1e10	8	-1E+10	1	-1E+10	1	-1E+10	1	-1E+10	1	-1E+10	1	-1E+10	1
4902554	56	C	08/23/2022	13:02	-133.799	49.515	0	1165.90	0	2.8210	0	34.4130	0	27.440	0	1152.724	0	-1e10	8	-1e10	8	-1E+10	1	-1E+10	1	-1E+10	1	-1E+10	1	-1E+10	1	-1E+10	1
4902554	56	C	08/23/2022	13:02	-133.799	49.515	0	1175.50	0	2.8010	0	34.4170	0	27.445	0	1162.189	0	-1e10	8	-1e10	8	-1E+10	1	-1E+10	1	-1E+10	1	-1E+10	1	-1E+10	1	-1E+10	1
4902554	56	C	08/23/2022	13:02	-133.799	49.515	0	1185.40	0	2.7810	0	34.4200	0	27.449	0	1171.949	0	-1e10	8	-1e10	8	-1E+10	1	-1E+10	1	-1E+10	1	-1E+10	1	-1E+10	1	-1E+10	1
4902554	56	C	08/23/2022	13:02	-133.799	49.515	0	1195.20	0	2.7670	0	34.4230	0	27.453	0	1181.610	0	-1e10	8	-1e10	8	-1E+10	1	-1E+10	1	-1E+10	1	-1E+10	1	-1E+10	1	-1E+10	1
4902554	56	C	08/23/2022	13:02	-133.799	49.515	0	1205.20	0	2.7440	0	34.4270	0	27.458	0	1191.468	0	-1e10	8	-1e10	8	-1E+10	1	-1E+10	1	-1E+10	1	-1E+10	1	-1E+10	1	-1E+10	1
4902554	56	C	08/23/2022	13:02	-133.799	49.515	0	1215.20	0	2.7250	0	34.4310	0	27.463	0	1201.326	0	-1e10	8	-1e10	8	-1E+10	1	-1E+10	1	-1E+10	1	-1E+10	1	-1E+10	1	-1E+10	1
4902554	56	C	08/23/2022	13:02	-133.799	49.515	0	1225.30	0	2.7160	0	34.4330	0	27.465	0	1211.281	0	-1e10	8	-1e10	8	-1E+10	1	-1E+10	1	-1E+10	1	-1E+10	1	-1E+10	1	-1E+10	1
4902554	56	C	08/23/2022	13:02	-133.799	49.515	0	1235.30	0	2.7110	0	34.4340	0	27.466	0	1221.138	0	-1e10	8	-1e10	8	-1E+10	1	-1E+10	1	-1E+10	1	-1E+10	1	-1E+10	1	-1E+10	1
4902554	56	C	08/23/2022	13:02	-133.799	49.515	0	1245.10	0	2.6990	0	34.4360	0	27.469	0	1230.797	0	-1e10	8	-1e10	8	-1E+10	1	-1E+10	1	-1E+10	1	-1E+10	1	-1E+10	1	-1E+10	1
4902554	56	C	08/23/2022	13:02	-133.799	49.515	0	1255.10	0	2.6860	0	34.4380	0	27.472	0	1240.653	0	-1e10	8	-1e10	8	-1E+10	1	-1E+10	1	-1E+10	1	-1E+10	1	-1E+10	1	-1E+10	1
4902554	56	C	08/23/2022	13:02	-133.799	49.515	0	1265.30	0	2.6650	0	34.4420	0	27.477	0	1250.705	0	-1e10	8	-1e10	8	-1E+10	1	-1E+10	1	-1E+10	1	-1E+10	1	-1E+10	1	-1E+10	1
4902554	56	C	08/23/2022	13:02	-133.799	49.515	0	1275.40	0	2.6470	0	34.4450	0	27.481	0	1260.658	0	-1e10	8	-1e10	8	-1E+10	1	-1E+10	1	-1E+10	1	-1E+10	1	-1E+10	1	-1E+10	1
4902554	56	C	08/23/2022	13:02	-133.799	49.515	0	1285.60	0	2.6280	0	34.4490	0	27.486	0	1270.710	0	-1e10	8	-1e10	8	-1E+10	1	-1E+10	1	-1E+10	1	-1E+10	1	-1E+10	1	-1E+10	1
4902554	56	C	08/23/2022	13:02	-133.799	49.515	0	1295.70	0	2.6150	0	34.4510	0	27.489	0	1280.662	0	-1e10	8	-1e10	8	-1E+10	1	-1E+10	1	-1E+10	1	-1E+10	1	-1E+10	1	-1E+10	1
4902554	56	C	08/23/2022	13:02	-133.799	49.515	0	1305.40	0	2.6000	0	34.4540	0	27.492	0	1290.220	0	-1e10	8	-1e10	8	-1E+10	1	-1E+10	1	-1E+10	1	-1E+10	1	-1E+10	1	-1E+10	1
4902554	56	C	08/23/2022	13:02	-133.799	49.515	0	1315.10	0	2.5940	0	34.4560	0	27.494	0	1299.777	0	-1e10	8	-1e10	8	-1E+10	1	-1E+10	1	-1E+10	1	-1E+10	1	-1E+10	1	-1E+10	1
4902554	56	C	08/23/2022	13:02	-133.799	49.515	0	1325.50	0	2.5760	0	34.4590	0	27.498	0	1310.023	0	-1e10	8	-1e10	8	-1E+10	1	-1E+10	1	-1E+10	1	-1E+10	1	-1E+10	1	-1E+10	1
4902554	56	C	08/23/2022	13:02	-133.799	49.515	0	1335.70	0	2.5590	0	34.4620	0	27.502	0	1320.072	0	-1e10	8	-1e10	8	-1E+10	1	-1E+10	1	-1E+10	1	-1E+10	1	-1E+10	1	-1E+10	1
4902554	56	C	08/23/2022	13:02	-133.799	49.515	0	1345.70	0	2.5450	0	34.4660	0	27.507	0	1329.924	0	-1e10	8	-1e10	8	-1E+10	1	-1E+10	1	-1E+10	1	-1E+10	1	-1E+10	1	-1E+10	1
4902554	56	C	08/23/2022	13:02	-133.799	49.515	0	1355.70	0	2.5380	0	34.4680	0	27.509	0	1339.775	0	-1e10	8	-1e10	8	-1E+10	1	-1E+10	1	-1E+10	1	-1E+10	1	-1E+10	1	-1E+10	1
4902554	56	C	08/23/2022	13:02	-133.799	49.515	0	1365.50	0	2.5250	0	34.4700	0	27.512	0	1349.428	0	-1e10	8	-1e10	8	-1E+10	1	-1E+10	1	-1E+10	1	-1E+10	1	-1E+10	1	-1E+10	1
4902554	56	C	08/23/2022	13:02	-133.799	49.515	0	1375.30	0	2.5150	0	34.4730	0	27.515	0	1359.082	0	-1e10	8	-1e10	8	-1E+10	1	-1E+10	1	-1E+10	1	-1E+10	1	-1E+10	1	-1E+10	1
4902554	56	C	08/23/2022	13:02	-133.799	49.515	0	1385.30	0	2.5050	0	34.4750	0	27.518	0	1368.931	0	-1e10	8	-1e10	8	-1E+10	1	-1E+10	1	-1E+10	1	-1E+10	1	-1E+10	1	-1E+10	1
4902554	56	C	08/23/2022	13:02	-133.799	49.515	0	1395.30	0	2.4920	0	34.4780	0	27.521	0	1378.780	0	-1e10	8	-1e10	8	-1E+10	1	-1E+10	1	-1E+10	1	-1E+10	1	-1E+10	1	-1E+10	1
4902554	56	C	08/23/2022	13:02	-133.799	49.515	0	1405.40	0	2.4780	0	34.4810	0	27.525	0	1388.728	0	-1e10	8	-1e10	8	-1E+10	1	-1E+10	1	-1E+10	1	-1E+10	1	-1E+10	1	-1E+10	1
4902554	56	C	08/23/2022	13:02	-133.799	49.515	0	1415.60	0	2.4670	0	34.4820	0	27.527	0	1398.773	0	-1e10	8	-1e10	8	-1E+10	1	-1E+10	1	-1E+10	1	-1E+10	1	-1E+10	1	-1E+10	1
4902554	56	C	08/23/2022	13:02	-133.799	49.515	0	1425.30	0	2.4530	0	34.4850	0	27.530	0	1408.325	0	-1e10	8	-1e10	8	-1E+10	1	-1E+10	1	-1E+10	1	-1E+10	1	-1E+10	1	-1E+10	1
4902554	56	C	08/23/2022	13:02	-133.799	49.515	0	1435.20	0	2.4340	0	34.4890	0	27.535	0	1418.074	0	-1e10	8	-1e10	8	-1E+10	1	-1E+10	1	-1E+10	1	-1E+10	1	-1E+10	1	-1E+10	1
4902554	56	C	08/23/2022	13:02	-133.799	49.515	0	1445.20	0	2.4220	0	34.4910	0	27.538	0	1427.921	0	-1e10	8	-1e10	8	-1E+10	1	-1E+10	1	-1E+10	1	-1E+10	1	-1E+10	1	-1E+10	1
4902554	56	C	08/23/2022	13:02	-133.799	49.515	0	1455.40	0	2.4110	0	34.4930	0	27.540	0	1437.964	0	-1e10	8	-1e10	8	-1E+10	1	-1E+10	1	-1E+10	1	-1E+10	1	-1E+10	1	-1E+10	1
4902554	56	C	08/23/2022	13:02	-133.799	49.515	0	1465.20	0	2.4020	0	34.4950	0	27.543	0	1447.613	0	-1e10	8	-1e10	8	-1E+10	1	-1E+10	1	-1E+10	1	-1E+10	1	-1E+10	1	-1E+10	1
4902554	56	C	08/23/2022	13:02	-133.799	49.515	0	1475.50	0	2.3940	0	34.4960	0	27.544	0	1457.754	0	-1e10	8	-1e10	8	-1E+10	1	-1E+10	1	-1E+10	1	-1E+10	1	-1E+10	1	-1E+10	1
4902554	56	C	08/23/2022	13:02	-133.799	49.515	0	1485.50	0	2.3820	0	34.4990	0	27.548	0	1467.599	0	-1e10	8	-1e10	8	-1E+10	1	-1E+10	1	-1E+10	1	-1E+10	1	-1E+10	1	-1E+10	1
4902554	56	C	08/23/2022	13:02	-133.799	49.515	0	1495.20	0	2.3640	0	34.5020	0	27.551	0	1477.148	0	-1e10	8	-1e10	8	-1E+10	1	-1E+10	1	-1E+10	1	-1E+10	1	-1E+10	1	-1E+10	1
4902554	56	C	08/23/2022	13:02	-133.799	49.515	0	1505.10	0	2.3560	0	34.5040	0	27.554	0	1486.894	0	-1e10	8	-1e10	8	-1E+10	1	-1E+10	1	-1E+10	1	-1E+10	1	-1E+10	1	-1E+10	1
4902554	56	C	08/23/2022	13:02	-133.799	49.515	0	1515.10	0	2.3440	0	34.5070	0	27.557	0	1496.738	0	-1e10	8	-1e10	8	-1E+10	1	-1E+10	1	-1E+10	1	-1E+10	1	-1E+10	1	-1E+10	1
4902554	56	C	08/23/2022	13:02	-133.799	49.515	0	1525.30	0	2.3320	0	34.5090	0	27.560	0	1506.778	0	-1e10	8	-1e10	8	-1E+10	1	-1E+10	1	-1E+10	1	-1E+10	1	-1E+10	1	-1E+10	1
4902554	56	C	08/23/2022	13:02	-133.799	49.515	0	1535.70	0	2.3150	0	34.5120	0	27.564	0	1517.014	0	-1e10	8	-1e10	8	-1E+10	1	-1E+10	1	-1E+10	1	-1E+10	1	-1E+10	1	-1E+10	1
4902554	56	C	08/23/2022	13:02	-133.799	49.515	0	1545.80	0	2.3010	0	34.5150	0	27.567	0	1526.955	0	-1e10	8	-1e10	8	-1E+10	1	-1E+10	1	-1E+10	1	-1E+10	1	-1E+10	1	-1E+10	1
4902554	56	C	08/23/2022	13:02	-133.799	49.515	0	1555.40	0	2.2860	0	34.5180	0	27.571	0	1536.403	0	-1e10	8	-1e10	8	-1E+10	1	-1E+10	1	-1E+10	1	-1E+10	1	-1E+10	1	-1E+10	1
4902554	56	C	08/23/2022	13:02	-133.799	49.515	0	1565.50	0	2.2760	0	34.5200	0	27.573	0	1546.343	0	-1e10	8	-1e10	8	-1E+10	1	-1E+10	1	-1E+10	1	-1E+10	1	-1E+10	1	-1E+10	1
4902554	56	C	08/23/2022	13:02	-133.799	49.515	0	1575.50	0	2.2580	0	34.5230	0	27.577	0	1556.183	0	-1e10	8	-1e10	8	-1E+10	1	-1E+10	1	-1E+10	1	-1E+10	1	-1E+10	1	-1E+10	1
4902554	56	C	08/23/2022	13:02	-133.799	49.515	0	1585.30	0	2.2470	0	34.5250	0	27.580	0	1565.827	0	-1e10	8	-1e10	8	-1E+10	1	-1E+10	1	-1E+10	1	-1E+10	1	-1E+10	1	-1E+10	1
4902554	56	C	08/23/2022	13:02	-133.799	49.515	0	1595.40	0	2.2230	0	34.5300	0	27.586	0	1575.765	0	-1e10	8	-1e10	8	-1E+10	1	-1E+10	1	-1E+10	1	-1E+10	1	-1E+10	1	-1E+10	1
4902554	56	C	08/23/2022	13:02	-133.799	49.515	0	1605.30	0	2.2100	0	34.5320	0	27.589	0	1585.507	0	-1e10	8	-1e10	8	-1E+10	1	-1E+10	1	-1E+10	1	-1E+10	1	-1E+10	1	-1E+10	1
4902554	56	C	08/23/2022	13:02	-133.799	49.515	0	1615.00	0	2.1990	0	34.5340	0	27.591	0	1595.050	0	-1e10	8	-1e10	8	-1E+10	1	-1E+10	1	-1E+10	1	-1E+10	1	-1E+10	1	-1E+10	1
4902554	56	C	08/23/2022	13:02	-133.799	49.515	0	1625.10	0	2.1880	0	34.5370	0	27.594	0	1604.987	0	-1e10	8	-1e10	8	-1E+10	1	-1E+10	1	-1E+10	1	-1E+10	1	-1E+10	1	-1E+10	1
4902554	56	C	08/23/2022	13:02	-133.799	49.515	0	1635.00	0	2.1790	0	34.5380	0	27.596	0	1614.727	0	-1e10	8	-1e10	8	-1E+10	1	-1E+10	1	-1E+10	1	-1E+10	1	-1E+10	1	-1E+10	1
4902554	56	C	08/23/2022	13:02	-133.799	49.515	0	1645.00	0	2.1710	0	34.5400	0	27.598	0	1624.565	0	-1e10	8	-1e10	8	-1E+10	1	-1E+10	1	-1E+10	1	-1E+10	1	-1E+10	1	-1E+10	1
4902554	56	C	08/23/2022	13:02	-133.799	49.515	0	1655.40	0	2.1630	0	34.5410	0	27.600	0	1634.796	0	-1e10	8	-1e10	8	-1E+10	1	-1E+10	1	-1E+10	1	-1E+10	1	-1E+10	1	-1E+10	1
4902554	56	C	08/23/2022	13:02	-133.799	49.515	0	1665.30	0	2.1490	0	34.5420	0	27.602	0	1644.534	0	-1e10	8	-1e10	8	-1E+10	1	-1E+10	1	-1E+10	1	-1E+10	1	-1E+10	1	-1E+10	1
4902554	56	C	08/23/2022	13:02	-133.799	49.515	0	1675.20	0	2.1350	0	34.5440	0	27.605	0	1654.272	0	-1e10	8	-1e10	8	-1E+10	1	-1E+10	1	-1E+10	1	-1E+10	1	-1E+10	1	-1E+10	1
4902554	56	C	08/23/2022	13:02	-133.799	49.515	0	1685.40	0	2.1280	0	34.5460	0	27.607	0	1664.304	0	-1e10	8	-1e10	8	-1E+10	1	-1E+10	1	-1E+10	1	-1E+10	1	-1E+10	1	-1E+10	1
4902554	56	C	08/23/2022	13:02	-133.799	49.515	0	1695.30	0	2.1210	0	34.5480	0	27.609	0	1674.042	0	-1e10	8	-1e10	8	-1E+10	1	-1E+10	1	-1E+10	1	-1E+10	1	-1E+10	1	-1E+10	1
4902554	56	C	08/23/2022	13:02	-133.799	49.515	0	1705.30	0	2.1160	0	34.5490	0	27.610	0	1683.876	0	-1e10	8	-1e10	8	-1E+10	1	-1E+10	1	-1E+10	1	-1E+10	1	-1E+10	1	-1E+10	1
4902554	56	C	08/23/2022	13:02	-133.799	49.515	0	1715.70	0	2.1150	0	34.5490	0	27.610	0	1694.104	0	-1e10	8	-1e10	8	-1E+10	1	-1E+10	1	-1E+10	1	-1E+10	1	-1E+10	1	-1E+10	1
4902554	56	C	08/23/2022	13:02	-133.799	49.515	0	1725.50	0	2.1080	0	34.5510	0	27.613	0	1703.742	0	-1e10	8	-1e10	8	-1E+10	1	-1E+10	1	-1E+10	1	-1E+10	1	-1E+10	1	-1E+10	1
4902554	56	C	08/23/2022	13:02	-133.799	49.515	0	1735.40	0	2.0980	0	34.5540	0	27.616	0	1713.477	0	-1e10	8	-1e10	8	-1E+10	1	-1E+10	1	-1E+10	1	-1E+10	1	-1E+10	1	-1E+10	1
4902554	56	C	08/23/2022	13:02	-133.799	49.515	0	1745.60	0	2.0880	0	34.5560	0	27.618	0	1723.507	0	-1e10	8	-1e10	8	-1E+10	1	-1E+10	1	-1E+10	1	-1E+10	1	-1E+10	1	-1E+10	1
4902554	56	C	08/23/2022	13:02	-133.799	49.515	0	1755.50	0	2.0760	0	34.5590	0	27.622	0	1733.241	0	-1e10	8	-1e10	8	-1E+10	1	-1E+10	1	-1E+10	1	-1E+10	1	-1E+10	1	-1E+10	1
4902554	56	C	08/23/2022	13:02	-133.799	49.515	0	1765.70	0	2.0670	0	34.5600	0	27.623	0	1743.270	0	-1e10	8	-1e10	8	-1E+10	1	-1E+10	1	-1E+10	1	-1E+10	1	-1E+10	1	-1E+10	1
4902554	56	C	08/23/2022	13:02	-133.799	49.515	0	1775.40	0	2.0630	0	34.5610	0	27.624	0	1752.806	0	-1e10	8	-1e10	8	-1E+10	1	-1E+10	1	-1E+10	1	-1E+10	1	-1E+10	1	-1E+10	1
4902554	56	C	08/23/2022	13:02	-133.799	49.515	0	1785.20	0	2.0580	0	34.5620	0	27.626	0	1762.441	0	-1e10	8	-1e10	8	-1E+10	1	-1E+10	1	-1E+10	1	-1E+10	1	-1E+10	1	-1E+10	1
4902554	56	C	08/23/2022	13:02	-133.799	49.515	0	1795.10	0	2.0500	0	34.5640	0	27.628	0	1772.174	0	-1e10	8	-1e10	8	-1E+10	1	-1E+10	1	-1E+10	1	-1E+10	1	-1E+10	1	-1E+10	1
4902554	56	C	08/23/2022	13:02	-133.799	49.515	0	1805.20	0	2.0410	0	34.5660	0	27.630	0	1782.102	0	-1e10	8	-1e10	8	-1E+10	1	-1E+10	1	-1E+10	1	-1E+10	1	-1E+10	1	-1E+10	1
4902554	56	C	08/23/2022	13:02	-133.799	49.515	0	1815.30	0	2.0290	0	34.5680	0	27.633	0	1792.030	0	-1e10	8	-1e10	8	-1E+10	1	-1E+10	1	-1E+10	1	-1E+10	1	-1E+10	1	-1E+10	1
4902554	56	C	08/23/2022	13:02	-133.799	49.515	0	1825.20	0	2.0240	0	34.5690	0	27.634	0	1801.762	0	-1e10	8	-1e10	8	-1E+10	1	-1E+10	1	-1E+10	1	-1E+10	1	-1E+10	1	-1E+10	1
4902554	56	C	08/23/2022	13:02	-133.799	49.515	0	1835.20	0	2.0170	0	34.5700	0	27.635	0	1811.590	0	-1e10	8	-1e10	8	-1E+10	1	-1E+10	1	-1E+10	1	-1E+10	1	-1E+10	1	-1E+10	1
4902554	56	C	08/23/2022	13:02	-133.799	49.515	0	1845.20	0	2.0090	0	34.5720	0	27.638	0	1821.419	0	-1e10	8	-1e10	8	-1E+10	1	-1E+10	1	-1E+10	1	-1E+10	1	-1E+10	1	-1E+10	1
4902554	56	C	08/23/2022	13:02	-133.799	49.515	0	1855.70	0	2.0020	0	34.5730	0	27.639	0	1831.739	0	-1e10	8	-1e10	8	-1E+10	1	-1E+10	1	-1E+10	1	-1E+10	1	-1E+10	1	-1E+10	1
4902554	56	C	08/23/2022	13:02	-133.799	49.515	0	1865.40	0	1.9960	0	34.5750	0	27.641	0	1841.271	0	-1e10	8	-1e10	8	-1E+10	1	-1E+10	1	-1E+10	1	-1E+10	1	-1E+10	1	-1E+10	1
4902554	56	C	08/23/2022	13:02	-133.799	49.515	0	1875.10	0	1.9900	0	34.5760	0	27.643	0	1850.804	0	-1e10	8	-1e10	8	-1E+10	1	-1E+10	1	-1E+10	1	-1E+10	1	-1E+10	1	-1E+10	1
4902554	56	C	08/23/2022	13:02	-133.799	49.515	0	1885.40	0	1.9840	0	34.5770	0	27.644	0	1860.925	0	-1e10	8	-1e10	8	-1E+10	1	-1E+10	1	-1E+10	1	-1E+10	1	-1E+10	1	-1E+10	1
4902554	56	C	08/23/2022	13:02	-133.799	49.515	0	1895.40	0	1.9750	0	34.5790	0	27.646	0	1870.751	0	-1e10	8	-1e10	8	-1E+10	1	-1E+10	1	-1E+10	1	-1E+10	1	-1E+10	1	-1E+10	1
4902554	56	C	08/23/2022	13:02	-133.799	49.515	0	1905.30	0	1.9720	0	34.5800	0	27.647	0	1880.479	0	-1e10	8	-1e10	8	-1E+10	1	-1E+10	1	-1E+10	1	-1E+10	1	-1E+10	1	-1E+10	1
4902554	56	C	08/23/2022	13:02	-133.799	49.515	0	1915.50	0	1.9690	0	34.5800	0	27.648	0	1890.501	0	-1e10	8	-1e10	8	-1E+10	1	-1E+10	1	-1E+10	1	-1E+10	1	-1E+10	1	-1E+10	1
4902554	56	C	08/23/2022	13:02	-133.799	49.515	0	1925.40	0	1.9610	0	34.5820	0	27.650	0	1900.227	0	-1e10	8	-1e10	8	-1E+10	1	-1E+10	1	-1E+10	1	-1E+10	1	-1E+10	1	-1E+10	1
4902554	56	C	08/23/2022	13:02	-133.799	49.515	0	1935.40	0	1.9550	0	34.5830	0	27.651	0	1910.052	0	-1e10	8	-1e10	8	-1E+10	1	-1E+10	1	-1E+10	1	-1E+10	1	-1E+10	1	-1E+10	1
4902554	56	C	08/23/2022	13:02	-133.799	49.515	0	1945.60	0	1.9490	0	34.5840	0	27.653	0	1920.072	0	-1e10	8	-1e10	8	-1E+10	1	-1E+10	1	-1E+10	1	-1E+10	1	-1E+10	1	-1E+10	1
4902554	56	C	08/23/2022	13:02	-133.799	49.515	0	1955.50	0	1.9440	0	34.5850	0	27.654	0	1929.798	0	-1e10	8	-1e10	8	-1E+10	1	-1E+10	1	-1E+10	1	-1E+10	1	-1E+10	1	-1E+10	1
4902554	56	C	08/23/2022	13:02	-133.799	49.515	0	1965.60	0	1.9400	0	34.5860	0	27.655	0	1939.719	0	-1e10	8	-1e10	8	-1E+10	1	-1E+10	1	-1E+10	1	-1E+10	1	-1E+10	1	-1E+10	1
4902554	56	C	08/23/2022	13:02	-133.799	49.515	0	1975.30	0	1.9380	0	34.5870	0	27.656	0	1949.247	0	-1e10	8	-1e10	8	-1E+10	1	-1E+10	1	-1E+10	1	-1E+10	1	-1E+10	1	-1E+10	1
4902554	56	C	08/23/2022	13:02	-133.799	49.515	0	1985.30	0	1.9350	0	34.5880	0	27.657	0	1959.069	0	-1e10	8	-1e10	8	-1E+10	1	-1E+10	1	-1E+10	1	-1E+10	1	-1E+10	1	-1E+10	1
4902554	56	C	08/23/2022	13:02	-133.799	49.515	0	1995.40	0	1.9320	0	34.5880	0	27.657	0	1968.989	0	-1e10	8	-1e10	8	-1E+10	1	-1E+10	1	-1E+10	1	-1E+10	1	-1E+10	1	-1E+10	1
4902554	56	C	08/23/2022	13:02	-133.799	49.515	0	2005.30	0	1.9280	0	34.5890	0	27.659	0	1978.712	0	-1e10	8	-1e10	8	-1E+10	1	-1E+10	1	-1E+10	1	-1E+10	1	-1E+10	1	-1E+10	1
4902554	56	C	08/23/2022	13:02	-133.799	49.515	0	2015.50	0	1.9220	0	34.5900	0	27.660	0	1988.729	0	-1e10	8	-1e10	8	-1E+10	1	-1E+10	1	-1E+10	1	-1E+10	1	-1E+10	1	-1E+10	1
4902554	56	C	08/23/2022	13:02	-133.799	49.515	0																										
4902554	57	C	09/02/2022	18:07	-133.699	49.449	0	0.10	0	17.3730	0	32.0900	0	23.196	0	0.099	0	-1e10	8	-1e10	8	-1E+10	1	-1E+10	1	-1E+10	1	-1E+10	1	-1E+10	1	-1E+10	1
4902554	57	C	09/02/2022	18:07	-133.699	49.449	0	0.20	0	17.3710	0	32.1120	0	23.213	0	0.198	0	-1e10	1	-1e10	1	-1E+10	1	-1E+10	1	-1E+10	1	-1E+10	1	-1E+10	1	-1E+10	1
4902554	57	C	09/02/2022	18:07	-133.699	49.449	0	0.30	0	17.3710	0	32.1100	0	23.211	0	0.297	0	-1e10	8	-1e10	8	-1E+10	1	-1E+10	1	-1E+10	1	-1E+10	1	-1E+10	1	-1E+10	1
4902554	57	C	09/02/2022	18:07	-133.699	49.449	0	0.90	0	17.3700	0	32.1070	0	23.209	0	0.892	0	-1e10	8	-1e10	8	-1E+10	1	-1E+10	1	-1E+10	1	-1E+10	1	-1E+10	1	-1E+10	1
4902554	57	C	09/02/2022	18:07	-133.699	49.449	0	2.10	0	17.3690	0	32.1110	0	23.213	0	2.082	0	-1e10	8	-1e10	8	-1E+10	1	-1E+10	1	-1E+10	1	-1E+10	1	-1E+10	1	-1E+10	1
4902554	57	C	09/02/2022	18:07	-133.699	49.449	0	2.90	0	17.3680	0	32.1140	0	23.215	0	2.875	0	-1e10	8	-1e10	8	-1E+10	1	-1E+10	1	-1E+10	1	-1E+10	1	-1E+10	1	-1E+10	1
4902554	57	C	09/02/2022	18:07	-133.699	49.449	0	4.00	0	17.3680	0	32.1160	0	23.217	0	3.966	0	-1e10	8	-1e10	8	-1E+10	1	-1E+10	1	-1E+10	1	-1E+10	1	-1E+10	1	-1E+10	1
4902554	57	C	09/02/2022	18:07	-133.699	49.449	0	5.00	0	17.3660	0	32.1180	0	23.219	0	4.957	0	-1e10	8	-1e10	8	-1E+10	1	-1E+10	1	-1E+10	1	-1E+10	1	-1E+10	1	-1E+10	1
4902554	57	C	09/02/2022	18:07	-133.699	49.449	0	6.00	0	17.3650	0	32.1180	0	23.219	0	5.949	0	-1e10	8	-1e10	8	-1E+10	1	-1E+10	1	-1E+10	1	-1E+10	1	-1E+10	1	-1E+10	1
4902554	57	C	09/02/2022	18:07	-133.699	49.449	0	7.00	0	17.3660	0	32.1180	0	23.219	0	6.940	0	-1e10	8	-1e10	8	-1E+10	1	-1E+10	1	-1E+10	1	-1E+10	1	-1E+10	1	-1E+10	1
4902554	57	C	09/02/2022	18:07	-133.699	49.449	0	7.90	0	17.3660	0	32.1170	0	23.218	0	7.833	0	-1e10	8	-1e10	8	-1E+10	1	-1E+10	1	-1E+10	1	-1E+10	1	-1E+10	1	-1E+10	1
4902554	57	C	09/02/2022	18:07	-133.699	49.449	0	9.00	0	17.3650	0	32.1170	0	23.218	0	8.923	0	-1e10	8	-1e10	8	-1E+10	1	-1E+10	1	-1E+10	1	-1E+10	1	-1E+10	1	-1E+10	1
4902554	57	C	09/02/2022	18:07	-133.699	49.449	0	10.00	0	17.3630	0	32.1180	0	23.220	0	9.915	0	-1e10	8	-1e10	8	-1E+10	1	-1E+10	1	-1E+10	1	-1E+10	1	-1E+10	1	-1E+10	1
4902554	57	C	09/02/2022	18:07	-133.699	49.449	0	11.00	0	17.3640	0	32.1180	0	23.220	0	10.906	0	-1e10	8	-1e10	8	-1E+10	1	-1E+10	1	-1E+10	1	-1E+10	1	-1E+10	1	-1E+10	1
4902554	57	C	09/02/2022	18:07	-133.699	49.449	0	12.10	0	17.3650	0	32.1180	0	23.219	0	11.997	0	-1e10	8	-1e10	8	-1E+10	1	-1E+10	1	-1E+10	1	-1E+10	1	-1E+10	1	-1E+10	1
4902554	57	C	09/02/2022	18:07	-133.699	49.449	0	13.00	0	17.3600	0	32.1210	0	23.223	0	12.889	0	-1e10	8	-1e10	8	-1E+10	1	-1E+10	1	-1E+10	1	-1E+10	1	-1E+10	1	-1E+10	1
4902554	57	C	09/02/2022	18:07	-133.699	49.449	0	14.00	0	17.3660	0	32.1160	0	23.218	0	13.880	0	-1e10	8	-1e10	8	-1E+10	1	-1E+10	1	-1E+10	1	-1E+10	1	-1E+10	1	-1E+10	1
4902554	57	C	09/02/2022	18:07	-133.699	49.449	0	15.10	0	17.3660	0	32.1170	0	23.218	0	14.971	0	-1e10	8	-1e10	8	-1E+10	1	-1E+10	1	-1E+10	1	-1E+10	1	-1E+10	1	-1E+10	1
4902554	57	C	09/02/2022	18:07	-133.699	49.449	0	16.00	0	17.3580	0	32.1190	0	23.222	0	15.863	0	-1e10	8	-1e10	8	-1E+10	1	-1E+10	1	-1E+10	1	-1E+10	1	-1E+10	1	-1E+10	1
4902554	57	C	09/02/2022	18:07	-133.699	49.449	0	17.00	0	17.3230	0	32.1180	0	23.229	0	16.854	0	-1e10	8	-1e10	8	-1E+10	1	-1E+10	1	-1E+10	1	-1E+10	1	-1E+10	1	-1E+10	1
4902554	57	C	09/02/2022	18:07	-133.699	49.449	0	17.90	0	17.2950	0	32.1200	0	23.238	0	17.747	0	-1e10	8	-1e10	8	-1E+10	1	-1E+10	1	-1E+10	1	-1E+10	1	-1E+10	1	-1E+10	1
4902554	57	C	09/02/2022	18:07	-133.699	49.449	0	19.00	0	17.2400	0	32.1230	0	23.253	0	18.837	0	-1e10	8	-1e10	8	-1E+10	1	-1E+10	1	-1E+10	1	-1E+10	1	-1E+10	1	-1E+10	1
4902554	57	C	09/02/2022	18:07	-133.699	49.449	0	20.10	0	17.1410	0	32.1280	0	23.280	0	19.928	0	-1e10	8	-1e10	8	-1E+10	1	-1E+10	1	-1E+10	1	-1E+10	1	-1E+10	1	-1E+10	1
4902554	57	C	09/02/2022	18:07	-133.699	49.449	0	21.20	0	17.0350	0	32.1280	0	23.305	0	21.018	0	-1e10	8	-1e10	8	-1E+10	1	-1E+10	1	-1E+10	1	-1E+10	1	-1E+10	1	-1E+10	1
4902554	57	C	09/02/2022	18:07	-133.699	49.449	0	22.00	0	16.6020	0	32.1520	0	23.423	0	21.811	0	-1e10	8	-1e10	8	-1E+10	1	-1E+10	1	-1E+10	1	-1E+10	1	-1E+10	1	-1E+10	1
4902554	57	C	09/02/2022	18:07	-133.699	49.449	0	23.10	0	16.1430	0	32.1760	0	23.546	0	22.902	0	-1e10	8	-1e10	8	-1E+10	1	-1E+10	1	-1E+10	1	-1E+10	1	-1E+10	1	-1E+10	1
4902554	57	C	09/02/2022	18:07	-133.699	49.449	0	23.90	0	16.0230	0	32.1790	0	23.575	0	23.695	0	-1e10	8	-1e10	8	-1E+10	1	-1E+10	1	-1E+10	1	-1E+10	1	-1E+10	1	-1E+10	1
4902554	57	C	09/02/2022	18:07	-133.699	49.449	0	24.90	0	15.7190	0	32.1860	0	23.648	0	24.686	0	-1e10	8	-1e10	8	-1E+10	1	-1E+10	1	-1E+10	1	-1E+10	1	-1E+10	1	-1E+10	1
4902554	57	C	09/02/2022	18:07	-133.699	49.449	0	25.90	0	15.3600	0	32.1980	0	23.736	0	25.678	0	-1e10	8	-1e10	8	-1E+10	1	-1E+10	1	-1E+10	1	-1E+10	1	-1E+10	1	-1E+10	1
4902554	57	C	09/02/2022	18:07	-133.699	49.449	0	26.90	0	15.2070	0	32.2130	0	23.781	0	26.669	0	-1e10	8	-1e10	8	-1E+10	1	-1E+10	1	-1E+10	1	-1E+10	1	-1E+10	1	-1E+10	1
4902554	57	C	09/02/2022	18:07	-133.699	49.449	0	27.90	0	14.9480	0	32.2040	0	23.830	0	27.660	0	-1e10	8	-1e10	8	-1E+10	1	-1E+10	1	-1E+10	1	-1E+10	1	-1E+10	1	-1E+10	1
4902554	57	C	09/02/2022	18:07	-133.699	49.449	0	29.00	0	14.7780	0	32.2060	0	23.868	0	28.751	0	-1e10	8	-1e10	8	-1E+10	1	-1E+10	1	-1E+10	1	-1E+10	1	-1E+10	1	-1E+10	1
4902554	57	C	09/02/2022	18:07	-133.699	49.449	0	29.90	0	14.6220	0	32.2020	0	23.898	0	29.643	0	-1e10	8	-1e10	8	-1E+10	1	-1E+10	1	-1E+10	1	-1E+10	1	-1E+10	1	-1E+10	1
4902554	57	C	09/02/2022	18:07	-133.699	49.449	0	30.80	0	14.0650	0	32.2150	0	24.024	0	30.535	0	-1e10	8	-1e10	8	-1E+10	1	-1E+10	1	-1E+10	1	-1E+10	1	-1E+10	1	-1E+10	1
4902554	57	C	09/02/2022	18:07	-133.699	49.449	0	31.90	0	12.8600	0	32.2370	0	24.282	0	31.626	0	-1e10	8	-1e10	8	-1E+10	1	-1E+10	1	-1E+10	1	-1E+10	1	-1E+10	1	-1E+10	1
4902554	57	C	09/02/2022	18:07	-133.699	49.449	0	33.00	0	12.5730	0	32.2300	0	24.332	0	32.716	0	-1e10	8	-1e10	8	-1E+10	1	-1E+10	1	-1E+10	1	-1E+10	1	-1E+10	1	-1E+10	1
4902554	57	C	09/02/2022	18:07	-133.699	49.449	0	34.00	0	12.4750	0	32.2280	0	24.349	0	33.707	0	-1e10	8	-1e10	8	-1E+10	1	-1E+10	1	-1E+10	1	-1E+10	1	-1E+10	1	-1E+10	1
4902554	57	C	09/02/2022	18:07	-133.699	49.449	0	35.00	0	12.3550	0	32.2280	0	24.372	0	34.699	0	-1e10	8	-1e10	8	-1E+10	1	-1E+10	1	-1E+10	1	-1E+10	1	-1E+10	1	-1E+10	1
4902554	57	C	09/02/2022	18:07	-133.699	49.449	0	36.00	0	12.2780	0	32.2240	0	24.383	0	35.690	0	-1e10	8	-1e10	8	-1E+10	1	-1E+10	1	-1E+10	1	-1E+10	1	-1E+10	1	-1E+10	1
4902554	57	C	09/02/2022	18:07	-133.699	49.449	0	37.00	0	12.0870	0	32.2220	0	24.418	0	36.681	0	-1e10	8	-1e10	8	-1E+10	1	-1E+10	1	-1E+10	1	-1E+10	1	-1E+10	1	-1E+10	1
4902554	57	C	09/02/2022	18:07	-133.699	49.449	0	38.10	0	11.2580	0	32.2470	0	24.588	0	37.772	0	-1e10	8	-1e10	8	-1E+10	1	-1E+10	1	-1E+10	1	-1E+10	1	-1E+10	1	-1E+10	1
4902554	57	C	09/02/2022	18:07	-133.699	49.449	0	39.30	0	10.7310	0	32.2610	0	24.691	0	38.961	0	-1e10	8	-1e10	8	-1E+10	1	-1E+10	1	-1E+10	1	-1E+10	1	-1E+10	1	-1E+10	1
4902554	57	C	09/02/2022	18:07	-133.699	49.449	0	39.90	0	10.6610	0	32.2620	0	24.704	0	39.556	0	-1e10	8	-1e10	8	-1E+10	1	-1E+10	1	-1E+10	1	-1E+10	1	-1E+10	1	-1E+10	1
4902554	57	C	09/02/2022	18:07	-133.699	49.449	0	40.90	0	10.5420	0	32.2650	0	24.727	0	40.547	0	-1e10	8	-1e10	8	-1E+10	1	-1E+10	1	-1E+10	1	-1E+10	1	-1E+10	1	-1E+10	1
4902554	57	C	09/02/2022	18:07	-133.699	49.449	0	42.00	0	10.4370	0	32.2650	0	24.745	0	41.638	0	-1e10	8	-1e10	8	-1E+10	1	-1E+10	1	-1E+10	1	-1E+10	1	-1E+10	1	-1E+10	1
4902554	57	C	09/02/2022	18:07	-133.699	49.449	0	43.00	0	10.2320	0	32.2710	0	24.784	0	42.629	0	-1e10	8	-1e10	8	-1E+10	1	-1E+10	1	-1E+10	1	-1E+10	1	-1E+10	1	-1E+10	1
4902554	57	C	09/02/2022	18:07	-133.699	49.449	0	44.00	0	9.8980	0	32.2810	0	24.847	0	43.620	0	-1e10	8	-1e10	8	-1E+10	1	-1E+10	1	-1E+10	1	-1E+10	1	-1E+10	1	-1E+10	1
4902554	57	C	09/02/2022	18:07	-133.699	49.449	0	45.10	0	9.7070	0	32.2850	0	24.882	0	44.711	0	-1e10	8	-1e10	8	-1E+10	1	-1E+10	1	-1E+10	1	-1E+10	1	-1E+10	1	-1E+10	1
4902554	57	C	09/02/2022	18:07	-133.699	49.449	0	45.80	0	9.6660	0	32.2820	0	24.886	0	45.405	0	-1e10	8	-1e10	8	-1E+10	1	-1E+10	1	-1E+10	1	-1E+10	1	-1E+10	1	-1E+10	1
4902554	57	C	09/02/2022	18:07	-133.699	49.449	0	46.90	0	9.5800	0	32.2870	0	24.904	0	46.495	0	-1e10	8	-1e10	8	-1E+10	1	-1E+10	1	-1E+10	1	-1E+10	1	-1E+10	1	-1E+10	1
4902554	57	C	09/02/2022	18:07	-133.699	49.449	0	47.80	0	9.4840	0	32.2910	0	24.922	0	47.387	0	-1e10	8	-1e10	8	-1E+10	1	-1E+10	1	-1E+10	1	-1E+10	1	-1E+10	1	-1E+10	1
4902554	57	C	09/02/2022	18:07	-133.699	49.449	0	48.90	0	9.2810	0	32.2920	0	24.955	0	48.477	0	-1e10	8	-1e10	8	-1E+10	1	-1E+10	1	-1E+10	1	-1E+10	1	-1E+10	1	-1E+10	1
4902554	57	C	09/02/2022	18:07	-133.699	49.449	0	50.20	0	9.1080	0	32.3060	0	24.994	0	49.766	0	-1e10	8	-1e10	8	-1E+10	1	-1E+10	1	-1E+10	1	-1E+10	1	-1E+10	1	-1E+10	1
4902554	57	C	09/02/2022	18:07	-133.699	49.449	0	50.90	0	9.0210	0	32.3100	0	25.010	0	50.460	0	-1e10	8	-1e10	8	-1E+10	1	-1E+10	1	-1E+10	1	-1E+10	1	-1E+10	1	-1E+10	1
4902554	57	C	09/02/2022	18:07	-133.699	49.449	0	51.90	0	8.8460	0	32.3100	0	25.037	0	51.451	0	-1e10	8	-1e10	8	-1E+10	1	-1E+10	1	-1E+10	1	-1E+10	1	-1E+10	1	-1E+10	1
4902554	57	C	09/02/2022	18:07	-133.699	49.449	0	53.00	0	8.7050	0	32.3110	0	25.059	0	52.542	0	-1e10	8	-1e10	8	-1E+10	1	-1E+10	1	-1E+10	1	-1E+10	1	-1E+10	1	-1E+10	1
4902554	57	C	09/02/2022	18:07	-133.699	49.449	0	54.00	0	8.5980	0	32.3080	0	25.073	0	53.533	0	-1e10	8	-1e10	8	-1E+10	1	-1E+10	1	-1E+10	1	-1E+10	1	-1E+10	1	-1E+10	1
4902554	57	C	09/02/2022	18:07	-133.699	49.449	0	55.10	0	8.5170	0	32.3120	0	25.089	0	54.623	0	-1e10	8	-1e10	8	-1E+10	1	-1E+10	1	-1E+10	1	-1E+10	1	-1E+10	1	-1E+10	1
4902554	57	C	09/02/2022	18:07	-133.699	49.449	0	56.00	0	8.4380	0	32.3140	0	25.102	0	55.515	0	-1e10	8	-1e10	8	-1E+10	1	-1E+10	1	-1E+10	1	-1E+10	1	-1E+10	1	-1E+10	1
4902554	57	C	09/02/2022	18:07	-133.699	49.449	0	56.80	0	8.3250	0	32.3170	0	25.121	0	56.308	0	-1e10	8	-1e10	8	-1E+10	1	-1E+10	1	-1E+10	1	-1E+10	1	-1E+10	1	-1E+10	1
4902554	57	C	09/02/2022	18:07	-133.699	49.449	0	57.90	0	8.1980	0	32.3220	0	25.144	0	57.398	0	-1e10	8	-1e10	8	-1E+10	1	-1E+10	1	-1E+10	1	-1E+10	1	-1E+10	1	-1E+10	1
4902554	57	C	09/02/2022	18:07	-133.699	49.449	0	59.10	0	8.0030	0	32.3370	0	25.184	0	58.588	0	-1e10	8	-1e10	8	-1E+10	1	-1E+10	1	-1E+10	1	-1E+10	1	-1E+10	1	-1E+10	1
4902554	57	C	09/02/2022	18:07	-133.699	49.449	0	59.90	0	7.9490	0	32.3340	0	25.189	0	59.381	0	-1e10	8	-1e10	8	-1E+10	1	-1E+10	1	-1E+10	1	-1E+10	1	-1E+10	1	-1E+10	1
4902554	57	C	09/02/2022	18:07	-133.699	49.449	0	60.80	0	7.8900	0	32.3300	0	25.194	0	60.273	0	-1e10	8	-1e10	8	-1E+10	1	-1E+10	1	-1E+10	1	-1E+10	1	-1E+10	1	-1E+10	1
4902554	57	C	09/02/2022	18:07	-133.699	49.449	0	61.90	0	7.8430	0	32.3310	0	25.202	0	61.363	0	-1e10	8	-1e10	8	-1E+10	1	-1E+10	1	-1E+10	1	-1E+10	1	-1E+10	1	-1E+10	1
4902554	57	C	09/02/2022	18:07	-133.699	49.449	0	63.00	0	7.8230	0	32.3300	0	25.204	0	62.454	0	-1e10	8	-1e10	8	-1E+10	1	-1E+10	1	-1E+10	1	-1E+10	1	-1E+10	1	-1E+10	1
4902554	57	C	09/02/2022	18:07	-133.699	49.449	0	64.10	0	7.7990	0	32.3290	0	25.207	0	63.544	0	-1e10	8	-1e10	8	-1E+10	1	-1E+10	1	-1E+10	1	-1E+10	1	-1E+10	1	-1E+10	1
4902554	57	C	09/02/2022	18:07	-133.699	49.449	0	65.20	0	7.5980	0	32.3380	0	25.242	0	64.634	0	-1e10	8	-1e10	8	-1E+10	1	-1E+10	1	-1E+10	1	-1E+10	1	-1E+10	1	-1E+10	1
4902554	57	C	09/02/2022	18:07	-133.699	49.449	0	66.10	0	7.5460	0	32.3380	0	25.249	0	65.526	0	-1e10	8	-1e10	8	-1E+10	1	-1E+10	1	-1E+10	1	-1E+10	1	-1E+10	1	-1E+10	1
4902554	57	C	09/02/2022	18:07	-133.699	49.449	0	67.00	0	7.4690	0	32.3420	0	25.263	0	66.418	0	-1e10	8	-1e10	8	-1E+10	1	-1E+10	1	-1E+10	1	-1E+10	1	-1E+10	1	-1E+10	1
4902554	57	C	09/02/2022	18:07	-133.699	49.449	0	67.90	0	7.4080	0	32.3450	0	25.274	0	67.310	0	-1e10	8	-1e10	8	-1E+10	1	-1E+10	1	-1E+10	1	-1E+10	1	-1E+10	1	-1E+10	1
4902554	57	C	09/02/2022	18:07	-133.699	49.449	0	68.90	0	7.3690	0	32.3460	0	25.280	0	68.301	0	-1e10	8	-1e10	8	-1E+10	1	-1E+10	1	-1E+10	1	-1E+10	1	-1E+10	1	-1E+10	1
4902554	57	C	09/02/2022	18:07	-133.699	49.449	0	70.10	0	7.3130	0	32.3490	0	25.290	0	69.491	0	-1e10	8	-1e10	8	-1E+10	1	-1E+10	1	-1E+10	1	-1E+10	1	-1E+10	1	-1E+10	1
4902554	57	C	09/02/2022	18:07	-133.699	49.449	0	70.80	0	7.2780	0	32.3530	0	25.298	0	70.185	0	-1e10	8	-1e10	8	-1E+10	1	-1E+10	1	-1E+10	1	-1E+10	1	-1E+10	1	-1E+10	1
4902554	57	C	09/02/2022	18:07	-133.699	49.449	0	71.90	0	7.2280	0	32.3520	0	25.304	0	71.275	0	-1e10	8	-1e10	8	-1E+10	1	-1E+10	1	-1E+10	1	-1E+10	1	-1E+10	1	-1E+10	1
4902554	57	C	09/02/2022	18:07	-133.699	49.449	0	72.90	0	7.1840	0	32.3570	0	25.314	0	72.266	0	-1e10	8	-1e10	8	-1E+10	1	-1E+10	1	-1E+10	1	-1E+10	1	-1E+10	1	-1E+10	1
4902554	57	C	09/02/2022	18:07	-133.699	49.449	0	74.00	0	7.1280	0	32.3610	0	25.324	0	73.356	0	-1e10	8	-1e10	8	-1E+10	1	-1E+10	1	-1E+10	1	-1E+10	1	-1E+10	1	-1E+10	1
4902554	57	C	09/02/2022	18:07	-133.699	49.449	0	75.00	0	7.0840	0	32.3670	0	25.335	0	74.347	0	-1e10	8	-1e10	8	-1E+10	1	-1E+10	1	-1E+10	1	-1E+10	1	-1E+10	1	-1E+10	1
4902554	57	C	09/02/2022	18:07	-133.699	49.449	0	76.00	0	7.0670	0	32.3700	0	25.340	0	75.338	0	-1e10	8	-1e10	8	-1E+10	1	-1E+10	1	-1E+10	1	-1E+10	1	-1E+10	1	-1E+10	1
4902554	57	C	09/02/2022	18:07	-133.699	49.449	0	77.00	0	7.0210	0	32.3740	0	25.349	0	76.329	0	-1e10	8	-1e10	8	-1E+10	1	-1E+10	1	-1E+10	1	-1E+10	1	-1E+10	1	-1E+10	1
4902554	57	C	09/02/2022	18:07	-133.699	49.449	0	78.00	0	6.9760	0	32.3850	0	25.364	0	77.321	0	-1e10	8	-1e10	8	-1E+10	1	-1E+10	1	-1E+10	1	-1E+10	1	-1E+10	1	-1E+10	1
4902554	57	C	09/02/2022	18:07	-133.699	49.449	0	79.20	0	6.9490	0	32.3910	0	25.372	0	78.510	0	-1e10	8	-1e10	8	-1E+10	1	-1E+10	1	-1E+10	1	-1E+10	1	-1E+10	1	-1E+10	1
4902554	57	C	09/02/2022	18:07	-133.699	49.449	0	79.90	0	6.9350	0	32.3930	0	25.375	0	79.204	0	-1e10	8	-1e10	8	-1E+10	1	-1E+10	1	-1E+10	1	-1E+10	1	-1E+10	1	-1E+10	1
4902554	57	C	09/02/2022	18:07	-133.699	49.449	0	81.10	0	6.8920	0	32.4030	0	25.389	0	80.393	0	-1e10	8	-1e10	8	-1E+10	1	-1E+10	1	-1E+10	1	-1E+10	1	-1E+10	1	-1E+10	1
4902554	57	C	09/02/2022	18:07	-133.699	49.449	0	82.10	0	6.8670	0	32.4110	0	25.399	0	81.384	0	-1e10	8	-1e10	8	-1E+10	1	-1E+10	1	-1E+10	1	-1E+10	1	-1E+10	1	-1E+10	1
4902554	57	C	09/02/2022	18:07	-133.699	49.449	0	83.00	0	6.8320	0	32.4260	0	25.415	0	82.276	0	-1e10	8	-1e10	8	-1E+10	1	-1E+10	1	-1E+10	1	-1E+10	1	-1E+10	1	-1E+10	1
4902554	57	C	09/02/2022	18:07	-133.699	49.449	0	84.00	0	6.8020	0	32.4390	0	25.429	0	83.267	0	-1e10	8	-1e10	8	-1E+10	1	-1E+10	1	-1E+10	1	-1E+10	1	-1E+10	1	-1E+10	1
4902554	57	C	09/02/2022	18:07	-133.699	49.449	0	85.10	0	6.7780	0	32.4550	0	25.445	0	84.357	0	-1e10	8	-1e10	8	-1E+10	1	-1E+10	1	-1E+10	1	-1E+10	1	-1E+10	1	-1E+10	1
4902554	57	C	09/02/2022	18:07	-133.699	49.449	0	86.00	0	6.7770	0	32.4590	0	25.448	0	85.249	0	-1e10	8	-1e10	8	-1E+10	1	-1E+10	1	-1E+10	1	-1E+10	1	-1E+10	1	-1E+10	1
4902554	57	C	09/02/2022	18:07	-133.699	49.449	0	86.80	0	6.7680	0	32.4650	0	25.454	0	86.042	0	-1e10	8	-1e10	8	-1E+10	1	-1E+10	1	-1E+10	1	-1E+10	1	-1E+10	1	-1E+10	1
4902554	57	C	09/02/2022	18:07	-133.699	49.449	0	88.00	0	6.7530	0	32.4750	0	25.464	0	87.231	0	-1e10	8	-1e10	8	-1E+10	1	-1E+10	1	-1E+10	1	-1E+10	1	-1E+10	1	-1E+10	1
4902554	57	C	09/02/2022	18:07	-133.699	49.449	0	88.90	0	6.7470	0	32.4780	0	25.467	0	88.123	0	-1e10	8	-1e10	8	-1E+10	1	-1E+10	1	-1E+10	1	-1E+10	1	-1E+10	1	-1E+10	1
4902554	57	C	09/02/2022	18:07	-133.699	49.449	0	89.80	0	6.7440	0	32.4800	0	25.469	0	89.015	0	-1e10	8	-1e10	8	-1E+10	1	-1E+10	1	-1E+10	1	-1E+10	1	-1E+10	1	-1E+10	1
4902554	57	C	09/02/2022	18:07	-133.699	49.449	0	90.90	0	6.7390	0	32.4840	0	25.473	0	90.105	0	-1e10	8	-1e10	8	-1E+10	1	-1E+10	1	-1E+10	1	-1E+10	1	-1E+10	1	-1E+10	1
4902554	57	C	09/02/2022	18:07	-133.699	49.449	0	92.00	0	6.7370	0	32.4850	0	25.474	0	91.196	0	-1e10	8	-1e10	8	-1E+10	1	-1E+10	1	-1E+10	1	-1E+10	1	-1E+10	1	-1E+10	1
4902554	57	C	09/02/2022	18:07	-133.699	49.449	0	93.10	0	6.7340	0	32.4880	0	25.477	0	92.286	0	-1e10	8	-1e10	8	-1E+10	1	-1E+10	1	-1E+10	1	-1E+10	1	-1E+10	1	-1E+10	1
4902554	57	C	09/02/2022	18:07	-133.699	49.449	0	94.00	0	6.7290	0	32.4930	0	25.481	0	93.178	0	-1e10	8	-1e10	8	-1E+10	1	-1E+10	1	-1E+10	1	-1E+10	1	-1E+10	1	-1E+10	1
4902554	57	C	09/02/2022	18:07	-133.699	49.449	0	94.80	0	6.7130	0	32.5080	0	25.495	0	93.970	0	-1e10	8	-1e10	8	-1E+10	1	-1E+10	1	-1E+10	1	-1E+10	1	-1E+10	1	-1E+10	1
4902554	57	C	09/02/2022	18:07	-133.699	49.449	0	96.00	0	6.7010	0	32.5170	0	25.504	0	95.160	0	-1e10	8	-1e10	8	-1E+10	1	-1E+10	1	-1E+10	1	-1E+10	1	-1E+10	1	-1E+10	1
4902554	57	C	09/02/2022	18:07	-133.699	49.449	0	97.10	0	6.6940	0	32.5220	0	25.509	0	96.250	0	-1e10	8	-1e10	8	-1E+10	1	-1E+10	1	-1E+10	1	-1E+10	1	-1E+10	1	-1E+10	1
4902554	57	C	09/02/2022	18:07	-133.699	49.449	0	98.00	0	6.6840	0	32.5310	0	25.517	0	97.142	0	-1e10	8	-1e10	8	-1E+10	1	-1E+10	1	-1E+10	1	-1E+10	1	-1E+10	1	-1E+10	1
4902554	57	C	09/02/2022	18:07	-133.699	49.449	0	98.70	0	6.6710	0	32.5410	0	25.527	0	97.835	0	-1e10	8	-1e10	8	-1E+10	1	-1E+10	1	-1E+10	1	-1E+10	1	-1E+10	1	-1E+10	1
4902554	57	C	09/02/2022	18:07	-133.699	49.449	0	99.70	0	6.6460	0	32.5610	0	25.546	0	98.826	0	-1e10	8	-1e10	8	-1E+10	1	-1E+10	1	-1E+10	1	-1E+10	1	-1E+10	1	-1E+10	1
4902554	57	C	09/02/2022	18:07	-133.699	49.449	0	100.90	0	6.6070	0	32.5930	0	25.576	0	100.016	0	-1e10	8	-1e10	8	-1E+10	1	-1E+10	1	-1E+10	1	-1E+10	1	-1E+10	1	-1E+10	1
4902554	57	C	09/02/2022	18:07	-133.699	49.449	0	102.10	0	6.5480	0	32.6430	0	25.623	0	101.205	0	-1e10	8	-1e10	8	-1E+10	1	-1E+10	1	-1E+10	1	-1E+10	1	-1E+10	1	-1E+10	1
4902554	57	C	09/02/2022	18:07	-133.699	49.449	0	102.90	0	6.5100	0	32.6820	0	25.659	0	101.998	0	-1e10	8	-1e10	8	-1E+10	1	-1E+10	1	-1E+10	1	-1E+10	1	-1E+10	1	-1E+10	1
4902554	57	C	09/02/2022	18:07	-133.699	49.449	0	103.80	0	6.4750	0	32.7260	0	25.698	0	102.889	0	-1e10	8	-1e10	8	-1E+10	1	-1E+10	1	-1E+10	1	-1E+10	1	-1E+10	1	-1E+10	1
4902554	57	C	09/02/2022	18:07	-133.699	49.449	0	104.80	0	6.4460	0	32.7510	0	25.721	0	103.880	0	-1e10	8	-1e10	8	-1E+10	1	-1E+10	1	-1E+10	1	-1E+10	1	-1E+10	1	-1E+10	1
4902554	57	C	09/02/2022	18:07	-133.699	49.449	0	105.80	0	6.4210	0	32.7650	0	25.736	0	104.871	0	-1e10	8	-1e10	8	-1E+10	1	-1E+10	1	-1E+10	1	-1E+10	1	-1E+10	1	-1E+10	1
4902554	57	C	09/02/2022	18:07	-133.699	49.449	0	107.00	0	6.3990	0	32.7860	0	25.755	0	106.061	0	-1e10	8	-1e10	8	-1E+10	1	-1E+10	1	-1E+10	1	-1E+10	1	-1E+10	1	-1E+10	1
4902554	57	C	09/02/2022	18:07	-133.699	49.449	0	108.00	0	6.3800	0	32.8160	0	25.781	0	107.051	0	-1e10	8	-1e10	8	-1E+10	1	-1E+10	1	-1E+10	1	-1E+10	1	-1E+10	1	-1E+10	1
4902554	57	C	09/02/2022	18:07	-133.699	49.449	0	108.90	0	6.3580	0	32.8420	0	25.804	0	107.943	0	-1e10	8	-1e10	8	-1E+10	1	-1E+10	1	-1E+10	1	-1E+10	1	-1E+10	1	-1E+10	1
4902554	57	C	09/02/2022	18:07	-133.699	49.449	0	109.90	0	6.3430	0	32.8800	0	25.836	0	108.934	0	-1e10	8	-1e10	8	-1E+10	1	-1E+10	1	-1E+10	1	-1E+10	1	-1E+10	1	-1E+10	1
4902554	57	C	09/02/2022	18:07	-133.699	49.449	0	111.00	0	6.3350	0	32.9040	0	25.856	0	110.024	0	-1e10	8	-1e10	8	-1E+10	1	-1E+10	1	-1E+10	1	-1E+10	1	-1E+10	1	-1E+10	1
4902554	57	C	09/02/2022	18:07	-133.699	49.449	0	112.10	0	6.3350	0	32.9090	0	25.860	0	111.114	0	-1e10	8	-1e10	8	-1E+10	1	-1E+10	1	-1E+10	1	-1E+10	1	-1E+10	1	-1E+10	1
4902554	57	C	09/02/2022	18:07	-133.699	49.449	0	113.10	0	6.3300	0	32.9210	0	25.870	0	112.105	0	-1e10	8	-1e10	8	-1E+10	1	-1E+10	1	-1E+10	1	-1E+10	1	-1E+10	1	-1E+10	1
4902554	57	C	09/02/2022	18:07	-133.699	49.449	0	114.10	0	6.3230	0	32.9310	0	25.879	0	113.096	0	-1e10	8	-1e10	8	-1E+10	1	-1E+10	1	-1E+10	1	-1E+10	1	-1E+10	1	-1E+10	1
4902554	57	C	09/02/2022	18:07	-133.699	49.449	0	115.10	0	6.3110	0	32.9440	0	25.891	0	114.087	0	-1e10	8	-1e10	8	-1E+10	1	-1E+10	1	-1E+10	1	-1E+10	1	-1E+10	1	-1E+10	1
4902554	57	C	09/02/2022	18:07	-133.699	49.449	0	116.10	0	6.2870	0	33.0000	0	25.938	0	115.078	0	-1e10	8	-1e10	8	-1E+10	1	-1E+10	1	-1E+10	1	-1E+10	1	-1E+10	1	-1E+10	1
4902554	57	C	09/02/2022	18:07	-133.699	49.449	0	116.90	0	6.2410	0	33.0590	0	25.990	0	115.871	0	-1e10	8	-1e10	8	-1E+10	1	-1E+10	1	-1E+10	1	-1E+10	1	-1E+10	1	-1E+10	1
4902554	57	C	09/02/2022	18:07	-133.699	49.449	0	117.70	0	6.2040	0	33.1040	0	26.031	0	116.664	0	-1e10	8	-1e10	8	-1E+10	1	-1E+10	1	-1E+10	1	-1E+10	1	-1E+10	1	-1E+10	1
4902554	57	C	09/02/2022	18:07	-133.699	49.449	0	118.90	0	6.1980	0	33.1100	0	26.036	0	117.853	0	-1e10	8	-1e10	8	-1E+10	1	-1E+10	1	-1E+10	1	-1E+10	1	-1E+10	1	-1E+10	1
4902554	57	C	09/02/2022	18:07	-133.699	49.449	0	120.10	0	6.1650	0	33.1590	0	26.079	0	119.042	0	-1e10	8	-1e10	8	-1E+10	1	-1E+10	1	-1E+10	1	-1E+10	1	-1E+10	1	-1E+10	1
4902554	57	C	09/02/2022	18:07	-133.699	49.449	0	121.10	0	6.1600	0	33.1820	0	26.098	0	120.033	0	-1e10	8	-1e10	8	-1E+10	1	-1E+10	1	-1E+10	1	-1E+10	1	-1E+10	1	-1E+10	1
4902554	57	C	09/02/2022	18:07	-133.699	49.449	0	122.00	0	6.1560	0	33.1900	0	26.105	0	120.924	0	-1e10	8	-1e10	8	-1E+10	1	-1E+10	1	-1E+10	1	-1E+10	1	-1E+10	1	-1E+10	1
4902554	57	C	09/02/2022	18:07	-133.699	49.449	0	123.00	0	6.1550	0	33.1920	0	26.106	0	121.915	0	-1e10	8	-1e10	8	-1E+10	1	-1E+10	1	-1E+10	1	-1E+10	1	-1E+10	1	-1E+10	1
4902554	57	C	09/02/2022	18:07	-133.699	49.449	0	123.90	0	6.1470	0	33.2010	0	26.114	0	122.807	0	-1e10	8	-1e10	8	-1E+10	1	-1E+10	1	-1E+10	1	-1E+10	1	-1E+10	1	-1E+10	1
4902554	57	C	09/02/2022	18:07	-133.699	49.449	0	125.00	0	6.1270	0	33.2330	0	26.142	0	123.897	0	-1e10	8	-1e10	8	-1E+10	1	-1E+10	1	-1E+10	1	-1E+10	1	-1E+10	1	-1E+10	1
4902554	57	C	09/02/2022	18:07	-133.699	49.449	0	126.00	0	6.0990	0	33.2720	0	26.176	0	124.888	0	-1e10	8	-1e10	8	-1E+10	1	-1E+10	1	-1E+10	1	-1E+10	1	-1E+10	1	-1E+10	1
4902554	57	C	09/02/2022	18:07	-133.699	49.449	0	127.20	0	6.0960	0	33.2860	0	26.188	0	126.077	0	-1e10	8	-1e10	8	-1E+10	1	-1E+10	1	-1E+10	1	-1E+10	1	-1E+10	1	-1E+10	1
4902554	57	C	09/02/2022	18:07	-133.699	49.449	0	127.90	0	6.0770	0	33.3050	0	26.205	0	126.771	0	-1e10	8	-1e10	8	-1E+10	1	-1E+10	1	-1E+10	1	-1E+10	1	-1E+10	1	-1E+10	1
4902554	57	C	09/02/2022	18:07	-133.699	49.449	0	128.70	0	6.0530	0	33.3200	0	26.220	0	127.563	0	-1e10	8	-1e10	8	-1E+10	1	-1E+10	1	-1E+10	1	-1E+10	1	-1E+10	1	-1E+10	1
4902554	57	C	09/02/2022	18:07	-133.699	49.449	0	129.90	0	6.0160	0	33.3560	0	26.253	0	128.752	0	-1e10	8	-1e10	8	-1E+10	1	-1E+10	1	-1E+10	1	-1E+10	1	-1E+10	1	-1E+10	1
4902554	57	C	09/02/2022	18:07	-133.699	49.449	0	131.10	0	6.0150	0	33.3560	0	26.253	0	129.941	0	-1e10	8	-1e10	8	-1E+10	1	-1E+10	1	-1E+10	1	-1E+10	1	-1E+10	1	-1E+10	1
4902554	57	C	09/02/2022	18:07	-133.699	49.449	0	131.90	0	6.0110	0	33.3580	0	26.255	0	130.734	0	-1e10	8	-1e10	8	-1E+10	1	-1E+10	1	-1E+10	1	-1E+10	1	-1E+10	1	-1E+10	1
4902554	57	C	09/02/2022	18:07	-133.699	49.449	0	132.80	0	5.9900	0	33.3750	0	26.271	0	131.626	0	-1e10	8	-1e10	8	-1E+10	1	-1E+10	1	-1E+10	1	-1E+10	1	-1E+10	1	-1E+10	1
4902554	57	C	09/02/2022	18:07	-133.699	49.449	0	133.60	0	5.9810	0	33.3930	0	26.287	0	132.418	0	-1e10	8	-1e10	8	-1E+10	1	-1E+10	1	-1E+10	1	-1E+10	1	-1E+10	1	-1E+10	1
4902554	57	C	09/02/2022	18:07	-133.699	49.449	0	134.60	0	5.9860	0	33.4420	0	26.325	0	133.409	0	-1e10	8	-1e10	8	-1E+10	1	-1E+10	1	-1E+10	1	-1E+10	1	-1E+10	1	-1E+10	1
4902554	57	C	09/02/2022	18:07	-133.699	49.449	0	135.50	0	5.9740	0	33.4610	0	26.341	0	134.301	0	-1e10	8	-1e10	8	-1E+10	1	-1E+10	1	-1E+10	1	-1E+10	1	-1E+10	1	-1E+10	1
4902554	57	C	09/02/2022	18:07	-133.699	49.449	0	136.90	0	5.9260	0	33.5000	0	26.378	0	135.688	0	-1e10	8	-1e10	8	-1E+10	1	-1E+10	1	-1E+10	1	-1E+10	1	-1E+10	1	-1E+10	1
4902554	57	C	09/02/2022	18:07	-133.699	49.449	0	138.40	0	5.8810	0	33.5230	0	26.402	0	137.174	0	-1e10	8	-1e10	8	-1E+10	1	-1E+10	1	-1E+10	1	-1E+10	1	-1E+10	1	-1E+10	1
4902554	57	C	09/02/2022	18:07	-133.699	49.449	0	139.40	0	5.8680	0	33.5330	0	26.411	0	138.165	0	-1e10	8	-1e10	8	-1E+10	1	-1E+10	1	-1E+10	1	-1E+10	1	-1E+10	1	-1E+10	1
4902554	57	C	09/02/2022	18:07	-133.699	49.449	0	140.40	0	5.8620	0	33.5370	0	26.415	0	139.156	0	-1e10	8	-1e10	8	-1E+10	1	-1E+10	1	-1E+10	1	-1E+10	1	-1E+10	1	-1E+10	1
4902554	57	C	09/02/2022	18:07	-133.699	49.449	0	141.40	0	5.8620	0	33.5380	0	26.416	0	140.147	0	-1e10	8	-1e10	8	-1E+10	1	-1E+10	1	-1E+10	1	-1E+10	1	-1E+10	1	-1E+10	1
4902554	57	C	09/02/2022	18:07	-133.699	49.449	0	142.40	0	5.8610	0	33.5380	0	26.416	0	141.138	0	-1e10	8	-1e10	8	-1E+10	1	-1E+10	1	-1E+10	1	-1E+10	1	-1E+10	1	-1E+10	1
4902554	57	C	09/02/2022	18:07	-133.699	49.449	0	143.40	0	5.8600	0	33.5380	0	26.416	0	142.128	0	-1e10	8	-1e10	8	-1E+10	1	-1E+10	1	-1E+10	1	-1E+10	1	-1E+10	1	-1E+10	1
4902554	57	C	09/02/2022	18:07	-133.699	49.449	0	144.40	0	5.8580	0	33.5400	0	26.418	0	143.119	0	-1e10	8	-1e10	8	-1E+10	1	-1E+10	1	-1E+10	1	-1E+10	1	-1E+10	1	-1E+10	1
4902554	57	C	09/02/2022	18:07	-133.699	49.449	0	145.30	0	5.8580	0	33.5390	0	26.417	0	144.011	0	-1e10	8	-1e10	8	-1E+10	1	-1E+10	1	-1E+10	1	-1E+10	1	-1E+10	1	-1E+10	1
4902554	57	C	09/02/2022	18:07	-133.699	49.449	0	146.20	0	5.8570	0	33.5400	0	26.418	0	144.903	0	-1e10	8	-1e10	8	-1E+10	1	-1E+10	1	-1E+10	1	-1E+10	1	-1E+10	1	-1E+10	1
4902554	57	C	09/02/2022	18:07	-133.699	49.449	0	147.20	0	5.8160	0	33.5610	0	26.440	0	145.893	0	-1e10	8	-1e10	8	-1E+10	1	-1E+10	1	-1E+10	1	-1E+10	1	-1E+10	1	-1E+10	1
4902554	57	C	09/02/2022	18:07	-133.699	49.449	0	148.20	0	5.7910	0	33.5720	0	26.452	0	146.884	0	-1e10	8	-1e10	8	-1E+10	1	-1E+10	1	-1E+10	1	-1E+10	1	-1E+10	1	-1E+10	1
4902554	57	C	09/02/2022	18:07	-133.699	49.449	0	149.20	0	5.7920	0	33.5720	0	26.452	0	147.875	0	-1e10	8	-1e10	8	-1E+10	1	-1E+10	1	-1E+10	1	-1E+10	1	-1E+10	1	-1E+10	1
4902554	57	C	09/02/2022	18:07	-133.699	49.449	0	150.10	0	5.7900	0	33.5710	0	26.451	0	148.767	0	-1e10	8	-1e10	8	-1E+10	1	-1E+10	1	-1E+10	1	-1E+10	1	-1E+10	1	-1E+10	1
4902554	57	C	09/02/2022	18:07	-133.699	49.449	0	151.10	0	5.7890	0	33.5720	0	26.452	0	149.757	0	-1e10	8	-1e10	8	-1E+10	1	-1E+10	1	-1E+10	1	-1E+10	1	-1E+10	1	-1E+10	1
4902554	57	C	09/02/2022	18:07	-133.699	49.449	0	152.10	0	5.7720	0	33.5820	0	26.462	0	150.748	0	-1e10	8	-1e10	8	-1E+10	1	-1E+10	1	-1E+10	1	-1E+10	1	-1E+10	1	-1E+10	1
4902554	57	C	09/02/2022	18:07	-133.699	49.449	0	153.10	0	5.7500	0	33.5970	0	26.477	0	151.739	0	-1e10	8	-1e10	8	-1E+10	1	-1E+10	1	-1E+10	1	-1E+10	1	-1E+10	1	-1E+10	1
4902554	57	C	09/02/2022	18:07	-133.699	49.449	0	154.10	0	5.7350	0	33.6080	0	26.487	0	152.730	0	-1e10	8	-1e10	8	-1E+10	1	-1E+10	1	-1E+10	1	-1E+10	1	-1E+10	1	-1E+10	1
4902554	57	C	09/02/2022	18:07	-133.699	49.449	0	155.10	0	5.7320	0	33.6100	0	26.489	0	153.720	0	-1e10	8	-1e10	8	-1E+10	1	-1E+10	1	-1E+10	1	-1E+10	1	-1E+10	1	-1E+10	1
4902554	57	C	09/02/2022	18:07	-133.699	49.449	0	156.10	0	5.7190	0	33.6210	0	26.499	0	154.711	0	-1e10	8	-1e10	8	-1E+10	1	-1E+10	1	-1E+10	1	-1E+10	1	-1E+10	1	-1E+10	1
4902554	57	C	09/02/2022	18:07	-133.699	49.449	0	157.10	0	5.7060	0	33.6320	0	26.510	0	155.702	0	-1e10	8	-1e10	8	-1E+10	1	-1E+10	1	-1E+10	1	-1E+10	1	-1E+10	1	-1E+10	1
4902554	57	C	09/02/2022	18:07	-133.699	49.449	0	158.20	0	5.6900	0	33.6420	0	26.519	0	156.792	0	-1e10	8	-1e10	8	-1E+10	1	-1E+10	1	-1E+10	1	-1E+10	1	-1E+10	1	-1E+10	1
4902554	57	C	09/02/2022	18:07	-133.699	49.449	0	159.20	0	5.6630	0	33.6570	0	26.535	0	157.782	0	-1e10	8	-1e10	8	-1E+10	1	-1E+10	1	-1E+10	1	-1E+10	1	-1E+10	1	-1E+10	1
4902554	57	C	09/02/2022	18:07	-133.699	49.449	0	160.30	0	5.6380	0	33.6670	0	26.546	0	158.872	0	-1e10	8	-1e10	8	-1E+10	1	-1E+10	1	-1E+10	1	-1E+10	1	-1E+10	1	-1E+10	1
4902554	57	C	09/02/2022	18:07	-133.699	49.449	0	161.30	0	5.6370	0	33.6690	0	26.547	0	159.863	0	-1e10	8	-1e10	8	-1E+10	1	-1E+10	1	-1E+10	1	-1E+10	1	-1E+10	1	-1E+10	1
4902554	57	C	09/02/2022	18:07	-133.699	49.449	0	162.40	0	5.6260	0	33.6740	0	26.553	0	160.953	0	-1e10	8	-1e10	8	-1E+10	1	-1E+10	1	-1E+10	1	-1E+10	1	-1E+10	1	-1E+10	1
4902554	57	C	09/02/2022	18:07	-133.699	49.449	0	163.50	0	5.5890	0	33.6860	0	26.566	0	162.042	0	-1e10	8	-1e10	8	-1E+10	1	-1E+10	1	-1E+10	1	-1E+10	1	-1E+10	1	-1E+10	1
4902554	57	C	09/02/2022	18:07	-133.699	49.449	0	164.50	0	5.5750	0	33.6860	0	26.568	0	163.033	0	-1e10	8	-1e10	8	-1E+10	1	-1E+10	1	-1E+10	1	-1E+10	1	-1E+10	1	-1E+10	1
4902554	57	C	09/02/2022	18:07	-133.699	49.449	0	165.60	0	5.5710	0	33.6880	0	26.570	0	164.123	0	-1e10	8	-1e10	8	-1E+10	1	-1E+10	1	-1E+10	1	-1E+10	1	-1E+10	1	-1E+10	1
4902554	57	C	09/02/2022	18:07	-133.699	49.449	0	166.50	0	5.5620	0	33.6900	0	26.573	0	165.014	0	-1e10	8	-1e10	8	-1E+10	1	-1E+10	1	-1E+10	1	-1E+10	1	-1E+10	1	-1E+10	1
4902554	57	C	09/02/2022	18:07	-133.699	49.449	0	167.90	0	5.5620	0	33.6900	0	26.573	0	166.401	0	-1e10	8	-1e10	8	-1E+10	1	-1E+10	1	-1E+10	1	-1E+10	1	-1E+10	1	-1E+10	1
4902554	57	C	09/02/2022	18:07	-133.699	49.449	0	169.10	0	5.5620	0	33.6910	0	26.574	0	167.590	0	-1e10	8	-1e10	8	-1E+10	1	-1E+10	1	-1E+10	1	-1E+10	1	-1E+10	1	-1E+10	1
4902554	57	C	09/02/2022	18:07	-133.699	49.449	0	169.80	0	5.5480	0	33.6950	0	26.579	0	168.284	0	-1e10	8	-1e10	8	-1E+10	1	-1E+10	1	-1E+10	1	-1E+10	1	-1E+10	1	-1E+10	1
4902554	57	C	09/02/2022	18:07	-133.699	49.449	0	171.00	0	5.5220	0	33.6990	0	26.585	0	169.472	0	-1e10	8	-1e10	8	-1E+10	1	-1E+10	1	-1E+10	1	-1E+10	1	-1E+10	1	-1E+10	1
4902554	57	C	09/02/2022	18:07	-133.699	49.449	0	172.20	0	5.5080	0	33.7030	0	26.590	0	170.661	0	-1e10	8	-1e10	8	-1E+10	1	-1E+10	1	-1E+10	1	-1E+10	1	-1E+10	1	-1E+10	1
4902554	57	C	09/02/2022	18:07	-133.699	49.449	0	173.10	0	5.4970	0	33.7050	0	26.593	0	171.553	0	-1e10	8	-1e10	8	-1E+10	1	-1E+10	1	-1E+10	1	-1E+10	1	-1E+10	1	-1E+10	1
4902554	57	C	09/02/2022	18:07	-133.699	49.449	0	173.90	0	5.4890	0	33.7060	0	26.594	0	172.345	0	-1e10	8	-1e10	8	-1E+10	1	-1E+10	1	-1E+10	1	-1E+10	1	-1E+10	1	-1E+10	1
4902554	57	C	09/02/2022	18:07	-133.699	49.449	0	174.70	0	5.4810	0	33.7080	0	26.597	0	173.138	0	-1e10	8	-1e10	8	-1E+10	1	-1E+10	1	-1E+10	1	-1E+10	1	-1E+10	1	-1E+10	1
4902554	57	C	09/02/2022	18:07	-133.699	49.449	0	175.90	0	5.4620	0	33.7120	0	26.602	0	174.327	0	-1e10	8	-1e10	8	-1E+10	1	-1E+10	1	-1E+10	1	-1E+10	1	-1E+10	1	-1E+10	1
4902554	57	C	09/02/2022	18:07	-133.699	49.449	0	177.20	0	5.4550	0	33.7130	0	26.604	0	175.614	0	-1e10	8	-1e10	8	-1E+10	1	-1E+10	1	-1E+10	1	-1E+10	1	-1E+10	1	-1E+10	1
4902554	57	C	09/02/2022	18:07	-133.699	49.449	0	178.00	0	5.4470	0	33.7140	0	26.606	0	176.407	0	-1e10	8	-1e10	8	-1E+10	1	-1E+10	1	-1E+10	1	-1E+10	1	-1E+10	1	-1E+10	1
4902554	57	C	09/02/2022	18:07	-133.699	49.449	0	178.90	0	5.4440	0	33.7150	0	26.607	0	177.298	0	-1e10	8	-1e10	8	-1E+10	1	-1E+10	1	-1E+10	1	-1E+10	1	-1E+10	1	-1E+10	1
4902554	57	C	09/02/2022	18:07	-133.699	49.449	0	179.80	0	5.4330	0	33.7170	0	26.610	0	178.190	0	-1e10	8	-1e10	8	-1E+10	1	-1E+10	1	-1E+10	1	-1E+10	1	-1E+10	1	-1E+10	1
4902554	57	C	09/02/2022	18:07	-133.699	49.449	0	180.60	0	5.4280	0	33.7180	0	26.611	0	178.982	0	-1e10	8	-1e10	8	-1E+10	1	-1E+10	1	-1E+10	1	-1E+10	1	-1E+10	1	-1E+10	1
4902554	57	C	09/02/2022	18:07	-133.699	49.449	0	181.90	0	5.4150	0	33.7200	0	26.614	0	180.270	0	-1e10	8	-1e10	8	-1E+10	1	-1E+10	1	-1E+10	1	-1E+10	1	-1E+10	1	-1E+10	1
4902554	57	C	09/02/2022	18:07	-133.699	49.449	0	183.20	0	5.4080	0	33.7210	0	26.616	0	181.558	0	-1e10	8	-1e10	8	-1E+10	1	-1E+10	1	-1E+10	1	-1E+10	1	-1E+10	1	-1E+10	1
4902554	57	C	09/02/2022	18:07	-133.699	49.449	0	184.10	0	5.4060	0	33.7220	0	26.617	0	182.450	0	-1e10	8	-1e10	8	-1E+10	1	-1E+10	1	-1E+10	1	-1E+10	1	-1E+10	1	-1E+10	1
4902554	57	C	09/02/2022	18:07	-133.699	49.449	0	184.90	0	5.4010	0	33.7220	0	26.618	0	183.242	0	-1e10	8	-1e10	8	-1E+10	1	-1E+10	1	-1E+10	1	-1E+10	1	-1E+10	1	-1E+10	1
4902554	57	C	09/02/2022	18:07	-133.699	49.449	0	185.80	0	5.3960	0	33.7230	0	26.619	0	184.134	0	-1e10	8	-1e10	8	-1E+10	1	-1E+10	1	-1E+10	1	-1E+10	1	-1E+10	1	-1E+10	1
4902554	57	C	09/02/2022	18:07	-133.699	49.449	0	186.60	0	5.3830	0	33.7270	0	26.624	0	184.926	0	-1e10	8	-1e10	8	-1E+10	1	-1E+10	1	-1E+10	1	-1E+10	1	-1E+10	1	-1E+10	1
4902554	57	C	09/02/2022	18:07	-133.699	49.449	0	187.90	0	5.3530	0	33.7320	0	26.631	0	186.214	0	-1e10	8	-1e10	8	-1E+10	1	-1E+10	1	-1E+10	1	-1E+10	1	-1E+10	1	-1E+10	1
4902554	57	C	09/02/2022	18:07	-133.699	49.449	0	189.20	0	5.3490	0	33.7320	0	26.632	0	187.502	0	-1e10	8	-1e10	8	-1E+10	1	-1E+10	1	-1E+10	1	-1E+10	1	-1E+10	1	-1E+10	1
4902554	57	C	09/02/2022	18:07	-133.699	49.449	0	190.00	0	5.3490	0	33.7310	0	26.631	0	188.294	0	-1e10	8	-1e10	8	-1E+10	1	-1E+10	1	-1E+10	1	-1E+10	1	-1E+10	1	-1E+10	1
4902554	57	C	09/02/2022	18:07	-133.699	49.449	0	190.90	0	5.3470	0	33.7320	0	26.632	0	189.185	0	-1e10	8	-1e10	8	-1E+10	1	-1E+10	1	-1E+10	1	-1E+10	1	-1E+10	1	-1E+10	1
4902554	57	C	09/02/2022	18:07	-133.699	49.449	0	191.80	0	5.3430	0	33.7310	0	26.632	0	190.077	0	-1e10	8	-1e10	8	-1E+10	1	-1E+10	1	-1E+10	1	-1E+10	1	-1E+10	1	-1E+10	1
4902554	57	C	09/02/2022	18:07	-133.699	49.449	0	192.60	0	5.3370	0	33.7330	0	26.634	0	190.869	0	-1e10	8	-1e10	8	-1E+10	1	-1E+10	1	-1E+10	1	-1E+10	1	-1E+10	1	-1E+10	1
4902554	57	C	09/02/2022	18:07	-133.699	49.449	0	193.90	0	5.3360	0	33.7320	0	26.633	0	192.157	0	-1e10	8	-1e10	8	-1E+10	1	-1E+10	1	-1E+10	1	-1E+10	1	-1E+10	1	-1E+10	1
4902554	57	C	09/02/2022	18:07	-133.699	49.449	0	195.20	0	5.3290	0	33.7320	0	26.634	0	193.445	0	-1e10	8	-1e10	8	-1E+10	1	-1E+10	1	-1E+10	1	-1E+10	1	-1E+10	1	-1E+10	1
4902554	57	C	09/02/2022	18:07	-133.699	49.449	0	196.00	0	5.3130	0	33.7330	0	26.637	0	194.237	0	-1e10	8	-1e10	8	-1E+10	1	-1E+10	1	-1E+10	1	-1E+10	1	-1E+10	1	-1E+10	1
4902554	57	C	09/02/2022	18:07	-133.699	49.449	0	196.90	0	5.2990	0	33.7370	0	26.641	0	195.129	0	-1e10	8	-1e10	8	-1E+10	1	-1E+10	1	-1E+10	1	-1E+10	1	-1E+10	1	-1E+10	1
4902554	57	C	09/02/2022	18:07	-133.699	49.449	0	197.80	0	5.2910	0	33.7380	0	26.643	0	196.020	0	-1e10	8	-1e10	8	-1E+10	1	-1E+10	1	-1E+10	1	-1E+10	1	-1E+10	1	-1E+10	1
4902554	57	C	09/02/2022	18:07	-133.699	49.449	0	198.70	0	5.2830	0	33.7380	0	26.644	0	196.912	0	-1e10	8	-1e10	8	-1E+10	1	-1E+10	1	-1E+10	1	-1E+10	1	-1E+10	1	-1E+10	1
4902554	57	C	09/02/2022	18:07	-133.699	49.449	0	200.00	0	5.2760	0	33.7390	0	26.646	0	198.199	0	-1e10	8	-1e10	8	-1E+10	1	-1E+10	1	-1E+10	1	-1E+10	1	-1E+10	1	-1E+10	1
4902554	57	C	09/02/2022	18:07	-133.699	49.449	0	201.30	0	5.2520	0	33.7400	0	26.649	0	199.487	0	-1e10	8	-1e10	8	-1E+10	1	-1E+10	1	-1E+10	1	-1E+10	1	-1E+10	1	-1E+10	1
4902554	57	C	09/02/2022	18:07	-133.699	49.449	0	202.20	0	5.2480	0	33.7400	0	26.650	0	200.379	0	-1e10	8	-1e10	8	-1E+10	1	-1E+10	1	-1E+10	1	-1E+10	1	-1E+10	1	-1E+10	1
4902554	57	C	09/02/2022	18:07	-133.699	49.449	0	203.00	0	5.2380	0	33.7420	0	26.653	0	201.171	0	-1e10	8	-1e10	8	-1E+10	1	-1E+10	1	-1E+10	1	-1E+10	1	-1E+10	1	-1E+10	1
4902554	57	C	09/02/2022	18:07	-133.699	49.449	0	203.90	0	5.2260	0	33.7430	0	26.655	0	202.062	0	-1e10	8	-1e10	8	-1E+10	1	-1E+10	1	-1E+10	1	-1E+10	1	-1E+10	1	-1E+10	1
4902554	57	C	09/02/2022	18:07	-133.699	49.449	0	204.80	0	5.2150	0	33.7420	0	26.655	0	202.954	0	-1e10	8	-1e10	8	-1E+10	1	-1E+10	1	-1E+10	1	-1E+10	1	-1E+10	1	-1E+10	1
4902554	57	C	09/02/2022	18:07	-133.699	49.449	0	205.70	0	5.1970	0	33.7460	0	26.660	0	203.845	0	-1e10	8	-1e10	8	-1E+10	1	-1E+10	1	-1E+10	1	-1E+10	1	-1E+10	1	-1E+10	1
4902554	57	C	09/02/2022	18:07	-133.699	49.449	0	206.90	0	5.1690	0	33.7480	0	26.665	0	205.034	0	-1e10	8	-1e10	8	-1E+10	1	-1E+10	1	-1E+10	1	-1E+10	1	-1E+10	1	-1E+10	1
4902554	57	C	09/02/2022	18:07	-133.699	49.449	0	208.30	0	5.1520	0	33.7470	0	26.666	0	206.421	0	-1e10	8	-1e10	8	-1E+10	1	-1E+10	1	-1E+10	1	-1E+10	1	-1E+10	1	-1E+10	1
4902554	57	C	09/02/2022	18:07	-133.699	49.449	0	209.20	0	5.1440	0	33.7480	0	26.668	0	207.312	0	-1e10	8	-1e10	8	-1E+10	1	-1E+10	1	-1E+10	1	-1E+10	1	-1E+10	1	-1E+10	1
4902554	57	C	09/02/2022	18:07	-133.699	49.449	0	210.00	0	5.1350	0	33.7490	0	26.670	0	208.104	0	-1e10	8	-1e10	8	-1E+10	1	-1E+10	1	-1E+10	1	-1E+10	1	-1E+10	1	-1E+10	1
4902554	57	C	09/02/2022	18:07	-133.699	49.449	0	210.90	0	5.1340	0	33.7490	0	26.670	0	208.996	0	-1e10	8	-1e10	8	-1E+10	1	-1E+10	1	-1E+10	1	-1E+10	1	-1E+10	1	-1E+10	1
4902554	57	C	09/02/2022	18:07	-133.699	49.449	0	211.70	0	5.1330	0	33.7480	0	26.669	0	209.788	0	-1e10	8	-1e10	8	-1E+10	1	-1E+10	1	-1E+10	1	-1E+10	1	-1E+10	1	-1E+10	1
4902554	57	C	09/02/2022	18:07	-133.699	49.449	0	212.60	0	5.1230	0	33.7520	0	26.674	0	210.680	0	-1e10	8	-1e10	8	-1E+10	1	-1E+10	1	-1E+10	1	-1E+10	1	-1E+10	1	-1E+10	1
4902554	57	C	09/02/2022	18:07	-133.699	49.449	0	213.90	0	5.0940	0	33.7550	0	26.680	0	211.967	0	-1e10	8	-1e10	8	-1E+10	1	-1E+10	1	-1E+10	1	-1E+10	1	-1E+10	1	-1E+10	1
4902554	57	C	09/02/2022	18:07	-133.699	49.449	0	215.20	0	5.0870	0	33.7540	0	26.680	0	213.255	0	-1e10	8	-1e10	8	-1E+10	1	-1E+10	1	-1E+10	1	-1E+10	1	-1E+10	1	-1E+10	1
4902554	57	C	09/02/2022	18:07	-133.699	49.449	0	216.10	0	5.0810	0	33.7550	0	26.681	0	214.146	0	-1e10	8	-1e10	8	-1E+10	1	-1E+10	1	-1E+10	1	-1E+10	1	-1E+10	1	-1E+10	1
4902554	57	C	09/02/2022	18:07	-133.699	49.449	0	217.00	0	5.0790	0	33.7540	0	26.680	0	215.038	0	-1e10	8	-1e10	8	-1E+10	1	-1E+10	1	-1E+10	1	-1E+10	1	-1E+10	1	-1E+10	1
4902554	57	C	09/02/2022	18:07	-133.699	49.449	0	217.90	0	5.0700	0	33.7550	0	26.682	0	215.929	0	-1e10	8	-1e10	8	-1E+10	1	-1E+10	1	-1E+10	1	-1E+10	1	-1E+10	1	-1E+10	1
4902554	57	C	09/02/2022	18:07	-133.699	49.449	0	218.70	0	5.0600	0	33.7570	0	26.685	0	216.721	0	-1e10	8	-1e10	8	-1E+10	1	-1E+10	1	-1E+10	1	-1E+10	1	-1E+10	1	-1E+10	1
4902554	57	C	09/02/2022	18:07	-133.699	49.449	0	219.60	0	5.0560	0	33.7570	0	26.685	0	217.613	0	-1e10	8	-1e10	8	-1E+10	1	-1E+10	1	-1E+10	1	-1E+10	1	-1E+10	1	-1E+10	1
4902554	57	C	09/02/2022	18:07	-133.699	49.449	0	220.90	0	5.0530	0	33.7570	0	26.686	0	218.900	0	-1e10	8	-1e10	8	-1E+10	1	-1E+10	1	-1E+10	1	-1E+10	1	-1E+10	1	-1E+10	1
4902554	57	C	09/02/2022	18:07	-133.699	49.449	0	222.20	0	5.0520	0	33.7580	0	26.687	0	220.188	0	-1e10	8	-1e10	8	-1E+10	1	-1E+10	1	-1E+10	1	-1E+10	1	-1E+10	1	-1E+10	1
4902554	57	C	09/02/2022	18:07	-133.699	49.449	0	223.10	0	5.0510	0	33.7580	0	26.687	0	221.079	0	-1e10	8	-1e10	8	-1E+10	1	-1E+10	1	-1E+10	1	-1E+10	1	-1E+10	1	-1E+10	1
4902554	57	C	09/02/2022	18:07	-133.699	49.449	0	223.90	0	5.0490	0	33.7590	0	26.688	0	221.871	0	-1e10	8	-1e10	8	-1E+10	1	-1E+10	1	-1E+10	1	-1E+10	1	-1E+10	1	-1E+10	1
4902554	57	C	09/02/2022	18:07	-133.699	49.449	0	224.80	0	5.0380	0	33.7610	0	26.691	0	222.763	0	-1e10	8	-1e10	8	-1E+10	1	-1E+10	1	-1E+10	1	-1E+10	1	-1E+10	1	-1E+10	1
4902554	57	C	09/02/2022	18:07	-133.699	49.449	0	225.70	0	5.0280	0	33.7630	0	26.693	0	223.654	0	-1e10	8	-1e10	8	-1E+10	1	-1E+10	1	-1E+10	1	-1E+10	1	-1E+10	1	-1E+10	1
4902554	57	C	09/02/2022	18:07	-133.699	49.449	0	226.90	0	5.0180	0	33.7650	0	26.696	0	224.843	0	-1e10	8	-1e10	8	-1E+10	1	-1E+10	1	-1E+10	1	-1E+10	1	-1E+10	1	-1E+10	1
4902554	57	C	09/02/2022	18:07	-133.699	49.449	0	228.20	0	5.0050	0	33.7670	0	26.699	0	226.130	0	-1e10	8	-1e10	8	-1E+10	1	-1E+10	1	-1E+10	1	-1E+10	1	-1E+10	1	-1E+10	1
4902554	57	C	09/02/2022	18:07	-133.699	49.449	0	229.10	0	4.9830	0	33.7700	0	26.704	0	227.021	0	-1e10	8	-1e10	8	-1E+10	1	-1E+10	1	-1E+10	1	-1E+10	1	-1E+10	1	-1E+10	1
4902554	57	C	09/02/2022	18:07	-133.699	49.449	0	230.00	0	4.9790	0	33.7700	0	26.705	0	227.913	0	-1e10	8	-1e10	8	-1E+10	1	-1E+10	1	-1E+10	1	-1E+10	1	-1E+10	1	-1E+10	1
4902554	57	C	09/02/2022	18:07	-133.699	49.449	0	230.90	0	4.9760	0	33.7700	0	26.705	0	228.804	0	-1e10	8	-1e10	8	-1E+10	1	-1E+10	1	-1E+10	1	-1E+10	1	-1E+10	1	-1E+10	1
4902554	57	C	09/02/2022	18:07	-133.699	49.449	0	231.70	0	4.9720	0	33.7700	0	26.705	0	229.596	0	-1e10	8	-1e10	8	-1E+10	1	-1E+10	1	-1E+10	1	-1E+10	1	-1E+10	1	-1E+10	1
4902554	57	C	09/02/2022	18:07	-133.699	49.449	0	232.60	0	4.9690	0	33.7700	0	26.706	0	230.488	0	-1e10	8	-1e10	8	-1E+10	1	-1E+10	1	-1E+10	1	-1E+10	1	-1E+10	1	-1E+10	1
4902554	57	C	09/02/2022	18:07	-133.699	49.449	0	233.90	0	4.9640	0	33.7700	0	26.706	0	231.775	0	-1e10	8	-1e10	8	-1E+10	1	-1E+10	1	-1E+10	1	-1E+10	1	-1E+10	1	-1E+10	1
4902554	57	C	09/02/2022	18:07	-133.699	49.449	0	235.30	0	4.9490	0	33.7720	0	26.710	0	233.162	0	-1e10	8	-1e10	8	-1E+10	1	-1E+10	1	-1E+10	1	-1E+10	1	-1E+10	1	-1E+10	1
4902554	57	C	09/02/2022	18:07	-133.699	49.449	0	236.20	0	4.9470	0	33.7720	0	26.710	0	234.053	0	-1e10	8	-1e10	8	-1E+10	1	-1E+10	1	-1E+10	1	-1E+10	1	-1E+10	1	-1E+10	1
4902554	57	C	09/02/2022	18:07	-133.699	49.449	0	237.10	0	4.9390	0	33.7730	0	26.712	0	234.944	0	-1e10	8	-1e10	8	-1E+10	1	-1E+10	1	-1E+10	1	-1E+10	1	-1E+10	1	-1E+10	1
4902554	57	C	09/02/2022	18:07	-133.699	49.449	0	238.00	0	4.9330	0	33.7740	0	26.713	0	235.836	0	-1e10	8	-1e10	8	-1E+10	1	-1E+10	1	-1E+10	1	-1E+10	1	-1E+10	1	-1E+10	1
4902554	57	C	09/02/2022	18:07	-133.699	49.449	0	239.00	0	4.9290	0	33.7750	0	26.714	0	236.826	0	-1e10	8	-1e10	8	-1E+10	1	-1E+10	1	-1E+10	1	-1E+10	1	-1E+10	1	-1E+10	1
4902554	57	C	09/02/2022	18:07	-133.699	49.449	0	239.90	0	4.9210	0	33.7760	0	26.716	0	237.717	0	-1e10	8	-1e10	8	-1E+10	1	-1E+10	1	-1E+10	1	-1E+10	1	-1E+10	1	-1E+10	1
4902554	57	C	09/02/2022	18:07	-133.699	49.449	0	240.80	0	4.9130	0	33.7770	0	26.718	0	238.609	0	-1e10	8	-1e10	8	-1E+10	1	-1E+10	1	-1E+10	1	-1E+10	1	-1E+10	1	-1E+10	1
4902554	57	C	09/02/2022	18:07	-133.699	49.449	0	241.80	0	4.9100	0	33.7770	0	26.718	0	239.599	0	-1e10	8	-1e10	8	-1E+10	1	-1E+10	1	-1E+10	1	-1E+10	1	-1E+10	1	-1E+10	1
4902554	57	C	09/02/2022	18:07	-133.699	49.449	0	242.70	0	4.9040	0	33.7780	0	26.719	0	240.490	0	-1e10	8	-1e10	8	-1E+10	1	-1E+10	1	-1E+10	1	-1E+10	1	-1E+10	1	-1E+10	1
4902554	57	C	09/02/2022	18:07	-133.699	49.449	0	243.70	0	4.8950	0	33.7790	0	26.721	0	241.480	0	-1e10	8	-1e10	8	-1E+10	1	-1E+10	1	-1E+10	1	-1E+10	1	-1E+10	1	-1E+10	1
4902554	57	C	09/02/2022	18:07	-133.699	49.449	0	244.60	0	4.8840	0	33.7830	0	26.726	0	242.372	0	-1e10	8	-1e10	8	-1E+10	1	-1E+10	1	-1E+10	1	-1E+10	1	-1E+10	1	-1E+10	1
4902554	57	C	09/02/2022	18:07	-133.699	49.449	0	245.60	0	4.8630	0	33.7870	0	26.731	0	243.362	0	-1e10	8	-1e10	8	-1E+10	1	-1E+10	1	-1E+10	1	-1E+10	1	-1E+10	1	-1E+10	1
4902554	57	C	09/02/2022	18:07	-133.699	49.449	0	246.60	0	4.8600	0	33.7880	0	26.732	0	244.352	0	-1e10	8	-1e10	8	-1E+10	1	-1E+10	1	-1E+10	1	-1E+10	1	-1E+10	1	-1E+10	1
4902554	57	C	09/02/2022	18:07	-133.699	49.449	0	247.60	0	4.8560	0	33.7890	0	26.734	0	245.343	0	-1e10	8	-1e10	8	-1E+10	1	-1E+10	1	-1E+10	1	-1E+10	1	-1E+10	1	-1E+10	1
4902554	57	C	09/02/2022	18:07	-133.699	49.449	0	248.50	0	4.8520	0	33.7910	0	26.736	0	246.234	0	-1e10	8	-1e10	8	-1E+10	1	-1E+10	1	-1E+10	1	-1E+10	1	-1E+10	1	-1E+10	1
4902554	57	C	09/02/2022	18:07	-133.699	49.449	0	249.50	0	4.8480	0	33.7930	0	26.738	0	247.224	0	-1e10	8	-1e10	8	-1E+10	1	-1E+10	1	-1E+10	1	-1E+10	1	-1E+10	1	-1E+10	1
4902554	57	C	09/02/2022	18:07	-133.699	49.449	0	250.50	0	4.8360	0	33.7950	0	26.741	0	248.214	0	-1e10	8	-1e10	8	-1E+10	1	-1E+10	1	-1E+10	1	-1E+10	1	-1E+10	1	-1E+10	1
4902554	57	C	09/02/2022	18:07	-133.699	49.449	0	251.50	0	4.8270	0	33.7950	0	26.742	0	249.205	0	-1e10	8	-1e10	8	-1E+10	1	-1E+10	1	-1E+10	1	-1E+10	1	-1E+10	1	-1E+10	1
4902554	57	C	09/02/2022	18:07	-133.699	49.449	0	252.50	0	4.8100	0	33.8000	0	26.748	0	250.195	0	-1e10	8	-1e10	8	-1E+10	1	-1E+10	1	-1E+10	1	-1E+10	1	-1E+10	1	-1E+10	1
4902554	57	C	09/02/2022	18:07	-133.699	49.449	0	253.50	0	4.7850	0	33.8000	0	26.750	0	251.185	0	-1e10	8	-1e10	8	-1E+10	1	-1E+10	1	-1E+10	1	-1E+10	1	-1E+10	1	-1E+10	1
4902554	57	C	09/02/2022	18:07	-133.699	49.449	0	254.90	0	4.7820	0	33.8010	0	26.751	0	252.572	0	-1e10	8	-1e10	8	-1E+10	1	-1E+10	1	-1E+10	1	-1E+10	1	-1E+10	1	-1E+10	1
4902554	57	C	09/02/2022	18:07	-133.699	49.449	0	256.40	0	4.7840	0	33.8030	0	26.753	0	254.057	0	-1e10	8	-1e10	8	-1E+10	1	-1E+10	1	-1E+10	1	-1E+10	1	-1E+10	1	-1E+10	1
4902554	57	C	09/02/2022	18:07	-133.699	49.449	0	257.40	0	4.7870	0	33.8040	0	26.753	0	255.047	0	-1e10	8	-1e10	8	-1E+10	1	-1E+10	1	-1E+10	1	-1E+10	1	-1E+10	1	-1E+10	1
4902554	57	C	09/02/2022	18:07	-133.699	49.449	0	258.40	0	4.7700	0	33.8090	0	26.759	0	256.037	0	-1e10	8	-1e10	8	-1E+10	1	-1E+10	1	-1E+10	1	-1E+10	1	-1E+10	1	-1E+10	1
4902554	57	C	09/02/2022	18:07	-133.699	49.449	0	259.40	0	4.7510	0	33.8120	0	26.764	0	257.028	0	-1e10	8	-1e10	8	-1E+10	1	-1E+10	1	-1E+10	1	-1E+10	1	-1E+10	1	-1E+10	1
4902554	57	C	09/02/2022	18:07	-133.699	49.449	0	260.40	0	4.7430	0	33.8150	0	26.767	0	258.018	0	-1e10	8	-1e10	8	-1E+10	1	-1E+10	1	-1E+10	1	-1E+10	1	-1E+10	1	-1E+10	1
4902554	57	C	09/02/2022	18:07	-133.699	49.449	0	261.40	0	4.7320	0	33.8160	0	26.769	0	259.008	0	-1e10	8	-1e10	8	-1E+10	1	-1E+10	1	-1E+10	1	-1E+10	1	-1E+10	1	-1E+10	1
4902554	57	C	09/02/2022	18:07	-133.699	49.449	0	262.40	0	4.7310	0	33.8160	0	26.769	0	259.998	0	-1e10	8	-1e10	8	-1E+10	1	-1E+10	1	-1E+10	1	-1E+10	1	-1E+10	1	-1E+10	1
4902554	57	C	09/02/2022	18:07	-133.699	49.449	0	263.40	0	4.7270	0	33.8160	0	26.769	0	260.989	0	-1e10	8	-1e10	8	-1E+10	1	-1E+10	1	-1E+10	1	-1E+10	1	-1E+10	1	-1E+10	1
4902554	57	C	09/02/2022	18:07	-133.699	49.449	0	264.40	0	4.7080	0	33.8200	0	26.775	0	261.979	0	-1e10	8	-1e10	8	-1E+10	1	-1E+10	1	-1E+10	1	-1E+10	1	-1E+10	1	-1E+10	1
4902554	57	C	09/02/2022	18:07	-133.699	49.449	0	265.40	0	4.7030	0	33.8200	0	26.775	0	262.969	0	-1e10	8	-1e10	8	-1E+10	1	-1E+10	1	-1E+10	1	-1E+10	1	-1E+10	1	-1E+10	1
4902554	57	C	09/02/2022	18:07	-133.699	49.449	0	266.30	0	4.6940	0	33.8210	0	26.777	0	263.860	0	-1e10	8	-1e10	8	-1E+10	1	-1E+10	1	-1E+10	1	-1E+10	1	-1E+10	1	-1E+10	1
4902554	57	C	09/02/2022	18:07	-133.699	49.449	0	267.40	0	4.6830	0	33.8240	0	26.781	0	264.949	0	-1e10	8	-1e10	8	-1E+10	1	-1E+10	1	-1E+10	1	-1E+10	1	-1E+10	1	-1E+10	1
4902554	57	C	09/02/2022	18:07	-133.699	49.449	0	268.30	0	4.6780	0	33.8250	0	26.782	0	265.841	0	-1e10	8	-1e10	8	-1E+10	1	-1E+10	1	-1E+10	1	-1E+10	1	-1E+10	1	-1E+10	1
4902554	57	C	09/02/2022	18:07	-133.699	49.449	0	269.40	0	4.6760	0	33.8250	0	26.782	0	266.930	0	-1e10	8	-1e10	8	-1E+10	1	-1E+10	1	-1E+10	1	-1E+10	1	-1E+10	1	-1E+10	1
4902554	57	C	09/02/2022	18:07	-133.699	49.449	0	270.40	0	4.6750	0	33.8250	0	26.782	0	267.920	0	-1e10	8	-1e10	8	-1E+10	1	-1E+10	1	-1E+10	1	-1E+10	1	-1E+10	1	-1E+10	1
4902554	57	C	09/02/2022	18:07	-133.699	49.449	0	271.40	0	4.6680	0	33.8270	0	26.785	0	268.910	0	-1e10	8	-1e10	8	-1E+10	1	-1E+10	1	-1E+10	1	-1E+10	1	-1E+10	1	-1E+10	1
4902554	57	C	09/02/2022	18:07	-133.699	49.449	0	272.40	0	4.6600	0	33.8300	0	26.788	0	269.900	0	-1e10	8	-1e10	8	-1E+10	1	-1E+10	1	-1E+10	1	-1E+10	1	-1E+10	1	-1E+10	1
4902554	57	C	09/02/2022	18:07	-133.699	49.449	0	273.30	0	4.6550	0	33.8320	0	26.790	0	270.791	0	-1e10	8	-1e10	8	-1E+10	1	-1E+10	1	-1E+10	1	-1E+10	1	-1E+10	1	-1E+10	1
4902554	57	C	09/02/2022	18:07	-133.699	49.449	0	274.30	0	4.6540	0	33.8330	0	26.791	0	271.782	0	-1e10	8	-1e10	8	-1E+10	1	-1E+10	1	-1E+10	1	-1E+10	1	-1E+10	1	-1E+10	1
4902554	57	C	09/02/2022	18:07	-133.699	49.449	0	275.40	0	4.6520	0	33.8340	0	26.792	0	272.871	0	-1e10	8	-1e10	8	-1E+10	1	-1E+10	1	-1E+10	1	-1E+10	1	-1E+10	1	-1E+10	1
4902554	57	C	09/02/2022	18:07	-133.699	49.449	0	276.30	0	4.6500	0	33.8360	0	26.794	0	273.762	0	-1e10	8	-1e10	8	-1E+10	1	-1E+10	1	-1E+10	1	-1E+10	1	-1E+10	1	-1E+10	1
4902554	57	C	09/02/2022	18:07	-133.699	49.449	0	277.30	0	4.6450	0	33.8380	0	26.796	0	274.752	0	-1e10	8	-1e10	8	-1E+10	1	-1E+10	1	-1E+10	1	-1E+10	1	-1E+10	1	-1E+10	1
4902554	57	C	09/02/2022	18:07	-133.699	49.449	0	278.40	0	4.6320	0	33.8410	0	26.800	0	275.841	0	-1e10	8	-1e10	8	-1E+10	1	-1E+10	1	-1E+10	1	-1E+10	1	-1E+10	1	-1E+10	1
4902554	57	C	09/02/2022	18:07	-133.699	49.449	0	279.40	0	4.6250	0	33.8410	0	26.801	0	276.831	0	-1e10	8	-1e10	8	-1E+10	1	-1E+10	1	-1E+10	1	-1E+10	1	-1E+10	1	-1E+10	1
4902554	57	C	09/02/2022	18:07	-133.699	49.449	0	280.40	0	4.6170	0	33.8410	0	26.801	0	277.822	0	-1e10	8	-1e10	8	-1E+10	1	-1E+10	1	-1E+10	1	-1E+10	1	-1E+10	1	-1E+10	1
4902554	57	C	09/02/2022	18:07	-133.699	49.449	0	281.40	0	4.6120	0	33.8420	0	26.803	0	278.812	0	-1e10	8	-1e10	8	-1E+10	1	-1E+10	1	-1E+10	1	-1E+10	1	-1E+10	1	-1E+10	1
4902554	57	C	09/02/2022	18:07	-133.699	49.449	0	282.40	0	4.6090	0	33.8430	0	26.804	0	279.802	0	-1e10	8	-1e10	8	-1E+10	1	-1E+10	1	-1E+10	1	-1E+10	1	-1E+10	1	-1E+10	1
4902554	57	C	09/02/2022	18:07	-133.699	49.449	0	283.40	0	4.6060	0	33.8450	0	26.806	0	280.792	0	-1e10	8	-1e10	8	-1E+10	1	-1E+10	1	-1E+10	1	-1E+10	1	-1E+10	1	-1E+10	1
4902554	57	C	09/02/2022	18:07	-133.699	49.449	0	284.40	0	4.6000	0	33.8460	0	26.807	0	281.782	0	-1e10	8	-1e10	8	-1E+10	1	-1E+10	1	-1E+10	1	-1E+10	1	-1E+10	1	-1E+10	1
4902554	57	C	09/02/2022	18:07	-133.699	49.449	0	285.40	0	4.5960	0	33.8470	0	26.809	0	282.772	0	-1e10	8	-1e10	8	-1E+10	1	-1E+10	1	-1E+10	1	-1E+10	1	-1E+10	1	-1E+10	1
4902554	57	C	09/02/2022	18:07	-133.699	49.449	0	286.40	0	4.5930	0	33.8480	0	26.810	0	283.762	0	-1e10	8	-1e10	8	-1E+10	1	-1E+10	1	-1E+10	1	-1E+10	1	-1E+10	1	-1E+10	1
4902554	57	C	09/02/2022	18:07	-133.699	49.449	0	287.40	0	4.5910	0	33.8490	0	26.811	0	284.752	0	-1e10	8	-1e10	8	-1E+10	1	-1E+10	1	-1E+10	1	-1E+10	1	-1E+10	1	-1E+10	1
4902554	57	C	09/02/2022	18:07	-133.699	49.449	0	288.40	0	4.5870	0	33.8500	0	26.812	0	285.742	0	-1e10	8	-1e10	8	-1E+10	1	-1E+10	1	-1E+10	1	-1E+10	1	-1E+10	1	-1E+10	1
4902554	57	C	09/02/2022	18:07	-133.699	49.449	0	289.40	0	4.5660	0	33.8570	0	26.820	0	286.733	0	-1e10	8	-1e10	8	-1E+10	1	-1E+10	1	-1E+10	1	-1E+10	1	-1E+10	1	-1E+10	1
4902554	57	C	09/02/2022	18:07	-133.699	49.449	0	290.40	0	4.5620	0	33.8580	0	26.821	0	287.723	0	-1e10	8	-1e10	8	-1E+10	1	-1E+10	1	-1E+10	1	-1E+10	1	-1E+10	1	-1E+10	1
4902554	57	C	09/02/2022	18:07	-133.699	49.449	0	291.40	0	4.5600	0	33.8590	0	26.822	0	288.713	0	-1e10	8	-1e10	8	-1E+10	1	-1E+10	1	-1E+10	1	-1E+10	1	-1E+10	1	-1E+10	1
4902554	57	C	09/02/2022	18:07	-133.699	49.449	0	292.40	0	4.5570	0	33.8600	0	26.823	0	289.703	0	-1e10	8	-1e10	8	-1E+10	1	-1E+10	1	-1E+10	1	-1E+10	1	-1E+10	1	-1E+10	1
4902554	57	C	09/02/2022	18:07	-133.699	49.449	0	293.40	0	4.5560	0	33.8600	0	26.823	0	290.693	0	-1e10	8	-1e10	8	-1E+10	1	-1E+10	1	-1E+10	1	-1E+10	1	-1E+10	1	-1E+10	1
4902554	57	C	09/02/2022	18:07	-133.699	49.449	0	294.40	0	4.5550	0	33.8600	0	26.823	0	291.683	0	-1e10	8	-1e10	8	-1E+10	1	-1E+10	1	-1E+10	1	-1E+10	1	-1E+10	1	-1E+10	1
4902554	57	C	09/02/2022	18:07	-133.699	49.449	0	295.40	0	4.5520	0	33.8620	0	26.825	0	292.673	0	-1e10	8	-1e10	8	-1E+10	1	-1E+10	1	-1E+10	1	-1E+10	1	-1E+10	1	-1E+10	1
4902554	57	C	09/02/2022	18:07	-133.699	49.449	0	296.40	0	4.5490	0	33.8630	0	26.826	0	293.663	0	-1e10	8	-1e10	8	-1E+10	1	-1E+10	1	-1E+10	1	-1E+10	1	-1E+10	1	-1E+10	1
4902554	57	C	09/02/2022	18:07	-133.699	49.449	0	297.40	0	4.5480	0	33.8630	0	26.827	0	294.653	0	-1e10	8	-1e10	8	-1E+10	1	-1E+10	1	-1E+10	1	-1E+10	1	-1E+10	1	-1E+10	1
4902554	57	C	09/02/2022	18:07	-133.699	49.449	0	298.40	0	4.5440	0	33.8640	0	26.828	0	295.643	0	-1e10	8	-1e10	8	-1E+10	1	-1E+10	1	-1E+10	1	-1E+10	1	-1E+10	1	-1E+10	1
4902554	57	C	09/02/2022	18:07	-133.699	49.449	0	299.40	0	4.5390	0	33.8660	0	26.830	0	296.633	0	-1e10	8	-1e10	8	-1E+10	1	-1E+10	1	-1E+10	1	-1E+10	1	-1E+10	1	-1E+10	1
4902554	57	C	09/02/2022	18:07	-133.699	49.449	0	300.40	0	4.5290	0	33.8700	0	26.834	0	297.623	0	-1e10	8	-1e10	8	-1E+10	1	-1E+10	1	-1E+10	1	-1E+10	1	-1E+10	1	-1E+10	1
4902554	57	C	09/02/2022	18:07	-133.699	49.449	0	301.30	0	4.5270	0	33.8710	0	26.835	0	298.514	0	-1e10	8	-1e10	8	-1E+10	1	-1E+10	1	-1E+10	1	-1E+10	1	-1E+10	1	-1E+10	1
4902554	57	C	09/02/2022	18:07	-133.699	49.449	0	302.30	0	4.5270	0	33.8710	0	26.835	0	299.504	0	-1e10	8	-1e10	8	-1E+10	1	-1E+10	1	-1E+10	1	-1E+10	1	-1E+10	1	-1E+10	1
4902554	57	C	09/02/2022	18:07	-133.699	49.449	0	303.30	0	4.5260	0	33.8710	0	26.835	0	300.494	0	-1e10	8	-1e10	8	-1E+10	1	-1E+10	1	-1E+10	1	-1E+10	1	-1E+10	1	-1E+10	1
4902554	57	C	09/02/2022	18:07	-133.699	49.449	0	304.30	0	4.5260	0	33.8710	0	26.835	0	301.484	0	-1e10	8	-1e10	8	-1E+10	1	-1E+10	1	-1E+10	1	-1E+10	1	-1E+10	1	-1E+10	1
4902554	57	C	09/02/2022	18:07	-133.699	49.449	0	305.20	0	4.5260	0	33.8710	0	26.835	0	302.375	0	-1e10	8	-1e10	8	-1E+10	1	-1E+10	1	-1E+10	1	-1E+10	1	-1E+10	1	-1E+10	1
4902554	57	C	09/02/2022	18:07	-133.699	49.449	0	306.20	0	4.5180	0	33.8740	0	26.839	0	303.365	0	-1e10	8	-1e10	8	-1E+10	1	-1E+10	1	-1E+10	1	-1E+10	1	-1E+10	1	-1E+10	1
4902554	57	C	09/02/2022	18:07	-133.699	49.449	0	307.20	0	4.5140	0	33.8750	0	26.840	0	304.355	0	-1e10	8	-1e10	8	-1E+10	1	-1E+10	1	-1E+10	1	-1E+10	1	-1E+10	1	-1E+10	1
4902554	57	C	09/02/2022	18:07	-133.699	49.449	0	308.20	0	4.5100	0	33.8770	0	26.842	0	305.345	0	-1e10	8	-1e10	8	-1E+10	1	-1E+10	1	-1E+10	1	-1E+10	1	-1E+10	1	-1E+10	1
4902554	57	C	09/02/2022	18:07	-133.699	49.449	0	309.20	0	4.5080	0	33.8770	0	26.842	0	306.335	0	-1e10	8	-1e10	8	-1E+10	1	-1E+10	1	-1E+10	1	-1E+10	1	-1E+10	1	-1E+10	1
4902554	57	C	09/02/2022	18:07	-133.699	49.449	0	310.20	0	4.5080	0	33.8770	0	26.842	0	307.325	0	-1e10	8	-1e10	8	-1E+10	1	-1E+10	1	-1E+10	1	-1E+10	1	-1E+10	1	-1E+10	1
4902554	57	C	09/02/2022	18:07	-133.699	49.449	0	311.20	0	4.5050	0	33.8800	0	26.845	0	308.315	0	-1e10	8	-1e10	8	-1E+10	1	-1E+10	1	-1E+10	1	-1E+10	1	-1E+10	1	-1E+10	1
4902554	57	C	09/02/2022	18:07	-133.699	49.449	0	312.20	0	4.5040	0	33.8820	0	26.846	0	309.305	0	-1e10	8	-1e10	8	-1E+10	1	-1E+10	1	-1E+10	1	-1E+10	1	-1E+10	1	-1E+10	1
4902554	57	C	09/02/2022	18:07	-133.699	49.449	0	313.20	0	4.5050	0	33.8840	0	26.848	0	310.295	0	-1e10	8	-1e10	8	-1E+10	1	-1E+10	1	-1E+10	1	-1E+10	1	-1E+10	1	-1E+10	1
4902554	57	C	09/02/2022	18:07	-133.699	49.449	0	314.30	0	4.5050	0	33.8860	0	26.850	0	311.384	0	-1e10	8	-1e10	8	-1E+10	1	-1E+10	1	-1E+10	1	-1E+10	1	-1E+10	1	-1E+10	1
4902554	57	C	09/02/2022	18:07	-133.699	49.449	0	315.30	0	4.5070	0	33.8860	0	26.849	0	312.374	0	-1e10	8	-1e10	8	-1E+10	1	-1E+10	1	-1E+10	1	-1E+10	1	-1E+10	1	-1E+10	1
4902554	57	C	09/02/2022	18:07	-133.699	49.449	0	316.30	0	4.5080	0	33.8870	0	26.850	0	313.364	0	-1e10	8	-1e10	8	-1E+10	1	-1E+10	1	-1E+10	1	-1E+10	1	-1E+10	1	-1E+10	1
4902554	57	C	09/02/2022	18:07	-133.699	49.449	0	317.30	0	4.5070	0	33.8880	0	26.851	0	314.354	0	-1e10	8	-1e10	8	-1E+10	1	-1E+10	1	-1E+10	1	-1E+10	1	-1E+10	1	-1E+10	1
4902554	57	C	09/02/2022	18:07	-133.699	49.449	0	318.30	0	4.5050	0	33.8900	0	26.853	0	315.344	0	-1e10	8	-1e10	8	-1E+10	1	-1E+10	1	-1E+10	1	-1E+10	1	-1E+10	1	-1E+10	1
4902554	57	C	09/02/2022	18:07	-133.699	49.449	0	319.30	0	4.5030	0	33.8900	0	26.853	0	316.334	0	-1e10	8	-1e10	8	-1E+10	1	-1E+10	1	-1E+10	1	-1E+10	1	-1E+10	1	-1E+10	1
4902554	57	C	09/02/2022	18:07	-133.699	49.449	0	320.20	0	4.5010	0	33.8920	0	26.855	0	317.225	0	-1e10	8	-1e10	8	-1E+10	1	-1E+10	1	-1E+10	1	-1E+10	1	-1E+10	1	-1E+10	1
4902554	57	C	09/02/2022	18:07	-133.699	49.449	0	321.00	0	4.4980	0	33.8940	0	26.857	0	318.017	0	-1e10	8	-1e10	8	-1E+10	1	-1E+10	1	-1E+10	1	-1E+10	1	-1E+10	1	-1E+10	1
4902554	57	C	09/02/2022	18:07	-133.699	49.449	0	322.00	0	4.4960	0	33.8940	0	26.857	0	319.007	0	-1e10	8	-1e10	8	-1E+10	1	-1E+10	1	-1E+10	1	-1E+10	1	-1E+10	1	-1E+10	1
4902554	57	C	09/02/2022	18:07	-133.699	49.449	0	323.10	0	4.4920	0	33.8970	0	26.860	0	320.096	0	-1e10	8	-1e10	8	-1E+10	1	-1E+10	1	-1E+10	1	-1E+10	1	-1E+10	1	-1E+10	1
4902554	57	C	09/02/2022	18:07	-133.699	49.449	0	323.80	0	4.4890	0	33.8990	0	26.862	0	320.789	0	-1e10	8	-1e10	8	-1E+10	1	-1E+10	1	-1E+10	1	-1E+10	1	-1E+10	1	-1E+10	1
4902554	57	C	09/02/2022	18:07	-133.699	49.449	0	325.00	0	4.4820	0	33.9020	0	26.865	0	321.977	0	-1e10	8	-1e10	8	-1E+10	1	-1E+10	1	-1E+10	1	-1E+10	1	-1E+10	1	-1E+10	1
4902554	57	C	09/02/2022	18:07	-133.699	49.449	0	326.10	0	4.4720	0	33.9080	0	26.871	0	323.066	0	-1e10	8	-1e10	8	-1E+10	1	-1E+10	1	-1E+10	1	-1E+10	1	-1E+10	1	-1E+10	1
4902554	57	C	09/02/2022	18:07	-133.699	49.449	0	326.90	0	4.4710	0	33.9090	0	26.872	0	323.858	0	-1e10	8	-1e10	8	-1E+10	1	-1E+10	1	-1E+10	1	-1E+10	1	-1E+10	1	-1E+10	1
4902554	57	C	09/02/2022	18:07	-133.699	49.449	0	327.80	0	4.4710	0	33.9080	0	26.871	0	324.749	0	-1e10	8	-1e10	8	-1E+10	1	-1E+10	1	-1E+10	1	-1E+10	1	-1E+10	1	-1E+10	1
4902554	57	C	09/02/2022	18:07	-133.699	49.449	0	329.00	0	4.4710	0	33.9080	0	26.871	0	325.936	0	-1e10	8	-1e10	8	-1E+10	1	-1E+10	1	-1E+10	1	-1E+10	1	-1E+10	1	-1E+10	1
4902554	57	C	09/02/2022	18:07	-133.699	49.449	0	330.20	0	4.4720	0	33.9070	0	26.870	0	327.124	0	-1e10	8	-1e10	8	-1E+10	1	-1E+10	1	-1E+10	1	-1E+10	1	-1E+10	1	-1E+10	1
4902554	57	C	09/02/2022	18:07	-133.699	49.449	0	331.00	0	4.4700	0	33.9080	0	26.871	0	327.916	0	-1e10	8	-1e10	8	-1E+10	1	-1E+10	1	-1E+10	1	-1E+10	1	-1E+10	1	-1E+10	1
4902554	57	C	09/02/2022	18:07	-133.699	49.449	0	331.80	0	4.4670	0	33.9100	0	26.873	0	328.708	0	-1e10	8	-1e10	8	-1E+10	1	-1E+10	1	-1E+10	1	-1E+10	1	-1E+10	1	-1E+10	1
4902554	57	C	09/02/2022	18:07	-133.699	49.449	0	332.70	0	4.4630	0	33.9110	0	26.874	0	329.599	0	-1e10	8	-1e10	8	-1E+10	1	-1E+10	1	-1E+10	1	-1E+10	1	-1E+10	1	-1E+10	1
4902554	57	C	09/02/2022	18:07	-133.699	49.449	0	333.90	0	4.4570	0	33.9120	0	26.876	0	330.787	0	-1e10	8	-1e10	8	-1E+10	1	-1E+10	1	-1E+10	1	-1E+10	1	-1E+10	1	-1E+10	1
4902554	57	C	09/02/2022	18:07	-133.699	49.449	0	335.20	0	4.4580	0	33.9130	0	26.876	0	332.074	0	-1e10	8	-1e10	8	-1E+10	1	-1E+10	1	-1E+10	1	-1E+10	1	-1E+10	1	-1E+10	1
4902554	57	C	09/02/2022	18:07	-133.699	49.449	0	336.00	0	4.4580	0	33.9130	0	26.876	0	332.866	0	-1e10	8	-1e10	8	-1E+10	1	-1E+10	1	-1E+10	1	-1E+10	1	-1E+10	1	-1E+10	1
4902554	57	C	09/02/2022	18:07	-133.699	49.449	0	336.90	0	4.4570	0	33.9130	0	26.876	0	333.757	0	-1e10	8	-1e10	8	-1E+10	1	-1E+10	1	-1E+10	1	-1E+10	1	-1E+10	1	-1E+10	1
4902554	57	C	09/02/2022	18:07	-133.699	49.449	0	337.70	0	4.4550	0	33.9150	0	26.878	0	334.548	0	-1e10	8	-1e10	8	-1E+10	1	-1E+10	1	-1E+10	1	-1E+10	1	-1E+10	1	-1E+10	1
4902554	57	C	09/02/2022	18:07	-133.699	49.449	0	338.60	0	4.4560	0	33.9160	0	26.879	0	335.439	0	-1e10	8	-1e10	8	-1E+10	1	-1E+10	1	-1E+10	1	-1E+10	1	-1E+10	1	-1E+10	1
4902554	57	C	09/02/2022	18:07	-133.699	49.449	0	339.90	0	4.4490	0	33.9190	0	26.882	0	336.726	0	-1e10	8	-1e10	8	-1E+10	1	-1E+10	1	-1E+10	1	-1E+10	1	-1E+10	1	-1E+10	1
4902554	57	C	09/02/2022	18:07	-133.699	49.449	0	341.20	0	4.4480	0	33.9190	0	26.882	0	338.013	0	-1e10	8	-1e10	8	-1E+10	1	-1E+10	1	-1E+10	1	-1E+10	1	-1E+10	1	-1E+10	1
4902554	57	C	09/02/2022	18:07	-133.699	49.449	0	342.10	0	4.4420	0	33.9210	0	26.884	0	338.904	0	-1e10	8	-1e10	8	-1E+10	1	-1E+10	1	-1E+10	1	-1E+10	1	-1E+10	1	-1E+10	1
4902554	57	C	09/02/2022	18:07	-133.699	49.449	0	343.00	0	4.4390	0	33.9220	0	26.885	0	339.795	0	-1e10	8	-1e10	8	-1E+10	1	-1E+10	1	-1E+10	1	-1E+10	1	-1E+10	1	-1E+10	1
4902554	57	C	09/02/2022	18:07	-133.699	49.449	0	343.80	0	4.4360	0	33.9230	0	26.887	0	340.586	0	-1e10	8	-1e10	8	-1E+10	1	-1E+10	1	-1E+10	1	-1E+10	1	-1E+10	1	-1E+10	1
4902554	57	C	09/02/2022	18:07	-133.699	49.449	0	344.80	0	4.4330	0	33.9250	0	26.889	0	341.576	0	-1e10	8	-1e10	8	-1E+10	1	-1E+10	1	-1E+10	1	-1E+10	1	-1E+10	1	-1E+10	1
4902554	57	C	09/02/2022	18:07	-133.699	49.449	0	345.70	0	4.4310	0	33.9250	0	26.889	0	342.467	0	-1e10	8	-1e10	8	-1E+10	1	-1E+10	1	-1E+10	1	-1E+10	1	-1E+10	1	-1E+10	1
4902554	57	C	09/02/2022	18:07	-133.699	49.449	0	346.60	0	4.4290	0	33.9260	0	26.890	0	343.358	0	-1e10	8	-1e10	8	-1E+10	1	-1E+10	1	-1E+10	1	-1E+10	1	-1E+10	1	-1E+10	1
4902554	57	C	09/02/2022	18:07	-133.699	49.449	0	347.90	0	4.4250	0	33.9270	0	26.891	0	344.645	0	-1e10	8	-1e10	8	-1E+10	1	-1E+10	1	-1E+10	1	-1E+10	1	-1E+10	1	-1E+10	1
4902554	57	C	09/02/2022	18:07	-133.699	49.449	0	349.30	0	4.4240	0	33.9270	0	26.891	0	346.030	0	-1e10	8	-1e10	8	-1E+10	1	-1E+10	1	-1E+10	1	-1E+10	1	-1E+10	1	-1E+10	1
4902554	57	C	09/02/2022	18:07	-133.699	49.449	0	350.20	0	4.4230	0	33.9280	0	26.892	0	346.921	0	-1e10	8	-1e10	8	-1E+10	1	-1E+10	1	-1E+10	1	-1E+10	1	-1E+10	1	-1E+10	1
4902554	57	C	09/02/2022	18:07	-133.699	49.449	0	352.90	0	4.4180	0	33.9320	0	26.896	0	349.594	0	-1e10	8	-1e10	8	-1E+10	1	-1E+10	1	-1E+10	1	-1E+10	1	-1E+10	1	-1E+10	1
4902554	57	C	09/02/2022	18:07	-133.699	49.449	0	358.00	0	4.4060	0	33.9390	0	26.903	0	354.642	0	-1e10	8	-1e10	8	-1E+10	1	-1E+10	1	-1E+10	1	-1E+10	1	-1E+10	1	-1E+10	1
4902554	57	C	09/02/2022	18:07	-133.699	49.449	0	363.10	0	4.4010	0	33.9460	0	26.909	0	359.689	0	-1e10	8	-1e10	8	-1E+10	1	-1E+10	1	-1E+10	1	-1E+10	1	-1E+10	1	-1E+10	1
4902554	57	C	09/02/2022	18:07	-133.699	49.449	0	367.80	0	4.3970	0	33.9500	0	26.912	0	364.341	0	-1e10	8	-1e10	8	-1E+10	1	-1E+10	1	-1E+10	1	-1E+10	1	-1E+10	1	-1E+10	1
4902554	57	C	09/02/2022	18:07	-133.699	49.449	0	373.00	0	4.3890	0	33.9540	0	26.916	0	369.488	0	-1e10	8	-1e10	8	-1E+10	1	-1E+10	1	-1E+10	1	-1E+10	1	-1E+10	1	-1E+10	1
4902554	57	C	09/02/2022	18:07	-133.699	49.449	0	378.30	0	4.3780	0	33.9590	0	26.922	0	374.733	0	-1e10	8	-1e10	8	-1E+10	1	-1E+10	1	-1E+10	1	-1E+10	1	-1E+10	1	-1E+10	1
4902554	57	C	09/02/2022	18:07	-133.699	49.449	0	383.00	0	4.3750	0	33.9620	0	26.924	0	379.384	0	-1e10	8	-1e10	8	-1E+10	1	-1E+10	1	-1E+10	1	-1E+10	1	-1E+10	1	-1E+10	1
4902554	57	C	09/02/2022	18:07	-133.699	49.449	0	387.80	0	4.3690	0	33.9670	0	26.929	0	384.134	0	-1e10	8	-1e10	8	-1E+10	1	-1E+10	1	-1E+10	1	-1E+10	1	-1E+10	1	-1E+10	1
4902554	57	C	09/02/2022	18:07	-133.699	49.449	0	392.60	0	4.3630	0	33.9710	0	26.933	0	388.885	0	-1e10	8	-1e10	8	-1E+10	1	-1E+10	1	-1E+10	1	-1E+10	1	-1E+10	1	-1E+10	1
4902554	57	C	09/02/2022	18:07	-133.699	49.449	0	397.50	0	4.3610	0	33.9730	0	26.935	0	393.734	0	-1e10	8	-1e10	8	-1E+10	1	-1E+10	1	-1E+10	1	-1E+10	1	-1E+10	1	-1E+10	1
4902554	57	C	09/02/2022	18:07	-133.699	49.449	0	402.90	0	4.3610	0	33.9740	0	26.936	0	399.077	0	-1e10	8	-1e10	8	-1E+10	1	-1E+10	1	-1E+10	1	-1E+10	1	-1E+10	1	-1E+10	1
4902554	57	C	09/02/2022	18:07	-133.699	49.449	0	408.20	0	4.3520	0	33.9780	0	26.940	0	404.322	0	-1e10	8	-1e10	8	-1E+10	1	-1E+10	1	-1E+10	1	-1E+10	1	-1E+10	1	-1E+10	1
4902554	57	C	09/02/2022	18:07	-133.699	49.449	0	413.10	0	4.3420	0	33.9850	0	26.946	0	409.170	0	-1e10	8	-1e10	8	-1E+10	1	-1E+10	1	-1E+10	1	-1E+10	1	-1E+10	1	-1E+10	1
4902554	57	C	09/02/2022	18:07	-133.699	49.449	0	418.10	0	4.3350	0	33.9910	0	26.952	0	414.118	0	-1e10	8	-1e10	8	-1E+10	1	-1E+10	1	-1E+10	1	-1E+10	1	-1E+10	1	-1E+10	1
4902554	57	C	09/02/2022	18:07	-133.699	49.449	0	423.00	0	4.3310	0	33.9960	0	26.956	0	418.966	0	-1e10	8	-1e10	8	-1E+10	1	-1E+10	1	-1E+10	1	-1E+10	1	-1E+10	1	-1E+10	1
4902554	57	C	09/02/2022	18:07	-133.699	49.449	0	427.80	0	4.3270	0	34.0000	0	26.960	0	423.716	0	-1e10	8	-1e10	8	-1E+10	1	-1E+10	1	-1E+10	1	-1E+10	1	-1E+10	1	-1E+10	1
4902554	57	C	09/02/2022	18:07	-133.699	49.449	0	432.60	0	4.3180	0	34.0050	0	26.965	0	428.465	0	-1e10	8	-1e10	8	-1E+10	1	-1E+10	1	-1E+10	1	-1E+10	1	-1E+10	1	-1E+10	1
4902554	57	C	09/02/2022	18:07	-133.699	49.449	0	437.80	0	4.3050	0	34.0120	0	26.972	0	433.610	0	-1e10	8	-1e10	8	-1E+10	1	-1E+10	1	-1E+10	1	-1E+10	1	-1E+10	1	-1E+10	1
4902554	57	C	09/02/2022	18:07	-133.699	49.449	0	443.10	0	4.2950	0	34.0180	0	26.978	0	438.853	0	-1e10	8	-1e10	8	-1E+10	1	-1E+10	1	-1E+10	1	-1E+10	1	-1E+10	1	-1E+10	1
4902554	57	C	09/02/2022	18:07	-133.699	49.449	0	447.70	0	4.2830	0	34.0240	0	26.984	0	443.404	0	-1e10	8	-1e10	8	-1E+10	1	-1E+10	1	-1E+10	1	-1E+10	1	-1E+10	1	-1E+10	1
4902554	57	C	09/02/2022	18:07	-133.699	49.449	0	452.80	0	4.2720	0	34.0300	0	26.990	0	448.450	0	-1e10	8	-1e10	8	-1E+10	1	-1E+10	1	-1E+10	1	-1E+10	1	-1E+10	1	-1E+10	1
4902554	57	C	09/02/2022	18:07	-133.699	49.449	0	458.00	0	4.2610	0	34.0350	0	26.995	0	453.594	0	-1e10	8	-1e10	8	-1E+10	1	-1E+10	1	-1E+10	1	-1E+10	1	-1E+10	1	-1E+10	1
4902554	57	C	09/02/2022	18:07	-133.699	49.449	0	463.00	0	4.2520	0	34.0400	0	27.000	0	458.541	0	-1e10	8	-1e10	8	-1E+10	1	-1E+10	1	-1E+10	1	-1E+10	1	-1E+10	1	-1E+10	1
4902554	57	C	09/02/2022	18:07	-133.699	49.449	0	468.00	0	4.2410	0	34.0450	0	27.005	0	463.487	0	-1e10	8	-1e10	8	-1E+10	1	-1E+10	1	-1E+10	1	-1E+10	1	-1E+10	1	-1E+10	1
4902554	57	C	09/02/2022	18:07	-133.699	49.449	0	473.00	0	4.2290	0	34.0520	0	27.012	0	468.433	0	-1e10	8	-1e10	8	-1E+10	1	-1E+10	1	-1E+10	1	-1E+10	1	-1E+10	1	-1E+10	1
4902554	57	C	09/02/2022	18:07	-133.699	49.449	0	478.00	0	4.2210	0	34.0550	0	27.015	0	473.379	0	-1e10	8	-1e10	8	-1E+10	1	-1E+10	1	-1E+10	1	-1E+10	1	-1E+10	1	-1E+10	1
4902554	57	C	09/02/2022	18:07	-133.699	49.449	0	482.90	0	4.2100	0	34.0600	0	27.020	0	478.226	0	-1e10	8	-1e10	8	-1E+10	1	-1E+10	1	-1E+10	1	-1E+10	1	-1E+10	1	-1E+10	1
4902554	57	C	09/02/2022	18:07	-133.699	49.449	0	487.80	0	4.1960	0	34.0650	0	27.026	0	483.073	0	-1e10	8	-1e10	8	-1E+10	1	-1E+10	1	-1E+10	1	-1E+10	1	-1E+10	1	-1E+10	1
4902554	57	C	09/02/2022	18:07	-133.699	49.449	0	492.80	0	4.1790	0	34.0700	0	27.032	0	488.019	0	-1e10	8	-1e10	8	-1E+10	1	-1E+10	1	-1E+10	1	-1E+10	1	-1E+10	1	-1E+10	1
4902554	57	C	09/02/2022	18:07	-133.699	49.449	0	498.00	0	4.1690	0	34.0740	0	27.036	0	493.162	0	-1e10	8	-1e10	8	-1E+10	1	-1E+10	1	-1E+10	1	-1E+10	1	-1E+10	1	-1E+10	1
4902554	57	C	09/02/2022	18:07	-133.699	49.449	0	503.20	0	4.1580	0	34.0780	0	27.040	0	498.305	0	-1e10	8	-1e10	8	-1E+10	1	-1E+10	1	-1E+10	1	-1E+10	1	-1E+10	1	-1E+10	1
4902554	57	C	09/02/2022	18:07	-133.699	49.449	0	508.00	0	4.1450	0	34.0820	0	27.045	0	503.053	0	-1e10	8	-1e10	8	-1E+10	1	-1E+10	1	-1E+10	1	-1E+10	1	-1E+10	1	-1E+10	1
4902554	57	C	09/02/2022	18:07	-133.699	49.449	0	513.00	0	4.1370	0	34.0850	0	27.048	0	507.998	0	-1e10	8	-1e10	8	-1E+10	1	-1E+10	1	-1E+10	1	-1E+10	1	-1E+10	1	-1E+10	1
4902554	57	C	09/02/2022	18:07	-133.699	49.449	0	518.20	0	4.1330	0	34.0890	0	27.052	0	513.141	0	-1e10	8	-1e10	8	-1E+10	1	-1E+10	1	-1E+10	1	-1E+10	1	-1E+10	1	-1E+10	1
4902554	57	C	09/02/2022	18:07	-133.699	49.449	0	522.90	0	4.1230	0	34.0930	0	27.056	0	517.789	0	-1e10	8	-1e10	8	-1E+10	1	-1E+10	1	-1E+10	1	-1E+10	1	-1E+10	1	-1E+10	1
4902554	57	C	09/02/2022	18:07	-133.699	49.449	0	527.70	0	4.1100	0	34.0980	0	27.061	0	522.536	0	-1e10	8	-1e10	8	-1E+10	1	-1E+10	1	-1E+10	1	-1E+10	1	-1E+10	1	-1E+10	1
4902554	57	C	09/02/2022	18:07	-133.699	49.449	0	533.00	0	4.1000	0	34.1020	0	27.066	0	527.778	0	-1e10	8	-1e10	8	-1E+10	1	-1E+10	1	-1E+10	1	-1E+10	1	-1E+10	1	-1E+10	1
4902554	57	C	09/02/2022	18:07	-133.699	49.449	0	538.00	0	4.0930	0	34.1040	0	27.068	0	532.722	0	-1e10	8	-1e10	8	-1E+10	1	-1E+10	1	-1E+10	1	-1E+10	1	-1E+10	1	-1E+10	1
4902554	57	C	09/02/2022	18:07	-133.699	49.449	0	542.90	0	4.0830	0	34.1070	0	27.071	0	537.568	0	-1e10	8	-1e10	8	-1E+10	1	-1E+10	1	-1E+10	1	-1E+10	1	-1E+10	1	-1E+10	1
4902554	57	C	09/02/2022	18:07	-133.699	49.449	0	548.00	0	4.0690	0	34.1120	0	27.077	0	542.611	0	-1e10	8	-1e10	8	-1E+10	1	-1E+10	1	-1E+10	1	-1E+10	1	-1E+10	1	-1E+10	1
4902554	57	C	09/02/2022	18:07	-133.699	49.449	0	553.10	0	4.0590	0	34.1160	0	27.081	0	547.654	0	-1e10	8	-1e10	8	-1E+10	1	-1E+10	1	-1E+10	1	-1E+10	1	-1E+10	1	-1E+10	1
4902554	57	C	09/02/2022	18:07	-133.699	49.449	0	558.30	0	4.0480	0	34.1210	0	27.086	0	552.796	0	-1e10	8	-1e10	8	-1E+10	1	-1E+10	1	-1E+10	1	-1E+10	1	-1E+10	1	-1E+10	1
4902554	57	C	09/02/2022	18:07	-133.699	49.449	0	563.00	0	4.0400	0	34.1240	0	27.089	0	557.443	0	-1e10	8	-1e10	8	-1E+10	1	-1E+10	1	-1E+10	1	-1E+10	1	-1E+10	1	-1E+10	1
4902554	57	C	09/02/2022	18:07	-133.699	49.449	0	567.80	0	4.0320	0	34.1270	0	27.093	0	562.190	0	-1e10	8	-1e10	8	-1E+10	1	-1E+10	1	-1E+10	1	-1E+10	1	-1E+10	1	-1E+10	1
4902554	57	C	09/02/2022	18:07	-133.699	49.449	0	572.70	0	4.0240	0	34.1310	0	27.097	0	567.034	0	-1e10	8	-1e10	8	-1E+10	1	-1E+10	1	-1E+10	1	-1E+10	1	-1E+10	1	-1E+10	1
4902554	57	C	09/02/2022	18:07	-133.699	49.449	0	577.60	0	4.0120	0	34.1340	0	27.100	0	571.879	0	-1e10	8	-1e10	8	-1E+10	1	-1E+10	1	-1E+10	1	-1E+10	1	-1E+10	1	-1E+10	1
4902554	57	C	09/02/2022	18:07	-133.699	49.449	0	582.60	0	4.0020	0	34.1380	0	27.105	0	576.823	0	-1e10	8	-1e10	8	-1E+10	1	-1E+10	1	-1E+10	1	-1E+10	1	-1E+10	1	-1E+10	1
4902554	57	C	09/02/2022	18:07	-133.699	49.449	0	587.60	0	4.0000	0	34.1390	0	27.106	0	581.766	0	-1e10	8	-1e10	8	-1E+10	1	-1E+10	1	-1E+10	1	-1E+10	1	-1E+10	1	-1E+10	1
4902554	57	C	09/02/2022	18:07	-133.699	49.449	0	592.50	0	3.9950	0	34.1410	0	27.108	0	586.611	0	-1e10	8	-1e10	8	-1E+10	1	-1E+10	1	-1E+10	1	-1E+10	1	-1E+10	1	-1E+10	1
4902554	57	C	09/02/2022	18:07	-133.699	49.449	0	597.50	0	3.9880	0	34.1440	0	27.111	0	591.554	0	-1e10	8	-1e10	8	-1E+10	1	-1E+10	1	-1E+10	1	-1E+10	1	-1E+10	1	-1E+10	1
4902554	57	C	09/02/2022	18:07	-133.699	49.449	0	602.50	0	3.9790	0	34.1470	0	27.114	0	596.497	0	-1e10	8	-1e10	8	-1E+10	1	-1E+10	1	-1E+10	1	-1E+10	1	-1E+10	1	-1E+10	1
4902554	57	C	09/02/2022	18:07	-133.699	49.449	0	607.50	0	3.9640	0	34.1530	0	27.121	0	601.440	0	-1e10	8	-1e10	8	-1E+10	1	-1E+10	1	-1E+10	1	-1E+10	1	-1E+10	1	-1E+10	1
4902554	57	C	09/02/2022	18:07	-133.699	49.449	0	612.50	0	3.9540	0	34.1560	0	27.124	0	606.383	0	-1e10	8	-1e10	8	-1E+10	1	-1E+10	1	-1E+10	1	-1E+10	1	-1E+10	1	-1E+10	1
4902554	57	C	09/02/2022	18:07	-133.699	49.449	0	617.50	0	3.9500	0	34.1570	0	27.125	0	611.325	0	-1e10	8	-1e10	8	-1E+10	1	-1E+10	1	-1E+10	1	-1E+10	1	-1E+10	1	-1E+10	1
4902554	57	C	09/02/2022	18:07	-133.699	49.449	0	622.90	0	3.9450	0	34.1580	0	27.127	0	616.664	0	-1e10	8	-1e10	8	-1E+10	1	-1E+10	1	-1E+10	1	-1E+10	1	-1E+10	1	-1E+10	1
4902554	57	C	09/02/2022	18:07	-133.699	49.449	0	628.30	0	3.9430	0	34.1590	0	27.128	0	622.001	0	-1e10	8	-1e10	8	-1E+10	1	-1E+10	1	-1E+10	1	-1E+10	1	-1E+10	1	-1E+10	1
4902554	57	C	09/02/2022	18:07	-133.699	49.449	0	633.00	0	3.9330	0	34.1620	0	27.131	0	626.647	0	-1e10	8	-1e10	8	-1E+10	1	-1E+10	1	-1E+10	1	-1E+10	1	-1E+10	1	-1E+10	1
4902554	57	C	09/02/2022	18:07	-133.699	49.449	0	637.90	0	3.9210	0	34.1660	0	27.136	0	631.491	0	-1e10	8	-1e10	8	-1E+10	1	-1E+10	1	-1E+10	1	-1E+10	1	-1E+10	1	-1E+10	1
4902554	57	C	09/02/2022	18:07	-133.699	49.449	0	642.60	0	3.9110	0	34.1700	0	27.140	0	636.136	0	-1e10	8	-1e10	8	-1E+10	1	-1E+10	1	-1E+10	1	-1E+10	1	-1E+10	1	-1E+10	1
4902554	57	C	09/02/2022	18:07	-133.699	49.449	0	647.80	0	3.9040	0	34.1720	0	27.142	0	641.276	0	-1e10	8	-1e10	8	-1E+10	1	-1E+10	1	-1E+10	1	-1E+10	1	-1E+10	1	-1E+10	1
4902554	57	C	09/02/2022	18:07	-133.699	49.449	0	652.80	0	3.8870	0	34.1770	0	27.148	0	646.218	0	-1e10	8	-1e10	8	-1E+10	1	-1E+10	1	-1E+10	1	-1E+10	1	-1E+10	1	-1E+10	1
4902554	57	C	09/02/2022	18:07	-133.699	49.449	0	657.90	0	3.8750	0	34.1810	0	27.152	0	651.258	0	-1e10	8	-1e10	8	-1E+10	1	-1E+10	1	-1E+10	1	-1E+10	1	-1E+10	1	-1E+10	1
4902554	57	C	09/02/2022	18:07	-133.699	49.449	0	662.90	0	3.8640	0	34.1830	0	27.155	0	656.200	0	-1e10	8	-1e10	8	-1E+10	1	-1E+10	1	-1E+10	1	-1E+10	1	-1E+10	1	-1E+10	1
4902554	57	C	09/02/2022	18:07	-133.699	49.449	0	667.80	0	3.8490	0	34.1870	0	27.160	0	661.043	0	-1e10	8	-1e10	8	-1E+10	1	-1E+10	1	-1E+10	1	-1E+10	1	-1E+10	1	-1E+10	1
4902554	57	C	09/02/2022	18:07	-133.699	49.449	0	672.80	0	3.8300	0	34.1930	0	27.166	0	665.984	0	-1e10	8	-1e10	8	-1E+10	1	-1E+10	1	-1E+10	1	-1E+10	1	-1E+10	1	-1E+10	1
4902554	57	C	09/02/2022	18:07	-133.699	49.449	0	677.80	0	3.8110	0	34.1980	0	27.172	0	670.925	0	-1e10	8	-1e10	8	-1E+10	1	-1E+10	1	-1E+10	1	-1E+10	1	-1E+10	1	-1E+10	1
4902554	57	C	09/02/2022	18:07	-133.699	49.449	0	682.80	0	3.7890	0	34.2040	0	27.179	0	675.867	0	-1e10	8	-1e10	8	-1E+10	1	-1E+10	1	-1E+10	1	-1E+10	1	-1E+10	1	-1E+10	1
4902554	57	C	09/02/2022	18:07	-133.699	49.449	0	688.00	0	3.7730	0	34.2080	0	27.184	0	681.005	0	-1e10	8	-1e10	8	-1E+10	1	-1E+10	1	-1E+10	1	-1E+10	1	-1E+10	1	-1E+10	1
4902554	57	C	09/02/2022	18:07	-133.699	49.449	0	693.20	0	3.7560	0	34.2130	0	27.190	0	686.144	0	-1e10	8	-1e10	8	-1E+10	1	-1E+10	1	-1E+10	1	-1E+10	1	-1E+10	1	-1E+10	1
4902554	57	C	09/02/2022	18:07	-133.699	49.449	0	697.90	0	3.7400	0	34.2170	0	27.195	0	690.788	0	-1e10	8	-1e10	8	-1E+10	1	-1E+10	1	-1E+10	1	-1E+10	1	-1E+10	1	-1E+10	1
4902554	57	C	09/02/2022	18:07	-133.699	49.449	0	702.80	0	3.7270	0	34.2200	0	27.198	0	695.630	0	-1e10	8	-1e10	8	-1E+10	1	-1E+10	1	-1E+10	1	-1E+10	1	-1E+10	1	-1E+10	1
4902554	57	C	09/02/2022	18:07	-133.699	49.449	0	707.80	0	3.7050	0	34.2250	0	27.204	0	700.571	0	-1e10	8	-1e10	8	-1E+10	1	-1E+10	1	-1E+10	1	-1E+10	1	-1E+10	1	-1E+10	1
4902554	57	C	09/02/2022	18:07	-133.699	49.449	0	713.10	0	3.6830	0	34.2290	0	27.210	0	705.808	0	-1e10	8	-1e10	8	-1E+10	1	-1E+10	1	-1E+10	1	-1E+10	1	-1E+10	1	-1E+10	1
4902554	57	C	09/02/2022	18:07	-133.699	49.449	0	717.80	0	3.6780	0	34.2310	0	27.212	0	710.452	0	-1e10	8	-1e10	8	-1E+10	1	-1E+10	1	-1E+10	1	-1E+10	1	-1E+10	1	-1E+10	1
4902554	57	C	09/02/2022	18:07	-133.699	49.449	0	723.00	0	3.6760	0	34.2310	0	27.212	0	715.590	0	-1e10	8	-1e10	8	-1E+10	1	-1E+10	1	-1E+10	1	-1E+10	1	-1E+10	1	-1E+10	1
4902554	57	C	09/02/2022	18:07	-133.699	49.449	0	728.20	0	3.6730	0	34.2320	0	27.213	0	720.727	0	-1e10	8	-1e10	8	-1E+10	1	-1E+10	1	-1E+10	1	-1E+10	1	-1E+10	1	-1E+10	1
4902554	57	C	09/02/2022	18:07	-133.699	49.449	0	733.10	0	3.6540	0	34.2350	0	27.218	0	725.568	0	-1e10	8	-1e10	8	-1E+10	1	-1E+10	1	-1E+10	1	-1E+10	1	-1E+10	1	-1E+10	1
4902554	57	C	09/02/2022	18:07	-133.699	49.449	0	738.20	0	3.6410	0	34.2380	0	27.221	0	730.607	0	-1e10	8	-1e10	8	-1E+10	1	-1E+10	1	-1E+10	1	-1E+10	1	-1E+10	1	-1E+10	1
4902554	57	C	09/02/2022	18:07	-133.699	49.449	0	743.00	0	3.6340	0	34.2400	0	27.224	0	735.349	0	-1e10	8	-1e10	8	-1E+10	1	-1E+10	1	-1E+10	1	-1E+10	1	-1E+10	1	-1E+10	1
4902554	57	C	09/02/2022	18:07	-133.699	49.449	0	747.80	0	3.6260	0	34.2420	0	27.226	0	740.091	0	-1e10	8	-1e10	8	-1E+10	1	-1E+10	1	-1E+10	1	-1E+10	1	-1E+10	1	-1E+10	1
4902554	57	C	09/02/2022	18:07	-133.699	49.449	0	753.00	0	3.6120	0	34.2450	0	27.230	0	745.228	0	-1e10	8	-1e10	8	-1E+10	1	-1E+10	1	-1E+10	1	-1E+10	1	-1E+10	1	-1E+10	1
4902554	57	C	09/02/2022	18:07	-133.699	49.449	0	758.10	0	3.5980	0	34.2490	0	27.234	0	750.267	0	-1e10	8	-1e10	8	-1E+10	1	-1E+10	1	-1E+10	1	-1E+10	1	-1E+10	1	-1E+10	1
4902554	57	C	09/02/2022	18:07	-133.699	49.449	0	763.00	0	3.5900	0	34.2510	0	27.237	0	755.107	0	-1e10	8	-1e10	8	-1E+10	1	-1E+10	1	-1E+10	1	-1E+10	1	-1E+10	1	-1E+10	1
4902554	57	C	09/02/2022	18:07	-133.699	49.449	0	768.10	0	3.5860	0	34.2520	0	27.238	0	760.145	0	-1e10	8	-1e10	8	-1E+10	1	-1E+10	1	-1E+10	1	-1E+10	1	-1E+10	1	-1E+10	1
4902554	57	C	09/02/2022	18:07	-133.699	49.449	0	772.80	0	3.5710	0	34.2550	0	27.242	0	764.788	0	-1e10	8	-1e10	8	-1E+10	1	-1E+10	1	-1E+10	1	-1E+10	1	-1E+10	1	-1E+10	1
4902554	57	C	09/02/2022	18:07	-133.699	49.449	0	778.00	0	3.5490	0	34.2590	0	27.247	0	769.924	0	-1e10	8	-1e10	8	-1E+10	1	-1E+10	1	-1E+10	1	-1E+10	1	-1E+10	1	-1E+10	1
4902554	57	C	09/02/2022	18:07	-133.699	49.449	0	783.30	0	3.5350	0	34.2620	0	27.251	0	775.159	0	-1e10	8	-1e10	8	-1E+10	1	-1E+10	1	-1E+10	1	-1E+10	1	-1E+10	1	-1E+10	1
4902554	57	C	09/02/2022	18:07	-133.699	49.449	0	788.00	0	3.5230	0	34.2650	0	27.255	0	779.802	0	-1e10	8	-1e10	8	-1E+10	1	-1E+10	1	-1E+10	1	-1E+10	1	-1E+10	1	-1E+10	1
4902554	57	C	09/02/2022	18:07	-133.699	49.449	0	792.80	0	3.5150	0	34.2680	0	27.258	0	784.543	0	-1e10	8	-1e10	8	-1E+10	1	-1E+10	1	-1E+10	1	-1E+10	1	-1E+10	1	-1E+10	1
4902554	57	C	09/02/2022	18:07	-133.699	49.449	0	798.00	0	3.5010	0	34.2710	0	27.262	0	789.679	0	-1e10	8	-1e10	8	-1E+10	1	-1E+10	1	-1E+10	1	-1E+10	1	-1E+10	1	-1E+10	1
4902554	57	C	09/02/2022	18:07	-133.699	49.449	0	803.20	0	3.4950	0	34.2730	0	27.264	0	794.815	0	-1e10	8	-1e10	8	-1E+10	1	-1E+10	1	-1E+10	1	-1E+10	1	-1E+10	1	-1E+10	1
4902554	57	C	09/02/2022	18:07	-133.699	49.449	0	807.80	0	3.4870	0	34.2740	0	27.265	0	799.358	0	-1e10	8	-1e10	8	-1E+10	1	-1E+10	1	-1E+10	1	-1E+10	1	-1E+10	1	-1E+10	1
4902554	57	C	09/02/2022	18:07	-133.699	49.449	0	812.80	0	3.4700	0	34.2780	0	27.270	0	804.296	0	-1e10	8	-1e10	8	-1E+10	1	-1E+10	1	-1E+10	1	-1E+10	1	-1E+10	1	-1E+10	1
4902554	57	C	09/02/2022	18:07	-133.699	49.449	0	817.90	0	3.4580	0	34.2810	0	27.274	0	809.333	0	-1e10	8	-1e10	8	-1E+10	1	-1E+10	1	-1E+10	1	-1E+10	1	-1E+10	1	-1E+10	1
4902554	57	C	09/02/2022	18:07	-133.699	49.449	0	822.70	0	3.4480	0	34.2830	0	27.276	0	814.073	0	-1e10	8	-1e10	8	-1E+10	1	-1E+10	1	-1E+10	1	-1E+10	1	-1E+10	1	-1E+10	1
4902554	57	C	09/02/2022	18:07	-133.699	49.449	0	828.10	0	3.4310	0	34.2880	0	27.282	0	819.406	0	-1e10	8	-1e10	8	-1E+10	1	-1E+10	1	-1E+10	1	-1E+10	1	-1E+10	1	-1E+10	1
4902554	57	C	09/02/2022	18:07	-133.699	49.449	0	832.90	0	3.4260	0	34.2890	0	27.283	0	824.146	0	-1e10	8	-1e10	8	-1E+10	1	-1E+10	1	-1E+10	1	-1E+10	1	-1E+10	1	-1E+10	1
4902554	57	C	09/02/2022	18:07	-133.699	49.449	0	837.70	0	3.4260	0	34.2890	0	27.283	0	828.886	0	-1e10	8	-1e10	8	-1E+10	1	-1E+10	1	-1E+10	1	-1E+10	1	-1E+10	1	-1E+10	1
4902554	57	C	09/02/2022	18:07	-133.699	49.449	0	843.00	0	3.4160	0	34.2900	0	27.285	0	834.120	0	-1e10	8	-1e10	8	-1E+10	1	-1E+10	1	-1E+10	1	-1E+10	1	-1E+10	1	-1E+10	1
4902554	57	C	09/02/2022	18:07	-133.699	49.449	0	848.10	0	3.3990	0	34.2950	0	27.291	0	839.156	0	-1e10	8	-1e10	8	-1E+10	1	-1E+10	1	-1E+10	1	-1E+10	1	-1E+10	1	-1E+10	1
4902554	57	C	09/02/2022	18:07	-133.699	49.449	0	853.30	0	3.3920	0	34.2960	0	27.292	0	844.291	0	-1e10	8	-1e10	8	-1E+10	1	-1E+10	1	-1E+10	1	-1E+10	1	-1E+10	1	-1E+10	1
4902554	57	C	09/02/2022	18:07	-133.699	49.449	0	857.90	0	3.3720	0	34.3000	0	27.297	0	848.833	0	-1e10	8	-1e10	8	-1E+10	1	-1E+10	1	-1E+10	1	-1E+10	1	-1E+10	1	-1E+10	1
4902554	57	C	09/02/2022	18:07	-133.699	49.449	0	862.70	0	3.3600	0	34.3020	0	27.300	0	853.572	0	-1e10	8	-1e10	8	-1E+10	1	-1E+10	1	-1E+10	1	-1E+10	1	-1E+10	1	-1E+10	1
4902554	57	C	09/02/2022	18:07	-133.699	49.449	0	868.00	0	3.3370	0	34.3070	0	27.306	0	858.805	0	-1e10	8	-1e10	8	-1E+10	1	-1E+10	1	-1E+10	1	-1E+10	1	-1E+10	1	-1E+10	1
4902554	57	C	09/02/2022	18:07	-133.699	49.449	0	873.20	0	3.3200	0	34.3100	0	27.310	0	863.939	0	-1e10	8	-1e10	8	-1E+10	1	-1E+10	1	-1E+10	1	-1E+10	1	-1E+10	1	-1E+10	1
4902554	57	C	09/02/2022	18:07	-133.699	49.449	0	877.90	0	3.2920	0	34.3150	0	27.317	0	868.580	0	-1e10	8	-1e10	8	-1E+10	1	-1E+10	1	-1E+10	1	-1E+10	1	-1E+10	1	-1E+10	1
4902554	57	C	09/02/2022	18:07	-133.699	49.449	0	882.70	0	3.2830	0	34.3170	0	27.319	0	873.319	0	-1e10	8	-1e10	8	-1E+10	1	-1E+10	1	-1E+10	1	-1E+10	1	-1E+10	1	-1E+10	1
4902554	57	C	09/02/2022	18:07	-133.699	49.449	0	887.90	0	3.2620	0	34.3200	0	27.324	0	878.453	0	-1e10	8	-1e10	8	-1E+10	1	-1E+10	1	-1E+10	1	-1E+10	1	-1E+10	1	-1E+10	1
4902554	57	C	09/02/2022	18:07	-133.699	49.449	0	893.10	0	3.2440	0	34.3240	0	27.329	0	883.586	0	-1e10	8	-1e10	8	-1E+10	1	-1E+10	1	-1E+10	1	-1E+10	1	-1E+10	1	-1E+10	1
4902554	57	C	09/02/2022	18:07	-133.699	49.449	0	897.90	0	3.2230	0	34.3270	0	27.333	0	888.325	0	-1e10	8	-1e10	8	-1E+10	1	-1E+10	1	-1E+10	1	-1E+10	1	-1E+10	1	-1E+10	1
4902554	57	C	09/02/2022	18:07	-133.699	49.449	0	902.90	0	3.2090	0	34.3300	0	27.337	0	893.261	0	-1e10	8	-1e10	8	-1E+10	1	-1E+10	1	-1E+10	1	-1E+10	1	-1E+10	1	-1E+10	1
4902554	57	C	09/02/2022	18:07	-133.699	49.449	0	908.00	0	3.1970	0	34.3320	0	27.340	0	898.296	0	-1e10	8	-1e10	8	-1E+10	1	-1E+10	1	-1E+10	1	-1E+10	1	-1E+10	1	-1E+10	1
4902554	57	C	09/02/2022	18:07	-133.699	49.449	0	912.60	0	3.1850	0	34.3340	0	27.342	0	902.837	0	-1e10	8	-1e10	8	-1E+10	1	-1E+10	1	-1E+10	1	-1E+10	1	-1E+10	1	-1E+10	1
4902554	57	C	09/02/2022	18:07	-133.699	49.449	0	917.80	0	3.1730	0	34.3360	0	27.345	0	907.970	0	-1e10	8	-1e10	8	-1E+10	1	-1E+10	1	-1E+10	1	-1E+10	1	-1E+10	1	-1E+10	1
4902554	57	C	09/02/2022	18:07	-133.699	49.449	0	922.90	0	3.1660	0	34.3370	0	27.346	0	913.004	0	-1e10	8	-1e10	8	-1E+10	1	-1E+10	1	-1E+10	1	-1E+10	1	-1E+10	1	-1E+10	1
4902554	57	C	09/02/2022	18:07	-133.699	49.449	0	927.60	0	3.1570	0	34.3390	0	27.349	0	917.643	0	-1e10	8	-1e10	8	-1E+10	1	-1E+10	1	-1E+10	1	-1E+10	1	-1E+10	1	-1E+10	1
4902554	57	C	09/02/2022	18:07	-133.699	49.449	0	932.90	0	3.1500	0	34.3410	0	27.351	0	922.875	0	-1e10	8	-1e10	8	-1E+10	1	-1E+10	1	-1E+10	1	-1E+10	1	-1E+10	1	-1E+10	1
4902554	57	C	09/02/2022	18:07	-133.699	49.449	0	938.30	0	3.1480	0	34.3420	0	27.352	0	928.205	0	-1e10	8	-1e10	8	-1E+10	1	-1E+10	1	-1E+10	1	-1E+10	1	-1E+10	1	-1E+10	1
4902554	57	C	09/02/2022	18:07	-133.699	49.449	0	942.80	0	3.1470	0	34.3430	0	27.353	0	932.646	0	-1e10	8	-1e10	8	-1E+10	1	-1E+10	1	-1E+10	1	-1E+10	1	-1E+10	1	-1E+10	1
4902554	57	C	09/02/2022	18:07	-133.699	49.449	0	947.90	0	3.1390	0	34.3440	0	27.355	0	937.680	0	-1e10	8	-1e10	8	-1E+10	1	-1E+10	1	-1E+10	1	-1E+10	1	-1E+10	1	-1E+10	1
4902554	57	C	09/02/2022	18:07	-133.699	49.449	0	953.20	0	3.1290	0	34.3460	0	27.357	0	942.911	0	-1e10	8	-1e10	8	-1E+10	1	-1E+10	1	-1E+10	1	-1E+10	1	-1E+10	1	-1E+10	1
4902554	57	C	09/02/2022	18:07	-133.699	49.449	0	958.00	0	3.1150	0	34.3490	0	27.361	0	947.648	0	-1e10	8	-1e10	8	-1E+10	1	-1E+10	1	-1E+10	1	-1E+10	1	-1E+10	1	-1E+10	1
4902554	57	C	09/02/2022	18:07	-133.699	49.449	0	963.00	0	3.1020	0	34.3520	0	27.365	0	952.583	0	-1e10	8	-1e10	8	-1E+10	1	-1E+10	1	-1E+10	1	-1E+10	1	-1E+10	1	-1E+10	1
4902554	57	C	09/02/2022	18:07	-133.699	49.449	0	968.10	0	3.0860	0	34.3550	0	27.368	0	957.616	0	-1e10	8	-1e10	8	-1E+10	1	-1E+10	1	-1E+10	1	-1E+10	1	-1E+10	1	-1E+10	1
4902554	57	C	09/02/2022	18:07	-133.699	49.449	0	972.90	0	3.0740	0	34.3580	0	27.372	0	962.353	0	-1e10	8	-1e10	8	-1E+10	1	-1E+10	1	-1E+10	1	-1E+10	1	-1E+10	1	-1E+10	1
4902554	57	C	09/02/2022	18:07	-133.699	49.449	0	977.80	0	3.0620	0	34.3600	0	27.375	0	967.189	0	-1e10	8	-1e10	8	-1E+10	1	-1E+10	1	-1E+10	1	-1E+10	1	-1E+10	1	-1E+10	1
4902554	57	C	09/02/2022	18:07	-133.699	49.449	0	982.80	0	3.0540	0	34.3620	0	27.377	0	972.123	0	-1e10	8	-1e10	8	-1E+10	1	-1E+10	1	-1E+10	1	-1E+10	1	-1E+10	1	-1E+10	1
4902554	57	C	09/02/2022	18:07	-133.699	49.449	0	987.80	0	3.0410	0	34.3650	0	27.381	0	977.057	0	-1e10	8	-1e10	8	-1E+10	1	-1E+10	1	-1E+10	1	-1E+10	1	-1E+10	1	-1E+10	1
4902554	57	C	09/02/2022	18:07	-133.699	49.449	0	992.90	0	3.0210	0	34.3690	0	27.386	0	982.089	0	-1e10	8	-1e10	8	-1E+10	1	-1E+10	1	-1E+10	1	-1E+10	1	-1E+10	1	-1E+10	1
4902554	57	C	09/02/2022	18:07	-133.699	49.449	0	997.60	0	3.0050	0	34.3720	0	27.389	0	986.727	0	-1e10	8	-1e10	8	-1E+10	1	-1E+10	1	-1E+10	1	-1E+10	1	-1E+10	1	-1E+10	1
4902554	57	C	09/02/2022	18:07	-133.699	49.449	0	1005.30	0	2.9870	0	34.3770	0	27.395	0	994.325	0	-1e10	8	-1e10	8	-1E+10	1	-1E+10	1	-1E+10	1	-1E+10	1	-1E+10	1	-1E+10	1
4902554	57	C	09/02/2022	18:07	-133.699	49.449	0	1015.70	0	2.9710	0	34.3800	0	27.399	0	1004.586	0	-1e10	8	-1e10	8	-1E+10	1	-1E+10	1	-1E+10	1	-1E+10	1	-1E+10	1	-1E+10	1
4902554	57	C	09/02/2022	18:07	-133.699	49.449	0	1025.70	0	2.9580	0	34.3830	0	27.403	0	1014.453	0	-1e10	8	-1e10	8	-1E+10	1	-1E+10	1	-1E+10	1	-1E+10	1	-1E+10	1	-1E+10	1
4902554	57	C	09/02/2022	18:07	-133.699	49.449	0	1035.40	0	2.9440	0	34.3860	0	27.406	0	1024.023	0	-1e10	8	-1e10	8	-1E+10	1	-1E+10	1	-1E+10	1	-1E+10	1	-1E+10	1	-1E+10	1
4902554	57	C	09/02/2022	18:07	-133.699	49.449	0	1045.30	0	2.9310	0	34.3890	0	27.410	0	1033.790	0	-1e10	8	-1e10	8	-1E+10	1	-1E+10	1	-1E+10	1	-1E+10	1	-1E+10	1	-1E+10	1
4902554	57	C	09/02/2022	18:07	-133.699	49.449	0	1055.70	0	2.9160	0	34.3920	0	27.414	0	1044.049	0	-1e10	8	-1e10	8	-1E+10	1	-1E+10	1	-1E+10	1	-1E+10	1	-1E+10	1	-1E+10	1
4902554	57	C	09/02/2022	18:07	-133.699	49.449	0	1065.70	0	2.9040	0	34.3950	0	27.417	0	1053.914	0	-1e10	8	-1e10	8	-1E+10	1	-1E+10	1	-1E+10	1	-1E+10	1	-1E+10	1	-1E+10	1
4902554	57	C	09/02/2022	18:07	-133.699	49.449	0	1075.20	0	2.8920	0	34.3980	0	27.421	0	1063.285	0	-1e10	8	-1e10	8	-1E+10	1	-1E+10	1	-1E+10	1	-1E+10	1	-1E+10	1	-1E+10	1
4902554	57	C	09/02/2022	18:07	-133.699	49.449	0	1085.40	0	2.8710	0	34.4030	0	27.427	0	1073.346	0	-1e10	8	-1e10	8	-1E+10	1	-1E+10	1	-1E+10	1	-1E+10	1	-1E+10	1	-1E+10	1
4902554	57	C	09/02/2022	18:07	-133.699	49.449	0	1095.70	0	2.8580	0	34.4060	0	27.430	0	1083.505	0	-1e10	8	-1e10	8	-1E+10	1	-1E+10	1	-1E+10	1	-1E+10	1	-1E+10	1	-1E+10	1
4902554	57	C	09/02/2022	18:07	-133.699	49.449	0	1105.40	0	2.8530	0	34.4070	0	27.432	0	1093.071	0	-1e10	8	-1e10	8	-1E+10	1	-1E+10	1	-1E+10	1	-1E+10	1	-1E+10	1	-1E+10	1
4902554	57	C	09/02/2022	18:07	-133.699	49.449	0	1115.30	0	2.8500	0	34.4070	0	27.432	0	1102.835	0	-1e10	8	-1e10	8	-1E+10	1	-1E+10	1	-1E+10	1	-1E+10	1	-1E+10	1	-1E+10	1
4902554	57	C	09/02/2022	18:07	-133.699	49.449	0	1125.10	0	2.8400	0	34.4090	0	27.435	0	1112.499	0	-1e10	8	-1e10	8	-1E+10	1	-1E+10	1	-1E+10	1	-1E+10	1	-1E+10	1	-1E+10	1
4902554	57	C	09/02/2022	18:07	-133.699	49.449	0	1135.10	0	2.8280	0	34.4120	0	27.438	0	1122.361	0	-1e10	8	-1e10	8	-1E+10	1	-1E+10	1	-1E+10	1	-1E+10	1	-1E+10	1	-1E+10	1
4902554	57	C	09/02/2022	18:07	-133.699	49.449	0	1145.40	0	2.8140	0	34.4140	0	27.441	0	1132.517	0	-1e10	8	-1e10	8	-1E+10	1	-1E+10	1	-1E+10	1	-1E+10	1	-1E+10	1	-1E+10	1
4902554	57	C	09/02/2022	18:07	-133.699	49.449	0	1155.30	0	2.7990	0	34.4170	0	27.445	0	1142.279	0	-1e10	8	-1e10	8	-1E+10	1	-1E+10	1	-1E+10	1	-1E+10	1	-1E+10	1	-1E+10	1
4902554	57	C	09/02/2022	18:07	-133.699	49.449	0	1165.20	0	2.7850	0	34.4200	0	27.448	0	1152.040	0	-1e10	8	-1e10	8	-1E+10	1	-1E+10	1	-1E+10	1	-1E+10	1	-1E+10	1	-1E+10	1
4902554	57	C	09/02/2022	18:07	-133.699	49.449	0	1175.60	0	2.7670	0	34.4230	0	27.452	0	1162.294	0	-1e10	8	-1e10	8	-1E+10	1	-1E+10	1	-1E+10	1	-1E+10	1	-1E+10	1	-1E+10	1
4902554	57	C	09/02/2022	18:07	-133.699	49.449	0	1185.40	0	2.7530	0	34.4260	0	27.456	0	1171.956	0	-1e10	8	-1e10	8	-1E+10	1	-1E+10	1	-1E+10	1	-1E+10	1	-1E+10	1	-1E+10	1
4902554	57	C	09/02/2022	18:07	-133.699	49.449	0	1195.40	0	2.7370	0	34.4280	0	27.459	0	1181.815	0	-1e10	8	-1e10	8	-1E+10	1	-1E+10	1	-1E+10	1	-1E+10	1	-1E+10	1	-1E+10	1
4902554	57	C	09/02/2022	18:07	-133.699	49.449	0	1205.30	0	2.7110	0	34.4320	0	27.465	0	1191.574	0	-1e10	8	-1e10	8	-1E+10	1	-1E+10	1	-1E+10	1	-1E+10	1	-1E+10	1	-1E+10	1
4902554	57	C	09/02/2022	18:07	-133.699	49.449	0	1215.20	0	2.6980	0	34.4340	0	27.467	0	1201.333	0	-1e10	8	-1e10	8	-1E+10	1	-1E+10	1	-1E+10	1	-1E+10	1	-1E+10	1	-1E+10	1
4902554	57	C	09/02/2022	18:07	-133.699	49.449	0	1225.20	0	2.6780	0	34.4370	0	27.472	0	1211.190	0	-1e10	8	-1e10	8	-1E+10	1	-1E+10	1	-1E+10	1	-1E+10	1	-1E+10	1	-1E+10	1
4902554	57	C	09/02/2022	18:07	-133.699	49.449	0	1235.30	0	2.6490	0	34.4420	0	27.478	0	1221.145	0	-1e10	8	-1e10	8	-1E+10	1	-1E+10	1	-1E+10	1	-1E+10	1	-1E+10	1	-1E+10	1
4902554	57	C	09/02/2022	18:07	-133.699	49.449	0	1245.80	0	2.6330	0	34.4450	0	27.482	0	1231.494	0	-1e10	8	-1e10	8	-1E+10	1	-1E+10	1	-1E+10	1	-1E+10	1	-1E+10	1	-1E+10	1
4902554	57	C	09/02/2022	18:07	-133.699	49.449	0	1255.60	0	2.6180	0	34.4480	0	27.486	0	1241.153	0	-1e10	8	-1e10	8	-1E+10	1	-1E+10	1	-1E+10	1	-1E+10	1	-1E+10	1	-1E+10	1
4902554	57	C	09/02/2022	18:07	-133.699	49.449	0	1265.10	0	2.6100	0	34.4490	0	27.487	0	1250.515	0	-1e10	8	-1e10	8	-1E+10	1	-1E+10	1	-1E+10	1	-1E+10	1	-1E+10	1	-1E+10	1
4902554	57	C	09/02/2022	18:07	-133.699	49.449	0	1275.30	0	2.6000	0	34.4510	0	27.490	0	1260.567	0	-1e10	8	-1e10	8	-1E+10	1	-1E+10	1	-1E+10	1	-1E+10	1	-1E+10	1	-1E+10	1
4902554	57	C	09/02/2022	18:07	-133.699	49.449	0	1285.50	0	2.5860	0	34.4540	0	27.493	0	1270.619	0	-1e10	8	-1e10	8	-1E+10	1	-1E+10	1	-1E+10	1	-1E+10	1	-1E+10	1	-1E+10	1
4902554	57	C	09/02/2022	18:07	-133.699	49.449	0	1295.30	0	2.5760	0	34.4560	0	27.496	0	1280.275	0	-1e10	8	-1e10	8	-1E+10	1	-1E+10	1	-1E+10	1	-1E+10	1	-1E+10	1	-1E+10	1
4902554	57	C	09/02/2022	18:07	-133.699	49.449	0	1305.00	0	2.5690	0	34.4580	0	27.498	0	1289.833	0	-1e10	8	-1e10	8	-1E+10	1	-1E+10	1	-1E+10	1	-1E+10	1	-1E+10	1	-1E+10	1
4902554	57	C	09/02/2022	18:07	-133.699	49.449	0	1315.00	0	2.5580	0	34.4600	0	27.501	0	1299.686	0	-1e10	8	-1e10	8	-1E+10	1	-1E+10	1	-1E+10	1	-1E+10	1	-1E+10	1	-1E+10	1
4902554	57	C	09/02/2022	18:07	-133.699	49.449	0	1325.20	0	2.5450	0	34.4630	0	27.504	0	1309.736	0	-1e10	8	-1e10	8	-1E+10	1	-1E+10	1	-1E+10	1	-1E+10	1	-1E+10	1	-1E+10	1
4902554	57	C	09/02/2022	18:07	-133.699	49.449	0	1335.20	0	2.5330	0	34.4650	0	27.507	0	1319.588	0	-1e10	8	-1e10	8	-1E+10	1	-1E+10	1	-1E+10	1	-1E+10	1	-1E+10	1	-1E+10	1
4902554	57	C	09/02/2022	18:07	-133.699	49.449	0	1345.30	0	2.5230	0	34.4660	0	27.509	0	1329.538	0	-1e10	8	-1e10	8	-1E+10	1	-1E+10	1	-1E+10	1	-1E+10	1	-1E+10	1	-1E+10	1
4902554	57	C	09/02/2022	18:07	-133.699	49.449	0	1355.60	0	2.5160	0	34.4680	0	27.511	0	1339.684	0	-1e10	8	-1e10	8	-1E+10	1	-1E+10	1	-1E+10	1	-1E+10	1	-1E+10	1	-1E+10	1
4902554	57	C	09/02/2022	18:07	-133.699	49.449	0	1365.40	0	2.5080	0	34.4690	0	27.512	0	1349.338	0	-1e10	8	-1e10	8	-1E+10	1	-1E+10	1	-1E+10	1	-1E+10	1	-1E+10	1	-1E+10	1
4902554	57	C	09/02/2022	18:07	-133.699	49.449	0	1375.10	0	2.4960	0	34.4720	0	27.516	0	1358.893	0	-1e10	8	-1e10	8	-1E+10	1	-1E+10	1	-1E+10	1	-1E+10	1	-1E+10	1	-1E+10	1
4902554	57	C	09/02/2022	18:07	-133.699	49.449	0	1385.20	0	2.4780	0	34.4750	0	27.520	0	1368.841	0	-1e10	8	-1e10	8	-1E+10	1	-1E+10	1	-1E+10	1	-1E+10	1	-1E+10	1	-1E+10	1
4902554	57	C	09/02/2022	18:07	-133.699	49.449	0	1395.10	0	2.4650	0	34.4780	0	27.523	0	1378.592	0	-1e10	8	-1e10	8	-1E+10	1	-1E+10	1	-1E+10	1	-1E+10	1	-1E+10	1	-1E+10	1
4902554	57	C	09/02/2022	18:07	-133.699	49.449	0	1405.10	0	2.4480	0	34.4810	0	27.527	0	1388.440	0	-1e10	8	-1e10	8	-1E+10	1	-1E+10	1	-1E+10	1	-1E+10	1	-1E+10	1	-1E+10	1
4902554	57	C	09/02/2022	18:07	-133.699	49.449	0	1415.00	0	2.4380	0	34.4830	0	27.530	0	1398.190	0	-1e10	8	-1e10	8	-1E+10	1	-1E+10	1	-1E+10	1	-1E+10	1	-1E+10	1	-1E+10	1
4902554	57	C	09/02/2022	18:07	-133.699	49.449	0	1425.20	0	2.4320	0	34.4860	0	27.533	0	1408.235	0	-1e10	8	-1e10	8	-1E+10	1	-1E+10	1	-1E+10	1	-1E+10	1	-1E+10	1	-1E+10	1
4902554	57	C	09/02/2022	18:07	-133.699	49.449	0	1435.30	0	2.4280	0	34.4870	0	27.534	0	1418.181	0	-1e10	8	-1e10	8	-1E+10	1	-1E+10	1	-1E+10	1	-1E+10	1	-1E+10	1	-1E+10	1
4902554	57	C	09/02/2022	18:07	-133.699	49.449	0	1445.70	0	2.4180	0	34.4890	0	27.536	0	1428.422	0	-1e10	8	-1e10	8	-1E+10	1	-1E+10	1	-1E+10	1	-1E+10	1	-1E+10	1	-1E+10	1
4902554	57	C	09/02/2022	18:07	-133.699	49.449	0	1455.30	0	2.4060	0	34.4910	0	27.539	0	1437.874	0	-1e10	8	-1e10	8	-1E+10	1	-1E+10	1	-1E+10	1	-1E+10	1	-1E+10	1	-1E+10	1
4902554	57	C	09/02/2022	18:07	-133.699	49.449	0	1465.00	0	2.3910	0	34.4940	0	27.543	0	1447.425	0	-1e10	8	-1e10	8	-1E+10	1	-1E+10	1	-1E+10	1	-1E+10	1	-1E+10	1	-1E+10	1
4902554	57	C	09/02/2022	18:07	-133.699	49.449	0	1475.20	0	2.3830	0	34.4960	0	27.545	0	1457.467	0	-1e10	8	-1e10	8	-1E+10	1	-1E+10	1	-1E+10	1	-1E+10	1	-1E+10	1	-1E+10	1
4902554	57	C	09/02/2022	18:07	-133.699	49.449	0	1485.20	0	2.3780	0	34.4980	0	27.547	0	1467.312	0	-1e10	8	-1e10	8	-1E+10	1	-1E+10	1	-1E+10	1	-1E+10	1	-1E+10	1	-1E+10	1
4902554	57	C	09/02/2022	18:07	-133.699	49.449	0	1495.10	0	2.3700	0	34.5000	0	27.549	0	1477.059	0	-1e10	8	-1e10	8	-1E+10	1	-1E+10	1	-1E+10	1	-1E+10	1	-1E+10	1	-1E+10	1
4902554	57	C	09/02/2022	18:07	-133.699	49.449	0	1505.00	0	2.3580	0	34.5020	0	27.552	0	1486.804	0	-1e10	8	-1e10	8	-1E+10	1	-1E+10	1	-1E+10	1	-1E+10	1	-1E+10	1	-1E+10	1
4902554	57	C	09/02/2022	18:07	-133.699	49.449	0	1515.10	0	2.3460	0	34.5050	0	27.555	0	1496.747	0	-1e10	8	-1e10	8	-1E+10	1	-1E+10	1	-1E+10	1	-1E+10	1	-1E+10	1	-1E+10	1
4902554	57	C	09/02/2022	18:07	-133.699	49.449	0	1525.30	0	2.3380	0	34.5060	0	27.557	0	1506.787	0	-1e10	8	-1e10	8	-1E+10	1	-1E+10	1	-1E+10	1	-1E+10	1	-1E+10	1	-1E+10	1
4902554	57	C	09/02/2022	18:07	-133.699	49.449	0	1535.50	0	2.3250	0	34.5090	0	27.560	0	1516.826	0	-1e10	8	-1e10	8	-1E+10	1	-1E+10	1	-1E+10	1	-1E+10	1	-1E+10	1	-1E+10	1
4902554	57	C	09/02/2022	18:07	-133.699	49.449	0	1545.30	0	2.3170	0	34.5110	0	27.563	0	1526.472	0	-1e10	8	-1e10	8	-1E+10	1	-1E+10	1	-1E+10	1	-1E+10	1	-1E+10	1	-1E+10	1
4902554	57	C	09/02/2022	18:07	-133.699	49.449	0	1555.30	0	2.3040	0	34.5140	0	27.566	0	1536.314	0	-1e10	8	-1e10	8	-1E+10	1	-1E+10	1	-1E+10	1	-1E+10	1	-1E+10	1	-1E+10	1
4902554	57	C	09/02/2022	18:07	-133.699	49.449	0	1565.50	0	2.2930	0	34.5170	0	27.570	0	1546.352	0	-1e10	8	-1e10	8	-1E+10	1	-1E+10	1	-1E+10	1	-1E+10	1	-1E+10	1	-1E+10	1
4902554	57	C	09/02/2022	18:07	-133.699	49.449	0	1575.30	0	2.2790	0	34.5190	0	27.572	0	1555.996	0	-1e10	8	-1e10	8	-1E+10	1	-1E+10	1	-1E+10	1	-1E+10	1	-1E+10	1	-1E+10	1
4902554	57	C	09/02/2022	18:07	-133.699	49.449	0	1585.30	0	2.2610	0	34.5210	0	27.576	0	1565.837	0	-1e10	8	-1e10	8	-1E+10	1	-1E+10	1	-1E+10	1	-1E+10	1	-1E+10	1	-1E+10	1
4902554	57	C	09/02/2022	18:07	-133.699	49.449	0	1595.30	0	2.2500	0	34.5240	0	27.579	0	1575.677	0	-1e10	8	-1e10	8	-1E+10	1	-1E+10	1	-1E+10	1	-1E+10	1	-1E+10	1	-1E+10	1
4902554	57	C	09/02/2022	18:07	-133.699	49.449	0	1605.30	0	2.2440	0	34.5250	0	27.580	0	1585.516	0	-1e10	8	-1e10	8	-1E+10	1	-1E+10	1	-1E+10	1	-1E+10	1	-1E+10	1	-1E+10	1
4902554	57	C	09/02/2022	18:07	-133.699	49.449	0	1615.30	0	2.2320	0	34.5270	0	27.583	0	1595.355	0	-1e10	8	-1e10	8	-1E+10	1	-1E+10	1	-1E+10	1	-1E+10	1	-1E+10	1	-1E+10	1
4902554	57	C	09/02/2022	18:07	-133.699	49.449	0	1625.30	0	2.2170	0	34.5300	0	27.587	0	1605.194	0	-1e10	8	-1e10	8	-1E+10	1	-1E+10	1	-1E+10	1	-1E+10	1	-1E+10	1	-1E+10	1
4902554	57	C	09/02/2022	18:07	-133.699	49.449	0	1635.20	0	2.2050	0	34.5320	0	27.589	0	1614.934	0	-1e10	8	-1e10	8	-1E+10	1	-1E+10	1	-1E+10	1	-1E+10	1	-1E+10	1	-1E+10	1
4902554	57	C	09/02/2022	18:07	-133.699	49.449	0	1645.20	0	2.1880	0	34.5360	0	27.594	0	1624.771	0	-1e10	8	-1e10	8	-1E+10	1	-1E+10	1	-1E+10	1	-1E+10	1	-1E+10	1	-1E+10	1
4902554	57	C	09/02/2022	18:07	-133.699	49.449	0	1655.20	0	2.1760	0	34.5380	0	27.596	0	1634.609	0	-1e10	8	-1e10	8	-1E+10	1	-1E+10	1	-1E+10	1	-1E+10	1	-1E+10	1	-1E+10	1
4902554	57	C	09/02/2022	18:07	-133.699	49.449	0	1665.20	0	2.1640	0	34.5410	0	27.600	0	1644.445	0	-1e10	8	-1e10	8	-1E+10	1	-1E+10	1	-1E+10	1	-1E+10	1	-1E+10	1	-1E+10	1
4902554	57	C	09/02/2022	18:07	-133.699	49.449	0	1675.20	0	2.1530	0	34.5430	0	27.602	0	1654.282	0	-1e10	8	-1e10	8	-1E+10	1	-1E+10	1	-1E+10	1	-1E+10	1	-1E+10	1	-1E+10	1
4902554	57	C	09/02/2022	18:07	-133.699	49.449	0	1685.20	0	2.1450	0	34.5450	0	27.605	0	1664.118	0	-1e10	8	-1e10	8	-1E+10	1	-1E+10	1	-1E+10	1	-1E+10	1	-1E+10	1	-1E+10	1
4902554	57	C	09/02/2022	18:07	-133.699	49.449	0	1695.40	0	2.1340	0	34.5470	0	27.607	0	1674.150	0	-1e10	8	-1e10	8	-1E+10	1	-1E+10	1	-1E+10	1	-1E+10	1	-1E+10	1	-1E+10	1
4902554	57	C	09/02/2022	18:07	-133.699	49.449	0	1705.60	0	2.1210	0	34.5500	0	27.611	0	1684.182	0	-1e10	8	-1e10	8	-1E+10	1	-1E+10	1	-1E+10	1	-1E+10	1	-1E+10	1	-1E+10	1
4902554	57	C	09/02/2022	18:07	-133.699	49.449	0	1715.70	0	2.1160	0	34.5510	0	27.612	0	1694.114	0	-1e10	8	-1e10	8	-1E+10	1	-1E+10	1	-1E+10	1	-1E+10	1	-1E+10	1	-1E+10	1
4902554	57	C	09/02/2022	18:07	-133.699	49.449	0	1725.30	0	2.1090	0	34.5520	0	27.613	0	1703.555	0	-1e10	8	-1e10	8	-1E+10	1	-1E+10	1	-1E+10	1	-1E+10	1	-1E+10	1	-1E+10	1
4902554	57	C	09/02/2022	18:07	-133.699	49.449	0	1735.00	0	2.0970	0	34.5540	0	27.616	0	1713.094	0	-1e10	8	-1e10	8	-1E+10	1	-1E+10	1	-1E+10	1	-1E+10	1	-1E+10	1	-1E+10	1
4902554	57	C	09/02/2022	18:07	-133.699	49.449	0	1745.20	0	2.0860	0	34.5570	0	27.619	0	1723.124	0	-1e10	8	-1e10	8	-1E+10	1	-1E+10	1	-1E+10	1	-1E+10	1	-1E+10	1	-1E+10	1
4902554	57	C	09/02/2022	18:07	-133.699	49.449	0	1755.10	0	2.0770	0	34.5580	0	27.621	0	1732.858	0	-1e10	8	-1e10	8	-1E+10	1	-1E+10	1	-1E+10	1	-1E+10	1	-1E+10	1	-1E+10	1
4902554	57	C	09/02/2022	18:07	-133.699	49.449	0	1765.10	0	2.0640	0	34.5610	0	27.624	0	1742.690	0	-1e10	8	-1e10	8	-1E+10	1	-1E+10	1	-1E+10	1	-1E+10	1	-1E+10	1	-1E+10	1
4902554	57	C	09/02/2022	18:07	-133.699	49.449	0	1775.20	0	2.0570	0	34.5620	0	27.626	0	1752.620	0	-1e10	8	-1e10	8	-1E+10	1	-1E+10	1	-1E+10	1	-1E+10	1	-1E+10	1	-1E+10	1
4902554	57	C	09/02/2022	18:07	-133.699	49.449	0	1785.30	0	2.0490	0	34.5640	0	27.628	0	1762.550	0	-1e10	8	-1e10	8	-1E+10	1	-1E+10	1	-1E+10	1	-1E+10	1	-1E+10	1	-1E+10	1
4902554	57	C	09/02/2022	18:07	-133.699	49.449	0	1795.30	0	2.0410	0	34.5650	0	27.629	0	1772.381	0	-1e10	8	-1e10	8	-1E+10	1	-1E+10	1	-1E+10	1	-1E+10	1	-1E+10	1	-1E+10	1
4902554	57	C	09/02/2022	18:07	-133.699	49.449	0	1805.50	0	2.0330	0	34.5670	0	27.632	0	1782.408	0	-1e10	8	-1e10	8	-1E+10	1	-1E+10	1	-1E+10	1	-1E+10	1	-1E+10	1	-1E+10	1
4902554	57	C	09/02/2022	18:07	-133.699	49.449	0	1815.60	0	2.0260	0	34.5680	0	27.633	0	1792.336	0	-1e10	8	-1e10	8	-1E+10	1	-1E+10	1	-1E+10	1	-1E+10	1	-1E+10	1	-1E+10	1
4902554	57	C	09/02/2022	18:07	-133.699	49.449	0	1825.30	0	2.0200	0	34.5700	0	27.635	0	1801.871	0	-1e10	8	-1e10	8	-1E+10	1	-1E+10	1	-1E+10	1	-1E+10	1	-1E+10	1	-1E+10	1
4902554	57	C	09/02/2022	18:07	-133.699	49.449	0	1835.40	0	2.0120	0	34.5710	0	27.637	0	1811.798	0	-1e10	8	-1e10	8	-1E+10	1	-1E+10	1	-1E+10	1	-1E+10	1	-1E+10	1	-1E+10	1
4902554	57	C	09/02/2022	18:07	-133.699	49.449	0	1845.50	0	2.0050	0	34.5730	0	27.639	0	1821.725	0	-1e10	8	-1e10	8	-1E+10	1	-1E+10	1	-1E+10	1	-1E+10	1	-1E+10	1	-1E+10	1
4902554	57	C	09/02/2022	18:07	-133.699	49.449	0	1855.40	0	1.9960	0	34.5740	0	27.640	0	1831.455	0	-1e10	8	-1e10	8	-1E+10	1	-1E+10	1	-1E+10	1	-1E+10	1	-1E+10	1	-1E+10	1
4902554	57	C	09/02/2022	18:07	-133.699	49.449	0	1865.40	0	1.9900	0	34.5750	0	27.642	0	1841.282	0	-1e10	8	-1e10	8	-1E+10	1	-1E+10	1	-1E+10	1	-1E+10	1	-1E+10	1	-1E+10	1
4902554	57	C	09/02/2022	18:07	-133.699	49.449	0	1875.60	0	1.9810	0	34.5770	0	27.644	0	1851.306	0	-1e10	8	-1e10	8	-1E+10	1	-1E+10	1	-1E+10	1	-1E+10	1	-1E+10	1	-1E+10	1
4902554	57	C	09/02/2022	18:07	-133.699	49.449	0	1885.60	0	1.9790	0	34.5780	0	27.645	0	1861.133	0	-1e10	8	-1e10	8	-1E+10	1	-1E+10	1	-1E+10	1	-1E+10	1	-1E+10	1	-1E+10	1
4902554	57	C	09/02/2022	18:07	-133.699	49.449	0	1895.80	0	1.9740	0	34.5790	0	27.646	0	1871.156	0	-1e10	8	-1e10	8	-1E+10	1	-1E+10	1	-1E+10	1	-1E+10	1	-1E+10	1	-1E+10	1
4902554	57	C	09/02/2022	18:07	-133.699	49.449	0	1905.60	0	1.9680	0	34.5800	0	27.648	0	1880.785	0	-1e10	8	-1e10	8	-1E+10	1	-1E+10	1	-1E+10	1	-1E+10	1	-1E+10	1	-1E+10	1
4902554	57	C	09/02/2022	18:07	-133.699	49.449	0	1915.60	0	1.9610	0	34.5820	0	27.650	0	1890.610	0	-1e10	8	-1e10	8	-1E+10	1	-1E+10	1	-1E+10	1	-1E+10	1	-1E+10	1	-1E+10	1
4902554	57	C	09/02/2022	18:07	-133.699	49.449	0	1925.40	0	1.9500	0	34.5840	0	27.652	0	1900.239	0	-1e10	8	-1e10	8	-1E+10	1	-1E+10	1	-1E+10	1	-1E+10	1	-1E+10	1	-1E+10	1
4902554	57	C	09/02/2022	18:07	-133.699	49.449	0	1935.50	0	1.9410	0	34.5850	0	27.654	0	1910.162	0	-1e10	8	-1e10	8	-1E+10	1	-1E+10	1	-1E+10	1	-1E+10	1	-1E+10	1	-1E+10	1
4902554	57	C	09/02/2022	18:07	-133.699	49.449	0	1945.60	0	1.9340	0	34.5870	0	27.656	0	1920.084	0	-1e10	8	-1e10	8	-1E+10	1	-1E+10	1	-1E+10	1	-1E+10	1	-1E+10	1	-1E+10	1
4902554	57	C	09/02/2022	18:07	-133.699	49.449	0	1955.70	0	1.9330	0	34.5870	0	27.656	0	1930.006	0	-1e10	8	-1e10	8	-1E+10	1	-1E+10	1	-1E+10	1	-1E+10	1	-1E+10	1	-1E+10	1
4902554	57	C	09/02/2022	18:07	-133.699	49.449	0	1965.50	0	1.9270	0	34.5890	0	27.658	0	1939.632	0	-1e10	8	-1e10	8	-1E+10	1	-1E+10	1	-1E+10	1	-1E+10	1	-1E+10	1	-1E+10	1
4902554	57	C	09/02/2022	18:07	-133.699	49.449	0	1975.10	0	1.9190	0	34.5900	0	27.660	0	1949.062	0	-1e10	8	-1e10	8	-1E+10	1	-1E+10	1	-1E+10	1	-1E+10	1	-1E+10	1	-1E+10	1
4902554	57	C	09/02/2022	18:07	-133.699	49.449	0	1985.10	0	1.9140	0	34.5910	0	27.661	0	1958.884	0	-1e10	8	-1e10	8	-1E+10	1	-1E+10	1	-1E+10	1	-1E+10	1	-1E+10	1	-1E+10	1
4902554	57	C	09/02/2022	18:07	-133.699	49.449	0	1995.80	0	1.9120	0	34.5920	0	27.662	0	1969.394	0	-1e10	8	-1e10	8	-1E+10	1	-1E+10	1	-1E+10	1	-1E+10	1	-1E+10	1	-1E+10	1
4902554	57	C	09/02/2022	18:07	-133.699	49.449	0	2000.80	0	1.9140	0	34.5920	0	27.662	0	1974.304	0	-1e10	8	-1e10	8	-1E+10	1	-1E+10	1	-1E+10	1	-1E+10	1	-1E+10	1	-1E+10	1
4902554	57	C	09/02/2022	18:07	-133.699	49.449	0																										
4902554	58	C	09/12/2022	23:10	-133.618	49.306	0	0.30	0	16.6280	0	32.2110	0	23.462	0	0.297	0	-1e10	8	-1e10	8	-1E+10	1	-1E+10	1	-1E+10	1	-1E+10	1	-1E+10	1	-1E+10	1
4902554	58	C	09/12/2022	23:10	-133.618	49.306	0	0.40	0	16.6283	0	32.2107	0	23.461	0	0.397	0	-1e10	8	-1e10	8	-1E+10	1	-1E+10	1	-1E+10	1	-1E+10	1	-1E+10	1	-1E+10	1
4902554	58	C	09/12/2022	23:10	-133.618	49.306	0	0.90	0	16.6300	0	32.2090	0	23.460	0	0.892	0	-1e10	8	-1e10	8	-1E+10	1	-1E+10	1	-1E+10	1	-1E+10	1	-1E+10	1	-1E+10	1
4902554	58	C	09/12/2022	23:10	-133.618	49.306	0	1.90	0	16.6290	0	32.2110	0	23.462	0	1.884	0	-1e10	8	-1e10	8	-1E+10	1	-1E+10	1	-1E+10	1	-1E+10	1	-1E+10	1	-1E+10	1
4902554	58	C	09/12/2022	23:10	-133.618	49.306	0	2.80	0	16.6280	0	32.2050	0	23.457	0	2.776	0	-1e10	8	-1e10	8	-1E+10	1	-1E+10	1	-1E+10	1	-1E+10	1	-1E+10	1	-1E+10	1
4902554	58	C	09/12/2022	23:10	-133.618	49.306	0	3.80	0	16.6270	0	32.2090	0	23.461	0	3.768	0	-1e10	8	-1e10	8	-1E+10	1	-1E+10	1	-1E+10	1	-1E+10	1	-1E+10	1	-1E+10	1
4902554	58	C	09/12/2022	23:10	-133.618	49.306	0	5.10	0	16.6220	0	32.2140	0	23.466	0	5.057	0	-1e10	8	-1e10	8	-1E+10	1	-1E+10	1	-1E+10	1	-1E+10	1	-1E+10	1	-1E+10	1
4902554	58	C	09/12/2022	23:10	-133.618	49.306	0	6.10	0	16.6230	0	32.2130	0	23.465	0	6.048	0	-1e10	8	-1e10	8	-1E+10	1	-1E+10	1	-1E+10	1	-1E+10	1	-1E+10	1	-1E+10	1
4902554	58	C	09/12/2022	23:10	-133.618	49.306	0	7.00	0	16.6210	0	32.2140	0	23.466	0	6.940	0	-1e10	8	-1e10	8	-1E+10	1	-1E+10	1	-1E+10	1	-1E+10	1	-1E+10	1	-1E+10	1
4902554	58	C	09/12/2022	23:10	-133.618	49.306	0	7.90	0	16.6220	0	32.2140	0	23.466	0	7.833	0	-1e10	8	-1e10	8	-1E+10	1	-1E+10	1	-1E+10	1	-1E+10	1	-1E+10	1	-1E+10	1
4902554	58	C	09/12/2022	23:10	-133.618	49.306	0	8.80	0	16.6210	0	32.2140	0	23.466	0	8.725	0	-1e10	8	-1e10	8	-1E+10	1	-1E+10	1	-1E+10	1	-1E+10	1	-1E+10	1	-1E+10	1
4902554	58	C	09/12/2022	23:10	-133.618	49.306	0	9.80	0	16.6230	0	32.2140	0	23.466	0	9.716	0	-1e10	8	-1e10	8	-1E+10	1	-1E+10	1	-1E+10	1	-1E+10	1	-1E+10	1	-1E+10	1
4902554	58	C	09/12/2022	23:10	-133.618	49.306	0	10.90	0	16.6240	0	32.2140	0	23.465	0	10.807	0	-1e10	8	-1e10	8	-1E+10	1	-1E+10	1	-1E+10	1	-1E+10	1	-1E+10	1	-1E+10	1
4902554	58	C	09/12/2022	23:10	-133.618	49.306	0	11.80	0	16.6200	0	32.2150	0	23.467	0	11.699	0	-1e10	8	-1e10	8	-1E+10	1	-1E+10	1	-1E+10	1	-1E+10	1	-1E+10	1	-1E+10	1
4902554	58	C	09/12/2022	23:10	-133.618	49.306	0	12.80	0	16.6130	0	32.2150	0	23.469	0	12.691	0	-1e10	8	-1e10	8	-1E+10	1	-1E+10	1	-1E+10	1	-1E+10	1	-1E+10	1	-1E+10	1
4902554	58	C	09/12/2022	23:10	-133.618	49.306	0	14.00	0	16.6060	0	32.2140	0	23.470	0	13.880	0	-1e10	8	-1e10	8	-1E+10	1	-1E+10	1	-1E+10	1	-1E+10	1	-1E+10	1	-1E+10	1
4902554	58	C	09/12/2022	23:10	-133.618	49.306	0	14.80	0	16.6110	0	32.2130	0	23.468	0	14.674	0	-1e10	8	-1e10	8	-1E+10	1	-1E+10	1	-1E+10	1	-1E+10	1	-1E+10	1	-1E+10	1
4902554	58	C	09/12/2022	23:10	-133.618	49.306	0	16.00	0	16.6100	0	32.2130	0	23.468	0	15.863	0	-1e10	8	-1e10	8	-1E+10	1	-1E+10	1	-1E+10	1	-1E+10	1	-1E+10	1	-1E+10	1
4902554	58	C	09/12/2022	23:10	-133.618	49.306	0	17.20	0	16.6070	0	32.2040	0	23.462	0	17.053	0	-1e10	8	-1e10	8	-1E+10	1	-1E+10	1	-1E+10	1	-1E+10	1	-1E+10	1	-1E+10	1
4902554	58	C	09/12/2022	23:10	-133.618	49.306	0	18.10	0	16.5980	0	32.2130	0	23.471	0	17.945	0	-1e10	8	-1e10	8	-1E+10	1	-1E+10	1	-1E+10	1	-1E+10	1	-1E+10	1	-1E+10	1
4902554	58	C	09/12/2022	23:10	-133.618	49.306	0	18.80	0	16.5980	0	32.2130	0	23.471	0	18.639	0	-1e10	8	-1e10	8	-1E+10	1	-1E+10	1	-1E+10	1	-1E+10	1	-1E+10	1	-1E+10	1
4902554	58	C	09/12/2022	23:10	-133.618	49.306	0	19.90	0	16.5860	0	32.2130	0	23.474	0	19.730	0	-1e10	8	-1e10	8	-1E+10	1	-1E+10	1	-1E+10	1	-1E+10	1	-1E+10	1	-1E+10	1
4902554	58	C	09/12/2022	23:10	-133.618	49.306	0	21.10	0	16.5860	0	32.2130	0	23.474	0	20.919	0	-1e10	8	-1e10	8	-1E+10	1	-1E+10	1	-1E+10	1	-1E+10	1	-1E+10	1	-1E+10	1
4902554	58	C	09/12/2022	23:10	-133.618	49.306	0	21.80	0	16.5840	0	32.2120	0	23.473	0	21.613	0	-1e10	8	-1e10	8	-1E+10	1	-1E+10	1	-1E+10	1	-1E+10	1	-1E+10	1	-1E+10	1
4902554	58	C	09/12/2022	23:10	-133.618	49.306	0	22.90	0	16.5850	0	32.2130	0	23.474	0	22.704	0	-1e10	8	-1e10	8	-1E+10	1	-1E+10	1	-1E+10	1	-1E+10	1	-1E+10	1	-1E+10	1
4902554	58	C	09/12/2022	23:10	-133.618	49.306	0	24.10	0	16.5860	0	32.2120	0	23.473	0	23.894	0	-1e10	8	-1e10	8	-1E+10	1	-1E+10	1	-1E+10	1	-1E+10	1	-1E+10	1	-1E+10	1
4902554	58	C	09/12/2022	23:10	-133.618	49.306	0	24.80	0	16.5830	0	32.2120	0	23.474	0	24.587	0	-1e10	8	-1e10	8	-1E+10	1	-1E+10	1	-1E+10	1	-1E+10	1	-1E+10	1	-1E+10	1
4902554	58	C	09/12/2022	23:10	-133.618	49.306	0	25.80	0	16.5820	0	32.2120	0	23.474	0	25.579	0	-1e10	8	-1e10	8	-1E+10	1	-1E+10	1	-1E+10	1	-1E+10	1	-1E+10	1	-1E+10	1
4902554	58	C	09/12/2022	23:10	-133.618	49.306	0	27.10	0	16.5800	0	32.2130	0	23.475	0	26.868	0	-1e10	8	-1e10	8	-1E+10	1	-1E+10	1	-1E+10	1	-1E+10	1	-1E+10	1	-1E+10	1
4902554	58	C	09/12/2022	23:10	-133.618	49.306	0	28.00	0	16.5770	0	32.2130	0	23.476	0	27.760	0	-1e10	8	-1e10	8	-1E+10	1	-1E+10	1	-1E+10	1	-1E+10	1	-1E+10	1	-1E+10	1
4902554	58	C	09/12/2022	23:10	-133.618	49.306	0	28.80	0	16.5520	0	32.2110	0	23.480	0	28.553	0	-1e10	8	-1e10	8	-1E+10	1	-1E+10	1	-1E+10	1	-1E+10	1	-1E+10	1	-1E+10	1
4902554	58	C	09/12/2022	23:10	-133.618	49.306	0	29.90	0	16.4540	0	32.2110	0	23.503	0	29.643	0	-1e10	8	-1e10	8	-1E+10	1	-1E+10	1	-1E+10	1	-1E+10	1	-1E+10	1	-1E+10	1
4902554	58	C	09/12/2022	23:10	-133.618	49.306	0	31.00	0	16.1710	0	32.2050	0	23.562	0	30.734	0	-1e10	8	-1e10	8	-1E+10	1	-1E+10	1	-1E+10	1	-1E+10	1	-1E+10	1	-1E+10	1
4902554	58	C	09/12/2022	23:10	-133.618	49.306	0	32.00	0	15.6040	0	32.2030	0	23.687	0	31.725	0	-1e10	8	-1e10	8	-1E+10	1	-1E+10	1	-1E+10	1	-1E+10	1	-1E+10	1	-1E+10	1
4902554	58	C	09/12/2022	23:10	-133.618	49.306	0	33.10	0	14.9030	0	32.2060	0	23.841	0	32.816	0	-1e10	8	-1e10	8	-1E+10	1	-1E+10	1	-1E+10	1	-1E+10	1	-1E+10	1	-1E+10	1
4902554	58	C	09/12/2022	23:10	-133.618	49.306	0	34.10	0	14.6550	0	32.1960	0	23.886	0	33.807	0	-1e10	8	-1e10	8	-1E+10	1	-1E+10	1	-1E+10	1	-1E+10	1	-1E+10	1	-1E+10	1
4902554	58	C	09/12/2022	23:10	-133.618	49.306	0	34.90	0	14.4120	0	32.2170	0	23.954	0	34.600	0	-1e10	8	-1e10	8	-1E+10	1	-1E+10	1	-1E+10	1	-1E+10	1	-1E+10	1	-1E+10	1
4902554	58	C	09/12/2022	23:10	-133.618	49.306	0	35.90	0	13.5790	0	32.2000	0	24.111	0	35.591	0	-1e10	8	-1e10	8	-1E+10	1	-1E+10	1	-1E+10	1	-1E+10	1	-1E+10	1	-1E+10	1
4902554	58	C	09/12/2022	23:10	-133.618	49.306	0	36.90	0	12.9510	0	32.2030	0	24.238	0	36.583	0	-1e10	8	-1e10	8	-1E+10	1	-1E+10	1	-1E+10	1	-1E+10	1	-1E+10	1	-1E+10	1
4902554	58	C	09/12/2022	23:10	-133.618	49.306	0	38.10	0	10.7850	0	32.2580	0	24.680	0	37.772	0	-1e10	8	-1e10	8	-1E+10	1	-1E+10	1	-1E+10	1	-1E+10	1	-1E+10	1	-1E+10	1
4902554	58	C	09/12/2022	23:10	-133.618	49.306	0	38.90	0	10.6080	0	32.2580	0	24.710	0	38.565	0	-1e10	8	-1e10	8	-1E+10	1	-1E+10	1	-1E+10	1	-1E+10	1	-1E+10	1	-1E+10	1
4902554	58	C	09/12/2022	23:10	-133.618	49.306	0	40.00	0	10.3790	0	32.2640	0	24.754	0	39.656	0	-1e10	8	-1e10	8	-1E+10	1	-1E+10	1	-1E+10	1	-1E+10	1	-1E+10	1	-1E+10	1
4902554	58	C	09/12/2022	23:10	-133.618	49.306	0	41.20	0	10.0350	0	32.2760	0	24.821	0	40.845	0	-1e10	8	-1e10	8	-1E+10	1	-1E+10	1	-1E+10	1	-1E+10	1	-1E+10	1	-1E+10	1
4902554	58	C	09/12/2022	23:10	-133.618	49.306	0	42.00	0	9.9610	0	32.2730	0	24.831	0	41.638	0	-1e10	8	-1e10	8	-1E+10	1	-1E+10	1	-1E+10	1	-1E+10	1	-1E+10	1	-1E+10	1
4902554	58	C	09/12/2022	23:10	-133.618	49.306	0	42.70	0	9.7830	0	32.3110	0	24.890	0	42.332	0	-1e10	8	-1e10	8	-1E+10	1	-1E+10	1	-1E+10	1	-1E+10	1	-1E+10	1	-1E+10	1
4902554	58	C	09/12/2022	23:10	-133.618	49.306	0	43.70	0	9.4890	0	32.3060	0	24.933	0	43.324	0	-1e10	8	-1e10	8	-1E+10	1	-1E+10	1	-1E+10	1	-1E+10	1	-1E+10	1	-1E+10	1
4902554	58	C	09/12/2022	23:10	-133.618	49.306	0	44.80	0	9.3880	0	32.2930	0	24.939	0	44.414	0	-1e10	8	-1e10	8	-1E+10	1	-1E+10	1	-1E+10	1	-1E+10	1	-1E+10	1	-1E+10	1
4902554	58	C	09/12/2022	23:10	-133.618	49.306	0	45.90	0	9.3200	0	32.2920	0	24.949	0	45.504	0	-1e10	8	-1e10	8	-1E+10	1	-1E+10	1	-1E+10	1	-1E+10	1	-1E+10	1	-1E+10	1
4902554	58	C	09/12/2022	23:10	-133.618	49.306	0	47.00	0	9.1880	0	32.2990	0	24.976	0	46.595	0	-1e10	8	-1e10	8	-1E+10	1	-1E+10	1	-1E+10	1	-1E+10	1	-1E+10	1	-1E+10	1
4902554	58	C	09/12/2022	23:10	-133.618	49.306	0	47.90	0	8.9820	0	32.3090	0	25.015	0	47.487	0	-1e10	8	-1e10	8	-1E+10	1	-1E+10	1	-1E+10	1	-1E+10	1	-1E+10	1	-1E+10	1
4902554	58	C	09/12/2022	23:10	-133.618	49.306	0	48.70	0	8.9040	0	32.3090	0	25.027	0	48.280	0	-1e10	8	-1e10	8	-1E+10	1	-1E+10	1	-1E+10	1	-1E+10	1	-1E+10	1	-1E+10	1
4902554	58	C	09/12/2022	23:10	-133.618	49.306	0	49.90	0	8.8180	0	32.3050	0	25.038	0	49.469	0	-1e10	8	-1e10	8	-1E+10	1	-1E+10	1	-1E+10	1	-1E+10	1	-1E+10	1	-1E+10	1
4902554	58	C	09/12/2022	23:10	-133.618	49.306	0	51.00	0	8.6840	0	32.3210	0	25.070	0	50.560	0	-1e10	8	-1e10	8	-1E+10	1	-1E+10	1	-1E+10	1	-1E+10	1	-1E+10	1	-1E+10	1
4902554	58	C	09/12/2022	23:10	-133.618	49.306	0	52.10	0	8.6340	0	32.3190	0	25.076	0	51.650	0	-1e10	8	-1e10	8	-1E+10	1	-1E+10	1	-1E+10	1	-1E+10	1	-1E+10	1	-1E+10	1
4902554	58	C	09/12/2022	23:10	-133.618	49.306	0	53.00	0	8.5450	0	32.3200	0	25.091	0	52.542	0	-1e10	8	-1e10	8	-1E+10	1	-1E+10	1	-1E+10	1	-1E+10	1	-1E+10	1	-1E+10	1
4902554	58	C	09/12/2022	23:10	-133.618	49.306	0	53.90	0	8.4240	0	32.3340	0	25.120	0	53.434	0	-1e10	8	-1e10	8	-1E+10	1	-1E+10	1	-1E+10	1	-1E+10	1	-1E+10	1	-1E+10	1
4902554	58	C	09/12/2022	23:10	-133.618	49.306	0	54.90	0	8.3630	0	32.3290	0	25.125	0	54.426	0	-1e10	8	-1e10	8	-1E+10	1	-1E+10	1	-1E+10	1	-1E+10	1	-1E+10	1	-1E+10	1
4902554	58	C	09/12/2022	23:10	-133.618	49.306	0	56.00	0	8.3240	0	32.3260	0	25.128	0	55.516	0	-1e10	8	-1e10	8	-1E+10	1	-1E+10	1	-1E+10	1	-1E+10	1	-1E+10	1	-1E+10	1
4902554	58	C	09/12/2022	23:10	-133.618	49.306	0	56.90	0	8.1910	0	32.3270	0	25.149	0	56.408	0	-1e10	8	-1e10	8	-1E+10	1	-1E+10	1	-1E+10	1	-1E+10	1	-1E+10	1	-1E+10	1
4902554	58	C	09/12/2022	23:10	-133.618	49.306	0	58.00	0	8.0240	0	32.3270	0	25.173	0	57.498	0	-1e10	8	-1e10	8	-1E+10	1	-1E+10	1	-1E+10	1	-1E+10	1	-1E+10	1	-1E+10	1
4902554	58	C	09/12/2022	23:10	-133.618	49.306	0	59.10	0	7.9510	0	32.3270	0	25.183	0	58.589	0	-1e10	8	-1e10	8	-1E+10	1	-1E+10	1	-1E+10	1	-1E+10	1	-1E+10	1	-1E+10	1
4902554	58	C	09/12/2022	23:10	-133.618	49.306	0	60.00	0	7.9300	0	32.3260	0	25.186	0	59.481	0	-1e10	8	-1e10	8	-1E+10	1	-1E+10	1	-1E+10	1	-1E+10	1	-1E+10	1	-1E+10	1
4902554	58	C	09/12/2022	23:10	-133.618	49.306	0	61.10	0	7.7930	0	32.3310	0	25.209	0	60.571	0	-1e10	8	-1e10	8	-1E+10	1	-1E+10	1	-1E+10	1	-1E+10	1	-1E+10	1	-1E+10	1
4902554	58	C	09/12/2022	23:10	-133.618	49.306	0	62.00	0	7.7210	0	32.3330	0	25.221	0	61.463	0	-1e10	8	-1e10	8	-1E+10	1	-1E+10	1	-1E+10	1	-1E+10	1	-1E+10	1	-1E+10	1
4902554	58	C	09/12/2022	23:10	-133.618	49.306	0	62.90	0	7.6930	0	32.3330	0	25.225	0	62.355	0	-1e10	8	-1e10	8	-1E+10	1	-1E+10	1	-1E+10	1	-1E+10	1	-1E+10	1	-1E+10	1
4902554	58	C	09/12/2022	23:10	-133.618	49.306	0	63.90	0	7.6630	0	32.3350	0	25.230	0	63.346	0	-1e10	8	-1e10	8	-1E+10	1	-1E+10	1	-1E+10	1	-1E+10	1	-1E+10	1	-1E+10	1
4902554	58	C	09/12/2022	23:10	-133.618	49.306	0	64.90	0	7.6420	0	32.3360	0	25.234	0	64.338	0	-1e10	8	-1e10	8	-1E+10	1	-1E+10	1	-1E+10	1	-1E+10	1	-1E+10	1	-1E+10	1
4902554	58	C	09/12/2022	23:10	-133.618	49.306	0	66.10	0	7.6340	0	32.3330	0	25.233	0	65.527	0	-1e10	8	-1e10	8	-1E+10	1	-1E+10	1	-1E+10	1	-1E+10	1	-1E+10	1	-1E+10	1
4902554	58	C	09/12/2022	23:10	-133.618	49.306	0	67.00	0	7.5820	0	32.3370	0	25.243	0	66.419	0	-1e10	8	-1e10	8	-1E+10	1	-1E+10	1	-1E+10	1	-1E+10	1	-1E+10	1	-1E+10	1
4902554	58	C	09/12/2022	23:10	-133.618	49.306	0	68.20	0	7.5450	0	32.3380	0	25.249	0	67.608	0	-1e10	8	-1e10	8	-1E+10	1	-1E+10	1	-1E+10	1	-1E+10	1	-1E+10	1	-1E+10	1
4902554	58	C	09/12/2022	23:10	-133.618	49.306	0	68.80	0	7.5350	0	32.3390	0	25.252	0	68.203	0	-1e10	8	-1e10	8	-1E+10	1	-1E+10	1	-1E+10	1	-1E+10	1	-1E+10	1	-1E+10	1
4902554	58	C	09/12/2022	23:10	-133.618	49.306	0	69.90	0	7.5160	0	32.3410	0	25.256	0	69.293	0	-1e10	8	-1e10	8	-1E+10	1	-1E+10	1	-1E+10	1	-1E+10	1	-1E+10	1	-1E+10	1
4902554	58	C	09/12/2022	23:10	-133.618	49.306	0	71.10	0	7.4970	0	32.3410	0	25.258	0	70.483	0	-1e10	8	-1e10	8	-1E+10	1	-1E+10	1	-1E+10	1	-1E+10	1	-1E+10	1	-1E+10	1
4902554	58	C	09/12/2022	23:10	-133.618	49.306	0	71.90	0	7.4580	0	32.3430	0	25.265	0	71.276	0	-1e10	8	-1e10	8	-1E+10	1	-1E+10	1	-1E+10	1	-1E+10	1	-1E+10	1	-1E+10	1
4902554	58	C	09/12/2022	23:10	-133.618	49.306	0	73.10	0	7.4030	0	32.3460	0	25.275	0	72.465	0	-1e10	8	-1e10	8	-1E+10	1	-1E+10	1	-1E+10	1	-1E+10	1	-1E+10	1	-1E+10	1
4902554	58	C	09/12/2022	23:10	-133.618	49.306	0	73.80	0	7.3840	0	32.3460	0	25.278	0	73.159	0	-1e10	8	-1e10	8	-1E+10	1	-1E+10	1	-1E+10	1	-1E+10	1	-1E+10	1	-1E+10	1
4902554	58	C	09/12/2022	23:10	-133.618	49.306	0	75.00	0	7.3460	0	32.3490	0	25.285	0	74.348	0	-1e10	8	-1e10	8	-1E+10	1	-1E+10	1	-1E+10	1	-1E+10	1	-1E+10	1	-1E+10	1
4902554	58	C	09/12/2022	23:10	-133.618	49.306	0	76.20	0	7.3010	0	32.3520	0	25.294	0	75.538	0	-1e10	8	-1e10	8	-1E+10	1	-1E+10	1	-1E+10	1	-1E+10	1	-1E+10	1	-1E+10	1
4902554	58	C	09/12/2022	23:10	-133.618	49.306	0	77.00	0	7.2900	0	32.3530	0	25.296	0	76.330	0	-1e10	8	-1e10	8	-1E+10	1	-1E+10	1	-1E+10	1	-1E+10	1	-1E+10	1	-1E+10	1
4902554	58	C	09/12/2022	23:10	-133.618	49.306	0	78.20	0	7.2720	0	32.3530	0	25.299	0	77.520	0	-1e10	8	-1e10	8	-1E+10	1	-1E+10	1	-1E+10	1	-1E+10	1	-1E+10	1	-1E+10	1
4902554	58	C	09/12/2022	23:10	-133.618	49.306	0	79.10	0	7.2630	0	32.3530	0	25.300	0	78.412	0	-1e10	8	-1e10	8	-1E+10	1	-1E+10	1	-1E+10	1	-1E+10	1	-1E+10	1	-1E+10	1
4902554	58	C	09/12/2022	23:10	-133.618	49.306	0	80.10	0	7.2340	0	32.3560	0	25.306	0	79.403	0	-1e10	8	-1e10	8	-1E+10	1	-1E+10	1	-1E+10	1	-1E+10	1	-1E+10	1	-1E+10	1
4902554	58	C	09/12/2022	23:10	-133.618	49.306	0	80.90	0	7.2110	0	32.3600	0	25.313	0	80.196	0	-1e10	8	-1e10	8	-1E+10	1	-1E+10	1	-1E+10	1	-1E+10	1	-1E+10	1	-1E+10	1
4902554	58	C	09/12/2022	23:10	-133.618	49.306	0	82.10	0	7.1940	0	32.3610	0	25.316	0	81.385	0	-1e10	8	-1e10	8	-1E+10	1	-1E+10	1	-1E+10	1	-1E+10	1	-1E+10	1	-1E+10	1
4902554	58	C	09/12/2022	23:10	-133.618	49.306	0	82.90	0	7.1540	0	32.3640	0	25.323	0	82.178	0	-1e10	8	-1e10	8	-1E+10	1	-1E+10	1	-1E+10	1	-1E+10	1	-1E+10	1	-1E+10	1
4902554	58	C	09/12/2022	23:10	-133.618	49.306	0	84.30	0	7.0860	0	32.3690	0	25.336	0	83.566	0	-1e10	8	-1e10	8	-1E+10	1	-1E+10	1	-1E+10	1	-1E+10	1	-1E+10	1	-1E+10	1
4902554	58	C	09/12/2022	23:10	-133.618	49.306	0	85.20	0	7.0600	0	32.3690	0	25.340	0	84.458	0	-1e10	8	-1e10	8	-1E+10	1	-1E+10	1	-1E+10	1	-1E+10	1	-1E+10	1	-1E+10	1
4902554	58	C	09/12/2022	23:10	-133.618	49.306	0	86.10	0	7.0290	0	32.3810	0	25.354	0	85.349	0	-1e10	8	-1e10	8	-1E+10	1	-1E+10	1	-1E+10	1	-1E+10	1	-1E+10	1	-1E+10	1
4902554	58	C	09/12/2022	23:10	-133.618	49.306	0	87.00	0	6.9970	0	32.3830	0	25.359	0	86.241	0	-1e10	8	-1e10	8	-1E+10	1	-1E+10	1	-1E+10	1	-1E+10	1	-1E+10	1	-1E+10	1
4902554	58	C	09/12/2022	23:10	-133.618	49.306	0	87.90	0	6.9900	0	32.3830	0	25.360	0	87.133	0	-1e10	8	-1e10	8	-1E+10	1	-1E+10	1	-1E+10	1	-1E+10	1	-1E+10	1	-1E+10	1
4902554	58	C	09/12/2022	23:10	-133.618	49.306	0	89.00	0	6.9720	0	32.3880	0	25.367	0	88.224	0	-1e10	8	-1e10	8	-1E+10	1	-1E+10	1	-1E+10	1	-1E+10	1	-1E+10	1	-1E+10	1
4902554	58	C	09/12/2022	23:10	-133.618	49.306	0	90.20	0	6.9550	0	32.3910	0	25.371	0	89.413	0	-1e10	8	-1e10	8	-1E+10	1	-1E+10	1	-1E+10	1	-1E+10	1	-1E+10	1	-1E+10	1
4902554	58	C	09/12/2022	23:10	-133.618	49.306	0	90.90	0	6.9190	0	32.4020	0	25.385	0	90.107	0	-1e10	8	-1e10	8	-1E+10	1	-1E+10	1	-1E+10	1	-1E+10	1	-1E+10	1	-1E+10	1
4902554	58	C	09/12/2022	23:10	-133.618	49.306	0	92.00	0	6.8740	0	32.4150	0	25.401	0	91.197	0	-1e10	8	-1e10	8	-1E+10	1	-1E+10	1	-1E+10	1	-1E+10	1	-1E+10	1	-1E+10	1
4902554	58	C	09/12/2022	23:10	-133.618	49.306	0	93.20	0	6.8540	0	32.4220	0	25.409	0	92.386	0	-1e10	8	-1e10	8	-1E+10	1	-1E+10	1	-1E+10	1	-1E+10	1	-1E+10	1	-1E+10	1
4902554	58	C	09/12/2022	23:10	-133.618	49.306	0	93.90	0	6.8370	0	32.4300	0	25.418	0	93.080	0	-1e10	8	-1e10	8	-1E+10	1	-1E+10	1	-1E+10	1	-1E+10	1	-1E+10	1	-1E+10	1
4902554	58	C	09/12/2022	23:10	-133.618	49.306	0	95.20	0	6.8180	0	32.4410	0	25.429	0	94.368	0	-1e10	8	-1e10	8	-1E+10	1	-1E+10	1	-1E+10	1	-1E+10	1	-1E+10	1	-1E+10	1
4902554	58	C	09/12/2022	23:10	-133.618	49.306	0	96.00	0	6.7850	0	32.4670	0	25.454	0	95.161	0	-1e10	8	-1e10	8	-1E+10	1	-1E+10	1	-1E+10	1	-1E+10	1	-1E+10	1	-1E+10	1
4902554	58	C	09/12/2022	23:10	-133.618	49.306	0	97.10	0	6.7750	0	32.4740	0	25.460	0	96.251	0	-1e10	8	-1e10	8	-1E+10	1	-1E+10	1	-1E+10	1	-1E+10	1	-1E+10	1	-1E+10	1
4902554	58	C	09/12/2022	23:10	-133.618	49.306	0	98.10	0	6.7670	0	32.4790	0	25.465	0	97.242	0	-1e10	8	-1e10	8	-1E+10	1	-1E+10	1	-1E+10	1	-1E+10	1	-1E+10	1	-1E+10	1
4902554	58	C	09/12/2022	23:10	-133.618	49.306	0	99.10	0	6.7370	0	32.5040	0	25.489	0	98.233	0	-1e10	8	-1e10	8	-1E+10	1	-1E+10	1	-1E+10	1	-1E+10	1	-1E+10	1	-1E+10	1
4902554	58	C	09/12/2022	23:10	-133.618	49.306	0	100.10	0	6.7030	0	32.5350	0	25.518	0	99.224	0	-1e10	8	-1e10	8	-1E+10	1	-1E+10	1	-1E+10	1	-1E+10	1	-1E+10	1	-1E+10	1
4902554	58	C	09/12/2022	23:10	-133.618	49.306	0	101.30	0	6.6770	0	32.5660	0	25.546	0	100.413	0	-1e10	8	-1e10	8	-1E+10	1	-1E+10	1	-1E+10	1	-1E+10	1	-1E+10	1	-1E+10	1
4902554	58	C	09/12/2022	23:10	-133.618	49.306	0	102.10	0	6.6750	0	32.5680	0	25.548	0	101.206	0	-1e10	8	-1e10	8	-1E+10	1	-1E+10	1	-1E+10	1	-1E+10	1	-1E+10	1	-1E+10	1
4902554	58	C	09/12/2022	23:10	-133.618	49.306	0	103.00	0	6.6500	0	32.5900	0	25.568	0	102.098	0	-1e10	8	-1e10	8	-1E+10	1	-1E+10	1	-1E+10	1	-1E+10	1	-1E+10	1	-1E+10	1
4902554	58	C	09/12/2022	23:10	-133.618	49.306	0	103.90	0	6.6320	0	32.6090	0	25.585	0	102.990	0	-1e10	8	-1e10	8	-1E+10	1	-1E+10	1	-1E+10	1	-1E+10	1	-1E+10	1	-1E+10	1
4902554	58	C	09/12/2022	23:10	-133.618	49.306	0	104.90	0	6.6130	0	32.6370	0	25.610	0	103.981	0	-1e10	8	-1e10	8	-1E+10	1	-1E+10	1	-1E+10	1	-1E+10	1	-1E+10	1	-1E+10	1
4902554	58	C	09/12/2022	23:10	-133.618	49.306	0	105.90	0	6.6010	0	32.6480	0	25.620	0	104.972	0	-1e10	8	-1e10	8	-1E+10	1	-1E+10	1	-1E+10	1	-1E+10	1	-1E+10	1	-1E+10	1
4902554	58	C	09/12/2022	23:10	-133.618	49.306	0	106.90	0	6.5950	0	32.6550	0	25.627	0	105.963	0	-1e10	8	-1e10	8	-1E+10	1	-1E+10	1	-1E+10	1	-1E+10	1	-1E+10	1	-1E+10	1
4902554	58	C	09/12/2022	23:10	-133.618	49.306	0	108.00	0	6.5820	0	32.6760	0	25.645	0	107.053	0	-1e10	8	-1e10	8	-1E+10	1	-1E+10	1	-1E+10	1	-1E+10	1	-1E+10	1	-1E+10	1
4902554	58	C	09/12/2022	23:10	-133.618	49.306	0	109.10	0	6.5550	0	32.6970	0	25.665	0	108.143	0	-1e10	8	-1e10	8	-1E+10	1	-1E+10	1	-1E+10	1	-1E+10	1	-1E+10	1	-1E+10	1
4902554	58	C	09/12/2022	23:10	-133.618	49.306	0	109.90	0	6.5350	0	32.7160	0	25.682	0	108.936	0	-1e10	8	-1e10	8	-1E+10	1	-1E+10	1	-1E+10	1	-1E+10	1	-1E+10	1	-1E+10	1
4902554	58	C	09/12/2022	23:10	-133.618	49.306	0	111.00	0	6.5240	0	32.7300	0	25.695	0	110.026	0	-1e10	8	-1e10	8	-1E+10	1	-1E+10	1	-1E+10	1	-1E+10	1	-1E+10	1	-1E+10	1
4902554	58	C	09/12/2022	23:10	-133.618	49.306	0	112.00	0	6.5210	0	32.7370	0	25.701	0	111.017	0	-1e10	8	-1e10	8	-1E+10	1	-1E+10	1	-1E+10	1	-1E+10	1	-1E+10	1	-1E+10	1
4902554	58	C	09/12/2022	23:10	-133.618	49.306	0	112.90	0	6.5070	0	32.7500	0	25.713	0	111.909	0	-1e10	8	-1e10	8	-1E+10	1	-1E+10	1	-1E+10	1	-1E+10	1	-1E+10	1	-1E+10	1
4902554	58	C	09/12/2022	23:10	-133.618	49.306	0	113.90	0	6.4500	0	32.7910	0	25.752	0	112.900	0	-1e10	8	-1e10	8	-1E+10	1	-1E+10	1	-1E+10	1	-1E+10	1	-1E+10	1	-1E+10	1
4902554	58	C	09/12/2022	23:10	-133.618	49.306	0	114.90	0	6.3790	0	32.8620	0	25.817	0	113.890	0	-1e10	8	-1e10	8	-1E+10	1	-1E+10	1	-1E+10	1	-1E+10	1	-1E+10	1	-1E+10	1
4902554	58	C	09/12/2022	23:10	-133.618	49.306	0	116.10	0	6.3140	0	32.9330	0	25.882	0	115.080	0	-1e10	8	-1e10	8	-1E+10	1	-1E+10	1	-1E+10	1	-1E+10	1	-1E+10	1	-1E+10	1
4902554	58	C	09/12/2022	23:10	-133.618	49.306	0	116.70	0	6.2920	0	32.9640	0	25.909	0	115.674	0	-1e10	8	-1e10	8	-1E+10	1	-1E+10	1	-1E+10	1	-1E+10	1	-1E+10	1	-1E+10	1
4902554	58	C	09/12/2022	23:10	-133.618	49.306	0	117.70	0	6.2690	0	33.0060	0	25.945	0	116.665	0	-1e10	8	-1e10	8	-1E+10	1	-1E+10	1	-1E+10	1	-1E+10	1	-1E+10	1	-1E+10	1
4902554	58	C	09/12/2022	23:10	-133.618	49.306	0	118.70	0	6.2490	0	33.0540	0	25.985	0	117.656	0	-1e10	8	-1e10	8	-1E+10	1	-1E+10	1	-1E+10	1	-1E+10	1	-1E+10	1	-1E+10	1
4902554	58	C	09/12/2022	23:10	-133.618	49.306	0	119.90	0	6.2320	0	33.0830	0	26.011	0	118.845	0	-1e10	8	-1e10	8	-1E+10	1	-1E+10	1	-1E+10	1	-1E+10	1	-1E+10	1	-1E+10	1
4902554	58	C	09/12/2022	23:10	-133.618	49.306	0	120.80	0	6.2030	0	33.1230	0	26.046	0	119.737	0	-1e10	8	-1e10	8	-1E+10	1	-1E+10	1	-1E+10	1	-1E+10	1	-1E+10	1	-1E+10	1
4902554	58	C	09/12/2022	23:10	-133.618	49.306	0	121.80	0	6.1890	0	33.1440	0	26.064	0	120.728	0	-1e10	8	-1e10	8	-1E+10	1	-1E+10	1	-1E+10	1	-1E+10	1	-1E+10	1	-1E+10	1
4902554	58	C	09/12/2022	23:10	-133.618	49.306	0	122.90	0	6.1640	0	33.1910	0	26.104	0	121.818	0	-1e10	8	-1e10	8	-1E+10	1	-1E+10	1	-1E+10	1	-1E+10	1	-1E+10	1	-1E+10	1
4902554	58	C	09/12/2022	23:10	-133.618	49.306	0	124.00	0	6.1520	0	33.2220	0	26.130	0	122.908	0	-1e10	8	-1e10	8	-1E+10	1	-1E+10	1	-1E+10	1	-1E+10	1	-1E+10	1	-1E+10	1
4902554	58	C	09/12/2022	23:10	-133.618	49.306	0	125.20	0	6.1500	0	33.2250	0	26.133	0	124.097	0	-1e10	8	-1e10	8	-1E+10	1	-1E+10	1	-1E+10	1	-1E+10	1	-1E+10	1	-1E+10	1
4902554	58	C	09/12/2022	23:10	-133.618	49.306	0	126.00	0	6.1480	0	33.2280	0	26.136	0	124.890	0	-1e10	8	-1e10	8	-1E+10	1	-1E+10	1	-1E+10	1	-1E+10	1	-1E+10	1	-1E+10	1
4902554	58	C	09/12/2022	23:10	-133.618	49.306	0	126.90	0	6.1370	0	33.2420	0	26.148	0	125.781	0	-1e10	8	-1e10	8	-1E+10	1	-1E+10	1	-1E+10	1	-1E+10	1	-1E+10	1	-1E+10	1
4902554	58	C	09/12/2022	23:10	-133.618	49.306	0	127.70	0	6.1350	0	33.2450	0	26.151	0	126.574	0	-1e10	8	-1e10	8	-1E+10	1	-1E+10	1	-1E+10	1	-1E+10	1	-1E+10	1	-1E+10	1
4902554	58	C	09/12/2022	23:10	-133.618	49.306	0	129.00	0	6.1310	0	33.2500	0	26.155	0	127.862	0	-1e10	8	-1e10	8	-1E+10	1	-1E+10	1	-1E+10	1	-1E+10	1	-1E+10	1	-1E+10	1
4902554	58	C	09/12/2022	23:10	-133.618	49.306	0	130.30	0	6.1270	0	33.2560	0	26.160	0	129.150	0	-1e10	8	-1e10	8	-1E+10	1	-1E+10	1	-1E+10	1	-1E+10	1	-1E+10	1	-1E+10	1
4902554	58	C	09/12/2022	23:10	-133.618	49.306	0	131.20	0	6.0890	0	33.3090	0	26.207	0	130.042	0	-1e10	8	-1e10	8	-1E+10	1	-1E+10	1	-1E+10	1	-1E+10	1	-1E+10	1	-1E+10	1
4902554	58	C	09/12/2022	23:10	-133.618	49.306	0	132.20	0	6.0720	0	33.3290	0	26.225	0	131.033	0	-1e10	8	-1e10	8	-1E+10	1	-1E+10	1	-1E+10	1	-1E+10	1	-1E+10	1	-1E+10	1
4902554	58	C	09/12/2022	23:10	-133.618	49.306	0	133.20	0	6.0420	0	33.3590	0	26.252	0	132.024	0	-1e10	8	-1e10	8	-1E+10	1	-1E+10	1	-1E+10	1	-1E+10	1	-1E+10	1	-1E+10	1
4902554	58	C	09/12/2022	23:10	-133.618	49.306	0	134.10	0	6.0350	0	33.3690	0	26.261	0	132.916	0	-1e10	8	-1e10	8	-1E+10	1	-1E+10	1	-1E+10	1	-1E+10	1	-1E+10	1	-1E+10	1
4902554	58	C	09/12/2022	23:10	-133.618	49.306	0	135.10	0	6.0330	0	33.3720	0	26.264	0	133.906	0	-1e10	8	-1e10	8	-1E+10	1	-1E+10	1	-1E+10	1	-1E+10	1	-1E+10	1	-1E+10	1
4902554	58	C	09/12/2022	23:10	-133.618	49.306	0	136.10	0	6.0320	0	33.3740	0	26.265	0	134.897	0	-1e10	8	-1e10	8	-1E+10	1	-1E+10	1	-1E+10	1	-1E+10	1	-1E+10	1	-1E+10	1
4902554	58	C	09/12/2022	23:10	-133.618	49.306	0	137.10	0	6.0260	0	33.3790	0	26.270	0	135.888	0	-1e10	8	-1e10	8	-1E+10	1	-1E+10	1	-1E+10	1	-1E+10	1	-1E+10	1	-1E+10	1
4902554	58	C	09/12/2022	23:10	-133.618	49.306	0	138.10	0	6.0190	0	33.3860	0	26.277	0	136.879	0	-1e10	8	-1e10	8	-1E+10	1	-1E+10	1	-1E+10	1	-1E+10	1	-1E+10	1	-1E+10	1
4902554	58	C	09/12/2022	23:10	-133.618	49.306	0	139.10	0	6.0160	0	33.3890	0	26.279	0	137.870	0	-1e10	8	-1e10	8	-1E+10	1	-1E+10	1	-1E+10	1	-1E+10	1	-1E+10	1	-1E+10	1
4902554	58	C	09/12/2022	23:10	-133.618	49.306	0	140.00	0	6.0050	0	33.4040	0	26.293	0	138.762	0	-1e10	8	-1e10	8	-1E+10	1	-1E+10	1	-1E+10	1	-1E+10	1	-1E+10	1	-1E+10	1
4902554	58	C	09/12/2022	23:10	-133.618	49.306	0	141.00	0	5.9980	0	33.4130	0	26.301	0	139.752	0	-1e10	8	-1e10	8	-1E+10	1	-1E+10	1	-1E+10	1	-1E+10	1	-1E+10	1	-1E+10	1
4902554	58	C	09/12/2022	23:10	-133.618	49.306	0	142.00	0	5.9950	0	33.4150	0	26.303	0	140.743	0	-1e10	8	-1e10	8	-1E+10	1	-1E+10	1	-1E+10	1	-1E+10	1	-1E+10	1	-1E+10	1
4902554	58	C	09/12/2022	23:10	-133.618	49.306	0	142.90	0	5.9850	0	33.4250	0	26.312	0	141.635	0	-1e10	8	-1e10	8	-1E+10	1	-1E+10	1	-1E+10	1	-1E+10	1	-1E+10	1	-1E+10	1
4902554	58	C	09/12/2022	23:10	-133.618	49.306	0	143.90	0	5.9700	0	33.4370	0	26.323	0	142.626	0	-1e10	8	-1e10	8	-1E+10	1	-1E+10	1	-1E+10	1	-1E+10	1	-1E+10	1	-1E+10	1
4902554	58	C	09/12/2022	23:10	-133.618	49.306	0	144.80	0	5.9530	0	33.4550	0	26.339	0	143.517	0	-1e10	8	-1e10	8	-1E+10	1	-1E+10	1	-1E+10	1	-1E+10	1	-1E+10	1	-1E+10	1
4902554	58	C	09/12/2022	23:10	-133.618	49.306	0	145.70	0	5.9460	0	33.4610	0	26.345	0	144.409	0	-1e10	8	-1e10	8	-1E+10	1	-1E+10	1	-1E+10	1	-1E+10	1	-1E+10	1	-1E+10	1
4902554	58	C	09/12/2022	23:10	-133.618	49.306	0	146.60	0	5.9350	0	33.4760	0	26.358	0	145.301	0	-1e10	8	-1e10	8	-1E+10	1	-1E+10	1	-1E+10	1	-1E+10	1	-1E+10	1	-1E+10	1
4902554	58	C	09/12/2022	23:10	-133.618	49.306	0	147.90	0	5.9070	0	33.5100	0	26.389	0	146.589	0	-1e10	8	-1e10	8	-1E+10	1	-1E+10	1	-1E+10	1	-1E+10	1	-1E+10	1	-1E+10	1
4902554	58	C	09/12/2022	23:10	-133.618	49.306	0	149.90	0	5.8860	0	33.5360	0	26.412	0	148.570	0	-1e10	8	-1e10	8	-1E+10	1	-1E+10	1	-1E+10	1	-1E+10	1	-1E+10	1	-1E+10	1
4902554	58	C	09/12/2022	23:10	-133.618	49.306	0	151.30	0	5.8780	0	33.5440	0	26.419	0	149.957	0	-1e10	8	-1e10	8	-1E+10	1	-1E+10	1	-1E+10	1	-1E+10	1	-1E+10	1	-1E+10	1
4902554	58	C	09/12/2022	23:10	-133.618	49.306	0	152.10	0	5.8660	0	33.5540	0	26.428	0	150.750	0	-1e10	8	-1e10	8	-1E+10	1	-1E+10	1	-1E+10	1	-1E+10	1	-1E+10	1	-1E+10	1
4902554	58	C	09/12/2022	23:10	-133.618	49.306	0	153.00	0	5.8320	0	33.5860	0	26.458	0	151.642	0	-1e10	8	-1e10	8	-1E+10	1	-1E+10	1	-1E+10	1	-1E+10	1	-1E+10	1	-1E+10	1
4902554	58	C	09/12/2022	23:10	-133.618	49.306	0	153.90	0	5.8200	0	33.5980	0	26.469	0	152.533	0	-1e10	8	-1e10	8	-1E+10	1	-1E+10	1	-1E+10	1	-1E+10	1	-1E+10	1	-1E+10	1
4902554	58	C	09/12/2022	23:10	-133.618	49.306	0	154.80	0	5.8120	0	33.6040	0	26.475	0	153.425	0	-1e10	8	-1e10	8	-1E+10	1	-1E+10	1	-1E+10	1	-1E+10	1	-1E+10	1	-1E+10	1
4902554	58	C	09/12/2022	23:10	-133.618	49.306	0	155.70	0	5.8030	0	33.6110	0	26.481	0	154.317	0	-1e10	8	-1e10	8	-1E+10	1	-1E+10	1	-1E+10	1	-1E+10	1	-1E+10	1	-1E+10	1
4902554	58	C	09/12/2022	23:10	-133.618	49.306	0	156.60	0	5.7960	0	33.6160	0	26.486	0	155.208	0	-1e10	8	-1e10	8	-1E+10	1	-1E+10	1	-1E+10	1	-1E+10	1	-1E+10	1	-1E+10	1
4902554	58	C	09/12/2022	23:10	-133.618	49.306	0	157.90	0	5.7770	0	33.6260	0	26.496	0	156.496	0	-1e10	8	-1e10	8	-1E+10	1	-1E+10	1	-1E+10	1	-1E+10	1	-1E+10	1	-1E+10	1
4902554	58	C	09/12/2022	23:10	-133.618	49.306	0	159.90	0	5.7730	0	33.6300	0	26.500	0	158.478	0	-1e10	8	-1e10	8	-1E+10	1	-1E+10	1	-1E+10	1	-1E+10	1	-1E+10	1	-1E+10	1
4902554	58	C	09/12/2022	23:10	-133.618	49.306	0	161.30	0	5.7690	0	33.6370	0	26.506	0	159.865	0	-1e10	8	-1e10	8	-1E+10	1	-1E+10	1	-1E+10	1	-1E+10	1	-1E+10	1	-1E+10	1
4902554	58	C	09/12/2022	23:10	-133.618	49.306	0	162.30	0	5.7570	0	33.6470	0	26.515	0	160.856	0	-1e10	8	-1e10	8	-1E+10	1	-1E+10	1	-1E+10	1	-1E+10	1	-1E+10	1	-1E+10	1
4902554	58	C	09/12/2022	23:10	-133.618	49.306	0	163.20	0	5.7400	0	33.6540	0	26.523	0	161.747	0	-1e10	8	-1e10	8	-1E+10	1	-1E+10	1	-1E+10	1	-1E+10	1	-1E+10	1	-1E+10	1
4902554	58	C	09/12/2022	23:10	-133.618	49.306	0	164.10	0	5.7310	0	33.6570	0	26.526	0	162.639	0	-1e10	8	-1e10	8	-1E+10	1	-1E+10	1	-1E+10	1	-1E+10	1	-1E+10	1	-1E+10	1
4902554	58	C	09/12/2022	23:10	-133.618	49.306	0	165.10	0	5.7080	0	33.6630	0	26.534	0	163.630	0	-1e10	8	-1e10	8	-1E+10	1	-1E+10	1	-1E+10	1	-1E+10	1	-1E+10	1	-1E+10	1
4902554	58	C	09/12/2022	23:10	-133.618	49.306	0	166.00	0	5.7060	0	33.6640	0	26.535	0	164.521	0	-1e10	8	-1e10	8	-1E+10	1	-1E+10	1	-1E+10	1	-1E+10	1	-1E+10	1	-1E+10	1
4902554	58	C	09/12/2022	23:10	-133.618	49.306	0	167.00	0	5.6980	0	33.6670	0	26.538	0	165.512	0	-1e10	8	-1e10	8	-1E+10	1	-1E+10	1	-1E+10	1	-1E+10	1	-1E+10	1	-1E+10	1
4902554	58	C	09/12/2022	23:10	-133.618	49.306	0	167.90	0	5.6890	0	33.6700	0	26.542	0	166.403	0	-1e10	8	-1e10	8	-1E+10	1	-1E+10	1	-1E+10	1	-1E+10	1	-1E+10	1	-1E+10	1
4902554	58	C	09/12/2022	23:10	-133.618	49.306	0	168.90	0	5.6780	0	33.6740	0	26.546	0	167.394	0	-1e10	8	-1e10	8	-1E+10	1	-1E+10	1	-1E+10	1	-1E+10	1	-1E+10	1	-1E+10	1
4902554	58	C	09/12/2022	23:10	-133.618	49.306	0	169.90	0	5.6710	0	33.6750	0	26.548	0	168.385	0	-1e10	8	-1e10	8	-1E+10	1	-1E+10	1	-1E+10	1	-1E+10	1	-1E+10	1	-1E+10	1
4902554	58	C	09/12/2022	23:10	-133.618	49.306	0	170.90	0	5.6660	0	33.6770	0	26.550	0	169.376	0	-1e10	8	-1e10	8	-1E+10	1	-1E+10	1	-1E+10	1	-1E+10	1	-1E+10	1	-1E+10	1
4902554	58	C	09/12/2022	23:10	-133.618	49.306	0	171.90	0	5.6530	0	33.6800	0	26.554	0	170.366	0	-1e10	8	-1e10	8	-1E+10	1	-1E+10	1	-1E+10	1	-1E+10	1	-1E+10	1	-1E+10	1
4902554	58	C	09/12/2022	23:10	-133.618	49.306	0	172.90	0	5.6460	0	33.6820	0	26.557	0	171.357	0	-1e10	8	-1e10	8	-1E+10	1	-1E+10	1	-1E+10	1	-1E+10	1	-1E+10	1	-1E+10	1
4902554	58	C	09/12/2022	23:10	-133.618	49.306	0	174.00	0	5.6380	0	33.6830	0	26.558	0	172.447	0	-1e10	8	-1e10	8	-1E+10	1	-1E+10	1	-1E+10	1	-1E+10	1	-1E+10	1	-1E+10	1
4902554	58	C	09/12/2022	23:10	-133.618	49.306	0	175.00	0	5.6120	0	33.6910	0	26.568	0	173.437	0	-1e10	8	-1e10	8	-1E+10	1	-1E+10	1	-1E+10	1	-1E+10	1	-1E+10	1	-1E+10	1
4902554	58	C	09/12/2022	23:10	-133.618	49.306	0	176.10	0	5.5930	0	33.6950	0	26.573	0	174.527	0	-1e10	8	-1e10	8	-1E+10	1	-1E+10	1	-1E+10	1	-1E+10	1	-1E+10	1	-1E+10	1
4902554	58	C	09/12/2022	23:10	-133.618	49.306	0	177.10	0	5.5600	0	33.7030	0	26.584	0	175.518	0	-1e10	8	-1e10	8	-1E+10	1	-1E+10	1	-1E+10	1	-1E+10	1	-1E+10	1	-1E+10	1
4902554	58	C	09/12/2022	23:10	-133.618	49.306	0	178.20	0	5.5490	0	33.7050	0	26.586	0	176.607	0	-1e10	8	-1e10	8	-1E+10	1	-1E+10	1	-1E+10	1	-1E+10	1	-1E+10	1	-1E+10	1
4902554	58	C	09/12/2022	23:10	-133.618	49.306	0	179.30	0	5.5430	0	33.7040	0	26.586	0	177.697	0	-1e10	8	-1e10	8	-1E+10	1	-1E+10	1	-1E+10	1	-1E+10	1	-1E+10	1	-1E+10	1
4902554	58	C	09/12/2022	23:10	-133.618	49.306	0	180.40	0	5.5180	0	33.7080	0	26.593	0	178.787	0	-1e10	8	-1e10	8	-1E+10	1	-1E+10	1	-1E+10	1	-1E+10	1	-1E+10	1	-1E+10	1
4902554	58	C	09/12/2022	23:10	-133.618	49.306	0	181.50	0	5.5160	0	33.7090	0	26.594	0	179.876	0	-1e10	8	-1e10	8	-1E+10	1	-1E+10	1	-1E+10	1	-1E+10	1	-1E+10	1	-1E+10	1
4902554	58	C	09/12/2022	23:10	-133.618	49.306	0	182.60	0	5.4990	0	33.7120	0	26.598	0	180.966	0	-1e10	8	-1e10	8	-1E+10	1	-1E+10	1	-1E+10	1	-1E+10	1	-1E+10	1	-1E+10	1
4902554	58	C	09/12/2022	23:10	-133.618	49.306	0	183.70	0	5.4920	0	33.7140	0	26.600	0	182.056	0	-1e10	8	-1e10	8	-1E+10	1	-1E+10	1	-1E+10	1	-1E+10	1	-1E+10	1	-1E+10	1
4902554	58	C	09/12/2022	23:10	-133.618	49.306	0	184.80	0	5.4900	0	33.7110	0	26.598	0	183.145	0	-1e10	8	-1e10	8	-1E+10	1	-1E+10	1	-1E+10	1	-1E+10	1	-1E+10	1	-1E+10	1
4902554	58	C	09/12/2022	23:10	-133.618	49.306	0	185.90	0	5.4820	0	33.7150	0	26.602	0	184.235	0	-1e10	8	-1e10	8	-1E+10	1	-1E+10	1	-1E+10	1	-1E+10	1	-1E+10	1	-1E+10	1
4902554	58	C	09/12/2022	23:10	-133.618	49.306	0	187.00	0	5.4610	0	33.7190	0	26.608	0	185.325	0	-1e10	8	-1e10	8	-1E+10	1	-1E+10	1	-1E+10	1	-1E+10	1	-1E+10	1	-1E+10	1
4902554	58	C	09/12/2022	23:10	-133.618	49.306	0	188.20	0	5.4420	0	33.7220	0	26.613	0	186.513	0	-1e10	8	-1e10	8	-1E+10	1	-1E+10	1	-1E+10	1	-1E+10	1	-1E+10	1	-1E+10	1
4902554	58	C	09/12/2022	23:10	-133.618	49.306	0	189.30	0	5.4350	0	33.7230	0	26.614	0	187.603	0	-1e10	8	-1e10	8	-1E+10	1	-1E+10	1	-1E+10	1	-1E+10	1	-1E+10	1	-1E+10	1
4902554	58	C	09/12/2022	23:10	-133.618	49.306	0	190.50	0	5.4340	0	33.7230	0	26.614	0	188.792	0	-1e10	8	-1e10	8	-1E+10	1	-1E+10	1	-1E+10	1	-1E+10	1	-1E+10	1	-1E+10	1
4902554	58	C	09/12/2022	23:10	-133.618	49.306	0	191.60	0	5.4300	0	33.7230	0	26.615	0	189.881	0	-1e10	8	-1e10	8	-1E+10	1	-1E+10	1	-1E+10	1	-1E+10	1	-1E+10	1	-1E+10	1
4902554	58	C	09/12/2022	23:10	-133.618	49.306	0	192.80	0	5.4270	0	33.7230	0	26.615	0	191.070	0	-1e10	8	-1e10	8	-1E+10	1	-1E+10	1	-1E+10	1	-1E+10	1	-1E+10	1	-1E+10	1
4902554	58	C	09/12/2022	23:10	-133.618	49.306	0	193.90	0	5.4220	0	33.7250	0	26.617	0	192.160	0	-1e10	8	-1e10	8	-1E+10	1	-1E+10	1	-1E+10	1	-1E+10	1	-1E+10	1	-1E+10	1
4902554	58	C	09/12/2022	23:10	-133.618	49.306	0	195.00	0	5.4030	0	33.7290	0	26.623	0	193.249	0	-1e10	8	-1e10	8	-1E+10	1	-1E+10	1	-1E+10	1	-1E+10	1	-1E+10	1	-1E+10	1
4902554	58	C	09/12/2022	23:10	-133.618	49.306	0	196.10	0	5.3960	0	33.7280	0	26.623	0	194.339	0	-1e10	8	-1e10	8	-1E+10	1	-1E+10	1	-1E+10	1	-1E+10	1	-1E+10	1	-1E+10	1
4902554	58	C	09/12/2022	23:10	-133.618	49.306	0	197.30	0	5.3810	0	33.7280	0	26.625	0	195.528	0	-1e10	8	-1e10	8	-1E+10	1	-1E+10	1	-1E+10	1	-1E+10	1	-1E+10	1	-1E+10	1
4902554	58	C	09/12/2022	23:10	-133.618	49.306	0	198.40	0	5.3750	0	33.7290	0	26.626	0	196.617	0	-1e10	8	-1e10	8	-1E+10	1	-1E+10	1	-1E+10	1	-1E+10	1	-1E+10	1	-1E+10	1
4902554	58	C	09/12/2022	23:10	-133.618	49.306	0	199.50	0	5.3700	0	33.7290	0	26.627	0	197.707	0	-1e10	8	-1e10	8	-1E+10	1	-1E+10	1	-1E+10	1	-1E+10	1	-1E+10	1	-1E+10	1
4902554	58	C	09/12/2022	23:10	-133.618	49.306	0	200.60	0	5.3610	0	33.7300	0	26.629	0	198.796	0	-1e10	8	-1e10	8	-1E+10	1	-1E+10	1	-1E+10	1	-1E+10	1	-1E+10	1	-1E+10	1
4902554	58	C	09/12/2022	23:10	-133.618	49.306	0	201.70	0	5.3550	0	33.7300	0	26.629	0	199.886	0	-1e10	8	-1e10	8	-1E+10	1	-1E+10	1	-1E+10	1	-1E+10	1	-1E+10	1	-1E+10	1
4902554	58	C	09/12/2022	23:10	-133.618	49.306	0	202.90	0	5.3410	0	33.7340	0	26.634	0	201.074	0	-1e10	8	-1e10	8	-1E+10	1	-1E+10	1	-1E+10	1	-1E+10	1	-1E+10	1	-1E+10	1
4902554	58	C	09/12/2022	23:10	-133.618	49.306	0	204.00	0	5.3390	0	33.7350	0	26.635	0	202.164	0	-1e10	8	-1e10	8	-1E+10	1	-1E+10	1	-1E+10	1	-1E+10	1	-1E+10	1	-1E+10	1
4902554	58	C	09/12/2022	23:10	-133.618	49.306	0	205.10	0	5.3380	0	33.7340	0	26.635	0	203.254	0	-1e10	8	-1e10	8	-1E+10	1	-1E+10	1	-1E+10	1	-1E+10	1	-1E+10	1	-1E+10	1
4902554	58	C	09/12/2022	23:10	-133.618	49.306	0	206.20	0	5.3240	0	33.7370	0	26.639	0	204.343	0	-1e10	8	-1e10	8	-1E+10	1	-1E+10	1	-1E+10	1	-1E+10	1	-1E+10	1	-1E+10	1
4902554	58	C	09/12/2022	23:10	-133.618	49.306	0	207.30	0	5.3020	0	33.7410	0	26.644	0	205.433	0	-1e10	8	-1e10	8	-1E+10	1	-1E+10	1	-1E+10	1	-1E+10	1	-1E+10	1	-1E+10	1
4902554	58	C	09/12/2022	23:10	-133.618	49.306	0	208.40	0	5.2880	0	33.7430	0	26.648	0	206.522	0	-1e10	8	-1e10	8	-1E+10	1	-1E+10	1	-1E+10	1	-1E+10	1	-1E+10	1	-1E+10	1
4902554	58	C	09/12/2022	23:10	-133.618	49.306	0	209.40	0	5.2550	0	33.7430	0	26.651	0	207.513	0	-1e10	8	-1e10	8	-1E+10	1	-1E+10	1	-1E+10	1	-1E+10	1	-1E+10	1	-1E+10	1
4902554	58	C	09/12/2022	23:10	-133.618	49.306	0	210.90	0	5.2370	0	33.7450	0	26.655	0	208.998	0	-1e10	8	-1e10	8	-1E+10	1	-1E+10	1	-1E+10	1	-1E+10	1	-1E+10	1	-1E+10	1
4902554	58	C	09/12/2022	23:10	-133.618	49.306	0	212.10	0	5.2240	0	33.7450	0	26.657	0	210.187	0	-1e10	8	-1e10	8	-1E+10	1	-1E+10	1	-1E+10	1	-1E+10	1	-1E+10	1	-1E+10	1
4902554	58	C	09/12/2022	23:10	-133.618	49.306	0	212.90	0	5.2170	0	33.7450	0	26.657	0	210.979	0	-1e10	8	-1e10	8	-1E+10	1	-1E+10	1	-1E+10	1	-1E+10	1	-1E+10	1	-1E+10	1
4902554	58	C	09/12/2022	23:10	-133.618	49.306	0	213.70	0	5.2100	0	33.7460	0	26.659	0	211.772	0	-1e10	8	-1e10	8	-1E+10	1	-1E+10	1	-1E+10	1	-1E+10	1	-1E+10	1	-1E+10	1
4902554	58	C	09/12/2022	23:10	-133.618	49.306	0	214.90	0	5.1840	0	33.7480	0	26.664	0	212.960	0	-1e10	8	-1e10	8	-1E+10	1	-1E+10	1	-1E+10	1	-1E+10	1	-1E+10	1	-1E+10	1
4902554	58	C	09/12/2022	23:10	-133.618	49.306	0	216.10	0	5.1670	0	33.7500	0	26.667	0	214.149	0	-1e10	8	-1e10	8	-1E+10	1	-1E+10	1	-1E+10	1	-1E+10	1	-1E+10	1	-1E+10	1
4902554	58	C	09/12/2022	23:10	-133.618	49.306	0	216.90	0	5.1590	0	33.7510	0	26.669	0	214.941	0	-1e10	8	-1e10	8	-1E+10	1	-1E+10	1	-1E+10	1	-1E+10	1	-1E+10	1	-1E+10	1
4902554	58	C	09/12/2022	23:10	-133.618	49.306	0	217.70	0	5.1580	0	33.7510	0	26.669	0	215.734	0	-1e10	8	-1e10	8	-1E+10	1	-1E+10	1	-1E+10	1	-1E+10	1	-1E+10	1	-1E+10	1
4902554	58	C	09/12/2022	23:10	-133.618	49.306	0	218.90	0	5.1460	0	33.7520	0	26.671	0	216.922	0	-1e10	8	-1e10	8	-1E+10	1	-1E+10	1	-1E+10	1	-1E+10	1	-1E+10	1	-1E+10	1
4902554	58	C	09/12/2022	23:10	-133.618	49.306	0	220.10	0	5.1310	0	33.7540	0	26.675	0	218.111	0	-1e10	8	-1e10	8	-1E+10	1	-1E+10	1	-1E+10	1	-1E+10	1	-1E+10	1	-1E+10	1
4902554	58	C	09/12/2022	23:10	-133.618	49.306	0	220.90	0	5.1310	0	33.7530	0	26.674	0	218.903	0	-1e10	8	-1e10	8	-1E+10	1	-1E+10	1	-1E+10	1	-1E+10	1	-1E+10	1	-1E+10	1
4902554	58	C	09/12/2022	23:10	-133.618	49.306	0	221.70	0	5.1230	0	33.7540	0	26.675	0	219.695	0	-1e10	8	-1e10	8	-1E+10	1	-1E+10	1	-1E+10	1	-1E+10	1	-1E+10	1	-1E+10	1
4902554	58	C	09/12/2022	23:10	-133.618	49.306	0	222.90	0	5.1020	0	33.7550	0	26.679	0	220.884	0	-1e10	8	-1e10	8	-1E+10	1	-1E+10	1	-1E+10	1	-1E+10	1	-1E+10	1	-1E+10	1
4902554	58	C	09/12/2022	23:10	-133.618	49.306	0	224.10	0	5.0910	0	33.7580	0	26.682	0	222.072	0	-1e10	8	-1e10	8	-1E+10	1	-1E+10	1	-1E+10	1	-1E+10	1	-1E+10	1	-1E+10	1
4902554	58	C	09/12/2022	23:10	-133.618	49.306	0	224.90	0	5.0820	0	33.7610	0	26.686	0	222.865	0	-1e10	8	-1e10	8	-1E+10	1	-1E+10	1	-1E+10	1	-1E+10	1	-1E+10	1	-1E+10	1
4902554	58	C	09/12/2022	23:10	-133.618	49.306	0	225.70	0	5.0740	0	33.7610	0	26.687	0	223.657	0	-1e10	8	-1e10	8	-1E+10	1	-1E+10	1	-1E+10	1	-1E+10	1	-1E+10	1	-1E+10	1
4902554	58	C	09/12/2022	23:10	-133.618	49.306	0	226.90	0	5.0410	0	33.7640	0	26.693	0	224.846	0	-1e10	8	-1e10	8	-1E+10	1	-1E+10	1	-1E+10	1	-1E+10	1	-1E+10	1	-1E+10	1
4902554	58	C	09/12/2022	23:10	-133.618	49.306	0	228.20	0	5.0260	0	33.7650	0	26.695	0	226.133	0	-1e10	8	-1e10	8	-1E+10	1	-1E+10	1	-1E+10	1	-1E+10	1	-1E+10	1	-1E+10	1
4902554	58	C	09/12/2022	23:10	-133.618	49.306	0	229.00	0	5.0250	0	33.7650	0	26.695	0	226.925	0	-1e10	8	-1e10	8	-1E+10	1	-1E+10	1	-1E+10	1	-1E+10	1	-1E+10	1	-1E+10	1
4902554	58	C	09/12/2022	23:10	-133.618	49.306	0	229.80	0	5.0250	0	33.7650	0	26.695	0	227.718	0	-1e10	8	-1e10	8	-1E+10	1	-1E+10	1	-1E+10	1	-1E+10	1	-1E+10	1	-1E+10	1
4902554	58	C	09/12/2022	23:10	-133.618	49.306	0	231.00	0	5.0210	0	33.7650	0	26.696	0	228.906	0	-1e10	8	-1e10	8	-1E+10	1	-1E+10	1	-1E+10	1	-1E+10	1	-1E+10	1	-1E+10	1
4902554	58	C	09/12/2022	23:10	-133.618	49.306	0	232.20	0	5.0140	0	33.7660	0	26.698	0	230.095	0	-1e10	8	-1e10	8	-1E+10	1	-1E+10	1	-1E+10	1	-1E+10	1	-1E+10	1	-1E+10	1
4902554	58	C	09/12/2022	23:10	-133.618	49.306	0	233.00	0	5.0020	0	33.7670	0	26.700	0	230.887	0	-1e10	8	-1e10	8	-1E+10	1	-1E+10	1	-1E+10	1	-1E+10	1	-1E+10	1	-1E+10	1
4902554	58	C	09/12/2022	23:10	-133.618	49.306	0	233.80	0	5.0010	0	33.7670	0	26.700	0	231.679	0	-1e10	8	-1e10	8	-1E+10	1	-1E+10	1	-1E+10	1	-1E+10	1	-1E+10	1	-1E+10	1
4902554	58	C	09/12/2022	23:10	-133.618	49.306	0	235.00	0	5.0010	0	33.7700	0	26.702	0	232.868	0	-1e10	8	-1e10	8	-1E+10	1	-1E+10	1	-1E+10	1	-1E+10	1	-1E+10	1	-1E+10	1
4902554	58	C	09/12/2022	23:10	-133.618	49.306	0	236.20	0	5.0030	0	33.7710	0	26.703	0	234.056	0	-1e10	8	-1e10	8	-1E+10	1	-1E+10	1	-1E+10	1	-1E+10	1	-1E+10	1	-1E+10	1
4902554	58	C	09/12/2022	23:10	-133.618	49.306	0	237.00	0	5.0030	0	33.7730	0	26.704	0	234.848	0	-1e10	8	-1e10	8	-1E+10	1	-1E+10	1	-1E+10	1	-1E+10	1	-1E+10	1	-1E+10	1
4902554	58	C	09/12/2022	23:10	-133.618	49.306	0	237.90	0	4.9980	0	33.7750	0	26.707	0	235.740	0	-1e10	8	-1e10	8	-1E+10	1	-1E+10	1	-1E+10	1	-1E+10	1	-1E+10	1	-1E+10	1
4902554	58	C	09/12/2022	23:10	-133.618	49.306	0	238.70	0	4.9920	0	33.7770	0	26.709	0	236.532	0	-1e10	8	-1e10	8	-1E+10	1	-1E+10	1	-1E+10	1	-1E+10	1	-1E+10	1	-1E+10	1
4902554	58	C	09/12/2022	23:10	-133.618	49.306	0	240.00	0	4.9670	0	33.7760	0	26.711	0	237.819	0	-1e10	8	-1e10	8	-1E+10	1	-1E+10	1	-1E+10	1	-1E+10	1	-1E+10	1	-1E+10	1
4902554	58	C	09/12/2022	23:10	-133.618	49.306	0	241.30	0	4.9550	0	33.7780	0	26.714	0	239.107	0	-1e10	8	-1e10	8	-1E+10	1	-1E+10	1	-1E+10	1	-1E+10	1	-1E+10	1	-1E+10	1
4902554	58	C	09/12/2022	23:10	-133.618	49.306	0	242.10	0	4.9520	0	33.7810	0	26.716	0	239.899	0	-1e10	8	-1e10	8	-1E+10	1	-1E+10	1	-1E+10	1	-1E+10	1	-1E+10	1	-1E+10	1
4902554	58	C	09/12/2022	23:10	-133.618	49.306	0	243.00	0	4.9490	0	33.7860	0	26.721	0	240.790	0	-1e10	8	-1e10	8	-1E+10	1	-1E+10	1	-1E+10	1	-1E+10	1	-1E+10	1	-1E+10	1
4902554	58	C	09/12/2022	23:10	-133.618	49.306	0	243.90	0	4.9500	0	33.7860	0	26.721	0	241.682	0	-1e10	8	-1e10	8	-1E+10	1	-1E+10	1	-1E+10	1	-1E+10	1	-1E+10	1	-1E+10	1
4902554	58	C	09/12/2022	23:10	-133.618	49.306	0	244.80	0	4.9490	0	33.7880	0	26.722	0	242.573	0	-1e10	8	-1e10	8	-1E+10	1	-1E+10	1	-1E+10	1	-1E+10	1	-1E+10	1	-1E+10	1
4902554	58	C	09/12/2022	23:10	-133.618	49.306	0	245.70	0	4.9470	0	33.7880	0	26.723	0	243.464	0	-1e10	8	-1e10	8	-1E+10	1	-1E+10	1	-1E+10	1	-1E+10	1	-1E+10	1	-1E+10	1
4902554	58	C	09/12/2022	23:10	-133.618	49.306	0	246.60	0	4.9340	0	33.7910	0	26.726	0	244.356	0	-1e10	8	-1e10	8	-1E+10	1	-1E+10	1	-1E+10	1	-1E+10	1	-1E+10	1	-1E+10	1
4902554	58	C	09/12/2022	23:10	-133.618	49.306	0	247.50	0	4.9350	0	33.7910	0	26.726	0	245.247	0	-1e10	8	-1e10	8	-1E+10	1	-1E+10	1	-1E+10	1	-1E+10	1	-1E+10	1	-1E+10	1
4902554	58	C	09/12/2022	23:10	-133.618	49.306	0	248.90	0	4.9340	0	33.7910	0	26.726	0	246.633	0	-1e10	8	-1e10	8	-1E+10	1	-1E+10	1	-1E+10	1	-1E+10	1	-1E+10	1	-1E+10	1
4902554	58	C	09/12/2022	23:10	-133.618	49.306	0	250.40	0	4.9260	0	33.7940	0	26.730	0	248.119	0	-1e10	8	-1e10	8	-1E+10	1	-1E+10	1	-1E+10	1	-1E+10	1	-1E+10	1	-1E+10	1
4902554	58	C	09/12/2022	23:10	-133.618	49.306	0	251.30	0	4.9220	0	33.7940	0	26.730	0	249.010	0	-1e10	8	-1e10	8	-1E+10	1	-1E+10	1	-1E+10	1	-1E+10	1	-1E+10	1	-1E+10	1
4902554	58	C	09/12/2022	23:10	-133.618	49.306	0	252.30	0	4.9110	0	33.7970	0	26.734	0	250.000	0	-1e10	8	-1e10	8	-1E+10	1	-1E+10	1	-1E+10	1	-1E+10	1	-1E+10	1	-1E+10	1
4902554	58	C	09/12/2022	23:10	-133.618	49.306	0	253.20	0	4.9040	0	33.7980	0	26.735	0	250.891	0	-1e10	8	-1e10	8	-1E+10	1	-1E+10	1	-1E+10	1	-1E+10	1	-1E+10	1	-1E+10	1
4902554	58	C	09/12/2022	23:10	-133.618	49.306	0	254.10	0	4.9030	0	33.7970	0	26.735	0	251.783	0	-1e10	8	-1e10	8	-1E+10	1	-1E+10	1	-1E+10	1	-1E+10	1	-1E+10	1	-1E+10	1
4902554	58	C	09/12/2022	23:10	-133.618	49.306	0	255.10	0	4.9010	0	33.7970	0	26.735	0	252.773	0	-1e10	8	-1e10	8	-1E+10	1	-1E+10	1	-1E+10	1	-1E+10	1	-1E+10	1	-1E+10	1
4902554	58	C	09/12/2022	23:10	-133.618	49.306	0	256.00	0	4.8930	0	33.7980	0	26.737	0	253.664	0	-1e10	8	-1e10	8	-1E+10	1	-1E+10	1	-1E+10	1	-1E+10	1	-1E+10	1	-1E+10	1
4902554	58	C	09/12/2022	23:10	-133.618	49.306	0	256.90	0	4.8810	0	33.7990	0	26.739	0	254.555	0	-1e10	8	-1e10	8	-1E+10	1	-1E+10	1	-1E+10	1	-1E+10	1	-1E+10	1	-1E+10	1
4902554	58	C	09/12/2022	23:10	-133.618	49.306	0	257.80	0	4.8780	0	33.7990	0	26.739	0	255.447	0	-1e10	8	-1e10	8	-1E+10	1	-1E+10	1	-1E+10	1	-1E+10	1	-1E+10	1	-1E+10	1
4902554	58	C	09/12/2022	23:10	-133.618	49.306	0	258.80	0	4.8610	0	33.8000	0	26.742	0	256.437	0	-1e10	8	-1e10	8	-1E+10	1	-1E+10	1	-1E+10	1	-1E+10	1	-1E+10	1	-1E+10	1
4902554	58	C	09/12/2022	23:10	-133.618	49.306	0	259.70	0	4.8590	0	33.8010	0	26.743	0	257.328	0	-1e10	8	-1e10	8	-1E+10	1	-1E+10	1	-1E+10	1	-1E+10	1	-1E+10	1	-1E+10	1
4902554	58	C	09/12/2022	23:10	-133.618	49.306	0	260.60	0	4.8580	0	33.8020	0	26.744	0	258.219	0	-1e10	8	-1e10	8	-1E+10	1	-1E+10	1	-1E+10	1	-1E+10	1	-1E+10	1	-1E+10	1
4902554	58	C	09/12/2022	23:10	-133.618	49.306	0	261.60	0	4.8560	0	33.8020	0	26.744	0	259.210	0	-1e10	8	-1e10	8	-1E+10	1	-1E+10	1	-1E+10	1	-1E+10	1	-1E+10	1	-1E+10	1
4902554	58	C	09/12/2022	23:10	-133.618	49.306	0	262.50	0	4.8550	0	33.8020	0	26.744	0	260.101	0	-1e10	8	-1e10	8	-1E+10	1	-1E+10	1	-1E+10	1	-1E+10	1	-1E+10	1	-1E+10	1
4902554	58	C	09/12/2022	23:10	-133.618	49.306	0	263.90	0	4.8550	0	33.8020	0	26.744	0	261.487	0	-1e10	8	-1e10	8	-1E+10	1	-1E+10	1	-1E+10	1	-1E+10	1	-1E+10	1	-1E+10	1
4902554	58	C	09/12/2022	23:10	-133.618	49.306	0	265.40	0	4.8310	0	33.8050	0	26.749	0	262.972	0	-1e10	8	-1e10	8	-1E+10	1	-1E+10	1	-1E+10	1	-1E+10	1	-1E+10	1	-1E+10	1
4902554	58	C	09/12/2022	23:10	-133.618	49.306	0	266.30	0	4.8130	0	33.8050	0	26.751	0	263.864	0	-1e10	8	-1e10	8	-1E+10	1	-1E+10	1	-1E+10	1	-1E+10	1	-1E+10	1	-1E+10	1
4902554	58	C	09/12/2022	23:10	-133.618	49.306	0	267.30	0	4.7910	0	33.8060	0	26.754	0	264.854	0	-1e10	8	-1e10	8	-1E+10	1	-1E+10	1	-1E+10	1	-1E+10	1	-1E+10	1	-1E+10	1
4902554	58	C	09/12/2022	23:10	-133.618	49.306	0	268.20	0	4.7830	0	33.8060	0	26.755	0	265.745	0	-1e10	8	-1e10	8	-1E+10	1	-1E+10	1	-1E+10	1	-1E+10	1	-1E+10	1	-1E+10	1
4902554	58	C	09/12/2022	23:10	-133.618	49.306	0	269.20	0	4.7800	0	33.8060	0	26.756	0	266.735	0	-1e10	8	-1e10	8	-1E+10	1	-1E+10	1	-1E+10	1	-1E+10	1	-1E+10	1	-1E+10	1
4902554	58	C	09/12/2022	23:10	-133.618	49.306	0	270.10	0	4.7730	0	33.8060	0	26.757	0	267.626	0	-1e10	8	-1e10	8	-1E+10	1	-1E+10	1	-1E+10	1	-1E+10	1	-1E+10	1	-1E+10	1
4902554	58	C	09/12/2022	23:10	-133.618	49.306	0	271.10	0	4.7630	0	33.8070	0	26.758	0	268.617	0	-1e10	8	-1e10	8	-1E+10	1	-1E+10	1	-1E+10	1	-1E+10	1	-1E+10	1	-1E+10	1
4902554	58	C	09/12/2022	23:10	-133.618	49.306	0	272.00	0	4.7580	0	33.8090	0	26.761	0	269.508	0	-1e10	8	-1e10	8	-1E+10	1	-1E+10	1	-1E+10	1	-1E+10	1	-1E+10	1	-1E+10	1
4902554	58	C	09/12/2022	23:10	-133.618	49.306	0	272.80	0	4.7530	0	33.8120	0	26.764	0	270.300	0	-1e10	8	-1e10	8	-1E+10	1	-1E+10	1	-1E+10	1	-1E+10	1	-1E+10	1	-1E+10	1
4902554	58	C	09/12/2022	23:10	-133.618	49.306	0	273.70	0	4.7490	0	33.8130	0	26.765	0	271.191	0	-1e10	8	-1e10	8	-1E+10	1	-1E+10	1	-1E+10	1	-1E+10	1	-1E+10	1	-1E+10	1
4902554	58	C	09/12/2022	23:10	-133.618	49.306	0	274.90	0	4.7460	0	33.8140	0	26.766	0	272.379	0	-1e10	8	-1e10	8	-1E+10	1	-1E+10	1	-1E+10	1	-1E+10	1	-1E+10	1	-1E+10	1
4902554	58	C	09/12/2022	23:10	-133.618	49.306	0	276.20	0	4.7440	0	33.8140	0	26.766	0	273.667	0	-1e10	8	-1e10	8	-1E+10	1	-1E+10	1	-1E+10	1	-1E+10	1	-1E+10	1	-1E+10	1
4902554	58	C	09/12/2022	23:10	-133.618	49.306	0	277.20	0	4.7400	0	33.8150	0	26.767	0	274.657	0	-1e10	8	-1e10	8	-1E+10	1	-1E+10	1	-1E+10	1	-1E+10	1	-1E+10	1	-1E+10	1
4902554	58	C	09/12/2022	23:10	-133.618	49.306	0	278.20	0	4.7330	0	33.8160	0	26.769	0	275.647	0	-1e10	8	-1e10	8	-1E+10	1	-1E+10	1	-1E+10	1	-1E+10	1	-1E+10	1	-1E+10	1
4902554	58	C	09/12/2022	23:10	-133.618	49.306	0	279.10	0	4.7230	0	33.8190	0	26.772	0	276.538	0	-1e10	8	-1e10	8	-1E+10	1	-1E+10	1	-1E+10	1	-1E+10	1	-1E+10	1	-1E+10	1
4902554	58	C	09/12/2022	23:10	-133.618	49.306	0	280.10	0	4.7190	0	33.8210	0	26.774	0	277.528	0	-1e10	8	-1e10	8	-1E+10	1	-1E+10	1	-1E+10	1	-1E+10	1	-1E+10	1	-1E+10	1
4902554	58	C	09/12/2022	23:10	-133.618	49.306	0	281.10	0	4.7160	0	33.8200	0	26.774	0	278.518	0	-1e10	8	-1e10	8	-1E+10	1	-1E+10	1	-1E+10	1	-1E+10	1	-1E+10	1	-1E+10	1
4902554	58	C	09/12/2022	23:10	-133.618	49.306	0	282.00	0	4.7110	0	33.8210	0	26.775	0	279.409	0	-1e10	8	-1e10	8	-1E+10	1	-1E+10	1	-1E+10	1	-1E+10	1	-1E+10	1	-1E+10	1
4902554	58	C	09/12/2022	23:10	-133.618	49.306	0	283.00	0	4.7070	0	33.8220	0	26.777	0	280.400	0	-1e10	8	-1e10	8	-1E+10	1	-1E+10	1	-1E+10	1	-1E+10	1	-1E+10	1	-1E+10	1
4902554	58	C	09/12/2022	23:10	-133.618	49.306	0	283.90	0	4.7060	0	33.8210	0	26.776	0	281.291	0	-1e10	8	-1e10	8	-1E+10	1	-1E+10	1	-1E+10	1	-1E+10	1	-1E+10	1	-1E+10	1
4902554	58	C	09/12/2022	23:10	-133.618	49.306	0	284.90	0	4.6970	0	33.8250	0	26.780	0	282.281	0	-1e10	8	-1e10	8	-1E+10	1	-1E+10	1	-1E+10	1	-1E+10	1	-1E+10	1	-1E+10	1
4902554	58	C	09/12/2022	23:10	-133.618	49.306	0	285.80	0	4.6890	0	33.8250	0	26.781	0	283.172	0	-1e10	8	-1e10	8	-1E+10	1	-1E+10	1	-1E+10	1	-1E+10	1	-1E+10	1	-1E+10	1
4902554	58	C	09/12/2022	23:10	-133.618	49.306	0	286.80	0	4.6870	0	33.8250	0	26.781	0	284.162	0	-1e10	8	-1e10	8	-1E+10	1	-1E+10	1	-1E+10	1	-1E+10	1	-1E+10	1	-1E+10	1
4902554	58	C	09/12/2022	23:10	-133.618	49.306	0	287.70	0	4.6830	0	33.8260	0	26.782	0	285.053	0	-1e10	8	-1e10	8	-1E+10	1	-1E+10	1	-1E+10	1	-1E+10	1	-1E+10	1	-1E+10	1
4902554	58	C	09/12/2022	23:10	-133.618	49.306	0	288.70	0	4.6760	0	33.8270	0	26.784	0	286.043	0	-1e10	8	-1e10	8	-1E+10	1	-1E+10	1	-1E+10	1	-1E+10	1	-1E+10	1	-1E+10	1
4902554	58	C	09/12/2022	23:10	-133.618	49.306	0	289.70	0	4.6630	0	33.8300	0	26.788	0	287.033	0	-1e10	8	-1e10	8	-1E+10	1	-1E+10	1	-1E+10	1	-1E+10	1	-1E+10	1	-1E+10	1
4902554	58	C	09/12/2022	23:10	-133.618	49.306	0	290.60	0	4.6560	0	33.8320	0	26.790	0	287.924	0	-1e10	8	-1e10	8	-1E+10	1	-1E+10	1	-1E+10	1	-1E+10	1	-1E+10	1	-1E+10	1
4902554	58	C	09/12/2022	23:10	-133.618	49.306	0	291.60	0	4.6470	0	33.8340	0	26.793	0	288.915	0	-1e10	8	-1e10	8	-1E+10	1	-1E+10	1	-1E+10	1	-1E+10	1	-1E+10	1	-1E+10	1
4902554	58	C	09/12/2022	23:10	-133.618	49.306	0	292.50	0	4.6400	0	33.8360	0	26.795	0	289.806	0	-1e10	8	-1e10	8	-1E+10	1	-1E+10	1	-1E+10	1	-1E+10	1	-1E+10	1	-1E+10	1
4902554	58	C	09/12/2022	23:10	-133.618	49.306	0	293.50	0	4.6350	0	33.8370	0	26.796	0	290.796	0	-1e10	8	-1e10	8	-1E+10	1	-1E+10	1	-1E+10	1	-1E+10	1	-1E+10	1	-1E+10	1
4902554	58	C	09/12/2022	23:10	-133.618	49.306	0	294.50	0	4.6340	0	33.8370	0	26.797	0	291.786	0	-1e10	8	-1e10	8	-1E+10	1	-1E+10	1	-1E+10	1	-1E+10	1	-1E+10	1	-1E+10	1
4902554	58	C	09/12/2022	23:10	-133.618	49.306	0	295.90	0	4.6280	0	33.8380	0	26.798	0	293.172	0	-1e10	8	-1e10	8	-1E+10	1	-1E+10	1	-1E+10	1	-1E+10	1	-1E+10	1	-1E+10	1
4902554	58	C	09/12/2022	23:10	-133.618	49.306	0	297.40	0	4.6230	0	33.8390	0	26.799	0	294.657	0	-1e10	8	-1e10	8	-1E+10	1	-1E+10	1	-1E+10	1	-1E+10	1	-1E+10	1	-1E+10	1
4902554	58	C	09/12/2022	23:10	-133.618	49.306	0	298.40	0	4.6160	0	33.8400	0	26.801	0	295.647	0	-1e10	8	-1e10	8	-1E+10	1	-1E+10	1	-1E+10	1	-1E+10	1	-1E+10	1	-1E+10	1
4902554	58	C	09/12/2022	23:10	-133.618	49.306	0	299.40	0	4.6050	0	33.8430	0	26.805	0	296.637	0	-1e10	8	-1e10	8	-1E+10	1	-1E+10	1	-1E+10	1	-1E+10	1	-1E+10	1	-1E+10	1
4902554	58	C	09/12/2022	23:10	-133.618	49.306	0	300.30	0	4.5990	0	33.8460	0	26.808	0	297.528	0	-1e10	8	-1e10	8	-1E+10	1	-1E+10	1	-1E+10	1	-1E+10	1	-1E+10	1	-1E+10	1
4902554	58	C	09/12/2022	23:10	-133.618	49.306	0	301.30	0	4.5950	0	33.8460	0	26.808	0	298.518	0	-1e10	8	-1e10	8	-1E+10	1	-1E+10	1	-1E+10	1	-1E+10	1	-1E+10	1	-1E+10	1
4902554	58	C	09/12/2022	23:10	-133.618	49.306	0	302.30	0	4.5940	0	33.8470	0	26.809	0	299.508	0	-1e10	8	-1e10	8	-1E+10	1	-1E+10	1	-1E+10	1	-1E+10	1	-1E+10	1	-1E+10	1
4902554	58	C	09/12/2022	23:10	-133.618	49.306	0	303.30	0	4.5940	0	33.8470	0	26.809	0	300.498	0	-1e10	8	-1e10	8	-1E+10	1	-1E+10	1	-1E+10	1	-1E+10	1	-1E+10	1	-1E+10	1
4902554	58	C	09/12/2022	23:10	-133.618	49.306	0	304.30	0	4.5920	0	33.8470	0	26.809	0	301.488	0	-1e10	8	-1e10	8	-1E+10	1	-1E+10	1	-1E+10	1	-1E+10	1	-1E+10	1	-1E+10	1
4902554	58	C	09/12/2022	23:10	-133.618	49.306	0	305.30	0	4.5840	0	33.8490	0	26.812	0	302.478	0	-1e10	8	-1e10	8	-1E+10	1	-1E+10	1	-1E+10	1	-1E+10	1	-1E+10	1	-1E+10	1
4902554	58	C	09/12/2022	23:10	-133.618	49.306	0	306.20	0	4.5740	0	33.8530	0	26.816	0	303.369	0	-1e10	8	-1e10	8	-1E+10	1	-1E+10	1	-1E+10	1	-1E+10	1	-1E+10	1	-1E+10	1
4902554	58	C	09/12/2022	23:10	-133.618	49.306	0	307.20	0	4.5660	0	33.8530	0	26.817	0	304.359	0	-1e10	8	-1e10	8	-1E+10	1	-1E+10	1	-1E+10	1	-1E+10	1	-1E+10	1	-1E+10	1
4902554	58	C	09/12/2022	23:10	-133.618	49.306	0	308.20	0	4.5620	0	33.8560	0	26.820	0	305.349	0	-1e10	8	-1e10	8	-1E+10	1	-1E+10	1	-1E+10	1	-1E+10	1	-1E+10	1	-1E+10	1
4902554	58	C	09/12/2022	23:10	-133.618	49.306	0	309.20	0	4.5490	0	33.8590	0	26.823	0	306.339	0	-1e10	8	-1e10	8	-1E+10	1	-1E+10	1	-1E+10	1	-1E+10	1	-1E+10	1	-1E+10	1
4902554	58	C	09/12/2022	23:10	-133.618	49.306	0	310.20	0	4.5420	0	33.8620	0	26.827	0	307.329	0	-1e10	8	-1e10	8	-1E+10	1	-1E+10	1	-1E+10	1	-1E+10	1	-1E+10	1	-1E+10	1
4902554	58	C	09/12/2022	23:10	-133.618	49.306	0	311.20	0	4.5400	0	33.8630	0	26.828	0	308.319	0	-1e10	8	-1e10	8	-1E+10	1	-1E+10	1	-1E+10	1	-1E+10	1	-1E+10	1	-1E+10	1
4902554	58	C	09/12/2022	23:10	-133.618	49.306	0	312.20	0	4.5400	0	33.8620	0	26.827	0	309.309	0	-1e10	8	-1e10	8	-1E+10	1	-1E+10	1	-1E+10	1	-1E+10	1	-1E+10	1	-1E+10	1
4902554	58	C	09/12/2022	23:10	-133.618	49.306	0	313.10	0	4.5400	0	33.8620	0	26.827	0	310.200	0	-1e10	8	-1e10	8	-1E+10	1	-1E+10	1	-1E+10	1	-1E+10	1	-1E+10	1	-1E+10	1
4902554	58	C	09/12/2022	23:10	-133.618	49.306	0	314.10	0	4.5320	0	33.8640	0	26.829	0	311.190	0	-1e10	8	-1e10	8	-1E+10	1	-1E+10	1	-1E+10	1	-1E+10	1	-1E+10	1	-1E+10	1
4902554	58	C	09/12/2022	23:10	-133.618	49.306	0	315.20	0	4.5230	0	33.8660	0	26.832	0	312.279	0	-1e10	8	-1e10	8	-1E+10	1	-1E+10	1	-1E+10	1	-1E+10	1	-1E+10	1	-1E+10	1
4902554	58	C	09/12/2022	23:10	-133.618	49.306	0	316.20	0	4.5190	0	33.8680	0	26.834	0	313.269	0	-1e10	8	-1e10	8	-1E+10	1	-1E+10	1	-1E+10	1	-1E+10	1	-1E+10	1	-1E+10	1
4902554	58	C	09/12/2022	23:10	-133.618	49.306	0	317.20	0	4.5170	0	33.8680	0	26.834	0	314.259	0	-1e10	8	-1e10	8	-1E+10	1	-1E+10	1	-1E+10	1	-1E+10	1	-1E+10	1	-1E+10	1
4902554	58	C	09/12/2022	23:10	-133.618	49.306	0	318.10	0	4.5160	0	33.8690	0	26.835	0	315.150	0	-1e10	8	-1e10	8	-1E+10	1	-1E+10	1	-1E+10	1	-1E+10	1	-1E+10	1	-1E+10	1
4902554	58	C	09/12/2022	23:10	-133.618	49.306	0	319.00	0	4.5130	0	33.8700	0	26.836	0	316.041	0	-1e10	8	-1e10	8	-1E+10	1	-1E+10	1	-1E+10	1	-1E+10	1	-1E+10	1	-1E+10	1
4902554	58	C	09/12/2022	23:10	-133.618	49.306	0	319.80	0	4.5120	0	33.8710	0	26.837	0	316.833	0	-1e10	8	-1e10	8	-1E+10	1	-1E+10	1	-1E+10	1	-1E+10	1	-1E+10	1	-1E+10	1
4902554	58	C	09/12/2022	23:10	-133.618	49.306	0	320.90	0	4.5040	0	33.8740	0	26.840	0	317.922	0	-1e10	8	-1e10	8	-1E+10	1	-1E+10	1	-1E+10	1	-1E+10	1	-1E+10	1	-1E+10	1
4902554	58	C	09/12/2022	23:10	-133.618	49.306	0	322.10	0	4.4920	0	33.8820	0	26.848	0	319.110	0	-1e10	8	-1e10	8	-1E+10	1	-1E+10	1	-1E+10	1	-1E+10	1	-1E+10	1	-1E+10	1
4902554	58	C	09/12/2022	23:10	-133.618	49.306	0	322.80	0	4.4920	0	33.8820	0	26.848	0	319.803	0	-1e10	8	-1e10	8	-1E+10	1	-1E+10	1	-1E+10	1	-1E+10	1	-1E+10	1	-1E+10	1
4902554	58	C	09/12/2022	23:10	-133.618	49.306	0	324.00	0	4.4900	0	33.8830	0	26.849	0	320.991	0	-1e10	8	-1e10	8	-1E+10	1	-1E+10	1	-1E+10	1	-1E+10	1	-1E+10	1	-1E+10	1
4902554	58	C	09/12/2022	23:10	-133.618	49.306	0	325.20	0	4.4870	0	33.8850	0	26.851	0	322.179	0	-1e10	8	-1e10	8	-1E+10	1	-1E+10	1	-1E+10	1	-1E+10	1	-1E+10	1	-1E+10	1
4902554	58	C	09/12/2022	23:10	-133.618	49.306	0	326.00	0	4.4870	0	33.8860	0	26.852	0	322.971	0	-1e10	8	-1e10	8	-1E+10	1	-1E+10	1	-1E+10	1	-1E+10	1	-1E+10	1	-1E+10	1
4902554	58	C	09/12/2022	23:10	-133.618	49.306	0	326.70	0	4.4860	0	33.8860	0	26.852	0	323.664	0	-1e10	8	-1e10	8	-1E+10	1	-1E+10	1	-1E+10	1	-1E+10	1	-1E+10	1	-1E+10	1
4902554	58	C	09/12/2022	23:10	-133.618	49.306	0	327.90	0	4.4850	0	33.8870	0	26.853	0	324.852	0	-1e10	8	-1e10	8	-1E+10	1	-1E+10	1	-1E+10	1	-1E+10	1	-1E+10	1	-1E+10	1
4902554	58	C	09/12/2022	23:10	-133.618	49.306	0	329.10	0	4.4840	0	33.8880	0	26.854	0	326.040	0	-1e10	8	-1e10	8	-1E+10	1	-1E+10	1	-1E+10	1	-1E+10	1	-1E+10	1	-1E+10	1
4902554	58	C	09/12/2022	23:10	-133.618	49.306	0	329.90	0	4.4840	0	33.8880	0	26.854	0	326.832	0	-1e10	8	-1e10	8	-1E+10	1	-1E+10	1	-1E+10	1	-1E+10	1	-1E+10	1	-1E+10	1
4902554	58	C	09/12/2022	23:10	-133.618	49.306	0	330.70	0	4.4830	0	33.8880	0	26.854	0	327.624	0	-1e10	8	-1e10	8	-1E+10	1	-1E+10	1	-1E+10	1	-1E+10	1	-1E+10	1	-1E+10	1
4902554	58	C	09/12/2022	23:10	-133.618	49.306	0	331.90	0	4.4810	0	33.8900	0	26.855	0	328.811	0	-1e10	8	-1e10	8	-1E+10	1	-1E+10	1	-1E+10	1	-1E+10	1	-1E+10	1	-1E+10	1
4902554	58	C	09/12/2022	23:10	-133.618	49.306	0	333.10	0	4.4800	0	33.8910	0	26.856	0	329.999	0	-1e10	8	-1e10	8	-1E+10	1	-1E+10	1	-1E+10	1	-1E+10	1	-1E+10	1	-1E+10	1
4902554	58	C	09/12/2022	23:10	-133.618	49.306	0	333.90	0	4.4790	0	33.8910	0	26.856	0	330.791	0	-1e10	8	-1e10	8	-1E+10	1	-1E+10	1	-1E+10	1	-1E+10	1	-1E+10	1	-1E+10	1
4902554	58	C	09/12/2022	23:10	-133.618	49.306	0	334.70	0	4.4770	0	33.8920	0	26.858	0	331.583	0	-1e10	8	-1e10	8	-1E+10	1	-1E+10	1	-1E+10	1	-1E+10	1	-1E+10	1	-1E+10	1
4902554	58	C	09/12/2022	23:10	-133.618	49.306	0	335.90	0	4.4700	0	33.8960	0	26.861	0	332.771	0	-1e10	8	-1e10	8	-1E+10	1	-1E+10	1	-1E+10	1	-1E+10	1	-1E+10	1	-1E+10	1
4902554	58	C	09/12/2022	23:10	-133.618	49.306	0	337.20	0	4.4680	0	33.8970	0	26.862	0	334.058	0	-1e10	8	-1e10	8	-1E+10	1	-1E+10	1	-1E+10	1	-1E+10	1	-1E+10	1	-1E+10	1
4902554	58	C	09/12/2022	23:10	-133.618	49.306	0	338.00	0	4.4680	0	33.8980	0	26.863	0	334.850	0	-1e10	8	-1e10	8	-1E+10	1	-1E+10	1	-1E+10	1	-1E+10	1	-1E+10	1	-1E+10	1
4902554	58	C	09/12/2022	23:10	-133.618	49.306	0	338.80	0	4.4630	0	33.9010	0	26.866	0	335.642	0	-1e10	8	-1e10	8	-1E+10	1	-1E+10	1	-1E+10	1	-1E+10	1	-1E+10	1	-1E+10	1
4902554	58	C	09/12/2022	23:10	-133.618	49.306	0	339.70	0	4.4620	0	33.9030	0	26.868	0	336.533	0	-1e10	8	-1e10	8	-1E+10	1	-1E+10	1	-1E+10	1	-1E+10	1	-1E+10	1	-1E+10	1
4902554	58	C	09/12/2022	23:10	-133.618	49.306	0	340.90	0	4.4590	0	33.9040	0	26.869	0	337.720	0	-1e10	8	-1e10	8	-1E+10	1	-1E+10	1	-1E+10	1	-1E+10	1	-1E+10	1	-1E+10	1
4902554	58	C	09/12/2022	23:10	-133.618	49.306	0	342.20	0	4.4590	0	33.9050	0	26.870	0	339.007	0	-1e10	8	-1e10	8	-1E+10	1	-1E+10	1	-1E+10	1	-1E+10	1	-1E+10	1	-1E+10	1
4902554	58	C	09/12/2022	23:10	-133.618	49.306	0	343.00	0	4.4590	0	33.9050	0	26.870	0	339.799	0	-1e10	8	-1e10	8	-1E+10	1	-1E+10	1	-1E+10	1	-1E+10	1	-1E+10	1	-1E+10	1
4902554	58	C	09/12/2022	23:10	-133.618	49.306	0	343.90	0	4.4580	0	33.9050	0	26.870	0	340.690	0	-1e10	8	-1e10	8	-1E+10	1	-1E+10	1	-1E+10	1	-1E+10	1	-1E+10	1	-1E+10	1
4902554	58	C	09/12/2022	23:10	-133.618	49.306	0	344.70	0	4.4560	0	33.9050	0	26.870	0	341.482	0	-1e10	8	-1e10	8	-1E+10	1	-1E+10	1	-1E+10	1	-1E+10	1	-1E+10	1	-1E+10	1
4902554	58	C	09/12/2022	23:10	-133.618	49.306	0	345.60	0	4.4550	0	33.9060	0	26.871	0	342.373	0	-1e10	8	-1e10	8	-1E+10	1	-1E+10	1	-1E+10	1	-1E+10	1	-1E+10	1	-1E+10	1
4902554	58	C	09/12/2022	23:10	-133.618	49.306	0	346.90	0	4.4550	0	33.9070	0	26.872	0	343.659	0	-1e10	8	-1e10	8	-1E+10	1	-1E+10	1	-1E+10	1	-1E+10	1	-1E+10	1	-1E+10	1
4902554	58	C	09/12/2022	23:10	-133.618	49.306	0	348.20	0	4.4550	0	33.9080	0	26.873	0	344.946	0	-1e10	8	-1e10	8	-1E+10	1	-1E+10	1	-1E+10	1	-1E+10	1	-1E+10	1	-1E+10	1
4902554	58	C	09/12/2022	23:10	-133.618	49.306	0	349.00	0	4.4540	0	33.9090	0	26.874	0	345.738	0	-1e10	8	-1e10	8	-1E+10	1	-1E+10	1	-1E+10	1	-1E+10	1	-1E+10	1	-1E+10	1
4902554	58	C	09/12/2022	23:10	-133.618	49.306	0	349.90	0	4.4540	0	33.9090	0	26.874	0	346.629	0	-1e10	8	-1e10	8	-1E+10	1	-1E+10	1	-1E+10	1	-1E+10	1	-1E+10	1	-1E+10	1
4902554	58	C	09/12/2022	23:10	-133.618	49.306	0	352.90	0	4.4490	0	33.9110	0	26.876	0	349.598	0	-1e10	8	-1e10	8	-1E+10	1	-1E+10	1	-1E+10	1	-1E+10	1	-1E+10	1	-1E+10	1
4902554	58	C	09/12/2022	23:10	-133.618	49.306	0	358.10	0	4.4390	0	33.9190	0	26.883	0	354.745	0	-1e10	8	-1e10	8	-1E+10	1	-1E+10	1	-1E+10	1	-1E+10	1	-1E+10	1	-1E+10	1
4902554	58	C	09/12/2022	23:10	-133.618	49.306	0	362.90	0	4.4330	0	33.9260	0	26.889	0	359.496	0	-1e10	8	-1e10	8	-1E+10	1	-1E+10	1	-1E+10	1	-1E+10	1	-1E+10	1	-1E+10	1
4902554	58	C	09/12/2022	23:10	-133.618	49.306	0	367.70	0	4.4260	0	33.9330	0	26.896	0	364.247	0	-1e10	8	-1e10	8	-1E+10	1	-1E+10	1	-1E+10	1	-1E+10	1	-1E+10	1	-1E+10	1
4902554	58	C	09/12/2022	23:10	-133.618	49.306	0	372.70	0	4.4120	0	33.9420	0	26.904	0	369.195	0	-1e10	8	-1e10	8	-1E+10	1	-1E+10	1	-1E+10	1	-1E+10	1	-1E+10	1	-1E+10	1
4902554	58	C	09/12/2022	23:10	-133.618	49.306	0	377.70	0	4.3820	0	33.9510	0	26.915	0	374.144	0	-1e10	8	-1e10	8	-1E+10	1	-1E+10	1	-1E+10	1	-1E+10	1	-1E+10	1	-1E+10	1
4902554	58	C	09/12/2022	23:10	-133.618	49.306	0	382.70	0	4.3620	0	33.9630	0	26.927	0	379.092	0	-1e10	8	-1e10	8	-1E+10	1	-1E+10	1	-1E+10	1	-1E+10	1	-1E+10	1	-1E+10	1
4902554	58	C	09/12/2022	23:10	-133.618	49.306	0	387.70	0	4.3620	0	33.9700	0	26.932	0	384.041	0	-1e10	8	-1e10	8	-1E+10	1	-1E+10	1	-1E+10	1	-1E+10	1	-1E+10	1	-1E+10	1
4902554	58	C	09/12/2022	23:10	-133.618	49.306	0	392.70	0	4.3540	0	33.9760	0	26.938	0	388.989	0	-1e10	8	-1e10	8	-1E+10	1	-1E+10	1	-1E+10	1	-1E+10	1	-1E+10	1	-1E+10	1
4902554	58	C	09/12/2022	23:10	-133.618	49.306	0	397.70	0	4.3450	0	33.9820	0	26.944	0	393.937	0	-1e10	8	-1e10	8	-1E+10	1	-1E+10	1	-1E+10	1	-1E+10	1	-1E+10	1	-1E+10	1
4902554	58	C	09/12/2022	23:10	-133.618	49.306	0	402.70	0	4.3350	0	33.9870	0	26.949	0	398.885	0	-1e10	8	-1e10	8	-1E+10	1	-1E+10	1	-1E+10	1	-1E+10	1	-1E+10	1	-1E+10	1
4902554	58	C	09/12/2022	23:10	-133.618	49.306	0	407.70	0	4.3150	0	33.9990	0	26.960	0	403.832	0	-1e10	8	-1e10	8	-1E+10	1	-1E+10	1	-1E+10	1	-1E+10	1	-1E+10	1	-1E+10	1
4902554	58	C	09/12/2022	23:10	-133.618	49.306	0	412.70	0	4.3070	0	34.0040	0	26.965	0	408.780	0	-1e10	8	-1e10	8	-1E+10	1	-1E+10	1	-1E+10	1	-1E+10	1	-1E+10	1	-1E+10	1
4902554	58	C	09/12/2022	23:10	-133.618	49.306	0	417.70	0	4.3010	0	34.0070	0	26.968	0	413.727	0	-1e10	8	-1e10	8	-1E+10	1	-1E+10	1	-1E+10	1	-1E+10	1	-1E+10	1	-1E+10	1
4902554	58	C	09/12/2022	23:10	-133.618	49.306	0	422.80	0	4.2890	0	34.0150	0	26.976	0	418.774	0	-1e10	8	-1e10	8	-1E+10	1	-1E+10	1	-1E+10	1	-1E+10	1	-1E+10	1	-1E+10	1
4902554	58	C	09/12/2022	23:10	-133.618	49.306	0	427.90	0	4.2780	0	34.0200	0	26.981	0	423.820	0	-1e10	8	-1e10	8	-1E+10	1	-1E+10	1	-1E+10	1	-1E+10	1	-1E+10	1	-1E+10	1
4902554	58	C	09/12/2022	23:10	-133.618	49.306	0	433.10	0	4.2660	0	34.0230	0	26.985	0	428.965	0	-1e10	8	-1e10	8	-1E+10	1	-1E+10	1	-1E+10	1	-1E+10	1	-1E+10	1	-1E+10	1
4902554	58	C	09/12/2022	23:10	-133.618	49.306	0	438.00	0	4.2630	0	34.0250	0	26.987	0	433.813	0	-1e10	8	-1e10	8	-1E+10	1	-1E+10	1	-1E+10	1	-1E+10	1	-1E+10	1	-1E+10	1
4902554	58	C	09/12/2022	23:10	-133.618	49.306	0	443.10	0	4.2530	0	34.0300	0	26.992	0	438.859	0	-1e10	8	-1e10	8	-1E+10	1	-1E+10	1	-1E+10	1	-1E+10	1	-1E+10	1	-1E+10	1
4902554	58	C	09/12/2022	23:10	-133.618	49.306	0	448.20	0	4.2500	0	34.0340	0	26.995	0	443.905	0	-1e10	8	-1e10	8	-1E+10	1	-1E+10	1	-1E+10	1	-1E+10	1	-1E+10	1	-1E+10	1
4902554	58	C	09/12/2022	23:10	-133.618	49.306	0	452.90	0	4.2440	0	34.0370	0	26.998	0	448.555	0	-1e10	8	-1e10	8	-1E+10	1	-1E+10	1	-1E+10	1	-1E+10	1	-1E+10	1	-1E+10	1
4902554	58	C	09/12/2022	23:10	-133.618	49.306	0	457.70	0	4.2320	0	34.0430	0	27.004	0	453.303	0	-1e10	8	-1e10	8	-1E+10	1	-1E+10	1	-1E+10	1	-1E+10	1	-1E+10	1	-1E+10	1
4902554	58	C	09/12/2022	23:10	-133.618	49.306	0	462.60	0	4.2210	0	34.0470	0	27.009	0	458.151	0	-1e10	8	-1e10	8	-1E+10	1	-1E+10	1	-1E+10	1	-1E+10	1	-1E+10	1	-1E+10	1
4902554	58	C	09/12/2022	23:10	-133.618	49.306	0	467.70	0	4.2090	0	34.0530	0	27.015	0	463.196	0	-1e10	8	-1e10	8	-1E+10	1	-1E+10	1	-1E+10	1	-1E+10	1	-1E+10	1	-1E+10	1
4902554	58	C	09/12/2022	23:10	-133.618	49.306	0	473.00	0	4.1920	0	34.0600	0	27.022	0	468.439	0	-1e10	8	-1e10	8	-1E+10	1	-1E+10	1	-1E+10	1	-1E+10	1	-1E+10	1	-1E+10	1
4902554	58	C	09/12/2022	23:10	-133.618	49.306	0	477.90	0	4.1810	0	34.0670	0	27.029	0	473.286	0	-1e10	8	-1e10	8	-1E+10	1	-1E+10	1	-1E+10	1	-1E+10	1	-1E+10	1	-1E+10	1
4902554	58	C	09/12/2022	23:10	-133.618	49.306	0	482.60	0	4.1690	0	34.0720	0	27.034	0	477.936	0	-1e10	8	-1e10	8	-1E+10	1	-1E+10	1	-1E+10	1	-1E+10	1	-1E+10	1	-1E+10	1
4902554	58	C	09/12/2022	23:10	-133.618	49.306	0	487.60	0	4.1590	0	34.0760	0	27.038	0	482.881	0	-1e10	8	-1e10	8	-1E+10	1	-1E+10	1	-1E+10	1	-1E+10	1	-1E+10	1	-1E+10	1
4902554	58	C	09/12/2022	23:10	-133.618	49.306	0	492.70	0	4.1470	0	34.0800	0	27.043	0	487.926	0	-1e10	8	-1e10	8	-1E+10	1	-1E+10	1	-1E+10	1	-1E+10	1	-1E+10	1	-1E+10	1
4902554	58	C	09/12/2022	23:10	-133.618	49.306	0	497.80	0	4.1330	0	34.0860	0	27.049	0	492.971	0	-1e10	8	-1e10	8	-1E+10	1	-1E+10	1	-1E+10	1	-1E+10	1	-1E+10	1	-1E+10	1
4902554	58	C	09/12/2022	23:10	-133.618	49.306	0	503.00	0	4.1280	0	34.0890	0	27.052	0	498.114	0	-1e10	8	-1e10	8	-1E+10	1	-1E+10	1	-1E+10	1	-1E+10	1	-1E+10	1	-1E+10	1
4902554	58	C	09/12/2022	23:10	-133.618	49.306	0	507.80	0	4.1180	0	34.0920	0	27.056	0	502.861	0	-1e10	8	-1e10	8	-1E+10	1	-1E+10	1	-1E+10	1	-1E+10	1	-1E+10	1	-1E+10	1
4902554	58	C	09/12/2022	23:10	-133.618	49.306	0	512.70	0	4.0990	0	34.0960	0	27.061	0	507.708	0	-1e10	8	-1e10	8	-1E+10	1	-1E+10	1	-1E+10	1	-1E+10	1	-1E+10	1	-1E+10	1
4902554	58	C	09/12/2022	23:10	-133.618	49.306	0	517.90	0	4.0790	0	34.1030	0	27.068	0	512.851	0	-1e10	8	-1e10	8	-1E+10	1	-1E+10	1	-1E+10	1	-1E+10	1	-1E+10	1	-1E+10	1
4902554	58	C	09/12/2022	23:10	-133.618	49.306	0	522.80	0	4.0690	0	34.1090	0	27.074	0	517.697	0	-1e10	8	-1e10	8	-1E+10	1	-1E+10	1	-1E+10	1	-1E+10	1	-1E+10	1	-1E+10	1
4902554	58	C	09/12/2022	23:10	-133.618	49.306	0	527.60	0	4.0540	0	34.1130	0	27.079	0	522.444	0	-1e10	8	-1e10	8	-1E+10	1	-1E+10	1	-1E+10	1	-1E+10	1	-1E+10	1	-1E+10	1
4902554	58	C	09/12/2022	23:10	-133.618	49.306	0	533.00	0	4.0330	0	34.1200	0	27.087	0	527.784	0	-1e10	8	-1e10	8	-1E+10	1	-1E+10	1	-1E+10	1	-1E+10	1	-1E+10	1	-1E+10	1
4902554	58	C	09/12/2022	23:10	-133.618	49.306	0	537.90	0	4.0220	0	34.1230	0	27.090	0	532.630	0	-1e10	8	-1e10	8	-1E+10	1	-1E+10	1	-1E+10	1	-1E+10	1	-1E+10	1	-1E+10	1
4902554	58	C	09/12/2022	23:10	-133.618	49.306	0	542.80	0	4.0130	0	34.1270	0	27.094	0	537.476	0	-1e10	8	-1e10	8	-1E+10	1	-1E+10	1	-1E+10	1	-1E+10	1	-1E+10	1	-1E+10	1
4902554	58	C	09/12/2022	23:10	-133.618	49.306	0	548.10	0	4.0070	0	34.1330	0	27.100	0	542.717	0	-1e10	8	-1e10	8	-1E+10	1	-1E+10	1	-1E+10	1	-1E+10	1	-1E+10	1	-1E+10	1
4902554	58	C	09/12/2022	23:10	-133.618	49.306	0	553.00	0	3.9990	0	34.1360	0	27.103	0	547.562	0	-1e10	8	-1e10	8	-1E+10	1	-1E+10	1	-1E+10	1	-1E+10	1	-1E+10	1	-1E+10	1
4902554	58	C	09/12/2022	23:10	-133.618	49.306	0	557.80	0	3.9910	0	34.1390	0	27.106	0	552.309	0	-1e10	8	-1e10	8	-1E+10	1	-1E+10	1	-1E+10	1	-1E+10	1	-1E+10	1	-1E+10	1
4902554	58	C	09/12/2022	23:10	-133.618	49.306	0	563.10	0	3.9790	0	34.1430	0	27.111	0	557.550	0	-1e10	8	-1e10	8	-1E+10	1	-1E+10	1	-1E+10	1	-1E+10	1	-1E+10	1	-1E+10	1
4902554	58	C	09/12/2022	23:10	-133.618	49.306	0	567.90	0	3.9760	0	34.1440	0	27.112	0	562.296	0	-1e10	8	-1e10	8	-1E+10	1	-1E+10	1	-1E+10	1	-1E+10	1	-1E+10	1	-1E+10	1
4902554	58	C	09/12/2022	23:10	-133.618	49.306	0	572.80	0	3.9630	0	34.1490	0	27.117	0	567.141	0	-1e10	8	-1e10	8	-1E+10	1	-1E+10	1	-1E+10	1	-1E+10	1	-1E+10	1	-1E+10	1
4902554	58	C	09/12/2022	23:10	-133.618	49.306	0	578.00	0	3.9440	0	34.1540	0	27.123	0	572.282	0	-1e10	8	-1e10	8	-1E+10	1	-1E+10	1	-1E+10	1	-1E+10	1	-1E+10	1	-1E+10	1
4902554	58	C	09/12/2022	23:10	-133.618	49.306	0	582.90	0	3.9370	0	34.1570	0	27.126	0	577.127	0	-1e10	8	-1e10	8	-1E+10	1	-1E+10	1	-1E+10	1	-1E+10	1	-1E+10	1	-1E+10	1
4902554	58	C	09/12/2022	23:10	-133.618	49.306	0	587.70	0	3.9270	0	34.1600	0	27.130	0	581.873	0	-1e10	8	-1e10	8	-1E+10	1	-1E+10	1	-1E+10	1	-1E+10	1	-1E+10	1	-1E+10	1
4902554	58	C	09/12/2022	23:10	-133.618	49.306	0	593.00	0	3.9120	0	34.1640	0	27.134	0	587.113	0	-1e10	8	-1e10	8	-1E+10	1	-1E+10	1	-1E+10	1	-1E+10	1	-1E+10	1	-1E+10	1
4902554	58	C	09/12/2022	23:10	-133.618	49.306	0	597.90	0	3.9050	0	34.1670	0	27.138	0	591.957	0	-1e10	8	-1e10	8	-1E+10	1	-1E+10	1	-1E+10	1	-1E+10	1	-1E+10	1	-1E+10	1
4902554	58	C	09/12/2022	23:10	-133.618	49.306	0	602.80	0	3.8950	0	34.1700	0	27.141	0	596.801	0	-1e10	8	-1e10	8	-1E+10	1	-1E+10	1	-1E+10	1	-1E+10	1	-1E+10	1	-1E+10	1
4902554	58	C	09/12/2022	23:10	-133.618	49.306	0	608.10	0	3.8850	0	34.1740	0	27.145	0	602.041	0	-1e10	8	-1e10	8	-1E+10	1	-1E+10	1	-1E+10	1	-1E+10	1	-1E+10	1	-1E+10	1
4902554	58	C	09/12/2022	23:10	-133.618	49.306	0	613.10	0	3.8780	0	34.1770	0	27.148	0	606.984	0	-1e10	8	-1e10	8	-1E+10	1	-1E+10	1	-1E+10	1	-1E+10	1	-1E+10	1	-1E+10	1
4902554	58	C	09/12/2022	23:10	-133.618	49.306	0	617.70	0	3.8640	0	34.1810	0	27.153	0	611.531	0	-1e10	8	-1e10	8	-1E+10	1	-1E+10	1	-1E+10	1	-1E+10	1	-1E+10	1	-1E+10	1
4902554	58	C	09/12/2022	23:10	-133.618	49.306	0	622.70	0	3.8520	0	34.1840	0	27.157	0	616.474	0	-1e10	8	-1e10	8	-1E+10	1	-1E+10	1	-1E+10	1	-1E+10	1	-1E+10	1	-1E+10	1
4902554	58	C	09/12/2022	23:10	-133.618	49.306	0	627.90	0	3.8350	0	34.1900	0	27.163	0	621.614	0	-1e10	8	-1e10	8	-1E+10	1	-1E+10	1	-1E+10	1	-1E+10	1	-1E+10	1	-1E+10	1
4902554	58	C	09/12/2022	23:10	-133.618	49.306	0	632.70	0	3.8250	0	34.1920	0	27.166	0	626.359	0	-1e10	8	-1e10	8	-1E+10	1	-1E+10	1	-1E+10	1	-1E+10	1	-1E+10	1	-1E+10	1
4902554	58	C	09/12/2022	23:10	-133.618	49.306	0	637.60	0	3.8200	0	34.1940	0	27.168	0	631.202	0	-1e10	8	-1e10	8	-1E+10	1	-1E+10	1	-1E+10	1	-1E+10	1	-1E+10	1	-1E+10	1
4902554	58	C	09/12/2022	23:10	-133.618	49.306	0	642.60	0	3.8010	0	34.1990	0	27.174	0	636.144	0	-1e10	8	-1e10	8	-1E+10	1	-1E+10	1	-1E+10	1	-1E+10	1	-1E+10	1	-1E+10	1
4902554	58	C	09/12/2022	23:10	-133.618	49.306	0	647.60	0	3.7970	0	34.2010	0	27.176	0	641.087	0	-1e10	8	-1e10	8	-1E+10	1	-1E+10	1	-1E+10	1	-1E+10	1	-1E+10	1	-1E+10	1
4902554	58	C	09/12/2022	23:10	-133.618	49.306	0	652.60	0	3.7900	0	34.2020	0	27.177	0	646.029	0	-1e10	8	-1e10	8	-1E+10	1	-1E+10	1	-1E+10	1	-1E+10	1	-1E+10	1	-1E+10	1
4902554	58	C	09/12/2022	23:10	-133.618	49.306	0	657.80	0	3.7770	0	34.2050	0	27.181	0	651.168	0	-1e10	8	-1e10	8	-1E+10	1	-1E+10	1	-1E+10	1	-1E+10	1	-1E+10	1	-1E+10	1
4902554	58	C	09/12/2022	23:10	-133.618	49.306	0	663.00	0	3.7630	0	34.2090	0	27.186	0	656.307	0	-1e10	8	-1e10	8	-1E+10	1	-1E+10	1	-1E+10	1	-1E+10	1	-1E+10	1	-1E+10	1
4902554	58	C	09/12/2022	23:10	-133.618	49.306	0	668.00	0	3.7550	0	34.2110	0	27.188	0	661.249	0	-1e10	8	-1e10	8	-1E+10	1	-1E+10	1	-1E+10	1	-1E+10	1	-1E+10	1	-1E+10	1
4902554	58	C	09/12/2022	23:10	-133.618	49.306	0	672.70	0	3.7540	0	34.2110	0	27.188	0	665.894	0	-1e10	8	-1e10	8	-1E+10	1	-1E+10	1	-1E+10	1	-1E+10	1	-1E+10	1	-1E+10	1
4902554	58	C	09/12/2022	23:10	-133.618	49.306	0	677.90	0	3.7480	0	34.2130	0	27.190	0	671.033	0	-1e10	8	-1e10	8	-1E+10	1	-1E+10	1	-1E+10	1	-1E+10	1	-1E+10	1	-1E+10	1
4902554	58	C	09/12/2022	23:10	-133.618	49.306	0	682.90	0	3.7350	0	34.2160	0	27.194	0	675.974	0	-1e10	8	-1e10	8	-1E+10	1	-1E+10	1	-1E+10	1	-1E+10	1	-1E+10	1	-1E+10	1
4902554	58	C	09/12/2022	23:10	-133.618	49.306	0	687.50	0	3.7240	0	34.2190	0	27.198	0	680.520	0	-1e10	8	-1e10	8	-1E+10	1	-1E+10	1	-1E+10	1	-1E+10	1	-1E+10	1	-1E+10	1
4902554	58	C	09/12/2022	23:10	-133.618	49.306	0	692.60	0	3.7100	0	34.2220	0	27.202	0	685.560	0	-1e10	8	-1e10	8	-1E+10	1	-1E+10	1	-1E+10	1	-1E+10	1	-1E+10	1	-1E+10	1
4902554	58	C	09/12/2022	23:10	-133.618	49.306	0	697.60	0	3.7030	0	34.2240	0	27.204	0	690.501	0	-1e10	8	-1e10	8	-1E+10	1	-1E+10	1	-1E+10	1	-1E+10	1	-1E+10	1	-1E+10	1
4902554	58	C	09/12/2022	23:10	-133.618	49.306	0	702.90	0	3.6850	0	34.2290	0	27.210	0	695.738	0	-1e10	8	-1e10	8	-1E+10	1	-1E+10	1	-1E+10	1	-1E+10	1	-1E+10	1	-1E+10	1
4902554	58	C	09/12/2022	23:10	-133.618	49.306	0	708.10	0	3.6730	0	34.2310	0	27.212	0	700.876	0	-1e10	8	-1e10	8	-1E+10	1	-1E+10	1	-1E+10	1	-1E+10	1	-1E+10	1	-1E+10	1
4902554	58	C	09/12/2022	23:10	-133.618	49.306	0	713.10	0	3.6590	0	34.2340	0	27.216	0	705.817	0	-1e10	8	-1e10	8	-1E+10	1	-1E+10	1	-1E+10	1	-1E+10	1	-1E+10	1	-1E+10	1
4902554	58	C	09/12/2022	23:10	-133.618	49.306	0	718.00	0	3.6320	0	34.2400	0	27.224	0	710.659	0	-1e10	8	-1e10	8	-1E+10	1	-1E+10	1	-1E+10	1	-1E+10	1	-1E+10	1	-1E+10	1
4902554	58	C	09/12/2022	23:10	-133.618	49.306	0	723.00	0	3.6160	0	34.2440	0	27.228	0	715.599	0	-1e10	8	-1e10	8	-1E+10	1	-1E+10	1	-1E+10	1	-1E+10	1	-1E+10	1	-1E+10	1
4902554	58	C	09/12/2022	23:10	-133.618	49.306	0	727.80	0	3.6120	0	34.2440	0	27.229	0	720.341	0	-1e10	8	-1e10	8	-1E+10	1	-1E+10	1	-1E+10	1	-1E+10	1	-1E+10	1	-1E+10	1
4902554	58	C	09/12/2022	23:10	-133.618	49.306	0	733.10	0	3.5930	0	34.2490	0	27.235	0	725.578	0	-1e10	8	-1e10	8	-1E+10	1	-1E+10	1	-1E+10	1	-1E+10	1	-1E+10	1	-1E+10	1
4902554	58	C	09/12/2022	23:10	-133.618	49.306	0	737.90	0	3.5790	0	34.2520	0	27.238	0	730.320	0	-1e10	8	-1e10	8	-1E+10	1	-1E+10	1	-1E+10	1	-1E+10	1	-1E+10	1	-1E+10	1
4902554	58	C	09/12/2022	23:10	-133.618	49.306	0	742.80	0	3.5680	0	34.2550	0	27.242	0	735.161	0	-1e10	8	-1e10	8	-1E+10	1	-1E+10	1	-1E+10	1	-1E+10	1	-1E+10	1	-1E+10	1
4902554	58	C	09/12/2022	23:10	-133.618	49.306	0	748.00	0	3.5560	0	34.2570	0	27.245	0	740.299	0	-1e10	8	-1e10	8	-1E+10	1	-1E+10	1	-1E+10	1	-1E+10	1	-1E+10	1	-1E+10	1
4902554	58	C	09/12/2022	23:10	-133.618	49.306	0	753.20	0	3.5360	0	34.2620	0	27.251	0	745.436	0	-1e10	8	-1e10	8	-1E+10	1	-1E+10	1	-1E+10	1	-1E+10	1	-1E+10	1	-1E+10	1
4902554	58	C	09/12/2022	23:10	-133.618	49.306	0	758.00	0	3.5250	0	34.2640	0	27.253	0	750.178	0	-1e10	8	-1e10	8	-1E+10	1	-1E+10	1	-1E+10	1	-1E+10	1	-1E+10	1	-1E+10	1
4902554	58	C	09/12/2022	23:10	-133.618	49.306	0	762.80	0	3.5150	0	34.2660	0	27.256	0	754.919	0	-1e10	8	-1e10	8	-1E+10	1	-1E+10	1	-1E+10	1	-1E+10	1	-1E+10	1	-1E+10	1
4902554	58	C	09/12/2022	23:10	-133.618	49.306	0	768.00	0	3.5060	0	34.2680	0	27.258	0	760.056	0	-1e10	8	-1e10	8	-1E+10	1	-1E+10	1	-1E+10	1	-1E+10	1	-1E+10	1	-1E+10	1
4902554	58	C	09/12/2022	23:10	-133.618	49.306	0	773.10	0	3.5020	0	34.2690	0	27.260	0	765.094	0	-1e10	8	-1e10	8	-1E+10	1	-1E+10	1	-1E+10	1	-1E+10	1	-1E+10	1	-1E+10	1
4902554	58	C	09/12/2022	23:10	-133.618	49.306	0	778.20	0	3.4850	0	34.2730	0	27.265	0	770.132	0	-1e10	8	-1e10	8	-1E+10	1	-1E+10	1	-1E+10	1	-1E+10	1	-1E+10	1	-1E+10	1
4902554	58	C	09/12/2022	23:10	-133.618	49.306	0	782.90	0	3.4760	0	34.2740	0	27.266	0	774.775	0	-1e10	8	-1e10	8	-1E+10	1	-1E+10	1	-1E+10	1	-1E+10	1	-1E+10	1	-1E+10	1
4902554	58	C	09/12/2022	23:10	-133.618	49.306	0	787.70	0	3.4700	0	34.2750	0	27.268	0	779.516	0	-1e10	8	-1e10	8	-1E+10	1	-1E+10	1	-1E+10	1	-1E+10	1	-1E+10	1	-1E+10	1
4902554	58	C	09/12/2022	23:10	-133.618	49.306	0	792.90	0	3.4600	0	34.2770	0	27.270	0	784.652	0	-1e10	8	-1e10	8	-1E+10	1	-1E+10	1	-1E+10	1	-1E+10	1	-1E+10	1	-1E+10	1
4902554	58	C	09/12/2022	23:10	-133.618	49.306	0	797.90	0	3.4600	0	34.2770	0	27.270	0	789.591	0	-1e10	8	-1e10	8	-1E+10	1	-1E+10	1	-1E+10	1	-1E+10	1	-1E+10	1	-1E+10	1
4902554	58	C	09/12/2022	23:10	-133.618	49.306	0	802.80	0	3.4580	0	34.2770	0	27.270	0	794.430	0	-1e10	8	-1e10	8	-1E+10	1	-1E+10	1	-1E+10	1	-1E+10	1	-1E+10	1	-1E+10	1
4902554	58	C	09/12/2022	23:10	-133.618	49.306	0	808.10	0	3.4440	0	34.2800	0	27.274	0	799.665	0	-1e10	8	-1e10	8	-1E+10	1	-1E+10	1	-1E+10	1	-1E+10	1	-1E+10	1	-1E+10	1
4902554	58	C	09/12/2022	23:10	-133.618	49.306	0	813.10	0	3.4330	0	34.2830	0	27.278	0	804.603	0	-1e10	8	-1e10	8	-1E+10	1	-1E+10	1	-1E+10	1	-1E+10	1	-1E+10	1	-1E+10	1
4902554	58	C	09/12/2022	23:10	-133.618	49.306	0	818.00	0	3.4110	0	34.2880	0	27.284	0	809.442	0	-1e10	8	-1e10	8	-1E+10	1	-1E+10	1	-1E+10	1	-1E+10	1	-1E+10	1	-1E+10	1
4902554	58	C	09/12/2022	23:10	-133.618	49.306	0	823.00	0	3.4050	0	34.2900	0	27.286	0	814.380	0	-1e10	8	-1e10	8	-1E+10	1	-1E+10	1	-1E+10	1	-1E+10	1	-1E+10	1	-1E+10	1
4902554	58	C	09/12/2022	23:10	-133.618	49.306	0	828.00	0	3.4010	0	34.2930	0	27.289	0	819.318	0	-1e10	8	-1e10	8	-1E+10	1	-1E+10	1	-1E+10	1	-1E+10	1	-1E+10	1	-1E+10	1
4902554	58	C	09/12/2022	23:10	-133.618	49.306	0	833.00	0	3.3940	0	34.2950	0	27.291	0	824.256	0	-1e10	8	-1e10	8	-1E+10	1	-1E+10	1	-1E+10	1	-1E+10	1	-1E+10	1	-1E+10	1
4902554	58	C	09/12/2022	23:10	-133.618	49.306	0	838.00	0	3.3900	0	34.2960	0	27.292	0	829.193	0	-1e10	8	-1e10	8	-1E+10	1	-1E+10	1	-1E+10	1	-1E+10	1	-1E+10	1	-1E+10	1
4902554	58	C	09/12/2022	23:10	-133.618	49.306	0	843.10	0	3.3820	0	34.2980	0	27.295	0	834.230	0	-1e10	8	-1e10	8	-1E+10	1	-1E+10	1	-1E+10	1	-1E+10	1	-1E+10	1	-1E+10	1
4902554	58	C	09/12/2022	23:10	-133.618	49.306	0	847.80	0	3.3760	0	34.2980	0	27.295	0	838.871	0	-1e10	8	-1e10	8	-1E+10	1	-1E+10	1	-1E+10	1	-1E+10	1	-1E+10	1	-1E+10	1
4902554	58	C	09/12/2022	23:10	-133.618	49.306	0	852.60	0	3.3500	0	34.3020	0	27.301	0	843.610	0	-1e10	8	-1e10	8	-1E+10	1	-1E+10	1	-1E+10	1	-1E+10	1	-1E+10	1	-1E+10	1
4902554	58	C	09/12/2022	23:10	-133.618	49.306	0	857.60	0	3.3420	0	34.3030	0	27.303	0	848.548	0	-1e10	8	-1e10	8	-1E+10	1	-1E+10	1	-1E+10	1	-1E+10	1	-1E+10	1	-1E+10	1
4902554	58	C	09/12/2022	23:10	-133.618	49.306	0	862.60	0	3.3380	0	34.3040	0	27.304	0	853.485	0	-1e10	8	-1e10	8	-1E+10	1	-1E+10	1	-1E+10	1	-1E+10	1	-1E+10	1	-1E+10	1
4902554	58	C	09/12/2022	23:10	-133.618	49.306	0	867.80	0	3.3350	0	34.3070	0	27.306	0	858.619	0	-1e10	8	-1e10	8	-1E+10	1	-1E+10	1	-1E+10	1	-1E+10	1	-1E+10	1	-1E+10	1
4902554	58	C	09/12/2022	23:10	-133.618	49.306	0	872.90	0	3.3310	0	34.3070	0	27.307	0	863.655	0	-1e10	8	-1e10	8	-1E+10	1	-1E+10	1	-1E+10	1	-1E+10	1	-1E+10	1	-1E+10	1
4902554	58	C	09/12/2022	23:10	-133.618	49.306	0	878.30	0	3.3170	0	34.3110	0	27.311	0	868.986	0	-1e10	8	-1e10	8	-1E+10	1	-1E+10	1	-1E+10	1	-1E+10	1	-1E+10	1	-1E+10	1
4902554	58	C	09/12/2022	23:10	-133.618	49.306	0	883.10	0	3.3120	0	34.3110	0	27.312	0	873.725	0	-1e10	8	-1e10	8	-1E+10	1	-1E+10	1	-1E+10	1	-1E+10	1	-1E+10	1	-1E+10	1
4902554	58	C	09/12/2022	23:10	-133.618	49.306	0	887.90	0	3.2940	0	34.3150	0	27.317	0	878.464	0	-1e10	8	-1e10	8	-1E+10	1	-1E+10	1	-1E+10	1	-1E+10	1	-1E+10	1	-1E+10	1
4902554	58	C	09/12/2022	23:10	-133.618	49.306	0	892.90	0	3.2850	0	34.3180	0	27.320	0	883.401	0	-1e10	8	-1e10	8	-1E+10	1	-1E+10	1	-1E+10	1	-1E+10	1	-1E+10	1	-1E+10	1
4902554	58	C	09/12/2022	23:10	-133.618	49.306	0	897.80	0	3.2770	0	34.3200	0	27.322	0	888.238	0	-1e10	8	-1e10	8	-1E+10	1	-1E+10	1	-1E+10	1	-1E+10	1	-1E+10	1	-1E+10	1
4902554	58	C	09/12/2022	23:10	-133.618	49.306	0	902.90	0	3.2570	0	34.3240	0	27.328	0	893.273	0	-1e10	8	-1e10	8	-1E+10	1	-1E+10	1	-1E+10	1	-1E+10	1	-1E+10	1	-1E+10	1
4902554	58	C	09/12/2022	23:10	-133.618	49.306	0	907.90	0	3.2560	0	34.3240	0	27.328	0	898.209	0	-1e10	8	-1e10	8	-1E+10	1	-1E+10	1	-1E+10	1	-1E+10	1	-1E+10	1	-1E+10	1
4902554	58	C	09/12/2022	23:10	-133.618	49.306	0	912.90	0	3.2410	0	34.3270	0	27.332	0	903.145	0	-1e10	8	-1e10	8	-1E+10	1	-1E+10	1	-1E+10	1	-1E+10	1	-1E+10	1	-1E+10	1
4902554	58	C	09/12/2022	23:10	-133.618	49.306	0	917.90	0	3.2240	0	34.3310	0	27.336	0	908.080	0	-1e10	8	-1e10	8	-1E+10	1	-1E+10	1	-1E+10	1	-1E+10	1	-1E+10	1	-1E+10	1
4902554	58	C	09/12/2022	23:10	-133.618	49.306	0	923.00	0	3.2180	0	34.3320	0	27.338	0	913.115	0	-1e10	8	-1e10	8	-1E+10	1	-1E+10	1	-1E+10	1	-1E+10	1	-1E+10	1	-1E+10	1
4902554	58	C	09/12/2022	23:10	-133.618	49.306	0	928.20	0	3.2150	0	34.3320	0	27.338	0	918.248	0	-1e10	8	-1e10	8	-1E+10	1	-1E+10	1	-1E+10	1	-1E+10	1	-1E+10	1	-1E+10	1
4902554	58	C	09/12/2022	23:10	-133.618	49.306	0	933.20	0	3.2060	0	34.3330	0	27.340	0	923.183	0	-1e10	8	-1e10	8	-1E+10	1	-1E+10	1	-1E+10	1	-1E+10	1	-1E+10	1	-1E+10	1
4902554	58	C	09/12/2022	23:10	-133.618	49.306	0	937.90	0	3.1950	0	34.3360	0	27.343	0	927.822	0	-1e10	8	-1e10	8	-1E+10	1	-1E+10	1	-1E+10	1	-1E+10	1	-1E+10	1	-1E+10	1
4902554	58	C	09/12/2022	23:10	-133.618	49.306	0	942.60	0	3.1790	0	34.3380	0	27.346	0	932.461	0	-1e10	8	-1e10	8	-1E+10	1	-1E+10	1	-1E+10	1	-1E+10	1	-1E+10	1	-1E+10	1
4902554	58	C	09/12/2022	23:10	-133.618	49.306	0	947.80	0	3.1700	0	34.3390	0	27.348	0	937.593	0	-1e10	8	-1e10	8	-1E+10	1	-1E+10	1	-1E+10	1	-1E+10	1	-1E+10	1	-1E+10	1
4902554	58	C	09/12/2022	23:10	-133.618	49.306	0	953.00	0	3.1600	0	34.3420	0	27.351	0	942.726	0	-1e10	8	-1e10	8	-1E+10	1	-1E+10	1	-1E+10	1	-1E+10	1	-1E+10	1	-1E+10	1
4902554	58	C	09/12/2022	23:10	-133.618	49.306	0	958.10	0	3.1470	0	34.3440	0	27.354	0	947.759	0	-1e10	8	-1e10	8	-1E+10	1	-1E+10	1	-1E+10	1	-1E+10	1	-1E+10	1	-1E+10	1
4902554	58	C	09/12/2022	23:10	-133.618	49.306	0	962.90	0	3.1260	0	34.3480	0	27.359	0	952.497	0	-1e10	8	-1e10	8	-1E+10	1	-1E+10	1	-1E+10	1	-1E+10	1	-1E+10	1	-1E+10	1
4902554	58	C	09/12/2022	23:10	-133.618	49.306	0	967.60	0	3.1140	0	34.3510	0	27.363	0	957.135	0	-1e10	8	-1e10	8	-1E+10	1	-1E+10	1	-1E+10	1	-1E+10	1	-1E+10	1	-1E+10	1
4902554	58	C	09/12/2022	23:10	-133.618	49.306	0	972.70	0	3.0940	0	34.3550	0	27.368	0	962.168	0	-1e10	8	-1e10	8	-1E+10	1	-1E+10	1	-1E+10	1	-1E+10	1	-1E+10	1	-1E+10	1
4902554	58	C	09/12/2022	23:10	-133.618	49.306	0	977.80	0	3.0780	0	34.3580	0	27.372	0	967.201	0	-1e10	8	-1e10	8	-1E+10	1	-1E+10	1	-1E+10	1	-1E+10	1	-1E+10	1	-1E+10	1
4902554	58	C	09/12/2022	23:10	-133.618	49.306	0	982.90	0	3.0690	0	34.3600	0	27.374	0	972.234	0	-1e10	8	-1e10	8	-1E+10	1	-1E+10	1	-1E+10	1	-1E+10	1	-1E+10	1	-1E+10	1
4902554	58	C	09/12/2022	23:10	-133.618	49.306	0	988.00	0	3.0670	0	34.3610	0	27.375	0	977.267	0	-1e10	8	-1e10	8	-1E+10	1	-1E+10	1	-1E+10	1	-1E+10	1	-1E+10	1	-1E+10	1
4902554	58	C	09/12/2022	23:10	-133.618	49.306	0	993.10	0	3.0550	0	34.3630	0	27.378	0	982.299	0	-1e10	8	-1e10	8	-1E+10	1	-1E+10	1	-1E+10	1	-1E+10	1	-1E+10	1	-1E+10	1
4902554	58	C	09/12/2022	23:10	-133.618	49.306	0	998.20	0	3.0480	0	34.3650	0	27.380	0	987.332	0	-1e10	8	-1e10	8	-1E+10	1	-1E+10	1	-1E+10	1	-1E+10	1	-1E+10	1	-1E+10	1
4902554	58	C	09/12/2022	23:10	-133.618	49.306	0	1005.40	0	3.0230	0	34.3700	0	27.386	0	994.437	0	-1e10	8	-1e10	8	-1E+10	1	-1E+10	1	-1E+10	1	-1E+10	1	-1E+10	1	-1E+10	1
4902554	58	C	09/12/2022	23:10	-133.618	49.306	0	1015.40	0	3.0090	0	34.3730	0	27.390	0	1004.304	0	-1e10	8	-1e10	8	-1E+10	1	-1E+10	1	-1E+10	1	-1E+10	1	-1E+10	1	-1E+10	1
4902554	58	C	09/12/2022	23:10	-133.618	49.306	0	1025.50	0	2.9870	0	34.3780	0	27.396	0	1014.269	0	-1e10	8	-1e10	8	-1E+10	1	-1E+10	1	-1E+10	1	-1E+10	1	-1E+10	1	-1E+10	1
4902554	58	C	09/12/2022	23:10	-133.618	49.306	0	1035.40	0	2.9670	0	34.3820	0	27.401	0	1024.036	0	-1e10	8	-1e10	8	-1E+10	1	-1E+10	1	-1E+10	1	-1E+10	1	-1E+10	1	-1E+10	1
4902554	58	C	09/12/2022	23:10	-133.618	49.306	0	1045.30	0	2.9460	0	34.3870	0	27.407	0	1033.803	0	-1e10	8	-1e10	8	-1E+10	1	-1E+10	1	-1E+10	1	-1E+10	1	-1E+10	1	-1E+10	1
4902554	58	C	09/12/2022	23:10	-133.618	49.306	0	1055.20	0	2.9290	0	34.3900	0	27.411	0	1043.570	0	-1e10	8	-1e10	8	-1E+10	1	-1E+10	1	-1E+10	1	-1E+10	1	-1E+10	1	-1E+10	1
4902554	58	C	09/12/2022	23:10	-133.618	49.306	0	1065.50	0	2.9060	0	34.3940	0	27.416	0	1053.730	0	-1e10	8	-1e10	8	-1E+10	1	-1E+10	1	-1E+10	1	-1E+10	1	-1E+10	1	-1E+10	1
4902554	58	C	09/12/2022	23:10	-133.618	49.306	0	1075.10	0	2.8900	0	34.3970	0	27.420	0	1063.200	0	-1e10	8	-1e10	8	-1E+10	1	-1E+10	1	-1E+10	1	-1E+10	1	-1E+10	1	-1E+10	1
4902554	58	C	09/12/2022	23:10	-133.618	49.306	0	1085.40	0	2.8780	0	34.4000	0	27.424	0	1073.360	0	-1e10	8	-1e10	8	-1E+10	1	-1E+10	1	-1E+10	1	-1E+10	1	-1E+10	1	-1E+10	1
4902554	58	C	09/12/2022	23:10	-133.618	49.306	0	1095.40	0	2.8620	0	34.4030	0	27.428	0	1083.223	0	-1e10	8	-1e10	8	-1E+10	1	-1E+10	1	-1E+10	1	-1E+10	1	-1E+10	1	-1E+10	1
4902554	58	C	09/12/2022	23:10	-133.618	49.306	0	1105.30	0	2.8490	0	34.4050	0	27.430	0	1092.987	0	-1e10	8	-1e10	8	-1E+10	1	-1E+10	1	-1E+10	1	-1E+10	1	-1E+10	1	-1E+10	1
4902554	58	C	09/12/2022	23:10	-133.618	49.306	0	1115.60	0	2.8420	0	34.4070	0	27.433	0	1103.145	0	-1e10	8	-1e10	8	-1E+10	1	-1E+10	1	-1E+10	1	-1E+10	1	-1E+10	1	-1E+10	1
4902554	58	C	09/12/2022	23:10	-133.618	49.306	0	1125.30	0	2.8430	0	34.4120	0	27.437	0	1112.711	0	-1e10	8	-1e10	8	-1E+10	1	-1E+10	1	-1E+10	1	-1E+10	1	-1E+10	1	-1E+10	1
4902554	58	C	09/12/2022	23:10	-133.618	49.306	0	1135.20	0	2.8340	0	34.4150	0	27.440	0	1122.474	0	-1e10	8	-1e10	8	-1E+10	1	-1E+10	1	-1E+10	1	-1E+10	1	-1E+10	1	-1E+10	1
4902554	58	C	09/12/2022	23:10	-133.618	49.306	0	1145.40	0	2.8240	0	34.4170	0	27.442	0	1132.532	0	-1e10	8	-1e10	8	-1E+10	1	-1E+10	1	-1E+10	1	-1E+10	1	-1E+10	1	-1E+10	1
4902554	58	C	09/12/2022	23:10	-133.618	49.306	0	1155.50	0	2.8090	0	34.4200	0	27.446	0	1142.491	0	-1e10	8	-1e10	8	-1E+10	1	-1E+10	1	-1E+10	1	-1E+10	1	-1E+10	1	-1E+10	1
4902554	58	C	09/12/2022	23:10	-133.618	49.306	0	1165.50	0	2.7970	0	34.4200	0	27.447	0	1152.351	0	-1e10	8	-1e10	8	-1E+10	1	-1E+10	1	-1E+10	1	-1E+10	1	-1E+10	1	-1E+10	1
4902554	58	C	09/12/2022	23:10	-133.618	49.306	0	1175.10	0	2.7780	0	34.4210	0	27.450	0	1161.816	0	-1e10	8	-1e10	8	-1E+10	1	-1E+10	1	-1E+10	1	-1E+10	1	-1E+10	1	-1E+10	1
4902554	58	C	09/12/2022	23:10	-133.618	49.306	0	1185.30	0	2.7630	0	34.4250	0	27.454	0	1171.873	0	-1e10	8	-1e10	8	-1E+10	1	-1E+10	1	-1E+10	1	-1E+10	1	-1E+10	1	-1E+10	1
4902554	58	C	09/12/2022	23:10	-133.618	49.306	0	1195.60	0	2.7600	0	34.4270	0	27.456	0	1182.027	0	-1e10	8	-1e10	8	-1E+10	1	-1E+10	1	-1E+10	1	-1E+10	1	-1E+10	1	-1E+10	1
4902554	58	C	09/12/2022	23:10	-133.618	49.306	0	1205.60	0	2.7390	0	34.4300	0	27.461	0	1191.885	0	-1e10	8	-1e10	8	-1E+10	1	-1E+10	1	-1E+10	1	-1E+10	1	-1E+10	1	-1E+10	1
4902554	58	C	09/12/2022	23:10	-133.618	49.306	0	1215.40	0	2.7170	0	34.4340	0	27.466	0	1201.546	0	-1e10	8	-1e10	8	-1E+10	1	-1E+10	1	-1E+10	1	-1E+10	1	-1E+10	1	-1E+10	1
4902554	58	C	09/12/2022	23:10	-133.618	49.306	0	1225.20	0	2.7000	0	34.4370	0	27.470	0	1211.206	0	-1e10	8	-1e10	8	-1E+10	1	-1E+10	1	-1E+10	1	-1E+10	1	-1E+10	1	-1E+10	1
4902554	58	C	09/12/2022	23:10	-133.618	49.306	0	1235.40	0	2.6890	0	34.4400	0	27.473	0	1221.260	0	-1e10	8	-1e10	8	-1E+10	1	-1E+10	1	-1E+10	1	-1E+10	1	-1E+10	1	-1E+10	1
4902554	58	C	09/12/2022	23:10	-133.618	49.306	0	1245.50	0	2.6820	0	34.4420	0	27.475	0	1231.215	0	-1e10	8	-1e10	8	-1E+10	1	-1E+10	1	-1E+10	1	-1E+10	1	-1E+10	1	-1E+10	1
4902554	58	C	09/12/2022	23:10	-133.618	49.306	0	1255.50	0	2.6720	0	34.4440	0	27.478	0	1241.071	0	-1e10	8	-1e10	8	-1E+10	1	-1E+10	1	-1E+10	1	-1E+10	1	-1E+10	1	-1E+10	1
4902554	58	C	09/12/2022	23:10	-133.618	49.306	0	1265.40	0	2.6600	0	34.4460	0	27.481	0	1250.827	0	-1e10	8	-1e10	8	-1E+10	1	-1E+10	1	-1E+10	1	-1E+10	1	-1E+10	1	-1E+10	1
4902554	58	C	09/12/2022	23:10	-133.618	49.306	0	1275.20	0	2.6420	0	34.4490	0	27.485	0	1260.485	0	-1e10	8	-1e10	8	-1E+10	1	-1E+10	1	-1E+10	1	-1E+10	1	-1E+10	1	-1E+10	1
4902554	58	C	09/12/2022	23:10	-133.618	49.306	0	1285.20	0	2.6190	0	34.4520	0	27.489	0	1270.340	0	-1e10	8	-1e10	8	-1E+10	1	-1E+10	1	-1E+10	1	-1E+10	1	-1E+10	1	-1E+10	1
4902554	58	C	09/12/2022	23:10	-133.618	49.306	0	1295.20	0	2.5990	0	34.4550	0	27.493	0	1280.194	0	-1e10	8	-1e10	8	-1E+10	1	-1E+10	1	-1E+10	1	-1E+10	1	-1E+10	1	-1E+10	1
4902554	58	C	09/12/2022	23:10	-133.618	49.306	0	1305.20	0	2.5920	0	34.4570	0	27.495	0	1290.047	0	-1e10	8	-1e10	8	-1E+10	1	-1E+10	1	-1E+10	1	-1E+10	1	-1E+10	1	-1E+10	1
4902554	58	C	09/12/2022	23:10	-133.618	49.306	0	1315.20	0	2.5780	0	34.4600	0	27.499	0	1299.900	0	-1e10	8	-1e10	8	-1E+10	1	-1E+10	1	-1E+10	1	-1E+10	1	-1E+10	1	-1E+10	1
4902554	58	C	09/12/2022	23:10	-133.618	49.306	0	1325.50	0	2.5620	0	34.4620	0	27.502	0	1310.048	0	-1e10	8	-1e10	8	-1E+10	1	-1E+10	1	-1E+10	1	-1E+10	1	-1E+10	1	-1E+10	1
4902554	58	C	09/12/2022	23:10	-133.618	49.306	0	1335.40	0	2.5490	0	34.4640	0	27.505	0	1319.802	0	-1e10	8	-1e10	8	-1E+10	1	-1E+10	1	-1E+10	1	-1E+10	1	-1E+10	1	-1E+10	1
4902554	58	C	09/12/2022	23:10	-133.618	49.306	0	1345.40	0	2.5260	0	34.4680	0	27.510	0	1329.654	0	-1e10	8	-1e10	8	-1E+10	1	-1E+10	1	-1E+10	1	-1E+10	1	-1E+10	1	-1E+10	1
4902554	58	C	09/12/2022	23:10	-133.618	49.306	0	1355.70	0	2.5110	0	34.4710	0	27.514	0	1339.800	0	-1e10	8	-1e10	8	-1E+10	1	-1E+10	1	-1E+10	1	-1E+10	1	-1E+10	1	-1E+10	1
4902554	58	C	09/12/2022	23:10	-133.618	49.306	0	1365.10	0	2.4910	0	34.4750	0	27.519	0	1349.060	0	-1e10	8	-1e10	8	-1E+10	1	-1E+10	1	-1E+10	1	-1E+10	1	-1E+10	1	-1E+10	1
4902554	58	C	09/12/2022	23:10	-133.618	49.306	0	1375.30	0	2.4800	0	34.4770	0	27.521	0	1359.108	0	-1e10	8	-1e10	8	-1E+10	1	-1E+10	1	-1E+10	1	-1E+10	1	-1E+10	1	-1E+10	1
4902554	58	C	09/12/2022	23:10	-133.618	49.306	0	1385.40	0	2.4790	0	34.4780	0	27.522	0	1369.056	0	-1e10	8	-1e10	8	-1E+10	1	-1E+10	1	-1E+10	1	-1E+10	1	-1E+10	1	-1E+10	1
4902554	58	C	09/12/2022	23:10	-133.618	49.306	0	1395.30	0	2.4750	0	34.4800	0	27.524	0	1378.807	0	-1e10	8	-1e10	8	-1E+10	1	-1E+10	1	-1E+10	1	-1E+10	1	-1E+10	1	-1E+10	1
4902554	58	C	09/12/2022	23:10	-133.618	49.306	0	1405.60	0	2.4620	0	34.4810	0	27.526	0	1388.951	0	-1e10	8	-1e10	8	-1E+10	1	-1E+10	1	-1E+10	1	-1E+10	1	-1E+10	1	-1E+10	1
4902554	58	C	09/12/2022	23:10	-133.618	49.306	0	1415.60	0	2.4500	0	34.4830	0	27.529	0	1398.799	0	-1e10	8	-1e10	8	-1E+10	1	-1E+10	1	-1E+10	1	-1E+10	1	-1E+10	1	-1E+10	1
4902554	58	C	09/12/2022	23:10	-133.618	49.306	0	1425.50	0	2.4390	0	34.4860	0	27.532	0	1408.549	0	-1e10	8	-1e10	8	-1E+10	1	-1E+10	1	-1E+10	1	-1E+10	1	-1E+10	1	-1E+10	1
4902554	58	C	09/12/2022	23:10	-133.618	49.306	0	1435.50	0	2.4230	0	34.4890	0	27.536	0	1418.396	0	-1e10	8	-1e10	8	-1E+10	1	-1E+10	1	-1E+10	1	-1E+10	1	-1E+10	1	-1E+10	1
4902554	58	C	09/12/2022	23:10	-133.618	49.306	0	1445.80	0	2.4040	0	34.4930	0	27.541	0	1428.539	0	-1e10	8	-1e10	8	-1E+10	1	-1E+10	1	-1E+10	1	-1E+10	1	-1E+10	1	-1E+10	1
4902554	58	C	09/12/2022	23:10	-133.618	49.306	0	1455.50	0	2.3990	0	34.4940	0	27.542	0	1438.090	0	-1e10	8	-1e10	8	-1E+10	1	-1E+10	1	-1E+10	1	-1E+10	1	-1E+10	1	-1E+10	1
4902554	58	C	09/12/2022	23:10	-133.618	49.306	0	1465.50	0	2.3910	0	34.4960	0	27.544	0	1447.936	0	-1e10	8	-1e10	8	-1E+10	1	-1E+10	1	-1E+10	1	-1E+10	1	-1E+10	1	-1E+10	1
4902554	58	C	09/12/2022	23:10	-133.618	49.306	0	1475.30	0	2.3770	0	34.4980	0	27.547	0	1457.585	0	-1e10	8	-1e10	8	-1E+10	1	-1E+10	1	-1E+10	1	-1E+10	1	-1E+10	1	-1E+10	1
4902554	58	C	09/12/2022	23:10	-133.618	49.306	0	1485.40	0	2.3590	0	34.5000	0	27.550	0	1467.529	0	-1e10	8	-1e10	8	-1E+10	1	-1E+10	1	-1E+10	1	-1E+10	1	-1E+10	1	-1E+10	1
4902554	58	C	09/12/2022	23:10	-133.618	49.306	0	1495.40	0	2.3530	0	34.5010	0	27.552	0	1477.373	0	-1e10	8	-1e10	8	-1E+10	1	-1E+10	1	-1E+10	1	-1E+10	1	-1E+10	1	-1E+10	1
4902554	58	C	09/12/2022	23:10	-133.618	49.306	0	1505.00	0	2.3430	0	34.5030	0	27.554	0	1486.824	0	-1e10	8	-1e10	8	-1E+10	1	-1E+10	1	-1E+10	1	-1E+10	1	-1E+10	1	-1E+10	1
4902554	58	C	09/12/2022	23:10	-133.618	49.306	0	1515.30	0	2.3390	0	34.5040	0	27.555	0	1496.963	0	-1e10	8	-1e10	8	-1E+10	1	-1E+10	1	-1E+10	1	-1E+10	1	-1E+10	1	-1E+10	1
4902554	58	C	09/12/2022	23:10	-133.618	49.306	0	1525.20	0	2.3340	0	34.5060	0	27.557	0	1506.708	0	-1e10	8	-1e10	8	-1E+10	1	-1E+10	1	-1E+10	1	-1E+10	1	-1E+10	1	-1E+10	1
4902554	58	C	09/12/2022	23:10	-133.618	49.306	0	1535.30	0	2.3240	0	34.5080	0	27.560	0	1516.649	0	-1e10	8	-1e10	8	-1E+10	1	-1E+10	1	-1E+10	1	-1E+10	1	-1E+10	1	-1E+10	1
4902554	58	C	09/12/2022	23:10	-133.618	49.306	0	1545.40	0	2.3120	0	34.5110	0	27.563	0	1526.590	0	-1e10	8	-1e10	8	-1E+10	1	-1E+10	1	-1E+10	1	-1E+10	1	-1E+10	1	-1E+10	1
4902554	58	C	09/12/2022	23:10	-133.618	49.306	0	1555.30	0	2.3020	0	34.5130	0	27.566	0	1536.334	0	-1e10	8	-1e10	8	-1E+10	1	-1E+10	1	-1E+10	1	-1E+10	1	-1E+10	1	-1E+10	1
4902554	58	C	09/12/2022	23:10	-133.618	49.306	0	1565.30	0	2.2930	0	34.5140	0	27.567	0	1546.175	0	-1e10	8	-1e10	8	-1E+10	1	-1E+10	1	-1E+10	1	-1E+10	1	-1E+10	1	-1E+10	1
4902554	58	C	09/12/2022	23:10	-133.618	49.306	0	1575.40	0	2.2840	0	34.5160	0	27.570	0	1556.115	0	-1e10	8	-1e10	8	-1E+10	1	-1E+10	1	-1E+10	1	-1E+10	1	-1E+10	1	-1E+10	1
4902554	58	C	09/12/2022	23:10	-133.618	49.306	0	1585.50	0	2.2700	0	34.5190	0	27.573	0	1566.054	0	-1e10	8	-1e10	8	-1E+10	1	-1E+10	1	-1E+10	1	-1E+10	1	-1E+10	1	-1E+10	1
4902554	58	C	09/12/2022	23:10	-133.618	49.306	0	1595.70	0	2.2640	0	34.5200	0	27.575	0	1576.091	0	-1e10	8	-1e10	8	-1E+10	1	-1E+10	1	-1E+10	1	-1E+10	1	-1E+10	1	-1E+10	1
4902554	58	C	09/12/2022	23:10	-133.618	49.306	0	1605.70	0	2.2560	0	34.5220	0	27.577	0	1585.930	0	-1e10	8	-1e10	8	-1E+10	1	-1E+10	1	-1E+10	1	-1E+10	1	-1E+10	1	-1E+10	1
4902554	58	C	09/12/2022	23:10	-133.618	49.306	0	1615.80	0	2.2450	0	34.5240	0	27.579	0	1595.868	0	-1e10	8	-1e10	8	-1E+10	1	-1E+10	1	-1E+10	1	-1E+10	1	-1E+10	1	-1E+10	1
4902554	58	C	09/12/2022	23:10	-133.618	49.306	0	1625.40	0	2.2360	0	34.5260	0	27.582	0	1605.313	0	-1e10	8	-1e10	8	-1E+10	1	-1E+10	1	-1E+10	1	-1E+10	1	-1E+10	1	-1E+10	1
4902554	58	C	09/12/2022	23:10	-133.618	49.306	0	1635.00	0	2.2250	0	34.5280	0	27.584	0	1614.758	0	-1e10	8	-1e10	8	-1E+10	1	-1E+10	1	-1E+10	1	-1E+10	1	-1E+10	1	-1E+10	1
4902554	58	C	09/12/2022	23:10	-133.618	49.306	0	1645.40	0	2.2190	0	34.5290	0	27.586	0	1624.989	0	-1e10	8	-1e10	8	-1E+10	1	-1E+10	1	-1E+10	1	-1E+10	1	-1E+10	1	-1E+10	1
4902554	58	C	09/12/2022	23:10	-133.618	49.306	0	1655.30	0	2.2040	0	34.5320	0	27.589	0	1634.728	0	-1e10	8	-1e10	8	-1E+10	1	-1E+10	1	-1E+10	1	-1E+10	1	-1E+10	1	-1E+10	1
4902554	58	C	09/12/2022	23:10	-133.618	49.306	0	1665.00	0	2.1960	0	34.5330	0	27.591	0	1644.270	0	-1e10	8	-1e10	8	-1E+10	1	-1E+10	1	-1E+10	1	-1E+10	1	-1E+10	1	-1E+10	1
4902554	58	C	09/12/2022	23:10	-133.618	49.306	0	1675.20	0	2.1870	0	34.5350	0	27.593	0	1654.303	0	-1e10	8	-1e10	8	-1E+10	1	-1E+10	1	-1E+10	1	-1E+10	1	-1E+10	1	-1E+10	1
4902554	58	C	09/12/2022	23:10	-133.618	49.306	0	1685.50	0	2.1730	0	34.5380	0	27.597	0	1664.435	0	-1e10	8	-1e10	8	-1E+10	1	-1E+10	1	-1E+10	1	-1E+10	1	-1E+10	1	-1E+10	1
4902554	58	C	09/12/2022	23:10	-133.618	49.306	0	1695.20	0	2.1560	0	34.5410	0	27.601	0	1673.975	0	-1e10	8	-1e10	8	-1E+10	1	-1E+10	1	-1E+10	1	-1E+10	1	-1E+10	1	-1E+10	1
4902554	58	C	09/12/2022	23:10	-133.618	49.306	0	1705.10	0	2.1500	0	34.5420	0	27.602	0	1683.712	0	-1e10	8	-1e10	8	-1E+10	1	-1E+10	1	-1E+10	1	-1E+10	1	-1E+10	1	-1E+10	1
4902554	58	C	09/12/2022	23:10	-133.618	49.306	0	1715.20	0	2.1400	0	34.5440	0	27.604	0	1693.645	0	-1e10	8	-1e10	8	-1E+10	1	-1E+10	1	-1E+10	1	-1E+10	1	-1E+10	1	-1E+10	1
4902554	58	C	09/12/2022	23:10	-133.618	49.306	0	1725.00	0	2.1280	0	34.5470	0	27.608	0	1703.282	0	-1e10	8	-1e10	8	-1E+10	1	-1E+10	1	-1E+10	1	-1E+10	1	-1E+10	1	-1E+10	1
4902554	58	C	09/12/2022	23:10	-133.618	49.306	0	1735.10	0	2.1180	0	34.5490	0	27.610	0	1713.214	0	-1e10	8	-1e10	8	-1E+10	1	-1E+10	1	-1E+10	1	-1E+10	1	-1E+10	1	-1E+10	1
4902554	58	C	09/12/2022	23:10	-133.618	49.306	0	1745.40	0	2.1090	0	34.5510	0	27.613	0	1723.343	0	-1e10	8	-1e10	8	-1E+10	1	-1E+10	1	-1E+10	1	-1E+10	1	-1E+10	1	-1E+10	1
4902554	58	C	09/12/2022	23:10	-133.618	49.306	0	1755.70	0	2.1080	0	34.5510	0	27.613	0	1733.471	0	-1e10	8	-1e10	8	-1E+10	1	-1E+10	1	-1E+10	1	-1E+10	1	-1E+10	1	-1E+10	1
4902554	58	C	09/12/2022	23:10	-133.618	49.306	0	1765.30	0	2.1010	0	34.5530	0	27.615	0	1742.910	0	-1e10	8	-1e10	8	-1E+10	1	-1E+10	1	-1E+10	1	-1E+10	1	-1E+10	1	-1E+10	1
4902554	58	C	09/12/2022	23:10	-133.618	49.306	0	1775.20	0	2.0890	0	34.5550	0	27.618	0	1752.643	0	-1e10	8	-1e10	8	-1E+10	1	-1E+10	1	-1E+10	1	-1E+10	1	-1E+10	1	-1E+10	1
4902554	58	C	09/12/2022	23:10	-133.618	49.306	0	1785.30	0	2.0780	0	34.5570	0	27.620	0	1762.573	0	-1e10	8	-1e10	8	-1E+10	1	-1E+10	1	-1E+10	1	-1E+10	1	-1E+10	1	-1E+10	1
4902554	58	C	09/12/2022	23:10	-133.618	49.306	0	1795.30	0	2.0730	0	34.5580	0	27.621	0	1772.404	0	-1e10	8	-1e10	8	-1E+10	1	-1E+10	1	-1E+10	1	-1E+10	1	-1E+10	1	-1E+10	1
4902554	58	C	09/12/2022	23:10	-133.618	49.306	0	1805.50	0	2.0640	0	34.5600	0	27.624	0	1782.431	0	-1e10	8	-1e10	8	-1E+10	1	-1E+10	1	-1E+10	1	-1E+10	1	-1E+10	1	-1E+10	1
4902554	58	C	09/12/2022	23:10	-133.618	49.306	0	1815.30	0	2.0600	0	34.5620	0	27.626	0	1792.065	0	-1e10	8	-1e10	8	-1E+10	1	-1E+10	1	-1E+10	1	-1E+10	1	-1E+10	1	-1E+10	1
4902554	58	C	09/12/2022	23:10	-133.618	49.306	0	1825.50	0	2.0520	0	34.5630	0	27.627	0	1802.091	0	-1e10	8	-1e10	8	-1E+10	1	-1E+10	1	-1E+10	1	-1E+10	1	-1E+10	1	-1E+10	1
4902554	58	C	09/12/2022	23:10	-133.618	49.306	0	1835.70	0	2.0460	0	34.5640	0	27.628	0	1812.117	0	-1e10	8	-1e10	8	-1E+10	1	-1E+10	1	-1E+10	1	-1E+10	1	-1E+10	1	-1E+10	1
4902554	58	C	09/12/2022	23:10	-133.618	49.306	0	1845.40	0	2.0420	0	34.5650	0	27.630	0	1821.650	0	-1e10	8	-1e10	8	-1E+10	1	-1E+10	1	-1E+10	1	-1E+10	1	-1E+10	1	-1E+10	1
4902554	58	C	09/12/2022	23:10	-133.618	49.306	0	1855.30	0	2.0350	0	34.5660	0	27.631	0	1831.380	0	-1e10	8	-1e10	8	-1E+10	1	-1E+10	1	-1E+10	1	-1E+10	1	-1E+10	1	-1E+10	1
4902554	58	C	09/12/2022	23:10	-133.618	49.306	0	1865.40	0	2.0340	0	34.5670	0	27.632	0	1841.307	0	-1e10	8	-1e10	8	-1E+10	1	-1E+10	1	-1E+10	1	-1E+10	1	-1E+10	1	-1E+10	1
4902554	58	C	09/12/2022	23:10	-133.618	49.306	0	1875.20	0	2.0260	0	34.5680	0	27.633	0	1850.937	0	-1e10	8	-1e10	8	-1E+10	1	-1E+10	1	-1E+10	1	-1E+10	1	-1E+10	1	-1E+10	1
4902554	58	C	09/12/2022	23:10	-133.618	49.306	0	1885.40	0	2.0210	0	34.5690	0	27.635	0	1860.961	0	-1e10	8	-1e10	8	-1E+10	1	-1E+10	1	-1E+10	1	-1E+10	1	-1E+10	1	-1E+10	1
4902554	58	C	09/12/2022	23:10	-133.618	49.306	0	1895.80	0	2.0130	0	34.5710	0	27.637	0	1871.180	0	-1e10	8	-1e10	8	-1E+10	1	-1E+10	1	-1E+10	1	-1E+10	1	-1E+10	1	-1E+10	1
4902554	58	C	09/12/2022	23:10	-133.618	49.306	0	1905.60	0	2.0110	0	34.5720	0	27.638	0	1880.810	0	-1e10	8	-1e10	8	-1E+10	1	-1E+10	1	-1E+10	1	-1E+10	1	-1E+10	1	-1E+10	1
4902554	58	C	09/12/2022	23:10	-133.618	49.306	0	1915.40	0	2.0060	0	34.5730	0	27.639	0	1890.439	0	-1e10	8	-1e10	8	-1E+10	1	-1E+10	1	-1E+10	1	-1E+10	1	-1E+10	1	-1E+10	1
4902554	58	C	09/12/2022	23:10	-133.618	49.306	0	1925.10	0	1.9970	0	34.5750	0	27.642	0	1899.969	0	-1e10	8	-1e10	8	-1E+10	1	-1E+10	1	-1E+10	1	-1E+10	1	-1E+10	1	-1E+10	1
4902554	58	C	09/12/2022	23:10	-133.618	49.306	0	1935.40	0	1.9910	0	34.5770	0	27.644	0	1910.088	0	-1e10	8	-1e10	8	-1E+10	1	-1E+10	1	-1E+10	1	-1E+10	1	-1E+10	1	-1E+10	1
4902554	58	C	09/12/2022	23:10	-133.618	49.306	0	1945.80	0	1.9850	0	34.5780	0	27.645	0	1920.306	0	-1e10	8	-1e10	8	-1E+10	1	-1E+10	1	-1E+10	1	-1E+10	1	-1E+10	1	-1E+10	1
4902554	58	C	09/12/2022	23:10	-133.618	49.306	0	1955.70	0	1.9820	0	34.5790	0	27.646	0	1930.031	0	-1e10	8	-1e10	8	-1E+10	1	-1E+10	1	-1E+10	1	-1E+10	1	-1E+10	1	-1E+10	1
4902554	58	C	09/12/2022	23:10	-133.618	49.306	0	1965.60	0	1.9770	0	34.5790	0	27.647	0	1939.756	0	-1e10	8	-1e10	8	-1E+10	1	-1E+10	1	-1E+10	1	-1E+10	1	-1E+10	1	-1E+10	1
4902554	58	C	09/12/2022	23:10	-133.618	49.306	0	1975.50	0	1.9720	0	34.5810	0	27.649	0	1949.480	0	-1e10	8	-1e10	8	-1E+10	1	-1E+10	1	-1E+10	1	-1E+10	1	-1E+10	1	-1E+10	1
4902554	58	C	09/12/2022	23:10	-133.618	49.306	0	1985.60	0	1.9650	0	34.5820	0	27.650	0	1959.401	0	-1e10	8	-1e10	8	-1E+10	1	-1E+10	1	-1E+10	1	-1E+10	1	-1E+10	1	-1E+10	1
4902554	58	C	09/12/2022	23:10	-133.618	49.306	0	1995.70	0	1.9590	0	34.5830	0	27.651	0	1969.321	0	-1e10	8	-1e10	8	-1E+10	1	-1E+10	1	-1E+10	1	-1E+10	1	-1E+10	1	-1E+10	1
4902554	58	C	09/12/2022	23:10	-133.618	49.306	0	2005.70	0	1.9530	0	34.5840	0	27.653	0	1979.143	0	-1e10	8	-1e10	8	-1E+10	1	-1E+10	1	-1E+10	1	-1E+10	1	-1E+10	1	-1E+10	1
4902554	58	C	09/12/2022	23:10	-133.618	49.306	0	2015.80	0	1.9520	0	34.5850	0	27.654	0	1989.062	0	-1e10	8	-1e10	8	-1E+10	1	-1E+10	1	-1E+10	1	-1E+10	1	-1E+10	1	-1E+10	1
4902554	58	C	09/12/2022	23:10	-133.618	49.306	0	2024.50	0	1.9480	0	34.5860	0	27.655	0	1997.606	0	-1e10	8	-1e10	8	-1E+10	1	-1E+10	1	-1E+10	1	-1E+10	1	-1E+10	1	-1E+10	1
4902554	58	C	09/12/2022	23:10	-133.618	49.306	0																										
4902554	59	C	09/23/2022	04:04	-133.639	49.114	0	0.10	0	16.1480	0	32.1760	0	23.544	0	0.099	0	-1e10	8	-1e10	8	-1E+10	1	-1E+10	1	-1E+10	1	-1E+10	1	-1E+10	1	-1E+10	1
4902554	59	C	09/23/2022	04:04	-133.639	49.114	0	0.20	0	16.1520	0	32.1790	0	23.545	0	0.198	0	-1e10	1	-1e10	1	-1E+10	1	-1E+10	1	-1E+10	1	-1E+10	1	-1E+10	1	-1E+10	1
4902554	59	C	09/23/2022	04:04	-133.639	49.114	0	0.30	0	16.1620	0	32.1810	0	23.545	0	0.297	0	-1e10	8	-1e10	8	-1E+10	1	-1E+10	1	-1E+10	1	-1E+10	1	-1E+10	1	-1E+10	1
4902554	59	C	09/23/2022	04:04	-133.639	49.114	0	1.00	0	16.1660	0	32.1760	0	23.540	0	0.992	0	-1e10	8	-1e10	8	-1E+10	1	-1E+10	1	-1E+10	1	-1E+10	1	-1E+10	1	-1E+10	1
4902554	59	C	09/23/2022	04:04	-133.639	49.114	0	2.10	0	16.1660	0	32.1770	0	23.541	0	2.082	0	-1e10	8	-1e10	8	-1E+10	1	-1E+10	1	-1E+10	1	-1E+10	1	-1E+10	1	-1E+10	1
4902554	59	C	09/23/2022	04:04	-133.639	49.114	0	3.10	0	16.1660	0	32.1780	0	23.542	0	3.074	0	-1e10	8	-1e10	8	-1E+10	1	-1E+10	1	-1E+10	1	-1E+10	1	-1E+10	1	-1E+10	1
4902554	59	C	09/23/2022	04:04	-133.639	49.114	0	4.00	0	16.1670	0	32.1790	0	23.542	0	3.966	0	-1e10	8	-1e10	8	-1E+10	1	-1E+10	1	-1E+10	1	-1E+10	1	-1E+10	1	-1E+10	1
4902554	59	C	09/23/2022	04:04	-133.639	49.114	0	5.00	0	16.1670	0	32.1800	0	23.543	0	4.957	0	-1e10	8	-1e10	8	-1E+10	1	-1E+10	1	-1E+10	1	-1E+10	1	-1E+10	1	-1E+10	1
4902554	59	C	09/23/2022	04:04	-133.639	49.114	0	6.00	0	16.1660	0	32.1810	0	23.544	0	5.949	0	-1e10	8	-1e10	8	-1E+10	1	-1E+10	1	-1E+10	1	-1E+10	1	-1E+10	1	-1E+10	1
4902554	59	C	09/23/2022	04:04	-133.639	49.114	0	7.10	0	16.1670	0	32.1780	0	23.542	0	7.040	0	-1e10	8	-1e10	8	-1E+10	1	-1E+10	1	-1E+10	1	-1E+10	1	-1E+10	1	-1E+10	1
4902554	59	C	09/23/2022	04:04	-133.639	49.114	0	7.80	0	16.1670	0	32.1800	0	23.543	0	7.734	0	-1e10	8	-1e10	8	-1E+10	1	-1E+10	1	-1E+10	1	-1E+10	1	-1E+10	1	-1E+10	1
4902554	59	C	09/23/2022	04:04	-133.639	49.114	0	8.90	0	16.1670	0	32.1800	0	23.543	0	8.824	0	-1e10	8	-1e10	8	-1E+10	1	-1E+10	1	-1E+10	1	-1E+10	1	-1E+10	1	-1E+10	1
4902554	59	C	09/23/2022	04:04	-133.639	49.114	0	10.10	0	16.1660	0	32.1800	0	23.543	0	10.014	0	-1e10	8	-1e10	8	-1E+10	1	-1E+10	1	-1E+10	1	-1E+10	1	-1E+10	1	-1E+10	1
4902554	59	C	09/23/2022	04:04	-133.639	49.114	0	10.80	0	16.1680	0	32.1790	0	23.542	0	10.708	0	-1e10	8	-1e10	8	-1E+10	1	-1E+10	1	-1E+10	1	-1E+10	1	-1E+10	1	-1E+10	1
4902554	59	C	09/23/2022	04:04	-133.639	49.114	0	11.80	0	16.1670	0	32.1800	0	23.543	0	11.699	0	-1e10	8	-1e10	8	-1E+10	1	-1E+10	1	-1E+10	1	-1E+10	1	-1E+10	1	-1E+10	1
4902554	59	C	09/23/2022	04:04	-133.639	49.114	0	13.00	0	16.1680	0	32.1800	0	23.543	0	12.889	0	-1e10	8	-1e10	8	-1E+10	1	-1E+10	1	-1E+10	1	-1E+10	1	-1E+10	1	-1E+10	1
4902554	59	C	09/23/2022	04:04	-133.639	49.114	0	13.70	0	16.1680	0	32.1800	0	23.543	0	13.583	0	-1e10	8	-1e10	8	-1E+10	1	-1E+10	1	-1E+10	1	-1E+10	1	-1E+10	1	-1E+10	1
4902554	59	C	09/23/2022	04:04	-133.639	49.114	0	14.80	0	16.1670	0	32.1790	0	23.543	0	14.674	0	-1e10	8	-1e10	8	-1E+10	1	-1E+10	1	-1E+10	1	-1E+10	1	-1E+10	1	-1E+10	1
4902554	59	C	09/23/2022	04:04	-133.639	49.114	0	16.00	0	16.1600	0	32.1920	0	23.554	0	15.864	0	-1e10	8	-1e10	8	-1E+10	1	-1E+10	1	-1E+10	1	-1E+10	1	-1E+10	1	-1E+10	1
4902554	59	C	09/23/2022	04:04	-133.639	49.114	0	17.00	0	16.1580	0	32.1920	0	23.555	0	16.855	0	-1e10	8	-1e10	8	-1E+10	1	-1E+10	1	-1E+10	1	-1E+10	1	-1E+10	1	-1E+10	1
4902554	59	C	09/23/2022	04:04	-133.639	49.114	0	18.10	0	16.1530	0	32.1940	0	23.557	0	17.945	0	-1e10	8	-1e10	8	-1E+10	1	-1E+10	1	-1E+10	1	-1E+10	1	-1E+10	1	-1E+10	1
4902554	59	C	09/23/2022	04:04	-133.639	49.114	0	18.80	0	16.1480	0	32.1960	0	23.560	0	18.639	0	-1e10	8	-1e10	8	-1E+10	1	-1E+10	1	-1E+10	1	-1E+10	1	-1E+10	1	-1E+10	1
4902554	59	C	09/23/2022	04:04	-133.639	49.114	0	19.80	0	16.1440	0	32.1970	0	23.562	0	19.631	0	-1e10	8	-1e10	8	-1E+10	1	-1E+10	1	-1E+10	1	-1E+10	1	-1E+10	1	-1E+10	1
4902554	59	C	09/23/2022	04:04	-133.639	49.114	0	20.90	0	16.1350	0	32.1970	0	23.564	0	20.721	0	-1e10	8	-1e10	8	-1E+10	1	-1E+10	1	-1E+10	1	-1E+10	1	-1E+10	1	-1E+10	1
4902554	59	C	09/23/2022	04:04	-133.639	49.114	0	21.80	0	16.1250	0	32.2030	0	23.571	0	21.614	0	-1e10	8	-1e10	8	-1E+10	1	-1E+10	1	-1E+10	1	-1E+10	1	-1E+10	1	-1E+10	1
4902554	59	C	09/23/2022	04:04	-133.639	49.114	0	23.10	0	16.1170	0	32.2080	0	23.576	0	22.903	0	-1e10	8	-1e10	8	-1E+10	1	-1E+10	1	-1E+10	1	-1E+10	1	-1E+10	1	-1E+10	1
4902554	59	C	09/23/2022	04:04	-133.639	49.114	0	23.90	0	16.1160	0	32.2110	0	23.579	0	23.696	0	-1e10	8	-1e10	8	-1E+10	1	-1E+10	1	-1E+10	1	-1E+10	1	-1E+10	1	-1E+10	1
4902554	59	C	09/23/2022	04:04	-133.639	49.114	0	24.90	0	16.0410	0	32.2120	0	23.597	0	24.687	0	-1e10	8	-1e10	8	-1E+10	1	-1E+10	1	-1E+10	1	-1E+10	1	-1E+10	1	-1E+10	1
4902554	59	C	09/23/2022	04:04	-133.639	49.114	0	26.10	0	15.8570	0	32.2140	0	23.639	0	25.877	0	-1e10	8	-1e10	8	-1E+10	1	-1E+10	1	-1E+10	1	-1E+10	1	-1E+10	1	-1E+10	1
4902554	59	C	09/23/2022	04:04	-133.639	49.114	0	27.10	0	15.6470	0	32.2120	0	23.684	0	26.868	0	-1e10	8	-1e10	8	-1E+10	1	-1E+10	1	-1E+10	1	-1E+10	1	-1E+10	1	-1E+10	1
4902554	59	C	09/23/2022	04:04	-133.639	49.114	0	28.10	0	15.0770	0	32.2100	0	23.807	0	27.859	0	-1e10	8	-1e10	8	-1E+10	1	-1E+10	1	-1E+10	1	-1E+10	1	-1E+10	1	-1E+10	1
4902554	59	C	09/23/2022	04:04	-133.639	49.114	0	29.00	0	13.9340	0	32.2070	0	24.045	0	28.752	0	-1e10	8	-1e10	8	-1E+10	1	-1E+10	1	-1E+10	1	-1E+10	1	-1E+10	1	-1E+10	1
4902554	59	C	09/23/2022	04:04	-133.639	49.114	0	30.10	0	13.2830	0	32.2110	0	24.179	0	29.842	0	-1e10	8	-1e10	8	-1E+10	1	-1E+10	1	-1E+10	1	-1E+10	1	-1E+10	1	-1E+10	1
4902554	59	C	09/23/2022	04:04	-133.639	49.114	0	30.90	0	12.4350	0	32.2330	0	24.360	0	30.635	0	-1e10	8	-1e10	8	-1E+10	1	-1E+10	1	-1E+10	1	-1E+10	1	-1E+10	1	-1E+10	1
4902554	59	C	09/23/2022	04:04	-133.639	49.114	0	32.20	0	11.9210	0	32.2290	0	24.454	0	31.924	0	-1e10	8	-1e10	8	-1E+10	1	-1E+10	1	-1E+10	1	-1E+10	1	-1E+10	1	-1E+10	1
4902554	59	C	09/23/2022	04:04	-133.639	49.114	0	33.00	0	11.7030	0	32.2230	0	24.489	0	32.717	0	-1e10	8	-1e10	8	-1E+10	1	-1E+10	1	-1E+10	1	-1E+10	1	-1E+10	1	-1E+10	1
4902554	59	C	09/23/2022	04:04	-133.639	49.114	0	34.00	0	11.5030	0	32.2150	0	24.519	0	33.708	0	-1e10	8	-1e10	8	-1E+10	1	-1E+10	1	-1E+10	1	-1E+10	1	-1E+10	1	-1E+10	1
4902554	59	C	09/23/2022	04:04	-133.639	49.114	0	35.10	0	11.2720	0	32.2240	0	24.568	0	34.799	0	-1e10	8	-1e10	8	-1E+10	1	-1E+10	1	-1E+10	1	-1E+10	1	-1E+10	1	-1E+10	1
4902554	59	C	09/23/2022	04:04	-133.639	49.114	0	36.00	0	10.7710	0	32.2400	0	24.668	0	35.691	0	-1e10	8	-1e10	8	-1E+10	1	-1E+10	1	-1E+10	1	-1E+10	1	-1E+10	1	-1E+10	1
4902554	59	C	09/23/2022	04:04	-133.639	49.114	0	36.90	0	10.7310	0	32.2410	0	24.676	0	36.583	0	-1e10	8	-1e10	8	-1E+10	1	-1E+10	1	-1E+10	1	-1E+10	1	-1E+10	1	-1E+10	1
4902554	59	C	09/23/2022	04:04	-133.639	49.114	0	38.00	0	10.7090	0	32.2420	0	24.680	0	37.674	0	-1e10	8	-1e10	8	-1E+10	1	-1E+10	1	-1E+10	1	-1E+10	1	-1E+10	1	-1E+10	1
4902554	59	C	09/23/2022	04:04	-133.639	49.114	0	39.10	0	10.6500	0	32.2390	0	24.688	0	38.764	0	-1e10	8	-1e10	8	-1E+10	1	-1E+10	1	-1E+10	1	-1E+10	1	-1E+10	1	-1E+10	1
4902554	59	C	09/23/2022	04:04	-133.639	49.114	0	40.10	0	10.5390	0	32.2430	0	24.710	0	39.756	0	-1e10	8	-1e10	8	-1E+10	1	-1E+10	1	-1E+10	1	-1E+10	1	-1E+10	1	-1E+10	1
4902554	59	C	09/23/2022	04:04	-133.639	49.114	0	41.00	0	10.2890	0	32.2480	0	24.757	0	40.648	0	-1e10	8	-1e10	8	-1E+10	1	-1E+10	1	-1E+10	1	-1E+10	1	-1E+10	1	-1E+10	1
4902554	59	C	09/23/2022	04:04	-133.639	49.114	0	42.00	0	10.1490	0	32.2520	0	24.783	0	41.639	0	-1e10	8	-1e10	8	-1E+10	1	-1E+10	1	-1E+10	1	-1E+10	1	-1E+10	1	-1E+10	1
4902554	59	C	09/23/2022	04:04	-133.639	49.114	0	42.90	0	10.0180	0	32.2560	0	24.808	0	42.531	0	-1e10	8	-1e10	8	-1E+10	1	-1E+10	1	-1E+10	1	-1E+10	1	-1E+10	1	-1E+10	1
4902554	59	C	09/23/2022	04:04	-133.639	49.114	0	44.10	0	9.7140	0	32.2640	0	24.864	0	43.721	0	-1e10	8	-1e10	8	-1E+10	1	-1E+10	1	-1E+10	1	-1E+10	1	-1E+10	1	-1E+10	1
4902554	59	C	09/23/2022	04:04	-133.639	49.114	0	44.80	0	9.4240	0	32.2830	0	24.926	0	44.415	0	-1e10	8	-1e10	8	-1E+10	1	-1E+10	1	-1E+10	1	-1E+10	1	-1E+10	1	-1E+10	1
4902554	59	C	09/23/2022	04:04	-133.639	49.114	0	45.90	0	9.1520	0	32.2850	0	24.970	0	45.505	0	-1e10	8	-1e10	8	-1E+10	1	-1E+10	1	-1E+10	1	-1E+10	1	-1E+10	1	-1E+10	1
4902554	59	C	09/23/2022	04:04	-133.639	49.114	0	47.00	0	9.0470	0	32.2900	0	24.990	0	46.596	0	-1e10	8	-1e10	8	-1E+10	1	-1E+10	1	-1E+10	1	-1E+10	1	-1E+10	1	-1E+10	1
4902554	59	C	09/23/2022	04:04	-133.639	49.114	0	48.10	0	8.9930	0	32.2910	0	25.000	0	47.686	0	-1e10	8	-1e10	8	-1E+10	1	-1E+10	1	-1E+10	1	-1E+10	1	-1E+10	1	-1E+10	1
4902554	59	C	09/23/2022	04:04	-133.639	49.114	0	49.00	0	8.9660	0	32.2960	0	25.008	0	48.578	0	-1e10	8	-1e10	8	-1E+10	1	-1E+10	1	-1E+10	1	-1E+10	1	-1E+10	1	-1E+10	1
4902554	59	C	09/23/2022	04:04	-133.639	49.114	0	49.80	0	8.8670	0	32.3030	0	25.028	0	49.371	0	-1e10	8	-1e10	8	-1E+10	1	-1E+10	1	-1E+10	1	-1E+10	1	-1E+10	1	-1E+10	1
4902554	59	C	09/23/2022	04:04	-133.639	49.114	0	50.90	0	8.8350	0	32.3050	0	25.035	0	50.461	0	-1e10	8	-1e10	8	-1E+10	1	-1E+10	1	-1E+10	1	-1E+10	1	-1E+10	1	-1E+10	1
4902554	59	C	09/23/2022	04:04	-133.639	49.114	0	52.10	0	8.8310	0	32.3030	0	25.034	0	51.651	0	-1e10	8	-1e10	8	-1E+10	1	-1E+10	1	-1E+10	1	-1E+10	1	-1E+10	1	-1E+10	1
4902554	59	C	09/23/2022	04:04	-133.639	49.114	0	52.90	0	8.8300	0	32.2990	0	25.031	0	52.444	0	-1e10	8	-1e10	8	-1E+10	1	-1E+10	1	-1E+10	1	-1E+10	1	-1E+10	1	-1E+10	1
4902554	59	C	09/23/2022	04:04	-133.639	49.114	0	53.80	0	8.8210	0	32.3000	0	25.033	0	53.336	0	-1e10	8	-1e10	8	-1E+10	1	-1E+10	1	-1E+10	1	-1E+10	1	-1E+10	1	-1E+10	1
4902554	59	C	09/23/2022	04:04	-133.639	49.114	0	55.00	0	8.5790	0	32.3210	0	25.086	0	54.526	0	-1e10	8	-1e10	8	-1E+10	1	-1E+10	1	-1E+10	1	-1E+10	1	-1E+10	1	-1E+10	1
4902554	59	C	09/23/2022	04:04	-133.639	49.114	0	55.90	0	8.4910	0	32.3150	0	25.095	0	55.418	0	-1e10	8	-1e10	8	-1E+10	1	-1E+10	1	-1E+10	1	-1E+10	1	-1E+10	1	-1E+10	1
4902554	59	C	09/23/2022	04:04	-133.639	49.114	0	56.80	0	8.4790	0	32.3020	0	25.086	0	56.310	0	-1e10	8	-1e10	8	-1E+10	1	-1E+10	1	-1E+10	1	-1E+10	1	-1E+10	1	-1E+10	1
4902554	59	C	09/23/2022	04:04	-133.639	49.114	0	58.00	0	8.2680	0	32.3140	0	25.127	0	57.499	0	-1e10	8	-1e10	8	-1E+10	1	-1E+10	1	-1E+10	1	-1E+10	1	-1E+10	1	-1E+10	1
4902554	59	C	09/23/2022	04:04	-133.639	49.114	0	59.10	0	8.1420	0	32.3280	0	25.156	0	58.590	0	-1e10	8	-1e10	8	-1E+10	1	-1E+10	1	-1E+10	1	-1E+10	1	-1E+10	1	-1E+10	1
4902554	59	C	09/23/2022	04:04	-133.639	49.114	0	60.00	0	8.0120	0	32.3370	0	25.182	0	59.482	0	-1e10	8	-1e10	8	-1E+10	1	-1E+10	1	-1E+10	1	-1E+10	1	-1E+10	1	-1E+10	1
4902554	59	C	09/23/2022	04:04	-133.639	49.114	0	61.00	0	7.9350	0	32.3410	0	25.197	0	60.473	0	-1e10	8	-1e10	8	-1E+10	1	-1E+10	1	-1E+10	1	-1E+10	1	-1E+10	1	-1E+10	1
4902554	59	C	09/23/2022	04:04	-133.639	49.114	0	61.90	0	7.8730	0	32.3460	0	25.209	0	61.365	0	-1e10	8	-1e10	8	-1E+10	1	-1E+10	1	-1E+10	1	-1E+10	1	-1E+10	1	-1E+10	1
4902554	59	C	09/23/2022	04:04	-133.639	49.114	0	63.10	0	7.7930	0	32.3510	0	25.225	0	62.555	0	-1e10	8	-1e10	8	-1E+10	1	-1E+10	1	-1E+10	1	-1E+10	1	-1E+10	1	-1E+10	1
4902554	59	C	09/23/2022	04:04	-133.639	49.114	0	64.00	0	7.7610	0	32.3530	0	25.231	0	63.447	0	-1e10	8	-1e10	8	-1E+10	1	-1E+10	1	-1E+10	1	-1E+10	1	-1E+10	1	-1E+10	1
4902554	59	C	09/23/2022	04:04	-133.639	49.114	0	65.10	0	7.7230	0	32.3550	0	25.238	0	64.537	0	-1e10	8	-1e10	8	-1E+10	1	-1E+10	1	-1E+10	1	-1E+10	1	-1E+10	1	-1E+10	1
4902554	59	C	09/23/2022	04:04	-133.639	49.114	0	65.90	0	7.6870	0	32.3660	0	25.251	0	65.330	0	-1e10	8	-1e10	8	-1E+10	1	-1E+10	1	-1E+10	1	-1E+10	1	-1E+10	1	-1E+10	1
4902554	59	C	09/23/2022	04:04	-133.639	49.114	0	67.10	0	7.6120	0	32.3640	0	25.260	0	66.519	0	-1e10	8	-1e10	8	-1E+10	1	-1E+10	1	-1E+10	1	-1E+10	1	-1E+10	1	-1E+10	1
4902554	59	C	09/23/2022	04:04	-133.639	49.114	0	68.10	0	7.5220	0	32.3630	0	25.272	0	67.511	0	-1e10	8	-1e10	8	-1E+10	1	-1E+10	1	-1E+10	1	-1E+10	1	-1E+10	1	-1E+10	1
4902554	59	C	09/23/2022	04:04	-133.639	49.114	0	69.00	0	7.4740	0	32.3640	0	25.280	0	68.403	0	-1e10	8	-1e10	8	-1E+10	1	-1E+10	1	-1E+10	1	-1E+10	1	-1E+10	1	-1E+10	1
4902554	59	C	09/23/2022	04:04	-133.639	49.114	0	70.10	0	7.3610	0	32.3700	0	25.300	0	69.493	0	-1e10	8	-1e10	8	-1E+10	1	-1E+10	1	-1E+10	1	-1E+10	1	-1E+10	1	-1E+10	1
4902554	59	C	09/23/2022	04:04	-133.639	49.114	0	71.10	0	7.2810	0	32.3810	0	25.319	0	70.484	0	-1e10	8	-1e10	8	-1E+10	1	-1E+10	1	-1E+10	1	-1E+10	1	-1E+10	1	-1E+10	1
4902554	59	C	09/23/2022	04:04	-133.639	49.114	0	72.10	0	7.1890	0	32.3850	0	25.335	0	71.475	0	-1e10	8	-1e10	8	-1E+10	1	-1E+10	1	-1E+10	1	-1E+10	1	-1E+10	1	-1E+10	1
4902554	59	C	09/23/2022	04:04	-133.639	49.114	0	73.10	0	7.1240	0	32.3850	0	25.344	0	72.466	0	-1e10	8	-1e10	8	-1E+10	1	-1E+10	1	-1E+10	1	-1E+10	1	-1E+10	1	-1E+10	1
4902554	59	C	09/23/2022	04:04	-133.639	49.114	0	73.80	0	7.1080	0	32.3860	0	25.347	0	73.160	0	-1e10	8	-1e10	8	-1E+10	1	-1E+10	1	-1E+10	1	-1E+10	1	-1E+10	1	-1E+10	1
4902554	59	C	09/23/2022	04:04	-133.639	49.114	0	74.90	0	7.0850	0	32.3880	0	25.351	0	74.250	0	-1e10	8	-1e10	8	-1E+10	1	-1E+10	1	-1E+10	1	-1E+10	1	-1E+10	1	-1E+10	1
4902554	59	C	09/23/2022	04:04	-133.639	49.114	0	76.00	0	7.0710	0	32.3900	0	25.355	0	75.341	0	-1e10	8	-1e10	8	-1E+10	1	-1E+10	1	-1E+10	1	-1E+10	1	-1E+10	1	-1E+10	1
4902554	59	C	09/23/2022	04:04	-133.639	49.114	0	77.20	0	7.0370	0	32.3920	0	25.361	0	76.530	0	-1e10	8	-1e10	8	-1E+10	1	-1E+10	1	-1E+10	1	-1E+10	1	-1E+10	1	-1E+10	1
4902554	59	C	09/23/2022	04:04	-133.639	49.114	0	78.00	0	7.0230	0	32.3960	0	25.366	0	77.323	0	-1e10	8	-1e10	8	-1E+10	1	-1E+10	1	-1E+10	1	-1E+10	1	-1E+10	1	-1E+10	1
4902554	59	C	09/23/2022	04:04	-133.639	49.114	0	79.10	0	6.9820	0	32.4040	0	25.378	0	78.413	0	-1e10	8	-1e10	8	-1E+10	1	-1E+10	1	-1E+10	1	-1E+10	1	-1E+10	1	-1E+10	1
4902554	59	C	09/23/2022	04:04	-133.639	49.114	0	80.10	0	6.9570	0	32.4100	0	25.386	0	79.404	0	-1e10	8	-1e10	8	-1E+10	1	-1E+10	1	-1E+10	1	-1E+10	1	-1E+10	1	-1E+10	1
4902554	59	C	09/23/2022	04:04	-133.639	49.114	0	81.00	0	6.9510	0	32.4110	0	25.387	0	80.296	0	-1e10	8	-1e10	8	-1E+10	1	-1E+10	1	-1E+10	1	-1E+10	1	-1E+10	1	-1E+10	1
4902554	59	C	09/23/2022	04:04	-133.639	49.114	0	82.10	0	6.9360	0	32.4140	0	25.392	0	81.387	0	-1e10	8	-1e10	8	-1E+10	1	-1E+10	1	-1E+10	1	-1E+10	1	-1E+10	1	-1E+10	1
4902554	59	C	09/23/2022	04:04	-133.639	49.114	0	83.10	0	6.9170	0	32.4190	0	25.398	0	82.378	0	-1e10	8	-1e10	8	-1E+10	1	-1E+10	1	-1E+10	1	-1E+10	1	-1E+10	1	-1E+10	1
4902554	59	C	09/23/2022	04:04	-133.639	49.114	0	84.00	0	6.9070	0	32.4230	0	25.403	0	83.270	0	-1e10	8	-1e10	8	-1E+10	1	-1E+10	1	-1E+10	1	-1E+10	1	-1E+10	1	-1E+10	1
4902554	59	C	09/23/2022	04:04	-133.639	49.114	0	84.80	0	6.9020	0	32.4240	0	25.404	0	84.063	0	-1e10	8	-1e10	8	-1E+10	1	-1E+10	1	-1E+10	1	-1E+10	1	-1E+10	1	-1E+10	1
4902554	59	C	09/23/2022	04:04	-133.639	49.114	0	85.90	0	6.8940	0	32.4260	0	25.407	0	85.153	0	-1e10	8	-1e10	8	-1E+10	1	-1E+10	1	-1E+10	1	-1E+10	1	-1E+10	1	-1E+10	1
4902554	59	C	09/23/2022	04:04	-133.639	49.114	0	87.00	0	6.8690	0	32.4290	0	25.413	0	86.243	0	-1e10	8	-1e10	8	-1E+10	1	-1E+10	1	-1E+10	1	-1E+10	1	-1E+10	1	-1E+10	1
4902554	59	C	09/23/2022	04:04	-133.639	49.114	0	87.90	0	6.8550	0	32.4340	0	25.418	0	87.135	0	-1e10	8	-1e10	8	-1E+10	1	-1E+10	1	-1E+10	1	-1E+10	1	-1E+10	1	-1E+10	1
4902554	59	C	09/23/2022	04:04	-133.639	49.114	0	88.80	0	6.8340	0	32.4440	0	25.429	0	88.027	0	-1e10	8	-1e10	8	-1E+10	1	-1E+10	1	-1E+10	1	-1E+10	1	-1E+10	1	-1E+10	1
4902554	59	C	09/23/2022	04:04	-133.639	49.114	0	90.00	0	6.8120	0	32.4560	0	25.441	0	89.216	0	-1e10	8	-1e10	8	-1E+10	1	-1E+10	1	-1E+10	1	-1E+10	1	-1E+10	1	-1E+10	1
4902554	59	C	09/23/2022	04:04	-133.639	49.114	0	90.90	0	6.7990	0	32.4620	0	25.448	0	90.108	0	-1e10	8	-1e10	8	-1E+10	1	-1E+10	1	-1E+10	1	-1E+10	1	-1E+10	1	-1E+10	1
4902554	59	C	09/23/2022	04:04	-133.639	49.114	0	91.70	0	6.7940	0	32.4630	0	25.449	0	90.901	0	-1e10	8	-1e10	8	-1E+10	1	-1E+10	1	-1E+10	1	-1E+10	1	-1E+10	1	-1E+10	1
4902554	59	C	09/23/2022	04:04	-133.639	49.114	0	92.90	0	6.7880	0	32.4680	0	25.454	0	92.090	0	-1e10	8	-1e10	8	-1E+10	1	-1E+10	1	-1E+10	1	-1E+10	1	-1E+10	1	-1E+10	1
4902554	59	C	09/23/2022	04:04	-133.639	49.114	0	94.00	0	6.7720	0	32.4770	0	25.463	0	93.180	0	-1e10	8	-1e10	8	-1E+10	1	-1E+10	1	-1E+10	1	-1E+10	1	-1E+10	1	-1E+10	1
4902554	59	C	09/23/2022	04:04	-133.639	49.114	0	95.10	0	6.7390	0	32.4880	0	25.476	0	94.271	0	-1e10	8	-1e10	8	-1E+10	1	-1E+10	1	-1E+10	1	-1E+10	1	-1E+10	1	-1E+10	1
4902554	59	C	09/23/2022	04:04	-133.639	49.114	0	95.90	0	6.7400	0	32.4980	0	25.484	0	95.063	0	-1e10	8	-1e10	8	-1E+10	1	-1E+10	1	-1E+10	1	-1E+10	1	-1E+10	1	-1E+10	1
4902554	59	C	09/23/2022	04:04	-133.639	49.114	0	96.70	0	6.6980	0	32.5170	0	25.504	0	95.856	0	-1e10	8	-1e10	8	-1E+10	1	-1E+10	1	-1E+10	1	-1E+10	1	-1E+10	1	-1E+10	1
4902554	59	C	09/23/2022	04:04	-133.639	49.114	0	97.80	0	6.6890	0	32.5340	0	25.519	0	96.946	0	-1e10	8	-1e10	8	-1E+10	1	-1E+10	1	-1E+10	1	-1E+10	1	-1E+10	1	-1E+10	1
4902554	59	C	09/23/2022	04:04	-133.639	49.114	0	98.80	0	6.6730	0	32.5510	0	25.534	0	97.937	0	-1e10	8	-1e10	8	-1E+10	1	-1E+10	1	-1E+10	1	-1E+10	1	-1E+10	1	-1E+10	1
4902554	59	C	09/23/2022	04:04	-133.639	49.114	0	99.80	0	6.6570	0	32.5620	0	25.545	0	98.929	0	-1e10	8	-1e10	8	-1E+10	1	-1E+10	1	-1E+10	1	-1E+10	1	-1E+10	1	-1E+10	1
4902554	59	C	09/23/2022	04:04	-133.639	49.114	0	100.90	0	6.6390	0	32.5740	0	25.557	0	100.019	0	-1e10	8	-1e10	8	-1E+10	1	-1E+10	1	-1E+10	1	-1E+10	1	-1E+10	1	-1E+10	1
4902554	59	C	09/23/2022	04:04	-133.639	49.114	0	102.00	0	6.6230	0	32.5860	0	25.568	0	101.109	0	-1e10	8	-1e10	8	-1E+10	1	-1E+10	1	-1E+10	1	-1E+10	1	-1E+10	1	-1E+10	1
4902554	59	C	09/23/2022	04:04	-133.639	49.114	0	103.00	0	6.6030	0	32.6000	0	25.582	0	102.100	0	-1e10	8	-1e10	8	-1E+10	1	-1E+10	1	-1E+10	1	-1E+10	1	-1E+10	1	-1E+10	1
4902554	59	C	09/23/2022	04:04	-133.639	49.114	0	104.10	0	6.5780	0	32.6250	0	25.605	0	103.190	0	-1e10	8	-1e10	8	-1E+10	1	-1E+10	1	-1E+10	1	-1E+10	1	-1E+10	1	-1E+10	1
4902554	59	C	09/23/2022	04:04	-133.639	49.114	0	105.10	0	6.5580	0	32.6410	0	25.620	0	104.181	0	-1e10	8	-1e10	8	-1E+10	1	-1E+10	1	-1E+10	1	-1E+10	1	-1E+10	1	-1E+10	1
4902554	59	C	09/23/2022	04:04	-133.639	49.114	0	106.20	0	6.5390	0	32.6540	0	25.633	0	105.271	0	-1e10	8	-1e10	8	-1E+10	1	-1E+10	1	-1E+10	1	-1E+10	1	-1E+10	1	-1E+10	1
4902554	59	C	09/23/2022	04:04	-133.639	49.114	0	107.00	0	6.5240	0	32.6700	0	25.647	0	106.064	0	-1e10	8	-1e10	8	-1E+10	1	-1E+10	1	-1E+10	1	-1E+10	1	-1E+10	1	-1E+10	1
4902554	59	C	09/23/2022	04:04	-133.639	49.114	0	108.10	0	6.4990	0	32.6950	0	25.670	0	107.154	0	-1e10	8	-1e10	8	-1E+10	1	-1E+10	1	-1E+10	1	-1E+10	1	-1E+10	1	-1E+10	1
4902554	59	C	09/23/2022	04:04	-133.639	49.114	0	109.00	0	6.4730	0	32.7300	0	25.701	0	108.046	0	-1e10	8	-1e10	8	-1E+10	1	-1E+10	1	-1E+10	1	-1E+10	1	-1E+10	1	-1E+10	1
4902554	59	C	09/23/2022	04:04	-133.639	49.114	0	109.90	0	6.4600	0	32.7540	0	25.722	0	108.938	0	-1e10	8	-1e10	8	-1E+10	1	-1E+10	1	-1E+10	1	-1E+10	1	-1E+10	1	-1E+10	1
4902554	59	C	09/23/2022	04:04	-133.639	49.114	0	111.10	0	6.4500	0	32.7700	0	25.736	0	110.127	0	-1e10	8	-1e10	8	-1E+10	1	-1E+10	1	-1E+10	1	-1E+10	1	-1E+10	1	-1E+10	1
4902554	59	C	09/23/2022	04:04	-133.639	49.114	0	112.10	0	6.4450	0	32.7720	0	25.738	0	111.118	0	-1e10	8	-1e10	8	-1E+10	1	-1E+10	1	-1E+10	1	-1E+10	1	-1E+10	1	-1E+10	1
4902554	59	C	09/23/2022	04:04	-133.639	49.114	0	113.00	0	6.4410	0	32.7790	0	25.744	0	112.010	0	-1e10	8	-1e10	8	-1E+10	1	-1E+10	1	-1E+10	1	-1E+10	1	-1E+10	1	-1E+10	1
4902554	59	C	09/23/2022	04:04	-133.639	49.114	0	114.00	0	6.4360	0	32.7960	0	25.758	0	113.001	0	-1e10	8	-1e10	8	-1E+10	1	-1E+10	1	-1E+10	1	-1E+10	1	-1E+10	1	-1E+10	1
4902554	59	C	09/23/2022	04:04	-133.639	49.114	0	115.00	0	6.4340	0	32.7960	0	25.758	0	113.992	0	-1e10	8	-1e10	8	-1E+10	1	-1E+10	1	-1E+10	1	-1E+10	1	-1E+10	1	-1E+10	1
4902554	59	C	09/23/2022	04:04	-133.639	49.114	0	116.00	0	6.4290	0	32.8010	0	25.763	0	114.983	0	-1e10	8	-1e10	8	-1E+10	1	-1E+10	1	-1E+10	1	-1E+10	1	-1E+10	1	-1E+10	1
4902554	59	C	09/23/2022	04:04	-133.639	49.114	0	117.00	0	6.4280	0	32.8040	0	25.766	0	115.973	0	-1e10	8	-1e10	8	-1E+10	1	-1E+10	1	-1E+10	1	-1E+10	1	-1E+10	1	-1E+10	1
4902554	59	C	09/23/2022	04:04	-133.639	49.114	0	118.10	0	6.4180	0	32.8150	0	25.775	0	117.064	0	-1e10	8	-1e10	8	-1E+10	1	-1E+10	1	-1E+10	1	-1E+10	1	-1E+10	1	-1E+10	1
4902554	59	C	09/23/2022	04:04	-133.639	49.114	0	118.90	0	6.4100	0	32.8250	0	25.784	0	117.856	0	-1e10	8	-1e10	8	-1E+10	1	-1E+10	1	-1E+10	1	-1E+10	1	-1E+10	1	-1E+10	1
4902554	59	C	09/23/2022	04:04	-133.639	49.114	0	119.70	0	6.4030	0	32.8340	0	25.792	0	118.649	0	-1e10	8	-1e10	8	-1E+10	1	-1E+10	1	-1E+10	1	-1E+10	1	-1E+10	1	-1E+10	1
4902554	59	C	09/23/2022	04:04	-133.639	49.114	0	120.80	0	6.3890	0	32.8490	0	25.806	0	119.739	0	-1e10	8	-1e10	8	-1E+10	1	-1E+10	1	-1E+10	1	-1E+10	1	-1E+10	1	-1E+10	1
4902554	59	C	09/23/2022	04:04	-133.639	49.114	0	122.00	0	6.3780	0	32.8580	0	25.815	0	120.928	0	-1e10	8	-1e10	8	-1E+10	1	-1E+10	1	-1E+10	1	-1E+10	1	-1E+10	1	-1E+10	1
4902554	59	C	09/23/2022	04:04	-133.639	49.114	0	123.00	0	6.3760	0	32.8610	0	25.817	0	121.919	0	-1e10	8	-1e10	8	-1E+10	1	-1E+10	1	-1E+10	1	-1E+10	1	-1E+10	1	-1E+10	1
4902554	59	C	09/23/2022	04:04	-133.639	49.114	0	124.10	0	6.3730	0	32.8660	0	25.821	0	123.009	0	-1e10	8	-1e10	8	-1E+10	1	-1E+10	1	-1E+10	1	-1E+10	1	-1E+10	1	-1E+10	1
4902554	59	C	09/23/2022	04:04	-133.639	49.114	0	125.00	0	6.3650	0	32.8860	0	25.838	0	123.901	0	-1e10	8	-1e10	8	-1E+10	1	-1E+10	1	-1E+10	1	-1E+10	1	-1E+10	1	-1E+10	1
4902554	59	C	09/23/2022	04:04	-133.639	49.114	0	125.80	0	6.3490	0	32.9030	0	25.854	0	124.694	0	-1e10	8	-1e10	8	-1E+10	1	-1E+10	1	-1E+10	1	-1E+10	1	-1E+10	1	-1E+10	1
4902554	59	C	09/23/2022	04:04	-133.639	49.114	0	127.00	0	6.3330	0	32.9230	0	25.872	0	125.883	0	-1e10	8	-1e10	8	-1E+10	1	-1E+10	1	-1E+10	1	-1E+10	1	-1E+10	1	-1E+10	1
4902554	59	C	09/23/2022	04:04	-133.639	49.114	0	128.10	0	6.3250	0	32.9260	0	25.875	0	126.973	0	-1e10	8	-1e10	8	-1E+10	1	-1E+10	1	-1E+10	1	-1E+10	1	-1E+10	1	-1E+10	1
4902554	59	C	09/23/2022	04:04	-133.639	49.114	0	128.90	0	6.3150	0	32.9290	0	25.879	0	127.765	0	-1e10	8	-1e10	8	-1E+10	1	-1E+10	1	-1E+10	1	-1E+10	1	-1E+10	1	-1E+10	1
4902554	59	C	09/23/2022	04:04	-133.639	49.114	0	129.80	0	6.2720	0	32.9750	0	25.920	0	128.657	0	-1e10	8	-1e10	8	-1E+10	1	-1E+10	1	-1E+10	1	-1E+10	1	-1E+10	1	-1E+10	1
4902554	59	C	09/23/2022	04:04	-133.639	49.114	0	130.90	0	6.2130	0	33.0520	0	25.989	0	129.747	0	-1e10	8	-1e10	8	-1E+10	1	-1E+10	1	-1E+10	1	-1E+10	1	-1E+10	1	-1E+10	1
4902554	59	C	09/23/2022	04:04	-133.639	49.114	0	132.10	0	6.1930	0	33.0760	0	26.010	0	130.936	0	-1e10	8	-1e10	8	-1E+10	1	-1E+10	1	-1E+10	1	-1E+10	1	-1E+10	1	-1E+10	1
4902554	59	C	09/23/2022	04:04	-133.639	49.114	0	133.00	0	6.1880	0	33.0810	0	26.015	0	131.828	0	-1e10	8	-1e10	8	-1E+10	1	-1E+10	1	-1E+10	1	-1E+10	1	-1E+10	1	-1E+10	1
4902554	59	C	09/23/2022	04:04	-133.639	49.114	0	133.90	0	6.1800	0	33.0880	0	26.021	0	132.720	0	-1e10	8	-1e10	8	-1E+10	1	-1E+10	1	-1E+10	1	-1E+10	1	-1E+10	1	-1E+10	1
4902554	59	C	09/23/2022	04:04	-133.639	49.114	0	135.00	0	6.1250	0	33.1450	0	26.073	0	133.810	0	-1e10	8	-1e10	8	-1E+10	1	-1E+10	1	-1E+10	1	-1E+10	1	-1E+10	1	-1E+10	1
4902554	59	C	09/23/2022	04:04	-133.639	49.114	0	135.90	0	6.1120	0	33.1480	0	26.077	0	134.701	0	-1e10	8	-1e10	8	-1E+10	1	-1E+10	1	-1E+10	1	-1E+10	1	-1E+10	1	-1E+10	1
4902554	59	C	09/23/2022	04:04	-133.639	49.114	0	136.70	0	6.0950	0	33.1620	0	26.090	0	135.494	0	-1e10	8	-1e10	8	-1E+10	1	-1E+10	1	-1E+10	1	-1E+10	1	-1E+10	1	-1E+10	1
4902554	59	C	09/23/2022	04:04	-133.639	49.114	0	137.90	0	6.0670	0	33.1930	0	26.118	0	136.683	0	-1e10	8	-1e10	8	-1E+10	1	-1E+10	1	-1E+10	1	-1E+10	1	-1E+10	1	-1E+10	1
4902554	59	C	09/23/2022	04:04	-133.639	49.114	0	139.00	0	6.0230	0	33.2470	0	26.166	0	137.773	0	-1e10	8	-1e10	8	-1E+10	1	-1E+10	1	-1E+10	1	-1E+10	1	-1E+10	1	-1E+10	1
4902554	59	C	09/23/2022	04:04	-133.639	49.114	0	139.90	0	6.0060	0	33.2690	0	26.186	0	138.665	0	-1e10	8	-1e10	8	-1E+10	1	-1E+10	1	-1E+10	1	-1E+10	1	-1E+10	1	-1E+10	1
4902554	59	C	09/23/2022	04:04	-133.639	49.114	0	140.90	0	5.9720	0	33.3180	0	26.229	0	139.656	0	-1e10	8	-1e10	8	-1E+10	1	-1E+10	1	-1E+10	1	-1E+10	1	-1E+10	1	-1E+10	1
4902554	59	C	09/23/2022	04:04	-133.639	49.114	0	141.90	0	5.9590	0	33.3410	0	26.248	0	140.647	0	-1e10	8	-1e10	8	-1E+10	1	-1E+10	1	-1E+10	1	-1E+10	1	-1E+10	1	-1E+10	1
4902554	59	C	09/23/2022	04:04	-133.639	49.114	0	143.00	0	5.9420	0	33.3670	0	26.271	0	141.736	0	-1e10	8	-1e10	8	-1E+10	1	-1E+10	1	-1E+10	1	-1E+10	1	-1E+10	1	-1E+10	1
4902554	59	C	09/23/2022	04:04	-133.639	49.114	0	144.20	0	5.9150	0	33.3990	0	26.300	0	142.925	0	-1e10	8	-1e10	8	-1E+10	1	-1E+10	1	-1E+10	1	-1E+10	1	-1E+10	1	-1E+10	1
4902554	59	C	09/23/2022	04:04	-133.639	49.114	0	145.00	0	5.9160	0	33.4140	0	26.312	0	143.718	0	-1e10	8	-1e10	8	-1E+10	1	-1E+10	1	-1E+10	1	-1E+10	1	-1E+10	1	-1E+10	1
4902554	59	C	09/23/2022	04:04	-133.639	49.114	0	145.80	0	5.9100	0	33.4230	0	26.319	0	144.511	0	-1e10	8	-1e10	8	-1E+10	1	-1E+10	1	-1E+10	1	-1E+10	1	-1E+10	1	-1E+10	1
4902554	59	C	09/23/2022	04:04	-133.639	49.114	0	146.60	0	5.8990	0	33.4330	0	26.329	0	145.303	0	-1e10	8	-1e10	8	-1E+10	1	-1E+10	1	-1E+10	1	-1E+10	1	-1E+10	1	-1E+10	1
4902554	59	C	09/23/2022	04:04	-133.639	49.114	0	147.90	0	5.8820	0	33.4480	0	26.343	0	146.591	0	-1e10	8	-1e10	8	-1E+10	1	-1E+10	1	-1E+10	1	-1E+10	1	-1E+10	1	-1E+10	1
4902554	59	C	09/23/2022	04:04	-133.639	49.114	0	149.20	0	5.8560	0	33.4760	0	26.368	0	147.879	0	-1e10	8	-1e10	8	-1E+10	1	-1E+10	1	-1E+10	1	-1E+10	1	-1E+10	1	-1E+10	1
4902554	59	C	09/23/2022	04:04	-133.639	49.114	0	150.10	0	5.8340	0	33.5030	0	26.392	0	148.771	0	-1e10	8	-1e10	8	-1E+10	1	-1E+10	1	-1E+10	1	-1E+10	1	-1E+10	1	-1E+10	1
4902554	59	C	09/23/2022	04:04	-133.639	49.114	0	151.00	0	5.8290	0	33.5090	0	26.397	0	149.663	0	-1e10	8	-1e10	8	-1E+10	1	-1E+10	1	-1E+10	1	-1E+10	1	-1E+10	1	-1E+10	1
4902554	59	C	09/23/2022	04:04	-133.639	49.114	0	151.90	0	5.8280	0	33.5100	0	26.398	0	150.555	0	-1e10	8	-1e10	8	-1E+10	1	-1E+10	1	-1E+10	1	-1E+10	1	-1E+10	1	-1E+10	1
4902554	59	C	09/23/2022	04:04	-133.639	49.114	0	152.80	0	5.8130	0	33.5220	0	26.410	0	151.446	0	-1e10	8	-1e10	8	-1E+10	1	-1E+10	1	-1E+10	1	-1E+10	1	-1E+10	1	-1E+10	1
4902554	59	C	09/23/2022	04:04	-133.639	49.114	0	153.80	0	5.7880	0	33.5450	0	26.431	0	152.437	0	-1e10	8	-1e10	8	-1E+10	1	-1E+10	1	-1E+10	1	-1E+10	1	-1E+10	1	-1E+10	1
4902554	59	C	09/23/2022	04:04	-133.639	49.114	0	154.80	0	5.7670	0	33.5630	0	26.448	0	153.428	0	-1e10	8	-1e10	8	-1E+10	1	-1E+10	1	-1E+10	1	-1E+10	1	-1E+10	1	-1E+10	1
4902554	59	C	09/23/2022	04:04	-133.639	49.114	0	155.80	0	5.7600	0	33.5670	0	26.452	0	154.419	0	-1e10	8	-1e10	8	-1E+10	1	-1E+10	1	-1E+10	1	-1E+10	1	-1E+10	1	-1E+10	1
4902554	59	C	09/23/2022	04:04	-133.639	49.114	0	156.80	0	5.7600	0	33.5670	0	26.452	0	155.409	0	-1e10	8	-1e10	8	-1E+10	1	-1E+10	1	-1E+10	1	-1E+10	1	-1E+10	1	-1E+10	1
4902554	59	C	09/23/2022	04:04	-133.639	49.114	0	157.70	0	5.7560	0	33.5690	0	26.454	0	156.301	0	-1e10	8	-1e10	8	-1E+10	1	-1E+10	1	-1E+10	1	-1E+10	1	-1E+10	1	-1E+10	1
4902554	59	C	09/23/2022	04:04	-133.639	49.114	0	158.80	0	5.7460	0	33.5750	0	26.460	0	157.391	0	-1e10	8	-1e10	8	-1E+10	1	-1E+10	1	-1E+10	1	-1E+10	1	-1E+10	1	-1E+10	1
4902554	59	C	09/23/2022	04:04	-133.639	49.114	0	159.80	0	5.7410	0	33.5760	0	26.461	0	158.382	0	-1e10	8	-1e10	8	-1E+10	1	-1E+10	1	-1E+10	1	-1E+10	1	-1E+10	1	-1E+10	1
4902554	59	C	09/23/2022	04:04	-133.639	49.114	0	160.80	0	5.7200	0	33.5880	0	26.473	0	159.372	0	-1e10	8	-1e10	8	-1E+10	1	-1E+10	1	-1E+10	1	-1E+10	1	-1E+10	1	-1E+10	1
4902554	59	C	09/23/2022	04:04	-133.639	49.114	0	161.80	0	5.6910	0	33.6010	0	26.487	0	160.363	0	-1e10	8	-1e10	8	-1E+10	1	-1E+10	1	-1E+10	1	-1E+10	1	-1E+10	1	-1E+10	1
4902554	59	C	09/23/2022	04:04	-133.639	49.114	0	162.90	0	5.6840	0	33.6080	0	26.493	0	161.453	0	-1e10	8	-1e10	8	-1E+10	1	-1E+10	1	-1E+10	1	-1E+10	1	-1E+10	1	-1E+10	1
4902554	59	C	09/23/2022	04:04	-133.639	49.114	0	163.90	0	5.6800	0	33.6140	0	26.499	0	162.444	0	-1e10	8	-1e10	8	-1E+10	1	-1E+10	1	-1E+10	1	-1E+10	1	-1E+10	1	-1E+10	1
4902554	59	C	09/23/2022	04:04	-133.639	49.114	0	164.90	0	5.6790	0	33.6160	0	26.500	0	163.434	0	-1e10	8	-1e10	8	-1E+10	1	-1E+10	1	-1E+10	1	-1E+10	1	-1E+10	1	-1E+10	1
4902554	59	C	09/23/2022	04:04	-133.639	49.114	0	166.00	0	5.6770	0	33.6180	0	26.502	0	164.524	0	-1e10	8	-1e10	8	-1E+10	1	-1E+10	1	-1E+10	1	-1E+10	1	-1E+10	1	-1E+10	1
4902554	59	C	09/23/2022	04:04	-133.639	49.114	0	167.10	0	5.6740	0	33.6220	0	26.506	0	165.614	0	-1e10	8	-1e10	8	-1E+10	1	-1E+10	1	-1E+10	1	-1E+10	1	-1E+10	1	-1E+10	1
4902554	59	C	09/23/2022	04:04	-133.639	49.114	0	168.10	0	5.6720	0	33.6250	0	26.508	0	166.605	0	-1e10	8	-1e10	8	-1E+10	1	-1E+10	1	-1E+10	1	-1E+10	1	-1E+10	1	-1E+10	1
4902554	59	C	09/23/2022	04:04	-133.639	49.114	0	169.10	0	5.6700	0	33.6260	0	26.509	0	167.595	0	-1e10	8	-1e10	8	-1E+10	1	-1E+10	1	-1E+10	1	-1E+10	1	-1E+10	1	-1E+10	1
4902554	59	C	09/23/2022	04:04	-133.639	49.114	0	170.10	0	5.6700	0	33.6260	0	26.509	0	168.586	0	-1e10	8	-1e10	8	-1E+10	1	-1E+10	1	-1E+10	1	-1E+10	1	-1E+10	1	-1E+10	1
4902554	59	C	09/23/2022	04:04	-133.639	49.114	0	171.10	0	5.6690	0	33.6260	0	26.509	0	169.577	0	-1e10	8	-1e10	8	-1E+10	1	-1E+10	1	-1E+10	1	-1E+10	1	-1E+10	1	-1E+10	1
4902554	59	C	09/23/2022	04:04	-133.639	49.114	0	172.10	0	5.6590	0	33.6370	0	26.519	0	170.567	0	-1e10	8	-1e10	8	-1E+10	1	-1E+10	1	-1E+10	1	-1E+10	1	-1E+10	1	-1E+10	1
4902554	59	C	09/23/2022	04:04	-133.639	49.114	0	173.10	0	5.6520	0	33.6420	0	26.524	0	171.558	0	-1e10	8	-1e10	8	-1E+10	1	-1E+10	1	-1E+10	1	-1E+10	1	-1E+10	1	-1E+10	1
4902554	59	C	09/23/2022	04:04	-133.639	49.114	0	174.00	0	5.6390	0	33.6480	0	26.531	0	172.450	0	-1e10	8	-1e10	8	-1E+10	1	-1E+10	1	-1E+10	1	-1E+10	1	-1E+10	1	-1E+10	1
4902554	59	C	09/23/2022	04:04	-133.639	49.114	0	175.00	0	5.6440	0	33.6450	0	26.528	0	173.440	0	-1e10	8	-1e10	8	-1E+10	1	-1E+10	1	-1E+10	1	-1E+10	1	-1E+10	1	-1E+10	1
4902554	59	C	09/23/2022	04:04	-133.639	49.114	0	176.00	0	5.6420	0	33.6450	0	26.528	0	174.431	0	-1e10	8	-1e10	8	-1E+10	1	-1E+10	1	-1E+10	1	-1E+10	1	-1E+10	1	-1E+10	1
4902554	59	C	09/23/2022	04:04	-133.639	49.114	0	177.00	0	5.6340	0	33.6470	0	26.530	0	175.422	0	-1e10	8	-1e10	8	-1E+10	1	-1E+10	1	-1E+10	1	-1E+10	1	-1E+10	1	-1E+10	1
4902554	59	C	09/23/2022	04:04	-133.639	49.114	0	177.90	0	5.6020	0	33.6650	0	26.548	0	176.313	0	-1e10	8	-1e10	8	-1E+10	1	-1E+10	1	-1E+10	1	-1E+10	1	-1E+10	1	-1E+10	1
4902554	59	C	09/23/2022	04:04	-133.639	49.114	0	178.80	0	5.6010	0	33.6670	0	26.550	0	177.205	0	-1e10	8	-1e10	8	-1E+10	1	-1E+10	1	-1E+10	1	-1E+10	1	-1E+10	1	-1E+10	1
4902554	59	C	09/23/2022	04:04	-133.639	49.114	0	179.80	0	5.6000	0	33.6680	0	26.551	0	178.195	0	-1e10	8	-1e10	8	-1E+10	1	-1E+10	1	-1E+10	1	-1E+10	1	-1E+10	1	-1E+10	1
4902554	59	C	09/23/2022	04:04	-133.639	49.114	0	180.80	0	5.6080	0	33.6740	0	26.555	0	179.186	0	-1e10	8	-1e10	8	-1E+10	1	-1E+10	1	-1E+10	1	-1E+10	1	-1E+10	1	-1E+10	1
4902554	59	C	09/23/2022	04:04	-133.639	49.114	0	181.70	0	5.6070	0	33.6930	0	26.570	0	180.078	0	-1e10	8	-1e10	8	-1E+10	1	-1E+10	1	-1E+10	1	-1E+10	1	-1E+10	1	-1E+10	1
4902554	59	C	09/23/2022	04:04	-133.639	49.114	0	182.70	0	5.5850	0	33.6980	0	26.577	0	181.068	0	-1e10	8	-1e10	8	-1E+10	1	-1E+10	1	-1E+10	1	-1E+10	1	-1E+10	1	-1E+10	1
4902554	59	C	09/23/2022	04:04	-133.639	49.114	0	183.60	0	5.5840	0	33.6970	0	26.576	0	181.960	0	-1e10	8	-1e10	8	-1E+10	1	-1E+10	1	-1E+10	1	-1E+10	1	-1E+10	1	-1E+10	1
4902554	59	C	09/23/2022	04:04	-133.639	49.114	0	184.50	0	5.5690	0	33.7020	0	26.582	0	182.851	0	-1e10	8	-1e10	8	-1E+10	1	-1E+10	1	-1E+10	1	-1E+10	1	-1E+10	1	-1E+10	1
4902554	59	C	09/23/2022	04:04	-133.639	49.114	0	185.50	0	5.5610	0	33.7030	0	26.583	0	183.842	0	-1e10	8	-1e10	8	-1E+10	1	-1E+10	1	-1E+10	1	-1E+10	1	-1E+10	1	-1E+10	1
4902554	59	C	09/23/2022	04:04	-133.639	49.114	0	186.90	0	5.5510	0	33.7040	0	26.585	0	185.229	0	-1e10	8	-1e10	8	-1E+10	1	-1E+10	1	-1E+10	1	-1E+10	1	-1E+10	1	-1E+10	1
4902554	59	C	09/23/2022	04:04	-133.639	49.114	0	188.30	0	5.5340	0	33.7070	0	26.590	0	186.616	0	-1e10	8	-1e10	8	-1E+10	1	-1E+10	1	-1E+10	1	-1E+10	1	-1E+10	1	-1E+10	1
4902554	59	C	09/23/2022	04:04	-133.639	49.114	0	189.30	0	5.5070	0	33.7110	0	26.596	0	187.606	0	-1e10	8	-1e10	8	-1E+10	1	-1E+10	1	-1E+10	1	-1E+10	1	-1E+10	1	-1E+10	1
4902554	59	C	09/23/2022	04:04	-133.639	49.114	0	190.20	0	5.4900	0	33.7130	0	26.600	0	188.498	0	-1e10	8	-1e10	8	-1E+10	1	-1E+10	1	-1E+10	1	-1E+10	1	-1E+10	1	-1E+10	1
4902554	59	C	09/23/2022	04:04	-133.639	49.114	0	191.20	0	5.4750	0	33.7150	0	26.603	0	189.488	0	-1e10	8	-1e10	8	-1E+10	1	-1E+10	1	-1E+10	1	-1E+10	1	-1E+10	1	-1E+10	1
4902554	59	C	09/23/2022	04:04	-133.639	49.114	0	192.10	0	5.4710	0	33.7150	0	26.604	0	190.380	0	-1e10	8	-1e10	8	-1E+10	1	-1E+10	1	-1E+10	1	-1E+10	1	-1E+10	1	-1E+10	1
4902554	59	C	09/23/2022	04:04	-133.639	49.114	0	193.10	0	5.4690	0	33.7150	0	26.604	0	191.371	0	-1e10	8	-1e10	8	-1E+10	1	-1E+10	1	-1E+10	1	-1E+10	1	-1E+10	1	-1E+10	1
4902554	59	C	09/23/2022	04:04	-133.639	49.114	0	194.00	0	5.4590	0	33.7160	0	26.606	0	192.262	0	-1e10	8	-1e10	8	-1E+10	1	-1E+10	1	-1E+10	1	-1E+10	1	-1E+10	1	-1E+10	1
4902554	59	C	09/23/2022	04:04	-133.639	49.114	0	194.90	0	5.4460	0	33.7200	0	26.611	0	193.154	0	-1e10	8	-1e10	8	-1E+10	1	-1E+10	1	-1E+10	1	-1E+10	1	-1E+10	1	-1E+10	1
4902554	59	C	09/23/2022	04:04	-133.639	49.114	0	195.90	0	5.4410	0	33.7190	0	26.611	0	194.144	0	-1e10	8	-1e10	8	-1E+10	1	-1E+10	1	-1E+10	1	-1E+10	1	-1E+10	1	-1E+10	1
4902554	59	C	09/23/2022	04:04	-133.639	49.114	0	196.70	0	5.4370	0	33.7190	0	26.611	0	194.937	0	-1e10	8	-1e10	8	-1E+10	1	-1E+10	1	-1E+10	1	-1E+10	1	-1E+10	1	-1E+10	1
4902554	59	C	09/23/2022	04:04	-133.639	49.114	0	197.90	0	5.4250	0	33.7200	0	26.613	0	196.125	0	-1e10	8	-1e10	8	-1E+10	1	-1E+10	1	-1E+10	1	-1E+10	1	-1E+10	1	-1E+10	1
4902554	59	C	09/23/2022	04:04	-133.639	49.114	0	198.90	0	5.4070	0	33.7220	0	26.617	0	197.116	0	-1e10	8	-1e10	8	-1E+10	1	-1E+10	1	-1E+10	1	-1E+10	1	-1E+10	1	-1E+10	1
4902554	59	C	09/23/2022	04:04	-133.639	49.114	0	199.90	0	5.3940	0	33.7220	0	26.618	0	198.106	0	-1e10	8	-1e10	8	-1E+10	1	-1E+10	1	-1E+10	1	-1E+10	1	-1E+10	1	-1E+10	1
4902554	59	C	09/23/2022	04:04	-133.639	49.114	0	201.00	0	5.3800	0	33.7230	0	26.621	0	199.196	0	-1e10	8	-1e10	8	-1E+10	1	-1E+10	1	-1E+10	1	-1E+10	1	-1E+10	1	-1E+10	1
4902554	59	C	09/23/2022	04:04	-133.639	49.114	0	201.80	0	5.3770	0	33.7220	0	26.620	0	199.988	0	-1e10	8	-1e10	8	-1E+10	1	-1E+10	1	-1E+10	1	-1E+10	1	-1E+10	1	-1E+10	1
4902554	59	C	09/23/2022	04:04	-133.639	49.114	0	202.90	0	5.3000	0	33.7310	0	26.637	0	201.078	0	-1e10	8	-1e10	8	-1E+10	1	-1E+10	1	-1E+10	1	-1E+10	1	-1E+10	1	-1E+10	1
4902554	59	C	09/23/2022	04:04	-133.639	49.114	0	204.00	0	5.2590	0	33.7360	0	26.645	0	202.168	0	-1e10	8	-1e10	8	-1E+10	1	-1E+10	1	-1E+10	1	-1E+10	1	-1E+10	1	-1E+10	1
4902554	59	C	09/23/2022	04:04	-133.639	49.114	0	204.80	0	5.2550	0	33.7350	0	26.645	0	202.960	0	-1e10	8	-1e10	8	-1E+10	1	-1E+10	1	-1E+10	1	-1E+10	1	-1E+10	1	-1E+10	1
4902554	59	C	09/23/2022	04:04	-133.639	49.114	0	206.00	0	5.2490	0	33.7350	0	26.646	0	204.149	0	-1e10	8	-1e10	8	-1E+10	1	-1E+10	1	-1E+10	1	-1E+10	1	-1E+10	1	-1E+10	1
4902554	59	C	09/23/2022	04:04	-133.639	49.114	0	207.20	0	5.2470	0	33.7360	0	26.647	0	205.337	0	-1e10	8	-1e10	8	-1E+10	1	-1E+10	1	-1E+10	1	-1E+10	1	-1E+10	1	-1E+10	1
4902554	59	C	09/23/2022	04:04	-133.639	49.114	0	207.90	0	5.2460	0	33.7350	0	26.646	0	206.031	0	-1e10	8	-1e10	8	-1E+10	1	-1E+10	1	-1E+10	1	-1E+10	1	-1E+10	1	-1E+10	1
4902554	59	C	09/23/2022	04:04	-133.639	49.114	0	208.70	0	5.2450	0	33.7350	0	26.646	0	206.823	0	-1e10	8	-1e10	8	-1E+10	1	-1E+10	1	-1E+10	1	-1E+10	1	-1E+10	1	-1E+10	1
4902554	59	C	09/23/2022	04:04	-133.639	49.114	0	210.00	0	5.2320	0	33.7370	0	26.649	0	208.111	0	-1e10	8	-1e10	8	-1E+10	1	-1E+10	1	-1E+10	1	-1E+10	1	-1E+10	1	-1E+10	1
4902554	59	C	09/23/2022	04:04	-133.639	49.114	0	211.20	0	5.2060	0	33.7390	0	26.654	0	209.299	0	-1e10	8	-1e10	8	-1E+10	1	-1E+10	1	-1E+10	1	-1E+10	1	-1E+10	1	-1E+10	1
4902554	59	C	09/23/2022	04:04	-133.639	49.114	0	212.00	0	5.2050	0	33.7390	0	26.654	0	210.092	0	-1e10	8	-1e10	8	-1E+10	1	-1E+10	1	-1E+10	1	-1E+10	1	-1E+10	1	-1E+10	1
4902554	59	C	09/23/2022	04:04	-133.639	49.114	0	212.90	0	5.2040	0	33.7400	0	26.655	0	210.983	0	-1e10	8	-1e10	8	-1E+10	1	-1E+10	1	-1E+10	1	-1E+10	1	-1E+10	1	-1E+10	1
4902554	59	C	09/23/2022	04:04	-133.639	49.114	0	213.70	0	5.2010	0	33.7390	0	26.655	0	211.776	0	-1e10	8	-1e10	8	-1E+10	1	-1E+10	1	-1E+10	1	-1E+10	1	-1E+10	1	-1E+10	1
4902554	59	C	09/23/2022	04:04	-133.639	49.114	0	214.90	0	5.1840	0	33.7440	0	26.660	0	212.964	0	-1e10	8	-1e10	8	-1E+10	1	-1E+10	1	-1E+10	1	-1E+10	1	-1E+10	1	-1E+10	1
4902554	59	C	09/23/2022	04:04	-133.639	49.114	0	216.20	0	5.1460	0	33.7450	0	26.666	0	214.252	0	-1e10	8	-1e10	8	-1E+10	1	-1E+10	1	-1E+10	1	-1E+10	1	-1E+10	1	-1E+10	1
4902554	59	C	09/23/2022	04:04	-133.639	49.114	0	217.00	0	5.1410	0	33.7460	0	26.667	0	215.044	0	-1e10	8	-1e10	8	-1E+10	1	-1E+10	1	-1E+10	1	-1E+10	1	-1E+10	1	-1E+10	1
4902554	59	C	09/23/2022	04:04	-133.639	49.114	0	217.80	0	5.1290	0	33.7460	0	26.668	0	215.836	0	-1e10	8	-1e10	8	-1E+10	1	-1E+10	1	-1E+10	1	-1E+10	1	-1E+10	1	-1E+10	1
4902554	59	C	09/23/2022	04:04	-133.639	49.114	0	218.70	0	5.1140	0	33.7460	0	26.670	0	216.728	0	-1e10	8	-1e10	8	-1E+10	1	-1E+10	1	-1E+10	1	-1E+10	1	-1E+10	1	-1E+10	1
4902554	59	C	09/23/2022	04:04	-133.639	49.114	0	219.60	0	5.0790	0	33.7510	0	26.678	0	217.619	0	-1e10	8	-1e10	8	-1E+10	1	-1E+10	1	-1E+10	1	-1E+10	1	-1E+10	1	-1E+10	1
4902554	59	C	09/23/2022	04:04	-133.639	49.114	0	220.90	0	5.0710	0	33.7520	0	26.680	0	218.907	0	-1e10	8	-1e10	8	-1E+10	1	-1E+10	1	-1E+10	1	-1E+10	1	-1E+10	1	-1E+10	1
4902554	59	C	09/23/2022	04:04	-133.639	49.114	0	222.30	0	5.0580	0	33.7530	0	26.682	0	220.293	0	-1e10	8	-1e10	8	-1E+10	1	-1E+10	1	-1E+10	1	-1E+10	1	-1E+10	1	-1E+10	1
4902554	59	C	09/23/2022	04:04	-133.639	49.114	0	223.20	0	5.0460	0	33.7540	0	26.684	0	221.185	0	-1e10	8	-1e10	8	-1E+10	1	-1E+10	1	-1E+10	1	-1E+10	1	-1E+10	1	-1E+10	1
4902554	59	C	09/23/2022	04:04	-133.639	49.114	0	224.10	0	5.0290	0	33.7570	0	26.689	0	222.076	0	-1e10	8	-1e10	8	-1E+10	1	-1E+10	1	-1E+10	1	-1E+10	1	-1E+10	1	-1E+10	1
4902554	59	C	09/23/2022	04:04	-133.639	49.114	0	225.00	0	5.0230	0	33.7580	0	26.690	0	222.968	0	-1e10	8	-1e10	8	-1E+10	1	-1E+10	1	-1E+10	1	-1E+10	1	-1E+10	1	-1E+10	1
4902554	59	C	09/23/2022	04:04	-133.639	49.114	0	225.90	0	5.0180	0	33.7590	0	26.691	0	223.859	0	-1e10	8	-1e10	8	-1E+10	1	-1E+10	1	-1E+10	1	-1E+10	1	-1E+10	1	-1E+10	1
4902554	59	C	09/23/2022	04:04	-133.639	49.114	0	226.80	0	5.0160	0	33.7590	0	26.692	0	224.750	0	-1e10	8	-1e10	8	-1E+10	1	-1E+10	1	-1E+10	1	-1E+10	1	-1E+10	1	-1E+10	1
4902554	59	C	09/23/2022	04:04	-133.639	49.114	0	227.70	0	5.0140	0	33.7590	0	26.692	0	225.642	0	-1e10	8	-1e10	8	-1E+10	1	-1E+10	1	-1E+10	1	-1E+10	1	-1E+10	1	-1E+10	1
4902554	59	C	09/23/2022	04:04	-133.639	49.114	0	228.60	0	5.0090	0	33.7600	0	26.693	0	226.533	0	-1e10	8	-1e10	8	-1E+10	1	-1E+10	1	-1E+10	1	-1E+10	1	-1E+10	1	-1E+10	1
4902554	59	C	09/23/2022	04:04	-133.639	49.114	0	229.60	0	5.0060	0	33.7600	0	26.694	0	227.524	0	-1e10	8	-1e10	8	-1E+10	1	-1E+10	1	-1E+10	1	-1E+10	1	-1E+10	1	-1E+10	1
4902554	59	C	09/23/2022	04:04	-133.639	49.114	0	230.50	0	5.0030	0	33.7600	0	26.694	0	228.415	0	-1e10	8	-1e10	8	-1E+10	1	-1E+10	1	-1E+10	1	-1E+10	1	-1E+10	1	-1E+10	1
4902554	59	C	09/23/2022	04:04	-133.639	49.114	0	231.90	0	4.9740	0	33.7650	0	26.701	0	229.801	0	-1e10	8	-1e10	8	-1E+10	1	-1E+10	1	-1E+10	1	-1E+10	1	-1E+10	1	-1E+10	1
4902554	59	C	09/23/2022	04:04	-133.639	49.114	0	233.40	0	4.9590	0	33.7670	0	26.705	0	231.287	0	-1e10	8	-1e10	8	-1E+10	1	-1E+10	1	-1E+10	1	-1E+10	1	-1E+10	1	-1E+10	1
4902554	59	C	09/23/2022	04:04	-133.639	49.114	0	234.30	0	4.9530	0	33.7680	0	26.706	0	232.178	0	-1e10	8	-1e10	8	-1E+10	1	-1E+10	1	-1E+10	1	-1E+10	1	-1E+10	1	-1E+10	1
4902554	59	C	09/23/2022	04:04	-133.639	49.114	0	235.30	0	4.9480	0	33.7680	0	26.707	0	233.169	0	-1e10	8	-1e10	8	-1E+10	1	-1E+10	1	-1E+10	1	-1E+10	1	-1E+10	1	-1E+10	1
4902554	59	C	09/23/2022	04:04	-133.639	49.114	0	236.20	0	4.9410	0	33.7690	0	26.708	0	234.060	0	-1e10	8	-1e10	8	-1E+10	1	-1E+10	1	-1E+10	1	-1E+10	1	-1E+10	1	-1E+10	1
4902554	59	C	09/23/2022	04:04	-133.639	49.114	0	237.10	0	4.9370	0	33.7700	0	26.709	0	234.952	0	-1e10	8	-1e10	8	-1E+10	1	-1E+10	1	-1E+10	1	-1E+10	1	-1E+10	1	-1E+10	1
4902554	59	C	09/23/2022	04:04	-133.639	49.114	0	238.10	0	4.9300	0	33.7700	0	26.710	0	235.942	0	-1e10	8	-1e10	8	-1E+10	1	-1E+10	1	-1E+10	1	-1E+10	1	-1E+10	1	-1E+10	1
4902554	59	C	09/23/2022	04:04	-133.639	49.114	0	239.10	0	4.9170	0	33.7720	0	26.713	0	236.932	0	-1e10	8	-1e10	8	-1E+10	1	-1E+10	1	-1E+10	1	-1E+10	1	-1E+10	1	-1E+10	1
4902554	59	C	09/23/2022	04:04	-133.639	49.114	0	240.00	0	4.8960	0	33.7750	0	26.718	0	237.824	0	-1e10	8	-1e10	8	-1E+10	1	-1E+10	1	-1E+10	1	-1E+10	1	-1E+10	1	-1E+10	1
4902554	59	C	09/23/2022	04:04	-133.639	49.114	0	240.90	0	4.8800	0	33.7760	0	26.721	0	238.715	0	-1e10	8	-1e10	8	-1E+10	1	-1E+10	1	-1E+10	1	-1E+10	1	-1E+10	1	-1E+10	1
4902554	59	C	09/23/2022	04:04	-133.639	49.114	0	241.90	0	4.8770	0	33.7760	0	26.721	0	239.705	0	-1e10	8	-1e10	8	-1E+10	1	-1E+10	1	-1E+10	1	-1E+10	1	-1E+10	1	-1E+10	1
4902554	59	C	09/23/2022	04:04	-133.639	49.114	0	242.80	0	4.8740	0	33.7770	0	26.722	0	240.597	0	-1e10	8	-1e10	8	-1E+10	1	-1E+10	1	-1E+10	1	-1E+10	1	-1E+10	1	-1E+10	1
4902554	59	C	09/23/2022	04:04	-133.639	49.114	0	243.80	0	4.8680	0	33.7770	0	26.723	0	241.587	0	-1e10	8	-1e10	8	-1E+10	1	-1E+10	1	-1E+10	1	-1E+10	1	-1E+10	1	-1E+10	1
4902554	59	C	09/23/2022	04:04	-133.639	49.114	0	244.70	0	4.8570	0	33.7780	0	26.725	0	242.478	0	-1e10	8	-1e10	8	-1E+10	1	-1E+10	1	-1E+10	1	-1E+10	1	-1E+10	1	-1E+10	1
4902554	59	C	09/23/2022	04:04	-133.639	49.114	0	245.60	0	4.8510	0	33.7790	0	26.726	0	243.369	0	-1e10	8	-1e10	8	-1E+10	1	-1E+10	1	-1E+10	1	-1E+10	1	-1E+10	1	-1E+10	1
4902554	59	C	09/23/2022	04:04	-133.639	49.114	0	246.60	0	4.8430	0	33.7790	0	26.727	0	244.360	0	-1e10	8	-1e10	8	-1E+10	1	-1E+10	1	-1E+10	1	-1E+10	1	-1E+10	1	-1E+10	1
4902554	59	C	09/23/2022	04:04	-133.639	49.114	0	247.50	0	4.8120	0	33.7820	0	26.733	0	245.251	0	-1e10	8	-1e10	8	-1E+10	1	-1E+10	1	-1E+10	1	-1E+10	1	-1E+10	1	-1E+10	1
4902554	59	C	09/23/2022	04:04	-133.639	49.114	0	248.90	0	4.7830	0	33.7850	0	26.739	0	246.638	0	-1e10	8	-1e10	8	-1E+10	1	-1E+10	1	-1E+10	1	-1E+10	1	-1E+10	1	-1E+10	1
4902554	59	C	09/23/2022	04:04	-133.639	49.114	0	250.40	0	4.7650	0	33.7870	0	26.742	0	248.123	0	-1e10	8	-1e10	8	-1E+10	1	-1E+10	1	-1E+10	1	-1E+10	1	-1E+10	1	-1E+10	1
4902554	59	C	09/23/2022	04:04	-133.639	49.114	0	251.30	0	4.7580	0	33.7870	0	26.743	0	249.014	0	-1e10	8	-1e10	8	-1E+10	1	-1E+10	1	-1E+10	1	-1E+10	1	-1E+10	1	-1E+10	1
4902554	59	C	09/23/2022	04:04	-133.639	49.114	0	252.30	0	4.7540	0	33.7870	0	26.743	0	250.005	0	-1e10	8	-1e10	8	-1E+10	1	-1E+10	1	-1E+10	1	-1E+10	1	-1E+10	1	-1E+10	1
4902554	59	C	09/23/2022	04:04	-133.639	49.114	0	253.20	0	4.7380	0	33.7930	0	26.750	0	250.896	0	-1e10	8	-1e10	8	-1E+10	1	-1E+10	1	-1E+10	1	-1E+10	1	-1E+10	1	-1E+10	1
4902554	59	C	09/23/2022	04:04	-133.639	49.114	0	254.20	0	4.7260	0	33.7930	0	26.751	0	251.886	0	-1e10	8	-1e10	8	-1E+10	1	-1E+10	1	-1E+10	1	-1E+10	1	-1E+10	1	-1E+10	1
4902554	59	C	09/23/2022	04:04	-133.639	49.114	0	255.10	0	4.7240	0	33.7940	0	26.752	0	252.777	0	-1e10	8	-1e10	8	-1E+10	1	-1E+10	1	-1E+10	1	-1E+10	1	-1E+10	1	-1E+10	1
4902554	59	C	09/23/2022	04:04	-133.639	49.114	0	256.10	0	4.7120	0	33.7950	0	26.754	0	253.768	0	-1e10	8	-1e10	8	-1E+10	1	-1E+10	1	-1E+10	1	-1E+10	1	-1E+10	1	-1E+10	1
4902554	59	C	09/23/2022	04:04	-133.639	49.114	0	257.00	0	4.7030	0	33.7960	0	26.756	0	254.659	0	-1e10	8	-1e10	8	-1E+10	1	-1E+10	1	-1E+10	1	-1E+10	1	-1E+10	1	-1E+10	1
4902554	59	C	09/23/2022	04:04	-133.639	49.114	0	258.00	0	4.7020	0	33.7960	0	26.756	0	255.649	0	-1e10	8	-1e10	8	-1E+10	1	-1E+10	1	-1E+10	1	-1E+10	1	-1E+10	1	-1E+10	1
4902554	59	C	09/23/2022	04:04	-133.639	49.114	0	258.90	0	4.7010	0	33.7960	0	26.756	0	256.540	0	-1e10	8	-1e10	8	-1E+10	1	-1E+10	1	-1E+10	1	-1E+10	1	-1E+10	1	-1E+10	1
4902554	59	C	09/23/2022	04:04	-133.639	49.114	0	259.90	0	4.7020	0	33.7960	0	26.756	0	257.531	0	-1e10	8	-1e10	8	-1E+10	1	-1E+10	1	-1E+10	1	-1E+10	1	-1E+10	1	-1E+10	1
4902554	59	C	09/23/2022	04:04	-133.639	49.114	0	260.80	0	4.6930	0	33.7960	0	26.757	0	258.422	0	-1e10	8	-1e10	8	-1E+10	1	-1E+10	1	-1E+10	1	-1E+10	1	-1E+10	1	-1E+10	1
4902554	59	C	09/23/2022	04:04	-133.639	49.114	0	261.80	0	4.6780	0	33.7990	0	26.761	0	259.412	0	-1e10	8	-1e10	8	-1E+10	1	-1E+10	1	-1E+10	1	-1E+10	1	-1E+10	1	-1E+10	1
4902554	59	C	09/23/2022	04:04	-133.639	49.114	0	262.80	0	4.6680	0	33.8000	0	26.763	0	260.402	0	-1e10	8	-1e10	8	-1E+10	1	-1E+10	1	-1E+10	1	-1E+10	1	-1E+10	1	-1E+10	1
4902554	59	C	09/23/2022	04:04	-133.639	49.114	0	263.70	0	4.6640	0	33.8010	0	26.764	0	261.294	0	-1e10	8	-1e10	8	-1E+10	1	-1E+10	1	-1E+10	1	-1E+10	1	-1E+10	1	-1E+10	1
4902554	59	C	09/23/2022	04:04	-133.639	49.114	0	264.60	0	4.6560	0	33.8030	0	26.767	0	262.185	0	-1e10	8	-1e10	8	-1E+10	1	-1E+10	1	-1E+10	1	-1E+10	1	-1E+10	1	-1E+10	1
4902554	59	C	09/23/2022	04:04	-133.639	49.114	0	265.60	0	4.6530	0	33.8040	0	26.768	0	263.175	0	-1e10	8	-1e10	8	-1E+10	1	-1E+10	1	-1E+10	1	-1E+10	1	-1E+10	1	-1E+10	1
4902554	59	C	09/23/2022	04:04	-133.639	49.114	0	266.60	0	4.6470	0	33.8020	0	26.767	0	264.165	0	-1e10	8	-1e10	8	-1E+10	1	-1E+10	1	-1E+10	1	-1E+10	1	-1E+10	1	-1E+10	1
4902554	59	C	09/23/2022	04:04	-133.639	49.114	0	267.50	0	4.6410	0	33.8000	0	26.766	0	265.057	0	-1e10	8	-1e10	8	-1E+10	1	-1E+10	1	-1E+10	1	-1E+10	1	-1E+10	1	-1E+10	1
4902554	59	C	09/23/2022	04:04	-133.639	49.114	0	268.90	0	4.6380	0	33.8040	0	26.770	0	266.443	0	-1e10	8	-1e10	8	-1E+10	1	-1E+10	1	-1E+10	1	-1E+10	1	-1E+10	1	-1E+10	1
4902554	59	C	09/23/2022	04:04	-133.639	49.114	0	270.40	0	4.6380	0	33.8060	0	26.771	0	267.928	0	-1e10	8	-1e10	8	-1E+10	1	-1E+10	1	-1E+10	1	-1E+10	1	-1E+10	1	-1E+10	1
4902554	59	C	09/23/2022	04:04	-133.639	49.114	0	271.30	0	4.6360	0	33.8070	0	26.772	0	268.819	0	-1e10	8	-1e10	8	-1E+10	1	-1E+10	1	-1E+10	1	-1E+10	1	-1E+10	1	-1E+10	1
4902554	59	C	09/23/2022	04:04	-133.639	49.114	0	272.30	0	4.6370	0	33.8060	0	26.771	0	269.810	0	-1e10	8	-1e10	8	-1E+10	1	-1E+10	1	-1E+10	1	-1E+10	1	-1E+10	1	-1E+10	1
4902554	59	C	09/23/2022	04:04	-133.639	49.114	0	273.30	0	4.6280	0	33.8090	0	26.775	0	270.800	0	-1e10	8	-1e10	8	-1E+10	1	-1E+10	1	-1E+10	1	-1E+10	1	-1E+10	1	-1E+10	1
4902554	59	C	09/23/2022	04:04	-133.639	49.114	0	274.20	0	4.6260	0	33.8090	0	26.775	0	271.691	0	-1e10	8	-1e10	8	-1E+10	1	-1E+10	1	-1E+10	1	-1E+10	1	-1E+10	1	-1E+10	1
4902554	59	C	09/23/2022	04:04	-133.639	49.114	0	275.10	0	4.6230	0	33.8100	0	26.776	0	272.582	0	-1e10	8	-1e10	8	-1E+10	1	-1E+10	1	-1E+10	1	-1E+10	1	-1E+10	1	-1E+10	1
4902554	59	C	09/23/2022	04:04	-133.639	49.114	0	276.00	0	4.6210	0	33.8100	0	26.776	0	273.473	0	-1e10	8	-1e10	8	-1E+10	1	-1E+10	1	-1E+10	1	-1E+10	1	-1E+10	1	-1E+10	1
4902554	59	C	09/23/2022	04:04	-133.639	49.114	0	277.00	0	4.6120	0	33.8120	0	26.779	0	274.463	0	-1e10	8	-1e10	8	-1E+10	1	-1E+10	1	-1E+10	1	-1E+10	1	-1E+10	1	-1E+10	1
4902554	59	C	09/23/2022	04:04	-133.639	49.114	0	277.90	0	4.6080	0	33.8130	0	26.780	0	275.355	0	-1e10	8	-1e10	8	-1E+10	1	-1E+10	1	-1E+10	1	-1E+10	1	-1E+10	1	-1E+10	1
4902554	59	C	09/23/2022	04:04	-133.639	49.114	0	278.80	0	4.6080	0	33.8130	0	26.780	0	276.246	0	-1e10	8	-1e10	8	-1E+10	1	-1E+10	1	-1E+10	1	-1E+10	1	-1E+10	1	-1E+10	1
4902554	59	C	09/23/2022	04:04	-133.639	49.114	0	279.70	0	4.6070	0	33.8130	0	26.780	0	277.137	0	-1e10	8	-1e10	8	-1E+10	1	-1E+10	1	-1E+10	1	-1E+10	1	-1E+10	1	-1E+10	1
4902554	59	C	09/23/2022	04:04	-133.639	49.114	0	280.60	0	4.6060	0	33.8130	0	26.780	0	278.028	0	-1e10	8	-1e10	8	-1E+10	1	-1E+10	1	-1E+10	1	-1E+10	1	-1E+10	1	-1E+10	1
4902554	59	C	09/23/2022	04:04	-133.639	49.114	0	281.90	0	4.5970	0	33.8150	0	26.783	0	279.315	0	-1e10	8	-1e10	8	-1E+10	1	-1E+10	1	-1E+10	1	-1E+10	1	-1E+10	1	-1E+10	1
4902554	59	C	09/23/2022	04:04	-133.639	49.114	0	283.30	0	4.5800	0	33.8190	0	26.788	0	280.702	0	-1e10	8	-1e10	8	-1E+10	1	-1E+10	1	-1E+10	1	-1E+10	1	-1E+10	1	-1E+10	1
4902554	59	C	09/23/2022	04:04	-133.639	49.114	0	284.20	0	4.5790	0	33.8200	0	26.789	0	281.593	0	-1e10	8	-1e10	8	-1E+10	1	-1E+10	1	-1E+10	1	-1E+10	1	-1E+10	1	-1E+10	1
4902554	59	C	09/23/2022	04:04	-133.639	49.114	0	285.10	0	4.5760	0	33.8200	0	26.789	0	282.484	0	-1e10	8	-1e10	8	-1E+10	1	-1E+10	1	-1E+10	1	-1E+10	1	-1E+10	1	-1E+10	1
4902554	59	C	09/23/2022	04:04	-133.639	49.114	0	286.00	0	4.5750	0	33.8210	0	26.790	0	283.375	0	-1e10	8	-1e10	8	-1E+10	1	-1E+10	1	-1E+10	1	-1E+10	1	-1E+10	1	-1E+10	1
4902554	59	C	09/23/2022	04:04	-133.639	49.114	0	286.80	0	4.5750	0	33.8210	0	26.790	0	284.167	0	-1e10	8	-1e10	8	-1E+10	1	-1E+10	1	-1E+10	1	-1E+10	1	-1E+10	1	-1E+10	1
4902554	59	C	09/23/2022	04:04	-133.639	49.114	0	287.70	0	4.5690	0	33.8220	0	26.792	0	285.058	0	-1e10	8	-1e10	8	-1E+10	1	-1E+10	1	-1E+10	1	-1E+10	1	-1E+10	1	-1E+10	1
4902554	59	C	09/23/2022	04:04	-133.639	49.114	0	288.90	0	4.5620	0	33.8230	0	26.793	0	286.246	0	-1e10	8	-1e10	8	-1E+10	1	-1E+10	1	-1E+10	1	-1E+10	1	-1E+10	1	-1E+10	1
4902554	59	C	09/23/2022	04:04	-133.639	49.114	0	290.30	0	4.5600	0	33.8230	0	26.793	0	287.632	0	-1e10	8	-1e10	8	-1E+10	1	-1E+10	1	-1E+10	1	-1E+10	1	-1E+10	1	-1E+10	1
4902554	59	C	09/23/2022	04:04	-133.639	49.114	0	291.10	0	4.5590	0	33.8230	0	26.794	0	288.425	0	-1e10	8	-1e10	8	-1E+10	1	-1E+10	1	-1E+10	1	-1E+10	1	-1E+10	1	-1E+10	1
4902554	59	C	09/23/2022	04:04	-133.639	49.114	0	292.00	0	4.5550	0	33.8250	0	26.796	0	289.316	0	-1e10	8	-1e10	8	-1E+10	1	-1E+10	1	-1E+10	1	-1E+10	1	-1E+10	1	-1E+10	1
4902554	59	C	09/23/2022	04:04	-133.639	49.114	0	292.80	0	4.5450	0	33.8270	0	26.798	0	290.108	0	-1e10	8	-1e10	8	-1E+10	1	-1E+10	1	-1E+10	1	-1E+10	1	-1E+10	1	-1E+10	1
4902554	59	C	09/23/2022	04:04	-133.639	49.114	0	293.70	0	4.5380	0	33.8290	0	26.801	0	290.999	0	-1e10	8	-1e10	8	-1E+10	1	-1E+10	1	-1E+10	1	-1E+10	1	-1E+10	1	-1E+10	1
4902554	59	C	09/23/2022	04:04	-133.639	49.114	0	294.60	0	4.5360	0	33.8290	0	26.801	0	291.890	0	-1e10	8	-1e10	8	-1E+10	1	-1E+10	1	-1E+10	1	-1E+10	1	-1E+10	1	-1E+10	1
4902554	59	C	09/23/2022	04:04	-133.639	49.114	0	295.90	0	4.5350	0	33.8290	0	26.801	0	293.177	0	-1e10	8	-1e10	8	-1E+10	1	-1E+10	1	-1E+10	1	-1E+10	1	-1E+10	1	-1E+10	1
4902554	59	C	09/23/2022	04:04	-133.639	49.114	0	297.20	0	4.5340	0	33.8290	0	26.801	0	294.464	0	-1e10	8	-1e10	8	-1E+10	1	-1E+10	1	-1E+10	1	-1E+10	1	-1E+10	1	-1E+10	1
4902554	59	C	09/23/2022	04:04	-133.639	49.114	0	298.00	0	4.5340	0	33.8290	0	26.801	0	295.256	0	-1e10	8	-1e10	8	-1E+10	1	-1E+10	1	-1E+10	1	-1E+10	1	-1E+10	1	-1E+10	1
4902554	59	C	09/23/2022	04:04	-133.639	49.114	0	298.90	0	4.5310	0	33.8290	0	26.801	0	296.147	0	-1e10	8	-1e10	8	-1E+10	1	-1E+10	1	-1E+10	1	-1E+10	1	-1E+10	1	-1E+10	1
4902554	59	C	09/23/2022	04:04	-133.639	49.114	0	299.70	0	4.5210	0	33.8320	0	26.805	0	296.939	0	-1e10	8	-1e10	8	-1E+10	1	-1E+10	1	-1E+10	1	-1E+10	1	-1E+10	1	-1E+10	1
4902554	59	C	09/23/2022	04:04	-133.639	49.114	0	301.00	0	4.5150	0	33.8320	0	26.806	0	298.226	0	-1e10	8	-1e10	8	-1E+10	1	-1E+10	1	-1E+10	1	-1E+10	1	-1E+10	1	-1E+10	1
4902554	59	C	09/23/2022	04:04	-133.639	49.114	0	302.30	0	4.5010	0	33.8370	0	26.811	0	299.514	0	-1e10	8	-1e10	8	-1E+10	1	-1E+10	1	-1E+10	1	-1E+10	1	-1E+10	1	-1E+10	1
4902554	59	C	09/23/2022	04:04	-133.639	49.114	0	303.10	0	4.4960	0	33.8370	0	26.812	0	300.306	0	-1e10	8	-1e10	8	-1E+10	1	-1E+10	1	-1E+10	1	-1E+10	1	-1E+10	1	-1E+10	1
4902554	59	C	09/23/2022	04:04	-133.639	49.114	0	303.90	0	4.4940	0	33.8380	0	26.813	0	301.098	0	-1e10	8	-1e10	8	-1E+10	1	-1E+10	1	-1E+10	1	-1E+10	1	-1E+10	1	-1E+10	1
4902554	59	C	09/23/2022	04:04	-133.639	49.114	0	304.80	0	4.4880	0	33.8390	0	26.814	0	301.989	0	-1e10	8	-1e10	8	-1E+10	1	-1E+10	1	-1E+10	1	-1E+10	1	-1E+10	1	-1E+10	1
4902554	59	C	09/23/2022	04:04	-133.639	49.114	0	305.60	0	4.4860	0	33.8390	0	26.814	0	302.781	0	-1e10	8	-1e10	8	-1E+10	1	-1E+10	1	-1E+10	1	-1E+10	1	-1E+10	1	-1E+10	1
4902554	59	C	09/23/2022	04:04	-133.639	49.114	0	306.90	0	4.4790	0	33.8410	0	26.817	0	304.068	0	-1e10	8	-1e10	8	-1E+10	1	-1E+10	1	-1E+10	1	-1E+10	1	-1E+10	1	-1E+10	1
4902554	59	C	09/23/2022	04:04	-133.639	49.114	0	308.20	0	4.4760	0	33.8420	0	26.818	0	305.355	0	-1e10	8	-1e10	8	-1E+10	1	-1E+10	1	-1E+10	1	-1E+10	1	-1E+10	1	-1E+10	1
4902554	59	C	09/23/2022	04:04	-133.639	49.114	0	309.00	0	4.4710	0	33.8430	0	26.819	0	306.147	0	-1e10	8	-1e10	8	-1E+10	1	-1E+10	1	-1E+10	1	-1E+10	1	-1E+10	1	-1E+10	1
4902554	59	C	09/23/2022	04:04	-133.639	49.114	0	309.90	0	4.4700	0	33.8440	0	26.820	0	307.038	0	-1e10	8	-1e10	8	-1E+10	1	-1E+10	1	-1E+10	1	-1E+10	1	-1E+10	1	-1E+10	1
4902554	59	C	09/23/2022	04:04	-133.639	49.114	0	310.70	0	4.4650	0	33.8460	0	26.822	0	307.830	0	-1e10	8	-1e10	8	-1E+10	1	-1E+10	1	-1E+10	1	-1E+10	1	-1E+10	1	-1E+10	1
4902554	59	C	09/23/2022	04:04	-133.639	49.114	0	311.60	0	4.4590	0	33.8470	0	26.824	0	308.721	0	-1e10	8	-1e10	8	-1E+10	1	-1E+10	1	-1E+10	1	-1E+10	1	-1E+10	1	-1E+10	1
4902554	59	C	09/23/2022	04:04	-133.639	49.114	0	312.90	0	4.4470	0	33.8510	0	26.828	0	310.008	0	-1e10	8	-1e10	8	-1E+10	1	-1E+10	1	-1E+10	1	-1E+10	1	-1E+10	1	-1E+10	1
4902554	59	C	09/23/2022	04:04	-133.639	49.114	0	314.20	0	4.4400	0	33.8540	0	26.831	0	311.295	0	-1e10	8	-1e10	8	-1E+10	1	-1E+10	1	-1E+10	1	-1E+10	1	-1E+10	1	-1E+10	1
4902554	59	C	09/23/2022	04:04	-133.639	49.114	0	315.00	0	4.4380	0	33.8550	0	26.832	0	312.087	0	-1e10	8	-1e10	8	-1E+10	1	-1E+10	1	-1E+10	1	-1E+10	1	-1E+10	1	-1E+10	1
4902554	59	C	09/23/2022	04:04	-133.639	49.114	0	315.90	0	4.4360	0	33.8550	0	26.832	0	312.978	0	-1e10	8	-1e10	8	-1E+10	1	-1E+10	1	-1E+10	1	-1E+10	1	-1E+10	1	-1E+10	1
4902554	59	C	09/23/2022	04:04	-133.639	49.114	0	316.80	0	4.4340	0	33.8560	0	26.833	0	313.869	0	-1e10	8	-1e10	8	-1E+10	1	-1E+10	1	-1E+10	1	-1E+10	1	-1E+10	1	-1E+10	1
4902554	59	C	09/23/2022	04:04	-133.639	49.114	0	317.70	0	4.4290	0	33.8580	0	26.835	0	314.760	0	-1e10	8	-1e10	8	-1E+10	1	-1E+10	1	-1E+10	1	-1E+10	1	-1E+10	1	-1E+10	1
4902554	59	C	09/23/2022	04:04	-133.639	49.114	0	318.60	0	4.4310	0	33.8570	0	26.834	0	315.651	0	-1e10	8	-1e10	8	-1E+10	1	-1E+10	1	-1E+10	1	-1E+10	1	-1E+10	1	-1E+10	1
4902554	59	C	09/23/2022	04:04	-133.639	49.114	0	319.90	0	4.4300	0	33.8570	0	26.835	0	316.938	0	-1e10	8	-1e10	8	-1E+10	1	-1E+10	1	-1E+10	1	-1E+10	1	-1E+10	1	-1E+10	1
4902554	59	C	09/23/2022	04:04	-133.639	49.114	0	321.30	0	4.4290	0	33.8570	0	26.835	0	318.324	0	-1e10	8	-1e10	8	-1E+10	1	-1E+10	1	-1E+10	1	-1E+10	1	-1E+10	1	-1E+10	1
4902554	59	C	09/23/2022	04:04	-133.639	49.114	0	322.20	0	4.4250	0	33.8590	0	26.837	0	319.215	0	-1e10	8	-1e10	8	-1E+10	1	-1E+10	1	-1E+10	1	-1E+10	1	-1E+10	1	-1E+10	1
4902554	59	C	09/23/2022	04:04	-133.639	49.114	0	323.10	0	4.4230	0	33.8590	0	26.837	0	320.106	0	-1e10	8	-1e10	8	-1E+10	1	-1E+10	1	-1E+10	1	-1E+10	1	-1E+10	1	-1E+10	1
4902554	59	C	09/23/2022	04:04	-133.639	49.114	0	324.00	0	4.4200	0	33.8600	0	26.838	0	320.997	0	-1e10	8	-1e10	8	-1E+10	1	-1E+10	1	-1E+10	1	-1E+10	1	-1E+10	1	-1E+10	1
4902554	59	C	09/23/2022	04:04	-133.639	49.114	0	324.90	0	4.4190	0	33.8610	0	26.839	0	321.888	0	-1e10	8	-1e10	8	-1E+10	1	-1E+10	1	-1E+10	1	-1E+10	1	-1E+10	1	-1E+10	1
4902554	59	C	09/23/2022	04:04	-133.639	49.114	0	325.80	0	4.4160	0	33.8620	0	26.840	0	322.779	0	-1e10	8	-1e10	8	-1E+10	1	-1E+10	1	-1E+10	1	-1E+10	1	-1E+10	1	-1E+10	1
4902554	59	C	09/23/2022	04:04	-133.639	49.114	0	326.70	0	4.4150	0	33.8620	0	26.840	0	323.670	0	-1e10	8	-1e10	8	-1E+10	1	-1E+10	1	-1E+10	1	-1E+10	1	-1E+10	1	-1E+10	1
4902554	59	C	09/23/2022	04:04	-133.639	49.114	0	327.70	0	4.4130	0	33.8630	0	26.841	0	324.660	0	-1e10	8	-1e10	8	-1E+10	1	-1E+10	1	-1E+10	1	-1E+10	1	-1E+10	1	-1E+10	1
4902554	59	C	09/23/2022	04:04	-133.639	49.114	0	328.60	0	4.4120	0	33.8630	0	26.841	0	325.550	0	-1e10	8	-1e10	8	-1E+10	1	-1E+10	1	-1E+10	1	-1E+10	1	-1E+10	1	-1E+10	1
4902554	59	C	09/23/2022	04:04	-133.639	49.114	0	329.90	0	4.4070	0	33.8640	0	26.843	0	326.837	0	-1e10	8	-1e10	8	-1E+10	1	-1E+10	1	-1E+10	1	-1E+10	1	-1E+10	1	-1E+10	1
4902554	59	C	09/23/2022	04:04	-133.639	49.114	0	331.30	0	4.4000	0	33.8670	0	26.846	0	328.223	0	-1e10	8	-1e10	8	-1E+10	1	-1E+10	1	-1E+10	1	-1E+10	1	-1E+10	1	-1E+10	1
4902554	59	C	09/23/2022	04:04	-133.639	49.114	0	332.30	0	4.3990	0	33.8670	0	26.846	0	329.213	0	-1e10	8	-1e10	8	-1E+10	1	-1E+10	1	-1E+10	1	-1E+10	1	-1E+10	1	-1E+10	1
4902554	59	C	09/23/2022	04:04	-133.639	49.114	0	333.20	0	4.3980	0	33.8680	0	26.847	0	330.104	0	-1e10	8	-1e10	8	-1E+10	1	-1E+10	1	-1E+10	1	-1E+10	1	-1E+10	1	-1E+10	1
4902554	59	C	09/23/2022	04:04	-133.639	49.114	0	334.10	0	4.3980	0	33.8680	0	26.847	0	330.995	0	-1e10	8	-1e10	8	-1E+10	1	-1E+10	1	-1E+10	1	-1E+10	1	-1E+10	1	-1E+10	1
4902554	59	C	09/23/2022	04:04	-133.639	49.114	0	335.10	0	4.3970	0	33.8680	0	26.847	0	331.985	0	-1e10	8	-1e10	8	-1E+10	1	-1E+10	1	-1E+10	1	-1E+10	1	-1E+10	1	-1E+10	1
4902554	59	C	09/23/2022	04:04	-133.639	49.114	0	336.10	0	4.3950	0	33.8690	0	26.848	0	332.975	0	-1e10	8	-1e10	8	-1E+10	1	-1E+10	1	-1E+10	1	-1E+10	1	-1E+10	1	-1E+10	1
4902554	59	C	09/23/2022	04:04	-133.639	49.114	0	337.00	0	4.3930	0	33.8700	0	26.849	0	333.866	0	-1e10	8	-1e10	8	-1E+10	1	-1E+10	1	-1E+10	1	-1E+10	1	-1E+10	1	-1E+10	1
4902554	59	C	09/23/2022	04:04	-133.639	49.114	0	338.00	0	4.3870	0	33.8720	0	26.851	0	334.856	0	-1e10	8	-1e10	8	-1E+10	1	-1E+10	1	-1E+10	1	-1E+10	1	-1E+10	1	-1E+10	1
4902554	59	C	09/23/2022	04:04	-133.639	49.114	0	338.90	0	4.3840	0	33.8730	0	26.852	0	335.747	0	-1e10	8	-1e10	8	-1E+10	1	-1E+10	1	-1E+10	1	-1E+10	1	-1E+10	1	-1E+10	1
4902554	59	C	09/23/2022	04:04	-133.639	49.114	0	339.90	0	4.3800	0	33.8750	0	26.854	0	336.736	0	-1e10	8	-1e10	8	-1E+10	1	-1E+10	1	-1E+10	1	-1E+10	1	-1E+10	1	-1E+10	1
4902554	59	C	09/23/2022	04:04	-133.639	49.114	0	340.90	0	4.3780	0	33.8770	0	26.856	0	337.726	0	-1e10	8	-1e10	8	-1E+10	1	-1E+10	1	-1E+10	1	-1E+10	1	-1E+10	1	-1E+10	1
4902554	59	C	09/23/2022	04:04	-133.639	49.114	0	341.80	0	4.3770	0	33.8770	0	26.856	0	338.617	0	-1e10	8	-1e10	8	-1E+10	1	-1E+10	1	-1E+10	1	-1E+10	1	-1E+10	1	-1E+10	1
4902554	59	C	09/23/2022	04:04	-133.639	49.114	0	342.80	0	4.3770	0	33.8780	0	26.857	0	339.607	0	-1e10	8	-1e10	8	-1E+10	1	-1E+10	1	-1E+10	1	-1E+10	1	-1E+10	1	-1E+10	1
4902554	59	C	09/23/2022	04:04	-133.639	49.114	0	343.80	0	4.3750	0	33.8790	0	26.858	0	340.597	0	-1e10	8	-1e10	8	-1E+10	1	-1E+10	1	-1E+10	1	-1E+10	1	-1E+10	1	-1E+10	1
4902554	59	C	09/23/2022	04:04	-133.639	49.114	0	344.70	0	4.3700	0	33.8800	0	26.859	0	341.488	0	-1e10	8	-1e10	8	-1E+10	1	-1E+10	1	-1E+10	1	-1E+10	1	-1E+10	1	-1E+10	1
4902554	59	C	09/23/2022	04:04	-133.639	49.114	0	345.70	0	4.3660	0	33.8800	0	26.860	0	342.478	0	-1e10	8	-1e10	8	-1E+10	1	-1E+10	1	-1E+10	1	-1E+10	1	-1E+10	1	-1E+10	1
4902554	59	C	09/23/2022	04:04	-133.639	49.114	0	346.70	0	4.3670	0	33.8800	0	26.860	0	343.467	0	-1e10	8	-1e10	8	-1E+10	1	-1E+10	1	-1E+10	1	-1E+10	1	-1E+10	1	-1E+10	1
4902554	59	C	09/23/2022	04:04	-133.639	49.114	0	347.70	0	4.3650	0	33.8810	0	26.861	0	344.457	0	-1e10	8	-1e10	8	-1E+10	1	-1E+10	1	-1E+10	1	-1E+10	1	-1E+10	1	-1E+10	1
4902554	59	C	09/23/2022	04:04	-133.639	49.114	0	348.70	0	4.3650	0	33.8830	0	26.862	0	345.447	0	-1e10	8	-1e10	8	-1E+10	1	-1E+10	1	-1E+10	1	-1E+10	1	-1E+10	1	-1E+10	1
4902554	59	C	09/23/2022	04:04	-133.639	49.114	0	349.70	0	4.3650	0	33.8830	0	26.862	0	346.437	0	-1e10	8	-1e10	8	-1E+10	1	-1E+10	1	-1E+10	1	-1E+10	1	-1E+10	1	-1E+10	1
4902554	59	C	09/23/2022	04:04	-133.639	49.114	0	352.70	0	4.3590	0	33.8870	0	26.866	0	349.406	0	-1e10	8	-1e10	8	-1E+10	1	-1E+10	1	-1E+10	1	-1E+10	1	-1E+10	1	-1E+10	1
4902554	59	C	09/23/2022	04:04	-133.639	49.114	0	358.10	0	4.3400	0	33.8940	0	26.874	0	354.751	0	-1e10	8	-1e10	8	-1E+10	1	-1E+10	1	-1E+10	1	-1E+10	1	-1E+10	1	-1E+10	1
4902554	59	C	09/23/2022	04:04	-133.639	49.114	0	363.00	0	4.3310	0	33.8970	0	26.877	0	359.601	0	-1e10	8	-1e10	8	-1E+10	1	-1E+10	1	-1E+10	1	-1E+10	1	-1E+10	1	-1E+10	1
4902554	59	C	09/23/2022	04:04	-133.639	49.114	0	367.70	0	4.3250	0	33.9000	0	26.880	0	364.253	0	-1e10	8	-1e10	8	-1E+10	1	-1E+10	1	-1E+10	1	-1E+10	1	-1E+10	1	-1E+10	1
4902554	59	C	09/23/2022	04:04	-133.639	49.114	0	372.90	0	4.3110	0	33.9080	0	26.888	0	369.400	0	-1e10	8	-1e10	8	-1E+10	1	-1E+10	1	-1E+10	1	-1E+10	1	-1E+10	1	-1E+10	1
4902554	59	C	09/23/2022	04:04	-133.639	49.114	0	378.20	0	4.2990	0	33.9180	0	26.897	0	374.645	0	-1e10	8	-1e10	8	-1E+10	1	-1E+10	1	-1E+10	1	-1E+10	1	-1E+10	1	-1E+10	1
4902554	59	C	09/23/2022	04:04	-133.639	49.114	0	383.10	0	4.2860	0	33.9290	0	26.908	0	379.495	0	-1e10	8	-1e10	8	-1E+10	1	-1E+10	1	-1E+10	1	-1E+10	1	-1E+10	1	-1E+10	1
4902554	59	C	09/23/2022	04:04	-133.639	49.114	0	388.10	0	4.2810	0	33.9330	0	26.911	0	384.443	0	-1e10	8	-1e10	8	-1E+10	1	-1E+10	1	-1E+10	1	-1E+10	1	-1E+10	1	-1E+10	1
4902554	59	C	09/23/2022	04:04	-133.639	49.114	0	393.10	0	4.2740	0	33.9400	0	26.918	0	389.391	0	-1e10	8	-1e10	8	-1E+10	1	-1E+10	1	-1E+10	1	-1E+10	1	-1E+10	1	-1E+10	1
4902554	59	C	09/23/2022	04:04	-133.639	49.114	0	398.00	0	4.2710	0	33.9440	0	26.921	0	394.240	0	-1e10	8	-1e10	8	-1E+10	1	-1E+10	1	-1E+10	1	-1E+10	1	-1E+10	1	-1E+10	1
4902554	59	C	09/23/2022	04:04	-133.639	49.114	0	403.10	0	4.2630	0	33.9540	0	26.930	0	399.287	0	-1e10	8	-1e10	8	-1E+10	1	-1E+10	1	-1E+10	1	-1E+10	1	-1E+10	1	-1E+10	1
4902554	59	C	09/23/2022	04:04	-133.639	49.114	0	408.20	0	4.2580	0	33.9630	0	26.938	0	404.334	0	-1e10	8	-1e10	8	-1E+10	1	-1E+10	1	-1E+10	1	-1E+10	1	-1E+10	1	-1E+10	1
4902554	59	C	09/23/2022	04:04	-133.639	49.114	0	412.80	0	4.2540	0	33.9730	0	26.946	0	408.886	0	-1e10	8	-1e10	8	-1E+10	1	-1E+10	1	-1E+10	1	-1E+10	1	-1E+10	1	-1E+10	1
4902554	59	C	09/23/2022	04:04	-133.639	49.114	0	417.60	0	4.2500	0	33.9780	0	26.951	0	413.636	0	-1e10	8	-1e10	8	-1E+10	1	-1E+10	1	-1E+10	1	-1E+10	1	-1E+10	1	-1E+10	1
4902554	59	C	09/23/2022	04:04	-133.639	49.114	0	422.70	0	4.2450	0	33.9840	0	26.956	0	418.682	0	-1e10	8	-1e10	8	-1E+10	1	-1E+10	1	-1E+10	1	-1E+10	1	-1E+10	1	-1E+10	1
4902554	59	C	09/23/2022	04:04	-133.639	49.114	0	427.80	0	4.2430	0	33.9860	0	26.958	0	423.728	0	-1e10	8	-1e10	8	-1E+10	1	-1E+10	1	-1E+10	1	-1E+10	1	-1E+10	1	-1E+10	1
4902554	59	C	09/23/2022	04:04	-133.639	49.114	0	433.00	0	4.2400	0	33.9900	0	26.961	0	428.874	0	-1e10	8	-1e10	8	-1E+10	1	-1E+10	1	-1E+10	1	-1E+10	1	-1E+10	1	-1E+10	1
4902554	59	C	09/23/2022	04:04	-133.639	49.114	0	437.90	0	4.2350	0	33.9950	0	26.966	0	433.722	0	-1e10	8	-1e10	8	-1E+10	1	-1E+10	1	-1E+10	1	-1E+10	1	-1E+10	1	-1E+10	1
4902554	59	C	09/23/2022	04:04	-133.639	49.114	0	442.80	0	4.2290	0	34.0030	0	26.973	0	438.570	0	-1e10	8	-1e10	8	-1E+10	1	-1E+10	1	-1E+10	1	-1E+10	1	-1E+10	1	-1E+10	1
4902554	59	C	09/23/2022	04:04	-133.639	49.114	0	448.00	0	4.2210	0	34.0100	0	26.979	0	443.715	0	-1e10	8	-1e10	8	-1E+10	1	-1E+10	1	-1E+10	1	-1E+10	1	-1E+10	1	-1E+10	1
4902554	59	C	09/23/2022	04:04	-133.639	49.114	0	453.00	0	4.2070	0	34.0200	0	26.989	0	448.661	0	-1e10	8	-1e10	8	-1E+10	1	-1E+10	1	-1E+10	1	-1E+10	1	-1E+10	1	-1E+10	1
4902554	59	C	09/23/2022	04:04	-133.639	49.114	0	458.00	0	4.1920	0	34.0300	0	26.998	0	453.608	0	-1e10	8	-1e10	8	-1E+10	1	-1E+10	1	-1E+10	1	-1E+10	1	-1E+10	1	-1E+10	1
4902554	59	C	09/23/2022	04:04	-133.639	49.114	0	463.10	0	4.1880	0	34.0320	0	27.000	0	458.654	0	-1e10	8	-1e10	8	-1E+10	1	-1E+10	1	-1E+10	1	-1E+10	1	-1E+10	1	-1E+10	1
4902554	59	C	09/23/2022	04:04	-133.639	49.114	0	467.70	0	4.1810	0	34.0350	0	27.003	0	463.204	0	-1e10	8	-1e10	8	-1E+10	1	-1E+10	1	-1E+10	1	-1E+10	1	-1E+10	1	-1E+10	1
4902554	59	C	09/23/2022	04:04	-133.639	49.114	0	472.80	0	4.1670	0	34.0420	0	27.010	0	468.249	0	-1e10	8	-1e10	8	-1E+10	1	-1E+10	1	-1E+10	1	-1E+10	1	-1E+10	1	-1E+10	1
4902554	59	C	09/23/2022	04:04	-133.639	49.114	0	477.90	0	4.1550	0	34.0500	0	27.018	0	473.295	0	-1e10	8	-1e10	8	-1E+10	1	-1E+10	1	-1E+10	1	-1E+10	1	-1E+10	1	-1E+10	1
4902554	59	C	09/23/2022	04:04	-133.639	49.114	0	483.00	0	4.1450	0	34.0550	0	27.023	0	478.340	0	-1e10	8	-1e10	8	-1E+10	1	-1E+10	1	-1E+10	1	-1E+10	1	-1E+10	1	-1E+10	1
4902554	59	C	09/23/2022	04:04	-133.639	49.114	0	488.20	0	4.1370	0	34.0590	0	27.027	0	483.483	0	-1e10	8	-1e10	8	-1E+10	1	-1E+10	1	-1E+10	1	-1E+10	1	-1E+10	1	-1E+10	1
4902554	59	C	09/23/2022	04:04	-133.639	49.114	0	493.00	0	4.1360	0	34.0620	0	27.030	0	488.231	0	-1e10	8	-1e10	8	-1E+10	1	-1E+10	1	-1E+10	1	-1E+10	1	-1E+10	1	-1E+10	1
4902554	59	C	09/23/2022	04:04	-133.639	49.114	0	497.90	0	4.1340	0	34.0660	0	27.033	0	493.078	0	-1e10	8	-1e10	8	-1E+10	1	-1E+10	1	-1E+10	1	-1E+10	1	-1E+10	1	-1E+10	1
4902554	59	C	09/23/2022	04:04	-133.639	49.114	0	502.70	0	4.1280	0	34.0710	0	27.038	0	497.826	0	-1e10	8	-1e10	8	-1E+10	1	-1E+10	1	-1E+10	1	-1E+10	1	-1E+10	1	-1E+10	1
4902554	59	C	09/23/2022	04:04	-133.639	49.114	0	507.70	0	4.1180	0	34.0780	0	27.044	0	502.771	0	-1e10	8	-1e10	8	-1E+10	1	-1E+10	1	-1E+10	1	-1E+10	1	-1E+10	1	-1E+10	1
4902554	59	C	09/23/2022	04:04	-133.639	49.114	0	512.60	0	4.1160	0	34.0800	0	27.046	0	507.618	0	-1e10	8	-1e10	8	-1E+10	1	-1E+10	1	-1E+10	1	-1E+10	1	-1E+10	1	-1E+10	1
4902554	59	C	09/23/2022	04:04	-133.639	49.114	0	517.50	0	4.1020	0	34.0850	0	27.052	0	512.464	0	-1e10	8	-1e10	8	-1E+10	1	-1E+10	1	-1E+10	1	-1E+10	1	-1E+10	1	-1E+10	1
4902554	59	C	09/23/2022	04:04	-133.639	49.114	0	522.90	0	4.0920	0	34.0880	0	27.055	0	517.805	0	-1e10	8	-1e10	8	-1E+10	1	-1E+10	1	-1E+10	1	-1E+10	1	-1E+10	1	-1E+10	1
4902554	59	C	09/23/2022	04:04	-133.639	49.114	0	528.40	0	4.0830	0	34.0920	0	27.059	0	523.244	0	-1e10	8	-1e10	8	-1E+10	1	-1E+10	1	-1E+10	1	-1E+10	1	-1E+10	1	-1E+10	1
4902554	59	C	09/23/2022	04:04	-133.639	49.114	0	533.40	0	4.0790	0	34.0930	0	27.061	0	528.189	0	-1e10	8	-1e10	8	-1E+10	1	-1E+10	1	-1E+10	1	-1E+10	1	-1E+10	1	-1E+10	1
4902554	59	C	09/23/2022	04:04	-133.639	49.114	0	538.40	0	4.0670	0	34.0990	0	27.067	0	533.134	0	-1e10	8	-1e10	8	-1E+10	1	-1E+10	1	-1E+10	1	-1E+10	1	-1E+10	1	-1E+10	1
4902554	59	C	09/23/2022	04:04	-133.639	49.114	0	542.90	0	4.0500	0	34.1080	0	27.076	0	537.584	0	-1e10	8	-1e10	8	-1E+10	1	-1E+10	1	-1E+10	1	-1E+10	1	-1E+10	1	-1E+10	1
4902554	59	C	09/23/2022	04:04	-133.639	49.114	0	547.50	0	4.0460	0	34.1140	0	27.081	0	542.133	0	-1e10	8	-1e10	8	-1E+10	1	-1E+10	1	-1E+10	1	-1E+10	1	-1E+10	1	-1E+10	1
4902554	59	C	09/23/2022	04:04	-133.639	49.114	0	552.60	0	4.0200	0	34.1210	0	27.089	0	547.176	0	-1e10	8	-1e10	8	-1E+10	1	-1E+10	1	-1E+10	1	-1E+10	1	-1E+10	1	-1E+10	1
4902554	59	C	09/23/2022	04:04	-133.639	49.114	0	557.70	0	4.0110	0	34.1240	0	27.092	0	552.220	0	-1e10	8	-1e10	8	-1E+10	1	-1E+10	1	-1E+10	1	-1E+10	1	-1E+10	1	-1E+10	1
4902554	59	C	09/23/2022	04:04	-133.639	49.114	0	562.80	0	3.9930	0	34.1310	0	27.100	0	557.263	0	-1e10	8	-1e10	8	-1E+10	1	-1E+10	1	-1E+10	1	-1E+10	1	-1E+10	1	-1E+10	1
4902554	59	C	09/23/2022	04:04	-133.639	49.114	0	567.80	0	3.9850	0	34.1410	0	27.109	0	562.207	0	-1e10	8	-1e10	8	-1E+10	1	-1E+10	1	-1E+10	1	-1E+10	1	-1E+10	1	-1E+10	1
4902554	59	C	09/23/2022	04:04	-133.639	49.114	0	572.90	0	3.9790	0	34.1450	0	27.112	0	567.250	0	-1e10	8	-1e10	8	-1E+10	1	-1E+10	1	-1E+10	1	-1E+10	1	-1E+10	1	-1E+10	1
4902554	59	C	09/23/2022	04:04	-133.639	49.114	0	578.00	0	3.9680	0	34.1480	0	27.116	0	572.292	0	-1e10	8	-1e10	8	-1E+10	1	-1E+10	1	-1E+10	1	-1E+10	1	-1E+10	1	-1E+10	1
4902554	59	C	09/23/2022	04:04	-133.639	49.114	0	583.00	0	3.9570	0	34.1500	0	27.119	0	577.236	0	-1e10	8	-1e10	8	-1E+10	1	-1E+10	1	-1E+10	1	-1E+10	1	-1E+10	1	-1E+10	1
4902554	59	C	09/23/2022	04:04	-133.639	49.114	0	588.00	0	3.9440	0	34.1530	0	27.122	0	582.180	0	-1e10	8	-1e10	8	-1E+10	1	-1E+10	1	-1E+10	1	-1E+10	1	-1E+10	1	-1E+10	1
4902554	59	C	09/23/2022	04:04	-133.639	49.114	0	592.80	0	3.9250	0	34.1590	0	27.129	0	586.925	0	-1e10	8	-1e10	8	-1E+10	1	-1E+10	1	-1E+10	1	-1E+10	1	-1E+10	1	-1E+10	1
4902554	59	C	09/23/2022	04:04	-133.639	49.114	0	597.60	0	3.9180	0	34.1620	0	27.132	0	591.671	0	-1e10	8	-1e10	8	-1E+10	1	-1E+10	1	-1E+10	1	-1E+10	1	-1E+10	1	-1E+10	1
4902554	59	C	09/23/2022	04:04	-133.639	49.114	0	603.00	0	3.9020	0	34.1700	0	27.140	0	597.010	0	-1e10	8	-1e10	8	-1E+10	1	-1E+10	1	-1E+10	1	-1E+10	1	-1E+10	1	-1E+10	1
4902554	59	C	09/23/2022	04:04	-133.639	49.114	0	607.90	0	3.8950	0	34.1720	0	27.143	0	601.854	0	-1e10	8	-1e10	8	-1E+10	1	-1E+10	1	-1E+10	1	-1E+10	1	-1E+10	1	-1E+10	1
4902554	59	C	09/23/2022	04:04	-133.639	49.114	0	612.90	0	3.8860	0	34.1750	0	27.146	0	606.797	0	-1e10	8	-1e10	8	-1E+10	1	-1E+10	1	-1E+10	1	-1E+10	1	-1E+10	1	-1E+10	1
4902554	59	C	09/23/2022	04:04	-133.639	49.114	0	618.00	0	3.8820	0	34.1780	0	27.149	0	611.838	0	-1e10	8	-1e10	8	-1E+10	1	-1E+10	1	-1E+10	1	-1E+10	1	-1E+10	1	-1E+10	1
4902554	59	C	09/23/2022	04:04	-133.639	49.114	0	622.70	0	3.8690	0	34.1830	0	27.154	0	616.485	0	-1e10	8	-1e10	8	-1E+10	1	-1E+10	1	-1E+10	1	-1E+10	1	-1E+10	1	-1E+10	1
4902554	59	C	09/23/2022	04:04	-133.639	49.114	0	627.90	0	3.8540	0	34.1870	0	27.159	0	621.625	0	-1e10	8	-1e10	8	-1E+10	1	-1E+10	1	-1E+10	1	-1E+10	1	-1E+10	1	-1E+10	1
4902554	59	C	09/23/2022	04:04	-133.639	49.114	0	633.30	0	3.8470	0	34.1890	0	27.161	0	626.963	0	-1e10	8	-1e10	8	-1E+10	1	-1E+10	1	-1E+10	1	-1E+10	1	-1E+10	1	-1E+10	1
4902554	59	C	09/23/2022	04:04	-133.639	49.114	0	638.20	0	3.8380	0	34.1920	0	27.165	0	631.806	0	-1e10	8	-1e10	8	-1E+10	1	-1E+10	1	-1E+10	1	-1E+10	1	-1E+10	1	-1E+10	1
4902554	59	C	09/23/2022	04:04	-133.639	49.114	0	643.20	0	3.8340	0	34.1930	0	27.166	0	636.749	0	-1e10	8	-1e10	8	-1E+10	1	-1E+10	1	-1E+10	1	-1E+10	1	-1E+10	1	-1E+10	1
4902554	59	C	09/23/2022	04:04	-133.639	49.114	0	648.10	0	3.8180	0	34.1960	0	27.170	0	641.592	0	-1e10	8	-1e10	8	-1E+10	1	-1E+10	1	-1E+10	1	-1E+10	1	-1E+10	1	-1E+10	1
4902554	59	C	09/23/2022	04:04	-133.639	49.114	0	653.10	0	3.8080	0	34.1960	0	27.171	0	646.534	0	-1e10	8	-1e10	8	-1E+10	1	-1E+10	1	-1E+10	1	-1E+10	1	-1E+10	1	-1E+10	1
4902554	59	C	09/23/2022	04:04	-133.639	49.114	0	658.10	0	3.7860	0	34.2020	0	27.178	0	651.476	0	-1e10	8	-1e10	8	-1E+10	1	-1E+10	1	-1E+10	1	-1E+10	1	-1E+10	1	-1E+10	1
4902554	59	C	09/23/2022	04:04	-133.639	49.114	0	663.20	0	3.7740	0	34.2050	0	27.181	0	656.517	0	-1e10	8	-1e10	8	-1E+10	1	-1E+10	1	-1E+10	1	-1E+10	1	-1E+10	1	-1E+10	1
4902554	59	C	09/23/2022	04:04	-133.639	49.114	0	668.20	0	3.7700	0	34.2060	0	27.183	0	661.458	0	-1e10	8	-1e10	8	-1E+10	1	-1E+10	1	-1E+10	1	-1E+10	1	-1E+10	1	-1E+10	1
4902554	59	C	09/23/2022	04:04	-133.639	49.114	0	673.10	0	3.7550	0	34.2100	0	27.187	0	666.301	0	-1e10	8	-1e10	8	-1E+10	1	-1E+10	1	-1E+10	1	-1E+10	1	-1E+10	1	-1E+10	1
4902554	59	C	09/23/2022	04:04	-133.639	49.114	0	678.00	0	3.7360	0	34.2150	0	27.193	0	671.144	0	-1e10	8	-1e10	8	-1E+10	1	-1E+10	1	-1E+10	1	-1E+10	1	-1E+10	1	-1E+10	1
4902554	59	C	09/23/2022	04:04	-133.639	49.114	0	682.80	0	3.7190	0	34.2190	0	27.198	0	675.887	0	-1e10	8	-1e10	8	-1E+10	1	-1E+10	1	-1E+10	1	-1E+10	1	-1E+10	1	-1E+10	1
4902554	59	C	09/23/2022	04:04	-133.639	49.114	0	687.70	0	3.7050	0	34.2230	0	27.203	0	680.730	0	-1e10	8	-1e10	8	-1E+10	1	-1E+10	1	-1E+10	1	-1E+10	1	-1E+10	1	-1E+10	1
4902554	59	C	09/23/2022	04:04	-133.639	49.114	0	692.90	0	3.6840	0	34.2290	0	27.210	0	685.868	0	-1e10	8	-1e10	8	-1E+10	1	-1E+10	1	-1E+10	1	-1E+10	1	-1E+10	1	-1E+10	1
4902554	59	C	09/23/2022	04:04	-133.639	49.114	0	698.30	0	3.6680	0	34.2340	0	27.215	0	691.205	0	-1e10	8	-1e10	8	-1E+10	1	-1E+10	1	-1E+10	1	-1E+10	1	-1E+10	1	-1E+10	1
4902554	59	C	09/23/2022	04:04	-133.639	49.114	0	703.30	0	3.6520	0	34.2380	0	27.220	0	696.146	0	-1e10	8	-1e10	8	-1E+10	1	-1E+10	1	-1E+10	1	-1E+10	1	-1E+10	1	-1E+10	1
4902554	59	C	09/23/2022	04:04	-133.639	49.114	0	708.20	0	3.6270	0	34.2450	0	27.228	0	700.988	0	-1e10	8	-1e10	8	-1E+10	1	-1E+10	1	-1E+10	1	-1E+10	1	-1E+10	1	-1E+10	1
4902554	59	C	09/23/2022	04:04	-133.639	49.114	0	713.20	0	3.6130	0	34.2480	0	27.232	0	705.928	0	-1e10	8	-1e10	8	-1E+10	1	-1E+10	1	-1E+10	1	-1E+10	1	-1E+10	1	-1E+10	1
4902554	59	C	09/23/2022	04:04	-133.639	49.114	0	717.80	0	3.6030	0	34.2510	0	27.235	0	710.473	0	-1e10	8	-1e10	8	-1E+10	1	-1E+10	1	-1E+10	1	-1E+10	1	-1E+10	1	-1E+10	1
4902554	59	C	09/23/2022	04:04	-133.639	49.114	0	723.00	0	3.5880	0	34.2540	0	27.239	0	715.611	0	-1e10	8	-1e10	8	-1E+10	1	-1E+10	1	-1E+10	1	-1E+10	1	-1E+10	1	-1E+10	1
4902554	59	C	09/23/2022	04:04	-133.639	49.114	0	728.20	0	3.5770	0	34.2570	0	27.243	0	720.749	0	-1e10	8	-1e10	8	-1E+10	1	-1E+10	1	-1E+10	1	-1E+10	1	-1E+10	1	-1E+10	1
4902554	59	C	09/23/2022	04:04	-133.639	49.114	0	733.00	0	3.5680	0	34.2590	0	27.245	0	725.492	0	-1e10	8	-1e10	8	-1E+10	1	-1E+10	1	-1E+10	1	-1E+10	1	-1E+10	1	-1E+10	1
4902554	59	C	09/23/2022	04:04	-133.639	49.114	0	737.90	0	3.5610	0	34.2600	0	27.247	0	730.333	0	-1e10	8	-1e10	8	-1E+10	1	-1E+10	1	-1E+10	1	-1E+10	1	-1E+10	1	-1E+10	1
4902554	59	C	09/23/2022	04:04	-133.639	49.114	0	742.80	0	3.5480	0	34.2640	0	27.251	0	735.174	0	-1e10	8	-1e10	8	-1E+10	1	-1E+10	1	-1E+10	1	-1E+10	1	-1E+10	1	-1E+10	1
4902554	59	C	09/23/2022	04:04	-133.639	49.114	0	747.80	0	3.5330	0	34.2670	0	27.255	0	740.114	0	-1e10	8	-1e10	8	-1E+10	1	-1E+10	1	-1E+10	1	-1E+10	1	-1E+10	1	-1E+10	1
4902554	59	C	09/23/2022	04:04	-133.639	49.114	0	752.80	0	3.5260	0	34.2680	0	27.256	0	745.054	0	-1e10	8	-1e10	8	-1E+10	1	-1E+10	1	-1E+10	1	-1E+10	1	-1E+10	1	-1E+10	1
4902554	59	C	09/23/2022	04:04	-133.639	49.114	0	757.90	0	3.5120	0	34.2700	0	27.259	0	750.092	0	-1e10	8	-1e10	8	-1E+10	1	-1E+10	1	-1E+10	1	-1E+10	1	-1E+10	1	-1E+10	1
4902554	59	C	09/23/2022	04:04	-133.639	49.114	0	763.10	0	3.5020	0	34.2720	0	27.262	0	755.229	0	-1e10	8	-1e10	8	-1E+10	1	-1E+10	1	-1E+10	1	-1E+10	1	-1E+10	1	-1E+10	1
4902554	59	C	09/23/2022	04:04	-133.639	49.114	0	768.10	0	3.4940	0	34.2730	0	27.264	0	760.168	0	-1e10	8	-1e10	8	-1E+10	1	-1E+10	1	-1E+10	1	-1E+10	1	-1E+10	1	-1E+10	1
4902554	59	C	09/23/2022	04:04	-133.639	49.114	0	772.90	0	3.4820	0	34.2750	0	27.266	0	764.910	0	-1e10	8	-1e10	8	-1E+10	1	-1E+10	1	-1E+10	1	-1E+10	1	-1E+10	1	-1E+10	1
4902554	59	C	09/23/2022	04:04	-133.639	49.114	0	777.90	0	3.4730	0	34.2780	0	27.270	0	769.849	0	-1e10	8	-1e10	8	-1E+10	1	-1E+10	1	-1E+10	1	-1E+10	1	-1E+10	1	-1E+10	1
4902554	59	C	09/23/2022	04:04	-133.639	49.114	0	782.80	0	3.4710	0	34.2790	0	27.271	0	774.689	0	-1e10	8	-1e10	8	-1E+10	1	-1E+10	1	-1E+10	1	-1E+10	1	-1E+10	1	-1E+10	1
4902554	59	C	09/23/2022	04:04	-133.639	49.114	0	787.80	0	3.4600	0	34.2800	0	27.273	0	779.628	0	-1e10	8	-1e10	8	-1E+10	1	-1E+10	1	-1E+10	1	-1E+10	1	-1E+10	1	-1E+10	1
4902554	59	C	09/23/2022	04:04	-133.639	49.114	0	792.70	0	3.4500	0	34.2810	0	27.274	0	784.468	0	-1e10	8	-1e10	8	-1E+10	1	-1E+10	1	-1E+10	1	-1E+10	1	-1E+10	1	-1E+10	1
4902554	59	C	09/23/2022	04:04	-133.639	49.114	0	798.10	0	3.4370	0	34.2830	0	27.277	0	789.802	0	-1e10	8	-1e10	8	-1E+10	1	-1E+10	1	-1E+10	1	-1E+10	1	-1E+10	1	-1E+10	1
4902554	59	C	09/23/2022	04:04	-133.639	49.114	0	803.00	0	3.4180	0	34.2870	0	27.282	0	794.642	0	-1e10	8	-1e10	8	-1E+10	1	-1E+10	1	-1E+10	1	-1E+10	1	-1E+10	1	-1E+10	1
4902554	59	C	09/23/2022	04:04	-133.639	49.114	0	807.80	0	3.4060	0	34.2890	0	27.285	0	799.382	0	-1e10	8	-1e10	8	-1E+10	1	-1E+10	1	-1E+10	1	-1E+10	1	-1E+10	1	-1E+10	1
4902554	59	C	09/23/2022	04:04	-133.639	49.114	0	812.80	0	3.3870	0	34.2920	0	27.289	0	804.321	0	-1e10	8	-1e10	8	-1E+10	1	-1E+10	1	-1E+10	1	-1E+10	1	-1E+10	1	-1E+10	1
4902554	59	C	09/23/2022	04:04	-133.639	49.114	0	817.70	0	3.3760	0	34.2940	0	27.292	0	809.160	0	-1e10	8	-1e10	8	-1E+10	1	-1E+10	1	-1E+10	1	-1E+10	1	-1E+10	1	-1E+10	1
4902554	59	C	09/23/2022	04:04	-133.639	49.114	0	822.80	0	3.3710	0	34.2950	0	27.293	0	814.197	0	-1e10	8	-1e10	8	-1E+10	1	-1E+10	1	-1E+10	1	-1E+10	1	-1E+10	1	-1E+10	1
4902554	59	C	09/23/2022	04:04	-133.639	49.114	0	827.80	0	3.3690	0	34.2960	0	27.294	0	819.135	0	-1e10	8	-1e10	8	-1E+10	1	-1E+10	1	-1E+10	1	-1E+10	1	-1E+10	1	-1E+10	1
4902554	59	C	09/23/2022	04:04	-133.639	49.114	0	832.80	0	3.3600	0	34.2970	0	27.296	0	824.073	0	-1e10	8	-1e10	8	-1E+10	1	-1E+10	1	-1E+10	1	-1E+10	1	-1E+10	1	-1E+10	1
4902554	59	C	09/23/2022	04:04	-133.639	49.114	0	837.70	0	3.3420	0	34.3010	0	27.301	0	828.912	0	-1e10	8	-1e10	8	-1E+10	1	-1E+10	1	-1E+10	1	-1E+10	1	-1E+10	1	-1E+10	1
4902554	59	C	09/23/2022	04:04	-133.639	49.114	0	842.70	0	3.3270	0	34.3050	0	27.305	0	833.849	0	-1e10	8	-1e10	8	-1E+10	1	-1E+10	1	-1E+10	1	-1E+10	1	-1E+10	1	-1E+10	1
4902554	59	C	09/23/2022	04:04	-133.639	49.114	0	847.80	0	3.3180	0	34.3070	0	27.308	0	838.885	0	-1e10	8	-1e10	8	-1E+10	1	-1E+10	1	-1E+10	1	-1E+10	1	-1E+10	1	-1E+10	1
4902554	59	C	09/23/2022	04:04	-133.639	49.114	0	853.10	0	3.3040	0	34.3100	0	27.312	0	844.119	0	-1e10	8	-1e10	8	-1E+10	1	-1E+10	1	-1E+10	1	-1E+10	1	-1E+10	1	-1E+10	1
4902554	59	C	09/23/2022	04:04	-133.639	49.114	0	857.90	0	3.2980	0	34.3120	0	27.314	0	848.859	0	-1e10	8	-1e10	8	-1E+10	1	-1E+10	1	-1E+10	1	-1E+10	1	-1E+10	1	-1E+10	1
4902554	59	C	09/23/2022	04:04	-133.639	49.114	0	862.90	0	3.2910	0	34.3130	0	27.315	0	853.796	0	-1e10	8	-1e10	8	-1E+10	1	-1E+10	1	-1E+10	1	-1E+10	1	-1E+10	1	-1E+10	1
4902554	59	C	09/23/2022	04:04	-133.639	49.114	0	867.90	0	3.2770	0	34.3160	0	27.319	0	858.733	0	-1e10	8	-1e10	8	-1E+10	1	-1E+10	1	-1E+10	1	-1E+10	1	-1E+10	1	-1E+10	1
4902554	59	C	09/23/2022	04:04	-133.639	49.114	0	873.10	0	3.2640	0	34.3180	0	27.322	0	863.867	0	-1e10	8	-1e10	8	-1E+10	1	-1E+10	1	-1E+10	1	-1E+10	1	-1E+10	1	-1E+10	1
4902554	59	C	09/23/2022	04:04	-133.639	49.114	0	877.90	0	3.2500	0	34.3220	0	27.326	0	868.606	0	-1e10	8	-1e10	8	-1E+10	1	-1E+10	1	-1E+10	1	-1E+10	1	-1E+10	1	-1E+10	1
4902554	59	C	09/23/2022	04:04	-133.639	49.114	0	882.60	0	3.2440	0	34.3220	0	27.327	0	873.247	0	-1e10	8	-1e10	8	-1E+10	1	-1E+10	1	-1E+10	1	-1E+10	1	-1E+10	1	-1E+10	1
4902554	59	C	09/23/2022	04:04	-133.639	49.114	0	887.90	0	3.2380	0	34.3230	0	27.328	0	878.480	0	-1e10	8	-1e10	8	-1E+10	1	-1E+10	1	-1E+10	1	-1E+10	1	-1E+10	1	-1E+10	1
4902554	59	C	09/23/2022	04:04	-133.639	49.114	0	893.10	0	3.2330	0	34.3240	0	27.330	0	883.613	0	-1e10	8	-1e10	8	-1E+10	1	-1E+10	1	-1E+10	1	-1E+10	1	-1E+10	1	-1E+10	1
4902554	59	C	09/23/2022	04:04	-133.639	49.114	0	898.30	0	3.2250	0	34.3260	0	27.332	0	888.747	0	-1e10	8	-1e10	8	-1E+10	1	-1E+10	1	-1E+10	1	-1E+10	1	-1E+10	1	-1E+10	1
4902554	59	C	09/23/2022	04:04	-133.639	49.114	0	903.00	0	3.2200	0	34.3270	0	27.333	0	893.387	0	-1e10	8	-1e10	8	-1E+10	1	-1E+10	1	-1E+10	1	-1E+10	1	-1E+10	1	-1E+10	1
4902554	59	C	09/23/2022	04:04	-133.639	49.114	0	907.70	0	3.2130	0	34.3280	0	27.335	0	898.027	0	-1e10	8	-1e10	8	-1E+10	1	-1E+10	1	-1E+10	1	-1E+10	1	-1E+10	1	-1E+10	1
4902554	59	C	09/23/2022	04:04	-133.639	49.114	0	912.90	0	3.2070	0	34.3290	0	27.336	0	903.160	0	-1e10	8	-1e10	8	-1E+10	1	-1E+10	1	-1E+10	1	-1E+10	1	-1E+10	1	-1E+10	1
4902554	59	C	09/23/2022	04:04	-133.639	49.114	0	918.10	0	3.2000	0	34.3300	0	27.338	0	908.294	0	-1e10	8	-1e10	8	-1E+10	1	-1E+10	1	-1E+10	1	-1E+10	1	-1E+10	1	-1E+10	1
4902554	59	C	09/23/2022	04:04	-133.639	49.114	0	922.90	0	3.1990	0	34.3310	0	27.339	0	913.032	0	-1e10	8	-1e10	8	-1E+10	1	-1E+10	1	-1E+10	1	-1E+10	1	-1E+10	1	-1E+10	1
4902554	59	C	09/23/2022	04:04	-133.639	49.114	0	927.60	0	3.1960	0	34.3320	0	27.340	0	917.671	0	-1e10	8	-1e10	8	-1E+10	1	-1E+10	1	-1E+10	1	-1E+10	1	-1E+10	1	-1E+10	1
4902554	59	C	09/23/2022	04:04	-133.639	49.114	0	932.90	0	3.1920	0	34.3330	0	27.341	0	922.903	0	-1e10	8	-1e10	8	-1E+10	1	-1E+10	1	-1E+10	1	-1E+10	1	-1E+10	1	-1E+10	1
4902554	59	C	09/23/2022	04:04	-133.639	49.114	0	938.10	0	3.1810	0	34.3360	0	27.344	0	928.036	0	-1e10	8	-1e10	8	-1E+10	1	-1E+10	1	-1E+10	1	-1E+10	1	-1E+10	1	-1E+10	1
4902554	59	C	09/23/2022	04:04	-133.639	49.114	0	942.90	0	3.1660	0	34.3390	0	27.348	0	932.774	0	-1e10	8	-1e10	8	-1E+10	1	-1E+10	1	-1E+10	1	-1E+10	1	-1E+10	1	-1E+10	1
4902554	59	C	09/23/2022	04:04	-133.639	49.114	0	947.50	0	3.1500	0	34.3420	0	27.352	0	937.314	0	-1e10	8	-1e10	8	-1E+10	1	-1E+10	1	-1E+10	1	-1E+10	1	-1E+10	1	-1E+10	1
4902554	59	C	09/23/2022	04:04	-133.639	49.114	0	952.70	0	3.1400	0	34.3450	0	27.355	0	942.446	0	-1e10	8	-1e10	8	-1E+10	1	-1E+10	1	-1E+10	1	-1E+10	1	-1E+10	1	-1E+10	1
4902554	59	C	09/23/2022	04:04	-133.639	49.114	0	957.80	0	3.1350	0	34.3460	0	27.357	0	947.480	0	-1e10	8	-1e10	8	-1E+10	1	-1E+10	1	-1E+10	1	-1E+10	1	-1E+10	1	-1E+10	1
4902554	59	C	09/23/2022	04:04	-133.639	49.114	0	962.90	0	3.1260	0	34.3480	0	27.359	0	952.513	0	-1e10	8	-1e10	8	-1E+10	1	-1E+10	1	-1E+10	1	-1E+10	1	-1E+10	1	-1E+10	1
4902554	59	C	09/23/2022	04:04	-133.639	49.114	0	968.10	0	3.1130	0	34.3500	0	27.362	0	957.645	0	-1e10	8	-1e10	8	-1E+10	1	-1E+10	1	-1E+10	1	-1E+10	1	-1E+10	1	-1E+10	1
4902554	59	C	09/23/2022	04:04	-133.639	49.114	0	972.80	0	3.0960	0	34.3550	0	27.368	0	962.284	0	-1e10	8	-1e10	8	-1E+10	1	-1E+10	1	-1E+10	1	-1E+10	1	-1E+10	1	-1E+10	1
4902554	59	C	09/23/2022	04:04	-133.639	49.114	0	977.50	0	3.0920	0	34.3550	0	27.368	0	966.922	0	-1e10	8	-1e10	8	-1E+10	1	-1E+10	1	-1E+10	1	-1E+10	1	-1E+10	1	-1E+10	1
4902554	59	C	09/23/2022	04:04	-133.639	49.114	0	983.00	0	3.0810	0	34.3570	0	27.371	0	972.350	0	-1e10	8	-1e10	8	-1E+10	1	-1E+10	1	-1E+10	1	-1E+10	1	-1E+10	1	-1E+10	1
4902554	59	C	09/23/2022	04:04	-133.639	49.114	0	988.10	0	3.0670	0	34.3600	0	27.374	0	977.383	0	-1e10	8	-1e10	8	-1E+10	1	-1E+10	1	-1E+10	1	-1E+10	1	-1E+10	1	-1E+10	1
4902554	59	C	09/23/2022	04:04	-133.639	49.114	0	992.90	0	3.0550	0	34.3630	0	27.378	0	982.119	0	-1e10	8	-1e10	8	-1E+10	1	-1E+10	1	-1E+10	1	-1E+10	1	-1E+10	1	-1E+10	1
4902554	59	C	09/23/2022	04:04	-133.639	49.114	0	997.90	0	3.0460	0	34.3650	0	27.380	0	987.053	0	-1e10	8	-1e10	8	-1E+10	1	-1E+10	1	-1E+10	1	-1E+10	1	-1E+10	1	-1E+10	1
4902554	59	C	09/23/2022	04:04	-133.639	49.114	0	1005.40	0	3.0300	0	34.3690	0	27.385	0	994.454	0	-1e10	8	-1e10	8	-1E+10	1	-1E+10	1	-1E+10	1	-1E+10	1	-1E+10	1	-1E+10	1
4902554	59	C	09/23/2022	04:04	-133.639	49.114	0	1015.30	0	3.0170	0	34.3720	0	27.389	0	1004.222	0	-1e10	8	-1e10	8	-1E+10	1	-1E+10	1	-1E+10	1	-1E+10	1	-1E+10	1	-1E+10	1
4902554	59	C	09/23/2022	04:04	-133.639	49.114	0	1025.10	0	3.0010	0	34.3760	0	27.393	0	1013.892	0	-1e10	8	-1e10	8	-1E+10	1	-1E+10	1	-1E+10	1	-1E+10	1	-1E+10	1	-1E+10	1
4902554	59	C	09/23/2022	04:04	-133.639	49.114	0	1035.30	0	2.9780	0	34.3800	0	27.399	0	1023.955	0	-1e10	8	-1e10	8	-1E+10	1	-1E+10	1	-1E+10	1	-1E+10	1	-1E+10	1	-1E+10	1
4902554	59	C	09/23/2022	04:04	-133.639	49.114	0	1045.60	0	2.9600	0	34.3850	0	27.404	0	1034.117	0	-1e10	8	-1e10	8	-1E+10	1	-1E+10	1	-1E+10	1	-1E+10	1	-1E+10	1	-1E+10	1
4902554	59	C	09/23/2022	04:04	-133.639	49.114	0	1055.50	0	2.9530	0	34.3860	0	27.406	0	1043.884	0	-1e10	8	-1e10	8	-1E+10	1	-1E+10	1	-1E+10	1	-1E+10	1	-1E+10	1	-1E+10	1
4902554	59	C	09/23/2022	04:04	-133.639	49.114	0	1065.10	0	2.9420	0	34.3880	0	27.408	0	1053.354	0	-1e10	8	-1e10	8	-1E+10	1	-1E+10	1	-1E+10	1	-1E+10	1	-1E+10	1	-1E+10	1
4902554	59	C	09/23/2022	04:04	-133.639	49.114	0	1075.50	0	2.9230	0	34.3920	0	27.413	0	1063.613	0	-1e10	8	-1e10	8	-1E+10	1	-1E+10	1	-1E+10	1	-1E+10	1	-1E+10	1	-1E+10	1
4902554	59	C	09/23/2022	04:04	-133.639	49.114	0	1085.80	0	2.9080	0	34.3950	0	27.417	0	1073.773	0	-1e10	8	-1e10	8	-1E+10	1	-1E+10	1	-1E+10	1	-1E+10	1	-1E+10	1	-1E+10	1
4902554	59	C	09/23/2022	04:04	-133.639	49.114	0	1095.50	0	2.8960	0	34.3970	0	27.420	0	1083.340	0	-1e10	8	-1e10	8	-1E+10	1	-1E+10	1	-1E+10	1	-1E+10	1	-1E+10	1	-1E+10	1
4902554	59	C	09/23/2022	04:04	-133.639	49.114	0	1105.40	0	2.8830	0	34.4000	0	27.423	0	1093.105	0	-1e10	8	-1e10	8	-1E+10	1	-1E+10	1	-1E+10	1	-1E+10	1	-1E+10	1	-1E+10	1
4902554	59	C	09/23/2022	04:04	-133.639	49.114	0	1115.30	0	2.8650	0	34.4030	0	27.427	0	1102.869	0	-1e10	8	-1e10	8	-1E+10	1	-1E+10	1	-1E+10	1	-1E+10	1	-1E+10	1	-1E+10	1
4902554	59	C	09/23/2022	04:04	-133.639	49.114	0	1125.10	0	2.8480	0	34.4060	0	27.431	0	1112.533	0	-1e10	8	-1e10	8	-1E+10	1	-1E+10	1	-1E+10	1	-1E+10	1	-1E+10	1	-1E+10	1
4902554	59	C	09/23/2022	04:04	-133.639	49.114	0	1135.30	0	2.8310	0	34.4090	0	27.435	0	1122.592	0	-1e10	8	-1e10	8	-1E+10	1	-1E+10	1	-1E+10	1	-1E+10	1	-1E+10	1	-1E+10	1
4902554	59	C	09/23/2022	04:04	-133.639	49.114	0	1145.10	0	2.8190	0	34.4120	0	27.439	0	1132.256	0	-1e10	8	-1e10	8	-1E+10	1	-1E+10	1	-1E+10	1	-1E+10	1	-1E+10	1	-1E+10	1
4902554	59	C	09/23/2022	04:04	-133.639	49.114	0	1155.10	0	2.8170	0	34.4130	0	27.440	0	1142.117	0	-1e10	8	-1e10	8	-1E+10	1	-1E+10	1	-1E+10	1	-1E+10	1	-1E+10	1	-1E+10	1
4902554	59	C	09/23/2022	04:04	-133.639	49.114	0	1165.20	0	2.8060	0	34.4150	0	27.443	0	1152.076	0	-1e10	8	-1e10	8	-1E+10	1	-1E+10	1	-1E+10	1	-1E+10	1	-1E+10	1	-1E+10	1
4902554	59	C	09/23/2022	04:04	-133.639	49.114	0	1175.40	0	2.8120	0	34.4180	0	27.444	0	1162.133	0	-1e10	8	-1e10	8	-1E+10	1	-1E+10	1	-1E+10	1	-1E+10	1	-1E+10	1	-1E+10	1
4902554	59	C	09/23/2022	04:04	-133.639	49.114	0	1185.70	0	2.8080	0	34.4200	0	27.446	0	1172.288	0	-1e10	8	-1e10	8	-1E+10	1	-1E+10	1	-1E+10	1	-1E+10	1	-1E+10	1	-1E+10	1
4902554	59	C	09/23/2022	04:04	-133.639	49.114	0	1195.50	0	2.7930	0	34.4230	0	27.450	0	1181.949	0	-1e10	8	-1e10	8	-1E+10	1	-1E+10	1	-1E+10	1	-1E+10	1	-1E+10	1	-1E+10	1
4902554	59	C	09/23/2022	04:04	-133.639	49.114	0	1205.30	0	2.7820	0	34.4250	0	27.453	0	1191.610	0	-1e10	8	-1e10	8	-1E+10	1	-1E+10	1	-1E+10	1	-1E+10	1	-1E+10	1	-1E+10	1
4902554	59	C	09/23/2022	04:04	-133.639	49.114	0	1215.70	0	2.7700	0	34.4280	0	27.456	0	1201.863	0	-1e10	8	-1e10	8	-1E+10	1	-1E+10	1	-1E+10	1	-1E+10	1	-1E+10	1	-1E+10	1
4902554	59	C	09/23/2022	04:04	-133.639	49.114	0	1225.70	0	2.7650	0	34.4290	0	27.458	0	1211.720	0	-1e10	8	-1e10	8	-1E+10	1	-1E+10	1	-1E+10	1	-1E+10	1	-1E+10	1	-1E+10	1
4902554	59	C	09/23/2022	04:04	-133.639	49.114	0	1235.70	0	2.7520	0	34.4310	0	27.460	0	1221.577	0	-1e10	8	-1e10	8	-1E+10	1	-1E+10	1	-1E+10	1	-1E+10	1	-1E+10	1	-1E+10	1
4902554	59	C	09/23/2022	04:04	-133.639	49.114	0	1245.70	0	2.7330	0	34.4330	0	27.464	0	1231.433	0	-1e10	8	-1e10	8	-1E+10	1	-1E+10	1	-1E+10	1	-1E+10	1	-1E+10	1	-1E+10	1
4902554	59	C	09/23/2022	04:04	-133.639	49.114	0	1255.80	0	2.7200	0	34.4360	0	27.467	0	1241.388	0	-1e10	8	-1e10	8	-1E+10	1	-1E+10	1	-1E+10	1	-1E+10	1	-1E+10	1	-1E+10	1
4902554	59	C	09/23/2022	04:04	-133.639	49.114	0	1265.50	0	2.6970	0	34.4400	0	27.473	0	1250.948	0	-1e10	8	-1e10	8	-1E+10	1	-1E+10	1	-1E+10	1	-1E+10	1	-1E+10	1	-1E+10	1
4902554	59	C	09/23/2022	04:04	-133.639	49.114	0	1275.40	0	2.6780	0	34.4420	0	27.476	0	1260.704	0	-1e10	8	-1e10	8	-1E+10	1	-1E+10	1	-1E+10	1	-1E+10	1	-1E+10	1	-1E+10	1
4902554	59	C	09/23/2022	04:04	-133.639	49.114	0	1285.20	0	2.6660	0	34.4430	0	27.478	0	1270.362	0	-1e10	8	-1e10	8	-1E+10	1	-1E+10	1	-1E+10	1	-1E+10	1	-1E+10	1	-1E+10	1
4902554	59	C	09/23/2022	04:04	-133.639	49.114	0	1295.10	0	2.6460	0	34.4470	0	27.483	0	1280.117	0	-1e10	8	-1e10	8	-1E+10	1	-1E+10	1	-1E+10	1	-1E+10	1	-1E+10	1	-1E+10	1
4902554	59	C	09/23/2022	04:04	-133.639	49.114	0	1305.50	0	2.6310	0	34.4500	0	27.486	0	1290.365	0	-1e10	8	-1e10	8	-1E+10	1	-1E+10	1	-1E+10	1	-1E+10	1	-1E+10	1	-1E+10	1
4902554	59	C	09/23/2022	04:04	-133.639	49.114	0	1315.40	0	2.6230	0	34.4520	0	27.489	0	1300.120	0	-1e10	8	-1e10	8	-1E+10	1	-1E+10	1	-1E+10	1	-1E+10	1	-1E+10	1	-1E+10	1
4902554	59	C	09/23/2022	04:04	-133.639	49.114	0	1325.20	0	2.6150	0	34.4530	0	27.490	0	1309.776	0	-1e10	8	-1e10	8	-1E+10	1	-1E+10	1	-1E+10	1	-1E+10	1	-1E+10	1	-1E+10	1
4902554	59	C	09/23/2022	04:04	-133.639	49.114	0	1335.60	0	2.6030	0	34.4560	0	27.494	0	1320.022	0	-1e10	8	-1e10	8	-1E+10	1	-1E+10	1	-1E+10	1	-1E+10	1	-1E+10	1	-1E+10	1
4902554	59	C	09/23/2022	04:04	-133.639	49.114	0	1345.40	0	2.5930	0	34.4580	0	27.496	0	1329.677	0	-1e10	8	-1e10	8	-1E+10	1	-1E+10	1	-1E+10	1	-1E+10	1	-1E+10	1	-1E+10	1
4902554	59	C	09/23/2022	04:04	-133.639	49.114	0	1355.40	0	2.5810	0	34.4600	0	27.499	0	1339.528	0	-1e10	8	-1e10	8	-1E+10	1	-1E+10	1	-1E+10	1	-1E+10	1	-1E+10	1	-1E+10	1
4902554	59	C	09/23/2022	04:04	-133.639	49.114	0	1365.40	0	2.5670	0	34.4620	0	27.502	0	1349.379	0	-1e10	8	-1e10	8	-1E+10	1	-1E+10	1	-1E+10	1	-1E+10	1	-1E+10	1	-1E+10	1
4902554	59	C	09/23/2022	04:04	-133.639	49.114	0	1375.20	0	2.5500	0	34.4650	0	27.506	0	1359.033	0	-1e10	8	-1e10	8	-1E+10	1	-1E+10	1	-1E+10	1	-1E+10	1	-1E+10	1	-1E+10	1
4902554	59	C	09/23/2022	04:04	-133.639	49.114	0	1385.30	0	2.5410	0	34.4670	0	27.508	0	1368.981	0	-1e10	8	-1e10	8	-1E+10	1	-1E+10	1	-1E+10	1	-1E+10	1	-1E+10	1	-1E+10	1
4902554	59	C	09/23/2022	04:04	-133.639	49.114	0	1395.40	0	2.5320	0	34.4690	0	27.511	0	1378.929	0	-1e10	8	-1e10	8	-1E+10	1	-1E+10	1	-1E+10	1	-1E+10	1	-1E+10	1	-1E+10	1
4902554	59	C	09/23/2022	04:04	-133.639	49.114	0	1405.60	0	2.5200	0	34.4700	0	27.512	0	1388.975	0	-1e10	8	-1e10	8	-1E+10	1	-1E+10	1	-1E+10	1	-1E+10	1	-1E+10	1	-1E+10	1
4902554	59	C	09/23/2022	04:04	-133.639	49.114	0	1415.40	0	2.4930	0	34.4750	0	27.519	0	1398.627	0	-1e10	8	-1e10	8	-1E+10	1	-1E+10	1	-1E+10	1	-1E+10	1	-1E+10	1	-1E+10	1
4902554	59	C	09/23/2022	04:04	-133.639	49.114	0	1425.30	0	2.4810	0	34.4770	0	27.521	0	1408.377	0	-1e10	8	-1e10	8	-1E+10	1	-1E+10	1	-1E+10	1	-1E+10	1	-1E+10	1	-1E+10	1
4902554	59	C	09/23/2022	04:04	-133.639	49.114	0	1435.30	0	2.4670	0	34.4800	0	27.525	0	1418.224	0	-1e10	8	-1e10	8	-1E+10	1	-1E+10	1	-1E+10	1	-1E+10	1	-1E+10	1	-1E+10	1
4902554	59	C	09/23/2022	04:04	-133.639	49.114	0	1445.30	0	2.4570	0	34.4820	0	27.528	0	1428.072	0	-1e10	8	-1e10	8	-1E+10	1	-1E+10	1	-1E+10	1	-1E+10	1	-1E+10	1	-1E+10	1
4902554	59	C	09/23/2022	04:04	-133.639	49.114	0	1455.20	0	2.4440	0	34.4850	0	27.531	0	1437.820	0	-1e10	8	-1e10	8	-1E+10	1	-1E+10	1	-1E+10	1	-1E+10	1	-1E+10	1	-1E+10	1
4902554	59	C	09/23/2022	04:04	-133.639	49.114	0	1465.70	0	2.4310	0	34.4870	0	27.534	0	1448.158	0	-1e10	8	-1e10	8	-1E+10	1	-1E+10	1	-1E+10	1	-1E+10	1	-1E+10	1	-1E+10	1
4902554	59	C	09/23/2022	04:04	-133.639	49.114	0	1475.60	0	2.4190	0	34.4890	0	27.536	0	1457.906	0	-1e10	8	-1e10	8	-1E+10	1	-1E+10	1	-1E+10	1	-1E+10	1	-1E+10	1	-1E+10	1
4902554	59	C	09/23/2022	04:04	-133.639	49.114	0	1485.70	0	2.4080	0	34.4910	0	27.539	0	1467.850	0	-1e10	8	-1e10	8	-1E+10	1	-1E+10	1	-1E+10	1	-1E+10	1	-1E+10	1	-1E+10	1
4902554	59	C	09/23/2022	04:04	-133.639	49.114	0	1495.40	0	2.3940	0	34.4940	0	27.543	0	1477.399	0	-1e10	8	-1e10	8	-1E+10	1	-1E+10	1	-1E+10	1	-1E+10	1	-1E+10	1	-1E+10	1
4902554	59	C	09/23/2022	04:04	-133.639	49.114	0	1505.10	0	2.3790	0	34.4970	0	27.546	0	1486.948	0	-1e10	8	-1e10	8	-1E+10	1	-1E+10	1	-1E+10	1	-1E+10	1	-1E+10	1	-1E+10	1
4902554	59	C	09/23/2022	04:04	-133.639	49.114	0	1515.20	0	2.3670	0	34.4990	0	27.549	0	1496.891	0	-1e10	8	-1e10	8	-1E+10	1	-1E+10	1	-1E+10	1	-1E+10	1	-1E+10	1	-1E+10	1
4902554	59	C	09/23/2022	04:04	-133.639	49.114	0	1525.20	0	2.3560	0	34.5020	0	27.552	0	1506.734	0	-1e10	8	-1e10	8	-1E+10	1	-1E+10	1	-1E+10	1	-1E+10	1	-1E+10	1	-1E+10	1
4902554	59	C	09/23/2022	04:04	-133.639	49.114	0	1535.40	0	2.3460	0	34.5040	0	27.555	0	1516.774	0	-1e10	8	-1e10	8	-1E+10	1	-1E+10	1	-1E+10	1	-1E+10	1	-1E+10	1	-1E+10	1
4902554	59	C	09/23/2022	04:04	-133.639	49.114	0	1545.50	0	2.3430	0	34.5050	0	27.556	0	1526.715	0	-1e10	8	-1e10	8	-1E+10	1	-1E+10	1	-1E+10	1	-1E+10	1	-1E+10	1	-1E+10	1
4902554	59	C	09/23/2022	04:04	-133.639	49.114	0	1555.10	0	2.3360	0	34.5070	0	27.558	0	1536.164	0	-1e10	8	-1e10	8	-1E+10	1	-1E+10	1	-1E+10	1	-1E+10	1	-1E+10	1	-1E+10	1
4902554	59	C	09/23/2022	04:04	-133.639	49.114	0	1565.30	0	2.3240	0	34.5090	0	27.561	0	1546.202	0	-1e10	8	-1e10	8	-1E+10	1	-1E+10	1	-1E+10	1	-1E+10	1	-1E+10	1	-1E+10	1
4902554	59	C	09/23/2022	04:04	-133.639	49.114	0	1575.60	0	2.3140	0	34.5110	0	27.563	0	1556.339	0	-1e10	8	-1e10	8	-1E+10	1	-1E+10	1	-1E+10	1	-1E+10	1	-1E+10	1	-1E+10	1
4902554	59	C	09/23/2022	04:04	-133.639	49.114	0	1585.50	0	2.3100	0	34.5120	0	27.564	0	1566.081	0	-1e10	8	-1e10	8	-1E+10	1	-1E+10	1	-1E+10	1	-1E+10	1	-1E+10	1	-1E+10	1
4902554	59	C	09/23/2022	04:04	-133.639	49.114	0	1595.50	0	2.3040	0	34.5130	0	27.566	0	1575.922	0	-1e10	8	-1e10	8	-1E+10	1	-1E+10	1	-1E+10	1	-1E+10	1	-1E+10	1	-1E+10	1
4902554	59	C	09/23/2022	04:04	-133.639	49.114	0	1605.40	0	2.2910	0	34.5160	0	27.569	0	1585.663	0	-1e10	8	-1e10	8	-1E+10	1	-1E+10	1	-1E+10	1	-1E+10	1	-1E+10	1	-1E+10	1
4902554	59	C	09/23/2022	04:04	-133.639	49.114	0	1615.30	0	2.2770	0	34.5180	0	27.572	0	1595.404	0	-1e10	8	-1e10	8	-1E+10	1	-1E+10	1	-1E+10	1	-1E+10	1	-1E+10	1	-1E+10	1
4902554	59	C	09/23/2022	04:04	-133.639	49.114	0	1625.30	0	2.2640	0	34.5200	0	27.575	0	1605.243	0	-1e10	8	-1e10	8	-1E+10	1	-1E+10	1	-1E+10	1	-1E+10	1	-1E+10	1	-1E+10	1
4902554	59	C	09/23/2022	04:04	-133.639	49.114	0	1635.30	0	2.2480	0	34.5230	0	27.579	0	1615.081	0	-1e10	8	-1e10	8	-1E+10	1	-1E+10	1	-1E+10	1	-1E+10	1	-1E+10	1	-1E+10	1
4902554	59	C	09/23/2022	04:04	-133.639	49.114	0	1645.30	0	2.2400	0	34.5250	0	27.581	0	1624.919	0	-1e10	8	-1e10	8	-1E+10	1	-1E+10	1	-1E+10	1	-1E+10	1	-1E+10	1	-1E+10	1
4902554	59	C	09/23/2022	04:04	-133.639	49.114	0	1655.20	0	2.2290	0	34.5270	0	27.583	0	1634.659	0	-1e10	8	-1e10	8	-1E+10	1	-1E+10	1	-1E+10	1	-1E+10	1	-1E+10	1	-1E+10	1
4902554	59	C	09/23/2022	04:04	-133.639	49.114	0	1665.20	0	2.2180	0	34.5290	0	27.586	0	1644.496	0	-1e10	8	-1e10	8	-1E+10	1	-1E+10	1	-1E+10	1	-1E+10	1	-1E+10	1	-1E+10	1
4902554	59	C	09/23/2022	04:04	-133.639	49.114	0	1675.30	0	2.2070	0	34.5310	0	27.588	0	1654.431	0	-1e10	8	-1e10	8	-1E+10	1	-1E+10	1	-1E+10	1	-1E+10	1	-1E+10	1	-1E+10	1
4902554	59	C	09/23/2022	04:04	-133.639	49.114	0	1685.70	0	2.1970	0	34.5330	0	27.591	0	1664.660	0	-1e10	8	-1e10	8	-1E+10	1	-1E+10	1	-1E+10	1	-1E+10	1	-1E+10	1	-1E+10	1
4902554	59	C	09/23/2022	04:04	-133.639	49.114	0	1695.60	0	2.1830	0	34.5370	0	27.595	0	1674.398	0	-1e10	8	-1e10	8	-1E+10	1	-1E+10	1	-1E+10	1	-1E+10	1	-1E+10	1	-1E+10	1
4902554	59	C	09/23/2022	04:04	-133.639	49.114	0	1705.80	0	2.1740	0	34.5380	0	27.597	0	1684.430	0	-1e10	8	-1e10	8	-1E+10	1	-1E+10	1	-1E+10	1	-1E+10	1	-1E+10	1	-1E+10	1
4902554	59	C	09/23/2022	04:04	-133.639	49.114	0	1715.50	0	2.1630	0	34.5410	0	27.600	0	1693.970	0	-1e10	8	-1e10	8	-1E+10	1	-1E+10	1	-1E+10	1	-1E+10	1	-1E+10	1	-1E+10	1
4902554	59	C	09/23/2022	04:04	-133.639	49.114	0	1725.30	0	2.1530	0	34.5430	0	27.603	0	1703.607	0	-1e10	8	-1e10	8	-1E+10	1	-1E+10	1	-1E+10	1	-1E+10	1	-1E+10	1	-1E+10	1
4902554	59	C	09/23/2022	04:04	-133.639	49.114	0	1735.20	0	2.1440	0	34.5450	0	27.605	0	1713.343	0	-1e10	8	-1e10	8	-1E+10	1	-1E+10	1	-1E+10	1	-1E+10	1	-1E+10	1	-1E+10	1
4902554	59	C	09/23/2022	04:04	-133.639	49.114	0	1745.20	0	2.1350	0	34.5470	0	27.607	0	1723.176	0	-1e10	8	-1e10	8	-1E+10	1	-1E+10	1	-1E+10	1	-1E+10	1	-1E+10	1	-1E+10	1
4902554	59	C	09/23/2022	04:04	-133.639	49.114	0	1755.50	0	2.1270	0	34.5490	0	27.610	0	1733.304	0	-1e10	8	-1e10	8	-1E+10	1	-1E+10	1	-1E+10	1	-1E+10	1	-1E+10	1	-1E+10	1
4902554	59	C	09/23/2022	04:04	-133.639	49.114	0	1765.70	0	2.1190	0	34.5500	0	27.611	0	1743.333	0	-1e10	8	-1e10	8	-1E+10	1	-1E+10	1	-1E+10	1	-1E+10	1	-1E+10	1	-1E+10	1
4902554	59	C	09/23/2022	04:04	-133.639	49.114	0	1775.60	0	2.1110	0	34.5520	0	27.613	0	1753.067	0	-1e10	8	-1e10	8	-1E+10	1	-1E+10	1	-1E+10	1	-1E+10	1	-1E+10	1	-1E+10	1
4902554	59	C	09/23/2022	04:04	-133.639	49.114	0	1785.50	0	2.1010	0	34.5540	0	27.616	0	1762.800	0	-1e10	8	-1e10	8	-1E+10	1	-1E+10	1	-1E+10	1	-1E+10	1	-1E+10	1	-1E+10	1
4902554	59	C	09/23/2022	04:04	-133.639	49.114	0	1795.70	0	2.0900	0	34.5560	0	27.618	0	1772.828	0	-1e10	8	-1e10	8	-1E+10	1	-1E+10	1	-1E+10	1	-1E+10	1	-1E+10	1	-1E+10	1
4902554	59	C	09/23/2022	04:04	-133.639	49.114	0	1805.30	0	2.0810	0	34.5580	0	27.621	0	1782.266	0	-1e10	8	-1e10	8	-1E+10	1	-1E+10	1	-1E+10	1	-1E+10	1	-1E+10	1	-1E+10	1
4902554	59	C	09/23/2022	04:04	-133.639	49.114	0	1815.20	0	2.0730	0	34.5590	0	27.622	0	1791.998	0	-1e10	8	-1e10	8	-1E+10	1	-1E+10	1	-1E+10	1	-1E+10	1	-1E+10	1	-1E+10	1
4902554	59	C	09/23/2022	04:04	-133.639	49.114	0	1825.40	0	2.0650	0	34.5610	0	27.625	0	1802.024	0	-1e10	8	-1e10	8	-1E+10	1	-1E+10	1	-1E+10	1	-1E+10	1	-1E+10	1	-1E+10	1
4902554	59	C	09/23/2022	04:04	-133.639	49.114	0	1835.30	0	2.0570	0	34.5620	0	27.626	0	1811.755	0	-1e10	8	-1e10	8	-1E+10	1	-1E+10	1	-1E+10	1	-1E+10	1	-1E+10	1	-1E+10	1
4902554	59	C	09/23/2022	04:04	-133.639	49.114	0	1845.40	0	2.0470	0	34.5640	0	27.628	0	1821.682	0	-1e10	8	-1e10	8	-1E+10	1	-1E+10	1	-1E+10	1	-1E+10	1	-1E+10	1	-1E+10	1
4902554	59	C	09/23/2022	04:04	-133.639	49.114	0	1855.30	0	2.0420	0	34.5650	0	27.630	0	1831.412	0	-1e10	8	-1e10	8	-1E+10	1	-1E+10	1	-1E+10	1	-1E+10	1	-1E+10	1	-1E+10	1
4902554	59	C	09/23/2022	04:04	-133.639	49.114	0	1865.00	0	2.0390	0	34.5660	0	27.631	0	1840.946	0	-1e10	8	-1e10	8	-1E+10	1	-1E+10	1	-1E+10	1	-1E+10	1	-1E+10	1	-1E+10	1
4902554	59	C	09/23/2022	04:04	-133.639	49.114	0	1875.20	0	2.0330	0	34.5670	0	27.632	0	1850.970	0	-1e10	8	-1e10	8	-1E+10	1	-1E+10	1	-1E+10	1	-1E+10	1	-1E+10	1	-1E+10	1
4902554	59	C	09/23/2022	04:04	-133.639	49.114	0	1885.20	0	2.0260	0	34.5690	0	27.634	0	1860.797	0	-1e10	8	-1e10	8	-1E+10	1	-1E+10	1	-1E+10	1	-1E+10	1	-1E+10	1	-1E+10	1
4902554	59	C	09/23/2022	04:04	-133.639	49.114	0	1895.10	0	2.0200	0	34.5700	0	27.636	0	1870.525	0	-1e10	8	-1e10	8	-1E+10	1	-1E+10	1	-1E+10	1	-1E+10	1	-1E+10	1	-1E+10	1
4902554	59	C	09/23/2022	04:04	-133.639	49.114	0	1905.40	0	2.0110	0	34.5720	0	27.638	0	1880.646	0	-1e10	8	-1e10	8	-1E+10	1	-1E+10	1	-1E+10	1	-1E+10	1	-1E+10	1	-1E+10	1
4902554	59	C	09/23/2022	04:04	-133.639	49.114	0	1915.40	0	2.0010	0	34.5740	0	27.640	0	1890.472	0	-1e10	8	-1e10	8	-1E+10	1	-1E+10	1	-1E+10	1	-1E+10	1	-1E+10	1	-1E+10	1
4902554	59	C	09/23/2022	04:04	-133.639	49.114	0	1925.10	0	1.9950	0	34.5750	0	27.642	0	1900.002	0	-1e10	8	-1e10	8	-1E+10	1	-1E+10	1	-1E+10	1	-1E+10	1	-1E+10	1	-1E+10	1
4902554	59	C	09/23/2022	04:04	-133.639	49.114	0	1935.30	0	1.9920	0	34.5760	0	27.643	0	1910.024	0	-1e10	8	-1e10	8	-1E+10	1	-1E+10	1	-1E+10	1	-1E+10	1	-1E+10	1	-1E+10	1
4902554	59	C	09/23/2022	04:04	-133.639	49.114	0	1945.60	0	1.9850	0	34.5770	0	27.644	0	1920.143	0	-1e10	8	-1e10	8	-1E+10	1	-1E+10	1	-1E+10	1	-1E+10	1	-1E+10	1	-1E+10	1
4902554	59	C	09/23/2022	04:04	-133.639	49.114	0	1955.60	0	1.9790	0	34.5780	0	27.646	0	1929.966	0	-1e10	8	-1e10	8	-1E+10	1	-1E+10	1	-1E+10	1	-1E+10	1	-1E+10	1	-1E+10	1
4902554	59	C	09/23/2022	04:04	-133.639	49.114	0	1965.60	0	1.9720	0	34.5800	0	27.648	0	1939.790	0	-1e10	8	-1e10	8	-1E+10	1	-1E+10	1	-1E+10	1	-1E+10	1	-1E+10	1	-1E+10	1
4902554	59	C	09/23/2022	04:04	-133.639	49.114	0	1975.40	0	1.9690	0	34.5810	0	27.649	0	1949.416	0	-1e10	8	-1e10	8	-1E+10	1	-1E+10	1	-1E+10	1	-1E+10	1	-1E+10	1	-1E+10	1
4902554	59	C	09/23/2022	04:04	-133.639	49.114	0	1985.30	0	1.9610	0	34.5820	0	27.650	0	1959.141	0	-1e10	8	-1e10	8	-1E+10	1	-1E+10	1	-1E+10	1	-1E+10	1	-1E+10	1	-1E+10	1
4902554	59	C	09/23/2022	04:04	-133.639	49.114	0	1995.60	0	1.9540	0	34.5840	0	27.653	0	1969.257	0	-1e10	8	-1e10	8	-1E+10	1	-1E+10	1	-1E+10	1	-1E+10	1	-1E+10	1	-1E+10	1
4902554	59	C	09/23/2022	04:04	-133.639	49.114	0	2005.60	0	1.9470	0	34.5850	0	27.654	0	1979.079	0	-1e10	8	-1e10	8	-1E+10	1	-1E+10	1	-1E+10	1	-1E+10	1	-1E+10	1	-1E+10	1
4902554	59	C	09/23/2022	04:04	-133.639	49.114	0	2015.30	0	1.9460	0	34.5860	0	27.655	0	1988.606	0	-1e10	8	-1e10	8	-1E+10	1	-1E+10	1	-1E+10	1	-1E+10	1	-1E+10	1	-1E+10	1
4902554	59	C	09/23/2022	04:04	-133.639	49.114	0	2025.70	0	1.9400	0	34.5860	0	27.655	0	1998.819	0	-1e10	8	-1e10	8	-1E+10	1	-1E+10	1	-1E+10	1	-1E+10	1	-1E+10	1	-1E+10	1
4902554	59	C	09/23/2022	04:04	-133.639	49.114	0																										
4902554	60	C	10/03/2022	09:03	-133.535	48.922	0	0.20	0	16.6400	0	32.1230	0	23.392	0	0.198	0	-1e10	8	-1e10	8	-1E+10	1	-1E+10	1	-1E+10	1	-1E+10	1	-1E+10	1	-1E+10	1
4902554	60	C	10/03/2022	09:03	-133.535	48.922	0	0.30	0	16.6450	0	32.1190	0	23.387	0	0.297	0	-1e10	8	-1e10	8	-1E+10	1	-1E+10	1	-1E+10	1	-1E+10	1	-1E+10	1	-1E+10	1
4902554	60	C	10/03/2022	09:03	-133.535	48.922	0	1.00	0	16.6470	0	32.1130	0	23.382	0	0.992	0	-1e10	8	-1e10	8	-1E+10	1	-1E+10	1	-1E+10	1	-1E+10	1	-1E+10	1	-1E+10	1
4902554	60	C	10/03/2022	09:03	-133.535	48.922	0	2.00	0	16.6450	0	32.1000	0	23.373	0	1.983	0	-1e10	8	-1e10	8	-1E+10	1	-1E+10	1	-1E+10	1	-1E+10	1	-1E+10	1	-1E+10	1
4902554	60	C	10/03/2022	09:03	-133.535	48.922	0	3.20	0	16.6470	0	32.1070	0	23.378	0	3.173	0	-1e10	8	-1e10	8	-1E+10	1	-1E+10	1	-1E+10	1	-1E+10	1	-1E+10	1	-1E+10	1
4902554	60	C	10/03/2022	09:03	-133.535	48.922	0	3.80	0	16.6470	0	32.1210	0	23.389	0	3.768	0	-1e10	8	-1e10	8	-1E+10	1	-1E+10	1	-1E+10	1	-1E+10	1	-1E+10	1	-1E+10	1
4902554	60	C	10/03/2022	09:03	-133.535	48.922	0	4.90	0	16.6480	0	32.1250	0	23.391	0	4.858	0	-1e10	8	-1e10	8	-1E+10	1	-1E+10	1	-1E+10	1	-1E+10	1	-1E+10	1	-1E+10	1
4902554	60	C	10/03/2022	09:03	-133.535	48.922	0	6.30	0	16.6440	0	32.1270	0	23.394	0	6.247	0	-1e10	8	-1e10	8	-1E+10	1	-1E+10	1	-1E+10	1	-1E+10	1	-1E+10	1	-1E+10	1
4902554	60	C	10/03/2022	09:03	-133.535	48.922	0	7.20	0	16.6320	0	32.1270	0	23.397	0	7.139	0	-1e10	8	-1e10	8	-1E+10	1	-1E+10	1	-1E+10	1	-1E+10	1	-1E+10	1	-1E+10	1
4902554	60	C	10/03/2022	09:03	-133.535	48.922	0	8.00	0	16.6340	0	32.1280	0	23.397	0	7.932	0	-1e10	8	-1e10	8	-1E+10	1	-1E+10	1	-1E+10	1	-1E+10	1	-1E+10	1	-1E+10	1
4902554	60	C	10/03/2022	09:03	-133.535	48.922	0	8.90	0	16.5310	0	32.1200	0	23.415	0	8.824	0	-1e10	8	-1e10	8	-1E+10	1	-1E+10	1	-1E+10	1	-1E+10	1	-1E+10	1	-1E+10	1
4902554	60	C	10/03/2022	09:03	-133.535	48.922	0	10.10	0	16.4830	0	32.1220	0	23.427	0	10.014	0	-1e10	8	-1e10	8	-1E+10	1	-1E+10	1	-1E+10	1	-1E+10	1	-1E+10	1	-1E+10	1
4902554	60	C	10/03/2022	09:03	-133.535	48.922	0	11.10	0	16.4780	0	32.1220	0	23.428	0	11.006	0	-1e10	8	-1e10	8	-1E+10	1	-1E+10	1	-1E+10	1	-1E+10	1	-1E+10	1	-1E+10	1
4902554	60	C	10/03/2022	09:03	-133.535	48.922	0	12.10	0	16.4740	0	32.1220	0	23.429	0	11.997	0	-1e10	8	-1e10	8	-1E+10	1	-1E+10	1	-1E+10	1	-1E+10	1	-1E+10	1	-1E+10	1
4902554	60	C	10/03/2022	09:03	-133.535	48.922	0	13.00	0	16.4690	0	32.1230	0	23.431	0	12.889	0	-1e10	8	-1e10	8	-1E+10	1	-1E+10	1	-1E+10	1	-1E+10	1	-1E+10	1	-1E+10	1
4902554	60	C	10/03/2022	09:03	-133.535	48.922	0	13.70	0	16.4660	0	32.1230	0	23.432	0	13.583	0	-1e10	8	-1e10	8	-1E+10	1	-1E+10	1	-1E+10	1	-1E+10	1	-1E+10	1	-1E+10	1
4902554	60	C	10/03/2022	09:03	-133.535	48.922	0	14.80	0	16.4610	0	32.1230	0	23.433	0	14.674	0	-1e10	8	-1e10	8	-1E+10	1	-1E+10	1	-1E+10	1	-1E+10	1	-1E+10	1	-1E+10	1
4902554	60	C	10/03/2022	09:03	-133.535	48.922	0	15.80	0	16.4520	0	32.1220	0	23.434	0	15.665	0	-1e10	8	-1e10	8	-1E+10	1	-1E+10	1	-1E+10	1	-1E+10	1	-1E+10	1	-1E+10	1
4902554	60	C	10/03/2022	09:03	-133.535	48.922	0	16.90	0	16.4390	0	32.1230	0	23.438	0	16.756	0	-1e10	8	-1e10	8	-1E+10	1	-1E+10	1	-1E+10	1	-1E+10	1	-1E+10	1	-1E+10	1
4902554	60	C	10/03/2022	09:03	-133.535	48.922	0	18.00	0	16.4080	0	32.1330	0	23.453	0	17.847	0	-1e10	8	-1e10	8	-1E+10	1	-1E+10	1	-1E+10	1	-1E+10	1	-1E+10	1	-1E+10	1
4902554	60	C	10/03/2022	09:03	-133.535	48.922	0	19.00	0	16.3700	0	32.1440	0	23.470	0	18.838	0	-1e10	8	-1e10	8	-1E+10	1	-1E+10	1	-1E+10	1	-1E+10	1	-1E+10	1	-1E+10	1
4902554	60	C	10/03/2022	09:03	-133.535	48.922	0	20.00	0	16.3410	0	32.1430	0	23.476	0	19.830	0	-1e10	8	-1e10	8	-1E+10	1	-1E+10	1	-1E+10	1	-1E+10	1	-1E+10	1	-1E+10	1
4902554	60	C	10/03/2022	09:03	-133.535	48.922	0	21.00	0	16.2830	0	32.1550	0	23.498	0	20.821	0	-1e10	8	-1e10	8	-1E+10	1	-1E+10	1	-1E+10	1	-1E+10	1	-1E+10	1	-1E+10	1
4902554	60	C	10/03/2022	09:03	-133.535	48.922	0	22.00	0	16.1670	0	32.1660	0	23.533	0	21.812	0	-1e10	8	-1e10	8	-1E+10	1	-1E+10	1	-1E+10	1	-1E+10	1	-1E+10	1	-1E+10	1
4902554	60	C	10/03/2022	09:03	-133.535	48.922	0	23.20	0	15.9710	0	32.1820	0	23.589	0	23.002	0	-1e10	8	-1e10	8	-1E+10	1	-1E+10	1	-1E+10	1	-1E+10	1	-1E+10	1	-1E+10	1
4902554	60	C	10/03/2022	09:03	-133.535	48.922	0	23.90	0	15.7330	0	32.1940	0	23.651	0	23.696	0	-1e10	8	-1e10	8	-1E+10	1	-1E+10	1	-1E+10	1	-1E+10	1	-1E+10	1	-1E+10	1
4902554	60	C	10/03/2022	09:03	-133.535	48.922	0	25.00	0	15.5850	0	32.1870	0	23.679	0	24.787	0	-1e10	8	-1e10	8	-1E+10	1	-1E+10	1	-1E+10	1	-1E+10	1	-1E+10	1	-1E+10	1
4902554	60	C	10/03/2022	09:03	-133.535	48.922	0	26.00	0	15.2340	0	32.1910	0	23.758	0	25.778	0	-1e10	8	-1e10	8	-1E+10	1	-1E+10	1	-1E+10	1	-1E+10	1	-1E+10	1	-1E+10	1
4902554	60	C	10/03/2022	09:03	-133.535	48.922	0	27.10	0	14.4370	0	32.2080	0	23.941	0	26.869	0	-1e10	8	-1e10	8	-1E+10	1	-1E+10	1	-1E+10	1	-1E+10	1	-1E+10	1	-1E+10	1
4902554	60	C	10/03/2022	09:03	-133.535	48.922	0	28.20	0	13.8570	0	32.2400	0	24.086	0	27.959	0	-1e10	8	-1e10	8	-1E+10	1	-1E+10	1	-1E+10	1	-1E+10	1	-1E+10	1	-1E+10	1
4902554	60	C	10/03/2022	09:03	-133.535	48.922	0	29.00	0	13.4720	0	32.2480	0	24.170	0	28.752	0	-1e10	8	-1e10	8	-1E+10	1	-1E+10	1	-1E+10	1	-1E+10	1	-1E+10	1	-1E+10	1
4902554	60	C	10/03/2022	09:03	-133.535	48.922	0	30.00	0	13.2620	0	32.2480	0	24.212	0	29.744	0	-1e10	8	-1e10	8	-1E+10	1	-1E+10	1	-1E+10	1	-1E+10	1	-1E+10	1	-1E+10	1
4902554	60	C	10/03/2022	09:03	-133.535	48.922	0	30.90	0	12.8960	0	32.2430	0	24.280	0	30.636	0	-1e10	8	-1e10	8	-1E+10	1	-1E+10	1	-1E+10	1	-1E+10	1	-1E+10	1	-1E+10	1
4902554	60	C	10/03/2022	09:03	-133.535	48.922	0	32.00	0	12.1320	0	32.3070	0	24.475	0	31.726	0	-1e10	8	-1e10	8	-1E+10	1	-1E+10	1	-1E+10	1	-1E+10	1	-1E+10	1	-1E+10	1
4902554	60	C	10/03/2022	09:03	-133.535	48.922	0	33.00	0	12.0670	0	32.3030	0	24.484	0	32.718	0	-1e10	8	-1e10	8	-1E+10	1	-1E+10	1	-1E+10	1	-1E+10	1	-1E+10	1	-1E+10	1
4902554	60	C	10/03/2022	09:03	-133.535	48.922	0	34.20	0	11.6910	0	32.3340	0	24.577	0	33.907	0	-1e10	8	-1e10	8	-1E+10	1	-1E+10	1	-1E+10	1	-1E+10	1	-1E+10	1	-1E+10	1
4902554	60	C	10/03/2022	09:03	-133.535	48.922	0	35.10	0	11.6260	0	32.3340	0	24.589	0	34.800	0	-1e10	8	-1e10	8	-1E+10	1	-1E+10	1	-1E+10	1	-1E+10	1	-1E+10	1	-1E+10	1
4902554	60	C	10/03/2022	09:03	-133.535	48.922	0	35.90	0	11.5530	0	32.3350	0	24.603	0	35.593	0	-1e10	8	-1e10	8	-1E+10	1	-1E+10	1	-1E+10	1	-1E+10	1	-1E+10	1	-1E+10	1
4902554	60	C	10/03/2022	09:03	-133.535	48.922	0	36.90	0	11.4430	0	32.3370	0	24.625	0	36.584	0	-1e10	8	-1e10	8	-1E+10	1	-1E+10	1	-1E+10	1	-1E+10	1	-1E+10	1	-1E+10	1
4902554	60	C	10/03/2022	09:03	-133.535	48.922	0	37.90	0	11.3300	0	32.3450	0	24.651	0	37.575	0	-1e10	8	-1e10	8	-1E+10	1	-1E+10	1	-1E+10	1	-1E+10	1	-1E+10	1	-1E+10	1
4902554	60	C	10/03/2022	09:03	-133.535	48.922	0	38.90	0	11.3170	0	32.3440	0	24.653	0	38.567	0	-1e10	8	-1e10	8	-1E+10	1	-1E+10	1	-1E+10	1	-1E+10	1	-1E+10	1	-1E+10	1
4902554	60	C	10/03/2022	09:03	-133.535	48.922	0	40.00	0	11.2840	0	32.3420	0	24.657	0	39.657	0	-1e10	8	-1e10	8	-1E+10	1	-1E+10	1	-1E+10	1	-1E+10	1	-1E+10	1	-1E+10	1
4902554	60	C	10/03/2022	09:03	-133.535	48.922	0	41.00	0	11.2220	0	32.3370	0	24.665	0	40.648	0	-1e10	8	-1e10	8	-1E+10	1	-1E+10	1	-1E+10	1	-1E+10	1	-1E+10	1	-1E+10	1
4902554	60	C	10/03/2022	09:03	-133.535	48.922	0	41.90	0	11.0260	0	32.3510	0	24.710	0	41.541	0	-1e10	8	-1e10	8	-1E+10	1	-1E+10	1	-1E+10	1	-1E+10	1	-1E+10	1	-1E+10	1
4902554	60	C	10/03/2022	09:03	-133.535	48.922	0	43.00	0	10.7560	0	32.3630	0	24.767	0	42.631	0	-1e10	8	-1e10	8	-1E+10	1	-1E+10	1	-1E+10	1	-1E+10	1	-1E+10	1	-1E+10	1
4902554	60	C	10/03/2022	09:03	-133.535	48.922	0	44.20	0	10.7270	0	32.3550	0	24.765	0	43.821	0	-1e10	8	-1e10	8	-1E+10	1	-1E+10	1	-1E+10	1	-1E+10	1	-1E+10	1	-1E+10	1
4902554	60	C	10/03/2022	09:03	-133.535	48.922	0	44.90	0	10.4930	0	32.3580	0	24.808	0	44.515	0	-1e10	8	-1e10	8	-1E+10	1	-1E+10	1	-1E+10	1	-1E+10	1	-1E+10	1	-1E+10	1
4902554	60	C	10/03/2022	09:03	-133.535	48.922	0	46.10	0	10.2090	0	32.3440	0	24.845	0	45.704	0	-1e10	8	-1e10	8	-1E+10	1	-1E+10	1	-1E+10	1	-1E+10	1	-1E+10	1	-1E+10	1
4902554	60	C	10/03/2022	09:03	-133.535	48.922	0	46.90	0	10.0350	0	32.3450	0	24.875	0	46.497	0	-1e10	8	-1e10	8	-1E+10	1	-1E+10	1	-1E+10	1	-1E+10	1	-1E+10	1	-1E+10	1
4902554	60	C	10/03/2022	09:03	-133.535	48.922	0	48.20	0	9.7900	0	32.3390	0	24.911	0	47.786	0	-1e10	8	-1e10	8	-1E+10	1	-1E+10	1	-1E+10	1	-1E+10	1	-1E+10	1	-1E+10	1
4902554	60	C	10/03/2022	09:03	-133.535	48.922	0	49.00	0	9.6740	0	32.3370	0	24.928	0	48.579	0	-1e10	8	-1e10	8	-1E+10	1	-1E+10	1	-1E+10	1	-1E+10	1	-1E+10	1	-1E+10	1
4902554	60	C	10/03/2022	09:03	-133.535	48.922	0	50.10	0	9.6080	0	32.3370	0	24.939	0	49.669	0	-1e10	8	-1e10	8	-1E+10	1	-1E+10	1	-1E+10	1	-1E+10	1	-1E+10	1	-1E+10	1
4902554	60	C	10/03/2022	09:03	-133.535	48.922	0	51.00	0	9.4810	0	32.3500	0	24.969	0	50.562	0	-1e10	8	-1e10	8	-1E+10	1	-1E+10	1	-1E+10	1	-1E+10	1	-1E+10	1	-1E+10	1
4902554	60	C	10/03/2022	09:03	-133.535	48.922	0	51.80	0	9.4180	0	32.3540	0	24.982	0	51.355	0	-1e10	8	-1e10	8	-1E+10	1	-1E+10	1	-1E+10	1	-1E+10	1	-1E+10	1	-1E+10	1
4902554	60	C	10/03/2022	09:03	-133.535	48.922	0	53.10	0	9.3200	0	32.3600	0	25.003	0	52.643	0	-1e10	8	-1e10	8	-1E+10	1	-1E+10	1	-1E+10	1	-1E+10	1	-1E+10	1	-1E+10	1
4902554	60	C	10/03/2022	09:03	-133.535	48.922	0	54.00	0	9.1780	0	32.3710	0	25.034	0	53.535	0	-1e10	8	-1e10	8	-1E+10	1	-1E+10	1	-1E+10	1	-1E+10	1	-1E+10	1	-1E+10	1
4902554	60	C	10/03/2022	09:03	-133.535	48.922	0	55.20	0	9.0810	0	32.3670	0	25.046	0	54.725	0	-1e10	8	-1e10	8	-1E+10	1	-1E+10	1	-1E+10	1	-1E+10	1	-1E+10	1	-1E+10	1
4902554	60	C	10/03/2022	09:03	-133.535	48.922	0	55.80	0	8.9500	0	32.3870	0	25.082	0	55.320	0	-1e10	8	-1e10	8	-1E+10	1	-1E+10	1	-1E+10	1	-1E+10	1	-1E+10	1	-1E+10	1
4902554	60	C	10/03/2022	09:03	-133.535	48.922	0	56.90	0	8.7520	0	32.4010	0	25.123	0	56.410	0	-1e10	8	-1e10	8	-1E+10	1	-1E+10	1	-1E+10	1	-1E+10	1	-1E+10	1	-1E+10	1
4902554	60	C	10/03/2022	09:03	-133.535	48.922	0	58.10	0	8.5960	0	32.4000	0	25.146	0	57.599	0	-1e10	8	-1e10	8	-1E+10	1	-1E+10	1	-1E+10	1	-1E+10	1	-1E+10	1	-1E+10	1
4902554	60	C	10/03/2022	09:03	-133.535	48.922	0	59.10	0	8.5710	0	32.4030	0	25.152	0	58.591	0	-1e10	8	-1e10	8	-1E+10	1	-1E+10	1	-1E+10	1	-1E+10	1	-1E+10	1	-1E+10	1
4902554	60	C	10/03/2022	09:03	-133.535	48.922	0	60.10	0	8.4600	0	32.3970	0	25.164	0	59.582	0	-1e10	8	-1e10	8	-1E+10	1	-1E+10	1	-1E+10	1	-1E+10	1	-1E+10	1	-1E+10	1
4902554	60	C	10/03/2022	09:03	-133.535	48.922	0	60.90	0	8.3680	0	32.3940	0	25.175	0	60.375	0	-1e10	8	-1e10	8	-1E+10	1	-1E+10	1	-1E+10	1	-1E+10	1	-1E+10	1	-1E+10	1
4902554	60	C	10/03/2022	09:03	-133.535	48.922	0	61.70	0	8.3260	0	32.4010	0	25.187	0	61.168	0	-1e10	8	-1e10	8	-1E+10	1	-1E+10	1	-1E+10	1	-1E+10	1	-1E+10	1	-1E+10	1
4902554	60	C	10/03/2022	09:03	-133.535	48.922	0	63.10	0	8.3050	0	32.4040	0	25.192	0	62.556	0	-1e10	8	-1e10	8	-1E+10	1	-1E+10	1	-1E+10	1	-1E+10	1	-1E+10	1	-1E+10	1
4902554	60	C	10/03/2022	09:03	-133.535	48.922	0	64.20	0	8.2180	0	32.3900	0	25.194	0	63.646	0	-1e10	8	-1e10	8	-1E+10	1	-1E+10	1	-1E+10	1	-1E+10	1	-1E+10	1	-1E+10	1
4902554	60	C	10/03/2022	09:03	-133.535	48.922	0	65.00	0	8.0210	0	32.3870	0	25.220	0	64.439	0	-1e10	8	-1e10	8	-1E+10	1	-1E+10	1	-1E+10	1	-1E+10	1	-1E+10	1	-1E+10	1
4902554	60	C	10/03/2022	09:03	-133.535	48.922	0	66.20	0	7.7500	0	32.3790	0	25.253	0	65.628	0	-1e10	8	-1e10	8	-1E+10	1	-1E+10	1	-1E+10	1	-1E+10	1	-1E+10	1	-1E+10	1
4902554	60	C	10/03/2022	09:03	-133.535	48.922	0	67.00	0	7.5420	0	32.3700	0	25.275	0	66.421	0	-1e10	8	-1e10	8	-1E+10	1	-1E+10	1	-1E+10	1	-1E+10	1	-1E+10	1	-1E+10	1
4902554	60	C	10/03/2022	09:03	-133.535	48.922	0	68.10	0	7.4240	0	32.3690	0	25.290	0	67.512	0	-1e10	8	-1e10	8	-1E+10	1	-1E+10	1	-1E+10	1	-1E+10	1	-1E+10	1	-1E+10	1
4902554	60	C	10/03/2022	09:03	-133.535	48.922	0	68.90	0	7.3730	0	32.3690	0	25.297	0	68.305	0	-1e10	8	-1e10	8	-1E+10	1	-1E+10	1	-1E+10	1	-1E+10	1	-1E+10	1	-1E+10	1
4902554	60	C	10/03/2022	09:03	-133.535	48.922	0	70.10	0	7.2680	0	32.3750	0	25.316	0	69.494	0	-1e10	8	-1e10	8	-1E+10	1	-1E+10	1	-1E+10	1	-1E+10	1	-1E+10	1	-1E+10	1
4902554	60	C	10/03/2022	09:03	-133.535	48.922	0	70.90	0	7.2360	0	32.3770	0	25.322	0	70.287	0	-1e10	8	-1e10	8	-1E+10	1	-1E+10	1	-1E+10	1	-1E+10	1	-1E+10	1	-1E+10	1
4902554	60	C	10/03/2022	09:03	-133.535	48.922	0	72.10	0	7.1960	0	32.3790	0	25.329	0	71.476	0	-1e10	8	-1e10	8	-1E+10	1	-1E+10	1	-1E+10	1	-1E+10	1	-1E+10	1	-1E+10	1
4902554	60	C	10/03/2022	09:03	-133.535	48.922	0	73.10	0	7.1470	0	32.3820	0	25.338	0	72.468	0	-1e10	8	-1e10	8	-1E+10	1	-1E+10	1	-1E+10	1	-1E+10	1	-1E+10	1	-1E+10	1
4902554	60	C	10/03/2022	09:03	-133.535	48.922	0	74.00	0	7.1000	0	32.3870	0	25.349	0	73.360	0	-1e10	8	-1e10	8	-1E+10	1	-1E+10	1	-1E+10	1	-1E+10	1	-1E+10	1	-1E+10	1
4902554	60	C	10/03/2022	09:03	-133.535	48.922	0	75.20	0	7.0500	0	32.3900	0	25.358	0	74.549	0	-1e10	8	-1e10	8	-1E+10	1	-1E+10	1	-1E+10	1	-1E+10	1	-1E+10	1	-1E+10	1
4902554	60	C	10/03/2022	09:03	-133.535	48.922	0	76.00	0	7.0170	0	32.3940	0	25.365	0	75.342	0	-1e10	8	-1e10	8	-1E+10	1	-1E+10	1	-1E+10	1	-1E+10	1	-1E+10	1	-1E+10	1
4902554	60	C	10/03/2022	09:03	-133.535	48.922	0	77.10	0	7.0500	0	32.4020	0	25.367	0	76.432	0	-1e10	8	-1e10	8	-1E+10	1	-1E+10	1	-1E+10	1	-1E+10	1	-1E+10	1	-1E+10	1
4902554	60	C	10/03/2022	09:03	-133.535	48.922	0	78.00	0	7.1060	0	32.4250	0	25.378	0	77.324	0	-1e10	8	-1e10	8	-1E+10	1	-1E+10	1	-1E+10	1	-1E+10	1	-1E+10	1	-1E+10	1
4902554	60	C	10/03/2022	09:03	-133.535	48.922	0	78.80	0	7.1000	0	32.4290	0	25.382	0	78.117	0	-1e10	8	-1e10	8	-1E+10	1	-1E+10	1	-1E+10	1	-1E+10	1	-1E+10	1	-1E+10	1
4902554	60	C	10/03/2022	09:03	-133.535	48.922	0	80.00	0	7.0850	0	32.4410	0	25.393	0	79.307	0	-1e10	8	-1e10	8	-1E+10	1	-1E+10	1	-1E+10	1	-1E+10	1	-1E+10	1	-1E+10	1
4902554	60	C	10/03/2022	09:03	-133.535	48.922	0	80.90	0	7.0260	0	32.4350	0	25.396	0	80.199	0	-1e10	8	-1e10	8	-1E+10	1	-1E+10	1	-1E+10	1	-1E+10	1	-1E+10	1	-1E+10	1
4902554	60	C	10/03/2022	09:03	-133.535	48.922	0	81.90	0	6.9970	0	32.4370	0	25.402	0	81.190	0	-1e10	8	-1e10	8	-1E+10	1	-1E+10	1	-1E+10	1	-1E+10	1	-1E+10	1	-1E+10	1
4902554	60	C	10/03/2022	09:03	-133.535	48.922	0	82.80	0	6.9610	0	32.4380	0	25.407	0	82.082	0	-1e10	8	-1e10	8	-1E+10	1	-1E+10	1	-1E+10	1	-1E+10	1	-1E+10	1	-1E+10	1
4902554	60	C	10/03/2022	09:03	-133.535	48.922	0	83.80	0	6.8550	0	32.4290	0	25.414	0	83.073	0	-1e10	8	-1e10	8	-1E+10	1	-1E+10	1	-1E+10	1	-1E+10	1	-1E+10	1	-1E+10	1
4902554	60	C	10/03/2022	09:03	-133.535	48.922	0	85.10	0	6.8320	0	32.4420	0	25.428	0	84.361	0	-1e10	8	-1e10	8	-1E+10	1	-1E+10	1	-1E+10	1	-1E+10	1	-1E+10	1	-1E+10	1
4902554	60	C	10/03/2022	09:03	-133.535	48.922	0	86.00	0	6.8320	0	32.4420	0	25.428	0	85.253	0	-1e10	8	-1e10	8	-1E+10	1	-1E+10	1	-1E+10	1	-1E+10	1	-1E+10	1	-1E+10	1
4902554	60	C	10/03/2022	09:03	-133.535	48.922	0	87.00	0	6.8310	0	32.4440	0	25.429	0	86.244	0	-1e10	8	-1e10	8	-1E+10	1	-1E+10	1	-1E+10	1	-1E+10	1	-1E+10	1	-1E+10	1
4902554	60	C	10/03/2022	09:03	-133.535	48.922	0	87.90	0	6.8340	0	32.4480	0	25.432	0	87.136	0	-1e10	8	-1e10	8	-1E+10	1	-1E+10	1	-1E+10	1	-1E+10	1	-1E+10	1	-1E+10	1
4902554	60	C	10/03/2022	09:03	-133.535	48.922	0	88.80	0	6.8230	0	32.4540	0	25.438	0	88.028	0	-1e10	8	-1e10	8	-1E+10	1	-1E+10	1	-1E+10	1	-1E+10	1	-1E+10	1	-1E+10	1
4902554	60	C	10/03/2022	09:03	-133.535	48.922	0	90.00	0	6.7940	0	32.4630	0	25.449	0	89.218	0	-1e10	8	-1e10	8	-1E+10	1	-1E+10	1	-1E+10	1	-1E+10	1	-1E+10	1	-1E+10	1
4902554	60	C	10/03/2022	09:03	-133.535	48.922	0	90.90	0	6.7600	0	32.4690	0	25.458	0	90.110	0	-1e10	8	-1e10	8	-1E+10	1	-1E+10	1	-1E+10	1	-1E+10	1	-1E+10	1	-1E+10	1
4902554	60	C	10/03/2022	09:03	-133.535	48.922	0	91.80	0	6.7200	0	32.4760	0	25.469	0	91.002	0	-1e10	8	-1e10	8	-1E+10	1	-1E+10	1	-1E+10	1	-1E+10	1	-1E+10	1	-1E+10	1
4902554	60	C	10/03/2022	09:03	-133.535	48.922	0	93.00	0	6.6690	0	32.4940	0	25.490	0	92.191	0	-1e10	8	-1e10	8	-1E+10	1	-1E+10	1	-1E+10	1	-1E+10	1	-1E+10	1	-1E+10	1
4902554	60	C	10/03/2022	09:03	-133.535	48.922	0	94.00	0	6.6670	0	32.4990	0	25.494	0	93.182	0	-1e10	8	-1e10	8	-1E+10	1	-1E+10	1	-1E+10	1	-1E+10	1	-1E+10	1	-1E+10	1
4902554	60	C	10/03/2022	09:03	-133.535	48.922	0	94.90	0	6.6570	0	32.5090	0	25.503	0	94.074	0	-1e10	8	-1e10	8	-1E+10	1	-1E+10	1	-1E+10	1	-1E+10	1	-1E+10	1	-1E+10	1
4902554	60	C	10/03/2022	09:03	-133.535	48.922	0	96.10	0	6.6450	0	32.5160	0	25.510	0	95.263	0	-1e10	8	-1e10	8	-1E+10	1	-1E+10	1	-1E+10	1	-1E+10	1	-1E+10	1	-1E+10	1
4902554	60	C	10/03/2022	09:03	-133.535	48.922	0	97.10	0	6.6330	0	32.5200	0	25.515	0	96.254	0	-1e10	8	-1e10	8	-1E+10	1	-1E+10	1	-1E+10	1	-1E+10	1	-1E+10	1	-1E+10	1
4902554	60	C	10/03/2022	09:03	-133.535	48.922	0	98.00	0	6.6170	0	32.5270	0	25.523	0	97.146	0	-1e10	8	-1e10	8	-1E+10	1	-1E+10	1	-1E+10	1	-1E+10	1	-1E+10	1	-1E+10	1
4902554	60	C	10/03/2022	09:03	-133.535	48.922	0	99.10	0	6.5900	0	32.5450	0	25.540	0	98.237	0	-1e10	8	-1e10	8	-1E+10	1	-1E+10	1	-1E+10	1	-1E+10	1	-1E+10	1	-1E+10	1
4902554	60	C	10/03/2022	09:03	-133.535	48.922	0	100.00	0	6.5860	0	32.5560	0	25.550	0	99.128	0	-1e10	8	-1e10	8	-1E+10	1	-1E+10	1	-1E+10	1	-1E+10	1	-1E+10	1	-1E+10	1
4902554	60	C	10/03/2022	09:03	-133.535	48.922	0	101.10	0	6.5850	0	32.5630	0	25.555	0	100.219	0	-1e10	8	-1e10	8	-1E+10	1	-1E+10	1	-1E+10	1	-1E+10	1	-1E+10	1	-1E+10	1
4902554	60	C	10/03/2022	09:03	-133.535	48.922	0	102.00	0	6.5820	0	32.5660	0	25.558	0	101.111	0	-1e10	8	-1e10	8	-1E+10	1	-1E+10	1	-1E+10	1	-1E+10	1	-1E+10	1	-1E+10	1
4902554	60	C	10/03/2022	09:03	-133.535	48.922	0	103.00	0	6.5590	0	32.5880	0	25.578	0	102.102	0	-1e10	8	-1e10	8	-1E+10	1	-1E+10	1	-1E+10	1	-1E+10	1	-1E+10	1	-1E+10	1
4902554	60	C	10/03/2022	09:03	-133.535	48.922	0	104.20	0	6.5410	0	32.6120	0	25.600	0	103.291	0	-1e10	8	-1e10	8	-1E+10	1	-1E+10	1	-1E+10	1	-1E+10	1	-1E+10	1	-1E+10	1
4902554	60	C	10/03/2022	09:03	-133.535	48.922	0	105.00	0	6.5300	0	32.6300	0	25.615	0	104.084	0	-1e10	8	-1e10	8	-1E+10	1	-1E+10	1	-1E+10	1	-1E+10	1	-1E+10	1	-1E+10	1
4902554	60	C	10/03/2022	09:03	-133.535	48.922	0	106.00	0	6.5030	0	32.6610	0	25.643	0	105.075	0	-1e10	8	-1e10	8	-1E+10	1	-1E+10	1	-1E+10	1	-1E+10	1	-1E+10	1	-1E+10	1
4902554	60	C	10/03/2022	09:03	-133.535	48.922	0	107.20	0	6.4830	0	32.6750	0	25.657	0	106.264	0	-1e10	8	-1e10	8	-1E+10	1	-1E+10	1	-1E+10	1	-1E+10	1	-1E+10	1	-1E+10	1
4902554	60	C	10/03/2022	09:03	-133.535	48.922	0	108.00	0	6.4670	0	32.6850	0	25.667	0	107.057	0	-1e10	8	-1e10	8	-1E+10	1	-1E+10	1	-1E+10	1	-1E+10	1	-1E+10	1	-1E+10	1
4902554	60	C	10/03/2022	09:03	-133.535	48.922	0	109.00	0	6.4490	0	32.6960	0	25.678	0	108.048	0	-1e10	8	-1e10	8	-1E+10	1	-1E+10	1	-1E+10	1	-1E+10	1	-1E+10	1	-1E+10	1
4902554	60	C	10/03/2022	09:03	-133.535	48.922	0	110.00	0	6.4380	0	32.7100	0	25.690	0	109.039	0	-1e10	8	-1e10	8	-1E+10	1	-1E+10	1	-1E+10	1	-1E+10	1	-1E+10	1	-1E+10	1
4902554	60	C	10/03/2022	09:03	-133.535	48.922	0	111.00	0	6.4260	0	32.7260	0	25.704	0	110.030	0	-1e10	8	-1e10	8	-1E+10	1	-1E+10	1	-1E+10	1	-1E+10	1	-1E+10	1	-1E+10	1
4902554	60	C	10/03/2022	09:03	-133.535	48.922	0	112.10	0	6.3940	0	32.7610	0	25.736	0	111.120	0	-1e10	8	-1e10	8	-1E+10	1	-1E+10	1	-1E+10	1	-1E+10	1	-1E+10	1	-1E+10	1
4902554	60	C	10/03/2022	09:03	-133.535	48.922	0	112.90	0	6.3820	0	32.7730	0	25.747	0	111.913	0	-1e10	8	-1e10	8	-1E+10	1	-1E+10	1	-1E+10	1	-1E+10	1	-1E+10	1	-1E+10	1
4902554	60	C	10/03/2022	09:03	-133.535	48.922	0	113.80	0	6.3500	0	32.8040	0	25.775	0	112.804	0	-1e10	8	-1e10	8	-1E+10	1	-1E+10	1	-1E+10	1	-1E+10	1	-1E+10	1	-1E+10	1
4902554	60	C	10/03/2022	09:03	-133.535	48.922	0	115.00	0	6.3090	0	32.8420	0	25.811	0	113.994	0	-1e10	8	-1e10	8	-1E+10	1	-1E+10	1	-1E+10	1	-1E+10	1	-1E+10	1	-1E+10	1
4902554	60	C	10/03/2022	09:03	-133.535	48.922	0	115.90	0	6.2740	0	32.8790	0	25.844	0	114.885	0	-1e10	8	-1e10	8	-1E+10	1	-1E+10	1	-1E+10	1	-1E+10	1	-1E+10	1	-1E+10	1
4902554	60	C	10/03/2022	09:03	-133.535	48.922	0	116.80	0	6.2620	0	32.8890	0	25.854	0	115.777	0	-1e10	8	-1e10	8	-1E+10	1	-1E+10	1	-1E+10	1	-1E+10	1	-1E+10	1	-1E+10	1
4902554	60	C	10/03/2022	09:03	-133.535	48.922	0	117.90	0	6.2390	0	32.9160	0	25.878	0	116.867	0	-1e10	8	-1e10	8	-1E+10	1	-1E+10	1	-1E+10	1	-1E+10	1	-1E+10	1	-1E+10	1
4902554	60	C	10/03/2022	09:03	-133.535	48.922	0	119.00	0	6.2330	0	32.9240	0	25.885	0	117.957	0	-1e10	8	-1e10	8	-1E+10	1	-1E+10	1	-1E+10	1	-1E+10	1	-1E+10	1	-1E+10	1
4902554	60	C	10/03/2022	09:03	-133.535	48.922	0	120.10	0	6.2230	0	32.9390	0	25.898	0	119.047	0	-1e10	8	-1e10	8	-1E+10	1	-1E+10	1	-1E+10	1	-1E+10	1	-1E+10	1	-1E+10	1
4902554	60	C	10/03/2022	09:03	-133.535	48.922	0	121.10	0	6.2110	0	32.9500	0	25.908	0	120.038	0	-1e10	8	-1e10	8	-1E+10	1	-1E+10	1	-1E+10	1	-1E+10	1	-1E+10	1	-1E+10	1
4902554	60	C	10/03/2022	09:03	-133.535	48.922	0	122.10	0	6.1990	0	32.9570	0	25.915	0	121.029	0	-1e10	8	-1e10	8	-1E+10	1	-1E+10	1	-1E+10	1	-1E+10	1	-1E+10	1	-1E+10	1
4902554	60	C	10/03/2022	09:03	-133.535	48.922	0	123.10	0	6.1900	0	32.9630	0	25.921	0	122.020	0	-1e10	8	-1e10	8	-1E+10	1	-1E+10	1	-1E+10	1	-1E+10	1	-1E+10	1	-1E+10	1
4902554	60	C	10/03/2022	09:03	-133.535	48.922	0	123.90	0	6.1840	0	32.9690	0	25.927	0	122.813	0	-1e10	8	-1e10	8	-1E+10	1	-1E+10	1	-1E+10	1	-1E+10	1	-1E+10	1	-1E+10	1
4902554	60	C	10/03/2022	09:03	-133.535	48.922	0	124.70	0	6.1670	0	33.0000	0	25.953	0	123.606	0	-1e10	8	-1e10	8	-1E+10	1	-1E+10	1	-1E+10	1	-1E+10	1	-1E+10	1	-1E+10	1
4902554	60	C	10/03/2022	09:03	-133.535	48.922	0	125.90	0	6.1420	0	33.0570	0	26.001	0	124.795	0	-1e10	8	-1e10	8	-1E+10	1	-1E+10	1	-1E+10	1	-1E+10	1	-1E+10	1	-1E+10	1
4902554	60	C	10/03/2022	09:03	-133.535	48.922	0	126.90	0	6.1250	0	33.0990	0	26.037	0	125.786	0	-1e10	8	-1e10	8	-1E+10	1	-1E+10	1	-1E+10	1	-1E+10	1	-1E+10	1	-1E+10	1
4902554	60	C	10/03/2022	09:03	-133.535	48.922	0	127.80	0	6.1140	0	33.1240	0	26.058	0	126.678	0	-1e10	8	-1e10	8	-1E+10	1	-1E+10	1	-1E+10	1	-1E+10	1	-1E+10	1	-1E+10	1
4902554	60	C	10/03/2022	09:03	-133.535	48.922	0	128.90	0	6.0930	0	33.1520	0	26.082	0	127.768	0	-1e10	8	-1e10	8	-1E+10	1	-1E+10	1	-1E+10	1	-1E+10	1	-1E+10	1	-1E+10	1
4902554	60	C	10/03/2022	09:03	-133.535	48.922	0	130.00	0	6.0770	0	33.1700	0	26.099	0	128.858	0	-1e10	8	-1e10	8	-1E+10	1	-1E+10	1	-1E+10	1	-1E+10	1	-1E+10	1	-1E+10	1
4902554	60	C	10/03/2022	09:03	-133.535	48.922	0	131.20	0	6.0700	0	33.1780	0	26.106	0	130.047	0	-1e10	8	-1e10	8	-1E+10	1	-1E+10	1	-1E+10	1	-1E+10	1	-1E+10	1	-1E+10	1
4902554	60	C	10/03/2022	09:03	-133.535	48.922	0	132.00	0	6.0670	0	33.1860	0	26.113	0	130.839	0	-1e10	8	-1e10	8	-1E+10	1	-1E+10	1	-1E+10	1	-1E+10	1	-1E+10	1	-1E+10	1
4902554	60	C	10/03/2022	09:03	-133.535	48.922	0	132.80	0	6.0670	0	33.1920	0	26.117	0	131.632	0	-1e10	8	-1e10	8	-1E+10	1	-1E+10	1	-1E+10	1	-1E+10	1	-1E+10	1	-1E+10	1
4902554	60	C	10/03/2022	09:03	-133.535	48.922	0	133.70	0	6.0700	0	33.1990	0	26.122	0	132.524	0	-1e10	8	-1e10	8	-1E+10	1	-1E+10	1	-1E+10	1	-1E+10	1	-1E+10	1	-1E+10	1
4902554	60	C	10/03/2022	09:03	-133.535	48.922	0	134.90	0	6.0720	0	33.2010	0	26.124	0	133.713	0	-1e10	8	-1e10	8	-1E+10	1	-1E+10	1	-1E+10	1	-1E+10	1	-1E+10	1	-1E+10	1
4902554	60	C	10/03/2022	09:03	-133.535	48.922	0	136.20	0	6.0750	0	33.2050	0	26.127	0	135.001	0	-1e10	8	-1e10	8	-1E+10	1	-1E+10	1	-1E+10	1	-1E+10	1	-1E+10	1	-1E+10	1
4902554	60	C	10/03/2022	09:03	-133.535	48.922	0	137.10	0	6.0760	0	33.2050	0	26.127	0	135.893	0	-1e10	8	-1e10	8	-1E+10	1	-1E+10	1	-1E+10	1	-1E+10	1	-1E+10	1	-1E+10	1
4902554	60	C	10/03/2022	09:03	-133.535	48.922	0	137.90	0	6.0790	0	33.2080	0	26.129	0	136.686	0	-1e10	8	-1e10	8	-1E+10	1	-1E+10	1	-1E+10	1	-1E+10	1	-1E+10	1	-1E+10	1
4902554	60	C	10/03/2022	09:03	-133.535	48.922	0	138.80	0	6.0790	0	33.2100	0	26.130	0	137.577	0	-1e10	8	-1e10	8	-1E+10	1	-1E+10	1	-1E+10	1	-1E+10	1	-1E+10	1	-1E+10	1
4902554	60	C	10/03/2022	09:03	-133.535	48.922	0	140.00	0	6.0780	0	33.2190	0	26.137	0	138.766	0	-1e10	8	-1e10	8	-1E+10	1	-1E+10	1	-1E+10	1	-1E+10	1	-1E+10	1	-1E+10	1
4902554	60	C	10/03/2022	09:03	-133.535	48.922	0	141.30	0	6.0730	0	33.2390	0	26.154	0	140.054	0	-1e10	8	-1e10	8	-1E+10	1	-1E+10	1	-1E+10	1	-1E+10	1	-1E+10	1	-1E+10	1
4902554	60	C	10/03/2022	09:03	-133.535	48.922	0	142.10	0	6.0640	0	33.2600	0	26.172	0	140.847	0	-1e10	8	-1e10	8	-1E+10	1	-1E+10	1	-1E+10	1	-1E+10	1	-1E+10	1	-1E+10	1
4902554	60	C	10/03/2022	09:03	-133.535	48.922	0	143.00	0	6.0470	0	33.2820	0	26.191	0	141.739	0	-1e10	8	-1e10	8	-1E+10	1	-1E+10	1	-1E+10	1	-1E+10	1	-1E+10	1	-1E+10	1
4902554	60	C	10/03/2022	09:03	-133.535	48.922	0	143.90	0	6.0360	0	33.2980	0	26.205	0	142.631	0	-1e10	8	-1e10	8	-1E+10	1	-1E+10	1	-1E+10	1	-1E+10	1	-1E+10	1	-1E+10	1
4902554	60	C	10/03/2022	09:03	-133.535	48.922	0	144.90	0	6.0320	0	33.3040	0	26.210	0	143.621	0	-1e10	8	-1e10	8	-1E+10	1	-1E+10	1	-1E+10	1	-1E+10	1	-1E+10	1	-1E+10	1
4902554	60	C	10/03/2022	09:03	-133.535	48.922	0	145.80	0	6.0230	0	33.3150	0	26.220	0	144.513	0	-1e10	8	-1e10	8	-1E+10	1	-1E+10	1	-1E+10	1	-1E+10	1	-1E+10	1	-1E+10	1
4902554	60	C	10/03/2022	09:03	-133.535	48.922	0	146.70	0	6.0010	0	33.3400	0	26.243	0	145.405	0	-1e10	8	-1e10	8	-1E+10	1	-1E+10	1	-1E+10	1	-1E+10	1	-1E+10	1	-1E+10	1
4902554	60	C	10/03/2022	09:03	-133.535	48.922	0	147.60	0	5.9760	0	33.3750	0	26.273	0	146.297	0	-1e10	8	-1e10	8	-1E+10	1	-1E+10	1	-1E+10	1	-1E+10	1	-1E+10	1	-1E+10	1
4902554	60	C	10/03/2022	09:03	-133.535	48.922	0	148.60	0	5.9630	0	33.3840	0	26.282	0	147.288	0	-1e10	8	-1e10	8	-1E+10	1	-1E+10	1	-1E+10	1	-1E+10	1	-1E+10	1	-1E+10	1
4902554	60	C	10/03/2022	09:03	-133.535	48.922	0	149.60	0	5.9150	0	33.4620	0	26.350	0	148.278	0	-1e10	8	-1e10	8	-1E+10	1	-1E+10	1	-1E+10	1	-1E+10	1	-1E+10	1	-1E+10	1
4902554	60	C	10/03/2022	09:03	-133.535	48.922	0	150.60	0	5.9090	0	33.4670	0	26.354	0	149.269	0	-1e10	8	-1e10	8	-1E+10	1	-1E+10	1	-1E+10	1	-1E+10	1	-1E+10	1	-1E+10	1
4902554	60	C	10/03/2022	09:03	-133.535	48.922	0	151.60	0	5.8980	0	33.4780	0	26.364	0	150.260	0	-1e10	8	-1e10	8	-1E+10	1	-1E+10	1	-1E+10	1	-1E+10	1	-1E+10	1	-1E+10	1
4902554	60	C	10/03/2022	09:03	-133.535	48.922	0	152.70	0	5.8720	0	33.5070	0	26.390	0	151.350	0	-1e10	8	-1e10	8	-1E+10	1	-1E+10	1	-1E+10	1	-1E+10	1	-1E+10	1	-1E+10	1
4902554	60	C	10/03/2022	09:03	-133.535	48.922	0	153.70	0	5.8540	0	33.5200	0	26.403	0	152.341	0	-1e10	8	-1e10	8	-1E+10	1	-1E+10	1	-1E+10	1	-1E+10	1	-1E+10	1	-1E+10	1
4902554	60	C	10/03/2022	09:03	-133.535	48.922	0	154.70	0	5.8480	0	33.5300	0	26.412	0	153.331	0	-1e10	8	-1e10	8	-1E+10	1	-1E+10	1	-1E+10	1	-1E+10	1	-1E+10	1	-1E+10	1
4902554	60	C	10/03/2022	09:03	-133.535	48.922	0	155.70	0	5.8450	0	33.5330	0	26.414	0	154.322	0	-1e10	8	-1e10	8	-1E+10	1	-1E+10	1	-1E+10	1	-1E+10	1	-1E+10	1	-1E+10	1
4902554	60	C	10/03/2022	09:03	-133.535	48.922	0	156.70	0	5.8290	0	33.5460	0	26.427	0	155.313	0	-1e10	8	-1e10	8	-1E+10	1	-1E+10	1	-1E+10	1	-1E+10	1	-1E+10	1	-1E+10	1
4902554	60	C	10/03/2022	09:03	-133.535	48.922	0	157.70	0	5.8100	0	33.5630	0	26.442	0	156.304	0	-1e10	8	-1e10	8	-1E+10	1	-1E+10	1	-1E+10	1	-1E+10	1	-1E+10	1	-1E+10	1
4902554	60	C	10/03/2022	09:03	-133.535	48.922	0	158.70	0	5.8040	0	33.5690	0	26.448	0	157.294	0	-1e10	8	-1e10	8	-1E+10	1	-1E+10	1	-1E+10	1	-1E+10	1	-1E+10	1	-1E+10	1
4902554	60	C	10/03/2022	09:03	-133.535	48.922	0	159.70	0	5.8010	0	33.5730	0	26.451	0	158.285	0	-1e10	8	-1e10	8	-1E+10	1	-1E+10	1	-1E+10	1	-1E+10	1	-1E+10	1	-1E+10	1
4902554	60	C	10/03/2022	09:03	-133.535	48.922	0	160.70	0	5.7960	0	33.5770	0	26.455	0	159.276	0	-1e10	8	-1e10	8	-1E+10	1	-1E+10	1	-1E+10	1	-1E+10	1	-1E+10	1	-1E+10	1
4902554	60	C	10/03/2022	09:03	-133.535	48.922	0	161.70	0	5.7890	0	33.5830	0	26.461	0	160.267	0	-1e10	8	-1e10	8	-1E+10	1	-1E+10	1	-1E+10	1	-1E+10	1	-1E+10	1	-1E+10	1
4902554	60	C	10/03/2022	09:03	-133.535	48.922	0	162.80	0	5.7690	0	33.6000	0	26.477	0	161.357	0	-1e10	8	-1e10	8	-1E+10	1	-1E+10	1	-1E+10	1	-1E+10	1	-1E+10	1	-1E+10	1
4902554	60	C	10/03/2022	09:03	-133.535	48.922	0	163.80	0	5.7700	0	33.6030	0	26.479	0	162.347	0	-1e10	8	-1e10	8	-1E+10	1	-1E+10	1	-1E+10	1	-1E+10	1	-1E+10	1	-1E+10	1
4902554	60	C	10/03/2022	09:03	-133.535	48.922	0	164.80	0	5.7560	0	33.6130	0	26.489	0	163.338	0	-1e10	8	-1e10	8	-1E+10	1	-1E+10	1	-1E+10	1	-1E+10	1	-1E+10	1	-1E+10	1
4902554	60	C	10/03/2022	09:03	-133.535	48.922	0	165.80	0	5.7520	0	33.6150	0	26.491	0	164.329	0	-1e10	8	-1e10	8	-1E+10	1	-1E+10	1	-1E+10	1	-1E+10	1	-1E+10	1	-1E+10	1
4902554	60	C	10/03/2022	09:03	-133.535	48.922	0	166.70	0	5.7260	0	33.6330	0	26.508	0	165.220	0	-1e10	8	-1e10	8	-1E+10	1	-1E+10	1	-1E+10	1	-1E+10	1	-1E+10	1	-1E+10	1
4902554	60	C	10/03/2022	09:03	-133.535	48.922	0	168.00	0	5.6700	0	33.6590	0	26.535	0	166.508	0	-1e10	8	-1e10	8	-1E+10	1	-1E+10	1	-1E+10	1	-1E+10	1	-1E+10	1	-1E+10	1
4902554	60	C	10/03/2022	09:03	-133.535	48.922	0	169.10	0	5.6680	0	33.6620	0	26.538	0	167.598	0	-1e10	8	-1e10	8	-1E+10	1	-1E+10	1	-1E+10	1	-1E+10	1	-1E+10	1	-1E+10	1
4902554	60	C	10/03/2022	09:03	-133.535	48.922	0	169.90	0	5.6400	0	33.6720	0	26.549	0	168.391	0	-1e10	8	-1e10	8	-1E+10	1	-1E+10	1	-1E+10	1	-1E+10	1	-1E+10	1	-1E+10	1
4902554	60	C	10/03/2022	09:03	-133.535	48.922	0	171.00	0	5.6380	0	33.6740	0	26.551	0	169.481	0	-1e10	8	-1e10	8	-1E+10	1	-1E+10	1	-1E+10	1	-1E+10	1	-1E+10	1	-1E+10	1
4902554	60	C	10/03/2022	09:03	-133.535	48.922	0	172.20	0	5.6270	0	33.6760	0	26.554	0	170.669	0	-1e10	8	-1e10	8	-1E+10	1	-1E+10	1	-1E+10	1	-1E+10	1	-1E+10	1	-1E+10	1
4902554	60	C	10/03/2022	09:03	-133.535	48.922	0	173.00	0	5.6270	0	33.6760	0	26.554	0	171.462	0	-1e10	8	-1e10	8	-1E+10	1	-1E+10	1	-1E+10	1	-1E+10	1	-1E+10	1	-1E+10	1
4902554	60	C	10/03/2022	09:03	-133.535	48.922	0	173.70	0	5.6270	0	33.6770	0	26.555	0	172.155	0	-1e10	8	-1e10	8	-1E+10	1	-1E+10	1	-1E+10	1	-1E+10	1	-1E+10	1	-1E+10	1
4902554	60	C	10/03/2022	09:03	-133.535	48.922	0	174.90	0	5.6280	0	33.6770	0	26.555	0	173.344	0	-1e10	8	-1e10	8	-1E+10	1	-1E+10	1	-1E+10	1	-1E+10	1	-1E+10	1	-1E+10	1
4902554	60	C	10/03/2022	09:03	-133.535	48.922	0	176.00	0	5.6160	0	33.6840	0	26.562	0	174.434	0	-1e10	8	-1e10	8	-1E+10	1	-1E+10	1	-1E+10	1	-1E+10	1	-1E+10	1	-1E+10	1
4902554	60	C	10/03/2022	09:03	-133.535	48.922	0	176.80	0	5.6020	0	33.6870	0	26.566	0	175.227	0	-1e10	8	-1e10	8	-1E+10	1	-1E+10	1	-1E+10	1	-1E+10	1	-1E+10	1	-1E+10	1
4902554	60	C	10/03/2022	09:03	-133.535	48.922	0	178.00	0	5.5780	0	33.6910	0	26.572	0	176.415	0	-1e10	8	-1e10	8	-1E+10	1	-1E+10	1	-1E+10	1	-1E+10	1	-1E+10	1	-1E+10	1
4902554	60	C	10/03/2022	09:03	-133.535	48.922	0	179.20	0	5.5480	0	33.6970	0	26.580	0	177.604	0	-1e10	8	-1e10	8	-1E+10	1	-1E+10	1	-1E+10	1	-1E+10	1	-1E+10	1	-1E+10	1
4902554	60	C	10/03/2022	09:03	-133.535	48.922	0	180.00	0	5.5270	0	33.7000	0	26.585	0	178.397	0	-1e10	8	-1e10	8	-1E+10	1	-1E+10	1	-1E+10	1	-1E+10	1	-1E+10	1	-1E+10	1
4902554	60	C	10/03/2022	09:03	-133.535	48.922	0	180.80	0	5.5080	0	33.7050	0	26.591	0	179.189	0	-1e10	8	-1e10	8	-1E+10	1	-1E+10	1	-1E+10	1	-1E+10	1	-1E+10	1	-1E+10	1
4902554	60	C	10/03/2022	09:03	-133.535	48.922	0	182.00	0	5.4960	0	33.7070	0	26.594	0	180.378	0	-1e10	8	-1e10	8	-1E+10	1	-1E+10	1	-1E+10	1	-1E+10	1	-1E+10	1	-1E+10	1
4902554	60	C	10/03/2022	09:03	-133.535	48.922	0	183.20	0	5.4880	0	33.7090	0	26.597	0	181.567	0	-1e10	8	-1e10	8	-1E+10	1	-1E+10	1	-1E+10	1	-1E+10	1	-1E+10	1	-1E+10	1
4902554	60	C	10/03/2022	09:03	-133.535	48.922	0	184.10	0	5.4850	0	33.7090	0	26.597	0	182.458	0	-1e10	8	-1e10	8	-1E+10	1	-1E+10	1	-1E+10	1	-1E+10	1	-1E+10	1	-1E+10	1
4902554	60	C	10/03/2022	09:03	-133.535	48.922	0	184.90	0	5.4740	0	33.7110	0	26.600	0	183.251	0	-1e10	8	-1e10	8	-1E+10	1	-1E+10	1	-1E+10	1	-1E+10	1	-1E+10	1	-1E+10	1
4902554	60	C	10/03/2022	09:03	-133.535	48.922	0	185.70	0	5.4610	0	33.7130	0	26.603	0	184.043	0	-1e10	8	-1e10	8	-1E+10	1	-1E+10	1	-1E+10	1	-1E+10	1	-1E+10	1	-1E+10	1
4902554	60	C	10/03/2022	09:03	-133.535	48.922	0	186.90	0	5.4310	0	33.7170	0	26.610	0	185.232	0	-1e10	8	-1e10	8	-1E+10	1	-1E+10	1	-1E+10	1	-1E+10	1	-1E+10	1	-1E+10	1
4902554	60	C	10/03/2022	09:03	-133.535	48.922	0	188.20	0	5.3890	0	33.7240	0	26.621	0	186.520	0	-1e10	8	-1e10	8	-1E+10	1	-1E+10	1	-1E+10	1	-1E+10	1	-1E+10	1	-1E+10	1
4902554	60	C	10/03/2022	09:03	-133.535	48.922	0	189.10	0	5.3680	0	33.7250	0	26.624	0	187.411	0	-1e10	8	-1e10	8	-1E+10	1	-1E+10	1	-1E+10	1	-1E+10	1	-1E+10	1	-1E+10	1
4902554	60	C	10/03/2022	09:03	-133.535	48.922	0	190.00	0	5.3570	0	33.7270	0	26.627	0	188.303	0	-1e10	8	-1e10	8	-1E+10	1	-1E+10	1	-1E+10	1	-1E+10	1	-1E+10	1	-1E+10	1
4902554	60	C	10/03/2022	09:03	-133.535	48.922	0	190.90	0	5.3540	0	33.7270	0	26.627	0	189.195	0	-1e10	8	-1e10	8	-1E+10	1	-1E+10	1	-1E+10	1	-1E+10	1	-1E+10	1	-1E+10	1
4902554	60	C	10/03/2022	09:03	-133.535	48.922	0	191.70	0	5.3540	0	33.7250	0	26.625	0	189.987	0	-1e10	8	-1e10	8	-1E+10	1	-1E+10	1	-1E+10	1	-1E+10	1	-1E+10	1	-1E+10	1
4902554	60	C	10/03/2022	09:03	-133.535	48.922	0	192.60	0	5.3510	0	33.7260	0	26.627	0	190.879	0	-1e10	8	-1e10	8	-1E+10	1	-1E+10	1	-1E+10	1	-1E+10	1	-1E+10	1	-1E+10	1
4902554	60	C	10/03/2022	09:03	-133.535	48.922	0	193.90	0	5.3270	0	33.7300	0	26.633	0	192.166	0	-1e10	8	-1e10	8	-1E+10	1	-1E+10	1	-1E+10	1	-1E+10	1	-1E+10	1	-1E+10	1
4902554	60	C	10/03/2022	09:03	-133.535	48.922	0	195.30	0	5.2940	0	33.7290	0	26.636	0	193.553	0	-1e10	8	-1e10	8	-1E+10	1	-1E+10	1	-1E+10	1	-1E+10	1	-1E+10	1	-1E+10	1
4902554	60	C	10/03/2022	09:03	-133.535	48.922	0	196.30	0	5.2770	0	33.7350	0	26.642	0	194.544	0	-1e10	8	-1e10	8	-1E+10	1	-1E+10	1	-1E+10	1	-1E+10	1	-1E+10	1	-1E+10	1
4902554	60	C	10/03/2022	09:03	-133.535	48.922	0	197.20	0	5.2760	0	33.7350	0	26.643	0	195.435	0	-1e10	8	-1e10	8	-1E+10	1	-1E+10	1	-1E+10	1	-1E+10	1	-1E+10	1	-1E+10	1
4902554	60	C	10/03/2022	09:03	-133.535	48.922	0	198.10	0	5.2550	0	33.7390	0	26.648	0	196.327	0	-1e10	8	-1e10	8	-1E+10	1	-1E+10	1	-1E+10	1	-1E+10	1	-1E+10	1	-1E+10	1
4902554	60	C	10/03/2022	09:03	-133.535	48.922	0	199.10	0	5.2450	0	33.7380	0	26.649	0	197.317	0	-1e10	8	-1e10	8	-1E+10	1	-1E+10	1	-1E+10	1	-1E+10	1	-1E+10	1	-1E+10	1
4902554	60	C	10/03/2022	09:03	-133.535	48.922	0	200.00	0	5.2150	0	33.7420	0	26.655	0	198.209	0	-1e10	8	-1e10	8	-1E+10	1	-1E+10	1	-1E+10	1	-1E+10	1	-1E+10	1	-1E+10	1
4902554	60	C	10/03/2022	09:03	-133.535	48.922	0	200.90	0	5.1930	0	33.7440	0	26.659	0	199.100	0	-1e10	8	-1e10	8	-1E+10	1	-1E+10	1	-1E+10	1	-1E+10	1	-1E+10	1	-1E+10	1
4902554	60	C	10/03/2022	09:03	-133.535	48.922	0	201.90	0	5.1810	0	33.7450	0	26.662	0	200.091	0	-1e10	8	-1e10	8	-1E+10	1	-1E+10	1	-1E+10	1	-1E+10	1	-1E+10	1	-1E+10	1
4902554	60	C	10/03/2022	09:03	-133.535	48.922	0	202.90	0	5.1790	0	33.7450	0	26.662	0	201.082	0	-1e10	8	-1e10	8	-1E+10	1	-1E+10	1	-1E+10	1	-1E+10	1	-1E+10	1	-1E+10	1
4902554	60	C	10/03/2022	09:03	-133.535	48.922	0	203.80	0	5.1780	0	33.7450	0	26.662	0	201.973	0	-1e10	8	-1e10	8	-1E+10	1	-1E+10	1	-1E+10	1	-1E+10	1	-1E+10	1	-1E+10	1
4902554	60	C	10/03/2022	09:03	-133.535	48.922	0	204.80	0	5.1770	0	33.7450	0	26.662	0	202.964	0	-1e10	8	-1e10	8	-1E+10	1	-1E+10	1	-1E+10	1	-1E+10	1	-1E+10	1	-1E+10	1
4902554	60	C	10/03/2022	09:03	-133.535	48.922	0	205.70	0	5.1750	0	33.7450	0	26.662	0	203.855	0	-1e10	8	-1e10	8	-1E+10	1	-1E+10	1	-1E+10	1	-1E+10	1	-1E+10	1	-1E+10	1
4902554	60	C	10/03/2022	09:03	-133.535	48.922	0	206.60	0	5.1730	0	33.7460	0	26.663	0	204.747	0	-1e10	8	-1e10	8	-1E+10	1	-1E+10	1	-1E+10	1	-1E+10	1	-1E+10	1	-1E+10	1
4902554	60	C	10/03/2022	09:03	-133.535	48.922	0	207.60	0	5.1720	0	33.7450	0	26.663	0	205.737	0	-1e10	8	-1e10	8	-1E+10	1	-1E+10	1	-1E+10	1	-1E+10	1	-1E+10	1	-1E+10	1
4902554	60	C	10/03/2022	09:03	-133.535	48.922	0	208.50	0	5.1690	0	33.7450	0	26.663	0	206.629	0	-1e10	8	-1e10	8	-1E+10	1	-1E+10	1	-1E+10	1	-1E+10	1	-1E+10	1	-1E+10	1
4902554	60	C	10/03/2022	09:03	-133.535	48.922	0	209.90	0	5.1630	0	33.7460	0	26.664	0	208.015	0	-1e10	8	-1e10	8	-1E+10	1	-1E+10	1	-1E+10	1	-1E+10	1	-1E+10	1	-1E+10	1
4902554	60	C	10/03/2022	09:03	-133.535	48.922	0	211.30	0	5.1530	0	33.7460	0	26.666	0	209.402	0	-1e10	8	-1e10	8	-1E+10	1	-1E+10	1	-1E+10	1	-1E+10	1	-1E+10	1	-1E+10	1
4902554	60	C	10/03/2022	09:03	-133.535	48.922	0	212.20	0	5.1470	0	33.7470	0	26.667	0	210.293	0	-1e10	8	-1e10	8	-1E+10	1	-1E+10	1	-1E+10	1	-1E+10	1	-1E+10	1	-1E+10	1
4902554	60	C	10/03/2022	09:03	-133.535	48.922	0	213.20	0	5.1340	0	33.7480	0	26.669	0	211.284	0	-1e10	8	-1e10	8	-1E+10	1	-1E+10	1	-1E+10	1	-1E+10	1	-1E+10	1	-1E+10	1
4902554	60	C	10/03/2022	09:03	-133.535	48.922	0	214.10	0	5.1180	0	33.7480	0	26.671	0	212.175	0	-1e10	8	-1e10	8	-1E+10	1	-1E+10	1	-1E+10	1	-1E+10	1	-1E+10	1	-1E+10	1
4902554	60	C	10/03/2022	09:03	-133.535	48.922	0	215.00	0	5.1030	0	33.7520	0	26.676	0	213.067	0	-1e10	8	-1e10	8	-1E+10	1	-1E+10	1	-1E+10	1	-1E+10	1	-1E+10	1	-1E+10	1
4902554	60	C	10/03/2022	09:03	-133.535	48.922	0	215.90	0	5.0700	0	33.7530	0	26.681	0	213.958	0	-1e10	8	-1e10	8	-1E+10	1	-1E+10	1	-1E+10	1	-1E+10	1	-1E+10	1	-1E+10	1
4902554	60	C	10/03/2022	09:03	-133.535	48.922	0	216.80	0	5.0480	0	33.7540	0	26.684	0	214.850	0	-1e10	8	-1e10	8	-1E+10	1	-1E+10	1	-1E+10	1	-1E+10	1	-1E+10	1	-1E+10	1
4902554	60	C	10/03/2022	09:03	-133.535	48.922	0	217.80	0	5.0380	0	33.7550	0	26.686	0	215.840	0	-1e10	8	-1e10	8	-1E+10	1	-1E+10	1	-1E+10	1	-1E+10	1	-1E+10	1	-1E+10	1
4902554	60	C	10/03/2022	09:03	-133.535	48.922	0	218.70	0	5.0330	0	33.7550	0	26.687	0	216.732	0	-1e10	8	-1e10	8	-1E+10	1	-1E+10	1	-1E+10	1	-1E+10	1	-1E+10	1	-1E+10	1
4902554	60	C	10/03/2022	09:03	-133.535	48.922	0	219.60	0	5.0240	0	33.7570	0	26.689	0	217.623	0	-1e10	8	-1e10	8	-1E+10	1	-1E+10	1	-1E+10	1	-1E+10	1	-1E+10	1	-1E+10	1
4902554	60	C	10/03/2022	09:03	-133.535	48.922	0	220.90	0	5.0180	0	33.7570	0	26.690	0	218.911	0	-1e10	8	-1e10	8	-1E+10	1	-1E+10	1	-1E+10	1	-1E+10	1	-1E+10	1	-1E+10	1
4902554	60	C	10/03/2022	09:03	-133.535	48.922	0	222.30	0	5.0130	0	33.7580	0	26.691	0	220.297	0	-1e10	8	-1e10	8	-1E+10	1	-1E+10	1	-1E+10	1	-1E+10	1	-1E+10	1	-1E+10	1
4902554	60	C	10/03/2022	09:03	-133.535	48.922	0	223.20	0	5.0070	0	33.7580	0	26.692	0	221.189	0	-1e10	8	-1e10	8	-1E+10	1	-1E+10	1	-1E+10	1	-1E+10	1	-1E+10	1	-1E+10	1
4902554	60	C	10/03/2022	09:03	-133.535	48.922	0	224.10	0	5.0020	0	33.7580	0	26.692	0	222.080	0	-1e10	8	-1e10	8	-1E+10	1	-1E+10	1	-1E+10	1	-1E+10	1	-1E+10	1	-1E+10	1
4902554	60	C	10/03/2022	09:03	-133.535	48.922	0	224.90	0	4.9880	0	33.7620	0	26.697	0	222.873	0	-1e10	8	-1e10	8	-1E+10	1	-1E+10	1	-1E+10	1	-1E+10	1	-1E+10	1	-1E+10	1
4902554	60	C	10/03/2022	09:03	-133.535	48.922	0	225.80	0	4.9560	0	33.7640	0	26.702	0	223.764	0	-1e10	8	-1e10	8	-1E+10	1	-1E+10	1	-1E+10	1	-1E+10	1	-1E+10	1	-1E+10	1
4902554	60	C	10/03/2022	09:03	-133.535	48.922	0	226.70	0	4.9230	0	33.7710	0	26.712	0	224.655	0	-1e10	8	-1e10	8	-1E+10	1	-1E+10	1	-1E+10	1	-1E+10	1	-1E+10	1	-1E+10	1
4902554	60	C	10/03/2022	09:03	-133.535	48.922	0	227.60	0	4.9120	0	33.7730	0	26.715	0	225.547	0	-1e10	8	-1e10	8	-1E+10	1	-1E+10	1	-1E+10	1	-1E+10	1	-1E+10	1	-1E+10	1
4902554	60	C	10/03/2022	09:03	-133.535	48.922	0	228.90	0	4.9000	0	33.7750	0	26.717	0	226.834	0	-1e10	8	-1e10	8	-1E+10	1	-1E+10	1	-1E+10	1	-1E+10	1	-1E+10	1	-1E+10	1
4902554	60	C	10/03/2022	09:03	-133.535	48.922	0	230.20	0	4.8890	0	33.7760	0	26.719	0	228.122	0	-1e10	8	-1e10	8	-1E+10	1	-1E+10	1	-1E+10	1	-1E+10	1	-1E+10	1	-1E+10	1
4902554	60	C	10/03/2022	09:03	-133.535	48.922	0	231.10	0	4.8830	0	33.7780	0	26.722	0	229.013	0	-1e10	8	-1e10	8	-1E+10	1	-1E+10	1	-1E+10	1	-1E+10	1	-1E+10	1	-1E+10	1
4902554	60	C	10/03/2022	09:03	-133.535	48.922	0	232.00	0	4.8780	0	33.7780	0	26.722	0	229.905	0	-1e10	8	-1e10	8	-1E+10	1	-1E+10	1	-1E+10	1	-1E+10	1	-1E+10	1	-1E+10	1
4902554	60	C	10/03/2022	09:03	-133.535	48.922	0	232.80	0	4.8730	0	33.7790	0	26.724	0	230.697	0	-1e10	8	-1e10	8	-1E+10	1	-1E+10	1	-1E+10	1	-1E+10	1	-1E+10	1	-1E+10	1
4902554	60	C	10/03/2022	09:03	-133.535	48.922	0	233.70	0	4.8700	0	33.7790	0	26.724	0	231.588	0	-1e10	8	-1e10	8	-1E+10	1	-1E+10	1	-1E+10	1	-1E+10	1	-1E+10	1	-1E+10	1
4902554	60	C	10/03/2022	09:03	-133.535	48.922	0	235.00	0	4.8670	0	33.7800	0	26.725	0	232.876	0	-1e10	8	-1e10	8	-1E+10	1	-1E+10	1	-1E+10	1	-1E+10	1	-1E+10	1	-1E+10	1
4902554	60	C	10/03/2022	09:03	-133.535	48.922	0	236.30	0	4.8620	0	33.7810	0	26.727	0	234.163	0	-1e10	8	-1e10	8	-1E+10	1	-1E+10	1	-1E+10	1	-1E+10	1	-1E+10	1	-1E+10	1
4902554	60	C	10/03/2022	09:03	-133.535	48.922	0	237.10	0	4.8600	0	33.7820	0	26.728	0	234.956	0	-1e10	8	-1e10	8	-1E+10	1	-1E+10	1	-1E+10	1	-1E+10	1	-1E+10	1	-1E+10	1
4902554	60	C	10/03/2022	09:03	-133.535	48.922	0	238.00	0	4.8580	0	33.7820	0	26.728	0	235.847	0	-1e10	8	-1e10	8	-1E+10	1	-1E+10	1	-1E+10	1	-1E+10	1	-1E+10	1	-1E+10	1
4902554	60	C	10/03/2022	09:03	-133.535	48.922	0	238.90	0	4.8570	0	33.7810	0	26.727	0	236.738	0	-1e10	8	-1e10	8	-1E+10	1	-1E+10	1	-1E+10	1	-1E+10	1	-1E+10	1	-1E+10	1
4902554	60	C	10/03/2022	09:03	-133.535	48.922	0	239.70	0	4.8560	0	33.7810	0	26.727	0	237.531	0	-1e10	8	-1e10	8	-1E+10	1	-1E+10	1	-1E+10	1	-1E+10	1	-1E+10	1	-1E+10	1
4902554	60	C	10/03/2022	09:03	-133.535	48.922	0	241.00	0	4.8480	0	33.7810	0	26.728	0	238.818	0	-1e10	8	-1e10	8	-1E+10	1	-1E+10	1	-1E+10	1	-1E+10	1	-1E+10	1	-1E+10	1
4902554	60	C	10/03/2022	09:03	-133.535	48.922	0	242.30	0	4.8430	0	33.7810	0	26.729	0	240.106	0	-1e10	8	-1e10	8	-1E+10	1	-1E+10	1	-1E+10	1	-1E+10	1	-1E+10	1	-1E+10	1
4902554	60	C	10/03/2022	09:03	-133.535	48.922	0	243.20	0	4.8080	0	33.7920	0	26.741	0	240.997	0	-1e10	8	-1e10	8	-1E+10	1	-1E+10	1	-1E+10	1	-1E+10	1	-1E+10	1	-1E+10	1
4902554	60	C	10/03/2022	09:03	-133.535	48.922	0	244.00	0	4.7960	0	33.7880	0	26.739	0	241.789	0	-1e10	8	-1e10	8	-1E+10	1	-1E+10	1	-1E+10	1	-1E+10	1	-1E+10	1	-1E+10	1
4902554	60	C	10/03/2022	09:03	-133.535	48.922	0	244.90	0	4.7940	0	33.7880	0	26.740	0	242.680	0	-1e10	8	-1e10	8	-1E+10	1	-1E+10	1	-1E+10	1	-1E+10	1	-1E+10	1	-1E+10	1
4902554	60	C	10/03/2022	09:03	-133.535	48.922	0	245.80	0	4.7930	0	33.7870	0	26.739	0	243.572	0	-1e10	8	-1e10	8	-1E+10	1	-1E+10	1	-1E+10	1	-1E+10	1	-1E+10	1	-1E+10	1
4902554	60	C	10/03/2022	09:03	-133.535	48.922	0	246.60	0	4.7670	0	33.7900	0	26.744	0	244.364	0	-1e10	8	-1e10	8	-1E+10	1	-1E+10	1	-1E+10	1	-1E+10	1	-1E+10	1	-1E+10	1
4902554	60	C	10/03/2022	09:03	-133.535	48.922	0	247.90	0	4.7570	0	33.7920	0	26.747	0	245.652	0	-1e10	8	-1e10	8	-1E+10	1	-1E+10	1	-1E+10	1	-1E+10	1	-1E+10	1	-1E+10	1
4902554	60	C	10/03/2022	09:03	-133.535	48.922	0	249.30	0	4.7510	0	33.7930	0	26.748	0	247.038	0	-1e10	8	-1e10	8	-1E+10	1	-1E+10	1	-1E+10	1	-1E+10	1	-1E+10	1	-1E+10	1
4902554	60	C	10/03/2022	09:03	-133.535	48.922	0	250.20	0	4.7500	0	33.7930	0	26.749	0	247.929	0	-1e10	8	-1e10	8	-1E+10	1	-1E+10	1	-1E+10	1	-1E+10	1	-1E+10	1	-1E+10	1
4902554	60	C	10/03/2022	09:03	-133.535	48.922	0	251.00	0	4.7480	0	33.7940	0	26.750	0	248.722	0	-1e10	8	-1e10	8	-1E+10	1	-1E+10	1	-1E+10	1	-1E+10	1	-1E+10	1	-1E+10	1
4902554	60	C	10/03/2022	09:03	-133.535	48.922	0	252.00	0	4.7450	0	33.7940	0	26.750	0	249.712	0	-1e10	8	-1e10	8	-1E+10	1	-1E+10	1	-1E+10	1	-1E+10	1	-1E+10	1	-1E+10	1
4902554	60	C	10/03/2022	09:03	-133.535	48.922	0	252.80	0	4.7430	0	33.7950	0	26.751	0	250.504	0	-1e10	8	-1e10	8	-1E+10	1	-1E+10	1	-1E+10	1	-1E+10	1	-1E+10	1	-1E+10	1
4902554	60	C	10/03/2022	09:03	-133.535	48.922	0	253.70	0	4.7420	0	33.7950	0	26.751	0	251.395	0	-1e10	8	-1e10	8	-1E+10	1	-1E+10	1	-1E+10	1	-1E+10	1	-1E+10	1	-1E+10	1
4902554	60	C	10/03/2022	09:03	-133.535	48.922	0	254.60	0	4.7380	0	33.7960	0	26.752	0	252.287	0	-1e10	8	-1e10	8	-1E+10	1	-1E+10	1	-1E+10	1	-1E+10	1	-1E+10	1	-1E+10	1
4902554	60	C	10/03/2022	09:03	-133.535	48.922	0	255.90	0	4.7360	0	33.7960	0	26.753	0	253.574	0	-1e10	8	-1e10	8	-1E+10	1	-1E+10	1	-1E+10	1	-1E+10	1	-1E+10	1	-1E+10	1
4902554	60	C	10/03/2022	09:03	-133.535	48.922	0	257.30	0	4.7170	0	33.7980	0	26.756	0	254.960	0	-1e10	8	-1e10	8	-1E+10	1	-1E+10	1	-1E+10	1	-1E+10	1	-1E+10	1	-1E+10	1
4902554	60	C	10/03/2022	09:03	-133.535	48.922	0	258.20	0	4.7140	0	33.7990	0	26.757	0	255.852	0	-1e10	8	-1e10	8	-1E+10	1	-1E+10	1	-1E+10	1	-1E+10	1	-1E+10	1	-1E+10	1
4902554	60	C	10/03/2022	09:03	-133.535	48.922	0	259.20	0	4.7150	0	33.7980	0	26.756	0	256.842	0	-1e10	8	-1e10	8	-1E+10	1	-1E+10	1	-1E+10	1	-1E+10	1	-1E+10	1	-1E+10	1
4902554	60	C	10/03/2022	09:03	-133.535	48.922	0	260.10	0	4.7130	0	33.7980	0	26.757	0	257.733	0	-1e10	8	-1e10	8	-1E+10	1	-1E+10	1	-1E+10	1	-1E+10	1	-1E+10	1	-1E+10	1
4902554	60	C	10/03/2022	09:03	-133.535	48.922	0	261.00	0	4.7100	0	33.7990	0	26.758	0	258.625	0	-1e10	8	-1e10	8	-1E+10	1	-1E+10	1	-1E+10	1	-1E+10	1	-1E+10	1	-1E+10	1
4902554	60	C	10/03/2022	09:03	-133.535	48.922	0	262.00	0	4.7100	0	33.7990	0	26.758	0	259.615	0	-1e10	8	-1e10	8	-1E+10	1	-1E+10	1	-1E+10	1	-1E+10	1	-1E+10	1	-1E+10	1
4902554	60	C	10/03/2022	09:03	-133.535	48.922	0	262.90	0	4.7070	0	33.7990	0	26.758	0	260.506	0	-1e10	8	-1e10	8	-1E+10	1	-1E+10	1	-1E+10	1	-1E+10	1	-1E+10	1	-1E+10	1
4902554	60	C	10/03/2022	09:03	-133.535	48.922	0	263.90	0	4.6830	0	33.8080	0	26.768	0	261.496	0	-1e10	8	-1e10	8	-1E+10	1	-1E+10	1	-1E+10	1	-1E+10	1	-1E+10	1	-1E+10	1
4902554	60	C	10/03/2022	09:03	-133.535	48.922	0	264.80	0	4.6620	0	33.8050	0	26.768	0	262.388	0	-1e10	8	-1e10	8	-1E+10	1	-1E+10	1	-1E+10	1	-1E+10	1	-1E+10	1	-1E+10	1
4902554	60	C	10/03/2022	09:03	-133.535	48.922	0	265.80	0	4.6630	0	33.8050	0	26.768	0	263.378	0	-1e10	8	-1e10	8	-1E+10	1	-1E+10	1	-1E+10	1	-1E+10	1	-1E+10	1	-1E+10	1
4902554	60	C	10/03/2022	09:03	-133.535	48.922	0	266.80	0	4.6580	0	33.8070	0	26.770	0	264.368	0	-1e10	8	-1e10	8	-1E+10	1	-1E+10	1	-1E+10	1	-1E+10	1	-1E+10	1	-1E+10	1
4902554	60	C	10/03/2022	09:03	-133.535	48.922	0	267.70	0	4.6570	0	33.8060	0	26.769	0	265.259	0	-1e10	8	-1e10	8	-1E+10	1	-1E+10	1	-1E+10	1	-1E+10	1	-1E+10	1	-1E+10	1
4902554	60	C	10/03/2022	09:03	-133.535	48.922	0	268.70	0	4.6540	0	33.8070	0	26.770	0	266.250	0	-1e10	8	-1e10	8	-1E+10	1	-1E+10	1	-1E+10	1	-1E+10	1	-1E+10	1	-1E+10	1
4902554	60	C	10/03/2022	09:03	-133.535	48.922	0	269.60	0	4.6540	0	33.8060	0	26.770	0	267.141	0	-1e10	8	-1e10	8	-1E+10	1	-1E+10	1	-1E+10	1	-1E+10	1	-1E+10	1	-1E+10	1
4902554	60	C	10/03/2022	09:03	-133.535	48.922	0	270.60	0	4.6530	0	33.8070	0	26.770	0	268.131	0	-1e10	8	-1e10	8	-1E+10	1	-1E+10	1	-1E+10	1	-1E+10	1	-1E+10	1	-1E+10	1
4902554	60	C	10/03/2022	09:03	-133.535	48.922	0	271.50	0	4.6530	0	33.8060	0	26.770	0	269.022	0	-1e10	8	-1e10	8	-1E+10	1	-1E+10	1	-1E+10	1	-1E+10	1	-1E+10	1	-1E+10	1
4902554	60	C	10/03/2022	09:03	-133.535	48.922	0	272.50	0	4.6530	0	33.8070	0	26.770	0	270.012	0	-1e10	8	-1e10	8	-1E+10	1	-1E+10	1	-1E+10	1	-1E+10	1	-1E+10	1	-1E+10	1
4902554	60	C	10/03/2022	09:03	-133.535	48.922	0	273.90	0	4.6500	0	33.8060	0	26.770	0	271.399	0	-1e10	8	-1e10	8	-1E+10	1	-1E+10	1	-1E+10	1	-1E+10	1	-1E+10	1	-1E+10	1
4902554	60	C	10/03/2022	09:03	-133.535	48.922	0	275.30	0	4.6470	0	33.8070	0	26.771	0	272.785	0	-1e10	8	-1e10	8	-1E+10	1	-1E+10	1	-1E+10	1	-1E+10	1	-1E+10	1	-1E+10	1
4902554	60	C	10/03/2022	09:03	-133.535	48.922	0	276.30	0	4.6470	0	33.8070	0	26.771	0	273.775	0	-1e10	8	-1e10	8	-1E+10	1	-1E+10	1	-1E+10	1	-1E+10	1	-1E+10	1	-1E+10	1
4902554	60	C	10/03/2022	09:03	-133.535	48.922	0	277.30	0	4.6430	0	33.8070	0	26.772	0	274.765	0	-1e10	8	-1e10	8	-1E+10	1	-1E+10	1	-1E+10	1	-1E+10	1	-1E+10	1	-1E+10	1
4902554	60	C	10/03/2022	09:03	-133.535	48.922	0	278.20	0	4.6420	0	33.8070	0	26.772	0	275.657	0	-1e10	8	-1e10	8	-1E+10	1	-1E+10	1	-1E+10	1	-1E+10	1	-1E+10	1	-1E+10	1
4902554	60	C	10/03/2022	09:03	-133.535	48.922	0	279.20	0	4.6390	0	33.8070	0	26.772	0	276.647	0	-1e10	8	-1e10	8	-1E+10	1	-1E+10	1	-1E+10	1	-1E+10	1	-1E+10	1	-1E+10	1
4902554	60	C	10/03/2022	09:03	-133.535	48.922	0	280.20	0	4.6350	0	33.8080	0	26.773	0	277.637	0	-1e10	8	-1e10	8	-1E+10	1	-1E+10	1	-1E+10	1	-1E+10	1	-1E+10	1	-1E+10	1
4902554	60	C	10/03/2022	09:03	-133.535	48.922	0	281.10	0	4.6290	0	33.8080	0	26.774	0	278.528	0	-1e10	8	-1e10	8	-1E+10	1	-1E+10	1	-1E+10	1	-1E+10	1	-1E+10	1	-1E+10	1
4902554	60	C	10/03/2022	09:03	-133.535	48.922	0	282.10	0	4.6270	0	33.8080	0	26.774	0	279.518	0	-1e10	8	-1e10	8	-1E+10	1	-1E+10	1	-1E+10	1	-1E+10	1	-1E+10	1	-1E+10	1
4902554	60	C	10/03/2022	09:03	-133.535	48.922	0	283.10	0	4.6000	0	33.8190	0	26.786	0	280.508	0	-1e10	8	-1e10	8	-1E+10	1	-1E+10	1	-1E+10	1	-1E+10	1	-1E+10	1	-1E+10	1
4902554	60	C	10/03/2022	09:03	-133.535	48.922	0	284.10	0	4.5840	0	33.8170	0	26.786	0	281.499	0	-1e10	8	-1e10	8	-1E+10	1	-1E+10	1	-1E+10	1	-1E+10	1	-1E+10	1	-1E+10	1
4902554	60	C	10/03/2022	09:03	-133.535	48.922	0	285.10	0	4.5730	0	33.8200	0	26.790	0	282.489	0	-1e10	8	-1e10	8	-1E+10	1	-1E+10	1	-1E+10	1	-1E+10	1	-1E+10	1	-1E+10	1
4902554	60	C	10/03/2022	09:03	-133.535	48.922	0	286.10	0	4.5710	0	33.8200	0	26.790	0	283.479	0	-1e10	8	-1e10	8	-1E+10	1	-1E+10	1	-1E+10	1	-1E+10	1	-1E+10	1	-1E+10	1
4902554	60	C	10/03/2022	09:03	-133.535	48.922	0	287.10	0	4.5670	0	33.8210	0	26.791	0	284.469	0	-1e10	8	-1e10	8	-1E+10	1	-1E+10	1	-1E+10	1	-1E+10	1	-1E+10	1	-1E+10	1
4902554	60	C	10/03/2022	09:03	-133.535	48.922	0	288.10	0	4.5650	0	33.8210	0	26.791	0	285.459	0	-1e10	8	-1e10	8	-1E+10	1	-1E+10	1	-1E+10	1	-1E+10	1	-1E+10	1	-1E+10	1
4902554	60	C	10/03/2022	09:03	-133.535	48.922	0	289.10	0	4.5630	0	33.8220	0	26.792	0	286.449	0	-1e10	8	-1e10	8	-1E+10	1	-1E+10	1	-1E+10	1	-1E+10	1	-1E+10	1	-1E+10	1
4902554	60	C	10/03/2022	09:03	-133.535	48.922	0	290.10	0	4.5590	0	33.8230	0	26.794	0	287.439	0	-1e10	8	-1e10	8	-1E+10	1	-1E+10	1	-1E+10	1	-1E+10	1	-1E+10	1	-1E+10	1
4902554	60	C	10/03/2022	09:03	-133.535	48.922	0	291.10	0	4.5480	0	33.8260	0	26.797	0	288.430	0	-1e10	8	-1e10	8	-1E+10	1	-1E+10	1	-1E+10	1	-1E+10	1	-1E+10	1	-1E+10	1
4902554	60	C	10/03/2022	09:03	-133.535	48.922	0	292.10	0	4.5400	0	33.8290	0	26.800	0	289.420	0	-1e10	8	-1e10	8	-1E+10	1	-1E+10	1	-1E+10	1	-1E+10	1	-1E+10	1	-1E+10	1
4902554	60	C	10/03/2022	09:03	-133.535	48.922	0	293.10	0	4.5340	0	33.8290	0	26.801	0	290.410	0	-1e10	8	-1e10	8	-1E+10	1	-1E+10	1	-1E+10	1	-1E+10	1	-1E+10	1	-1E+10	1
4902554	60	C	10/03/2022	09:03	-133.535	48.922	0	294.10	0	4.5300	0	33.8310	0	26.803	0	291.400	0	-1e10	8	-1e10	8	-1E+10	1	-1E+10	1	-1E+10	1	-1E+10	1	-1E+10	1	-1E+10	1
4902554	60	C	10/03/2022	09:03	-133.535	48.922	0	295.10	0	4.5310	0	33.8300	0	26.802	0	292.390	0	-1e10	8	-1e10	8	-1E+10	1	-1E+10	1	-1E+10	1	-1E+10	1	-1E+10	1	-1E+10	1
4902554	60	C	10/03/2022	09:03	-133.535	48.922	0	296.10	0	4.5300	0	33.8300	0	26.802	0	293.380	0	-1e10	8	-1e10	8	-1E+10	1	-1E+10	1	-1E+10	1	-1E+10	1	-1E+10	1	-1E+10	1
4902554	60	C	10/03/2022	09:03	-133.535	48.922	0	297.10	0	4.5260	0	33.8310	0	26.804	0	294.370	0	-1e10	8	-1e10	8	-1E+10	1	-1E+10	1	-1E+10	1	-1E+10	1	-1E+10	1	-1E+10	1
4902554	60	C	10/03/2022	09:03	-133.535	48.922	0	298.20	0	4.5240	0	33.8310	0	26.804	0	295.459	0	-1e10	8	-1e10	8	-1E+10	1	-1E+10	1	-1E+10	1	-1E+10	1	-1E+10	1	-1E+10	1
4902554	60	C	10/03/2022	09:03	-133.535	48.922	0	299.20	0	4.5140	0	33.8360	0	26.809	0	296.450	0	-1e10	8	-1e10	8	-1E+10	1	-1E+10	1	-1E+10	1	-1E+10	1	-1E+10	1	-1E+10	1
4902554	60	C	10/03/2022	09:03	-133.535	48.922	0	300.20	0	4.5120	0	33.8350	0	26.808	0	297.440	0	-1e10	8	-1e10	8	-1E+10	1	-1E+10	1	-1E+10	1	-1E+10	1	-1E+10	1	-1E+10	1
4902554	60	C	10/03/2022	09:03	-133.535	48.922	0	301.30	0	4.5080	0	33.8350	0	26.809	0	298.529	0	-1e10	8	-1e10	8	-1E+10	1	-1E+10	1	-1E+10	1	-1E+10	1	-1E+10	1	-1E+10	1
4902554	60	C	10/03/2022	09:03	-133.535	48.922	0	302.30	0	4.5060	0	33.8350	0	26.809	0	299.519	0	-1e10	8	-1e10	8	-1E+10	1	-1E+10	1	-1E+10	1	-1E+10	1	-1E+10	1	-1E+10	1
4902554	60	C	10/03/2022	09:03	-133.535	48.922	0	303.30	0	4.5000	0	33.8370	0	26.811	0	300.509	0	-1e10	8	-1e10	8	-1E+10	1	-1E+10	1	-1E+10	1	-1E+10	1	-1E+10	1	-1E+10	1
4902554	60	C	10/03/2022	09:03	-133.535	48.922	0	304.40	0	4.5010	0	33.8370	0	26.811	0	301.598	0	-1e10	8	-1e10	8	-1E+10	1	-1E+10	1	-1E+10	1	-1E+10	1	-1E+10	1	-1E+10	1
4902554	60	C	10/03/2022	09:03	-133.535	48.922	0	305.50	0	4.5000	0	33.8370	0	26.811	0	302.687	0	-1e10	8	-1e10	8	-1E+10	1	-1E+10	1	-1E+10	1	-1E+10	1	-1E+10	1	-1E+10	1
4902554	60	C	10/03/2022	09:03	-133.535	48.922	0	306.50	0	4.5000	0	33.8370	0	26.811	0	303.677	0	-1e10	8	-1e10	8	-1E+10	1	-1E+10	1	-1E+10	1	-1E+10	1	-1E+10	1	-1E+10	1
4902554	60	C	10/03/2022	09:03	-133.535	48.922	0	307.60	0	4.4990	0	33.8370	0	26.811	0	304.766	0	-1e10	8	-1e10	8	-1E+10	1	-1E+10	1	-1E+10	1	-1E+10	1	-1E+10	1	-1E+10	1
4902554	60	C	10/03/2022	09:03	-133.535	48.922	0	308.60	0	4.4980	0	33.8370	0	26.811	0	305.756	0	-1e10	8	-1e10	8	-1E+10	1	-1E+10	1	-1E+10	1	-1E+10	1	-1E+10	1	-1E+10	1
4902554	60	C	10/03/2022	09:03	-133.535	48.922	0	309.70	0	4.4900	0	33.8400	0	26.815	0	306.845	0	-1e10	8	-1e10	8	-1E+10	1	-1E+10	1	-1E+10	1	-1E+10	1	-1E+10	1	-1E+10	1
4902554	60	C	10/03/2022	09:03	-133.535	48.922	0	310.80	0	4.4840	0	33.8410	0	26.816	0	307.934	0	-1e10	8	-1e10	8	-1E+10	1	-1E+10	1	-1E+10	1	-1E+10	1	-1E+10	1	-1E+10	1
4902554	60	C	10/03/2022	09:03	-133.535	48.922	0	311.80	0	4.4820	0	33.8410	0	26.816	0	308.924	0	-1e10	8	-1e10	8	-1E+10	1	-1E+10	1	-1E+10	1	-1E+10	1	-1E+10	1	-1E+10	1
4902554	60	C	10/03/2022	09:03	-133.535	48.922	0	312.90	0	4.4760	0	33.8430	0	26.819	0	310.013	0	-1e10	8	-1e10	8	-1E+10	1	-1E+10	1	-1E+10	1	-1E+10	1	-1E+10	1	-1E+10	1
4902554	60	C	10/03/2022	09:03	-133.535	48.922	0	313.90	0	4.4710	0	33.8440	0	26.820	0	311.003	0	-1e10	8	-1e10	8	-1E+10	1	-1E+10	1	-1E+10	1	-1E+10	1	-1E+10	1	-1E+10	1
4902554	60	C	10/03/2022	09:03	-133.535	48.922	0	315.00	0	4.4620	0	33.8460	0	26.822	0	312.092	0	-1e10	8	-1e10	8	-1E+10	1	-1E+10	1	-1E+10	1	-1E+10	1	-1E+10	1	-1E+10	1
4902554	60	C	10/03/2022	09:03	-133.535	48.922	0	316.00	0	4.4570	0	33.8480	0	26.825	0	313.082	0	-1e10	8	-1e10	8	-1E+10	1	-1E+10	1	-1E+10	1	-1E+10	1	-1E+10	1	-1E+10	1
4902554	60	C	10/03/2022	09:03	-133.535	48.922	0	317.10	0	4.4470	0	33.8520	0	26.829	0	314.171	0	-1e10	8	-1e10	8	-1E+10	1	-1E+10	1	-1E+10	1	-1E+10	1	-1E+10	1	-1E+10	1
4902554	60	C	10/03/2022	09:03	-133.535	48.922	0	318.20	0	4.4390	0	33.8540	0	26.831	0	315.260	0	-1e10	8	-1e10	8	-1E+10	1	-1E+10	1	-1E+10	1	-1E+10	1	-1E+10	1	-1E+10	1
4902554	60	C	10/03/2022	09:03	-133.535	48.922	0	319.20	0	4.4360	0	33.8550	0	26.832	0	316.250	0	-1e10	8	-1e10	8	-1E+10	1	-1E+10	1	-1E+10	1	-1E+10	1	-1E+10	1	-1E+10	1
4902554	60	C	10/03/2022	09:03	-133.535	48.922	0	320.30	0	4.4360	0	33.8550	0	26.832	0	317.339	0	-1e10	8	-1e10	8	-1E+10	1	-1E+10	1	-1E+10	1	-1E+10	1	-1E+10	1	-1E+10	1
4902554	60	C	10/03/2022	09:03	-133.535	48.922	0	321.40	0	4.4350	0	33.8550	0	26.833	0	318.428	0	-1e10	8	-1e10	8	-1E+10	1	-1E+10	1	-1E+10	1	-1E+10	1	-1E+10	1	-1E+10	1
4902554	60	C	10/03/2022	09:03	-133.535	48.922	0	322.40	0	4.4270	0	33.8580	0	26.836	0	319.418	0	-1e10	8	-1e10	8	-1E+10	1	-1E+10	1	-1E+10	1	-1E+10	1	-1E+10	1	-1E+10	1
4902554	60	C	10/03/2022	09:03	-133.535	48.922	0	323.50	0	4.4250	0	33.8590	0	26.837	0	320.507	0	-1e10	8	-1e10	8	-1E+10	1	-1E+10	1	-1E+10	1	-1E+10	1	-1E+10	1	-1E+10	1
4902554	60	C	10/03/2022	09:03	-133.535	48.922	0	324.60	0	4.4190	0	33.8610	0	26.839	0	321.596	0	-1e10	8	-1e10	8	-1E+10	1	-1E+10	1	-1E+10	1	-1E+10	1	-1E+10	1	-1E+10	1
4902554	60	C	10/03/2022	09:03	-133.535	48.922	0	325.80	0	4.4150	0	33.8620	0	26.840	0	322.784	0	-1e10	8	-1e10	8	-1E+10	1	-1E+10	1	-1E+10	1	-1E+10	1	-1E+10	1	-1E+10	1
4902554	60	C	10/03/2022	09:03	-133.535	48.922	0	326.80	0	4.4100	0	33.8640	0	26.842	0	323.774	0	-1e10	8	-1e10	8	-1E+10	1	-1E+10	1	-1E+10	1	-1E+10	1	-1E+10	1	-1E+10	1
4902554	60	C	10/03/2022	09:03	-133.535	48.922	0	327.90	0	4.4080	0	33.8650	0	26.843	0	324.863	0	-1e10	8	-1e10	8	-1E+10	1	-1E+10	1	-1E+10	1	-1E+10	1	-1E+10	1	-1E+10	1
4902554	60	C	10/03/2022	09:03	-133.535	48.922	0	329.10	0	4.4050	0	33.8660	0	26.844	0	326.051	0	-1e10	8	-1e10	8	-1E+10	1	-1E+10	1	-1E+10	1	-1E+10	1	-1E+10	1	-1E+10	1
4902554	60	C	10/03/2022	09:03	-133.535	48.922	0	330.20	0	4.3990	0	33.8680	0	26.847	0	327.140	0	-1e10	8	-1e10	8	-1E+10	1	-1E+10	1	-1E+10	1	-1E+10	1	-1E+10	1	-1E+10	1
4902554	60	C	10/03/2022	09:03	-133.535	48.922	0	331.30	0	4.3980	0	33.8690	0	26.848	0	328.229	0	-1e10	8	-1e10	8	-1E+10	1	-1E+10	1	-1E+10	1	-1E+10	1	-1E+10	1	-1E+10	1
4902554	60	C	10/03/2022	09:03	-133.535	48.922	0	332.40	0	4.3970	0	33.8690	0	26.848	0	329.318	0	-1e10	8	-1e10	8	-1E+10	1	-1E+10	1	-1E+10	1	-1E+10	1	-1E+10	1	-1E+10	1
4902554	60	C	10/03/2022	09:03	-133.535	48.922	0	333.50	0	4.3960	0	33.8690	0	26.848	0	330.407	0	-1e10	8	-1e10	8	-1E+10	1	-1E+10	1	-1E+10	1	-1E+10	1	-1E+10	1	-1E+10	1
4902554	60	C	10/03/2022	09:03	-133.535	48.922	0	334.60	0	4.3960	0	33.8690	0	26.848	0	331.496	0	-1e10	8	-1e10	8	-1E+10	1	-1E+10	1	-1E+10	1	-1E+10	1	-1E+10	1	-1E+10	1
4902554	60	C	10/03/2022	09:03	-133.535	48.922	0	335.80	0	4.3880	0	33.8730	0	26.852	0	332.684	0	-1e10	8	-1e10	8	-1E+10	1	-1E+10	1	-1E+10	1	-1E+10	1	-1E+10	1	-1E+10	1
4902554	60	C	10/03/2022	09:03	-133.535	48.922	0	336.90	0	4.3800	0	33.8770	0	26.856	0	333.773	0	-1e10	8	-1e10	8	-1E+10	1	-1E+10	1	-1E+10	1	-1E+10	1	-1E+10	1	-1E+10	1
4902554	60	C	10/03/2022	09:03	-133.535	48.922	0	338.10	0	4.3760	0	33.8780	0	26.857	0	334.960	0	-1e10	8	-1e10	8	-1E+10	1	-1E+10	1	-1E+10	1	-1E+10	1	-1E+10	1	-1E+10	1
4902554	60	C	10/03/2022	09:03	-133.535	48.922	0	339.20	0	4.3720	0	33.8800	0	26.859	0	336.049	0	-1e10	8	-1e10	8	-1E+10	1	-1E+10	1	-1E+10	1	-1E+10	1	-1E+10	1	-1E+10	1
4902554	60	C	10/03/2022	09:03	-133.535	48.922	0	340.40	0	4.3710	0	33.8800	0	26.859	0	337.237	0	-1e10	8	-1e10	8	-1E+10	1	-1E+10	1	-1E+10	1	-1E+10	1	-1E+10	1	-1E+10	1
4902554	60	C	10/03/2022	09:03	-133.535	48.922	0	341.50	0	4.3680	0	33.8810	0	26.860	0	338.326	0	-1e10	8	-1e10	8	-1E+10	1	-1E+10	1	-1E+10	1	-1E+10	1	-1E+10	1	-1E+10	1
4902554	60	C	10/03/2022	09:03	-133.535	48.922	0	342.70	0	4.3650	0	33.8830	0	26.862	0	339.514	0	-1e10	8	-1e10	8	-1E+10	1	-1E+10	1	-1E+10	1	-1E+10	1	-1E+10	1	-1E+10	1
4902554	60	C	10/03/2022	09:03	-133.535	48.922	0	343.90	0	4.3610	0	33.8850	0	26.864	0	340.702	0	-1e10	8	-1e10	8	-1E+10	1	-1E+10	1	-1E+10	1	-1E+10	1	-1E+10	1	-1E+10	1
4902554	60	C	10/03/2022	09:03	-133.535	48.922	0	345.00	0	4.3570	0	33.8870	0	26.866	0	341.791	0	-1e10	8	-1e10	8	-1E+10	1	-1E+10	1	-1E+10	1	-1E+10	1	-1E+10	1	-1E+10	1
4902554	60	C	10/03/2022	09:03	-133.535	48.922	0	346.20	0	4.3570	0	33.8870	0	26.866	0	342.979	0	-1e10	8	-1e10	8	-1E+10	1	-1E+10	1	-1E+10	1	-1E+10	1	-1E+10	1	-1E+10	1
4902554	60	C	10/03/2022	09:03	-133.535	48.922	0	347.40	0	4.3550	0	33.8880	0	26.867	0	344.166	0	-1e10	8	-1e10	8	-1E+10	1	-1E+10	1	-1E+10	1	-1E+10	1	-1E+10	1	-1E+10	1
4902554	60	C	10/03/2022	09:03	-133.535	48.922	0	348.60	0	4.3540	0	33.8880	0	26.868	0	345.354	0	-1e10	8	-1e10	8	-1E+10	1	-1E+10	1	-1E+10	1	-1E+10	1	-1E+10	1	-1E+10	1
4902554	60	C	10/03/2022	09:03	-133.535	48.922	0	349.80	0	4.3540	0	33.8890	0	26.868	0	346.542	0	-1e10	8	-1e10	8	-1E+10	1	-1E+10	1	-1E+10	1	-1E+10	1	-1E+10	1	-1E+10	1
4902554	60	C	10/03/2022	09:03	-133.535	48.922	0	352.80	0	4.3490	0	33.8910	0	26.870	0	349.512	0	-1e10	8	-1e10	8	-1E+10	1	-1E+10	1	-1E+10	1	-1E+10	1	-1E+10	1	-1E+10	1
4902554	60	C	10/03/2022	09:03	-133.535	48.922	0	357.60	0	4.3420	0	33.8940	0	26.874	0	354.263	0	-1e10	8	-1e10	8	-1E+10	1	-1E+10	1	-1E+10	1	-1E+10	1	-1E+10	1	-1E+10	1
4902554	60	C	10/03/2022	09:03	-133.535	48.922	0	363.00	0	4.3380	0	33.8970	0	26.876	0	359.608	0	-1e10	8	-1e10	8	-1E+10	1	-1E+10	1	-1E+10	1	-1E+10	1	-1E+10	1	-1E+10	1
4902554	60	C	10/03/2022	09:03	-133.535	48.922	0	368.30	0	4.3320	0	33.9000	0	26.880	0	364.853	0	-1e10	8	-1e10	8	-1E+10	1	-1E+10	1	-1E+10	1	-1E+10	1	-1E+10	1	-1E+10	1
4902554	60	C	10/03/2022	09:03	-133.535	48.922	0	373.10	0	4.3260	0	33.9020	0	26.882	0	369.604	0	-1e10	8	-1e10	8	-1E+10	1	-1E+10	1	-1E+10	1	-1E+10	1	-1E+10	1	-1E+10	1
4902554	60	C	10/03/2022	09:03	-133.535	48.922	0	377.80	0	4.3180	0	33.9070	0	26.887	0	374.256	0	-1e10	8	-1e10	8	-1E+10	1	-1E+10	1	-1E+10	1	-1E+10	1	-1E+10	1	-1E+10	1
4902554	60	C	10/03/2022	09:03	-133.535	48.922	0	382.50	0	4.3100	0	33.9120	0	26.891	0	378.908	0	-1e10	8	-1e10	8	-1E+10	1	-1E+10	1	-1E+10	1	-1E+10	1	-1E+10	1	-1E+10	1
4902554	60	C	10/03/2022	09:03	-133.535	48.922	0	387.70	0	4.3040	0	33.9160	0	26.895	0	384.054	0	-1e10	8	-1e10	8	-1E+10	1	-1E+10	1	-1E+10	1	-1E+10	1	-1E+10	1	-1E+10	1
4902554	60	C	10/03/2022	09:03	-133.535	48.922	0	392.90	0	4.2970	0	33.9210	0	26.900	0	389.200	0	-1e10	8	-1e10	8	-1E+10	1	-1E+10	1	-1E+10	1	-1E+10	1	-1E+10	1	-1E+10	1
4902554	60	C	10/03/2022	09:03	-133.535	48.922	0	397.90	0	4.2920	0	33.9250	0	26.904	0	394.148	0	-1e10	8	-1e10	8	-1E+10	1	-1E+10	1	-1E+10	1	-1E+10	1	-1E+10	1	-1E+10	1
4902554	60	C	10/03/2022	09:03	-133.535	48.922	0	402.80	0	4.2840	0	33.9320	0	26.910	0	398.997	0	-1e10	8	-1e10	8	-1E+10	1	-1E+10	1	-1E+10	1	-1E+10	1	-1E+10	1	-1E+10	1
4902554	60	C	10/03/2022	09:03	-133.535	48.922	0	407.70	0	4.2750	0	33.9430	0	26.920	0	403.846	0	-1e10	8	-1e10	8	-1E+10	1	-1E+10	1	-1E+10	1	-1E+10	1	-1E+10	1	-1E+10	1
4902554	60	C	10/03/2022	09:03	-133.535	48.922	0	413.10	0	4.2700	0	33.9480	0	26.925	0	409.190	0	-1e10	8	-1e10	8	-1E+10	1	-1E+10	1	-1E+10	1	-1E+10	1	-1E+10	1	-1E+10	1
4902554	60	C	10/03/2022	09:03	-133.535	48.922	0	418.00	0	4.2690	0	33.9500	0	26.926	0	414.039	0	-1e10	8	-1e10	8	-1E+10	1	-1E+10	1	-1E+10	1	-1E+10	1	-1E+10	1	-1E+10	1
4902554	60	C	10/03/2022	09:03	-133.535	48.922	0	422.60	0	4.2660	0	33.9550	0	26.931	0	418.591	0	-1e10	8	-1e10	8	-1E+10	1	-1E+10	1	-1E+10	1	-1E+10	1	-1E+10	1	-1E+10	1
4902554	60	C	10/03/2022	09:03	-133.535	48.922	0	427.70	0	4.2600	0	33.9720	0	26.945	0	423.637	0	-1e10	8	-1e10	8	-1E+10	1	-1E+10	1	-1E+10	1	-1E+10	1	-1E+10	1	-1E+10	1
4902554	60	C	10/03/2022	09:03	-133.535	48.922	0	432.70	0	4.2550	0	33.9790	0	26.951	0	428.584	0	-1e10	8	-1e10	8	-1E+10	1	-1E+10	1	-1E+10	1	-1E+10	1	-1E+10	1	-1E+10	1
4902554	60	C	10/03/2022	09:03	-133.535	48.922	0	437.90	0	4.2500	0	33.9830	0	26.955	0	433.729	0	-1e10	8	-1e10	8	-1E+10	1	-1E+10	1	-1E+10	1	-1E+10	1	-1E+10	1	-1E+10	1
4902554	60	C	10/03/2022	09:03	-133.535	48.922	0	443.10	0	4.2420	0	33.9940	0	26.964	0	438.874	0	-1e10	8	-1e10	8	-1E+10	1	-1E+10	1	-1E+10	1	-1E+10	1	-1E+10	1	-1E+10	1
4902554	60	C	10/03/2022	09:03	-133.535	48.922	0	448.20	0	4.2290	0	34.0050	0	26.974	0	443.920	0	-1e10	8	-1e10	8	-1E+10	1	-1E+10	1	-1E+10	1	-1E+10	1	-1E+10	1	-1E+10	1
4902554	60	C	10/03/2022	09:03	-133.535	48.922	0	452.90	0	4.2180	0	34.0140	0	26.983	0	448.570	0	-1e10	8	-1e10	8	-1E+10	1	-1E+10	1	-1E+10	1	-1E+10	1	-1E+10	1	-1E+10	1
4902554	60	C	10/03/2022	09:03	-133.535	48.922	0	457.80	0	4.2030	0	34.0230	0	26.992	0	453.418	0	-1e10	8	-1e10	8	-1E+10	1	-1E+10	1	-1E+10	1	-1E+10	1	-1E+10	1	-1E+10	1
4902554	60	C	10/03/2022	09:03	-133.535	48.922	0	462.90	0	4.1900	0	34.0310	0	26.999	0	458.464	0	-1e10	8	-1e10	8	-1E+10	1	-1E+10	1	-1E+10	1	-1E+10	1	-1E+10	1	-1E+10	1
4902554	60	C	10/03/2022	09:03	-133.535	48.922	0	467.80	0	4.1800	0	34.0380	0	27.006	0	463.311	0	-1e10	8	-1e10	8	-1E+10	1	-1E+10	1	-1E+10	1	-1E+10	1	-1E+10	1	-1E+10	1
4902554	60	C	10/03/2022	09:03	-133.535	48.922	0	472.80	0	4.1730	0	34.0430	0	27.011	0	468.258	0	-1e10	8	-1e10	8	-1E+10	1	-1E+10	1	-1E+10	1	-1E+10	1	-1E+10	1	-1E+10	1
4902554	60	C	10/03/2022	09:03	-133.535	48.922	0	477.80	0	4.1680	0	34.0450	0	27.013	0	473.204	0	-1e10	8	-1e10	8	-1E+10	1	-1E+10	1	-1E+10	1	-1E+10	1	-1E+10	1	-1E+10	1
4902554	60	C	10/03/2022	09:03	-133.535	48.922	0	483.00	0	4.1660	0	34.0470	0	27.015	0	478.348	0	-1e10	8	-1e10	8	-1E+10	1	-1E+10	1	-1E+10	1	-1E+10	1	-1E+10	1	-1E+10	1
4902554	60	C	10/03/2022	09:03	-133.535	48.922	0	487.80	0	4.1580	0	34.0520	0	27.019	0	483.096	0	-1e10	8	-1e10	8	-1E+10	1	-1E+10	1	-1E+10	1	-1E+10	1	-1E+10	1	-1E+10	1
4902554	60	C	10/03/2022	09:03	-133.535	48.922	0	492.90	0	4.1500	0	34.0600	0	27.027	0	488.141	0	-1e10	8	-1e10	8	-1E+10	1	-1E+10	1	-1E+10	1	-1E+10	1	-1E+10	1	-1E+10	1
4902554	60	C	10/03/2022	09:03	-133.535	48.922	0	498.10	0	4.1460	0	34.0630	0	27.030	0	493.285	0	-1e10	8	-1e10	8	-1E+10	1	-1E+10	1	-1E+10	1	-1E+10	1	-1E+10	1	-1E+10	1
4902554	60	C	10/03/2022	09:03	-133.535	48.922	0	503.00	0	4.1440	0	34.0670	0	27.033	0	498.131	0	-1e10	8	-1e10	8	-1E+10	1	-1E+10	1	-1E+10	1	-1E+10	1	-1E+10	1	-1E+10	1
4902554	60	C	10/03/2022	09:03	-133.535	48.922	0	507.90	0	4.1320	0	34.0750	0	27.041	0	502.978	0	-1e10	8	-1e10	8	-1E+10	1	-1E+10	1	-1E+10	1	-1E+10	1	-1E+10	1	-1E+10	1
4902554	60	C	10/03/2022	09:03	-133.535	48.922	0	512.90	0	4.1170	0	34.0800	0	27.046	0	507.923	0	-1e10	8	-1e10	8	-1E+10	1	-1E+10	1	-1E+10	1	-1E+10	1	-1E+10	1	-1E+10	1
4902554	60	C	10/03/2022	09:03	-133.535	48.922	0	517.90	0	4.0970	0	34.0900	0	27.056	0	512.869	0	-1e10	8	-1e10	8	-1E+10	1	-1E+10	1	-1E+10	1	-1E+10	1	-1E+10	1	-1E+10	1
4902554	60	C	10/03/2022	09:03	-133.535	48.922	0	523.20	0	4.0930	0	34.0950	0	27.061	0	518.111	0	-1e10	8	-1e10	8	-1E+10	1	-1E+10	1	-1E+10	1	-1E+10	1	-1E+10	1	-1E+10	1
4902554	60	C	10/03/2022	09:03	-133.535	48.922	0	528.10	0	4.0850	0	34.0990	0	27.065	0	522.957	0	-1e10	8	-1e10	8	-1E+10	1	-1E+10	1	-1E+10	1	-1E+10	1	-1E+10	1	-1E+10	1
4902554	60	C	10/03/2022	09:03	-133.535	48.922	0	533.10	0	4.0790	0	34.1010	0	27.067	0	527.902	0	-1e10	8	-1e10	8	-1E+10	1	-1E+10	1	-1E+10	1	-1E+10	1	-1E+10	1	-1E+10	1
4902554	60	C	10/03/2022	09:03	-133.535	48.922	0	538.10	0	4.0660	0	34.1080	0	27.074	0	532.847	0	-1e10	8	-1e10	8	-1E+10	1	-1E+10	1	-1E+10	1	-1E+10	1	-1E+10	1	-1E+10	1
4902554	60	C	10/03/2022	09:03	-133.535	48.922	0	543.30	0	4.0550	0	34.1130	0	27.079	0	537.989	0	-1e10	8	-1e10	8	-1E+10	1	-1E+10	1	-1E+10	1	-1E+10	1	-1E+10	1	-1E+10	1
4902554	60	C	10/03/2022	09:03	-133.535	48.922	0	548.00	0	4.0360	0	34.1200	0	27.087	0	542.637	0	-1e10	8	-1e10	8	-1E+10	1	-1E+10	1	-1E+10	1	-1E+10	1	-1E+10	1	-1E+10	1
4902554	60	C	10/03/2022	09:03	-133.535	48.922	0	552.80	0	4.0240	0	34.1240	0	27.091	0	547.384	0	-1e10	8	-1e10	8	-1E+10	1	-1E+10	1	-1E+10	1	-1E+10	1	-1E+10	1	-1E+10	1
4902554	60	C	10/03/2022	09:03	-133.535	48.922	0	558.20	0	4.0110	0	34.1280	0	27.096	0	552.724	0	-1e10	8	-1e10	8	-1E+10	1	-1E+10	1	-1E+10	1	-1E+10	1	-1E+10	1	-1E+10	1
4902554	60	C	10/03/2022	09:03	-133.535	48.922	0	563.00	0	4.0040	0	34.1310	0	27.099	0	557.470	0	-1e10	8	-1e10	8	-1E+10	1	-1E+10	1	-1E+10	1	-1E+10	1	-1E+10	1	-1E+10	1
4902554	60	C	10/03/2022	09:03	-133.535	48.922	0	567.80	0	4.0020	0	34.1330	0	27.101	0	562.217	0	-1e10	8	-1e10	8	-1E+10	1	-1E+10	1	-1E+10	1	-1E+10	1	-1E+10	1	-1E+10	1
4902554	60	C	10/03/2022	09:03	-133.535	48.922	0	573.20	0	3.9880	0	34.1420	0	27.109	0	567.556	0	-1e10	8	-1e10	8	-1E+10	1	-1E+10	1	-1E+10	1	-1E+10	1	-1E+10	1	-1E+10	1
4902554	60	C	10/03/2022	09:03	-133.535	48.922	0	578.00	0	3.9780	0	34.1450	0	27.113	0	572.302	0	-1e10	8	-1e10	8	-1E+10	1	-1E+10	1	-1E+10	1	-1E+10	1	-1E+10	1	-1E+10	1
4902554	60	C	10/03/2022	09:03	-133.535	48.922	0	582.90	0	3.9730	0	34.1460	0	27.114	0	577.147	0	-1e10	8	-1e10	8	-1E+10	1	-1E+10	1	-1E+10	1	-1E+10	1	-1E+10	1	-1E+10	1
4902554	60	C	10/03/2022	09:03	-133.535	48.922	0	588.30	0	3.9670	0	34.1470	0	27.115	0	582.486	0	-1e10	8	-1e10	8	-1E+10	1	-1E+10	1	-1E+10	1	-1E+10	1	-1E+10	1	-1E+10	1
4902554	60	C	10/03/2022	09:03	-133.535	48.922	0	593.00	0	3.9650	0	34.1480	0	27.116	0	587.133	0	-1e10	8	-1e10	8	-1E+10	1	-1E+10	1	-1E+10	1	-1E+10	1	-1E+10	1	-1E+10	1
4902554	60	C	10/03/2022	09:03	-133.535	48.922	0	597.70	0	3.9650	0	34.1480	0	27.116	0	591.780	0	-1e10	8	-1e10	8	-1E+10	1	-1E+10	1	-1E+10	1	-1E+10	1	-1E+10	1	-1E+10	1
4902554	60	C	10/03/2022	09:03	-133.535	48.922	0	602.80	0	3.9510	0	34.1520	0	27.121	0	596.822	0	-1e10	8	-1e10	8	-1E+10	1	-1E+10	1	-1E+10	1	-1E+10	1	-1E+10	1	-1E+10	1
4902554	60	C	10/03/2022	09:03	-133.535	48.922	0	608.00	0	3.9350	0	34.1560	0	27.126	0	601.963	0	-1e10	8	-1e10	8	-1E+10	1	-1E+10	1	-1E+10	1	-1E+10	1	-1E+10	1	-1E+10	1
4902554	60	C	10/03/2022	09:03	-133.535	48.922	0	613.10	0	3.9200	0	34.1600	0	27.131	0	607.005	0	-1e10	8	-1e10	8	-1E+10	1	-1E+10	1	-1E+10	1	-1E+10	1	-1E+10	1	-1E+10	1
4902554	60	C	10/03/2022	09:03	-133.535	48.922	0	618.10	0	3.9150	0	34.1620	0	27.133	0	611.948	0	-1e10	8	-1e10	8	-1E+10	1	-1E+10	1	-1E+10	1	-1E+10	1	-1E+10	1	-1E+10	1
4902554	60	C	10/03/2022	09:03	-133.535	48.922	0	623.10	0	3.9060	0	34.1650	0	27.136	0	616.891	0	-1e10	8	-1e10	8	-1E+10	1	-1E+10	1	-1E+10	1	-1E+10	1	-1E+10	1	-1E+10	1
4902554	60	C	10/03/2022	09:03	-133.535	48.922	0	628.10	0	3.9000	0	34.1670	0	27.138	0	621.834	0	-1e10	8	-1e10	8	-1E+10	1	-1E+10	1	-1E+10	1	-1E+10	1	-1E+10	1	-1E+10	1
4902554	60	C	10/03/2022	09:03	-133.535	48.922	0	632.90	0	3.8860	0	34.1720	0	27.144	0	626.579	0	-1e10	8	-1e10	8	-1E+10	1	-1E+10	1	-1E+10	1	-1E+10	1	-1E+10	1	-1E+10	1
4902554	60	C	10/03/2022	09:03	-133.535	48.922	0	637.80	0	3.8650	0	34.1790	0	27.151	0	631.422	0	-1e10	8	-1e10	8	-1E+10	1	-1E+10	1	-1E+10	1	-1E+10	1	-1E+10	1	-1E+10	1
4902554	60	C	10/03/2022	09:03	-133.535	48.922	0	642.60	0	3.8460	0	34.1830	0	27.157	0	636.167	0	-1e10	8	-1e10	8	-1E+10	1	-1E+10	1	-1E+10	1	-1E+10	1	-1E+10	1	-1E+10	1
4902554	60	C	10/03/2022	09:03	-133.535	48.922	0	647.90	0	3.8190	0	34.1900	0	27.165	0	641.406	0	-1e10	8	-1e10	8	-1E+10	1	-1E+10	1	-1E+10	1	-1E+10	1	-1E+10	1	-1E+10	1
4902554	60	C	10/03/2022	09:03	-133.535	48.922	0	653.10	0	3.7980	0	34.1960	0	27.172	0	646.545	0	-1e10	8	-1e10	8	-1E+10	1	-1E+10	1	-1E+10	1	-1E+10	1	-1E+10	1	-1E+10	1
4902554	60	C	10/03/2022	09:03	-133.535	48.922	0	657.80	0	3.7850	0	34.2010	0	27.177	0	651.191	0	-1e10	8	-1e10	8	-1E+10	1	-1E+10	1	-1E+10	1	-1E+10	1	-1E+10	1	-1E+10	1
4902554	60	C	10/03/2022	09:03	-133.535	48.922	0	662.60	0	3.7800	0	34.2030	0	27.179	0	655.935	0	-1e10	8	-1e10	8	-1E+10	1	-1E+10	1	-1E+10	1	-1E+10	1	-1E+10	1	-1E+10	1
4902554	60	C	10/03/2022	09:03	-133.535	48.922	0	667.80	0	3.7600	0	34.2090	0	27.186	0	661.075	0	-1e10	8	-1e10	8	-1E+10	1	-1E+10	1	-1E+10	1	-1E+10	1	-1E+10	1	-1E+10	1
4902554	60	C	10/03/2022	09:03	-133.535	48.922	0	672.90	0	3.7470	0	34.2130	0	27.191	0	666.115	0	-1e10	8	-1e10	8	-1E+10	1	-1E+10	1	-1E+10	1	-1E+10	1	-1E+10	1	-1E+10	1
4902554	60	C	10/03/2022	09:03	-133.535	48.922	0	678.00	0	3.7450	0	34.2130	0	27.191	0	671.155	0	-1e10	8	-1e10	8	-1E+10	1	-1E+10	1	-1E+10	1	-1E+10	1	-1E+10	1	-1E+10	1
4902554	60	C	10/03/2022	09:03	-133.535	48.922	0	683.10	0	3.7330	0	34.2150	0	27.194	0	676.196	0	-1e10	8	-1e10	8	-1E+10	1	-1E+10	1	-1E+10	1	-1E+10	1	-1E+10	1	-1E+10	1
4902554	60	C	10/03/2022	09:03	-133.535	48.922	0	687.80	0	3.7200	0	34.2190	0	27.198	0	680.840	0	-1e10	8	-1e10	8	-1E+10	1	-1E+10	1	-1E+10	1	-1E+10	1	-1E+10	1	-1E+10	1
4902554	60	C	10/03/2022	09:03	-133.535	48.922	0	692.60	0	3.7070	0	34.2220	0	27.202	0	685.584	0	-1e10	8	-1e10	8	-1E+10	1	-1E+10	1	-1E+10	1	-1E+10	1	-1E+10	1	-1E+10	1
4902554	60	C	10/03/2022	09:03	-133.535	48.922	0	697.50	0	3.6880	0	34.2250	0	27.206	0	690.426	0	-1e10	8	-1e10	8	-1E+10	1	-1E+10	1	-1E+10	1	-1E+10	1	-1E+10	1	-1E+10	1
4902554	60	C	10/03/2022	09:03	-133.535	48.922	0	702.50	0	3.6730	0	34.2310	0	27.212	0	695.367	0	-1e10	8	-1e10	8	-1E+10	1	-1E+10	1	-1E+10	1	-1E+10	1	-1E+10	1	-1E+10	1
4902554	60	C	10/03/2022	09:03	-133.535	48.922	0	707.50	0	3.6570	0	34.2340	0	27.216	0	700.308	0	-1e10	8	-1e10	8	-1E+10	1	-1E+10	1	-1E+10	1	-1E+10	1	-1E+10	1	-1E+10	1
4902554	60	C	10/03/2022	09:03	-133.535	48.922	0	712.70	0	3.6430	0	34.2360	0	27.219	0	705.446	0	-1e10	8	-1e10	8	-1E+10	1	-1E+10	1	-1E+10	1	-1E+10	1	-1E+10	1	-1E+10	1
4902554	60	C	10/03/2022	09:03	-133.535	48.922	0	717.80	0	3.6200	0	34.2430	0	27.227	0	710.486	0	-1e10	8	-1e10	8	-1E+10	1	-1E+10	1	-1E+10	1	-1E+10	1	-1E+10	1	-1E+10	1
4902554	60	C	10/03/2022	09:03	-133.535	48.922	0	722.60	0	3.6060	0	34.2470	0	27.232	0	715.229	0	-1e10	8	-1e10	8	-1E+10	1	-1E+10	1	-1E+10	1	-1E+10	1	-1E+10	1	-1E+10	1
4902554	60	C	10/03/2022	09:03	-133.535	48.922	0	727.50	0	3.5790	0	34.2480	0	27.235	0	720.070	0	-1e10	8	-1e10	8	-1E+10	1	-1E+10	1	-1E+10	1	-1E+10	1	-1E+10	1	-1E+10	1
4902554	60	C	10/03/2022	09:03	-133.535	48.922	0	732.70	0	3.5680	0	34.2480	0	27.236	0	725.208	0	-1e10	8	-1e10	8	-1E+10	1	-1E+10	1	-1E+10	1	-1E+10	1	-1E+10	1	-1E+10	1
4902554	60	C	10/03/2022	09:03	-133.535	48.922	0	738.00	0	3.5630	0	34.2500	0	27.238	0	730.445	0	-1e10	8	-1e10	8	-1E+10	1	-1E+10	1	-1E+10	1	-1E+10	1	-1E+10	1	-1E+10	1
4902554	60	C	10/03/2022	09:03	-133.535	48.922	0	743.10	0	3.5560	0	34.2510	0	27.240	0	735.483	0	-1e10	8	-1e10	8	-1E+10	1	-1E+10	1	-1E+10	1	-1E+10	1	-1E+10	1	-1E+10	1
4902554	60	C	10/03/2022	09:03	-133.535	48.922	0	747.80	0	3.5530	0	34.2520	0	27.241	0	740.127	0	-1e10	8	-1e10	8	-1E+10	1	-1E+10	1	-1E+10	1	-1E+10	1	-1E+10	1	-1E+10	1
4902554	60	C	10/03/2022	09:03	-133.535	48.922	0	752.60	0	3.5400	0	34.2540	0	27.244	0	744.869	0	-1e10	8	-1e10	8	-1E+10	1	-1E+10	1	-1E+10	1	-1E+10	1	-1E+10	1	-1E+10	1
4902554	60	C	10/03/2022	09:03	-133.535	48.922	0	757.90	0	3.5170	0	34.2580	0	27.249	0	750.105	0	-1e10	8	-1e10	8	-1E+10	1	-1E+10	1	-1E+10	1	-1E+10	1	-1E+10	1	-1E+10	1
4902554	60	C	10/03/2022	09:03	-133.535	48.922	0	763.30	0	3.5020	0	34.2670	0	27.258	0	755.440	0	-1e10	8	-1e10	8	-1E+10	1	-1E+10	1	-1E+10	1	-1E+10	1	-1E+10	1	-1E+10	1
4902554	60	C	10/03/2022	09:03	-133.535	48.922	0	768.30	0	3.4940	0	34.2710	0	27.262	0	760.379	0	-1e10	8	-1e10	8	-1E+10	1	-1E+10	1	-1E+10	1	-1E+10	1	-1E+10	1	-1E+10	1
4902554	60	C	10/03/2022	09:03	-133.535	48.922	0	773.30	0	3.4910	0	34.2720	0	27.263	0	765.319	0	-1e10	8	-1e10	8	-1E+10	1	-1E+10	1	-1E+10	1	-1E+10	1	-1E+10	1	-1E+10	1
4902554	60	C	10/03/2022	09:03	-133.535	48.922	0	778.20	0	3.4830	0	34.2740	0	27.266	0	770.159	0	-1e10	8	-1e10	8	-1E+10	1	-1E+10	1	-1E+10	1	-1E+10	1	-1E+10	1	-1E+10	1
4902554	60	C	10/03/2022	09:03	-133.535	48.922	0	783.20	0	3.4820	0	34.2740	0	27.266	0	775.098	0	-1e10	8	-1e10	8	-1E+10	1	-1E+10	1	-1E+10	1	-1E+10	1	-1E+10	1	-1E+10	1
4902554	60	C	10/03/2022	09:03	-133.535	48.922	0	788.30	0	3.4710	0	34.2760	0	27.268	0	780.136	0	-1e10	8	-1e10	8	-1E+10	1	-1E+10	1	-1E+10	1	-1E+10	1	-1E+10	1	-1E+10	1
4902554	60	C	10/03/2022	09:03	-133.535	48.922	0	792.90	0	3.4500	0	34.2800	0	27.274	0	784.679	0	-1e10	8	-1e10	8	-1E+10	1	-1E+10	1	-1E+10	1	-1E+10	1	-1E+10	1	-1E+10	1
4902554	60	C	10/03/2022	09:03	-133.535	48.922	0	797.50	0	3.4230	0	34.2840	0	27.279	0	789.223	0	-1e10	8	-1e10	8	-1E+10	1	-1E+10	1	-1E+10	1	-1E+10	1	-1E+10	1	-1E+10	1
4902554	60	C	10/03/2022	09:03	-133.535	48.922	0	802.70	0	3.4090	0	34.2870	0	27.283	0	794.359	0	-1e10	8	-1e10	8	-1E+10	1	-1E+10	1	-1E+10	1	-1E+10	1	-1E+10	1	-1E+10	1
4902554	60	C	10/03/2022	09:03	-133.535	48.922	0	807.90	0	3.4080	0	34.2880	0	27.284	0	799.495	0	-1e10	8	-1e10	8	-1E+10	1	-1E+10	1	-1E+10	1	-1E+10	1	-1E+10	1	-1E+10	1
4902554	60	C	10/03/2022	09:03	-133.535	48.922	0	813.20	0	3.3980	0	34.2900	0	27.287	0	804.730	0	-1e10	8	-1e10	8	-1E+10	1	-1E+10	1	-1E+10	1	-1E+10	1	-1E+10	1	-1E+10	1
4902554	60	C	10/03/2022	09:03	-133.535	48.922	0	818.00	0	3.3870	0	34.2920	0	27.289	0	809.471	0	-1e10	8	-1e10	8	-1E+10	1	-1E+10	1	-1E+10	1	-1E+10	1	-1E+10	1	-1E+10	1
4902554	60	C	10/03/2022	09:03	-133.535	48.922	0	822.80	0	3.3790	0	34.2940	0	27.292	0	814.211	0	-1e10	8	-1e10	8	-1E+10	1	-1E+10	1	-1E+10	1	-1E+10	1	-1E+10	1	-1E+10	1
4902554	60	C	10/03/2022	09:03	-133.535	48.922	0	828.00	0	3.3610	0	34.2980	0	27.297	0	819.347	0	-1e10	8	-1e10	8	-1E+10	1	-1E+10	1	-1E+10	1	-1E+10	1	-1E+10	1	-1E+10	1
4902554	60	C	10/03/2022	09:03	-133.535	48.922	0	833.30	0	3.3590	0	34.2980	0	27.297	0	824.581	0	-1e10	8	-1e10	8	-1E+10	1	-1E+10	1	-1E+10	1	-1E+10	1	-1E+10	1	-1E+10	1
4902554	60	C	10/03/2022	09:03	-133.535	48.922	0	838.10	0	3.3560	0	34.2980	0	27.297	0	829.321	0	-1e10	8	-1e10	8	-1E+10	1	-1E+10	1	-1E+10	1	-1E+10	1	-1E+10	1	-1E+10	1
4902554	60	C	10/03/2022	09:03	-133.535	48.922	0	842.80	0	3.3460	0	34.3000	0	27.300	0	833.963	0	-1e10	8	-1e10	8	-1E+10	1	-1E+10	1	-1E+10	1	-1E+10	1	-1E+10	1	-1E+10	1
4902554	60	C	10/03/2022	09:03	-133.535	48.922	0	848.10	0	3.3370	0	34.3020	0	27.302	0	839.196	0	-1e10	8	-1e10	8	-1E+10	1	-1E+10	1	-1E+10	1	-1E+10	1	-1E+10	1	-1E+10	1
4902554	60	C	10/03/2022	09:03	-133.535	48.922	0	853.30	0	3.3300	0	34.3030	0	27.304	0	844.331	0	-1e10	8	-1e10	8	-1E+10	1	-1E+10	1	-1E+10	1	-1E+10	1	-1E+10	1	-1E+10	1
4902554	60	C	10/03/2022	09:03	-133.535	48.922	0	858.00	0	3.3170	0	34.3060	0	27.307	0	848.972	0	-1e10	8	-1e10	8	-1E+10	1	-1E+10	1	-1E+10	1	-1E+10	1	-1E+10	1	-1E+10	1
4902554	60	C	10/03/2022	09:03	-133.535	48.922	0	862.70	0	3.3100	0	34.3080	0	27.310	0	853.613	0	-1e10	8	-1e10	8	-1E+10	1	-1E+10	1	-1E+10	1	-1E+10	1	-1E+10	1	-1E+10	1
4902554	60	C	10/03/2022	09:03	-133.535	48.922	0	867.90	0	3.3010	0	34.3090	0	27.311	0	858.748	0	-1e10	8	-1e10	8	-1E+10	1	-1E+10	1	-1E+10	1	-1E+10	1	-1E+10	1	-1E+10	1
4902554	60	C	10/03/2022	09:03	-133.535	48.922	0	873.10	0	3.2910	0	34.3100	0	27.313	0	863.882	0	-1e10	8	-1e10	8	-1E+10	1	-1E+10	1	-1E+10	1	-1E+10	1	-1E+10	1	-1E+10	1
4902554	60	C	10/03/2022	09:03	-133.535	48.922	0	877.80	0	3.2800	0	34.3130	0	27.316	0	868.523	0	-1e10	8	-1e10	8	-1E+10	1	-1E+10	1	-1E+10	1	-1E+10	1	-1E+10	1	-1E+10	1
4902554	60	C	10/03/2022	09:03	-133.535	48.922	0	882.50	0	3.2680	0	34.3150	0	27.319	0	873.163	0	-1e10	8	-1e10	8	-1E+10	1	-1E+10	1	-1E+10	1	-1E+10	1	-1E+10	1	-1E+10	1
4902554	60	C	10/03/2022	09:03	-133.535	48.922	0	887.70	0	3.2460	0	34.3200	0	27.325	0	878.297	0	-1e10	8	-1e10	8	-1E+10	1	-1E+10	1	-1E+10	1	-1E+10	1	-1E+10	1	-1E+10	1
4902554	60	C	10/03/2022	09:03	-133.535	48.922	0	892.90	0	3.2330	0	34.3230	0	27.329	0	883.431	0	-1e10	8	-1e10	8	-1E+10	1	-1E+10	1	-1E+10	1	-1E+10	1	-1E+10	1	-1E+10	1
4902554	60	C	10/03/2022	09:03	-133.535	48.922	0	897.90	0	3.2170	0	34.3260	0	27.333	0	888.368	0	-1e10	8	-1e10	8	-1E+10	1	-1E+10	1	-1E+10	1	-1E+10	1	-1E+10	1	-1E+10	1
4902554	60	C	10/03/2022	09:03	-133.535	48.922	0	902.90	0	3.2020	0	34.3290	0	27.337	0	893.304	0	-1e10	8	-1e10	8	-1E+10	1	-1E+10	1	-1E+10	1	-1E+10	1	-1E+10	1	-1E+10	1
4902554	60	C	10/03/2022	09:03	-133.535	48.922	0	908.00	0	3.1960	0	34.3310	0	27.339	0	898.339	0	-1e10	8	-1e10	8	-1E+10	1	-1E+10	1	-1E+10	1	-1E+10	1	-1E+10	1	-1E+10	1
4902554	60	C	10/03/2022	09:03	-133.535	48.922	0	913.00	0	3.1930	0	34.3320	0	27.340	0	903.275	0	-1e10	8	-1e10	8	-1E+10	1	-1E+10	1	-1E+10	1	-1E+10	1	-1E+10	1	-1E+10	1
4902554	60	C	10/03/2022	09:03	-133.535	48.922	0	918.00	0	3.1900	0	34.3320	0	27.340	0	908.211	0	-1e10	8	-1e10	8	-1E+10	1	-1E+10	1	-1E+10	1	-1E+10	1	-1E+10	1	-1E+10	1
4902554	60	C	10/03/2022	09:03	-133.535	48.922	0	923.00	0	3.1850	0	34.3330	0	27.342	0	913.147	0	-1e10	8	-1e10	8	-1E+10	1	-1E+10	1	-1E+10	1	-1E+10	1	-1E+10	1	-1E+10	1
4902554	60	C	10/03/2022	09:03	-133.535	48.922	0	928.00	0	3.1710	0	34.3360	0	27.345	0	918.082	0	-1e10	8	-1e10	8	-1E+10	1	-1E+10	1	-1E+10	1	-1E+10	1	-1E+10	1	-1E+10	1
4902554	60	C	10/03/2022	09:03	-133.535	48.922	0	933.00	0	3.1620	0	34.3380	0	27.348	0	923.018	0	-1e10	8	-1e10	8	-1E+10	1	-1E+10	1	-1E+10	1	-1E+10	1	-1E+10	1	-1E+10	1
4902554	60	C	10/03/2022	09:03	-133.535	48.922	0	938.00	0	3.1490	0	34.3410	0	27.351	0	927.953	0	-1e10	8	-1e10	8	-1E+10	1	-1E+10	1	-1E+10	1	-1E+10	1	-1E+10	1	-1E+10	1
4902554	60	C	10/03/2022	09:03	-133.535	48.922	0	943.00	0	3.1360	0	34.3440	0	27.355	0	932.889	0	-1e10	8	-1e10	8	-1E+10	1	-1E+10	1	-1E+10	1	-1E+10	1	-1E+10	1	-1E+10	1
4902554	60	C	10/03/2022	09:03	-133.535	48.922	0	948.10	0	3.1180	0	34.3480	0	27.360	0	937.922	0	-1e10	8	-1e10	8	-1E+10	1	-1E+10	1	-1E+10	1	-1E+10	1	-1E+10	1	-1E+10	1
4902554	60	C	10/03/2022	09:03	-133.535	48.922	0	953.20	0	3.1160	0	34.3500	0	27.362	0	942.956	0	-1e10	8	-1e10	8	-1E+10	1	-1E+10	1	-1E+10	1	-1E+10	1	-1E+10	1	-1E+10	1
4902554	60	C	10/03/2022	09:03	-133.535	48.922	0	958.00	0	3.1230	0	34.3520	0	27.363	0	947.694	0	-1e10	8	-1e10	8	-1E+10	1	-1E+10	1	-1E+10	1	-1E+10	1	-1E+10	1	-1E+10	1
4902554	60	C	10/03/2022	09:03	-133.535	48.922	0	962.90	0	3.1150	0	34.3570	0	27.367	0	952.530	0	-1e10	8	-1e10	8	-1E+10	1	-1E+10	1	-1E+10	1	-1E+10	1	-1E+10	1	-1E+10	1
4902554	60	C	10/03/2022	09:03	-133.535	48.922	0	967.90	0	3.1010	0	34.3600	0	27.371	0	957.465	0	-1e10	8	-1e10	8	-1E+10	1	-1E+10	1	-1E+10	1	-1E+10	1	-1E+10	1	-1E+10	1
4902554	60	C	10/03/2022	09:03	-133.535	48.922	0	973.00	0	3.0910	0	34.3620	0	27.374	0	962.498	0	-1e10	8	-1e10	8	-1E+10	1	-1E+10	1	-1E+10	1	-1E+10	1	-1E+10	1	-1E+10	1
4902554	60	C	10/03/2022	09:03	-133.535	48.922	0	978.20	0	3.0820	0	34.3630	0	27.375	0	967.630	0	-1e10	8	-1e10	8	-1E+10	1	-1E+10	1	-1E+10	1	-1E+10	1	-1E+10	1	-1E+10	1
4902554	60	C	10/03/2022	09:03	-133.535	48.922	0	983.00	0	3.0760	0	34.3650	0	27.377	0	972.367	0	-1e10	8	-1e10	8	-1E+10	1	-1E+10	1	-1E+10	1	-1E+10	1	-1E+10	1	-1E+10	1
4902554	60	C	10/03/2022	09:03	-133.535	48.922	0	987.90	0	3.0730	0	34.3660	0	27.379	0	977.202	0	-1e10	8	-1e10	8	-1E+10	1	-1E+10	1	-1E+10	1	-1E+10	1	-1E+10	1	-1E+10	1
4902554	60	C	10/03/2022	09:03	-133.535	48.922	0	992.90	0	3.0650	0	34.3670	0	27.380	0	982.137	0	-1e10	8	-1e10	8	-1E+10	1	-1E+10	1	-1E+10	1	-1E+10	1	-1E+10	1	-1E+10	1
4902554	60	C	10/03/2022	09:03	-133.535	48.922	0	998.00	0	3.0560	0	34.3690	0	27.383	0	987.169	0	-1e10	8	-1e10	8	-1E+10	1	-1E+10	1	-1E+10	1	-1E+10	1	-1E+10	1	-1E+10	1
4902554	60	C	10/03/2022	09:03	-133.535	48.922	0	1005.60	0	3.0470	0	34.3710	0	27.385	0	994.669	0	-1e10	8	-1e10	8	-1E+10	1	-1E+10	1	-1E+10	1	-1E+10	1	-1E+10	1	-1E+10	1
4902554	60	C	10/03/2022	09:03	-133.535	48.922	0	1015.30	0	3.0230	0	34.3730	0	27.389	0	1004.240	0	-1e10	8	-1e10	8	-1E+10	1	-1E+10	1	-1E+10	1	-1E+10	1	-1E+10	1	-1E+10	1
4902554	60	C	10/03/2022	09:03	-133.535	48.922	0	1025.00	0	3.0070	0	34.3760	0	27.393	0	1013.811	0	-1e10	8	-1e10	8	-1E+10	1	-1E+10	1	-1E+10	1	-1E+10	1	-1E+10	1	-1E+10	1
4902554	60	C	10/03/2022	09:03	-133.535	48.922	0	1035.20	0	2.9880	0	34.3810	0	27.398	0	1023.875	0	-1e10	8	-1e10	8	-1E+10	1	-1E+10	1	-1E+10	1	-1E+10	1	-1E+10	1	-1E+10	1
4902554	60	C	10/03/2022	09:03	-133.535	48.922	0	1045.50	0	2.9670	0	34.3860	0	27.404	0	1034.037	0	-1e10	8	-1e10	8	-1E+10	1	-1E+10	1	-1E+10	1	-1E+10	1	-1E+10	1	-1E+10	1
4902554	60	C	10/03/2022	09:03	-133.535	48.922	0	1055.40	0	2.9560	0	34.3880	0	27.407	0	1043.803	0	-1e10	8	-1e10	8	-1E+10	1	-1E+10	1	-1E+10	1	-1E+10	1	-1E+10	1	-1E+10	1
4902554	60	C	10/03/2022	09:03	-133.535	48.922	0	1065.50	0	2.9490	0	34.3900	0	27.409	0	1053.767	0	-1e10	8	-1e10	8	-1E+10	1	-1E+10	1	-1E+10	1	-1E+10	1	-1E+10	1	-1E+10	1
4902554	60	C	10/03/2022	09:03	-133.535	48.922	0	1075.50	0	2.9430	0	34.3930	0	27.412	0	1063.632	0	-1e10	8	-1e10	8	-1E+10	1	-1E+10	1	-1E+10	1	-1E+10	1	-1E+10	1	-1E+10	1
4902554	60	C	10/03/2022	09:03	-133.535	48.922	0	1085.60	0	2.9350	0	34.3950	0	27.415	0	1073.594	0	-1e10	8	-1e10	8	-1E+10	1	-1E+10	1	-1E+10	1	-1E+10	1	-1E+10	1	-1E+10	1
4902554	60	C	10/03/2022	09:03	-133.535	48.922	0	1095.30	0	2.9200	0	34.3980	0	27.418	0	1083.162	0	-1e10	8	-1e10	8	-1E+10	1	-1E+10	1	-1E+10	1	-1E+10	1	-1E+10	1	-1E+10	1
4902554	60	C	10/03/2022	09:03	-133.535	48.922	0	1105.20	0	2.8990	0	34.4020	0	27.424	0	1092.927	0	-1e10	8	-1e10	8	-1E+10	1	-1E+10	1	-1E+10	1	-1E+10	1	-1E+10	1	-1E+10	1
4902554	60	C	10/03/2022	09:03	-133.535	48.922	0	1115.10	0	2.8620	0	34.4090	0	27.433	0	1102.691	0	-1e10	8	-1e10	8	-1E+10	1	-1E+10	1	-1E+10	1	-1E+10	1	-1E+10	1	-1E+10	1
4902554	60	C	10/03/2022	09:03	-133.535	48.922	0	1125.00	0	2.8520	0	34.4110	0	27.435	0	1112.454	0	-1e10	8	-1e10	8	-1E+10	1	-1E+10	1	-1E+10	1	-1E+10	1	-1E+10	1	-1E+10	1
4902554	60	C	10/03/2022	09:03	-133.535	48.922	0	1135.00	0	2.8390	0	34.4130	0	27.438	0	1122.316	0	-1e10	8	-1e10	8	-1E+10	1	-1E+10	1	-1E+10	1	-1E+10	1	-1E+10	1	-1E+10	1
4902554	60	C	10/03/2022	09:03	-133.535	48.922	0	1145.10	0	2.8260	0	34.4160	0	27.441	0	1132.276	0	-1e10	8	-1e10	8	-1E+10	1	-1E+10	1	-1E+10	1	-1E+10	1	-1E+10	1	-1E+10	1
4902554	60	C	10/03/2022	09:03	-133.535	48.922	0	1155.40	0	2.8030	0	34.4190	0	27.446	0	1142.433	0	-1e10	8	-1e10	8	-1E+10	1	-1E+10	1	-1E+10	1	-1E+10	1	-1E+10	1	-1E+10	1
4902554	60	C	10/03/2022	09:03	-133.535	48.922	0	1165.70	0	2.7740	0	34.4220	0	27.451	0	1152.589	0	-1e10	8	-1e10	8	-1E+10	1	-1E+10	1	-1E+10	1	-1E+10	1	-1E+10	1	-1E+10	1
4902554	60	C	10/03/2022	09:03	-133.535	48.922	0	1175.60	0	2.7550	0	34.4250	0	27.455	0	1162.350	0	-1e10	8	-1e10	8	-1E+10	1	-1E+10	1	-1E+10	1	-1E+10	1	-1E+10	1	-1E+10	1
4902554	60	C	10/03/2022	09:03	-133.535	48.922	0	1185.50	0	2.7390	0	34.4300	0	27.460	0	1172.111	0	-1e10	8	-1e10	8	-1E+10	1	-1E+10	1	-1E+10	1	-1E+10	1	-1E+10	1	-1E+10	1
4902554	60	C	10/03/2022	09:03	-133.535	48.922	0	1195.50	0	2.7170	0	34.4320	0	27.464	0	1181.970	0	-1e10	8	-1e10	8	-1E+10	1	-1E+10	1	-1E+10	1	-1E+10	1	-1E+10	1	-1E+10	1
4902554	60	C	10/03/2022	09:03	-133.535	48.922	0	1205.40	0	2.6970	0	34.4350	0	27.468	0	1191.730	0	-1e10	8	-1e10	8	-1E+10	1	-1E+10	1	-1E+10	1	-1E+10	1	-1E+10	1	-1E+10	1
4902554	60	C	10/03/2022	09:03	-133.535	48.922	0	1215.20	0	2.6890	0	34.4380	0	27.471	0	1201.391	0	-1e10	8	-1e10	8	-1E+10	1	-1E+10	1	-1E+10	1	-1E+10	1	-1E+10	1	-1E+10	1
4902554	60	C	10/03/2022	09:03	-133.535	48.922	0	1225.40	0	2.6730	0	34.4420	0	27.476	0	1211.446	0	-1e10	8	-1e10	8	-1E+10	1	-1E+10	1	-1E+10	1	-1E+10	1	-1E+10	1	-1E+10	1
4902554	60	C	10/03/2022	09:03	-133.535	48.922	0	1235.60	0	2.6480	0	34.4460	0	27.481	0	1221.500	0	-1e10	8	-1e10	8	-1E+10	1	-1E+10	1	-1E+10	1	-1E+10	1	-1E+10	1	-1E+10	1
4902554	60	C	10/03/2022	09:03	-133.535	48.922	0	1245.40	0	2.6350	0	34.4480	0	27.484	0	1231.159	0	-1e10	8	-1e10	8	-1E+10	1	-1E+10	1	-1E+10	1	-1E+10	1	-1E+10	1	-1E+10	1
4902554	60	C	10/03/2022	09:03	-133.535	48.922	0	1255.30	0	2.6240	0	34.4500	0	27.487	0	1240.917	0	-1e10	8	-1e10	8	-1E+10	1	-1E+10	1	-1E+10	1	-1E+10	1	-1E+10	1	-1E+10	1
4902554	60	C	10/03/2022	09:03	-133.535	48.922	0	1265.40	0	2.6140	0	34.4530	0	27.490	0	1250.871	0	-1e10	8	-1e10	8	-1E+10	1	-1E+10	1	-1E+10	1	-1E+10	1	-1E+10	1	-1E+10	1
4902554	60	C	10/03/2022	09:03	-133.535	48.922	0	1275.40	0	2.6090	0	34.4540	0	27.491	0	1260.726	0	-1e10	8	-1e10	8	-1E+10	1	-1E+10	1	-1E+10	1	-1E+10	1	-1E+10	1	-1E+10	1
4902554	60	C	10/03/2022	09:03	-133.535	48.922	0	1285.20	0	2.5990	0	34.4550	0	27.493	0	1270.384	0	-1e10	8	-1e10	8	-1E+10	1	-1E+10	1	-1E+10	1	-1E+10	1	-1E+10	1	-1E+10	1
4902554	60	C	10/03/2022	09:03	-133.535	48.922	0	1295.50	0	2.5840	0	34.4580	0	27.497	0	1280.534	0	-1e10	8	-1e10	8	-1E+10	1	-1E+10	1	-1E+10	1	-1E+10	1	-1E+10	1	-1E+10	1
4902554	60	C	10/03/2022	09:03	-133.535	48.922	0	1305.80	0	2.5730	0	34.4610	0	27.500	0	1290.684	0	-1e10	8	-1e10	8	-1E+10	1	-1E+10	1	-1E+10	1	-1E+10	1	-1E+10	1	-1E+10	1
4902554	60	C	10/03/2022	09:03	-133.535	48.922	0	1315.40	0	2.5640	0	34.4620	0	27.502	0	1300.143	0	-1e10	8	-1e10	8	-1E+10	1	-1E+10	1	-1E+10	1	-1E+10	1	-1E+10	1	-1E+10	1
4902554	60	C	10/03/2022	09:03	-133.535	48.922	0	1325.20	0	2.5490	0	34.4650	0	27.506	0	1309.799	0	-1e10	8	-1e10	8	-1E+10	1	-1E+10	1	-1E+10	1	-1E+10	1	-1E+10	1	-1E+10	1
4902554	60	C	10/03/2022	09:03	-133.535	48.922	0	1335.50	0	2.5340	0	34.4680	0	27.509	0	1319.947	0	-1e10	8	-1e10	8	-1E+10	1	-1E+10	1	-1E+10	1	-1E+10	1	-1E+10	1	-1E+10	1
4902554	60	C	10/03/2022	09:03	-133.535	48.922	0	1345.30	0	2.5200	0	34.4700	0	27.512	0	1329.602	0	-1e10	8	-1e10	8	-1E+10	1	-1E+10	1	-1E+10	1	-1E+10	1	-1E+10	1	-1E+10	1
4902554	60	C	10/03/2022	09:03	-133.535	48.922	0	1355.10	0	2.5130	0	34.4730	0	27.515	0	1339.256	0	-1e10	8	-1e10	8	-1E+10	1	-1E+10	1	-1E+10	1	-1E+10	1	-1E+10	1	-1E+10	1
4902554	60	C	10/03/2022	09:03	-133.535	48.922	0	1365.40	0	2.4970	0	34.4760	0	27.519	0	1349.403	0	-1e10	8	-1e10	8	-1E+10	1	-1E+10	1	-1E+10	1	-1E+10	1	-1E+10	1	-1E+10	1
4902554	60	C	10/03/2022	09:03	-133.535	48.922	0	1375.60	0	2.4890	0	34.4780	0	27.521	0	1359.451	0	-1e10	8	-1e10	8	-1E+10	1	-1E+10	1	-1E+10	1	-1E+10	1	-1E+10	1	-1E+10	1
4902554	60	C	10/03/2022	09:03	-133.535	48.922	0	1385.50	0	2.4790	0	34.4810	0	27.525	0	1369.202	0	-1e10	8	-1e10	8	-1E+10	1	-1E+10	1	-1E+10	1	-1E+10	1	-1E+10	1	-1E+10	1
4902554	60	C	10/03/2022	09:03	-133.535	48.922	0	1395.40	0	2.4640	0	34.4830	0	27.527	0	1378.953	0	-1e10	8	-1e10	8	-1E+10	1	-1E+10	1	-1E+10	1	-1E+10	1	-1E+10	1	-1E+10	1
4902554	60	C	10/03/2022	09:03	-133.535	48.922	0	1405.70	0	2.4520	0	34.4850	0	27.530	0	1389.098	0	-1e10	8	-1e10	8	-1E+10	1	-1E+10	1	-1E+10	1	-1E+10	1	-1E+10	1	-1E+10	1
4902554	60	C	10/03/2022	09:03	-133.535	48.922	0	1415.50	0	2.4410	0	34.4880	0	27.533	0	1398.750	0	-1e10	8	-1e10	8	-1E+10	1	-1E+10	1	-1E+10	1	-1E+10	1	-1E+10	1	-1E+10	1
4902554	60	C	10/03/2022	09:03	-133.535	48.922	0	1425.30	0	2.4280	0	34.4900	0	27.536	0	1408.401	0	-1e10	8	-1e10	8	-1E+10	1	-1E+10	1	-1E+10	1	-1E+10	1	-1E+10	1	-1E+10	1
4902554	60	C	10/03/2022	09:03	-133.535	48.922	0	1435.60	0	2.4230	0	34.4910	0	27.537	0	1418.545	0	-1e10	8	-1e10	8	-1E+10	1	-1E+10	1	-1E+10	1	-1E+10	1	-1E+10	1	-1E+10	1
4902554	60	C	10/03/2022	09:03	-133.535	48.922	0	1445.50	0	2.4140	0	34.4930	0	27.540	0	1428.293	0	-1e10	8	-1e10	8	-1E+10	1	-1E+10	1	-1E+10	1	-1E+10	1	-1E+10	1	-1E+10	1
4902554	60	C	10/03/2022	09:03	-133.535	48.922	0	1455.40	0	2.4060	0	34.4940	0	27.541	0	1438.042	0	-1e10	8	-1e10	8	-1E+10	1	-1E+10	1	-1E+10	1	-1E+10	1	-1E+10	1	-1E+10	1
4902554	60	C	10/03/2022	09:03	-133.535	48.922	0	1465.50	0	2.3960	0	34.4960	0	27.544	0	1447.987	0	-1e10	8	-1e10	8	-1E+10	1	-1E+10	1	-1E+10	1	-1E+10	1	-1E+10	1	-1E+10	1
4902554	60	C	10/03/2022	09:03	-133.535	48.922	0	1475.40	0	2.3860	0	34.4980	0	27.546	0	1457.734	0	-1e10	8	-1e10	8	-1E+10	1	-1E+10	1	-1E+10	1	-1E+10	1	-1E+10	1	-1E+10	1
4902554	60	C	10/03/2022	09:03	-133.535	48.922	0	1485.50	0	2.3740	0	34.5000	0	27.549	0	1467.678	0	-1e10	8	-1e10	8	-1E+10	1	-1E+10	1	-1E+10	1	-1E+10	1	-1E+10	1	-1E+10	1
4902554	60	C	10/03/2022	09:03	-133.535	48.922	0	1495.50	0	2.3530	0	34.5040	0	27.554	0	1477.524	0	-1e10	8	-1e10	8	-1E+10	1	-1E+10	1	-1E+10	1	-1E+10	1	-1E+10	1	-1E+10	1
4902554	60	C	10/03/2022	09:03	-133.535	48.922	0	1505.20	0	2.3410	0	34.5060	0	27.557	0	1487.073	0	-1e10	8	-1e10	8	-1E+10	1	-1E+10	1	-1E+10	1	-1E+10	1	-1E+10	1	-1E+10	1
4902554	60	C	10/03/2022	09:03	-133.535	48.922	0	1515.10	0	2.3340	0	34.5080	0	27.559	0	1496.819	0	-1e10	8	-1e10	8	-1E+10	1	-1E+10	1	-1E+10	1	-1E+10	1	-1E+10	1	-1E+10	1
4902554	60	C	10/03/2022	09:03	-133.535	48.922	0	1525.10	0	2.3280	0	34.5090	0	27.560	0	1506.662	0	-1e10	8	-1e10	8	-1E+10	1	-1E+10	1	-1E+10	1	-1E+10	1	-1E+10	1	-1E+10	1
4902554	60	C	10/03/2022	09:03	-133.535	48.922	0	1535.50	0	2.3140	0	34.5110	0	27.563	0	1516.899	0	-1e10	8	-1e10	8	-1E+10	1	-1E+10	1	-1E+10	1	-1E+10	1	-1E+10	1	-1E+10	1
4902554	60	C	10/03/2022	09:03	-133.535	48.922	0	1545.70	0	2.3060	0	34.5130	0	27.565	0	1526.939	0	-1e10	8	-1e10	8	-1E+10	1	-1E+10	1	-1E+10	1	-1E+10	1	-1E+10	1	-1E+10	1
4902554	60	C	10/03/2022	09:03	-133.535	48.922	0	1555.40	0	2.2960	0	34.5150	0	27.568	0	1536.486	0	-1e10	8	-1e10	8	-1E+10	1	-1E+10	1	-1E+10	1	-1E+10	1	-1E+10	1	-1E+10	1
4902554	60	C	10/03/2022	09:03	-133.535	48.922	0	1565.30	0	2.2880	0	34.5170	0	27.570	0	1546.229	0	-1e10	8	-1e10	8	-1E+10	1	-1E+10	1	-1E+10	1	-1E+10	1	-1E+10	1	-1E+10	1
4902554	60	C	10/03/2022	09:03	-133.535	48.922	0	1575.60	0	2.2790	0	34.5180	0	27.572	0	1556.366	0	-1e10	8	-1e10	8	-1E+10	1	-1E+10	1	-1E+10	1	-1E+10	1	-1E+10	1	-1E+10	1
4902554	60	C	10/03/2022	09:03	-133.535	48.922	0	1585.80	0	2.2670	0	34.5210	0	27.575	0	1566.404	0	-1e10	8	-1e10	8	-1E+10	1	-1E+10	1	-1E+10	1	-1E+10	1	-1E+10	1	-1E+10	1
4902554	60	C	10/03/2022	09:03	-133.535	48.922	0	1595.20	0	2.2590	0	34.5220	0	27.577	0	1575.654	0	-1e10	8	-1e10	8	-1E+10	1	-1E+10	1	-1E+10	1	-1E+10	1	-1E+10	1	-1E+10	1
4902554	60	C	10/03/2022	09:03	-133.535	48.922	0	1605.30	0	2.2500	0	34.5240	0	27.579	0	1585.592	0	-1e10	8	-1e10	8	-1E+10	1	-1E+10	1	-1E+10	1	-1E+10	1	-1E+10	1	-1E+10	1
4902554	60	C	10/03/2022	09:03	-133.535	48.922	0	1615.40	0	2.2440	0	34.5250	0	27.580	0	1595.530	0	-1e10	8	-1e10	8	-1E+10	1	-1E+10	1	-1E+10	1	-1E+10	1	-1E+10	1	-1E+10	1
4902554	60	C	10/03/2022	09:03	-133.535	48.922	0	1625.10	0	2.2380	0	34.5260	0	27.582	0	1605.074	0	-1e10	8	-1e10	8	-1E+10	1	-1E+10	1	-1E+10	1	-1E+10	1	-1E+10	1	-1E+10	1
4902554	60	C	10/03/2022	09:03	-133.535	48.922	0	1635.20	0	2.2300	0	34.5280	0	27.584	0	1615.011	0	-1e10	8	-1e10	8	-1E+10	1	-1E+10	1	-1E+10	1	-1E+10	1	-1E+10	1	-1E+10	1
4902554	60	C	10/03/2022	09:03	-133.535	48.922	0	1645.10	0	2.2270	0	34.5290	0	27.585	0	1624.751	0	-1e10	8	-1e10	8	-1E+10	1	-1E+10	1	-1E+10	1	-1E+10	1	-1E+10	1	-1E+10	1
4902554	60	C	10/03/2022	09:03	-133.535	48.922	0	1655.40	0	2.2180	0	34.5300	0	27.587	0	1634.884	0	-1e10	8	-1e10	8	-1E+10	1	-1E+10	1	-1E+10	1	-1E+10	1	-1E+10	1	-1E+10	1
4902554	60	C	10/03/2022	09:03	-133.535	48.922	0	1665.30	0	2.2020	0	34.5330	0	27.590	0	1644.623	0	-1e10	8	-1e10	8	-1E+10	1	-1E+10	1	-1E+10	1	-1E+10	1	-1E+10	1	-1E+10	1
4902554	60	C	10/03/2022	09:03	-133.535	48.922	0	1675.20	0	2.1940	0	34.5350	0	27.593	0	1654.361	0	-1e10	8	-1e10	8	-1E+10	1	-1E+10	1	-1E+10	1	-1E+10	1	-1E+10	1	-1E+10	1
4902554	60	C	10/03/2022	09:03	-133.535	48.922	0	1685.40	0	2.1850	0	34.5370	0	27.595	0	1664.395	0	-1e10	8	-1e10	8	-1E+10	1	-1E+10	1	-1E+10	1	-1E+10	1	-1E+10	1	-1E+10	1
4902554	60	C	10/03/2022	09:03	-133.535	48.922	0	1695.40	0	2.1790	0	34.5380	0	27.596	0	1674.230	0	-1e10	8	-1e10	8	-1E+10	1	-1E+10	1	-1E+10	1	-1E+10	1	-1E+10	1	-1E+10	1
4902554	60	C	10/03/2022	09:03	-133.535	48.922	0	1705.40	0	2.1710	0	34.5400	0	27.599	0	1684.066	0	-1e10	8	-1e10	8	-1E+10	1	-1E+10	1	-1E+10	1	-1E+10	1	-1E+10	1	-1E+10	1
4902554	60	C	10/03/2022	09:03	-133.535	48.922	0	1715.20	0	2.1610	0	34.5420	0	27.601	0	1693.704	0	-1e10	8	-1e10	8	-1E+10	1	-1E+10	1	-1E+10	1	-1E+10	1	-1E+10	1	-1E+10	1
4902554	60	C	10/03/2022	09:03	-133.535	48.922	0	1725.50	0	2.1510	0	34.5440	0	27.604	0	1703.834	0	-1e10	8	-1e10	8	-1E+10	1	-1E+10	1	-1E+10	1	-1E+10	1	-1E+10	1	-1E+10	1
4902554	60	C	10/03/2022	09:03	-133.535	48.922	0	1735.40	0	2.1420	0	34.5450	0	27.605	0	1713.570	0	-1e10	8	-1e10	8	-1E+10	1	-1E+10	1	-1E+10	1	-1E+10	1	-1E+10	1	-1E+10	1
4902554	60	C	10/03/2022	09:03	-133.535	48.922	0	1745.30	0	2.1340	0	34.5470	0	27.607	0	1723.305	0	-1e10	8	-1e10	8	-1E+10	1	-1E+10	1	-1E+10	1	-1E+10	1	-1E+10	1	-1E+10	1
4902554	60	C	10/03/2022	09:03	-133.535	48.922	0	1755.10	0	2.1250	0	34.5490	0	27.610	0	1732.941	0	-1e10	8	-1e10	8	-1E+10	1	-1E+10	1	-1E+10	1	-1E+10	1	-1E+10	1	-1E+10	1
4902554	60	C	10/03/2022	09:03	-133.535	48.922	0	1765.20	0	2.1140	0	34.5510	0	27.612	0	1742.872	0	-1e10	8	-1e10	8	-1E+10	1	-1E+10	1	-1E+10	1	-1E+10	1	-1E+10	1	-1E+10	1
4902554	60	C	10/03/2022	09:03	-133.535	48.922	0	1775.60	0	2.1050	0	34.5530	0	27.615	0	1753.098	0	-1e10	8	-1e10	8	-1E+10	1	-1E+10	1	-1E+10	1	-1E+10	1	-1E+10	1	-1E+10	1
4902554	60	C	10/03/2022	09:03	-133.535	48.922	0	1785.50	0	2.0980	0	34.5540	0	27.616	0	1762.831	0	-1e10	8	-1e10	8	-1E+10	1	-1E+10	1	-1E+10	1	-1E+10	1	-1E+10	1	-1E+10	1
4902554	60	C	10/03/2022	09:03	-133.535	48.922	0	1795.20	0	2.0960	0	34.5550	0	27.617	0	1772.368	0	-1e10	8	-1e10	8	-1E+10	1	-1E+10	1	-1E+10	1	-1E+10	1	-1E+10	1	-1E+10	1
4902554	60	C	10/03/2022	09:03	-133.535	48.922	0	1805.20	0	2.0920	0	34.5550	0	27.618	0	1782.199	0	-1e10	8	-1e10	8	-1E+10	1	-1E+10	1	-1E+10	1	-1E+10	1	-1E+10	1	-1E+10	1
4902554	60	C	10/03/2022	09:03	-133.535	48.922	0	1815.30	0	2.0820	0	34.5580	0	27.621	0	1792.127	0	-1e10	8	-1e10	8	-1E+10	1	-1E+10	1	-1E+10	1	-1E+10	1	-1E+10	1	-1E+10	1
4902554	60	C	10/03/2022	09:03	-133.535	48.922	0	1825.40	0	2.0700	0	34.5600	0	27.623	0	1802.056	0	-1e10	8	-1e10	8	-1E+10	1	-1E+10	1	-1E+10	1	-1E+10	1	-1E+10	1	-1E+10	1
4902554	60	C	10/03/2022	09:03	-133.535	48.922	0	1835.30	0	2.0640	0	34.5610	0	27.625	0	1811.787	0	-1e10	8	-1e10	8	-1E+10	1	-1E+10	1	-1E+10	1	-1E+10	1	-1E+10	1	-1E+10	1
4902554	60	C	10/03/2022	09:03	-133.535	48.922	0	1845.10	0	2.0590	0	34.5620	0	27.626	0	1821.419	0	-1e10	8	-1e10	8	-1E+10	1	-1E+10	1	-1E+10	1	-1E+10	1	-1E+10	1	-1E+10	1
4902554	60	C	10/03/2022	09:03	-133.535	48.922	0	1855.60	0	2.0530	0	34.5630	0	27.627	0	1831.739	0	-1e10	8	-1e10	8	-1E+10	1	-1E+10	1	-1E+10	1	-1E+10	1	-1E+10	1	-1E+10	1
4902554	60	C	10/03/2022	09:03	-133.535	48.922	0	1865.70	0	2.0410	0	34.5650	0	27.630	0	1841.666	0	-1e10	8	-1e10	8	-1E+10	1	-1E+10	1	-1E+10	1	-1E+10	1	-1E+10	1	-1E+10	1
4902554	60	C	10/03/2022	09:03	-133.535	48.922	0	1875.30	0	2.0360	0	34.5670	0	27.632	0	1851.100	0	-1e10	8	-1e10	8	-1E+10	1	-1E+10	1	-1E+10	1	-1E+10	1	-1E+10	1	-1E+10	1
4902554	60	C	10/03/2022	09:03	-133.535	48.922	0	1885.40	0	2.0310	0	34.5680	0	27.633	0	1861.026	0	-1e10	8	-1e10	8	-1E+10	1	-1E+10	1	-1E+10	1	-1E+10	1	-1E+10	1	-1E+10	1
4902554	60	C	10/03/2022	09:03	-133.535	48.922	0	1895.60	0	2.0250	0	34.5690	0	27.634	0	1871.049	0	-1e10	8	-1e10	8	-1E+10	1	-1E+10	1	-1E+10	1	-1E+10	1	-1E+10	1	-1E+10	1
4902554	60	C	10/03/2022	09:03	-133.535	48.922	0	1905.30	0	2.0200	0	34.5700	0	27.636	0	1880.581	0	-1e10	8	-1e10	8	-1E+10	1	-1E+10	1	-1E+10	1	-1E+10	1	-1E+10	1	-1E+10	1
4902554	60	C	10/03/2022	09:03	-133.535	48.922	0	1915.20	0	2.0130	0	34.5710	0	27.637	0	1890.308	0	-1e10	8	-1e10	8	-1E+10	1	-1E+10	1	-1E+10	1	-1E+10	1	-1E+10	1	-1E+10	1
4902554	60	C	10/03/2022	09:03	-133.535	48.922	0	1925.10	0	2.0050	0	34.5730	0	27.639	0	1900.035	0	-1e10	8	-1e10	8	-1E+10	1	-1E+10	1	-1E+10	1	-1E+10	1	-1E+10	1	-1E+10	1
4902554	60	C	10/03/2022	09:03	-133.535	48.922	0	1935.40	0	1.9940	0	34.5760	0	27.643	0	1910.155	0	-1e10	8	-1e10	8	-1E+10	1	-1E+10	1	-1E+10	1	-1E+10	1	-1E+10	1	-1E+10	1
4902554	60	C	10/03/2022	09:03	-133.535	48.922	0	1945.70	0	1.9860	0	34.5770	0	27.644	0	1920.274	0	-1e10	8	-1e10	8	-1E+10	1	-1E+10	1	-1E+10	1	-1E+10	1	-1E+10	1	-1E+10	1
4902554	60	C	10/03/2022	09:03	-133.535	48.922	0	1955.50	0	1.9830	0	34.5780	0	27.645	0	1929.902	0	-1e10	8	-1e10	8	-1E+10	1	-1E+10	1	-1E+10	1	-1E+10	1	-1E+10	1	-1E+10	1
4902554	60	C	10/03/2022	09:03	-133.535	48.922	0	1965.30	0	1.9780	0	34.5790	0	27.647	0	1939.529	0	-1e10	8	-1e10	8	-1E+10	1	-1E+10	1	-1E+10	1	-1E+10	1	-1E+10	1	-1E+10	1
4902554	60	C	10/03/2022	09:03	-133.535	48.922	0	1972.80	0	1.9780	0	34.5790	0	27.647	0	1946.897	0	-1e10	8	-1e10	8	-1E+10	1	-1E+10	1	-1E+10	1	-1E+10	1	-1E+10	1	-1E+10	1
4902554	60	C	10/03/2022	09:03	-133.535	48.922	0																										
4902554	61	C	10/13/2022	14:10	-133.550	48.792	0	0.30	0	16.6380	0	32.1840	0	23.439	0	0.297	0	-1e10	8	-1e10	8	-1E+10	1	-1E+10	1	-1E+10	1	-1E+10	1	-1E+10	1	-1E+10	1
4902554	61	C	10/13/2022	14:10	-133.550	48.792	0	0.40	0	16.6380	0	32.1850	0	23.440	0	0.397	0	-1e10	8	-1e10	8	-1E+10	1	-1E+10	1	-1E+10	1	-1E+10	1	-1E+10	1	-1E+10	1
4902554	61	C	10/13/2022	14:10	-133.550	48.792	0	1.20	0	16.6390	0	32.1850	0	23.439	0	1.190	0	-1e10	8	-1e10	8	-1E+10	1	-1E+10	1	-1E+10	1	-1E+10	1	-1E+10	1	-1E+10	1
4902554	61	C	10/13/2022	14:10	-133.550	48.792	0	1.90	0	16.6410	0	32.1830	0	23.437	0	1.884	0	-1e10	8	-1e10	8	-1E+10	1	-1E+10	1	-1E+10	1	-1E+10	1	-1E+10	1	-1E+10	1
4902554	61	C	10/13/2022	14:10	-133.550	48.792	0	3.00	0	16.6420	0	32.1810	0	23.436	0	2.975	0	-1e10	8	-1e10	8	-1E+10	1	-1E+10	1	-1E+10	1	-1E+10	1	-1E+10	1	-1E+10	1
4902554	61	C	10/13/2022	14:10	-133.550	48.792	0	3.90	0	16.6430	0	32.1840	0	23.438	0	3.867	0	-1e10	8	-1e10	8	-1E+10	1	-1E+10	1	-1E+10	1	-1E+10	1	-1E+10	1	-1E+10	1
4902554	61	C	10/13/2022	14:10	-133.550	48.792	0	4.80	0	16.6430	0	32.1840	0	23.438	0	4.759	0	-1e10	8	-1e10	8	-1E+10	1	-1E+10	1	-1E+10	1	-1E+10	1	-1E+10	1	-1E+10	1
4902554	61	C	10/13/2022	14:10	-133.550	48.792	0	5.90	0	16.6420	0	32.1850	0	23.439	0	5.850	0	-1e10	8	-1e10	8	-1E+10	1	-1E+10	1	-1E+10	1	-1E+10	1	-1E+10	1	-1E+10	1
4902554	61	C	10/13/2022	14:10	-133.550	48.792	0	6.90	0	16.6450	0	32.1850	0	23.438	0	6.841	0	-1e10	8	-1e10	8	-1E+10	1	-1E+10	1	-1E+10	1	-1E+10	1	-1E+10	1	-1E+10	1
4902554	61	C	10/13/2022	14:10	-133.550	48.792	0	8.10	0	16.6460	0	32.1850	0	23.438	0	8.031	0	-1e10	8	-1e10	8	-1E+10	1	-1E+10	1	-1E+10	1	-1E+10	1	-1E+10	1	-1E+10	1
4902554	61	C	10/13/2022	14:10	-133.550	48.792	0	8.80	0	16.6440	0	32.1850	0	23.439	0	8.725	0	-1e10	8	-1e10	8	-1E+10	1	-1E+10	1	-1E+10	1	-1E+10	1	-1E+10	1	-1E+10	1
4902554	61	C	10/13/2022	14:10	-133.550	48.792	0	9.90	0	16.6440	0	32.1840	0	23.438	0	9.816	0	-1e10	8	-1e10	8	-1E+10	1	-1E+10	1	-1E+10	1	-1E+10	1	-1E+10	1	-1E+10	1
4902554	61	C	10/13/2022	14:10	-133.550	48.792	0	11.00	0	16.6450	0	32.1830	0	23.437	0	10.907	0	-1e10	8	-1e10	8	-1E+10	1	-1E+10	1	-1E+10	1	-1E+10	1	-1E+10	1	-1E+10	1
4902554	61	C	10/13/2022	14:10	-133.550	48.792	0	12.00	0	16.6460	0	32.1850	0	23.438	0	11.898	0	-1e10	8	-1e10	8	-1E+10	1	-1E+10	1	-1E+10	1	-1E+10	1	-1E+10	1	-1E+10	1
4902554	61	C	10/13/2022	14:10	-133.550	48.792	0	13.10	0	16.6460	0	32.1810	0	23.435	0	12.989	0	-1e10	8	-1e10	8	-1E+10	1	-1E+10	1	-1E+10	1	-1E+10	1	-1E+10	1	-1E+10	1
4902554	61	C	10/13/2022	14:10	-133.550	48.792	0	13.90	0	16.6460	0	32.1870	0	23.440	0	13.782	0	-1e10	8	-1e10	8	-1E+10	1	-1E+10	1	-1E+10	1	-1E+10	1	-1E+10	1	-1E+10	1
4902554	61	C	10/13/2022	14:10	-133.550	48.792	0	14.90	0	16.6460	0	32.1860	0	23.439	0	14.773	0	-1e10	8	-1e10	8	-1E+10	1	-1E+10	1	-1E+10	1	-1E+10	1	-1E+10	1	-1E+10	1
4902554	61	C	10/13/2022	14:10	-133.550	48.792	0	16.00	0	16.6460	0	32.1860	0	23.439	0	15.864	0	-1e10	8	-1e10	8	-1E+10	1	-1E+10	1	-1E+10	1	-1E+10	1	-1E+10	1	-1E+10	1
4902554	61	C	10/13/2022	14:10	-133.550	48.792	0	17.00	0	16.6470	0	32.1860	0	23.439	0	16.855	0	-1e10	8	-1e10	8	-1E+10	1	-1E+10	1	-1E+10	1	-1E+10	1	-1E+10	1	-1E+10	1
4902554	61	C	10/13/2022	14:10	-133.550	48.792	0	18.10	0	16.6470	0	32.1860	0	23.439	0	17.946	0	-1e10	8	-1e10	8	-1E+10	1	-1E+10	1	-1E+10	1	-1E+10	1	-1E+10	1	-1E+10	1
4902554	61	C	10/13/2022	14:10	-133.550	48.792	0	18.80	0	16.6470	0	32.1860	0	23.439	0	18.640	0	-1e10	8	-1e10	8	-1E+10	1	-1E+10	1	-1E+10	1	-1E+10	1	-1E+10	1	-1E+10	1
4902554	61	C	10/13/2022	14:10	-133.550	48.792	0	19.80	0	16.6450	0	32.1860	0	23.439	0	19.631	0	-1e10	8	-1e10	8	-1E+10	1	-1E+10	1	-1E+10	1	-1E+10	1	-1E+10	1	-1E+10	1
4902554	61	C	10/13/2022	14:10	-133.550	48.792	0	20.90	0	16.6450	0	32.1850	0	23.439	0	20.722	0	-1e10	8	-1e10	8	-1E+10	1	-1E+10	1	-1E+10	1	-1E+10	1	-1E+10	1	-1E+10	1
4902554	61	C	10/13/2022	14:10	-133.550	48.792	0	21.90	0	16.6470	0	32.1830	0	23.437	0	21.713	0	-1e10	8	-1e10	8	-1E+10	1	-1E+10	1	-1E+10	1	-1E+10	1	-1E+10	1	-1E+10	1
4902554	61	C	10/13/2022	14:10	-133.550	48.792	0	23.00	0	16.6480	0	32.1850	0	23.438	0	22.804	0	-1e10	8	-1e10	8	-1E+10	1	-1E+10	1	-1E+10	1	-1E+10	1	-1E+10	1	-1E+10	1
4902554	61	C	10/13/2022	14:10	-133.550	48.792	0	24.00	0	16.6480	0	32.1860	0	23.439	0	23.795	0	-1e10	8	-1e10	8	-1E+10	1	-1E+10	1	-1E+10	1	-1E+10	1	-1E+10	1	-1E+10	1
4902554	61	C	10/13/2022	14:10	-133.550	48.792	0	25.10	0	16.6480	0	32.1860	0	23.439	0	24.886	0	-1e10	8	-1e10	8	-1E+10	1	-1E+10	1	-1E+10	1	-1E+10	1	-1E+10	1	-1E+10	1
4902554	61	C	10/13/2022	14:10	-133.550	48.792	0	26.00	0	16.6480	0	32.1860	0	23.439	0	25.778	0	-1e10	8	-1e10	8	-1E+10	1	-1E+10	1	-1E+10	1	-1E+10	1	-1E+10	1	-1E+10	1
4902554	61	C	10/13/2022	14:10	-133.550	48.792	0	27.00	0	16.6480	0	32.1860	0	23.439	0	26.770	0	-1e10	8	-1e10	8	-1E+10	1	-1E+10	1	-1E+10	1	-1E+10	1	-1E+10	1	-1E+10	1
4902554	61	C	10/13/2022	14:10	-133.550	48.792	0	27.90	0	16.6480	0	32.1870	0	23.440	0	27.662	0	-1e10	8	-1e10	8	-1E+10	1	-1E+10	1	-1E+10	1	-1E+10	1	-1E+10	1	-1E+10	1
4902554	61	C	10/13/2022	14:10	-133.550	48.792	0	29.10	0	16.6490	0	32.1870	0	23.440	0	28.852	0	-1e10	8	-1e10	8	-1E+10	1	-1E+10	1	-1E+10	1	-1E+10	1	-1E+10	1	-1E+10	1
4902554	61	C	10/13/2022	14:10	-133.550	48.792	0	29.90	0	16.6480	0	32.1870	0	23.440	0	29.645	0	-1e10	8	-1e10	8	-1E+10	1	-1E+10	1	-1E+10	1	-1E+10	1	-1E+10	1	-1E+10	1
4902554	61	C	10/13/2022	14:10	-133.550	48.792	0	30.70	0	16.6490	0	32.1860	0	23.439	0	30.438	0	-1e10	8	-1e10	8	-1E+10	1	-1E+10	1	-1E+10	1	-1E+10	1	-1E+10	1	-1E+10	1
4902554	61	C	10/13/2022	14:10	-133.550	48.792	0	31.90	0	16.6490	0	32.1850	0	23.438	0	31.628	0	-1e10	8	-1e10	8	-1E+10	1	-1E+10	1	-1E+10	1	-1E+10	1	-1E+10	1	-1E+10	1
4902554	61	C	10/13/2022	14:10	-133.550	48.792	0	33.10	0	16.6340	0	32.1850	0	23.442	0	32.817	0	-1e10	8	-1e10	8	-1E+10	1	-1E+10	1	-1E+10	1	-1E+10	1	-1E+10	1	-1E+10	1
4902554	61	C	10/13/2022	14:10	-133.550	48.792	0	34.10	0	16.3500	0	32.2070	0	23.523	0	33.809	0	-1e10	8	-1e10	8	-1E+10	1	-1E+10	1	-1E+10	1	-1E+10	1	-1E+10	1	-1E+10	1
4902554	61	C	10/13/2022	14:10	-133.550	48.792	0	35.10	0	15.8660	0	32.2280	0	23.648	0	34.800	0	-1e10	8	-1e10	8	-1E+10	1	-1E+10	1	-1E+10	1	-1E+10	1	-1E+10	1	-1E+10	1
4902554	61	C	10/13/2022	14:10	-133.550	48.792	0	35.90	0	15.6780	0	32.2320	0	23.693	0	35.593	0	-1e10	8	-1e10	8	-1E+10	1	-1E+10	1	-1E+10	1	-1E+10	1	-1E+10	1	-1E+10	1
4902554	61	C	10/13/2022	14:10	-133.550	48.792	0	37.00	0	15.3440	0	32.2410	0	23.773	0	36.684	0	-1e10	8	-1e10	8	-1E+10	1	-1E+10	1	-1E+10	1	-1E+10	1	-1E+10	1	-1E+10	1
4902554	61	C	10/13/2022	14:10	-133.550	48.792	0	38.10	0	14.9080	0	32.2550	0	23.878	0	37.774	0	-1e10	8	-1e10	8	-1E+10	1	-1E+10	1	-1E+10	1	-1E+10	1	-1E+10	1	-1E+10	1
4902554	61	C	10/13/2022	14:10	-133.550	48.792	0	38.90	0	14.6520	0	32.2440	0	23.924	0	38.567	0	-1e10	8	-1e10	8	-1E+10	1	-1E+10	1	-1E+10	1	-1E+10	1	-1E+10	1	-1E+10	1
4902554	61	C	10/13/2022	14:10	-133.550	48.792	0	39.70	0	14.5230	0	32.2430	0	23.951	0	39.360	0	-1e10	8	-1e10	8	-1E+10	1	-1E+10	1	-1E+10	1	-1E+10	1	-1E+10	1	-1E+10	1
4902554	61	C	10/13/2022	14:10	-133.550	48.792	0	41.10	0	14.2370	0	32.2450	0	24.012	0	40.748	0	-1e10	8	-1e10	8	-1E+10	1	-1E+10	1	-1E+10	1	-1E+10	1	-1E+10	1	-1E+10	1
4902554	61	C	10/13/2022	14:10	-133.550	48.792	0	41.80	0	13.8750	0	32.2270	0	24.072	0	41.442	0	-1e10	8	-1e10	8	-1E+10	1	-1E+10	1	-1E+10	1	-1E+10	1	-1E+10	1	-1E+10	1
4902554	61	C	10/13/2022	14:10	-133.550	48.792	0	42.70	0	13.2770	0	32.2440	0	24.206	0	42.334	0	-1e10	8	-1e10	8	-1E+10	1	-1E+10	1	-1E+10	1	-1E+10	1	-1E+10	1	-1E+10	1
4902554	61	C	10/13/2022	14:10	-133.550	48.792	0	43.70	0	12.1820	0	32.2700	0	24.437	0	43.326	0	-1e10	8	-1e10	8	-1E+10	1	-1E+10	1	-1E+10	1	-1E+10	1	-1E+10	1	-1E+10	1
4902554	61	C	10/13/2022	14:10	-133.550	48.792	0	44.70	0	11.6740	0	32.2680	0	24.530	0	44.317	0	-1e10	8	-1e10	8	-1E+10	1	-1E+10	1	-1E+10	1	-1E+10	1	-1E+10	1	-1E+10	1
4902554	61	C	10/13/2022	14:10	-133.550	48.792	0	45.80	0	11.3220	0	32.2470	0	24.577	0	45.407	0	-1e10	8	-1e10	8	-1E+10	1	-1E+10	1	-1E+10	1	-1E+10	1	-1E+10	1	-1E+10	1
4902554	61	C	10/13/2022	14:10	-133.550	48.792	0	46.80	0	11.0120	0	32.2510	0	24.635	0	46.399	0	-1e10	8	-1e10	8	-1E+10	1	-1E+10	1	-1E+10	1	-1E+10	1	-1E+10	1	-1E+10	1
4902554	61	C	10/13/2022	14:10	-133.550	48.792	0	47.80	0	10.7390	0	32.2480	0	24.680	0	47.390	0	-1e10	8	-1e10	8	-1E+10	1	-1E+10	1	-1E+10	1	-1E+10	1	-1E+10	1	-1E+10	1
4902554	61	C	10/13/2022	14:10	-133.550	48.792	0	49.00	0	10.5100	0	32.2510	0	24.722	0	48.580	0	-1e10	8	-1e10	8	-1E+10	1	-1E+10	1	-1E+10	1	-1E+10	1	-1E+10	1	-1E+10	1
4902554	61	C	10/13/2022	14:10	-133.550	48.792	0	49.90	0	10.2040	0	32.2570	0	24.778	0	49.472	0	-1e10	8	-1e10	8	-1E+10	1	-1E+10	1	-1E+10	1	-1E+10	1	-1E+10	1	-1E+10	1
4902554	61	C	10/13/2022	14:10	-133.550	48.792	0	51.00	0	9.8360	0	32.2690	0	24.848	0	50.562	0	-1e10	8	-1e10	8	-1E+10	1	-1E+10	1	-1E+10	1	-1E+10	1	-1E+10	1	-1E+10	1
4902554	61	C	10/13/2022	14:10	-133.550	48.792	0	52.00	0	9.7210	0	32.2860	0	24.880	0	51.553	0	-1e10	8	-1e10	8	-1E+10	1	-1E+10	1	-1E+10	1	-1E+10	1	-1E+10	1	-1E+10	1
4902554	61	C	10/13/2022	14:10	-133.550	48.792	0	52.90	0	9.6680	0	32.2890	0	24.891	0	52.446	0	-1e10	8	-1e10	8	-1E+10	1	-1E+10	1	-1E+10	1	-1E+10	1	-1E+10	1	-1E+10	1
4902554	61	C	10/13/2022	14:10	-133.550	48.792	0	53.80	0	9.3590	0	32.3200	0	24.965	0	53.338	0	-1e10	8	-1e10	8	-1E+10	1	-1E+10	1	-1E+10	1	-1E+10	1	-1E+10	1	-1E+10	1
4902554	61	C	10/13/2022	14:10	-133.550	48.792	0	55.00	0	9.0300	0	32.3300	0	25.025	0	54.527	0	-1e10	8	-1e10	8	-1E+10	1	-1E+10	1	-1E+10	1	-1E+10	1	-1E+10	1	-1E+10	1
4902554	61	C	10/13/2022	14:10	-133.550	48.792	0	56.20	0	8.7730	0	32.3360	0	25.069	0	55.717	0	-1e10	8	-1e10	8	-1E+10	1	-1E+10	1	-1E+10	1	-1E+10	1	-1E+10	1	-1E+10	1
4902554	61	C	10/13/2022	14:10	-133.550	48.792	0	57.10	0	8.5460	0	32.3300	0	25.098	0	56.609	0	-1e10	8	-1e10	8	-1E+10	1	-1E+10	1	-1E+10	1	-1E+10	1	-1E+10	1	-1E+10	1
4902554	61	C	10/13/2022	14:10	-133.550	48.792	0	57.90	0	8.2980	0	32.3290	0	25.134	0	57.402	0	-1e10	8	-1e10	8	-1E+10	1	-1E+10	1	-1E+10	1	-1E+10	1	-1E+10	1	-1E+10	1
4902554	61	C	10/13/2022	14:10	-133.550	48.792	0	59.00	0	8.1730	0	32.3300	0	25.154	0	58.492	0	-1e10	8	-1e10	8	-1E+10	1	-1E+10	1	-1E+10	1	-1E+10	1	-1E+10	1	-1E+10	1
4902554	61	C	10/13/2022	14:10	-133.550	48.792	0	59.90	0	8.1360	0	32.3450	0	25.171	0	59.384	0	-1e10	8	-1e10	8	-1E+10	1	-1E+10	1	-1E+10	1	-1E+10	1	-1E+10	1	-1E+10	1
4902554	61	C	10/13/2022	14:10	-133.550	48.792	0	60.80	0	8.1330	0	32.3550	0	25.179	0	60.277	0	-1e10	8	-1e10	8	-1E+10	1	-1E+10	1	-1E+10	1	-1E+10	1	-1E+10	1	-1E+10	1
4902554	61	C	10/13/2022	14:10	-133.550	48.792	0	62.00	0	8.0900	0	32.3600	0	25.189	0	61.466	0	-1e10	8	-1e10	8	-1E+10	1	-1E+10	1	-1E+10	1	-1E+10	1	-1E+10	1	-1E+10	1
4902554	61	C	10/13/2022	14:10	-133.550	48.792	0	62.90	0	7.9920	0	32.3630	0	25.206	0	62.358	0	-1e10	8	-1e10	8	-1E+10	1	-1E+10	1	-1E+10	1	-1E+10	1	-1E+10	1	-1E+10	1
4902554	61	C	10/13/2022	14:10	-133.550	48.792	0	63.80	0	7.8390	0	32.3650	0	25.229	0	63.250	0	-1e10	8	-1e10	8	-1E+10	1	-1E+10	1	-1E+10	1	-1E+10	1	-1E+10	1	-1E+10	1
4902554	61	C	10/13/2022	14:10	-133.550	48.792	0	65.00	0	7.7400	0	32.3580	0	25.238	0	64.440	0	-1e10	8	-1e10	8	-1E+10	1	-1E+10	1	-1E+10	1	-1E+10	1	-1E+10	1	-1E+10	1
4902554	61	C	10/13/2022	14:10	-133.550	48.792	0	66.30	0	7.6620	0	32.3520	0	25.244	0	65.728	0	-1e10	8	-1e10	8	-1E+10	1	-1E+10	1	-1E+10	1	-1E+10	1	-1E+10	1	-1E+10	1
4902554	61	C	10/13/2022	14:10	-133.550	48.792	0	67.00	0	7.6530	0	32.3500	0	25.244	0	66.422	0	-1e10	8	-1e10	8	-1E+10	1	-1E+10	1	-1E+10	1	-1E+10	1	-1E+10	1	-1E+10	1
4902554	61	C	10/13/2022	14:10	-133.550	48.792	0	67.90	0	7.6080	0	32.3470	0	25.248	0	67.314	0	-1e10	8	-1e10	8	-1E+10	1	-1E+10	1	-1E+10	1	-1E+10	1	-1E+10	1	-1E+10	1
4902554	61	C	10/13/2022	14:10	-133.550	48.792	0	69.10	0	7.5760	0	32.3440	0	25.250	0	68.504	0	-1e10	8	-1e10	8	-1E+10	1	-1E+10	1	-1E+10	1	-1E+10	1	-1E+10	1	-1E+10	1
4902554	61	C	10/13/2022	14:10	-133.550	48.792	0	70.10	0	7.5430	0	32.3450	0	25.255	0	69.495	0	-1e10	8	-1e10	8	-1E+10	1	-1E+10	1	-1E+10	1	-1E+10	1	-1E+10	1	-1E+10	1
4902554	61	C	10/13/2022	14:10	-133.550	48.792	0	71.00	0	7.5210	0	32.3480	0	25.261	0	70.387	0	-1e10	8	-1e10	8	-1E+10	1	-1E+10	1	-1E+10	1	-1E+10	1	-1E+10	1	-1E+10	1
4902554	61	C	10/13/2022	14:10	-133.550	48.792	0	71.90	0	7.5230	0	32.3480	0	25.260	0	71.279	0	-1e10	8	-1e10	8	-1E+10	1	-1E+10	1	-1E+10	1	-1E+10	1	-1E+10	1	-1E+10	1
4902554	61	C	10/13/2022	14:10	-133.550	48.792	0	73.10	0	7.4870	0	32.3540	0	25.270	0	72.468	0	-1e10	8	-1e10	8	-1E+10	1	-1E+10	1	-1E+10	1	-1E+10	1	-1E+10	1	-1E+10	1
4902554	61	C	10/13/2022	14:10	-133.550	48.792	0	74.10	0	7.4120	0	32.3590	0	25.284	0	73.460	0	-1e10	8	-1e10	8	-1E+10	1	-1E+10	1	-1E+10	1	-1E+10	1	-1E+10	1	-1E+10	1
4902554	61	C	10/13/2022	14:10	-133.550	48.792	0	75.00	0	7.4200	0	32.3730	0	25.294	0	74.352	0	-1e10	8	-1e10	8	-1E+10	1	-1E+10	1	-1E+10	1	-1E+10	1	-1E+10	1	-1E+10	1
4902554	61	C	10/13/2022	14:10	-133.550	48.792	0	76.00	0	7.3740	0	32.3780	0	25.304	0	75.343	0	-1e10	8	-1e10	8	-1E+10	1	-1E+10	1	-1E+10	1	-1E+10	1	-1E+10	1	-1E+10	1
4902554	61	C	10/13/2022	14:10	-133.550	48.792	0	77.00	0	7.3350	0	32.3840	0	25.315	0	76.334	0	-1e10	8	-1e10	8	-1E+10	1	-1E+10	1	-1E+10	1	-1E+10	1	-1E+10	1	-1E+10	1
4902554	61	C	10/13/2022	14:10	-133.550	48.792	0	77.90	0	7.3500	0	32.3870	0	25.315	0	77.226	0	-1e10	8	-1e10	8	-1E+10	1	-1E+10	1	-1E+10	1	-1E+10	1	-1E+10	1	-1E+10	1
4902554	61	C	10/13/2022	14:10	-133.550	48.792	0	78.90	0	7.3310	0	32.3930	0	25.322	0	78.217	0	-1e10	8	-1e10	8	-1E+10	1	-1E+10	1	-1E+10	1	-1E+10	1	-1E+10	1	-1E+10	1
4902554	61	C	10/13/2022	14:10	-133.550	48.792	0	79.90	0	7.2820	0	32.3950	0	25.330	0	79.208	0	-1e10	8	-1e10	8	-1E+10	1	-1E+10	1	-1E+10	1	-1E+10	1	-1E+10	1	-1E+10	1
4902554	61	C	10/13/2022	14:10	-133.550	48.792	0	80.90	0	7.1600	0	32.3830	0	25.338	0	80.200	0	-1e10	8	-1e10	8	-1E+10	1	-1E+10	1	-1E+10	1	-1E+10	1	-1E+10	1	-1E+10	1
4902554	61	C	10/13/2022	14:10	-133.550	48.792	0	81.90	0	7.1210	0	32.3860	0	25.345	0	81.191	0	-1e10	8	-1e10	8	-1E+10	1	-1E+10	1	-1E+10	1	-1E+10	1	-1E+10	1	-1E+10	1
4902554	61	C	10/13/2022	14:10	-133.550	48.792	0	83.00	0	7.0710	0	32.3910	0	25.356	0	82.281	0	-1e10	8	-1e10	8	-1E+10	1	-1E+10	1	-1E+10	1	-1E+10	1	-1E+10	1	-1E+10	1
4902554	61	C	10/13/2022	14:10	-133.550	48.792	0	84.20	0	7.0110	0	32.3920	0	25.365	0	83.470	0	-1e10	8	-1e10	8	-1E+10	1	-1E+10	1	-1E+10	1	-1E+10	1	-1E+10	1	-1E+10	1
4902554	61	C	10/13/2022	14:10	-133.550	48.792	0	85.00	0	6.9880	0	32.3980	0	25.372	0	84.263	0	-1e10	8	-1e10	8	-1E+10	1	-1E+10	1	-1E+10	1	-1E+10	1	-1E+10	1	-1E+10	1
4902554	61	C	10/13/2022	14:10	-133.550	48.792	0	86.20	0	6.9590	0	32.4090	0	25.385	0	85.453	0	-1e10	8	-1e10	8	-1E+10	1	-1E+10	1	-1E+10	1	-1E+10	1	-1E+10	1	-1E+10	1
4902554	61	C	10/13/2022	14:10	-133.550	48.792	0	87.10	0	6.9530	0	32.4090	0	25.386	0	86.345	0	-1e10	8	-1e10	8	-1E+10	1	-1E+10	1	-1E+10	1	-1E+10	1	-1E+10	1	-1E+10	1
4902554	61	C	10/13/2022	14:10	-133.550	48.792	0	88.10	0	6.9450	0	32.4110	0	25.388	0	87.336	0	-1e10	8	-1e10	8	-1E+10	1	-1E+10	1	-1E+10	1	-1E+10	1	-1E+10	1	-1E+10	1
4902554	61	C	10/13/2022	14:10	-133.550	48.792	0	89.20	0	6.9310	0	32.4130	0	25.392	0	88.426	0	-1e10	8	-1e10	8	-1E+10	1	-1E+10	1	-1E+10	1	-1E+10	1	-1E+10	1	-1E+10	1
4902554	61	C	10/13/2022	14:10	-133.550	48.792	0	90.10	0	6.9180	0	32.4160	0	25.396	0	89.318	0	-1e10	8	-1e10	8	-1E+10	1	-1E+10	1	-1E+10	1	-1E+10	1	-1E+10	1	-1E+10	1
4902554	61	C	10/13/2022	14:10	-133.550	48.792	0	91.00	0	6.9070	0	32.4200	0	25.400	0	90.210	0	-1e10	8	-1e10	8	-1E+10	1	-1E+10	1	-1E+10	1	-1E+10	1	-1E+10	1	-1E+10	1
4902554	61	C	10/13/2022	14:10	-133.550	48.792	0	91.70	0	6.8970	0	32.4230	0	25.404	0	90.904	0	-1e10	8	-1e10	8	-1E+10	1	-1E+10	1	-1E+10	1	-1E+10	1	-1E+10	1	-1E+10	1
4902554	61	C	10/13/2022	14:10	-133.550	48.792	0	93.10	0	6.8740	0	32.4290	0	25.412	0	92.291	0	-1e10	8	-1e10	8	-1E+10	1	-1E+10	1	-1E+10	1	-1E+10	1	-1E+10	1	-1E+10	1
4902554	61	C	10/13/2022	14:10	-133.550	48.792	0	94.10	0	6.8590	0	32.4340	0	25.418	0	93.282	0	-1e10	8	-1e10	8	-1E+10	1	-1E+10	1	-1E+10	1	-1E+10	1	-1E+10	1	-1E+10	1
4902554	61	C	10/13/2022	14:10	-133.550	48.792	0	95.00	0	6.8420	0	32.4400	0	25.425	0	94.174	0	-1e10	8	-1e10	8	-1E+10	1	-1E+10	1	-1E+10	1	-1E+10	1	-1E+10	1	-1E+10	1
4902554	61	C	10/13/2022	14:10	-133.550	48.792	0	96.00	0	6.8390	0	32.4420	0	25.427	0	95.165	0	-1e10	8	-1e10	8	-1E+10	1	-1E+10	1	-1E+10	1	-1E+10	1	-1E+10	1	-1E+10	1
4902554	61	C	10/13/2022	14:10	-133.550	48.792	0	96.90	0	6.8360	0	32.4430	0	25.428	0	96.057	0	-1e10	8	-1e10	8	-1E+10	1	-1E+10	1	-1E+10	1	-1E+10	1	-1E+10	1	-1E+10	1
4902554	61	C	10/13/2022	14:10	-133.550	48.792	0	97.90	0	6.8320	0	32.4440	0	25.429	0	97.048	0	-1e10	8	-1e10	8	-1E+10	1	-1E+10	1	-1E+10	1	-1E+10	1	-1E+10	1	-1E+10	1
4902554	61	C	10/13/2022	14:10	-133.550	48.792	0	98.80	0	6.8190	0	32.4490	0	25.435	0	97.940	0	-1e10	8	-1e10	8	-1E+10	1	-1E+10	1	-1E+10	1	-1E+10	1	-1E+10	1	-1E+10	1
4902554	61	C	10/13/2022	14:10	-133.550	48.792	0	99.90	0	6.8130	0	32.4510	0	25.437	0	99.031	0	-1e10	8	-1e10	8	-1E+10	1	-1E+10	1	-1E+10	1	-1E+10	1	-1E+10	1	-1E+10	1
4902554	61	C	10/13/2022	14:10	-133.550	48.792	0	101.30	0	6.7810	0	32.4660	0	25.453	0	100.418	0	-1e10	8	-1e10	8	-1E+10	1	-1E+10	1	-1E+10	1	-1E+10	1	-1E+10	1	-1E+10	1
4902554	61	C	10/13/2022	14:10	-133.550	48.792	0	102.20	0	6.7760	0	32.4690	0	25.456	0	101.310	0	-1e10	8	-1e10	8	-1E+10	1	-1E+10	1	-1E+10	1	-1E+10	1	-1E+10	1	-1E+10	1
4902554	61	C	10/13/2022	14:10	-133.550	48.792	0	102.90	0	6.7630	0	32.4770	0	25.464	0	102.004	0	-1e10	8	-1e10	8	-1E+10	1	-1E+10	1	-1E+10	1	-1E+10	1	-1E+10	1	-1E+10	1
4902554	61	C	10/13/2022	14:10	-133.550	48.792	0	103.80	0	6.7360	0	32.4950	0	25.482	0	102.896	0	-1e10	8	-1e10	8	-1E+10	1	-1E+10	1	-1E+10	1	-1E+10	1	-1E+10	1	-1E+10	1
4902554	61	C	10/13/2022	14:10	-133.550	48.792	0	104.80	0	6.7130	0	32.5080	0	25.495	0	103.887	0	-1e10	8	-1e10	8	-1E+10	1	-1E+10	1	-1E+10	1	-1E+10	1	-1E+10	1	-1E+10	1
4902554	61	C	10/13/2022	14:10	-133.550	48.792	0	105.90	0	6.6270	0	32.5920	0	25.573	0	104.977	0	-1e10	8	-1e10	8	-1E+10	1	-1E+10	1	-1E+10	1	-1E+10	1	-1E+10	1	-1E+10	1
4902554	61	C	10/13/2022	14:10	-133.550	48.792	0	106.90	0	6.5870	0	32.6330	0	25.610	0	105.968	0	-1e10	8	-1e10	8	-1E+10	1	-1E+10	1	-1E+10	1	-1E+10	1	-1E+10	1	-1E+10	1
4902554	61	C	10/13/2022	14:10	-133.550	48.792	0	108.00	0	6.5750	0	32.6430	0	25.620	0	107.058	0	-1e10	8	-1e10	8	-1E+10	1	-1E+10	1	-1E+10	1	-1E+10	1	-1E+10	1	-1E+10	1
4902554	61	C	10/13/2022	14:10	-133.550	48.792	0	109.10	0	6.5560	0	32.6640	0	25.639	0	108.148	0	-1e10	8	-1e10	8	-1E+10	1	-1E+10	1	-1E+10	1	-1E+10	1	-1E+10	1	-1E+10	1
4902554	61	C	10/13/2022	14:10	-133.550	48.792	0	110.00	0	6.5320	0	32.6890	0	25.661	0	109.040	0	-1e10	8	-1e10	8	-1E+10	1	-1E+10	1	-1E+10	1	-1E+10	1	-1E+10	1	-1E+10	1
4902554	61	C	10/13/2022	14:10	-133.550	48.792	0	111.00	0	6.5020	0	32.7170	0	25.687	0	110.031	0	-1e10	8	-1e10	8	-1E+10	1	-1E+10	1	-1E+10	1	-1E+10	1	-1E+10	1	-1E+10	1
4902554	61	C	10/13/2022	14:10	-133.550	48.792	0	111.90	0	6.4920	0	32.7240	0	25.694	0	110.923	0	-1e10	8	-1e10	8	-1E+10	1	-1E+10	1	-1E+10	1	-1E+10	1	-1E+10	1	-1E+10	1
4902554	61	C	10/13/2022	14:10	-133.550	48.792	0	113.10	0	6.4700	0	32.7400	0	25.710	0	112.112	0	-1e10	8	-1e10	8	-1E+10	1	-1E+10	1	-1E+10	1	-1E+10	1	-1E+10	1	-1E+10	1
4902554	61	C	10/13/2022	14:10	-133.550	48.792	0	114.20	0	6.4090	0	32.8010	0	25.766	0	113.202	0	-1e10	8	-1e10	8	-1E+10	1	-1E+10	1	-1E+10	1	-1E+10	1	-1E+10	1	-1E+10	1
4902554	61	C	10/13/2022	14:10	-133.550	48.792	0	115.10	0	6.3730	0	32.8250	0	25.789	0	114.094	0	-1e10	8	-1e10	8	-1E+10	1	-1E+10	1	-1E+10	1	-1E+10	1	-1E+10	1	-1E+10	1
4902554	61	C	10/13/2022	14:10	-133.550	48.792	0	116.20	0	6.3690	0	32.8330	0	25.796	0	115.184	0	-1e10	8	-1e10	8	-1E+10	1	-1E+10	1	-1E+10	1	-1E+10	1	-1E+10	1	-1E+10	1
4902554	61	C	10/13/2022	14:10	-133.550	48.792	0	117.10	0	6.3630	0	32.8390	0	25.801	0	116.076	0	-1e10	8	-1e10	8	-1E+10	1	-1E+10	1	-1E+10	1	-1E+10	1	-1E+10	1	-1E+10	1
4902554	61	C	10/13/2022	14:10	-133.550	48.792	0	117.80	0	6.3420	0	32.8540	0	25.816	0	116.770	0	-1e10	8	-1e10	8	-1E+10	1	-1E+10	1	-1E+10	1	-1E+10	1	-1E+10	1	-1E+10	1
4902554	61	C	10/13/2022	14:10	-133.550	48.792	0	118.70	0	6.3330	0	32.8620	0	25.823	0	117.662	0	-1e10	8	-1e10	8	-1E+10	1	-1E+10	1	-1E+10	1	-1E+10	1	-1E+10	1	-1E+10	1
4902554	61	C	10/13/2022	14:10	-133.550	48.792	0	119.90	0	6.3260	0	32.8700	0	25.831	0	118.851	0	-1e10	8	-1e10	8	-1E+10	1	-1E+10	1	-1E+10	1	-1E+10	1	-1E+10	1	-1E+10	1
4902554	61	C	10/13/2022	14:10	-133.550	48.792	0	121.10	0	6.3250	0	32.8720	0	25.832	0	120.040	0	-1e10	8	-1e10	8	-1E+10	1	-1E+10	1	-1E+10	1	-1E+10	1	-1E+10	1	-1E+10	1
4902554	61	C	10/13/2022	14:10	-133.550	48.792	0	122.00	0	6.3240	0	32.8730	0	25.833	0	120.932	0	-1e10	8	-1e10	8	-1E+10	1	-1E+10	1	-1E+10	1	-1E+10	1	-1E+10	1	-1E+10	1
4902554	61	C	10/13/2022	14:10	-133.550	48.792	0	123.20	0	6.3220	0	32.8760	0	25.836	0	122.121	0	-1e10	8	-1e10	8	-1E+10	1	-1E+10	1	-1E+10	1	-1E+10	1	-1E+10	1	-1E+10	1
4902554	61	C	10/13/2022	14:10	-133.550	48.792	0	124.10	0	6.3220	0	32.8780	0	25.837	0	123.013	0	-1e10	8	-1e10	8	-1E+10	1	-1E+10	1	-1E+10	1	-1E+10	1	-1E+10	1	-1E+10	1
4902554	61	C	10/13/2022	14:10	-133.550	48.792	0	125.00	0	6.3210	0	32.8800	0	25.839	0	123.905	0	-1e10	8	-1e10	8	-1E+10	1	-1E+10	1	-1E+10	1	-1E+10	1	-1E+10	1	-1E+10	1
4902554	61	C	10/13/2022	14:10	-133.550	48.792	0	126.00	0	6.3140	0	32.8930	0	25.850	0	124.895	0	-1e10	8	-1e10	8	-1E+10	1	-1E+10	1	-1E+10	1	-1E+10	1	-1E+10	1	-1E+10	1
4902554	61	C	10/13/2022	14:10	-133.550	48.792	0	126.90	0	6.2980	0	32.9160	0	25.870	0	125.787	0	-1e10	8	-1e10	8	-1E+10	1	-1E+10	1	-1E+10	1	-1E+10	1	-1E+10	1	-1E+10	1
4902554	61	C	10/13/2022	14:10	-133.550	48.792	0	127.80	0	6.2700	0	32.9450	0	25.897	0	126.679	0	-1e10	8	-1e10	8	-1E+10	1	-1E+10	1	-1E+10	1	-1E+10	1	-1E+10	1	-1E+10	1
4902554	61	C	10/13/2022	14:10	-133.550	48.792	0	128.90	0	6.2630	0	32.9520	0	25.903	0	127.769	0	-1e10	8	-1e10	8	-1E+10	1	-1E+10	1	-1E+10	1	-1E+10	1	-1E+10	1	-1E+10	1
4902554	61	C	10/13/2022	14:10	-133.550	48.792	0	130.00	0	6.2310	0	32.9910	0	25.938	0	128.859	0	-1e10	8	-1e10	8	-1E+10	1	-1E+10	1	-1E+10	1	-1E+10	1	-1E+10	1	-1E+10	1
4902554	61	C	10/13/2022	14:10	-133.550	48.792	0	131.10	0	6.2190	0	33.0050	0	25.951	0	129.949	0	-1e10	8	-1e10	8	-1E+10	1	-1E+10	1	-1E+10	1	-1E+10	1	-1E+10	1	-1E+10	1
4902554	61	C	10/13/2022	14:10	-133.550	48.792	0	131.90	0	6.1980	0	33.0240	0	25.968	0	130.742	0	-1e10	8	-1e10	8	-1E+10	1	-1E+10	1	-1E+10	1	-1E+10	1	-1E+10	1	-1E+10	1
4902554	61	C	10/13/2022	14:10	-133.550	48.792	0	132.80	0	6.1750	0	33.0440	0	25.987	0	131.634	0	-1e10	8	-1e10	8	-1E+10	1	-1E+10	1	-1E+10	1	-1E+10	1	-1E+10	1	-1E+10	1
4902554	61	C	10/13/2022	14:10	-133.550	48.792	0	134.10	0	6.1290	0	33.0880	0	26.028	0	132.922	0	-1e10	8	-1e10	8	-1E+10	1	-1E+10	1	-1E+10	1	-1E+10	1	-1E+10	1	-1E+10	1
4902554	61	C	10/13/2022	14:10	-133.550	48.792	0	135.10	0	6.1110	0	33.1040	0	26.042	0	133.913	0	-1e10	8	-1e10	8	-1E+10	1	-1E+10	1	-1E+10	1	-1E+10	1	-1E+10	1	-1E+10	1
4902554	61	C	10/13/2022	14:10	-133.550	48.792	0	135.80	0	6.0790	0	33.1340	0	26.070	0	134.606	0	-1e10	8	-1e10	8	-1E+10	1	-1E+10	1	-1E+10	1	-1E+10	1	-1E+10	1	-1E+10	1
4902554	61	C	10/13/2022	14:10	-133.550	48.792	0	137.00	0	6.0580	0	33.1510	0	26.086	0	135.795	0	-1e10	8	-1e10	8	-1E+10	1	-1E+10	1	-1E+10	1	-1E+10	1	-1E+10	1	-1E+10	1
4902554	61	C	10/13/2022	14:10	-133.550	48.792	0	138.10	0	6.0270	0	33.1810	0	26.114	0	136.885	0	-1e10	8	-1e10	8	-1E+10	1	-1E+10	1	-1E+10	1	-1E+10	1	-1E+10	1	-1E+10	1
4902554	61	C	10/13/2022	14:10	-133.550	48.792	0	138.90	0	6.0030	0	33.2060	0	26.136	0	137.678	0	-1e10	8	-1e10	8	-1E+10	1	-1E+10	1	-1E+10	1	-1E+10	1	-1E+10	1	-1E+10	1
4902554	61	C	10/13/2022	14:10	-133.550	48.792	0	139.70	0	5.9960	0	33.2130	0	26.143	0	138.471	0	-1e10	8	-1e10	8	-1E+10	1	-1E+10	1	-1E+10	1	-1E+10	1	-1E+10	1	-1E+10	1
4902554	61	C	10/13/2022	14:10	-133.550	48.792	0	140.90	0	5.9790	0	33.2300	0	26.158	0	139.660	0	-1e10	8	-1e10	8	-1E+10	1	-1E+10	1	-1E+10	1	-1E+10	1	-1E+10	1	-1E+10	1
4902554	61	C	10/13/2022	14:10	-133.550	48.792	0	142.00	0	5.9550	0	33.2560	0	26.182	0	140.750	0	-1e10	8	-1e10	8	-1E+10	1	-1E+10	1	-1E+10	1	-1E+10	1	-1E+10	1	-1E+10	1
4902554	61	C	10/13/2022	14:10	-133.550	48.792	0	142.80	0	5.9450	0	33.2720	0	26.196	0	141.542	0	-1e10	8	-1e10	8	-1E+10	1	-1E+10	1	-1E+10	1	-1E+10	1	-1E+10	1	-1E+10	1
4902554	61	C	10/13/2022	14:10	-133.550	48.792	0	143.70	0	5.9390	0	33.2770	0	26.200	0	142.434	0	-1e10	8	-1e10	8	-1E+10	1	-1E+10	1	-1E+10	1	-1E+10	1	-1E+10	1	-1E+10	1
4902554	61	C	10/13/2022	14:10	-133.550	48.792	0	144.90	0	5.8990	0	33.3210	0	26.240	0	143.623	0	-1e10	8	-1e10	8	-1E+10	1	-1E+10	1	-1E+10	1	-1E+10	1	-1E+10	1	-1E+10	1
4902554	61	C	10/13/2022	14:10	-133.550	48.792	0	146.20	0	5.8840	0	33.3360	0	26.254	0	144.911	0	-1e10	8	-1e10	8	-1E+10	1	-1E+10	1	-1E+10	1	-1E+10	1	-1E+10	1	-1E+10	1
4902554	61	C	10/13/2022	14:10	-133.550	48.792	0	147.00	0	5.8770	0	33.3430	0	26.260	0	145.704	0	-1e10	8	-1e10	8	-1E+10	1	-1E+10	1	-1E+10	1	-1E+10	1	-1E+10	1	-1E+10	1
4902554	61	C	10/13/2022	14:10	-133.550	48.792	0	147.80	0	5.8660	0	33.3500	0	26.267	0	146.497	0	-1e10	8	-1e10	8	-1E+10	1	-1E+10	1	-1E+10	1	-1E+10	1	-1E+10	1	-1E+10	1
4902554	61	C	10/13/2022	14:10	-133.550	48.792	0	148.70	0	5.8630	0	33.3560	0	26.272	0	147.388	0	-1e10	8	-1e10	8	-1E+10	1	-1E+10	1	-1E+10	1	-1E+10	1	-1E+10	1	-1E+10	1
4902554	61	C	10/13/2022	14:10	-133.550	48.792	0	149.90	0	5.8610	0	33.3580	0	26.274	0	148.577	0	-1e10	8	-1e10	8	-1E+10	1	-1E+10	1	-1E+10	1	-1E+10	1	-1E+10	1	-1E+10	1
4902554	61	C	10/13/2022	14:10	-133.550	48.792	0	151.10	0	5.8530	0	33.3740	0	26.288	0	149.766	0	-1e10	8	-1e10	8	-1E+10	1	-1E+10	1	-1E+10	1	-1E+10	1	-1E+10	1	-1E+10	1
4902554	61	C	10/13/2022	14:10	-133.550	48.792	0	151.90	0	5.8330	0	33.3970	0	26.308	0	150.559	0	-1e10	8	-1e10	8	-1E+10	1	-1E+10	1	-1E+10	1	-1E+10	1	-1E+10	1	-1E+10	1
4902554	61	C	10/13/2022	14:10	-133.550	48.792	0	152.80	0	5.8180	0	33.4370	0	26.342	0	151.451	0	-1e10	8	-1e10	8	-1E+10	1	-1E+10	1	-1E+10	1	-1E+10	1	-1E+10	1	-1E+10	1
4902554	61	C	10/13/2022	14:10	-133.550	48.792	0	153.70	0	5.8150	0	33.4560	0	26.357	0	152.342	0	-1e10	8	-1e10	8	-1E+10	1	-1E+10	1	-1E+10	1	-1E+10	1	-1E+10	1	-1E+10	1
4902554	61	C	10/13/2022	14:10	-133.550	48.792	0	154.50	0	5.8140	0	33.4640	0	26.364	0	153.135	0	-1e10	8	-1e10	8	-1E+10	1	-1E+10	1	-1E+10	1	-1E+10	1	-1E+10	1	-1E+10	1
4902554	61	C	10/13/2022	14:10	-133.550	48.792	0	155.90	0	5.8180	0	33.4940	0	26.387	0	154.522	0	-1e10	8	-1e10	8	-1E+10	1	-1E+10	1	-1E+10	1	-1E+10	1	-1E+10	1	-1E+10	1
4902554	61	C	10/13/2022	14:10	-133.550	48.792	0	157.30	0	5.8190	0	33.5110	0	26.400	0	155.909	0	-1e10	8	-1e10	8	-1E+10	1	-1E+10	1	-1E+10	1	-1E+10	1	-1E+10	1	-1E+10	1
4902554	61	C	10/13/2022	14:10	-133.550	48.792	0	158.20	0	5.8180	0	33.5120	0	26.401	0	156.801	0	-1e10	8	-1e10	8	-1E+10	1	-1E+10	1	-1E+10	1	-1E+10	1	-1E+10	1	-1E+10	1
4902554	61	C	10/13/2022	14:10	-133.550	48.792	0	159.20	0	5.8150	0	33.5140	0	26.403	0	157.792	0	-1e10	8	-1e10	8	-1E+10	1	-1E+10	1	-1E+10	1	-1E+10	1	-1E+10	1	-1E+10	1
4902554	61	C	10/13/2022	14:10	-133.550	48.792	0	160.10	0	5.8130	0	33.5160	0	26.405	0	158.683	0	-1e10	8	-1e10	8	-1E+10	1	-1E+10	1	-1E+10	1	-1E+10	1	-1E+10	1	-1E+10	1
4902554	61	C	10/13/2022	14:10	-133.550	48.792	0	161.10	0	5.8090	0	33.5210	0	26.409	0	159.674	0	-1e10	8	-1e10	8	-1E+10	1	-1E+10	1	-1E+10	1	-1E+10	1	-1E+10	1	-1E+10	1
4902554	61	C	10/13/2022	14:10	-133.550	48.792	0	162.00	0	5.8040	0	33.5240	0	26.412	0	160.566	0	-1e10	8	-1e10	8	-1E+10	1	-1E+10	1	-1E+10	1	-1E+10	1	-1E+10	1	-1E+10	1
4902554	61	C	10/13/2022	14:10	-133.550	48.792	0	163.00	0	5.7860	0	33.5500	0	26.435	0	161.557	0	-1e10	8	-1e10	8	-1E+10	1	-1E+10	1	-1E+10	1	-1E+10	1	-1E+10	1	-1E+10	1
4902554	61	C	10/13/2022	14:10	-133.550	48.792	0	163.90	0	5.7780	0	33.5710	0	26.453	0	162.448	0	-1e10	8	-1e10	8	-1E+10	1	-1E+10	1	-1E+10	1	-1E+10	1	-1E+10	1	-1E+10	1
4902554	61	C	10/13/2022	14:10	-133.550	48.792	0	164.90	0	5.7710	0	33.5770	0	26.458	0	163.439	0	-1e10	8	-1e10	8	-1E+10	1	-1E+10	1	-1E+10	1	-1E+10	1	-1E+10	1	-1E+10	1
4902554	61	C	10/13/2022	14:10	-133.550	48.792	0	165.90	0	5.7470	0	33.5910	0	26.472	0	164.430	0	-1e10	8	-1e10	8	-1E+10	1	-1E+10	1	-1E+10	1	-1E+10	1	-1E+10	1	-1E+10	1
4902554	61	C	10/13/2022	14:10	-133.550	48.792	0	166.90	0	5.7460	0	33.5920	0	26.473	0	165.421	0	-1e10	8	-1e10	8	-1E+10	1	-1E+10	1	-1E+10	1	-1E+10	1	-1E+10	1	-1E+10	1
4902554	61	C	10/13/2022	14:10	-133.550	48.792	0	167.90	0	5.7430	0	33.6050	0	26.484	0	166.411	0	-1e10	8	-1e10	8	-1E+10	1	-1E+10	1	-1E+10	1	-1E+10	1	-1E+10	1	-1E+10	1
4902554	61	C	10/13/2022	14:10	-133.550	48.792	0	168.90	0	5.7400	0	33.6070	0	26.486	0	167.402	0	-1e10	8	-1e10	8	-1E+10	1	-1E+10	1	-1E+10	1	-1E+10	1	-1E+10	1	-1E+10	1
4902554	61	C	10/13/2022	14:10	-133.550	48.792	0	169.90	0	5.7270	0	33.6140	0	26.493	0	168.393	0	-1e10	8	-1e10	8	-1E+10	1	-1E+10	1	-1E+10	1	-1E+10	1	-1E+10	1	-1E+10	1
4902554	61	C	10/13/2022	14:10	-133.550	48.792	0	170.90	0	5.7130	0	33.6180	0	26.498	0	169.383	0	-1e10	8	-1e10	8	-1E+10	1	-1E+10	1	-1E+10	1	-1E+10	1	-1E+10	1	-1E+10	1
4902554	61	C	10/13/2022	14:10	-133.550	48.792	0	171.90	0	5.7010	0	33.6210	0	26.502	0	170.374	0	-1e10	8	-1e10	8	-1E+10	1	-1E+10	1	-1E+10	1	-1E+10	1	-1E+10	1	-1E+10	1
4902554	61	C	10/13/2022	14:10	-133.550	48.792	0	172.90	0	5.7060	0	33.6230	0	26.503	0	171.365	0	-1e10	8	-1e10	8	-1E+10	1	-1E+10	1	-1E+10	1	-1E+10	1	-1E+10	1	-1E+10	1
4902554	61	C	10/13/2022	14:10	-133.550	48.792	0	173.90	0	5.7100	0	33.6250	0	26.504	0	172.356	0	-1e10	8	-1e10	8	-1E+10	1	-1E+10	1	-1E+10	1	-1E+10	1	-1E+10	1	-1E+10	1
4902554	61	C	10/13/2022	14:10	-133.550	48.792	0	174.90	0	5.6960	0	33.6340	0	26.513	0	173.346	0	-1e10	8	-1e10	8	-1E+10	1	-1E+10	1	-1E+10	1	-1E+10	1	-1E+10	1	-1E+10	1
4902554	61	C	10/13/2022	14:10	-133.550	48.792	0	175.90	0	5.6910	0	33.6360	0	26.515	0	174.337	0	-1e10	8	-1e10	8	-1E+10	1	-1E+10	1	-1E+10	1	-1E+10	1	-1E+10	1	-1E+10	1
4902554	61	C	10/13/2022	14:10	-133.550	48.792	0	176.90	0	5.6700	0	33.6400	0	26.520	0	175.328	0	-1e10	8	-1e10	8	-1E+10	1	-1E+10	1	-1E+10	1	-1E+10	1	-1E+10	1	-1E+10	1
4902554	61	C	10/13/2022	14:10	-133.550	48.792	0	177.80	0	5.6490	0	33.6560	0	26.536	0	176.219	0	-1e10	8	-1e10	8	-1E+10	1	-1E+10	1	-1E+10	1	-1E+10	1	-1E+10	1	-1E+10	1
4902554	61	C	10/13/2022	14:10	-133.550	48.792	0	178.80	0	5.6340	0	33.6640	0	26.544	0	177.210	0	-1e10	8	-1e10	8	-1E+10	1	-1E+10	1	-1E+10	1	-1E+10	1	-1E+10	1	-1E+10	1
4902554	61	C	10/13/2022	14:10	-133.550	48.792	0	179.80	0	5.6080	0	33.6750	0	26.556	0	178.201	0	-1e10	8	-1e10	8	-1E+10	1	-1E+10	1	-1E+10	1	-1E+10	1	-1E+10	1	-1E+10	1
4902554	61	C	10/13/2022	14:10	-133.550	48.792	0	180.70	0	5.5770	0	33.6920	0	26.573	0	179.092	0	-1e10	8	-1e10	8	-1E+10	1	-1E+10	1	-1E+10	1	-1E+10	1	-1E+10	1	-1E+10	1
4902554	61	C	10/13/2022	14:10	-133.550	48.792	0	181.70	0	5.5300	0	33.6980	0	26.583	0	180.083	0	-1e10	8	-1e10	8	-1E+10	1	-1E+10	1	-1E+10	1	-1E+10	1	-1E+10	1	-1E+10	1
4902554	61	C	10/13/2022	14:10	-133.550	48.792	0	182.70	0	5.5120	0	33.7040	0	26.590	0	181.074	0	-1e10	8	-1e10	8	-1E+10	1	-1E+10	1	-1E+10	1	-1E+10	1	-1E+10	1	-1E+10	1
4902554	61	C	10/13/2022	14:10	-133.550	48.792	0	183.60	0	5.5070	0	33.7050	0	26.592	0	181.965	0	-1e10	8	-1e10	8	-1E+10	1	-1E+10	1	-1E+10	1	-1E+10	1	-1E+10	1	-1E+10	1
4902554	61	C	10/13/2022	14:10	-133.550	48.792	0	184.60	0	5.5060	0	33.7030	0	26.590	0	182.956	0	-1e10	8	-1e10	8	-1E+10	1	-1E+10	1	-1E+10	1	-1E+10	1	-1E+10	1	-1E+10	1
4902554	61	C	10/13/2022	14:10	-133.550	48.792	0	185.60	0	5.5020	0	33.7030	0	26.591	0	183.946	0	-1e10	8	-1e10	8	-1E+10	1	-1E+10	1	-1E+10	1	-1E+10	1	-1E+10	1	-1E+10	1
4902554	61	C	10/13/2022	14:10	-133.550	48.792	0	186.50	0	5.4940	0	33.7030	0	26.591	0	184.838	0	-1e10	8	-1e10	8	-1E+10	1	-1E+10	1	-1E+10	1	-1E+10	1	-1E+10	1	-1E+10	1
4902554	61	C	10/13/2022	14:10	-133.550	48.792	0	187.50	0	5.4840	0	33.7080	0	26.597	0	185.829	0	-1e10	8	-1e10	8	-1E+10	1	-1E+10	1	-1E+10	1	-1E+10	1	-1E+10	1	-1E+10	1
4902554	61	C	10/13/2022	14:10	-133.550	48.792	0	188.50	0	5.4500	0	33.7140	0	26.605	0	186.819	0	-1e10	8	-1e10	8	-1E+10	1	-1E+10	1	-1E+10	1	-1E+10	1	-1E+10	1	-1E+10	1
4902554	61	C	10/13/2022	14:10	-133.550	48.792	0	189.50	0	5.3990	0	33.7200	0	26.616	0	187.810	0	-1e10	8	-1e10	8	-1E+10	1	-1E+10	1	-1E+10	1	-1E+10	1	-1E+10	1	-1E+10	1
4902554	61	C	10/13/2022	14:10	-133.550	48.792	0	190.50	0	5.3890	0	33.7210	0	26.618	0	188.801	0	-1e10	8	-1e10	8	-1E+10	1	-1E+10	1	-1E+10	1	-1E+10	1	-1E+10	1	-1E+10	1
4902554	61	C	10/13/2022	14:10	-133.550	48.792	0	191.50	0	5.3770	0	33.7240	0	26.622	0	189.791	0	-1e10	8	-1e10	8	-1E+10	1	-1E+10	1	-1E+10	1	-1E+10	1	-1E+10	1	-1E+10	1
4902554	61	C	10/13/2022	14:10	-133.550	48.792	0	192.50	0	5.3510	0	33.7260	0	26.627	0	190.782	0	-1e10	8	-1e10	8	-1E+10	1	-1E+10	1	-1E+10	1	-1E+10	1	-1E+10	1	-1E+10	1
4902554	61	C	10/13/2022	14:10	-133.550	48.792	0	193.50	0	5.3400	0	33.7280	0	26.630	0	191.772	0	-1e10	8	-1e10	8	-1E+10	1	-1E+10	1	-1E+10	1	-1E+10	1	-1E+10	1	-1E+10	1
4902554	61	C	10/13/2022	14:10	-133.550	48.792	0	194.60	0	5.3260	0	33.7290	0	26.632	0	192.862	0	-1e10	8	-1e10	8	-1E+10	1	-1E+10	1	-1E+10	1	-1E+10	1	-1E+10	1	-1E+10	1
4902554	61	C	10/13/2022	14:10	-133.550	48.792	0	195.60	0	5.3160	0	33.7320	0	26.635	0	193.853	0	-1e10	8	-1e10	8	-1E+10	1	-1E+10	1	-1E+10	1	-1E+10	1	-1E+10	1	-1E+10	1
4902554	61	C	10/13/2022	14:10	-133.550	48.792	0	196.70	0	5.3040	0	33.7320	0	26.637	0	194.942	0	-1e10	8	-1e10	8	-1E+10	1	-1E+10	1	-1E+10	1	-1E+10	1	-1E+10	1	-1E+10	1
4902554	61	C	10/13/2022	14:10	-133.550	48.792	0	197.70	0	5.2980	0	33.7330	0	26.638	0	195.933	0	-1e10	8	-1e10	8	-1E+10	1	-1E+10	1	-1E+10	1	-1E+10	1	-1E+10	1	-1E+10	1
4902554	61	C	10/13/2022	14:10	-133.550	48.792	0	198.70	0	5.2960	0	33.7320	0	26.638	0	196.924	0	-1e10	8	-1e10	8	-1E+10	1	-1E+10	1	-1E+10	1	-1E+10	1	-1E+10	1	-1E+10	1
4902554	61	C	10/13/2022	14:10	-133.550	48.792	0	199.70	0	5.2930	0	33.7330	0	26.639	0	197.914	0	-1e10	8	-1e10	8	-1E+10	1	-1E+10	1	-1E+10	1	-1E+10	1	-1E+10	1	-1E+10	1
4902554	61	C	10/13/2022	14:10	-133.550	48.792	0	200.80	0	5.2650	0	33.7370	0	26.645	0	199.004	0	-1e10	8	-1e10	8	-1E+10	1	-1E+10	1	-1E+10	1	-1E+10	1	-1E+10	1	-1E+10	1
4902554	61	C	10/13/2022	14:10	-133.550	48.792	0	201.80	0	5.2540	0	33.7370	0	26.647	0	199.994	0	-1e10	8	-1e10	8	-1E+10	1	-1E+10	1	-1E+10	1	-1E+10	1	-1E+10	1	-1E+10	1
4902554	61	C	10/13/2022	14:10	-133.550	48.792	0	202.80	0	5.2550	0	33.7370	0	26.647	0	200.985	0	-1e10	8	-1e10	8	-1E+10	1	-1E+10	1	-1E+10	1	-1E+10	1	-1E+10	1	-1E+10	1
4902554	61	C	10/13/2022	14:10	-133.550	48.792	0	203.80	0	5.2510	0	33.7380	0	26.648	0	201.975	0	-1e10	8	-1e10	8	-1E+10	1	-1E+10	1	-1E+10	1	-1E+10	1	-1E+10	1	-1E+10	1
4902554	61	C	10/13/2022	14:10	-133.550	48.792	0	204.90	0	5.2530	0	33.7380	0	26.648	0	203.065	0	-1e10	8	-1e10	8	-1E+10	1	-1E+10	1	-1E+10	1	-1E+10	1	-1E+10	1	-1E+10	1
4902554	61	C	10/13/2022	14:10	-133.550	48.792	0	205.90	0	5.2530	0	33.7370	0	26.647	0	204.056	0	-1e10	8	-1e10	8	-1E+10	1	-1E+10	1	-1E+10	1	-1E+10	1	-1E+10	1	-1E+10	1
4902554	61	C	10/13/2022	14:10	-133.550	48.792	0	206.80	0	5.2500	0	33.7370	0	26.647	0	204.947	0	-1e10	8	-1e10	8	-1E+10	1	-1E+10	1	-1E+10	1	-1E+10	1	-1E+10	1	-1E+10	1
4902554	61	C	10/13/2022	14:10	-133.550	48.792	0	207.70	0	5.2480	0	33.7380	0	26.648	0	205.839	0	-1e10	8	-1e10	8	-1E+10	1	-1E+10	1	-1E+10	1	-1E+10	1	-1E+10	1	-1E+10	1
4902554	61	C	10/13/2022	14:10	-133.550	48.792	0	208.80	0	5.2460	0	33.7370	0	26.648	0	206.928	0	-1e10	8	-1e10	8	-1E+10	1	-1E+10	1	-1E+10	1	-1E+10	1	-1E+10	1	-1E+10	1
4902554	61	C	10/13/2022	14:10	-133.550	48.792	0	210.00	0	5.2410	0	33.7380	0	26.649	0	208.117	0	-1e10	8	-1e10	8	-1E+10	1	-1E+10	1	-1E+10	1	-1E+10	1	-1E+10	1	-1E+10	1
4902554	61	C	10/13/2022	14:10	-133.550	48.792	0	210.70	0	5.2340	0	33.7380	0	26.650	0	208.810	0	-1e10	8	-1e10	8	-1E+10	1	-1E+10	1	-1E+10	1	-1E+10	1	-1E+10	1	-1E+10	1
4902554	61	C	10/13/2022	14:10	-133.550	48.792	0	211.80	0	5.2160	0	33.7400	0	26.654	0	209.900	0	-1e10	8	-1e10	8	-1E+10	1	-1E+10	1	-1E+10	1	-1E+10	1	-1E+10	1	-1E+10	1
4902554	61	C	10/13/2022	14:10	-133.550	48.792	0	213.00	0	5.1640	0	33.7470	0	26.665	0	211.088	0	-1e10	8	-1e10	8	-1E+10	1	-1E+10	1	-1E+10	1	-1E+10	1	-1E+10	1	-1E+10	1
4902554	61	C	10/13/2022	14:10	-133.550	48.792	0	213.80	0	5.1070	0	33.7520	0	26.676	0	211.881	0	-1e10	8	-1e10	8	-1E+10	1	-1E+10	1	-1E+10	1	-1E+10	1	-1E+10	1	-1E+10	1
4902554	61	C	10/13/2022	14:10	-133.550	48.792	0	215.00	0	5.0660	0	33.7540	0	26.682	0	213.069	0	-1e10	8	-1e10	8	-1E+10	1	-1E+10	1	-1E+10	1	-1E+10	1	-1E+10	1	-1E+10	1
4902554	61	C	10/13/2022	14:10	-133.550	48.792	0	216.20	0	5.0610	0	33.7550	0	26.683	0	214.258	0	-1e10	8	-1e10	8	-1E+10	1	-1E+10	1	-1E+10	1	-1E+10	1	-1E+10	1	-1E+10	1
4902554	61	C	10/13/2022	14:10	-133.550	48.792	0	217.00	0	5.0600	0	33.7550	0	26.683	0	215.050	0	-1e10	8	-1e10	8	-1E+10	1	-1E+10	1	-1E+10	1	-1E+10	1	-1E+10	1	-1E+10	1
4902554	61	C	10/13/2022	14:10	-133.550	48.792	0	217.80	0	5.0580	0	33.7540	0	26.683	0	215.843	0	-1e10	8	-1e10	8	-1E+10	1	-1E+10	1	-1E+10	1	-1E+10	1	-1E+10	1	-1E+10	1
4902554	61	C	10/13/2022	14:10	-133.550	48.792	0	218.90	0	5.0540	0	33.7540	0	26.683	0	216.932	0	-1e10	8	-1e10	8	-1E+10	1	-1E+10	1	-1E+10	1	-1E+10	1	-1E+10	1	-1E+10	1
4902554	61	C	10/13/2022	14:10	-133.550	48.792	0	220.10	0	5.0460	0	33.7560	0	26.686	0	218.121	0	-1e10	8	-1e10	8	-1E+10	1	-1E+10	1	-1E+10	1	-1E+10	1	-1E+10	1	-1E+10	1
4902554	61	C	10/13/2022	14:10	-133.550	48.792	0	220.90	0	5.0230	0	33.7570	0	26.689	0	218.913	0	-1e10	8	-1e10	8	-1E+10	1	-1E+10	1	-1E+10	1	-1E+10	1	-1E+10	1	-1E+10	1
4902554	61	C	10/13/2022	14:10	-133.550	48.792	0	221.70	0	5.0050	0	33.7600	0	26.694	0	219.706	0	-1e10	8	-1e10	8	-1E+10	1	-1E+10	1	-1E+10	1	-1E+10	1	-1E+10	1	-1E+10	1
4902554	61	C	10/13/2022	14:10	-133.550	48.792	0	222.90	0	4.9840	0	33.7610	0	26.697	0	220.894	0	-1e10	8	-1e10	8	-1E+10	1	-1E+10	1	-1E+10	1	-1E+10	1	-1E+10	1	-1E+10	1
4902554	61	C	10/13/2022	14:10	-133.550	48.792	0	224.20	0	4.9740	0	33.7620	0	26.699	0	222.182	0	-1e10	8	-1e10	8	-1E+10	1	-1E+10	1	-1E+10	1	-1E+10	1	-1E+10	1	-1E+10	1
4902554	61	C	10/13/2022	14:10	-133.550	48.792	0	225.00	0	4.9690	0	33.7630	0	26.700	0	222.974	0	-1e10	8	-1e10	8	-1E+10	1	-1E+10	1	-1E+10	1	-1E+10	1	-1E+10	1	-1E+10	1
4902554	61	C	10/13/2022	14:10	-133.550	48.792	0	225.80	0	4.9560	0	33.7660	0	26.704	0	223.767	0	-1e10	8	-1e10	8	-1E+10	1	-1E+10	1	-1E+10	1	-1E+10	1	-1E+10	1	-1E+10	1
4902554	61	C	10/13/2022	14:10	-133.550	48.792	0	226.70	0	4.9320	0	33.7670	0	26.707	0	224.658	0	-1e10	8	-1e10	8	-1E+10	1	-1E+10	1	-1E+10	1	-1E+10	1	-1E+10	1	-1E+10	1
4902554	61	C	10/13/2022	14:10	-133.550	48.792	0	227.90	0	4.9250	0	33.7670	0	26.708	0	225.847	0	-1e10	8	-1e10	8	-1E+10	1	-1E+10	1	-1E+10	1	-1E+10	1	-1E+10	1	-1E+10	1
4902554	61	C	10/13/2022	14:10	-133.550	48.792	0	229.20	0	4.9170	0	33.7680	0	26.710	0	227.134	0	-1e10	8	-1e10	8	-1E+10	1	-1E+10	1	-1E+10	1	-1E+10	1	-1E+10	1	-1E+10	1
4902554	61	C	10/13/2022	14:10	-133.550	48.792	0	230.10	0	4.9100	0	33.7690	0	26.712	0	228.026	0	-1e10	8	-1e10	8	-1E+10	1	-1E+10	1	-1E+10	1	-1E+10	1	-1E+10	1	-1E+10	1
4902554	61	C	10/13/2022	14:10	-133.550	48.792	0	230.90	0	4.9040	0	33.7700	0	26.713	0	228.818	0	-1e10	8	-1e10	8	-1E+10	1	-1E+10	1	-1E+10	1	-1E+10	1	-1E+10	1	-1E+10	1
4902554	61	C	10/13/2022	14:10	-133.550	48.792	0	231.80	0	4.8980	0	33.7710	0	26.715	0	229.709	0	-1e10	8	-1e10	8	-1E+10	1	-1E+10	1	-1E+10	1	-1E+10	1	-1E+10	1	-1E+10	1
4902554	61	C	10/13/2022	14:10	-133.550	48.792	0	232.70	0	4.8950	0	33.7710	0	26.715	0	230.601	0	-1e10	8	-1e10	8	-1E+10	1	-1E+10	1	-1E+10	1	-1E+10	1	-1E+10	1	-1E+10	1
4902554	61	C	10/13/2022	14:10	-133.550	48.792	0	233.90	0	4.8880	0	33.7710	0	26.716	0	231.789	0	-1e10	8	-1e10	8	-1E+10	1	-1E+10	1	-1E+10	1	-1E+10	1	-1E+10	1	-1E+10	1
4902554	61	C	10/13/2022	14:10	-133.550	48.792	0	235.30	0	4.8720	0	33.7730	0	26.719	0	233.176	0	-1e10	8	-1e10	8	-1E+10	1	-1E+10	1	-1E+10	1	-1E+10	1	-1E+10	1	-1E+10	1
4902554	61	C	10/13/2022	14:10	-133.550	48.792	0	236.20	0	4.8580	0	33.7770	0	26.724	0	234.067	0	-1e10	8	-1e10	8	-1E+10	1	-1E+10	1	-1E+10	1	-1E+10	1	-1E+10	1	-1E+10	1
4902554	61	C	10/13/2022	14:10	-133.550	48.792	0	237.00	0	4.8510	0	33.7780	0	26.725	0	234.859	0	-1e10	8	-1e10	8	-1E+10	1	-1E+10	1	-1E+10	1	-1E+10	1	-1E+10	1	-1E+10	1
4902554	61	C	10/13/2022	14:10	-133.550	48.792	0	237.90	0	4.8370	0	33.7790	0	26.728	0	235.751	0	-1e10	8	-1e10	8	-1E+10	1	-1E+10	1	-1E+10	1	-1E+10	1	-1E+10	1	-1E+10	1
4902554	61	C	10/13/2022	14:10	-133.550	48.792	0	238.80	0	4.8280	0	33.7790	0	26.729	0	236.642	0	-1e10	8	-1e10	8	-1E+10	1	-1E+10	1	-1E+10	1	-1E+10	1	-1E+10	1	-1E+10	1
4902554	61	C	10/13/2022	14:10	-133.550	48.792	0	239.70	0	4.8250	0	33.7800	0	26.730	0	237.533	0	-1e10	8	-1e10	8	-1E+10	1	-1E+10	1	-1E+10	1	-1E+10	1	-1E+10	1	-1E+10	1
4902554	61	C	10/13/2022	14:10	-133.550	48.792	0	240.60	0	4.8230	0	33.7800	0	26.730	0	238.425	0	-1e10	8	-1e10	8	-1E+10	1	-1E+10	1	-1E+10	1	-1E+10	1	-1E+10	1	-1E+10	1
4902554	61	C	10/13/2022	14:10	-133.550	48.792	0	241.90	0	4.8190	0	33.7810	0	26.731	0	239.712	0	-1e10	8	-1e10	8	-1E+10	1	-1E+10	1	-1E+10	1	-1E+10	1	-1E+10	1	-1E+10	1
4902554	61	C	10/13/2022	14:10	-133.550	48.792	0	243.20	0	4.8180	0	33.7800	0	26.731	0	241.000	0	-1e10	8	-1e10	8	-1E+10	1	-1E+10	1	-1E+10	1	-1E+10	1	-1E+10	1	-1E+10	1
4902554	61	C	10/13/2022	14:10	-133.550	48.792	0	244.10	0	4.8150	0	33.7810	0	26.732	0	241.891	0	-1e10	8	-1e10	8	-1E+10	1	-1E+10	1	-1E+10	1	-1E+10	1	-1E+10	1	-1E+10	1
4902554	61	C	10/13/2022	14:10	-133.550	48.792	0	245.00	0	4.8110	0	33.7820	0	26.733	0	242.782	0	-1e10	8	-1e10	8	-1E+10	1	-1E+10	1	-1E+10	1	-1E+10	1	-1E+10	1	-1E+10	1
4902554	61	C	10/13/2022	14:10	-133.550	48.792	0	245.90	0	4.8060	0	33.7820	0	26.734	0	243.674	0	-1e10	8	-1e10	8	-1E+10	1	-1E+10	1	-1E+10	1	-1E+10	1	-1E+10	1	-1E+10	1
4902554	61	C	10/13/2022	14:10	-133.550	48.792	0	246.80	0	4.7960	0	33.7850	0	26.737	0	244.565	0	-1e10	8	-1e10	8	-1E+10	1	-1E+10	1	-1E+10	1	-1E+10	1	-1E+10	1	-1E+10	1
4902554	61	C	10/13/2022	14:10	-133.550	48.792	0	247.70	0	4.7940	0	33.7850	0	26.737	0	245.456	0	-1e10	8	-1e10	8	-1E+10	1	-1E+10	1	-1E+10	1	-1E+10	1	-1E+10	1	-1E+10	1
4902554	61	C	10/13/2022	14:10	-133.550	48.792	0	248.60	0	4.7900	0	33.7850	0	26.738	0	246.348	0	-1e10	8	-1e10	8	-1E+10	1	-1E+10	1	-1E+10	1	-1E+10	1	-1E+10	1	-1E+10	1
4902554	61	C	10/13/2022	14:10	-133.550	48.792	0	249.90	0	4.7830	0	33.7860	0	26.739	0	247.635	0	-1e10	8	-1e10	8	-1E+10	1	-1E+10	1	-1E+10	1	-1E+10	1	-1E+10	1	-1E+10	1
4902554	61	C	10/13/2022	14:10	-133.550	48.792	0	251.30	0	4.7750	0	33.7880	0	26.742	0	249.022	0	-1e10	8	-1e10	8	-1E+10	1	-1E+10	1	-1E+10	1	-1E+10	1	-1E+10	1	-1E+10	1
4902554	61	C	10/13/2022	14:10	-133.550	48.792	0	252.10	0	4.7700	0	33.7890	0	26.743	0	249.814	0	-1e10	8	-1e10	8	-1E+10	1	-1E+10	1	-1E+10	1	-1E+10	1	-1E+10	1	-1E+10	1
4902554	61	C	10/13/2022	14:10	-133.550	48.792	0	253.00	0	4.7600	0	33.7910	0	26.746	0	250.705	0	-1e10	8	-1e10	8	-1E+10	1	-1E+10	1	-1E+10	1	-1E+10	1	-1E+10	1	-1E+10	1
4902554	61	C	10/13/2022	14:10	-133.550	48.792	0	253.90	0	4.7560	0	33.7910	0	26.746	0	251.596	0	-1e10	8	-1e10	8	-1E+10	1	-1E+10	1	-1E+10	1	-1E+10	1	-1E+10	1	-1E+10	1
4902554	61	C	10/13/2022	14:10	-133.550	48.792	0	254.80	0	4.7430	0	33.7950	0	26.751	0	252.488	0	-1e10	8	-1e10	8	-1E+10	1	-1E+10	1	-1E+10	1	-1E+10	1	-1E+10	1	-1E+10	1
4902554	61	C	10/13/2022	14:10	-133.550	48.792	0	255.70	0	4.7270	0	33.7970	0	26.754	0	253.379	0	-1e10	8	-1e10	8	-1E+10	1	-1E+10	1	-1E+10	1	-1E+10	1	-1E+10	1	-1E+10	1
4902554	61	C	10/13/2022	14:10	-133.550	48.792	0	256.90	0	4.7040	0	33.8020	0	26.761	0	254.567	0	-1e10	8	-1e10	8	-1E+10	1	-1E+10	1	-1E+10	1	-1E+10	1	-1E+10	1	-1E+10	1
4902554	61	C	10/13/2022	14:10	-133.550	48.792	0	258.40	0	4.6900	0	33.8050	0	26.765	0	256.053	0	-1e10	8	-1e10	8	-1E+10	1	-1E+10	1	-1E+10	1	-1E+10	1	-1E+10	1	-1E+10	1
4902554	61	C	10/13/2022	14:10	-133.550	48.792	0	259.20	0	4.6880	0	33.8060	0	26.766	0	256.845	0	-1e10	8	-1e10	8	-1E+10	1	-1E+10	1	-1E+10	1	-1E+10	1	-1E+10	1	-1E+10	1
4902554	61	C	10/13/2022	14:10	-133.550	48.792	0	260.10	0	4.6840	0	33.8070	0	26.767	0	257.736	0	-1e10	8	-1e10	8	-1E+10	1	-1E+10	1	-1E+10	1	-1E+10	1	-1E+10	1	-1E+10	1
4902554	61	C	10/13/2022	14:10	-133.550	48.792	0	261.00	0	4.6830	0	33.8070	0	26.767	0	258.628	0	-1e10	8	-1e10	8	-1E+10	1	-1E+10	1	-1E+10	1	-1E+10	1	-1E+10	1	-1E+10	1
4902554	61	C	10/13/2022	14:10	-133.550	48.792	0	261.90	0	4.6820	0	33.8070	0	26.767	0	259.519	0	-1e10	8	-1e10	8	-1E+10	1	-1E+10	1	-1E+10	1	-1E+10	1	-1E+10	1	-1E+10	1
4902554	61	C	10/13/2022	14:10	-133.550	48.792	0	262.80	0	4.6800	0	33.8070	0	26.767	0	260.410	0	-1e10	8	-1e10	8	-1E+10	1	-1E+10	1	-1E+10	1	-1E+10	1	-1E+10	1	-1E+10	1
4902554	61	C	10/13/2022	14:10	-133.550	48.792	0	263.70	0	4.6780	0	33.8080	0	26.768	0	261.301	0	-1e10	8	-1e10	8	-1E+10	1	-1E+10	1	-1E+10	1	-1E+10	1	-1E+10	1	-1E+10	1
4902554	61	C	10/13/2022	14:10	-133.550	48.792	0	265.00	0	4.6780	0	33.8070	0	26.768	0	262.589	0	-1e10	8	-1e10	8	-1E+10	1	-1E+10	1	-1E+10	1	-1E+10	1	-1E+10	1	-1E+10	1
4902554	61	C	10/13/2022	14:10	-133.550	48.792	0	266.30	0	4.6750	0	33.8080	0	26.769	0	263.876	0	-1e10	8	-1e10	8	-1E+10	1	-1E+10	1	-1E+10	1	-1E+10	1	-1E+10	1	-1E+10	1
4902554	61	C	10/13/2022	14:10	-133.550	48.792	0	267.20	0	4.6730	0	33.8080	0	26.769	0	264.767	0	-1e10	8	-1e10	8	-1E+10	1	-1E+10	1	-1E+10	1	-1E+10	1	-1E+10	1	-1E+10	1
4902554	61	C	10/13/2022	14:10	-133.550	48.792	0	268.10	0	4.6690	0	33.8080	0	26.770	0	265.659	0	-1e10	8	-1e10	8	-1E+10	1	-1E+10	1	-1E+10	1	-1E+10	1	-1E+10	1	-1E+10	1
4902554	61	C	10/13/2022	14:10	-133.550	48.792	0	269.00	0	4.6620	0	33.8110	0	26.773	0	266.550	0	-1e10	8	-1e10	8	-1E+10	1	-1E+10	1	-1E+10	1	-1E+10	1	-1E+10	1	-1E+10	1
4902554	61	C	10/13/2022	14:10	-133.550	48.792	0	269.90	0	4.6520	0	33.8110	0	26.774	0	267.441	0	-1e10	8	-1e10	8	-1E+10	1	-1E+10	1	-1E+10	1	-1E+10	1	-1E+10	1	-1E+10	1
4902554	61	C	10/13/2022	14:10	-133.550	48.792	0	270.70	0	4.6390	0	33.8160	0	26.779	0	268.233	0	-1e10	8	-1e10	8	-1E+10	1	-1E+10	1	-1E+10	1	-1E+10	1	-1E+10	1	-1E+10	1
4902554	61	C	10/13/2022	14:10	-133.550	48.792	0	271.70	0	4.6280	0	33.8180	0	26.782	0	269.223	0	-1e10	8	-1e10	8	-1E+10	1	-1E+10	1	-1E+10	1	-1E+10	1	-1E+10	1	-1E+10	1
4902554	61	C	10/13/2022	14:10	-133.550	48.792	0	272.60	0	4.6260	0	33.8170	0	26.781	0	270.115	0	-1e10	8	-1e10	8	-1E+10	1	-1E+10	1	-1E+10	1	-1E+10	1	-1E+10	1	-1E+10	1
4902554	61	C	10/13/2022	14:10	-133.550	48.792	0	273.90	0	4.6130	0	33.8200	0	26.785	0	271.402	0	-1e10	8	-1e10	8	-1E+10	1	-1E+10	1	-1E+10	1	-1E+10	1	-1E+10	1	-1E+10	1
4902554	61	C	10/13/2022	14:10	-133.550	48.792	0	275.30	0	4.5970	0	33.8220	0	26.789	0	272.788	0	-1e10	8	-1e10	8	-1E+10	1	-1E+10	1	-1E+10	1	-1E+10	1	-1E+10	1	-1E+10	1
4902554	61	C	10/13/2022	14:10	-133.550	48.792	0	276.20	0	4.5960	0	33.8220	0	26.789	0	273.679	0	-1e10	8	-1e10	8	-1E+10	1	-1E+10	1	-1E+10	1	-1E+10	1	-1E+10	1	-1E+10	1
4902554	61	C	10/13/2022	14:10	-133.550	48.792	0	277.10	0	4.5950	0	33.8230	0	26.790	0	274.571	0	-1e10	8	-1e10	8	-1E+10	1	-1E+10	1	-1E+10	1	-1E+10	1	-1E+10	1	-1E+10	1
4902554	61	C	10/13/2022	14:10	-133.550	48.792	0	278.00	0	4.5940	0	33.8230	0	26.790	0	275.462	0	-1e10	8	-1e10	8	-1E+10	1	-1E+10	1	-1E+10	1	-1E+10	1	-1E+10	1	-1E+10	1
4902554	61	C	10/13/2022	14:10	-133.550	48.792	0	279.00	0	4.5930	0	33.8230	0	26.790	0	276.452	0	-1e10	8	-1e10	8	-1E+10	1	-1E+10	1	-1E+10	1	-1E+10	1	-1E+10	1	-1E+10	1
4902554	61	C	10/13/2022	14:10	-133.550	48.792	0	279.90	0	4.5920	0	33.8230	0	26.790	0	277.343	0	-1e10	8	-1e10	8	-1E+10	1	-1E+10	1	-1E+10	1	-1E+10	1	-1E+10	1	-1E+10	1
4902554	61	C	10/13/2022	14:10	-133.550	48.792	0	280.80	0	4.5900	0	33.8230	0	26.790	0	278.234	0	-1e10	8	-1e10	8	-1E+10	1	-1E+10	1	-1E+10	1	-1E+10	1	-1E+10	1	-1E+10	1
4902554	61	C	10/13/2022	14:10	-133.550	48.792	0	281.70	0	4.5890	0	33.8230	0	26.790	0	279.126	0	-1e10	8	-1e10	8	-1E+10	1	-1E+10	1	-1E+10	1	-1E+10	1	-1E+10	1	-1E+10	1
4902554	61	C	10/13/2022	14:10	-133.550	48.792	0	282.60	0	4.5840	0	33.8240	0	26.792	0	280.017	0	-1e10	8	-1e10	8	-1E+10	1	-1E+10	1	-1E+10	1	-1E+10	1	-1E+10	1	-1E+10	1
4902554	61	C	10/13/2022	14:10	-133.550	48.792	0	283.50	0	4.5790	0	33.8250	0	26.793	0	280.908	0	-1e10	8	-1e10	8	-1E+10	1	-1E+10	1	-1E+10	1	-1E+10	1	-1E+10	1	-1E+10	1
4902554	61	C	10/13/2022	14:10	-133.550	48.792	0	284.90	0	4.5690	0	33.8270	0	26.796	0	282.294	0	-1e10	8	-1e10	8	-1E+10	1	-1E+10	1	-1E+10	1	-1E+10	1	-1E+10	1	-1E+10	1
4902554	61	C	10/13/2022	14:10	-133.550	48.792	0	286.30	0	4.5680	0	33.8270	0	26.796	0	283.680	0	-1e10	8	-1e10	8	-1E+10	1	-1E+10	1	-1E+10	1	-1E+10	1	-1E+10	1	-1E+10	1
4902554	61	C	10/13/2022	14:10	-133.550	48.792	0	287.20	0	4.5640	0	33.8280	0	26.797	0	284.571	0	-1e10	8	-1e10	8	-1E+10	1	-1E+10	1	-1E+10	1	-1E+10	1	-1E+10	1	-1E+10	1
4902554	61	C	10/13/2022	14:10	-133.550	48.792	0	288.10	0	4.5630	0	33.8280	0	26.797	0	285.463	0	-1e10	8	-1e10	8	-1E+10	1	-1E+10	1	-1E+10	1	-1E+10	1	-1E+10	1	-1E+10	1
4902554	61	C	10/13/2022	14:10	-133.550	48.792	0	289.10	0	4.5620	0	33.8280	0	26.797	0	286.453	0	-1e10	8	-1e10	8	-1E+10	1	-1E+10	1	-1E+10	1	-1E+10	1	-1E+10	1	-1E+10	1
4902554	61	C	10/13/2022	14:10	-133.550	48.792	0	290.00	0	4.5600	0	33.8290	0	26.798	0	287.344	0	-1e10	8	-1e10	8	-1E+10	1	-1E+10	1	-1E+10	1	-1E+10	1	-1E+10	1	-1E+10	1
4902554	61	C	10/13/2022	14:10	-133.550	48.792	0	290.90	0	4.5580	0	33.8290	0	26.798	0	288.235	0	-1e10	8	-1e10	8	-1E+10	1	-1E+10	1	-1E+10	1	-1E+10	1	-1E+10	1	-1E+10	1
4902554	61	C	10/13/2022	14:10	-133.550	48.792	0	291.90	0	4.5460	0	33.8320	0	26.802	0	289.225	0	-1e10	8	-1e10	8	-1E+10	1	-1E+10	1	-1E+10	1	-1E+10	1	-1E+10	1	-1E+10	1
4902554	61	C	10/13/2022	14:10	-133.550	48.792	0	292.80	0	4.5420	0	33.8330	0	26.803	0	290.116	0	-1e10	8	-1e10	8	-1E+10	1	-1E+10	1	-1E+10	1	-1E+10	1	-1E+10	1	-1E+10	1
4902554	61	C	10/13/2022	14:10	-133.550	48.792	0	293.70	0	4.5390	0	33.8330	0	26.804	0	291.007	0	-1e10	8	-1e10	8	-1E+10	1	-1E+10	1	-1E+10	1	-1E+10	1	-1E+10	1	-1E+10	1
4902554	61	C	10/13/2022	14:10	-133.550	48.792	0	294.60	0	4.5340	0	33.8340	0	26.805	0	291.899	0	-1e10	8	-1e10	8	-1E+10	1	-1E+10	1	-1E+10	1	-1E+10	1	-1E+10	1	-1E+10	1
4902554	61	C	10/13/2022	14:10	-133.550	48.792	0	295.50	0	4.5220	0	33.8360	0	26.808	0	292.790	0	-1e10	8	-1e10	8	-1E+10	1	-1E+10	1	-1E+10	1	-1E+10	1	-1E+10	1	-1E+10	1
4902554	61	C	10/13/2022	14:10	-133.550	48.792	0	296.90	0	4.5180	0	33.8370	0	26.809	0	294.176	0	-1e10	8	-1e10	8	-1E+10	1	-1E+10	1	-1E+10	1	-1E+10	1	-1E+10	1	-1E+10	1
4902554	61	C	10/13/2022	14:10	-133.550	48.792	0	298.30	0	4.5140	0	33.8380	0	26.810	0	295.562	0	-1e10	8	-1e10	8	-1E+10	1	-1E+10	1	-1E+10	1	-1E+10	1	-1E+10	1	-1E+10	1
4902554	61	C	10/13/2022	14:10	-133.550	48.792	0	299.20	0	4.5130	0	33.8380	0	26.810	0	296.453	0	-1e10	8	-1e10	8	-1E+10	1	-1E+10	1	-1E+10	1	-1E+10	1	-1E+10	1	-1E+10	1
4902554	61	C	10/13/2022	14:10	-133.550	48.792	0	300.10	0	4.5130	0	33.8380	0	26.810	0	297.344	0	-1e10	8	-1e10	8	-1E+10	1	-1E+10	1	-1E+10	1	-1E+10	1	-1E+10	1	-1E+10	1
4902554	61	C	10/13/2022	14:10	-133.550	48.792	0	301.00	0	4.5070	0	33.8390	0	26.812	0	298.235	0	-1e10	8	-1e10	8	-1E+10	1	-1E+10	1	-1E+10	1	-1E+10	1	-1E+10	1	-1E+10	1
4902554	61	C	10/13/2022	14:10	-133.550	48.792	0	301.90	0	4.4940	0	33.8430	0	26.817	0	299.126	0	-1e10	8	-1e10	8	-1E+10	1	-1E+10	1	-1E+10	1	-1E+10	1	-1E+10	1	-1E+10	1
4902554	61	C	10/13/2022	14:10	-133.550	48.792	0	302.80	0	4.4880	0	33.8440	0	26.818	0	300.017	0	-1e10	8	-1e10	8	-1E+10	1	-1E+10	1	-1E+10	1	-1E+10	1	-1E+10	1	-1E+10	1
4902554	61	C	10/13/2022	14:10	-133.550	48.792	0	303.70	0	4.4860	0	33.8440	0	26.818	0	300.908	0	-1e10	8	-1e10	8	-1E+10	1	-1E+10	1	-1E+10	1	-1E+10	1	-1E+10	1	-1E+10	1
4902554	61	C	10/13/2022	14:10	-133.550	48.792	0	304.60	0	4.4840	0	33.8450	0	26.819	0	301.800	0	-1e10	8	-1e10	8	-1E+10	1	-1E+10	1	-1E+10	1	-1E+10	1	-1E+10	1	-1E+10	1
4902554	61	C	10/13/2022	14:10	-133.550	48.792	0	305.90	0	4.4770	0	33.8460	0	26.821	0	303.087	0	-1e10	8	-1e10	8	-1E+10	1	-1E+10	1	-1E+10	1	-1E+10	1	-1E+10	1	-1E+10	1
4902554	61	C	10/13/2022	14:10	-133.550	48.792	0	307.20	0	4.4740	0	33.8470	0	26.822	0	304.374	0	-1e10	8	-1e10	8	-1E+10	1	-1E+10	1	-1E+10	1	-1E+10	1	-1E+10	1	-1E+10	1
4902554	61	C	10/13/2022	14:10	-133.550	48.792	0	308.10	0	4.4680	0	33.8490	0	26.824	0	305.265	0	-1e10	8	-1e10	8	-1E+10	1	-1E+10	1	-1E+10	1	-1E+10	1	-1E+10	1	-1E+10	1
4902554	61	C	10/13/2022	14:10	-133.550	48.792	0	309.10	0	4.4650	0	33.8500	0	26.825	0	306.255	0	-1e10	8	-1e10	8	-1E+10	1	-1E+10	1	-1E+10	1	-1E+10	1	-1E+10	1	-1E+10	1
4902554	61	C	10/13/2022	14:10	-133.550	48.792	0	310.00	0	4.4640	0	33.8500	0	26.825	0	307.146	0	-1e10	8	-1e10	8	-1E+10	1	-1E+10	1	-1E+10	1	-1E+10	1	-1E+10	1	-1E+10	1
4902554	61	C	10/13/2022	14:10	-133.550	48.792	0	310.80	0	4.4630	0	33.8500	0	26.825	0	307.938	0	-1e10	8	-1e10	8	-1E+10	1	-1E+10	1	-1E+10	1	-1E+10	1	-1E+10	1	-1E+10	1
4902554	61	C	10/13/2022	14:10	-133.550	48.792	0	311.70	0	4.4630	0	33.8500	0	26.825	0	308.829	0	-1e10	8	-1e10	8	-1E+10	1	-1E+10	1	-1E+10	1	-1E+10	1	-1E+10	1	-1E+10	1
4902554	61	C	10/13/2022	14:10	-133.550	48.792	0	312.60	0	4.4620	0	33.8500	0	26.826	0	309.720	0	-1e10	8	-1e10	8	-1E+10	1	-1E+10	1	-1E+10	1	-1E+10	1	-1E+10	1	-1E+10	1
4902554	61	C	10/13/2022	14:10	-133.550	48.792	0	313.90	0	4.4620	0	33.8500	0	26.826	0	311.007	0	-1e10	8	-1e10	8	-1E+10	1	-1E+10	1	-1E+10	1	-1E+10	1	-1E+10	1	-1E+10	1
4902554	61	C	10/13/2022	14:10	-133.550	48.792	0	315.30	0	4.4580	0	33.8510	0	26.827	0	312.393	0	-1e10	8	-1e10	8	-1E+10	1	-1E+10	1	-1E+10	1	-1E+10	1	-1E+10	1	-1E+10	1
4902554	61	C	10/13/2022	14:10	-133.550	48.792	0	316.20	0	4.4570	0	33.8520	0	26.828	0	313.284	0	-1e10	8	-1e10	8	-1E+10	1	-1E+10	1	-1E+10	1	-1E+10	1	-1E+10	1	-1E+10	1
4902554	61	C	10/13/2022	14:10	-133.550	48.792	0	317.10	0	4.4570	0	33.8520	0	26.828	0	314.175	0	-1e10	8	-1e10	8	-1E+10	1	-1E+10	1	-1E+10	1	-1E+10	1	-1E+10	1	-1E+10	1
4902554	61	C	10/13/2022	14:10	-133.550	48.792	0	318.00	0	4.4530	0	33.8530	0	26.829	0	315.066	0	-1e10	8	-1e10	8	-1E+10	1	-1E+10	1	-1E+10	1	-1E+10	1	-1E+10	1	-1E+10	1
4902554	61	C	10/13/2022	14:10	-133.550	48.792	0	318.90	0	4.4500	0	33.8530	0	26.829	0	315.957	0	-1e10	8	-1e10	8	-1E+10	1	-1E+10	1	-1E+10	1	-1E+10	1	-1E+10	1	-1E+10	1
4902554	61	C	10/13/2022	14:10	-133.550	48.792	0	319.80	0	4.4430	0	33.8570	0	26.833	0	316.848	0	-1e10	8	-1e10	8	-1E+10	1	-1E+10	1	-1E+10	1	-1E+10	1	-1E+10	1	-1E+10	1
4902554	61	C	10/13/2022	14:10	-133.550	48.792	0	320.70	0	4.4340	0	33.8590	0	26.836	0	317.739	0	-1e10	8	-1e10	8	-1E+10	1	-1E+10	1	-1E+10	1	-1E+10	1	-1E+10	1	-1E+10	1
4902554	61	C	10/13/2022	14:10	-133.550	48.792	0	321.60	0	4.4330	0	33.8590	0	26.836	0	318.630	0	-1e10	8	-1e10	8	-1E+10	1	-1E+10	1	-1E+10	1	-1E+10	1	-1E+10	1	-1E+10	1
4902554	61	C	10/13/2022	14:10	-133.550	48.792	0	322.90	0	4.4280	0	33.8600	0	26.837	0	319.917	0	-1e10	8	-1e10	8	-1E+10	1	-1E+10	1	-1E+10	1	-1E+10	1	-1E+10	1	-1E+10	1
4902554	61	C	10/13/2022	14:10	-133.550	48.792	0	324.30	0	4.4190	0	33.8640	0	26.841	0	321.303	0	-1e10	8	-1e10	8	-1E+10	1	-1E+10	1	-1E+10	1	-1E+10	1	-1E+10	1	-1E+10	1
4902554	61	C	10/13/2022	14:10	-133.550	48.792	0	325.20	0	4.4150	0	33.8650	0	26.843	0	322.194	0	-1e10	8	-1e10	8	-1E+10	1	-1E+10	1	-1E+10	1	-1E+10	1	-1E+10	1	-1E+10	1
4902554	61	C	10/13/2022	14:10	-133.550	48.792	0	326.10	0	4.4130	0	33.8660	0	26.844	0	323.085	0	-1e10	8	-1e10	8	-1E+10	1	-1E+10	1	-1E+10	1	-1E+10	1	-1E+10	1	-1E+10	1
4902554	61	C	10/13/2022	14:10	-133.550	48.792	0	327.00	0	4.4110	0	33.8660	0	26.844	0	323.976	0	-1e10	8	-1e10	8	-1E+10	1	-1E+10	1	-1E+10	1	-1E+10	1	-1E+10	1	-1E+10	1
4902554	61	C	10/13/2022	14:10	-133.550	48.792	0	327.90	0	4.4040	0	33.8690	0	26.847	0	324.867	0	-1e10	8	-1e10	8	-1E+10	1	-1E+10	1	-1E+10	1	-1E+10	1	-1E+10	1	-1E+10	1
4902554	61	C	10/13/2022	14:10	-133.550	48.792	0	328.80	0	4.3930	0	33.8730	0	26.851	0	325.758	0	-1e10	8	-1e10	8	-1E+10	1	-1E+10	1	-1E+10	1	-1E+10	1	-1E+10	1	-1E+10	1
4902554	61	C	10/13/2022	14:10	-133.550	48.792	0	329.70	0	4.3910	0	33.8740	0	26.852	0	326.649	0	-1e10	8	-1e10	8	-1E+10	1	-1E+10	1	-1E+10	1	-1E+10	1	-1E+10	1	-1E+10	1
4902554	61	C	10/13/2022	14:10	-133.550	48.792	0	330.60	0	4.3850	0	33.8770	0	26.855	0	327.540	0	-1e10	8	-1e10	8	-1E+10	1	-1E+10	1	-1E+10	1	-1E+10	1	-1E+10	1	-1E+10	1
4902554	61	C	10/13/2022	14:10	-133.550	48.792	0	331.60	0	4.3820	0	33.8780	0	26.856	0	328.530	0	-1e10	8	-1e10	8	-1E+10	1	-1E+10	1	-1E+10	1	-1E+10	1	-1E+10	1	-1E+10	1
4902554	61	C	10/13/2022	14:10	-133.550	48.792	0	332.90	0	4.3790	0	33.8790	0	26.858	0	329.817	0	-1e10	8	-1e10	8	-1E+10	1	-1E+10	1	-1E+10	1	-1E+10	1	-1E+10	1	-1E+10	1
4902554	61	C	10/13/2022	14:10	-133.550	48.792	0	334.30	0	4.3780	0	33.8800	0	26.859	0	331.203	0	-1e10	8	-1e10	8	-1E+10	1	-1E+10	1	-1E+10	1	-1E+10	1	-1E+10	1	-1E+10	1
4902554	61	C	10/13/2022	14:10	-133.550	48.792	0	335.30	0	4.3780	0	33.8800	0	26.859	0	332.193	0	-1e10	8	-1e10	8	-1E+10	1	-1E+10	1	-1E+10	1	-1E+10	1	-1E+10	1	-1E+10	1
4902554	61	C	10/13/2022	14:10	-133.550	48.792	0	336.20	0	4.3780	0	33.8800	0	26.859	0	333.084	0	-1e10	8	-1e10	8	-1E+10	1	-1E+10	1	-1E+10	1	-1E+10	1	-1E+10	1	-1E+10	1
4902554	61	C	10/13/2022	14:10	-133.550	48.792	0	337.10	0	4.3780	0	33.8800	0	26.859	0	333.975	0	-1e10	8	-1e10	8	-1E+10	1	-1E+10	1	-1E+10	1	-1E+10	1	-1E+10	1	-1E+10	1
4902554	61	C	10/13/2022	14:10	-133.550	48.792	0	338.00	0	4.3780	0	33.8800	0	26.859	0	334.865	0	-1e10	8	-1e10	8	-1E+10	1	-1E+10	1	-1E+10	1	-1E+10	1	-1E+10	1	-1E+10	1
4902554	61	C	10/13/2022	14:10	-133.550	48.792	0	339.00	0	4.3780	0	33.8800	0	26.859	0	335.855	0	-1e10	8	-1e10	8	-1E+10	1	-1E+10	1	-1E+10	1	-1E+10	1	-1E+10	1	-1E+10	1
4902554	61	C	10/13/2022	14:10	-133.550	48.792	0	339.90	0	4.3770	0	33.8800	0	26.859	0	336.746	0	-1e10	8	-1e10	8	-1E+10	1	-1E+10	1	-1E+10	1	-1E+10	1	-1E+10	1	-1E+10	1
4902554	61	C	10/13/2022	14:10	-133.550	48.792	0	340.80	0	4.3750	0	33.8800	0	26.859	0	337.637	0	-1e10	8	-1e10	8	-1E+10	1	-1E+10	1	-1E+10	1	-1E+10	1	-1E+10	1	-1E+10	1
4902554	61	C	10/13/2022	14:10	-133.550	48.792	0	341.70	0	4.3740	0	33.8800	0	26.859	0	338.528	0	-1e10	8	-1e10	8	-1E+10	1	-1E+10	1	-1E+10	1	-1E+10	1	-1E+10	1	-1E+10	1
4902554	61	C	10/13/2022	14:10	-133.550	48.792	0	342.70	0	4.3750	0	33.8800	0	26.859	0	339.518	0	-1e10	8	-1e10	8	-1E+10	1	-1E+10	1	-1E+10	1	-1E+10	1	-1E+10	1	-1E+10	1
4902554	61	C	10/13/2022	14:10	-133.550	48.792	0	343.60	0	4.3740	0	33.8800	0	26.859	0	340.409	0	-1e10	8	-1e10	8	-1E+10	1	-1E+10	1	-1E+10	1	-1E+10	1	-1E+10	1	-1E+10	1
4902554	61	C	10/13/2022	14:10	-133.550	48.792	0	344.90	0	4.3680	0	33.8820	0	26.861	0	341.696	0	-1e10	8	-1e10	8	-1E+10	1	-1E+10	1	-1E+10	1	-1E+10	1	-1E+10	1	-1E+10	1
4902554	61	C	10/13/2022	14:10	-133.550	48.792	0	346.30	0	4.3620	0	33.8850	0	26.864	0	343.082	0	-1e10	8	-1e10	8	-1E+10	1	-1E+10	1	-1E+10	1	-1E+10	1	-1E+10	1	-1E+10	1
4902554	61	C	10/13/2022	14:10	-133.550	48.792	0	347.20	0	4.3550	0	33.8880	0	26.867	0	343.973	0	-1e10	8	-1e10	8	-1E+10	1	-1E+10	1	-1E+10	1	-1E+10	1	-1E+10	1	-1E+10	1
4902554	61	C	10/13/2022	14:10	-133.550	48.792	0	348.20	0	4.3510	0	33.8900	0	26.869	0	344.962	0	-1e10	8	-1e10	8	-1E+10	1	-1E+10	1	-1E+10	1	-1E+10	1	-1E+10	1	-1E+10	1
4902554	61	C	10/13/2022	14:10	-133.550	48.792	0	349.10	0	4.3450	0	33.8930	0	26.872	0	345.853	0	-1e10	8	-1e10	8	-1E+10	1	-1E+10	1	-1E+10	1	-1E+10	1	-1E+10	1	-1E+10	1
4902554	61	C	10/13/2022	14:10	-133.550	48.792	0	350.10	0	4.3420	0	33.8950	0	26.874	0	346.843	0	-1e10	8	-1e10	8	-1E+10	1	-1E+10	1	-1E+10	1	-1E+10	1	-1E+10	1	-1E+10	1
4902554	61	C	10/13/2022	14:10	-133.550	48.792	0	352.90	0	4.3290	0	33.9000	0	26.880	0	349.615	0	-1e10	8	-1e10	8	-1E+10	1	-1E+10	1	-1E+10	1	-1E+10	1	-1E+10	1	-1E+10	1
4902554	61	C	10/13/2022	14:10	-133.550	48.792	0	357.80	0	4.3170	0	33.9050	0	26.885	0	354.465	0	-1e10	8	-1e10	8	-1E+10	1	-1E+10	1	-1E+10	1	-1E+10	1	-1E+10	1	-1E+10	1
4902554	61	C	10/13/2022	14:10	-133.550	48.792	0	362.70	0	4.3050	0	33.9130	0	26.893	0	359.315	0	-1e10	8	-1e10	8	-1E+10	1	-1E+10	1	-1E+10	1	-1E+10	1	-1E+10	1	-1E+10	1
4902554	61	C	10/13/2022	14:10	-133.550	48.792	0	368.00	0	4.2980	0	33.9200	0	26.899	0	364.561	0	-1e10	8	-1e10	8	-1E+10	1	-1E+10	1	-1E+10	1	-1E+10	1	-1E+10	1	-1E+10	1
4902554	61	C	10/13/2022	14:10	-133.550	48.792	0	373.00	0	4.2960	0	33.9220	0	26.901	0	369.510	0	-1e10	8	-1e10	8	-1E+10	1	-1E+10	1	-1E+10	1	-1E+10	1	-1E+10	1	-1E+10	1
4902554	61	C	10/13/2022	14:10	-133.550	48.792	0	377.90	0	4.2860	0	33.9300	0	26.908	0	374.359	0	-1e10	8	-1e10	8	-1E+10	1	-1E+10	1	-1E+10	1	-1E+10	1	-1E+10	1	-1E+10	1
4902554	61	C	10/13/2022	14:10	-133.550	48.792	0	383.00	0	4.2840	0	33.9320	0	26.910	0	379.407	0	-1e10	8	-1e10	8	-1E+10	1	-1E+10	1	-1E+10	1	-1E+10	1	-1E+10	1	-1E+10	1
4902554	61	C	10/13/2022	14:10	-133.550	48.792	0	388.00	0	4.2850	0	33.9330	0	26.911	0	384.355	0	-1e10	8	-1e10	8	-1E+10	1	-1E+10	1	-1E+10	1	-1E+10	1	-1E+10	1	-1E+10	1
4902554	61	C	10/13/2022	14:10	-133.550	48.792	0	392.60	0	4.2840	0	33.9360	0	26.913	0	388.908	0	-1e10	8	-1e10	8	-1E+10	1	-1E+10	1	-1E+10	1	-1E+10	1	-1E+10	1	-1E+10	1
4902554	61	C	10/13/2022	14:10	-133.550	48.792	0	397.90	0	4.2770	0	33.9430	0	26.920	0	394.153	0	-1e10	8	-1e10	8	-1E+10	1	-1E+10	1	-1E+10	1	-1E+10	1	-1E+10	1	-1E+10	1
4902554	61	C	10/13/2022	14:10	-133.550	48.792	0	403.40	0	4.2600	0	33.9580	0	26.933	0	399.596	0	-1e10	8	-1e10	8	-1E+10	1	-1E+10	1	-1E+10	1	-1E+10	1	-1E+10	1	-1E+10	1
4902554	61	C	10/13/2022	14:10	-133.550	48.792	0	407.90	0	4.2590	0	33.9650	0	26.939	0	404.049	0	-1e10	8	-1e10	8	-1E+10	1	-1E+10	1	-1E+10	1	-1E+10	1	-1E+10	1	-1E+10	1
4902554	61	C	10/13/2022	14:10	-133.550	48.792	0	412.50	0	4.2540	0	33.9710	0	26.944	0	408.601	0	-1e10	8	-1e10	8	-1E+10	1	-1E+10	1	-1E+10	1	-1E+10	1	-1E+10	1	-1E+10	1
4902554	61	C	10/13/2022	14:10	-133.550	48.792	0	417.60	0	4.2510	0	33.9770	0	26.950	0	413.648	0	-1e10	8	-1e10	8	-1E+10	1	-1E+10	1	-1E+10	1	-1E+10	1	-1E+10	1	-1E+10	1
4902554	61	C	10/13/2022	14:10	-133.550	48.792	0	422.70	0	4.2480	0	33.9840	0	26.956	0	418.695	0	-1e10	8	-1e10	8	-1E+10	1	-1E+10	1	-1E+10	1	-1E+10	1	-1E+10	1	-1E+10	1
4902554	61	C	10/13/2022	14:10	-133.550	48.792	0	427.90	0	4.2460	0	33.9860	0	26.957	0	423.840	0	-1e10	8	-1e10	8	-1E+10	1	-1E+10	1	-1E+10	1	-1E+10	1	-1E+10	1	-1E+10	1
4902554	61	C	10/13/2022	14:10	-133.550	48.792	0	433.00	0	4.2450	0	33.9880	0	26.959	0	428.886	0	-1e10	8	-1e10	8	-1E+10	1	-1E+10	1	-1E+10	1	-1E+10	1	-1E+10	1	-1E+10	1
4902554	61	C	10/13/2022	14:10	-133.550	48.792	0	438.20	0	4.2420	0	33.9920	0	26.963	0	434.031	0	-1e10	8	-1e10	8	-1E+10	1	-1E+10	1	-1E+10	1	-1E+10	1	-1E+10	1	-1E+10	1
4902554	61	C	10/13/2022	14:10	-133.550	48.792	0	443.30	0	4.2370	0	33.9980	0	26.968	0	439.078	0	-1e10	8	-1e10	8	-1E+10	1	-1E+10	1	-1E+10	1	-1E+10	1	-1E+10	1	-1E+10	1
4902554	61	C	10/13/2022	14:10	-133.550	48.792	0	448.30	0	4.2290	0	34.0040	0	26.974	0	444.025	0	-1e10	8	-1e10	8	-1E+10	1	-1E+10	1	-1E+10	1	-1E+10	1	-1E+10	1	-1E+10	1
4902554	61	C	10/13/2022	14:10	-133.550	48.792	0	453.30	0	4.2230	0	34.0090	0	26.978	0	448.971	0	-1e10	8	-1e10	8	-1E+10	1	-1E+10	1	-1E+10	1	-1E+10	1	-1E+10	1	-1E+10	1
4902554	61	C	10/13/2022	14:10	-133.550	48.792	0	458.20	0	4.2130	0	34.0180	0	26.986	0	453.819	0	-1e10	8	-1e10	8	-1E+10	1	-1E+10	1	-1E+10	1	-1E+10	1	-1E+10	1	-1E+10	1
4902554	61	C	10/13/2022	14:10	-133.550	48.792	0	463.00	0	4.2060	0	34.0240	0	26.992	0	458.568	0	-1e10	8	-1e10	8	-1E+10	1	-1E+10	1	-1E+10	1	-1E+10	1	-1E+10	1	-1E+10	1
4902554	61	C	10/13/2022	14:10	-133.550	48.792	0	467.70	0	4.2010	0	34.0280	0	26.996	0	463.218	0	-1e10	8	-1e10	8	-1E+10	1	-1E+10	1	-1E+10	1	-1E+10	1	-1E+10	1	-1E+10	1
4902554	61	C	10/13/2022	14:10	-133.550	48.792	0	472.90	0	4.1990	0	34.0310	0	26.998	0	468.362	0	-1e10	8	-1e10	8	-1E+10	1	-1E+10	1	-1E+10	1	-1E+10	1	-1E+10	1	-1E+10	1
4902554	61	C	10/13/2022	14:10	-133.550	48.792	0	477.90	0	4.1950	0	34.0330	0	27.000	0	473.309	0	-1e10	8	-1e10	8	-1E+10	1	-1E+10	1	-1E+10	1	-1E+10	1	-1E+10	1	-1E+10	1
4902554	61	C	10/13/2022	14:10	-133.550	48.792	0	482.80	0	4.1820	0	34.0390	0	27.007	0	478.156	0	-1e10	8	-1e10	8	-1E+10	1	-1E+10	1	-1E+10	1	-1E+10	1	-1E+10	1	-1E+10	1
4902554	61	C	10/13/2022	14:10	-133.550	48.792	0	488.20	0	4.1690	0	34.0440	0	27.012	0	483.498	0	-1e10	8	-1e10	8	-1E+10	1	-1E+10	1	-1E+10	1	-1E+10	1	-1E+10	1	-1E+10	1
4902554	61	C	10/13/2022	14:10	-133.550	48.792	0	493.00	0	4.1660	0	34.0480	0	27.016	0	488.246	0	-1e10	8	-1e10	8	-1E+10	1	-1E+10	1	-1E+10	1	-1E+10	1	-1E+10	1	-1E+10	1
4902554	61	C	10/13/2022	14:10	-133.550	48.792	0	497.70	0	4.1470	0	34.0550	0	27.023	0	492.895	0	-1e10	8	-1e10	8	-1E+10	1	-1E+10	1	-1E+10	1	-1E+10	1	-1E+10	1	-1E+10	1
4902554	61	C	10/13/2022	14:10	-133.550	48.792	0	502.80	0	4.1350	0	34.0620	0	27.030	0	497.939	0	-1e10	8	-1e10	8	-1E+10	1	-1E+10	1	-1E+10	1	-1E+10	1	-1E+10	1	-1E+10	1
4902554	61	C	10/13/2022	14:10	-133.550	48.792	0	507.90	0	4.1240	0	34.0690	0	27.037	0	502.984	0	-1e10	8	-1e10	8	-1E+10	1	-1E+10	1	-1E+10	1	-1E+10	1	-1E+10	1	-1E+10	1
4902554	61	C	10/13/2022	14:10	-133.550	48.792	0	513.20	0	4.1170	0	34.0750	0	27.042	0	508.226	0	-1e10	8	-1e10	8	-1E+10	1	-1E+10	1	-1E+10	1	-1E+10	1	-1E+10	1	-1E+10	1
4902554	61	C	10/13/2022	14:10	-133.550	48.792	0	518.00	0	4.1140	0	34.0810	0	27.047	0	512.974	0	-1e10	8	-1e10	8	-1E+10	1	-1E+10	1	-1E+10	1	-1E+10	1	-1E+10	1	-1E+10	1
4902554	61	C	10/13/2022	14:10	-133.550	48.792	0	522.90	0	4.0940	0	34.0860	0	27.053	0	517.820	0	-1e10	8	-1e10	8	-1E+10	1	-1E+10	1	-1E+10	1	-1E+10	1	-1E+10	1	-1E+10	1
4902554	61	C	10/13/2022	14:10	-133.550	48.792	0	527.90	0	4.0740	0	34.0940	0	27.062	0	522.765	0	-1e10	8	-1e10	8	-1E+10	1	-1E+10	1	-1E+10	1	-1E+10	1	-1E+10	1	-1E+10	1
4902554	61	C	10/13/2022	14:10	-133.550	48.792	0	533.00	0	4.0570	0	34.1040	0	27.072	0	527.809	0	-1e10	8	-1e10	8	-1E+10	1	-1E+10	1	-1E+10	1	-1E+10	1	-1E+10	1	-1E+10	1
4902554	61	C	10/13/2022	14:10	-133.550	48.792	0	538.00	0	4.0420	0	34.1110	0	27.079	0	532.754	0	-1e10	8	-1e10	8	-1E+10	1	-1E+10	1	-1E+10	1	-1E+10	1	-1E+10	1	-1E+10	1
4902554	61	C	10/13/2022	14:10	-133.550	48.792	0	542.80	0	4.0310	0	34.1150	0	27.083	0	537.501	0	-1e10	8	-1e10	8	-1E+10	1	-1E+10	1	-1E+10	1	-1E+10	1	-1E+10	1	-1E+10	1
4902554	61	C	10/13/2022	14:10	-133.550	48.792	0	547.90	0	4.0250	0	34.1180	0	27.086	0	542.545	0	-1e10	8	-1e10	8	-1E+10	1	-1E+10	1	-1E+10	1	-1E+10	1	-1E+10	1	-1E+10	1
4902554	61	C	10/13/2022	14:10	-133.550	48.792	0	552.70	0	4.0210	0	34.1200	0	27.088	0	547.291	0	-1e10	8	-1e10	8	-1E+10	1	-1E+10	1	-1E+10	1	-1E+10	1	-1E+10	1	-1E+10	1
4902554	61	C	10/13/2022	14:10	-133.550	48.792	0	557.90	0	4.0130	0	34.1240	0	27.092	0	552.434	0	-1e10	8	-1e10	8	-1E+10	1	-1E+10	1	-1E+10	1	-1E+10	1	-1E+10	1	-1E+10	1
4902554	61	C	10/13/2022	14:10	-133.550	48.792	0	562.90	0	4.0060	0	34.1260	0	27.095	0	557.378	0	-1e10	8	-1e10	8	-1E+10	1	-1E+10	1	-1E+10	1	-1E+10	1	-1E+10	1	-1E+10	1
4902554	61	C	10/13/2022	14:10	-133.550	48.792	0	567.60	0	3.9940	0	34.1310	0	27.100	0	562.026	0	-1e10	8	-1e10	8	-1E+10	1	-1E+10	1	-1E+10	1	-1E+10	1	-1E+10	1	-1E+10	1
4902554	61	C	10/13/2022	14:10	-133.550	48.792	0	572.70	0	3.9830	0	34.1350	0	27.104	0	567.069	0	-1e10	8	-1e10	8	-1E+10	1	-1E+10	1	-1E+10	1	-1E+10	1	-1E+10	1	-1E+10	1
4902554	61	C	10/13/2022	14:10	-133.550	48.792	0	578.00	0	3.9800	0	34.1370	0	27.106	0	572.309	0	-1e10	8	-1e10	8	-1E+10	1	-1E+10	1	-1E+10	1	-1E+10	1	-1E+10	1	-1E+10	1
4902554	61	C	10/13/2022	14:10	-133.550	48.792	0	582.90	0	3.9760	0	34.1390	0	27.108	0	577.154	0	-1e10	8	-1e10	8	-1E+10	1	-1E+10	1	-1E+10	1	-1E+10	1	-1E+10	1	-1E+10	1
4902554	61	C	10/13/2022	14:10	-133.550	48.792	0	587.80	0	3.9600	0	34.1440	0	27.114	0	581.999	0	-1e10	8	-1e10	8	-1E+10	1	-1E+10	1	-1E+10	1	-1E+10	1	-1E+10	1	-1E+10	1
4902554	61	C	10/13/2022	14:10	-133.550	48.792	0	592.90	0	3.9470	0	34.1490	0	27.119	0	587.041	0	-1e10	8	-1e10	8	-1E+10	1	-1E+10	1	-1E+10	1	-1E+10	1	-1E+10	1	-1E+10	1
4902554	61	C	10/13/2022	14:10	-133.550	48.792	0	598.00	0	3.9350	0	34.1520	0	27.123	0	592.084	0	-1e10	8	-1e10	8	-1E+10	1	-1E+10	1	-1E+10	1	-1E+10	1	-1E+10	1	-1E+10	1
4902554	61	C	10/13/2022	14:10	-133.550	48.792	0	603.10	0	3.9230	0	34.1530	0	27.125	0	597.126	0	-1e10	8	-1e10	8	-1E+10	1	-1E+10	1	-1E+10	1	-1E+10	1	-1E+10	1	-1E+10	1
4902554	61	C	10/13/2022	14:10	-133.550	48.792	0	607.80	0	3.9190	0	34.1540	0	27.126	0	601.773	0	-1e10	8	-1e10	8	-1E+10	1	-1E+10	1	-1E+10	1	-1E+10	1	-1E+10	1	-1E+10	1
4902554	61	C	10/13/2022	14:10	-133.550	48.792	0	612.60	0	3.9150	0	34.1550	0	27.127	0	606.518	0	-1e10	8	-1e10	8	-1E+10	1	-1E+10	1	-1E+10	1	-1E+10	1	-1E+10	1	-1E+10	1
4902554	61	C	10/13/2022	14:10	-133.550	48.792	0	617.90	0	3.9100	0	34.1570	0	27.129	0	611.758	0	-1e10	8	-1e10	8	-1E+10	1	-1E+10	1	-1E+10	1	-1E+10	1	-1E+10	1	-1E+10	1
4902554	61	C	10/13/2022	14:10	-133.550	48.792	0	623.10	0	3.9010	0	34.1610	0	27.133	0	616.898	0	-1e10	8	-1e10	8	-1E+10	1	-1E+10	1	-1E+10	1	-1E+10	1	-1E+10	1	-1E+10	1
4902554	61	C	10/13/2022	14:10	-133.550	48.792	0	627.90	0	3.8870	0	34.1660	0	27.139	0	621.643	0	-1e10	8	-1e10	8	-1E+10	1	-1E+10	1	-1E+10	1	-1E+10	1	-1E+10	1	-1E+10	1
4902554	61	C	10/13/2022	14:10	-133.550	48.792	0	632.80	0	3.8790	0	34.1700	0	27.143	0	626.487	0	-1e10	8	-1e10	8	-1E+10	1	-1E+10	1	-1E+10	1	-1E+10	1	-1E+10	1	-1E+10	1
4902554	61	C	10/13/2022	14:10	-133.550	48.792	0	637.70	0	3.8740	0	34.1730	0	27.146	0	631.331	0	-1e10	8	-1e10	8	-1E+10	1	-1E+10	1	-1E+10	1	-1E+10	1	-1E+10	1	-1E+10	1
4902554	61	C	10/13/2022	14:10	-133.550	48.792	0	642.50	0	3.8580	0	34.1800	0	27.153	0	636.076	0	-1e10	8	-1e10	8	-1E+10	1	-1E+10	1	-1E+10	1	-1E+10	1	-1E+10	1	-1E+10	1
4902554	61	C	10/13/2022	14:10	-133.550	48.792	0	647.90	0	3.8400	0	34.1840	0	27.158	0	641.413	0	-1e10	8	-1e10	8	-1E+10	1	-1E+10	1	-1E+10	1	-1E+10	1	-1E+10	1	-1E+10	1
4902554	61	C	10/13/2022	14:10	-133.550	48.792	0	653.20	0	3.8320	0	34.1860	0	27.160	0	646.652	0	-1e10	8	-1e10	8	-1E+10	1	-1E+10	1	-1E+10	1	-1E+10	1	-1E+10	1	-1E+10	1
4902554	61	C	10/13/2022	14:10	-133.550	48.792	0	658.10	0	3.8310	0	34.1860	0	27.161	0	651.495	0	-1e10	8	-1e10	8	-1E+10	1	-1E+10	1	-1E+10	1	-1E+10	1	-1E+10	1	-1E+10	1
4902554	61	C	10/13/2022	14:10	-133.550	48.792	0	663.00	0	3.8290	0	34.1860	0	27.161	0	656.338	0	-1e10	8	-1e10	8	-1E+10	1	-1E+10	1	-1E+10	1	-1E+10	1	-1E+10	1	-1E+10	1
4902554	61	C	10/13/2022	14:10	-133.550	48.792	0	667.80	0	3.8120	0	34.1900	0	27.166	0	661.082	0	-1e10	8	-1e10	8	-1E+10	1	-1E+10	1	-1E+10	1	-1E+10	1	-1E+10	1	-1E+10	1
4902554	61	C	10/13/2022	14:10	-133.550	48.792	0	672.60	0	3.7970	0	34.1950	0	27.171	0	665.826	0	-1e10	8	-1e10	8	-1E+10	1	-1E+10	1	-1E+10	1	-1E+10	1	-1E+10	1	-1E+10	1
4902554	61	C	10/13/2022	14:10	-133.550	48.792	0	677.50	0	3.7820	0	34.2000	0	27.177	0	670.669	0	-1e10	8	-1e10	8	-1E+10	1	-1E+10	1	-1E+10	1	-1E+10	1	-1E+10	1	-1E+10	1
4902554	61	C	10/13/2022	14:10	-133.550	48.792	0	682.90	0	3.7790	0	34.2010	0	27.178	0	676.006	0	-1e10	8	-1e10	8	-1E+10	1	-1E+10	1	-1E+10	1	-1E+10	1	-1E+10	1	-1E+10	1
4902554	61	C	10/13/2022	14:10	-133.550	48.792	0	688.30	0	3.7740	0	34.2020	0	27.179	0	681.343	0	-1e10	8	-1e10	8	-1E+10	1	-1E+10	1	-1E+10	1	-1E+10	1	-1E+10	1	-1E+10	1
4902554	61	C	10/13/2022	14:10	-133.550	48.792	0	693.20	0	3.7710	0	34.2030	0	27.180	0	686.185	0	-1e10	8	-1e10	8	-1E+10	1	-1E+10	1	-1E+10	1	-1E+10	1	-1E+10	1	-1E+10	1
4902554	61	C	10/13/2022	14:10	-133.550	48.792	0	698.10	0	3.7660	0	34.2040	0	27.182	0	691.027	0	-1e10	8	-1e10	8	-1E+10	1	-1E+10	1	-1E+10	1	-1E+10	1	-1E+10	1	-1E+10	1
4902554	61	C	10/13/2022	14:10	-133.550	48.792	0	703.10	0	3.7540	0	34.2060	0	27.185	0	695.968	0	-1e10	8	-1e10	8	-1E+10	1	-1E+10	1	-1E+10	1	-1E+10	1	-1E+10	1	-1E+10	1
4902554	61	C	10/13/2022	14:10	-133.550	48.792	0	708.10	0	3.7310	0	34.2090	0	27.189	0	700.909	0	-1e10	8	-1e10	8	-1E+10	1	-1E+10	1	-1E+10	1	-1E+10	1	-1E+10	1	-1E+10	1
4902554	61	C	10/13/2022	14:10	-133.550	48.792	0	713.20	0	3.7200	0	34.2120	0	27.193	0	705.949	0	-1e10	8	-1e10	8	-1E+10	1	-1E+10	1	-1E+10	1	-1E+10	1	-1E+10	1	-1E+10	1
4902554	61	C	10/13/2022	14:10	-133.550	48.792	0	717.80	0	3.6960	0	34.2170	0	27.199	0	710.494	0	-1e10	8	-1e10	8	-1E+10	1	-1E+10	1	-1E+10	1	-1E+10	1	-1E+10	1	-1E+10	1
4902554	61	C	10/13/2022	14:10	-133.550	48.792	0	722.80	0	3.6750	0	34.2220	0	27.205	0	715.435	0	-1e10	8	-1e10	8	-1E+10	1	-1E+10	1	-1E+10	1	-1E+10	1	-1E+10	1	-1E+10	1
4902554	61	C	10/13/2022	14:10	-133.550	48.792	0	728.00	0	3.6560	0	34.2250	0	27.209	0	720.573	0	-1e10	8	-1e10	8	-1E+10	1	-1E+10	1	-1E+10	1	-1E+10	1	-1E+10	1	-1E+10	1
4902554	61	C	10/13/2022	14:10	-133.550	48.792	0	732.90	0	3.6450	0	34.2280	0	27.213	0	725.414	0	-1e10	8	-1e10	8	-1E+10	1	-1E+10	1	-1E+10	1	-1E+10	1	-1E+10	1	-1E+10	1
4902554	61	C	10/13/2022	14:10	-133.550	48.792	0	737.90	0	3.6330	0	34.2320	0	27.217	0	730.355	0	-1e10	8	-1e10	8	-1E+10	1	-1E+10	1	-1E+10	1	-1E+10	1	-1E+10	1	-1E+10	1
4902554	61	C	10/13/2022	14:10	-133.550	48.792	0	743.00	0	3.6210	0	34.2350	0	27.221	0	735.393	0	-1e10	8	-1e10	8	-1E+10	1	-1E+10	1	-1E+10	1	-1E+10	1	-1E+10	1	-1E+10	1
4902554	61	C	10/13/2022	14:10	-133.550	48.792	0	748.20	0	3.6030	0	34.2400	0	27.227	0	740.531	0	-1e10	8	-1e10	8	-1E+10	1	-1E+10	1	-1E+10	1	-1E+10	1	-1E+10	1	-1E+10	1
4902554	61	C	10/13/2022	14:10	-133.550	48.792	0	753.00	0	3.5950	0	34.2420	0	27.229	0	745.273	0	-1e10	8	-1e10	8	-1E+10	1	-1E+10	1	-1E+10	1	-1E+10	1	-1E+10	1	-1E+10	1
4902554	61	C	10/13/2022	14:10	-133.550	48.792	0	757.90	0	3.5900	0	34.2430	0	27.230	0	750.114	0	-1e10	8	-1e10	8	-1E+10	1	-1E+10	1	-1E+10	1	-1E+10	1	-1E+10	1	-1E+10	1
4902554	61	C	10/13/2022	14:10	-133.550	48.792	0	762.80	0	3.5780	0	34.2460	0	27.234	0	754.955	0	-1e10	8	-1e10	8	-1E+10	1	-1E+10	1	-1E+10	1	-1E+10	1	-1E+10	1	-1E+10	1
4902554	61	C	10/13/2022	14:10	-133.550	48.792	0	767.70	0	3.5530	0	34.2510	0	27.240	0	759.796	0	-1e10	8	-1e10	8	-1E+10	1	-1E+10	1	-1E+10	1	-1E+10	1	-1E+10	1	-1E+10	1
4902554	61	C	10/13/2022	14:10	-133.550	48.792	0	772.70	0	3.5350	0	34.2550	0	27.245	0	764.735	0	-1e10	8	-1e10	8	-1E+10	1	-1E+10	1	-1E+10	1	-1E+10	1	-1E+10	1	-1E+10	1
4902554	61	C	10/13/2022	14:10	-133.550	48.792	0	777.80	0	3.5180	0	34.2590	0	27.250	0	769.773	0	-1e10	8	-1e10	8	-1E+10	1	-1E+10	1	-1E+10	1	-1E+10	1	-1E+10	1	-1E+10	1
4902554	61	C	10/13/2022	14:10	-133.550	48.792	0	782.90	0	3.5120	0	34.2600	0	27.252	0	774.811	0	-1e10	8	-1e10	8	-1E+10	1	-1E+10	1	-1E+10	1	-1E+10	1	-1E+10	1	-1E+10	1
4902554	61	C	10/13/2022	14:10	-133.550	48.792	0	787.60	0	3.5020	0	34.2630	0	27.255	0	779.454	0	-1e10	8	-1e10	8	-1E+10	1	-1E+10	1	-1E+10	1	-1E+10	1	-1E+10	1	-1E+10	1
4902554	61	C	10/13/2022	14:10	-133.550	48.792	0	792.80	0	3.4830	0	34.2670	0	27.260	0	784.590	0	-1e10	8	-1e10	8	-1E+10	1	-1E+10	1	-1E+10	1	-1E+10	1	-1E+10	1	-1E+10	1
4902554	61	C	10/13/2022	14:10	-133.550	48.792	0	798.20	0	3.4800	0	34.2680	0	27.261	0	789.924	0	-1e10	8	-1e10	8	-1E+10	1	-1E+10	1	-1E+10	1	-1E+10	1	-1E+10	1	-1E+10	1
4902554	61	C	10/13/2022	14:10	-133.550	48.792	0	803.10	0	3.4770	0	34.2690	0	27.262	0	794.764	0	-1e10	8	-1e10	8	-1E+10	1	-1E+10	1	-1E+10	1	-1E+10	1	-1E+10	1	-1E+10	1
4902554	61	C	10/13/2022	14:10	-133.550	48.792	0	808.20	0	3.4730	0	34.2700	0	27.264	0	799.801	0	-1e10	8	-1e10	8	-1E+10	1	-1E+10	1	-1E+10	1	-1E+10	1	-1E+10	1	-1E+10	1
4902554	61	C	10/13/2022	14:10	-133.550	48.792	0	813.20	0	3.4620	0	34.2720	0	27.266	0	804.740	0	-1e10	8	-1e10	8	-1E+10	1	-1E+10	1	-1E+10	1	-1E+10	1	-1E+10	1	-1E+10	1
4902554	61	C	10/13/2022	14:10	-133.550	48.792	0	818.30	0	3.4550	0	34.2740	0	27.269	0	809.777	0	-1e10	8	-1e10	8	-1E+10	1	-1E+10	1	-1E+10	1	-1E+10	1	-1E+10	1	-1E+10	1
4902554	61	C	10/13/2022	14:10	-133.550	48.792	0	823.40	0	3.4420	0	34.2760	0	27.271	0	814.814	0	-1e10	8	-1e10	8	-1E+10	1	-1E+10	1	-1E+10	1	-1E+10	1	-1E+10	1	-1E+10	1
4902554	61	C	10/13/2022	14:10	-133.550	48.792	0	827.90	0	3.4330	0	34.2780	0	27.274	0	819.258	0	-1e10	8	-1e10	8	-1E+10	1	-1E+10	1	-1E+10	1	-1E+10	1	-1E+10	1	-1E+10	1
4902554	61	C	10/13/2022	14:10	-133.550	48.792	0	832.50	0	3.4220	0	34.2810	0	27.277	0	823.801	0	-1e10	8	-1e10	8	-1E+10	1	-1E+10	1	-1E+10	1	-1E+10	1	-1E+10	1	-1E+10	1
4902554	61	C	10/13/2022	14:10	-133.550	48.792	0	837.60	0	3.4200	0	34.2820	0	27.278	0	828.837	0	-1e10	8	-1e10	8	-1E+10	1	-1E+10	1	-1E+10	1	-1E+10	1	-1E+10	1	-1E+10	1
4902554	61	C	10/13/2022	14:10	-133.550	48.792	0	842.60	0	3.4110	0	34.2840	0	27.281	0	833.775	0	-1e10	8	-1e10	8	-1E+10	1	-1E+10	1	-1E+10	1	-1E+10	1	-1E+10	1	-1E+10	1
4902554	61	C	10/13/2022	14:10	-133.550	48.792	0	847.70	0	3.3970	0	34.2870	0	27.285	0	838.811	0	-1e10	8	-1e10	8	-1E+10	1	-1E+10	1	-1E+10	1	-1E+10	1	-1E+10	1	-1E+10	1
4902554	61	C	10/13/2022	14:10	-133.550	48.792	0	852.60	0	3.3870	0	34.2890	0	27.287	0	843.650	0	-1e10	8	-1e10	8	-1E+10	1	-1E+10	1	-1E+10	1	-1E+10	1	-1E+10	1	-1E+10	1
4902554	61	C	10/13/2022	14:10	-133.550	48.792	0	857.60	0	3.3730	0	34.2920	0	27.291	0	848.587	0	-1e10	8	-1e10	8	-1E+10	1	-1E+10	1	-1E+10	1	-1E+10	1	-1E+10	1	-1E+10	1
4902554	61	C	10/13/2022	14:10	-133.550	48.792	0	862.60	0	3.3670	0	34.2940	0	27.293	0	853.525	0	-1e10	8	-1e10	8	-1E+10	1	-1E+10	1	-1E+10	1	-1E+10	1	-1E+10	1	-1E+10	1
4902554	61	C	10/13/2022	14:10	-133.550	48.792	0	867.60	0	3.3560	0	34.2970	0	27.297	0	858.462	0	-1e10	8	-1e10	8	-1E+10	1	-1E+10	1	-1E+10	1	-1E+10	1	-1E+10	1	-1E+10	1
4902554	61	C	10/13/2022	14:10	-133.550	48.792	0	872.70	0	3.3400	0	34.3000	0	27.300	0	863.498	0	-1e10	8	-1e10	8	-1E+10	1	-1E+10	1	-1E+10	1	-1E+10	1	-1E+10	1	-1E+10	1
4902554	61	C	10/13/2022	14:10	-133.550	48.792	0	877.70	0	3.3280	0	34.3020	0	27.303	0	868.435	0	-1e10	8	-1e10	8	-1E+10	1	-1E+10	1	-1E+10	1	-1E+10	1	-1E+10	1	-1E+10	1
4902554	61	C	10/13/2022	14:10	-133.550	48.792	0	882.70	0	3.3170	0	34.3040	0	27.306	0	873.371	0	-1e10	8	-1e10	8	-1E+10	1	-1E+10	1	-1E+10	1	-1E+10	1	-1E+10	1	-1E+10	1
4902554	61	C	10/13/2022	14:10	-133.550	48.792	0	887.50	0	3.3070	0	34.3060	0	27.308	0	878.111	0	-1e10	8	-1e10	8	-1E+10	1	-1E+10	1	-1E+10	1	-1E+10	1	-1E+10	1	-1E+10	1
4902554	61	C	10/13/2022	14:10	-133.550	48.792	0	892.90	0	3.2810	0	34.3120	0	27.316	0	883.442	0	-1e10	8	-1e10	8	-1E+10	1	-1E+10	1	-1E+10	1	-1E+10	1	-1E+10	1	-1E+10	1
4902554	61	C	10/13/2022	14:10	-133.550	48.792	0	898.20	0	3.2700	0	34.3140	0	27.318	0	888.675	0	-1e10	8	-1e10	8	-1E+10	1	-1E+10	1	-1E+10	1	-1E+10	1	-1E+10	1	-1E+10	1
4902554	61	C	10/13/2022	14:10	-133.550	48.792	0	903.00	0	3.2610	0	34.3160	0	27.321	0	893.413	0	-1e10	8	-1e10	8	-1E+10	1	-1E+10	1	-1E+10	1	-1E+10	1	-1E+10	1	-1E+10	1
4902554	61	C	10/13/2022	14:10	-133.550	48.792	0	907.90	0	3.2450	0	34.3200	0	27.326	0	898.251	0	-1e10	8	-1e10	8	-1E+10	1	-1E+10	1	-1E+10	1	-1E+10	1	-1E+10	1	-1E+10	1
4902554	61	C	10/13/2022	14:10	-133.550	48.792	0	912.80	0	3.2340	0	34.3230	0	27.329	0	903.088	0	-1e10	8	-1e10	8	-1E+10	1	-1E+10	1	-1E+10	1	-1E+10	1	-1E+10	1	-1E+10	1
4902554	61	C	10/13/2022	14:10	-133.550	48.792	0	917.60	0	3.2180	0	34.3260	0	27.333	0	907.827	0	-1e10	8	-1e10	8	-1E+10	1	-1E+10	1	-1E+10	1	-1E+10	1	-1E+10	1	-1E+10	1
4902554	61	C	10/13/2022	14:10	-133.550	48.792	0	922.90	0	3.2110	0	34.3280	0	27.335	0	913.059	0	-1e10	8	-1e10	8	-1E+10	1	-1E+10	1	-1E+10	1	-1E+10	1	-1E+10	1	-1E+10	1
4902554	61	C	10/13/2022	14:10	-133.550	48.792	0	928.20	0	3.1840	0	34.3330	0	27.342	0	918.291	0	-1e10	8	-1e10	8	-1E+10	1	-1E+10	1	-1E+10	1	-1E+10	1	-1E+10	1	-1E+10	1
4902554	61	C	10/13/2022	14:10	-133.550	48.792	0	933.10	0	3.1770	0	34.3350	0	27.344	0	923.128	0	-1e10	8	-1e10	8	-1E+10	1	-1E+10	1	-1E+10	1	-1E+10	1	-1E+10	1	-1E+10	1
4902554	61	C	10/13/2022	14:10	-133.550	48.792	0	938.00	0	3.1710	0	34.3370	0	27.346	0	927.964	0	-1e10	8	-1e10	8	-1E+10	1	-1E+10	1	-1E+10	1	-1E+10	1	-1E+10	1	-1E+10	1
4902554	61	C	10/13/2022	14:10	-133.550	48.792	0	943.00	0	3.1600	0	34.3390	0	27.349	0	932.900	0	-1e10	8	-1e10	8	-1E+10	1	-1E+10	1	-1E+10	1	-1E+10	1	-1E+10	1	-1E+10	1
4902554	61	C	10/13/2022	14:10	-133.550	48.792	0	948.00	0	3.1500	0	34.3410	0	27.351	0	937.835	0	-1e10	8	-1e10	8	-1E+10	1	-1E+10	1	-1E+10	1	-1E+10	1	-1E+10	1	-1E+10	1
4902554	61	C	10/13/2022	14:10	-133.550	48.792	0	953.10	0	3.1490	0	34.3410	0	27.351	0	942.869	0	-1e10	8	-1e10	8	-1E+10	1	-1E+10	1	-1E+10	1	-1E+10	1	-1E+10	1	-1E+10	1
4902554	61	C	10/13/2022	14:10	-133.550	48.792	0	958.20	0	3.1430	0	34.3430	0	27.354	0	947.902	0	-1e10	8	-1e10	8	-1E+10	1	-1E+10	1	-1E+10	1	-1E+10	1	-1E+10	1	-1E+10	1
4902554	61	C	10/13/2022	14:10	-133.550	48.792	0	963.20	0	3.1380	0	34.3440	0	27.355	0	952.837	0	-1e10	8	-1e10	8	-1E+10	1	-1E+10	1	-1E+10	1	-1E+10	1	-1E+10	1	-1E+10	1
4902554	61	C	10/13/2022	14:10	-133.550	48.792	0	968.20	0	3.1310	0	34.3450	0	27.356	0	957.772	0	-1e10	8	-1e10	8	-1E+10	1	-1E+10	1	-1E+10	1	-1E+10	1	-1E+10	1	-1E+10	1
4902554	61	C	10/13/2022	14:10	-133.550	48.792	0	973.10	0	3.1230	0	34.3470	0	27.359	0	962.608	0	-1e10	8	-1e10	8	-1E+10	1	-1E+10	1	-1E+10	1	-1E+10	1	-1E+10	1	-1E+10	1
4902554	61	C	10/13/2022	14:10	-133.550	48.792	0	978.00	0	3.1170	0	34.3480	0	27.360	0	967.444	0	-1e10	8	-1e10	8	-1E+10	1	-1E+10	1	-1E+10	1	-1E+10	1	-1E+10	1	-1E+10	1
4902554	61	C	10/13/2022	14:10	-133.550	48.792	0	983.00	0	3.1100	0	34.3500	0	27.362	0	972.378	0	-1e10	8	-1e10	8	-1E+10	1	-1E+10	1	-1E+10	1	-1E+10	1	-1E+10	1	-1E+10	1
4902554	61	C	10/13/2022	14:10	-133.550	48.792	0	988.00	0	3.1060	0	34.3510	0	27.364	0	977.313	0	-1e10	8	-1e10	8	-1E+10	1	-1E+10	1	-1E+10	1	-1E+10	1	-1E+10	1	-1E+10	1
4902554	61	C	10/13/2022	14:10	-133.550	48.792	0	992.90	0	3.1020	0	34.3510	0	27.364	0	982.148	0	-1e10	8	-1e10	8	-1E+10	1	-1E+10	1	-1E+10	1	-1E+10	1	-1E+10	1	-1E+10	1
4902554	61	C	10/13/2022	14:10	-133.550	48.792	0	998.10	0	3.0830	0	34.3560	0	27.370	0	987.280	0	-1e10	8	-1e10	8	-1E+10	1	-1E+10	1	-1E+10	1	-1E+10	1	-1E+10	1	-1E+10	1
4902554	61	C	10/13/2022	14:10	-133.550	48.792	0	1005.40	0	3.0670	0	34.3590	0	27.374	0	994.483	0	-1e10	8	-1e10	8	-1E+10	1	-1E+10	1	-1E+10	1	-1E+10	1	-1E+10	1	-1E+10	1
4902554	61	C	10/13/2022	14:10	-133.550	48.792	0	1015.20	0	3.0450	0	34.3640	0	27.380	0	1004.153	0	-1e10	8	-1e10	8	-1E+10	1	-1E+10	1	-1E+10	1	-1E+10	1	-1E+10	1	-1E+10	1
4902554	61	C	10/13/2022	14:10	-133.550	48.792	0	1025.20	0	3.0170	0	34.3700	0	27.387	0	1014.020	0	-1e10	8	-1e10	8	-1E+10	1	-1E+10	1	-1E+10	1	-1E+10	1	-1E+10	1	-1E+10	1
4902554	61	C	10/13/2022	14:10	-133.550	48.792	0	1035.40	0	3.0000	0	34.3750	0	27.393	0	1024.084	0	-1e10	8	-1e10	8	-1E+10	1	-1E+10	1	-1E+10	1	-1E+10	1	-1E+10	1	-1E+10	1
4902554	61	C	10/13/2022	14:10	-133.550	48.792	0	1045.60	0	2.9770	0	34.3800	0	27.399	0	1034.148	0	-1e10	8	-1e10	8	-1E+10	1	-1E+10	1	-1E+10	1	-1E+10	1	-1E+10	1	-1E+10	1
4902554	61	C	10/13/2022	14:10	-133.550	48.792	0	1055.60	0	2.9570	0	34.3850	0	27.405	0	1044.013	0	-1e10	8	-1e10	8	-1E+10	1	-1E+10	1	-1E+10	1	-1E+10	1	-1E+10	1	-1E+10	1
4902554	61	C	10/13/2022	14:10	-133.550	48.792	0	1065.30	0	2.9310	0	34.3900	0	27.411	0	1053.582	0	-1e10	8	-1e10	8	-1E+10	1	-1E+10	1	-1E+10	1	-1E+10	1	-1E+10	1	-1E+10	1
4902554	61	C	10/13/2022	14:10	-133.550	48.792	0	1075.40	0	2.9140	0	34.3940	0	27.416	0	1063.546	0	-1e10	8	-1e10	8	-1E+10	1	-1E+10	1	-1E+10	1	-1E+10	1	-1E+10	1	-1E+10	1
4902554	61	C	10/13/2022	14:10	-133.550	48.792	0	1085.40	0	2.9120	0	34.3950	0	27.417	0	1073.410	0	-1e10	8	-1e10	8	-1E+10	1	-1E+10	1	-1E+10	1	-1E+10	1	-1E+10	1	-1E+10	1
4902554	61	C	10/13/2022	14:10	-133.550	48.792	0	1095.40	0	2.9050	0	34.3960	0	27.418	0	1083.274	0	-1e10	8	-1e10	8	-1E+10	1	-1E+10	1	-1E+10	1	-1E+10	1	-1E+10	1	-1E+10	1
4902554	61	C	10/13/2022	14:10	-133.550	48.792	0	1105.50	0	2.8950	0	34.3980	0	27.421	0	1093.236	0	-1e10	8	-1e10	8	-1E+10	1	-1E+10	1	-1E+10	1	-1E+10	1	-1E+10	1	-1E+10	1
4902554	61	C	10/13/2022	14:10	-133.550	48.792	0	1115.60	0	2.8630	0	34.4040	0	27.428	0	1103.197	0	-1e10	8	-1e10	8	-1E+10	1	-1E+10	1	-1E+10	1	-1E+10	1	-1E+10	1	-1E+10	1
4902554	61	C	10/13/2022	14:10	-133.550	48.792	0	1125.40	0	2.8530	0	34.4060	0	27.431	0	1112.862	0	-1e10	8	-1e10	8	-1E+10	1	-1E+10	1	-1E+10	1	-1E+10	1	-1E+10	1	-1E+10	1
4902554	61	C	10/13/2022	14:10	-133.550	48.792	0	1135.30	0	2.8480	0	34.4070	0	27.432	0	1122.625	0	-1e10	8	-1e10	8	-1E+10	1	-1E+10	1	-1E+10	1	-1E+10	1	-1E+10	1	-1E+10	1
4902554	61	C	10/13/2022	14:10	-133.550	48.792	0	1145.60	0	2.8430	0	34.4080	0	27.434	0	1132.783	0	-1e10	8	-1e10	8	-1E+10	1	-1E+10	1	-1E+10	1	-1E+10	1	-1E+10	1	-1E+10	1
4902554	61	C	10/13/2022	14:10	-133.550	48.792	0	1155.40	0	2.8300	0	34.4100	0	27.436	0	1142.446	0	-1e10	8	-1e10	8	-1E+10	1	-1E+10	1	-1E+10	1	-1E+10	1	-1E+10	1	-1E+10	1
4902554	61	C	10/13/2022	14:10	-133.550	48.792	0	1165.20	0	2.8180	0	34.4130	0	27.440	0	1152.110	0	-1e10	8	-1e10	8	-1E+10	1	-1E+10	1	-1E+10	1	-1E+10	1	-1E+10	1	-1E+10	1
4902554	61	C	10/13/2022	14:10	-133.550	48.792	0	1175.50	0	2.8080	0	34.4150	0	27.442	0	1162.265	0	-1e10	8	-1e10	8	-1E+10	1	-1E+10	1	-1E+10	1	-1E+10	1	-1E+10	1	-1E+10	1
4902554	61	C	10/13/2022	14:10	-133.550	48.792	0	1185.60	0	2.7990	0	34.4170	0	27.445	0	1172.224	0	-1e10	8	-1e10	8	-1E+10	1	-1E+10	1	-1E+10	1	-1E+10	1	-1E+10	1	-1E+10	1
4902554	61	C	10/13/2022	14:10	-133.550	48.792	0	1195.20	0	2.7870	0	34.4200	0	27.448	0	1181.688	0	-1e10	8	-1e10	8	-1E+10	1	-1E+10	1	-1E+10	1	-1E+10	1	-1E+10	1	-1E+10	1
4902554	61	C	10/13/2022	14:10	-133.550	48.792	0	1205.10	0	2.7700	0	34.4230	0	27.452	0	1191.448	0	-1e10	8	-1e10	8	-1E+10	1	-1E+10	1	-1E+10	1	-1E+10	1	-1E+10	1	-1E+10	1
4902554	61	C	10/13/2022	14:10	-133.550	48.792	0	1215.30	0	2.7560	0	34.4260	0	27.456	0	1201.504	0	-1e10	8	-1e10	8	-1E+10	1	-1E+10	1	-1E+10	1	-1E+10	1	-1E+10	1	-1E+10	1
4902554	61	C	10/13/2022	14:10	-133.550	48.792	0	1225.30	0	2.7540	0	34.4270	0	27.457	0	1211.361	0	-1e10	8	-1e10	8	-1E+10	1	-1E+10	1	-1E+10	1	-1E+10	1	-1E+10	1	-1E+10	1
4902554	61	C	10/13/2022	14:10	-133.550	48.792	0	1235.30	0	2.7480	0	34.4280	0	27.458	0	1221.219	0	-1e10	8	-1e10	8	-1E+10	1	-1E+10	1	-1E+10	1	-1E+10	1	-1E+10	1	-1E+10	1
4902554	61	C	10/13/2022	14:10	-133.550	48.792	0	1245.40	0	2.7440	0	34.4290	0	27.460	0	1231.174	0	-1e10	8	-1e10	8	-1E+10	1	-1E+10	1	-1E+10	1	-1E+10	1	-1E+10	1	-1E+10	1
4902554	61	C	10/13/2022	14:10	-133.550	48.792	0	1255.40	0	2.7350	0	34.4310	0	27.462	0	1241.030	0	-1e10	8	-1e10	8	-1E+10	1	-1E+10	1	-1E+10	1	-1E+10	1	-1E+10	1	-1E+10	1
4902554	61	C	10/13/2022	14:10	-133.550	48.792	0	1265.60	0	2.7140	0	34.4350	0	27.467	0	1251.083	0	-1e10	8	-1e10	8	-1E+10	1	-1E+10	1	-1E+10	1	-1E+10	1	-1E+10	1	-1E+10	1
4902554	61	C	10/13/2022	14:10	-133.550	48.792	0	1275.50	0	2.6950	0	34.4380	0	27.471	0	1260.840	0	-1e10	8	-1e10	8	-1E+10	1	-1E+10	1	-1E+10	1	-1E+10	1	-1E+10	1	-1E+10	1
4902554	61	C	10/13/2022	14:10	-133.550	48.792	0	1285.40	0	2.6880	0	34.4400	0	27.473	0	1270.596	0	-1e10	8	-1e10	8	-1E+10	1	-1E+10	1	-1E+10	1	-1E+10	1	-1E+10	1	-1E+10	1
4902554	61	C	10/13/2022	14:10	-133.550	48.792	0	1295.50	0	2.6760	0	34.4420	0	27.476	0	1280.549	0	-1e10	8	-1e10	8	-1E+10	1	-1E+10	1	-1E+10	1	-1E+10	1	-1E+10	1	-1E+10	1
4902554	61	C	10/13/2022	14:10	-133.550	48.792	0	1305.60	0	2.6420	0	34.4490	0	27.485	0	1290.502	0	-1e10	8	-1e10	8	-1E+10	1	-1E+10	1	-1E+10	1	-1E+10	1	-1E+10	1	-1E+10	1
4902554	61	C	10/13/2022	14:10	-133.550	48.792	0	1315.70	0	2.6250	0	34.4530	0	27.489	0	1300.454	0	-1e10	8	-1e10	8	-1E+10	1	-1E+10	1	-1E+10	1	-1E+10	1	-1E+10	1	-1E+10	1
4902554	61	C	10/13/2022	14:10	-133.550	48.792	0	1325.30	0	2.5960	0	34.4590	0	27.497	0	1309.913	0	-1e10	8	-1e10	8	-1E+10	1	-1E+10	1	-1E+10	1	-1E+10	1	-1E+10	1	-1E+10	1
4902554	61	C	10/13/2022	14:10	-133.550	48.792	0	1335.40	0	2.5880	0	34.4610	0	27.499	0	1319.864	0	-1e10	8	-1e10	8	-1E+10	1	-1E+10	1	-1E+10	1	-1E+10	1	-1E+10	1	-1E+10	1
4902554	61	C	10/13/2022	14:10	-133.550	48.792	0	1345.20	0	2.5800	0	34.4630	0	27.501	0	1329.519	0	-1e10	8	-1e10	8	-1E+10	1	-1E+10	1	-1E+10	1	-1E+10	1	-1E+10	1	-1E+10	1
4902554	61	C	10/13/2022	14:10	-133.550	48.792	0	1355.10	0	2.5640	0	34.4650	0	27.504	0	1339.272	0	-1e10	8	-1e10	8	-1E+10	1	-1E+10	1	-1E+10	1	-1E+10	1	-1E+10	1	-1E+10	1
4902554	61	C	10/13/2022	14:10	-133.550	48.792	0	1365.30	0	2.5520	0	34.4670	0	27.507	0	1349.321	0	-1e10	8	-1e10	8	-1E+10	1	-1E+10	1	-1E+10	1	-1E+10	1	-1E+10	1	-1E+10	1
4902554	61	C	10/13/2022	14:10	-133.550	48.792	0	1375.40	0	2.5350	0	34.4710	0	27.512	0	1359.270	0	-1e10	8	-1e10	8	-1E+10	1	-1E+10	1	-1E+10	1	-1E+10	1	-1E+10	1	-1E+10	1
4902554	61	C	10/13/2022	14:10	-133.550	48.792	0	1385.30	0	2.5100	0	34.4750	0	27.517	0	1369.022	0	-1e10	8	-1e10	8	-1E+10	1	-1E+10	1	-1E+10	1	-1E+10	1	-1E+10	1	-1E+10	1
4902554	61	C	10/13/2022	14:10	-133.550	48.792	0	1395.40	0	2.4900	0	34.4790	0	27.522	0	1378.970	0	-1e10	8	-1e10	8	-1E+10	1	-1E+10	1	-1E+10	1	-1E+10	1	-1E+10	1	-1E+10	1
4902554	61	C	10/13/2022	14:10	-133.550	48.792	0	1405.50	0	2.4770	0	34.4820	0	27.526	0	1388.918	0	-1e10	8	-1e10	8	-1E+10	1	-1E+10	1	-1E+10	1	-1E+10	1	-1E+10	1	-1E+10	1
4902554	61	C	10/13/2022	14:10	-133.550	48.792	0	1415.60	0	2.4680	0	34.4840	0	27.528	0	1398.865	0	-1e10	8	-1e10	8	-1E+10	1	-1E+10	1	-1E+10	1	-1E+10	1	-1E+10	1	-1E+10	1
4902554	61	C	10/13/2022	14:10	-133.550	48.792	0	1425.60	0	2.4540	0	34.4860	0	27.531	0	1408.714	0	-1e10	8	-1e10	8	-1E+10	1	-1E+10	1	-1E+10	1	-1E+10	1	-1E+10	1	-1E+10	1
4902554	61	C	10/13/2022	14:10	-133.550	48.792	0	1435.60	0	2.4360	0	34.4900	0	27.536	0	1418.562	0	-1e10	8	-1e10	8	-1E+10	1	-1E+10	1	-1E+10	1	-1E+10	1	-1E+10	1	-1E+10	1
4902554	61	C	10/13/2022	14:10	-133.550	48.792	0	1445.60	0	2.4150	0	34.4930	0	27.540	0	1428.409	0	-1e10	8	-1e10	8	-1E+10	1	-1E+10	1	-1E+10	1	-1E+10	1	-1E+10	1	-1E+10	1
4902554	61	C	10/13/2022	14:10	-133.550	48.792	0	1455.60	0	2.3950	0	34.4960	0	27.544	0	1438.256	0	-1e10	8	-1e10	8	-1E+10	1	-1E+10	1	-1E+10	1	-1E+10	1	-1E+10	1	-1E+10	1
4902554	61	C	10/13/2022	14:10	-133.550	48.792	0	1465.40	0	2.3790	0	34.4990	0	27.548	0	1447.906	0	-1e10	8	-1e10	8	-1E+10	1	-1E+10	1	-1E+10	1	-1E+10	1	-1E+10	1	-1E+10	1
4902554	61	C	10/13/2022	14:10	-133.550	48.792	0	1475.40	0	2.3620	0	34.5030	0	27.552	0	1457.752	0	-1e10	8	-1e10	8	-1E+10	1	-1E+10	1	-1E+10	1	-1E+10	1	-1E+10	1	-1E+10	1
4902554	61	C	10/13/2022	14:10	-133.550	48.792	0	1485.50	0	2.3560	0	34.5040	0	27.554	0	1467.696	0	-1e10	8	-1e10	8	-1E+10	1	-1E+10	1	-1E+10	1	-1E+10	1	-1E+10	1	-1E+10	1
4902554	61	C	10/13/2022	14:10	-133.550	48.792	0	1495.70	0	2.3530	0	34.5040	0	27.554	0	1477.738	0	-1e10	8	-1e10	8	-1E+10	1	-1E+10	1	-1E+10	1	-1E+10	1	-1E+10	1	-1E+10	1
4902554	61	C	10/13/2022	14:10	-133.550	48.792	0	1505.70	0	2.3360	0	34.5070	0	27.558	0	1487.583	0	-1e10	8	-1e10	8	-1E+10	1	-1E+10	1	-1E+10	1	-1E+10	1	-1E+10	1	-1E+10	1
4902554	61	C	10/13/2022	14:10	-133.550	48.792	0	1515.50	0	2.3110	0	34.5120	0	27.564	0	1497.230	0	-1e10	8	-1e10	8	-1E+10	1	-1E+10	1	-1E+10	1	-1E+10	1	-1E+10	1	-1E+10	1
4902554	61	C	10/13/2022	14:10	-133.550	48.792	0	1525.30	0	2.2970	0	34.5150	0	27.567	0	1506.877	0	-1e10	8	-1e10	8	-1E+10	1	-1E+10	1	-1E+10	1	-1E+10	1	-1E+10	1	-1E+10	1
4902554	61	C	10/13/2022	14:10	-133.550	48.792	0	1535.30	0	2.2800	0	34.5180	0	27.571	0	1516.721	0	-1e10	8	-1e10	8	-1E+10	1	-1E+10	1	-1E+10	1	-1E+10	1	-1E+10	1	-1E+10	1
4902554	61	C	10/13/2022	14:10	-133.550	48.792	0	1545.20	0	2.2780	0	34.5190	0	27.572	0	1526.465	0	-1e10	8	-1e10	8	-1E+10	1	-1E+10	1	-1E+10	1	-1E+10	1	-1E+10	1	-1E+10	1
4902554	61	C	10/13/2022	14:10	-133.550	48.792	0	1555.60	0	2.2650	0	34.5210	0	27.575	0	1536.701	0	-1e10	8	-1e10	8	-1E+10	1	-1E+10	1	-1E+10	1	-1E+10	1	-1E+10	1	-1E+10	1
4902554	61	C	10/13/2022	14:10	-133.550	48.792	0	1565.30	0	2.2430	0	34.5250	0	27.580	0	1546.248	0	-1e10	8	-1e10	8	-1E+10	1	-1E+10	1	-1E+10	1	-1E+10	1	-1E+10	1	-1E+10	1
4902554	61	C	10/13/2022	14:10	-133.550	48.792	0	1575.40	0	2.2270	0	34.5280	0	27.584	0	1556.188	0	-1e10	8	-1e10	8	-1E+10	1	-1E+10	1	-1E+10	1	-1E+10	1	-1E+10	1	-1E+10	1
4902554	61	C	10/13/2022	14:10	-133.550	48.792	0	1585.80	0	2.1930	0	34.5350	0	27.592	0	1566.423	0	-1e10	8	-1e10	8	-1E+10	1	-1E+10	1	-1E+10	1	-1E+10	1	-1E+10	1	-1E+10	1
4902554	61	C	10/13/2022	14:10	-133.550	48.792	0	1595.40	0	2.1830	0	34.5370	0	27.595	0	1575.870	0	-1e10	8	-1e10	8	-1E+10	1	-1E+10	1	-1E+10	1	-1E+10	1	-1E+10	1	-1E+10	1
4902554	61	C	10/13/2022	14:10	-133.550	48.792	0	1605.20	0	2.1760	0	34.5380	0	27.596	0	1585.513	0	-1e10	8	-1e10	8	-1E+10	1	-1E+10	1	-1E+10	1	-1E+10	1	-1E+10	1	-1E+10	1
4902554	61	C	10/13/2022	14:10	-133.550	48.792	0	1615.60	0	2.1640	0	34.5400	0	27.599	0	1595.746	0	-1e10	8	-1e10	8	-1E+10	1	-1E+10	1	-1E+10	1	-1E+10	1	-1E+10	1	-1E+10	1
4902554	61	C	10/13/2022	14:10	-133.550	48.792	0	1625.80	0	2.1520	0	34.5420	0	27.601	0	1605.782	0	-1e10	8	-1e10	8	-1E+10	1	-1E+10	1	-1E+10	1	-1E+10	1	-1E+10	1	-1E+10	1
4902554	61	C	10/13/2022	14:10	-133.550	48.792	0	1635.40	0	2.1320	0	34.5460	0	27.606	0	1615.227	0	-1e10	8	-1e10	8	-1E+10	1	-1E+10	1	-1E+10	1	-1E+10	1	-1E+10	1	-1E+10	1
4902554	61	C	10/13/2022	14:10	-133.550	48.792	0	1645.30	0	2.1260	0	34.5470	0	27.607	0	1624.967	0	-1e10	8	-1e10	8	-1E+10	1	-1E+10	1	-1E+10	1	-1E+10	1	-1E+10	1	-1E+10	1
4902554	61	C	10/13/2022	14:10	-133.550	48.792	0	1655.20	0	2.1190	0	34.5490	0	27.610	0	1634.707	0	-1e10	8	-1e10	8	-1E+10	1	-1E+10	1	-1E+10	1	-1E+10	1	-1E+10	1	-1E+10	1
4902554	61	C	10/13/2022	14:10	-133.550	48.792	0	1665.80	0	2.1220	0	34.5480	0	27.609	0	1645.135	0	-1e10	8	-1e10	8	-1E+10	1	-1E+10	1	-1E+10	1	-1E+10	1	-1E+10	1	-1E+10	1
4902554	61	C	10/13/2022	14:10	-133.550	48.792	0	1675.60	0	2.1130	0	34.5500	0	27.611	0	1654.775	0	-1e10	8	-1e10	8	-1E+10	1	-1E+10	1	-1E+10	1	-1E+10	1	-1E+10	1	-1E+10	1
4902554	61	C	10/13/2022	14:10	-133.550	48.792	0	1685.30	0	2.1090	0	34.5510	0	27.612	0	1664.316	0	-1e10	8	-1e10	8	-1E+10	1	-1E+10	1	-1E+10	1	-1E+10	1	-1E+10	1	-1E+10	1
4902554	61	C	10/13/2022	14:10	-133.550	48.792	0	1695.50	0	2.1070	0	34.5520	0	27.613	0	1674.349	0	-1e10	8	-1e10	8	-1E+10	1	-1E+10	1	-1E+10	1	-1E+10	1	-1E+10	1	-1E+10	1
4902554	61	C	10/13/2022	14:10	-133.550	48.792	0	1705.30	0	2.0950	0	34.5540	0	27.616	0	1683.988	0	-1e10	8	-1e10	8	-1E+10	1	-1E+10	1	-1E+10	1	-1E+10	1	-1E+10	1	-1E+10	1
4902554	61	C	10/13/2022	14:10	-133.550	48.792	0	1715.80	0	2.0810	0	34.5570	0	27.619	0	1694.315	0	-1e10	8	-1e10	8	-1E+10	1	-1E+10	1	-1E+10	1	-1E+10	1	-1E+10	1	-1E+10	1
4902554	61	C	10/13/2022	14:10	-133.550	48.792	0	1725.50	0	2.0880	0	34.5560	0	27.618	0	1703.854	0	-1e10	8	-1e10	8	-1E+10	1	-1E+10	1	-1E+10	1	-1E+10	1	-1E+10	1	-1E+10	1
4902554	61	C	10/13/2022	14:10	-133.550	48.792	0	1735.00	0	2.0950	0	34.5550	0	27.617	0	1713.197	0	-1e10	8	-1e10	8	-1E+10	1	-1E+10	1	-1E+10	1	-1E+10	1	-1E+10	1	-1E+10	1
4902554	61	C	10/13/2022	14:10	-133.550	48.792	0	1745.40	0	2.0910	0	34.5550	0	27.617	0	1723.424	0	-1e10	8	-1e10	8	-1E+10	1	-1E+10	1	-1E+10	1	-1E+10	1	-1E+10	1	-1E+10	1
4902554	61	C	10/13/2022	14:10	-133.550	48.792	0	1755.80	0	2.0930	0	34.5550	0	27.617	0	1733.650	0	-1e10	8	-1e10	8	-1E+10	1	-1E+10	1	-1E+10	1	-1E+10	1	-1E+10	1	-1E+10	1
4902554	61	C	10/13/2022	14:10	-133.550	48.792	0	1765.90	0	2.0840	0	34.5570	0	27.619	0	1743.581	0	-1e10	8	-1e10	8	-1E+10	1	-1E+10	1	-1E+10	1	-1E+10	1	-1E+10	1	-1E+10	1
4902554	61	C	10/13/2022	14:10	-133.550	48.792	0	1775.60	0	2.0760	0	34.5590	0	27.622	0	1753.119	0	-1e10	8	-1e10	8	-1E+10	1	-1E+10	1	-1E+10	1	-1E+10	1	-1E+10	1	-1E+10	1
4902554	61	C	10/13/2022	14:10	-133.550	48.792	0	1785.60	0	2.0710	0	34.5600	0	27.623	0	1762.951	0	-1e10	8	-1e10	8	-1E+10	1	-1E+10	1	-1E+10	1	-1E+10	1	-1E+10	1	-1E+10	1
4902554	61	C	10/13/2022	14:10	-133.550	48.792	0	1795.70	0	2.0610	0	34.5610	0	27.625	0	1772.880	0	-1e10	8	-1e10	8	-1E+10	1	-1E+10	1	-1E+10	1	-1E+10	1	-1E+10	1	-1E+10	1
4902554	61	C	10/13/2022	14:10	-133.550	48.792	0	1805.70	0	2.0570	0	34.5620	0	27.626	0	1782.711	0	-1e10	8	-1e10	8	-1E+10	1	-1E+10	1	-1E+10	1	-1E+10	1	-1E+10	1	-1E+10	1
4902554	61	C	10/13/2022	14:10	-133.550	48.792	0	1815.60	0	2.0380	0	34.5660	0	27.631	0	1792.444	0	-1e10	8	-1e10	8	-1E+10	1	-1E+10	1	-1E+10	1	-1E+10	1	-1E+10	1	-1E+10	1
4902554	61	C	10/13/2022	14:10	-133.550	48.792	0	1825.60	0	2.0190	0	34.5690	0	27.634	0	1802.274	0	-1e10	8	-1e10	8	-1E+10	1	-1E+10	1	-1E+10	1	-1E+10	1	-1E+10	1	-1E+10	1
4902554	61	C	10/13/2022	14:10	-133.550	48.792	0	1835.30	0	2.0170	0	34.5700	0	27.635	0	1811.809	0	-1e10	8	-1e10	8	-1E+10	1	-1E+10	1	-1E+10	1	-1E+10	1	-1E+10	1	-1E+10	1
4902554	61	C	10/13/2022	14:10	-133.550	48.792	0	1845.20	0	2.0110	0	34.5710	0	27.637	0	1821.539	0	-1e10	8	-1e10	8	-1E+10	1	-1E+10	1	-1E+10	1	-1E+10	1	-1E+10	1	-1E+10	1
4902554	61	C	10/13/2022	14:10	-133.550	48.792	0	1855.40	0	2.0040	0	34.5730	0	27.639	0	1831.565	0	-1e10	8	-1e10	8	-1E+10	1	-1E+10	1	-1E+10	1	-1E+10	1	-1E+10	1	-1E+10	1
4902554	61	C	10/13/2022	14:10	-133.550	48.792	0	1865.40	0	2.0040	0	34.5730	0	27.639	0	1841.393	0	-1e10	8	-1e10	8	-1E+10	1	-1E+10	1	-1E+10	1	-1E+10	1	-1E+10	1	-1E+10	1
4902554	61	C	10/13/2022	14:10	-133.550	48.792	0	1875.50	0	2.0030	0	34.5730	0	27.639	0	1851.319	0	-1e10	8	-1e10	8	-1E+10	1	-1E+10	1	-1E+10	1	-1E+10	1	-1E+10	1	-1E+10	1
4902554	61	C	10/13/2022	14:10	-133.550	48.792	0	1885.80	0	2.0030	0	34.5730	0	27.639	0	1861.441	0	-1e10	8	-1e10	8	-1E+10	1	-1E+10	1	-1E+10	1	-1E+10	1	-1E+10	1	-1E+10	1
4902554	61	C	10/13/2022	14:10	-133.550	48.792	0	1895.90	0	2.0040	0	34.5730	0	27.639	0	1871.366	0	-1e10	8	-1e10	8	-1E+10	1	-1E+10	1	-1E+10	1	-1E+10	1	-1E+10	1	-1E+10	1
4902554	61	C	10/13/2022	14:10	-133.550	48.792	0	1905.50	0	1.9940	0	34.5750	0	27.642	0	1880.800	0	-1e10	8	-1e10	8	-1E+10	1	-1E+10	1	-1E+10	1	-1E+10	1	-1E+10	1	-1E+10	1
4902554	61	C	10/13/2022	14:10	-133.550	48.792	0	1915.10	0	1.9710	0	34.5790	0	27.647	0	1890.233	0	-1e10	8	-1e10	8	-1E+10	1	-1E+10	1	-1E+10	1	-1E+10	1	-1E+10	1	-1E+10	1
4902554	61	C	10/13/2022	14:10	-133.550	48.792	0	1925.30	0	1.9720	0	34.5790	0	27.647	0	1900.255	0	-1e10	8	-1e10	8	-1E+10	1	-1E+10	1	-1E+10	1	-1E+10	1	-1E+10	1	-1E+10	1
4902554	61	C	10/13/2022	14:10	-133.550	48.792	0	1935.20	0	1.9660	0	34.5810	0	27.649	0	1909.982	0	-1e10	8	-1e10	8	-1E+10	1	-1E+10	1	-1E+10	1	-1E+10	1	-1E+10	1	-1E+10	1
4902554	61	C	10/13/2022	14:10	-133.550	48.792	0	1945.30	0	1.9660	0	34.5810	0	27.649	0	1919.904	0	-1e10	8	-1e10	8	-1E+10	1	-1E+10	1	-1E+10	1	-1E+10	1	-1E+10	1	-1E+10	1
4902554	61	C	10/13/2022	14:10	-133.550	48.792	0	1955.20	0	1.9680	0	34.5810	0	27.649	0	1929.630	0	-1e10	8	-1e10	8	-1E+10	1	-1E+10	1	-1E+10	1	-1E+10	1	-1E+10	1	-1E+10	1
4902554	61	C	10/13/2022	14:10	-133.550	48.792	0	1965.10	0	1.9680	0	34.5810	0	27.649	0	1939.356	0	-1e10	8	-1e10	8	-1E+10	1	-1E+10	1	-1E+10	1	-1E+10	1	-1E+10	1	-1E+10	1
4902554	61	C	10/13/2022	14:10	-133.550	48.792	0	1975.00	0	1.9690	0	34.5810	0	27.649	0	1949.081	0	-1e10	8	-1e10	8	-1E+10	1	-1E+10	1	-1E+10	1	-1E+10	1	-1E+10	1	-1E+10	1
4902554	61	C	10/13/2022	14:10	-133.550	48.792	0	1984.80	0	1.9710	0	34.5810	0	27.649	0	1958.707	0	-1e10	8	-1e10	8	-1E+10	1	-1E+10	1	-1E+10	1	-1E+10	1	-1E+10	1	-1E+10	1
4902554	61	C	10/13/2022	14:10	-133.550	48.792	0	1995.20	0	1.9720	0	34.5810	0	27.649	0	1968.922	0	-1e10	8	-1e10	8	-1E+10	1	-1E+10	1	-1E+10	1	-1E+10	1	-1E+10	1	-1E+10	1
4902554	61	C	10/13/2022	14:10	-133.550	48.792	0	2005.40	0	1.9720	0	34.5810	0	27.649	0	1978.941	0	-1e10	8	-1e10	8	-1E+10	1	-1E+10	1	-1E+10	1	-1E+10	1	-1E+10	1	-1E+10	1
4902554	61	C	10/13/2022	14:10	-133.550	48.792	0	2015.50	0	1.9700	0	34.5810	0	27.649	0	1988.861	0	-1e10	8	-1e10	8	-1E+10	1	-1E+10	1	-1E+10	1	-1E+10	1	-1E+10	1	-1E+10	1
4902554	61	C	10/13/2022	14:10	-133.550	48.792	0	2026.60	0	1.9680	0	34.5820	0	27.650	0	1999.762	0	-1e10	8	-1e10	8	-1E+10	1	-1E+10	1	-1E+10	1	-1E+10	1	-1E+10	1	-1E+10	1
4902554	61	C	10/13/2022	14:10	-133.550	48.792	0																										
4902554	62	C	10/23/2022	19:07	-133.705	48.749	0	0.20	0	15.9370	0	32.1950	0	23.606	0	0.198	0	-1e10	8	-1e10	8	-1E+10	1	-1E+10	1	-1E+10	1	-1E+10	1	-1E+10	1	-1E+10	1
4902554	62	C	10/23/2022	19:07	-133.705	48.749	0	0.40	0	15.9460	0	32.1970	0	23.606	0	0.397	0	-1e10	8	-1e10	8	-1E+10	1	-1E+10	1	-1E+10	1	-1E+10	1	-1E+10	1	-1E+10	1
4902554	62	C	10/23/2022	19:07	-133.705	48.749	0	1.00	0	15.9470	0	32.1920	0	23.601	0	0.992	0	-1e10	8	-1e10	8	-1E+10	1	-1E+10	1	-1E+10	1	-1E+10	1	-1E+10	1	-1E+10	1
4902554	62	C	10/23/2022	19:07	-133.705	48.749	0	2.10	0	15.9470	0	32.1940	0	23.603	0	2.082	0	-1e10	8	-1e10	8	-1E+10	1	-1E+10	1	-1E+10	1	-1E+10	1	-1E+10	1	-1E+10	1
4902554	62	C	10/23/2022	19:07	-133.705	48.749	0	3.10	0	15.9480	0	32.1970	0	23.605	0	3.074	0	-1e10	8	-1e10	8	-1E+10	1	-1E+10	1	-1E+10	1	-1E+10	1	-1E+10	1	-1E+10	1
4902554	62	C	10/23/2022	19:07	-133.705	48.749	0	4.10	0	15.9470	0	32.1990	0	23.607	0	4.065	0	-1e10	8	-1e10	8	-1E+10	1	-1E+10	1	-1E+10	1	-1E+10	1	-1E+10	1	-1E+10	1
4902554	62	C	10/23/2022	19:07	-133.705	48.749	0	5.10	0	15.9480	0	32.1910	0	23.601	0	5.057	0	-1e10	8	-1e10	8	-1E+10	1	-1E+10	1	-1E+10	1	-1E+10	1	-1E+10	1	-1E+10	1
4902554	62	C	10/23/2022	19:07	-133.705	48.749	0	6.10	0	15.9480	0	32.1990	0	23.607	0	6.048	0	-1e10	8	-1e10	8	-1E+10	1	-1E+10	1	-1E+10	1	-1E+10	1	-1E+10	1	-1E+10	1
4902554	62	C	10/23/2022	19:07	-133.705	48.749	0	7.00	0	15.9490	0	32.1980	0	23.606	0	6.941	0	-1e10	8	-1e10	8	-1E+10	1	-1E+10	1	-1E+10	1	-1E+10	1	-1E+10	1	-1E+10	1
4902554	62	C	10/23/2022	19:07	-133.705	48.749	0	7.90	0	15.9490	0	32.1990	0	23.607	0	7.833	0	-1e10	8	-1e10	8	-1E+10	1	-1E+10	1	-1E+10	1	-1E+10	1	-1E+10	1	-1E+10	1
4902554	62	C	10/23/2022	19:07	-133.705	48.749	0	9.00	0	15.9500	0	32.1990	0	23.606	0	8.924	0	-1e10	8	-1e10	8	-1E+10	1	-1E+10	1	-1E+10	1	-1E+10	1	-1E+10	1	-1E+10	1
4902554	62	C	10/23/2022	19:07	-133.705	48.749	0	9.90	0	15.9500	0	32.2000	0	23.607	0	9.816	0	-1e10	8	-1e10	8	-1E+10	1	-1E+10	1	-1E+10	1	-1E+10	1	-1E+10	1	-1E+10	1
4902554	62	C	10/23/2022	19:07	-133.705	48.749	0	10.80	0	15.9510	0	32.1990	0	23.606	0	10.708	0	-1e10	8	-1e10	8	-1E+10	1	-1E+10	1	-1E+10	1	-1E+10	1	-1E+10	1	-1E+10	1
4902554	62	C	10/23/2022	19:07	-133.705	48.749	0	11.90	0	15.9490	0	32.2000	0	23.608	0	11.799	0	-1e10	8	-1e10	8	-1E+10	1	-1E+10	1	-1E+10	1	-1E+10	1	-1E+10	1	-1E+10	1
4902554	62	C	10/23/2022	19:07	-133.705	48.749	0	12.90	0	15.9500	0	32.2000	0	23.607	0	12.790	0	-1e10	8	-1e10	8	-1E+10	1	-1E+10	1	-1E+10	1	-1E+10	1	-1E+10	1	-1E+10	1
4902554	62	C	10/23/2022	19:07	-133.705	48.749	0	13.90	0	15.9510	0	32.2000	0	23.607	0	13.782	0	-1e10	8	-1e10	8	-1E+10	1	-1E+10	1	-1E+10	1	-1E+10	1	-1E+10	1	-1E+10	1
4902554	62	C	10/23/2022	19:07	-133.705	48.749	0	15.10	0	15.9490	0	32.2000	0	23.608	0	14.972	0	-1e10	8	-1e10	8	-1E+10	1	-1E+10	1	-1E+10	1	-1E+10	1	-1E+10	1	-1E+10	1
4902554	62	C	10/23/2022	19:07	-133.705	48.749	0	16.00	0	15.9480	0	32.2000	0	23.608	0	15.864	0	-1e10	8	-1e10	8	-1E+10	1	-1E+10	1	-1E+10	1	-1E+10	1	-1E+10	1	-1E+10	1
4902554	62	C	10/23/2022	19:07	-133.705	48.749	0	17.10	0	15.9460	0	32.2000	0	23.608	0	16.955	0	-1e10	8	-1e10	8	-1E+10	1	-1E+10	1	-1E+10	1	-1E+10	1	-1E+10	1	-1E+10	1
4902554	62	C	10/23/2022	19:07	-133.705	48.749	0	18.10	0	15.9470	0	32.2000	0	23.608	0	17.946	0	-1e10	8	-1e10	8	-1E+10	1	-1E+10	1	-1E+10	1	-1E+10	1	-1E+10	1	-1E+10	1
4902554	62	C	10/23/2022	19:07	-133.705	48.749	0	19.00	0	15.9470	0	32.2010	0	23.609	0	18.838	0	-1e10	8	-1e10	8	-1E+10	1	-1E+10	1	-1E+10	1	-1E+10	1	-1E+10	1	-1E+10	1
4902554	62	C	10/23/2022	19:07	-133.705	48.749	0	19.90	0	15.9490	0	32.2010	0	23.609	0	19.731	0	-1e10	8	-1e10	8	-1E+10	1	-1E+10	1	-1E+10	1	-1E+10	1	-1E+10	1	-1E+10	1
4902554	62	C	10/23/2022	19:07	-133.705	48.749	0	20.90	0	15.9510	0	32.2010	0	23.608	0	20.722	0	-1e10	8	-1e10	8	-1E+10	1	-1E+10	1	-1E+10	1	-1E+10	1	-1E+10	1	-1E+10	1
4902554	62	C	10/23/2022	19:07	-133.705	48.749	0	21.90	0	15.9500	0	32.2020	0	23.609	0	21.714	0	-1e10	8	-1e10	8	-1E+10	1	-1E+10	1	-1E+10	1	-1E+10	1	-1E+10	1	-1E+10	1
4902554	62	C	10/23/2022	19:07	-133.705	48.749	0	23.00	0	15.9510	0	32.2010	0	23.608	0	22.804	0	-1e10	8	-1e10	8	-1E+10	1	-1E+10	1	-1E+10	1	-1E+10	1	-1E+10	1	-1E+10	1
4902554	62	C	10/23/2022	19:07	-133.705	48.749	0	24.00	0	15.9510	0	32.2010	0	23.608	0	23.796	0	-1e10	8	-1e10	8	-1E+10	1	-1E+10	1	-1E+10	1	-1E+10	1	-1E+10	1	-1E+10	1
4902554	62	C	10/23/2022	19:07	-133.705	48.749	0	25.20	0	15.9410	0	32.2020	0	23.611	0	24.985	0	-1e10	8	-1e10	8	-1E+10	1	-1E+10	1	-1E+10	1	-1E+10	1	-1E+10	1	-1E+10	1
4902554	62	C	10/23/2022	19:07	-133.705	48.749	0	25.80	0	15.9410	0	32.2030	0	23.612	0	25.580	0	-1e10	8	-1e10	8	-1E+10	1	-1E+10	1	-1E+10	1	-1E+10	1	-1E+10	1	-1E+10	1
4902554	62	C	10/23/2022	19:07	-133.705	48.749	0	26.90	0	15.9420	0	32.2020	0	23.611	0	26.671	0	-1e10	8	-1e10	8	-1E+10	1	-1E+10	1	-1E+10	1	-1E+10	1	-1E+10	1	-1E+10	1
4902554	62	C	10/23/2022	19:07	-133.705	48.749	0	28.10	0	15.9410	0	32.2040	0	23.613	0	27.860	0	-1e10	8	-1e10	8	-1E+10	1	-1E+10	1	-1E+10	1	-1E+10	1	-1E+10	1	-1E+10	1
4902554	62	C	10/23/2022	19:07	-133.705	48.749	0	29.00	0	15.9440	0	32.2010	0	23.610	0	28.753	0	-1e10	8	-1e10	8	-1E+10	1	-1E+10	1	-1E+10	1	-1E+10	1	-1E+10	1	-1E+10	1
4902554	62	C	10/23/2022	19:07	-133.705	48.749	0	29.70	0	15.9410	0	32.2030	0	23.612	0	29.447	0	-1e10	8	-1e10	8	-1E+10	1	-1E+10	1	-1E+10	1	-1E+10	1	-1E+10	1	-1E+10	1
4902554	62	C	10/23/2022	19:07	-133.705	48.749	0	30.70	0	15.9380	0	32.2070	0	23.616	0	30.438	0	-1e10	8	-1e10	8	-1E+10	1	-1E+10	1	-1E+10	1	-1E+10	1	-1E+10	1	-1E+10	1
4902554	62	C	10/23/2022	19:07	-133.705	48.749	0	31.80	0	15.9410	0	32.2030	0	23.612	0	31.529	0	-1e10	8	-1e10	8	-1E+10	1	-1E+10	1	-1E+10	1	-1E+10	1	-1E+10	1	-1E+10	1
4902554	62	C	10/23/2022	19:07	-133.705	48.749	0	32.80	0	15.9290	0	32.2080	0	23.619	0	32.520	0	-1e10	8	-1e10	8	-1E+10	1	-1E+10	1	-1E+10	1	-1E+10	1	-1E+10	1	-1E+10	1
4902554	62	C	10/23/2022	19:07	-133.705	48.749	0	33.90	0	15.9300	0	32.2080	0	23.619	0	33.610	0	-1e10	8	-1e10	8	-1E+10	1	-1E+10	1	-1E+10	1	-1E+10	1	-1E+10	1	-1E+10	1
4902554	62	C	10/23/2022	19:07	-133.705	48.749	0	35.20	0	15.9370	0	32.2090	0	23.618	0	34.899	0	-1e10	8	-1e10	8	-1E+10	1	-1E+10	1	-1E+10	1	-1E+10	1	-1E+10	1	-1E+10	1
4902554	62	C	10/23/2022	19:07	-133.705	48.749	0	36.00	0	15.9280	0	32.2090	0	23.620	0	35.692	0	-1e10	8	-1e10	8	-1E+10	1	-1E+10	1	-1E+10	1	-1E+10	1	-1E+10	1	-1E+10	1
4902554	62	C	10/23/2022	19:07	-133.705	48.749	0	37.30	0	15.9210	0	32.2050	0	23.619	0	36.981	0	-1e10	8	-1e10	8	-1E+10	1	-1E+10	1	-1E+10	1	-1E+10	1	-1E+10	1	-1E+10	1
4902554	62	C	10/23/2022	19:07	-133.705	48.749	0	38.00	0	15.9030	0	32.2110	0	23.627	0	37.675	0	-1e10	8	-1e10	8	-1E+10	1	-1E+10	1	-1E+10	1	-1E+10	1	-1E+10	1	-1E+10	1
4902554	62	C	10/23/2022	19:07	-133.705	48.749	0	39.00	0	15.8830	0	32.2090	0	23.630	0	38.666	0	-1e10	8	-1e10	8	-1E+10	1	-1E+10	1	-1E+10	1	-1E+10	1	-1E+10	1	-1E+10	1
4902554	62	C	10/23/2022	19:07	-133.705	48.749	0	40.10	0	15.8580	0	32.2120	0	23.638	0	39.757	0	-1e10	8	-1e10	8	-1E+10	1	-1E+10	1	-1E+10	1	-1E+10	1	-1E+10	1	-1E+10	1
4902554	62	C	10/23/2022	19:07	-133.705	48.749	0	41.00	0	15.8010	0	32.2070	0	23.647	0	40.649	0	-1e10	8	-1e10	8	-1E+10	1	-1E+10	1	-1E+10	1	-1E+10	1	-1E+10	1	-1E+10	1
4902554	62	C	10/23/2022	19:07	-133.705	48.749	0	41.80	0	15.5770	0	32.2040	0	23.694	0	41.442	0	-1e10	8	-1e10	8	-1E+10	1	-1E+10	1	-1E+10	1	-1E+10	1	-1E+10	1	-1E+10	1
4902554	62	C	10/23/2022	19:07	-133.705	48.749	0	42.90	0	15.1780	0	32.2340	0	23.804	0	42.533	0	-1e10	8	-1e10	8	-1E+10	1	-1E+10	1	-1E+10	1	-1E+10	1	-1E+10	1	-1E+10	1
4902554	62	C	10/23/2022	19:07	-133.705	48.749	0	44.10	0	14.8660	0	32.2360	0	23.873	0	43.722	0	-1e10	8	-1e10	8	-1E+10	1	-1E+10	1	-1E+10	1	-1E+10	1	-1E+10	1	-1E+10	1
4902554	62	C	10/23/2022	19:07	-133.705	48.749	0	45.30	0	14.7630	0	32.2330	0	23.892	0	44.912	0	-1e10	8	-1e10	8	-1E+10	1	-1E+10	1	-1E+10	1	-1E+10	1	-1E+10	1	-1E+10	1
4902554	62	C	10/23/2022	19:07	-133.705	48.749	0	46.00	0	13.5020	0	32.3010	0	24.205	0	45.606	0	-1e10	8	-1e10	8	-1E+10	1	-1E+10	1	-1E+10	1	-1E+10	1	-1E+10	1	-1E+10	1
4902554	62	C	10/23/2022	19:07	-133.705	48.749	0	47.00	0	11.4920	0	32.2710	0	24.565	0	46.597	0	-1e10	8	-1e10	8	-1E+10	1	-1E+10	1	-1E+10	1	-1E+10	1	-1E+10	1	-1E+10	1
4902554	62	C	10/23/2022	19:07	-133.705	48.749	0	48.00	0	10.6720	0	32.3600	0	24.779	0	47.588	0	-1e10	8	-1e10	8	-1E+10	1	-1E+10	1	-1E+10	1	-1E+10	1	-1E+10	1	-1E+10	1
4902554	62	C	10/23/2022	19:07	-133.705	48.749	0	48.90	0	10.5050	0	32.3590	0	24.807	0	48.481	0	-1e10	8	-1e10	8	-1E+10	1	-1E+10	1	-1E+10	1	-1E+10	1	-1E+10	1	-1E+10	1
4902554	62	C	10/23/2022	19:07	-133.705	48.749	0	50.00	0	9.7930	0	32.4030	0	24.960	0	49.571	0	-1e10	8	-1e10	8	-1E+10	1	-1E+10	1	-1E+10	1	-1E+10	1	-1E+10	1	-1E+10	1
4902554	62	C	10/23/2022	19:07	-133.705	48.749	0	51.10	0	9.5580	0	32.3920	0	24.990	0	50.661	0	-1e10	8	-1e10	8	-1E+10	1	-1E+10	1	-1E+10	1	-1E+10	1	-1E+10	1	-1E+10	1
4902554	62	C	10/23/2022	19:07	-133.705	48.749	0	51.90	0	9.4770	0	32.3970	0	25.006	0	51.454	0	-1e10	8	-1e10	8	-1E+10	1	-1E+10	1	-1E+10	1	-1E+10	1	-1E+10	1	-1E+10	1
4902554	62	C	10/23/2022	19:07	-133.705	48.749	0	52.80	0	9.2520	0	32.4100	0	25.052	0	52.347	0	-1e10	8	-1e10	8	-1E+10	1	-1E+10	1	-1E+10	1	-1E+10	1	-1E+10	1	-1E+10	1
4902554	62	C	10/23/2022	19:07	-133.705	48.749	0	54.00	0	9.0840	0	32.4160	0	25.083	0	53.536	0	-1e10	8	-1e10	8	-1E+10	1	-1E+10	1	-1E+10	1	-1E+10	1	-1E+10	1	-1E+10	1
4902554	62	C	10/23/2022	19:07	-133.705	48.749	0	54.90	0	9.0640	0	32.4230	0	25.092	0	54.428	0	-1e10	8	-1e10	8	-1E+10	1	-1E+10	1	-1E+10	1	-1E+10	1	-1E+10	1	-1E+10	1
4902554	62	C	10/23/2022	19:07	-133.705	48.749	0	55.80	0	9.0330	0	32.4200	0	25.094	0	55.320	0	-1e10	8	-1e10	8	-1E+10	1	-1E+10	1	-1E+10	1	-1E+10	1	-1E+10	1	-1E+10	1
4902554	62	C	10/23/2022	19:07	-133.705	48.749	0	57.10	0	8.8910	0	32.4240	0	25.120	0	56.609	0	-1e10	8	-1e10	8	-1E+10	1	-1E+10	1	-1E+10	1	-1E+10	1	-1E+10	1	-1E+10	1
4902554	62	C	10/23/2022	19:07	-133.705	48.749	0	58.00	0	8.8010	0	32.4270	0	25.136	0	57.501	0	-1e10	8	-1e10	8	-1E+10	1	-1E+10	1	-1E+10	1	-1E+10	1	-1E+10	1	-1E+10	1
4902554	62	C	10/23/2022	19:07	-133.705	48.749	0	59.10	0	8.7340	0	32.4330	0	25.151	0	58.592	0	-1e10	8	-1e10	8	-1E+10	1	-1E+10	1	-1E+10	1	-1E+10	1	-1E+10	1	-1E+10	1
4902554	62	C	10/23/2022	19:07	-133.705	48.749	0	60.00	0	8.6250	0	32.4390	0	25.172	0	59.484	0	-1e10	8	-1e10	8	-1E+10	1	-1E+10	1	-1E+10	1	-1E+10	1	-1E+10	1	-1E+10	1
4902554	62	C	10/23/2022	19:07	-133.705	48.749	0	61.00	0	8.5510	0	32.4350	0	25.180	0	60.475	0	-1e10	8	-1e10	8	-1E+10	1	-1E+10	1	-1E+10	1	-1E+10	1	-1E+10	1	-1E+10	1
4902554	62	C	10/23/2022	19:07	-133.705	48.749	0	61.90	0	8.5060	0	32.4390	0	25.190	0	61.367	0	-1e10	8	-1e10	8	-1E+10	1	-1E+10	1	-1E+10	1	-1E+10	1	-1E+10	1	-1E+10	1
4902554	62	C	10/23/2022	19:07	-133.705	48.749	0	63.00	0	8.4420	0	32.4390	0	25.199	0	62.458	0	-1e10	8	-1e10	8	-1E+10	1	-1E+10	1	-1E+10	1	-1E+10	1	-1E+10	1	-1E+10	1
4902554	62	C	10/23/2022	19:07	-133.705	48.749	0	64.20	0	8.3990	0	32.4400	0	25.207	0	63.647	0	-1e10	8	-1e10	8	-1E+10	1	-1E+10	1	-1E+10	1	-1E+10	1	-1E+10	1	-1E+10	1
4902554	62	C	10/23/2022	19:07	-133.705	48.749	0	65.10	0	8.3530	0	32.4410	0	25.214	0	64.539	0	-1e10	8	-1e10	8	-1E+10	1	-1E+10	1	-1E+10	1	-1E+10	1	-1E+10	1	-1E+10	1
4902554	62	C	10/23/2022	19:07	-133.705	48.749	0	66.10	0	8.3120	0	32.4370	0	25.217	0	65.530	0	-1e10	8	-1e10	8	-1E+10	1	-1E+10	1	-1E+10	1	-1E+10	1	-1E+10	1	-1E+10	1
4902554	62	C	10/23/2022	19:07	-133.705	48.749	0	67.00	0	8.2250	0	32.4300	0	25.224	0	66.422	0	-1e10	8	-1e10	8	-1E+10	1	-1E+10	1	-1E+10	1	-1E+10	1	-1E+10	1	-1E+10	1
4902554	62	C	10/23/2022	19:07	-133.705	48.749	0	67.90	0	8.0500	0	32.4310	0	25.251	0	67.315	0	-1e10	8	-1e10	8	-1E+10	1	-1E+10	1	-1E+10	1	-1E+10	1	-1E+10	1	-1E+10	1
4902554	62	C	10/23/2022	19:07	-133.705	48.749	0	69.00	0	7.9910	0	32.4250	0	25.255	0	68.405	0	-1e10	8	-1e10	8	-1E+10	1	-1E+10	1	-1E+10	1	-1E+10	1	-1E+10	1	-1E+10	1
4902554	62	C	10/23/2022	19:07	-133.705	48.749	0	70.20	0	7.8760	0	32.4360	0	25.280	0	69.594	0	-1e10	8	-1e10	8	-1E+10	1	-1E+10	1	-1E+10	1	-1E+10	1	-1E+10	1	-1E+10	1
4902554	62	C	10/23/2022	19:07	-133.705	48.749	0	70.90	0	7.8610	0	32.4210	0	25.270	0	70.288	0	-1e10	8	-1e10	8	-1E+10	1	-1E+10	1	-1E+10	1	-1E+10	1	-1E+10	1	-1E+10	1
4902554	62	C	10/23/2022	19:07	-133.705	48.749	0	71.90	0	7.8480	0	32.4230	0	25.274	0	71.279	0	-1e10	8	-1e10	8	-1E+10	1	-1E+10	1	-1E+10	1	-1E+10	1	-1E+10	1	-1E+10	1
4902554	62	C	10/23/2022	19:07	-133.705	48.749	0	72.90	0	7.8290	0	32.4240	0	25.277	0	72.271	0	-1e10	8	-1e10	8	-1E+10	1	-1E+10	1	-1E+10	1	-1E+10	1	-1E+10	1	-1E+10	1
4902554	62	C	10/23/2022	19:07	-133.705	48.749	0	74.00	0	7.8100	0	32.4250	0	25.281	0	73.361	0	-1e10	8	-1e10	8	-1E+10	1	-1E+10	1	-1E+10	1	-1E+10	1	-1E+10	1	-1E+10	1
4902554	62	C	10/23/2022	19:07	-133.705	48.749	0	75.10	0	7.7930	0	32.4260	0	25.284	0	74.451	0	-1e10	8	-1e10	8	-1E+10	1	-1E+10	1	-1E+10	1	-1E+10	1	-1E+10	1	-1E+10	1
4902554	62	C	10/23/2022	19:07	-133.705	48.749	0	76.00	0	7.7620	0	32.4270	0	25.289	0	75.343	0	-1e10	8	-1e10	8	-1E+10	1	-1E+10	1	-1E+10	1	-1E+10	1	-1E+10	1	-1E+10	1
4902554	62	C	10/23/2022	19:07	-133.705	48.749	0	76.90	0	7.7420	0	32.4270	0	25.292	0	76.235	0	-1e10	8	-1e10	8	-1E+10	1	-1E+10	1	-1E+10	1	-1E+10	1	-1E+10	1	-1E+10	1
4902554	62	C	10/23/2022	19:07	-133.705	48.749	0	77.90	0	7.6810	0	32.4240	0	25.298	0	77.226	0	-1e10	8	-1e10	8	-1E+10	1	-1E+10	1	-1E+10	1	-1E+10	1	-1E+10	1	-1E+10	1
4902554	62	C	10/23/2022	19:07	-133.705	48.749	0	79.10	0	7.5610	0	32.4210	0	25.312	0	78.416	0	-1e10	8	-1e10	8	-1E+10	1	-1E+10	1	-1E+10	1	-1E+10	1	-1E+10	1	-1E+10	1
4902554	62	C	10/23/2022	19:07	-133.705	48.749	0	80.10	0	7.5070	0	32.4220	0	25.321	0	79.407	0	-1e10	8	-1e10	8	-1E+10	1	-1E+10	1	-1E+10	1	-1E+10	1	-1E+10	1	-1E+10	1
4902554	62	C	10/23/2022	19:07	-133.705	48.749	0	81.00	0	7.4260	0	32.4180	0	25.329	0	80.299	0	-1e10	8	-1e10	8	-1E+10	1	-1E+10	1	-1E+10	1	-1E+10	1	-1E+10	1	-1E+10	1
4902554	62	C	10/23/2022	19:07	-133.705	48.749	0	81.90	0	7.3750	0	32.4310	0	25.346	0	81.191	0	-1e10	8	-1e10	8	-1E+10	1	-1E+10	1	-1E+10	1	-1E+10	1	-1E+10	1	-1E+10	1
4902554	62	C	10/23/2022	19:07	-133.705	48.749	0	82.90	0	7.3270	0	32.4330	0	25.354	0	82.182	0	-1e10	8	-1e10	8	-1E+10	1	-1E+10	1	-1E+10	1	-1E+10	1	-1E+10	1	-1E+10	1
4902554	62	C	10/23/2022	19:07	-133.705	48.749	0	83.80	0	7.3010	0	32.4370	0	25.361	0	83.074	0	-1e10	8	-1e10	8	-1E+10	1	-1E+10	1	-1E+10	1	-1E+10	1	-1E+10	1	-1E+10	1
4902554	62	C	10/23/2022	19:07	-133.705	48.749	0	84.80	0	7.3270	0	32.4460	0	25.364	0	84.065	0	-1e10	8	-1e10	8	-1E+10	1	-1E+10	1	-1E+10	1	-1E+10	1	-1E+10	1	-1E+10	1
4902554	62	C	10/23/2022	19:07	-133.705	48.749	0	85.80	0	7.3130	0	32.4500	0	25.370	0	85.056	0	-1e10	8	-1e10	8	-1E+10	1	-1E+10	1	-1E+10	1	-1E+10	1	-1E+10	1	-1E+10	1
4902554	62	C	10/23/2022	19:07	-133.705	48.749	0	86.90	0	7.3000	0	32.4540	0	25.374	0	86.147	0	-1e10	8	-1e10	8	-1E+10	1	-1E+10	1	-1E+10	1	-1E+10	1	-1E+10	1	-1E+10	1
4902554	62	C	10/23/2022	19:07	-133.705	48.749	0	87.90	0	7.2560	0	32.4520	0	25.379	0	87.138	0	-1e10	8	-1e10	8	-1E+10	1	-1E+10	1	-1E+10	1	-1E+10	1	-1E+10	1	-1E+10	1
4902554	62	C	10/23/2022	19:07	-133.705	48.749	0	89.00	0	7.2130	0	32.4510	0	25.384	0	88.228	0	-1e10	8	-1e10	8	-1E+10	1	-1E+10	1	-1E+10	1	-1E+10	1	-1E+10	1	-1E+10	1
4902554	62	C	10/23/2022	19:07	-133.705	48.749	0	90.00	0	7.1670	0	32.4530	0	25.392	0	89.219	0	-1e10	8	-1e10	8	-1E+10	1	-1E+10	1	-1E+10	1	-1E+10	1	-1E+10	1	-1E+10	1
4902554	62	C	10/23/2022	19:07	-133.705	48.749	0	91.10	0	7.1230	0	32.4550	0	25.399	0	90.309	0	-1e10	8	-1e10	8	-1E+10	1	-1E+10	1	-1E+10	1	-1E+10	1	-1E+10	1	-1E+10	1
4902554	62	C	10/23/2022	19:07	-133.705	48.749	0	92.00	0	7.1050	0	32.4570	0	25.403	0	91.201	0	-1e10	8	-1e10	8	-1E+10	1	-1E+10	1	-1E+10	1	-1E+10	1	-1E+10	1	-1E+10	1
4902554	62	C	10/23/2022	19:07	-133.705	48.749	0	92.70	0	7.1030	0	32.4580	0	25.404	0	91.895	0	-1e10	8	-1e10	8	-1E+10	1	-1E+10	1	-1E+10	1	-1E+10	1	-1E+10	1	-1E+10	1
4902554	62	C	10/23/2022	19:07	-133.705	48.749	0	93.80	0	7.1030	0	32.4580	0	25.404	0	92.985	0	-1e10	8	-1e10	8	-1E+10	1	-1E+10	1	-1E+10	1	-1E+10	1	-1E+10	1	-1E+10	1
4902554	62	C	10/23/2022	19:07	-133.705	48.749	0	94.80	0	7.1020	0	32.4580	0	25.405	0	93.976	0	-1e10	8	-1e10	8	-1E+10	1	-1E+10	1	-1E+10	1	-1E+10	1	-1E+10	1	-1E+10	1
4902554	62	C	10/23/2022	19:07	-133.705	48.749	0	95.90	0	7.0710	0	32.4620	0	25.412	0	95.067	0	-1e10	8	-1e10	8	-1E+10	1	-1E+10	1	-1E+10	1	-1E+10	1	-1E+10	1	-1E+10	1
4902554	62	C	10/23/2022	19:07	-133.705	48.749	0	96.90	0	7.0260	0	32.4630	0	25.419	0	96.058	0	-1e10	8	-1e10	8	-1E+10	1	-1E+10	1	-1E+10	1	-1E+10	1	-1E+10	1	-1E+10	1
4902554	62	C	10/23/2022	19:07	-133.705	48.749	0	97.90	0	6.9900	0	32.4640	0	25.424	0	97.049	0	-1e10	8	-1e10	8	-1E+10	1	-1E+10	1	-1E+10	1	-1E+10	1	-1E+10	1	-1E+10	1
4902554	62	C	10/23/2022	19:07	-133.705	48.749	0	98.90	0	6.9710	0	32.4640	0	25.427	0	98.040	0	-1e10	8	-1e10	8	-1E+10	1	-1E+10	1	-1E+10	1	-1E+10	1	-1E+10	1	-1E+10	1
4902554	62	C	10/23/2022	19:07	-133.705	48.749	0	99.90	0	6.9560	0	32.4660	0	25.430	0	99.031	0	-1e10	8	-1e10	8	-1E+10	1	-1E+10	1	-1E+10	1	-1E+10	1	-1E+10	1	-1E+10	1
4902554	62	C	10/23/2022	19:07	-133.705	48.749	0	100.90	0	6.9570	0	32.4690	0	25.433	0	100.022	0	-1e10	8	-1e10	8	-1E+10	1	-1E+10	1	-1E+10	1	-1E+10	1	-1E+10	1	-1E+10	1
4902554	62	C	10/23/2022	19:07	-133.705	48.749	0	101.80	0	6.9350	0	32.4750	0	25.440	0	100.914	0	-1e10	8	-1e10	8	-1E+10	1	-1E+10	1	-1E+10	1	-1E+10	1	-1E+10	1	-1E+10	1
4902554	62	C	10/23/2022	19:07	-133.705	48.749	0	103.00	0	6.8510	0	32.4780	0	25.454	0	102.103	0	-1e10	8	-1e10	8	-1E+10	1	-1E+10	1	-1E+10	1	-1E+10	1	-1E+10	1	-1E+10	1
4902554	62	C	10/23/2022	19:07	-133.705	48.749	0	104.10	0	6.7970	0	32.4860	0	25.467	0	103.193	0	-1e10	8	-1e10	8	-1E+10	1	-1E+10	1	-1E+10	1	-1E+10	1	-1E+10	1	-1E+10	1
4902554	62	C	10/23/2022	19:07	-133.705	48.749	0	105.00	0	6.7710	0	32.4880	0	25.472	0	104.085	0	-1e10	8	-1e10	8	-1E+10	1	-1E+10	1	-1E+10	1	-1E+10	1	-1E+10	1	-1E+10	1
4902554	62	C	10/23/2022	19:07	-133.705	48.749	0	106.00	0	6.7390	0	32.4910	0	25.479	0	105.076	0	-1e10	8	-1e10	8	-1E+10	1	-1E+10	1	-1E+10	1	-1E+10	1	-1E+10	1	-1E+10	1
4902554	62	C	10/23/2022	19:07	-133.705	48.749	0	107.00	0	6.7180	0	32.4930	0	25.483	0	106.067	0	-1e10	8	-1e10	8	-1E+10	1	-1E+10	1	-1E+10	1	-1E+10	1	-1E+10	1	-1E+10	1
4902554	62	C	10/23/2022	19:07	-133.705	48.749	0	108.00	0	6.7050	0	32.4930	0	25.485	0	107.058	0	-1e10	8	-1e10	8	-1E+10	1	-1E+10	1	-1E+10	1	-1E+10	1	-1E+10	1	-1E+10	1
4902554	62	C	10/23/2022	19:07	-133.705	48.749	0	108.90	0	6.6850	0	32.4960	0	25.490	0	107.950	0	-1e10	8	-1e10	8	-1E+10	1	-1E+10	1	-1E+10	1	-1E+10	1	-1E+10	1	-1E+10	1
4902554	62	C	10/23/2022	19:07	-133.705	48.749	0	110.20	0	6.6520	0	32.5010	0	25.498	0	109.239	0	-1e10	8	-1e10	8	-1E+10	1	-1E+10	1	-1E+10	1	-1E+10	1	-1E+10	1	-1E+10	1
4902554	62	C	10/23/2022	19:07	-133.705	48.749	0	110.90	0	6.6320	0	32.5030	0	25.502	0	109.932	0	-1e10	8	-1e10	8	-1E+10	1	-1E+10	1	-1E+10	1	-1E+10	1	-1E+10	1	-1E+10	1
4902554	62	C	10/23/2022	19:07	-133.705	48.749	0	112.00	0	6.6160	0	32.5050	0	25.506	0	111.022	0	-1e10	8	-1e10	8	-1E+10	1	-1E+10	1	-1E+10	1	-1E+10	1	-1E+10	1	-1E+10	1
4902554	62	C	10/23/2022	19:07	-133.705	48.749	0	113.00	0	6.5820	0	32.5100	0	25.514	0	112.013	0	-1e10	8	-1e10	8	-1E+10	1	-1E+10	1	-1E+10	1	-1E+10	1	-1E+10	1	-1E+10	1
4902554	62	C	10/23/2022	19:07	-133.705	48.749	0	114.20	0	6.5280	0	32.5230	0	25.531	0	113.203	0	-1e10	8	-1e10	8	-1E+10	1	-1E+10	1	-1E+10	1	-1E+10	1	-1E+10	1	-1E+10	1
4902554	62	C	10/23/2022	19:07	-133.705	48.749	0	114.90	0	6.5220	0	32.5250	0	25.533	0	113.896	0	-1e10	8	-1e10	8	-1E+10	1	-1E+10	1	-1E+10	1	-1E+10	1	-1E+10	1	-1E+10	1
4902554	62	C	10/23/2022	19:07	-133.705	48.749	0	115.80	0	6.5040	0	32.5310	0	25.541	0	114.788	0	-1e10	8	-1e10	8	-1E+10	1	-1E+10	1	-1E+10	1	-1E+10	1	-1E+10	1	-1E+10	1
4902554	62	C	10/23/2022	19:07	-133.705	48.749	0	116.80	0	6.4720	0	32.5530	0	25.562	0	115.779	0	-1e10	8	-1e10	8	-1E+10	1	-1E+10	1	-1E+10	1	-1E+10	1	-1E+10	1	-1E+10	1
4902554	62	C	10/23/2022	19:07	-133.705	48.749	0	117.80	0	6.4500	0	32.5810	0	25.587	0	116.770	0	-1e10	8	-1e10	8	-1E+10	1	-1E+10	1	-1E+10	1	-1E+10	1	-1E+10	1	-1E+10	1
4902554	62	C	10/23/2022	19:07	-133.705	48.749	0	118.90	0	6.4160	0	32.6140	0	25.617	0	117.860	0	-1e10	8	-1e10	8	-1E+10	1	-1E+10	1	-1E+10	1	-1E+10	1	-1E+10	1	-1E+10	1
4902554	62	C	10/23/2022	19:07	-133.705	48.749	0	119.90	0	6.3750	0	32.6540	0	25.654	0	118.851	0	-1e10	8	-1e10	8	-1E+10	1	-1E+10	1	-1E+10	1	-1E+10	1	-1E+10	1	-1E+10	1
4902554	62	C	10/23/2022	19:07	-133.705	48.749	0	121.00	0	6.3430	0	32.7070	0	25.700	0	119.941	0	-1e10	8	-1e10	8	-1E+10	1	-1E+10	1	-1E+10	1	-1E+10	1	-1E+10	1	-1E+10	1
4902554	62	C	10/23/2022	19:07	-133.705	48.749	0	121.90	0	6.2940	0	32.7700	0	25.756	0	120.833	0	-1e10	8	-1e10	8	-1E+10	1	-1E+10	1	-1E+10	1	-1E+10	1	-1E+10	1	-1E+10	1
4902554	62	C	10/23/2022	19:07	-133.705	48.749	0	123.10	0	6.2480	0	32.8160	0	25.798	0	122.022	0	-1e10	8	-1e10	8	-1E+10	1	-1E+10	1	-1E+10	1	-1E+10	1	-1E+10	1	-1E+10	1
4902554	62	C	10/23/2022	19:07	-133.705	48.749	0	123.90	0	6.2380	0	32.8260	0	25.807	0	122.815	0	-1e10	8	-1e10	8	-1E+10	1	-1E+10	1	-1E+10	1	-1E+10	1	-1E+10	1	-1E+10	1
4902554	62	C	10/23/2022	19:07	-133.705	48.749	0	124.90	0	6.2280	0	32.8370	0	25.817	0	123.806	0	-1e10	8	-1e10	8	-1E+10	1	-1E+10	1	-1E+10	1	-1E+10	1	-1E+10	1	-1E+10	1
4902554	62	C	10/23/2022	19:07	-133.705	48.749	0	126.10	0	6.2080	0	32.8650	0	25.842	0	124.995	0	-1e10	8	-1e10	8	-1E+10	1	-1E+10	1	-1E+10	1	-1E+10	1	-1E+10	1	-1E+10	1
4902554	62	C	10/23/2022	19:07	-133.705	48.749	0	126.90	0	6.2010	0	32.8720	0	25.848	0	125.788	0	-1e10	8	-1e10	8	-1E+10	1	-1E+10	1	-1E+10	1	-1E+10	1	-1E+10	1	-1E+10	1
4902554	62	C	10/23/2022	19:07	-133.705	48.749	0	128.00	0	6.1900	0	32.8870	0	25.861	0	126.878	0	-1e10	8	-1e10	8	-1E+10	1	-1E+10	1	-1E+10	1	-1E+10	1	-1E+10	1	-1E+10	1
4902554	62	C	10/23/2022	19:07	-133.705	48.749	0	129.00	0	6.1880	0	32.8900	0	25.864	0	127.869	0	-1e10	8	-1e10	8	-1E+10	1	-1E+10	1	-1E+10	1	-1E+10	1	-1E+10	1	-1E+10	1
4902554	62	C	10/23/2022	19:07	-133.705	48.749	0	130.10	0	6.1850	0	32.8930	0	25.867	0	128.959	0	-1e10	8	-1e10	8	-1E+10	1	-1E+10	1	-1E+10	1	-1E+10	1	-1E+10	1	-1E+10	1
4902554	62	C	10/23/2022	19:07	-133.705	48.749	0	131.00	0	6.1800	0	32.9010	0	25.873	0	129.851	0	-1e10	8	-1e10	8	-1E+10	1	-1E+10	1	-1E+10	1	-1E+10	1	-1E+10	1	-1E+10	1
4902554	62	C	10/23/2022	19:07	-133.705	48.749	0	131.90	0	6.1760	0	32.9070	0	25.879	0	130.742	0	-1e10	8	-1e10	8	-1E+10	1	-1E+10	1	-1E+10	1	-1E+10	1	-1E+10	1	-1E+10	1
4902554	62	C	10/23/2022	19:07	-133.705	48.749	0	133.00	0	6.1650	0	32.9250	0	25.894	0	131.832	0	-1e10	8	-1e10	8	-1E+10	1	-1E+10	1	-1E+10	1	-1E+10	1	-1E+10	1	-1E+10	1
4902554	62	C	10/23/2022	19:07	-133.705	48.749	0	133.90	0	6.1340	0	32.9760	0	25.938	0	132.724	0	-1e10	8	-1e10	8	-1E+10	1	-1E+10	1	-1E+10	1	-1E+10	1	-1E+10	1	-1E+10	1
4902554	62	C	10/23/2022	19:07	-133.705	48.749	0	134.80	0	6.1240	0	32.9760	0	25.940	0	133.616	0	-1e10	8	-1e10	8	-1E+10	1	-1E+10	1	-1E+10	1	-1E+10	1	-1E+10	1	-1E+10	1
4902554	62	C	10/23/2022	19:07	-133.705	48.749	0	136.00	0	6.0870	0	33.0140	0	25.974	0	134.805	0	-1e10	8	-1e10	8	-1E+10	1	-1E+10	1	-1E+10	1	-1E+10	1	-1E+10	1	-1E+10	1
4902554	62	C	10/23/2022	19:07	-133.705	48.749	0	137.00	0	6.0540	0	33.0570	0	26.012	0	135.796	0	-1e10	8	-1e10	8	-1E+10	1	-1E+10	1	-1E+10	1	-1E+10	1	-1E+10	1	-1E+10	1
4902554	62	C	10/23/2022	19:07	-133.705	48.749	0	138.00	0	6.0460	0	33.0710	0	26.024	0	136.787	0	-1e10	8	-1e10	8	-1E+10	1	-1E+10	1	-1E+10	1	-1E+10	1	-1E+10	1	-1E+10	1
4902554	62	C	10/23/2022	19:07	-133.705	48.749	0	139.20	0	6.0440	0	33.0920	0	26.041	0	137.976	0	-1e10	8	-1e10	8	-1E+10	1	-1E+10	1	-1E+10	1	-1E+10	1	-1E+10	1	-1E+10	1
4902554	62	C	10/23/2022	19:07	-133.705	48.749	0	139.90	0	6.0420	0	33.0940	0	26.043	0	138.669	0	-1e10	8	-1e10	8	-1E+10	1	-1E+10	1	-1E+10	1	-1E+10	1	-1E+10	1	-1E+10	1
4902554	62	C	10/23/2022	19:07	-133.705	48.749	0	140.90	0	6.0430	0	33.0970	0	26.045	0	139.660	0	-1e10	8	-1e10	8	-1E+10	1	-1E+10	1	-1E+10	1	-1E+10	1	-1E+10	1	-1E+10	1
4902554	62	C	10/23/2022	19:07	-133.705	48.749	0	142.00	0	6.0580	0	33.0980	0	26.044	0	140.750	0	-1e10	8	-1e10	8	-1E+10	1	-1E+10	1	-1E+10	1	-1E+10	1	-1E+10	1	-1E+10	1
4902554	62	C	10/23/2022	19:07	-133.705	48.749	0	142.80	0	6.0570	0	33.1120	0	26.055	0	141.543	0	-1e10	8	-1e10	8	-1E+10	1	-1E+10	1	-1E+10	1	-1E+10	1	-1E+10	1	-1E+10	1
4902554	62	C	10/23/2022	19:07	-133.705	48.749	0	144.00	0	6.0200	0	33.1660	0	26.103	0	142.732	0	-1e10	8	-1e10	8	-1E+10	1	-1E+10	1	-1E+10	1	-1E+10	1	-1E+10	1	-1E+10	1
4902554	62	C	10/23/2022	19:07	-133.705	48.749	0	145.20	0	6.0350	0	33.1790	0	26.111	0	143.921	0	-1e10	8	-1e10	8	-1E+10	1	-1E+10	1	-1E+10	1	-1E+10	1	-1E+10	1	-1E+10	1
4902554	62	C	10/23/2022	19:07	-133.705	48.749	0	146.00	0	6.0260	0	33.2110	0	26.138	0	144.714	0	-1e10	8	-1e10	8	-1E+10	1	-1E+10	1	-1E+10	1	-1E+10	1	-1E+10	1	-1E+10	1
4902554	62	C	10/23/2022	19:07	-133.705	48.749	0	146.90	0	5.9940	0	33.2700	0	26.188	0	145.605	0	-1e10	8	-1e10	8	-1E+10	1	-1E+10	1	-1E+10	1	-1E+10	1	-1E+10	1	-1E+10	1
4902554	62	C	10/23/2022	19:07	-133.705	48.749	0	147.80	0	5.9780	0	33.3120	0	26.223	0	146.497	0	-1e10	8	-1e10	8	-1E+10	1	-1E+10	1	-1E+10	1	-1E+10	1	-1E+10	1	-1E+10	1
4902554	62	C	10/23/2022	19:07	-133.705	48.749	0	148.70	0	5.9570	0	33.3300	0	26.240	0	147.389	0	-1e10	8	-1e10	8	-1E+10	1	-1E+10	1	-1E+10	1	-1E+10	1	-1E+10	1	-1E+10	1
4902554	62	C	10/23/2022	19:07	-133.705	48.749	0	149.90	0	5.9500	0	33.3420	0	26.250	0	148.578	0	-1e10	8	-1e10	8	-1E+10	1	-1E+10	1	-1E+10	1	-1E+10	1	-1E+10	1	-1E+10	1
4902554	62	C	10/23/2022	19:07	-133.705	48.749	0	151.30	0	5.9400	0	33.3550	0	26.262	0	149.965	0	-1e10	8	-1e10	8	-1E+10	1	-1E+10	1	-1E+10	1	-1E+10	1	-1E+10	1	-1E+10	1
4902554	62	C	10/23/2022	19:07	-133.705	48.749	0	152.20	0	5.9120	0	33.3830	0	26.288	0	150.857	0	-1e10	8	-1e10	8	-1E+10	1	-1E+10	1	-1E+10	1	-1E+10	1	-1E+10	1	-1E+10	1
4902554	62	C	10/23/2022	19:07	-133.705	48.749	0	153.10	0	5.8910	0	33.3910	0	26.296	0	151.749	0	-1e10	8	-1e10	8	-1E+10	1	-1E+10	1	-1E+10	1	-1E+10	1	-1E+10	1	-1E+10	1
4902554	62	C	10/23/2022	19:07	-133.705	48.749	0	154.00	0	5.8780	0	33.4190	0	26.320	0	152.640	0	-1e10	8	-1e10	8	-1E+10	1	-1E+10	1	-1E+10	1	-1E+10	1	-1E+10	1	-1E+10	1
4902554	62	C	10/23/2022	19:07	-133.705	48.749	0	155.00	0	5.8420	0	33.4600	0	26.357	0	153.631	0	-1e10	8	-1e10	8	-1E+10	1	-1E+10	1	-1E+10	1	-1E+10	1	-1E+10	1	-1E+10	1
4902554	62	C	10/23/2022	19:07	-133.705	48.749	0	155.90	0	5.8300	0	33.4700	0	26.366	0	154.523	0	-1e10	8	-1e10	8	-1E+10	1	-1E+10	1	-1E+10	1	-1E+10	1	-1E+10	1	-1E+10	1
4902554	62	C	10/23/2022	19:07	-133.705	48.749	0	156.90	0	5.8010	0	33.4900	0	26.386	0	155.514	0	-1e10	8	-1e10	8	-1E+10	1	-1E+10	1	-1E+10	1	-1E+10	1	-1E+10	1	-1E+10	1
4902554	62	C	10/23/2022	19:07	-133.705	48.749	0	157.80	0	5.7940	0	33.5120	0	26.404	0	156.405	0	-1e10	8	-1e10	8	-1E+10	1	-1E+10	1	-1E+10	1	-1E+10	1	-1E+10	1	-1E+10	1
4902554	62	C	10/23/2022	19:07	-133.705	48.749	0	158.90	0	5.7860	0	33.5270	0	26.417	0	157.495	0	-1e10	8	-1e10	8	-1E+10	1	-1E+10	1	-1E+10	1	-1E+10	1	-1E+10	1	-1E+10	1
4902554	62	C	10/23/2022	19:07	-133.705	48.749	0	159.90	0	5.8040	0	33.5520	0	26.434	0	158.486	0	-1e10	8	-1e10	8	-1E+10	1	-1E+10	1	-1E+10	1	-1E+10	1	-1E+10	1	-1E+10	1
4902554	62	C	10/23/2022	19:07	-133.705	48.749	0	160.90	0	5.7720	0	33.5880	0	26.467	0	159.477	0	-1e10	8	-1e10	8	-1E+10	1	-1E+10	1	-1E+10	1	-1E+10	1	-1E+10	1	-1E+10	1
4902554	62	C	10/23/2022	19:07	-133.705	48.749	0	162.00	0	5.7540	0	33.5940	0	26.474	0	160.567	0	-1e10	8	-1e10	8	-1E+10	1	-1E+10	1	-1E+10	1	-1E+10	1	-1E+10	1	-1E+10	1
4902554	62	C	10/23/2022	19:07	-133.705	48.749	0	162.90	0	5.7550	0	33.5990	0	26.478	0	161.458	0	-1e10	8	-1e10	8	-1E+10	1	-1E+10	1	-1E+10	1	-1E+10	1	-1E+10	1	-1E+10	1
4902554	62	C	10/23/2022	19:07	-133.705	48.749	0	164.00	0	5.7490	0	33.6020	0	26.481	0	162.548	0	-1e10	8	-1e10	8	-1E+10	1	-1E+10	1	-1E+10	1	-1E+10	1	-1E+10	1	-1E+10	1
4902554	62	C	10/23/2022	19:07	-133.705	48.749	0	165.00	0	5.7500	0	33.6070	0	26.485	0	163.539	0	-1e10	8	-1e10	8	-1E+10	1	-1E+10	1	-1E+10	1	-1E+10	1	-1E+10	1	-1E+10	1
4902554	62	C	10/23/2022	19:07	-133.705	48.749	0	166.00	0	5.7610	0	33.6090	0	26.485	0	164.530	0	-1e10	8	-1e10	8	-1E+10	1	-1E+10	1	-1E+10	1	-1E+10	1	-1E+10	1	-1E+10	1
4902554	62	C	10/23/2022	19:07	-133.705	48.749	0	167.10	0	5.7640	0	33.6150	0	26.489	0	165.619	0	-1e10	8	-1e10	8	-1E+10	1	-1E+10	1	-1E+10	1	-1E+10	1	-1E+10	1	-1E+10	1
4902554	62	C	10/23/2022	19:07	-133.705	48.749	0	168.10	0	5.7600	0	33.6170	0	26.491	0	166.610	0	-1e10	8	-1e10	8	-1E+10	1	-1E+10	1	-1E+10	1	-1E+10	1	-1E+10	1	-1E+10	1
4902554	62	C	10/23/2022	19:07	-133.705	48.749	0	169.10	0	5.7340	0	33.6330	0	26.507	0	167.601	0	-1e10	8	-1e10	8	-1E+10	1	-1E+10	1	-1E+10	1	-1E+10	1	-1E+10	1	-1E+10	1
4902554	62	C	10/23/2022	19:07	-133.705	48.749	0	170.20	0	5.7170	0	33.6330	0	26.509	0	168.691	0	-1e10	8	-1e10	8	-1E+10	1	-1E+10	1	-1E+10	1	-1E+10	1	-1E+10	1	-1E+10	1
4902554	62	C	10/23/2022	19:07	-133.705	48.749	0	171.20	0	5.7110	0	33.6320	0	26.509	0	169.681	0	-1e10	8	-1e10	8	-1E+10	1	-1E+10	1	-1E+10	1	-1E+10	1	-1E+10	1	-1E+10	1
4902554	62	C	10/23/2022	19:07	-133.705	48.749	0	172.20	0	5.7060	0	33.6330	0	26.511	0	170.672	0	-1e10	8	-1e10	8	-1E+10	1	-1E+10	1	-1E+10	1	-1E+10	1	-1E+10	1	-1E+10	1
4902554	62	C	10/23/2022	19:07	-133.705	48.749	0	173.20	0	5.7040	0	33.6310	0	26.509	0	171.663	0	-1e10	8	-1e10	8	-1E+10	1	-1E+10	1	-1E+10	1	-1E+10	1	-1E+10	1	-1E+10	1
4902554	62	C	10/23/2022	19:07	-133.705	48.749	0	174.20	0	5.6940	0	33.6290	0	26.509	0	172.653	0	-1e10	8	-1e10	8	-1E+10	1	-1E+10	1	-1E+10	1	-1E+10	1	-1E+10	1	-1E+10	1
4902554	62	C	10/23/2022	19:07	-133.705	48.749	0	175.30	0	5.6710	0	33.6330	0	26.515	0	173.743	0	-1e10	8	-1e10	8	-1E+10	1	-1E+10	1	-1E+10	1	-1E+10	1	-1E+10	1	-1E+10	1
4902554	62	C	10/23/2022	19:07	-133.705	48.749	0	176.30	0	5.6090	0	33.6380	0	26.526	0	174.734	0	-1e10	8	-1e10	8	-1E+10	1	-1E+10	1	-1E+10	1	-1E+10	1	-1E+10	1	-1E+10	1
4902554	62	C	10/23/2022	19:07	-133.705	48.749	0	177.30	0	5.5480	0	33.6480	0	26.541	0	175.725	0	-1e10	8	-1e10	8	-1E+10	1	-1E+10	1	-1E+10	1	-1E+10	1	-1E+10	1	-1E+10	1
4902554	62	C	10/23/2022	19:07	-133.705	48.749	0	178.30	0	5.5340	0	33.6490	0	26.544	0	176.715	0	-1e10	8	-1e10	8	-1E+10	1	-1E+10	1	-1E+10	1	-1E+10	1	-1E+10	1	-1E+10	1
4902554	62	C	10/23/2022	19:07	-133.705	48.749	0	179.30	0	5.5200	0	33.6510	0	26.547	0	177.706	0	-1e10	8	-1e10	8	-1E+10	1	-1E+10	1	-1E+10	1	-1E+10	1	-1E+10	1	-1E+10	1
4902554	62	C	10/23/2022	19:07	-133.705	48.749	0	180.30	0	5.4850	0	33.6600	0	26.558	0	178.697	0	-1e10	8	-1e10	8	-1E+10	1	-1E+10	1	-1E+10	1	-1E+10	1	-1E+10	1	-1E+10	1
4902554	62	C	10/23/2022	19:07	-133.705	48.749	0	181.30	0	5.4750	0	33.6630	0	26.562	0	179.687	0	-1e10	8	-1e10	8	-1E+10	1	-1E+10	1	-1E+10	1	-1E+10	1	-1E+10	1	-1E+10	1
4902554	62	C	10/23/2022	19:07	-133.705	48.749	0	182.30	0	5.4740	0	33.6630	0	26.562	0	180.678	0	-1e10	8	-1e10	8	-1E+10	1	-1E+10	1	-1E+10	1	-1E+10	1	-1E+10	1	-1E+10	1
4902554	62	C	10/23/2022	19:07	-133.705	48.749	0	183.30	0	5.4620	0	33.6650	0	26.565	0	181.669	0	-1e10	8	-1e10	8	-1E+10	1	-1E+10	1	-1E+10	1	-1E+10	1	-1E+10	1	-1E+10	1
4902554	62	C	10/23/2022	19:07	-133.705	48.749	0	184.30	0	5.4470	0	33.6690	0	26.570	0	182.659	0	-1e10	8	-1e10	8	-1E+10	1	-1E+10	1	-1E+10	1	-1E+10	1	-1E+10	1	-1E+10	1
4902554	62	C	10/23/2022	19:07	-133.705	48.749	0	185.30	0	5.4440	0	33.6700	0	26.571	0	183.650	0	-1e10	8	-1e10	8	-1E+10	1	-1E+10	1	-1E+10	1	-1E+10	1	-1E+10	1	-1E+10	1
4902554	62	C	10/23/2022	19:07	-133.705	48.749	0	186.30	0	5.4400	0	33.6700	0	26.572	0	184.641	0	-1e10	8	-1e10	8	-1E+10	1	-1E+10	1	-1E+10	1	-1E+10	1	-1E+10	1	-1E+10	1
4902554	62	C	10/23/2022	19:07	-133.705	48.749	0	187.30	0	5.4310	0	33.6720	0	26.574	0	185.631	0	-1e10	8	-1e10	8	-1E+10	1	-1E+10	1	-1E+10	1	-1E+10	1	-1E+10	1	-1E+10	1
4902554	62	C	10/23/2022	19:07	-133.705	48.749	0	188.30	0	5.4180	0	33.6760	0	26.579	0	186.622	0	-1e10	8	-1e10	8	-1E+10	1	-1E+10	1	-1E+10	1	-1E+10	1	-1E+10	1	-1E+10	1
4902554	62	C	10/23/2022	19:07	-133.705	48.749	0	189.30	0	5.4070	0	33.6800	0	26.584	0	187.613	0	-1e10	8	-1e10	8	-1E+10	1	-1E+10	1	-1E+10	1	-1E+10	1	-1E+10	1	-1E+10	1
4902554	62	C	10/23/2022	19:07	-133.705	48.749	0	190.30	0	5.3960	0	33.6840	0	26.588	0	188.603	0	-1e10	8	-1e10	8	-1E+10	1	-1E+10	1	-1E+10	1	-1E+10	1	-1E+10	1	-1E+10	1
4902554	62	C	10/23/2022	19:07	-133.705	48.749	0	191.30	0	5.3890	0	33.6870	0	26.591	0	189.594	0	-1e10	8	-1e10	8	-1E+10	1	-1E+10	1	-1E+10	1	-1E+10	1	-1E+10	1	-1E+10	1
4902554	62	C	10/23/2022	19:07	-133.705	48.749	0	192.30	0	5.3850	0	33.6910	0	26.595	0	190.584	0	-1e10	8	-1e10	8	-1E+10	1	-1E+10	1	-1E+10	1	-1E+10	1	-1E+10	1	-1E+10	1
4902554	62	C	10/23/2022	19:07	-133.705	48.749	0	193.40	0	5.3710	0	33.6950	0	26.600	0	191.674	0	-1e10	8	-1e10	8	-1E+10	1	-1E+10	1	-1E+10	1	-1E+10	1	-1E+10	1	-1E+10	1
4902554	62	C	10/23/2022	19:07	-133.705	48.749	0	194.40	0	5.3620	0	33.6980	0	26.603	0	192.665	0	-1e10	8	-1e10	8	-1E+10	1	-1E+10	1	-1E+10	1	-1E+10	1	-1E+10	1	-1E+10	1
4902554	62	C	10/23/2022	19:07	-133.705	48.749	0	195.40	0	5.3580	0	33.6990	0	26.604	0	193.655	0	-1e10	8	-1e10	8	-1E+10	1	-1E+10	1	-1E+10	1	-1E+10	1	-1E+10	1	-1E+10	1
4902554	62	C	10/23/2022	19:07	-133.705	48.749	0	196.40	0	5.3540	0	33.6990	0	26.605	0	194.646	0	-1e10	8	-1e10	8	-1E+10	1	-1E+10	1	-1E+10	1	-1E+10	1	-1E+10	1	-1E+10	1
4902554	62	C	10/23/2022	19:07	-133.705	48.749	0	197.40	0	5.3530	0	33.6990	0	26.605	0	195.637	0	-1e10	8	-1e10	8	-1E+10	1	-1E+10	1	-1E+10	1	-1E+10	1	-1E+10	1	-1E+10	1
4902554	62	C	10/23/2022	19:07	-133.705	48.749	0	198.40	0	5.3490	0	33.7000	0	26.606	0	196.627	0	-1e10	8	-1e10	8	-1E+10	1	-1E+10	1	-1E+10	1	-1E+10	1	-1E+10	1	-1E+10	1
4902554	62	C	10/23/2022	19:07	-133.705	48.749	0	199.40	0	5.3220	0	33.7060	0	26.614	0	197.618	0	-1e10	8	-1e10	8	-1E+10	1	-1E+10	1	-1E+10	1	-1E+10	1	-1E+10	1	-1E+10	1
4902554	62	C	10/23/2022	19:07	-133.705	48.749	0	200.50	0	5.3130	0	33.7070	0	26.616	0	198.707	0	-1e10	8	-1e10	8	-1E+10	1	-1E+10	1	-1E+10	1	-1E+10	1	-1E+10	1	-1E+10	1
4902554	62	C	10/23/2022	19:07	-133.705	48.749	0	201.50	0	5.3020	0	33.7110	0	26.621	0	199.698	0	-1e10	8	-1e10	8	-1E+10	1	-1E+10	1	-1E+10	1	-1E+10	1	-1E+10	1	-1E+10	1
4902554	62	C	10/23/2022	19:07	-133.705	48.749	0	202.50	0	5.2890	0	33.7120	0	26.623	0	200.689	0	-1e10	8	-1e10	8	-1E+10	1	-1E+10	1	-1E+10	1	-1E+10	1	-1E+10	1	-1E+10	1
4902554	62	C	10/23/2022	19:07	-133.705	48.749	0	203.60	0	5.2860	0	33.7120	0	26.623	0	201.778	0	-1e10	8	-1e10	8	-1E+10	1	-1E+10	1	-1E+10	1	-1E+10	1	-1E+10	1	-1E+10	1
4902554	62	C	10/23/2022	19:07	-133.705	48.749	0	204.60	0	5.2850	0	33.7130	0	26.624	0	202.769	0	-1e10	8	-1e10	8	-1E+10	1	-1E+10	1	-1E+10	1	-1E+10	1	-1E+10	1	-1E+10	1
4902554	62	C	10/23/2022	19:07	-133.705	48.749	0	205.70	0	5.2740	0	33.7160	0	26.628	0	203.858	0	-1e10	8	-1e10	8	-1E+10	1	-1E+10	1	-1E+10	1	-1E+10	1	-1E+10	1	-1E+10	1
4902554	62	C	10/23/2022	19:07	-133.705	48.749	0	206.80	0	5.2670	0	33.7170	0	26.629	0	204.948	0	-1e10	8	-1e10	8	-1E+10	1	-1E+10	1	-1E+10	1	-1E+10	1	-1E+10	1	-1E+10	1
4902554	62	C	10/23/2022	19:07	-133.705	48.749	0	207.80	0	5.2650	0	33.7170	0	26.630	0	205.938	0	-1e10	8	-1e10	8	-1E+10	1	-1E+10	1	-1E+10	1	-1E+10	1	-1E+10	1	-1E+10	1
4902554	62	C	10/23/2022	19:07	-133.705	48.749	0	208.90	0	5.2630	0	33.7170	0	26.630	0	207.028	0	-1e10	8	-1e10	8	-1E+10	1	-1E+10	1	-1E+10	1	-1E+10	1	-1E+10	1	-1E+10	1
4902554	62	C	10/23/2022	19:07	-133.705	48.749	0	209.90	0	5.2530	0	33.7180	0	26.632	0	208.019	0	-1e10	8	-1e10	8	-1E+10	1	-1E+10	1	-1E+10	1	-1E+10	1	-1E+10	1	-1E+10	1
4902554	62	C	10/23/2022	19:07	-133.705	48.749	0	210.90	0	5.2250	0	33.7210	0	26.638	0	209.009	0	-1e10	8	-1e10	8	-1E+10	1	-1E+10	1	-1E+10	1	-1E+10	1	-1E+10	1	-1E+10	1
4902554	62	C	10/23/2022	19:07	-133.705	48.749	0	212.00	0	5.1950	0	33.7260	0	26.645	0	210.099	0	-1e10	8	-1e10	8	-1E+10	1	-1E+10	1	-1E+10	1	-1E+10	1	-1E+10	1	-1E+10	1
4902554	62	C	10/23/2022	19:07	-133.705	48.749	0	213.10	0	5.1570	0	33.7310	0	26.653	0	211.188	0	-1e10	8	-1e10	8	-1E+10	1	-1E+10	1	-1E+10	1	-1E+10	1	-1E+10	1	-1E+10	1
4902554	62	C	10/23/2022	19:07	-133.705	48.749	0	214.10	0	5.1510	0	33.7350	0	26.657	0	212.179	0	-1e10	8	-1e10	8	-1E+10	1	-1E+10	1	-1E+10	1	-1E+10	1	-1E+10	1	-1E+10	1
4902554	62	C	10/23/2022	19:07	-133.705	48.749	0	215.20	0	5.1410	0	33.7380	0	26.661	0	213.268	0	-1e10	8	-1e10	8	-1E+10	1	-1E+10	1	-1E+10	1	-1E+10	1	-1E+10	1	-1E+10	1
4902554	62	C	10/23/2022	19:07	-133.705	48.749	0	216.30	0	5.1290	0	33.7400	0	26.664	0	214.358	0	-1e10	8	-1e10	8	-1E+10	1	-1E+10	1	-1E+10	1	-1E+10	1	-1E+10	1	-1E+10	1
4902554	62	C	10/23/2022	19:07	-133.705	48.749	0	217.30	0	5.1280	0	33.7390	0	26.663	0	215.348	0	-1e10	8	-1e10	8	-1E+10	1	-1E+10	1	-1E+10	1	-1E+10	1	-1E+10	1	-1E+10	1
4902554	62	C	10/23/2022	19:07	-133.705	48.749	0	218.40	0	5.1270	0	33.7400	0	26.664	0	216.438	0	-1e10	8	-1e10	8	-1E+10	1	-1E+10	1	-1E+10	1	-1E+10	1	-1E+10	1	-1E+10	1
4902554	62	C	10/23/2022	19:07	-133.705	48.749	0	219.50	0	5.1250	0	33.7400	0	26.664	0	217.528	0	-1e10	8	-1e10	8	-1E+10	1	-1E+10	1	-1E+10	1	-1E+10	1	-1E+10	1	-1E+10	1
4902554	62	C	10/23/2022	19:07	-133.705	48.749	0	220.60	0	5.1240	0	33.7400	0	26.664	0	218.617	0	-1e10	8	-1e10	8	-1E+10	1	-1E+10	1	-1E+10	1	-1E+10	1	-1E+10	1	-1E+10	1
4902554	62	C	10/23/2022	19:07	-133.705	48.749	0	221.60	0	5.1220	0	33.7410	0	26.665	0	219.608	0	-1e10	8	-1e10	8	-1E+10	1	-1E+10	1	-1E+10	1	-1E+10	1	-1E+10	1	-1E+10	1
4902554	62	C	10/23/2022	19:07	-133.705	48.749	0	222.70	0	5.1200	0	33.7400	0	26.665	0	220.697	0	-1e10	8	-1e10	8	-1E+10	1	-1E+10	1	-1E+10	1	-1E+10	1	-1E+10	1	-1E+10	1
4902554	62	C	10/23/2022	19:07	-133.705	48.749	0	223.80	0	5.1190	0	33.7400	0	26.665	0	221.787	0	-1e10	8	-1e10	8	-1E+10	1	-1E+10	1	-1E+10	1	-1E+10	1	-1E+10	1	-1E+10	1
4902554	62	C	10/23/2022	19:07	-133.705	48.749	0	224.90	0	5.1160	0	33.7410	0	26.666	0	222.876	0	-1e10	8	-1e10	8	-1E+10	1	-1E+10	1	-1E+10	1	-1E+10	1	-1E+10	1	-1E+10	1
4902554	62	C	10/23/2022	19:07	-133.705	48.749	0	225.90	0	5.1070	0	33.7420	0	26.668	0	223.867	0	-1e10	8	-1e10	8	-1E+10	1	-1E+10	1	-1E+10	1	-1E+10	1	-1E+10	1	-1E+10	1
4902554	62	C	10/23/2022	19:07	-133.705	48.749	0	227.00	0	5.1080	0	33.7410	0	26.667	0	224.956	0	-1e10	8	-1e10	8	-1E+10	1	-1E+10	1	-1E+10	1	-1E+10	1	-1E+10	1	-1E+10	1
4902554	62	C	10/23/2022	19:07	-133.705	48.749	0	228.00	0	5.1020	0	33.7420	0	26.668	0	225.946	0	-1e10	8	-1e10	8	-1E+10	1	-1E+10	1	-1E+10	1	-1E+10	1	-1E+10	1	-1E+10	1
4902554	62	C	10/23/2022	19:07	-133.705	48.749	0	229.10	0	5.0940	0	33.7440	0	26.671	0	227.036	0	-1e10	8	-1e10	8	-1E+10	1	-1E+10	1	-1E+10	1	-1E+10	1	-1E+10	1	-1E+10	1
4902554	62	C	10/23/2022	19:07	-133.705	48.749	0	230.10	0	5.0860	0	33.7450	0	26.673	0	228.026	0	-1e10	8	-1e10	8	-1E+10	1	-1E+10	1	-1E+10	1	-1E+10	1	-1E+10	1	-1E+10	1
4902554	62	C	10/23/2022	19:07	-133.705	48.749	0	231.20	0	5.0340	0	33.7530	0	26.685	0	229.116	0	-1e10	8	-1e10	8	-1E+10	1	-1E+10	1	-1E+10	1	-1E+10	1	-1E+10	1	-1E+10	1
4902554	62	C	10/23/2022	19:07	-133.705	48.749	0	232.30	0	5.0130	0	33.7540	0	26.688	0	230.205	0	-1e10	8	-1e10	8	-1E+10	1	-1E+10	1	-1E+10	1	-1E+10	1	-1E+10	1	-1E+10	1
4902554	62	C	10/23/2022	19:07	-133.705	48.749	0	233.30	0	5.0020	0	33.7540	0	26.689	0	231.196	0	-1e10	8	-1e10	8	-1E+10	1	-1E+10	1	-1E+10	1	-1E+10	1	-1E+10	1	-1E+10	1
4902554	62	C	10/23/2022	19:07	-133.705	48.749	0	234.40	0	4.9930	0	33.7550	0	26.691	0	232.285	0	-1e10	8	-1e10	8	-1E+10	1	-1E+10	1	-1E+10	1	-1E+10	1	-1E+10	1	-1E+10	1
4902554	62	C	10/23/2022	19:07	-133.705	48.749	0	235.40	0	4.9780	0	33.7570	0	26.694	0	233.276	0	-1e10	8	-1e10	8	-1E+10	1	-1E+10	1	-1E+10	1	-1E+10	1	-1E+10	1	-1E+10	1
4902554	62	C	10/23/2022	19:07	-133.705	48.749	0	236.50	0	4.9560	0	33.7600	0	26.699	0	234.365	0	-1e10	8	-1e10	8	-1E+10	1	-1E+10	1	-1E+10	1	-1E+10	1	-1E+10	1	-1E+10	1
4902554	62	C	10/23/2022	19:07	-133.705	48.749	0	237.60	0	4.9430	0	33.7620	0	26.702	0	235.455	0	-1e10	8	-1e10	8	-1E+10	1	-1E+10	1	-1E+10	1	-1E+10	1	-1E+10	1	-1E+10	1
4902554	62	C	10/23/2022	19:07	-133.705	48.749	0	238.70	0	4.9410	0	33.7610	0	26.702	0	236.544	0	-1e10	8	-1e10	8	-1E+10	1	-1E+10	1	-1E+10	1	-1E+10	1	-1E+10	1	-1E+10	1
4902554	62	C	10/23/2022	19:07	-133.705	48.749	0	239.70	0	4.9330	0	33.7630	0	26.704	0	237.534	0	-1e10	8	-1e10	8	-1E+10	1	-1E+10	1	-1E+10	1	-1E+10	1	-1E+10	1	-1E+10	1
4902554	62	C	10/23/2022	19:07	-133.705	48.749	0	240.80	0	4.9300	0	33.7630	0	26.705	0	238.624	0	-1e10	8	-1e10	8	-1E+10	1	-1E+10	1	-1E+10	1	-1E+10	1	-1E+10	1	-1E+10	1
4902554	62	C	10/23/2022	19:07	-133.705	48.749	0	241.90	0	4.9300	0	33.7610	0	26.703	0	239.713	0	-1e10	8	-1e10	8	-1E+10	1	-1E+10	1	-1E+10	1	-1E+10	1	-1E+10	1	-1E+10	1
4902554	62	C	10/23/2022	19:07	-133.705	48.749	0	243.00	0	4.9220	0	33.7630	0	26.706	0	240.803	0	-1e10	8	-1e10	8	-1E+10	1	-1E+10	1	-1E+10	1	-1E+10	1	-1E+10	1	-1E+10	1
4902554	62	C	10/23/2022	19:07	-133.705	48.749	0	244.00	0	4.9160	0	33.7640	0	26.707	0	241.793	0	-1e10	8	-1e10	8	-1E+10	1	-1E+10	1	-1E+10	1	-1E+10	1	-1E+10	1	-1E+10	1
4902554	62	C	10/23/2022	19:07	-133.705	48.749	0	245.10	0	4.9110	0	33.7660	0	26.709	0	242.882	0	-1e10	8	-1e10	8	-1E+10	1	-1E+10	1	-1E+10	1	-1E+10	1	-1E+10	1	-1E+10	1
4902554	62	C	10/23/2022	19:07	-133.705	48.749	0	246.20	0	4.8900	0	33.7670	0	26.712	0	243.972	0	-1e10	8	-1e10	8	-1E+10	1	-1E+10	1	-1E+10	1	-1E+10	1	-1E+10	1	-1E+10	1
4902554	62	C	10/23/2022	19:07	-133.705	48.749	0	247.30	0	4.8700	0	33.7700	0	26.717	0	245.061	0	-1e10	8	-1e10	8	-1E+10	1	-1E+10	1	-1E+10	1	-1E+10	1	-1E+10	1	-1E+10	1
4902554	62	C	10/23/2022	19:07	-133.705	48.749	0	248.40	0	4.8570	0	33.7710	0	26.719	0	246.151	0	-1e10	8	-1e10	8	-1E+10	1	-1E+10	1	-1E+10	1	-1E+10	1	-1E+10	1	-1E+10	1
4902554	62	C	10/23/2022	19:07	-133.705	48.749	0	249.40	0	4.8520	0	33.7710	0	26.720	0	247.141	0	-1e10	8	-1e10	8	-1E+10	1	-1E+10	1	-1E+10	1	-1E+10	1	-1E+10	1	-1E+10	1
4902554	62	C	10/23/2022	19:07	-133.705	48.749	0	250.50	0	4.8490	0	33.7720	0	26.721	0	248.230	0	-1e10	8	-1e10	8	-1E+10	1	-1E+10	1	-1E+10	1	-1E+10	1	-1E+10	1	-1E+10	1
4902554	62	C	10/23/2022	19:07	-133.705	48.749	0	251.60	0	4.8460	0	33.7720	0	26.721	0	249.320	0	-1e10	8	-1e10	8	-1E+10	1	-1E+10	1	-1E+10	1	-1E+10	1	-1E+10	1	-1E+10	1
4902554	62	C	10/23/2022	19:07	-133.705	48.749	0	252.70	0	4.8430	0	33.7730	0	26.722	0	250.409	0	-1e10	8	-1e10	8	-1E+10	1	-1E+10	1	-1E+10	1	-1E+10	1	-1E+10	1	-1E+10	1
4902554	62	C	10/23/2022	19:07	-133.705	48.749	0	253.80	0	4.8400	0	33.7720	0	26.722	0	251.498	0	-1e10	8	-1e10	8	-1E+10	1	-1E+10	1	-1E+10	1	-1E+10	1	-1E+10	1	-1E+10	1
4902554	62	C	10/23/2022	19:07	-133.705	48.749	0	254.80	0	4.8200	0	33.7760	0	26.727	0	252.489	0	-1e10	8	-1e10	8	-1E+10	1	-1E+10	1	-1E+10	1	-1E+10	1	-1E+10	1	-1E+10	1
4902554	62	C	10/23/2022	19:07	-133.705	48.749	0	255.90	0	4.8150	0	33.7760	0	26.728	0	253.578	0	-1e10	8	-1e10	8	-1E+10	1	-1E+10	1	-1E+10	1	-1E+10	1	-1E+10	1	-1E+10	1
4902554	62	C	10/23/2022	19:07	-133.705	48.749	0	257.00	0	4.8090	0	33.7770	0	26.729	0	254.667	0	-1e10	8	-1e10	8	-1E+10	1	-1E+10	1	-1E+10	1	-1E+10	1	-1E+10	1	-1E+10	1
4902554	62	C	10/23/2022	19:07	-133.705	48.749	0	258.00	0	4.8070	0	33.7760	0	26.729	0	255.658	0	-1e10	8	-1e10	8	-1E+10	1	-1E+10	1	-1E+10	1	-1E+10	1	-1E+10	1	-1E+10	1
4902554	62	C	10/23/2022	19:07	-133.705	48.749	0	259.10	0	4.7960	0	33.7780	0	26.732	0	256.747	0	-1e10	8	-1e10	8	-1E+10	1	-1E+10	1	-1E+10	1	-1E+10	1	-1E+10	1	-1E+10	1
4902554	62	C	10/23/2022	19:07	-133.705	48.749	0	260.20	0	4.7920	0	33.7780	0	26.732	0	257.836	0	-1e10	8	-1e10	8	-1E+10	1	-1E+10	1	-1E+10	1	-1E+10	1	-1E+10	1	-1E+10	1
4902554	62	C	10/23/2022	19:07	-133.705	48.749	0	261.30	0	4.7840	0	33.7790	0	26.734	0	258.926	0	-1e10	8	-1e10	8	-1E+10	1	-1E+10	1	-1E+10	1	-1E+10	1	-1E+10	1	-1E+10	1
4902554	62	C	10/23/2022	19:07	-133.705	48.749	0	262.30	0	4.7770	0	33.7810	0	26.736	0	259.916	0	-1e10	8	-1e10	8	-1E+10	1	-1E+10	1	-1E+10	1	-1E+10	1	-1E+10	1	-1E+10	1
4902554	62	C	10/23/2022	19:07	-133.705	48.749	0	263.40	0	4.7720	0	33.7810	0	26.737	0	261.005	0	-1e10	8	-1e10	8	-1E+10	1	-1E+10	1	-1E+10	1	-1E+10	1	-1E+10	1	-1E+10	1
4902554	62	C	10/23/2022	19:07	-133.705	48.749	0	264.50	0	4.7620	0	33.7820	0	26.739	0	262.095	0	-1e10	8	-1e10	8	-1E+10	1	-1E+10	1	-1E+10	1	-1E+10	1	-1E+10	1	-1E+10	1
4902554	62	C	10/23/2022	19:07	-133.705	48.749	0	265.50	0	4.7590	0	33.7830	0	26.740	0	263.085	0	-1e10	8	-1e10	8	-1E+10	1	-1E+10	1	-1E+10	1	-1E+10	1	-1E+10	1	-1E+10	1
4902554	62	C	10/23/2022	19:07	-133.705	48.749	0	266.90	0	4.7520	0	33.7830	0	26.741	0	264.471	0	-1e10	8	-1e10	8	-1E+10	1	-1E+10	1	-1E+10	1	-1E+10	1	-1E+10	1	-1E+10	1
4902554	62	C	10/23/2022	19:07	-133.705	48.749	0	268.20	0	4.7490	0	33.7830	0	26.741	0	265.759	0	-1e10	8	-1e10	8	-1E+10	1	-1E+10	1	-1E+10	1	-1E+10	1	-1E+10	1	-1E+10	1
4902554	62	C	10/23/2022	19:07	-133.705	48.749	0	269.00	0	4.7410	0	33.7850	0	26.743	0	266.551	0	-1e10	8	-1e10	8	-1E+10	1	-1E+10	1	-1E+10	1	-1E+10	1	-1E+10	1	-1E+10	1
4902554	62	C	10/23/2022	19:07	-133.705	48.749	0	269.80	0	4.7260	0	33.7870	0	26.747	0	267.343	0	-1e10	8	-1e10	8	-1E+10	1	-1E+10	1	-1E+10	1	-1E+10	1	-1E+10	1	-1E+10	1
4902554	62	C	10/23/2022	19:07	-133.705	48.749	0	270.60	0	4.7190	0	33.7880	0	26.748	0	268.135	0	-1e10	8	-1e10	8	-1E+10	1	-1E+10	1	-1E+10	1	-1E+10	1	-1E+10	1	-1E+10	1
4902554	62	C	10/23/2022	19:07	-133.705	48.749	0	271.90	0	4.6990	0	33.7900	0	26.752	0	269.423	0	-1e10	8	-1e10	8	-1E+10	1	-1E+10	1	-1E+10	1	-1E+10	1	-1E+10	1	-1E+10	1
4902554	62	C	10/23/2022	19:07	-133.705	48.749	0	273.10	0	4.6830	0	33.7930	0	26.756	0	270.611	0	-1e10	8	-1e10	8	-1E+10	1	-1E+10	1	-1E+10	1	-1E+10	1	-1E+10	1	-1E+10	1
4902554	62	C	10/23/2022	19:07	-133.705	48.749	0	273.90	0	4.6750	0	33.7930	0	26.757	0	271.403	0	-1e10	8	-1e10	8	-1E+10	1	-1E+10	1	-1E+10	1	-1E+10	1	-1E+10	1	-1E+10	1
4902554	62	C	10/23/2022	19:07	-133.705	48.749	0	274.80	0	4.6710	0	33.7940	0	26.758	0	272.294	0	-1e10	8	-1e10	8	-1E+10	1	-1E+10	1	-1E+10	1	-1E+10	1	-1E+10	1	-1E+10	1
4902554	62	C	10/23/2022	19:07	-133.705	48.749	0	276.00	0	4.6630	0	33.7940	0	26.759	0	273.482	0	-1e10	8	-1e10	8	-1E+10	1	-1E+10	1	-1E+10	1	-1E+10	1	-1E+10	1	-1E+10	1
4902554	62	C	10/23/2022	19:07	-133.705	48.749	0	277.20	0	4.6510	0	33.7970	0	26.763	0	274.671	0	-1e10	8	-1e10	8	-1E+10	1	-1E+10	1	-1E+10	1	-1E+10	1	-1E+10	1	-1E+10	1
4902554	62	C	10/23/2022	19:07	-133.705	48.749	0	278.00	0	4.6330	0	33.7990	0	26.766	0	275.463	0	-1e10	8	-1e10	8	-1E+10	1	-1E+10	1	-1E+10	1	-1E+10	1	-1E+10	1	-1E+10	1
4902554	62	C	10/23/2022	19:07	-133.705	48.749	0	278.90	0	4.6290	0	33.8000	0	26.768	0	276.354	0	-1e10	8	-1e10	8	-1E+10	1	-1E+10	1	-1E+10	1	-1E+10	1	-1E+10	1	-1E+10	1
4902554	62	C	10/23/2022	19:07	-133.705	48.749	0	279.70	0	4.6220	0	33.8010	0	26.769	0	277.146	0	-1e10	8	-1e10	8	-1E+10	1	-1E+10	1	-1E+10	1	-1E+10	1	-1E+10	1	-1E+10	1
4902554	62	C	10/23/2022	19:07	-133.705	48.749	0	280.90	0	4.6140	0	33.8020	0	26.771	0	278.334	0	-1e10	8	-1e10	8	-1E+10	1	-1E+10	1	-1E+10	1	-1E+10	1	-1E+10	1	-1E+10	1
4902554	62	C	10/23/2022	19:07	-133.705	48.749	0	282.20	0	4.6090	0	33.8030	0	26.772	0	279.622	0	-1e10	8	-1e10	8	-1E+10	1	-1E+10	1	-1E+10	1	-1E+10	1	-1E+10	1	-1E+10	1
4902554	62	C	10/23/2022	19:07	-133.705	48.749	0	283.00	0	4.6070	0	33.8030	0	26.772	0	280.414	0	-1e10	8	-1e10	8	-1E+10	1	-1E+10	1	-1E+10	1	-1E+10	1	-1E+10	1	-1E+10	1
4902554	62	C	10/23/2022	19:07	-133.705	48.749	0	283.90	0	4.5970	0	33.8050	0	26.775	0	281.305	0	-1e10	8	-1e10	8	-1E+10	1	-1E+10	1	-1E+10	1	-1E+10	1	-1E+10	1	-1E+10	1
4902554	62	C	10/23/2022	19:07	-133.705	48.749	0	284.70	0	4.5890	0	33.8060	0	26.777	0	282.097	0	-1e10	8	-1e10	8	-1E+10	1	-1E+10	1	-1E+10	1	-1E+10	1	-1E+10	1	-1E+10	1
4902554	62	C	10/23/2022	19:07	-133.705	48.749	0	286.00	0	4.5800	0	33.8070	0	26.779	0	283.384	0	-1e10	8	-1e10	8	-1E+10	1	-1E+10	1	-1E+10	1	-1E+10	1	-1E+10	1	-1E+10	1
4902554	62	C	10/23/2022	19:07	-133.705	48.749	0	287.30	0	4.5730	0	33.8090	0	26.781	0	284.672	0	-1e10	8	-1e10	8	-1E+10	1	-1E+10	1	-1E+10	1	-1E+10	1	-1E+10	1	-1E+10	1
4902554	62	C	10/23/2022	19:07	-133.705	48.749	0	288.10	0	4.5710	0	33.8090	0	26.781	0	285.464	0	-1e10	8	-1e10	8	-1E+10	1	-1E+10	1	-1E+10	1	-1E+10	1	-1E+10	1	-1E+10	1
4902554	62	C	10/23/2022	19:07	-133.705	48.749	0	288.90	0	4.5680	0	33.8100	0	26.782	0	286.256	0	-1e10	8	-1e10	8	-1E+10	1	-1E+10	1	-1E+10	1	-1E+10	1	-1E+10	1	-1E+10	1
4902554	62	C	10/23/2022	19:07	-133.705	48.749	0	289.80	0	4.5610	0	33.8120	0	26.785	0	287.147	0	-1e10	8	-1e10	8	-1E+10	1	-1E+10	1	-1E+10	1	-1E+10	1	-1E+10	1	-1E+10	1
4902554	62	C	10/23/2022	19:07	-133.705	48.749	0	291.00	0	4.5530	0	33.8130	0	26.786	0	288.335	0	-1e10	8	-1e10	8	-1E+10	1	-1E+10	1	-1E+10	1	-1E+10	1	-1E+10	1	-1E+10	1
4902554	62	C	10/23/2022	19:07	-133.705	48.749	0	292.30	0	4.5430	0	33.8150	0	26.789	0	289.622	0	-1e10	8	-1e10	8	-1E+10	1	-1E+10	1	-1E+10	1	-1E+10	1	-1E+10	1	-1E+10	1
4902554	62	C	10/23/2022	19:07	-133.705	48.749	0	293.10	0	4.5360	0	33.8170	0	26.791	0	290.414	0	-1e10	8	-1e10	8	-1E+10	1	-1E+10	1	-1E+10	1	-1E+10	1	-1E+10	1	-1E+10	1
4902554	62	C	10/23/2022	19:07	-133.705	48.749	0	294.00	0	4.5300	0	33.8170	0	26.792	0	291.306	0	-1e10	8	-1e10	8	-1E+10	1	-1E+10	1	-1E+10	1	-1E+10	1	-1E+10	1	-1E+10	1
4902554	62	C	10/23/2022	19:07	-133.705	48.749	0	294.80	0	4.5200	0	33.8190	0	26.795	0	292.098	0	-1e10	8	-1e10	8	-1E+10	1	-1E+10	1	-1E+10	1	-1E+10	1	-1E+10	1	-1E+10	1
4902554	62	C	10/23/2022	19:07	-133.705	48.749	0	295.70	0	4.5150	0	33.8200	0	26.796	0	292.989	0	-1e10	8	-1e10	8	-1E+10	1	-1E+10	1	-1E+10	1	-1E+10	1	-1E+10	1	-1E+10	1
4902554	62	C	10/23/2022	19:07	-133.705	48.749	0	296.90	0	4.5070	0	33.8210	0	26.798	0	294.177	0	-1e10	8	-1e10	8	-1E+10	1	-1E+10	1	-1E+10	1	-1E+10	1	-1E+10	1	-1E+10	1
4902554	62	C	10/23/2022	19:07	-133.705	48.749	0	298.20	0	4.4940	0	33.8240	0	26.801	0	295.464	0	-1e10	8	-1e10	8	-1E+10	1	-1E+10	1	-1E+10	1	-1E+10	1	-1E+10	1	-1E+10	1
4902554	62	C	10/23/2022	19:07	-133.705	48.749	0	299.00	0	4.4870	0	33.8260	0	26.804	0	296.256	0	-1e10	8	-1e10	8	-1E+10	1	-1E+10	1	-1E+10	1	-1E+10	1	-1E+10	1	-1E+10	1
4902554	62	C	10/23/2022	19:07	-133.705	48.749	0	299.80	0	4.4770	0	33.8300	0	26.808	0	297.048	0	-1e10	8	-1e10	8	-1E+10	1	-1E+10	1	-1E+10	1	-1E+10	1	-1E+10	1	-1E+10	1
4902554	62	C	10/23/2022	19:07	-133.705	48.749	0	300.70	0	4.4730	0	33.8310	0	26.809	0	297.939	0	-1e10	8	-1e10	8	-1E+10	1	-1E+10	1	-1E+10	1	-1E+10	1	-1E+10	1	-1E+10	1
4902554	62	C	10/23/2022	19:07	-133.705	48.749	0	301.90	0	4.4650	0	33.8330	0	26.812	0	299.127	0	-1e10	8	-1e10	8	-1E+10	1	-1E+10	1	-1E+10	1	-1E+10	1	-1E+10	1	-1E+10	1
4902554	62	C	10/23/2022	19:07	-133.705	48.749	0	303.20	0	4.4540	0	33.8380	0	26.817	0	300.415	0	-1e10	8	-1e10	8	-1E+10	1	-1E+10	1	-1E+10	1	-1E+10	1	-1E+10	1	-1E+10	1
4902554	62	C	10/23/2022	19:07	-133.705	48.749	0	304.10	0	4.4510	0	33.8390	0	26.818	0	301.306	0	-1e10	8	-1e10	8	-1E+10	1	-1E+10	1	-1E+10	1	-1E+10	1	-1E+10	1	-1E+10	1
4902554	62	C	10/23/2022	19:07	-133.705	48.749	0	305.00	0	4.4510	0	33.8400	0	26.819	0	302.197	0	-1e10	8	-1e10	8	-1E+10	1	-1E+10	1	-1E+10	1	-1E+10	1	-1E+10	1	-1E+10	1
4902554	62	C	10/23/2022	19:07	-133.705	48.749	0	305.80	0	4.4390	0	33.8470	0	26.826	0	302.989	0	-1e10	8	-1e10	8	-1E+10	1	-1E+10	1	-1E+10	1	-1E+10	1	-1E+10	1	-1E+10	1
4902554	62	C	10/23/2022	19:07	-133.705	48.749	0	306.70	0	4.4320	0	33.8460	0	26.826	0	303.880	0	-1e10	8	-1e10	8	-1E+10	1	-1E+10	1	-1E+10	1	-1E+10	1	-1E+10	1	-1E+10	1
4902554	62	C	10/23/2022	19:07	-133.705	48.749	0	307.60	0	4.4390	0	33.8480	0	26.826	0	304.771	0	-1e10	8	-1e10	8	-1E+10	1	-1E+10	1	-1E+10	1	-1E+10	1	-1E+10	1	-1E+10	1
4902554	62	C	10/23/2022	19:07	-133.705	48.749	0	308.90	0	4.4310	0	33.8510	0	26.830	0	306.058	0	-1e10	8	-1e10	8	-1E+10	1	-1E+10	1	-1E+10	1	-1E+10	1	-1E+10	1	-1E+10	1
4902554	62	C	10/23/2022	19:07	-133.705	48.749	0	310.20	0	4.4180	0	33.8520	0	26.832	0	307.345	0	-1e10	8	-1e10	8	-1E+10	1	-1E+10	1	-1E+10	1	-1E+10	1	-1E+10	1	-1E+10	1
4902554	62	C	10/23/2022	19:07	-133.705	48.749	0	311.10	0	4.4170	0	33.8530	0	26.833	0	308.236	0	-1e10	8	-1e10	8	-1E+10	1	-1E+10	1	-1E+10	1	-1E+10	1	-1E+10	1	-1E+10	1
4902554	62	C	10/23/2022	19:07	-133.705	48.749	0	312.00	0	4.4200	0	33.8540	0	26.833	0	309.127	0	-1e10	8	-1e10	8	-1E+10	1	-1E+10	1	-1E+10	1	-1E+10	1	-1E+10	1	-1E+10	1
4902554	62	C	10/23/2022	19:07	-133.705	48.749	0	312.90	0	4.4200	0	33.8550	0	26.834	0	310.018	0	-1e10	8	-1e10	8	-1E+10	1	-1E+10	1	-1E+10	1	-1E+10	1	-1E+10	1	-1E+10	1
4902554	62	C	10/23/2022	19:07	-133.705	48.749	0	313.80	0	4.4200	0	33.8550	0	26.834	0	310.909	0	-1e10	8	-1e10	8	-1E+10	1	-1E+10	1	-1E+10	1	-1E+10	1	-1E+10	1	-1E+10	1
4902554	62	C	10/23/2022	19:07	-133.705	48.749	0	314.70	0	4.4200	0	33.8560	0	26.835	0	311.800	0	-1e10	8	-1e10	8	-1E+10	1	-1E+10	1	-1E+10	1	-1E+10	1	-1E+10	1	-1E+10	1
4902554	62	C	10/23/2022	19:07	-133.705	48.749	0	315.60	0	4.4200	0	33.8560	0	26.835	0	312.691	0	-1e10	8	-1e10	8	-1E+10	1	-1E+10	1	-1E+10	1	-1E+10	1	-1E+10	1	-1E+10	1
4902554	62	C	10/23/2022	19:07	-133.705	48.749	0	316.90	0	4.4130	0	33.8590	0	26.838	0	313.978	0	-1e10	8	-1e10	8	-1E+10	1	-1E+10	1	-1E+10	1	-1E+10	1	-1E+10	1	-1E+10	1
4902554	62	C	10/23/2022	19:07	-133.705	48.749	0	318.30	0	4.4110	0	33.8600	0	26.839	0	315.364	0	-1e10	8	-1e10	8	-1E+10	1	-1E+10	1	-1E+10	1	-1E+10	1	-1E+10	1	-1E+10	1
4902554	62	C	10/23/2022	19:07	-133.705	48.749	0	319.20	0	4.4090	0	33.8600	0	26.839	0	316.255	0	-1e10	8	-1e10	8	-1E+10	1	-1E+10	1	-1E+10	1	-1E+10	1	-1E+10	1	-1E+10	1
4902554	62	C	10/23/2022	19:07	-133.705	48.749	0	320.10	0	4.4020	0	33.8630	0	26.842	0	317.146	0	-1e10	8	-1e10	8	-1E+10	1	-1E+10	1	-1E+10	1	-1E+10	1	-1E+10	1	-1E+10	1
4902554	62	C	10/23/2022	19:07	-133.705	48.749	0	321.10	0	4.3990	0	33.8650	0	26.844	0	318.136	0	-1e10	8	-1e10	8	-1E+10	1	-1E+10	1	-1E+10	1	-1E+10	1	-1E+10	1	-1E+10	1
4902554	62	C	10/23/2022	19:07	-133.705	48.749	0	322.00	0	4.3950	0	33.8660	0	26.845	0	319.027	0	-1e10	8	-1e10	8	-1E+10	1	-1E+10	1	-1E+10	1	-1E+10	1	-1E+10	1	-1E+10	1
4902554	62	C	10/23/2022	19:07	-133.705	48.749	0	322.90	0	4.3940	0	33.8670	0	26.846	0	319.918	0	-1e10	8	-1e10	8	-1E+10	1	-1E+10	1	-1E+10	1	-1E+10	1	-1E+10	1	-1E+10	1
4902554	62	C	10/23/2022	19:07	-133.705	48.749	0	323.80	0	4.3930	0	33.8670	0	26.847	0	320.809	0	-1e10	8	-1e10	8	-1E+10	1	-1E+10	1	-1E+10	1	-1E+10	1	-1E+10	1	-1E+10	1
4902554	62	C	10/23/2022	19:07	-133.705	48.749	0	324.80	0	4.3930	0	33.8670	0	26.847	0	321.799	0	-1e10	8	-1e10	8	-1E+10	1	-1E+10	1	-1E+10	1	-1E+10	1	-1E+10	1	-1E+10	1
4902554	62	C	10/23/2022	19:07	-133.705	48.749	0	325.70	0	4.3870	0	33.8700	0	26.850	0	322.690	0	-1e10	8	-1e10	8	-1E+10	1	-1E+10	1	-1E+10	1	-1E+10	1	-1E+10	1	-1E+10	1
4902554	62	C	10/23/2022	19:07	-133.705	48.749	0	326.60	0	4.3840	0	33.8720	0	26.851	0	323.581	0	-1e10	8	-1e10	8	-1E+10	1	-1E+10	1	-1E+10	1	-1E+10	1	-1E+10	1	-1E+10	1
4902554	62	C	10/23/2022	19:07	-133.705	48.749	0	327.60	0	4.3830	0	33.8730	0	26.852	0	324.571	0	-1e10	8	-1e10	8	-1E+10	1	-1E+10	1	-1E+10	1	-1E+10	1	-1E+10	1	-1E+10	1
4902554	62	C	10/23/2022	19:07	-133.705	48.749	0	328.90	0	4.3790	0	33.8750	0	26.854	0	325.858	0	-1e10	8	-1e10	8	-1E+10	1	-1E+10	1	-1E+10	1	-1E+10	1	-1E+10	1	-1E+10	1
4902554	62	C	10/23/2022	19:07	-133.705	48.749	0	330.40	0	4.3730	0	33.8780	0	26.857	0	327.343	0	-1e10	8	-1e10	8	-1E+10	1	-1E+10	1	-1E+10	1	-1E+10	1	-1E+10	1	-1E+10	1
4902554	62	C	10/23/2022	19:07	-133.705	48.749	0	331.30	0	4.3700	0	33.8800	0	26.859	0	328.234	0	-1e10	8	-1e10	8	-1E+10	1	-1E+10	1	-1E+10	1	-1E+10	1	-1E+10	1	-1E+10	1
4902554	62	C	10/23/2022	19:07	-133.705	48.749	0	332.20	0	4.3690	0	33.8800	0	26.859	0	329.125	0	-1e10	8	-1e10	8	-1E+10	1	-1E+10	1	-1E+10	1	-1E+10	1	-1E+10	1	-1E+10	1
4902554	62	C	10/23/2022	19:07	-133.705	48.749	0	333.20	0	4.3670	0	33.8810	0	26.860	0	330.115	0	-1e10	8	-1e10	8	-1E+10	1	-1E+10	1	-1E+10	1	-1E+10	1	-1E+10	1	-1E+10	1
4902554	62	C	10/23/2022	19:07	-133.705	48.749	0	334.10	0	4.3660	0	33.8810	0	26.861	0	331.006	0	-1e10	8	-1e10	8	-1E+10	1	-1E+10	1	-1E+10	1	-1E+10	1	-1E+10	1	-1E+10	1
4902554	62	C	10/23/2022	19:07	-133.705	48.749	0	335.00	0	4.3640	0	33.8810	0	26.861	0	331.897	0	-1e10	8	-1e10	8	-1E+10	1	-1E+10	1	-1E+10	1	-1E+10	1	-1E+10	1	-1E+10	1
4902554	62	C	10/23/2022	19:07	-133.705	48.749	0	336.00	0	4.3590	0	33.8850	0	26.865	0	332.887	0	-1e10	8	-1e10	8	-1E+10	1	-1E+10	1	-1E+10	1	-1E+10	1	-1E+10	1	-1E+10	1
4902554	62	C	10/23/2022	19:07	-133.705	48.749	0	336.90	0	4.3510	0	33.8890	0	26.869	0	333.778	0	-1e10	8	-1e10	8	-1E+10	1	-1E+10	1	-1E+10	1	-1E+10	1	-1E+10	1	-1E+10	1
4902554	62	C	10/23/2022	19:07	-133.705	48.749	0	337.90	0	4.3500	0	33.8900	0	26.869	0	334.768	0	-1e10	8	-1e10	8	-1E+10	1	-1E+10	1	-1E+10	1	-1E+10	1	-1E+10	1	-1E+10	1
4902554	62	C	10/23/2022	19:07	-133.705	48.749	0	338.80	0	4.3480	0	33.8910	0	26.870	0	335.659	0	-1e10	8	-1e10	8	-1E+10	1	-1E+10	1	-1E+10	1	-1E+10	1	-1E+10	1	-1E+10	1
4902554	62	C	10/23/2022	19:07	-133.705	48.749	0	339.80	0	4.3450	0	33.8920	0	26.872	0	336.649	0	-1e10	8	-1e10	8	-1E+10	1	-1E+10	1	-1E+10	1	-1E+10	1	-1E+10	1	-1E+10	1
4902554	62	C	10/23/2022	19:07	-133.705	48.749	0	340.70	0	4.3450	0	33.8920	0	26.872	0	337.540	0	-1e10	8	-1e10	8	-1E+10	1	-1E+10	1	-1E+10	1	-1E+10	1	-1E+10	1	-1E+10	1
4902554	62	C	10/23/2022	19:07	-133.705	48.749	0	341.60	0	4.3440	0	33.8920	0	26.872	0	338.431	0	-1e10	8	-1e10	8	-1E+10	1	-1E+10	1	-1E+10	1	-1E+10	1	-1E+10	1	-1E+10	1
4902554	62	C	10/23/2022	19:07	-133.705	48.749	0	342.60	0	4.3400	0	33.8940	0	26.874	0	339.420	0	-1e10	8	-1e10	8	-1E+10	1	-1E+10	1	-1E+10	1	-1E+10	1	-1E+10	1	-1E+10	1
4902554	62	C	10/23/2022	19:07	-133.705	48.749	0	343.50	0	4.3350	0	33.8970	0	26.877	0	340.311	0	-1e10	8	-1e10	8	-1E+10	1	-1E+10	1	-1E+10	1	-1E+10	1	-1E+10	1	-1E+10	1
4902554	62	C	10/23/2022	19:07	-133.705	48.749	0	344.50	0	4.3280	0	33.9010	0	26.881	0	341.301	0	-1e10	8	-1e10	8	-1E+10	1	-1E+10	1	-1E+10	1	-1E+10	1	-1E+10	1	-1E+10	1
4902554	62	C	10/23/2022	19:07	-133.705	48.749	0	345.90	0	4.3230	0	33.9030	0	26.883	0	342.687	0	-1e10	8	-1e10	8	-1E+10	1	-1E+10	1	-1E+10	1	-1E+10	1	-1E+10	1	-1E+10	1
4902554	62	C	10/23/2022	19:07	-133.705	48.749	0	347.40	0	4.3190	0	33.9060	0	26.886	0	344.172	0	-1e10	8	-1e10	8	-1E+10	1	-1E+10	1	-1E+10	1	-1E+10	1	-1E+10	1	-1E+10	1
4902554	62	C	10/23/2022	19:07	-133.705	48.749	0	348.40	0	4.3160	0	33.9080	0	26.887	0	345.162	0	-1e10	8	-1e10	8	-1E+10	1	-1E+10	1	-1E+10	1	-1E+10	1	-1E+10	1	-1E+10	1
4902554	62	C	10/23/2022	19:07	-133.705	48.749	0	349.30	0	4.3080	0	33.9120	0	26.891	0	346.053	0	-1e10	8	-1e10	8	-1E+10	1	-1E+10	1	-1E+10	1	-1E+10	1	-1E+10	1	-1E+10	1
4902554	62	C	10/23/2022	19:07	-133.705	48.749	0	350.30	0	4.3070	0	33.9130	0	26.892	0	347.042	0	-1e10	8	-1e10	8	-1E+10	1	-1E+10	1	-1E+10	1	-1E+10	1	-1E+10	1	-1E+10	1
4902554	62	C	10/23/2022	19:07	-133.705	48.749	0	353.20	0	4.2980	0	33.9190	0	26.898	0	349.913	0	-1e10	8	-1e10	8	-1E+10	1	-1E+10	1	-1E+10	1	-1E+10	1	-1E+10	1	-1E+10	1
4902554	62	C	10/23/2022	19:07	-133.705	48.749	0	358.10	0	4.2890	0	33.9260	0	26.905	0	354.763	0	-1e10	8	-1e10	8	-1E+10	1	-1E+10	1	-1E+10	1	-1E+10	1	-1E+10	1	-1E+10	1
4902554	62	C	10/23/2022	19:07	-133.705	48.749	0	363.20	0	4.2840	0	33.9320	0	26.910	0	359.811	0	-1e10	8	-1e10	8	-1E+10	1	-1E+10	1	-1E+10	1	-1E+10	1	-1E+10	1	-1E+10	1
4902554	62	C	10/23/2022	19:07	-133.705	48.749	0	367.90	0	4.2770	0	33.9380	0	26.916	0	364.463	0	-1e10	8	-1e10	8	-1E+10	1	-1E+10	1	-1E+10	1	-1E+10	1	-1E+10	1	-1E+10	1
4902554	62	C	10/23/2022	19:07	-133.705	48.749	0	372.60	0	4.2710	0	33.9450	0	26.922	0	369.115	0	-1e10	8	-1e10	8	-1E+10	1	-1E+10	1	-1E+10	1	-1E+10	1	-1E+10	1	-1E+10	1
4902554	62	C	10/23/2022	19:07	-133.705	48.749	0	377.80	0	4.2650	0	33.9530	0	26.929	0	374.262	0	-1e10	8	-1e10	8	-1E+10	1	-1E+10	1	-1E+10	1	-1E+10	1	-1E+10	1	-1E+10	1
4902554	62	C	10/23/2022	19:07	-133.705	48.749	0	383.20	0	4.2610	0	33.9580	0	26.933	0	379.606	0	-1e10	8	-1e10	8	-1E+10	1	-1E+10	1	-1E+10	1	-1E+10	1	-1E+10	1	-1E+10	1
4902554	62	C	10/23/2022	19:07	-133.705	48.749	0	388.10	0	4.2550	0	33.9660	0	26.940	0	384.456	0	-1e10	8	-1e10	8	-1E+10	1	-1E+10	1	-1E+10	1	-1E+10	1	-1E+10	1	-1E+10	1
4902554	62	C	10/23/2022	19:07	-133.705	48.749	0	393.00	0	4.2470	0	33.9710	0	26.945	0	389.305	0	-1e10	8	-1e10	8	-1E+10	1	-1E+10	1	-1E+10	1	-1E+10	1	-1E+10	1	-1E+10	1
4902554	62	C	10/23/2022	19:07	-133.705	48.749	0	398.10	0	4.2400	0	33.9760	0	26.950	0	394.353	0	-1e10	8	-1e10	8	-1E+10	1	-1E+10	1	-1E+10	1	-1E+10	1	-1E+10	1	-1E+10	1
4902554	62	C	10/23/2022	19:07	-133.705	48.749	0	402.90	0	4.2380	0	33.9820	0	26.955	0	399.103	0	-1e10	8	-1e10	8	-1E+10	1	-1E+10	1	-1E+10	1	-1E+10	1	-1E+10	1	-1E+10	1
4902554	62	C	10/23/2022	19:07	-133.705	48.749	0	407.70	0	4.2340	0	33.9850	0	26.958	0	403.853	0	-1e10	8	-1e10	8	-1E+10	1	-1E+10	1	-1E+10	1	-1E+10	1	-1E+10	1	-1E+10	1
4902554	62	C	10/23/2022	19:07	-133.705	48.749	0	412.90	0	4.2330	0	33.9880	0	26.960	0	408.999	0	-1e10	8	-1e10	8	-1E+10	1	-1E+10	1	-1E+10	1	-1E+10	1	-1E+10	1	-1E+10	1
4902554	62	C	10/23/2022	19:07	-133.705	48.749	0	417.80	0	4.2300	0	33.9930	0	26.965	0	413.847	0	-1e10	8	-1e10	8	-1E+10	1	-1E+10	1	-1E+10	1	-1E+10	1	-1E+10	1	-1E+10	1
4902554	62	C	10/23/2022	19:07	-133.705	48.749	0	422.70	0	4.2280	0	33.9950	0	26.966	0	418.696	0	-1e10	8	-1e10	8	-1E+10	1	-1E+10	1	-1E+10	1	-1E+10	1	-1E+10	1	-1E+10	1
4902554	62	C	10/23/2022	19:07	-133.705	48.749	0	428.00	0	4.2230	0	34.0010	0	26.972	0	423.941	0	-1e10	8	-1e10	8	-1E+10	1	-1E+10	1	-1E+10	1	-1E+10	1	-1E+10	1	-1E+10	1
4902554	62	C	10/23/2022	19:07	-133.705	48.749	0	433.00	0	4.2200	0	34.0030	0	26.974	0	428.888	0	-1e10	8	-1e10	8	-1E+10	1	-1E+10	1	-1E+10	1	-1E+10	1	-1E+10	1	-1E+10	1
4902554	62	C	10/23/2022	19:07	-133.705	48.749	0	438.00	0	4.2160	0	34.0060	0	26.976	0	433.835	0	-1e10	8	-1e10	8	-1E+10	1	-1E+10	1	-1E+10	1	-1E+10	1	-1E+10	1	-1E+10	1
4902554	62	C	10/23/2022	19:07	-133.705	48.749	0	443.00	0	4.2080	0	34.0130	0	26.983	0	438.782	0	-1e10	8	-1e10	8	-1E+10	1	-1E+10	1	-1E+10	1	-1E+10	1	-1E+10	1	-1E+10	1
4902554	62	C	10/23/2022	19:07	-133.705	48.749	0	447.90	0	4.2020	0	34.0180	0	26.988	0	443.631	0	-1e10	8	-1e10	8	-1E+10	1	-1E+10	1	-1E+10	1	-1E+10	1	-1E+10	1	-1E+10	1
4902554	62	C	10/23/2022	19:07	-133.705	48.749	0	452.90	0	4.1960	0	34.0220	0	26.991	0	448.577	0	-1e10	8	-1e10	8	-1E+10	1	-1E+10	1	-1E+10	1	-1E+10	1	-1E+10	1	-1E+10	1
4902554	62	C	10/23/2022	19:07	-133.705	48.749	0	458.00	0	4.1850	0	34.0280	0	26.997	0	453.623	0	-1e10	8	-1e10	8	-1E+10	1	-1E+10	1	-1E+10	1	-1E+10	1	-1E+10	1	-1E+10	1
4902554	62	C	10/23/2022	19:07	-133.705	48.749	0	463.10	0	4.1770	0	34.0350	0	27.004	0	458.669	0	-1e10	8	-1e10	8	-1E+10	1	-1E+10	1	-1E+10	1	-1E+10	1	-1E+10	1	-1E+10	1
4902554	62	C	10/23/2022	19:07	-133.705	48.749	0	467.70	0	4.1700	0	34.0400	0	27.009	0	463.220	0	-1e10	8	-1e10	8	-1E+10	1	-1E+10	1	-1E+10	1	-1E+10	1	-1E+10	1	-1E+10	1
4902554	62	C	10/23/2022	19:07	-133.705	48.749	0	472.90	0	4.1580	0	34.0460	0	27.015	0	468.364	0	-1e10	8	-1e10	8	-1E+10	1	-1E+10	1	-1E+10	1	-1E+10	1	-1E+10	1	-1E+10	1
4902554	62	C	10/23/2022	19:07	-133.705	48.749	0	478.10	0	4.1450	0	34.0530	0	27.022	0	473.508	0	-1e10	8	-1e10	8	-1E+10	1	-1E+10	1	-1E+10	1	-1E+10	1	-1E+10	1	-1E+10	1
4902554	62	C	10/23/2022	19:07	-133.705	48.749	0	482.70	0	4.1350	0	34.0590	0	27.027	0	478.059	0	-1e10	8	-1e10	8	-1E+10	1	-1E+10	1	-1E+10	1	-1E+10	1	-1E+10	1	-1E+10	1
4902554	62	C	10/23/2022	19:07	-133.705	48.749	0	487.80	0	4.1200	0	34.0650	0	27.034	0	483.104	0	-1e10	8	-1e10	8	-1E+10	1	-1E+10	1	-1E+10	1	-1E+10	1	-1E+10	1	-1E+10	1
4902554	62	C	10/23/2022	19:07	-133.705	48.749	0	493.00	0	4.1150	0	34.0680	0	27.037	0	488.248	0	-1e10	8	-1e10	8	-1E+10	1	-1E+10	1	-1E+10	1	-1E+10	1	-1E+10	1	-1E+10	1
4902554	62	C	10/23/2022	19:07	-133.705	48.749	0	497.80	0	4.1080	0	34.0710	0	27.040	0	492.996	0	-1e10	8	-1e10	8	-1E+10	1	-1E+10	1	-1E+10	1	-1E+10	1	-1E+10	1	-1E+10	1
4902554	62	C	10/23/2022	19:07	-133.705	48.749	0	502.80	0	4.0970	0	34.0780	0	27.047	0	497.941	0	-1e10	8	-1e10	8	-1E+10	1	-1E+10	1	-1E+10	1	-1E+10	1	-1E+10	1	-1E+10	1
4902554	62	C	10/23/2022	19:07	-133.705	48.749	0	507.80	0	4.0920	0	34.0810	0	27.049	0	502.887	0	-1e10	8	-1e10	8	-1E+10	1	-1E+10	1	-1E+10	1	-1E+10	1	-1E+10	1	-1E+10	1
4902554	62	C	10/23/2022	19:07	-133.705	48.749	0	513.10	0	4.0820	0	34.0860	0	27.055	0	508.129	0	-1e10	8	-1e10	8	-1E+10	1	-1E+10	1	-1E+10	1	-1E+10	1	-1E+10	1	-1E+10	1
4902554	62	C	10/23/2022	19:07	-133.705	48.749	0	518.10	0	4.0730	0	34.0910	0	27.059	0	513.075	0	-1e10	8	-1e10	8	-1E+10	1	-1E+10	1	-1E+10	1	-1E+10	1	-1E+10	1	-1E+10	1
4902554	62	C	10/23/2022	19:07	-133.705	48.749	0	522.70	0	4.0640	0	34.0920	0	27.061	0	517.624	0	-1e10	8	-1e10	8	-1E+10	1	-1E+10	1	-1E+10	1	-1E+10	1	-1E+10	1	-1E+10	1
4902554	62	C	10/23/2022	19:07	-133.705	48.749	0	527.90	0	4.0600	0	34.0970	0	27.066	0	522.767	0	-1e10	8	-1e10	8	-1E+10	1	-1E+10	1	-1E+10	1	-1E+10	1	-1E+10	1	-1E+10	1
4902554	62	C	10/23/2022	19:07	-133.705	48.749	0	533.30	0	4.0470	0	34.1020	0	27.071	0	528.108	0	-1e10	8	-1e10	8	-1E+10	1	-1E+10	1	-1E+10	1	-1E+10	1	-1E+10	1	-1E+10	1
4902554	62	C	10/23/2022	19:07	-133.705	48.749	0	538.20	0	4.0350	0	34.1060	0	27.075	0	532.954	0	-1e10	8	-1e10	8	-1E+10	1	-1E+10	1	-1E+10	1	-1E+10	1	-1E+10	1	-1E+10	1
4902554	62	C	10/23/2022	19:07	-133.705	48.749	0	543.20	0	4.0220	0	34.1110	0	27.081	0	537.899	0	-1e10	8	-1e10	8	-1E+10	1	-1E+10	1	-1E+10	1	-1E+10	1	-1E+10	1	-1E+10	1
4902554	62	C	10/23/2022	19:07	-133.705	48.749	0	548.30	0	4.0160	0	34.1130	0	27.083	0	542.942	0	-1e10	8	-1e10	8	-1E+10	1	-1E+10	1	-1E+10	1	-1E+10	1	-1E+10	1	-1E+10	1
4902554	62	C	10/23/2022	19:07	-133.705	48.749	0	553.30	0	4.0050	0	34.1170	0	27.087	0	547.887	0	-1e10	8	-1e10	8	-1E+10	1	-1E+10	1	-1E+10	1	-1E+10	1	-1E+10	1	-1E+10	1
4902554	62	C	10/23/2022	19:07	-133.705	48.749	0	557.90	0	3.9930	0	34.1220	0	27.093	0	552.436	0	-1e10	8	-1e10	8	-1E+10	1	-1E+10	1	-1E+10	1	-1E+10	1	-1E+10	1	-1E+10	1
4902554	62	C	10/23/2022	19:07	-133.705	48.749	0	562.60	0	3.9780	0	34.1280	0	27.099	0	557.084	0	-1e10	8	-1e10	8	-1E+10	1	-1E+10	1	-1E+10	1	-1E+10	1	-1E+10	1	-1E+10	1
4902554	62	C	10/23/2022	19:07	-133.705	48.749	0	567.80	0	3.9720	0	34.1310	0	27.102	0	562.226	0	-1e10	8	-1e10	8	-1E+10	1	-1E+10	1	-1E+10	1	-1E+10	1	-1E+10	1	-1E+10	1
4902554	62	C	10/23/2022	19:07	-133.705	48.749	0	573.10	0	3.9690	0	34.1330	0	27.104	0	567.466	0	-1e10	8	-1e10	8	-1E+10	1	-1E+10	1	-1E+10	1	-1E+10	1	-1E+10	1	-1E+10	1
4902554	62	C	10/23/2022	19:07	-133.705	48.749	0	577.80	0	3.9550	0	34.1390	0	27.110	0	572.114	0	-1e10	8	-1e10	8	-1E+10	1	-1E+10	1	-1E+10	1	-1E+10	1	-1E+10	1	-1E+10	1
4902554	62	C	10/23/2022	19:07	-133.705	48.749	0	582.50	0	3.9480	0	34.1420	0	27.113	0	576.761	0	-1e10	8	-1e10	8	-1E+10	1	-1E+10	1	-1E+10	1	-1E+10	1	-1E+10	1	-1E+10	1
4902554	62	C	10/23/2022	19:07	-133.705	48.749	0	587.70	0	3.9460	0	34.1430	0	27.114	0	581.902	0	-1e10	8	-1e10	8	-1E+10	1	-1E+10	1	-1E+10	1	-1E+10	1	-1E+10	1	-1E+10	1
4902554	62	C	10/23/2022	19:07	-133.705	48.749	0	592.90	0	3.9440	0	34.1430	0	27.115	0	587.044	0	-1e10	8	-1e10	8	-1E+10	1	-1E+10	1	-1E+10	1	-1E+10	1	-1E+10	1	-1E+10	1
4902554	62	C	10/23/2022	19:07	-133.705	48.749	0	598.10	0	3.9390	0	34.1460	0	27.117	0	592.185	0	-1e10	8	-1e10	8	-1E+10	1	-1E+10	1	-1E+10	1	-1E+10	1	-1E+10	1	-1E+10	1
4902554	62	C	10/23/2022	19:07	-133.705	48.749	0	603.30	0	3.9300	0	34.1480	0	27.120	0	597.326	0	-1e10	8	-1e10	8	-1E+10	1	-1E+10	1	-1E+10	1	-1E+10	1	-1E+10	1	-1E+10	1
4902554	62	C	10/23/2022	19:07	-133.705	48.749	0	608.30	0	3.9240	0	34.1500	0	27.122	0	602.269	0	-1e10	8	-1e10	8	-1E+10	1	-1E+10	1	-1E+10	1	-1E+10	1	-1E+10	1	-1E+10	1
4902554	62	C	10/23/2022	19:07	-133.705	48.749	0	613.30	0	3.9100	0	34.1550	0	27.128	0	607.212	0	-1e10	8	-1e10	8	-1E+10	1	-1E+10	1	-1E+10	1	-1E+10	1	-1E+10	1	-1E+10	1
4902554	62	C	10/23/2022	19:07	-133.705	48.749	0	618.30	0	3.8950	0	34.1620	0	27.135	0	612.155	0	-1e10	8	-1e10	8	-1E+10	1	-1E+10	1	-1E+10	1	-1E+10	1	-1E+10	1	-1E+10	1
4902554	62	C	10/23/2022	19:07	-133.705	48.749	0	623.30	0	3.8890	0	34.1650	0	27.138	0	617.098	0	-1e10	8	-1e10	8	-1E+10	1	-1E+10	1	-1E+10	1	-1E+10	1	-1E+10	1	-1E+10	1
4902554	62	C	10/23/2022	19:07	-133.705	48.749	0	628.30	0	3.8830	0	34.1660	0	27.139	0	622.041	0	-1e10	8	-1e10	8	-1E+10	1	-1E+10	1	-1E+10	1	-1E+10	1	-1E+10	1	-1E+10	1
4902554	62	C	10/23/2022	19:07	-133.705	48.749	0	633.20	0	3.8730	0	34.1700	0	27.143	0	626.885	0	-1e10	8	-1e10	8	-1E+10	1	-1E+10	1	-1E+10	1	-1E+10	1	-1E+10	1	-1E+10	1
4902554	62	C	10/23/2022	19:07	-133.705	48.749	0	638.30	0	3.8670	0	34.1730	0	27.147	0	631.926	0	-1e10	8	-1e10	8	-1E+10	1	-1E+10	1	-1E+10	1	-1E+10	1	-1E+10	1	-1E+10	1
4902554	62	C	10/23/2022	19:07	-133.705	48.749	0	643.10	0	3.8620	0	34.1750	0	27.149	0	636.671	0	-1e10	8	-1e10	8	-1E+10	1	-1E+10	1	-1E+10	1	-1E+10	1	-1E+10	1	-1E+10	1
4902554	62	C	10/23/2022	19:07	-133.705	48.749	0	648.00	0	3.8510	0	34.1760	0	27.151	0	641.515	0	-1e10	8	-1e10	8	-1E+10	1	-1E+10	1	-1E+10	1	-1E+10	1	-1E+10	1	-1E+10	1
4902554	62	C	10/23/2022	19:07	-133.705	48.749	0	652.80	0	3.8420	0	34.1780	0	27.153	0	646.259	0	-1e10	8	-1e10	8	-1E+10	1	-1E+10	1	-1E+10	1	-1E+10	1	-1E+10	1	-1E+10	1
4902554	62	C	10/23/2022	19:07	-133.705	48.749	0	657.60	0	3.8380	0	34.1790	0	27.154	0	651.004	0	-1e10	8	-1e10	8	-1E+10	1	-1E+10	1	-1E+10	1	-1E+10	1	-1E+10	1	-1E+10	1
4902554	62	C	10/23/2022	19:07	-133.705	48.749	0	662.80	0	3.8230	0	34.1860	0	27.161	0	656.143	0	-1e10	8	-1e10	8	-1E+10	1	-1E+10	1	-1E+10	1	-1E+10	1	-1E+10	1	-1E+10	1
4902554	62	C	10/23/2022	19:07	-133.705	48.749	0	668.20	0	3.8150	0	34.1910	0	27.166	0	661.480	0	-1e10	8	-1e10	8	-1E+10	1	-1E+10	1	-1E+10	1	-1E+10	1	-1E+10	1	-1E+10	1
4902554	62	C	10/23/2022	19:07	-133.705	48.749	0	673.10	0	3.8090	0	34.1940	0	27.169	0	666.323	0	-1e10	8	-1e10	8	-1E+10	1	-1E+10	1	-1E+10	1	-1E+10	1	-1E+10	1	-1E+10	1
4902554	62	C	10/23/2022	19:07	-133.705	48.749	0	678.00	0	3.8050	0	34.1970	0	27.172	0	671.166	0	-1e10	8	-1e10	8	-1E+10	1	-1E+10	1	-1E+10	1	-1E+10	1	-1E+10	1	-1E+10	1
4902554	62	C	10/23/2022	19:07	-133.705	48.749	0	683.00	0	3.7980	0	34.1990	0	27.174	0	676.108	0	-1e10	8	-1e10	8	-1E+10	1	-1E+10	1	-1E+10	1	-1E+10	1	-1E+10	1	-1E+10	1
4902554	62	C	10/23/2022	19:07	-133.705	48.749	0	688.00	0	3.7910	0	34.2020	0	27.178	0	681.049	0	-1e10	8	-1e10	8	-1E+10	1	-1E+10	1	-1E+10	1	-1E+10	1	-1E+10	1	-1E+10	1
4902554	62	C	10/23/2022	19:07	-133.705	48.749	0	692.90	0	3.7860	0	34.2040	0	27.180	0	685.891	0	-1e10	8	-1e10	8	-1E+10	1	-1E+10	1	-1E+10	1	-1E+10	1	-1E+10	1	-1E+10	1
4902554	62	C	10/23/2022	19:07	-133.705	48.749	0	697.80	0	3.7770	0	34.2070	0	27.183	0	690.734	0	-1e10	8	-1e10	8	-1E+10	1	-1E+10	1	-1E+10	1	-1E+10	1	-1E+10	1	-1E+10	1
4902554	62	C	10/23/2022	19:07	-133.705	48.749	0	702.70	0	3.7600	0	34.2110	0	27.188	0	695.576	0	-1e10	8	-1e10	8	-1E+10	1	-1E+10	1	-1E+10	1	-1E+10	1	-1E+10	1	-1E+10	1
4902554	62	C	10/23/2022	19:07	-133.705	48.749	0	707.50	0	3.7500	0	34.2130	0	27.191	0	700.319	0	-1e10	8	-1e10	8	-1E+10	1	-1E+10	1	-1E+10	1	-1E+10	1	-1E+10	1	-1E+10	1
4902554	62	C	10/23/2022	19:07	-133.705	48.749	0	712.90	0	3.7260	0	34.2200	0	27.198	0	705.655	0	-1e10	8	-1e10	8	-1E+10	1	-1E+10	1	-1E+10	1	-1E+10	1	-1E+10	1	-1E+10	1
4902554	62	C	10/23/2022	19:07	-133.705	48.749	0	718.30	0	3.7170	0	34.2230	0	27.202	0	710.991	0	-1e10	8	-1e10	8	-1E+10	1	-1E+10	1	-1E+10	1	-1E+10	1	-1E+10	1	-1E+10	1
4902554	62	C	10/23/2022	19:07	-133.705	48.749	0	723.20	0	3.6910	0	34.2300	0	27.210	0	715.833	0	-1e10	8	-1e10	8	-1E+10	1	-1E+10	1	-1E+10	1	-1E+10	1	-1E+10	1	-1E+10	1
4902554	62	C	10/23/2022	19:07	-133.705	48.749	0	728.20	0	3.6690	0	34.2350	0	27.216	0	720.773	0	-1e10	8	-1e10	8	-1E+10	1	-1E+10	1	-1E+10	1	-1E+10	1	-1E+10	1	-1E+10	1
4902554	62	C	10/23/2022	19:07	-133.705	48.749	0	733.10	0	3.6480	0	34.2400	0	27.222	0	725.615	0	-1e10	8	-1e10	8	-1E+10	1	-1E+10	1	-1E+10	1	-1E+10	1	-1E+10	1	-1E+10	1
4902554	62	C	10/23/2022	19:07	-133.705	48.749	0	738.20	0	3.6320	0	34.2430	0	27.226	0	730.654	0	-1e10	8	-1e10	8	-1E+10	1	-1E+10	1	-1E+10	1	-1E+10	1	-1E+10	1	-1E+10	1
4902554	62	C	10/23/2022	19:07	-133.705	48.749	0	743.20	0	3.6090	0	34.2480	0	27.232	0	735.594	0	-1e10	8	-1e10	8	-1E+10	1	-1E+10	1	-1E+10	1	-1E+10	1	-1E+10	1	-1E+10	1
4902554	62	C	10/23/2022	19:07	-133.705	48.749	0	748.20	0	3.5940	0	34.2520	0	27.237	0	740.534	0	-1e10	8	-1e10	8	-1E+10	1	-1E+10	1	-1E+10	1	-1E+10	1	-1E+10	1	-1E+10	1
4902554	62	C	10/23/2022	19:07	-133.705	48.749	0	753.20	0	3.5810	0	34.2550	0	27.241	0	745.474	0	-1e10	8	-1e10	8	-1E+10	1	-1E+10	1	-1E+10	1	-1E+10	1	-1E+10	1	-1E+10	1
4902554	62	C	10/23/2022	19:07	-133.705	48.749	0	757.80	0	3.5680	0	34.2580	0	27.244	0	750.018	0	-1e10	8	-1e10	8	-1E+10	1	-1E+10	1	-1E+10	1	-1E+10	1	-1E+10	1	-1E+10	1
4902554	62	C	10/23/2022	19:07	-133.705	48.749	0	762.50	0	3.5480	0	34.2630	0	27.250	0	754.662	0	-1e10	8	-1e10	8	-1E+10	1	-1E+10	1	-1E+10	1	-1E+10	1	-1E+10	1	-1E+10	1
4902554	62	C	10/23/2022	19:07	-133.705	48.749	0	767.90	0	3.5320	0	34.2660	0	27.254	0	759.996	0	-1e10	8	-1e10	8	-1E+10	1	-1E+10	1	-1E+10	1	-1E+10	1	-1E+10	1	-1E+10	1
4902554	62	C	10/23/2022	19:07	-133.705	48.749	0	772.80	0	3.5100	0	34.2710	0	27.261	0	764.837	0	-1e10	8	-1e10	8	-1E+10	1	-1E+10	1	-1E+10	1	-1E+10	1	-1E+10	1	-1E+10	1
4902554	62	C	10/23/2022	19:07	-133.705	48.749	0	777.70	0	3.4960	0	34.2740	0	27.264	0	769.677	0	-1e10	8	-1e10	8	-1E+10	1	-1E+10	1	-1E+10	1	-1E+10	1	-1E+10	1	-1E+10	1
4902554	62	C	10/23/2022	19:07	-133.705	48.749	0	782.60	0	3.4900	0	34.2760	0	27.267	0	774.518	0	-1e10	8	-1e10	8	-1E+10	1	-1E+10	1	-1E+10	1	-1E+10	1	-1E+10	1	-1E+10	1
4902554	62	C	10/23/2022	19:07	-133.705	48.749	0	787.60	0	3.4760	0	34.2790	0	27.270	0	779.457	0	-1e10	8	-1e10	8	-1E+10	1	-1E+10	1	-1E+10	1	-1E+10	1	-1E+10	1	-1E+10	1
4902554	62	C	10/23/2022	19:07	-133.705	48.749	0	792.70	0	3.4660	0	34.2820	0	27.274	0	784.494	0	-1e10	8	-1e10	8	-1E+10	1	-1E+10	1	-1E+10	1	-1E+10	1	-1E+10	1	-1E+10	1
4902554	62	C	10/23/2022	19:07	-133.705	48.749	0	797.90	0	3.4650	0	34.2830	0	27.275	0	789.631	0	-1e10	8	-1e10	8	-1E+10	1	-1E+10	1	-1E+10	1	-1E+10	1	-1E+10	1	-1E+10	1
4902554	62	C	10/23/2022	19:07	-133.705	48.749	0	803.10	0	3.4590	0	34.2840	0	27.276	0	794.767	0	-1e10	8	-1e10	8	-1E+10	1	-1E+10	1	-1E+10	1	-1E+10	1	-1E+10	1	-1E+10	1
4902554	62	C	10/23/2022	19:07	-133.705	48.749	0	807.90	0	3.4410	0	34.2880	0	27.281	0	799.508	0	-1e10	8	-1e10	8	-1E+10	1	-1E+10	1	-1E+10	1	-1E+10	1	-1E+10	1	-1E+10	1
4902554	62	C	10/23/2022	19:07	-133.705	48.749	0	812.80	0	3.4250	0	34.2910	0	27.285	0	804.348	0	-1e10	8	-1e10	8	-1E+10	1	-1E+10	1	-1E+10	1	-1E+10	1	-1E+10	1	-1E+10	1
4902554	62	C	10/23/2022	19:07	-133.705	48.749	0	817.70	0	3.4090	0	34.2930	0	27.288	0	809.187	0	-1e10	8	-1e10	8	-1E+10	1	-1E+10	1	-1E+10	1	-1E+10	1	-1E+10	1	-1E+10	1
4902554	62	C	10/23/2022	19:07	-133.705	48.749	0	822.70	0	3.4030	0	34.2930	0	27.289	0	814.125	0	-1e10	8	-1e10	8	-1E+10	1	-1E+10	1	-1E+10	1	-1E+10	1	-1E+10	1	-1E+10	1
4902554	62	C	10/23/2022	19:07	-133.705	48.749	0	827.70	0	3.3940	0	34.2950	0	27.291	0	819.063	0	-1e10	8	-1e10	8	-1E+10	1	-1E+10	1	-1E+10	1	-1E+10	1	-1E+10	1	-1E+10	1
4902554	62	C	10/23/2022	19:07	-133.705	48.749	0	832.70	0	3.3790	0	34.2970	0	27.294	0	824.001	0	-1e10	8	-1e10	8	-1E+10	1	-1E+10	1	-1E+10	1	-1E+10	1	-1E+10	1	-1E+10	1
4902554	62	C	10/23/2022	19:07	-133.705	48.749	0	837.70	0	3.3660	0	34.3010	0	27.299	0	828.939	0	-1e10	8	-1e10	8	-1E+10	1	-1E+10	1	-1E+10	1	-1E+10	1	-1E+10	1	-1E+10	1
4902554	62	C	10/23/2022	19:07	-133.705	48.749	0	842.80	0	3.3550	0	34.3030	0	27.301	0	833.976	0	-1e10	8	-1e10	8	-1E+10	1	-1E+10	1	-1E+10	1	-1E+10	1	-1E+10	1	-1E+10	1
4902554	62	C	10/23/2022	19:07	-133.705	48.749	0	847.80	0	3.3470	0	34.3050	0	27.304	0	838.913	0	-1e10	8	-1e10	8	-1E+10	1	-1E+10	1	-1E+10	1	-1E+10	1	-1E+10	1	-1E+10	1
4902554	62	C	10/23/2022	19:07	-133.705	48.749	0	853.00	0	3.3400	0	34.3070	0	27.306	0	844.048	0	-1e10	8	-1e10	8	-1E+10	1	-1E+10	1	-1E+10	1	-1E+10	1	-1E+10	1	-1E+10	1
4902554	62	C	10/23/2022	19:07	-133.705	48.749	0	858.30	0	3.3330	0	34.3080	0	27.307	0	849.282	0	-1e10	8	-1e10	8	-1E+10	1	-1E+10	1	-1E+10	1	-1E+10	1	-1E+10	1	-1E+10	1
4902554	62	C	10/23/2022	19:07	-133.705	48.749	0	863.10	0	3.3320	0	34.3090	0	27.308	0	854.022	0	-1e10	8	-1e10	8	-1E+10	1	-1E+10	1	-1E+10	1	-1E+10	1	-1E+10	1	-1E+10	1
4902554	62	C	10/23/2022	19:07	-133.705	48.749	0	867.90	0	3.3300	0	34.3100	0	27.309	0	858.762	0	-1e10	8	-1e10	8	-1E+10	1	-1E+10	1	-1E+10	1	-1E+10	1	-1E+10	1	-1E+10	1
4902554	62	C	10/23/2022	19:07	-133.705	48.749	0	872.70	0	3.3230	0	34.3110	0	27.311	0	863.501	0	-1e10	8	-1e10	8	-1E+10	1	-1E+10	1	-1E+10	1	-1E+10	1	-1E+10	1	-1E+10	1
4902554	62	C	10/23/2022	19:07	-133.705	48.749	0	877.50	0	3.3050	0	34.3140	0	27.315	0	868.240	0	-1e10	8	-1e10	8	-1E+10	1	-1E+10	1	-1E+10	1	-1E+10	1	-1E+10	1	-1E+10	1
4902554	62	C	10/23/2022	19:07	-133.705	48.749	0	882.90	0	3.2880	0	34.3170	0	27.319	0	873.572	0	-1e10	8	-1e10	8	-1E+10	1	-1E+10	1	-1E+10	1	-1E+10	1	-1E+10	1	-1E+10	1
4902554	62	C	10/23/2022	19:07	-133.705	48.749	0	888.40	0	3.2660	0	34.3220	0	27.325	0	879.003	0	-1e10	8	-1e10	8	-1E+10	1	-1E+10	1	-1E+10	1	-1E+10	1	-1E+10	1	-1E+10	1
4902554	62	C	10/23/2022	19:07	-133.705	48.749	0	893.30	0	3.2520	0	34.3250	0	27.329	0	883.840	0	-1e10	8	-1e10	8	-1E+10	1	-1E+10	1	-1E+10	1	-1E+10	1	-1E+10	1	-1E+10	1
4902554	62	C	10/23/2022	19:07	-133.705	48.749	0	898.30	0	3.2490	0	34.3260	0	27.330	0	888.777	0	-1e10	8	-1e10	8	-1E+10	1	-1E+10	1	-1E+10	1	-1E+10	1	-1E+10	1	-1E+10	1
4902554	62	C	10/23/2022	19:07	-133.705	48.749	0	903.40	0	3.2350	0	34.3290	0	27.334	0	893.812	0	-1e10	8	-1e10	8	-1E+10	1	-1E+10	1	-1E+10	1	-1E+10	1	-1E+10	1	-1E+10	1
4902554	62	C	10/23/2022	19:07	-133.705	48.749	0	907.90	0	3.2240	0	34.3300	0	27.335	0	898.254	0	-1e10	8	-1e10	8	-1E+10	1	-1E+10	1	-1E+10	1	-1E+10	1	-1E+10	1	-1E+10	1
4902554	62	C	10/23/2022	19:07	-133.705	48.749	0	912.50	0	3.2000	0	34.3340	0	27.341	0	902.796	0	-1e10	8	-1e10	8	-1E+10	1	-1E+10	1	-1E+10	1	-1E+10	1	-1E+10	1	-1E+10	1
4902554	62	C	10/23/2022	19:07	-133.705	48.749	0	917.70	0	3.1800	0	34.3390	0	27.347	0	907.929	0	-1e10	8	-1e10	8	-1E+10	1	-1E+10	1	-1E+10	1	-1E+10	1	-1E+10	1	-1E+10	1
4902554	62	C	10/23/2022	19:07	-133.705	48.749	0	923.10	0	3.1700	0	34.3420	0	27.350	0	913.260	0	-1e10	8	-1e10	8	-1E+10	1	-1E+10	1	-1E+10	1	-1E+10	1	-1E+10	1	-1E+10	1
4902554	62	C	10/23/2022	19:07	-133.705	48.749	0	928.00	0	3.1700	0	34.3420	0	27.350	0	918.097	0	-1e10	8	-1e10	8	-1E+10	1	-1E+10	1	-1E+10	1	-1E+10	1	-1E+10	1	-1E+10	1
4902554	62	C	10/23/2022	19:07	-133.705	48.749	0	932.80	0	3.1620	0	34.3430	0	27.352	0	922.835	0	-1e10	8	-1e10	8	-1E+10	1	-1E+10	1	-1E+10	1	-1E+10	1	-1E+10	1	-1E+10	1
4902554	62	C	10/23/2022	19:07	-133.705	48.749	0	937.70	0	3.1500	0	34.3450	0	27.354	0	927.672	0	-1e10	8	-1e10	8	-1E+10	1	-1E+10	1	-1E+10	1	-1E+10	1	-1E+10	1	-1E+10	1
4902554	62	C	10/23/2022	19:07	-133.705	48.749	0	942.60	0	3.1390	0	34.3460	0	27.356	0	932.509	0	-1e10	8	-1e10	8	-1E+10	1	-1E+10	1	-1E+10	1	-1E+10	1	-1E+10	1	-1E+10	1
4902554	62	C	10/23/2022	19:07	-133.705	48.749	0	947.60	0	3.1290	0	34.3480	0	27.359	0	937.444	0	-1e10	8	-1e10	8	-1E+10	1	-1E+10	1	-1E+10	1	-1E+10	1	-1E+10	1	-1E+10	1
4902554	62	C	10/23/2022	19:07	-133.705	48.749	0	952.70	0	3.1170	0	34.3520	0	27.363	0	942.478	0	-1e10	8	-1e10	8	-1E+10	1	-1E+10	1	-1E+10	1	-1E+10	1	-1E+10	1	-1E+10	1
4902554	62	C	10/23/2022	19:07	-133.705	48.749	0	957.90	0	3.1130	0	34.3540	0	27.365	0	947.610	0	-1e10	8	-1e10	8	-1E+10	1	-1E+10	1	-1E+10	1	-1E+10	1	-1E+10	1	-1E+10	1
4902554	62	C	10/23/2022	19:07	-133.705	48.749	0	963.00	0	3.1000	0	34.3550	0	27.367	0	952.644	0	-1e10	8	-1e10	8	-1E+10	1	-1E+10	1	-1E+10	1	-1E+10	1	-1E+10	1	-1E+10	1
4902554	62	C	10/23/2022	19:07	-133.705	48.749	0	967.90	0	3.0910	0	34.3580	0	27.370	0	957.480	0	-1e10	8	-1e10	8	-1E+10	1	-1E+10	1	-1E+10	1	-1E+10	1	-1E+10	1	-1E+10	1
4902554	62	C	10/23/2022	19:07	-133.705	48.749	0	972.70	0	3.0780	0	34.3610	0	27.374	0	962.217	0	-1e10	8	-1e10	8	-1E+10	1	-1E+10	1	-1E+10	1	-1E+10	1	-1E+10	1	-1E+10	1
4902554	62	C	10/23/2022	19:07	-133.705	48.749	0	978.00	0	3.0610	0	34.3630	0	27.377	0	967.448	0	-1e10	8	-1e10	8	-1E+10	1	-1E+10	1	-1E+10	1	-1E+10	1	-1E+10	1	-1E+10	1
4902554	62	C	10/23/2022	19:07	-133.705	48.749	0	982.90	0	3.0530	0	34.3650	0	27.379	0	972.284	0	-1e10	8	-1e10	8	-1E+10	1	-1E+10	1	-1E+10	1	-1E+10	1	-1E+10	1	-1E+10	1
4902554	62	C	10/23/2022	19:07	-133.705	48.749	0	987.70	0	3.0430	0	34.3680	0	27.383	0	977.021	0	-1e10	8	-1e10	8	-1E+10	1	-1E+10	1	-1E+10	1	-1E+10	1	-1E+10	1	-1E+10	1
4902554	62	C	10/23/2022	19:07	-133.705	48.749	0	993.00	0	3.0370	0	34.3700	0	27.385	0	982.251	0	-1e10	8	-1e10	8	-1E+10	1	-1E+10	1	-1E+10	1	-1E+10	1	-1E+10	1	-1E+10	1
4902554	62	C	10/23/2022	19:07	-133.705	48.749	0	998.00	0	3.0330	0	34.3710	0	27.386	0	987.185	0	-1e10	8	-1e10	8	-1E+10	1	-1E+10	1	-1E+10	1	-1E+10	1	-1E+10	1	-1E+10	1
4902554	62	C	10/23/2022	19:07	-133.705	48.749	0	1005.20	0	3.0270	0	34.3710	0	27.387	0	994.290	0	-1e10	8	-1e10	8	-1E+10	1	-1E+10	1	-1E+10	1	-1E+10	1	-1E+10	1	-1E+10	1
4902554	62	C	10/23/2022	19:07	-133.705	48.749	0	1015.30	0	3.0060	0	34.3760	0	27.393	0	1004.256	0	-1e10	8	-1e10	8	-1E+10	1	-1E+10	1	-1E+10	1	-1E+10	1	-1E+10	1	-1E+10	1
4902554	62	C	10/23/2022	19:07	-133.705	48.749	0	1025.20	0	2.9940	0	34.3780	0	27.395	0	1014.024	0	-1e10	8	-1e10	8	-1E+10	1	-1E+10	1	-1E+10	1	-1E+10	1	-1E+10	1	-1E+10	1
4902554	62	C	10/23/2022	19:07	-133.705	48.749	0	1035.30	0	2.9800	0	34.3810	0	27.399	0	1023.990	0	-1e10	8	-1e10	8	-1E+10	1	-1E+10	1	-1E+10	1	-1E+10	1	-1E+10	1	-1E+10	1
4902554	62	C	10/23/2022	19:07	-133.705	48.749	0	1045.50	0	2.9680	0	34.3830	0	27.402	0	1034.053	0	-1e10	8	-1e10	8	-1E+10	1	-1E+10	1	-1E+10	1	-1E+10	1	-1E+10	1	-1E+10	1
4902554	62	C	10/23/2022	19:07	-133.705	48.749	0	1055.10	0	2.9590	0	34.3850	0	27.404	0	1043.524	0	-1e10	8	-1e10	8	-1E+10	1	-1E+10	1	-1E+10	1	-1E+10	1	-1E+10	1	-1E+10	1
4902554	62	C	10/23/2022	19:07	-133.705	48.749	0	1065.20	0	2.9420	0	34.3880	0	27.408	0	1053.488	0	-1e10	8	-1e10	8	-1E+10	1	-1E+10	1	-1E+10	1	-1E+10	1	-1E+10	1	-1E+10	1
4902554	62	C	10/23/2022	19:07	-133.705	48.749	0	1075.40	0	2.9310	0	34.3920	0	27.413	0	1063.550	0	-1e10	8	-1e10	8	-1E+10	1	-1E+10	1	-1E+10	1	-1E+10	1	-1E+10	1	-1E+10	1
4902554	62	C	10/23/2022	19:07	-133.705	48.749	0	1085.20	0	2.9200	0	34.3950	0	27.416	0	1073.217	0	-1e10	8	-1e10	8	-1E+10	1	-1E+10	1	-1E+10	1	-1E+10	1	-1E+10	1	-1E+10	1
4902554	62	C	10/23/2022	19:07	-133.705	48.749	0	1095.40	0	2.9120	0	34.3970	0	27.418	0	1083.278	0	-1e10	8	-1e10	8	-1E+10	1	-1E+10	1	-1E+10	1	-1E+10	1	-1E+10	1	-1E+10	1
4902554	62	C	10/23/2022	19:07	-133.705	48.749	0	1105.50	0	2.9030	0	34.3990	0	27.421	0	1093.240	0	-1e10	8	-1e10	8	-1E+10	1	-1E+10	1	-1E+10	1	-1E+10	1	-1E+10	1	-1E+10	1
4902554	62	C	10/23/2022	19:07	-133.705	48.749	0	1115.20	0	2.8820	0	34.4020	0	27.425	0	1102.807	0	-1e10	8	-1e10	8	-1E+10	1	-1E+10	1	-1E+10	1	-1E+10	1	-1E+10	1	-1E+10	1
4902554	62	C	10/23/2022	19:07	-133.705	48.749	0	1125.40	0	2.8540	0	34.4080	0	27.432	0	1112.867	0	-1e10	8	-1e10	8	-1E+10	1	-1E+10	1	-1E+10	1	-1E+10	1	-1E+10	1	-1E+10	1
4902554	62	C	10/23/2022	19:07	-133.705	48.749	0	1135.60	0	2.8360	0	34.4110	0	27.437	0	1122.926	0	-1e10	8	-1e10	8	-1E+10	1	-1E+10	1	-1E+10	1	-1E+10	1	-1E+10	1	-1E+10	1
4902554	62	C	10/23/2022	19:07	-133.705	48.749	0	1145.30	0	2.8190	0	34.4130	0	27.440	0	1132.491	0	-1e10	8	-1e10	8	-1E+10	1	-1E+10	1	-1E+10	1	-1E+10	1	-1E+10	1	-1E+10	1
4902554	62	C	10/23/2022	19:07	-133.705	48.749	0	1155.10	0	2.8010	0	34.4170	0	27.445	0	1142.155	0	-1e10	8	-1e10	8	-1E+10	1	-1E+10	1	-1E+10	1	-1E+10	1	-1E+10	1	-1E+10	1
4902554	62	C	10/23/2022	19:07	-133.705	48.749	0	1165.10	0	2.7890	0	34.4200	0	27.448	0	1152.016	0	-1e10	8	-1e10	8	-1E+10	1	-1E+10	1	-1E+10	1	-1E+10	1	-1E+10	1	-1E+10	1
4902554	62	C	10/23/2022	19:07	-133.705	48.749	0	1175.30	0	2.7760	0	34.4210	0	27.450	0	1162.073	0	-1e10	8	-1e10	8	-1E+10	1	-1E+10	1	-1E+10	1	-1E+10	1	-1E+10	1	-1E+10	1
4902554	62	C	10/23/2022	19:07	-133.705	48.749	0	1185.20	0	2.7510	0	34.4260	0	27.456	0	1171.834	0	-1e10	8	-1e10	8	-1E+10	1	-1E+10	1	-1E+10	1	-1E+10	1	-1E+10	1	-1E+10	1
4902554	62	C	10/23/2022	19:07	-133.705	48.749	0	1195.30	0	2.7260	0	34.4310	0	27.462	0	1181.792	0	-1e10	8	-1e10	8	-1E+10	1	-1E+10	1	-1E+10	1	-1E+10	1	-1E+10	1	-1E+10	1
4902554	62	C	10/23/2022	19:07	-133.705	48.749	0	1205.30	0	2.7170	0	34.4330	0	27.465	0	1191.650	0	-1e10	8	-1e10	8	-1E+10	1	-1E+10	1	-1E+10	1	-1E+10	1	-1E+10	1	-1E+10	1
4902554	62	C	10/23/2022	19:07	-133.705	48.749	0	1215.60	0	2.7030	0	34.4360	0	27.469	0	1201.804	0	-1e10	8	-1e10	8	-1E+10	1	-1E+10	1	-1E+10	1	-1E+10	1	-1E+10	1	-1E+10	1
4902554	62	C	10/23/2022	19:07	-133.705	48.749	0	1225.70	0	2.6800	0	34.4400	0	27.474	0	1211.760	0	-1e10	8	-1e10	8	-1E+10	1	-1E+10	1	-1E+10	1	-1E+10	1	-1E+10	1	-1E+10	1
4902554	62	C	10/23/2022	19:07	-133.705	48.749	0	1235.40	0	2.6670	0	34.4430	0	27.477	0	1221.322	0	-1e10	8	-1e10	8	-1E+10	1	-1E+10	1	-1E+10	1	-1E+10	1	-1E+10	1	-1E+10	1
4902554	62	C	10/23/2022	19:07	-133.705	48.749	0	1245.00	0	2.6520	0	34.4460	0	27.481	0	1230.785	0	-1e10	8	-1e10	8	-1E+10	1	-1E+10	1	-1E+10	1	-1E+10	1	-1E+10	1	-1E+10	1
4902554	62	C	10/23/2022	19:07	-133.705	48.749	0	1255.60	0	2.6380	0	34.4480	0	27.484	0	1241.232	0	-1e10	8	-1e10	8	-1E+10	1	-1E+10	1	-1E+10	1	-1E+10	1	-1E+10	1	-1E+10	1
4902554	62	C	10/23/2022	19:07	-133.705	48.749	0	1265.60	0	2.6270	0	34.4510	0	27.487	0	1251.088	0	-1e10	8	-1e10	8	-1E+10	1	-1E+10	1	-1E+10	1	-1E+10	1	-1E+10	1	-1E+10	1
4902554	62	C	10/23/2022	19:07	-133.705	48.749	0	1275.40	0	2.6150	0	34.4520	0	27.489	0	1260.747	0	-1e10	8	-1e10	8	-1E+10	1	-1E+10	1	-1E+10	1	-1E+10	1	-1E+10	1	-1E+10	1
4902554	62	C	10/23/2022	19:07	-133.705	48.749	0	1285.20	0	2.6080	0	34.4530	0	27.491	0	1270.404	0	-1e10	8	-1e10	8	-1E+10	1	-1E+10	1	-1E+10	1	-1E+10	1	-1E+10	1	-1E+10	1
4902554	62	C	10/23/2022	19:07	-133.705	48.749	0	1295.40	0	2.5950	0	34.4550	0	27.493	0	1280.456	0	-1e10	8	-1e10	8	-1E+10	1	-1E+10	1	-1E+10	1	-1E+10	1	-1E+10	1	-1E+10	1
4902554	62	C	10/23/2022	19:07	-133.705	48.749	0	1305.60	0	2.5860	0	34.4570	0	27.496	0	1290.507	0	-1e10	8	-1e10	8	-1E+10	1	-1E+10	1	-1E+10	1	-1E+10	1	-1E+10	1	-1E+10	1
4902554	62	C	10/23/2022	19:07	-133.705	48.749	0	1315.60	0	2.5820	0	34.4580	0	27.497	0	1300.361	0	-1e10	8	-1e10	8	-1E+10	1	-1E+10	1	-1E+10	1	-1E+10	1	-1E+10	1	-1E+10	1
4902554	62	C	10/23/2022	19:07	-133.705	48.749	0	1325.60	0	2.5680	0	34.4610	0	27.501	0	1310.214	0	-1e10	8	-1e10	8	-1E+10	1	-1E+10	1	-1E+10	1	-1E+10	1	-1E+10	1	-1E+10	1
4902554	62	C	10/23/2022	19:07	-133.705	48.749	0	1335.60	0	2.5550	0	34.4630	0	27.503	0	1320.066	0	-1e10	8	-1e10	8	-1E+10	1	-1E+10	1	-1E+10	1	-1E+10	1	-1E+10	1	-1E+10	1
4902554	62	C	10/23/2022	19:07	-133.705	48.749	0	1345.70	0	2.5450	0	34.4660	0	27.507	0	1330.017	0	-1e10	8	-1e10	8	-1E+10	1	-1E+10	1	-1E+10	1	-1E+10	1	-1E+10	1	-1E+10	1
4902554	62	C	10/23/2022	19:07	-133.705	48.749	0	1355.50	0	2.5380	0	34.4670	0	27.508	0	1339.672	0	-1e10	8	-1e10	8	-1E+10	1	-1E+10	1	-1E+10	1	-1E+10	1	-1E+10	1	-1E+10	1
4902554	62	C	10/23/2022	19:07	-133.705	48.749	0	1365.20	0	2.5300	0	34.4690	0	27.511	0	1349.227	0	-1e10	8	-1e10	8	-1E+10	1	-1E+10	1	-1E+10	1	-1E+10	1	-1E+10	1	-1E+10	1
4902554	62	C	10/23/2022	19:07	-133.705	48.749	0	1375.40	0	2.5210	0	34.4710	0	27.513	0	1359.275	0	-1e10	8	-1e10	8	-1E+10	1	-1E+10	1	-1E+10	1	-1E+10	1	-1E+10	1	-1E+10	1
4902554	62	C	10/23/2022	19:07	-133.705	48.749	0	1385.50	0	2.4990	0	34.4750	0	27.518	0	1369.224	0	-1e10	8	-1e10	8	-1E+10	1	-1E+10	1	-1E+10	1	-1E+10	1	-1E+10	1	-1E+10	1
4902554	62	C	10/23/2022	19:07	-133.705	48.749	0	1395.60	0	2.4820	0	34.4790	0	27.523	0	1379.172	0	-1e10	8	-1e10	8	-1E+10	1	-1E+10	1	-1E+10	1	-1E+10	1	-1E+10	1	-1E+10	1
4902554	62	C	10/23/2022	19:07	-133.705	48.749	0	1405.60	0	2.4620	0	34.4840	0	27.528	0	1389.022	0	-1e10	8	-1e10	8	-1E+10	1	-1E+10	1	-1E+10	1	-1E+10	1	-1E+10	1	-1E+10	1
4902554	62	C	10/23/2022	19:07	-133.705	48.749	0	1415.50	0	2.4460	0	34.4860	0	27.531	0	1398.772	0	-1e10	8	-1e10	8	-1E+10	1	-1E+10	1	-1E+10	1	-1E+10	1	-1E+10	1	-1E+10	1
4902554	62	C	10/23/2022	19:07	-133.705	48.749	0	1425.40	0	2.4310	0	34.4890	0	27.535	0	1408.522	0	-1e10	8	-1e10	8	-1E+10	1	-1E+10	1	-1E+10	1	-1E+10	1	-1E+10	1	-1E+10	1
4902554	62	C	10/23/2022	19:07	-133.705	48.749	0	1435.30	0	2.4250	0	34.4900	0	27.536	0	1418.272	0	-1e10	8	-1e10	8	-1E+10	1	-1E+10	1	-1E+10	1	-1E+10	1	-1E+10	1	-1E+10	1
4902554	62	C	10/23/2022	19:07	-133.705	48.749	0	1445.30	0	2.4110	0	34.4930	0	27.540	0	1428.119	0	-1e10	8	-1e10	8	-1E+10	1	-1E+10	1	-1E+10	1	-1E+10	1	-1E+10	1	-1E+10	1
4902554	62	C	10/23/2022	19:07	-133.705	48.749	0	1455.40	0	2.4030	0	34.4940	0	27.542	0	1438.065	0	-1e10	8	-1e10	8	-1E+10	1	-1E+10	1	-1E+10	1	-1E+10	1	-1E+10	1	-1E+10	1
4902554	62	C	10/23/2022	19:07	-133.705	48.749	0	1465.40	0	2.3910	0	34.4970	0	27.545	0	1447.911	0	-1e10	8	-1e10	8	-1E+10	1	-1E+10	1	-1E+10	1	-1E+10	1	-1E+10	1	-1E+10	1
4902554	62	C	10/23/2022	19:07	-133.705	48.749	0	1475.20	0	2.3850	0	34.4980	0	27.546	0	1457.561	0	-1e10	8	-1e10	8	-1E+10	1	-1E+10	1	-1E+10	1	-1E+10	1	-1E+10	1	-1E+10	1
4902554	62	C	10/23/2022	19:07	-133.705	48.749	0	1485.00	0	2.3730	0	34.5000	0	27.549	0	1467.210	0	-1e10	8	-1e10	8	-1E+10	1	-1E+10	1	-1E+10	1	-1E+10	1	-1E+10	1	-1E+10	1
4902554	62	C	10/23/2022	19:07	-133.705	48.749	0	1495.40	0	2.3580	0	34.5030	0	27.553	0	1477.449	0	-1e10	8	-1e10	8	-1E+10	1	-1E+10	1	-1E+10	1	-1E+10	1	-1E+10	1	-1E+10	1
4902554	62	C	10/23/2022	19:07	-133.705	48.749	0	1505.40	0	2.3540	0	34.5040	0	27.554	0	1487.293	0	-1e10	8	-1e10	8	-1E+10	1	-1E+10	1	-1E+10	1	-1E+10	1	-1E+10	1	-1E+10	1
4902554	62	C	10/23/2022	19:07	-133.705	48.749	0	1515.20	0	2.3460	0	34.5060	0	27.556	0	1496.941	0	-1e10	8	-1e10	8	-1E+10	1	-1E+10	1	-1E+10	1	-1E+10	1	-1E+10	1	-1E+10	1
4902554	62	C	10/23/2022	19:07	-133.705	48.749	0	1525.40	0	2.3380	0	34.5070	0	27.558	0	1506.982	0	-1e10	8	-1e10	8	-1E+10	1	-1E+10	1	-1E+10	1	-1E+10	1	-1E+10	1	-1E+10	1
4902554	62	C	10/23/2022	19:07	-133.705	48.749	0	1535.60	0	2.3360	0	34.5080	0	27.559	0	1517.022	0	-1e10	8	-1e10	8	-1E+10	1	-1E+10	1	-1E+10	1	-1E+10	1	-1E+10	1	-1E+10	1
4902554	62	C	10/23/2022	19:07	-133.705	48.749	0	1545.40	0	2.3320	0	34.5090	0	27.560	0	1526.668	0	-1e10	8	-1e10	8	-1E+10	1	-1E+10	1	-1E+10	1	-1E+10	1	-1E+10	1	-1E+10	1
4902554	62	C	10/23/2022	19:07	-133.705	48.749	0	1555.30	0	2.3260	0	34.5100	0	27.561	0	1536.412	0	-1e10	8	-1e10	8	-1E+10	1	-1E+10	1	-1E+10	1	-1E+10	1	-1E+10	1	-1E+10	1
4902554	62	C	10/23/2022	19:07	-133.705	48.749	0	1565.40	0	2.3110	0	34.5130	0	27.565	0	1546.352	0	-1e10	8	-1e10	8	-1E+10	1	-1E+10	1	-1E+10	1	-1E+10	1	-1E+10	1	-1E+10	1
4902554	62	C	10/23/2022	19:07	-133.705	48.749	0	1575.70	0	2.2960	0	34.5160	0	27.569	0	1556.489	0	-1e10	8	-1e10	8	-1E+10	1	-1E+10	1	-1E+10	1	-1E+10	1	-1E+10	1	-1E+10	1
4902554	62	C	10/23/2022	19:07	-133.705	48.749	0	1585.40	0	2.2820	0	34.5180	0	27.571	0	1566.035	0	-1e10	8	-1e10	8	-1E+10	1	-1E+10	1	-1E+10	1	-1E+10	1	-1E+10	1	-1E+10	1
4902554	62	C	10/23/2022	19:07	-133.705	48.749	0	1595.30	0	2.2720	0	34.5200	0	27.574	0	1575.777	0	-1e10	8	-1e10	8	-1E+10	1	-1E+10	1	-1E+10	1	-1E+10	1	-1E+10	1	-1E+10	1
4902554	62	C	10/23/2022	19:07	-133.705	48.749	0	1605.20	0	2.2560	0	34.5240	0	27.578	0	1585.519	0	-1e10	8	-1e10	8	-1E+10	1	-1E+10	1	-1E+10	1	-1E+10	1	-1E+10	1	-1E+10	1
4902554	62	C	10/23/2022	19:07	-133.705	48.749	0	1615.10	0	2.2390	0	34.5270	0	27.582	0	1595.260	0	-1e10	8	-1e10	8	-1E+10	1	-1E+10	1	-1E+10	1	-1E+10	1	-1E+10	1	-1E+10	1
4902554	62	C	10/23/2022	19:07	-133.705	48.749	0	1625.50	0	2.2210	0	34.5300	0	27.586	0	1605.493	0	-1e10	8	-1e10	8	-1E+10	1	-1E+10	1	-1E+10	1	-1E+10	1	-1E+10	1	-1E+10	1
4902554	62	C	10/23/2022	19:07	-133.705	48.749	0	1635.50	0	2.2030	0	34.5340	0	27.591	0	1615.332	0	-1e10	8	-1e10	8	-1E+10	1	-1E+10	1	-1E+10	1	-1E+10	1	-1E+10	1	-1E+10	1
4902554	62	C	10/23/2022	19:07	-133.705	48.749	0	1645.10	0	2.1870	0	34.5370	0	27.595	0	1624.777	0	-1e10	8	-1e10	8	-1E+10	1	-1E+10	1	-1E+10	1	-1E+10	1	-1E+10	1	-1E+10	1
4902554	62	C	10/23/2022	19:07	-133.705	48.749	0	1655.00	0	2.1810	0	34.5380	0	27.596	0	1634.517	0	-1e10	8	-1e10	8	-1E+10	1	-1E+10	1	-1E+10	1	-1E+10	1	-1E+10	1	-1E+10	1
4902554	62	C	10/23/2022	19:07	-133.705	48.749	0	1665.10	0	2.1760	0	34.5390	0	27.597	0	1644.452	0	-1e10	8	-1e10	8	-1E+10	1	-1E+10	1	-1E+10	1	-1E+10	1	-1E+10	1	-1E+10	1
4902554	62	C	10/23/2022	19:07	-133.705	48.749	0	1675.40	0	2.1720	0	34.5400	0	27.598	0	1654.584	0	-1e10	8	-1e10	8	-1E+10	1	-1E+10	1	-1E+10	1	-1E+10	1	-1E+10	1	-1E+10	1
4902554	62	C	10/23/2022	19:07	-133.705	48.749	0	1685.40	0	2.1610	0	34.5420	0	27.601	0	1664.421	0	-1e10	8	-1e10	8	-1E+10	1	-1E+10	1	-1E+10	1	-1E+10	1	-1E+10	1	-1E+10	1
4902554	62	C	10/23/2022	19:07	-133.705	48.749	0	1695.50	0	2.1520	0	34.5440	0	27.603	0	1674.355	0	-1e10	8	-1e10	8	-1E+10	1	-1E+10	1	-1E+10	1	-1E+10	1	-1E+10	1	-1E+10	1
4902554	62	C	10/23/2022	19:07	-133.705	48.749	0	1705.70	0	2.1460	0	34.5450	0	27.605	0	1684.388	0	-1e10	8	-1e10	8	-1E+10	1	-1E+10	1	-1E+10	1	-1E+10	1	-1E+10	1	-1E+10	1
4902554	62	C	10/23/2022	19:07	-133.705	48.749	0	1715.50	0	2.1420	0	34.5460	0	27.606	0	1694.026	0	-1e10	8	-1e10	8	-1E+10	1	-1E+10	1	-1E+10	1	-1E+10	1	-1E+10	1	-1E+10	1
4902554	62	C	10/23/2022	19:07	-133.705	48.749	0	1725.30	0	2.1300	0	34.5480	0	27.608	0	1703.664	0	-1e10	8	-1e10	8	-1E+10	1	-1E+10	1	-1E+10	1	-1E+10	1	-1E+10	1	-1E+10	1
4902554	62	C	10/23/2022	19:07	-133.705	48.749	0	1735.20	0	2.1230	0	34.5500	0	27.611	0	1713.400	0	-1e10	8	-1e10	8	-1E+10	1	-1E+10	1	-1E+10	1	-1E+10	1	-1E+10	1	-1E+10	1
4902554	62	C	10/23/2022	19:07	-133.705	48.749	0	1745.00	0	2.1170	0	34.5510	0	27.612	0	1723.037	0	-1e10	8	-1e10	8	-1E+10	1	-1E+10	1	-1E+10	1	-1E+10	1	-1E+10	1	-1E+10	1
4902554	62	C	10/23/2022	19:07	-133.705	48.749	0	1755.40	0	2.1080	0	34.5530	0	27.614	0	1733.264	0	-1e10	8	-1e10	8	-1E+10	1	-1E+10	1	-1E+10	1	-1E+10	1	-1E+10	1	-1E+10	1
4902554	62	C	10/23/2022	19:07	-133.705	48.749	0	1765.70	0	2.1030	0	34.5540	0	27.616	0	1743.392	0	-1e10	8	-1e10	8	-1E+10	1	-1E+10	1	-1E+10	1	-1E+10	1	-1E+10	1	-1E+10	1
4902554	62	C	10/23/2022	19:07	-133.705	48.749	0	1775.70	0	2.0950	0	34.5560	0	27.618	0	1753.224	0	-1e10	8	-1e10	8	-1E+10	1	-1E+10	1	-1E+10	1	-1E+10	1	-1E+10	1	-1E+10	1
4902554	62	C	10/23/2022	19:07	-133.705	48.749	0	1785.50	0	2.0810	0	34.5580	0	27.621	0	1762.859	0	-1e10	8	-1e10	8	-1E+10	1	-1E+10	1	-1E+10	1	-1E+10	1	-1E+10	1	-1E+10	1
4902554	62	C	10/23/2022	19:07	-133.705	48.749	0	1795.20	0	2.0670	0	34.5610	0	27.624	0	1772.396	0	-1e10	8	-1e10	8	-1E+10	1	-1E+10	1	-1E+10	1	-1E+10	1	-1E+10	1	-1E+10	1
4902554	62	C	10/23/2022	19:07	-133.705	48.749	0	1805.30	0	2.0600	0	34.5620	0	27.626	0	1782.325	0	-1e10	8	-1e10	8	-1E+10	1	-1E+10	1	-1E+10	1	-1E+10	1	-1E+10	1	-1E+10	1
4902554	62	C	10/23/2022	19:07	-133.705	48.749	0	1815.60	0	2.0560	0	34.5630	0	27.627	0	1792.451	0	-1e10	8	-1e10	8	-1E+10	1	-1E+10	1	-1E+10	1	-1E+10	1	-1E+10	1	-1E+10	1
4902554	62	C	10/23/2022	19:07	-133.705	48.749	0	1825.40	0	2.0530	0	34.5640	0	27.628	0	1802.084	0	-1e10	8	-1e10	8	-1E+10	1	-1E+10	1	-1E+10	1	-1E+10	1	-1E+10	1	-1E+10	1
4902554	62	C	10/23/2022	19:07	-133.705	48.749	0	1835.50	0	2.0470	0	34.5650	0	27.629	0	1812.012	0	-1e10	8	-1e10	8	-1E+10	1	-1E+10	1	-1E+10	1	-1E+10	1	-1E+10	1	-1E+10	1
4902554	62	C	10/23/2022	19:07	-133.705	48.749	0	1845.50	0	2.0340	0	34.5670	0	27.632	0	1821.841	0	-1e10	8	-1e10	8	-1E+10	1	-1E+10	1	-1E+10	1	-1E+10	1	-1E+10	1	-1E+10	1
4902554	62	C	10/23/2022	19:07	-133.705	48.749	0	1855.50	0	2.0190	0	34.5700	0	27.635	0	1831.670	0	-1e10	8	-1e10	8	-1E+10	1	-1E+10	1	-1E+10	1	-1E+10	1	-1E+10	1	-1E+10	1
4902554	62	C	10/23/2022	19:07	-133.705	48.749	0	1865.60	0	2.0150	0	34.5710	0	27.637	0	1841.597	0	-1e10	8	-1e10	8	-1E+10	1	-1E+10	1	-1E+10	1	-1E+10	1	-1E+10	1	-1E+10	1
4902554	62	C	10/23/2022	19:07	-133.705	48.749	0	1875.50	0	2.0120	0	34.5720	0	27.638	0	1851.326	0	-1e10	8	-1e10	8	-1E+10	1	-1E+10	1	-1E+10	1	-1E+10	1	-1E+10	1	-1E+10	1
4902554	62	C	10/23/2022	19:07	-133.705	48.749	0	1885.50	0	2.0020	0	34.5740	0	27.640	0	1861.154	0	-1e10	8	-1e10	8	-1E+10	1	-1E+10	1	-1E+10	1	-1E+10	1	-1E+10	1	-1E+10	1
4902554	62	C	10/23/2022	19:07	-133.705	48.749	0	1895.50	0	1.9860	0	34.5770	0	27.644	0	1870.981	0	-1e10	8	-1e10	8	-1E+10	1	-1E+10	1	-1E+10	1	-1E+10	1	-1E+10	1	-1E+10	1
4902554	62	C	10/23/2022	19:07	-133.705	48.749	0	1905.80	0	1.9820	0	34.5780	0	27.645	0	1881.102	0	-1e10	8	-1e10	8	-1E+10	1	-1E+10	1	-1E+10	1	-1E+10	1	-1E+10	1	-1E+10	1
4902554	62	C	10/23/2022	19:07	-133.705	48.749	0	1915.60	0	1.9790	0	34.5790	0	27.646	0	1890.731	0	-1e10	8	-1e10	8	-1E+10	1	-1E+10	1	-1E+10	1	-1E+10	1	-1E+10	1	-1E+10	1
4902554	62	C	10/23/2022	19:07	-133.705	48.749	0	1925.60	0	1.9750	0	34.5800	0	27.647	0	1900.557	0	-1e10	8	-1e10	8	-1E+10	1	-1E+10	1	-1E+10	1	-1E+10	1	-1E+10	1	-1E+10	1
4902554	62	C	10/23/2022	19:07	-133.705	48.749	0	1935.70	0	1.9730	0	34.5800	0	27.648	0	1910.480	0	-1e10	8	-1e10	8	-1E+10	1	-1E+10	1	-1E+10	1	-1E+10	1	-1E+10	1	-1E+10	1
4902554	62	C	10/23/2022	19:07	-133.705	48.749	0	1945.80	0	1.9720	0	34.5810	0	27.648	0	1920.403	0	-1e10	8	-1e10	8	-1E+10	1	-1E+10	1	-1E+10	1	-1E+10	1	-1E+10	1	-1E+10	1
4902554	62	C	10/23/2022	19:07	-133.705	48.749	0	1955.50	0	1.9700	0	34.5810	0	27.649	0	1929.933	0	-1e10	8	-1e10	8	-1E+10	1	-1E+10	1	-1E+10	1	-1E+10	1	-1E+10	1	-1E+10	1
4902554	62	C	10/23/2022	19:07	-133.705	48.749	0	1965.50	0	1.9670	0	34.5820	0	27.650	0	1939.756	0	-1e10	8	-1e10	8	-1E+10	1	-1E+10	1	-1E+10	1	-1E+10	1	-1E+10	1	-1E+10	1
4902554	62	C	10/23/2022	19:07	-133.705	48.749	0	1975.50	0	1.9650	0	34.5820	0	27.650	0	1949.580	0	-1e10	8	-1e10	8	-1E+10	1	-1E+10	1	-1E+10	1	-1E+10	1	-1E+10	1	-1E+10	1
4902554	62	C	10/23/2022	19:07	-133.705	48.749	0	1985.30	0	1.9600	0	34.5830	0	27.651	0	1959.206	0	-1e10	8	-1e10	8	-1E+10	1	-1E+10	1	-1E+10	1	-1E+10	1	-1E+10	1	-1E+10	1
4902554	62	C	10/23/2022	19:07	-133.705	48.749	0	1995.30	0	1.9600	0	34.5840	0	27.652	0	1969.029	0	-1e10	8	-1e10	8	-1E+10	1	-1E+10	1	-1E+10	1	-1E+10	1	-1E+10	1	-1E+10	1
4902554	62	C	10/23/2022	19:07	-133.705	48.749	0	2005.70	0	1.9550	0	34.5840	0	27.653	0	1979.243	0	-1e10	8	-1e10	8	-1E+10	1	-1E+10	1	-1E+10	1	-1E+10	1	-1E+10	1	-1E+10	1
4902554	62	C	10/23/2022	19:07	-133.705	48.749	0	2016.10	0	1.9530	0	34.5850	0	27.654	0	1989.458	0	-1e10	8	-1e10	8	-1E+10	1	-1E+10	1	-1E+10	1	-1E+10	1	-1E+10	1	-1E+10	1
4902554	62	C	10/23/2022	19:07	-133.705	48.749	0	2021.20	0	1.9530	0	34.5850	0	27.654	0	1994.466	0	-1e10	8	-1e10	8	-1E+10	1	-1E+10	1	-1E+10	1	-1E+10	1	-1E+10	1	-1E+10	1
4902554	62	C	10/23/2022	19:07	-133.705	48.749	0																										
4902554	63	C	11/02/2022	23:57	-133.788	48.595	0	0.20	0	13.5390	0	32.1960	0	24.115	0	0.198	0	-1e10	8	-1e10	8	-1E+10	1	-1E+10	1	-1E+10	1	-1E+10	1	-1E+10	1	-1E+10	1
4902554	63	C	11/02/2022	23:57	-133.788	48.595	0	0.40	0	13.5407	0	32.1947	0	24.114	0	0.397	0	-1e10	8	-1e10	8	-1E+10	1	-1E+10	1	-1E+10	1	-1E+10	1	-1E+10	1	-1E+10	1
4902554	63	C	11/02/2022	23:57	-133.788	48.595	0	0.80	0	13.5440	0	32.1920	0	24.111	0	0.793	0	-1e10	8	-1e10	8	-1E+10	1	-1E+10	1	-1E+10	1	-1E+10	1	-1E+10	1	-1E+10	1
4902554	63	C	11/02/2022	23:57	-133.788	48.595	0	1.90	0	13.5490	0	32.1870	0	24.106	0	1.884	0	-1e10	8	-1e10	8	-1E+10	1	-1E+10	1	-1E+10	1	-1E+10	1	-1E+10	1	-1E+10	1
4902554	63	C	11/02/2022	23:57	-133.788	48.595	0	3.20	0	13.5520	0	32.1850	0	24.104	0	3.173	0	-1e10	8	-1e10	8	-1E+10	1	-1E+10	1	-1E+10	1	-1E+10	1	-1E+10	1	-1E+10	1
4902554	63	C	11/02/2022	23:57	-133.788	48.595	0	3.80	0	13.5510	0	32.1870	0	24.106	0	3.768	0	-1e10	8	-1e10	8	-1E+10	1	-1E+10	1	-1E+10	1	-1E+10	1	-1E+10	1	-1E+10	1
4902554	63	C	11/02/2022	23:57	-133.788	48.595	0	4.80	0	13.5450	0	32.1920	0	24.111	0	4.759	0	-1e10	8	-1e10	8	-1E+10	1	-1E+10	1	-1E+10	1	-1E+10	1	-1E+10	1	-1E+10	1
4902554	63	C	11/02/2022	23:57	-133.788	48.595	0	6.00	0	13.5420	0	32.1910	0	24.111	0	5.949	0	-1e10	8	-1e10	8	-1E+10	1	-1E+10	1	-1E+10	1	-1E+10	1	-1E+10	1	-1E+10	1
4902554	63	C	11/02/2022	23:57	-133.788	48.595	0	6.90	0	13.5440	0	32.1930	0	24.112	0	6.842	0	-1e10	8	-1e10	8	-1E+10	1	-1E+10	1	-1E+10	1	-1E+10	1	-1E+10	1	-1E+10	1
4902554	63	C	11/02/2022	23:57	-133.788	48.595	0	8.10	0	13.5390	0	32.1950	0	24.115	0	8.031	0	-1e10	8	-1e10	8	-1E+10	1	-1E+10	1	-1E+10	1	-1E+10	1	-1E+10	1	-1E+10	1
4902554	63	C	11/02/2022	23:57	-133.788	48.595	0	9.00	0	13.5420	0	32.1920	0	24.112	0	8.924	0	-1e10	8	-1e10	8	-1E+10	1	-1E+10	1	-1E+10	1	-1E+10	1	-1E+10	1	-1E+10	1
4902554	63	C	11/02/2022	23:57	-133.788	48.595	0	10.00	0	13.5530	0	32.1920	0	24.110	0	9.915	0	-1e10	8	-1e10	8	-1E+10	1	-1E+10	1	-1E+10	1	-1E+10	1	-1E+10	1	-1E+10	1
4902554	63	C	11/02/2022	23:57	-133.788	48.595	0	11.10	0	13.5560	0	32.1920	0	24.109	0	11.006	0	-1e10	8	-1e10	8	-1E+10	1	-1E+10	1	-1E+10	1	-1E+10	1	-1E+10	1	-1E+10	1
4902554	63	C	11/02/2022	23:57	-133.788	48.595	0	12.00	0	13.5580	0	32.1910	0	24.108	0	11.898	0	-1e10	8	-1e10	8	-1E+10	1	-1E+10	1	-1E+10	1	-1E+10	1	-1E+10	1	-1E+10	1
4902554	63	C	11/02/2022	23:57	-133.788	48.595	0	12.70	0	13.5580	0	32.1910	0	24.108	0	12.592	0	-1e10	8	-1e10	8	-1E+10	1	-1E+10	1	-1E+10	1	-1E+10	1	-1E+10	1	-1E+10	1
4902554	63	C	11/02/2022	23:57	-133.788	48.595	0	13.80	0	13.5570	0	32.1920	0	24.109	0	13.683	0	-1e10	8	-1e10	8	-1E+10	1	-1E+10	1	-1E+10	1	-1E+10	1	-1E+10	1	-1E+10	1
4902554	63	C	11/02/2022	23:57	-133.788	48.595	0	15.10	0	13.5570	0	32.1920	0	24.109	0	14.972	0	-1e10	8	-1e10	8	-1E+10	1	-1E+10	1	-1E+10	1	-1E+10	1	-1E+10	1	-1E+10	1
4902554	63	C	11/02/2022	23:57	-133.788	48.595	0	16.10	0	13.5600	0	32.1910	0	24.108	0	15.963	0	-1e10	8	-1e10	8	-1E+10	1	-1E+10	1	-1E+10	1	-1E+10	1	-1E+10	1	-1E+10	1
4902554	63	C	11/02/2022	23:57	-133.788	48.595	0	16.80	0	13.5610	0	32.1920	0	24.108	0	16.657	0	-1e10	8	-1e10	8	-1E+10	1	-1E+10	1	-1E+10	1	-1E+10	1	-1E+10	1	-1E+10	1
4902554	63	C	11/02/2022	23:57	-133.788	48.595	0	17.80	0	13.5610	0	32.1920	0	24.108	0	17.649	0	-1e10	8	-1e10	8	-1E+10	1	-1E+10	1	-1E+10	1	-1E+10	1	-1E+10	1	-1E+10	1
4902554	63	C	11/02/2022	23:57	-133.788	48.595	0	18.90	0	13.5600	0	32.1920	0	24.109	0	18.740	0	-1e10	8	-1e10	8	-1E+10	1	-1E+10	1	-1E+10	1	-1E+10	1	-1E+10	1	-1E+10	1
4902554	63	C	11/02/2022	23:57	-133.788	48.595	0	19.90	0	13.5610	0	32.1910	0	24.108	0	19.731	0	-1e10	8	-1e10	8	-1E+10	1	-1E+10	1	-1E+10	1	-1E+10	1	-1E+10	1	-1E+10	1
4902554	63	C	11/02/2022	23:57	-133.788	48.595	0	21.00	0	13.5600	0	32.1910	0	24.108	0	20.822	0	-1e10	8	-1e10	8	-1E+10	1	-1E+10	1	-1E+10	1	-1E+10	1	-1E+10	1	-1E+10	1
4902554	63	C	11/02/2022	23:57	-133.788	48.595	0	22.00	0	13.5600	0	32.1920	0	24.109	0	21.813	0	-1e10	8	-1e10	8	-1E+10	1	-1E+10	1	-1E+10	1	-1E+10	1	-1E+10	1	-1E+10	1
4902554	63	C	11/02/2022	23:57	-133.788	48.595	0	23.10	0	13.5610	0	32.1910	0	24.108	0	22.904	0	-1e10	8	-1e10	8	-1E+10	1	-1E+10	1	-1E+10	1	-1E+10	1	-1E+10	1	-1E+10	1
4902554	63	C	11/02/2022	23:57	-133.788	48.595	0	23.90	0	13.5610	0	32.1920	0	24.108	0	23.697	0	-1e10	8	-1e10	8	-1E+10	1	-1E+10	1	-1E+10	1	-1E+10	1	-1E+10	1	-1E+10	1
4902554	63	C	11/02/2022	23:57	-133.788	48.595	0	24.90	0	13.5610	0	32.1910	0	24.108	0	24.688	0	-1e10	8	-1e10	8	-1E+10	1	-1E+10	1	-1E+10	1	-1E+10	1	-1E+10	1	-1E+10	1
4902554	63	C	11/02/2022	23:57	-133.788	48.595	0	26.00	0	13.5610	0	32.1920	0	24.109	0	25.779	0	-1e10	8	-1e10	8	-1E+10	1	-1E+10	1	-1E+10	1	-1E+10	1	-1E+10	1	-1E+10	1
4902554	63	C	11/02/2022	23:57	-133.788	48.595	0	26.80	0	13.5610	0	32.1920	0	24.109	0	26.572	0	-1e10	8	-1e10	8	-1E+10	1	-1E+10	1	-1E+10	1	-1E+10	1	-1E+10	1	-1E+10	1
4902554	63	C	11/02/2022	23:57	-133.788	48.595	0	27.80	0	13.5600	0	32.1920	0	24.109	0	27.563	0	-1e10	8	-1e10	8	-1E+10	1	-1E+10	1	-1E+10	1	-1E+10	1	-1E+10	1	-1E+10	1
4902554	63	C	11/02/2022	23:57	-133.788	48.595	0	28.90	0	13.5610	0	32.1920	0	24.109	0	28.654	0	-1e10	8	-1e10	8	-1E+10	1	-1E+10	1	-1E+10	1	-1E+10	1	-1E+10	1	-1E+10	1
4902554	63	C	11/02/2022	23:57	-133.788	48.595	0	30.00	0	13.5610	0	32.1910	0	24.108	0	29.744	0	-1e10	8	-1e10	8	-1E+10	1	-1E+10	1	-1E+10	1	-1E+10	1	-1E+10	1	-1E+10	1
4902554	63	C	11/02/2022	23:57	-133.788	48.595	0	31.10	0	13.5610	0	32.1920	0	24.109	0	30.835	0	-1e10	8	-1e10	8	-1E+10	1	-1E+10	1	-1E+10	1	-1E+10	1	-1E+10	1	-1E+10	1
4902554	63	C	11/02/2022	23:57	-133.788	48.595	0	31.80	0	13.5610	0	32.1920	0	24.109	0	31.529	0	-1e10	8	-1e10	8	-1E+10	1	-1E+10	1	-1E+10	1	-1E+10	1	-1E+10	1	-1E+10	1
4902554	63	C	11/02/2022	23:57	-133.788	48.595	0	32.80	0	13.5600	0	32.1910	0	24.108	0	32.520	0	-1e10	8	-1e10	8	-1E+10	1	-1E+10	1	-1E+10	1	-1E+10	1	-1E+10	1	-1E+10	1
4902554	63	C	11/02/2022	23:57	-133.788	48.595	0	33.90	0	13.5600	0	32.1920	0	24.109	0	33.611	0	-1e10	8	-1e10	8	-1E+10	1	-1E+10	1	-1E+10	1	-1E+10	1	-1E+10	1	-1E+10	1
4902554	63	C	11/02/2022	23:57	-133.788	48.595	0	34.90	0	13.5600	0	32.1910	0	24.108	0	34.602	0	-1e10	8	-1e10	8	-1E+10	1	-1E+10	1	-1E+10	1	-1E+10	1	-1E+10	1	-1E+10	1
4902554	63	C	11/02/2022	23:57	-133.788	48.595	0	36.10	0	13.5590	0	32.1920	0	24.109	0	35.792	0	-1e10	8	-1e10	8	-1E+10	1	-1E+10	1	-1E+10	1	-1E+10	1	-1E+10	1	-1E+10	1
4902554	63	C	11/02/2022	23:57	-133.788	48.595	0	36.80	0	13.5580	0	32.1920	0	24.109	0	36.486	0	-1e10	8	-1e10	8	-1E+10	1	-1E+10	1	-1E+10	1	-1E+10	1	-1E+10	1	-1E+10	1
4902554	63	C	11/02/2022	23:57	-133.788	48.595	0	37.90	0	13.5590	0	32.1910	0	24.108	0	37.576	0	-1e10	8	-1e10	8	-1E+10	1	-1E+10	1	-1E+10	1	-1E+10	1	-1E+10	1	-1E+10	1
4902554	63	C	11/02/2022	23:57	-133.788	48.595	0	39.00	0	13.5600	0	32.1910	0	24.108	0	38.667	0	-1e10	8	-1e10	8	-1E+10	1	-1E+10	1	-1E+10	1	-1E+10	1	-1E+10	1	-1E+10	1
4902554	63	C	11/02/2022	23:57	-133.788	48.595	0	40.00	0	13.5600	0	32.1910	0	24.108	0	39.658	0	-1e10	8	-1e10	8	-1E+10	1	-1E+10	1	-1E+10	1	-1E+10	1	-1E+10	1	-1E+10	1
4902554	63	C	11/02/2022	23:57	-133.788	48.595	0	41.10	0	13.5600	0	32.1920	0	24.109	0	40.749	0	-1e10	8	-1e10	8	-1E+10	1	-1E+10	1	-1E+10	1	-1E+10	1	-1E+10	1	-1E+10	1
4902554	63	C	11/02/2022	23:57	-133.788	48.595	0	42.00	0	13.5600	0	32.1910	0	24.108	0	41.641	0	-1e10	8	-1e10	8	-1E+10	1	-1E+10	1	-1E+10	1	-1E+10	1	-1E+10	1	-1E+10	1
4902554	63	C	11/02/2022	23:57	-133.788	48.595	0	42.90	0	13.5610	0	32.1920	0	24.109	0	42.533	0	-1e10	8	-1e10	8	-1E+10	1	-1E+10	1	-1E+10	1	-1E+10	1	-1E+10	1	-1E+10	1
4902554	63	C	11/02/2022	23:57	-133.788	48.595	0	43.80	0	13.5610	0	32.1910	0	24.108	0	43.425	0	-1e10	8	-1e10	8	-1E+10	1	-1E+10	1	-1E+10	1	-1E+10	1	-1E+10	1	-1E+10	1
4902554	63	C	11/02/2022	23:57	-133.788	48.595	0	45.00	0	13.5620	0	32.1920	0	24.109	0	44.615	0	-1e10	8	-1e10	8	-1E+10	1	-1E+10	1	-1E+10	1	-1E+10	1	-1E+10	1	-1E+10	1
4902554	63	C	11/02/2022	23:57	-133.788	48.595	0	45.90	0	13.5620	0	32.1930	0	24.110	0	45.507	0	-1e10	8	-1e10	8	-1E+10	1	-1E+10	1	-1E+10	1	-1E+10	1	-1E+10	1	-1E+10	1
4902554	63	C	11/02/2022	23:57	-133.788	48.595	0	46.70	0	13.5610	0	32.1920	0	24.109	0	46.300	0	-1e10	8	-1e10	8	-1E+10	1	-1E+10	1	-1E+10	1	-1E+10	1	-1E+10	1	-1E+10	1
4902554	63	C	11/02/2022	23:57	-133.788	48.595	0	47.90	0	13.5610	0	32.1920	0	24.109	0	47.490	0	-1e10	8	-1e10	8	-1E+10	1	-1E+10	1	-1E+10	1	-1E+10	1	-1E+10	1	-1E+10	1
4902554	63	C	11/02/2022	23:57	-133.788	48.595	0	49.00	0	13.5610	0	32.1920	0	24.109	0	48.580	0	-1e10	8	-1e10	8	-1E+10	1	-1E+10	1	-1E+10	1	-1E+10	1	-1E+10	1	-1E+10	1
4902554	63	C	11/02/2022	23:57	-133.788	48.595	0	50.10	0	13.5610	0	32.1920	0	24.109	0	49.671	0	-1e10	8	-1e10	8	-1E+10	1	-1E+10	1	-1E+10	1	-1E+10	1	-1E+10	1	-1E+10	1
4902554	63	C	11/02/2022	23:57	-133.788	48.595	0	51.10	0	13.5610	0	32.1920	0	24.109	0	50.662	0	-1e10	8	-1e10	8	-1E+10	1	-1E+10	1	-1E+10	1	-1E+10	1	-1E+10	1	-1E+10	1
4902554	63	C	11/02/2022	23:57	-133.788	48.595	0	52.40	0	13.5620	0	32.1920	0	24.109	0	51.951	0	-1e10	8	-1e10	8	-1E+10	1	-1E+10	1	-1E+10	1	-1E+10	1	-1E+10	1	-1E+10	1
4902554	63	C	11/02/2022	23:57	-133.788	48.595	0	53.10	0	13.5580	0	32.1910	0	24.109	0	52.645	0	-1e10	8	-1e10	8	-1E+10	1	-1E+10	1	-1E+10	1	-1E+10	1	-1E+10	1	-1E+10	1
4902554	63	C	11/02/2022	23:57	-133.788	48.595	0	54.30	0	13.5560	0	32.1880	0	24.107	0	53.834	0	-1e10	8	-1e10	8	-1E+10	1	-1E+10	1	-1E+10	1	-1E+10	1	-1E+10	1	-1E+10	1
4902554	63	C	11/02/2022	23:57	-133.788	48.595	0	55.20	0	13.5570	0	32.1910	0	24.109	0	54.726	0	-1e10	8	-1e10	8	-1E+10	1	-1E+10	1	-1E+10	1	-1E+10	1	-1E+10	1	-1E+10	1
4902554	63	C	11/02/2022	23:57	-133.788	48.595	0	55.80	0	13.5490	0	32.1920	0	24.112	0	55.321	0	-1e10	8	-1e10	8	-1E+10	1	-1E+10	1	-1E+10	1	-1E+10	1	-1E+10	1	-1E+10	1
4902554	63	C	11/02/2022	23:57	-133.788	48.595	0	57.00	0	13.4060	0	32.1950	0	24.143	0	56.511	0	-1e10	8	-1e10	8	-1E+10	1	-1E+10	1	-1E+10	1	-1E+10	1	-1E+10	1	-1E+10	1
4902554	63	C	11/02/2022	23:57	-133.788	48.595	0	58.00	0	12.2970	0	32.1970	0	24.359	0	57.502	0	-1e10	8	-1e10	8	-1E+10	1	-1E+10	1	-1E+10	1	-1E+10	1	-1E+10	1	-1E+10	1
4902554	63	C	11/02/2022	23:57	-133.788	48.595	0	59.10	0	9.8480	0	32.3140	0	24.882	0	58.592	0	-1e10	8	-1e10	8	-1E+10	1	-1E+10	1	-1E+10	1	-1E+10	1	-1E+10	1	-1E+10	1
4902554	63	C	11/02/2022	23:57	-133.788	48.595	0	60.00	0	9.3320	0	32.3290	0	24.977	0	59.485	0	-1e10	8	-1e10	8	-1E+10	1	-1E+10	1	-1E+10	1	-1E+10	1	-1E+10	1	-1E+10	1
4902554	63	C	11/02/2022	23:57	-133.788	48.595	0	61.00	0	9.0540	0	32.3420	0	25.030	0	60.476	0	-1e10	8	-1e10	8	-1E+10	1	-1E+10	1	-1E+10	1	-1E+10	1	-1E+10	1	-1E+10	1
4902554	63	C	11/02/2022	23:57	-133.788	48.595	0	61.90	0	8.9650	0	32.3460	0	25.047	0	61.368	0	-1e10	8	-1e10	8	-1E+10	1	-1E+10	1	-1E+10	1	-1E+10	1	-1E+10	1	-1E+10	1
4902554	63	C	11/02/2022	23:57	-133.788	48.595	0	63.00	0	8.7700	0	32.3550	0	25.084	0	62.458	0	-1e10	8	-1e10	8	-1E+10	1	-1E+10	1	-1E+10	1	-1E+10	1	-1E+10	1	-1E+10	1
4902554	63	C	11/02/2022	23:57	-133.788	48.595	0	64.20	0	8.6290	0	32.3560	0	25.106	0	63.648	0	-1e10	8	-1e10	8	-1E+10	1	-1E+10	1	-1E+10	1	-1E+10	1	-1E+10	1	-1E+10	1
4902554	63	C	11/02/2022	23:57	-133.788	48.595	0	64.80	0	8.4560	0	32.3700	0	25.143	0	64.243	0	-1e10	8	-1e10	8	-1E+10	1	-1E+10	1	-1E+10	1	-1E+10	1	-1E+10	1	-1E+10	1
4902554	63	C	11/02/2022	23:57	-133.788	48.595	0	65.90	0	8.4030	0	32.3690	0	25.150	0	65.333	0	-1e10	8	-1e10	8	-1E+10	1	-1E+10	1	-1E+10	1	-1E+10	1	-1E+10	1	-1E+10	1
4902554	63	C	11/02/2022	23:57	-133.788	48.595	0	67.00	0	8.3890	0	32.3700	0	25.153	0	66.423	0	-1e10	8	-1e10	8	-1E+10	1	-1E+10	1	-1E+10	1	-1E+10	1	-1E+10	1	-1E+10	1
4902554	63	C	11/02/2022	23:57	-133.788	48.595	0	67.90	0	8.3780	0	32.3690	0	25.154	0	67.315	0	-1e10	8	-1e10	8	-1E+10	1	-1E+10	1	-1E+10	1	-1E+10	1	-1E+10	1	-1E+10	1
4902554	63	C	11/02/2022	23:57	-133.788	48.595	0	69.10	0	8.3000	0	32.3730	0	25.169	0	68.505	0	-1e10	8	-1e10	8	-1E+10	1	-1E+10	1	-1E+10	1	-1E+10	1	-1E+10	1	-1E+10	1
4902554	63	C	11/02/2022	23:57	-133.788	48.595	0	70.00	0	8.2360	0	32.3750	0	25.180	0	69.397	0	-1e10	8	-1e10	8	-1E+10	1	-1E+10	1	-1E+10	1	-1E+10	1	-1E+10	1	-1E+10	1
4902554	63	C	11/02/2022	23:57	-133.788	48.595	0	71.30	0	8.1290	0	32.3800	0	25.199	0	70.686	0	-1e10	8	-1e10	8	-1E+10	1	-1E+10	1	-1E+10	1	-1E+10	1	-1E+10	1	-1E+10	1
4902554	63	C	11/02/2022	23:57	-133.788	48.595	0	72.20	0	8.0780	0	32.3780	0	25.205	0	71.578	0	-1e10	8	-1e10	8	-1E+10	1	-1E+10	1	-1E+10	1	-1E+10	1	-1E+10	1	-1E+10	1
4902554	63	C	11/02/2022	23:57	-133.788	48.595	0	73.10	0	7.9610	0	32.3800	0	25.224	0	72.470	0	-1e10	8	-1e10	8	-1E+10	1	-1E+10	1	-1E+10	1	-1E+10	1	-1E+10	1	-1E+10	1
4902554	63	C	11/02/2022	23:57	-133.788	48.595	0	73.70	0	7.9060	0	32.3870	0	25.237	0	73.065	0	-1e10	8	-1e10	8	-1E+10	1	-1E+10	1	-1E+10	1	-1E+10	1	-1E+10	1	-1E+10	1
4902554	63	C	11/02/2022	23:57	-133.788	48.595	0	75.10	0	7.8470	0	32.3860	0	25.245	0	74.452	0	-1e10	8	-1e10	8	-1E+10	1	-1E+10	1	-1E+10	1	-1E+10	1	-1E+10	1	-1E+10	1
4902554	63	C	11/02/2022	23:57	-133.788	48.595	0	76.10	0	7.6480	0	32.3960	0	25.281	0	75.443	0	-1e10	8	-1e10	8	-1E+10	1	-1E+10	1	-1E+10	1	-1E+10	1	-1E+10	1	-1E+10	1
4902554	63	C	11/02/2022	23:57	-133.788	48.595	0	77.10	0	7.5870	0	32.3970	0	25.290	0	76.435	0	-1e10	8	-1e10	8	-1E+10	1	-1E+10	1	-1E+10	1	-1E+10	1	-1E+10	1	-1E+10	1
4902554	63	C	11/02/2022	23:57	-133.788	48.595	0	78.10	0	7.5180	0	32.4010	0	25.303	0	77.426	0	-1e10	8	-1e10	8	-1E+10	1	-1E+10	1	-1E+10	1	-1E+10	1	-1E+10	1	-1E+10	1
4902554	63	C	11/02/2022	23:57	-133.788	48.595	0	79.10	0	7.4900	0	32.4020	0	25.307	0	78.417	0	-1e10	8	-1e10	8	-1E+10	1	-1E+10	1	-1E+10	1	-1E+10	1	-1E+10	1	-1E+10	1
4902554	63	C	11/02/2022	23:57	-133.788	48.595	0	80.10	0	7.4680	0	32.4020	0	25.310	0	79.408	0	-1e10	8	-1e10	8	-1E+10	1	-1E+10	1	-1E+10	1	-1E+10	1	-1E+10	1	-1E+10	1
4902554	63	C	11/02/2022	23:57	-133.788	48.595	0	81.10	0	7.3970	0	32.4060	0	25.323	0	80.399	0	-1e10	8	-1e10	8	-1E+10	1	-1E+10	1	-1E+10	1	-1E+10	1	-1E+10	1	-1E+10	1
4902554	63	C	11/02/2022	23:57	-133.788	48.595	0	82.10	0	7.3520	0	32.4090	0	25.332	0	81.390	0	-1e10	8	-1e10	8	-1E+10	1	-1E+10	1	-1E+10	1	-1E+10	1	-1E+10	1	-1E+10	1
4902554	63	C	11/02/2022	23:57	-133.788	48.595	0	82.90	0	7.3210	0	32.4100	0	25.337	0	82.183	0	-1e10	8	-1e10	8	-1E+10	1	-1E+10	1	-1E+10	1	-1E+10	1	-1E+10	1	-1E+10	1
4902554	63	C	11/02/2022	23:57	-133.788	48.595	0	83.70	0	7.2870	0	32.4130	0	25.344	0	82.976	0	-1e10	8	-1e10	8	-1E+10	1	-1E+10	1	-1E+10	1	-1E+10	1	-1E+10	1	-1E+10	1
4902554	63	C	11/02/2022	23:57	-133.788	48.595	0	84.80	0	7.2610	0	32.4150	0	25.349	0	84.067	0	-1e10	8	-1e10	8	-1E+10	1	-1E+10	1	-1E+10	1	-1E+10	1	-1E+10	1	-1E+10	1
4902554	63	C	11/02/2022	23:57	-133.788	48.595	0	85.90	0	7.2500	0	32.4150	0	25.351	0	85.157	0	-1e10	8	-1e10	8	-1E+10	1	-1E+10	1	-1E+10	1	-1E+10	1	-1E+10	1	-1E+10	1
4902554	63	C	11/02/2022	23:57	-133.788	48.595	0	87.00	0	7.2330	0	32.4160	0	25.354	0	86.247	0	-1e10	8	-1e10	8	-1E+10	1	-1E+10	1	-1E+10	1	-1E+10	1	-1E+10	1	-1E+10	1
4902554	63	C	11/02/2022	23:57	-133.788	48.595	0	88.10	0	7.2020	0	32.4190	0	25.360	0	87.337	0	-1e10	8	-1e10	8	-1E+10	1	-1E+10	1	-1E+10	1	-1E+10	1	-1E+10	1	-1E+10	1
4902554	63	C	11/02/2022	23:57	-133.788	48.595	0	89.00	0	7.1860	0	32.4190	0	25.362	0	88.229	0	-1e10	8	-1e10	8	-1E+10	1	-1E+10	1	-1E+10	1	-1E+10	1	-1E+10	1	-1E+10	1
4902554	63	C	11/02/2022	23:57	-133.788	48.595	0	89.90	0	7.1720	0	32.4200	0	25.365	0	89.121	0	-1e10	8	-1e10	8	-1E+10	1	-1E+10	1	-1E+10	1	-1E+10	1	-1E+10	1	-1E+10	1
4902554	63	C	11/02/2022	23:57	-133.788	48.595	0	91.00	0	7.1230	0	32.4230	0	25.374	0	90.212	0	-1e10	8	-1e10	8	-1E+10	1	-1E+10	1	-1E+10	1	-1E+10	1	-1E+10	1	-1E+10	1
4902554	63	C	11/02/2022	23:57	-133.788	48.595	0	91.90	0	7.0640	0	32.4280	0	25.386	0	91.104	0	-1e10	8	-1e10	8	-1E+10	1	-1E+10	1	-1E+10	1	-1E+10	1	-1E+10	1	-1E+10	1
4902554	63	C	11/02/2022	23:57	-133.788	48.595	0	92.90	0	7.0250	0	32.4320	0	25.394	0	92.095	0	-1e10	8	-1e10	8	-1E+10	1	-1E+10	1	-1E+10	1	-1E+10	1	-1E+10	1	-1E+10	1
4902554	63	C	11/02/2022	23:57	-133.788	48.595	0	94.10	0	6.9870	0	32.4350	0	25.402	0	93.284	0	-1e10	8	-1e10	8	-1E+10	1	-1E+10	1	-1E+10	1	-1E+10	1	-1E+10	1	-1E+10	1
4902554	63	C	11/02/2022	23:57	-133.788	48.595	0	95.00	0	6.9640	0	32.4380	0	25.407	0	94.176	0	-1e10	8	-1e10	8	-1E+10	1	-1E+10	1	-1E+10	1	-1E+10	1	-1E+10	1	-1E+10	1
4902554	63	C	11/02/2022	23:57	-133.788	48.595	0	95.90	0	6.9530	0	32.4380	0	25.409	0	95.068	0	-1e10	8	-1e10	8	-1E+10	1	-1E+10	1	-1E+10	1	-1E+10	1	-1E+10	1	-1E+10	1
4902554	63	C	11/02/2022	23:57	-133.788	48.595	0	97.10	0	6.9390	0	32.4400	0	25.412	0	96.257	0	-1e10	8	-1e10	8	-1E+10	1	-1E+10	1	-1E+10	1	-1E+10	1	-1E+10	1	-1E+10	1
4902554	63	C	11/02/2022	23:57	-133.788	48.595	0	98.00	0	6.8970	0	32.4470	0	25.423	0	97.149	0	-1e10	8	-1e10	8	-1E+10	1	-1E+10	1	-1E+10	1	-1E+10	1	-1E+10	1	-1E+10	1
4902554	63	C	11/02/2022	23:57	-133.788	48.595	0	98.90	0	6.8670	0	32.4500	0	25.429	0	98.041	0	-1e10	8	-1e10	8	-1E+10	1	-1E+10	1	-1E+10	1	-1E+10	1	-1E+10	1	-1E+10	1
4902554	63	C	11/02/2022	23:57	-133.788	48.595	0	100.10	0	6.8220	0	32.4580	0	25.442	0	99.231	0	-1e10	8	-1e10	8	-1E+10	1	-1E+10	1	-1E+10	1	-1E+10	1	-1E+10	1	-1E+10	1
4902554	63	C	11/02/2022	23:57	-133.788	48.595	0	101.10	0	6.8060	0	32.4600	0	25.445	0	100.222	0	-1e10	8	-1e10	8	-1E+10	1	-1E+10	1	-1E+10	1	-1E+10	1	-1E+10	1	-1E+10	1
4902554	63	C	11/02/2022	23:57	-133.788	48.595	0	102.00	0	6.7820	0	32.4650	0	25.452	0	101.114	0	-1e10	8	-1e10	8	-1E+10	1	-1E+10	1	-1E+10	1	-1E+10	1	-1E+10	1	-1E+10	1
4902554	63	C	11/02/2022	23:57	-133.788	48.595	0	103.00	0	6.7630	0	32.4690	0	25.458	0	102.105	0	-1e10	8	-1e10	8	-1E+10	1	-1E+10	1	-1E+10	1	-1E+10	1	-1E+10	1	-1E+10	1
4902554	63	C	11/02/2022	23:57	-133.788	48.595	0	103.90	0	6.7560	0	32.4710	0	25.461	0	102.997	0	-1e10	8	-1e10	8	-1E+10	1	-1E+10	1	-1E+10	1	-1E+10	1	-1E+10	1	-1E+10	1
4902554	63	C	11/02/2022	23:57	-133.788	48.595	0	104.90	0	6.7470	0	32.4730	0	25.463	0	103.988	0	-1e10	8	-1e10	8	-1E+10	1	-1E+10	1	-1E+10	1	-1E+10	1	-1E+10	1	-1E+10	1
4902554	63	C	11/02/2022	23:57	-133.788	48.595	0	105.80	0	6.7320	0	32.4770	0	25.468	0	104.880	0	-1e10	8	-1e10	8	-1E+10	1	-1E+10	1	-1E+10	1	-1E+10	1	-1E+10	1	-1E+10	1
4902554	63	C	11/02/2022	23:57	-133.788	48.595	0	107.00	0	6.7090	0	32.4850	0	25.478	0	106.069	0	-1e10	8	-1e10	8	-1E+10	1	-1E+10	1	-1E+10	1	-1E+10	1	-1E+10	1	-1E+10	1
4902554	63	C	11/02/2022	23:57	-133.788	48.595	0	108.20	0	6.6500	0	32.5060	0	25.502	0	107.258	0	-1e10	8	-1e10	8	-1E+10	1	-1E+10	1	-1E+10	1	-1E+10	1	-1E+10	1	-1E+10	1
4902554	63	C	11/02/2022	23:57	-133.788	48.595	0	109.10	0	6.6130	0	32.5190	0	25.517	0	108.150	0	-1e10	8	-1e10	8	-1E+10	1	-1E+10	1	-1E+10	1	-1E+10	1	-1E+10	1	-1E+10	1
4902554	63	C	11/02/2022	23:57	-133.788	48.595	0	109.90	0	6.5480	0	32.5600	0	25.558	0	108.943	0	-1e10	8	-1e10	8	-1E+10	1	-1E+10	1	-1E+10	1	-1E+10	1	-1E+10	1	-1E+10	1
4902554	63	C	11/02/2022	23:57	-133.788	48.595	0	111.00	0	6.5090	0	32.5900	0	25.586	0	110.033	0	-1e10	8	-1e10	8	-1E+10	1	-1E+10	1	-1E+10	1	-1E+10	1	-1E+10	1	-1E+10	1
4902554	63	C	11/02/2022	23:57	-133.788	48.595	0	112.00	0	6.4790	0	32.6190	0	25.613	0	111.024	0	-1e10	8	-1e10	8	-1E+10	1	-1E+10	1	-1E+10	1	-1E+10	1	-1E+10	1	-1E+10	1
4902554	63	C	11/02/2022	23:57	-133.788	48.595	0	113.10	0	6.4290	0	32.6690	0	25.659	0	112.114	0	-1e10	8	-1e10	8	-1E+10	1	-1E+10	1	-1E+10	1	-1E+10	1	-1E+10	1	-1E+10	1
4902554	63	C	11/02/2022	23:57	-133.788	48.595	0	113.90	0	6.4140	0	32.6790	0	25.669	0	112.907	0	-1e10	8	-1e10	8	-1E+10	1	-1E+10	1	-1E+10	1	-1E+10	1	-1E+10	1	-1E+10	1
4902554	63	C	11/02/2022	23:57	-133.788	48.595	0	115.00	0	6.4020	0	32.6900	0	25.679	0	113.997	0	-1e10	8	-1e10	8	-1E+10	1	-1E+10	1	-1E+10	1	-1E+10	1	-1E+10	1	-1E+10	1
4902554	63	C	11/02/2022	23:57	-133.788	48.595	0	116.20	0	6.3840	0	32.7080	0	25.695	0	115.186	0	-1e10	8	-1e10	8	-1E+10	1	-1E+10	1	-1E+10	1	-1E+10	1	-1E+10	1	-1E+10	1
4902554	63	C	11/02/2022	23:57	-133.788	48.595	0	117.00	0	6.3790	0	32.7140	0	25.701	0	115.979	0	-1e10	8	-1e10	8	-1E+10	1	-1E+10	1	-1E+10	1	-1E+10	1	-1E+10	1	-1E+10	1
4902554	63	C	11/02/2022	23:57	-133.788	48.595	0	118.10	0	6.3690	0	32.7240	0	25.710	0	117.069	0	-1e10	8	-1e10	8	-1E+10	1	-1E+10	1	-1E+10	1	-1E+10	1	-1E+10	1	-1E+10	1
4902554	63	C	11/02/2022	23:57	-133.788	48.595	0	118.90	0	6.3620	0	32.7320	0	25.717	0	117.862	0	-1e10	8	-1e10	8	-1E+10	1	-1E+10	1	-1E+10	1	-1E+10	1	-1E+10	1	-1E+10	1
4902554	63	C	11/02/2022	23:57	-133.788	48.595	0	119.70	0	6.3490	0	32.7460	0	25.730	0	118.655	0	-1e10	8	-1e10	8	-1E+10	1	-1E+10	1	-1E+10	1	-1E+10	1	-1E+10	1	-1E+10	1
4902554	63	C	11/02/2022	23:57	-133.788	48.595	0	120.80	0	6.3320	0	32.7630	0	25.745	0	119.745	0	-1e10	8	-1e10	8	-1E+10	1	-1E+10	1	-1E+10	1	-1E+10	1	-1E+10	1	-1E+10	1
4902554	63	C	11/02/2022	23:57	-133.788	48.595	0	122.00	0	6.3280	0	32.7670	0	25.749	0	120.934	0	-1e10	8	-1e10	8	-1E+10	1	-1E+10	1	-1E+10	1	-1E+10	1	-1E+10	1	-1E+10	1
4902554	63	C	11/02/2022	23:57	-133.788	48.595	0	122.90	0	6.3270	0	32.7680	0	25.750	0	121.826	0	-1e10	8	-1e10	8	-1E+10	1	-1E+10	1	-1E+10	1	-1E+10	1	-1E+10	1	-1E+10	1
4902554	63	C	11/02/2022	23:57	-133.788	48.595	0	123.80	0	6.3120	0	32.7830	0	25.764	0	122.718	0	-1e10	8	-1e10	8	-1E+10	1	-1E+10	1	-1E+10	1	-1E+10	1	-1E+10	1	-1E+10	1
4902554	63	C	11/02/2022	23:57	-133.788	48.595	0	125.00	0	6.2960	0	32.7960	0	25.776	0	123.907	0	-1e10	8	-1e10	8	-1E+10	1	-1E+10	1	-1E+10	1	-1E+10	1	-1E+10	1	-1E+10	1
4902554	63	C	11/02/2022	23:57	-133.788	48.595	0	126.00	0	6.2890	0	32.8030	0	25.782	0	124.898	0	-1e10	8	-1e10	8	-1E+10	1	-1E+10	1	-1E+10	1	-1E+10	1	-1E+10	1	-1E+10	1
4902554	63	C	11/02/2022	23:57	-133.788	48.595	0	126.90	0	6.2750	0	32.8120	0	25.791	0	125.790	0	-1e10	8	-1e10	8	-1E+10	1	-1E+10	1	-1E+10	1	-1E+10	1	-1E+10	1	-1E+10	1
4902554	63	C	11/02/2022	23:57	-133.788	48.595	0	128.10	0	6.2400	0	32.8440	0	25.821	0	126.979	0	-1e10	8	-1e10	8	-1E+10	1	-1E+10	1	-1E+10	1	-1E+10	1	-1E+10	1	-1E+10	1
4902554	63	C	11/02/2022	23:57	-133.788	48.595	0	129.00	0	6.2240	0	32.8620	0	25.837	0	127.871	0	-1e10	8	-1e10	8	-1E+10	1	-1E+10	1	-1E+10	1	-1E+10	1	-1E+10	1	-1E+10	1
4902554	63	C	11/02/2022	23:57	-133.788	48.595	0	130.00	0	6.2200	0	32.8650	0	25.840	0	128.861	0	-1e10	8	-1e10	8	-1E+10	1	-1E+10	1	-1E+10	1	-1E+10	1	-1E+10	1	-1E+10	1
4902554	63	C	11/02/2022	23:57	-133.788	48.595	0	130.80	0	6.2030	0	32.8820	0	25.856	0	129.654	0	-1e10	8	-1e10	8	-1E+10	1	-1E+10	1	-1E+10	1	-1E+10	1	-1E+10	1	-1E+10	1
4902554	63	C	11/02/2022	23:57	-133.788	48.595	0	131.80	0	6.1770	0	32.9120	0	25.883	0	130.645	0	-1e10	8	-1e10	8	-1E+10	1	-1E+10	1	-1E+10	1	-1E+10	1	-1E+10	1	-1E+10	1
4902554	63	C	11/02/2022	23:57	-133.788	48.595	0	132.80	0	6.1570	0	32.9330	0	25.902	0	131.636	0	-1e10	8	-1e10	8	-1E+10	1	-1E+10	1	-1E+10	1	-1E+10	1	-1E+10	1	-1E+10	1
4902554	63	C	11/02/2022	23:57	-133.788	48.595	0	133.80	0	6.1120	0	32.9990	0	25.959	0	132.627	0	-1e10	8	-1e10	8	-1E+10	1	-1E+10	1	-1E+10	1	-1E+10	1	-1E+10	1	-1E+10	1
4902554	63	C	11/02/2022	23:57	-133.788	48.595	0	134.90	0	6.0980	0	33.0090	0	25.969	0	133.717	0	-1e10	8	-1e10	8	-1E+10	1	-1E+10	1	-1E+10	1	-1E+10	1	-1E+10	1	-1E+10	1
4902554	63	C	11/02/2022	23:57	-133.788	48.595	0	136.00	0	6.0130	0	33.1060	0	26.056	0	134.807	0	-1e10	8	-1e10	8	-1E+10	1	-1E+10	1	-1E+10	1	-1E+10	1	-1E+10	1	-1E+10	1
4902554	63	C	11/02/2022	23:57	-133.788	48.595	0	137.10	0	5.9900	0	33.1310	0	26.079	0	135.897	0	-1e10	8	-1e10	8	-1E+10	1	-1E+10	1	-1E+10	1	-1E+10	1	-1E+10	1	-1E+10	1
4902554	63	C	11/02/2022	23:57	-133.788	48.595	0	137.90	0	5.9790	0	33.1400	0	26.087	0	136.690	0	-1e10	8	-1e10	8	-1E+10	1	-1E+10	1	-1E+10	1	-1E+10	1	-1E+10	1	-1E+10	1
4902554	63	C	11/02/2022	23:57	-133.788	48.595	0	138.70	0	5.9450	0	33.1770	0	26.121	0	137.482	0	-1e10	8	-1e10	8	-1E+10	1	-1E+10	1	-1E+10	1	-1E+10	1	-1E+10	1	-1E+10	1
4902554	63	C	11/02/2022	23:57	-133.788	48.595	0	139.90	0	5.9210	0	33.2050	0	26.146	0	138.671	0	-1e10	8	-1e10	8	-1E+10	1	-1E+10	1	-1E+10	1	-1E+10	1	-1E+10	1	-1E+10	1
4902554	63	C	11/02/2022	23:57	-133.788	48.595	0	141.30	0	5.9000	0	33.2300	0	26.168	0	140.059	0	-1e10	8	-1e10	8	-1E+10	1	-1E+10	1	-1E+10	1	-1E+10	1	-1E+10	1	-1E+10	1
4902554	63	C	11/02/2022	23:57	-133.788	48.595	0	142.10	0	5.8880	0	33.2460	0	26.182	0	140.851	0	-1e10	8	-1e10	8	-1E+10	1	-1E+10	1	-1E+10	1	-1E+10	1	-1E+10	1	-1E+10	1
4902554	63	C	11/02/2022	23:57	-133.788	48.595	0	143.00	0	5.8700	0	33.2710	0	26.204	0	141.743	0	-1e10	8	-1e10	8	-1E+10	1	-1E+10	1	-1E+10	1	-1E+10	1	-1E+10	1	-1E+10	1
4902554	63	C	11/02/2022	23:57	-133.788	48.595	0	143.90	0	5.8490	0	33.3010	0	26.230	0	142.635	0	-1e10	8	-1e10	8	-1E+10	1	-1E+10	1	-1E+10	1	-1E+10	1	-1E+10	1	-1E+10	1
4902554	63	C	11/02/2022	23:57	-133.788	48.595	0	144.80	0	5.8400	0	33.3120	0	26.240	0	143.527	0	-1e10	8	-1e10	8	-1E+10	1	-1E+10	1	-1E+10	1	-1E+10	1	-1E+10	1	-1E+10	1
4902554	63	C	11/02/2022	23:57	-133.788	48.595	0	145.80	0	5.8300	0	33.3270	0	26.253	0	144.518	0	-1e10	8	-1e10	8	-1E+10	1	-1E+10	1	-1E+10	1	-1E+10	1	-1E+10	1	-1E+10	1
4902554	63	C	11/02/2022	23:57	-133.788	48.595	0	146.70	0	5.8230	0	33.3400	0	26.264	0	145.409	0	-1e10	8	-1e10	8	-1E+10	1	-1E+10	1	-1E+10	1	-1E+10	1	-1E+10	1	-1E+10	1
4902554	63	C	11/02/2022	23:57	-133.788	48.595	0	147.70	0	5.8220	0	33.3430	0	26.267	0	146.400	0	-1e10	8	-1e10	8	-1E+10	1	-1E+10	1	-1E+10	1	-1E+10	1	-1E+10	1	-1E+10	1
4902554	63	C	11/02/2022	23:57	-133.788	48.595	0	148.60	0	5.8190	0	33.3480	0	26.271	0	147.292	0	-1e10	8	-1e10	8	-1E+10	1	-1E+10	1	-1E+10	1	-1E+10	1	-1E+10	1	-1E+10	1
4902554	63	C	11/02/2022	23:57	-133.788	48.595	0	149.60	0	5.8120	0	33.3560	0	26.278	0	148.283	0	-1e10	8	-1e10	8	-1E+10	1	-1E+10	1	-1E+10	1	-1E+10	1	-1E+10	1	-1E+10	1
4902554	63	C	11/02/2022	23:57	-133.788	48.595	0	150.60	0	5.8030	0	33.3690	0	26.290	0	149.274	0	-1e10	8	-1e10	8	-1E+10	1	-1E+10	1	-1E+10	1	-1E+10	1	-1E+10	1	-1E+10	1
4902554	63	C	11/02/2022	23:57	-133.788	48.595	0	151.50	0	5.7940	0	33.3870	0	26.305	0	150.165	0	-1e10	8	-1e10	8	-1E+10	1	-1E+10	1	-1E+10	1	-1E+10	1	-1E+10	1	-1E+10	1
4902554	63	C	11/02/2022	23:57	-133.788	48.595	0	152.50	0	5.7880	0	33.4000	0	26.316	0	151.156	0	-1e10	8	-1e10	8	-1E+10	1	-1E+10	1	-1E+10	1	-1E+10	1	-1E+10	1	-1E+10	1
4902554	63	C	11/02/2022	23:57	-133.788	48.595	0	153.50	0	5.7830	0	33.4080	0	26.323	0	152.147	0	-1e10	8	-1e10	8	-1E+10	1	-1E+10	1	-1E+10	1	-1E+10	1	-1E+10	1	-1E+10	1
4902554	63	C	11/02/2022	23:57	-133.788	48.595	0	154.50	0	5.7660	0	33.4360	0	26.347	0	153.138	0	-1e10	8	-1e10	8	-1E+10	1	-1E+10	1	-1E+10	1	-1E+10	1	-1E+10	1	-1E+10	1
4902554	63	C	11/02/2022	23:57	-133.788	48.595	0	155.50	0	5.7570	0	33.4510	0	26.360	0	154.129	0	-1e10	8	-1e10	8	-1E+10	1	-1E+10	1	-1E+10	1	-1E+10	1	-1E+10	1	-1E+10	1
4902554	63	C	11/02/2022	23:57	-133.788	48.595	0	156.50	0	5.7530	0	33.4560	0	26.365	0	155.119	0	-1e10	8	-1e10	8	-1E+10	1	-1E+10	1	-1E+10	1	-1E+10	1	-1E+10	1	-1E+10	1
4902554	63	C	11/02/2022	23:57	-133.788	48.595	0	157.60	0	5.7470	0	33.4670	0	26.374	0	156.209	0	-1e10	8	-1e10	8	-1E+10	1	-1E+10	1	-1E+10	1	-1E+10	1	-1E+10	1	-1E+10	1
4902554	63	C	11/02/2022	23:57	-133.788	48.595	0	158.60	0	5.7340	0	33.4870	0	26.392	0	157.200	0	-1e10	8	-1e10	8	-1E+10	1	-1E+10	1	-1E+10	1	-1E+10	1	-1E+10	1	-1E+10	1
4902554	63	C	11/02/2022	23:57	-133.788	48.595	0	159.60	0	5.7280	0	33.5000	0	26.403	0	158.191	0	-1e10	8	-1e10	8	-1E+10	1	-1E+10	1	-1E+10	1	-1E+10	1	-1E+10	1	-1E+10	1
4902554	63	C	11/02/2022	23:57	-133.788	48.595	0	160.70	0	5.7170	0	33.5300	0	26.428	0	159.281	0	-1e10	8	-1e10	8	-1E+10	1	-1E+10	1	-1E+10	1	-1E+10	1	-1E+10	1	-1E+10	1
4902554	63	C	11/02/2022	23:57	-133.788	48.595	0	161.70	0	5.7060	0	33.5510	0	26.446	0	160.272	0	-1e10	8	-1e10	8	-1E+10	1	-1E+10	1	-1E+10	1	-1E+10	1	-1E+10	1	-1E+10	1
4902554	63	C	11/02/2022	23:57	-133.788	48.595	0	162.80	0	5.6910	0	33.5640	0	26.458	0	161.361	0	-1e10	8	-1e10	8	-1E+10	1	-1E+10	1	-1E+10	1	-1E+10	1	-1E+10	1	-1E+10	1
4902554	63	C	11/02/2022	23:57	-133.788	48.595	0	163.80	0	5.6870	0	33.5660	0	26.460	0	162.352	0	-1e10	8	-1e10	8	-1E+10	1	-1E+10	1	-1E+10	1	-1E+10	1	-1E+10	1	-1E+10	1
4902554	63	C	11/02/2022	23:57	-133.788	48.595	0	164.90	0	5.6810	0	33.5690	0	26.463	0	163.442	0	-1e10	8	-1e10	8	-1E+10	1	-1E+10	1	-1E+10	1	-1E+10	1	-1E+10	1	-1E+10	1
4902554	63	C	11/02/2022	23:57	-133.788	48.595	0	165.90	0	5.6650	0	33.5830	0	26.476	0	164.433	0	-1e10	8	-1e10	8	-1E+10	1	-1E+10	1	-1E+10	1	-1E+10	1	-1E+10	1	-1E+10	1
4902554	63	C	11/02/2022	23:57	-133.788	48.595	0	167.00	0	5.6540	0	33.6090	0	26.498	0	165.523	0	-1e10	8	-1e10	8	-1E+10	1	-1E+10	1	-1E+10	1	-1E+10	1	-1E+10	1	-1E+10	1
4902554	63	C	11/02/2022	23:57	-133.788	48.595	0	168.00	0	5.6550	0	33.6330	0	26.517	0	166.513	0	-1e10	8	-1e10	8	-1E+10	1	-1E+10	1	-1E+10	1	-1E+10	1	-1E+10	1	-1E+10	1
4902554	63	C	11/02/2022	23:57	-133.788	48.595	0	169.10	0	5.6540	0	33.6340	0	26.518	0	167.603	0	-1e10	8	-1e10	8	-1E+10	1	-1E+10	1	-1E+10	1	-1E+10	1	-1E+10	1	-1E+10	1
4902554	63	C	11/02/2022	23:57	-133.788	48.595	0	170.10	0	5.6510	0	33.6360	0	26.520	0	168.594	0	-1e10	8	-1e10	8	-1E+10	1	-1E+10	1	-1E+10	1	-1E+10	1	-1E+10	1	-1E+10	1
4902554	63	C	11/02/2022	23:57	-133.788	48.595	0	171.10	0	5.6510	0	33.6340	0	26.518	0	169.585	0	-1e10	8	-1e10	8	-1E+10	1	-1E+10	1	-1E+10	1	-1E+10	1	-1E+10	1	-1E+10	1
4902554	63	C	11/02/2022	23:57	-133.788	48.595	0	172.10	0	5.6500	0	33.6340	0	26.518	0	170.575	0	-1e10	8	-1e10	8	-1E+10	1	-1E+10	1	-1E+10	1	-1E+10	1	-1E+10	1	-1E+10	1
4902554	63	C	11/02/2022	23:57	-133.788	48.595	0	173.20	0	5.6420	0	33.6370	0	26.521	0	171.665	0	-1e10	8	-1e10	8	-1E+10	1	-1E+10	1	-1E+10	1	-1E+10	1	-1E+10	1	-1E+10	1
4902554	63	C	11/02/2022	23:57	-133.788	48.595	0	174.20	0	5.6370	0	33.6400	0	26.524	0	172.656	0	-1e10	8	-1e10	8	-1E+10	1	-1E+10	1	-1E+10	1	-1E+10	1	-1E+10	1	-1E+10	1
4902554	63	C	11/02/2022	23:57	-133.788	48.595	0	175.20	0	5.6350	0	33.6430	0	26.527	0	173.647	0	-1e10	8	-1e10	8	-1E+10	1	-1E+10	1	-1E+10	1	-1E+10	1	-1E+10	1	-1E+10	1
4902554	63	C	11/02/2022	23:57	-133.788	48.595	0	176.30	0	5.6330	0	33.6460	0	26.530	0	174.736	0	-1e10	8	-1e10	8	-1E+10	1	-1E+10	1	-1E+10	1	-1E+10	1	-1E+10	1	-1E+10	1
4902554	63	C	11/02/2022	23:57	-133.788	48.595	0	177.30	0	5.6280	0	33.6520	0	26.535	0	175.727	0	-1e10	8	-1e10	8	-1E+10	1	-1E+10	1	-1E+10	1	-1E+10	1	-1E+10	1	-1E+10	1
4902554	63	C	11/02/2022	23:57	-133.788	48.595	0	178.30	0	5.6100	0	33.6640	0	26.547	0	176.718	0	-1e10	8	-1e10	8	-1E+10	1	-1E+10	1	-1E+10	1	-1E+10	1	-1E+10	1	-1E+10	1
4902554	63	C	11/02/2022	23:57	-133.788	48.595	0	179.30	0	5.6070	0	33.6670	0	26.549	0	177.709	0	-1e10	8	-1e10	8	-1E+10	1	-1E+10	1	-1E+10	1	-1E+10	1	-1E+10	1	-1E+10	1
4902554	63	C	11/02/2022	23:57	-133.788	48.595	0	180.40	0	5.5890	0	33.6790	0	26.561	0	178.798	0	-1e10	8	-1e10	8	-1E+10	1	-1E+10	1	-1E+10	1	-1E+10	1	-1E+10	1	-1E+10	1
4902554	63	C	11/02/2022	23:57	-133.788	48.595	0	181.40	0	5.5880	0	33.6790	0	26.561	0	179.789	0	-1e10	8	-1e10	8	-1E+10	1	-1E+10	1	-1E+10	1	-1E+10	1	-1E+10	1	-1E+10	1
4902554	63	C	11/02/2022	23:57	-133.788	48.595	0	182.50	0	5.5880	0	33.6850	0	26.566	0	180.879	0	-1e10	8	-1e10	8	-1E+10	1	-1E+10	1	-1E+10	1	-1E+10	1	-1E+10	1	-1E+10	1
4902554	63	C	11/02/2022	23:57	-133.788	48.595	0	183.50	0	5.5870	0	33.6890	0	26.569	0	181.869	0	-1e10	8	-1e10	8	-1E+10	1	-1E+10	1	-1E+10	1	-1E+10	1	-1E+10	1	-1E+10	1
4902554	63	C	11/02/2022	23:57	-133.788	48.595	0	184.90	0	5.5870	0	33.6900	0	26.570	0	183.256	0	-1e10	8	-1e10	8	-1E+10	1	-1E+10	1	-1E+10	1	-1E+10	1	-1E+10	1	-1E+10	1
4902554	63	C	11/02/2022	23:57	-133.788	48.595	0	186.30	0	5.5850	0	33.6940	0	26.574	0	184.643	0	-1e10	8	-1e10	8	-1E+10	1	-1E+10	1	-1E+10	1	-1E+10	1	-1E+10	1	-1E+10	1
4902554	63	C	11/02/2022	23:57	-133.788	48.595	0	187.10	0	5.5790	0	33.6970	0	26.577	0	185.436	0	-1e10	8	-1e10	8	-1E+10	1	-1E+10	1	-1E+10	1	-1E+10	1	-1E+10	1	-1E+10	1
4902554	63	C	11/02/2022	23:57	-133.788	48.595	0	187.80	0	5.5730	0	33.6990	0	26.579	0	186.129	0	-1e10	8	-1e10	8	-1E+10	1	-1E+10	1	-1E+10	1	-1E+10	1	-1E+10	1	-1E+10	1
4902554	63	C	11/02/2022	23:57	-133.788	48.595	0	188.90	0	5.5690	0	33.7000	0	26.580	0	187.219	0	-1e10	8	-1e10	8	-1E+10	1	-1E+10	1	-1E+10	1	-1E+10	1	-1E+10	1	-1E+10	1
4902554	63	C	11/02/2022	23:57	-133.788	48.595	0	190.00	0	5.5630	0	33.7000	0	26.581	0	188.309	0	-1e10	8	-1e10	8	-1E+10	1	-1E+10	1	-1E+10	1	-1E+10	1	-1E+10	1	-1E+10	1
4902554	63	C	11/02/2022	23:57	-133.788	48.595	0	190.80	0	5.5630	0	33.7020	0	26.583	0	189.101	0	-1e10	8	-1e10	8	-1E+10	1	-1E+10	1	-1E+10	1	-1E+10	1	-1E+10	1	-1E+10	1
4902554	63	C	11/02/2022	23:57	-133.788	48.595	0	191.90	0	5.5630	0	33.7010	0	26.582	0	190.191	0	-1e10	8	-1e10	8	-1E+10	1	-1E+10	1	-1E+10	1	-1E+10	1	-1E+10	1	-1E+10	1
4902554	63	C	11/02/2022	23:57	-133.788	48.595	0	193.10	0	5.5230	0	33.7050	0	26.590	0	191.380	0	-1e10	8	-1e10	8	-1E+10	1	-1E+10	1	-1E+10	1	-1E+10	1	-1E+10	1	-1E+10	1
4902554	63	C	11/02/2022	23:57	-133.788	48.595	0	193.80	0	5.4930	0	33.7070	0	26.595	0	192.073	0	-1e10	8	-1e10	8	-1E+10	1	-1E+10	1	-1E+10	1	-1E+10	1	-1E+10	1	-1E+10	1
4902554	63	C	11/02/2022	23:57	-133.788	48.595	0	194.90	0	5.4860	0	33.7060	0	26.595	0	193.163	0	-1e10	8	-1e10	8	-1E+10	1	-1E+10	1	-1E+10	1	-1E+10	1	-1E+10	1	-1E+10	1
4902554	63	C	11/02/2022	23:57	-133.788	48.595	0	196.10	0	5.4750	0	33.7090	0	26.599	0	194.352	0	-1e10	8	-1e10	8	-1E+10	1	-1E+10	1	-1E+10	1	-1E+10	1	-1E+10	1	-1E+10	1
4902554	63	C	11/02/2022	23:57	-133.788	48.595	0	196.90	0	5.4680	0	33.7120	0	26.602	0	195.144	0	-1e10	8	-1e10	8	-1E+10	1	-1E+10	1	-1E+10	1	-1E+10	1	-1E+10	1	-1E+10	1
4902554	63	C	11/02/2022	23:57	-133.788	48.595	0	197.70	0	5.4410	0	33.7190	0	26.611	0	195.936	0	-1e10	8	-1e10	8	-1E+10	1	-1E+10	1	-1E+10	1	-1E+10	1	-1E+10	1	-1E+10	1
4902554	63	C	11/02/2022	23:57	-133.788	48.595	0	198.90	0	5.3910	0	33.7230	0	26.620	0	197.125	0	-1e10	8	-1e10	8	-1E+10	1	-1E+10	1	-1E+10	1	-1E+10	1	-1E+10	1	-1E+10	1
4902554	63	C	11/02/2022	23:57	-133.788	48.595	0	200.10	0	5.3540	0	33.7240	0	26.625	0	198.314	0	-1e10	8	-1e10	8	-1E+10	1	-1E+10	1	-1E+10	1	-1E+10	1	-1E+10	1	-1E+10	1
4902554	63	C	11/02/2022	23:57	-133.788	48.595	0	201.00	0	5.3360	0	33.7200	0	26.624	0	199.205	0	-1e10	8	-1e10	8	-1E+10	1	-1E+10	1	-1E+10	1	-1E+10	1	-1E+10	1	-1E+10	1
4902554	63	C	11/02/2022	23:57	-133.788	48.595	0	201.80	0	5.3210	0	33.7180	0	26.624	0	199.998	0	-1e10	8	-1e10	8	-1E+10	1	-1E+10	1	-1E+10	1	-1E+10	1	-1E+10	1	-1E+10	1
4902554	63	C	11/02/2022	23:57	-133.788	48.595	0	202.70	0	5.3070	0	33.7190	0	26.626	0	200.889	0	-1e10	8	-1e10	8	-1E+10	1	-1E+10	1	-1E+10	1	-1E+10	1	-1E+10	1	-1E+10	1
4902554	63	C	11/02/2022	23:57	-133.788	48.595	0	203.90	0	5.2970	0	33.7240	0	26.631	0	202.078	0	-1e10	8	-1e10	8	-1E+10	1	-1E+10	1	-1E+10	1	-1E+10	1	-1E+10	1	-1E+10	1
4902554	63	C	11/02/2022	23:57	-133.788	48.595	0	205.20	0	5.3290	0	33.7360	0	26.637	0	203.366	0	-1e10	8	-1e10	8	-1E+10	1	-1E+10	1	-1E+10	1	-1E+10	1	-1E+10	1	-1E+10	1
4902554	63	C	11/02/2022	23:57	-133.788	48.595	0	206.10	0	5.3060	0	33.7400	0	26.643	0	204.257	0	-1e10	8	-1e10	8	-1E+10	1	-1E+10	1	-1E+10	1	-1E+10	1	-1E+10	1	-1E+10	1
4902554	63	C	11/02/2022	23:57	-133.788	48.595	0	206.90	0	5.2870	0	33.7400	0	26.645	0	205.050	0	-1e10	8	-1e10	8	-1E+10	1	-1E+10	1	-1E+10	1	-1E+10	1	-1E+10	1	-1E+10	1
4902554	63	C	11/02/2022	23:57	-133.788	48.595	0	207.80	0	5.2720	0	33.7380	0	26.645	0	205.941	0	-1e10	8	-1e10	8	-1E+10	1	-1E+10	1	-1E+10	1	-1E+10	1	-1E+10	1	-1E+10	1
4902554	63	C	11/02/2022	23:57	-133.788	48.595	0	208.70	0	5.2390	0	33.7420	0	26.652	0	206.833	0	-1e10	8	-1e10	8	-1E+10	1	-1E+10	1	-1E+10	1	-1E+10	1	-1E+10	1	-1E+10	1
4902554	63	C	11/02/2022	23:57	-133.788	48.595	0	209.60	0	5.2230	0	33.7400	0	26.653	0	207.724	0	-1e10	8	-1e10	8	-1E+10	1	-1E+10	1	-1E+10	1	-1E+10	1	-1E+10	1	-1E+10	1
4902554	63	C	11/02/2022	23:57	-133.788	48.595	0	210.90	0	5.2090	0	33.7410	0	26.655	0	209.012	0	-1e10	8	-1e10	8	-1E+10	1	-1E+10	1	-1E+10	1	-1E+10	1	-1E+10	1	-1E+10	1
4902554	63	C	11/02/2022	23:57	-133.788	48.595	0	212.30	0	5.2010	0	33.7400	0	26.655	0	210.399	0	-1e10	8	-1e10	8	-1E+10	1	-1E+10	1	-1E+10	1	-1E+10	1	-1E+10	1	-1E+10	1
4902554	63	C	11/02/2022	23:57	-133.788	48.595	0	213.20	0	5.1950	0	33.7400	0	26.656	0	211.290	0	-1e10	8	-1e10	8	-1E+10	1	-1E+10	1	-1E+10	1	-1E+10	1	-1E+10	1	-1E+10	1
4902554	63	C	11/02/2022	23:57	-133.788	48.595	0	214.10	0	5.1780	0	33.7420	0	26.660	0	212.182	0	-1e10	8	-1e10	8	-1E+10	1	-1E+10	1	-1E+10	1	-1E+10	1	-1E+10	1	-1E+10	1
4902554	63	C	11/02/2022	23:57	-133.788	48.595	0	215.10	0	5.1740	0	33.7410	0	26.659	0	213.172	0	-1e10	8	-1e10	8	-1E+10	1	-1E+10	1	-1E+10	1	-1E+10	1	-1E+10	1	-1E+10	1
4902554	63	C	11/02/2022	23:57	-133.788	48.595	0	216.00	0	5.1700	0	33.7390	0	26.658	0	214.064	0	-1e10	8	-1e10	8	-1E+10	1	-1E+10	1	-1E+10	1	-1E+10	1	-1E+10	1	-1E+10	1
4902554	63	C	11/02/2022	23:57	-133.788	48.595	0	216.90	0	5.1680	0	33.7390	0	26.658	0	214.955	0	-1e10	8	-1e10	8	-1E+10	1	-1E+10	1	-1E+10	1	-1E+10	1	-1E+10	1	-1E+10	1
4902554	63	C	11/02/2022	23:57	-133.788	48.595	0	217.80	0	5.1520	0	33.7420	0	26.663	0	215.847	0	-1e10	8	-1e10	8	-1E+10	1	-1E+10	1	-1E+10	1	-1E+10	1	-1E+10	1	-1E+10	1
4902554	63	C	11/02/2022	23:57	-133.788	48.595	0	218.70	0	5.1310	0	33.7420	0	26.665	0	216.738	0	-1e10	8	-1e10	8	-1E+10	1	-1E+10	1	-1E+10	1	-1E+10	1	-1E+10	1	-1E+10	1
4902554	63	C	11/02/2022	23:57	-133.788	48.595	0	219.70	0	5.1180	0	33.7440	0	26.668	0	217.729	0	-1e10	8	-1e10	8	-1E+10	1	-1E+10	1	-1E+10	1	-1E+10	1	-1E+10	1	-1E+10	1
4902554	63	C	11/02/2022	23:57	-133.788	48.595	0	220.60	0	5.1140	0	33.7440	0	26.669	0	218.620	0	-1e10	8	-1e10	8	-1E+10	1	-1E+10	1	-1E+10	1	-1E+10	1	-1E+10	1	-1E+10	1
4902554	63	C	11/02/2022	23:57	-133.788	48.595	0	221.90	0	5.1020	0	33.7470	0	26.672	0	219.908	0	-1e10	8	-1e10	8	-1E+10	1	-1E+10	1	-1E+10	1	-1E+10	1	-1E+10	1	-1E+10	1
4902554	63	C	11/02/2022	23:57	-133.788	48.595	0	223.30	0	5.0850	0	33.7480	0	26.675	0	221.294	0	-1e10	8	-1e10	8	-1E+10	1	-1E+10	1	-1E+10	1	-1E+10	1	-1E+10	1	-1E+10	1
4902554	63	C	11/02/2022	23:57	-133.788	48.595	0	224.20	0	5.0650	0	33.7520	0	26.681	0	222.186	0	-1e10	8	-1e10	8	-1E+10	1	-1E+10	1	-1E+10	1	-1E+10	1	-1E+10	1	-1E+10	1
4902554	63	C	11/02/2022	23:57	-133.788	48.595	0	225.20	0	5.0480	0	33.7500	0	26.681	0	223.176	0	-1e10	8	-1e10	8	-1E+10	1	-1E+10	1	-1E+10	1	-1E+10	1	-1E+10	1	-1E+10	1
4902554	63	C	11/02/2022	23:57	-133.788	48.595	0	226.10	0	5.0210	0	33.7580	0	26.690	0	224.068	0	-1e10	8	-1e10	8	-1E+10	1	-1E+10	1	-1E+10	1	-1E+10	1	-1E+10	1	-1E+10	1
4902554	63	C	11/02/2022	23:57	-133.788	48.595	0	227.10	0	4.9840	0	33.7560	0	26.693	0	225.058	0	-1e10	8	-1e10	8	-1E+10	1	-1E+10	1	-1E+10	1	-1E+10	1	-1E+10	1	-1E+10	1
4902554	63	C	11/02/2022	23:57	-133.788	48.595	0	228.00	0	4.9750	0	33.7580	0	26.696	0	225.950	0	-1e10	8	-1e10	8	-1E+10	1	-1E+10	1	-1E+10	1	-1E+10	1	-1E+10	1	-1E+10	1
4902554	63	C	11/02/2022	23:57	-133.788	48.595	0	229.00	0	4.9560	0	33.7630	0	26.702	0	226.940	0	-1e10	8	-1e10	8	-1E+10	1	-1E+10	1	-1E+10	1	-1E+10	1	-1E+10	1	-1E+10	1
4902554	63	C	11/02/2022	23:57	-133.788	48.595	0	229.90	0	4.9260	0	33.7660	0	26.707	0	227.832	0	-1e10	8	-1e10	8	-1E+10	1	-1E+10	1	-1E+10	1	-1E+10	1	-1E+10	1	-1E+10	1
4902554	63	C	11/02/2022	23:57	-133.788	48.595	0	230.90	0	4.9080	0	33.7650	0	26.709	0	228.822	0	-1e10	8	-1e10	8	-1E+10	1	-1E+10	1	-1E+10	1	-1E+10	1	-1E+10	1	-1E+10	1
4902554	63	C	11/02/2022	23:57	-133.788	48.595	0	231.80	0	4.8950	0	33.7660	0	26.711	0	229.713	0	-1e10	8	-1e10	8	-1E+10	1	-1E+10	1	-1E+10	1	-1E+10	1	-1E+10	1	-1E+10	1
4902554	63	C	11/02/2022	23:57	-133.788	48.595	0	232.80	0	4.8860	0	33.7660	0	26.712	0	230.704	0	-1e10	8	-1e10	8	-1E+10	1	-1E+10	1	-1E+10	1	-1E+10	1	-1E+10	1	-1E+10	1
4902554	63	C	11/02/2022	23:57	-133.788	48.595	0	233.80	0	4.8790	0	33.7680	0	26.714	0	231.694	0	-1e10	8	-1e10	8	-1E+10	1	-1E+10	1	-1E+10	1	-1E+10	1	-1E+10	1	-1E+10	1
4902554	63	C	11/02/2022	23:57	-133.788	48.595	0	234.70	0	4.8690	0	33.7680	0	26.715	0	232.586	0	-1e10	8	-1e10	8	-1E+10	1	-1E+10	1	-1E+10	1	-1E+10	1	-1E+10	1	-1E+10	1
4902554	63	C	11/02/2022	23:57	-133.788	48.595	0	235.70	0	4.8660	0	33.7680	0	26.716	0	233.576	0	-1e10	8	-1e10	8	-1E+10	1	-1E+10	1	-1E+10	1	-1E+10	1	-1E+10	1	-1E+10	1
4902554	63	C	11/02/2022	23:57	-133.788	48.595	0	236.60	0	4.8510	0	33.7690	0	26.718	0	234.467	0	-1e10	8	-1e10	8	-1E+10	1	-1E+10	1	-1E+10	1	-1E+10	1	-1E+10	1	-1E+10	1
4902554	63	C	11/02/2022	23:57	-133.788	48.595	0	237.60	0	4.8430	0	33.7700	0	26.720	0	235.458	0	-1e10	8	-1e10	8	-1E+10	1	-1E+10	1	-1E+10	1	-1E+10	1	-1E+10	1	-1E+10	1
4902554	63	C	11/02/2022	23:57	-133.788	48.595	0	238.50	0	4.8220	0	33.7720	0	26.724	0	236.349	0	-1e10	8	-1e10	8	-1E+10	1	-1E+10	1	-1E+10	1	-1E+10	1	-1E+10	1	-1E+10	1
4902554	63	C	11/02/2022	23:57	-133.788	48.595	0	239.90	0	4.8170	0	33.7720	0	26.724	0	237.736	0	-1e10	8	-1e10	8	-1E+10	1	-1E+10	1	-1E+10	1	-1E+10	1	-1E+10	1	-1E+10	1
4902554	63	C	11/02/2022	23:57	-133.788	48.595	0	241.40	0	4.8160	0	33.7730	0	26.725	0	239.221	0	-1e10	8	-1e10	8	-1E+10	1	-1E+10	1	-1E+10	1	-1E+10	1	-1E+10	1	-1E+10	1
4902554	63	C	11/02/2022	23:57	-133.788	48.595	0	242.40	0	4.8120	0	33.7730	0	26.726	0	240.212	0	-1e10	8	-1e10	8	-1E+10	1	-1E+10	1	-1E+10	1	-1E+10	1	-1E+10	1	-1E+10	1
4902554	63	C	11/02/2022	23:57	-133.788	48.595	0	243.30	0	4.8120	0	33.7730	0	26.726	0	241.103	0	-1e10	8	-1e10	8	-1E+10	1	-1E+10	1	-1E+10	1	-1E+10	1	-1E+10	1	-1E+10	1
4902554	63	C	11/02/2022	23:57	-133.788	48.595	0	244.20	0	4.8100	0	33.7720	0	26.725	0	241.994	0	-1e10	8	-1e10	8	-1E+10	1	-1E+10	1	-1E+10	1	-1E+10	1	-1E+10	1	-1E+10	1
4902554	63	C	11/02/2022	23:57	-133.788	48.595	0	245.20	0	4.7990	0	33.7750	0	26.729	0	242.985	0	-1e10	8	-1e10	8	-1E+10	1	-1E+10	1	-1E+10	1	-1E+10	1	-1E+10	1	-1E+10	1
4902554	63	C	11/02/2022	23:57	-133.788	48.595	0	246.10	0	4.7730	0	33.7790	0	26.735	0	243.876	0	-1e10	8	-1e10	8	-1E+10	1	-1E+10	1	-1E+10	1	-1E+10	1	-1E+10	1	-1E+10	1
4902554	63	C	11/02/2022	23:57	-133.788	48.595	0	247.00	0	4.7660	0	33.7800	0	26.736	0	244.768	0	-1e10	8	-1e10	8	-1E+10	1	-1E+10	1	-1E+10	1	-1E+10	1	-1E+10	1	-1E+10	1
4902554	63	C	11/02/2022	23:57	-133.788	48.595	0	248.00	0	4.7590	0	33.7810	0	26.738	0	245.758	0	-1e10	8	-1e10	8	-1E+10	1	-1E+10	1	-1E+10	1	-1E+10	1	-1E+10	1	-1E+10	1
4902554	63	C	11/02/2022	23:57	-133.788	48.595	0	248.90	0	4.7600	0	33.7800	0	26.737	0	246.649	0	-1e10	8	-1e10	8	-1E+10	1	-1E+10	1	-1E+10	1	-1E+10	1	-1E+10	1	-1E+10	1
4902554	63	C	11/02/2022	23:57	-133.788	48.595	0	249.90	0	4.7480	0	33.7820	0	26.740	0	247.640	0	-1e10	8	-1e10	8	-1E+10	1	-1E+10	1	-1E+10	1	-1E+10	1	-1E+10	1	-1E+10	1
4902554	63	C	11/02/2022	23:57	-133.788	48.595	0	250.80	0	4.7450	0	33.7820	0	26.740	0	248.531	0	-1e10	8	-1e10	8	-1E+10	1	-1E+10	1	-1E+10	1	-1E+10	1	-1E+10	1	-1E+10	1
4902554	63	C	11/02/2022	23:57	-133.788	48.595	0	251.70	0	4.7340	0	33.7840	0	26.743	0	249.422	0	-1e10	8	-1e10	8	-1E+10	1	-1E+10	1	-1E+10	1	-1E+10	1	-1E+10	1	-1E+10	1
4902554	63	C	11/02/2022	23:57	-133.788	48.595	0	252.70	0	4.7240	0	33.7840	0	26.744	0	250.413	0	-1e10	8	-1e10	8	-1E+10	1	-1E+10	1	-1E+10	1	-1E+10	1	-1E+10	1	-1E+10	1
4902554	63	C	11/02/2022	23:57	-133.788	48.595	0	253.70	0	4.7110	0	33.7890	0	26.750	0	251.403	0	-1e10	8	-1e10	8	-1E+10	1	-1E+10	1	-1E+10	1	-1E+10	1	-1E+10	1	-1E+10	1
4902554	63	C	11/02/2022	23:57	-133.788	48.595	0	254.60	0	4.6950	0	33.7930	0	26.755	0	252.294	0	-1e10	8	-1e10	8	-1E+10	1	-1E+10	1	-1E+10	1	-1E+10	1	-1E+10	1	-1E+10	1
4902554	63	C	11/02/2022	23:57	-133.788	48.595	0	255.60	0	4.6860	0	33.7940	0	26.756	0	253.285	0	-1e10	8	-1e10	8	-1E+10	1	-1E+10	1	-1E+10	1	-1E+10	1	-1E+10	1	-1E+10	1
4902554	63	C	11/02/2022	23:57	-133.788	48.595	0	256.60	0	4.6850	0	33.7940	0	26.757	0	254.275	0	-1e10	8	-1e10	8	-1E+10	1	-1E+10	1	-1E+10	1	-1E+10	1	-1E+10	1	-1E+10	1
4902554	63	C	11/02/2022	23:57	-133.788	48.595	0	257.60	0	4.6740	0	33.7970	0	26.760	0	255.265	0	-1e10	8	-1e10	8	-1E+10	1	-1E+10	1	-1E+10	1	-1E+10	1	-1E+10	1	-1E+10	1
4902554	63	C	11/02/2022	23:57	-133.788	48.595	0	258.50	0	4.6670	0	33.7970	0	26.761	0	256.157	0	-1e10	8	-1e10	8	-1E+10	1	-1E+10	1	-1E+10	1	-1E+10	1	-1E+10	1	-1E+10	1
4902554	63	C	11/02/2022	23:57	-133.788	48.595	0	259.50	0	4.6660	0	33.7960	0	26.760	0	257.147	0	-1e10	8	-1e10	8	-1E+10	1	-1E+10	1	-1E+10	1	-1E+10	1	-1E+10	1	-1E+10	1
4902554	63	C	11/02/2022	23:57	-133.788	48.595	0	260.90	0	4.6630	0	33.7970	0	26.761	0	258.533	0	-1e10	8	-1e10	8	-1E+10	1	-1E+10	1	-1E+10	1	-1E+10	1	-1E+10	1	-1E+10	1
4902554	63	C	11/02/2022	23:57	-133.788	48.595	0	262.40	0	4.6610	0	33.7970	0	26.762	0	260.019	0	-1e10	8	-1e10	8	-1E+10	1	-1E+10	1	-1E+10	1	-1E+10	1	-1E+10	1	-1E+10	1
4902554	63	C	11/02/2022	23:57	-133.788	48.595	0	263.30	0	4.6600	0	33.7970	0	26.762	0	260.910	0	-1e10	8	-1e10	8	-1E+10	1	-1E+10	1	-1E+10	1	-1E+10	1	-1E+10	1	-1E+10	1
4902554	63	C	11/02/2022	23:57	-133.788	48.595	0	264.30	0	4.6560	0	33.7990	0	26.764	0	261.900	0	-1e10	8	-1e10	8	-1E+10	1	-1E+10	1	-1E+10	1	-1E+10	1	-1E+10	1	-1E+10	1
4902554	63	C	11/02/2022	23:57	-133.788	48.595	0	265.30	0	4.6450	0	33.8000	0	26.766	0	262.891	0	-1e10	8	-1e10	8	-1E+10	1	-1E+10	1	-1E+10	1	-1E+10	1	-1E+10	1	-1E+10	1
4902554	63	C	11/02/2022	23:57	-133.788	48.595	0	266.20	0	4.6430	0	33.8000	0	26.766	0	263.782	0	-1e10	8	-1e10	8	-1E+10	1	-1E+10	1	-1E+10	1	-1E+10	1	-1E+10	1	-1E+10	1
4902554	63	C	11/02/2022	23:57	-133.788	48.595	0	267.20	0	4.6400	0	33.8010	0	26.767	0	264.772	0	-1e10	8	-1e10	8	-1E+10	1	-1E+10	1	-1E+10	1	-1E+10	1	-1E+10	1	-1E+10	1
4902554	63	C	11/02/2022	23:57	-133.788	48.595	0	268.20	0	4.6350	0	33.8010	0	26.768	0	265.762	0	-1e10	8	-1e10	8	-1E+10	1	-1E+10	1	-1E+10	1	-1E+10	1	-1E+10	1	-1E+10	1
4902554	63	C	11/02/2022	23:57	-133.788	48.595	0	269.10	0	4.6310	0	33.8020	0	26.769	0	266.654	0	-1e10	8	-1e10	8	-1E+10	1	-1E+10	1	-1E+10	1	-1E+10	1	-1E+10	1	-1E+10	1
4902554	63	C	11/02/2022	23:57	-133.788	48.595	0	270.10	0	4.6300	0	33.8020	0	26.769	0	267.644	0	-1e10	8	-1e10	8	-1E+10	1	-1E+10	1	-1E+10	1	-1E+10	1	-1E+10	1	-1E+10	1
4902554	63	C	11/02/2022	23:57	-133.788	48.595	0	271.10	0	4.6280	0	33.8020	0	26.769	0	268.634	0	-1e10	8	-1e10	8	-1E+10	1	-1E+10	1	-1E+10	1	-1E+10	1	-1E+10	1	-1E+10	1
4902554	63	C	11/02/2022	23:57	-133.788	48.595	0	272.10	0	4.6230	0	33.8030	0	26.771	0	269.624	0	-1e10	8	-1e10	8	-1E+10	1	-1E+10	1	-1E+10	1	-1E+10	1	-1E+10	1	-1E+10	1
4902554	63	C	11/02/2022	23:57	-133.788	48.595	0	273.10	0	4.5960	0	33.8100	0	26.779	0	270.615	0	-1e10	8	-1e10	8	-1E+10	1	-1E+10	1	-1E+10	1	-1E+10	1	-1E+10	1	-1E+10	1
4902554	63	C	11/02/2022	23:57	-133.788	48.595	0	274.00	0	4.5820	0	33.8120	0	26.782	0	271.506	0	-1e10	8	-1e10	8	-1E+10	1	-1E+10	1	-1E+10	1	-1E+10	1	-1E+10	1	-1E+10	1
4902554	63	C	11/02/2022	23:57	-133.788	48.595	0	275.00	0	4.5720	0	33.8140	0	26.785	0	272.496	0	-1e10	8	-1e10	8	-1E+10	1	-1E+10	1	-1E+10	1	-1E+10	1	-1E+10	1	-1E+10	1
4902554	63	C	11/02/2022	23:57	-133.788	48.595	0	276.00	0	4.5660	0	33.8150	0	26.786	0	273.486	0	-1e10	8	-1e10	8	-1E+10	1	-1E+10	1	-1E+10	1	-1E+10	1	-1E+10	1	-1E+10	1
4902554	63	C	11/02/2022	23:57	-133.788	48.595	0	277.00	0	4.5630	0	33.8150	0	26.787	0	274.477	0	-1e10	8	-1e10	8	-1E+10	1	-1E+10	1	-1E+10	1	-1E+10	1	-1E+10	1	-1E+10	1
4902554	63	C	11/02/2022	23:57	-133.788	48.595	0	278.00	0	4.5580	0	33.8170	0	26.789	0	275.467	0	-1e10	8	-1e10	8	-1E+10	1	-1E+10	1	-1E+10	1	-1E+10	1	-1E+10	1	-1E+10	1
4902554	63	C	11/02/2022	23:57	-133.788	48.595	0	279.00	0	4.5500	0	33.8200	0	26.792	0	276.457	0	-1e10	8	-1e10	8	-1E+10	1	-1E+10	1	-1E+10	1	-1E+10	1	-1E+10	1	-1E+10	1
4902554	63	C	11/02/2022	23:57	-133.788	48.595	0	280.00	0	4.5420	0	33.8210	0	26.794	0	277.447	0	-1e10	8	-1e10	8	-1E+10	1	-1E+10	1	-1E+10	1	-1E+10	1	-1E+10	1	-1E+10	1
4902554	63	C	11/02/2022	23:57	-133.788	48.595	0	281.00	0	4.5250	0	33.8240	0	26.798	0	278.437	0	-1e10	8	-1e10	8	-1E+10	1	-1E+10	1	-1E+10	1	-1E+10	1	-1E+10	1	-1E+10	1
4902554	63	C	11/02/2022	23:57	-133.788	48.595	0	282.00	0	4.5150	0	33.8270	0	26.801	0	279.428	0	-1e10	8	-1e10	8	-1E+10	1	-1E+10	1	-1E+10	1	-1E+10	1	-1E+10	1	-1E+10	1
4902554	63	C	11/02/2022	23:57	-133.788	48.595	0	283.00	0	4.5130	0	33.8270	0	26.802	0	280.418	0	-1e10	8	-1e10	8	-1E+10	1	-1E+10	1	-1E+10	1	-1E+10	1	-1E+10	1	-1E+10	1
4902554	63	C	11/02/2022	23:57	-133.788	48.595	0	284.00	0	4.5110	0	33.8270	0	26.802	0	281.408	0	-1e10	8	-1e10	8	-1E+10	1	-1E+10	1	-1E+10	1	-1E+10	1	-1E+10	1	-1E+10	1
4902554	63	C	11/02/2022	23:57	-133.788	48.595	0	285.10	0	4.5010	0	33.8330	0	26.808	0	282.497	0	-1e10	8	-1e10	8	-1E+10	1	-1E+10	1	-1E+10	1	-1E+10	1	-1E+10	1	-1E+10	1
4902554	63	C	11/02/2022	23:57	-133.788	48.595	0	286.10	0	4.4940	0	33.8330	0	26.808	0	283.487	0	-1e10	8	-1e10	8	-1E+10	1	-1E+10	1	-1E+10	1	-1E+10	1	-1E+10	1	-1E+10	1
4902554	63	C	11/02/2022	23:57	-133.788	48.595	0	287.10	0	4.4930	0	33.8330	0	26.809	0	284.478	0	-1e10	8	-1e10	8	-1E+10	1	-1E+10	1	-1E+10	1	-1E+10	1	-1E+10	1	-1E+10	1
4902554	63	C	11/02/2022	23:57	-133.788	48.595	0	288.20	0	4.4900	0	33.8330	0	26.809	0	285.567	0	-1e10	8	-1e10	8	-1E+10	1	-1E+10	1	-1E+10	1	-1E+10	1	-1E+10	1	-1E+10	1
4902554	63	C	11/02/2022	23:57	-133.788	48.595	0	289.20	0	4.4860	0	33.8360	0	26.812	0	286.557	0	-1e10	8	-1e10	8	-1E+10	1	-1E+10	1	-1E+10	1	-1E+10	1	-1E+10	1	-1E+10	1
4902554	63	C	11/02/2022	23:57	-133.788	48.595	0	290.20	0	4.4820	0	33.8360	0	26.812	0	287.547	0	-1e10	8	-1e10	8	-1E+10	1	-1E+10	1	-1E+10	1	-1E+10	1	-1E+10	1	-1E+10	1
4902554	63	C	11/02/2022	23:57	-133.788	48.595	0	291.20	0	4.4790	0	33.8360	0	26.812	0	288.537	0	-1e10	8	-1e10	8	-1E+10	1	-1E+10	1	-1E+10	1	-1E+10	1	-1E+10	1	-1E+10	1
4902554	63	C	11/02/2022	23:57	-133.788	48.595	0	292.30	0	4.4780	0	33.8370	0	26.813	0	289.626	0	-1e10	8	-1e10	8	-1E+10	1	-1E+10	1	-1E+10	1	-1E+10	1	-1E+10	1	-1E+10	1
4902554	63	C	11/02/2022	23:57	-133.788	48.595	0	293.30	0	4.4770	0	33.8370	0	26.813	0	290.617	0	-1e10	8	-1e10	8	-1E+10	1	-1E+10	1	-1E+10	1	-1E+10	1	-1E+10	1	-1E+10	1
4902554	63	C	11/02/2022	23:57	-133.788	48.595	0	294.30	0	4.4750	0	33.8370	0	26.814	0	291.607	0	-1e10	8	-1e10	8	-1E+10	1	-1E+10	1	-1E+10	1	-1E+10	1	-1E+10	1	-1E+10	1
4902554	63	C	11/02/2022	23:57	-133.788	48.595	0	295.40	0	4.4740	0	33.8370	0	26.814	0	292.696	0	-1e10	8	-1e10	8	-1E+10	1	-1E+10	1	-1E+10	1	-1E+10	1	-1E+10	1	-1E+10	1
4902554	63	C	11/02/2022	23:57	-133.788	48.595	0	296.40	0	4.4700	0	33.8380	0	26.815	0	293.686	0	-1e10	8	-1e10	8	-1E+10	1	-1E+10	1	-1E+10	1	-1E+10	1	-1E+10	1	-1E+10	1
4902554	63	C	11/02/2022	23:57	-133.788	48.595	0	297.50	0	4.4670	0	33.8390	0	26.816	0	294.775	0	-1e10	8	-1e10	8	-1E+10	1	-1E+10	1	-1E+10	1	-1E+10	1	-1E+10	1	-1E+10	1
4902554	63	C	11/02/2022	23:57	-133.788	48.595	0	298.50	0	4.4650	0	33.8400	0	26.817	0	295.765	0	-1e10	8	-1e10	8	-1E+10	1	-1E+10	1	-1E+10	1	-1E+10	1	-1E+10	1	-1E+10	1
4902554	63	C	11/02/2022	23:57	-133.788	48.595	0	299.50	0	4.4650	0	33.8390	0	26.816	0	296.755	0	-1e10	8	-1e10	8	-1E+10	1	-1E+10	1	-1E+10	1	-1E+10	1	-1E+10	1	-1E+10	1
4902554	63	C	11/02/2022	23:57	-133.788	48.595	0	300.60	0	4.4610	0	33.8400	0	26.818	0	297.845	0	-1e10	8	-1e10	8	-1E+10	1	-1E+10	1	-1E+10	1	-1E+10	1	-1E+10	1	-1E+10	1
4902554	63	C	11/02/2022	23:57	-133.788	48.595	0	301.60	0	4.4490	0	33.8440	0	26.822	0	298.835	0	-1e10	8	-1e10	8	-1E+10	1	-1E+10	1	-1E+10	1	-1E+10	1	-1E+10	1	-1E+10	1
4902554	63	C	11/02/2022	23:57	-133.788	48.595	0	302.70	0	4.4450	0	33.8450	0	26.823	0	299.924	0	-1e10	8	-1e10	8	-1E+10	1	-1E+10	1	-1E+10	1	-1E+10	1	-1E+10	1	-1E+10	1
4902554	63	C	11/02/2022	23:57	-133.788	48.595	0	303.70	0	4.4450	0	33.8440	0	26.823	0	300.914	0	-1e10	8	-1e10	8	-1E+10	1	-1E+10	1	-1E+10	1	-1E+10	1	-1E+10	1	-1E+10	1
4902554	63	C	11/02/2022	23:57	-133.788	48.595	0	304.80	0	4.4320	0	33.8480	0	26.827	0	302.003	0	-1e10	8	-1e10	8	-1E+10	1	-1E+10	1	-1E+10	1	-1E+10	1	-1E+10	1	-1E+10	1
4902554	63	C	11/02/2022	23:57	-133.788	48.595	0	305.80	0	4.4300	0	33.8500	0	26.829	0	302.993	0	-1e10	8	-1e10	8	-1E+10	1	-1E+10	1	-1E+10	1	-1E+10	1	-1E+10	1	-1E+10	1
4902554	63	C	11/02/2022	23:57	-133.788	48.595	0	306.90	0	4.4290	0	33.8500	0	26.829	0	304.082	0	-1e10	8	-1e10	8	-1E+10	1	-1E+10	1	-1E+10	1	-1E+10	1	-1E+10	1	-1E+10	1
4902554	63	C	11/02/2022	23:57	-133.788	48.595	0	307.90	0	4.4240	0	33.8530	0	26.832	0	305.072	0	-1e10	8	-1e10	8	-1E+10	1	-1E+10	1	-1E+10	1	-1E+10	1	-1E+10	1	-1E+10	1
4902554	63	C	11/02/2022	23:57	-133.788	48.595	0	309.00	0	4.4220	0	33.8530	0	26.832	0	306.161	0	-1e10	8	-1e10	8	-1E+10	1	-1E+10	1	-1E+10	1	-1E+10	1	-1E+10	1	-1E+10	1
4902554	63	C	11/02/2022	23:57	-133.788	48.595	0	310.00	0	4.4200	0	33.8540	0	26.833	0	307.151	0	-1e10	8	-1e10	8	-1E+10	1	-1E+10	1	-1E+10	1	-1E+10	1	-1E+10	1	-1E+10	1
4902554	63	C	11/02/2022	23:57	-133.788	48.595	0	311.10	0	4.4170	0	33.8550	0	26.834	0	308.241	0	-1e10	8	-1e10	8	-1E+10	1	-1E+10	1	-1E+10	1	-1E+10	1	-1E+10	1	-1E+10	1
4902554	63	C	11/02/2022	23:57	-133.788	48.595	0	312.20	0	4.4140	0	33.8570	0	26.836	0	309.330	0	-1e10	8	-1e10	8	-1E+10	1	-1E+10	1	-1E+10	1	-1E+10	1	-1E+10	1	-1E+10	1
4902554	63	C	11/02/2022	23:57	-133.788	48.595	0	313.30	0	4.4090	0	33.8580	0	26.838	0	310.419	0	-1e10	8	-1e10	8	-1E+10	1	-1E+10	1	-1E+10	1	-1E+10	1	-1E+10	1	-1E+10	1
4902554	63	C	11/02/2022	23:57	-133.788	48.595	0	314.30	0	4.4040	0	33.8600	0	26.840	0	311.409	0	-1e10	8	-1e10	8	-1E+10	1	-1E+10	1	-1E+10	1	-1E+10	1	-1E+10	1	-1E+10	1
4902554	63	C	11/02/2022	23:57	-133.788	48.595	0	315.40	0	4.4040	0	33.8600	0	26.840	0	312.498	0	-1e10	8	-1e10	8	-1E+10	1	-1E+10	1	-1E+10	1	-1E+10	1	-1E+10	1	-1E+10	1
4902554	63	C	11/02/2022	23:57	-133.788	48.595	0	316.50	0	4.4040	0	33.8600	0	26.840	0	313.587	0	-1e10	8	-1e10	8	-1E+10	1	-1E+10	1	-1E+10	1	-1E+10	1	-1E+10	1	-1E+10	1
4902554	63	C	11/02/2022	23:57	-133.788	48.595	0	317.50	0	4.4040	0	33.8600	0	26.840	0	314.577	0	-1e10	8	-1e10	8	-1E+10	1	-1E+10	1	-1E+10	1	-1E+10	1	-1E+10	1	-1E+10	1
4902554	63	C	11/02/2022	23:57	-133.788	48.595	0	318.60	0	4.4030	0	33.8600	0	26.840	0	315.666	0	-1e10	8	-1e10	8	-1E+10	1	-1E+10	1	-1E+10	1	-1E+10	1	-1E+10	1	-1E+10	1
4902554	63	C	11/02/2022	23:57	-133.788	48.595	0	319.70	0	4.4000	0	33.8620	0	26.842	0	316.755	0	-1e10	8	-1e10	8	-1E+10	1	-1E+10	1	-1E+10	1	-1E+10	1	-1E+10	1	-1E+10	1
4902554	63	C	11/02/2022	23:57	-133.788	48.595	0	320.80	0	4.3970	0	33.8630	0	26.843	0	317.844	0	-1e10	8	-1e10	8	-1E+10	1	-1E+10	1	-1E+10	1	-1E+10	1	-1E+10	1	-1E+10	1
4902554	63	C	11/02/2022	23:57	-133.788	48.595	0	321.80	0	4.3970	0	33.8630	0	26.843	0	318.834	0	-1e10	8	-1e10	8	-1E+10	1	-1E+10	1	-1E+10	1	-1E+10	1	-1E+10	1	-1E+10	1
4902554	63	C	11/02/2022	23:57	-133.788	48.595	0	322.90	0	4.3970	0	33.8630	0	26.843	0	319.923	0	-1e10	8	-1e10	8	-1E+10	1	-1E+10	1	-1E+10	1	-1E+10	1	-1E+10	1	-1E+10	1
4902554	63	C	11/02/2022	23:57	-133.788	48.595	0	324.00	0	4.3960	0	33.8630	0	26.843	0	321.012	0	-1e10	8	-1e10	8	-1E+10	1	-1E+10	1	-1E+10	1	-1E+10	1	-1E+10	1	-1E+10	1
4902554	63	C	11/02/2022	23:57	-133.788	48.595	0	325.10	0	4.3950	0	33.8640	0	26.844	0	322.101	0	-1e10	8	-1e10	8	-1E+10	1	-1E+10	1	-1E+10	1	-1E+10	1	-1E+10	1	-1E+10	1
4902554	63	C	11/02/2022	23:57	-133.788	48.595	0	326.10	0	4.3920	0	33.8660	0	26.846	0	323.091	0	-1e10	8	-1e10	8	-1E+10	1	-1E+10	1	-1E+10	1	-1E+10	1	-1E+10	1	-1E+10	1
4902554	63	C	11/02/2022	23:57	-133.788	48.595	0	327.20	0	4.3920	0	33.8660	0	26.846	0	324.180	0	-1e10	8	-1e10	8	-1E+10	1	-1E+10	1	-1E+10	1	-1E+10	1	-1E+10	1	-1E+10	1
4902554	63	C	11/02/2022	23:57	-133.788	48.595	0	328.30	0	4.3900	0	33.8680	0	26.848	0	325.269	0	-1e10	8	-1e10	8	-1E+10	1	-1E+10	1	-1E+10	1	-1E+10	1	-1E+10	1	-1E+10	1
4902554	63	C	11/02/2022	23:57	-133.788	48.595	0	329.40	0	4.3870	0	33.8690	0	26.849	0	326.358	0	-1e10	8	-1e10	8	-1E+10	1	-1E+10	1	-1E+10	1	-1E+10	1	-1E+10	1	-1E+10	1
4902554	63	C	11/02/2022	23:57	-133.788	48.595	0	330.50	0	4.3870	0	33.8690	0	26.849	0	327.447	0	-1e10	8	-1e10	8	-1E+10	1	-1E+10	1	-1E+10	1	-1E+10	1	-1E+10	1	-1E+10	1
4902554	63	C	11/02/2022	23:57	-133.788	48.595	0	331.60	0	4.3870	0	33.8680	0	26.848	0	328.536	0	-1e10	8	-1e10	8	-1E+10	1	-1E+10	1	-1E+10	1	-1E+10	1	-1E+10	1	-1E+10	1
4902554	63	C	11/02/2022	23:57	-133.788	48.595	0	332.60	0	4.3850	0	33.8680	0	26.848	0	329.526	0	-1e10	8	-1e10	8	-1E+10	1	-1E+10	1	-1E+10	1	-1E+10	1	-1E+10	1	-1E+10	1
4902554	63	C	11/02/2022	23:57	-133.788	48.595	0	333.70	0	4.3810	0	33.8700	0	26.850	0	330.615	0	-1e10	8	-1e10	8	-1E+10	1	-1E+10	1	-1E+10	1	-1E+10	1	-1E+10	1	-1E+10	1
4902554	63	C	11/02/2022	23:57	-133.788	48.595	0	334.70	0	4.3680	0	33.8760	0	26.856	0	331.605	0	-1e10	8	-1e10	8	-1E+10	1	-1E+10	1	-1E+10	1	-1E+10	1	-1E+10	1	-1E+10	1
4902554	63	C	11/02/2022	23:57	-133.788	48.595	0	335.70	0	4.3640	0	33.8770	0	26.858	0	332.595	0	-1e10	8	-1e10	8	-1E+10	1	-1E+10	1	-1E+10	1	-1E+10	1	-1E+10	1	-1E+10	1
4902554	63	C	11/02/2022	23:57	-133.788	48.595	0	336.90	0	4.3600	0	33.8780	0	26.859	0	333.783	0	-1e10	8	-1e10	8	-1E+10	1	-1E+10	1	-1E+10	1	-1E+10	1	-1E+10	1	-1E+10	1
4902554	63	C	11/02/2022	23:57	-133.788	48.595	0	338.10	0	4.3560	0	33.8810	0	26.862	0	334.971	0	-1e10	8	-1e10	8	-1E+10	1	-1E+10	1	-1E+10	1	-1E+10	1	-1E+10	1	-1E+10	1
4902554	63	C	11/02/2022	23:57	-133.788	48.595	0	338.90	0	4.3550	0	33.8820	0	26.863	0	335.762	0	-1e10	8	-1e10	8	-1E+10	1	-1E+10	1	-1E+10	1	-1E+10	1	-1E+10	1	-1E+10	1
4902554	63	C	11/02/2022	23:57	-133.788	48.595	0	339.90	0	4.3550	0	33.8820	0	26.863	0	336.752	0	-1e10	8	-1e10	8	-1E+10	1	-1E+10	1	-1E+10	1	-1E+10	1	-1E+10	1	-1E+10	1
4902554	63	C	11/02/2022	23:57	-133.788	48.595	0	341.00	0	4.3560	0	33.8820	0	26.862	0	337.841	0	-1e10	8	-1e10	8	-1E+10	1	-1E+10	1	-1E+10	1	-1E+10	1	-1E+10	1	-1E+10	1
4902554	63	C	11/02/2022	23:57	-133.788	48.595	0	341.70	0	4.3560	0	33.8820	0	26.862	0	338.534	0	-1e10	8	-1e10	8	-1E+10	1	-1E+10	1	-1E+10	1	-1E+10	1	-1E+10	1	-1E+10	1
4902554	63	C	11/02/2022	23:57	-133.788	48.595	0	342.80	0	4.3570	0	33.8820	0	26.862	0	339.623	0	-1e10	8	-1e10	8	-1E+10	1	-1E+10	1	-1E+10	1	-1E+10	1	-1E+10	1	-1E+10	1
4902554	63	C	11/02/2022	23:57	-133.788	48.595	0	344.00	0	4.3510	0	33.8870	0	26.867	0	340.811	0	-1e10	8	-1e10	8	-1E+10	1	-1E+10	1	-1E+10	1	-1E+10	1	-1E+10	1	-1E+10	1
4902554	63	C	11/02/2022	23:57	-133.788	48.595	0	345.30	0	4.3470	0	33.8890	0	26.869	0	342.098	0	-1e10	8	-1e10	8	-1E+10	1	-1E+10	1	-1E+10	1	-1E+10	1	-1E+10	1	-1E+10	1
4902554	63	C	11/02/2022	23:57	-133.788	48.595	0	346.10	0	4.3430	0	33.8910	0	26.871	0	342.890	0	-1e10	8	-1e10	8	-1E+10	1	-1E+10	1	-1E+10	1	-1E+10	1	-1E+10	1	-1E+10	1
4902554	63	C	11/02/2022	23:57	-133.788	48.595	0	347.00	0	4.3410	0	33.8920	0	26.872	0	343.781	0	-1e10	8	-1e10	8	-1E+10	1	-1E+10	1	-1E+10	1	-1E+10	1	-1E+10	1	-1E+10	1
4902554	63	C	11/02/2022	23:57	-133.788	48.595	0	347.80	0	4.3400	0	33.8930	0	26.873	0	344.573	0	-1e10	8	-1e10	8	-1E+10	1	-1E+10	1	-1E+10	1	-1E+10	1	-1E+10	1	-1E+10	1
4902554	63	C	11/02/2022	23:57	-133.788	48.595	0	348.70	0	4.3400	0	33.8930	0	26.873	0	345.464	0	-1e10	8	-1e10	8	-1E+10	1	-1E+10	1	-1E+10	1	-1E+10	1	-1E+10	1	-1E+10	1
4902554	63	C	11/02/2022	23:57	-133.788	48.595	0	349.90	0	4.3360	0	33.8950	0	26.875	0	346.651	0	-1e10	8	-1e10	8	-1E+10	1	-1E+10	1	-1E+10	1	-1E+10	1	-1E+10	1	-1E+10	1
4902554	63	C	11/02/2022	23:57	-133.788	48.595	0	352.90	0	4.3310	0	33.8990	0	26.879	0	349.621	0	-1e10	8	-1e10	8	-1E+10	1	-1E+10	1	-1E+10	1	-1E+10	1	-1E+10	1	-1E+10	1
4902554	63	C	11/02/2022	23:57	-133.788	48.595	0	357.60	0	4.3230	0	33.9060	0	26.885	0	354.273	0	-1e10	8	-1e10	8	-1E+10	1	-1E+10	1	-1E+10	1	-1E+10	1	-1E+10	1	-1E+10	1
4902554	63	C	11/02/2022	23:57	-133.788	48.595	0	362.80	0	4.3120	0	33.9120	0	26.891	0	359.420	0	-1e10	8	-1e10	8	-1E+10	1	-1E+10	1	-1E+10	1	-1E+10	1	-1E+10	1	-1E+10	1
4902554	63	C	11/02/2022	23:57	-133.788	48.595	0	368.10	0	4.2980	0	33.9220	0	26.901	0	364.666	0	-1e10	8	-1e10	8	-1E+10	1	-1E+10	1	-1E+10	1	-1E+10	1	-1E+10	1	-1E+10	1
4902554	63	C	11/02/2022	23:57	-133.788	48.595	0	373.10	0	4.2890	0	33.9270	0	26.906	0	369.615	0	-1e10	8	-1e10	8	-1E+10	1	-1E+10	1	-1E+10	1	-1E+10	1	-1E+10	1	-1E+10	1
4902554	63	C	11/02/2022	23:57	-133.788	48.595	0	377.70	0	4.2770	0	33.9320	0	26.911	0	374.168	0	-1e10	8	-1e10	8	-1E+10	1	-1E+10	1	-1E+10	1	-1E+10	1	-1E+10	1	-1E+10	1
4902554	63	C	11/02/2022	23:57	-133.788	48.595	0	382.90	0	4.2690	0	33.9390	0	26.917	0	379.315	0	-1e10	8	-1e10	8	-1E+10	1	-1E+10	1	-1E+10	1	-1E+10	1	-1E+10	1	-1E+10	1
4902554	63	C	11/02/2022	23:57	-133.788	48.595	0	388.20	0	4.2700	0	33.9460	0	26.923	0	384.560	0	-1e10	8	-1e10	8	-1E+10	1	-1E+10	1	-1E+10	1	-1E+10	1	-1E+10	1	-1E+10	1
4902554	63	C	11/02/2022	23:57	-133.788	48.595	0	393.10	0	4.2670	0	33.9510	0	26.927	0	389.410	0	-1e10	8	-1e10	8	-1E+10	1	-1E+10	1	-1E+10	1	-1E+10	1	-1E+10	1	-1E+10	1
4902554	63	C	11/02/2022	23:57	-133.788	48.595	0	398.10	0	4.2590	0	33.9550	0	26.931	0	394.358	0	-1e10	8	-1e10	8	-1E+10	1	-1E+10	1	-1E+10	1	-1E+10	1	-1E+10	1	-1E+10	1
4902554	63	C	11/02/2022	23:57	-133.788	48.595	0	403.10	0	4.2510	0	33.9630	0	26.938	0	399.306	0	-1e10	8	-1e10	8	-1E+10	1	-1E+10	1	-1E+10	1	-1E+10	1	-1E+10	1	-1E+10	1
4902554	63	C	11/02/2022	23:57	-133.788	48.595	0	408.30	0	4.2440	0	33.9710	0	26.946	0	404.452	0	-1e10	8	-1e10	8	-1E+10	1	-1E+10	1	-1E+10	1	-1E+10	1	-1E+10	1	-1E+10	1
4902554	63	C	11/02/2022	23:57	-133.788	48.595	0	412.90	0	4.2400	0	33.9760	0	26.950	0	409.004	0	-1e10	8	-1e10	8	-1E+10	1	-1E+10	1	-1E+10	1	-1E+10	1	-1E+10	1	-1E+10	1
4902554	63	C	11/02/2022	23:57	-133.788	48.595	0	417.60	0	4.2240	0	33.9820	0	26.956	0	413.655	0	-1e10	8	-1e10	8	-1E+10	1	-1E+10	1	-1E+10	1	-1E+10	1	-1E+10	1	-1E+10	1
4902554	63	C	11/02/2022	23:57	-133.788	48.595	0	423.00	0	4.2090	0	33.9910	0	26.965	0	418.999	0	-1e10	8	-1e10	8	-1E+10	1	-1E+10	1	-1E+10	1	-1E+10	1	-1E+10	1	-1E+10	1
4902554	63	C	11/02/2022	23:57	-133.788	48.595	0	428.30	0	4.2060	0	33.9980	0	26.971	0	424.243	0	-1e10	8	-1e10	8	-1E+10	1	-1E+10	1	-1E+10	1	-1E+10	1	-1E+10	1	-1E+10	1
4902554	63	C	11/02/2022	23:57	-133.788	48.595	0	433.00	0	4.2030	0	34.0050	0	26.977	0	428.894	0	-1e10	8	-1e10	8	-1E+10	1	-1E+10	1	-1E+10	1	-1E+10	1	-1E+10	1	-1E+10	1
4902554	63	C	11/02/2022	23:57	-133.788	48.595	0	437.80	0	4.2000	0	34.0110	0	26.982	0	433.643	0	-1e10	8	-1e10	8	-1E+10	1	-1E+10	1	-1E+10	1	-1E+10	1	-1E+10	1	-1E+10	1
4902554	63	C	11/02/2022	23:57	-133.788	48.595	0	443.20	0	4.2000	0	34.0140	0	26.985	0	438.987	0	-1e10	8	-1e10	8	-1E+10	1	-1E+10	1	-1E+10	1	-1E+10	1	-1E+10	1	-1E+10	1
4902554	63	C	11/02/2022	23:57	-133.788	48.595	0	447.90	0	4.2000	0	34.0150	0	26.985	0	443.637	0	-1e10	8	-1e10	8	-1E+10	1	-1E+10	1	-1E+10	1	-1E+10	1	-1E+10	1	-1E+10	1
4902554	63	C	11/02/2022	23:57	-133.788	48.595	0	452.80	0	4.1980	0	34.0160	0	26.986	0	448.485	0	-1e10	8	-1e10	8	-1E+10	1	-1E+10	1	-1E+10	1	-1E+10	1	-1E+10	1	-1E+10	1
4902554	63	C	11/02/2022	23:57	-133.788	48.595	0	458.10	0	4.1960	0	34.0180	0	26.988	0	453.729	0	-1e10	8	-1e10	8	-1E+10	1	-1E+10	1	-1E+10	1	-1E+10	1	-1E+10	1	-1E+10	1
4902554	63	C	11/02/2022	23:57	-133.788	48.595	0	463.00	0	4.1860	0	34.0250	0	26.995	0	458.576	0	-1e10	8	-1e10	8	-1E+10	1	-1E+10	1	-1E+10	1	-1E+10	1	-1E+10	1	-1E+10	1
4902554	63	C	11/02/2022	23:57	-133.788	48.595	0	467.70	0	4.1770	0	34.0290	0	26.999	0	463.226	0	-1e10	8	-1e10	8	-1E+10	1	-1E+10	1	-1E+10	1	-1E+10	1	-1E+10	1	-1E+10	1
4902554	63	C	11/02/2022	23:57	-133.788	48.595	0	473.00	0	4.1710	0	34.0340	0	27.004	0	468.470	0	-1e10	8	-1e10	8	-1E+10	1	-1E+10	1	-1E+10	1	-1E+10	1	-1E+10	1	-1E+10	1
4902554	63	C	11/02/2022	23:57	-133.788	48.595	0	478.30	0	4.1620	0	34.0390	0	27.009	0	473.713	0	-1e10	8	-1e10	8	-1E+10	1	-1E+10	1	-1E+10	1	-1E+10	1	-1E+10	1	-1E+10	1
4902554	63	C	11/02/2022	23:57	-133.788	48.595	0	483.00	0	4.1550	0	34.0440	0	27.013	0	478.362	0	-1e10	8	-1e10	8	-1E+10	1	-1E+10	1	-1E+10	1	-1E+10	1	-1E+10	1	-1E+10	1
4902554	63	C	11/02/2022	23:57	-133.788	48.595	0	487.70	0	4.1450	0	34.0500	0	27.019	0	483.012	0	-1e10	8	-1e10	8	-1E+10	1	-1E+10	1	-1E+10	1	-1E+10	1	-1E+10	1	-1E+10	1
4902554	63	C	11/02/2022	23:57	-133.788	48.595	0	493.00	0	4.1340	0	34.0580	0	27.027	0	488.255	0	-1e10	8	-1e10	8	-1E+10	1	-1E+10	1	-1E+10	1	-1E+10	1	-1E+10	1	-1E+10	1
4902554	63	C	11/02/2022	23:57	-133.788	48.595	0	498.20	0	4.1320	0	34.0590	0	27.028	0	493.398	0	-1e10	8	-1e10	8	-1E+10	1	-1E+10	1	-1E+10	1	-1E+10	1	-1E+10	1	-1E+10	1
4902554	63	C	11/02/2022	23:57	-133.788	48.595	0	502.90	0	4.1230	0	34.0640	0	27.033	0	498.047	0	-1e10	8	-1e10	8	-1E+10	1	-1E+10	1	-1E+10	1	-1E+10	1	-1E+10	1	-1E+10	1
4902554	63	C	11/02/2022	23:57	-133.788	48.595	0	507.70	0	4.1020	0	34.0750	0	27.044	0	502.795	0	-1e10	8	-1e10	8	-1E+10	1	-1E+10	1	-1E+10	1	-1E+10	1	-1E+10	1	-1E+10	1
4902554	63	C	11/02/2022	23:57	-133.788	48.595	0	512.70	0	4.0870	0	34.0810	0	27.050	0	507.741	0	-1e10	8	-1e10	8	-1E+10	1	-1E+10	1	-1E+10	1	-1E+10	1	-1E+10	1	-1E+10	1
4902554	63	C	11/02/2022	23:57	-133.788	48.595	0	517.70	0	4.0700	0	34.0880	0	27.057	0	512.686	0	-1e10	8	-1e10	8	-1E+10	1	-1E+10	1	-1E+10	1	-1E+10	1	-1E+10	1	-1E+10	1
4902554	63	C	11/02/2022	23:57	-133.788	48.595	0	522.80	0	4.0600	0	34.0930	0	27.062	0	517.731	0	-1e10	8	-1e10	8	-1E+10	1	-1E+10	1	-1E+10	1	-1E+10	1	-1E+10	1	-1E+10	1
4902554	63	C	11/02/2022	23:57	-133.788	48.595	0	528.10	0	4.0490	0	34.0980	0	27.068	0	522.973	0	-1e10	8	-1e10	8	-1E+10	1	-1E+10	1	-1E+10	1	-1E+10	1	-1E+10	1	-1E+10	1
4902554	63	C	11/02/2022	23:57	-133.788	48.595	0	533.00	0	4.0380	0	34.1020	0	27.072	0	527.819	0	-1e10	8	-1e10	8	-1E+10	1	-1E+10	1	-1E+10	1	-1E+10	1	-1E+10	1	-1E+10	1
4902554	63	C	11/02/2022	23:57	-133.788	48.595	0	537.60	0	4.0290	0	34.1060	0	27.076	0	532.368	0	-1e10	8	-1e10	8	-1E+10	1	-1E+10	1	-1E+10	1	-1E+10	1	-1E+10	1	-1E+10	1
4902554	63	C	11/02/2022	23:57	-133.788	48.595	0	542.80	0	4.0230	0	34.1100	0	27.080	0	537.511	0	-1e10	8	-1e10	8	-1E+10	1	-1E+10	1	-1E+10	1	-1E+10	1	-1E+10	1	-1E+10	1
4902554	63	C	11/02/2022	23:57	-133.788	48.595	0	548.00	0	4.0130	0	34.1130	0	27.083	0	542.653	0	-1e10	8	-1e10	8	-1E+10	1	-1E+10	1	-1E+10	1	-1E+10	1	-1E+10	1	-1E+10	1
4902554	63	C	11/02/2022	23:57	-133.788	48.595	0	552.90	0	4.0040	0	34.1170	0	27.087	0	547.499	0	-1e10	8	-1e10	8	-1E+10	1	-1E+10	1	-1E+10	1	-1E+10	1	-1E+10	1	-1E+10	1
4902554	63	C	11/02/2022	23:57	-133.788	48.595	0	557.90	0	3.9890	0	34.1240	0	27.095	0	552.444	0	-1e10	8	-1e10	8	-1E+10	1	-1E+10	1	-1E+10	1	-1E+10	1	-1E+10	1	-1E+10	1
4902554	63	C	11/02/2022	23:57	-133.788	48.595	0	563.00	0	3.9810	0	34.1270	0	27.098	0	557.487	0	-1e10	8	-1e10	8	-1E+10	1	-1E+10	1	-1E+10	1	-1E+10	1	-1E+10	1	-1E+10	1
4902554	63	C	11/02/2022	23:57	-133.788	48.595	0	568.10	0	3.9790	0	34.1310	0	27.101	0	562.530	0	-1e10	8	-1e10	8	-1E+10	1	-1E+10	1	-1E+10	1	-1E+10	1	-1E+10	1	-1E+10	1
4902554	63	C	11/02/2022	23:57	-133.788	48.595	0	573.30	0	3.9600	0	34.1380	0	27.109	0	567.672	0	-1e10	8	-1e10	8	-1E+10	1	-1E+10	1	-1E+10	1	-1E+10	1	-1E+10	1	-1E+10	1
4902554	63	C	11/02/2022	23:57	-133.788	48.595	0	578.00	0	3.9520	0	34.1400	0	27.111	0	572.319	0	-1e10	8	-1e10	8	-1E+10	1	-1E+10	1	-1E+10	1	-1E+10	1	-1E+10	1	-1E+10	1
4902554	63	C	11/02/2022	23:57	-133.788	48.595	0	582.70	0	3.9450	0	34.1420	0	27.114	0	576.967	0	-1e10	8	-1e10	8	-1E+10	1	-1E+10	1	-1E+10	1	-1E+10	1	-1E+10	1	-1E+10	1
4902554	63	C	11/02/2022	23:57	-133.788	48.595	0	588.00	0	3.9320	0	34.1480	0	27.120	0	582.207	0	-1e10	8	-1e10	8	-1E+10	1	-1E+10	1	-1E+10	1	-1E+10	1	-1E+10	1	-1E+10	1
4902554	63	C	11/02/2022	23:57	-133.788	48.595	0	592.80	0	3.9270	0	34.1520	0	27.123	0	586.953	0	-1e10	8	-1e10	8	-1E+10	1	-1E+10	1	-1E+10	1	-1E+10	1	-1E+10	1	-1E+10	1
4902554	63	C	11/02/2022	23:57	-133.788	48.595	0	597.60	0	3.9200	0	34.1580	0	27.129	0	591.699	0	-1e10	8	-1e10	8	-1E+10	1	-1E+10	1	-1E+10	1	-1E+10	1	-1E+10	1	-1E+10	1
4902554	63	C	11/02/2022	23:57	-133.788	48.595	0	603.00	0	3.9120	0	34.1600	0	27.131	0	597.038	0	-1e10	8	-1e10	8	-1E+10	1	-1E+10	1	-1E+10	1	-1E+10	1	-1E+10	1	-1E+10	1
4902554	63	C	11/02/2022	23:57	-133.788	48.595	0	607.80	0	3.9030	0	34.1620	0	27.134	0	601.783	0	-1e10	8	-1e10	8	-1E+10	1	-1E+10	1	-1E+10	1	-1E+10	1	-1E+10	1	-1E+10	1
4902554	63	C	11/02/2022	23:57	-133.788	48.595	0	612.70	0	3.8920	0	34.1640	0	27.137	0	606.628	0	-1e10	8	-1e10	8	-1E+10	1	-1E+10	1	-1E+10	1	-1E+10	1	-1E+10	1	-1E+10	1
4902554	63	C	11/02/2022	23:57	-133.788	48.595	0	618.20	0	3.8750	0	34.1710	0	27.144	0	612.065	0	-1e10	8	-1e10	8	-1E+10	1	-1E+10	1	-1E+10	1	-1E+10	1	-1E+10	1	-1E+10	1
4902554	63	C	11/02/2022	23:57	-133.788	48.595	0	623.00	0	3.8600	0	34.1750	0	27.149	0	616.811	0	-1e10	8	-1e10	8	-1E+10	1	-1E+10	1	-1E+10	1	-1E+10	1	-1E+10	1	-1E+10	1
4902554	63	C	11/02/2022	23:57	-133.788	48.595	0	627.80	0	3.8580	0	34.1760	0	27.150	0	621.556	0	-1e10	8	-1e10	8	-1E+10	1	-1E+10	1	-1E+10	1	-1E+10	1	-1E+10	1	-1E+10	1
4902554	63	C	11/02/2022	23:57	-133.788	48.595	0	633.10	0	3.8500	0	34.1790	0	27.153	0	626.795	0	-1e10	8	-1e10	8	-1E+10	1	-1E+10	1	-1E+10	1	-1E+10	1	-1E+10	1	-1E+10	1
4902554	63	C	11/02/2022	23:57	-133.788	48.595	0	637.90	0	3.8420	0	34.1820	0	27.156	0	631.540	0	-1e10	8	-1e10	8	-1E+10	1	-1E+10	1	-1E+10	1	-1E+10	1	-1E+10	1	-1E+10	1
4902554	63	C	11/02/2022	23:57	-133.788	48.595	0	642.60	0	3.8230	0	34.1870	0	27.162	0	636.186	0	-1e10	8	-1e10	8	-1E+10	1	-1E+10	1	-1E+10	1	-1E+10	1	-1E+10	1	-1E+10	1
4902554	63	C	11/02/2022	23:57	-133.788	48.595	0	647.90	0	3.8060	0	34.1930	0	27.169	0	641.425	0	-1e10	8	-1e10	8	-1E+10	1	-1E+10	1	-1E+10	1	-1E+10	1	-1E+10	1	-1E+10	1
4902554	63	C	11/02/2022	23:57	-133.788	48.595	0	653.20	0	3.7930	0	34.1970	0	27.173	0	646.664	0	-1e10	8	-1e10	8	-1E+10	1	-1E+10	1	-1E+10	1	-1E+10	1	-1E+10	1	-1E+10	1
4902554	63	C	11/02/2022	23:57	-133.788	48.595	0	657.90	0	3.7870	0	34.1990	0	27.175	0	651.309	0	-1e10	8	-1e10	8	-1E+10	1	-1E+10	1	-1E+10	1	-1E+10	1	-1E+10	1	-1E+10	1
4902554	63	C	11/02/2022	23:57	-133.788	48.595	0	662.60	0	3.7810	0	34.2030	0	27.179	0	655.955	0	-1e10	8	-1e10	8	-1E+10	1	-1E+10	1	-1E+10	1	-1E+10	1	-1E+10	1	-1E+10	1
4902554	63	C	11/02/2022	23:57	-133.788	48.595	0	667.90	0	3.7770	0	34.2040	0	27.180	0	661.193	0	-1e10	8	-1e10	8	-1E+10	1	-1E+10	1	-1E+10	1	-1E+10	1	-1E+10	1	-1E+10	1
4902554	63	C	11/02/2022	23:57	-133.788	48.595	0	673.10	0	3.7650	0	34.2070	0	27.184	0	666.333	0	-1e10	8	-1e10	8	-1E+10	1	-1E+10	1	-1E+10	1	-1E+10	1	-1E+10	1	-1E+10	1
4902554	63	C	11/02/2022	23:57	-133.788	48.595	0	678.30	0	3.7490	0	34.2090	0	27.187	0	671.472	0	-1e10	8	-1e10	8	-1E+10	1	-1E+10	1	-1E+10	1	-1E+10	1	-1E+10	1	-1E+10	1
4902554	63	C	11/02/2022	23:57	-133.788	48.595	0	683.00	0	3.7350	0	34.2110	0	27.190	0	676.117	0	-1e10	8	-1e10	8	-1E+10	1	-1E+10	1	-1E+10	1	-1E+10	1	-1E+10	1	-1E+10	1
4902554	63	C	11/02/2022	23:57	-133.788	48.595	0	687.70	0	3.7360	0	34.2140	0	27.193	0	680.762	0	-1e10	8	-1e10	8	-1E+10	1	-1E+10	1	-1E+10	1	-1E+10	1	-1E+10	1	-1E+10	1
4902554	63	C	11/02/2022	23:57	-133.788	48.595	0	692.90	0	3.7230	0	34.2170	0	27.196	0	685.901	0	-1e10	8	-1e10	8	-1E+10	1	-1E+10	1	-1E+10	1	-1E+10	1	-1E+10	1	-1E+10	1
4902554	63	C	11/02/2022	23:57	-133.788	48.595	0	698.20	0	3.7140	0	34.2200	0	27.200	0	691.139	0	-1e10	8	-1e10	8	-1E+10	1	-1E+10	1	-1E+10	1	-1E+10	1	-1E+10	1	-1E+10	1
4902554	63	C	11/02/2022	23:57	-133.788	48.595	0	702.90	0	3.7010	0	34.2230	0	27.203	0	695.783	0	-1e10	8	-1e10	8	-1E+10	1	-1E+10	1	-1E+10	1	-1E+10	1	-1E+10	1	-1E+10	1
4902554	63	C	11/02/2022	23:57	-133.788	48.595	0	707.60	0	3.6830	0	34.2250	0	27.207	0	700.428	0	-1e10	8	-1e10	8	-1E+10	1	-1E+10	1	-1E+10	1	-1E+10	1	-1E+10	1	-1E+10	1
4902554	63	C	11/02/2022	23:57	-133.788	48.595	0	712.90	0	3.6580	0	34.2300	0	27.213	0	705.665	0	-1e10	8	-1e10	8	-1E+10	1	-1E+10	1	-1E+10	1	-1E+10	1	-1E+10	1	-1E+10	1
4902554	63	C	11/02/2022	23:57	-133.788	48.595	0	718.10	0	3.6260	0	34.2340	0	27.219	0	710.804	0	-1e10	8	-1e10	8	-1E+10	1	-1E+10	1	-1E+10	1	-1E+10	1	-1E+10	1	-1E+10	1
4902554	63	C	11/02/2022	23:57	-133.788	48.595	0	723.30	0	3.6130	0	34.2370	0	27.223	0	715.942	0	-1e10	8	-1e10	8	-1E+10	1	-1E+10	1	-1E+10	1	-1E+10	1	-1E+10	1	-1E+10	1
4902554	63	C	11/02/2022	23:57	-133.788	48.595	0	728.00	0	3.6170	0	34.2400	0	27.225	0	720.586	0	-1e10	8	-1e10	8	-1E+10	1	-1E+10	1	-1E+10	1	-1E+10	1	-1E+10	1	-1E+10	1
4902554	63	C	11/02/2022	23:57	-133.788	48.595	0	732.70	0	3.6160	0	34.2440	0	27.229	0	725.230	0	-1e10	8	-1e10	8	-1E+10	1	-1E+10	1	-1E+10	1	-1E+10	1	-1E+10	1	-1E+10	1
4902554	63	C	11/02/2022	23:57	-133.788	48.595	0	738.10	0	3.5950	0	34.2480	0	27.234	0	730.565	0	-1e10	8	-1e10	8	-1E+10	1	-1E+10	1	-1E+10	1	-1E+10	1	-1E+10	1	-1E+10	1
4902554	63	C	11/02/2022	23:57	-133.788	48.595	0	743.00	0	3.5810	0	34.2510	0	27.238	0	735.407	0	-1e10	8	-1e10	8	-1E+10	1	-1E+10	1	-1E+10	1	-1E+10	1	-1E+10	1	-1E+10	1
4902554	63	C	11/02/2022	23:57	-133.788	48.595	0	747.80	0	3.5770	0	34.2510	0	27.238	0	740.149	0	-1e10	8	-1e10	8	-1E+10	1	-1E+10	1	-1E+10	1	-1E+10	1	-1E+10	1	-1E+10	1
4902554	63	C	11/02/2022	23:57	-133.788	48.595	0	753.00	0	3.5540	0	34.2530	0	27.242	0	745.287	0	-1e10	8	-1e10	8	-1E+10	1	-1E+10	1	-1E+10	1	-1E+10	1	-1E+10	1	-1E+10	1
4902554	63	C	11/02/2022	23:57	-133.788	48.595	0	758.20	0	3.5450	0	34.2560	0	27.245	0	750.424	0	-1e10	8	-1e10	8	-1E+10	1	-1E+10	1	-1E+10	1	-1E+10	1	-1E+10	1	-1E+10	1
4902554	63	C	11/02/2022	23:57	-133.788	48.595	0	763.00	0	3.5270	0	34.2600	0	27.250	0	755.166	0	-1e10	8	-1e10	8	-1E+10	1	-1E+10	1	-1E+10	1	-1E+10	1	-1E+10	1	-1E+10	1
4902554	63	C	11/02/2022	23:57	-133.788	48.595	0	767.80	0	3.5120	0	34.2620	0	27.253	0	759.908	0	-1e10	8	-1e10	8	-1E+10	1	-1E+10	1	-1E+10	1	-1E+10	1	-1E+10	1	-1E+10	1
4902554	63	C	11/02/2022	23:57	-133.788	48.595	0	772.70	0	3.5000	0	34.2650	0	27.257	0	764.749	0	-1e10	8	-1e10	8	-1E+10	1	-1E+10	1	-1E+10	1	-1E+10	1	-1E+10	1	-1E+10	1
4902554	63	C	11/02/2022	23:57	-133.788	48.595	0	777.70	0	3.4870	0	34.2680	0	27.260	0	769.688	0	-1e10	8	-1e10	8	-1E+10	1	-1E+10	1	-1E+10	1	-1E+10	1	-1E+10	1	-1E+10	1
4902554	63	C	11/02/2022	23:57	-133.788	48.595	0	782.70	0	3.4770	0	34.2700	0	27.263	0	774.627	0	-1e10	8	-1e10	8	-1E+10	1	-1E+10	1	-1E+10	1	-1E+10	1	-1E+10	1	-1E+10	1
4902554	63	C	11/02/2022	23:57	-133.788	48.595	0	787.90	0	3.4680	0	34.2740	0	27.267	0	779.764	0	-1e10	8	-1e10	8	-1E+10	1	-1E+10	1	-1E+10	1	-1E+10	1	-1E+10	1	-1E+10	1
4902554	63	C	11/02/2022	23:57	-133.788	48.595	0	793.10	0	3.4680	0	34.2770	0	27.269	0	784.900	0	-1e10	8	-1e10	8	-1E+10	1	-1E+10	1	-1E+10	1	-1E+10	1	-1E+10	1	-1E+10	1
4902554	63	C	11/02/2022	23:57	-133.788	48.595	0	798.20	0	3.4610	0	34.2790	0	27.272	0	789.938	0	-1e10	8	-1e10	8	-1E+10	1	-1E+10	1	-1E+10	1	-1E+10	1	-1E+10	1	-1E+10	1
4902554	63	C	11/02/2022	23:57	-133.788	48.595	0	803.00	0	3.4550	0	34.2810	0	27.274	0	794.679	0	-1e10	8	-1e10	8	-1E+10	1	-1E+10	1	-1E+10	1	-1E+10	1	-1E+10	1	-1E+10	1
4902554	63	C	11/02/2022	23:57	-133.788	48.595	0	807.90	0	3.4490	0	34.2830	0	27.276	0	799.519	0	-1e10	8	-1e10	8	-1E+10	1	-1E+10	1	-1E+10	1	-1E+10	1	-1E+10	1	-1E+10	1
4902554	63	C	11/02/2022	23:57	-133.788	48.595	0	812.90	0	3.4430	0	34.2840	0	27.278	0	804.458	0	-1e10	8	-1e10	8	-1E+10	1	-1E+10	1	-1E+10	1	-1E+10	1	-1E+10	1	-1E+10	1
4902554	63	C	11/02/2022	23:57	-133.788	48.595	0	817.90	0	3.4350	0	34.2870	0	27.281	0	809.396	0	-1e10	8	-1e10	8	-1E+10	1	-1E+10	1	-1E+10	1	-1E+10	1	-1E+10	1	-1E+10	1
4902554	63	C	11/02/2022	23:57	-133.788	48.595	0	823.00	0	3.4240	0	34.2890	0	27.283	0	814.433	0	-1e10	8	-1e10	8	-1E+10	1	-1E+10	1	-1E+10	1	-1E+10	1	-1E+10	1	-1E+10	1
4902554	63	C	11/02/2022	23:57	-133.788	48.595	0	827.70	0	3.4060	0	34.2880	0	27.284	0	819.075	0	-1e10	8	-1e10	8	-1E+10	1	-1E+10	1	-1E+10	1	-1E+10	1	-1E+10	1	-1E+10	1
4902554	63	C	11/02/2022	23:57	-133.788	48.595	0	832.60	0	3.3910	0	34.2910	0	27.288	0	823.914	0	-1e10	8	-1e10	8	-1E+10	1	-1E+10	1	-1E+10	1	-1E+10	1	-1E+10	1	-1E+10	1
4902554	63	C	11/02/2022	23:57	-133.788	48.595	0	837.60	0	3.3790	0	34.2920	0	27.290	0	828.852	0	-1e10	8	-1e10	8	-1E+10	1	-1E+10	1	-1E+10	1	-1E+10	1	-1E+10	1	-1E+10	1
4902554	63	C	11/02/2022	23:57	-133.788	48.595	0	842.60	0	3.3690	0	34.2940	0	27.293	0	833.790	0	-1e10	8	-1e10	8	-1E+10	1	-1E+10	1	-1E+10	1	-1E+10	1	-1E+10	1	-1E+10	1
4902554	63	C	11/02/2022	23:57	-133.788	48.595	0	847.70	0	3.3580	0	34.2970	0	27.296	0	838.826	0	-1e10	8	-1e10	8	-1E+10	1	-1E+10	1	-1E+10	1	-1E+10	1	-1E+10	1	-1E+10	1
4902554	63	C	11/02/2022	23:57	-133.788	48.595	0	852.80	0	3.3500	0	34.2990	0	27.299	0	843.863	0	-1e10	8	-1e10	8	-1E+10	1	-1E+10	1	-1E+10	1	-1E+10	1	-1E+10	1	-1E+10	1
4902554	63	C	11/02/2022	23:57	-133.788	48.595	0	857.90	0	3.3390	0	34.3020	0	27.302	0	848.899	0	-1e10	8	-1e10	8	-1E+10	1	-1E+10	1	-1E+10	1	-1E+10	1	-1E+10	1	-1E+10	1
4902554	63	C	11/02/2022	23:57	-133.788	48.595	0	863.00	0	3.3260	0	34.3030	0	27.304	0	853.935	0	-1e10	8	-1e10	8	-1E+10	1	-1E+10	1	-1E+10	1	-1E+10	1	-1E+10	1	-1E+10	1
4902554	63	C	11/02/2022	23:57	-133.788	48.595	0	868.20	0	3.3040	0	34.3080	0	27.310	0	859.070	0	-1e10	8	-1e10	8	-1E+10	1	-1E+10	1	-1E+10	1	-1E+10	1	-1E+10	1	-1E+10	1
4902554	63	C	11/02/2022	23:57	-133.788	48.595	0	872.90	0	3.2920	0	34.3110	0	27.314	0	863.711	0	-1e10	8	-1e10	8	-1E+10	1	-1E+10	1	-1E+10	1	-1E+10	1	-1E+10	1	-1E+10	1
4902554	63	C	11/02/2022	23:57	-133.788	48.595	0	877.90	0	3.2840	0	34.3130	0	27.316	0	868.648	0	-1e10	8	-1e10	8	-1E+10	1	-1E+10	1	-1E+10	1	-1E+10	1	-1E+10	1	-1E+10	1
4902554	63	C	11/02/2022	23:57	-133.788	48.595	0	882.90	0	3.2790	0	34.3160	0	27.319	0	873.585	0	-1e10	8	-1e10	8	-1E+10	1	-1E+10	1	-1E+10	1	-1E+10	1	-1E+10	1	-1E+10	1
4902554	63	C	11/02/2022	23:57	-133.788	48.595	0	887.70	0	3.2690	0	34.3180	0	27.322	0	878.324	0	-1e10	8	-1e10	8	-1E+10	1	-1E+10	1	-1E+10	1	-1E+10	1	-1E+10	1	-1E+10	1
4902554	63	C	11/02/2022	23:57	-133.788	48.595	0	892.90	0	3.2520	0	34.3200	0	27.325	0	883.458	0	-1e10	8	-1e10	8	-1E+10	1	-1E+10	1	-1E+10	1	-1E+10	1	-1E+10	1	-1E+10	1
4902554	63	C	11/02/2022	23:57	-133.788	48.595	0	898.20	0	3.2370	0	34.3230	0	27.329	0	888.691	0	-1e10	8	-1e10	8	-1E+10	1	-1E+10	1	-1E+10	1	-1E+10	1	-1E+10	1	-1E+10	1
4902554	63	C	11/02/2022	23:57	-133.788	48.595	0	903.10	0	3.2260	0	34.3270	0	27.333	0	893.528	0	-1e10	8	-1e10	8	-1E+10	1	-1E+10	1	-1E+10	1	-1E+10	1	-1E+10	1	-1E+10	1
4902554	63	C	11/02/2022	23:57	-133.788	48.595	0	908.00	0	3.2080	0	34.3300	0	27.337	0	898.366	0	-1e10	8	-1e10	8	-1E+10	1	-1E+10	1	-1E+10	1	-1E+10	1	-1E+10	1	-1E+10	1
4902554	63	C	11/02/2022	23:57	-133.788	48.595	0	913.10	0	3.2010	0	34.3310	0	27.338	0	903.401	0	-1e10	8	-1e10	8	-1E+10	1	-1E+10	1	-1E+10	1	-1E+10	1	-1E+10	1	-1E+10	1
4902554	63	C	11/02/2022	23:57	-133.788	48.595	0	918.10	0	3.1920	0	34.3330	0	27.341	0	908.337	0	-1e10	8	-1e10	8	-1E+10	1	-1E+10	1	-1E+10	1	-1E+10	1	-1E+10	1	-1E+10	1
4902554	63	C	11/02/2022	23:57	-133.788	48.595	0	923.20	0	3.1900	0	34.3340	0	27.342	0	913.371	0	-1e10	8	-1e10	8	-1E+10	1	-1E+10	1	-1E+10	1	-1E+10	1	-1E+10	1	-1E+10	1
4902554	63	C	11/02/2022	23:57	-133.788	48.595	0	928.30	0	3.1820	0	34.3360	0	27.344	0	918.406	0	-1e10	8	-1e10	8	-1E+10	1	-1E+10	1	-1E+10	1	-1E+10	1	-1E+10	1	-1E+10	1
4902554	63	C	11/02/2022	23:57	-133.788	48.595	0	932.90	0	3.1690	0	34.3380	0	27.347	0	922.947	0	-1e10	8	-1e10	8	-1E+10	1	-1E+10	1	-1E+10	1	-1E+10	1	-1E+10	1	-1E+10	1
4902554	63	C	11/02/2022	23:57	-133.788	48.595	0	937.60	0	3.1600	0	34.3400	0	27.350	0	927.586	0	-1e10	8	-1e10	8	-1E+10	1	-1E+10	1	-1E+10	1	-1E+10	1	-1E+10	1	-1E+10	1
4902554	63	C	11/02/2022	23:57	-133.788	48.595	0	942.90	0	3.1560	0	34.3400	0	27.350	0	932.818	0	-1e10	8	-1e10	8	-1E+10	1	-1E+10	1	-1E+10	1	-1E+10	1	-1E+10	1	-1E+10	1
4902554	63	C	11/02/2022	23:57	-133.788	48.595	0	948.20	0	3.1440	0	34.3430	0	27.353	0	938.049	0	-1e10	8	-1e10	8	-1E+10	1	-1E+10	1	-1E+10	1	-1E+10	1	-1E+10	1	-1E+10	1
4902554	63	C	11/02/2022	23:57	-133.788	48.595	0	953.00	0	3.1330	0	34.3460	0	27.357	0	942.787	0	-1e10	8	-1e10	8	-1E+10	1	-1E+10	1	-1E+10	1	-1E+10	1	-1E+10	1	-1E+10	1
4902554	63	C	11/02/2022	23:57	-133.788	48.595	0	957.90	0	3.1250	0	34.3480	0	27.359	0	947.623	0	-1e10	8	-1e10	8	-1E+10	1	-1E+10	1	-1E+10	1	-1E+10	1	-1E+10	1	-1E+10	1
4902554	63	C	11/02/2022	23:57	-133.788	48.595	0	963.20	0	3.1190	0	34.3490	0	27.361	0	952.855	0	-1e10	8	-1e10	8	-1E+10	1	-1E+10	1	-1E+10	1	-1E+10	1	-1E+10	1	-1E+10	1
4902554	63	C	11/02/2022	23:57	-133.788	48.595	0	968.00	0	3.1090	0	34.3520	0	27.364	0	957.592	0	-1e10	8	-1e10	8	-1E+10	1	-1E+10	1	-1E+10	1	-1E+10	1	-1E+10	1	-1E+10	1
4902554	63	C	11/02/2022	23:57	-133.788	48.595	0	972.90	0	3.1040	0	34.3540	0	27.366	0	962.428	0	-1e10	8	-1e10	8	-1E+10	1	-1E+10	1	-1E+10	1	-1E+10	1	-1E+10	1	-1E+10	1
4902554	63	C	11/02/2022	23:57	-133.788	48.595	0	978.20	0	3.0950	0	34.3550	0	27.368	0	967.659	0	-1e10	8	-1e10	8	-1E+10	1	-1E+10	1	-1E+10	1	-1E+10	1	-1E+10	1	-1E+10	1
4902554	63	C	11/02/2022	23:57	-133.788	48.595	0	983.10	0	3.0880	0	34.3570	0	27.370	0	972.495	0	-1e10	8	-1e10	8	-1E+10	1	-1E+10	1	-1E+10	1	-1E+10	1	-1E+10	1	-1E+10	1
4902554	63	C	11/02/2022	23:57	-133.788	48.595	0	987.90	0	3.0830	0	34.3580	0	27.371	0	977.232	0	-1e10	8	-1e10	8	-1E+10	1	-1E+10	1	-1E+10	1	-1E+10	1	-1E+10	1	-1E+10	1
4902554	63	C	11/02/2022	23:57	-133.788	48.595	0	993.20	0	3.0640	0	34.3620	0	27.376	0	982.462	0	-1e10	8	-1e10	8	-1E+10	1	-1E+10	1	-1E+10	1	-1E+10	1	-1E+10	1	-1E+10	1
4902554	63	C	11/02/2022	23:57	-133.788	48.595	0	998.00	0	3.0500	0	34.3650	0	27.380	0	987.199	0	-1e10	8	-1e10	8	-1E+10	1	-1E+10	1	-1E+10	1	-1E+10	1	-1E+10	1	-1E+10	1
4902554	63	C	11/02/2022	23:57	-133.788	48.595	0	1005.50	0	3.0380	0	34.3710	0	27.386	0	994.600	0	-1e10	8	-1e10	8	-1E+10	1	-1E+10	1	-1E+10	1	-1E+10	1	-1E+10	1	-1E+10	1
4902554	63	C	11/02/2022	23:57	-133.788	48.595	0	1015.80	0	3.0250	0	34.3750	0	27.390	0	1004.764	0	-1e10	8	-1e10	8	-1E+10	1	-1E+10	1	-1E+10	1	-1E+10	1	-1E+10	1	-1E+10	1
4902554	63	C	11/02/2022	23:57	-133.788	48.595	0	1025.40	0	3.0100	0	34.3810	0	27.396	0	1014.236	0	-1e10	8	-1e10	8	-1E+10	1	-1E+10	1	-1E+10	1	-1E+10	1	-1E+10	1	-1E+10	1
4902554	63	C	11/02/2022	23:57	-133.788	48.595	0	1035.50	0	2.9950	0	34.3850	0	27.401	0	1024.201	0	-1e10	8	-1e10	8	-1E+10	1	-1E+10	1	-1E+10	1	-1E+10	1	-1E+10	1	-1E+10	1
4902554	63	C	11/02/2022	23:57	-133.788	48.595	0	1045.30	0	2.9830	0	34.3880	0	27.405	0	1033.870	0	-1e10	8	-1e10	8	-1E+10	1	-1E+10	1	-1E+10	1	-1E+10	1	-1E+10	1	-1E+10	1
4902554	63	C	11/02/2022	23:57	-133.788	48.595	0	1055.30	0	2.9690	0	34.3910	0	27.408	0	1043.736	0	-1e10	8	-1e10	8	-1E+10	1	-1E+10	1	-1E+10	1	-1E+10	1	-1E+10	1	-1E+10	1
4902554	63	C	11/02/2022	23:57	-133.788	48.595	0	1065.40	0	2.9630	0	34.3920	0	27.410	0	1053.700	0	-1e10	8	-1e10	8	-1E+10	1	-1E+10	1	-1E+10	1	-1E+10	1	-1E+10	1	-1E+10	1
4902554	63	C	11/02/2022	23:57	-133.788	48.595	0	1075.60	0	2.9560	0	34.3940	0	27.412	0	1063.762	0	-1e10	8	-1e10	8	-1E+10	1	-1E+10	1	-1E+10	1	-1E+10	1	-1E+10	1	-1E+10	1
4902554	63	C	11/02/2022	23:57	-133.788	48.595	0	1085.70	0	2.9320	0	34.4000	0	27.419	0	1073.725	0	-1e10	8	-1e10	8	-1E+10	1	-1E+10	1	-1E+10	1	-1E+10	1	-1E+10	1	-1E+10	1
4902554	63	C	11/02/2022	23:57	-133.788	48.595	0	1095.70	0	2.9110	0	34.4040	0	27.424	0	1083.589	0	-1e10	8	-1e10	8	-1E+10	1	-1E+10	1	-1E+10	1	-1E+10	1	-1E+10	1	-1E+10	1
4902554	63	C	11/02/2022	23:57	-133.788	48.595	0	1105.60	0	2.8980	0	34.4060	0	27.427	0	1093.354	0	-1e10	8	-1e10	8	-1E+10	1	-1E+10	1	-1E+10	1	-1E+10	1	-1E+10	1	-1E+10	1
4902554	63	C	11/02/2022	23:57	-133.788	48.595	0	1115.70	0	2.8890	0	34.4080	0	27.429	0	1103.315	0	-1e10	8	-1e10	8	-1E+10	1	-1E+10	1	-1E+10	1	-1E+10	1	-1E+10	1	-1E+10	1
4902554	63	C	11/02/2022	23:57	-133.788	48.595	0	1125.50	0	2.8740	0	34.4110	0	27.433	0	1112.981	0	-1e10	8	-1e10	8	-1E+10	1	-1E+10	1	-1E+10	1	-1E+10	1	-1E+10	1	-1E+10	1
4902554	63	C	11/02/2022	23:57	-133.788	48.595	0	1135.40	0	2.8550	0	34.4150	0	27.438	0	1122.744	0	-1e10	8	-1e10	8	-1E+10	1	-1E+10	1	-1E+10	1	-1E+10	1	-1E+10	1	-1E+10	1
4902554	63	C	11/02/2022	23:57	-133.788	48.595	0	1145.60	0	2.8420	0	34.4170	0	27.441	0	1132.803	0	-1e10	8	-1e10	8	-1E+10	1	-1E+10	1	-1E+10	1	-1E+10	1	-1E+10	1	-1E+10	1
4902554	63	C	11/02/2022	23:57	-133.788	48.595	0	1155.80	0	2.8290	0	34.4200	0	27.444	0	1142.861	0	-1e10	8	-1e10	8	-1E+10	1	-1E+10	1	-1E+10	1	-1E+10	1	-1E+10	1	-1E+10	1
4902554	63	C	11/02/2022	23:57	-133.788	48.595	0	1165.40	0	2.8160	0	34.4230	0	27.448	0	1152.328	0	-1e10	8	-1e10	8	-1E+10	1	-1E+10	1	-1E+10	1	-1E+10	1	-1E+10	1	-1E+10	1
4902554	63	C	11/02/2022	23:57	-133.788	48.595	0	1175.10	0	2.8050	0	34.4250	0	27.451	0	1161.892	0	-1e10	8	-1e10	8	-1E+10	1	-1E+10	1	-1E+10	1	-1E+10	1	-1E+10	1	-1E+10	1
4902554	63	C	11/02/2022	23:57	-133.788	48.595	0	1185.30	0	2.7940	0	34.4270	0	27.453	0	1171.949	0	-1e10	8	-1e10	8	-1E+10	1	-1E+10	1	-1E+10	1	-1E+10	1	-1E+10	1	-1E+10	1
4902554	63	C	11/02/2022	23:57	-133.788	48.595	0	1195.30	0	2.7810	0	34.4290	0	27.456	0	1181.808	0	-1e10	8	-1e10	8	-1E+10	1	-1E+10	1	-1E+10	1	-1E+10	1	-1E+10	1	-1E+10	1
4902554	63	C	11/02/2022	23:57	-133.788	48.595	0	1205.50	0	2.7660	0	34.4330	0	27.461	0	1191.864	0	-1e10	8	-1e10	8	-1E+10	1	-1E+10	1	-1E+10	1	-1E+10	1	-1E+10	1	-1E+10	1
4902554	63	C	11/02/2022	23:57	-133.788	48.595	0	1215.70	0	2.7580	0	34.4340	0	27.462	0	1201.920	0	-1e10	8	-1e10	8	-1E+10	1	-1E+10	1	-1E+10	1	-1E+10	1	-1E+10	1	-1E+10	1
4902554	63	C	11/02/2022	23:57	-133.788	48.595	0	1225.40	0	2.7460	0	34.4370	0	27.466	0	1211.482	0	-1e10	8	-1e10	8	-1E+10	1	-1E+10	1	-1E+10	1	-1E+10	1	-1E+10	1	-1E+10	1
4902554	63	C	11/02/2022	23:57	-133.788	48.595	0	1235.10	0	2.7380	0	34.4390	0	27.468	0	1221.043	0	-1e10	8	-1e10	8	-1E+10	1	-1E+10	1	-1E+10	1	-1E+10	1	-1E+10	1	-1E+10	1
4902554	63	C	11/02/2022	23:57	-133.788	48.595	0	1245.30	0	2.7190	0	34.4420	0	27.472	0	1231.098	0	-1e10	8	-1e10	8	-1E+10	1	-1E+10	1	-1E+10	1	-1E+10	1	-1E+10	1	-1E+10	1
4902554	63	C	11/02/2022	23:57	-133.788	48.595	0	1255.50	0	2.7130	0	34.4430	0	27.474	0	1241.151	0	-1e10	8	-1e10	8	-1E+10	1	-1E+10	1	-1E+10	1	-1E+10	1	-1E+10	1	-1E+10	1
4902554	63	C	11/02/2022	23:57	-133.788	48.595	0	1265.60	0	2.6990	0	34.4440	0	27.476	0	1251.106	0	-1e10	8	-1e10	8	-1E+10	1	-1E+10	1	-1E+10	1	-1E+10	1	-1E+10	1	-1E+10	1
4902554	63	C	11/02/2022	23:57	-133.788	48.595	0	1275.80	0	2.6770	0	34.4480	0	27.481	0	1261.158	0	-1e10	8	-1e10	8	-1E+10	1	-1E+10	1	-1E+10	1	-1E+10	1	-1E+10	1	-1E+10	1
4902554	63	C	11/02/2022	23:57	-133.788	48.595	0	1285.50	0	2.6590	0	34.4510	0	27.485	0	1270.718	0	-1e10	8	-1e10	8	-1E+10	1	-1E+10	1	-1E+10	1	-1E+10	1	-1E+10	1	-1E+10	1
4902554	63	C	11/02/2022	23:57	-133.788	48.595	0	1295.30	0	2.6410	0	34.4550	0	27.490	0	1280.375	0	-1e10	8	-1e10	8	-1E+10	1	-1E+10	1	-1E+10	1	-1E+10	1	-1E+10	1	-1E+10	1
4902554	63	C	11/02/2022	23:57	-133.788	48.595	0	1305.50	0	2.6250	0	34.4590	0	27.494	0	1290.427	0	-1e10	8	-1e10	8	-1E+10	1	-1E+10	1	-1E+10	1	-1E+10	1	-1E+10	1	-1E+10	1
4902554	63	C	11/02/2022	23:57	-133.788	48.595	0	1315.30	0	2.6120	0	34.4610	0	27.497	0	1300.083	0	-1e10	8	-1e10	8	-1E+10	1	-1E+10	1	-1E+10	1	-1E+10	1	-1E+10	1	-1E+10	1
4902554	63	C	11/02/2022	23:57	-133.788	48.595	0	1325.40	0	2.5990	0	34.4630	0	27.500	0	1310.035	0	-1e10	8	-1e10	8	-1E+10	1	-1E+10	1	-1E+10	1	-1E+10	1	-1E+10	1	-1E+10	1
4902554	63	C	11/02/2022	23:57	-133.788	48.595	0	1335.30	0	2.5830	0	34.4660	0	27.504	0	1319.789	0	-1e10	8	-1e10	8	-1E+10	1	-1E+10	1	-1E+10	1	-1E+10	1	-1E+10	1	-1E+10	1
4902554	63	C	11/02/2022	23:57	-133.788	48.595	0	1345.40	0	2.5660	0	34.4690	0	27.507	0	1329.740	0	-1e10	8	-1e10	8	-1E+10	1	-1E+10	1	-1E+10	1	-1E+10	1	-1E+10	1	-1E+10	1
4902554	63	C	11/02/2022	23:57	-133.788	48.595	0	1355.60	0	2.5480	0	34.4720	0	27.511	0	1339.789	0	-1e10	8	-1e10	8	-1E+10	1	-1E+10	1	-1E+10	1	-1E+10	1	-1E+10	1	-1E+10	1
4902554	63	C	11/02/2022	23:57	-133.788	48.595	0	1365.60	0	2.5310	0	34.4750	0	27.515	0	1349.640	0	-1e10	8	-1e10	8	-1E+10	1	-1E+10	1	-1E+10	1	-1E+10	1	-1E+10	1	-1E+10	1
4902554	63	C	11/02/2022	23:57	-133.788	48.595	0	1375.30	0	2.5170	0	34.4770	0	27.518	0	1359.196	0	-1e10	8	-1e10	8	-1E+10	1	-1E+10	1	-1E+10	1	-1E+10	1	-1E+10	1	-1E+10	1
4902554	63	C	11/02/2022	23:57	-133.788	48.595	0	1385.40	0	2.4990	0	34.4800	0	27.522	0	1369.145	0	-1e10	8	-1e10	8	-1E+10	1	-1E+10	1	-1E+10	1	-1E+10	1	-1E+10	1	-1E+10	1
4902554	63	C	11/02/2022	23:57	-133.788	48.595	0	1395.70	0	2.4820	0	34.4830	0	27.526	0	1379.290	0	-1e10	8	-1e10	8	-1E+10	1	-1E+10	1	-1E+10	1	-1E+10	1	-1E+10	1	-1E+10	1
4902554	63	C	11/02/2022	23:57	-133.788	48.595	0	1406.00	0	2.4690	0	34.4850	0	27.529	0	1389.435	0	-1e10	8	-1e10	8	-1E+10	1	-1E+10	1	-1E+10	1	-1E+10	1	-1E+10	1	-1E+10	1
4902554	63	C	11/02/2022	23:57	-133.788	48.595	0	1415.30	0	2.4610	0	34.4870	0	27.531	0	1398.595	0	-1e10	8	-1e10	8	-1E+10	1	-1E+10	1	-1E+10	1	-1E+10	1	-1E+10	1	-1E+10	1
4902554	63	C	11/02/2022	23:57	-133.788	48.595	0	1425.30	0	2.4500	0	34.4880	0	27.533	0	1408.444	0	-1e10	8	-1e10	8	-1E+10	1	-1E+10	1	-1E+10	1	-1E+10	1	-1E+10	1	-1E+10	1
4902554	63	C	11/02/2022	23:57	-133.788	48.595	0	1435.50	0	2.4270	0	34.4930	0	27.539	0	1418.489	0	-1e10	8	-1e10	8	-1E+10	1	-1E+10	1	-1E+10	1	-1E+10	1	-1E+10	1	-1E+10	1
4902554	63	C	11/02/2022	23:57	-133.788	48.595	0	1445.50	0	2.4120	0	34.4960	0	27.542	0	1428.336	0	-1e10	8	-1e10	8	-1E+10	1	-1E+10	1	-1E+10	1	-1E+10	1	-1E+10	1	-1E+10	1
4902554	63	C	11/02/2022	23:57	-133.788	48.595	0	1455.60	0	2.4040	0	34.4970	0	27.544	0	1438.282	0	-1e10	8	-1e10	8	-1E+10	1	-1E+10	1	-1E+10	1	-1E+10	1	-1E+10	1	-1E+10	1
4902554	63	C	11/02/2022	23:57	-133.788	48.595	0	1465.50	0	2.3880	0	34.5000	0	27.548	0	1448.030	0	-1e10	8	-1e10	8	-1E+10	1	-1E+10	1	-1E+10	1	-1E+10	1	-1E+10	1	-1E+10	1
4902554	63	C	11/02/2022	23:57	-133.788	48.595	0	1475.20	0	2.3750	0	34.5010	0	27.550	0	1457.581	0	-1e10	8	-1e10	8	-1E+10	1	-1E+10	1	-1E+10	1	-1E+10	1	-1E+10	1	-1E+10	1
4902554	63	C	11/02/2022	23:57	-133.788	48.595	0	1485.00	0	2.3690	0	34.5030	0	27.552	0	1467.230	0	-1e10	8	-1e10	8	-1E+10	1	-1E+10	1	-1E+10	1	-1E+10	1	-1E+10	1	-1E+10	1
4902554	63	C	11/02/2022	23:57	-133.788	48.595	0	1495.00	0	2.3590	0	34.5060	0	27.555	0	1477.076	0	-1e10	8	-1e10	8	-1E+10	1	-1E+10	1	-1E+10	1	-1E+10	1	-1E+10	1	-1E+10	1
4902554	63	C	11/02/2022	23:57	-133.788	48.595	0	1505.10	0	2.3480	0	34.5080	0	27.558	0	1487.019	0	-1e10	8	-1e10	8	-1E+10	1	-1E+10	1	-1E+10	1	-1E+10	1	-1E+10	1	-1E+10	1
4902554	63	C	11/02/2022	23:57	-133.788	48.595	0	1515.20	0	2.3370	0	34.5100	0	27.560	0	1496.962	0	-1e10	8	-1e10	8	-1E+10	1	-1E+10	1	-1E+10	1	-1E+10	1	-1E+10	1	-1E+10	1
4902554	63	C	11/02/2022	23:57	-133.788	48.595	0	1525.30	0	2.3300	0	34.5110	0	27.562	0	1506.904	0	-1e10	8	-1e10	8	-1E+10	1	-1E+10	1	-1E+10	1	-1E+10	1	-1E+10	1	-1E+10	1
4902554	63	C	11/02/2022	23:57	-133.788	48.595	0	1535.40	0	2.3220	0	34.5130	0	27.564	0	1516.846	0	-1e10	8	-1e10	8	-1E+10	1	-1E+10	1	-1E+10	1	-1E+10	1	-1E+10	1	-1E+10	1
4902554	63	C	11/02/2022	23:57	-133.788	48.595	0	1545.60	0	2.3090	0	34.5150	0	27.567	0	1526.886	0	-1e10	8	-1e10	8	-1E+10	1	-1E+10	1	-1E+10	1	-1E+10	1	-1E+10	1	-1E+10	1
4902554	63	C	11/02/2022	23:57	-133.788	48.595	0	1555.40	0	2.2980	0	34.5170	0	27.569	0	1536.532	0	-1e10	8	-1e10	8	-1E+10	1	-1E+10	1	-1E+10	1	-1E+10	1	-1E+10	1	-1E+10	1
4902554	63	C	11/02/2022	23:57	-133.788	48.595	0	1565.30	0	2.2900	0	34.5190	0	27.572	0	1546.276	0	-1e10	8	-1e10	8	-1E+10	1	-1E+10	1	-1E+10	1	-1E+10	1	-1E+10	1	-1E+10	1
4902554	63	C	11/02/2022	23:57	-133.788	48.595	0	1575.20	0	2.2810	0	34.5200	0	27.573	0	1556.019	0	-1e10	8	-1e10	8	-1E+10	1	-1E+10	1	-1E+10	1	-1E+10	1	-1E+10	1	-1E+10	1
4902554	63	C	11/02/2022	23:57	-133.788	48.595	0	1585.10	0	2.2730	0	34.5220	0	27.575	0	1565.762	0	-1e10	8	-1e10	8	-1E+10	1	-1E+10	1	-1E+10	1	-1E+10	1	-1E+10	1	-1E+10	1
4902554	63	C	11/02/2022	23:57	-133.788	48.595	0	1595.40	0	2.2650	0	34.5240	0	27.578	0	1575.898	0	-1e10	8	-1e10	8	-1E+10	1	-1E+10	1	-1E+10	1	-1E+10	1	-1E+10	1	-1E+10	1
4902554	63	C	11/02/2022	23:57	-133.788	48.595	0	1605.60	0	2.2500	0	34.5260	0	27.581	0	1585.935	0	-1e10	8	-1e10	8	-1E+10	1	-1E+10	1	-1E+10	1	-1E+10	1	-1E+10	1	-1E+10	1
4902554	63	C	11/02/2022	23:57	-133.788	48.595	0	1615.50	0	2.2410	0	34.5280	0	27.583	0	1595.677	0	-1e10	8	-1e10	8	-1E+10	1	-1E+10	1	-1E+10	1	-1E+10	1	-1E+10	1	-1E+10	1
4902554	63	C	11/02/2022	23:57	-133.788	48.595	0	1625.30	0	2.2340	0	34.5290	0	27.584	0	1605.319	0	-1e10	8	-1e10	8	-1E+10	1	-1E+10	1	-1E+10	1	-1E+10	1	-1E+10	1	-1E+10	1
4902554	63	C	11/02/2022	23:57	-133.788	48.595	0	1635.30	0	2.2240	0	34.5310	0	27.587	0	1615.158	0	-1e10	8	-1e10	8	-1E+10	1	-1E+10	1	-1E+10	1	-1E+10	1	-1E+10	1	-1E+10	1
4902554	63	C	11/02/2022	23:57	-133.788	48.595	0	1645.10	0	2.2160	0	34.5330	0	27.589	0	1624.800	0	-1e10	8	-1e10	8	-1E+10	1	-1E+10	1	-1E+10	1	-1E+10	1	-1E+10	1	-1E+10	1
4902554	63	C	11/02/2022	23:57	-133.788	48.595	0	1655.50	0	2.2030	0	34.5350	0	27.592	0	1635.031	0	-1e10	8	-1e10	8	-1E+10	1	-1E+10	1	-1E+10	1	-1E+10	1	-1E+10	1	-1E+10	1
4902554	63	C	11/02/2022	23:57	-133.788	48.595	0	1665.70	0	2.1910	0	34.5370	0	27.594	0	1645.066	0	-1e10	8	-1e10	8	-1E+10	1	-1E+10	1	-1E+10	1	-1E+10	1	-1E+10	1	-1E+10	1
4902554	63	C	11/02/2022	23:57	-133.788	48.595	0	1675.50	0	2.1810	0	34.5390	0	27.597	0	1654.706	0	-1e10	8	-1e10	8	-1E+10	1	-1E+10	1	-1E+10	1	-1E+10	1	-1E+10	1	-1E+10	1
4902554	63	C	11/02/2022	23:57	-133.788	48.595	0	1685.40	0	2.1730	0	34.5410	0	27.599	0	1664.444	0	-1e10	8	-1e10	8	-1E+10	1	-1E+10	1	-1E+10	1	-1E+10	1	-1E+10	1	-1E+10	1
4902554	63	C	11/02/2022	23:57	-133.788	48.595	0	1695.70	0	2.1620	0	34.5430	0	27.602	0	1674.576	0	-1e10	8	-1e10	8	-1E+10	1	-1E+10	1	-1E+10	1	-1E+10	1	-1E+10	1	-1E+10	1
4902554	63	C	11/02/2022	23:57	-133.788	48.595	0	1705.50	0	2.1500	0	34.5450	0	27.604	0	1684.215	0	-1e10	8	-1e10	8	-1E+10	1	-1E+10	1	-1E+10	1	-1E+10	1	-1E+10	1	-1E+10	1
4902554	63	C	11/02/2022	23:57	-133.788	48.595	0	1715.20	0	2.1430	0	34.5470	0	27.607	0	1693.755	0	-1e10	8	-1e10	8	-1E+10	1	-1E+10	1	-1E+10	1	-1E+10	1	-1E+10	1	-1E+10	1
4902554	63	C	11/02/2022	23:57	-133.788	48.595	0	1725.20	0	2.1370	0	34.5480	0	27.608	0	1703.590	0	-1e10	8	-1e10	8	-1E+10	1	-1E+10	1	-1E+10	1	-1E+10	1	-1E+10	1	-1E+10	1
4902554	63	C	11/02/2022	23:57	-133.788	48.595	0	1735.50	0	2.1260	0	34.5500	0	27.610	0	1713.719	0	-1e10	8	-1e10	8	-1E+10	1	-1E+10	1	-1E+10	1	-1E+10	1	-1E+10	1	-1E+10	1
4902554	63	C	11/02/2022	23:57	-133.788	48.595	0	1745.70	0	2.1170	0	34.5520	0	27.613	0	1723.750	0	-1e10	8	-1e10	8	-1E+10	1	-1E+10	1	-1E+10	1	-1E+10	1	-1E+10	1	-1E+10	1
4902554	63	C	11/02/2022	23:57	-133.788	48.595	0	1755.60	0	2.1120	0	34.5530	0	27.614	0	1733.485	0	-1e10	8	-1e10	8	-1E+10	1	-1E+10	1	-1E+10	1	-1E+10	1	-1E+10	1	-1E+10	1
4902554	63	C	11/02/2022	23:57	-133.788	48.595	0	1765.70	0	2.1060	0	34.5540	0	27.615	0	1743.416	0	-1e10	8	-1e10	8	-1E+10	1	-1E+10	1	-1E+10	1	-1E+10	1	-1E+10	1	-1E+10	1
4902554	63	C	11/02/2022	23:57	-133.788	48.595	0	1775.60	0	2.1000	0	34.5560	0	27.617	0	1753.150	0	-1e10	8	-1e10	8	-1E+10	1	-1E+10	1	-1E+10	1	-1E+10	1	-1E+10	1	-1E+10	1
4902554	63	C	11/02/2022	23:57	-133.788	48.595	0	1785.60	0	2.0890	0	34.5580	0	27.620	0	1762.982	0	-1e10	8	-1e10	8	-1E+10	1	-1E+10	1	-1E+10	1	-1E+10	1	-1E+10	1	-1E+10	1
4902554	63	C	11/02/2022	23:57	-133.788	48.595	0	1795.70	0	2.0860	0	34.5590	0	27.621	0	1772.912	0	-1e10	8	-1e10	8	-1E+10	1	-1E+10	1	-1E+10	1	-1E+10	1	-1E+10	1	-1E+10	1
4902554	63	C	11/02/2022	23:57	-133.788	48.595	0	1805.40	0	2.0820	0	34.5600	0	27.622	0	1782.449	0	-1e10	8	-1e10	8	-1E+10	1	-1E+10	1	-1E+10	1	-1E+10	1	-1E+10	1	-1E+10	1
4902554	63	C	11/02/2022	23:57	-133.788	48.595	0	1815.30	0	2.0670	0	34.5630	0	27.626	0	1792.181	0	-1e10	8	-1e10	8	-1E+10	1	-1E+10	1	-1E+10	1	-1E+10	1	-1E+10	1	-1E+10	1
4902554	63	C	11/02/2022	23:57	-133.788	48.595	0	1825.30	0	2.0590	0	34.5650	0	27.628	0	1802.011	0	-1e10	8	-1e10	8	-1E+10	1	-1E+10	1	-1E+10	1	-1E+10	1	-1E+10	1	-1E+10	1
4902554	63	C	11/02/2022	23:57	-133.788	48.595	0	1835.40	0	2.0500	0	34.5670	0	27.631	0	1811.939	0	-1e10	8	-1e10	8	-1E+10	1	-1E+10	1	-1E+10	1	-1E+10	1	-1E+10	1	-1E+10	1
4902554	63	C	11/02/2022	23:57	-133.788	48.595	0	1845.20	0	2.0420	0	34.5680	0	27.632	0	1821.572	0	-1e10	8	-1e10	8	-1E+10	1	-1E+10	1	-1E+10	1	-1E+10	1	-1E+10	1	-1E+10	1
4902554	63	C	11/02/2022	23:57	-133.788	48.595	0	1855.30	0	2.0320	0	34.5700	0	27.634	0	1831.499	0	-1e10	8	-1e10	8	-1E+10	1	-1E+10	1	-1E+10	1	-1E+10	1	-1E+10	1	-1E+10	1
4902554	63	C	11/02/2022	23:57	-133.788	48.595	0	1865.40	0	2.0230	0	34.5720	0	27.637	0	1841.426	0	-1e10	8	-1e10	8	-1E+10	1	-1E+10	1	-1E+10	1	-1E+10	1	-1E+10	1	-1E+10	1
4902554	63	C	11/02/2022	23:57	-133.788	48.595	0	1875.20	0	2.0150	0	34.5740	0	27.639	0	1851.057	0	-1e10	8	-1e10	8	-1E+10	1	-1E+10	1	-1E+10	1	-1E+10	1	-1E+10	1	-1E+10	1
4902554	63	C	11/02/2022	23:57	-133.788	48.595	0	1885.30	0	2.0090	0	34.5750	0	27.640	0	1860.983	0	-1e10	8	-1e10	8	-1E+10	1	-1E+10	1	-1E+10	1	-1E+10	1	-1E+10	1	-1E+10	1
4902554	63	C	11/02/2022	23:57	-133.788	48.595	0	1895.40	0	2.0070	0	34.5750	0	27.641	0	1870.909	0	-1e10	8	-1e10	8	-1E+10	1	-1E+10	1	-1E+10	1	-1E+10	1	-1E+10	1	-1E+10	1
4902554	63	C	11/02/2022	23:57	-133.788	48.595	0	1905.40	0	2.0040	0	34.5760	0	27.642	0	1880.735	0	-1e10	8	-1e10	8	-1E+10	1	-1E+10	1	-1E+10	1	-1E+10	1	-1E+10	1	-1E+10	1
4902554	63	C	11/02/2022	23:57	-133.788	48.595	0	1915.40	0	1.9960	0	34.5780	0	27.644	0	1890.562	0	-1e10	8	-1e10	8	-1E+10	1	-1E+10	1	-1E+10	1	-1E+10	1	-1E+10	1	-1E+10	1
4902554	63	C	11/02/2022	23:57	-133.788	48.595	0	1925.20	0	1.9840	0	34.5800	0	27.647	0	1900.191	0	-1e10	8	-1e10	8	-1E+10	1	-1E+10	1	-1E+10	1	-1E+10	1	-1E+10	1	-1E+10	1
4902554	63	C	11/02/2022	23:57	-133.788	48.595	0	1935.10	0	1.9760	0	34.5810	0	27.648	0	1909.918	0	-1e10	8	-1e10	8	-1E+10	1	-1E+10	1	-1E+10	1	-1E+10	1	-1E+10	1	-1E+10	1
4902554	63	C	11/02/2022	23:57	-133.788	48.595	0	1945.20	0	1.9710	0	34.5810	0	27.649	0	1919.841	0	-1e10	8	-1e10	8	-1E+10	1	-1E+10	1	-1E+10	1	-1E+10	1	-1E+10	1	-1E+10	1
4902554	63	C	11/02/2022	23:57	-133.788	48.595	0	1954.50	0	1.9680	0	34.5820	0	27.650	0	1928.977	0	-1e10	8	-1e10	8	-1E+10	1	-1E+10	1	-1E+10	1	-1E+10	1	-1E+10	1	-1E+10	1
4902554	63	C	11/02/2022	23:57	-133.788	48.595	0																										
4902554	64	C	11/13/2022	05:06	-133.775	48.440	0	0.40	0	11.8430	0	32.2390	0	24.475	0	0.397	0	-1e10	8	-1e10	8	-1E+10	1	-1E+10	1	-1E+10	1	-1E+10	1	-1E+10	1	-1E+10	1
4902554	64	C	11/13/2022	05:06	-133.775	48.440	0	1.00	0	11.8400	0	32.2410	0	24.477	0	0.992	0	-1e10	8	-1e10	8	-1E+10	1	-1E+10	1	-1E+10	1	-1E+10	1	-1E+10	1	-1E+10	1
4902554	64	C	11/13/2022	05:06	-133.775	48.440	0	2.00	0	11.8470	0	32.2400	0	24.475	0	1.983	0	-1e10	8	-1e10	8	-1E+10	1	-1E+10	1	-1E+10	1	-1E+10	1	-1E+10	1	-1E+10	1
4902554	64	C	11/13/2022	05:06	-133.775	48.440	0	2.80	0	11.8460	0	32.2420	0	24.477	0	2.776	0	-1e10	8	-1e10	8	-1E+10	1	-1E+10	1	-1E+10	1	-1E+10	1	-1E+10	1	-1E+10	1
4902554	64	C	11/13/2022	05:06	-133.775	48.440	0	4.00	0	11.8480	0	32.2430	0	24.477	0	3.966	0	-1e10	8	-1e10	8	-1E+10	1	-1E+10	1	-1E+10	1	-1E+10	1	-1E+10	1	-1E+10	1
4902554	64	C	11/13/2022	05:06	-133.775	48.440	0	4.90	0	11.8520	0	32.2400	0	24.474	0	4.859	0	-1e10	8	-1e10	8	-1E+10	1	-1E+10	1	-1E+10	1	-1E+10	1	-1E+10	1	-1E+10	1
4902554	64	C	11/13/2022	05:06	-133.775	48.440	0	5.80	0	11.8520	0	32.2400	0	24.474	0	5.751	0	-1e10	8	-1e10	8	-1E+10	1	-1E+10	1	-1E+10	1	-1E+10	1	-1E+10	1	-1E+10	1
4902554	64	C	11/13/2022	05:06	-133.775	48.440	0	6.80	0	11.8520	0	32.2400	0	24.474	0	6.743	0	-1e10	8	-1e10	8	-1E+10	1	-1E+10	1	-1E+10	1	-1E+10	1	-1E+10	1	-1E+10	1
4902554	64	C	11/13/2022	05:06	-133.775	48.440	0	8.00	0	11.8480	0	32.2410	0	24.476	0	7.932	0	-1e10	8	-1e10	8	-1E+10	1	-1E+10	1	-1E+10	1	-1E+10	1	-1E+10	1	-1E+10	1
4902554	64	C	11/13/2022	05:06	-133.775	48.440	0	9.20	0	11.8520	0	32.2400	0	24.474	0	9.122	0	-1e10	8	-1e10	8	-1E+10	1	-1E+10	1	-1E+10	1	-1E+10	1	-1E+10	1	-1E+10	1
4902554	64	C	11/13/2022	05:06	-133.775	48.440	0	10.10	0	11.8520	0	32.2400	0	24.474	0	10.015	0	-1e10	8	-1e10	8	-1E+10	1	-1E+10	1	-1E+10	1	-1E+10	1	-1E+10	1	-1E+10	1
4902554	64	C	11/13/2022	05:06	-133.775	48.440	0	11.00	0	11.8550	0	32.2400	0	24.474	0	10.907	0	-1e10	8	-1e10	8	-1E+10	1	-1E+10	1	-1E+10	1	-1E+10	1	-1E+10	1	-1E+10	1
4902554	64	C	11/13/2022	05:06	-133.775	48.440	0	11.90	0	11.8600	0	32.2410	0	24.474	0	11.799	0	-1e10	8	-1e10	8	-1E+10	1	-1E+10	1	-1E+10	1	-1E+10	1	-1E+10	1	-1E+10	1
4902554	64	C	11/13/2022	05:06	-133.775	48.440	0	13.10	0	11.8590	0	32.2410	0	24.474	0	12.989	0	-1e10	8	-1e10	8	-1E+10	1	-1E+10	1	-1E+10	1	-1E+10	1	-1E+10	1	-1E+10	1
4902554	64	C	11/13/2022	05:06	-133.775	48.440	0	14.10	0	11.8600	0	32.2420	0	24.475	0	13.981	0	-1e10	8	-1e10	8	-1E+10	1	-1E+10	1	-1E+10	1	-1E+10	1	-1E+10	1	-1E+10	1
4902554	64	C	11/13/2022	05:06	-133.775	48.440	0	15.10	0	11.8590	0	32.2420	0	24.475	0	14.972	0	-1e10	8	-1e10	8	-1E+10	1	-1E+10	1	-1E+10	1	-1E+10	1	-1E+10	1	-1E+10	1
4902554	64	C	11/13/2022	05:06	-133.775	48.440	0	16.10	0	11.8570	0	32.2410	0	24.474	0	15.964	0	-1e10	8	-1e10	8	-1E+10	1	-1E+10	1	-1E+10	1	-1E+10	1	-1E+10	1	-1E+10	1
4902554	64	C	11/13/2022	05:06	-133.775	48.440	0	17.00	0	11.8590	0	32.2410	0	24.474	0	16.856	0	-1e10	8	-1e10	8	-1E+10	1	-1E+10	1	-1E+10	1	-1E+10	1	-1E+10	1	-1E+10	1
4902554	64	C	11/13/2022	05:06	-133.775	48.440	0	18.00	0	11.8620	0	32.2430	0	24.475	0	17.847	0	-1e10	8	-1e10	8	-1E+10	1	-1E+10	1	-1E+10	1	-1E+10	1	-1E+10	1	-1E+10	1
4902554	64	C	11/13/2022	05:06	-133.775	48.440	0	19.00	0	11.8610	0	32.2430	0	24.475	0	18.839	0	-1e10	8	-1e10	8	-1E+10	1	-1E+10	1	-1E+10	1	-1E+10	1	-1E+10	1	-1E+10	1
4902554	64	C	11/13/2022	05:06	-133.775	48.440	0	20.00	0	11.8610	0	32.2430	0	24.475	0	19.830	0	-1e10	8	-1e10	8	-1E+10	1	-1E+10	1	-1E+10	1	-1E+10	1	-1E+10	1	-1E+10	1
4902554	64	C	11/13/2022	05:06	-133.775	48.440	0	20.90	0	11.8620	0	32.2430	0	24.475	0	20.723	0	-1e10	8	-1e10	8	-1E+10	1	-1E+10	1	-1E+10	1	-1E+10	1	-1E+10	1	-1E+10	1
4902554	64	C	11/13/2022	05:06	-133.775	48.440	0	22.10	0	11.8620	0	32.2430	0	24.475	0	21.912	0	-1e10	8	-1e10	8	-1E+10	1	-1E+10	1	-1E+10	1	-1E+10	1	-1E+10	1	-1E+10	1
4902554	64	C	11/13/2022	05:06	-133.775	48.440	0	22.80	0	11.8610	0	32.2430	0	24.475	0	22.607	0	-1e10	8	-1e10	8	-1E+10	1	-1E+10	1	-1E+10	1	-1E+10	1	-1E+10	1	-1E+10	1
4902554	64	C	11/13/2022	05:06	-133.775	48.440	0	23.70	0	11.8610	0	32.2430	0	24.475	0	23.499	0	-1e10	8	-1e10	8	-1E+10	1	-1E+10	1	-1E+10	1	-1E+10	1	-1E+10	1	-1E+10	1
4902554	64	C	11/13/2022	05:06	-133.775	48.440	0	25.10	0	11.8620	0	32.2430	0	24.475	0	24.887	0	-1e10	8	-1e10	8	-1E+10	1	-1E+10	1	-1E+10	1	-1E+10	1	-1E+10	1	-1E+10	1
4902554	64	C	11/13/2022	05:06	-133.775	48.440	0	26.30	0	11.8630	0	32.2430	0	24.475	0	26.077	0	-1e10	8	-1e10	8	-1E+10	1	-1E+10	1	-1E+10	1	-1E+10	1	-1E+10	1	-1E+10	1
4902554	64	C	11/13/2022	05:06	-133.775	48.440	0	27.00	0	11.8630	0	32.2430	0	24.475	0	26.771	0	-1e10	8	-1e10	8	-1E+10	1	-1E+10	1	-1E+10	1	-1E+10	1	-1E+10	1	-1E+10	1
4902554	64	C	11/13/2022	05:06	-133.775	48.440	0	28.00	0	11.8630	0	32.2430	0	24.475	0	27.762	0	-1e10	8	-1e10	8	-1E+10	1	-1E+10	1	-1E+10	1	-1E+10	1	-1E+10	1	-1E+10	1
4902554	64	C	11/13/2022	05:06	-133.775	48.440	0	28.90	0	11.8620	0	32.2430	0	24.475	0	28.654	0	-1e10	8	-1e10	8	-1E+10	1	-1E+10	1	-1E+10	1	-1E+10	1	-1E+10	1	-1E+10	1
4902554	64	C	11/13/2022	05:06	-133.775	48.440	0	29.80	0	11.8620	0	32.2430	0	24.475	0	29.547	0	-1e10	8	-1e10	8	-1E+10	1	-1E+10	1	-1E+10	1	-1E+10	1	-1E+10	1	-1E+10	1
4902554	64	C	11/13/2022	05:06	-133.775	48.440	0	30.80	0	11.8630	0	32.2430	0	24.475	0	30.538	0	-1e10	8	-1e10	8	-1E+10	1	-1E+10	1	-1E+10	1	-1E+10	1	-1E+10	1	-1E+10	1
4902554	64	C	11/13/2022	05:06	-133.775	48.440	0	31.80	0	11.8630	0	32.2430	0	24.475	0	31.529	0	-1e10	8	-1e10	8	-1E+10	1	-1E+10	1	-1E+10	1	-1E+10	1	-1E+10	1	-1E+10	1
4902554	64	C	11/13/2022	05:06	-133.775	48.440	0	32.80	0	11.8630	0	32.2430	0	24.475	0	32.521	0	-1e10	8	-1e10	8	-1E+10	1	-1E+10	1	-1E+10	1	-1E+10	1	-1E+10	1	-1E+10	1
4902554	64	C	11/13/2022	05:06	-133.775	48.440	0	33.70	0	11.8630	0	32.2430	0	24.475	0	33.413	0	-1e10	8	-1e10	8	-1E+10	1	-1E+10	1	-1E+10	1	-1E+10	1	-1E+10	1	-1E+10	1
4902554	64	C	11/13/2022	05:06	-133.775	48.440	0	34.80	0	11.8610	0	32.2430	0	24.476	0	34.504	0	-1e10	8	-1e10	8	-1E+10	1	-1E+10	1	-1E+10	1	-1E+10	1	-1E+10	1	-1E+10	1
4902554	64	C	11/13/2022	05:06	-133.775	48.440	0	35.80	0	11.8610	0	32.2430	0	24.476	0	35.495	0	-1e10	8	-1e10	8	-1E+10	1	-1E+10	1	-1E+10	1	-1E+10	1	-1E+10	1	-1E+10	1
4902554	64	C	11/13/2022	05:06	-133.775	48.440	0	36.90	0	11.8610	0	32.2430	0	24.476	0	36.586	0	-1e10	8	-1e10	8	-1E+10	1	-1E+10	1	-1E+10	1	-1E+10	1	-1E+10	1	-1E+10	1
4902554	64	C	11/13/2022	05:06	-133.775	48.440	0	38.00	0	11.8610	0	32.2430	0	24.476	0	37.676	0	-1e10	8	-1e10	8	-1E+10	1	-1E+10	1	-1E+10	1	-1E+10	1	-1E+10	1	-1E+10	1
4902554	64	C	11/13/2022	05:06	-133.775	48.440	0	39.10	0	11.8610	0	32.2430	0	24.476	0	38.767	0	-1e10	8	-1e10	8	-1E+10	1	-1E+10	1	-1E+10	1	-1E+10	1	-1E+10	1	-1E+10	1
4902554	64	C	11/13/2022	05:06	-133.775	48.440	0	40.10	0	11.8610	0	32.2430	0	24.476	0	39.758	0	-1e10	8	-1e10	8	-1E+10	1	-1E+10	1	-1E+10	1	-1E+10	1	-1E+10	1	-1E+10	1
4902554	64	C	11/13/2022	05:06	-133.775	48.440	0	40.90	0	11.8610	0	32.2430	0	24.476	0	40.551	0	-1e10	8	-1e10	8	-1E+10	1	-1E+10	1	-1E+10	1	-1E+10	1	-1E+10	1	-1E+10	1
4902554	64	C	11/13/2022	05:06	-133.775	48.440	0	41.70	0	11.8610	0	32.2430	0	24.476	0	41.344	0	-1e10	8	-1e10	8	-1E+10	1	-1E+10	1	-1E+10	1	-1E+10	1	-1E+10	1	-1E+10	1
4902554	64	C	11/13/2022	05:06	-133.775	48.440	0	43.10	0	11.8610	0	32.2430	0	24.476	0	42.732	0	-1e10	8	-1e10	8	-1E+10	1	-1E+10	1	-1E+10	1	-1E+10	1	-1E+10	1	-1E+10	1
4902554	64	C	11/13/2022	05:06	-133.775	48.440	0	44.10	0	11.8610	0	32.2430	0	24.476	0	43.723	0	-1e10	8	-1e10	8	-1E+10	1	-1E+10	1	-1E+10	1	-1E+10	1	-1E+10	1	-1E+10	1
4902554	64	C	11/13/2022	05:06	-133.775	48.440	0	45.00	0	11.8610	0	32.2430	0	24.476	0	44.616	0	-1e10	8	-1e10	8	-1E+10	1	-1E+10	1	-1E+10	1	-1E+10	1	-1E+10	1	-1E+10	1
4902554	64	C	11/13/2022	05:06	-133.775	48.440	0	45.90	0	11.8620	0	32.2430	0	24.476	0	45.508	0	-1e10	8	-1e10	8	-1E+10	1	-1E+10	1	-1E+10	1	-1E+10	1	-1E+10	1	-1E+10	1
4902554	64	C	11/13/2022	05:06	-133.775	48.440	0	46.80	0	11.8620	0	32.2430	0	24.476	0	46.400	0	-1e10	8	-1e10	8	-1E+10	1	-1E+10	1	-1E+10	1	-1E+10	1	-1E+10	1	-1E+10	1
4902554	64	C	11/13/2022	05:06	-133.775	48.440	0	47.90	0	11.8630	0	32.2430	0	24.476	0	47.491	0	-1e10	8	-1e10	8	-1E+10	1	-1E+10	1	-1E+10	1	-1E+10	1	-1E+10	1	-1E+10	1
4902554	64	C	11/13/2022	05:06	-133.775	48.440	0	49.20	0	11.8630	0	32.2430	0	24.476	0	48.779	0	-1e10	8	-1e10	8	-1E+10	1	-1E+10	1	-1E+10	1	-1E+10	1	-1E+10	1	-1E+10	1
4902554	64	C	11/13/2022	05:06	-133.775	48.440	0	50.00	0	11.8650	0	32.2450	0	24.477	0	49.572	0	-1e10	8	-1e10	8	-1E+10	1	-1E+10	1	-1E+10	1	-1E+10	1	-1E+10	1	-1E+10	1
4902554	64	C	11/13/2022	05:06	-133.775	48.440	0	50.90	0	11.8650	0	32.2450	0	24.477	0	50.465	0	-1e10	8	-1e10	8	-1E+10	1	-1E+10	1	-1E+10	1	-1E+10	1	-1E+10	1	-1E+10	1
4902554	64	C	11/13/2022	05:06	-133.775	48.440	0	52.20	0	11.8640	0	32.2440	0	24.476	0	51.753	0	-1e10	8	-1e10	8	-1E+10	1	-1E+10	1	-1E+10	1	-1E+10	1	-1E+10	1	-1E+10	1
4902554	64	C	11/13/2022	05:06	-133.775	48.440	0	52.80	0	11.8630	0	32.2440	0	24.476	0	52.348	0	-1e10	8	-1e10	8	-1E+10	1	-1E+10	1	-1E+10	1	-1E+10	1	-1E+10	1	-1E+10	1
4902554	64	C	11/13/2022	05:06	-133.775	48.440	0	53.90	0	11.8610	0	32.2430	0	24.476	0	53.439	0	-1e10	8	-1e10	8	-1E+10	1	-1E+10	1	-1E+10	1	-1E+10	1	-1E+10	1	-1E+10	1
4902554	64	C	11/13/2022	05:06	-133.775	48.440	0	55.30	0	11.8610	0	32.2430	0	24.476	0	54.826	0	-1e10	8	-1e10	8	-1E+10	1	-1E+10	1	-1E+10	1	-1E+10	1	-1E+10	1	-1E+10	1
4902554	64	C	11/13/2022	05:06	-133.775	48.440	0	55.90	0	11.8610	0	32.2430	0	24.476	0	55.421	0	-1e10	8	-1e10	8	-1E+10	1	-1E+10	1	-1E+10	1	-1E+10	1	-1E+10	1	-1E+10	1
4902554	64	C	11/13/2022	05:06	-133.775	48.440	0	56.90	0	11.8610	0	32.2430	0	24.476	0	56.412	0	-1e10	8	-1e10	8	-1E+10	1	-1E+10	1	-1E+10	1	-1E+10	1	-1E+10	1	-1E+10	1
4902554	64	C	11/13/2022	05:06	-133.775	48.440	0	58.00	0	11.8580	0	32.2410	0	24.475	0	57.503	0	-1e10	8	-1e10	8	-1E+10	1	-1E+10	1	-1E+10	1	-1E+10	1	-1E+10	1	-1E+10	1
4902554	64	C	11/13/2022	05:06	-133.775	48.440	0	59.20	0	11.8030	0	32.2490	0	24.492	0	58.692	0	-1e10	8	-1e10	8	-1E+10	1	-1E+10	1	-1E+10	1	-1E+10	1	-1E+10	1	-1E+10	1
4902554	64	C	11/13/2022	05:06	-133.775	48.440	0	59.80	0	11.7150	0	32.2580	0	24.515	0	59.287	0	-1e10	8	-1e10	8	-1E+10	1	-1E+10	1	-1E+10	1	-1E+10	1	-1E+10	1	-1E+10	1
4902554	64	C	11/13/2022	05:06	-133.775	48.440	0	60.90	0	10.8080	0	32.3330	0	24.735	0	60.378	0	-1e10	8	-1e10	8	-1E+10	1	-1E+10	1	-1E+10	1	-1E+10	1	-1E+10	1	-1E+10	1
4902554	64	C	11/13/2022	05:06	-133.775	48.440	0	62.00	0	9.6820	0	32.3850	0	24.964	0	61.468	0	-1e10	8	-1e10	8	-1E+10	1	-1E+10	1	-1E+10	1	-1E+10	1	-1E+10	1	-1E+10	1
4902554	64	C	11/13/2022	05:06	-133.775	48.440	0	63.00	0	9.1260	0	32.4200	0	25.080	0	62.459	0	-1e10	8	-1e10	8	-1E+10	1	-1E+10	1	-1E+10	1	-1E+10	1	-1E+10	1	-1E+10	1
4902554	64	C	11/13/2022	05:06	-133.775	48.440	0	64.00	0	8.9390	0	32.4240	0	25.112	0	63.451	0	-1e10	8	-1e10	8	-1E+10	1	-1E+10	1	-1E+10	1	-1E+10	1	-1E+10	1	-1E+10	1
4902554	64	C	11/13/2022	05:06	-133.775	48.440	0	64.90	0	8.7530	0	32.4370	0	25.151	0	64.343	0	-1e10	8	-1e10	8	-1E+10	1	-1E+10	1	-1E+10	1	-1E+10	1	-1E+10	1	-1E+10	1
4902554	64	C	11/13/2022	05:06	-133.775	48.440	0	65.90	0	8.5730	0	32.4430	0	25.183	0	65.334	0	-1e10	8	-1e10	8	-1E+10	1	-1E+10	1	-1E+10	1	-1E+10	1	-1E+10	1	-1E+10	1
4902554	64	C	11/13/2022	05:06	-133.775	48.440	0	66.90	0	8.4580	0	32.4410	0	25.199	0	66.325	0	-1e10	8	-1e10	8	-1E+10	1	-1E+10	1	-1E+10	1	-1E+10	1	-1E+10	1	-1E+10	1
4902554	64	C	11/13/2022	05:06	-133.775	48.440	0	67.90	0	8.3050	0	32.4460	0	25.225	0	67.316	0	-1e10	8	-1e10	8	-1E+10	1	-1E+10	1	-1E+10	1	-1E+10	1	-1E+10	1	-1E+10	1
4902554	64	C	11/13/2022	05:06	-133.775	48.440	0	69.00	0	8.1910	0	32.4510	0	25.246	0	68.407	0	-1e10	8	-1e10	8	-1E+10	1	-1E+10	1	-1E+10	1	-1E+10	1	-1E+10	1	-1E+10	1
4902554	64	C	11/13/2022	05:06	-133.775	48.440	0	70.10	0	8.1260	0	32.4500	0	25.255	0	69.497	0	-1e10	8	-1e10	8	-1E+10	1	-1E+10	1	-1E+10	1	-1E+10	1	-1E+10	1	-1E+10	1
4902554	64	C	11/13/2022	05:06	-133.775	48.440	0	71.10	0	8.0490	0	32.4520	0	25.267	0	70.488	0	-1e10	8	-1e10	8	-1E+10	1	-1E+10	1	-1E+10	1	-1E+10	1	-1E+10	1	-1E+10	1
4902554	64	C	11/13/2022	05:06	-133.775	48.440	0	72.00	0	8.0280	0	32.4600	0	25.277	0	71.380	0	-1e10	8	-1e10	8	-1E+10	1	-1E+10	1	-1E+10	1	-1E+10	1	-1E+10	1	-1E+10	1
4902554	64	C	11/13/2022	05:06	-133.775	48.440	0	72.80	0	8.0230	0	32.4650	0	25.281	0	72.173	0	-1e10	8	-1e10	8	-1E+10	1	-1E+10	1	-1E+10	1	-1E+10	1	-1E+10	1	-1E+10	1
4902554	64	C	11/13/2022	05:06	-133.775	48.440	0	73.90	0	7.9470	0	32.4680	0	25.295	0	73.264	0	-1e10	8	-1e10	8	-1E+10	1	-1E+10	1	-1E+10	1	-1E+10	1	-1E+10	1	-1E+10	1
4902554	64	C	11/13/2022	05:06	-133.775	48.440	0	75.10	0	7.8710	0	32.4700	0	25.307	0	74.453	0	-1e10	8	-1e10	8	-1E+10	1	-1E+10	1	-1E+10	1	-1E+10	1	-1E+10	1	-1E+10	1
4902554	64	C	11/13/2022	05:06	-133.775	48.440	0	76.00	0	7.8390	0	32.4690	0	25.311	0	75.345	0	-1e10	8	-1e10	8	-1E+10	1	-1E+10	1	-1E+10	1	-1E+10	1	-1E+10	1	-1E+10	1
4902554	64	C	11/13/2022	05:06	-133.775	48.440	0	76.90	0	7.8000	0	32.4690	0	25.317	0	76.237	0	-1e10	8	-1e10	8	-1E+10	1	-1E+10	1	-1E+10	1	-1E+10	1	-1E+10	1	-1E+10	1
4902554	64	C	11/13/2022	05:06	-133.775	48.440	0	77.80	0	7.7720	0	32.4680	0	25.320	0	77.129	0	-1e10	8	-1e10	8	-1E+10	1	-1E+10	1	-1E+10	1	-1E+10	1	-1E+10	1	-1E+10	1
4902554	64	C	11/13/2022	05:06	-133.775	48.440	0	78.80	0	7.7530	0	32.4690	0	25.323	0	78.121	0	-1e10	8	-1e10	8	-1E+10	1	-1E+10	1	-1E+10	1	-1E+10	1	-1E+10	1	-1E+10	1
4902554	64	C	11/13/2022	05:06	-133.775	48.440	0	80.00	0	7.6510	0	32.4760	0	25.343	0	79.310	0	-1e10	8	-1e10	8	-1E+10	1	-1E+10	1	-1E+10	1	-1E+10	1	-1E+10	1	-1E+10	1
4902554	64	C	11/13/2022	05:06	-133.775	48.440	0	81.00	0	7.6020	0	32.4770	0	25.351	0	80.301	0	-1e10	8	-1e10	8	-1E+10	1	-1E+10	1	-1E+10	1	-1E+10	1	-1E+10	1	-1E+10	1
4902554	64	C	11/13/2022	05:06	-133.775	48.440	0	81.90	0	7.5780	0	32.4780	0	25.355	0	81.193	0	-1e10	8	-1e10	8	-1E+10	1	-1E+10	1	-1E+10	1	-1E+10	1	-1E+10	1	-1E+10	1
4902554	64	C	11/13/2022	05:06	-133.775	48.440	0	82.90	0	7.5510	0	32.4770	0	25.358	0	82.185	0	-1e10	8	-1e10	8	-1E+10	1	-1E+10	1	-1E+10	1	-1E+10	1	-1E+10	1	-1E+10	1
4902554	64	C	11/13/2022	05:06	-133.775	48.440	0	83.80	0	7.4880	0	32.4790	0	25.368	0	83.077	0	-1e10	8	-1e10	8	-1E+10	1	-1E+10	1	-1E+10	1	-1E+10	1	-1E+10	1	-1E+10	1
4902554	64	C	11/13/2022	05:06	-133.775	48.440	0	85.00	0	7.4690	0	32.4790	0	25.371	0	84.266	0	-1e10	8	-1e10	8	-1E+10	1	-1E+10	1	-1E+10	1	-1E+10	1	-1E+10	1	-1E+10	1
4902554	64	C	11/13/2022	05:06	-133.775	48.440	0	86.10	0	7.4510	0	32.4780	0	25.373	0	85.356	0	-1e10	8	-1e10	8	-1E+10	1	-1E+10	1	-1E+10	1	-1E+10	1	-1E+10	1	-1E+10	1
4902554	64	C	11/13/2022	05:06	-133.775	48.440	0	87.00	0	7.4350	0	32.4790	0	25.376	0	86.248	0	-1e10	8	-1e10	8	-1E+10	1	-1E+10	1	-1E+10	1	-1E+10	1	-1E+10	1	-1E+10	1
4902554	64	C	11/13/2022	05:06	-133.775	48.440	0	87.90	0	7.4170	0	32.4800	0	25.379	0	87.140	0	-1e10	8	-1e10	8	-1E+10	1	-1E+10	1	-1E+10	1	-1E+10	1	-1E+10	1	-1E+10	1
4902554	64	C	11/13/2022	05:06	-133.775	48.440	0	89.00	0	7.3100	0	32.4840	0	25.397	0	88.231	0	-1e10	8	-1e10	8	-1E+10	1	-1E+10	1	-1E+10	1	-1E+10	1	-1E+10	1	-1E+10	1
4902554	64	C	11/13/2022	05:06	-133.775	48.440	0	89.90	0	7.2700	0	32.4850	0	25.403	0	89.123	0	-1e10	8	-1e10	8	-1E+10	1	-1E+10	1	-1E+10	1	-1E+10	1	-1E+10	1	-1E+10	1
4902554	64	C	11/13/2022	05:06	-133.775	48.440	0	90.70	0	7.2460	0	32.4850	0	25.406	0	89.915	0	-1e10	8	-1e10	8	-1E+10	1	-1E+10	1	-1E+10	1	-1E+10	1	-1E+10	1	-1E+10	1
4902554	64	C	11/13/2022	05:06	-133.775	48.440	0	91.90	0	7.2050	0	32.4880	0	25.414	0	91.105	0	-1e10	8	-1e10	8	-1E+10	1	-1E+10	1	-1E+10	1	-1E+10	1	-1E+10	1	-1E+10	1
4902554	64	C	11/13/2022	05:06	-133.775	48.440	0	93.10	0	7.1680	0	32.4910	0	25.422	0	92.294	0	-1e10	8	-1e10	8	-1E+10	1	-1E+10	1	-1E+10	1	-1E+10	1	-1E+10	1	-1E+10	1
4902554	64	C	11/13/2022	05:06	-133.775	48.440	0	94.00	0	7.1110	0	32.4970	0	25.434	0	93.186	0	-1e10	8	-1e10	8	-1E+10	1	-1E+10	1	-1E+10	1	-1E+10	1	-1E+10	1	-1E+10	1
4902554	64	C	11/13/2022	05:06	-133.775	48.440	0	94.90	0	7.0930	0	32.4970	0	25.436	0	94.078	0	-1e10	8	-1e10	8	-1E+10	1	-1E+10	1	-1E+10	1	-1E+10	1	-1E+10	1	-1E+10	1
4902554	64	C	11/13/2022	05:06	-133.775	48.440	0	96.10	0	7.0740	0	32.4990	0	25.441	0	95.268	0	-1e10	8	-1e10	8	-1E+10	1	-1E+10	1	-1E+10	1	-1E+10	1	-1E+10	1	-1E+10	1
4902554	64	C	11/13/2022	05:06	-133.775	48.440	0	96.90	0	7.0670	0	32.4990	0	25.442	0	96.060	0	-1e10	8	-1e10	8	-1E+10	1	-1E+10	1	-1E+10	1	-1E+10	1	-1E+10	1	-1E+10	1
4902554	64	C	11/13/2022	05:06	-133.775	48.440	0	97.90	0	7.0610	0	32.5000	0	25.443	0	97.052	0	-1e10	8	-1e10	8	-1E+10	1	-1E+10	1	-1E+10	1	-1E+10	1	-1E+10	1	-1E+10	1
4902554	64	C	11/13/2022	05:06	-133.775	48.440	0	99.10	0	7.0400	0	32.5030	0	25.448	0	98.241	0	-1e10	8	-1e10	8	-1E+10	1	-1E+10	1	-1E+10	1	-1E+10	1	-1E+10	1	-1E+10	1
4902554	64	C	11/13/2022	05:06	-133.775	48.440	0	100.10	0	7.0250	0	32.4980	0	25.446	0	99.232	0	-1e10	8	-1e10	8	-1E+10	1	-1E+10	1	-1E+10	1	-1E+10	1	-1E+10	1	-1E+10	1
4902554	64	C	11/13/2022	05:06	-133.775	48.440	0	101.00	0	7.0110	0	32.5010	0	25.451	0	100.124	0	-1e10	8	-1e10	8	-1E+10	1	-1E+10	1	-1E+10	1	-1E+10	1	-1E+10	1	-1E+10	1
4902554	64	C	11/13/2022	05:06	-133.775	48.440	0	101.90	0	6.9890	0	32.5020	0	25.454	0	101.016	0	-1e10	8	-1e10	8	-1E+10	1	-1E+10	1	-1E+10	1	-1E+10	1	-1E+10	1	-1E+10	1
4902554	64	C	11/13/2022	05:06	-133.775	48.440	0	102.80	0	6.9440	0	32.5000	0	25.459	0	101.908	0	-1e10	8	-1e10	8	-1E+10	1	-1E+10	1	-1E+10	1	-1E+10	1	-1E+10	1	-1E+10	1
4902554	64	C	11/13/2022	05:06	-133.775	48.440	0	103.80	0	6.8990	0	32.5130	0	25.475	0	102.899	0	-1e10	8	-1e10	8	-1E+10	1	-1E+10	1	-1E+10	1	-1E+10	1	-1E+10	1	-1E+10	1
4902554	64	C	11/13/2022	05:06	-133.775	48.440	0	104.90	0	6.8970	0	32.5190	0	25.480	0	103.989	0	-1e10	8	-1e10	8	-1E+10	1	-1E+10	1	-1E+10	1	-1E+10	1	-1E+10	1	-1E+10	1
4902554	64	C	11/13/2022	05:06	-133.775	48.440	0	106.10	0	6.9080	0	32.5240	0	25.482	0	105.178	0	-1e10	8	-1e10	8	-1E+10	1	-1E+10	1	-1E+10	1	-1E+10	1	-1E+10	1	-1E+10	1
4902554	64	C	11/13/2022	05:06	-133.775	48.440	0	107.00	0	6.8970	0	32.5340	0	25.492	0	106.070	0	-1e10	8	-1e10	8	-1E+10	1	-1E+10	1	-1E+10	1	-1E+10	1	-1E+10	1	-1E+10	1
4902554	64	C	11/13/2022	05:06	-133.775	48.440	0	107.70	0	6.8750	0	32.5410	0	25.500	0	106.764	0	-1e10	8	-1e10	8	-1E+10	1	-1E+10	1	-1E+10	1	-1E+10	1	-1E+10	1	-1E+10	1
4902554	64	C	11/13/2022	05:06	-133.775	48.440	0	108.70	0	6.8240	0	32.5590	0	25.521	0	107.755	0	-1e10	8	-1e10	8	-1E+10	1	-1E+10	1	-1E+10	1	-1E+10	1	-1E+10	1	-1E+10	1
4902554	64	C	11/13/2022	05:06	-133.775	48.440	0	109.70	0	6.8180	0	32.5610	0	25.523	0	108.746	0	-1e10	8	-1e10	8	-1E+10	1	-1E+10	1	-1E+10	1	-1E+10	1	-1E+10	1	-1E+10	1
4902554	64	C	11/13/2022	05:06	-133.775	48.440	0	110.70	0	6.8150	0	32.5600	0	25.523	0	109.737	0	-1e10	8	-1e10	8	-1E+10	1	-1E+10	1	-1E+10	1	-1E+10	1	-1E+10	1	-1E+10	1
4902554	64	C	11/13/2022	05:06	-133.775	48.440	0	111.70	0	6.8100	0	32.5650	0	25.528	0	110.728	0	-1e10	8	-1e10	8	-1E+10	1	-1E+10	1	-1E+10	1	-1E+10	1	-1E+10	1	-1E+10	1
4902554	64	C	11/13/2022	05:06	-133.775	48.440	0	112.70	0	6.7740	0	32.5830	0	25.547	0	111.719	0	-1e10	8	-1e10	8	-1E+10	1	-1E+10	1	-1E+10	1	-1E+10	1	-1E+10	1	-1E+10	1
4902554	64	C	11/13/2022	05:06	-133.775	48.440	0	113.80	0	6.7480	0	32.5930	0	25.558	0	112.809	0	-1e10	8	-1e10	8	-1E+10	1	-1E+10	1	-1E+10	1	-1E+10	1	-1E+10	1	-1E+10	1
4902554	64	C	11/13/2022	05:06	-133.775	48.440	0	114.80	0	6.7140	0	32.6120	0	25.577	0	113.800	0	-1e10	8	-1e10	8	-1E+10	1	-1E+10	1	-1E+10	1	-1E+10	1	-1E+10	1	-1E+10	1
4902554	64	C	11/13/2022	05:06	-133.775	48.440	0	115.90	0	6.6840	0	32.6410	0	25.604	0	114.891	0	-1e10	8	-1e10	8	-1E+10	1	-1E+10	1	-1E+10	1	-1E+10	1	-1E+10	1	-1E+10	1
4902554	64	C	11/13/2022	05:06	-133.775	48.440	0	117.00	0	6.6670	0	32.6650	0	25.625	0	115.981	0	-1e10	8	-1e10	8	-1E+10	1	-1E+10	1	-1E+10	1	-1E+10	1	-1E+10	1	-1E+10	1
4902554	64	C	11/13/2022	05:06	-133.775	48.440	0	118.00	0	6.6660	0	32.6700	0	25.629	0	116.972	0	-1e10	8	-1e10	8	-1E+10	1	-1E+10	1	-1E+10	1	-1E+10	1	-1E+10	1	-1E+10	1
4902554	64	C	11/13/2022	05:06	-133.775	48.440	0	119.10	0	6.6620	0	32.6730	0	25.632	0	118.062	0	-1e10	8	-1e10	8	-1E+10	1	-1E+10	1	-1E+10	1	-1E+10	1	-1E+10	1	-1E+10	1
4902554	64	C	11/13/2022	05:06	-133.775	48.440	0	120.10	0	6.6100	0	32.7080	0	25.667	0	119.053	0	-1e10	8	-1e10	8	-1E+10	1	-1E+10	1	-1E+10	1	-1E+10	1	-1E+10	1	-1E+10	1
4902554	64	C	11/13/2022	05:06	-133.775	48.440	0	120.90	0	6.5870	0	32.7260	0	25.684	0	119.846	0	-1e10	8	-1e10	8	-1E+10	1	-1E+10	1	-1E+10	1	-1E+10	1	-1E+10	1	-1E+10	1
4902554	64	C	11/13/2022	05:06	-133.775	48.440	0	121.70	0	6.5830	0	32.7300	0	25.687	0	120.638	0	-1e10	8	-1e10	8	-1E+10	1	-1E+10	1	-1E+10	1	-1E+10	1	-1E+10	1	-1E+10	1
4902554	64	C	11/13/2022	05:06	-133.775	48.440	0	122.80	0	6.5530	0	32.7720	0	25.724	0	121.728	0	-1e10	8	-1e10	8	-1E+10	1	-1E+10	1	-1E+10	1	-1E+10	1	-1E+10	1	-1E+10	1
4902554	64	C	11/13/2022	05:06	-133.775	48.440	0	123.90	0	6.5460	0	32.7810	0	25.732	0	122.818	0	-1e10	8	-1e10	8	-1E+10	1	-1E+10	1	-1E+10	1	-1E+10	1	-1E+10	1	-1E+10	1
4902554	64	C	11/13/2022	05:06	-133.775	48.440	0	125.00	0	6.5430	0	32.7840	0	25.735	0	123.909	0	-1e10	8	-1e10	8	-1E+10	1	-1E+10	1	-1E+10	1	-1E+10	1	-1E+10	1	-1E+10	1
4902554	64	C	11/13/2022	05:06	-133.775	48.440	0	126.10	0	6.5440	0	32.7860	0	25.737	0	124.999	0	-1e10	8	-1e10	8	-1E+10	1	-1E+10	1	-1E+10	1	-1E+10	1	-1E+10	1	-1E+10	1
4902554	64	C	11/13/2022	05:06	-133.775	48.440	0	127.10	0	6.5450	0	32.7880	0	25.738	0	125.990	0	-1e10	8	-1e10	8	-1E+10	1	-1E+10	1	-1E+10	1	-1E+10	1	-1E+10	1	-1E+10	1
4902554	64	C	11/13/2022	05:06	-133.775	48.440	0	128.10	0	6.5370	0	32.8030	0	25.751	0	126.981	0	-1e10	8	-1e10	8	-1E+10	1	-1E+10	1	-1E+10	1	-1E+10	1	-1E+10	1	-1E+10	1
4902554	64	C	11/13/2022	05:06	-133.775	48.440	0	129.00	0	6.5060	0	32.8310	0	25.777	0	127.872	0	-1e10	8	-1e10	8	-1E+10	1	-1E+10	1	-1E+10	1	-1E+10	1	-1E+10	1	-1E+10	1
4902554	64	C	11/13/2022	05:06	-133.775	48.440	0	129.70	0	6.4910	0	32.8440	0	25.789	0	128.566	0	-1e10	8	-1e10	8	-1E+10	1	-1E+10	1	-1E+10	1	-1E+10	1	-1E+10	1	-1E+10	1
4902554	64	C	11/13/2022	05:06	-133.775	48.440	0	130.90	0	6.4690	0	32.8620	0	25.806	0	129.755	0	-1e10	8	-1e10	8	-1E+10	1	-1E+10	1	-1E+10	1	-1E+10	1	-1E+10	1	-1E+10	1
4902554	64	C	11/13/2022	05:06	-133.775	48.440	0	131.90	0	6.4010	0	32.9080	0	25.851	0	130.746	0	-1e10	8	-1e10	8	-1E+10	1	-1E+10	1	-1E+10	1	-1E+10	1	-1E+10	1	-1E+10	1
4902554	64	C	11/13/2022	05:06	-133.775	48.440	0	132.90	0	6.3510	0	32.9330	0	25.877	0	131.737	0	-1e10	8	-1e10	8	-1E+10	1	-1E+10	1	-1E+10	1	-1E+10	1	-1E+10	1	-1E+10	1
4902554	64	C	11/13/2022	05:06	-133.775	48.440	0	134.10	0	6.3130	0	32.9570	0	25.901	0	132.926	0	-1e10	8	-1e10	8	-1E+10	1	-1E+10	1	-1E+10	1	-1E+10	1	-1E+10	1	-1E+10	1
4902554	64	C	11/13/2022	05:06	-133.775	48.440	0	134.80	0	6.3050	0	32.9640	0	25.908	0	133.620	0	-1e10	8	-1e10	8	-1E+10	1	-1E+10	1	-1E+10	1	-1E+10	1	-1E+10	1	-1E+10	1
4902554	64	C	11/13/2022	05:06	-133.775	48.440	0	135.90	0	6.2950	0	32.9740	0	25.917	0	134.710	0	-1e10	8	-1e10	8	-1E+10	1	-1E+10	1	-1E+10	1	-1E+10	1	-1E+10	1	-1E+10	1
4902554	64	C	11/13/2022	05:06	-133.775	48.440	0	137.00	0	6.2950	0	32.9750	0	25.918	0	135.800	0	-1e10	8	-1e10	8	-1E+10	1	-1E+10	1	-1E+10	1	-1E+10	1	-1E+10	1	-1E+10	1
4902554	64	C	11/13/2022	05:06	-133.775	48.440	0	137.70	0	6.2910	0	32.9800	0	25.922	0	136.493	0	-1e10	8	-1e10	8	-1E+10	1	-1E+10	1	-1E+10	1	-1E+10	1	-1E+10	1	-1E+10	1
4902554	64	C	11/13/2022	05:06	-133.775	48.440	0	138.80	0	6.2820	0	32.9860	0	25.928	0	137.583	0	-1e10	8	-1e10	8	-1E+10	1	-1E+10	1	-1E+10	1	-1E+10	1	-1E+10	1	-1E+10	1
4902554	64	C	11/13/2022	05:06	-133.775	48.440	0	140.00	0	6.2740	0	32.9970	0	25.938	0	138.773	0	-1e10	8	-1e10	8	-1E+10	1	-1E+10	1	-1E+10	1	-1E+10	1	-1E+10	1	-1E+10	1
4902554	64	C	11/13/2022	05:06	-133.775	48.440	0	140.80	0	6.2570	0	33.0040	0	25.945	0	139.565	0	-1e10	8	-1e10	8	-1E+10	1	-1E+10	1	-1E+10	1	-1E+10	1	-1E+10	1	-1E+10	1
4902554	64	C	11/13/2022	05:06	-133.775	48.440	0	142.00	0	6.1930	0	33.0360	0	25.979	0	140.754	0	-1e10	8	-1e10	8	-1E+10	1	-1E+10	1	-1E+10	1	-1E+10	1	-1E+10	1	-1E+10	1
4902554	64	C	11/13/2022	05:06	-133.775	48.440	0	143.30	0	6.1210	0	33.1120	0	26.048	0	142.042	0	-1e10	8	-1e10	8	-1E+10	1	-1E+10	1	-1E+10	1	-1E+10	1	-1E+10	1	-1E+10	1
4902554	64	C	11/13/2022	05:06	-133.775	48.440	0	144.20	0	6.1210	0	33.1150	0	26.050	0	142.934	0	-1e10	8	-1e10	8	-1E+10	1	-1E+10	1	-1E+10	1	-1E+10	1	-1E+10	1	-1E+10	1
4902554	64	C	11/13/2022	05:06	-133.775	48.440	0	145.00	0	6.1140	0	33.1250	0	26.059	0	143.727	0	-1e10	8	-1e10	8	-1E+10	1	-1E+10	1	-1E+10	1	-1E+10	1	-1E+10	1	-1E+10	1
4902554	64	C	11/13/2022	05:06	-133.775	48.440	0	145.90	0	6.1220	0	33.1600	0	26.085	0	144.619	0	-1e10	8	-1e10	8	-1E+10	1	-1E+10	1	-1E+10	1	-1E+10	1	-1E+10	1	-1E+10	1
4902554	64	C	11/13/2022	05:06	-133.775	48.440	0	146.80	0	6.1250	0	33.1620	0	26.087	0	145.510	0	-1e10	8	-1e10	8	-1E+10	1	-1E+10	1	-1E+10	1	-1E+10	1	-1E+10	1	-1E+10	1
4902554	64	C	11/13/2022	05:06	-133.775	48.440	0	147.70	0	6.1270	0	33.1650	0	26.089	0	146.402	0	-1e10	8	-1e10	8	-1E+10	1	-1E+10	1	-1E+10	1	-1E+10	1	-1E+10	1	-1E+10	1
4902554	64	C	11/13/2022	05:06	-133.775	48.440	0	148.90	0	6.1630	0	33.2060	0	26.117	0	147.591	0	-1e10	8	-1e10	8	-1E+10	1	-1E+10	1	-1E+10	1	-1E+10	1	-1E+10	1	-1E+10	1
4902554	64	C	11/13/2022	05:06	-133.775	48.440	0	150.30	0	6.0500	0	33.2370	0	26.155	0	148.978	0	-1e10	8	-1e10	8	-1E+10	1	-1E+10	1	-1E+10	1	-1E+10	1	-1E+10	1	-1E+10	1
4902554	64	C	11/13/2022	05:06	-133.775	48.440	0	151.10	0	6.0040	0	33.2980	0	26.209	0	149.771	0	-1e10	8	-1e10	8	-1E+10	1	-1E+10	1	-1E+10	1	-1E+10	1	-1E+10	1	-1E+10	1
4902554	64	C	11/13/2022	05:06	-133.775	48.440	0	152.00	0	5.9800	0	33.2750	0	26.194	0	150.663	0	-1e10	8	-1e10	8	-1E+10	1	-1E+10	1	-1E+10	1	-1E+10	1	-1E+10	1	-1E+10	1
4902554	64	C	11/13/2022	05:06	-133.775	48.440	0	152.90	0	5.9950	0	33.3090	0	26.219	0	151.555	0	-1e10	8	-1e10	8	-1E+10	1	-1E+10	1	-1E+10	1	-1E+10	1	-1E+10	1	-1E+10	1
4902554	64	C	11/13/2022	05:06	-133.775	48.440	0	153.80	0	5.9080	0	33.3330	0	26.249	0	152.446	0	-1e10	8	-1e10	8	-1E+10	1	-1E+10	1	-1E+10	1	-1E+10	1	-1E+10	1	-1E+10	1
4902554	64	C	11/13/2022	05:06	-133.775	48.440	0	154.70	0	5.9170	0	33.3390	0	26.252	0	153.338	0	-1e10	8	-1e10	8	-1E+10	1	-1E+10	1	-1E+10	1	-1E+10	1	-1E+10	1	-1E+10	1
4902554	64	C	11/13/2022	05:06	-133.775	48.440	0	155.70	0	5.9820	0	33.4000	0	26.292	0	154.329	0	-1e10	8	-1e10	8	-1E+10	1	-1E+10	1	-1E+10	1	-1E+10	1	-1E+10	1	-1E+10	1
4902554	64	C	11/13/2022	05:06	-133.775	48.440	0	156.60	0	5.9350	0	33.4120	0	26.308	0	155.221	0	-1e10	8	-1e10	8	-1E+10	1	-1E+10	1	-1E+10	1	-1E+10	1	-1E+10	1	-1E+10	1
4902554	64	C	11/13/2022	05:06	-133.775	48.440	0	157.60	0	5.9570	0	33.4410	0	26.328	0	156.212	0	-1e10	8	-1e10	8	-1E+10	1	-1E+10	1	-1E+10	1	-1E+10	1	-1E+10	1	-1E+10	1
4902554	64	C	11/13/2022	05:06	-133.775	48.440	0	158.60	0	5.9490	0	33.4580	0	26.342	0	157.202	0	-1e10	8	-1e10	8	-1E+10	1	-1E+10	1	-1E+10	1	-1E+10	1	-1E+10	1	-1E+10	1
4902554	64	C	11/13/2022	05:06	-133.775	48.440	0	159.90	0	5.9390	0	33.4660	0	26.350	0	158.490	0	-1e10	8	-1e10	8	-1E+10	1	-1E+10	1	-1E+10	1	-1E+10	1	-1E+10	1	-1E+10	1
4902554	64	C	11/13/2022	05:06	-133.775	48.440	0	161.40	0	5.9220	0	33.4740	0	26.358	0	159.977	0	-1e10	8	-1e10	8	-1E+10	1	-1E+10	1	-1E+10	1	-1E+10	1	-1E+10	1	-1E+10	1
4902554	64	C	11/13/2022	05:06	-133.775	48.440	0	162.30	0	5.8800	0	33.4780	0	26.367	0	160.868	0	-1e10	8	-1e10	8	-1E+10	1	-1E+10	1	-1E+10	1	-1E+10	1	-1E+10	1	-1E+10	1
4902554	64	C	11/13/2022	05:06	-133.775	48.440	0	163.30	0	5.8310	0	33.5000	0	26.390	0	161.859	0	-1e10	8	-1e10	8	-1E+10	1	-1E+10	1	-1E+10	1	-1E+10	1	-1E+10	1	-1E+10	1
4902554	64	C	11/13/2022	05:06	-133.775	48.440	0	164.30	0	5.7730	0	33.5120	0	26.407	0	162.850	0	-1e10	8	-1e10	8	-1E+10	1	-1E+10	1	-1E+10	1	-1E+10	1	-1E+10	1	-1E+10	1
4902554	64	C	11/13/2022	05:06	-133.775	48.440	0	165.30	0	5.7650	0	33.5390	0	26.429	0	163.841	0	-1e10	8	-1e10	8	-1E+10	1	-1E+10	1	-1E+10	1	-1E+10	1	-1E+10	1	-1E+10	1
4902554	64	C	11/13/2022	05:06	-133.775	48.440	0	166.30	0	5.7570	0	33.5520	0	26.440	0	164.831	0	-1e10	8	-1e10	8	-1E+10	1	-1E+10	1	-1E+10	1	-1E+10	1	-1E+10	1	-1E+10	1
4902554	64	C	11/13/2022	05:06	-133.775	48.440	0	167.30	0	5.7360	0	33.5600	0	26.449	0	165.822	0	-1e10	8	-1e10	8	-1E+10	1	-1E+10	1	-1E+10	1	-1E+10	1	-1E+10	1	-1E+10	1
4902554	64	C	11/13/2022	05:06	-133.775	48.440	0	168.20	0	5.7370	0	33.5630	0	26.451	0	166.714	0	-1e10	8	-1e10	8	-1E+10	1	-1E+10	1	-1E+10	1	-1E+10	1	-1E+10	1	-1E+10	1
4902554	64	C	11/13/2022	05:06	-133.775	48.440	0	169.20	0	5.7320	0	33.5670	0	26.455	0	167.705	0	-1e10	8	-1e10	8	-1E+10	1	-1E+10	1	-1E+10	1	-1E+10	1	-1E+10	1	-1E+10	1
4902554	64	C	11/13/2022	05:06	-133.775	48.440	0	170.20	0	5.7210	0	33.5690	0	26.458	0	168.695	0	-1e10	8	-1e10	8	-1E+10	1	-1E+10	1	-1E+10	1	-1E+10	1	-1E+10	1	-1E+10	1
4902554	64	C	11/13/2022	05:06	-133.775	48.440	0	171.20	0	5.7150	0	33.5700	0	26.460	0	169.686	0	-1e10	8	-1e10	8	-1E+10	1	-1E+10	1	-1E+10	1	-1E+10	1	-1E+10	1	-1E+10	1
4902554	64	C	11/13/2022	05:06	-133.775	48.440	0	172.10	0	5.7010	0	33.5720	0	26.463	0	170.578	0	-1e10	8	-1e10	8	-1E+10	1	-1E+10	1	-1E+10	1	-1E+10	1	-1E+10	1	-1E+10	1
4902554	64	C	11/13/2022	05:06	-133.775	48.440	0	173.00	0	5.6810	0	33.5780	0	26.470	0	171.469	0	-1e10	8	-1e10	8	-1E+10	1	-1E+10	1	-1E+10	1	-1E+10	1	-1E+10	1	-1E+10	1
4902554	64	C	11/13/2022	05:06	-133.775	48.440	0	174.00	0	5.6580	0	33.5850	0	26.478	0	172.460	0	-1e10	8	-1e10	8	-1E+10	1	-1E+10	1	-1E+10	1	-1E+10	1	-1E+10	1	-1E+10	1
4902554	64	C	11/13/2022	05:06	-133.775	48.440	0	175.20	0	5.6450	0	33.6230	0	26.510	0	173.649	0	-1e10	8	-1e10	8	-1E+10	1	-1E+10	1	-1E+10	1	-1E+10	1	-1E+10	1	-1E+10	1
4902554	64	C	11/13/2022	05:06	-133.775	48.440	0	175.90	0	5.6330	0	33.6280	0	26.515	0	174.343	0	-1e10	8	-1e10	8	-1E+10	1	-1E+10	1	-1E+10	1	-1E+10	1	-1E+10	1	-1E+10	1
4902554	64	C	11/13/2022	05:06	-133.775	48.440	0	177.00	0	5.6260	0	33.6300	0	26.518	0	175.432	0	-1e10	8	-1e10	8	-1E+10	1	-1E+10	1	-1E+10	1	-1E+10	1	-1E+10	1	-1E+10	1
4902554	64	C	11/13/2022	05:06	-133.775	48.440	0	178.20	0	5.6150	0	33.6330	0	26.522	0	176.621	0	-1e10	8	-1e10	8	-1E+10	1	-1E+10	1	-1E+10	1	-1E+10	1	-1E+10	1	-1E+10	1
4902554	64	C	11/13/2022	05:06	-133.775	48.440	0	178.90	0	5.5990	0	33.6390	0	26.528	0	177.315	0	-1e10	8	-1e10	8	-1E+10	1	-1E+10	1	-1E+10	1	-1E+10	1	-1E+10	1	-1E+10	1
4902554	64	C	11/13/2022	05:06	-133.775	48.440	0	180.00	0	5.5790	0	33.6460	0	26.536	0	178.405	0	-1e10	8	-1e10	8	-1E+10	1	-1E+10	1	-1E+10	1	-1E+10	1	-1E+10	1	-1E+10	1
4902554	64	C	11/13/2022	05:06	-133.775	48.440	0	181.20	0	5.5660	0	33.6490	0	26.540	0	179.593	0	-1e10	8	-1e10	8	-1E+10	1	-1E+10	1	-1E+10	1	-1E+10	1	-1E+10	1	-1E+10	1
4902554	64	C	11/13/2022	05:06	-133.775	48.440	0	182.00	0	5.5580	0	33.6490	0	26.541	0	180.386	0	-1e10	8	-1e10	8	-1E+10	1	-1E+10	1	-1E+10	1	-1E+10	1	-1E+10	1	-1E+10	1
4902554	64	C	11/13/2022	05:06	-133.775	48.440	0	182.70	0	5.5490	0	33.6520	0	26.545	0	181.079	0	-1e10	8	-1e10	8	-1E+10	1	-1E+10	1	-1E+10	1	-1E+10	1	-1E+10	1	-1E+10	1
4902554	64	C	11/13/2022	05:06	-133.775	48.440	0	183.90	0	5.5100	0	33.6640	0	26.559	0	182.268	0	-1e10	8	-1e10	8	-1E+10	1	-1E+10	1	-1E+10	1	-1E+10	1	-1E+10	1	-1E+10	1
4902554	64	C	11/13/2022	05:06	-133.775	48.440	0	185.20	0	5.4810	0	33.6760	0	26.572	0	183.556	0	-1e10	8	-1e10	8	-1E+10	1	-1E+10	1	-1E+10	1	-1E+10	1	-1E+10	1	-1E+10	1
4902554	64	C	11/13/2022	05:06	-133.775	48.440	0	186.00	0	5.4550	0	33.6850	0	26.582	0	184.349	0	-1e10	8	-1e10	8	-1E+10	1	-1E+10	1	-1E+10	1	-1E+10	1	-1E+10	1	-1E+10	1
4902554	64	C	11/13/2022	05:06	-133.775	48.440	0	186.90	0	5.4370	0	33.6900	0	26.588	0	185.240	0	-1e10	8	-1e10	8	-1E+10	1	-1E+10	1	-1E+10	1	-1E+10	1	-1E+10	1	-1E+10	1
4902554	64	C	11/13/2022	05:06	-133.775	48.440	0	187.70	0	5.4170	0	33.6940	0	26.593	0	186.033	0	-1e10	8	-1e10	8	-1E+10	1	-1E+10	1	-1E+10	1	-1E+10	1	-1E+10	1	-1E+10	1
4902554	64	C	11/13/2022	05:06	-133.775	48.440	0	189.00	0	5.4130	0	33.6940	0	26.594	0	187.321	0	-1e10	8	-1e10	8	-1E+10	1	-1E+10	1	-1E+10	1	-1E+10	1	-1E+10	1	-1E+10	1
4902554	64	C	11/13/2022	05:06	-133.775	48.440	0	190.20	0	5.4100	0	33.6950	0	26.595	0	188.509	0	-1e10	8	-1e10	8	-1E+10	1	-1E+10	1	-1E+10	1	-1E+10	1	-1E+10	1	-1E+10	1
4902554	64	C	11/13/2022	05:06	-133.775	48.440	0	191.10	0	5.4100	0	33.6950	0	26.595	0	189.401	0	-1e10	8	-1e10	8	-1E+10	1	-1E+10	1	-1E+10	1	-1E+10	1	-1E+10	1	-1E+10	1
4902554	64	C	11/13/2022	05:06	-133.775	48.440	0	192.00	0	5.4090	0	33.6950	0	26.595	0	190.293	0	-1e10	8	-1e10	8	-1E+10	1	-1E+10	1	-1E+10	1	-1E+10	1	-1E+10	1	-1E+10	1
4902554	64	C	11/13/2022	05:06	-133.775	48.440	0	192.80	0	5.4090	0	33.6950	0	26.595	0	191.085	0	-1e10	8	-1e10	8	-1E+10	1	-1E+10	1	-1E+10	1	-1E+10	1	-1E+10	1	-1E+10	1
4902554	64	C	11/13/2022	05:06	-133.775	48.440	0	193.70	0	5.4030	0	33.6980	0	26.598	0	191.977	0	-1e10	8	-1e10	8	-1E+10	1	-1E+10	1	-1E+10	1	-1E+10	1	-1E+10	1	-1E+10	1
4902554	64	C	11/13/2022	05:06	-133.775	48.440	0	194.60	0	5.3900	0	33.7030	0	26.604	0	192.868	0	-1e10	8	-1e10	8	-1E+10	1	-1E+10	1	-1E+10	1	-1E+10	1	-1E+10	1	-1E+10	1
4902554	64	C	11/13/2022	05:06	-133.775	48.440	0	195.90	0	5.3640	0	33.7060	0	26.609	0	194.156	0	-1e10	8	-1e10	8	-1E+10	1	-1E+10	1	-1E+10	1	-1E+10	1	-1E+10	1	-1E+10	1
4902554	64	C	11/13/2022	05:06	-133.775	48.440	0	197.20	0	5.3570	0	33.7060	0	26.610	0	195.444	0	-1e10	8	-1e10	8	-1E+10	1	-1E+10	1	-1E+10	1	-1E+10	1	-1E+10	1	-1E+10	1
4902554	64	C	11/13/2022	05:06	-133.775	48.440	0	198.10	0	5.3470	0	33.7070	0	26.612	0	196.336	0	-1e10	8	-1e10	8	-1E+10	1	-1E+10	1	-1E+10	1	-1E+10	1	-1E+10	1	-1E+10	1
4902554	64	C	11/13/2022	05:06	-133.775	48.440	0	199.00	0	5.3370	0	33.7090	0	26.615	0	197.227	0	-1e10	8	-1e10	8	-1E+10	1	-1E+10	1	-1E+10	1	-1E+10	1	-1E+10	1	-1E+10	1
4902554	64	C	11/13/2022	05:06	-133.775	48.440	0	199.90	0	5.3370	0	33.7090	0	26.615	0	198.119	0	-1e10	8	-1e10	8	-1E+10	1	-1E+10	1	-1E+10	1	-1E+10	1	-1E+10	1	-1E+10	1
4902554	64	C	11/13/2022	05:06	-133.775	48.440	0	200.70	0	5.3340	0	33.7090	0	26.615	0	198.911	0	-1e10	8	-1e10	8	-1E+10	1	-1E+10	1	-1E+10	1	-1E+10	1	-1E+10	1	-1E+10	1
4902554	64	C	11/13/2022	05:06	-133.775	48.440	0	201.60	0	5.3190	0	33.7110	0	26.619	0	199.803	0	-1e10	8	-1e10	8	-1E+10	1	-1E+10	1	-1E+10	1	-1E+10	1	-1E+10	1	-1E+10	1
4902554	64	C	11/13/2022	05:06	-133.775	48.440	0	202.90	0	5.3020	0	33.7130	0	26.622	0	201.090	0	-1e10	8	-1e10	8	-1E+10	1	-1E+10	1	-1E+10	1	-1E+10	1	-1E+10	1	-1E+10	1
4902554	64	C	11/13/2022	05:06	-133.775	48.440	0	204.20	0	5.2850	0	33.7160	0	26.627	0	202.378	0	-1e10	8	-1e10	8	-1E+10	1	-1E+10	1	-1E+10	1	-1E+10	1	-1E+10	1	-1E+10	1
4902554	64	C	11/13/2022	05:06	-133.775	48.440	0	205.10	0	5.2780	0	33.7160	0	26.627	0	203.270	0	-1e10	8	-1e10	8	-1E+10	1	-1E+10	1	-1E+10	1	-1E+10	1	-1E+10	1	-1E+10	1
4902554	64	C	11/13/2022	05:06	-133.775	48.440	0	206.00	0	5.2590	0	33.7180	0	26.631	0	204.161	0	-1e10	8	-1e10	8	-1E+10	1	-1E+10	1	-1E+10	1	-1E+10	1	-1E+10	1	-1E+10	1
4902554	64	C	11/13/2022	05:06	-133.775	48.440	0	206.90	0	5.2450	0	33.7200	0	26.634	0	205.053	0	-1e10	8	-1e10	8	-1E+10	1	-1E+10	1	-1E+10	1	-1E+10	1	-1E+10	1	-1E+10	1
4902554	64	C	11/13/2022	05:06	-133.775	48.440	0	207.80	0	5.2280	0	33.7190	0	26.636	0	205.944	0	-1e10	8	-1e10	8	-1E+10	1	-1E+10	1	-1E+10	1	-1E+10	1	-1E+10	1	-1E+10	1
4902554	64	C	11/13/2022	05:06	-133.775	48.440	0	208.70	0	5.2220	0	33.7230	0	26.639	0	206.836	0	-1e10	8	-1e10	8	-1E+10	1	-1E+10	1	-1E+10	1	-1E+10	1	-1E+10	1	-1E+10	1
4902554	64	C	11/13/2022	05:06	-133.775	48.440	0	209.60	0	5.2070	0	33.7270	0	26.644	0	207.727	0	-1e10	8	-1e10	8	-1E+10	1	-1E+10	1	-1E+10	1	-1E+10	1	-1E+10	1	-1E+10	1
4902554	64	C	11/13/2022	05:06	-133.775	48.440	0	210.90	0	5.2040	0	33.7260	0	26.644	0	209.015	0	-1e10	8	-1e10	8	-1E+10	1	-1E+10	1	-1E+10	1	-1E+10	1	-1E+10	1	-1E+10	1
4902554	64	C	11/13/2022	05:06	-133.775	48.440	0	212.40	0	5.1990	0	33.7270	0	26.645	0	210.501	0	-1e10	8	-1e10	8	-1E+10	1	-1E+10	1	-1E+10	1	-1E+10	1	-1E+10	1	-1E+10	1
4902554	64	C	11/13/2022	05:06	-133.775	48.440	0	213.30	0	5.2010	0	33.7280	0	26.646	0	211.392	0	-1e10	8	-1e10	8	-1E+10	1	-1E+10	1	-1E+10	1	-1E+10	1	-1E+10	1	-1E+10	1
4902554	64	C	11/13/2022	05:06	-133.775	48.440	0	214.20	0	5.1900	0	33.7320	0	26.650	0	212.284	0	-1e10	8	-1e10	8	-1E+10	1	-1E+10	1	-1E+10	1	-1E+10	1	-1E+10	1	-1E+10	1
4902554	64	C	11/13/2022	05:06	-133.775	48.440	0	215.10	0	5.1730	0	33.7360	0	26.655	0	213.175	0	-1e10	8	-1e10	8	-1E+10	1	-1E+10	1	-1E+10	1	-1E+10	1	-1E+10	1	-1E+10	1
4902554	64	C	11/13/2022	05:06	-133.775	48.440	0	216.00	0	5.1330	0	33.7370	0	26.661	0	214.067	0	-1e10	8	-1e10	8	-1E+10	1	-1E+10	1	-1E+10	1	-1E+10	1	-1E+10	1	-1E+10	1
4902554	64	C	11/13/2022	05:06	-133.775	48.440	0	217.00	0	5.1350	0	33.7380	0	26.661	0	215.057	0	-1e10	8	-1e10	8	-1E+10	1	-1E+10	1	-1E+10	1	-1E+10	1	-1E+10	1	-1E+10	1
4902554	64	C	11/13/2022	05:06	-133.775	48.440	0	217.90	0	5.1270	0	33.7390	0	26.663	0	215.949	0	-1e10	8	-1e10	8	-1E+10	1	-1E+10	1	-1E+10	1	-1E+10	1	-1E+10	1	-1E+10	1
4902554	64	C	11/13/2022	05:06	-133.775	48.440	0	218.80	0	5.1250	0	33.7400	0	26.664	0	216.840	0	-1e10	8	-1e10	8	-1E+10	1	-1E+10	1	-1E+10	1	-1E+10	1	-1E+10	1	-1E+10	1
4902554	64	C	11/13/2022	05:06	-133.775	48.440	0	219.70	0	5.1140	0	33.7400	0	26.665	0	217.732	0	-1e10	8	-1e10	8	-1E+10	1	-1E+10	1	-1E+10	1	-1E+10	1	-1E+10	1	-1E+10	1
4902554	64	C	11/13/2022	05:06	-133.775	48.440	0	220.60	0	5.0990	0	33.7420	0	26.669	0	218.623	0	-1e10	8	-1e10	8	-1E+10	1	-1E+10	1	-1E+10	1	-1E+10	1	-1E+10	1	-1E+10	1
4902554	64	C	11/13/2022	05:06	-133.775	48.440	0	221.50	0	5.0950	0	33.7410	0	26.668	0	219.515	0	-1e10	8	-1e10	8	-1E+10	1	-1E+10	1	-1E+10	1	-1E+10	1	-1E+10	1	-1E+10	1
4902554	64	C	11/13/2022	05:06	-133.775	48.440	0	222.90	0	5.0940	0	33.7410	0	26.669	0	220.901	0	-1e10	8	-1e10	8	-1E+10	1	-1E+10	1	-1E+10	1	-1E+10	1	-1E+10	1	-1E+10	1
4902554	64	C	11/13/2022	05:06	-133.775	48.440	0	224.30	0	5.1000	0	33.7460	0	26.672	0	222.288	0	-1e10	8	-1e10	8	-1E+10	1	-1E+10	1	-1E+10	1	-1E+10	1	-1E+10	1	-1E+10	1
4902554	64	C	11/13/2022	05:06	-133.775	48.440	0	225.20	0	5.0720	0	33.7470	0	26.676	0	223.180	0	-1e10	8	-1e10	8	-1E+10	1	-1E+10	1	-1E+10	1	-1E+10	1	-1E+10	1	-1E+10	1
4902554	64	C	11/13/2022	05:06	-133.775	48.440	0	226.20	0	5.0400	0	33.7520	0	26.683	0	224.170	0	-1e10	8	-1e10	8	-1E+10	1	-1E+10	1	-1E+10	1	-1E+10	1	-1E+10	1	-1E+10	1
4902554	64	C	11/13/2022	05:06	-133.775	48.440	0	227.20	0	5.0350	0	33.7530	0	26.685	0	225.160	0	-1e10	8	-1e10	8	-1E+10	1	-1E+10	1	-1E+10	1	-1E+10	1	-1E+10	1	-1E+10	1
4902554	64	C	11/13/2022	05:06	-133.775	48.440	0	228.10	0	5.0300	0	33.7530	0	26.685	0	226.052	0	-1e10	8	-1e10	8	-1E+10	1	-1E+10	1	-1E+10	1	-1E+10	1	-1E+10	1	-1E+10	1
4902554	64	C	11/13/2022	05:06	-133.775	48.440	0	229.10	0	5.0250	0	33.7530	0	26.686	0	227.042	0	-1e10	8	-1e10	8	-1E+10	1	-1E+10	1	-1E+10	1	-1E+10	1	-1E+10	1	-1E+10	1
4902554	64	C	11/13/2022	05:06	-133.775	48.440	0	230.00	0	5.0220	0	33.7530	0	26.686	0	227.934	0	-1e10	8	-1e10	8	-1E+10	1	-1E+10	1	-1E+10	1	-1E+10	1	-1E+10	1	-1E+10	1
4902554	64	C	11/13/2022	05:06	-133.775	48.440	0	231.00	0	5.0160	0	33.7530	0	26.687	0	228.924	0	-1e10	8	-1e10	8	-1E+10	1	-1E+10	1	-1E+10	1	-1E+10	1	-1E+10	1	-1E+10	1
4902554	64	C	11/13/2022	05:06	-133.775	48.440	0	232.00	0	5.0110	0	33.7530	0	26.688	0	229.915	0	-1e10	8	-1e10	8	-1E+10	1	-1E+10	1	-1E+10	1	-1E+10	1	-1E+10	1	-1E+10	1
4902554	64	C	11/13/2022	05:06	-133.775	48.440	0	232.90	0	5.0070	0	33.7520	0	26.687	0	230.806	0	-1e10	8	-1e10	8	-1E+10	1	-1E+10	1	-1E+10	1	-1E+10	1	-1E+10	1	-1E+10	1
4902554	64	C	11/13/2022	05:06	-133.775	48.440	0	233.90	0	5.0040	0	33.7510	0	26.687	0	231.797	0	-1e10	8	-1e10	8	-1E+10	1	-1E+10	1	-1E+10	1	-1E+10	1	-1E+10	1	-1E+10	1
4902554	64	C	11/13/2022	05:06	-133.775	48.440	0	234.80	0	4.9540	0	33.7590	0	26.699	0	232.688	0	-1e10	8	-1e10	8	-1E+10	1	-1E+10	1	-1E+10	1	-1E+10	1	-1E+10	1	-1E+10	1
4902554	64	C	11/13/2022	05:06	-133.775	48.440	0	235.80	0	4.9420	0	33.7610	0	26.702	0	233.678	0	-1e10	8	-1e10	8	-1E+10	1	-1E+10	1	-1E+10	1	-1E+10	1	-1E+10	1	-1E+10	1
4902554	64	C	11/13/2022	05:06	-133.775	48.440	0	236.80	0	4.9370	0	33.7620	0	26.703	0	234.669	0	-1e10	8	-1e10	8	-1E+10	1	-1E+10	1	-1E+10	1	-1E+10	1	-1E+10	1	-1E+10	1
4902554	64	C	11/13/2022	05:06	-133.775	48.440	0	237.80	0	4.9130	0	33.7640	0	26.707	0	235.659	0	-1e10	8	-1e10	8	-1E+10	1	-1E+10	1	-1E+10	1	-1E+10	1	-1E+10	1	-1E+10	1
4902554	64	C	11/13/2022	05:06	-133.775	48.440	0	238.70	0	4.8930	0	33.7650	0	26.710	0	236.551	0	-1e10	8	-1e10	8	-1E+10	1	-1E+10	1	-1E+10	1	-1E+10	1	-1E+10	1	-1E+10	1
4902554	64	C	11/13/2022	05:06	-133.775	48.440	0	239.70	0	4.9090	0	33.7700	0	26.713	0	237.541	0	-1e10	8	-1e10	8	-1E+10	1	-1E+10	1	-1E+10	1	-1E+10	1	-1E+10	1	-1E+10	1
4902554	64	C	11/13/2022	05:06	-133.775	48.440	0	240.70	0	4.9040	0	33.7720	0	26.715	0	238.532	0	-1e10	8	-1e10	8	-1E+10	1	-1E+10	1	-1E+10	1	-1E+10	1	-1E+10	1	-1E+10	1
4902554	64	C	11/13/2022	05:06	-133.775	48.440	0	241.70	0	4.8940	0	33.7730	0	26.717	0	239.522	0	-1e10	8	-1e10	8	-1E+10	1	-1E+10	1	-1E+10	1	-1E+10	1	-1E+10	1	-1E+10	1
4902554	64	C	11/13/2022	05:06	-133.775	48.440	0	242.70	0	4.8940	0	33.7710	0	26.715	0	240.512	0	-1e10	8	-1e10	8	-1E+10	1	-1E+10	1	-1E+10	1	-1E+10	1	-1E+10	1	-1E+10	1
4902554	64	C	11/13/2022	05:06	-133.775	48.440	0	243.70	0	4.8740	0	33.7800	0	26.724	0	241.503	0	-1e10	8	-1e10	8	-1E+10	1	-1E+10	1	-1E+10	1	-1E+10	1	-1E+10	1	-1E+10	1
4902554	64	C	11/13/2022	05:06	-133.775	48.440	0	244.70	0	4.8660	0	33.7750	0	26.721	0	242.493	0	-1e10	8	-1e10	8	-1E+10	1	-1E+10	1	-1E+10	1	-1E+10	1	-1E+10	1	-1E+10	1
4902554	64	C	11/13/2022	05:06	-133.775	48.440	0	245.70	0	4.8720	0	33.7770	0	26.722	0	243.484	0	-1e10	8	-1e10	8	-1E+10	1	-1E+10	1	-1E+10	1	-1E+10	1	-1E+10	1	-1E+10	1
4902554	64	C	11/13/2022	05:06	-133.775	48.440	0	246.70	0	4.8740	0	33.7810	0	26.725	0	244.474	0	-1e10	8	-1e10	8	-1E+10	1	-1E+10	1	-1E+10	1	-1E+10	1	-1E+10	1	-1E+10	1
4902554	64	C	11/13/2022	05:06	-133.775	48.440	0	247.70	0	4.8610	0	33.7760	0	26.723	0	245.464	0	-1e10	8	-1e10	8	-1E+10	1	-1E+10	1	-1E+10	1	-1E+10	1	-1E+10	1	-1E+10	1
4902554	64	C	11/13/2022	05:06	-133.775	48.440	0	248.70	0	4.8590	0	33.7800	0	26.726	0	246.455	0	-1e10	8	-1e10	8	-1E+10	1	-1E+10	1	-1E+10	1	-1E+10	1	-1E+10	1	-1E+10	1
4902554	64	C	11/13/2022	05:06	-133.775	48.440	0	249.70	0	4.8590	0	33.7810	0	26.727	0	247.445	0	-1e10	8	-1e10	8	-1E+10	1	-1E+10	1	-1E+10	1	-1E+10	1	-1E+10	1	-1E+10	1
4902554	64	C	11/13/2022	05:06	-133.775	48.440	0	250.70	0	4.8580	0	33.7820	0	26.728	0	248.435	0	-1e10	8	-1e10	8	-1E+10	1	-1E+10	1	-1E+10	1	-1E+10	1	-1E+10	1	-1E+10	1
4902554	64	C	11/13/2022	05:06	-133.775	48.440	0	251.70	0	4.8570	0	33.7820	0	26.728	0	249.426	0	-1e10	8	-1e10	8	-1E+10	1	-1E+10	1	-1E+10	1	-1E+10	1	-1E+10	1	-1E+10	1
4902554	64	C	11/13/2022	05:06	-133.775	48.440	0	252.70	0	4.8550	0	33.7830	0	26.729	0	250.416	0	-1e10	8	-1e10	8	-1E+10	1	-1E+10	1	-1E+10	1	-1E+10	1	-1E+10	1	-1E+10	1
4902554	64	C	11/13/2022	05:06	-133.775	48.440	0	253.70	0	4.8510	0	33.7830	0	26.729	0	251.406	0	-1e10	8	-1e10	8	-1E+10	1	-1E+10	1	-1E+10	1	-1E+10	1	-1E+10	1	-1E+10	1
4902554	64	C	11/13/2022	05:06	-133.775	48.440	0	254.80	0	4.8270	0	33.7860	0	26.735	0	252.496	0	-1e10	8	-1e10	8	-1E+10	1	-1E+10	1	-1E+10	1	-1E+10	1	-1E+10	1	-1E+10	1
4902554	64	C	11/13/2022	05:06	-133.775	48.440	0	255.80	0	4.7870	0	33.7790	0	26.733	0	253.486	0	-1e10	8	-1e10	8	-1E+10	1	-1E+10	1	-1E+10	1	-1E+10	1	-1E+10	1	-1E+10	1
4902554	64	C	11/13/2022	05:06	-133.775	48.440	0	256.80	0	4.7560	0	33.7780	0	26.736	0	254.477	0	-1e10	8	-1e10	8	-1E+10	1	-1E+10	1	-1E+10	1	-1E+10	1	-1E+10	1	-1E+10	1
4902554	64	C	11/13/2022	05:06	-133.775	48.440	0	257.90	0	4.7450	0	33.7730	0	26.733	0	255.566	0	-1e10	8	-1e10	8	-1E+10	1	-1E+10	1	-1E+10	1	-1E+10	1	-1E+10	1	-1E+10	1
4902554	64	C	11/13/2022	05:06	-133.775	48.440	0	258.90	0	4.7390	0	33.7760	0	26.736	0	256.556	0	-1e10	8	-1e10	8	-1E+10	1	-1E+10	1	-1E+10	1	-1E+10	1	-1E+10	1	-1E+10	1
4902554	64	C	11/13/2022	05:06	-133.775	48.440	0	259.90	0	4.7330	0	33.7780	0	26.739	0	257.547	0	-1e10	8	-1e10	8	-1E+10	1	-1E+10	1	-1E+10	1	-1E+10	1	-1E+10	1	-1E+10	1
4902554	64	C	11/13/2022	05:06	-133.775	48.440	0	261.00	0	4.7290	0	33.7780	0	26.739	0	258.636	0	-1e10	8	-1e10	8	-1E+10	1	-1E+10	1	-1E+10	1	-1E+10	1	-1E+10	1	-1E+10	1
4902554	64	C	11/13/2022	05:06	-133.775	48.440	0	262.00	0	4.7220	0	33.7800	0	26.741	0	259.626	0	-1e10	8	-1e10	8	-1E+10	1	-1E+10	1	-1E+10	1	-1E+10	1	-1E+10	1	-1E+10	1
4902554	64	C	11/13/2022	05:06	-133.775	48.440	0	263.10	0	4.7120	0	33.7810	0	26.743	0	260.716	0	-1e10	8	-1e10	8	-1E+10	1	-1E+10	1	-1E+10	1	-1E+10	1	-1E+10	1	-1E+10	1
4902554	64	C	11/13/2022	05:06	-133.775	48.440	0	264.20	0	4.7120	0	33.7860	0	26.747	0	261.805	0	-1e10	8	-1e10	8	-1E+10	1	-1E+10	1	-1E+10	1	-1E+10	1	-1E+10	1	-1E+10	1
4902554	64	C	11/13/2022	05:06	-133.775	48.440	0	265.30	0	4.7140	0	33.7860	0	26.747	0	262.894	0	-1e10	8	-1e10	8	-1E+10	1	-1E+10	1	-1E+10	1	-1E+10	1	-1E+10	1	-1E+10	1
4902554	64	C	11/13/2022	05:06	-133.775	48.440	0	266.30	0	4.7360	0	33.7840	0	26.743	0	263.885	0	-1e10	8	-1e10	8	-1E+10	1	-1E+10	1	-1E+10	1	-1E+10	1	-1E+10	1	-1E+10	1
4902554	64	C	11/13/2022	05:06	-133.775	48.440	0	267.40	0	4.7460	0	33.7930	0	26.749	0	264.974	0	-1e10	8	-1e10	8	-1E+10	1	-1E+10	1	-1E+10	1	-1E+10	1	-1E+10	1	-1E+10	1
4902554	64	C	11/13/2022	05:06	-133.775	48.440	0	268.50	0	4.7530	0	33.7970	0	26.752	0	266.063	0	-1e10	8	-1e10	8	-1E+10	1	-1E+10	1	-1E+10	1	-1E+10	1	-1E+10	1	-1E+10	1
4902554	64	C	11/13/2022	05:06	-133.775	48.440	0	269.60	0	4.7380	0	33.7930	0	26.750	0	267.153	0	-1e10	8	-1e10	8	-1E+10	1	-1E+10	1	-1E+10	1	-1E+10	1	-1E+10	1	-1E+10	1
4902554	64	C	11/13/2022	05:06	-133.775	48.440	0	270.70	0	4.7230	0	33.7940	0	26.753	0	268.242	0	-1e10	8	-1e10	8	-1E+10	1	-1E+10	1	-1E+10	1	-1E+10	1	-1E+10	1	-1E+10	1
4902554	64	C	11/13/2022	05:06	-133.775	48.440	0	271.70	0	4.7250	0	33.7940	0	26.752	0	269.232	0	-1e10	8	-1e10	8	-1E+10	1	-1E+10	1	-1E+10	1	-1E+10	1	-1E+10	1	-1E+10	1
4902554	64	C	11/13/2022	05:06	-133.775	48.440	0	272.80	0	4.7160	0	33.7940	0	26.753	0	270.321	0	-1e10	8	-1e10	8	-1E+10	1	-1E+10	1	-1E+10	1	-1E+10	1	-1E+10	1	-1E+10	1
4902554	64	C	11/13/2022	05:06	-133.775	48.440	0	273.90	0	4.7040	0	33.7930	0	26.754	0	271.411	0	-1e10	8	-1e10	8	-1E+10	1	-1E+10	1	-1E+10	1	-1E+10	1	-1E+10	1	-1E+10	1
4902554	64	C	11/13/2022	05:06	-133.775	48.440	0	275.00	0	4.7450	0	33.8030	0	26.757	0	272.500	0	-1e10	8	-1e10	8	-1E+10	1	-1E+10	1	-1E+10	1	-1E+10	1	-1E+10	1	-1E+10	1
4902554	64	C	11/13/2022	05:06	-133.775	48.440	0	276.10	0	4.7420	0	33.8050	0	26.759	0	273.589	0	-1e10	8	-1e10	8	-1E+10	1	-1E+10	1	-1E+10	1	-1E+10	1	-1E+10	1	-1E+10	1
4902554	64	C	11/13/2022	05:06	-133.775	48.440	0	277.10	0	4.7340	0	33.8070	0	26.762	0	274.579	0	-1e10	8	-1e10	8	-1E+10	1	-1E+10	1	-1E+10	1	-1E+10	1	-1E+10	1	-1E+10	1
4902554	64	C	11/13/2022	05:06	-133.775	48.440	0	278.20	0	4.7160	0	33.8090	0	26.765	0	275.669	0	-1e10	8	-1e10	8	-1E+10	1	-1E+10	1	-1E+10	1	-1E+10	1	-1E+10	1	-1E+10	1
4902554	64	C	11/13/2022	05:06	-133.775	48.440	0	279.30	0	4.7120	0	33.8080	0	26.765	0	276.758	0	-1e10	8	-1e10	8	-1E+10	1	-1E+10	1	-1E+10	1	-1E+10	1	-1E+10	1	-1E+10	1
4902554	64	C	11/13/2022	05:06	-133.775	48.440	0	280.40	0	4.7060	0	33.8080	0	26.766	0	277.847	0	-1e10	8	-1e10	8	-1E+10	1	-1E+10	1	-1E+10	1	-1E+10	1	-1E+10	1	-1E+10	1
4902554	64	C	11/13/2022	05:06	-133.775	48.440	0	281.50	0	4.7040	0	33.8090	0	26.767	0	278.936	0	-1e10	8	-1e10	8	-1E+10	1	-1E+10	1	-1E+10	1	-1E+10	1	-1E+10	1	-1E+10	1
4902554	64	C	11/13/2022	05:06	-133.775	48.440	0	282.60	0	4.7020	0	33.8090	0	26.767	0	280.026	0	-1e10	8	-1e10	8	-1E+10	1	-1E+10	1	-1E+10	1	-1E+10	1	-1E+10	1	-1E+10	1
4902554	64	C	11/13/2022	05:06	-133.775	48.440	0	283.70	0	4.7010	0	33.8090	0	26.767	0	281.115	0	-1e10	8	-1e10	8	-1E+10	1	-1E+10	1	-1E+10	1	-1E+10	1	-1E+10	1	-1E+10	1
4902554	64	C	11/13/2022	05:06	-133.775	48.440	0	284.70	0	4.6960	0	33.8080	0	26.767	0	282.105	0	-1e10	8	-1e10	8	-1E+10	1	-1E+10	1	-1E+10	1	-1E+10	1	-1E+10	1	-1E+10	1
4902554	64	C	11/13/2022	05:06	-133.775	48.440	0	285.80	0	4.6940	0	33.8080	0	26.767	0	283.194	0	-1e10	8	-1e10	8	-1E+10	1	-1E+10	1	-1E+10	1	-1E+10	1	-1E+10	1	-1E+10	1
4902554	64	C	11/13/2022	05:06	-133.775	48.440	0	286.90	0	4.6880	0	33.8100	0	26.769	0	284.284	0	-1e10	8	-1e10	8	-1E+10	1	-1E+10	1	-1E+10	1	-1E+10	1	-1E+10	1	-1E+10	1
4902554	64	C	11/13/2022	05:06	-133.775	48.440	0	288.00	0	4.6750	0	33.8080	0	26.769	0	285.373	0	-1e10	8	-1e10	8	-1E+10	1	-1E+10	1	-1E+10	1	-1E+10	1	-1E+10	1	-1E+10	1
4902554	64	C	11/13/2022	05:06	-133.775	48.440	0	289.10	0	4.6630	0	33.8110	0	26.773	0	286.462	0	-1e10	8	-1e10	8	-1E+10	1	-1E+10	1	-1E+10	1	-1E+10	1	-1E+10	1	-1E+10	1
4902554	64	C	11/13/2022	05:06	-133.775	48.440	0	290.10	0	4.6270	0	33.8070	0	26.773	0	287.452	0	-1e10	8	-1e10	8	-1E+10	1	-1E+10	1	-1E+10	1	-1E+10	1	-1E+10	1	-1E+10	1
4902554	64	C	11/13/2022	05:06	-133.775	48.440	0	291.20	0	4.6200	0	33.8060	0	26.773	0	288.541	0	-1e10	8	-1e10	8	-1E+10	1	-1E+10	1	-1E+10	1	-1E+10	1	-1E+10	1	-1E+10	1
4902554	64	C	11/13/2022	05:06	-133.775	48.440	0	292.30	0	4.6170	0	33.8060	0	26.774	0	289.631	0	-1e10	8	-1e10	8	-1E+10	1	-1E+10	1	-1E+10	1	-1E+10	1	-1E+10	1	-1E+10	1
4902554	64	C	11/13/2022	05:06	-133.775	48.440	0	293.30	0	4.6170	0	33.8070	0	26.775	0	290.621	0	-1e10	8	-1e10	8	-1E+10	1	-1E+10	1	-1E+10	1	-1E+10	1	-1E+10	1	-1E+10	1
4902554	64	C	11/13/2022	05:06	-133.775	48.440	0	294.40	0	4.6170	0	33.8070	0	26.775	0	291.710	0	-1e10	8	-1e10	8	-1E+10	1	-1E+10	1	-1E+10	1	-1E+10	1	-1E+10	1	-1E+10	1
4902554	64	C	11/13/2022	05:06	-133.775	48.440	0	295.40	0	4.6170	0	33.8070	0	26.775	0	292.700	0	-1e10	8	-1e10	8	-1E+10	1	-1E+10	1	-1E+10	1	-1E+10	1	-1E+10	1	-1E+10	1
4902554	64	C	11/13/2022	05:06	-133.775	48.440	0	296.50	0	4.6170	0	33.8080	0	26.775	0	293.789	0	-1e10	8	-1e10	8	-1E+10	1	-1E+10	1	-1E+10	1	-1E+10	1	-1E+10	1	-1E+10	1
4902554	64	C	11/13/2022	05:06	-133.775	48.440	0	297.60	0	4.6160	0	33.8080	0	26.776	0	294.878	0	-1e10	8	-1e10	8	-1E+10	1	-1E+10	1	-1E+10	1	-1E+10	1	-1E+10	1	-1E+10	1
4902554	64	C	11/13/2022	05:06	-133.775	48.440	0	298.60	0	4.6120	0	33.8090	0	26.777	0	295.869	0	-1e10	8	-1e10	8	-1E+10	1	-1E+10	1	-1E+10	1	-1E+10	1	-1E+10	1	-1E+10	1
4902554	64	C	11/13/2022	05:06	-133.775	48.440	0	299.70	0	4.6150	0	33.8120	0	26.779	0	296.958	0	-1e10	8	-1e10	8	-1E+10	1	-1E+10	1	-1E+10	1	-1E+10	1	-1E+10	1	-1E+10	1
4902554	64	C	11/13/2022	05:06	-133.775	48.440	0	300.80	0	4.6120	0	33.8140	0	26.781	0	298.047	0	-1e10	8	-1e10	8	-1E+10	1	-1E+10	1	-1E+10	1	-1E+10	1	-1E+10	1	-1E+10	1
4902554	64	C	11/13/2022	05:06	-133.775	48.440	0	301.80	0	4.6040	0	33.8140	0	26.782	0	299.037	0	-1e10	8	-1e10	8	-1E+10	1	-1E+10	1	-1E+10	1	-1E+10	1	-1E+10	1	-1E+10	1
4902554	64	C	11/13/2022	05:06	-133.775	48.440	0	302.90	0	4.5960	0	33.8170	0	26.785	0	300.126	0	-1e10	8	-1e10	8	-1E+10	1	-1E+10	1	-1E+10	1	-1E+10	1	-1E+10	1	-1E+10	1
4902554	64	C	11/13/2022	05:06	-133.775	48.440	0	304.00	0	4.5840	0	33.8180	0	26.787	0	301.215	0	-1e10	8	-1e10	8	-1E+10	1	-1E+10	1	-1E+10	1	-1E+10	1	-1E+10	1	-1E+10	1
4902554	64	C	11/13/2022	05:06	-133.775	48.440	0	305.00	0	4.5660	0	33.8190	0	26.790	0	302.205	0	-1e10	8	-1e10	8	-1E+10	1	-1E+10	1	-1E+10	1	-1E+10	1	-1E+10	1	-1E+10	1
4902554	64	C	11/13/2022	05:06	-133.775	48.440	0	306.10	0	4.5510	0	33.8180	0	26.791	0	303.294	0	-1e10	8	-1e10	8	-1E+10	1	-1E+10	1	-1E+10	1	-1E+10	1	-1E+10	1	-1E+10	1
4902554	64	C	11/13/2022	05:06	-133.775	48.440	0	307.10	0	4.5370	0	33.8190	0	26.793	0	304.285	0	-1e10	8	-1e10	8	-1E+10	1	-1E+10	1	-1E+10	1	-1E+10	1	-1E+10	1	-1E+10	1
4902554	64	C	11/13/2022	05:06	-133.775	48.440	0	308.20	0	4.5330	0	33.8190	0	26.793	0	305.374	0	-1e10	8	-1e10	8	-1E+10	1	-1E+10	1	-1E+10	1	-1E+10	1	-1E+10	1	-1E+10	1
4902554	64	C	11/13/2022	05:06	-133.775	48.440	0	309.30	0	4.5340	0	33.8210	0	26.795	0	306.463	0	-1e10	8	-1e10	8	-1E+10	1	-1E+10	1	-1E+10	1	-1E+10	1	-1E+10	1	-1E+10	1
4902554	64	C	11/13/2022	05:06	-133.775	48.440	0	310.30	0	4.5310	0	33.8210	0	26.795	0	307.453	0	-1e10	8	-1e10	8	-1E+10	1	-1E+10	1	-1E+10	1	-1E+10	1	-1E+10	1	-1E+10	1
4902554	64	C	11/13/2022	05:06	-133.775	48.440	0	311.40	0	4.5300	0	33.8230	0	26.797	0	308.542	0	-1e10	8	-1e10	8	-1E+10	1	-1E+10	1	-1E+10	1	-1E+10	1	-1E+10	1	-1E+10	1
4902554	64	C	11/13/2022	05:06	-133.775	48.440	0	312.40	0	4.5240	0	33.8250	0	26.799	0	309.532	0	-1e10	8	-1e10	8	-1E+10	1	-1E+10	1	-1E+10	1	-1E+10	1	-1E+10	1	-1E+10	1
4902554	64	C	11/13/2022	05:06	-133.775	48.440	0	313.40	0	4.5210	0	33.8260	0	26.800	0	310.522	0	-1e10	8	-1e10	8	-1E+10	1	-1E+10	1	-1E+10	1	-1E+10	1	-1E+10	1	-1E+10	1
4902554	64	C	11/13/2022	05:06	-133.775	48.440	0	314.50	0	4.5180	0	33.8260	0	26.801	0	311.611	0	-1e10	8	-1e10	8	-1E+10	1	-1E+10	1	-1E+10	1	-1E+10	1	-1E+10	1	-1E+10	1
4902554	64	C	11/13/2022	05:06	-133.775	48.440	0	315.60	0	4.5170	0	33.8260	0	26.801	0	312.700	0	-1e10	8	-1e10	8	-1E+10	1	-1E+10	1	-1E+10	1	-1E+10	1	-1E+10	1	-1E+10	1
4902554	64	C	11/13/2022	05:06	-133.775	48.440	0	316.60	0	4.5130	0	33.8270	0	26.802	0	313.690	0	-1e10	8	-1e10	8	-1E+10	1	-1E+10	1	-1E+10	1	-1E+10	1	-1E+10	1	-1E+10	1
4902554	64	C	11/13/2022	05:06	-133.775	48.440	0	317.70	0	4.5110	0	33.8280	0	26.803	0	314.779	0	-1e10	8	-1e10	8	-1E+10	1	-1E+10	1	-1E+10	1	-1E+10	1	-1E+10	1	-1E+10	1
4902554	64	C	11/13/2022	05:06	-133.775	48.440	0	318.70	0	4.5070	0	33.8290	0	26.804	0	315.769	0	-1e10	8	-1e10	8	-1E+10	1	-1E+10	1	-1E+10	1	-1E+10	1	-1E+10	1	-1E+10	1
4902554	64	C	11/13/2022	05:06	-133.775	48.440	0	319.80	0	4.4920	0	33.8300	0	26.807	0	316.858	0	-1e10	8	-1e10	8	-1E+10	1	-1E+10	1	-1E+10	1	-1E+10	1	-1E+10	1	-1E+10	1
4902554	64	C	11/13/2022	05:06	-133.775	48.440	0	320.80	0	4.4900	0	33.8310	0	26.808	0	317.848	0	-1e10	8	-1e10	8	-1E+10	1	-1E+10	1	-1E+10	1	-1E+10	1	-1E+10	1	-1E+10	1
4902554	64	C	11/13/2022	05:06	-133.775	48.440	0	321.90	0	4.4870	0	33.8320	0	26.809	0	318.937	0	-1e10	8	-1e10	8	-1E+10	1	-1E+10	1	-1E+10	1	-1E+10	1	-1E+10	1	-1E+10	1
4902554	64	C	11/13/2022	05:06	-133.775	48.440	0	322.90	0	4.4820	0	33.8360	0	26.812	0	319.927	0	-1e10	8	-1e10	8	-1E+10	1	-1E+10	1	-1E+10	1	-1E+10	1	-1E+10	1	-1E+10	1
4902554	64	C	11/13/2022	05:06	-133.775	48.440	0	324.00	0	4.4860	0	33.8400	0	26.815	0	321.016	0	-1e10	8	-1e10	8	-1E+10	1	-1E+10	1	-1E+10	1	-1E+10	1	-1E+10	1	-1E+10	1
4902554	64	C	11/13/2022	05:06	-133.775	48.440	0	325.00	0	4.4850	0	33.8410	0	26.816	0	322.006	0	-1e10	8	-1e10	8	-1E+10	1	-1E+10	1	-1E+10	1	-1E+10	1	-1E+10	1	-1E+10	1
4902554	64	C	11/13/2022	05:06	-133.775	48.440	0	326.10	0	4.4770	0	33.8440	0	26.819	0	323.096	0	-1e10	8	-1e10	8	-1E+10	1	-1E+10	1	-1E+10	1	-1E+10	1	-1E+10	1	-1E+10	1
4902554	64	C	11/13/2022	05:06	-133.775	48.440	0	327.10	0	4.4750	0	33.8450	0	26.820	0	324.086	0	-1e10	8	-1e10	8	-1E+10	1	-1E+10	1	-1E+10	1	-1E+10	1	-1E+10	1	-1E+10	1
4902554	64	C	11/13/2022	05:06	-133.775	48.440	0	328.20	0	4.4740	0	33.8450	0	26.820	0	325.175	0	-1e10	8	-1e10	8	-1E+10	1	-1E+10	1	-1E+10	1	-1E+10	1	-1E+10	1	-1E+10	1
4902554	64	C	11/13/2022	05:06	-133.775	48.440	0	329.20	0	4.4730	0	33.8460	0	26.821	0	326.165	0	-1e10	8	-1e10	8	-1E+10	1	-1E+10	1	-1E+10	1	-1E+10	1	-1E+10	1	-1E+10	1
4902554	64	C	11/13/2022	05:06	-133.775	48.440	0	330.30	0	4.4680	0	33.8470	0	26.823	0	327.253	0	-1e10	8	-1e10	8	-1E+10	1	-1E+10	1	-1E+10	1	-1E+10	1	-1E+10	1	-1E+10	1
4902554	64	C	11/13/2022	05:06	-133.775	48.440	0	331.40	0	4.4670	0	33.8470	0	26.823	0	328.342	0	-1e10	8	-1e10	8	-1E+10	1	-1E+10	1	-1E+10	1	-1E+10	1	-1E+10	1	-1E+10	1
4902554	64	C	11/13/2022	05:06	-133.775	48.440	0	332.40	0	4.4640	0	33.8480	0	26.824	0	329.332	0	-1e10	8	-1e10	8	-1E+10	1	-1E+10	1	-1E+10	1	-1E+10	1	-1E+10	1	-1E+10	1
4902554	64	C	11/13/2022	05:06	-133.775	48.440	0	333.50	0	4.4610	0	33.8490	0	26.825	0	330.421	0	-1e10	8	-1e10	8	-1E+10	1	-1E+10	1	-1E+10	1	-1E+10	1	-1E+10	1	-1E+10	1
4902554	64	C	11/13/2022	05:06	-133.775	48.440	0	334.50	0	4.4580	0	33.8500	0	26.826	0	331.411	0	-1e10	8	-1e10	8	-1E+10	1	-1E+10	1	-1E+10	1	-1E+10	1	-1E+10	1	-1E+10	1
4902554	64	C	11/13/2022	05:06	-133.775	48.440	0	335.50	0	4.4570	0	33.8490	0	26.826	0	332.401	0	-1e10	8	-1e10	8	-1E+10	1	-1E+10	1	-1E+10	1	-1E+10	1	-1E+10	1	-1E+10	1
4902554	64	C	11/13/2022	05:06	-133.775	48.440	0	336.90	0	4.4480	0	33.8520	0	26.829	0	333.787	0	-1e10	8	-1e10	8	-1E+10	1	-1E+10	1	-1E+10	1	-1E+10	1	-1E+10	1	-1E+10	1
4902554	64	C	11/13/2022	05:06	-133.775	48.440	0	338.10	0	4.4420	0	33.8550	0	26.832	0	334.975	0	-1e10	8	-1e10	8	-1E+10	1	-1E+10	1	-1E+10	1	-1E+10	1	-1E+10	1	-1E+10	1
4902554	64	C	11/13/2022	05:06	-133.775	48.440	0	338.90	0	4.4380	0	33.8560	0	26.833	0	335.767	0	-1e10	8	-1e10	8	-1E+10	1	-1E+10	1	-1E+10	1	-1E+10	1	-1E+10	1	-1E+10	1
4902554	64	C	11/13/2022	05:06	-133.775	48.440	0	339.70	0	4.4360	0	33.8570	0	26.834	0	336.559	0	-1e10	8	-1e10	8	-1E+10	1	-1E+10	1	-1E+10	1	-1E+10	1	-1E+10	1	-1E+10	1
4902554	64	C	11/13/2022	05:06	-133.775	48.440	0	340.90	0	4.4320	0	33.8570	0	26.835	0	337.747	0	-1e10	8	-1e10	8	-1E+10	1	-1E+10	1	-1E+10	1	-1E+10	1	-1E+10	1	-1E+10	1
4902554	64	C	11/13/2022	05:06	-133.775	48.440	0	342.10	0	4.4320	0	33.8580	0	26.835	0	338.935	0	-1e10	8	-1e10	8	-1E+10	1	-1E+10	1	-1E+10	1	-1E+10	1	-1E+10	1	-1E+10	1
4902554	64	C	11/13/2022	05:06	-133.775	48.440	0	342.90	0	4.4310	0	33.8580	0	26.835	0	339.727	0	-1e10	8	-1e10	8	-1E+10	1	-1E+10	1	-1E+10	1	-1E+10	1	-1E+10	1	-1E+10	1
4902554	64	C	11/13/2022	05:06	-133.775	48.440	0	343.70	0	4.4280	0	33.8600	0	26.837	0	340.519	0	-1e10	8	-1e10	8	-1E+10	1	-1E+10	1	-1E+10	1	-1E+10	1	-1E+10	1	-1E+10	1
4902554	64	C	11/13/2022	05:06	-133.775	48.440	0	344.90	0	4.4270	0	33.8590	0	26.837	0	341.707	0	-1e10	8	-1e10	8	-1E+10	1	-1E+10	1	-1E+10	1	-1E+10	1	-1E+10	1	-1E+10	1
4902554	64	C	11/13/2022	05:06	-133.775	48.440	0	346.10	0	4.4250	0	33.8600	0	26.838	0	342.895	0	-1e10	8	-1e10	8	-1E+10	1	-1E+10	1	-1E+10	1	-1E+10	1	-1E+10	1	-1E+10	1
4902554	64	C	11/13/2022	05:06	-133.775	48.440	0	347.00	0	4.4210	0	33.8620	0	26.840	0	343.786	0	-1e10	8	-1e10	8	-1E+10	1	-1E+10	1	-1E+10	1	-1E+10	1	-1E+10	1	-1E+10	1
4902554	64	C	11/13/2022	05:06	-133.775	48.440	0	347.80	0	4.4090	0	33.8670	0	26.845	0	344.578	0	-1e10	8	-1e10	8	-1E+10	1	-1E+10	1	-1E+10	1	-1E+10	1	-1E+10	1	-1E+10	1
4902554	64	C	11/13/2022	05:06	-133.775	48.440	0	349.00	0	4.4020	0	33.8700	0	26.848	0	345.765	0	-1e10	8	-1e10	8	-1E+10	1	-1E+10	1	-1E+10	1	-1E+10	1	-1E+10	1	-1E+10	1
4902554	64	C	11/13/2022	05:06	-133.775	48.440	0	350.30	0	4.3990	0	33.8730	0	26.851	0	347.052	0	-1e10	8	-1e10	8	-1E+10	1	-1E+10	1	-1E+10	1	-1E+10	1	-1E+10	1	-1E+10	1
4902554	64	C	11/13/2022	05:06	-133.775	48.440	0	353.10	0	4.3980	0	33.8780	0	26.855	0	349.824	0	-1e10	8	-1e10	8	-1E+10	1	-1E+10	1	-1E+10	1	-1E+10	1	-1E+10	1	-1E+10	1
4902554	64	C	11/13/2022	05:06	-133.775	48.440	0	358.10	0	4.3840	0	33.8870	0	26.864	0	354.773	0	-1e10	8	-1e10	8	-1E+10	1	-1E+10	1	-1E+10	1	-1E+10	1	-1E+10	1	-1E+10	1
4902554	64	C	11/13/2022	05:06	-133.775	48.440	0	363.10	0	4.3760	0	33.8910	0	26.868	0	359.723	0	-1e10	8	-1e10	8	-1E+10	1	-1E+10	1	-1E+10	1	-1E+10	1	-1E+10	1	-1E+10	1
4902554	64	C	11/13/2022	05:06	-133.775	48.440	0	367.80	0	4.3710	0	33.8920	0	26.869	0	364.375	0	-1e10	8	-1e10	8	-1E+10	1	-1E+10	1	-1E+10	1	-1E+10	1	-1E+10	1	-1E+10	1
4902554	64	C	11/13/2022	05:06	-133.775	48.440	0	372.60	0	4.3630	0	33.8950	0	26.872	0	369.126	0	-1e10	8	-1e10	8	-1E+10	1	-1E+10	1	-1E+10	1	-1E+10	1	-1E+10	1	-1E+10	1
4902554	64	C	11/13/2022	05:06	-133.775	48.440	0	377.80	0	4.3550	0	33.8970	0	26.875	0	374.273	0	-1e10	8	-1e10	8	-1E+10	1	-1E+10	1	-1E+10	1	-1E+10	1	-1E+10	1	-1E+10	1
4902554	64	C	11/13/2022	05:06	-133.775	48.440	0	383.10	0	4.3470	0	33.9010	0	26.879	0	379.518	0	-1e10	8	-1e10	8	-1E+10	1	-1E+10	1	-1E+10	1	-1E+10	1	-1E+10	1	-1E+10	1
4902554	64	C	11/13/2022	05:06	-133.775	48.440	0	388.00	0	4.3280	0	33.9060	0	26.885	0	384.368	0	-1e10	8	-1e10	8	-1E+10	1	-1E+10	1	-1E+10	1	-1E+10	1	-1E+10	1	-1E+10	1
4902554	64	C	11/13/2022	05:06	-133.775	48.440	0	392.60	0	4.3140	0	33.9150	0	26.894	0	388.920	0	-1e10	8	-1e10	8	-1E+10	1	-1E+10	1	-1E+10	1	-1E+10	1	-1E+10	1	-1E+10	1
4902554	64	C	11/13/2022	05:06	-133.775	48.440	0	397.80	0	4.2920	0	33.9230	0	26.902	0	394.067	0	-1e10	8	-1e10	8	-1E+10	1	-1E+10	1	-1E+10	1	-1E+10	1	-1E+10	1	-1E+10	1
4902554	64	C	11/13/2022	05:06	-133.775	48.440	0	403.10	0	4.2820	0	33.9290	0	26.908	0	399.312	0	-1e10	8	-1e10	8	-1E+10	1	-1E+10	1	-1E+10	1	-1E+10	1	-1E+10	1	-1E+10	1
4902554	64	C	11/13/2022	05:06	-133.775	48.440	0	408.00	0	4.2740	0	33.9390	0	26.917	0	404.161	0	-1e10	8	-1e10	8	-1E+10	1	-1E+10	1	-1E+10	1	-1E+10	1	-1E+10	1	-1E+10	1
4902554	64	C	11/13/2022	05:06	-133.775	48.440	0	412.90	0	4.2620	0	33.9470	0	26.925	0	409.010	0	-1e10	8	-1e10	8	-1E+10	1	-1E+10	1	-1E+10	1	-1E+10	1	-1E+10	1	-1E+10	1
4902554	64	C	11/13/2022	05:06	-133.775	48.440	0	417.80	0	4.2570	0	33.9510	0	26.928	0	413.859	0	-1e10	8	-1e10	8	-1E+10	1	-1E+10	1	-1E+10	1	-1E+10	1	-1E+10	1	-1E+10	1
4902554	64	C	11/13/2022	05:06	-133.775	48.440	0	422.80	0	4.2340	0	33.9580	0	26.936	0	418.807	0	-1e10	8	-1e10	8	-1E+10	1	-1E+10	1	-1E+10	1	-1E+10	1	-1E+10	1	-1E+10	1
4902554	64	C	11/13/2022	05:06	-133.775	48.440	0	427.70	0	4.2200	0	33.9630	0	26.942	0	423.656	0	-1e10	8	-1e10	8	-1E+10	1	-1E+10	1	-1E+10	1	-1E+10	1	-1E+10	1	-1E+10	1
4902554	64	C	11/13/2022	05:06	-133.775	48.440	0	432.80	0	4.2240	0	33.9670	0	26.945	0	428.702	0	-1e10	8	-1e10	8	-1E+10	1	-1E+10	1	-1E+10	1	-1E+10	1	-1E+10	1	-1E+10	1
4902554	64	C	11/13/2022	05:06	-133.775	48.440	0	437.80	0	4.2120	0	33.9760	0	26.953	0	433.650	0	-1e10	8	-1e10	8	-1E+10	1	-1E+10	1	-1E+10	1	-1E+10	1	-1E+10	1	-1E+10	1
4902554	64	C	11/13/2022	05:06	-133.775	48.440	0	443.00	0	4.1940	0	33.9840	0	26.961	0	438.795	0	-1e10	8	-1e10	8	-1E+10	1	-1E+10	1	-1E+10	1	-1E+10	1	-1E+10	1	-1E+10	1
4902554	64	C	11/13/2022	05:06	-133.775	48.440	0	448.10	0	4.1900	0	33.9890	0	26.966	0	443.841	0	-1e10	8	-1e10	8	-1E+10	1	-1E+10	1	-1E+10	1	-1E+10	1	-1E+10	1	-1E+10	1
4902554	64	C	11/13/2022	05:06	-133.775	48.440	0	453.30	0	4.1890	0	33.9940	0	26.970	0	448.986	0	-1e10	8	-1e10	8	-1E+10	1	-1E+10	1	-1E+10	1	-1E+10	1	-1E+10	1	-1E+10	1
4902554	64	C	11/13/2022	05:06	-133.775	48.440	0	457.90	0	4.1880	0	33.9970	0	26.972	0	453.537	0	-1e10	8	-1e10	8	-1E+10	1	-1E+10	1	-1E+10	1	-1E+10	1	-1E+10	1	-1E+10	1
4902554	64	C	11/13/2022	05:06	-133.775	48.440	0	462.50	0	4.1810	0	34.0020	0	26.977	0	458.088	0	-1e10	8	-1e10	8	-1E+10	1	-1E+10	1	-1E+10	1	-1E+10	1	-1E+10	1	-1E+10	1
4902554	64	C	11/13/2022	05:06	-133.775	48.440	0	467.60	0	4.1720	0	34.0050	0	26.980	0	463.134	0	-1e10	8	-1e10	8	-1E+10	1	-1E+10	1	-1E+10	1	-1E+10	1	-1E+10	1	-1E+10	1
4902554	64	C	11/13/2022	05:06	-133.775	48.440	0	472.70	0	4.1680	0	34.0090	0	26.984	0	468.179	0	-1e10	8	-1e10	8	-1E+10	1	-1E+10	1	-1E+10	1	-1E+10	1	-1E+10	1	-1E+10	1
4902554	64	C	11/13/2022	05:06	-133.775	48.440	0	477.80	0	4.1640	0	34.0140	0	26.989	0	473.225	0	-1e10	8	-1e10	8	-1E+10	1	-1E+10	1	-1E+10	1	-1E+10	1	-1E+10	1	-1E+10	1
4902554	64	C	11/13/2022	05:06	-133.775	48.440	0	483.00	0	4.1580	0	34.0230	0	26.996	0	478.369	0	-1e10	8	-1e10	8	-1E+10	1	-1E+10	1	-1E+10	1	-1E+10	1	-1E+10	1	-1E+10	1
4902554	64	C	11/13/2022	05:06	-133.775	48.440	0	488.20	0	4.1590	0	34.0310	0	27.003	0	483.513	0	-1e10	8	-1e10	8	-1E+10	1	-1E+10	1	-1E+10	1	-1E+10	1	-1E+10	1	-1E+10	1
4902554	64	C	11/13/2022	05:06	-133.775	48.440	0	492.90	0	4.1500	0	34.0360	0	27.008	0	488.163	0	-1e10	8	-1e10	8	-1E+10	1	-1E+10	1	-1E+10	1	-1E+10	1	-1E+10	1	-1E+10	1
4902554	64	C	11/13/2022	05:06	-133.775	48.440	0	497.60	0	4.1400	0	34.0420	0	27.013	0	492.812	0	-1e10	8	-1e10	8	-1E+10	1	-1E+10	1	-1E+10	1	-1E+10	1	-1E+10	1	-1E+10	1
4902554	64	C	11/13/2022	05:06	-133.775	48.440	0	502.80	0	4.1340	0	34.0440	0	27.016	0	497.956	0	-1e10	8	-1e10	8	-1E+10	1	-1E+10	1	-1E+10	1	-1E+10	1	-1E+10	1	-1E+10	1
4902554	64	C	11/13/2022	05:06	-133.775	48.440	0	508.00	0	4.1300	0	34.0480	0	27.019	0	503.099	0	-1e10	8	-1e10	8	-1E+10	1	-1E+10	1	-1E+10	1	-1E+10	1	-1E+10	1	-1E+10	1
4902554	64	C	11/13/2022	05:06	-133.775	48.440	0	513.20	0	4.1210	0	34.0560	0	27.027	0	508.243	0	-1e10	8	-1e10	8	-1E+10	1	-1E+10	1	-1E+10	1	-1E+10	1	-1E+10	1	-1E+10	1
4902554	64	C	11/13/2022	05:06	-133.775	48.440	0	517.90	0	4.1070	0	34.0640	0	27.035	0	512.891	0	-1e10	8	-1e10	8	-1E+10	1	-1E+10	1	-1E+10	1	-1E+10	1	-1E+10	1	-1E+10	1
4902554	64	C	11/13/2022	05:06	-133.775	48.440	0	522.90	0	4.0940	0	34.0710	0	27.041	0	517.837	0	-1e10	8	-1e10	8	-1E+10	1	-1E+10	1	-1E+10	1	-1E+10	1	-1E+10	1	-1E+10	1
4902554	64	C	11/13/2022	05:06	-133.775	48.440	0	528.30	0	4.0850	0	34.0760	0	27.046	0	523.178	0	-1e10	8	-1e10	8	-1E+10	1	-1E+10	1	-1E+10	1	-1E+10	1	-1E+10	1	-1E+10	1
4902554	64	C	11/13/2022	05:06	-133.775	48.440	0	533.30	0	4.0800	0	34.0800	0	27.050	0	528.123	0	-1e10	8	-1e10	8	-1E+10	1	-1E+10	1	-1E+10	1	-1E+10	1	-1E+10	1	-1E+10	1
4902554	64	C	11/13/2022	05:06	-133.775	48.440	0	537.90	0	4.0730	0	34.0840	0	27.054	0	532.672	0	-1e10	8	-1e10	8	-1E+10	1	-1E+10	1	-1E+10	1	-1E+10	1	-1E+10	1	-1E+10	1
4902554	64	C	11/13/2022	05:06	-133.775	48.440	0	542.60	0	4.0640	0	34.0890	0	27.059	0	537.321	0	-1e10	8	-1e10	8	-1E+10	1	-1E+10	1	-1E+10	1	-1E+10	1	-1E+10	1	-1E+10	1
4902554	64	C	11/13/2022	05:06	-133.775	48.440	0	547.80	0	4.0570	0	34.0930	0	27.063	0	542.463	0	-1e10	8	-1e10	8	-1E+10	1	-1E+10	1	-1E+10	1	-1E+10	1	-1E+10	1	-1E+10	1
4902554	64	C	11/13/2022	05:06	-133.775	48.440	0	553.10	0	4.0490	0	34.0970	0	27.067	0	547.705	0	-1e10	8	-1e10	8	-1E+10	1	-1E+10	1	-1E+10	1	-1E+10	1	-1E+10	1	-1E+10	1
4902554	64	C	11/13/2022	05:06	-133.775	48.440	0	558.10	0	4.0310	0	34.1050	0	27.075	0	552.649	0	-1e10	8	-1e10	8	-1E+10	1	-1E+10	1	-1E+10	1	-1E+10	1	-1E+10	1	-1E+10	1
4902554	64	C	11/13/2022	05:06	-133.775	48.440	0	563.10	0	4.0220	0	34.1090	0	27.079	0	557.594	0	-1e10	8	-1e10	8	-1E+10	1	-1E+10	1	-1E+10	1	-1E+10	1	-1E+10	1	-1E+10	1
4902554	64	C	11/13/2022	05:06	-133.775	48.440	0	568.20	0	4.0150	0	34.1110	0	27.082	0	562.637	0	-1e10	8	-1e10	8	-1E+10	1	-1E+10	1	-1E+10	1	-1E+10	1	-1E+10	1	-1E+10	1
4902554	64	C	11/13/2022	05:06	-133.775	48.440	0	572.80	0	4.0080	0	34.1140	0	27.085	0	567.186	0	-1e10	8	-1e10	8	-1E+10	1	-1E+10	1	-1E+10	1	-1E+10	1	-1E+10	1	-1E+10	1
4902554	64	C	11/13/2022	05:06	-133.775	48.440	0	577.90	0	3.9970	0	34.1190	0	27.090	0	572.229	0	-1e10	8	-1e10	8	-1E+10	1	-1E+10	1	-1E+10	1	-1E+10	1	-1E+10	1	-1E+10	1
4902554	64	C	11/13/2022	05:06	-133.775	48.440	0	583.10	0	3.9910	0	34.1210	0	27.092	0	577.370	0	-1e10	8	-1e10	8	-1E+10	1	-1E+10	1	-1E+10	1	-1E+10	1	-1E+10	1	-1E+10	1
4902554	64	C	11/13/2022	05:06	-133.775	48.440	0	587.70	0	3.9810	0	34.1240	0	27.096	0	581.919	0	-1e10	8	-1e10	8	-1E+10	1	-1E+10	1	-1E+10	1	-1E+10	1	-1E+10	1	-1E+10	1
4902554	64	C	11/13/2022	05:06	-133.775	48.440	0	592.90	0	3.9730	0	34.1280	0	27.100	0	587.060	0	-1e10	8	-1e10	8	-1E+10	1	-1E+10	1	-1E+10	1	-1E+10	1	-1E+10	1	-1E+10	1
4902554	64	C	11/13/2022	05:06	-133.775	48.440	0	598.20	0	3.9540	0	34.1350	0	27.107	0	592.301	0	-1e10	8	-1e10	8	-1E+10	1	-1E+10	1	-1E+10	1	-1E+10	1	-1E+10	1	-1E+10	1
4902554	64	C	11/13/2022	05:06	-133.775	48.440	0	603.00	0	3.9430	0	34.1390	0	27.112	0	597.046	0	-1e10	8	-1e10	8	-1E+10	1	-1E+10	1	-1E+10	1	-1E+10	1	-1E+10	1	-1E+10	1
4902554	64	C	11/13/2022	05:06	-133.775	48.440	0	607.80	0	3.9380	0	34.1430	0	27.115	0	601.792	0	-1e10	8	-1e10	8	-1E+10	1	-1E+10	1	-1E+10	1	-1E+10	1	-1E+10	1	-1E+10	1
4902554	64	C	11/13/2022	05:06	-133.775	48.440	0	612.60	0	3.9290	0	34.1460	0	27.119	0	606.538	0	-1e10	8	-1e10	8	-1E+10	1	-1E+10	1	-1E+10	1	-1E+10	1	-1E+10	1	-1E+10	1
4902554	64	C	11/13/2022	05:06	-133.775	48.440	0	617.50	0	3.9160	0	34.1530	0	27.126	0	611.382	0	-1e10	8	-1e10	8	-1E+10	1	-1E+10	1	-1E+10	1	-1E+10	1	-1E+10	1	-1E+10	1
4902554	64	C	11/13/2022	05:06	-133.775	48.440	0	622.90	0	3.9050	0	34.1570	0	27.130	0	616.720	0	-1e10	8	-1e10	8	-1E+10	1	-1E+10	1	-1E+10	1	-1E+10	1	-1E+10	1	-1E+10	1
4902554	64	C	11/13/2022	05:06	-133.775	48.440	0	628.20	0	3.8980	0	34.1600	0	27.133	0	621.960	0	-1e10	8	-1e10	8	-1E+10	1	-1E+10	1	-1E+10	1	-1E+10	1	-1E+10	1	-1E+10	1
4902554	64	C	11/13/2022	05:06	-133.775	48.440	0	633.10	0	3.8840	0	34.1670	0	27.140	0	626.804	0	-1e10	8	-1e10	8	-1E+10	1	-1E+10	1	-1E+10	1	-1E+10	1	-1E+10	1	-1E+10	1
4902554	64	C	11/13/2022	05:06	-133.775	48.440	0	638.00	0	3.8680	0	34.1720	0	27.146	0	631.648	0	-1e10	8	-1e10	8	-1E+10	1	-1E+10	1	-1E+10	1	-1E+10	1	-1E+10	1	-1E+10	1
4902554	64	C	11/13/2022	05:06	-133.775	48.440	0	643.00	0	3.8520	0	34.1760	0	27.150	0	636.590	0	-1e10	8	-1e10	8	-1E+10	1	-1E+10	1	-1E+10	1	-1E+10	1	-1E+10	1	-1E+10	1
4902554	64	C	11/13/2022	05:06	-133.775	48.440	0	648.10	0	3.8390	0	34.1810	0	27.156	0	641.632	0	-1e10	8	-1e10	8	-1E+10	1	-1E+10	1	-1E+10	1	-1E+10	1	-1E+10	1	-1E+10	1
4902554	64	C	11/13/2022	05:06	-133.775	48.440	0	653.20	0	3.8270	0	34.1850	0	27.160	0	646.673	0	-1e10	8	-1e10	8	-1E+10	1	-1E+10	1	-1E+10	1	-1E+10	1	-1E+10	1	-1E+10	1
4902554	64	C	11/13/2022	05:06	-133.775	48.440	0	658.00	0	3.8200	0	34.1870	0	27.163	0	651.417	0	-1e10	8	-1e10	8	-1E+10	1	-1E+10	1	-1E+10	1	-1E+10	1	-1E+10	1	-1E+10	1
4902554	64	C	11/13/2022	05:06	-133.775	48.440	0	662.70	0	3.8100	0	34.1910	0	27.167	0	656.063	0	-1e10	8	-1e10	8	-1E+10	1	-1E+10	1	-1E+10	1	-1E+10	1	-1E+10	1	-1E+10	1
4902554	64	C	11/13/2022	05:06	-133.775	48.440	0	668.00	0	3.8010	0	34.1950	0	27.171	0	661.301	0	-1e10	8	-1e10	8	-1E+10	1	-1E+10	1	-1E+10	1	-1E+10	1	-1E+10	1	-1E+10	1
4902554	64	C	11/13/2022	05:06	-133.775	48.440	0	673.30	0	3.7830	0	34.2000	0	27.177	0	666.540	0	-1e10	8	-1e10	8	-1E+10	1	-1E+10	1	-1E+10	1	-1E+10	1	-1E+10	1	-1E+10	1
4902554	64	C	11/13/2022	05:06	-133.775	48.440	0	678.40	0	3.7720	0	34.2030	0	27.180	0	671.580	0	-1e10	8	-1e10	8	-1E+10	1	-1E+10	1	-1E+10	1	-1E+10	1	-1E+10	1	-1E+10	1
4902554	64	C	11/13/2022	05:06	-133.775	48.440	0	683.20	0	3.7660	0	34.2070	0	27.184	0	676.324	0	-1e10	8	-1e10	8	-1E+10	1	-1E+10	1	-1E+10	1	-1E+10	1	-1E+10	1	-1E+10	1
4902554	64	C	11/13/2022	05:06	-133.775	48.440	0	688.10	0	3.7580	0	34.2100	0	27.187	0	681.167	0	-1e10	8	-1e10	8	-1E+10	1	-1E+10	1	-1E+10	1	-1E+10	1	-1E+10	1	-1E+10	1
4902554	64	C	11/13/2022	05:06	-133.775	48.440	0	693.10	0	3.7510	0	34.2130	0	27.190	0	686.108	0	-1e10	8	-1e10	8	-1E+10	1	-1E+10	1	-1E+10	1	-1E+10	1	-1E+10	1	-1E+10	1
4902554	64	C	11/13/2022	05:06	-133.775	48.440	0	698.20	0	3.7470	0	34.2140	0	27.192	0	691.149	0	-1e10	8	-1e10	8	-1E+10	1	-1E+10	1	-1E+10	1	-1E+10	1	-1E+10	1	-1E+10	1
4902554	64	C	11/13/2022	05:06	-133.775	48.440	0	702.90	0	3.7430	0	34.2160	0	27.194	0	695.793	0	-1e10	8	-1e10	8	-1E+10	1	-1E+10	1	-1E+10	1	-1E+10	1	-1E+10	1	-1E+10	1
4902554	64	C	11/13/2022	05:06	-133.775	48.440	0	707.60	0	3.7340	0	34.2180	0	27.196	0	700.438	0	-1e10	8	-1e10	8	-1E+10	1	-1E+10	1	-1E+10	1	-1E+10	1	-1E+10	1	-1E+10	1
4902554	64	C	11/13/2022	05:06	-133.775	48.440	0	712.80	0	3.7160	0	34.2220	0	27.201	0	705.576	0	-1e10	8	-1e10	8	-1E+10	1	-1E+10	1	-1E+10	1	-1E+10	1	-1E+10	1	-1E+10	1
4902554	64	C	11/13/2022	05:06	-133.775	48.440	0	718.10	0	3.7020	0	34.2250	0	27.205	0	710.814	0	-1e10	8	-1e10	8	-1E+10	1	-1E+10	1	-1E+10	1	-1E+10	1	-1E+10	1	-1E+10	1
4902554	64	C	11/13/2022	05:06	-133.775	48.440	0	723.00	0	3.6960	0	34.2270	0	27.207	0	715.656	0	-1e10	8	-1e10	8	-1E+10	1	-1E+10	1	-1E+10	1	-1E+10	1	-1E+10	1	-1E+10	1
4902554	64	C	11/13/2022	05:06	-133.775	48.440	0	727.90	0	3.6910	0	34.2270	0	27.208	0	720.497	0	-1e10	8	-1e10	8	-1E+10	1	-1E+10	1	-1E+10	1	-1E+10	1	-1E+10	1	-1E+10	1
4902554	64	C	11/13/2022	05:06	-133.775	48.440	0	732.90	0	3.6750	0	34.2280	0	27.210	0	725.438	0	-1e10	8	-1e10	8	-1E+10	1	-1E+10	1	-1E+10	1	-1E+10	1	-1E+10	1	-1E+10	1
4902554	64	C	11/13/2022	05:06	-133.775	48.440	0	738.00	0	3.6460	0	34.2340	0	27.218	0	730.477	0	-1e10	8	-1e10	8	-1E+10	1	-1E+10	1	-1E+10	1	-1E+10	1	-1E+10	1	-1E+10	1
4902554	64	C	11/13/2022	05:06	-133.775	48.440	0	743.10	0	3.6270	0	34.2390	0	27.224	0	735.516	0	-1e10	8	-1e10	8	-1E+10	1	-1E+10	1	-1E+10	1	-1E+10	1	-1E+10	1	-1E+10	1
4902554	64	C	11/13/2022	05:06	-133.775	48.440	0	747.80	0	3.6130	0	34.2420	0	27.227	0	740.160	0	-1e10	8	-1e10	8	-1E+10	1	-1E+10	1	-1E+10	1	-1E+10	1	-1E+10	1	-1E+10	1
4902554	64	C	11/13/2022	05:06	-133.775	48.440	0	752.90	0	3.6070	0	34.2430	0	27.229	0	745.198	0	-1e10	8	-1e10	8	-1E+10	1	-1E+10	1	-1E+10	1	-1E+10	1	-1E+10	1	-1E+10	1
4902554	64	C	11/13/2022	05:06	-133.775	48.440	0	758.00	0	3.5990	0	34.2450	0	27.231	0	750.237	0	-1e10	8	-1e10	8	-1E+10	1	-1E+10	1	-1E+10	1	-1E+10	1	-1E+10	1	-1E+10	1
4902554	64	C	11/13/2022	05:06	-133.775	48.440	0	763.10	0	3.5890	0	34.2460	0	27.233	0	755.276	0	-1e10	8	-1e10	8	-1E+10	1	-1E+10	1	-1E+10	1	-1E+10	1	-1E+10	1	-1E+10	1
4902554	64	C	11/13/2022	05:06	-133.775	48.440	0	768.20	0	3.5780	0	34.2490	0	27.236	0	760.314	0	-1e10	8	-1e10	8	-1E+10	1	-1E+10	1	-1E+10	1	-1E+10	1	-1E+10	1	-1E+10	1
4902554	64	C	11/13/2022	05:06	-133.775	48.440	0	772.80	0	3.5630	0	34.2520	0	27.240	0	764.858	0	-1e10	8	-1e10	8	-1E+10	1	-1E+10	1	-1E+10	1	-1E+10	1	-1E+10	1	-1E+10	1
4902554	64	C	11/13/2022	05:06	-133.775	48.440	0	777.90	0	3.5510	0	34.2540	0	27.243	0	769.897	0	-1e10	8	-1e10	8	-1E+10	1	-1E+10	1	-1E+10	1	-1E+10	1	-1E+10	1	-1E+10	1
4902554	64	C	11/13/2022	05:06	-133.775	48.440	0	783.10	0	3.5360	0	34.2590	0	27.249	0	775.033	0	-1e10	8	-1e10	8	-1E+10	1	-1E+10	1	-1E+10	1	-1E+10	1	-1E+10	1	-1E+10	1
4902554	64	C	11/13/2022	05:06	-133.775	48.440	0	787.90	0	3.5270	0	34.2620	0	27.252	0	779.775	0	-1e10	8	-1e10	8	-1E+10	1	-1E+10	1	-1E+10	1	-1E+10	1	-1E+10	1	-1E+10	1
4902554	64	C	11/13/2022	05:06	-133.775	48.440	0	792.60	0	3.5210	0	34.2630	0	27.253	0	784.418	0	-1e10	8	-1e10	8	-1E+10	1	-1E+10	1	-1E+10	1	-1E+10	1	-1E+10	1	-1E+10	1
4902554	64	C	11/13/2022	05:06	-133.775	48.440	0	797.80	0	3.5060	0	34.2660	0	27.257	0	789.554	0	-1e10	8	-1e10	8	-1E+10	1	-1E+10	1	-1E+10	1	-1E+10	1	-1E+10	1	-1E+10	1
4902554	64	C	11/13/2022	05:06	-133.775	48.440	0	803.20	0	3.4880	0	34.2690	0	27.261	0	794.888	0	-1e10	8	-1e10	8	-1E+10	1	-1E+10	1	-1E+10	1	-1E+10	1	-1E+10	1	-1E+10	1
4902554	64	C	11/13/2022	05:06	-133.775	48.440	0	808.10	0	3.4790	0	34.2710	0	27.264	0	799.728	0	-1e10	8	-1e10	8	-1E+10	1	-1E+10	1	-1E+10	1	-1E+10	1	-1E+10	1	-1E+10	1
4902554	64	C	11/13/2022	05:06	-133.775	48.440	0	813.00	0	3.4710	0	34.2740	0	27.267	0	804.568	0	-1e10	8	-1e10	8	-1E+10	1	-1E+10	1	-1E+10	1	-1E+10	1	-1E+10	1	-1E+10	1
4902554	64	C	11/13/2022	05:06	-133.775	48.440	0	818.00	0	3.4620	0	34.2760	0	27.269	0	809.506	0	-1e10	8	-1e10	8	-1E+10	1	-1E+10	1	-1E+10	1	-1E+10	1	-1E+10	1	-1E+10	1
4902554	64	C	11/13/2022	05:06	-133.775	48.440	0	823.00	0	3.4510	0	34.2780	0	27.272	0	814.445	0	-1e10	8	-1e10	8	-1E+10	1	-1E+10	1	-1E+10	1	-1E+10	1	-1E+10	1	-1E+10	1
4902554	64	C	11/13/2022	05:06	-133.775	48.440	0	828.00	0	3.4370	0	34.2810	0	27.276	0	819.383	0	-1e10	8	-1e10	8	-1E+10	1	-1E+10	1	-1E+10	1	-1E+10	1	-1E+10	1	-1E+10	1
4902554	64	C	11/13/2022	05:06	-133.775	48.440	0	833.00	0	3.4270	0	34.2860	0	27.281	0	824.321	0	-1e10	8	-1e10	8	-1E+10	1	-1E+10	1	-1E+10	1	-1E+10	1	-1E+10	1	-1E+10	1
4902554	64	C	11/13/2022	05:06	-133.775	48.440	0	838.00	0	3.4220	0	34.2900	0	27.285	0	829.259	0	-1e10	8	-1e10	8	-1E+10	1	-1E+10	1	-1E+10	1	-1E+10	1	-1E+10	1	-1E+10	1
4902554	64	C	11/13/2022	05:06	-133.775	48.440	0	843.10	0	3.4080	0	34.2930	0	27.288	0	834.296	0	-1e10	8	-1e10	8	-1E+10	1	-1E+10	1	-1E+10	1	-1E+10	1	-1E+10	1	-1E+10	1
4902554	64	C	11/13/2022	05:06	-133.775	48.440	0	848.20	0	3.3910	0	34.2950	0	27.292	0	839.332	0	-1e10	8	-1e10	8	-1E+10	1	-1E+10	1	-1E+10	1	-1E+10	1	-1E+10	1	-1E+10	1
4902554	64	C	11/13/2022	05:06	-133.775	48.440	0	853.30	0	3.3760	0	34.2970	0	27.295	0	844.368	0	-1e10	8	-1e10	8	-1E+10	1	-1E+10	1	-1E+10	1	-1E+10	1	-1E+10	1	-1E+10	1
4902554	64	C	11/13/2022	05:06	-133.775	48.440	0	858.00	0	3.3710	0	34.3000	0	27.297	0	849.010	0	-1e10	8	-1e10	8	-1E+10	1	-1E+10	1	-1E+10	1	-1E+10	1	-1E+10	1	-1E+10	1
4902554	64	C	11/13/2022	05:06	-133.775	48.440	0	862.70	0	3.3580	0	34.3010	0	27.300	0	853.651	0	-1e10	8	-1e10	8	-1E+10	1	-1E+10	1	-1E+10	1	-1E+10	1	-1E+10	1	-1E+10	1
4902554	64	C	11/13/2022	05:06	-133.775	48.440	0	868.00	0	3.3450	0	34.3020	0	27.302	0	858.884	0	-1e10	8	-1e10	8	-1E+10	1	-1E+10	1	-1E+10	1	-1E+10	1	-1E+10	1	-1E+10	1
4902554	64	C	11/13/2022	05:06	-133.775	48.440	0	872.80	0	3.3270	0	34.3060	0	27.306	0	863.624	0	-1e10	8	-1e10	8	-1E+10	1	-1E+10	1	-1E+10	1	-1E+10	1	-1E+10	1	-1E+10	1
4902554	64	C	11/13/2022	05:06	-133.775	48.440	0	877.60	0	3.3150	0	34.3080	0	27.309	0	868.364	0	-1e10	8	-1e10	8	-1E+10	1	-1E+10	1	-1E+10	1	-1E+10	1	-1E+10	1	-1E+10	1
4902554	64	C	11/13/2022	05:06	-133.775	48.440	0	882.90	0	3.3060	0	34.3100	0	27.312	0	873.597	0	-1e10	8	-1e10	8	-1E+10	1	-1E+10	1	-1E+10	1	-1E+10	1	-1E+10	1	-1E+10	1
4902554	64	C	11/13/2022	05:06	-133.775	48.440	0	888.20	0	3.2970	0	34.3120	0	27.314	0	878.830	0	-1e10	8	-1e10	8	-1E+10	1	-1E+10	1	-1E+10	1	-1E+10	1	-1E+10	1	-1E+10	1
4902554	64	C	11/13/2022	05:06	-133.775	48.440	0	892.90	0	3.2880	0	34.3140	0	27.317	0	883.470	0	-1e10	8	-1e10	8	-1E+10	1	-1E+10	1	-1E+10	1	-1E+10	1	-1E+10	1	-1E+10	1
4902554	64	C	11/13/2022	05:06	-133.775	48.440	0	897.60	0	3.2740	0	34.3160	0	27.320	0	888.111	0	-1e10	8	-1e10	8	-1E+10	1	-1E+10	1	-1E+10	1	-1E+10	1	-1E+10	1	-1E+10	1
4902554	64	C	11/13/2022	05:06	-133.775	48.440	0	902.60	0	3.2720	0	34.3170	0	27.321	0	893.047	0	-1e10	8	-1e10	8	-1E+10	1	-1E+10	1	-1E+10	1	-1E+10	1	-1E+10	1	-1E+10	1
4902554	64	C	11/13/2022	05:06	-133.775	48.440	0	907.90	0	3.2650	0	34.3180	0	27.322	0	898.280	0	-1e10	8	-1e10	8	-1E+10	1	-1E+10	1	-1E+10	1	-1E+10	1	-1E+10	1	-1E+10	1
4902554	64	C	11/13/2022	05:06	-133.775	48.440	0	913.20	0	3.2520	0	34.3210	0	27.326	0	903.512	0	-1e10	8	-1e10	8	-1E+10	1	-1E+10	1	-1E+10	1	-1E+10	1	-1E+10	1	-1E+10	1
4902554	64	C	11/13/2022	05:06	-133.775	48.440	0	918.20	0	3.2440	0	34.3230	0	27.328	0	908.448	0	-1e10	8	-1e10	8	-1E+10	1	-1E+10	1	-1E+10	1	-1E+10	1	-1E+10	1	-1E+10	1
4902554	64	C	11/13/2022	05:06	-133.775	48.440	0	922.90	0	3.2290	0	34.3260	0	27.332	0	913.088	0	-1e10	8	-1e10	8	-1E+10	1	-1E+10	1	-1E+10	1	-1E+10	1	-1E+10	1	-1E+10	1
4902554	64	C	11/13/2022	05:06	-133.775	48.440	0	927.60	0	3.2180	0	34.3280	0	27.335	0	917.728	0	-1e10	8	-1e10	8	-1E+10	1	-1E+10	1	-1E+10	1	-1E+10	1	-1E+10	1	-1E+10	1
4902554	64	C	11/13/2022	05:06	-133.775	48.440	0	932.80	0	3.2000	0	34.3320	0	27.339	0	922.861	0	-1e10	8	-1e10	8	-1E+10	1	-1E+10	1	-1E+10	1	-1E+10	1	-1E+10	1	-1E+10	1
4902554	64	C	11/13/2022	05:06	-133.775	48.440	0	938.00	0	3.1890	0	34.3340	0	27.342	0	927.994	0	-1e10	8	-1e10	8	-1E+10	1	-1E+10	1	-1E+10	1	-1E+10	1	-1E+10	1	-1E+10	1
4902554	64	C	11/13/2022	05:06	-133.775	48.440	0	943.20	0	3.1810	0	34.3370	0	27.345	0	933.127	0	-1e10	8	-1e10	8	-1E+10	1	-1E+10	1	-1E+10	1	-1E+10	1	-1E+10	1	-1E+10	1
4902554	64	C	11/13/2022	05:06	-133.775	48.440	0	947.80	0	3.1730	0	34.3380	0	27.347	0	937.668	0	-1e10	8	-1e10	8	-1E+10	1	-1E+10	1	-1E+10	1	-1E+10	1	-1E+10	1	-1E+10	1
4902554	64	C	11/13/2022	05:06	-133.775	48.440	0	952.50	0	3.1680	0	34.3400	0	27.349	0	942.307	0	-1e10	8	-1e10	8	-1E+10	1	-1E+10	1	-1E+10	1	-1E+10	1	-1E+10	1	-1E+10	1
4902554	64	C	11/13/2022	05:06	-133.775	48.440	0	957.60	0	3.1610	0	34.3420	0	27.351	0	947.341	0	-1e10	8	-1e10	8	-1E+10	1	-1E+10	1	-1E+10	1	-1E+10	1	-1E+10	1	-1E+10	1
4902554	64	C	11/13/2022	05:06	-133.775	48.440	0	962.70	0	3.1520	0	34.3430	0	27.353	0	952.375	0	-1e10	8	-1e10	8	-1E+10	1	-1E+10	1	-1E+10	1	-1E+10	1	-1E+10	1	-1E+10	1
4902554	64	C	11/13/2022	05:06	-133.775	48.440	0	967.80	0	3.1400	0	34.3450	0	27.356	0	957.408	0	-1e10	8	-1e10	8	-1E+10	1	-1E+10	1	-1E+10	1	-1E+10	1	-1E+10	1	-1E+10	1
4902554	64	C	11/13/2022	05:06	-133.775	48.440	0	973.00	0	3.1320	0	34.3470	0	27.358	0	962.540	0	-1e10	8	-1e10	8	-1E+10	1	-1E+10	1	-1E+10	1	-1E+10	1	-1E+10	1	-1E+10	1
4902554	64	C	11/13/2022	05:06	-133.775	48.440	0	977.80	0	3.1160	0	34.3510	0	27.363	0	967.278	0	-1e10	8	-1e10	8	-1E+10	1	-1E+10	1	-1E+10	1	-1E+10	1	-1E+10	1	-1E+10	1
4902554	64	C	11/13/2022	05:06	-133.775	48.440	0	982.70	0	3.1000	0	34.3540	0	27.366	0	972.114	0	-1e10	8	-1e10	8	-1E+10	1	-1E+10	1	-1E+10	1	-1E+10	1	-1E+10	1	-1E+10	1
4902554	64	C	11/13/2022	05:06	-133.775	48.440	0	988.00	0	3.0820	0	34.3580	0	27.371	0	977.344	0	-1e10	8	-1e10	8	-1E+10	1	-1E+10	1	-1E+10	1	-1E+10	1	-1E+10	1	-1E+10	1
4902554	64	C	11/13/2022	05:06	-133.775	48.440	0	993.00	0	3.0740	0	34.3600	0	27.374	0	982.279	0	-1e10	8	-1e10	8	-1E+10	1	-1E+10	1	-1E+10	1	-1E+10	1	-1E+10	1	-1E+10	1
4902554	64	C	11/13/2022	05:06	-133.775	48.440	0	997.80	0	3.0680	0	34.3620	0	27.376	0	987.015	0	-1e10	8	-1e10	8	-1E+10	1	-1E+10	1	-1E+10	1	-1E+10	1	-1E+10	1	-1E+10	1
4902554	64	C	11/13/2022	05:06	-133.775	48.440	0	1005.40	0	3.0550	0	34.3660	0	27.380	0	994.515	0	-1e10	8	-1e10	8	-1E+10	1	-1E+10	1	-1E+10	1	-1E+10	1	-1E+10	1	-1E+10	1
4902554	64	C	11/13/2022	05:06	-133.775	48.440	0	1015.50	0	3.0460	0	34.3690	0	27.384	0	1004.482	0	-1e10	8	-1e10	8	-1E+10	1	-1E+10	1	-1E+10	1	-1E+10	1	-1E+10	1	-1E+10	1
4902554	64	C	11/13/2022	05:06	-133.775	48.440	0	1025.30	0	3.0370	0	34.3730	0	27.388	0	1014.152	0	-1e10	8	-1e10	8	-1E+10	1	-1E+10	1	-1E+10	1	-1E+10	1	-1E+10	1	-1E+10	1
4902554	64	C	11/13/2022	05:06	-133.775	48.440	0	1035.40	0	3.0320	0	34.3750	0	27.390	0	1024.117	0	-1e10	8	-1e10	8	-1E+10	1	-1E+10	1	-1E+10	1	-1E+10	1	-1E+10	1	-1E+10	1
4902554	64	C	11/13/2022	05:06	-133.775	48.440	0	1045.70	0	3.0160	0	34.3790	0	27.394	0	1034.280	0	-1e10	8	-1e10	8	-1E+10	1	-1E+10	1	-1E+10	1	-1E+10	1	-1E+10	1	-1E+10	1
4902554	64	C	11/13/2022	05:06	-133.775	48.440	0	1056.00	0	3.0010	0	34.3840	0	27.400	0	1044.441	0	-1e10	8	-1e10	8	-1E+10	1	-1E+10	1	-1E+10	1	-1E+10	1	-1E+10	1	-1E+10	1
4902554	64	C	11/13/2022	05:06	-133.775	48.440	0	1065.50	0	2.9910	0	34.3860	0	27.402	0	1053.814	0	-1e10	8	-1e10	8	-1E+10	1	-1E+10	1	-1E+10	1	-1E+10	1	-1E+10	1	-1E+10	1
4902554	64	C	11/13/2022	05:06	-133.775	48.440	0	1075.10	0	2.9760	0	34.3900	0	27.407	0	1063.284	0	-1e10	8	-1e10	8	-1E+10	1	-1E+10	1	-1E+10	1	-1E+10	1	-1E+10	1	-1E+10	1
4902554	64	C	11/13/2022	05:06	-133.775	48.440	0	1085.10	0	2.9600	0	34.3930	0	27.411	0	1073.149	0	-1e10	8	-1e10	8	-1E+10	1	-1E+10	1	-1E+10	1	-1E+10	1	-1E+10	1	-1E+10	1
4902554	64	C	11/13/2022	05:06	-133.775	48.440	0	1095.40	0	2.9470	0	34.3960	0	27.414	0	1083.309	0	-1e10	8	-1e10	8	-1E+10	1	-1E+10	1	-1E+10	1	-1E+10	1	-1E+10	1	-1E+10	1
4902554	64	C	11/13/2022	05:06	-133.775	48.440	0	1105.40	0	2.9310	0	34.3990	0	27.418	0	1093.172	0	-1e10	8	-1e10	8	-1E+10	1	-1E+10	1	-1E+10	1	-1E+10	1	-1E+10	1	-1E+10	1
4902554	64	C	11/13/2022	05:06	-133.775	48.440	0	1115.30	0	2.9150	0	34.4020	0	27.422	0	1102.937	0	-1e10	8	-1e10	8	-1E+10	1	-1E+10	1	-1E+10	1	-1E+10	1	-1E+10	1	-1E+10	1
4902554	64	C	11/13/2022	05:06	-133.775	48.440	0	1125.30	0	2.8970	0	34.4070	0	27.428	0	1112.799	0	-1e10	8	-1e10	8	-1E+10	1	-1E+10	1	-1E+10	1	-1E+10	1	-1E+10	1	-1E+10	1
4902554	64	C	11/13/2022	05:06	-133.775	48.440	0	1135.50	0	2.8840	0	34.4090	0	27.431	0	1122.859	0	-1e10	8	-1e10	8	-1E+10	1	-1E+10	1	-1E+10	1	-1E+10	1	-1E+10	1	-1E+10	1
4902554	64	C	11/13/2022	05:06	-133.775	48.440	0	1145.40	0	2.8720	0	34.4120	0	27.434	0	1132.622	0	-1e10	8	-1e10	8	-1E+10	1	-1E+10	1	-1E+10	1	-1E+10	1	-1E+10	1	-1E+10	1
4902554	64	C	11/13/2022	05:06	-133.775	48.440	0	1155.10	0	2.8450	0	34.4160	0	27.440	0	1142.187	0	-1e10	8	-1e10	8	-1E+10	1	-1E+10	1	-1E+10	1	-1E+10	1	-1E+10	1	-1E+10	1
4902554	64	C	11/13/2022	05:06	-133.775	48.440	0	1165.20	0	2.8390	0	34.4180	0	27.442	0	1152.147	0	-1e10	8	-1e10	8	-1E+10	1	-1E+10	1	-1E+10	1	-1E+10	1	-1E+10	1	-1E+10	1
4902554	64	C	11/13/2022	05:06	-133.775	48.440	0	1175.30	0	2.8290	0	34.4200	0	27.445	0	1162.106	0	-1e10	8	-1e10	8	-1E+10	1	-1E+10	1	-1E+10	1	-1E+10	1	-1E+10	1	-1E+10	1
4902554	64	C	11/13/2022	05:06	-133.775	48.440	0	1185.60	0	2.8210	0	34.4210	0	27.446	0	1172.261	0	-1e10	8	-1e10	8	-1E+10	1	-1E+10	1	-1E+10	1	-1E+10	1	-1E+10	1	-1E+10	1
4902554	64	C	11/13/2022	05:06	-133.775	48.440	0	1195.60	0	2.8030	0	34.4240	0	27.450	0	1182.121	0	-1e10	8	-1e10	8	-1E+10	1	-1E+10	1	-1E+10	1	-1E+10	1	-1E+10	1	-1E+10	1
4902554	64	C	11/13/2022	05:06	-133.775	48.440	0	1205.40	0	2.7870	0	34.4270	0	27.454	0	1191.782	0	-1e10	8	-1e10	8	-1E+10	1	-1E+10	1	-1E+10	1	-1E+10	1	-1E+10	1	-1E+10	1
4902554	64	C	11/13/2022	05:06	-133.775	48.440	0	1215.10	0	2.7720	0	34.4300	0	27.458	0	1201.345	0	-1e10	8	-1e10	8	-1E+10	1	-1E+10	1	-1E+10	1	-1E+10	1	-1E+10	1	-1E+10	1
4902554	64	C	11/13/2022	05:06	-133.775	48.440	0	1225.30	0	2.7640	0	34.4310	0	27.459	0	1211.400	0	-1e10	8	-1e10	8	-1E+10	1	-1E+10	1	-1E+10	1	-1E+10	1	-1E+10	1	-1E+10	1
4902554	64	C	11/13/2022	05:06	-133.775	48.440	0	1235.80	0	2.7490	0	34.4340	0	27.463	0	1221.751	0	-1e10	8	-1e10	8	-1E+10	1	-1E+10	1	-1E+10	1	-1E+10	1	-1E+10	1	-1E+10	1
4902554	64	C	11/13/2022	05:06	-133.775	48.440	0	1245.70	0	2.7290	0	34.4380	0	27.468	0	1231.509	0	-1e10	8	-1e10	8	-1E+10	1	-1E+10	1	-1E+10	1	-1E+10	1	-1E+10	1	-1E+10	1
4902554	64	C	11/13/2022	05:06	-133.775	48.440	0	1255.70	0	2.7110	0	34.4410	0	27.472	0	1241.366	0	-1e10	8	-1e10	8	-1E+10	1	-1E+10	1	-1E+10	1	-1E+10	1	-1E+10	1	-1E+10	1
4902554	64	C	11/13/2022	05:06	-133.775	48.440	0	1265.50	0	2.7000	0	34.4430	0	27.475	0	1251.025	0	-1e10	8	-1e10	8	-1E+10	1	-1E+10	1	-1E+10	1	-1E+10	1	-1E+10	1	-1E+10	1
4902554	64	C	11/13/2022	05:06	-133.775	48.440	0	1275.40	0	2.6840	0	34.4460	0	27.479	0	1260.782	0	-1e10	8	-1e10	8	-1E+10	1	-1E+10	1	-1E+10	1	-1E+10	1	-1E+10	1	-1E+10	1
4902554	64	C	11/13/2022	05:06	-133.775	48.440	0	1285.80	0	2.6690	0	34.4490	0	27.482	0	1271.032	0	-1e10	8	-1e10	8	-1E+10	1	-1E+10	1	-1E+10	1	-1E+10	1	-1E+10	1	-1E+10	1
4902554	64	C	11/13/2022	05:06	-133.775	48.440	0	1295.60	0	2.6590	0	34.4510	0	27.485	0	1280.689	0	-1e10	8	-1e10	8	-1E+10	1	-1E+10	1	-1E+10	1	-1E+10	1	-1E+10	1	-1E+10	1
4902554	64	C	11/13/2022	05:06	-133.775	48.440	0	1305.50	0	2.6480	0	34.4530	0	27.487	0	1290.445	0	-1e10	8	-1e10	8	-1E+10	1	-1E+10	1	-1E+10	1	-1E+10	1	-1E+10	1	-1E+10	1
4902554	64	C	11/13/2022	05:06	-133.775	48.440	0	1315.50	0	2.6350	0	34.4560	0	27.491	0	1300.299	0	-1e10	8	-1e10	8	-1E+10	1	-1E+10	1	-1E+10	1	-1E+10	1	-1E+10	1	-1E+10	1
4902554	64	C	11/13/2022	05:06	-133.775	48.440	0	1325.30	0	2.6180	0	34.4590	0	27.495	0	1309.955	0	-1e10	8	-1e10	8	-1E+10	1	-1E+10	1	-1E+10	1	-1E+10	1	-1E+10	1	-1E+10	1
4902554	64	C	11/13/2022	05:06	-133.775	48.440	0	1335.50	0	2.6010	0	34.4620	0	27.499	0	1320.005	0	-1e10	8	-1e10	8	-1E+10	1	-1E+10	1	-1E+10	1	-1E+10	1	-1E+10	1	-1E+10	1
4902554	64	C	11/13/2022	05:06	-133.775	48.440	0	1345.70	0	2.5860	0	34.4650	0	27.503	0	1330.054	0	-1e10	8	-1e10	8	-1E+10	1	-1E+10	1	-1E+10	1	-1E+10	1	-1E+10	1	-1E+10	1
4902554	64	C	11/13/2022	05:06	-133.775	48.440	0	1355.60	0	2.5780	0	34.4660	0	27.504	0	1339.808	0	-1e10	8	-1e10	8	-1E+10	1	-1E+10	1	-1E+10	1	-1E+10	1	-1E+10	1	-1E+10	1
4902554	64	C	11/13/2022	05:06	-133.775	48.440	0	1365.40	0	2.5660	0	34.4690	0	27.508	0	1349.462	0	-1e10	8	-1e10	8	-1E+10	1	-1E+10	1	-1E+10	1	-1E+10	1	-1E+10	1	-1E+10	1
4902554	64	C	11/13/2022	05:06	-133.775	48.440	0	1375.60	0	2.5500	0	34.4710	0	27.511	0	1359.511	0	-1e10	8	-1e10	8	-1E+10	1	-1E+10	1	-1E+10	1	-1E+10	1	-1E+10	1	-1E+10	1
4902554	64	C	11/13/2022	05:06	-133.775	48.440	0	1385.70	0	2.5320	0	34.4740	0	27.515	0	1369.460	0	-1e10	8	-1e10	8	-1E+10	1	-1E+10	1	-1E+10	1	-1E+10	1	-1E+10	1	-1E+10	1
4902554	64	C	11/13/2022	05:06	-133.775	48.440	0	1395.40	0	2.5150	0	34.4770	0	27.518	0	1379.014	0	-1e10	8	-1e10	8	-1E+10	1	-1E+10	1	-1E+10	1	-1E+10	1	-1E+10	1	-1E+10	1
4902554	64	C	11/13/2022	05:06	-133.775	48.440	0	1405.50	0	2.4990	0	34.4800	0	27.522	0	1388.962	0	-1e10	8	-1e10	8	-1E+10	1	-1E+10	1	-1E+10	1	-1E+10	1	-1E+10	1	-1E+10	1
4902554	64	C	11/13/2022	05:06	-133.775	48.440	0	1415.70	0	2.4720	0	34.4850	0	27.528	0	1399.009	0	-1e10	8	-1e10	8	-1E+10	1	-1E+10	1	-1E+10	1	-1E+10	1	-1E+10	1	-1E+10	1
4902554	64	C	11/13/2022	05:06	-133.775	48.440	0	1425.40	0	2.4580	0	34.4880	0	27.532	0	1408.562	0	-1e10	8	-1e10	8	-1E+10	1	-1E+10	1	-1E+10	1	-1E+10	1	-1E+10	1	-1E+10	1
4902554	64	C	11/13/2022	05:06	-133.775	48.440	0	1435.40	0	2.4460	0	34.4900	0	27.535	0	1418.410	0	-1e10	8	-1e10	8	-1E+10	1	-1E+10	1	-1E+10	1	-1E+10	1	-1E+10	1	-1E+10	1
4902554	64	C	11/13/2022	05:06	-133.775	48.440	0	1445.60	0	2.4370	0	34.4920	0	27.537	0	1428.455	0	-1e10	8	-1e10	8	-1E+10	1	-1E+10	1	-1E+10	1	-1E+10	1	-1E+10	1	-1E+10	1
4902554	64	C	11/13/2022	05:06	-133.775	48.440	0	1455.60	0	2.4220	0	34.4950	0	27.541	0	1438.302	0	-1e10	8	-1e10	8	-1E+10	1	-1E+10	1	-1E+10	1	-1E+10	1	-1E+10	1	-1E+10	1
4902554	64	C	11/13/2022	05:06	-133.775	48.440	0	1465.20	0	2.4120	0	34.4970	0	27.543	0	1447.755	0	-1e10	8	-1e10	8	-1E+10	1	-1E+10	1	-1E+10	1	-1E+10	1	-1E+10	1	-1E+10	1
4902554	64	C	11/13/2022	05:06	-133.775	48.440	0	1475.40	0	2.3990	0	34.5000	0	27.547	0	1457.799	0	-1e10	8	-1e10	8	-1E+10	1	-1E+10	1	-1E+10	1	-1E+10	1	-1E+10	1	-1E+10	1
4902554	64	C	11/13/2022	05:06	-133.775	48.440	0	1485.40	0	2.3900	0	34.5010	0	27.548	0	1467.645	0	-1e10	8	-1e10	8	-1E+10	1	-1E+10	1	-1E+10	1	-1E+10	1	-1E+10	1	-1E+10	1
4902554	64	C	11/13/2022	05:06	-133.775	48.440	0	1495.50	0	2.3810	0	34.5030	0	27.551	0	1477.589	0	-1e10	8	-1e10	8	-1E+10	1	-1E+10	1	-1E+10	1	-1E+10	1	-1E+10	1	-1E+10	1
4902554	64	C	11/13/2022	05:06	-133.775	48.440	0	1505.50	0	2.3680	0	34.5050	0	27.554	0	1487.434	0	-1e10	8	-1e10	8	-1E+10	1	-1E+10	1	-1E+10	1	-1E+10	1	-1E+10	1	-1E+10	1
4902554	64	C	11/13/2022	05:06	-133.775	48.440	0	1515.60	0	2.3580	0	34.5080	0	27.557	0	1497.377	0	-1e10	8	-1e10	8	-1E+10	1	-1E+10	1	-1E+10	1	-1E+10	1	-1E+10	1	-1E+10	1
4902554	64	C	11/13/2022	05:06	-133.775	48.440	0	1525.70	0	2.3480	0	34.5090	0	27.559	0	1507.319	0	-1e10	8	-1e10	8	-1E+10	1	-1E+10	1	-1E+10	1	-1E+10	1	-1E+10	1	-1E+10	1
4902554	64	C	11/13/2022	05:06	-133.775	48.440	0	1535.60	0	2.3370	0	34.5110	0	27.561	0	1517.065	0	-1e10	8	-1e10	8	-1E+10	1	-1E+10	1	-1E+10	1	-1E+10	1	-1E+10	1	-1E+10	1
4902554	64	C	11/13/2022	05:06	-133.775	48.440	0	1545.40	0	2.3290	0	34.5130	0	27.563	0	1526.711	0	-1e10	8	-1e10	8	-1E+10	1	-1E+10	1	-1E+10	1	-1E+10	1	-1E+10	1	-1E+10	1
4902554	64	C	11/13/2022	05:06	-133.775	48.440	0	1555.40	0	2.3200	0	34.5140	0	27.565	0	1536.554	0	-1e10	8	-1e10	8	-1E+10	1	-1E+10	1	-1E+10	1	-1E+10	1	-1E+10	1	-1E+10	1
4902554	64	C	11/13/2022	05:06	-133.775	48.440	0	1565.70	0	2.3070	0	34.5170	0	27.569	0	1546.691	0	-1e10	8	-1e10	8	-1E+10	1	-1E+10	1	-1E+10	1	-1E+10	1	-1E+10	1	-1E+10	1
4902554	64	C	11/13/2022	05:06	-133.775	48.440	0	1575.50	0	2.2910	0	34.5200	0	27.572	0	1556.336	0	-1e10	8	-1e10	8	-1E+10	1	-1E+10	1	-1E+10	1	-1E+10	1	-1E+10	1	-1E+10	1
4902554	64	C	11/13/2022	05:06	-133.775	48.440	0	1585.40	0	2.2770	0	34.5220	0	27.575	0	1566.079	0	-1e10	8	-1e10	8	-1E+10	1	-1E+10	1	-1E+10	1	-1E+10	1	-1E+10	1	-1E+10	1
4902554	64	C	11/13/2022	05:06	-133.775	48.440	0	1595.10	0	2.2680	0	34.5240	0	27.577	0	1575.625	0	-1e10	8	-1e10	8	-1E+10	1	-1E+10	1	-1E+10	1	-1E+10	1	-1E+10	1	-1E+10	1
4902554	64	C	11/13/2022	05:06	-133.775	48.440	0	1605.10	0	2.2540	0	34.5260	0	27.580	0	1585.465	0	-1e10	8	-1e10	8	-1E+10	1	-1E+10	1	-1E+10	1	-1E+10	1	-1E+10	1	-1E+10	1
4902554	64	C	11/13/2022	05:06	-133.775	48.440	0	1615.30	0	2.2490	0	34.5280	0	27.582	0	1595.502	0	-1e10	8	-1e10	8	-1E+10	1	-1E+10	1	-1E+10	1	-1E+10	1	-1E+10	1	-1E+10	1
4902554	64	C	11/13/2022	05:06	-133.775	48.440	0	1625.20	0	2.2450	0	34.5280	0	27.583	0	1605.243	0	-1e10	8	-1e10	8	-1E+10	1	-1E+10	1	-1E+10	1	-1E+10	1	-1E+10	1	-1E+10	1
4902554	64	C	11/13/2022	05:06	-133.775	48.440	0	1635.20	0	2.2310	0	34.5310	0	27.586	0	1615.083	0	-1e10	8	-1e10	8	-1E+10	1	-1E+10	1	-1E+10	1	-1E+10	1	-1E+10	1	-1E+10	1
4902554	64	C	11/13/2022	05:06	-133.775	48.440	0	1645.30	0	2.2120	0	34.5340	0	27.590	0	1625.020	0	-1e10	8	-1e10	8	-1E+10	1	-1E+10	1	-1E+10	1	-1E+10	1	-1E+10	1	-1E+10	1
4902554	64	C	11/13/2022	05:06	-133.775	48.440	0	1655.40	0	2.2020	0	34.5360	0	27.593	0	1634.956	0	-1e10	8	-1e10	8	-1E+10	1	-1E+10	1	-1E+10	1	-1E+10	1	-1E+10	1	-1E+10	1
4902554	64	C	11/13/2022	05:06	-133.775	48.440	0	1665.50	0	2.1970	0	34.5370	0	27.594	0	1644.892	0	-1e10	8	-1e10	8	-1E+10	1	-1E+10	1	-1E+10	1	-1E+10	1	-1E+10	1	-1E+10	1
4902554	64	C	11/13/2022	05:06	-133.775	48.440	0	1675.40	0	2.1890	0	34.5380	0	27.595	0	1654.631	0	-1e10	8	-1e10	8	-1E+10	1	-1E+10	1	-1E+10	1	-1E+10	1	-1E+10	1	-1E+10	1
4902554	64	C	11/13/2022	05:06	-133.775	48.440	0	1685.50	0	2.1810	0	34.5400	0	27.598	0	1664.566	0	-1e10	8	-1e10	8	-1E+10	1	-1E+10	1	-1E+10	1	-1E+10	1	-1E+10	1	-1E+10	1
4902554	64	C	11/13/2022	05:06	-133.775	48.440	0	1695.60	0	2.1770	0	34.5410	0	27.599	0	1674.501	0	-1e10	8	-1e10	8	-1E+10	1	-1E+10	1	-1E+10	1	-1E+10	1	-1E+10	1	-1E+10	1
4902554	64	C	11/13/2022	05:06	-133.775	48.440	0	1705.70	0	2.1610	0	34.5440	0	27.603	0	1684.435	0	-1e10	8	-1e10	8	-1E+10	1	-1E+10	1	-1E+10	1	-1E+10	1	-1E+10	1	-1E+10	1
4902554	64	C	11/13/2022	05:06	-133.775	48.440	0	1715.40	0	2.1490	0	34.5460	0	27.605	0	1693.976	0	-1e10	8	-1e10	8	-1E+10	1	-1E+10	1	-1E+10	1	-1E+10	1	-1E+10	1	-1E+10	1
4902554	64	C	11/13/2022	05:06	-133.775	48.440	0	1725.10	0	2.1420	0	34.5470	0	27.607	0	1703.516	0	-1e10	8	-1e10	8	-1E+10	1	-1E+10	1	-1E+10	1	-1E+10	1	-1E+10	1	-1E+10	1
4902554	64	C	11/13/2022	05:06	-133.775	48.440	0	1735.20	0	2.1370	0	34.5480	0	27.608	0	1713.448	0	-1e10	8	-1e10	8	-1E+10	1	-1E+10	1	-1E+10	1	-1E+10	1	-1E+10	1	-1E+10	1
4902554	64	C	11/13/2022	05:06	-133.775	48.440	0	1745.30	0	2.1260	0	34.5500	0	27.610	0	1723.381	0	-1e10	8	-1e10	8	-1E+10	1	-1E+10	1	-1E+10	1	-1E+10	1	-1E+10	1	-1E+10	1
4902554	64	C	11/13/2022	05:06	-133.775	48.440	0	1755.40	0	2.1130	0	34.5530	0	27.614	0	1733.313	0	-1e10	8	-1e10	8	-1E+10	1	-1E+10	1	-1E+10	1	-1E+10	1	-1E+10	1	-1E+10	1
4902554	64	C	11/13/2022	05:06	-133.775	48.440	0	1765.30	0	2.1050	0	34.5540	0	27.615	0	1743.048	0	-1e10	8	-1e10	8	-1E+10	1	-1E+10	1	-1E+10	1	-1E+10	1	-1E+10	1	-1E+10	1
4902554	64	C	11/13/2022	05:06	-133.775	48.440	0	1775.30	0	2.0970	0	34.5560	0	27.618	0	1752.880	0	-1e10	8	-1e10	8	-1E+10	1	-1E+10	1	-1E+10	1	-1E+10	1	-1E+10	1	-1E+10	1
4902554	64	C	11/13/2022	05:06	-133.775	48.440	0	1785.30	0	2.0830	0	34.5590	0	27.621	0	1762.713	0	-1e10	8	-1e10	8	-1E+10	1	-1E+10	1	-1E+10	1	-1E+10	1	-1E+10	1	-1E+10	1
4902554	64	C	11/13/2022	05:06	-133.775	48.440	0	1795.00	0	2.0750	0	34.5610	0	27.624	0	1772.249	0	-1e10	8	-1e10	8	-1E+10	1	-1E+10	1	-1E+10	1	-1E+10	1	-1E+10	1	-1E+10	1
4902554	64	C	11/13/2022	05:06	-133.775	48.440	0	1805.40	0	2.0690	0	34.5620	0	27.625	0	1782.474	0	-1e10	8	-1e10	8	-1E+10	1	-1E+10	1	-1E+10	1	-1E+10	1	-1E+10	1	-1E+10	1
4902554	64	C	11/13/2022	05:06	-133.775	48.440	0	1815.50	0	2.0630	0	34.5630	0	27.626	0	1792.403	0	-1e10	8	-1e10	8	-1E+10	1	-1E+10	1	-1E+10	1	-1E+10	1	-1E+10	1	-1E+10	1
4902554	64	C	11/13/2022	05:06	-133.775	48.440	0	1825.30	0	2.0570	0	34.5640	0	27.628	0	1802.037	0	-1e10	8	-1e10	8	-1E+10	1	-1E+10	1	-1E+10	1	-1E+10	1	-1E+10	1	-1E+10	1
4902554	64	C	11/13/2022	05:06	-133.775	48.440	0	1835.30	0	2.0510	0	34.5650	0	27.629	0	1811.867	0	-1e10	8	-1e10	8	-1E+10	1	-1E+10	1	-1E+10	1	-1E+10	1	-1E+10	1	-1E+10	1
4902554	64	C	11/13/2022	05:06	-133.775	48.440	0	1845.10	0	2.0470	0	34.5660	0	27.630	0	1821.500	0	-1e10	8	-1e10	8	-1E+10	1	-1E+10	1	-1E+10	1	-1E+10	1	-1E+10	1	-1E+10	1
4902554	64	C	11/13/2022	05:06	-133.775	48.440	0	1855.50	0	2.0420	0	34.5670	0	27.631	0	1831.722	0	-1e10	8	-1e10	8	-1E+10	1	-1E+10	1	-1E+10	1	-1E+10	1	-1E+10	1	-1E+10	1
4902554	64	C	11/13/2022	05:06	-133.775	48.440	0	1865.30	0	2.0370	0	34.5680	0	27.633	0	1841.354	0	-1e10	8	-1e10	8	-1E+10	1	-1E+10	1	-1E+10	1	-1E+10	1	-1E+10	1	-1E+10	1
4902554	64	C	11/13/2022	05:06	-133.775	48.440	0	1875.50	0	2.0330	0	34.5690	0	27.634	0	1851.379	0	-1e10	8	-1e10	8	-1E+10	1	-1E+10	1	-1E+10	1	-1E+10	1	-1E+10	1	-1E+10	1
4902554	64	C	11/13/2022	05:06	-133.775	48.440	0	1885.70	0	2.0260	0	34.5710	0	27.636	0	1861.403	0	-1e10	8	-1e10	8	-1E+10	1	-1E+10	1	-1E+10	1	-1E+10	1	-1E+10	1	-1E+10	1
4902554	64	C	11/13/2022	05:06	-133.775	48.440	0	1895.70	0	2.0170	0	34.5720	0	27.637	0	1871.230	0	-1e10	8	-1e10	8	-1E+10	1	-1E+10	1	-1E+10	1	-1E+10	1	-1E+10	1	-1E+10	1
4902554	64	C	11/13/2022	05:06	-133.775	48.440	0	1905.50	0	2.0130	0	34.5730	0	27.639	0	1880.860	0	-1e10	8	-1e10	8	-1E+10	1	-1E+10	1	-1E+10	1	-1E+10	1	-1E+10	1	-1E+10	1
4902554	64	C	11/13/2022	05:06	-133.775	48.440	0	1915.40	0	2.0070	0	34.5750	0	27.641	0	1890.588	0	-1e10	8	-1e10	8	-1E+10	1	-1E+10	1	-1E+10	1	-1E+10	1	-1E+10	1	-1E+10	1
4902554	64	C	11/13/2022	05:06	-133.775	48.440	0	1925.40	0	2.0030	0	34.5760	0	27.642	0	1900.414	0	-1e10	8	-1e10	8	-1E+10	1	-1E+10	1	-1E+10	1	-1E+10	1	-1E+10	1	-1E+10	1
4902554	64	C	11/13/2022	05:06	-133.775	48.440	0	1935.10	0	2.0000	0	34.5760	0	27.642	0	1909.945	0	-1e10	8	-1e10	8	-1E+10	1	-1E+10	1	-1E+10	1	-1E+10	1	-1E+10	1	-1E+10	1
4902554	64	C	11/13/2022	05:06	-133.775	48.440	0	1945.10	0	1.9950	0	34.5770	0	27.643	0	1919.770	0	-1e10	8	-1e10	8	-1E+10	1	-1E+10	1	-1E+10	1	-1E+10	1	-1E+10	1	-1E+10	1
4902554	64	C	11/13/2022	05:06	-133.775	48.440	0	1955.90	0	1.9890	0	34.5780	0	27.645	0	1930.380	0	-1e10	8	-1e10	8	-1E+10	1	-1E+10	1	-1E+10	1	-1E+10	1	-1E+10	1	-1E+10	1
4902554	64	C	11/13/2022	05:06	-133.775	48.440	0	1962.20	0	1.9840	0	34.5800	0	27.647	0	1936.569	0	-1e10	8	-1e10	8	-1E+10	1	-1E+10	1	-1E+10	1	-1E+10	1	-1E+10	1	-1E+10	1
4902554	64	C	11/13/2022	05:06	-133.775	48.440	0																										
4902554	65	C	11/23/2022	10:04	-133.618	48.307	0	0.20	0	11.5250	0	32.2360	0	24.531	0	0.198	0	-1e10	8	-1e10	8	-1E+10	1	-1E+10	1	-1E+10	1	-1E+10	1	-1E+10	1	-1E+10	1
4902554	65	C	11/23/2022	10:04	-133.618	48.307	0	1.10	0	11.5250	0	32.2350	0	24.530	0	1.091	0	-1e10	1	-1e10	1	-1E+10	1	-1E+10	1	-1E+10	1	-1E+10	1	-1E+10	1	-1E+10	1
4902554	65	C	11/23/2022	10:04	-133.618	48.307	0	1.20	0	11.5252	0	32.2350	0	24.530	0	1.190	0	-1e10	8	-1e10	8	-1E+10	1	-1E+10	1	-1E+10	1	-1E+10	1	-1E+10	1	-1E+10	1
4902554	65	C	11/23/2022	10:04	-133.618	48.307	0	1.40	0	11.5255	0	32.2350	0	24.530	0	1.388	0	-1e10	8	-1e10	8	-1E+10	1	-1E+10	1	-1E+10	1	-1E+10	1	-1E+10	1	-1E+10	1
4902554	65	C	11/23/2022	10:04	-133.618	48.307	0	2.30	0	11.5270	0	32.2350	0	24.530	0	2.281	0	-1e10	8	-1e10	8	-1E+10	1	-1E+10	1	-1E+10	1	-1E+10	1	-1E+10	1	-1E+10	1
4902554	65	C	11/23/2022	10:04	-133.618	48.307	0	3.30	0	11.5260	0	32.2360	0	24.531	0	3.272	0	-1e10	8	-1e10	8	-1E+10	1	-1E+10	1	-1E+10	1	-1E+10	1	-1E+10	1	-1E+10	1
4902554	65	C	11/23/2022	10:04	-133.618	48.307	0	4.30	0	11.5260	0	32.2370	0	24.531	0	4.264	0	-1e10	8	-1e10	8	-1E+10	1	-1E+10	1	-1E+10	1	-1E+10	1	-1E+10	1	-1E+10	1
4902554	65	C	11/23/2022	10:04	-133.618	48.307	0	5.20	0	11.5270	0	32.2360	0	24.531	0	5.156	0	-1e10	8	-1e10	8	-1E+10	1	-1E+10	1	-1E+10	1	-1E+10	1	-1E+10	1	-1E+10	1
4902554	65	C	11/23/2022	10:04	-133.618	48.307	0	6.10	0	11.5260	0	32.2360	0	24.531	0	6.049	0	-1e10	8	-1e10	8	-1E+10	1	-1E+10	1	-1E+10	1	-1E+10	1	-1E+10	1	-1E+10	1
4902554	65	C	11/23/2022	10:04	-133.618	48.307	0	6.90	0	11.5270	0	32.2360	0	24.531	0	6.842	0	-1e10	8	-1e10	8	-1E+10	1	-1E+10	1	-1E+10	1	-1E+10	1	-1E+10	1	-1E+10	1
4902554	65	C	11/23/2022	10:04	-133.618	48.307	0	7.90	0	11.5270	0	32.2360	0	24.531	0	7.833	0	-1e10	8	-1e10	8	-1E+10	1	-1E+10	1	-1E+10	1	-1E+10	1	-1E+10	1	-1E+10	1
4902554	65	C	11/23/2022	10:04	-133.618	48.307	0	9.10	0	11.5280	0	32.2360	0	24.530	0	9.023	0	-1e10	8	-1e10	8	-1E+10	1	-1E+10	1	-1E+10	1	-1E+10	1	-1E+10	1	-1E+10	1
4902554	65	C	11/23/2022	10:04	-133.618	48.307	0	10.00	0	11.5270	0	32.2360	0	24.531	0	9.916	0	-1e10	8	-1e10	8	-1E+10	1	-1E+10	1	-1E+10	1	-1E+10	1	-1E+10	1	-1E+10	1
4902554	65	C	11/23/2022	10:04	-133.618	48.307	0	11.10	0	11.5290	0	32.2360	0	24.530	0	11.006	0	-1e10	8	-1e10	8	-1E+10	1	-1E+10	1	-1E+10	1	-1E+10	1	-1E+10	1	-1E+10	1
4902554	65	C	11/23/2022	10:04	-133.618	48.307	0	12.00	0	11.5280	0	32.2360	0	24.530	0	11.899	0	-1e10	8	-1e10	8	-1E+10	1	-1E+10	1	-1E+10	1	-1E+10	1	-1E+10	1	-1E+10	1
4902554	65	C	11/23/2022	10:04	-133.618	48.307	0	13.10	0	11.5280	0	32.2360	0	24.531	0	12.989	0	-1e10	8	-1e10	8	-1E+10	1	-1E+10	1	-1E+10	1	-1E+10	1	-1E+10	1	-1E+10	1
4902554	65	C	11/23/2022	10:04	-133.618	48.307	0	13.80	0	11.5280	0	32.2360	0	24.531	0	13.683	0	-1e10	8	-1e10	8	-1E+10	1	-1E+10	1	-1E+10	1	-1E+10	1	-1E+10	1	-1E+10	1
4902554	65	C	11/23/2022	10:04	-133.618	48.307	0	14.80	0	11.5280	0	32.2370	0	24.531	0	14.675	0	-1e10	8	-1e10	8	-1E+10	1	-1E+10	1	-1E+10	1	-1E+10	1	-1E+10	1	-1E+10	1
4902554	65	C	11/23/2022	10:04	-133.618	48.307	0	15.90	0	11.5280	0	32.2360	0	24.531	0	15.766	0	-1e10	8	-1e10	8	-1E+10	1	-1E+10	1	-1E+10	1	-1E+10	1	-1E+10	1	-1E+10	1
4902554	65	C	11/23/2022	10:04	-133.618	48.307	0	16.90	0	11.5270	0	32.2360	0	24.531	0	16.757	0	-1e10	8	-1e10	8	-1E+10	1	-1E+10	1	-1E+10	1	-1E+10	1	-1E+10	1	-1E+10	1
4902554	65	C	11/23/2022	10:04	-133.618	48.307	0	17.90	0	11.5280	0	32.2360	0	24.531	0	17.749	0	-1e10	8	-1e10	8	-1E+10	1	-1E+10	1	-1E+10	1	-1E+10	1	-1E+10	1	-1E+10	1
4902554	65	C	11/23/2022	10:04	-133.618	48.307	0	18.90	0	11.5280	0	32.2360	0	24.531	0	18.740	0	-1e10	8	-1e10	8	-1E+10	1	-1E+10	1	-1E+10	1	-1E+10	1	-1E+10	1	-1E+10	1
4902554	65	C	11/23/2022	10:04	-133.618	48.307	0	20.00	0	11.5280	0	32.2360	0	24.531	0	19.831	0	-1e10	8	-1e10	8	-1E+10	1	-1E+10	1	-1E+10	1	-1E+10	1	-1E+10	1	-1E+10	1
4902554	65	C	11/23/2022	10:04	-133.618	48.307	0	21.00	0	11.5290	0	32.2360	0	24.530	0	20.822	0	-1e10	8	-1e10	8	-1E+10	1	-1E+10	1	-1E+10	1	-1E+10	1	-1E+10	1	-1E+10	1
4902554	65	C	11/23/2022	10:04	-133.618	48.307	0	22.00	0	11.5290	0	32.2360	0	24.531	0	21.814	0	-1e10	8	-1e10	8	-1E+10	1	-1E+10	1	-1E+10	1	-1E+10	1	-1E+10	1	-1E+10	1
4902554	65	C	11/23/2022	10:04	-133.618	48.307	0	23.00	0	11.5280	0	32.2360	0	24.531	0	22.805	0	-1e10	8	-1e10	8	-1E+10	1	-1E+10	1	-1E+10	1	-1E+10	1	-1E+10	1	-1E+10	1
4902554	65	C	11/23/2022	10:04	-133.618	48.307	0	24.00	0	11.5300	0	32.2360	0	24.530	0	23.797	0	-1e10	8	-1e10	8	-1E+10	1	-1E+10	1	-1E+10	1	-1E+10	1	-1E+10	1	-1E+10	1
4902554	65	C	11/23/2022	10:04	-133.618	48.307	0	25.00	0	11.5290	0	32.2360	0	24.531	0	24.788	0	-1e10	8	-1e10	8	-1E+10	1	-1E+10	1	-1E+10	1	-1E+10	1	-1E+10	1	-1E+10	1
4902554	65	C	11/23/2022	10:04	-133.618	48.307	0	26.00	0	11.5290	0	32.2370	0	24.531	0	25.779	0	-1e10	8	-1e10	8	-1E+10	1	-1E+10	1	-1E+10	1	-1E+10	1	-1E+10	1	-1E+10	1
4902554	65	C	11/23/2022	10:04	-133.618	48.307	0	26.90	0	11.5290	0	32.2370	0	24.531	0	26.672	0	-1e10	8	-1e10	8	-1E+10	1	-1E+10	1	-1E+10	1	-1E+10	1	-1E+10	1	-1E+10	1
4902554	65	C	11/23/2022	10:04	-133.618	48.307	0	27.80	0	11.5290	0	32.2370	0	24.531	0	27.564	0	-1e10	8	-1e10	8	-1E+10	1	-1E+10	1	-1E+10	1	-1E+10	1	-1E+10	1	-1E+10	1
4902554	65	C	11/23/2022	10:04	-133.618	48.307	0	28.80	0	11.5300	0	32.2360	0	24.530	0	28.556	0	-1e10	8	-1e10	8	-1E+10	1	-1E+10	1	-1E+10	1	-1E+10	1	-1E+10	1	-1E+10	1
4902554	65	C	11/23/2022	10:04	-133.618	48.307	0	30.00	0	11.5300	0	32.2360	0	24.531	0	29.745	0	-1e10	8	-1e10	8	-1E+10	1	-1E+10	1	-1E+10	1	-1E+10	1	-1E+10	1	-1E+10	1
4902554	65	C	11/23/2022	10:04	-133.618	48.307	0	31.00	0	11.5300	0	32.2360	0	24.531	0	30.737	0	-1e10	8	-1e10	8	-1E+10	1	-1E+10	1	-1E+10	1	-1E+10	1	-1E+10	1	-1E+10	1
4902554	65	C	11/23/2022	10:04	-133.618	48.307	0	32.00	0	11.5290	0	32.2360	0	24.531	0	31.728	0	-1e10	8	-1e10	8	-1E+10	1	-1E+10	1	-1E+10	1	-1E+10	1	-1E+10	1	-1E+10	1
4902554	65	C	11/23/2022	10:04	-133.618	48.307	0	33.00	0	11.5290	0	32.2370	0	24.532	0	32.720	0	-1e10	8	-1e10	8	-1E+10	1	-1E+10	1	-1E+10	1	-1E+10	1	-1E+10	1	-1E+10	1
4902554	65	C	11/23/2022	10:04	-133.618	48.307	0	34.00	0	11.5290	0	32.2360	0	24.531	0	33.711	0	-1e10	8	-1e10	8	-1E+10	1	-1E+10	1	-1E+10	1	-1E+10	1	-1E+10	1	-1E+10	1
4902554	65	C	11/23/2022	10:04	-133.618	48.307	0	34.90	0	11.5300	0	32.2360	0	24.531	0	34.603	0	-1e10	8	-1e10	8	-1E+10	1	-1E+10	1	-1E+10	1	-1E+10	1	-1E+10	1	-1E+10	1
4902554	65	C	11/23/2022	10:04	-133.618	48.307	0	35.80	0	11.5290	0	32.2370	0	24.532	0	35.496	0	-1e10	8	-1e10	8	-1E+10	1	-1E+10	1	-1E+10	1	-1E+10	1	-1E+10	1	-1E+10	1
4902554	65	C	11/23/2022	10:04	-133.618	48.307	0	36.90	0	11.5300	0	32.2360	0	24.531	0	36.586	0	-1e10	8	-1e10	8	-1E+10	1	-1E+10	1	-1E+10	1	-1E+10	1	-1E+10	1	-1E+10	1
4902554	65	C	11/23/2022	10:04	-133.618	48.307	0	37.90	0	11.5300	0	32.2370	0	24.531	0	37.577	0	-1e10	8	-1e10	8	-1E+10	1	-1E+10	1	-1E+10	1	-1E+10	1	-1E+10	1	-1E+10	1
4902554	65	C	11/23/2022	10:04	-133.618	48.307	0	39.00	0	11.5300	0	32.2360	0	24.531	0	38.668	0	-1e10	8	-1e10	8	-1E+10	1	-1E+10	1	-1E+10	1	-1E+10	1	-1E+10	1	-1E+10	1
4902554	65	C	11/23/2022	10:04	-133.618	48.307	0	39.80	0	11.5290	0	32.2370	0	24.532	0	39.461	0	-1e10	8	-1e10	8	-1E+10	1	-1E+10	1	-1E+10	1	-1E+10	1	-1E+10	1	-1E+10	1
4902554	65	C	11/23/2022	10:04	-133.618	48.307	0	40.90	0	11.5300	0	32.2360	0	24.531	0	40.552	0	-1e10	8	-1e10	8	-1E+10	1	-1E+10	1	-1E+10	1	-1E+10	1	-1E+10	1	-1E+10	1
4902554	65	C	11/23/2022	10:04	-133.618	48.307	0	42.00	0	11.5300	0	32.2370	0	24.532	0	41.642	0	-1e10	8	-1e10	8	-1E+10	1	-1E+10	1	-1E+10	1	-1E+10	1	-1E+10	1	-1E+10	1
4902554	65	C	11/23/2022	10:04	-133.618	48.307	0	42.80	0	11.5310	0	32.2360	0	24.531	0	42.435	0	-1e10	8	-1e10	8	-1E+10	1	-1E+10	1	-1E+10	1	-1E+10	1	-1E+10	1	-1E+10	1
4902554	65	C	11/23/2022	10:04	-133.618	48.307	0	43.90	0	11.5310	0	32.2370	0	24.531	0	43.526	0	-1e10	8	-1e10	8	-1E+10	1	-1E+10	1	-1E+10	1	-1E+10	1	-1E+10	1	-1E+10	1
4902554	65	C	11/23/2022	10:04	-133.618	48.307	0	45.00	0	11.5310	0	32.2370	0	24.531	0	44.616	0	-1e10	8	-1e10	8	-1E+10	1	-1E+10	1	-1E+10	1	-1E+10	1	-1E+10	1	-1E+10	1
4902554	65	C	11/23/2022	10:04	-133.618	48.307	0	45.70	0	11.5310	0	32.2370	0	24.531	0	45.310	0	-1e10	8	-1e10	8	-1E+10	1	-1E+10	1	-1E+10	1	-1E+10	1	-1E+10	1	-1E+10	1
4902554	65	C	11/23/2022	10:04	-133.618	48.307	0	46.80	0	11.5310	0	32.2370	0	24.531	0	46.401	0	-1e10	8	-1e10	8	-1E+10	1	-1E+10	1	-1E+10	1	-1E+10	1	-1E+10	1	-1E+10	1
4902554	65	C	11/23/2022	10:04	-133.618	48.307	0	47.80	0	11.5320	0	32.2370	0	24.531	0	47.392	0	-1e10	8	-1e10	8	-1E+10	1	-1E+10	1	-1E+10	1	-1E+10	1	-1E+10	1	-1E+10	1
4902554	65	C	11/23/2022	10:04	-133.618	48.307	0	48.80	0	11.5320	0	32.2360	0	24.531	0	48.383	0	-1e10	8	-1e10	8	-1E+10	1	-1E+10	1	-1E+10	1	-1E+10	1	-1E+10	1	-1E+10	1
4902554	65	C	11/23/2022	10:04	-133.618	48.307	0	49.90	0	11.5320	0	32.2370	0	24.531	0	49.474	0	-1e10	8	-1e10	8	-1E+10	1	-1E+10	1	-1E+10	1	-1E+10	1	-1E+10	1	-1E+10	1
4902554	65	C	11/23/2022	10:04	-133.618	48.307	0	50.90	0	11.5320	0	32.2370	0	24.531	0	50.465	0	-1e10	8	-1e10	8	-1E+10	1	-1E+10	1	-1E+10	1	-1E+10	1	-1E+10	1	-1E+10	1
4902554	65	C	11/23/2022	10:04	-133.618	48.307	0	52.10	0	11.5320	0	32.2360	0	24.531	0	51.655	0	-1e10	8	-1e10	8	-1E+10	1	-1E+10	1	-1E+10	1	-1E+10	1	-1E+10	1	-1E+10	1
4902554	65	C	11/23/2022	10:04	-133.618	48.307	0	52.80	0	11.5320	0	32.2370	0	24.531	0	52.349	0	-1e10	8	-1e10	8	-1E+10	1	-1E+10	1	-1E+10	1	-1E+10	1	-1E+10	1	-1E+10	1
4902554	65	C	11/23/2022	10:04	-133.618	48.307	0	53.90	0	11.5320	0	32.2370	0	24.531	0	53.439	0	-1e10	8	-1e10	8	-1E+10	1	-1E+10	1	-1E+10	1	-1E+10	1	-1E+10	1	-1E+10	1
4902554	65	C	11/23/2022	10:04	-133.618	48.307	0	55.10	0	11.5320	0	32.2370	0	24.531	0	54.629	0	-1e10	8	-1e10	8	-1E+10	1	-1E+10	1	-1E+10	1	-1E+10	1	-1E+10	1	-1E+10	1
4902554	65	C	11/23/2022	10:04	-133.618	48.307	0	55.80	0	11.5330	0	32.2360	0	24.531	0	55.323	0	-1e10	8	-1e10	8	-1E+10	1	-1E+10	1	-1E+10	1	-1E+10	1	-1E+10	1	-1E+10	1
4902554	65	C	11/23/2022	10:04	-133.618	48.307	0	56.80	0	11.5320	0	32.2360	0	24.531	0	56.314	0	-1e10	8	-1e10	8	-1E+10	1	-1E+10	1	-1E+10	1	-1E+10	1	-1E+10	1	-1E+10	1
4902554	65	C	11/23/2022	10:04	-133.618	48.307	0	57.90	0	11.5310	0	32.2360	0	24.531	0	57.404	0	-1e10	8	-1e10	8	-1E+10	1	-1E+10	1	-1E+10	1	-1E+10	1	-1E+10	1	-1E+10	1
4902554	65	C	11/23/2022	10:04	-133.618	48.307	0	58.80	0	11.5320	0	32.2360	0	24.531	0	58.297	0	-1e10	8	-1e10	8	-1E+10	1	-1E+10	1	-1E+10	1	-1E+10	1	-1E+10	1	-1E+10	1
4902554	65	C	11/23/2022	10:04	-133.618	48.307	0	60.10	0	11.5250	0	32.2360	0	24.532	0	59.585	0	-1e10	8	-1e10	8	-1E+10	1	-1E+10	1	-1E+10	1	-1E+10	1	-1E+10	1	-1E+10	1
4902554	65	C	11/23/2022	10:04	-133.618	48.307	0	60.90	0	11.5150	0	32.2370	0	24.535	0	60.378	0	-1e10	8	-1e10	8	-1E+10	1	-1E+10	1	-1E+10	1	-1E+10	1	-1E+10	1	-1E+10	1
4902554	65	C	11/23/2022	10:04	-133.618	48.307	0	61.90	0	11.4820	0	32.2400	0	24.543	0	61.370	0	-1e10	8	-1e10	8	-1E+10	1	-1E+10	1	-1E+10	1	-1E+10	1	-1E+10	1	-1E+10	1
4902554	65	C	11/23/2022	10:04	-133.618	48.307	0	63.10	0	11.3500	0	32.2540	0	24.578	0	62.559	0	-1e10	8	-1e10	8	-1E+10	1	-1E+10	1	-1E+10	1	-1E+10	1	-1E+10	1	-1E+10	1
4902554	65	C	11/23/2022	10:04	-133.618	48.307	0	64.00	0	11.2640	0	32.2600	0	24.598	0	63.451	0	-1e10	8	-1e10	8	-1E+10	1	-1E+10	1	-1E+10	1	-1E+10	1	-1E+10	1	-1E+10	1
4902554	65	C	11/23/2022	10:04	-133.618	48.307	0	65.00	0	11.0480	0	32.2690	0	24.643	0	64.443	0	-1e10	8	-1e10	8	-1E+10	1	-1E+10	1	-1E+10	1	-1E+10	1	-1E+10	1	-1E+10	1
4902554	65	C	11/23/2022	10:04	-133.618	48.307	0	65.90	0	10.7870	0	32.2870	0	24.703	0	65.335	0	-1e10	8	-1e10	8	-1E+10	1	-1E+10	1	-1E+10	1	-1E+10	1	-1E+10	1	-1E+10	1
4902554	65	C	11/23/2022	10:04	-133.618	48.307	0	66.90	0	10.4030	0	32.3190	0	24.793	0	66.326	0	-1e10	8	-1e10	8	-1E+10	1	-1E+10	1	-1E+10	1	-1E+10	1	-1E+10	1	-1E+10	1
4902554	65	C	11/23/2022	10:04	-133.618	48.307	0	67.90	0	9.8130	0	32.3700	0	24.931	0	67.317	0	-1e10	8	-1e10	8	-1E+10	1	-1E+10	1	-1E+10	1	-1E+10	1	-1E+10	1	-1E+10	1
4902554	65	C	11/23/2022	10:04	-133.618	48.307	0	68.90	0	9.3000	0	32.4050	0	25.041	0	68.308	0	-1e10	8	-1e10	8	-1E+10	1	-1E+10	1	-1E+10	1	-1E+10	1	-1E+10	1	-1E+10	1
4902554	65	C	11/23/2022	10:04	-133.618	48.307	0	70.00	0	9.1610	0	32.4080	0	25.065	0	69.399	0	-1e10	8	-1e10	8	-1E+10	1	-1E+10	1	-1E+10	1	-1E+10	1	-1E+10	1	-1E+10	1
4902554	65	C	11/23/2022	10:04	-133.618	48.307	0	71.30	0	8.9260	0	32.4450	0	25.131	0	70.687	0	-1e10	8	-1e10	8	-1E+10	1	-1E+10	1	-1E+10	1	-1E+10	1	-1E+10	1	-1E+10	1
4902554	65	C	11/23/2022	10:04	-133.618	48.307	0	72.00	0	8.8180	0	32.4340	0	25.139	0	71.381	0	-1e10	8	-1e10	8	-1E+10	1	-1E+10	1	-1E+10	1	-1E+10	1	-1E+10	1	-1E+10	1
4902554	65	C	11/23/2022	10:04	-133.618	48.307	0	73.00	0	8.6530	0	32.4490	0	25.176	0	72.373	0	-1e10	8	-1e10	8	-1E+10	1	-1E+10	1	-1E+10	1	-1E+10	1	-1E+10	1	-1E+10	1
4902554	65	C	11/23/2022	10:04	-133.618	48.307	0	73.90	0	8.4330	0	32.4580	0	25.216	0	73.265	0	-1e10	8	-1e10	8	-1E+10	1	-1E+10	1	-1E+10	1	-1E+10	1	-1E+10	1	-1E+10	1
4902554	65	C	11/23/2022	10:04	-133.618	48.307	0	75.10	0	8.1010	0	32.4720	0	25.276	0	74.454	0	-1e10	8	-1e10	8	-1E+10	1	-1E+10	1	-1E+10	1	-1E+10	1	-1E+10	1	-1E+10	1
4902554	65	C	11/23/2022	10:04	-133.618	48.307	0	75.90	0	8.0230	0	32.4750	0	25.289	0	75.247	0	-1e10	8	-1e10	8	-1E+10	1	-1E+10	1	-1E+10	1	-1E+10	1	-1E+10	1	-1E+10	1
4902554	65	C	11/23/2022	10:04	-133.618	48.307	0	77.10	0	8.0030	0	32.4750	0	25.292	0	76.437	0	-1e10	8	-1e10	8	-1E+10	1	-1E+10	1	-1E+10	1	-1E+10	1	-1E+10	1	-1E+10	1
4902554	65	C	11/23/2022	10:04	-133.618	48.307	0	78.00	0	7.9800	0	32.4740	0	25.295	0	77.329	0	-1e10	8	-1e10	8	-1E+10	1	-1E+10	1	-1E+10	1	-1E+10	1	-1E+10	1	-1E+10	1
4902554	65	C	11/23/2022	10:04	-133.618	48.307	0	79.00	0	7.9380	0	32.4730	0	25.300	0	78.320	0	-1e10	8	-1e10	8	-1E+10	1	-1E+10	1	-1E+10	1	-1E+10	1	-1E+10	1	-1E+10	1
4902554	65	C	11/23/2022	10:04	-133.618	48.307	0	80.20	0	7.9250	0	32.4730	0	25.302	0	79.509	0	-1e10	8	-1e10	8	-1E+10	1	-1E+10	1	-1E+10	1	-1E+10	1	-1E+10	1	-1E+10	1
4902554	65	C	11/23/2022	10:04	-133.618	48.307	0	80.90	0	7.9260	0	32.4700	0	25.299	0	80.203	0	-1e10	8	-1e10	8	-1E+10	1	-1E+10	1	-1E+10	1	-1E+10	1	-1E+10	1	-1E+10	1
4902554	65	C	11/23/2022	10:04	-133.618	48.307	0	82.20	0	7.8970	0	32.4710	0	25.304	0	81.492	0	-1e10	8	-1e10	8	-1E+10	1	-1E+10	1	-1E+10	1	-1E+10	1	-1E+10	1	-1E+10	1
4902554	65	C	11/23/2022	10:04	-133.618	48.307	0	82.90	0	7.7840	0	32.4660	0	25.317	0	82.186	0	-1e10	8	-1e10	8	-1E+10	1	-1E+10	1	-1E+10	1	-1E+10	1	-1E+10	1	-1E+10	1
4902554	65	C	11/23/2022	10:04	-133.618	48.307	0	83.80	0	7.6640	0	32.4650	0	25.333	0	83.078	0	-1e10	8	-1e10	8	-1E+10	1	-1E+10	1	-1E+10	1	-1E+10	1	-1E+10	1	-1E+10	1
4902554	65	C	11/23/2022	10:04	-133.618	48.307	0	84.80	0	7.6080	0	32.4720	0	25.346	0	84.069	0	-1e10	8	-1e10	8	-1E+10	1	-1E+10	1	-1E+10	1	-1E+10	1	-1E+10	1	-1E+10	1
4902554	65	C	11/23/2022	10:04	-133.618	48.307	0	85.80	0	7.5820	0	32.4720	0	25.350	0	85.060	0	-1e10	8	-1e10	8	-1E+10	1	-1E+10	1	-1E+10	1	-1E+10	1	-1E+10	1	-1E+10	1
4902554	65	C	11/23/2022	10:04	-133.618	48.307	0	86.80	0	7.5610	0	32.4700	0	25.351	0	86.051	0	-1e10	8	-1e10	8	-1E+10	1	-1E+10	1	-1E+10	1	-1E+10	1	-1E+10	1	-1E+10	1
4902554	65	C	11/23/2022	10:04	-133.618	48.307	0	87.80	0	7.5460	0	32.4720	0	25.355	0	87.042	0	-1e10	8	-1e10	8	-1E+10	1	-1E+10	1	-1E+10	1	-1E+10	1	-1E+10	1	-1E+10	1
4902554	65	C	11/23/2022	10:04	-133.618	48.307	0	88.80	0	7.5140	0	32.4740	0	25.361	0	88.033	0	-1e10	8	-1e10	8	-1E+10	1	-1E+10	1	-1E+10	1	-1E+10	1	-1E+10	1	-1E+10	1
4902554	65	C	11/23/2022	10:04	-133.618	48.307	0	89.80	0	7.4960	0	32.4740	0	25.363	0	89.025	0	-1e10	8	-1e10	8	-1E+10	1	-1E+10	1	-1E+10	1	-1E+10	1	-1E+10	1	-1E+10	1
4902554	65	C	11/23/2022	10:04	-133.618	48.307	0	90.80	0	7.4410	0	32.4760	0	25.372	0	90.016	0	-1e10	8	-1e10	8	-1E+10	1	-1E+10	1	-1E+10	1	-1E+10	1	-1E+10	1	-1E+10	1
4902554	65	C	11/23/2022	10:04	-133.618	48.307	0	91.80	0	7.3700	0	32.4800	0	25.385	0	91.007	0	-1e10	8	-1e10	8	-1E+10	1	-1E+10	1	-1E+10	1	-1E+10	1	-1E+10	1	-1E+10	1
4902554	65	C	11/23/2022	10:04	-133.618	48.307	0	92.90	0	7.3180	0	32.4830	0	25.395	0	92.097	0	-1e10	8	-1e10	8	-1E+10	1	-1E+10	1	-1E+10	1	-1E+10	1	-1E+10	1	-1E+10	1
4902554	65	C	11/23/2022	10:04	-133.618	48.307	0	94.30	0	7.2770	0	32.4810	0	25.399	0	93.485	0	-1e10	8	-1e10	8	-1E+10	1	-1E+10	1	-1E+10	1	-1E+10	1	-1E+10	1	-1E+10	1
4902554	65	C	11/23/2022	10:04	-133.618	48.307	0	94.90	0	7.2530	0	32.4810	0	25.402	0	94.079	0	-1e10	8	-1e10	8	-1E+10	1	-1E+10	1	-1E+10	1	-1E+10	1	-1E+10	1	-1E+10	1
4902554	65	C	11/23/2022	10:04	-133.618	48.307	0	95.80	0	7.2100	0	32.4820	0	25.409	0	94.971	0	-1e10	8	-1e10	8	-1E+10	1	-1E+10	1	-1E+10	1	-1E+10	1	-1E+10	1	-1E+10	1
4902554	65	C	11/23/2022	10:04	-133.618	48.307	0	97.10	0	7.1430	0	32.4850	0	25.420	0	96.260	0	-1e10	8	-1e10	8	-1E+10	1	-1E+10	1	-1E+10	1	-1E+10	1	-1E+10	1	-1E+10	1
4902554	65	C	11/23/2022	10:04	-133.618	48.307	0	98.00	0	7.1000	0	32.4870	0	25.428	0	97.152	0	-1e10	8	-1e10	8	-1E+10	1	-1E+10	1	-1E+10	1	-1E+10	1	-1E+10	1	-1E+10	1
4902554	65	C	11/23/2022	10:04	-133.618	48.307	0	98.90	0	7.0540	0	32.4930	0	25.439	0	98.044	0	-1e10	8	-1e10	8	-1E+10	1	-1E+10	1	-1E+10	1	-1E+10	1	-1E+10	1	-1E+10	1
4902554	65	C	11/23/2022	10:04	-133.618	48.307	0	99.90	0	7.0250	0	32.4970	0	25.446	0	99.035	0	-1e10	8	-1e10	8	-1E+10	1	-1E+10	1	-1E+10	1	-1E+10	1	-1E+10	1	-1E+10	1
4902554	65	C	11/23/2022	10:04	-133.618	48.307	0	100.80	0	7.0030	0	32.4990	0	25.450	0	99.927	0	-1e10	8	-1e10	8	-1E+10	1	-1E+10	1	-1E+10	1	-1E+10	1	-1E+10	1	-1E+10	1
4902554	65	C	11/23/2022	10:04	-133.618	48.307	0	101.80	0	6.9700	0	32.5040	0	25.458	0	100.918	0	-1e10	8	-1e10	8	-1E+10	1	-1E+10	1	-1E+10	1	-1E+10	1	-1E+10	1	-1E+10	1
4902554	65	C	11/23/2022	10:04	-133.618	48.307	0	102.80	0	6.9510	0	32.5060	0	25.463	0	101.909	0	-1e10	8	-1e10	8	-1E+10	1	-1E+10	1	-1E+10	1	-1E+10	1	-1E+10	1	-1E+10	1
4902554	65	C	11/23/2022	10:04	-133.618	48.307	0	103.90	0	6.9300	0	32.5100	0	25.468	0	102.999	0	-1e10	8	-1e10	8	-1E+10	1	-1E+10	1	-1E+10	1	-1E+10	1	-1E+10	1	-1E+10	1
4902554	65	C	11/23/2022	10:04	-133.618	48.307	0	105.00	0	6.8940	0	32.5200	0	25.481	0	104.089	0	-1e10	8	-1e10	8	-1E+10	1	-1E+10	1	-1E+10	1	-1E+10	1	-1E+10	1	-1E+10	1
4902554	65	C	11/23/2022	10:04	-133.618	48.307	0	105.90	0	6.8890	0	32.5240	0	25.485	0	104.981	0	-1e10	8	-1e10	8	-1E+10	1	-1E+10	1	-1E+10	1	-1E+10	1	-1E+10	1	-1E+10	1
4902554	65	C	11/23/2022	10:04	-133.618	48.307	0	106.80	0	6.8710	0	32.5330	0	25.494	0	105.873	0	-1e10	8	-1e10	8	-1E+10	1	-1E+10	1	-1E+10	1	-1E+10	1	-1E+10	1	-1E+10	1
4902554	65	C	11/23/2022	10:04	-133.618	48.307	0	107.90	0	6.8460	0	32.5400	0	25.503	0	106.964	0	-1e10	8	-1e10	8	-1E+10	1	-1E+10	1	-1E+10	1	-1E+10	1	-1E+10	1	-1E+10	1
4902554	65	C	11/23/2022	10:04	-133.618	48.307	0	108.80	0	6.8280	0	32.5480	0	25.512	0	107.856	0	-1e10	8	-1e10	8	-1E+10	1	-1E+10	1	-1E+10	1	-1E+10	1	-1E+10	1	-1E+10	1
4902554	65	C	11/23/2022	10:04	-133.618	48.307	0	109.80	0	6.8140	0	32.5610	0	25.524	0	108.847	0	-1e10	8	-1e10	8	-1E+10	1	-1E+10	1	-1E+10	1	-1E+10	1	-1E+10	1	-1E+10	1
4902554	65	C	11/23/2022	10:04	-133.618	48.307	0	111.00	0	6.7980	0	32.5810	0	25.542	0	110.036	0	-1e10	8	-1e10	8	-1E+10	1	-1E+10	1	-1E+10	1	-1E+10	1	-1E+10	1	-1E+10	1
4902554	65	C	11/23/2022	10:04	-133.618	48.307	0	112.10	0	6.7940	0	32.5900	0	25.549	0	111.126	0	-1e10	8	-1e10	8	-1E+10	1	-1E+10	1	-1E+10	1	-1E+10	1	-1E+10	1	-1E+10	1
4902554	65	C	11/23/2022	10:04	-133.618	48.307	0	113.00	0	6.7950	0	32.5940	0	25.553	0	112.018	0	-1e10	8	-1e10	8	-1E+10	1	-1E+10	1	-1E+10	1	-1E+10	1	-1E+10	1	-1E+10	1
4902554	65	C	11/23/2022	10:04	-133.618	48.307	0	114.00	0	6.7970	0	32.5990	0	25.556	0	113.009	0	-1e10	8	-1e10	8	-1E+10	1	-1E+10	1	-1E+10	1	-1E+10	1	-1E+10	1	-1E+10	1
4902554	65	C	11/23/2022	10:04	-133.618	48.307	0	114.80	0	6.8000	0	32.6040	0	25.560	0	113.802	0	-1e10	8	-1e10	8	-1E+10	1	-1E+10	1	-1E+10	1	-1E+10	1	-1E+10	1	-1E+10	1
4902554	65	C	11/23/2022	10:04	-133.618	48.307	0	116.00	0	6.8060	0	32.6080	0	25.562	0	114.991	0	-1e10	8	-1e10	8	-1E+10	1	-1E+10	1	-1E+10	1	-1E+10	1	-1E+10	1	-1E+10	1
4902554	65	C	11/23/2022	10:04	-133.618	48.307	0	117.10	0	6.7980	0	32.6250	0	25.577	0	116.081	0	-1e10	8	-1e10	8	-1E+10	1	-1E+10	1	-1E+10	1	-1E+10	1	-1E+10	1	-1E+10	1
4902554	65	C	11/23/2022	10:04	-133.618	48.307	0	118.00	0	6.7850	0	32.6380	0	25.589	0	116.973	0	-1e10	8	-1e10	8	-1E+10	1	-1E+10	1	-1E+10	1	-1E+10	1	-1E+10	1	-1E+10	1
4902554	65	C	11/23/2022	10:04	-133.618	48.307	0	118.90	0	6.7680	0	32.6610	0	25.609	0	117.865	0	-1e10	8	-1e10	8	-1E+10	1	-1E+10	1	-1E+10	1	-1E+10	1	-1E+10	1	-1E+10	1
4902554	65	C	11/23/2022	10:04	-133.618	48.307	0	119.80	0	6.7460	0	32.6920	0	25.636	0	118.757	0	-1e10	8	-1e10	8	-1E+10	1	-1E+10	1	-1E+10	1	-1E+10	1	-1E+10	1	-1E+10	1
4902554	65	C	11/23/2022	10:04	-133.618	48.307	0	120.90	0	6.7300	0	32.7180	0	25.659	0	119.847	0	-1e10	8	-1e10	8	-1E+10	1	-1E+10	1	-1E+10	1	-1E+10	1	-1E+10	1	-1E+10	1
4902554	65	C	11/23/2022	10:04	-133.618	48.307	0	121.90	0	6.7240	0	32.7260	0	25.666	0	120.838	0	-1e10	8	-1e10	8	-1E+10	1	-1E+10	1	-1E+10	1	-1E+10	1	-1E+10	1	-1E+10	1
4902554	65	C	11/23/2022	10:04	-133.618	48.307	0	122.90	0	6.7170	0	32.7360	0	25.675	0	121.829	0	-1e10	8	-1e10	8	-1E+10	1	-1E+10	1	-1E+10	1	-1E+10	1	-1E+10	1	-1E+10	1
4902554	65	C	11/23/2022	10:04	-133.618	48.307	0	123.90	0	6.7150	0	32.7380	0	25.677	0	122.820	0	-1e10	8	-1e10	8	-1E+10	1	-1E+10	1	-1E+10	1	-1E+10	1	-1E+10	1	-1E+10	1
4902554	65	C	11/23/2022	10:04	-133.618	48.307	0	124.90	0	6.7130	0	32.7410	0	25.679	0	123.811	0	-1e10	8	-1e10	8	-1E+10	1	-1E+10	1	-1E+10	1	-1E+10	1	-1E+10	1	-1E+10	1
4902554	65	C	11/23/2022	10:04	-133.618	48.307	0	125.90	0	6.7130	0	32.7430	0	25.681	0	124.802	0	-1e10	8	-1e10	8	-1E+10	1	-1E+10	1	-1E+10	1	-1E+10	1	-1E+10	1	-1E+10	1
4902554	65	C	11/23/2022	10:04	-133.618	48.307	0	126.80	0	6.7120	0	32.7460	0	25.683	0	125.694	0	-1e10	8	-1e10	8	-1E+10	1	-1E+10	1	-1E+10	1	-1E+10	1	-1E+10	1	-1E+10	1
4902554	65	C	11/23/2022	10:04	-133.618	48.307	0	127.80	0	6.7070	0	32.7600	0	25.695	0	126.685	0	-1e10	8	-1e10	8	-1E+10	1	-1E+10	1	-1E+10	1	-1E+10	1	-1E+10	1	-1E+10	1
4902554	65	C	11/23/2022	10:04	-133.618	48.307	0	128.90	0	6.7010	0	32.7750	0	25.708	0	127.775	0	-1e10	8	-1e10	8	-1E+10	1	-1E+10	1	-1E+10	1	-1E+10	1	-1E+10	1	-1E+10	1
4902554	65	C	11/23/2022	10:04	-133.618	48.307	0	130.10	0	6.6800	0	32.7870	0	25.720	0	128.964	0	-1e10	8	-1e10	8	-1E+10	1	-1E+10	1	-1E+10	1	-1E+10	1	-1E+10	1	-1E+10	1
4902554	65	C	11/23/2022	10:04	-133.618	48.307	0	131.10	0	6.6280	0	32.8200	0	25.753	0	129.955	0	-1e10	8	-1e10	8	-1E+10	1	-1E+10	1	-1E+10	1	-1E+10	1	-1E+10	1	-1E+10	1
4902554	65	C	11/23/2022	10:04	-133.618	48.307	0	132.10	0	6.5680	0	32.8770	0	25.805	0	130.946	0	-1e10	8	-1e10	8	-1E+10	1	-1E+10	1	-1E+10	1	-1E+10	1	-1E+10	1	-1E+10	1
4902554	65	C	11/23/2022	10:04	-133.618	48.307	0	133.10	0	6.5430	0	32.8950	0	25.823	0	131.937	0	-1e10	8	-1e10	8	-1E+10	1	-1E+10	1	-1E+10	1	-1E+10	1	-1E+10	1	-1E+10	1
4902554	65	C	11/23/2022	10:04	-133.618	48.307	0	134.00	0	6.5310	0	32.9110	0	25.837	0	132.829	0	-1e10	8	-1e10	8	-1E+10	1	-1E+10	1	-1E+10	1	-1E+10	1	-1E+10	1	-1E+10	1
4902554	65	C	11/23/2022	10:04	-133.618	48.307	0	134.70	0	6.5310	0	32.9190	0	25.843	0	133.522	0	-1e10	8	-1e10	8	-1E+10	1	-1E+10	1	-1E+10	1	-1E+10	1	-1E+10	1	-1E+10	1
4902554	65	C	11/23/2022	10:04	-133.618	48.307	0	135.80	0	6.5220	0	32.9290	0	25.852	0	134.612	0	-1e10	8	-1e10	8	-1E+10	1	-1E+10	1	-1E+10	1	-1E+10	1	-1E+10	1	-1E+10	1
4902554	65	C	11/23/2022	10:04	-133.618	48.307	0	137.00	0	6.5130	0	32.9380	0	25.861	0	135.801	0	-1e10	8	-1e10	8	-1E+10	1	-1E+10	1	-1E+10	1	-1E+10	1	-1E+10	1	-1E+10	1
4902554	65	C	11/23/2022	10:04	-133.618	48.307	0	138.10	0	6.4800	0	32.9680	0	25.888	0	136.891	0	-1e10	8	-1e10	8	-1E+10	1	-1E+10	1	-1E+10	1	-1E+10	1	-1E+10	1	-1E+10	1
4902554	65	C	11/23/2022	10:04	-133.618	48.307	0	139.00	0	6.4560	0	32.9970	0	25.914	0	137.783	0	-1e10	8	-1e10	8	-1E+10	1	-1E+10	1	-1E+10	1	-1E+10	1	-1E+10	1	-1E+10	1
4902554	65	C	11/23/2022	10:04	-133.618	48.307	0	139.90	0	6.4480	0	33.0020	0	25.919	0	138.675	0	-1e10	8	-1e10	8	-1E+10	1	-1E+10	1	-1E+10	1	-1E+10	1	-1E+10	1	-1E+10	1
4902554	65	C	11/23/2022	10:04	-133.618	48.307	0	140.90	0	6.4300	0	33.0180	0	25.934	0	139.666	0	-1e10	8	-1e10	8	-1E+10	1	-1E+10	1	-1E+10	1	-1E+10	1	-1E+10	1	-1E+10	1
4902554	65	C	11/23/2022	10:04	-133.618	48.307	0	141.80	0	6.4100	0	33.0360	0	25.951	0	140.558	0	-1e10	8	-1e10	8	-1E+10	1	-1E+10	1	-1E+10	1	-1E+10	1	-1E+10	1	-1E+10	1
4902554	65	C	11/23/2022	10:04	-133.618	48.307	0	142.90	0	6.3730	0	33.0820	0	25.992	0	141.648	0	-1e10	8	-1e10	8	-1E+10	1	-1E+10	1	-1E+10	1	-1E+10	1	-1E+10	1	-1E+10	1
4902554	65	C	11/23/2022	10:04	-133.618	48.307	0	143.90	0	6.3520	0	33.1130	0	26.019	0	142.639	0	-1e10	8	-1e10	8	-1E+10	1	-1E+10	1	-1E+10	1	-1E+10	1	-1E+10	1	-1E+10	1
4902554	65	C	11/23/2022	10:04	-133.618	48.307	0	145.00	0	6.3210	0	33.1710	0	26.069	0	143.729	0	-1e10	8	-1e10	8	-1E+10	1	-1E+10	1	-1E+10	1	-1E+10	1	-1E+10	1	-1E+10	1
4902554	65	C	11/23/2022	10:04	-133.618	48.307	0	146.00	0	6.2960	0	33.1990	0	26.094	0	144.720	0	-1e10	8	-1e10	8	-1E+10	1	-1E+10	1	-1E+10	1	-1E+10	1	-1E+10	1	-1E+10	1
4902554	65	C	11/23/2022	10:04	-133.618	48.307	0	147.10	0	6.2790	0	33.2260	0	26.118	0	145.810	0	-1e10	8	-1e10	8	-1E+10	1	-1E+10	1	-1E+10	1	-1E+10	1	-1E+10	1	-1E+10	1
4902554	65	C	11/23/2022	10:04	-133.618	48.307	0	147.80	0	6.2680	0	33.2360	0	26.127	0	146.503	0	-1e10	8	-1e10	8	-1E+10	1	-1E+10	1	-1E+10	1	-1E+10	1	-1E+10	1	-1E+10	1
4902554	65	C	11/23/2022	10:04	-133.618	48.307	0	148.80	0	6.2400	0	33.2520	0	26.143	0	147.494	0	-1e10	8	-1e10	8	-1E+10	1	-1E+10	1	-1E+10	1	-1E+10	1	-1E+10	1	-1E+10	1
4902554	65	C	11/23/2022	10:04	-133.618	48.307	0	150.00	0	6.2170	0	33.2650	0	26.156	0	148.683	0	-1e10	8	-1e10	8	-1E+10	1	-1E+10	1	-1E+10	1	-1E+10	1	-1E+10	1	-1E+10	1
4902554	65	C	11/23/2022	10:04	-133.618	48.307	0	150.70	0	6.1760	0	33.2920	0	26.183	0	149.377	0	-1e10	8	-1e10	8	-1E+10	1	-1E+10	1	-1E+10	1	-1E+10	1	-1E+10	1	-1E+10	1
4902554	65	C	11/23/2022	10:04	-133.618	48.307	0	151.90	0	6.1600	0	33.3110	0	26.200	0	150.566	0	-1e10	8	-1e10	8	-1E+10	1	-1E+10	1	-1E+10	1	-1E+10	1	-1E+10	1	-1E+10	1
4902554	65	C	11/23/2022	10:04	-133.618	48.307	0	153.00	0	6.1300	0	33.3370	0	26.224	0	151.656	0	-1e10	8	-1e10	8	-1E+10	1	-1E+10	1	-1E+10	1	-1E+10	1	-1E+10	1	-1E+10	1
4902554	65	C	11/23/2022	10:04	-133.618	48.307	0	153.80	0	6.1190	0	33.3540	0	26.239	0	152.448	0	-1e10	8	-1e10	8	-1E+10	1	-1E+10	1	-1E+10	1	-1E+10	1	-1E+10	1	-1E+10	1
4902554	65	C	11/23/2022	10:04	-133.618	48.307	0	154.90	0	6.1160	0	33.3570	0	26.242	0	153.538	0	-1e10	8	-1e10	8	-1E+10	1	-1E+10	1	-1E+10	1	-1E+10	1	-1E+10	1	-1E+10	1
4902554	65	C	11/23/2022	10:04	-133.618	48.307	0	156.10	0	6.1070	0	33.3610	0	26.246	0	154.727	0	-1e10	8	-1e10	8	-1E+10	1	-1E+10	1	-1E+10	1	-1E+10	1	-1E+10	1	-1E+10	1
4902554	65	C	11/23/2022	10:04	-133.618	48.307	0	156.80	0	6.1050	0	33.3630	0	26.248	0	155.421	0	-1e10	8	-1e10	8	-1E+10	1	-1E+10	1	-1E+10	1	-1E+10	1	-1E+10	1	-1E+10	1
4902554	65	C	11/23/2022	10:04	-133.618	48.307	0	157.90	0	6.0770	0	33.3770	0	26.262	0	156.511	0	-1e10	8	-1e10	8	-1E+10	1	-1E+10	1	-1E+10	1	-1E+10	1	-1E+10	1	-1E+10	1
4902554	65	C	11/23/2022	10:04	-133.618	48.307	0	159.10	0	6.0520	0	33.3920	0	26.277	0	157.700	0	-1e10	8	-1e10	8	-1E+10	1	-1E+10	1	-1E+10	1	-1E+10	1	-1E+10	1	-1E+10	1
4902554	65	C	11/23/2022	10:04	-133.618	48.307	0	159.90	0	6.0310	0	33.4060	0	26.291	0	158.492	0	-1e10	8	-1e10	8	-1E+10	1	-1E+10	1	-1E+10	1	-1E+10	1	-1E+10	1	-1E+10	1
4902554	65	C	11/23/2022	10:04	-133.618	48.307	0	160.70	0	6.0100	0	33.4220	0	26.306	0	159.285	0	-1e10	8	-1e10	8	-1E+10	1	-1E+10	1	-1E+10	1	-1E+10	1	-1E+10	1	-1E+10	1
4902554	65	C	11/23/2022	10:04	-133.618	48.307	0	162.00	0	5.9960	0	33.4310	0	26.315	0	160.573	0	-1e10	8	-1e10	8	-1E+10	1	-1E+10	1	-1E+10	1	-1E+10	1	-1E+10	1	-1E+10	1
4902554	65	C	11/23/2022	10:04	-133.618	48.307	0	163.20	0	5.9890	0	33.4360	0	26.320	0	161.762	0	-1e10	8	-1e10	8	-1E+10	1	-1E+10	1	-1E+10	1	-1E+10	1	-1E+10	1	-1E+10	1
4902554	65	C	11/23/2022	10:04	-133.618	48.307	0	164.00	0	5.9830	0	33.4380	0	26.322	0	162.555	0	-1e10	8	-1e10	8	-1E+10	1	-1E+10	1	-1E+10	1	-1E+10	1	-1E+10	1	-1E+10	1
4902554	65	C	11/23/2022	10:04	-133.618	48.307	0	164.80	0	5.9790	0	33.4400	0	26.324	0	163.347	0	-1e10	8	-1e10	8	-1E+10	1	-1E+10	1	-1E+10	1	-1E+10	1	-1E+10	1	-1E+10	1
4902554	65	C	11/23/2022	10:04	-133.618	48.307	0	166.00	0	5.9740	0	33.4450	0	26.329	0	164.536	0	-1e10	8	-1e10	8	-1E+10	1	-1E+10	1	-1E+10	1	-1E+10	1	-1E+10	1	-1E+10	1
4902554	65	C	11/23/2022	10:04	-133.618	48.307	0	167.10	0	5.9830	0	33.4650	0	26.344	0	165.626	0	-1e10	8	-1e10	8	-1E+10	1	-1E+10	1	-1E+10	1	-1E+10	1	-1E+10	1	-1E+10	1
4902554	65	C	11/23/2022	10:04	-133.618	48.307	0	167.90	0	5.9840	0	33.4670	0	26.345	0	166.419	0	-1e10	8	-1e10	8	-1E+10	1	-1E+10	1	-1E+10	1	-1E+10	1	-1E+10	1	-1E+10	1
4902554	65	C	11/23/2022	10:04	-133.618	48.307	0	168.70	0	5.9850	0	33.4680	0	26.346	0	167.211	0	-1e10	8	-1e10	8	-1E+10	1	-1E+10	1	-1E+10	1	-1E+10	1	-1E+10	1	-1E+10	1
4902554	65	C	11/23/2022	10:04	-133.618	48.307	0	169.60	0	5.9840	0	33.4800	0	26.356	0	168.103	0	-1e10	8	-1e10	8	-1E+10	1	-1E+10	1	-1E+10	1	-1E+10	1	-1E+10	1	-1E+10	1
4902554	65	C	11/23/2022	10:04	-133.618	48.307	0	170.90	0	5.9690	0	33.5130	0	26.383	0	169.391	0	-1e10	8	-1e10	8	-1E+10	1	-1E+10	1	-1E+10	1	-1E+10	1	-1E+10	1	-1E+10	1
4902554	65	C	11/23/2022	10:04	-133.618	48.307	0	172.20	0	5.9540	0	33.5310	0	26.400	0	170.679	0	-1e10	8	-1e10	8	-1E+10	1	-1E+10	1	-1E+10	1	-1E+10	1	-1E+10	1	-1E+10	1
4902554	65	C	11/23/2022	10:04	-133.618	48.307	0	173.10	0	5.9440	0	33.5350	0	26.404	0	171.571	0	-1e10	8	-1e10	8	-1E+10	1	-1E+10	1	-1E+10	1	-1E+10	1	-1E+10	1	-1E+10	1
4902554	65	C	11/23/2022	10:04	-133.618	48.307	0	174.00	0	5.8780	0	33.5650	0	26.436	0	172.462	0	-1e10	8	-1e10	8	-1E+10	1	-1E+10	1	-1E+10	1	-1E+10	1	-1E+10	1	-1E+10	1
4902554	65	C	11/23/2022	10:04	-133.618	48.307	0	175.00	0	5.8690	0	33.5710	0	26.442	0	173.453	0	-1e10	8	-1e10	8	-1E+10	1	-1E+10	1	-1E+10	1	-1E+10	1	-1E+10	1	-1E+10	1
4902554	65	C	11/23/2022	10:04	-133.618	48.307	0	175.90	0	5.8680	0	33.5710	0	26.442	0	174.345	0	-1e10	8	-1e10	8	-1E+10	1	-1E+10	1	-1E+10	1	-1E+10	1	-1E+10	1	-1E+10	1
4902554	65	C	11/23/2022	10:04	-133.618	48.307	0	176.90	0	5.8660	0	33.5740	0	26.444	0	175.335	0	-1e10	8	-1e10	8	-1E+10	1	-1E+10	1	-1E+10	1	-1E+10	1	-1E+10	1	-1E+10	1
4902554	65	C	11/23/2022	10:04	-133.618	48.307	0	177.80	0	5.8530	0	33.5780	0	26.449	0	176.227	0	-1e10	8	-1e10	8	-1E+10	1	-1E+10	1	-1E+10	1	-1E+10	1	-1E+10	1	-1E+10	1
4902554	65	C	11/23/2022	10:04	-133.618	48.307	0	178.80	0	5.8290	0	33.5790	0	26.453	0	177.218	0	-1e10	8	-1e10	8	-1E+10	1	-1E+10	1	-1E+10	1	-1E+10	1	-1E+10	1	-1E+10	1
4902554	65	C	11/23/2022	10:04	-133.618	48.307	0	179.70	0	5.7640	0	33.5990	0	26.477	0	178.109	0	-1e10	8	-1e10	8	-1E+10	1	-1E+10	1	-1E+10	1	-1E+10	1	-1E+10	1	-1E+10	1
4902554	65	C	11/23/2022	10:04	-133.618	48.307	0	180.70	0	5.7650	0	33.6110	0	26.486	0	179.100	0	-1e10	8	-1e10	8	-1E+10	1	-1E+10	1	-1E+10	1	-1E+10	1	-1E+10	1	-1E+10	1
4902554	65	C	11/23/2022	10:04	-133.618	48.307	0	181.70	0	5.7580	0	33.6160	0	26.491	0	180.091	0	-1e10	8	-1e10	8	-1E+10	1	-1E+10	1	-1E+10	1	-1E+10	1	-1E+10	1	-1E+10	1
4902554	65	C	11/23/2022	10:04	-133.618	48.307	0	182.70	0	5.7390	0	33.6300	0	26.504	0	181.082	0	-1e10	8	-1e10	8	-1E+10	1	-1E+10	1	-1E+10	1	-1E+10	1	-1E+10	1	-1E+10	1
4902554	65	C	11/23/2022	10:04	-133.618	48.307	0	183.70	0	5.7190	0	33.6330	0	26.509	0	182.072	0	-1e10	8	-1e10	8	-1E+10	1	-1E+10	1	-1E+10	1	-1E+10	1	-1E+10	1	-1E+10	1
4902554	65	C	11/23/2022	10:04	-133.618	48.307	0	184.70	0	5.7020	0	33.6380	0	26.515	0	183.063	0	-1e10	8	-1e10	8	-1E+10	1	-1E+10	1	-1E+10	1	-1E+10	1	-1E+10	1	-1E+10	1
4902554	65	C	11/23/2022	10:04	-133.618	48.307	0	185.80	0	5.7010	0	33.6370	0	26.514	0	184.153	0	-1e10	8	-1e10	8	-1E+10	1	-1E+10	1	-1E+10	1	-1E+10	1	-1E+10	1	-1E+10	1
4902554	65	C	11/23/2022	10:04	-133.618	48.307	0	186.80	0	5.6930	0	33.6440	0	26.521	0	185.143	0	-1e10	8	-1e10	8	-1E+10	1	-1E+10	1	-1E+10	1	-1E+10	1	-1E+10	1	-1E+10	1
4902554	65	C	11/23/2022	10:04	-133.618	48.307	0	187.80	0	5.6830	0	33.6490	0	26.526	0	186.134	0	-1e10	8	-1e10	8	-1E+10	1	-1E+10	1	-1E+10	1	-1E+10	1	-1E+10	1	-1E+10	1
4902554	65	C	11/23/2022	10:04	-133.618	48.307	0	188.80	0	5.6810	0	33.6510	0	26.528	0	187.125	0	-1e10	8	-1e10	8	-1E+10	1	-1E+10	1	-1E+10	1	-1E+10	1	-1E+10	1	-1E+10	1
4902554	65	C	11/23/2022	10:04	-133.618	48.307	0	189.80	0	5.6800	0	33.6500	0	26.527	0	188.116	0	-1e10	8	-1e10	8	-1E+10	1	-1E+10	1	-1E+10	1	-1E+10	1	-1E+10	1	-1E+10	1
4902554	65	C	11/23/2022	10:04	-133.618	48.307	0	190.80	0	5.6690	0	33.6580	0	26.535	0	189.106	0	-1e10	8	-1e10	8	-1E+10	1	-1E+10	1	-1E+10	1	-1E+10	1	-1E+10	1	-1E+10	1
4902554	65	C	11/23/2022	10:04	-133.618	48.307	0	191.80	0	5.6190	0	33.6750	0	26.554	0	190.097	0	-1e10	8	-1e10	8	-1E+10	1	-1E+10	1	-1E+10	1	-1E+10	1	-1E+10	1	-1E+10	1
4902554	65	C	11/23/2022	10:04	-133.618	48.307	0	192.80	0	5.6080	0	33.6740	0	26.555	0	191.088	0	-1e10	8	-1e10	8	-1E+10	1	-1E+10	1	-1E+10	1	-1E+10	1	-1E+10	1	-1E+10	1
4902554	65	C	11/23/2022	10:04	-133.618	48.307	0	193.80	0	5.6050	0	33.6780	0	26.559	0	192.078	0	-1e10	8	-1e10	8	-1E+10	1	-1E+10	1	-1E+10	1	-1E+10	1	-1E+10	1	-1E+10	1
4902554	65	C	11/23/2022	10:04	-133.618	48.307	0	194.90	0	5.5940	0	33.6800	0	26.561	0	193.168	0	-1e10	8	-1e10	8	-1E+10	1	-1E+10	1	-1E+10	1	-1E+10	1	-1E+10	1	-1E+10	1
4902554	65	C	11/23/2022	10:04	-133.618	48.307	0	195.90	0	5.5950	0	33.6870	0	26.567	0	194.159	0	-1e10	8	-1e10	8	-1E+10	1	-1E+10	1	-1E+10	1	-1E+10	1	-1E+10	1	-1E+10	1
4902554	65	C	11/23/2022	10:04	-133.618	48.307	0	197.00	0	5.5800	0	33.6930	0	26.573	0	195.248	0	-1e10	8	-1e10	8	-1E+10	1	-1E+10	1	-1E+10	1	-1E+10	1	-1E+10	1	-1E+10	1
4902554	65	C	11/23/2022	10:04	-133.618	48.307	0	198.10	0	5.5770	0	33.6930	0	26.574	0	196.338	0	-1e10	8	-1e10	8	-1E+10	1	-1E+10	1	-1E+10	1	-1E+10	1	-1E+10	1	-1E+10	1
4902554	65	C	11/23/2022	10:04	-133.618	48.307	0	199.10	0	5.5710	0	33.6940	0	26.575	0	197.329	0	-1e10	8	-1e10	8	-1E+10	1	-1E+10	1	-1E+10	1	-1E+10	1	-1E+10	1	-1E+10	1
4902554	65	C	11/23/2022	10:04	-133.618	48.307	0	200.20	0	5.5670	0	33.6950	0	26.577	0	198.418	0	-1e10	8	-1e10	8	-1E+10	1	-1E+10	1	-1E+10	1	-1E+10	1	-1E+10	1	-1E+10	1
4902554	65	C	11/23/2022	10:04	-133.618	48.307	0	201.30	0	5.5590	0	33.6970	0	26.579	0	199.508	0	-1e10	8	-1e10	8	-1E+10	1	-1E+10	1	-1E+10	1	-1E+10	1	-1E+10	1	-1E+10	1
4902554	65	C	11/23/2022	10:04	-133.618	48.307	0	202.30	0	5.5500	0	33.6980	0	26.581	0	200.499	0	-1e10	8	-1e10	8	-1E+10	1	-1E+10	1	-1E+10	1	-1E+10	1	-1E+10	1	-1E+10	1
4902554	65	C	11/23/2022	10:04	-133.618	48.307	0	203.40	0	5.5330	0	33.7000	0	26.585	0	201.588	0	-1e10	8	-1e10	8	-1E+10	1	-1E+10	1	-1E+10	1	-1E+10	1	-1E+10	1	-1E+10	1
4902554	65	C	11/23/2022	10:04	-133.618	48.307	0	204.40	0	5.5220	0	33.7010	0	26.587	0	202.579	0	-1e10	8	-1e10	8	-1E+10	1	-1E+10	1	-1E+10	1	-1E+10	1	-1E+10	1	-1E+10	1
4902554	65	C	11/23/2022	10:04	-133.618	48.307	0	205.50	0	5.4890	0	33.7110	0	26.599	0	203.668	0	-1e10	8	-1e10	8	-1E+10	1	-1E+10	1	-1E+10	1	-1E+10	1	-1E+10	1	-1E+10	1
4902554	65	C	11/23/2022	10:04	-133.618	48.307	0	206.50	0	5.4530	0	33.7090	0	26.601	0	204.659	0	-1e10	8	-1e10	8	-1E+10	1	-1E+10	1	-1E+10	1	-1E+10	1	-1E+10	1	-1E+10	1
4902554	65	C	11/23/2022	10:04	-133.618	48.307	0	207.60	0	5.4360	0	33.7100	0	26.604	0	205.749	0	-1e10	8	-1e10	8	-1E+10	1	-1E+10	1	-1E+10	1	-1E+10	1	-1E+10	1	-1E+10	1
4902554	65	C	11/23/2022	10:04	-133.618	48.307	0	208.70	0	5.3970	0	33.7160	0	26.613	0	206.838	0	-1e10	8	-1e10	8	-1E+10	1	-1E+10	1	-1E+10	1	-1E+10	1	-1E+10	1	-1E+10	1
4902554	65	C	11/23/2022	10:04	-133.618	48.307	0	209.70	0	5.3720	0	33.7140	0	26.615	0	207.829	0	-1e10	8	-1e10	8	-1E+10	1	-1E+10	1	-1E+10	1	-1E+10	1	-1E+10	1	-1E+10	1
4902554	65	C	11/23/2022	10:04	-133.618	48.307	0	210.70	0	5.3550	0	33.7160	0	26.618	0	208.819	0	-1e10	8	-1e10	8	-1E+10	1	-1E+10	1	-1E+10	1	-1E+10	1	-1E+10	1	-1E+10	1
4902554	65	C	11/23/2022	10:04	-133.618	48.307	0	211.80	0	5.3430	0	33.7160	0	26.620	0	209.909	0	-1e10	8	-1e10	8	-1E+10	1	-1E+10	1	-1E+10	1	-1E+10	1	-1E+10	1	-1E+10	1
4902554	65	C	11/23/2022	10:04	-133.618	48.307	0	212.90	0	5.3060	0	33.7190	0	26.627	0	210.999	0	-1e10	8	-1e10	8	-1E+10	1	-1E+10	1	-1E+10	1	-1E+10	1	-1E+10	1	-1E+10	1
4902554	65	C	11/23/2022	10:04	-133.618	48.307	0	213.90	0	5.2800	0	33.7260	0	26.635	0	211.989	0	-1e10	8	-1e10	8	-1E+10	1	-1E+10	1	-1E+10	1	-1E+10	1	-1E+10	1	-1E+10	1
4902554	65	C	11/23/2022	10:04	-133.618	48.307	0	215.00	0	5.2440	0	33.7230	0	26.637	0	213.079	0	-1e10	8	-1e10	8	-1E+10	1	-1E+10	1	-1E+10	1	-1E+10	1	-1E+10	1	-1E+10	1
4902554	65	C	11/23/2022	10:04	-133.618	48.307	0	216.10	0	5.2260	0	33.7230	0	26.639	0	214.168	0	-1e10	8	-1e10	8	-1E+10	1	-1E+10	1	-1E+10	1	-1E+10	1	-1E+10	1	-1E+10	1
4902554	65	C	11/23/2022	10:04	-133.618	48.307	0	217.10	0	5.2250	0	33.7240	0	26.640	0	215.159	0	-1e10	8	-1e10	8	-1E+10	1	-1E+10	1	-1E+10	1	-1E+10	1	-1E+10	1	-1E+10	1
4902554	65	C	11/23/2022	10:04	-133.618	48.307	0	218.20	0	5.2160	0	33.7240	0	26.641	0	216.249	0	-1e10	8	-1e10	8	-1E+10	1	-1E+10	1	-1E+10	1	-1E+10	1	-1E+10	1	-1E+10	1
4902554	65	C	11/23/2022	10:04	-133.618	48.307	0	219.20	0	5.2030	0	33.7230	0	26.642	0	217.239	0	-1e10	8	-1e10	8	-1E+10	1	-1E+10	1	-1E+10	1	-1E+10	1	-1E+10	1	-1E+10	1
4902554	65	C	11/23/2022	10:04	-133.618	48.307	0	220.30	0	5.1900	0	33.7250	0	26.645	0	218.329	0	-1e10	8	-1e10	8	-1E+10	1	-1E+10	1	-1E+10	1	-1E+10	1	-1E+10	1	-1E+10	1
4902554	65	C	11/23/2022	10:04	-133.618	48.307	0	221.30	0	5.1740	0	33.7280	0	26.649	0	219.319	0	-1e10	8	-1e10	8	-1E+10	1	-1E+10	1	-1E+10	1	-1E+10	1	-1E+10	1	-1E+10	1
4902554	65	C	11/23/2022	10:04	-133.618	48.307	0	222.40	0	5.1600	0	33.7230	0	26.647	0	220.409	0	-1e10	8	-1e10	8	-1E+10	1	-1E+10	1	-1E+10	1	-1E+10	1	-1E+10	1	-1E+10	1
4902554	65	C	11/23/2022	10:04	-133.618	48.307	0	223.40	0	5.1260	0	33.7240	0	26.651	0	221.399	0	-1e10	8	-1e10	8	-1E+10	1	-1E+10	1	-1E+10	1	-1E+10	1	-1E+10	1	-1E+10	1
4902554	65	C	11/23/2022	10:04	-133.618	48.307	0	224.50	0	5.0960	0	33.7260	0	26.656	0	222.489	0	-1e10	8	-1e10	8	-1E+10	1	-1E+10	1	-1E+10	1	-1E+10	1	-1E+10	1	-1E+10	1
4902554	65	C	11/23/2022	10:04	-133.618	48.307	0	225.60	0	5.0630	0	33.7270	0	26.661	0	223.578	0	-1e10	8	-1e10	8	-1E+10	1	-1E+10	1	-1E+10	1	-1E+10	1	-1E+10	1	-1E+10	1
4902554	65	C	11/23/2022	10:04	-133.618	48.307	0	226.70	0	5.0450	0	33.7270	0	26.663	0	224.668	0	-1e10	8	-1e10	8	-1E+10	1	-1E+10	1	-1E+10	1	-1E+10	1	-1E+10	1	-1E+10	1
4902554	65	C	11/23/2022	10:04	-133.618	48.307	0	227.70	0	5.0380	0	33.7280	0	26.665	0	225.658	0	-1e10	8	-1e10	8	-1E+10	1	-1E+10	1	-1E+10	1	-1E+10	1	-1E+10	1	-1E+10	1
4902554	65	C	11/23/2022	10:04	-133.618	48.307	0	228.90	0	5.0190	0	33.7300	0	26.668	0	226.847	0	-1e10	8	-1e10	8	-1E+10	1	-1E+10	1	-1E+10	1	-1E+10	1	-1E+10	1	-1E+10	1
4902554	65	C	11/23/2022	10:04	-133.618	48.307	0	229.90	0	5.0100	0	33.7320	0	26.671	0	227.838	0	-1e10	8	-1e10	8	-1E+10	1	-1E+10	1	-1E+10	1	-1E+10	1	-1E+10	1	-1E+10	1
4902554	65	C	11/23/2022	10:04	-133.618	48.307	0	231.00	0	5.0000	0	33.7320	0	26.672	0	228.927	0	-1e10	8	-1e10	8	-1E+10	1	-1E+10	1	-1E+10	1	-1E+10	1	-1E+10	1	-1E+10	1
4902554	65	C	11/23/2022	10:04	-133.618	48.307	0	232.10	0	4.9860	0	33.7320	0	26.674	0	230.017	0	-1e10	8	-1e10	8	-1E+10	1	-1E+10	1	-1E+10	1	-1E+10	1	-1E+10	1	-1E+10	1
4902554	65	C	11/23/2022	10:04	-133.618	48.307	0	233.20	0	4.9690	0	33.7340	0	26.677	0	231.106	0	-1e10	8	-1e10	8	-1E+10	1	-1E+10	1	-1E+10	1	-1E+10	1	-1E+10	1	-1E+10	1
4902554	65	C	11/23/2022	10:04	-133.618	48.307	0	234.30	0	4.9610	0	33.7350	0	26.679	0	232.196	0	-1e10	8	-1e10	8	-1E+10	1	-1E+10	1	-1E+10	1	-1E+10	1	-1E+10	1	-1E+10	1
4902554	65	C	11/23/2022	10:04	-133.618	48.307	0	235.30	0	4.9510	0	33.7360	0	26.681	0	233.186	0	-1e10	8	-1e10	8	-1E+10	1	-1E+10	1	-1E+10	1	-1E+10	1	-1E+10	1	-1E+10	1
4902554	65	C	11/23/2022	10:04	-133.618	48.307	0	236.40	0	4.9420	0	33.7360	0	26.682	0	234.276	0	-1e10	8	-1e10	8	-1E+10	1	-1E+10	1	-1E+10	1	-1E+10	1	-1E+10	1	-1E+10	1
4902554	65	C	11/23/2022	10:04	-133.618	48.307	0	237.60	0	4.9320	0	33.7380	0	26.685	0	235.464	0	-1e10	8	-1e10	8	-1E+10	1	-1E+10	1	-1E+10	1	-1E+10	1	-1E+10	1	-1E+10	1
4902554	65	C	11/23/2022	10:04	-133.618	48.307	0	238.60	0	4.9270	0	33.7390	0	26.686	0	236.455	0	-1e10	8	-1e10	8	-1E+10	1	-1E+10	1	-1E+10	1	-1E+10	1	-1E+10	1	-1E+10	1
4902554	65	C	11/23/2022	10:04	-133.618	48.307	0	239.70	0	4.9190	0	33.7390	0	26.687	0	237.544	0	-1e10	8	-1e10	8	-1E+10	1	-1E+10	1	-1E+10	1	-1E+10	1	-1E+10	1	-1E+10	1
4902554	65	C	11/23/2022	10:04	-133.618	48.307	0	240.80	0	4.9050	0	33.7410	0	26.690	0	238.633	0	-1e10	8	-1e10	8	-1E+10	1	-1E+10	1	-1E+10	1	-1E+10	1	-1E+10	1	-1E+10	1
4902554	65	C	11/23/2022	10:04	-133.618	48.307	0	242.00	0	4.9010	0	33.7420	0	26.691	0	239.822	0	-1e10	8	-1e10	8	-1E+10	1	-1E+10	1	-1E+10	1	-1E+10	1	-1E+10	1	-1E+10	1
4902554	65	C	11/23/2022	10:04	-133.618	48.307	0	243.10	0	4.9000	0	33.7420	0	26.691	0	240.911	0	-1e10	8	-1e10	8	-1E+10	1	-1E+10	1	-1E+10	1	-1E+10	1	-1E+10	1	-1E+10	1
4902554	65	C	11/23/2022	10:04	-133.618	48.307	0	244.20	0	4.8980	0	33.7420	0	26.692	0	242.001	0	-1e10	8	-1e10	8	-1E+10	1	-1E+10	1	-1E+10	1	-1E+10	1	-1E+10	1	-1E+10	1
4902554	65	C	11/23/2022	10:04	-133.618	48.307	0	245.30	0	4.8920	0	33.7420	0	26.692	0	243.090	0	-1e10	8	-1e10	8	-1E+10	1	-1E+10	1	-1E+10	1	-1E+10	1	-1E+10	1	-1E+10	1
4902554	65	C	11/23/2022	10:04	-133.618	48.307	0	246.30	0	4.8750	0	33.7440	0	26.696	0	244.081	0	-1e10	8	-1e10	8	-1E+10	1	-1E+10	1	-1E+10	1	-1E+10	1	-1E+10	1	-1E+10	1
4902554	65	C	11/23/2022	10:04	-133.618	48.307	0	247.40	0	4.8630	0	33.7460	0	26.699	0	245.170	0	-1e10	8	-1e10	8	-1E+10	1	-1E+10	1	-1E+10	1	-1E+10	1	-1E+10	1	-1E+10	1
4902554	65	C	11/23/2022	10:04	-133.618	48.307	0	248.50	0	4.8590	0	33.7470	0	26.700	0	246.260	0	-1e10	8	-1e10	8	-1E+10	1	-1E+10	1	-1E+10	1	-1E+10	1	-1E+10	1	-1E+10	1
4902554	65	C	11/23/2022	10:04	-133.618	48.307	0	249.50	0	4.8570	0	33.7480	0	26.701	0	247.250	0	-1e10	8	-1e10	8	-1E+10	1	-1E+10	1	-1E+10	1	-1E+10	1	-1E+10	1	-1E+10	1
4902554	65	C	11/23/2022	10:04	-133.618	48.307	0	250.90	0	4.8510	0	33.7510	0	26.704	0	248.637	0	-1e10	8	-1e10	8	-1E+10	1	-1E+10	1	-1E+10	1	-1E+10	1	-1E+10	1	-1E+10	1
4902554	65	C	11/23/2022	10:04	-133.618	48.307	0	252.20	0	4.8350	0	33.7530	0	26.707	0	249.924	0	-1e10	8	-1e10	8	-1E+10	1	-1E+10	1	-1E+10	1	-1E+10	1	-1E+10	1	-1E+10	1
4902554	65	C	11/23/2022	10:04	-133.618	48.307	0	253.00	0	4.8330	0	33.7540	0	26.708	0	250.716	0	-1e10	8	-1e10	8	-1E+10	1	-1E+10	1	-1E+10	1	-1E+10	1	-1E+10	1	-1E+10	1
4902554	65	C	11/23/2022	10:04	-133.618	48.307	0	253.80	0	4.8310	0	33.7550	0	26.709	0	251.509	0	-1e10	8	-1e10	8	-1E+10	1	-1E+10	1	-1E+10	1	-1E+10	1	-1E+10	1	-1E+10	1
4902554	65	C	11/23/2022	10:04	-133.618	48.307	0	254.60	0	4.8160	0	33.7580	0	26.714	0	252.301	0	-1e10	8	-1e10	8	-1E+10	1	-1E+10	1	-1E+10	1	-1E+10	1	-1E+10	1	-1E+10	1
4902554	65	C	11/23/2022	10:04	-133.618	48.307	0	255.90	0	4.8080	0	33.7600	0	26.716	0	253.588	0	-1e10	8	-1e10	8	-1E+10	1	-1E+10	1	-1E+10	1	-1E+10	1	-1E+10	1	-1E+10	1
4902554	65	C	11/23/2022	10:04	-133.618	48.307	0	257.20	0	4.8070	0	33.7620	0	26.718	0	254.876	0	-1e10	8	-1e10	8	-1E+10	1	-1E+10	1	-1E+10	1	-1E+10	1	-1E+10	1	-1E+10	1
4902554	65	C	11/23/2022	10:04	-133.618	48.307	0	258.00	0	4.8030	0	33.7630	0	26.719	0	255.668	0	-1e10	8	-1e10	8	-1E+10	1	-1E+10	1	-1E+10	1	-1E+10	1	-1E+10	1	-1E+10	1
4902554	65	C	11/23/2022	10:04	-133.618	48.307	0	258.80	0	4.7990	0	33.7640	0	26.720	0	256.460	0	-1e10	8	-1e10	8	-1E+10	1	-1E+10	1	-1E+10	1	-1E+10	1	-1E+10	1	-1E+10	1
4902554	65	C	11/23/2022	10:04	-133.618	48.307	0	260.00	0	4.7940	0	33.7650	0	26.722	0	257.649	0	-1e10	8	-1e10	8	-1E+10	1	-1E+10	1	-1E+10	1	-1E+10	1	-1E+10	1	-1E+10	1
4902554	65	C	11/23/2022	10:04	-133.618	48.307	0	261.30	0	4.7910	0	33.7660	0	26.723	0	258.936	0	-1e10	8	-1e10	8	-1E+10	1	-1E+10	1	-1E+10	1	-1E+10	1	-1E+10	1	-1E+10	1
4902554	65	C	11/23/2022	10:04	-133.618	48.307	0	262.10	0	4.7790	0	33.7660	0	26.724	0	259.728	0	-1e10	8	-1e10	8	-1E+10	1	-1E+10	1	-1E+10	1	-1E+10	1	-1E+10	1	-1E+10	1
4902554	65	C	11/23/2022	10:04	-133.618	48.307	0	262.90	0	4.7690	0	33.7670	0	26.726	0	260.521	0	-1e10	8	-1e10	8	-1E+10	1	-1E+10	1	-1E+10	1	-1E+10	1	-1E+10	1	-1E+10	1
4902554	65	C	11/23/2022	10:04	-133.618	48.307	0	263.70	0	4.7610	0	33.7670	0	26.727	0	261.313	0	-1e10	8	-1e10	8	-1E+10	1	-1E+10	1	-1E+10	1	-1E+10	1	-1E+10	1	-1E+10	1
4902554	65	C	11/23/2022	10:04	-133.618	48.307	0	264.90	0	4.7520	0	33.7660	0	26.727	0	262.501	0	-1e10	8	-1e10	8	-1E+10	1	-1E+10	1	-1E+10	1	-1E+10	1	-1E+10	1	-1E+10	1
4902554	65	C	11/23/2022	10:04	-133.618	48.307	0	266.20	0	4.7550	0	33.7670	0	26.728	0	263.789	0	-1e10	8	-1e10	8	-1E+10	1	-1E+10	1	-1E+10	1	-1E+10	1	-1E+10	1	-1E+10	1
4902554	65	C	11/23/2022	10:04	-133.618	48.307	0	267.00	0	4.7400	0	33.7710	0	26.732	0	264.581	0	-1e10	8	-1e10	8	-1E+10	1	-1E+10	1	-1E+10	1	-1E+10	1	-1E+10	1	-1E+10	1
4902554	65	C	11/23/2022	10:04	-133.618	48.307	0	267.80	0	4.7330	0	33.7690	0	26.732	0	265.373	0	-1e10	8	-1e10	8	-1E+10	1	-1E+10	1	-1E+10	1	-1E+10	1	-1E+10	1	-1E+10	1
4902554	65	C	11/23/2022	10:04	-133.618	48.307	0	269.00	0	4.7320	0	33.7690	0	26.732	0	266.562	0	-1e10	8	-1e10	8	-1E+10	1	-1E+10	1	-1E+10	1	-1E+10	1	-1E+10	1	-1E+10	1
4902554	65	C	11/23/2022	10:04	-133.618	48.307	0	270.20	0	4.7310	0	33.7710	0	26.733	0	267.750	0	-1e10	8	-1e10	8	-1E+10	1	-1E+10	1	-1E+10	1	-1E+10	1	-1E+10	1	-1E+10	1
4902554	65	C	11/23/2022	10:04	-133.618	48.307	0	271.10	0	4.7250	0	33.7720	0	26.735	0	268.641	0	-1e10	8	-1e10	8	-1E+10	1	-1E+10	1	-1E+10	1	-1E+10	1	-1E+10	1	-1E+10	1
4902554	65	C	11/23/2022	10:04	-133.618	48.307	0	271.90	0	4.7220	0	33.7730	0	26.736	0	269.433	0	-1e10	8	-1e10	8	-1E+10	1	-1E+10	1	-1E+10	1	-1E+10	1	-1E+10	1	-1E+10	1
4902554	65	C	11/23/2022	10:04	-133.618	48.307	0	272.70	0	4.7180	0	33.7740	0	26.737	0	270.226	0	-1e10	8	-1e10	8	-1E+10	1	-1E+10	1	-1E+10	1	-1E+10	1	-1E+10	1	-1E+10	1
4902554	65	C	11/23/2022	10:04	-133.618	48.307	0	273.90	0	4.7100	0	33.7760	0	26.740	0	271.414	0	-1e10	8	-1e10	8	-1E+10	1	-1E+10	1	-1E+10	1	-1E+10	1	-1E+10	1	-1E+10	1
4902554	65	C	11/23/2022	10:04	-133.618	48.307	0	275.10	0	4.7080	0	33.7770	0	26.741	0	272.602	0	-1e10	8	-1e10	8	-1E+10	1	-1E+10	1	-1E+10	1	-1E+10	1	-1E+10	1	-1E+10	1
4902554	65	C	11/23/2022	10:04	-133.618	48.307	0	276.00	0	4.7070	0	33.7780	0	26.742	0	273.494	0	-1e10	8	-1e10	8	-1E+10	1	-1E+10	1	-1E+10	1	-1E+10	1	-1E+10	1	-1E+10	1
4902554	65	C	11/23/2022	10:04	-133.618	48.307	0	276.80	0	4.7080	0	33.7790	0	26.742	0	274.286	0	-1e10	8	-1e10	8	-1E+10	1	-1E+10	1	-1E+10	1	-1E+10	1	-1E+10	1	-1E+10	1
4902554	65	C	11/23/2022	10:04	-133.618	48.307	0	278.00	0	4.7030	0	33.7800	0	26.744	0	275.474	0	-1e10	8	-1e10	8	-1E+10	1	-1E+10	1	-1E+10	1	-1E+10	1	-1E+10	1	-1E+10	1
4902554	65	C	11/23/2022	10:04	-133.618	48.307	0	279.20	0	4.7010	0	33.7850	0	26.748	0	276.662	0	-1e10	8	-1e10	8	-1E+10	1	-1E+10	1	-1E+10	1	-1E+10	1	-1E+10	1	-1E+10	1
4902554	65	C	11/23/2022	10:04	-133.618	48.307	0	280.10	0	4.7020	0	33.7870	0	26.749	0	277.554	0	-1e10	8	-1e10	8	-1E+10	1	-1E+10	1	-1E+10	1	-1E+10	1	-1E+10	1	-1E+10	1
4902554	65	C	11/23/2022	10:04	-133.618	48.307	0	280.90	0	4.6950	0	33.7920	0	26.754	0	278.346	0	-1e10	8	-1e10	8	-1E+10	1	-1E+10	1	-1E+10	1	-1E+10	1	-1E+10	1	-1E+10	1
4902554	65	C	11/23/2022	10:04	-133.618	48.307	0	281.70	0	4.6940	0	33.7920	0	26.754	0	279.138	0	-1e10	8	-1e10	8	-1E+10	1	-1E+10	1	-1E+10	1	-1E+10	1	-1E+10	1	-1E+10	1
4902554	65	C	11/23/2022	10:04	-133.618	48.307	0	282.90	0	4.6920	0	33.7920	0	26.754	0	280.326	0	-1e10	8	-1e10	8	-1E+10	1	-1E+10	1	-1E+10	1	-1E+10	1	-1E+10	1	-1E+10	1
4902554	65	C	11/23/2022	10:04	-133.618	48.307	0	284.20	0	4.6900	0	33.7930	0	26.755	0	281.613	0	-1e10	8	-1e10	8	-1E+10	1	-1E+10	1	-1E+10	1	-1E+10	1	-1E+10	1	-1E+10	1
4902554	65	C	11/23/2022	10:04	-133.618	48.307	0	285.00	0	4.6880	0	33.7940	0	26.756	0	282.406	0	-1e10	8	-1e10	8	-1E+10	1	-1E+10	1	-1E+10	1	-1E+10	1	-1E+10	1	-1E+10	1
4902554	65	C	11/23/2022	10:04	-133.618	48.307	0	285.80	0	4.6860	0	33.7970	0	26.759	0	283.198	0	-1e10	8	-1e10	8	-1E+10	1	-1E+10	1	-1E+10	1	-1E+10	1	-1E+10	1	-1E+10	1
4902554	65	C	11/23/2022	10:04	-133.618	48.307	0	287.00	0	4.6800	0	33.8040	0	26.765	0	284.386	0	-1e10	8	-1e10	8	-1E+10	1	-1E+10	1	-1E+10	1	-1E+10	1	-1E+10	1	-1E+10	1
4902554	65	C	11/23/2022	10:04	-133.618	48.307	0	288.30	0	4.6710	0	33.8100	0	26.771	0	285.673	0	-1e10	8	-1e10	8	-1E+10	1	-1E+10	1	-1E+10	1	-1E+10	1	-1E+10	1	-1E+10	1
4902554	65	C	11/23/2022	10:04	-133.618	48.307	0	289.10	0	4.6650	0	33.8100	0	26.772	0	286.465	0	-1e10	8	-1e10	8	-1E+10	1	-1E+10	1	-1E+10	1	-1E+10	1	-1E+10	1	-1E+10	1
4902554	65	C	11/23/2022	10:04	-133.618	48.307	0	289.90	0	4.6620	0	33.8120	0	26.774	0	287.258	0	-1e10	8	-1e10	8	-1E+10	1	-1E+10	1	-1E+10	1	-1E+10	1	-1E+10	1	-1E+10	1
4902554	65	C	11/23/2022	10:04	-133.618	48.307	0	290.70	0	4.6580	0	33.8130	0	26.775	0	288.050	0	-1e10	8	-1e10	8	-1E+10	1	-1E+10	1	-1E+10	1	-1E+10	1	-1E+10	1	-1E+10	1
4902554	65	C	11/23/2022	10:04	-133.618	48.307	0	292.00	0	4.6480	0	33.8170	0	26.779	0	289.337	0	-1e10	8	-1e10	8	-1E+10	1	-1E+10	1	-1E+10	1	-1E+10	1	-1E+10	1	-1E+10	1
4902554	65	C	11/23/2022	10:04	-133.618	48.307	0	293.20	0	4.6420	0	33.8180	0	26.781	0	290.525	0	-1e10	8	-1e10	8	-1E+10	1	-1E+10	1	-1E+10	1	-1E+10	1	-1E+10	1	-1E+10	1
4902554	65	C	11/23/2022	10:04	-133.618	48.307	0	294.00	0	4.6320	0	33.8220	0	26.785	0	291.317	0	-1e10	8	-1e10	8	-1E+10	1	-1E+10	1	-1E+10	1	-1E+10	1	-1E+10	1	-1E+10	1
4902554	65	C	11/23/2022	10:04	-133.618	48.307	0	294.90	0	4.6280	0	33.8230	0	26.786	0	292.209	0	-1e10	8	-1e10	8	-1E+10	1	-1E+10	1	-1E+10	1	-1E+10	1	-1E+10	1	-1E+10	1
4902554	65	C	11/23/2022	10:04	-133.618	48.307	0	295.70	0	4.6270	0	33.8230	0	26.786	0	293.001	0	-1e10	8	-1e10	8	-1E+10	1	-1E+10	1	-1E+10	1	-1E+10	1	-1E+10	1	-1E+10	1
4902554	65	C	11/23/2022	10:04	-133.618	48.307	0	297.00	0	4.6240	0	33.8240	0	26.787	0	294.288	0	-1e10	8	-1e10	8	-1E+10	1	-1E+10	1	-1E+10	1	-1E+10	1	-1E+10	1	-1E+10	1
4902554	65	C	11/23/2022	10:04	-133.618	48.307	0	298.30	0	4.6230	0	33.8240	0	26.787	0	295.575	0	-1e10	8	-1e10	8	-1E+10	1	-1E+10	1	-1E+10	1	-1E+10	1	-1E+10	1	-1E+10	1
4902554	65	C	11/23/2022	10:04	-133.618	48.307	0	299.10	0	4.6180	0	33.8260	0	26.790	0	296.367	0	-1e10	8	-1e10	8	-1E+10	1	-1E+10	1	-1E+10	1	-1E+10	1	-1E+10	1	-1E+10	1
4902554	65	C	11/23/2022	10:04	-133.618	48.307	0	299.90	0	4.6130	0	33.8280	0	26.792	0	297.159	0	-1e10	8	-1e10	8	-1E+10	1	-1E+10	1	-1E+10	1	-1E+10	1	-1E+10	1	-1E+10	1
4902554	65	C	11/23/2022	10:04	-133.618	48.307	0	300.80	0	4.6100	0	33.8280	0	26.792	0	298.050	0	-1e10	8	-1e10	8	-1E+10	1	-1E+10	1	-1E+10	1	-1E+10	1	-1E+10	1	-1E+10	1
4902554	65	C	11/23/2022	10:04	-133.618	48.307	0	302.00	0	4.6080	0	33.8280	0	26.792	0	299.239	0	-1e10	8	-1e10	8	-1E+10	1	-1E+10	1	-1E+10	1	-1E+10	1	-1E+10	1	-1E+10	1
4902554	65	C	11/23/2022	10:04	-133.618	48.307	0	303.30	0	4.5960	0	33.8320	0	26.797	0	300.526	0	-1e10	8	-1e10	8	-1E+10	1	-1E+10	1	-1E+10	1	-1E+10	1	-1E+10	1	-1E+10	1
4902554	65	C	11/23/2022	10:04	-133.618	48.307	0	304.10	0	4.5940	0	33.8330	0	26.798	0	301.318	0	-1e10	8	-1e10	8	-1E+10	1	-1E+10	1	-1E+10	1	-1E+10	1	-1E+10	1	-1E+10	1
4902554	65	C	11/23/2022	10:04	-133.618	48.307	0	305.00	0	4.5900	0	33.8340	0	26.799	0	302.209	0	-1e10	8	-1e10	8	-1E+10	1	-1E+10	1	-1E+10	1	-1E+10	1	-1E+10	1	-1E+10	1
4902554	65	C	11/23/2022	10:04	-133.618	48.307	0	305.80	0	4.5890	0	33.8340	0	26.799	0	303.001	0	-1e10	8	-1e10	8	-1E+10	1	-1E+10	1	-1E+10	1	-1E+10	1	-1E+10	1	-1E+10	1
4902554	65	C	11/23/2022	10:04	-133.618	48.307	0	306.70	0	4.5810	0	33.8380	0	26.803	0	303.892	0	-1e10	8	-1e10	8	-1E+10	1	-1E+10	1	-1E+10	1	-1E+10	1	-1E+10	1	-1E+10	1
4902554	65	C	11/23/2022	10:04	-133.618	48.307	0	307.90	0	4.5730	0	33.8400	0	26.806	0	305.080	0	-1e10	8	-1e10	8	-1E+10	1	-1E+10	1	-1E+10	1	-1E+10	1	-1E+10	1	-1E+10	1
4902554	65	C	11/23/2022	10:04	-133.618	48.307	0	309.20	0	4.5650	0	33.8420	0	26.808	0	306.367	0	-1e10	8	-1e10	8	-1E+10	1	-1E+10	1	-1E+10	1	-1E+10	1	-1E+10	1	-1E+10	1
4902554	65	C	11/23/2022	10:04	-133.618	48.307	0	310.00	0	4.5570	0	33.8440	0	26.811	0	307.160	0	-1e10	8	-1e10	8	-1E+10	1	-1E+10	1	-1E+10	1	-1E+10	1	-1E+10	1	-1E+10	1
4902554	65	C	11/23/2022	10:04	-133.618	48.307	0	310.80	0	4.5530	0	33.8450	0	26.812	0	307.952	0	-1e10	8	-1e10	8	-1E+10	1	-1E+10	1	-1E+10	1	-1E+10	1	-1E+10	1	-1E+10	1
4902554	65	C	11/23/2022	10:04	-133.618	48.307	0	311.70	0	4.5440	0	33.8480	0	26.815	0	308.843	0	-1e10	8	-1e10	8	-1E+10	1	-1E+10	1	-1E+10	1	-1E+10	1	-1E+10	1	-1E+10	1
4902554	65	C	11/23/2022	10:04	-133.618	48.307	0	312.90	0	4.5360	0	33.8500	0	26.818	0	310.031	0	-1e10	8	-1e10	8	-1E+10	1	-1E+10	1	-1E+10	1	-1E+10	1	-1E+10	1	-1E+10	1
4902554	65	C	11/23/2022	10:04	-133.618	48.307	0	314.20	0	4.5210	0	33.8540	0	26.822	0	311.318	0	-1e10	8	-1e10	8	-1E+10	1	-1E+10	1	-1E+10	1	-1E+10	1	-1E+10	1	-1E+10	1
4902554	65	C	11/23/2022	10:04	-133.618	48.307	0	315.00	0	4.5180	0	33.8550	0	26.824	0	312.110	0	-1e10	8	-1e10	8	-1E+10	1	-1E+10	1	-1E+10	1	-1E+10	1	-1E+10	1	-1E+10	1
4902554	65	C	11/23/2022	10:04	-133.618	48.307	0	315.80	0	4.5140	0	33.8570	0	26.826	0	312.902	0	-1e10	8	-1e10	8	-1E+10	1	-1E+10	1	-1E+10	1	-1E+10	1	-1E+10	1	-1E+10	1
4902554	65	C	11/23/2022	10:04	-133.618	48.307	0	316.70	0	4.5120	0	33.8580	0	26.827	0	313.793	0	-1e10	8	-1e10	8	-1E+10	1	-1E+10	1	-1E+10	1	-1E+10	1	-1E+10	1	-1E+10	1
4902554	65	C	11/23/2022	10:04	-133.618	48.307	0	317.90	0	4.5060	0	33.8590	0	26.828	0	314.981	0	-1e10	8	-1e10	8	-1E+10	1	-1E+10	1	-1E+10	1	-1E+10	1	-1E+10	1	-1E+10	1
4902554	65	C	11/23/2022	10:04	-133.618	48.307	0	319.20	0	4.5000	0	33.8610	0	26.830	0	316.268	0	-1e10	8	-1e10	8	-1E+10	1	-1E+10	1	-1E+10	1	-1E+10	1	-1E+10	1	-1E+10	1
4902554	65	C	11/23/2022	10:04	-133.618	48.307	0	320.10	0	4.4860	0	33.8660	0	26.836	0	317.159	0	-1e10	8	-1e10	8	-1E+10	1	-1E+10	1	-1E+10	1	-1E+10	1	-1E+10	1	-1E+10	1
4902554	65	C	11/23/2022	10:04	-133.618	48.307	0	320.90	0	4.4820	0	33.8660	0	26.836	0	317.951	0	-1e10	8	-1e10	8	-1E+10	1	-1E+10	1	-1E+10	1	-1E+10	1	-1E+10	1	-1E+10	1
4902554	65	C	11/23/2022	10:04	-133.618	48.307	0	321.80	0	4.4770	0	33.8670	0	26.838	0	318.842	0	-1e10	8	-1e10	8	-1E+10	1	-1E+10	1	-1E+10	1	-1E+10	1	-1E+10	1	-1E+10	1
4902554	65	C	11/23/2022	10:04	-133.618	48.307	0	322.70	0	4.4700	0	33.8690	0	26.840	0	319.733	0	-1e10	8	-1e10	8	-1E+10	1	-1E+10	1	-1E+10	1	-1E+10	1	-1E+10	1	-1E+10	1
4902554	65	C	11/23/2022	10:04	-133.618	48.307	0	323.90	0	4.4620	0	33.8710	0	26.842	0	320.921	0	-1e10	8	-1e10	8	-1E+10	1	-1E+10	1	-1E+10	1	-1E+10	1	-1E+10	1	-1E+10	1
4902554	65	C	11/23/2022	10:04	-133.618	48.307	0	325.20	0	4.4460	0	33.8740	0	26.846	0	322.208	0	-1e10	8	-1e10	8	-1E+10	1	-1E+10	1	-1E+10	1	-1E+10	1	-1E+10	1	-1E+10	1
4902554	65	C	11/23/2022	10:04	-133.618	48.307	0	326.10	0	4.4420	0	33.8740	0	26.847	0	323.099	0	-1e10	8	-1e10	8	-1E+10	1	-1E+10	1	-1E+10	1	-1E+10	1	-1E+10	1	-1E+10	1
4902554	65	C	11/23/2022	10:04	-133.618	48.307	0	326.90	0	4.4390	0	33.8740	0	26.847	0	323.891	0	-1e10	8	-1e10	8	-1E+10	1	-1E+10	1	-1E+10	1	-1E+10	1	-1E+10	1	-1E+10	1
4902554	65	C	11/23/2022	10:04	-133.618	48.307	0	327.80	0	4.4210	0	33.8740	0	26.849	0	324.782	0	-1e10	8	-1e10	8	-1E+10	1	-1E+10	1	-1E+10	1	-1E+10	1	-1E+10	1	-1E+10	1
4902554	65	C	11/23/2022	10:04	-133.618	48.307	0	328.70	0	4.4250	0	33.8770	0	26.851	0	325.674	0	-1e10	8	-1e10	8	-1E+10	1	-1E+10	1	-1E+10	1	-1E+10	1	-1E+10	1	-1E+10	1
4902554	65	C	11/23/2022	10:04	-133.618	48.307	0	329.60	0	4.4250	0	33.8750	0	26.850	0	326.565	0	-1e10	8	-1e10	8	-1E+10	1	-1E+10	1	-1E+10	1	-1E+10	1	-1E+10	1	-1E+10	1
4902554	65	C	11/23/2022	10:04	-133.618	48.307	0	330.90	0	4.4200	0	33.8800	0	26.854	0	327.851	0	-1e10	8	-1e10	8	-1E+10	1	-1E+10	1	-1E+10	1	-1E+10	1	-1E+10	1	-1E+10	1
4902554	65	C	11/23/2022	10:04	-133.618	48.307	0	332.30	0	4.4140	0	33.8820	0	26.856	0	329.237	0	-1e10	8	-1e10	8	-1E+10	1	-1E+10	1	-1E+10	1	-1E+10	1	-1E+10	1	-1E+10	1
4902554	65	C	11/23/2022	10:04	-133.618	48.307	0	333.20	0	4.4140	0	33.8830	0	26.857	0	330.128	0	-1e10	8	-1e10	8	-1E+10	1	-1E+10	1	-1E+10	1	-1E+10	1	-1E+10	1	-1E+10	1
4902554	65	C	11/23/2022	10:04	-133.618	48.307	0	334.10	0	4.4120	0	33.8840	0	26.858	0	331.019	0	-1e10	8	-1e10	8	-1E+10	1	-1E+10	1	-1E+10	1	-1E+10	1	-1E+10	1	-1E+10	1
4902554	65	C	11/23/2022	10:04	-133.618	48.307	0	335.10	0	4.4020	0	33.8870	0	26.862	0	332.009	0	-1e10	8	-1e10	8	-1E+10	1	-1E+10	1	-1E+10	1	-1E+10	1	-1E+10	1	-1E+10	1
4902554	65	C	11/23/2022	10:04	-133.618	48.307	0	336.00	0	4.4000	0	33.8870	0	26.862	0	332.900	0	-1e10	8	-1e10	8	-1E+10	1	-1E+10	1	-1E+10	1	-1E+10	1	-1E+10	1	-1E+10	1
4902554	65	C	11/23/2022	10:04	-133.618	48.307	0	336.90	0	4.3960	0	33.8880	0	26.863	0	333.791	0	-1e10	8	-1e10	8	-1E+10	1	-1E+10	1	-1E+10	1	-1E+10	1	-1E+10	1	-1E+10	1
4902554	65	C	11/23/2022	10:04	-133.618	48.307	0	337.90	0	4.3900	0	33.8910	0	26.866	0	334.781	0	-1e10	8	-1e10	8	-1E+10	1	-1E+10	1	-1E+10	1	-1E+10	1	-1E+10	1	-1E+10	1
4902554	65	C	11/23/2022	10:04	-133.618	48.307	0	338.80	0	4.3860	0	33.8920	0	26.867	0	335.672	0	-1e10	8	-1e10	8	-1E+10	1	-1E+10	1	-1E+10	1	-1E+10	1	-1E+10	1	-1E+10	1
4902554	65	C	11/23/2022	10:04	-133.618	48.307	0	339.80	0	4.3850	0	33.8930	0	26.868	0	336.662	0	-1e10	8	-1e10	8	-1E+10	1	-1E+10	1	-1E+10	1	-1E+10	1	-1E+10	1	-1E+10	1
4902554	65	C	11/23/2022	10:04	-133.618	48.307	0	340.70	0	4.3800	0	33.8940	0	26.869	0	337.553	0	-1e10	8	-1e10	8	-1E+10	1	-1E+10	1	-1E+10	1	-1E+10	1	-1E+10	1	-1E+10	1
4902554	65	C	11/23/2022	10:04	-133.618	48.307	0	341.70	0	4.3690	0	33.8960	0	26.872	0	338.543	0	-1e10	8	-1e10	8	-1E+10	1	-1E+10	1	-1E+10	1	-1E+10	1	-1E+10	1	-1E+10	1
4902554	65	C	11/23/2022	10:04	-133.618	48.307	0	342.70	0	4.3630	0	33.8960	0	26.873	0	339.533	0	-1e10	8	-1e10	8	-1E+10	1	-1E+10	1	-1E+10	1	-1E+10	1	-1E+10	1	-1E+10	1
4902554	65	C	11/23/2022	10:04	-133.618	48.307	0	343.70	0	4.3610	0	33.8960	0	26.873	0	340.523	0	-1e10	8	-1e10	8	-1E+10	1	-1E+10	1	-1E+10	1	-1E+10	1	-1E+10	1	-1E+10	1
4902554	65	C	11/23/2022	10:04	-133.618	48.307	0	344.70	0	4.3580	0	33.8970	0	26.874	0	341.513	0	-1e10	8	-1e10	8	-1E+10	1	-1E+10	1	-1E+10	1	-1E+10	1	-1E+10	1	-1E+10	1
4902554	65	C	11/23/2022	10:04	-133.618	48.307	0	345.70	0	4.3500	0	33.9010	0	26.878	0	342.503	0	-1e10	8	-1e10	8	-1E+10	1	-1E+10	1	-1E+10	1	-1E+10	1	-1E+10	1	-1E+10	1
4902554	65	C	11/23/2022	10:04	-133.618	48.307	0	346.70	0	4.3490	0	33.9010	0	26.878	0	343.493	0	-1e10	8	-1e10	8	-1E+10	1	-1E+10	1	-1E+10	1	-1E+10	1	-1E+10	1	-1E+10	1
4902554	65	C	11/23/2022	10:04	-133.618	48.307	0	347.70	0	4.3460	0	33.9030	0	26.880	0	344.483	0	-1e10	8	-1e10	8	-1E+10	1	-1E+10	1	-1E+10	1	-1E+10	1	-1E+10	1	-1E+10	1
4902554	65	C	11/23/2022	10:04	-133.618	48.307	0	348.70	0	4.3410	0	33.9060	0	26.883	0	345.473	0	-1e10	8	-1e10	8	-1E+10	1	-1E+10	1	-1E+10	1	-1E+10	1	-1E+10	1	-1E+10	1
4902554	65	C	11/23/2022	10:04	-133.618	48.307	0	349.70	0	4.3400	0	33.9070	0	26.884	0	346.463	0	-1e10	8	-1e10	8	-1E+10	1	-1E+10	1	-1E+10	1	-1E+10	1	-1E+10	1	-1E+10	1
4902554	65	C	11/23/2022	10:04	-133.618	48.307	0	353.10	0	4.3240	0	33.9120	0	26.890	0	349.828	0	-1e10	8	-1e10	8	-1E+10	1	-1E+10	1	-1E+10	1	-1E+10	1	-1E+10	1	-1E+10	1
4902554	65	C	11/23/2022	10:04	-133.618	48.307	0	358.00	0	4.3130	0	33.9160	0	26.894	0	354.679	0	-1e10	8	-1e10	8	-1E+10	1	-1E+10	1	-1E+10	1	-1E+10	1	-1E+10	1	-1E+10	1
4902554	65	C	11/23/2022	10:04	-133.618	48.307	0	362.90	0	4.3000	0	33.9180	0	26.897	0	359.529	0	-1e10	8	-1e10	8	-1E+10	1	-1E+10	1	-1E+10	1	-1E+10	1	-1E+10	1	-1E+10	1
4902554	65	C	11/23/2022	10:04	-133.618	48.307	0	367.90	0	4.2940	0	33.9210	0	26.900	0	364.478	0	-1e10	8	-1e10	8	-1E+10	1	-1E+10	1	-1E+10	1	-1E+10	1	-1E+10	1	-1E+10	1
4902554	65	C	11/23/2022	10:04	-133.618	48.307	0	373.00	0	4.2900	0	33.9220	0	26.901	0	369.526	0	-1e10	8	-1e10	8	-1E+10	1	-1E+10	1	-1E+10	1	-1E+10	1	-1E+10	1	-1E+10	1
4902554	65	C	11/23/2022	10:04	-133.618	48.307	0	377.90	0	4.2800	0	33.9260	0	26.906	0	374.376	0	-1e10	8	-1e10	8	-1E+10	1	-1E+10	1	-1E+10	1	-1E+10	1	-1E+10	1	-1E+10	1
4902554	65	C	11/23/2022	10:04	-133.618	48.307	0	382.90	0	4.2660	0	33.9310	0	26.911	0	379.325	0	-1e10	8	-1e10	8	-1E+10	1	-1E+10	1	-1E+10	1	-1E+10	1	-1E+10	1	-1E+10	1
4902554	65	C	11/23/2022	10:04	-133.618	48.307	0	388.00	0	4.2600	0	33.9330	0	26.913	0	384.373	0	-1e10	8	-1e10	8	-1E+10	1	-1E+10	1	-1E+10	1	-1E+10	1	-1E+10	1	-1E+10	1
4902554	65	C	11/23/2022	10:04	-133.618	48.307	0	392.70	0	4.2520	0	33.9370	0	26.918	0	389.024	0	-1e10	8	-1e10	8	-1E+10	1	-1E+10	1	-1E+10	1	-1E+10	1	-1E+10	1	-1E+10	1
4902554	65	C	11/23/2022	10:04	-133.618	48.307	0	398.00	0	4.2450	0	33.9400	0	26.921	0	394.270	0	-1e10	8	-1e10	8	-1E+10	1	-1E+10	1	-1E+10	1	-1E+10	1	-1E+10	1	-1E+10	1
4902554	65	C	11/23/2022	10:04	-133.618	48.307	0	403.20	0	4.2310	0	33.9430	0	26.925	0	399.416	0	-1e10	8	-1e10	8	-1E+10	1	-1E+10	1	-1E+10	1	-1E+10	1	-1E+10	1	-1E+10	1
4902554	65	C	11/23/2022	10:04	-133.618	48.307	0	408.00	0	4.2210	0	33.9470	0	26.929	0	404.166	0	-1e10	8	-1e10	8	-1E+10	1	-1E+10	1	-1E+10	1	-1E+10	1	-1E+10	1	-1E+10	1
4902554	65	C	11/23/2022	10:04	-133.618	48.307	0	412.80	0	4.2170	0	33.9490	0	26.931	0	408.916	0	-1e10	8	-1e10	8	-1E+10	1	-1E+10	1	-1E+10	1	-1E+10	1	-1E+10	1	-1E+10	1
4902554	65	C	11/23/2022	10:04	-133.618	48.307	0	418.00	0	4.2110	0	33.9520	0	26.934	0	414.062	0	-1e10	8	-1e10	8	-1E+10	1	-1E+10	1	-1E+10	1	-1E+10	1	-1E+10	1	-1E+10	1
4902554	65	C	11/23/2022	10:04	-133.618	48.307	0	423.20	0	4.2040	0	33.9570	0	26.939	0	419.208	0	-1e10	8	-1e10	8	-1E+10	1	-1E+10	1	-1E+10	1	-1E+10	1	-1E+10	1	-1E+10	1
4902554	65	C	11/23/2022	10:04	-133.618	48.307	0	427.90	0	4.2050	0	33.9570	0	26.939	0	423.859	0	-1e10	8	-1e10	8	-1E+10	1	-1E+10	1	-1E+10	1	-1E+10	1	-1E+10	1	-1E+10	1
4902554	65	C	11/23/2022	10:04	-133.618	48.307	0	432.60	0	4.2040	0	33.9580	0	26.940	0	428.510	0	-1e10	8	-1e10	8	-1E+10	1	-1E+10	1	-1E+10	1	-1E+10	1	-1E+10	1	-1E+10	1
4902554	65	C	11/23/2022	10:04	-133.618	48.307	0	438.00	0	4.2000	0	33.9610	0	26.942	0	433.853	0	-1e10	8	-1e10	8	-1E+10	1	-1E+10	1	-1E+10	1	-1E+10	1	-1E+10	1	-1E+10	1
4902554	65	C	11/23/2022	10:04	-133.618	48.307	0	443.30	0	4.1940	0	33.9670	0	26.948	0	439.097	0	-1e10	8	-1e10	8	-1E+10	1	-1E+10	1	-1E+10	1	-1E+10	1	-1E+10	1	-1E+10	1
4902554	65	C	11/23/2022	10:04	-133.618	48.307	0	448.20	0	4.1890	0	33.9770	0	26.956	0	443.945	0	-1e10	8	-1e10	8	-1E+10	1	-1E+10	1	-1E+10	1	-1E+10	1	-1E+10	1	-1E+10	1
4902554	65	C	11/23/2022	10:04	-133.618	48.307	0	453.20	0	4.1910	0	33.9810	0	26.959	0	448.892	0	-1e10	8	-1e10	8	-1E+10	1	-1E+10	1	-1E+10	1	-1E+10	1	-1E+10	1	-1E+10	1
4902554	65	C	11/23/2022	10:04	-133.618	48.307	0	458.20	0	4.1850	0	33.9860	0	26.964	0	453.839	0	-1e10	8	-1e10	8	-1E+10	1	-1E+10	1	-1E+10	1	-1E+10	1	-1E+10	1	-1E+10	1
4902554	65	C	11/23/2022	10:04	-133.618	48.307	0	463.30	0	4.1810	0	33.9910	0	26.968	0	458.885	0	-1e10	8	-1e10	8	-1E+10	1	-1E+10	1	-1E+10	1	-1E+10	1	-1E+10	1	-1E+10	1
4902554	65	C	11/23/2022	10:04	-133.618	48.307	0	468.00	0	4.1800	0	33.9970	0	26.973	0	463.535	0	-1e10	8	-1e10	8	-1E+10	1	-1E+10	1	-1E+10	1	-1E+10	1	-1E+10	1	-1E+10	1
4902554	65	C	11/23/2022	10:04	-133.618	48.307	0	472.60	0	4.1780	0	34.0050	0	26.980	0	468.086	0	-1e10	8	-1e10	8	-1E+10	1	-1E+10	1	-1E+10	1	-1E+10	1	-1E+10	1	-1E+10	1
4902554	65	C	11/23/2022	10:04	-133.618	48.307	0	477.70	0	4.1740	0	34.0110	0	26.985	0	473.132	0	-1e10	8	-1e10	8	-1E+10	1	-1E+10	1	-1E+10	1	-1E+10	1	-1E+10	1	-1E+10	1
4902554	65	C	11/23/2022	10:04	-133.618	48.307	0	482.90	0	4.1700	0	34.0180	0	26.991	0	478.276	0	-1e10	8	-1e10	8	-1E+10	1	-1E+10	1	-1E+10	1	-1E+10	1	-1E+10	1	-1E+10	1
4902554	65	C	11/23/2022	10:04	-133.618	48.307	0	488.00	0	4.1670	0	34.0210	0	26.994	0	483.321	0	-1e10	8	-1e10	8	-1E+10	1	-1E+10	1	-1E+10	1	-1E+10	1	-1E+10	1	-1E+10	1
4902554	65	C	11/23/2022	10:04	-133.618	48.307	0	493.10	0	4.1600	0	34.0290	0	27.001	0	488.366	0	-1e10	8	-1e10	8	-1E+10	1	-1E+10	1	-1E+10	1	-1E+10	1	-1E+10	1	-1E+10	1
4902554	65	C	11/23/2022	10:04	-133.618	48.307	0	498.30	0	4.1490	0	34.0360	0	27.008	0	493.510	0	-1e10	8	-1e10	8	-1E+10	1	-1E+10	1	-1E+10	1	-1E+10	1	-1E+10	1	-1E+10	1
4902554	65	C	11/23/2022	10:04	-133.618	48.307	0	502.90	0	4.1420	0	34.0400	0	27.012	0	498.061	0	-1e10	8	-1e10	8	-1E+10	1	-1E+10	1	-1E+10	1	-1E+10	1	-1E+10	1	-1E+10	1
4902554	65	C	11/23/2022	10:04	-133.618	48.307	0	507.60	0	4.1370	0	34.0420	0	27.014	0	502.710	0	-1e10	8	-1e10	8	-1E+10	1	-1E+10	1	-1E+10	1	-1E+10	1	-1E+10	1	-1E+10	1
4902554	65	C	11/23/2022	10:04	-133.618	48.307	0	512.70	0	4.1280	0	34.0470	0	27.019	0	507.754	0	-1e10	8	-1e10	8	-1E+10	1	-1E+10	1	-1E+10	1	-1E+10	1	-1E+10	1	-1E+10	1
4902554	65	C	11/23/2022	10:04	-133.618	48.307	0	517.80	0	4.1200	0	34.0500	0	27.022	0	512.799	0	-1e10	8	-1e10	8	-1E+10	1	-1E+10	1	-1E+10	1	-1E+10	1	-1E+10	1	-1E+10	1
4902554	65	C	11/23/2022	10:04	-133.618	48.307	0	523.10	0	4.1100	0	34.0550	0	27.027	0	518.041	0	-1e10	8	-1e10	8	-1E+10	1	-1E+10	1	-1E+10	1	-1E+10	1	-1E+10	1	-1E+10	1
4902554	65	C	11/23/2022	10:04	-133.618	48.307	0	528.20	0	4.1050	0	34.0580	0	27.030	0	523.085	0	-1e10	8	-1e10	8	-1E+10	1	-1E+10	1	-1E+10	1	-1E+10	1	-1E+10	1	-1E+10	1
4902554	65	C	11/23/2022	10:04	-133.618	48.307	0	532.90	0	4.0950	0	34.0620	0	27.034	0	527.734	0	-1e10	8	-1e10	8	-1E+10	1	-1E+10	1	-1E+10	1	-1E+10	1	-1E+10	1	-1E+10	1
4902554	65	C	11/23/2022	10:04	-133.618	48.307	0	537.60	0	4.0880	0	34.0650	0	27.037	0	532.382	0	-1e10	8	-1e10	8	-1E+10	1	-1E+10	1	-1E+10	1	-1E+10	1	-1E+10	1	-1E+10	1
4902554	65	C	11/23/2022	10:04	-133.618	48.307	0	542.90	0	4.0810	0	34.0700	0	27.042	0	537.624	0	-1e10	8	-1e10	8	-1E+10	1	-1E+10	1	-1E+10	1	-1E+10	1	-1E+10	1	-1E+10	1
4902554	65	C	11/23/2022	10:04	-133.618	48.307	0	548.00	0	4.0730	0	34.0770	0	27.049	0	542.668	0	-1e10	8	-1e10	8	-1E+10	1	-1E+10	1	-1E+10	1	-1E+10	1	-1E+10	1	-1E+10	1
4902554	65	C	11/23/2022	10:04	-133.618	48.307	0	553.20	0	4.0650	0	34.0820	0	27.053	0	547.810	0	-1e10	8	-1e10	8	-1E+10	1	-1E+10	1	-1E+10	1	-1E+10	1	-1E+10	1	-1E+10	1
4902554	65	C	11/23/2022	10:04	-133.618	48.307	0	557.90	0	4.0560	0	34.0860	0	27.058	0	552.458	0	-1e10	8	-1e10	8	-1E+10	1	-1E+10	1	-1E+10	1	-1E+10	1	-1E+10	1	-1E+10	1
4902554	65	C	11/23/2022	10:04	-133.618	48.307	0	563.00	0	4.0400	0	34.0930	0	27.065	0	557.502	0	-1e10	8	-1e10	8	-1E+10	1	-1E+10	1	-1E+10	1	-1E+10	1	-1E+10	1	-1E+10	1
4902554	65	C	11/23/2022	10:04	-133.618	48.307	0	568.00	0	4.0320	0	34.1000	0	27.071	0	562.446	0	-1e10	8	-1e10	8	-1E+10	1	-1E+10	1	-1E+10	1	-1E+10	1	-1E+10	1	-1E+10	1
4902554	65	C	11/23/2022	10:04	-133.618	48.307	0	572.80	0	4.0220	0	34.1060	0	27.077	0	567.193	0	-1e10	8	-1e10	8	-1E+10	1	-1E+10	1	-1E+10	1	-1E+10	1	-1E+10	1	-1E+10	1
4902554	65	C	11/23/2022	10:04	-133.618	48.307	0	577.60	0	4.0140	0	34.1110	0	27.082	0	571.939	0	-1e10	8	-1e10	8	-1E+10	1	-1E+10	1	-1E+10	1	-1E+10	1	-1E+10	1	-1E+10	1
4902554	65	C	11/23/2022	10:04	-133.618	48.307	0	582.90	0	3.9970	0	34.1180	0	27.089	0	577.180	0	-1e10	8	-1e10	8	-1E+10	1	-1E+10	1	-1E+10	1	-1E+10	1	-1E+10	1	-1E+10	1
4902554	65	C	11/23/2022	10:04	-133.618	48.307	0	588.00	0	3.9820	0	34.1250	0	27.096	0	582.223	0	-1e10	8	-1e10	8	-1E+10	1	-1E+10	1	-1E+10	1	-1E+10	1	-1E+10	1	-1E+10	1
4902554	65	C	11/23/2022	10:04	-133.618	48.307	0	592.70	0	3.9730	0	34.1280	0	27.100	0	586.870	0	-1e10	8	-1e10	8	-1E+10	1	-1E+10	1	-1E+10	1	-1E+10	1	-1E+10	1	-1E+10	1
4902554	65	C	11/23/2022	10:04	-133.618	48.307	0	597.90	0	3.9560	0	34.1350	0	27.107	0	592.011	0	-1e10	8	-1e10	8	-1E+10	1	-1E+10	1	-1E+10	1	-1E+10	1	-1E+10	1	-1E+10	1
4902554	65	C	11/23/2022	10:04	-133.618	48.307	0	602.80	0	3.9410	0	34.1400	0	27.113	0	596.856	0	-1e10	8	-1e10	8	-1E+10	1	-1E+10	1	-1E+10	1	-1E+10	1	-1E+10	1	-1E+10	1
4902554	65	C	11/23/2022	10:04	-133.618	48.307	0	607.70	0	3.9280	0	34.1450	0	27.118	0	601.700	0	-1e10	8	-1e10	8	-1E+10	1	-1E+10	1	-1E+10	1	-1E+10	1	-1E+10	1	-1E+10	1
4902554	65	C	11/23/2022	10:04	-133.618	48.307	0	612.80	0	3.9170	0	34.1490	0	27.122	0	606.743	0	-1e10	8	-1e10	8	-1E+10	1	-1E+10	1	-1E+10	1	-1E+10	1	-1E+10	1	-1E+10	1
4902554	65	C	11/23/2022	10:04	-133.618	48.307	0	618.00	0	3.9130	0	34.1510	0	27.124	0	611.884	0	-1e10	8	-1e10	8	-1E+10	1	-1E+10	1	-1E+10	1	-1E+10	1	-1E+10	1	-1E+10	1
4902554	65	C	11/23/2022	10:04	-133.618	48.307	0	623.30	0	3.9000	0	34.1560	0	27.130	0	617.123	0	-1e10	8	-1e10	8	-1E+10	1	-1E+10	1	-1E+10	1	-1E+10	1	-1E+10	1	-1E+10	1
4902554	65	C	11/23/2022	10:04	-133.618	48.307	0	628.30	0	3.8920	0	34.1590	0	27.133	0	622.066	0	-1e10	8	-1e10	8	-1E+10	1	-1E+10	1	-1E+10	1	-1E+10	1	-1E+10	1	-1E+10	1
4902554	65	C	11/23/2022	10:04	-133.618	48.307	0	633.20	0	3.8860	0	34.1630	0	27.137	0	626.910	0	-1e10	8	-1e10	8	-1E+10	1	-1E+10	1	-1E+10	1	-1E+10	1	-1E+10	1	-1E+10	1
4902554	65	C	11/23/2022	10:04	-133.618	48.307	0	638.20	0	3.8760	0	34.1660	0	27.140	0	631.853	0	-1e10	8	-1e10	8	-1E+10	1	-1E+10	1	-1E+10	1	-1E+10	1	-1E+10	1	-1E+10	1
4902554	65	C	11/23/2022	10:04	-133.618	48.307	0	643.20	0	3.8680	0	34.1660	0	27.141	0	636.796	0	-1e10	8	-1e10	8	-1E+10	1	-1E+10	1	-1E+10	1	-1E+10	1	-1E+10	1	-1E+10	1
4902554	65	C	11/23/2022	10:04	-133.618	48.307	0	648.30	0	3.8660	0	34.1730	0	27.147	0	641.837	0	-1e10	8	-1e10	8	-1E+10	1	-1E+10	1	-1E+10	1	-1E+10	1	-1E+10	1	-1E+10	1
4902554	65	C	11/23/2022	10:04	-133.618	48.307	0	652.90	0	3.8600	0	34.1760	0	27.150	0	646.384	0	-1e10	8	-1e10	8	-1E+10	1	-1E+10	1	-1E+10	1	-1E+10	1	-1E+10	1	-1E+10	1
4902554	65	C	11/23/2022	10:04	-133.618	48.307	0	657.50	0	3.8540	0	34.1790	0	27.153	0	650.931	0	-1e10	8	-1e10	8	-1E+10	1	-1E+10	1	-1E+10	1	-1E+10	1	-1E+10	1	-1E+10	1
4902554	65	C	11/23/2022	10:04	-133.618	48.307	0	662.70	0	3.8420	0	34.1820	0	27.156	0	656.071	0	-1e10	8	-1e10	8	-1E+10	1	-1E+10	1	-1E+10	1	-1E+10	1	-1E+10	1	-1E+10	1
4902554	65	C	11/23/2022	10:04	-133.618	48.307	0	667.90	0	3.8160	0	34.1880	0	27.164	0	661.211	0	-1e10	8	-1e10	8	-1E+10	1	-1E+10	1	-1E+10	1	-1E+10	1	-1E+10	1	-1E+10	1
4902554	65	C	11/23/2022	10:04	-133.618	48.307	0	673.10	0	3.8020	0	34.1920	0	27.168	0	666.350	0	-1e10	8	-1e10	8	-1E+10	1	-1E+10	1	-1E+10	1	-1E+10	1	-1E+10	1	-1E+10	1
4902554	65	C	11/23/2022	10:04	-133.618	48.307	0	677.90	0	3.7890	0	34.1940	0	27.171	0	671.094	0	-1e10	8	-1e10	8	-1E+10	1	-1E+10	1	-1E+10	1	-1E+10	1	-1E+10	1	-1E+10	1
4902554	65	C	11/23/2022	10:04	-133.618	48.307	0	682.50	0	3.7790	0	34.1970	0	27.175	0	675.641	0	-1e10	8	-1e10	8	-1E+10	1	-1E+10	1	-1E+10	1	-1E+10	1	-1E+10	1	-1E+10	1
4902554	65	C	11/23/2022	10:04	-133.618	48.307	0	687.70	0	3.7630	0	34.2020	0	27.180	0	680.780	0	-1e10	8	-1e10	8	-1E+10	1	-1E+10	1	-1E+10	1	-1E+10	1	-1E+10	1	-1E+10	1
4902554	65	C	11/23/2022	10:04	-133.618	48.307	0	692.80	0	3.7510	0	34.2060	0	27.185	0	685.820	0	-1e10	8	-1e10	8	-1E+10	1	-1E+10	1	-1E+10	1	-1E+10	1	-1E+10	1	-1E+10	1
4902554	65	C	11/23/2022	10:04	-133.618	48.307	0	697.90	0	3.7320	0	34.2080	0	27.188	0	690.861	0	-1e10	8	-1e10	8	-1E+10	1	-1E+10	1	-1E+10	1	-1E+10	1	-1E+10	1	-1E+10	1
4902554	65	C	11/23/2022	10:04	-133.618	48.307	0	702.90	0	3.7220	0	34.2110	0	27.192	0	695.802	0	-1e10	8	-1e10	8	-1E+10	1	-1E+10	1	-1E+10	1	-1E+10	1	-1E+10	1	-1E+10	1
4902554	65	C	11/23/2022	10:04	-133.618	48.307	0	708.00	0	3.7050	0	34.2170	0	27.198	0	700.842	0	-1e10	8	-1e10	8	-1E+10	1	-1E+10	1	-1E+10	1	-1E+10	1	-1E+10	1	-1E+10	1
4902554	65	C	11/23/2022	10:04	-133.618	48.307	0	713.00	0	3.6940	0	34.2190	0	27.201	0	705.783	0	-1e10	8	-1e10	8	-1E+10	1	-1E+10	1	-1E+10	1	-1E+10	1	-1E+10	1	-1E+10	1
4902554	65	C	11/23/2022	10:04	-133.618	48.307	0	718.00	0	3.6650	0	34.2250	0	27.208	0	710.723	0	-1e10	8	-1e10	8	-1E+10	1	-1E+10	1	-1E+10	1	-1E+10	1	-1E+10	1	-1E+10	1
4902554	65	C	11/23/2022	10:04	-133.618	48.307	0	723.00	0	3.6540	0	34.2280	0	27.212	0	715.664	0	-1e10	8	-1e10	8	-1E+10	1	-1E+10	1	-1E+10	1	-1E+10	1	-1E+10	1	-1E+10	1
4902554	65	C	11/23/2022	10:04	-133.618	48.307	0	728.10	0	3.6520	0	34.2290	0	27.213	0	720.704	0	-1e10	8	-1e10	8	-1E+10	1	-1E+10	1	-1E+10	1	-1E+10	1	-1E+10	1	-1E+10	1
4902554	65	C	11/23/2022	10:04	-133.618	48.307	0	733.20	0	3.6440	0	34.2320	0	27.216	0	725.743	0	-1e10	8	-1e10	8	-1E+10	1	-1E+10	1	-1E+10	1	-1E+10	1	-1E+10	1	-1E+10	1
4902554	65	C	11/23/2022	10:04	-133.618	48.307	0	738.30	0	3.6380	0	34.2350	0	27.219	0	730.782	0	-1e10	8	-1e10	8	-1E+10	1	-1E+10	1	-1E+10	1	-1E+10	1	-1E+10	1	-1E+10	1
4902554	65	C	11/23/2022	10:04	-133.618	48.307	0	743.30	0	3.6220	0	34.2380	0	27.223	0	735.722	0	-1e10	8	-1e10	8	-1E+10	1	-1E+10	1	-1E+10	1	-1E+10	1	-1E+10	1	-1E+10	1
4902554	65	C	11/23/2022	10:04	-133.618	48.307	0	748.40	0	3.6010	0	34.2430	0	27.229	0	740.761	0	-1e10	8	-1e10	8	-1E+10	1	-1E+10	1	-1E+10	1	-1E+10	1	-1E+10	1	-1E+10	1
4902554	65	C	11/23/2022	10:04	-133.618	48.307	0	753.00	0	3.5900	0	34.2460	0	27.233	0	745.306	0	-1e10	8	-1e10	8	-1E+10	1	-1E+10	1	-1E+10	1	-1E+10	1	-1E+10	1	-1E+10	1
4902554	65	C	11/23/2022	10:04	-133.618	48.307	0	757.60	0	3.5770	0	34.2470	0	27.235	0	749.851	0	-1e10	8	-1e10	8	-1E+10	1	-1E+10	1	-1E+10	1	-1E+10	1	-1E+10	1	-1E+10	1
4902554	65	C	11/23/2022	10:04	-133.618	48.307	0	762.70	0	3.5550	0	34.2520	0	27.241	0	754.890	0	-1e10	8	-1e10	8	-1E+10	1	-1E+10	1	-1E+10	1	-1E+10	1	-1E+10	1	-1E+10	1
4902554	65	C	11/23/2022	10:04	-133.618	48.307	0	768.00	0	3.5460	0	34.2540	0	27.243	0	760.126	0	-1e10	8	-1e10	8	-1E+10	1	-1E+10	1	-1E+10	1	-1E+10	1	-1E+10	1	-1E+10	1
4902554	65	C	11/23/2022	10:04	-133.618	48.307	0	773.20	0	3.5370	0	34.2560	0	27.246	0	765.263	0	-1e10	8	-1e10	8	-1E+10	1	-1E+10	1	-1E+10	1	-1E+10	1	-1E+10	1	-1E+10	1
4902554	65	C	11/23/2022	10:04	-133.618	48.307	0	778.00	0	3.5230	0	34.2590	0	27.250	0	770.005	0	-1e10	8	-1e10	8	-1E+10	1	-1E+10	1	-1E+10	1	-1E+10	1	-1E+10	1	-1E+10	1
4902554	65	C	11/23/2022	10:04	-133.618	48.307	0	783.10	0	3.5160	0	34.2610	0	27.252	0	775.043	0	-1e10	8	-1e10	8	-1E+10	1	-1E+10	1	-1E+10	1	-1E+10	1	-1E+10	1	-1E+10	1
4902554	65	C	11/23/2022	10:04	-133.618	48.307	0	788.20	0	3.5090	0	34.2630	0	27.254	0	780.081	0	-1e10	8	-1e10	8	-1E+10	1	-1E+10	1	-1E+10	1	-1E+10	1	-1E+10	1	-1E+10	1
4902554	65	C	11/23/2022	10:04	-133.618	48.307	0	793.30	0	3.5040	0	34.2650	0	27.256	0	785.119	0	-1e10	8	-1e10	8	-1E+10	1	-1E+10	1	-1E+10	1	-1E+10	1	-1E+10	1	-1E+10	1
4902554	65	C	11/23/2022	10:04	-133.618	48.307	0	798.10	0	3.4930	0	34.2670	0	27.259	0	789.860	0	-1e10	8	-1e10	8	-1E+10	1	-1E+10	1	-1E+10	1	-1E+10	1	-1E+10	1	-1E+10	1
4902554	65	C	11/23/2022	10:04	-133.618	48.307	0	803.00	0	3.4780	0	34.2710	0	27.264	0	794.700	0	-1e10	8	-1e10	8	-1E+10	1	-1E+10	1	-1E+10	1	-1E+10	1	-1E+10	1	-1E+10	1
4902554	65	C	11/23/2022	10:04	-133.618	48.307	0	808.00	0	3.4660	0	34.2730	0	27.267	0	799.639	0	-1e10	8	-1e10	8	-1E+10	1	-1E+10	1	-1E+10	1	-1E+10	1	-1E+10	1	-1E+10	1
4902554	65	C	11/23/2022	10:04	-133.618	48.307	0	813.10	0	3.4570	0	34.2750	0	27.269	0	804.676	0	-1e10	8	-1e10	8	-1E+10	1	-1E+10	1	-1E+10	1	-1E+10	1	-1E+10	1	-1E+10	1
4902554	65	C	11/23/2022	10:04	-133.618	48.307	0	818.30	0	3.4550	0	34.2770	0	27.271	0	809.813	0	-1e10	8	-1e10	8	-1E+10	1	-1E+10	1	-1E+10	1	-1E+10	1	-1E+10	1	-1E+10	1
4902554	65	C	11/23/2022	10:04	-133.618	48.307	0	823.20	0	3.4480	0	34.2780	0	27.272	0	814.652	0	-1e10	8	-1e10	8	-1E+10	1	-1E+10	1	-1E+10	1	-1E+10	1	-1E+10	1	-1E+10	1
4902554	65	C	11/23/2022	10:04	-133.618	48.307	0	828.10	0	3.4410	0	34.2780	0	27.273	0	819.492	0	-1e10	8	-1e10	8	-1E+10	1	-1E+10	1	-1E+10	1	-1E+10	1	-1E+10	1	-1E+10	1
4902554	65	C	11/23/2022	10:04	-133.618	48.307	0	833.20	0	3.4360	0	34.2800	0	27.275	0	824.529	0	-1e10	8	-1e10	8	-1E+10	1	-1E+10	1	-1E+10	1	-1E+10	1	-1E+10	1	-1E+10	1
4902554	65	C	11/23/2022	10:04	-133.618	48.307	0	838.20	0	3.4310	0	34.2810	0	27.277	0	829.467	0	-1e10	8	-1e10	8	-1E+10	1	-1E+10	1	-1E+10	1	-1E+10	1	-1E+10	1	-1E+10	1
4902554	65	C	11/23/2022	10:04	-133.618	48.307	0	842.90	0	3.4230	0	34.2830	0	27.279	0	834.108	0	-1e10	8	-1e10	8	-1E+10	1	-1E+10	1	-1E+10	1	-1E+10	1	-1E+10	1	-1E+10	1
4902554	65	C	11/23/2022	10:04	-133.618	48.307	0	847.50	0	3.4210	0	34.2830	0	27.279	0	838.651	0	-1e10	8	-1e10	8	-1E+10	1	-1E+10	1	-1E+10	1	-1E+10	1	-1E+10	1	-1E+10	1
4902554	65	C	11/23/2022	10:04	-133.618	48.307	0	852.70	0	3.4110	0	34.2860	0	27.282	0	843.786	0	-1e10	8	-1e10	8	-1E+10	1	-1E+10	1	-1E+10	1	-1E+10	1	-1E+10	1	-1E+10	1
4902554	65	C	11/23/2022	10:04	-133.618	48.307	0	857.90	0	3.4050	0	34.2870	0	27.284	0	848.921	0	-1e10	8	-1e10	8	-1E+10	1	-1E+10	1	-1E+10	1	-1E+10	1	-1E+10	1	-1E+10	1
4902554	65	C	11/23/2022	10:04	-133.618	48.307	0	863.10	0	3.3930	0	34.2900	0	27.287	0	854.056	0	-1e10	8	-1e10	8	-1E+10	1	-1E+10	1	-1E+10	1	-1E+10	1	-1E+10	1	-1E+10	1
4902554	65	C	11/23/2022	10:04	-133.618	48.307	0	868.30	0	3.3740	0	34.2950	0	27.293	0	859.191	0	-1e10	8	-1e10	8	-1E+10	1	-1E+10	1	-1E+10	1	-1E+10	1	-1E+10	1	-1E+10	1
4902554	65	C	11/23/2022	10:04	-133.618	48.307	0	873.00	0	3.3640	0	34.2970	0	27.296	0	863.832	0	-1e10	8	-1e10	8	-1E+10	1	-1E+10	1	-1E+10	1	-1E+10	1	-1E+10	1	-1E+10	1
4902554	65	C	11/23/2022	10:04	-133.618	48.307	0	877.70	0	3.3550	0	34.2980	0	27.298	0	868.473	0	-1e10	8	-1e10	8	-1E+10	1	-1E+10	1	-1E+10	1	-1E+10	1	-1E+10	1	-1E+10	1
4902554	65	C	11/23/2022	10:04	-133.618	48.307	0	882.90	0	3.3420	0	34.3010	0	27.301	0	873.608	0	-1e10	8	-1e10	8	-1E+10	1	-1E+10	1	-1E+10	1	-1E+10	1	-1E+10	1	-1E+10	1
4902554	65	C	11/23/2022	10:04	-133.618	48.307	0	888.10	0	3.3220	0	34.3050	0	27.306	0	878.742	0	-1e10	8	-1e10	8	-1E+10	1	-1E+10	1	-1E+10	1	-1E+10	1	-1E+10	1	-1E+10	1
4902554	65	C	11/23/2022	10:04	-133.618	48.307	0	892.90	0	3.3150	0	34.3070	0	27.309	0	883.481	0	-1e10	8	-1e10	8	-1E+10	1	-1E+10	1	-1E+10	1	-1E+10	1	-1E+10	1	-1E+10	1
4902554	65	C	11/23/2022	10:04	-133.618	48.307	0	898.00	0	3.3040	0	34.3100	0	27.312	0	888.517	0	-1e10	8	-1e10	8	-1E+10	1	-1E+10	1	-1E+10	1	-1E+10	1	-1E+10	1	-1E+10	1
4902554	65	C	11/23/2022	10:04	-133.618	48.307	0	903.00	0	3.2900	0	34.3130	0	27.316	0	893.453	0	-1e10	8	-1e10	8	-1E+10	1	-1E+10	1	-1E+10	1	-1E+10	1	-1E+10	1	-1E+10	1
4902554	65	C	11/23/2022	10:04	-133.618	48.307	0	907.80	0	3.2840	0	34.3150	0	27.318	0	898.192	0	-1e10	8	-1e10	8	-1E+10	1	-1E+10	1	-1E+10	1	-1E+10	1	-1E+10	1	-1E+10	1
4902554	65	C	11/23/2022	10:04	-133.618	48.307	0	912.60	0	3.2730	0	34.3170	0	27.321	0	902.931	0	-1e10	8	-1e10	8	-1E+10	1	-1E+10	1	-1E+10	1	-1E+10	1	-1E+10	1	-1E+10	1
4902554	65	C	11/23/2022	10:04	-133.618	48.307	0	917.80	0	3.2640	0	34.3190	0	27.323	0	908.065	0	-1e10	8	-1e10	8	-1E+10	1	-1E+10	1	-1E+10	1	-1E+10	1	-1E+10	1	-1E+10	1
4902554	65	C	11/23/2022	10:04	-133.618	48.307	0	923.00	0	3.2490	0	34.3230	0	27.328	0	913.198	0	-1e10	8	-1e10	8	-1E+10	1	-1E+10	1	-1E+10	1	-1E+10	1	-1E+10	1	-1E+10	1
4902554	65	C	11/23/2022	10:04	-133.618	48.307	0	927.90	0	3.2430	0	34.3250	0	27.330	0	918.035	0	-1e10	8	-1e10	8	-1E+10	1	-1E+10	1	-1E+10	1	-1E+10	1	-1E+10	1	-1E+10	1
4902554	65	C	11/23/2022	10:04	-133.618	48.307	0	933.00	0	3.2310	0	34.3290	0	27.334	0	923.070	0	-1e10	8	-1e10	8	-1E+10	1	-1E+10	1	-1E+10	1	-1E+10	1	-1E+10	1	-1E+10	1
4902554	65	C	11/23/2022	10:04	-133.618	48.307	0	938.10	0	3.2280	0	34.3300	0	27.335	0	928.104	0	-1e10	8	-1e10	8	-1E+10	1	-1E+10	1	-1E+10	1	-1E+10	1	-1E+10	1	-1E+10	1
4902554	65	C	11/23/2022	10:04	-133.618	48.307	0	943.20	0	3.2180	0	34.3320	0	27.338	0	933.139	0	-1e10	8	-1e10	8	-1E+10	1	-1E+10	1	-1E+10	1	-1E+10	1	-1E+10	1	-1E+10	1
4902554	65	C	11/23/2022	10:04	-133.618	48.307	0	948.30	0	3.2070	0	34.3350	0	27.341	0	938.173	0	-1e10	8	-1e10	8	-1E+10	1	-1E+10	1	-1E+10	1	-1E+10	1	-1E+10	1	-1E+10	1
4902554	65	C	11/23/2022	10:04	-133.618	48.307	0	952.90	0	3.2030	0	34.3360	0	27.342	0	942.713	0	-1e10	8	-1e10	8	-1E+10	1	-1E+10	1	-1E+10	1	-1E+10	1	-1E+10	1	-1E+10	1
4902554	65	C	11/23/2022	10:04	-133.618	48.307	0	957.50	0	3.1930	0	34.3370	0	27.344	0	947.254	0	-1e10	8	-1e10	8	-1E+10	1	-1E+10	1	-1E+10	1	-1E+10	1	-1E+10	1	-1E+10	1
4902554	65	C	11/23/2022	10:04	-133.618	48.307	0	962.60	0	3.1880	0	34.3390	0	27.346	0	952.287	0	-1e10	8	-1e10	8	-1E+10	1	-1E+10	1	-1E+10	1	-1E+10	1	-1E+10	1	-1E+10	1
4902554	65	C	11/23/2022	10:04	-133.618	48.307	0	967.70	0	3.1760	0	34.3400	0	27.348	0	957.321	0	-1e10	8	-1e10	8	-1E+10	1	-1E+10	1	-1E+10	1	-1E+10	1	-1E+10	1	-1E+10	1
4902554	65	C	11/23/2022	10:04	-133.618	48.307	0	972.70	0	3.1690	0	34.3430	0	27.351	0	962.256	0	-1e10	8	-1e10	8	-1E+10	1	-1E+10	1	-1E+10	1	-1E+10	1	-1E+10	1	-1E+10	1
4902554	65	C	11/23/2022	10:04	-133.618	48.307	0	977.80	0	3.1630	0	34.3460	0	27.354	0	967.290	0	-1e10	8	-1e10	8	-1E+10	1	-1E+10	1	-1E+10	1	-1E+10	1	-1E+10	1	-1E+10	1
4902554	65	C	11/23/2022	10:04	-133.618	48.307	0	982.80	0	3.1560	0	34.3470	0	27.356	0	972.224	0	-1e10	8	-1e10	8	-1E+10	1	-1E+10	1	-1E+10	1	-1E+10	1	-1E+10	1	-1E+10	1
4902554	65	C	11/23/2022	10:04	-133.618	48.307	0	987.70	0	3.1450	0	34.3480	0	27.358	0	977.060	0	-1e10	8	-1e10	8	-1E+10	1	-1E+10	1	-1E+10	1	-1E+10	1	-1E+10	1	-1E+10	1
4902554	65	C	11/23/2022	10:04	-133.618	48.307	0	992.70	0	3.1320	0	34.3510	0	27.361	0	981.995	0	-1e10	8	-1e10	8	-1E+10	1	-1E+10	1	-1E+10	1	-1E+10	1	-1E+10	1	-1E+10	1
4902554	65	C	11/23/2022	10:04	-133.618	48.307	0	997.90	0	3.1250	0	34.3550	0	27.365	0	987.126	0	-1e10	8	-1e10	8	-1E+10	1	-1E+10	1	-1E+10	1	-1E+10	1	-1E+10	1	-1E+10	1
4902554	65	C	11/23/2022	10:04	-133.618	48.307	0	1005.60	0	3.1120	0	34.3580	0	27.369	0	994.725	0	-1e10	8	-1e10	8	-1E+10	1	-1E+10	1	-1E+10	1	-1E+10	1	-1E+10	1	-1E+10	1
4902554	65	C	11/23/2022	10:04	-133.618	48.307	0	1015.50	0	3.0850	0	34.3640	0	27.376	0	1004.494	0	-1e10	8	-1e10	8	-1E+10	1	-1E+10	1	-1E+10	1	-1E+10	1	-1E+10	1	-1E+10	1
4902554	65	C	11/23/2022	10:04	-133.618	48.307	0	1025.70	0	3.0690	0	34.3670	0	27.380	0	1014.559	0	-1e10	8	-1e10	8	-1E+10	1	-1E+10	1	-1E+10	1	-1E+10	1	-1E+10	1	-1E+10	1
4902554	65	C	11/23/2022	10:04	-133.618	48.307	0	1035.70	0	3.0470	0	34.3720	0	27.386	0	1024.426	0	-1e10	8	-1e10	8	-1E+10	1	-1E+10	1	-1E+10	1	-1E+10	1	-1E+10	1	-1E+10	1
4902554	65	C	11/23/2022	10:04	-133.618	48.307	0	1045.60	0	3.0300	0	34.3750	0	27.390	0	1034.194	0	-1e10	8	-1e10	8	-1E+10	1	-1E+10	1	-1E+10	1	-1E+10	1	-1E+10	1	-1E+10	1
4902554	65	C	11/23/2022	10:04	-133.618	48.307	0	1055.60	0	3.0120	0	34.3800	0	27.396	0	1044.060	0	-1e10	8	-1e10	8	-1E+10	1	-1E+10	1	-1E+10	1	-1E+10	1	-1E+10	1	-1E+10	1
4902554	65	C	11/23/2022	10:04	-133.618	48.307	0	1065.70	0	2.9880	0	34.3850	0	27.402	0	1054.024	0	-1e10	8	-1e10	8	-1E+10	1	-1E+10	1	-1E+10	1	-1E+10	1	-1E+10	1	-1E+10	1
4902554	65	C	11/23/2022	10:04	-133.618	48.307	0	1075.50	0	2.9720	0	34.3890	0	27.407	0	1063.692	0	-1e10	8	-1e10	8	-1E+10	1	-1E+10	1	-1E+10	1	-1E+10	1	-1E+10	1	-1E+10	1
4902554	65	C	11/23/2022	10:04	-133.618	48.307	0	1085.50	0	2.9560	0	34.3930	0	27.411	0	1073.556	0	-1e10	8	-1e10	8	-1E+10	1	-1E+10	1	-1E+10	1	-1E+10	1	-1E+10	1	-1E+10	1
4902554	65	C	11/23/2022	10:04	-133.618	48.307	0	1095.60	0	2.9420	0	34.3970	0	27.416	0	1083.519	0	-1e10	8	-1e10	8	-1E+10	1	-1E+10	1	-1E+10	1	-1E+10	1	-1E+10	1	-1E+10	1
4902554	65	C	11/23/2022	10:04	-133.618	48.307	0	1105.20	0	2.9340	0	34.3990	0	27.418	0	1092.988	0	-1e10	8	-1e10	8	-1E+10	1	-1E+10	1	-1E+10	1	-1E+10	1	-1E+10	1	-1E+10	1
4902554	65	C	11/23/2022	10:04	-133.618	48.307	0	1115.30	0	2.9160	0	34.4030	0	27.423	0	1102.950	0	-1e10	8	-1e10	8	-1E+10	1	-1E+10	1	-1E+10	1	-1E+10	1	-1E+10	1	-1E+10	1
4902554	65	C	11/23/2022	10:04	-133.618	48.307	0	1125.20	0	2.9040	0	34.4060	0	27.426	0	1112.714	0	-1e10	8	-1e10	8	-1E+10	1	-1E+10	1	-1E+10	1	-1E+10	1	-1E+10	1	-1E+10	1
4902554	65	C	11/23/2022	10:04	-133.618	48.307	0	1135.30	0	2.8930	0	34.4080	0	27.429	0	1122.675	0	-1e10	8	-1e10	8	-1E+10	1	-1E+10	1	-1E+10	1	-1E+10	1	-1E+10	1	-1E+10	1
4902554	65	C	11/23/2022	10:04	-133.618	48.307	0	1145.50	0	2.8810	0	34.4100	0	27.432	0	1132.734	0	-1e10	8	-1e10	8	-1E+10	1	-1E+10	1	-1E+10	1	-1E+10	1	-1E+10	1	-1E+10	1
4902554	65	C	11/23/2022	10:04	-133.618	48.307	0	1155.50	0	2.8700	0	34.4110	0	27.434	0	1142.596	0	-1e10	8	-1e10	8	-1E+10	1	-1E+10	1	-1E+10	1	-1E+10	1	-1E+10	1	-1E+10	1
4902554	65	C	11/23/2022	10:04	-133.618	48.307	0	1165.30	0	2.8580	0	34.4140	0	27.437	0	1152.259	0	-1e10	8	-1e10	8	-1E+10	1	-1E+10	1	-1E+10	1	-1E+10	1	-1E+10	1	-1E+10	1
4902554	65	C	11/23/2022	10:04	-133.618	48.307	0	1175.60	0	2.8410	0	34.4170	0	27.441	0	1162.416	0	-1e10	8	-1e10	8	-1E+10	1	-1E+10	1	-1E+10	1	-1E+10	1	-1E+10	1	-1E+10	1
4902554	65	C	11/23/2022	10:04	-133.618	48.307	0	1185.70	0	2.8200	0	34.4210	0	27.446	0	1172.374	0	-1e10	8	-1e10	8	-1E+10	1	-1E+10	1	-1E+10	1	-1E+10	1	-1E+10	1	-1E+10	1
4902554	65	C	11/23/2022	10:04	-133.618	48.307	0	1195.40	0	2.7950	0	34.4230	0	27.450	0	1181.938	0	-1e10	8	-1e10	8	-1E+10	1	-1E+10	1	-1E+10	1	-1E+10	1	-1E+10	1	-1E+10	1
4902554	65	C	11/23/2022	10:04	-133.618	48.307	0	1205.10	0	2.7850	0	34.4270	0	27.454	0	1191.501	0	-1e10	8	-1e10	8	-1E+10	1	-1E+10	1	-1E+10	1	-1E+10	1	-1E+10	1	-1E+10	1
4902554	65	C	11/23/2022	10:04	-133.618	48.307	0	1215.40	0	2.7680	0	34.4310	0	27.459	0	1201.656	0	-1e10	8	-1e10	8	-1E+10	1	-1E+10	1	-1E+10	1	-1E+10	1	-1E+10	1	-1E+10	1
4902554	65	C	11/23/2022	10:04	-133.618	48.307	0	1225.30	0	2.7480	0	34.4340	0	27.463	0	1211.415	0	-1e10	8	-1e10	8	-1E+10	1	-1E+10	1	-1E+10	1	-1E+10	1	-1E+10	1	-1E+10	1
4902554	65	C	11/23/2022	10:04	-133.618	48.307	0	1235.30	0	2.7360	0	34.4360	0	27.466	0	1221.273	0	-1e10	8	-1e10	8	-1E+10	1	-1E+10	1	-1E+10	1	-1E+10	1	-1E+10	1	-1E+10	1
4902554	65	C	11/23/2022	10:04	-133.618	48.307	0	1245.40	0	2.7110	0	34.4390	0	27.470	0	1231.229	0	-1e10	8	-1e10	8	-1E+10	1	-1E+10	1	-1E+10	1	-1E+10	1	-1E+10	1	-1E+10	1
4902554	65	C	11/23/2022	10:04	-133.618	48.307	0	1255.20	0	2.7000	0	34.4410	0	27.473	0	1240.888	0	-1e10	8	-1e10	8	-1E+10	1	-1E+10	1	-1E+10	1	-1E+10	1	-1E+10	1	-1E+10	1
4902554	65	C	11/23/2022	10:04	-133.618	48.307	0	1265.20	0	2.6900	0	34.4440	0	27.476	0	1250.744	0	-1e10	8	-1e10	8	-1E+10	1	-1E+10	1	-1E+10	1	-1E+10	1	-1E+10	1	-1E+10	1
4902554	65	C	11/23/2022	10:04	-133.618	48.307	0	1275.50	0	2.6730	0	34.4480	0	27.481	0	1260.896	0	-1e10	8	-1e10	8	-1E+10	1	-1E+10	1	-1E+10	1	-1E+10	1	-1E+10	1	-1E+10	1
4902554	65	C	11/23/2022	10:04	-133.618	48.307	0	1285.50	0	2.6610	0	34.4510	0	27.485	0	1270.751	0	-1e10	8	-1e10	8	-1E+10	1	-1E+10	1	-1E+10	1	-1E+10	1	-1E+10	1	-1E+10	1
4902554	65	C	11/23/2022	10:04	-133.618	48.307	0	1295.30	0	2.6430	0	34.4540	0	27.489	0	1280.409	0	-1e10	8	-1e10	8	-1E+10	1	-1E+10	1	-1E+10	1	-1E+10	1	-1E+10	1	-1E+10	1
4902554	65	C	11/23/2022	10:04	-133.618	48.307	0	1305.70	0	2.6260	0	34.4570	0	27.492	0	1290.658	0	-1e10	8	-1e10	8	-1E+10	1	-1E+10	1	-1E+10	1	-1E+10	1	-1E+10	1	-1E+10	1
4902554	65	C	11/23/2022	10:04	-133.618	48.307	0	1315.40	0	2.6080	0	34.4600	0	27.496	0	1300.216	0	-1e10	8	-1e10	8	-1E+10	1	-1E+10	1	-1E+10	1	-1E+10	1	-1E+10	1	-1E+10	1
4902554	65	C	11/23/2022	10:04	-133.618	48.307	0	1325.40	0	2.6000	0	34.4620	0	27.499	0	1310.070	0	-1e10	8	-1e10	8	-1E+10	1	-1E+10	1	-1E+10	1	-1E+10	1	-1E+10	1	-1E+10	1
4902554	65	C	11/23/2022	10:04	-133.618	48.307	0	1335.60	0	2.5830	0	34.4660	0	27.504	0	1320.120	0	-1e10	8	-1e10	8	-1E+10	1	-1E+10	1	-1E+10	1	-1E+10	1	-1E+10	1	-1E+10	1
4902554	65	C	11/23/2022	10:04	-133.618	48.307	0	1345.50	0	2.5760	0	34.4670	0	27.505	0	1329.874	0	-1e10	8	-1e10	8	-1E+10	1	-1E+10	1	-1E+10	1	-1E+10	1	-1E+10	1	-1E+10	1
4902554	65	C	11/23/2022	10:04	-133.618	48.307	0	1355.10	0	2.5690	0	34.4690	0	27.507	0	1339.332	0	-1e10	8	-1e10	8	-1E+10	1	-1E+10	1	-1E+10	1	-1E+10	1	-1E+10	1	-1E+10	1
4902554	65	C	11/23/2022	10:04	-133.618	48.307	0	1365.00	0	2.5510	0	34.4720	0	27.511	0	1349.085	0	-1e10	8	-1e10	8	-1E+10	1	-1E+10	1	-1E+10	1	-1E+10	1	-1E+10	1	-1E+10	1
4902554	65	C	11/23/2022	10:04	-133.618	48.307	0	1375.10	0	2.5280	0	34.4760	0	27.516	0	1359.035	0	-1e10	8	-1e10	8	-1E+10	1	-1E+10	1	-1E+10	1	-1E+10	1	-1E+10	1	-1E+10	1
4902554	65	C	11/23/2022	10:04	-133.618	48.307	0	1385.40	0	2.5090	0	34.4800	0	27.521	0	1369.181	0	-1e10	8	-1e10	8	-1E+10	1	-1E+10	1	-1E+10	1	-1E+10	1	-1E+10	1	-1E+10	1
4902554	65	C	11/23/2022	10:04	-133.618	48.307	0	1395.40	0	2.4980	0	34.4820	0	27.524	0	1379.031	0	-1e10	8	-1e10	8	-1E+10	1	-1E+10	1	-1E+10	1	-1E+10	1	-1E+10	1	-1E+10	1
4902554	65	C	11/23/2022	10:04	-133.618	48.307	0	1405.40	0	2.4900	0	34.4830	0	27.525	0	1388.881	0	-1e10	8	-1e10	8	-1E+10	1	-1E+10	1	-1E+10	1	-1E+10	1	-1E+10	1	-1E+10	1
4902554	65	C	11/23/2022	10:04	-133.618	48.307	0	1415.40	0	2.4760	0	34.4850	0	27.528	0	1398.730	0	-1e10	8	-1e10	8	-1E+10	1	-1E+10	1	-1E+10	1	-1E+10	1	-1E+10	1	-1E+10	1
4902554	65	C	11/23/2022	10:04	-133.618	48.307	0	1425.30	0	2.4610	0	34.4880	0	27.532	0	1408.481	0	-1e10	8	-1e10	8	-1E+10	1	-1E+10	1	-1E+10	1	-1E+10	1	-1E+10	1	-1E+10	1
4902554	65	C	11/23/2022	10:04	-133.618	48.307	0	1435.40	0	2.4560	0	34.4890	0	27.533	0	1418.428	0	-1e10	8	-1e10	8	-1E+10	1	-1E+10	1	-1E+10	1	-1E+10	1	-1E+10	1	-1E+10	1
4902554	65	C	11/23/2022	10:04	-133.618	48.307	0	1445.10	0	2.4440	0	34.4910	0	27.536	0	1427.980	0	-1e10	8	-1e10	8	-1E+10	1	-1E+10	1	-1E+10	1	-1E+10	1	-1E+10	1	-1E+10	1
4902554	65	C	11/23/2022	10:04	-133.618	48.307	0	1455.20	0	2.4370	0	34.4920	0	27.537	0	1437.926	0	-1e10	8	-1e10	8	-1E+10	1	-1E+10	1	-1E+10	1	-1E+10	1	-1E+10	1	-1E+10	1
4902554	65	C	11/23/2022	10:04	-133.618	48.307	0	1465.50	0	2.4240	0	34.4950	0	27.541	0	1448.068	0	-1e10	8	-1e10	8	-1E+10	1	-1E+10	1	-1E+10	1	-1E+10	1	-1E+10	1	-1E+10	1
4902554	65	C	11/23/2022	10:04	-133.618	48.307	0	1475.30	0	2.4060	0	34.4980	0	27.545	0	1457.718	0	-1e10	8	-1e10	8	-1E+10	1	-1E+10	1	-1E+10	1	-1E+10	1	-1E+10	1	-1E+10	1
4902554	65	C	11/23/2022	10:04	-133.618	48.307	0	1485.50	0	2.3890	0	34.5010	0	27.549	0	1467.761	0	-1e10	8	-1e10	8	-1E+10	1	-1E+10	1	-1E+10	1	-1E+10	1	-1E+10	1	-1E+10	1
4902554	65	C	11/23/2022	10:04	-133.618	48.307	0	1495.60	0	2.3730	0	34.5040	0	27.552	0	1477.705	0	-1e10	8	-1e10	8	-1E+10	1	-1E+10	1	-1E+10	1	-1E+10	1	-1E+10	1	-1E+10	1
4902554	65	C	11/23/2022	10:04	-133.618	48.307	0	1505.20	0	2.3640	0	34.5050	0	27.554	0	1487.157	0	-1e10	8	-1e10	8	-1E+10	1	-1E+10	1	-1E+10	1	-1E+10	1	-1E+10	1	-1E+10	1
4902554	65	C	11/23/2022	10:04	-133.618	48.307	0	1515.30	0	2.3600	0	34.5060	0	27.555	0	1497.100	0	-1e10	8	-1e10	8	-1E+10	1	-1E+10	1	-1E+10	1	-1E+10	1	-1E+10	1	-1E+10	1
4902554	65	C	11/23/2022	10:04	-133.618	48.307	0	1525.40	0	2.3460	0	34.5090	0	27.559	0	1507.043	0	-1e10	8	-1e10	8	-1E+10	1	-1E+10	1	-1E+10	1	-1E+10	1	-1E+10	1	-1E+10	1
4902554	65	C	11/23/2022	10:04	-133.618	48.307	0	1535.50	0	2.3390	0	34.5100	0	27.560	0	1516.985	0	-1e10	8	-1e10	8	-1E+10	1	-1E+10	1	-1E+10	1	-1E+10	1	-1E+10	1	-1E+10	1
4902554	65	C	11/23/2022	10:04	-133.618	48.307	0	1545.50	0	2.3230	0	34.5130	0	27.564	0	1526.828	0	-1e10	8	-1e10	8	-1E+10	1	-1E+10	1	-1E+10	1	-1E+10	1	-1E+10	1	-1E+10	1
4902554	65	C	11/23/2022	10:04	-133.618	48.307	0	1555.20	0	2.3090	0	34.5160	0	27.568	0	1536.376	0	-1e10	8	-1e10	8	-1E+10	1	-1E+10	1	-1E+10	1	-1E+10	1	-1E+10	1	-1E+10	1
4902554	65	C	11/23/2022	10:04	-133.618	48.307	0	1565.50	0	2.2960	0	34.5180	0	27.570	0	1546.513	0	-1e10	8	-1e10	8	-1E+10	1	-1E+10	1	-1E+10	1	-1E+10	1	-1E+10	1	-1E+10	1
4902554	65	C	11/23/2022	10:04	-133.618	48.307	0	1575.70	0	2.2850	0	34.5200	0	27.573	0	1556.552	0	-1e10	8	-1e10	8	-1E+10	1	-1E+10	1	-1E+10	1	-1E+10	1	-1E+10	1	-1E+10	1
4902554	65	C	11/23/2022	10:04	-133.618	48.307	0	1585.30	0	2.2750	0	34.5220	0	27.575	0	1566.000	0	-1e10	8	-1e10	8	-1E+10	1	-1E+10	1	-1E+10	1	-1E+10	1	-1E+10	1	-1E+10	1
4902554	65	C	11/23/2022	10:04	-133.618	48.307	0	1595.30	0	2.2680	0	34.5230	0	27.577	0	1575.841	0	-1e10	8	-1e10	8	-1E+10	1	-1E+10	1	-1E+10	1	-1E+10	1	-1E+10	1	-1E+10	1
4902554	65	C	11/23/2022	10:04	-133.618	48.307	0	1605.60	0	2.2560	0	34.5260	0	27.580	0	1585.977	0	-1e10	8	-1e10	8	-1E+10	1	-1E+10	1	-1E+10	1	-1E+10	1	-1E+10	1	-1E+10	1
4902554	65	C	11/23/2022	10:04	-133.618	48.307	0	1615.50	0	2.2420	0	34.5290	0	27.584	0	1595.719	0	-1e10	8	-1e10	8	-1E+10	1	-1E+10	1	-1E+10	1	-1E+10	1	-1E+10	1	-1E+10	1
4902554	65	C	11/23/2022	10:04	-133.618	48.307	0	1625.60	0	2.2310	0	34.5310	0	27.586	0	1605.657	0	-1e10	8	-1e10	8	-1E+10	1	-1E+10	1	-1E+10	1	-1E+10	1	-1E+10	1	-1E+10	1
4902554	65	C	11/23/2022	10:04	-133.618	48.307	0	1635.60	0	2.2230	0	34.5320	0	27.588	0	1615.496	0	-1e10	8	-1e10	8	-1E+10	1	-1E+10	1	-1E+10	1	-1E+10	1	-1E+10	1	-1E+10	1
4902554	65	C	11/23/2022	10:04	-133.618	48.307	0	1645.40	0	2.2110	0	34.5340	0	27.590	0	1625.138	0	-1e10	8	-1e10	8	-1E+10	1	-1E+10	1	-1E+10	1	-1E+10	1	-1E+10	1	-1E+10	1
4902554	65	C	11/23/2022	10:04	-133.618	48.307	0	1655.30	0	2.1980	0	34.5370	0	27.594	0	1634.878	0	-1e10	8	-1e10	8	-1E+10	1	-1E+10	1	-1E+10	1	-1E+10	1	-1E+10	1	-1E+10	1
4902554	65	C	11/23/2022	10:04	-133.618	48.307	0	1665.30	0	2.1820	0	34.5400	0	27.598	0	1644.716	0	-1e10	8	-1e10	8	-1E+10	1	-1E+10	1	-1E+10	1	-1E+10	1	-1E+10	1	-1E+10	1
4902554	65	C	11/23/2022	10:04	-133.618	48.307	0	1675.30	0	2.1670	0	34.5420	0	27.600	0	1654.553	0	-1e10	8	-1e10	8	-1E+10	1	-1E+10	1	-1E+10	1	-1E+10	1	-1E+10	1	-1E+10	1
4902554	65	C	11/23/2022	10:04	-133.618	48.307	0	1685.30	0	2.1600	0	34.5440	0	27.603	0	1664.390	0	-1e10	8	-1e10	8	-1E+10	1	-1E+10	1	-1E+10	1	-1E+10	1	-1E+10	1	-1E+10	1
4902554	65	C	11/23/2022	10:04	-133.618	48.307	0	1695.50	0	2.1510	0	34.5460	0	27.605	0	1674.423	0	-1e10	8	-1e10	8	-1E+10	1	-1E+10	1	-1E+10	1	-1E+10	1	-1E+10	1	-1E+10	1
4902554	65	C	11/23/2022	10:04	-133.618	48.307	0	1705.40	0	2.1420	0	34.5470	0	27.607	0	1684.161	0	-1e10	8	-1e10	8	-1E+10	1	-1E+10	1	-1E+10	1	-1E+10	1	-1E+10	1	-1E+10	1
4902554	65	C	11/23/2022	10:04	-133.618	48.307	0	1715.30	0	2.1370	0	34.5480	0	27.608	0	1693.898	0	-1e10	8	-1e10	8	-1E+10	1	-1E+10	1	-1E+10	1	-1E+10	1	-1E+10	1	-1E+10	1
4902554	65	C	11/23/2022	10:04	-133.618	48.307	0	1725.30	0	2.1310	0	34.5490	0	27.609	0	1703.733	0	-1e10	8	-1e10	8	-1E+10	1	-1E+10	1	-1E+10	1	-1E+10	1	-1E+10	1	-1E+10	1
4902554	65	C	11/23/2022	10:04	-133.618	48.307	0	1735.20	0	2.1240	0	34.5510	0	27.611	0	1713.469	0	-1e10	8	-1e10	8	-1E+10	1	-1E+10	1	-1E+10	1	-1E+10	1	-1E+10	1	-1E+10	1
4902554	65	C	11/23/2022	10:04	-133.618	48.307	0	1745.20	0	2.1180	0	34.5520	0	27.613	0	1723.303	0	-1e10	8	-1e10	8	-1E+10	1	-1E+10	1	-1E+10	1	-1E+10	1	-1E+10	1	-1E+10	1
4902554	65	C	11/23/2022	10:04	-133.618	48.307	0	1755.10	0	2.1020	0	34.5550	0	27.616	0	1733.039	0	-1e10	8	-1e10	8	-1E+10	1	-1E+10	1	-1E+10	1	-1E+10	1	-1E+10	1	-1E+10	1
4902554	65	C	11/23/2022	10:04	-133.618	48.307	0	1765.30	0	2.0910	0	34.5570	0	27.619	0	1743.069	0	-1e10	8	-1e10	8	-1E+10	1	-1E+10	1	-1E+10	1	-1E+10	1	-1E+10	1	-1E+10	1
4902554	65	C	11/23/2022	10:04	-133.618	48.307	0	1775.50	0	2.0810	0	34.5590	0	27.621	0	1753.098	0	-1e10	8	-1e10	8	-1E+10	1	-1E+10	1	-1E+10	1	-1E+10	1	-1E+10	1	-1E+10	1
4902554	65	C	11/23/2022	10:04	-133.618	48.307	0	1785.30	0	2.0760	0	34.5600	0	27.623	0	1762.734	0	-1e10	8	-1e10	8	-1E+10	1	-1E+10	1	-1E+10	1	-1E+10	1	-1E+10	1	-1E+10	1
4902554	65	C	11/23/2022	10:04	-133.618	48.307	0	1795.40	0	2.0680	0	34.5620	0	27.625	0	1772.664	0	-1e10	8	-1e10	8	-1E+10	1	-1E+10	1	-1E+10	1	-1E+10	1	-1E+10	1	-1E+10	1
4902554	65	C	11/23/2022	10:04	-133.618	48.307	0	1805.60	0	2.0600	0	34.5630	0	27.626	0	1782.692	0	-1e10	8	-1e10	8	-1E+10	1	-1E+10	1	-1E+10	1	-1E+10	1	-1E+10	1	-1E+10	1
4902554	65	C	11/23/2022	10:04	-133.618	48.307	0	1815.50	0	2.0530	0	34.5650	0	27.629	0	1792.425	0	-1e10	8	-1e10	8	-1E+10	1	-1E+10	1	-1E+10	1	-1E+10	1	-1E+10	1	-1E+10	1
4902554	65	C	11/23/2022	10:04	-133.618	48.307	0	1825.30	0	2.0510	0	34.5650	0	27.629	0	1802.059	0	-1e10	8	-1e10	8	-1E+10	1	-1E+10	1	-1E+10	1	-1E+10	1	-1E+10	1	-1E+10	1
4902554	65	C	11/23/2022	10:04	-133.618	48.307	0	1835.30	0	2.0470	0	34.5660	0	27.630	0	1811.889	0	-1e10	8	-1e10	8	-1E+10	1	-1E+10	1	-1E+10	1	-1E+10	1	-1E+10	1	-1E+10	1
4902554	65	C	11/23/2022	10:04	-133.618	48.307	0	1845.40	0	2.0360	0	34.5680	0	27.633	0	1821.817	0	-1e10	8	-1e10	8	-1E+10	1	-1E+10	1	-1E+10	1	-1E+10	1	-1E+10	1	-1E+10	1
4902554	65	C	11/23/2022	10:04	-133.618	48.307	0	1855.70	0	2.0300	0	34.5690	0	27.634	0	1831.941	0	-1e10	8	-1e10	8	-1E+10	1	-1E+10	1	-1E+10	1	-1E+10	1	-1E+10	1	-1E+10	1
4902554	65	C	11/23/2022	10:04	-133.618	48.307	0	1865.70	0	2.0250	0	34.5700	0	27.635	0	1841.770	0	-1e10	8	-1e10	8	-1E+10	1	-1E+10	1	-1E+10	1	-1E+10	1	-1E+10	1	-1E+10	1
4902554	65	C	11/23/2022	10:04	-133.618	48.307	0	1875.70	0	2.0130	0	34.5730	0	27.638	0	1851.598	0	-1e10	8	-1e10	8	-1E+10	1	-1E+10	1	-1E+10	1	-1E+10	1	-1E+10	1	-1E+10	1
4902554	65	C	11/23/2022	10:04	-133.618	48.307	0	1885.30	0	2.0040	0	34.5750	0	27.641	0	1861.033	0	-1e10	8	-1e10	8	-1E+10	1	-1E+10	1	-1E+10	1	-1E+10	1	-1E+10	1	-1E+10	1
4902554	65	C	11/23/2022	10:04	-133.618	48.307	0	1895.30	0	1.9980	0	34.5760	0	27.642	0	1870.860	0	-1e10	8	-1e10	8	-1E+10	1	-1E+10	1	-1E+10	1	-1E+10	1	-1E+10	1	-1E+10	1
4902554	65	C	11/23/2022	10:04	-133.618	48.307	0	1905.40	0	1.9910	0	34.5770	0	27.644	0	1880.785	0	-1e10	8	-1e10	8	-1E+10	1	-1E+10	1	-1E+10	1	-1E+10	1	-1E+10	1	-1E+10	1
4902554	65	C	11/23/2022	10:04	-133.618	48.307	0	1915.60	0	1.9860	0	34.5790	0	27.646	0	1890.808	0	-1e10	8	-1e10	8	-1E+10	1	-1E+10	1	-1E+10	1	-1E+10	1	-1E+10	1	-1E+10	1
4902554	65	C	11/23/2022	10:04	-133.618	48.307	0	1925.60	0	1.9790	0	34.5800	0	27.647	0	1900.634	0	-1e10	8	-1e10	8	-1E+10	1	-1E+10	1	-1E+10	1	-1E+10	1	-1E+10	1	-1E+10	1
4902554	65	C	11/23/2022	10:04	-133.618	48.307	0	1935.40	0	1.9760	0	34.5810	0	27.648	0	1910.263	0	-1e10	8	-1e10	8	-1E+10	1	-1E+10	1	-1E+10	1	-1E+10	1	-1E+10	1	-1E+10	1
4902554	65	C	11/23/2022	10:04	-133.618	48.307	0	1945.20	0	1.9710	0	34.5820	0	27.649	0	1919.891	0	-1e10	8	-1e10	8	-1E+10	1	-1E+10	1	-1E+10	1	-1E+10	1	-1E+10	1	-1E+10	1
4902554	65	C	11/23/2022	10:04	-133.618	48.307	0	1955.20	0	1.9670	0	34.5830	0	27.650	0	1929.716	0	-1e10	8	-1e10	8	-1E+10	1	-1E+10	1	-1E+10	1	-1E+10	1	-1E+10	1	-1E+10	1
4902554	65	C	11/23/2022	10:04	-133.618	48.307	0	1965.30	0	1.9630	0	34.5830	0	27.651	0	1939.638	0	-1e10	8	-1e10	8	-1E+10	1	-1E+10	1	-1E+10	1	-1E+10	1	-1E+10	1	-1E+10	1
4902554	65	C	11/23/2022	10:04	-133.618	48.307	0	1975.60	0	1.9600	0	34.5840	0	27.652	0	1949.757	0	-1e10	8	-1e10	8	-1E+10	1	-1E+10	1	-1E+10	1	-1E+10	1	-1E+10	1	-1E+10	1
4902554	65	C	11/23/2022	10:04	-133.618	48.307	0	1985.60	0	1.9550	0	34.5850	0	27.653	0	1959.580	0	-1e10	8	-1e10	8	-1E+10	1	-1E+10	1	-1E+10	1	-1E+10	1	-1E+10	1	-1E+10	1
4902554	65	C	11/23/2022	10:04	-133.618	48.307	0	1995.70	0	1.9480	0	34.5860	0	27.655	0	1969.501	0	-1e10	8	-1e10	8	-1E+10	1	-1E+10	1	-1E+10	1	-1E+10	1	-1E+10	1	-1E+10	1
4902554	65	C	11/23/2022	10:04	-133.618	48.307	0	2005.40	0	1.9440	0	34.5870	0	27.656	0	1979.029	0	-1e10	8	-1e10	8	-1E+10	1	-1E+10	1	-1E+10	1	-1E+10	1	-1E+10	1	-1E+10	1
4902554	65	C	11/23/2022	10:04	-133.618	48.307	0	2015.30	0	1.9380	0	34.5880	0	27.657	0	1988.752	0	-1e10	8	-1e10	8	-1E+10	1	-1E+10	1	-1E+10	1	-1E+10	1	-1E+10	1	-1E+10	1
4902554	65	C	11/23/2022	10:04	-133.618	48.307	0	2025.20	0	1.9310	0	34.5900	0	27.659	0	1998.476	0	-1e10	8	-1e10	8	-1E+10	1	-1E+10	1	-1E+10	1	-1E+10	1	-1E+10	1	-1E+10	1
4902554	65	C	11/23/2022	10:04	-133.618	48.307	0																										
4902554	66	C	12/03/2022	15:01	-133.402	48.263	0	0.20	0	10.3870	0	32.3030	0	24.782	0	0.198	0	-1e10	1	-1e10	1	-1E+10	1	-1E+10	1	-1E+10	1	-1E+10	1	-1E+10	1	-1E+10	1
4902554	66	C	12/03/2022	15:01	-133.402	48.263	0	0.30	0	10.3871	0	32.3036	0	24.783	0	0.297	0	-1e10	8	-1e10	8	-1E+10	1	-1E+10	1	-1E+10	1	-1E+10	1	-1E+10	1	-1E+10	1
4902554	66	C	12/03/2022	15:01	-133.402	48.263	0	0.90	0	10.3880	0	32.3070	0	24.785	0	0.892	0	-1e10	8	-1e10	8	-1E+10	1	-1E+10	1	-1E+10	1	-1E+10	1	-1E+10	1	-1E+10	1
4902554	66	C	12/03/2022	15:01	-133.402	48.263	0	1.90	0	10.3920	0	32.3040	0	24.782	0	1.884	0	-1e10	8	-1e10	8	-1E+10	1	-1E+10	1	-1E+10	1	-1E+10	1	-1E+10	1	-1E+10	1
4902554	66	C	12/03/2022	15:01	-133.402	48.263	0	3.00	0	10.3920	0	32.3060	0	24.784	0	2.975	0	-1e10	8	-1e10	8	-1E+10	1	-1E+10	1	-1E+10	1	-1E+10	1	-1E+10	1	-1E+10	1
4902554	66	C	12/03/2022	15:01	-133.402	48.263	0	3.90	0	10.3930	0	32.3080	0	24.785	0	3.867	0	-1e10	8	-1e10	8	-1E+10	1	-1E+10	1	-1E+10	1	-1E+10	1	-1E+10	1	-1E+10	1
4902554	66	C	12/03/2022	15:01	-133.402	48.263	0	4.90	0	10.3940	0	32.3080	0	24.785	0	4.859	0	-1e10	8	-1e10	8	-1E+10	1	-1E+10	1	-1E+10	1	-1E+10	1	-1E+10	1	-1E+10	1
4902554	66	C	12/03/2022	15:01	-133.402	48.263	0	6.10	0	10.3950	0	32.3080	0	24.785	0	6.049	0	-1e10	8	-1e10	8	-1E+10	1	-1E+10	1	-1E+10	1	-1E+10	1	-1E+10	1	-1E+10	1
4902554	66	C	12/03/2022	15:01	-133.402	48.263	0	7.00	0	10.3970	0	32.3070	0	24.784	0	6.941	0	-1e10	8	-1e10	8	-1E+10	1	-1E+10	1	-1E+10	1	-1E+10	1	-1E+10	1	-1E+10	1
4902554	66	C	12/03/2022	15:01	-133.402	48.263	0	8.00	0	10.3990	0	32.3080	0	24.784	0	7.933	0	-1e10	8	-1e10	8	-1E+10	1	-1E+10	1	-1E+10	1	-1E+10	1	-1E+10	1	-1E+10	1
4902554	66	C	12/03/2022	15:01	-133.402	48.263	0	8.70	0	10.3980	0	32.3080	0	24.784	0	8.627	0	-1e10	8	-1e10	8	-1E+10	1	-1E+10	1	-1E+10	1	-1E+10	1	-1E+10	1	-1E+10	1
4902554	66	C	12/03/2022	15:01	-133.402	48.263	0	9.90	0	10.3980	0	32.3070	0	24.784	0	9.816	0	-1e10	8	-1e10	8	-1E+10	1	-1E+10	1	-1E+10	1	-1E+10	1	-1E+10	1	-1E+10	1
4902554	66	C	12/03/2022	15:01	-133.402	48.263	0	11.50	0	10.3920	0	32.3070	0	24.785	0	11.403	0	-1e10	8	-1e10	8	-1E+10	1	-1E+10	1	-1E+10	1	-1E+10	1	-1E+10	1	-1E+10	1
4902554	66	C	12/03/2022	15:01	-133.402	48.263	0	12.60	0	10.3930	0	32.3080	0	24.785	0	12.494	0	-1e10	8	-1e10	8	-1E+10	1	-1E+10	1	-1E+10	1	-1E+10	1	-1E+10	1	-1E+10	1
4902554	66	C	12/03/2022	15:01	-133.402	48.263	0	13.60	0	10.3930	0	32.3070	0	24.785	0	13.485	0	-1e10	8	-1e10	8	-1E+10	1	-1E+10	1	-1E+10	1	-1E+10	1	-1E+10	1	-1E+10	1
4902554	66	C	12/03/2022	15:01	-133.402	48.263	0	14.70	0	10.3930	0	32.3080	0	24.785	0	14.576	0	-1e10	8	-1e10	8	-1E+10	1	-1E+10	1	-1E+10	1	-1E+10	1	-1E+10	1	-1E+10	1
4902554	66	C	12/03/2022	15:01	-133.402	48.263	0	15.60	0	10.3920	0	32.3080	0	24.786	0	15.468	0	-1e10	8	-1e10	8	-1E+10	1	-1E+10	1	-1E+10	1	-1E+10	1	-1E+10	1	-1E+10	1
4902554	66	C	12/03/2022	15:01	-133.402	48.263	0	17.00	0	10.3920	0	32.3080	0	24.786	0	16.856	0	-1e10	8	-1e10	8	-1E+10	1	-1E+10	1	-1E+10	1	-1E+10	1	-1E+10	1	-1E+10	1
4902554	66	C	12/03/2022	15:01	-133.402	48.263	0	18.30	0	10.3920	0	32.3080	0	24.786	0	18.145	0	-1e10	8	-1e10	8	-1E+10	1	-1E+10	1	-1E+10	1	-1E+10	1	-1E+10	1	-1E+10	1
4902554	66	C	12/03/2022	15:01	-133.402	48.263	0	19.20	0	10.3930	0	32.3070	0	24.785	0	19.038	0	-1e10	8	-1e10	8	-1E+10	1	-1E+10	1	-1E+10	1	-1E+10	1	-1E+10	1	-1E+10	1
4902554	66	C	12/03/2022	15:01	-133.402	48.263	0	20.00	0	10.3920	0	32.3070	0	24.785	0	19.831	0	-1e10	8	-1e10	8	-1E+10	1	-1E+10	1	-1E+10	1	-1E+10	1	-1E+10	1	-1E+10	1
4902554	66	C	12/03/2022	15:01	-133.402	48.263	0	20.90	0	10.3920	0	32.3080	0	24.786	0	20.723	0	-1e10	8	-1e10	8	-1E+10	1	-1E+10	1	-1E+10	1	-1E+10	1	-1E+10	1	-1E+10	1
4902554	66	C	12/03/2022	15:01	-133.402	48.263	0	21.70	0	10.3940	0	32.3080	0	24.785	0	21.516	0	-1e10	8	-1e10	8	-1E+10	1	-1E+10	1	-1E+10	1	-1E+10	1	-1E+10	1	-1E+10	1
4902554	66	C	12/03/2022	15:01	-133.402	48.263	0	22.90	0	10.3950	0	32.3080	0	24.785	0	22.706	0	-1e10	8	-1e10	8	-1E+10	1	-1E+10	1	-1E+10	1	-1E+10	1	-1E+10	1	-1E+10	1
4902554	66	C	12/03/2022	15:01	-133.402	48.263	0	24.00	0	10.3960	0	32.3070	0	24.784	0	23.797	0	-1e10	8	-1e10	8	-1E+10	1	-1E+10	1	-1E+10	1	-1E+10	1	-1E+10	1	-1E+10	1
4902554	66	C	12/03/2022	15:01	-133.402	48.263	0	25.10	0	10.3960	0	32.3080	0	24.785	0	24.887	0	-1e10	8	-1e10	8	-1E+10	1	-1E+10	1	-1E+10	1	-1E+10	1	-1E+10	1	-1E+10	1
4902554	66	C	12/03/2022	15:01	-133.402	48.263	0	26.20	0	10.3960	0	32.3080	0	24.785	0	25.978	0	-1e10	8	-1e10	8	-1E+10	1	-1E+10	1	-1E+10	1	-1E+10	1	-1E+10	1	-1E+10	1
4902554	66	C	12/03/2022	15:01	-133.402	48.263	0	26.90	0	10.3960	0	32.3080	0	24.785	0	26.672	0	-1e10	8	-1e10	8	-1E+10	1	-1E+10	1	-1E+10	1	-1E+10	1	-1E+10	1	-1E+10	1
4902554	66	C	12/03/2022	15:01	-133.402	48.263	0	27.90	0	10.3970	0	32.3090	0	24.786	0	27.663	0	-1e10	8	-1e10	8	-1E+10	1	-1E+10	1	-1E+10	1	-1E+10	1	-1E+10	1	-1E+10	1
4902554	66	C	12/03/2022	15:01	-133.402	48.263	0	29.10	0	10.3970	0	32.3080	0	24.785	0	28.853	0	-1e10	8	-1e10	8	-1E+10	1	-1E+10	1	-1E+10	1	-1E+10	1	-1E+10	1	-1E+10	1
4902554	66	C	12/03/2022	15:01	-133.402	48.263	0	29.80	0	10.3950	0	32.3080	0	24.785	0	29.547	0	-1e10	8	-1e10	8	-1E+10	1	-1E+10	1	-1E+10	1	-1E+10	1	-1E+10	1	-1E+10	1
4902554	66	C	12/03/2022	15:01	-133.402	48.263	0	31.00	0	10.3970	0	32.3070	0	24.784	0	30.737	0	-1e10	8	-1e10	8	-1E+10	1	-1E+10	1	-1E+10	1	-1E+10	1	-1E+10	1	-1E+10	1
4902554	66	C	12/03/2022	15:01	-133.402	48.263	0	32.20	0	10.3990	0	32.3080	0	24.785	0	31.927	0	-1e10	8	-1e10	8	-1E+10	1	-1E+10	1	-1E+10	1	-1E+10	1	-1E+10	1	-1E+10	1
4902554	66	C	12/03/2022	15:01	-133.402	48.263	0	33.00	0	10.3970	0	32.3080	0	24.785	0	32.720	0	-1e10	8	-1e10	8	-1E+10	1	-1E+10	1	-1E+10	1	-1E+10	1	-1E+10	1	-1E+10	1
4902554	66	C	12/03/2022	15:01	-133.402	48.263	0	33.80	0	10.3970	0	32.3080	0	24.785	0	33.513	0	-1e10	8	-1e10	8	-1E+10	1	-1E+10	1	-1E+10	1	-1E+10	1	-1E+10	1	-1E+10	1
4902554	66	C	12/03/2022	15:01	-133.402	48.263	0	34.70	0	10.4000	0	32.3080	0	24.785	0	34.405	0	-1e10	8	-1e10	8	-1E+10	1	-1E+10	1	-1E+10	1	-1E+10	1	-1E+10	1	-1E+10	1
4902554	66	C	12/03/2022	15:01	-133.402	48.263	0	35.90	0	10.3990	0	32.3080	0	24.785	0	35.595	0	-1e10	8	-1e10	8	-1E+10	1	-1E+10	1	-1E+10	1	-1E+10	1	-1E+10	1	-1E+10	1
4902554	66	C	12/03/2022	15:01	-133.402	48.263	0	37.20	0	10.3980	0	32.3080	0	24.785	0	36.884	0	-1e10	8	-1e10	8	-1E+10	1	-1E+10	1	-1E+10	1	-1E+10	1	-1E+10	1	-1E+10	1
4902554	66	C	12/03/2022	15:01	-133.402	48.263	0	38.00	0	10.3970	0	32.3080	0	24.785	0	37.677	0	-1e10	8	-1e10	8	-1E+10	1	-1E+10	1	-1E+10	1	-1E+10	1	-1E+10	1	-1E+10	1
4902554	66	C	12/03/2022	15:01	-133.402	48.263	0	38.70	0	10.3960	0	32.3080	0	24.785	0	38.371	0	-1e10	8	-1e10	8	-1E+10	1	-1E+10	1	-1E+10	1	-1E+10	1	-1E+10	1	-1E+10	1
4902554	66	C	12/03/2022	15:01	-133.402	48.263	0	39.80	0	10.3990	0	32.3080	0	24.785	0	39.461	0	-1e10	8	-1e10	8	-1E+10	1	-1E+10	1	-1E+10	1	-1E+10	1	-1E+10	1	-1E+10	1
4902554	66	C	12/03/2022	15:01	-133.402	48.263	0	41.00	0	10.3990	0	32.3080	0	24.785	0	40.651	0	-1e10	8	-1e10	8	-1E+10	1	-1E+10	1	-1E+10	1	-1E+10	1	-1E+10	1	-1E+10	1
4902554	66	C	12/03/2022	15:01	-133.402	48.263	0	42.00	0	10.3990	0	32.3090	0	24.786	0	41.642	0	-1e10	8	-1e10	8	-1E+10	1	-1E+10	1	-1E+10	1	-1E+10	1	-1E+10	1	-1E+10	1
4902554	66	C	12/03/2022	15:01	-133.402	48.263	0	43.10	0	10.3980	0	32.3080	0	24.785	0	42.733	0	-1e10	8	-1e10	8	-1E+10	1	-1E+10	1	-1E+10	1	-1E+10	1	-1E+10	1	-1E+10	1
4902554	66	C	12/03/2022	15:01	-133.402	48.263	0	43.90	0	10.4000	0	32.3080	0	24.785	0	43.526	0	-1e10	8	-1e10	8	-1E+10	1	-1E+10	1	-1E+10	1	-1E+10	1	-1E+10	1	-1E+10	1
4902554	66	C	12/03/2022	15:01	-133.402	48.263	0	45.00	0	10.4000	0	32.3080	0	24.785	0	44.616	0	-1e10	8	-1e10	8	-1E+10	1	-1E+10	1	-1E+10	1	-1E+10	1	-1E+10	1	-1E+10	1
4902554	66	C	12/03/2022	15:01	-133.402	48.263	0	46.10	0	10.4020	0	32.3080	0	24.785	0	45.707	0	-1e10	8	-1e10	8	-1E+10	1	-1E+10	1	-1E+10	1	-1E+10	1	-1E+10	1	-1E+10	1
4902554	66	C	12/03/2022	15:01	-133.402	48.263	0	46.80	0	10.3990	0	32.3090	0	24.786	0	46.401	0	-1e10	8	-1e10	8	-1E+10	1	-1E+10	1	-1E+10	1	-1E+10	1	-1E+10	1	-1E+10	1
4902554	66	C	12/03/2022	15:01	-133.402	48.263	0	48.00	0	10.3990	0	32.3080	0	24.785	0	47.591	0	-1e10	8	-1e10	8	-1E+10	1	-1E+10	1	-1E+10	1	-1E+10	1	-1E+10	1	-1E+10	1
4902554	66	C	12/03/2022	15:01	-133.402	48.263	0	49.10	0	10.3990	0	32.3090	0	24.786	0	48.681	0	-1e10	8	-1e10	8	-1E+10	1	-1E+10	1	-1E+10	1	-1E+10	1	-1E+10	1	-1E+10	1
4902554	66	C	12/03/2022	15:01	-133.402	48.263	0	50.00	0	10.3970	0	32.3100	0	24.787	0	49.573	0	-1e10	8	-1e10	8	-1E+10	1	-1E+10	1	-1E+10	1	-1E+10	1	-1E+10	1	-1E+10	1
4902554	66	C	12/03/2022	15:01	-133.402	48.263	0	51.00	0	10.4020	0	32.3060	0	24.783	0	50.565	0	-1e10	8	-1e10	8	-1E+10	1	-1E+10	1	-1E+10	1	-1E+10	1	-1E+10	1	-1E+10	1
4902554	66	C	12/03/2022	15:01	-133.402	48.263	0	51.90	0	10.3980	0	32.3090	0	24.786	0	51.457	0	-1e10	8	-1e10	8	-1E+10	1	-1E+10	1	-1E+10	1	-1E+10	1	-1E+10	1	-1E+10	1
4902554	66	C	12/03/2022	15:01	-133.402	48.263	0	53.00	0	10.3960	0	32.3100	0	24.787	0	52.547	0	-1e10	8	-1e10	8	-1E+10	1	-1E+10	1	-1E+10	1	-1E+10	1	-1E+10	1	-1E+10	1
4902554	66	C	12/03/2022	15:01	-133.402	48.263	0	54.00	0	10.3990	0	32.3070	0	24.784	0	53.539	0	-1e10	8	-1e10	8	-1E+10	1	-1E+10	1	-1E+10	1	-1E+10	1	-1E+10	1	-1E+10	1
4902554	66	C	12/03/2022	15:01	-133.402	48.263	0	55.00	0	10.3830	0	32.3040	0	24.785	0	54.530	0	-1e10	8	-1e10	8	-1E+10	1	-1E+10	1	-1E+10	1	-1E+10	1	-1E+10	1	-1E+10	1
4902554	66	C	12/03/2022	15:01	-133.402	48.263	0	56.20	0	10.3330	0	32.3180	0	24.804	0	55.719	0	-1e10	8	-1e10	8	-1E+10	1	-1E+10	1	-1E+10	1	-1E+10	1	-1E+10	1	-1E+10	1
4902554	66	C	12/03/2022	15:01	-133.402	48.263	0	57.00	0	10.3820	0	32.3120	0	24.791	0	56.513	0	-1e10	8	-1e10	8	-1E+10	1	-1E+10	1	-1E+10	1	-1E+10	1	-1E+10	1	-1E+10	1
4902554	66	C	12/03/2022	15:01	-133.402	48.263	0	57.80	0	10.3490	0	32.3130	0	24.798	0	57.306	0	-1e10	8	-1e10	8	-1E+10	1	-1E+10	1	-1E+10	1	-1E+10	1	-1E+10	1	-1E+10	1
4902554	66	C	12/03/2022	15:01	-133.402	48.263	0	58.90	0	10.3440	0	32.3080	0	24.795	0	58.396	0	-1e10	8	-1e10	8	-1E+10	1	-1E+10	1	-1E+10	1	-1E+10	1	-1E+10	1	-1E+10	1
4902554	66	C	12/03/2022	15:01	-133.402	48.263	0	60.00	0	10.3200	0	32.3120	0	24.802	0	59.486	0	-1e10	8	-1e10	8	-1E+10	1	-1E+10	1	-1E+10	1	-1E+10	1	-1E+10	1	-1E+10	1
4902554	66	C	12/03/2022	15:01	-133.402	48.263	0	60.90	0	10.2910	0	32.3180	0	24.811	0	60.379	0	-1e10	8	-1e10	8	-1E+10	1	-1E+10	1	-1E+10	1	-1E+10	1	-1E+10	1	-1E+10	1
4902554	66	C	12/03/2022	15:01	-133.402	48.263	0	61.90	0	10.3080	0	32.3090	0	24.801	0	61.370	0	-1e10	8	-1e10	8	-1E+10	1	-1E+10	1	-1E+10	1	-1E+10	1	-1E+10	1	-1E+10	1
4902554	66	C	12/03/2022	15:01	-133.402	48.263	0	62.90	0	10.2040	0	32.3170	0	24.825	0	62.361	0	-1e10	8	-1e10	8	-1E+10	1	-1E+10	1	-1E+10	1	-1E+10	1	-1E+10	1	-1E+10	1
4902554	66	C	12/03/2022	15:01	-133.402	48.263	0	64.00	0	10.0700	0	32.3160	0	24.847	0	63.452	0	-1e10	8	-1e10	8	-1E+10	1	-1E+10	1	-1E+10	1	-1E+10	1	-1E+10	1	-1E+10	1
4902554	66	C	12/03/2022	15:01	-133.402	48.263	0	65.10	0	9.7840	0	32.3310	0	24.906	0	64.542	0	-1e10	8	-1e10	8	-1E+10	1	-1E+10	1	-1E+10	1	-1E+10	1	-1E+10	1	-1E+10	1
4902554	66	C	12/03/2022	15:01	-133.402	48.263	0	66.00	0	9.6060	0	32.3500	0	24.949	0	65.434	0	-1e10	8	-1e10	8	-1E+10	1	-1E+10	1	-1E+10	1	-1E+10	1	-1E+10	1	-1E+10	1
4902554	66	C	12/03/2022	15:01	-133.402	48.263	0	67.00	0	8.9750	0	32.3720	0	25.066	0	66.425	0	-1e10	8	-1e10	8	-1E+10	1	-1E+10	1	-1E+10	1	-1E+10	1	-1E+10	1	-1E+10	1
4902554	66	C	12/03/2022	15:01	-133.402	48.263	0	68.00	0	8.5190	0	32.4060	0	25.162	0	67.417	0	-1e10	8	-1e10	8	-1E+10	1	-1E+10	1	-1E+10	1	-1E+10	1	-1E+10	1	-1E+10	1
4902554	66	C	12/03/2022	15:01	-133.402	48.263	0	69.10	0	7.7930	0	32.4680	0	25.317	0	68.507	0	-1e10	8	-1e10	8	-1E+10	1	-1E+10	1	-1E+10	1	-1E+10	1	-1E+10	1	-1E+10	1
4902554	66	C	12/03/2022	15:01	-133.402	48.263	0	69.90	0	7.6970	0	32.4720	0	25.333	0	69.300	0	-1e10	8	-1e10	8	-1E+10	1	-1E+10	1	-1E+10	1	-1E+10	1	-1E+10	1	-1E+10	1
4902554	66	C	12/03/2022	15:01	-133.402	48.263	0	71.10	0	7.6590	0	32.4750	0	25.341	0	70.490	0	-1e10	8	-1e10	8	-1E+10	1	-1E+10	1	-1E+10	1	-1E+10	1	-1E+10	1	-1E+10	1
4902554	66	C	12/03/2022	15:01	-133.402	48.263	0	72.30	0	7.5980	0	32.4800	0	25.354	0	71.679	0	-1e10	8	-1e10	8	-1E+10	1	-1E+10	1	-1E+10	1	-1E+10	1	-1E+10	1	-1E+10	1
4902554	66	C	12/03/2022	15:01	-133.402	48.263	0	73.10	0	7.5860	0	32.4810	0	25.356	0	72.472	0	-1e10	8	-1e10	8	-1E+10	1	-1E+10	1	-1E+10	1	-1E+10	1	-1E+10	1	-1E+10	1
4902554	66	C	12/03/2022	15:01	-133.402	48.263	0	73.80	0	7.5720	0	32.4820	0	25.359	0	73.166	0	-1e10	8	-1e10	8	-1E+10	1	-1E+10	1	-1E+10	1	-1E+10	1	-1E+10	1	-1E+10	1
4902554	66	C	12/03/2022	15:01	-133.402	48.263	0	74.80	0	7.5160	0	32.4820	0	25.367	0	74.157	0	-1e10	8	-1e10	8	-1E+10	1	-1E+10	1	-1E+10	1	-1E+10	1	-1E+10	1	-1E+10	1
4902554	66	C	12/03/2022	15:01	-133.402	48.263	0	75.90	0	7.4830	0	32.4800	0	25.370	0	75.247	0	-1e10	8	-1e10	8	-1E+10	1	-1E+10	1	-1E+10	1	-1E+10	1	-1E+10	1	-1E+10	1
4902554	66	C	12/03/2022	15:01	-133.402	48.263	0	77.10	0	7.4680	0	32.4810	0	25.373	0	76.437	0	-1e10	8	-1e10	8	-1E+10	1	-1E+10	1	-1E+10	1	-1E+10	1	-1E+10	1	-1E+10	1
4902554	66	C	12/03/2022	15:01	-133.402	48.263	0	77.90	0	7.4440	0	32.4820	0	25.377	0	77.230	0	-1e10	8	-1e10	8	-1E+10	1	-1E+10	1	-1E+10	1	-1E+10	1	-1E+10	1	-1E+10	1
4902554	66	C	12/03/2022	15:01	-133.402	48.263	0	78.90	0	7.3700	0	32.4830	0	25.388	0	78.221	0	-1e10	8	-1e10	8	-1E+10	1	-1E+10	1	-1E+10	1	-1E+10	1	-1E+10	1	-1E+10	1
4902554	66	C	12/03/2022	15:01	-133.402	48.263	0	80.10	0	7.3350	0	32.4840	0	25.393	0	79.411	0	-1e10	8	-1e10	8	-1E+10	1	-1E+10	1	-1E+10	1	-1E+10	1	-1E+10	1	-1E+10	1
4902554	66	C	12/03/2022	15:01	-133.402	48.263	0	81.00	0	7.3020	0	32.4850	0	25.399	0	80.303	0	-1e10	8	-1e10	8	-1E+10	1	-1E+10	1	-1E+10	1	-1E+10	1	-1E+10	1	-1E+10	1
4902554	66	C	12/03/2022	15:01	-133.402	48.263	0	82.00	0	7.2680	0	32.4840	0	25.402	0	81.294	0	-1e10	8	-1e10	8	-1E+10	1	-1E+10	1	-1E+10	1	-1E+10	1	-1E+10	1	-1E+10	1
4902554	66	C	12/03/2022	15:01	-133.402	48.263	0	83.00	0	7.1510	0	32.4930	0	25.425	0	82.285	0	-1e10	8	-1e10	8	-1E+10	1	-1E+10	1	-1E+10	1	-1E+10	1	-1E+10	1	-1E+10	1
4902554	66	C	12/03/2022	15:01	-133.402	48.263	0	84.10	0	7.0820	0	32.5000	0	25.440	0	83.375	0	-1e10	8	-1e10	8	-1E+10	1	-1E+10	1	-1E+10	1	-1E+10	1	-1E+10	1	-1E+10	1
4902554	66	C	12/03/2022	15:01	-133.402	48.263	0	84.90	0	7.0680	0	32.5020	0	25.444	0	84.168	0	-1e10	8	-1e10	8	-1E+10	1	-1E+10	1	-1E+10	1	-1E+10	1	-1E+10	1	-1E+10	1
4902554	66	C	12/03/2022	15:01	-133.402	48.263	0	85.80	0	7.0610	0	32.5020	0	25.445	0	85.060	0	-1e10	8	-1e10	8	-1E+10	1	-1E+10	1	-1E+10	1	-1E+10	1	-1E+10	1	-1E+10	1
4902554	66	C	12/03/2022	15:01	-133.402	48.263	0	86.90	0	7.0570	0	32.5030	0	25.446	0	86.151	0	-1e10	8	-1e10	8	-1E+10	1	-1E+10	1	-1E+10	1	-1E+10	1	-1E+10	1	-1E+10	1
4902554	66	C	12/03/2022	15:01	-133.402	48.263	0	88.10	0	7.0550	0	32.5030	0	25.446	0	87.340	0	-1e10	8	-1e10	8	-1E+10	1	-1E+10	1	-1E+10	1	-1E+10	1	-1E+10	1	-1E+10	1
4902554	66	C	12/03/2022	15:01	-133.402	48.263	0	89.00	0	7.0530	0	32.5030	0	25.446	0	88.232	0	-1e10	8	-1e10	8	-1E+10	1	-1E+10	1	-1E+10	1	-1E+10	1	-1E+10	1	-1E+10	1
4902554	66	C	12/03/2022	15:01	-133.402	48.263	0	89.70	0	7.0490	0	32.5040	0	25.448	0	88.926	0	-1e10	8	-1e10	8	-1E+10	1	-1E+10	1	-1E+10	1	-1E+10	1	-1E+10	1	-1E+10	1
4902554	66	C	12/03/2022	15:01	-133.402	48.263	0	90.80	0	7.0410	0	32.5060	0	25.450	0	90.016	0	-1e10	8	-1e10	8	-1E+10	1	-1E+10	1	-1E+10	1	-1E+10	1	-1E+10	1	-1E+10	1
4902554	66	C	12/03/2022	15:01	-133.402	48.263	0	91.90	0	7.0160	0	32.5110	0	25.458	0	91.106	0	-1e10	8	-1e10	8	-1E+10	1	-1E+10	1	-1E+10	1	-1E+10	1	-1E+10	1	-1E+10	1
4902554	66	C	12/03/2022	15:01	-133.402	48.263	0	93.00	0	6.9760	0	32.5240	0	25.473	0	92.197	0	-1e10	8	-1e10	8	-1E+10	1	-1E+10	1	-1E+10	1	-1E+10	1	-1E+10	1	-1E+10	1
4902554	66	C	12/03/2022	15:01	-133.402	48.263	0	94.10	0	6.9720	0	32.5260	0	25.475	0	93.287	0	-1e10	8	-1e10	8	-1E+10	1	-1E+10	1	-1E+10	1	-1E+10	1	-1E+10	1	-1E+10	1
4902554	66	C	12/03/2022	15:01	-133.402	48.263	0	94.90	0	6.9700	0	32.5260	0	25.476	0	94.080	0	-1e10	8	-1e10	8	-1E+10	1	-1E+10	1	-1E+10	1	-1E+10	1	-1E+10	1	-1E+10	1
4902554	66	C	12/03/2022	15:01	-133.402	48.263	0	95.70	0	6.9560	0	32.5290	0	25.480	0	94.873	0	-1e10	8	-1e10	8	-1E+10	1	-1E+10	1	-1E+10	1	-1E+10	1	-1E+10	1	-1E+10	1
4902554	66	C	12/03/2022	15:01	-133.402	48.263	0	96.80	0	6.9280	0	32.5400	0	25.492	0	95.963	0	-1e10	8	-1e10	8	-1E+10	1	-1E+10	1	-1E+10	1	-1E+10	1	-1E+10	1	-1E+10	1
4902554	66	C	12/03/2022	15:01	-133.402	48.263	0	98.00	0	6.9170	0	32.5440	0	25.497	0	97.152	0	-1e10	8	-1e10	8	-1E+10	1	-1E+10	1	-1E+10	1	-1E+10	1	-1E+10	1	-1E+10	1
4902554	66	C	12/03/2022	15:01	-133.402	48.263	0	99.10	0	6.8990	0	32.5540	0	25.507	0	98.242	0	-1e10	8	-1e10	8	-1E+10	1	-1E+10	1	-1E+10	1	-1E+10	1	-1E+10	1	-1E+10	1
4902554	66	C	12/03/2022	15:01	-133.402	48.263	0	100.00	0	6.8700	0	32.5700	0	25.524	0	99.134	0	-1e10	8	-1e10	8	-1E+10	1	-1E+10	1	-1E+10	1	-1E+10	1	-1E+10	1	-1E+10	1
4902554	66	C	12/03/2022	15:01	-133.402	48.263	0	100.90	0	6.8430	0	32.5950	0	25.547	0	100.026	0	-1e10	8	-1e10	8	-1E+10	1	-1E+10	1	-1E+10	1	-1E+10	1	-1E+10	1	-1E+10	1
4902554	66	C	12/03/2022	15:01	-133.402	48.263	0	102.10	0	6.8170	0	32.6130	0	25.564	0	101.216	0	-1e10	8	-1e10	8	-1E+10	1	-1E+10	1	-1E+10	1	-1E+10	1	-1E+10	1	-1E+10	1
4902554	66	C	12/03/2022	15:01	-133.402	48.263	0	102.90	0	6.8100	0	32.6180	0	25.569	0	102.009	0	-1e10	8	-1e10	8	-1E+10	1	-1E+10	1	-1E+10	1	-1E+10	1	-1E+10	1	-1E+10	1
4902554	66	C	12/03/2022	15:01	-133.402	48.263	0	103.70	0	6.8000	0	32.6230	0	25.575	0	102.801	0	-1e10	8	-1e10	8	-1E+10	1	-1E+10	1	-1E+10	1	-1E+10	1	-1E+10	1	-1E+10	1
4902554	66	C	12/03/2022	15:01	-133.402	48.263	0	105.00	0	6.7830	0	32.6340	0	25.586	0	104.090	0	-1e10	8	-1e10	8	-1E+10	1	-1E+10	1	-1E+10	1	-1E+10	1	-1E+10	1	-1E+10	1
4902554	66	C	12/03/2022	15:01	-133.402	48.263	0	105.90	0	6.7560	0	32.6620	0	25.611	0	104.982	0	-1e10	8	-1e10	8	-1E+10	1	-1E+10	1	-1E+10	1	-1E+10	1	-1E+10	1	-1E+10	1
4902554	66	C	12/03/2022	15:01	-133.402	48.263	0	107.10	0	6.7400	0	32.6870	0	25.633	0	106.171	0	-1e10	8	-1e10	8	-1E+10	1	-1E+10	1	-1E+10	1	-1E+10	1	-1E+10	1	-1E+10	1
4902554	66	C	12/03/2022	15:01	-133.402	48.263	0	107.90	0	6.7350	0	32.6970	0	25.641	0	106.964	0	-1e10	8	-1e10	8	-1E+10	1	-1E+10	1	-1E+10	1	-1E+10	1	-1E+10	1	-1E+10	1
4902554	66	C	12/03/2022	15:01	-133.402	48.263	0	108.80	0	6.7280	0	32.7160	0	25.657	0	107.856	0	-1e10	8	-1e10	8	-1E+10	1	-1E+10	1	-1E+10	1	-1E+10	1	-1E+10	1	-1E+10	1
4902554	66	C	12/03/2022	15:01	-133.402	48.263	0	109.80	0	6.7240	0	32.7270	0	25.667	0	108.847	0	-1e10	8	-1e10	8	-1E+10	1	-1E+10	1	-1E+10	1	-1E+10	1	-1E+10	1	-1E+10	1
4902554	66	C	12/03/2022	15:01	-133.402	48.263	0	110.90	0	6.7170	0	32.7450	0	25.682	0	109.937	0	-1e10	8	-1e10	8	-1E+10	1	-1E+10	1	-1E+10	1	-1E+10	1	-1E+10	1	-1E+10	1
4902554	66	C	12/03/2022	15:01	-133.402	48.263	0	111.90	0	6.7020	0	32.7710	0	25.704	0	110.928	0	-1e10	8	-1e10	8	-1E+10	1	-1E+10	1	-1E+10	1	-1E+10	1	-1E+10	1	-1E+10	1
4902554	66	C	12/03/2022	15:01	-133.402	48.263	0	113.00	0	6.6830	0	32.7960	0	25.726	0	112.018	0	-1e10	8	-1e10	8	-1E+10	1	-1E+10	1	-1E+10	1	-1E+10	1	-1E+10	1	-1E+10	1
4902554	66	C	12/03/2022	15:01	-133.402	48.263	0	113.90	0	6.6650	0	32.8330	0	25.758	0	112.910	0	-1e10	8	-1e10	8	-1E+10	1	-1E+10	1	-1E+10	1	-1E+10	1	-1E+10	1	-1E+10	1
4902554	66	C	12/03/2022	15:01	-133.402	48.263	0	115.20	0	6.6530	0	32.8690	0	25.788	0	114.199	0	-1e10	8	-1e10	8	-1E+10	1	-1E+10	1	-1E+10	1	-1E+10	1	-1E+10	1	-1E+10	1
4902554	66	C	12/03/2022	15:01	-133.402	48.263	0	115.80	0	6.6350	0	32.9020	0	25.816	0	114.793	0	-1e10	8	-1e10	8	-1E+10	1	-1E+10	1	-1E+10	1	-1E+10	1	-1E+10	1	-1E+10	1
4902554	66	C	12/03/2022	15:01	-133.402	48.263	0	116.80	0	6.6230	0	32.9160	0	25.829	0	115.784	0	-1e10	8	-1e10	8	-1E+10	1	-1E+10	1	-1E+10	1	-1E+10	1	-1E+10	1	-1E+10	1
4902554	66	C	12/03/2022	15:01	-133.402	48.263	0	118.10	0	6.5980	0	32.9510	0	25.860	0	117.073	0	-1e10	8	-1e10	8	-1E+10	1	-1E+10	1	-1E+10	1	-1E+10	1	-1E+10	1	-1E+10	1
4902554	66	C	12/03/2022	15:01	-133.402	48.263	0	119.10	0	6.5880	0	32.9650	0	25.872	0	118.064	0	-1e10	8	-1e10	8	-1E+10	1	-1E+10	1	-1E+10	1	-1E+10	1	-1E+10	1	-1E+10	1
4902554	66	C	12/03/2022	15:01	-133.402	48.263	0	120.00	0	6.5520	0	33.0310	0	25.929	0	118.956	0	-1e10	8	-1e10	8	-1E+10	1	-1E+10	1	-1E+10	1	-1E+10	1	-1E+10	1	-1E+10	1
4902554	66	C	12/03/2022	15:01	-133.402	48.263	0	120.90	0	6.5360	0	33.0610	0	25.954	0	119.847	0	-1e10	8	-1e10	8	-1E+10	1	-1E+10	1	-1E+10	1	-1E+10	1	-1E+10	1	-1E+10	1
4902554	66	C	12/03/2022	15:01	-133.402	48.263	0	122.10	0	6.5310	0	33.0670	0	25.960	0	121.037	0	-1e10	8	-1e10	8	-1E+10	1	-1E+10	1	-1E+10	1	-1E+10	1	-1E+10	1	-1E+10	1
4902554	66	C	12/03/2022	15:01	-133.402	48.263	0	123.00	0	6.5090	0	33.1040	0	25.992	0	121.929	0	-1e10	8	-1e10	8	-1E+10	1	-1E+10	1	-1E+10	1	-1E+10	1	-1E+10	1	-1E+10	1
4902554	66	C	12/03/2022	15:01	-133.402	48.263	0	124.00	0	6.5000	0	33.1170	0	26.003	0	122.920	0	-1e10	8	-1e10	8	-1E+10	1	-1E+10	1	-1E+10	1	-1E+10	1	-1E+10	1	-1E+10	1
4902554	66	C	12/03/2022	15:01	-133.402	48.263	0	125.00	0	6.4970	0	33.1250	0	26.010	0	123.911	0	-1e10	8	-1e10	8	-1E+10	1	-1E+10	1	-1E+10	1	-1E+10	1	-1E+10	1	-1E+10	1
4902554	66	C	12/03/2022	15:01	-133.402	48.263	0	125.90	0	6.4880	0	33.1440	0	26.026	0	124.802	0	-1e10	8	-1e10	8	-1E+10	1	-1E+10	1	-1E+10	1	-1E+10	1	-1E+10	1	-1E+10	1
4902554	66	C	12/03/2022	15:01	-133.402	48.263	0	127.00	0	6.4710	0	33.1760	0	26.054	0	125.893	0	-1e10	8	-1e10	8	-1E+10	1	-1E+10	1	-1E+10	1	-1E+10	1	-1E+10	1	-1E+10	1
4902554	66	C	12/03/2022	15:01	-133.402	48.263	0	127.70	0	6.4660	0	33.1830	0	26.060	0	126.586	0	-1e10	8	-1e10	8	-1E+10	1	-1E+10	1	-1E+10	1	-1E+10	1	-1E+10	1	-1E+10	1
4902554	66	C	12/03/2022	15:01	-133.402	48.263	0	128.80	0	6.4590	0	33.1940	0	26.069	0	127.676	0	-1e10	8	-1e10	8	-1E+10	1	-1E+10	1	-1E+10	1	-1E+10	1	-1E+10	1	-1E+10	1
4902554	66	C	12/03/2022	15:01	-133.402	48.263	0	129.90	0	6.4480	0	33.2130	0	26.086	0	128.766	0	-1e10	8	-1e10	8	-1E+10	1	-1E+10	1	-1E+10	1	-1E+10	1	-1E+10	1	-1E+10	1
4902554	66	C	12/03/2022	15:01	-133.402	48.263	0	131.00	0	6.4400	0	33.2290	0	26.099	0	129.856	0	-1e10	8	-1e10	8	-1E+10	1	-1E+10	1	-1E+10	1	-1E+10	1	-1E+10	1	-1E+10	1
4902554	66	C	12/03/2022	15:01	-133.402	48.263	0	132.30	0	6.4240	0	33.2560	0	26.123	0	131.145	0	-1e10	8	-1e10	8	-1E+10	1	-1E+10	1	-1E+10	1	-1E+10	1	-1E+10	1	-1E+10	1
4902554	66	C	12/03/2022	15:01	-133.402	48.263	0	133.10	0	6.4240	0	33.2570	0	26.124	0	131.937	0	-1e10	8	-1e10	8	-1E+10	1	-1E+10	1	-1E+10	1	-1E+10	1	-1E+10	1	-1E+10	1
4902554	66	C	12/03/2022	15:01	-133.402	48.263	0	133.90	0	6.4230	0	33.2600	0	26.126	0	132.730	0	-1e10	8	-1e10	8	-1E+10	1	-1E+10	1	-1E+10	1	-1E+10	1	-1E+10	1	-1E+10	1
4902554	66	C	12/03/2022	15:01	-133.402	48.263	0	134.80	0	6.4170	0	33.2680	0	26.133	0	133.622	0	-1e10	8	-1e10	8	-1E+10	1	-1E+10	1	-1E+10	1	-1E+10	1	-1E+10	1	-1E+10	1
4902554	66	C	12/03/2022	15:01	-133.402	48.263	0	135.70	0	6.4100	0	33.2840	0	26.147	0	134.514	0	-1e10	8	-1e10	8	-1E+10	1	-1E+10	1	-1E+10	1	-1E+10	1	-1E+10	1	-1E+10	1
4902554	66	C	12/03/2022	15:01	-133.402	48.263	0	137.00	0	6.4110	0	33.2840	0	26.147	0	135.802	0	-1e10	8	-1e10	8	-1E+10	1	-1E+10	1	-1E+10	1	-1E+10	1	-1E+10	1	-1E+10	1
4902554	66	C	12/03/2022	15:01	-133.402	48.263	0	138.20	0	6.4110	0	33.2840	0	26.147	0	136.991	0	-1e10	8	-1e10	8	-1E+10	1	-1E+10	1	-1E+10	1	-1E+10	1	-1E+10	1	-1E+10	1
4902554	66	C	12/03/2022	15:01	-133.402	48.263	0	139.10	0	6.4110	0	33.2850	0	26.147	0	137.883	0	-1e10	8	-1e10	8	-1E+10	1	-1E+10	1	-1E+10	1	-1E+10	1	-1E+10	1	-1E+10	1
4902554	66	C	12/03/2022	15:01	-133.402	48.263	0	139.90	0	6.4100	0	33.2870	0	26.149	0	138.676	0	-1e10	8	-1e10	8	-1E+10	1	-1E+10	1	-1E+10	1	-1E+10	1	-1E+10	1	-1E+10	1
4902554	66	C	12/03/2022	15:01	-133.402	48.263	0	140.80	0	6.3830	0	33.3250	0	26.183	0	139.567	0	-1e10	8	-1e10	8	-1E+10	1	-1E+10	1	-1E+10	1	-1E+10	1	-1E+10	1	-1E+10	1
4902554	66	C	12/03/2022	15:01	-133.402	48.263	0	141.70	0	6.3720	0	33.3340	0	26.191	0	140.459	0	-1e10	8	-1e10	8	-1E+10	1	-1E+10	1	-1E+10	1	-1E+10	1	-1E+10	1	-1E+10	1
4902554	66	C	12/03/2022	15:01	-133.402	48.263	0	142.60	0	6.3610	0	33.3410	0	26.198	0	141.351	0	-1e10	8	-1e10	8	-1E+10	1	-1E+10	1	-1E+10	1	-1E+10	1	-1E+10	1	-1E+10	1
4902554	66	C	12/03/2022	15:01	-133.402	48.263	0	143.90	0	6.3490	0	33.3470	0	26.204	0	142.639	0	-1e10	8	-1e10	8	-1E+10	1	-1E+10	1	-1E+10	1	-1E+10	1	-1E+10	1	-1E+10	1
4902554	66	C	12/03/2022	15:01	-133.402	48.263	0	145.30	0	6.2830	0	33.4110	0	26.263	0	144.027	0	-1e10	8	-1e10	8	-1E+10	1	-1E+10	1	-1E+10	1	-1E+10	1	-1E+10	1	-1E+10	1
4902554	66	C	12/03/2022	15:01	-133.402	48.263	0	146.30	0	6.2690	0	33.4200	0	26.272	0	145.017	0	-1e10	8	-1e10	8	-1E+10	1	-1E+10	1	-1E+10	1	-1E+10	1	-1E+10	1	-1E+10	1
4902554	66	C	12/03/2022	15:01	-133.402	48.263	0	147.10	0	6.2300	0	33.4400	0	26.293	0	145.810	0	-1e10	8	-1e10	8	-1E+10	1	-1E+10	1	-1E+10	1	-1E+10	1	-1E+10	1	-1E+10	1
4902554	66	C	12/03/2022	15:01	-133.402	48.263	0	148.10	0	6.2140	0	33.4620	0	26.312	0	146.801	0	-1e10	8	-1e10	8	-1E+10	1	-1E+10	1	-1E+10	1	-1E+10	1	-1E+10	1	-1E+10	1
4902554	66	C	12/03/2022	15:01	-133.402	48.263	0	149.00	0	6.1960	0	33.4900	0	26.337	0	147.693	0	-1e10	8	-1e10	8	-1E+10	1	-1E+10	1	-1E+10	1	-1E+10	1	-1E+10	1	-1E+10	1
4902554	66	C	12/03/2022	15:01	-133.402	48.263	0	149.90	0	6.1500	0	33.5230	0	26.369	0	148.585	0	-1e10	8	-1e10	8	-1E+10	1	-1E+10	1	-1E+10	1	-1E+10	1	-1E+10	1	-1E+10	1
4902554	66	C	12/03/2022	15:01	-133.402	48.263	0	151.00	0	6.1320	0	33.5350	0	26.380	0	149.675	0	-1e10	8	-1e10	8	-1E+10	1	-1E+10	1	-1E+10	1	-1E+10	1	-1E+10	1	-1E+10	1
4902554	66	C	12/03/2022	15:01	-133.402	48.263	0	152.30	0	6.1260	0	33.5390	0	26.384	0	150.963	0	-1e10	8	-1e10	8	-1E+10	1	-1E+10	1	-1E+10	1	-1E+10	1	-1E+10	1	-1E+10	1
4902554	66	C	12/03/2022	15:01	-133.402	48.263	0	153.10	0	6.1020	0	33.5590	0	26.403	0	151.755	0	-1e10	8	-1e10	8	-1E+10	1	-1E+10	1	-1E+10	1	-1E+10	1	-1E+10	1	-1E+10	1
4902554	66	C	12/03/2022	15:01	-133.402	48.263	0	153.90	0	6.0940	0	33.5650	0	26.409	0	152.548	0	-1e10	8	-1e10	8	-1E+10	1	-1E+10	1	-1E+10	1	-1E+10	1	-1E+10	1	-1E+10	1
4902554	66	C	12/03/2022	15:01	-133.402	48.263	0	154.80	0	6.0600	0	33.5920	0	26.434	0	153.440	0	-1e10	8	-1e10	8	-1E+10	1	-1E+10	1	-1E+10	1	-1E+10	1	-1E+10	1	-1E+10	1
4902554	66	C	12/03/2022	15:01	-133.402	48.263	0	155.70	0	6.0570	0	33.5930	0	26.436	0	154.332	0	-1e10	8	-1e10	8	-1E+10	1	-1E+10	1	-1E+10	1	-1E+10	1	-1E+10	1	-1E+10	1
4902554	66	C	12/03/2022	15:01	-133.402	48.263	0	156.90	0	6.0510	0	33.5950	0	26.438	0	155.520	0	-1e10	8	-1e10	8	-1E+10	1	-1E+10	1	-1E+10	1	-1E+10	1	-1E+10	1	-1E+10	1
4902554	66	C	12/03/2022	15:01	-133.402	48.263	0	158.20	0	6.0300	0	33.6020	0	26.446	0	156.809	0	-1e10	8	-1e10	8	-1E+10	1	-1E+10	1	-1E+10	1	-1E+10	1	-1E+10	1	-1E+10	1
4902554	66	C	12/03/2022	15:01	-133.402	48.263	0	159.10	0	6.0070	0	33.6100	0	26.455	0	157.700	0	-1e10	8	-1e10	8	-1E+10	1	-1E+10	1	-1E+10	1	-1E+10	1	-1E+10	1	-1E+10	1
4902554	66	C	12/03/2022	15:01	-133.402	48.263	0	159.90	0	5.9930	0	33.6150	0	26.461	0	158.493	0	-1e10	8	-1e10	8	-1E+10	1	-1E+10	1	-1E+10	1	-1E+10	1	-1E+10	1	-1E+10	1
4902554	66	C	12/03/2022	15:01	-133.402	48.263	0	160.80	0	5.9710	0	33.6250	0	26.472	0	159.385	0	-1e10	8	-1e10	8	-1E+10	1	-1E+10	1	-1E+10	1	-1E+10	1	-1E+10	1	-1E+10	1
4902554	66	C	12/03/2022	15:01	-133.402	48.263	0	161.60	0	5.9660	0	33.6280	0	26.475	0	160.177	0	-1e10	8	-1e10	8	-1E+10	1	-1E+10	1	-1E+10	1	-1E+10	1	-1E+10	1	-1E+10	1
4902554	66	C	12/03/2022	15:01	-133.402	48.263	0	162.90	0	5.9370	0	33.6370	0	26.485	0	161.465	0	-1e10	8	-1e10	8	-1E+10	1	-1E+10	1	-1E+10	1	-1E+10	1	-1E+10	1	-1E+10	1
4902554	66	C	12/03/2022	15:01	-133.402	48.263	0	164.20	0	5.8790	0	33.6530	0	26.505	0	162.753	0	-1e10	8	-1e10	8	-1E+10	1	-1E+10	1	-1E+10	1	-1E+10	1	-1E+10	1	-1E+10	1
4902554	66	C	12/03/2022	15:01	-133.402	48.263	0	165.10	0	5.8770	0	33.6550	0	26.507	0	163.645	0	-1e10	8	-1e10	8	-1E+10	1	-1E+10	1	-1E+10	1	-1E+10	1	-1E+10	1	-1E+10	1
4902554	66	C	12/03/2022	15:01	-133.402	48.263	0	166.00	0	5.8510	0	33.6620	0	26.516	0	164.537	0	-1e10	8	-1e10	8	-1E+10	1	-1E+10	1	-1E+10	1	-1E+10	1	-1E+10	1	-1E+10	1
4902554	66	C	12/03/2022	15:01	-133.402	48.263	0	166.90	0	5.8080	0	33.6750	0	26.531	0	165.429	0	-1e10	8	-1e10	8	-1E+10	1	-1E+10	1	-1E+10	1	-1E+10	1	-1E+10	1	-1E+10	1
4902554	66	C	12/03/2022	15:01	-133.402	48.263	0	167.80	0	5.7840	0	33.6780	0	26.537	0	166.320	0	-1e10	8	-1e10	8	-1E+10	1	-1E+10	1	-1E+10	1	-1E+10	1	-1E+10	1	-1E+10	1
4902554	66	C	12/03/2022	15:01	-133.402	48.263	0	168.80	0	5.7530	0	33.6800	0	26.542	0	167.311	0	-1e10	8	-1e10	8	-1E+10	1	-1E+10	1	-1E+10	1	-1E+10	1	-1E+10	1	-1E+10	1
4902554	66	C	12/03/2022	15:01	-133.402	48.263	0	169.70	0	5.7280	0	33.6780	0	26.543	0	168.203	0	-1e10	8	-1e10	8	-1E+10	1	-1E+10	1	-1E+10	1	-1E+10	1	-1E+10	1	-1E+10	1
4902554	66	C	12/03/2022	15:01	-133.402	48.263	0	170.60	0	5.7030	0	33.6780	0	26.546	0	169.094	0	-1e10	8	-1e10	8	-1E+10	1	-1E+10	1	-1E+10	1	-1E+10	1	-1E+10	1	-1E+10	1
4902554	66	C	12/03/2022	15:01	-133.402	48.263	0	171.60	0	5.6820	0	33.6810	0	26.551	0	170.085	0	-1e10	8	-1e10	8	-1E+10	1	-1E+10	1	-1E+10	1	-1E+10	1	-1E+10	1	-1E+10	1
4902554	66	C	12/03/2022	15:01	-133.402	48.263	0	172.50	0	5.6660	0	33.6800	0	26.553	0	170.977	0	-1e10	8	-1e10	8	-1E+10	1	-1E+10	1	-1E+10	1	-1E+10	1	-1E+10	1	-1E+10	1
4902554	66	C	12/03/2022	15:01	-133.402	48.263	0	173.90	0	5.6440	0	33.6860	0	26.560	0	172.364	0	-1e10	8	-1e10	8	-1E+10	1	-1E+10	1	-1E+10	1	-1E+10	1	-1E+10	1	-1E+10	1
4902554	66	C	12/03/2022	15:01	-133.402	48.263	0	175.40	0	5.6270	0	33.6940	0	26.568	0	173.850	0	-1e10	8	-1e10	8	-1E+10	1	-1E+10	1	-1E+10	1	-1E+10	1	-1E+10	1	-1E+10	1
4902554	66	C	12/03/2022	15:01	-133.402	48.263	0	176.30	0	5.6110	0	33.6960	0	26.572	0	174.742	0	-1e10	8	-1e10	8	-1E+10	1	-1E+10	1	-1E+10	1	-1E+10	1	-1E+10	1	-1E+10	1
4902554	66	C	12/03/2022	15:01	-133.402	48.263	0	177.30	0	5.5990	0	33.6990	0	26.576	0	175.732	0	-1e10	8	-1e10	8	-1E+10	1	-1E+10	1	-1E+10	1	-1E+10	1	-1E+10	1	-1E+10	1
4902554	66	C	12/03/2022	15:01	-133.402	48.263	0	178.20	0	5.5760	0	33.7020	0	26.581	0	176.624	0	-1e10	8	-1e10	8	-1E+10	1	-1E+10	1	-1E+10	1	-1E+10	1	-1E+10	1	-1E+10	1
4902554	66	C	12/03/2022	15:01	-133.402	48.263	0	179.20	0	5.5360	0	33.7010	0	26.585	0	177.615	0	-1e10	8	-1e10	8	-1E+10	1	-1E+10	1	-1E+10	1	-1E+10	1	-1E+10	1	-1E+10	1
4902554	66	C	12/03/2022	15:01	-133.402	48.263	0	180.20	0	5.5380	0	33.7000	0	26.584	0	178.606	0	-1e10	8	-1e10	8	-1E+10	1	-1E+10	1	-1E+10	1	-1E+10	1	-1E+10	1	-1E+10	1
4902554	66	C	12/03/2022	15:01	-133.402	48.263	0	181.10	0	5.5140	0	33.7050	0	26.591	0	179.497	0	-1e10	8	-1e10	8	-1E+10	1	-1E+10	1	-1E+10	1	-1E+10	1	-1E+10	1	-1E+10	1
4902554	66	C	12/03/2022	15:01	-133.402	48.263	0	182.10	0	5.5020	0	33.7050	0	26.592	0	180.488	0	-1e10	8	-1e10	8	-1E+10	1	-1E+10	1	-1E+10	1	-1E+10	1	-1E+10	1	-1E+10	1
4902554	66	C	12/03/2022	15:01	-133.402	48.263	0	183.10	0	5.4990	0	33.7060	0	26.593	0	181.479	0	-1e10	8	-1e10	8	-1E+10	1	-1E+10	1	-1E+10	1	-1E+10	1	-1E+10	1	-1E+10	1
4902554	66	C	12/03/2022	15:01	-133.402	48.263	0	184.00	0	5.4970	0	33.7050	0	26.593	0	182.370	0	-1e10	8	-1e10	8	-1E+10	1	-1E+10	1	-1E+10	1	-1E+10	1	-1E+10	1	-1E+10	1
4902554	66	C	12/03/2022	15:01	-133.402	48.263	0	185.00	0	5.4790	0	33.7110	0	26.600	0	183.361	0	-1e10	8	-1e10	8	-1E+10	1	-1E+10	1	-1E+10	1	-1E+10	1	-1E+10	1	-1E+10	1
4902554	66	C	12/03/2022	15:01	-133.402	48.263	0	185.90	0	5.4720	0	33.7120	0	26.601	0	184.253	0	-1e10	8	-1e10	8	-1E+10	1	-1E+10	1	-1E+10	1	-1E+10	1	-1E+10	1	-1E+10	1
4902554	66	C	12/03/2022	15:01	-133.402	48.263	0	186.90	0	5.4650	0	33.7120	0	26.602	0	185.243	0	-1e10	8	-1e10	8	-1E+10	1	-1E+10	1	-1E+10	1	-1E+10	1	-1E+10	1	-1E+10	1
4902554	66	C	12/03/2022	15:01	-133.402	48.263	0	187.90	0	5.4550	0	33.7120	0	26.603	0	186.234	0	-1e10	8	-1e10	8	-1E+10	1	-1E+10	1	-1E+10	1	-1E+10	1	-1E+10	1	-1E+10	1
4902554	66	C	12/03/2022	15:01	-133.402	48.263	0	188.80	0	5.4490	0	33.7120	0	26.604	0	187.126	0	-1e10	8	-1e10	8	-1E+10	1	-1E+10	1	-1E+10	1	-1E+10	1	-1E+10	1	-1E+10	1
4902554	66	C	12/03/2022	15:01	-133.402	48.263	0	189.80	0	5.4350	0	33.7120	0	26.606	0	188.116	0	-1e10	8	-1e10	8	-1E+10	1	-1E+10	1	-1E+10	1	-1E+10	1	-1E+10	1	-1E+10	1
4902554	66	C	12/03/2022	15:01	-133.402	48.263	0	190.70	0	5.4210	0	33.7120	0	26.607	0	189.008	0	-1e10	8	-1e10	8	-1E+10	1	-1E+10	1	-1E+10	1	-1E+10	1	-1E+10	1	-1E+10	1
4902554	66	C	12/03/2022	15:01	-133.402	48.263	0	191.70	0	5.3570	0	33.7190	0	26.620	0	189.999	0	-1e10	8	-1e10	8	-1E+10	1	-1E+10	1	-1E+10	1	-1E+10	1	-1E+10	1	-1E+10	1
4902554	66	C	12/03/2022	15:01	-133.402	48.263	0	192.70	0	5.3260	0	33.7230	0	26.627	0	190.989	0	-1e10	8	-1e10	8	-1E+10	1	-1E+10	1	-1E+10	1	-1E+10	1	-1E+10	1	-1E+10	1
4902554	66	C	12/03/2022	15:01	-133.402	48.263	0	193.60	0	5.3160	0	33.7220	0	26.628	0	191.881	0	-1e10	8	-1e10	8	-1E+10	1	-1E+10	1	-1E+10	1	-1E+10	1	-1E+10	1	-1E+10	1
4902554	66	C	12/03/2022	15:01	-133.402	48.263	0	194.60	0	5.3130	0	33.7220	0	26.628	0	192.871	0	-1e10	8	-1e10	8	-1E+10	1	-1E+10	1	-1E+10	1	-1E+10	1	-1E+10	1	-1E+10	1
4902554	66	C	12/03/2022	15:01	-133.402	48.263	0	195.60	0	5.3090	0	33.7230	0	26.629	0	193.862	0	-1e10	8	-1e10	8	-1E+10	1	-1E+10	1	-1E+10	1	-1E+10	1	-1E+10	1	-1E+10	1
4902554	66	C	12/03/2022	15:01	-133.402	48.263	0	196.60	0	5.3050	0	33.7230	0	26.630	0	194.853	0	-1e10	8	-1e10	8	-1E+10	1	-1E+10	1	-1E+10	1	-1E+10	1	-1E+10	1	-1E+10	1
4902554	66	C	12/03/2022	15:01	-133.402	48.263	0	197.60	0	5.3000	0	33.7230	0	26.630	0	195.843	0	-1e10	8	-1e10	8	-1E+10	1	-1E+10	1	-1E+10	1	-1E+10	1	-1E+10	1	-1E+10	1
4902554	66	C	12/03/2022	15:01	-133.402	48.263	0	198.50	0	5.2870	0	33.7260	0	26.634	0	196.735	0	-1e10	8	-1e10	8	-1E+10	1	-1E+10	1	-1E+10	1	-1E+10	1	-1E+10	1	-1E+10	1
4902554	66	C	12/03/2022	15:01	-133.402	48.263	0	199.90	0	5.2780	0	33.7250	0	26.634	0	198.122	0	-1e10	8	-1e10	8	-1E+10	1	-1E+10	1	-1E+10	1	-1E+10	1	-1E+10	1	-1E+10	1
4902554	66	C	12/03/2022	15:01	-133.402	48.263	0	201.30	0	5.2720	0	33.7250	0	26.635	0	199.509	0	-1e10	8	-1e10	8	-1E+10	1	-1E+10	1	-1E+10	1	-1E+10	1	-1E+10	1	-1E+10	1
4902554	66	C	12/03/2022	15:01	-133.402	48.263	0	202.20	0	5.2670	0	33.7240	0	26.635	0	200.400	0	-1e10	8	-1e10	8	-1E+10	1	-1E+10	1	-1E+10	1	-1E+10	1	-1E+10	1	-1E+10	1
4902554	66	C	12/03/2022	15:01	-133.402	48.263	0	202.90	0	5.2670	0	33.7240	0	26.635	0	201.094	0	-1e10	8	-1e10	8	-1E+10	1	-1E+10	1	-1E+10	1	-1E+10	1	-1E+10	1	-1E+10	1
4902554	66	C	12/03/2022	15:01	-133.402	48.263	0	203.90	0	5.2600	0	33.7230	0	26.635	0	202.084	0	-1e10	8	-1e10	8	-1E+10	1	-1E+10	1	-1E+10	1	-1E+10	1	-1E+10	1	-1E+10	1
4902554	66	C	12/03/2022	15:01	-133.402	48.263	0	205.00	0	5.1940	0	33.7300	0	26.648	0	203.174	0	-1e10	8	-1e10	8	-1E+10	1	-1E+10	1	-1E+10	1	-1E+10	1	-1E+10	1	-1E+10	1
4902554	66	C	12/03/2022	15:01	-133.402	48.263	0	205.80	0	5.1840	0	33.7310	0	26.650	0	203.966	0	-1e10	8	-1e10	8	-1E+10	1	-1E+10	1	-1E+10	1	-1E+10	1	-1E+10	1	-1E+10	1
4902554	66	C	12/03/2022	15:01	-133.402	48.263	0	206.90	0	5.1790	0	33.7310	0	26.651	0	205.056	0	-1e10	8	-1e10	8	-1E+10	1	-1E+10	1	-1E+10	1	-1E+10	1	-1E+10	1	-1E+10	1
4902554	66	C	12/03/2022	15:01	-133.402	48.263	0	208.00	0	5.1640	0	33.7300	0	26.652	0	206.146	0	-1e10	8	-1e10	8	-1E+10	1	-1E+10	1	-1E+10	1	-1E+10	1	-1E+10	1	-1E+10	1
4902554	66	C	12/03/2022	15:01	-133.402	48.263	0	208.80	0	5.1550	0	33.7300	0	26.653	0	206.938	0	-1e10	8	-1e10	8	-1E+10	1	-1E+10	1	-1E+10	1	-1E+10	1	-1E+10	1	-1E+10	1
4902554	66	C	12/03/2022	15:01	-133.402	48.263	0	210.00	0	5.1210	0	33.7330	0	26.659	0	208.127	0	-1e10	8	-1e10	8	-1E+10	1	-1E+10	1	-1E+10	1	-1E+10	1	-1E+10	1	-1E+10	1
4902554	66	C	12/03/2022	15:01	-133.402	48.263	0	211.10	0	5.0990	0	33.7310	0	26.660	0	209.217	0	-1e10	8	-1e10	8	-1E+10	1	-1E+10	1	-1E+10	1	-1E+10	1	-1E+10	1	-1E+10	1
4902554	66	C	12/03/2022	15:01	-133.402	48.263	0	211.90	0	5.0970	0	33.7310	0	26.660	0	210.009	0	-1e10	8	-1e10	8	-1E+10	1	-1E+10	1	-1E+10	1	-1E+10	1	-1E+10	1	-1E+10	1
4902554	66	C	12/03/2022	15:01	-133.402	48.263	0	213.00	0	5.0630	0	33.7320	0	26.665	0	211.099	0	-1e10	8	-1e10	8	-1E+10	1	-1E+10	1	-1E+10	1	-1E+10	1	-1E+10	1	-1E+10	1
4902554	66	C	12/03/2022	15:01	-133.402	48.263	0	214.20	0	4.9940	0	33.7340	0	26.674	0	212.287	0	-1e10	8	-1e10	8	-1E+10	1	-1E+10	1	-1E+10	1	-1E+10	1	-1E+10	1	-1E+10	1
4902554	66	C	12/03/2022	15:01	-133.402	48.263	0	215.00	0	4.9830	0	33.7340	0	26.675	0	213.080	0	-1e10	8	-1e10	8	-1E+10	1	-1E+10	1	-1E+10	1	-1E+10	1	-1E+10	1	-1E+10	1
4902554	66	C	12/03/2022	15:01	-133.402	48.263	0	215.80	0	4.9740	0	33.7340	0	26.677	0	213.872	0	-1e10	8	-1e10	8	-1E+10	1	-1E+10	1	-1E+10	1	-1E+10	1	-1E+10	1	-1E+10	1
4902554	66	C	12/03/2022	15:01	-133.402	48.263	0	216.90	0	4.9660	0	33.7340	0	26.677	0	214.962	0	-1e10	8	-1e10	8	-1E+10	1	-1E+10	1	-1E+10	1	-1E+10	1	-1E+10	1	-1E+10	1
4902554	66	C	12/03/2022	15:01	-133.402	48.263	0	218.10	0	4.9610	0	33.7350	0	26.679	0	216.150	0	-1e10	8	-1e10	8	-1E+10	1	-1E+10	1	-1E+10	1	-1E+10	1	-1E+10	1	-1E+10	1
4902554	66	C	12/03/2022	15:01	-133.402	48.263	0	218.90	0	4.9550	0	33.7360	0	26.680	0	216.943	0	-1e10	8	-1e10	8	-1E+10	1	-1E+10	1	-1E+10	1	-1E+10	1	-1E+10	1	-1E+10	1
4902554	66	C	12/03/2022	15:01	-133.402	48.263	0	219.80	0	4.9490	0	33.7360	0	26.681	0	217.834	0	-1e10	8	-1e10	8	-1E+10	1	-1E+10	1	-1E+10	1	-1E+10	1	-1E+10	1	-1E+10	1
4902554	66	C	12/03/2022	15:01	-133.402	48.263	0	221.00	0	4.9500	0	33.7350	0	26.680	0	219.023	0	-1e10	8	-1e10	8	-1E+10	1	-1E+10	1	-1E+10	1	-1E+10	1	-1E+10	1	-1E+10	1
4902554	66	C	12/03/2022	15:01	-133.402	48.263	0	222.20	0	4.9480	0	33.7360	0	26.681	0	220.212	0	-1e10	8	-1e10	8	-1E+10	1	-1E+10	1	-1E+10	1	-1E+10	1	-1E+10	1	-1E+10	1
4902554	66	C	12/03/2022	15:01	-133.402	48.263	0	223.00	0	4.9480	0	33.7360	0	26.681	0	221.004	0	-1e10	8	-1e10	8	-1E+10	1	-1E+10	1	-1E+10	1	-1E+10	1	-1E+10	1	-1E+10	1
4902554	66	C	12/03/2022	15:01	-133.402	48.263	0	223.80	0	4.9470	0	33.7350	0	26.680	0	221.796	0	-1e10	8	-1e10	8	-1E+10	1	-1E+10	1	-1E+10	1	-1E+10	1	-1E+10	1	-1E+10	1
4902554	66	C	12/03/2022	15:01	-133.402	48.263	0	224.60	0	4.9380	0	33.7360	0	26.682	0	222.589	0	-1e10	8	-1e10	8	-1E+10	1	-1E+10	1	-1E+10	1	-1E+10	1	-1E+10	1	-1E+10	1
4902554	66	C	12/03/2022	15:01	-133.402	48.263	0	225.90	0	4.9270	0	33.7360	0	26.683	0	223.876	0	-1e10	8	-1e10	8	-1E+10	1	-1E+10	1	-1E+10	1	-1E+10	1	-1E+10	1	-1E+10	1
4902554	66	C	12/03/2022	15:01	-133.402	48.263	0	227.10	0	4.9130	0	33.7370	0	26.686	0	225.065	0	-1e10	8	-1e10	8	-1E+10	1	-1E+10	1	-1E+10	1	-1E+10	1	-1E+10	1	-1E+10	1
4902554	66	C	12/03/2022	15:01	-133.402	48.263	0	227.90	0	4.9000	0	33.7380	0	26.688	0	225.857	0	-1e10	8	-1e10	8	-1E+10	1	-1E+10	1	-1E+10	1	-1E+10	1	-1E+10	1	-1E+10	1
4902554	66	C	12/03/2022	15:01	-133.402	48.263	0	228.80	0	4.8830	0	33.7390	0	26.691	0	226.749	0	-1e10	8	-1e10	8	-1E+10	1	-1E+10	1	-1E+10	1	-1E+10	1	-1E+10	1	-1E+10	1
4902554	66	C	12/03/2022	15:01	-133.402	48.263	0	229.60	0	4.8650	0	33.7410	0	26.694	0	227.541	0	-1e10	8	-1e10	8	-1E+10	1	-1E+10	1	-1E+10	1	-1E+10	1	-1E+10	1	-1E+10	1
4902554	66	C	12/03/2022	15:01	-133.402	48.263	0	230.90	0	4.8400	0	33.7420	0	26.698	0	228.829	0	-1e10	8	-1e10	8	-1E+10	1	-1E+10	1	-1E+10	1	-1E+10	1	-1E+10	1	-1E+10	1
4902554	66	C	12/03/2022	15:01	-133.402	48.263	0	232.10	0	4.8320	0	33.7430	0	26.700	0	230.018	0	-1e10	8	-1e10	8	-1E+10	1	-1E+10	1	-1E+10	1	-1E+10	1	-1E+10	1	-1E+10	1
4902554	66	C	12/03/2022	15:01	-133.402	48.263	0	233.00	0	4.8280	0	33.7430	0	26.700	0	230.909	0	-1e10	8	-1e10	8	-1E+10	1	-1E+10	1	-1E+10	1	-1E+10	1	-1E+10	1	-1E+10	1
4902554	66	C	12/03/2022	15:01	-133.402	48.263	0	233.80	0	4.8110	0	33.7460	0	26.704	0	231.701	0	-1e10	8	-1e10	8	-1E+10	1	-1E+10	1	-1E+10	1	-1E+10	1	-1E+10	1	-1E+10	1
4902554	66	C	12/03/2022	15:01	-133.402	48.263	0	234.70	0	4.7990	0	33.7470	0	26.707	0	232.593	0	-1e10	8	-1e10	8	-1E+10	1	-1E+10	1	-1E+10	1	-1E+10	1	-1E+10	1	-1E+10	1
4902554	66	C	12/03/2022	15:01	-133.402	48.263	0	236.00	0	4.7960	0	33.7470	0	26.707	0	233.880	0	-1e10	8	-1e10	8	-1E+10	1	-1E+10	1	-1E+10	1	-1E+10	1	-1E+10	1	-1E+10	1
4902554	66	C	12/03/2022	15:01	-133.402	48.263	0	237.30	0	4.7940	0	33.7480	0	26.708	0	235.168	0	-1e10	8	-1e10	8	-1E+10	1	-1E+10	1	-1E+10	1	-1E+10	1	-1E+10	1	-1E+10	1
4902554	66	C	12/03/2022	15:01	-133.402	48.263	0	238.20	0	4.7850	0	33.7510	0	26.711	0	236.059	0	-1e10	8	-1e10	8	-1E+10	1	-1E+10	1	-1E+10	1	-1E+10	1	-1E+10	1	-1E+10	1
4902554	66	C	12/03/2022	15:01	-133.402	48.263	0	239.10	0	4.7790	0	33.7520	0	26.713	0	236.951	0	-1e10	8	-1e10	8	-1E+10	1	-1E+10	1	-1E+10	1	-1E+10	1	-1E+10	1	-1E+10	1
4902554	66	C	12/03/2022	15:01	-133.402	48.263	0	240.00	0	4.7700	0	33.7520	0	26.714	0	237.842	0	-1e10	8	-1e10	8	-1E+10	1	-1E+10	1	-1E+10	1	-1E+10	1	-1E+10	1	-1E+10	1
4902554	66	C	12/03/2022	15:01	-133.402	48.263	0	240.90	0	4.7700	0	33.7520	0	26.714	0	238.733	0	-1e10	8	-1e10	8	-1E+10	1	-1E+10	1	-1E+10	1	-1E+10	1	-1E+10	1	-1E+10	1
4902554	66	C	12/03/2022	15:01	-133.402	48.263	0	241.80	0	4.7710	0	33.7520	0	26.714	0	239.625	0	-1e10	8	-1e10	8	-1E+10	1	-1E+10	1	-1E+10	1	-1E+10	1	-1E+10	1	-1E+10	1
4902554	66	C	12/03/2022	15:01	-133.402	48.263	0	242.70	0	4.7700	0	33.7520	0	26.714	0	240.516	0	-1e10	8	-1e10	8	-1E+10	1	-1E+10	1	-1E+10	1	-1E+10	1	-1E+10	1	-1E+10	1
4902554	66	C	12/03/2022	15:01	-133.402	48.263	0	243.60	0	4.7700	0	33.7520	0	26.714	0	241.408	0	-1e10	8	-1e10	8	-1E+10	1	-1E+10	1	-1E+10	1	-1E+10	1	-1E+10	1	-1E+10	1
4902554	66	C	12/03/2022	15:01	-133.402	48.263	0	244.90	0	4.7690	0	33.7520	0	26.714	0	242.695	0	-1e10	8	-1e10	8	-1E+10	1	-1E+10	1	-1E+10	1	-1E+10	1	-1E+10	1	-1E+10	1
4902554	66	C	12/03/2022	15:01	-133.402	48.263	0	246.30	0	4.7630	0	33.7540	0	26.716	0	244.082	0	-1e10	8	-1e10	8	-1E+10	1	-1E+10	1	-1E+10	1	-1E+10	1	-1E+10	1	-1E+10	1
4902554	66	C	12/03/2022	15:01	-133.402	48.263	0	247.20	0	4.7560	0	33.7560	0	26.719	0	244.973	0	-1e10	8	-1e10	8	-1E+10	1	-1E+10	1	-1E+10	1	-1E+10	1	-1E+10	1	-1E+10	1
4902554	66	C	12/03/2022	15:01	-133.402	48.263	0	248.20	0	4.7510	0	33.7560	0	26.719	0	245.963	0	-1e10	8	-1e10	8	-1E+10	1	-1E+10	1	-1E+10	1	-1E+10	1	-1E+10	1	-1E+10	1
4902554	66	C	12/03/2022	15:01	-133.402	48.263	0	249.10	0	4.7490	0	33.7560	0	26.719	0	246.855	0	-1e10	8	-1e10	8	-1E+10	1	-1E+10	1	-1E+10	1	-1E+10	1	-1E+10	1	-1E+10	1
4902554	66	C	12/03/2022	15:01	-133.402	48.263	0	250.10	0	4.7360	0	33.7590	0	26.723	0	247.845	0	-1e10	8	-1e10	8	-1E+10	1	-1E+10	1	-1E+10	1	-1E+10	1	-1E+10	1	-1E+10	1
4902554	66	C	12/03/2022	15:01	-133.402	48.263	0	251.00	0	4.7230	0	33.7610	0	26.726	0	248.737	0	-1e10	8	-1e10	8	-1E+10	1	-1E+10	1	-1E+10	1	-1E+10	1	-1E+10	1	-1E+10	1
4902554	66	C	12/03/2022	15:01	-133.402	48.263	0	252.00	0	4.7190	0	33.7630	0	26.728	0	249.727	0	-1e10	8	-1e10	8	-1E+10	1	-1E+10	1	-1E+10	1	-1E+10	1	-1E+10	1	-1E+10	1
4902554	66	C	12/03/2022	15:01	-133.402	48.263	0	252.90	0	4.7100	0	33.7650	0	26.731	0	250.618	0	-1e10	8	-1e10	8	-1E+10	1	-1E+10	1	-1E+10	1	-1E+10	1	-1E+10	1	-1E+10	1
4902554	66	C	12/03/2022	15:01	-133.402	48.263	0	253.90	0	4.6970	0	33.7690	0	26.735	0	251.609	0	-1e10	8	-1e10	8	-1E+10	1	-1E+10	1	-1E+10	1	-1E+10	1	-1E+10	1	-1E+10	1
4902554	66	C	12/03/2022	15:01	-133.402	48.263	0	254.90	0	4.6910	0	33.7680	0	26.735	0	252.599	0	-1e10	8	-1e10	8	-1E+10	1	-1E+10	1	-1E+10	1	-1E+10	1	-1E+10	1	-1E+10	1
4902554	66	C	12/03/2022	15:01	-133.402	48.263	0	255.80	0	4.6890	0	33.7690	0	26.736	0	253.490	0	-1e10	8	-1e10	8	-1E+10	1	-1E+10	1	-1E+10	1	-1E+10	1	-1E+10	1	-1E+10	1
4902554	66	C	12/03/2022	15:01	-133.402	48.263	0	256.80	0	4.6790	0	33.7720	0	26.740	0	254.481	0	-1e10	8	-1e10	8	-1E+10	1	-1E+10	1	-1E+10	1	-1E+10	1	-1E+10	1	-1E+10	1
4902554	66	C	12/03/2022	15:01	-133.402	48.263	0	257.80	0	4.6720	0	33.7750	0	26.743	0	255.471	0	-1e10	8	-1e10	8	-1E+10	1	-1E+10	1	-1E+10	1	-1E+10	1	-1E+10	1	-1E+10	1
4902554	66	C	12/03/2022	15:01	-133.402	48.263	0	258.70	0	4.6710	0	33.7750	0	26.743	0	256.362	0	-1e10	8	-1e10	8	-1E+10	1	-1E+10	1	-1E+10	1	-1E+10	1	-1E+10	1	-1E+10	1
4902554	66	C	12/03/2022	15:01	-133.402	48.263	0	259.70	0	4.6710	0	33.7750	0	26.743	0	257.353	0	-1e10	8	-1e10	8	-1E+10	1	-1E+10	1	-1E+10	1	-1E+10	1	-1E+10	1	-1E+10	1
4902554	66	C	12/03/2022	15:01	-133.402	48.263	0	260.70	0	4.6650	0	33.7760	0	26.744	0	258.343	0	-1e10	8	-1e10	8	-1E+10	1	-1E+10	1	-1E+10	1	-1E+10	1	-1E+10	1	-1E+10	1
4902554	66	C	12/03/2022	15:01	-133.402	48.263	0	261.70	0	4.6640	0	33.7760	0	26.745	0	259.333	0	-1e10	8	-1e10	8	-1E+10	1	-1E+10	1	-1E+10	1	-1E+10	1	-1E+10	1	-1E+10	1
4902554	66	C	12/03/2022	15:01	-133.402	48.263	0	262.60	0	4.6640	0	33.7760	0	26.745	0	260.225	0	-1e10	8	-1e10	8	-1E+10	1	-1E+10	1	-1E+10	1	-1E+10	1	-1E+10	1	-1E+10	1
4902554	66	C	12/03/2022	15:01	-133.402	48.263	0	263.70	0	4.6550	0	33.7780	0	26.747	0	261.314	0	-1e10	8	-1e10	8	-1E+10	1	-1E+10	1	-1E+10	1	-1E+10	1	-1E+10	1	-1E+10	1
4902554	66	C	12/03/2022	15:01	-133.402	48.263	0	264.60	0	4.6360	0	33.7800	0	26.751	0	262.205	0	-1e10	8	-1e10	8	-1E+10	1	-1E+10	1	-1E+10	1	-1E+10	1	-1E+10	1	-1E+10	1
4902554	66	C	12/03/2022	15:01	-133.402	48.263	0	265.60	0	4.6320	0	33.7820	0	26.753	0	263.196	0	-1e10	8	-1e10	8	-1E+10	1	-1E+10	1	-1E+10	1	-1E+10	1	-1E+10	1	-1E+10	1
4902554	66	C	12/03/2022	15:01	-133.402	48.263	0	266.60	0	4.6250	0	33.7840	0	26.755	0	264.186	0	-1e10	8	-1e10	8	-1E+10	1	-1E+10	1	-1E+10	1	-1E+10	1	-1E+10	1	-1E+10	1
4902554	66	C	12/03/2022	15:01	-133.402	48.263	0	267.60	0	4.6190	0	33.7900	0	26.761	0	265.176	0	-1e10	8	-1e10	8	-1E+10	1	-1E+10	1	-1E+10	1	-1E+10	1	-1E+10	1	-1E+10	1
4902554	66	C	12/03/2022	15:01	-133.402	48.263	0	268.60	0	4.6160	0	33.7900	0	26.761	0	266.167	0	-1e10	8	-1e10	8	-1E+10	1	-1E+10	1	-1E+10	1	-1E+10	1	-1E+10	1	-1E+10	1
4902554	66	C	12/03/2022	15:01	-133.402	48.263	0	269.60	0	4.6160	0	33.7900	0	26.761	0	267.157	0	-1e10	8	-1e10	8	-1E+10	1	-1E+10	1	-1E+10	1	-1E+10	1	-1E+10	1	-1E+10	1
4902554	66	C	12/03/2022	15:01	-133.402	48.263	0	270.60	0	4.6140	0	33.7910	0	26.762	0	268.147	0	-1e10	8	-1e10	8	-1E+10	1	-1E+10	1	-1E+10	1	-1E+10	1	-1E+10	1	-1E+10	1
4902554	66	C	12/03/2022	15:01	-133.402	48.263	0	271.60	0	4.6120	0	33.7920	0	26.763	0	269.137	0	-1e10	8	-1e10	8	-1E+10	1	-1E+10	1	-1E+10	1	-1E+10	1	-1E+10	1	-1E+10	1
4902554	66	C	12/03/2022	15:01	-133.402	48.263	0	272.70	0	4.6110	0	33.7920	0	26.763	0	270.227	0	-1e10	8	-1e10	8	-1E+10	1	-1E+10	1	-1E+10	1	-1E+10	1	-1E+10	1	-1E+10	1
4902554	66	C	12/03/2022	15:01	-133.402	48.263	0	273.70	0	4.6080	0	33.7940	0	26.765	0	271.217	0	-1e10	8	-1e10	8	-1E+10	1	-1E+10	1	-1E+10	1	-1E+10	1	-1E+10	1	-1E+10	1
4902554	66	C	12/03/2022	15:01	-133.402	48.263	0	274.70	0	4.6050	0	33.7940	0	26.765	0	272.207	0	-1e10	8	-1e10	8	-1E+10	1	-1E+10	1	-1E+10	1	-1E+10	1	-1E+10	1	-1E+10	1
4902554	66	C	12/03/2022	15:01	-133.402	48.263	0	275.70	0	4.6000	0	33.7950	0	26.767	0	273.198	0	-1e10	8	-1e10	8	-1E+10	1	-1E+10	1	-1E+10	1	-1E+10	1	-1E+10	1	-1E+10	1
4902554	66	C	12/03/2022	15:01	-133.402	48.263	0	276.70	0	4.5920	0	33.7960	0	26.768	0	274.188	0	-1e10	8	-1e10	8	-1E+10	1	-1E+10	1	-1E+10	1	-1E+10	1	-1E+10	1	-1E+10	1
4902554	66	C	12/03/2022	15:01	-133.402	48.263	0	277.70	0	4.5880	0	33.7970	0	26.770	0	275.178	0	-1e10	8	-1e10	8	-1E+10	1	-1E+10	1	-1E+10	1	-1E+10	1	-1E+10	1	-1E+10	1
4902554	66	C	12/03/2022	15:01	-133.402	48.263	0	278.70	0	4.5850	0	33.7990	0	26.772	0	276.168	0	-1e10	8	-1e10	8	-1E+10	1	-1E+10	1	-1E+10	1	-1E+10	1	-1E+10	1	-1E+10	1
4902554	66	C	12/03/2022	15:01	-133.402	48.263	0	279.80	0	4.5860	0	33.8000	0	26.772	0	277.258	0	-1e10	8	-1e10	8	-1E+10	1	-1E+10	1	-1E+10	1	-1E+10	1	-1E+10	1	-1E+10	1
4902554	66	C	12/03/2022	15:01	-133.402	48.263	0	280.80	0	4.5920	0	33.8040	0	26.775	0	278.248	0	-1e10	8	-1e10	8	-1E+10	1	-1E+10	1	-1E+10	1	-1E+10	1	-1E+10	1	-1E+10	1
4902554	66	C	12/03/2022	15:01	-133.402	48.263	0	281.80	0	4.5920	0	33.8070	0	26.777	0	279.238	0	-1e10	8	-1e10	8	-1E+10	1	-1E+10	1	-1E+10	1	-1E+10	1	-1E+10	1	-1E+10	1
4902554	66	C	12/03/2022	15:01	-133.402	48.263	0	282.80	0	4.5920	0	33.8070	0	26.777	0	280.228	0	-1e10	8	-1e10	8	-1E+10	1	-1E+10	1	-1E+10	1	-1E+10	1	-1E+10	1	-1E+10	1
4902554	66	C	12/03/2022	15:01	-133.402	48.263	0	283.80	0	4.5620	0	33.8090	0	26.782	0	281.219	0	-1e10	8	-1e10	8	-1E+10	1	-1E+10	1	-1E+10	1	-1E+10	1	-1E+10	1	-1E+10	1
4902554	66	C	12/03/2022	15:01	-133.402	48.263	0	284.80	0	4.5570	0	33.8110	0	26.784	0	282.209	0	-1e10	8	-1e10	8	-1E+10	1	-1E+10	1	-1E+10	1	-1E+10	1	-1E+10	1	-1E+10	1
4902554	66	C	12/03/2022	15:01	-133.402	48.263	0	285.80	0	4.5540	0	33.8100	0	26.784	0	283.199	0	-1e10	8	-1e10	8	-1E+10	1	-1E+10	1	-1E+10	1	-1E+10	1	-1E+10	1	-1E+10	1
4902554	66	C	12/03/2022	15:01	-133.402	48.263	0	286.80	0	4.5540	0	33.8090	0	26.783	0	284.189	0	-1e10	8	-1e10	8	-1E+10	1	-1E+10	1	-1E+10	1	-1E+10	1	-1E+10	1	-1E+10	1
4902554	66	C	12/03/2022	15:01	-133.402	48.263	0	287.90	0	4.5550	0	33.8120	0	26.785	0	285.278	0	-1e10	8	-1e10	8	-1E+10	1	-1E+10	1	-1E+10	1	-1E+10	1	-1E+10	1	-1E+10	1
4902554	66	C	12/03/2022	15:01	-133.402	48.263	0	288.90	0	4.5590	0	33.8140	0	26.786	0	286.269	0	-1e10	8	-1e10	8	-1E+10	1	-1E+10	1	-1E+10	1	-1E+10	1	-1E+10	1	-1E+10	1
4902554	66	C	12/03/2022	15:01	-133.402	48.263	0	289.90	0	4.5590	0	33.8160	0	26.788	0	287.259	0	-1e10	8	-1e10	8	-1E+10	1	-1E+10	1	-1E+10	1	-1E+10	1	-1E+10	1	-1E+10	1
4902554	66	C	12/03/2022	15:01	-133.402	48.263	0	290.90	0	4.5550	0	33.8150	0	26.788	0	288.249	0	-1e10	8	-1e10	8	-1E+10	1	-1E+10	1	-1E+10	1	-1E+10	1	-1E+10	1	-1E+10	1
4902554	66	C	12/03/2022	15:01	-133.402	48.263	0	292.00	0	4.5590	0	33.8160	0	26.788	0	289.338	0	-1e10	8	-1e10	8	-1E+10	1	-1E+10	1	-1E+10	1	-1E+10	1	-1E+10	1	-1E+10	1
4902554	66	C	12/03/2022	15:01	-133.402	48.263	0	293.00	0	4.5590	0	33.8170	0	26.789	0	290.328	0	-1e10	8	-1e10	8	-1E+10	1	-1E+10	1	-1E+10	1	-1E+10	1	-1E+10	1	-1E+10	1
4902554	66	C	12/03/2022	15:01	-133.402	48.263	0	294.00	0	4.5310	0	33.8200	0	26.794	0	291.319	0	-1e10	8	-1e10	8	-1E+10	1	-1E+10	1	-1E+10	1	-1E+10	1	-1E+10	1	-1E+10	1
4902554	66	C	12/03/2022	15:01	-133.402	48.263	0	295.00	0	4.5310	0	33.8210	0	26.795	0	292.309	0	-1e10	8	-1e10	8	-1E+10	1	-1E+10	1	-1E+10	1	-1E+10	1	-1E+10	1	-1E+10	1
4902554	66	C	12/03/2022	15:01	-133.402	48.263	0	296.10	0	4.5380	0	33.8250	0	26.797	0	293.398	0	-1e10	8	-1e10	8	-1E+10	1	-1E+10	1	-1E+10	1	-1E+10	1	-1E+10	1	-1E+10	1
4902554	66	C	12/03/2022	15:01	-133.402	48.263	0	297.10	0	4.5430	0	33.8270	0	26.799	0	294.388	0	-1e10	8	-1e10	8	-1E+10	1	-1E+10	1	-1E+10	1	-1E+10	1	-1E+10	1	-1E+10	1
4902554	66	C	12/03/2022	15:01	-133.402	48.263	0	298.10	0	4.5430	0	33.8270	0	26.799	0	295.378	0	-1e10	8	-1e10	8	-1E+10	1	-1E+10	1	-1E+10	1	-1E+10	1	-1E+10	1	-1E+10	1
4902554	66	C	12/03/2022	15:01	-133.402	48.263	0	299.10	0	4.5420	0	33.8280	0	26.799	0	296.368	0	-1e10	8	-1e10	8	-1E+10	1	-1E+10	1	-1E+10	1	-1E+10	1	-1E+10	1	-1E+10	1
4902554	66	C	12/03/2022	15:01	-133.402	48.263	0	300.10	0	4.5410	0	33.8290	0	26.800	0	297.359	0	-1e10	8	-1e10	8	-1E+10	1	-1E+10	1	-1E+10	1	-1E+10	1	-1E+10	1	-1E+10	1
4902554	66	C	12/03/2022	15:01	-133.402	48.263	0	301.10	0	4.5440	0	33.8300	0	26.801	0	298.349	0	-1e10	8	-1e10	8	-1E+10	1	-1E+10	1	-1E+10	1	-1E+10	1	-1E+10	1	-1E+10	1
4902554	66	C	12/03/2022	15:01	-133.402	48.263	0	302.10	0	4.5430	0	33.8310	0	26.802	0	299.339	0	-1e10	8	-1e10	8	-1E+10	1	-1E+10	1	-1E+10	1	-1E+10	1	-1E+10	1	-1E+10	1
4902554	66	C	12/03/2022	15:01	-133.402	48.263	0	303.10	0	4.5400	0	33.8320	0	26.803	0	300.329	0	-1e10	8	-1e10	8	-1E+10	1	-1E+10	1	-1E+10	1	-1E+10	1	-1E+10	1	-1E+10	1
4902554	66	C	12/03/2022	15:01	-133.402	48.263	0	304.20	0	4.5390	0	33.8330	0	26.804	0	301.418	0	-1e10	8	-1e10	8	-1E+10	1	-1E+10	1	-1E+10	1	-1E+10	1	-1E+10	1	-1E+10	1
4902554	66	C	12/03/2022	15:01	-133.402	48.263	0	305.20	0	4.5350	0	33.8350	0	26.806	0	302.408	0	-1e10	8	-1e10	8	-1E+10	1	-1E+10	1	-1E+10	1	-1E+10	1	-1E+10	1	-1E+10	1
4902554	66	C	12/03/2022	15:01	-133.402	48.263	0	306.20	0	4.5340	0	33.8360	0	26.807	0	303.398	0	-1e10	8	-1e10	8	-1E+10	1	-1E+10	1	-1E+10	1	-1E+10	1	-1E+10	1	-1E+10	1
4902554	66	C	12/03/2022	15:01	-133.402	48.263	0	307.20	0	4.5320	0	33.8370	0	26.808	0	304.388	0	-1e10	8	-1e10	8	-1E+10	1	-1E+10	1	-1E+10	1	-1E+10	1	-1E+10	1	-1E+10	1
4902554	66	C	12/03/2022	15:01	-133.402	48.263	0	308.20	0	4.5290	0	33.8380	0	26.809	0	305.379	0	-1e10	8	-1e10	8	-1E+10	1	-1E+10	1	-1E+10	1	-1E+10	1	-1E+10	1	-1E+10	1
4902554	66	C	12/03/2022	15:01	-133.402	48.263	0	309.20	0	4.5200	0	33.8430	0	26.814	0	306.369	0	-1e10	8	-1e10	8	-1E+10	1	-1E+10	1	-1E+10	1	-1E+10	1	-1E+10	1	-1E+10	1
4902554	66	C	12/03/2022	15:01	-133.402	48.263	0	310.20	0	4.5160	0	33.8450	0	26.816	0	307.359	0	-1e10	8	-1e10	8	-1E+10	1	-1E+10	1	-1E+10	1	-1E+10	1	-1E+10	1	-1E+10	1
4902554	66	C	12/03/2022	15:01	-133.402	48.263	0	311.30	0	4.5140	0	33.8450	0	26.816	0	308.448	0	-1e10	8	-1e10	8	-1E+10	1	-1E+10	1	-1E+10	1	-1E+10	1	-1E+10	1	-1E+10	1
4902554	66	C	12/03/2022	15:01	-133.402	48.263	0	312.30	0	4.5130	0	33.8450	0	26.816	0	309.438	0	-1e10	8	-1e10	8	-1E+10	1	-1E+10	1	-1E+10	1	-1E+10	1	-1E+10	1	-1E+10	1
4902554	66	C	12/03/2022	15:01	-133.402	48.263	0	313.30	0	4.5100	0	33.8470	0	26.818	0	310.428	0	-1e10	8	-1e10	8	-1E+10	1	-1E+10	1	-1E+10	1	-1E+10	1	-1E+10	1	-1E+10	1
4902554	66	C	12/03/2022	15:01	-133.402	48.263	0	314.30	0	4.5070	0	33.8480	0	26.819	0	311.418	0	-1e10	8	-1e10	8	-1E+10	1	-1E+10	1	-1E+10	1	-1E+10	1	-1E+10	1	-1E+10	1
4902554	66	C	12/03/2022	15:01	-133.402	48.263	0	315.30	0	4.5070	0	33.8480	0	26.819	0	312.408	0	-1e10	8	-1e10	8	-1E+10	1	-1E+10	1	-1E+10	1	-1E+10	1	-1E+10	1	-1E+10	1
4902554	66	C	12/03/2022	15:01	-133.402	48.263	0	316.30	0	4.5070	0	33.8480	0	26.819	0	313.398	0	-1e10	8	-1e10	8	-1E+10	1	-1E+10	1	-1E+10	1	-1E+10	1	-1E+10	1	-1E+10	1
4902554	66	C	12/03/2022	15:01	-133.402	48.263	0	317.30	0	4.5050	0	33.8490	0	26.820	0	314.388	0	-1e10	8	-1e10	8	-1E+10	1	-1E+10	1	-1E+10	1	-1E+10	1	-1E+10	1	-1E+10	1
4902554	66	C	12/03/2022	15:01	-133.402	48.263	0	318.30	0	4.4950	0	33.8510	0	26.823	0	315.378	0	-1e10	8	-1e10	8	-1E+10	1	-1E+10	1	-1E+10	1	-1E+10	1	-1E+10	1	-1E+10	1
4902554	66	C	12/03/2022	15:01	-133.402	48.263	0	319.30	0	4.4880	0	33.8540	0	26.826	0	316.368	0	-1e10	8	-1e10	8	-1E+10	1	-1E+10	1	-1E+10	1	-1E+10	1	-1E+10	1	-1E+10	1
4902554	66	C	12/03/2022	15:01	-133.402	48.263	0	320.30	0	4.4860	0	33.8550	0	26.827	0	317.359	0	-1e10	8	-1e10	8	-1E+10	1	-1E+10	1	-1E+10	1	-1E+10	1	-1E+10	1	-1E+10	1
4902554	66	C	12/03/2022	15:01	-133.402	48.263	0	321.30	0	4.4840	0	33.8550	0	26.827	0	318.349	0	-1e10	8	-1e10	8	-1E+10	1	-1E+10	1	-1E+10	1	-1E+10	1	-1E+10	1	-1E+10	1
4902554	66	C	12/03/2022	15:01	-133.402	48.263	0	322.40	0	4.4830	0	33.8550	0	26.827	0	319.438	0	-1e10	8	-1e10	8	-1E+10	1	-1E+10	1	-1E+10	1	-1E+10	1	-1E+10	1	-1E+10	1
4902554	66	C	12/03/2022	15:01	-133.402	48.263	0	323.30	0	4.4680	0	33.8600	0	26.833	0	320.329	0	-1e10	8	-1e10	8	-1E+10	1	-1E+10	1	-1E+10	1	-1E+10	1	-1E+10	1	-1E+10	1
4902554	66	C	12/03/2022	15:01	-133.402	48.263	0	324.30	0	4.4570	0	33.8620	0	26.836	0	321.319	0	-1e10	8	-1e10	8	-1E+10	1	-1E+10	1	-1E+10	1	-1E+10	1	-1E+10	1	-1E+10	1
4902554	66	C	12/03/2022	15:01	-133.402	48.263	0	325.40	0	4.4520	0	33.8650	0	26.839	0	322.408	0	-1e10	8	-1e10	8	-1E+10	1	-1E+10	1	-1E+10	1	-1E+10	1	-1E+10	1	-1E+10	1
4902554	66	C	12/03/2022	15:01	-133.402	48.263	0	326.40	0	4.4460	0	33.8660	0	26.840	0	323.398	0	-1e10	8	-1e10	8	-1E+10	1	-1E+10	1	-1E+10	1	-1E+10	1	-1E+10	1	-1E+10	1
4902554	66	C	12/03/2022	15:01	-133.402	48.263	0	327.40	0	4.4410	0	33.8680	0	26.842	0	324.388	0	-1e10	8	-1e10	8	-1E+10	1	-1E+10	1	-1E+10	1	-1E+10	1	-1E+10	1	-1E+10	1
4902554	66	C	12/03/2022	15:01	-133.402	48.263	0	328.40	0	4.4360	0	33.8700	0	26.844	0	325.378	0	-1e10	8	-1e10	8	-1E+10	1	-1E+10	1	-1E+10	1	-1E+10	1	-1E+10	1	-1E+10	1
4902554	66	C	12/03/2022	15:01	-133.402	48.263	0	329.40	0	4.4320	0	33.8720	0	26.846	0	326.368	0	-1e10	8	-1e10	8	-1E+10	1	-1E+10	1	-1E+10	1	-1E+10	1	-1E+10	1	-1E+10	1
4902554	66	C	12/03/2022	15:01	-133.402	48.263	0	330.40	0	4.4310	0	33.8740	0	26.848	0	327.358	0	-1e10	8	-1e10	8	-1E+10	1	-1E+10	1	-1E+10	1	-1E+10	1	-1E+10	1	-1E+10	1
4902554	66	C	12/03/2022	15:01	-133.402	48.263	0	331.40	0	4.4310	0	33.8740	0	26.848	0	328.348	0	-1e10	8	-1e10	8	-1E+10	1	-1E+10	1	-1E+10	1	-1E+10	1	-1E+10	1	-1E+10	1
4902554	66	C	12/03/2022	15:01	-133.402	48.263	0	332.50	0	4.4290	0	33.8750	0	26.849	0	329.437	0	-1e10	8	-1e10	8	-1E+10	1	-1E+10	1	-1E+10	1	-1E+10	1	-1E+10	1	-1E+10	1
4902554	66	C	12/03/2022	15:01	-133.402	48.263	0	333.50	0	4.4280	0	33.8750	0	26.849	0	330.427	0	-1e10	8	-1e10	8	-1E+10	1	-1E+10	1	-1E+10	1	-1E+10	1	-1E+10	1	-1E+10	1
4902554	66	C	12/03/2022	15:01	-133.402	48.263	0	334.50	0	4.4250	0	33.8770	0	26.851	0	331.417	0	-1e10	8	-1e10	8	-1E+10	1	-1E+10	1	-1E+10	1	-1E+10	1	-1E+10	1	-1E+10	1
4902554	66	C	12/03/2022	15:01	-133.402	48.263	0	335.50	0	4.4220	0	33.8770	0	26.851	0	332.407	0	-1e10	8	-1e10	8	-1E+10	1	-1E+10	1	-1E+10	1	-1E+10	1	-1E+10	1	-1E+10	1
4902554	66	C	12/03/2022	15:01	-133.402	48.263	0	336.50	0	4.4150	0	33.8800	0	26.855	0	333.397	0	-1e10	8	-1e10	8	-1E+10	1	-1E+10	1	-1E+10	1	-1E+10	1	-1E+10	1	-1E+10	1
4902554	66	C	12/03/2022	15:01	-133.402	48.263	0	337.60	0	4.4070	0	33.8810	0	26.856	0	334.486	0	-1e10	8	-1e10	8	-1E+10	1	-1E+10	1	-1E+10	1	-1E+10	1	-1E+10	1	-1E+10	1
4902554	66	C	12/03/2022	15:01	-133.402	48.263	0	338.60	0	4.4030	0	33.8840	0	26.859	0	335.476	0	-1e10	8	-1e10	8	-1E+10	1	-1E+10	1	-1E+10	1	-1E+10	1	-1E+10	1	-1E+10	1
4902554	66	C	12/03/2022	15:01	-133.402	48.263	0	339.60	0	4.4010	0	33.8850	0	26.860	0	336.466	0	-1e10	8	-1e10	8	-1E+10	1	-1E+10	1	-1E+10	1	-1E+10	1	-1E+10	1	-1E+10	1
4902554	66	C	12/03/2022	15:01	-133.402	48.263	0	340.60	0	4.3990	0	33.8860	0	26.861	0	337.456	0	-1e10	8	-1e10	8	-1E+10	1	-1E+10	1	-1E+10	1	-1E+10	1	-1E+10	1	-1E+10	1
4902554	66	C	12/03/2022	15:01	-133.402	48.263	0	341.60	0	4.3950	0	33.8880	0	26.863	0	338.446	0	-1e10	8	-1e10	8	-1E+10	1	-1E+10	1	-1E+10	1	-1E+10	1	-1E+10	1	-1E+10	1
4902554	66	C	12/03/2022	15:01	-133.402	48.263	0	342.70	0	4.3910	0	33.8910	0	26.866	0	339.535	0	-1e10	8	-1e10	8	-1E+10	1	-1E+10	1	-1E+10	1	-1E+10	1	-1E+10	1	-1E+10	1
4902554	66	C	12/03/2022	15:01	-133.402	48.263	0	343.70	0	4.3840	0	33.8930	0	26.868	0	340.524	0	-1e10	8	-1e10	8	-1E+10	1	-1E+10	1	-1E+10	1	-1E+10	1	-1E+10	1	-1E+10	1
4902554	66	C	12/03/2022	15:01	-133.402	48.263	0	344.80	0	4.3800	0	33.8950	0	26.870	0	341.613	0	-1e10	8	-1e10	8	-1E+10	1	-1E+10	1	-1E+10	1	-1E+10	1	-1E+10	1	-1E+10	1
4902554	66	C	12/03/2022	15:01	-133.402	48.263	0	345.80	0	4.3730	0	33.8950	0	26.871	0	342.603	0	-1e10	8	-1e10	8	-1E+10	1	-1E+10	1	-1E+10	1	-1E+10	1	-1E+10	1	-1E+10	1
4902554	66	C	12/03/2022	15:01	-133.402	48.263	0	346.80	0	4.3660	0	33.8960	0	26.873	0	343.593	0	-1e10	8	-1e10	8	-1E+10	1	-1E+10	1	-1E+10	1	-1E+10	1	-1E+10	1	-1E+10	1
4902554	66	C	12/03/2022	15:01	-133.402	48.263	0	347.80	0	4.3670	0	33.8980	0	26.874	0	344.583	0	-1e10	8	-1e10	8	-1E+10	1	-1E+10	1	-1E+10	1	-1E+10	1	-1E+10	1	-1E+10	1
4902554	66	C	12/03/2022	15:01	-133.402	48.263	0	348.90	0	4.3670	0	33.8980	0	26.874	0	345.672	0	-1e10	8	-1e10	8	-1E+10	1	-1E+10	1	-1E+10	1	-1E+10	1	-1E+10	1	-1E+10	1
4902554	66	C	12/03/2022	15:01	-133.402	48.263	0	349.90	0	4.3690	0	33.8990	0	26.875	0	346.662	0	-1e10	8	-1e10	8	-1E+10	1	-1E+10	1	-1E+10	1	-1E+10	1	-1E+10	1	-1E+10	1
4902554	66	C	12/03/2022	15:01	-133.402	48.263	0	353.00	0	4.3510	0	33.9030	0	26.880	0	349.731	0	-1e10	8	-1e10	8	-1E+10	1	-1E+10	1	-1E+10	1	-1E+10	1	-1E+10	1	-1E+10	1
4902554	66	C	12/03/2022	15:01	-133.402	48.263	0	358.20	0	4.3230	0	33.9100	0	26.888	0	354.878	0	-1e10	8	-1e10	8	-1E+10	1	-1E+10	1	-1E+10	1	-1E+10	1	-1E+10	1	-1E+10	1
4902554	66	C	12/03/2022	15:01	-133.402	48.263	0	362.90	0	4.3040	0	33.9160	0	26.895	0	359.530	0	-1e10	8	-1e10	8	-1E+10	1	-1E+10	1	-1E+10	1	-1E+10	1	-1E+10	1	-1E+10	1
4902554	66	C	12/03/2022	15:01	-133.402	48.263	0	367.60	0	4.2990	0	33.9180	0	26.897	0	364.183	0	-1e10	8	-1e10	8	-1E+10	1	-1E+10	1	-1E+10	1	-1E+10	1	-1E+10	1	-1E+10	1
4902554	66	C	12/03/2022	15:01	-133.402	48.263	0	373.20	0	4.2850	0	33.9280	0	26.907	0	369.726	0	-1e10	8	-1e10	8	-1E+10	1	-1E+10	1	-1E+10	1	-1E+10	1	-1E+10	1	-1E+10	1
4902554	66	C	12/03/2022	15:01	-133.402	48.263	0	378.20	0	4.2770	0	33.9340	0	26.912	0	374.675	0	-1e10	8	-1e10	8	-1E+10	1	-1E+10	1	-1E+10	1	-1E+10	1	-1E+10	1	-1E+10	1
4902554	66	C	12/03/2022	15:01	-133.402	48.263	0	382.90	0	4.2720	0	33.9390	0	26.917	0	379.326	0	-1e10	8	-1e10	8	-1E+10	1	-1E+10	1	-1E+10	1	-1E+10	1	-1E+10	1	-1E+10	1
4902554	66	C	12/03/2022	15:01	-133.402	48.263	0	387.70	0	4.2570	0	33.9470	0	26.925	0	384.077	0	-1e10	8	-1e10	8	-1E+10	1	-1E+10	1	-1E+10	1	-1E+10	1	-1E+10	1	-1E+10	1
4902554	66	C	12/03/2022	15:01	-133.402	48.263	0	393.00	0	4.2390	0	33.9510	0	26.930	0	389.323	0	-1e10	8	-1e10	8	-1E+10	1	-1E+10	1	-1E+10	1	-1E+10	1	-1E+10	1	-1E+10	1
4902554	66	C	12/03/2022	15:01	-133.402	48.263	0	398.30	0	4.2170	0	33.9590	0	26.939	0	394.568	0	-1e10	8	-1e10	8	-1E+10	1	-1E+10	1	-1E+10	1	-1E+10	1	-1E+10	1	-1E+10	1
4902554	66	C	12/03/2022	15:01	-133.402	48.263	0	403.20	0	4.2140	0	33.9640	0	26.943	0	399.417	0	-1e10	8	-1e10	8	-1E+10	1	-1E+10	1	-1E+10	1	-1E+10	1	-1E+10	1	-1E+10	1
4902554	66	C	12/03/2022	15:01	-133.402	48.263	0	407.80	0	4.2110	0	33.9700	0	26.948	0	403.970	0	-1e10	8	-1e10	8	-1E+10	1	-1E+10	1	-1E+10	1	-1E+10	1	-1E+10	1	-1E+10	1
4902554	66	C	12/03/2022	15:01	-133.402	48.263	0	412.60	0	4.2070	0	33.9730	0	26.951	0	408.720	0	-1e10	8	-1e10	8	-1E+10	1	-1E+10	1	-1E+10	1	-1E+10	1	-1E+10	1	-1E+10	1
4902554	66	C	12/03/2022	15:01	-133.402	48.263	0	417.80	0	4.2040	0	33.9780	0	26.955	0	413.866	0	-1e10	8	-1e10	8	-1E+10	1	-1E+10	1	-1E+10	1	-1E+10	1	-1E+10	1	-1E+10	1
4902554	66	C	12/03/2022	15:01	-133.402	48.263	0	423.10	0	4.2080	0	33.9840	0	26.960	0	419.111	0	-1e10	8	-1e10	8	-1E+10	1	-1E+10	1	-1E+10	1	-1E+10	1	-1E+10	1	-1E+10	1
4902554	66	C	12/03/2022	15:01	-133.402	48.263	0	428.00	0	4.2030	0	33.9900	0	26.965	0	423.959	0	-1e10	8	-1e10	8	-1E+10	1	-1E+10	1	-1E+10	1	-1E+10	1	-1E+10	1	-1E+10	1
4902554	66	C	12/03/2022	15:01	-133.402	48.263	0	432.90	0	4.2000	0	33.9970	0	26.971	0	428.808	0	-1e10	8	-1e10	8	-1E+10	1	-1E+10	1	-1E+10	1	-1E+10	1	-1E+10	1	-1E+10	1
4902554	66	C	12/03/2022	15:01	-133.402	48.263	0	437.80	0	4.1980	0	34.0040	0	26.977	0	433.657	0	-1e10	8	-1e10	8	-1E+10	1	-1E+10	1	-1E+10	1	-1E+10	1	-1E+10	1	-1E+10	1
4902554	66	C	12/03/2022	15:01	-133.402	48.263	0	442.80	0	4.1850	0	34.0110	0	26.984	0	438.604	0	-1e10	8	-1e10	8	-1E+10	1	-1E+10	1	-1E+10	1	-1E+10	1	-1E+10	1	-1E+10	1
4902554	66	C	12/03/2022	15:01	-133.402	48.263	0	447.90	0	4.1850	0	34.0140	0	26.986	0	443.650	0	-1e10	8	-1e10	8	-1E+10	1	-1E+10	1	-1E+10	1	-1E+10	1	-1E+10	1	-1E+10	1
4902554	66	C	12/03/2022	15:01	-133.402	48.263	0	453.00	0	4.1770	0	34.0200	0	26.992	0	448.696	0	-1e10	8	-1e10	8	-1E+10	1	-1E+10	1	-1E+10	1	-1E+10	1	-1E+10	1	-1E+10	1
4902554	66	C	12/03/2022	15:01	-133.402	48.263	0	458.10	0	4.1680	0	34.0260	0	26.998	0	453.742	0	-1e10	8	-1e10	8	-1E+10	1	-1E+10	1	-1E+10	1	-1E+10	1	-1E+10	1	-1E+10	1
4902554	66	C	12/03/2022	15:01	-133.402	48.263	0	462.80	0	4.1540	0	34.0330	0	27.005	0	458.392	0	-1e10	8	-1e10	8	-1E+10	1	-1E+10	1	-1E+10	1	-1E+10	1	-1E+10	1	-1E+10	1
4902554	66	C	12/03/2022	15:01	-133.402	48.263	0	468.00	0	4.1500	0	34.0360	0	27.007	0	463.537	0	-1e10	8	-1e10	8	-1E+10	1	-1E+10	1	-1E+10	1	-1E+10	1	-1E+10	1	-1E+10	1
4902554	66	C	12/03/2022	15:01	-133.402	48.263	0	473.20	0	4.1430	0	34.0380	0	27.010	0	468.682	0	-1e10	8	-1e10	8	-1E+10	1	-1E+10	1	-1E+10	1	-1E+10	1	-1E+10	1	-1E+10	1
4902554	66	C	12/03/2022	15:01	-133.402	48.263	0	477.90	0	4.1340	0	34.0430	0	27.015	0	473.331	0	-1e10	8	-1e10	8	-1E+10	1	-1E+10	1	-1E+10	1	-1E+10	1	-1E+10	1	-1E+10	1
4902554	66	C	12/03/2022	15:01	-133.402	48.263	0	482.60	0	4.1220	0	34.0490	0	27.021	0	477.981	0	-1e10	8	-1e10	8	-1E+10	1	-1E+10	1	-1E+10	1	-1E+10	1	-1E+10	1	-1E+10	1
4902554	66	C	12/03/2022	15:01	-133.402	48.263	0	487.90	0	4.1170	0	34.0510	0	27.023	0	483.224	0	-1e10	8	-1e10	8	-1E+10	1	-1E+10	1	-1E+10	1	-1E+10	1	-1E+10	1	-1E+10	1
4902554	66	C	12/03/2022	15:01	-133.402	48.263	0	493.10	0	4.1040	0	34.0570	0	27.029	0	488.368	0	-1e10	8	-1e10	8	-1E+10	1	-1E+10	1	-1E+10	1	-1E+10	1	-1E+10	1	-1E+10	1
4902554	66	C	12/03/2022	15:01	-133.402	48.263	0	498.00	0	4.0940	0	34.0610	0	27.033	0	493.215	0	-1e10	8	-1e10	8	-1E+10	1	-1E+10	1	-1E+10	1	-1E+10	1	-1E+10	1	-1E+10	1
4902554	66	C	12/03/2022	15:01	-133.402	48.263	0	502.90	0	4.0870	0	34.0640	0	27.036	0	498.063	0	-1e10	8	-1e10	8	-1E+10	1	-1E+10	1	-1E+10	1	-1E+10	1	-1E+10	1	-1E+10	1
4902554	66	C	12/03/2022	15:01	-133.402	48.263	0	507.80	0	4.0810	0	34.0680	0	27.040	0	502.909	0	-1e10	8	-1e10	8	-1E+10	1	-1E+10	1	-1E+10	1	-1E+10	1	-1E+10	1	-1E+10	1
4902554	66	C	12/03/2022	15:01	-133.402	48.263	0	512.80	0	4.0750	0	34.0710	0	27.043	0	507.855	0	-1e10	8	-1e10	8	-1E+10	1	-1E+10	1	-1E+10	1	-1E+10	1	-1E+10	1	-1E+10	1
4902554	66	C	12/03/2022	15:01	-133.402	48.263	0	517.80	0	4.0710	0	34.0740	0	27.046	0	512.801	0	-1e10	8	-1e10	8	-1E+10	1	-1E+10	1	-1E+10	1	-1E+10	1	-1E+10	1	-1E+10	1
4902554	66	C	12/03/2022	15:01	-133.402	48.263	0	522.80	0	4.0570	0	34.0820	0	27.054	0	517.746	0	-1e10	8	-1e10	8	-1E+10	1	-1E+10	1	-1E+10	1	-1E+10	1	-1E+10	1	-1E+10	1
4902554	66	C	12/03/2022	15:01	-133.402	48.263	0	527.80	0	4.0510	0	34.0850	0	27.057	0	522.692	0	-1e10	8	-1e10	8	-1E+10	1	-1E+10	1	-1E+10	1	-1E+10	1	-1E+10	1	-1E+10	1
4902554	66	C	12/03/2022	15:01	-133.402	48.263	0	532.90	0	4.0430	0	34.0910	0	27.063	0	527.736	0	-1e10	8	-1e10	8	-1E+10	1	-1E+10	1	-1E+10	1	-1E+10	1	-1E+10	1	-1E+10	1
4902554	66	C	12/03/2022	15:01	-133.402	48.263	0	538.10	0	4.0200	0	34.0970	0	27.070	0	532.879	0	-1e10	8	-1e10	8	-1E+10	1	-1E+10	1	-1E+10	1	-1E+10	1	-1E+10	1	-1E+10	1
4902554	66	C	12/03/2022	15:01	-133.402	48.263	0	542.80	0	4.0140	0	34.1000	0	27.073	0	537.527	0	-1e10	8	-1e10	8	-1E+10	1	-1E+10	1	-1E+10	1	-1E+10	1	-1E+10	1	-1E+10	1
4902554	66	C	12/03/2022	15:01	-133.402	48.263	0	547.60	0	4.0050	0	34.1040	0	27.077	0	542.274	0	-1e10	8	-1e10	8	-1E+10	1	-1E+10	1	-1E+10	1	-1E+10	1	-1E+10	1	-1E+10	1
4902554	66	C	12/03/2022	15:01	-133.402	48.263	0	552.90	0	4.0000	0	34.1070	0	27.080	0	547.516	0	-1e10	8	-1e10	8	-1E+10	1	-1E+10	1	-1E+10	1	-1E+10	1	-1E+10	1	-1E+10	1
4902554	66	C	12/03/2022	15:01	-133.402	48.263	0	558.10	0	3.9970	0	34.1090	0	27.082	0	552.658	0	-1e10	8	-1e10	8	-1E+10	1	-1E+10	1	-1E+10	1	-1E+10	1	-1E+10	1	-1E+10	1
4902554	66	C	12/03/2022	15:01	-133.402	48.263	0	563.10	0	3.9900	0	34.1110	0	27.084	0	557.603	0	-1e10	8	-1e10	8	-1E+10	1	-1E+10	1	-1E+10	1	-1E+10	1	-1E+10	1	-1E+10	1
4902554	66	C	12/03/2022	15:01	-133.402	48.263	0	568.00	0	3.9830	0	34.1150	0	27.088	0	562.448	0	-1e10	8	-1e10	8	-1E+10	1	-1E+10	1	-1E+10	1	-1E+10	1	-1E+10	1	-1E+10	1
4902554	66	C	12/03/2022	15:01	-133.402	48.263	0	573.00	0	3.9770	0	34.1180	0	27.091	0	567.393	0	-1e10	8	-1e10	8	-1E+10	1	-1E+10	1	-1E+10	1	-1E+10	1	-1E+10	1	-1E+10	1
4902554	66	C	12/03/2022	15:01	-133.402	48.263	0	578.00	0	3.9700	0	34.1220	0	27.095	0	572.337	0	-1e10	8	-1e10	8	-1E+10	1	-1E+10	1	-1E+10	1	-1E+10	1	-1E+10	1	-1E+10	1
4902554	66	C	12/03/2022	15:01	-133.402	48.263	0	583.00	0	3.9610	0	34.1280	0	27.101	0	577.281	0	-1e10	8	-1e10	8	-1E+10	1	-1E+10	1	-1E+10	1	-1E+10	1	-1E+10	1	-1E+10	1
4902554	66	C	12/03/2022	15:01	-133.402	48.263	0	588.00	0	3.9460	0	34.1350	0	27.108	0	582.225	0	-1e10	8	-1e10	8	-1E+10	1	-1E+10	1	-1E+10	1	-1E+10	1	-1E+10	1	-1E+10	1
4902554	66	C	12/03/2022	15:01	-133.402	48.263	0	593.10	0	3.9310	0	34.1400	0	27.113	0	587.268	0	-1e10	8	-1e10	8	-1E+10	1	-1E+10	1	-1E+10	1	-1E+10	1	-1E+10	1	-1E+10	1
4902554	66	C	12/03/2022	15:01	-133.402	48.263	0	598.10	0	3.9180	0	34.1460	0	27.120	0	592.211	0	-1e10	8	-1e10	8	-1E+10	1	-1E+10	1	-1E+10	1	-1E+10	1	-1E+10	1	-1E+10	1
4902554	66	C	12/03/2022	15:01	-133.402	48.263	0	603.10	0	3.9020	0	34.1520	0	27.126	0	597.155	0	-1e10	8	-1e10	8	-1E+10	1	-1E+10	1	-1E+10	1	-1E+10	1	-1E+10	1	-1E+10	1
4902554	66	C	12/03/2022	15:01	-133.402	48.263	0	608.10	0	3.8890	0	34.1560	0	27.131	0	602.098	0	-1e10	8	-1e10	8	-1E+10	1	-1E+10	1	-1E+10	1	-1E+10	1	-1E+10	1	-1E+10	1
4902554	66	C	12/03/2022	15:01	-133.402	48.263	0	613.00	0	3.8740	0	34.1620	0	27.137	0	606.943	0	-1e10	8	-1e10	8	-1E+10	1	-1E+10	1	-1E+10	1	-1E+10	1	-1E+10	1	-1E+10	1
4902554	66	C	12/03/2022	15:01	-133.402	48.263	0	618.00	0	3.8650	0	34.1650	0	27.140	0	611.886	0	-1e10	8	-1e10	8	-1E+10	1	-1E+10	1	-1E+10	1	-1E+10	1	-1E+10	1	-1E+10	1
4902554	66	C	12/03/2022	15:01	-133.402	48.263	0	623.00	0	3.8520	0	34.1700	0	27.146	0	616.829	0	-1e10	8	-1e10	8	-1E+10	1	-1E+10	1	-1E+10	1	-1E+10	1	-1E+10	1	-1E+10	1
4902554	66	C	12/03/2022	15:01	-133.402	48.263	0	628.00	0	3.8280	0	34.1780	0	27.154	0	621.772	0	-1e10	8	-1e10	8	-1E+10	1	-1E+10	1	-1E+10	1	-1E+10	1	-1E+10	1	-1E+10	1
4902554	66	C	12/03/2022	15:01	-133.402	48.263	0	632.80	0	3.8170	0	34.1820	0	27.159	0	626.517	0	-1e10	8	-1e10	8	-1E+10	1	-1E+10	1	-1E+10	1	-1E+10	1	-1E+10	1	-1E+10	1
4902554	66	C	12/03/2022	15:01	-133.402	48.263	0	637.60	0	3.8130	0	34.1840	0	27.161	0	631.263	0	-1e10	8	-1e10	8	-1E+10	1	-1E+10	1	-1E+10	1	-1E+10	1	-1E+10	1	-1E+10	1
4902554	66	C	12/03/2022	15:01	-133.402	48.263	0	643.00	0	3.8070	0	34.1860	0	27.163	0	636.601	0	-1e10	8	-1e10	8	-1E+10	1	-1E+10	1	-1E+10	1	-1E+10	1	-1E+10	1	-1E+10	1
4902554	66	C	12/03/2022	15:01	-133.402	48.263	0	647.90	0	3.7920	0	34.1910	0	27.168	0	641.444	0	-1e10	8	-1e10	8	-1E+10	1	-1E+10	1	-1E+10	1	-1E+10	1	-1E+10	1	-1E+10	1
4902554	66	C	12/03/2022	15:01	-133.402	48.263	0	652.90	0	3.7840	0	34.1940	0	27.172	0	646.387	0	-1e10	8	-1e10	8	-1E+10	1	-1E+10	1	-1E+10	1	-1E+10	1	-1E+10	1	-1E+10	1
4902554	66	C	12/03/2022	15:01	-133.402	48.263	0	657.90	0	3.7730	0	34.1960	0	27.174	0	651.329	0	-1e10	8	-1e10	8	-1E+10	1	-1E+10	1	-1E+10	1	-1E+10	1	-1E+10	1	-1E+10	1
4902554	66	C	12/03/2022	15:01	-133.402	48.263	0	663.00	0	3.7630	0	34.1990	0	27.178	0	656.370	0	-1e10	8	-1e10	8	-1E+10	1	-1E+10	1	-1E+10	1	-1E+10	1	-1E+10	1	-1E+10	1
4902554	66	C	12/03/2022	15:01	-133.402	48.263	0	668.10	0	3.7500	0	34.2030	0	27.182	0	661.411	0	-1e10	8	-1e10	8	-1E+10	1	-1E+10	1	-1E+10	1	-1E+10	1	-1E+10	1	-1E+10	1
4902554	66	C	12/03/2022	15:01	-133.402	48.263	0	672.70	0	3.7470	0	34.2070	0	27.186	0	665.958	0	-1e10	8	-1e10	8	-1E+10	1	-1E+10	1	-1E+10	1	-1E+10	1	-1E+10	1	-1E+10	1
4902554	66	C	12/03/2022	15:01	-133.402	48.263	0	677.90	0	3.7360	0	34.2110	0	27.190	0	671.097	0	-1e10	8	-1e10	8	-1E+10	1	-1E+10	1	-1E+10	1	-1E+10	1	-1E+10	1	-1E+10	1
4902554	66	C	12/03/2022	15:01	-133.402	48.263	0	683.00	0	3.7270	0	34.2130	0	27.193	0	676.138	0	-1e10	8	-1e10	8	-1E+10	1	-1E+10	1	-1E+10	1	-1E+10	1	-1E+10	1	-1E+10	1
4902554	66	C	12/03/2022	15:01	-133.402	48.263	0	687.80	0	3.7110	0	34.2160	0	27.197	0	680.882	0	-1e10	8	-1e10	8	-1E+10	1	-1E+10	1	-1E+10	1	-1E+10	1	-1E+10	1	-1E+10	1
4902554	66	C	12/03/2022	15:01	-133.402	48.263	0	692.50	0	3.6940	0	34.2220	0	27.203	0	685.527	0	-1e10	8	-1e10	8	-1E+10	1	-1E+10	1	-1E+10	1	-1E+10	1	-1E+10	1	-1E+10	1
4902554	66	C	12/03/2022	15:01	-133.402	48.263	0	697.90	0	3.6850	0	34.2250	0	27.206	0	690.863	0	-1e10	8	-1e10	8	-1E+10	1	-1E+10	1	-1E+10	1	-1E+10	1	-1E+10	1	-1E+10	1
4902554	66	C	12/03/2022	15:01	-133.402	48.263	0	703.30	0	3.6750	0	34.2280	0	27.210	0	696.200	0	-1e10	8	-1e10	8	-1E+10	1	-1E+10	1	-1E+10	1	-1E+10	1	-1E+10	1	-1E+10	1
4902554	66	C	12/03/2022	15:01	-133.402	48.263	0	708.20	0	3.6570	0	34.2320	0	27.215	0	701.042	0	-1e10	8	-1e10	8	-1E+10	1	-1E+10	1	-1E+10	1	-1E+10	1	-1E+10	1	-1E+10	1
4902554	66	C	12/03/2022	15:01	-133.402	48.263	0	713.20	0	3.6470	0	34.2340	0	27.217	0	705.983	0	-1e10	8	-1e10	8	-1E+10	1	-1E+10	1	-1E+10	1	-1E+10	1	-1E+10	1	-1E+10	1
4902554	66	C	12/03/2022	15:01	-133.402	48.263	0	718.00	0	3.6340	0	34.2380	0	27.222	0	710.726	0	-1e10	8	-1e10	8	-1E+10	1	-1E+10	1	-1E+10	1	-1E+10	1	-1E+10	1	-1E+10	1
4902554	66	C	12/03/2022	15:01	-133.402	48.263	0	723.00	0	3.6250	0	34.2400	0	27.224	0	715.667	0	-1e10	8	-1e10	8	-1E+10	1	-1E+10	1	-1E+10	1	-1E+10	1	-1E+10	1	-1E+10	1
4902554	66	C	12/03/2022	15:01	-133.402	48.263	0	728.10	0	3.6110	0	34.2430	0	27.228	0	720.707	0	-1e10	8	-1e10	8	-1E+10	1	-1E+10	1	-1E+10	1	-1E+10	1	-1E+10	1	-1E+10	1
4902554	66	C	12/03/2022	15:01	-133.402	48.263	0	732.80	0	3.6010	0	34.2460	0	27.232	0	725.351	0	-1e10	8	-1e10	8	-1E+10	1	-1E+10	1	-1E+10	1	-1E+10	1	-1E+10	1	-1E+10	1
4902554	66	C	12/03/2022	15:01	-133.402	48.263	0	737.60	0	3.5950	0	34.2480	0	27.234	0	730.094	0	-1e10	8	-1e10	8	-1E+10	1	-1E+10	1	-1E+10	1	-1E+10	1	-1E+10	1	-1E+10	1
4902554	66	C	12/03/2022	15:01	-133.402	48.263	0	742.50	0	3.5890	0	34.2490	0	27.235	0	734.935	0	-1e10	8	-1e10	8	-1E+10	1	-1E+10	1	-1E+10	1	-1E+10	1	-1E+10	1	-1E+10	1
4902554	66	C	12/03/2022	15:01	-133.402	48.263	0	747.90	0	3.5740	0	34.2510	0	27.238	0	740.270	0	-1e10	8	-1e10	8	-1E+10	1	-1E+10	1	-1E+10	1	-1E+10	1	-1E+10	1	-1E+10	1
4902554	66	C	12/03/2022	15:01	-133.402	48.263	0	752.90	0	3.5600	0	34.2530	0	27.241	0	745.211	0	-1e10	8	-1e10	8	-1E+10	1	-1E+10	1	-1E+10	1	-1E+10	1	-1E+10	1	-1E+10	1
4902554	66	C	12/03/2022	15:01	-133.402	48.263	0	757.60	0	3.5440	0	34.2560	0	27.245	0	749.854	0	-1e10	8	-1e10	8	-1E+10	1	-1E+10	1	-1E+10	1	-1E+10	1	-1E+10	1	-1E+10	1
4902554	66	C	12/03/2022	15:01	-133.402	48.263	0	762.80	0	3.5370	0	34.2590	0	27.248	0	754.992	0	-1e10	8	-1e10	8	-1E+10	1	-1E+10	1	-1E+10	1	-1E+10	1	-1E+10	1	-1E+10	1
4902554	66	C	12/03/2022	15:01	-133.402	48.263	0	768.10	0	3.5240	0	34.2610	0	27.251	0	760.228	0	-1e10	8	-1e10	8	-1E+10	1	-1E+10	1	-1E+10	1	-1E+10	1	-1E+10	1	-1E+10	1
4902554	66	C	12/03/2022	15:01	-133.402	48.263	0	772.90	0	3.5110	0	34.2640	0	27.255	0	764.970	0	-1e10	8	-1e10	8	-1E+10	1	-1E+10	1	-1E+10	1	-1E+10	1	-1E+10	1	-1E+10	1
4902554	66	C	12/03/2022	15:01	-133.402	48.263	0	777.80	0	3.5000	0	34.2650	0	27.257	0	769.810	0	-1e10	8	-1e10	8	-1E+10	1	-1E+10	1	-1E+10	1	-1E+10	1	-1E+10	1	-1E+10	1
4902554	66	C	12/03/2022	15:01	-133.402	48.263	0	783.20	0	3.4920	0	34.2660	0	27.258	0	775.145	0	-1e10	8	-1e10	8	-1E+10	1	-1E+10	1	-1E+10	1	-1E+10	1	-1E+10	1	-1E+10	1
4902554	66	C	12/03/2022	15:01	-133.402	48.263	0	788.10	0	3.4770	0	34.2700	0	27.263	0	779.985	0	-1e10	8	-1e10	8	-1E+10	1	-1E+10	1	-1E+10	1	-1E+10	1	-1E+10	1	-1E+10	1
4902554	66	C	12/03/2022	15:01	-133.402	48.263	0	792.90	0	3.4690	0	34.2710	0	27.265	0	784.727	0	-1e10	8	-1e10	8	-1E+10	1	-1E+10	1	-1E+10	1	-1E+10	1	-1E+10	1	-1E+10	1
4902554	66	C	12/03/2022	15:01	-133.402	48.263	0	797.80	0	3.4610	0	34.2730	0	27.267	0	789.567	0	-1e10	8	-1e10	8	-1E+10	1	-1E+10	1	-1E+10	1	-1E+10	1	-1E+10	1	-1E+10	1
4902554	66	C	12/03/2022	15:01	-133.402	48.263	0	802.70	0	3.4510	0	34.2760	0	27.270	0	794.407	0	-1e10	8	-1e10	8	-1E+10	1	-1E+10	1	-1E+10	1	-1E+10	1	-1E+10	1	-1E+10	1
4902554	66	C	12/03/2022	15:01	-133.402	48.263	0	808.00	0	3.4470	0	34.2780	0	27.272	0	799.642	0	-1e10	8	-1e10	8	-1E+10	1	-1E+10	1	-1E+10	1	-1E+10	1	-1E+10	1	-1E+10	1
4902554	66	C	12/03/2022	15:01	-133.402	48.263	0	813.00	0	3.4310	0	34.2810	0	27.276	0	804.581	0	-1e10	8	-1e10	8	-1E+10	1	-1E+10	1	-1E+10	1	-1E+10	1	-1E+10	1	-1E+10	1
4902554	66	C	12/03/2022	15:01	-133.402	48.263	0	817.90	0	3.4170	0	34.2840	0	27.280	0	809.421	0	-1e10	8	-1e10	8	-1E+10	1	-1E+10	1	-1E+10	1	-1E+10	1	-1E+10	1	-1E+10	1
4902554	66	C	12/03/2022	15:01	-133.402	48.263	0	822.90	0	3.4080	0	34.2850	0	27.282	0	814.359	0	-1e10	8	-1e10	8	-1E+10	1	-1E+10	1	-1E+10	1	-1E+10	1	-1E+10	1	-1E+10	1
4902554	66	C	12/03/2022	15:01	-133.402	48.263	0	827.90	0	3.4010	0	34.2870	0	27.284	0	819.297	0	-1e10	8	-1e10	8	-1E+10	1	-1E+10	1	-1E+10	1	-1E+10	1	-1E+10	1	-1E+10	1
4902554	66	C	12/03/2022	15:01	-133.402	48.263	0	832.90	0	3.3940	0	34.2890	0	27.286	0	824.236	0	-1e10	8	-1e10	8	-1E+10	1	-1E+10	1	-1E+10	1	-1E+10	1	-1E+10	1	-1E+10	1
4902554	66	C	12/03/2022	15:01	-133.402	48.263	0	837.80	0	3.3840	0	34.2910	0	27.289	0	829.075	0	-1e10	8	-1e10	8	-1E+10	1	-1E+10	1	-1E+10	1	-1E+10	1	-1E+10	1	-1E+10	1
4902554	66	C	12/03/2022	15:01	-133.402	48.263	0	842.90	0	3.3750	0	34.2930	0	27.291	0	834.112	0	-1e10	8	-1e10	8	-1E+10	1	-1E+10	1	-1E+10	1	-1E+10	1	-1E+10	1	-1E+10	1
4902554	66	C	12/03/2022	15:01	-133.402	48.263	0	847.80	0	3.3570	0	34.2970	0	27.296	0	838.951	0	-1e10	8	-1e10	8	-1E+10	1	-1E+10	1	-1E+10	1	-1E+10	1	-1E+10	1	-1E+10	1
4902554	66	C	12/03/2022	15:01	-133.402	48.263	0	852.80	0	3.3480	0	34.2990	0	27.299	0	843.888	0	-1e10	8	-1e10	8	-1E+10	1	-1E+10	1	-1E+10	1	-1E+10	1	-1E+10	1	-1E+10	1
4902554	66	C	12/03/2022	15:01	-133.402	48.263	0	857.70	0	3.3330	0	34.3020	0	27.303	0	848.727	0	-1e10	8	-1e10	8	-1E+10	1	-1E+10	1	-1E+10	1	-1E+10	1	-1E+10	1	-1E+10	1
4902554	66	C	12/03/2022	15:01	-133.402	48.263	0	863.00	0	3.3240	0	34.3050	0	27.306	0	853.961	0	-1e10	8	-1e10	8	-1E+10	1	-1E+10	1	-1E+10	1	-1E+10	1	-1E+10	1	-1E+10	1
4902554	66	C	12/03/2022	15:01	-133.402	48.263	0	868.00	0	3.3150	0	34.3070	0	27.308	0	858.898	0	-1e10	8	-1e10	8	-1E+10	1	-1E+10	1	-1E+10	1	-1E+10	1	-1E+10	1	-1E+10	1
4902554	66	C	12/03/2022	15:01	-133.402	48.263	0	872.90	0	3.3020	0	34.3110	0	27.313	0	863.737	0	-1e10	8	-1e10	8	-1E+10	1	-1E+10	1	-1E+10	1	-1E+10	1	-1E+10	1	-1E+10	1
4902554	66	C	12/03/2022	15:01	-133.402	48.263	0	877.90	0	3.2920	0	34.3130	0	27.315	0	868.674	0	-1e10	8	-1e10	8	-1E+10	1	-1E+10	1	-1E+10	1	-1E+10	1	-1E+10	1	-1E+10	1
4902554	66	C	12/03/2022	15:01	-133.402	48.263	0	883.00	0	3.2780	0	34.3160	0	27.319	0	873.710	0	-1e10	8	-1e10	8	-1E+10	1	-1E+10	1	-1E+10	1	-1E+10	1	-1E+10	1	-1E+10	1
4902554	66	C	12/03/2022	15:01	-133.402	48.263	0	888.10	0	3.2660	0	34.3200	0	27.323	0	878.745	0	-1e10	8	-1e10	8	-1E+10	1	-1E+10	1	-1E+10	1	-1E+10	1	-1E+10	1	-1E+10	1
4902554	66	C	12/03/2022	15:01	-133.402	48.263	0	892.70	0	3.2510	0	34.3230	0	27.327	0	883.287	0	-1e10	8	-1e10	8	-1E+10	1	-1E+10	1	-1E+10	1	-1E+10	1	-1E+10	1	-1E+10	1
4902554	66	C	12/03/2022	15:01	-133.402	48.263	0	897.80	0	3.2390	0	34.3260	0	27.331	0	888.323	0	-1e10	8	-1e10	8	-1E+10	1	-1E+10	1	-1E+10	1	-1E+10	1	-1E+10	1	-1E+10	1
4902554	66	C	12/03/2022	15:01	-133.402	48.263	0	902.90	0	3.2330	0	34.3290	0	27.334	0	893.358	0	-1e10	8	-1e10	8	-1E+10	1	-1E+10	1	-1E+10	1	-1E+10	1	-1E+10	1	-1E+10	1
4902554	66	C	12/03/2022	15:01	-133.402	48.263	0	908.10	0	3.2300	0	34.3300	0	27.335	0	898.492	0	-1e10	8	-1e10	8	-1E+10	1	-1E+10	1	-1E+10	1	-1E+10	1	-1E+10	1	-1E+10	1
4902554	66	C	12/03/2022	15:01	-133.402	48.263	0	913.20	0	3.2240	0	34.3310	0	27.336	0	903.527	0	-1e10	8	-1e10	8	-1E+10	1	-1E+10	1	-1E+10	1	-1E+10	1	-1E+10	1	-1E+10	1
4902554	66	C	12/03/2022	15:01	-133.402	48.263	0	918.00	0	3.2170	0	34.3330	0	27.339	0	908.266	0	-1e10	8	-1e10	8	-1E+10	1	-1E+10	1	-1E+10	1	-1E+10	1	-1E+10	1	-1E+10	1
4902554	66	C	12/03/2022	15:01	-133.402	48.263	0	922.70	0	3.2080	0	34.3350	0	27.341	0	912.906	0	-1e10	8	-1e10	8	-1E+10	1	-1E+10	1	-1E+10	1	-1E+10	1	-1E+10	1	-1E+10	1
4902554	66	C	12/03/2022	15:01	-133.402	48.263	0	927.50	0	3.1960	0	34.3380	0	27.345	0	917.644	0	-1e10	8	-1e10	8	-1E+10	1	-1E+10	1	-1E+10	1	-1E+10	1	-1E+10	1	-1E+10	1
4902554	66	C	12/03/2022	15:01	-133.402	48.263	0	932.80	0	3.1800	0	34.3420	0	27.349	0	922.876	0	-1e10	8	-1e10	8	-1E+10	1	-1E+10	1	-1E+10	1	-1E+10	1	-1E+10	1	-1E+10	1
4902554	66	C	12/03/2022	15:01	-133.402	48.263	0	938.20	0	3.1720	0	34.3440	0	27.352	0	928.207	0	-1e10	8	-1e10	8	-1E+10	1	-1E+10	1	-1E+10	1	-1E+10	1	-1E+10	1	-1E+10	1
4902554	66	C	12/03/2022	15:01	-133.402	48.263	0	943.30	0	3.1690	0	34.3440	0	27.352	0	933.241	0	-1e10	8	-1e10	8	-1E+10	1	-1E+10	1	-1E+10	1	-1E+10	1	-1E+10	1	-1E+10	1
4902554	66	C	12/03/2022	15:01	-133.402	48.263	0	947.90	0	3.1620	0	34.3460	0	27.354	0	937.782	0	-1e10	8	-1e10	8	-1E+10	1	-1E+10	1	-1E+10	1	-1E+10	1	-1E+10	1	-1E+10	1
4902554	66	C	12/03/2022	15:01	-133.402	48.263	0	952.50	0	3.1500	0	34.3490	0	27.358	0	942.322	0	-1e10	8	-1e10	8	-1E+10	1	-1E+10	1	-1E+10	1	-1E+10	1	-1E+10	1	-1E+10	1
4902554	66	C	12/03/2022	15:01	-133.402	48.263	0	957.60	0	3.1400	0	34.3510	0	27.360	0	947.356	0	-1e10	8	-1e10	8	-1E+10	1	-1E+10	1	-1E+10	1	-1E+10	1	-1E+10	1	-1E+10	1
4902554	66	C	12/03/2022	15:01	-133.402	48.263	0	962.70	0	3.1280	0	34.3540	0	27.364	0	952.390	0	-1e10	8	-1e10	8	-1E+10	1	-1E+10	1	-1E+10	1	-1E+10	1	-1E+10	1	-1E+10	1
4902554	66	C	12/03/2022	15:01	-133.402	48.263	0	967.90	0	3.1230	0	34.3550	0	27.365	0	957.522	0	-1e10	8	-1e10	8	-1E+10	1	-1E+10	1	-1E+10	1	-1E+10	1	-1E+10	1	-1E+10	1
4902554	66	C	12/03/2022	15:01	-133.402	48.263	0	973.10	0	3.1170	0	34.3570	0	27.367	0	962.655	0	-1e10	8	-1e10	8	-1E+10	1	-1E+10	1	-1E+10	1	-1E+10	1	-1E+10	1	-1E+10	1
4902554	66	C	12/03/2022	15:01	-133.402	48.263	0	978.00	0	3.1090	0	34.3580	0	27.369	0	967.491	0	-1e10	8	-1e10	8	-1E+10	1	-1E+10	1	-1E+10	1	-1E+10	1	-1E+10	1	-1E+10	1
4902554	66	C	12/03/2022	15:01	-133.402	48.263	0	982.90	0	3.1040	0	34.3590	0	27.370	0	972.327	0	-1e10	8	-1e10	8	-1E+10	1	-1E+10	1	-1E+10	1	-1E+10	1	-1E+10	1	-1E+10	1
4902554	66	C	12/03/2022	15:01	-133.402	48.263	0	988.00	0	3.0970	0	34.3610	0	27.372	0	977.360	0	-1e10	8	-1e10	8	-1E+10	1	-1E+10	1	-1E+10	1	-1E+10	1	-1E+10	1	-1E+10	1
4902554	66	C	12/03/2022	15:01	-133.402	48.263	0	993.10	0	3.0900	0	34.3620	0	27.374	0	982.393	0	-1e10	8	-1e10	8	-1E+10	1	-1E+10	1	-1E+10	1	-1E+10	1	-1E+10	1	-1E+10	1
4902554	66	C	12/03/2022	15:01	-133.402	48.263	0	997.80	0	3.0820	0	34.3640	0	27.376	0	987.031	0	-1e10	8	-1e10	8	-1E+10	1	-1E+10	1	-1E+10	1	-1E+10	1	-1E+10	1	-1E+10	1
4902554	66	C	12/03/2022	15:01	-133.402	48.263	0	1005.40	0	3.0740	0	34.3660	0	27.379	0	994.531	0	-1e10	8	-1e10	8	-1E+10	1	-1E+10	1	-1E+10	1	-1E+10	1	-1E+10	1	-1E+10	1
4902554	66	C	12/03/2022	15:01	-133.402	48.263	0	1015.80	0	3.0510	0	34.3700	0	27.384	0	1004.794	0	-1e10	8	-1e10	8	-1E+10	1	-1E+10	1	-1E+10	1	-1E+10	1	-1E+10	1	-1E+10	1
4902554	66	C	12/03/2022	15:01	-133.402	48.263	0	1025.60	0	3.0340	0	34.3750	0	27.389	0	1014.464	0	-1e10	8	-1e10	8	-1E+10	1	-1E+10	1	-1E+10	1	-1E+10	1	-1E+10	1	-1E+10	1
4902554	66	C	12/03/2022	15:01	-133.402	48.263	0	1035.30	0	3.0220	0	34.3780	0	27.393	0	1024.035	0	-1e10	8	-1e10	8	-1E+10	1	-1E+10	1	-1E+10	1	-1E+10	1	-1E+10	1	-1E+10	1
4902554	66	C	12/03/2022	15:01	-133.402	48.263	0	1045.20	0	3.0050	0	34.3820	0	27.398	0	1033.803	0	-1e10	8	-1e10	8	-1E+10	1	-1E+10	1	-1E+10	1	-1E+10	1	-1E+10	1	-1E+10	1
4902554	66	C	12/03/2022	15:01	-133.402	48.263	0	1055.40	0	2.9850	0	34.3870	0	27.404	0	1043.867	0	-1e10	8	-1e10	8	-1E+10	1	-1E+10	1	-1E+10	1	-1E+10	1	-1E+10	1	-1E+10	1
4902554	66	C	12/03/2022	15:01	-133.402	48.263	0	1065.60	0	2.9650	0	34.3910	0	27.409	0	1053.929	0	-1e10	8	-1e10	8	-1E+10	1	-1E+10	1	-1E+10	1	-1E+10	1	-1E+10	1	-1E+10	1
4902554	66	C	12/03/2022	15:01	-133.402	48.263	0	1075.50	0	2.9500	0	34.3940	0	27.412	0	1063.696	0	-1e10	8	-1e10	8	-1E+10	1	-1E+10	1	-1E+10	1	-1E+10	1	-1E+10	1	-1E+10	1
4902554	66	C	12/03/2022	15:01	-133.402	48.263	0	1085.50	0	2.9330	0	34.3980	0	27.417	0	1073.561	0	-1e10	8	-1e10	8	-1E+10	1	-1E+10	1	-1E+10	1	-1E+10	1	-1E+10	1	-1E+10	1
4902554	66	C	12/03/2022	15:01	-133.402	48.263	0	1095.40	0	2.9220	0	34.4010	0	27.421	0	1083.326	0	-1e10	8	-1e10	8	-1E+10	1	-1E+10	1	-1E+10	1	-1E+10	1	-1E+10	1	-1E+10	1
4902554	66	C	12/03/2022	15:01	-133.402	48.263	0	1105.30	0	2.9050	0	34.4030	0	27.424	0	1093.091	0	-1e10	8	-1e10	8	-1E+10	1	-1E+10	1	-1E+10	1	-1E+10	1	-1E+10	1	-1E+10	1
4902554	66	C	12/03/2022	15:01	-133.402	48.263	0	1115.40	0	2.8900	0	34.4070	0	27.428	0	1103.053	0	-1e10	8	-1e10	8	-1E+10	1	-1E+10	1	-1E+10	1	-1E+10	1	-1E+10	1	-1E+10	1
4902554	66	C	12/03/2022	15:01	-133.402	48.263	0	1125.50	0	2.8630	0	34.4100	0	27.433	0	1113.015	0	-1e10	8	-1e10	8	-1E+10	1	-1E+10	1	-1E+10	1	-1E+10	1	-1E+10	1	-1E+10	1
4902554	66	C	12/03/2022	15:01	-133.402	48.263	0	1135.60	0	2.8380	0	34.4130	0	27.438	0	1122.976	0	-1e10	8	-1e10	8	-1E+10	1	-1E+10	1	-1E+10	1	-1E+10	1	-1E+10	1	-1E+10	1
4902554	66	C	12/03/2022	15:01	-133.402	48.263	0	1145.20	0	2.8200	0	34.4170	0	27.443	0	1132.443	0	-1e10	8	-1e10	8	-1E+10	1	-1E+10	1	-1E+10	1	-1E+10	1	-1E+10	1	-1E+10	1
4902554	66	C	12/03/2022	15:01	-133.402	48.263	0	1155.30	0	2.8110	0	34.4210	0	27.447	0	1142.403	0	-1e10	8	-1e10	8	-1E+10	1	-1E+10	1	-1E+10	1	-1E+10	1	-1E+10	1	-1E+10	1
4902554	66	C	12/03/2022	15:01	-133.402	48.263	0	1165.60	0	2.8050	0	34.4230	0	27.449	0	1152.560	0	-1e10	8	-1e10	8	-1E+10	1	-1E+10	1	-1E+10	1	-1E+10	1	-1E+10	1	-1E+10	1
4902554	66	C	12/03/2022	15:01	-133.402	48.263	0	1175.20	0	2.7980	0	34.4240	0	27.450	0	1162.026	0	-1e10	8	-1e10	8	-1E+10	1	-1E+10	1	-1E+10	1	-1E+10	1	-1E+10	1	-1E+10	1
4902554	66	C	12/03/2022	15:01	-133.402	48.263	0	1185.40	0	2.7810	0	34.4270	0	27.454	0	1172.083	0	-1e10	8	-1e10	8	-1E+10	1	-1E+10	1	-1E+10	1	-1E+10	1	-1E+10	1	-1E+10	1
4902554	66	C	12/03/2022	15:01	-133.402	48.263	0	1195.60	0	2.7730	0	34.4280	0	27.456	0	1182.140	0	-1e10	8	-1e10	8	-1E+10	1	-1E+10	1	-1E+10	1	-1E+10	1	-1E+10	1	-1E+10	1
4902554	66	C	12/03/2022	15:01	-133.402	48.263	0	1205.50	0	2.7620	0	34.4300	0	27.459	0	1191.900	0	-1e10	8	-1e10	8	-1E+10	1	-1E+10	1	-1E+10	1	-1E+10	1	-1E+10	1	-1E+10	1
4902554	66	C	12/03/2022	15:01	-133.402	48.263	0	1215.40	0	2.7460	0	34.4340	0	27.463	0	1201.661	0	-1e10	8	-1e10	8	-1E+10	1	-1E+10	1	-1E+10	1	-1E+10	1	-1E+10	1	-1E+10	1
4902554	66	C	12/03/2022	15:01	-133.402	48.263	0	1225.50	0	2.7330	0	34.4360	0	27.466	0	1211.617	0	-1e10	8	-1e10	8	-1E+10	1	-1E+10	1	-1E+10	1	-1E+10	1	-1E+10	1	-1E+10	1
4902554	66	C	12/03/2022	15:01	-133.402	48.263	0	1235.50	0	2.7260	0	34.4370	0	27.468	0	1221.475	0	-1e10	8	-1e10	8	-1E+10	1	-1E+10	1	-1E+10	1	-1E+10	1	-1E+10	1	-1E+10	1
4902554	66	C	12/03/2022	15:01	-133.402	48.263	0	1245.60	0	2.7120	0	34.4400	0	27.471	0	1231.431	0	-1e10	8	-1e10	8	-1E+10	1	-1E+10	1	-1E+10	1	-1E+10	1	-1E+10	1	-1E+10	1
4902554	66	C	12/03/2022	15:01	-133.402	48.263	0	1255.70	0	2.6970	0	34.4430	0	27.475	0	1241.386	0	-1e10	8	-1e10	8	-1E+10	1	-1E+10	1	-1E+10	1	-1E+10	1	-1E+10	1	-1E+10	1
4902554	66	C	12/03/2022	15:01	-133.402	48.263	0	1265.80	0	2.6820	0	34.4460	0	27.479	0	1251.341	0	-1e10	8	-1e10	8	-1E+10	1	-1E+10	1	-1E+10	1	-1E+10	1	-1E+10	1	-1E+10	1
4902554	66	C	12/03/2022	15:01	-133.402	48.263	0	1275.70	0	2.6590	0	34.4510	0	27.485	0	1261.098	0	-1e10	8	-1e10	8	-1E+10	1	-1E+10	1	-1E+10	1	-1E+10	1	-1E+10	1	-1E+10	1
4902554	66	C	12/03/2022	15:01	-133.402	48.263	0	1285.30	0	2.6390	0	34.4540	0	27.489	0	1270.559	0	-1e10	8	-1e10	8	-1E+10	1	-1E+10	1	-1E+10	1	-1E+10	1	-1E+10	1	-1E+10	1
4902554	66	C	12/03/2022	15:01	-133.402	48.263	0	1295.20	0	2.6200	0	34.4580	0	27.494	0	1280.316	0	-1e10	8	-1e10	8	-1E+10	1	-1E+10	1	-1E+10	1	-1E+10	1	-1E+10	1	-1E+10	1
4902554	66	C	12/03/2022	15:01	-133.402	48.263	0	1305.40	0	2.6010	0	34.4610	0	27.498	0	1290.367	0	-1e10	8	-1e10	8	-1E+10	1	-1E+10	1	-1E+10	1	-1E+10	1	-1E+10	1	-1E+10	1
4902554	66	C	12/03/2022	15:01	-133.402	48.263	0	1315.50	0	2.5830	0	34.4650	0	27.503	0	1300.320	0	-1e10	8	-1e10	8	-1E+10	1	-1E+10	1	-1E+10	1	-1E+10	1	-1E+10	1	-1E+10	1
4902554	66	C	12/03/2022	15:01	-133.402	48.263	0	1325.40	0	2.5690	0	34.4680	0	27.506	0	1310.075	0	-1e10	8	-1e10	8	-1E+10	1	-1E+10	1	-1E+10	1	-1E+10	1	-1E+10	1	-1E+10	1
4902554	66	C	12/03/2022	15:01	-133.402	48.263	0	1335.70	0	2.5490	0	34.4710	0	27.510	0	1320.224	0	-1e10	8	-1e10	8	-1E+10	1	-1E+10	1	-1E+10	1	-1E+10	1	-1E+10	1	-1E+10	1
4902554	66	C	12/03/2022	15:01	-133.402	48.263	0	1345.40	0	2.5360	0	34.4740	0	27.514	0	1329.781	0	-1e10	8	-1e10	8	-1E+10	1	-1E+10	1	-1E+10	1	-1E+10	1	-1E+10	1	-1E+10	1
4902554	66	C	12/03/2022	15:01	-133.402	48.263	0	1355.30	0	2.5290	0	34.4750	0	27.515	0	1339.534	0	-1e10	8	-1e10	8	-1E+10	1	-1E+10	1	-1E+10	1	-1E+10	1	-1E+10	1	-1E+10	1
4902554	66	C	12/03/2022	15:01	-133.402	48.263	0	1365.40	0	2.5180	0	34.4770	0	27.518	0	1349.484	0	-1e10	8	-1e10	8	-1E+10	1	-1E+10	1	-1E+10	1	-1E+10	1	-1E+10	1	-1E+10	1
4902554	66	C	12/03/2022	15:01	-133.402	48.263	0	1375.40	0	2.5060	0	34.4790	0	27.521	0	1359.336	0	-1e10	8	-1e10	8	-1E+10	1	-1E+10	1	-1E+10	1	-1E+10	1	-1E+10	1	-1E+10	1
4902554	66	C	12/03/2022	15:01	-133.402	48.263	0	1385.20	0	2.4900	0	34.4820	0	27.524	0	1368.989	0	-1e10	8	-1e10	8	-1E+10	1	-1E+10	1	-1E+10	1	-1E+10	1	-1E+10	1	-1E+10	1
4902554	66	C	12/03/2022	15:01	-133.402	48.263	0	1395.30	0	2.4730	0	34.4850	0	27.528	0	1378.938	0	-1e10	8	-1e10	8	-1E+10	1	-1E+10	1	-1E+10	1	-1E+10	1	-1E+10	1	-1E+10	1
4902554	66	C	12/03/2022	15:01	-133.402	48.263	0	1405.30	0	2.4540	0	34.4890	0	27.533	0	1388.788	0	-1e10	8	-1e10	8	-1E+10	1	-1E+10	1	-1E+10	1	-1E+10	1	-1E+10	1	-1E+10	1
4902554	66	C	12/03/2022	15:01	-133.402	48.263	0	1415.10	0	2.4510	0	34.4890	0	27.533	0	1398.440	0	-1e10	8	-1e10	8	-1E+10	1	-1E+10	1	-1E+10	1	-1E+10	1	-1E+10	1	-1E+10	1
4902554	66	C	12/03/2022	15:01	-133.402	48.263	0	1425.40	0	2.4430	0	34.4910	0	27.536	0	1408.585	0	-1e10	8	-1e10	8	-1E+10	1	-1E+10	1	-1E+10	1	-1E+10	1	-1E+10	1	-1E+10	1
4902554	66	C	12/03/2022	15:01	-133.402	48.263	0	1435.30	0	2.4330	0	34.4920	0	27.537	0	1418.335	0	-1e10	8	-1e10	8	-1E+10	1	-1E+10	1	-1E+10	1	-1E+10	1	-1E+10	1	-1E+10	1
4902554	66	C	12/03/2022	15:01	-133.402	48.263	0	1445.10	0	2.4230	0	34.4940	0	27.540	0	1427.986	0	-1e10	8	-1e10	8	-1E+10	1	-1E+10	1	-1E+10	1	-1E+10	1	-1E+10	1	-1E+10	1
4902554	66	C	12/03/2022	15:01	-133.402	48.263	0	1455.30	0	2.4130	0	34.4960	0	27.542	0	1438.030	0	-1e10	8	-1e10	8	-1E+10	1	-1E+10	1	-1E+10	1	-1E+10	1	-1E+10	1	-1E+10	1
4902554	66	C	12/03/2022	15:01	-133.402	48.263	0	1465.70	0	2.4010	0	34.4990	0	27.546	0	1448.271	0	-1e10	8	-1e10	8	-1E+10	1	-1E+10	1	-1E+10	1	-1E+10	1	-1E+10	1	-1E+10	1
4902554	66	C	12/03/2022	15:01	-133.402	48.263	0	1475.70	0	2.3820	0	34.5020	0	27.550	0	1458.118	0	-1e10	8	-1e10	8	-1E+10	1	-1E+10	1	-1E+10	1	-1E+10	1	-1E+10	1	-1E+10	1
4902554	66	C	12/03/2022	15:01	-133.402	48.263	0	1485.30	0	2.3660	0	34.5050	0	27.554	0	1467.570	0	-1e10	8	-1e10	8	-1E+10	1	-1E+10	1	-1E+10	1	-1E+10	1	-1E+10	1	-1E+10	1
4902554	66	C	12/03/2022	15:01	-133.402	48.263	0	1495.50	0	2.3500	0	34.5080	0	27.557	0	1477.613	0	-1e10	8	-1e10	8	-1E+10	1	-1E+10	1	-1E+10	1	-1E+10	1	-1E+10	1	-1E+10	1
4902554	66	C	12/03/2022	15:01	-133.402	48.263	0	1505.60	0	2.3410	0	34.5100	0	27.560	0	1487.556	0	-1e10	8	-1e10	8	-1E+10	1	-1E+10	1	-1E+10	1	-1E+10	1	-1E+10	1	-1E+10	1
4902554	66	C	12/03/2022	15:01	-133.402	48.263	0	1515.50	0	2.3320	0	34.5110	0	27.561	0	1497.303	0	-1e10	8	-1e10	8	-1E+10	1	-1E+10	1	-1E+10	1	-1E+10	1	-1E+10	1	-1E+10	1
4902554	66	C	12/03/2022	15:01	-133.402	48.263	0	1525.40	0	2.3250	0	34.5130	0	27.564	0	1507.049	0	-1e10	8	-1e10	8	-1E+10	1	-1E+10	1	-1E+10	1	-1E+10	1	-1E+10	1	-1E+10	1
4902554	66	C	12/03/2022	15:01	-133.402	48.263	0	1535.50	0	2.3140	0	34.5150	0	27.566	0	1516.991	0	-1e10	8	-1e10	8	-1E+10	1	-1E+10	1	-1E+10	1	-1E+10	1	-1E+10	1	-1E+10	1
4902554	66	C	12/03/2022	15:01	-133.402	48.263	0	1545.30	0	2.3060	0	34.5160	0	27.568	0	1526.637	0	-1e10	8	-1e10	8	-1E+10	1	-1E+10	1	-1E+10	1	-1E+10	1	-1E+10	1	-1E+10	1
4902554	66	C	12/03/2022	15:01	-133.402	48.263	0	1555.20	0	2.2970	0	34.5180	0	27.570	0	1536.382	0	-1e10	8	-1e10	8	-1E+10	1	-1E+10	1	-1E+10	1	-1E+10	1	-1E+10	1	-1E+10	1
4902554	66	C	12/03/2022	15:01	-133.402	48.263	0	1565.30	0	2.2820	0	34.5200	0	27.573	0	1546.323	0	-1e10	8	-1e10	8	-1E+10	1	-1E+10	1	-1E+10	1	-1E+10	1	-1E+10	1	-1E+10	1
4902554	66	C	12/03/2022	15:01	-133.402	48.263	0	1575.40	0	2.2690	0	34.5230	0	27.576	0	1556.263	0	-1e10	8	-1e10	8	-1E+10	1	-1E+10	1	-1E+10	1	-1E+10	1	-1E+10	1	-1E+10	1
4902554	66	C	12/03/2022	15:01	-133.402	48.263	0	1585.40	0	2.2600	0	34.5250	0	27.579	0	1566.105	0	-1e10	8	-1e10	8	-1E+10	1	-1E+10	1	-1E+10	1	-1E+10	1	-1E+10	1	-1E+10	1
4902554	66	C	12/03/2022	15:01	-133.402	48.263	0	1595.50	0	2.2510	0	34.5260	0	27.580	0	1576.044	0	-1e10	8	-1e10	8	-1E+10	1	-1E+10	1	-1E+10	1	-1E+10	1	-1E+10	1	-1E+10	1
4902554	66	C	12/03/2022	15:01	-133.402	48.263	0	1605.70	0	2.2380	0	34.5290	0	27.584	0	1586.082	0	-1e10	8	-1e10	8	-1E+10	1	-1E+10	1	-1E+10	1	-1E+10	1	-1E+10	1	-1E+10	1
4902554	66	C	12/03/2022	15:01	-133.402	48.263	0	1615.80	0	2.2300	0	34.5300	0	27.585	0	1596.020	0	-1e10	8	-1e10	8	-1E+10	1	-1E+10	1	-1E+10	1	-1E+10	1	-1E+10	1	-1E+10	1
4902554	66	C	12/03/2022	15:01	-133.402	48.263	0	1625.80	0	2.2170	0	34.5330	0	27.589	0	1605.860	0	-1e10	8	-1e10	8	-1E+10	1	-1E+10	1	-1E+10	1	-1E+10	1	-1E+10	1	-1E+10	1
4902554	66	C	12/03/2022	15:01	-133.402	48.263	0	1635.60	0	2.2100	0	34.5340	0	27.590	0	1615.502	0	-1e10	8	-1e10	8	-1E+10	1	-1E+10	1	-1E+10	1	-1E+10	1	-1E+10	1	-1E+10	1
4902554	66	C	12/03/2022	15:01	-133.402	48.263	0	1645.40	0	2.2010	0	34.5360	0	27.593	0	1625.144	0	-1e10	8	-1e10	8	-1E+10	1	-1E+10	1	-1E+10	1	-1E+10	1	-1E+10	1	-1E+10	1
4902554	66	C	12/03/2022	15:01	-133.402	48.263	0	1655.10	0	2.1930	0	34.5370	0	27.594	0	1634.688	0	-1e10	8	-1e10	8	-1E+10	1	-1E+10	1	-1E+10	1	-1E+10	1	-1E+10	1	-1E+10	1
4902554	66	C	12/03/2022	15:01	-133.402	48.263	0	1665.30	0	2.1860	0	34.5390	0	27.596	0	1644.722	0	-1e10	8	-1e10	8	-1E+10	1	-1E+10	1	-1E+10	1	-1E+10	1	-1E+10	1	-1E+10	1
4902554	66	C	12/03/2022	15:01	-133.402	48.263	0	1675.40	0	2.1750	0	34.5410	0	27.599	0	1654.658	0	-1e10	8	-1e10	8	-1E+10	1	-1E+10	1	-1E+10	1	-1E+10	1	-1E+10	1	-1E+10	1
4902554	66	C	12/03/2022	15:01	-133.402	48.263	0	1685.10	0	2.1660	0	34.5430	0	27.601	0	1664.200	0	-1e10	8	-1e10	8	-1E+10	1	-1E+10	1	-1E+10	1	-1E+10	1	-1E+10	1	-1E+10	1
4902554	66	C	12/03/2022	15:01	-133.402	48.263	0	1695.10	0	2.1580	0	34.5440	0	27.603	0	1674.036	0	-1e10	8	-1e10	8	-1E+10	1	-1E+10	1	-1E+10	1	-1E+10	1	-1E+10	1	-1E+10	1
4902554	66	C	12/03/2022	15:01	-133.402	48.263	0	1705.30	0	2.1460	0	34.5460	0	27.605	0	1684.069	0	-1e10	8	-1e10	8	-1E+10	1	-1E+10	1	-1E+10	1	-1E+10	1	-1E+10	1	-1E+10	1
4902554	66	C	12/03/2022	15:01	-133.402	48.263	0	1715.30	0	2.1330	0	34.5490	0	27.609	0	1693.905	0	-1e10	8	-1e10	8	-1E+10	1	-1E+10	1	-1E+10	1	-1E+10	1	-1E+10	1	-1E+10	1
4902554	66	C	12/03/2022	15:01	-133.402	48.263	0	1725.40	0	2.1240	0	34.5500	0	27.610	0	1703.838	0	-1e10	8	-1e10	8	-1E+10	1	-1E+10	1	-1E+10	1	-1E+10	1	-1E+10	1	-1E+10	1
4902554	66	C	12/03/2022	15:01	-133.402	48.263	0	1735.40	0	2.1150	0	34.5520	0	27.613	0	1713.673	0	-1e10	8	-1e10	8	-1E+10	1	-1E+10	1	-1E+10	1	-1E+10	1	-1E+10	1	-1E+10	1
4902554	66	C	12/03/2022	15:01	-133.402	48.263	0	1745.30	0	2.1060	0	34.5540	0	27.615	0	1723.409	0	-1e10	8	-1e10	8	-1E+10	1	-1E+10	1	-1E+10	1	-1E+10	1	-1E+10	1	-1E+10	1
4902554	66	C	12/03/2022	15:01	-133.402	48.263	0	1755.70	0	2.1000	0	34.5550	0	27.617	0	1733.636	0	-1e10	8	-1e10	8	-1E+10	1	-1E+10	1	-1E+10	1	-1E+10	1	-1E+10	1	-1E+10	1
4902554	66	C	12/03/2022	15:01	-133.402	48.263	0	1765.50	0	2.0880	0	34.5580	0	27.620	0	1743.273	0	-1e10	8	-1e10	8	-1E+10	1	-1E+10	1	-1E+10	1	-1E+10	1	-1E+10	1	-1E+10	1
4902554	66	C	12/03/2022	15:01	-133.402	48.263	0	1775.40	0	2.0740	0	34.5600	0	27.623	0	1753.007	0	-1e10	8	-1e10	8	-1E+10	1	-1E+10	1	-1E+10	1	-1E+10	1	-1E+10	1	-1E+10	1
4902554	66	C	12/03/2022	15:01	-133.402	48.263	0	1785.20	0	2.0660	0	34.5620	0	27.625	0	1762.643	0	-1e10	8	-1e10	8	-1E+10	1	-1E+10	1	-1E+10	1	-1E+10	1	-1E+10	1	-1E+10	1
4902554	66	C	12/03/2022	15:01	-133.402	48.263	0	1795.00	0	2.0540	0	34.5640	0	27.628	0	1772.278	0	-1e10	8	-1e10	8	-1E+10	1	-1E+10	1	-1E+10	1	-1E+10	1	-1E+10	1	-1E+10	1
4902554	66	C	12/03/2022	15:01	-133.402	48.263	0	1805.20	0	2.0480	0	34.5650	0	27.629	0	1782.306	0	-1e10	8	-1e10	8	-1E+10	1	-1E+10	1	-1E+10	1	-1E+10	1	-1E+10	1	-1E+10	1
4902554	66	C	12/03/2022	15:01	-133.402	48.263	0	1815.10	0	2.0430	0	34.5660	0	27.630	0	1792.039	0	-1e10	8	-1e10	8	-1E+10	1	-1E+10	1	-1E+10	1	-1E+10	1	-1E+10	1	-1E+10	1
4902554	66	C	12/03/2022	15:01	-133.402	48.263	0	1825.40	0	2.0360	0	34.5680	0	27.632	0	1802.165	0	-1e10	8	-1e10	8	-1E+10	1	-1E+10	1	-1E+10	1	-1E+10	1	-1E+10	1	-1E+10	1
4902554	66	C	12/03/2022	15:01	-133.402	48.263	0	1835.40	0	2.0280	0	34.5690	0	27.634	0	1811.995	0	-1e10	8	-1e10	8	-1E+10	1	-1E+10	1	-1E+10	1	-1E+10	1	-1E+10	1	-1E+10	1
4902554	66	C	12/03/2022	15:01	-133.402	48.263	0	1845.00	0	2.0190	0	34.5710	0	27.636	0	1821.431	0	-1e10	8	-1e10	8	-1E+10	1	-1E+10	1	-1E+10	1	-1E+10	1	-1E+10	1	-1E+10	1
4902554	66	C	12/03/2022	15:01	-133.402	48.263	0	1855.10	0	2.0150	0	34.5720	0	27.637	0	1831.359	0	-1e10	8	-1e10	8	-1E+10	1	-1E+10	1	-1E+10	1	-1E+10	1	-1E+10	1	-1E+10	1
4902554	66	C	12/03/2022	15:01	-133.402	48.263	0	1865.20	0	2.0070	0	34.5740	0	27.640	0	1841.286	0	-1e10	8	-1e10	8	-1E+10	1	-1E+10	1	-1E+10	1	-1E+10	1	-1E+10	1	-1E+10	1
4902554	66	C	12/03/2022	15:01	-133.402	48.263	0	1875.40	0	2.0010	0	34.5750	0	27.641	0	1851.310	0	-1e10	8	-1e10	8	-1E+10	1	-1E+10	1	-1E+10	1	-1E+10	1	-1E+10	1	-1E+10	1
4902554	66	C	12/03/2022	15:01	-133.402	48.263	0	1885.20	0	1.9920	0	34.5760	0	27.643	0	1860.942	0	-1e10	8	-1e10	8	-1E+10	1	-1E+10	1	-1E+10	1	-1E+10	1	-1E+10	1	-1E+10	1
4902554	66	C	12/03/2022	15:01	-133.402	48.263	0	1895.30	0	1.9880	0	34.5780	0	27.645	0	1870.867	0	-1e10	8	-1e10	8	-1E+10	1	-1E+10	1	-1E+10	1	-1E+10	1	-1E+10	1	-1E+10	1
4902554	66	C	12/03/2022	15:01	-133.402	48.263	0	1905.30	0	1.9830	0	34.5790	0	27.646	0	1880.694	0	-1e10	8	-1e10	8	-1E+10	1	-1E+10	1	-1E+10	1	-1E+10	1	-1E+10	1	-1E+10	1
4902554	66	C	12/03/2022	15:01	-133.402	48.263	0	1915.70	0	1.9760	0	34.5800	0	27.647	0	1890.914	0	-1e10	8	-1e10	8	-1E+10	1	-1E+10	1	-1E+10	1	-1E+10	1	-1E+10	1	-1E+10	1
4902554	66	C	12/03/2022	15:01	-133.402	48.263	0	1925.80	0	1.9730	0	34.5820	0	27.649	0	1900.838	0	-1e10	8	-1e10	8	-1E+10	1	-1E+10	1	-1E+10	1	-1E+10	1	-1E+10	1	-1E+10	1
4902554	66	C	12/03/2022	15:01	-133.402	48.263	0	1935.60	0	1.9680	0	34.5830	0	27.650	0	1910.467	0	-1e10	8	-1e10	8	-1E+10	1	-1E+10	1	-1E+10	1	-1E+10	1	-1E+10	1	-1E+10	1
4902554	66	C	12/03/2022	15:01	-133.402	48.263	0	1945.50	0	1.9610	0	34.5840	0	27.652	0	1920.194	0	-1e10	8	-1e10	8	-1E+10	1	-1E+10	1	-1E+10	1	-1E+10	1	-1E+10	1	-1E+10	1
4902554	66	C	12/03/2022	15:01	-133.402	48.263	0	1955.70	0	1.9540	0	34.5850	0	27.653	0	1930.215	0	-1e10	8	-1e10	8	-1E+10	1	-1E+10	1	-1E+10	1	-1E+10	1	-1E+10	1	-1E+10	1
4902554	66	C	12/03/2022	15:01	-133.402	48.263	0	1965.60	0	1.9470	0	34.5870	0	27.655	0	1939.941	0	-1e10	8	-1e10	8	-1E+10	1	-1E+10	1	-1E+10	1	-1E+10	1	-1E+10	1	-1E+10	1
4902554	66	C	12/03/2022	15:01	-133.402	48.263	0	1975.30	0	1.9410	0	34.5880	0	27.657	0	1949.470	0	-1e10	8	-1e10	8	-1E+10	1	-1E+10	1	-1E+10	1	-1E+10	1	-1E+10	1	-1E+10	1
4902554	66	C	12/03/2022	15:01	-133.402	48.263	0	1985.20	0	1.9370	0	34.5890	0	27.658	0	1959.195	0	-1e10	8	-1e10	8	-1E+10	1	-1E+10	1	-1E+10	1	-1E+10	1	-1E+10	1	-1E+10	1
4902554	66	C	12/03/2022	15:01	-133.402	48.263	0	1995.40	0	1.9330	0	34.5900	0	27.659	0	1969.214	0	-1e10	8	-1e10	8	-1E+10	1	-1E+10	1	-1E+10	1	-1E+10	1	-1E+10	1	-1E+10	1
4902554	66	C	12/03/2022	15:01	-133.402	48.263	0	2005.80	0	1.9250	0	34.5900	0	27.660	0	1979.430	0	-1e10	8	-1e10	8	-1E+10	1	-1E+10	1	-1E+10	1	-1E+10	1	-1E+10	1	-1E+10	1
4902554	66	C	12/03/2022	15:01	-133.402	48.263	0	2015.70	0	1.9220	0	34.5910	0	27.661	0	1989.153	0	-1e10	8	-1e10	8	-1E+10	1	-1E+10	1	-1E+10	1	-1E+10	1	-1E+10	1	-1E+10	1
4902554	66	C	12/03/2022	15:01	-133.402	48.263	0	2022.90	0	1.9200	0	34.5920	0	27.662	0	1996.225	0	-1e10	8	-1e10	8	-1E+10	1	-1E+10	1	-1E+10	1	-1E+10	1	-1E+10	1	-1E+10	1
4902554	66	C	12/03/2022	15:01	-133.402	48.263	0																										
4902554	67	C	12/13/2022	20:05	-133.287	48.220	0	2.90	0	9.6300	0	32.3250	0	24.925	0	2.876	0	-1e10	8	-1e10	8	-1E+10	1	-1E+10	1	-1E+10	1	-1E+10	1	-1E+10	1	-1E+10	1
4902554	67	C	12/13/2022	20:05	-133.287	48.220	0	3.20	0	9.6310	0	32.3250	0	24.925	0	3.173	0	-1e10	8	-1e10	8	-1E+10	1	-1E+10	1	-1E+10	1	-1E+10	1	-1E+10	1	-1E+10	1
4902554	67	C	12/13/2022	20:05	-133.287	48.220	0	3.50	0	9.6290	0	32.3260	0	24.926	0	3.471	0	-1e10	8	-1e10	8	-1E+10	1	-1E+10	1	-1E+10	1	-1E+10	1	-1E+10	1	-1E+10	1
4902554	67	C	12/13/2022	20:05	-133.287	48.220	0	3.70	0	9.6280	0	32.3290	0	24.928	0	3.669	0	-1e10	8	-1e10	8	-1E+10	1	-1E+10	1	-1E+10	1	-1E+10	1	-1E+10	1	-1E+10	1
4902554	67	C	12/13/2022	20:05	-133.287	48.220	0	4.40	0	9.6300	0	32.3280	0	24.927	0	4.363	0	-1e10	8	-1e10	8	-1E+10	1	-1E+10	1	-1E+10	1	-1E+10	1	-1E+10	1	-1E+10	1
4902554	67	C	12/13/2022	20:05	-133.287	48.220	0	5.10	0	9.6310	0	32.3290	0	24.928	0	5.057	0	-1e10	8	-1e10	8	-1E+10	1	-1E+10	1	-1E+10	1	-1E+10	1	-1E+10	1	-1E+10	1
4902554	67	C	12/13/2022	20:05	-133.287	48.220	0	5.90	0	9.6300	0	32.3290	0	24.928	0	5.850	0	-1e10	8	-1e10	8	-1E+10	1	-1E+10	1	-1E+10	1	-1E+10	1	-1E+10	1	-1E+10	1
4902554	67	C	12/13/2022	20:05	-133.287	48.220	0	7.00	0	9.6310	0	32.3290	0	24.928	0	6.941	0	-1e10	8	-1e10	8	-1E+10	1	-1E+10	1	-1E+10	1	-1E+10	1	-1E+10	1	-1E+10	1
4902554	67	C	12/13/2022	20:05	-133.287	48.220	0	8.00	0	9.6300	0	32.3290	0	24.928	0	7.933	0	-1e10	8	-1e10	8	-1E+10	1	-1E+10	1	-1E+10	1	-1E+10	1	-1E+10	1	-1E+10	1
4902554	67	C	12/13/2022	20:05	-133.287	48.220	0	8.80	0	9.6320	0	32.3300	0	24.928	0	8.726	0	-1e10	8	-1e10	8	-1E+10	1	-1E+10	1	-1E+10	1	-1E+10	1	-1E+10	1	-1E+10	1
4902554	67	C	12/13/2022	20:05	-133.287	48.220	0	9.80	0	9.6320	0	32.3300	0	24.928	0	9.717	0	-1e10	8	-1e10	8	-1E+10	1	-1E+10	1	-1E+10	1	-1E+10	1	-1E+10	1	-1E+10	1
4902554	67	C	12/13/2022	20:05	-133.287	48.220	0	10.90	0	9.6330	0	32.3290	0	24.928	0	10.808	0	-1e10	8	-1e10	8	-1E+10	1	-1E+10	1	-1E+10	1	-1E+10	1	-1E+10	1	-1E+10	1
4902554	67	C	12/13/2022	20:05	-133.287	48.220	0	12.00	0	9.6340	0	32.3300	0	24.928	0	11.899	0	-1e10	8	-1e10	8	-1E+10	1	-1E+10	1	-1E+10	1	-1E+10	1	-1E+10	1	-1E+10	1
4902554	67	C	12/13/2022	20:05	-133.287	48.220	0	12.90	0	9.6340	0	32.3300	0	24.928	0	12.791	0	-1e10	8	-1e10	8	-1E+10	1	-1E+10	1	-1E+10	1	-1E+10	1	-1E+10	1	-1E+10	1
4902554	67	C	12/13/2022	20:05	-133.287	48.220	0	13.80	0	9.6340	0	32.3300	0	24.928	0	13.683	0	-1e10	8	-1e10	8	-1E+10	1	-1E+10	1	-1E+10	1	-1E+10	1	-1E+10	1	-1E+10	1
4902554	67	C	12/13/2022	20:05	-133.287	48.220	0	15.00	0	9.6340	0	32.3310	0	24.929	0	14.873	0	-1e10	8	-1e10	8	-1E+10	1	-1E+10	1	-1E+10	1	-1E+10	1	-1E+10	1	-1E+10	1
4902554	67	C	12/13/2022	20:05	-133.287	48.220	0	15.90	0	9.6350	0	32.3310	0	24.929	0	15.766	0	-1e10	8	-1e10	8	-1E+10	1	-1E+10	1	-1E+10	1	-1E+10	1	-1E+10	1	-1E+10	1
4902554	67	C	12/13/2022	20:05	-133.287	48.220	0	16.90	0	9.6350	0	32.3330	0	24.930	0	16.757	0	-1e10	8	-1e10	8	-1E+10	1	-1E+10	1	-1E+10	1	-1E+10	1	-1E+10	1	-1E+10	1
4902554	67	C	12/13/2022	20:05	-133.287	48.220	0	17.90	0	9.6350	0	32.3340	0	24.931	0	17.749	0	-1e10	8	-1e10	8	-1E+10	1	-1E+10	1	-1E+10	1	-1E+10	1	-1E+10	1	-1E+10	1
4902554	67	C	12/13/2022	20:05	-133.287	48.220	0	18.80	0	9.6350	0	32.3330	0	24.930	0	18.641	0	-1e10	8	-1e10	8	-1E+10	1	-1E+10	1	-1E+10	1	-1E+10	1	-1E+10	1	-1E+10	1
4902554	67	C	12/13/2022	20:05	-133.287	48.220	0	20.00	0	9.6360	0	32.3330	0	24.930	0	19.831	0	-1e10	8	-1e10	8	-1E+10	1	-1E+10	1	-1E+10	1	-1E+10	1	-1E+10	1	-1E+10	1
4902554	67	C	12/13/2022	20:05	-133.287	48.220	0	21.00	0	9.6360	0	32.3330	0	24.930	0	20.822	0	-1e10	8	-1e10	8	-1E+10	1	-1E+10	1	-1E+10	1	-1E+10	1	-1E+10	1	-1E+10	1
4902554	67	C	12/13/2022	20:05	-133.287	48.220	0	22.10	0	9.6360	0	32.3330	0	24.930	0	21.913	0	-1e10	8	-1e10	8	-1E+10	1	-1E+10	1	-1E+10	1	-1E+10	1	-1E+10	1	-1E+10	1
4902554	67	C	12/13/2022	20:05	-133.287	48.220	0	23.10	0	9.6360	0	32.3330	0	24.930	0	22.904	0	-1e10	8	-1e10	8	-1E+10	1	-1E+10	1	-1E+10	1	-1E+10	1	-1E+10	1	-1E+10	1
4902554	67	C	12/13/2022	20:05	-133.287	48.220	0	24.10	0	9.6360	0	32.3340	0	24.931	0	23.896	0	-1e10	8	-1e10	8	-1E+10	1	-1E+10	1	-1E+10	1	-1E+10	1	-1E+10	1	-1E+10	1
4902554	67	C	12/13/2022	20:05	-133.287	48.220	0	25.00	0	9.6360	0	32.3350	0	24.932	0	24.788	0	-1e10	8	-1e10	8	-1E+10	1	-1E+10	1	-1E+10	1	-1E+10	1	-1E+10	1	-1E+10	1
4902554	67	C	12/13/2022	20:05	-133.287	48.220	0	25.70	0	9.6360	0	32.3340	0	24.931	0	25.482	0	-1e10	8	-1e10	8	-1E+10	1	-1E+10	1	-1E+10	1	-1E+10	1	-1E+10	1	-1E+10	1
4902554	67	C	12/13/2022	20:05	-133.287	48.220	0	26.80	0	9.6360	0	32.3350	0	24.932	0	26.573	0	-1e10	8	-1e10	8	-1E+10	1	-1E+10	1	-1E+10	1	-1E+10	1	-1E+10	1	-1E+10	1
4902554	67	C	12/13/2022	20:05	-133.287	48.220	0	28.00	0	9.6360	0	32.3340	0	24.931	0	27.763	0	-1e10	8	-1e10	8	-1E+10	1	-1E+10	1	-1E+10	1	-1E+10	1	-1E+10	1	-1E+10	1
4902554	67	C	12/13/2022	20:05	-133.287	48.220	0	28.90	0	9.6360	0	32.3350	0	24.932	0	28.655	0	-1e10	8	-1e10	8	-1E+10	1	-1E+10	1	-1E+10	1	-1E+10	1	-1E+10	1	-1E+10	1
4902554	67	C	12/13/2022	20:05	-133.287	48.220	0	29.80	0	9.6360	0	32.3350	0	24.932	0	29.547	0	-1e10	8	-1e10	8	-1E+10	1	-1E+10	1	-1E+10	1	-1E+10	1	-1E+10	1	-1E+10	1
4902554	67	C	12/13/2022	20:05	-133.287	48.220	0	31.00	0	9.6360	0	32.3350	0	24.932	0	30.737	0	-1e10	8	-1e10	8	-1E+10	1	-1E+10	1	-1E+10	1	-1E+10	1	-1E+10	1	-1E+10	1
4902554	67	C	12/13/2022	20:05	-133.287	48.220	0	31.90	0	9.6360	0	32.3350	0	24.932	0	31.629	0	-1e10	8	-1e10	8	-1E+10	1	-1E+10	1	-1E+10	1	-1E+10	1	-1E+10	1	-1E+10	1
4902554	67	C	12/13/2022	20:05	-133.287	48.220	0	32.80	0	9.6360	0	32.3350	0	24.932	0	32.522	0	-1e10	8	-1e10	8	-1E+10	1	-1E+10	1	-1E+10	1	-1E+10	1	-1E+10	1	-1E+10	1
4902554	67	C	12/13/2022	20:05	-133.287	48.220	0	34.10	0	9.6360	0	32.3360	0	24.933	0	33.810	0	-1e10	8	-1e10	8	-1E+10	1	-1E+10	1	-1E+10	1	-1E+10	1	-1E+10	1	-1E+10	1
4902554	67	C	12/13/2022	20:05	-133.287	48.220	0	35.00	0	9.6360	0	32.3360	0	24.933	0	34.703	0	-1e10	8	-1e10	8	-1E+10	1	-1E+10	1	-1E+10	1	-1E+10	1	-1E+10	1	-1E+10	1
4902554	67	C	12/13/2022	20:05	-133.287	48.220	0	35.90	0	9.6370	0	32.3350	0	24.932	0	35.595	0	-1e10	8	-1e10	8	-1E+10	1	-1E+10	1	-1E+10	1	-1E+10	1	-1E+10	1	-1E+10	1
4902554	67	C	12/13/2022	20:05	-133.287	48.220	0	36.90	0	9.6360	0	32.3380	0	24.935	0	36.586	0	-1e10	8	-1e10	8	-1E+10	1	-1E+10	1	-1E+10	1	-1E+10	1	-1E+10	1	-1E+10	1
4902554	67	C	12/13/2022	20:05	-133.287	48.220	0	37.80	0	9.6350	0	32.3390	0	24.935	0	37.479	0	-1e10	8	-1e10	8	-1E+10	1	-1E+10	1	-1E+10	1	-1E+10	1	-1E+10	1	-1E+10	1
4902554	67	C	12/13/2022	20:05	-133.287	48.220	0	39.00	0	9.6350	0	32.3380	0	24.935	0	38.668	0	-1e10	8	-1e10	8	-1E+10	1	-1E+10	1	-1E+10	1	-1E+10	1	-1E+10	1	-1E+10	1
4902554	67	C	12/13/2022	20:05	-133.287	48.220	0	39.90	0	9.6350	0	32.3390	0	24.936	0	39.561	0	-1e10	8	-1e10	8	-1E+10	1	-1E+10	1	-1E+10	1	-1E+10	1	-1E+10	1	-1E+10	1
4902554	67	C	12/13/2022	20:05	-133.287	48.220	0	40.80	0	9.6340	0	32.3390	0	24.936	0	40.453	0	-1e10	8	-1e10	8	-1E+10	1	-1E+10	1	-1E+10	1	-1E+10	1	-1E+10	1	-1E+10	1
4902554	67	C	12/13/2022	20:05	-133.287	48.220	0	42.00	0	9.6340	0	32.3400	0	24.937	0	41.642	0	-1e10	8	-1e10	8	-1E+10	1	-1E+10	1	-1E+10	1	-1E+10	1	-1E+10	1	-1E+10	1
4902554	67	C	12/13/2022	20:05	-133.287	48.220	0	43.00	0	9.6340	0	32.3390	0	24.936	0	42.634	0	-1e10	8	-1e10	8	-1E+10	1	-1E+10	1	-1E+10	1	-1E+10	1	-1E+10	1	-1E+10	1
4902554	67	C	12/13/2022	20:05	-133.287	48.220	0	43.90	0	9.6340	0	32.3390	0	24.936	0	43.526	0	-1e10	8	-1e10	8	-1E+10	1	-1E+10	1	-1E+10	1	-1E+10	1	-1E+10	1	-1E+10	1
4902554	67	C	12/13/2022	20:05	-133.287	48.220	0	45.10	0	9.6320	0	32.3390	0	24.936	0	44.716	0	-1e10	8	-1e10	8	-1E+10	1	-1E+10	1	-1E+10	1	-1E+10	1	-1E+10	1	-1E+10	1
4902554	67	C	12/13/2022	20:05	-133.287	48.220	0	46.10	0	9.6340	0	32.3390	0	24.936	0	45.707	0	-1e10	8	-1e10	8	-1E+10	1	-1E+10	1	-1E+10	1	-1E+10	1	-1E+10	1	-1E+10	1
4902554	67	C	12/13/2022	20:05	-133.287	48.220	0	47.00	0	9.6320	0	32.3390	0	24.936	0	46.599	0	-1e10	8	-1e10	8	-1E+10	1	-1E+10	1	-1E+10	1	-1E+10	1	-1E+10	1	-1E+10	1
4902554	67	C	12/13/2022	20:05	-133.287	48.220	0	48.00	0	9.6300	0	32.3400	0	24.937	0	47.591	0	-1e10	8	-1e10	8	-1E+10	1	-1E+10	1	-1E+10	1	-1E+10	1	-1E+10	1	-1E+10	1
4902554	67	C	12/13/2022	20:05	-133.287	48.220	0	48.90	0	9.6300	0	32.3390	0	24.936	0	48.483	0	-1e10	8	-1e10	8	-1E+10	1	-1E+10	1	-1E+10	1	-1E+10	1	-1E+10	1	-1E+10	1
4902554	67	C	12/13/2022	20:05	-133.287	48.220	0	49.90	0	9.6290	0	32.3380	0	24.936	0	49.474	0	-1e10	8	-1e10	8	-1E+10	1	-1E+10	1	-1E+10	1	-1E+10	1	-1E+10	1	-1E+10	1
4902554	67	C	12/13/2022	20:05	-133.287	48.220	0	50.80	0	9.6240	0	32.3400	0	24.938	0	50.366	0	-1e10	8	-1e10	8	-1E+10	1	-1E+10	1	-1E+10	1	-1E+10	1	-1E+10	1	-1E+10	1
4902554	67	C	12/13/2022	20:05	-133.287	48.220	0	51.80	0	9.6220	0	32.3410	0	24.939	0	51.358	0	-1e10	8	-1e10	8	-1E+10	1	-1E+10	1	-1E+10	1	-1E+10	1	-1E+10	1	-1E+10	1
4902554	67	C	12/13/2022	20:05	-133.287	48.220	0	52.80	0	9.6190	0	32.3400	0	24.939	0	52.349	0	-1e10	8	-1e10	8	-1E+10	1	-1E+10	1	-1E+10	1	-1E+10	1	-1E+10	1	-1E+10	1
4902554	67	C	12/13/2022	20:05	-133.287	48.220	0	53.80	0	9.6170	0	32.3410	0	24.940	0	53.341	0	-1e10	8	-1e10	8	-1E+10	1	-1E+10	1	-1E+10	1	-1E+10	1	-1E+10	1	-1E+10	1
4902554	67	C	12/13/2022	20:05	-133.287	48.220	0	54.80	0	9.6150	0	32.3400	0	24.940	0	54.332	0	-1e10	8	-1e10	8	-1E+10	1	-1E+10	1	-1E+10	1	-1E+10	1	-1E+10	1	-1E+10	1
4902554	67	C	12/13/2022	20:05	-133.287	48.220	0	55.80	0	9.6140	0	32.3410	0	24.941	0	55.323	0	-1e10	8	-1e10	8	-1E+10	1	-1E+10	1	-1E+10	1	-1E+10	1	-1E+10	1	-1E+10	1
4902554	67	C	12/13/2022	20:05	-133.287	48.220	0	56.80	0	9.6140	0	32.3400	0	24.940	0	56.314	0	-1e10	8	-1e10	8	-1E+10	1	-1E+10	1	-1E+10	1	-1E+10	1	-1E+10	1	-1E+10	1
4902554	67	C	12/13/2022	20:05	-133.287	48.220	0	57.80	0	9.6140	0	32.3400	0	24.940	0	57.306	0	-1e10	8	-1e10	8	-1E+10	1	-1E+10	1	-1E+10	1	-1E+10	1	-1E+10	1	-1E+10	1
4902554	67	C	12/13/2022	20:05	-133.287	48.220	0	58.80	0	9.6140	0	32.3400	0	24.940	0	58.297	0	-1e10	8	-1e10	8	-1E+10	1	-1E+10	1	-1E+10	1	-1E+10	1	-1E+10	1	-1E+10	1
4902554	67	C	12/13/2022	20:05	-133.287	48.220	0	59.80	0	9.6140	0	32.3400	0	24.940	0	59.288	0	-1e10	8	-1e10	8	-1E+10	1	-1E+10	1	-1E+10	1	-1E+10	1	-1E+10	1	-1E+10	1
4902554	67	C	12/13/2022	20:05	-133.287	48.220	0	60.80	0	9.6140	0	32.3400	0	24.940	0	60.280	0	-1e10	8	-1e10	8	-1E+10	1	-1E+10	1	-1E+10	1	-1E+10	1	-1E+10	1	-1E+10	1
4902554	67	C	12/13/2022	20:05	-133.287	48.220	0	62.10	0	9.6140	0	32.3400	0	24.940	0	61.568	0	-1e10	8	-1e10	8	-1E+10	1	-1E+10	1	-1E+10	1	-1E+10	1	-1E+10	1	-1E+10	1
4902554	67	C	12/13/2022	20:05	-133.287	48.220	0	63.10	0	9.6140	0	32.3400	0	24.940	0	62.560	0	-1e10	8	-1e10	8	-1E+10	1	-1E+10	1	-1E+10	1	-1E+10	1	-1E+10	1	-1E+10	1
4902554	67	C	12/13/2022	20:05	-133.287	48.220	0	64.10	0	9.6140	0	32.3400	0	24.940	0	63.551	0	-1e10	8	-1e10	8	-1E+10	1	-1E+10	1	-1E+10	1	-1E+10	1	-1E+10	1	-1E+10	1
4902554	67	C	12/13/2022	20:05	-133.287	48.220	0	65.00	0	9.6130	0	32.3410	0	24.941	0	64.443	0	-1e10	8	-1e10	8	-1E+10	1	-1E+10	1	-1E+10	1	-1E+10	1	-1E+10	1	-1E+10	1
4902554	67	C	12/13/2022	20:05	-133.287	48.220	0	66.00	0	9.6130	0	32.3400	0	24.940	0	65.434	0	-1e10	8	-1e10	8	-1E+10	1	-1E+10	1	-1E+10	1	-1E+10	1	-1E+10	1	-1E+10	1
4902554	67	C	12/13/2022	20:05	-133.287	48.220	0	67.00	0	9.6130	0	32.3400	0	24.940	0	66.426	0	-1e10	8	-1e10	8	-1E+10	1	-1E+10	1	-1E+10	1	-1E+10	1	-1E+10	1	-1E+10	1
4902554	67	C	12/13/2022	20:05	-133.287	48.220	0	67.90	0	9.6120	0	32.3400	0	24.941	0	67.318	0	-1e10	8	-1e10	8	-1E+10	1	-1E+10	1	-1E+10	1	-1E+10	1	-1E+10	1	-1E+10	1
4902554	67	C	12/13/2022	20:05	-133.287	48.220	0	68.90	0	9.6090	0	32.3400	0	24.941	0	68.309	0	-1e10	8	-1e10	8	-1E+10	1	-1E+10	1	-1E+10	1	-1E+10	1	-1E+10	1	-1E+10	1
4902554	67	C	12/13/2022	20:05	-133.287	48.220	0	69.80	0	9.6030	0	32.3390	0	24.941	0	69.201	0	-1e10	8	-1e10	8	-1E+10	1	-1E+10	1	-1E+10	1	-1E+10	1	-1E+10	1	-1E+10	1
4902554	67	C	12/13/2022	20:05	-133.287	48.220	0	71.00	0	9.6010	0	32.3390	0	24.942	0	70.391	0	-1e10	8	-1e10	8	-1E+10	1	-1E+10	1	-1E+10	1	-1E+10	1	-1E+10	1	-1E+10	1
4902554	67	C	12/13/2022	20:05	-133.287	48.220	0	72.10	0	9.5990	0	32.3370	0	24.940	0	71.481	0	-1e10	8	-1e10	8	-1E+10	1	-1E+10	1	-1E+10	1	-1E+10	1	-1E+10	1	-1E+10	1
4902554	67	C	12/13/2022	20:05	-133.287	48.220	0	73.10	0	9.5620	0	32.3420	0	24.950	0	72.472	0	-1e10	8	-1e10	8	-1E+10	1	-1E+10	1	-1E+10	1	-1E+10	1	-1E+10	1	-1E+10	1
4902554	67	C	12/13/2022	20:05	-133.287	48.220	0	74.20	0	9.4610	0	32.3420	0	24.966	0	73.563	0	-1e10	8	-1e10	8	-1E+10	1	-1E+10	1	-1E+10	1	-1E+10	1	-1E+10	1	-1E+10	1
4902554	67	C	12/13/2022	20:05	-133.287	48.220	0	75.00	0	9.2360	0	32.3700	0	25.024	0	74.356	0	-1e10	8	-1e10	8	-1E+10	1	-1E+10	1	-1E+10	1	-1E+10	1	-1E+10	1	-1E+10	1
4902554	67	C	12/13/2022	20:05	-133.287	48.220	0	75.90	0	9.0780	0	32.3710	0	25.049	0	75.248	0	-1e10	8	-1e10	8	-1E+10	1	-1E+10	1	-1E+10	1	-1E+10	1	-1E+10	1	-1E+10	1
4902554	67	C	12/13/2022	20:05	-133.287	48.220	0	77.00	0	8.9930	0	32.3650	0	25.058	0	76.338	0	-1e10	8	-1e10	8	-1E+10	1	-1E+10	1	-1E+10	1	-1E+10	1	-1E+10	1	-1E+10	1
4902554	67	C	12/13/2022	20:05	-133.287	48.220	0	78.00	0	8.6230	0	32.3930	0	25.136	0	77.329	0	-1e10	8	-1e10	8	-1E+10	1	-1E+10	1	-1E+10	1	-1E+10	1	-1E+10	1	-1E+10	1
4902554	67	C	12/13/2022	20:05	-133.287	48.220	0	79.10	0	8.2790	0	32.4200	0	25.209	0	78.420	0	-1e10	8	-1e10	8	-1E+10	1	-1E+10	1	-1E+10	1	-1E+10	1	-1E+10	1	-1E+10	1
4902554	67	C	12/13/2022	20:05	-133.287	48.220	0	79.90	0	7.9830	0	32.4450	0	25.272	0	79.213	0	-1e10	8	-1e10	8	-1E+10	1	-1E+10	1	-1E+10	1	-1E+10	1	-1E+10	1	-1E+10	1
4902554	67	C	12/13/2022	20:05	-133.287	48.220	0	81.10	0	7.6400	0	32.4800	0	25.348	0	80.402	0	-1e10	8	-1e10	8	-1E+10	1	-1E+10	1	-1E+10	1	-1E+10	1	-1E+10	1	-1E+10	1
4902554	67	C	12/13/2022	20:05	-133.287	48.220	0	81.90	0	7.5960	0	32.4750	0	25.350	0	81.195	0	-1e10	8	-1e10	8	-1E+10	1	-1E+10	1	-1E+10	1	-1E+10	1	-1E+10	1	-1E+10	1
4902554	67	C	12/13/2022	20:05	-133.287	48.220	0	83.00	0	7.5820	0	32.4750	0	25.352	0	82.285	0	-1e10	8	-1e10	8	-1E+10	1	-1E+10	1	-1E+10	1	-1E+10	1	-1E+10	1	-1E+10	1
4902554	67	C	12/13/2022	20:05	-133.287	48.220	0	84.10	0	7.5550	0	32.4730	0	25.354	0	83.376	0	-1e10	8	-1e10	8	-1E+10	1	-1E+10	1	-1E+10	1	-1E+10	1	-1E+10	1	-1E+10	1
4902554	67	C	12/13/2022	20:05	-133.287	48.220	0	84.90	0	7.4330	0	32.4820	0	25.378	0	84.169	0	-1e10	8	-1e10	8	-1E+10	1	-1E+10	1	-1E+10	1	-1E+10	1	-1E+10	1	-1E+10	1
4902554	67	C	12/13/2022	20:05	-133.287	48.220	0	86.10	0	7.1640	0	32.4980	0	25.428	0	85.358	0	-1e10	8	-1e10	8	-1E+10	1	-1E+10	1	-1E+10	1	-1E+10	1	-1E+10	1	-1E+10	1
4902554	67	C	12/13/2022	20:05	-133.287	48.220	0	86.80	0	7.1460	0	32.4980	0	25.430	0	86.052	0	-1e10	8	-1e10	8	-1E+10	1	-1E+10	1	-1E+10	1	-1E+10	1	-1E+10	1	-1E+10	1
4902554	67	C	12/13/2022	20:05	-133.287	48.220	0	88.00	0	7.1210	0	32.4990	0	25.434	0	87.241	0	-1e10	8	-1e10	8	-1E+10	1	-1E+10	1	-1E+10	1	-1E+10	1	-1E+10	1	-1E+10	1
4902554	67	C	12/13/2022	20:05	-133.287	48.220	0	89.00	0	7.1120	0	32.5000	0	25.436	0	88.232	0	-1e10	8	-1e10	8	-1E+10	1	-1E+10	1	-1E+10	1	-1E+10	1	-1E+10	1	-1E+10	1
4902554	67	C	12/13/2022	20:05	-133.287	48.220	0	90.10	0	7.1080	0	32.5000	0	25.437	0	89.323	0	-1e10	8	-1e10	8	-1E+10	1	-1E+10	1	-1E+10	1	-1E+10	1	-1E+10	1	-1E+10	1
4902554	67	C	12/13/2022	20:05	-133.287	48.220	0	91.00	0	7.1010	0	32.5010	0	25.438	0	90.215	0	-1e10	8	-1e10	8	-1E+10	1	-1E+10	1	-1E+10	1	-1E+10	1	-1E+10	1	-1E+10	1
4902554	67	C	12/13/2022	20:05	-133.287	48.220	0	91.90	0	7.0700	0	32.5060	0	25.447	0	91.107	0	-1e10	8	-1e10	8	-1E+10	1	-1E+10	1	-1E+10	1	-1E+10	1	-1E+10	1	-1E+10	1
4902554	67	C	12/13/2022	20:05	-133.287	48.220	0	92.90	0	7.0490	0	32.5100	0	25.453	0	92.098	0	-1e10	8	-1e10	8	-1E+10	1	-1E+10	1	-1E+10	1	-1E+10	1	-1E+10	1	-1E+10	1
4902554	67	C	12/13/2022	20:05	-133.287	48.220	0	93.90	0	7.0200	0	32.5140	0	25.460	0	93.089	0	-1e10	8	-1e10	8	-1E+10	1	-1E+10	1	-1E+10	1	-1E+10	1	-1E+10	1	-1E+10	1
4902554	67	C	12/13/2022	20:05	-133.287	48.220	0	94.90	0	7.0060	0	32.5140	0	25.461	0	94.080	0	-1e10	8	-1e10	8	-1E+10	1	-1E+10	1	-1E+10	1	-1E+10	1	-1E+10	1	-1E+10	1
4902554	67	C	12/13/2022	20:05	-133.287	48.220	0	96.20	0	6.8480	0	32.5260	0	25.492	0	95.369	0	-1e10	8	-1e10	8	-1E+10	1	-1E+10	1	-1E+10	1	-1E+10	1	-1E+10	1	-1E+10	1
4902554	67	C	12/13/2022	20:05	-133.287	48.220	0	96.80	0	6.8210	0	32.5250	0	25.495	0	95.963	0	-1e10	8	-1e10	8	-1E+10	1	-1E+10	1	-1E+10	1	-1E+10	1	-1E+10	1	-1E+10	1
4902554	67	C	12/13/2022	20:05	-133.287	48.220	0	97.80	0	6.7010	0	32.5330	0	25.517	0	96.954	0	-1e10	8	-1e10	8	-1E+10	1	-1E+10	1	-1E+10	1	-1E+10	1	-1E+10	1	-1E+10	1
4902554	67	C	12/13/2022	20:05	-133.287	48.220	0	98.80	0	6.6800	0	32.5420	0	25.526	0	97.945	0	-1e10	8	-1e10	8	-1E+10	1	-1E+10	1	-1E+10	1	-1E+10	1	-1E+10	1	-1E+10	1
4902554	67	C	12/13/2022	20:05	-133.287	48.220	0	99.80	0	6.6680	0	32.5440	0	25.530	0	98.937	0	-1e10	8	-1e10	8	-1E+10	1	-1E+10	1	-1E+10	1	-1E+10	1	-1E+10	1	-1E+10	1
4902554	67	C	12/13/2022	20:05	-133.287	48.220	0	100.90	0	6.6600	0	32.5470	0	25.533	0	100.027	0	-1e10	8	-1e10	8	-1E+10	1	-1E+10	1	-1E+10	1	-1E+10	1	-1E+10	1	-1E+10	1
4902554	67	C	12/13/2022	20:05	-133.287	48.220	0	102.00	0	6.6550	0	32.5500	0	25.536	0	101.117	0	-1e10	8	-1e10	8	-1E+10	1	-1E+10	1	-1E+10	1	-1E+10	1	-1E+10	1	-1E+10	1
4902554	67	C	12/13/2022	20:05	-133.287	48.220	0	103.10	0	6.6490	0	32.5550	0	25.541	0	102.207	0	-1e10	8	-1e10	8	-1E+10	1	-1E+10	1	-1E+10	1	-1E+10	1	-1E+10	1	-1E+10	1
4902554	67	C	12/13/2022	20:05	-133.287	48.220	0	104.10	0	6.6490	0	32.5630	0	25.547	0	103.198	0	-1e10	8	-1e10	8	-1E+10	1	-1E+10	1	-1E+10	1	-1E+10	1	-1E+10	1	-1E+10	1
4902554	67	C	12/13/2022	20:05	-133.287	48.220	0	105.20	0	6.6700	0	32.5790	0	25.557	0	104.289	0	-1e10	8	-1e10	8	-1E+10	1	-1E+10	1	-1E+10	1	-1E+10	1	-1E+10	1	-1E+10	1
4902554	67	C	12/13/2022	20:05	-133.287	48.220	0	105.90	0	6.6730	0	32.5920	0	25.567	0	104.982	0	-1e10	8	-1e10	8	-1E+10	1	-1E+10	1	-1E+10	1	-1E+10	1	-1E+10	1	-1E+10	1
4902554	67	C	12/13/2022	20:05	-133.287	48.220	0	107.00	0	6.6790	0	32.6070	0	25.578	0	106.072	0	-1e10	8	-1e10	8	-1E+10	1	-1E+10	1	-1E+10	1	-1E+10	1	-1E+10	1	-1E+10	1
4902554	67	C	12/13/2022	20:05	-133.287	48.220	0	108.10	0	6.6770	0	32.6180	0	25.587	0	107.163	0	-1e10	8	-1e10	8	-1E+10	1	-1E+10	1	-1E+10	1	-1E+10	1	-1E+10	1	-1E+10	1
4902554	67	C	12/13/2022	20:05	-133.287	48.220	0	109.00	0	6.6510	0	32.6350	0	25.604	0	108.055	0	-1e10	8	-1e10	8	-1E+10	1	-1E+10	1	-1E+10	1	-1E+10	1	-1E+10	1	-1E+10	1
4902554	67	C	12/13/2022	20:05	-133.287	48.220	0	110.00	0	6.6180	0	32.6450	0	25.616	0	109.046	0	-1e10	8	-1e10	8	-1E+10	1	-1E+10	1	-1E+10	1	-1E+10	1	-1E+10	1	-1E+10	1
4902554	67	C	12/13/2022	20:05	-133.287	48.220	0	111.00	0	6.5510	0	32.6540	0	25.631	0	110.037	0	-1e10	8	-1e10	8	-1E+10	1	-1E+10	1	-1E+10	1	-1E+10	1	-1E+10	1	-1E+10	1
4902554	67	C	12/13/2022	20:05	-133.287	48.220	0	111.90	0	6.5420	0	32.6690	0	25.644	0	110.929	0	-1e10	8	-1e10	8	-1E+10	1	-1E+10	1	-1E+10	1	-1E+10	1	-1E+10	1	-1E+10	1
4902554	67	C	12/13/2022	20:05	-133.287	48.220	0	112.90	0	6.5730	0	32.6850	0	25.653	0	111.920	0	-1e10	8	-1e10	8	-1E+10	1	-1E+10	1	-1E+10	1	-1E+10	1	-1E+10	1	-1E+10	1
4902554	67	C	12/13/2022	20:05	-133.287	48.220	0	114.00	0	6.5940	0	32.7340	0	25.689	0	113.010	0	-1e10	8	-1e10	8	-1E+10	1	-1E+10	1	-1E+10	1	-1E+10	1	-1E+10	1	-1E+10	1
4902554	67	C	12/13/2022	20:05	-133.287	48.220	0	115.20	0	6.5370	0	32.7580	0	25.715	0	114.199	0	-1e10	8	-1e10	8	-1E+10	1	-1E+10	1	-1E+10	1	-1E+10	1	-1E+10	1	-1E+10	1
4902554	67	C	12/13/2022	20:05	-133.287	48.220	0	116.00	0	6.5290	0	32.7770	0	25.731	0	114.992	0	-1e10	8	-1e10	8	-1E+10	1	-1E+10	1	-1E+10	1	-1E+10	1	-1E+10	1	-1E+10	1
4902554	67	C	12/13/2022	20:05	-133.287	48.220	0	116.90	0	6.5380	0	32.7930	0	25.743	0	115.884	0	-1e10	8	-1e10	8	-1E+10	1	-1E+10	1	-1E+10	1	-1E+10	1	-1E+10	1	-1E+10	1
4902554	67	C	12/13/2022	20:05	-133.287	48.220	0	117.90	0	6.5290	0	32.8040	0	25.753	0	116.875	0	-1e10	8	-1e10	8	-1E+10	1	-1E+10	1	-1E+10	1	-1E+10	1	-1E+10	1	-1E+10	1
4902554	67	C	12/13/2022	20:05	-133.287	48.220	0	118.80	0	6.4800	0	32.8340	0	25.783	0	117.767	0	-1e10	8	-1e10	8	-1E+10	1	-1E+10	1	-1E+10	1	-1E+10	1	-1E+10	1	-1E+10	1
4902554	67	C	12/13/2022	20:05	-133.287	48.220	0	119.90	0	6.4610	0	32.8630	0	25.808	0	118.857	0	-1e10	8	-1e10	8	-1E+10	1	-1E+10	1	-1E+10	1	-1E+10	1	-1E+10	1	-1E+10	1
4902554	67	C	12/13/2022	20:05	-133.287	48.220	0	121.10	0	6.4640	0	32.8860	0	25.826	0	120.046	0	-1e10	8	-1e10	8	-1E+10	1	-1E+10	1	-1E+10	1	-1E+10	1	-1E+10	1	-1E+10	1
4902554	67	C	12/13/2022	20:05	-133.287	48.220	0	122.10	0	6.4620	0	32.9010	0	25.838	0	121.037	0	-1e10	8	-1e10	8	-1E+10	1	-1E+10	1	-1E+10	1	-1E+10	1	-1E+10	1	-1E+10	1
4902554	67	C	12/13/2022	20:05	-133.287	48.220	0	123.10	0	6.4610	0	32.9070	0	25.843	0	122.028	0	-1e10	8	-1e10	8	-1E+10	1	-1E+10	1	-1E+10	1	-1E+10	1	-1E+10	1	-1E+10	1
4902554	67	C	12/13/2022	20:05	-133.287	48.220	0	124.00	0	6.4590	0	32.9140	0	25.848	0	122.920	0	-1e10	8	-1e10	8	-1E+10	1	-1E+10	1	-1E+10	1	-1E+10	1	-1E+10	1	-1E+10	1
4902554	67	C	12/13/2022	20:05	-133.287	48.220	0	124.70	0	6.4590	0	32.9170	0	25.851	0	123.614	0	-1e10	8	-1e10	8	-1E+10	1	-1E+10	1	-1E+10	1	-1E+10	1	-1E+10	1	-1E+10	1
4902554	67	C	12/13/2022	20:05	-133.287	48.220	0	125.80	0	6.4580	0	32.9210	0	25.854	0	124.704	0	-1e10	8	-1e10	8	-1E+10	1	-1E+10	1	-1E+10	1	-1E+10	1	-1E+10	1	-1E+10	1
4902554	67	C	12/13/2022	20:05	-133.287	48.220	0	126.80	0	6.4480	0	32.9400	0	25.870	0	125.695	0	-1e10	8	-1e10	8	-1E+10	1	-1E+10	1	-1E+10	1	-1E+10	1	-1E+10	1	-1E+10	1
4902554	67	C	12/13/2022	20:05	-133.287	48.220	0	127.90	0	6.4280	0	32.9630	0	25.891	0	126.785	0	-1e10	8	-1e10	8	-1E+10	1	-1E+10	1	-1E+10	1	-1E+10	1	-1E+10	1	-1E+10	1
4902554	67	C	12/13/2022	20:05	-133.287	48.220	0	129.00	0	6.3580	0	33.0320	0	25.954	0	127.875	0	-1e10	8	-1e10	8	-1E+10	1	-1E+10	1	-1E+10	1	-1E+10	1	-1E+10	1	-1E+10	1
4902554	67	C	12/13/2022	20:05	-133.287	48.220	0	129.90	0	6.3290	0	33.0540	0	25.975	0	128.767	0	-1e10	8	-1e10	8	-1E+10	1	-1E+10	1	-1E+10	1	-1E+10	1	-1E+10	1	-1E+10	1
4902554	67	C	12/13/2022	20:05	-133.287	48.220	0	130.90	0	6.3020	0	33.0730	0	25.994	0	129.758	0	-1e10	8	-1e10	8	-1E+10	1	-1E+10	1	-1E+10	1	-1E+10	1	-1E+10	1	-1E+10	1
4902554	67	C	12/13/2022	20:05	-133.287	48.220	0	131.90	0	6.2950	0	33.0800	0	26.000	0	130.749	0	-1e10	8	-1e10	8	-1E+10	1	-1E+10	1	-1E+10	1	-1E+10	1	-1E+10	1	-1E+10	1
4902554	67	C	12/13/2022	20:05	-133.287	48.220	0	132.90	0	6.2890	0	33.0860	0	26.006	0	131.740	0	-1e10	8	-1e10	8	-1E+10	1	-1E+10	1	-1E+10	1	-1E+10	1	-1E+10	1	-1E+10	1
4902554	67	C	12/13/2022	20:05	-133.287	48.220	0	134.10	0	6.2850	0	33.0900	0	26.010	0	132.929	0	-1e10	8	-1e10	8	-1E+10	1	-1E+10	1	-1E+10	1	-1E+10	1	-1E+10	1	-1E+10	1
4902554	67	C	12/13/2022	20:05	-133.287	48.220	0	135.00	0	6.2810	0	33.0940	0	26.013	0	133.821	0	-1e10	8	-1e10	8	-1E+10	1	-1E+10	1	-1E+10	1	-1E+10	1	-1E+10	1	-1E+10	1
4902554	67	C	12/13/2022	20:05	-133.287	48.220	0	136.00	0	6.2590	0	33.1280	0	26.043	0	134.812	0	-1e10	8	-1e10	8	-1E+10	1	-1E+10	1	-1E+10	1	-1E+10	1	-1E+10	1	-1E+10	1
4902554	67	C	12/13/2022	20:05	-133.287	48.220	0	137.00	0	6.2190	0	33.2140	0	26.116	0	135.803	0	-1e10	8	-1e10	8	-1E+10	1	-1E+10	1	-1E+10	1	-1E+10	1	-1E+10	1	-1E+10	1
4902554	67	C	12/13/2022	20:05	-133.287	48.220	0	138.00	0	6.2150	0	33.2260	0	26.126	0	136.793	0	-1e10	8	-1e10	8	-1E+10	1	-1E+10	1	-1E+10	1	-1E+10	1	-1E+10	1	-1E+10	1
4902554	67	C	12/13/2022	20:05	-133.287	48.220	0	139.10	0	6.2130	0	33.2370	0	26.135	0	137.883	0	-1e10	8	-1e10	8	-1E+10	1	-1E+10	1	-1E+10	1	-1E+10	1	-1E+10	1	-1E+10	1
4902554	67	C	12/13/2022	20:05	-133.287	48.220	0	139.80	0	6.2120	0	33.2450	0	26.141	0	138.577	0	-1e10	8	-1e10	8	-1E+10	1	-1E+10	1	-1E+10	1	-1E+10	1	-1E+10	1	-1E+10	1
4902554	67	C	12/13/2022	20:05	-133.287	48.220	0	140.80	0	6.2020	0	33.3020	0	26.187	0	139.568	0	-1e10	8	-1e10	8	-1E+10	1	-1E+10	1	-1E+10	1	-1E+10	1	-1E+10	1	-1E+10	1
4902554	67	C	12/13/2022	20:05	-133.287	48.220	0	142.00	0	6.1670	0	33.3380	0	26.220	0	140.757	0	-1e10	8	-1e10	8	-1E+10	1	-1E+10	1	-1E+10	1	-1E+10	1	-1E+10	1	-1E+10	1
4902554	67	C	12/13/2022	20:05	-133.287	48.220	0	142.90	0	6.1420	0	33.3480	0	26.231	0	141.649	0	-1e10	8	-1e10	8	-1E+10	1	-1E+10	1	-1E+10	1	-1E+10	1	-1E+10	1	-1E+10	1
4902554	67	C	12/13/2022	20:05	-133.287	48.220	0	143.90	0	6.1270	0	33.3580	0	26.241	0	142.640	0	-1e10	8	-1e10	8	-1E+10	1	-1E+10	1	-1E+10	1	-1E+10	1	-1E+10	1	-1E+10	1
4902554	67	C	12/13/2022	20:05	-133.287	48.220	0	144.90	0	6.1140	0	33.3740	0	26.255	0	143.631	0	-1e10	8	-1e10	8	-1E+10	1	-1E+10	1	-1E+10	1	-1E+10	1	-1E+10	1	-1E+10	1
4902554	67	C	12/13/2022	20:05	-133.287	48.220	0	146.00	0	6.0890	0	33.4060	0	26.284	0	144.721	0	-1e10	8	-1e10	8	-1E+10	1	-1E+10	1	-1E+10	1	-1E+10	1	-1E+10	1	-1E+10	1
4902554	67	C	12/13/2022	20:05	-133.287	48.220	0	146.80	0	6.0900	0	33.4540	0	26.322	0	145.513	0	-1e10	8	-1e10	8	-1E+10	1	-1E+10	1	-1E+10	1	-1E+10	1	-1E+10	1	-1E+10	1
4902554	67	C	12/13/2022	20:05	-133.287	48.220	0	147.90	0	6.0410	0	33.4880	0	26.355	0	146.603	0	-1e10	8	-1e10	8	-1E+10	1	-1E+10	1	-1E+10	1	-1E+10	1	-1E+10	1	-1E+10	1
4902554	67	C	12/13/2022	20:05	-133.287	48.220	0	149.00	0	6.0000	0	33.5160	0	26.382	0	147.693	0	-1e10	8	-1e10	8	-1E+10	1	-1E+10	1	-1E+10	1	-1E+10	1	-1E+10	1	-1E+10	1
4902554	67	C	12/13/2022	20:05	-133.287	48.220	0	149.80	0	5.9960	0	33.5200	0	26.385	0	148.486	0	-1e10	8	-1e10	8	-1E+10	1	-1E+10	1	-1E+10	1	-1E+10	1	-1E+10	1	-1E+10	1
4902554	67	C	12/13/2022	20:05	-133.287	48.220	0	151.00	0	5.9980	0	33.5280	0	26.392	0	149.675	0	-1e10	8	-1e10	8	-1E+10	1	-1E+10	1	-1E+10	1	-1E+10	1	-1E+10	1	-1E+10	1
4902554	67	C	12/13/2022	20:05	-133.287	48.220	0	152.10	0	6.0080	0	33.5340	0	26.395	0	150.765	0	-1e10	8	-1e10	8	-1E+10	1	-1E+10	1	-1E+10	1	-1E+10	1	-1E+10	1	-1E+10	1
4902554	67	C	12/13/2022	20:05	-133.287	48.220	0	152.80	0	6.0260	0	33.5380	0	26.396	0	151.459	0	-1e10	8	-1e10	8	-1E+10	1	-1E+10	1	-1E+10	1	-1E+10	1	-1E+10	1	-1E+10	1
4902554	67	C	12/13/2022	20:05	-133.287	48.220	0	153.70	0	6.0390	0	33.5460	0	26.401	0	152.350	0	-1e10	8	-1e10	8	-1E+10	1	-1E+10	1	-1E+10	1	-1E+10	1	-1E+10	1	-1E+10	1
4902554	67	C	12/13/2022	20:05	-133.287	48.220	0	154.70	0	6.0290	0	33.5580	0	26.411	0	153.341	0	-1e10	8	-1e10	8	-1E+10	1	-1E+10	1	-1E+10	1	-1E+10	1	-1E+10	1	-1E+10	1
4902554	67	C	12/13/2022	20:05	-133.287	48.220	0	155.70	0	6.0100	0	33.5730	0	26.426	0	154.332	0	-1e10	8	-1e10	8	-1E+10	1	-1E+10	1	-1E+10	1	-1E+10	1	-1E+10	1	-1E+10	1
4902554	67	C	12/13/2022	20:05	-133.287	48.220	0	156.90	0	5.9940	0	33.5810	0	26.434	0	155.521	0	-1e10	8	-1e10	8	-1E+10	1	-1E+10	1	-1E+10	1	-1E+10	1	-1E+10	1	-1E+10	1
4902554	67	C	12/13/2022	20:05	-133.287	48.220	0	158.00	0	5.9930	0	33.5840	0	26.436	0	156.611	0	-1e10	8	-1e10	8	-1E+10	1	-1E+10	1	-1E+10	1	-1E+10	1	-1E+10	1	-1E+10	1
4902554	67	C	12/13/2022	20:05	-133.287	48.220	0	159.00	0	5.9870	0	33.6030	0	26.452	0	157.602	0	-1e10	8	-1e10	8	-1E+10	1	-1E+10	1	-1E+10	1	-1E+10	1	-1E+10	1	-1E+10	1
4902554	67	C	12/13/2022	20:05	-133.287	48.220	0	159.90	0	6.0060	0	33.6170	0	26.461	0	158.494	0	-1e10	8	-1e10	8	-1E+10	1	-1E+10	1	-1E+10	1	-1E+10	1	-1E+10	1	-1E+10	1
4902554	67	C	12/13/2022	20:05	-133.287	48.220	0	161.00	0	6.0130	0	33.6270	0	26.468	0	159.584	0	-1e10	8	-1e10	8	-1E+10	1	-1E+10	1	-1E+10	1	-1E+10	1	-1E+10	1	-1E+10	1
4902554	67	C	12/13/2022	20:05	-133.287	48.220	0	162.00	0	6.0170	0	33.6310	0	26.471	0	160.574	0	-1e10	8	-1e10	8	-1E+10	1	-1E+10	1	-1E+10	1	-1E+10	1	-1E+10	1	-1E+10	1
4902554	67	C	12/13/2022	20:05	-133.287	48.220	0	163.20	0	6.0180	0	33.6380	0	26.476	0	161.763	0	-1e10	8	-1e10	8	-1E+10	1	-1E+10	1	-1E+10	1	-1E+10	1	-1E+10	1	-1E+10	1
4902554	67	C	12/13/2022	20:05	-133.287	48.220	0	163.90	0	6.0060	0	33.6550	0	26.491	0	162.457	0	-1e10	8	-1e10	8	-1E+10	1	-1E+10	1	-1E+10	1	-1E+10	1	-1E+10	1	-1E+10	1
4902554	67	C	12/13/2022	20:05	-133.287	48.220	0	164.70	0	6.0000	0	33.6590	0	26.495	0	163.249	0	-1e10	8	-1e10	8	-1E+10	1	-1E+10	1	-1E+10	1	-1E+10	1	-1E+10	1	-1E+10	1
4902554	67	C	12/13/2022	20:05	-133.287	48.220	0	166.00	0	5.9920	0	33.6660	0	26.501	0	164.538	0	-1e10	8	-1e10	8	-1E+10	1	-1E+10	1	-1E+10	1	-1E+10	1	-1E+10	1	-1E+10	1
4902554	67	C	12/13/2022	20:05	-133.287	48.220	0	167.20	0	6.0020	0	33.6780	0	26.510	0	165.726	0	-1e10	8	-1e10	8	-1E+10	1	-1E+10	1	-1E+10	1	-1E+10	1	-1E+10	1	-1E+10	1
4902554	67	C	12/13/2022	20:05	-133.287	48.220	0	168.10	0	6.0030	0	33.6830	0	26.514	0	166.618	0	-1e10	8	-1e10	8	-1E+10	1	-1E+10	1	-1E+10	1	-1E+10	1	-1E+10	1	-1E+10	1
4902554	67	C	12/13/2022	20:05	-133.287	48.220	0	169.00	0	5.9750	0	33.6980	0	26.529	0	167.510	0	-1e10	8	-1e10	8	-1E+10	1	-1E+10	1	-1E+10	1	-1E+10	1	-1E+10	1	-1E+10	1
4902554	67	C	12/13/2022	20:05	-133.287	48.220	0	170.00	0	5.9520	0	33.7040	0	26.536	0	168.501	0	-1e10	8	-1e10	8	-1E+10	1	-1E+10	1	-1E+10	1	-1E+10	1	-1E+10	1	-1E+10	1
4902554	67	C	12/13/2022	20:05	-133.287	48.220	0	170.90	0	5.9390	0	33.7070	0	26.540	0	169.392	0	-1e10	8	-1e10	8	-1E+10	1	-1E+10	1	-1E+10	1	-1E+10	1	-1E+10	1	-1E+10	1
4902554	67	C	12/13/2022	20:05	-133.287	48.220	0	171.80	0	5.9290	0	33.7080	0	26.543	0	170.284	0	-1e10	8	-1e10	8	-1E+10	1	-1E+10	1	-1E+10	1	-1E+10	1	-1E+10	1	-1E+10	1
4902554	67	C	12/13/2022	20:05	-133.287	48.220	0	172.80	0	5.8970	0	33.7110	0	26.549	0	171.275	0	-1e10	8	-1e10	8	-1E+10	1	-1E+10	1	-1E+10	1	-1E+10	1	-1E+10	1	-1E+10	1
4902554	67	C	12/13/2022	20:05	-133.287	48.220	0	173.70	0	5.8710	0	33.7100	0	26.551	0	172.166	0	-1e10	8	-1e10	8	-1E+10	1	-1E+10	1	-1E+10	1	-1E+10	1	-1E+10	1	-1E+10	1
4902554	67	C	12/13/2022	20:05	-133.287	48.220	0	174.60	0	5.8610	0	33.7130	0	26.555	0	173.058	0	-1e10	8	-1e10	8	-1E+10	1	-1E+10	1	-1E+10	1	-1E+10	1	-1E+10	1	-1E+10	1
4902554	67	C	12/13/2022	20:05	-133.287	48.220	0	175.60	0	5.8460	0	33.7130	0	26.557	0	174.049	0	-1e10	8	-1e10	8	-1E+10	1	-1E+10	1	-1E+10	1	-1E+10	1	-1E+10	1	-1E+10	1
4902554	67	C	12/13/2022	20:05	-133.287	48.220	0	176.50	0	5.8400	0	33.7130	0	26.558	0	174.941	0	-1e10	8	-1e10	8	-1E+10	1	-1E+10	1	-1E+10	1	-1E+10	1	-1E+10	1	-1E+10	1
4902554	67	C	12/13/2022	20:05	-133.287	48.220	0	177.90	0	5.8220	0	33.7180	0	26.564	0	176.328	0	-1e10	8	-1e10	8	-1E+10	1	-1E+10	1	-1E+10	1	-1E+10	1	-1E+10	1	-1E+10	1
4902554	67	C	12/13/2022	20:05	-133.287	48.220	0	179.30	0	5.8200	0	33.7210	0	26.566	0	177.715	0	-1e10	8	-1e10	8	-1E+10	1	-1E+10	1	-1E+10	1	-1E+10	1	-1E+10	1	-1E+10	1
4902554	67	C	12/13/2022	20:05	-133.287	48.220	0	180.30	0	5.8180	0	33.7210	0	26.567	0	178.705	0	-1e10	8	-1e10	8	-1E+10	1	-1E+10	1	-1E+10	1	-1E+10	1	-1E+10	1	-1E+10	1
4902554	67	C	12/13/2022	20:05	-133.287	48.220	0	181.20	0	5.8180	0	33.7220	0	26.567	0	179.597	0	-1e10	8	-1e10	8	-1E+10	1	-1E+10	1	-1E+10	1	-1E+10	1	-1E+10	1	-1E+10	1
4902554	67	C	12/13/2022	20:05	-133.287	48.220	0	182.10	0	5.8150	0	33.7220	0	26.568	0	180.489	0	-1e10	8	-1e10	8	-1E+10	1	-1E+10	1	-1E+10	1	-1E+10	1	-1E+10	1	-1E+10	1
4902554	67	C	12/13/2022	20:05	-133.287	48.220	0	183.00	0	5.7910	0	33.7220	0	26.571	0	181.380	0	-1e10	8	-1e10	8	-1E+10	1	-1E+10	1	-1E+10	1	-1E+10	1	-1E+10	1	-1E+10	1
4902554	67	C	12/13/2022	20:05	-133.287	48.220	0	183.90	0	5.7280	0	33.7210	0	26.578	0	182.272	0	-1e10	8	-1e10	8	-1E+10	1	-1E+10	1	-1E+10	1	-1E+10	1	-1E+10	1	-1E+10	1
4902554	67	C	12/13/2022	20:05	-133.287	48.220	0	184.80	0	5.7230	0	33.7190	0	26.577	0	183.164	0	-1e10	8	-1e10	8	-1E+10	1	-1E+10	1	-1E+10	1	-1E+10	1	-1E+10	1	-1E+10	1
4902554	67	C	12/13/2022	20:05	-133.287	48.220	0	185.70	0	5.7180	0	33.7160	0	26.575	0	184.055	0	-1e10	8	-1e10	8	-1E+10	1	-1E+10	1	-1E+10	1	-1E+10	1	-1E+10	1	-1E+10	1
4902554	67	C	12/13/2022	20:05	-133.287	48.220	0	186.60	0	5.6720	0	33.7160	0	26.580	0	184.947	0	-1e10	8	-1e10	8	-1E+10	1	-1E+10	1	-1E+10	1	-1E+10	1	-1E+10	1	-1E+10	1
4902554	67	C	12/13/2022	20:05	-133.287	48.220	0	187.90	0	5.6880	0	33.7280	0	26.588	0	186.235	0	-1e10	8	-1e10	8	-1E+10	1	-1E+10	1	-1E+10	1	-1E+10	1	-1E+10	1	-1E+10	1
4902554	67	C	12/13/2022	20:05	-133.287	48.220	0	189.30	0	5.6790	0	33.7300	0	26.591	0	187.622	0	-1e10	8	-1e10	8	-1E+10	1	-1E+10	1	-1E+10	1	-1E+10	1	-1E+10	1	-1E+10	1
4902554	67	C	12/13/2022	20:05	-133.287	48.220	0	190.20	0	5.6760	0	33.7340	0	26.594	0	188.513	0	-1e10	8	-1e10	8	-1E+10	1	-1E+10	1	-1E+10	1	-1E+10	1	-1E+10	1	-1E+10	1
4902554	67	C	12/13/2022	20:05	-133.287	48.220	0	191.00	0	5.6520	0	33.7370	0	26.600	0	189.306	0	-1e10	8	-1e10	8	-1E+10	1	-1E+10	1	-1E+10	1	-1E+10	1	-1E+10	1	-1E+10	1
4902554	67	C	12/13/2022	20:05	-133.287	48.220	0	191.90	0	5.6390	0	33.7370	0	26.601	0	190.197	0	-1e10	8	-1e10	8	-1E+10	1	-1E+10	1	-1E+10	1	-1E+10	1	-1E+10	1	-1E+10	1
4902554	67	C	12/13/2022	20:05	-133.287	48.220	0	192.80	0	5.6350	0	33.7370	0	26.602	0	191.089	0	-1e10	8	-1e10	8	-1E+10	1	-1E+10	1	-1E+10	1	-1E+10	1	-1E+10	1	-1E+10	1
4902554	67	C	12/13/2022	20:05	-133.287	48.220	0	193.70	0	5.6130	0	33.7410	0	26.607	0	191.981	0	-1e10	8	-1e10	8	-1E+10	1	-1E+10	1	-1E+10	1	-1E+10	1	-1E+10	1	-1E+10	1
4902554	67	C	12/13/2022	20:05	-133.287	48.220	0	195.00	0	5.5860	0	33.7390	0	26.609	0	193.268	0	-1e10	8	-1e10	8	-1E+10	1	-1E+10	1	-1E+10	1	-1E+10	1	-1E+10	1	-1E+10	1
4902554	67	C	12/13/2022	20:05	-133.287	48.220	0	196.30	0	5.5350	0	33.7400	0	26.616	0	194.556	0	-1e10	8	-1e10	8	-1E+10	1	-1E+10	1	-1E+10	1	-1E+10	1	-1E+10	1	-1E+10	1
4902554	67	C	12/13/2022	20:05	-133.287	48.220	0	197.10	0	5.5100	0	33.7390	0	26.618	0	195.349	0	-1e10	8	-1e10	8	-1E+10	1	-1E+10	1	-1E+10	1	-1E+10	1	-1E+10	1	-1E+10	1
4902554	67	C	12/13/2022	20:05	-133.287	48.220	0	198.00	0	5.4830	0	33.7390	0	26.621	0	196.240	0	-1e10	8	-1e10	8	-1E+10	1	-1E+10	1	-1E+10	1	-1E+10	1	-1E+10	1	-1E+10	1
4902554	67	C	12/13/2022	20:05	-133.287	48.220	0	198.90	0	5.4630	0	33.7380	0	26.623	0	197.132	0	-1e10	8	-1e10	8	-1E+10	1	-1E+10	1	-1E+10	1	-1E+10	1	-1E+10	1	-1E+10	1
4902554	67	C	12/13/2022	20:05	-133.287	48.220	0	199.70	0	5.4230	0	33.7400	0	26.629	0	197.924	0	-1e10	8	-1e10	8	-1E+10	1	-1E+10	1	-1E+10	1	-1E+10	1	-1E+10	1	-1E+10	1
4902554	67	C	12/13/2022	20:05	-133.287	48.220	0	200.60	0	5.4050	0	33.7400	0	26.631	0	198.816	0	-1e10	8	-1e10	8	-1E+10	1	-1E+10	1	-1E+10	1	-1E+10	1	-1E+10	1	-1E+10	1
4902554	67	C	12/13/2022	20:05	-133.287	48.220	0	201.90	0	5.3890	0	33.7410	0	26.634	0	200.104	0	-1e10	8	-1e10	8	-1E+10	1	-1E+10	1	-1E+10	1	-1E+10	1	-1E+10	1	-1E+10	1
4902554	67	C	12/13/2022	20:05	-133.287	48.220	0	203.20	0	5.3720	0	33.7440	0	26.639	0	201.392	0	-1e10	8	-1e10	8	-1E+10	1	-1E+10	1	-1E+10	1	-1E+10	1	-1E+10	1	-1E+10	1
4902554	67	C	12/13/2022	20:05	-133.287	48.220	0	204.00	0	5.3700	0	33.7450	0	26.640	0	202.184	0	-1e10	8	-1e10	8	-1E+10	1	-1E+10	1	-1E+10	1	-1E+10	1	-1E+10	1	-1E+10	1
4902554	67	C	12/13/2022	20:05	-133.287	48.220	0	204.90	0	5.3580	0	33.7470	0	26.643	0	203.076	0	-1e10	8	-1e10	8	-1E+10	1	-1E+10	1	-1E+10	1	-1E+10	1	-1E+10	1	-1E+10	1
4902554	67	C	12/13/2022	20:05	-133.287	48.220	0	205.70	0	5.3500	0	33.7500	0	26.646	0	203.868	0	-1e10	8	-1e10	8	-1E+10	1	-1E+10	1	-1E+10	1	-1E+10	1	-1E+10	1	-1E+10	1
4902554	67	C	12/13/2022	20:05	-133.287	48.220	0	206.60	0	5.3240	0	33.7510	0	26.650	0	204.760	0	-1e10	8	-1e10	8	-1E+10	1	-1E+10	1	-1E+10	1	-1E+10	1	-1E+10	1	-1E+10	1
4902554	67	C	12/13/2022	20:05	-133.287	48.220	0	207.90	0	5.2970	0	33.7500	0	26.652	0	206.047	0	-1e10	8	-1e10	8	-1E+10	1	-1E+10	1	-1E+10	1	-1E+10	1	-1E+10	1	-1E+10	1
4902554	67	C	12/13/2022	20:05	-133.287	48.220	0	209.20	0	5.2610	0	33.7510	0	26.657	0	207.335	0	-1e10	8	-1e10	8	-1E+10	1	-1E+10	1	-1E+10	1	-1E+10	1	-1E+10	1	-1E+10	1
4902554	67	C	12/13/2022	20:05	-133.287	48.220	0	210.10	0	5.2500	0	33.7490	0	26.657	0	208.227	0	-1e10	8	-1e10	8	-1E+10	1	-1E+10	1	-1E+10	1	-1E+10	1	-1E+10	1	-1E+10	1
4902554	67	C	12/13/2022	20:05	-133.287	48.220	0	211.00	0	5.2360	0	33.7480	0	26.658	0	209.118	0	-1e10	8	-1e10	8	-1E+10	1	-1E+10	1	-1E+10	1	-1E+10	1	-1E+10	1	-1E+10	1
4902554	67	C	12/13/2022	20:05	-133.287	48.220	0	211.90	0	5.2140	0	33.7490	0	26.661	0	210.010	0	-1e10	8	-1e10	8	-1E+10	1	-1E+10	1	-1E+10	1	-1E+10	1	-1E+10	1	-1E+10	1
4902554	67	C	12/13/2022	20:05	-133.287	48.220	0	212.80	0	5.2050	0	33.7480	0	26.661	0	210.901	0	-1e10	8	-1e10	8	-1E+10	1	-1E+10	1	-1E+10	1	-1E+10	1	-1E+10	1	-1E+10	1
4902554	67	C	12/13/2022	20:05	-133.287	48.220	0	213.70	0	5.1840	0	33.7490	0	26.664	0	211.793	0	-1e10	8	-1e10	8	-1E+10	1	-1E+10	1	-1E+10	1	-1E+10	1	-1E+10	1	-1E+10	1
4902554	67	C	12/13/2022	20:05	-133.287	48.220	0	214.60	0	5.1790	0	33.7490	0	26.665	0	212.684	0	-1e10	8	-1e10	8	-1E+10	1	-1E+10	1	-1E+10	1	-1E+10	1	-1E+10	1	-1E+10	1
4902554	67	C	12/13/2022	20:05	-133.287	48.220	0	215.90	0	5.1720	0	33.7490	0	26.666	0	213.972	0	-1e10	8	-1e10	8	-1E+10	1	-1E+10	1	-1E+10	1	-1E+10	1	-1E+10	1	-1E+10	1
4902554	67	C	12/13/2022	20:05	-133.287	48.220	0	217.40	0	5.1370	0	33.7510	0	26.671	0	215.458	0	-1e10	8	-1e10	8	-1E+10	1	-1E+10	1	-1E+10	1	-1E+10	1	-1E+10	1	-1E+10	1
4902554	67	C	12/13/2022	20:05	-133.287	48.220	0	218.30	0	5.1280	0	33.7500	0	26.672	0	216.349	0	-1e10	8	-1e10	8	-1E+10	1	-1E+10	1	-1E+10	1	-1E+10	1	-1E+10	1	-1E+10	1
4902554	67	C	12/13/2022	20:05	-133.287	48.220	0	219.20	0	5.1220	0	33.7500	0	26.672	0	217.241	0	-1e10	8	-1e10	8	-1E+10	1	-1E+10	1	-1E+10	1	-1E+10	1	-1E+10	1	-1E+10	1
4902554	67	C	12/13/2022	20:05	-133.287	48.220	0	220.10	0	5.1150	0	33.7510	0	26.674	0	218.132	0	-1e10	8	-1e10	8	-1E+10	1	-1E+10	1	-1E+10	1	-1E+10	1	-1E+10	1	-1E+10	1
4902554	67	C	12/13/2022	20:05	-133.287	48.220	0	221.00	0	5.1060	0	33.7510	0	26.675	0	219.024	0	-1e10	8	-1e10	8	-1E+10	1	-1E+10	1	-1E+10	1	-1E+10	1	-1E+10	1	-1E+10	1
4902554	67	C	12/13/2022	20:05	-133.287	48.220	0	221.90	0	5.1050	0	33.7500	0	26.674	0	219.915	0	-1e10	8	-1e10	8	-1E+10	1	-1E+10	1	-1E+10	1	-1E+10	1	-1E+10	1	-1E+10	1
4902554	67	C	12/13/2022	20:05	-133.287	48.220	0	222.80	0	5.0940	0	33.7530	0	26.678	0	220.807	0	-1e10	8	-1e10	8	-1E+10	1	-1E+10	1	-1E+10	1	-1E+10	1	-1E+10	1	-1E+10	1
4902554	67	C	12/13/2022	20:05	-133.287	48.220	0	223.60	0	5.0930	0	33.7510	0	26.677	0	221.599	0	-1e10	8	-1e10	8	-1E+10	1	-1E+10	1	-1E+10	1	-1E+10	1	-1E+10	1	-1E+10	1
4902554	67	C	12/13/2022	20:05	-133.287	48.220	0	224.90	0	5.0820	0	33.7530	0	26.679	0	222.887	0	-1e10	8	-1e10	8	-1E+10	1	-1E+10	1	-1E+10	1	-1E+10	1	-1E+10	1	-1E+10	1
4902554	67	C	12/13/2022	20:05	-133.287	48.220	0	226.20	0	5.0580	0	33.7560	0	26.685	0	224.175	0	-1e10	8	-1e10	8	-1E+10	1	-1E+10	1	-1E+10	1	-1E+10	1	-1E+10	1	-1E+10	1
4902554	67	C	12/13/2022	20:05	-133.287	48.220	0	227.10	0	5.0340	0	33.7560	0	26.687	0	225.066	0	-1e10	8	-1e10	8	-1E+10	1	-1E+10	1	-1E+10	1	-1E+10	1	-1E+10	1	-1E+10	1
4902554	67	C	12/13/2022	20:05	-133.287	48.220	0	228.00	0	5.0310	0	33.7540	0	26.686	0	225.957	0	-1e10	8	-1e10	8	-1E+10	1	-1E+10	1	-1E+10	1	-1E+10	1	-1E+10	1	-1E+10	1
4902554	67	C	12/13/2022	20:05	-133.287	48.220	0	228.80	0	5.0310	0	33.7540	0	26.686	0	226.750	0	-1e10	8	-1e10	8	-1E+10	1	-1E+10	1	-1E+10	1	-1E+10	1	-1E+10	1	-1E+10	1
4902554	67	C	12/13/2022	20:05	-133.287	48.220	0	229.70	0	5.0280	0	33.7540	0	26.686	0	227.641	0	-1e10	8	-1e10	8	-1E+10	1	-1E+10	1	-1E+10	1	-1E+10	1	-1E+10	1	-1E+10	1
4902554	67	C	12/13/2022	20:05	-133.287	48.220	0	230.60	0	5.0130	0	33.7540	0	26.688	0	228.533	0	-1e10	8	-1e10	8	-1E+10	1	-1E+10	1	-1E+10	1	-1E+10	1	-1E+10	1	-1E+10	1
4902554	67	C	12/13/2022	20:05	-133.287	48.220	0	231.90	0	4.9930	0	33.7570	0	26.693	0	229.820	0	-1e10	8	-1e10	8	-1E+10	1	-1E+10	1	-1E+10	1	-1E+10	1	-1E+10	1	-1E+10	1
4902554	67	C	12/13/2022	20:05	-133.287	48.220	0	233.20	0	4.9830	0	33.7570	0	26.694	0	231.108	0	-1e10	8	-1e10	8	-1E+10	1	-1E+10	1	-1E+10	1	-1E+10	1	-1E+10	1	-1E+10	1
4902554	67	C	12/13/2022	20:05	-133.287	48.220	0	234.10	0	4.9790	0	33.7570	0	26.694	0	231.999	0	-1e10	8	-1e10	8	-1E+10	1	-1E+10	1	-1E+10	1	-1E+10	1	-1E+10	1	-1E+10	1
4902554	67	C	12/13/2022	20:05	-133.287	48.220	0	235.00	0	4.9750	0	33.7570	0	26.695	0	232.891	0	-1e10	8	-1e10	8	-1E+10	1	-1E+10	1	-1E+10	1	-1E+10	1	-1E+10	1	-1E+10	1
4902554	67	C	12/13/2022	20:05	-133.287	48.220	0	235.80	0	4.9580	0	33.7560	0	26.696	0	233.683	0	-1e10	8	-1e10	8	-1E+10	1	-1E+10	1	-1E+10	1	-1E+10	1	-1E+10	1	-1E+10	1
4902554	67	C	12/13/2022	20:05	-133.287	48.220	0	236.70	0	4.9560	0	33.7560	0	26.696	0	234.575	0	-1e10	8	-1e10	8	-1E+10	1	-1E+10	1	-1E+10	1	-1E+10	1	-1E+10	1	-1E+10	1
4902554	67	C	12/13/2022	20:05	-133.287	48.220	0	237.90	0	4.9460	0	33.7560	0	26.697	0	235.763	0	-1e10	8	-1e10	8	-1E+10	1	-1E+10	1	-1E+10	1	-1E+10	1	-1E+10	1	-1E+10	1
4902554	67	C	12/13/2022	20:05	-133.287	48.220	0	239.20	0	4.9290	0	33.7560	0	26.699	0	237.051	0	-1e10	8	-1e10	8	-1E+10	1	-1E+10	1	-1E+10	1	-1E+10	1	-1E+10	1	-1E+10	1
4902554	67	C	12/13/2022	20:05	-133.287	48.220	0	240.10	0	4.9120	0	33.7560	0	26.701	0	237.942	0	-1e10	8	-1e10	8	-1E+10	1	-1E+10	1	-1E+10	1	-1E+10	1	-1E+10	1	-1E+10	1
4902554	67	C	12/13/2022	20:05	-133.287	48.220	0	240.90	0	4.9000	0	33.7580	0	26.704	0	238.734	0	-1e10	8	-1e10	8	-1E+10	1	-1E+10	1	-1E+10	1	-1E+10	1	-1E+10	1	-1E+10	1
4902554	67	C	12/13/2022	20:05	-133.287	48.220	0	241.80	0	4.8890	0	33.7580	0	26.705	0	239.626	0	-1e10	8	-1e10	8	-1E+10	1	-1E+10	1	-1E+10	1	-1E+10	1	-1E+10	1	-1E+10	1
4902554	67	C	12/13/2022	20:05	-133.287	48.220	0	242.60	0	4.8780	0	33.7600	0	26.708	0	240.418	0	-1e10	8	-1e10	8	-1E+10	1	-1E+10	1	-1E+10	1	-1E+10	1	-1E+10	1	-1E+10	1
4902554	67	C	12/13/2022	20:05	-133.287	48.220	0	243.90	0	4.8520	0	33.7600	0	26.711	0	241.706	0	-1e10	8	-1e10	8	-1E+10	1	-1E+10	1	-1E+10	1	-1E+10	1	-1E+10	1	-1E+10	1
4902554	67	C	12/13/2022	20:05	-133.287	48.220	0	245.30	0	4.8320	0	33.7620	0	26.715	0	243.092	0	-1e10	8	-1e10	8	-1E+10	1	-1E+10	1	-1E+10	1	-1E+10	1	-1E+10	1	-1E+10	1
4902554	67	C	12/13/2022	20:05	-133.287	48.220	0	246.10	0	4.8190	0	33.7640	0	26.718	0	243.885	0	-1e10	8	-1e10	8	-1E+10	1	-1E+10	1	-1E+10	1	-1E+10	1	-1E+10	1	-1E+10	1
4902554	67	C	12/13/2022	20:05	-133.287	48.220	0	247.00	0	4.8150	0	33.7650	0	26.719	0	244.776	0	-1e10	8	-1e10	8	-1E+10	1	-1E+10	1	-1E+10	1	-1E+10	1	-1E+10	1	-1E+10	1
4902554	67	C	12/13/2022	20:05	-133.287	48.220	0	247.90	0	4.8120	0	33.7650	0	26.719	0	245.667	0	-1e10	8	-1e10	8	-1E+10	1	-1E+10	1	-1E+10	1	-1E+10	1	-1E+10	1	-1E+10	1
4902554	67	C	12/13/2022	20:05	-133.287	48.220	0	248.80	0	4.8100	0	33.7650	0	26.720	0	246.559	0	-1e10	8	-1e10	8	-1E+10	1	-1E+10	1	-1E+10	1	-1E+10	1	-1E+10	1	-1E+10	1
4902554	67	C	12/13/2022	20:05	-133.287	48.220	0	249.70	0	4.8100	0	33.7650	0	26.720	0	247.450	0	-1e10	8	-1e10	8	-1E+10	1	-1E+10	1	-1E+10	1	-1E+10	1	-1E+10	1	-1E+10	1
4902554	67	C	12/13/2022	20:05	-133.287	48.220	0	250.60	0	4.8080	0	33.7650	0	26.720	0	248.341	0	-1e10	8	-1e10	8	-1E+10	1	-1E+10	1	-1E+10	1	-1E+10	1	-1E+10	1	-1E+10	1
4902554	67	C	12/13/2022	20:05	-133.287	48.220	0	251.50	0	4.8050	0	33.7650	0	26.720	0	249.233	0	-1e10	8	-1e10	8	-1E+10	1	-1E+10	1	-1E+10	1	-1E+10	1	-1E+10	1	-1E+10	1
4902554	67	C	12/13/2022	20:05	-133.287	48.220	0	252.90	0	4.7970	0	33.7660	0	26.722	0	250.619	0	-1e10	8	-1e10	8	-1E+10	1	-1E+10	1	-1E+10	1	-1E+10	1	-1E+10	1	-1E+10	1
4902554	67	C	12/13/2022	20:05	-133.287	48.220	0	254.30	0	4.7840	0	33.7670	0	26.724	0	252.006	0	-1e10	8	-1e10	8	-1E+10	1	-1E+10	1	-1E+10	1	-1E+10	1	-1E+10	1	-1E+10	1
4902554	67	C	12/13/2022	20:05	-133.287	48.220	0	255.20	0	4.7680	0	33.7680	0	26.727	0	252.897	0	-1e10	8	-1e10	8	-1E+10	1	-1E+10	1	-1E+10	1	-1E+10	1	-1E+10	1	-1E+10	1
4902554	67	C	12/13/2022	20:05	-133.287	48.220	0	256.10	0	4.7660	0	33.7680	0	26.727	0	253.788	0	-1e10	8	-1e10	8	-1E+10	1	-1E+10	1	-1E+10	1	-1E+10	1	-1E+10	1	-1E+10	1
4902554	67	C	12/13/2022	20:05	-133.287	48.220	0	257.00	0	4.7640	0	33.7680	0	26.727	0	254.680	0	-1e10	8	-1e10	8	-1E+10	1	-1E+10	1	-1E+10	1	-1E+10	1	-1E+10	1	-1E+10	1
4902554	67	C	12/13/2022	20:05	-133.287	48.220	0	257.90	0	4.7610	0	33.7680	0	26.728	0	255.571	0	-1e10	8	-1e10	8	-1E+10	1	-1E+10	1	-1E+10	1	-1E+10	1	-1E+10	1	-1E+10	1
4902554	67	C	12/13/2022	20:05	-133.287	48.220	0	258.90	0	4.7510	0	33.7680	0	26.729	0	256.561	0	-1e10	8	-1e10	8	-1E+10	1	-1E+10	1	-1E+10	1	-1E+10	1	-1E+10	1	-1E+10	1
4902554	67	C	12/13/2022	20:05	-133.287	48.220	0	259.80	0	4.7450	0	33.7680	0	26.729	0	257.453	0	-1e10	8	-1e10	8	-1E+10	1	-1E+10	1	-1E+10	1	-1E+10	1	-1E+10	1	-1E+10	1
4902554	67	C	12/13/2022	20:05	-133.287	48.220	0	260.70	0	4.7270	0	33.7690	0	26.732	0	258.344	0	-1e10	8	-1e10	8	-1E+10	1	-1E+10	1	-1E+10	1	-1E+10	1	-1E+10	1	-1E+10	1
4902554	67	C	12/13/2022	20:05	-133.287	48.220	0	261.70	0	4.7000	0	33.7760	0	26.741	0	259.334	0	-1e10	8	-1e10	8	-1E+10	1	-1E+10	1	-1E+10	1	-1E+10	1	-1E+10	1	-1E+10	1
4902554	67	C	12/13/2022	20:05	-133.287	48.220	0	262.60	0	4.7000	0	33.7760	0	26.741	0	260.226	0	-1e10	8	-1e10	8	-1E+10	1	-1E+10	1	-1E+10	1	-1E+10	1	-1E+10	1	-1E+10	1
4902554	67	C	12/13/2022	20:05	-133.287	48.220	0	263.50	0	4.7000	0	33.7760	0	26.741	0	261.117	0	-1e10	8	-1e10	8	-1E+10	1	-1E+10	1	-1E+10	1	-1E+10	1	-1E+10	1	-1E+10	1
4902554	67	C	12/13/2022	20:05	-133.287	48.220	0	264.50	0	4.6970	0	33.7780	0	26.743	0	262.107	0	-1e10	8	-1e10	8	-1E+10	1	-1E+10	1	-1E+10	1	-1E+10	1	-1E+10	1	-1E+10	1
4902554	67	C	12/13/2022	20:05	-133.287	48.220	0	265.50	0	4.6970	0	33.7770	0	26.742	0	263.098	0	-1e10	8	-1e10	8	-1E+10	1	-1E+10	1	-1E+10	1	-1E+10	1	-1E+10	1	-1E+10	1
4902554	67	C	12/13/2022	20:05	-133.287	48.220	0	266.90	0	4.6930	0	33.7790	0	26.744	0	264.484	0	-1e10	8	-1e10	8	-1E+10	1	-1E+10	1	-1E+10	1	-1E+10	1	-1E+10	1	-1E+10	1
4902554	67	C	12/13/2022	20:05	-133.287	48.220	0	268.40	0	4.6840	0	33.7820	0	26.747	0	265.970	0	-1e10	8	-1e10	8	-1E+10	1	-1E+10	1	-1E+10	1	-1E+10	1	-1E+10	1	-1E+10	1
4902554	67	C	12/13/2022	20:05	-133.287	48.220	0	269.40	0	4.6790	0	33.7840	0	26.749	0	266.960	0	-1e10	8	-1e10	8	-1E+10	1	-1E+10	1	-1E+10	1	-1E+10	1	-1E+10	1	-1E+10	1
4902554	67	C	12/13/2022	20:05	-133.287	48.220	0	270.40	0	4.6770	0	33.7850	0	26.750	0	267.950	0	-1e10	8	-1e10	8	-1E+10	1	-1E+10	1	-1E+10	1	-1E+10	1	-1E+10	1	-1E+10	1
4902554	67	C	12/13/2022	20:05	-133.287	48.220	0	271.40	0	4.6750	0	33.7850	0	26.751	0	268.940	0	-1e10	8	-1e10	8	-1E+10	1	-1E+10	1	-1E+10	1	-1E+10	1	-1E+10	1	-1E+10	1
4902554	67	C	12/13/2022	20:05	-133.287	48.220	0	272.30	0	4.6750	0	33.7860	0	26.751	0	269.832	0	-1e10	8	-1e10	8	-1E+10	1	-1E+10	1	-1E+10	1	-1E+10	1	-1E+10	1	-1E+10	1
4902554	67	C	12/13/2022	20:05	-133.287	48.220	0	273.30	0	4.6740	0	33.7860	0	26.752	0	270.822	0	-1e10	8	-1e10	8	-1E+10	1	-1E+10	1	-1E+10	1	-1E+10	1	-1E+10	1	-1E+10	1
4902554	67	C	12/13/2022	20:05	-133.287	48.220	0	274.30	0	4.6730	0	33.7860	0	26.752	0	271.812	0	-1e10	8	-1e10	8	-1E+10	1	-1E+10	1	-1E+10	1	-1E+10	1	-1E+10	1	-1E+10	1
4902554	67	C	12/13/2022	20:05	-133.287	48.220	0	275.30	0	4.6720	0	33.7870	0	26.753	0	272.802	0	-1e10	8	-1e10	8	-1E+10	1	-1E+10	1	-1E+10	1	-1E+10	1	-1E+10	1	-1E+10	1
4902554	67	C	12/13/2022	20:05	-133.287	48.220	0	276.30	0	4.6730	0	33.7870	0	26.752	0	273.793	0	-1e10	8	-1e10	8	-1E+10	1	-1E+10	1	-1E+10	1	-1E+10	1	-1E+10	1	-1E+10	1
4902554	67	C	12/13/2022	20:05	-133.287	48.220	0	277.20	0	4.6740	0	33.7870	0	26.752	0	274.684	0	-1e10	8	-1e10	8	-1E+10	1	-1E+10	1	-1E+10	1	-1E+10	1	-1E+10	1	-1E+10	1
4902554	67	C	12/13/2022	20:05	-133.287	48.220	0	278.20	0	4.6750	0	33.7880	0	26.753	0	275.674	0	-1e10	8	-1e10	8	-1E+10	1	-1E+10	1	-1E+10	1	-1E+10	1	-1E+10	1	-1E+10	1
4902554	67	C	12/13/2022	20:05	-133.287	48.220	0	279.20	0	4.6770	0	33.7900	0	26.754	0	276.665	0	-1e10	8	-1e10	8	-1E+10	1	-1E+10	1	-1E+10	1	-1E+10	1	-1E+10	1	-1E+10	1
4902554	67	C	12/13/2022	20:05	-133.287	48.220	0	280.20	0	4.6760	0	33.7900	0	26.755	0	277.655	0	-1e10	8	-1e10	8	-1E+10	1	-1E+10	1	-1E+10	1	-1E+10	1	-1E+10	1	-1E+10	1
4902554	67	C	12/13/2022	20:05	-133.287	48.220	0	281.20	0	4.6780	0	33.7910	0	26.755	0	278.645	0	-1e10	8	-1e10	8	-1E+10	1	-1E+10	1	-1E+10	1	-1E+10	1	-1E+10	1	-1E+10	1
4902554	67	C	12/13/2022	20:05	-133.287	48.220	0	282.20	0	4.6800	0	33.7930	0	26.757	0	279.635	0	-1e10	8	-1e10	8	-1E+10	1	-1E+10	1	-1E+10	1	-1E+10	1	-1E+10	1	-1E+10	1
4902554	67	C	12/13/2022	20:05	-133.287	48.220	0	283.20	0	4.6900	0	33.7960	0	26.758	0	280.626	0	-1e10	8	-1e10	8	-1E+10	1	-1E+10	1	-1E+10	1	-1E+10	1	-1E+10	1	-1E+10	1
4902554	67	C	12/13/2022	20:05	-133.287	48.220	0	284.20	0	4.6890	0	33.7980	0	26.760	0	281.616	0	-1e10	8	-1e10	8	-1E+10	1	-1E+10	1	-1E+10	1	-1E+10	1	-1E+10	1	-1E+10	1
4902554	67	C	12/13/2022	20:05	-133.287	48.220	0	285.30	0	4.6910	0	33.8000	0	26.761	0	282.705	0	-1e10	8	-1e10	8	-1E+10	1	-1E+10	1	-1E+10	1	-1E+10	1	-1E+10	1	-1E+10	1
4902554	67	C	12/13/2022	20:05	-133.287	48.220	0	286.30	0	4.7050	0	33.8040	0	26.763	0	283.695	0	-1e10	8	-1e10	8	-1E+10	1	-1E+10	1	-1E+10	1	-1E+10	1	-1E+10	1	-1E+10	1
4902554	67	C	12/13/2022	20:05	-133.287	48.220	0	287.30	0	4.7040	0	33.8040	0	26.763	0	284.685	0	-1e10	8	-1e10	8	-1E+10	1	-1E+10	1	-1E+10	1	-1E+10	1	-1E+10	1	-1E+10	1
4902554	67	C	12/13/2022	20:05	-133.287	48.220	0	288.40	0	4.7040	0	33.8030	0	26.762	0	285.775	0	-1e10	8	-1e10	8	-1E+10	1	-1E+10	1	-1E+10	1	-1E+10	1	-1E+10	1	-1E+10	1
4902554	67	C	12/13/2022	20:05	-133.287	48.220	0	289.40	0	4.6860	0	33.8090	0	26.769	0	286.765	0	-1e10	8	-1e10	8	-1E+10	1	-1E+10	1	-1E+10	1	-1E+10	1	-1E+10	1	-1E+10	1
4902554	67	C	12/13/2022	20:05	-133.287	48.220	0	290.50	0	4.6840	0	33.8120	0	26.771	0	287.854	0	-1e10	8	-1e10	8	-1E+10	1	-1E+10	1	-1E+10	1	-1E+10	1	-1E+10	1	-1E+10	1
4902554	67	C	12/13/2022	20:05	-133.287	48.220	0	291.60	0	4.6890	0	33.8130	0	26.771	0	288.943	0	-1e10	8	-1e10	8	-1E+10	1	-1E+10	1	-1E+10	1	-1E+10	1	-1E+10	1	-1E+10	1
4902554	67	C	12/13/2022	20:05	-133.287	48.220	0	292.60	0	4.6890	0	33.8150	0	26.773	0	289.933	0	-1e10	8	-1e10	8	-1E+10	1	-1E+10	1	-1E+10	1	-1E+10	1	-1E+10	1	-1E+10	1
4902554	67	C	12/13/2022	20:05	-133.287	48.220	0	293.60	0	4.6880	0	33.8170	0	26.775	0	290.924	0	-1e10	8	-1e10	8	-1E+10	1	-1E+10	1	-1E+10	1	-1E+10	1	-1E+10	1	-1E+10	1
4902554	67	C	12/13/2022	20:05	-133.287	48.220	0	294.70	0	4.6830	0	33.8210	0	26.779	0	292.013	0	-1e10	8	-1e10	8	-1E+10	1	-1E+10	1	-1E+10	1	-1E+10	1	-1E+10	1	-1E+10	1
4902554	67	C	12/13/2022	20:05	-133.287	48.220	0	295.80	0	4.6840	0	33.8230	0	26.780	0	293.102	0	-1e10	8	-1e10	8	-1E+10	1	-1E+10	1	-1E+10	1	-1E+10	1	-1E+10	1	-1E+10	1
4902554	67	C	12/13/2022	20:05	-133.287	48.220	0	296.80	0	4.6770	0	33.8250	0	26.782	0	294.092	0	-1e10	8	-1e10	8	-1E+10	1	-1E+10	1	-1E+10	1	-1E+10	1	-1E+10	1	-1E+10	1
4902554	67	C	12/13/2022	20:05	-133.287	48.220	0	297.90	0	4.6680	0	33.8260	0	26.784	0	295.181	0	-1e10	8	-1e10	8	-1E+10	1	-1E+10	1	-1E+10	1	-1E+10	1	-1E+10	1	-1E+10	1
4902554	67	C	12/13/2022	20:05	-133.287	48.220	0	298.90	0	4.6690	0	33.8270	0	26.785	0	296.172	0	-1e10	8	-1e10	8	-1E+10	1	-1E+10	1	-1E+10	1	-1E+10	1	-1E+10	1	-1E+10	1
4902554	67	C	12/13/2022	20:05	-133.287	48.220	0	300.00	0	4.6690	0	33.8270	0	26.785	0	297.261	0	-1e10	8	-1e10	8	-1E+10	1	-1E+10	1	-1E+10	1	-1E+10	1	-1E+10	1	-1E+10	1
4902554	67	C	12/13/2022	20:05	-133.287	48.220	0	301.00	0	4.6680	0	33.8280	0	26.786	0	298.251	0	-1e10	8	-1e10	8	-1E+10	1	-1E+10	1	-1E+10	1	-1E+10	1	-1E+10	1	-1E+10	1
4902554	67	C	12/13/2022	20:05	-133.287	48.220	0	302.00	0	4.6640	0	33.8290	0	26.787	0	299.241	0	-1e10	8	-1e10	8	-1E+10	1	-1E+10	1	-1E+10	1	-1E+10	1	-1E+10	1	-1E+10	1
4902554	67	C	12/13/2022	20:05	-133.287	48.220	0	303.10	0	4.6430	0	33.8320	0	26.792	0	300.330	0	-1e10	8	-1e10	8	-1E+10	1	-1E+10	1	-1E+10	1	-1E+10	1	-1E+10	1	-1E+10	1
4902554	67	C	12/13/2022	20:05	-133.287	48.220	0	304.20	0	4.6310	0	33.8310	0	26.792	0	301.419	0	-1e10	8	-1e10	8	-1E+10	1	-1E+10	1	-1E+10	1	-1E+10	1	-1E+10	1	-1E+10	1
4902554	67	C	12/13/2022	20:05	-133.287	48.220	0	305.20	0	4.6270	0	33.8310	0	26.793	0	302.409	0	-1e10	8	-1e10	8	-1E+10	1	-1E+10	1	-1E+10	1	-1E+10	1	-1E+10	1	-1E+10	1
4902554	67	C	12/13/2022	20:05	-133.287	48.220	0	306.30	0	4.6140	0	33.8310	0	26.794	0	303.499	0	-1e10	8	-1e10	8	-1E+10	1	-1E+10	1	-1E+10	1	-1E+10	1	-1E+10	1	-1E+10	1
4902554	67	C	12/13/2022	20:05	-133.287	48.220	0	307.30	0	4.5970	0	33.8310	0	26.796	0	304.489	0	-1e10	8	-1e10	8	-1E+10	1	-1E+10	1	-1E+10	1	-1E+10	1	-1E+10	1	-1E+10	1
4902554	67	C	12/13/2022	20:05	-133.287	48.220	0	308.30	0	4.5920	0	33.8320	0	26.797	0	305.479	0	-1e10	8	-1e10	8	-1E+10	1	-1E+10	1	-1E+10	1	-1E+10	1	-1E+10	1	-1E+10	1
4902554	67	C	12/13/2022	20:05	-133.287	48.220	0	309.40	0	4.5850	0	33.8320	0	26.798	0	306.568	0	-1e10	8	-1e10	8	-1E+10	1	-1E+10	1	-1E+10	1	-1E+10	1	-1E+10	1	-1E+10	1
4902554	67	C	12/13/2022	20:05	-133.287	48.220	0	310.40	0	4.5730	0	33.8340	0	26.801	0	307.558	0	-1e10	8	-1e10	8	-1E+10	1	-1E+10	1	-1E+10	1	-1E+10	1	-1E+10	1	-1E+10	1
4902554	67	C	12/13/2022	20:05	-133.287	48.220	0	311.50	0	4.5700	0	33.8340	0	26.801	0	308.647	0	-1e10	8	-1e10	8	-1E+10	1	-1E+10	1	-1E+10	1	-1E+10	1	-1E+10	1	-1E+10	1
4902554	67	C	12/13/2022	20:05	-133.287	48.220	0	312.50	0	4.5690	0	33.8350	0	26.802	0	309.637	0	-1e10	8	-1e10	8	-1E+10	1	-1E+10	1	-1E+10	1	-1E+10	1	-1E+10	1	-1E+10	1
4902554	67	C	12/13/2022	20:05	-133.287	48.220	0	313.60	0	4.5680	0	33.8350	0	26.802	0	310.726	0	-1e10	8	-1e10	8	-1E+10	1	-1E+10	1	-1E+10	1	-1E+10	1	-1E+10	1	-1E+10	1
4902554	67	C	12/13/2022	20:05	-133.287	48.220	0	314.60	0	4.5530	0	33.8400	0	26.808	0	311.716	0	-1e10	8	-1e10	8	-1E+10	1	-1E+10	1	-1E+10	1	-1E+10	1	-1E+10	1	-1E+10	1
4902554	67	C	12/13/2022	20:05	-133.287	48.220	0	315.60	0	4.5480	0	33.8400	0	26.808	0	312.707	0	-1e10	8	-1e10	8	-1E+10	1	-1E+10	1	-1E+10	1	-1E+10	1	-1E+10	1	-1E+10	1
4902554	67	C	12/13/2022	20:05	-133.287	48.220	0	316.70	0	4.5460	0	33.8410	0	26.809	0	313.796	0	-1e10	8	-1e10	8	-1E+10	1	-1E+10	1	-1E+10	1	-1E+10	1	-1E+10	1	-1E+10	1
4902554	67	C	12/13/2022	20:05	-133.287	48.220	0	317.80	0	4.5430	0	33.8420	0	26.811	0	314.885	0	-1e10	8	-1e10	8	-1E+10	1	-1E+10	1	-1E+10	1	-1E+10	1	-1E+10	1	-1E+10	1
4902554	67	C	12/13/2022	20:05	-133.287	48.220	0	318.80	0	4.5430	0	33.8420	0	26.811	0	315.875	0	-1e10	8	-1e10	8	-1E+10	1	-1E+10	1	-1E+10	1	-1E+10	1	-1E+10	1	-1E+10	1
4902554	67	C	12/13/2022	20:05	-133.287	48.220	0	319.80	0	4.5430	0	33.8420	0	26.811	0	316.865	0	-1e10	8	-1e10	8	-1E+10	1	-1E+10	1	-1E+10	1	-1E+10	1	-1E+10	1	-1E+10	1
4902554	67	C	12/13/2022	20:05	-133.287	48.220	0	320.90	0	4.5420	0	33.8420	0	26.811	0	317.954	0	-1e10	8	-1e10	8	-1E+10	1	-1E+10	1	-1E+10	1	-1E+10	1	-1E+10	1	-1E+10	1
4902554	67	C	12/13/2022	20:05	-133.287	48.220	0	322.00	0	4.5370	0	33.8430	0	26.812	0	319.043	0	-1e10	8	-1e10	8	-1E+10	1	-1E+10	1	-1E+10	1	-1E+10	1	-1E+10	1	-1E+10	1
4902554	67	C	12/13/2022	20:05	-133.287	48.220	0	323.00	0	4.5330	0	33.8440	0	26.813	0	320.033	0	-1e10	8	-1e10	8	-1E+10	1	-1E+10	1	-1E+10	1	-1E+10	1	-1E+10	1	-1E+10	1
4902554	67	C	12/13/2022	20:05	-133.287	48.220	0	324.00	0	4.5250	0	33.8460	0	26.816	0	321.023	0	-1e10	8	-1e10	8	-1E+10	1	-1E+10	1	-1E+10	1	-1E+10	1	-1E+10	1	-1E+10	1
4902554	67	C	12/13/2022	20:05	-133.287	48.220	0	325.10	0	4.5230	0	33.8470	0	26.817	0	322.112	0	-1e10	8	-1e10	8	-1E+10	1	-1E+10	1	-1E+10	1	-1E+10	1	-1E+10	1	-1E+10	1
4902554	67	C	12/13/2022	20:05	-133.287	48.220	0	326.10	0	4.5080	0	33.8510	0	26.822	0	323.102	0	-1e10	8	-1e10	8	-1E+10	1	-1E+10	1	-1E+10	1	-1E+10	1	-1E+10	1	-1E+10	1
4902554	67	C	12/13/2022	20:05	-133.287	48.220	0	327.10	0	4.5050	0	33.8520	0	26.823	0	324.092	0	-1e10	8	-1e10	8	-1E+10	1	-1E+10	1	-1E+10	1	-1E+10	1	-1E+10	1	-1E+10	1
4902554	67	C	12/13/2022	20:05	-133.287	48.220	0	328.10	0	4.5030	0	33.8520	0	26.823	0	325.082	0	-1e10	8	-1e10	8	-1E+10	1	-1E+10	1	-1E+10	1	-1E+10	1	-1E+10	1	-1E+10	1
4902554	67	C	12/13/2022	20:05	-133.287	48.220	0	329.00	0	4.5000	0	33.8530	0	26.824	0	325.973	0	-1e10	8	-1e10	8	-1E+10	1	-1E+10	1	-1E+10	1	-1E+10	1	-1E+10	1	-1E+10	1
4902554	67	C	12/13/2022	20:05	-133.287	48.220	0	329.80	0	4.4930	0	33.8520	0	26.824	0	326.765	0	-1e10	8	-1e10	8	-1E+10	1	-1E+10	1	-1E+10	1	-1E+10	1	-1E+10	1	-1E+10	1
4902554	67	C	12/13/2022	20:05	-133.287	48.220	0	330.90	0	4.4910	0	33.8530	0	26.825	0	327.854	0	-1e10	8	-1e10	8	-1E+10	1	-1E+10	1	-1E+10	1	-1E+10	1	-1E+10	1	-1E+10	1
4902554	67	C	12/13/2022	20:05	-133.287	48.220	0	332.10	0	4.4890	0	33.8520	0	26.824	0	329.042	0	-1e10	8	-1e10	8	-1E+10	1	-1E+10	1	-1E+10	1	-1E+10	1	-1E+10	1	-1E+10	1
4902554	67	C	12/13/2022	20:05	-133.287	48.220	0	332.80	0	4.4820	0	33.8540	0	26.827	0	329.735	0	-1e10	8	-1e10	8	-1E+10	1	-1E+10	1	-1E+10	1	-1E+10	1	-1E+10	1	-1E+10	1
4902554	67	C	12/13/2022	20:05	-133.287	48.220	0	334.00	0	4.4800	0	33.8530	0	26.826	0	330.923	0	-1e10	8	-1e10	8	-1E+10	1	-1E+10	1	-1E+10	1	-1E+10	1	-1E+10	1	-1E+10	1
4902554	67	C	12/13/2022	20:05	-133.287	48.220	0	335.10	0	4.4730	0	33.8500	0	26.825	0	332.012	0	-1e10	8	-1e10	8	-1E+10	1	-1E+10	1	-1E+10	1	-1E+10	1	-1E+10	1	-1E+10	1
4902554	67	C	12/13/2022	20:05	-133.287	48.220	0	335.90	0	4.4790	0	33.8560	0	26.829	0	332.804	0	-1e10	8	-1e10	8	-1E+10	1	-1E+10	1	-1E+10	1	-1E+10	1	-1E+10	1	-1E+10	1
4902554	67	C	12/13/2022	20:05	-133.287	48.220	0	337.00	0	4.4810	0	33.8570	0	26.829	0	333.893	0	-1e10	8	-1e10	8	-1E+10	1	-1E+10	1	-1E+10	1	-1E+10	1	-1E+10	1	-1E+10	1
4902554	67	C	12/13/2022	20:05	-133.287	48.220	0	338.20	0	4.4610	0	33.8570	0	26.831	0	335.081	0	-1e10	8	-1e10	8	-1E+10	1	-1E+10	1	-1E+10	1	-1E+10	1	-1E+10	1	-1E+10	1
4902554	67	C	12/13/2022	20:05	-133.287	48.220	0	339.00	0	4.4580	0	33.8560	0	26.831	0	335.873	0	-1e10	8	-1e10	8	-1E+10	1	-1E+10	1	-1E+10	1	-1E+10	1	-1E+10	1	-1E+10	1
4902554	67	C	12/13/2022	20:05	-133.287	48.220	0	339.80	0	4.4460	0	33.8600	0	26.835	0	336.665	0	-1e10	8	-1e10	8	-1E+10	1	-1E+10	1	-1E+10	1	-1E+10	1	-1E+10	1	-1E+10	1
4902554	67	C	12/13/2022	20:05	-133.287	48.220	0	341.00	0	4.4460	0	33.8560	0	26.832	0	337.853	0	-1e10	8	-1e10	8	-1E+10	1	-1E+10	1	-1E+10	1	-1E+10	1	-1E+10	1	-1E+10	1
4902554	67	C	12/13/2022	20:05	-133.287	48.220	0	342.20	0	4.4510	0	33.8570	0	26.833	0	339.041	0	-1e10	8	-1e10	8	-1E+10	1	-1E+10	1	-1E+10	1	-1E+10	1	-1E+10	1	-1E+10	1
4902554	67	C	12/13/2022	20:05	-133.287	48.220	0	343.00	0	4.4440	0	33.8600	0	26.836	0	339.833	0	-1e10	8	-1e10	8	-1E+10	1	-1E+10	1	-1E+10	1	-1E+10	1	-1E+10	1	-1E+10	1
4902554	67	C	12/13/2022	20:05	-133.287	48.220	0	343.90	0	4.4440	0	33.8610	0	26.836	0	340.724	0	-1e10	8	-1e10	8	-1E+10	1	-1E+10	1	-1E+10	1	-1E+10	1	-1E+10	1	-1E+10	1
4902554	67	C	12/13/2022	20:05	-133.287	48.220	0	344.70	0	4.4380	0	33.8620	0	26.838	0	341.516	0	-1e10	8	-1e10	8	-1E+10	1	-1E+10	1	-1E+10	1	-1E+10	1	-1E+10	1	-1E+10	1
4902554	67	C	12/13/2022	20:05	-133.287	48.220	0	345.90	0	4.4250	0	33.8640	0	26.841	0	342.704	0	-1e10	8	-1e10	8	-1E+10	1	-1E+10	1	-1E+10	1	-1E+10	1	-1E+10	1	-1E+10	1
4902554	67	C	12/13/2022	20:05	-133.287	48.220	0	347.10	0	4.4230	0	33.8640	0	26.841	0	343.892	0	-1e10	8	-1e10	8	-1E+10	1	-1E+10	1	-1E+10	1	-1E+10	1	-1E+10	1	-1E+10	1
4902554	67	C	12/13/2022	20:05	-133.287	48.220	0	348.00	0	4.4210	0	33.8650	0	26.842	0	344.782	0	-1e10	8	-1e10	8	-1E+10	1	-1E+10	1	-1E+10	1	-1E+10	1	-1E+10	1	-1E+10	1
4902554	67	C	12/13/2022	20:05	-133.287	48.220	0	348.80	0	4.4210	0	33.8660	0	26.843	0	345.574	0	-1e10	8	-1e10	8	-1E+10	1	-1E+10	1	-1E+10	1	-1E+10	1	-1E+10	1	-1E+10	1
4902554	67	C	12/13/2022	20:05	-133.287	48.220	0	350.00	0	4.4210	0	33.8670	0	26.844	0	346.762	0	-1e10	8	-1e10	8	-1E+10	1	-1E+10	1	-1E+10	1	-1E+10	1	-1E+10	1	-1E+10	1
4902554	67	C	12/13/2022	20:05	-133.287	48.220	0	353.30	0	4.4000	0	33.8730	0	26.851	0	350.029	0	-1e10	8	-1e10	8	-1E+10	1	-1E+10	1	-1E+10	1	-1E+10	1	-1E+10	1	-1E+10	1
4902554	67	C	12/13/2022	20:05	-133.287	48.220	0	357.90	0	4.3700	0	33.8820	0	26.861	0	354.582	0	-1e10	8	-1e10	8	-1E+10	1	-1E+10	1	-1E+10	1	-1E+10	1	-1E+10	1	-1E+10	1
4902554	67	C	12/13/2022	20:05	-133.287	48.220	0	362.60	0	4.3660	0	33.8850	0	26.864	0	359.235	0	-1e10	8	-1e10	8	-1E+10	1	-1E+10	1	-1E+10	1	-1E+10	1	-1E+10	1	-1E+10	1
4902554	67	C	12/13/2022	20:05	-133.287	48.220	0	367.80	0	4.3580	0	33.8940	0	26.872	0	364.382	0	-1e10	8	-1e10	8	-1E+10	1	-1E+10	1	-1E+10	1	-1E+10	1	-1E+10	1	-1E+10	1
4902554	67	C	12/13/2022	20:05	-133.287	48.220	0	372.80	0	4.3520	0	33.9020	0	26.879	0	369.331	0	-1e10	8	-1e10	8	-1E+10	1	-1E+10	1	-1E+10	1	-1E+10	1	-1E+10	1	-1E+10	1
4902554	67	C	12/13/2022	20:05	-133.287	48.220	0	377.90	0	4.3470	0	33.9100	0	26.886	0	374.379	0	-1e10	8	-1e10	8	-1E+10	1	-1E+10	1	-1E+10	1	-1E+10	1	-1E+10	1	-1E+10	1
4902554	67	C	12/13/2022	20:05	-133.287	48.220	0	383.10	0	4.3520	0	33.9150	0	26.889	0	379.526	0	-1e10	8	-1e10	8	-1E+10	1	-1E+10	1	-1E+10	1	-1E+10	1	-1E+10	1	-1E+10	1
4902554	67	C	12/13/2022	20:05	-133.287	48.220	0	387.90	0	4.3450	0	33.9200	0	26.894	0	384.277	0	-1e10	8	-1e10	8	-1E+10	1	-1E+10	1	-1E+10	1	-1E+10	1	-1E+10	1	-1E+10	1
4902554	67	C	12/13/2022	20:05	-133.287	48.220	0	392.70	0	4.3330	0	33.9250	0	26.899	0	389.027	0	-1e10	8	-1e10	8	-1E+10	1	-1E+10	1	-1E+10	1	-1E+10	1	-1E+10	1	-1E+10	1
4902554	67	C	12/13/2022	20:05	-133.287	48.220	0	397.60	0	4.3170	0	33.9330	0	26.908	0	393.877	0	-1e10	8	-1e10	8	-1E+10	1	-1E+10	1	-1E+10	1	-1E+10	1	-1E+10	1	-1E+10	1
4902554	67	C	12/13/2022	20:05	-133.287	48.220	0	402.60	0	4.3010	0	33.9390	0	26.914	0	398.825	0	-1e10	8	-1e10	8	-1E+10	1	-1E+10	1	-1E+10	1	-1E+10	1	-1E+10	1	-1E+10	1
4902554	67	C	12/13/2022	20:05	-133.287	48.220	0	407.70	0	4.2800	0	33.9460	0	26.922	0	403.872	0	-1e10	8	-1e10	8	-1E+10	1	-1E+10	1	-1E+10	1	-1E+10	1	-1E+10	1	-1E+10	1
4902554	67	C	12/13/2022	20:05	-133.287	48.220	0	412.70	0	4.2600	0	33.9530	0	26.930	0	408.821	0	-1e10	8	-1e10	8	-1E+10	1	-1E+10	1	-1E+10	1	-1E+10	1	-1E+10	1	-1E+10	1
4902554	67	C	12/13/2022	20:05	-133.287	48.220	0	417.80	0	4.2480	0	33.9570	0	26.934	0	413.868	0	-1e10	8	-1e10	8	-1E+10	1	-1E+10	1	-1E+10	1	-1E+10	1	-1E+10	1	-1E+10	1
4902554	67	C	12/13/2022	20:05	-133.287	48.220	0	422.80	0	4.2320	0	33.9620	0	26.940	0	418.815	0	-1e10	8	-1e10	8	-1E+10	1	-1E+10	1	-1E+10	1	-1E+10	1	-1E+10	1	-1E+10	1
4902554	67	C	12/13/2022	20:05	-133.287	48.220	0	427.90	0	4.2170	0	33.9680	0	26.946	0	423.862	0	-1e10	8	-1e10	8	-1E+10	1	-1E+10	1	-1E+10	1	-1E+10	1	-1E+10	1	-1E+10	1
4902554	67	C	12/13/2022	20:05	-133.287	48.220	0	433.00	0	4.1980	0	33.9750	0	26.954	0	428.909	0	-1e10	8	-1e10	8	-1E+10	1	-1E+10	1	-1E+10	1	-1E+10	1	-1E+10	1	-1E+10	1
4902554	67	C	12/13/2022	20:05	-133.287	48.220	0	438.10	0	4.1900	0	33.9790	0	26.958	0	433.955	0	-1e10	8	-1e10	8	-1E+10	1	-1E+10	1	-1E+10	1	-1E+10	1	-1E+10	1	-1E+10	1
4902554	67	C	12/13/2022	20:05	-133.287	48.220	0	443.10	0	4.1870	0	33.9810	0	26.960	0	438.903	0	-1e10	8	-1e10	8	-1E+10	1	-1E+10	1	-1E+10	1	-1E+10	1	-1E+10	1	-1E+10	1
4902554	67	C	12/13/2022	20:05	-133.287	48.220	0	448.10	0	4.1780	0	33.9890	0	26.967	0	443.850	0	-1e10	8	-1e10	8	-1E+10	1	-1E+10	1	-1E+10	1	-1E+10	1	-1E+10	1	-1E+10	1
4902554	67	C	12/13/2022	20:05	-133.287	48.220	0	453.10	0	4.1640	0	33.9970	0	26.975	0	448.797	0	-1e10	8	-1e10	8	-1E+10	1	-1E+10	1	-1E+10	1	-1E+10	1	-1E+10	1	-1E+10	1
4902554	67	C	12/13/2022	20:05	-133.287	48.220	0	458.20	0	4.1600	0	34.0000	0	26.978	0	453.843	0	-1e10	8	-1e10	8	-1E+10	1	-1E+10	1	-1E+10	1	-1E+10	1	-1E+10	1	-1E+10	1
4902554	67	C	12/13/2022	20:05	-133.287	48.220	0	463.30	0	4.1550	0	34.0040	0	26.981	0	458.889	0	-1e10	8	-1e10	8	-1E+10	1	-1E+10	1	-1E+10	1	-1E+10	1	-1E+10	1	-1E+10	1
4902554	67	C	12/13/2022	20:05	-133.287	48.220	0	468.40	0	4.1500	0	34.0090	0	26.986	0	463.935	0	-1e10	8	-1e10	8	-1E+10	1	-1E+10	1	-1E+10	1	-1E+10	1	-1E+10	1	-1E+10	1
4902554	67	C	12/13/2022	20:05	-133.287	48.220	0	472.90	0	4.1470	0	34.0120	0	26.989	0	468.387	0	-1e10	8	-1e10	8	-1E+10	1	-1E+10	1	-1E+10	1	-1E+10	1	-1E+10	1	-1E+10	1
4902554	67	C	12/13/2022	20:05	-133.287	48.220	0	477.50	0	4.1460	0	34.0130	0	26.990	0	472.938	0	-1e10	8	-1e10	8	-1E+10	1	-1E+10	1	-1E+10	1	-1E+10	1	-1E+10	1	-1E+10	1
4902554	67	C	12/13/2022	20:05	-133.287	48.220	0	482.50	0	4.1400	0	34.0180	0	26.994	0	477.884	0	-1e10	8	-1e10	8	-1E+10	1	-1E+10	1	-1E+10	1	-1E+10	1	-1E+10	1	-1E+10	1
4902554	67	C	12/13/2022	20:05	-133.287	48.220	0	487.60	0	4.1390	0	34.0200	0	26.996	0	482.929	0	-1e10	8	-1e10	8	-1E+10	1	-1E+10	1	-1E+10	1	-1E+10	1	-1E+10	1	-1E+10	1
4902554	67	C	12/13/2022	20:05	-133.287	48.220	0	492.60	0	4.1370	0	34.0220	0	26.998	0	487.876	0	-1e10	8	-1e10	8	-1E+10	1	-1E+10	1	-1E+10	1	-1E+10	1	-1E+10	1	-1E+10	1
4902554	67	C	12/13/2022	20:05	-133.287	48.220	0	497.70	0	4.1300	0	34.0280	0	27.003	0	492.921	0	-1e10	8	-1e10	8	-1E+10	1	-1E+10	1	-1E+10	1	-1E+10	1	-1E+10	1	-1E+10	1
4902554	67	C	12/13/2022	20:05	-133.287	48.220	0	502.80	0	4.1240	0	34.0340	0	27.009	0	497.966	0	-1e10	8	-1e10	8	-1E+10	1	-1E+10	1	-1E+10	1	-1E+10	1	-1E+10	1	-1E+10	1
4902554	67	C	12/13/2022	20:05	-133.287	48.220	0	508.00	0	4.1110	0	34.0490	0	27.022	0	503.109	0	-1e10	8	-1e10	8	-1E+10	1	-1E+10	1	-1E+10	1	-1E+10	1	-1E+10	1	-1E+10	1
4902554	67	C	12/13/2022	20:05	-133.287	48.220	0	513.30	0	4.1090	0	34.0530	0	27.026	0	508.352	0	-1e10	8	-1e10	8	-1E+10	1	-1E+10	1	-1E+10	1	-1E+10	1	-1E+10	1	-1E+10	1
4902554	67	C	12/13/2022	20:05	-133.287	48.220	0	518.10	0	4.1060	0	34.0570	0	27.029	0	513.100	0	-1e10	8	-1e10	8	-1E+10	1	-1E+10	1	-1E+10	1	-1E+10	1	-1E+10	1	-1E+10	1
4902554	67	C	12/13/2022	20:05	-133.287	48.220	0	522.70	0	4.1000	0	34.0600	0	27.032	0	517.649	0	-1e10	8	-1e10	8	-1E+10	1	-1E+10	1	-1E+10	1	-1E+10	1	-1E+10	1	-1E+10	1
4902554	67	C	12/13/2022	20:05	-133.287	48.220	0	527.90	0	4.0900	0	34.0670	0	27.039	0	522.793	0	-1e10	8	-1e10	8	-1E+10	1	-1E+10	1	-1E+10	1	-1E+10	1	-1E+10	1	-1E+10	1
4902554	67	C	12/13/2022	20:05	-133.287	48.220	0	533.20	0	4.0680	0	34.0780	0	27.050	0	528.035	0	-1e10	8	-1e10	8	-1E+10	1	-1E+10	1	-1E+10	1	-1E+10	1	-1E+10	1	-1E+10	1
4902554	67	C	12/13/2022	20:05	-133.287	48.220	0	538.10	0	4.0600	0	34.0810	0	27.053	0	532.881	0	-1e10	8	-1e10	8	-1E+10	1	-1E+10	1	-1E+10	1	-1E+10	1	-1E+10	1	-1E+10	1
4902554	67	C	12/13/2022	20:05	-133.287	48.220	0	543.00	0	4.0470	0	34.0870	0	27.059	0	537.727	0	-1e10	8	-1e10	8	-1E+10	1	-1E+10	1	-1E+10	1	-1E+10	1	-1E+10	1	-1E+10	1
4902554	67	C	12/13/2022	20:05	-133.287	48.220	0	547.90	0	4.0230	0	34.0980	0	27.070	0	542.573	0	-1e10	8	-1e10	8	-1E+10	1	-1E+10	1	-1E+10	1	-1E+10	1	-1E+10	1	-1E+10	1
4902554	67	C	12/13/2022	20:05	-133.287	48.220	0	552.90	0	4.0120	0	34.1030	0	27.076	0	547.518	0	-1e10	8	-1e10	8	-1E+10	1	-1E+10	1	-1E+10	1	-1E+10	1	-1E+10	1	-1E+10	1
4902554	67	C	12/13/2022	20:05	-133.287	48.220	0	558.00	0	4.0100	0	34.1040	0	27.077	0	552.562	0	-1e10	8	-1e10	8	-1E+10	1	-1E+10	1	-1E+10	1	-1E+10	1	-1E+10	1	-1E+10	1
4902554	67	C	12/13/2022	20:05	-133.287	48.220	0	563.20	0	4.0060	0	34.1050	0	27.078	0	557.704	0	-1e10	8	-1e10	8	-1E+10	1	-1E+10	1	-1E+10	1	-1E+10	1	-1E+10	1	-1E+10	1
4902554	67	C	12/13/2022	20:05	-133.287	48.220	0	567.80	0	3.9960	0	34.1100	0	27.083	0	562.253	0	-1e10	8	-1e10	8	-1E+10	1	-1E+10	1	-1E+10	1	-1E+10	1	-1E+10	1	-1E+10	1
4902554	67	C	12/13/2022	20:05	-133.287	48.220	0	572.70	0	3.9790	0	34.1180	0	27.091	0	567.098	0	-1e10	8	-1e10	8	-1E+10	1	-1E+10	1	-1E+10	1	-1E+10	1	-1E+10	1	-1E+10	1
4902554	67	C	12/13/2022	20:05	-133.287	48.220	0	577.70	0	3.9740	0	34.1210	0	27.094	0	572.042	0	-1e10	8	-1e10	8	-1E+10	1	-1E+10	1	-1E+10	1	-1E+10	1	-1E+10	1	-1E+10	1
4902554	67	C	12/13/2022	20:05	-133.287	48.220	0	582.80	0	3.9680	0	34.1240	0	27.097	0	577.085	0	-1e10	8	-1e10	8	-1E+10	1	-1E+10	1	-1E+10	1	-1E+10	1	-1E+10	1	-1E+10	1
4902554	67	C	12/13/2022	20:05	-133.287	48.220	0	588.00	0	3.9500	0	34.1320	0	27.105	0	582.227	0	-1e10	8	-1e10	8	-1E+10	1	-1E+10	1	-1E+10	1	-1E+10	1	-1E+10	1	-1E+10	1
4902554	67	C	12/13/2022	20:05	-133.287	48.220	0	592.70	0	3.9330	0	34.1380	0	27.112	0	586.874	0	-1e10	8	-1e10	8	-1E+10	1	-1E+10	1	-1E+10	1	-1E+10	1	-1E+10	1	-1E+10	1
4902554	67	C	12/13/2022	20:05	-133.287	48.220	0	597.90	0	3.9210	0	34.1430	0	27.117	0	592.016	0	-1e10	8	-1e10	8	-1E+10	1	-1E+10	1	-1E+10	1	-1E+10	1	-1E+10	1	-1E+10	1
4902554	67	C	12/13/2022	20:05	-133.287	48.220	0	603.10	0	3.9130	0	34.1470	0	27.121	0	597.157	0	-1e10	8	-1e10	8	-1E+10	1	-1E+10	1	-1E+10	1	-1E+10	1	-1E+10	1	-1E+10	1
4902554	67	C	12/13/2022	20:05	-133.287	48.220	0	607.80	0	3.9010	0	34.1520	0	27.126	0	601.804	0	-1e10	8	-1e10	8	-1E+10	1	-1E+10	1	-1E+10	1	-1E+10	1	-1E+10	1	-1E+10	1
4902554	67	C	12/13/2022	20:05	-133.287	48.220	0	612.90	0	3.8900	0	34.1560	0	27.130	0	606.846	0	-1e10	8	-1e10	8	-1E+10	1	-1E+10	1	-1E+10	1	-1E+10	1	-1E+10	1	-1E+10	1
4902554	67	C	12/13/2022	20:05	-133.287	48.220	0	618.00	0	3.8850	0	34.1590	0	27.133	0	611.889	0	-1e10	8	-1e10	8	-1E+10	1	-1E+10	1	-1E+10	1	-1E+10	1	-1E+10	1	-1E+10	1
4902554	67	C	12/13/2022	20:05	-133.287	48.220	0	623.00	0	3.8830	0	34.1590	0	27.134	0	616.832	0	-1e10	8	-1e10	8	-1E+10	1	-1E+10	1	-1E+10	1	-1E+10	1	-1E+10	1	-1E+10	1
4902554	67	C	12/13/2022	20:05	-133.287	48.220	0	628.00	0	3.8750	0	34.1620	0	27.137	0	621.775	0	-1e10	8	-1e10	8	-1E+10	1	-1E+10	1	-1E+10	1	-1E+10	1	-1E+10	1	-1E+10	1
4902554	67	C	12/13/2022	20:05	-133.287	48.220	0	633.10	0	3.8630	0	34.1690	0	27.144	0	626.816	0	-1e10	8	-1e10	8	-1E+10	1	-1E+10	1	-1E+10	1	-1E+10	1	-1E+10	1	-1E+10	1
4902554	67	C	12/13/2022	20:05	-133.287	48.220	0	638.20	0	3.8520	0	34.1720	0	27.147	0	631.858	0	-1e10	8	-1e10	8	-1E+10	1	-1E+10	1	-1E+10	1	-1E+10	1	-1E+10	1	-1E+10	1
4902554	67	C	12/13/2022	20:05	-133.287	48.220	0	642.80	0	3.8390	0	34.1770	0	27.153	0	636.405	0	-1e10	8	-1e10	8	-1E+10	1	-1E+10	1	-1E+10	1	-1E+10	1	-1E+10	1	-1E+10	1
4902554	67	C	12/13/2022	20:05	-133.287	48.220	0	647.90	0	3.8220	0	34.1810	0	27.157	0	641.447	0	-1e10	8	-1e10	8	-1E+10	1	-1E+10	1	-1E+10	1	-1E+10	1	-1E+10	1	-1E+10	1
4902554	67	C	12/13/2022	20:05	-133.287	48.220	0	653.10	0	3.8080	0	34.1840	0	27.161	0	646.587	0	-1e10	8	-1e10	8	-1E+10	1	-1E+10	1	-1E+10	1	-1E+10	1	-1E+10	1	-1E+10	1
4902554	67	C	12/13/2022	20:05	-133.287	48.220	0	657.80	0	3.7910	0	34.1880	0	27.166	0	651.233	0	-1e10	8	-1e10	8	-1E+10	1	-1E+10	1	-1E+10	1	-1E+10	1	-1E+10	1	-1E+10	1
4902554	67	C	12/13/2022	20:05	-133.287	48.220	0	663.00	0	3.7770	0	34.1920	0	27.171	0	656.373	0	-1e10	8	-1e10	8	-1E+10	1	-1E+10	1	-1E+10	1	-1E+10	1	-1E+10	1	-1E+10	1
4902554	67	C	12/13/2022	20:05	-133.287	48.220	0	668.20	0	3.7630	0	34.1960	0	27.175	0	661.512	0	-1e10	8	-1e10	8	-1E+10	1	-1E+10	1	-1E+10	1	-1E+10	1	-1E+10	1	-1E+10	1
4902554	67	C	12/13/2022	20:05	-133.287	48.220	0	673.00	0	3.7450	0	34.2010	0	27.181	0	666.257	0	-1e10	8	-1e10	8	-1E+10	1	-1E+10	1	-1E+10	1	-1E+10	1	-1E+10	1	-1E+10	1
4902554	67	C	12/13/2022	20:05	-133.287	48.220	0	677.80	0	3.7250	0	34.2070	0	27.188	0	671.001	0	-1e10	8	-1e10	8	-1E+10	1	-1E+10	1	-1E+10	1	-1E+10	1	-1E+10	1	-1E+10	1
4902554	67	C	12/13/2022	20:05	-133.287	48.220	0	682.60	0	3.7130	0	34.2090	0	27.191	0	675.745	0	-1e10	8	-1e10	8	-1E+10	1	-1E+10	1	-1E+10	1	-1E+10	1	-1E+10	1	-1E+10	1
4902554	67	C	12/13/2022	20:05	-133.287	48.220	0	687.80	0	3.6930	0	34.2140	0	27.197	0	680.884	0	-1e10	8	-1e10	8	-1E+10	1	-1E+10	1	-1E+10	1	-1E+10	1	-1E+10	1	-1E+10	1
4902554	67	C	12/13/2022	20:05	-133.287	48.220	0	693.00	0	3.6740	0	34.2190	0	27.203	0	686.023	0	-1e10	8	-1e10	8	-1E+10	1	-1E+10	1	-1E+10	1	-1E+10	1	-1E+10	1	-1E+10	1
4902554	67	C	12/13/2022	20:05	-133.287	48.220	0	697.80	0	3.6660	0	34.2210	0	27.205	0	690.767	0	-1e10	8	-1e10	8	-1E+10	1	-1E+10	1	-1E+10	1	-1E+10	1	-1E+10	1	-1E+10	1
4902554	67	C	12/13/2022	20:05	-133.287	48.220	0	702.60	0	3.6580	0	34.2230	0	27.207	0	695.511	0	-1e10	8	-1e10	8	-1E+10	1	-1E+10	1	-1E+10	1	-1E+10	1	-1E+10	1	-1E+10	1
4902554	67	C	12/13/2022	20:05	-133.287	48.220	0	707.60	0	3.6460	0	34.2270	0	27.212	0	700.452	0	-1e10	8	-1e10	8	-1E+10	1	-1E+10	1	-1E+10	1	-1E+10	1	-1E+10	1	-1E+10	1
4902554	67	C	12/13/2022	20:05	-133.287	48.220	0	712.60	0	3.6390	0	34.2300	0	27.215	0	705.393	0	-1e10	8	-1e10	8	-1E+10	1	-1E+10	1	-1E+10	1	-1E+10	1	-1E+10	1	-1E+10	1
4902554	67	C	12/13/2022	20:05	-133.287	48.220	0	717.60	0	3.6310	0	34.2320	0	27.217	0	710.334	0	-1e10	8	-1e10	8	-1E+10	1	-1E+10	1	-1E+10	1	-1E+10	1	-1E+10	1	-1E+10	1
4902554	67	C	12/13/2022	20:05	-133.287	48.220	0	722.90	0	3.6140	0	34.2380	0	27.224	0	715.571	0	-1e10	8	-1e10	8	-1E+10	1	-1E+10	1	-1E+10	1	-1E+10	1	-1E+10	1	-1E+10	1
4902554	67	C	12/13/2022	20:05	-133.287	48.220	0	727.80	0	3.6100	0	34.2410	0	27.227	0	720.413	0	-1e10	8	-1e10	8	-1E+10	1	-1E+10	1	-1E+10	1	-1E+10	1	-1E+10	1	-1E+10	1
4902554	67	C	12/13/2022	20:05	-133.287	48.220	0	732.70	0	3.6040	0	34.2440	0	27.230	0	725.255	0	-1e10	8	-1e10	8	-1E+10	1	-1E+10	1	-1E+10	1	-1E+10	1	-1E+10	1	-1E+10	1
4902554	67	C	12/13/2022	20:05	-133.287	48.220	0	737.90	0	3.5940	0	34.2460	0	27.232	0	730.393	0	-1e10	8	-1e10	8	-1E+10	1	-1E+10	1	-1E+10	1	-1E+10	1	-1E+10	1	-1E+10	1
4902554	67	C	12/13/2022	20:05	-133.287	48.220	0	743.20	0	3.5810	0	34.2500	0	27.237	0	735.630	0	-1e10	8	-1e10	8	-1E+10	1	-1E+10	1	-1E+10	1	-1E+10	1	-1E+10	1	-1E+10	1
4902554	67	C	12/13/2022	20:05	-133.287	48.220	0	748.20	0	3.5790	0	34.2510	0	27.238	0	740.570	0	-1e10	8	-1e10	8	-1E+10	1	-1E+10	1	-1E+10	1	-1E+10	1	-1E+10	1	-1E+10	1
4902554	67	C	12/13/2022	20:05	-133.287	48.220	0	752.80	0	3.5650	0	34.2550	0	27.242	0	745.115	0	-1e10	8	-1e10	8	-1E+10	1	-1E+10	1	-1E+10	1	-1E+10	1	-1E+10	1	-1E+10	1
4902554	67	C	12/13/2022	20:05	-133.287	48.220	0	758.00	0	3.5540	0	34.2570	0	27.245	0	750.252	0	-1e10	8	-1e10	8	-1E+10	1	-1E+10	1	-1E+10	1	-1E+10	1	-1E+10	1	-1E+10	1
4902554	67	C	12/13/2022	20:05	-133.287	48.220	0	763.20	0	3.5490	0	34.2590	0	27.247	0	755.390	0	-1e10	8	-1e10	8	-1E+10	1	-1E+10	1	-1E+10	1	-1E+10	1	-1E+10	1	-1E+10	1
4902554	67	C	12/13/2022	20:05	-133.287	48.220	0	768.00	0	3.5380	0	34.2610	0	27.250	0	760.132	0	-1e10	8	-1e10	8	-1E+10	1	-1E+10	1	-1E+10	1	-1E+10	1	-1E+10	1	-1E+10	1
4902554	67	C	12/13/2022	20:05	-133.287	48.220	0	772.80	0	3.5270	0	34.2640	0	27.253	0	764.874	0	-1e10	8	-1e10	8	-1E+10	1	-1E+10	1	-1E+10	1	-1E+10	1	-1E+10	1	-1E+10	1
4902554	67	C	12/13/2022	20:05	-133.287	48.220	0	777.60	0	3.5230	0	34.2650	0	27.255	0	769.616	0	-1e10	8	-1e10	8	-1E+10	1	-1E+10	1	-1E+10	1	-1E+10	1	-1E+10	1	-1E+10	1
4902554	67	C	12/13/2022	20:05	-133.287	48.220	0	782.50	0	3.5140	0	34.2660	0	27.256	0	774.456	0	-1e10	8	-1e10	8	-1E+10	1	-1E+10	1	-1E+10	1	-1E+10	1	-1E+10	1	-1E+10	1
4902554	67	C	12/13/2022	20:05	-133.287	48.220	0	787.90	0	3.5070	0	34.2680	0	27.259	0	779.791	0	-1e10	8	-1e10	8	-1E+10	1	-1E+10	1	-1E+10	1	-1E+10	1	-1E+10	1	-1E+10	1
4902554	67	C	12/13/2022	20:05	-133.287	48.220	0	793.40	0	3.4910	0	34.2710	0	27.263	0	785.224	0	-1e10	8	-1e10	8	-1E+10	1	-1E+10	1	-1E+10	1	-1E+10	1	-1E+10	1	-1E+10	1
4902554	67	C	12/13/2022	20:05	-133.287	48.220	0	798.00	0	3.4870	0	34.2720	0	27.264	0	789.768	0	-1e10	8	-1e10	8	-1E+10	1	-1E+10	1	-1E+10	1	-1E+10	1	-1E+10	1	-1E+10	1
4902554	67	C	12/13/2022	20:05	-133.287	48.220	0	802.60	0	3.4730	0	34.2740	0	27.267	0	794.312	0	-1e10	8	-1e10	8	-1E+10	1	-1E+10	1	-1E+10	1	-1E+10	1	-1E+10	1	-1E+10	1
4902554	67	C	12/13/2022	20:05	-133.287	48.220	0	807.80	0	3.4580	0	34.2760	0	27.270	0	799.448	0	-1e10	8	-1e10	8	-1E+10	1	-1E+10	1	-1E+10	1	-1E+10	1	-1E+10	1	-1E+10	1
4902554	67	C	12/13/2022	20:05	-133.287	48.220	0	813.10	0	3.4500	0	34.2780	0	27.272	0	804.683	0	-1e10	8	-1e10	8	-1E+10	1	-1E+10	1	-1E+10	1	-1E+10	1	-1E+10	1	-1E+10	1
4902554	67	C	12/13/2022	20:05	-133.287	48.220	0	818.20	0	3.4440	0	34.2790	0	27.274	0	809.720	0	-1e10	8	-1e10	8	-1E+10	1	-1E+10	1	-1E+10	1	-1E+10	1	-1E+10	1	-1E+10	1
4902554	67	C	12/13/2022	20:05	-133.287	48.220	0	823.30	0	3.4330	0	34.2810	0	27.276	0	814.757	0	-1e10	8	-1e10	8	-1E+10	1	-1E+10	1	-1E+10	1	-1E+10	1	-1E+10	1	-1E+10	1
4902554	67	C	12/13/2022	20:05	-133.287	48.220	0	828.40	0	3.4240	0	34.2830	0	27.279	0	819.795	0	-1e10	8	-1e10	8	-1E+10	1	-1E+10	1	-1E+10	1	-1E+10	1	-1E+10	1	-1E+10	1
4902554	67	C	12/13/2022	20:05	-133.287	48.220	0	833.40	0	3.4040	0	34.2880	0	27.285	0	824.733	0	-1e10	8	-1e10	8	-1E+10	1	-1E+10	1	-1E+10	1	-1E+10	1	-1E+10	1	-1E+10	1
4902554	67	C	12/13/2022	20:05	-133.287	48.220	0	838.40	0	3.3880	0	34.2920	0	27.289	0	829.671	0	-1e10	8	-1e10	8	-1E+10	1	-1E+10	1	-1E+10	1	-1E+10	1	-1E+10	1	-1E+10	1
4902554	67	C	12/13/2022	20:05	-133.287	48.220	0	843.30	0	3.3700	0	34.2970	0	27.295	0	834.510	0	-1e10	8	-1e10	8	-1E+10	1	-1E+10	1	-1E+10	1	-1E+10	1	-1E+10	1	-1E+10	1
4902554	67	C	12/13/2022	20:05	-133.287	48.220	0	848.10	0	3.3590	0	34.3000	0	27.299	0	839.250	0	-1e10	8	-1e10	8	-1E+10	1	-1E+10	1	-1E+10	1	-1E+10	1	-1E+10	1	-1E+10	1
4902554	67	C	12/13/2022	20:05	-133.287	48.220	0	853.00	0	3.3470	0	34.3020	0	27.301	0	844.089	0	-1e10	8	-1e10	8	-1E+10	1	-1E+10	1	-1E+10	1	-1E+10	1	-1E+10	1	-1E+10	1
4902554	67	C	12/13/2022	20:05	-133.287	48.220	0	857.90	0	3.3310	0	34.3060	0	27.306	0	848.928	0	-1e10	8	-1e10	8	-1E+10	1	-1E+10	1	-1E+10	1	-1E+10	1	-1E+10	1	-1E+10	1
4902554	67	C	12/13/2022	20:05	-133.287	48.220	0	862.80	0	3.3240	0	34.3080	0	27.308	0	853.767	0	-1e10	8	-1e10	8	-1E+10	1	-1E+10	1	-1E+10	1	-1E+10	1	-1E+10	1	-1E+10	1
4902554	67	C	12/13/2022	20:05	-133.287	48.220	0	867.70	0	3.3160	0	34.3100	0	27.311	0	858.606	0	-1e10	8	-1e10	8	-1E+10	1	-1E+10	1	-1E+10	1	-1E+10	1	-1E+10	1	-1E+10	1
4902554	67	C	12/13/2022	20:05	-133.287	48.220	0	872.70	0	3.3120	0	34.3100	0	27.311	0	863.543	0	-1e10	8	-1e10	8	-1E+10	1	-1E+10	1	-1E+10	1	-1E+10	1	-1E+10	1	-1E+10	1
4902554	67	C	12/13/2022	20:05	-133.287	48.220	0	877.70	0	3.3000	0	34.3120	0	27.314	0	868.480	0	-1e10	8	-1e10	8	-1E+10	1	-1E+10	1	-1E+10	1	-1E+10	1	-1E+10	1	-1E+10	1
4902554	67	C	12/13/2022	20:05	-133.287	48.220	0	882.70	0	3.2880	0	34.3140	0	27.317	0	873.417	0	-1e10	8	-1e10	8	-1E+10	1	-1E+10	1	-1E+10	1	-1E+10	1	-1E+10	1	-1E+10	1
4902554	67	C	12/13/2022	20:05	-133.287	48.220	0	887.80	0	3.2760	0	34.3170	0	27.320	0	878.453	0	-1e10	8	-1e10	8	-1E+10	1	-1E+10	1	-1E+10	1	-1E+10	1	-1E+10	1	-1E+10	1
4902554	67	C	12/13/2022	20:05	-133.287	48.220	0	892.90	0	3.2610	0	34.3210	0	27.325	0	883.488	0	-1e10	8	-1e10	8	-1E+10	1	-1E+10	1	-1E+10	1	-1E+10	1	-1E+10	1	-1E+10	1
4902554	67	C	12/13/2022	20:05	-133.287	48.220	0	898.00	0	3.2500	0	34.3230	0	27.327	0	888.524	0	-1e10	8	-1e10	8	-1E+10	1	-1E+10	1	-1E+10	1	-1E+10	1	-1E+10	1	-1E+10	1
4902554	67	C	12/13/2022	20:05	-133.287	48.220	0	902.80	0	3.2360	0	34.3260	0	27.331	0	893.263	0	-1e10	8	-1e10	8	-1E+10	1	-1E+10	1	-1E+10	1	-1E+10	1	-1E+10	1	-1E+10	1
4902554	67	C	12/13/2022	20:05	-133.287	48.220	0	907.90	0	3.2230	0	34.3290	0	27.335	0	898.298	0	-1e10	8	-1e10	8	-1E+10	1	-1E+10	1	-1E+10	1	-1E+10	1	-1E+10	1	-1E+10	1
4902554	67	C	12/13/2022	20:05	-133.287	48.220	0	913.10	0	3.2150	0	34.3310	0	27.337	0	903.432	0	-1e10	8	-1e10	8	-1E+10	1	-1E+10	1	-1E+10	1	-1E+10	1	-1E+10	1	-1E+10	1
4902554	67	C	12/13/2022	20:05	-133.287	48.220	0	918.00	0	3.2080	0	34.3320	0	27.339	0	908.269	0	-1e10	8	-1e10	8	-1E+10	1	-1E+10	1	-1E+10	1	-1E+10	1	-1E+10	1	-1E+10	1
4902554	67	C	12/13/2022	20:05	-133.287	48.220	0	923.00	0	3.1980	0	34.3340	0	27.341	0	913.205	0	-1e10	8	-1e10	8	-1E+10	1	-1E+10	1	-1E+10	1	-1E+10	1	-1E+10	1	-1E+10	1
4902554	67	C	12/13/2022	20:05	-133.287	48.220	0	928.10	0	3.1920	0	34.3360	0	27.343	0	918.240	0	-1e10	8	-1e10	8	-1E+10	1	-1E+10	1	-1E+10	1	-1E+10	1	-1E+10	1	-1E+10	1
4902554	67	C	12/13/2022	20:05	-133.287	48.220	0	932.80	0	3.1870	0	34.3380	0	27.345	0	922.880	0	-1e10	8	-1e10	8	-1E+10	1	-1E+10	1	-1E+10	1	-1E+10	1	-1E+10	1	-1E+10	1
4902554	67	C	12/13/2022	20:05	-133.287	48.220	0	937.60	0	3.1740	0	34.3400	0	27.348	0	927.618	0	-1e10	8	-1e10	8	-1E+10	1	-1E+10	1	-1E+10	1	-1E+10	1	-1E+10	1	-1E+10	1
4902554	67	C	12/13/2022	20:05	-133.287	48.220	0	943.00	0	3.1610	0	34.3430	0	27.352	0	932.949	0	-1e10	8	-1e10	8	-1E+10	1	-1E+10	1	-1E+10	1	-1E+10	1	-1E+10	1	-1E+10	1
4902554	67	C	12/13/2022	20:05	-133.287	48.220	0	948.10	0	3.1520	0	34.3450	0	27.354	0	937.983	0	-1e10	8	-1e10	8	-1E+10	1	-1E+10	1	-1E+10	1	-1E+10	1	-1E+10	1	-1E+10	1
4902554	67	C	12/13/2022	20:05	-133.287	48.220	0	952.70	0	3.1400	0	34.3470	0	27.357	0	942.523	0	-1e10	8	-1e10	8	-1E+10	1	-1E+10	1	-1E+10	1	-1E+10	1	-1E+10	1	-1E+10	1
4902554	67	C	12/13/2022	20:05	-133.287	48.220	0	957.90	0	3.1320	0	34.3490	0	27.359	0	947.656	0	-1e10	8	-1e10	8	-1E+10	1	-1E+10	1	-1E+10	1	-1E+10	1	-1E+10	1	-1E+10	1
4902554	67	C	12/13/2022	20:05	-133.287	48.220	0	963.10	0	3.1290	0	34.3500	0	27.360	0	952.789	0	-1e10	8	-1e10	8	-1E+10	1	-1E+10	1	-1E+10	1	-1E+10	1	-1E+10	1	-1E+10	1
4902554	67	C	12/13/2022	20:05	-133.287	48.220	0	967.90	0	3.1260	0	34.3510	0	27.362	0	957.526	0	-1e10	8	-1e10	8	-1E+10	1	-1E+10	1	-1E+10	1	-1E+10	1	-1E+10	1	-1E+10	1
4902554	67	C	12/13/2022	20:05	-133.287	48.220	0	972.90	0	3.1170	0	34.3530	0	27.364	0	962.461	0	-1e10	8	-1e10	8	-1E+10	1	-1E+10	1	-1E+10	1	-1E+10	1	-1E+10	1	-1E+10	1
4902554	67	C	12/13/2022	20:05	-133.287	48.220	0	977.80	0	3.1050	0	34.3570	0	27.368	0	967.297	0	-1e10	8	-1e10	8	-1E+10	1	-1E+10	1	-1E+10	1	-1E+10	1	-1E+10	1	-1E+10	1
4902554	67	C	12/13/2022	20:05	-133.287	48.220	0	982.70	0	3.1010	0	34.3580	0	27.370	0	972.133	0	-1e10	8	-1e10	8	-1E+10	1	-1E+10	1	-1E+10	1	-1E+10	1	-1E+10	1	-1E+10	1
4902554	67	C	12/13/2022	20:05	-133.287	48.220	0	987.70	0	3.0970	0	34.3590	0	27.371	0	977.068	0	-1e10	8	-1e10	8	-1E+10	1	-1E+10	1	-1E+10	1	-1E+10	1	-1E+10	1	-1E+10	1
4902554	67	C	12/13/2022	20:05	-133.287	48.220	0	992.70	0	3.0930	0	34.3610	0	27.373	0	982.002	0	-1e10	8	-1e10	8	-1E+10	1	-1E+10	1	-1E+10	1	-1E+10	1	-1E+10	1	-1E+10	1
4902554	67	C	12/13/2022	20:05	-133.287	48.220	0	997.80	0	3.0810	0	34.3620	0	27.375	0	987.035	0	-1e10	8	-1e10	8	-1E+10	1	-1E+10	1	-1E+10	1	-1E+10	1	-1E+10	1	-1E+10	1
4902554	67	C	12/13/2022	20:05	-133.287	48.220	0	1005.50	0	3.0690	0	34.3660	0	27.379	0	994.634	0	-1e10	8	-1e10	8	-1E+10	1	-1E+10	1	-1E+10	1	-1E+10	1	-1E+10	1	-1E+10	1
4902554	67	C	12/13/2022	20:05	-133.287	48.220	0	1015.60	0	3.0540	0	34.3700	0	27.384	0	1004.601	0	-1e10	8	-1e10	8	-1E+10	1	-1E+10	1	-1E+10	1	-1E+10	1	-1E+10	1	-1E+10	1
4902554	67	C	12/13/2022	20:05	-133.287	48.220	0	1025.50	0	3.0370	0	34.3740	0	27.388	0	1014.370	0	-1e10	8	-1e10	8	-1E+10	1	-1E+10	1	-1E+10	1	-1E+10	1	-1E+10	1	-1E+10	1
4902554	67	C	12/13/2022	20:05	-133.287	48.220	0	1035.50	0	3.0190	0	34.3780	0	27.393	0	1024.237	0	-1e10	8	-1e10	8	-1E+10	1	-1E+10	1	-1E+10	1	-1E+10	1	-1E+10	1	-1E+10	1
4902554	67	C	12/13/2022	20:05	-133.287	48.220	0	1045.60	0	3.0090	0	34.3800	0	27.396	0	1034.202	0	-1e10	8	-1e10	8	-1E+10	1	-1E+10	1	-1E+10	1	-1E+10	1	-1E+10	1	-1E+10	1
4902554	67	C	12/13/2022	20:05	-133.287	48.220	0	1055.50	0	3.0010	0	34.3830	0	27.399	0	1043.969	0	-1e10	8	-1e10	8	-1E+10	1	-1E+10	1	-1E+10	1	-1E+10	1	-1E+10	1	-1E+10	1
4902554	67	C	12/13/2022	20:05	-133.287	48.220	0	1065.50	0	2.9970	0	34.3840	0	27.400	0	1053.835	0	-1e10	8	-1e10	8	-1E+10	1	-1E+10	1	-1E+10	1	-1E+10	1	-1E+10	1	-1E+10	1
4902554	67	C	12/13/2022	20:05	-133.287	48.220	0	1075.60	0	2.9850	0	34.3870	0	27.404	0	1063.799	0	-1e10	8	-1e10	8	-1E+10	1	-1E+10	1	-1E+10	1	-1E+10	1	-1E+10	1	-1E+10	1
4902554	67	C	12/13/2022	20:05	-133.287	48.220	0	1085.60	0	2.9730	0	34.3890	0	27.407	0	1073.663	0	-1e10	8	-1e10	8	-1E+10	1	-1E+10	1	-1E+10	1	-1E+10	1	-1E+10	1	-1E+10	1
4902554	67	C	12/13/2022	20:05	-133.287	48.220	0	1095.50	0	2.9600	0	34.3920	0	27.410	0	1083.429	0	-1e10	8	-1e10	8	-1E+10	1	-1E+10	1	-1E+10	1	-1E+10	1	-1E+10	1	-1E+10	1
4902554	67	C	12/13/2022	20:05	-133.287	48.220	0	1105.70	0	2.9480	0	34.3950	0	27.414	0	1093.490	0	-1e10	8	-1e10	8	-1E+10	1	-1E+10	1	-1E+10	1	-1E+10	1	-1E+10	1	-1E+10	1
4902554	67	C	12/13/2022	20:05	-133.287	48.220	0	1115.40	0	2.9390	0	34.3970	0	27.416	0	1103.058	0	-1e10	8	-1e10	8	-1E+10	1	-1E+10	1	-1E+10	1	-1E+10	1	-1E+10	1	-1E+10	1
4902554	67	C	12/13/2022	20:05	-133.287	48.220	0	1125.20	0	2.9210	0	34.3990	0	27.419	0	1112.723	0	-1e10	8	-1e10	8	-1E+10	1	-1E+10	1	-1E+10	1	-1E+10	1	-1E+10	1	-1E+10	1
4902554	67	C	12/13/2022	20:05	-133.287	48.220	0	1135.30	0	2.9060	0	34.4030	0	27.424	0	1122.684	0	-1e10	8	-1e10	8	-1E+10	1	-1E+10	1	-1E+10	1	-1E+10	1	-1E+10	1	-1E+10	1
4902554	67	C	12/13/2022	20:05	-133.287	48.220	0	1145.10	0	2.8880	0	34.4060	0	27.428	0	1132.349	0	-1e10	8	-1e10	8	-1E+10	1	-1E+10	1	-1E+10	1	-1E+10	1	-1E+10	1	-1E+10	1
4902554	67	C	12/13/2022	20:05	-133.287	48.220	0	1155.10	0	2.8660	0	34.4100	0	27.433	0	1142.210	0	-1e10	8	-1e10	8	-1E+10	1	-1E+10	1	-1E+10	1	-1E+10	1	-1E+10	1	-1E+10	1
4902554	67	C	12/13/2022	20:05	-133.287	48.220	0	1165.10	0	2.8530	0	34.4120	0	27.436	0	1152.071	0	-1e10	8	-1e10	8	-1E+10	1	-1E+10	1	-1E+10	1	-1E+10	1	-1E+10	1	-1E+10	1
4902554	67	C	12/13/2022	20:05	-133.287	48.220	0	1175.20	0	2.8410	0	34.4150	0	27.440	0	1162.031	0	-1e10	8	-1e10	8	-1E+10	1	-1E+10	1	-1E+10	1	-1E+10	1	-1E+10	1	-1E+10	1
4902554	67	C	12/13/2022	20:05	-133.287	48.220	0	1185.40	0	2.8240	0	34.4190	0	27.444	0	1172.088	0	-1e10	8	-1e10	8	-1E+10	1	-1E+10	1	-1E+10	1	-1E+10	1	-1E+10	1	-1E+10	1
4902554	67	C	12/13/2022	20:05	-133.287	48.220	0	1195.30	0	2.8050	0	34.4230	0	27.449	0	1181.849	0	-1e10	8	-1e10	8	-1E+10	1	-1E+10	1	-1E+10	1	-1E+10	1	-1E+10	1	-1E+10	1
4902554	67	C	12/13/2022	20:05	-133.287	48.220	0	1205.30	0	2.7920	0	34.4260	0	27.453	0	1191.708	0	-1e10	8	-1e10	8	-1E+10	1	-1E+10	1	-1E+10	1	-1E+10	1	-1E+10	1	-1E+10	1
4902554	67	C	12/13/2022	20:05	-133.287	48.220	0	1215.50	0	2.7780	0	34.4290	0	27.456	0	1201.764	0	-1e10	8	-1e10	8	-1E+10	1	-1E+10	1	-1E+10	1	-1E+10	1	-1E+10	1	-1E+10	1
4902554	67	C	12/13/2022	20:05	-133.287	48.220	0	1225.40	0	2.7600	0	34.4320	0	27.461	0	1211.523	0	-1e10	8	-1e10	8	-1E+10	1	-1E+10	1	-1E+10	1	-1E+10	1	-1E+10	1	-1E+10	1
4902554	67	C	12/13/2022	20:05	-133.287	48.220	0	1235.40	0	2.7480	0	34.4340	0	27.463	0	1221.381	0	-1e10	8	-1e10	8	-1E+10	1	-1E+10	1	-1E+10	1	-1E+10	1	-1E+10	1	-1E+10	1
4902554	67	C	12/13/2022	20:05	-133.287	48.220	0	1245.60	0	2.7420	0	34.4360	0	27.465	0	1231.436	0	-1e10	8	-1e10	8	-1E+10	1	-1E+10	1	-1E+10	1	-1E+10	1	-1E+10	1	-1E+10	1
4902554	67	C	12/13/2022	20:05	-133.287	48.220	0	1255.30	0	2.7280	0	34.4400	0	27.470	0	1240.997	0	-1e10	8	-1e10	8	-1E+10	1	-1E+10	1	-1E+10	1	-1E+10	1	-1E+10	1	-1E+10	1
4902554	67	C	12/13/2022	20:05	-133.287	48.220	0	1265.10	0	2.7080	0	34.4430	0	27.474	0	1250.656	0	-1e10	8	-1e10	8	-1E+10	1	-1E+10	1	-1E+10	1	-1E+10	1	-1E+10	1	-1E+10	1
4902554	67	C	12/13/2022	20:05	-133.287	48.220	0	1275.20	0	2.6900	0	34.4460	0	27.478	0	1260.610	0	-1e10	8	-1e10	8	-1E+10	1	-1E+10	1	-1E+10	1	-1E+10	1	-1E+10	1	-1E+10	1
4902554	67	C	12/13/2022	20:05	-133.287	48.220	0	1285.30	0	2.6780	0	34.4490	0	27.482	0	1270.564	0	-1e10	8	-1e10	8	-1E+10	1	-1E+10	1	-1E+10	1	-1E+10	1	-1E+10	1	-1E+10	1
4902554	67	C	12/13/2022	20:05	-133.287	48.220	0	1295.30	0	2.6610	0	34.4510	0	27.485	0	1280.419	0	-1e10	8	-1e10	8	-1E+10	1	-1E+10	1	-1E+10	1	-1E+10	1	-1E+10	1	-1E+10	1
4902554	67	C	12/13/2022	20:05	-133.287	48.220	0	1305.10	0	2.6320	0	34.4580	0	27.493	0	1290.077	0	-1e10	8	-1e10	8	-1E+10	1	-1E+10	1	-1E+10	1	-1E+10	1	-1E+10	1	-1E+10	1
4902554	67	C	12/13/2022	20:05	-133.287	48.220	0	1315.10	0	2.6150	0	34.4600	0	27.496	0	1299.931	0	-1e10	8	-1e10	8	-1E+10	1	-1E+10	1	-1E+10	1	-1E+10	1	-1E+10	1	-1E+10	1
4902554	67	C	12/13/2022	20:05	-133.287	48.220	0	1325.10	0	2.6020	0	34.4630	0	27.499	0	1309.784	0	-1e10	8	-1e10	8	-1E+10	1	-1E+10	1	-1E+10	1	-1E+10	1	-1E+10	1	-1E+10	1
4902554	67	C	12/13/2022	20:05	-133.287	48.220	0	1335.10	0	2.5790	0	34.4680	0	27.505	0	1319.638	0	-1e10	8	-1e10	8	-1E+10	1	-1E+10	1	-1E+10	1	-1E+10	1	-1E+10	1	-1E+10	1
4902554	67	C	12/13/2022	20:05	-133.287	48.220	0	1345.00	0	2.5630	0	34.4710	0	27.509	0	1329.392	0	-1e10	8	-1e10	8	-1E+10	1	-1E+10	1	-1E+10	1	-1E+10	1	-1E+10	1	-1E+10	1
4902554	67	C	12/13/2022	20:05	-133.287	48.220	0	1355.10	0	2.5510	0	34.4730	0	27.512	0	1339.342	0	-1e10	8	-1e10	8	-1E+10	1	-1E+10	1	-1E+10	1	-1E+10	1	-1E+10	1	-1E+10	1
4902554	67	C	12/13/2022	20:05	-133.287	48.220	0	1365.10	0	2.5370	0	34.4760	0	27.516	0	1349.194	0	-1e10	8	-1e10	8	-1E+10	1	-1E+10	1	-1E+10	1	-1E+10	1	-1E+10	1	-1E+10	1
4902554	67	C	12/13/2022	20:05	-133.287	48.220	0	1375.60	0	2.5220	0	34.4780	0	27.518	0	1359.538	0	-1e10	8	-1e10	8	-1E+10	1	-1E+10	1	-1E+10	1	-1E+10	1	-1E+10	1	-1E+10	1
4902554	67	C	12/13/2022	20:05	-133.287	48.220	0	1385.60	0	2.5020	0	34.4820	0	27.523	0	1369.389	0	-1e10	8	-1e10	8	-1E+10	1	-1E+10	1	-1E+10	1	-1E+10	1	-1E+10	1	-1E+10	1
4902554	67	C	12/13/2022	20:05	-133.287	48.220	0	1395.30	0	2.4930	0	34.4840	0	27.526	0	1378.944	0	-1e10	8	-1e10	8	-1E+10	1	-1E+10	1	-1E+10	1	-1E+10	1	-1E+10	1	-1E+10	1
4902554	67	C	12/13/2022	20:05	-133.287	48.220	0	1405.20	0	2.4810	0	34.4860	0	27.528	0	1388.695	0	-1e10	8	-1e10	8	-1E+10	1	-1E+10	1	-1E+10	1	-1E+10	1	-1E+10	1	-1E+10	1
4902554	67	C	12/13/2022	20:05	-133.287	48.220	0	1415.20	0	2.4680	0	34.4880	0	27.531	0	1398.544	0	-1e10	8	-1e10	8	-1E+10	1	-1E+10	1	-1E+10	1	-1E+10	1	-1E+10	1	-1E+10	1
4902554	67	C	12/13/2022	20:05	-133.287	48.220	0	1425.50	0	2.4620	0	34.4900	0	27.533	0	1408.689	0	-1e10	8	-1e10	8	-1E+10	1	-1E+10	1	-1E+10	1	-1E+10	1	-1E+10	1	-1E+10	1
4902554	67	C	12/13/2022	20:05	-133.287	48.220	0	1435.50	0	2.4510	0	34.4920	0	27.536	0	1418.537	0	-1e10	8	-1e10	8	-1E+10	1	-1E+10	1	-1E+10	1	-1E+10	1	-1E+10	1	-1E+10	1
4902554	67	C	12/13/2022	20:05	-133.287	48.220	0	1445.40	0	2.4370	0	34.4940	0	27.539	0	1428.287	0	-1e10	8	-1e10	8	-1E+10	1	-1E+10	1	-1E+10	1	-1E+10	1	-1E+10	1	-1E+10	1
4902554	67	C	12/13/2022	20:05	-133.287	48.220	0	1455.80	0	2.4280	0	34.4960	0	27.541	0	1438.528	0	-1e10	8	-1e10	8	-1E+10	1	-1E+10	1	-1E+10	1	-1E+10	1	-1E+10	1	-1E+10	1
4902554	67	C	12/13/2022	20:05	-133.287	48.220	0	1465.70	0	2.4160	0	34.4980	0	27.544	0	1448.277	0	-1e10	8	-1e10	8	-1E+10	1	-1E+10	1	-1E+10	1	-1E+10	1	-1E+10	1	-1E+10	1
4902554	67	C	12/13/2022	20:05	-133.287	48.220	0	1475.40	0	2.4040	0	34.5000	0	27.546	0	1457.828	0	-1e10	8	-1e10	8	-1E+10	1	-1E+10	1	-1E+10	1	-1E+10	1	-1E+10	1	-1E+10	1
4902554	67	C	12/13/2022	20:05	-133.287	48.220	0	1485.20	0	2.3890	0	34.5030	0	27.550	0	1467.477	0	-1e10	8	-1e10	8	-1E+10	1	-1E+10	1	-1E+10	1	-1E+10	1	-1E+10	1	-1E+10	1
4902554	67	C	12/13/2022	20:05	-133.287	48.220	0	1495.30	0	2.3810	0	34.5040	0	27.552	0	1477.422	0	-1e10	8	-1e10	8	-1E+10	1	-1E+10	1	-1E+10	1	-1E+10	1	-1E+10	1	-1E+10	1
4902554	67	C	12/13/2022	20:05	-133.287	48.220	0	1505.50	0	2.3750	0	34.5050	0	27.553	0	1487.464	0	-1e10	8	-1e10	8	-1E+10	1	-1E+10	1	-1E+10	1	-1E+10	1	-1E+10	1	-1E+10	1
4902554	67	C	12/13/2022	20:05	-133.287	48.220	0	1515.50	0	2.3650	0	34.5070	0	27.556	0	1497.309	0	-1e10	8	-1e10	8	-1E+10	1	-1E+10	1	-1E+10	1	-1E+10	1	-1E+10	1	-1E+10	1
4902554	67	C	12/13/2022	20:05	-133.287	48.220	0	1525.30	0	2.3480	0	34.5100	0	27.559	0	1506.956	0	-1e10	8	-1e10	8	-1E+10	1	-1E+10	1	-1E+10	1	-1E+10	1	-1E+10	1	-1E+10	1
4902554	67	C	12/13/2022	20:05	-133.287	48.220	0	1535.40	0	2.3320	0	34.5130	0	27.563	0	1516.898	0	-1e10	8	-1e10	8	-1E+10	1	-1E+10	1	-1E+10	1	-1E+10	1	-1E+10	1	-1E+10	1
4902554	67	C	12/13/2022	20:05	-133.287	48.220	0	1545.70	0	2.3120	0	34.5160	0	27.567	0	1527.037	0	-1e10	8	-1e10	8	-1E+10	1	-1E+10	1	-1E+10	1	-1E+10	1	-1E+10	1	-1E+10	1
4902554	67	C	12/13/2022	20:05	-133.287	48.220	0	1555.70	0	2.3050	0	34.5180	0	27.569	0	1536.880	0	-1e10	8	-1e10	8	-1E+10	1	-1E+10	1	-1E+10	1	-1E+10	1	-1E+10	1	-1E+10	1
4902554	67	C	12/13/2022	20:05	-133.287	48.220	0	1565.80	0	2.3040	0	34.5180	0	27.570	0	1546.821	0	-1e10	8	-1e10	8	-1E+10	1	-1E+10	1	-1E+10	1	-1E+10	1	-1E+10	1	-1E+10	1
4902554	67	C	12/13/2022	20:05	-133.287	48.220	0	1575.40	0	2.3010	0	34.5190	0	27.571	0	1556.269	0	-1e10	8	-1e10	8	-1E+10	1	-1E+10	1	-1E+10	1	-1E+10	1	-1E+10	1	-1E+10	1
4902554	67	C	12/13/2022	20:05	-133.287	48.220	0	1585.20	0	2.2870	0	34.5210	0	27.573	0	1565.914	0	-1e10	8	-1e10	8	-1E+10	1	-1E+10	1	-1E+10	1	-1E+10	1	-1E+10	1	-1E+10	1
4902554	67	C	12/13/2022	20:05	-133.287	48.220	0	1595.20	0	2.2750	0	34.5230	0	27.576	0	1575.755	0	-1e10	8	-1e10	8	-1E+10	1	-1E+10	1	-1E+10	1	-1E+10	1	-1E+10	1	-1E+10	1
4902554	67	C	12/13/2022	20:05	-133.287	48.220	0	1605.40	0	2.2700	0	34.5240	0	27.577	0	1585.793	0	-1e10	8	-1e10	8	-1E+10	1	-1E+10	1	-1E+10	1	-1E+10	1	-1E+10	1	-1E+10	1
4902554	67	C	12/13/2022	20:05	-133.287	48.220	0	1615.40	0	2.2640	0	34.5250	0	27.579	0	1595.633	0	-1e10	8	-1e10	8	-1E+10	1	-1E+10	1	-1E+10	1	-1E+10	1	-1E+10	1	-1E+10	1
4902554	67	C	12/13/2022	20:05	-133.287	48.220	0	1625.50	0	2.2530	0	34.5270	0	27.581	0	1605.571	0	-1e10	8	-1e10	8	-1E+10	1	-1E+10	1	-1E+10	1	-1E+10	1	-1E+10	1	-1E+10	1
4902554	67	C	12/13/2022	20:05	-133.287	48.220	0	1635.80	0	2.2460	0	34.5280	0	27.583	0	1615.706	0	-1e10	8	-1e10	8	-1E+10	1	-1E+10	1	-1E+10	1	-1E+10	1	-1E+10	1	-1E+10	1
4902554	67	C	12/13/2022	20:05	-133.287	48.220	0	1645.60	0	2.2430	0	34.5290	0	27.584	0	1625.348	0	-1e10	8	-1e10	8	-1E+10	1	-1E+10	1	-1E+10	1	-1E+10	1	-1E+10	1	-1E+10	1
4902554	67	C	12/13/2022	20:05	-133.287	48.220	0	1655.20	0	2.2270	0	34.5320	0	27.588	0	1634.792	0	-1e10	8	-1e10	8	-1E+10	1	-1E+10	1	-1E+10	1	-1E+10	1	-1E+10	1	-1E+10	1
4902554	67	C	12/13/2022	20:05	-133.287	48.220	0	1665.30	0	2.2210	0	34.5330	0	27.589	0	1644.729	0	-1e10	8	-1e10	8	-1E+10	1	-1E+10	1	-1E+10	1	-1E+10	1	-1E+10	1	-1E+10	1
4902554	67	C	12/13/2022	20:05	-133.287	48.220	0	1675.30	0	2.1930	0	34.5380	0	27.595	0	1654.566	0	-1e10	8	-1e10	8	-1E+10	1	-1E+10	1	-1E+10	1	-1E+10	1	-1E+10	1	-1E+10	1
4902554	67	C	12/13/2022	20:05	-133.287	48.220	0	1685.40	0	2.1810	0	34.5410	0	27.599	0	1664.502	0	-1e10	8	-1e10	8	-1E+10	1	-1E+10	1	-1E+10	1	-1E+10	1	-1E+10	1	-1E+10	1
4902554	67	C	12/13/2022	20:05	-133.287	48.220	0	1695.80	0	2.1740	0	34.5420	0	27.600	0	1674.732	0	-1e10	8	-1e10	8	-1E+10	1	-1E+10	1	-1E+10	1	-1E+10	1	-1E+10	1	-1E+10	1
4902554	67	C	12/13/2022	20:05	-133.287	48.220	0	1705.50	0	2.1640	0	34.5430	0	27.602	0	1684.273	0	-1e10	8	-1e10	8	-1E+10	1	-1E+10	1	-1E+10	1	-1E+10	1	-1E+10	1	-1E+10	1
4902554	67	C	12/13/2022	20:05	-133.287	48.220	0	1715.40	0	2.1400	0	34.5480	0	27.608	0	1694.010	0	-1e10	8	-1e10	8	-1E+10	1	-1E+10	1	-1E+10	1	-1E+10	1	-1E+10	1	-1E+10	1
4902554	67	C	12/13/2022	20:05	-133.287	48.220	0	1725.30	0	2.1280	0	34.5500	0	27.610	0	1703.747	0	-1e10	8	-1e10	8	-1E+10	1	-1E+10	1	-1E+10	1	-1E+10	1	-1E+10	1	-1E+10	1
4902554	67	C	12/13/2022	20:05	-133.287	48.220	0	1735.30	0	2.1230	0	34.5510	0	27.611	0	1713.581	0	-1e10	8	-1e10	8	-1E+10	1	-1E+10	1	-1E+10	1	-1E+10	1	-1E+10	1	-1E+10	1
4902554	67	C	12/13/2022	20:05	-133.287	48.220	0	1745.20	0	2.1160	0	34.5530	0	27.614	0	1723.317	0	-1e10	8	-1e10	8	-1E+10	1	-1E+10	1	-1E+10	1	-1E+10	1	-1E+10	1	-1E+10	1
4902554	67	C	12/13/2022	20:05	-133.287	48.220	0	1755.30	0	2.1100	0	34.5540	0	27.615	0	1733.249	0	-1e10	8	-1e10	8	-1E+10	1	-1E+10	1	-1E+10	1	-1E+10	1	-1E+10	1	-1E+10	1
4902554	67	C	12/13/2022	20:05	-133.287	48.220	0	1765.30	0	2.1030	0	34.5550	0	27.616	0	1743.083	0	-1e10	8	-1e10	8	-1E+10	1	-1E+10	1	-1E+10	1	-1E+10	1	-1E+10	1	-1E+10	1
4902554	67	C	12/13/2022	20:05	-133.287	48.220	0	1775.20	0	2.0930	0	34.5570	0	27.619	0	1752.817	0	-1e10	8	-1e10	8	-1E+10	1	-1E+10	1	-1E+10	1	-1E+10	1	-1E+10	1	-1E+10	1
4902554	67	C	12/13/2022	20:05	-133.287	48.220	0	1785.80	0	2.0890	0	34.5580	0	27.620	0	1763.240	0	-1e10	8	-1e10	8	-1E+10	1	-1E+10	1	-1E+10	1	-1E+10	1	-1E+10	1	-1E+10	1
4902554	67	C	12/13/2022	20:05	-133.287	48.220	0	1795.20	0	2.0840	0	34.5590	0	27.621	0	1772.482	0	-1e10	8	-1e10	8	-1E+10	1	-1E+10	1	-1E+10	1	-1E+10	1	-1E+10	1	-1E+10	1
4902554	67	C	12/13/2022	20:05	-133.287	48.220	0	1805.20	0	2.0760	0	34.5610	0	27.624	0	1782.313	0	-1e10	8	-1e10	8	-1E+10	1	-1E+10	1	-1E+10	1	-1E+10	1	-1E+10	1	-1E+10	1
4902554	67	C	12/13/2022	20:05	-133.287	48.220	0	1815.40	0	2.0700	0	34.5620	0	27.625	0	1792.341	0	-1e10	8	-1e10	8	-1E+10	1	-1E+10	1	-1E+10	1	-1E+10	1	-1E+10	1	-1E+10	1
4902554	67	C	12/13/2022	20:05	-133.287	48.220	0	1825.30	0	2.0650	0	34.5630	0	27.626	0	1802.073	0	-1e10	8	-1e10	8	-1E+10	1	-1E+10	1	-1E+10	1	-1E+10	1	-1E+10	1	-1E+10	1
4902554	67	C	12/13/2022	20:05	-133.287	48.220	0	1835.30	0	2.0590	0	34.5640	0	27.627	0	1811.903	0	-1e10	8	-1e10	8	-1E+10	1	-1E+10	1	-1E+10	1	-1E+10	1	-1E+10	1	-1E+10	1
4902554	67	C	12/13/2022	20:05	-133.287	48.220	0	1845.60	0	2.0490	0	34.5660	0	27.630	0	1822.028	0	-1e10	8	-1e10	8	-1E+10	1	-1E+10	1	-1E+10	1	-1E+10	1	-1E+10	1	-1E+10	1
4902554	67	C	12/13/2022	20:05	-133.287	48.220	0	1855.40	0	2.0420	0	34.5670	0	27.631	0	1831.661	0	-1e10	8	-1e10	8	-1E+10	1	-1E+10	1	-1E+10	1	-1E+10	1	-1E+10	1	-1E+10	1
4902554	67	C	12/13/2022	20:05	-133.287	48.220	0	1865.30	0	2.0340	0	34.5690	0	27.634	0	1841.391	0	-1e10	8	-1e10	8	-1E+10	1	-1E+10	1	-1E+10	1	-1E+10	1	-1E+10	1	-1E+10	1
4902554	67	C	12/13/2022	20:05	-133.287	48.220	0	1875.60	0	2.0290	0	34.5700	0	27.635	0	1851.514	0	-1e10	8	-1e10	8	-1E+10	1	-1E+10	1	-1E+10	1	-1E+10	1	-1E+10	1	-1E+10	1
4902554	67	C	12/13/2022	20:05	-133.287	48.220	0	1885.80	0	2.0210	0	34.5710	0	27.636	0	1861.539	0	-1e10	8	-1e10	8	-1E+10	1	-1E+10	1	-1E+10	1	-1E+10	1	-1E+10	1	-1E+10	1
4902554	67	C	12/13/2022	20:05	-133.287	48.220	0	1895.50	0	2.0150	0	34.5720	0	27.638	0	1871.071	0	-1e10	8	-1e10	8	-1E+10	1	-1E+10	1	-1E+10	1	-1E+10	1	-1E+10	1	-1E+10	1
4902554	67	C	12/13/2022	20:05	-133.287	48.220	0	1905.30	0	2.0060	0	34.5740	0	27.640	0	1880.702	0	-1e10	8	-1e10	8	-1E+10	1	-1E+10	1	-1E+10	1	-1E+10	1	-1E+10	1	-1E+10	1
4902554	67	C	12/13/2022	20:05	-133.287	48.220	0	1915.60	0	2.0010	0	34.5750	0	27.641	0	1890.823	0	-1e10	8	-1e10	8	-1E+10	1	-1E+10	1	-1E+10	1	-1E+10	1	-1E+10	1	-1E+10	1
4902554	67	C	12/13/2022	20:05	-133.287	48.220	0	1925.40	0	1.9950	0	34.5770	0	27.643	0	1900.453	0	-1e10	8	-1e10	8	-1E+10	1	-1E+10	1	-1E+10	1	-1E+10	1	-1E+10	1	-1E+10	1
4902554	67	C	12/13/2022	20:05	-133.287	48.220	0	1935.30	0	1.9870	0	34.5780	0	27.645	0	1910.180	0	-1e10	8	-1e10	8	-1E+10	1	-1E+10	1	-1E+10	1	-1E+10	1	-1E+10	1	-1E+10	1
4902554	67	C	12/13/2022	20:05	-133.287	48.220	0	1945.40	0	1.9790	0	34.5800	0	27.647	0	1920.103	0	-1e10	8	-1e10	8	-1E+10	1	-1E+10	1	-1E+10	1	-1E+10	1	-1E+10	1	-1E+10	1
4902554	67	C	12/13/2022	20:05	-133.287	48.220	0	1955.60	0	1.9730	0	34.5810	0	27.648	0	1930.124	0	-1e10	8	-1e10	8	-1E+10	1	-1E+10	1	-1E+10	1	-1E+10	1	-1E+10	1	-1E+10	1
4902554	67	C	12/13/2022	20:05	-133.287	48.220	0	1965.40	0	1.9670	0	34.5830	0	27.651	0	1939.752	0	-1e10	8	-1e10	8	-1E+10	1	-1E+10	1	-1E+10	1	-1E+10	1	-1E+10	1	-1E+10	1
4902554	67	C	12/13/2022	20:05	-133.287	48.220	0	1975.20	0	1.9620	0	34.5830	0	27.651	0	1949.379	0	-1e10	8	-1e10	8	-1E+10	1	-1E+10	1	-1E+10	1	-1E+10	1	-1E+10	1	-1E+10	1
4902554	67	C	12/13/2022	20:05	-133.287	48.220	0	1985.20	0	1.9520	0	34.5850	0	27.653	0	1959.203	0	-1e10	8	-1e10	8	-1E+10	1	-1E+10	1	-1E+10	1	-1E+10	1	-1E+10	1	-1E+10	1
4902554	67	C	12/13/2022	20:05	-133.287	48.220	0	1995.10	0	1.9480	0	34.5860	0	27.655	0	1968.927	0	-1e10	8	-1e10	8	-1E+10	1	-1E+10	1	-1E+10	1	-1E+10	1	-1E+10	1	-1E+10	1
4902554	67	C	12/13/2022	20:05	-133.287	48.220	0	2005.20	0	1.9430	0	34.5870	0	27.656	0	1978.848	0	-1e10	8	-1e10	8	-1E+10	1	-1E+10	1	-1E+10	1	-1E+10	1	-1E+10	1	-1E+10	1
4902554	67	C	12/13/2022	20:05	-133.287	48.220	0	2013.90	0	1.9420	0	34.5880	0	27.657	0	1987.393	0	-1e10	8	-1e10	8	-1E+10	1	-1E+10	1	-1E+10	1	-1E+10	1	-1E+10	1	-1E+10	1
4902554	67	C	12/13/2022	20:05	-133.287	48.220	0																										
4902554	68	C	12/23/2022	15:29	-133.138	48.219	0	0.00	0	9.1170	0	32.3520	0	25.027	0	0.000	0	-1e10	8	-1e10	8	-1E+10	1	-1E+10	1	-1E+10	1	-1E+10	1	-1E+10	1	-1E+10	1
4902554	68	C	12/23/2022	15:29	-133.138	48.219	0	0.20	0	9.1180	0	32.3510	0	25.026	0	0.198	0	-1e10	8	-1e10	8	-1E+10	1	-1E+10	1	-1E+10	1	-1E+10	1	-1E+10	1	-1E+10	1
4902554	68	C	12/23/2022	15:29	-133.138	48.219	0	0.30	0	9.1170	0	32.3490	0	25.025	0	0.297	0	-1e10	1	-1e10	1	-1E+10	1	-1E+10	1	-1E+10	1	-1E+10	1	-1E+10	1	-1E+10	1
4902554	68	C	12/23/2022	15:29	-133.138	48.219	0	0.40	0	9.1210	0	32.3440	0	25.020	0	0.397	0	-1e10	8	-1e10	8	-1E+10	1	-1E+10	1	-1E+10	1	-1E+10	1	-1E+10	1	-1E+10	1
4902554	68	C	12/23/2022	15:29	-133.138	48.219	0	0.90	0	9.1160	0	32.3460	0	25.023	0	0.892	0	-1e10	8	-1e10	8	-1E+10	1	-1E+10	1	-1E+10	1	-1E+10	1	-1E+10	1	-1E+10	1
4902554	68	C	12/23/2022	15:29	-133.138	48.219	0	2.10	0	9.1110	0	32.3530	0	25.029	0	2.082	0	-1e10	8	-1e10	8	-1E+10	1	-1E+10	1	-1E+10	1	-1E+10	1	-1E+10	1	-1E+10	1
4902554	68	C	12/23/2022	15:29	-133.138	48.219	0	3.10	0	9.1130	0	32.3520	0	25.028	0	3.074	0	-1e10	8	-1e10	8	-1E+10	1	-1E+10	1	-1E+10	1	-1E+10	1	-1E+10	1	-1E+10	1
4902554	68	C	12/23/2022	15:29	-133.138	48.219	0	4.10	0	9.1140	0	32.3510	0	25.027	0	4.065	0	-1e10	8	-1e10	8	-1E+10	1	-1E+10	1	-1E+10	1	-1E+10	1	-1E+10	1	-1E+10	1
4902554	68	C	12/23/2022	15:29	-133.138	48.219	0	4.90	0	9.1150	0	32.3520	0	25.028	0	4.859	0	-1e10	8	-1e10	8	-1E+10	1	-1E+10	1	-1E+10	1	-1E+10	1	-1E+10	1	-1E+10	1
4902554	68	C	12/23/2022	15:29	-133.138	48.219	0	6.10	0	9.1130	0	32.3510	0	25.027	0	6.049	0	-1e10	8	-1e10	8	-1E+10	1	-1E+10	1	-1E+10	1	-1E+10	1	-1E+10	1	-1E+10	1
4902554	68	C	12/23/2022	15:29	-133.138	48.219	0	7.10	0	9.1110	0	32.3510	0	25.028	0	7.040	0	-1e10	8	-1e10	8	-1E+10	1	-1E+10	1	-1E+10	1	-1E+10	1	-1E+10	1	-1E+10	1
4902554	68	C	12/23/2022	15:29	-133.138	48.219	0	7.80	0	9.1150	0	32.3530	0	25.029	0	7.734	0	-1e10	8	-1e10	8	-1E+10	1	-1E+10	1	-1E+10	1	-1E+10	1	-1E+10	1	-1E+10	1
4902554	68	C	12/23/2022	15:29	-133.138	48.219	0	9.00	0	9.1210	0	32.3550	0	25.029	0	8.924	0	-1e10	8	-1e10	8	-1E+10	1	-1E+10	1	-1E+10	1	-1E+10	1	-1E+10	1	-1E+10	1
4902554	68	C	12/23/2022	15:29	-133.138	48.219	0	10.00	0	9.1210	0	32.3520	0	25.027	0	9.916	0	-1e10	8	-1e10	8	-1E+10	1	-1E+10	1	-1E+10	1	-1E+10	1	-1E+10	1	-1E+10	1
4902554	68	C	12/23/2022	15:29	-133.138	48.219	0	11.00	0	9.1200	0	32.3520	0	25.027	0	10.907	0	-1e10	8	-1e10	8	-1E+10	1	-1E+10	1	-1E+10	1	-1E+10	1	-1E+10	1	-1E+10	1
4902554	68	C	12/23/2022	15:29	-133.138	48.219	0	12.00	0	9.1210	0	32.3520	0	25.027	0	11.899	0	-1e10	8	-1e10	8	-1E+10	1	-1E+10	1	-1E+10	1	-1E+10	1	-1E+10	1	-1E+10	1
4902554	68	C	12/23/2022	15:29	-133.138	48.219	0	12.90	0	9.1270	0	32.3530	0	25.027	0	12.791	0	-1e10	8	-1e10	8	-1E+10	1	-1E+10	1	-1E+10	1	-1E+10	1	-1E+10	1	-1E+10	1
4902554	68	C	12/23/2022	15:29	-133.138	48.219	0	14.10	0	9.1250	0	32.3520	0	25.026	0	13.981	0	-1e10	8	-1e10	8	-1E+10	1	-1E+10	1	-1E+10	1	-1E+10	1	-1E+10	1	-1E+10	1
4902554	68	C	12/23/2022	15:29	-133.138	48.219	0	14.90	0	9.1210	0	32.3530	0	25.028	0	14.774	0	-1e10	8	-1e10	8	-1E+10	1	-1E+10	1	-1E+10	1	-1E+10	1	-1E+10	1	-1E+10	1
4902554	68	C	12/23/2022	15:29	-133.138	48.219	0	15.90	0	9.1250	0	32.3530	0	25.027	0	15.766	0	-1e10	8	-1e10	8	-1E+10	1	-1E+10	1	-1E+10	1	-1E+10	1	-1E+10	1	-1E+10	1
4902554	68	C	12/23/2022	15:29	-133.138	48.219	0	16.80	0	9.1350	0	32.3560	0	25.028	0	16.658	0	-1e10	8	-1e10	8	-1E+10	1	-1E+10	1	-1E+10	1	-1E+10	1	-1E+10	1	-1E+10	1
4902554	68	C	12/23/2022	15:29	-133.138	48.219	0	17.80	0	9.1330	0	32.3540	0	25.027	0	17.650	0	-1e10	8	-1e10	8	-1E+10	1	-1E+10	1	-1E+10	1	-1E+10	1	-1E+10	1	-1E+10	1
4902554	68	C	12/23/2022	15:29	-133.138	48.219	0	19.00	0	9.1380	0	32.3540	0	25.026	0	18.839	0	-1e10	8	-1e10	8	-1E+10	1	-1E+10	1	-1E+10	1	-1E+10	1	-1E+10	1	-1E+10	1
4902554	68	C	12/23/2022	15:29	-133.138	48.219	0	19.90	0	9.1380	0	32.3550	0	25.027	0	19.732	0	-1e10	8	-1e10	8	-1E+10	1	-1E+10	1	-1E+10	1	-1E+10	1	-1E+10	1	-1E+10	1
4902554	68	C	12/23/2022	15:29	-133.138	48.219	0	20.90	0	9.1400	0	32.3550	0	25.026	0	20.723	0	-1e10	8	-1e10	8	-1E+10	1	-1E+10	1	-1E+10	1	-1E+10	1	-1E+10	1	-1E+10	1
4902554	68	C	12/23/2022	15:29	-133.138	48.219	0	22.10	0	9.1390	0	32.3550	0	25.027	0	21.913	0	-1e10	8	-1e10	8	-1E+10	1	-1E+10	1	-1E+10	1	-1E+10	1	-1E+10	1	-1E+10	1
4902554	68	C	12/23/2022	15:29	-133.138	48.219	0	23.10	0	9.1390	0	32.3550	0	25.027	0	22.904	0	-1e10	8	-1e10	8	-1E+10	1	-1E+10	1	-1E+10	1	-1E+10	1	-1E+10	1	-1E+10	1
4902554	68	C	12/23/2022	15:29	-133.138	48.219	0	24.00	0	9.1390	0	32.3550	0	25.027	0	23.797	0	-1e10	8	-1e10	8	-1E+10	1	-1E+10	1	-1E+10	1	-1E+10	1	-1E+10	1	-1E+10	1
4902554	68	C	12/23/2022	15:29	-133.138	48.219	0	25.00	0	9.1380	0	32.3550	0	25.027	0	24.788	0	-1e10	8	-1e10	8	-1E+10	1	-1E+10	1	-1E+10	1	-1E+10	1	-1E+10	1	-1E+10	1
4902554	68	C	12/23/2022	15:29	-133.138	48.219	0	26.00	0	9.1370	0	32.3550	0	25.027	0	25.780	0	-1e10	8	-1e10	8	-1E+10	1	-1E+10	1	-1E+10	1	-1E+10	1	-1E+10	1	-1E+10	1
4902554	68	C	12/23/2022	15:29	-133.138	48.219	0	26.90	0	9.1380	0	32.3550	0	25.027	0	26.672	0	-1e10	8	-1e10	8	-1E+10	1	-1E+10	1	-1E+10	1	-1E+10	1	-1E+10	1	-1E+10	1
4902554	68	C	12/23/2022	15:29	-133.138	48.219	0	27.90	0	9.1390	0	32.3550	0	25.027	0	27.663	0	-1e10	8	-1e10	8	-1E+10	1	-1E+10	1	-1E+10	1	-1E+10	1	-1E+10	1	-1E+10	1
4902554	68	C	12/23/2022	15:29	-133.138	48.219	0	29.00	0	9.1400	0	32.3550	0	25.027	0	28.754	0	-1e10	8	-1e10	8	-1E+10	1	-1E+10	1	-1E+10	1	-1E+10	1	-1E+10	1	-1E+10	1
4902554	68	C	12/23/2022	15:29	-133.138	48.219	0	30.00	0	9.1390	0	32.3550	0	25.027	0	29.745	0	-1e10	8	-1e10	8	-1E+10	1	-1E+10	1	-1E+10	1	-1E+10	1	-1E+10	1	-1E+10	1
4902554	68	C	12/23/2022	15:29	-133.138	48.219	0	31.00	0	9.1410	0	32.3550	0	25.026	0	30.737	0	-1e10	8	-1e10	8	-1E+10	1	-1E+10	1	-1E+10	1	-1E+10	1	-1E+10	1	-1E+10	1
4902554	68	C	12/23/2022	15:29	-133.138	48.219	0	32.00	0	9.1420	0	32.3550	0	25.026	0	31.728	0	-1e10	8	-1e10	8	-1E+10	1	-1E+10	1	-1E+10	1	-1E+10	1	-1E+10	1	-1E+10	1
4902554	68	C	12/23/2022	15:29	-133.138	48.219	0	33.10	0	9.1430	0	32.3550	0	25.026	0	32.819	0	-1e10	8	-1e10	8	-1E+10	1	-1E+10	1	-1E+10	1	-1E+10	1	-1E+10	1	-1E+10	1
4902554	68	C	12/23/2022	15:29	-133.138	48.219	0	33.90	0	9.1420	0	32.3560	0	25.027	0	33.612	0	-1e10	8	-1e10	8	-1E+10	1	-1E+10	1	-1E+10	1	-1E+10	1	-1E+10	1	-1E+10	1
4902554	68	C	12/23/2022	15:29	-133.138	48.219	0	35.00	0	9.1410	0	32.3550	0	25.026	0	34.703	0	-1e10	8	-1e10	8	-1E+10	1	-1E+10	1	-1E+10	1	-1E+10	1	-1E+10	1	-1E+10	1
4902554	68	C	12/23/2022	15:29	-133.138	48.219	0	36.10	0	9.1410	0	32.3550	0	25.026	0	35.793	0	-1e10	8	-1e10	8	-1E+10	1	-1E+10	1	-1E+10	1	-1E+10	1	-1E+10	1	-1E+10	1
4902554	68	C	12/23/2022	15:29	-133.138	48.219	0	36.80	0	9.1420	0	32.3540	0	25.026	0	36.487	0	-1e10	8	-1e10	8	-1E+10	1	-1E+10	1	-1E+10	1	-1E+10	1	-1E+10	1	-1E+10	1
4902554	68	C	12/23/2022	15:29	-133.138	48.219	0	37.90	0	9.1400	0	32.3550	0	25.027	0	37.578	0	-1e10	8	-1e10	8	-1E+10	1	-1E+10	1	-1E+10	1	-1E+10	1	-1E+10	1	-1E+10	1
4902554	68	C	12/23/2022	15:29	-133.138	48.219	0	39.00	0	9.1400	0	32.3550	0	25.027	0	38.668	0	-1e10	8	-1e10	8	-1E+10	1	-1E+10	1	-1E+10	1	-1E+10	1	-1E+10	1	-1E+10	1
4902554	68	C	12/23/2022	15:29	-133.138	48.219	0	39.70	0	9.1410	0	32.3550	0	25.027	0	39.362	0	-1e10	8	-1e10	8	-1E+10	1	-1E+10	1	-1E+10	1	-1E+10	1	-1E+10	1	-1E+10	1
4902554	68	C	12/23/2022	15:29	-133.138	48.219	0	40.90	0	9.1410	0	32.3550	0	25.027	0	40.552	0	-1e10	8	-1e10	8	-1E+10	1	-1E+10	1	-1E+10	1	-1E+10	1	-1E+10	1	-1E+10	1
4902554	68	C	12/23/2022	15:29	-133.138	48.219	0	42.10	0	9.1410	0	32.3550	0	25.027	0	41.742	0	-1e10	8	-1e10	8	-1E+10	1	-1E+10	1	-1E+10	1	-1E+10	1	-1E+10	1	-1E+10	1
4902554	68	C	12/23/2022	15:29	-133.138	48.219	0	43.00	0	9.1400	0	32.3560	0	25.028	0	42.634	0	-1e10	8	-1e10	8	-1E+10	1	-1E+10	1	-1E+10	1	-1E+10	1	-1E+10	1	-1E+10	1
4902554	68	C	12/23/2022	15:29	-133.138	48.219	0	43.80	0	9.1400	0	32.3550	0	25.027	0	43.427	0	-1e10	8	-1e10	8	-1E+10	1	-1E+10	1	-1E+10	1	-1E+10	1	-1E+10	1	-1E+10	1
4902554	68	C	12/23/2022	15:29	-133.138	48.219	0	45.00	0	9.1400	0	32.3550	0	25.027	0	44.617	0	-1e10	8	-1e10	8	-1E+10	1	-1E+10	1	-1E+10	1	-1E+10	1	-1E+10	1	-1E+10	1
4902554	68	C	12/23/2022	15:29	-133.138	48.219	0	46.30	0	9.1400	0	32.3540	0	25.026	0	45.905	0	-1e10	8	-1e10	8	-1E+10	1	-1E+10	1	-1E+10	1	-1E+10	1	-1E+10	1	-1E+10	1
4902554	68	C	12/23/2022	15:29	-133.138	48.219	0	47.10	0	9.1410	0	32.3530	0	25.025	0	46.698	0	-1e10	8	-1e10	8	-1E+10	1	-1E+10	1	-1E+10	1	-1E+10	1	-1E+10	1	-1E+10	1
4902554	68	C	12/23/2022	15:29	-133.138	48.219	0	48.00	0	9.1400	0	32.3550	0	25.027	0	47.591	0	-1e10	8	-1e10	8	-1E+10	1	-1E+10	1	-1E+10	1	-1E+10	1	-1E+10	1	-1E+10	1
4902554	68	C	12/23/2022	15:29	-133.138	48.219	0	48.80	0	9.1390	0	32.3550	0	25.027	0	48.384	0	-1e10	8	-1e10	8	-1E+10	1	-1E+10	1	-1E+10	1	-1E+10	1	-1E+10	1	-1E+10	1
4902554	68	C	12/23/2022	15:29	-133.138	48.219	0	49.70	0	9.1400	0	32.3550	0	25.027	0	49.276	0	-1e10	8	-1e10	8	-1E+10	1	-1E+10	1	-1E+10	1	-1E+10	1	-1E+10	1	-1E+10	1
4902554	68	C	12/23/2022	15:29	-133.138	48.219	0	50.60	0	9.1380	0	32.3540	0	25.026	0	50.168	0	-1e10	8	-1e10	8	-1E+10	1	-1E+10	1	-1E+10	1	-1E+10	1	-1E+10	1	-1E+10	1
4902554	68	C	12/23/2022	15:29	-133.138	48.219	0	51.90	0	9.1370	0	32.3540	0	25.027	0	51.457	0	-1e10	8	-1e10	8	-1E+10	1	-1E+10	1	-1E+10	1	-1E+10	1	-1E+10	1	-1E+10	1
4902554	68	C	12/23/2022	15:29	-133.138	48.219	0	53.10	0	9.1370	0	32.3530	0	25.026	0	52.647	0	-1e10	8	-1e10	8	-1E+10	1	-1E+10	1	-1E+10	1	-1E+10	1	-1E+10	1	-1E+10	1
4902554	68	C	12/23/2022	15:29	-133.138	48.219	0	54.00	0	9.1380	0	32.3560	0	25.028	0	53.539	0	-1e10	8	-1e10	8	-1E+10	1	-1E+10	1	-1E+10	1	-1E+10	1	-1E+10	1	-1E+10	1
4902554	68	C	12/23/2022	15:29	-133.138	48.219	0	54.80	0	9.1390	0	32.3550	0	25.027	0	54.332	0	-1e10	8	-1e10	8	-1E+10	1	-1E+10	1	-1E+10	1	-1E+10	1	-1E+10	1	-1E+10	1
4902554	68	C	12/23/2022	15:29	-133.138	48.219	0	55.60	0	9.1410	0	32.3560	0	25.028	0	55.125	0	-1e10	8	-1e10	8	-1E+10	1	-1E+10	1	-1E+10	1	-1E+10	1	-1E+10	1	-1E+10	1
4902554	68	C	12/23/2022	15:29	-133.138	48.219	0	56.90	0	9.1400	0	32.3550	0	25.027	0	56.414	0	-1e10	8	-1e10	8	-1E+10	1	-1E+10	1	-1E+10	1	-1E+10	1	-1E+10	1	-1E+10	1
4902554	68	C	12/23/2022	15:29	-133.138	48.219	0	58.10	0	9.1420	0	32.3560	0	25.027	0	57.603	0	-1e10	8	-1e10	8	-1E+10	1	-1E+10	1	-1E+10	1	-1E+10	1	-1E+10	1	-1E+10	1
4902554	68	C	12/23/2022	15:29	-133.138	48.219	0	58.90	0	9.1420	0	32.3550	0	25.027	0	58.396	0	-1e10	8	-1e10	8	-1E+10	1	-1E+10	1	-1E+10	1	-1E+10	1	-1E+10	1	-1E+10	1
4902554	68	C	12/23/2022	15:29	-133.138	48.219	0	59.70	0	9.1420	0	32.3550	0	25.027	0	59.189	0	-1e10	8	-1e10	8	-1E+10	1	-1E+10	1	-1E+10	1	-1E+10	1	-1E+10	1	-1E+10	1
4902554	68	C	12/23/2022	15:29	-133.138	48.219	0	60.90	0	9.1420	0	32.3550	0	25.027	0	60.379	0	-1e10	8	-1e10	8	-1E+10	1	-1E+10	1	-1E+10	1	-1E+10	1	-1E+10	1	-1E+10	1
4902554	68	C	12/23/2022	15:29	-133.138	48.219	0	62.10	0	9.1430	0	32.3550	0	25.027	0	61.568	0	-1e10	8	-1e10	8	-1E+10	1	-1E+10	1	-1E+10	1	-1E+10	1	-1E+10	1	-1E+10	1
4902554	68	C	12/23/2022	15:29	-133.138	48.219	0	62.90	0	9.1430	0	32.3550	0	25.027	0	62.361	0	-1e10	8	-1e10	8	-1E+10	1	-1E+10	1	-1E+10	1	-1E+10	1	-1E+10	1	-1E+10	1
4902554	68	C	12/23/2022	15:29	-133.138	48.219	0	64.00	0	9.1420	0	32.3550	0	25.027	0	63.452	0	-1e10	8	-1e10	8	-1E+10	1	-1E+10	1	-1E+10	1	-1E+10	1	-1E+10	1	-1E+10	1
4902554	68	C	12/23/2022	15:29	-133.138	48.219	0	65.10	0	9.1430	0	32.3550	0	25.027	0	64.542	0	-1e10	8	-1e10	8	-1E+10	1	-1E+10	1	-1E+10	1	-1E+10	1	-1E+10	1	-1E+10	1
4902554	68	C	12/23/2022	15:29	-133.138	48.219	0	65.90	0	9.1420	0	32.3530	0	25.025	0	65.335	0	-1e10	8	-1e10	8	-1E+10	1	-1E+10	1	-1E+10	1	-1E+10	1	-1E+10	1	-1E+10	1
4902554	68	C	12/23/2022	15:29	-133.138	48.219	0	66.90	0	9.1420	0	32.3540	0	25.026	0	66.327	0	-1e10	8	-1e10	8	-1E+10	1	-1E+10	1	-1E+10	1	-1E+10	1	-1E+10	1	-1E+10	1
4902554	68	C	12/23/2022	15:29	-133.138	48.219	0	67.90	0	9.1400	0	32.3560	0	25.028	0	67.318	0	-1e10	8	-1e10	8	-1E+10	1	-1E+10	1	-1E+10	1	-1E+10	1	-1E+10	1	-1E+10	1
4902554	68	C	12/23/2022	15:29	-133.138	48.219	0	68.80	0	9.1420	0	32.3550	0	25.027	0	68.210	0	-1e10	8	-1e10	8	-1E+10	1	-1E+10	1	-1E+10	1	-1E+10	1	-1E+10	1	-1E+10	1
4902554	68	C	12/23/2022	15:29	-133.138	48.219	0	70.00	0	9.1410	0	32.3550	0	25.027	0	69.399	0	-1e10	8	-1e10	8	-1E+10	1	-1E+10	1	-1E+10	1	-1E+10	1	-1E+10	1	-1E+10	1
4902554	68	C	12/23/2022	15:29	-133.138	48.219	0	71.00	0	9.1410	0	32.3550	0	25.027	0	70.391	0	-1e10	8	-1e10	8	-1E+10	1	-1E+10	1	-1E+10	1	-1E+10	1	-1E+10	1	-1E+10	1
4902554	68	C	12/23/2022	15:29	-133.138	48.219	0	72.10	0	9.1400	0	32.3540	0	25.026	0	71.481	0	-1e10	8	-1e10	8	-1E+10	1	-1E+10	1	-1E+10	1	-1E+10	1	-1E+10	1	-1E+10	1
4902554	68	C	12/23/2022	15:29	-133.138	48.219	0	73.10	0	9.1400	0	32.3540	0	25.026	0	72.472	0	-1e10	8	-1e10	8	-1E+10	1	-1E+10	1	-1E+10	1	-1E+10	1	-1E+10	1	-1E+10	1
4902554	68	C	12/23/2022	15:29	-133.138	48.219	0	74.00	0	9.1400	0	32.3550	0	25.027	0	73.364	0	-1e10	8	-1e10	8	-1E+10	1	-1E+10	1	-1E+10	1	-1E+10	1	-1E+10	1	-1E+10	1
4902554	68	C	12/23/2022	15:29	-133.138	48.219	0	74.70	0	9.1380	0	32.3540	0	25.027	0	74.058	0	-1e10	8	-1e10	8	-1E+10	1	-1E+10	1	-1E+10	1	-1E+10	1	-1E+10	1	-1E+10	1
4902554	68	C	12/23/2022	15:29	-133.138	48.219	0	75.90	0	9.1360	0	32.3540	0	25.027	0	75.248	0	-1e10	8	-1e10	8	-1E+10	1	-1E+10	1	-1E+10	1	-1E+10	1	-1E+10	1	-1E+10	1
4902554	68	C	12/23/2022	15:29	-133.138	48.219	0	77.10	0	9.1370	0	32.3540	0	25.027	0	76.437	0	-1e10	8	-1e10	8	-1E+10	1	-1E+10	1	-1E+10	1	-1E+10	1	-1E+10	1	-1E+10	1
4902554	68	C	12/23/2022	15:29	-133.138	48.219	0	78.00	0	9.1510	0	32.3570	0	25.027	0	77.329	0	-1e10	8	-1e10	8	-1E+10	1	-1E+10	1	-1E+10	1	-1E+10	1	-1E+10	1	-1E+10	1
4902554	68	C	12/23/2022	15:29	-133.138	48.219	0	79.00	0	9.1570	0	32.3580	0	25.027	0	78.320	0	-1e10	8	-1e10	8	-1E+10	1	-1E+10	1	-1E+10	1	-1E+10	1	-1E+10	1	-1E+10	1
4902554	68	C	12/23/2022	15:29	-133.138	48.219	0	80.10	0	9.1560	0	32.3590	0	25.028	0	79.411	0	-1e10	8	-1e10	8	-1E+10	1	-1E+10	1	-1E+10	1	-1E+10	1	-1E+10	1	-1E+10	1
4902554	68	C	12/23/2022	15:29	-133.138	48.219	0	80.80	0	9.1560	0	32.3590	0	25.028	0	80.105	0	-1e10	8	-1e10	8	-1E+10	1	-1E+10	1	-1E+10	1	-1E+10	1	-1E+10	1	-1E+10	1
4902554	68	C	12/23/2022	15:29	-133.138	48.219	0	81.80	0	9.1580	0	32.3590	0	25.028	0	81.096	0	-1e10	8	-1e10	8	-1E+10	1	-1E+10	1	-1E+10	1	-1E+10	1	-1E+10	1	-1E+10	1
4902554	68	C	12/23/2022	15:29	-133.138	48.219	0	83.10	0	9.1550	0	32.3590	0	25.028	0	82.384	0	-1e10	8	-1e10	8	-1E+10	1	-1E+10	1	-1E+10	1	-1E+10	1	-1E+10	1	-1E+10	1
4902554	68	C	12/23/2022	15:29	-133.138	48.219	0	84.10	0	9.1550	0	32.3590	0	25.028	0	83.376	0	-1e10	8	-1e10	8	-1E+10	1	-1E+10	1	-1E+10	1	-1E+10	1	-1E+10	1	-1E+10	1
4902554	68	C	12/23/2022	15:29	-133.138	48.219	0	85.00	0	9.1550	0	32.3600	0	25.029	0	84.268	0	-1e10	8	-1e10	8	-1E+10	1	-1E+10	1	-1E+10	1	-1E+10	1	-1E+10	1	-1E+10	1
4902554	68	C	12/23/2022	15:29	-133.138	48.219	0	86.00	0	9.1580	0	32.3580	0	25.027	0	85.259	0	-1e10	8	-1e10	8	-1E+10	1	-1E+10	1	-1E+10	1	-1E+10	1	-1E+10	1	-1E+10	1
4902554	68	C	12/23/2022	15:29	-133.138	48.219	0	86.90	0	9.1600	0	32.3600	0	25.028	0	86.151	0	-1e10	8	-1e10	8	-1E+10	1	-1E+10	1	-1E+10	1	-1E+10	1	-1E+10	1	-1E+10	1
4902554	68	C	12/23/2022	15:29	-133.138	48.219	0	88.10	0	9.1550	0	32.3590	0	25.028	0	87.340	0	-1e10	8	-1e10	8	-1E+10	1	-1E+10	1	-1E+10	1	-1E+10	1	-1E+10	1	-1E+10	1
4902554	68	C	12/23/2022	15:29	-133.138	48.219	0	89.00	0	9.1530	0	32.3580	0	25.028	0	88.232	0	-1e10	8	-1e10	8	-1E+10	1	-1E+10	1	-1E+10	1	-1E+10	1	-1E+10	1	-1E+10	1
4902554	68	C	12/23/2022	15:29	-133.138	48.219	0	89.90	0	9.1530	0	32.3590	0	25.029	0	89.124	0	-1e10	8	-1e10	8	-1E+10	1	-1E+10	1	-1E+10	1	-1E+10	1	-1E+10	1	-1E+10	1
4902554	68	C	12/23/2022	15:29	-133.138	48.219	0	91.00	0	9.1530	0	32.3590	0	25.029	0	90.215	0	-1e10	8	-1e10	8	-1E+10	1	-1E+10	1	-1E+10	1	-1E+10	1	-1E+10	1	-1E+10	1
4902554	68	C	12/23/2022	15:29	-133.138	48.219	0	92.00	0	9.1530	0	32.3590	0	25.029	0	91.206	0	-1e10	8	-1e10	8	-1E+10	1	-1E+10	1	-1E+10	1	-1E+10	1	-1E+10	1	-1E+10	1
4902554	68	C	12/23/2022	15:29	-133.138	48.219	0	93.10	0	9.1480	0	32.3610	0	25.031	0	92.296	0	-1e10	8	-1e10	8	-1E+10	1	-1E+10	1	-1E+10	1	-1E+10	1	-1E+10	1	-1E+10	1
4902554	68	C	12/23/2022	15:29	-133.138	48.219	0	94.30	0	9.1390	0	32.3650	0	25.036	0	93.485	0	-1e10	8	-1e10	8	-1E+10	1	-1E+10	1	-1E+10	1	-1E+10	1	-1E+10	1	-1E+10	1
4902554	68	C	12/23/2022	15:29	-133.138	48.219	0	95.00	0	9.0570	0	32.3760	0	25.057	0	94.179	0	-1e10	8	-1e10	8	-1E+10	1	-1E+10	1	-1E+10	1	-1E+10	1	-1E+10	1	-1E+10	1
4902554	68	C	12/23/2022	15:29	-133.138	48.219	0	96.00	0	8.9600	0	32.3810	0	25.076	0	95.170	0	-1e10	8	-1e10	8	-1E+10	1	-1E+10	1	-1E+10	1	-1E+10	1	-1E+10	1	-1E+10	1
4902554	68	C	12/23/2022	15:29	-133.138	48.219	0	96.90	0	8.7880	0	32.3890	0	25.109	0	96.062	0	-1e10	8	-1e10	8	-1E+10	1	-1E+10	1	-1E+10	1	-1E+10	1	-1E+10	1	-1E+10	1
4902554	68	C	12/23/2022	15:29	-133.138	48.219	0	97.80	0	8.6120	0	32.3930	0	25.138	0	96.954	0	-1e10	8	-1e10	8	-1E+10	1	-1E+10	1	-1E+10	1	-1E+10	1	-1E+10	1	-1E+10	1
4902554	68	C	12/23/2022	15:29	-133.138	48.219	0	99.00	0	8.3190	0	32.4250	0	25.207	0	98.144	0	-1e10	8	-1e10	8	-1E+10	1	-1E+10	1	-1E+10	1	-1E+10	1	-1E+10	1	-1E+10	1
4902554	68	C	12/23/2022	15:29	-133.138	48.219	0	100.10	0	7.6990	0	32.4820	0	25.341	0	99.234	0	-1e10	8	-1e10	8	-1E+10	1	-1E+10	1	-1E+10	1	-1E+10	1	-1E+10	1	-1E+10	1
4902554	68	C	12/23/2022	15:29	-133.138	48.219	0	101.10	0	7.3910	0	32.4930	0	25.393	0	100.225	0	-1e10	8	-1e10	8	-1E+10	1	-1E+10	1	-1E+10	1	-1E+10	1	-1E+10	1	-1E+10	1
4902554	68	C	12/23/2022	15:29	-133.138	48.219	0	102.10	0	7.3010	0	32.4940	0	25.406	0	101.216	0	-1e10	8	-1e10	8	-1E+10	1	-1E+10	1	-1E+10	1	-1E+10	1	-1E+10	1	-1E+10	1
4902554	68	C	12/23/2022	15:29	-133.138	48.219	0	103.00	0	7.2290	0	32.4980	0	25.419	0	102.108	0	-1e10	8	-1e10	8	-1E+10	1	-1E+10	1	-1E+10	1	-1E+10	1	-1E+10	1	-1E+10	1
4902554	68	C	12/23/2022	15:29	-133.138	48.219	0	103.80	0	7.0920	0	32.5220	0	25.456	0	102.901	0	-1e10	8	-1e10	8	-1E+10	1	-1E+10	1	-1E+10	1	-1E+10	1	-1E+10	1	-1E+10	1
4902554	68	C	12/23/2022	15:29	-133.138	48.219	0	104.90	0	6.9390	0	32.5290	0	25.482	0	103.991	0	-1e10	8	-1e10	8	-1E+10	1	-1E+10	1	-1E+10	1	-1E+10	1	-1E+10	1	-1E+10	1
4902554	68	C	12/23/2022	15:29	-133.138	48.219	0	106.00	0	6.8680	0	32.5460	0	25.505	0	105.081	0	-1e10	8	-1e10	8	-1E+10	1	-1E+10	1	-1E+10	1	-1E+10	1	-1E+10	1	-1E+10	1
4902554	68	C	12/23/2022	15:29	-133.138	48.219	0	107.10	0	6.8140	0	32.5710	0	25.532	0	106.172	0	-1e10	8	-1e10	8	-1E+10	1	-1E+10	1	-1E+10	1	-1E+10	1	-1E+10	1	-1E+10	1
4902554	68	C	12/23/2022	15:29	-133.138	48.219	0	108.30	0	6.7760	0	32.5860	0	25.549	0	107.361	0	-1e10	8	-1e10	8	-1E+10	1	-1E+10	1	-1E+10	1	-1E+10	1	-1E+10	1	-1E+10	1
4902554	68	C	12/23/2022	15:29	-133.138	48.219	0	109.00	0	6.7730	0	32.5860	0	25.549	0	108.055	0	-1e10	8	-1e10	8	-1E+10	1	-1E+10	1	-1E+10	1	-1E+10	1	-1E+10	1	-1E+10	1
4902554	68	C	12/23/2022	15:29	-133.138	48.219	0	110.10	0	6.7590	0	32.5880	0	25.552	0	109.145	0	-1e10	8	-1e10	8	-1E+10	1	-1E+10	1	-1E+10	1	-1E+10	1	-1E+10	1	-1E+10	1
4902554	68	C	12/23/2022	15:29	-133.138	48.219	0	110.90	0	6.7520	0	32.5910	0	25.556	0	109.938	0	-1e10	8	-1e10	8	-1E+10	1	-1E+10	1	-1E+10	1	-1E+10	1	-1E+10	1	-1E+10	1
4902554	68	C	12/23/2022	15:29	-133.138	48.219	0	111.80	0	6.7250	0	32.6100	0	25.574	0	110.830	0	-1e10	8	-1e10	8	-1E+10	1	-1E+10	1	-1E+10	1	-1E+10	1	-1E+10	1	-1E+10	1
4902554	68	C	12/23/2022	15:29	-133.138	48.219	0	113.00	0	6.6880	0	32.6420	0	25.604	0	112.019	0	-1e10	8	-1e10	8	-1E+10	1	-1E+10	1	-1E+10	1	-1E+10	1	-1E+10	1	-1E+10	1
4902554	68	C	12/23/2022	15:29	-133.138	48.219	0	114.20	0	6.6600	0	32.6880	0	25.644	0	113.208	0	-1e10	8	-1e10	8	-1E+10	1	-1E+10	1	-1E+10	1	-1E+10	1	-1E+10	1	-1E+10	1
4902554	68	C	12/23/2022	15:29	-133.138	48.219	0	115.00	0	6.6500	0	32.7130	0	25.665	0	114.001	0	-1e10	8	-1e10	8	-1E+10	1	-1E+10	1	-1E+10	1	-1E+10	1	-1E+10	1	-1E+10	1
4902554	68	C	12/23/2022	15:29	-133.138	48.219	0	116.00	0	6.6370	0	32.7380	0	25.687	0	114.992	0	-1e10	8	-1e10	8	-1E+10	1	-1E+10	1	-1E+10	1	-1E+10	1	-1E+10	1	-1E+10	1
4902554	68	C	12/23/2022	15:29	-133.138	48.219	0	116.80	0	6.6450	0	32.7560	0	25.700	0	115.785	0	-1e10	8	-1e10	8	-1E+10	1	-1E+10	1	-1E+10	1	-1E+10	1	-1E+10	1	-1E+10	1
4902554	68	C	12/23/2022	15:29	-133.138	48.219	0	117.90	0	6.6640	0	32.7830	0	25.719	0	116.875	0	-1e10	8	-1e10	8	-1E+10	1	-1E+10	1	-1E+10	1	-1E+10	1	-1E+10	1	-1E+10	1
4902554	68	C	12/23/2022	15:29	-133.138	48.219	0	118.80	0	6.6540	0	32.8230	0	25.751	0	117.767	0	-1e10	8	-1e10	8	-1E+10	1	-1E+10	1	-1E+10	1	-1E+10	1	-1E+10	1	-1E+10	1
4902554	68	C	12/23/2022	15:29	-133.138	48.219	0	120.10	0	6.6430	0	32.8500	0	25.774	0	119.055	0	-1e10	8	-1e10	8	-1E+10	1	-1E+10	1	-1E+10	1	-1E+10	1	-1E+10	1	-1E+10	1
4902554	68	C	12/23/2022	15:29	-133.138	48.219	0	121.10	0	6.6230	0	32.8720	0	25.794	0	120.046	0	-1e10	8	-1e10	8	-1E+10	1	-1E+10	1	-1E+10	1	-1E+10	1	-1E+10	1	-1E+10	1
4902554	68	C	12/23/2022	15:29	-133.138	48.219	0	122.10	0	6.6250	0	32.8810	0	25.801	0	121.037	0	-1e10	8	-1e10	8	-1E+10	1	-1E+10	1	-1E+10	1	-1E+10	1	-1E+10	1	-1E+10	1
4902554	68	C	12/23/2022	15:29	-133.138	48.219	0	123.00	0	6.6280	0	32.8930	0	25.810	0	121.929	0	-1e10	8	-1e10	8	-1E+10	1	-1E+10	1	-1E+10	1	-1E+10	1	-1E+10	1	-1E+10	1
4902554	68	C	12/23/2022	15:29	-133.138	48.219	0	124.00	0	6.5990	0	32.9550	0	25.863	0	122.920	0	-1e10	8	-1e10	8	-1E+10	1	-1E+10	1	-1E+10	1	-1E+10	1	-1E+10	1	-1E+10	1
4902554	68	C	12/23/2022	15:29	-133.138	48.219	0	124.90	0	6.5550	0	33.0340	0	25.931	0	123.812	0	-1e10	8	-1e10	8	-1E+10	1	-1E+10	1	-1E+10	1	-1E+10	1	-1E+10	1	-1E+10	1
4902554	68	C	12/23/2022	15:29	-133.138	48.219	0	125.80	0	6.5470	0	33.0480	0	25.943	0	124.704	0	-1e10	8	-1e10	8	-1E+10	1	-1E+10	1	-1E+10	1	-1E+10	1	-1E+10	1	-1E+10	1
4902554	68	C	12/23/2022	15:29	-133.138	48.219	0	126.90	0	6.5410	0	33.0550	0	25.949	0	125.794	0	-1e10	8	-1e10	8	-1E+10	1	-1E+10	1	-1E+10	1	-1E+10	1	-1E+10	1	-1E+10	1
4902554	68	C	12/23/2022	15:29	-133.138	48.219	0	127.90	0	6.5310	0	33.0660	0	25.959	0	126.785	0	-1e10	8	-1e10	8	-1E+10	1	-1E+10	1	-1E+10	1	-1E+10	1	-1E+10	1	-1E+10	1
4902554	68	C	12/23/2022	15:29	-133.138	48.219	0	128.80	0	6.5180	0	33.0930	0	25.982	0	127.677	0	-1e10	8	-1e10	8	-1E+10	1	-1E+10	1	-1E+10	1	-1E+10	1	-1E+10	1	-1E+10	1
4902554	68	C	12/23/2022	15:29	-133.138	48.219	0	130.00	0	6.5000	0	33.1300	0	26.014	0	128.866	0	-1e10	8	-1e10	8	-1E+10	1	-1E+10	1	-1E+10	1	-1E+10	1	-1E+10	1	-1E+10	1
4902554	68	C	12/23/2022	15:29	-133.138	48.219	0	130.70	0	6.4990	0	33.1350	0	26.018	0	129.560	0	-1e10	8	-1e10	8	-1E+10	1	-1E+10	1	-1E+10	1	-1E+10	1	-1E+10	1	-1E+10	1
4902554	68	C	12/23/2022	15:29	-133.138	48.219	0	132.10	0	6.4940	0	33.1420	0	26.024	0	130.947	0	-1e10	8	-1e10	8	-1E+10	1	-1E+10	1	-1E+10	1	-1E+10	1	-1E+10	1	-1E+10	1
4902554	68	C	12/23/2022	15:29	-133.138	48.219	0	133.20	0	6.4830	0	33.1610	0	26.040	0	132.037	0	-1e10	8	-1e10	8	-1E+10	1	-1E+10	1	-1E+10	1	-1E+10	1	-1E+10	1	-1E+10	1
4902554	68	C	12/23/2022	15:29	-133.138	48.219	0	134.10	0	6.4750	0	33.1790	0	26.055	0	132.929	0	-1e10	8	-1e10	8	-1E+10	1	-1E+10	1	-1E+10	1	-1E+10	1	-1E+10	1	-1E+10	1
4902554	68	C	12/23/2022	15:29	-133.138	48.219	0	134.90	0	6.4690	0	33.1870	0	26.063	0	133.722	0	-1e10	8	-1e10	8	-1E+10	1	-1E+10	1	-1E+10	1	-1E+10	1	-1E+10	1	-1E+10	1
4902554	68	C	12/23/2022	15:29	-133.138	48.219	0	136.20	0	6.4540	0	33.2140	0	26.086	0	135.010	0	-1e10	8	-1e10	8	-1E+10	1	-1E+10	1	-1E+10	1	-1E+10	1	-1E+10	1	-1E+10	1
4902554	68	C	12/23/2022	15:29	-133.138	48.219	0	137.10	0	6.4460	0	33.2330	0	26.102	0	135.902	0	-1e10	8	-1e10	8	-1E+10	1	-1E+10	1	-1E+10	1	-1E+10	1	-1E+10	1	-1E+10	1
4902554	68	C	12/23/2022	15:29	-133.138	48.219	0	137.90	0	6.4350	0	33.2560	0	26.121	0	136.694	0	-1e10	8	-1e10	8	-1E+10	1	-1E+10	1	-1E+10	1	-1E+10	1	-1E+10	1	-1E+10	1
4902554	68	C	12/23/2022	15:29	-133.138	48.219	0	139.30	0	6.3940	0	33.3050	0	26.165	0	138.082	0	-1e10	8	-1e10	8	-1E+10	1	-1E+10	1	-1E+10	1	-1E+10	1	-1E+10	1	-1E+10	1
4902554	68	C	12/23/2022	15:29	-133.138	48.219	0	140.10	0	6.3910	0	33.3060	0	26.167	0	138.874	0	-1e10	8	-1e10	8	-1E+10	1	-1E+10	1	-1E+10	1	-1E+10	1	-1E+10	1	-1E+10	1
4902554	68	C	12/23/2022	15:29	-133.138	48.219	0	141.00	0	6.3680	0	33.3560	0	26.209	0	139.766	0	-1e10	8	-1e10	8	-1E+10	1	-1E+10	1	-1E+10	1	-1E+10	1	-1E+10	1	-1E+10	1
4902554	68	C	12/23/2022	15:29	-133.138	48.219	0	141.70	0	6.3600	0	33.3640	0	26.216	0	140.460	0	-1e10	8	-1e10	8	-1E+10	1	-1E+10	1	-1E+10	1	-1E+10	1	-1E+10	1	-1E+10	1
4902554	68	C	12/23/2022	15:29	-133.138	48.219	0	142.70	0	6.3510	0	33.3780	0	26.228	0	141.451	0	-1e10	8	-1e10	8	-1E+10	1	-1E+10	1	-1E+10	1	-1E+10	1	-1E+10	1	-1E+10	1
4902554	68	C	12/23/2022	15:29	-133.138	48.219	0	143.70	0	6.3410	0	33.3910	0	26.240	0	142.442	0	-1e10	8	-1e10	8	-1E+10	1	-1E+10	1	-1E+10	1	-1E+10	1	-1E+10	1	-1E+10	1
4902554	68	C	12/23/2022	15:29	-133.138	48.219	0	144.90	0	6.3140	0	33.4390	0	26.281	0	143.631	0	-1e10	8	-1e10	8	-1E+10	1	-1E+10	1	-1E+10	1	-1E+10	1	-1E+10	1	-1E+10	1
4902554	68	C	12/23/2022	15:29	-133.138	48.219	0	146.10	0	6.3090	0	33.4480	0	26.289	0	144.820	0	-1e10	8	-1e10	8	-1E+10	1	-1E+10	1	-1E+10	1	-1E+10	1	-1E+10	1	-1E+10	1
4902554	68	C	12/23/2022	15:29	-133.138	48.219	0	147.00	0	6.3080	0	33.4500	0	26.291	0	145.712	0	-1e10	8	-1e10	8	-1E+10	1	-1E+10	1	-1E+10	1	-1E+10	1	-1E+10	1	-1E+10	1
4902554	68	C	12/23/2022	15:29	-133.138	48.219	0	147.90	0	6.3040	0	33.4540	0	26.295	0	146.603	0	-1e10	8	-1e10	8	-1E+10	1	-1E+10	1	-1E+10	1	-1E+10	1	-1E+10	1	-1E+10	1
4902554	68	C	12/23/2022	15:29	-133.138	48.219	0	148.90	0	6.3020	0	33.4580	0	26.298	0	147.594	0	-1e10	8	-1e10	8	-1E+10	1	-1E+10	1	-1E+10	1	-1E+10	1	-1E+10	1	-1E+10	1
4902554	68	C	12/23/2022	15:29	-133.138	48.219	0	149.80	0	6.2980	0	33.4590	0	26.299	0	148.486	0	-1e10	8	-1e10	8	-1E+10	1	-1E+10	1	-1E+10	1	-1E+10	1	-1E+10	1	-1E+10	1
4902554	68	C	12/23/2022	15:29	-133.138	48.219	0	150.80	0	6.2700	0	33.4900	0	26.327	0	149.477	0	-1e10	8	-1e10	8	-1E+10	1	-1E+10	1	-1E+10	1	-1E+10	1	-1E+10	1	-1E+10	1
4902554	68	C	12/23/2022	15:29	-133.138	48.219	0	151.90	0	6.2370	0	33.5360	0	26.368	0	150.567	0	-1e10	8	-1e10	8	-1E+10	1	-1E+10	1	-1E+10	1	-1E+10	1	-1E+10	1	-1E+10	1
4902554	68	C	12/23/2022	15:29	-133.138	48.219	0	153.00	0	6.2340	0	33.5420	0	26.373	0	151.657	0	-1e10	8	-1e10	8	-1E+10	1	-1E+10	1	-1E+10	1	-1E+10	1	-1E+10	1	-1E+10	1
4902554	68	C	12/23/2022	15:29	-133.138	48.219	0	154.00	0	6.2300	0	33.5460	0	26.377	0	152.648	0	-1e10	8	-1e10	8	-1E+10	1	-1E+10	1	-1E+10	1	-1E+10	1	-1E+10	1	-1E+10	1
4902554	68	C	12/23/2022	15:29	-133.138	48.219	0	155.20	0	6.2230	0	33.5550	0	26.385	0	153.837	0	-1e10	8	-1e10	8	-1E+10	1	-1E+10	1	-1E+10	1	-1E+10	1	-1E+10	1	-1E+10	1
4902554	68	C	12/23/2022	15:29	-133.138	48.219	0	155.90	0	6.2110	0	33.5700	0	26.398	0	154.530	0	-1e10	8	-1e10	8	-1E+10	1	-1E+10	1	-1E+10	1	-1E+10	1	-1E+10	1	-1E+10	1
4902554	68	C	12/23/2022	15:29	-133.138	48.219	0	156.70	0	6.1990	0	33.5870	0	26.413	0	155.323	0	-1e10	8	-1e10	8	-1E+10	1	-1E+10	1	-1E+10	1	-1E+10	1	-1E+10	1	-1E+10	1
4902554	68	C	12/23/2022	15:29	-133.138	48.219	0	157.90	0	6.1790	0	33.6110	0	26.434	0	156.512	0	-1e10	8	-1e10	8	-1E+10	1	-1E+10	1	-1E+10	1	-1E+10	1	-1E+10	1	-1E+10	1
4902554	68	C	12/23/2022	15:29	-133.138	48.219	0	159.10	0	6.1680	0	33.6230	0	26.445	0	157.701	0	-1e10	8	-1e10	8	-1E+10	1	-1E+10	1	-1E+10	1	-1E+10	1	-1E+10	1	-1E+10	1
4902554	68	C	12/23/2022	15:29	-133.138	48.219	0	159.90	0	6.1440	0	33.6400	0	26.462	0	158.494	0	-1e10	8	-1e10	8	-1E+10	1	-1E+10	1	-1E+10	1	-1E+10	1	-1E+10	1	-1E+10	1
4902554	68	C	12/23/2022	15:29	-133.138	48.219	0	160.80	0	6.1390	0	33.6420	0	26.464	0	159.385	0	-1e10	8	-1e10	8	-1E+10	1	-1E+10	1	-1E+10	1	-1E+10	1	-1E+10	1	-1E+10	1
4902554	68	C	12/23/2022	15:29	-133.138	48.219	0	161.60	0	6.1360	0	33.6450	0	26.467	0	160.178	0	-1e10	8	-1e10	8	-1E+10	1	-1E+10	1	-1E+10	1	-1E+10	1	-1E+10	1	-1E+10	1
4902554	68	C	12/23/2022	15:29	-133.138	48.219	0	162.90	0	6.1360	0	33.6440	0	26.466	0	161.466	0	-1e10	8	-1e10	8	-1E+10	1	-1E+10	1	-1E+10	1	-1E+10	1	-1E+10	1	-1E+10	1
4902554	68	C	12/23/2022	15:29	-133.138	48.219	0	164.10	0	6.1340	0	33.6450	0	26.467	0	162.655	0	-1e10	8	-1e10	8	-1E+10	1	-1E+10	1	-1E+10	1	-1E+10	1	-1E+10	1	-1E+10	1
4902554	68	C	12/23/2022	15:29	-133.138	48.219	0	165.00	0	6.1060	0	33.6600	0	26.482	0	163.547	0	-1e10	8	-1e10	8	-1E+10	1	-1E+10	1	-1E+10	1	-1E+10	1	-1E+10	1	-1E+10	1
4902554	68	C	12/23/2022	15:29	-133.138	48.219	0	165.80	0	6.0940	0	33.6650	0	26.488	0	164.339	0	-1e10	8	-1e10	8	-1E+10	1	-1E+10	1	-1E+10	1	-1E+10	1	-1E+10	1	-1E+10	1
4902554	68	C	12/23/2022	15:29	-133.138	48.219	0	166.60	0	6.0840	0	33.6680	0	26.492	0	165.132	0	-1e10	8	-1e10	8	-1E+10	1	-1E+10	1	-1E+10	1	-1E+10	1	-1E+10	1	-1E+10	1
4902554	68	C	12/23/2022	15:29	-133.138	48.219	0	167.90	0	6.0710	0	33.6720	0	26.496	0	166.420	0	-1e10	8	-1e10	8	-1E+10	1	-1E+10	1	-1E+10	1	-1E+10	1	-1E+10	1	-1E+10	1
4902554	68	C	12/23/2022	15:29	-133.138	48.219	0	169.20	0	6.0430	0	33.6840	0	26.509	0	167.708	0	-1e10	8	-1e10	8	-1E+10	1	-1E+10	1	-1E+10	1	-1E+10	1	-1E+10	1	-1E+10	1
4902554	68	C	12/23/2022	15:29	-133.138	48.219	0	170.10	0	6.0380	0	33.6850	0	26.511	0	168.600	0	-1e10	8	-1e10	8	-1E+10	1	-1E+10	1	-1E+10	1	-1E+10	1	-1E+10	1	-1E+10	1
4902554	68	C	12/23/2022	15:29	-133.138	48.219	0	171.00	0	6.0350	0	33.6860	0	26.512	0	169.491	0	-1e10	8	-1e10	8	-1E+10	1	-1E+10	1	-1E+10	1	-1E+10	1	-1E+10	1	-1E+10	1
4902554	68	C	12/23/2022	15:29	-133.138	48.219	0	171.90	0	6.0350	0	33.6860	0	26.512	0	170.383	0	-1e10	8	-1e10	8	-1E+10	1	-1E+10	1	-1E+10	1	-1E+10	1	-1E+10	1	-1E+10	1
4902554	68	C	12/23/2022	15:29	-133.138	48.219	0	172.80	0	6.0360	0	33.6860	0	26.512	0	171.275	0	-1e10	8	-1e10	8	-1E+10	1	-1E+10	1	-1E+10	1	-1E+10	1	-1E+10	1	-1E+10	1
4902554	68	C	12/23/2022	15:29	-133.138	48.219	0	173.70	0	6.0350	0	33.6860	0	26.512	0	172.166	0	-1e10	8	-1e10	8	-1E+10	1	-1E+10	1	-1E+10	1	-1E+10	1	-1E+10	1	-1E+10	1
4902554	68	C	12/23/2022	15:29	-133.138	48.219	0	174.60	0	6.0350	0	33.6860	0	26.512	0	173.058	0	-1e10	8	-1e10	8	-1E+10	1	-1E+10	1	-1E+10	1	-1E+10	1	-1E+10	1	-1E+10	1
4902554	68	C	12/23/2022	15:29	-133.138	48.219	0	175.90	0	6.0330	0	33.6860	0	26.512	0	174.346	0	-1e10	8	-1e10	8	-1E+10	1	-1E+10	1	-1E+10	1	-1E+10	1	-1E+10	1	-1E+10	1
4902554	68	C	12/23/2022	15:29	-133.138	48.219	0	177.20	0	6.0290	0	33.6880	0	26.514	0	175.634	0	-1e10	8	-1e10	8	-1E+10	1	-1E+10	1	-1E+10	1	-1E+10	1	-1E+10	1	-1E+10	1
4902554	68	C	12/23/2022	15:29	-133.138	48.219	0	178.10	0	6.0210	0	33.6900	0	26.517	0	176.526	0	-1e10	8	-1e10	8	-1E+10	1	-1E+10	1	-1E+10	1	-1E+10	1	-1E+10	1	-1E+10	1
4902554	68	C	12/23/2022	15:29	-133.138	48.219	0	179.00	0	6.0110	0	33.6930	0	26.521	0	177.417	0	-1e10	8	-1e10	8	-1E+10	1	-1E+10	1	-1E+10	1	-1E+10	1	-1E+10	1	-1E+10	1
4902554	68	C	12/23/2022	15:29	-133.138	48.219	0	179.90	0	5.9920	0	33.7030	0	26.531	0	178.309	0	-1e10	8	-1e10	8	-1E+10	1	-1E+10	1	-1E+10	1	-1E+10	1	-1E+10	1	-1E+10	1
4902554	68	C	12/23/2022	15:29	-133.138	48.219	0	180.80	0	5.9770	0	33.7010	0	26.531	0	179.201	0	-1e10	8	-1e10	8	-1E+10	1	-1E+10	1	-1E+10	1	-1E+10	1	-1E+10	1	-1E+10	1
4902554	68	C	12/23/2022	15:29	-133.138	48.219	0	181.70	0	5.9740	0	33.7020	0	26.532	0	180.092	0	-1e10	8	-1e10	8	-1E+10	1	-1E+10	1	-1E+10	1	-1E+10	1	-1E+10	1	-1E+10	1
4902554	68	C	12/23/2022	15:29	-133.138	48.219	0	182.60	0	5.9590	0	33.7060	0	26.537	0	180.984	0	-1e10	8	-1e10	8	-1E+10	1	-1E+10	1	-1E+10	1	-1E+10	1	-1E+10	1	-1E+10	1
4902554	68	C	12/23/2022	15:29	-133.138	48.219	0	183.90	0	5.9340	0	33.7100	0	26.544	0	182.272	0	-1e10	8	-1e10	8	-1E+10	1	-1E+10	1	-1E+10	1	-1E+10	1	-1E+10	1	-1E+10	1
4902554	68	C	12/23/2022	15:29	-133.138	48.219	0	185.30	0	5.9060	0	33.7180	0	26.553	0	183.659	0	-1e10	8	-1e10	8	-1E+10	1	-1E+10	1	-1E+10	1	-1E+10	1	-1E+10	1	-1E+10	1
4902554	68	C	12/23/2022	15:29	-133.138	48.219	0	186.20	0	5.8860	0	33.7250	0	26.561	0	184.551	0	-1e10	8	-1e10	8	-1E+10	1	-1E+10	1	-1E+10	1	-1E+10	1	-1E+10	1	-1E+10	1
4902554	68	C	12/23/2022	15:29	-133.138	48.219	0	187.20	0	5.8820	0	33.7200	0	26.558	0	185.541	0	-1e10	8	-1e10	8	-1E+10	1	-1E+10	1	-1E+10	1	-1E+10	1	-1E+10	1	-1E+10	1
4902554	68	C	12/23/2022	15:29	-133.138	48.219	0	188.10	0	5.8780	0	33.7210	0	26.559	0	186.433	0	-1e10	8	-1e10	8	-1E+10	1	-1E+10	1	-1E+10	1	-1E+10	1	-1E+10	1	-1E+10	1
4902554	68	C	12/23/2022	15:29	-133.138	48.219	0	189.00	0	5.8760	0	33.7200	0	26.559	0	187.324	0	-1e10	8	-1e10	8	-1E+10	1	-1E+10	1	-1E+10	1	-1E+10	1	-1E+10	1	-1E+10	1
4902554	68	C	12/23/2022	15:29	-133.138	48.219	0	190.00	0	5.8720	0	33.7190	0	26.558	0	188.315	0	-1e10	8	-1e10	8	-1E+10	1	-1E+10	1	-1E+10	1	-1E+10	1	-1E+10	1	-1E+10	1
4902554	68	C	12/23/2022	15:29	-133.138	48.219	0	190.90	0	5.8700	0	33.7210	0	26.560	0	189.207	0	-1e10	8	-1e10	8	-1E+10	1	-1E+10	1	-1E+10	1	-1E+10	1	-1E+10	1	-1E+10	1
4902554	68	C	12/23/2022	15:29	-133.138	48.219	0	191.80	0	5.8670	0	33.7210	0	26.561	0	190.098	0	-1e10	8	-1e10	8	-1E+10	1	-1E+10	1	-1E+10	1	-1E+10	1	-1E+10	1	-1E+10	1
4902554	68	C	12/23/2022	15:29	-133.138	48.219	0	192.70	0	5.8580	0	33.7210	0	26.562	0	190.990	0	-1e10	8	-1e10	8	-1E+10	1	-1E+10	1	-1E+10	1	-1E+10	1	-1E+10	1	-1E+10	1
4902554	68	C	12/23/2022	15:29	-133.138	48.219	0	193.70	0	5.8530	0	33.7240	0	26.565	0	191.981	0	-1e10	8	-1e10	8	-1E+10	1	-1E+10	1	-1E+10	1	-1E+10	1	-1E+10	1	-1E+10	1
4902554	68	C	12/23/2022	15:29	-133.138	48.219	0	194.60	0	5.8350	0	33.7270	0	26.569	0	192.872	0	-1e10	8	-1e10	8	-1E+10	1	-1E+10	1	-1E+10	1	-1E+10	1	-1E+10	1	-1E+10	1
4902554	68	C	12/23/2022	15:29	-133.138	48.219	0	195.50	0	5.8300	0	33.7260	0	26.569	0	193.764	0	-1e10	8	-1e10	8	-1E+10	1	-1E+10	1	-1E+10	1	-1E+10	1	-1E+10	1	-1E+10	1
4902554	68	C	12/23/2022	15:29	-133.138	48.219	0	196.90	0	5.7970	0	33.7300	0	26.576	0	195.151	0	-1e10	8	-1e10	8	-1E+10	1	-1E+10	1	-1E+10	1	-1E+10	1	-1E+10	1	-1E+10	1
4902554	68	C	12/23/2022	15:29	-133.138	48.219	0	198.40	0	5.7790	0	33.7300	0	26.579	0	196.637	0	-1e10	8	-1e10	8	-1E+10	1	-1E+10	1	-1E+10	1	-1E+10	1	-1E+10	1	-1E+10	1
4902554	68	C	12/23/2022	15:29	-133.138	48.219	0	199.30	0	5.7630	0	33.7340	0	26.584	0	197.528	0	-1e10	8	-1e10	8	-1E+10	1	-1E+10	1	-1E+10	1	-1E+10	1	-1E+10	1	-1E+10	1
4902554	68	C	12/23/2022	15:29	-133.138	48.219	0	200.30	0	5.7220	0	33.7370	0	26.591	0	198.519	0	-1e10	8	-1e10	8	-1E+10	1	-1E+10	1	-1E+10	1	-1E+10	1	-1E+10	1	-1E+10	1
4902554	68	C	12/23/2022	15:29	-133.138	48.219	0	201.20	0	5.7130	0	33.7390	0	26.594	0	199.410	0	-1e10	8	-1e10	8	-1E+10	1	-1E+10	1	-1E+10	1	-1E+10	1	-1E+10	1	-1E+10	1
4902554	68	C	12/23/2022	15:29	-133.138	48.219	0	202.20	0	5.7090	0	33.7370	0	26.593	0	200.401	0	-1e10	8	-1e10	8	-1E+10	1	-1E+10	1	-1E+10	1	-1E+10	1	-1E+10	1	-1E+10	1
4902554	68	C	12/23/2022	15:29	-133.138	48.219	0	203.10	0	5.7080	0	33.7370	0	26.593	0	201.293	0	-1e10	8	-1e10	8	-1E+10	1	-1E+10	1	-1E+10	1	-1E+10	1	-1E+10	1	-1E+10	1
4902554	68	C	12/23/2022	15:29	-133.138	48.219	0	204.10	0	5.7090	0	33.7370	0	26.593	0	202.283	0	-1e10	8	-1e10	8	-1E+10	1	-1E+10	1	-1E+10	1	-1E+10	1	-1E+10	1	-1E+10	1
4902554	68	C	12/23/2022	15:29	-133.138	48.219	0	205.00	0	5.7080	0	33.7360	0	26.592	0	203.175	0	-1e10	8	-1e10	8	-1E+10	1	-1E+10	1	-1E+10	1	-1E+10	1	-1E+10	1	-1E+10	1
4902554	68	C	12/23/2022	15:29	-133.138	48.219	0	205.90	0	5.7070	0	33.7370	0	26.593	0	204.066	0	-1e10	8	-1e10	8	-1E+10	1	-1E+10	1	-1E+10	1	-1E+10	1	-1E+10	1	-1E+10	1
4902554	68	C	12/23/2022	15:29	-133.138	48.219	0	206.90	0	5.6980	0	33.7390	0	26.596	0	205.057	0	-1e10	8	-1e10	8	-1E+10	1	-1E+10	1	-1E+10	1	-1E+10	1	-1E+10	1	-1E+10	1
4902554	68	C	12/23/2022	15:29	-133.138	48.219	0	207.80	0	5.6880	0	33.7400	0	26.598	0	205.948	0	-1e10	8	-1e10	8	-1E+10	1	-1E+10	1	-1E+10	1	-1E+10	1	-1E+10	1	-1E+10	1
4902554	68	C	12/23/2022	15:29	-133.138	48.219	0	208.70	0	5.6660	0	33.7430	0	26.603	0	206.840	0	-1e10	8	-1e10	8	-1E+10	1	-1E+10	1	-1E+10	1	-1E+10	1	-1E+10	1	-1E+10	1
4902554	68	C	12/23/2022	15:29	-133.138	48.219	0	209.60	0	5.6400	0	33.7440	0	26.607	0	207.732	0	-1e10	8	-1e10	8	-1E+10	1	-1E+10	1	-1E+10	1	-1E+10	1	-1E+10	1	-1E+10	1
4902554	68	C	12/23/2022	15:29	-133.138	48.219	0	210.90	0	5.5960	0	33.7470	0	26.614	0	209.019	0	-1e10	8	-1e10	8	-1E+10	1	-1E+10	1	-1E+10	1	-1E+10	1	-1E+10	1	-1E+10	1
4902554	68	C	12/23/2022	15:29	-133.138	48.219	0	212.40	0	5.5500	0	33.7490	0	26.621	0	210.505	0	-1e10	8	-1e10	8	-1E+10	1	-1E+10	1	-1E+10	1	-1E+10	1	-1E+10	1	-1E+10	1
4902554	68	C	12/23/2022	15:29	-133.138	48.219	0	213.30	0	5.5250	0	33.7560	0	26.630	0	211.397	0	-1e10	8	-1e10	8	-1E+10	1	-1E+10	1	-1E+10	1	-1E+10	1	-1E+10	1	-1E+10	1
4902554	68	C	12/23/2022	15:29	-133.138	48.219	0	214.20	0	5.4840	0	33.7510	0	26.631	0	212.288	0	-1e10	8	-1e10	8	-1E+10	1	-1E+10	1	-1E+10	1	-1E+10	1	-1E+10	1	-1E+10	1
4902554	68	C	12/23/2022	15:29	-133.138	48.219	0	215.10	0	5.4790	0	33.7500	0	26.631	0	213.180	0	-1e10	8	-1e10	8	-1E+10	1	-1E+10	1	-1E+10	1	-1E+10	1	-1E+10	1	-1E+10	1
4902554	68	C	12/23/2022	15:29	-133.138	48.219	0	216.00	0	5.4740	0	33.7500	0	26.631	0	214.071	0	-1e10	8	-1e10	8	-1E+10	1	-1E+10	1	-1E+10	1	-1E+10	1	-1E+10	1	-1E+10	1
4902554	68	C	12/23/2022	15:29	-133.138	48.219	0	216.90	0	5.4700	0	33.7510	0	26.633	0	214.963	0	-1e10	8	-1e10	8	-1E+10	1	-1E+10	1	-1E+10	1	-1E+10	1	-1E+10	1	-1E+10	1
4902554	68	C	12/23/2022	15:29	-133.138	48.219	0	217.90	0	5.4660	0	33.7500	0	26.632	0	215.953	0	-1e10	8	-1e10	8	-1E+10	1	-1E+10	1	-1E+10	1	-1E+10	1	-1E+10	1	-1E+10	1
4902554	68	C	12/23/2022	15:29	-133.138	48.219	0	218.80	0	5.4620	0	33.7500	0	26.633	0	216.845	0	-1e10	8	-1e10	8	-1E+10	1	-1E+10	1	-1E+10	1	-1E+10	1	-1E+10	1	-1E+10	1
4902554	68	C	12/23/2022	15:29	-133.138	48.219	0	219.70	0	5.4400	0	33.7530	0	26.638	0	217.736	0	-1e10	8	-1e10	8	-1E+10	1	-1E+10	1	-1E+10	1	-1E+10	1	-1E+10	1	-1E+10	1
4902554	68	C	12/23/2022	15:29	-133.138	48.219	0	220.70	0	5.4320	0	33.7520	0	26.638	0	218.727	0	-1e10	8	-1e10	8	-1E+10	1	-1E+10	1	-1E+10	1	-1E+10	1	-1E+10	1	-1E+10	1
4902554	68	C	12/23/2022	15:29	-133.138	48.219	0	221.60	0	5.4200	0	33.7540	0	26.641	0	219.618	0	-1e10	8	-1e10	8	-1E+10	1	-1E+10	1	-1E+10	1	-1E+10	1	-1E+10	1	-1E+10	1
4902554	68	C	12/23/2022	15:29	-133.138	48.219	0	222.90	0	5.3940	0	33.7560	0	26.646	0	220.906	0	-1e10	8	-1e10	8	-1E+10	1	-1E+10	1	-1E+10	1	-1E+10	1	-1E+10	1	-1E+10	1
4902554	68	C	12/23/2022	15:29	-133.138	48.219	0	224.30	0	5.3730	0	33.7560	0	26.648	0	222.293	0	-1e10	8	-1e10	8	-1E+10	1	-1E+10	1	-1E+10	1	-1E+10	1	-1E+10	1	-1E+10	1
4902554	68	C	12/23/2022	15:29	-133.138	48.219	0	225.30	0	5.3430	0	33.7630	0	26.657	0	223.283	0	-1e10	8	-1e10	8	-1E+10	1	-1E+10	1	-1E+10	1	-1E+10	1	-1E+10	1	-1E+10	1
4902554	68	C	12/23/2022	15:29	-133.138	48.219	0	226.20	0	5.3050	0	33.7580	0	26.658	0	224.175	0	-1e10	8	-1e10	8	-1E+10	1	-1E+10	1	-1E+10	1	-1E+10	1	-1E+10	1	-1E+10	1
4902554	68	C	12/23/2022	15:29	-133.138	48.219	0	227.10	0	5.2930	0	33.7570	0	26.658	0	225.066	0	-1e10	8	-1e10	8	-1E+10	1	-1E+10	1	-1E+10	1	-1E+10	1	-1E+10	1	-1E+10	1
4902554	68	C	12/23/2022	15:29	-133.138	48.219	0	228.10	0	5.2830	0	33.7590	0	26.661	0	226.056	0	-1e10	8	-1e10	8	-1E+10	1	-1E+10	1	-1E+10	1	-1E+10	1	-1E+10	1	-1E+10	1
4902554	68	C	12/23/2022	15:29	-133.138	48.219	0	229.00	0	5.2670	0	33.7600	0	26.664	0	226.948	0	-1e10	8	-1e10	8	-1E+10	1	-1E+10	1	-1E+10	1	-1E+10	1	-1E+10	1	-1E+10	1
4902554	68	C	12/23/2022	15:29	-133.138	48.219	0	229.90	0	5.2580	0	33.7590	0	26.664	0	227.839	0	-1e10	8	-1e10	8	-1E+10	1	-1E+10	1	-1E+10	1	-1E+10	1	-1E+10	1	-1E+10	1
4902554	68	C	12/23/2022	15:29	-133.138	48.219	0	230.90	0	5.2510	0	33.7610	0	26.666	0	228.830	0	-1e10	8	-1e10	8	-1E+10	1	-1E+10	1	-1E+10	1	-1E+10	1	-1E+10	1	-1E+10	1
4902554	68	C	12/23/2022	15:29	-133.138	48.219	0	231.80	0	5.2420	0	33.7630	0	26.669	0	229.721	0	-1e10	8	-1e10	8	-1E+10	1	-1E+10	1	-1E+10	1	-1E+10	1	-1E+10	1	-1E+10	1
4902554	68	C	12/23/2022	15:29	-133.138	48.219	0	232.70	0	5.2230	0	33.7630	0	26.671	0	230.613	0	-1e10	8	-1e10	8	-1E+10	1	-1E+10	1	-1E+10	1	-1E+10	1	-1E+10	1	-1E+10	1
4902554	68	C	12/23/2022	15:29	-133.138	48.219	0	233.70	0	5.2150	0	33.7610	0	26.671	0	231.603	0	-1e10	8	-1e10	8	-1E+10	1	-1E+10	1	-1E+10	1	-1E+10	1	-1E+10	1	-1E+10	1
4902554	68	C	12/23/2022	15:29	-133.138	48.219	0	234.60	0	5.2130	0	33.7600	0	26.670	0	232.495	0	-1e10	8	-1e10	8	-1E+10	1	-1E+10	1	-1E+10	1	-1E+10	1	-1E+10	1	-1E+10	1
4902554	68	C	12/23/2022	15:29	-133.138	48.219	0	235.60	0	5.2080	0	33.7630	0	26.673	0	233.485	0	-1e10	8	-1e10	8	-1E+10	1	-1E+10	1	-1E+10	1	-1E+10	1	-1E+10	1	-1E+10	1
4902554	68	C	12/23/2022	15:29	-133.138	48.219	0	236.50	0	5.1870	0	33.7650	0	26.677	0	234.376	0	-1e10	8	-1e10	8	-1E+10	1	-1E+10	1	-1E+10	1	-1E+10	1	-1E+10	1	-1E+10	1
4902554	68	C	12/23/2022	15:29	-133.138	48.219	0	237.90	0	5.1700	0	33.7660	0	26.680	0	235.763	0	-1e10	8	-1e10	8	-1E+10	1	-1E+10	1	-1E+10	1	-1E+10	1	-1E+10	1	-1E+10	1
4902554	68	C	12/23/2022	15:29	-133.138	48.219	0	239.40	0	5.1530	0	33.7660	0	26.682	0	237.249	0	-1e10	8	-1e10	8	-1E+10	1	-1E+10	1	-1E+10	1	-1E+10	1	-1E+10	1	-1E+10	1
4902554	68	C	12/23/2022	15:29	-133.138	48.219	0	240.30	0	5.1470	0	33.7640	0	26.681	0	238.140	0	-1e10	8	-1e10	8	-1E+10	1	-1E+10	1	-1E+10	1	-1E+10	1	-1E+10	1	-1E+10	1
4902554	68	C	12/23/2022	15:29	-133.138	48.219	0	241.30	0	5.1440	0	33.7650	0	26.682	0	239.131	0	-1e10	8	-1e10	8	-1E+10	1	-1E+10	1	-1E+10	1	-1E+10	1	-1E+10	1	-1E+10	1
4902554	68	C	12/23/2022	15:29	-133.138	48.219	0	242.30	0	5.1180	0	33.7740	0	26.692	0	240.121	0	-1e10	8	-1e10	8	-1E+10	1	-1E+10	1	-1E+10	1	-1E+10	1	-1E+10	1	-1E+10	1
4902554	68	C	12/23/2022	15:29	-133.138	48.219	0	243.20	0	5.0900	0	33.7680	0	26.691	0	241.012	0	-1e10	8	-1e10	8	-1E+10	1	-1E+10	1	-1E+10	1	-1E+10	1	-1E+10	1	-1E+10	1
4902554	68	C	12/23/2022	15:29	-133.138	48.219	0	244.20	0	5.0840	0	33.7670	0	26.690	0	242.003	0	-1e10	8	-1e10	8	-1E+10	1	-1E+10	1	-1E+10	1	-1E+10	1	-1E+10	1	-1E+10	1
4902554	68	C	12/23/2022	15:29	-133.138	48.219	0	245.10	0	5.0820	0	33.7680	0	26.691	0	242.894	0	-1e10	8	-1e10	8	-1E+10	1	-1E+10	1	-1E+10	1	-1E+10	1	-1E+10	1	-1E+10	1
4902554	68	C	12/23/2022	15:29	-133.138	48.219	0	246.10	0	5.0760	0	33.7700	0	26.694	0	243.885	0	-1e10	8	-1e10	8	-1E+10	1	-1E+10	1	-1E+10	1	-1E+10	1	-1E+10	1	-1E+10	1
4902554	68	C	12/23/2022	15:29	-133.138	48.219	0	247.10	0	5.0550	0	33.7840	0	26.707	0	244.875	0	-1e10	8	-1e10	8	-1E+10	1	-1E+10	1	-1E+10	1	-1E+10	1	-1E+10	1	-1E+10	1
4902554	68	C	12/23/2022	15:29	-133.138	48.219	0	248.10	0	5.0010	0	33.7750	0	26.706	0	245.865	0	-1e10	8	-1e10	8	-1E+10	1	-1E+10	1	-1E+10	1	-1E+10	1	-1E+10	1	-1E+10	1
4902554	68	C	12/23/2022	15:29	-133.138	48.219	0	249.00	0	4.9900	0	33.7790	0	26.711	0	246.757	0	-1e10	8	-1e10	8	-1E+10	1	-1E+10	1	-1E+10	1	-1E+10	1	-1E+10	1	-1E+10	1
4902554	68	C	12/23/2022	15:29	-133.138	48.219	0	250.00	0	4.9830	0	33.7760	0	26.709	0	247.747	0	-1e10	8	-1e10	8	-1E+10	1	-1E+10	1	-1E+10	1	-1E+10	1	-1E+10	1	-1E+10	1
4902554	68	C	12/23/2022	15:29	-133.138	48.219	0	251.00	0	4.9810	0	33.7750	0	26.709	0	248.738	0	-1e10	8	-1e10	8	-1E+10	1	-1E+10	1	-1E+10	1	-1E+10	1	-1E+10	1	-1E+10	1
4902554	68	C	12/23/2022	15:29	-133.138	48.219	0	252.00	0	4.9760	0	33.7760	0	26.710	0	249.728	0	-1e10	8	-1e10	8	-1E+10	1	-1E+10	1	-1E+10	1	-1E+10	1	-1E+10	1	-1E+10	1
4902554	68	C	12/23/2022	15:29	-133.138	48.219	0	253.00	0	4.9640	0	33.7770	0	26.712	0	250.718	0	-1e10	8	-1e10	8	-1E+10	1	-1E+10	1	-1E+10	1	-1E+10	1	-1E+10	1	-1E+10	1
4902554	68	C	12/23/2022	15:29	-133.138	48.219	0	254.00	0	4.9540	0	33.7770	0	26.713	0	251.709	0	-1e10	8	-1e10	8	-1E+10	1	-1E+10	1	-1E+10	1	-1E+10	1	-1E+10	1	-1E+10	1
4902554	68	C	12/23/2022	15:29	-133.138	48.219	0	255.00	0	4.9410	0	33.7780	0	26.715	0	252.699	0	-1e10	8	-1e10	8	-1E+10	1	-1E+10	1	-1E+10	1	-1E+10	1	-1E+10	1	-1E+10	1
4902554	68	C	12/23/2022	15:29	-133.138	48.219	0	256.00	0	4.9310	0	33.7790	0	26.717	0	253.689	0	-1e10	8	-1e10	8	-1E+10	1	-1E+10	1	-1E+10	1	-1E+10	1	-1E+10	1	-1E+10	1
4902554	68	C	12/23/2022	15:29	-133.138	48.219	0	257.00	0	4.9210	0	33.7780	0	26.718	0	254.680	0	-1e10	8	-1e10	8	-1E+10	1	-1E+10	1	-1E+10	1	-1E+10	1	-1E+10	1	-1E+10	1
4902554	68	C	12/23/2022	15:29	-133.138	48.219	0	258.00	0	4.9120	0	33.7810	0	26.721	0	255.670	0	-1e10	8	-1e10	8	-1E+10	1	-1E+10	1	-1E+10	1	-1E+10	1	-1E+10	1	-1E+10	1
4902554	68	C	12/23/2022	15:29	-133.138	48.219	0	259.00	0	4.8950	0	33.7840	0	26.725	0	256.660	0	-1e10	8	-1e10	8	-1E+10	1	-1E+10	1	-1E+10	1	-1E+10	1	-1E+10	1	-1E+10	1
4902554	68	C	12/23/2022	15:29	-133.138	48.219	0	260.00	0	4.8890	0	33.7820	0	26.725	0	257.651	0	-1e10	8	-1e10	8	-1E+10	1	-1E+10	1	-1E+10	1	-1E+10	1	-1E+10	1	-1E+10	1
4902554	68	C	12/23/2022	15:29	-133.138	48.219	0	261.00	0	4.8710	0	33.7870	0	26.730	0	258.641	0	-1e10	8	-1e10	8	-1E+10	1	-1E+10	1	-1E+10	1	-1E+10	1	-1E+10	1	-1E+10	1
4902554	68	C	12/23/2022	15:29	-133.138	48.219	0	262.00	0	4.8580	0	33.7870	0	26.732	0	259.632	0	-1e10	8	-1e10	8	-1E+10	1	-1E+10	1	-1E+10	1	-1E+10	1	-1E+10	1	-1E+10	1
4902554	68	C	12/23/2022	15:29	-133.138	48.219	0	263.10	0	4.8540	0	33.7840	0	26.730	0	260.721	0	-1e10	8	-1e10	8	-1E+10	1	-1E+10	1	-1E+10	1	-1E+10	1	-1E+10	1	-1E+10	1
4902554	68	C	12/23/2022	15:29	-133.138	48.219	0	264.10	0	4.8520	0	33.7850	0	26.731	0	261.711	0	-1e10	8	-1e10	8	-1E+10	1	-1E+10	1	-1E+10	1	-1E+10	1	-1E+10	1	-1E+10	1
4902554	68	C	12/23/2022	15:29	-133.138	48.219	0	265.10	0	4.8440	0	33.7910	0	26.737	0	262.702	0	-1e10	8	-1e10	8	-1E+10	1	-1E+10	1	-1E+10	1	-1E+10	1	-1E+10	1	-1E+10	1
4902554	68	C	12/23/2022	15:29	-133.138	48.219	0	266.10	0	4.8310	0	33.7900	0	26.737	0	263.692	0	-1e10	8	-1e10	8	-1E+10	1	-1E+10	1	-1E+10	1	-1E+10	1	-1E+10	1	-1E+10	1
4902554	68	C	12/23/2022	15:29	-133.138	48.219	0	267.10	0	4.8280	0	33.7860	0	26.735	0	264.682	0	-1e10	8	-1e10	8	-1E+10	1	-1E+10	1	-1E+10	1	-1E+10	1	-1E+10	1	-1E+10	1
4902554	68	C	12/23/2022	15:29	-133.138	48.219	0	268.10	0	4.8280	0	33.7870	0	26.735	0	265.672	0	-1e10	8	-1e10	8	-1E+10	1	-1E+10	1	-1E+10	1	-1E+10	1	-1E+10	1	-1E+10	1
4902554	68	C	12/23/2022	15:29	-133.138	48.219	0	269.20	0	4.8290	0	33.7890	0	26.737	0	266.762	0	-1e10	8	-1e10	8	-1E+10	1	-1E+10	1	-1E+10	1	-1E+10	1	-1E+10	1	-1E+10	1
4902554	68	C	12/23/2022	15:29	-133.138	48.219	0	270.20	0	4.8270	0	33.7910	0	26.739	0	267.752	0	-1e10	8	-1e10	8	-1E+10	1	-1E+10	1	-1E+10	1	-1E+10	1	-1E+10	1	-1E+10	1
4902554	68	C	12/23/2022	15:29	-133.138	48.219	0	271.20	0	4.8300	0	33.7930	0	26.740	0	268.742	0	-1e10	8	-1e10	8	-1E+10	1	-1E+10	1	-1E+10	1	-1E+10	1	-1E+10	1	-1E+10	1
4902554	68	C	12/23/2022	15:29	-133.138	48.219	0	272.30	0	4.8280	0	33.7960	0	26.743	0	269.832	0	-1e10	8	-1e10	8	-1E+10	1	-1E+10	1	-1E+10	1	-1E+10	1	-1E+10	1	-1E+10	1
4902554	68	C	12/23/2022	15:29	-133.138	48.219	0	273.30	0	4.8210	0	33.8000	0	26.746	0	270.822	0	-1e10	8	-1e10	8	-1E+10	1	-1E+10	1	-1E+10	1	-1E+10	1	-1E+10	1	-1E+10	1
4902554	68	C	12/23/2022	15:29	-133.138	48.219	0	274.40	0	4.7880	0	33.7960	0	26.747	0	271.911	0	-1e10	8	-1e10	8	-1E+10	1	-1E+10	1	-1E+10	1	-1E+10	1	-1E+10	1	-1E+10	1
4902554	68	C	12/23/2022	15:29	-133.138	48.219	0	275.40	0	4.7770	0	33.8000	0	26.751	0	272.902	0	-1e10	8	-1e10	8	-1E+10	1	-1E+10	1	-1E+10	1	-1E+10	1	-1E+10	1	-1E+10	1
4902554	68	C	12/23/2022	15:29	-133.138	48.219	0	276.50	0	4.7560	0	33.7940	0	26.749	0	273.991	0	-1e10	8	-1e10	8	-1E+10	1	-1E+10	1	-1E+10	1	-1E+10	1	-1E+10	1	-1E+10	1
4902554	68	C	12/23/2022	15:29	-133.138	48.219	0	277.50	0	4.7290	0	33.7940	0	26.752	0	274.981	0	-1e10	8	-1e10	8	-1E+10	1	-1E+10	1	-1E+10	1	-1E+10	1	-1E+10	1	-1E+10	1
4902554	68	C	12/23/2022	15:29	-133.138	48.219	0	278.60	0	4.7190	0	33.7960	0	26.755	0	276.070	0	-1e10	8	-1e10	8	-1E+10	1	-1E+10	1	-1E+10	1	-1E+10	1	-1E+10	1	-1E+10	1
4902554	68	C	12/23/2022	15:29	-133.138	48.219	0	279.60	0	4.7170	0	33.7950	0	26.754	0	277.061	0	-1e10	8	-1e10	8	-1E+10	1	-1E+10	1	-1E+10	1	-1E+10	1	-1E+10	1	-1E+10	1
4902554	68	C	12/23/2022	15:29	-133.138	48.219	0	280.60	0	4.7160	0	33.7950	0	26.754	0	278.051	0	-1e10	8	-1e10	8	-1E+10	1	-1E+10	1	-1E+10	1	-1E+10	1	-1E+10	1	-1E+10	1
4902554	68	C	12/23/2022	15:29	-133.138	48.219	0	281.50	0	4.6970	0	33.7950	0	26.756	0	278.942	0	-1e10	8	-1e10	8	-1E+10	1	-1E+10	1	-1E+10	1	-1E+10	1	-1E+10	1	-1E+10	1
4902554	68	C	12/23/2022	15:29	-133.138	48.219	0	282.90	0	4.6910	0	33.7960	0	26.758	0	280.328	0	-1e10	8	-1e10	8	-1E+10	1	-1E+10	1	-1E+10	1	-1E+10	1	-1E+10	1	-1E+10	1
4902554	68	C	12/23/2022	15:29	-133.138	48.219	0	284.00	0	4.6880	0	33.7970	0	26.759	0	281.418	0	-1e10	8	-1e10	8	-1E+10	1	-1E+10	1	-1E+10	1	-1E+10	1	-1E+10	1	-1E+10	1
4902554	68	C	12/23/2022	15:29	-133.138	48.219	0	284.70	0	4.6850	0	33.7980	0	26.760	0	282.111	0	-1e10	8	-1e10	8	-1E+10	1	-1E+10	1	-1E+10	1	-1E+10	1	-1E+10	1	-1E+10	1
4902554	68	C	12/23/2022	15:29	-133.138	48.219	0	285.90	0	4.6760	0	33.8010	0	26.763	0	283.299	0	-1e10	8	-1e10	8	-1E+10	1	-1E+10	1	-1E+10	1	-1E+10	1	-1E+10	1	-1E+10	1
4902554	68	C	12/23/2022	15:29	-133.138	48.219	0	287.00	0	4.6710	0	33.8030	0	26.765	0	284.388	0	-1e10	8	-1e10	8	-1E+10	1	-1E+10	1	-1E+10	1	-1E+10	1	-1E+10	1	-1E+10	1
4902554	68	C	12/23/2022	15:29	-133.138	48.219	0	287.80	0	4.6710	0	33.8030	0	26.765	0	285.181	0	-1e10	8	-1e10	8	-1E+10	1	-1E+10	1	-1E+10	1	-1E+10	1	-1E+10	1	-1E+10	1
4902554	68	C	12/23/2022	15:29	-133.138	48.219	0	288.90	0	4.6620	0	33.8050	0	26.768	0	286.270	0	-1e10	8	-1e10	8	-1E+10	1	-1E+10	1	-1E+10	1	-1E+10	1	-1E+10	1	-1E+10	1
4902554	68	C	12/23/2022	15:29	-133.138	48.219	0	290.20	0	4.6530	0	33.8050	0	26.769	0	287.557	0	-1e10	8	-1e10	8	-1E+10	1	-1E+10	1	-1E+10	1	-1E+10	1	-1E+10	1	-1E+10	1
4902554	68	C	12/23/2022	15:29	-133.138	48.219	0	290.90	0	4.6530	0	33.8050	0	26.769	0	288.250	0	-1e10	8	-1e10	8	-1E+10	1	-1E+10	1	-1E+10	1	-1E+10	1	-1E+10	1	-1E+10	1
4902554	68	C	12/23/2022	15:29	-133.138	48.219	0	291.70	0	4.6510	0	33.8040	0	26.768	0	289.042	0	-1e10	8	-1e10	8	-1E+10	1	-1E+10	1	-1E+10	1	-1E+10	1	-1E+10	1	-1E+10	1
4902554	68	C	12/23/2022	15:29	-133.138	48.219	0	292.90	0	4.6410	0	33.8060	0	26.771	0	290.231	0	-1e10	8	-1e10	8	-1E+10	1	-1E+10	1	-1E+10	1	-1E+10	1	-1E+10	1	-1E+10	1
4902554	68	C	12/23/2022	15:29	-133.138	48.219	0	294.10	0	4.6230	0	33.8120	0	26.778	0	291.419	0	-1e10	8	-1e10	8	-1E+10	1	-1E+10	1	-1E+10	1	-1E+10	1	-1E+10	1	-1E+10	1
4902554	68	C	12/23/2022	15:29	-133.138	48.219	0	295.00	0	4.6180	0	33.8140	0	26.780	0	292.310	0	-1e10	8	-1e10	8	-1E+10	1	-1E+10	1	-1E+10	1	-1E+10	1	-1E+10	1	-1E+10	1
4902554	68	C	12/23/2022	15:29	-133.138	48.219	0	295.80	0	4.6110	0	33.8160	0	26.782	0	293.102	0	-1e10	8	-1e10	8	-1E+10	1	-1E+10	1	-1E+10	1	-1E+10	1	-1E+10	1	-1E+10	1
4902554	68	C	12/23/2022	15:29	-133.138	48.219	0	297.00	0	4.5930	0	33.8200	0	26.788	0	294.290	0	-1e10	8	-1e10	8	-1E+10	1	-1E+10	1	-1E+10	1	-1E+10	1	-1E+10	1	-1E+10	1
4902554	68	C	12/23/2022	15:29	-133.138	48.219	0	298.30	0	4.5800	0	33.8200	0	26.789	0	295.577	0	-1e10	8	-1e10	8	-1E+10	1	-1E+10	1	-1E+10	1	-1E+10	1	-1E+10	1	-1E+10	1
4902554	68	C	12/23/2022	15:29	-133.138	48.219	0	299.10	0	4.5740	0	33.8200	0	26.790	0	296.370	0	-1e10	8	-1e10	8	-1E+10	1	-1E+10	1	-1E+10	1	-1E+10	1	-1E+10	1	-1E+10	1
4902554	68	C	12/23/2022	15:29	-133.138	48.219	0	299.90	0	4.5720	0	33.8200	0	26.790	0	297.162	0	-1e10	8	-1e10	8	-1E+10	1	-1E+10	1	-1E+10	1	-1E+10	1	-1E+10	1	-1E+10	1
4902554	68	C	12/23/2022	15:29	-133.138	48.219	0	300.80	0	4.5660	0	33.8220	0	26.792	0	298.053	0	-1e10	8	-1e10	8	-1E+10	1	-1E+10	1	-1E+10	1	-1E+10	1	-1E+10	1	-1E+10	1
4902554	68	C	12/23/2022	15:29	-133.138	48.219	0	302.00	0	4.5620	0	33.8230	0	26.793	0	299.241	0	-1e10	8	-1e10	8	-1E+10	1	-1E+10	1	-1E+10	1	-1E+10	1	-1E+10	1	-1E+10	1
4902554	68	C	12/23/2022	15:29	-133.138	48.219	0	303.30	0	4.5550	0	33.8250	0	26.796	0	300.528	0	-1e10	8	-1e10	8	-1E+10	1	-1E+10	1	-1E+10	1	-1E+10	1	-1E+10	1	-1E+10	1
4902554	68	C	12/23/2022	15:29	-133.138	48.219	0	304.10	0	4.5650	0	33.8280	0	26.797	0	301.320	0	-1e10	8	-1e10	8	-1E+10	1	-1E+10	1	-1E+10	1	-1E+10	1	-1E+10	1	-1E+10	1
4902554	68	C	12/23/2022	15:29	-133.138	48.219	0	305.00	0	4.5630	0	33.8340	0	26.802	0	302.211	0	-1e10	8	-1e10	8	-1E+10	1	-1E+10	1	-1E+10	1	-1E+10	1	-1E+10	1	-1E+10	1
4902554	68	C	12/23/2022	15:29	-133.138	48.219	0	305.80	0	4.5460	0	33.8330	0	26.803	0	303.004	0	-1e10	8	-1e10	8	-1E+10	1	-1E+10	1	-1E+10	1	-1E+10	1	-1E+10	1	-1E+10	1
4902554	68	C	12/23/2022	15:29	-133.138	48.219	0	306.60	0	4.5450	0	33.8350	0	26.805	0	303.796	0	-1e10	8	-1e10	8	-1E+10	1	-1E+10	1	-1E+10	1	-1E+10	1	-1E+10	1	-1E+10	1
4902554	68	C	12/23/2022	15:29	-133.138	48.219	0	307.90	0	4.5390	0	33.8360	0	26.806	0	305.083	0	-1e10	8	-1e10	8	-1E+10	1	-1E+10	1	-1E+10	1	-1E+10	1	-1E+10	1	-1E+10	1
4902554	68	C	12/23/2022	15:29	-133.138	48.219	0	309.20	0	4.5390	0	33.8370	0	26.807	0	306.370	0	-1e10	8	-1e10	8	-1E+10	1	-1E+10	1	-1E+10	1	-1E+10	1	-1E+10	1	-1E+10	1
4902554	68	C	12/23/2022	15:29	-133.138	48.219	0	310.10	0	4.5390	0	33.8380	0	26.808	0	307.261	0	-1e10	8	-1e10	8	-1E+10	1	-1E+10	1	-1E+10	1	-1E+10	1	-1E+10	1	-1E+10	1
4902554	68	C	12/23/2022	15:29	-133.138	48.219	0	310.90	0	4.5380	0	33.8390	0	26.809	0	308.053	0	-1e10	8	-1e10	8	-1E+10	1	-1E+10	1	-1E+10	1	-1E+10	1	-1E+10	1	-1E+10	1
4902554	68	C	12/23/2022	15:29	-133.138	48.219	0	311.80	0	4.5380	0	33.8390	0	26.809	0	308.944	0	-1e10	8	-1e10	8	-1E+10	1	-1E+10	1	-1E+10	1	-1E+10	1	-1E+10	1	-1E+10	1
4902554	68	C	12/23/2022	15:29	-133.138	48.219	0	312.60	0	4.5390	0	33.8400	0	26.809	0	309.736	0	-1e10	8	-1e10	8	-1E+10	1	-1E+10	1	-1E+10	1	-1E+10	1	-1E+10	1	-1E+10	1
4902554	68	C	12/23/2022	15:29	-133.138	48.219	0	313.90	0	4.5400	0	33.8410	0	26.810	0	311.023	0	-1e10	8	-1e10	8	-1E+10	1	-1E+10	1	-1E+10	1	-1E+10	1	-1E+10	1	-1E+10	1
4902554	68	C	12/23/2022	15:29	-133.138	48.219	0	315.20	0	4.5400	0	33.8420	0	26.811	0	312.310	0	-1e10	8	-1e10	8	-1E+10	1	-1E+10	1	-1E+10	1	-1E+10	1	-1E+10	1	-1E+10	1
4902554	68	C	12/23/2022	15:29	-133.138	48.219	0	316.10	0	4.5410	0	33.8420	0	26.811	0	313.202	0	-1e10	8	-1e10	8	-1E+10	1	-1E+10	1	-1E+10	1	-1E+10	1	-1E+10	1	-1E+10	1
4902554	68	C	12/23/2022	15:29	-133.138	48.219	0	317.00	0	4.5430	0	33.8450	0	26.813	0	314.093	0	-1e10	8	-1e10	8	-1E+10	1	-1E+10	1	-1E+10	1	-1E+10	1	-1E+10	1	-1E+10	1
4902554	68	C	12/23/2022	15:29	-133.138	48.219	0	317.80	0	4.5420	0	33.8460	0	26.814	0	314.885	0	-1e10	8	-1e10	8	-1E+10	1	-1E+10	1	-1E+10	1	-1E+10	1	-1E+10	1	-1E+10	1
4902554	68	C	12/23/2022	15:29	-133.138	48.219	0	318.70	0	4.5410	0	33.8460	0	26.814	0	315.776	0	-1e10	8	-1e10	8	-1E+10	1	-1E+10	1	-1E+10	1	-1E+10	1	-1E+10	1	-1E+10	1
4902554	68	C	12/23/2022	15:29	-133.138	48.219	0	319.90	0	4.5420	0	33.8450	0	26.813	0	316.964	0	-1e10	8	-1e10	8	-1E+10	1	-1E+10	1	-1E+10	1	-1E+10	1	-1E+10	1	-1E+10	1
4902554	68	C	12/23/2022	15:29	-133.138	48.219	0	321.20	0	4.5420	0	33.8450	0	26.813	0	318.251	0	-1e10	8	-1e10	8	-1E+10	1	-1E+10	1	-1E+10	1	-1E+10	1	-1E+10	1	-1E+10	1
4902554	68	C	12/23/2022	15:29	-133.138	48.219	0	322.10	0	4.5430	0	33.8450	0	26.813	0	319.142	0	-1e10	8	-1e10	8	-1E+10	1	-1E+10	1	-1E+10	1	-1E+10	1	-1E+10	1	-1E+10	1
4902554	68	C	12/23/2022	15:29	-133.138	48.219	0	322.90	0	4.5440	0	33.8460	0	26.814	0	319.934	0	-1e10	8	-1e10	8	-1E+10	1	-1E+10	1	-1E+10	1	-1E+10	1	-1E+10	1	-1E+10	1
4902554	68	C	12/23/2022	15:29	-133.138	48.219	0	323.80	0	4.5440	0	33.8480	0	26.815	0	320.825	0	-1e10	8	-1e10	8	-1E+10	1	-1E+10	1	-1E+10	1	-1E+10	1	-1E+10	1	-1E+10	1
4902554	68	C	12/23/2022	15:29	-133.138	48.219	0	324.60	0	4.5380	0	33.8530	0	26.820	0	321.617	0	-1e10	8	-1e10	8	-1E+10	1	-1E+10	1	-1E+10	1	-1E+10	1	-1E+10	1	-1E+10	1
4902554	68	C	12/23/2022	15:29	-133.138	48.219	0	325.90	0	4.5360	0	33.8560	0	26.823	0	322.904	0	-1e10	8	-1e10	8	-1E+10	1	-1E+10	1	-1E+10	1	-1E+10	1	-1E+10	1	-1E+10	1
4902554	68	C	12/23/2022	15:29	-133.138	48.219	0	327.20	0	4.5390	0	33.8590	0	26.825	0	324.191	0	-1e10	8	-1e10	8	-1E+10	1	-1E+10	1	-1E+10	1	-1E+10	1	-1E+10	1	-1E+10	1
4902554	68	C	12/23/2022	15:29	-133.138	48.219	0	328.10	0	4.5360	0	33.8600	0	26.826	0	325.082	0	-1e10	8	-1e10	8	-1E+10	1	-1E+10	1	-1E+10	1	-1E+10	1	-1E+10	1	-1E+10	1
4902554	68	C	12/23/2022	15:29	-133.138	48.219	0	329.00	0	4.5350	0	33.8600	0	26.826	0	325.973	0	-1e10	8	-1e10	8	-1E+10	1	-1E+10	1	-1E+10	1	-1E+10	1	-1E+10	1	-1E+10	1
4902554	68	C	12/23/2022	15:29	-133.138	48.219	0	329.80	0	4.5350	0	33.8600	0	26.826	0	326.765	0	-1e10	8	-1e10	8	-1E+10	1	-1E+10	1	-1E+10	1	-1E+10	1	-1E+10	1	-1E+10	1
4902554	68	C	12/23/2022	15:29	-133.138	48.219	0	330.70	0	4.5360	0	33.8610	0	26.827	0	327.656	0	-1e10	8	-1e10	8	-1E+10	1	-1E+10	1	-1E+10	1	-1E+10	1	-1E+10	1	-1E+10	1
4902554	68	C	12/23/2022	15:29	-133.138	48.219	0	331.90	0	4.5340	0	33.8620	0	26.828	0	328.844	0	-1e10	8	-1e10	8	-1E+10	1	-1E+10	1	-1E+10	1	-1E+10	1	-1E+10	1	-1E+10	1
4902554	68	C	12/23/2022	15:29	-133.138	48.219	0	333.20	0	4.5340	0	33.8630	0	26.828	0	330.131	0	-1e10	8	-1e10	8	-1E+10	1	-1E+10	1	-1E+10	1	-1E+10	1	-1E+10	1	-1E+10	1
4902554	68	C	12/23/2022	15:29	-133.138	48.219	0	334.10	0	4.5330	0	33.8640	0	26.829	0	331.022	0	-1e10	8	-1e10	8	-1E+10	1	-1E+10	1	-1E+10	1	-1E+10	1	-1E+10	1	-1E+10	1
4902554	68	C	12/23/2022	15:29	-133.138	48.219	0	334.90	0	4.5340	0	33.8640	0	26.829	0	331.814	0	-1e10	8	-1e10	8	-1E+10	1	-1E+10	1	-1E+10	1	-1E+10	1	-1E+10	1	-1E+10	1
4902554	68	C	12/23/2022	15:29	-133.138	48.219	0	335.80	0	4.5340	0	33.8640	0	26.829	0	332.705	0	-1e10	8	-1e10	8	-1E+10	1	-1E+10	1	-1E+10	1	-1E+10	1	-1E+10	1	-1E+10	1
4902554	68	C	12/23/2022	15:29	-133.138	48.219	0	336.70	0	4.5340	0	33.8650	0	26.830	0	333.596	0	-1e10	8	-1e10	8	-1E+10	1	-1E+10	1	-1E+10	1	-1E+10	1	-1E+10	1	-1E+10	1
4902554	68	C	12/23/2022	15:29	-133.138	48.219	0	337.90	0	4.5300	0	33.8740	0	26.838	0	334.784	0	-1e10	8	-1e10	8	-1E+10	1	-1E+10	1	-1E+10	1	-1E+10	1	-1E+10	1	-1E+10	1
4902554	68	C	12/23/2022	15:29	-133.138	48.219	0	339.30	0	4.5180	0	33.8840	0	26.847	0	336.170	0	-1e10	8	-1e10	8	-1E+10	1	-1E+10	1	-1E+10	1	-1E+10	1	-1E+10	1	-1E+10	1
4902554	68	C	12/23/2022	15:29	-133.138	48.219	0	340.10	0	4.5170	0	33.8840	0	26.847	0	336.962	0	-1e10	8	-1e10	8	-1E+10	1	-1E+10	1	-1E+10	1	-1E+10	1	-1E+10	1	-1E+10	1
4902554	68	C	12/23/2022	15:29	-133.138	48.219	0	341.00	0	4.5180	0	33.8850	0	26.848	0	337.853	0	-1e10	8	-1e10	8	-1E+10	1	-1E+10	1	-1E+10	1	-1E+10	1	-1E+10	1	-1E+10	1
4902554	68	C	12/23/2022	15:29	-133.138	48.219	0	341.90	0	4.5190	0	33.8860	0	26.848	0	338.744	0	-1e10	8	-1e10	8	-1E+10	1	-1E+10	1	-1E+10	1	-1E+10	1	-1E+10	1	-1E+10	1
4902554	68	C	12/23/2022	15:29	-133.138	48.219	0	342.80	0	4.5170	0	33.8870	0	26.849	0	339.635	0	-1e10	8	-1e10	8	-1E+10	1	-1E+10	1	-1E+10	1	-1E+10	1	-1E+10	1	-1E+10	1
4902554	68	C	12/23/2022	15:29	-133.138	48.219	0	343.70	0	4.5150	0	33.8880	0	26.850	0	340.526	0	-1e10	8	-1e10	8	-1E+10	1	-1E+10	1	-1E+10	1	-1E+10	1	-1E+10	1	-1E+10	1
4902554	68	C	12/23/2022	15:29	-133.138	48.219	0	344.90	0	4.5150	0	33.8890	0	26.851	0	341.714	0	-1e10	8	-1e10	8	-1E+10	1	-1E+10	1	-1E+10	1	-1E+10	1	-1E+10	1	-1E+10	1
4902554	68	C	12/23/2022	15:29	-133.138	48.219	0	346.30	0	4.5150	0	33.8890	0	26.851	0	343.100	0	-1e10	8	-1e10	8	-1E+10	1	-1E+10	1	-1E+10	1	-1E+10	1	-1E+10	1	-1E+10	1
4902554	68	C	12/23/2022	15:29	-133.138	48.219	0	347.20	0	4.5150	0	33.8890	0	26.851	0	343.991	0	-1e10	8	-1e10	8	-1E+10	1	-1E+10	1	-1E+10	1	-1E+10	1	-1E+10	1	-1E+10	1
4902554	68	C	12/23/2022	15:29	-133.138	48.219	0	348.10	0	4.5120	0	33.8890	0	26.851	0	344.882	0	-1e10	8	-1e10	8	-1E+10	1	-1E+10	1	-1E+10	1	-1E+10	1	-1E+10	1	-1E+10	1
4902554	68	C	12/23/2022	15:29	-133.138	48.219	0	348.90	0	4.5070	0	33.8900	0	26.853	0	345.673	0	-1e10	8	-1e10	8	-1E+10	1	-1E+10	1	-1E+10	1	-1E+10	1	-1E+10	1	-1E+10	1
4902554	68	C	12/23/2022	15:29	-133.138	48.219	0	349.80	0	4.5060	0	33.8910	0	26.854	0	346.564	0	-1e10	8	-1e10	8	-1E+10	1	-1E+10	1	-1E+10	1	-1E+10	1	-1E+10	1	-1E+10	1
4902554	68	C	12/23/2022	15:29	-133.138	48.219	0	352.90	0	4.5010	0	33.8950	0	26.857	0	349.633	0	-1e10	8	-1e10	8	-1E+10	1	-1E+10	1	-1E+10	1	-1E+10	1	-1E+10	1	-1E+10	1
4902554	68	C	12/23/2022	15:29	-133.138	48.219	0	357.90	0	4.4940	0	33.8980	0	26.861	0	354.583	0	-1e10	8	-1e10	8	-1E+10	1	-1E+10	1	-1E+10	1	-1E+10	1	-1E+10	1	-1E+10	1
4902554	68	C	12/23/2022	15:29	-133.138	48.219	0	362.80	0	4.4780	0	33.9010	0	26.865	0	359.433	0	-1e10	8	-1e10	8	-1E+10	1	-1E+10	1	-1E+10	1	-1E+10	1	-1E+10	1	-1E+10	1
4902554	68	C	12/23/2022	15:29	-133.138	48.219	0	367.80	0	4.4720	0	33.9040	0	26.868	0	364.382	0	-1e10	8	-1e10	8	-1E+10	1	-1E+10	1	-1E+10	1	-1E+10	1	-1E+10	1	-1E+10	1
4902554	68	C	12/23/2022	15:29	-133.138	48.219	0	372.80	0	4.4510	0	33.9090	0	26.874	0	369.331	0	-1e10	8	-1e10	8	-1E+10	1	-1E+10	1	-1E+10	1	-1E+10	1	-1E+10	1	-1E+10	1
4902554	68	C	12/23/2022	15:29	-133.138	48.219	0	377.80	0	4.4290	0	33.9120	0	26.879	0	374.280	0	-1e10	8	-1e10	8	-1E+10	1	-1E+10	1	-1E+10	1	-1E+10	1	-1E+10	1	-1E+10	1
4902554	68	C	12/23/2022	15:29	-133.138	48.219	0	382.80	0	4.3930	0	33.9120	0	26.883	0	379.229	0	-1e10	8	-1e10	8	-1E+10	1	-1E+10	1	-1E+10	1	-1E+10	1	-1E+10	1	-1E+10	1
4902554	68	C	12/23/2022	15:29	-133.138	48.219	0	387.80	0	4.3630	0	33.9170	0	26.890	0	384.178	0	-1e10	8	-1e10	8	-1E+10	1	-1E+10	1	-1E+10	1	-1E+10	1	-1E+10	1	-1E+10	1
4902554	68	C	12/23/2022	15:29	-133.138	48.219	0	392.90	0	4.3470	0	33.9220	0	26.896	0	389.225	0	-1e10	8	-1e10	8	-1E+10	1	-1E+10	1	-1E+10	1	-1E+10	1	-1E+10	1	-1E+10	1
4902554	68	C	12/23/2022	15:29	-133.138	48.219	0	398.10	0	4.3190	0	33.9320	0	26.907	0	394.372	0	-1e10	8	-1e10	8	-1E+10	1	-1E+10	1	-1E+10	1	-1E+10	1	-1E+10	1	-1E+10	1
4902554	68	C	12/23/2022	15:29	-133.138	48.219	0	402.80	0	4.3010	0	33.9410	0	26.916	0	399.023	0	-1e10	8	-1e10	8	-1E+10	1	-1E+10	1	-1E+10	1	-1E+10	1	-1E+10	1	-1E+10	1
4902554	68	C	12/23/2022	15:29	-133.138	48.219	0	407.50	0	4.2870	0	33.9480	0	26.923	0	403.674	0	-1e10	8	-1e10	8	-1E+10	1	-1E+10	1	-1E+10	1	-1E+10	1	-1E+10	1	-1E+10	1
4902554	68	C	12/23/2022	15:29	-133.138	48.219	0	412.80	0	4.2650	0	33.9570	0	26.932	0	408.920	0	-1e10	8	-1e10	8	-1E+10	1	-1E+10	1	-1E+10	1	-1E+10	1	-1E+10	1	-1E+10	1
4902554	68	C	12/23/2022	15:29	-133.138	48.219	0	418.20	0	4.2480	0	33.9630	0	26.939	0	414.263	0	-1e10	8	-1e10	8	-1E+10	1	-1E+10	1	-1E+10	1	-1E+10	1	-1E+10	1	-1E+10	1
4902554	68	C	12/23/2022	15:29	-133.138	48.219	0	422.90	0	4.2330	0	33.9700	0	26.946	0	418.914	0	-1e10	8	-1e10	8	-1E+10	1	-1E+10	1	-1E+10	1	-1E+10	1	-1E+10	1	-1E+10	1
4902554	68	C	12/23/2022	15:29	-133.138	48.219	0	427.90	0	4.2210	0	33.9770	0	26.953	0	423.862	0	-1e10	8	-1e10	8	-1E+10	1	-1E+10	1	-1E+10	1	-1E+10	1	-1E+10	1	-1E+10	1
4902554	68	C	12/23/2022	15:29	-133.138	48.219	0	432.80	0	4.2060	0	33.9850	0	26.961	0	428.711	0	-1e10	8	-1e10	8	-1E+10	1	-1E+10	1	-1E+10	1	-1E+10	1	-1E+10	1	-1E+10	1
4902554	68	C	12/23/2022	15:29	-133.138	48.219	0	437.80	0	4.2010	0	33.9890	0	26.965	0	433.658	0	-1e10	8	-1e10	8	-1E+10	1	-1E+10	1	-1E+10	1	-1E+10	1	-1E+10	1	-1E+10	1
4902554	68	C	12/23/2022	15:29	-133.138	48.219	0	442.90	0	4.1970	0	33.9980	0	26.972	0	438.705	0	-1e10	8	-1e10	8	-1E+10	1	-1E+10	1	-1E+10	1	-1E+10	1	-1E+10	1	-1E+10	1
4902554	68	C	12/23/2022	15:29	-133.138	48.219	0	448.00	0	4.1840	0	34.0060	0	26.980	0	443.751	0	-1e10	8	-1e10	8	-1E+10	1	-1E+10	1	-1E+10	1	-1E+10	1	-1E+10	1	-1E+10	1
4902554	68	C	12/23/2022	15:29	-133.138	48.219	0	453.10	0	4.1880	0	34.0170	0	26.988	0	448.797	0	-1e10	8	-1e10	8	-1E+10	1	-1E+10	1	-1E+10	1	-1E+10	1	-1E+10	1	-1E+10	1
4902554	68	C	12/23/2022	15:29	-133.138	48.219	0	458.00	0	4.1770	0	34.0270	0	26.997	0	453.645	0	-1e10	8	-1e10	8	-1E+10	1	-1E+10	1	-1E+10	1	-1E+10	1	-1E+10	1	-1E+10	1
4902554	68	C	12/23/2022	15:29	-133.138	48.219	0	463.00	0	4.1680	0	34.0310	0	27.002	0	458.592	0	-1e10	8	-1e10	8	-1E+10	1	-1E+10	1	-1E+10	1	-1E+10	1	-1E+10	1	-1E+10	1
4902554	68	C	12/23/2022	15:29	-133.138	48.219	0	468.00	0	4.1620	0	34.0350	0	27.005	0	463.539	0	-1e10	8	-1e10	8	-1E+10	1	-1E+10	1	-1E+10	1	-1E+10	1	-1E+10	1	-1E+10	1
4902554	68	C	12/23/2022	15:29	-133.138	48.219	0	472.70	0	4.1500	0	34.0410	0	27.011	0	468.189	0	-1e10	8	-1e10	8	-1E+10	1	-1E+10	1	-1E+10	1	-1E+10	1	-1E+10	1	-1E+10	1
4902554	68	C	12/23/2022	15:29	-133.138	48.219	0	477.90	0	4.1330	0	34.0470	0	27.018	0	473.333	0	-1e10	8	-1e10	8	-1E+10	1	-1E+10	1	-1E+10	1	-1E+10	1	-1E+10	1	-1E+10	1
4902554	68	C	12/23/2022	15:29	-133.138	48.219	0	482.80	0	4.1230	0	34.0520	0	27.023	0	478.181	0	-1e10	8	-1e10	8	-1E+10	1	-1E+10	1	-1E+10	1	-1E+10	1	-1E+10	1	-1E+10	1
4902554	68	C	12/23/2022	15:29	-133.138	48.219	0	487.60	0	4.1200	0	34.0540	0	27.025	0	482.929	0	-1e10	8	-1e10	8	-1E+10	1	-1E+10	1	-1E+10	1	-1E+10	1	-1E+10	1	-1E+10	1
4902554	68	C	12/23/2022	15:29	-133.138	48.219	0	492.90	0	4.1100	0	34.0580	0	27.029	0	488.172	0	-1e10	8	-1e10	8	-1E+10	1	-1E+10	1	-1E+10	1	-1E+10	1	-1E+10	1	-1E+10	1
4902554	68	C	12/23/2022	15:29	-133.138	48.219	0	498.00	0	4.1000	0	34.0620	0	27.033	0	493.217	0	-1e10	8	-1e10	8	-1E+10	1	-1E+10	1	-1E+10	1	-1E+10	1	-1E+10	1	-1E+10	1
4902554	68	C	12/23/2022	15:29	-133.138	48.219	0	502.90	0	4.0900	0	34.0650	0	27.037	0	498.065	0	-1e10	8	-1e10	8	-1E+10	1	-1E+10	1	-1E+10	1	-1E+10	1	-1E+10	1	-1E+10	1
4902554	68	C	12/23/2022	15:29	-133.138	48.219	0	508.00	0	4.0900	0	34.0670	0	27.039	0	503.109	0	-1e10	8	-1e10	8	-1E+10	1	-1E+10	1	-1E+10	1	-1E+10	1	-1E+10	1	-1E+10	1
4902554	68	C	12/23/2022	15:29	-133.138	48.219	0	513.30	0	4.0840	0	34.0690	0	27.041	0	508.352	0	-1e10	8	-1e10	8	-1E+10	1	-1E+10	1	-1E+10	1	-1E+10	1	-1E+10	1	-1E+10	1
4902554	68	C	12/23/2022	15:29	-133.138	48.219	0	518.00	0	4.0730	0	34.0730	0	27.045	0	513.001	0	-1e10	8	-1e10	8	-1E+10	1	-1E+10	1	-1E+10	1	-1E+10	1	-1E+10	1	-1E+10	1
4902554	68	C	12/23/2022	15:29	-133.138	48.219	0	522.70	0	4.0620	0	34.0770	0	27.050	0	517.650	0	-1e10	8	-1e10	8	-1E+10	1	-1E+10	1	-1E+10	1	-1E+10	1	-1E+10	1	-1E+10	1
4902554	68	C	12/23/2022	15:29	-133.138	48.219	0	528.00	0	4.0560	0	34.0800	0	27.053	0	522.892	0	-1e10	8	-1e10	8	-1E+10	1	-1E+10	1	-1E+10	1	-1E+10	1	-1E+10	1	-1E+10	1
4902554	68	C	12/23/2022	15:29	-133.138	48.219	0	532.90	0	4.0520	0	34.0820	0	27.055	0	527.738	0	-1e10	8	-1e10	8	-1E+10	1	-1E+10	1	-1E+10	1	-1E+10	1	-1E+10	1	-1E+10	1
4902554	68	C	12/23/2022	15:29	-133.138	48.219	0	537.90	0	4.0410	0	34.0870	0	27.060	0	532.683	0	-1e10	8	-1e10	8	-1E+10	1	-1E+10	1	-1E+10	1	-1E+10	1	-1E+10	1	-1E+10	1
4902554	68	C	12/23/2022	15:29	-133.138	48.219	0	542.90	0	4.0320	0	34.0920	0	27.065	0	537.628	0	-1e10	8	-1e10	8	-1E+10	1	-1E+10	1	-1E+10	1	-1E+10	1	-1E+10	1	-1E+10	1
4902554	68	C	12/23/2022	15:29	-133.138	48.219	0	547.90	0	4.0290	0	34.0930	0	27.066	0	542.573	0	-1e10	8	-1e10	8	-1E+10	1	-1E+10	1	-1E+10	1	-1E+10	1	-1E+10	1	-1E+10	1
4902554	68	C	12/23/2022	15:29	-133.138	48.219	0	552.90	0	4.0270	0	34.0940	0	27.067	0	547.518	0	-1e10	8	-1e10	8	-1E+10	1	-1E+10	1	-1E+10	1	-1E+10	1	-1E+10	1	-1E+10	1
4902554	68	C	12/23/2022	15:29	-133.138	48.219	0	557.90	0	4.0170	0	34.0990	0	27.072	0	552.463	0	-1e10	8	-1e10	8	-1E+10	1	-1E+10	1	-1E+10	1	-1E+10	1	-1E+10	1	-1E+10	1
4902554	68	C	12/23/2022	15:29	-133.138	48.219	0	562.80	0	4.0030	0	34.1060	0	27.079	0	557.308	0	-1e10	8	-1e10	8	-1E+10	1	-1E+10	1	-1E+10	1	-1E+10	1	-1E+10	1	-1E+10	1
4902554	68	C	12/23/2022	15:29	-133.138	48.219	0	567.90	0	4.0010	0	34.1080	0	27.081	0	562.352	0	-1e10	8	-1e10	8	-1E+10	1	-1E+10	1	-1E+10	1	-1E+10	1	-1E+10	1	-1E+10	1
4902554	68	C	12/23/2022	15:29	-133.138	48.219	0	572.90	0	3.9970	0	34.1110	0	27.084	0	567.296	0	-1e10	8	-1e10	8	-1E+10	1	-1E+10	1	-1E+10	1	-1E+10	1	-1E+10	1	-1E+10	1
4902554	68	C	12/23/2022	15:29	-133.138	48.219	0	577.90	0	3.9880	0	34.1150	0	27.088	0	572.240	0	-1e10	8	-1e10	8	-1E+10	1	-1E+10	1	-1E+10	1	-1E+10	1	-1E+10	1	-1E+10	1
4902554	68	C	12/23/2022	15:29	-133.138	48.219	0	583.00	0	3.9800	0	34.1190	0	27.092	0	577.283	0	-1e10	8	-1e10	8	-1E+10	1	-1E+10	1	-1E+10	1	-1E+10	1	-1E+10	1	-1E+10	1
4902554	68	C	12/23/2022	15:29	-133.138	48.219	0	588.00	0	3.9720	0	34.1250	0	27.097	0	582.227	0	-1e10	8	-1e10	8	-1E+10	1	-1E+10	1	-1E+10	1	-1E+10	1	-1E+10	1	-1E+10	1
4902554	68	C	12/23/2022	15:29	-133.138	48.219	0	592.90	0	3.9660	0	34.1280	0	27.100	0	587.072	0	-1e10	8	-1e10	8	-1E+10	1	-1E+10	1	-1E+10	1	-1E+10	1	-1E+10	1	-1E+10	1
4902554	68	C	12/23/2022	15:29	-133.138	48.219	0	597.80	0	3.9550	0	34.1330	0	27.106	0	591.917	0	-1e10	8	-1e10	8	-1E+10	1	-1E+10	1	-1E+10	1	-1E+10	1	-1E+10	1	-1E+10	1
4902554	68	C	12/23/2022	15:29	-133.138	48.219	0	602.70	0	3.9450	0	34.1370	0	27.110	0	596.762	0	-1e10	8	-1e10	8	-1E+10	1	-1E+10	1	-1E+10	1	-1E+10	1	-1E+10	1	-1E+10	1
4902554	68	C	12/23/2022	15:29	-133.138	48.219	0	607.60	0	3.9390	0	34.1380	0	27.111	0	601.606	0	-1e10	8	-1e10	8	-1E+10	1	-1E+10	1	-1E+10	1	-1E+10	1	-1E+10	1	-1E+10	1
4902554	68	C	12/23/2022	15:29	-133.138	48.219	0	613.10	0	3.9270	0	34.1420	0	27.116	0	607.044	0	-1e10	8	-1e10	8	-1E+10	1	-1E+10	1	-1E+10	1	-1E+10	1	-1E+10	1	-1E+10	1
4902554	68	C	12/23/2022	15:29	-133.138	48.219	0	618.00	0	3.9210	0	34.1440	0	27.118	0	611.889	0	-1e10	8	-1e10	8	-1E+10	1	-1E+10	1	-1E+10	1	-1E+10	1	-1E+10	1	-1E+10	1
4902554	68	C	12/23/2022	15:29	-133.138	48.219	0	622.80	0	3.8910	0	34.1560	0	27.130	0	616.634	0	-1e10	8	-1e10	8	-1E+10	1	-1E+10	1	-1E+10	1	-1E+10	1	-1E+10	1	-1E+10	1
4902554	68	C	12/23/2022	15:29	-133.138	48.219	0	628.10	0	3.8880	0	34.1570	0	27.132	0	621.874	0	-1e10	8	-1e10	8	-1E+10	1	-1E+10	1	-1E+10	1	-1E+10	1	-1E+10	1	-1E+10	1
4902554	68	C	12/23/2022	15:29	-133.138	48.219	0	633.30	0	3.8840	0	34.1590	0	27.134	0	627.014	0	-1e10	8	-1e10	8	-1E+10	1	-1E+10	1	-1E+10	1	-1E+10	1	-1E+10	1	-1E+10	1
4902554	68	C	12/23/2022	15:29	-133.138	48.219	0	638.00	0	3.8800	0	34.1600	0	27.135	0	631.660	0	-1e10	8	-1e10	8	-1E+10	1	-1E+10	1	-1E+10	1	-1E+10	1	-1E+10	1	-1E+10	1
4902554	68	C	12/23/2022	15:29	-133.138	48.219	0	642.60	0	3.8630	0	34.1660	0	27.141	0	636.208	0	-1e10	8	-1e10	8	-1E+10	1	-1E+10	1	-1E+10	1	-1E+10	1	-1E+10	1	-1E+10	1
4902554	68	C	12/23/2022	15:29	-133.138	48.219	0	647.70	0	3.8440	0	34.1710	0	27.147	0	641.249	0	-1e10	8	-1e10	8	-1E+10	1	-1E+10	1	-1E+10	1	-1E+10	1	-1E+10	1	-1E+10	1
4902554	68	C	12/23/2022	15:29	-133.138	48.219	0	652.80	0	3.8160	0	34.1800	0	27.157	0	646.290	0	-1e10	8	-1e10	8	-1E+10	1	-1E+10	1	-1E+10	1	-1E+10	1	-1E+10	1	-1E+10	1
4902554	68	C	12/23/2022	15:29	-133.138	48.219	0	657.90	0	3.8000	0	34.1850	0	27.163	0	651.332	0	-1e10	8	-1e10	8	-1E+10	1	-1E+10	1	-1E+10	1	-1E+10	1	-1E+10	1	-1E+10	1
4902554	68	C	12/23/2022	15:29	-133.138	48.219	0	663.00	0	3.7950	0	34.1860	0	27.164	0	656.373	0	-1e10	8	-1e10	8	-1E+10	1	-1E+10	1	-1E+10	1	-1E+10	1	-1E+10	1	-1E+10	1
4902554	68	C	12/23/2022	15:29	-133.138	48.219	0	667.80	0	3.7890	0	34.1880	0	27.166	0	661.117	0	-1e10	8	-1e10	8	-1E+10	1	-1E+10	1	-1E+10	1	-1E+10	1	-1E+10	1	-1E+10	1
4902554	68	C	12/23/2022	15:29	-133.138	48.219	0	672.90	0	3.7760	0	34.1920	0	27.171	0	666.158	0	-1e10	8	-1e10	8	-1E+10	1	-1E+10	1	-1E+10	1	-1E+10	1	-1E+10	1	-1E+10	1
4902554	68	C	12/23/2022	15:29	-133.138	48.219	0	678.30	0	3.7650	0	34.1950	0	27.174	0	671.495	0	-1e10	8	-1e10	8	-1E+10	1	-1E+10	1	-1E+10	1	-1E+10	1	-1E+10	1	-1E+10	1
4902554	68	C	12/23/2022	15:29	-133.138	48.219	0	683.20	0	3.7530	0	34.1980	0	27.178	0	676.338	0	-1e10	8	-1e10	8	-1E+10	1	-1E+10	1	-1E+10	1	-1E+10	1	-1E+10	1	-1E+10	1
4902554	68	C	12/23/2022	15:29	-133.138	48.219	0	687.90	0	3.7400	0	34.2020	0	27.183	0	680.983	0	-1e10	8	-1e10	8	-1E+10	1	-1E+10	1	-1E+10	1	-1E+10	1	-1E+10	1	-1E+10	1
4902554	68	C	12/23/2022	15:29	-133.138	48.219	0	692.50	0	3.7340	0	34.2040	0	27.185	0	685.529	0	-1e10	8	-1e10	8	-1E+10	1	-1E+10	1	-1E+10	1	-1E+10	1	-1E+10	1	-1E+10	1
4902554	68	C	12/23/2022	15:29	-133.138	48.219	0	697.80	0	3.7310	0	34.2050	0	27.186	0	690.767	0	-1e10	8	-1e10	8	-1E+10	1	-1E+10	1	-1E+10	1	-1E+10	1	-1E+10	1	-1E+10	1
4902554	68	C	12/23/2022	15:29	-133.138	48.219	0	702.80	0	3.7250	0	34.2060	0	27.187	0	695.708	0	-1e10	8	-1e10	8	-1E+10	1	-1E+10	1	-1E+10	1	-1E+10	1	-1E+10	1	-1E+10	1
4902554	68	C	12/23/2022	15:29	-133.138	48.219	0	707.70	0	3.7040	0	34.2120	0	27.194	0	700.551	0	-1e10	8	-1e10	8	-1E+10	1	-1E+10	1	-1E+10	1	-1E+10	1	-1E+10	1	-1E+10	1
4902554	68	C	12/23/2022	15:29	-133.138	48.219	0	712.80	0	3.6930	0	34.2150	0	27.198	0	705.591	0	-1e10	8	-1e10	8	-1E+10	1	-1E+10	1	-1E+10	1	-1E+10	1	-1E+10	1	-1E+10	1
4902554	68	C	12/23/2022	15:29	-133.138	48.219	0	717.90	0	3.6840	0	34.2170	0	27.200	0	710.630	0	-1e10	8	-1e10	8	-1E+10	1	-1E+10	1	-1E+10	1	-1E+10	1	-1E+10	1	-1E+10	1
4902554	68	C	12/23/2022	15:29	-133.138	48.219	0	723.20	0	3.6740	0	34.2190	0	27.203	0	715.868	0	-1e10	8	-1e10	8	-1E+10	1	-1E+10	1	-1E+10	1	-1E+10	1	-1E+10	1	-1E+10	1
4902554	68	C	12/23/2022	15:29	-133.138	48.219	0	728.20	0	3.6600	0	34.2230	0	27.207	0	720.808	0	-1e10	8	-1e10	8	-1E+10	1	-1E+10	1	-1E+10	1	-1E+10	1	-1E+10	1	-1E+10	1
4902554	68	C	12/23/2022	15:29	-133.138	48.219	0	733.20	0	3.6530	0	34.2250	0	27.210	0	725.749	0	-1e10	8	-1e10	8	-1E+10	1	-1E+10	1	-1E+10	1	-1E+10	1	-1E+10	1	-1E+10	1
4902554	68	C	12/23/2022	15:29	-133.138	48.219	0	738.30	0	3.6450	0	34.2270	0	27.212	0	730.788	0	-1e10	8	-1e10	8	-1E+10	1	-1E+10	1	-1E+10	1	-1E+10	1	-1E+10	1	-1E+10	1
4902554	68	C	12/23/2022	15:29	-133.138	48.219	0	742.90	0	3.6340	0	34.2300	0	27.216	0	735.333	0	-1e10	8	-1e10	8	-1E+10	1	-1E+10	1	-1E+10	1	-1E+10	1	-1E+10	1	-1E+10	1
4902554	68	C	12/23/2022	15:29	-133.138	48.219	0	747.60	0	3.6290	0	34.2310	0	27.217	0	739.977	0	-1e10	8	-1e10	8	-1E+10	1	-1E+10	1	-1E+10	1	-1E+10	1	-1E+10	1	-1E+10	1
4902554	68	C	12/23/2022	15:29	-133.138	48.219	0	752.90	0	3.6250	0	34.2320	0	27.218	0	745.214	0	-1e10	8	-1e10	8	-1E+10	1	-1E+10	1	-1E+10	1	-1E+10	1	-1E+10	1	-1E+10	1
4902554	68	C	12/23/2022	15:29	-133.138	48.219	0	757.80	0	3.6190	0	34.2340	0	27.220	0	750.055	0	-1e10	8	-1e10	8	-1E+10	1	-1E+10	1	-1E+10	1	-1E+10	1	-1E+10	1	-1E+10	1
4902554	68	C	12/23/2022	15:29	-133.138	48.219	0	762.80	0	3.6080	0	34.2390	0	27.226	0	754.995	0	-1e10	8	-1e10	8	-1E+10	1	-1E+10	1	-1E+10	1	-1E+10	1	-1E+10	1	-1E+10	1
4902554	68	C	12/23/2022	15:29	-133.138	48.219	0	767.80	0	3.5900	0	34.2440	0	27.231	0	759.934	0	-1e10	8	-1e10	8	-1E+10	1	-1E+10	1	-1E+10	1	-1E+10	1	-1E+10	1	-1E+10	1
4902554	68	C	12/23/2022	15:29	-133.138	48.219	0	772.80	0	3.5750	0	34.2470	0	27.235	0	764.874	0	-1e10	8	-1e10	8	-1E+10	1	-1E+10	1	-1E+10	1	-1E+10	1	-1E+10	1	-1E+10	1
4902554	68	C	12/23/2022	15:29	-133.138	48.219	0	778.00	0	3.5700	0	34.2490	0	27.237	0	770.011	0	-1e10	8	-1e10	8	-1E+10	1	-1E+10	1	-1E+10	1	-1E+10	1	-1E+10	1	-1E+10	1
4902554	68	C	12/23/2022	15:29	-133.138	48.219	0	783.00	0	3.5670	0	34.2500	0	27.238	0	774.950	0	-1e10	8	-1e10	8	-1E+10	1	-1E+10	1	-1E+10	1	-1E+10	1	-1E+10	1	-1E+10	1
4902554	68	C	12/23/2022	15:29	-133.138	48.219	0	788.20	0	3.5530	0	34.2530	0	27.242	0	780.087	0	-1e10	8	-1e10	8	-1E+10	1	-1E+10	1	-1E+10	1	-1E+10	1	-1E+10	1	-1E+10	1
4902554	68	C	12/23/2022	15:29	-133.138	48.219	0	792.70	0	3.5400	0	34.2560	0	27.246	0	784.532	0	-1e10	8	-1e10	8	-1E+10	1	-1E+10	1	-1E+10	1	-1E+10	1	-1E+10	1	-1E+10	1
4902554	68	C	12/23/2022	15:29	-133.138	48.219	0	797.90	0	3.5300	0	34.2580	0	27.248	0	789.669	0	-1e10	8	-1e10	8	-1E+10	1	-1E+10	1	-1E+10	1	-1E+10	1	-1E+10	1	-1E+10	1
4902554	68	C	12/23/2022	15:29	-133.138	48.219	0	803.00	0	3.5270	0	34.2580	0	27.249	0	794.707	0	-1e10	8	-1e10	8	-1E+10	1	-1E+10	1	-1E+10	1	-1E+10	1	-1E+10	1	-1E+10	1
4902554	68	C	12/23/2022	15:29	-133.138	48.219	0	808.10	0	3.5190	0	34.2600	0	27.251	0	799.744	0	-1e10	8	-1e10	8	-1E+10	1	-1E+10	1	-1E+10	1	-1E+10	1	-1E+10	1	-1E+10	1
4902554	68	C	12/23/2022	15:29	-133.138	48.219	0	813.10	0	3.5060	0	34.2630	0	27.255	0	804.683	0	-1e10	8	-1e10	8	-1E+10	1	-1E+10	1	-1E+10	1	-1E+10	1	-1E+10	1	-1E+10	1
4902554	68	C	12/23/2022	15:29	-133.138	48.219	0	818.20	0	3.4970	0	34.2660	0	27.258	0	809.720	0	-1e10	8	-1e10	8	-1E+10	1	-1E+10	1	-1E+10	1	-1E+10	1	-1E+10	1	-1E+10	1
4902554	68	C	12/23/2022	15:29	-133.138	48.219	0	823.10	0	3.4920	0	34.2670	0	27.259	0	814.560	0	-1e10	8	-1e10	8	-1E+10	1	-1E+10	1	-1E+10	1	-1E+10	1	-1E+10	1	-1E+10	1
4902554	68	C	12/23/2022	15:29	-133.138	48.219	0	828.10	0	3.4760	0	34.2720	0	27.265	0	819.498	0	-1e10	8	-1e10	8	-1E+10	1	-1E+10	1	-1E+10	1	-1E+10	1	-1E+10	1	-1E+10	1
4902554	68	C	12/23/2022	15:29	-133.138	48.219	0	833.00	0	3.4600	0	34.2760	0	27.270	0	824.338	0	-1e10	8	-1e10	8	-1E+10	1	-1E+10	1	-1E+10	1	-1E+10	1	-1E+10	1	-1E+10	1
4902554	68	C	12/23/2022	15:29	-133.138	48.219	0	837.80	0	3.4480	0	34.2790	0	27.273	0	829.078	0	-1e10	8	-1e10	8	-1E+10	1	-1E+10	1	-1E+10	1	-1E+10	1	-1E+10	1	-1E+10	1
4902554	68	C	12/23/2022	15:29	-133.138	48.219	0	843.00	0	3.4410	0	34.2810	0	27.276	0	834.214	0	-1e10	8	-1e10	8	-1E+10	1	-1E+10	1	-1E+10	1	-1E+10	1	-1E+10	1	-1E+10	1
4902554	68	C	12/23/2022	15:29	-133.138	48.219	0	848.10	0	3.4230	0	34.2850	0	27.281	0	839.250	0	-1e10	8	-1e10	8	-1E+10	1	-1E+10	1	-1E+10	1	-1E+10	1	-1E+10	1	-1E+10	1
4902554	68	C	12/23/2022	15:29	-133.138	48.219	0	853.20	0	3.4050	0	34.2890	0	27.285	0	844.287	0	-1e10	8	-1e10	8	-1E+10	1	-1E+10	1	-1E+10	1	-1E+10	1	-1E+10	1	-1E+10	1
4902554	68	C	12/23/2022	15:29	-133.138	48.219	0	858.10	0	3.3970	0	34.2910	0	27.288	0	849.126	0	-1e10	8	-1e10	8	-1E+10	1	-1E+10	1	-1E+10	1	-1E+10	1	-1E+10	1	-1E+10	1
4902554	68	C	12/23/2022	15:29	-133.138	48.219	0	863.10	0	3.3840	0	34.2940	0	27.291	0	854.063	0	-1e10	8	-1e10	8	-1E+10	1	-1E+10	1	-1E+10	1	-1E+10	1	-1E+10	1	-1E+10	1
4902554	68	C	12/23/2022	15:29	-133.138	48.219	0	867.90	0	3.3780	0	34.2950	0	27.293	0	858.803	0	-1e10	8	-1e10	8	-1E+10	1	-1E+10	1	-1E+10	1	-1E+10	1	-1E+10	1	-1E+10	1
4902554	68	C	12/23/2022	15:29	-133.138	48.219	0	872.90	0	3.3580	0	34.2980	0	27.297	0	863.740	0	-1e10	8	-1e10	8	-1E+10	1	-1E+10	1	-1E+10	1	-1E+10	1	-1E+10	1	-1E+10	1
4902554	68	C	12/23/2022	15:29	-133.138	48.219	0	878.10	0	3.3470	0	34.3010	0	27.301	0	868.875	0	-1e10	8	-1e10	8	-1E+10	1	-1E+10	1	-1E+10	1	-1E+10	1	-1E+10	1	-1E+10	1
4902554	68	C	12/23/2022	15:29	-133.138	48.219	0	883.00	0	3.3370	0	34.3030	0	27.303	0	873.713	0	-1e10	8	-1e10	8	-1E+10	1	-1E+10	1	-1E+10	1	-1E+10	1	-1E+10	1	-1E+10	1
4902554	68	C	12/23/2022	15:29	-133.138	48.219	0	887.90	0	3.3200	0	34.3080	0	27.309	0	878.552	0	-1e10	8	-1e10	8	-1E+10	1	-1E+10	1	-1E+10	1	-1E+10	1	-1E+10	1	-1E+10	1
4902554	68	C	12/23/2022	15:29	-133.138	48.219	0	892.80	0	3.3090	0	34.3100	0	27.311	0	883.390	0	-1e10	8	-1e10	8	-1E+10	1	-1E+10	1	-1E+10	1	-1E+10	1	-1E+10	1	-1E+10	1
4902554	68	C	12/23/2022	15:29	-133.138	48.219	0	897.90	0	3.2870	0	34.3150	0	27.318	0	888.425	0	-1e10	8	-1e10	8	-1E+10	1	-1E+10	1	-1E+10	1	-1E+10	1	-1E+10	1	-1E+10	1
4902554	68	C	12/23/2022	15:29	-133.138	48.219	0	902.80	0	3.2820	0	34.3170	0	27.320	0	893.263	0	-1e10	8	-1e10	8	-1E+10	1	-1E+10	1	-1E+10	1	-1E+10	1	-1E+10	1	-1E+10	1
4902554	68	C	12/23/2022	15:29	-133.138	48.219	0	907.70	0	3.2790	0	34.3180	0	27.321	0	898.101	0	-1e10	8	-1e10	8	-1E+10	1	-1E+10	1	-1E+10	1	-1E+10	1	-1E+10	1	-1E+10	1
4902554	68	C	12/23/2022	15:29	-133.138	48.219	0	912.70	0	3.2610	0	34.3220	0	27.326	0	903.037	0	-1e10	8	-1e10	8	-1E+10	1	-1E+10	1	-1E+10	1	-1E+10	1	-1E+10	1	-1E+10	1
4902554	68	C	12/23/2022	15:29	-133.138	48.219	0	917.80	0	3.2520	0	34.3240	0	27.328	0	908.072	0	-1e10	8	-1e10	8	-1E+10	1	-1E+10	1	-1E+10	1	-1E+10	1	-1E+10	1	-1E+10	1
4902554	68	C	12/23/2022	15:29	-133.138	48.219	0	923.10	0	3.2420	0	34.3260	0	27.331	0	913.304	0	-1e10	8	-1e10	8	-1E+10	1	-1E+10	1	-1E+10	1	-1E+10	1	-1E+10	1	-1E+10	1
4902554	68	C	12/23/2022	15:29	-133.138	48.219	0	928.00	0	3.2400	0	34.3270	0	27.332	0	918.141	0	-1e10	8	-1e10	8	-1E+10	1	-1E+10	1	-1E+10	1	-1E+10	1	-1E+10	1	-1E+10	1
4902554	68	C	12/23/2022	15:29	-133.138	48.219	0	932.90	0	3.2360	0	34.3270	0	27.332	0	922.979	0	-1e10	8	-1e10	8	-1E+10	1	-1E+10	1	-1E+10	1	-1E+10	1	-1E+10	1	-1E+10	1
4902554	68	C	12/23/2022	15:29	-133.138	48.219	0	937.90	0	3.2290	0	34.3280	0	27.334	0	927.914	0	-1e10	8	-1e10	8	-1E+10	1	-1E+10	1	-1E+10	1	-1E+10	1	-1E+10	1	-1E+10	1
4902554	68	C	12/23/2022	15:29	-133.138	48.219	0	943.00	0	3.2130	0	34.3320	0	27.338	0	932.949	0	-1e10	8	-1e10	8	-1E+10	1	-1E+10	1	-1E+10	1	-1E+10	1	-1E+10	1	-1E+10	1
4902554	68	C	12/23/2022	15:29	-133.138	48.219	0	948.20	0	3.2050	0	34.3340	0	27.341	0	938.082	0	-1e10	8	-1e10	8	-1E+10	1	-1E+10	1	-1E+10	1	-1E+10	1	-1E+10	1	-1E+10	1
4902554	68	C	12/23/2022	15:29	-133.138	48.219	0	952.90	0	3.2020	0	34.3340	0	27.341	0	942.721	0	-1e10	8	-1e10	8	-1E+10	1	-1E+10	1	-1E+10	1	-1E+10	1	-1E+10	1	-1E+10	1
4902554	68	C	12/23/2022	15:29	-133.138	48.219	0	957.60	0	3.1980	0	34.3350	0	27.342	0	947.360	0	-1e10	8	-1e10	8	-1E+10	1	-1E+10	1	-1E+10	1	-1E+10	1	-1E+10	1	-1E+10	1
4902554	68	C	12/23/2022	15:29	-133.138	48.219	0	962.80	0	3.1790	0	34.3390	0	27.347	0	952.493	0	-1e10	8	-1e10	8	-1E+10	1	-1E+10	1	-1E+10	1	-1E+10	1	-1E+10	1	-1E+10	1
4902554	68	C	12/23/2022	15:29	-133.138	48.219	0	968.10	0	3.1610	0	34.3420	0	27.351	0	957.724	0	-1e10	8	-1e10	8	-1E+10	1	-1E+10	1	-1E+10	1	-1E+10	1	-1E+10	1	-1E+10	1
4902554	68	C	12/23/2022	15:29	-133.138	48.219	0	972.80	0	3.1500	0	34.3450	0	27.355	0	962.362	0	-1e10	8	-1e10	8	-1E+10	1	-1E+10	1	-1E+10	1	-1E+10	1	-1E+10	1	-1E+10	1
4902554	68	C	12/23/2022	15:29	-133.138	48.219	0	977.50	0	3.1370	0	34.3480	0	27.358	0	967.001	0	-1e10	8	-1e10	8	-1E+10	1	-1E+10	1	-1E+10	1	-1E+10	1	-1E+10	1	-1E+10	1
4902554	68	C	12/23/2022	15:29	-133.138	48.219	0	982.80	0	3.1250	0	34.3510	0	27.362	0	972.232	0	-1e10	8	-1e10	8	-1E+10	1	-1E+10	1	-1E+10	1	-1E+10	1	-1E+10	1	-1E+10	1
4902554	68	C	12/23/2022	15:29	-133.138	48.219	0	988.10	0	3.1250	0	34.3500	0	27.361	0	977.463	0	-1e10	8	-1e10	8	-1E+10	1	-1E+10	1	-1E+10	1	-1E+10	1	-1E+10	1	-1E+10	1
4902554	68	C	12/23/2022	15:29	-133.138	48.219	0	993.00	0	3.1110	0	34.3540	0	27.366	0	982.298	0	-1e10	8	-1e10	8	-1E+10	1	-1E+10	1	-1E+10	1	-1E+10	1	-1E+10	1	-1E+10	1
4902554	68	C	12/23/2022	15:29	-133.138	48.219	0	997.80	0	3.1010	0	34.3570	0	27.369	0	987.035	0	-1e10	8	-1e10	8	-1E+10	1	-1E+10	1	-1E+10	1	-1E+10	1	-1E+10	1	-1E+10	1
4902554	68	C	12/23/2022	15:29	-133.138	48.219	0	1005.40	0	3.0970	0	34.3580	0	27.370	0	994.535	0	-1e10	8	-1e10	8	-1E+10	1	-1E+10	1	-1E+10	1	-1E+10	1	-1E+10	1	-1E+10	1
4902554	68	C	12/23/2022	15:29	-133.138	48.219	0	1015.50	0	3.0890	0	34.3600	0	27.372	0	1004.502	0	-1e10	8	-1e10	8	-1E+10	1	-1E+10	1	-1E+10	1	-1E+10	1	-1E+10	1	-1E+10	1
4902554	68	C	12/23/2022	15:29	-133.138	48.219	0	1025.70	0	3.0800	0	34.3630	0	27.376	0	1014.567	0	-1e10	8	-1e10	8	-1E+10	1	-1E+10	1	-1E+10	1	-1E+10	1	-1E+10	1	-1E+10	1
4902554	68	C	12/23/2022	15:29	-133.138	48.219	0	1035.60	0	3.0430	0	34.3710	0	27.386	0	1024.335	0	-1e10	8	-1e10	8	-1E+10	1	-1E+10	1	-1E+10	1	-1E+10	1	-1E+10	1	-1E+10	1
4902554	68	C	12/23/2022	15:29	-133.138	48.219	0	1045.20	0	3.0340	0	34.3740	0	27.389	0	1033.807	0	-1e10	8	-1e10	8	-1E+10	1	-1E+10	1	-1E+10	1	-1E+10	1	-1E+10	1	-1E+10	1
4902554	68	C	12/23/2022	15:29	-133.138	48.219	0	1055.10	0	3.0170	0	34.3780	0	27.394	0	1043.575	0	-1e10	8	-1e10	8	-1E+10	1	-1E+10	1	-1E+10	1	-1E+10	1	-1E+10	1	-1E+10	1
4902554	68	C	12/23/2022	15:29	-133.138	48.219	0	1065.40	0	2.9990	0	34.3820	0	27.398	0	1053.736	0	-1e10	8	-1e10	8	-1E+10	1	-1E+10	1	-1E+10	1	-1E+10	1	-1E+10	1	-1E+10	1
4902554	68	C	12/23/2022	15:29	-133.138	48.219	0	1075.70	0	2.9820	0	34.3860	0	27.403	0	1063.897	0	-1e10	8	-1e10	8	-1E+10	1	-1E+10	1	-1E+10	1	-1E+10	1	-1E+10	1	-1E+10	1
4902554	68	C	12/23/2022	15:29	-133.138	48.219	0	1085.80	0	2.9650	0	34.3900	0	27.408	0	1073.861	0	-1e10	8	-1e10	8	-1E+10	1	-1E+10	1	-1E+10	1	-1E+10	1	-1E+10	1	-1E+10	1
4902554	68	C	12/23/2022	15:29	-133.138	48.219	0	1095.40	0	2.9540	0	34.3920	0	27.411	0	1083.331	0	-1e10	8	-1e10	8	-1E+10	1	-1E+10	1	-1E+10	1	-1E+10	1	-1E+10	1	-1E+10	1
4902554	68	C	12/23/2022	15:29	-133.138	48.219	0	1105.30	0	2.9410	0	34.3950	0	27.414	0	1093.096	0	-1e10	8	-1e10	8	-1E+10	1	-1E+10	1	-1E+10	1	-1E+10	1	-1E+10	1	-1E+10	1
4902554	68	C	12/23/2022	15:29	-133.138	48.219	0	1115.20	0	2.9090	0	34.4020	0	27.423	0	1102.860	0	-1e10	8	-1e10	8	-1E+10	1	-1E+10	1	-1E+10	1	-1E+10	1	-1E+10	1	-1E+10	1
4902554	68	C	12/23/2022	15:29	-133.138	48.219	0	1125.10	0	2.9060	0	34.4030	0	27.424	0	1112.625	0	-1e10	8	-1e10	8	-1E+10	1	-1E+10	1	-1E+10	1	-1E+10	1	-1E+10	1	-1E+10	1
4902554	68	C	12/23/2022	15:29	-133.138	48.219	0	1135.40	0	2.8910	0	34.4060	0	27.428	0	1122.783	0	-1e10	8	-1e10	8	-1E+10	1	-1E+10	1	-1E+10	1	-1E+10	1	-1E+10	1	-1E+10	1
4902554	68	C	12/23/2022	15:29	-133.138	48.219	0	1145.80	0	2.8620	0	34.4120	0	27.435	0	1133.039	0	-1e10	8	-1e10	8	-1E+10	1	-1E+10	1	-1E+10	1	-1E+10	1	-1E+10	1	-1E+10	1
4902554	68	C	12/23/2022	15:29	-133.138	48.219	0	1155.40	0	2.8440	0	34.4160	0	27.440	0	1142.506	0	-1e10	8	-1e10	8	-1E+10	1	-1E+10	1	-1E+10	1	-1E+10	1	-1E+10	1	-1E+10	1
4902554	68	C	12/23/2022	15:29	-133.138	48.219	0	1165.10	0	2.8070	0	34.4230	0	27.449	0	1152.071	0	-1e10	8	-1e10	8	-1E+10	1	-1E+10	1	-1E+10	1	-1E+10	1	-1E+10	1	-1E+10	1
4902554	68	C	12/23/2022	15:29	-133.138	48.219	0	1175.40	0	2.7840	0	34.4280	0	27.455	0	1162.228	0	-1e10	8	-1e10	8	-1E+10	1	-1E+10	1	-1E+10	1	-1E+10	1	-1E+10	1	-1E+10	1
4902554	68	C	12/23/2022	15:29	-133.138	48.219	0	1185.60	0	2.7790	0	34.4290	0	27.456	0	1172.285	0	-1e10	8	-1e10	8	-1E+10	1	-1E+10	1	-1E+10	1	-1E+10	1	-1E+10	1	-1E+10	1
4902554	68	C	12/23/2022	15:29	-133.138	48.219	0	1195.80	0	2.7690	0	34.4310	0	27.459	0	1182.342	0	-1e10	8	-1e10	8	-1E+10	1	-1E+10	1	-1E+10	1	-1E+10	1	-1E+10	1	-1E+10	1
4902554	68	C	12/23/2022	15:29	-133.138	48.219	0	1205.20	0	2.7630	0	34.4330	0	27.461	0	1191.609	0	-1e10	8	-1e10	8	-1E+10	1	-1E+10	1	-1E+10	1	-1E+10	1	-1E+10	1	-1E+10	1
4902554	68	C	12/23/2022	15:29	-133.138	48.219	0	1215.10	0	2.7590	0	34.4340	0	27.462	0	1201.370	0	-1e10	8	-1e10	8	-1E+10	1	-1E+10	1	-1E+10	1	-1E+10	1	-1E+10	1	-1E+10	1
4902554	68	C	12/23/2022	15:29	-133.138	48.219	0	1225.10	0	2.7580	0	34.4340	0	27.462	0	1211.228	0	-1e10	8	-1e10	8	-1E+10	1	-1E+10	1	-1E+10	1	-1E+10	1	-1E+10	1	-1E+10	1
4902554	68	C	12/23/2022	15:29	-133.138	48.219	0	1235.40	0	2.7460	0	34.4360	0	27.465	0	1221.381	0	-1e10	8	-1e10	8	-1E+10	1	-1E+10	1	-1E+10	1	-1E+10	1	-1E+10	1	-1E+10	1
4902554	68	C	12/23/2022	15:29	-133.138	48.219	0	1245.70	0	2.7320	0	34.4390	0	27.469	0	1231.534	0	-1e10	8	-1e10	8	-1E+10	1	-1E+10	1	-1E+10	1	-1E+10	1	-1E+10	1	-1E+10	1
4902554	68	C	12/23/2022	15:29	-133.138	48.219	0	1255.30	0	2.7010	0	34.4440	0	27.475	0	1240.997	0	-1e10	8	-1e10	8	-1E+10	1	-1E+10	1	-1E+10	1	-1E+10	1	-1E+10	1	-1E+10	1
4902554	68	C	12/23/2022	15:29	-133.138	48.219	0	1265.40	0	2.6850	0	34.4480	0	27.480	0	1250.952	0	-1e10	8	-1e10	8	-1E+10	1	-1E+10	1	-1E+10	1	-1E+10	1	-1E+10	1	-1E+10	1
4902554	68	C	12/23/2022	15:29	-133.138	48.219	0	1275.60	0	2.6690	0	34.4510	0	27.484	0	1261.005	0	-1e10	8	-1e10	8	-1E+10	1	-1E+10	1	-1E+10	1	-1E+10	1	-1E+10	1	-1E+10	1
4902554	68	C	12/23/2022	15:29	-133.138	48.219	0	1285.10	0	2.6410	0	34.4560	0	27.490	0	1270.367	0	-1e10	8	-1e10	8	-1E+10	1	-1E+10	1	-1E+10	1	-1E+10	1	-1E+10	1	-1E+10	1
4902554	68	C	12/23/2022	15:29	-133.138	48.219	0	1295.40	0	2.6250	0	34.4590	0	27.494	0	1280.518	0	-1e10	8	-1e10	8	-1E+10	1	-1E+10	1	-1E+10	1	-1E+10	1	-1E+10	1	-1E+10	1
4902554	68	C	12/23/2022	15:29	-133.138	48.219	0	1305.40	0	2.6240	0	34.4590	0	27.494	0	1290.373	0	-1e10	8	-1e10	8	-1E+10	1	-1E+10	1	-1E+10	1	-1E+10	1	-1E+10	1	-1E+10	1
4902554	68	C	12/23/2022	15:29	-133.138	48.219	0	1315.30	0	2.6200	0	34.4610	0	27.496	0	1300.128	0	-1e10	8	-1e10	8	-1E+10	1	-1E+10	1	-1E+10	1	-1E+10	1	-1E+10	1	-1E+10	1
4902554	68	C	12/23/2022	15:29	-133.138	48.219	0	1325.40	0	2.6160	0	34.4610	0	27.497	0	1310.080	0	-1e10	8	-1e10	8	-1E+10	1	-1E+10	1	-1E+10	1	-1E+10	1	-1E+10	1	-1E+10	1
4902554	68	C	12/23/2022	15:29	-133.138	48.219	0	1335.60	0	2.6100	0	34.4630	0	27.499	0	1320.130	0	-1e10	8	-1e10	8	-1E+10	1	-1E+10	1	-1E+10	1	-1E+10	1	-1E+10	1	-1E+10	1
4902554	68	C	12/23/2022	15:29	-133.138	48.219	0	1345.70	0	2.6020	0	34.4640	0	27.500	0	1330.081	0	-1e10	8	-1e10	8	-1E+10	1	-1E+10	1	-1E+10	1	-1E+10	1	-1E+10	1	-1E+10	1
4902554	68	C	12/23/2022	15:29	-133.138	48.219	0	1355.50	0	2.5930	0	34.4660	0	27.503	0	1339.737	0	-1e10	8	-1e10	8	-1E+10	1	-1E+10	1	-1E+10	1	-1E+10	1	-1E+10	1	-1E+10	1
4902554	68	C	12/23/2022	15:29	-133.138	48.219	0	1365.40	0	2.5750	0	34.4690	0	27.507	0	1349.490	0	-1e10	8	-1e10	8	-1E+10	1	-1E+10	1	-1E+10	1	-1E+10	1	-1E+10	1	-1E+10	1
4902554	68	C	12/23/2022	15:29	-133.138	48.219	0	1375.30	0	2.5520	0	34.4740	0	27.513	0	1359.243	0	-1e10	8	-1e10	8	-1E+10	1	-1E+10	1	-1E+10	1	-1E+10	1	-1E+10	1	-1E+10	1
4902554	68	C	12/23/2022	15:29	-133.138	48.219	0	1385.50	0	2.5130	0	34.4800	0	27.521	0	1369.290	0	-1e10	8	-1e10	8	-1E+10	1	-1E+10	1	-1E+10	1	-1E+10	1	-1E+10	1	-1E+10	1
4902554	68	C	12/23/2022	15:29	-133.138	48.219	0	1395.40	0	2.5100	0	34.4810	0	27.522	0	1379.042	0	-1e10	8	-1e10	8	-1E+10	1	-1E+10	1	-1E+10	1	-1E+10	1	-1E+10	1	-1E+10	1
4902554	68	C	12/23/2022	15:29	-133.138	48.219	0	1406.00	0	2.4940	0	34.4830	0	27.525	0	1389.483	0	-1e10	8	-1e10	8	-1E+10	1	-1E+10	1	-1E+10	1	-1E+10	1	-1E+10	1	-1E+10	1
4902554	68	C	12/23/2022	15:29	-133.138	48.219	0	1415.30	0	2.4840	0	34.4850	0	27.528	0	1398.643	0	-1e10	8	-1e10	8	-1E+10	1	-1E+10	1	-1E+10	1	-1E+10	1	-1E+10	1	-1E+10	1
4902554	68	C	12/23/2022	15:29	-133.138	48.219	0	1425.20	0	2.4570	0	34.4900	0	27.534	0	1408.393	0	-1e10	8	-1e10	8	-1E+10	1	-1E+10	1	-1E+10	1	-1E+10	1	-1E+10	1	-1E+10	1
4902554	68	C	12/23/2022	15:29	-133.138	48.219	0	1435.50	0	2.4430	0	34.4930	0	27.537	0	1418.537	0	-1e10	8	-1e10	8	-1E+10	1	-1E+10	1	-1E+10	1	-1E+10	1	-1E+10	1	-1E+10	1
4902554	68	C	12/23/2022	15:29	-133.138	48.219	0	1444.10	0	2.4020	0	34.4990	0	27.546	0	1427.007	0	-1e10	8	-1e10	8	-1E+10	1	-1E+10	1	-1E+10	1	-1E+10	1	-1E+10	1	-1E+10	1
4902554	68	C	12/23/2022	15:29	-133.138	48.219	0																										
4902554	69	C	01/03/2023	06:07	-132.996	48.299	0	0.20	0	8.7740	0	32.3010	0	25.040	0	0.198	0	-1e10	8	-1e10	8	-1E+10	1	-1E+10	1	-1E+10	1	-1E+10	1	-1E+10	1	-1E+10	1
4902554	69	C	01/03/2023	06:07	-132.996	48.299	0	0.40	0	8.7754	0	32.2996	0	25.039	0	0.397	0	-1e10	8	-1e10	8	-1E+10	1	-1E+10	1	-1E+10	1	-1E+10	1	-1E+10	1	-1E+10	1
4902554	69	C	01/03/2023	06:07	-132.996	48.299	0	0.90	0	8.7790	0	32.2960	0	25.036	0	0.892	0	-1e10	8	-1e10	8	-1E+10	1	-1E+10	1	-1E+10	1	-1E+10	1	-1E+10	1	-1E+10	1
4902554	69	C	01/03/2023	06:07	-132.996	48.299	0	1.90	0	8.7790	0	32.2960	0	25.036	0	1.884	0	-1e10	8	-1e10	8	-1E+10	1	-1E+10	1	-1E+10	1	-1E+10	1	-1E+10	1	-1E+10	1
4902554	69	C	01/03/2023	06:07	-132.996	48.299	0	2.80	0	8.7800	0	32.2960	0	25.036	0	2.776	0	-1e10	8	-1e10	8	-1E+10	1	-1E+10	1	-1E+10	1	-1E+10	1	-1E+10	1	-1E+10	1
4902554	69	C	01/03/2023	06:07	-132.996	48.299	0	4.00	0	8.7800	0	32.2960	0	25.036	0	3.966	0	-1e10	8	-1e10	8	-1E+10	1	-1E+10	1	-1E+10	1	-1E+10	1	-1E+10	1	-1E+10	1
4902554	69	C	01/03/2023	06:07	-132.996	48.299	0	4.90	0	8.7800	0	32.2970	0	25.036	0	4.859	0	-1e10	8	-1e10	8	-1E+10	1	-1E+10	1	-1E+10	1	-1E+10	1	-1E+10	1	-1E+10	1
4902554	69	C	01/03/2023	06:07	-132.996	48.299	0	5.80	0	8.7800	0	32.2960	0	25.036	0	5.751	0	-1e10	8	-1e10	8	-1E+10	1	-1E+10	1	-1E+10	1	-1E+10	1	-1E+10	1	-1E+10	1
4902554	69	C	01/03/2023	06:07	-132.996	48.299	0	6.90	0	8.7800	0	32.2960	0	25.036	0	6.842	0	-1e10	8	-1e10	8	-1E+10	1	-1E+10	1	-1E+10	1	-1E+10	1	-1E+10	1	-1E+10	1
4902554	69	C	01/03/2023	06:07	-132.996	48.299	0	8.00	0	8.7800	0	32.2960	0	25.036	0	7.932	0	-1e10	8	-1e10	8	-1E+10	1	-1E+10	1	-1E+10	1	-1E+10	1	-1E+10	1	-1E+10	1
4902554	69	C	01/03/2023	06:07	-132.996	48.299	0	9.10	0	8.7810	0	32.2960	0	25.035	0	9.023	0	-1e10	8	-1e10	8	-1E+10	1	-1E+10	1	-1E+10	1	-1E+10	1	-1E+10	1	-1E+10	1
4902554	69	C	01/03/2023	06:07	-132.996	48.299	0	10.10	0	8.7820	0	32.2970	0	25.036	0	10.015	0	-1e10	8	-1e10	8	-1E+10	1	-1E+10	1	-1E+10	1	-1E+10	1	-1E+10	1	-1E+10	1
4902554	69	C	01/03/2023	06:07	-132.996	48.299	0	11.10	0	8.7810	0	32.2970	0	25.036	0	11.006	0	-1e10	8	-1e10	8	-1E+10	1	-1E+10	1	-1E+10	1	-1E+10	1	-1E+10	1	-1E+10	1
4902554	69	C	01/03/2023	06:07	-132.996	48.299	0	12.30	0	8.7810	0	32.2970	0	25.036	0	12.196	0	-1e10	8	-1e10	8	-1E+10	1	-1E+10	1	-1E+10	1	-1E+10	1	-1E+10	1	-1E+10	1
4902554	69	C	01/03/2023	06:07	-132.996	48.299	0	13.20	0	8.7800	0	32.2970	0	25.036	0	13.088	0	-1e10	8	-1e10	8	-1E+10	1	-1E+10	1	-1E+10	1	-1E+10	1	-1E+10	1	-1E+10	1
4902554	69	C	01/03/2023	06:07	-132.996	48.299	0	13.90	0	8.7810	0	32.2970	0	25.036	0	13.783	0	-1e10	8	-1e10	8	-1E+10	1	-1E+10	1	-1E+10	1	-1E+10	1	-1E+10	1	-1E+10	1
4902554	69	C	01/03/2023	06:07	-132.996	48.299	0	15.10	0	8.7830	0	32.2970	0	25.036	0	14.972	0	-1e10	8	-1e10	8	-1E+10	1	-1E+10	1	-1E+10	1	-1E+10	1	-1E+10	1	-1E+10	1
4902554	69	C	01/03/2023	06:07	-132.996	48.299	0	16.10	0	8.7830	0	32.2960	0	25.035	0	15.964	0	-1e10	8	-1e10	8	-1E+10	1	-1E+10	1	-1E+10	1	-1E+10	1	-1E+10	1	-1E+10	1
4902554	69	C	01/03/2023	06:07	-132.996	48.299	0	17.00	0	8.7830	0	32.2970	0	25.036	0	16.856	0	-1e10	8	-1e10	8	-1E+10	1	-1E+10	1	-1E+10	1	-1E+10	1	-1E+10	1	-1E+10	1
4902554	69	C	01/03/2023	06:07	-132.996	48.299	0	18.10	0	8.7830	0	32.2970	0	25.036	0	17.947	0	-1e10	8	-1e10	8	-1E+10	1	-1E+10	1	-1E+10	1	-1E+10	1	-1E+10	1	-1E+10	1
4902554	69	C	01/03/2023	06:07	-132.996	48.299	0	19.10	0	8.7820	0	32.2970	0	25.036	0	18.938	0	-1e10	8	-1e10	8	-1E+10	1	-1E+10	1	-1E+10	1	-1E+10	1	-1E+10	1	-1E+10	1
4902554	69	C	01/03/2023	06:07	-132.996	48.299	0	20.20	0	8.7830	0	32.2970	0	25.036	0	20.029	0	-1e10	8	-1e10	8	-1E+10	1	-1E+10	1	-1E+10	1	-1E+10	1	-1E+10	1	-1E+10	1
4902554	69	C	01/03/2023	06:07	-132.996	48.299	0	21.00	0	8.7830	0	32.2970	0	25.036	0	20.822	0	-1e10	8	-1e10	8	-1E+10	1	-1E+10	1	-1E+10	1	-1E+10	1	-1E+10	1	-1E+10	1
4902554	69	C	01/03/2023	06:07	-132.996	48.299	0	22.10	0	8.7830	0	32.2970	0	25.036	0	21.913	0	-1e10	8	-1e10	8	-1E+10	1	-1E+10	1	-1E+10	1	-1E+10	1	-1E+10	1	-1E+10	1
4902554	69	C	01/03/2023	06:07	-132.996	48.299	0	22.90	0	8.7820	0	32.2960	0	25.036	0	22.706	0	-1e10	8	-1e10	8	-1E+10	1	-1E+10	1	-1E+10	1	-1E+10	1	-1E+10	1	-1E+10	1
4902554	69	C	01/03/2023	06:07	-132.996	48.299	0	24.20	0	8.7860	0	32.2970	0	25.036	0	23.995	0	-1e10	8	-1e10	8	-1E+10	1	-1E+10	1	-1E+10	1	-1E+10	1	-1E+10	1	-1E+10	1
4902554	69	C	01/03/2023	06:07	-132.996	48.299	0	24.90	0	8.7870	0	32.2970	0	25.036	0	24.689	0	-1e10	8	-1e10	8	-1E+10	1	-1E+10	1	-1E+10	1	-1E+10	1	-1E+10	1	-1E+10	1
4902554	69	C	01/03/2023	06:07	-132.996	48.299	0	25.90	0	8.7870	0	32.2960	0	25.035	0	25.680	0	-1e10	8	-1e10	8	-1E+10	1	-1E+10	1	-1E+10	1	-1E+10	1	-1E+10	1	-1E+10	1
4902554	69	C	01/03/2023	06:07	-132.996	48.299	0	26.80	0	8.7860	0	32.2960	0	25.035	0	26.573	0	-1e10	8	-1e10	8	-1E+10	1	-1E+10	1	-1E+10	1	-1E+10	1	-1E+10	1	-1E+10	1
4902554	69	C	01/03/2023	06:07	-132.996	48.299	0	27.90	0	8.7860	0	32.2960	0	25.035	0	27.663	0	-1e10	8	-1e10	8	-1E+10	1	-1E+10	1	-1E+10	1	-1E+10	1	-1E+10	1	-1E+10	1
4902554	69	C	01/03/2023	06:07	-132.996	48.299	0	29.30	0	8.7860	0	32.2970	0	25.036	0	29.051	0	-1e10	8	-1e10	8	-1E+10	1	-1E+10	1	-1E+10	1	-1E+10	1	-1E+10	1	-1E+10	1
4902554	69	C	01/03/2023	06:07	-132.996	48.299	0	30.10	0	8.7850	0	32.2970	0	25.036	0	29.844	0	-1e10	8	-1e10	8	-1E+10	1	-1E+10	1	-1E+10	1	-1E+10	1	-1E+10	1	-1E+10	1
4902554	69	C	01/03/2023	06:07	-132.996	48.299	0	31.10	0	8.7850	0	32.2960	0	25.035	0	30.836	0	-1e10	8	-1e10	8	-1E+10	1	-1E+10	1	-1E+10	1	-1E+10	1	-1E+10	1	-1E+10	1
4902554	69	C	01/03/2023	06:07	-132.996	48.299	0	32.00	0	8.7870	0	32.2960	0	25.035	0	31.728	0	-1e10	8	-1e10	8	-1E+10	1	-1E+10	1	-1E+10	1	-1E+10	1	-1E+10	1	-1E+10	1
4902554	69	C	01/03/2023	06:07	-132.996	48.299	0	33.00	0	8.7860	0	32.2970	0	25.036	0	32.720	0	-1e10	8	-1e10	8	-1E+10	1	-1E+10	1	-1E+10	1	-1E+10	1	-1E+10	1	-1E+10	1
4902554	69	C	01/03/2023	06:07	-132.996	48.299	0	34.30	0	8.7860	0	32.2970	0	25.036	0	34.008	0	-1e10	8	-1e10	8	-1E+10	1	-1E+10	1	-1E+10	1	-1E+10	1	-1E+10	1	-1E+10	1
4902554	69	C	01/03/2023	06:07	-132.996	48.299	0	35.00	0	8.7870	0	32.2960	0	25.035	0	34.702	0	-1e10	8	-1e10	8	-1E+10	1	-1E+10	1	-1E+10	1	-1E+10	1	-1E+10	1	-1E+10	1
4902554	69	C	01/03/2023	06:07	-132.996	48.299	0	36.10	0	8.7860	0	32.2970	0	25.036	0	35.793	0	-1e10	8	-1e10	8	-1E+10	1	-1E+10	1	-1E+10	1	-1E+10	1	-1E+10	1	-1E+10	1
4902554	69	C	01/03/2023	06:07	-132.996	48.299	0	37.10	0	8.7860	0	32.2960	0	25.035	0	36.784	0	-1e10	8	-1e10	8	-1E+10	1	-1E+10	1	-1E+10	1	-1E+10	1	-1E+10	1	-1E+10	1
4902554	69	C	01/03/2023	06:07	-132.996	48.299	0	38.10	0	8.7860	0	32.2970	0	25.036	0	37.776	0	-1e10	8	-1e10	8	-1E+10	1	-1E+10	1	-1E+10	1	-1E+10	1	-1E+10	1	-1E+10	1
4902554	69	C	01/03/2023	06:07	-132.996	48.299	0	39.10	0	8.7860	0	32.2960	0	25.035	0	38.767	0	-1e10	8	-1e10	8	-1E+10	1	-1E+10	1	-1E+10	1	-1E+10	1	-1E+10	1	-1E+10	1
4902554	69	C	01/03/2023	06:07	-132.996	48.299	0	40.10	0	8.7860	0	32.2970	0	25.036	0	39.759	0	-1e10	8	-1e10	8	-1E+10	1	-1E+10	1	-1E+10	1	-1E+10	1	-1E+10	1	-1E+10	1
4902554	69	C	01/03/2023	06:07	-132.996	48.299	0	41.00	0	8.7870	0	32.2970	0	25.036	0	40.651	0	-1e10	8	-1e10	8	-1E+10	1	-1E+10	1	-1E+10	1	-1E+10	1	-1E+10	1	-1E+10	1
4902554	69	C	01/03/2023	06:07	-132.996	48.299	0	41.70	0	8.7880	0	32.2960	0	25.035	0	41.345	0	-1e10	8	-1e10	8	-1E+10	1	-1E+10	1	-1E+10	1	-1E+10	1	-1E+10	1	-1E+10	1
4902554	69	C	01/03/2023	06:07	-132.996	48.299	0	42.70	0	8.7870	0	32.2970	0	25.036	0	42.336	0	-1e10	8	-1e10	8	-1E+10	1	-1E+10	1	-1E+10	1	-1E+10	1	-1E+10	1	-1E+10	1
4902554	69	C	01/03/2023	06:07	-132.996	48.299	0	43.80	0	8.7880	0	32.2970	0	25.036	0	43.427	0	-1e10	8	-1e10	8	-1E+10	1	-1E+10	1	-1E+10	1	-1E+10	1	-1E+10	1	-1E+10	1
4902554	69	C	01/03/2023	06:07	-132.996	48.299	0	45.00	0	8.7890	0	32.2970	0	25.036	0	44.616	0	-1e10	8	-1e10	8	-1E+10	1	-1E+10	1	-1E+10	1	-1E+10	1	-1E+10	1	-1E+10	1
4902554	69	C	01/03/2023	06:07	-132.996	48.299	0	45.70	0	8.7880	0	32.2970	0	25.036	0	45.310	0	-1e10	8	-1e10	8	-1E+10	1	-1E+10	1	-1E+10	1	-1E+10	1	-1E+10	1	-1E+10	1
4902554	69	C	01/03/2023	06:07	-132.996	48.299	0	46.70	0	8.7880	0	32.2960	0	25.035	0	46.302	0	-1e10	8	-1e10	8	-1E+10	1	-1E+10	1	-1E+10	1	-1E+10	1	-1E+10	1	-1E+10	1
4902554	69	C	01/03/2023	06:07	-132.996	48.299	0	48.10	0	8.7900	0	32.2960	0	25.035	0	47.690	0	-1e10	8	-1e10	8	-1E+10	1	-1E+10	1	-1E+10	1	-1E+10	1	-1E+10	1	-1E+10	1
4902554	69	C	01/03/2023	06:07	-132.996	48.299	0	49.10	0	8.7890	0	32.2970	0	25.036	0	48.681	0	-1e10	8	-1e10	8	-1E+10	1	-1E+10	1	-1E+10	1	-1E+10	1	-1E+10	1	-1E+10	1
4902554	69	C	01/03/2023	06:07	-132.996	48.299	0	50.00	0	8.7880	0	32.2970	0	25.036	0	49.573	0	-1e10	8	-1e10	8	-1E+10	1	-1E+10	1	-1E+10	1	-1E+10	1	-1E+10	1	-1E+10	1
4902554	69	C	01/03/2023	06:07	-132.996	48.299	0	50.80	0	8.7880	0	32.2970	0	25.036	0	50.366	0	-1e10	8	-1e10	8	-1E+10	1	-1E+10	1	-1E+10	1	-1E+10	1	-1E+10	1	-1E+10	1
4902554	69	C	01/03/2023	06:07	-132.996	48.299	0	52.00	0	8.7890	0	32.2970	0	25.036	0	51.556	0	-1e10	8	-1e10	8	-1E+10	1	-1E+10	1	-1E+10	1	-1E+10	1	-1E+10	1	-1E+10	1
4902554	69	C	01/03/2023	06:07	-132.996	48.299	0	53.10	0	8.7890	0	32.2970	0	25.036	0	52.646	0	-1e10	8	-1e10	8	-1E+10	1	-1E+10	1	-1E+10	1	-1E+10	1	-1E+10	1	-1E+10	1
4902554	69	C	01/03/2023	06:07	-132.996	48.299	0	54.00	0	8.7880	0	32.2970	0	25.036	0	53.538	0	-1e10	8	-1e10	8	-1E+10	1	-1E+10	1	-1E+10	1	-1E+10	1	-1E+10	1	-1E+10	1
4902554	69	C	01/03/2023	06:07	-132.996	48.299	0	54.80	0	8.7930	0	32.2980	0	25.036	0	54.331	0	-1e10	8	-1e10	8	-1E+10	1	-1E+10	1	-1E+10	1	-1E+10	1	-1E+10	1	-1E+10	1
4902554	69	C	01/03/2023	06:07	-132.996	48.299	0	55.90	0	8.7940	0	32.2980	0	25.036	0	55.422	0	-1e10	8	-1e10	8	-1E+10	1	-1E+10	1	-1E+10	1	-1E+10	1	-1E+10	1	-1E+10	1
4902554	69	C	01/03/2023	06:07	-132.996	48.299	0	57.00	0	8.7950	0	32.2980	0	25.036	0	56.512	0	-1e10	8	-1e10	8	-1E+10	1	-1E+10	1	-1E+10	1	-1E+10	1	-1E+10	1	-1E+10	1
4902554	69	C	01/03/2023	06:07	-132.996	48.299	0	58.10	0	8.7960	0	32.2980	0	25.036	0	57.603	0	-1e10	8	-1e10	8	-1E+10	1	-1E+10	1	-1E+10	1	-1E+10	1	-1E+10	1	-1E+10	1
4902554	69	C	01/03/2023	06:07	-132.996	48.299	0	59.00	0	8.7960	0	32.2980	0	25.036	0	58.495	0	-1e10	8	-1e10	8	-1E+10	1	-1E+10	1	-1E+10	1	-1E+10	1	-1E+10	1	-1E+10	1
4902554	69	C	01/03/2023	06:07	-132.996	48.299	0	59.80	0	8.7950	0	32.2990	0	25.036	0	59.288	0	-1e10	8	-1e10	8	-1E+10	1	-1E+10	1	-1E+10	1	-1E+10	1	-1E+10	1	-1E+10	1
4902554	69	C	01/03/2023	06:07	-132.996	48.299	0	60.90	0	8.7950	0	32.2990	0	25.037	0	60.378	0	-1e10	8	-1e10	8	-1E+10	1	-1E+10	1	-1E+10	1	-1E+10	1	-1E+10	1	-1E+10	1
4902554	69	C	01/03/2023	06:07	-132.996	48.299	0	62.00	0	8.7960	0	32.2990	0	25.036	0	61.469	0	-1e10	8	-1e10	8	-1E+10	1	-1E+10	1	-1E+10	1	-1E+10	1	-1E+10	1	-1E+10	1
4902554	69	C	01/03/2023	06:07	-132.996	48.299	0	63.10	0	8.7950	0	32.2990	0	25.037	0	62.559	0	-1e10	8	-1e10	8	-1E+10	1	-1E+10	1	-1E+10	1	-1E+10	1	-1E+10	1	-1E+10	1
4902554	69	C	01/03/2023	06:07	-132.996	48.299	0	64.00	0	8.7960	0	32.2990	0	25.036	0	63.451	0	-1e10	8	-1e10	8	-1E+10	1	-1E+10	1	-1E+10	1	-1E+10	1	-1E+10	1	-1E+10	1
4902554	69	C	01/03/2023	06:07	-132.996	48.299	0	64.80	0	8.7960	0	32.2990	0	25.036	0	64.244	0	-1e10	8	-1e10	8	-1E+10	1	-1E+10	1	-1E+10	1	-1E+10	1	-1E+10	1	-1E+10	1
4902554	69	C	01/03/2023	06:07	-132.996	48.299	0	65.90	0	8.7970	0	32.2990	0	25.036	0	65.335	0	-1e10	8	-1e10	8	-1E+10	1	-1E+10	1	-1E+10	1	-1E+10	1	-1E+10	1	-1E+10	1
4902554	69	C	01/03/2023	06:07	-132.996	48.299	0	67.00	0	8.7970	0	32.2990	0	25.036	0	66.425	0	-1e10	8	-1e10	8	-1E+10	1	-1E+10	1	-1E+10	1	-1E+10	1	-1E+10	1	-1E+10	1
4902554	69	C	01/03/2023	06:07	-132.996	48.299	0	68.10	0	8.7980	0	32.3000	0	25.037	0	67.516	0	-1e10	8	-1e10	8	-1E+10	1	-1E+10	1	-1E+10	1	-1E+10	1	-1E+10	1	-1E+10	1
4902554	69	C	01/03/2023	06:07	-132.996	48.299	0	69.10	0	8.7990	0	32.3000	0	25.037	0	68.507	0	-1e10	8	-1e10	8	-1E+10	1	-1E+10	1	-1E+10	1	-1E+10	1	-1E+10	1	-1E+10	1
4902554	69	C	01/03/2023	06:07	-132.996	48.299	0	70.00	0	8.7990	0	32.3000	0	25.037	0	69.399	0	-1e10	8	-1e10	8	-1E+10	1	-1E+10	1	-1E+10	1	-1E+10	1	-1E+10	1	-1E+10	1
4902554	69	C	01/03/2023	06:07	-132.996	48.299	0	70.70	0	8.7980	0	32.3010	0	25.038	0	70.093	0	-1e10	8	-1e10	8	-1E+10	1	-1E+10	1	-1E+10	1	-1E+10	1	-1E+10	1	-1E+10	1
4902554	69	C	01/03/2023	06:07	-132.996	48.299	0	71.80	0	8.7980	0	32.3010	0	25.038	0	71.183	0	-1e10	8	-1e10	8	-1E+10	1	-1E+10	1	-1E+10	1	-1E+10	1	-1E+10	1	-1E+10	1
4902554	69	C	01/03/2023	06:07	-132.996	48.299	0	72.80	0	8.7970	0	32.3020	0	25.039	0	72.174	0	-1e10	8	-1e10	8	-1E+10	1	-1E+10	1	-1E+10	1	-1E+10	1	-1E+10	1	-1E+10	1
4902554	69	C	01/03/2023	06:07	-132.996	48.299	0	73.80	0	8.7910	0	32.3030	0	25.040	0	73.166	0	-1e10	8	-1e10	8	-1E+10	1	-1E+10	1	-1E+10	1	-1E+10	1	-1E+10	1	-1E+10	1
4902554	69	C	01/03/2023	06:07	-132.996	48.299	0	74.90	0	8.7820	0	32.3040	0	25.043	0	74.256	0	-1e10	8	-1e10	8	-1E+10	1	-1E+10	1	-1E+10	1	-1E+10	1	-1E+10	1	-1E+10	1
4902554	69	C	01/03/2023	06:07	-132.996	48.299	0	75.90	0	8.7610	0	32.3070	0	25.048	0	75.247	0	-1e10	8	-1e10	8	-1E+10	1	-1E+10	1	-1E+10	1	-1E+10	1	-1E+10	1	-1E+10	1
4902554	69	C	01/03/2023	06:07	-132.996	48.299	0	76.90	0	8.7300	0	32.3100	0	25.055	0	76.238	0	-1e10	8	-1e10	8	-1E+10	1	-1E+10	1	-1E+10	1	-1E+10	1	-1E+10	1	-1E+10	1
4902554	69	C	01/03/2023	06:07	-132.996	48.299	0	78.00	0	8.6740	0	32.3180	0	25.070	0	77.329	0	-1e10	8	-1e10	8	-1E+10	1	-1E+10	1	-1E+10	1	-1E+10	1	-1E+10	1	-1E+10	1
4902554	69	C	01/03/2023	06:07	-132.996	48.299	0	79.00	0	8.5430	0	32.3380	0	25.105	0	78.320	0	-1e10	8	-1e10	8	-1E+10	1	-1E+10	1	-1E+10	1	-1E+10	1	-1E+10	1	-1E+10	1
4902554	69	C	01/03/2023	06:07	-132.996	48.299	0	80.00	0	8.4000	0	32.3530	0	25.138	0	79.311	0	-1e10	8	-1e10	8	-1E+10	1	-1E+10	1	-1E+10	1	-1E+10	1	-1E+10	1	-1E+10	1
4902554	69	C	01/03/2023	06:07	-132.996	48.299	0	80.90	0	8.1980	0	32.3800	0	25.189	0	80.203	0	-1e10	8	-1e10	8	-1E+10	1	-1E+10	1	-1E+10	1	-1E+10	1	-1E+10	1	-1E+10	1
4902554	69	C	01/03/2023	06:07	-132.996	48.299	0	82.10	0	8.0670	0	32.3970	0	25.222	0	81.393	0	-1e10	8	-1e10	8	-1E+10	1	-1E+10	1	-1E+10	1	-1E+10	1	-1E+10	1	-1E+10	1
4902554	69	C	01/03/2023	06:07	-132.996	48.299	0	83.10	0	7.9660	0	32.4090	0	25.246	0	82.384	0	-1e10	8	-1e10	8	-1E+10	1	-1E+10	1	-1E+10	1	-1E+10	1	-1E+10	1	-1E+10	1
4902554	69	C	01/03/2023	06:07	-132.996	48.299	0	83.90	0	7.9030	0	32.4170	0	25.261	0	83.177	0	-1e10	8	-1e10	8	-1E+10	1	-1E+10	1	-1E+10	1	-1E+10	1	-1E+10	1	-1E+10	1
4902554	69	C	01/03/2023	06:07	-132.996	48.299	0	85.00	0	7.8620	0	32.4210	0	25.270	0	84.267	0	-1e10	8	-1e10	8	-1E+10	1	-1E+10	1	-1E+10	1	-1E+10	1	-1E+10	1	-1E+10	1
4902554	69	C	01/03/2023	06:07	-132.996	48.299	0	85.90	0	7.8020	0	32.4260	0	25.283	0	85.159	0	-1e10	8	-1e10	8	-1E+10	1	-1E+10	1	-1E+10	1	-1E+10	1	-1E+10	1	-1E+10	1
4902554	69	C	01/03/2023	06:07	-132.996	48.299	0	87.00	0	7.6810	0	32.4420	0	25.312	0	86.249	0	-1e10	8	-1e10	8	-1E+10	1	-1E+10	1	-1E+10	1	-1E+10	1	-1E+10	1	-1E+10	1
4902554	69	C	01/03/2023	06:07	-132.996	48.299	0	88.30	0	7.3470	0	32.4760	0	25.385	0	87.538	0	-1e10	8	-1e10	8	-1E+10	1	-1E+10	1	-1E+10	1	-1E+10	1	-1E+10	1	-1E+10	1
4902554	69	C	01/03/2023	06:07	-132.996	48.299	0	89.10	0	7.1980	0	32.4970	0	25.422	0	88.331	0	-1e10	8	-1e10	8	-1E+10	1	-1E+10	1	-1E+10	1	-1E+10	1	-1E+10	1	-1E+10	1
4902554	69	C	01/03/2023	06:07	-132.996	48.299	0	89.90	0	7.0820	0	32.5110	0	25.449	0	89.124	0	-1e10	8	-1e10	8	-1E+10	1	-1E+10	1	-1E+10	1	-1E+10	1	-1E+10	1	-1E+10	1
4902554	69	C	01/03/2023	06:07	-132.996	48.299	0	90.80	0	6.9930	0	32.5220	0	25.469	0	90.016	0	-1e10	8	-1e10	8	-1E+10	1	-1E+10	1	-1E+10	1	-1E+10	1	-1E+10	1	-1E+10	1
4902554	69	C	01/03/2023	06:07	-132.996	48.299	0	91.90	0	6.9490	0	32.5240	0	25.477	0	91.106	0	-1e10	8	-1e10	8	-1E+10	1	-1E+10	1	-1E+10	1	-1E+10	1	-1E+10	1	-1E+10	1
4902554	69	C	01/03/2023	06:07	-132.996	48.299	0	93.10	0	6.8610	0	32.5370	0	25.499	0	92.295	0	-1e10	8	-1e10	8	-1E+10	1	-1E+10	1	-1E+10	1	-1E+10	1	-1E+10	1	-1E+10	1
4902554	69	C	01/03/2023	06:07	-132.996	48.299	0	94.00	0	6.7990	0	32.5490	0	25.516	0	93.187	0	-1e10	8	-1e10	8	-1E+10	1	-1E+10	1	-1E+10	1	-1E+10	1	-1E+10	1	-1E+10	1
4902554	69	C	01/03/2023	06:07	-132.996	48.299	0	95.00	0	6.7580	0	32.5530	0	25.525	0	94.179	0	-1e10	8	-1e10	8	-1E+10	1	-1E+10	1	-1E+10	1	-1E+10	1	-1E+10	1	-1E+10	1
4902554	69	C	01/03/2023	06:07	-132.996	48.299	0	95.90	0	6.7280	0	32.5580	0	25.533	0	95.071	0	-1e10	8	-1e10	8	-1E+10	1	-1E+10	1	-1E+10	1	-1E+10	1	-1E+10	1	-1E+10	1
4902554	69	C	01/03/2023	06:07	-132.996	48.299	0	96.80	0	6.6520	0	32.5810	0	25.561	0	95.963	0	-1e10	8	-1e10	8	-1E+10	1	-1E+10	1	-1E+10	1	-1E+10	1	-1E+10	1	-1E+10	1
4902554	69	C	01/03/2023	06:07	-132.996	48.299	0	98.10	0	6.6250	0	32.5900	0	25.571	0	97.251	0	-1e10	8	-1e10	8	-1E+10	1	-1E+10	1	-1E+10	1	-1E+10	1	-1E+10	1	-1E+10	1
4902554	69	C	01/03/2023	06:07	-132.996	48.299	0	99.00	0	6.6120	0	32.5950	0	25.577	0	98.143	0	-1e10	8	-1e10	8	-1E+10	1	-1E+10	1	-1E+10	1	-1E+10	1	-1E+10	1	-1E+10	1
4902554	69	C	01/03/2023	06:07	-132.996	48.299	0	99.90	0	6.6050	0	32.5990	0	25.581	0	99.035	0	-1e10	8	-1e10	8	-1E+10	1	-1E+10	1	-1E+10	1	-1E+10	1	-1E+10	1	-1E+10	1
4902554	69	C	01/03/2023	06:07	-132.996	48.299	0	101.00	0	6.5970	0	32.6040	0	25.586	0	100.125	0	-1e10	8	-1e10	8	-1E+10	1	-1E+10	1	-1E+10	1	-1E+10	1	-1E+10	1	-1E+10	1
4902554	69	C	01/03/2023	06:07	-132.996	48.299	0	102.10	0	6.5950	0	32.6050	0	25.587	0	101.215	0	-1e10	8	-1e10	8	-1E+10	1	-1E+10	1	-1E+10	1	-1E+10	1	-1E+10	1	-1E+10	1
4902554	69	C	01/03/2023	06:07	-132.996	48.299	0	103.10	0	6.5920	0	32.6080	0	25.590	0	102.206	0	-1e10	8	-1e10	8	-1E+10	1	-1E+10	1	-1E+10	1	-1E+10	1	-1E+10	1	-1E+10	1
4902554	69	C	01/03/2023	06:07	-132.996	48.299	0	104.30	0	6.5720	0	32.6240	0	25.605	0	103.396	0	-1e10	8	-1e10	8	-1E+10	1	-1E+10	1	-1E+10	1	-1E+10	1	-1E+10	1	-1E+10	1
4902554	69	C	01/03/2023	06:07	-132.996	48.299	0	105.10	0	6.5160	0	32.6640	0	25.644	0	104.189	0	-1e10	8	-1e10	8	-1E+10	1	-1E+10	1	-1E+10	1	-1E+10	1	-1E+10	1	-1E+10	1
4902554	69	C	01/03/2023	06:07	-132.996	48.299	0	106.00	0	6.4950	0	32.6840	0	25.662	0	105.081	0	-1e10	8	-1e10	8	-1E+10	1	-1E+10	1	-1E+10	1	-1E+10	1	-1E+10	1	-1E+10	1
4902554	69	C	01/03/2023	06:07	-132.996	48.299	0	107.10	0	6.4800	0	32.7030	0	25.679	0	106.171	0	-1e10	8	-1e10	8	-1E+10	1	-1E+10	1	-1E+10	1	-1E+10	1	-1E+10	1	-1E+10	1
4902554	69	C	01/03/2023	06:07	-132.996	48.299	0	108.00	0	6.4690	0	32.7170	0	25.692	0	107.063	0	-1e10	8	-1e10	8	-1E+10	1	-1E+10	1	-1E+10	1	-1E+10	1	-1E+10	1	-1E+10	1
4902554	69	C	01/03/2023	06:07	-132.996	48.299	0	109.20	0	6.4600	0	32.7360	0	25.708	0	108.252	0	-1e10	8	-1e10	8	-1E+10	1	-1E+10	1	-1E+10	1	-1E+10	1	-1E+10	1	-1E+10	1
4902554	69	C	01/03/2023	06:07	-132.996	48.299	0	110.00	0	6.4500	0	32.7490	0	25.719	0	109.045	0	-1e10	8	-1e10	8	-1E+10	1	-1E+10	1	-1E+10	1	-1E+10	1	-1E+10	1	-1E+10	1
4902554	69	C	01/03/2023	06:07	-132.996	48.299	0	111.00	0	6.4420	0	32.7610	0	25.730	0	110.036	0	-1e10	8	-1e10	8	-1E+10	1	-1E+10	1	-1E+10	1	-1E+10	1	-1E+10	1	-1E+10	1
4902554	69	C	01/03/2023	06:07	-132.996	48.299	0	112.20	0	6.4380	0	32.7720	0	25.739	0	111.225	0	-1e10	8	-1e10	8	-1E+10	1	-1E+10	1	-1E+10	1	-1E+10	1	-1E+10	1	-1E+10	1
4902554	69	C	01/03/2023	06:07	-132.996	48.299	0	112.80	0	6.4340	0	32.7770	0	25.743	0	111.820	0	-1e10	8	-1e10	8	-1E+10	1	-1E+10	1	-1E+10	1	-1E+10	1	-1E+10	1	-1E+10	1
4902554	69	C	01/03/2023	06:07	-132.996	48.299	0	113.90	0	6.4310	0	32.7870	0	25.752	0	112.910	0	-1e10	8	-1e10	8	-1E+10	1	-1E+10	1	-1E+10	1	-1E+10	1	-1E+10	1	-1E+10	1
4902554	69	C	01/03/2023	06:07	-132.996	48.299	0	115.00	0	6.4290	0	32.7910	0	25.755	0	114.000	0	-1e10	8	-1e10	8	-1E+10	1	-1E+10	1	-1E+10	1	-1E+10	1	-1E+10	1	-1E+10	1
4902554	69	C	01/03/2023	06:07	-132.996	48.299	0	115.90	0	6.4190	0	32.8170	0	25.777	0	114.892	0	-1e10	8	-1e10	8	-1E+10	1	-1E+10	1	-1E+10	1	-1E+10	1	-1E+10	1	-1E+10	1
4902554	69	C	01/03/2023	06:07	-132.996	48.299	0	116.80	0	6.4150	0	32.8280	0	25.786	0	115.784	0	-1e10	8	-1e10	8	-1E+10	1	-1E+10	1	-1E+10	1	-1E+10	1	-1E+10	1	-1E+10	1
4902554	69	C	01/03/2023	06:07	-132.996	48.299	0	117.90	0	6.3920	0	32.8650	0	25.818	0	116.874	0	-1e10	8	-1e10	8	-1E+10	1	-1E+10	1	-1E+10	1	-1E+10	1	-1E+10	1	-1E+10	1
4902554	69	C	01/03/2023	06:07	-132.996	48.299	0	119.00	0	6.3710	0	32.9070	0	25.854	0	117.964	0	-1e10	8	-1e10	8	-1E+10	1	-1E+10	1	-1E+10	1	-1E+10	1	-1E+10	1	-1E+10	1
4902554	69	C	01/03/2023	06:07	-132.996	48.299	0	119.90	0	6.3590	0	32.9280	0	25.872	0	118.856	0	-1e10	8	-1e10	8	-1E+10	1	-1E+10	1	-1E+10	1	-1E+10	1	-1E+10	1	-1E+10	1
4902554	69	C	01/03/2023	06:07	-132.996	48.299	0	120.80	0	6.3550	0	32.9410	0	25.883	0	119.748	0	-1e10	8	-1e10	8	-1E+10	1	-1E+10	1	-1E+10	1	-1E+10	1	-1E+10	1	-1E+10	1
4902554	69	C	01/03/2023	06:07	-132.996	48.299	0	121.80	0	6.3510	0	32.9530	0	25.893	0	120.739	0	-1e10	8	-1e10	8	-1E+10	1	-1E+10	1	-1E+10	1	-1E+10	1	-1E+10	1	-1E+10	1
4902554	69	C	01/03/2023	06:07	-132.996	48.299	0	122.90	0	6.3450	0	32.9640	0	25.902	0	121.829	0	-1e10	8	-1e10	8	-1E+10	1	-1E+10	1	-1E+10	1	-1E+10	1	-1E+10	1	-1E+10	1
4902554	69	C	01/03/2023	06:07	-132.996	48.299	0	124.00	0	6.3380	0	32.9720	0	25.910	0	122.919	0	-1e10	8	-1e10	8	-1E+10	1	-1E+10	1	-1E+10	1	-1E+10	1	-1E+10	1	-1E+10	1
4902554	69	C	01/03/2023	06:07	-132.996	48.299	0	125.10	0	6.3230	0	32.9810	0	25.919	0	124.009	0	-1e10	8	-1e10	8	-1E+10	1	-1E+10	1	-1E+10	1	-1E+10	1	-1E+10	1	-1E+10	1
4902554	69	C	01/03/2023	06:07	-132.996	48.299	0	125.90	0	6.3100	0	32.9880	0	25.926	0	124.802	0	-1e10	8	-1e10	8	-1E+10	1	-1E+10	1	-1E+10	1	-1E+10	1	-1E+10	1	-1E+10	1
4902554	69	C	01/03/2023	06:07	-132.996	48.299	0	126.80	0	6.2990	0	32.9990	0	25.936	0	125.694	0	-1e10	8	-1e10	8	-1E+10	1	-1E+10	1	-1E+10	1	-1E+10	1	-1E+10	1	-1E+10	1
4902554	69	C	01/03/2023	06:07	-132.996	48.299	0	127.90	0	6.2910	0	33.0150	0	25.949	0	126.784	0	-1e10	8	-1e10	8	-1E+10	1	-1E+10	1	-1E+10	1	-1E+10	1	-1E+10	1	-1E+10	1
4902554	69	C	01/03/2023	06:07	-132.996	48.299	0	129.10	0	6.2840	0	33.0310	0	25.963	0	127.973	0	-1e10	8	-1e10	8	-1E+10	1	-1E+10	1	-1E+10	1	-1E+10	1	-1E+10	1	-1E+10	1
4902554	69	C	01/03/2023	06:07	-132.996	48.299	0	130.00	0	6.2810	0	33.0360	0	25.967	0	128.865	0	-1e10	8	-1e10	8	-1E+10	1	-1E+10	1	-1E+10	1	-1E+10	1	-1E+10	1	-1E+10	1
4902554	69	C	01/03/2023	06:07	-132.996	48.299	0	130.90	0	6.2840	0	33.0450	0	25.974	0	129.757	0	-1e10	8	-1e10	8	-1E+10	1	-1E+10	1	-1E+10	1	-1E+10	1	-1E+10	1	-1E+10	1
4902554	69	C	01/03/2023	06:07	-132.996	48.299	0	131.80	0	6.2830	0	33.0570	0	25.984	0	130.649	0	-1e10	8	-1e10	8	-1E+10	1	-1E+10	1	-1E+10	1	-1E+10	1	-1E+10	1	-1E+10	1
4902554	69	C	01/03/2023	06:07	-132.996	48.299	0	132.80	0	6.2680	0	33.0800	0	26.004	0	131.640	0	-1e10	8	-1e10	8	-1E+10	1	-1E+10	1	-1E+10	1	-1E+10	1	-1E+10	1	-1E+10	1
4902554	69	C	01/03/2023	06:07	-132.996	48.299	0	133.90	0	6.2430	0	33.1020	0	26.024	0	132.730	0	-1e10	8	-1e10	8	-1E+10	1	-1E+10	1	-1E+10	1	-1E+10	1	-1E+10	1	-1E+10	1
4902554	69	C	01/03/2023	06:07	-132.996	48.299	0	134.80	0	6.2290	0	33.1150	0	26.036	0	133.622	0	-1e10	8	-1e10	8	-1E+10	1	-1E+10	1	-1E+10	1	-1E+10	1	-1E+10	1	-1E+10	1
4902554	69	C	01/03/2023	06:07	-132.996	48.299	0	136.00	0	6.2250	0	33.1550	0	26.068	0	134.811	0	-1e10	8	-1e10	8	-1E+10	1	-1E+10	1	-1E+10	1	-1E+10	1	-1E+10	1	-1E+10	1
4902554	69	C	01/03/2023	06:07	-132.996	48.299	0	137.00	0	6.2250	0	33.1810	0	26.089	0	135.802	0	-1e10	8	-1e10	8	-1E+10	1	-1E+10	1	-1E+10	1	-1E+10	1	-1E+10	1	-1E+10	1
4902554	69	C	01/03/2023	06:07	-132.996	48.299	0	138.20	0	6.2180	0	33.2010	0	26.106	0	136.991	0	-1e10	8	-1e10	8	-1E+10	1	-1E+10	1	-1E+10	1	-1E+10	1	-1E+10	1	-1E+10	1
4902554	69	C	01/03/2023	06:07	-132.996	48.299	0	138.90	0	6.2090	0	33.2040	0	26.109	0	137.684	0	-1e10	8	-1e10	8	-1E+10	1	-1E+10	1	-1E+10	1	-1E+10	1	-1E+10	1	-1E+10	1
4902554	69	C	01/03/2023	06:07	-132.996	48.299	0	140.00	0	6.1960	0	33.2130	0	26.118	0	138.774	0	-1e10	8	-1e10	8	-1E+10	1	-1E+10	1	-1E+10	1	-1E+10	1	-1E+10	1	-1E+10	1
4902554	69	C	01/03/2023	06:07	-132.996	48.299	0	141.20	0	6.1710	0	33.2580	0	26.157	0	139.963	0	-1e10	8	-1e10	8	-1E+10	1	-1E+10	1	-1E+10	1	-1E+10	1	-1E+10	1	-1E+10	1
4902554	69	C	01/03/2023	06:07	-132.996	48.299	0	142.00	0	6.1590	0	33.2790	0	26.175	0	140.756	0	-1e10	8	-1e10	8	-1E+10	1	-1E+10	1	-1E+10	1	-1E+10	1	-1E+10	1	-1E+10	1
4902554	69	C	01/03/2023	06:07	-132.996	48.299	0	142.80	0	6.1550	0	33.2810	0	26.177	0	141.549	0	-1e10	8	-1e10	8	-1E+10	1	-1E+10	1	-1E+10	1	-1E+10	1	-1E+10	1	-1E+10	1
4902554	69	C	01/03/2023	06:07	-132.996	48.299	0	144.00	0	6.0940	0	33.3070	0	26.205	0	142.738	0	-1e10	8	-1e10	8	-1E+10	1	-1E+10	1	-1E+10	1	-1E+10	1	-1E+10	1	-1E+10	1
4902554	69	C	01/03/2023	06:07	-132.996	48.299	0	145.20	0	6.0840	0	33.3290	0	26.224	0	143.927	0	-1e10	8	-1e10	8	-1E+10	1	-1E+10	1	-1E+10	1	-1E+10	1	-1E+10	1	-1E+10	1
4902554	69	C	01/03/2023	06:07	-132.996	48.299	0	146.00	0	6.0830	0	33.3350	0	26.228	0	144.720	0	-1e10	8	-1e10	8	-1E+10	1	-1E+10	1	-1E+10	1	-1E+10	1	-1E+10	1	-1E+10	1
4902554	69	C	01/03/2023	06:07	-132.996	48.299	0	146.80	0	6.0660	0	33.3590	0	26.250	0	145.512	0	-1e10	8	-1e10	8	-1E+10	1	-1E+10	1	-1E+10	1	-1E+10	1	-1E+10	1	-1E+10	1
4902554	69	C	01/03/2023	06:07	-132.996	48.299	0	147.60	0	6.0610	0	33.3880	0	26.273	0	146.305	0	-1e10	8	-1e10	8	-1E+10	1	-1E+10	1	-1E+10	1	-1E+10	1	-1E+10	1	-1E+10	1
4902554	69	C	01/03/2023	06:07	-132.996	48.299	0	148.90	0	6.0380	0	33.4120	0	26.295	0	147.593	0	-1e10	8	-1e10	8	-1E+10	1	-1E+10	1	-1E+10	1	-1E+10	1	-1E+10	1	-1E+10	1
4902554	69	C	01/03/2023	06:07	-132.996	48.299	0	150.30	0	6.0130	0	33.4350	0	26.316	0	148.980	0	-1e10	8	-1e10	8	-1E+10	1	-1E+10	1	-1E+10	1	-1E+10	1	-1E+10	1	-1E+10	1
4902554	69	C	01/03/2023	06:07	-132.996	48.299	0	151.20	0	6.0050	0	33.4380	0	26.320	0	149.872	0	-1e10	8	-1e10	8	-1E+10	1	-1E+10	1	-1E+10	1	-1E+10	1	-1E+10	1	-1E+10	1
4902554	69	C	01/03/2023	06:07	-132.996	48.299	0	152.00	0	5.9990	0	33.4420	0	26.323	0	150.665	0	-1e10	8	-1e10	8	-1E+10	1	-1E+10	1	-1E+10	1	-1E+10	1	-1E+10	1	-1E+10	1
4902554	69	C	01/03/2023	06:07	-132.996	48.299	0	152.90	0	5.9810	0	33.4550	0	26.336	0	151.557	0	-1e10	8	-1e10	8	-1E+10	1	-1E+10	1	-1E+10	1	-1E+10	1	-1E+10	1	-1E+10	1
4902554	69	C	01/03/2023	06:07	-132.996	48.299	0	153.70	0	5.9760	0	33.4590	0	26.340	0	152.349	0	-1e10	8	-1e10	8	-1E+10	1	-1E+10	1	-1E+10	1	-1E+10	1	-1E+10	1	-1E+10	1
4902554	69	C	01/03/2023	06:07	-132.996	48.299	0	154.90	0	5.9550	0	33.4790	0	26.358	0	153.538	0	-1e10	8	-1e10	8	-1E+10	1	-1E+10	1	-1E+10	1	-1E+10	1	-1E+10	1	-1E+10	1
4902554	69	C	01/03/2023	06:07	-132.996	48.299	0	156.20	0	5.9260	0	33.5020	0	26.380	0	154.826	0	-1e10	8	-1e10	8	-1E+10	1	-1E+10	1	-1E+10	1	-1E+10	1	-1E+10	1	-1E+10	1
4902554	69	C	01/03/2023	06:07	-132.996	48.299	0	157.10	0	5.9140	0	33.5120	0	26.389	0	155.718	0	-1e10	8	-1e10	8	-1E+10	1	-1E+10	1	-1E+10	1	-1E+10	1	-1E+10	1	-1E+10	1
4902554	69	C	01/03/2023	06:07	-132.996	48.299	0	157.90	0	5.9080	0	33.5200	0	26.396	0	156.511	0	-1e10	8	-1e10	8	-1E+10	1	-1E+10	1	-1E+10	1	-1E+10	1	-1E+10	1	-1E+10	1
4902554	69	C	01/03/2023	06:07	-132.996	48.299	0	158.80	0	5.8970	0	33.5240	0	26.401	0	157.403	0	-1e10	8	-1e10	8	-1E+10	1	-1E+10	1	-1E+10	1	-1E+10	1	-1E+10	1	-1E+10	1
4902554	69	C	01/03/2023	06:07	-132.996	48.299	0	159.70	0	5.8680	0	33.5530	0	26.427	0	158.294	0	-1e10	8	-1e10	8	-1E+10	1	-1E+10	1	-1E+10	1	-1E+10	1	-1E+10	1	-1E+10	1
4902554	69	C	01/03/2023	06:07	-132.996	48.299	0	160.90	0	5.8300	0	33.5840	0	26.457	0	159.483	0	-1e10	8	-1e10	8	-1E+10	1	-1E+10	1	-1E+10	1	-1E+10	1	-1E+10	1	-1E+10	1
4902554	69	C	01/03/2023	06:07	-132.996	48.299	0	162.30	0	5.8080	0	33.6000	0	26.472	0	160.870	0	-1e10	8	-1e10	8	-1E+10	1	-1E+10	1	-1E+10	1	-1E+10	1	-1E+10	1	-1E+10	1
4902554	69	C	01/03/2023	06:07	-132.996	48.299	0	163.20	0	5.8030	0	33.6060	0	26.477	0	161.762	0	-1e10	8	-1e10	8	-1E+10	1	-1E+10	1	-1E+10	1	-1E+10	1	-1E+10	1	-1E+10	1
4902554	69	C	01/03/2023	06:07	-132.996	48.299	0	164.10	0	5.7990	0	33.6080	0	26.479	0	162.654	0	-1e10	8	-1e10	8	-1E+10	1	-1E+10	1	-1E+10	1	-1E+10	1	-1E+10	1	-1E+10	1
4902554	69	C	01/03/2023	06:07	-132.996	48.299	0	165.00	0	5.7960	0	33.6100	0	26.481	0	163.546	0	-1e10	8	-1e10	8	-1E+10	1	-1E+10	1	-1E+10	1	-1E+10	1	-1E+10	1	-1E+10	1
4902554	69	C	01/03/2023	06:07	-132.996	48.299	0	165.80	0	5.7820	0	33.6230	0	26.493	0	164.338	0	-1e10	8	-1e10	8	-1E+10	1	-1E+10	1	-1E+10	1	-1E+10	1	-1E+10	1	-1E+10	1
4902554	69	C	01/03/2023	06:07	-132.996	48.299	0	166.70	0	5.7750	0	33.6230	0	26.494	0	165.230	0	-1e10	8	-1e10	8	-1E+10	1	-1E+10	1	-1E+10	1	-1E+10	1	-1E+10	1	-1E+10	1
4902554	69	C	01/03/2023	06:07	-132.996	48.299	0	167.60	0	5.7760	0	33.6260	0	26.496	0	166.122	0	-1e10	8	-1e10	8	-1E+10	1	-1E+10	1	-1E+10	1	-1E+10	1	-1E+10	1	-1E+10	1
4902554	69	C	01/03/2023	06:07	-132.996	48.299	0	168.90	0	5.7720	0	33.6330	0	26.502	0	167.410	0	-1e10	8	-1e10	8	-1E+10	1	-1E+10	1	-1E+10	1	-1E+10	1	-1E+10	1	-1E+10	1
4902554	69	C	01/03/2023	06:07	-132.996	48.299	0	170.30	0	5.7700	0	33.6380	0	26.507	0	168.797	0	-1e10	8	-1e10	8	-1E+10	1	-1E+10	1	-1E+10	1	-1E+10	1	-1E+10	1	-1E+10	1
4902554	69	C	01/03/2023	06:07	-132.996	48.299	0	171.20	0	5.7650	0	33.6400	0	26.509	0	169.688	0	-1e10	8	-1e10	8	-1E+10	1	-1E+10	1	-1E+10	1	-1E+10	1	-1E+10	1	-1E+10	1
4902554	69	C	01/03/2023	06:07	-132.996	48.299	0	172.10	0	5.7440	0	33.6500	0	26.519	0	170.580	0	-1e10	8	-1e10	8	-1E+10	1	-1E+10	1	-1E+10	1	-1E+10	1	-1E+10	1	-1E+10	1
4902554	69	C	01/03/2023	06:07	-132.996	48.299	0	173.10	0	5.7350	0	33.6520	0	26.522	0	171.571	0	-1e10	8	-1e10	8	-1E+10	1	-1E+10	1	-1E+10	1	-1E+10	1	-1E+10	1	-1E+10	1
4902554	69	C	01/03/2023	06:07	-132.996	48.299	0	174.10	0	5.7300	0	33.6550	0	26.525	0	172.562	0	-1e10	8	-1e10	8	-1E+10	1	-1E+10	1	-1E+10	1	-1E+10	1	-1E+10	1	-1E+10	1
4902554	69	C	01/03/2023	06:07	-132.996	48.299	0	175.00	0	5.7270	0	33.6560	0	26.526	0	173.453	0	-1e10	8	-1e10	8	-1E+10	1	-1E+10	1	-1E+10	1	-1E+10	1	-1E+10	1	-1E+10	1
4902554	69	C	01/03/2023	06:07	-132.996	48.299	0	176.00	0	5.7090	0	33.6660	0	26.536	0	174.444	0	-1e10	8	-1e10	8	-1E+10	1	-1E+10	1	-1E+10	1	-1E+10	1	-1E+10	1	-1E+10	1
4902554	69	C	01/03/2023	06:07	-132.996	48.299	0	177.00	0	5.7010	0	33.6690	0	26.540	0	175.435	0	-1e10	8	-1e10	8	-1E+10	1	-1E+10	1	-1E+10	1	-1E+10	1	-1E+10	1	-1E+10	1
4902554	69	C	01/03/2023	06:07	-132.996	48.299	0	178.00	0	5.6950	0	33.6710	0	26.542	0	176.425	0	-1e10	8	-1e10	8	-1E+10	1	-1E+10	1	-1E+10	1	-1E+10	1	-1E+10	1	-1E+10	1
4902554	69	C	01/03/2023	06:07	-132.996	48.299	0	179.00	0	5.6860	0	33.6740	0	26.545	0	177.416	0	-1e10	8	-1e10	8	-1E+10	1	-1E+10	1	-1E+10	1	-1E+10	1	-1E+10	1	-1E+10	1
4902554	69	C	01/03/2023	06:07	-132.996	48.299	0	180.00	0	5.6570	0	33.6820	0	26.555	0	178.407	0	-1e10	8	-1e10	8	-1E+10	1	-1E+10	1	-1E+10	1	-1E+10	1	-1E+10	1	-1E+10	1
4902554	69	C	01/03/2023	06:07	-132.996	48.299	0	180.90	0	5.6510	0	33.6830	0	26.557	0	179.298	0	-1e10	8	-1e10	8	-1E+10	1	-1E+10	1	-1E+10	1	-1E+10	1	-1E+10	1	-1E+10	1
4902554	69	C	01/03/2023	06:07	-132.996	48.299	0	181.90	0	5.6450	0	33.6850	0	26.559	0	180.289	0	-1e10	8	-1e10	8	-1E+10	1	-1E+10	1	-1E+10	1	-1E+10	1	-1E+10	1	-1E+10	1
4902554	69	C	01/03/2023	06:07	-132.996	48.299	0	182.80	0	5.6410	0	33.6860	0	26.560	0	181.181	0	-1e10	8	-1e10	8	-1E+10	1	-1E+10	1	-1E+10	1	-1E+10	1	-1E+10	1	-1E+10	1
4902554	69	C	01/03/2023	06:07	-132.996	48.299	0	183.80	0	5.6320	0	33.6870	0	26.562	0	182.172	0	-1e10	8	-1e10	8	-1E+10	1	-1E+10	1	-1E+10	1	-1E+10	1	-1E+10	1	-1E+10	1
4902554	69	C	01/03/2023	06:07	-132.996	48.299	0	184.90	0	5.6280	0	33.6880	0	26.564	0	183.261	0	-1e10	8	-1e10	8	-1E+10	1	-1E+10	1	-1E+10	1	-1E+10	1	-1E+10	1	-1E+10	1
4902554	69	C	01/03/2023	06:07	-132.996	48.299	0	186.00	0	5.6240	0	33.6880	0	26.564	0	184.351	0	-1e10	8	-1e10	8	-1E+10	1	-1E+10	1	-1E+10	1	-1E+10	1	-1E+10	1	-1E+10	1
4902554	69	C	01/03/2023	06:07	-132.996	48.299	0	187.10	0	5.6200	0	33.6880	0	26.565	0	185.441	0	-1e10	8	-1e10	8	-1E+10	1	-1E+10	1	-1E+10	1	-1E+10	1	-1E+10	1	-1E+10	1
4902554	69	C	01/03/2023	06:07	-132.996	48.299	0	187.90	0	5.5750	0	33.6980	0	26.578	0	186.233	0	-1e10	8	-1e10	8	-1E+10	1	-1E+10	1	-1E+10	1	-1E+10	1	-1E+10	1	-1E+10	1
4902554	69	C	01/03/2023	06:07	-132.996	48.299	0	189.00	0	5.5500	0	33.7000	0	26.582	0	187.323	0	-1e10	8	-1e10	8	-1E+10	1	-1E+10	1	-1E+10	1	-1E+10	1	-1E+10	1	-1E+10	1
4902554	69	C	01/03/2023	06:07	-132.996	48.299	0	190.20	0	5.5050	0	33.7070	0	26.593	0	188.512	0	-1e10	8	-1e10	8	-1E+10	1	-1E+10	1	-1E+10	1	-1E+10	1	-1E+10	1	-1E+10	1
4902554	69	C	01/03/2023	06:07	-132.996	48.299	0	191.00	0	5.4910	0	33.7120	0	26.599	0	189.304	0	-1e10	8	-1e10	8	-1E+10	1	-1E+10	1	-1E+10	1	-1E+10	1	-1E+10	1	-1E+10	1
4902554	69	C	01/03/2023	06:07	-132.996	48.299	0	191.70	0	5.4720	0	33.7150	0	26.604	0	189.998	0	-1e10	8	-1e10	8	-1E+10	1	-1E+10	1	-1E+10	1	-1E+10	1	-1E+10	1	-1E+10	1
4902554	69	C	01/03/2023	06:07	-132.996	48.299	0	192.90	0	5.4670	0	33.7160	0	26.605	0	191.187	0	-1e10	8	-1e10	8	-1E+10	1	-1E+10	1	-1E+10	1	-1E+10	1	-1E+10	1	-1E+10	1
4902554	69	C	01/03/2023	06:07	-132.996	48.299	0	194.20	0	5.4660	0	33.7150	0	26.604	0	192.475	0	-1e10	8	-1e10	8	-1E+10	1	-1E+10	1	-1E+10	1	-1E+10	1	-1E+10	1	-1E+10	1
4902554	69	C	01/03/2023	06:07	-132.996	48.299	0	195.00	0	5.4650	0	33.7160	0	26.605	0	193.267	0	-1e10	8	-1e10	8	-1E+10	1	-1E+10	1	-1E+10	1	-1E+10	1	-1E+10	1	-1E+10	1
4902554	69	C	01/03/2023	06:07	-132.996	48.299	0	195.80	0	5.4640	0	33.7160	0	26.605	0	194.060	0	-1e10	8	-1e10	8	-1E+10	1	-1E+10	1	-1E+10	1	-1E+10	1	-1E+10	1	-1E+10	1
4902554	69	C	01/03/2023	06:07	-132.996	48.299	0	197.00	0	5.4640	0	33.7160	0	26.605	0	195.248	0	-1e10	8	-1e10	8	-1E+10	1	-1E+10	1	-1E+10	1	-1E+10	1	-1E+10	1	-1E+10	1
4902554	69	C	01/03/2023	06:07	-132.996	48.299	0	198.20	0	5.4610	0	33.7160	0	26.606	0	196.437	0	-1e10	8	-1e10	8	-1E+10	1	-1E+10	1	-1E+10	1	-1E+10	1	-1E+10	1	-1E+10	1
4902554	69	C	01/03/2023	06:07	-132.996	48.299	0	199.00	0	5.4630	0	33.7150	0	26.605	0	197.230	0	-1e10	8	-1e10	8	-1E+10	1	-1E+10	1	-1E+10	1	-1E+10	1	-1E+10	1	-1E+10	1
4902554	69	C	01/03/2023	06:07	-132.996	48.299	0	199.80	0	5.4440	0	33.7150	0	26.607	0	198.022	0	-1e10	8	-1e10	8	-1E+10	1	-1E+10	1	-1E+10	1	-1E+10	1	-1E+10	1	-1E+10	1
4902554	69	C	01/03/2023	06:07	-132.996	48.299	0	200.60	0	5.4280	0	33.7200	0	26.613	0	198.815	0	-1e10	8	-1e10	8	-1E+10	1	-1E+10	1	-1E+10	1	-1E+10	1	-1E+10	1	-1E+10	1
4902554	69	C	01/03/2023	06:07	-132.996	48.299	0	201.90	0	5.3930	0	33.7270	0	26.623	0	200.102	0	-1e10	8	-1e10	8	-1E+10	1	-1E+10	1	-1E+10	1	-1E+10	1	-1E+10	1	-1E+10	1
4902554	69	C	01/03/2023	06:07	-132.996	48.299	0	203.10	0	5.3720	0	33.7280	0	26.626	0	201.291	0	-1e10	8	-1e10	8	-1E+10	1	-1E+10	1	-1E+10	1	-1E+10	1	-1E+10	1	-1E+10	1
4902554	69	C	01/03/2023	06:07	-132.996	48.299	0	204.00	0	5.3510	0	33.7270	0	26.628	0	202.183	0	-1e10	8	-1e10	8	-1E+10	1	-1E+10	1	-1E+10	1	-1E+10	1	-1E+10	1	-1E+10	1
4902554	69	C	01/03/2023	06:07	-132.996	48.299	0	204.80	0	5.3280	0	33.7300	0	26.633	0	202.975	0	-1e10	8	-1e10	8	-1E+10	1	-1E+10	1	-1E+10	1	-1E+10	1	-1E+10	1	-1E+10	1
4902554	69	C	01/03/2023	06:07	-132.996	48.299	0	205.70	0	5.3240	0	33.7310	0	26.634	0	203.867	0	-1e10	8	-1e10	8	-1E+10	1	-1E+10	1	-1E+10	1	-1E+10	1	-1E+10	1	-1E+10	1
4902554	69	C	01/03/2023	06:07	-132.996	48.299	0	206.90	0	5.3200	0	33.7310	0	26.634	0	205.055	0	-1e10	8	-1e10	8	-1E+10	1	-1E+10	1	-1E+10	1	-1E+10	1	-1E+10	1	-1E+10	1
4902554	69	C	01/03/2023	06:07	-132.996	48.299	0	208.20	0	5.3180	0	33.7300	0	26.634	0	206.343	0	-1e10	8	-1e10	8	-1E+10	1	-1E+10	1	-1E+10	1	-1E+10	1	-1E+10	1	-1E+10	1
4902554	69	C	01/03/2023	06:07	-132.996	48.299	0	209.00	0	5.3170	0	33.7300	0	26.634	0	207.136	0	-1e10	8	-1e10	8	-1E+10	1	-1E+10	1	-1E+10	1	-1E+10	1	-1E+10	1	-1E+10	1
4902554	69	C	01/03/2023	06:07	-132.996	48.299	0	209.90	0	5.3120	0	33.7290	0	26.634	0	208.027	0	-1e10	8	-1e10	8	-1E+10	1	-1E+10	1	-1E+10	1	-1E+10	1	-1E+10	1	-1E+10	1
4902554	69	C	01/03/2023	06:07	-132.996	48.299	0	210.70	0	5.2990	0	33.7290	0	26.635	0	208.820	0	-1e10	8	-1e10	8	-1E+10	1	-1E+10	1	-1E+10	1	-1E+10	1	-1E+10	1	-1E+10	1
4902554	69	C	01/03/2023	06:07	-132.996	48.299	0	212.00	0	5.2660	0	33.7320	0	26.641	0	210.107	0	-1e10	8	-1e10	8	-1E+10	1	-1E+10	1	-1E+10	1	-1E+10	1	-1E+10	1	-1E+10	1
4902554	69	C	01/03/2023	06:07	-132.996	48.299	0	213.30	0	5.2330	0	33.7340	0	26.647	0	211.395	0	-1e10	8	-1e10	8	-1E+10	1	-1E+10	1	-1E+10	1	-1E+10	1	-1E+10	1	-1E+10	1
4902554	69	C	01/03/2023	06:07	-132.996	48.299	0	214.20	0	5.2320	0	33.7340	0	26.647	0	212.287	0	-1e10	8	-1e10	8	-1E+10	1	-1E+10	1	-1E+10	1	-1E+10	1	-1E+10	1	-1E+10	1
4902554	69	C	01/03/2023	06:07	-132.996	48.299	0	215.00	0	5.2290	0	33.7340	0	26.647	0	213.079	0	-1e10	8	-1e10	8	-1E+10	1	-1E+10	1	-1E+10	1	-1E+10	1	-1E+10	1	-1E+10	1
4902554	69	C	01/03/2023	06:07	-132.996	48.299	0	215.90	0	5.2270	0	33.7350	0	26.648	0	213.971	0	-1e10	8	-1e10	8	-1E+10	1	-1E+10	1	-1E+10	1	-1E+10	1	-1E+10	1	-1E+10	1
4902554	69	C	01/03/2023	06:07	-132.996	48.299	0	216.70	0	5.2240	0	33.7350	0	26.649	0	214.763	0	-1e10	8	-1e10	8	-1E+10	1	-1E+10	1	-1E+10	1	-1E+10	1	-1E+10	1	-1E+10	1
4902554	69	C	01/03/2023	06:07	-132.996	48.299	0	217.60	0	5.2150	0	33.7360	0	26.651	0	215.654	0	-1e10	8	-1e10	8	-1E+10	1	-1E+10	1	-1E+10	1	-1E+10	1	-1E+10	1	-1E+10	1
4902554	69	C	01/03/2023	06:07	-132.996	48.299	0	218.90	0	5.2030	0	33.7400	0	26.655	0	216.942	0	-1e10	8	-1e10	8	-1E+10	1	-1E+10	1	-1E+10	1	-1E+10	1	-1E+10	1	-1E+10	1
4902554	69	C	01/03/2023	06:07	-132.996	48.299	0	220.20	0	5.1900	0	33.7400	0	26.657	0	218.230	0	-1e10	8	-1e10	8	-1E+10	1	-1E+10	1	-1E+10	1	-1E+10	1	-1E+10	1	-1E+10	1
4902554	69	C	01/03/2023	06:07	-132.996	48.299	0	221.00	0	5.1880	0	33.7410	0	26.658	0	219.022	0	-1e10	8	-1e10	8	-1E+10	1	-1E+10	1	-1E+10	1	-1E+10	1	-1E+10	1	-1E+10	1
4902554	69	C	01/03/2023	06:07	-132.996	48.299	0	221.90	0	5.1860	0	33.7410	0	26.658	0	219.914	0	-1e10	8	-1e10	8	-1E+10	1	-1E+10	1	-1E+10	1	-1E+10	1	-1E+10	1	-1E+10	1
4902554	69	C	01/03/2023	06:07	-132.996	48.299	0	222.80	0	5.1820	0	33.7400	0	26.658	0	220.805	0	-1e10	8	-1e10	8	-1E+10	1	-1E+10	1	-1E+10	1	-1E+10	1	-1E+10	1	-1E+10	1
4902554	69	C	01/03/2023	06:07	-132.996	48.299	0	223.70	0	5.1610	0	33.7440	0	26.663	0	221.697	0	-1e10	8	-1e10	8	-1E+10	1	-1E+10	1	-1E+10	1	-1E+10	1	-1E+10	1	-1E+10	1
4902554	69	C	01/03/2023	06:07	-132.996	48.299	0	224.90	0	5.1540	0	33.7440	0	26.664	0	222.885	0	-1e10	8	-1e10	8	-1E+10	1	-1E+10	1	-1E+10	1	-1E+10	1	-1E+10	1	-1E+10	1
4902554	69	C	01/03/2023	06:07	-132.996	48.299	0	226.30	0	5.1540	0	33.7440	0	26.664	0	224.272	0	-1e10	8	-1e10	8	-1E+10	1	-1E+10	1	-1E+10	1	-1E+10	1	-1E+10	1	-1E+10	1
4902554	69	C	01/03/2023	06:07	-132.996	48.299	0	227.10	0	5.1540	0	33.7430	0	26.663	0	225.064	0	-1e10	8	-1e10	8	-1E+10	1	-1E+10	1	-1E+10	1	-1E+10	1	-1E+10	1	-1E+10	1
4902554	69	C	01/03/2023	06:07	-132.996	48.299	0	227.90	0	5.1540	0	33.7430	0	26.663	0	225.857	0	-1e10	8	-1e10	8	-1E+10	1	-1E+10	1	-1E+10	1	-1E+10	1	-1E+10	1	-1E+10	1
4902554	69	C	01/03/2023	06:07	-132.996	48.299	0	228.80	0	5.1550	0	33.7430	0	26.663	0	226.748	0	-1e10	8	-1e10	8	-1E+10	1	-1E+10	1	-1E+10	1	-1E+10	1	-1E+10	1	-1E+10	1
4902554	69	C	01/03/2023	06:07	-132.996	48.299	0	229.60	0	5.1540	0	33.7440	0	26.664	0	227.541	0	-1e10	8	-1e10	8	-1E+10	1	-1E+10	1	-1E+10	1	-1E+10	1	-1E+10	1	-1E+10	1
4902554	69	C	01/03/2023	06:07	-132.996	48.299	0	230.90	0	5.1500	0	33.7440	0	26.665	0	228.828	0	-1e10	8	-1e10	8	-1E+10	1	-1E+10	1	-1E+10	1	-1E+10	1	-1E+10	1	-1E+10	1
4902554	69	C	01/03/2023	06:07	-132.996	48.299	0	232.20	0	5.1490	0	33.7450	0	26.665	0	230.116	0	-1e10	8	-1e10	8	-1E+10	1	-1E+10	1	-1E+10	1	-1E+10	1	-1E+10	1	-1E+10	1
4902554	69	C	01/03/2023	06:07	-132.996	48.299	0	233.00	0	5.1500	0	33.7450	0	26.665	0	230.908	0	-1e10	8	-1e10	8	-1E+10	1	-1E+10	1	-1E+10	1	-1E+10	1	-1E+10	1	-1E+10	1
4902554	69	C	01/03/2023	06:07	-132.996	48.299	0	233.90	0	5.1480	0	33.7450	0	26.666	0	231.800	0	-1e10	8	-1e10	8	-1E+10	1	-1E+10	1	-1E+10	1	-1E+10	1	-1E+10	1	-1E+10	1
4902554	69	C	01/03/2023	06:07	-132.996	48.299	0	234.70	0	5.1280	0	33.7460	0	26.669	0	232.592	0	-1e10	8	-1e10	8	-1E+10	1	-1E+10	1	-1E+10	1	-1E+10	1	-1E+10	1	-1E+10	1
4902554	69	C	01/03/2023	06:07	-132.996	48.299	0	235.90	0	5.1030	0	33.7480	0	26.673	0	233.780	0	-1e10	8	-1e10	8	-1E+10	1	-1E+10	1	-1E+10	1	-1E+10	1	-1E+10	1	-1E+10	1
4902554	69	C	01/03/2023	06:07	-132.996	48.299	0	237.20	0	5.0630	0	33.7530	0	26.682	0	235.068	0	-1e10	8	-1e10	8	-1E+10	1	-1E+10	1	-1E+10	1	-1E+10	1	-1E+10	1	-1E+10	1
4902554	69	C	01/03/2023	06:07	-132.996	48.299	0	238.00	0	5.0430	0	33.7500	0	26.682	0	235.860	0	-1e10	8	-1e10	8	-1E+10	1	-1E+10	1	-1E+10	1	-1E+10	1	-1E+10	1	-1E+10	1
4902554	69	C	01/03/2023	06:07	-132.996	48.299	0	238.80	0	5.0320	0	33.7510	0	26.684	0	236.653	0	-1e10	8	-1e10	8	-1E+10	1	-1E+10	1	-1E+10	1	-1E+10	1	-1E+10	1	-1E+10	1
4902554	69	C	01/03/2023	06:07	-132.996	48.299	0	240.00	0	4.9990	0	33.7530	0	26.689	0	237.841	0	-1e10	8	-1e10	8	-1E+10	1	-1E+10	1	-1E+10	1	-1E+10	1	-1E+10	1	-1E+10	1
4902554	69	C	01/03/2023	06:07	-132.996	48.299	0	241.30	0	4.9750	0	33.7550	0	26.693	0	239.129	0	-1e10	8	-1e10	8	-1E+10	1	-1E+10	1	-1E+10	1	-1E+10	1	-1E+10	1	-1E+10	1
4902554	69	C	01/03/2023	06:07	-132.996	48.299	0	242.10	0	4.9430	0	33.7610	0	26.702	0	239.921	0	-1e10	8	-1e10	8	-1E+10	1	-1E+10	1	-1E+10	1	-1E+10	1	-1E+10	1	-1E+10	1
4902554	69	C	01/03/2023	06:07	-132.996	48.299	0	242.90	0	4.9280	0	33.7610	0	26.703	0	240.714	0	-1e10	8	-1e10	8	-1E+10	1	-1E+10	1	-1E+10	1	-1E+10	1	-1E+10	1	-1E+10	1
4902554	69	C	01/03/2023	06:07	-132.996	48.299	0	243.70	0	4.9170	0	33.7640	0	26.707	0	241.506	0	-1e10	8	-1e10	8	-1E+10	1	-1E+10	1	-1E+10	1	-1E+10	1	-1E+10	1	-1E+10	1
4902554	69	C	01/03/2023	06:07	-132.996	48.299	0	245.00	0	4.9120	0	33.7640	0	26.708	0	242.793	0	-1e10	8	-1e10	8	-1E+10	1	-1E+10	1	-1E+10	1	-1E+10	1	-1E+10	1	-1E+10	1
4902554	69	C	01/03/2023	06:07	-132.996	48.299	0	246.20	0	4.9100	0	33.7640	0	26.708	0	243.982	0	-1e10	8	-1e10	8	-1E+10	1	-1E+10	1	-1E+10	1	-1E+10	1	-1E+10	1	-1E+10	1
4902554	69	C	01/03/2023	06:07	-132.996	48.299	0	247.00	0	4.9080	0	33.7640	0	26.708	0	244.774	0	-1e10	8	-1e10	8	-1E+10	1	-1E+10	1	-1E+10	1	-1E+10	1	-1E+10	1	-1E+10	1
4902554	69	C	01/03/2023	06:07	-132.996	48.299	0	247.80	0	4.9040	0	33.7640	0	26.708	0	245.567	0	-1e10	8	-1e10	8	-1E+10	1	-1E+10	1	-1E+10	1	-1E+10	1	-1E+10	1	-1E+10	1
4902554	69	C	01/03/2023	06:07	-132.996	48.299	0	248.60	0	4.8950	0	33.7670	0	26.712	0	246.359	0	-1e10	8	-1e10	8	-1E+10	1	-1E+10	1	-1E+10	1	-1E+10	1	-1E+10	1	-1E+10	1
4902554	69	C	01/03/2023	06:07	-132.996	48.299	0	249.90	0	4.8870	0	33.7670	0	26.713	0	247.646	0	-1e10	8	-1e10	8	-1E+10	1	-1E+10	1	-1E+10	1	-1E+10	1	-1E+10	1	-1E+10	1
4902554	69	C	01/03/2023	06:07	-132.996	48.299	0	251.10	0	4.8860	0	33.7680	0	26.714	0	248.835	0	-1e10	8	-1e10	8	-1E+10	1	-1E+10	1	-1E+10	1	-1E+10	1	-1E+10	1	-1E+10	1
4902554	69	C	01/03/2023	06:07	-132.996	48.299	0	252.00	0	4.8850	0	33.7680	0	26.714	0	249.726	0	-1e10	8	-1e10	8	-1E+10	1	-1E+10	1	-1E+10	1	-1E+10	1	-1E+10	1	-1E+10	1
4902554	69	C	01/03/2023	06:07	-132.996	48.299	0	252.80	0	4.8810	0	33.7690	0	26.715	0	250.518	0	-1e10	8	-1e10	8	-1E+10	1	-1E+10	1	-1E+10	1	-1E+10	1	-1E+10	1	-1E+10	1
4902554	69	C	01/03/2023	06:07	-132.996	48.299	0	253.60	0	4.8760	0	33.7700	0	26.716	0	251.311	0	-1e10	8	-1e10	8	-1E+10	1	-1E+10	1	-1E+10	1	-1E+10	1	-1E+10	1	-1E+10	1
4902554	69	C	01/03/2023	06:07	-132.996	48.299	0	254.90	0	4.8650	0	33.7710	0	26.718	0	252.598	0	-1e10	8	-1e10	8	-1E+10	1	-1E+10	1	-1E+10	1	-1E+10	1	-1E+10	1	-1E+10	1
4902554	69	C	01/03/2023	06:07	-132.996	48.299	0	256.10	0	4.8580	0	33.7740	0	26.722	0	253.787	0	-1e10	8	-1e10	8	-1E+10	1	-1E+10	1	-1E+10	1	-1E+10	1	-1E+10	1	-1E+10	1
4902554	69	C	01/03/2023	06:07	-132.996	48.299	0	256.90	0	4.8640	0	33.7730	0	26.720	0	254.579	0	-1e10	8	-1e10	8	-1E+10	1	-1E+10	1	-1E+10	1	-1E+10	1	-1E+10	1	-1E+10	1
4902554	69	C	01/03/2023	06:07	-132.996	48.299	0	257.80	0	4.8440	0	33.7790	0	26.727	0	255.470	0	-1e10	8	-1e10	8	-1E+10	1	-1E+10	1	-1E+10	1	-1E+10	1	-1E+10	1	-1E+10	1
4902554	69	C	01/03/2023	06:07	-132.996	48.299	0	258.60	0	4.8400	0	33.7810	0	26.729	0	256.263	0	-1e10	8	-1e10	8	-1E+10	1	-1E+10	1	-1E+10	1	-1E+10	1	-1E+10	1	-1E+10	1
4902554	69	C	01/03/2023	06:07	-132.996	48.299	0	259.90	0	4.8320	0	33.7840	0	26.732	0	257.550	0	-1e10	8	-1e10	8	-1E+10	1	-1E+10	1	-1E+10	1	-1E+10	1	-1E+10	1	-1E+10	1
4902554	69	C	01/03/2023	06:07	-132.996	48.299	0	261.10	0	4.8300	0	33.7840	0	26.733	0	258.738	0	-1e10	8	-1e10	8	-1E+10	1	-1E+10	1	-1E+10	1	-1E+10	1	-1E+10	1	-1E+10	1
4902554	69	C	01/03/2023	06:07	-132.996	48.299	0	262.00	0	4.8280	0	33.7840	0	26.733	0	259.630	0	-1e10	8	-1e10	8	-1E+10	1	-1E+10	1	-1E+10	1	-1E+10	1	-1E+10	1	-1E+10	1
4902554	69	C	01/03/2023	06:07	-132.996	48.299	0	262.80	0	4.8270	0	33.7850	0	26.734	0	260.422	0	-1e10	8	-1e10	8	-1E+10	1	-1E+10	1	-1E+10	1	-1E+10	1	-1E+10	1	-1E+10	1
4902554	69	C	01/03/2023	06:07	-132.996	48.299	0	263.70	0	4.8220	0	33.7850	0	26.734	0	261.313	0	-1e10	8	-1e10	8	-1E+10	1	-1E+10	1	-1E+10	1	-1E+10	1	-1E+10	1	-1E+10	1
4902554	69	C	01/03/2023	06:07	-132.996	48.299	0	264.90	0	4.8110	0	33.7870	0	26.737	0	262.502	0	-1e10	8	-1e10	8	-1E+10	1	-1E+10	1	-1E+10	1	-1E+10	1	-1E+10	1	-1E+10	1
4902554	69	C	01/03/2023	06:07	-132.996	48.299	0	266.30	0	4.8080	0	33.7880	0	26.738	0	263.888	0	-1e10	8	-1e10	8	-1E+10	1	-1E+10	1	-1E+10	1	-1E+10	1	-1E+10	1	-1E+10	1
4902554	69	C	01/03/2023	06:07	-132.996	48.299	0	267.20	0	4.8060	0	33.7880	0	26.739	0	264.779	0	-1e10	8	-1e10	8	-1E+10	1	-1E+10	1	-1E+10	1	-1E+10	1	-1E+10	1	-1E+10	1
4902554	69	C	01/03/2023	06:07	-132.996	48.299	0	268.10	0	4.8050	0	33.7900	0	26.740	0	265.671	0	-1e10	8	-1e10	8	-1E+10	1	-1E+10	1	-1E+10	1	-1E+10	1	-1E+10	1	-1E+10	1
4902554	69	C	01/03/2023	06:07	-132.996	48.299	0	269.00	0	4.8080	0	33.7910	0	26.741	0	266.562	0	-1e10	8	-1e10	8	-1E+10	1	-1E+10	1	-1E+10	1	-1E+10	1	-1E+10	1	-1E+10	1
4902554	69	C	01/03/2023	06:07	-132.996	48.299	0	269.90	0	4.8100	0	33.7940	0	26.743	0	267.453	0	-1e10	8	-1e10	8	-1E+10	1	-1E+10	1	-1E+10	1	-1E+10	1	-1E+10	1	-1E+10	1
4902554	69	C	01/03/2023	06:07	-132.996	48.299	0	270.80	0	4.8150	0	33.7960	0	26.744	0	268.344	0	-1e10	8	-1e10	8	-1E+10	1	-1E+10	1	-1E+10	1	-1E+10	1	-1E+10	1	-1E+10	1
4902554	69	C	01/03/2023	06:07	-132.996	48.299	0	271.70	0	4.8160	0	33.7980	0	26.745	0	269.236	0	-1e10	8	-1e10	8	-1E+10	1	-1E+10	1	-1E+10	1	-1E+10	1	-1E+10	1	-1E+10	1
4902554	69	C	01/03/2023	06:07	-132.996	48.299	0	272.60	0	4.8170	0	33.8020	0	26.748	0	270.127	0	-1e10	8	-1e10	8	-1E+10	1	-1E+10	1	-1E+10	1	-1E+10	1	-1E+10	1	-1E+10	1
4902554	69	C	01/03/2023	06:07	-132.996	48.299	0	273.90	0	4.8130	0	33.8030	0	26.750	0	271.414	0	-1e10	8	-1e10	8	-1E+10	1	-1E+10	1	-1E+10	1	-1E+10	1	-1E+10	1	-1E+10	1
4902554	69	C	01/03/2023	06:07	-132.996	48.299	0	275.30	0	4.8080	0	33.8040	0	26.751	0	272.801	0	-1e10	8	-1e10	8	-1E+10	1	-1E+10	1	-1E+10	1	-1E+10	1	-1E+10	1	-1E+10	1
4902554	69	C	01/03/2023	06:07	-132.996	48.299	0	276.20	0	4.7890	0	33.8070	0	26.756	0	273.692	0	-1e10	8	-1e10	8	-1E+10	1	-1E+10	1	-1E+10	1	-1E+10	1	-1E+10	1	-1E+10	1
4902554	69	C	01/03/2023	06:07	-132.996	48.299	0	277.20	0	4.7780	0	33.8100	0	26.759	0	274.682	0	-1e10	8	-1e10	8	-1E+10	1	-1E+10	1	-1E+10	1	-1E+10	1	-1E+10	1	-1E+10	1
4902554	69	C	01/03/2023	06:07	-132.996	48.299	0	278.10	0	4.7580	0	33.8110	0	26.762	0	275.573	0	-1e10	8	-1e10	8	-1E+10	1	-1E+10	1	-1E+10	1	-1E+10	1	-1E+10	1	-1E+10	1
4902554	69	C	01/03/2023	06:07	-132.996	48.299	0	279.00	0	4.7560	0	33.8110	0	26.762	0	276.464	0	-1e10	8	-1e10	8	-1E+10	1	-1E+10	1	-1E+10	1	-1E+10	1	-1E+10	1	-1E+10	1
4902554	69	C	01/03/2023	06:07	-132.996	48.299	0	279.90	0	4.7540	0	33.8110	0	26.763	0	277.356	0	-1e10	8	-1e10	8	-1E+10	1	-1E+10	1	-1E+10	1	-1E+10	1	-1E+10	1	-1E+10	1
4902554	69	C	01/03/2023	06:07	-132.996	48.299	0	280.80	0	4.7500	0	33.8120	0	26.764	0	278.247	0	-1e10	8	-1e10	8	-1E+10	1	-1E+10	1	-1E+10	1	-1E+10	1	-1E+10	1	-1E+10	1
4902554	69	C	01/03/2023	06:07	-132.996	48.299	0	281.80	0	4.7420	0	33.8140	0	26.766	0	279.237	0	-1e10	8	-1e10	8	-1E+10	1	-1E+10	1	-1E+10	1	-1E+10	1	-1E+10	1	-1E+10	1
4902554	69	C	01/03/2023	06:07	-132.996	48.299	0	282.70	0	4.7390	0	33.8210	0	26.772	0	280.128	0	-1e10	8	-1e10	8	-1E+10	1	-1E+10	1	-1E+10	1	-1E+10	1	-1E+10	1	-1E+10	1
4902554	69	C	01/03/2023	06:07	-132.996	48.299	0	283.60	0	4.7220	0	33.8180	0	26.772	0	281.020	0	-1e10	8	-1e10	8	-1E+10	1	-1E+10	1	-1E+10	1	-1E+10	1	-1E+10	1	-1E+10	1
4902554	69	C	01/03/2023	06:07	-132.996	48.299	0	284.60	0	4.7070	0	33.8200	0	26.775	0	282.010	0	-1e10	8	-1e10	8	-1E+10	1	-1E+10	1	-1E+10	1	-1E+10	1	-1E+10	1	-1E+10	1
4902554	69	C	01/03/2023	06:07	-132.996	48.299	0	285.50	0	4.7030	0	33.8210	0	26.776	0	282.901	0	-1e10	8	-1e10	8	-1E+10	1	-1E+10	1	-1E+10	1	-1E+10	1	-1E+10	1	-1E+10	1
4902554	69	C	01/03/2023	06:07	-132.996	48.299	0	286.50	0	4.6970	0	33.8210	0	26.777	0	283.891	0	-1e10	8	-1e10	8	-1E+10	1	-1E+10	1	-1E+10	1	-1E+10	1	-1E+10	1	-1E+10	1
4902554	69	C	01/03/2023	06:07	-132.996	48.299	0	287.50	0	4.6900	0	33.8210	0	26.778	0	284.881	0	-1e10	8	-1e10	8	-1E+10	1	-1E+10	1	-1E+10	1	-1E+10	1	-1E+10	1	-1E+10	1
4902554	69	C	01/03/2023	06:07	-132.996	48.299	0	288.90	0	4.6750	0	33.8200	0	26.779	0	286.268	0	-1e10	8	-1e10	8	-1E+10	1	-1E+10	1	-1E+10	1	-1E+10	1	-1E+10	1	-1E+10	1
4902554	69	C	01/03/2023	06:07	-132.996	48.299	0	290.40	0	4.6630	0	33.8200	0	26.780	0	287.753	0	-1e10	8	-1e10	8	-1E+10	1	-1E+10	1	-1E+10	1	-1E+10	1	-1E+10	1	-1E+10	1
4902554	69	C	01/03/2023	06:07	-132.996	48.299	0	291.40	0	4.6580	0	33.8230	0	26.783	0	288.743	0	-1e10	8	-1e10	8	-1E+10	1	-1E+10	1	-1E+10	1	-1E+10	1	-1E+10	1	-1E+10	1
4902554	69	C	01/03/2023	06:07	-132.996	48.299	0	292.40	0	4.6530	0	33.8250	0	26.785	0	289.733	0	-1e10	8	-1e10	8	-1E+10	1	-1E+10	1	-1E+10	1	-1E+10	1	-1E+10	1	-1E+10	1
4902554	69	C	01/03/2023	06:07	-132.996	48.299	0	293.40	0	4.6490	0	33.8240	0	26.785	0	290.724	0	-1e10	8	-1e10	8	-1E+10	1	-1E+10	1	-1E+10	1	-1E+10	1	-1E+10	1	-1E+10	1
4902554	69	C	01/03/2023	06:07	-132.996	48.299	0	294.40	0	4.6440	0	33.8260	0	26.787	0	291.714	0	-1e10	8	-1e10	8	-1E+10	1	-1E+10	1	-1E+10	1	-1E+10	1	-1E+10	1	-1E+10	1
4902554	69	C	01/03/2023	06:07	-132.996	48.299	0	295.40	0	4.6370	0	33.8250	0	26.787	0	292.704	0	-1e10	8	-1e10	8	-1E+10	1	-1E+10	1	-1E+10	1	-1E+10	1	-1E+10	1	-1E+10	1
4902554	69	C	01/03/2023	06:07	-132.996	48.299	0	296.30	0	4.6280	0	33.8250	0	26.788	0	293.595	0	-1e10	8	-1e10	8	-1E+10	1	-1E+10	1	-1E+10	1	-1E+10	1	-1E+10	1	-1E+10	1
4902554	69	C	01/03/2023	06:07	-132.996	48.299	0	297.30	0	4.6230	0	33.8270	0	26.790	0	294.585	0	-1e10	8	-1e10	8	-1E+10	1	-1E+10	1	-1E+10	1	-1E+10	1	-1E+10	1	-1E+10	1
4902554	69	C	01/03/2023	06:07	-132.996	48.299	0	298.30	0	4.6140	0	33.8280	0	26.792	0	295.575	0	-1e10	8	-1e10	8	-1E+10	1	-1E+10	1	-1E+10	1	-1E+10	1	-1E+10	1	-1E+10	1
4902554	69	C	01/03/2023	06:07	-132.996	48.299	0	299.30	0	4.6100	0	33.8300	0	26.794	0	296.565	0	-1e10	8	-1e10	8	-1E+10	1	-1E+10	1	-1E+10	1	-1E+10	1	-1E+10	1	-1E+10	1
4902554	69	C	01/03/2023	06:07	-132.996	48.299	0	300.30	0	4.6040	0	33.8330	0	26.797	0	297.556	0	-1e10	8	-1e10	8	-1E+10	1	-1E+10	1	-1E+10	1	-1E+10	1	-1E+10	1	-1E+10	1
4902554	69	C	01/03/2023	06:07	-132.996	48.299	0	301.30	0	4.6000	0	33.8340	0	26.798	0	298.546	0	-1e10	8	-1e10	8	-1E+10	1	-1E+10	1	-1E+10	1	-1E+10	1	-1E+10	1	-1E+10	1
4902554	69	C	01/03/2023	06:07	-132.996	48.299	0	302.30	0	4.5980	0	33.8340	0	26.798	0	299.536	0	-1e10	8	-1e10	8	-1E+10	1	-1E+10	1	-1E+10	1	-1E+10	1	-1E+10	1	-1E+10	1
4902554	69	C	01/03/2023	06:07	-132.996	48.299	0	303.40	0	4.5970	0	33.8350	0	26.799	0	300.625	0	-1e10	8	-1e10	8	-1E+10	1	-1E+10	1	-1E+10	1	-1E+10	1	-1E+10	1	-1E+10	1
4902554	69	C	01/03/2023	06:07	-132.996	48.299	0	304.40	0	4.5950	0	33.8350	0	26.799	0	301.615	0	-1e10	8	-1e10	8	-1E+10	1	-1E+10	1	-1E+10	1	-1E+10	1	-1E+10	1	-1E+10	1
4902554	69	C	01/03/2023	06:07	-132.996	48.299	0	305.40	0	4.5930	0	33.8370	0	26.801	0	302.605	0	-1e10	8	-1e10	8	-1E+10	1	-1E+10	1	-1E+10	1	-1E+10	1	-1E+10	1	-1E+10	1
4902554	69	C	01/03/2023	06:07	-132.996	48.299	0	306.40	0	4.5840	0	33.8390	0	26.804	0	303.595	0	-1e10	8	-1e10	8	-1E+10	1	-1E+10	1	-1E+10	1	-1E+10	1	-1E+10	1	-1E+10	1
4902554	69	C	01/03/2023	06:07	-132.996	48.299	0	307.40	0	4.5820	0	33.8390	0	26.804	0	304.585	0	-1e10	8	-1e10	8	-1E+10	1	-1E+10	1	-1E+10	1	-1E+10	1	-1E+10	1	-1E+10	1
4902554	69	C	01/03/2023	06:07	-132.996	48.299	0	308.40	0	4.5770	0	33.8410	0	26.806	0	305.576	0	-1e10	8	-1e10	8	-1E+10	1	-1E+10	1	-1E+10	1	-1E+10	1	-1E+10	1	-1E+10	1
4902554	69	C	01/03/2023	06:07	-132.996	48.299	0	309.40	0	4.5750	0	33.8420	0	26.807	0	306.566	0	-1e10	8	-1e10	8	-1E+10	1	-1E+10	1	-1E+10	1	-1E+10	1	-1E+10	1	-1E+10	1
4902554	69	C	01/03/2023	06:07	-132.996	48.299	0	310.50	0	4.5740	0	33.8420	0	26.807	0	307.655	0	-1e10	8	-1e10	8	-1E+10	1	-1E+10	1	-1E+10	1	-1E+10	1	-1E+10	1	-1E+10	1
4902554	69	C	01/03/2023	06:07	-132.996	48.299	0	311.50	0	4.5730	0	33.8430	0	26.808	0	308.645	0	-1e10	8	-1e10	8	-1E+10	1	-1E+10	1	-1E+10	1	-1E+10	1	-1E+10	1	-1E+10	1
4902554	69	C	01/03/2023	06:07	-132.996	48.299	0	312.50	0	4.5710	0	33.8450	0	26.810	0	309.635	0	-1e10	8	-1e10	8	-1E+10	1	-1E+10	1	-1E+10	1	-1E+10	1	-1E+10	1	-1E+10	1
4902554	69	C	01/03/2023	06:07	-132.996	48.299	0	313.60	0	4.5710	0	33.8470	0	26.811	0	310.724	0	-1e10	8	-1e10	8	-1E+10	1	-1E+10	1	-1E+10	1	-1E+10	1	-1E+10	1	-1E+10	1
4902554	69	C	01/03/2023	06:07	-132.996	48.299	0	314.60	0	4.5710	0	33.8470	0	26.812	0	311.714	0	-1e10	8	-1e10	8	-1E+10	1	-1E+10	1	-1E+10	1	-1E+10	1	-1E+10	1	-1E+10	1
4902554	69	C	01/03/2023	06:07	-132.996	48.299	0	315.60	0	4.5710	0	33.8470	0	26.812	0	312.704	0	-1e10	8	-1e10	8	-1E+10	1	-1E+10	1	-1E+10	1	-1E+10	1	-1E+10	1	-1E+10	1
4902554	69	C	01/03/2023	06:07	-132.996	48.299	0	316.70	0	4.5700	0	33.8480	0	26.812	0	313.793	0	-1e10	8	-1e10	8	-1E+10	1	-1E+10	1	-1E+10	1	-1E+10	1	-1E+10	1	-1E+10	1
4902554	69	C	01/03/2023	06:07	-132.996	48.299	0	317.70	0	4.5700	0	33.8470	0	26.812	0	314.783	0	-1e10	8	-1e10	8	-1E+10	1	-1E+10	1	-1E+10	1	-1E+10	1	-1E+10	1	-1E+10	1
4902554	69	C	01/03/2023	06:07	-132.996	48.299	0	318.70	0	4.5660	0	33.8490	0	26.814	0	315.773	0	-1e10	8	-1e10	8	-1E+10	1	-1E+10	1	-1E+10	1	-1E+10	1	-1E+10	1	-1E+10	1
4902554	69	C	01/03/2023	06:07	-132.996	48.299	0	319.80	0	4.5650	0	33.8490	0	26.814	0	316.862	0	-1e10	8	-1e10	8	-1E+10	1	-1E+10	1	-1E+10	1	-1E+10	1	-1E+10	1	-1E+10	1
4902554	69	C	01/03/2023	06:07	-132.996	48.299	0	320.80	0	4.5660	0	33.8490	0	26.814	0	317.853	0	-1e10	8	-1e10	8	-1E+10	1	-1E+10	1	-1E+10	1	-1E+10	1	-1E+10	1	-1E+10	1
4902554	69	C	01/03/2023	06:07	-132.996	48.299	0	321.90	0	4.5660	0	33.8500	0	26.814	0	318.942	0	-1e10	8	-1e10	8	-1E+10	1	-1E+10	1	-1E+10	1	-1E+10	1	-1E+10	1	-1E+10	1
4902554	69	C	01/03/2023	06:07	-132.996	48.299	0	322.90	0	4.5600	0	33.8520	0	26.817	0	319.932	0	-1e10	8	-1e10	8	-1E+10	1	-1E+10	1	-1E+10	1	-1E+10	1	-1E+10	1	-1E+10	1
4902554	69	C	01/03/2023	06:07	-132.996	48.299	0	324.00	0	4.5560	0	33.8520	0	26.817	0	321.021	0	-1e10	8	-1e10	8	-1E+10	1	-1E+10	1	-1E+10	1	-1E+10	1	-1E+10	1	-1E+10	1
4902554	69	C	01/03/2023	06:07	-132.996	48.299	0	325.00	0	4.5520	0	33.8540	0	26.819	0	322.011	0	-1e10	8	-1e10	8	-1E+10	1	-1E+10	1	-1E+10	1	-1E+10	1	-1E+10	1	-1E+10	1
4902554	69	C	01/03/2023	06:07	-132.996	48.299	0	326.10	0	4.5390	0	33.8580	0	26.824	0	323.100	0	-1e10	8	-1e10	8	-1E+10	1	-1E+10	1	-1E+10	1	-1E+10	1	-1E+10	1	-1E+10	1
4902554	69	C	01/03/2023	06:07	-132.996	48.299	0	327.10	0	4.5220	0	33.8600	0	26.827	0	324.090	0	-1e10	8	-1e10	8	-1E+10	1	-1E+10	1	-1E+10	1	-1E+10	1	-1E+10	1	-1E+10	1
4902554	69	C	01/03/2023	06:07	-132.996	48.299	0	328.20	0	4.5150	0	33.8610	0	26.829	0	325.179	0	-1e10	8	-1e10	8	-1E+10	1	-1E+10	1	-1E+10	1	-1E+10	1	-1E+10	1	-1E+10	1
4902554	69	C	01/03/2023	06:07	-132.996	48.299	0	329.30	0	4.4920	0	33.8620	0	26.832	0	326.268	0	-1e10	8	-1e10	8	-1E+10	1	-1E+10	1	-1E+10	1	-1E+10	1	-1E+10	1	-1E+10	1
4902554	69	C	01/03/2023	06:07	-132.996	48.299	0	330.30	0	4.4830	0	33.8630	0	26.834	0	327.258	0	-1e10	8	-1e10	8	-1E+10	1	-1E+10	1	-1E+10	1	-1E+10	1	-1E+10	1	-1E+10	1
4902554	69	C	01/03/2023	06:07	-132.996	48.299	0	331.30	0	4.4800	0	33.8620	0	26.833	0	328.248	0	-1e10	8	-1e10	8	-1E+10	1	-1E+10	1	-1E+10	1	-1E+10	1	-1E+10	1	-1E+10	1
4902554	69	C	01/03/2023	06:07	-132.996	48.299	0	332.40	0	4.4680	0	33.8630	0	26.835	0	329.337	0	-1e10	8	-1e10	8	-1E+10	1	-1E+10	1	-1E+10	1	-1E+10	1	-1E+10	1	-1E+10	1
4902554	69	C	01/03/2023	06:07	-132.996	48.299	0	333.40	0	4.4540	0	33.8620	0	26.836	0	330.327	0	-1e10	8	-1e10	8	-1E+10	1	-1E+10	1	-1E+10	1	-1E+10	1	-1E+10	1	-1E+10	1
4902554	69	C	01/03/2023	06:07	-132.996	48.299	0	334.50	0	4.4390	0	33.8660	0	26.841	0	331.416	0	-1e10	8	-1e10	8	-1E+10	1	-1E+10	1	-1E+10	1	-1E+10	1	-1E+10	1	-1E+10	1
4902554	69	C	01/03/2023	06:07	-132.996	48.299	0	335.50	0	4.4130	0	33.8630	0	26.841	0	332.406	0	-1e10	8	-1e10	8	-1E+10	1	-1E+10	1	-1E+10	1	-1E+10	1	-1E+10	1	-1E+10	1
4902554	69	C	01/03/2023	06:07	-132.996	48.299	0	336.50	0	4.4080	0	33.8640	0	26.843	0	333.396	0	-1e10	8	-1e10	8	-1E+10	1	-1E+10	1	-1E+10	1	-1E+10	1	-1E+10	1	-1E+10	1
4902554	69	C	01/03/2023	06:07	-132.996	48.299	0	337.50	0	4.4060	0	33.8640	0	26.843	0	334.386	0	-1e10	8	-1e10	8	-1E+10	1	-1E+10	1	-1E+10	1	-1E+10	1	-1E+10	1	-1E+10	1
4902554	69	C	01/03/2023	06:07	-132.996	48.299	0	338.60	0	4.4030	0	33.8640	0	26.843	0	335.475	0	-1e10	8	-1e10	8	-1E+10	1	-1E+10	1	-1E+10	1	-1E+10	1	-1E+10	1	-1E+10	1
4902554	69	C	01/03/2023	06:07	-132.996	48.299	0	339.60	0	4.3980	0	33.8640	0	26.844	0	336.465	0	-1e10	8	-1e10	8	-1E+10	1	-1E+10	1	-1E+10	1	-1E+10	1	-1E+10	1	-1E+10	1
4902554	69	C	01/03/2023	06:07	-132.996	48.299	0	340.70	0	4.3920	0	33.8650	0	26.845	0	337.554	0	-1e10	8	-1e10	8	-1E+10	1	-1E+10	1	-1E+10	1	-1E+10	1	-1E+10	1	-1E+10	1
4902554	69	C	01/03/2023	06:07	-132.996	48.299	0	341.70	0	4.3720	0	33.8710	0	26.852	0	338.543	0	-1e10	8	-1e10	8	-1E+10	1	-1E+10	1	-1E+10	1	-1E+10	1	-1E+10	1	-1E+10	1
4902554	69	C	01/03/2023	06:07	-132.996	48.299	0	342.70	0	4.3630	0	33.8740	0	26.855	0	339.533	0	-1e10	8	-1e10	8	-1E+10	1	-1E+10	1	-1E+10	1	-1E+10	1	-1E+10	1	-1E+10	1
4902554	69	C	01/03/2023	06:07	-132.996	48.299	0	343.80	0	4.3570	0	33.8750	0	26.857	0	340.622	0	-1e10	8	-1e10	8	-1E+10	1	-1E+10	1	-1E+10	1	-1E+10	1	-1E+10	1	-1E+10	1
4902554	69	C	01/03/2023	06:07	-132.996	48.299	0	344.80	0	4.3530	0	33.8760	0	26.858	0	341.612	0	-1e10	8	-1e10	8	-1E+10	1	-1E+10	1	-1E+10	1	-1E+10	1	-1E+10	1	-1E+10	1
4902554	69	C	01/03/2023	06:07	-132.996	48.299	0	345.90	0	4.3440	0	33.8790	0	26.861	0	342.701	0	-1e10	8	-1e10	8	-1E+10	1	-1E+10	1	-1E+10	1	-1E+10	1	-1E+10	1	-1E+10	1
4902554	69	C	01/03/2023	06:07	-132.996	48.299	0	346.90	0	4.3410	0	33.8790	0	26.862	0	343.691	0	-1e10	8	-1e10	8	-1E+10	1	-1E+10	1	-1E+10	1	-1E+10	1	-1E+10	1	-1E+10	1
4902554	69	C	01/03/2023	06:07	-132.996	48.299	0	348.00	0	4.3370	0	33.8810	0	26.864	0	344.780	0	-1e10	8	-1e10	8	-1E+10	1	-1E+10	1	-1E+10	1	-1E+10	1	-1E+10	1	-1E+10	1
4902554	69	C	01/03/2023	06:07	-132.996	48.299	0	349.00	0	4.3370	0	33.8810	0	26.864	0	345.770	0	-1e10	8	-1e10	8	-1E+10	1	-1E+10	1	-1E+10	1	-1E+10	1	-1E+10	1	-1E+10	1
4902554	69	C	01/03/2023	06:07	-132.996	48.299	0	350.10	0	4.3360	0	33.8810	0	26.864	0	346.859	0	-1e10	8	-1e10	8	-1E+10	1	-1E+10	1	-1E+10	1	-1E+10	1	-1E+10	1	-1E+10	1
4902554	69	C	01/03/2023	06:07	-132.996	48.299	0	353.20	0	4.3330	0	33.8830	0	26.866	0	349.928	0	-1e10	8	-1e10	8	-1E+10	1	-1E+10	1	-1E+10	1	-1E+10	1	-1E+10	1	-1E+10	1
4902554	69	C	01/03/2023	06:07	-132.996	48.299	0	358.30	0	4.3210	0	33.8880	0	26.871	0	354.976	0	-1e10	8	-1e10	8	-1E+10	1	-1E+10	1	-1E+10	1	-1E+10	1	-1E+10	1	-1E+10	1
4902554	69	C	01/03/2023	06:07	-132.996	48.299	0	363.00	0	4.3100	0	33.8930	0	26.876	0	359.628	0	-1e10	8	-1e10	8	-1E+10	1	-1E+10	1	-1E+10	1	-1E+10	1	-1E+10	1	-1E+10	1
4902554	69	C	01/03/2023	06:07	-132.996	48.299	0	367.70	0	4.2970	0	33.8990	0	26.882	0	364.280	0	-1e10	8	-1e10	8	-1E+10	1	-1E+10	1	-1E+10	1	-1E+10	1	-1E+10	1	-1E+10	1
4902554	69	C	01/03/2023	06:07	-132.996	48.299	0	372.80	0	4.2830	0	33.9080	0	26.891	0	369.328	0	-1e10	8	-1e10	8	-1E+10	1	-1E+10	1	-1E+10	1	-1E+10	1	-1E+10	1	-1E+10	1
4902554	69	C	01/03/2023	06:07	-132.996	48.299	0	378.00	0	4.2730	0	33.9160	0	26.899	0	374.475	0	-1e10	8	-1e10	8	-1E+10	1	-1E+10	1	-1E+10	1	-1E+10	1	-1E+10	1	-1E+10	1
4902554	69	C	01/03/2023	06:07	-132.996	48.299	0	383.30	0	4.2700	0	33.9190	0	26.901	0	379.721	0	-1e10	8	-1e10	8	-1E+10	1	-1E+10	1	-1E+10	1	-1E+10	1	-1E+10	1	-1E+10	1
4902554	69	C	01/03/2023	06:07	-132.996	48.299	0	388.00	0	4.2680	0	33.9210	0	26.903	0	384.373	0	-1e10	8	-1e10	8	-1E+10	1	-1E+10	1	-1E+10	1	-1E+10	1	-1E+10	1	-1E+10	1
4902554	69	C	01/03/2023	06:07	-132.996	48.299	0	393.10	0	4.2640	0	33.9250	0	26.907	0	389.420	0	-1e10	8	-1e10	8	-1E+10	1	-1E+10	1	-1E+10	1	-1E+10	1	-1E+10	1	-1E+10	1
4902554	69	C	01/03/2023	06:07	-132.996	48.299	0	398.10	0	4.2600	0	33.9310	0	26.912	0	394.369	0	-1e10	8	-1e10	8	-1E+10	1	-1E+10	1	-1E+10	1	-1E+10	1	-1E+10	1	-1E+10	1
4902554	69	C	01/03/2023	06:07	-132.996	48.299	0	402.70	0	4.2580	0	33.9330	0	26.914	0	398.921	0	-1e10	8	-1e10	8	-1E+10	1	-1E+10	1	-1E+10	1	-1E+10	1	-1E+10	1	-1E+10	1
4902554	69	C	01/03/2023	06:07	-132.996	48.299	0	407.80	0	4.2490	0	33.9430	0	26.923	0	403.968	0	-1e10	8	-1e10	8	-1E+10	1	-1E+10	1	-1E+10	1	-1E+10	1	-1E+10	1	-1E+10	1
4902554	69	C	01/03/2023	06:07	-132.996	48.299	0	413.10	0	4.2390	0	33.9510	0	26.930	0	409.213	0	-1e10	8	-1e10	8	-1E+10	1	-1E+10	1	-1E+10	1	-1E+10	1	-1E+10	1	-1E+10	1
4902554	69	C	01/03/2023	06:07	-132.996	48.299	0	418.10	0	4.2350	0	33.9540	0	26.933	0	414.161	0	-1e10	8	-1e10	8	-1E+10	1	-1E+10	1	-1E+10	1	-1E+10	1	-1E+10	1	-1E+10	1
4902554	69	C	01/03/2023	06:07	-132.996	48.299	0	423.20	0	4.2320	0	33.9570	0	26.936	0	419.208	0	-1e10	8	-1e10	8	-1E+10	1	-1E+10	1	-1E+10	1	-1E+10	1	-1E+10	1	-1E+10	1
4902554	69	C	01/03/2023	06:07	-132.996	48.299	0	427.90	0	4.2220	0	33.9630	0	26.942	0	423.859	0	-1e10	8	-1e10	8	-1E+10	1	-1E+10	1	-1E+10	1	-1E+10	1	-1E+10	1	-1E+10	1
4902554	69	C	01/03/2023	06:07	-132.996	48.299	0	432.70	0	4.2080	0	33.9710	0	26.949	0	428.609	0	-1e10	8	-1e10	8	-1E+10	1	-1E+10	1	-1E+10	1	-1E+10	1	-1E+10	1	-1E+10	1
4902554	69	C	01/03/2023	06:07	-132.996	48.299	0	438.10	0	4.1950	0	33.9840	0	26.961	0	433.952	0	-1e10	8	-1e10	8	-1E+10	1	-1E+10	1	-1E+10	1	-1E+10	1	-1E+10	1	-1E+10	1
4902554	69	C	01/03/2023	06:07	-132.996	48.299	0	443.10	0	4.1880	0	33.9900	0	26.967	0	438.899	0	-1e10	8	-1e10	8	-1E+10	1	-1E+10	1	-1E+10	1	-1E+10	1	-1E+10	1	-1E+10	1
4902554	69	C	01/03/2023	06:07	-132.996	48.299	0	447.70	0	4.1840	0	33.9930	0	26.970	0	443.451	0	-1e10	8	-1e10	8	-1E+10	1	-1E+10	1	-1E+10	1	-1E+10	1	-1E+10	1	-1E+10	1
4902554	69	C	01/03/2023	06:07	-132.996	48.299	0	452.90	0	4.1700	0	34.0020	0	26.978	0	448.596	0	-1e10	8	-1e10	8	-1E+10	1	-1E+10	1	-1E+10	1	-1E+10	1	-1E+10	1	-1E+10	1
4902554	69	C	01/03/2023	06:07	-132.996	48.299	0	458.10	0	4.1620	0	34.0070	0	26.983	0	453.741	0	-1e10	8	-1e10	8	-1E+10	1	-1E+10	1	-1E+10	1	-1E+10	1	-1E+10	1	-1E+10	1
4902554	69	C	01/03/2023	06:07	-132.996	48.299	0	463.00	0	4.1520	0	34.0140	0	26.990	0	458.589	0	-1e10	8	-1e10	8	-1E+10	1	-1E+10	1	-1E+10	1	-1E+10	1	-1E+10	1	-1E+10	1
4902554	69	C	01/03/2023	06:07	-132.996	48.299	0	468.00	0	4.1470	0	34.0210	0	26.996	0	463.536	0	-1e10	8	-1e10	8	-1E+10	1	-1E+10	1	-1E+10	1	-1E+10	1	-1E+10	1	-1E+10	1
4902554	69	C	01/03/2023	06:07	-132.996	48.299	0	473.00	0	4.1420	0	34.0260	0	27.000	0	468.482	0	-1e10	8	-1e10	8	-1E+10	1	-1E+10	1	-1E+10	1	-1E+10	1	-1E+10	1	-1E+10	1
4902554	69	C	01/03/2023	06:07	-132.996	48.299	0	478.10	0	4.1230	0	34.0320	0	27.007	0	473.528	0	-1e10	8	-1e10	8	-1E+10	1	-1E+10	1	-1E+10	1	-1E+10	1	-1E+10	1	-1E+10	1
4902554	69	C	01/03/2023	06:07	-132.996	48.299	0	483.20	0	4.1140	0	34.0410	0	27.015	0	478.573	0	-1e10	8	-1e10	8	-1E+10	1	-1E+10	1	-1E+10	1	-1E+10	1	-1E+10	1	-1E+10	1
4902554	69	C	01/03/2023	06:07	-132.996	48.299	0	487.90	0	4.1070	0	34.0480	0	27.022	0	483.223	0	-1e10	8	-1e10	8	-1E+10	1	-1E+10	1	-1E+10	1	-1E+10	1	-1E+10	1	-1E+10	1
4902554	69	C	01/03/2023	06:07	-132.996	48.299	0	492.50	0	4.0910	0	34.0570	0	27.030	0	487.773	0	-1e10	8	-1e10	8	-1E+10	1	-1E+10	1	-1E+10	1	-1E+10	1	-1E+10	1	-1E+10	1
4902554	69	C	01/03/2023	06:07	-132.996	48.299	0	497.80	0	4.0830	0	34.0610	0	27.034	0	493.016	0	-1e10	8	-1e10	8	-1E+10	1	-1E+10	1	-1E+10	1	-1E+10	1	-1E+10	1	-1E+10	1
4902554	69	C	01/03/2023	06:07	-132.996	48.299	0	503.00	0	4.0790	0	34.0640	0	27.037	0	498.160	0	-1e10	8	-1e10	8	-1E+10	1	-1E+10	1	-1E+10	1	-1E+10	1	-1E+10	1	-1E+10	1
4902554	69	C	01/03/2023	06:07	-132.996	48.299	0	507.80	0	4.0790	0	34.0660	0	27.039	0	502.908	0	-1e10	8	-1e10	8	-1E+10	1	-1E+10	1	-1E+10	1	-1E+10	1	-1E+10	1	-1E+10	1
4902554	69	C	01/03/2023	06:07	-132.996	48.299	0	512.60	0	4.0760	0	34.0680	0	27.041	0	507.656	0	-1e10	8	-1e10	8	-1E+10	1	-1E+10	1	-1E+10	1	-1E+10	1	-1E+10	1	-1E+10	1
4902554	69	C	01/03/2023	06:07	-132.996	48.299	0	518.00	0	4.0720	0	34.0730	0	27.045	0	512.997	0	-1e10	8	-1e10	8	-1E+10	1	-1E+10	1	-1E+10	1	-1E+10	1	-1E+10	1	-1E+10	1
4902554	69	C	01/03/2023	06:07	-132.996	48.299	0	522.90	0	4.0670	0	34.0750	0	27.047	0	517.844	0	-1e10	8	-1e10	8	-1E+10	1	-1E+10	1	-1E+10	1	-1E+10	1	-1E+10	1	-1E+10	1
4902554	69	C	01/03/2023	06:07	-132.996	48.299	0	527.80	0	4.0540	0	34.0810	0	27.054	0	522.690	0	-1e10	8	-1e10	8	-1E+10	1	-1E+10	1	-1E+10	1	-1E+10	1	-1E+10	1	-1E+10	1
4902554	69	C	01/03/2023	06:07	-132.996	48.299	0	533.20	0	4.0290	0	34.0890	0	27.063	0	528.031	0	-1e10	8	-1e10	8	-1E+10	1	-1E+10	1	-1E+10	1	-1E+10	1	-1E+10	1	-1E+10	1
4902554	69	C	01/03/2023	06:07	-132.996	48.299	0	537.90	0	4.0180	0	34.0940	0	27.068	0	532.679	0	-1e10	8	-1e10	8	-1E+10	1	-1E+10	1	-1E+10	1	-1E+10	1	-1E+10	1	-1E+10	1
4902554	69	C	01/03/2023	06:07	-132.996	48.299	0	543.00	0	4.0100	0	34.0990	0	27.072	0	537.723	0	-1e10	8	-1e10	8	-1E+10	1	-1E+10	1	-1E+10	1	-1E+10	1	-1E+10	1	-1E+10	1
4902554	69	C	01/03/2023	06:07	-132.996	48.299	0	548.00	0	4.0030	0	34.1020	0	27.076	0	542.668	0	-1e10	8	-1e10	8	-1E+10	1	-1E+10	1	-1E+10	1	-1E+10	1	-1E+10	1	-1E+10	1
4902554	69	C	01/03/2023	06:07	-132.996	48.299	0	552.90	0	3.9860	0	34.1070	0	27.081	0	547.514	0	-1e10	8	-1e10	8	-1E+10	1	-1E+10	1	-1E+10	1	-1E+10	1	-1E+10	1	-1E+10	1
4902554	69	C	01/03/2023	06:07	-132.996	48.299	0	557.90	0	3.9750	0	34.1110	0	27.086	0	552.459	0	-1e10	8	-1e10	8	-1E+10	1	-1E+10	1	-1E+10	1	-1E+10	1	-1E+10	1	-1E+10	1
4902554	69	C	01/03/2023	06:07	-132.996	48.299	0	562.90	0	3.9670	0	34.1150	0	27.090	0	557.403	0	-1e10	8	-1e10	8	-1E+10	1	-1E+10	1	-1E+10	1	-1E+10	1	-1E+10	1	-1E+10	1
4902554	69	C	01/03/2023	06:07	-132.996	48.299	0	567.80	0	3.9610	0	34.1180	0	27.093	0	562.249	0	-1e10	8	-1e10	8	-1E+10	1	-1E+10	1	-1E+10	1	-1E+10	1	-1E+10	1	-1E+10	1
4902554	69	C	01/03/2023	06:07	-132.996	48.299	0	572.90	0	3.9590	0	34.1190	0	27.094	0	567.292	0	-1e10	8	-1e10	8	-1E+10	1	-1E+10	1	-1E+10	1	-1E+10	1	-1E+10	1	-1E+10	1
4902554	69	C	01/03/2023	06:07	-132.996	48.299	0	577.90	0	3.9580	0	34.1200	0	27.095	0	572.236	0	-1e10	8	-1e10	8	-1E+10	1	-1E+10	1	-1E+10	1	-1E+10	1	-1E+10	1	-1E+10	1
4902554	69	C	01/03/2023	06:07	-132.996	48.299	0	583.00	0	3.9530	0	34.1220	0	27.097	0	577.279	0	-1e10	8	-1e10	8	-1E+10	1	-1E+10	1	-1E+10	1	-1E+10	1	-1E+10	1	-1E+10	1
4902554	69	C	01/03/2023	06:07	-132.996	48.299	0	588.10	0	3.9450	0	34.1250	0	27.100	0	582.322	0	-1e10	8	-1e10	8	-1E+10	1	-1E+10	1	-1E+10	1	-1E+10	1	-1E+10	1	-1E+10	1
4902554	69	C	01/03/2023	06:07	-132.996	48.299	0	593.20	0	3.9340	0	34.1300	0	27.105	0	587.365	0	-1e10	8	-1e10	8	-1E+10	1	-1E+10	1	-1E+10	1	-1E+10	1	-1E+10	1	-1E+10	1
4902554	69	C	01/03/2023	06:07	-132.996	48.299	0	598.00	0	3.9210	0	34.1350	0	27.111	0	592.110	0	-1e10	8	-1e10	8	-1E+10	1	-1E+10	1	-1E+10	1	-1E+10	1	-1E+10	1	-1E+10	1
4902554	69	C	01/03/2023	06:07	-132.996	48.299	0	602.70	0	3.9130	0	34.1400	0	27.115	0	596.757	0	-1e10	8	-1e10	8	-1E+10	1	-1E+10	1	-1E+10	1	-1E+10	1	-1E+10	1	-1E+10	1
4902554	69	C	01/03/2023	06:07	-132.996	48.299	0	608.00	0	3.8950	0	34.1480	0	27.124	0	601.998	0	-1e10	8	-1e10	8	-1E+10	1	-1E+10	1	-1E+10	1	-1E+10	1	-1E+10	1	-1E+10	1
4902554	69	C	01/03/2023	06:07	-132.996	48.299	0	612.80	0	3.8860	0	34.1510	0	27.127	0	606.743	0	-1e10	8	-1e10	8	-1E+10	1	-1E+10	1	-1E+10	1	-1E+10	1	-1E+10	1	-1E+10	1
4902554	69	C	01/03/2023	06:07	-132.996	48.299	0	617.70	0	3.8710	0	34.1570	0	27.133	0	611.588	0	-1e10	8	-1e10	8	-1E+10	1	-1E+10	1	-1E+10	1	-1E+10	1	-1E+10	1	-1E+10	1
4902554	69	C	01/03/2023	06:07	-132.996	48.299	0	623.10	0	3.8540	0	34.1640	0	27.141	0	616.926	0	-1e10	8	-1e10	8	-1E+10	1	-1E+10	1	-1E+10	1	-1E+10	1	-1E+10	1	-1E+10	1
4902554	69	C	01/03/2023	06:07	-132.996	48.299	0	628.10	0	3.8420	0	34.1690	0	27.146	0	621.869	0	-1e10	8	-1e10	8	-1E+10	1	-1E+10	1	-1E+10	1	-1E+10	1	-1E+10	1	-1E+10	1
4902554	69	C	01/03/2023	06:07	-132.996	48.299	0	632.80	0	3.8240	0	34.1750	0	27.152	0	626.515	0	-1e10	8	-1e10	8	-1E+10	1	-1E+10	1	-1E+10	1	-1E+10	1	-1E+10	1	-1E+10	1
4902554	69	C	01/03/2023	06:07	-132.996	48.299	0	637.60	0	3.8120	0	34.1790	0	27.157	0	631.260	0	-1e10	8	-1e10	8	-1E+10	1	-1E+10	1	-1E+10	1	-1E+10	1	-1E+10	1	-1E+10	1
4902554	69	C	01/03/2023	06:07	-132.996	48.299	0	642.90	0	3.8010	0	34.1820	0	27.160	0	636.500	0	-1e10	8	-1e10	8	-1E+10	1	-1E+10	1	-1E+10	1	-1E+10	1	-1E+10	1	-1E+10	1
4902554	69	C	01/03/2023	06:07	-132.996	48.299	0	648.30	0	3.7930	0	34.1850	0	27.164	0	641.838	0	-1e10	8	-1e10	8	-1E+10	1	-1E+10	1	-1E+10	1	-1E+10	1	-1E+10	1	-1E+10	1
4902554	69	C	01/03/2023	06:07	-132.996	48.299	0	653.30	0	3.7770	0	34.1900	0	27.169	0	646.780	0	-1e10	8	-1e10	8	-1E+10	1	-1E+10	1	-1E+10	1	-1E+10	1	-1E+10	1	-1E+10	1
4902554	69	C	01/03/2023	06:07	-132.996	48.299	0	657.90	0	3.7660	0	34.1930	0	27.173	0	651.327	0	-1e10	8	-1e10	8	-1E+10	1	-1E+10	1	-1E+10	1	-1E+10	1	-1E+10	1	-1E+10	1
4902554	69	C	01/03/2023	06:07	-132.996	48.299	0	662.50	0	3.7620	0	34.1940	0	27.174	0	655.874	0	-1e10	8	-1e10	8	-1E+10	1	-1E+10	1	-1E+10	1	-1E+10	1	-1E+10	1	-1E+10	1
4902554	69	C	01/03/2023	06:07	-132.996	48.299	0	667.60	0	3.7390	0	34.2010	0	27.182	0	660.915	0	-1e10	8	-1e10	8	-1E+10	1	-1E+10	1	-1E+10	1	-1E+10	1	-1E+10	1	-1E+10	1
4902554	69	C	01/03/2023	06:07	-132.996	48.299	0	672.90	0	3.7080	0	34.2100	0	27.192	0	666.153	0	-1e10	8	-1e10	8	-1E+10	1	-1E+10	1	-1E+10	1	-1E+10	1	-1E+10	1	-1E+10	1
4902554	69	C	01/03/2023	06:07	-132.996	48.299	0	678.10	0	3.7030	0	34.2110	0	27.193	0	671.293	0	-1e10	8	-1e10	8	-1E+10	1	-1E+10	1	-1E+10	1	-1E+10	1	-1E+10	1	-1E+10	1
4902554	69	C	01/03/2023	06:07	-132.996	48.299	0	683.10	0	3.7010	0	34.2120	0	27.194	0	676.234	0	-1e10	8	-1e10	8	-1E+10	1	-1E+10	1	-1E+10	1	-1E+10	1	-1E+10	1	-1E+10	1
4902554	69	C	01/03/2023	06:07	-132.996	48.299	0	688.30	0	3.6960	0	34.2130	0	27.196	0	681.374	0	-1e10	8	-1e10	8	-1E+10	1	-1E+10	1	-1E+10	1	-1E+10	1	-1E+10	1	-1E+10	1
4902554	69	C	01/03/2023	06:07	-132.996	48.299	0	693.30	0	3.6920	0	34.2140	0	27.197	0	686.315	0	-1e10	8	-1e10	8	-1E+10	1	-1E+10	1	-1E+10	1	-1E+10	1	-1E+10	1	-1E+10	1
4902554	69	C	01/03/2023	06:07	-132.996	48.299	0	698.30	0	3.6790	0	34.2170	0	27.201	0	691.256	0	-1e10	8	-1e10	8	-1E+10	1	-1E+10	1	-1E+10	1	-1E+10	1	-1E+10	1	-1E+10	1
4902554	69	C	01/03/2023	06:07	-132.996	48.299	0	703.30	0	3.6620	0	34.2220	0	27.206	0	696.198	0	-1e10	8	-1e10	8	-1E+10	1	-1E+10	1	-1E+10	1	-1E+10	1	-1E+10	1	-1E+10	1
4902554	69	C	01/03/2023	06:07	-132.996	48.299	0	708.40	0	3.6540	0	34.2250	0	27.209	0	701.237	0	-1e10	8	-1e10	8	-1E+10	1	-1E+10	1	-1E+10	1	-1E+10	1	-1E+10	1	-1E+10	1
4902554	69	C	01/03/2023	06:07	-132.996	48.299	0	712.90	0	3.6450	0	34.2270	0	27.212	0	705.684	0	-1e10	8	-1e10	8	-1E+10	1	-1E+10	1	-1E+10	1	-1E+10	1	-1E+10	1	-1E+10	1
4902554	69	C	01/03/2023	06:07	-132.996	48.299	0	717.50	0	3.6370	0	34.2290	0	27.214	0	710.230	0	-1e10	8	-1e10	8	-1E+10	1	-1E+10	1	-1E+10	1	-1E+10	1	-1E+10	1	-1E+10	1
4902554	69	C	01/03/2023	06:07	-132.996	48.299	0	722.70	0	3.6340	0	34.2300	0	27.216	0	715.368	0	-1e10	8	-1e10	8	-1E+10	1	-1E+10	1	-1E+10	1	-1E+10	1	-1E+10	1	-1E+10	1
4902554	69	C	01/03/2023	06:07	-132.996	48.299	0	727.90	0	3.6330	0	34.2300	0	27.216	0	720.507	0	-1e10	8	-1e10	8	-1E+10	1	-1E+10	1	-1E+10	1	-1E+10	1	-1E+10	1	-1E+10	1
4902554	69	C	01/03/2023	06:07	-132.996	48.299	0	733.00	0	3.6270	0	34.2320	0	27.218	0	725.546	0	-1e10	8	-1e10	8	-1E+10	1	-1E+10	1	-1E+10	1	-1E+10	1	-1E+10	1	-1E+10	1
4902554	69	C	01/03/2023	06:07	-132.996	48.299	0	738.00	0	3.6050	0	34.2380	0	27.225	0	730.486	0	-1e10	8	-1e10	8	-1E+10	1	-1E+10	1	-1E+10	1	-1E+10	1	-1E+10	1	-1E+10	1
4902554	69	C	01/03/2023	06:07	-132.996	48.299	0	743.00	0	3.5810	0	34.2450	0	27.233	0	735.427	0	-1e10	8	-1e10	8	-1E+10	1	-1E+10	1	-1E+10	1	-1E+10	1	-1E+10	1	-1E+10	1
4902554	69	C	01/03/2023	06:07	-132.996	48.299	0	747.80	0	3.5730	0	34.2480	0	27.236	0	740.169	0	-1e10	8	-1e10	8	-1E+10	1	-1E+10	1	-1E+10	1	-1E+10	1	-1E+10	1	-1E+10	1
4902554	69	C	01/03/2023	06:07	-132.996	48.299	0	752.90	0	3.5660	0	34.2490	0	27.237	0	745.208	0	-1e10	8	-1e10	8	-1E+10	1	-1E+10	1	-1E+10	1	-1E+10	1	-1E+10	1	-1E+10	1
4902554	69	C	01/03/2023	06:07	-132.996	48.299	0	758.10	0	3.5530	0	34.2520	0	27.241	0	750.346	0	-1e10	8	-1e10	8	-1E+10	1	-1E+10	1	-1E+10	1	-1E+10	1	-1E+10	1	-1E+10	1
4902554	69	C	01/03/2023	06:07	-132.996	48.299	0	763.00	0	3.5350	0	34.2580	0	27.248	0	755.187	0	-1e10	8	-1e10	8	-1E+10	1	-1E+10	1	-1E+10	1	-1E+10	1	-1E+10	1	-1E+10	1
4902554	69	C	01/03/2023	06:07	-132.996	48.299	0	767.90	0	3.5170	0	34.2620	0	27.253	0	760.028	0	-1e10	8	-1e10	8	-1E+10	1	-1E+10	1	-1E+10	1	-1E+10	1	-1E+10	1	-1E+10	1
4902554	69	C	01/03/2023	06:07	-132.996	48.299	0	772.90	0	3.4980	0	34.2660	0	27.258	0	764.967	0	-1e10	8	-1e10	8	-1E+10	1	-1E+10	1	-1E+10	1	-1E+10	1	-1E+10	1	-1E+10	1
4902554	69	C	01/03/2023	06:07	-132.996	48.299	0	778.00	0	3.4820	0	34.2700	0	27.262	0	770.005	0	-1e10	8	-1e10	8	-1E+10	1	-1E+10	1	-1E+10	1	-1E+10	1	-1E+10	1	-1E+10	1
4902554	69	C	01/03/2023	06:07	-132.996	48.299	0	783.10	0	3.4660	0	34.2730	0	27.266	0	775.043	0	-1e10	8	-1e10	8	-1E+10	1	-1E+10	1	-1E+10	1	-1E+10	1	-1E+10	1	-1E+10	1
4902554	69	C	01/03/2023	06:07	-132.996	48.299	0	788.00	0	3.4380	0	34.2790	0	27.274	0	779.884	0	-1e10	8	-1e10	8	-1E+10	1	-1E+10	1	-1E+10	1	-1E+10	1	-1E+10	1	-1E+10	1
4902554	69	C	01/03/2023	06:07	-132.996	48.299	0	792.90	0	3.4310	0	34.2810	0	27.276	0	784.724	0	-1e10	8	-1e10	8	-1E+10	1	-1E+10	1	-1E+10	1	-1E+10	1	-1E+10	1	-1E+10	1
4902554	69	C	01/03/2023	06:07	-132.996	48.299	0	797.90	0	3.4270	0	34.2820	0	27.277	0	789.663	0	-1e10	8	-1e10	8	-1E+10	1	-1E+10	1	-1E+10	1	-1E+10	1	-1E+10	1	-1E+10	1
4902554	69	C	01/03/2023	06:07	-132.996	48.299	0	802.60	0	3.4160	0	34.2850	0	27.281	0	794.306	0	-1e10	8	-1e10	8	-1E+10	1	-1E+10	1	-1E+10	1	-1E+10	1	-1E+10	1	-1E+10	1
4902554	69	C	01/03/2023	06:07	-132.996	48.299	0	807.80	0	3.4030	0	34.2880	0	27.285	0	799.442	0	-1e10	8	-1e10	8	-1E+10	1	-1E+10	1	-1E+10	1	-1E+10	1	-1E+10	1	-1E+10	1
4902554	69	C	01/03/2023	06:07	-132.996	48.299	0	813.00	0	3.3930	0	34.2900	0	27.287	0	804.578	0	-1e10	8	-1e10	8	-1E+10	1	-1E+10	1	-1E+10	1	-1E+10	1	-1E+10	1	-1E+10	1
4902554	69	C	01/03/2023	06:07	-132.996	48.299	0	817.80	0	3.3850	0	34.2920	0	27.289	0	809.319	0	-1e10	8	-1e10	8	-1E+10	1	-1E+10	1	-1E+10	1	-1E+10	1	-1E+10	1	-1E+10	1
4902554	69	C	01/03/2023	06:07	-132.996	48.299	0	822.70	0	3.3760	0	34.2950	0	27.293	0	814.159	0	-1e10	8	-1e10	8	-1E+10	1	-1E+10	1	-1E+10	1	-1E+10	1	-1E+10	1	-1E+10	1
4902554	69	C	01/03/2023	06:07	-132.996	48.299	0	827.70	0	3.3570	0	34.2980	0	27.297	0	819.097	0	-1e10	8	-1e10	8	-1E+10	1	-1E+10	1	-1E+10	1	-1E+10	1	-1E+10	1	-1E+10	1
4902554	69	C	01/03/2023	06:07	-132.996	48.299	0	832.70	0	3.3450	0	34.3000	0	27.300	0	824.035	0	-1e10	8	-1e10	8	-1E+10	1	-1E+10	1	-1E+10	1	-1E+10	1	-1E+10	1	-1E+10	1
4902554	69	C	01/03/2023	06:07	-132.996	48.299	0	837.80	0	3.3390	0	34.3020	0	27.302	0	829.072	0	-1e10	8	-1e10	8	-1E+10	1	-1E+10	1	-1E+10	1	-1E+10	1	-1E+10	1	-1E+10	1
4902554	69	C	01/03/2023	06:07	-132.996	48.299	0	842.90	0	3.3330	0	34.3030	0	27.303	0	834.109	0	-1e10	8	-1e10	8	-1E+10	1	-1E+10	1	-1E+10	1	-1E+10	1	-1E+10	1	-1E+10	1
4902554	69	C	01/03/2023	06:07	-132.996	48.299	0	847.90	0	3.3310	0	34.3040	0	27.304	0	839.047	0	-1e10	8	-1e10	8	-1E+10	1	-1E+10	1	-1E+10	1	-1E+10	1	-1E+10	1	-1E+10	1
4902554	69	C	01/03/2023	06:07	-132.996	48.299	0	853.10	0	3.3240	0	34.3050	0	27.306	0	844.182	0	-1e10	8	-1e10	8	-1E+10	1	-1E+10	1	-1E+10	1	-1E+10	1	-1E+10	1	-1E+10	1
4902554	69	C	01/03/2023	06:07	-132.996	48.299	0	857.80	0	3.3170	0	34.3070	0	27.308	0	848.823	0	-1e10	8	-1e10	8	-1E+10	1	-1E+10	1	-1E+10	1	-1E+10	1	-1E+10	1	-1E+10	1
4902554	69	C	01/03/2023	06:07	-132.996	48.299	0	862.60	0	3.3070	0	34.3090	0	27.311	0	853.563	0	-1e10	8	-1e10	8	-1E+10	1	-1E+10	1	-1E+10	1	-1E+10	1	-1E+10	1	-1E+10	1
4902554	69	C	01/03/2023	06:07	-132.996	48.299	0	868.00	0	3.2910	0	34.3130	0	27.315	0	858.896	0	-1e10	8	-1e10	8	-1E+10	1	-1E+10	1	-1E+10	1	-1E+10	1	-1E+10	1	-1E+10	1
4902554	69	C	01/03/2023	06:07	-132.996	48.299	0	872.80	0	3.2860	0	34.3140	0	27.317	0	863.635	0	-1e10	8	-1e10	8	-1E+10	1	-1E+10	1	-1E+10	1	-1E+10	1	-1E+10	1	-1E+10	1
4902554	69	C	01/03/2023	06:07	-132.996	48.299	0	877.70	0	3.2690	0	34.3180	0	27.321	0	868.474	0	-1e10	8	-1e10	8	-1E+10	1	-1E+10	1	-1E+10	1	-1E+10	1	-1E+10	1	-1E+10	1
4902554	69	C	01/03/2023	06:07	-132.996	48.299	0	882.60	0	3.2520	0	34.3220	0	27.326	0	873.312	0	-1e10	8	-1e10	8	-1E+10	1	-1E+10	1	-1E+10	1	-1E+10	1	-1E+10	1	-1E+10	1
4902554	69	C	01/03/2023	06:07	-132.996	48.299	0	887.90	0	3.2500	0	34.3230	0	27.327	0	878.545	0	-1e10	8	-1e10	8	-1E+10	1	-1E+10	1	-1E+10	1	-1E+10	1	-1E+10	1	-1E+10	1
4902554	69	C	01/03/2023	06:07	-132.996	48.299	0	893.10	0	3.2490	0	34.3230	0	27.327	0	883.679	0	-1e10	8	-1e10	8	-1E+10	1	-1E+10	1	-1E+10	1	-1E+10	1	-1E+10	1	-1E+10	1
4902554	69	C	01/03/2023	06:07	-132.996	48.299	0	898.00	0	3.2440	0	34.3240	0	27.329	0	888.517	0	-1e10	8	-1e10	8	-1E+10	1	-1E+10	1	-1E+10	1	-1E+10	1	-1E+10	1	-1E+10	1
4902554	69	C	01/03/2023	06:07	-132.996	48.299	0	903.00	0	3.2340	0	34.3270	0	27.332	0	893.454	0	-1e10	8	-1e10	8	-1E+10	1	-1E+10	1	-1E+10	1	-1E+10	1	-1E+10	1	-1E+10	1
4902554	69	C	01/03/2023	06:07	-132.996	48.299	0	908.10	0	3.2210	0	34.3290	0	27.335	0	898.489	0	-1e10	8	-1e10	8	-1E+10	1	-1E+10	1	-1E+10	1	-1E+10	1	-1E+10	1	-1E+10	1
4902554	69	C	01/03/2023	06:07	-132.996	48.299	0	913.20	0	3.2130	0	34.3310	0	27.337	0	903.524	0	-1e10	8	-1e10	8	-1E+10	1	-1E+10	1	-1E+10	1	-1E+10	1	-1E+10	1	-1E+10	1
4902554	69	C	01/03/2023	06:07	-132.996	48.299	0	917.90	0	3.2100	0	34.3320	0	27.338	0	908.164	0	-1e10	8	-1e10	8	-1E+10	1	-1E+10	1	-1E+10	1	-1E+10	1	-1E+10	1	-1E+10	1
4902554	69	C	01/03/2023	06:07	-132.996	48.299	0	922.70	0	3.2010	0	34.3350	0	27.342	0	912.903	0	-1e10	8	-1e10	8	-1E+10	1	-1E+10	1	-1E+10	1	-1E+10	1	-1E+10	1	-1E+10	1
4902554	69	C	01/03/2023	06:07	-132.996	48.299	0	927.90	0	3.1940	0	34.3360	0	27.343	0	918.036	0	-1e10	8	-1e10	8	-1E+10	1	-1E+10	1	-1E+10	1	-1E+10	1	-1E+10	1	-1E+10	1
4902554	69	C	01/03/2023	06:07	-132.996	48.299	0	933.10	0	3.1920	0	34.3360	0	27.343	0	923.169	0	-1e10	8	-1e10	8	-1E+10	1	-1E+10	1	-1E+10	1	-1E+10	1	-1E+10	1	-1E+10	1
4902554	69	C	01/03/2023	06:07	-132.996	48.299	0	938.00	0	3.1830	0	34.3390	0	27.347	0	928.006	0	-1e10	8	-1e10	8	-1E+10	1	-1E+10	1	-1E+10	1	-1E+10	1	-1E+10	1	-1E+10	1
4902554	69	C	01/03/2023	06:07	-132.996	48.299	0	942.80	0	3.1800	0	34.3400	0	27.348	0	932.744	0	-1e10	8	-1e10	8	-1E+10	1	-1E+10	1	-1E+10	1	-1E+10	1	-1E+10	1	-1E+10	1
4902554	69	C	01/03/2023	06:07	-132.996	48.299	0	948.10	0	3.1750	0	34.3410	0	27.349	0	937.976	0	-1e10	8	-1e10	8	-1E+10	1	-1E+10	1	-1E+10	1	-1E+10	1	-1E+10	1	-1E+10	1
4902554	69	C	01/03/2023	06:07	-132.996	48.299	0	953.00	0	3.1720	0	34.3420	0	27.350	0	942.813	0	-1e10	8	-1e10	8	-1E+10	1	-1E+10	1	-1E+10	1	-1E+10	1	-1E+10	1	-1E+10	1
4902554	69	C	01/03/2023	06:07	-132.996	48.299	0	957.90	0	3.1620	0	34.3440	0	27.353	0	947.649	0	-1e10	8	-1e10	8	-1E+10	1	-1E+10	1	-1E+10	1	-1E+10	1	-1E+10	1	-1E+10	1
4902554	69	C	01/03/2023	06:07	-132.996	48.299	0	962.80	0	3.1470	0	34.3460	0	27.356	0	952.486	0	-1e10	8	-1e10	8	-1E+10	1	-1E+10	1	-1E+10	1	-1E+10	1	-1E+10	1	-1E+10	1
4902554	69	C	01/03/2023	06:07	-132.996	48.299	0	967.70	0	3.1390	0	34.3480	0	27.358	0	957.322	0	-1e10	8	-1e10	8	-1E+10	1	-1E+10	1	-1E+10	1	-1E+10	1	-1E+10	1	-1E+10	1
4902554	69	C	01/03/2023	06:07	-132.996	48.299	0	972.70	0	3.1320	0	34.3500	0	27.360	0	962.257	0	-1e10	8	-1e10	8	-1E+10	1	-1E+10	1	-1E+10	1	-1E+10	1	-1E+10	1	-1E+10	1
4902554	69	C	01/03/2023	06:07	-132.996	48.299	0	977.70	0	3.1230	0	34.3520	0	27.363	0	967.192	0	-1e10	8	-1e10	8	-1E+10	1	-1E+10	1	-1E+10	1	-1E+10	1	-1E+10	1	-1E+10	1
4902554	69	C	01/03/2023	06:07	-132.996	48.299	0	982.70	0	3.1180	0	34.3540	0	27.365	0	972.126	0	-1e10	8	-1e10	8	-1E+10	1	-1E+10	1	-1E+10	1	-1E+10	1	-1E+10	1	-1E+10	1
4902554	69	C	01/03/2023	06:07	-132.996	48.299	0	987.70	0	3.1130	0	34.3550	0	27.366	0	977.061	0	-1e10	8	-1e10	8	-1E+10	1	-1E+10	1	-1E+10	1	-1E+10	1	-1E+10	1	-1E+10	1
4902554	69	C	01/03/2023	06:07	-132.996	48.299	0	992.80	0	3.1040	0	34.3570	0	27.369	0	982.094	0	-1e10	8	-1e10	8	-1E+10	1	-1E+10	1	-1E+10	1	-1E+10	1	-1E+10	1	-1E+10	1
4902554	69	C	01/03/2023	06:07	-132.996	48.299	0	997.80	0	3.0950	0	34.3590	0	27.371	0	987.028	0	-1e10	8	-1e10	8	-1E+10	1	-1E+10	1	-1E+10	1	-1E+10	1	-1E+10	1	-1E+10	1
4902554	69	C	01/03/2023	06:07	-132.996	48.299	0	1005.70	0	3.0870	0	34.3620	0	27.374	0	994.824	0	-1e10	8	-1e10	8	-1E+10	1	-1E+10	1	-1E+10	1	-1E+10	1	-1E+10	1	-1E+10	1
4902554	69	C	01/03/2023	06:07	-132.996	48.299	0	1015.40	0	3.0690	0	34.3660	0	27.379	0	1004.396	0	-1e10	8	-1e10	8	-1E+10	1	-1E+10	1	-1E+10	1	-1E+10	1	-1E+10	1	-1E+10	1
4902554	69	C	01/03/2023	06:07	-132.996	48.299	0	1025.30	0	3.0500	0	34.3700	0	27.384	0	1014.165	0	-1e10	8	-1e10	8	-1E+10	1	-1E+10	1	-1E+10	1	-1E+10	1	-1E+10	1	-1E+10	1
4902554	69	C	01/03/2023	06:07	-132.996	48.299	0	1035.30	0	3.0260	0	34.3760	0	27.391	0	1024.032	0	-1e10	8	-1e10	8	-1E+10	1	-1E+10	1	-1E+10	1	-1E+10	1	-1E+10	1	-1E+10	1
4902554	69	C	01/03/2023	06:07	-132.996	48.299	0	1045.50	0	2.9950	0	34.3830	0	27.399	0	1034.096	0	-1e10	8	-1e10	8	-1E+10	1	-1E+10	1	-1E+10	1	-1E+10	1	-1E+10	1	-1E+10	1
4902554	69	C	01/03/2023	06:07	-132.996	48.299	0	1055.80	0	2.9740	0	34.3880	0	27.405	0	1044.258	0	-1e10	8	-1e10	8	-1E+10	1	-1E+10	1	-1E+10	1	-1E+10	1	-1E+10	1	-1E+10	1
4902554	69	C	01/03/2023	06:07	-132.996	48.299	0	1065.40	0	2.9660	0	34.3890	0	27.407	0	1053.729	0	-1e10	8	-1e10	8	-1E+10	1	-1E+10	1	-1E+10	1	-1E+10	1	-1E+10	1	-1E+10	1
4902554	69	C	01/03/2023	06:07	-132.996	48.299	0	1075.00	0	2.9510	0	34.3900	0	27.409	0	1063.199	0	-1e10	8	-1e10	8	-1E+10	1	-1E+10	1	-1E+10	1	-1E+10	1	-1E+10	1	-1E+10	1
4902554	69	C	01/03/2023	06:07	-132.996	48.299	0	1085.00	0	2.9440	0	34.3920	0	27.411	0	1073.064	0	-1e10	8	-1e10	8	-1E+10	1	-1E+10	1	-1E+10	1	-1E+10	1	-1E+10	1	-1E+10	1
4902554	69	C	01/03/2023	06:07	-132.996	48.299	0	1095.40	0	2.9380	0	34.3930	0	27.413	0	1083.323	0	-1e10	8	-1e10	8	-1E+10	1	-1E+10	1	-1E+10	1	-1E+10	1	-1E+10	1	-1E+10	1
4902554	69	C	01/03/2023	06:07	-132.996	48.299	0	1105.90	0	2.9240	0	34.3970	0	27.417	0	1093.680	0	-1e10	8	-1e10	8	-1E+10	1	-1E+10	1	-1E+10	1	-1E+10	1	-1E+10	1	-1E+10	1
4902554	69	C	01/03/2023	06:07	-132.996	48.299	0	1115.40	0	2.9050	0	34.4000	0	27.422	0	1103.050	0	-1e10	8	-1e10	8	-1E+10	1	-1E+10	1	-1E+10	1	-1E+10	1	-1E+10	1	-1E+10	1
4902554	69	C	01/03/2023	06:07	-132.996	48.299	0	1125.20	0	2.8920	0	34.4040	0	27.426	0	1112.715	0	-1e10	8	-1e10	8	-1E+10	1	-1E+10	1	-1E+10	1	-1E+10	1	-1E+10	1	-1E+10	1
4902554	69	C	01/03/2023	06:07	-132.996	48.299	0	1135.40	0	2.8840	0	34.4060	0	27.428	0	1122.775	0	-1e10	8	-1e10	8	-1E+10	1	-1E+10	1	-1E+10	1	-1E+10	1	-1E+10	1	-1E+10	1
4902554	69	C	01/03/2023	06:07	-132.996	48.299	0	1145.70	0	2.8750	0	34.4070	0	27.430	0	1132.932	0	-1e10	8	-1e10	8	-1E+10	1	-1E+10	1	-1E+10	1	-1E+10	1	-1E+10	1	-1E+10	1
4902554	69	C	01/03/2023	06:07	-132.996	48.299	0	1155.40	0	2.8610	0	34.4110	0	27.434	0	1142.498	0	-1e10	8	-1e10	8	-1E+10	1	-1E+10	1	-1E+10	1	-1E+10	1	-1E+10	1	-1E+10	1
4902554	69	C	01/03/2023	06:07	-132.996	48.299	0	1165.20	0	2.8380	0	34.4150	0	27.440	0	1152.162	0	-1e10	8	-1e10	8	-1E+10	1	-1E+10	1	-1E+10	1	-1E+10	1	-1E+10	1	-1E+10	1
4902554	69	C	01/03/2023	06:07	-132.996	48.299	0	1175.30	0	2.8150	0	34.4200	0	27.446	0	1162.121	0	-1e10	8	-1e10	8	-1E+10	1	-1E+10	1	-1E+10	1	-1E+10	1	-1E+10	1	-1E+10	1
4902554	69	C	01/03/2023	06:07	-132.996	48.299	0	1185.30	0	2.8040	0	34.4220	0	27.448	0	1171.981	0	-1e10	8	-1e10	8	-1E+10	1	-1E+10	1	-1E+10	1	-1E+10	1	-1E+10	1	-1E+10	1
4902554	69	C	01/03/2023	06:07	-132.996	48.299	0	1195.30	0	2.7930	0	34.4250	0	27.452	0	1181.840	0	-1e10	8	-1e10	8	-1E+10	1	-1E+10	1	-1E+10	1	-1E+10	1	-1E+10	1	-1E+10	1
4902554	69	C	01/03/2023	06:07	-132.996	48.299	0	1205.40	0	2.7800	0	34.4280	0	27.455	0	1191.798	0	-1e10	8	-1e10	8	-1E+10	1	-1E+10	1	-1E+10	1	-1E+10	1	-1E+10	1	-1E+10	1
4902554	69	C	01/03/2023	06:07	-132.996	48.299	0	1215.40	0	2.7750	0	34.4290	0	27.457	0	1201.657	0	-1e10	8	-1e10	8	-1E+10	1	-1E+10	1	-1E+10	1	-1E+10	1	-1E+10	1	-1E+10	1
4902554	69	C	01/03/2023	06:07	-132.996	48.299	0	1225.20	0	2.7650	0	34.4310	0	27.459	0	1211.318	0	-1e10	8	-1e10	8	-1E+10	1	-1E+10	1	-1E+10	1	-1E+10	1	-1E+10	1	-1E+10	1
4902554	69	C	01/03/2023	06:07	-132.996	48.299	0	1235.10	0	2.7320	0	34.4370	0	27.467	0	1221.077	0	-1e10	8	-1e10	8	-1E+10	1	-1E+10	1	-1E+10	1	-1E+10	1	-1E+10	1	-1E+10	1
4902554	69	C	01/03/2023	06:07	-132.996	48.299	0	1245.50	0	2.7150	0	34.4410	0	27.472	0	1231.328	0	-1e10	8	-1e10	8	-1E+10	1	-1E+10	1	-1E+10	1	-1E+10	1	-1E+10	1	-1E+10	1
4902554	69	C	01/03/2023	06:07	-132.996	48.299	0	1255.60	0	2.7090	0	34.4420	0	27.473	0	1241.283	0	-1e10	8	-1e10	8	-1E+10	1	-1E+10	1	-1E+10	1	-1E+10	1	-1E+10	1	-1E+10	1
4902554	69	C	01/03/2023	06:07	-132.996	48.299	0	1265.30	0	2.6870	0	34.4460	0	27.478	0	1250.844	0	-1e10	8	-1e10	8	-1E+10	1	-1E+10	1	-1E+10	1	-1E+10	1	-1E+10	1	-1E+10	1
4902554	69	C	01/03/2023	06:07	-132.996	48.299	0	1275.00	0	2.6680	0	34.4500	0	27.483	0	1260.404	0	-1e10	8	-1e10	8	-1E+10	1	-1E+10	1	-1E+10	1	-1E+10	1	-1E+10	1	-1E+10	1
4902554	69	C	01/03/2023	06:07	-132.996	48.299	0	1285.10	0	2.6590	0	34.4520	0	27.486	0	1270.358	0	-1e10	8	-1e10	8	-1E+10	1	-1E+10	1	-1E+10	1	-1E+10	1	-1E+10	1	-1E+10	1
4902554	69	C	01/03/2023	06:07	-132.996	48.299	0	1295.10	0	2.6430	0	34.4550	0	27.489	0	1280.213	0	-1e10	8	-1e10	8	-1E+10	1	-1E+10	1	-1E+10	1	-1E+10	1	-1E+10	1	-1E+10	1
4902554	69	C	01/03/2023	06:07	-132.996	48.299	0	1305.40	0	2.6350	0	34.4570	0	27.492	0	1290.363	0	-1e10	8	-1e10	8	-1E+10	1	-1E+10	1	-1E+10	1	-1E+10	1	-1E+10	1	-1E+10	1
4902554	69	C	01/03/2023	06:07	-132.996	48.299	0	1315.70	0	2.6230	0	34.4590	0	27.494	0	1300.513	0	-1e10	8	-1e10	8	-1E+10	1	-1E+10	1	-1E+10	1	-1E+10	1	-1E+10	1	-1E+10	1
4902554	69	C	01/03/2023	06:07	-132.996	48.299	0	1325.60	0	2.6120	0	34.4610	0	27.497	0	1310.268	0	-1e10	8	-1e10	8	-1E+10	1	-1E+10	1	-1E+10	1	-1E+10	1	-1E+10	1	-1E+10	1
4902554	69	C	01/03/2023	06:07	-132.996	48.299	0	1335.40	0	2.5990	0	34.4630	0	27.500	0	1319.924	0	-1e10	8	-1e10	8	-1E+10	1	-1E+10	1	-1E+10	1	-1E+10	1	-1E+10	1	-1E+10	1
4902554	69	C	01/03/2023	06:07	-132.996	48.299	0	1345.10	0	2.5870	0	34.4660	0	27.503	0	1329.481	0	-1e10	8	-1e10	8	-1E+10	1	-1E+10	1	-1E+10	1	-1E+10	1	-1E+10	1	-1E+10	1
4902554	69	C	01/03/2023	06:07	-132.996	48.299	0	1355.10	0	2.5800	0	34.4670	0	27.505	0	1339.333	0	-1e10	8	-1e10	8	-1E+10	1	-1E+10	1	-1E+10	1	-1E+10	1	-1E+10	1	-1E+10	1
4902554	69	C	01/03/2023	06:07	-132.996	48.299	0	1365.10	0	2.5610	0	34.4700	0	27.509	0	1349.184	0	-1e10	8	-1e10	8	-1E+10	1	-1E+10	1	-1E+10	1	-1E+10	1	-1E+10	1	-1E+10	1
4902554	69	C	01/03/2023	06:07	-132.996	48.299	0	1375.00	0	2.5410	0	34.4740	0	27.514	0	1358.937	0	-1e10	8	-1e10	8	-1E+10	1	-1E+10	1	-1E+10	1	-1E+10	1	-1E+10	1	-1E+10	1
4902554	69	C	01/03/2023	06:07	-132.996	48.299	0	1385.20	0	2.5270	0	34.4760	0	27.517	0	1368.985	0	-1e10	8	-1e10	8	-1E+10	1	-1E+10	1	-1E+10	1	-1E+10	1	-1E+10	1	-1E+10	1
4902554	69	C	01/03/2023	06:07	-132.996	48.299	0	1395.40	0	2.5150	0	34.4780	0	27.519	0	1379.032	0	-1e10	8	-1e10	8	-1E+10	1	-1E+10	1	-1E+10	1	-1E+10	1	-1E+10	1	-1E+10	1
4902554	69	C	01/03/2023	06:07	-132.996	48.299	0	1405.50	0	2.5020	0	34.4810	0	27.523	0	1388.980	0	-1e10	8	-1e10	8	-1E+10	1	-1E+10	1	-1E+10	1	-1E+10	1	-1E+10	1	-1E+10	1
4902554	69	C	01/03/2023	06:07	-132.996	48.299	0	1415.60	0	2.4860	0	34.4830	0	27.526	0	1398.928	0	-1e10	8	-1e10	8	-1E+10	1	-1E+10	1	-1E+10	1	-1E+10	1	-1E+10	1	-1E+10	1
4902554	69	C	01/03/2023	06:07	-132.996	48.299	0	1425.40	0	2.4790	0	34.4850	0	27.528	0	1408.580	0	-1e10	8	-1e10	8	-1E+10	1	-1E+10	1	-1E+10	1	-1E+10	1	-1E+10	1	-1E+10	1
4902554	69	C	01/03/2023	06:07	-132.996	48.299	0	1435.50	0	2.4690	0	34.4870	0	27.530	0	1418.527	0	-1e10	8	-1e10	8	-1E+10	1	-1E+10	1	-1E+10	1	-1E+10	1	-1E+10	1	-1E+10	1
4902554	69	C	01/03/2023	06:07	-132.996	48.299	0	1445.80	0	2.4570	0	34.4900	0	27.534	0	1428.671	0	-1e10	8	-1e10	8	-1E+10	1	-1E+10	1	-1E+10	1	-1E+10	1	-1E+10	1	-1E+10	1
4902554	69	C	01/03/2023	06:07	-132.996	48.299	0	1455.60	0	2.4360	0	34.4930	0	27.538	0	1438.321	0	-1e10	8	-1e10	8	-1E+10	1	-1E+10	1	-1E+10	1	-1E+10	1	-1E+10	1	-1E+10	1
4902554	69	C	01/03/2023	06:07	-132.996	48.299	0	1465.50	0	2.4220	0	34.4960	0	27.542	0	1448.070	0	-1e10	8	-1e10	8	-1E+10	1	-1E+10	1	-1E+10	1	-1E+10	1	-1E+10	1	-1E+10	1
4902554	69	C	01/03/2023	06:07	-132.996	48.299	0	1475.30	0	2.4070	0	34.4980	0	27.545	0	1457.719	0	-1e10	8	-1e10	8	-1E+10	1	-1E+10	1	-1E+10	1	-1E+10	1	-1E+10	1	-1E+10	1
4902554	69	C	01/03/2023	06:07	-132.996	48.299	0	1485.10	0	2.3940	0	34.5000	0	27.547	0	1467.368	0	-1e10	8	-1e10	8	-1E+10	1	-1E+10	1	-1E+10	1	-1E+10	1	-1E+10	1	-1E+10	1
4902554	69	C	01/03/2023	06:07	-132.996	48.299	0	1495.30	0	2.3840	0	34.5020	0	27.550	0	1477.411	0	-1e10	8	-1e10	8	-1E+10	1	-1E+10	1	-1E+10	1	-1E+10	1	-1E+10	1	-1E+10	1
4902554	69	C	01/03/2023	06:07	-132.996	48.299	0	1505.60	0	2.3750	0	34.5040	0	27.552	0	1487.552	0	-1e10	8	-1e10	8	-1E+10	1	-1E+10	1	-1E+10	1	-1E+10	1	-1E+10	1	-1E+10	1
4902554	69	C	01/03/2023	06:07	-132.996	48.299	0	1515.60	0	2.3610	0	34.5070	0	27.556	0	1497.396	0	-1e10	8	-1e10	8	-1E+10	1	-1E+10	1	-1E+10	1	-1E+10	1	-1E+10	1	-1E+10	1
4902554	69	C	01/03/2023	06:07	-132.996	48.299	0	1525.40	0	2.3390	0	34.5110	0	27.561	0	1507.044	0	-1e10	8	-1e10	8	-1E+10	1	-1E+10	1	-1E+10	1	-1E+10	1	-1E+10	1	-1E+10	1
4902554	69	C	01/03/2023	06:07	-132.996	48.299	0	1535.60	0	2.3260	0	34.5130	0	27.564	0	1517.084	0	-1e10	8	-1e10	8	-1E+10	1	-1E+10	1	-1E+10	1	-1E+10	1	-1E+10	1	-1E+10	1
4902554	69	C	01/03/2023	06:07	-132.996	48.299	0	1545.30	0	2.3100	0	34.5160	0	27.567	0	1526.632	0	-1e10	8	-1e10	8	-1E+10	1	-1E+10	1	-1E+10	1	-1E+10	1	-1E+10	1	-1E+10	1
4902554	69	C	01/03/2023	06:07	-132.996	48.299	0	1555.30	0	2.2940	0	34.5190	0	27.571	0	1536.475	0	-1e10	8	-1e10	8	-1E+10	1	-1E+10	1	-1E+10	1	-1E+10	1	-1E+10	1	-1E+10	1
4902554	69	C	01/03/2023	06:07	-132.996	48.299	0	1565.50	0	2.2820	0	34.5210	0	27.574	0	1546.515	0	-1e10	8	-1e10	8	-1E+10	1	-1E+10	1	-1E+10	1	-1E+10	1	-1E+10	1	-1E+10	1
4902554	69	C	01/03/2023	06:07	-132.996	48.299	0	1575.40	0	2.2690	0	34.5240	0	27.577	0	1556.258	0	-1e10	8	-1e10	8	-1E+10	1	-1E+10	1	-1E+10	1	-1E+10	1	-1E+10	1	-1E+10	1
4902554	69	C	01/03/2023	06:07	-132.996	48.299	0	1585.30	0	2.2560	0	34.5260	0	27.580	0	1566.001	0	-1e10	8	-1e10	8	-1E+10	1	-1E+10	1	-1E+10	1	-1E+10	1	-1E+10	1	-1E+10	1
4902554	69	C	01/03/2023	06:07	-132.996	48.299	0	1595.40	0	2.2460	0	34.5280	0	27.582	0	1575.941	0	-1e10	8	-1e10	8	-1E+10	1	-1E+10	1	-1E+10	1	-1E+10	1	-1E+10	1	-1E+10	1
4902554	69	C	01/03/2023	06:07	-132.996	48.299	0	1605.30	0	2.2360	0	34.5300	0	27.585	0	1585.683	0	-1e10	8	-1e10	8	-1E+10	1	-1E+10	1	-1E+10	1	-1E+10	1	-1E+10	1	-1E+10	1
4902554	69	C	01/03/2023	06:07	-132.996	48.299	0	1615.50	0	2.2240	0	34.5320	0	27.588	0	1595.720	0	-1e10	8	-1e10	8	-1E+10	1	-1E+10	1	-1E+10	1	-1E+10	1	-1E+10	1	-1E+10	1
4902554	69	C	01/03/2023	06:07	-132.996	48.299	0	1625.50	0	2.2150	0	34.5340	0	27.590	0	1605.560	0	-1e10	8	-1e10	8	-1E+10	1	-1E+10	1	-1E+10	1	-1E+10	1	-1E+10	1	-1E+10	1
4902554	69	C	01/03/2023	06:07	-132.996	48.299	0	1635.20	0	2.2090	0	34.5360	0	27.592	0	1615.104	0	-1e10	8	-1e10	8	-1E+10	1	-1E+10	1	-1E+10	1	-1E+10	1	-1E+10	1	-1E+10	1
4902554	69	C	01/03/2023	06:07	-132.996	48.299	0	1645.30	0	2.2020	0	34.5370	0	27.593	0	1625.041	0	-1e10	8	-1e10	8	-1E+10	1	-1E+10	1	-1E+10	1	-1E+10	1	-1E+10	1	-1E+10	1
4902554	69	C	01/03/2023	06:07	-132.996	48.299	0	1655.30	0	2.1920	0	34.5390	0	27.596	0	1634.879	0	-1e10	8	-1e10	8	-1E+10	1	-1E+10	1	-1E+10	1	-1E+10	1	-1E+10	1	-1E+10	1
4902554	69	C	01/03/2023	06:07	-132.996	48.299	0	1665.10	0	2.1760	0	34.5420	0	27.600	0	1644.520	0	-1e10	8	-1e10	8	-1E+10	1	-1E+10	1	-1E+10	1	-1E+10	1	-1E+10	1	-1E+10	1
4902554	69	C	01/03/2023	06:07	-132.996	48.299	0	1675.40	0	2.1630	0	34.5440	0	27.602	0	1654.653	0	-1e10	8	-1e10	8	-1E+10	1	-1E+10	1	-1E+10	1	-1E+10	1	-1E+10	1	-1E+10	1
4902554	69	C	01/03/2023	06:07	-132.996	48.299	0	1685.50	0	2.1530	0	34.5460	0	27.605	0	1664.588	0	-1e10	8	-1e10	8	-1E+10	1	-1E+10	1	-1E+10	1	-1E+10	1	-1E+10	1	-1E+10	1
4902554	69	C	01/03/2023	06:07	-132.996	48.299	0	1695.40	0	2.1450	0	34.5480	0	27.607	0	1674.326	0	-1e10	8	-1e10	8	-1E+10	1	-1E+10	1	-1E+10	1	-1E+10	1	-1E+10	1	-1E+10	1
4902554	69	C	01/03/2023	06:07	-132.996	48.299	0	1705.60	0	2.1290	0	34.5500	0	27.610	0	1684.359	0	-1e10	8	-1e10	8	-1E+10	1	-1E+10	1	-1E+10	1	-1E+10	1	-1E+10	1	-1E+10	1
4902554	69	C	01/03/2023	06:07	-132.996	48.299	0	1715.30	0	2.1240	0	34.5510	0	27.611	0	1693.899	0	-1e10	8	-1e10	8	-1E+10	1	-1E+10	1	-1E+10	1	-1E+10	1	-1E+10	1	-1E+10	1
4902554	69	C	01/03/2023	06:07	-132.996	48.299	0	1725.10	0	2.1080	0	34.5540	0	27.615	0	1703.538	0	-1e10	8	-1e10	8	-1E+10	1	-1E+10	1	-1E+10	1	-1E+10	1	-1E+10	1	-1E+10	1
4902554	69	C	01/03/2023	06:07	-132.996	48.299	0	1735.10	0	2.0970	0	34.5560	0	27.617	0	1713.372	0	-1e10	8	-1e10	8	-1E+10	1	-1E+10	1	-1E+10	1	-1E+10	1	-1E+10	1	-1E+10	1
4902554	69	C	01/03/2023	06:07	-132.996	48.299	0	1745.20	0	2.0860	0	34.5580	0	27.620	0	1723.305	0	-1e10	8	-1e10	8	-1E+10	1	-1E+10	1	-1E+10	1	-1E+10	1	-1E+10	1	-1E+10	1
4902554	69	C	01/03/2023	06:07	-132.996	48.299	0	1755.30	0	2.0830	0	34.5590	0	27.621	0	1733.237	0	-1e10	8	-1e10	8	-1E+10	1	-1E+10	1	-1E+10	1	-1E+10	1	-1E+10	1	-1E+10	1
4902554	69	C	01/03/2023	06:07	-132.996	48.299	0	1765.20	0	2.0760	0	34.5600	0	27.622	0	1742.972	0	-1e10	8	-1e10	8	-1E+10	1	-1E+10	1	-1E+10	1	-1E+10	1	-1E+10	1	-1E+10	1
4902554	69	C	01/03/2023	06:07	-132.996	48.299	0	1775.20	0	2.0640	0	34.5620	0	27.625	0	1752.805	0	-1e10	8	-1e10	8	-1E+10	1	-1E+10	1	-1E+10	1	-1E+10	1	-1E+10	1	-1E+10	1
4902554	69	C	01/03/2023	06:07	-132.996	48.299	0	1785.30	0	2.0530	0	34.5640	0	27.628	0	1762.735	0	-1e10	8	-1e10	8	-1E+10	1	-1E+10	1	-1E+10	1	-1E+10	1	-1E+10	1	-1E+10	1
4902554	69	C	01/03/2023	06:07	-132.996	48.299	0	1795.40	0	2.0380	0	34.5670	0	27.631	0	1772.666	0	-1e10	8	-1e10	8	-1E+10	1	-1E+10	1	-1E+10	1	-1E+10	1	-1E+10	1	-1E+10	1
4902554	69	C	01/03/2023	06:07	-132.996	48.299	0	1805.70	0	2.0230	0	34.5700	0	27.635	0	1782.792	0	-1e10	8	-1e10	8	-1E+10	1	-1E+10	1	-1E+10	1	-1E+10	1	-1E+10	1	-1E+10	1
4902554	69	C	01/03/2023	06:07	-132.996	48.299	0	1815.40	0	2.0140	0	34.5720	0	27.637	0	1792.328	0	-1e10	8	-1e10	8	-1E+10	1	-1E+10	1	-1E+10	1	-1E+10	1	-1E+10	1	-1E+10	1
4902554	69	C	01/03/2023	06:07	-132.996	48.299	0	1825.40	0	2.0010	0	34.5740	0	27.640	0	1802.159	0	-1e10	8	-1e10	8	-1E+10	1	-1E+10	1	-1E+10	1	-1E+10	1	-1E+10	1	-1E+10	1
4902554	69	C	01/03/2023	06:07	-132.996	48.299	0	1835.60	0	1.9940	0	34.5750	0	27.641	0	1812.185	0	-1e10	8	-1e10	8	-1E+10	1	-1E+10	1	-1E+10	1	-1E+10	1	-1E+10	1	-1E+10	1
4902554	69	C	01/03/2023	06:07	-132.996	48.299	0	1845.50	0	1.9910	0	34.5760	0	27.642	0	1821.917	0	-1e10	8	-1e10	8	-1E+10	1	-1E+10	1	-1E+10	1	-1E+10	1	-1E+10	1	-1E+10	1
4902554	69	C	01/03/2023	06:07	-132.996	48.299	0	1855.50	0	1.9870	0	34.5770	0	27.644	0	1831.746	0	-1e10	8	-1e10	8	-1E+10	1	-1E+10	1	-1E+10	1	-1E+10	1	-1E+10	1	-1E+10	1
4902554	69	C	01/03/2023	06:07	-132.996	48.299	0	1865.70	0	1.9790	0	34.5780	0	27.645	0	1841.771	0	-1e10	8	-1e10	8	-1E+10	1	-1E+10	1	-1E+10	1	-1E+10	1	-1E+10	1	-1E+10	1
4902554	69	C	01/03/2023	06:07	-132.996	48.299	0	1875.50	0	1.9710	0	34.5800	0	27.647	0	1851.403	0	-1e10	8	-1e10	8	-1E+10	1	-1E+10	1	-1E+10	1	-1E+10	1	-1E+10	1	-1E+10	1
4902554	69	C	01/03/2023	06:07	-132.996	48.299	0	1885.50	0	1.9560	0	34.5830	0	27.651	0	1861.230	0	-1e10	8	-1e10	8	-1E+10	1	-1E+10	1	-1E+10	1	-1E+10	1	-1E+10	1	-1E+10	1
4902554	69	C	01/03/2023	06:07	-132.996	48.299	0	1895.60	0	1.9470	0	34.5840	0	27.652	0	1871.156	0	-1e10	8	-1e10	8	-1E+10	1	-1E+10	1	-1E+10	1	-1E+10	1	-1E+10	1	-1E+10	1
4902554	69	C	01/03/2023	06:07	-132.996	48.299	0	1905.20	0	1.9410	0	34.5860	0	27.655	0	1880.590	0	-1e10	8	-1e10	8	-1E+10	1	-1E+10	1	-1E+10	1	-1E+10	1	-1E+10	1	-1E+10	1
4902554	69	C	01/03/2023	06:07	-132.996	48.299	0	1915.00	0	1.9370	0	34.5860	0	27.655	0	1890.220	0	-1e10	8	-1e10	8	-1E+10	1	-1E+10	1	-1E+10	1	-1E+10	1	-1E+10	1	-1E+10	1
4902554	69	C	01/03/2023	06:07	-132.996	48.299	0	1925.00	0	1.9350	0	34.5870	0	27.656	0	1900.046	0	-1e10	8	-1e10	8	-1E+10	1	-1E+10	1	-1E+10	1	-1E+10	1	-1E+10	1	-1E+10	1
4902554	69	C	01/03/2023	06:07	-132.996	48.299	0	1935.50	0	1.9300	0	34.5880	0	27.657	0	1910.363	0	-1e10	8	-1e10	8	-1E+10	1	-1E+10	1	-1E+10	1	-1E+10	1	-1E+10	1	-1E+10	1
4902554	69	C	01/03/2023	06:07	-132.996	48.299	0	1945.20	0	1.9260	0	34.5890	0	27.658	0	1919.893	0	-1e10	8	-1e10	8	-1E+10	1	-1E+10	1	-1E+10	1	-1E+10	1	-1E+10	1	-1E+10	1
4902554	69	C	01/03/2023	06:07	-132.996	48.299	0	1955.00	0	1.9230	0	34.5900	0	27.659	0	1929.521	0	-1e10	8	-1e10	8	-1E+10	1	-1E+10	1	-1E+10	1	-1E+10	1	-1E+10	1	-1E+10	1
4902554	69	C	01/03/2023	06:07	-132.996	48.299	0	1965.20	0	1.9200	0	34.5900	0	27.660	0	1939.542	0	-1e10	8	-1e10	8	-1E+10	1	-1E+10	1	-1E+10	1	-1E+10	1	-1E+10	1	-1E+10	1
4902554	69	C	01/03/2023	06:07	-132.996	48.299	0	1975.60	0	1.9190	0	34.5910	0	27.661	0	1949.758	0	-1e10	8	-1e10	8	-1E+10	1	-1E+10	1	-1E+10	1	-1E+10	1	-1E+10	1	-1E+10	1
4902554	69	C	01/03/2023	06:07	-132.996	48.299	0	1985.50	0	1.9130	0	34.5920	0	27.662	0	1959.483	0	-1e10	8	-1e10	8	-1E+10	1	-1E+10	1	-1E+10	1	-1E+10	1	-1E+10	1	-1E+10	1
4902554	69	C	01/03/2023	06:07	-132.996	48.299	0	1995.30	0	1.9030	0	34.5940	0	27.664	0	1969.110	0	-1e10	8	-1e10	8	-1E+10	1	-1E+10	1	-1E+10	1	-1E+10	1	-1E+10	1	-1E+10	1
4902554	69	C	01/03/2023	06:07	-132.996	48.299	0	2005.50	0	1.8980	0	34.5950	0	27.666	0	1979.128	0	-1e10	8	-1e10	8	-1E+10	1	-1E+10	1	-1E+10	1	-1E+10	1	-1E+10	1	-1E+10	1
4902554	69	C	01/03/2023	06:07	-132.996	48.299	0	2012.90	0	1.8940	0	34.5960	0	27.667	0	1986.397	0	-1e10	8	-1e10	8	-1E+10	1	-1E+10	1	-1E+10	1	-1E+10	1	-1E+10	1	-1E+10	1
4902554	69	C	01/03/2023	06:07	-132.996	48.299	0																										
4902554	70	C	01/13/2023	11:05	-132.936	48.367	0	0.30	0	8.3830	0	32.1910	0	25.013	0	0.297	0	-1e10	8	-1e10	8	-1E+10	1	-1E+10	1	-1E+10	1	-1E+10	1	-1E+10	1	-1E+10	1
4902554	70	C	01/13/2023	11:05	-132.936	48.367	0	0.40	0	8.3829	0	32.1913	0	25.013	0	0.397	0	-1e10	8	-1e10	8	-1E+10	1	-1E+10	1	-1E+10	1	-1E+10	1	-1E+10	1	-1E+10	1
4902554	70	C	01/13/2023	11:05	-132.936	48.367	0	1.10	0	8.3820	0	32.1930	0	25.015	0	1.091	0	-1e10	8	-1e10	8	-1E+10	1	-1E+10	1	-1E+10	1	-1E+10	1	-1E+10	1	-1E+10	1
4902554	70	C	01/13/2023	11:05	-132.936	48.367	0	2.10	0	8.3830	0	32.1910	0	25.013	0	2.082	0	-1e10	8	-1e10	8	-1E+10	1	-1E+10	1	-1E+10	1	-1E+10	1	-1E+10	1	-1E+10	1
4902554	70	C	01/13/2023	11:05	-132.936	48.367	0	3.10	0	8.3820	0	32.1900	0	25.012	0	3.074	0	-1e10	8	-1e10	8	-1E+10	1	-1E+10	1	-1E+10	1	-1E+10	1	-1E+10	1	-1E+10	1
4902554	70	C	01/13/2023	11:05	-132.936	48.367	0	4.10	0	8.3820	0	32.1890	0	25.011	0	4.065	0	-1e10	8	-1e10	8	-1E+10	1	-1E+10	1	-1E+10	1	-1E+10	1	-1E+10	1	-1E+10	1
4902554	70	C	01/13/2023	11:05	-132.936	48.367	0	5.10	0	8.3820	0	32.1900	0	25.012	0	5.057	0	-1e10	8	-1e10	8	-1E+10	1	-1E+10	1	-1E+10	1	-1E+10	1	-1E+10	1	-1E+10	1
4902554	70	C	01/13/2023	11:05	-132.936	48.367	0	6.10	0	8.3830	0	32.1900	0	25.012	0	6.049	0	-1e10	8	-1e10	8	-1E+10	1	-1E+10	1	-1E+10	1	-1E+10	1	-1E+10	1	-1E+10	1
4902554	70	C	01/13/2023	11:05	-132.936	48.367	0	7.00	0	8.3820	0	32.1900	0	25.012	0	6.941	0	-1e10	8	-1e10	8	-1E+10	1	-1E+10	1	-1E+10	1	-1E+10	1	-1E+10	1	-1E+10	1
4902554	70	C	01/13/2023	11:05	-132.936	48.367	0	7.90	0	8.3820	0	32.1900	0	25.012	0	7.833	0	-1e10	8	-1e10	8	-1E+10	1	-1E+10	1	-1E+10	1	-1E+10	1	-1E+10	1	-1E+10	1
4902554	70	C	01/13/2023	11:05	-132.936	48.367	0	8.80	0	8.3810	0	32.1900	0	25.012	0	8.726	0	-1e10	8	-1e10	8	-1E+10	1	-1E+10	1	-1E+10	1	-1E+10	1	-1E+10	1	-1E+10	1
4902554	70	C	01/13/2023	11:05	-132.936	48.367	0	9.80	0	8.3810	0	32.1890	0	25.012	0	9.717	0	-1e10	8	-1e10	8	-1E+10	1	-1E+10	1	-1E+10	1	-1E+10	1	-1E+10	1	-1E+10	1
4902554	70	C	01/13/2023	11:05	-132.936	48.367	0	10.80	0	8.3810	0	32.1900	0	25.013	0	10.709	0	-1e10	8	-1e10	8	-1E+10	1	-1E+10	1	-1E+10	1	-1E+10	1	-1E+10	1	-1E+10	1
4902554	70	C	01/13/2023	11:05	-132.936	48.367	0	11.80	0	8.3800	0	32.1890	0	25.012	0	11.700	0	-1e10	8	-1e10	8	-1E+10	1	-1E+10	1	-1E+10	1	-1E+10	1	-1E+10	1	-1E+10	1
4902554	70	C	01/13/2023	11:05	-132.936	48.367	0	12.80	0	8.3810	0	32.1890	0	25.012	0	12.692	0	-1e10	8	-1e10	8	-1E+10	1	-1E+10	1	-1E+10	1	-1E+10	1	-1E+10	1	-1E+10	1
4902554	70	C	01/13/2023	11:05	-132.936	48.367	0	13.80	0	8.3800	0	32.1890	0	25.012	0	13.683	0	-1e10	8	-1e10	8	-1E+10	1	-1E+10	1	-1E+10	1	-1E+10	1	-1E+10	1	-1E+10	1
4902554	70	C	01/13/2023	11:05	-132.936	48.367	0	14.80	0	8.3810	0	32.1900	0	25.013	0	14.675	0	-1e10	8	-1e10	8	-1E+10	1	-1E+10	1	-1E+10	1	-1E+10	1	-1E+10	1	-1E+10	1
4902554	70	C	01/13/2023	11:05	-132.936	48.367	0	15.80	0	8.3820	0	32.1890	0	25.012	0	15.666	0	-1e10	8	-1e10	8	-1E+10	1	-1E+10	1	-1E+10	1	-1E+10	1	-1E+10	1	-1E+10	1
4902554	70	C	01/13/2023	11:05	-132.936	48.367	0	16.90	0	8.3870	0	32.1900	0	25.012	0	16.757	0	-1e10	8	-1e10	8	-1E+10	1	-1E+10	1	-1E+10	1	-1E+10	1	-1E+10	1	-1E+10	1
4902554	70	C	01/13/2023	11:05	-132.936	48.367	0	18.00	0	8.3860	0	32.1990	0	25.019	0	17.848	0	-1e10	8	-1e10	8	-1E+10	1	-1E+10	1	-1E+10	1	-1E+10	1	-1E+10	1	-1E+10	1
4902554	70	C	01/13/2023	11:05	-132.936	48.367	0	19.10	0	8.4000	0	32.1970	0	25.015	0	18.938	0	-1e10	8	-1e10	8	-1E+10	1	-1E+10	1	-1E+10	1	-1E+10	1	-1E+10	1	-1E+10	1
4902554	70	C	01/13/2023	11:05	-132.936	48.367	0	20.00	0	8.3970	0	32.1950	0	25.014	0	19.831	0	-1e10	8	-1e10	8	-1E+10	1	-1E+10	1	-1E+10	1	-1E+10	1	-1E+10	1	-1E+10	1
4902554	70	C	01/13/2023	11:05	-132.936	48.367	0	21.00	0	8.4030	0	32.1960	0	25.014	0	20.822	0	-1e10	8	-1e10	8	-1E+10	1	-1E+10	1	-1E+10	1	-1E+10	1	-1E+10	1	-1E+10	1
4902554	70	C	01/13/2023	11:05	-132.936	48.367	0	21.90	0	8.3990	0	32.1960	0	25.015	0	21.714	0	-1e10	8	-1e10	8	-1E+10	1	-1E+10	1	-1E+10	1	-1E+10	1	-1E+10	1	-1E+10	1
4902554	70	C	01/13/2023	11:05	-132.936	48.367	0	23.10	0	8.4060	0	32.1980	0	25.015	0	22.904	0	-1e10	8	-1e10	8	-1E+10	1	-1E+10	1	-1E+10	1	-1E+10	1	-1E+10	1	-1E+10	1
4902554	70	C	01/13/2023	11:05	-132.936	48.367	0	24.00	0	8.4090	0	32.1990	0	25.016	0	23.796	0	-1e10	8	-1e10	8	-1E+10	1	-1E+10	1	-1E+10	1	-1E+10	1	-1E+10	1	-1E+10	1
4902554	70	C	01/13/2023	11:05	-132.936	48.367	0	24.90	0	8.4010	0	32.1960	0	25.014	0	24.689	0	-1e10	8	-1e10	8	-1E+10	1	-1E+10	1	-1E+10	1	-1E+10	1	-1E+10	1	-1E+10	1
4902554	70	C	01/13/2023	11:05	-132.936	48.367	0	25.90	0	8.4230	0	32.2030	0	25.017	0	25.680	0	-1e10	8	-1e10	8	-1E+10	1	-1E+10	1	-1E+10	1	-1E+10	1	-1E+10	1	-1E+10	1
4902554	70	C	01/13/2023	11:05	-132.936	48.367	0	26.80	0	8.4040	0	32.1980	0	25.016	0	26.572	0	-1e10	8	-1e10	8	-1E+10	1	-1E+10	1	-1E+10	1	-1E+10	1	-1E+10	1	-1E+10	1
4902554	70	C	01/13/2023	11:05	-132.936	48.367	0	27.90	0	8.4400	0	32.2070	0	25.017	0	27.663	0	-1e10	8	-1e10	8	-1E+10	1	-1E+10	1	-1E+10	1	-1E+10	1	-1E+10	1	-1E+10	1
4902554	70	C	01/13/2023	11:05	-132.936	48.367	0	28.80	0	8.4550	0	32.2150	0	25.021	0	28.555	0	-1e10	8	-1e10	8	-1E+10	1	-1E+10	1	-1E+10	1	-1E+10	1	-1E+10	1	-1E+10	1
4902554	70	C	01/13/2023	11:05	-132.936	48.367	0	29.90	0	8.4530	0	32.2170	0	25.023	0	29.646	0	-1e10	8	-1e10	8	-1E+10	1	-1E+10	1	-1E+10	1	-1E+10	1	-1E+10	1	-1E+10	1
4902554	70	C	01/13/2023	11:05	-132.936	48.367	0	31.00	0	8.4970	0	32.2350	0	25.031	0	30.737	0	-1e10	8	-1e10	8	-1E+10	1	-1E+10	1	-1E+10	1	-1E+10	1	-1E+10	1	-1E+10	1
4902554	70	C	01/13/2023	11:05	-132.936	48.367	0	31.90	0	8.5710	0	32.2750	0	25.051	0	31.629	0	-1e10	8	-1e10	8	-1E+10	1	-1E+10	1	-1E+10	1	-1E+10	1	-1E+10	1	-1E+10	1
4902554	70	C	01/13/2023	11:05	-132.936	48.367	0	32.80	0	8.6030	0	32.2740	0	25.046	0	32.521	0	-1e10	8	-1e10	8	-1E+10	1	-1E+10	1	-1E+10	1	-1E+10	1	-1E+10	1	-1E+10	1
4902554	70	C	01/13/2023	11:05	-132.936	48.367	0	33.90	0	8.6060	0	32.2840	0	25.053	0	33.612	0	-1e10	8	-1e10	8	-1E+10	1	-1E+10	1	-1E+10	1	-1E+10	1	-1E+10	1	-1E+10	1
4902554	70	C	01/13/2023	11:05	-132.936	48.367	0	35.00	0	8.6260	0	32.2920	0	25.056	0	34.702	0	-1e10	8	-1e10	8	-1E+10	1	-1E+10	1	-1E+10	1	-1E+10	1	-1E+10	1	-1E+10	1
4902554	70	C	01/13/2023	11:05	-132.936	48.367	0	36.00	0	8.6240	0	32.2910	0	25.056	0	35.694	0	-1e10	8	-1e10	8	-1E+10	1	-1E+10	1	-1E+10	1	-1E+10	1	-1E+10	1	-1E+10	1
4902554	70	C	01/13/2023	11:05	-132.936	48.367	0	37.00	0	8.6320	0	32.2940	0	25.057	0	36.685	0	-1e10	8	-1e10	8	-1E+10	1	-1E+10	1	-1E+10	1	-1E+10	1	-1E+10	1	-1E+10	1
4902554	70	C	01/13/2023	11:05	-132.936	48.367	0	38.00	0	8.6460	0	32.2980	0	25.058	0	37.676	0	-1e10	8	-1e10	8	-1E+10	1	-1E+10	1	-1E+10	1	-1E+10	1	-1E+10	1	-1E+10	1
4902554	70	C	01/13/2023	11:05	-132.936	48.367	0	39.10	0	8.6460	0	32.2980	0	25.058	0	38.767	0	-1e10	8	-1e10	8	-1E+10	1	-1E+10	1	-1E+10	1	-1E+10	1	-1E+10	1	-1E+10	1
4902554	70	C	01/13/2023	11:05	-132.936	48.367	0	40.10	0	8.6500	0	32.2990	0	25.058	0	39.758	0	-1e10	8	-1e10	8	-1E+10	1	-1E+10	1	-1E+10	1	-1E+10	1	-1E+10	1	-1E+10	1
4902554	70	C	01/13/2023	11:05	-132.936	48.367	0	41.00	0	8.6520	0	32.3000	0	25.059	0	40.651	0	-1e10	8	-1e10	8	-1E+10	1	-1E+10	1	-1E+10	1	-1E+10	1	-1E+10	1	-1E+10	1
4902554	70	C	01/13/2023	11:05	-132.936	48.367	0	41.90	0	8.6570	0	32.3020	0	25.059	0	41.543	0	-1e10	8	-1e10	8	-1E+10	1	-1E+10	1	-1E+10	1	-1E+10	1	-1E+10	1	-1E+10	1
4902554	70	C	01/13/2023	11:05	-132.936	48.367	0	42.80	0	8.6630	0	32.3050	0	25.061	0	42.435	0	-1e10	8	-1e10	8	-1E+10	1	-1E+10	1	-1E+10	1	-1E+10	1	-1E+10	1	-1E+10	1
4902554	70	C	01/13/2023	11:05	-132.936	48.367	0	44.00	0	8.6640	0	32.3050	0	25.061	0	43.625	0	-1e10	8	-1e10	8	-1E+10	1	-1E+10	1	-1E+10	1	-1E+10	1	-1E+10	1	-1E+10	1
4902554	70	C	01/13/2023	11:05	-132.936	48.367	0	45.00	0	8.6640	0	32.3050	0	25.061	0	44.616	0	-1e10	8	-1e10	8	-1E+10	1	-1E+10	1	-1E+10	1	-1E+10	1	-1E+10	1	-1E+10	1
4902554	70	C	01/13/2023	11:05	-132.936	48.367	0	46.00	0	8.6640	0	32.3050	0	25.061	0	45.607	0	-1e10	8	-1e10	8	-1E+10	1	-1E+10	1	-1E+10	1	-1E+10	1	-1E+10	1	-1E+10	1
4902554	70	C	01/13/2023	11:05	-132.936	48.367	0	47.00	0	8.6640	0	32.3050	0	25.061	0	46.599	0	-1e10	8	-1e10	8	-1E+10	1	-1E+10	1	-1E+10	1	-1E+10	1	-1E+10	1	-1E+10	1
4902554	70	C	01/13/2023	11:05	-132.936	48.367	0	48.10	0	8.6640	0	32.3050	0	25.061	0	47.689	0	-1e10	8	-1e10	8	-1E+10	1	-1E+10	1	-1E+10	1	-1E+10	1	-1E+10	1	-1E+10	1
4902554	70	C	01/13/2023	11:05	-132.936	48.367	0	48.80	0	8.6640	0	32.3050	0	25.061	0	48.383	0	-1e10	8	-1e10	8	-1E+10	1	-1E+10	1	-1E+10	1	-1E+10	1	-1E+10	1	-1E+10	1
4902554	70	C	01/13/2023	11:05	-132.936	48.367	0	49.90	0	8.6650	0	32.3050	0	25.061	0	49.474	0	-1e10	8	-1e10	8	-1E+10	1	-1E+10	1	-1E+10	1	-1E+10	1	-1E+10	1	-1E+10	1
4902554	70	C	01/13/2023	11:05	-132.936	48.367	0	51.00	0	8.6670	0	32.3070	0	25.062	0	50.564	0	-1e10	8	-1e10	8	-1E+10	1	-1E+10	1	-1E+10	1	-1E+10	1	-1E+10	1	-1E+10	1
4902554	70	C	01/13/2023	11:05	-132.936	48.367	0	52.10	0	8.6670	0	32.3070	0	25.062	0	51.655	0	-1e10	8	-1e10	8	-1E+10	1	-1E+10	1	-1E+10	1	-1E+10	1	-1E+10	1	-1E+10	1
4902554	70	C	01/13/2023	11:05	-132.936	48.367	0	52.90	0	8.6690	0	32.3070	0	25.062	0	52.448	0	-1e10	8	-1e10	8	-1E+10	1	-1E+10	1	-1E+10	1	-1E+10	1	-1E+10	1	-1E+10	1
4902554	70	C	01/13/2023	11:05	-132.936	48.367	0	53.80	0	8.6710	0	32.3080	0	25.062	0	53.340	0	-1e10	8	-1e10	8	-1E+10	1	-1E+10	1	-1E+10	1	-1E+10	1	-1E+10	1	-1E+10	1
4902554	70	C	01/13/2023	11:05	-132.936	48.367	0	54.90	0	8.6720	0	32.3090	0	25.063	0	54.430	0	-1e10	8	-1e10	8	-1E+10	1	-1E+10	1	-1E+10	1	-1E+10	1	-1E+10	1	-1E+10	1
4902554	70	C	01/13/2023	11:05	-132.936	48.367	0	55.80	0	8.6740	0	32.3090	0	25.063	0	55.322	0	-1e10	8	-1e10	8	-1E+10	1	-1E+10	1	-1E+10	1	-1E+10	1	-1E+10	1	-1E+10	1
4902554	70	C	01/13/2023	11:05	-132.936	48.367	0	56.90	0	8.6750	0	32.3100	0	25.063	0	56.413	0	-1e10	8	-1e10	8	-1E+10	1	-1E+10	1	-1E+10	1	-1E+10	1	-1E+10	1	-1E+10	1
4902554	70	C	01/13/2023	11:05	-132.936	48.367	0	58.10	0	8.6780	0	32.3110	0	25.064	0	57.602	0	-1e10	8	-1e10	8	-1E+10	1	-1E+10	1	-1E+10	1	-1E+10	1	-1E+10	1	-1E+10	1
4902554	70	C	01/13/2023	11:05	-132.936	48.367	0	58.90	0	8.6760	0	32.3120	0	25.065	0	58.395	0	-1e10	8	-1e10	8	-1E+10	1	-1E+10	1	-1E+10	1	-1E+10	1	-1E+10	1	-1E+10	1
4902554	70	C	01/13/2023	11:05	-132.936	48.367	0	60.00	0	8.6730	0	32.3110	0	25.064	0	59.486	0	-1e10	8	-1e10	8	-1E+10	1	-1E+10	1	-1E+10	1	-1E+10	1	-1E+10	1	-1E+10	1
4902554	70	C	01/13/2023	11:05	-132.936	48.367	0	61.10	0	8.6790	0	32.3130	0	25.065	0	60.576	0	-1e10	8	-1e10	8	-1E+10	1	-1E+10	1	-1E+10	1	-1E+10	1	-1E+10	1	-1E+10	1
4902554	70	C	01/13/2023	11:05	-132.936	48.367	0	62.00	0	8.6810	0	32.3140	0	25.066	0	61.468	0	-1e10	8	-1e10	8	-1E+10	1	-1E+10	1	-1E+10	1	-1E+10	1	-1E+10	1	-1E+10	1
4902554	70	C	01/13/2023	11:05	-132.936	48.367	0	62.90	0	8.6850	0	32.3150	0	25.066	0	62.361	0	-1e10	8	-1e10	8	-1E+10	1	-1E+10	1	-1E+10	1	-1E+10	1	-1E+10	1	-1E+10	1
4902554	70	C	01/13/2023	11:05	-132.936	48.367	0	64.30	0	8.6860	0	32.3160	0	25.066	0	63.748	0	-1e10	8	-1e10	8	-1E+10	1	-1E+10	1	-1E+10	1	-1E+10	1	-1E+10	1	-1E+10	1
4902554	70	C	01/13/2023	11:05	-132.936	48.367	0	65.20	0	8.6850	0	32.3160	0	25.067	0	64.640	0	-1e10	8	-1e10	8	-1E+10	1	-1E+10	1	-1E+10	1	-1E+10	1	-1E+10	1	-1E+10	1
4902554	70	C	01/13/2023	11:05	-132.936	48.367	0	66.10	0	8.6840	0	32.3160	0	25.067	0	65.533	0	-1e10	8	-1e10	8	-1E+10	1	-1E+10	1	-1E+10	1	-1E+10	1	-1E+10	1	-1E+10	1
4902554	70	C	01/13/2023	11:05	-132.936	48.367	0	66.90	0	8.6840	0	32.3160	0	25.067	0	66.326	0	-1e10	8	-1e10	8	-1E+10	1	-1E+10	1	-1E+10	1	-1E+10	1	-1E+10	1	-1E+10	1
4902554	70	C	01/13/2023	11:05	-132.936	48.367	0	68.10	0	8.6840	0	32.3160	0	25.067	0	67.515	0	-1e10	8	-1e10	8	-1E+10	1	-1E+10	1	-1E+10	1	-1E+10	1	-1E+10	1	-1E+10	1
4902554	70	C	01/13/2023	11:05	-132.936	48.367	0	68.90	0	8.6850	0	32.3170	0	25.067	0	68.308	0	-1e10	8	-1e10	8	-1E+10	1	-1E+10	1	-1E+10	1	-1E+10	1	-1E+10	1	-1E+10	1
4902554	70	C	01/13/2023	11:05	-132.936	48.367	0	70.20	0	8.6860	0	32.3180	0	25.068	0	69.597	0	-1e10	8	-1e10	8	-1E+10	1	-1E+10	1	-1E+10	1	-1E+10	1	-1E+10	1	-1E+10	1
4902554	70	C	01/13/2023	11:05	-132.936	48.367	0	70.90	0	8.6870	0	32.3190	0	25.069	0	70.291	0	-1e10	8	-1e10	8	-1E+10	1	-1E+10	1	-1E+10	1	-1E+10	1	-1E+10	1	-1E+10	1
4902554	70	C	01/13/2023	11:05	-132.936	48.367	0	72.10	0	8.6880	0	32.3210	0	25.070	0	71.480	0	-1e10	8	-1e10	8	-1E+10	1	-1E+10	1	-1E+10	1	-1E+10	1	-1E+10	1	-1E+10	1
4902554	70	C	01/13/2023	11:05	-132.936	48.367	0	72.90	0	8.6860	0	32.3230	0	25.072	0	72.273	0	-1e10	8	-1e10	8	-1E+10	1	-1E+10	1	-1E+10	1	-1E+10	1	-1E+10	1	-1E+10	1
4902554	70	C	01/13/2023	11:05	-132.936	48.367	0	74.10	0	8.6840	0	32.3240	0	25.073	0	73.463	0	-1e10	8	-1e10	8	-1E+10	1	-1E+10	1	-1E+10	1	-1E+10	1	-1E+10	1	-1E+10	1
4902554	70	C	01/13/2023	11:05	-132.936	48.367	0	74.90	0	8.6830	0	32.3240	0	25.073	0	74.255	0	-1e10	8	-1e10	8	-1E+10	1	-1E+10	1	-1E+10	1	-1E+10	1	-1E+10	1	-1E+10	1
4902554	70	C	01/13/2023	11:05	-132.936	48.367	0	76.10	0	8.6720	0	32.3300	0	25.080	0	75.445	0	-1e10	8	-1e10	8	-1E+10	1	-1E+10	1	-1E+10	1	-1E+10	1	-1E+10	1	-1E+10	1
4902554	70	C	01/13/2023	11:05	-132.936	48.367	0	77.00	0	8.6440	0	32.3340	0	25.087	0	76.337	0	-1e10	8	-1e10	8	-1E+10	1	-1E+10	1	-1E+10	1	-1E+10	1	-1E+10	1	-1E+10	1
4902554	70	C	01/13/2023	11:05	-132.936	48.367	0	78.30	0	8.6170	0	32.3370	0	25.094	0	77.626	0	-1e10	8	-1e10	8	-1E+10	1	-1E+10	1	-1E+10	1	-1E+10	1	-1E+10	1	-1E+10	1
4902554	70	C	01/13/2023	11:05	-132.936	48.367	0	79.10	0	8.6010	0	32.3380	0	25.097	0	78.419	0	-1e10	8	-1e10	8	-1E+10	1	-1E+10	1	-1E+10	1	-1E+10	1	-1E+10	1	-1E+10	1
4902554	70	C	01/13/2023	11:05	-132.936	48.367	0	79.90	0	8.5660	0	32.3410	0	25.104	0	79.212	0	-1e10	8	-1e10	8	-1E+10	1	-1E+10	1	-1E+10	1	-1E+10	1	-1E+10	1	-1E+10	1
4902554	70	C	01/13/2023	11:05	-132.936	48.367	0	81.10	0	8.5270	0	32.3410	0	25.110	0	80.401	0	-1e10	8	-1e10	8	-1E+10	1	-1E+10	1	-1E+10	1	-1E+10	1	-1E+10	1	-1E+10	1
4902554	70	C	01/13/2023	11:05	-132.936	48.367	0	81.90	0	8.5010	0	32.3430	0	25.116	0	81.194	0	-1e10	8	-1e10	8	-1E+10	1	-1E+10	1	-1E+10	1	-1E+10	1	-1E+10	1	-1E+10	1
4902554	70	C	01/13/2023	11:05	-132.936	48.367	0	83.10	0	8.4680	0	32.3410	0	25.119	0	82.383	0	-1e10	8	-1e10	8	-1E+10	1	-1E+10	1	-1E+10	1	-1E+10	1	-1E+10	1	-1E+10	1
4902554	70	C	01/13/2023	11:05	-132.936	48.367	0	83.90	0	8.3450	0	32.3320	0	25.130	0	83.176	0	-1e10	8	-1e10	8	-1E+10	1	-1E+10	1	-1E+10	1	-1E+10	1	-1E+10	1	-1E+10	1
4902554	70	C	01/13/2023	11:05	-132.936	48.367	0	85.10	0	8.2600	0	32.3270	0	25.139	0	84.366	0	-1e10	8	-1e10	8	-1E+10	1	-1E+10	1	-1E+10	1	-1E+10	1	-1E+10	1	-1E+10	1
4902554	70	C	01/13/2023	11:05	-132.936	48.367	0	85.90	0	8.2410	0	32.3300	0	25.144	0	85.159	0	-1e10	8	-1e10	8	-1E+10	1	-1E+10	1	-1E+10	1	-1E+10	1	-1E+10	1	-1E+10	1
4902554	70	C	01/13/2023	11:05	-132.936	48.367	0	87.10	0	8.2200	0	32.3310	0	25.148	0	86.348	0	-1e10	8	-1e10	8	-1E+10	1	-1E+10	1	-1E+10	1	-1E+10	1	-1E+10	1	-1E+10	1
4902554	70	C	01/13/2023	11:05	-132.936	48.367	0	88.10	0	8.2230	0	32.3340	0	25.150	0	87.339	0	-1e10	8	-1e10	8	-1E+10	1	-1E+10	1	-1E+10	1	-1E+10	1	-1E+10	1	-1E+10	1
4902554	70	C	01/13/2023	11:05	-132.936	48.367	0	89.20	0	8.2350	0	32.3380	0	25.151	0	88.429	0	-1e10	8	-1e10	8	-1E+10	1	-1E+10	1	-1E+10	1	-1E+10	1	-1E+10	1	-1E+10	1
4902554	70	C	01/13/2023	11:05	-132.936	48.367	0	89.80	0	8.1780	0	32.3420	0	25.163	0	89.024	0	-1e10	8	-1e10	8	-1E+10	1	-1E+10	1	-1E+10	1	-1E+10	1	-1E+10	1	-1E+10	1
4902554	70	C	01/13/2023	11:05	-132.936	48.367	0	90.90	0	8.0750	0	32.3500	0	25.184	0	90.114	0	-1e10	8	-1e10	8	-1E+10	1	-1E+10	1	-1E+10	1	-1E+10	1	-1E+10	1	-1E+10	1
4902554	70	C	01/13/2023	11:05	-132.936	48.367	0	92.30	0	8.0420	0	32.3480	0	25.187	0	91.502	0	-1e10	8	-1e10	8	-1E+10	1	-1E+10	1	-1E+10	1	-1E+10	1	-1E+10	1	-1E+10	1
4902554	70	C	01/13/2023	11:05	-132.936	48.367	0	93.00	0	8.0210	0	32.3510	0	25.193	0	92.196	0	-1e10	8	-1e10	8	-1E+10	1	-1E+10	1	-1E+10	1	-1E+10	1	-1E+10	1	-1E+10	1
4902554	70	C	01/13/2023	11:05	-132.936	48.367	0	93.90	0	8.0110	0	32.3490	0	25.192	0	93.088	0	-1e10	8	-1e10	8	-1E+10	1	-1E+10	1	-1E+10	1	-1E+10	1	-1E+10	1	-1E+10	1
4902554	70	C	01/13/2023	11:05	-132.936	48.367	0	95.00	0	7.9850	0	32.3470	0	25.195	0	94.178	0	-1e10	8	-1e10	8	-1E+10	1	-1E+10	1	-1E+10	1	-1E+10	1	-1E+10	1	-1E+10	1
4902554	70	C	01/13/2023	11:05	-132.936	48.367	0	96.00	0	7.7920	0	32.3610	0	25.233	0	95.169	0	-1e10	8	-1e10	8	-1E+10	1	-1E+10	1	-1E+10	1	-1E+10	1	-1E+10	1	-1E+10	1
4902554	70	C	01/13/2023	11:05	-132.936	48.367	0	96.90	0	7.5460	0	32.3810	0	25.283	0	96.061	0	-1e10	8	-1e10	8	-1E+10	1	-1E+10	1	-1E+10	1	-1E+10	1	-1E+10	1	-1E+10	1
4902554	70	C	01/13/2023	11:05	-132.936	48.367	0	97.80	0	7.4430	0	32.3980	0	25.311	0	96.953	0	-1e10	8	-1e10	8	-1E+10	1	-1E+10	1	-1E+10	1	-1E+10	1	-1E+10	1	-1E+10	1
4902554	70	C	01/13/2023	11:05	-132.936	48.367	0	98.90	0	7.3770	0	32.4100	0	25.330	0	98.043	0	-1e10	8	-1e10	8	-1E+10	1	-1E+10	1	-1E+10	1	-1E+10	1	-1E+10	1	-1E+10	1
4902554	70	C	01/13/2023	11:05	-132.936	48.367	0	100.00	0	7.3590	0	32.4130	0	25.334	0	99.133	0	-1e10	8	-1e10	8	-1E+10	1	-1E+10	1	-1E+10	1	-1E+10	1	-1E+10	1	-1E+10	1
4902554	70	C	01/13/2023	11:05	-132.936	48.367	0	100.90	0	7.3350	0	32.4150	0	25.339	0	100.025	0	-1e10	8	-1e10	8	-1E+10	1	-1E+10	1	-1E+10	1	-1E+10	1	-1E+10	1	-1E+10	1
4902554	70	C	01/13/2023	11:05	-132.936	48.367	0	101.80	0	7.2490	0	32.4330	0	25.365	0	100.917	0	-1e10	8	-1e10	8	-1E+10	1	-1E+10	1	-1E+10	1	-1E+10	1	-1E+10	1	-1E+10	1
4902554	70	C	01/13/2023	11:05	-132.936	48.367	0	103.00	0	7.1280	0	32.4670	0	25.408	0	102.107	0	-1e10	8	-1e10	8	-1E+10	1	-1E+10	1	-1E+10	1	-1E+10	1	-1E+10	1	-1E+10	1
4902554	70	C	01/13/2023	11:05	-132.936	48.367	0	104.00	0	7.1240	0	32.4640	0	25.406	0	103.098	0	-1e10	8	-1e10	8	-1E+10	1	-1E+10	1	-1E+10	1	-1E+10	1	-1E+10	1	-1E+10	1
4902554	70	C	01/13/2023	11:05	-132.936	48.367	0	104.80	0	7.1140	0	32.4690	0	25.412	0	103.891	0	-1e10	8	-1e10	8	-1E+10	1	-1E+10	1	-1E+10	1	-1E+10	1	-1E+10	1	-1E+10	1
4902554	70	C	01/13/2023	11:05	-132.936	48.367	0	106.10	0	7.0640	0	32.4760	0	25.424	0	105.179	0	-1e10	8	-1e10	8	-1E+10	1	-1E+10	1	-1E+10	1	-1E+10	1	-1E+10	1	-1E+10	1
4902554	70	C	01/13/2023	11:05	-132.936	48.367	0	107.00	0	7.0010	0	32.4890	0	25.443	0	106.071	0	-1e10	8	-1e10	8	-1E+10	1	-1E+10	1	-1E+10	1	-1E+10	1	-1E+10	1	-1E+10	1
4902554	70	C	01/13/2023	11:05	-132.936	48.367	0	107.90	0	6.9010	0	32.5150	0	25.476	0	106.963	0	-1e10	8	-1e10	8	-1E+10	1	-1E+10	1	-1E+10	1	-1E+10	1	-1E+10	1	-1E+10	1
4902554	70	C	01/13/2023	11:05	-132.936	48.367	0	108.90	0	6.8440	0	32.5310	0	25.496	0	107.954	0	-1e10	8	-1e10	8	-1E+10	1	-1E+10	1	-1E+10	1	-1E+10	1	-1E+10	1	-1E+10	1
4902554	70	C	01/13/2023	11:05	-132.936	48.367	0	109.80	0	6.8220	0	32.5350	0	25.502	0	108.846	0	-1e10	8	-1e10	8	-1E+10	1	-1E+10	1	-1E+10	1	-1E+10	1	-1E+10	1	-1E+10	1
4902554	70	C	01/13/2023	11:05	-132.936	48.367	0	110.80	0	6.8070	0	32.5390	0	25.508	0	109.837	0	-1e10	8	-1e10	8	-1E+10	1	-1E+10	1	-1E+10	1	-1E+10	1	-1E+10	1	-1E+10	1
4902554	70	C	01/13/2023	11:05	-132.936	48.367	0	112.00	0	6.7730	0	32.5460	0	25.518	0	111.026	0	-1e10	8	-1e10	8	-1E+10	1	-1E+10	1	-1E+10	1	-1E+10	1	-1E+10	1	-1E+10	1
4902554	70	C	01/13/2023	11:05	-132.936	48.367	0	113.10	0	6.6320	0	32.5930	0	25.573	0	112.116	0	-1e10	8	-1e10	8	-1E+10	1	-1E+10	1	-1E+10	1	-1E+10	1	-1E+10	1	-1E+10	1
4902554	70	C	01/13/2023	11:05	-132.936	48.367	0	114.00	0	6.5970	0	32.6060	0	25.588	0	113.008	0	-1e10	8	-1e10	8	-1E+10	1	-1E+10	1	-1E+10	1	-1E+10	1	-1E+10	1	-1E+10	1
4902554	70	C	01/13/2023	11:05	-132.936	48.367	0	114.90	0	6.4910	0	32.6730	0	25.654	0	113.900	0	-1e10	8	-1e10	8	-1E+10	1	-1E+10	1	-1E+10	1	-1E+10	1	-1E+10	1	-1E+10	1
4902554	70	C	01/13/2023	11:05	-132.936	48.367	0	115.80	0	6.4440	0	32.7020	0	25.683	0	114.792	0	-1e10	8	-1e10	8	-1E+10	1	-1E+10	1	-1E+10	1	-1E+10	1	-1E+10	1	-1E+10	1
4902554	70	C	01/13/2023	11:05	-132.936	48.367	0	116.80	0	6.4150	0	32.7250	0	25.705	0	115.783	0	-1e10	8	-1e10	8	-1E+10	1	-1E+10	1	-1E+10	1	-1E+10	1	-1E+10	1	-1E+10	1
4902554	70	C	01/13/2023	11:05	-132.936	48.367	0	117.90	0	6.3940	0	32.7450	0	25.723	0	116.873	0	-1e10	8	-1e10	8	-1E+10	1	-1E+10	1	-1E+10	1	-1E+10	1	-1E+10	1	-1E+10	1
4902554	70	C	01/13/2023	11:05	-132.936	48.367	0	118.90	0	6.3610	0	32.7820	0	25.757	0	117.864	0	-1e10	8	-1e10	8	-1E+10	1	-1E+10	1	-1E+10	1	-1E+10	1	-1E+10	1	-1E+10	1
4902554	70	C	01/13/2023	11:05	-132.936	48.367	0	119.80	0	6.3460	0	32.7960	0	25.770	0	118.756	0	-1e10	8	-1e10	8	-1E+10	1	-1E+10	1	-1E+10	1	-1E+10	1	-1E+10	1	-1E+10	1
4902554	70	C	01/13/2023	11:05	-132.936	48.367	0	120.70	0	6.3310	0	32.8160	0	25.787	0	119.648	0	-1e10	8	-1e10	8	-1E+10	1	-1E+10	1	-1E+10	1	-1E+10	1	-1E+10	1	-1E+10	1
4902554	70	C	01/13/2023	11:05	-132.936	48.367	0	121.70	0	6.3030	0	32.8440	0	25.813	0	120.639	0	-1e10	8	-1e10	8	-1E+10	1	-1E+10	1	-1E+10	1	-1E+10	1	-1E+10	1	-1E+10	1
4902554	70	C	01/13/2023	11:05	-132.936	48.367	0	122.80	0	6.2790	0	32.8690	0	25.836	0	121.729	0	-1e10	8	-1e10	8	-1E+10	1	-1E+10	1	-1E+10	1	-1E+10	1	-1E+10	1	-1E+10	1
4902554	70	C	01/13/2023	11:05	-132.936	48.367	0	123.90	0	6.2370	0	32.9180	0	25.880	0	122.819	0	-1e10	8	-1e10	8	-1E+10	1	-1E+10	1	-1E+10	1	-1E+10	1	-1E+10	1	-1E+10	1
4902554	70	C	01/13/2023	11:05	-132.936	48.367	0	124.80	0	6.2190	0	32.9400	0	25.899	0	123.711	0	-1e10	8	-1e10	8	-1E+10	1	-1E+10	1	-1E+10	1	-1E+10	1	-1E+10	1	-1E+10	1
4902554	70	C	01/13/2023	11:05	-132.936	48.367	0	125.80	0	6.1940	0	32.9690	0	25.925	0	124.702	0	-1e10	8	-1e10	8	-1E+10	1	-1E+10	1	-1E+10	1	-1E+10	1	-1E+10	1	-1E+10	1
4902554	70	C	01/13/2023	11:05	-132.936	48.367	0	127.00	0	6.1900	0	32.9720	0	25.928	0	125.891	0	-1e10	8	-1e10	8	-1E+10	1	-1E+10	1	-1E+10	1	-1E+10	1	-1E+10	1	-1E+10	1
4902554	70	C	01/13/2023	11:05	-132.936	48.367	0	128.10	0	6.1490	0	33.0250	0	25.975	0	126.981	0	-1e10	8	-1e10	8	-1E+10	1	-1E+10	1	-1E+10	1	-1E+10	1	-1E+10	1	-1E+10	1
4902554	70	C	01/13/2023	11:05	-132.936	48.367	0	128.80	0	6.1130	0	33.0710	0	26.016	0	127.675	0	-1e10	8	-1e10	8	-1E+10	1	-1E+10	1	-1E+10	1	-1E+10	1	-1E+10	1	-1E+10	1
4902554	70	C	01/13/2023	11:05	-132.936	48.367	0	129.80	0	6.0930	0	33.0960	0	26.038	0	128.666	0	-1e10	8	-1e10	8	-1E+10	1	-1E+10	1	-1E+10	1	-1E+10	1	-1E+10	1	-1E+10	1
4902554	70	C	01/13/2023	11:05	-132.936	48.367	0	130.90	0	6.0720	0	33.1240	0	26.063	0	129.756	0	-1e10	8	-1e10	8	-1E+10	1	-1E+10	1	-1E+10	1	-1E+10	1	-1E+10	1	-1E+10	1
4902554	70	C	01/13/2023	11:05	-132.936	48.367	0	131.90	0	6.0620	0	33.1340	0	26.072	0	130.747	0	-1e10	8	-1e10	8	-1E+10	1	-1E+10	1	-1E+10	1	-1E+10	1	-1E+10	1	-1E+10	1
4902554	70	C	01/13/2023	11:05	-132.936	48.367	0	133.00	0	6.0160	0	33.1900	0	26.122	0	131.837	0	-1e10	8	-1e10	8	-1E+10	1	-1E+10	1	-1E+10	1	-1E+10	1	-1E+10	1	-1E+10	1
4902554	70	C	01/13/2023	11:05	-132.936	48.367	0	133.80	0	5.9880	0	33.2250	0	26.153	0	132.630	0	-1e10	8	-1e10	8	-1E+10	1	-1E+10	1	-1E+10	1	-1E+10	1	-1E+10	1	-1E+10	1
4902554	70	C	01/13/2023	11:05	-132.936	48.367	0	134.60	0	5.9480	0	33.2760	0	26.198	0	133.423	0	-1e10	8	-1e10	8	-1E+10	1	-1E+10	1	-1E+10	1	-1E+10	1	-1E+10	1	-1E+10	1
4902554	70	C	01/13/2023	11:05	-132.936	48.367	0	135.90	0	5.9320	0	33.2940	0	26.215	0	134.711	0	-1e10	8	-1e10	8	-1E+10	1	-1E+10	1	-1E+10	1	-1E+10	1	-1E+10	1	-1E+10	1
4902554	70	C	01/13/2023	11:05	-132.936	48.367	0	137.20	0	5.9200	0	33.3080	0	26.227	0	135.999	0	-1e10	8	-1e10	8	-1E+10	1	-1E+10	1	-1E+10	1	-1E+10	1	-1E+10	1	-1E+10	1
4902554	70	C	01/13/2023	11:05	-132.936	48.367	0	138.00	0	5.9160	0	33.3120	0	26.231	0	136.792	0	-1e10	8	-1e10	8	-1E+10	1	-1E+10	1	-1E+10	1	-1E+10	1	-1E+10	1	-1E+10	1
4902554	70	C	01/13/2023	11:05	-132.936	48.367	0	138.90	0	5.9130	0	33.3160	0	26.234	0	137.683	0	-1e10	8	-1e10	8	-1E+10	1	-1E+10	1	-1E+10	1	-1E+10	1	-1E+10	1	-1E+10	1
4902554	70	C	01/13/2023	11:05	-132.936	48.367	0	139.70	0	5.9050	0	33.3260	0	26.243	0	138.476	0	-1e10	8	-1e10	8	-1E+10	1	-1E+10	1	-1E+10	1	-1E+10	1	-1E+10	1	-1E+10	1
4902554	70	C	01/13/2023	11:05	-132.936	48.367	0	141.00	0	5.8960	0	33.3350	0	26.251	0	139.764	0	-1e10	8	-1e10	8	-1E+10	1	-1E+10	1	-1E+10	1	-1E+10	1	-1E+10	1	-1E+10	1
4902554	70	C	01/13/2023	11:05	-132.936	48.367	0	142.30	0	5.8810	0	33.3540	0	26.268	0	141.053	0	-1e10	8	-1e10	8	-1E+10	1	-1E+10	1	-1E+10	1	-1E+10	1	-1E+10	1	-1E+10	1
4902554	70	C	01/13/2023	11:05	-132.936	48.367	0	143.20	0	5.8780	0	33.3570	0	26.271	0	141.944	0	-1e10	8	-1e10	8	-1E+10	1	-1E+10	1	-1E+10	1	-1E+10	1	-1E+10	1	-1E+10	1
4902554	70	C	01/13/2023	11:05	-132.936	48.367	0	144.00	0	5.8720	0	33.3670	0	26.280	0	142.737	0	-1e10	8	-1e10	8	-1E+10	1	-1E+10	1	-1E+10	1	-1E+10	1	-1E+10	1	-1E+10	1
4902554	70	C	01/13/2023	11:05	-132.936	48.367	0	144.90	0	5.8690	0	33.3690	0	26.282	0	143.629	0	-1e10	8	-1e10	8	-1E+10	1	-1E+10	1	-1E+10	1	-1E+10	1	-1E+10	1	-1E+10	1
4902554	70	C	01/13/2023	11:05	-132.936	48.367	0	145.80	0	5.8480	0	33.3940	0	26.304	0	144.521	0	-1e10	8	-1e10	8	-1E+10	1	-1E+10	1	-1E+10	1	-1E+10	1	-1E+10	1	-1E+10	1
4902554	70	C	01/13/2023	11:05	-132.936	48.367	0	146.70	0	5.8350	0	33.4070	0	26.316	0	145.412	0	-1e10	8	-1e10	8	-1E+10	1	-1E+10	1	-1E+10	1	-1E+10	1	-1E+10	1	-1E+10	1
4902554	70	C	01/13/2023	11:05	-132.936	48.367	0	147.60	0	5.8000	0	33.4500	0	26.354	0	146.304	0	-1e10	8	-1e10	8	-1E+10	1	-1E+10	1	-1E+10	1	-1E+10	1	-1E+10	1	-1E+10	1
4902554	70	C	01/13/2023	11:05	-132.936	48.367	0	148.50	0	5.7710	0	33.4810	0	26.382	0	147.196	0	-1e10	8	-1e10	8	-1E+10	1	-1E+10	1	-1E+10	1	-1E+10	1	-1E+10	1	-1E+10	1
4902554	70	C	01/13/2023	11:05	-132.936	48.367	0	149.50	0	5.7350	0	33.5180	0	26.416	0	148.187	0	-1e10	8	-1e10	8	-1E+10	1	-1E+10	1	-1E+10	1	-1E+10	1	-1E+10	1	-1E+10	1
4902554	70	C	01/13/2023	11:05	-132.936	48.367	0	150.50	0	5.7240	0	33.5280	0	26.425	0	149.178	0	-1e10	8	-1e10	8	-1E+10	1	-1E+10	1	-1E+10	1	-1E+10	1	-1E+10	1	-1E+10	1
4902554	70	C	01/13/2023	11:05	-132.936	48.367	0	151.90	0	5.7190	0	33.5320	0	26.429	0	150.565	0	-1e10	8	-1e10	8	-1E+10	1	-1E+10	1	-1E+10	1	-1E+10	1	-1E+10	1	-1E+10	1
4902554	70	C	01/13/2023	11:05	-132.936	48.367	0	153.30	0	5.7140	0	33.5370	0	26.433	0	151.952	0	-1e10	8	-1e10	8	-1E+10	1	-1E+10	1	-1E+10	1	-1E+10	1	-1E+10	1	-1E+10	1
4902554	70	C	01/13/2023	11:05	-132.936	48.367	0	154.20	0	5.6900	0	33.5580	0	26.453	0	152.844	0	-1e10	8	-1e10	8	-1E+10	1	-1E+10	1	-1E+10	1	-1E+10	1	-1E+10	1	-1E+10	1
4902554	70	C	01/13/2023	11:05	-132.936	48.367	0	154.90	0	5.6800	0	33.5650	0	26.460	0	153.537	0	-1e10	8	-1e10	8	-1E+10	1	-1E+10	1	-1E+10	1	-1E+10	1	-1E+10	1	-1E+10	1
4902554	70	C	01/13/2023	11:05	-132.936	48.367	0	156.00	0	5.6720	0	33.5730	0	26.467	0	154.627	0	-1e10	8	-1e10	8	-1E+10	1	-1E+10	1	-1E+10	1	-1E+10	1	-1E+10	1	-1E+10	1
4902554	70	C	01/13/2023	11:05	-132.936	48.367	0	157.20	0	5.6660	0	33.5780	0	26.472	0	155.816	0	-1e10	8	-1e10	8	-1E+10	1	-1E+10	1	-1E+10	1	-1E+10	1	-1E+10	1	-1E+10	1
4902554	70	C	01/13/2023	11:05	-132.936	48.367	0	157.90	0	5.6500	0	33.5910	0	26.484	0	156.510	0	-1e10	8	-1e10	8	-1E+10	1	-1E+10	1	-1E+10	1	-1E+10	1	-1E+10	1	-1E+10	1
4902554	70	C	01/13/2023	11:05	-132.936	48.367	0	159.00	0	5.6450	0	33.5940	0	26.487	0	157.600	0	-1e10	8	-1e10	8	-1E+10	1	-1E+10	1	-1E+10	1	-1E+10	1	-1E+10	1	-1E+10	1
4902554	70	C	01/13/2023	11:05	-132.936	48.367	0	160.20	0	5.6370	0	33.5990	0	26.492	0	158.789	0	-1e10	8	-1e10	8	-1E+10	1	-1E+10	1	-1E+10	1	-1E+10	1	-1E+10	1	-1E+10	1
4902554	70	C	01/13/2023	11:05	-132.936	48.367	0	160.90	0	5.6310	0	33.6020	0	26.495	0	159.482	0	-1e10	8	-1e10	8	-1E+10	1	-1E+10	1	-1E+10	1	-1E+10	1	-1E+10	1	-1E+10	1
4902554	70	C	01/13/2023	11:05	-132.936	48.367	0	161.70	0	5.6210	0	33.6080	0	26.501	0	160.275	0	-1e10	8	-1e10	8	-1E+10	1	-1E+10	1	-1E+10	1	-1E+10	1	-1E+10	1	-1E+10	1
4902554	70	C	01/13/2023	11:05	-132.936	48.367	0	162.90	0	5.6100	0	33.6140	0	26.507	0	161.464	0	-1e10	8	-1e10	8	-1E+10	1	-1E+10	1	-1E+10	1	-1E+10	1	-1E+10	1	-1E+10	1
4902554	70	C	01/13/2023	11:05	-132.936	48.367	0	164.10	0	5.5990	0	33.6210	0	26.514	0	162.653	0	-1e10	8	-1e10	8	-1E+10	1	-1E+10	1	-1E+10	1	-1E+10	1	-1E+10	1	-1E+10	1
4902554	70	C	01/13/2023	11:05	-132.936	48.367	0	164.90	0	5.5900	0	33.6260	0	26.519	0	163.445	0	-1e10	8	-1e10	8	-1E+10	1	-1E+10	1	-1E+10	1	-1E+10	1	-1E+10	1	-1E+10	1
4902554	70	C	01/13/2023	11:05	-132.936	48.367	0	165.80	0	5.5760	0	33.6330	0	26.526	0	164.337	0	-1e10	8	-1e10	8	-1E+10	1	-1E+10	1	-1E+10	1	-1E+10	1	-1E+10	1	-1E+10	1
4902554	70	C	01/13/2023	11:05	-132.936	48.367	0	167.00	0	5.5640	0	33.6400	0	26.533	0	165.526	0	-1e10	8	-1e10	8	-1E+10	1	-1E+10	1	-1E+10	1	-1E+10	1	-1E+10	1	-1E+10	1
4902554	70	C	01/13/2023	11:05	-132.936	48.367	0	168.20	0	5.5600	0	33.6430	0	26.536	0	166.715	0	-1e10	8	-1e10	8	-1E+10	1	-1E+10	1	-1E+10	1	-1E+10	1	-1E+10	1	-1E+10	1
4902554	70	C	01/13/2023	11:05	-132.936	48.367	0	169.00	0	5.5460	0	33.6490	0	26.542	0	167.508	0	-1e10	8	-1e10	8	-1E+10	1	-1E+10	1	-1E+10	1	-1E+10	1	-1E+10	1	-1E+10	1
4902554	70	C	01/13/2023	11:05	-132.936	48.367	0	169.90	0	5.5340	0	33.6530	0	26.547	0	168.399	0	-1e10	8	-1e10	8	-1E+10	1	-1E+10	1	-1E+10	1	-1E+10	1	-1E+10	1	-1E+10	1
4902554	70	C	01/13/2023	11:05	-132.936	48.367	0	170.70	0	5.5080	0	33.6660	0	26.560	0	169.192	0	-1e10	8	-1e10	8	-1E+10	1	-1E+10	1	-1E+10	1	-1E+10	1	-1E+10	1	-1E+10	1
4902554	70	C	01/13/2023	11:05	-132.936	48.367	0	172.00	0	5.4940	0	33.6710	0	26.566	0	170.480	0	-1e10	8	-1e10	8	-1E+10	1	-1E+10	1	-1E+10	1	-1E+10	1	-1E+10	1	-1E+10	1
4902554	70	C	01/13/2023	11:05	-132.936	48.367	0	173.20	0	5.4840	0	33.6750	0	26.570	0	171.669	0	-1e10	8	-1e10	8	-1E+10	1	-1E+10	1	-1E+10	1	-1E+10	1	-1E+10	1	-1E+10	1
4902554	70	C	01/13/2023	11:05	-132.936	48.367	0	174.10	0	5.4780	0	33.6770	0	26.573	0	172.560	0	-1e10	8	-1e10	8	-1E+10	1	-1E+10	1	-1E+10	1	-1E+10	1	-1E+10	1	-1E+10	1
4902554	70	C	01/13/2023	11:05	-132.936	48.367	0	174.90	0	5.4710	0	33.6800	0	26.576	0	173.353	0	-1e10	8	-1e10	8	-1E+10	1	-1E+10	1	-1E+10	1	-1E+10	1	-1E+10	1	-1E+10	1
4902554	70	C	01/13/2023	11:05	-132.936	48.367	0	175.80	0	5.4620	0	33.6830	0	26.579	0	174.245	0	-1e10	8	-1e10	8	-1E+10	1	-1E+10	1	-1E+10	1	-1E+10	1	-1E+10	1	-1E+10	1
4902554	70	C	01/13/2023	11:05	-132.936	48.367	0	176.60	0	5.4600	0	33.6840	0	26.580	0	175.037	0	-1e10	8	-1e10	8	-1E+10	1	-1E+10	1	-1E+10	1	-1E+10	1	-1E+10	1	-1E+10	1
4902554	70	C	01/13/2023	11:05	-132.936	48.367	0	177.90	0	5.4520	0	33.6860	0	26.583	0	176.325	0	-1e10	8	-1e10	8	-1E+10	1	-1E+10	1	-1E+10	1	-1E+10	1	-1E+10	1	-1E+10	1
4902554	70	C	01/13/2023	11:05	-132.936	48.367	0	179.20	0	5.4370	0	33.6910	0	26.589	0	177.613	0	-1e10	8	-1e10	8	-1E+10	1	-1E+10	1	-1E+10	1	-1E+10	1	-1E+10	1	-1E+10	1
4902554	70	C	01/13/2023	11:05	-132.936	48.367	0	180.10	0	5.4330	0	33.6920	0	26.590	0	178.505	0	-1e10	8	-1e10	8	-1E+10	1	-1E+10	1	-1E+10	1	-1E+10	1	-1E+10	1	-1E+10	1
4902554	70	C	01/13/2023	11:05	-132.936	48.367	0	180.90	0	5.4290	0	33.6930	0	26.591	0	179.297	0	-1e10	8	-1e10	8	-1E+10	1	-1E+10	1	-1E+10	1	-1E+10	1	-1E+10	1	-1E+10	1
4902554	70	C	01/13/2023	11:05	-132.936	48.367	0	181.80	0	5.4210	0	33.6960	0	26.595	0	180.189	0	-1e10	8	-1e10	8	-1E+10	1	-1E+10	1	-1E+10	1	-1E+10	1	-1E+10	1	-1E+10	1
4902554	70	C	01/13/2023	11:05	-132.936	48.367	0	182.60	0	5.4200	0	33.6960	0	26.595	0	180.982	0	-1e10	8	-1e10	8	-1E+10	1	-1E+10	1	-1E+10	1	-1E+10	1	-1E+10	1	-1E+10	1
4902554	70	C	01/13/2023	11:05	-132.936	48.367	0	183.90	0	5.4170	0	33.6960	0	26.595	0	182.269	0	-1e10	8	-1e10	8	-1E+10	1	-1E+10	1	-1E+10	1	-1E+10	1	-1E+10	1	-1E+10	1
4902554	70	C	01/13/2023	11:05	-132.936	48.367	0	185.20	0	5.4160	0	33.6970	0	26.596	0	183.557	0	-1e10	8	-1e10	8	-1E+10	1	-1E+10	1	-1E+10	1	-1E+10	1	-1E+10	1	-1E+10	1
4902554	70	C	01/13/2023	11:05	-132.936	48.367	0	186.10	0	5.4140	0	33.6980	0	26.597	0	184.449	0	-1e10	8	-1e10	8	-1E+10	1	-1E+10	1	-1E+10	1	-1E+10	1	-1E+10	1	-1E+10	1
4902554	70	C	01/13/2023	11:05	-132.936	48.367	0	187.00	0	5.4130	0	33.6970	0	26.596	0	185.341	0	-1e10	8	-1e10	8	-1E+10	1	-1E+10	1	-1E+10	1	-1E+10	1	-1E+10	1	-1E+10	1
4902554	70	C	01/13/2023	11:05	-132.936	48.367	0	187.90	0	5.4100	0	33.6980	0	26.597	0	186.232	0	-1e10	8	-1e10	8	-1E+10	1	-1E+10	1	-1E+10	1	-1E+10	1	-1E+10	1	-1E+10	1
4902554	70	C	01/13/2023	11:05	-132.936	48.367	0	188.80	0	5.4080	0	33.6990	0	26.599	0	187.124	0	-1e10	8	-1e10	8	-1E+10	1	-1E+10	1	-1E+10	1	-1E+10	1	-1E+10	1	-1E+10	1
4902554	70	C	01/13/2023	11:05	-132.936	48.367	0	189.70	0	5.4070	0	33.6990	0	26.599	0	188.015	0	-1e10	8	-1e10	8	-1E+10	1	-1E+10	1	-1E+10	1	-1E+10	1	-1E+10	1	-1E+10	1
4902554	70	C	01/13/2023	11:05	-132.936	48.367	0	190.90	0	5.4020	0	33.7000	0	26.600	0	189.204	0	-1e10	8	-1e10	8	-1E+10	1	-1E+10	1	-1E+10	1	-1E+10	1	-1E+10	1	-1E+10	1
4902554	70	C	01/13/2023	11:05	-132.936	48.367	0	192.30	0	5.3980	0	33.7000	0	26.601	0	190.591	0	-1e10	8	-1e10	8	-1E+10	1	-1E+10	1	-1E+10	1	-1E+10	1	-1E+10	1	-1E+10	1
4902554	70	C	01/13/2023	11:05	-132.936	48.367	0	193.20	0	5.3850	0	33.7050	0	26.606	0	191.483	0	-1e10	8	-1e10	8	-1E+10	1	-1E+10	1	-1E+10	1	-1E+10	1	-1E+10	1	-1E+10	1
4902554	70	C	01/13/2023	11:05	-132.936	48.367	0	194.10	0	5.3770	0	33.7050	0	26.607	0	192.374	0	-1e10	8	-1e10	8	-1E+10	1	-1E+10	1	-1E+10	1	-1E+10	1	-1E+10	1	-1E+10	1
4902554	70	C	01/13/2023	11:05	-132.936	48.367	0	195.00	0	5.3690	0	33.7070	0	26.609	0	193.266	0	-1e10	8	-1e10	8	-1E+10	1	-1E+10	1	-1E+10	1	-1E+10	1	-1E+10	1	-1E+10	1
4902554	70	C	01/13/2023	11:05	-132.936	48.367	0	195.90	0	5.3640	0	33.7070	0	26.610	0	194.157	0	-1e10	8	-1e10	8	-1E+10	1	-1E+10	1	-1E+10	1	-1E+10	1	-1E+10	1	-1E+10	1
4902554	70	C	01/13/2023	11:05	-132.936	48.367	0	196.80	0	5.3560	0	33.7090	0	26.613	0	195.049	0	-1e10	8	-1e10	8	-1E+10	1	-1E+10	1	-1E+10	1	-1E+10	1	-1E+10	1	-1E+10	1
4902554	70	C	01/13/2023	11:05	-132.936	48.367	0	197.70	0	5.3450	0	33.7110	0	26.615	0	195.941	0	-1e10	8	-1e10	8	-1E+10	1	-1E+10	1	-1E+10	1	-1E+10	1	-1E+10	1	-1E+10	1
4902554	70	C	01/13/2023	11:05	-132.936	48.367	0	198.60	0	5.3390	0	33.7120	0	26.617	0	196.832	0	-1e10	8	-1e10	8	-1E+10	1	-1E+10	1	-1E+10	1	-1E+10	1	-1E+10	1	-1E+10	1
4902554	70	C	01/13/2023	11:05	-132.936	48.367	0	199.60	0	5.3210	0	33.7150	0	26.621	0	197.823	0	-1e10	8	-1e10	8	-1E+10	1	-1E+10	1	-1E+10	1	-1E+10	1	-1E+10	1	-1E+10	1
4902554	70	C	01/13/2023	11:05	-132.936	48.367	0	200.50	0	5.2960	0	33.7190	0	26.628	0	198.714	0	-1e10	8	-1e10	8	-1E+10	1	-1E+10	1	-1E+10	1	-1E+10	1	-1E+10	1	-1E+10	1
4902554	70	C	01/13/2023	11:05	-132.936	48.367	0	201.90	0	5.2760	0	33.7220	0	26.632	0	200.101	0	-1e10	8	-1e10	8	-1E+10	1	-1E+10	1	-1E+10	1	-1E+10	1	-1E+10	1	-1E+10	1
4902554	70	C	01/13/2023	11:05	-132.936	48.367	0	203.30	0	5.2620	0	33.7240	0	26.636	0	201.488	0	-1e10	8	-1e10	8	-1E+10	1	-1E+10	1	-1E+10	1	-1E+10	1	-1E+10	1	-1E+10	1
4902554	70	C	01/13/2023	11:05	-132.936	48.367	0	204.30	0	5.2580	0	33.7240	0	26.636	0	202.479	0	-1e10	8	-1e10	8	-1E+10	1	-1E+10	1	-1E+10	1	-1E+10	1	-1E+10	1	-1E+10	1
4902554	70	C	01/13/2023	11:05	-132.936	48.367	0	205.20	0	5.2550	0	33.7240	0	26.636	0	203.370	0	-1e10	8	-1e10	8	-1E+10	1	-1E+10	1	-1E+10	1	-1E+10	1	-1E+10	1	-1E+10	1
4902554	70	C	01/13/2023	11:05	-132.936	48.367	0	206.20	0	5.2350	0	33.7270	0	26.641	0	204.361	0	-1e10	8	-1e10	8	-1E+10	1	-1E+10	1	-1E+10	1	-1E+10	1	-1E+10	1	-1E+10	1
4902554	70	C	01/13/2023	11:05	-132.936	48.367	0	207.10	0	5.2290	0	33.7270	0	26.642	0	205.252	0	-1e10	8	-1e10	8	-1E+10	1	-1E+10	1	-1E+10	1	-1E+10	1	-1E+10	1	-1E+10	1
4902554	70	C	01/13/2023	11:05	-132.936	48.367	0	208.10	0	5.2080	0	33.7300	0	26.647	0	206.243	0	-1e10	8	-1e10	8	-1E+10	1	-1E+10	1	-1E+10	1	-1E+10	1	-1E+10	1	-1E+10	1
4902554	70	C	01/13/2023	11:05	-132.936	48.367	0	209.10	0	5.1920	0	33.7330	0	26.651	0	207.233	0	-1e10	8	-1e10	8	-1E+10	1	-1E+10	1	-1E+10	1	-1E+10	1	-1E+10	1	-1E+10	1
4902554	70	C	01/13/2023	11:05	-132.936	48.367	0	210.00	0	5.1710	0	33.7350	0	26.655	0	208.125	0	-1e10	8	-1e10	8	-1E+10	1	-1E+10	1	-1E+10	1	-1E+10	1	-1E+10	1	-1E+10	1
4902554	70	C	01/13/2023	11:05	-132.936	48.367	0	211.00	0	5.1680	0	33.7350	0	26.655	0	209.115	0	-1e10	8	-1e10	8	-1E+10	1	-1E+10	1	-1E+10	1	-1E+10	1	-1E+10	1	-1E+10	1
4902554	70	C	01/13/2023	11:05	-132.936	48.367	0	212.00	0	5.1670	0	33.7340	0	26.655	0	210.106	0	-1e10	8	-1e10	8	-1E+10	1	-1E+10	1	-1E+10	1	-1E+10	1	-1E+10	1	-1E+10	1
4902554	70	C	01/13/2023	11:05	-132.936	48.367	0	213.00	0	5.1580	0	33.7350	0	26.656	0	211.097	0	-1e10	8	-1e10	8	-1E+10	1	-1E+10	1	-1E+10	1	-1E+10	1	-1E+10	1	-1E+10	1
4902554	70	C	01/13/2023	11:05	-132.936	48.367	0	214.00	0	5.1300	0	33.7370	0	26.661	0	212.087	0	-1e10	8	-1e10	8	-1E+10	1	-1E+10	1	-1E+10	1	-1E+10	1	-1E+10	1	-1E+10	1
4902554	70	C	01/13/2023	11:05	-132.936	48.367	0	214.90	0	5.1150	0	33.7390	0	26.664	0	212.979	0	-1e10	8	-1e10	8	-1E+10	1	-1E+10	1	-1E+10	1	-1E+10	1	-1E+10	1	-1E+10	1
4902554	70	C	01/13/2023	11:05	-132.936	48.367	0	215.90	0	5.1040	0	33.7410	0	26.667	0	213.969	0	-1e10	8	-1e10	8	-1E+10	1	-1E+10	1	-1E+10	1	-1E+10	1	-1E+10	1	-1E+10	1
4902554	70	C	01/13/2023	11:05	-132.936	48.367	0	216.90	0	5.1000	0	33.7410	0	26.668	0	214.960	0	-1e10	8	-1e10	8	-1E+10	1	-1E+10	1	-1E+10	1	-1E+10	1	-1E+10	1	-1E+10	1
4902554	70	C	01/13/2023	11:05	-132.936	48.367	0	217.90	0	5.0960	0	33.7400	0	26.667	0	215.950	0	-1e10	8	-1e10	8	-1E+10	1	-1E+10	1	-1E+10	1	-1E+10	1	-1E+10	1	-1E+10	1
4902554	70	C	01/13/2023	11:05	-132.936	48.367	0	218.80	0	5.0800	0	33.7430	0	26.672	0	216.842	0	-1e10	8	-1e10	8	-1E+10	1	-1E+10	1	-1E+10	1	-1E+10	1	-1E+10	1	-1E+10	1
4902554	70	C	01/13/2023	11:05	-132.936	48.367	0	219.80	0	5.0630	0	33.7440	0	26.674	0	217.832	0	-1e10	8	-1e10	8	-1E+10	1	-1E+10	1	-1E+10	1	-1E+10	1	-1E+10	1	-1E+10	1
4902554	70	C	01/13/2023	11:05	-132.936	48.367	0	220.80	0	5.0420	0	33.7470	0	26.679	0	218.823	0	-1e10	8	-1e10	8	-1E+10	1	-1E+10	1	-1E+10	1	-1E+10	1	-1E+10	1	-1E+10	1
4902554	70	C	01/13/2023	11:05	-132.936	48.367	0	221.70	0	5.0310	0	33.7480	0	26.681	0	219.714	0	-1e10	8	-1e10	8	-1E+10	1	-1E+10	1	-1E+10	1	-1E+10	1	-1E+10	1	-1E+10	1
4902554	70	C	01/13/2023	11:05	-132.936	48.367	0	222.70	0	5.0290	0	33.7480	0	26.681	0	220.705	0	-1e10	8	-1e10	8	-1E+10	1	-1E+10	1	-1E+10	1	-1E+10	1	-1E+10	1	-1E+10	1
4902554	70	C	01/13/2023	11:05	-132.936	48.367	0	223.60	0	5.0010	0	33.7520	0	26.688	0	221.596	0	-1e10	8	-1e10	8	-1E+10	1	-1E+10	1	-1E+10	1	-1E+10	1	-1E+10	1	-1E+10	1
4902554	70	C	01/13/2023	11:05	-132.936	48.367	0	224.70	0	4.9890	0	33.7540	0	26.691	0	222.686	0	-1e10	8	-1e10	8	-1E+10	1	-1E+10	1	-1E+10	1	-1E+10	1	-1E+10	1	-1E+10	1
4902554	70	C	01/13/2023	11:05	-132.936	48.367	0	225.60	0	4.9750	0	33.7550	0	26.693	0	223.577	0	-1e10	8	-1e10	8	-1E+10	1	-1E+10	1	-1E+10	1	-1E+10	1	-1E+10	1	-1E+10	1
4902554	70	C	01/13/2023	11:05	-132.936	48.367	0	226.60	0	4.9700	0	33.7550	0	26.694	0	224.568	0	-1e10	8	-1e10	8	-1E+10	1	-1E+10	1	-1E+10	1	-1E+10	1	-1E+10	1	-1E+10	1
4902554	70	C	01/13/2023	11:05	-132.936	48.367	0	227.60	0	4.9700	0	33.7540	0	26.693	0	225.558	0	-1e10	8	-1e10	8	-1E+10	1	-1E+10	1	-1E+10	1	-1E+10	1	-1E+10	1	-1E+10	1
4902554	70	C	01/13/2023	11:05	-132.936	48.367	0	228.50	0	4.9690	0	33.7530	0	26.692	0	226.450	0	-1e10	8	-1e10	8	-1E+10	1	-1E+10	1	-1E+10	1	-1E+10	1	-1E+10	1	-1E+10	1
4902554	70	C	01/13/2023	11:05	-132.936	48.367	0	229.50	0	4.9670	0	33.7530	0	26.692	0	227.440	0	-1e10	8	-1e10	8	-1E+10	1	-1E+10	1	-1E+10	1	-1E+10	1	-1E+10	1	-1E+10	1
4902554	70	C	01/13/2023	11:05	-132.936	48.367	0	230.50	0	4.9190	0	33.7610	0	26.704	0	228.431	0	-1e10	8	-1e10	8	-1E+10	1	-1E+10	1	-1E+10	1	-1E+10	1	-1E+10	1	-1E+10	1
4902554	70	C	01/13/2023	11:05	-132.936	48.367	0	231.50	0	4.9130	0	33.7600	0	26.704	0	229.421	0	-1e10	8	-1e10	8	-1E+10	1	-1E+10	1	-1E+10	1	-1E+10	1	-1E+10	1	-1E+10	1
4902554	70	C	01/13/2023	11:05	-132.936	48.367	0	232.90	0	4.9060	0	33.7610	0	26.706	0	230.808	0	-1e10	8	-1e10	8	-1E+10	1	-1E+10	1	-1E+10	1	-1E+10	1	-1E+10	1	-1E+10	1
4902554	70	C	01/13/2023	11:05	-132.936	48.367	0	234.40	0	4.8980	0	33.7610	0	26.707	0	232.293	0	-1e10	8	-1e10	8	-1E+10	1	-1E+10	1	-1E+10	1	-1E+10	1	-1E+10	1	-1E+10	1
4902554	70	C	01/13/2023	11:05	-132.936	48.367	0	235.30	0	4.8950	0	33.7610	0	26.707	0	233.185	0	-1e10	8	-1e10	8	-1E+10	1	-1E+10	1	-1E+10	1	-1E+10	1	-1E+10	1	-1E+10	1
4902554	70	C	01/13/2023	11:05	-132.936	48.367	0	236.30	0	4.8810	0	33.7630	0	26.710	0	234.175	0	-1e10	8	-1e10	8	-1E+10	1	-1E+10	1	-1E+10	1	-1E+10	1	-1E+10	1	-1E+10	1
4902554	70	C	01/13/2023	11:05	-132.936	48.367	0	237.30	0	4.8700	0	33.7660	0	26.714	0	235.166	0	-1e10	8	-1e10	8	-1E+10	1	-1E+10	1	-1E+10	1	-1E+10	1	-1E+10	1	-1E+10	1
4902554	70	C	01/13/2023	11:05	-132.936	48.367	0	238.30	0	4.8650	0	33.7650	0	26.714	0	236.156	0	-1e10	8	-1e10	8	-1E+10	1	-1E+10	1	-1E+10	1	-1E+10	1	-1E+10	1	-1E+10	1
4902554	70	C	01/13/2023	11:05	-132.936	48.367	0	239.20	0	4.8520	0	33.7670	0	26.717	0	237.047	0	-1e10	8	-1e10	8	-1E+10	1	-1E+10	1	-1E+10	1	-1E+10	1	-1E+10	1	-1E+10	1
4902554	70	C	01/13/2023	11:05	-132.936	48.367	0	240.20	0	4.8500	0	33.7680	0	26.718	0	238.038	0	-1e10	8	-1e10	8	-1E+10	1	-1E+10	1	-1E+10	1	-1E+10	1	-1E+10	1	-1E+10	1
4902554	70	C	01/13/2023	11:05	-132.936	48.367	0	241.20	0	4.8480	0	33.7680	0	26.718	0	239.028	0	-1e10	8	-1e10	8	-1E+10	1	-1E+10	1	-1E+10	1	-1E+10	1	-1E+10	1	-1E+10	1
4902554	70	C	01/13/2023	11:05	-132.936	48.367	0	242.10	0	4.8440	0	33.7680	0	26.718	0	239.920	0	-1e10	8	-1e10	8	-1E+10	1	-1E+10	1	-1E+10	1	-1E+10	1	-1E+10	1	-1E+10	1
4902554	70	C	01/13/2023	11:05	-132.936	48.367	0	243.00	0	4.8340	0	33.7690	0	26.720	0	240.811	0	-1e10	8	-1e10	8	-1E+10	1	-1E+10	1	-1E+10	1	-1E+10	1	-1E+10	1	-1E+10	1
4902554	70	C	01/13/2023	11:05	-132.936	48.367	0	244.00	0	4.8220	0	33.7710	0	26.723	0	241.801	0	-1e10	8	-1e10	8	-1E+10	1	-1E+10	1	-1E+10	1	-1E+10	1	-1E+10	1	-1E+10	1
4902554	70	C	01/13/2023	11:05	-132.936	48.367	0	245.00	0	4.8100	0	33.7730	0	26.726	0	242.792	0	-1e10	8	-1e10	8	-1E+10	1	-1E+10	1	-1E+10	1	-1E+10	1	-1E+10	1	-1E+10	1
4902554	70	C	01/13/2023	11:05	-132.936	48.367	0	245.90	0	4.8040	0	33.7720	0	26.726	0	243.683	0	-1e10	8	-1e10	8	-1E+10	1	-1E+10	1	-1E+10	1	-1E+10	1	-1E+10	1	-1E+10	1
4902554	70	C	01/13/2023	11:05	-132.936	48.367	0	246.90	0	4.7730	0	33.7770	0	26.733	0	244.674	0	-1e10	8	-1e10	8	-1E+10	1	-1E+10	1	-1E+10	1	-1E+10	1	-1E+10	1	-1E+10	1
4902554	70	C	01/13/2023	11:05	-132.936	48.367	0	247.90	0	4.7680	0	33.7760	0	26.733	0	245.664	0	-1e10	8	-1e10	8	-1E+10	1	-1E+10	1	-1E+10	1	-1E+10	1	-1E+10	1	-1E+10	1
4902554	70	C	01/13/2023	11:05	-132.936	48.367	0	248.80	0	4.7610	0	33.7770	0	26.735	0	246.555	0	-1e10	8	-1e10	8	-1E+10	1	-1E+10	1	-1E+10	1	-1E+10	1	-1E+10	1	-1E+10	1
4902554	70	C	01/13/2023	11:05	-132.936	48.367	0	249.80	0	4.7560	0	33.7780	0	26.736	0	247.546	0	-1e10	8	-1e10	8	-1E+10	1	-1E+10	1	-1E+10	1	-1E+10	1	-1E+10	1	-1E+10	1
4902554	70	C	01/13/2023	11:05	-132.936	48.367	0	250.70	0	4.7380	0	33.7820	0	26.741	0	248.437	0	-1e10	8	-1e10	8	-1E+10	1	-1E+10	1	-1E+10	1	-1E+10	1	-1E+10	1	-1E+10	1
4902554	70	C	01/13/2023	11:05	-132.936	48.367	0	251.70	0	4.7200	0	33.7840	0	26.745	0	249.427	0	-1e10	8	-1e10	8	-1E+10	1	-1E+10	1	-1E+10	1	-1E+10	1	-1E+10	1	-1E+10	1
4902554	70	C	01/13/2023	11:05	-132.936	48.367	0	252.70	0	4.7100	0	33.7850	0	26.747	0	250.418	0	-1e10	8	-1e10	8	-1E+10	1	-1E+10	1	-1E+10	1	-1E+10	1	-1E+10	1	-1E+10	1
4902554	70	C	01/13/2023	11:05	-132.936	48.367	0	253.70	0	4.7040	0	33.7860	0	26.748	0	251.408	0	-1e10	8	-1e10	8	-1E+10	1	-1E+10	1	-1E+10	1	-1E+10	1	-1E+10	1	-1E+10	1
4902554	70	C	01/13/2023	11:05	-132.936	48.367	0	254.60	0	4.6940	0	33.7880	0	26.751	0	252.300	0	-1e10	8	-1e10	8	-1E+10	1	-1E+10	1	-1E+10	1	-1E+10	1	-1E+10	1	-1E+10	1
4902554	70	C	01/13/2023	11:05	-132.936	48.367	0	255.60	0	4.6900	0	33.7900	0	26.753	0	253.290	0	-1e10	8	-1e10	8	-1E+10	1	-1E+10	1	-1E+10	1	-1E+10	1	-1E+10	1	-1E+10	1
4902554	70	C	01/13/2023	11:05	-132.936	48.367	0	256.50	0	4.6860	0	33.7910	0	26.754	0	254.181	0	-1e10	8	-1e10	8	-1E+10	1	-1E+10	1	-1E+10	1	-1E+10	1	-1E+10	1	-1E+10	1
4902554	70	C	01/13/2023	11:05	-132.936	48.367	0	257.50	0	4.6840	0	33.7920	0	26.755	0	255.172	0	-1e10	8	-1e10	8	-1E+10	1	-1E+10	1	-1E+10	1	-1E+10	1	-1E+10	1	-1E+10	1
4902554	70	C	01/13/2023	11:05	-132.936	48.367	0	258.90	0	4.6790	0	33.7940	0	26.757	0	256.558	0	-1e10	8	-1e10	8	-1E+10	1	-1E+10	1	-1E+10	1	-1E+10	1	-1E+10	1	-1E+10	1
4902554	70	C	01/13/2023	11:05	-132.936	48.367	0	260.40	0	4.6760	0	33.7960	0	26.759	0	258.043	0	-1e10	8	-1e10	8	-1E+10	1	-1E+10	1	-1E+10	1	-1E+10	1	-1E+10	1	-1E+10	1
4902554	70	C	01/13/2023	11:05	-132.936	48.367	0	261.40	0	4.6730	0	33.7970	0	26.760	0	259.034	0	-1e10	8	-1e10	8	-1E+10	1	-1E+10	1	-1E+10	1	-1E+10	1	-1E+10	1	-1E+10	1
4902554	70	C	01/13/2023	11:05	-132.936	48.367	0	262.40	0	4.6650	0	33.8000	0	26.764	0	260.024	0	-1e10	8	-1e10	8	-1E+10	1	-1E+10	1	-1E+10	1	-1E+10	1	-1E+10	1	-1E+10	1
4902554	70	C	01/13/2023	11:05	-132.936	48.367	0	263.40	0	4.6660	0	33.7990	0	26.763	0	261.014	0	-1e10	8	-1e10	8	-1E+10	1	-1E+10	1	-1E+10	1	-1E+10	1	-1E+10	1	-1E+10	1
4902554	70	C	01/13/2023	11:05	-132.936	48.367	0	264.40	0	4.6650	0	33.8000	0	26.764	0	262.005	0	-1e10	8	-1e10	8	-1E+10	1	-1E+10	1	-1E+10	1	-1E+10	1	-1E+10	1	-1E+10	1
4902554	70	C	01/13/2023	11:05	-132.936	48.367	0	265.40	0	4.6640	0	33.8000	0	26.764	0	262.995	0	-1e10	8	-1e10	8	-1E+10	1	-1E+10	1	-1E+10	1	-1E+10	1	-1E+10	1	-1E+10	1
4902554	70	C	01/13/2023	11:05	-132.936	48.367	0	266.40	0	4.6640	0	33.8010	0	26.764	0	263.985	0	-1e10	8	-1e10	8	-1E+10	1	-1E+10	1	-1E+10	1	-1E+10	1	-1E+10	1	-1E+10	1
4902554	70	C	01/13/2023	11:05	-132.936	48.367	0	267.40	0	4.6640	0	33.8000	0	26.764	0	264.976	0	-1e10	8	-1e10	8	-1E+10	1	-1E+10	1	-1E+10	1	-1E+10	1	-1E+10	1	-1E+10	1
4902554	70	C	01/13/2023	11:05	-132.936	48.367	0	268.40	0	4.6640	0	33.8010	0	26.765	0	265.966	0	-1e10	8	-1e10	8	-1E+10	1	-1E+10	1	-1E+10	1	-1E+10	1	-1E+10	1	-1E+10	1
4902554	70	C	01/13/2023	11:05	-132.936	48.367	0	269.40	0	4.6640	0	33.8010	0	26.765	0	266.956	0	-1e10	8	-1e10	8	-1E+10	1	-1E+10	1	-1E+10	1	-1E+10	1	-1E+10	1	-1E+10	1
4902554	70	C	01/13/2023	11:05	-132.936	48.367	0	270.40	0	4.6630	0	33.8020	0	26.765	0	267.947	0	-1e10	8	-1e10	8	-1E+10	1	-1E+10	1	-1E+10	1	-1E+10	1	-1E+10	1	-1E+10	1
4902554	70	C	01/13/2023	11:05	-132.936	48.367	0	271.50	0	4.6600	0	33.8030	0	26.767	0	269.036	0	-1e10	8	-1e10	8	-1E+10	1	-1E+10	1	-1E+10	1	-1E+10	1	-1E+10	1	-1E+10	1
4902554	70	C	01/13/2023	11:05	-132.936	48.367	0	272.50	0	4.6590	0	33.8040	0	26.767	0	270.026	0	-1e10	8	-1e10	8	-1E+10	1	-1E+10	1	-1E+10	1	-1E+10	1	-1E+10	1	-1E+10	1
4902554	70	C	01/13/2023	11:05	-132.936	48.367	0	273.50	0	4.6580	0	33.8030	0	26.767	0	271.016	0	-1e10	8	-1e10	8	-1E+10	1	-1E+10	1	-1E+10	1	-1E+10	1	-1E+10	1	-1E+10	1
4902554	70	C	01/13/2023	11:05	-132.936	48.367	0	274.50	0	4.6500	0	33.8070	0	26.771	0	272.007	0	-1e10	8	-1e10	8	-1E+10	1	-1E+10	1	-1E+10	1	-1E+10	1	-1E+10	1	-1E+10	1
4902554	70	C	01/13/2023	11:05	-132.936	48.367	0	275.50	0	4.6460	0	33.8080	0	26.772	0	272.997	0	-1e10	8	-1e10	8	-1E+10	1	-1E+10	1	-1E+10	1	-1E+10	1	-1E+10	1	-1E+10	1
4902554	70	C	01/13/2023	11:05	-132.936	48.367	0	276.60	0	4.6440	0	33.8080	0	26.772	0	274.086	0	-1e10	8	-1e10	8	-1E+10	1	-1E+10	1	-1E+10	1	-1E+10	1	-1E+10	1	-1E+10	1
4902554	70	C	01/13/2023	11:05	-132.936	48.367	0	277.60	0	4.6390	0	33.8100	0	26.774	0	275.076	0	-1e10	8	-1e10	8	-1E+10	1	-1E+10	1	-1E+10	1	-1E+10	1	-1E+10	1	-1E+10	1
4902554	70	C	01/13/2023	11:05	-132.936	48.367	0	278.60	0	4.6280	0	33.8140	0	26.779	0	276.067	0	-1e10	8	-1e10	8	-1E+10	1	-1E+10	1	-1E+10	1	-1E+10	1	-1E+10	1	-1E+10	1
4902554	70	C	01/13/2023	11:05	-132.936	48.367	0	279.60	0	4.6220	0	33.8150	0	26.780	0	277.057	0	-1e10	8	-1e10	8	-1E+10	1	-1E+10	1	-1E+10	1	-1E+10	1	-1E+10	1	-1E+10	1
4902554	70	C	01/13/2023	11:05	-132.936	48.367	0	280.70	0	4.6170	0	33.8150	0	26.781	0	278.146	0	-1e10	8	-1e10	8	-1E+10	1	-1E+10	1	-1E+10	1	-1E+10	1	-1E+10	1	-1E+10	1
4902554	70	C	01/13/2023	11:05	-132.936	48.367	0	281.70	0	4.6080	0	33.8180	0	26.784	0	279.136	0	-1e10	8	-1e10	8	-1E+10	1	-1E+10	1	-1E+10	1	-1E+10	1	-1E+10	1	-1E+10	1
4902554	70	C	01/13/2023	11:05	-132.936	48.367	0	282.70	0	4.5950	0	33.8210	0	26.788	0	280.127	0	-1e10	8	-1e10	8	-1E+10	1	-1E+10	1	-1E+10	1	-1E+10	1	-1E+10	1	-1E+10	1
4902554	70	C	01/13/2023	11:05	-132.936	48.367	0	283.80	0	4.5860	0	33.8210	0	26.789	0	281.216	0	-1e10	8	-1e10	8	-1E+10	1	-1E+10	1	-1E+10	1	-1E+10	1	-1E+10	1	-1E+10	1
4902554	70	C	01/13/2023	11:05	-132.936	48.367	0	284.80	0	4.5750	0	33.8230	0	26.792	0	282.206	0	-1e10	8	-1e10	8	-1E+10	1	-1E+10	1	-1E+10	1	-1E+10	1	-1E+10	1	-1E+10	1
4902554	70	C	01/13/2023	11:05	-132.936	48.367	0	285.90	0	4.5700	0	33.8220	0	26.792	0	283.295	0	-1e10	8	-1e10	8	-1E+10	1	-1E+10	1	-1E+10	1	-1E+10	1	-1E+10	1	-1E+10	1
4902554	70	C	01/13/2023	11:05	-132.936	48.367	0	286.90	0	4.5660	0	33.8230	0	26.793	0	284.285	0	-1e10	8	-1e10	8	-1E+10	1	-1E+10	1	-1E+10	1	-1E+10	1	-1E+10	1	-1E+10	1
4902554	70	C	01/13/2023	11:05	-132.936	48.367	0	288.00	0	4.5440	0	33.8240	0	26.796	0	285.375	0	-1e10	8	-1e10	8	-1E+10	1	-1E+10	1	-1E+10	1	-1E+10	1	-1E+10	1	-1E+10	1
4902554	70	C	01/13/2023	11:05	-132.936	48.367	0	289.00	0	4.5260	0	33.8290	0	26.802	0	286.365	0	-1e10	8	-1e10	8	-1E+10	1	-1E+10	1	-1E+10	1	-1E+10	1	-1E+10	1	-1E+10	1
4902554	70	C	01/13/2023	11:05	-132.936	48.367	0	290.10	0	4.5030	0	33.8330	0	26.808	0	287.454	0	-1e10	8	-1e10	8	-1E+10	1	-1E+10	1	-1E+10	1	-1E+10	1	-1E+10	1	-1E+10	1
4902554	70	C	01/13/2023	11:05	-132.936	48.367	0	291.20	0	4.4910	0	33.8340	0	26.810	0	288.543	0	-1e10	8	-1e10	8	-1E+10	1	-1E+10	1	-1E+10	1	-1E+10	1	-1E+10	1	-1E+10	1
4902554	70	C	01/13/2023	11:05	-132.936	48.367	0	292.20	0	4.4910	0	33.8350	0	26.810	0	289.533	0	-1e10	8	-1e10	8	-1E+10	1	-1E+10	1	-1E+10	1	-1E+10	1	-1E+10	1	-1E+10	1
4902554	70	C	01/13/2023	11:05	-132.936	48.367	0	293.30	0	4.4900	0	33.8350	0	26.811	0	290.623	0	-1e10	8	-1e10	8	-1E+10	1	-1E+10	1	-1E+10	1	-1E+10	1	-1E+10	1	-1E+10	1
4902554	70	C	01/13/2023	11:05	-132.936	48.367	0	294.40	0	4.4880	0	33.8350	0	26.811	0	291.712	0	-1e10	8	-1e10	8	-1E+10	1	-1E+10	1	-1E+10	1	-1E+10	1	-1E+10	1	-1E+10	1
4902554	70	C	01/13/2023	11:05	-132.936	48.367	0	295.50	0	4.4840	0	33.8360	0	26.812	0	292.801	0	-1e10	8	-1e10	8	-1E+10	1	-1E+10	1	-1E+10	1	-1E+10	1	-1E+10	1	-1E+10	1
4902554	70	C	01/13/2023	11:05	-132.936	48.367	0	296.50	0	4.4830	0	33.8360	0	26.812	0	293.791	0	-1e10	8	-1e10	8	-1E+10	1	-1E+10	1	-1E+10	1	-1E+10	1	-1E+10	1	-1E+10	1
4902554	70	C	01/13/2023	11:05	-132.936	48.367	0	297.60	0	4.4800	0	33.8360	0	26.812	0	294.880	0	-1e10	8	-1e10	8	-1E+10	1	-1E+10	1	-1E+10	1	-1E+10	1	-1E+10	1	-1E+10	1
4902554	70	C	01/13/2023	11:05	-132.936	48.367	0	298.70	0	4.4790	0	33.8360	0	26.813	0	295.970	0	-1e10	8	-1e10	8	-1E+10	1	-1E+10	1	-1E+10	1	-1E+10	1	-1E+10	1	-1E+10	1
4902554	70	C	01/13/2023	11:05	-132.936	48.367	0	299.70	0	4.4780	0	33.8360	0	26.813	0	296.960	0	-1e10	8	-1e10	8	-1E+10	1	-1E+10	1	-1E+10	1	-1E+10	1	-1E+10	1	-1E+10	1
4902554	70	C	01/13/2023	11:05	-132.936	48.367	0	300.80	0	4.4630	0	33.8420	0	26.819	0	298.049	0	-1e10	8	-1e10	8	-1E+10	1	-1E+10	1	-1E+10	1	-1E+10	1	-1E+10	1	-1E+10	1
4902554	70	C	01/13/2023	11:05	-132.936	48.367	0	301.90	0	4.4570	0	33.8430	0	26.820	0	299.138	0	-1e10	8	-1e10	8	-1E+10	1	-1E+10	1	-1E+10	1	-1E+10	1	-1E+10	1	-1E+10	1
4902554	70	C	01/13/2023	11:05	-132.936	48.367	0	303.00	0	4.4560	0	33.8430	0	26.821	0	300.227	0	-1e10	8	-1e10	8	-1E+10	1	-1E+10	1	-1E+10	1	-1E+10	1	-1E+10	1	-1E+10	1
4902554	70	C	01/13/2023	11:05	-132.936	48.367	0	304.00	0	4.4520	0	33.8440	0	26.822	0	301.217	0	-1e10	8	-1e10	8	-1E+10	1	-1E+10	1	-1E+10	1	-1E+10	1	-1E+10	1	-1E+10	1
4902554	70	C	01/13/2023	11:05	-132.936	48.367	0	305.10	0	4.4470	0	33.8460	0	26.824	0	302.306	0	-1e10	8	-1e10	8	-1E+10	1	-1E+10	1	-1E+10	1	-1E+10	1	-1E+10	1	-1E+10	1
4902554	70	C	01/13/2023	11:05	-132.936	48.367	0	306.20	0	4.4390	0	33.8490	0	26.827	0	303.395	0	-1e10	8	-1e10	8	-1E+10	1	-1E+10	1	-1E+10	1	-1E+10	1	-1E+10	1	-1E+10	1
4902554	70	C	01/13/2023	11:05	-132.936	48.367	0	307.30	0	4.4310	0	33.8500	0	26.829	0	304.485	0	-1e10	8	-1e10	8	-1E+10	1	-1E+10	1	-1E+10	1	-1E+10	1	-1E+10	1	-1E+10	1
4902554	70	C	01/13/2023	11:05	-132.936	48.367	0	308.30	0	4.4240	0	33.8510	0	26.830	0	305.475	0	-1e10	8	-1e10	8	-1E+10	1	-1E+10	1	-1E+10	1	-1E+10	1	-1E+10	1	-1E+10	1
4902554	70	C	01/13/2023	11:05	-132.936	48.367	0	309.40	0	4.4220	0	33.8510	0	26.831	0	306.564	0	-1e10	8	-1e10	8	-1E+10	1	-1E+10	1	-1E+10	1	-1E+10	1	-1E+10	1	-1E+10	1
4902554	70	C	01/13/2023	11:05	-132.936	48.367	0	310.50	0	4.4210	0	33.8520	0	26.832	0	307.653	0	-1e10	8	-1e10	8	-1E+10	1	-1E+10	1	-1E+10	1	-1E+10	1	-1E+10	1	-1E+10	1
4902554	70	C	01/13/2023	11:05	-132.936	48.367	0	311.50	0	4.4160	0	33.8520	0	26.832	0	308.643	0	-1e10	8	-1e10	8	-1E+10	1	-1E+10	1	-1E+10	1	-1E+10	1	-1E+10	1	-1E+10	1
4902554	70	C	01/13/2023	11:05	-132.936	48.367	0	312.50	0	4.4130	0	33.8530	0	26.833	0	309.633	0	-1e10	8	-1e10	8	-1E+10	1	-1E+10	1	-1E+10	1	-1E+10	1	-1E+10	1	-1E+10	1
4902554	70	C	01/13/2023	11:05	-132.936	48.367	0	314.00	0	4.4020	0	33.8570	0	26.838	0	311.118	0	-1e10	8	-1e10	8	-1E+10	1	-1E+10	1	-1E+10	1	-1E+10	1	-1E+10	1	-1E+10	1
4902554	70	C	01/13/2023	11:05	-132.936	48.367	0	315.20	0	4.3930	0	33.8600	0	26.841	0	312.306	0	-1e10	8	-1e10	8	-1E+10	1	-1E+10	1	-1E+10	1	-1E+10	1	-1E+10	1	-1E+10	1
4902554	70	C	01/13/2023	11:05	-132.936	48.367	0	316.00	0	4.3930	0	33.8600	0	26.841	0	313.098	0	-1e10	8	-1e10	8	-1E+10	1	-1E+10	1	-1E+10	1	-1E+10	1	-1E+10	1	-1E+10	1
4902554	70	C	01/13/2023	11:05	-132.936	48.367	0	316.80	0	4.3930	0	33.8600	0	26.841	0	313.890	0	-1e10	8	-1e10	8	-1E+10	1	-1E+10	1	-1E+10	1	-1E+10	1	-1E+10	1	-1E+10	1
4902554	70	C	01/13/2023	11:05	-132.936	48.367	0	318.00	0	4.3910	0	33.8610	0	26.842	0	315.078	0	-1e10	8	-1e10	8	-1E+10	1	-1E+10	1	-1E+10	1	-1E+10	1	-1E+10	1	-1E+10	1
4902554	70	C	01/13/2023	11:05	-132.936	48.367	0	319.30	0	4.3870	0	33.8620	0	26.843	0	316.365	0	-1e10	8	-1e10	8	-1E+10	1	-1E+10	1	-1E+10	1	-1E+10	1	-1E+10	1	-1E+10	1
4902554	70	C	01/13/2023	11:05	-132.936	48.367	0	320.10	0	4.3810	0	33.8640	0	26.845	0	317.158	0	-1e10	8	-1e10	8	-1E+10	1	-1E+10	1	-1E+10	1	-1E+10	1	-1E+10	1	-1E+10	1
4902554	70	C	01/13/2023	11:05	-132.936	48.367	0	320.90	0	4.3750	0	33.8670	0	26.848	0	317.950	0	-1e10	8	-1e10	8	-1E+10	1	-1E+10	1	-1E+10	1	-1E+10	1	-1E+10	1	-1E+10	1
4902554	70	C	01/13/2023	11:05	-132.936	48.367	0	321.80	0	4.3740	0	33.8670	0	26.849	0	318.841	0	-1e10	8	-1e10	8	-1E+10	1	-1E+10	1	-1E+10	1	-1E+10	1	-1E+10	1	-1E+10	1
4902554	70	C	01/13/2023	11:05	-132.936	48.367	0	323.00	0	4.3730	0	33.8670	0	26.849	0	320.029	0	-1e10	8	-1e10	8	-1E+10	1	-1E+10	1	-1E+10	1	-1E+10	1	-1E+10	1	-1E+10	1
4902554	70	C	01/13/2023	11:05	-132.936	48.367	0	324.20	0	4.3650	0	33.8700	0	26.852	0	321.217	0	-1e10	8	-1e10	8	-1E+10	1	-1E+10	1	-1E+10	1	-1E+10	1	-1E+10	1	-1E+10	1
4902554	70	C	01/13/2023	11:05	-132.936	48.367	0	325.10	0	4.3610	0	33.8720	0	26.854	0	322.108	0	-1e10	8	-1e10	8	-1E+10	1	-1E+10	1	-1E+10	1	-1E+10	1	-1E+10	1	-1E+10	1
4902554	70	C	01/13/2023	11:05	-132.936	48.367	0	326.00	0	4.3610	0	33.8720	0	26.854	0	322.999	0	-1e10	8	-1e10	8	-1E+10	1	-1E+10	1	-1E+10	1	-1E+10	1	-1E+10	1	-1E+10	1
4902554	70	C	01/13/2023	11:05	-132.936	48.367	0	326.80	0	4.3570	0	33.8730	0	26.855	0	323.791	0	-1e10	8	-1e10	8	-1E+10	1	-1E+10	1	-1E+10	1	-1E+10	1	-1E+10	1	-1E+10	1
4902554	70	C	01/13/2023	11:05	-132.936	48.367	0	327.70	0	4.3550	0	33.8740	0	26.856	0	324.682	0	-1e10	8	-1e10	8	-1E+10	1	-1E+10	1	-1E+10	1	-1E+10	1	-1E+10	1	-1E+10	1
4902554	70	C	01/13/2023	11:05	-132.936	48.367	0	328.90	0	4.3520	0	33.8740	0	26.856	0	325.870	0	-1e10	8	-1e10	8	-1E+10	1	-1E+10	1	-1E+10	1	-1E+10	1	-1E+10	1	-1E+10	1
4902554	70	C	01/13/2023	11:05	-132.936	48.367	0	330.20	0	4.3520	0	33.8750	0	26.857	0	327.157	0	-1e10	8	-1e10	8	-1E+10	1	-1E+10	1	-1E+10	1	-1E+10	1	-1E+10	1	-1E+10	1
4902554	70	C	01/13/2023	11:05	-132.936	48.367	0	331.00	0	4.3520	0	33.8750	0	26.857	0	327.949	0	-1e10	8	-1e10	8	-1E+10	1	-1E+10	1	-1E+10	1	-1E+10	1	-1E+10	1	-1E+10	1
4902554	70	C	01/13/2023	11:05	-132.936	48.367	0	331.90	0	4.3500	0	33.8750	0	26.857	0	328.840	0	-1e10	8	-1e10	8	-1E+10	1	-1E+10	1	-1E+10	1	-1E+10	1	-1E+10	1	-1E+10	1
4902554	70	C	01/13/2023	11:05	-132.936	48.367	0	332.70	0	4.3470	0	33.8760	0	26.859	0	329.632	0	-1e10	8	-1e10	8	-1E+10	1	-1E+10	1	-1E+10	1	-1E+10	1	-1E+10	1	-1E+10	1
4902554	70	C	01/13/2023	11:05	-132.936	48.367	0	333.90	0	4.3440	0	33.8780	0	26.861	0	330.820	0	-1e10	8	-1e10	8	-1E+10	1	-1E+10	1	-1E+10	1	-1E+10	1	-1E+10	1	-1E+10	1
4902554	70	C	01/13/2023	11:05	-132.936	48.367	0	335.20	0	4.3390	0	33.8800	0	26.863	0	332.107	0	-1e10	8	-1e10	8	-1E+10	1	-1E+10	1	-1E+10	1	-1E+10	1	-1E+10	1	-1E+10	1
4902554	70	C	01/13/2023	11:05	-132.936	48.367	0	336.10	0	4.3360	0	33.8810	0	26.864	0	332.998	0	-1e10	8	-1e10	8	-1E+10	1	-1E+10	1	-1E+10	1	-1E+10	1	-1E+10	1	-1E+10	1
4902554	70	C	01/13/2023	11:05	-132.936	48.367	0	336.90	0	4.3350	0	33.8820	0	26.865	0	333.790	0	-1e10	8	-1e10	8	-1E+10	1	-1E+10	1	-1E+10	1	-1E+10	1	-1E+10	1	-1E+10	1
4902554	70	C	01/13/2023	11:05	-132.936	48.367	0	337.80	0	4.3300	0	33.8840	0	26.867	0	334.681	0	-1e10	8	-1e10	8	-1E+10	1	-1E+10	1	-1E+10	1	-1E+10	1	-1E+10	1	-1E+10	1
4902554	70	C	01/13/2023	11:05	-132.936	48.367	0	338.60	0	4.3300	0	33.8840	0	26.867	0	335.472	0	-1e10	8	-1e10	8	-1E+10	1	-1E+10	1	-1E+10	1	-1E+10	1	-1E+10	1	-1E+10	1
4902554	70	C	01/13/2023	11:05	-132.936	48.367	0	339.90	0	4.3270	0	33.8850	0	26.868	0	336.759	0	-1e10	8	-1e10	8	-1E+10	1	-1E+10	1	-1E+10	1	-1E+10	1	-1E+10	1	-1E+10	1
4902554	70	C	01/13/2023	11:05	-132.936	48.367	0	341.20	0	4.3220	0	33.8880	0	26.871	0	338.046	0	-1e10	8	-1e10	8	-1E+10	1	-1E+10	1	-1E+10	1	-1E+10	1	-1E+10	1	-1E+10	1
4902554	70	C	01/13/2023	11:05	-132.936	48.367	0	342.10	0	4.3170	0	33.8900	0	26.873	0	338.937	0	-1e10	8	-1e10	8	-1E+10	1	-1E+10	1	-1E+10	1	-1E+10	1	-1E+10	1	-1E+10	1
4902554	70	C	01/13/2023	11:05	-132.936	48.367	0	342.90	0	4.3160	0	33.8910	0	26.874	0	339.729	0	-1e10	8	-1e10	8	-1E+10	1	-1E+10	1	-1E+10	1	-1E+10	1	-1E+10	1	-1E+10	1
4902554	70	C	01/13/2023	11:05	-132.936	48.367	0	343.80	0	4.3150	0	33.8920	0	26.875	0	340.620	0	-1e10	8	-1e10	8	-1E+10	1	-1E+10	1	-1E+10	1	-1E+10	1	-1E+10	1	-1E+10	1
4902554	70	C	01/13/2023	11:05	-132.936	48.367	0	344.70	0	4.3150	0	33.8920	0	26.875	0	341.511	0	-1e10	8	-1e10	8	-1E+10	1	-1E+10	1	-1E+10	1	-1E+10	1	-1E+10	1	-1E+10	1
4902554	70	C	01/13/2023	11:05	-132.936	48.367	0	345.90	0	4.3140	0	33.8920	0	26.875	0	342.699	0	-1e10	8	-1e10	8	-1E+10	1	-1E+10	1	-1E+10	1	-1E+10	1	-1E+10	1	-1E+10	1
4902554	70	C	01/13/2023	11:05	-132.936	48.367	0	347.20	0	4.3130	0	33.8930	0	26.876	0	343.986	0	-1e10	8	-1e10	8	-1E+10	1	-1E+10	1	-1E+10	1	-1E+10	1	-1E+10	1	-1E+10	1
4902554	70	C	01/13/2023	11:05	-132.936	48.367	0	348.10	0	4.3080	0	33.8950	0	26.878	0	344.877	0	-1e10	8	-1e10	8	-1E+10	1	-1E+10	1	-1E+10	1	-1E+10	1	-1E+10	1	-1E+10	1
4902554	70	C	01/13/2023	11:05	-132.936	48.367	0	348.90	0	4.3080	0	33.8960	0	26.879	0	345.669	0	-1e10	8	-1e10	8	-1E+10	1	-1E+10	1	-1E+10	1	-1E+10	1	-1E+10	1	-1E+10	1
4902554	70	C	01/13/2023	11:05	-132.936	48.367	0	349.80	0	4.3060	0	33.8970	0	26.880	0	346.560	0	-1e10	8	-1e10	8	-1E+10	1	-1E+10	1	-1E+10	1	-1E+10	1	-1E+10	1	-1E+10	1
4902554	70	C	01/13/2023	11:05	-132.936	48.367	0	352.70	0	4.3010	0	33.8990	0	26.882	0	349.430	0	-1e10	8	-1e10	8	-1E+10	1	-1E+10	1	-1E+10	1	-1E+10	1	-1E+10	1	-1E+10	1
4902554	70	C	01/13/2023	11:05	-132.936	48.367	0	357.90	0	4.2890	0	33.9060	0	26.889	0	354.578	0	-1e10	8	-1e10	8	-1E+10	1	-1E+10	1	-1E+10	1	-1E+10	1	-1E+10	1	-1E+10	1
4902554	70	C	01/13/2023	11:05	-132.936	48.367	0	363.10	0	4.2810	0	33.9110	0	26.894	0	359.725	0	-1e10	8	-1e10	8	-1E+10	1	-1E+10	1	-1E+10	1	-1E+10	1	-1E+10	1	-1E+10	1
4902554	70	C	01/13/2023	11:05	-132.936	48.367	0	367.80	0	4.2680	0	33.9190	0	26.901	0	364.377	0	-1e10	8	-1e10	8	-1E+10	1	-1E+10	1	-1E+10	1	-1E+10	1	-1E+10	1	-1E+10	1
4902554	70	C	01/13/2023	11:05	-132.936	48.367	0	372.60	0	4.2530	0	33.9300	0	26.912	0	369.128	0	-1e10	8	-1e10	8	-1E+10	1	-1E+10	1	-1E+10	1	-1E+10	1	-1E+10	1	-1E+10	1
4902554	70	C	01/13/2023	11:05	-132.936	48.367	0	378.00	0	4.2460	0	33.9350	0	26.916	0	374.473	0	-1e10	8	-1e10	8	-1E+10	1	-1E+10	1	-1E+10	1	-1E+10	1	-1E+10	1	-1E+10	1
4902554	70	C	01/13/2023	11:05	-132.936	48.367	0	383.00	0	4.2400	0	33.9390	0	26.920	0	379.422	0	-1e10	8	-1e10	8	-1E+10	1	-1E+10	1	-1E+10	1	-1E+10	1	-1E+10	1	-1E+10	1
4902554	70	C	01/13/2023	11:05	-132.936	48.367	0	387.90	0	4.2380	0	33.9410	0	26.922	0	384.271	0	-1e10	8	-1e10	8	-1E+10	1	-1E+10	1	-1E+10	1	-1E+10	1	-1E+10	1	-1E+10	1
4902554	70	C	01/13/2023	11:05	-132.936	48.367	0	392.90	0	4.2340	0	33.9460	0	26.927	0	389.220	0	-1e10	8	-1e10	8	-1E+10	1	-1E+10	1	-1E+10	1	-1E+10	1	-1E+10	1	-1E+10	1
4902554	70	C	01/13/2023	11:05	-132.936	48.367	0	397.80	0	4.2290	0	33.9500	0	26.930	0	394.069	0	-1e10	8	-1e10	8	-1E+10	1	-1E+10	1	-1E+10	1	-1E+10	1	-1E+10	1	-1E+10	1
4902554	70	C	01/13/2023	11:05	-132.936	48.367	0	402.90	0	4.2140	0	33.9590	0	26.939	0	399.117	0	-1e10	8	-1e10	8	-1E+10	1	-1E+10	1	-1E+10	1	-1E+10	1	-1E+10	1	-1E+10	1
4902554	70	C	01/13/2023	11:05	-132.936	48.367	0	407.90	0	4.2010	0	33.9640	0	26.944	0	404.065	0	-1e10	8	-1e10	8	-1E+10	1	-1E+10	1	-1E+10	1	-1E+10	1	-1E+10	1	-1E+10	1
4902554	70	C	01/13/2023	11:05	-132.936	48.367	0	412.90	0	4.1970	0	33.9670	0	26.947	0	409.013	0	-1e10	8	-1e10	8	-1E+10	1	-1E+10	1	-1E+10	1	-1E+10	1	-1E+10	1	-1E+10	1
4902554	70	C	01/13/2023	11:05	-132.936	48.367	0	417.90	0	4.1880	0	33.9730	0	26.953	0	413.961	0	-1e10	8	-1e10	8	-1E+10	1	-1E+10	1	-1E+10	1	-1E+10	1	-1E+10	1	-1E+10	1
4902554	70	C	01/13/2023	11:05	-132.936	48.367	0	422.90	0	4.1750	0	33.9810	0	26.961	0	418.909	0	-1e10	8	-1e10	8	-1E+10	1	-1E+10	1	-1E+10	1	-1E+10	1	-1E+10	1	-1E+10	1
4902554	70	C	01/13/2023	11:05	-132.936	48.367	0	427.90	0	4.1640	0	33.9880	0	26.967	0	423.856	0	-1e10	8	-1e10	8	-1E+10	1	-1E+10	1	-1E+10	1	-1E+10	1	-1E+10	1	-1E+10	1
4902554	70	C	01/13/2023	11:05	-132.936	48.367	0	432.90	0	4.1570	0	33.9920	0	26.971	0	428.804	0	-1e10	8	-1e10	8	-1E+10	1	-1E+10	1	-1E+10	1	-1E+10	1	-1E+10	1	-1E+10	1
4902554	70	C	01/13/2023	11:05	-132.936	48.367	0	437.90	0	4.1460	0	33.9970	0	26.977	0	433.751	0	-1e10	8	-1e10	8	-1E+10	1	-1E+10	1	-1E+10	1	-1E+10	1	-1E+10	1	-1E+10	1
4902554	70	C	01/13/2023	11:05	-132.936	48.367	0	442.90	0	4.1360	0	34.0040	0	26.983	0	438.699	0	-1e10	8	-1e10	8	-1E+10	1	-1E+10	1	-1E+10	1	-1E+10	1	-1E+10	1	-1E+10	1
4902554	70	C	01/13/2023	11:05	-132.936	48.367	0	447.90	0	4.1320	0	34.0080	0	26.987	0	443.646	0	-1e10	8	-1e10	8	-1E+10	1	-1E+10	1	-1E+10	1	-1E+10	1	-1E+10	1	-1E+10	1
4902554	70	C	01/13/2023	11:05	-132.936	48.367	0	453.10	0	4.1250	0	34.0160	0	26.994	0	448.791	0	-1e10	8	-1e10	8	-1E+10	1	-1E+10	1	-1E+10	1	-1E+10	1	-1E+10	1	-1E+10	1
4902554	70	C	01/13/2023	11:05	-132.936	48.367	0	457.80	0	4.1100	0	34.0260	0	27.004	0	453.441	0	-1e10	8	-1e10	8	-1E+10	1	-1E+10	1	-1E+10	1	-1E+10	1	-1E+10	1	-1E+10	1
4902554	70	C	01/13/2023	11:05	-132.936	48.367	0	462.70	0	4.1010	0	34.0320	0	27.009	0	458.289	0	-1e10	8	-1e10	8	-1E+10	1	-1E+10	1	-1E+10	1	-1E+10	1	-1E+10	1	-1E+10	1
4902554	70	C	01/13/2023	11:05	-132.936	48.367	0	467.70	0	4.0880	0	34.0380	0	27.015	0	463.236	0	-1e10	8	-1e10	8	-1E+10	1	-1E+10	1	-1E+10	1	-1E+10	1	-1E+10	1	-1E+10	1
4902554	70	C	01/13/2023	11:05	-132.936	48.367	0	472.80	0	4.0790	0	34.0430	0	27.020	0	468.282	0	-1e10	8	-1e10	8	-1E+10	1	-1E+10	1	-1E+10	1	-1E+10	1	-1E+10	1	-1E+10	1
4902554	70	C	01/13/2023	11:05	-132.936	48.367	0	477.90	0	4.0790	0	34.0440	0	27.021	0	473.327	0	-1e10	8	-1e10	8	-1E+10	1	-1E+10	1	-1E+10	1	-1E+10	1	-1E+10	1	-1E+10	1
4902554	70	C	01/13/2023	11:05	-132.936	48.367	0	483.10	0	4.0780	0	34.0450	0	27.022	0	478.471	0	-1e10	8	-1e10	8	-1E+10	1	-1E+10	1	-1E+10	1	-1E+10	1	-1E+10	1	-1E+10	1
4902554	70	C	01/13/2023	11:05	-132.936	48.367	0	488.10	0	4.0680	0	34.0500	0	27.027	0	483.418	0	-1e10	8	-1e10	8	-1E+10	1	-1E+10	1	-1E+10	1	-1E+10	1	-1E+10	1	-1E+10	1
4902554	70	C	01/13/2023	11:05	-132.936	48.367	0	492.80	0	4.0590	0	34.0550	0	27.032	0	488.067	0	-1e10	8	-1e10	8	-1E+10	1	-1E+10	1	-1E+10	1	-1E+10	1	-1E+10	1	-1E+10	1
4902554	70	C	01/13/2023	11:05	-132.936	48.367	0	497.60	0	4.0470	0	34.0610	0	27.038	0	492.815	0	-1e10	8	-1e10	8	-1E+10	1	-1E+10	1	-1E+10	1	-1E+10	1	-1E+10	1	-1E+10	1
4902554	70	C	01/13/2023	11:05	-132.936	48.367	0	503.00	0	4.0370	0	34.0660	0	27.043	0	498.157	0	-1e10	8	-1e10	8	-1E+10	1	-1E+10	1	-1E+10	1	-1E+10	1	-1E+10	1	-1E+10	1
4902554	70	C	01/13/2023	11:05	-132.936	48.367	0	508.10	0	4.0320	0	34.0700	0	27.047	0	503.201	0	-1e10	8	-1e10	8	-1E+10	1	-1E+10	1	-1E+10	1	-1E+10	1	-1E+10	1	-1E+10	1
4902554	70	C	01/13/2023	11:05	-132.936	48.367	0	512.70	0	4.0320	0	34.0730	0	27.049	0	507.751	0	-1e10	8	-1e10	8	-1E+10	1	-1E+10	1	-1E+10	1	-1E+10	1	-1E+10	1	-1E+10	1
4902554	70	C	01/13/2023	11:05	-132.936	48.367	0	517.90	0	4.0280	0	34.0780	0	27.054	0	512.895	0	-1e10	8	-1e10	8	-1E+10	1	-1E+10	1	-1E+10	1	-1E+10	1	-1E+10	1	-1E+10	1
4902554	70	C	01/13/2023	11:05	-132.936	48.367	0	523.10	0	4.0250	0	34.0810	0	27.056	0	518.038	0	-1e10	8	-1e10	8	-1E+10	1	-1E+10	1	-1E+10	1	-1E+10	1	-1E+10	1	-1E+10	1
4902554	70	C	01/13/2023	11:05	-132.936	48.367	0	527.80	0	4.0180	0	34.0860	0	27.061	0	522.687	0	-1e10	8	-1e10	8	-1E+10	1	-1E+10	1	-1E+10	1	-1E+10	1	-1E+10	1	-1E+10	1
4902554	70	C	01/13/2023	11:05	-132.936	48.367	0	533.00	0	4.0060	0	34.0940	0	27.069	0	527.830	0	-1e10	8	-1e10	8	-1E+10	1	-1E+10	1	-1E+10	1	-1E+10	1	-1E+10	1	-1E+10	1
4902554	70	C	01/13/2023	11:05	-132.936	48.367	0	538.30	0	3.9990	0	34.0980	0	27.073	0	533.072	0	-1e10	8	-1e10	8	-1E+10	1	-1E+10	1	-1E+10	1	-1E+10	1	-1E+10	1	-1E+10	1
4902554	70	C	01/13/2023	11:05	-132.936	48.367	0	542.90	0	3.9910	0	34.1010	0	27.076	0	537.621	0	-1e10	8	-1e10	8	-1E+10	1	-1E+10	1	-1E+10	1	-1E+10	1	-1E+10	1	-1E+10	1
4902554	70	C	01/13/2023	11:05	-132.936	48.367	0	547.60	0	3.9820	0	34.1050	0	27.080	0	542.269	0	-1e10	8	-1e10	8	-1E+10	1	-1E+10	1	-1E+10	1	-1E+10	1	-1E+10	1	-1E+10	1
4902554	70	C	01/13/2023	11:05	-132.936	48.367	0	552.80	0	3.9760	0	34.1080	0	27.083	0	547.412	0	-1e10	8	-1e10	8	-1E+10	1	-1E+10	1	-1E+10	1	-1E+10	1	-1E+10	1	-1E+10	1
4902554	70	C	01/13/2023	11:05	-132.936	48.367	0	557.90	0	3.9710	0	34.1110	0	27.086	0	552.455	0	-1e10	8	-1e10	8	-1E+10	1	-1E+10	1	-1E+10	1	-1E+10	1	-1E+10	1	-1E+10	1
4902554	70	C	01/13/2023	11:05	-132.936	48.367	0	563.00	0	3.9660	0	34.1140	0	27.089	0	557.499	0	-1e10	8	-1e10	8	-1E+10	1	-1E+10	1	-1E+10	1	-1E+10	1	-1E+10	1	-1E+10	1
4902554	70	C	01/13/2023	11:05	-132.936	48.367	0	568.10	0	3.9590	0	34.1170	0	27.092	0	562.542	0	-1e10	8	-1e10	8	-1E+10	1	-1E+10	1	-1E+10	1	-1E+10	1	-1E+10	1	-1E+10	1
4902554	70	C	01/13/2023	11:05	-132.936	48.367	0	573.10	0	3.9580	0	34.1180	0	27.093	0	567.486	0	-1e10	8	-1e10	8	-1E+10	1	-1E+10	1	-1E+10	1	-1E+10	1	-1E+10	1	-1E+10	1
4902554	70	C	01/13/2023	11:05	-132.936	48.367	0	578.10	0	3.9490	0	34.1230	0	27.098	0	572.430	0	-1e10	8	-1e10	8	-1E+10	1	-1E+10	1	-1E+10	1	-1E+10	1	-1E+10	1	-1E+10	1
4902554	70	C	01/13/2023	11:05	-132.936	48.367	0	583.10	0	3.9430	0	34.1270	0	27.102	0	577.374	0	-1e10	8	-1e10	8	-1E+10	1	-1E+10	1	-1E+10	1	-1E+10	1	-1E+10	1	-1E+10	1
4902554	70	C	01/13/2023	11:05	-132.936	48.367	0	588.00	0	3.9390	0	34.1290	0	27.104	0	582.219	0	-1e10	8	-1e10	8	-1E+10	1	-1E+10	1	-1E+10	1	-1E+10	1	-1E+10	1	-1E+10	1
4902554	70	C	01/13/2023	11:05	-132.936	48.367	0	592.90	0	3.9320	0	34.1310	0	27.106	0	587.064	0	-1e10	8	-1e10	8	-1E+10	1	-1E+10	1	-1E+10	1	-1E+10	1	-1E+10	1	-1E+10	1
4902554	70	C	01/13/2023	11:05	-132.936	48.367	0	597.90	0	3.9190	0	34.1370	0	27.112	0	592.008	0	-1e10	8	-1e10	8	-1E+10	1	-1E+10	1	-1E+10	1	-1E+10	1	-1E+10	1	-1E+10	1
4902554	70	C	01/13/2023	11:05	-132.936	48.367	0	602.80	0	3.9080	0	34.1410	0	27.117	0	596.853	0	-1e10	8	-1e10	8	-1E+10	1	-1E+10	1	-1E+10	1	-1E+10	1	-1E+10	1	-1E+10	1
4902554	70	C	01/13/2023	11:05	-132.936	48.367	0	607.70	0	3.9030	0	34.1430	0	27.119	0	601.697	0	-1e10	8	-1e10	8	-1E+10	1	-1E+10	1	-1E+10	1	-1E+10	1	-1E+10	1	-1E+10	1
4902554	70	C	01/13/2023	11:05	-132.936	48.367	0	612.80	0	3.8910	0	34.1470	0	27.123	0	606.739	0	-1e10	8	-1e10	8	-1E+10	1	-1E+10	1	-1E+10	1	-1E+10	1	-1E+10	1	-1E+10	1
4902554	70	C	01/13/2023	11:05	-132.936	48.367	0	617.90	0	3.8780	0	34.1520	0	27.129	0	611.781	0	-1e10	8	-1e10	8	-1E+10	1	-1E+10	1	-1E+10	1	-1E+10	1	-1E+10	1	-1E+10	1
4902554	70	C	01/13/2023	11:05	-132.936	48.367	0	623.00	0	3.8730	0	34.1540	0	27.131	0	616.823	0	-1e10	8	-1e10	8	-1E+10	1	-1E+10	1	-1E+10	1	-1E+10	1	-1E+10	1	-1E+10	1
4902554	70	C	01/13/2023	11:05	-132.936	48.367	0	628.20	0	3.8580	0	34.1600	0	27.137	0	621.964	0	-1e10	8	-1e10	8	-1E+10	1	-1E+10	1	-1E+10	1	-1E+10	1	-1E+10	1	-1E+10	1
4902554	70	C	01/13/2023	11:05	-132.936	48.367	0	632.90	0	3.8500	0	34.1620	0	27.139	0	626.610	0	-1e10	8	-1e10	8	-1E+10	1	-1E+10	1	-1E+10	1	-1E+10	1	-1E+10	1	-1E+10	1
4902554	70	C	01/13/2023	11:05	-132.936	48.367	0	638.00	0	3.8380	0	34.1670	0	27.145	0	631.652	0	-1e10	8	-1e10	8	-1E+10	1	-1E+10	1	-1E+10	1	-1E+10	1	-1E+10	1	-1E+10	1
4902554	70	C	01/13/2023	11:05	-132.936	48.367	0	643.20	0	3.8270	0	34.1710	0	27.149	0	636.792	0	-1e10	8	-1e10	8	-1E+10	1	-1E+10	1	-1E+10	1	-1E+10	1	-1E+10	1	-1E+10	1
4902554	70	C	01/13/2023	11:05	-132.936	48.367	0	648.00	0	3.8120	0	34.1760	0	27.154	0	641.537	0	-1e10	8	-1e10	8	-1E+10	1	-1E+10	1	-1E+10	1	-1E+10	1	-1E+10	1	-1E+10	1
4902554	70	C	01/13/2023	11:05	-132.936	48.367	0	652.80	0	3.8020	0	34.1800	0	27.159	0	646.282	0	-1e10	8	-1e10	8	-1E+10	1	-1E+10	1	-1E+10	1	-1E+10	1	-1E+10	1	-1E+10	1
4902554	70	C	01/13/2023	11:05	-132.936	48.367	0	657.60	0	3.7800	0	34.1880	0	27.167	0	651.026	0	-1e10	8	-1e10	8	-1E+10	1	-1E+10	1	-1E+10	1	-1E+10	1	-1E+10	1	-1E+10	1
4902554	70	C	01/13/2023	11:05	-132.936	48.367	0	662.50	0	3.7690	0	34.1910	0	27.171	0	655.870	0	-1e10	8	-1e10	8	-1E+10	1	-1E+10	1	-1E+10	1	-1E+10	1	-1E+10	1	-1E+10	1
4902554	70	C	01/13/2023	11:05	-132.936	48.367	0	667.50	0	3.7580	0	34.1950	0	27.175	0	660.812	0	-1e10	8	-1e10	8	-1E+10	1	-1E+10	1	-1E+10	1	-1E+10	1	-1E+10	1	-1E+10	1
4902554	70	C	01/13/2023	11:05	-132.936	48.367	0	672.50	0	3.7510	0	34.1970	0	27.177	0	665.754	0	-1e10	8	-1e10	8	-1E+10	1	-1E+10	1	-1E+10	1	-1E+10	1	-1E+10	1	-1E+10	1
4902554	70	C	01/13/2023	11:05	-132.936	48.367	0	677.50	0	3.7390	0	34.2010	0	27.182	0	670.695	0	-1e10	8	-1e10	8	-1E+10	1	-1E+10	1	-1E+10	1	-1E+10	1	-1E+10	1	-1E+10	1
4902554	70	C	01/13/2023	11:05	-132.936	48.367	0	682.70	0	3.7330	0	34.2020	0	27.183	0	675.835	0	-1e10	8	-1e10	8	-1E+10	1	-1E+10	1	-1E+10	1	-1E+10	1	-1E+10	1	-1E+10	1
4902554	70	C	01/13/2023	11:05	-132.936	48.367	0	687.70	0	3.7210	0	34.2060	0	27.188	0	680.776	0	-1e10	8	-1e10	8	-1E+10	1	-1E+10	1	-1E+10	1	-1E+10	1	-1E+10	1	-1E+10	1
4902554	70	C	01/13/2023	11:05	-132.936	48.367	0	692.90	0	3.7080	0	34.2100	0	27.192	0	685.915	0	-1e10	8	-1e10	8	-1E+10	1	-1E+10	1	-1E+10	1	-1E+10	1	-1E+10	1	-1E+10	1
4902554	70	C	01/13/2023	11:05	-132.936	48.367	0	697.90	0	3.7000	0	34.2120	0	27.195	0	690.857	0	-1e10	8	-1e10	8	-1E+10	1	-1E+10	1	-1E+10	1	-1E+10	1	-1E+10	1	-1E+10	1
4902554	70	C	01/13/2023	11:05	-132.936	48.367	0	702.60	0	3.6950	0	34.2130	0	27.196	0	695.501	0	-1e10	8	-1e10	8	-1E+10	1	-1E+10	1	-1E+10	1	-1E+10	1	-1E+10	1	-1E+10	1
4902554	70	C	01/13/2023	11:05	-132.936	48.367	0	707.70	0	3.6860	0	34.2160	0	27.199	0	700.541	0	-1e10	8	-1e10	8	-1E+10	1	-1E+10	1	-1E+10	1	-1E+10	1	-1E+10	1	-1E+10	1
4902554	70	C	01/13/2023	11:05	-132.936	48.367	0	712.80	0	3.6710	0	34.2200	0	27.204	0	705.581	0	-1e10	8	-1e10	8	-1E+10	1	-1E+10	1	-1E+10	1	-1E+10	1	-1E+10	1	-1E+10	1
4902554	70	C	01/13/2023	11:05	-132.936	48.367	0	717.90	0	3.6570	0	34.2240	0	27.208	0	710.621	0	-1e10	8	-1e10	8	-1E+10	1	-1E+10	1	-1E+10	1	-1E+10	1	-1E+10	1	-1E+10	1
4902554	70	C	01/13/2023	11:05	-132.936	48.367	0	723.10	0	3.6440	0	34.2270	0	27.212	0	715.759	0	-1e10	8	-1e10	8	-1E+10	1	-1E+10	1	-1E+10	1	-1E+10	1	-1E+10	1	-1E+10	1
4902554	70	C	01/13/2023	11:05	-132.936	48.367	0	727.90	0	3.6390	0	34.2280	0	27.213	0	720.502	0	-1e10	8	-1e10	8	-1E+10	1	-1E+10	1	-1E+10	1	-1E+10	1	-1E+10	1	-1E+10	1
4902554	70	C	01/13/2023	11:05	-132.936	48.367	0	732.70	0	3.6270	0	34.2310	0	27.217	0	725.245	0	-1e10	8	-1e10	8	-1E+10	1	-1E+10	1	-1E+10	1	-1E+10	1	-1E+10	1	-1E+10	1
4902554	70	C	01/13/2023	11:05	-132.936	48.367	0	738.10	0	3.6150	0	34.2350	0	27.221	0	730.581	0	-1e10	8	-1e10	8	-1E+10	1	-1E+10	1	-1E+10	1	-1E+10	1	-1E+10	1	-1E+10	1
4902554	70	C	01/13/2023	11:05	-132.936	48.367	0	742.90	0	3.6050	0	34.2370	0	27.224	0	735.323	0	-1e10	8	-1e10	8	-1E+10	1	-1E+10	1	-1E+10	1	-1E+10	1	-1E+10	1	-1E+10	1
4902554	70	C	01/13/2023	11:05	-132.936	48.367	0	747.80	0	3.5930	0	34.2410	0	27.228	0	740.165	0	-1e10	8	-1e10	8	-1E+10	1	-1E+10	1	-1E+10	1	-1E+10	1	-1E+10	1	-1E+10	1
4902554	70	C	01/13/2023	11:05	-132.936	48.367	0	753.20	0	3.5800	0	34.2440	0	27.232	0	745.500	0	-1e10	8	-1e10	8	-1E+10	1	-1E+10	1	-1E+10	1	-1E+10	1	-1E+10	1	-1E+10	1
4902554	70	C	01/13/2023	11:05	-132.936	48.367	0	758.10	0	3.5680	0	34.2470	0	27.236	0	750.341	0	-1e10	8	-1e10	8	-1E+10	1	-1E+10	1	-1E+10	1	-1E+10	1	-1E+10	1	-1E+10	1
4902554	70	C	01/13/2023	11:05	-132.936	48.367	0	763.10	0	3.5580	0	34.2510	0	27.240	0	755.281	0	-1e10	8	-1e10	8	-1E+10	1	-1E+10	1	-1E+10	1	-1E+10	1	-1E+10	1	-1E+10	1
4902554	70	C	01/13/2023	11:05	-132.936	48.367	0	768.20	0	3.5520	0	34.2530	0	27.242	0	760.319	0	-1e10	8	-1e10	8	-1E+10	1	-1E+10	1	-1E+10	1	-1E+10	1	-1E+10	1	-1E+10	1
4902554	70	C	01/13/2023	11:05	-132.936	48.367	0	772.90	0	3.5460	0	34.2540	0	27.244	0	764.962	0	-1e10	8	-1e10	8	-1E+10	1	-1E+10	1	-1E+10	1	-1E+10	1	-1E+10	1	-1E+10	1
4902554	70	C	01/13/2023	11:05	-132.936	48.367	0	778.00	0	3.5370	0	34.2570	0	27.247	0	770.001	0	-1e10	8	-1e10	8	-1E+10	1	-1E+10	1	-1E+10	1	-1E+10	1	-1E+10	1	-1E+10	1
4902554	70	C	01/13/2023	11:05	-132.936	48.367	0	783.20	0	3.5210	0	34.2610	0	27.252	0	775.137	0	-1e10	8	-1e10	8	-1E+10	1	-1E+10	1	-1E+10	1	-1E+10	1	-1E+10	1	-1E+10	1
4902554	70	C	01/13/2023	11:05	-132.936	48.367	0	787.90	0	3.5160	0	34.2630	0	27.254	0	779.780	0	-1e10	8	-1e10	8	-1E+10	1	-1E+10	1	-1E+10	1	-1E+10	1	-1E+10	1	-1E+10	1
4902554	70	C	01/13/2023	11:05	-132.936	48.367	0	792.70	0	3.5080	0	34.2650	0	27.256	0	784.522	0	-1e10	8	-1e10	8	-1E+10	1	-1E+10	1	-1E+10	1	-1E+10	1	-1E+10	1	-1E+10	1
4902554	70	C	01/13/2023	11:05	-132.936	48.367	0	798.00	0	3.4980	0	34.2670	0	27.259	0	789.757	0	-1e10	8	-1e10	8	-1E+10	1	-1E+10	1	-1E+10	1	-1E+10	1	-1E+10	1	-1E+10	1
4902554	70	C	01/13/2023	11:05	-132.936	48.367	0	803.30	0	3.4880	0	34.2690	0	27.261	0	794.992	0	-1e10	8	-1e10	8	-1E+10	1	-1E+10	1	-1E+10	1	-1E+10	1	-1E+10	1	-1E+10	1
4902554	70	C	01/13/2023	11:05	-132.936	48.367	0	808.20	0	3.4760	0	34.2720	0	27.265	0	799.832	0	-1e10	8	-1e10	8	-1E+10	1	-1E+10	1	-1E+10	1	-1E+10	1	-1E+10	1	-1E+10	1
4902554	70	C	01/13/2023	11:05	-132.936	48.367	0	813.20	0	3.4630	0	34.2760	0	27.269	0	804.771	0	-1e10	8	-1e10	8	-1E+10	1	-1E+10	1	-1E+10	1	-1E+10	1	-1E+10	1	-1E+10	1
4902554	70	C	01/13/2023	11:05	-132.936	48.367	0	818.20	0	3.4550	0	34.2770	0	27.271	0	809.709	0	-1e10	8	-1e10	8	-1E+10	1	-1E+10	1	-1E+10	1	-1E+10	1	-1E+10	1	-1E+10	1
4902554	70	C	01/13/2023	11:05	-132.936	48.367	0	823.30	0	3.4340	0	34.2820	0	27.277	0	814.746	0	-1e10	8	-1e10	8	-1E+10	1	-1E+10	1	-1E+10	1	-1E+10	1	-1E+10	1	-1E+10	1
4902554	70	C	01/13/2023	11:05	-132.936	48.367	0	827.90	0	3.4260	0	34.2840	0	27.279	0	819.290	0	-1e10	8	-1e10	8	-1E+10	1	-1E+10	1	-1E+10	1	-1E+10	1	-1E+10	1	-1E+10	1
4902554	70	C	01/13/2023	11:05	-132.936	48.367	0	832.60	0	3.4240	0	34.2850	0	27.280	0	823.931	0	-1e10	8	-1e10	8	-1E+10	1	-1E+10	1	-1E+10	1	-1E+10	1	-1E+10	1	-1E+10	1
4902554	70	C	01/13/2023	11:05	-132.936	48.367	0	837.70	0	3.4210	0	34.2850	0	27.281	0	828.968	0	-1e10	8	-1e10	8	-1E+10	1	-1E+10	1	-1E+10	1	-1E+10	1	-1E+10	1	-1E+10	1
4902554	70	C	01/13/2023	11:05	-132.936	48.367	0	842.90	0	3.4130	0	34.2870	0	27.283	0	834.104	0	-1e10	8	-1e10	8	-1E+10	1	-1E+10	1	-1E+10	1	-1E+10	1	-1E+10	1	-1E+10	1
4902554	70	C	01/13/2023	11:05	-132.936	48.367	0	848.10	0	3.4010	0	34.2900	0	27.287	0	839.239	0	-1e10	8	-1e10	8	-1E+10	1	-1E+10	1	-1E+10	1	-1E+10	1	-1E+10	1	-1E+10	1
4902554	70	C	01/13/2023	11:05	-132.936	48.367	0	852.90	0	3.3880	0	34.2920	0	27.289	0	843.979	0	-1e10	8	-1e10	8	-1E+10	1	-1E+10	1	-1E+10	1	-1E+10	1	-1E+10	1	-1E+10	1
4902554	70	C	01/13/2023	11:05	-132.936	48.367	0	857.90	0	3.3870	0	34.2930	0	27.290	0	848.917	0	-1e10	8	-1e10	8	-1E+10	1	-1E+10	1	-1E+10	1	-1E+10	1	-1E+10	1	-1E+10	1
4902554	70	C	01/13/2023	11:05	-132.936	48.367	0	862.90	0	3.3770	0	34.2950	0	27.293	0	853.854	0	-1e10	8	-1e10	8	-1E+10	1	-1E+10	1	-1E+10	1	-1E+10	1	-1E+10	1	-1E+10	1
4902554	70	C	01/13/2023	11:05	-132.936	48.367	0	867.90	0	3.3660	0	34.2970	0	27.296	0	858.792	0	-1e10	8	-1e10	8	-1E+10	1	-1E+10	1	-1E+10	1	-1E+10	1	-1E+10	1	-1E+10	1
4902554	70	C	01/13/2023	11:05	-132.936	48.367	0	872.90	0	3.3490	0	34.3010	0	27.300	0	863.729	0	-1e10	8	-1e10	8	-1E+10	1	-1E+10	1	-1E+10	1	-1E+10	1	-1E+10	1	-1E+10	1
4902554	70	C	01/13/2023	11:05	-132.936	48.367	0	878.00	0	3.3260	0	34.3060	0	27.307	0	868.765	0	-1e10	8	-1e10	8	-1E+10	1	-1E+10	1	-1E+10	1	-1E+10	1	-1E+10	1	-1E+10	1
4902554	70	C	01/13/2023	11:05	-132.936	48.367	0	883.00	0	3.3170	0	34.3080	0	27.309	0	873.702	0	-1e10	8	-1e10	8	-1E+10	1	-1E+10	1	-1E+10	1	-1E+10	1	-1E+10	1	-1E+10	1
4902554	70	C	01/13/2023	11:05	-132.936	48.367	0	888.10	0	3.2970	0	34.3130	0	27.315	0	878.737	0	-1e10	8	-1e10	8	-1E+10	1	-1E+10	1	-1E+10	1	-1E+10	1	-1E+10	1	-1E+10	1
4902554	70	C	01/13/2023	11:05	-132.936	48.367	0	893.10	0	3.2880	0	34.3150	0	27.317	0	883.674	0	-1e10	8	-1e10	8	-1E+10	1	-1E+10	1	-1E+10	1	-1E+10	1	-1E+10	1	-1E+10	1
4902554	70	C	01/13/2023	11:05	-132.936	48.367	0	898.10	0	3.2770	0	34.3180	0	27.321	0	888.610	0	-1e10	8	-1e10	8	-1E+10	1	-1E+10	1	-1E+10	1	-1E+10	1	-1E+10	1	-1E+10	1
4902554	70	C	01/13/2023	11:05	-132.936	48.367	0	903.00	0	3.2710	0	34.3190	0	27.322	0	893.448	0	-1e10	8	-1e10	8	-1E+10	1	-1E+10	1	-1E+10	1	-1E+10	1	-1E+10	1	-1E+10	1
4902554	70	C	01/13/2023	11:05	-132.936	48.367	0	907.60	0	3.2650	0	34.3200	0	27.324	0	897.990	0	-1e10	8	-1e10	8	-1E+10	1	-1E+10	1	-1E+10	1	-1E+10	1	-1E+10	1	-1E+10	1
4902554	70	C	01/13/2023	11:05	-132.936	48.367	0	912.80	0	3.2580	0	34.3220	0	27.326	0	903.123	0	-1e10	8	-1e10	8	-1E+10	1	-1E+10	1	-1E+10	1	-1E+10	1	-1E+10	1	-1E+10	1
4902554	70	C	01/13/2023	11:05	-132.936	48.367	0	917.90	0	3.2540	0	34.3230	0	27.327	0	908.158	0	-1e10	8	-1e10	8	-1E+10	1	-1E+10	1	-1E+10	1	-1E+10	1	-1E+10	1	-1E+10	1
4902554	70	C	01/13/2023	11:05	-132.936	48.367	0	923.00	0	3.2400	0	34.3260	0	27.331	0	913.193	0	-1e10	8	-1e10	8	-1E+10	1	-1E+10	1	-1E+10	1	-1E+10	1	-1E+10	1	-1E+10	1
4902554	70	C	01/13/2023	11:05	-132.936	48.367	0	928.20	0	3.2350	0	34.3280	0	27.333	0	918.326	0	-1e10	8	-1e10	8	-1E+10	1	-1E+10	1	-1E+10	1	-1E+10	1	-1E+10	1	-1E+10	1
4902554	70	C	01/13/2023	11:05	-132.936	48.367	0	932.80	0	3.2190	0	34.3290	0	27.335	0	922.867	0	-1e10	8	-1e10	8	-1E+10	1	-1E+10	1	-1E+10	1	-1E+10	1	-1E+10	1	-1E+10	1
4902554	70	C	01/13/2023	11:05	-132.936	48.367	0	937.80	0	3.2080	0	34.3310	0	27.338	0	927.803	0	-1e10	8	-1e10	8	-1E+10	1	-1E+10	1	-1E+10	1	-1E+10	1	-1E+10	1	-1E+10	1
4902554	70	C	01/13/2023	11:05	-132.936	48.367	0	942.80	0	3.2040	0	34.3330	0	27.340	0	932.739	0	-1e10	8	-1e10	8	-1E+10	1	-1E+10	1	-1E+10	1	-1E+10	1	-1E+10	1	-1E+10	1
4902554	70	C	01/13/2023	11:05	-132.936	48.367	0	947.70	0	3.1920	0	34.3350	0	27.343	0	937.575	0	-1e10	8	-1e10	8	-1E+10	1	-1E+10	1	-1E+10	1	-1E+10	1	-1E+10	1	-1E+10	1
4902554	70	C	01/13/2023	11:05	-132.936	48.367	0	953.10	0	3.1750	0	34.3410	0	27.349	0	942.905	0	-1e10	8	-1e10	8	-1E+10	1	-1E+10	1	-1E+10	1	-1E+10	1	-1E+10	1	-1E+10	1
4902554	70	C	01/13/2023	11:05	-132.936	48.367	0	958.00	0	3.1680	0	34.3430	0	27.351	0	947.742	0	-1e10	8	-1e10	8	-1E+10	1	-1E+10	1	-1E+10	1	-1E+10	1	-1E+10	1	-1E+10	1
4902554	70	C	01/13/2023	11:05	-132.936	48.367	0	962.90	0	3.1600	0	34.3430	0	27.352	0	952.578	0	-1e10	8	-1e10	8	-1E+10	1	-1E+10	1	-1E+10	1	-1E+10	1	-1E+10	1	-1E+10	1
4902554	70	C	01/13/2023	11:05	-132.936	48.367	0	968.10	0	3.1520	0	34.3450	0	27.354	0	957.711	0	-1e10	8	-1e10	8	-1E+10	1	-1E+10	1	-1E+10	1	-1E+10	1	-1E+10	1	-1E+10	1
4902554	70	C	01/13/2023	11:05	-132.936	48.367	0	972.90	0	3.1460	0	34.3470	0	27.357	0	962.448	0	-1e10	8	-1e10	8	-1E+10	1	-1E+10	1	-1E+10	1	-1E+10	1	-1E+10	1	-1E+10	1
4902554	70	C	01/13/2023	11:05	-132.936	48.367	0	977.70	0	3.1280	0	34.3500	0	27.361	0	967.186	0	-1e10	8	-1e10	8	-1E+10	1	-1E+10	1	-1E+10	1	-1E+10	1	-1E+10	1	-1E+10	1
4902554	70	C	01/13/2023	11:05	-132.936	48.367	0	982.90	0	3.1120	0	34.3520	0	27.364	0	972.318	0	-1e10	8	-1e10	8	-1E+10	1	-1E+10	1	-1E+10	1	-1E+10	1	-1E+10	1	-1E+10	1
4902554	70	C	01/13/2023	11:05	-132.936	48.367	0	988.20	0	3.1070	0	34.3550	0	27.367	0	977.548	0	-1e10	8	-1e10	8	-1E+10	1	-1E+10	1	-1E+10	1	-1E+10	1	-1E+10	1	-1E+10	1
4902554	70	C	01/13/2023	11:05	-132.936	48.367	0	993.00	0	3.0980	0	34.3560	0	27.368	0	982.285	0	-1e10	8	-1e10	8	-1E+10	1	-1E+10	1	-1E+10	1	-1E+10	1	-1E+10	1	-1E+10	1
4902554	70	C	01/13/2023	11:05	-132.936	48.367	0	997.80	0	3.0940	0	34.3570	0	27.370	0	987.022	0	-1e10	8	-1e10	8	-1E+10	1	-1E+10	1	-1E+10	1	-1E+10	1	-1E+10	1	-1E+10	1
4902554	70	C	01/13/2023	11:05	-132.936	48.367	0	1005.40	0	3.0770	0	34.3600	0	27.373	0	994.522	0	-1e10	8	-1e10	8	-1E+10	1	-1E+10	1	-1E+10	1	-1E+10	1	-1E+10	1	-1E+10	1
4902554	70	C	01/13/2023	11:05	-132.936	48.367	0	1015.30	0	3.0560	0	34.3650	0	27.379	0	1004.291	0	-1e10	8	-1e10	8	-1E+10	1	-1E+10	1	-1E+10	1	-1E+10	1	-1E+10	1	-1E+10	1
4902554	70	C	01/13/2023	11:05	-132.936	48.367	0	1025.40	0	3.0160	0	34.3730	0	27.389	0	1014.257	0	-1e10	8	-1e10	8	-1E+10	1	-1E+10	1	-1E+10	1	-1E+10	1	-1E+10	1	-1E+10	1
4902554	70	C	01/13/2023	11:05	-132.936	48.367	0	1035.20	0	2.9890	0	34.3800	0	27.398	0	1023.927	0	-1e10	8	-1e10	8	-1E+10	1	-1E+10	1	-1E+10	1	-1E+10	1	-1E+10	1	-1E+10	1
4902554	70	C	01/13/2023	11:05	-132.936	48.367	0	1045.10	0	2.9680	0	34.3850	0	27.404	0	1033.695	0	-1e10	8	-1e10	8	-1E+10	1	-1E+10	1	-1E+10	1	-1E+10	1	-1E+10	1	-1E+10	1
4902554	70	C	01/13/2023	11:05	-132.936	48.367	0	1055.20	0	2.9510	0	34.3890	0	27.408	0	1043.659	0	-1e10	8	-1e10	8	-1E+10	1	-1E+10	1	-1E+10	1	-1E+10	1	-1E+10	1	-1E+10	1
4902554	70	C	01/13/2023	11:05	-132.936	48.367	0	1065.10	0	2.9340	0	34.3930	0	27.413	0	1053.426	0	-1e10	8	-1e10	8	-1E+10	1	-1E+10	1	-1E+10	1	-1E+10	1	-1E+10	1	-1E+10	1
4902554	70	C	01/13/2023	11:05	-132.936	48.367	0	1075.30	0	2.9170	0	34.3970	0	27.418	0	1063.489	0	-1e10	8	-1e10	8	-1E+10	1	-1E+10	1	-1E+10	1	-1E+10	1	-1E+10	1	-1E+10	1
4902554	70	C	01/13/2023	11:05	-132.936	48.367	0	1085.80	0	2.9030	0	34.4000	0	27.422	0	1073.846	0	-1e10	8	-1e10	8	-1E+10	1	-1E+10	1	-1E+10	1	-1E+10	1	-1E+10	1	-1E+10	1
4902554	70	C	01/13/2023	11:05	-132.936	48.367	0	1095.40	0	2.8880	0	34.4040	0	27.426	0	1083.316	0	-1e10	8	-1e10	8	-1E+10	1	-1E+10	1	-1E+10	1	-1E+10	1	-1E+10	1	-1E+10	1
4902554	70	C	01/13/2023	11:05	-132.936	48.367	0	1105.30	0	2.8740	0	34.4060	0	27.429	0	1093.081	0	-1e10	8	-1e10	8	-1E+10	1	-1E+10	1	-1E+10	1	-1E+10	1	-1E+10	1	-1E+10	1
4902554	70	C	01/13/2023	11:05	-132.936	48.367	0	1115.50	0	2.8620	0	34.4100	0	27.433	0	1103.141	0	-1e10	8	-1e10	8	-1E+10	1	-1E+10	1	-1E+10	1	-1E+10	1	-1E+10	1	-1E+10	1
4902554	70	C	01/13/2023	11:05	-132.936	48.367	0	1125.50	0	2.8450	0	34.4140	0	27.438	0	1113.004	0	-1e10	8	-1e10	8	-1E+10	1	-1E+10	1	-1E+10	1	-1E+10	1	-1E+10	1	-1E+10	1
4902554	70	C	01/13/2023	11:05	-132.936	48.367	0	1135.50	0	2.8300	0	34.4180	0	27.443	0	1122.866	0	-1e10	8	-1e10	8	-1E+10	1	-1E+10	1	-1E+10	1	-1E+10	1	-1E+10	1	-1E+10	1
4902554	70	C	01/13/2023	11:05	-132.936	48.367	0	1145.60	0	2.8100	0	34.4220	0	27.448	0	1132.827	0	-1e10	8	-1e10	8	-1E+10	1	-1E+10	1	-1E+10	1	-1E+10	1	-1E+10	1	-1E+10	1
4902554	70	C	01/13/2023	11:05	-132.936	48.367	0	1155.70	0	2.7940	0	34.4250	0	27.452	0	1142.787	0	-1e10	8	-1e10	8	-1E+10	1	-1E+10	1	-1E+10	1	-1E+10	1	-1E+10	1	-1E+10	1
4902554	70	C	01/13/2023	11:05	-132.936	48.367	0	1165.50	0	2.7770	0	34.4280	0	27.455	0	1152.450	0	-1e10	8	-1e10	8	-1E+10	1	-1E+10	1	-1E+10	1	-1E+10	1	-1E+10	1	-1E+10	1
4902554	70	C	01/13/2023	11:05	-132.936	48.367	0	1175.40	0	2.7630	0	34.4310	0	27.459	0	1162.212	0	-1e10	8	-1e10	8	-1E+10	1	-1E+10	1	-1E+10	1	-1E+10	1	-1E+10	1	-1E+10	1
4902554	70	C	01/13/2023	11:05	-132.936	48.367	0	1185.40	0	2.7450	0	34.4340	0	27.463	0	1172.072	0	-1e10	8	-1e10	8	-1E+10	1	-1E+10	1	-1E+10	1	-1E+10	1	-1E+10	1	-1E+10	1
4902554	70	C	01/13/2023	11:05	-132.936	48.367	0	1195.50	0	2.7320	0	34.4370	0	27.467	0	1182.030	0	-1e10	8	-1e10	8	-1E+10	1	-1E+10	1	-1E+10	1	-1E+10	1	-1E+10	1	-1E+10	1
4902554	70	C	01/13/2023	11:05	-132.936	48.367	0	1205.80	0	2.7190	0	34.4400	0	27.470	0	1192.185	0	-1e10	8	-1e10	8	-1E+10	1	-1E+10	1	-1E+10	1	-1E+10	1	-1E+10	1	-1E+10	1
4902554	70	C	01/13/2023	11:05	-132.936	48.367	0	1215.60	0	2.7010	0	34.4430	0	27.474	0	1201.846	0	-1e10	8	-1e10	8	-1E+10	1	-1E+10	1	-1E+10	1	-1E+10	1	-1E+10	1	-1E+10	1
4902554	70	C	01/13/2023	11:05	-132.936	48.367	0	1225.60	0	2.6820	0	34.4470	0	27.479	0	1211.704	0	-1e10	8	-1e10	8	-1E+10	1	-1E+10	1	-1E+10	1	-1E+10	1	-1E+10	1	-1E+10	1
4902554	70	C	01/13/2023	11:05	-132.936	48.367	0	1235.70	0	2.6710	0	34.4490	0	27.482	0	1221.660	0	-1e10	8	-1e10	8	-1E+10	1	-1E+10	1	-1E+10	1	-1E+10	1	-1E+10	1	-1E+10	1
4902554	70	C	01/13/2023	11:05	-132.936	48.367	0	1245.50	0	2.6610	0	34.4510	0	27.484	0	1231.320	0	-1e10	8	-1e10	8	-1E+10	1	-1E+10	1	-1E+10	1	-1E+10	1	-1E+10	1	-1E+10	1
4902554	70	C	01/13/2023	11:05	-132.936	48.367	0	1255.30	0	2.6500	0	34.4530	0	27.487	0	1240.980	0	-1e10	8	-1e10	8	-1E+10	1	-1E+10	1	-1E+10	1	-1E+10	1	-1E+10	1	-1E+10	1
4902554	70	C	01/13/2023	11:05	-132.936	48.367	0	1265.70	0	2.6470	0	34.4540	0	27.488	0	1251.230	0	-1e10	8	-1e10	8	-1E+10	1	-1E+10	1	-1E+10	1	-1E+10	1	-1E+10	1	-1E+10	1
4902554	70	C	01/13/2023	11:05	-132.936	48.367	0	1275.50	0	2.6400	0	34.4550	0	27.490	0	1260.889	0	-1e10	8	-1e10	8	-1E+10	1	-1E+10	1	-1E+10	1	-1E+10	1	-1E+10	1	-1E+10	1
4902554	70	C	01/13/2023	11:05	-132.936	48.367	0	1285.20	0	2.6250	0	34.4580	0	27.493	0	1270.449	0	-1e10	8	-1e10	8	-1E+10	1	-1E+10	1	-1E+10	1	-1E+10	1	-1E+10	1	-1E+10	1
4902554	70	C	01/13/2023	11:05	-132.936	48.367	0	1295.10	0	2.6130	0	34.4600	0	27.496	0	1280.205	0	-1e10	8	-1e10	8	-1E+10	1	-1E+10	1	-1E+10	1	-1E+10	1	-1E+10	1	-1E+10	1
4902554	70	C	01/13/2023	11:05	-132.936	48.367	0	1305.30	0	2.5920	0	34.4650	0	27.502	0	1290.257	0	-1e10	8	-1e10	8	-1E+10	1	-1E+10	1	-1E+10	1	-1E+10	1	-1E+10	1	-1E+10	1
4902554	70	C	01/13/2023	11:05	-132.936	48.367	0	1315.30	0	2.5810	0	34.4670	0	27.504	0	1300.110	0	-1e10	8	-1e10	8	-1E+10	1	-1E+10	1	-1E+10	1	-1E+10	1	-1E+10	1	-1E+10	1
4902554	70	C	01/13/2023	11:05	-132.936	48.367	0	1325.30	0	2.5620	0	34.4700	0	27.508	0	1309.964	0	-1e10	8	-1e10	8	-1E+10	1	-1E+10	1	-1E+10	1	-1E+10	1	-1E+10	1	-1E+10	1
4902554	70	C	01/13/2023	11:05	-132.936	48.367	0	1335.50	0	2.5390	0	34.4740	0	27.514	0	1320.014	0	-1e10	8	-1e10	8	-1E+10	1	-1E+10	1	-1E+10	1	-1E+10	1	-1E+10	1	-1E+10	1
4902554	70	C	01/13/2023	11:05	-132.936	48.367	0	1345.30	0	2.5310	0	34.4760	0	27.516	0	1329.669	0	-1e10	8	-1e10	8	-1E+10	1	-1E+10	1	-1E+10	1	-1E+10	1	-1E+10	1	-1E+10	1
4902554	70	C	01/13/2023	11:05	-132.936	48.367	0	1355.50	0	2.5190	0	34.4780	0	27.519	0	1339.718	0	-1e10	8	-1e10	8	-1E+10	1	-1E+10	1	-1E+10	1	-1E+10	1	-1E+10	1	-1E+10	1
4902554	70	C	01/13/2023	11:05	-132.936	48.367	0	1365.40	0	2.5090	0	34.4800	0	27.521	0	1349.472	0	-1e10	8	-1e10	8	-1E+10	1	-1E+10	1	-1E+10	1	-1E+10	1	-1E+10	1	-1E+10	1
4902554	70	C	01/13/2023	11:05	-132.936	48.367	0	1375.30	0	2.5010	0	34.4830	0	27.524	0	1359.224	0	-1e10	8	-1e10	8	-1E+10	1	-1E+10	1	-1E+10	1	-1E+10	1	-1E+10	1	-1E+10	1
4902554	70	C	01/13/2023	11:05	-132.936	48.367	0	1385.40	0	2.4910	0	34.4850	0	27.527	0	1369.173	0	-1e10	8	-1e10	8	-1E+10	1	-1E+10	1	-1E+10	1	-1E+10	1	-1E+10	1	-1E+10	1
4902554	70	C	01/13/2023	11:05	-132.936	48.367	0	1395.10	0	2.4780	0	34.4870	0	27.529	0	1378.728	0	-1e10	8	-1e10	8	-1E+10	1	-1E+10	1	-1E+10	1	-1E+10	1	-1E+10	1	-1E+10	1
4902554	70	C	01/13/2023	11:05	-132.936	48.367	0	1405.00	0	2.4700	0	34.4890	0	27.532	0	1388.479	0	-1e10	8	-1e10	8	-1E+10	1	-1E+10	1	-1E+10	1	-1E+10	1	-1E+10	1	-1E+10	1
4902554	70	C	01/13/2023	11:05	-132.936	48.367	0	1415.00	0	2.4560	0	34.4910	0	27.535	0	1398.329	0	-1e10	8	-1e10	8	-1E+10	1	-1E+10	1	-1E+10	1	-1E+10	1	-1E+10	1	-1E+10	1
4902554	70	C	01/13/2023	11:05	-132.936	48.367	0	1425.40	0	2.4440	0	34.4930	0	27.537	0	1408.571	0	-1e10	8	-1e10	8	-1E+10	1	-1E+10	1	-1E+10	1	-1E+10	1	-1E+10	1	-1E+10	1
4902554	70	C	01/13/2023	11:05	-132.936	48.367	0	1435.50	0	2.4350	0	34.4950	0	27.540	0	1418.518	0	-1e10	8	-1e10	8	-1E+10	1	-1E+10	1	-1E+10	1	-1E+10	1	-1E+10	1	-1E+10	1
4902554	70	C	01/13/2023	11:05	-132.936	48.367	0	1445.70	0	2.4310	0	34.4960	0	27.541	0	1428.563	0	-1e10	8	-1e10	8	-1E+10	1	-1E+10	1	-1E+10	1	-1E+10	1	-1E+10	1	-1E+10	1
4902554	70	C	01/13/2023	11:05	-132.936	48.367	0	1455.50	0	2.4160	0	34.4980	0	27.544	0	1438.214	0	-1e10	8	-1e10	8	-1E+10	1	-1E+10	1	-1E+10	1	-1E+10	1	-1E+10	1	-1E+10	1
4902554	70	C	01/13/2023	11:05	-132.936	48.367	0	1465.20	0	2.4030	0	34.5000	0	27.546	0	1447.765	0	-1e10	8	-1e10	8	-1E+10	1	-1E+10	1	-1E+10	1	-1E+10	1	-1E+10	1	-1E+10	1
4902554	70	C	01/13/2023	11:05	-132.936	48.367	0	1475.10	0	2.3910	0	34.5030	0	27.550	0	1457.513	0	-1e10	8	-1e10	8	-1E+10	1	-1E+10	1	-1E+10	1	-1E+10	1	-1E+10	1	-1E+10	1
4902554	70	C	01/13/2023	11:05	-132.936	48.367	0	1485.20	0	2.3790	0	34.5050	0	27.553	0	1467.458	0	-1e10	8	-1e10	8	-1E+10	1	-1E+10	1	-1E+10	1	-1E+10	1	-1E+10	1	-1E+10	1
4902554	70	C	01/13/2023	11:05	-132.936	48.367	0	1495.30	0	2.3700	0	34.5060	0	27.554	0	1477.402	0	-1e10	8	-1e10	8	-1E+10	1	-1E+10	1	-1E+10	1	-1E+10	1	-1E+10	1	-1E+10	1
4902554	70	C	01/13/2023	11:05	-132.936	48.367	0	1505.60	0	2.3600	0	34.5080	0	27.557	0	1487.542	0	-1e10	8	-1e10	8	-1E+10	1	-1E+10	1	-1E+10	1	-1E+10	1	-1E+10	1	-1E+10	1
4902554	70	C	01/13/2023	11:05	-132.936	48.367	0	1515.50	0	2.3520	0	34.5100	0	27.559	0	1497.288	0	-1e10	8	-1e10	8	-1E+10	1	-1E+10	1	-1E+10	1	-1E+10	1	-1E+10	1	-1E+10	1
4902554	70	C	01/13/2023	11:05	-132.936	48.367	0	1525.10	0	2.3380	0	34.5120	0	27.562	0	1506.739	0	-1e10	8	-1e10	8	-1E+10	1	-1E+10	1	-1E+10	1	-1E+10	1	-1E+10	1	-1E+10	1
4902554	70	C	01/13/2023	11:05	-132.936	48.367	0	1535.00	0	2.3290	0	34.5140	0	27.564	0	1516.484	0	-1e10	8	-1e10	8	-1E+10	1	-1E+10	1	-1E+10	1	-1E+10	1	-1E+10	1	-1E+10	1
4902554	70	C	01/13/2023	11:05	-132.936	48.367	0	1545.00	0	2.3130	0	34.5150	0	27.566	0	1526.328	0	-1e10	8	-1e10	8	-1E+10	1	-1E+10	1	-1E+10	1	-1E+10	1	-1E+10	1	-1E+10	1
4902554	70	C	01/13/2023	11:05	-132.936	48.367	0	1555.00	0	2.2950	0	34.5160	0	27.569	0	1536.170	0	-1e10	8	-1e10	8	-1E+10	1	-1E+10	1	-1E+10	1	-1E+10	1	-1E+10	1	-1E+10	1
4902554	70	C	01/13/2023	11:05	-132.936	48.367	0	1565.10	0	2.2720	0	34.5210	0	27.575	0	1546.111	0	-1e10	8	-1e10	8	-1E+10	1	-1E+10	1	-1E+10	1	-1E+10	1	-1E+10	1	-1E+10	1
4902554	70	C	01/13/2023	11:05	-132.936	48.367	0	1575.30	0	2.2640	0	34.5220	0	27.576	0	1556.150	0	-1e10	8	-1e10	8	-1E+10	1	-1E+10	1	-1E+10	1	-1E+10	1	-1E+10	1	-1E+10	1
4902554	70	C	01/13/2023	11:05	-132.936	48.367	0	1585.50	0	2.2570	0	34.5240	0	27.578	0	1566.188	0	-1e10	8	-1e10	8	-1E+10	1	-1E+10	1	-1E+10	1	-1E+10	1	-1E+10	1	-1E+10	1
4902554	70	C	01/13/2023	11:05	-132.936	48.367	0	1595.40	0	2.2530	0	34.5240	0	27.579	0	1575.931	0	-1e10	8	-1e10	8	-1E+10	1	-1E+10	1	-1E+10	1	-1E+10	1	-1E+10	1	-1E+10	1
4902554	70	C	01/13/2023	11:05	-132.936	48.367	0	1605.60	0	2.2430	0	34.5260	0	27.581	0	1585.968	0	-1e10	8	-1e10	8	-1E+10	1	-1E+10	1	-1E+10	1	-1E+10	1	-1E+10	1	-1E+10	1
4902554	70	C	01/13/2023	11:05	-132.936	48.367	0	1615.40	0	2.2350	0	34.5270	0	27.583	0	1595.611	0	-1e10	8	-1e10	8	-1E+10	1	-1E+10	1	-1E+10	1	-1E+10	1	-1E+10	1	-1E+10	1
4902554	70	C	01/13/2023	11:05	-132.936	48.367	0	1625.10	0	2.2280	0	34.5290	0	27.585	0	1605.156	0	-1e10	8	-1e10	8	-1E+10	1	-1E+10	1	-1E+10	1	-1E+10	1	-1E+10	1	-1E+10	1
4902554	70	C	01/13/2023	11:05	-132.936	48.367	0	1635.10	0	2.2180	0	34.5310	0	27.587	0	1614.995	0	-1e10	8	-1e10	8	-1E+10	1	-1E+10	1	-1E+10	1	-1E+10	1	-1E+10	1	-1E+10	1
4902554	70	C	01/13/2023	11:05	-132.936	48.367	0	1645.20	0	2.2100	0	34.5320	0	27.589	0	1624.932	0	-1e10	8	-1e10	8	-1E+10	1	-1E+10	1	-1E+10	1	-1E+10	1	-1E+10	1	-1E+10	1
4902554	70	C	01/13/2023	11:05	-132.936	48.367	0	1655.50	0	2.2060	0	34.5330	0	27.590	0	1635.066	0	-1e10	8	-1e10	8	-1E+10	1	-1E+10	1	-1E+10	1	-1E+10	1	-1E+10	1	-1E+10	1
4902554	70	C	01/13/2023	11:05	-132.936	48.367	0	1665.40	0	2.2040	0	34.5340	0	27.591	0	1644.805	0	-1e10	8	-1e10	8	-1E+10	1	-1E+10	1	-1E+10	1	-1E+10	1	-1E+10	1	-1E+10	1
4902554	70	C	01/13/2023	11:05	-132.936	48.367	0	1675.20	0	2.1920	0	34.5350	0	27.593	0	1654.446	0	-1e10	8	-1e10	8	-1E+10	1	-1E+10	1	-1E+10	1	-1E+10	1	-1E+10	1	-1E+10	1
4902554	70	C	01/13/2023	11:05	-132.936	48.367	0	1685.20	0	2.1850	0	34.5370	0	27.595	0	1664.282	0	-1e10	8	-1e10	8	-1E+10	1	-1E+10	1	-1E+10	1	-1E+10	1	-1E+10	1	-1E+10	1
4902554	70	C	01/13/2023	11:05	-132.936	48.367	0	1695.30	0	2.1750	0	34.5390	0	27.597	0	1674.217	0	-1e10	8	-1e10	8	-1E+10	1	-1E+10	1	-1E+10	1	-1E+10	1	-1E+10	1	-1E+10	1
4902554	70	C	01/13/2023	11:05	-132.936	48.367	0	1705.20	0	2.1700	0	34.5400	0	27.599	0	1683.955	0	-1e10	8	-1e10	8	-1E+10	1	-1E+10	1	-1E+10	1	-1E+10	1	-1E+10	1	-1E+10	1
4902554	70	C	01/13/2023	11:05	-132.936	48.367	0	1715.50	0	2.1620	0	34.5410	0	27.600	0	1694.085	0	-1e10	8	-1e10	8	-1E+10	1	-1E+10	1	-1E+10	1	-1E+10	1	-1E+10	1	-1E+10	1
4902554	70	C	01/13/2023	11:05	-132.936	48.367	0	1725.80	0	2.1480	0	34.5440	0	27.604	0	1704.215	0	-1e10	8	-1e10	8	-1E+10	1	-1E+10	1	-1E+10	1	-1E+10	1	-1E+10	1	-1E+10	1
4902554	70	C	01/13/2023	11:05	-132.936	48.367	0	1735.50	0	2.1360	0	34.5460	0	27.606	0	1713.755	0	-1e10	8	-1e10	8	-1E+10	1	-1E+10	1	-1E+10	1	-1E+10	1	-1E+10	1	-1E+10	1
4902554	70	C	01/13/2023	11:05	-132.936	48.367	0	1745.20	0	2.1240	0	34.5490	0	27.610	0	1723.294	0	-1e10	8	-1e10	8	-1E+10	1	-1E+10	1	-1E+10	1	-1E+10	1	-1E+10	1	-1E+10	1
4902554	70	C	01/13/2023	11:05	-132.936	48.367	0	1755.60	0	2.1100	0	34.5520	0	27.613	0	1733.521	0	-1e10	8	-1e10	8	-1E+10	1	-1E+10	1	-1E+10	1	-1E+10	1	-1E+10	1	-1E+10	1
4902554	70	C	01/13/2023	11:05	-132.936	48.367	0	1765.50	0	2.1000	0	34.5540	0	27.616	0	1743.256	0	-1e10	8	-1e10	8	-1E+10	1	-1E+10	1	-1E+10	1	-1E+10	1	-1E+10	1	-1E+10	1
4902554	70	C	01/13/2023	11:05	-132.936	48.367	0	1775.60	0	2.0920	0	34.5550	0	27.617	0	1753.187	0	-1e10	8	-1e10	8	-1E+10	1	-1E+10	1	-1E+10	1	-1E+10	1	-1E+10	1	-1E+10	1
4902554	70	C	01/13/2023	11:05	-132.936	48.367	0	1785.50	0	2.0870	0	34.5570	0	27.619	0	1762.921	0	-1e10	8	-1e10	8	-1E+10	1	-1E+10	1	-1E+10	1	-1E+10	1	-1E+10	1	-1E+10	1
4902554	70	C	01/13/2023	11:05	-132.936	48.367	0	1795.50	0	2.0790	0	34.5580	0	27.621	0	1772.753	0	-1e10	8	-1e10	8	-1E+10	1	-1E+10	1	-1E+10	1	-1E+10	1	-1E+10	1	-1E+10	1
4902554	70	C	01/13/2023	11:05	-132.936	48.367	0	1805.50	0	2.0710	0	34.5610	0	27.624	0	1782.584	0	-1e10	8	-1e10	8	-1E+10	1	-1E+10	1	-1E+10	1	-1E+10	1	-1E+10	1	-1E+10	1
4902554	70	C	01/13/2023	11:05	-132.936	48.367	0	1815.10	0	2.0610	0	34.5630	0	27.626	0	1792.022	0	-1e10	8	-1e10	8	-1E+10	1	-1E+10	1	-1E+10	1	-1E+10	1	-1E+10	1	-1E+10	1
4902554	70	C	01/13/2023	11:05	-132.936	48.367	0	1825.30	0	2.0500	0	34.5650	0	27.629	0	1802.049	0	-1e10	8	-1e10	8	-1E+10	1	-1E+10	1	-1E+10	1	-1E+10	1	-1E+10	1	-1E+10	1
4902554	70	C	01/13/2023	11:05	-132.936	48.367	0	1835.80	0	2.0440	0	34.5660	0	27.630	0	1812.371	0	-1e10	8	-1e10	8	-1E+10	1	-1E+10	1	-1E+10	1	-1E+10	1	-1E+10	1	-1E+10	1
4902554	70	C	01/13/2023	11:05	-132.936	48.367	0	1845.80	0	2.0400	0	34.5670	0	27.631	0	1822.200	0	-1e10	8	-1e10	8	-1E+10	1	-1E+10	1	-1E+10	1	-1E+10	1	-1E+10	1	-1E+10	1
4902554	70	C	01/13/2023	11:05	-132.936	48.367	0	1855.40	0	2.0350	0	34.5680	0	27.633	0	1831.636	0	-1e10	8	-1e10	8	-1E+10	1	-1E+10	1	-1E+10	1	-1E+10	1	-1E+10	1	-1E+10	1
4902554	70	C	01/13/2023	11:05	-132.936	48.367	0	1865.50	0	2.0270	0	34.5700	0	27.635	0	1841.563	0	-1e10	8	-1e10	8	-1E+10	1	-1E+10	1	-1E+10	1	-1E+10	1	-1E+10	1	-1E+10	1
4902554	70	C	01/13/2023	11:05	-132.936	48.367	0	1875.40	0	2.0230	0	34.5700	0	27.635	0	1851.293	0	-1e10	8	-1e10	8	-1E+10	1	-1E+10	1	-1E+10	1	-1E+10	1	-1E+10	1	-1E+10	1
4902554	70	C	01/13/2023	11:05	-132.936	48.367	0	1885.30	0	2.0190	0	34.5710	0	27.636	0	1861.022	0	-1e10	8	-1e10	8	-1E+10	1	-1E+10	1	-1E+10	1	-1E+10	1	-1E+10	1	-1E+10	1
4902554	70	C	01/13/2023	11:05	-132.936	48.367	0	1895.50	0	2.0160	0	34.5720	0	27.638	0	1871.046	0	-1e10	8	-1e10	8	-1E+10	1	-1E+10	1	-1E+10	1	-1E+10	1	-1E+10	1	-1E+10	1
4902554	70	C	01/13/2023	11:05	-132.936	48.367	0	1905.50	0	2.0100	0	34.5730	0	27.639	0	1880.873	0	-1e10	8	-1e10	8	-1E+10	1	-1E+10	1	-1E+10	1	-1E+10	1	-1E+10	1	-1E+10	1
4902554	70	C	01/13/2023	11:05	-132.936	48.367	0	1915.20	0	2.0020	0	34.5750	0	27.641	0	1890.404	0	-1e10	8	-1e10	8	-1E+10	1	-1E+10	1	-1E+10	1	-1E+10	1	-1E+10	1	-1E+10	1
4902554	70	C	01/13/2023	11:05	-132.936	48.367	0	1924.90	0	1.9980	0	34.5760	0	27.642	0	1899.936	0	-1e10	8	-1e10	8	-1E+10	1	-1E+10	1	-1E+10	1	-1E+10	1	-1E+10	1	-1E+10	1
4902554	70	C	01/13/2023	11:05	-132.936	48.367	0	1935.10	0	1.9940	0	34.5770	0	27.643	0	1909.958	0	-1e10	8	-1e10	8	-1E+10	1	-1E+10	1	-1E+10	1	-1E+10	1	-1E+10	1	-1E+10	1
4902554	70	C	01/13/2023	11:05	-132.936	48.367	0	1945.50	0	1.9880	0	34.5780	0	27.645	0	1920.176	0	-1e10	8	-1e10	8	-1E+10	1	-1E+10	1	-1E+10	1	-1E+10	1	-1E+10	1	-1E+10	1
4902554	70	C	01/13/2023	11:05	-132.936	48.367	0	1955.50	0	1.9830	0	34.5790	0	27.646	0	1930.000	0	-1e10	8	-1e10	8	-1E+10	1	-1E+10	1	-1E+10	1	-1E+10	1	-1E+10	1	-1E+10	1
4902554	70	C	01/13/2023	11:05	-132.936	48.367	0	1965.90	0	1.9720	0	34.5810	0	27.649	0	1940.217	0	-1e10	8	-1e10	8	-1E+10	1	-1E+10	1	-1E+10	1	-1E+10	1	-1E+10	1	-1E+10	1
4902554	70	C	01/13/2023	11:05	-132.936	48.367	0	1971.00	0	1.9690	0	34.5820	0	27.650	0	1945.227	0	-1e10	8	-1e10	8	-1E+10	1	-1E+10	1	-1E+10	1	-1E+10	1	-1E+10	1	-1E+10	1
4902554	70	C	01/13/2023	11:05	-132.936	48.367	0																										
4902554	71	C	01/23/2023	15:54	-132.911	48.387	0	0.60	0	8.3740	0	32.2370	0	25.050	0	0.595	0	-1e10	8	-1e10	8	-1E+10	1	-1E+10	1	-1E+10	1	-1E+10	1	-1E+10	1	-1E+10	1
4902554	71	C	01/23/2023	15:54	-132.911	48.387	0	0.80	0	8.3740	0	32.2380	0	25.051	0	0.793	0	-1e10	8	-1e10	8	-1E+10	1	-1E+10	1	-1E+10	1	-1E+10	1	-1E+10	1	-1E+10	1
4902554	71	C	01/23/2023	15:54	-132.911	48.387	0	0.90	0	8.3750	0	32.2370	0	25.050	0	0.892	0	-1e10	1	-1e10	1	-1E+10	1	-1E+10	1	-1E+10	1	-1E+10	1	-1E+10	1	-1E+10	1
4902554	71	C	01/23/2023	15:54	-132.911	48.387	0	1.10	0	8.3752	0	32.2370	0	25.050	0	1.091	0	-1e10	1	-1e10	1	-1E+10	1	-1E+10	1	-1E+10	1	-1E+10	1	-1E+10	1	-1E+10	1
4902554	71	C	01/23/2023	15:54	-132.911	48.387	0	1.50	0	8.3755	0	32.2370	0	25.050	0	1.487	0	-1e10	1	-1e10	1	-1E+10	1	-1E+10	1	-1E+10	1	-1E+10	1	-1E+10	1	-1E+10	1
4902554	71	C	01/23/2023	15:54	-132.911	48.387	0	2.00	0	8.3760	0	32.2370	0	25.050	0	1.983	0	-1e10	1	-1e10	1	-1E+10	1	-1E+10	1	-1E+10	1	-1E+10	1	-1E+10	1	-1E+10	1
4902554	71	C	01/23/2023	15:54	-132.911	48.387	0	2.10	0	8.3760	0	32.2370	0	25.050	0	2.082	0	-1e10	8	-1e10	8	-1E+10	1	-1E+10	1	-1E+10	1	-1E+10	1	-1E+10	1	-1E+10	1
4902554	71	C	01/23/2023	15:54	-132.911	48.387	0	3.00	0	8.3760	0	32.2370	0	25.050	0	2.975	0	-1e10	8	-1e10	8	-1E+10	1	-1E+10	1	-1E+10	1	-1E+10	1	-1E+10	1	-1E+10	1
4902554	71	C	01/23/2023	15:54	-132.911	48.387	0	4.10	0	8.3760	0	32.2380	0	25.051	0	4.065	0	-1e10	8	-1e10	8	-1E+10	1	-1E+10	1	-1E+10	1	-1E+10	1	-1E+10	1	-1E+10	1
4902554	71	C	01/23/2023	15:54	-132.911	48.387	0	5.10	0	8.3760	0	32.2380	0	25.051	0	5.057	0	-1e10	8	-1e10	8	-1E+10	1	-1E+10	1	-1E+10	1	-1E+10	1	-1E+10	1	-1E+10	1
4902554	71	C	01/23/2023	15:54	-132.911	48.387	0	6.10	0	8.3750	0	32.2390	0	25.052	0	6.049	0	-1e10	8	-1e10	8	-1E+10	1	-1E+10	1	-1E+10	1	-1E+10	1	-1E+10	1	-1E+10	1
4902554	71	C	01/23/2023	15:54	-132.911	48.387	0	7.00	0	8.3750	0	32.2390	0	25.052	0	6.941	0	-1e10	8	-1e10	8	-1E+10	1	-1E+10	1	-1E+10	1	-1E+10	1	-1E+10	1	-1E+10	1
4902554	71	C	01/23/2023	15:54	-132.911	48.387	0	7.90	0	8.3760	0	32.2390	0	25.052	0	7.833	0	-1e10	8	-1e10	8	-1E+10	1	-1E+10	1	-1E+10	1	-1E+10	1	-1E+10	1	-1E+10	1
4902554	71	C	01/23/2023	15:54	-132.911	48.387	0	9.10	0	8.3760	0	32.2380	0	25.051	0	9.023	0	-1e10	8	-1e10	8	-1E+10	1	-1E+10	1	-1E+10	1	-1E+10	1	-1E+10	1	-1E+10	1
4902554	71	C	01/23/2023	15:54	-132.911	48.387	0	10.10	0	8.3760	0	32.2390	0	25.052	0	10.015	0	-1e10	8	-1e10	8	-1E+10	1	-1E+10	1	-1E+10	1	-1E+10	1	-1E+10	1	-1E+10	1
4902554	71	C	01/23/2023	15:54	-132.911	48.387	0	11.00	0	8.3760	0	32.2390	0	25.052	0	10.907	0	-1e10	8	-1e10	8	-1E+10	1	-1E+10	1	-1E+10	1	-1E+10	1	-1E+10	1	-1E+10	1
4902554	71	C	01/23/2023	15:54	-132.911	48.387	0	12.00	0	8.3760	0	32.2390	0	25.052	0	11.899	0	-1e10	8	-1e10	8	-1E+10	1	-1E+10	1	-1E+10	1	-1E+10	1	-1E+10	1	-1E+10	1
4902554	71	C	01/23/2023	15:54	-132.911	48.387	0	12.90	0	8.3770	0	32.2390	0	25.052	0	12.791	0	-1e10	8	-1e10	8	-1E+10	1	-1E+10	1	-1E+10	1	-1E+10	1	-1E+10	1	-1E+10	1
4902554	71	C	01/23/2023	15:54	-132.911	48.387	0	14.00	0	8.3770	0	32.2390	0	25.052	0	13.882	0	-1e10	8	-1e10	8	-1E+10	1	-1E+10	1	-1E+10	1	-1E+10	1	-1E+10	1	-1E+10	1
4902554	71	C	01/23/2023	15:54	-132.911	48.387	0	15.10	0	8.3770	0	32.2380	0	25.051	0	14.972	0	-1e10	8	-1e10	8	-1E+10	1	-1E+10	1	-1E+10	1	-1E+10	1	-1E+10	1	-1E+10	1
4902554	71	C	01/23/2023	15:54	-132.911	48.387	0	16.10	0	8.3770	0	32.2390	0	25.052	0	15.964	0	-1e10	8	-1e10	8	-1E+10	1	-1E+10	1	-1E+10	1	-1E+10	1	-1E+10	1	-1E+10	1
4902554	71	C	01/23/2023	15:54	-132.911	48.387	0	17.00	0	8.3770	0	32.2380	0	25.051	0	16.856	0	-1e10	8	-1e10	8	-1E+10	1	-1E+10	1	-1E+10	1	-1E+10	1	-1E+10	1	-1E+10	1
4902554	71	C	01/23/2023	15:54	-132.911	48.387	0	17.90	0	8.3770	0	32.2380	0	25.051	0	17.748	0	-1e10	8	-1e10	8	-1E+10	1	-1E+10	1	-1E+10	1	-1E+10	1	-1E+10	1	-1E+10	1
4902554	71	C	01/23/2023	15:54	-132.911	48.387	0	18.80	0	8.3770	0	32.2390	0	25.052	0	18.641	0	-1e10	8	-1e10	8	-1E+10	1	-1E+10	1	-1E+10	1	-1E+10	1	-1E+10	1	-1E+10	1
4902554	71	C	01/23/2023	15:54	-132.911	48.387	0	19.90	0	8.3770	0	32.2380	0	25.051	0	19.731	0	-1e10	8	-1e10	8	-1E+10	1	-1E+10	1	-1E+10	1	-1E+10	1	-1E+10	1	-1E+10	1
4902554	71	C	01/23/2023	15:54	-132.911	48.387	0	20.90	0	8.3770	0	32.2380	0	25.051	0	20.723	0	-1e10	8	-1e10	8	-1E+10	1	-1E+10	1	-1E+10	1	-1E+10	1	-1E+10	1	-1E+10	1
4902554	71	C	01/23/2023	15:54	-132.911	48.387	0	22.00	0	8.3770	0	32.2390	0	25.052	0	21.813	0	-1e10	8	-1e10	8	-1E+10	1	-1E+10	1	-1E+10	1	-1E+10	1	-1E+10	1	-1E+10	1
4902554	71	C	01/23/2023	15:54	-132.911	48.387	0	22.70	0	8.3780	0	32.2390	0	25.052	0	22.507	0	-1e10	8	-1e10	8	-1E+10	1	-1E+10	1	-1E+10	1	-1E+10	1	-1E+10	1	-1E+10	1
4902554	71	C	01/23/2023	15:54	-132.911	48.387	0	23.80	0	8.3770	0	32.2390	0	25.052	0	23.598	0	-1e10	8	-1e10	8	-1E+10	1	-1E+10	1	-1E+10	1	-1E+10	1	-1E+10	1	-1E+10	1
4902554	71	C	01/23/2023	15:54	-132.911	48.387	0	24.90	0	8.3780	0	32.2380	0	25.051	0	24.689	0	-1e10	8	-1e10	8	-1E+10	1	-1E+10	1	-1E+10	1	-1E+10	1	-1E+10	1	-1E+10	1
4902554	71	C	01/23/2023	15:54	-132.911	48.387	0	25.90	0	8.3780	0	32.2390	0	25.052	0	25.680	0	-1e10	8	-1e10	8	-1E+10	1	-1E+10	1	-1E+10	1	-1E+10	1	-1E+10	1	-1E+10	1
4902554	71	C	01/23/2023	15:54	-132.911	48.387	0	27.10	0	8.3790	0	32.2390	0	25.051	0	26.870	0	-1e10	8	-1e10	8	-1E+10	1	-1E+10	1	-1E+10	1	-1E+10	1	-1E+10	1	-1E+10	1
4902554	71	C	01/23/2023	15:54	-132.911	48.387	0	27.80	0	8.3800	0	32.2390	0	25.051	0	27.564	0	-1e10	8	-1e10	8	-1E+10	1	-1E+10	1	-1E+10	1	-1E+10	1	-1E+10	1	-1E+10	1
4902554	71	C	01/23/2023	15:54	-132.911	48.387	0	28.90	0	8.3800	0	32.2390	0	25.051	0	28.654	0	-1e10	8	-1e10	8	-1E+10	1	-1E+10	1	-1E+10	1	-1E+10	1	-1E+10	1	-1E+10	1
4902554	71	C	01/23/2023	15:54	-132.911	48.387	0	30.00	0	8.3800	0	32.2390	0	25.051	0	29.745	0	-1e10	8	-1e10	8	-1E+10	1	-1E+10	1	-1E+10	1	-1E+10	1	-1E+10	1	-1E+10	1
4902554	71	C	01/23/2023	15:54	-132.911	48.387	0	31.00	0	8.3790	0	32.2390	0	25.052	0	30.736	0	-1e10	8	-1e10	8	-1E+10	1	-1E+10	1	-1E+10	1	-1E+10	1	-1E+10	1	-1E+10	1
4902554	71	C	01/23/2023	15:54	-132.911	48.387	0	32.10	0	8.3800	0	32.2390	0	25.051	0	31.827	0	-1e10	8	-1e10	8	-1E+10	1	-1E+10	1	-1E+10	1	-1E+10	1	-1E+10	1	-1E+10	1
4902554	71	C	01/23/2023	15:54	-132.911	48.387	0	33.00	0	8.3800	0	32.2390	0	25.051	0	32.719	0	-1e10	8	-1e10	8	-1E+10	1	-1E+10	1	-1E+10	1	-1E+10	1	-1E+10	1	-1E+10	1
4902554	71	C	01/23/2023	15:54	-132.911	48.387	0	34.10	0	8.3800	0	32.2390	0	25.051	0	33.810	0	-1e10	8	-1e10	8	-1E+10	1	-1E+10	1	-1E+10	1	-1E+10	1	-1E+10	1	-1E+10	1
4902554	71	C	01/23/2023	15:54	-132.911	48.387	0	35.10	0	8.3800	0	32.2390	0	25.051	0	34.801	0	-1e10	8	-1e10	8	-1E+10	1	-1E+10	1	-1E+10	1	-1E+10	1	-1E+10	1	-1E+10	1
4902554	71	C	01/23/2023	15:54	-132.911	48.387	0	36.10	0	8.3800	0	32.2390	0	25.051	0	35.793	0	-1e10	8	-1e10	8	-1E+10	1	-1E+10	1	-1E+10	1	-1E+10	1	-1E+10	1	-1E+10	1
4902554	71	C	01/23/2023	15:54	-132.911	48.387	0	37.00	0	8.3800	0	32.2390	0	25.051	0	36.685	0	-1e10	8	-1e10	8	-1E+10	1	-1E+10	1	-1E+10	1	-1E+10	1	-1E+10	1	-1E+10	1
4902554	71	C	01/23/2023	15:54	-132.911	48.387	0	38.00	0	8.3800	0	32.2390	0	25.051	0	37.676	0	-1e10	8	-1e10	8	-1E+10	1	-1E+10	1	-1E+10	1	-1E+10	1	-1E+10	1	-1E+10	1
4902554	71	C	01/23/2023	15:54	-132.911	48.387	0	38.90	0	8.3810	0	32.2390	0	25.051	0	38.569	0	-1e10	8	-1e10	8	-1E+10	1	-1E+10	1	-1E+10	1	-1E+10	1	-1E+10	1	-1E+10	1
4902554	71	C	01/23/2023	15:54	-132.911	48.387	0	39.80	0	8.3820	0	32.2400	0	25.052	0	39.461	0	-1e10	8	-1e10	8	-1E+10	1	-1E+10	1	-1E+10	1	-1E+10	1	-1E+10	1	-1E+10	1
4902554	71	C	01/23/2023	15:54	-132.911	48.387	0	40.70	0	8.3810	0	32.2390	0	25.051	0	40.353	0	-1e10	8	-1e10	8	-1E+10	1	-1E+10	1	-1E+10	1	-1E+10	1	-1E+10	1	-1E+10	1
4902554	71	C	01/23/2023	15:54	-132.911	48.387	0	41.90	0	8.3830	0	32.2390	0	25.051	0	41.543	0	-1e10	8	-1e10	8	-1E+10	1	-1E+10	1	-1E+10	1	-1E+10	1	-1E+10	1	-1E+10	1
4902554	71	C	01/23/2023	15:54	-132.911	48.387	0	43.10	0	8.3820	0	32.2400	0	25.052	0	42.732	0	-1e10	8	-1e10	8	-1E+10	1	-1E+10	1	-1E+10	1	-1E+10	1	-1E+10	1	-1E+10	1
4902554	71	C	01/23/2023	15:54	-132.911	48.387	0	44.00	0	8.3830	0	32.2400	0	25.052	0	43.625	0	-1e10	8	-1e10	8	-1E+10	1	-1E+10	1	-1E+10	1	-1E+10	1	-1E+10	1	-1E+10	1
4902554	71	C	01/23/2023	15:54	-132.911	48.387	0	44.90	0	8.3830	0	32.2390	0	25.051	0	44.517	0	-1e10	8	-1e10	8	-1E+10	1	-1E+10	1	-1E+10	1	-1E+10	1	-1E+10	1	-1E+10	1
4902554	71	C	01/23/2023	15:54	-132.911	48.387	0	45.90	0	8.3830	0	32.2400	0	25.052	0	45.508	0	-1e10	8	-1e10	8	-1E+10	1	-1E+10	1	-1E+10	1	-1E+10	1	-1E+10	1	-1E+10	1
4902554	71	C	01/23/2023	15:54	-132.911	48.387	0	46.80	0	8.3830	0	32.2400	0	25.052	0	46.400	0	-1e10	8	-1e10	8	-1E+10	1	-1E+10	1	-1E+10	1	-1E+10	1	-1E+10	1	-1E+10	1
4902554	71	C	01/23/2023	15:54	-132.911	48.387	0	48.10	0	8.3830	0	32.2400	0	25.052	0	47.689	0	-1e10	8	-1e10	8	-1E+10	1	-1E+10	1	-1E+10	1	-1E+10	1	-1E+10	1	-1E+10	1
4902554	71	C	01/23/2023	15:54	-132.911	48.387	0	49.00	0	8.3840	0	32.2400	0	25.052	0	48.581	0	-1e10	8	-1e10	8	-1E+10	1	-1E+10	1	-1E+10	1	-1E+10	1	-1E+10	1	-1E+10	1
4902554	71	C	01/23/2023	15:54	-132.911	48.387	0	49.90	0	8.3830	0	32.2400	0	25.052	0	49.474	0	-1e10	8	-1e10	8	-1E+10	1	-1E+10	1	-1E+10	1	-1E+10	1	-1E+10	1	-1E+10	1
4902554	71	C	01/23/2023	15:54	-132.911	48.387	0	51.10	0	8.3830	0	32.2400	0	25.052	0	50.663	0	-1e10	8	-1e10	8	-1E+10	1	-1E+10	1	-1E+10	1	-1E+10	1	-1E+10	1	-1E+10	1
4902554	71	C	01/23/2023	15:54	-132.911	48.387	0	52.10	0	8.3840	0	32.2400	0	25.052	0	51.654	0	-1e10	8	-1e10	8	-1E+10	1	-1E+10	1	-1E+10	1	-1E+10	1	-1E+10	1	-1E+10	1
4902554	71	C	01/23/2023	15:54	-132.911	48.387	0	53.00	0	8.3830	0	32.2390	0	25.051	0	52.547	0	-1e10	8	-1e10	8	-1E+10	1	-1E+10	1	-1E+10	1	-1E+10	1	-1E+10	1	-1E+10	1
4902554	71	C	01/23/2023	15:54	-132.911	48.387	0	53.90	0	8.3840	0	32.2400	0	25.052	0	53.439	0	-1e10	8	-1e10	8	-1E+10	1	-1E+10	1	-1E+10	1	-1E+10	1	-1E+10	1	-1E+10	1
4902554	71	C	01/23/2023	15:54	-132.911	48.387	0	54.80	0	8.3840	0	32.2390	0	25.051	0	54.331	0	-1e10	8	-1e10	8	-1E+10	1	-1E+10	1	-1E+10	1	-1E+10	1	-1E+10	1	-1E+10	1
4902554	71	C	01/23/2023	15:54	-132.911	48.387	0	56.00	0	8.3840	0	32.2400	0	25.052	0	55.521	0	-1e10	8	-1e10	8	-1E+10	1	-1E+10	1	-1E+10	1	-1E+10	1	-1E+10	1	-1E+10	1
4902554	71	C	01/23/2023	15:54	-132.911	48.387	0	57.00	0	8.3840	0	32.2390	0	25.051	0	56.512	0	-1e10	8	-1e10	8	-1E+10	1	-1E+10	1	-1E+10	1	-1E+10	1	-1E+10	1	-1E+10	1
4902554	71	C	01/23/2023	15:54	-132.911	48.387	0	57.90	0	8.3850	0	32.2400	0	25.052	0	57.404	0	-1e10	8	-1e10	8	-1E+10	1	-1E+10	1	-1E+10	1	-1E+10	1	-1E+10	1	-1E+10	1
4902554	71	C	01/23/2023	15:54	-132.911	48.387	0	59.10	0	8.3850	0	32.2400	0	25.052	0	58.594	0	-1e10	8	-1e10	8	-1E+10	1	-1E+10	1	-1E+10	1	-1E+10	1	-1E+10	1	-1E+10	1
4902554	71	C	01/23/2023	15:54	-132.911	48.387	0	60.00	0	8.3860	0	32.2400	0	25.052	0	59.486	0	-1e10	8	-1e10	8	-1E+10	1	-1E+10	1	-1E+10	1	-1E+10	1	-1E+10	1	-1E+10	1
4902554	71	C	01/23/2023	15:54	-132.911	48.387	0	60.90	0	8.3850	0	32.2400	0	25.052	0	60.378	0	-1e10	8	-1e10	8	-1E+10	1	-1E+10	1	-1E+10	1	-1E+10	1	-1E+10	1	-1E+10	1
4902554	71	C	01/23/2023	15:54	-132.911	48.387	0	61.80	0	8.3860	0	32.2410	0	25.053	0	61.270	0	-1e10	8	-1e10	8	-1E+10	1	-1E+10	1	-1E+10	1	-1E+10	1	-1E+10	1	-1E+10	1
4902554	71	C	01/23/2023	15:54	-132.911	48.387	0	62.80	0	8.3860	0	32.2400	0	25.052	0	62.261	0	-1e10	8	-1e10	8	-1E+10	1	-1E+10	1	-1E+10	1	-1E+10	1	-1E+10	1	-1E+10	1
4902554	71	C	01/23/2023	15:54	-132.911	48.387	0	64.00	0	8.3860	0	32.2400	0	25.052	0	63.451	0	-1e10	8	-1e10	8	-1E+10	1	-1E+10	1	-1E+10	1	-1E+10	1	-1E+10	1	-1E+10	1
4902554	71	C	01/23/2023	15:54	-132.911	48.387	0	65.00	0	8.3860	0	32.2400	0	25.052	0	64.442	0	-1e10	8	-1e10	8	-1E+10	1	-1E+10	1	-1E+10	1	-1E+10	1	-1E+10	1	-1E+10	1
4902554	71	C	01/23/2023	15:54	-132.911	48.387	0	66.00	0	8.3870	0	32.2400	0	25.052	0	65.433	0	-1e10	8	-1e10	8	-1E+10	1	-1E+10	1	-1E+10	1	-1E+10	1	-1E+10	1	-1E+10	1
4902554	71	C	01/23/2023	15:54	-132.911	48.387	0	67.00	0	8.3860	0	32.2400	0	25.052	0	66.425	0	-1e10	8	-1e10	8	-1E+10	1	-1E+10	1	-1E+10	1	-1E+10	1	-1E+10	1	-1E+10	1
4902554	71	C	01/23/2023	15:54	-132.911	48.387	0	68.00	0	8.3860	0	32.2400	0	25.052	0	67.416	0	-1e10	8	-1e10	8	-1E+10	1	-1E+10	1	-1E+10	1	-1E+10	1	-1E+10	1	-1E+10	1
4902554	71	C	01/23/2023	15:54	-132.911	48.387	0	69.00	0	8.3860	0	32.2400	0	25.052	0	68.407	0	-1e10	8	-1e10	8	-1E+10	1	-1E+10	1	-1E+10	1	-1E+10	1	-1E+10	1	-1E+10	1
4902554	71	C	01/23/2023	15:54	-132.911	48.387	0	70.00	0	8.3860	0	32.2400	0	25.052	0	69.398	0	-1e10	8	-1e10	8	-1E+10	1	-1E+10	1	-1E+10	1	-1E+10	1	-1E+10	1	-1E+10	1
4902554	71	C	01/23/2023	15:54	-132.911	48.387	0	71.10	0	8.3860	0	32.2400	0	25.052	0	70.489	0	-1e10	8	-1e10	8	-1E+10	1	-1E+10	1	-1E+10	1	-1E+10	1	-1E+10	1	-1E+10	1
4902554	71	C	01/23/2023	15:54	-132.911	48.387	0	71.80	0	8.3860	0	32.2410	0	25.053	0	71.183	0	-1e10	8	-1e10	8	-1E+10	1	-1E+10	1	-1E+10	1	-1E+10	1	-1E+10	1	-1E+10	1
4902554	71	C	01/23/2023	15:54	-132.911	48.387	0	72.80	0	8.3870	0	32.2400	0	25.052	0	72.174	0	-1e10	8	-1e10	8	-1E+10	1	-1E+10	1	-1E+10	1	-1E+10	1	-1E+10	1	-1E+10	1
4902554	71	C	01/23/2023	15:54	-132.911	48.387	0	73.90	0	8.3870	0	32.2400	0	25.052	0	73.264	0	-1e10	8	-1e10	8	-1E+10	1	-1E+10	1	-1E+10	1	-1E+10	1	-1E+10	1	-1E+10	1
4902554	71	C	01/23/2023	15:54	-132.911	48.387	0	74.90	0	8.3870	0	32.2400	0	25.052	0	74.255	0	-1e10	8	-1e10	8	-1E+10	1	-1E+10	1	-1E+10	1	-1E+10	1	-1E+10	1	-1E+10	1
4902554	71	C	01/23/2023	15:54	-132.911	48.387	0	75.90	0	8.3870	0	32.2410	0	25.053	0	75.247	0	-1e10	8	-1e10	8	-1E+10	1	-1E+10	1	-1E+10	1	-1E+10	1	-1E+10	1	-1E+10	1
4902554	71	C	01/23/2023	15:54	-132.911	48.387	0	76.90	0	8.3870	0	32.2410	0	25.053	0	76.238	0	-1e10	8	-1e10	8	-1E+10	1	-1E+10	1	-1E+10	1	-1E+10	1	-1E+10	1	-1E+10	1
4902554	71	C	01/23/2023	15:54	-132.911	48.387	0	78.00	0	8.3880	0	32.2410	0	25.052	0	77.328	0	-1e10	8	-1e10	8	-1E+10	1	-1E+10	1	-1E+10	1	-1E+10	1	-1E+10	1	-1E+10	1
4902554	71	C	01/23/2023	15:54	-132.911	48.387	0	79.00	0	8.3880	0	32.2410	0	25.052	0	78.319	0	-1e10	8	-1e10	8	-1E+10	1	-1E+10	1	-1E+10	1	-1E+10	1	-1E+10	1	-1E+10	1
4902554	71	C	01/23/2023	15:54	-132.911	48.387	0	80.00	0	8.3890	0	32.2410	0	25.052	0	79.310	0	-1e10	8	-1e10	8	-1E+10	1	-1E+10	1	-1E+10	1	-1E+10	1	-1E+10	1	-1E+10	1
4902554	71	C	01/23/2023	15:54	-132.911	48.387	0	80.90	0	8.3880	0	32.2410	0	25.052	0	80.203	0	-1e10	8	-1e10	8	-1E+10	1	-1E+10	1	-1E+10	1	-1E+10	1	-1E+10	1	-1E+10	1
4902554	71	C	01/23/2023	15:54	-132.911	48.387	0	81.90	0	8.3880	0	32.2420	0	25.053	0	81.194	0	-1e10	8	-1e10	8	-1E+10	1	-1E+10	1	-1E+10	1	-1E+10	1	-1E+10	1	-1E+10	1
4902554	71	C	01/23/2023	15:54	-132.911	48.387	0	82.90	0	8.3890	0	32.2410	0	25.052	0	82.185	0	-1e10	8	-1e10	8	-1E+10	1	-1E+10	1	-1E+10	1	-1E+10	1	-1E+10	1	-1E+10	1
4902554	71	C	01/23/2023	15:54	-132.911	48.387	0	83.90	0	8.3880	0	32.2420	0	25.053	0	83.176	0	-1e10	8	-1e10	8	-1E+10	1	-1E+10	1	-1E+10	1	-1E+10	1	-1E+10	1	-1E+10	1
4902554	71	C	01/23/2023	15:54	-132.911	48.387	0	84.80	0	8.3880	0	32.2410	0	25.053	0	84.068	0	-1e10	8	-1e10	8	-1E+10	1	-1E+10	1	-1E+10	1	-1E+10	1	-1E+10	1	-1E+10	1
4902554	71	C	01/23/2023	15:54	-132.911	48.387	0	86.10	0	8.3880	0	32.2420	0	25.053	0	85.357	0	-1e10	8	-1e10	8	-1E+10	1	-1E+10	1	-1E+10	1	-1E+10	1	-1E+10	1	-1E+10	1
4902554	71	C	01/23/2023	15:54	-132.911	48.387	0	87.00	0	8.3880	0	32.2420	0	25.053	0	86.249	0	-1e10	8	-1e10	8	-1E+10	1	-1E+10	1	-1E+10	1	-1E+10	1	-1E+10	1	-1E+10	1
4902554	71	C	01/23/2023	15:54	-132.911	48.387	0	87.90	0	8.3890	0	32.2420	0	25.053	0	87.141	0	-1e10	8	-1e10	8	-1E+10	1	-1E+10	1	-1E+10	1	-1E+10	1	-1E+10	1	-1E+10	1
4902554	71	C	01/23/2023	15:54	-132.911	48.387	0	89.10	0	8.3890	0	32.2420	0	25.053	0	88.330	0	-1e10	8	-1e10	8	-1E+10	1	-1E+10	1	-1E+10	1	-1E+10	1	-1E+10	1	-1E+10	1
4902554	71	C	01/23/2023	15:54	-132.911	48.387	0	90.00	0	8.3880	0	32.2420	0	25.053	0	89.222	0	-1e10	8	-1e10	8	-1E+10	1	-1E+10	1	-1E+10	1	-1E+10	1	-1E+10	1	-1E+10	1
4902554	71	C	01/23/2023	15:54	-132.911	48.387	0	90.90	0	8.3880	0	32.2420	0	25.053	0	90.114	0	-1e10	8	-1e10	8	-1E+10	1	-1E+10	1	-1E+10	1	-1E+10	1	-1E+10	1	-1E+10	1
4902554	71	C	01/23/2023	15:54	-132.911	48.387	0	92.00	0	8.3890	0	32.2420	0	25.053	0	91.204	0	-1e10	8	-1e10	8	-1E+10	1	-1E+10	1	-1E+10	1	-1E+10	1	-1E+10	1	-1E+10	1
4902554	71	C	01/23/2023	15:54	-132.911	48.387	0	93.10	0	8.3900	0	32.2430	0	25.054	0	92.295	0	-1e10	8	-1e10	8	-1E+10	1	-1E+10	1	-1E+10	1	-1E+10	1	-1E+10	1	-1E+10	1
4902554	71	C	01/23/2023	15:54	-132.911	48.387	0	94.30	0	8.3880	0	32.2440	0	25.055	0	93.484	0	-1e10	8	-1e10	8	-1E+10	1	-1E+10	1	-1E+10	1	-1E+10	1	-1E+10	1	-1E+10	1
4902554	71	C	01/23/2023	15:54	-132.911	48.387	0	95.10	0	8.3880	0	32.2430	0	25.054	0	94.277	0	-1e10	8	-1e10	8	-1E+10	1	-1E+10	1	-1E+10	1	-1E+10	1	-1E+10	1	-1E+10	1
4902554	71	C	01/23/2023	15:54	-132.911	48.387	0	95.90	0	8.3360	0	32.2590	0	25.074	0	95.070	0	-1e10	8	-1e10	8	-1E+10	1	-1E+10	1	-1E+10	1	-1E+10	1	-1E+10	1	-1E+10	1
4902554	71	C	01/23/2023	15:54	-132.911	48.387	0	97.00	0	8.2040	0	32.3020	0	25.128	0	96.160	0	-1e10	8	-1e10	8	-1E+10	1	-1E+10	1	-1E+10	1	-1E+10	1	-1E+10	1	-1E+10	1
4902554	71	C	01/23/2023	15:54	-132.911	48.387	0	97.90	0	8.1580	0	32.3140	0	25.144	0	97.052	0	-1e10	8	-1e10	8	-1E+10	1	-1E+10	1	-1E+10	1	-1E+10	1	-1E+10	1	-1E+10	1
4902554	71	C	01/23/2023	15:54	-132.911	48.387	0	98.90	0	8.0950	0	32.3300	0	25.165	0	98.043	0	-1e10	8	-1e10	8	-1E+10	1	-1E+10	1	-1E+10	1	-1E+10	1	-1E+10	1	-1E+10	1
4902554	71	C	01/23/2023	15:54	-132.911	48.387	0	99.90	0	8.0070	0	32.3520	0	25.195	0	99.034	0	-1e10	8	-1e10	8	-1E+10	1	-1E+10	1	-1E+10	1	-1E+10	1	-1E+10	1	-1E+10	1
4902554	71	C	01/23/2023	15:54	-132.911	48.387	0	101.10	0	7.9060	0	32.3780	0	25.230	0	100.224	0	-1e10	8	-1e10	8	-1E+10	1	-1E+10	1	-1E+10	1	-1E+10	1	-1E+10	1	-1E+10	1
4902554	71	C	01/23/2023	15:54	-132.911	48.387	0	102.10	0	7.8680	0	32.3860	0	25.242	0	101.215	0	-1e10	8	-1e10	8	-1E+10	1	-1E+10	1	-1E+10	1	-1E+10	1	-1E+10	1	-1E+10	1
4902554	71	C	01/23/2023	15:54	-132.911	48.387	0	102.90	0	7.7710	0	32.4000	0	25.267	0	102.007	0	-1e10	8	-1e10	8	-1E+10	1	-1E+10	1	-1E+10	1	-1E+10	1	-1E+10	1	-1E+10	1
4902554	71	C	01/23/2023	15:54	-132.911	48.387	0	104.10	0	7.6580	0	32.4150	0	25.295	0	103.197	0	-1e10	8	-1e10	8	-1E+10	1	-1E+10	1	-1E+10	1	-1E+10	1	-1E+10	1	-1E+10	1
4902554	71	C	01/23/2023	15:54	-132.911	48.387	0	104.80	0	7.4670	0	32.4500	0	25.349	0	103.891	0	-1e10	8	-1e10	8	-1E+10	1	-1E+10	1	-1E+10	1	-1E+10	1	-1E+10	1	-1E+10	1
4902554	71	C	01/23/2023	15:54	-132.911	48.387	0	105.90	0	7.1350	0	32.5180	0	25.447	0	104.981	0	-1e10	8	-1e10	8	-1E+10	1	-1E+10	1	-1E+10	1	-1E+10	1	-1E+10	1	-1E+10	1
4902554	71	C	01/23/2023	15:54	-132.911	48.387	0	107.10	0	6.9780	0	32.5670	0	25.507	0	106.170	0	-1e10	8	-1e10	8	-1E+10	1	-1E+10	1	-1E+10	1	-1E+10	1	-1E+10	1	-1E+10	1
4902554	71	C	01/23/2023	15:54	-132.911	48.387	0	108.00	0	6.8200	0	32.6090	0	25.561	0	107.062	0	-1e10	8	-1e10	8	-1E+10	1	-1E+10	1	-1E+10	1	-1E+10	1	-1E+10	1	-1E+10	1
4902554	71	C	01/23/2023	15:54	-132.911	48.387	0	109.00	0	6.7810	0	32.6210	0	25.576	0	108.053	0	-1e10	8	-1e10	8	-1E+10	1	-1E+10	1	-1E+10	1	-1E+10	1	-1E+10	1	-1E+10	1
4902554	71	C	01/23/2023	15:54	-132.911	48.387	0	110.00	0	6.7500	0	32.6310	0	25.588	0	109.044	0	-1e10	8	-1e10	8	-1E+10	1	-1E+10	1	-1E+10	1	-1E+10	1	-1E+10	1	-1E+10	1
4902554	71	C	01/23/2023	15:54	-132.911	48.387	0	110.90	0	6.7250	0	32.6400	0	25.598	0	109.936	0	-1e10	8	-1e10	8	-1E+10	1	-1E+10	1	-1E+10	1	-1E+10	1	-1E+10	1	-1E+10	1
4902554	71	C	01/23/2023	15:54	-132.911	48.387	0	112.00	0	6.6480	0	32.6740	0	25.635	0	111.026	0	-1e10	8	-1e10	8	-1E+10	1	-1E+10	1	-1E+10	1	-1E+10	1	-1E+10	1	-1E+10	1
4902554	71	C	01/23/2023	15:54	-132.911	48.387	0	112.90	0	6.5830	0	32.7060	0	25.668	0	111.918	0	-1e10	8	-1e10	8	-1E+10	1	-1E+10	1	-1E+10	1	-1E+10	1	-1E+10	1	-1E+10	1
4902554	71	C	01/23/2023	15:54	-132.911	48.387	0	113.90	0	6.5670	0	32.7160	0	25.678	0	112.909	0	-1e10	8	-1e10	8	-1E+10	1	-1E+10	1	-1E+10	1	-1E+10	1	-1E+10	1	-1E+10	1
4902554	71	C	01/23/2023	15:54	-132.911	48.387	0	114.80	0	6.5580	0	32.7250	0	25.687	0	113.801	0	-1e10	8	-1e10	8	-1E+10	1	-1E+10	1	-1E+10	1	-1E+10	1	-1E+10	1	-1E+10	1
4902554	71	C	01/23/2023	15:54	-132.911	48.387	0	116.00	0	6.5500	0	32.7320	0	25.693	0	114.990	0	-1e10	8	-1e10	8	-1E+10	1	-1E+10	1	-1E+10	1	-1E+10	1	-1E+10	1	-1E+10	1
4902554	71	C	01/23/2023	15:54	-132.911	48.387	0	116.90	0	6.5370	0	32.7450	0	25.705	0	115.882	0	-1e10	8	-1e10	8	-1E+10	1	-1E+10	1	-1E+10	1	-1E+10	1	-1E+10	1	-1E+10	1
4902554	71	C	01/23/2023	15:54	-132.911	48.387	0	118.00	0	6.4970	0	32.7620	0	25.724	0	116.972	0	-1e10	8	-1e10	8	-1E+10	1	-1E+10	1	-1E+10	1	-1E+10	1	-1E+10	1	-1E+10	1
4902554	71	C	01/23/2023	15:54	-132.911	48.387	0	118.90	0	6.4620	0	32.7860	0	25.747	0	117.864	0	-1e10	8	-1e10	8	-1E+10	1	-1E+10	1	-1E+10	1	-1E+10	1	-1E+10	1	-1E+10	1
4902554	71	C	01/23/2023	15:54	-132.911	48.387	0	120.10	0	6.4320	0	32.8110	0	25.771	0	119.053	0	-1e10	8	-1e10	8	-1E+10	1	-1E+10	1	-1E+10	1	-1E+10	1	-1E+10	1	-1E+10	1
4902554	71	C	01/23/2023	15:54	-132.911	48.387	0	121.10	0	6.3830	0	32.8630	0	25.818	0	120.044	0	-1e10	8	-1e10	8	-1E+10	1	-1E+10	1	-1E+10	1	-1E+10	1	-1E+10	1	-1E+10	1
4902554	71	C	01/23/2023	15:54	-132.911	48.387	0	121.90	0	6.3580	0	32.8980	0	25.849	0	120.837	0	-1e10	8	-1e10	8	-1E+10	1	-1E+10	1	-1E+10	1	-1E+10	1	-1E+10	1	-1E+10	1
4902554	71	C	01/23/2023	15:54	-132.911	48.387	0	123.10	0	6.3540	0	32.9070	0	25.856	0	122.026	0	-1e10	8	-1e10	8	-1E+10	1	-1E+10	1	-1E+10	1	-1E+10	1	-1E+10	1	-1E+10	1
4902554	71	C	01/23/2023	15:54	-132.911	48.387	0	124.10	0	6.3520	0	32.9150	0	25.863	0	123.017	0	-1e10	8	-1e10	8	-1E+10	1	-1E+10	1	-1E+10	1	-1E+10	1	-1E+10	1	-1E+10	1
4902554	71	C	01/23/2023	15:54	-132.911	48.387	0	125.00	0	6.3430	0	32.9610	0	25.900	0	123.909	0	-1e10	8	-1e10	8	-1E+10	1	-1E+10	1	-1E+10	1	-1E+10	1	-1E+10	1	-1E+10	1
4902554	71	C	01/23/2023	15:54	-132.911	48.387	0	126.10	0	6.3140	0	33.0020	0	25.936	0	124.999	0	-1e10	8	-1e10	8	-1E+10	1	-1E+10	1	-1E+10	1	-1E+10	1	-1E+10	1	-1E+10	1
4902554	71	C	01/23/2023	15:54	-132.911	48.387	0	127.10	0	6.2800	0	33.0310	0	25.963	0	125.990	0	-1e10	8	-1e10	8	-1E+10	1	-1E+10	1	-1E+10	1	-1E+10	1	-1E+10	1	-1E+10	1
4902554	71	C	01/23/2023	15:54	-132.911	48.387	0	127.90	0	6.2700	0	33.0410	0	25.973	0	126.783	0	-1e10	8	-1e10	8	-1E+10	1	-1E+10	1	-1E+10	1	-1E+10	1	-1E+10	1	-1E+10	1
4902554	71	C	01/23/2023	15:54	-132.911	48.387	0	128.70	0	6.2740	0	33.0500	0	25.979	0	127.576	0	-1e10	8	-1e10	8	-1E+10	1	-1E+10	1	-1E+10	1	-1E+10	1	-1E+10	1	-1E+10	1
4902554	71	C	01/23/2023	15:54	-132.911	48.387	0	129.80	0	6.2800	0	33.0850	0	26.006	0	128.666	0	-1e10	8	-1e10	8	-1E+10	1	-1E+10	1	-1E+10	1	-1E+10	1	-1E+10	1	-1E+10	1
4902554	71	C	01/23/2023	15:54	-132.911	48.387	0	130.90	0	6.2330	0	33.1150	0	26.036	0	129.756	0	-1e10	8	-1e10	8	-1E+10	1	-1E+10	1	-1E+10	1	-1E+10	1	-1E+10	1	-1E+10	1
4902554	71	C	01/23/2023	15:54	-132.911	48.387	0	132.00	0	6.1750	0	33.1420	0	26.064	0	130.846	0	-1e10	8	-1e10	8	-1E+10	1	-1E+10	1	-1E+10	1	-1E+10	1	-1E+10	1	-1E+10	1
4902554	71	C	01/23/2023	15:54	-132.911	48.387	0	132.90	0	6.1400	0	33.1640	0	26.086	0	131.738	0	-1e10	8	-1e10	8	-1E+10	1	-1E+10	1	-1E+10	1	-1E+10	1	-1E+10	1	-1E+10	1
4902554	71	C	01/23/2023	15:54	-132.911	48.387	0	133.80	0	6.1350	0	33.1660	0	26.088	0	132.630	0	-1e10	8	-1e10	8	-1E+10	1	-1E+10	1	-1E+10	1	-1E+10	1	-1E+10	1	-1E+10	1
4902554	71	C	01/23/2023	15:54	-132.911	48.387	0	135.10	0	6.1140	0	33.1840	0	26.105	0	133.918	0	-1e10	8	-1e10	8	-1E+10	1	-1E+10	1	-1E+10	1	-1E+10	1	-1E+10	1	-1E+10	1
4902554	71	C	01/23/2023	15:54	-132.911	48.387	0	136.00	0	6.1050	0	33.1930	0	26.113	0	134.810	0	-1e10	8	-1e10	8	-1E+10	1	-1E+10	1	-1E+10	1	-1E+10	1	-1E+10	1	-1E+10	1
4902554	71	C	01/23/2023	15:54	-132.911	48.387	0	136.90	0	6.1010	0	33.1990	0	26.119	0	135.701	0	-1e10	8	-1e10	8	-1E+10	1	-1E+10	1	-1E+10	1	-1E+10	1	-1E+10	1	-1E+10	1
4902554	71	C	01/23/2023	15:54	-132.911	48.387	0	137.90	0	6.0920	0	33.2100	0	26.128	0	136.692	0	-1e10	8	-1e10	8	-1E+10	1	-1E+10	1	-1E+10	1	-1E+10	1	-1E+10	1	-1E+10	1
4902554	71	C	01/23/2023	15:54	-132.911	48.387	0	139.00	0	6.0550	0	33.2470	0	26.162	0	137.782	0	-1e10	8	-1e10	8	-1E+10	1	-1E+10	1	-1E+10	1	-1E+10	1	-1E+10	1	-1E+10	1
4902554	71	C	01/23/2023	15:54	-132.911	48.387	0	140.10	0	6.0370	0	33.2720	0	26.184	0	138.872	0	-1e10	8	-1e10	8	-1E+10	1	-1E+10	1	-1E+10	1	-1E+10	1	-1E+10	1	-1E+10	1
4902554	71	C	01/23/2023	15:54	-132.911	48.387	0	140.80	0	6.0360	0	33.2750	0	26.187	0	139.566	0	-1e10	8	-1e10	8	-1E+10	1	-1E+10	1	-1E+10	1	-1E+10	1	-1E+10	1	-1E+10	1
4902554	71	C	01/23/2023	15:54	-132.911	48.387	0	142.00	0	6.0160	0	33.2900	0	26.201	0	140.755	0	-1e10	8	-1e10	8	-1E+10	1	-1E+10	1	-1E+10	1	-1E+10	1	-1E+10	1	-1E+10	1
4902554	71	C	01/23/2023	15:54	-132.911	48.387	0	143.20	0	5.9830	0	33.3150	0	26.225	0	141.944	0	-1e10	8	-1e10	8	-1E+10	1	-1E+10	1	-1E+10	1	-1E+10	1	-1E+10	1	-1E+10	1
4902554	71	C	01/23/2023	15:54	-132.911	48.387	0	144.00	0	5.9670	0	33.3280	0	26.237	0	142.737	0	-1e10	8	-1e10	8	-1E+10	1	-1E+10	1	-1E+10	1	-1E+10	1	-1E+10	1	-1E+10	1
4902554	71	C	01/23/2023	15:54	-132.911	48.387	0	144.80	0	5.9450	0	33.3480	0	26.256	0	143.529	0	-1e10	8	-1e10	8	-1E+10	1	-1E+10	1	-1E+10	1	-1E+10	1	-1E+10	1	-1E+10	1
4902554	71	C	01/23/2023	15:54	-132.911	48.387	0	145.70	0	5.9150	0	33.3750	0	26.281	0	144.421	0	-1e10	8	-1e10	8	-1E+10	1	-1E+10	1	-1E+10	1	-1E+10	1	-1E+10	1	-1E+10	1
4902554	71	C	01/23/2023	15:54	-132.911	48.387	0	146.90	0	5.8970	0	33.3910	0	26.296	0	145.610	0	-1e10	8	-1e10	8	-1E+10	1	-1E+10	1	-1E+10	1	-1E+10	1	-1E+10	1	-1E+10	1
4902554	71	C	01/23/2023	15:54	-132.911	48.387	0	148.30	0	5.8810	0	33.4070	0	26.310	0	146.998	0	-1e10	8	-1e10	8	-1E+10	1	-1E+10	1	-1E+10	1	-1E+10	1	-1E+10	1	-1E+10	1
4902554	71	C	01/23/2023	15:54	-132.911	48.387	0	149.10	0	5.8660	0	33.4210	0	26.323	0	147.790	0	-1e10	8	-1e10	8	-1E+10	1	-1E+10	1	-1E+10	1	-1E+10	1	-1E+10	1	-1E+10	1
4902554	71	C	01/23/2023	15:54	-132.911	48.387	0	150.00	0	5.8640	0	33.4220	0	26.324	0	148.682	0	-1e10	8	-1e10	8	-1E+10	1	-1E+10	1	-1E+10	1	-1E+10	1	-1E+10	1	-1E+10	1
4902554	71	C	01/23/2023	15:54	-132.911	48.387	0	150.90	0	5.8580	0	33.4270	0	26.329	0	149.574	0	-1e10	8	-1e10	8	-1E+10	1	-1E+10	1	-1E+10	1	-1E+10	1	-1E+10	1	-1E+10	1
4902554	71	C	01/23/2023	15:54	-132.911	48.387	0	151.80	0	5.8400	0	33.4430	0	26.344	0	150.465	0	-1e10	8	-1e10	8	-1E+10	1	-1E+10	1	-1E+10	1	-1E+10	1	-1E+10	1	-1E+10	1
4902554	71	C	01/23/2023	15:54	-132.911	48.387	0	152.70	0	5.8330	0	33.4490	0	26.349	0	151.357	0	-1e10	8	-1e10	8	-1E+10	1	-1E+10	1	-1E+10	1	-1E+10	1	-1E+10	1	-1E+10	1
4902554	71	C	01/23/2023	15:54	-132.911	48.387	0	153.60	0	5.8120	0	33.4680	0	26.367	0	152.249	0	-1e10	8	-1e10	8	-1E+10	1	-1E+10	1	-1E+10	1	-1E+10	1	-1E+10	1	-1E+10	1
4902554	71	C	01/23/2023	15:54	-132.911	48.387	0	154.90	0	5.8110	0	33.4680	0	26.367	0	153.537	0	-1e10	8	-1e10	8	-1E+10	1	-1E+10	1	-1E+10	1	-1E+10	1	-1E+10	1	-1E+10	1
4902554	71	C	01/23/2023	15:54	-132.911	48.387	0	156.30	0	5.8100	0	33.4700	0	26.369	0	154.924	0	-1e10	8	-1e10	8	-1E+10	1	-1E+10	1	-1E+10	1	-1E+10	1	-1E+10	1	-1E+10	1
4902554	71	C	01/23/2023	15:54	-132.911	48.387	0	157.20	0	5.7960	0	33.4810	0	26.379	0	155.816	0	-1e10	8	-1e10	8	-1E+10	1	-1E+10	1	-1E+10	1	-1E+10	1	-1E+10	1	-1E+10	1
4902554	71	C	01/23/2023	15:54	-132.911	48.387	0	158.10	0	5.7840	0	33.4900	0	26.388	0	156.708	0	-1e10	8	-1e10	8	-1E+10	1	-1E+10	1	-1E+10	1	-1E+10	1	-1E+10	1	-1E+10	1
4902554	71	C	01/23/2023	15:54	-132.911	48.387	0	159.00	0	5.7750	0	33.4970	0	26.394	0	157.599	0	-1e10	8	-1e10	8	-1E+10	1	-1E+10	1	-1E+10	1	-1E+10	1	-1E+10	1	-1E+10	1
4902554	71	C	01/23/2023	15:54	-132.911	48.387	0	159.80	0	5.7450	0	33.5230	0	26.419	0	158.392	0	-1e10	8	-1e10	8	-1E+10	1	-1E+10	1	-1E+10	1	-1E+10	1	-1E+10	1	-1E+10	1
4902554	71	C	01/23/2023	15:54	-132.911	48.387	0	160.80	0	5.7010	0	33.5580	0	26.452	0	159.383	0	-1e10	8	-1e10	8	-1E+10	1	-1E+10	1	-1E+10	1	-1E+10	1	-1E+10	1	-1E+10	1
4902554	71	C	01/23/2023	15:54	-132.911	48.387	0	161.70	0	5.6850	0	33.5700	0	26.463	0	160.275	0	-1e10	8	-1e10	8	-1E+10	1	-1E+10	1	-1E+10	1	-1E+10	1	-1E+10	1	-1E+10	1
4902554	71	C	01/23/2023	15:54	-132.911	48.387	0	162.60	0	5.6760	0	33.5760	0	26.469	0	161.166	0	-1e10	8	-1e10	8	-1E+10	1	-1E+10	1	-1E+10	1	-1E+10	1	-1E+10	1	-1E+10	1
4902554	71	C	01/23/2023	15:54	-132.911	48.387	0	163.60	0	5.6650	0	33.5820	0	26.475	0	162.157	0	-1e10	8	-1e10	8	-1E+10	1	-1E+10	1	-1E+10	1	-1E+10	1	-1E+10	1	-1E+10	1
4902554	71	C	01/23/2023	15:54	-132.911	48.387	0	164.50	0	5.6560	0	33.5890	0	26.482	0	163.049	0	-1e10	8	-1e10	8	-1E+10	1	-1E+10	1	-1E+10	1	-1E+10	1	-1E+10	1	-1E+10	1
4902554	71	C	01/23/2023	15:54	-132.911	48.387	0	165.50	0	5.6430	0	33.5960	0	26.489	0	164.040	0	-1e10	8	-1e10	8	-1E+10	1	-1E+10	1	-1E+10	1	-1E+10	1	-1E+10	1	-1E+10	1
4902554	71	C	01/23/2023	15:54	-132.911	48.387	0	166.90	0	5.5860	0	33.6280	0	26.521	0	165.427	0	-1e10	8	-1e10	8	-1E+10	1	-1E+10	1	-1E+10	1	-1E+10	1	-1E+10	1	-1E+10	1
4902554	71	C	01/23/2023	15:54	-132.911	48.387	0	168.40	0	5.5610	0	33.6420	0	26.535	0	166.913	0	-1e10	8	-1e10	8	-1E+10	1	-1E+10	1	-1E+10	1	-1E+10	1	-1E+10	1	-1E+10	1
4902554	71	C	01/23/2023	15:54	-132.911	48.387	0	169.30	0	5.5350	0	33.6520	0	26.546	0	167.805	0	-1e10	8	-1e10	8	-1E+10	1	-1E+10	1	-1E+10	1	-1E+10	1	-1E+10	1	-1E+10	1
4902554	71	C	01/23/2023	15:54	-132.911	48.387	0	170.30	0	5.5300	0	33.6530	0	26.547	0	168.795	0	-1e10	8	-1e10	8	-1E+10	1	-1E+10	1	-1E+10	1	-1E+10	1	-1E+10	1	-1E+10	1
4902554	71	C	01/23/2023	15:54	-132.911	48.387	0	171.30	0	5.5270	0	33.6550	0	26.549	0	169.786	0	-1e10	8	-1e10	8	-1E+10	1	-1E+10	1	-1E+10	1	-1E+10	1	-1E+10	1	-1E+10	1
4902554	71	C	01/23/2023	15:54	-132.911	48.387	0	172.20	0	5.5130	0	33.6580	0	26.553	0	170.678	0	-1e10	8	-1e10	8	-1E+10	1	-1E+10	1	-1E+10	1	-1E+10	1	-1E+10	1	-1E+10	1
4902554	71	C	01/23/2023	15:54	-132.911	48.387	0	173.20	0	5.5070	0	33.6610	0	26.557	0	171.668	0	-1e10	8	-1e10	8	-1E+10	1	-1E+10	1	-1E+10	1	-1E+10	1	-1E+10	1	-1E+10	1
4902554	71	C	01/23/2023	15:54	-132.911	48.387	0	174.20	0	5.4980	0	33.6640	0	26.560	0	172.659	0	-1e10	8	-1e10	8	-1E+10	1	-1E+10	1	-1E+10	1	-1E+10	1	-1E+10	1	-1E+10	1
4902554	71	C	01/23/2023	15:54	-132.911	48.387	0	175.20	0	5.4880	0	33.6670	0	26.564	0	173.650	0	-1e10	8	-1e10	8	-1E+10	1	-1E+10	1	-1E+10	1	-1E+10	1	-1E+10	1	-1E+10	1
4902554	71	C	01/23/2023	15:54	-132.911	48.387	0	176.10	0	5.4670	0	33.6760	0	26.573	0	174.542	0	-1e10	8	-1e10	8	-1E+10	1	-1E+10	1	-1E+10	1	-1E+10	1	-1E+10	1	-1E+10	1
4902554	71	C	01/23/2023	15:54	-132.911	48.387	0	177.10	0	5.4560	0	33.6790	0	26.577	0	175.532	0	-1e10	8	-1e10	8	-1E+10	1	-1E+10	1	-1E+10	1	-1E+10	1	-1E+10	1	-1E+10	1
4902554	71	C	01/23/2023	15:54	-132.911	48.387	0	178.10	0	5.4510	0	33.6810	0	26.579	0	176.523	0	-1e10	8	-1e10	8	-1E+10	1	-1E+10	1	-1E+10	1	-1E+10	1	-1E+10	1	-1E+10	1
4902554	71	C	01/23/2023	15:54	-132.911	48.387	0	179.10	0	5.4490	0	33.6810	0	26.579	0	177.514	0	-1e10	8	-1e10	8	-1E+10	1	-1E+10	1	-1E+10	1	-1E+10	1	-1E+10	1	-1E+10	1
4902554	71	C	01/23/2023	15:54	-132.911	48.387	0	180.10	0	5.4470	0	33.6820	0	26.580	0	178.504	0	-1e10	8	-1e10	8	-1E+10	1	-1E+10	1	-1E+10	1	-1E+10	1	-1E+10	1	-1E+10	1
4902554	71	C	01/23/2023	15:54	-132.911	48.387	0	181.00	0	5.4450	0	33.6820	0	26.581	0	179.396	0	-1e10	8	-1e10	8	-1E+10	1	-1E+10	1	-1E+10	1	-1E+10	1	-1E+10	1	-1E+10	1
4902554	71	C	01/23/2023	15:54	-132.911	48.387	0	182.00	0	5.4320	0	33.6870	0	26.586	0	180.387	0	-1e10	8	-1e10	8	-1E+10	1	-1E+10	1	-1E+10	1	-1E+10	1	-1E+10	1	-1E+10	1
4902554	71	C	01/23/2023	15:54	-132.911	48.387	0	183.00	0	5.4230	0	33.6890	0	26.589	0	181.378	0	-1e10	8	-1e10	8	-1E+10	1	-1E+10	1	-1E+10	1	-1E+10	1	-1E+10	1	-1E+10	1
4902554	71	C	01/23/2023	15:54	-132.911	48.387	0	184.00	0	5.4200	0	33.6890	0	26.589	0	182.368	0	-1e10	8	-1e10	8	-1E+10	1	-1E+10	1	-1E+10	1	-1E+10	1	-1E+10	1	-1E+10	1
4902554	71	C	01/23/2023	15:54	-132.911	48.387	0	185.00	0	5.4160	0	33.6890	0	26.590	0	183.359	0	-1e10	8	-1e10	8	-1E+10	1	-1E+10	1	-1E+10	1	-1E+10	1	-1E+10	1	-1E+10	1
4902554	71	C	01/23/2023	15:54	-132.911	48.387	0	186.00	0	5.4160	0	33.6890	0	26.590	0	184.350	0	-1e10	8	-1e10	8	-1E+10	1	-1E+10	1	-1E+10	1	-1E+10	1	-1E+10	1	-1E+10	1
4902554	71	C	01/23/2023	15:54	-132.911	48.387	0	187.00	0	5.4150	0	33.6890	0	26.590	0	185.340	0	-1e10	8	-1e10	8	-1E+10	1	-1E+10	1	-1E+10	1	-1E+10	1	-1E+10	1	-1E+10	1
4902554	71	C	01/23/2023	15:54	-132.911	48.387	0	188.00	0	5.4060	0	33.6910	0	26.592	0	186.331	0	-1e10	8	-1e10	8	-1E+10	1	-1E+10	1	-1E+10	1	-1E+10	1	-1E+10	1	-1E+10	1
4902554	71	C	01/23/2023	15:54	-132.911	48.387	0	188.90	0	5.3660	0	33.6990	0	26.603	0	187.223	0	-1e10	8	-1e10	8	-1E+10	1	-1E+10	1	-1E+10	1	-1E+10	1	-1E+10	1	-1E+10	1
4902554	71	C	01/23/2023	15:54	-132.911	48.387	0	189.90	0	5.3520	0	33.7010	0	26.607	0	188.213	0	-1e10	8	-1e10	8	-1E+10	1	-1E+10	1	-1E+10	1	-1E+10	1	-1E+10	1	-1E+10	1
4902554	71	C	01/23/2023	15:54	-132.911	48.387	0	190.90	0	5.3350	0	33.7030	0	26.610	0	189.204	0	-1e10	8	-1e10	8	-1E+10	1	-1E+10	1	-1E+10	1	-1E+10	1	-1E+10	1	-1E+10	1
4902554	71	C	01/23/2023	15:54	-132.911	48.387	0	191.80	0	5.3260	0	33.7050	0	26.613	0	190.095	0	-1e10	8	-1e10	8	-1E+10	1	-1E+10	1	-1E+10	1	-1E+10	1	-1E+10	1	-1E+10	1
4902554	71	C	01/23/2023	15:54	-132.911	48.387	0	192.90	0	5.2960	0	33.7110	0	26.621	0	191.185	0	-1e10	8	-1e10	8	-1E+10	1	-1E+10	1	-1E+10	1	-1E+10	1	-1E+10	1	-1E+10	1
4902554	71	C	01/23/2023	15:54	-132.911	48.387	0	193.80	0	5.2850	0	33.7130	0	26.624	0	192.077	0	-1e10	8	-1e10	8	-1E+10	1	-1E+10	1	-1E+10	1	-1E+10	1	-1E+10	1	-1E+10	1
4902554	71	C	01/23/2023	15:54	-132.911	48.387	0	194.80	0	5.2750	0	33.7140	0	26.626	0	193.067	0	-1e10	8	-1e10	8	-1E+10	1	-1E+10	1	-1E+10	1	-1E+10	1	-1E+10	1	-1E+10	1
4902554	71	C	01/23/2023	15:54	-132.911	48.387	0	195.80	0	5.2740	0	33.7160	0	26.628	0	194.058	0	-1e10	8	-1e10	8	-1E+10	1	-1E+10	1	-1E+10	1	-1E+10	1	-1E+10	1	-1E+10	1
4902554	71	C	01/23/2023	15:54	-132.911	48.387	0	196.80	0	5.2780	0	33.7130	0	26.625	0	195.049	0	-1e10	8	-1e10	8	-1E+10	1	-1E+10	1	-1E+10	1	-1E+10	1	-1E+10	1	-1E+10	1
4902554	71	C	01/23/2023	15:54	-132.911	48.387	0	197.80	0	5.2790	0	33.7130	0	26.625	0	196.039	0	-1e10	8	-1e10	8	-1E+10	1	-1E+10	1	-1E+10	1	-1E+10	1	-1E+10	1	-1E+10	1
4902554	71	C	01/23/2023	15:54	-132.911	48.387	0	198.80	0	5.2700	0	33.7140	0	26.627	0	197.030	0	-1e10	8	-1e10	8	-1E+10	1	-1E+10	1	-1E+10	1	-1E+10	1	-1E+10	1	-1E+10	1
4902554	71	C	01/23/2023	15:54	-132.911	48.387	0	199.80	0	5.2620	0	33.7160	0	26.629	0	198.021	0	-1e10	8	-1e10	8	-1E+10	1	-1E+10	1	-1E+10	1	-1E+10	1	-1E+10	1	-1E+10	1
4902554	71	C	01/23/2023	15:54	-132.911	48.387	0	200.80	0	5.2590	0	33.7160	0	26.630	0	199.011	0	-1e10	8	-1e10	8	-1E+10	1	-1E+10	1	-1E+10	1	-1E+10	1	-1E+10	1	-1E+10	1
4902554	71	C	01/23/2023	15:54	-132.911	48.387	0	201.80	0	5.2570	0	33.7170	0	26.631	0	200.002	0	-1e10	8	-1e10	8	-1E+10	1	-1E+10	1	-1E+10	1	-1E+10	1	-1E+10	1	-1E+10	1
4902554	71	C	01/23/2023	15:54	-132.911	48.387	0	202.80	0	5.2500	0	33.7190	0	26.633	0	200.992	0	-1e10	8	-1e10	8	-1E+10	1	-1E+10	1	-1E+10	1	-1E+10	1	-1E+10	1	-1E+10	1
4902554	71	C	01/23/2023	15:54	-132.911	48.387	0	203.80	0	5.2450	0	33.7200	0	26.634	0	201.983	0	-1e10	8	-1e10	8	-1E+10	1	-1E+10	1	-1E+10	1	-1E+10	1	-1E+10	1	-1E+10	1
4902554	71	C	01/23/2023	15:54	-132.911	48.387	0	204.80	0	5.2410	0	33.7210	0	26.636	0	202.974	0	-1e10	8	-1e10	8	-1E+10	1	-1E+10	1	-1E+10	1	-1E+10	1	-1E+10	1	-1E+10	1
4902554	71	C	01/23/2023	15:54	-132.911	48.387	0	205.70	0	5.2300	0	33.7220	0	26.638	0	203.865	0	-1e10	8	-1e10	8	-1E+10	1	-1E+10	1	-1E+10	1	-1E+10	1	-1E+10	1	-1E+10	1
4902554	71	C	01/23/2023	15:54	-132.911	48.387	0	207.00	0	5.1940	0	33.7270	0	26.646	0	205.153	0	-1e10	8	-1e10	8	-1E+10	1	-1E+10	1	-1E+10	1	-1E+10	1	-1E+10	1	-1E+10	1
4902554	71	C	01/23/2023	15:54	-132.911	48.387	0	208.20	0	5.1630	0	33.7310	0	26.653	0	206.342	0	-1e10	8	-1e10	8	-1E+10	1	-1E+10	1	-1E+10	1	-1E+10	1	-1E+10	1	-1E+10	1
4902554	71	C	01/23/2023	15:54	-132.911	48.387	0	208.90	0	5.1430	0	33.7330	0	26.656	0	207.035	0	-1e10	8	-1e10	8	-1E+10	1	-1E+10	1	-1E+10	1	-1E+10	1	-1E+10	1	-1E+10	1
4902554	71	C	01/23/2023	15:54	-132.911	48.387	0	210.00	0	5.1030	0	33.7390	0	26.666	0	208.125	0	-1e10	8	-1e10	8	-1E+10	1	-1E+10	1	-1E+10	1	-1E+10	1	-1E+10	1	-1E+10	1
4902554	71	C	01/23/2023	15:54	-132.911	48.387	0	211.20	0	5.0900	0	33.7390	0	26.667	0	209.313	0	-1e10	8	-1e10	8	-1E+10	1	-1E+10	1	-1E+10	1	-1E+10	1	-1E+10	1	-1E+10	1
4902554	71	C	01/23/2023	15:54	-132.911	48.387	0	212.00	0	5.0780	0	33.7400	0	26.669	0	210.106	0	-1e10	8	-1e10	8	-1E+10	1	-1E+10	1	-1E+10	1	-1E+10	1	-1E+10	1	-1E+10	1
4902554	71	C	01/23/2023	15:54	-132.911	48.387	0	212.80	0	5.0550	0	33.7430	0	26.674	0	210.898	0	-1e10	8	-1e10	8	-1E+10	1	-1E+10	1	-1E+10	1	-1E+10	1	-1E+10	1	-1E+10	1
4902554	71	C	01/23/2023	15:54	-132.911	48.387	0	213.90	0	5.0380	0	33.7450	0	26.678	0	211.988	0	-1e10	8	-1e10	8	-1E+10	1	-1E+10	1	-1E+10	1	-1E+10	1	-1E+10	1	-1E+10	1
4902554	71	C	01/23/2023	15:54	-132.911	48.387	0	215.10	0	5.0350	0	33.7440	0	26.678	0	213.176	0	-1e10	8	-1e10	8	-1E+10	1	-1E+10	1	-1E+10	1	-1E+10	1	-1E+10	1	-1E+10	1
4902554	71	C	01/23/2023	15:54	-132.911	48.387	0	215.90	0	5.0230	0	33.7480	0	26.682	0	213.969	0	-1e10	8	-1e10	8	-1E+10	1	-1E+10	1	-1E+10	1	-1E+10	1	-1E+10	1	-1E+10	1
4902554	71	C	01/23/2023	15:54	-132.911	48.387	0	216.70	0	5.0210	0	33.7470	0	26.682	0	214.761	0	-1e10	8	-1e10	8	-1E+10	1	-1E+10	1	-1E+10	1	-1E+10	1	-1E+10	1	-1E+10	1
4902554	71	C	01/23/2023	15:54	-132.911	48.387	0	218.00	0	5.0140	0	33.7470	0	26.682	0	216.049	0	-1e10	8	-1e10	8	-1E+10	1	-1E+10	1	-1E+10	1	-1E+10	1	-1E+10	1	-1E+10	1
4902554	71	C	01/23/2023	15:54	-132.911	48.387	0	219.20	0	4.9890	0	33.7530	0	26.690	0	217.238	0	-1e10	8	-1e10	8	-1E+10	1	-1E+10	1	-1E+10	1	-1E+10	1	-1E+10	1	-1E+10	1
4902554	71	C	01/23/2023	15:54	-132.911	48.387	0	220.10	0	4.9790	0	33.7520	0	26.690	0	218.129	0	-1e10	8	-1e10	8	-1E+10	1	-1E+10	1	-1E+10	1	-1E+10	1	-1E+10	1	-1E+10	1
4902554	71	C	01/23/2023	15:54	-132.911	48.387	0	220.90	0	4.9760	0	33.7520	0	26.691	0	218.921	0	-1e10	8	-1e10	8	-1E+10	1	-1E+10	1	-1E+10	1	-1E+10	1	-1E+10	1	-1E+10	1
4902554	71	C	01/23/2023	15:54	-132.911	48.387	0	221.80	0	4.9640	0	33.7560	0	26.695	0	219.813	0	-1e10	8	-1e10	8	-1E+10	1	-1E+10	1	-1E+10	1	-1E+10	1	-1E+10	1	-1E+10	1
4902554	71	C	01/23/2023	15:54	-132.911	48.387	0	223.00	0	4.9560	0	33.7550	0	26.695	0	221.002	0	-1e10	8	-1e10	8	-1E+10	1	-1E+10	1	-1E+10	1	-1E+10	1	-1E+10	1	-1E+10	1
4902554	71	C	01/23/2023	15:54	-132.911	48.387	0	224.30	0	4.9470	0	33.7560	0	26.697	0	222.289	0	-1e10	8	-1e10	8	-1E+10	1	-1E+10	1	-1E+10	1	-1E+10	1	-1E+10	1	-1E+10	1
4902554	71	C	01/23/2023	15:54	-132.911	48.387	0	225.10	0	4.9280	0	33.7600	0	26.702	0	223.082	0	-1e10	8	-1e10	8	-1E+10	1	-1E+10	1	-1E+10	1	-1E+10	1	-1E+10	1	-1E+10	1
4902554	71	C	01/23/2023	15:54	-132.911	48.387	0	226.00	0	4.9230	0	33.7600	0	26.703	0	223.973	0	-1e10	8	-1e10	8	-1E+10	1	-1E+10	1	-1E+10	1	-1E+10	1	-1E+10	1	-1E+10	1
4902554	71	C	01/23/2023	15:54	-132.911	48.387	0	226.90	0	4.9200	0	33.7610	0	26.704	0	224.864	0	-1e10	8	-1e10	8	-1E+10	1	-1E+10	1	-1E+10	1	-1E+10	1	-1E+10	1	-1E+10	1
4902554	71	C	01/23/2023	15:54	-132.911	48.387	0	227.70	0	4.9160	0	33.7620	0	26.705	0	225.657	0	-1e10	8	-1e10	8	-1E+10	1	-1E+10	1	-1E+10	1	-1E+10	1	-1E+10	1	-1E+10	1
4902554	71	C	01/23/2023	15:54	-132.911	48.387	0	228.60	0	4.9090	0	33.7630	0	26.707	0	226.548	0	-1e10	8	-1e10	8	-1E+10	1	-1E+10	1	-1E+10	1	-1E+10	1	-1E+10	1	-1E+10	1
4902554	71	C	01/23/2023	15:54	-132.911	48.387	0	229.90	0	4.8950	0	33.7640	0	26.709	0	227.836	0	-1e10	8	-1e10	8	-1E+10	1	-1E+10	1	-1E+10	1	-1E+10	1	-1E+10	1	-1E+10	1
4902554	71	C	01/23/2023	15:54	-132.911	48.387	0	231.20	0	4.8900	0	33.7660	0	26.711	0	229.123	0	-1e10	8	-1e10	8	-1E+10	1	-1E+10	1	-1E+10	1	-1E+10	1	-1E+10	1	-1E+10	1
4902554	71	C	01/23/2023	15:54	-132.911	48.387	0	232.10	0	4.8890	0	33.7660	0	26.712	0	230.015	0	-1e10	8	-1e10	8	-1E+10	1	-1E+10	1	-1E+10	1	-1E+10	1	-1E+10	1	-1E+10	1
4902554	71	C	01/23/2023	15:54	-132.911	48.387	0	233.00	0	4.8810	0	33.7680	0	26.714	0	230.906	0	-1e10	8	-1e10	8	-1E+10	1	-1E+10	1	-1E+10	1	-1E+10	1	-1E+10	1	-1E+10	1
4902554	71	C	01/23/2023	15:54	-132.911	48.387	0	233.80	0	4.8690	0	33.7710	0	26.718	0	231.699	0	-1e10	8	-1e10	8	-1E+10	1	-1E+10	1	-1E+10	1	-1E+10	1	-1E+10	1	-1E+10	1
4902554	71	C	01/23/2023	15:54	-132.911	48.387	0	234.70	0	4.8600	0	33.7710	0	26.719	0	232.590	0	-1e10	8	-1e10	8	-1E+10	1	-1E+10	1	-1E+10	1	-1E+10	1	-1E+10	1	-1E+10	1
4902554	71	C	01/23/2023	15:54	-132.911	48.387	0	235.60	0	4.8580	0	33.7710	0	26.719	0	233.481	0	-1e10	8	-1e10	8	-1E+10	1	-1E+10	1	-1E+10	1	-1E+10	1	-1E+10	1	-1E+10	1
4902554	71	C	01/23/2023	15:54	-132.911	48.387	0	236.90	0	4.8570	0	33.7710	0	26.719	0	234.769	0	-1e10	8	-1e10	8	-1E+10	1	-1E+10	1	-1E+10	1	-1E+10	1	-1E+10	1	-1E+10	1
4902554	71	C	01/23/2023	15:54	-132.911	48.387	0	238.30	0	4.8500	0	33.7720	0	26.721	0	236.156	0	-1e10	8	-1e10	8	-1E+10	1	-1E+10	1	-1E+10	1	-1E+10	1	-1E+10	1	-1E+10	1
4902554	71	C	01/23/2023	15:54	-132.911	48.387	0	239.20	0	4.8290	0	33.7810	0	26.730	0	237.047	0	-1e10	8	-1e10	8	-1E+10	1	-1E+10	1	-1E+10	1	-1E+10	1	-1E+10	1	-1E+10	1
4902554	71	C	01/23/2023	15:54	-132.911	48.387	0	240.10	0	4.8230	0	33.7770	0	26.728	0	237.938	0	-1e10	8	-1e10	8	-1E+10	1	-1E+10	1	-1E+10	1	-1E+10	1	-1E+10	1	-1E+10	1
4902554	71	C	01/23/2023	15:54	-132.911	48.387	0	241.00	0	4.8170	0	33.7770	0	26.728	0	238.830	0	-1e10	8	-1e10	8	-1E+10	1	-1E+10	1	-1E+10	1	-1E+10	1	-1E+10	1	-1E+10	1
4902554	71	C	01/23/2023	15:54	-132.911	48.387	0	241.90	0	4.8080	0	33.7780	0	26.730	0	239.721	0	-1e10	8	-1e10	8	-1E+10	1	-1E+10	1	-1E+10	1	-1E+10	1	-1E+10	1	-1E+10	1
4902554	71	C	01/23/2023	15:54	-132.911	48.387	0	242.80	0	4.8060	0	33.7780	0	26.730	0	240.613	0	-1e10	8	-1e10	8	-1E+10	1	-1E+10	1	-1E+10	1	-1E+10	1	-1E+10	1	-1E+10	1
4902554	71	C	01/23/2023	15:54	-132.911	48.387	0	243.70	0	4.8020	0	33.7780	0	26.731	0	241.504	0	-1e10	8	-1e10	8	-1E+10	1	-1E+10	1	-1E+10	1	-1E+10	1	-1E+10	1	-1E+10	1
4902554	71	C	01/23/2023	15:54	-132.911	48.387	0	244.60	0	4.7930	0	33.7800	0	26.733	0	242.395	0	-1e10	8	-1e10	8	-1E+10	1	-1E+10	1	-1E+10	1	-1E+10	1	-1E+10	1	-1E+10	1
4902554	71	C	01/23/2023	15:54	-132.911	48.387	0	245.90	0	4.7770	0	33.7820	0	26.737	0	243.683	0	-1e10	8	-1e10	8	-1E+10	1	-1E+10	1	-1E+10	1	-1E+10	1	-1E+10	1	-1E+10	1
4902554	71	C	01/23/2023	15:54	-132.911	48.387	0	247.30	0	4.7750	0	33.7820	0	26.737	0	245.069	0	-1e10	8	-1e10	8	-1E+10	1	-1E+10	1	-1E+10	1	-1E+10	1	-1E+10	1	-1E+10	1
4902554	71	C	01/23/2023	15:54	-132.911	48.387	0	248.20	0	4.7720	0	33.7830	0	26.738	0	245.961	0	-1e10	8	-1e10	8	-1E+10	1	-1E+10	1	-1E+10	1	-1E+10	1	-1E+10	1	-1E+10	1
4902554	71	C	01/23/2023	15:54	-132.911	48.387	0	249.10	0	4.7690	0	33.7830	0	26.739	0	246.852	0	-1e10	8	-1e10	8	-1E+10	1	-1E+10	1	-1E+10	1	-1E+10	1	-1E+10	1	-1E+10	1
4902554	71	C	01/23/2023	15:54	-132.911	48.387	0	250.00	0	4.7600	0	33.7850	0	26.741	0	247.743	0	-1e10	8	-1e10	8	-1E+10	1	-1E+10	1	-1E+10	1	-1E+10	1	-1E+10	1	-1E+10	1
4902554	71	C	01/23/2023	15:54	-132.911	48.387	0	250.90	0	4.7390	0	33.7880	0	26.746	0	248.635	0	-1e10	8	-1e10	8	-1E+10	1	-1E+10	1	-1E+10	1	-1E+10	1	-1E+10	1	-1E+10	1
4902554	71	C	01/23/2023	15:54	-132.911	48.387	0	251.80	0	4.7320	0	33.7900	0	26.748	0	249.526	0	-1e10	8	-1e10	8	-1E+10	1	-1E+10	1	-1E+10	1	-1E+10	1	-1E+10	1	-1E+10	1
4902554	71	C	01/23/2023	15:54	-132.911	48.387	0	252.70	0	4.7260	0	33.7910	0	26.750	0	250.417	0	-1e10	8	-1e10	8	-1E+10	1	-1E+10	1	-1E+10	1	-1E+10	1	-1E+10	1	-1E+10	1
4902554	71	C	01/23/2023	15:54	-132.911	48.387	0	253.60	0	4.7250	0	33.7920	0	26.751	0	251.309	0	-1e10	8	-1e10	8	-1E+10	1	-1E+10	1	-1E+10	1	-1E+10	1	-1E+10	1	-1E+10	1
4902554	71	C	01/23/2023	15:54	-132.911	48.387	0	254.90	0	4.7160	0	33.7930	0	26.752	0	252.596	0	-1e10	8	-1e10	8	-1E+10	1	-1E+10	1	-1E+10	1	-1E+10	1	-1E+10	1	-1E+10	1
4902554	71	C	01/23/2023	15:54	-132.911	48.387	0	256.40	0	4.7110	0	33.7950	0	26.754	0	254.082	0	-1e10	8	-1e10	8	-1E+10	1	-1E+10	1	-1E+10	1	-1E+10	1	-1E+10	1	-1E+10	1
4902554	71	C	01/23/2023	15:54	-132.911	48.387	0	257.30	0	4.7080	0	33.7960	0	26.756	0	254.973	0	-1e10	8	-1e10	8	-1E+10	1	-1E+10	1	-1E+10	1	-1E+10	1	-1E+10	1	-1E+10	1
4902554	71	C	01/23/2023	15:54	-132.911	48.387	0	258.20	0	4.7070	0	33.7960	0	26.756	0	255.864	0	-1e10	8	-1e10	8	-1E+10	1	-1E+10	1	-1E+10	1	-1E+10	1	-1E+10	1	-1E+10	1
4902554	71	C	01/23/2023	15:54	-132.911	48.387	0	259.20	0	4.7040	0	33.7960	0	26.756	0	256.855	0	-1e10	8	-1e10	8	-1E+10	1	-1E+10	1	-1E+10	1	-1E+10	1	-1E+10	1	-1E+10	1
4902554	71	C	01/23/2023	15:54	-132.911	48.387	0	260.10	0	4.7010	0	33.7960	0	26.756	0	257.746	0	-1e10	8	-1e10	8	-1E+10	1	-1E+10	1	-1E+10	1	-1E+10	1	-1E+10	1	-1E+10	1
4902554	71	C	01/23/2023	15:54	-132.911	48.387	0	261.10	0	4.6860	0	33.8000	0	26.761	0	258.736	0	-1e10	8	-1e10	8	-1E+10	1	-1E+10	1	-1E+10	1	-1E+10	1	-1E+10	1	-1E+10	1
4902554	71	C	01/23/2023	15:54	-132.911	48.387	0	262.00	0	4.6840	0	33.7990	0	26.761	0	259.628	0	-1e10	8	-1e10	8	-1E+10	1	-1E+10	1	-1E+10	1	-1E+10	1	-1E+10	1	-1E+10	1
4902554	71	C	01/23/2023	15:54	-132.911	48.387	0	263.00	0	4.6800	0	33.8010	0	26.763	0	260.618	0	-1e10	8	-1e10	8	-1E+10	1	-1E+10	1	-1E+10	1	-1E+10	1	-1E+10	1	-1E+10	1
4902554	71	C	01/23/2023	15:54	-132.911	48.387	0	263.90	0	4.6790	0	33.7990	0	26.761	0	261.509	0	-1e10	8	-1e10	8	-1E+10	1	-1E+10	1	-1E+10	1	-1E+10	1	-1E+10	1	-1E+10	1
4902554	71	C	01/23/2023	15:54	-132.911	48.387	0	264.90	0	4.6580	0	33.8030	0	26.767	0	262.499	0	-1e10	8	-1e10	8	-1E+10	1	-1E+10	1	-1E+10	1	-1E+10	1	-1E+10	1	-1E+10	1
4902554	71	C	01/23/2023	15:54	-132.911	48.387	0	265.80	0	4.6550	0	33.8050	0	26.769	0	263.391	0	-1e10	8	-1e10	8	-1E+10	1	-1E+10	1	-1E+10	1	-1E+10	1	-1E+10	1	-1E+10	1
4902554	71	C	01/23/2023	15:54	-132.911	48.387	0	266.80	0	4.6540	0	33.8040	0	26.768	0	264.381	0	-1e10	8	-1e10	8	-1E+10	1	-1E+10	1	-1E+10	1	-1E+10	1	-1E+10	1	-1E+10	1
4902554	71	C	01/23/2023	15:54	-132.911	48.387	0	267.70	0	4.6320	0	33.8080	0	26.774	0	265.272	0	-1e10	8	-1e10	8	-1E+10	1	-1E+10	1	-1E+10	1	-1E+10	1	-1E+10	1	-1E+10	1
4902554	71	C	01/23/2023	15:54	-132.911	48.387	0	268.70	0	4.6330	0	33.8080	0	26.773	0	266.263	0	-1e10	8	-1e10	8	-1E+10	1	-1E+10	1	-1E+10	1	-1E+10	1	-1E+10	1	-1E+10	1
4902554	71	C	01/23/2023	15:54	-132.911	48.387	0	269.60	0	4.6310	0	33.8090	0	26.774	0	267.154	0	-1e10	8	-1e10	8	-1E+10	1	-1E+10	1	-1E+10	1	-1E+10	1	-1E+10	1	-1E+10	1
4902554	71	C	01/23/2023	15:54	-132.911	48.387	0	270.60	0	4.6310	0	33.8090	0	26.774	0	268.144	0	-1e10	8	-1e10	8	-1E+10	1	-1E+10	1	-1E+10	1	-1E+10	1	-1E+10	1	-1E+10	1
4902554	71	C	01/23/2023	15:54	-132.911	48.387	0	271.90	0	4.6260	0	33.8100	0	26.776	0	269.431	0	-1e10	8	-1e10	8	-1E+10	1	-1E+10	1	-1E+10	1	-1E+10	1	-1E+10	1	-1E+10	1
4902554	71	C	01/23/2023	15:54	-132.911	48.387	0	273.40	0	4.6260	0	33.8100	0	26.776	0	270.917	0	-1e10	8	-1e10	8	-1E+10	1	-1E+10	1	-1E+10	1	-1E+10	1	-1E+10	1	-1E+10	1
4902554	71	C	01/23/2023	15:54	-132.911	48.387	0	274.30	0	4.6260	0	33.8090	0	26.775	0	271.808	0	-1e10	8	-1e10	8	-1E+10	1	-1E+10	1	-1E+10	1	-1E+10	1	-1E+10	1	-1E+10	1
4902554	71	C	01/23/2023	15:54	-132.911	48.387	0	275.20	0	4.6270	0	33.8090	0	26.775	0	272.699	0	-1e10	8	-1e10	8	-1E+10	1	-1E+10	1	-1E+10	1	-1E+10	1	-1E+10	1	-1E+10	1
4902554	71	C	01/23/2023	15:54	-132.911	48.387	0	276.10	0	4.6260	0	33.8090	0	26.775	0	273.591	0	-1e10	8	-1e10	8	-1E+10	1	-1E+10	1	-1E+10	1	-1E+10	1	-1E+10	1	-1E+10	1
4902554	71	C	01/23/2023	15:54	-132.911	48.387	0	277.10	0	4.6150	0	33.8110	0	26.778	0	274.581	0	-1e10	8	-1e10	8	-1E+10	1	-1E+10	1	-1E+10	1	-1E+10	1	-1E+10	1	-1E+10	1
4902554	71	C	01/23/2023	15:54	-132.911	48.387	0	278.00	0	4.6110	0	33.8120	0	26.779	0	275.472	0	-1e10	8	-1e10	8	-1E+10	1	-1E+10	1	-1E+10	1	-1E+10	1	-1E+10	1	-1E+10	1
4902554	71	C	01/23/2023	15:54	-132.911	48.387	0	278.90	0	4.6020	0	33.8140	0	26.782	0	276.363	0	-1e10	8	-1e10	8	-1E+10	1	-1E+10	1	-1E+10	1	-1E+10	1	-1E+10	1	-1E+10	1
4902554	71	C	01/23/2023	15:54	-132.911	48.387	0	279.80	0	4.5880	0	33.8180	0	26.786	0	277.254	0	-1e10	8	-1e10	8	-1E+10	1	-1E+10	1	-1E+10	1	-1E+10	1	-1E+10	1	-1E+10	1
4902554	71	C	01/23/2023	15:54	-132.911	48.387	0	280.80	0	4.5880	0	33.8180	0	26.786	0	278.245	0	-1e10	8	-1e10	8	-1E+10	1	-1E+10	1	-1E+10	1	-1E+10	1	-1E+10	1	-1E+10	1
4902554	71	C	01/23/2023	15:54	-132.911	48.387	0	281.70	0	4.5850	0	33.8180	0	26.787	0	279.136	0	-1e10	8	-1e10	8	-1E+10	1	-1E+10	1	-1E+10	1	-1E+10	1	-1E+10	1	-1E+10	1
4902554	71	C	01/23/2023	15:54	-132.911	48.387	0	282.60	0	4.5810	0	33.8190	0	26.788	0	280.027	0	-1e10	8	-1e10	8	-1E+10	1	-1E+10	1	-1E+10	1	-1E+10	1	-1E+10	1	-1E+10	1
4902554	71	C	01/23/2023	15:54	-132.911	48.387	0	283.60	0	4.5710	0	33.8220	0	26.791	0	281.017	0	-1e10	8	-1e10	8	-1E+10	1	-1E+10	1	-1E+10	1	-1E+10	1	-1E+10	1	-1E+10	1
4902554	71	C	01/23/2023	15:54	-132.911	48.387	0	284.50	0	4.5680	0	33.8230	0	26.793	0	281.908	0	-1e10	8	-1e10	8	-1E+10	1	-1E+10	1	-1E+10	1	-1E+10	1	-1E+10	1	-1E+10	1
4902554	71	C	01/23/2023	15:54	-132.911	48.387	0	285.90	0	4.5650	0	33.8230	0	26.793	0	283.295	0	-1e10	8	-1e10	8	-1E+10	1	-1E+10	1	-1E+10	1	-1E+10	1	-1E+10	1	-1E+10	1
4902554	71	C	01/23/2023	15:54	-132.911	48.387	0	287.40	0	4.5650	0	33.8220	0	26.792	0	284.780	0	-1e10	8	-1e10	8	-1E+10	1	-1E+10	1	-1E+10	1	-1E+10	1	-1E+10	1	-1E+10	1
4902554	71	C	01/23/2023	15:54	-132.911	48.387	0	288.40	0	4.5620	0	33.8230	0	26.793	0	285.770	0	-1e10	8	-1e10	8	-1E+10	1	-1E+10	1	-1E+10	1	-1E+10	1	-1E+10	1	-1E+10	1
4902554	71	C	01/23/2023	15:54	-132.911	48.387	0	289.30	0	4.5530	0	33.8250	0	26.796	0	286.661	0	-1e10	8	-1e10	8	-1E+10	1	-1E+10	1	-1E+10	1	-1E+10	1	-1E+10	1	-1E+10	1
4902554	71	C	01/23/2023	15:54	-132.911	48.387	0	290.30	0	4.5460	0	33.8270	0	26.798	0	287.652	0	-1e10	8	-1e10	8	-1E+10	1	-1E+10	1	-1E+10	1	-1E+10	1	-1E+10	1	-1E+10	1
4902554	71	C	01/23/2023	15:54	-132.911	48.387	0	291.30	0	4.5440	0	33.8270	0	26.798	0	288.642	0	-1e10	8	-1e10	8	-1E+10	1	-1E+10	1	-1E+10	1	-1E+10	1	-1E+10	1	-1E+10	1
4902554	71	C	01/23/2023	15:54	-132.911	48.387	0	292.20	0	4.5430	0	33.8270	0	26.798	0	289.533	0	-1e10	8	-1e10	8	-1E+10	1	-1E+10	1	-1E+10	1	-1E+10	1	-1E+10	1	-1E+10	1
4902554	71	C	01/23/2023	15:54	-132.911	48.387	0	293.20	0	4.5420	0	33.8260	0	26.798	0	290.523	0	-1e10	8	-1e10	8	-1E+10	1	-1E+10	1	-1E+10	1	-1E+10	1	-1E+10	1	-1E+10	1
4902554	71	C	01/23/2023	15:54	-132.911	48.387	0	294.20	0	4.5290	0	33.8300	0	26.802	0	291.513	0	-1e10	8	-1e10	8	-1E+10	1	-1E+10	1	-1E+10	1	-1E+10	1	-1E+10	1	-1E+10	1
4902554	71	C	01/23/2023	15:54	-132.911	48.387	0	295.20	0	4.5150	0	33.8340	0	26.807	0	292.503	0	-1e10	8	-1e10	8	-1E+10	1	-1E+10	1	-1E+10	1	-1E+10	1	-1E+10	1	-1E+10	1
4902554	71	C	01/23/2023	15:54	-132.911	48.387	0	296.20	0	4.5060	0	33.8370	0	26.810	0	293.494	0	-1e10	8	-1e10	8	-1E+10	1	-1E+10	1	-1E+10	1	-1E+10	1	-1E+10	1	-1E+10	1
4902554	71	C	01/23/2023	15:54	-132.911	48.387	0	297.10	0	4.5020	0	33.8370	0	26.811	0	294.385	0	-1e10	8	-1e10	8	-1E+10	1	-1E+10	1	-1E+10	1	-1E+10	1	-1E+10	1	-1E+10	1
4902554	71	C	01/23/2023	15:54	-132.911	48.387	0	298.10	0	4.4870	0	33.8420	0	26.816	0	295.375	0	-1e10	8	-1e10	8	-1E+10	1	-1E+10	1	-1E+10	1	-1E+10	1	-1E+10	1	-1E+10	1
4902554	71	C	01/23/2023	15:54	-132.911	48.387	0	299.10	0	4.4820	0	33.8430	0	26.818	0	296.365	0	-1e10	8	-1e10	8	-1E+10	1	-1E+10	1	-1E+10	1	-1E+10	1	-1E+10	1	-1E+10	1
4902554	71	C	01/23/2023	15:54	-132.911	48.387	0	300.10	0	4.4720	0	33.8480	0	26.823	0	297.355	0	-1e10	8	-1e10	8	-1E+10	1	-1E+10	1	-1E+10	1	-1E+10	1	-1E+10	1	-1E+10	1
4902554	71	C	01/23/2023	15:54	-132.911	48.387	0	301.10	0	4.4670	0	33.8470	0	26.823	0	298.345	0	-1e10	8	-1e10	8	-1E+10	1	-1E+10	1	-1E+10	1	-1E+10	1	-1E+10	1	-1E+10	1
4902554	71	C	01/23/2023	15:54	-132.911	48.387	0	302.10	0	4.4670	0	33.8470	0	26.823	0	299.335	0	-1e10	8	-1e10	8	-1E+10	1	-1E+10	1	-1E+10	1	-1E+10	1	-1E+10	1	-1E+10	1
4902554	71	C	01/23/2023	15:54	-132.911	48.387	0	303.00	0	4.4670	0	33.8470	0	26.823	0	300.227	0	-1e10	8	-1e10	8	-1E+10	1	-1E+10	1	-1E+10	1	-1E+10	1	-1E+10	1	-1E+10	1
4902554	71	C	01/23/2023	15:54	-132.911	48.387	0	304.00	0	4.4620	0	33.8470	0	26.823	0	301.217	0	-1e10	8	-1e10	8	-1E+10	1	-1E+10	1	-1E+10	1	-1E+10	1	-1E+10	1	-1E+10	1
4902554	71	C	01/23/2023	15:54	-132.911	48.387	0	305.00	0	4.4570	0	33.8490	0	26.825	0	302.207	0	-1e10	8	-1e10	8	-1E+10	1	-1E+10	1	-1E+10	1	-1E+10	1	-1E+10	1	-1E+10	1
4902554	71	C	01/23/2023	15:54	-132.911	48.387	0	305.90	0	4.4320	0	33.8550	0	26.833	0	303.098	0	-1e10	8	-1e10	8	-1E+10	1	-1E+10	1	-1E+10	1	-1E+10	1	-1E+10	1	-1E+10	1
4902554	71	C	01/23/2023	15:54	-132.911	48.387	0	306.90	0	4.4210	0	33.8570	0	26.835	0	304.088	0	-1e10	8	-1e10	8	-1E+10	1	-1E+10	1	-1E+10	1	-1E+10	1	-1E+10	1	-1E+10	1
4902554	71	C	01/23/2023	15:54	-132.911	48.387	0	307.90	0	4.4180	0	33.8580	0	26.837	0	305.078	0	-1e10	8	-1e10	8	-1E+10	1	-1E+10	1	-1E+10	1	-1E+10	1	-1E+10	1	-1E+10	1
4902554	71	C	01/23/2023	15:54	-132.911	48.387	0	308.80	0	4.4150	0	33.8590	0	26.838	0	305.969	0	-1e10	8	-1e10	8	-1E+10	1	-1E+10	1	-1E+10	1	-1E+10	1	-1E+10	1	-1E+10	1
4902554	71	C	01/23/2023	15:54	-132.911	48.387	0	309.80	0	4.4150	0	33.8590	0	26.838	0	306.959	0	-1e10	8	-1e10	8	-1E+10	1	-1E+10	1	-1E+10	1	-1E+10	1	-1E+10	1	-1E+10	1
4902554	71	C	01/23/2023	15:54	-132.911	48.387	0	310.80	0	4.4120	0	33.8600	0	26.839	0	307.949	0	-1e10	8	-1e10	8	-1E+10	1	-1E+10	1	-1E+10	1	-1E+10	1	-1E+10	1	-1E+10	1
4902554	71	C	01/23/2023	15:54	-132.911	48.387	0	311.70	0	4.4110	0	33.8600	0	26.839	0	308.840	0	-1e10	8	-1e10	8	-1E+10	1	-1E+10	1	-1E+10	1	-1E+10	1	-1E+10	1	-1E+10	1
4902554	71	C	01/23/2023	15:54	-132.911	48.387	0	312.70	0	4.4020	0	33.8640	0	26.843	0	309.831	0	-1e10	8	-1e10	8	-1E+10	1	-1E+10	1	-1E+10	1	-1E+10	1	-1E+10	1	-1E+10	1
4902554	71	C	01/23/2023	15:54	-132.911	48.387	0	313.70	0	4.3960	0	33.8670	0	26.846	0	310.821	0	-1e10	8	-1e10	8	-1E+10	1	-1E+10	1	-1E+10	1	-1E+10	1	-1E+10	1	-1E+10	1
4902554	71	C	01/23/2023	15:54	-132.911	48.387	0	314.60	0	4.3930	0	33.8680	0	26.847	0	311.712	0	-1e10	8	-1e10	8	-1E+10	1	-1E+10	1	-1E+10	1	-1E+10	1	-1E+10	1	-1E+10	1
4902554	71	C	01/23/2023	15:54	-132.911	48.387	0	315.60	0	4.3890	0	33.8690	0	26.848	0	312.702	0	-1e10	8	-1e10	8	-1E+10	1	-1E+10	1	-1E+10	1	-1E+10	1	-1E+10	1	-1E+10	1
4902554	71	C	01/23/2023	15:54	-132.911	48.387	0	316.60	0	4.3880	0	33.8690	0	26.849	0	313.692	0	-1e10	8	-1e10	8	-1E+10	1	-1E+10	1	-1E+10	1	-1E+10	1	-1E+10	1	-1E+10	1
4902554	71	C	01/23/2023	15:54	-132.911	48.387	0	317.60	0	4.3880	0	33.8690	0	26.849	0	314.682	0	-1e10	8	-1e10	8	-1E+10	1	-1E+10	1	-1E+10	1	-1E+10	1	-1E+10	1	-1E+10	1
4902554	71	C	01/23/2023	15:54	-132.911	48.387	0	318.50	0	4.3870	0	33.8700	0	26.849	0	315.573	0	-1e10	8	-1e10	8	-1E+10	1	-1E+10	1	-1E+10	1	-1E+10	1	-1E+10	1	-1E+10	1
4902554	71	C	01/23/2023	15:54	-132.911	48.387	0	319.50	0	4.3870	0	33.8700	0	26.850	0	316.563	0	-1e10	8	-1e10	8	-1E+10	1	-1E+10	1	-1E+10	1	-1E+10	1	-1E+10	1	-1E+10	1
4902554	71	C	01/23/2023	15:54	-132.911	48.387	0	320.90	0	4.3780	0	33.8720	0	26.852	0	317.949	0	-1e10	8	-1e10	8	-1E+10	1	-1E+10	1	-1E+10	1	-1E+10	1	-1E+10	1	-1E+10	1
4902554	71	C	01/23/2023	15:54	-132.911	48.387	0	322.40	0	4.3680	0	33.8770	0	26.857	0	319.434	0	-1e10	8	-1e10	8	-1E+10	1	-1E+10	1	-1E+10	1	-1E+10	1	-1E+10	1	-1E+10	1
4902554	71	C	01/23/2023	15:54	-132.911	48.387	0	323.40	0	4.3650	0	33.8800	0	26.860	0	320.424	0	-1e10	8	-1e10	8	-1E+10	1	-1E+10	1	-1E+10	1	-1E+10	1	-1E+10	1	-1E+10	1
4902554	71	C	01/23/2023	15:54	-132.911	48.387	0	324.30	0	4.3620	0	33.8830	0	26.863	0	321.315	0	-1e10	8	-1e10	8	-1E+10	1	-1E+10	1	-1E+10	1	-1E+10	1	-1E+10	1	-1E+10	1
4902554	71	C	01/23/2023	15:54	-132.911	48.387	0	325.30	0	4.3610	0	33.8830	0	26.863	0	322.305	0	-1e10	8	-1e10	8	-1E+10	1	-1E+10	1	-1E+10	1	-1E+10	1	-1E+10	1	-1E+10	1
4902554	71	C	01/23/2023	15:54	-132.911	48.387	0	326.20	0	4.3520	0	33.8870	0	26.867	0	323.196	0	-1e10	8	-1e10	8	-1E+10	1	-1E+10	1	-1E+10	1	-1E+10	1	-1E+10	1	-1E+10	1
4902554	71	C	01/23/2023	15:54	-132.911	48.387	0	327.20	0	4.3470	0	33.8890	0	26.869	0	324.186	0	-1e10	8	-1e10	8	-1E+10	1	-1E+10	1	-1E+10	1	-1E+10	1	-1E+10	1	-1E+10	1
4902554	71	C	01/23/2023	15:54	-132.911	48.387	0	328.20	0	4.3460	0	33.8890	0	26.869	0	325.176	0	-1e10	8	-1e10	8	-1E+10	1	-1E+10	1	-1E+10	1	-1E+10	1	-1E+10	1	-1E+10	1
4902554	71	C	01/23/2023	15:54	-132.911	48.387	0	329.10	0	4.3450	0	33.8890	0	26.869	0	326.067	0	-1e10	8	-1e10	8	-1E+10	1	-1E+10	1	-1E+10	1	-1E+10	1	-1E+10	1	-1E+10	1
4902554	71	C	01/23/2023	15:54	-132.911	48.387	0	330.10	0	4.3440	0	33.8900	0	26.870	0	327.057	0	-1e10	8	-1e10	8	-1E+10	1	-1E+10	1	-1E+10	1	-1E+10	1	-1E+10	1	-1E+10	1
4902554	71	C	01/23/2023	15:54	-132.911	48.387	0	331.10	0	4.3420	0	33.8910	0	26.871	0	328.047	0	-1e10	8	-1e10	8	-1E+10	1	-1E+10	1	-1E+10	1	-1E+10	1	-1E+10	1	-1E+10	1
4902554	71	C	01/23/2023	15:54	-132.911	48.387	0	332.00	0	4.3380	0	33.8920	0	26.872	0	328.938	0	-1e10	8	-1e10	8	-1E+10	1	-1E+10	1	-1E+10	1	-1E+10	1	-1E+10	1	-1E+10	1
4902554	71	C	01/23/2023	15:54	-132.911	48.387	0	333.00	0	4.3360	0	33.8930	0	26.873	0	329.928	0	-1e10	8	-1e10	8	-1E+10	1	-1E+10	1	-1E+10	1	-1E+10	1	-1E+10	1	-1E+10	1
4902554	71	C	01/23/2023	15:54	-132.911	48.387	0	333.90	0	4.3340	0	33.8940	0	26.874	0	330.819	0	-1e10	8	-1e10	8	-1E+10	1	-1E+10	1	-1E+10	1	-1E+10	1	-1E+10	1	-1E+10	1
4902554	71	C	01/23/2023	15:54	-132.911	48.387	0	334.90	0	4.3290	0	33.8950	0	26.876	0	331.809	0	-1e10	8	-1e10	8	-1E+10	1	-1E+10	1	-1E+10	1	-1E+10	1	-1E+10	1	-1E+10	1
4902554	71	C	01/23/2023	15:54	-132.911	48.387	0	335.80	0	4.3250	0	33.8970	0	26.878	0	332.700	0	-1e10	8	-1e10	8	-1E+10	1	-1E+10	1	-1E+10	1	-1E+10	1	-1E+10	1	-1E+10	1
4902554	71	C	01/23/2023	15:54	-132.911	48.387	0	336.80	0	4.3230	0	33.8970	0	26.878	0	333.690	0	-1e10	8	-1e10	8	-1E+10	1	-1E+10	1	-1E+10	1	-1E+10	1	-1E+10	1	-1E+10	1
4902554	71	C	01/23/2023	15:54	-132.911	48.387	0	337.70	0	4.3210	0	33.8980	0	26.879	0	334.581	0	-1e10	8	-1e10	8	-1E+10	1	-1E+10	1	-1E+10	1	-1E+10	1	-1E+10	1	-1E+10	1
4902554	71	C	01/23/2023	15:54	-132.911	48.387	0	338.70	0	4.3210	0	33.8980	0	26.879	0	335.571	0	-1e10	8	-1e10	8	-1E+10	1	-1E+10	1	-1E+10	1	-1E+10	1	-1E+10	1	-1E+10	1
4902554	71	C	01/23/2023	15:54	-132.911	48.387	0	339.60	0	4.3170	0	33.9000	0	26.881	0	336.462	0	-1e10	8	-1e10	8	-1E+10	1	-1E+10	1	-1E+10	1	-1E+10	1	-1E+10	1	-1E+10	1
4902554	71	C	01/23/2023	15:54	-132.911	48.387	0	340.60	0	4.3150	0	33.9000	0	26.881	0	337.452	0	-1e10	8	-1e10	8	-1E+10	1	-1E+10	1	-1E+10	1	-1E+10	1	-1E+10	1	-1E+10	1
4902554	71	C	01/23/2023	15:54	-132.911	48.387	0	341.50	0	4.3130	0	33.9010	0	26.882	0	338.343	0	-1e10	8	-1e10	8	-1E+10	1	-1E+10	1	-1E+10	1	-1E+10	1	-1E+10	1	-1E+10	1
4902554	71	C	01/23/2023	15:54	-132.911	48.387	0	342.50	0	4.3050	0	33.9040	0	26.885	0	339.333	0	-1e10	8	-1e10	8	-1E+10	1	-1E+10	1	-1E+10	1	-1E+10	1	-1E+10	1	-1E+10	1
4902554	71	C	01/23/2023	15:54	-132.911	48.387	0	343.90	0	4.3020	0	33.9050	0	26.886	0	340.719	0	-1e10	8	-1e10	8	-1E+10	1	-1E+10	1	-1E+10	1	-1E+10	1	-1E+10	1	-1E+10	1
4902554	71	C	01/23/2023	15:54	-132.911	48.387	0	345.40	0	4.3000	0	33.9050	0	26.887	0	342.203	0	-1e10	8	-1e10	8	-1E+10	1	-1E+10	1	-1E+10	1	-1E+10	1	-1E+10	1	-1E+10	1
4902554	71	C	01/23/2023	15:54	-132.911	48.387	0	346.30	0	4.2970	0	33.9070	0	26.889	0	343.094	0	-1e10	8	-1e10	8	-1E+10	1	-1E+10	1	-1E+10	1	-1E+10	1	-1E+10	1	-1E+10	1
4902554	71	C	01/23/2023	15:54	-132.911	48.387	0	347.30	0	4.2910	0	33.9090	0	26.891	0	344.084	0	-1e10	8	-1e10	8	-1E+10	1	-1E+10	1	-1E+10	1	-1E+10	1	-1E+10	1	-1E+10	1
4902554	71	C	01/23/2023	15:54	-132.911	48.387	0	348.30	0	4.2880	0	33.9110	0	26.893	0	345.074	0	-1e10	8	-1e10	8	-1E+10	1	-1E+10	1	-1E+10	1	-1E+10	1	-1E+10	1	-1E+10	1
4902554	71	C	01/23/2023	15:54	-132.911	48.387	0	349.20	0	4.2870	0	33.9110	0	26.893	0	345.965	0	-1e10	8	-1e10	8	-1E+10	1	-1E+10	1	-1E+10	1	-1E+10	1	-1E+10	1	-1E+10	1
4902554	71	C	01/23/2023	15:54	-132.911	48.387	0	350.20	0	4.2850	0	33.9130	0	26.895	0	346.955	0	-1e10	8	-1e10	8	-1E+10	1	-1E+10	1	-1E+10	1	-1E+10	1	-1E+10	1	-1E+10	1
4902554	71	C	01/23/2023	15:54	-132.911	48.387	0	353.10	0	4.2810	0	33.9150	0	26.897	0	349.826	0	-1e10	8	-1e10	8	-1E+10	1	-1E+10	1	-1E+10	1	-1E+10	1	-1E+10	1	-1E+10	1
4902554	71	C	01/23/2023	15:54	-132.911	48.387	0	357.90	0	4.2720	0	33.9230	0	26.904	0	354.577	0	-1e10	8	-1e10	8	-1E+10	1	-1E+10	1	-1E+10	1	-1E+10	1	-1E+10	1	-1E+10	1
4902554	71	C	01/23/2023	15:54	-132.911	48.387	0	362.80	0	4.2570	0	33.9350	0	26.915	0	359.427	0	-1e10	8	-1e10	8	-1E+10	1	-1E+10	1	-1E+10	1	-1E+10	1	-1E+10	1	-1E+10	1
4902554	71	C	01/23/2023	15:54	-132.911	48.387	0	367.70	0	4.2460	0	33.9430	0	26.923	0	364.277	0	-1e10	8	-1e10	8	-1E+10	1	-1E+10	1	-1E+10	1	-1E+10	1	-1E+10	1	-1E+10	1
4902554	71	C	01/23/2023	15:54	-132.911	48.387	0	373.00	0	4.2380	0	33.9500	0	26.929	0	369.523	0	-1e10	8	-1e10	8	-1E+10	1	-1E+10	1	-1E+10	1	-1E+10	1	-1E+10	1	-1E+10	1
4902554	71	C	01/23/2023	15:54	-132.911	48.387	0	377.80	0	4.2310	0	33.9570	0	26.935	0	374.274	0	-1e10	8	-1e10	8	-1E+10	1	-1E+10	1	-1E+10	1	-1E+10	1	-1E+10	1	-1E+10	1
4902554	71	C	01/23/2023	15:54	-132.911	48.387	0	382.80	0	4.2210	0	33.9650	0	26.943	0	379.223	0	-1e10	8	-1e10	8	-1E+10	1	-1E+10	1	-1E+10	1	-1E+10	1	-1E+10	1	-1E+10	1
4902554	71	C	01/23/2023	15:54	-132.911	48.387	0	388.00	0	4.2100	0	33.9740	0	26.951	0	384.370	0	-1e10	8	-1e10	8	-1E+10	1	-1E+10	1	-1E+10	1	-1E+10	1	-1E+10	1	-1E+10	1
4902554	71	C	01/23/2023	15:54	-132.911	48.387	0	393.00	0	4.2040	0	33.9790	0	26.956	0	389.318	0	-1e10	8	-1e10	8	-1E+10	1	-1E+10	1	-1E+10	1	-1E+10	1	-1E+10	1	-1E+10	1
4902554	71	C	01/23/2023	15:54	-132.911	48.387	0	397.70	0	4.2010	0	33.9830	0	26.959	0	393.970	0	-1e10	8	-1e10	8	-1E+10	1	-1E+10	1	-1E+10	1	-1E+10	1	-1E+10	1	-1E+10	1
4902554	71	C	01/23/2023	15:54	-132.911	48.387	0	402.90	0	4.1940	0	33.9890	0	26.965	0	399.116	0	-1e10	8	-1e10	8	-1E+10	1	-1E+10	1	-1E+10	1	-1E+10	1	-1E+10	1	-1E+10	1
4902554	71	C	01/23/2023	15:54	-132.911	48.387	0	408.20	0	4.1900	0	33.9930	0	26.969	0	404.361	0	-1e10	8	-1e10	8	-1E+10	1	-1E+10	1	-1E+10	1	-1E+10	1	-1E+10	1	-1E+10	1
4902554	71	C	01/23/2023	15:54	-132.911	48.387	0	413.00	0	4.1850	0	33.9990	0	26.974	0	409.111	0	-1e10	8	-1e10	8	-1E+10	1	-1E+10	1	-1E+10	1	-1E+10	1	-1E+10	1	-1E+10	1
4902554	71	C	01/23/2023	15:54	-132.911	48.387	0	417.90	0	4.1800	0	34.0040	0	26.978	0	413.960	0	-1e10	8	-1e10	8	-1E+10	1	-1E+10	1	-1E+10	1	-1E+10	1	-1E+10	1	-1E+10	1
4902554	71	C	01/23/2023	15:54	-132.911	48.387	0	422.80	0	4.1750	0	34.0100	0	26.984	0	418.809	0	-1e10	8	-1e10	8	-1E+10	1	-1E+10	1	-1E+10	1	-1E+10	1	-1E+10	1	-1E+10	1
4902554	71	C	01/23/2023	15:54	-132.911	48.387	0	427.80	0	4.1690	0	34.0130	0	26.987	0	423.757	0	-1e10	8	-1e10	8	-1E+10	1	-1E+10	1	-1E+10	1	-1E+10	1	-1E+10	1	-1E+10	1
4902554	71	C	01/23/2023	15:54	-132.911	48.387	0	432.90	0	4.1630	0	34.0180	0	26.991	0	428.803	0	-1e10	8	-1e10	8	-1E+10	1	-1E+10	1	-1E+10	1	-1E+10	1	-1E+10	1	-1E+10	1
4902554	71	C	01/23/2023	15:54	-132.911	48.387	0	437.90	0	4.1580	0	34.0220	0	26.995	0	433.751	0	-1e10	8	-1e10	8	-1E+10	1	-1E+10	1	-1E+10	1	-1E+10	1	-1E+10	1	-1E+10	1
4902554	71	C	01/23/2023	15:54	-132.911	48.387	0	443.10	0	4.1500	0	34.0280	0	27.001	0	438.896	0	-1e10	8	-1e10	8	-1E+10	1	-1E+10	1	-1E+10	1	-1E+10	1	-1E+10	1	-1E+10	1
4902554	71	C	01/23/2023	15:54	-132.911	48.387	0	447.90	0	4.1460	0	34.0300	0	27.003	0	443.645	0	-1e10	8	-1e10	8	-1E+10	1	-1E+10	1	-1E+10	1	-1E+10	1	-1E+10	1	-1E+10	1
4902554	71	C	01/23/2023	15:54	-132.911	48.387	0	452.60	0	4.1450	0	34.0310	0	27.004	0	448.296	0	-1e10	8	-1e10	8	-1E+10	1	-1E+10	1	-1E+10	1	-1E+10	1	-1E+10	1	-1E+10	1
4902554	71	C	01/23/2023	15:54	-132.911	48.387	0	457.90	0	4.1420	0	34.0320	0	27.005	0	453.539	0	-1e10	8	-1e10	8	-1E+10	1	-1E+10	1	-1E+10	1	-1E+10	1	-1E+10	1	-1E+10	1
4902554	71	C	01/23/2023	15:54	-132.911	48.387	0	463.20	0	4.1330	0	34.0370	0	27.010	0	458.783	0	-1e10	8	-1e10	8	-1E+10	1	-1E+10	1	-1E+10	1	-1E+10	1	-1E+10	1	-1E+10	1
4902554	71	C	01/23/2023	15:54	-132.911	48.387	0	468.00	0	4.1220	0	34.0410	0	27.014	0	463.532	0	-1e10	8	-1e10	8	-1E+10	1	-1E+10	1	-1E+10	1	-1E+10	1	-1E+10	1	-1E+10	1
4902554	71	C	01/23/2023	15:54	-132.911	48.387	0	473.00	0	4.1190	0	34.0470	0	27.019	0	468.479	0	-1e10	8	-1e10	8	-1E+10	1	-1E+10	1	-1E+10	1	-1E+10	1	-1E+10	1	-1E+10	1
4902554	71	C	01/23/2023	15:54	-132.911	48.387	0	477.90	0	4.1090	0	34.0510	0	27.024	0	473.326	0	-1e10	8	-1e10	8	-1E+10	1	-1E+10	1	-1E+10	1	-1E+10	1	-1E+10	1	-1E+10	1
4902554	71	C	01/23/2023	15:54	-132.911	48.387	0	482.90	0	4.0880	0	34.0560	0	27.030	0	478.273	0	-1e10	8	-1e10	8	-1E+10	1	-1E+10	1	-1E+10	1	-1E+10	1	-1E+10	1	-1E+10	1
4902554	71	C	01/23/2023	15:54	-132.911	48.387	0	487.80	0	4.0820	0	34.0590	0	27.033	0	483.120	0	-1e10	8	-1e10	8	-1E+10	1	-1E+10	1	-1E+10	1	-1E+10	1	-1E+10	1	-1E+10	1
4902554	71	C	01/23/2023	15:54	-132.911	48.387	0	492.80	0	4.0770	0	34.0610	0	27.035	0	488.066	0	-1e10	8	-1e10	8	-1E+10	1	-1E+10	1	-1E+10	1	-1E+10	1	-1E+10	1	-1E+10	1
4902554	71	C	01/23/2023	15:54	-132.911	48.387	0	498.20	0	4.0720	0	34.0640	0	27.038	0	493.408	0	-1e10	8	-1e10	8	-1E+10	1	-1E+10	1	-1E+10	1	-1E+10	1	-1E+10	1	-1E+10	1
4902554	71	C	01/23/2023	15:54	-132.911	48.387	0	503.00	0	4.0650	0	34.0670	0	27.041	0	498.156	0	-1e10	8	-1e10	8	-1E+10	1	-1E+10	1	-1E+10	1	-1E+10	1	-1E+10	1	-1E+10	1
4902554	71	C	01/23/2023	15:54	-132.911	48.387	0	507.80	0	4.0620	0	34.0700	0	27.044	0	502.904	0	-1e10	8	-1e10	8	-1E+10	1	-1E+10	1	-1E+10	1	-1E+10	1	-1E+10	1	-1E+10	1
4902554	71	C	01/23/2023	15:54	-132.911	48.387	0	513.10	0	4.0550	0	34.0730	0	27.047	0	508.146	0	-1e10	8	-1e10	8	-1E+10	1	-1E+10	1	-1E+10	1	-1E+10	1	-1E+10	1	-1E+10	1
4902554	71	C	01/23/2023	15:54	-132.911	48.387	0	518.30	0	4.0480	0	34.0760	0	27.050	0	513.290	0	-1e10	8	-1e10	8	-1E+10	1	-1E+10	1	-1E+10	1	-1E+10	1	-1E+10	1	-1E+10	1
4902554	71	C	01/23/2023	15:54	-132.911	48.387	0	522.90	0	4.0400	0	34.0820	0	27.056	0	517.839	0	-1e10	8	-1e10	8	-1E+10	1	-1E+10	1	-1E+10	1	-1E+10	1	-1E+10	1	-1E+10	1
4902554	71	C	01/23/2023	15:54	-132.911	48.387	0	527.60	0	4.0330	0	34.0870	0	27.060	0	522.488	0	-1e10	8	-1e10	8	-1E+10	1	-1E+10	1	-1E+10	1	-1E+10	1	-1E+10	1	-1E+10	1
4902554	71	C	01/23/2023	15:54	-132.911	48.387	0	532.70	0	4.0220	0	34.0920	0	27.066	0	527.532	0	-1e10	8	-1e10	8	-1E+10	1	-1E+10	1	-1E+10	1	-1E+10	1	-1E+10	1	-1E+10	1
4902554	71	C	01/23/2023	15:54	-132.911	48.387	0	537.80	0	4.0080	0	34.1010	0	27.074	0	532.576	0	-1e10	8	-1e10	8	-1E+10	1	-1E+10	1	-1E+10	1	-1E+10	1	-1E+10	1	-1E+10	1
4902554	71	C	01/23/2023	15:54	-132.911	48.387	0	543.00	0	3.9920	0	34.1070	0	27.081	0	537.719	0	-1e10	8	-1e10	8	-1E+10	1	-1E+10	1	-1E+10	1	-1E+10	1	-1E+10	1	-1E+10	1
4902554	71	C	01/23/2023	15:54	-132.911	48.387	0	547.80	0	3.9680	0	34.1180	0	27.092	0	542.466	0	-1e10	8	-1e10	8	-1E+10	1	-1E+10	1	-1E+10	1	-1E+10	1	-1E+10	1	-1E+10	1
4902554	71	C	01/23/2023	15:54	-132.911	48.387	0	553.00	0	3.9550	0	34.1230	0	27.097	0	547.608	0	-1e10	8	-1e10	8	-1E+10	1	-1E+10	1	-1E+10	1	-1E+10	1	-1E+10	1	-1E+10	1
4902554	71	C	01/23/2023	15:54	-132.911	48.387	0	558.20	0	3.9450	0	34.1280	0	27.102	0	552.751	0	-1e10	8	-1e10	8	-1E+10	1	-1E+10	1	-1E+10	1	-1E+10	1	-1E+10	1	-1E+10	1
4902554	71	C	01/23/2023	15:54	-132.911	48.387	0	563.10	0	3.9430	0	34.1290	0	27.103	0	557.596	0	-1e10	8	-1e10	8	-1E+10	1	-1E+10	1	-1E+10	1	-1E+10	1	-1E+10	1	-1E+10	1
4902554	71	C	01/23/2023	15:54	-132.911	48.387	0	568.20	0	3.9360	0	34.1320	0	27.106	0	562.640	0	-1e10	8	-1e10	8	-1E+10	1	-1E+10	1	-1E+10	1	-1E+10	1	-1E+10	1	-1E+10	1
4902554	71	C	01/23/2023	15:54	-132.911	48.387	0	572.90	0	3.9290	0	34.1350	0	27.110	0	567.287	0	-1e10	8	-1e10	8	-1E+10	1	-1E+10	1	-1E+10	1	-1E+10	1	-1E+10	1	-1E+10	1
4902554	71	C	01/23/2023	15:54	-132.911	48.387	0	577.80	0	3.9240	0	34.1360	0	27.111	0	572.133	0	-1e10	8	-1e10	8	-1E+10	1	-1E+10	1	-1E+10	1	-1E+10	1	-1E+10	1	-1E+10	1
4902554	71	C	01/23/2023	15:54	-132.911	48.387	0	583.10	0	3.9030	0	34.1440	0	27.119	0	577.373	0	-1e10	8	-1e10	8	-1E+10	1	-1E+10	1	-1E+10	1	-1E+10	1	-1E+10	1	-1E+10	1
4902554	71	C	01/23/2023	15:54	-132.911	48.387	0	588.10	0	3.8960	0	34.1470	0	27.123	0	582.317	0	-1e10	8	-1e10	8	-1E+10	1	-1E+10	1	-1E+10	1	-1E+10	1	-1E+10	1	-1E+10	1
4902554	71	C	01/23/2023	15:54	-132.911	48.387	0	592.90	0	3.8850	0	34.1500	0	27.126	0	587.063	0	-1e10	8	-1e10	8	-1E+10	1	-1E+10	1	-1E+10	1	-1E+10	1	-1E+10	1	-1E+10	1
4902554	71	C	01/23/2023	15:54	-132.911	48.387	0	598.00	0	3.8730	0	34.1550	0	27.131	0	592.106	0	-1e10	8	-1e10	8	-1E+10	1	-1E+10	1	-1E+10	1	-1E+10	1	-1E+10	1	-1E+10	1
4902554	71	C	01/23/2023	15:54	-132.911	48.387	0	602.90	0	3.8690	0	34.1560	0	27.133	0	596.950	0	-1e10	8	-1e10	8	-1E+10	1	-1E+10	1	-1E+10	1	-1E+10	1	-1E+10	1	-1E+10	1
4902554	71	C	01/23/2023	15:54	-132.911	48.387	0	608.10	0	3.8560	0	34.1610	0	27.138	0	602.092	0	-1e10	8	-1e10	8	-1E+10	1	-1E+10	1	-1E+10	1	-1E+10	1	-1E+10	1	-1E+10	1
4902554	71	C	01/23/2023	15:54	-132.911	48.387	0	612.80	0	3.8350	0	34.1680	0	27.146	0	606.738	0	-1e10	8	-1e10	8	-1E+10	1	-1E+10	1	-1E+10	1	-1E+10	1	-1E+10	1	-1E+10	1
4902554	71	C	01/23/2023	15:54	-132.911	48.387	0	617.60	0	3.8180	0	34.1720	0	27.150	0	611.484	0	-1e10	8	-1e10	8	-1E+10	1	-1E+10	1	-1E+10	1	-1E+10	1	-1E+10	1	-1E+10	1
4902554	71	C	01/23/2023	15:54	-132.911	48.387	0	622.80	0	3.8070	0	34.1770	0	27.156	0	616.625	0	-1e10	8	-1e10	8	-1E+10	1	-1E+10	1	-1E+10	1	-1E+10	1	-1E+10	1	-1E+10	1
4902554	71	C	01/23/2023	15:54	-132.911	48.387	0	628.20	0	3.7950	0	34.1810	0	27.160	0	621.963	0	-1e10	8	-1e10	8	-1E+10	1	-1E+10	1	-1E+10	1	-1E+10	1	-1E+10	1	-1E+10	1
4902554	71	C	01/23/2023	15:54	-132.911	48.387	0	633.20	0	3.7820	0	34.1850	0	27.164	0	626.906	0	-1e10	8	-1e10	8	-1E+10	1	-1E+10	1	-1E+10	1	-1E+10	1	-1E+10	1	-1E+10	1
4902554	71	C	01/23/2023	15:54	-132.911	48.387	0	638.20	0	3.7660	0	34.1900	0	27.170	0	631.849	0	-1e10	8	-1e10	8	-1E+10	1	-1E+10	1	-1E+10	1	-1E+10	1	-1E+10	1	-1E+10	1
4902554	71	C	01/23/2023	15:54	-132.911	48.387	0	643.30	0	3.7500	0	34.1950	0	27.176	0	636.890	0	-1e10	8	-1e10	8	-1E+10	1	-1E+10	1	-1E+10	1	-1E+10	1	-1E+10	1	-1E+10	1
4902554	71	C	01/23/2023	15:54	-132.911	48.387	0	648.00	0	3.7350	0	34.1990	0	27.180	0	641.536	0	-1e10	8	-1e10	8	-1E+10	1	-1E+10	1	-1E+10	1	-1E+10	1	-1E+10	1	-1E+10	1
4902554	71	C	01/23/2023	15:54	-132.911	48.387	0	652.70	0	3.7250	0	34.2020	0	27.184	0	646.182	0	-1e10	8	-1e10	8	-1E+10	1	-1E+10	1	-1E+10	1	-1E+10	1	-1E+10	1	-1E+10	1
4902554	71	C	01/23/2023	15:54	-132.911	48.387	0	658.10	0	3.7220	0	34.2040	0	27.186	0	651.519	0	-1e10	8	-1e10	8	-1E+10	1	-1E+10	1	-1E+10	1	-1E+10	1	-1E+10	1	-1E+10	1
4902554	71	C	01/23/2023	15:54	-132.911	48.387	0	662.90	0	3.7190	0	34.2050	0	27.187	0	656.264	0	-1e10	8	-1e10	8	-1E+10	1	-1E+10	1	-1E+10	1	-1E+10	1	-1E+10	1	-1E+10	1
4902554	71	C	01/23/2023	15:54	-132.911	48.387	0	667.80	0	3.7120	0	34.2070	0	27.189	0	661.107	0	-1e10	8	-1e10	8	-1E+10	1	-1E+10	1	-1E+10	1	-1E+10	1	-1E+10	1	-1E+10	1
4902554	71	C	01/23/2023	15:54	-132.911	48.387	0	673.20	0	3.7040	0	34.2100	0	27.192	0	666.444	0	-1e10	8	-1e10	8	-1E+10	1	-1E+10	1	-1E+10	1	-1E+10	1	-1E+10	1	-1E+10	1
4902554	71	C	01/23/2023	15:54	-132.911	48.387	0	678.10	0	3.6960	0	34.2110	0	27.194	0	671.287	0	-1e10	8	-1e10	8	-1E+10	1	-1E+10	1	-1E+10	1	-1E+10	1	-1E+10	1	-1E+10	1
4902554	71	C	01/23/2023	15:54	-132.911	48.387	0	683.00	0	3.6850	0	34.2150	0	27.198	0	676.130	0	-1e10	8	-1e10	8	-1E+10	1	-1E+10	1	-1E+10	1	-1E+10	1	-1E+10	1	-1E+10	1
4902554	71	C	01/23/2023	15:54	-132.911	48.387	0	687.90	0	3.6740	0	34.2180	0	27.202	0	680.973	0	-1e10	8	-1e10	8	-1E+10	1	-1E+10	1	-1E+10	1	-1E+10	1	-1E+10	1	-1E+10	1
4902554	71	C	01/23/2023	15:54	-132.911	48.387	0	692.90	0	3.6580	0	34.2220	0	27.207	0	685.914	0	-1e10	8	-1e10	8	-1E+10	1	-1E+10	1	-1E+10	1	-1E+10	1	-1E+10	1	-1E+10	1
4902554	71	C	01/23/2023	15:54	-132.911	48.387	0	697.80	0	3.6410	0	34.2270	0	27.212	0	690.757	0	-1e10	8	-1e10	8	-1E+10	1	-1E+10	1	-1E+10	1	-1E+10	1	-1E+10	1	-1E+10	1
4902554	71	C	01/23/2023	15:54	-132.911	48.387	0	702.80	0	3.6350	0	34.2280	0	27.214	0	695.698	0	-1e10	8	-1e10	8	-1E+10	1	-1E+10	1	-1E+10	1	-1E+10	1	-1E+10	1	-1E+10	1
4902554	71	C	01/23/2023	15:54	-132.911	48.387	0	707.90	0	3.6240	0	34.2310	0	27.217	0	700.738	0	-1e10	8	-1e10	8	-1E+10	1	-1E+10	1	-1E+10	1	-1E+10	1	-1E+10	1	-1E+10	1
4902554	71	C	01/23/2023	15:54	-132.911	48.387	0	713.00	0	3.6170	0	34.2330	0	27.219	0	705.777	0	-1e10	8	-1e10	8	-1E+10	1	-1E+10	1	-1E+10	1	-1E+10	1	-1E+10	1	-1E+10	1
4902554	71	C	01/23/2023	15:54	-132.911	48.387	0	717.90	0	3.6150	0	34.2340	0	27.221	0	710.620	0	-1e10	8	-1e10	8	-1E+10	1	-1E+10	1	-1E+10	1	-1E+10	1	-1E+10	1	-1E+10	1
4902554	71	C	01/23/2023	15:54	-132.911	48.387	0	722.90	0	3.6070	0	34.2360	0	27.223	0	715.560	0	-1e10	8	-1e10	8	-1E+10	1	-1E+10	1	-1E+10	1	-1E+10	1	-1E+10	1	-1E+10	1
4902554	71	C	01/23/2023	15:54	-132.911	48.387	0	727.90	0	3.5870	0	34.2410	0	27.229	0	720.501	0	-1e10	8	-1e10	8	-1E+10	1	-1E+10	1	-1E+10	1	-1E+10	1	-1E+10	1	-1E+10	1
4902554	71	C	01/23/2023	15:54	-132.911	48.387	0	732.90	0	3.5730	0	34.2450	0	27.233	0	725.441	0	-1e10	8	-1e10	8	-1E+10	1	-1E+10	1	-1E+10	1	-1E+10	1	-1E+10	1	-1E+10	1
4902554	71	C	01/23/2023	15:54	-132.911	48.387	0	737.90	0	3.5700	0	34.2450	0	27.234	0	730.382	0	-1e10	8	-1e10	8	-1E+10	1	-1E+10	1	-1E+10	1	-1E+10	1	-1E+10	1	-1E+10	1
4902554	71	C	01/23/2023	15:54	-132.911	48.387	0	742.90	0	3.5610	0	34.2480	0	27.237	0	735.322	0	-1e10	8	-1e10	8	-1E+10	1	-1E+10	1	-1E+10	1	-1E+10	1	-1E+10	1	-1E+10	1
4902554	71	C	01/23/2023	15:54	-132.911	48.387	0	748.20	0	3.5440	0	34.2520	0	27.242	0	740.558	0	-1e10	8	-1e10	8	-1E+10	1	-1E+10	1	-1E+10	1	-1E+10	1	-1E+10	1	-1E+10	1
4902554	71	C	01/23/2023	15:54	-132.911	48.387	0	753.00	0	3.5330	0	34.2550	0	27.245	0	745.301	0	-1e10	8	-1e10	8	-1E+10	1	-1E+10	1	-1E+10	1	-1E+10	1	-1E+10	1	-1E+10	1
4902554	71	C	01/23/2023	15:54	-132.911	48.387	0	757.60	0	3.5080	0	34.2600	0	27.252	0	749.846	0	-1e10	8	-1e10	8	-1E+10	1	-1E+10	1	-1E+10	1	-1E+10	1	-1E+10	1	-1E+10	1
4902554	71	C	01/23/2023	15:54	-132.911	48.387	0	762.80	0	3.4880	0	34.2660	0	27.259	0	754.983	0	-1e10	8	-1e10	8	-1E+10	1	-1E+10	1	-1E+10	1	-1E+10	1	-1E+10	1	-1E+10	1
4902554	71	C	01/23/2023	15:54	-132.911	48.387	0	768.00	0	3.4760	0	34.2700	0	27.263	0	760.120	0	-1e10	8	-1e10	8	-1E+10	1	-1E+10	1	-1E+10	1	-1E+10	1	-1E+10	1	-1E+10	1
4902554	71	C	01/23/2023	15:54	-132.911	48.387	0	773.00	0	3.4650	0	34.2730	0	27.266	0	765.060	0	-1e10	8	-1e10	8	-1E+10	1	-1E+10	1	-1E+10	1	-1E+10	1	-1E+10	1	-1E+10	1
4902554	71	C	01/23/2023	15:54	-132.911	48.387	0	778.00	0	3.4560	0	34.2750	0	27.269	0	769.999	0	-1e10	8	-1e10	8	-1E+10	1	-1E+10	1	-1E+10	1	-1E+10	1	-1E+10	1	-1E+10	1
4902554	71	C	01/23/2023	15:54	-132.911	48.387	0	782.90	0	3.4500	0	34.2770	0	27.271	0	774.840	0	-1e10	8	-1e10	8	-1E+10	1	-1E+10	1	-1E+10	1	-1E+10	1	-1E+10	1	-1E+10	1
4902554	71	C	01/23/2023	15:54	-132.911	48.387	0	787.90	0	3.4380	0	34.2800	0	27.275	0	779.779	0	-1e10	8	-1e10	8	-1E+10	1	-1E+10	1	-1E+10	1	-1E+10	1	-1E+10	1	-1E+10	1
4902554	71	C	01/23/2023	15:54	-132.911	48.387	0	793.10	0	3.4190	0	34.2840	0	27.280	0	784.915	0	-1e10	8	-1e10	8	-1E+10	1	-1E+10	1	-1E+10	1	-1E+10	1	-1E+10	1	-1E+10	1
4902554	71	C	01/23/2023	15:54	-132.911	48.387	0	797.90	0	3.4120	0	34.2860	0	27.282	0	789.657	0	-1e10	8	-1e10	8	-1E+10	1	-1E+10	1	-1E+10	1	-1E+10	1	-1E+10	1	-1E+10	1
4902554	71	C	01/23/2023	15:54	-132.911	48.387	0	802.80	0	3.4020	0	34.2880	0	27.285	0	794.497	0	-1e10	8	-1e10	8	-1E+10	1	-1E+10	1	-1E+10	1	-1E+10	1	-1E+10	1	-1E+10	1
4902554	71	C	01/23/2023	15:54	-132.911	48.387	0	807.80	0	3.3950	0	34.2890	0	27.286	0	799.436	0	-1e10	8	-1e10	8	-1E+10	1	-1E+10	1	-1E+10	1	-1E+10	1	-1E+10	1	-1E+10	1
4902554	71	C	01/23/2023	15:54	-132.911	48.387	0	812.90	0	3.3850	0	34.2920	0	27.289	0	804.473	0	-1e10	8	-1e10	8	-1E+10	1	-1E+10	1	-1E+10	1	-1E+10	1	-1E+10	1	-1E+10	1
4902554	71	C	01/23/2023	15:54	-132.911	48.387	0	818.10	0	3.3710	0	34.2960	0	27.294	0	809.609	0	-1e10	8	-1e10	8	-1E+10	1	-1E+10	1	-1E+10	1	-1E+10	1	-1E+10	1	-1E+10	1
4902554	71	C	01/23/2023	15:54	-132.911	48.387	0	822.70	0	3.3640	0	34.2970	0	27.295	0	814.152	0	-1e10	8	-1e10	8	-1E+10	1	-1E+10	1	-1E+10	1	-1E+10	1	-1E+10	1	-1E+10	1
4902554	71	C	01/23/2023	15:54	-132.911	48.387	0	827.90	0	3.3550	0	34.2990	0	27.298	0	819.288	0	-1e10	8	-1e10	8	-1E+10	1	-1E+10	1	-1E+10	1	-1E+10	1	-1E+10	1	-1E+10	1
4902554	71	C	01/23/2023	15:54	-132.911	48.387	0	833.10	0	3.3360	0	34.3030	0	27.303	0	824.424	0	-1e10	8	-1e10	8	-1E+10	1	-1E+10	1	-1E+10	1	-1E+10	1	-1E+10	1	-1E+10	1
4902554	71	C	01/23/2023	15:54	-132.911	48.387	0	837.80	0	3.3130	0	34.3080	0	27.309	0	829.066	0	-1e10	8	-1e10	8	-1E+10	1	-1E+10	1	-1E+10	1	-1E+10	1	-1E+10	1	-1E+10	1
4902554	71	C	01/23/2023	15:54	-132.911	48.387	0	842.60	0	3.2890	0	34.3140	0	27.316	0	833.806	0	-1e10	8	-1e10	8	-1E+10	1	-1E+10	1	-1E+10	1	-1E+10	1	-1E+10	1	-1E+10	1
4902554	71	C	01/23/2023	15:54	-132.911	48.387	0	847.50	0	3.2760	0	34.3160	0	27.319	0	838.645	0	-1e10	8	-1e10	8	-1E+10	1	-1E+10	1	-1E+10	1	-1E+10	1	-1E+10	1	-1E+10	1
4902554	71	C	01/23/2023	15:54	-132.911	48.387	0	852.50	0	3.2580	0	34.3180	0	27.322	0	843.583	0	-1e10	8	-1e10	8	-1E+10	1	-1E+10	1	-1E+10	1	-1E+10	1	-1E+10	1	-1E+10	1
4902554	71	C	01/23/2023	15:54	-132.911	48.387	0	857.50	0	3.2510	0	34.3200	0	27.325	0	848.520	0	-1e10	8	-1e10	8	-1E+10	1	-1E+10	1	-1E+10	1	-1E+10	1	-1E+10	1	-1E+10	1
4902554	71	C	01/23/2023	15:54	-132.911	48.387	0	863.00	0	3.2420	0	34.3220	0	27.327	0	853.951	0	-1e10	8	-1e10	8	-1E+10	1	-1E+10	1	-1E+10	1	-1E+10	1	-1E+10	1	-1E+10	1
4902554	71	C	01/23/2023	15:54	-132.911	48.387	0	868.10	0	3.2320	0	34.3240	0	27.330	0	858.987	0	-1e10	8	-1e10	8	-1E+10	1	-1E+10	1	-1E+10	1	-1E+10	1	-1E+10	1	-1E+10	1
4902554	71	C	01/23/2023	15:54	-132.911	48.387	0	873.00	0	3.2270	0	34.3250	0	27.331	0	863.826	0	-1e10	8	-1e10	8	-1E+10	1	-1E+10	1	-1E+10	1	-1E+10	1	-1E+10	1	-1E+10	1
4902554	71	C	01/23/2023	15:54	-132.911	48.387	0	877.80	0	3.2160	0	34.3280	0	27.334	0	868.565	0	-1e10	8	-1e10	8	-1E+10	1	-1E+10	1	-1E+10	1	-1E+10	1	-1E+10	1	-1E+10	1
4902554	71	C	01/23/2023	15:54	-132.911	48.387	0	882.70	0	3.2130	0	34.3280	0	27.335	0	873.404	0	-1e10	8	-1e10	8	-1E+10	1	-1E+10	1	-1E+10	1	-1E+10	1	-1E+10	1	-1E+10	1
4902554	71	C	01/23/2023	15:54	-132.911	48.387	0	888.10	0	3.2030	0	34.3310	0	27.338	0	878.735	0	-1e10	8	-1e10	8	-1E+10	1	-1E+10	1	-1E+10	1	-1E+10	1	-1E+10	1	-1E+10	1
4902554	71	C	01/23/2023	15:54	-132.911	48.387	0	893.10	0	3.1990	0	34.3320	0	27.339	0	883.672	0	-1e10	8	-1e10	8	-1E+10	1	-1E+10	1	-1E+10	1	-1E+10	1	-1E+10	1	-1E+10	1
4902554	71	C	01/23/2023	15:54	-132.911	48.387	0	897.90	0	3.1930	0	34.3330	0	27.341	0	888.411	0	-1e10	8	-1e10	8	-1E+10	1	-1E+10	1	-1E+10	1	-1E+10	1	-1E+10	1	-1E+10	1
4902554	71	C	01/23/2023	15:54	-132.911	48.387	0	902.80	0	3.1880	0	34.3340	0	27.342	0	893.249	0	-1e10	8	-1e10	8	-1E+10	1	-1E+10	1	-1E+10	1	-1E+10	1	-1E+10	1	-1E+10	1
4902554	71	C	01/23/2023	15:54	-132.911	48.387	0	907.60	0	3.1750	0	34.3370	0	27.346	0	897.988	0	-1e10	8	-1e10	8	-1E+10	1	-1E+10	1	-1E+10	1	-1E+10	1	-1E+10	1	-1E+10	1
4902554	71	C	01/23/2023	15:54	-132.911	48.387	0	913.00	0	3.1640	0	34.3400	0	27.349	0	903.319	0	-1e10	8	-1e10	8	-1E+10	1	-1E+10	1	-1E+10	1	-1E+10	1	-1E+10	1	-1E+10	1
4902554	71	C	01/23/2023	15:54	-132.911	48.387	0	918.00	0	3.1580	0	34.3410	0	27.350	0	908.255	0	-1e10	8	-1e10	8	-1E+10	1	-1E+10	1	-1E+10	1	-1E+10	1	-1E+10	1	-1E+10	1
4902554	71	C	01/23/2023	15:54	-132.911	48.387	0	922.90	0	3.1480	0	34.3430	0	27.353	0	913.093	0	-1e10	8	-1e10	8	-1E+10	1	-1E+10	1	-1E+10	1	-1E+10	1	-1E+10	1	-1E+10	1
4902554	71	C	01/23/2023	15:54	-132.911	48.387	0	927.90	0	3.1420	0	34.3440	0	27.354	0	918.029	0	-1e10	8	-1e10	8	-1E+10	1	-1E+10	1	-1E+10	1	-1E+10	1	-1E+10	1	-1E+10	1
4902554	71	C	01/23/2023	15:54	-132.911	48.387	0	932.80	0	3.1370	0	34.3460	0	27.356	0	922.866	0	-1e10	8	-1e10	8	-1E+10	1	-1E+10	1	-1E+10	1	-1E+10	1	-1E+10	1	-1E+10	1
4902554	71	C	01/23/2023	15:54	-132.911	48.387	0	937.80	0	3.1330	0	34.3490	0	27.359	0	927.801	0	-1e10	8	-1e10	8	-1E+10	1	-1E+10	1	-1E+10	1	-1E+10	1	-1E+10	1	-1E+10	1
4902554	71	C	01/23/2023	15:54	-132.911	48.387	0	942.70	0	3.1300	0	34.3500	0	27.360	0	932.638	0	-1e10	8	-1e10	8	-1E+10	1	-1E+10	1	-1E+10	1	-1E+10	1	-1E+10	1	-1E+10	1
4902554	71	C	01/23/2023	15:54	-132.911	48.387	0	948.10	0	3.1180	0	34.3530	0	27.364	0	937.968	0	-1e10	8	-1e10	8	-1E+10	1	-1E+10	1	-1E+10	1	-1E+10	1	-1E+10	1	-1E+10	1
4902554	71	C	01/23/2023	15:54	-132.911	48.387	0	952.90	0	3.1110	0	34.3540	0	27.365	0	942.706	0	-1e10	8	-1e10	8	-1E+10	1	-1E+10	1	-1E+10	1	-1E+10	1	-1E+10	1	-1E+10	1
4902554	71	C	01/23/2023	15:54	-132.911	48.387	0	957.80	0	3.1090	0	34.3550	0	27.366	0	947.543	0	-1e10	8	-1e10	8	-1E+10	1	-1E+10	1	-1E+10	1	-1E+10	1	-1E+10	1	-1E+10	1
4902554	71	C	01/23/2023	15:54	-132.911	48.387	0	963.00	0	3.1030	0	34.3560	0	27.368	0	952.675	0	-1e10	8	-1e10	8	-1E+10	1	-1E+10	1	-1E+10	1	-1E+10	1	-1E+10	1	-1E+10	1
4902554	71	C	01/23/2023	15:54	-132.911	48.387	0	968.10	0	3.0940	0	34.3570	0	27.369	0	957.709	0	-1e10	8	-1e10	8	-1E+10	1	-1E+10	1	-1E+10	1	-1E+10	1	-1E+10	1	-1E+10	1
4902554	71	C	01/23/2023	15:54	-132.911	48.387	0	973.20	0	3.0820	0	34.3590	0	27.372	0	962.743	0	-1e10	8	-1e10	8	-1E+10	1	-1E+10	1	-1E+10	1	-1E+10	1	-1E+10	1	-1E+10	1
4902554	71	C	01/23/2023	15:54	-132.911	48.387	0	978.20	0	3.0700	0	34.3620	0	27.376	0	967.677	0	-1e10	8	-1e10	8	-1E+10	1	-1E+10	1	-1E+10	1	-1E+10	1	-1E+10	1	-1E+10	1
4902554	71	C	01/23/2023	15:54	-132.911	48.387	0	982.90	0	3.0640	0	34.3640	0	27.378	0	972.316	0	-1e10	8	-1e10	8	-1E+10	1	-1E+10	1	-1E+10	1	-1E+10	1	-1E+10	1	-1E+10	1
4902554	71	C	01/23/2023	15:54	-132.911	48.387	0	987.60	0	3.0620	0	34.3650	0	27.379	0	976.954	0	-1e10	8	-1e10	8	-1E+10	1	-1E+10	1	-1E+10	1	-1E+10	1	-1E+10	1	-1E+10	1
4902554	71	C	01/23/2023	15:54	-132.911	48.387	0	992.70	0	3.0600	0	34.3660	0	27.380	0	981.987	0	-1e10	8	-1e10	8	-1E+10	1	-1E+10	1	-1E+10	1	-1E+10	1	-1E+10	1	-1E+10	1
4902554	71	C	01/23/2023	15:54	-132.911	48.387	0	997.90	0	3.0580	0	34.3670	0	27.381	0	987.119	0	-1e10	8	-1e10	8	-1E+10	1	-1E+10	1	-1E+10	1	-1E+10	1	-1E+10	1	-1E+10	1
4902554	71	C	01/23/2023	15:54	-132.911	48.387	0	1005.50	0	3.0470	0	34.3700	0	27.384	0	994.619	0	-1e10	8	-1e10	8	-1E+10	1	-1E+10	1	-1E+10	1	-1E+10	1	-1E+10	1	-1E+10	1
4902554	71	C	01/23/2023	15:54	-132.911	48.387	0	1015.60	0	3.0190	0	34.3770	0	27.392	0	1004.585	0	-1e10	8	-1e10	8	-1E+10	1	-1E+10	1	-1E+10	1	-1E+10	1	-1E+10	1	-1E+10	1
4902554	71	C	01/23/2023	15:54	-132.911	48.387	0	1025.50	0	3.0070	0	34.3800	0	27.396	0	1014.354	0	-1e10	8	-1e10	8	-1E+10	1	-1E+10	1	-1E+10	1	-1E+10	1	-1E+10	1	-1E+10	1
4902554	71	C	01/23/2023	15:54	-132.911	48.387	0	1035.60	0	2.9960	0	34.3820	0	27.399	0	1024.320	0	-1e10	8	-1e10	8	-1E+10	1	-1E+10	1	-1E+10	1	-1E+10	1	-1E+10	1	-1E+10	1
4902554	71	C	01/23/2023	15:54	-132.911	48.387	0	1045.50	0	2.9780	0	34.3850	0	27.403	0	1034.087	0	-1e10	8	-1e10	8	-1E+10	1	-1E+10	1	-1E+10	1	-1E+10	1	-1E+10	1	-1E+10	1
4902554	71	C	01/23/2023	15:54	-132.911	48.387	0	1055.20	0	2.9700	0	34.3870	0	27.405	0	1043.657	0	-1e10	8	-1e10	8	-1E+10	1	-1E+10	1	-1E+10	1	-1E+10	1	-1E+10	1	-1E+10	1
4902554	71	C	01/23/2023	15:54	-132.911	48.387	0	1065.10	0	2.9550	0	34.3900	0	27.409	0	1053.424	0	-1e10	8	-1e10	8	-1E+10	1	-1E+10	1	-1E+10	1	-1E+10	1	-1E+10	1	-1E+10	1
4902554	71	C	01/23/2023	15:54	-132.911	48.387	0	1075.50	0	2.9290	0	34.3960	0	27.416	0	1063.684	0	-1e10	8	-1e10	8	-1E+10	1	-1E+10	1	-1E+10	1	-1E+10	1	-1E+10	1	-1E+10	1
4902554	71	C	01/23/2023	15:54	-132.911	48.387	0	1085.50	0	2.9070	0	34.4010	0	27.422	0	1073.548	0	-1e10	8	-1e10	8	-1E+10	1	-1E+10	1	-1E+10	1	-1E+10	1	-1E+10	1	-1E+10	1
4902554	71	C	01/23/2023	15:54	-132.911	48.387	0	1095.60	0	2.8840	0	34.4050	0	27.427	0	1083.511	0	-1e10	8	-1e10	8	-1E+10	1	-1E+10	1	-1E+10	1	-1E+10	1	-1E+10	1	-1E+10	1
4902554	71	C	01/23/2023	15:54	-132.911	48.387	0	1105.80	0	2.8680	0	34.4090	0	27.432	0	1093.572	0	-1e10	8	-1e10	8	-1E+10	1	-1E+10	1	-1E+10	1	-1E+10	1	-1E+10	1	-1E+10	1
4902554	71	C	01/23/2023	15:54	-132.911	48.387	0	1115.80	0	2.8580	0	34.4110	0	27.434	0	1103.435	0	-1e10	8	-1e10	8	-1E+10	1	-1E+10	1	-1E+10	1	-1E+10	1	-1E+10	1	-1E+10	1
4902554	71	C	01/23/2023	15:54	-132.911	48.387	0	1125.80	0	2.8460	0	34.4140	0	27.438	0	1113.298	0	-1e10	8	-1e10	8	-1E+10	1	-1E+10	1	-1E+10	1	-1E+10	1	-1E+10	1	-1E+10	1
4902554	71	C	01/23/2023	15:54	-132.911	48.387	0	1135.40	0	2.8410	0	34.4150	0	27.439	0	1122.766	0	-1e10	8	-1e10	8	-1E+10	1	-1E+10	1	-1E+10	1	-1E+10	1	-1E+10	1	-1E+10	1
4902554	71	C	01/23/2023	15:54	-132.911	48.387	0	1145.10	0	2.8250	0	34.4180	0	27.443	0	1132.332	0	-1e10	8	-1e10	8	-1E+10	1	-1E+10	1	-1E+10	1	-1E+10	1	-1E+10	1	-1E+10	1
4902554	71	C	01/23/2023	15:54	-132.911	48.387	0	1155.40	0	2.8080	0	34.4220	0	27.448	0	1142.489	0	-1e10	8	-1e10	8	-1E+10	1	-1E+10	1	-1E+10	1	-1E+10	1	-1E+10	1	-1E+10	1
4902554	71	C	01/23/2023	15:54	-132.911	48.387	0	1165.20	0	2.8030	0	34.4230	0	27.449	0	1152.152	0	-1e10	8	-1e10	8	-1E+10	1	-1E+10	1	-1E+10	1	-1E+10	1	-1E+10	1	-1E+10	1
4902554	71	C	01/23/2023	15:54	-132.911	48.387	0	1175.20	0	2.7970	0	34.4250	0	27.451	0	1162.013	0	-1e10	8	-1e10	8	-1E+10	1	-1E+10	1	-1E+10	1	-1E+10	1	-1E+10	1	-1E+10	1
4902554	71	C	01/23/2023	15:54	-132.911	48.387	0	1185.30	0	2.7920	0	34.4260	0	27.453	0	1171.971	0	-1e10	8	-1e10	8	-1E+10	1	-1E+10	1	-1E+10	1	-1E+10	1	-1E+10	1	-1E+10	1
4902554	71	C	01/23/2023	15:54	-132.911	48.387	0	1195.30	0	2.7800	0	34.4280	0	27.455	0	1181.831	0	-1e10	8	-1e10	8	-1E+10	1	-1E+10	1	-1E+10	1	-1E+10	1	-1E+10	1	-1E+10	1
4902554	71	C	01/23/2023	15:54	-132.911	48.387	0	1205.40	0	2.7610	0	34.4320	0	27.460	0	1191.788	0	-1e10	8	-1e10	8	-1E+10	1	-1E+10	1	-1E+10	1	-1E+10	1	-1E+10	1	-1E+10	1
4902554	71	C	01/23/2023	15:54	-132.911	48.387	0	1215.50	0	2.7400	0	34.4350	0	27.465	0	1201.745	0	-1e10	8	-1e10	8	-1E+10	1	-1E+10	1	-1E+10	1	-1E+10	1	-1E+10	1	-1E+10	1
4902554	71	C	01/23/2023	15:54	-132.911	48.387	0	1225.70	0	2.7250	0	34.4390	0	27.469	0	1211.801	0	-1e10	8	-1e10	8	-1E+10	1	-1E+10	1	-1E+10	1	-1E+10	1	-1E+10	1	-1E+10	1
4902554	71	C	01/23/2023	15:54	-132.911	48.387	0	1235.40	0	2.7110	0	34.4410	0	27.472	0	1221.363	0	-1e10	8	-1e10	8	-1E+10	1	-1E+10	1	-1E+10	1	-1E+10	1	-1E+10	1	-1E+10	1
4902554	71	C	01/23/2023	15:54	-132.911	48.387	0	1245.30	0	2.6960	0	34.4440	0	27.476	0	1231.121	0	-1e10	8	-1e10	8	-1E+10	1	-1E+10	1	-1E+10	1	-1E+10	1	-1E+10	1	-1E+10	1
4902554	71	C	01/23/2023	15:54	-132.911	48.387	0	1255.40	0	2.6830	0	34.4460	0	27.479	0	1241.076	0	-1e10	8	-1e10	8	-1E+10	1	-1E+10	1	-1E+10	1	-1E+10	1	-1E+10	1	-1E+10	1
4902554	71	C	01/23/2023	15:54	-132.911	48.387	0	1265.50	0	2.6730	0	34.4490	0	27.482	0	1251.031	0	-1e10	8	-1e10	8	-1E+10	1	-1E+10	1	-1E+10	1	-1E+10	1	-1E+10	1	-1E+10	1
4902554	71	C	01/23/2023	15:54	-132.911	48.387	0	1275.50	0	2.6610	0	34.4510	0	27.485	0	1260.887	0	-1e10	8	-1e10	8	-1E+10	1	-1E+10	1	-1E+10	1	-1E+10	1	-1E+10	1	-1E+10	1
4902554	71	C	01/23/2023	15:54	-132.911	48.387	0	1285.60	0	2.6510	0	34.4540	0	27.488	0	1270.841	0	-1e10	8	-1e10	8	-1E+10	1	-1E+10	1	-1E+10	1	-1E+10	1	-1E+10	1	-1E+10	1
4902554	71	C	01/23/2023	15:54	-132.911	48.387	0	1295.70	0	2.6360	0	34.4560	0	27.491	0	1280.794	0	-1e10	8	-1e10	8	-1E+10	1	-1E+10	1	-1E+10	1	-1E+10	1	-1E+10	1	-1E+10	1
4902554	71	C	01/23/2023	15:54	-132.911	48.387	0	1305.70	0	2.6170	0	34.4580	0	27.494	0	1290.648	0	-1e10	8	-1e10	8	-1E+10	1	-1E+10	1	-1E+10	1	-1E+10	1	-1E+10	1	-1E+10	1
4902554	71	C	01/23/2023	15:54	-132.911	48.387	0	1315.00	0	2.6120	0	34.4620	0	27.498	0	1299.812	0	-1e10	8	-1e10	8	-1E+10	1	-1E+10	1	-1E+10	1	-1E+10	1	-1E+10	1	-1E+10	1
4902554	71	C	01/23/2023	15:54	-132.911	48.387	0	1325.20	0	2.5910	0	34.4630	0	27.500	0	1309.863	0	-1e10	8	-1e10	8	-1E+10	1	-1E+10	1	-1E+10	1	-1E+10	1	-1E+10	1	-1E+10	1
4902554	71	C	01/23/2023	15:54	-132.911	48.387	0	1335.20	0	2.5710	0	34.4650	0	27.504	0	1319.716	0	-1e10	8	-1e10	8	-1E+10	1	-1E+10	1	-1E+10	1	-1E+10	1	-1E+10	1	-1E+10	1
4902554	71	C	01/23/2023	15:54	-132.911	48.387	0	1345.50	0	2.5580	0	34.4670	0	27.506	0	1329.864	0	-1e10	8	-1e10	8	-1E+10	1	-1E+10	1	-1E+10	1	-1E+10	1	-1E+10	1	-1E+10	1
4902554	71	C	01/23/2023	15:54	-132.911	48.387	0	1355.80	0	2.5430	0	34.4680	0	27.509	0	1340.012	0	-1e10	8	-1e10	8	-1E+10	1	-1E+10	1	-1E+10	1	-1E+10	1	-1E+10	1	-1E+10	1
4902554	71	C	01/23/2023	15:54	-132.911	48.387	0	1365.80	0	2.5350	0	34.4700	0	27.511	0	1349.863	0	-1e10	8	-1e10	8	-1E+10	1	-1E+10	1	-1E+10	1	-1E+10	1	-1E+10	1	-1E+10	1
4902554	71	C	01/23/2023	15:54	-132.911	48.387	0	1375.40	0	2.5300	0	34.4720	0	27.513	0	1359.320	0	-1e10	8	-1e10	8	-1E+10	1	-1E+10	1	-1E+10	1	-1E+10	1	-1E+10	1	-1E+10	1
4902554	71	C	01/23/2023	15:54	-132.911	48.387	0	1385.20	0	2.5200	0	34.4740	0	27.516	0	1368.974	0	-1e10	8	-1e10	8	-1E+10	1	-1E+10	1	-1E+10	1	-1E+10	1	-1E+10	1	-1E+10	1
4902554	71	C	01/23/2023	15:54	-132.911	48.387	0	1395.60	0	2.5040	0	34.4780	0	27.520	0	1379.218	0	-1e10	8	-1e10	8	-1E+10	1	-1E+10	1	-1E+10	1	-1E+10	1	-1E+10	1	-1E+10	1
4902554	71	C	01/23/2023	15:54	-132.911	48.387	0	1405.60	0	2.4860	0	34.4810	0	27.524	0	1389.068	0	-1e10	8	-1e10	8	-1E+10	1	-1E+10	1	-1E+10	1	-1E+10	1	-1E+10	1	-1E+10	1
4902554	71	C	01/23/2023	15:54	-132.911	48.387	0	1415.20	0	2.4730	0	34.4830	0	27.527	0	1398.523	0	-1e10	8	-1e10	8	-1E+10	1	-1E+10	1	-1E+10	1	-1E+10	1	-1E+10	1	-1E+10	1
4902554	71	C	01/23/2023	15:54	-132.911	48.387	0	1425.30	0	2.4630	0	34.4850	0	27.529	0	1408.470	0	-1e10	8	-1e10	8	-1E+10	1	-1E+10	1	-1E+10	1	-1E+10	1	-1E+10	1	-1E+10	1
4902554	71	C	01/23/2023	15:54	-132.911	48.387	0	1435.50	0	2.4550	0	34.4870	0	27.532	0	1418.516	0	-1e10	8	-1e10	8	-1E+10	1	-1E+10	1	-1E+10	1	-1E+10	1	-1E+10	1	-1E+10	1
4902554	71	C	01/23/2023	15:54	-132.911	48.387	0	1445.40	0	2.4450	0	34.4890	0	27.534	0	1428.265	0	-1e10	8	-1e10	8	-1E+10	1	-1E+10	1	-1E+10	1	-1E+10	1	-1E+10	1	-1E+10	1
4902554	71	C	01/23/2023	15:54	-132.911	48.387	0	1455.50	0	2.4270	0	34.4910	0	27.537	0	1438.211	0	-1e10	8	-1e10	8	-1E+10	1	-1E+10	1	-1E+10	1	-1E+10	1	-1E+10	1	-1E+10	1
4902554	71	C	01/23/2023	15:54	-132.911	48.387	0	1465.70	0	2.4130	0	34.4940	0	27.541	0	1448.255	0	-1e10	8	-1e10	8	-1E+10	1	-1E+10	1	-1E+10	1	-1E+10	1	-1E+10	1	-1E+10	1
4902554	71	C	01/23/2023	15:54	-132.911	48.387	0	1475.50	0	2.4050	0	34.4960	0	27.543	0	1457.904	0	-1e10	8	-1e10	8	-1E+10	1	-1E+10	1	-1E+10	1	-1E+10	1	-1E+10	1	-1E+10	1
4902554	71	C	01/23/2023	15:54	-132.911	48.387	0	1485.40	0	2.3970	0	34.4990	0	27.546	0	1467.652	0	-1e10	8	-1e10	8	-1E+10	1	-1E+10	1	-1E+10	1	-1E+10	1	-1E+10	1	-1E+10	1
4902554	71	C	01/23/2023	15:54	-132.911	48.387	0	1495.80	0	2.3870	0	34.5030	0	27.550	0	1477.891	0	-1e10	8	-1e10	8	-1E+10	1	-1E+10	1	-1E+10	1	-1E+10	1	-1E+10	1	-1E+10	1
4902554	71	C	01/23/2023	15:54	-132.911	48.387	0	1505.50	0	2.3750	0	34.5030	0	27.551	0	1487.441	0	-1e10	8	-1e10	8	-1E+10	1	-1E+10	1	-1E+10	1	-1E+10	1	-1E+10	1	-1E+10	1
4902554	71	C	01/23/2023	15:54	-132.911	48.387	0	1515.40	0	2.3610	0	34.5040	0	27.553	0	1497.187	0	-1e10	8	-1e10	8	-1E+10	1	-1E+10	1	-1E+10	1	-1E+10	1	-1E+10	1	-1E+10	1
4902554	71	C	01/23/2023	15:54	-132.911	48.387	0	1525.40	0	2.3460	0	34.5070	0	27.557	0	1507.032	0	-1e10	8	-1e10	8	-1E+10	1	-1E+10	1	-1E+10	1	-1E+10	1	-1E+10	1	-1E+10	1
4902554	71	C	01/23/2023	15:54	-132.911	48.387	0	1535.60	0	2.3280	0	34.5090	0	27.560	0	1517.072	0	-1e10	8	-1e10	8	-1E+10	1	-1E+10	1	-1E+10	1	-1E+10	1	-1E+10	1	-1E+10	1
4902554	71	C	01/23/2023	15:54	-132.911	48.387	0	1545.70	0	2.3200	0	34.5110	0	27.563	0	1527.014	0	-1e10	8	-1e10	8	-1E+10	1	-1E+10	1	-1E+10	1	-1E+10	1	-1E+10	1	-1E+10	1
4902554	71	C	01/23/2023	15:54	-132.911	48.387	0	1555.30	0	2.3080	0	34.5120	0	27.564	0	1536.463	0	-1e10	8	-1e10	8	-1E+10	1	-1E+10	1	-1E+10	1	-1E+10	1	-1E+10	1	-1E+10	1
4902554	71	C	01/23/2023	15:54	-132.911	48.387	0	1565.20	0	2.2990	0	34.5140	0	27.567	0	1546.207	0	-1e10	8	-1e10	8	-1E+10	1	-1E+10	1	-1E+10	1	-1E+10	1	-1E+10	1	-1E+10	1
4902554	71	C	01/23/2023	15:54	-132.911	48.387	0	1575.30	0	2.2920	0	34.5160	0	27.569	0	1556.147	0	-1e10	8	-1e10	8	-1E+10	1	-1E+10	1	-1E+10	1	-1E+10	1	-1E+10	1	-1E+10	1
4902554	71	C	01/23/2023	15:54	-132.911	48.387	0	1585.30	0	2.2830	0	34.5170	0	27.571	0	1565.989	0	-1e10	8	-1e10	8	-1E+10	1	-1E+10	1	-1E+10	1	-1E+10	1	-1E+10	1	-1E+10	1
4902554	71	C	01/23/2023	15:54	-132.911	48.387	0	1595.30	0	2.2720	0	34.5200	0	27.574	0	1575.830	0	-1e10	8	-1e10	8	-1E+10	1	-1E+10	1	-1E+10	1	-1E+10	1	-1E+10	1	-1E+10	1
4902554	71	C	01/23/2023	15:54	-132.911	48.387	0	1605.20	0	2.2650	0	34.5210	0	27.575	0	1585.572	0	-1e10	8	-1e10	8	-1E+10	1	-1E+10	1	-1E+10	1	-1E+10	1	-1E+10	1	-1E+10	1
4902554	71	C	01/23/2023	15:54	-132.911	48.387	0	1615.30	0	2.2610	0	34.5220	0	27.577	0	1595.510	0	-1e10	8	-1e10	8	-1E+10	1	-1E+10	1	-1E+10	1	-1E+10	1	-1E+10	1	-1E+10	1
4902554	71	C	01/23/2023	15:54	-132.911	48.387	0	1625.10	0	2.2520	0	34.5240	0	27.579	0	1605.153	0	-1e10	8	-1e10	8	-1E+10	1	-1E+10	1	-1E+10	1	-1E+10	1	-1E+10	1	-1E+10	1
4902554	71	C	01/23/2023	15:54	-132.911	48.387	0	1635.10	0	2.2350	0	34.5270	0	27.583	0	1614.992	0	-1e10	8	-1e10	8	-1E+10	1	-1E+10	1	-1E+10	1	-1E+10	1	-1E+10	1	-1E+10	1
4902554	71	C	01/23/2023	15:54	-132.911	48.387	0	1645.10	0	2.2260	0	34.5290	0	27.585	0	1624.831	0	-1e10	8	-1e10	8	-1E+10	1	-1E+10	1	-1E+10	1	-1E+10	1	-1E+10	1	-1E+10	1
4902554	71	C	01/23/2023	15:54	-132.911	48.387	0	1655.30	0	2.2140	0	34.5320	0	27.589	0	1634.866	0	-1e10	8	-1e10	8	-1E+10	1	-1E+10	1	-1E+10	1	-1E+10	1	-1E+10	1	-1E+10	1
4902554	71	C	01/23/2023	15:54	-132.911	48.387	0	1665.50	0	2.2030	0	34.5340	0	27.591	0	1644.900	0	-1e10	8	-1e10	8	-1E+10	1	-1E+10	1	-1E+10	1	-1E+10	1	-1E+10	1	-1E+10	1
4902554	71	C	01/23/2023	15:54	-132.911	48.387	0	1675.40	0	2.1920	0	34.5360	0	27.594	0	1654.639	0	-1e10	8	-1e10	8	-1E+10	1	-1E+10	1	-1E+10	1	-1E+10	1	-1E+10	1	-1E+10	1
4902554	71	C	01/23/2023	15:54	-132.911	48.387	0	1685.70	0	2.1840	0	34.5380	0	27.596	0	1664.771	0	-1e10	8	-1e10	8	-1E+10	1	-1E+10	1	-1E+10	1	-1E+10	1	-1E+10	1	-1E+10	1
4902554	71	C	01/23/2023	15:54	-132.911	48.387	0	1695.70	0	2.1700	0	34.5400	0	27.599	0	1674.608	0	-1e10	8	-1e10	8	-1E+10	1	-1E+10	1	-1E+10	1	-1E+10	1	-1E+10	1	-1E+10	1
4902554	71	C	01/23/2023	15:54	-132.911	48.387	0	1705.70	0	2.1560	0	34.5430	0	27.602	0	1684.444	0	-1e10	8	-1e10	8	-1E+10	1	-1E+10	1	-1E+10	1	-1E+10	1	-1E+10	1	-1E+10	1
4902554	71	C	01/23/2023	15:54	-132.911	48.387	0	1715.50	0	2.1420	0	34.5460	0	27.606	0	1694.082	0	-1e10	8	-1e10	8	-1E+10	1	-1E+10	1	-1E+10	1	-1E+10	1	-1E+10	1	-1E+10	1
4902554	71	C	01/23/2023	15:54	-132.911	48.387	0	1725.50	0	2.1350	0	34.5480	0	27.608	0	1703.917	0	-1e10	8	-1e10	8	-1E+10	1	-1E+10	1	-1E+10	1	-1E+10	1	-1E+10	1	-1E+10	1
4902554	71	C	01/23/2023	15:54	-132.911	48.387	0	1735.70	0	2.1270	0	34.5500	0	27.610	0	1713.949	0	-1e10	8	-1e10	8	-1E+10	1	-1E+10	1	-1E+10	1	-1E+10	1	-1E+10	1	-1E+10	1
4902554	71	C	01/23/2023	15:54	-132.911	48.387	0	1745.60	0	2.1210	0	34.5510	0	27.612	0	1723.684	0	-1e10	8	-1e10	8	-1E+10	1	-1E+10	1	-1E+10	1	-1E+10	1	-1E+10	1	-1E+10	1
4902554	71	C	01/23/2023	15:54	-132.911	48.387	0	1755.60	0	2.1100	0	34.5530	0	27.614	0	1733.518	0	-1e10	8	-1e10	8	-1E+10	1	-1E+10	1	-1E+10	1	-1E+10	1	-1E+10	1	-1E+10	1
4902554	71	C	01/23/2023	15:54	-132.911	48.387	0	1765.70	0	2.1040	0	34.5540	0	27.616	0	1743.449	0	-1e10	8	-1e10	8	-1E+10	1	-1E+10	1	-1E+10	1	-1E+10	1	-1E+10	1	-1E+10	1
4902554	71	C	01/23/2023	15:54	-132.911	48.387	0	1775.30	0	2.0980	0	34.5550	0	27.617	0	1752.889	0	-1e10	8	-1e10	8	-1E+10	1	-1E+10	1	-1E+10	1	-1E+10	1	-1E+10	1	-1E+10	1
4902554	71	C	01/23/2023	15:54	-132.911	48.387	0	1785.10	0	2.0910	0	34.5570	0	27.619	0	1762.525	0	-1e10	8	-1e10	8	-1E+10	1	-1E+10	1	-1E+10	1	-1E+10	1	-1E+10	1	-1E+10	1
4902554	71	C	01/23/2023	15:54	-132.911	48.387	0	1795.20	0	2.0860	0	34.5580	0	27.620	0	1772.455	0	-1e10	8	-1e10	8	-1E+10	1	-1E+10	1	-1E+10	1	-1E+10	1	-1E+10	1	-1E+10	1
4902554	71	C	01/23/2023	15:54	-132.911	48.387	0	1805.20	0	2.0800	0	34.5590	0	27.622	0	1782.286	0	-1e10	8	-1e10	8	-1E+10	1	-1E+10	1	-1E+10	1	-1E+10	1	-1E+10	1	-1E+10	1
4902554	71	C	01/23/2023	15:54	-132.911	48.387	0	1815.20	0	2.0730	0	34.5600	0	27.623	0	1792.117	0	-1e10	8	-1e10	8	-1E+10	1	-1E+10	1	-1E+10	1	-1E+10	1	-1E+10	1	-1E+10	1
4902554	71	C	01/23/2023	15:54	-132.911	48.387	0	1825.10	0	2.0630	0	34.5630	0	27.626	0	1801.849	0	-1e10	8	-1e10	8	-1E+10	1	-1E+10	1	-1E+10	1	-1E+10	1	-1E+10	1	-1E+10	1
4902554	71	C	01/23/2023	15:54	-132.911	48.387	0	1835.00	0	2.0570	0	34.5630	0	27.627	0	1811.581	0	-1e10	8	-1e10	8	-1E+10	1	-1E+10	1	-1E+10	1	-1E+10	1	-1E+10	1	-1E+10	1
4902554	71	C	01/23/2023	15:54	-132.911	48.387	0	1845.00	0	2.0420	0	34.5660	0	27.630	0	1821.410	0	-1e10	8	-1e10	8	-1E+10	1	-1E+10	1	-1E+10	1	-1E+10	1	-1E+10	1	-1E+10	1
4902554	71	C	01/23/2023	15:54	-132.911	48.387	0	1855.00	0	2.0330	0	34.5680	0	27.633	0	1831.239	0	-1e10	8	-1e10	8	-1E+10	1	-1E+10	1	-1E+10	1	-1E+10	1	-1E+10	1	-1E+10	1
4902554	71	C	01/23/2023	15:54	-132.911	48.387	0	1865.30	0	2.0300	0	34.5690	0	27.634	0	1841.363	0	-1e10	8	-1e10	8	-1E+10	1	-1E+10	1	-1E+10	1	-1E+10	1	-1E+10	1	-1E+10	1
4902554	71	C	01/23/2023	15:54	-132.911	48.387	0	1875.40	0	2.0240	0	34.5700	0	27.635	0	1851.289	0	-1e10	8	-1e10	8	-1E+10	1	-1E+10	1	-1E+10	1	-1E+10	1	-1E+10	1	-1E+10	1
4902554	71	C	01/23/2023	15:54	-132.911	48.387	0	1885.60	0	2.0140	0	34.5720	0	27.638	0	1861.314	0	-1e10	8	-1e10	8	-1E+10	1	-1E+10	1	-1E+10	1	-1E+10	1	-1E+10	1	-1E+10	1
4902554	71	C	01/23/2023	15:54	-132.911	48.387	0	1895.60	0	2.0070	0	34.5730	0	27.639	0	1871.141	0	-1e10	8	-1e10	8	-1E+10	1	-1E+10	1	-1E+10	1	-1E+10	1	-1E+10	1	-1E+10	1
4902554	71	C	01/23/2023	15:54	-132.911	48.387	0	1905.20	0	2.0020	0	34.5740	0	27.640	0	1880.575	0	-1e10	8	-1e10	8	-1E+10	1	-1E+10	1	-1E+10	1	-1E+10	1	-1E+10	1	-1E+10	1
4902554	71	C	01/23/2023	15:54	-132.911	48.387	0	1915.10	0	1.9900	0	34.5770	0	27.644	0	1890.303	0	-1e10	8	-1e10	8	-1E+10	1	-1E+10	1	-1E+10	1	-1E+10	1	-1E+10	1	-1E+10	1
4902554	71	C	01/23/2023	15:54	-132.911	48.387	0	1925.20	0	1.9800	0	34.5790	0	27.646	0	1900.227	0	-1e10	8	-1e10	8	-1E+10	1	-1E+10	1	-1E+10	1	-1E+10	1	-1E+10	1	-1E+10	1
4902554	71	C	01/23/2023	15:54	-132.911	48.387	0	1935.50	0	1.9680	0	34.5810	0	27.649	0	1910.347	0	-1e10	8	-1e10	8	-1E+10	1	-1E+10	1	-1E+10	1	-1E+10	1	-1E+10	1	-1E+10	1
4902554	71	C	01/23/2023	15:54	-132.911	48.387	0	1945.20	0	1.9620	0	34.5820	0	27.650	0	1919.877	0	-1e10	8	-1e10	8	-1E+10	1	-1E+10	1	-1E+10	1	-1E+10	1	-1E+10	1	-1E+10	1
4902554	71	C	01/23/2023	15:54	-132.911	48.387	0	1955.40	0	1.9570	0	34.5830	0	27.651	0	1929.898	0	-1e10	8	-1e10	8	-1E+10	1	-1E+10	1	-1E+10	1	-1E+10	1	-1E+10	1	-1E+10	1
4902554	71	C	01/23/2023	15:54	-132.911	48.387	0	1965.70	0	1.9540	0	34.5840	0	27.652	0	1940.017	0	-1e10	8	-1e10	8	-1E+10	1	-1E+10	1	-1E+10	1	-1E+10	1	-1E+10	1	-1E+10	1
4902554	71	C	01/23/2023	15:54	-132.911	48.387	0	1975.40	0	1.9510	0	34.5850	0	27.653	0	1949.546	0	-1e10	8	-1e10	8	-1E+10	1	-1E+10	1	-1E+10	1	-1E+10	1	-1E+10	1	-1E+10	1
4902554	71	C	01/23/2023	15:54	-132.911	48.387	0	1985.10	0	1.9460	0	34.5860	0	27.655	0	1959.075	0	-1e10	8	-1e10	8	-1E+10	1	-1E+10	1	-1E+10	1	-1E+10	1	-1E+10	1	-1E+10	1
4902554	71	C	01/23/2023	15:54	-132.911	48.387	0	1995.10	0	1.9370	0	34.5870	0	27.656	0	1968.897	0	-1e10	8	-1e10	8	-1E+10	1	-1E+10	1	-1E+10	1	-1E+10	1	-1E+10	1	-1E+10	1
4902554	71	C	01/23/2023	15:54	-132.911	48.387	0	2005.90	0	1.9350	0	34.5880	0	27.657	0	1979.505	0	-1e10	8	-1e10	8	-1E+10	1	-1E+10	1	-1E+10	1	-1E+10	1	-1E+10	1	-1E+10	1
4902554	71	C	01/23/2023	15:54	-132.911	48.387	0	2011.10	0	1.9320	0	34.5890	0	27.658	0	1984.613	0	-1e10	8	-1e10	8	-1E+10	1	-1E+10	1	-1E+10	1	-1E+10	1	-1E+10	1	-1E+10	1
4902554	71	C	01/23/2023	15:54	-132.911	48.387	0																										
4902554	72	C	02/02/2023	21:03	-132.945	48.360	0	0.00	0	8.4640	0	32.3010	0	25.087	0	0.000	0	-1e10	8	-1e10	8	-1E+10	1	-1E+10	1	-1E+10	1	-1E+10	1	-1E+10	1	-1E+10	1
4902554	72	C	02/02/2023	21:03	-132.945	48.360	0	0.10	0	8.4640	0	32.3000	0	25.086	0	0.099	0	-1e10	1	-1e10	1	-1E+10	1	-1E+10	1	-1E+10	1	-1E+10	1	-1E+10	1	-1E+10	1
4902554	72	C	02/02/2023	21:03	-132.945	48.360	0	0.40	0	8.4640	0	32.3020	0	25.088	0	0.397	0	-1e10	8	-1e10	8	-1E+10	1	-1E+10	1	-1E+10	1	-1E+10	1	-1E+10	1	-1E+10	1
4902554	72	C	02/02/2023	21:03	-132.945	48.360	0	1.00	0	8.4630	0	32.3010	0	25.087	0	0.992	0	-1e10	8	-1e10	8	-1E+10	1	-1E+10	1	-1E+10	1	-1E+10	1	-1E+10	1	-1E+10	1
4902554	72	C	02/02/2023	21:03	-132.945	48.360	0	1.90	0	8.4610	0	32.3020	0	25.088	0	1.884	0	-1e10	8	-1e10	8	-1E+10	1	-1E+10	1	-1E+10	1	-1E+10	1	-1E+10	1	-1E+10	1
4902554	72	C	02/02/2023	21:03	-132.945	48.360	0	3.00	0	8.4600	0	32.3020	0	25.088	0	2.975	0	-1e10	8	-1e10	8	-1E+10	1	-1E+10	1	-1E+10	1	-1E+10	1	-1E+10	1	-1E+10	1
4902554	72	C	02/02/2023	21:03	-132.945	48.360	0	4.20	0	8.4580	0	32.3050	0	25.091	0	4.165	0	-1e10	8	-1e10	8	-1E+10	1	-1E+10	1	-1E+10	1	-1E+10	1	-1E+10	1	-1E+10	1
4902554	72	C	02/02/2023	21:03	-132.945	48.360	0	4.90	0	8.4560	0	32.3070	0	25.093	0	4.859	0	-1e10	8	-1e10	8	-1E+10	1	-1E+10	1	-1E+10	1	-1E+10	1	-1E+10	1	-1E+10	1
4902554	72	C	02/02/2023	21:03	-132.945	48.360	0	6.00	0	8.4530	0	32.3090	0	25.095	0	5.949	0	-1e10	8	-1e10	8	-1E+10	1	-1E+10	1	-1E+10	1	-1E+10	1	-1E+10	1	-1E+10	1
4902554	72	C	02/02/2023	21:03	-132.945	48.360	0	6.90	0	8.4510	0	32.3090	0	25.095	0	6.842	0	-1e10	8	-1e10	8	-1E+10	1	-1E+10	1	-1E+10	1	-1E+10	1	-1E+10	1	-1E+10	1
4902554	72	C	02/02/2023	21:03	-132.945	48.360	0	7.90	0	8.4520	0	32.3090	0	25.095	0	7.833	0	-1e10	8	-1e10	8	-1E+10	1	-1E+10	1	-1E+10	1	-1E+10	1	-1E+10	1	-1E+10	1
4902554	72	C	02/02/2023	21:03	-132.945	48.360	0	9.10	0	8.4500	0	32.3100	0	25.096	0	9.023	0	-1e10	8	-1e10	8	-1E+10	1	-1E+10	1	-1E+10	1	-1E+10	1	-1E+10	1	-1E+10	1
4902554	72	C	02/02/2023	21:03	-132.945	48.360	0	10.00	0	8.4500	0	32.3100	0	25.096	0	9.916	0	-1e10	8	-1e10	8	-1E+10	1	-1E+10	1	-1E+10	1	-1E+10	1	-1E+10	1	-1E+10	1
4902554	72	C	02/02/2023	21:03	-132.945	48.360	0	10.70	0	8.4500	0	32.3100	0	25.096	0	10.610	0	-1e10	8	-1e10	8	-1E+10	1	-1E+10	1	-1E+10	1	-1E+10	1	-1E+10	1	-1E+10	1
4902554	72	C	02/02/2023	21:03	-132.945	48.360	0	11.90	0	8.4490	0	32.3100	0	25.097	0	11.799	0	-1e10	8	-1e10	8	-1E+10	1	-1E+10	1	-1E+10	1	-1E+10	1	-1E+10	1	-1E+10	1
4902554	72	C	02/02/2023	21:03	-132.945	48.360	0	13.00	0	8.4490	0	32.3110	0	25.097	0	12.890	0	-1e10	8	-1e10	8	-1E+10	1	-1E+10	1	-1E+10	1	-1E+10	1	-1E+10	1	-1E+10	1
4902554	72	C	02/02/2023	21:03	-132.945	48.360	0	13.70	0	8.4490	0	32.3100	0	25.097	0	13.584	0	-1e10	8	-1e10	8	-1E+10	1	-1E+10	1	-1E+10	1	-1E+10	1	-1E+10	1	-1E+10	1
4902554	72	C	02/02/2023	21:03	-132.945	48.360	0	14.70	0	8.4490	0	32.3100	0	25.097	0	14.576	0	-1e10	8	-1e10	8	-1E+10	1	-1E+10	1	-1E+10	1	-1E+10	1	-1E+10	1	-1E+10	1
4902554	72	C	02/02/2023	21:03	-132.945	48.360	0	15.80	0	8.4490	0	32.3110	0	25.097	0	15.666	0	-1e10	8	-1e10	8	-1E+10	1	-1E+10	1	-1E+10	1	-1E+10	1	-1E+10	1	-1E+10	1
4902554	72	C	02/02/2023	21:03	-132.945	48.360	0	16.80	0	8.4490	0	32.3110	0	25.097	0	16.658	0	-1e10	8	-1e10	8	-1E+10	1	-1E+10	1	-1E+10	1	-1E+10	1	-1E+10	1	-1E+10	1
4902554	72	C	02/02/2023	21:03	-132.945	48.360	0	18.00	0	8.4500	0	32.3100	0	25.096	0	17.848	0	-1e10	8	-1e10	8	-1E+10	1	-1E+10	1	-1E+10	1	-1E+10	1	-1E+10	1	-1E+10	1
4902554	72	C	02/02/2023	21:03	-132.945	48.360	0	19.10	0	8.4500	0	32.3110	0	25.097	0	18.938	0	-1e10	8	-1e10	8	-1E+10	1	-1E+10	1	-1E+10	1	-1E+10	1	-1E+10	1	-1E+10	1
4902554	72	C	02/02/2023	21:03	-132.945	48.360	0	20.00	0	8.4490	0	32.3120	0	25.098	0	19.831	0	-1e10	8	-1e10	8	-1E+10	1	-1E+10	1	-1E+10	1	-1E+10	1	-1E+10	1	-1E+10	1
4902554	72	C	02/02/2023	21:03	-132.945	48.360	0	20.90	0	8.4490	0	32.3120	0	25.098	0	20.723	0	-1e10	8	-1e10	8	-1E+10	1	-1E+10	1	-1E+10	1	-1E+10	1	-1E+10	1	-1E+10	1
4902554	72	C	02/02/2023	21:03	-132.945	48.360	0	21.90	0	8.4490	0	32.3120	0	25.098	0	21.714	0	-1e10	8	-1e10	8	-1E+10	1	-1E+10	1	-1E+10	1	-1E+10	1	-1E+10	1	-1E+10	1
4902554	72	C	02/02/2023	21:03	-132.945	48.360	0	22.80	0	8.4490	0	32.3120	0	25.098	0	22.607	0	-1e10	8	-1e10	8	-1E+10	1	-1E+10	1	-1E+10	1	-1E+10	1	-1E+10	1	-1E+10	1
4902554	72	C	02/02/2023	21:03	-132.945	48.360	0	24.10	0	8.4490	0	32.3120	0	25.098	0	23.896	0	-1e10	8	-1e10	8	-1E+10	1	-1E+10	1	-1E+10	1	-1E+10	1	-1E+10	1	-1E+10	1
4902554	72	C	02/02/2023	21:03	-132.945	48.360	0	25.00	0	8.4500	0	32.3130	0	25.099	0	24.788	0	-1e10	8	-1e10	8	-1E+10	1	-1E+10	1	-1E+10	1	-1E+10	1	-1E+10	1	-1E+10	1
4902554	72	C	02/02/2023	21:03	-132.945	48.360	0	25.90	0	8.4500	0	32.3130	0	25.099	0	25.680	0	-1e10	8	-1e10	8	-1E+10	1	-1E+10	1	-1E+10	1	-1E+10	1	-1E+10	1	-1E+10	1
4902554	72	C	02/02/2023	21:03	-132.945	48.360	0	27.10	0	8.4520	0	32.3140	0	25.099	0	26.870	0	-1e10	8	-1e10	8	-1E+10	1	-1E+10	1	-1E+10	1	-1E+10	1	-1E+10	1	-1E+10	1
4902554	72	C	02/02/2023	21:03	-132.945	48.360	0	28.30	0	8.4510	0	32.3140	0	25.100	0	28.060	0	-1e10	8	-1e10	8	-1E+10	1	-1E+10	1	-1E+10	1	-1E+10	1	-1E+10	1	-1E+10	1
4902554	72	C	02/02/2023	21:03	-132.945	48.360	0	28.90	0	8.4520	0	32.3140	0	25.099	0	28.655	0	-1e10	8	-1e10	8	-1E+10	1	-1E+10	1	-1E+10	1	-1E+10	1	-1E+10	1	-1E+10	1
4902554	72	C	02/02/2023	21:03	-132.945	48.360	0	30.00	0	8.4520	0	32.3140	0	25.099	0	29.745	0	-1e10	8	-1e10	8	-1E+10	1	-1E+10	1	-1E+10	1	-1E+10	1	-1E+10	1	-1E+10	1
4902554	72	C	02/02/2023	21:03	-132.945	48.360	0	30.90	0	8.4540	0	32.3150	0	25.100	0	30.637	0	-1e10	8	-1e10	8	-1E+10	1	-1E+10	1	-1E+10	1	-1E+10	1	-1E+10	1	-1E+10	1
4902554	72	C	02/02/2023	21:03	-132.945	48.360	0	32.10	0	8.4560	0	32.3150	0	25.100	0	31.827	0	-1e10	8	-1e10	8	-1E+10	1	-1E+10	1	-1E+10	1	-1E+10	1	-1E+10	1	-1E+10	1
4902554	72	C	02/02/2023	21:03	-132.945	48.360	0	33.00	0	8.4570	0	32.3160	0	25.100	0	32.719	0	-1e10	8	-1e10	8	-1E+10	1	-1E+10	1	-1E+10	1	-1E+10	1	-1E+10	1	-1E+10	1
4902554	72	C	02/02/2023	21:03	-132.945	48.360	0	33.90	0	8.4570	0	32.3160	0	25.100	0	33.612	0	-1e10	8	-1e10	8	-1E+10	1	-1E+10	1	-1E+10	1	-1E+10	1	-1E+10	1	-1E+10	1
4902554	72	C	02/02/2023	21:03	-132.945	48.360	0	34.90	0	8.4580	0	32.3170	0	25.101	0	34.603	0	-1e10	8	-1e10	8	-1E+10	1	-1E+10	1	-1E+10	1	-1E+10	1	-1E+10	1	-1E+10	1
4902554	72	C	02/02/2023	21:03	-132.945	48.360	0	35.90	0	8.4610	0	32.3190	0	25.102	0	35.594	0	-1e10	8	-1e10	8	-1E+10	1	-1E+10	1	-1E+10	1	-1E+10	1	-1E+10	1	-1E+10	1
4902554	72	C	02/02/2023	21:03	-132.945	48.360	0	37.00	0	8.4680	0	32.3210	0	25.103	0	36.685	0	-1e10	8	-1e10	8	-1E+10	1	-1E+10	1	-1E+10	1	-1E+10	1	-1E+10	1	-1E+10	1
4902554	72	C	02/02/2023	21:03	-132.945	48.360	0	38.20	0	8.4700	0	32.3210	0	25.102	0	37.875	0	-1e10	8	-1e10	8	-1E+10	1	-1E+10	1	-1E+10	1	-1E+10	1	-1E+10	1	-1E+10	1
4902554	72	C	02/02/2023	21:03	-132.945	48.360	0	38.90	0	8.4730	0	32.3220	0	25.103	0	38.569	0	-1e10	8	-1e10	8	-1E+10	1	-1E+10	1	-1E+10	1	-1E+10	1	-1E+10	1	-1E+10	1
4902554	72	C	02/02/2023	21:03	-132.945	48.360	0	40.00	0	8.4760	0	32.3240	0	25.104	0	39.659	0	-1e10	8	-1e10	8	-1E+10	1	-1E+10	1	-1E+10	1	-1E+10	1	-1E+10	1	-1E+10	1
4902554	72	C	02/02/2023	21:03	-132.945	48.360	0	41.20	0	8.4780	0	32.3240	0	25.104	0	40.849	0	-1e10	8	-1e10	8	-1E+10	1	-1E+10	1	-1E+10	1	-1E+10	1	-1E+10	1	-1E+10	1
4902554	72	C	02/02/2023	21:03	-132.945	48.360	0	41.90	0	8.4830	0	32.3250	0	25.104	0	41.543	0	-1e10	8	-1e10	8	-1E+10	1	-1E+10	1	-1E+10	1	-1E+10	1	-1E+10	1	-1E+10	1
4902554	72	C	02/02/2023	21:03	-132.945	48.360	0	43.10	0	8.4880	0	32.3270	0	25.104	0	42.732	0	-1e10	8	-1e10	8	-1E+10	1	-1E+10	1	-1E+10	1	-1E+10	1	-1E+10	1	-1E+10	1
4902554	72	C	02/02/2023	21:03	-132.945	48.360	0	43.90	0	8.4950	0	32.3290	0	25.105	0	43.526	0	-1e10	8	-1e10	8	-1E+10	1	-1E+10	1	-1E+10	1	-1E+10	1	-1E+10	1	-1E+10	1
4902554	72	C	02/02/2023	21:03	-132.945	48.360	0	45.00	0	8.4950	0	32.3300	0	25.106	0	44.616	0	-1e10	8	-1e10	8	-1E+10	1	-1E+10	1	-1E+10	1	-1E+10	1	-1E+10	1	-1E+10	1
4902554	72	C	02/02/2023	21:03	-132.945	48.360	0	46.10	0	8.4960	0	32.3300	0	25.106	0	45.707	0	-1e10	8	-1e10	8	-1E+10	1	-1E+10	1	-1E+10	1	-1E+10	1	-1E+10	1	-1E+10	1
4902554	72	C	02/02/2023	21:03	-132.945	48.360	0	46.90	0	8.4960	0	32.3300	0	25.106	0	46.500	0	-1e10	8	-1e10	8	-1E+10	1	-1E+10	1	-1E+10	1	-1E+10	1	-1E+10	1	-1E+10	1
4902554	72	C	02/02/2023	21:03	-132.945	48.360	0	48.10	0	8.4990	0	32.3310	0	25.106	0	47.689	0	-1e10	8	-1e10	8	-1E+10	1	-1E+10	1	-1E+10	1	-1E+10	1	-1E+10	1	-1E+10	1
4902554	72	C	02/02/2023	21:03	-132.945	48.360	0	48.80	0	8.4990	0	32.3300	0	25.105	0	48.383	0	-1e10	8	-1e10	8	-1E+10	1	-1E+10	1	-1E+10	1	-1E+10	1	-1E+10	1	-1E+10	1
4902554	72	C	02/02/2023	21:03	-132.945	48.360	0	50.00	0	8.5020	0	32.3310	0	25.106	0	49.573	0	-1e10	8	-1e10	8	-1E+10	1	-1E+10	1	-1E+10	1	-1E+10	1	-1E+10	1	-1E+10	1
4902554	72	C	02/02/2023	21:03	-132.945	48.360	0	51.20	0	8.5080	0	32.3350	0	25.108	0	50.762	0	-1e10	8	-1e10	8	-1E+10	1	-1E+10	1	-1E+10	1	-1E+10	1	-1E+10	1	-1E+10	1
4902554	72	C	02/02/2023	21:03	-132.945	48.360	0	52.00	0	8.5080	0	32.3350	0	25.108	0	51.555	0	-1e10	8	-1e10	8	-1E+10	1	-1E+10	1	-1E+10	1	-1E+10	1	-1E+10	1	-1E+10	1
4902554	72	C	02/02/2023	21:03	-132.945	48.360	0	53.20	0	8.5070	0	32.3350	0	25.108	0	52.745	0	-1e10	8	-1e10	8	-1E+10	1	-1E+10	1	-1E+10	1	-1E+10	1	-1E+10	1	-1E+10	1
4902554	72	C	02/02/2023	21:03	-132.945	48.360	0	54.10	0	8.5060	0	32.3350	0	25.108	0	53.637	0	-1e10	8	-1e10	8	-1E+10	1	-1E+10	1	-1E+10	1	-1E+10	1	-1E+10	1	-1E+10	1
4902554	72	C	02/02/2023	21:03	-132.945	48.360	0	55.10	0	8.5070	0	32.3350	0	25.108	0	54.629	0	-1e10	8	-1e10	8	-1E+10	1	-1E+10	1	-1E+10	1	-1E+10	1	-1E+10	1	-1E+10	1
4902554	72	C	02/02/2023	21:03	-132.945	48.360	0	55.90	0	8.5050	0	32.3350	0	25.108	0	55.422	0	-1e10	8	-1e10	8	-1E+10	1	-1E+10	1	-1E+10	1	-1E+10	1	-1E+10	1	-1E+10	1
4902554	72	C	02/02/2023	21:03	-132.945	48.360	0	57.10	0	8.5020	0	32.3350	0	25.109	0	56.611	0	-1e10	8	-1e10	8	-1E+10	1	-1E+10	1	-1E+10	1	-1E+10	1	-1E+10	1	-1E+10	1
4902554	72	C	02/02/2023	21:03	-132.945	48.360	0	58.10	0	8.4990	0	32.3340	0	25.109	0	57.602	0	-1e10	8	-1e10	8	-1E+10	1	-1E+10	1	-1E+10	1	-1E+10	1	-1E+10	1	-1E+10	1
4902554	72	C	02/02/2023	21:03	-132.945	48.360	0	59.20	0	8.4950	0	32.3350	0	25.110	0	58.693	0	-1e10	8	-1e10	8	-1E+10	1	-1E+10	1	-1E+10	1	-1E+10	1	-1E+10	1	-1E+10	1
4902554	72	C	02/02/2023	21:03	-132.945	48.360	0	60.10	0	8.4950	0	32.3350	0	25.110	0	59.585	0	-1e10	8	-1e10	8	-1E+10	1	-1E+10	1	-1E+10	1	-1E+10	1	-1E+10	1	-1E+10	1
4902554	72	C	02/02/2023	21:03	-132.945	48.360	0	60.90	0	8.4940	0	32.3350	0	25.110	0	60.378	0	-1e10	8	-1e10	8	-1E+10	1	-1E+10	1	-1E+10	1	-1E+10	1	-1E+10	1	-1E+10	1
4902554	72	C	02/02/2023	21:03	-132.945	48.360	0	62.00	0	8.4920	0	32.3350	0	25.110	0	61.468	0	-1e10	8	-1e10	8	-1E+10	1	-1E+10	1	-1E+10	1	-1E+10	1	-1E+10	1	-1E+10	1
4902554	72	C	02/02/2023	21:03	-132.945	48.360	0	63.20	0	8.4920	0	32.3350	0	25.110	0	62.658	0	-1e10	8	-1e10	8	-1E+10	1	-1E+10	1	-1E+10	1	-1E+10	1	-1E+10	1	-1E+10	1
4902554	72	C	02/02/2023	21:03	-132.945	48.360	0	63.90	0	8.4910	0	32.3350	0	25.111	0	63.352	0	-1e10	8	-1e10	8	-1E+10	1	-1E+10	1	-1E+10	1	-1E+10	1	-1E+10	1	-1E+10	1
4902554	72	C	02/02/2023	21:03	-132.945	48.360	0	64.80	0	8.4900	0	32.3350	0	25.111	0	64.244	0	-1e10	8	-1e10	8	-1E+10	1	-1E+10	1	-1E+10	1	-1E+10	1	-1E+10	1	-1E+10	1
4902554	72	C	02/02/2023	21:03	-132.945	48.360	0	66.00	0	8.4880	0	32.3360	0	25.112	0	65.434	0	-1e10	8	-1e10	8	-1E+10	1	-1E+10	1	-1E+10	1	-1E+10	1	-1E+10	1	-1E+10	1
4902554	72	C	02/02/2023	21:03	-132.945	48.360	0	67.10	0	8.4890	0	32.3360	0	25.112	0	66.524	0	-1e10	8	-1e10	8	-1E+10	1	-1E+10	1	-1E+10	1	-1E+10	1	-1E+10	1	-1E+10	1
4902554	72	C	02/02/2023	21:03	-132.945	48.360	0	68.30	0	8.4940	0	32.3410	0	25.115	0	67.713	0	-1e10	8	-1e10	8	-1E+10	1	-1E+10	1	-1E+10	1	-1E+10	1	-1E+10	1	-1E+10	1
4902554	72	C	02/02/2023	21:03	-132.945	48.360	0	69.20	0	8.4960	0	32.3420	0	25.115	0	68.606	0	-1e10	8	-1e10	8	-1E+10	1	-1E+10	1	-1E+10	1	-1E+10	1	-1E+10	1	-1E+10	1
4902554	72	C	02/02/2023	21:03	-132.945	48.360	0	70.10	0	8.4950	0	32.3440	0	25.117	0	69.498	0	-1e10	8	-1e10	8	-1E+10	1	-1E+10	1	-1E+10	1	-1E+10	1	-1E+10	1	-1E+10	1
4902554	72	C	02/02/2023	21:03	-132.945	48.360	0	70.80	0	8.4950	0	32.3460	0	25.119	0	70.192	0	-1e10	8	-1e10	8	-1E+10	1	-1E+10	1	-1E+10	1	-1E+10	1	-1E+10	1	-1E+10	1
4902554	72	C	02/02/2023	21:03	-132.945	48.360	0	71.90	0	8.5040	0	32.3490	0	25.120	0	71.282	0	-1e10	8	-1e10	8	-1E+10	1	-1E+10	1	-1E+10	1	-1E+10	1	-1E+10	1	-1E+10	1
4902554	72	C	02/02/2023	21:03	-132.945	48.360	0	73.20	0	8.5160	0	32.3540	0	25.122	0	72.570	0	-1e10	8	-1e10	8	-1E+10	1	-1E+10	1	-1E+10	1	-1E+10	1	-1E+10	1	-1E+10	1
4902554	72	C	02/02/2023	21:03	-132.945	48.360	0	74.00	0	8.5220	0	32.3550	0	25.122	0	73.363	0	-1e10	8	-1e10	8	-1E+10	1	-1E+10	1	-1E+10	1	-1E+10	1	-1E+10	1	-1E+10	1
4902554	72	C	02/02/2023	21:03	-132.945	48.360	0	74.80	0	8.5260	0	32.3570	0	25.123	0	74.156	0	-1e10	8	-1e10	8	-1E+10	1	-1E+10	1	-1E+10	1	-1E+10	1	-1E+10	1	-1E+10	1
4902554	72	C	02/02/2023	21:03	-132.945	48.360	0	76.00	0	8.5220	0	32.3550	0	25.122	0	75.346	0	-1e10	8	-1e10	8	-1E+10	1	-1E+10	1	-1E+10	1	-1E+10	1	-1E+10	1	-1E+10	1
4902554	72	C	02/02/2023	21:03	-132.945	48.360	0	77.10	0	8.5050	0	32.3560	0	25.125	0	76.436	0	-1e10	8	-1e10	8	-1E+10	1	-1E+10	1	-1E+10	1	-1E+10	1	-1E+10	1	-1E+10	1
4902554	72	C	02/02/2023	21:03	-132.945	48.360	0	77.80	0	8.4870	0	32.3570	0	25.129	0	77.130	0	-1e10	8	-1e10	8	-1E+10	1	-1E+10	1	-1E+10	1	-1E+10	1	-1E+10	1	-1E+10	1
4902554	72	C	02/02/2023	21:03	-132.945	48.360	0	78.80	0	8.4680	0	32.3520	0	25.128	0	78.121	0	-1e10	8	-1e10	8	-1E+10	1	-1E+10	1	-1E+10	1	-1E+10	1	-1E+10	1	-1E+10	1
4902554	72	C	02/02/2023	21:03	-132.945	48.360	0	79.80	0	8.4060	0	32.3550	0	25.139	0	79.112	0	-1e10	8	-1e10	8	-1E+10	1	-1E+10	1	-1E+10	1	-1E+10	1	-1E+10	1	-1E+10	1
4902554	72	C	02/02/2023	21:03	-132.945	48.360	0	81.10	0	8.2660	0	32.3860	0	25.184	0	80.401	0	-1e10	8	-1e10	8	-1E+10	1	-1E+10	1	-1E+10	1	-1E+10	1	-1E+10	1	-1E+10	1
4902554	72	C	02/02/2023	21:03	-132.945	48.360	0	81.90	0	8.1350	0	32.4070	0	25.220	0	81.194	0	-1e10	8	-1e10	8	-1E+10	1	-1E+10	1	-1E+10	1	-1E+10	1	-1E+10	1	-1E+10	1
4902554	72	C	02/02/2023	21:03	-132.945	48.360	0	83.00	0	8.0960	0	32.4100	0	25.228	0	82.284	0	-1e10	8	-1e10	8	-1E+10	1	-1E+10	1	-1E+10	1	-1E+10	1	-1E+10	1	-1E+10	1
4902554	72	C	02/02/2023	21:03	-132.945	48.360	0	84.20	0	8.0240	0	32.4230	0	25.248	0	83.474	0	-1e10	8	-1e10	8	-1E+10	1	-1E+10	1	-1E+10	1	-1E+10	1	-1E+10	1	-1E+10	1
4902554	72	C	02/02/2023	21:03	-132.945	48.360	0	84.90	0	7.9840	0	32.4270	0	25.257	0	84.167	0	-1e10	8	-1e10	8	-1E+10	1	-1E+10	1	-1E+10	1	-1E+10	1	-1E+10	1	-1E+10	1
4902554	72	C	02/02/2023	21:03	-132.945	48.360	0	85.80	0	7.9680	0	32.4280	0	25.260	0	85.060	0	-1e10	8	-1e10	8	-1E+10	1	-1E+10	1	-1E+10	1	-1E+10	1	-1E+10	1	-1E+10	1
4902554	72	C	02/02/2023	21:03	-132.945	48.360	0	86.80	0	7.9510	0	32.4260	0	25.261	0	86.051	0	-1e10	8	-1e10	8	-1E+10	1	-1E+10	1	-1E+10	1	-1E+10	1	-1E+10	1	-1E+10	1
4902554	72	C	02/02/2023	21:03	-132.945	48.360	0	87.80	0	7.8920	0	32.4340	0	25.276	0	87.042	0	-1e10	8	-1e10	8	-1E+10	1	-1E+10	1	-1E+10	1	-1E+10	1	-1E+10	1	-1E+10	1
4902554	72	C	02/02/2023	21:03	-132.945	48.360	0	88.80	0	7.7840	0	32.4460	0	25.301	0	88.033	0	-1e10	8	-1e10	8	-1E+10	1	-1E+10	1	-1E+10	1	-1E+10	1	-1E+10	1	-1E+10	1
4902554	72	C	02/02/2023	21:03	-132.945	48.360	0	89.80	0	7.6830	0	32.4610	0	25.327	0	89.024	0	-1e10	8	-1e10	8	-1E+10	1	-1E+10	1	-1E+10	1	-1E+10	1	-1E+10	1	-1E+10	1
4902554	72	C	02/02/2023	21:03	-132.945	48.360	0	90.90	0	7.6010	0	32.4700	0	25.346	0	90.114	0	-1e10	8	-1e10	8	-1E+10	1	-1E+10	1	-1E+10	1	-1E+10	1	-1E+10	1	-1E+10	1
4902554	72	C	02/02/2023	21:03	-132.945	48.360	0	92.00	0	7.4260	0	32.5010	0	25.394	0	91.205	0	-1e10	8	-1e10	8	-1E+10	1	-1E+10	1	-1E+10	1	-1E+10	1	-1E+10	1	-1E+10	1
4902554	72	C	02/02/2023	21:03	-132.945	48.360	0	93.10	0	7.3670	0	32.5080	0	25.408	0	92.295	0	-1e10	8	-1e10	8	-1E+10	1	-1E+10	1	-1E+10	1	-1E+10	1	-1E+10	1	-1E+10	1
4902554	72	C	02/02/2023	21:03	-132.945	48.360	0	93.90	0	7.2410	0	32.5330	0	25.445	0	93.088	0	-1e10	8	-1e10	8	-1E+10	1	-1E+10	1	-1E+10	1	-1E+10	1	-1E+10	1	-1E+10	1
4902554	72	C	02/02/2023	21:03	-132.945	48.360	0	94.80	0	7.1890	0	32.5400	0	25.457	0	93.980	0	-1e10	8	-1e10	8	-1E+10	1	-1E+10	1	-1E+10	1	-1E+10	1	-1E+10	1	-1E+10	1
4902554	72	C	02/02/2023	21:03	-132.945	48.360	0	95.90	0	7.1110	0	32.5540	0	25.479	0	95.070	0	-1e10	8	-1e10	8	-1E+10	1	-1E+10	1	-1E+10	1	-1E+10	1	-1E+10	1	-1E+10	1
4902554	72	C	02/02/2023	21:03	-132.945	48.360	0	96.90	0	7.0350	0	32.5650	0	25.498	0	96.061	0	-1e10	8	-1e10	8	-1E+10	1	-1E+10	1	-1E+10	1	-1E+10	1	-1E+10	1	-1E+10	1
4902554	72	C	02/02/2023	21:03	-132.945	48.360	0	98.00	0	6.9690	0	32.5770	0	25.516	0	97.151	0	-1e10	8	-1e10	8	-1E+10	1	-1E+10	1	-1E+10	1	-1E+10	1	-1E+10	1	-1E+10	1
4902554	72	C	02/02/2023	21:03	-132.945	48.360	0	99.10	0	6.8450	0	32.5990	0	25.550	0	98.242	0	-1e10	8	-1e10	8	-1E+10	1	-1E+10	1	-1E+10	1	-1E+10	1	-1E+10	1	-1E+10	1
4902554	72	C	02/02/2023	21:03	-132.945	48.360	0	99.90	0	6.8070	0	32.6100	0	25.563	0	99.034	0	-1e10	8	-1e10	8	-1E+10	1	-1E+10	1	-1E+10	1	-1E+10	1	-1E+10	1	-1E+10	1
4902554	72	C	02/02/2023	21:03	-132.945	48.360	0	101.10	0	6.7600	0	32.6190	0	25.577	0	100.224	0	-1e10	8	-1e10	8	-1E+10	1	-1E+10	1	-1E+10	1	-1E+10	1	-1E+10	1	-1E+10	1
4902554	72	C	02/02/2023	21:03	-132.945	48.360	0	102.00	0	6.5500	0	32.6910	0	25.661	0	101.116	0	-1e10	8	-1e10	8	-1E+10	1	-1E+10	1	-1E+10	1	-1E+10	1	-1E+10	1	-1E+10	1
4902554	72	C	02/02/2023	21:03	-132.945	48.360	0	103.00	0	6.5000	0	32.7020	0	25.676	0	102.107	0	-1e10	8	-1e10	8	-1E+10	1	-1E+10	1	-1E+10	1	-1E+10	1	-1E+10	1	-1E+10	1
4902554	72	C	02/02/2023	21:03	-132.945	48.360	0	104.20	0	6.4930	0	32.7030	0	25.677	0	103.296	0	-1e10	8	-1e10	8	-1E+10	1	-1E+10	1	-1E+10	1	-1E+10	1	-1E+10	1	-1E+10	1
4902554	72	C	02/02/2023	21:03	-132.945	48.360	0	104.80	0	6.4850	0	32.7040	0	25.679	0	103.891	0	-1e10	8	-1e10	8	-1E+10	1	-1E+10	1	-1E+10	1	-1E+10	1	-1E+10	1	-1E+10	1
4902554	72	C	02/02/2023	21:03	-132.945	48.360	0	106.00	0	6.4730	0	32.7130	0	25.688	0	105.080	0	-1e10	8	-1e10	8	-1E+10	1	-1E+10	1	-1E+10	1	-1E+10	1	-1E+10	1	-1E+10	1
4902554	72	C	02/02/2023	21:03	-132.945	48.360	0	107.30	0	6.4760	0	32.7440	0	25.712	0	106.368	0	-1e10	8	-1e10	8	-1E+10	1	-1E+10	1	-1E+10	1	-1E+10	1	-1E+10	1	-1E+10	1
4902554	72	C	02/02/2023	21:03	-132.945	48.360	0	108.00	0	6.4580	0	32.7630	0	25.729	0	107.062	0	-1e10	8	-1e10	8	-1E+10	1	-1E+10	1	-1E+10	1	-1E+10	1	-1E+10	1	-1E+10	1
4902554	72	C	02/02/2023	21:03	-132.945	48.360	0	108.90	0	6.4060	0	32.8080	0	25.771	0	107.954	0	-1e10	8	-1e10	8	-1E+10	1	-1E+10	1	-1E+10	1	-1E+10	1	-1E+10	1	-1E+10	1
4902554	72	C	02/02/2023	21:03	-132.945	48.360	0	109.80	0	6.3840	0	32.8240	0	25.787	0	108.846	0	-1e10	8	-1e10	8	-1E+10	1	-1E+10	1	-1E+10	1	-1E+10	1	-1E+10	1	-1E+10	1
4902554	72	C	02/02/2023	21:03	-132.945	48.360	0	111.00	0	6.3750	0	32.8320	0	25.794	0	110.035	0	-1e10	8	-1e10	8	-1E+10	1	-1E+10	1	-1E+10	1	-1E+10	1	-1E+10	1	-1E+10	1
4902554	72	C	02/02/2023	21:03	-132.945	48.360	0	112.00	0	6.3290	0	32.8750	0	25.834	0	111.026	0	-1e10	8	-1e10	8	-1E+10	1	-1E+10	1	-1E+10	1	-1E+10	1	-1E+10	1	-1E+10	1
4902554	72	C	02/02/2023	21:03	-132.945	48.360	0	113.00	0	6.3110	0	32.8930	0	25.851	0	112.017	0	-1e10	8	-1e10	8	-1E+10	1	-1E+10	1	-1E+10	1	-1E+10	1	-1E+10	1	-1E+10	1
4902554	72	C	02/02/2023	21:03	-132.945	48.360	0	114.00	0	6.2950	0	32.9140	0	25.869	0	113.008	0	-1e10	8	-1e10	8	-1E+10	1	-1E+10	1	-1E+10	1	-1E+10	1	-1E+10	1	-1E+10	1
4902554	72	C	02/02/2023	21:03	-132.945	48.360	0	114.80	0	6.2920	0	32.9180	0	25.873	0	113.801	0	-1e10	8	-1e10	8	-1E+10	1	-1E+10	1	-1E+10	1	-1E+10	1	-1E+10	1	-1E+10	1
4902554	72	C	02/02/2023	21:03	-132.945	48.360	0	115.80	0	6.2770	0	32.9360	0	25.889	0	114.792	0	-1e10	8	-1e10	8	-1E+10	1	-1E+10	1	-1E+10	1	-1E+10	1	-1E+10	1	-1E+10	1
4902554	72	C	02/02/2023	21:03	-132.945	48.360	0	116.90	0	6.2630	0	32.9510	0	25.902	0	115.882	0	-1e10	8	-1e10	8	-1E+10	1	-1E+10	1	-1E+10	1	-1E+10	1	-1E+10	1	-1E+10	1
4902554	72	C	02/02/2023	21:03	-132.945	48.360	0	118.00	0	6.2530	0	32.9650	0	25.915	0	116.972	0	-1e10	8	-1e10	8	-1E+10	1	-1E+10	1	-1E+10	1	-1E+10	1	-1E+10	1	-1E+10	1
4902554	72	C	02/02/2023	21:03	-132.945	48.360	0	119.10	0	6.2420	0	32.9830	0	25.930	0	118.063	0	-1e10	8	-1e10	8	-1E+10	1	-1E+10	1	-1E+10	1	-1E+10	1	-1E+10	1	-1E+10	1
4902554	72	C	02/02/2023	21:03	-132.945	48.360	0	119.90	0	6.2360	0	32.9900	0	25.937	0	118.855	0	-1e10	8	-1e10	8	-1E+10	1	-1E+10	1	-1E+10	1	-1E+10	1	-1E+10	1	-1E+10	1
4902554	72	C	02/02/2023	21:03	-132.945	48.360	0	121.00	0	6.2250	0	33.0030	0	25.948	0	119.945	0	-1e10	8	-1e10	8	-1E+10	1	-1E+10	1	-1E+10	1	-1E+10	1	-1E+10	1	-1E+10	1
4902554	72	C	02/02/2023	21:03	-132.945	48.360	0	122.10	0	6.2130	0	33.0170	0	25.961	0	121.036	0	-1e10	8	-1e10	8	-1E+10	1	-1E+10	1	-1E+10	1	-1E+10	1	-1E+10	1	-1E+10	1
4902554	72	C	02/02/2023	21:03	-132.945	48.360	0	122.80	0	6.2110	0	33.0200	0	25.963	0	121.729	0	-1e10	8	-1e10	8	-1E+10	1	-1E+10	1	-1E+10	1	-1E+10	1	-1E+10	1	-1E+10	1
4902554	72	C	02/02/2023	21:03	-132.945	48.360	0	123.80	0	6.2060	0	33.0240	0	25.967	0	122.720	0	-1e10	8	-1e10	8	-1E+10	1	-1E+10	1	-1E+10	1	-1E+10	1	-1E+10	1	-1E+10	1
4902554	72	C	02/02/2023	21:03	-132.945	48.360	0	124.90	0	6.2010	0	33.0310	0	25.973	0	123.810	0	-1e10	8	-1e10	8	-1E+10	1	-1E+10	1	-1E+10	1	-1E+10	1	-1E+10	1	-1E+10	1
4902554	72	C	02/02/2023	21:03	-132.945	48.360	0	125.90	0	6.2010	0	33.0300	0	25.973	0	124.801	0	-1e10	8	-1e10	8	-1E+10	1	-1E+10	1	-1E+10	1	-1E+10	1	-1E+10	1	-1E+10	1
4902554	72	C	02/02/2023	21:03	-132.945	48.360	0	127.00	0	6.1980	0	33.0330	0	25.975	0	125.891	0	-1e10	8	-1e10	8	-1E+10	1	-1E+10	1	-1E+10	1	-1E+10	1	-1E+10	1	-1E+10	1
4902554	72	C	02/02/2023	21:03	-132.945	48.360	0	127.80	0	6.1940	0	33.0370	0	25.979	0	126.684	0	-1e10	8	-1e10	8	-1E+10	1	-1E+10	1	-1E+10	1	-1E+10	1	-1E+10	1	-1E+10	1
4902554	72	C	02/02/2023	21:03	-132.945	48.360	0	128.80	0	6.1940	0	33.0370	0	25.979	0	127.675	0	-1e10	8	-1e10	8	-1E+10	1	-1E+10	1	-1E+10	1	-1E+10	1	-1E+10	1	-1E+10	1
4902554	72	C	02/02/2023	21:03	-132.945	48.360	0	129.90	0	6.1930	0	33.0380	0	25.980	0	128.765	0	-1e10	8	-1e10	8	-1E+10	1	-1E+10	1	-1E+10	1	-1E+10	1	-1E+10	1	-1E+10	1
4902554	72	C	02/02/2023	21:03	-132.945	48.360	0	130.90	0	6.1890	0	33.0410	0	25.983	0	129.756	0	-1e10	8	-1e10	8	-1E+10	1	-1E+10	1	-1E+10	1	-1E+10	1	-1E+10	1	-1E+10	1
4902554	72	C	02/02/2023	21:03	-132.945	48.360	0	132.00	0	6.1900	0	33.0400	0	25.982	0	130.846	0	-1e10	8	-1e10	8	-1E+10	1	-1E+10	1	-1E+10	1	-1E+10	1	-1E+10	1	-1E+10	1
4902554	72	C	02/02/2023	21:03	-132.945	48.360	0	133.00	0	6.1820	0	33.0480	0	25.989	0	131.837	0	-1e10	8	-1e10	8	-1E+10	1	-1E+10	1	-1E+10	1	-1E+10	1	-1E+10	1	-1E+10	1
4902554	72	C	02/02/2023	21:03	-132.945	48.360	0	134.10	0	6.1760	0	33.0540	0	25.995	0	132.927	0	-1e10	8	-1e10	8	-1E+10	1	-1E+10	1	-1E+10	1	-1E+10	1	-1E+10	1	-1E+10	1
4902554	72	C	02/02/2023	21:03	-132.945	48.360	0	134.80	0	6.1720	0	33.0600	0	26.000	0	133.621	0	-1e10	8	-1e10	8	-1E+10	1	-1E+10	1	-1E+10	1	-1E+10	1	-1E+10	1	-1E+10	1
4902554	72	C	02/02/2023	21:03	-132.945	48.360	0	135.80	0	6.1610	0	33.0710	0	26.010	0	134.612	0	-1e10	8	-1e10	8	-1E+10	1	-1E+10	1	-1E+10	1	-1E+10	1	-1E+10	1	-1E+10	1
4902554	72	C	02/02/2023	21:03	-132.945	48.360	0	136.90	0	6.1470	0	33.0880	0	26.025	0	135.702	0	-1e10	8	-1e10	8	-1E+10	1	-1E+10	1	-1E+10	1	-1E+10	1	-1E+10	1	-1E+10	1
4902554	72	C	02/02/2023	21:03	-132.945	48.360	0	138.00	0	6.1160	0	33.1300	0	26.062	0	136.792	0	-1e10	8	-1e10	8	-1E+10	1	-1E+10	1	-1E+10	1	-1E+10	1	-1E+10	1	-1E+10	1
4902554	72	C	02/02/2023	21:03	-132.945	48.360	0	139.10	0	6.0970	0	33.1640	0	26.092	0	137.882	0	-1e10	8	-1e10	8	-1E+10	1	-1E+10	1	-1E+10	1	-1E+10	1	-1E+10	1	-1E+10	1
4902554	72	C	02/02/2023	21:03	-132.945	48.360	0	139.90	0	6.0870	0	33.1760	0	26.102	0	138.674	0	-1e10	8	-1e10	8	-1E+10	1	-1E+10	1	-1E+10	1	-1E+10	1	-1E+10	1	-1E+10	1
4902554	72	C	02/02/2023	21:03	-132.945	48.360	0	141.00	0	6.0430	0	33.2150	0	26.139	0	139.764	0	-1e10	8	-1e10	8	-1E+10	1	-1E+10	1	-1E+10	1	-1E+10	1	-1E+10	1	-1E+10	1
4902554	72	C	02/02/2023	21:03	-132.945	48.360	0	142.20	0	6.0250	0	33.2280	0	26.151	0	140.954	0	-1e10	8	-1e10	8	-1E+10	1	-1E+10	1	-1E+10	1	-1E+10	1	-1E+10	1	-1E+10	1
4902554	72	C	02/02/2023	21:03	-132.945	48.360	0	143.00	0	6.0160	0	33.2380	0	26.160	0	141.746	0	-1e10	8	-1e10	8	-1E+10	1	-1E+10	1	-1E+10	1	-1E+10	1	-1E+10	1	-1E+10	1
4902554	72	C	02/02/2023	21:03	-132.945	48.360	0	143.80	0	6.0020	0	33.2530	0	26.174	0	142.539	0	-1e10	8	-1e10	8	-1E+10	1	-1E+10	1	-1E+10	1	-1E+10	1	-1E+10	1	-1E+10	1
4902554	72	C	02/02/2023	21:03	-132.945	48.360	0	144.70	0	5.9820	0	33.2760	0	26.194	0	143.431	0	-1e10	8	-1e10	8	-1E+10	1	-1E+10	1	-1E+10	1	-1E+10	1	-1E+10	1	-1E+10	1
4902554	72	C	02/02/2023	21:03	-132.945	48.360	0	145.90	0	5.9640	0	33.2990	0	26.215	0	144.620	0	-1e10	8	-1e10	8	-1E+10	1	-1E+10	1	-1E+10	1	-1E+10	1	-1E+10	1	-1E+10	1
4902554	72	C	02/02/2023	21:03	-132.945	48.360	0	147.30	0	5.9580	0	33.3060	0	26.221	0	146.007	0	-1e10	8	-1e10	8	-1E+10	1	-1E+10	1	-1E+10	1	-1E+10	1	-1E+10	1	-1E+10	1
4902554	72	C	02/02/2023	21:03	-132.945	48.360	0	148.20	0	5.9550	0	33.3090	0	26.224	0	146.899	0	-1e10	8	-1e10	8	-1E+10	1	-1E+10	1	-1E+10	1	-1E+10	1	-1E+10	1	-1E+10	1
4902554	72	C	02/02/2023	21:03	-132.945	48.360	0	149.10	0	5.9530	0	33.3110	0	26.226	0	147.791	0	-1e10	8	-1e10	8	-1E+10	1	-1E+10	1	-1E+10	1	-1E+10	1	-1E+10	1	-1E+10	1
4902554	72	C	02/02/2023	21:03	-132.945	48.360	0	150.00	0	5.9470	0	33.3190	0	26.233	0	148.682	0	-1e10	8	-1e10	8	-1E+10	1	-1E+10	1	-1E+10	1	-1E+10	1	-1E+10	1	-1E+10	1
4902554	72	C	02/02/2023	21:03	-132.945	48.360	0	150.90	0	5.9370	0	33.3340	0	26.246	0	149.574	0	-1e10	8	-1e10	8	-1E+10	1	-1E+10	1	-1E+10	1	-1E+10	1	-1E+10	1	-1E+10	1
4902554	72	C	02/02/2023	21:03	-132.945	48.360	0	151.90	0	5.9360	0	33.3390	0	26.250	0	150.565	0	-1e10	8	-1e10	8	-1E+10	1	-1E+10	1	-1E+10	1	-1E+10	1	-1E+10	1	-1E+10	1
4902554	72	C	02/02/2023	21:03	-132.945	48.360	0	152.80	0	5.9360	0	33.3390	0	26.250	0	151.457	0	-1e10	8	-1e10	8	-1E+10	1	-1E+10	1	-1E+10	1	-1E+10	1	-1E+10	1	-1E+10	1
4902554	72	C	02/02/2023	21:03	-132.945	48.360	0	153.80	0	5.9190	0	33.3640	0	26.272	0	152.448	0	-1e10	8	-1e10	8	-1E+10	1	-1E+10	1	-1E+10	1	-1E+10	1	-1E+10	1	-1E+10	1
4902554	72	C	02/02/2023	21:03	-132.945	48.360	0	154.80	0	5.9180	0	33.3640	0	26.272	0	153.438	0	-1e10	8	-1e10	8	-1E+10	1	-1E+10	1	-1E+10	1	-1E+10	1	-1E+10	1	-1E+10	1
4902554	72	C	02/02/2023	21:03	-132.945	48.360	0	155.80	0	5.9110	0	33.3700	0	26.277	0	154.429	0	-1e10	8	-1e10	8	-1E+10	1	-1E+10	1	-1E+10	1	-1E+10	1	-1E+10	1	-1E+10	1
4902554	72	C	02/02/2023	21:03	-132.945	48.360	0	156.80	0	5.8990	0	33.3800	0	26.287	0	155.420	0	-1e10	8	-1e10	8	-1E+10	1	-1E+10	1	-1E+10	1	-1E+10	1	-1E+10	1	-1E+10	1
4902554	72	C	02/02/2023	21:03	-132.945	48.360	0	157.80	0	5.8860	0	33.3900	0	26.296	0	156.411	0	-1e10	8	-1e10	8	-1E+10	1	-1E+10	1	-1E+10	1	-1E+10	1	-1E+10	1	-1E+10	1
4902554	72	C	02/02/2023	21:03	-132.945	48.360	0	158.80	0	5.8510	0	33.4230	0	26.327	0	157.402	0	-1e10	8	-1e10	8	-1E+10	1	-1E+10	1	-1E+10	1	-1E+10	1	-1E+10	1	-1E+10	1
4902554	72	C	02/02/2023	21:03	-132.945	48.360	0	159.90	0	5.8240	0	33.4460	0	26.348	0	158.492	0	-1e10	8	-1e10	8	-1E+10	1	-1E+10	1	-1E+10	1	-1E+10	1	-1E+10	1	-1E+10	1
4902554	72	C	02/02/2023	21:03	-132.945	48.360	0	160.90	0	5.8020	0	33.4630	0	26.364	0	159.482	0	-1e10	8	-1e10	8	-1E+10	1	-1E+10	1	-1E+10	1	-1E+10	1	-1E+10	1	-1E+10	1
4902554	72	C	02/02/2023	21:03	-132.945	48.360	0	162.00	0	5.7920	0	33.4700	0	26.371	0	160.572	0	-1e10	8	-1e10	8	-1E+10	1	-1E+10	1	-1E+10	1	-1E+10	1	-1E+10	1	-1E+10	1
4902554	72	C	02/02/2023	21:03	-132.945	48.360	0	163.10	0	5.7830	0	33.4770	0	26.378	0	161.662	0	-1e10	8	-1e10	8	-1E+10	1	-1E+10	1	-1E+10	1	-1E+10	1	-1E+10	1	-1E+10	1
4902554	72	C	02/02/2023	21:03	-132.945	48.360	0	164.10	0	5.7730	0	33.4830	0	26.384	0	162.653	0	-1e10	8	-1e10	8	-1E+10	1	-1E+10	1	-1E+10	1	-1E+10	1	-1E+10	1	-1E+10	1
4902554	72	C	02/02/2023	21:03	-132.945	48.360	0	165.20	0	5.7710	0	33.4840	0	26.385	0	163.743	0	-1e10	8	-1e10	8	-1E+10	1	-1E+10	1	-1E+10	1	-1E+10	1	-1E+10	1	-1E+10	1
4902554	72	C	02/02/2023	21:03	-132.945	48.360	0	166.20	0	5.7680	0	33.4880	0	26.388	0	164.734	0	-1e10	8	-1e10	8	-1E+10	1	-1E+10	1	-1E+10	1	-1E+10	1	-1E+10	1	-1E+10	1
4902554	72	C	02/02/2023	21:03	-132.945	48.360	0	167.20	0	5.7620	0	33.4920	0	26.392	0	165.724	0	-1e10	8	-1e10	8	-1E+10	1	-1E+10	1	-1E+10	1	-1E+10	1	-1E+10	1	-1E+10	1
4902554	72	C	02/02/2023	21:03	-132.945	48.360	0	168.20	0	5.7550	0	33.4970	0	26.397	0	166.715	0	-1e10	8	-1e10	8	-1E+10	1	-1E+10	1	-1E+10	1	-1E+10	1	-1E+10	1	-1E+10	1
4902554	72	C	02/02/2023	21:03	-132.945	48.360	0	169.30	0	5.7470	0	33.5030	0	26.403	0	167.805	0	-1e10	8	-1e10	8	-1E+10	1	-1E+10	1	-1E+10	1	-1E+10	1	-1E+10	1	-1E+10	1
4902554	72	C	02/02/2023	21:03	-132.945	48.360	0	170.30	0	5.7370	0	33.5120	0	26.411	0	168.796	0	-1e10	8	-1e10	8	-1E+10	1	-1E+10	1	-1E+10	1	-1E+10	1	-1E+10	1	-1E+10	1
4902554	72	C	02/02/2023	21:03	-132.945	48.360	0	171.30	0	5.7270	0	33.5250	0	26.423	0	169.786	0	-1e10	8	-1e10	8	-1E+10	1	-1E+10	1	-1E+10	1	-1E+10	1	-1E+10	1	-1E+10	1
4902554	72	C	02/02/2023	21:03	-132.945	48.360	0	172.40	0	5.7180	0	33.5370	0	26.433	0	170.876	0	-1e10	8	-1e10	8	-1E+10	1	-1E+10	1	-1E+10	1	-1E+10	1	-1E+10	1	-1E+10	1
4902554	72	C	02/02/2023	21:03	-132.945	48.360	0	173.40	0	5.7040	0	33.5490	0	26.444	0	171.867	0	-1e10	8	-1e10	8	-1E+10	1	-1E+10	1	-1E+10	1	-1E+10	1	-1E+10	1	-1E+10	1
4902554	72	C	02/02/2023	21:03	-132.945	48.360	0	174.40	0	5.6910	0	33.5580	0	26.453	0	172.858	0	-1e10	8	-1e10	8	-1E+10	1	-1E+10	1	-1E+10	1	-1E+10	1	-1E+10	1	-1E+10	1
4902554	72	C	02/02/2023	21:03	-132.945	48.360	0	175.40	0	5.6850	0	33.5640	0	26.459	0	173.849	0	-1e10	8	-1e10	8	-1E+10	1	-1E+10	1	-1E+10	1	-1E+10	1	-1E+10	1	-1E+10	1
4902554	72	C	02/02/2023	21:03	-132.945	48.360	0	176.30	0	5.6780	0	33.5720	0	26.466	0	174.740	0	-1e10	8	-1e10	8	-1E+10	1	-1E+10	1	-1E+10	1	-1E+10	1	-1E+10	1	-1E+10	1
4902554	72	C	02/02/2023	21:03	-132.945	48.360	0	177.40	0	5.6780	0	33.5740	0	26.467	0	175.830	0	-1e10	8	-1e10	8	-1E+10	1	-1E+10	1	-1E+10	1	-1E+10	1	-1E+10	1	-1E+10	1
4902554	72	C	02/02/2023	21:03	-132.945	48.360	0	178.40	0	5.6640	0	33.5920	0	26.483	0	176.821	0	-1e10	8	-1e10	8	-1E+10	1	-1E+10	1	-1E+10	1	-1E+10	1	-1E+10	1	-1E+10	1
4902554	72	C	02/02/2023	21:03	-132.945	48.360	0	179.40	0	5.6630	0	33.5920	0	26.483	0	177.811	0	-1e10	8	-1e10	8	-1E+10	1	-1E+10	1	-1E+10	1	-1E+10	1	-1E+10	1	-1E+10	1
4902554	72	C	02/02/2023	21:03	-132.945	48.360	0	180.40	0	5.6500	0	33.6030	0	26.494	0	178.802	0	-1e10	8	-1e10	8	-1E+10	1	-1E+10	1	-1E+10	1	-1E+10	1	-1E+10	1	-1E+10	1
4902554	72	C	02/02/2023	21:03	-132.945	48.360	0	181.50	0	5.6410	0	33.6090	0	26.499	0	179.892	0	-1e10	8	-1e10	8	-1E+10	1	-1E+10	1	-1E+10	1	-1E+10	1	-1E+10	1	-1E+10	1
4902554	72	C	02/02/2023	21:03	-132.945	48.360	0	182.50	0	5.6320	0	33.6150	0	26.505	0	180.883	0	-1e10	8	-1e10	8	-1E+10	1	-1E+10	1	-1E+10	1	-1E+10	1	-1E+10	1	-1E+10	1
4902554	72	C	02/02/2023	21:03	-132.945	48.360	0	183.50	0	5.6100	0	33.6240	0	26.515	0	181.873	0	-1e10	8	-1e10	8	-1E+10	1	-1E+10	1	-1E+10	1	-1E+10	1	-1E+10	1	-1E+10	1
4902554	72	C	02/02/2023	21:03	-132.945	48.360	0	184.50	0	5.5900	0	33.6320	0	26.524	0	182.864	0	-1e10	8	-1e10	8	-1E+10	1	-1E+10	1	-1E+10	1	-1E+10	1	-1E+10	1	-1E+10	1
4902554	72	C	02/02/2023	21:03	-132.945	48.360	0	185.60	0	5.5800	0	33.6350	0	26.527	0	183.954	0	-1e10	8	-1e10	8	-1E+10	1	-1E+10	1	-1E+10	1	-1E+10	1	-1E+10	1	-1E+10	1
4902554	72	C	02/02/2023	21:03	-132.945	48.360	0	186.60	0	5.5690	0	33.6410	0	26.533	0	184.944	0	-1e10	8	-1e10	8	-1E+10	1	-1E+10	1	-1E+10	1	-1E+10	1	-1E+10	1	-1E+10	1
4902554	72	C	02/02/2023	21:03	-132.945	48.360	0	187.50	0	5.5680	0	33.6430	0	26.535	0	185.836	0	-1e10	8	-1e10	8	-1E+10	1	-1E+10	1	-1E+10	1	-1E+10	1	-1E+10	1	-1E+10	1
4902554	72	C	02/02/2023	21:03	-132.945	48.360	0	188.90	0	5.5570	0	33.6510	0	26.543	0	187.223	0	-1e10	8	-1e10	8	-1E+10	1	-1E+10	1	-1E+10	1	-1E+10	1	-1E+10	1	-1E+10	1
4902554	72	C	02/02/2023	21:03	-132.945	48.360	0	190.30	0	5.5310	0	33.6650	0	26.557	0	188.610	0	-1e10	8	-1e10	8	-1E+10	1	-1E+10	1	-1E+10	1	-1E+10	1	-1E+10	1	-1E+10	1
4902554	72	C	02/02/2023	21:03	-132.945	48.360	0	191.20	0	5.5200	0	33.6670	0	26.560	0	189.502	0	-1e10	8	-1e10	8	-1E+10	1	-1E+10	1	-1E+10	1	-1E+10	1	-1E+10	1	-1E+10	1
4902554	72	C	02/02/2023	21:03	-132.945	48.360	0	191.90	0	5.5140	0	33.6720	0	26.565	0	190.195	0	-1e10	8	-1e10	8	-1E+10	1	-1E+10	1	-1E+10	1	-1E+10	1	-1E+10	1	-1E+10	1
4902554	72	C	02/02/2023	21:03	-132.945	48.360	0	192.90	0	5.4870	0	33.6870	0	26.580	0	191.186	0	-1e10	8	-1e10	8	-1E+10	1	-1E+10	1	-1E+10	1	-1E+10	1	-1E+10	1	-1E+10	1
4902554	72	C	02/02/2023	21:03	-132.945	48.360	0	194.10	0	5.4420	0	33.7050	0	26.599	0	192.374	0	-1e10	8	-1e10	8	-1E+10	1	-1E+10	1	-1E+10	1	-1E+10	1	-1E+10	1	-1E+10	1
4902554	72	C	02/02/2023	21:03	-132.945	48.360	0	194.80	0	5.4290	0	33.7090	0	26.604	0	193.068	0	-1e10	8	-1e10	8	-1E+10	1	-1E+10	1	-1E+10	1	-1E+10	1	-1E+10	1	-1E+10	1
4902554	72	C	02/02/2023	21:03	-132.945	48.360	0	195.90	0	5.4150	0	33.7130	0	26.609	0	194.158	0	-1e10	8	-1e10	8	-1E+10	1	-1E+10	1	-1E+10	1	-1E+10	1	-1E+10	1	-1E+10	1
4902554	72	C	02/02/2023	21:03	-132.945	48.360	0	197.00	0	5.4020	0	33.7160	0	26.613	0	195.247	0	-1e10	8	-1e10	8	-1E+10	1	-1E+10	1	-1E+10	1	-1E+10	1	-1E+10	1	-1E+10	1
4902554	72	C	02/02/2023	21:03	-132.945	48.360	0	197.80	0	5.4000	0	33.7170	0	26.614	0	196.040	0	-1e10	8	-1e10	8	-1E+10	1	-1E+10	1	-1E+10	1	-1E+10	1	-1E+10	1	-1E+10	1
4902554	72	C	02/02/2023	21:03	-132.945	48.360	0	198.80	0	5.3920	0	33.7180	0	26.616	0	197.030	0	-1e10	8	-1e10	8	-1E+10	1	-1E+10	1	-1E+10	1	-1E+10	1	-1E+10	1	-1E+10	1
4902554	72	C	02/02/2023	21:03	-132.945	48.360	0	200.00	0	5.3880	0	33.7200	0	26.618	0	198.219	0	-1e10	8	-1e10	8	-1E+10	1	-1E+10	1	-1E+10	1	-1E+10	1	-1E+10	1	-1E+10	1
4902554	72	C	02/02/2023	21:03	-132.945	48.360	0	200.80	0	5.3840	0	33.7220	0	26.620	0	199.012	0	-1e10	8	-1e10	8	-1E+10	1	-1E+10	1	-1E+10	1	-1E+10	1	-1E+10	1	-1E+10	1
4902554	72	C	02/02/2023	21:03	-132.945	48.360	0	201.90	0	5.3810	0	33.7220	0	26.620	0	200.101	0	-1e10	8	-1e10	8	-1E+10	1	-1E+10	1	-1E+10	1	-1E+10	1	-1E+10	1	-1E+10	1
4902554	72	C	02/02/2023	21:03	-132.945	48.360	0	203.10	0	5.3790	0	33.7220	0	26.620	0	201.290	0	-1e10	8	-1e10	8	-1E+10	1	-1E+10	1	-1E+10	1	-1E+10	1	-1E+10	1	-1E+10	1
4902554	72	C	02/02/2023	21:03	-132.945	48.360	0	203.90	0	5.3770	0	33.7220	0	26.621	0	202.082	0	-1e10	8	-1e10	8	-1E+10	1	-1E+10	1	-1E+10	1	-1E+10	1	-1E+10	1	-1E+10	1
4902554	72	C	02/02/2023	21:03	-132.945	48.360	0	204.70	0	5.3690	0	33.7250	0	26.624	0	202.875	0	-1e10	8	-1e10	8	-1E+10	1	-1E+10	1	-1E+10	1	-1E+10	1	-1E+10	1	-1E+10	1
4902554	72	C	02/02/2023	21:03	-132.945	48.360	0	205.90	0	5.3550	0	33.7270	0	26.627	0	204.064	0	-1e10	8	-1e10	8	-1E+10	1	-1E+10	1	-1E+10	1	-1E+10	1	-1E+10	1	-1E+10	1
4902554	72	C	02/02/2023	21:03	-132.945	48.360	0	207.20	0	5.3460	0	33.7280	0	26.629	0	205.351	0	-1e10	8	-1e10	8	-1E+10	1	-1E+10	1	-1E+10	1	-1E+10	1	-1E+10	1	-1E+10	1
4902554	72	C	02/02/2023	21:03	-132.945	48.360	0	208.00	0	5.3380	0	33.7300	0	26.631	0	206.144	0	-1e10	8	-1e10	8	-1E+10	1	-1E+10	1	-1E+10	1	-1E+10	1	-1E+10	1	-1E+10	1
4902554	72	C	02/02/2023	21:03	-132.945	48.360	0	208.90	0	5.3330	0	33.7310	0	26.633	0	207.035	0	-1e10	8	-1e10	8	-1E+10	1	-1E+10	1	-1E+10	1	-1E+10	1	-1E+10	1	-1E+10	1
4902554	72	C	02/02/2023	21:03	-132.945	48.360	0	209.70	0	5.3310	0	33.7310	0	26.633	0	207.828	0	-1e10	8	-1e10	8	-1E+10	1	-1E+10	1	-1E+10	1	-1E+10	1	-1E+10	1	-1E+10	1
4902554	72	C	02/02/2023	21:03	-132.945	48.360	0	210.60	0	5.3200	0	33.7330	0	26.636	0	208.719	0	-1e10	8	-1e10	8	-1E+10	1	-1E+10	1	-1E+10	1	-1E+10	1	-1E+10	1	-1E+10	1
4902554	72	C	02/02/2023	21:03	-132.945	48.360	0	211.90	0	5.2890	0	33.7360	0	26.642	0	210.007	0	-1e10	8	-1e10	8	-1E+10	1	-1E+10	1	-1E+10	1	-1E+10	1	-1E+10	1	-1E+10	1
4902554	72	C	02/02/2023	21:03	-132.945	48.360	0	213.30	0	5.2650	0	33.7380	0	26.646	0	211.394	0	-1e10	8	-1e10	8	-1E+10	1	-1E+10	1	-1E+10	1	-1E+10	1	-1E+10	1	-1E+10	1
4902554	72	C	02/02/2023	21:03	-132.945	48.360	0	214.20	0	5.2620	0	33.7380	0	26.647	0	212.285	0	-1e10	8	-1e10	8	-1E+10	1	-1E+10	1	-1E+10	1	-1E+10	1	-1E+10	1	-1E+10	1
4902554	72	C	02/02/2023	21:03	-132.945	48.360	0	215.10	0	5.2590	0	33.7400	0	26.649	0	213.177	0	-1e10	8	-1e10	8	-1E+10	1	-1E+10	1	-1E+10	1	-1E+10	1	-1E+10	1	-1E+10	1
4902554	72	C	02/02/2023	21:03	-132.945	48.360	0	216.00	0	5.2390	0	33.7410	0	26.652	0	214.068	0	-1e10	8	-1e10	8	-1E+10	1	-1E+10	1	-1E+10	1	-1E+10	1	-1E+10	1	-1E+10	1
4902554	72	C	02/02/2023	21:03	-132.945	48.360	0	217.00	0	5.2130	0	33.7490	0	26.661	0	215.059	0	-1e10	8	-1e10	8	-1E+10	1	-1E+10	1	-1E+10	1	-1E+10	1	-1E+10	1	-1E+10	1
4902554	72	C	02/02/2023	21:03	-132.945	48.360	0	217.90	0	5.1990	0	33.7480	0	26.662	0	215.950	0	-1e10	8	-1e10	8	-1E+10	1	-1E+10	1	-1E+10	1	-1E+10	1	-1E+10	1	-1E+10	1
4902554	72	C	02/02/2023	21:03	-132.945	48.360	0	218.80	0	5.1960	0	33.7480	0	26.662	0	216.842	0	-1e10	8	-1e10	8	-1E+10	1	-1E+10	1	-1E+10	1	-1E+10	1	-1E+10	1	-1E+10	1
4902554	72	C	02/02/2023	21:03	-132.945	48.360	0	219.80	0	5.1890	0	33.7500	0	26.665	0	217.832	0	-1e10	8	-1e10	8	-1E+10	1	-1E+10	1	-1E+10	1	-1E+10	1	-1E+10	1	-1E+10	1
4902554	72	C	02/02/2023	21:03	-132.945	48.360	0	220.80	0	5.1860	0	33.7500	0	26.665	0	218.823	0	-1e10	8	-1e10	8	-1E+10	1	-1E+10	1	-1E+10	1	-1E+10	1	-1E+10	1	-1E+10	1
4902554	72	C	02/02/2023	21:03	-132.945	48.360	0	221.80	0	5.1670	0	33.7540	0	26.670	0	219.813	0	-1e10	8	-1e10	8	-1E+10	1	-1E+10	1	-1E+10	1	-1E+10	1	-1E+10	1	-1E+10	1
4902554	72	C	02/02/2023	21:03	-132.945	48.360	0	222.80	0	5.1610	0	33.7560	0	26.673	0	220.804	0	-1e10	8	-1e10	8	-1E+10	1	-1E+10	1	-1E+10	1	-1E+10	1	-1E+10	1	-1E+10	1
4902554	72	C	02/02/2023	21:03	-132.945	48.360	0	223.80	0	5.1570	0	33.7570	0	26.674	0	221.794	0	-1e10	8	-1e10	8	-1E+10	1	-1E+10	1	-1E+10	1	-1E+10	1	-1E+10	1	-1E+10	1
4902554	72	C	02/02/2023	21:03	-132.945	48.360	0	224.80	0	5.1550	0	33.7570	0	26.674	0	222.785	0	-1e10	8	-1e10	8	-1E+10	1	-1E+10	1	-1E+10	1	-1E+10	1	-1E+10	1	-1E+10	1
4902554	72	C	02/02/2023	21:03	-132.945	48.360	0	225.80	0	5.1440	0	33.7600	0	26.678	0	223.775	0	-1e10	8	-1e10	8	-1E+10	1	-1E+10	1	-1E+10	1	-1E+10	1	-1E+10	1	-1E+10	1
4902554	72	C	02/02/2023	21:03	-132.945	48.360	0	226.80	0	5.1190	0	33.7640	0	26.684	0	224.766	0	-1e10	8	-1e10	8	-1E+10	1	-1E+10	1	-1E+10	1	-1E+10	1	-1E+10	1	-1E+10	1
4902554	72	C	02/02/2023	21:03	-132.945	48.360	0	227.80	0	5.0930	0	33.7700	0	26.692	0	225.756	0	-1e10	8	-1e10	8	-1E+10	1	-1E+10	1	-1E+10	1	-1E+10	1	-1E+10	1	-1E+10	1
4902554	72	C	02/02/2023	21:03	-132.945	48.360	0	228.90	0	5.0870	0	33.7700	0	26.692	0	226.846	0	-1e10	8	-1e10	8	-1E+10	1	-1E+10	1	-1E+10	1	-1E+10	1	-1E+10	1	-1E+10	1
4902554	72	C	02/02/2023	21:03	-132.945	48.360	0	229.90	0	5.0870	0	33.7700	0	26.692	0	227.836	0	-1e10	8	-1e10	8	-1E+10	1	-1E+10	1	-1E+10	1	-1E+10	1	-1E+10	1	-1E+10	1
4902554	72	C	02/02/2023	21:03	-132.945	48.360	0	231.00	0	5.0790	0	33.7710	0	26.694	0	228.926	0	-1e10	8	-1e10	8	-1E+10	1	-1E+10	1	-1E+10	1	-1E+10	1	-1E+10	1	-1E+10	1
4902554	72	C	02/02/2023	21:03	-132.945	48.360	0	232.00	0	5.0740	0	33.7730	0	26.696	0	229.916	0	-1e10	8	-1e10	8	-1E+10	1	-1E+10	1	-1E+10	1	-1E+10	1	-1E+10	1	-1E+10	1
4902554	72	C	02/02/2023	21:03	-132.945	48.360	0	233.10	0	5.0680	0	33.7750	0	26.699	0	231.006	0	-1e10	8	-1e10	8	-1E+10	1	-1E+10	1	-1E+10	1	-1E+10	1	-1E+10	1	-1E+10	1
4902554	72	C	02/02/2023	21:03	-132.945	48.360	0	234.10	0	5.0660	0	33.7760	0	26.700	0	231.996	0	-1e10	8	-1e10	8	-1E+10	1	-1E+10	1	-1E+10	1	-1E+10	1	-1E+10	1	-1E+10	1
4902554	72	C	02/02/2023	21:03	-132.945	48.360	0	235.20	0	5.0640	0	33.7760	0	26.700	0	233.086	0	-1e10	8	-1e10	8	-1E+10	1	-1E+10	1	-1E+10	1	-1E+10	1	-1E+10	1	-1E+10	1
4902554	72	C	02/02/2023	21:03	-132.945	48.360	0	236.20	0	5.0620	0	33.7770	0	26.701	0	234.076	0	-1e10	8	-1e10	8	-1E+10	1	-1E+10	1	-1E+10	1	-1E+10	1	-1E+10	1	-1E+10	1
4902554	72	C	02/02/2023	21:03	-132.945	48.360	0	237.30	0	5.0600	0	33.7780	0	26.702	0	235.166	0	-1e10	8	-1e10	8	-1E+10	1	-1E+10	1	-1E+10	1	-1E+10	1	-1E+10	1	-1E+10	1
4902554	72	C	02/02/2023	21:03	-132.945	48.360	0	238.40	0	5.0550	0	33.7800	0	26.704	0	236.255	0	-1e10	8	-1e10	8	-1E+10	1	-1E+10	1	-1E+10	1	-1E+10	1	-1E+10	1	-1E+10	1
4902554	72	C	02/02/2023	21:03	-132.945	48.360	0	239.40	0	5.0530	0	33.7800	0	26.704	0	237.246	0	-1e10	8	-1e10	8	-1E+10	1	-1E+10	1	-1E+10	1	-1E+10	1	-1E+10	1	-1E+10	1
4902554	72	C	02/02/2023	21:03	-132.945	48.360	0	240.50	0	5.0420	0	33.7820	0	26.707	0	238.335	0	-1e10	8	-1e10	8	-1E+10	1	-1E+10	1	-1E+10	1	-1E+10	1	-1E+10	1	-1E+10	1
4902554	72	C	02/02/2023	21:03	-132.945	48.360	0	241.60	0	5.0370	0	33.7830	0	26.708	0	239.425	0	-1e10	8	-1e10	8	-1E+10	1	-1E+10	1	-1E+10	1	-1E+10	1	-1E+10	1	-1E+10	1
4902554	72	C	02/02/2023	21:03	-132.945	48.360	0	242.70	0	5.0330	0	33.7840	0	26.710	0	240.514	0	-1e10	8	-1e10	8	-1E+10	1	-1E+10	1	-1E+10	1	-1E+10	1	-1E+10	1	-1E+10	1
4902554	72	C	02/02/2023	21:03	-132.945	48.360	0	243.70	0	5.0190	0	33.7860	0	26.713	0	241.505	0	-1e10	8	-1e10	8	-1E+10	1	-1E+10	1	-1E+10	1	-1E+10	1	-1E+10	1	-1E+10	1
4902554	72	C	02/02/2023	21:03	-132.945	48.360	0	244.80	0	5.0180	0	33.7860	0	26.713	0	242.594	0	-1e10	8	-1e10	8	-1E+10	1	-1E+10	1	-1E+10	1	-1E+10	1	-1E+10	1	-1E+10	1
4902554	72	C	02/02/2023	21:03	-132.945	48.360	0	245.90	0	5.0160	0	33.7870	0	26.714	0	243.683	0	-1e10	8	-1e10	8	-1E+10	1	-1E+10	1	-1E+10	1	-1E+10	1	-1E+10	1	-1E+10	1
4902554	72	C	02/02/2023	21:03	-132.945	48.360	0	246.90	0	5.0100	0	33.7870	0	26.715	0	244.674	0	-1e10	8	-1e10	8	-1E+10	1	-1E+10	1	-1E+10	1	-1E+10	1	-1E+10	1	-1E+10	1
4902554	72	C	02/02/2023	21:03	-132.945	48.360	0	248.00	0	5.0080	0	33.7880	0	26.716	0	245.763	0	-1e10	8	-1e10	8	-1E+10	1	-1E+10	1	-1E+10	1	-1E+10	1	-1E+10	1	-1E+10	1
4902554	72	C	02/02/2023	21:03	-132.945	48.360	0	249.10	0	5.0040	0	33.7880	0	26.716	0	246.853	0	-1e10	8	-1e10	8	-1E+10	1	-1E+10	1	-1E+10	1	-1E+10	1	-1E+10	1	-1E+10	1
4902554	72	C	02/02/2023	21:03	-132.945	48.360	0	250.10	0	4.9970	0	33.7890	0	26.718	0	247.843	0	-1e10	8	-1e10	8	-1E+10	1	-1E+10	1	-1E+10	1	-1E+10	1	-1E+10	1	-1E+10	1
4902554	72	C	02/02/2023	21:03	-132.945	48.360	0	251.20	0	4.9890	0	33.7900	0	26.720	0	248.932	0	-1e10	8	-1e10	8	-1E+10	1	-1E+10	1	-1E+10	1	-1E+10	1	-1E+10	1	-1E+10	1
4902554	72	C	02/02/2023	21:03	-132.945	48.360	0	252.30	0	4.9830	0	33.7910	0	26.721	0	250.022	0	-1e10	8	-1e10	8	-1E+10	1	-1E+10	1	-1E+10	1	-1E+10	1	-1E+10	1	-1E+10	1
4902554	72	C	02/02/2023	21:03	-132.945	48.360	0	253.30	0	4.9780	0	33.7930	0	26.723	0	251.012	0	-1e10	8	-1e10	8	-1E+10	1	-1E+10	1	-1E+10	1	-1E+10	1	-1E+10	1	-1E+10	1
4902554	72	C	02/02/2023	21:03	-132.945	48.360	0	254.40	0	4.9750	0	33.7940	0	26.724	0	252.102	0	-1e10	8	-1e10	8	-1E+10	1	-1E+10	1	-1E+10	1	-1E+10	1	-1E+10	1	-1E+10	1
4902554	72	C	02/02/2023	21:03	-132.945	48.360	0	255.40	0	4.9690	0	33.7940	0	26.725	0	253.092	0	-1e10	8	-1e10	8	-1E+10	1	-1E+10	1	-1E+10	1	-1E+10	1	-1E+10	1	-1E+10	1
4902554	72	C	02/02/2023	21:03	-132.945	48.360	0	256.50	0	4.9670	0	33.7940	0	26.725	0	254.181	0	-1e10	8	-1e10	8	-1E+10	1	-1E+10	1	-1E+10	1	-1E+10	1	-1E+10	1	-1E+10	1
4902554	72	C	02/02/2023	21:03	-132.945	48.360	0	257.50	0	4.9630	0	33.7960	0	26.727	0	255.172	0	-1e10	8	-1e10	8	-1E+10	1	-1E+10	1	-1E+10	1	-1E+10	1	-1E+10	1	-1E+10	1
4902554	72	C	02/02/2023	21:03	-132.945	48.360	0	258.50	0	4.9590	0	33.7950	0	26.727	0	256.162	0	-1e10	8	-1e10	8	-1E+10	1	-1E+10	1	-1E+10	1	-1E+10	1	-1E+10	1	-1E+10	1
4902554	72	C	02/02/2023	21:03	-132.945	48.360	0	259.50	0	4.9540	0	33.7960	0	26.728	0	257.152	0	-1e10	8	-1e10	8	-1E+10	1	-1E+10	1	-1E+10	1	-1E+10	1	-1E+10	1	-1E+10	1
4902554	72	C	02/02/2023	21:03	-132.945	48.360	0	260.50	0	4.9440	0	33.7970	0	26.730	0	258.143	0	-1e10	8	-1e10	8	-1E+10	1	-1E+10	1	-1E+10	1	-1E+10	1	-1E+10	1	-1E+10	1
4902554	72	C	02/02/2023	21:03	-132.945	48.360	0	261.60	0	4.9330	0	33.8000	0	26.734	0	259.232	0	-1e10	8	-1e10	8	-1E+10	1	-1E+10	1	-1E+10	1	-1E+10	1	-1E+10	1	-1E+10	1
4902554	72	C	02/02/2023	21:03	-132.945	48.360	0	262.60	0	4.9320	0	33.7980	0	26.732	0	260.222	0	-1e10	8	-1e10	8	-1E+10	1	-1E+10	1	-1E+10	1	-1E+10	1	-1E+10	1	-1E+10	1
4902554	72	C	02/02/2023	21:03	-132.945	48.360	0	263.70	0	4.9030	0	33.8080	0	26.744	0	261.312	0	-1e10	8	-1e10	8	-1E+10	1	-1E+10	1	-1E+10	1	-1E+10	1	-1E+10	1	-1E+10	1
4902554	72	C	02/02/2023	21:03	-132.945	48.360	0	264.80	0	4.8920	0	33.8090	0	26.746	0	262.401	0	-1e10	8	-1e10	8	-1E+10	1	-1E+10	1	-1E+10	1	-1E+10	1	-1E+10	1	-1E+10	1
4902554	72	C	02/02/2023	21:03	-132.945	48.360	0	265.90	0	4.8840	0	33.8090	0	26.747	0	263.490	0	-1e10	8	-1e10	8	-1E+10	1	-1E+10	1	-1E+10	1	-1E+10	1	-1E+10	1	-1E+10	1
4902554	72	C	02/02/2023	21:03	-132.945	48.360	0	266.90	0	4.8820	0	33.8090	0	26.747	0	264.481	0	-1e10	8	-1e10	8	-1E+10	1	-1E+10	1	-1E+10	1	-1E+10	1	-1E+10	1	-1E+10	1
4902554	72	C	02/02/2023	21:03	-132.945	48.360	0	268.00	0	4.8720	0	33.8110	0	26.749	0	265.570	0	-1e10	8	-1e10	8	-1E+10	1	-1E+10	1	-1E+10	1	-1E+10	1	-1E+10	1	-1E+10	1
4902554	72	C	02/02/2023	21:03	-132.945	48.360	0	269.10	0	4.8560	0	33.8140	0	26.754	0	266.659	0	-1e10	8	-1e10	8	-1E+10	1	-1E+10	1	-1E+10	1	-1E+10	1	-1E+10	1	-1E+10	1
4902554	72	C	02/02/2023	21:03	-132.945	48.360	0	270.10	0	4.8510	0	33.8150	0	26.755	0	267.650	0	-1e10	8	-1e10	8	-1E+10	1	-1E+10	1	-1E+10	1	-1E+10	1	-1E+10	1	-1E+10	1
4902554	72	C	02/02/2023	21:03	-132.945	48.360	0	271.20	0	4.8380	0	33.8180	0	26.759	0	268.739	0	-1e10	8	-1e10	8	-1E+10	1	-1E+10	1	-1E+10	1	-1E+10	1	-1E+10	1	-1E+10	1
4902554	72	C	02/02/2023	21:03	-132.945	48.360	0	272.30	0	4.8330	0	33.8190	0	26.760	0	269.828	0	-1e10	8	-1e10	8	-1E+10	1	-1E+10	1	-1E+10	1	-1E+10	1	-1E+10	1	-1E+10	1
4902554	72	C	02/02/2023	21:03	-132.945	48.360	0	273.30	0	4.8320	0	33.8180	0	26.760	0	270.818	0	-1e10	8	-1e10	8	-1E+10	1	-1E+10	1	-1E+10	1	-1E+10	1	-1E+10	1	-1E+10	1
4902554	72	C	02/02/2023	21:03	-132.945	48.360	0	274.40	0	4.8320	0	33.8180	0	26.760	0	271.908	0	-1e10	8	-1e10	8	-1E+10	1	-1E+10	1	-1E+10	1	-1E+10	1	-1E+10	1	-1E+10	1
4902554	72	C	02/02/2023	21:03	-132.945	48.360	0	275.40	0	4.8310	0	33.8180	0	26.760	0	272.898	0	-1e10	8	-1e10	8	-1E+10	1	-1E+10	1	-1E+10	1	-1E+10	1	-1E+10	1	-1E+10	1
4902554	72	C	02/02/2023	21:03	-132.945	48.360	0	276.40	0	4.8280	0	33.8180	0	26.760	0	273.888	0	-1e10	8	-1e10	8	-1E+10	1	-1E+10	1	-1E+10	1	-1E+10	1	-1E+10	1	-1E+10	1
4902554	72	C	02/02/2023	21:03	-132.945	48.360	0	277.40	0	4.8240	0	33.8190	0	26.761	0	274.879	0	-1e10	8	-1e10	8	-1E+10	1	-1E+10	1	-1E+10	1	-1E+10	1	-1E+10	1	-1E+10	1
4902554	72	C	02/02/2023	21:03	-132.945	48.360	0	278.50	0	4.7980	0	33.8240	0	26.768	0	275.968	0	-1e10	8	-1e10	8	-1E+10	1	-1E+10	1	-1E+10	1	-1E+10	1	-1E+10	1	-1E+10	1
4902554	72	C	02/02/2023	21:03	-132.945	48.360	0	279.50	0	4.7900	0	33.8260	0	26.771	0	276.958	0	-1e10	8	-1e10	8	-1E+10	1	-1E+10	1	-1E+10	1	-1E+10	1	-1E+10	1	-1E+10	1
4902554	72	C	02/02/2023	21:03	-132.945	48.360	0	280.50	0	4.7880	0	33.8260	0	26.771	0	277.948	0	-1e10	8	-1e10	8	-1E+10	1	-1E+10	1	-1E+10	1	-1E+10	1	-1E+10	1	-1E+10	1
4902554	72	C	02/02/2023	21:03	-132.945	48.360	0	281.50	0	4.7860	0	33.8260	0	26.771	0	278.939	0	-1e10	8	-1e10	8	-1E+10	1	-1E+10	1	-1E+10	1	-1E+10	1	-1E+10	1	-1E+10	1
4902554	72	C	02/02/2023	21:03	-132.945	48.360	0	282.50	0	4.7840	0	33.8260	0	26.771	0	279.929	0	-1e10	8	-1e10	8	-1E+10	1	-1E+10	1	-1E+10	1	-1E+10	1	-1E+10	1	-1E+10	1
4902554	72	C	02/02/2023	21:03	-132.945	48.360	0	283.50	0	4.7830	0	33.8250	0	26.771	0	280.919	0	-1e10	8	-1e10	8	-1E+10	1	-1E+10	1	-1E+10	1	-1E+10	1	-1E+10	1	-1E+10	1
4902554	72	C	02/02/2023	21:03	-132.945	48.360	0	284.90	0	4.7580	0	33.8280	0	26.776	0	282.305	0	-1e10	8	-1e10	8	-1E+10	1	-1E+10	1	-1E+10	1	-1E+10	1	-1E+10	1	-1E+10	1
4902554	72	C	02/02/2023	21:03	-132.945	48.360	0	286.40	0	4.7490	0	33.8290	0	26.778	0	283.791	0	-1e10	8	-1e10	8	-1E+10	1	-1E+10	1	-1E+10	1	-1E+10	1	-1E+10	1	-1E+10	1
4902554	72	C	02/02/2023	21:03	-132.945	48.360	0	287.40	0	4.7210	0	33.8330	0	26.784	0	284.781	0	-1e10	8	-1e10	8	-1E+10	1	-1E+10	1	-1E+10	1	-1E+10	1	-1E+10	1	-1E+10	1
4902554	72	C	02/02/2023	21:03	-132.945	48.360	0	288.40	0	4.7200	0	33.8330	0	26.784	0	285.771	0	-1e10	8	-1e10	8	-1E+10	1	-1E+10	1	-1E+10	1	-1E+10	1	-1E+10	1	-1E+10	1
4902554	72	C	02/02/2023	21:03	-132.945	48.360	0	289.30	0	4.7220	0	33.8330	0	26.784	0	286.662	0	-1e10	8	-1e10	8	-1E+10	1	-1E+10	1	-1E+10	1	-1E+10	1	-1E+10	1	-1E+10	1
4902554	72	C	02/02/2023	21:03	-132.945	48.360	0	290.30	0	4.7220	0	33.8340	0	26.785	0	287.652	0	-1e10	8	-1e10	8	-1E+10	1	-1E+10	1	-1E+10	1	-1E+10	1	-1E+10	1	-1E+10	1
4902554	72	C	02/02/2023	21:03	-132.945	48.360	0	291.30	0	4.7230	0	33.8340	0	26.784	0	288.642	0	-1e10	8	-1e10	8	-1E+10	1	-1E+10	1	-1E+10	1	-1E+10	1	-1E+10	1	-1E+10	1
4902554	72	C	02/02/2023	21:03	-132.945	48.360	0	292.20	0	4.7250	0	33.8350	0	26.785	0	289.534	0	-1e10	8	-1e10	8	-1E+10	1	-1E+10	1	-1E+10	1	-1E+10	1	-1E+10	1	-1E+10	1
4902554	72	C	02/02/2023	21:03	-132.945	48.360	0	293.20	0	4.7260	0	33.8370	0	26.786	0	290.524	0	-1e10	8	-1e10	8	-1E+10	1	-1E+10	1	-1E+10	1	-1E+10	1	-1E+10	1	-1E+10	1
4902554	72	C	02/02/2023	21:03	-132.945	48.360	0	294.10	0	4.7210	0	33.8380	0	26.788	0	291.415	0	-1e10	8	-1e10	8	-1E+10	1	-1E+10	1	-1E+10	1	-1E+10	1	-1E+10	1	-1E+10	1
4902554	72	C	02/02/2023	21:03	-132.945	48.360	0	295.10	0	4.7100	0	33.8420	0	26.792	0	292.405	0	-1e10	8	-1e10	8	-1E+10	1	-1E+10	1	-1E+10	1	-1E+10	1	-1E+10	1	-1E+10	1
4902554	72	C	02/02/2023	21:03	-132.945	48.360	0	296.00	0	4.6970	0	33.8420	0	26.794	0	293.296	0	-1e10	8	-1e10	8	-1E+10	1	-1E+10	1	-1E+10	1	-1E+10	1	-1E+10	1	-1E+10	1
4902554	72	C	02/02/2023	21:03	-132.945	48.360	0	297.00	0	4.6930	0	33.8420	0	26.794	0	294.286	0	-1e10	8	-1e10	8	-1E+10	1	-1E+10	1	-1E+10	1	-1E+10	1	-1E+10	1	-1E+10	1
4902554	72	C	02/02/2023	21:03	-132.945	48.360	0	297.90	0	4.6960	0	33.8430	0	26.795	0	295.178	0	-1e10	8	-1e10	8	-1E+10	1	-1E+10	1	-1E+10	1	-1E+10	1	-1E+10	1	-1E+10	1
4902554	72	C	02/02/2023	21:03	-132.945	48.360	0	298.90	0	4.6940	0	33.8430	0	26.795	0	296.168	0	-1e10	8	-1e10	8	-1E+10	1	-1E+10	1	-1E+10	1	-1E+10	1	-1E+10	1	-1E+10	1
4902554	72	C	02/02/2023	21:03	-132.945	48.360	0	299.80	0	4.6770	0	33.8460	0	26.799	0	297.059	0	-1e10	8	-1e10	8	-1E+10	1	-1E+10	1	-1E+10	1	-1E+10	1	-1E+10	1	-1E+10	1
4902554	72	C	02/02/2023	21:03	-132.945	48.360	0	300.70	0	4.6480	0	33.8440	0	26.801	0	297.950	0	-1e10	8	-1e10	8	-1E+10	1	-1E+10	1	-1E+10	1	-1E+10	1	-1E+10	1	-1E+10	1
4902554	72	C	02/02/2023	21:03	-132.945	48.360	0	301.70	0	4.6510	0	33.8460	0	26.802	0	298.940	0	-1e10	8	-1e10	8	-1E+10	1	-1E+10	1	-1E+10	1	-1E+10	1	-1E+10	1	-1E+10	1
4902554	72	C	02/02/2023	21:03	-132.945	48.360	0	302.60	0	4.6650	0	33.8500	0	26.804	0	299.831	0	-1e10	8	-1e10	8	-1E+10	1	-1E+10	1	-1E+10	1	-1E+10	1	-1E+10	1	-1E+10	1
4902554	72	C	02/02/2023	21:03	-132.945	48.360	0	303.90	0	4.6730	0	33.8560	0	26.807	0	301.118	0	-1e10	8	-1e10	8	-1E+10	1	-1E+10	1	-1E+10	1	-1E+10	1	-1E+10	1	-1E+10	1
4902554	72	C	02/02/2023	21:03	-132.945	48.360	0	305.40	0	4.6500	0	33.8580	0	26.812	0	302.604	0	-1e10	8	-1e10	8	-1E+10	1	-1E+10	1	-1E+10	1	-1E+10	1	-1E+10	1	-1E+10	1
4902554	72	C	02/02/2023	21:03	-132.945	48.360	0	306.30	0	4.6490	0	33.8580	0	26.812	0	303.495	0	-1e10	8	-1e10	8	-1E+10	1	-1E+10	1	-1E+10	1	-1E+10	1	-1E+10	1	-1E+10	1
4902554	72	C	02/02/2023	21:03	-132.945	48.360	0	307.20	0	4.6450	0	33.8580	0	26.812	0	304.386	0	-1e10	8	-1e10	8	-1E+10	1	-1E+10	1	-1E+10	1	-1E+10	1	-1E+10	1	-1E+10	1
4902554	72	C	02/02/2023	21:03	-132.945	48.360	0	308.10	0	4.6390	0	33.8580	0	26.813	0	305.277	0	-1e10	8	-1e10	8	-1E+10	1	-1E+10	1	-1E+10	1	-1E+10	1	-1E+10	1	-1E+10	1
4902554	72	C	02/02/2023	21:03	-132.945	48.360	0	309.00	0	4.6080	0	33.8610	0	26.819	0	306.168	0	-1e10	8	-1e10	8	-1E+10	1	-1E+10	1	-1E+10	1	-1E+10	1	-1E+10	1	-1E+10	1
4902554	72	C	02/02/2023	21:03	-132.945	48.360	0	310.00	0	4.5910	0	33.8670	0	26.825	0	307.158	0	-1e10	8	-1e10	8	-1E+10	1	-1E+10	1	-1E+10	1	-1E+10	1	-1E+10	1	-1E+10	1
4902554	72	C	02/02/2023	21:03	-132.945	48.360	0	310.90	0	4.5860	0	33.8650	0	26.824	0	308.049	0	-1e10	8	-1e10	8	-1E+10	1	-1E+10	1	-1E+10	1	-1E+10	1	-1E+10	1	-1E+10	1
4902554	72	C	02/02/2023	21:03	-132.945	48.360	0	311.80	0	4.5920	0	33.8680	0	26.826	0	308.940	0	-1e10	8	-1e10	8	-1E+10	1	-1E+10	1	-1E+10	1	-1E+10	1	-1E+10	1	-1E+10	1
4902554	72	C	02/02/2023	21:03	-132.945	48.360	0	312.70	0	4.5970	0	33.8700	0	26.827	0	309.831	0	-1e10	8	-1e10	8	-1E+10	1	-1E+10	1	-1E+10	1	-1E+10	1	-1E+10	1	-1E+10	1
4902554	72	C	02/02/2023	21:03	-132.945	48.360	0	313.70	0	4.5970	0	33.8710	0	26.828	0	310.821	0	-1e10	8	-1e10	8	-1E+10	1	-1E+10	1	-1E+10	1	-1E+10	1	-1E+10	1	-1E+10	1
4902554	72	C	02/02/2023	21:03	-132.945	48.360	0	314.60	0	4.6000	0	33.8710	0	26.827	0	311.712	0	-1e10	8	-1e10	8	-1E+10	1	-1E+10	1	-1E+10	1	-1E+10	1	-1E+10	1	-1E+10	1
4902554	72	C	02/02/2023	21:03	-132.945	48.360	0	315.90	0	4.5990	0	33.8740	0	26.830	0	312.999	0	-1e10	8	-1e10	8	-1E+10	1	-1E+10	1	-1E+10	1	-1E+10	1	-1E+10	1	-1E+10	1
4902554	72	C	02/02/2023	21:03	-132.945	48.360	0	317.30	0	4.5950	0	33.8730	0	26.830	0	314.386	0	-1e10	8	-1e10	8	-1E+10	1	-1E+10	1	-1E+10	1	-1E+10	1	-1E+10	1	-1E+10	1
4902554	72	C	02/02/2023	21:03	-132.945	48.360	0	318.20	0	4.5920	0	33.8750	0	26.831	0	315.277	0	-1e10	8	-1e10	8	-1E+10	1	-1E+10	1	-1E+10	1	-1E+10	1	-1E+10	1	-1E+10	1
4902554	72	C	02/02/2023	21:03	-132.945	48.360	0	319.10	0	4.5760	0	33.8730	0	26.832	0	316.168	0	-1e10	8	-1e10	8	-1E+10	1	-1E+10	1	-1E+10	1	-1E+10	1	-1E+10	1	-1E+10	1
4902554	72	C	02/02/2023	21:03	-132.945	48.360	0	320.00	0	4.5610	0	33.8690	0	26.830	0	317.059	0	-1e10	8	-1e10	8	-1E+10	1	-1E+10	1	-1E+10	1	-1E+10	1	-1E+10	1	-1E+10	1
4902554	72	C	02/02/2023	21:03	-132.945	48.360	0	320.90	0	4.5580	0	33.8710	0	26.832	0	317.950	0	-1e10	8	-1e10	8	-1E+10	1	-1E+10	1	-1E+10	1	-1E+10	1	-1E+10	1	-1E+10	1
4902554	72	C	02/02/2023	21:03	-132.945	48.360	0	321.80	0	4.5570	0	33.8710	0	26.832	0	318.841	0	-1e10	8	-1e10	8	-1E+10	1	-1E+10	1	-1E+10	1	-1E+10	1	-1E+10	1	-1E+10	1
4902554	72	C	02/02/2023	21:03	-132.945	48.360	0	322.70	0	4.5560	0	33.8710	0	26.832	0	319.732	0	-1e10	8	-1e10	8	-1E+10	1	-1E+10	1	-1E+10	1	-1E+10	1	-1E+10	1	-1E+10	1
4902554	72	C	02/02/2023	21:03	-132.945	48.360	0	323.60	0	4.5520	0	33.8720	0	26.833	0	320.623	0	-1e10	8	-1e10	8	-1E+10	1	-1E+10	1	-1E+10	1	-1E+10	1	-1E+10	1	-1E+10	1
4902554	72	C	02/02/2023	21:03	-132.945	48.360	0	324.60	0	4.5450	0	33.8750	0	26.837	0	321.613	0	-1e10	8	-1e10	8	-1E+10	1	-1E+10	1	-1E+10	1	-1E+10	1	-1E+10	1	-1E+10	1
4902554	72	C	02/02/2023	21:03	-132.945	48.360	0	325.90	0	4.5440	0	33.8760	0	26.838	0	322.900	0	-1e10	8	-1e10	8	-1E+10	1	-1E+10	1	-1E+10	1	-1E+10	1	-1E+10	1	-1E+10	1
4902554	72	C	02/02/2023	21:03	-132.945	48.360	0	327.30	0	4.5370	0	33.8810	0	26.842	0	324.286	0	-1e10	8	-1e10	8	-1E+10	1	-1E+10	1	-1E+10	1	-1E+10	1	-1E+10	1	-1E+10	1
4902554	72	C	02/02/2023	21:03	-132.945	48.360	0	328.20	0	4.5350	0	33.8840	0	26.845	0	325.177	0	-1e10	8	-1e10	8	-1E+10	1	-1E+10	1	-1E+10	1	-1E+10	1	-1E+10	1	-1E+10	1
4902554	72	C	02/02/2023	21:03	-132.945	48.360	0	329.10	0	4.5340	0	33.8850	0	26.846	0	326.068	0	-1e10	8	-1e10	8	-1E+10	1	-1E+10	1	-1E+10	1	-1E+10	1	-1E+10	1	-1E+10	1
4902554	72	C	02/02/2023	21:03	-132.945	48.360	0	330.10	0	4.5340	0	33.8860	0	26.847	0	327.058	0	-1e10	8	-1e10	8	-1E+10	1	-1E+10	1	-1E+10	1	-1E+10	1	-1E+10	1	-1E+10	1
4902554	72	C	02/02/2023	21:03	-132.945	48.360	0	331.00	0	4.5330	0	33.8860	0	26.847	0	327.949	0	-1e10	8	-1e10	8	-1E+10	1	-1E+10	1	-1E+10	1	-1E+10	1	-1E+10	1	-1E+10	1
4902554	72	C	02/02/2023	21:03	-132.945	48.360	0	331.90	0	4.5330	0	33.8870	0	26.848	0	328.840	0	-1e10	8	-1e10	8	-1E+10	1	-1E+10	1	-1E+10	1	-1E+10	1	-1E+10	1	-1E+10	1
4902554	72	C	02/02/2023	21:03	-132.945	48.360	0	332.80	0	4.5320	0	33.8880	0	26.848	0	329.731	0	-1e10	8	-1e10	8	-1E+10	1	-1E+10	1	-1E+10	1	-1E+10	1	-1E+10	1	-1E+10	1
4902554	72	C	02/02/2023	21:03	-132.945	48.360	0	333.70	0	4.5320	0	33.8880	0	26.848	0	330.622	0	-1e10	8	-1e10	8	-1E+10	1	-1E+10	1	-1E+10	1	-1E+10	1	-1E+10	1	-1E+10	1
4902554	72	C	02/02/2023	21:03	-132.945	48.360	0	334.60	0	4.5310	0	33.8890	0	26.849	0	331.513	0	-1e10	8	-1e10	8	-1E+10	1	-1E+10	1	-1E+10	1	-1E+10	1	-1E+10	1	-1E+10	1
4902554	72	C	02/02/2023	21:03	-132.945	48.360	0	335.60	0	4.5300	0	33.8900	0	26.850	0	332.503	0	-1e10	8	-1e10	8	-1E+10	1	-1E+10	1	-1E+10	1	-1E+10	1	-1E+10	1	-1E+10	1
4902554	72	C	02/02/2023	21:03	-132.945	48.360	0	336.90	0	4.5280	0	33.8930	0	26.853	0	333.790	0	-1e10	8	-1e10	8	-1E+10	1	-1E+10	1	-1E+10	1	-1E+10	1	-1E+10	1	-1E+10	1
4902554	72	C	02/02/2023	21:03	-132.945	48.360	0	338.40	0	4.5270	0	33.8940	0	26.854	0	335.275	0	-1e10	8	-1e10	8	-1E+10	1	-1E+10	1	-1E+10	1	-1E+10	1	-1E+10	1	-1E+10	1
4902554	72	C	02/02/2023	21:03	-132.945	48.360	0	339.30	0	4.5260	0	33.8950	0	26.855	0	336.166	0	-1e10	8	-1e10	8	-1E+10	1	-1E+10	1	-1E+10	1	-1E+10	1	-1E+10	1	-1E+10	1
4902554	72	C	02/02/2023	21:03	-132.945	48.360	0	340.30	0	4.5260	0	33.8950	0	26.855	0	337.156	0	-1e10	8	-1e10	8	-1E+10	1	-1E+10	1	-1E+10	1	-1E+10	1	-1E+10	1	-1E+10	1
4902554	72	C	02/02/2023	21:03	-132.945	48.360	0	341.20	0	4.5250	0	33.8950	0	26.855	0	338.047	0	-1e10	8	-1e10	8	-1E+10	1	-1E+10	1	-1E+10	1	-1E+10	1	-1E+10	1	-1E+10	1
4902554	72	C	02/02/2023	21:03	-132.945	48.360	0	342.20	0	4.5230	0	33.8970	0	26.857	0	339.037	0	-1e10	8	-1e10	8	-1E+10	1	-1E+10	1	-1E+10	1	-1E+10	1	-1E+10	1	-1E+10	1
4902554	72	C	02/02/2023	21:03	-132.945	48.360	0	343.20	0	4.5200	0	33.8990	0	26.859	0	340.026	0	-1e10	8	-1e10	8	-1E+10	1	-1E+10	1	-1E+10	1	-1E+10	1	-1E+10	1	-1E+10	1
4902554	72	C	02/02/2023	21:03	-132.945	48.360	0	344.20	0	4.5190	0	33.8990	0	26.859	0	341.016	0	-1e10	8	-1e10	8	-1E+10	1	-1E+10	1	-1E+10	1	-1E+10	1	-1E+10	1	-1E+10	1
4902554	72	C	02/02/2023	21:03	-132.945	48.360	0	345.20	0	4.5180	0	33.9000	0	26.860	0	342.006	0	-1e10	8	-1e10	8	-1E+10	1	-1E+10	1	-1E+10	1	-1E+10	1	-1E+10	1	-1E+10	1
4902554	72	C	02/02/2023	21:03	-132.945	48.360	0	346.20	0	4.5170	0	33.9010	0	26.860	0	342.996	0	-1e10	8	-1e10	8	-1E+10	1	-1E+10	1	-1E+10	1	-1E+10	1	-1E+10	1	-1E+10	1
4902554	72	C	02/02/2023	21:03	-132.945	48.360	0	347.20	0	4.5170	0	33.9010	0	26.860	0	343.986	0	-1e10	8	-1e10	8	-1E+10	1	-1E+10	1	-1E+10	1	-1E+10	1	-1E+10	1	-1E+10	1
4902554	72	C	02/02/2023	21:03	-132.945	48.360	0	348.20	0	4.5160	0	33.9020	0	26.861	0	344.976	0	-1e10	8	-1e10	8	-1E+10	1	-1E+10	1	-1E+10	1	-1E+10	1	-1E+10	1	-1E+10	1
4902554	72	C	02/02/2023	21:03	-132.945	48.360	0	349.20	0	4.5150	0	33.9020	0	26.861	0	345.966	0	-1e10	8	-1e10	8	-1E+10	1	-1E+10	1	-1E+10	1	-1E+10	1	-1E+10	1	-1E+10	1
4902554	72	C	02/02/2023	21:03	-132.945	48.360	0	350.20	0	4.5150	0	33.9030	0	26.862	0	346.956	0	-1e10	8	-1e10	8	-1E+10	1	-1E+10	1	-1E+10	1	-1E+10	1	-1E+10	1	-1E+10	1
4902554	72	C	02/02/2023	21:03	-132.945	48.360	0	353.20	0	4.5070	0	33.9080	0	26.867	0	349.926	0	-1e10	8	-1e10	8	-1E+10	1	-1E+10	1	-1E+10	1	-1E+10	1	-1E+10	1	-1E+10	1
4902554	72	C	02/02/2023	21:03	-132.945	48.360	0	357.90	0	4.4970	0	33.9140	0	26.873	0	354.578	0	-1e10	8	-1e10	8	-1E+10	1	-1E+10	1	-1E+10	1	-1E+10	1	-1E+10	1	-1E+10	1
4902554	72	C	02/02/2023	21:03	-132.945	48.360	0	362.90	0	4.4850	0	33.9200	0	26.879	0	359.527	0	-1e10	8	-1e10	8	-1E+10	1	-1E+10	1	-1E+10	1	-1E+10	1	-1E+10	1	-1E+10	1
4902554	72	C	02/02/2023	21:03	-132.945	48.360	0	367.90	0	4.4700	0	33.9240	0	26.884	0	364.476	0	-1e10	8	-1e10	8	-1E+10	1	-1E+10	1	-1E+10	1	-1E+10	1	-1E+10	1	-1E+10	1
4902554	72	C	02/02/2023	21:03	-132.945	48.360	0	372.90	0	4.4430	0	33.9290	0	26.891	0	369.425	0	-1e10	8	-1e10	8	-1E+10	1	-1E+10	1	-1E+10	1	-1E+10	1	-1E+10	1	-1E+10	1
4902554	72	C	02/02/2023	21:03	-132.945	48.360	0	378.00	0	4.4090	0	33.9310	0	26.896	0	374.473	0	-1e10	8	-1e10	8	-1E+10	1	-1E+10	1	-1E+10	1	-1E+10	1	-1E+10	1	-1E+10	1
4902554	72	C	02/02/2023	21:03	-132.945	48.360	0	382.90	0	4.3660	0	33.9340	0	26.903	0	379.323	0	-1e10	8	-1e10	8	-1E+10	1	-1E+10	1	-1E+10	1	-1E+10	1	-1E+10	1	-1E+10	1
4902554	72	C	02/02/2023	21:03	-132.945	48.360	0	387.80	0	4.3420	0	33.9410	0	26.911	0	384.173	0	-1e10	8	-1e10	8	-1E+10	1	-1E+10	1	-1E+10	1	-1E+10	1	-1E+10	1	-1E+10	1
4902554	72	C	02/02/2023	21:03	-132.945	48.360	0	392.90	0	4.3080	0	33.9440	0	26.917	0	389.220	0	-1e10	8	-1e10	8	-1E+10	1	-1E+10	1	-1E+10	1	-1E+10	1	-1E+10	1	-1E+10	1
4902554	72	C	02/02/2023	21:03	-132.945	48.360	0	397.90	0	4.2800	0	33.9480	0	26.923	0	394.169	0	-1e10	8	-1e10	8	-1E+10	1	-1E+10	1	-1E+10	1	-1E+10	1	-1E+10	1	-1E+10	1
4902554	72	C	02/02/2023	21:03	-132.945	48.360	0	403.10	0	4.2550	0	33.9540	0	26.931	0	399.315	0	-1e10	8	-1e10	8	-1E+10	1	-1E+10	1	-1E+10	1	-1E+10	1	-1E+10	1	-1E+10	1
4902554	72	C	02/02/2023	21:03	-132.945	48.360	0	407.80	0	4.2410	0	33.9590	0	26.936	0	403.966	0	-1e10	8	-1e10	8	-1E+10	1	-1E+10	1	-1E+10	1	-1E+10	1	-1E+10	1	-1E+10	1
4902554	72	C	02/02/2023	21:03	-132.945	48.360	0	412.60	0	4.2370	0	33.9620	0	26.939	0	408.716	0	-1e10	8	-1e10	8	-1E+10	1	-1E+10	1	-1E+10	1	-1E+10	1	-1E+10	1	-1E+10	1
4902554	72	C	02/02/2023	21:03	-132.945	48.360	0	417.90	0	4.2310	0	33.9670	0	26.944	0	413.961	0	-1e10	8	-1e10	8	-1E+10	1	-1E+10	1	-1E+10	1	-1E+10	1	-1E+10	1	-1E+10	1
4902554	72	C	02/02/2023	21:03	-132.945	48.360	0	423.30	0	4.2160	0	33.9750	0	26.952	0	419.305	0	-1e10	8	-1e10	8	-1E+10	1	-1E+10	1	-1E+10	1	-1E+10	1	-1E+10	1	-1E+10	1
4902554	72	C	02/02/2023	21:03	-132.945	48.360	0	428.10	0	4.2090	0	33.9800	0	26.956	0	424.055	0	-1e10	8	-1e10	8	-1E+10	1	-1E+10	1	-1E+10	1	-1E+10	1	-1E+10	1	-1E+10	1
4902554	72	C	02/02/2023	21:03	-132.945	48.360	0	433.00	0	4.2030	0	33.9840	0	26.960	0	428.903	0	-1e10	8	-1e10	8	-1E+10	1	-1E+10	1	-1E+10	1	-1E+10	1	-1E+10	1	-1E+10	1
4902554	72	C	02/02/2023	21:03	-132.945	48.360	0	438.00	0	4.1960	0	33.9910	0	26.967	0	433.851	0	-1e10	8	-1e10	8	-1E+10	1	-1E+10	1	-1E+10	1	-1E+10	1	-1E+10	1	-1E+10	1
4902554	72	C	02/02/2023	21:03	-132.945	48.360	0	442.90	0	4.1920	0	33.9950	0	26.970	0	438.699	0	-1e10	8	-1e10	8	-1E+10	1	-1E+10	1	-1E+10	1	-1E+10	1	-1E+10	1	-1E+10	1
4902554	72	C	02/02/2023	21:03	-132.945	48.360	0	447.80	0	4.1840	0	34.0030	0	26.978	0	443.547	0	-1e10	8	-1e10	8	-1E+10	1	-1E+10	1	-1E+10	1	-1E+10	1	-1E+10	1	-1E+10	1
4902554	72	C	02/02/2023	21:03	-132.945	48.360	0	452.80	0	4.1770	0	34.0110	0	26.985	0	448.495	0	-1e10	8	-1e10	8	-1E+10	1	-1E+10	1	-1E+10	1	-1E+10	1	-1E+10	1	-1E+10	1
4902554	72	C	02/02/2023	21:03	-132.945	48.360	0	457.70	0	4.1700	0	34.0180	0	26.991	0	453.343	0	-1e10	8	-1e10	8	-1E+10	1	-1E+10	1	-1E+10	1	-1E+10	1	-1E+10	1	-1E+10	1
4902554	72	C	02/02/2023	21:03	-132.945	48.360	0	462.70	0	4.1610	0	34.0270	0	26.999	0	458.289	0	-1e10	8	-1e10	8	-1E+10	1	-1E+10	1	-1E+10	1	-1E+10	1	-1E+10	1	-1E+10	1
4902554	72	C	02/02/2023	21:03	-132.945	48.360	0	467.70	0	4.1490	0	34.0330	0	27.005	0	463.236	0	-1e10	8	-1e10	8	-1E+10	1	-1E+10	1	-1E+10	1	-1E+10	1	-1E+10	1	-1E+10	1
4902554	72	C	02/02/2023	21:03	-132.945	48.360	0	472.70	0	4.1450	0	34.0350	0	27.007	0	468.183	0	-1e10	8	-1e10	8	-1E+10	1	-1E+10	1	-1E+10	1	-1E+10	1	-1E+10	1	-1E+10	1
4902554	72	C	02/02/2023	21:03	-132.945	48.360	0	477.70	0	4.1380	0	34.0400	0	27.012	0	473.129	0	-1e10	8	-1e10	8	-1E+10	1	-1E+10	1	-1E+10	1	-1E+10	1	-1E+10	1	-1E+10	1
4902554	72	C	02/02/2023	21:03	-132.945	48.360	0	482.80	0	4.1340	0	34.0440	0	27.016	0	478.175	0	-1e10	8	-1e10	8	-1E+10	1	-1E+10	1	-1E+10	1	-1E+10	1	-1E+10	1	-1E+10	1
4902554	72	C	02/02/2023	21:03	-132.945	48.360	0	487.90	0	4.1210	0	34.0500	0	27.022	0	483.220	0	-1e10	8	-1e10	8	-1E+10	1	-1E+10	1	-1E+10	1	-1E+10	1	-1E+10	1	-1E+10	1
4902554	72	C	02/02/2023	21:03	-132.945	48.360	0	493.10	0	4.1090	0	34.0570	0	27.029	0	488.364	0	-1e10	8	-1e10	8	-1E+10	1	-1E+10	1	-1E+10	1	-1E+10	1	-1E+10	1	-1E+10	1
4902554	72	C	02/02/2023	21:03	-132.945	48.360	0	498.20	0	4.1040	0	34.0600	0	27.031	0	493.409	0	-1e10	8	-1e10	8	-1E+10	1	-1E+10	1	-1E+10	1	-1E+10	1	-1E+10	1	-1E+10	1
4902554	72	C	02/02/2023	21:03	-132.945	48.360	0	503.00	0	4.0980	0	34.0640	0	27.035	0	498.157	0	-1e10	8	-1e10	8	-1E+10	1	-1E+10	1	-1E+10	1	-1E+10	1	-1E+10	1	-1E+10	1
4902554	72	C	02/02/2023	21:03	-132.945	48.360	0	507.70	0	4.0950	0	34.0670	0	27.038	0	502.806	0	-1e10	8	-1e10	8	-1E+10	1	-1E+10	1	-1E+10	1	-1E+10	1	-1E+10	1	-1E+10	1
4902554	72	C	02/02/2023	21:03	-132.945	48.360	0	512.80	0	4.0920	0	34.0700	0	27.041	0	507.851	0	-1e10	8	-1e10	8	-1E+10	1	-1E+10	1	-1E+10	1	-1E+10	1	-1E+10	1	-1E+10	1
4902554	72	C	02/02/2023	21:03	-132.945	48.360	0	517.80	0	4.0840	0	34.0770	0	27.047	0	512.796	0	-1e10	8	-1e10	8	-1E+10	1	-1E+10	1	-1E+10	1	-1E+10	1	-1E+10	1	-1E+10	1
4902554	72	C	02/02/2023	21:03	-132.945	48.360	0	522.90	0	4.0690	0	34.0850	0	27.055	0	517.841	0	-1e10	8	-1e10	8	-1E+10	1	-1E+10	1	-1E+10	1	-1E+10	1	-1E+10	1	-1E+10	1
4902554	72	C	02/02/2023	21:03	-132.945	48.360	0	527.70	0	4.0590	0	34.0890	0	27.059	0	522.588	0	-1e10	8	-1e10	8	-1E+10	1	-1E+10	1	-1E+10	1	-1E+10	1	-1E+10	1	-1E+10	1
4902554	72	C	02/02/2023	21:03	-132.945	48.360	0	533.00	0	4.0490	0	34.0930	0	27.064	0	527.830	0	-1e10	8	-1e10	8	-1E+10	1	-1E+10	1	-1E+10	1	-1E+10	1	-1E+10	1	-1E+10	1
4902554	72	C	02/02/2023	21:03	-132.945	48.360	0	538.20	0	4.0430	0	34.0960	0	27.067	0	532.973	0	-1e10	8	-1e10	8	-1E+10	1	-1E+10	1	-1E+10	1	-1E+10	1	-1E+10	1	-1E+10	1
4902554	72	C	02/02/2023	21:03	-132.945	48.360	0	543.00	0	4.0330	0	34.0990	0	27.070	0	537.720	0	-1e10	8	-1e10	8	-1E+10	1	-1E+10	1	-1E+10	1	-1E+10	1	-1E+10	1	-1E+10	1
4902554	72	C	02/02/2023	21:03	-132.945	48.360	0	547.90	0	4.0160	0	34.1060	0	27.077	0	542.566	0	-1e10	8	-1e10	8	-1E+10	1	-1E+10	1	-1E+10	1	-1E+10	1	-1E+10	1	-1E+10	1
4902554	72	C	02/02/2023	21:03	-132.945	48.360	0	552.90	0	3.9940	0	34.1140	0	27.086	0	547.511	0	-1e10	8	-1e10	8	-1E+10	1	-1E+10	1	-1E+10	1	-1E+10	1	-1E+10	1	-1E+10	1
4902554	72	C	02/02/2023	21:03	-132.945	48.360	0	557.90	0	3.9860	0	34.1160	0	27.089	0	552.456	0	-1e10	8	-1e10	8	-1E+10	1	-1E+10	1	-1E+10	1	-1E+10	1	-1E+10	1	-1E+10	1
4902554	72	C	02/02/2023	21:03	-132.945	48.360	0	563.10	0	3.9660	0	34.1250	0	27.098	0	557.598	0	-1e10	8	-1e10	8	-1E+10	1	-1E+10	1	-1E+10	1	-1E+10	1	-1E+10	1	-1E+10	1
4902554	72	C	02/02/2023	21:03	-132.945	48.360	0	568.10	0	3.9530	0	34.1300	0	27.103	0	562.542	0	-1e10	8	-1e10	8	-1E+10	1	-1E+10	1	-1E+10	1	-1E+10	1	-1E+10	1	-1E+10	1
4902554	72	C	02/02/2023	21:03	-132.945	48.360	0	573.10	0	3.9460	0	34.1320	0	27.105	0	567.486	0	-1e10	8	-1e10	8	-1E+10	1	-1E+10	1	-1E+10	1	-1E+10	1	-1E+10	1	-1E+10	1
4902554	72	C	02/02/2023	21:03	-132.945	48.360	0	578.20	0	3.9350	0	34.1360	0	27.110	0	572.530	0	-1e10	8	-1e10	8	-1E+10	1	-1E+10	1	-1E+10	1	-1E+10	1	-1E+10	1	-1E+10	1
4902554	72	C	02/02/2023	21:03	-132.945	48.360	0	582.80	0	3.9260	0	34.1400	0	27.114	0	577.078	0	-1e10	8	-1e10	8	-1E+10	1	-1E+10	1	-1E+10	1	-1E+10	1	-1E+10	1	-1E+10	1
4902554	72	C	02/02/2023	21:03	-132.945	48.360	0	587.90	0	3.9230	0	34.1410	0	27.115	0	582.121	0	-1e10	8	-1e10	8	-1E+10	1	-1E+10	1	-1E+10	1	-1E+10	1	-1E+10	1	-1E+10	1
4902554	72	C	02/02/2023	21:03	-132.945	48.360	0	593.10	0	3.9100	0	34.1440	0	27.119	0	587.262	0	-1e10	8	-1e10	8	-1E+10	1	-1E+10	1	-1E+10	1	-1E+10	1	-1E+10	1	-1E+10	1
4902554	72	C	02/02/2023	21:03	-132.945	48.360	0	597.90	0	3.8940	0	34.1490	0	27.124	0	592.008	0	-1e10	8	-1e10	8	-1E+10	1	-1E+10	1	-1E+10	1	-1E+10	1	-1E+10	1	-1E+10	1
4902554	72	C	02/02/2023	21:03	-132.945	48.360	0	602.80	0	3.8800	0	34.1540	0	27.130	0	596.853	0	-1e10	8	-1e10	8	-1E+10	1	-1E+10	1	-1E+10	1	-1E+10	1	-1E+10	1	-1E+10	1
4902554	72	C	02/02/2023	21:03	-132.945	48.360	0	607.80	0	3.8680	0	34.1590	0	27.135	0	601.796	0	-1e10	8	-1e10	8	-1E+10	1	-1E+10	1	-1E+10	1	-1E+10	1	-1E+10	1	-1E+10	1
4902554	72	C	02/02/2023	21:03	-132.945	48.360	0	612.70	0	3.8630	0	34.1610	0	27.137	0	606.641	0	-1e10	8	-1e10	8	-1E+10	1	-1E+10	1	-1E+10	1	-1E+10	1	-1E+10	1	-1E+10	1
4902554	72	C	02/02/2023	21:03	-132.945	48.360	0	617.70	0	3.8520	0	34.1680	0	27.144	0	611.584	0	-1e10	8	-1e10	8	-1E+10	1	-1E+10	1	-1E+10	1	-1E+10	1	-1E+10	1	-1E+10	1
4902554	72	C	02/02/2023	21:03	-132.945	48.360	0	622.70	0	3.8350	0	34.1740	0	27.150	0	616.527	0	-1e10	8	-1e10	8	-1E+10	1	-1E+10	1	-1E+10	1	-1E+10	1	-1E+10	1	-1E+10	1
4902554	72	C	02/02/2023	21:03	-132.945	48.360	0	627.70	0	3.8160	0	34.1790	0	27.156	0	621.470	0	-1e10	8	-1e10	8	-1E+10	1	-1E+10	1	-1E+10	1	-1E+10	1	-1E+10	1	-1E+10	1
4902554	72	C	02/02/2023	21:03	-132.945	48.360	0	632.80	0	3.8080	0	34.1810	0	27.159	0	626.512	0	-1e10	8	-1e10	8	-1E+10	1	-1E+10	1	-1E+10	1	-1E+10	1	-1E+10	1	-1E+10	1
4902554	72	C	02/02/2023	21:03	-132.945	48.360	0	637.90	0	3.7990	0	34.1840	0	27.162	0	631.554	0	-1e10	8	-1e10	8	-1E+10	1	-1E+10	1	-1E+10	1	-1E+10	1	-1E+10	1	-1E+10	1
4902554	72	C	02/02/2023	21:03	-132.945	48.360	0	643.00	0	3.7910	0	34.1870	0	27.165	0	636.595	0	-1e10	8	-1e10	8	-1E+10	1	-1E+10	1	-1E+10	1	-1E+10	1	-1E+10	1	-1E+10	1
4902554	72	C	02/02/2023	21:03	-132.945	48.360	0	647.90	0	3.7790	0	34.1890	0	27.168	0	641.439	0	-1e10	8	-1e10	8	-1E+10	1	-1E+10	1	-1E+10	1	-1E+10	1	-1E+10	1	-1E+10	1
4902554	72	C	02/02/2023	21:03	-132.945	48.360	0	652.80	0	3.7660	0	34.1920	0	27.172	0	646.282	0	-1e10	8	-1e10	8	-1E+10	1	-1E+10	1	-1E+10	1	-1E+10	1	-1E+10	1	-1E+10	1
4902554	72	C	02/02/2023	21:03	-132.945	48.360	0	658.00	0	3.7560	0	34.1950	0	27.175	0	651.422	0	-1e10	8	-1e10	8	-1E+10	1	-1E+10	1	-1E+10	1	-1E+10	1	-1E+10	1	-1E+10	1
4902554	72	C	02/02/2023	21:03	-132.945	48.360	0	662.90	0	3.7530	0	34.1960	0	27.176	0	656.265	0	-1e10	8	-1e10	8	-1E+10	1	-1E+10	1	-1E+10	1	-1E+10	1	-1E+10	1	-1E+10	1
4902554	72	C	02/02/2023	21:03	-132.945	48.360	0	667.70	0	3.7450	0	34.1980	0	27.179	0	661.010	0	-1e10	8	-1e10	8	-1E+10	1	-1E+10	1	-1E+10	1	-1E+10	1	-1E+10	1	-1E+10	1
4902554	72	C	02/02/2023	21:03	-132.945	48.360	0	672.70	0	3.7290	0	34.2020	0	27.184	0	665.952	0	-1e10	8	-1e10	8	-1E+10	1	-1E+10	1	-1E+10	1	-1E+10	1	-1E+10	1	-1E+10	1
4902554	72	C	02/02/2023	21:03	-132.945	48.360	0	677.80	0	3.7220	0	34.2040	0	27.186	0	670.992	0	-1e10	8	-1e10	8	-1E+10	1	-1E+10	1	-1E+10	1	-1E+10	1	-1E+10	1	-1E+10	1
4902554	72	C	02/02/2023	21:03	-132.945	48.360	0	683.00	0	3.7100	0	34.2070	0	27.189	0	676.132	0	-1e10	8	-1e10	8	-1E+10	1	-1E+10	1	-1E+10	1	-1E+10	1	-1E+10	1	-1E+10	1
4902554	72	C	02/02/2023	21:03	-132.945	48.360	0	687.80	0	3.7050	0	34.2090	0	27.192	0	680.876	0	-1e10	8	-1e10	8	-1E+10	1	-1E+10	1	-1E+10	1	-1E+10	1	-1E+10	1	-1E+10	1
4902554	72	C	02/02/2023	21:03	-132.945	48.360	0	692.70	0	3.6940	0	34.2120	0	27.195	0	685.718	0	-1e10	8	-1e10	8	-1E+10	1	-1E+10	1	-1E+10	1	-1E+10	1	-1E+10	1	-1E+10	1
4902554	72	C	02/02/2023	21:03	-132.945	48.360	0	697.60	0	3.6880	0	34.2140	0	27.197	0	690.561	0	-1e10	8	-1e10	8	-1E+10	1	-1E+10	1	-1E+10	1	-1E+10	1	-1E+10	1	-1E+10	1
4902554	72	C	02/02/2023	21:03	-132.945	48.360	0	702.50	0	3.6780	0	34.2170	0	27.201	0	695.403	0	-1e10	8	-1e10	8	-1E+10	1	-1E+10	1	-1E+10	1	-1E+10	1	-1E+10	1	-1E+10	1
4902554	72	C	02/02/2023	21:03	-132.945	48.360	0	707.90	0	3.6600	0	34.2210	0	27.206	0	700.739	0	-1e10	8	-1e10	8	-1E+10	1	-1E+10	1	-1E+10	1	-1E+10	1	-1E+10	1	-1E+10	1
4902554	72	C	02/02/2023	21:03	-132.945	48.360	0	713.40	0	3.6530	0	34.2230	0	27.208	0	706.175	0	-1e10	8	-1e10	8	-1E+10	1	-1E+10	1	-1E+10	1	-1E+10	1	-1E+10	1	-1E+10	1
4902554	72	C	02/02/2023	21:03	-132.945	48.360	0	718.30	0	3.6450	0	34.2250	0	27.210	0	711.016	0	-1e10	8	-1e10	8	-1E+10	1	-1E+10	1	-1E+10	1	-1E+10	1	-1E+10	1	-1E+10	1
4902554	72	C	02/02/2023	21:03	-132.945	48.360	0	723.10	0	3.6060	0	34.2360	0	27.223	0	715.760	0	-1e10	8	-1e10	8	-1E+10	1	-1E+10	1	-1E+10	1	-1E+10	1	-1E+10	1	-1E+10	1
4902554	72	C	02/02/2023	21:03	-132.945	48.360	0	728.00	0	3.6010	0	34.2370	0	27.224	0	720.601	0	-1e10	8	-1e10	8	-1E+10	1	-1E+10	1	-1E+10	1	-1E+10	1	-1E+10	1	-1E+10	1
4902554	72	C	02/02/2023	21:03	-132.945	48.360	0	732.90	0	3.5970	0	34.2380	0	27.226	0	725.443	0	-1e10	8	-1e10	8	-1E+10	1	-1E+10	1	-1E+10	1	-1E+10	1	-1E+10	1	-1E+10	1
4902554	72	C	02/02/2023	21:03	-132.945	48.360	0	737.70	0	3.5900	0	34.2400	0	27.228	0	730.186	0	-1e10	8	-1e10	8	-1E+10	1	-1E+10	1	-1E+10	1	-1E+10	1	-1E+10	1	-1E+10	1
4902554	72	C	02/02/2023	21:03	-132.945	48.360	0	742.60	0	3.5820	0	34.2420	0	27.230	0	735.027	0	-1e10	8	-1e10	8	-1E+10	1	-1E+10	1	-1E+10	1	-1E+10	1	-1E+10	1	-1E+10	1
4902554	72	C	02/02/2023	21:03	-132.945	48.360	0	747.90	0	3.5690	0	34.2450	0	27.234	0	740.264	0	-1e10	8	-1e10	8	-1E+10	1	-1E+10	1	-1E+10	1	-1E+10	1	-1E+10	1	-1E+10	1
4902554	72	C	02/02/2023	21:03	-132.945	48.360	0	753.10	0	3.5420	0	34.2520	0	27.242	0	745.401	0	-1e10	8	-1e10	8	-1E+10	1	-1E+10	1	-1E+10	1	-1E+10	1	-1E+10	1	-1E+10	1
4902554	72	C	02/02/2023	21:03	-132.945	48.360	0	757.90	0	3.5300	0	34.2550	0	27.246	0	750.144	0	-1e10	8	-1e10	8	-1E+10	1	-1E+10	1	-1E+10	1	-1E+10	1	-1E+10	1	-1E+10	1
4902554	72	C	02/02/2023	21:03	-132.945	48.360	0	763.00	0	3.5290	0	34.2560	0	27.247	0	755.182	0	-1e10	8	-1e10	8	-1E+10	1	-1E+10	1	-1E+10	1	-1E+10	1	-1E+10	1	-1E+10	1
4902554	72	C	02/02/2023	21:03	-132.945	48.360	0	768.10	0	3.5240	0	34.2570	0	27.248	0	760.221	0	-1e10	8	-1e10	8	-1E+10	1	-1E+10	1	-1E+10	1	-1E+10	1	-1E+10	1	-1E+10	1
4902554	72	C	02/02/2023	21:03	-132.945	48.360	0	772.80	0	3.5140	0	34.2590	0	27.251	0	764.864	0	-1e10	8	-1e10	8	-1E+10	1	-1E+10	1	-1E+10	1	-1E+10	1	-1E+10	1	-1E+10	1
4902554	72	C	02/02/2023	21:03	-132.945	48.360	0	778.00	0	3.5050	0	34.2610	0	27.253	0	770.001	0	-1e10	8	-1e10	8	-1E+10	1	-1E+10	1	-1E+10	1	-1E+10	1	-1E+10	1	-1E+10	1
4902554	72	C	02/02/2023	21:03	-132.945	48.360	0	783.10	0	3.4930	0	34.2640	0	27.257	0	775.039	0	-1e10	8	-1e10	8	-1E+10	1	-1E+10	1	-1E+10	1	-1E+10	1	-1E+10	1	-1E+10	1
4902554	72	C	02/02/2023	21:03	-132.945	48.360	0	787.90	0	3.4840	0	34.2660	0	27.259	0	779.781	0	-1e10	8	-1e10	8	-1E+10	1	-1E+10	1	-1E+10	1	-1E+10	1	-1E+10	1	-1E+10	1
4902554	72	C	02/02/2023	21:03	-132.945	48.360	0	793.00	0	3.4660	0	34.2710	0	27.265	0	784.819	0	-1e10	8	-1e10	8	-1E+10	1	-1E+10	1	-1E+10	1	-1E+10	1	-1E+10	1	-1E+10	1
4902554	72	C	02/02/2023	21:03	-132.945	48.360	0	798.20	0	3.4580	0	34.2720	0	27.266	0	789.955	0	-1e10	8	-1e10	8	-1E+10	1	-1E+10	1	-1E+10	1	-1E+10	1	-1E+10	1	-1E+10	1
4902554	72	C	02/02/2023	21:03	-132.945	48.360	0	802.90	0	3.4480	0	34.2760	0	27.271	0	794.598	0	-1e10	8	-1e10	8	-1E+10	1	-1E+10	1	-1E+10	1	-1E+10	1	-1E+10	1	-1E+10	1
4902554	72	C	02/02/2023	21:03	-132.945	48.360	0	808.00	0	3.4410	0	34.2790	0	27.274	0	799.635	0	-1e10	8	-1e10	8	-1E+10	1	-1E+10	1	-1E+10	1	-1E+10	1	-1E+10	1	-1E+10	1
4902554	72	C	02/02/2023	21:03	-132.945	48.360	0	813.00	0	3.4140	0	34.2860	0	27.282	0	804.574	0	-1e10	8	-1e10	8	-1E+10	1	-1E+10	1	-1E+10	1	-1E+10	1	-1E+10	1	-1E+10	1
4902554	72	C	02/02/2023	21:03	-132.945	48.360	0	817.60	0	3.4070	0	34.2870	0	27.283	0	809.117	0	-1e10	8	-1e10	8	-1E+10	1	-1E+10	1	-1E+10	1	-1E+10	1	-1E+10	1	-1E+10	1
4902554	72	C	02/02/2023	21:03	-132.945	48.360	0	822.80	0	3.3910	0	34.2900	0	27.287	0	814.253	0	-1e10	8	-1e10	8	-1E+10	1	-1E+10	1	-1E+10	1	-1E+10	1	-1E+10	1	-1E+10	1
4902554	72	C	02/02/2023	21:03	-132.945	48.360	0	827.90	0	3.3700	0	34.2960	0	27.294	0	819.290	0	-1e10	8	-1e10	8	-1E+10	1	-1E+10	1	-1E+10	1	-1E+10	1	-1E+10	1	-1E+10	1
4902554	72	C	02/02/2023	21:03	-132.945	48.360	0	833.00	0	3.3530	0	34.3000	0	27.299	0	824.327	0	-1e10	8	-1e10	8	-1E+10	1	-1E+10	1	-1E+10	1	-1E+10	1	-1E+10	1	-1E+10	1
4902554	72	C	02/02/2023	21:03	-132.945	48.360	0	838.20	0	3.3480	0	34.3010	0	27.300	0	829.463	0	-1e10	8	-1e10	8	-1E+10	1	-1E+10	1	-1E+10	1	-1E+10	1	-1E+10	1	-1E+10	1
4902554	72	C	02/02/2023	21:03	-132.945	48.360	0	843.00	0	3.3360	0	34.3030	0	27.303	0	834.203	0	-1e10	8	-1e10	8	-1E+10	1	-1E+10	1	-1E+10	1	-1E+10	1	-1E+10	1	-1E+10	1
4902554	72	C	02/02/2023	21:03	-132.945	48.360	0	847.70	0	3.3270	0	34.3050	0	27.306	0	838.845	0	-1e10	8	-1e10	8	-1E+10	1	-1E+10	1	-1E+10	1	-1E+10	1	-1E+10	1	-1E+10	1
4902554	72	C	02/02/2023	21:03	-132.945	48.360	0	852.90	0	3.3150	0	34.3080	0	27.309	0	843.980	0	-1e10	8	-1e10	8	-1E+10	1	-1E+10	1	-1E+10	1	-1E+10	1	-1E+10	1	-1E+10	1
4902554	72	C	02/02/2023	21:03	-132.945	48.360	0	858.00	0	3.3030	0	34.3100	0	27.312	0	849.016	0	-1e10	8	-1e10	8	-1E+10	1	-1E+10	1	-1E+10	1	-1E+10	1	-1E+10	1	-1E+10	1
4902554	72	C	02/02/2023	21:03	-132.945	48.360	0	862.70	0	3.2960	0	34.3120	0	27.314	0	853.657	0	-1e10	8	-1e10	8	-1E+10	1	-1E+10	1	-1E+10	1	-1E+10	1	-1E+10	1	-1E+10	1
4902554	72	C	02/02/2023	21:03	-132.945	48.360	0	867.50	0	3.2810	0	34.3150	0	27.318	0	858.397	0	-1e10	8	-1e10	8	-1E+10	1	-1E+10	1	-1E+10	1	-1E+10	1	-1E+10	1	-1E+10	1
4902554	72	C	02/02/2023	21:03	-132.945	48.360	0	872.80	0	3.2640	0	34.3190	0	27.323	0	863.631	0	-1e10	8	-1e10	8	-1E+10	1	-1E+10	1	-1E+10	1	-1E+10	1	-1E+10	1	-1E+10	1
4902554	72	C	02/02/2023	21:03	-132.945	48.360	0	878.10	0	3.2590	0	34.3210	0	27.325	0	868.864	0	-1e10	8	-1e10	8	-1E+10	1	-1E+10	1	-1E+10	1	-1E+10	1	-1E+10	1	-1E+10	1
4902554	72	C	02/02/2023	21:03	-132.945	48.360	0	882.90	0	3.2490	0	34.3230	0	27.327	0	873.603	0	-1e10	8	-1e10	8	-1E+10	1	-1E+10	1	-1E+10	1	-1E+10	1	-1E+10	1	-1E+10	1
4902554	72	C	02/02/2023	21:03	-132.945	48.360	0	887.70	0	3.2280	0	34.3270	0	27.333	0	878.343	0	-1e10	8	-1e10	8	-1E+10	1	-1E+10	1	-1E+10	1	-1E+10	1	-1E+10	1	-1E+10	1
4902554	72	C	02/02/2023	21:03	-132.945	48.360	0	893.00	0	3.2140	0	34.3300	0	27.336	0	883.576	0	-1e10	8	-1e10	8	-1E+10	1	-1E+10	1	-1E+10	1	-1E+10	1	-1E+10	1	-1E+10	1
4902554	72	C	02/02/2023	21:03	-132.945	48.360	0	898.30	0	3.2040	0	34.3330	0	27.340	0	888.808	0	-1e10	8	-1e10	8	-1E+10	1	-1E+10	1	-1E+10	1	-1E+10	1	-1E+10	1	-1E+10	1
4902554	72	C	02/02/2023	21:03	-132.945	48.360	0	903.00	0	3.1960	0	34.3350	0	27.342	0	893.449	0	-1e10	8	-1e10	8	-1E+10	1	-1E+10	1	-1E+10	1	-1E+10	1	-1E+10	1	-1E+10	1
4902554	72	C	02/02/2023	21:03	-132.945	48.360	0	907.80	0	3.1820	0	34.3380	0	27.346	0	898.188	0	-1e10	8	-1e10	8	-1E+10	1	-1E+10	1	-1E+10	1	-1E+10	1	-1E+10	1	-1E+10	1
4902554	72	C	02/02/2023	21:03	-132.945	48.360	0	912.80	0	3.1720	0	34.3400	0	27.348	0	903.124	0	-1e10	8	-1e10	8	-1E+10	1	-1E+10	1	-1E+10	1	-1E+10	1	-1E+10	1	-1E+10	1
4902554	72	C	02/02/2023	21:03	-132.945	48.360	0	917.70	0	3.1620	0	34.3420	0	27.351	0	907.961	0	-1e10	8	-1e10	8	-1E+10	1	-1E+10	1	-1E+10	1	-1E+10	1	-1E+10	1	-1E+10	1
4902554	72	C	02/02/2023	21:03	-132.945	48.360	0	923.00	0	3.1450	0	34.3460	0	27.356	0	913.194	0	-1e10	8	-1e10	8	-1E+10	1	-1E+10	1	-1E+10	1	-1E+10	1	-1E+10	1	-1E+10	1
4902554	72	C	02/02/2023	21:03	-132.945	48.360	0	927.90	0	3.1400	0	34.3470	0	27.357	0	918.031	0	-1e10	8	-1e10	8	-1E+10	1	-1E+10	1	-1E+10	1	-1E+10	1	-1E+10	1	-1E+10	1
4902554	72	C	02/02/2023	21:03	-132.945	48.360	0	932.80	0	3.1340	0	34.3490	0	27.359	0	922.868	0	-1e10	8	-1e10	8	-1E+10	1	-1E+10	1	-1E+10	1	-1E+10	1	-1E+10	1	-1E+10	1
4902554	72	C	02/02/2023	21:03	-132.945	48.360	0	937.80	0	3.1190	0	34.3520	0	27.363	0	927.804	0	-1e10	8	-1e10	8	-1E+10	1	-1E+10	1	-1E+10	1	-1E+10	1	-1E+10	1	-1E+10	1
4902554	72	C	02/02/2023	21:03	-132.945	48.360	0	943.10	0	3.1020	0	34.3570	0	27.368	0	933.035	0	-1e10	8	-1e10	8	-1E+10	1	-1E+10	1	-1E+10	1	-1E+10	1	-1E+10	1	-1E+10	1
4902554	72	C	02/02/2023	21:03	-132.945	48.360	0	948.10	0	3.0980	0	34.3580	0	27.370	0	937.971	0	-1e10	8	-1e10	8	-1E+10	1	-1E+10	1	-1E+10	1	-1E+10	1	-1E+10	1	-1E+10	1
4902554	72	C	02/02/2023	21:03	-132.945	48.360	0	952.70	0	3.0940	0	34.3590	0	27.371	0	942.511	0	-1e10	8	-1e10	8	-1E+10	1	-1E+10	1	-1E+10	1	-1E+10	1	-1E+10	1	-1E+10	1
4902554	72	C	02/02/2023	21:03	-132.945	48.360	0	957.90	0	3.0870	0	34.3600	0	27.372	0	947.644	0	-1e10	8	-1e10	8	-1E+10	1	-1E+10	1	-1E+10	1	-1E+10	1	-1E+10	1	-1E+10	1
4902554	72	C	02/02/2023	21:03	-132.945	48.360	0	963.20	0	3.0800	0	34.3620	0	27.375	0	952.875	0	-1e10	8	-1e10	8	-1E+10	1	-1E+10	1	-1E+10	1	-1E+10	1	-1E+10	1	-1E+10	1
4902554	72	C	02/02/2023	21:03	-132.945	48.360	0	968.20	0	3.0730	0	34.3630	0	27.376	0	957.810	0	-1e10	8	-1e10	8	-1E+10	1	-1E+10	1	-1E+10	1	-1E+10	1	-1E+10	1	-1E+10	1
4902554	72	C	02/02/2023	21:03	-132.945	48.360	0	973.20	0	3.0620	0	34.3660	0	27.379	0	962.745	0	-1e10	8	-1e10	8	-1E+10	1	-1E+10	1	-1E+10	1	-1E+10	1	-1E+10	1	-1E+10	1
4902554	72	C	02/02/2023	21:03	-132.945	48.360	0	978.30	0	3.0560	0	34.3670	0	27.381	0	967.778	0	-1e10	8	-1e10	8	-1E+10	1	-1E+10	1	-1E+10	1	-1E+10	1	-1E+10	1	-1E+10	1
4902554	72	C	02/02/2023	21:03	-132.945	48.360	0	983.00	0	3.0530	0	34.3680	0	27.382	0	972.417	0	-1e10	8	-1e10	8	-1E+10	1	-1E+10	1	-1E+10	1	-1E+10	1	-1E+10	1	-1E+10	1
4902554	72	C	02/02/2023	21:03	-132.945	48.360	0	987.60	0	3.0470	0	34.3690	0	27.383	0	976.957	0	-1e10	8	-1e10	8	-1E+10	1	-1E+10	1	-1E+10	1	-1E+10	1	-1E+10	1	-1E+10	1
4902554	72	C	02/02/2023	21:03	-132.945	48.360	0	992.90	0	3.0400	0	34.3710	0	27.386	0	982.187	0	-1e10	8	-1e10	8	-1E+10	1	-1E+10	1	-1E+10	1	-1E+10	1	-1E+10	1	-1E+10	1
4902554	72	C	02/02/2023	21:03	-132.945	48.360	0	998.10	0	3.0340	0	34.3720	0	27.387	0	987.319	0	-1e10	8	-1e10	8	-1E+10	1	-1E+10	1	-1E+10	1	-1E+10	1	-1E+10	1	-1E+10	1
4902554	72	C	02/02/2023	21:03	-132.945	48.360	0	1005.40	0	3.0230	0	34.3740	0	27.390	0	994.523	0	-1e10	8	-1e10	8	-1E+10	1	-1E+10	1	-1E+10	1	-1E+10	1	-1E+10	1	-1E+10	1
4902554	72	C	02/02/2023	21:03	-132.945	48.360	0	1015.20	0	2.9940	0	34.3800	0	27.397	0	1004.193	0	-1e10	8	-1e10	8	-1E+10	1	-1E+10	1	-1E+10	1	-1E+10	1	-1E+10	1	-1E+10	1
4902554	72	C	02/02/2023	21:03	-132.945	48.360	0	1025.40	0	2.9750	0	34.3840	0	27.402	0	1014.258	0	-1e10	8	-1e10	8	-1E+10	1	-1E+10	1	-1E+10	1	-1E+10	1	-1E+10	1	-1E+10	1
4902554	72	C	02/02/2023	21:03	-132.945	48.360	0	1035.40	0	2.9720	0	34.3850	0	27.403	0	1024.125	0	-1e10	8	-1e10	8	-1E+10	1	-1E+10	1	-1E+10	1	-1E+10	1	-1E+10	1	-1E+10	1
4902554	72	C	02/02/2023	21:03	-132.945	48.360	0	1045.10	0	2.9540	0	34.3900	0	27.409	0	1033.695	0	-1e10	8	-1e10	8	-1E+10	1	-1E+10	1	-1E+10	1	-1E+10	1	-1E+10	1	-1E+10	1
4902554	72	C	02/02/2023	21:03	-132.945	48.360	0	1055.40	0	2.9320	0	34.3950	0	27.415	0	1043.857	0	-1e10	8	-1e10	8	-1E+10	1	-1E+10	1	-1E+10	1	-1E+10	1	-1E+10	1	-1E+10	1
4902554	72	C	02/02/2023	21:03	-132.945	48.360	0	1065.30	0	2.9150	0	34.3980	0	27.419	0	1053.624	0	-1e10	8	-1e10	8	-1E+10	1	-1E+10	1	-1E+10	1	-1E+10	1	-1E+10	1	-1E+10	1
4902554	72	C	02/02/2023	21:03	-132.945	48.360	0	1075.20	0	2.8970	0	34.4020	0	27.424	0	1063.390	0	-1e10	8	-1e10	8	-1E+10	1	-1E+10	1	-1E+10	1	-1E+10	1	-1E+10	1	-1E+10	1
4902554	72	C	02/02/2023	21:03	-132.945	48.360	0	1085.40	0	2.8860	0	34.4050	0	27.427	0	1073.452	0	-1e10	8	-1e10	8	-1E+10	1	-1E+10	1	-1E+10	1	-1E+10	1	-1E+10	1	-1E+10	1
4902554	72	C	02/02/2023	21:03	-132.945	48.360	0	1095.20	0	2.8820	0	34.4060	0	27.428	0	1083.119	0	-1e10	8	-1e10	8	-1E+10	1	-1E+10	1	-1E+10	1	-1E+10	1	-1E+10	1	-1E+10	1
4902554	72	C	02/02/2023	21:03	-132.945	48.360	0	1105.30	0	2.8740	0	34.4090	0	27.431	0	1093.082	0	-1e10	8	-1e10	8	-1E+10	1	-1E+10	1	-1E+10	1	-1E+10	1	-1E+10	1	-1E+10	1
4902554	72	C	02/02/2023	21:03	-132.945	48.360	0	1115.30	0	2.8540	0	34.4130	0	27.436	0	1102.945	0	-1e10	8	-1e10	8	-1E+10	1	-1E+10	1	-1E+10	1	-1E+10	1	-1E+10	1	-1E+10	1
4902554	72	C	02/02/2023	21:03	-132.945	48.360	0	1125.40	0	2.8450	0	34.4150	0	27.439	0	1112.906	0	-1e10	8	-1e10	8	-1E+10	1	-1E+10	1	-1E+10	1	-1E+10	1	-1E+10	1	-1E+10	1
4902554	72	C	02/02/2023	21:03	-132.945	48.360	0	1135.50	0	2.8390	0	34.4170	0	27.441	0	1122.867	0	-1e10	8	-1e10	8	-1E+10	1	-1E+10	1	-1E+10	1	-1E+10	1	-1E+10	1	-1E+10	1
4902554	72	C	02/02/2023	21:03	-132.945	48.360	0	1145.50	0	2.8270	0	34.4180	0	27.443	0	1132.729	0	-1e10	8	-1e10	8	-1E+10	1	-1E+10	1	-1E+10	1	-1E+10	1	-1E+10	1	-1E+10	1
4902554	72	C	02/02/2023	21:03	-132.945	48.360	0	1155.50	0	2.8100	0	34.4210	0	27.447	0	1142.590	0	-1e10	8	-1e10	8	-1E+10	1	-1E+10	1	-1E+10	1	-1E+10	1	-1E+10	1	-1E+10	1
4902554	72	C	02/02/2023	21:03	-132.945	48.360	0	1165.50	0	2.7960	0	34.4240	0	27.451	0	1152.451	0	-1e10	8	-1e10	8	-1E+10	1	-1E+10	1	-1E+10	1	-1E+10	1	-1E+10	1	-1E+10	1
4902554	72	C	02/02/2023	21:03	-132.945	48.360	0	1175.50	0	2.7730	0	34.4280	0	27.456	0	1162.311	0	-1e10	8	-1e10	8	-1E+10	1	-1E+10	1	-1E+10	1	-1E+10	1	-1E+10	1	-1E+10	1
4902554	72	C	02/02/2023	21:03	-132.945	48.360	0	1185.20	0	2.7660	0	34.4290	0	27.457	0	1171.876	0	-1e10	8	-1e10	8	-1E+10	1	-1E+10	1	-1E+10	1	-1E+10	1	-1E+10	1	-1E+10	1
4902554	72	C	02/02/2023	21:03	-132.945	48.360	0	1195.40	0	2.7540	0	34.4320	0	27.461	0	1181.932	0	-1e10	8	-1e10	8	-1E+10	1	-1E+10	1	-1E+10	1	-1E+10	1	-1E+10	1	-1E+10	1
4902554	72	C	02/02/2023	21:03	-132.945	48.360	0	1205.90	0	2.7420	0	34.4340	0	27.464	0	1192.284	0	-1e10	8	-1e10	8	-1E+10	1	-1E+10	1	-1E+10	1	-1E+10	1	-1E+10	1	-1E+10	1
4902554	72	C	02/02/2023	21:03	-132.945	48.360	0	1215.50	0	2.7210	0	34.4370	0	27.468	0	1201.748	0	-1e10	8	-1e10	8	-1E+10	1	-1E+10	1	-1E+10	1	-1E+10	1	-1E+10	1	-1E+10	1
4902554	72	C	02/02/2023	21:03	-132.945	48.360	0	1225.50	0	2.7000	0	34.4400	0	27.472	0	1211.606	0	-1e10	8	-1e10	8	-1E+10	1	-1E+10	1	-1E+10	1	-1E+10	1	-1E+10	1	-1E+10	1
4902554	72	C	02/02/2023	21:03	-132.945	48.360	0	1235.50	0	2.6880	0	34.4420	0	27.475	0	1221.464	0	-1e10	8	-1e10	8	-1E+10	1	-1E+10	1	-1E+10	1	-1E+10	1	-1E+10	1	-1E+10	1
4902554	72	C	02/02/2023	21:03	-132.945	48.360	0	1245.60	0	2.6650	0	34.4440	0	27.478	0	1231.420	0	-1e10	8	-1e10	8	-1E+10	1	-1E+10	1	-1E+10	1	-1E+10	1	-1E+10	1	-1E+10	1
4902554	72	C	02/02/2023	21:03	-132.945	48.360	0	1255.70	0	2.6480	0	34.4470	0	27.482	0	1241.375	0	-1e10	8	-1e10	8	-1E+10	1	-1E+10	1	-1E+10	1	-1E+10	1	-1E+10	1	-1E+10	1
4902554	72	C	02/02/2023	21:03	-132.945	48.360	0	1265.50	0	2.6340	0	34.4500	0	27.486	0	1251.034	0	-1e10	8	-1e10	8	-1E+10	1	-1E+10	1	-1E+10	1	-1E+10	1	-1E+10	1	-1E+10	1
4902554	72	C	02/02/2023	21:03	-132.945	48.360	0	1275.30	0	2.6160	0	34.4530	0	27.490	0	1260.693	0	-1e10	8	-1e10	8	-1E+10	1	-1E+10	1	-1E+10	1	-1E+10	1	-1E+10	1	-1E+10	1
4902554	72	C	02/02/2023	21:03	-132.945	48.360	0	1285.40	0	2.6030	0	34.4560	0	27.494	0	1270.647	0	-1e10	8	-1e10	8	-1E+10	1	-1E+10	1	-1E+10	1	-1E+10	1	-1E+10	1	-1E+10	1
4902554	72	C	02/02/2023	21:03	-132.945	48.360	0	1295.50	0	2.5870	0	34.4590	0	27.497	0	1280.600	0	-1e10	8	-1e10	8	-1E+10	1	-1E+10	1	-1E+10	1	-1E+10	1	-1E+10	1	-1E+10	1
4902554	72	C	02/02/2023	21:03	-132.945	48.360	0	1305.60	0	2.5810	0	34.4600	0	27.499	0	1290.553	0	-1e10	8	-1e10	8	-1E+10	1	-1E+10	1	-1E+10	1	-1E+10	1	-1E+10	1	-1E+10	1
4902554	72	C	02/02/2023	21:03	-132.945	48.360	0	1315.70	0	2.5740	0	34.4620	0	27.501	0	1300.505	0	-1e10	8	-1e10	8	-1E+10	1	-1E+10	1	-1E+10	1	-1E+10	1	-1E+10	1	-1E+10	1
4902554	72	C	02/02/2023	21:03	-132.945	48.360	0	1325.60	0	2.5660	0	34.4630	0	27.502	0	1310.260	0	-1e10	8	-1e10	8	-1E+10	1	-1E+10	1	-1E+10	1	-1E+10	1	-1E+10	1	-1E+10	1
4902554	72	C	02/02/2023	21:03	-132.945	48.360	0	1335.30	0	2.5550	0	34.4650	0	27.505	0	1319.818	0	-1e10	8	-1e10	8	-1E+10	1	-1E+10	1	-1E+10	1	-1E+10	1	-1E+10	1	-1E+10	1
4902554	72	C	02/02/2023	21:03	-132.945	48.360	0	1345.10	0	2.5440	0	34.4680	0	27.508	0	1329.473	0	-1e10	8	-1e10	8	-1E+10	1	-1E+10	1	-1E+10	1	-1E+10	1	-1E+10	1	-1E+10	1
4902554	72	C	02/02/2023	21:03	-132.945	48.360	0	1355.00	0	2.5360	0	34.4690	0	27.510	0	1339.227	0	-1e10	8	-1e10	8	-1E+10	1	-1E+10	1	-1E+10	1	-1E+10	1	-1E+10	1	-1E+10	1
4902554	72	C	02/02/2023	21:03	-132.945	48.360	0	1365.00	0	2.5270	0	34.4700	0	27.512	0	1349.078	0	-1e10	8	-1e10	8	-1E+10	1	-1E+10	1	-1E+10	1	-1E+10	1	-1E+10	1	-1E+10	1
4902554	72	C	02/02/2023	21:03	-132.945	48.360	0	1375.10	0	2.5090	0	34.4740	0	27.516	0	1359.028	0	-1e10	8	-1e10	8	-1E+10	1	-1E+10	1	-1E+10	1	-1E+10	1	-1E+10	1	-1E+10	1
4902554	72	C	02/02/2023	21:03	-132.945	48.360	0	1385.10	0	2.4950	0	34.4760	0	27.519	0	1368.879	0	-1e10	8	-1e10	8	-1E+10	1	-1E+10	1	-1E+10	1	-1E+10	1	-1E+10	1	-1E+10	1
4902554	72	C	02/02/2023	21:03	-132.945	48.360	0	1395.00	0	2.4860	0	34.4770	0	27.521	0	1378.630	0	-1e10	8	-1e10	8	-1E+10	1	-1E+10	1	-1E+10	1	-1E+10	1	-1E+10	1	-1E+10	1
4902554	72	C	02/02/2023	21:03	-132.945	48.360	0	1405.10	0	2.4760	0	34.4790	0	27.523	0	1388.579	0	-1e10	8	-1e10	8	-1E+10	1	-1E+10	1	-1E+10	1	-1E+10	1	-1E+10	1	-1E+10	1
4902554	72	C	02/02/2023	21:03	-132.945	48.360	0	1415.70	0	2.4600	0	34.4820	0	27.527	0	1399.019	0	-1e10	8	-1e10	8	-1E+10	1	-1E+10	1	-1E+10	1	-1E+10	1	-1E+10	1	-1E+10	1
4902554	72	C	02/02/2023	21:03	-132.945	48.360	0	1425.40	0	2.4510	0	34.4840	0	27.529	0	1408.572	0	-1e10	8	-1e10	8	-1E+10	1	-1E+10	1	-1E+10	1	-1E+10	1	-1E+10	1	-1E+10	1
4902554	72	C	02/02/2023	21:03	-132.945	48.360	0	1435.10	0	2.4410	0	34.4860	0	27.532	0	1418.125	0	-1e10	8	-1e10	8	-1E+10	1	-1E+10	1	-1E+10	1	-1E+10	1	-1E+10	1	-1E+10	1
4902554	72	C	02/02/2023	21:03	-132.945	48.360	0	1445.20	0	2.4290	0	34.4890	0	27.535	0	1428.072	0	-1e10	8	-1e10	8	-1E+10	1	-1E+10	1	-1E+10	1	-1E+10	1	-1E+10	1	-1E+10	1
4902554	72	C	02/02/2023	21:03	-132.945	48.360	0	1455.20	0	2.4180	0	34.4910	0	27.538	0	1437.919	0	-1e10	8	-1e10	8	-1E+10	1	-1E+10	1	-1E+10	1	-1E+10	1	-1E+10	1	-1E+10	1
4902554	72	C	02/02/2023	21:03	-132.945	48.360	0	1465.10	0	2.4030	0	34.4940	0	27.542	0	1447.668	0	-1e10	8	-1e10	8	-1E+10	1	-1E+10	1	-1E+10	1	-1E+10	1	-1E+10	1	-1E+10	1
4902554	72	C	02/02/2023	21:03	-132.945	48.360	0	1475.20	0	2.3860	0	34.4970	0	27.546	0	1457.613	0	-1e10	8	-1e10	8	-1E+10	1	-1E+10	1	-1E+10	1	-1E+10	1	-1E+10	1	-1E+10	1
4902554	72	C	02/02/2023	21:03	-132.945	48.360	0	1485.40	0	2.3730	0	34.5000	0	27.549	0	1467.656	0	-1e10	8	-1e10	8	-1E+10	1	-1E+10	1	-1E+10	1	-1E+10	1	-1E+10	1	-1E+10	1
4902554	72	C	02/02/2023	21:03	-132.945	48.360	0	1495.60	0	2.3580	0	34.5030	0	27.553	0	1477.698	0	-1e10	8	-1e10	8	-1E+10	1	-1E+10	1	-1E+10	1	-1E+10	1	-1E+10	1	-1E+10	1
4902554	72	C	02/02/2023	21:03	-132.945	48.360	0	1505.80	0	2.3480	0	34.5050	0	27.555	0	1487.740	0	-1e10	8	-1e10	8	-1E+10	1	-1E+10	1	-1E+10	1	-1E+10	1	-1E+10	1	-1E+10	1
4902554	72	C	02/02/2023	21:03	-132.945	48.360	0	1515.50	0	2.3400	0	34.5060	0	27.557	0	1497.289	0	-1e10	8	-1e10	8	-1E+10	1	-1E+10	1	-1E+10	1	-1E+10	1	-1E+10	1	-1E+10	1
4902554	72	C	02/02/2023	21:03	-132.945	48.360	0	1525.20	0	2.3240	0	34.5090	0	27.561	0	1506.838	0	-1e10	8	-1e10	8	-1E+10	1	-1E+10	1	-1E+10	1	-1E+10	1	-1E+10	1	-1E+10	1
4902554	72	C	02/02/2023	21:03	-132.945	48.360	0	1535.30	0	2.3070	0	34.5130	0	27.565	0	1516.781	0	-1e10	8	-1e10	8	-1E+10	1	-1E+10	1	-1E+10	1	-1E+10	1	-1E+10	1	-1E+10	1
4902554	72	C	02/02/2023	21:03	-132.945	48.360	0	1545.40	0	2.2960	0	34.5150	0	27.568	0	1526.722	0	-1e10	8	-1e10	8	-1E+10	1	-1E+10	1	-1E+10	1	-1E+10	1	-1E+10	1	-1E+10	1
4902554	72	C	02/02/2023	21:03	-132.945	48.360	0	1555.30	0	2.2850	0	34.5170	0	27.570	0	1536.467	0	-1e10	8	-1e10	8	-1E+10	1	-1E+10	1	-1E+10	1	-1E+10	1	-1E+10	1	-1E+10	1
4902554	72	C	02/02/2023	21:03	-132.945	48.360	0	1565.50	0	2.2810	0	34.5180	0	27.571	0	1546.506	0	-1e10	8	-1e10	8	-1E+10	1	-1E+10	1	-1E+10	1	-1E+10	1	-1E+10	1	-1E+10	1
4902554	72	C	02/02/2023	21:03	-132.945	48.360	0	1575.50	0	2.2690	0	34.5200	0	27.574	0	1556.348	0	-1e10	8	-1e10	8	-1E+10	1	-1E+10	1	-1E+10	1	-1E+10	1	-1E+10	1	-1E+10	1
4902554	72	C	02/02/2023	21:03	-132.945	48.360	0	1585.50	0	2.2530	0	34.5240	0	27.579	0	1566.189	0	-1e10	8	-1e10	8	-1E+10	1	-1E+10	1	-1E+10	1	-1E+10	1	-1E+10	1	-1E+10	1
4902554	72	C	02/02/2023	21:03	-132.945	48.360	0	1595.40	0	2.2460	0	34.5260	0	27.581	0	1575.932	0	-1e10	8	-1e10	8	-1E+10	1	-1E+10	1	-1E+10	1	-1E+10	1	-1E+10	1	-1E+10	1
4902554	72	C	02/02/2023	21:03	-132.945	48.360	0	1605.10	0	2.2420	0	34.5260	0	27.581	0	1585.477	0	-1e10	8	-1e10	8	-1E+10	1	-1E+10	1	-1E+10	1	-1E+10	1	-1E+10	1	-1E+10	1
4902554	72	C	02/02/2023	21:03	-132.945	48.360	0	1615.50	0	2.2330	0	34.5280	0	27.584	0	1595.711	0	-1e10	8	-1e10	8	-1E+10	1	-1E+10	1	-1E+10	1	-1E+10	1	-1E+10	1	-1E+10	1
4902554	72	C	02/02/2023	21:03	-132.945	48.360	0	1625.70	0	2.2280	0	34.5290	0	27.585	0	1605.747	0	-1e10	8	-1e10	8	-1E+10	1	-1E+10	1	-1E+10	1	-1E+10	1	-1E+10	1	-1E+10	1
4902554	72	C	02/02/2023	21:03	-132.945	48.360	0	1635.40	0	2.2180	0	34.5310	0	27.587	0	1615.291	0	-1e10	8	-1e10	8	-1E+10	1	-1E+10	1	-1E+10	1	-1E+10	1	-1E+10	1	-1E+10	1
4902554	72	C	02/02/2023	21:03	-132.945	48.360	0	1645.50	0	2.2060	0	34.5330	0	27.590	0	1625.228	0	-1e10	8	-1e10	8	-1E+10	1	-1E+10	1	-1E+10	1	-1E+10	1	-1E+10	1	-1E+10	1
4902554	72	C	02/02/2023	21:03	-132.945	48.360	0	1655.10	0	2.1960	0	34.5350	0	27.592	0	1634.673	0	-1e10	8	-1e10	8	-1E+10	1	-1E+10	1	-1E+10	1	-1E+10	1	-1E+10	1	-1E+10	1
4902554	72	C	02/02/2023	21:03	-132.945	48.360	0	1665.10	0	2.1850	0	34.5380	0	27.596	0	1644.511	0	-1e10	8	-1e10	8	-1E+10	1	-1E+10	1	-1E+10	1	-1E+10	1	-1E+10	1	-1E+10	1
4902554	72	C	02/02/2023	21:03	-132.945	48.360	0	1675.10	0	2.1770	0	34.5390	0	27.597	0	1654.348	0	-1e10	8	-1e10	8	-1E+10	1	-1E+10	1	-1E+10	1	-1E+10	1	-1E+10	1	-1E+10	1
4902554	72	C	02/02/2023	21:03	-132.945	48.360	0	1685.10	0	2.1680	0	34.5410	0	27.600	0	1664.185	0	-1e10	8	-1e10	8	-1E+10	1	-1E+10	1	-1E+10	1	-1E+10	1	-1E+10	1	-1E+10	1
4902554	72	C	02/02/2023	21:03	-132.945	48.360	0	1695.30	0	2.1620	0	34.5420	0	27.601	0	1674.218	0	-1e10	8	-1e10	8	-1E+10	1	-1E+10	1	-1E+10	1	-1E+10	1	-1E+10	1	-1E+10	1
4902554	72	C	02/02/2023	21:03	-132.945	48.360	0	1705.20	0	2.1520	0	34.5450	0	27.604	0	1683.956	0	-1e10	8	-1e10	8	-1E+10	1	-1E+10	1	-1E+10	1	-1E+10	1	-1E+10	1	-1E+10	1
4902554	72	C	02/02/2023	21:03	-132.945	48.360	0	1715.10	0	2.1370	0	34.5470	0	27.607	0	1693.693	0	-1e10	8	-1e10	8	-1E+10	1	-1E+10	1	-1E+10	1	-1E+10	1	-1E+10	1	-1E+10	1
4902554	72	C	02/02/2023	21:03	-132.945	48.360	0	1725.30	0	2.1250	0	34.5500	0	27.610	0	1703.725	0	-1e10	8	-1e10	8	-1E+10	1	-1E+10	1	-1E+10	1	-1E+10	1	-1E+10	1	-1E+10	1
4902554	72	C	02/02/2023	21:03	-132.945	48.360	0	1735.30	0	2.1180	0	34.5510	0	27.612	0	1713.559	0	-1e10	8	-1e10	8	-1E+10	1	-1E+10	1	-1E+10	1	-1E+10	1	-1E+10	1	-1E+10	1
4902554	72	C	02/02/2023	21:03	-132.945	48.360	0	1745.00	0	2.1090	0	34.5530	0	27.614	0	1723.099	0	-1e10	8	-1e10	8	-1E+10	1	-1E+10	1	-1E+10	1	-1E+10	1	-1E+10	1	-1E+10	1
4902554	72	C	02/02/2023	21:03	-132.945	48.360	0	1754.90	0	2.0970	0	34.5550	0	27.617	0	1732.834	0	-1e10	8	-1e10	8	-1E+10	1	-1E+10	1	-1E+10	1	-1E+10	1	-1E+10	1	-1E+10	1
4902554	72	C	02/02/2023	21:03	-132.945	48.360	0	1765.00	0	2.0860	0	34.5570	0	27.619	0	1742.765	0	-1e10	8	-1e10	8	-1E+10	1	-1E+10	1	-1E+10	1	-1E+10	1	-1E+10	1	-1E+10	1
4902554	72	C	02/02/2023	21:03	-132.945	48.360	0	1775.20	0	2.0790	0	34.5590	0	27.622	0	1752.795	0	-1e10	8	-1e10	8	-1E+10	1	-1E+10	1	-1E+10	1	-1E+10	1	-1E+10	1	-1E+10	1
4902554	72	C	02/02/2023	21:03	-132.945	48.360	0	1785.50	0	2.0740	0	34.5600	0	27.623	0	1762.922	0	-1e10	8	-1e10	8	-1E+10	1	-1E+10	1	-1E+10	1	-1E+10	1	-1E+10	1	-1E+10	1
4902554	72	C	02/02/2023	21:03	-132.945	48.360	0	1795.70	0	2.0620	0	34.5620	0	27.625	0	1772.951	0	-1e10	8	-1e10	8	-1E+10	1	-1E+10	1	-1E+10	1	-1E+10	1	-1E+10	1	-1E+10	1
4902554	72	C	02/02/2023	21:03	-132.945	48.360	0	1805.60	0	2.0540	0	34.5640	0	27.628	0	1782.684	0	-1e10	8	-1e10	8	-1E+10	1	-1E+10	1	-1E+10	1	-1E+10	1	-1E+10	1	-1E+10	1
4902554	72	C	02/02/2023	21:03	-132.945	48.360	0	1815.50	0	2.0440	0	34.5660	0	27.630	0	1792.416	0	-1e10	8	-1e10	8	-1E+10	1	-1E+10	1	-1E+10	1	-1E+10	1	-1E+10	1	-1E+10	1
4902554	72	C	02/02/2023	21:03	-132.945	48.360	0	1825.40	0	2.0380	0	34.5680	0	27.632	0	1802.148	0	-1e10	8	-1e10	8	-1E+10	1	-1E+10	1	-1E+10	1	-1E+10	1	-1E+10	1	-1E+10	1
4902554	72	C	02/02/2023	21:03	-132.945	48.360	0	1835.60	0	2.0240	0	34.5700	0	27.635	0	1812.175	0	-1e10	8	-1e10	8	-1E+10	1	-1E+10	1	-1E+10	1	-1E+10	1	-1E+10	1	-1E+10	1
4902554	72	C	02/02/2023	21:03	-132.945	48.360	0	1845.30	0	2.0170	0	34.5710	0	27.636	0	1821.710	0	-1e10	8	-1e10	8	-1E+10	1	-1E+10	1	-1E+10	1	-1E+10	1	-1E+10	1	-1E+10	1
4902554	72	C	02/02/2023	21:03	-132.945	48.360	0	1855.50	0	2.0110	0	34.5720	0	27.638	0	1831.735	0	-1e10	8	-1e10	8	-1E+10	1	-1E+10	1	-1E+10	1	-1E+10	1	-1E+10	1	-1E+10	1
4902554	72	C	02/02/2023	21:03	-132.945	48.360	0	1865.70	0	2.0060	0	34.5730	0	27.639	0	1841.761	0	-1e10	8	-1e10	8	-1E+10	1	-1E+10	1	-1E+10	1	-1E+10	1	-1E+10	1	-1E+10	1
4902554	72	C	02/02/2023	21:03	-132.945	48.360	0	1875.60	0	2.0020	0	34.5740	0	27.640	0	1851.491	0	-1e10	8	-1e10	8	-1E+10	1	-1E+10	1	-1E+10	1	-1E+10	1	-1E+10	1	-1E+10	1
4902554	72	C	02/02/2023	21:03	-132.945	48.360	0	1885.40	0	1.9910	0	34.5760	0	27.643	0	1861.122	0	-1e10	8	-1e10	8	-1E+10	1	-1E+10	1	-1E+10	1	-1E+10	1	-1E+10	1	-1E+10	1
4902554	72	C	02/02/2023	21:03	-132.945	48.360	0	1895.30	0	1.9860	0	34.5770	0	27.644	0	1870.851	0	-1e10	8	-1e10	8	-1E+10	1	-1E+10	1	-1E+10	1	-1E+10	1	-1E+10	1	-1E+10	1
4902554	72	C	02/02/2023	21:03	-132.945	48.360	0	1905.60	0	1.9800	0	34.5780	0	27.645	0	1880.972	0	-1e10	8	-1e10	8	-1E+10	1	-1E+10	1	-1E+10	1	-1E+10	1	-1E+10	1	-1E+10	1
4902554	72	C	02/02/2023	21:03	-132.945	48.360	0	1915.50	0	1.9770	0	34.5800	0	27.647	0	1890.700	0	-1e10	8	-1e10	8	-1E+10	1	-1E+10	1	-1E+10	1	-1E+10	1	-1E+10	1	-1E+10	1
4902554	72	C	02/02/2023	21:03	-132.945	48.360	0	1925.40	0	1.9740	0	34.5800	0	27.647	0	1900.428	0	-1e10	8	-1e10	8	-1E+10	1	-1E+10	1	-1E+10	1	-1E+10	1	-1E+10	1	-1E+10	1
4902554	72	C	02/02/2023	21:03	-132.945	48.360	0	1935.60	0	1.9650	0	34.5820	0	27.650	0	1910.450	0	-1e10	8	-1e10	8	-1E+10	1	-1E+10	1	-1E+10	1	-1E+10	1	-1E+10	1	-1E+10	1
4902554	72	C	02/02/2023	21:03	-132.945	48.360	0	1945.50	0	1.9580	0	34.5840	0	27.652	0	1920.177	0	-1e10	8	-1e10	8	-1E+10	1	-1E+10	1	-1E+10	1	-1E+10	1	-1E+10	1	-1E+10	1
4902554	72	C	02/02/2023	21:03	-132.945	48.360	0	1955.60	0	1.9510	0	34.5850	0	27.653	0	1930.100	0	-1e10	8	-1e10	8	-1E+10	1	-1E+10	1	-1E+10	1	-1E+10	1	-1E+10	1	-1E+10	1
4902554	72	C	02/02/2023	21:03	-132.945	48.360	0	1965.40	0	1.9500	0	34.5850	0	27.653	0	1939.727	0	-1e10	8	-1e10	8	-1E+10	1	-1E+10	1	-1E+10	1	-1E+10	1	-1E+10	1	-1E+10	1
4902554	72	C	02/02/2023	21:03	-132.945	48.360	0	1975.10	0	1.9460	0	34.5860	0	27.655	0	1949.256	0	-1e10	8	-1e10	8	-1E+10	1	-1E+10	1	-1E+10	1	-1E+10	1	-1E+10	1	-1E+10	1
4902554	72	C	02/02/2023	21:03	-132.945	48.360	0																										
4902554	73	C	02/13/2023	02:04	-132.866	48.263	0	0.80	0	8.3150	0	32.2870	0	25.098	0	0.793	0	-1e10	1	-1e10	1	-1E+10	1	-1E+10	1	-1E+10	1	-1E+10	1	-1E+10	1	-1E+10	1
4902554	73	C	02/13/2023	02:04	-132.866	48.263	0	1.00	0	8.3150	0	32.2870	0	25.098	0	0.992	0	-1e10	8	-1e10	8	-1E+10	1	-1E+10	1	-1E+10	1	-1E+10	1	-1E+10	1	-1E+10	1
4902554	73	C	02/13/2023	02:04	-132.866	48.263	0	1.90	0	8.3150	0	32.2870	0	25.098	0	1.884	0	-1e10	8	-1e10	8	-1E+10	1	-1E+10	1	-1E+10	1	-1E+10	1	-1E+10	1	-1E+10	1
4902554	73	C	02/13/2023	02:04	-132.866	48.263	0	3.00	0	8.3150	0	32.2870	0	25.098	0	2.975	0	-1e10	8	-1e10	8	-1E+10	1	-1E+10	1	-1E+10	1	-1E+10	1	-1E+10	1	-1E+10	1
4902554	73	C	02/13/2023	02:04	-132.866	48.263	0	4.10	0	8.3160	0	32.2880	0	25.099	0	4.065	0	-1e10	8	-1e10	8	-1E+10	1	-1E+10	1	-1E+10	1	-1E+10	1	-1E+10	1	-1E+10	1
4902554	73	C	02/13/2023	02:04	-132.866	48.263	0	4.90	0	8.3160	0	32.2880	0	25.099	0	4.859	0	-1e10	8	-1e10	8	-1E+10	1	-1E+10	1	-1E+10	1	-1E+10	1	-1E+10	1	-1E+10	1
4902554	73	C	02/13/2023	02:04	-132.866	48.263	0	5.80	0	8.3160	0	32.2880	0	25.099	0	5.751	0	-1e10	8	-1e10	8	-1E+10	1	-1E+10	1	-1E+10	1	-1E+10	1	-1E+10	1	-1E+10	1
4902554	73	C	02/13/2023	02:04	-132.866	48.263	0	7.10	0	8.3160	0	32.2880	0	25.099	0	7.040	0	-1e10	8	-1e10	8	-1E+10	1	-1E+10	1	-1E+10	1	-1E+10	1	-1E+10	1	-1E+10	1
4902554	73	C	02/13/2023	02:04	-132.866	48.263	0	8.00	0	8.3160	0	32.2880	0	25.099	0	7.933	0	-1e10	8	-1e10	8	-1E+10	1	-1E+10	1	-1E+10	1	-1E+10	1	-1E+10	1	-1E+10	1
4902554	73	C	02/13/2023	02:04	-132.866	48.263	0	9.00	0	8.3170	0	32.2880	0	25.099	0	8.924	0	-1e10	8	-1e10	8	-1E+10	1	-1E+10	1	-1E+10	1	-1E+10	1	-1E+10	1	-1E+10	1
4902554	73	C	02/13/2023	02:04	-132.866	48.263	0	9.90	0	8.3160	0	32.2880	0	25.099	0	9.816	0	-1e10	8	-1e10	8	-1E+10	1	-1E+10	1	-1E+10	1	-1E+10	1	-1E+10	1	-1E+10	1
4902554	73	C	02/13/2023	02:04	-132.866	48.263	0	10.80	0	8.3170	0	32.2880	0	25.099	0	10.709	0	-1e10	8	-1e10	8	-1E+10	1	-1E+10	1	-1E+10	1	-1E+10	1	-1E+10	1	-1E+10	1
4902554	73	C	02/13/2023	02:04	-132.866	48.263	0	12.00	0	8.3160	0	32.2870	0	25.098	0	11.899	0	-1e10	8	-1e10	8	-1E+10	1	-1E+10	1	-1E+10	1	-1E+10	1	-1E+10	1	-1E+10	1
4902554	73	C	02/13/2023	02:04	-132.866	48.263	0	13.00	0	8.3170	0	32.2870	0	25.098	0	12.890	0	-1e10	8	-1e10	8	-1E+10	1	-1E+10	1	-1E+10	1	-1E+10	1	-1E+10	1	-1E+10	1
4902554	73	C	02/13/2023	02:04	-132.866	48.263	0	13.80	0	8.3160	0	32.2880	0	25.099	0	13.683	0	-1e10	8	-1e10	8	-1E+10	1	-1E+10	1	-1E+10	1	-1E+10	1	-1E+10	1	-1E+10	1
4902554	73	C	02/13/2023	02:04	-132.866	48.263	0	15.00	0	8.3170	0	32.2870	0	25.098	0	14.873	0	-1e10	8	-1e10	8	-1E+10	1	-1E+10	1	-1E+10	1	-1E+10	1	-1E+10	1	-1E+10	1
4902554	73	C	02/13/2023	02:04	-132.866	48.263	0	15.90	0	8.3170	0	32.2880	0	25.099	0	15.766	0	-1e10	8	-1e10	8	-1E+10	1	-1E+10	1	-1E+10	1	-1E+10	1	-1E+10	1	-1E+10	1
4902554	73	C	02/13/2023	02:04	-132.866	48.263	0	17.10	0	8.3170	0	32.2880	0	25.099	0	16.955	0	-1e10	8	-1e10	8	-1E+10	1	-1E+10	1	-1E+10	1	-1E+10	1	-1E+10	1	-1E+10	1
4902554	73	C	02/13/2023	02:04	-132.866	48.263	0	18.00	0	8.3170	0	32.2880	0	25.099	0	17.848	0	-1e10	8	-1e10	8	-1E+10	1	-1E+10	1	-1E+10	1	-1E+10	1	-1E+10	1	-1E+10	1
4902554	73	C	02/13/2023	02:04	-132.866	48.263	0	18.80	0	8.3170	0	32.2880	0	25.099	0	18.641	0	-1e10	8	-1e10	8	-1E+10	1	-1E+10	1	-1E+10	1	-1E+10	1	-1E+10	1	-1E+10	1
4902554	73	C	02/13/2023	02:04	-132.866	48.263	0	19.90	0	8.3170	0	32.2870	0	25.098	0	19.732	0	-1e10	8	-1e10	8	-1E+10	1	-1E+10	1	-1E+10	1	-1E+10	1	-1E+10	1	-1E+10	1
4902554	73	C	02/13/2023	02:04	-132.866	48.263	0	20.90	0	8.3170	0	32.2880	0	25.099	0	20.723	0	-1e10	8	-1e10	8	-1E+10	1	-1E+10	1	-1E+10	1	-1E+10	1	-1E+10	1	-1E+10	1
4902554	73	C	02/13/2023	02:04	-132.866	48.263	0	21.90	0	8.3180	0	32.2880	0	25.099	0	21.715	0	-1e10	8	-1e10	8	-1E+10	1	-1E+10	1	-1E+10	1	-1E+10	1	-1E+10	1	-1E+10	1
4902554	73	C	02/13/2023	02:04	-132.866	48.263	0	23.00	0	8.3170	0	32.2880	0	25.099	0	22.805	0	-1e10	8	-1e10	8	-1E+10	1	-1E+10	1	-1E+10	1	-1E+10	1	-1E+10	1	-1E+10	1
4902554	73	C	02/13/2023	02:04	-132.866	48.263	0	24.10	0	8.3180	0	32.2880	0	25.099	0	23.896	0	-1e10	8	-1e10	8	-1E+10	1	-1E+10	1	-1E+10	1	-1E+10	1	-1E+10	1	-1E+10	1
4902554	73	C	02/13/2023	02:04	-132.866	48.263	0	25.10	0	8.3180	0	32.2880	0	25.099	0	24.887	0	-1e10	8	-1e10	8	-1E+10	1	-1E+10	1	-1E+10	1	-1E+10	1	-1E+10	1	-1E+10	1
4902554	73	C	02/13/2023	02:04	-132.866	48.263	0	26.00	0	8.3170	0	32.2870	0	25.098	0	25.780	0	-1e10	8	-1e10	8	-1E+10	1	-1E+10	1	-1E+10	1	-1E+10	1	-1E+10	1	-1E+10	1
4902554	73	C	02/13/2023	02:04	-132.866	48.263	0	27.00	0	8.3160	0	32.2870	0	25.098	0	26.771	0	-1e10	8	-1e10	8	-1E+10	1	-1E+10	1	-1E+10	1	-1E+10	1	-1E+10	1	-1E+10	1
4902554	73	C	02/13/2023	02:04	-132.866	48.263	0	28.00	0	8.3160	0	32.2870	0	25.098	0	27.762	0	-1e10	8	-1e10	8	-1E+10	1	-1E+10	1	-1E+10	1	-1E+10	1	-1E+10	1	-1E+10	1
4902554	73	C	02/13/2023	02:04	-132.866	48.263	0	28.90	0	8.3160	0	32.2870	0	25.098	0	28.655	0	-1e10	8	-1e10	8	-1E+10	1	-1E+10	1	-1E+10	1	-1E+10	1	-1E+10	1	-1E+10	1
4902554	73	C	02/13/2023	02:04	-132.866	48.263	0	30.00	0	8.3160	0	32.2870	0	25.098	0	29.745	0	-1e10	8	-1e10	8	-1E+10	1	-1E+10	1	-1E+10	1	-1E+10	1	-1E+10	1	-1E+10	1
4902554	73	C	02/13/2023	02:04	-132.866	48.263	0	31.00	0	8.3160	0	32.2870	0	25.098	0	30.737	0	-1e10	8	-1e10	8	-1E+10	1	-1E+10	1	-1E+10	1	-1E+10	1	-1E+10	1	-1E+10	1
4902554	73	C	02/13/2023	02:04	-132.866	48.263	0	32.20	0	8.3160	0	32.2870	0	25.098	0	31.927	0	-1e10	8	-1e10	8	-1E+10	1	-1E+10	1	-1E+10	1	-1E+10	1	-1E+10	1	-1E+10	1
4902554	73	C	02/13/2023	02:04	-132.866	48.263	0	32.90	0	8.3170	0	32.2870	0	25.098	0	32.621	0	-1e10	8	-1e10	8	-1E+10	1	-1E+10	1	-1E+10	1	-1E+10	1	-1E+10	1	-1E+10	1
4902554	73	C	02/13/2023	02:04	-132.866	48.263	0	34.00	0	8.3160	0	32.2870	0	25.098	0	33.711	0	-1e10	8	-1e10	8	-1E+10	1	-1E+10	1	-1E+10	1	-1E+10	1	-1E+10	1	-1E+10	1
4902554	73	C	02/13/2023	02:04	-132.866	48.263	0	35.20	0	8.3170	0	32.2860	0	25.098	0	34.901	0	-1e10	8	-1e10	8	-1E+10	1	-1E+10	1	-1E+10	1	-1E+10	1	-1E+10	1	-1E+10	1
4902554	73	C	02/13/2023	02:04	-132.866	48.263	0	35.90	0	8.3170	0	32.2860	0	25.098	0	35.595	0	-1e10	8	-1e10	8	-1E+10	1	-1E+10	1	-1E+10	1	-1E+10	1	-1E+10	1	-1E+10	1
4902554	73	C	02/13/2023	02:04	-132.866	48.263	0	37.00	0	8.3170	0	32.2870	0	25.098	0	36.685	0	-1e10	8	-1e10	8	-1E+10	1	-1E+10	1	-1E+10	1	-1E+10	1	-1E+10	1	-1E+10	1
4902554	73	C	02/13/2023	02:04	-132.866	48.263	0	38.00	0	8.3150	0	32.2870	0	25.099	0	37.677	0	-1e10	8	-1e10	8	-1E+10	1	-1E+10	1	-1E+10	1	-1E+10	1	-1E+10	1	-1E+10	1
4902554	73	C	02/13/2023	02:04	-132.866	48.263	0	38.90	0	8.3140	0	32.2870	0	25.099	0	38.569	0	-1e10	8	-1e10	8	-1E+10	1	-1E+10	1	-1E+10	1	-1E+10	1	-1E+10	1	-1E+10	1
4902554	73	C	02/13/2023	02:04	-132.866	48.263	0	40.00	0	8.3190	0	32.2890	0	25.100	0	39.660	0	-1e10	8	-1e10	8	-1E+10	1	-1E+10	1	-1E+10	1	-1E+10	1	-1E+10	1	-1E+10	1
4902554	73	C	02/13/2023	02:04	-132.866	48.263	0	40.90	0	8.3180	0	32.2890	0	25.100	0	40.552	0	-1e10	8	-1e10	8	-1E+10	1	-1E+10	1	-1E+10	1	-1E+10	1	-1E+10	1	-1E+10	1
4902554	73	C	02/13/2023	02:04	-132.866	48.263	0	42.10	0	8.3190	0	32.2890	0	25.100	0	41.741	0	-1e10	8	-1e10	8	-1E+10	1	-1E+10	1	-1E+10	1	-1E+10	1	-1E+10	1	-1E+10	1
4902554	73	C	02/13/2023	02:04	-132.866	48.263	0	42.80	0	8.3180	0	32.2900	0	25.101	0	42.435	0	-1e10	8	-1e10	8	-1E+10	1	-1E+10	1	-1E+10	1	-1E+10	1	-1E+10	1	-1E+10	1
4902554	73	C	02/13/2023	02:04	-132.866	48.263	0	43.90	0	8.3210	0	32.2920	0	25.102	0	43.526	0	-1e10	8	-1e10	8	-1E+10	1	-1E+10	1	-1E+10	1	-1E+10	1	-1E+10	1	-1E+10	1
4902554	73	C	02/13/2023	02:04	-132.866	48.263	0	44.90	0	8.3220	0	32.2930	0	25.102	0	44.517	0	-1e10	8	-1e10	8	-1E+10	1	-1E+10	1	-1E+10	1	-1E+10	1	-1E+10	1	-1E+10	1
4902554	73	C	02/13/2023	02:04	-132.866	48.263	0	46.10	0	8.3220	0	32.2940	0	25.103	0	45.707	0	-1e10	8	-1e10	8	-1E+10	1	-1E+10	1	-1E+10	1	-1E+10	1	-1E+10	1	-1E+10	1
4902554	73	C	02/13/2023	02:04	-132.866	48.263	0	47.10	0	8.3230	0	32.2930	0	25.102	0	46.698	0	-1e10	8	-1e10	8	-1E+10	1	-1E+10	1	-1E+10	1	-1E+10	1	-1E+10	1	-1E+10	1
4902554	73	C	02/13/2023	02:04	-132.866	48.263	0	48.10	0	8.3230	0	32.2940	0	25.103	0	47.690	0	-1e10	8	-1e10	8	-1E+10	1	-1E+10	1	-1E+10	1	-1E+10	1	-1E+10	1	-1E+10	1
4902554	73	C	02/13/2023	02:04	-132.866	48.263	0	49.30	0	8.3220	0	32.2910	0	25.101	0	48.879	0	-1e10	8	-1e10	8	-1E+10	1	-1E+10	1	-1E+10	1	-1E+10	1	-1E+10	1	-1E+10	1
4902554	73	C	02/13/2023	02:04	-132.866	48.263	0	50.00	0	8.3210	0	32.2920	0	25.102	0	49.573	0	-1e10	8	-1e10	8	-1E+10	1	-1E+10	1	-1E+10	1	-1E+10	1	-1E+10	1	-1E+10	1
4902554	73	C	02/13/2023	02:04	-132.866	48.263	0	51.00	0	8.3220	0	32.2940	0	25.103	0	50.565	0	-1e10	8	-1e10	8	-1E+10	1	-1E+10	1	-1E+10	1	-1E+10	1	-1E+10	1	-1E+10	1
4902554	73	C	02/13/2023	02:04	-132.866	48.263	0	52.30	0	8.3270	0	32.2950	0	25.103	0	51.853	0	-1e10	8	-1e10	8	-1E+10	1	-1E+10	1	-1E+10	1	-1E+10	1	-1E+10	1	-1E+10	1
4902554	73	C	02/13/2023	02:04	-132.866	48.263	0	53.00	0	8.3250	0	32.2960	0	25.105	0	52.547	0	-1e10	8	-1e10	8	-1E+10	1	-1E+10	1	-1E+10	1	-1E+10	1	-1E+10	1	-1E+10	1
4902554	73	C	02/13/2023	02:04	-132.866	48.263	0	54.00	0	8.3300	0	32.2970	0	25.105	0	53.539	0	-1e10	8	-1e10	8	-1E+10	1	-1E+10	1	-1E+10	1	-1E+10	1	-1E+10	1	-1E+10	1
4902554	73	C	02/13/2023	02:04	-132.866	48.263	0	55.00	0	8.3360	0	32.3040	0	25.109	0	54.530	0	-1e10	8	-1e10	8	-1E+10	1	-1E+10	1	-1E+10	1	-1E+10	1	-1E+10	1	-1E+10	1
4902554	73	C	02/13/2023	02:04	-132.866	48.263	0	56.00	0	8.3370	0	32.3040	0	25.109	0	55.521	0	-1e10	8	-1e10	8	-1E+10	1	-1E+10	1	-1E+10	1	-1E+10	1	-1E+10	1	-1E+10	1
4902554	73	C	02/13/2023	02:04	-132.866	48.263	0	57.20	0	8.3520	0	32.3130	0	25.114	0	56.711	0	-1e10	8	-1e10	8	-1E+10	1	-1E+10	1	-1E+10	1	-1E+10	1	-1E+10	1	-1E+10	1
4902554	73	C	02/13/2023	02:04	-132.866	48.263	0	58.10	0	8.3520	0	32.3120	0	25.113	0	57.603	0	-1e10	8	-1e10	8	-1E+10	1	-1E+10	1	-1E+10	1	-1E+10	1	-1E+10	1	-1E+10	1
4902554	73	C	02/13/2023	02:04	-132.866	48.263	0	59.00	0	8.3540	0	32.3140	0	25.114	0	58.495	0	-1e10	8	-1e10	8	-1E+10	1	-1E+10	1	-1E+10	1	-1E+10	1	-1E+10	1	-1E+10	1
4902554	73	C	02/13/2023	02:04	-132.866	48.263	0	59.90	0	8.3550	0	32.3130	0	25.114	0	59.387	0	-1e10	8	-1e10	8	-1E+10	1	-1E+10	1	-1E+10	1	-1E+10	1	-1E+10	1	-1E+10	1
4902554	73	C	02/13/2023	02:04	-132.866	48.263	0	61.10	0	8.3550	0	32.3140	0	25.114	0	60.577	0	-1e10	8	-1e10	8	-1E+10	1	-1E+10	1	-1E+10	1	-1E+10	1	-1E+10	1	-1E+10	1
4902554	73	C	02/13/2023	02:04	-132.866	48.263	0	61.90	0	8.3580	0	32.3160	0	25.115	0	61.370	0	-1e10	8	-1e10	8	-1E+10	1	-1E+10	1	-1E+10	1	-1E+10	1	-1E+10	1	-1E+10	1
4902554	73	C	02/13/2023	02:04	-132.866	48.263	0	62.90	0	8.3600	0	32.3170	0	25.116	0	62.361	0	-1e10	8	-1e10	8	-1E+10	1	-1E+10	1	-1E+10	1	-1E+10	1	-1E+10	1	-1E+10	1
4902554	73	C	02/13/2023	02:04	-132.866	48.263	0	64.10	0	8.3600	0	32.3170	0	25.116	0	63.551	0	-1e10	8	-1e10	8	-1E+10	1	-1E+10	1	-1E+10	1	-1E+10	1	-1E+10	1	-1E+10	1
4902554	73	C	02/13/2023	02:04	-132.866	48.263	0	65.20	0	8.3600	0	32.3170	0	25.116	0	64.641	0	-1e10	8	-1e10	8	-1E+10	1	-1E+10	1	-1E+10	1	-1E+10	1	-1E+10	1	-1E+10	1
4902554	73	C	02/13/2023	02:04	-132.866	48.263	0	66.00	0	8.3610	0	32.3180	0	25.117	0	65.434	0	-1e10	8	-1e10	8	-1E+10	1	-1E+10	1	-1E+10	1	-1E+10	1	-1E+10	1	-1E+10	1
4902554	73	C	02/13/2023	02:04	-132.866	48.263	0	67.20	0	8.3610	0	32.3180	0	25.117	0	66.624	0	-1e10	8	-1e10	8	-1E+10	1	-1E+10	1	-1E+10	1	-1E+10	1	-1E+10	1	-1E+10	1
4902554	73	C	02/13/2023	02:04	-132.866	48.263	0	68.00	0	8.3610	0	32.3180	0	25.117	0	67.417	0	-1e10	8	-1e10	8	-1E+10	1	-1E+10	1	-1E+10	1	-1E+10	1	-1E+10	1	-1E+10	1
4902554	73	C	02/13/2023	02:04	-132.866	48.263	0	69.20	0	8.3610	0	32.3190	0	25.117	0	68.606	0	-1e10	8	-1e10	8	-1E+10	1	-1E+10	1	-1E+10	1	-1E+10	1	-1E+10	1	-1E+10	1
4902554	73	C	02/13/2023	02:04	-132.866	48.263	0	69.80	0	8.3610	0	32.3180	0	25.117	0	69.201	0	-1e10	8	-1e10	8	-1E+10	1	-1E+10	1	-1E+10	1	-1E+10	1	-1E+10	1	-1E+10	1
4902554	73	C	02/13/2023	02:04	-132.866	48.263	0	70.90	0	8.3650	0	32.3190	0	25.117	0	70.291	0	-1e10	8	-1e10	8	-1E+10	1	-1E+10	1	-1E+10	1	-1E+10	1	-1E+10	1	-1E+10	1
4902554	73	C	02/13/2023	02:04	-132.866	48.263	0	72.20	0	8.3690	0	32.3200	0	25.117	0	71.580	0	-1e10	8	-1e10	8	-1E+10	1	-1E+10	1	-1E+10	1	-1E+10	1	-1E+10	1	-1E+10	1
4902554	73	C	02/13/2023	02:04	-132.866	48.263	0	73.00	0	8.3700	0	32.3210	0	25.118	0	72.373	0	-1e10	8	-1e10	8	-1E+10	1	-1E+10	1	-1E+10	1	-1E+10	1	-1E+10	1	-1E+10	1
4902554	73	C	02/13/2023	02:04	-132.866	48.263	0	74.00	0	8.3720	0	32.3210	0	25.117	0	73.364	0	-1e10	8	-1e10	8	-1E+10	1	-1E+10	1	-1E+10	1	-1E+10	1	-1E+10	1	-1E+10	1
4902554	73	C	02/13/2023	02:04	-132.866	48.263	0	74.90	0	8.3710	0	32.3220	0	25.118	0	74.256	0	-1e10	8	-1e10	8	-1E+10	1	-1E+10	1	-1E+10	1	-1E+10	1	-1E+10	1	-1E+10	1
4902554	73	C	02/13/2023	02:04	-132.866	48.263	0	76.00	0	8.3710	0	32.3210	0	25.118	0	75.347	0	-1e10	8	-1e10	8	-1E+10	1	-1E+10	1	-1E+10	1	-1E+10	1	-1E+10	1	-1E+10	1
4902554	73	C	02/13/2023	02:04	-132.866	48.263	0	77.10	0	8.3700	0	32.3220	0	25.119	0	76.437	0	-1e10	8	-1e10	8	-1E+10	1	-1E+10	1	-1E+10	1	-1E+10	1	-1E+10	1	-1E+10	1
4902554	73	C	02/13/2023	02:04	-132.866	48.263	0	77.80	0	8.3690	0	32.3210	0	25.118	0	77.131	0	-1e10	8	-1e10	8	-1E+10	1	-1E+10	1	-1E+10	1	-1E+10	1	-1E+10	1	-1E+10	1
4902554	73	C	02/13/2023	02:04	-132.866	48.263	0	78.90	0	8.3700	0	32.3210	0	25.118	0	78.221	0	-1e10	8	-1e10	8	-1E+10	1	-1E+10	1	-1E+10	1	-1E+10	1	-1E+10	1	-1E+10	1
4902554	73	C	02/13/2023	02:04	-132.866	48.263	0	80.00	0	8.3680	0	32.3210	0	25.118	0	79.311	0	-1e10	8	-1e10	8	-1E+10	1	-1E+10	1	-1E+10	1	-1E+10	1	-1E+10	1	-1E+10	1
4902554	73	C	02/13/2023	02:04	-132.866	48.263	0	81.00	0	8.3670	0	32.3210	0	25.118	0	80.303	0	-1e10	8	-1e10	8	-1E+10	1	-1E+10	1	-1E+10	1	-1E+10	1	-1E+10	1	-1E+10	1
4902554	73	C	02/13/2023	02:04	-132.866	48.263	0	82.10	0	8.3650	0	32.3220	0	25.119	0	81.393	0	-1e10	8	-1e10	8	-1E+10	1	-1E+10	1	-1E+10	1	-1E+10	1	-1E+10	1	-1E+10	1
4902554	73	C	02/13/2023	02:04	-132.866	48.263	0	83.10	0	8.3630	0	32.3230	0	25.121	0	82.384	0	-1e10	8	-1e10	8	-1E+10	1	-1E+10	1	-1E+10	1	-1E+10	1	-1E+10	1	-1E+10	1
4902554	73	C	02/13/2023	02:04	-132.866	48.263	0	84.00	0	8.3620	0	32.3240	0	25.121	0	83.276	0	-1e10	8	-1e10	8	-1E+10	1	-1E+10	1	-1E+10	1	-1E+10	1	-1E+10	1	-1E+10	1
4902554	73	C	02/13/2023	02:04	-132.866	48.263	0	85.10	0	8.3620	0	32.3250	0	25.122	0	84.366	0	-1e10	8	-1e10	8	-1E+10	1	-1E+10	1	-1E+10	1	-1E+10	1	-1E+10	1	-1E+10	1
4902554	73	C	02/13/2023	02:04	-132.866	48.263	0	85.90	0	8.3610	0	32.3250	0	25.122	0	85.159	0	-1e10	8	-1e10	8	-1E+10	1	-1E+10	1	-1E+10	1	-1E+10	1	-1E+10	1	-1E+10	1
4902554	73	C	02/13/2023	02:04	-132.866	48.263	0	86.80	0	8.3600	0	32.3260	0	25.123	0	86.051	0	-1e10	8	-1e10	8	-1E+10	1	-1E+10	1	-1E+10	1	-1E+10	1	-1E+10	1	-1E+10	1
4902554	73	C	02/13/2023	02:04	-132.866	48.263	0	87.80	0	8.3570	0	32.3260	0	25.124	0	87.043	0	-1e10	8	-1e10	8	-1E+10	1	-1E+10	1	-1E+10	1	-1E+10	1	-1E+10	1	-1E+10	1
4902554	73	C	02/13/2023	02:04	-132.866	48.263	0	88.90	0	8.3500	0	32.3280	0	25.126	0	88.133	0	-1e10	8	-1e10	8	-1E+10	1	-1E+10	1	-1E+10	1	-1E+10	1	-1E+10	1	-1E+10	1
4902554	73	C	02/13/2023	02:04	-132.866	48.263	0	90.00	0	8.3210	0	32.3360	0	25.137	0	89.223	0	-1e10	8	-1e10	8	-1E+10	1	-1E+10	1	-1E+10	1	-1E+10	1	-1E+10	1	-1E+10	1
4902554	73	C	02/13/2023	02:04	-132.866	48.263	0	91.10	0	8.2580	0	32.3470	0	25.155	0	90.313	0	-1e10	8	-1e10	8	-1E+10	1	-1E+10	1	-1E+10	1	-1E+10	1	-1E+10	1	-1E+10	1
4902554	73	C	02/13/2023	02:04	-132.866	48.263	0	91.90	0	8.1720	0	32.3690	0	25.185	0	91.106	0	-1e10	8	-1e10	8	-1E+10	1	-1E+10	1	-1E+10	1	-1E+10	1	-1E+10	1	-1E+10	1
4902554	73	C	02/13/2023	02:04	-132.866	48.263	0	93.10	0	8.0890	0	32.3750	0	25.202	0	92.296	0	-1e10	8	-1e10	8	-1E+10	1	-1E+10	1	-1E+10	1	-1E+10	1	-1E+10	1	-1E+10	1
4902554	73	C	02/13/2023	02:04	-132.866	48.263	0	93.80	0	8.0880	0	32.3720	0	25.199	0	92.989	0	-1e10	8	-1e10	8	-1E+10	1	-1E+10	1	-1E+10	1	-1E+10	1	-1E+10	1	-1E+10	1
4902554	73	C	02/13/2023	02:04	-132.866	48.263	0	94.90	0	7.9330	0	32.3940	0	25.239	0	94.080	0	-1e10	8	-1e10	8	-1E+10	1	-1E+10	1	-1E+10	1	-1E+10	1	-1E+10	1	-1E+10	1
4902554	73	C	02/13/2023	02:04	-132.866	48.263	0	95.90	0	7.6320	0	32.4460	0	25.322	0	95.071	0	-1e10	8	-1e10	8	-1E+10	1	-1E+10	1	-1E+10	1	-1E+10	1	-1E+10	1	-1E+10	1
4902554	73	C	02/13/2023	02:04	-132.866	48.263	0	96.90	0	7.2620	0	32.5330	0	25.442	0	96.062	0	-1e10	8	-1e10	8	-1E+10	1	-1E+10	1	-1E+10	1	-1E+10	1	-1E+10	1	-1E+10	1
4902554	73	C	02/13/2023	02:04	-132.866	48.263	0	98.00	0	7.1510	0	32.5460	0	25.467	0	97.152	0	-1e10	8	-1e10	8	-1E+10	1	-1E+10	1	-1E+10	1	-1E+10	1	-1E+10	1	-1E+10	1
4902554	73	C	02/13/2023	02:04	-132.866	48.263	0	99.20	0	7.1430	0	32.5470	0	25.469	0	98.342	0	-1e10	8	-1e10	8	-1E+10	1	-1E+10	1	-1E+10	1	-1E+10	1	-1E+10	1	-1E+10	1
4902554	73	C	02/13/2023	02:04	-132.866	48.263	0	99.90	0	7.0740	0	32.5700	0	25.496	0	99.035	0	-1e10	8	-1e10	8	-1E+10	1	-1E+10	1	-1E+10	1	-1E+10	1	-1E+10	1	-1E+10	1
4902554	73	C	02/13/2023	02:04	-132.866	48.263	0	101.10	0	6.9680	0	32.5910	0	25.527	0	100.225	0	-1e10	8	-1e10	8	-1E+10	1	-1E+10	1	-1E+10	1	-1E+10	1	-1E+10	1	-1E+10	1
4902554	73	C	02/13/2023	02:04	-132.866	48.263	0	102.00	0	6.8720	0	32.6240	0	25.566	0	101.117	0	-1e10	8	-1e10	8	-1E+10	1	-1E+10	1	-1E+10	1	-1E+10	1	-1E+10	1	-1E+10	1
4902554	73	C	02/13/2023	02:04	-132.866	48.263	0	102.90	0	6.7300	0	32.6890	0	25.636	0	102.009	0	-1e10	8	-1e10	8	-1E+10	1	-1E+10	1	-1E+10	1	-1E+10	1	-1E+10	1	-1E+10	1
4902554	73	C	02/13/2023	02:04	-132.866	48.263	0	103.80	0	6.5710	0	32.7680	0	25.719	0	102.901	0	-1e10	8	-1e10	8	-1E+10	1	-1E+10	1	-1E+10	1	-1E+10	1	-1E+10	1	-1E+10	1
4902554	73	C	02/13/2023	02:04	-132.866	48.263	0	104.90	0	6.5310	0	32.7920	0	25.743	0	103.991	0	-1e10	8	-1e10	8	-1E+10	1	-1E+10	1	-1E+10	1	-1E+10	1	-1E+10	1	-1E+10	1
4902554	73	C	02/13/2023	02:04	-132.866	48.263	0	106.10	0	6.4700	0	32.8350	0	25.784	0	105.180	0	-1e10	8	-1e10	8	-1E+10	1	-1E+10	1	-1E+10	1	-1E+10	1	-1E+10	1	-1E+10	1
4902554	73	C	02/13/2023	02:04	-132.866	48.263	0	106.70	0	6.4610	0	32.8410	0	25.790	0	105.775	0	-1e10	8	-1e10	8	-1E+10	1	-1E+10	1	-1E+10	1	-1E+10	1	-1E+10	1	-1E+10	1
4902554	73	C	02/13/2023	02:04	-132.866	48.263	0	108.10	0	6.4320	0	32.8620	0	25.811	0	107.162	0	-1e10	8	-1e10	8	-1E+10	1	-1E+10	1	-1E+10	1	-1E+10	1	-1E+10	1	-1E+10	1
4902554	73	C	02/13/2023	02:04	-132.866	48.263	0	109.30	0	6.4210	0	32.8680	0	25.817	0	108.352	0	-1e10	8	-1e10	8	-1E+10	1	-1E+10	1	-1E+10	1	-1E+10	1	-1E+10	1	-1E+10	1
4902554	73	C	02/13/2023	02:04	-132.866	48.263	0	110.00	0	6.3840	0	32.9160	0	25.859	0	109.045	0	-1e10	8	-1e10	8	-1E+10	1	-1E+10	1	-1E+10	1	-1E+10	1	-1E+10	1	-1E+10	1
4902554	73	C	02/13/2023	02:04	-132.866	48.263	0	111.10	0	6.3720	0	32.9280	0	25.870	0	110.135	0	-1e10	8	-1e10	8	-1E+10	1	-1E+10	1	-1E+10	1	-1E+10	1	-1E+10	1	-1E+10	1
4902554	73	C	02/13/2023	02:04	-132.866	48.263	0	112.10	0	6.3580	0	32.9460	0	25.886	0	111.126	0	-1e10	8	-1e10	8	-1E+10	1	-1E+10	1	-1E+10	1	-1E+10	1	-1E+10	1	-1E+10	1
4902554	73	C	02/13/2023	02:04	-132.866	48.263	0	113.00	0	6.3320	0	32.9760	0	25.913	0	112.018	0	-1e10	8	-1e10	8	-1E+10	1	-1E+10	1	-1E+10	1	-1E+10	1	-1E+10	1	-1E+10	1
4902554	73	C	02/13/2023	02:04	-132.866	48.263	0	114.10	0	6.3150	0	32.9950	0	25.931	0	113.109	0	-1e10	8	-1e10	8	-1E+10	1	-1E+10	1	-1E+10	1	-1E+10	1	-1E+10	1	-1E+10	1
4902554	73	C	02/13/2023	02:04	-132.866	48.263	0	114.80	0	6.2970	0	33.0150	0	25.949	0	113.802	0	-1e10	8	-1e10	8	-1E+10	1	-1E+10	1	-1E+10	1	-1E+10	1	-1E+10	1	-1E+10	1
4902554	73	C	02/13/2023	02:04	-132.866	48.263	0	115.90	0	6.2810	0	33.0310	0	25.963	0	114.892	0	-1e10	8	-1e10	8	-1E+10	1	-1E+10	1	-1E+10	1	-1E+10	1	-1E+10	1	-1E+10	1
4902554	73	C	02/13/2023	02:04	-132.866	48.263	0	117.00	0	6.2750	0	33.0380	0	25.970	0	115.983	0	-1e10	8	-1e10	8	-1E+10	1	-1E+10	1	-1E+10	1	-1E+10	1	-1E+10	1	-1E+10	1
4902554	73	C	02/13/2023	02:04	-132.866	48.263	0	117.80	0	6.2720	0	33.0400	0	25.972	0	116.775	0	-1e10	8	-1e10	8	-1E+10	1	-1E+10	1	-1E+10	1	-1E+10	1	-1E+10	1	-1E+10	1
4902554	73	C	02/13/2023	02:04	-132.866	48.263	0	119.00	0	6.2660	0	33.0440	0	25.975	0	117.965	0	-1e10	8	-1e10	8	-1E+10	1	-1E+10	1	-1E+10	1	-1E+10	1	-1E+10	1	-1E+10	1
4902554	73	C	02/13/2023	02:04	-132.866	48.263	0	120.20	0	6.2610	0	33.0500	0	25.981	0	119.154	0	-1e10	8	-1e10	8	-1E+10	1	-1E+10	1	-1E+10	1	-1E+10	1	-1E+10	1	-1E+10	1
4902554	73	C	02/13/2023	02:04	-132.866	48.263	0	121.00	0	6.2550	0	33.0560	0	25.986	0	119.947	0	-1e10	8	-1e10	8	-1E+10	1	-1E+10	1	-1E+10	1	-1E+10	1	-1E+10	1	-1E+10	1
4902554	73	C	02/13/2023	02:04	-132.866	48.263	0	121.90	0	6.2460	0	33.0650	0	25.995	0	120.838	0	-1e10	8	-1e10	8	-1E+10	1	-1E+10	1	-1E+10	1	-1E+10	1	-1E+10	1	-1E+10	1
4902554	73	C	02/13/2023	02:04	-132.866	48.263	0	122.70	0	6.2400	0	33.0720	0	26.001	0	121.631	0	-1e10	8	-1e10	8	-1E+10	1	-1E+10	1	-1E+10	1	-1E+10	1	-1E+10	1	-1E+10	1
4902554	73	C	02/13/2023	02:04	-132.866	48.263	0	123.60	0	6.2340	0	33.0790	0	26.007	0	122.523	0	-1e10	8	-1e10	8	-1E+10	1	-1E+10	1	-1E+10	1	-1E+10	1	-1E+10	1	-1E+10	1
4902554	73	C	02/13/2023	02:04	-132.866	48.263	0	124.90	0	6.2260	0	33.0870	0	26.014	0	123.811	0	-1e10	8	-1e10	8	-1E+10	1	-1E+10	1	-1E+10	1	-1E+10	1	-1E+10	1	-1E+10	1
4902554	73	C	02/13/2023	02:04	-132.866	48.263	0	126.20	0	6.2230	0	33.0910	0	26.018	0	125.100	0	-1e10	8	-1e10	8	-1E+10	1	-1E+10	1	-1E+10	1	-1E+10	1	-1E+10	1	-1E+10	1
4902554	73	C	02/13/2023	02:04	-132.866	48.263	0	127.00	0	6.2200	0	33.0940	0	26.021	0	125.893	0	-1e10	8	-1e10	8	-1E+10	1	-1E+10	1	-1E+10	1	-1E+10	1	-1E+10	1	-1E+10	1
4902554	73	C	02/13/2023	02:04	-132.866	48.263	0	127.90	0	6.2170	0	33.0970	0	26.024	0	126.784	0	-1e10	8	-1e10	8	-1E+10	1	-1E+10	1	-1E+10	1	-1E+10	1	-1E+10	1	-1E+10	1
4902554	73	C	02/13/2023	02:04	-132.866	48.263	0	128.70	0	6.2150	0	33.0990	0	26.025	0	127.577	0	-1e10	8	-1e10	8	-1E+10	1	-1E+10	1	-1E+10	1	-1E+10	1	-1E+10	1	-1E+10	1
4902554	73	C	02/13/2023	02:04	-132.866	48.263	0	130.00	0	6.2150	0	33.1000	0	26.026	0	128.865	0	-1e10	8	-1e10	8	-1E+10	1	-1E+10	1	-1E+10	1	-1E+10	1	-1E+10	1	-1E+10	1
4902554	73	C	02/13/2023	02:04	-132.866	48.263	0	131.30	0	6.2140	0	33.1000	0	26.026	0	130.154	0	-1e10	8	-1e10	8	-1E+10	1	-1E+10	1	-1E+10	1	-1E+10	1	-1E+10	1	-1E+10	1
4902554	73	C	02/13/2023	02:04	-132.866	48.263	0	132.10	0	6.2130	0	33.1010	0	26.027	0	130.946	0	-1e10	8	-1e10	8	-1E+10	1	-1E+10	1	-1E+10	1	-1E+10	1	-1E+10	1	-1E+10	1
4902554	73	C	02/13/2023	02:04	-132.866	48.263	0	132.90	0	6.1990	0	33.1130	0	26.038	0	131.739	0	-1e10	8	-1e10	8	-1E+10	1	-1E+10	1	-1E+10	1	-1E+10	1	-1E+10	1	-1E+10	1
4902554	73	C	02/13/2023	02:04	-132.866	48.263	0	133.70	0	6.1840	0	33.1240	0	26.049	0	132.532	0	-1e10	8	-1e10	8	-1E+10	1	-1E+10	1	-1E+10	1	-1E+10	1	-1E+10	1	-1E+10	1
4902554	73	C	02/13/2023	02:04	-132.866	48.263	0	135.00	0	6.1630	0	33.1420	0	26.066	0	133.820	0	-1e10	8	-1e10	8	-1E+10	1	-1E+10	1	-1E+10	1	-1E+10	1	-1E+10	1	-1E+10	1
4902554	73	C	02/13/2023	02:04	-132.866	48.263	0	136.30	0	6.1530	0	33.1530	0	26.076	0	135.108	0	-1e10	8	-1e10	8	-1E+10	1	-1E+10	1	-1E+10	1	-1E+10	1	-1E+10	1	-1E+10	1
4902554	73	C	02/13/2023	02:04	-132.866	48.263	0	137.10	0	6.1370	0	33.1680	0	26.090	0	135.901	0	-1e10	8	-1e10	8	-1E+10	1	-1E+10	1	-1E+10	1	-1E+10	1	-1E+10	1	-1E+10	1
4902554	73	C	02/13/2023	02:04	-132.866	48.263	0	138.00	0	6.1300	0	33.1760	0	26.097	0	136.793	0	-1e10	8	-1e10	8	-1E+10	1	-1E+10	1	-1E+10	1	-1E+10	1	-1E+10	1	-1E+10	1
4902554	73	C	02/13/2023	02:04	-132.866	48.263	0	138.90	0	6.1240	0	33.1830	0	26.103	0	137.685	0	-1e10	8	-1e10	8	-1E+10	1	-1E+10	1	-1E+10	1	-1E+10	1	-1E+10	1	-1E+10	1
4902554	73	C	02/13/2023	02:04	-132.866	48.263	0	139.80	0	6.1090	0	33.1960	0	26.115	0	138.577	0	-1e10	8	-1e10	8	-1E+10	1	-1E+10	1	-1E+10	1	-1E+10	1	-1E+10	1	-1E+10	1
4902554	73	C	02/13/2023	02:04	-132.866	48.263	0	140.70	0	6.1030	0	33.2020	0	26.121	0	139.468	0	-1e10	8	-1e10	8	-1E+10	1	-1E+10	1	-1E+10	1	-1E+10	1	-1E+10	1	-1E+10	1
4902554	73	C	02/13/2023	02:04	-132.866	48.263	0	141.90	0	6.0890	0	33.2110	0	26.130	0	140.657	0	-1e10	8	-1e10	8	-1E+10	1	-1E+10	1	-1E+10	1	-1E+10	1	-1E+10	1	-1E+10	1
4902554	73	C	02/13/2023	02:04	-132.866	48.263	0	143.10	0	6.0780	0	33.2200	0	26.138	0	141.847	0	-1e10	8	-1e10	8	-1E+10	1	-1E+10	1	-1E+10	1	-1E+10	1	-1E+10	1	-1E+10	1
4902554	73	C	02/13/2023	02:04	-132.866	48.263	0	143.90	0	6.0590	0	33.2330	0	26.151	0	142.639	0	-1e10	8	-1e10	8	-1E+10	1	-1E+10	1	-1E+10	1	-1E+10	1	-1E+10	1	-1E+10	1
4902554	73	C	02/13/2023	02:04	-132.866	48.263	0	144.70	0	6.0420	0	33.2460	0	26.163	0	143.432	0	-1e10	8	-1e10	8	-1E+10	1	-1E+10	1	-1E+10	1	-1E+10	1	-1E+10	1	-1E+10	1
4902554	73	C	02/13/2023	02:04	-132.866	48.263	0	145.90	0	6.0190	0	33.2660	0	26.182	0	144.621	0	-1e10	8	-1e10	8	-1E+10	1	-1E+10	1	-1E+10	1	-1E+10	1	-1E+10	1	-1E+10	1
4902554	73	C	02/13/2023	02:04	-132.866	48.263	0	147.20	0	5.9920	0	33.2890	0	26.203	0	145.909	0	-1e10	8	-1e10	8	-1E+10	1	-1E+10	1	-1E+10	1	-1E+10	1	-1E+10	1	-1E+10	1
4902554	73	C	02/13/2023	02:04	-132.866	48.263	0	148.00	0	5.9670	0	33.3100	0	26.223	0	146.702	0	-1e10	8	-1e10	8	-1E+10	1	-1E+10	1	-1E+10	1	-1E+10	1	-1E+10	1	-1E+10	1
4902554	73	C	02/13/2023	02:04	-132.866	48.263	0	148.90	0	5.9460	0	33.3260	0	26.238	0	147.594	0	-1e10	8	-1e10	8	-1E+10	1	-1E+10	1	-1E+10	1	-1E+10	1	-1E+10	1	-1E+10	1
4902554	73	C	02/13/2023	02:04	-132.866	48.263	0	149.70	0	5.9380	0	33.3340	0	26.246	0	148.386	0	-1e10	8	-1e10	8	-1E+10	1	-1E+10	1	-1E+10	1	-1E+10	1	-1E+10	1	-1E+10	1
4902554	73	C	02/13/2023	02:04	-132.866	48.263	0	151.00	0	5.9240	0	33.3450	0	26.256	0	149.675	0	-1e10	8	-1e10	8	-1E+10	1	-1E+10	1	-1E+10	1	-1E+10	1	-1E+10	1	-1E+10	1
4902554	73	C	02/13/2023	02:04	-132.866	48.263	0	152.20	0	5.8970	0	33.3720	0	26.281	0	150.864	0	-1e10	8	-1e10	8	-1E+10	1	-1E+10	1	-1E+10	1	-1E+10	1	-1E+10	1	-1E+10	1
4902554	73	C	02/13/2023	02:04	-132.866	48.263	0	153.00	0	5.8740	0	33.3970	0	26.303	0	151.656	0	-1e10	8	-1e10	8	-1E+10	1	-1E+10	1	-1E+10	1	-1E+10	1	-1E+10	1	-1E+10	1
4902554	73	C	02/13/2023	02:04	-132.866	48.263	0	153.90	0	5.8680	0	33.4030	0	26.309	0	152.548	0	-1e10	8	-1e10	8	-1E+10	1	-1E+10	1	-1E+10	1	-1E+10	1	-1E+10	1	-1E+10	1
4902554	73	C	02/13/2023	02:04	-132.866	48.263	0	154.70	0	5.8580	0	33.4110	0	26.316	0	153.341	0	-1e10	8	-1e10	8	-1E+10	1	-1E+10	1	-1E+10	1	-1E+10	1	-1E+10	1	-1E+10	1
4902554	73	C	02/13/2023	02:04	-132.866	48.263	0	156.00	0	5.8540	0	33.4140	0	26.319	0	154.629	0	-1e10	8	-1e10	8	-1E+10	1	-1E+10	1	-1E+10	1	-1E+10	1	-1E+10	1	-1E+10	1
4902554	73	C	02/13/2023	02:04	-132.866	48.263	0	157.20	0	5.8480	0	33.4200	0	26.325	0	155.818	0	-1e10	8	-1e10	8	-1E+10	1	-1E+10	1	-1E+10	1	-1E+10	1	-1E+10	1	-1E+10	1
4902554	73	C	02/13/2023	02:04	-132.866	48.263	0	158.00	0	5.8410	0	33.4280	0	26.332	0	156.610	0	-1e10	8	-1e10	8	-1E+10	1	-1E+10	1	-1E+10	1	-1E+10	1	-1E+10	1	-1E+10	1
4902554	73	C	02/13/2023	02:04	-132.866	48.263	0	158.80	0	5.8320	0	33.4370	0	26.340	0	157.403	0	-1e10	8	-1e10	8	-1E+10	1	-1E+10	1	-1E+10	1	-1E+10	1	-1E+10	1	-1E+10	1
4902554	73	C	02/13/2023	02:04	-132.866	48.263	0	160.00	0	5.8230	0	33.4440	0	26.347	0	158.592	0	-1e10	8	-1e10	8	-1E+10	1	-1E+10	1	-1E+10	1	-1E+10	1	-1E+10	1	-1E+10	1
4902554	73	C	02/13/2023	02:04	-132.866	48.263	0	161.20	0	5.8140	0	33.4530	0	26.355	0	159.781	0	-1e10	8	-1e10	8	-1E+10	1	-1E+10	1	-1E+10	1	-1E+10	1	-1E+10	1	-1E+10	1
4902554	73	C	02/13/2023	02:04	-132.866	48.263	0	162.00	0	5.8080	0	33.4590	0	26.360	0	160.574	0	-1e10	8	-1e10	8	-1E+10	1	-1E+10	1	-1E+10	1	-1E+10	1	-1E+10	1	-1E+10	1
4902554	73	C	02/13/2023	02:04	-132.866	48.263	0	162.80	0	5.7860	0	33.4760	0	26.377	0	161.366	0	-1e10	8	-1e10	8	-1E+10	1	-1E+10	1	-1E+10	1	-1E+10	1	-1E+10	1	-1E+10	1
4902554	73	C	02/13/2023	02:04	-132.866	48.263	0	163.90	0	5.7530	0	33.4990	0	26.399	0	162.456	0	-1e10	8	-1e10	8	-1E+10	1	-1E+10	1	-1E+10	1	-1E+10	1	-1E+10	1	-1E+10	1
4902554	73	C	02/13/2023	02:04	-132.866	48.263	0	165.10	0	5.6730	0	33.5600	0	26.457	0	163.645	0	-1e10	8	-1e10	8	-1E+10	1	-1E+10	1	-1E+10	1	-1E+10	1	-1E+10	1	-1E+10	1
4902554	73	C	02/13/2023	02:04	-132.866	48.263	0	166.00	0	5.6560	0	33.5730	0	26.469	0	164.537	0	-1e10	8	-1e10	8	-1E+10	1	-1E+10	1	-1E+10	1	-1E+10	1	-1E+10	1	-1E+10	1
4902554	73	C	02/13/2023	02:04	-132.866	48.263	0	166.80	0	5.6430	0	33.5830	0	26.479	0	165.330	0	-1e10	8	-1e10	8	-1E+10	1	-1E+10	1	-1E+10	1	-1E+10	1	-1E+10	1	-1E+10	1
4902554	73	C	02/13/2023	02:04	-132.866	48.263	0	167.60	0	5.6160	0	33.5970	0	26.493	0	166.122	0	-1e10	8	-1e10	8	-1E+10	1	-1E+10	1	-1E+10	1	-1E+10	1	-1E+10	1	-1E+10	1
4902554	73	C	02/13/2023	02:04	-132.866	48.263	0	168.90	0	5.5930	0	33.6120	0	26.508	0	167.410	0	-1e10	8	-1e10	8	-1E+10	1	-1E+10	1	-1E+10	1	-1E+10	1	-1E+10	1	-1E+10	1
4902554	73	C	02/13/2023	02:04	-132.866	48.263	0	170.20	0	5.5800	0	33.6230	0	26.518	0	168.698	0	-1e10	8	-1e10	8	-1E+10	1	-1E+10	1	-1E+10	1	-1E+10	1	-1E+10	1	-1E+10	1
4902554	73	C	02/13/2023	02:04	-132.866	48.263	0	171.10	0	5.5740	0	33.6270	0	26.522	0	169.590	0	-1e10	8	-1e10	8	-1E+10	1	-1E+10	1	-1E+10	1	-1E+10	1	-1E+10	1	-1E+10	1
4902554	73	C	02/13/2023	02:04	-132.866	48.263	0	172.00	0	5.5720	0	33.6280	0	26.523	0	170.482	0	-1e10	8	-1e10	8	-1E+10	1	-1E+10	1	-1E+10	1	-1E+10	1	-1E+10	1	-1E+10	1
4902554	73	C	02/13/2023	02:04	-132.866	48.263	0	172.80	0	5.5690	0	33.6280	0	26.523	0	171.274	0	-1e10	8	-1e10	8	-1E+10	1	-1E+10	1	-1E+10	1	-1E+10	1	-1E+10	1	-1E+10	1
4902554	73	C	02/13/2023	02:04	-132.866	48.263	0	173.70	0	5.5640	0	33.6310	0	26.526	0	172.166	0	-1e10	8	-1e10	8	-1E+10	1	-1E+10	1	-1E+10	1	-1E+10	1	-1E+10	1	-1E+10	1
4902554	73	C	02/13/2023	02:04	-132.866	48.263	0	174.90	0	5.5520	0	33.6390	0	26.534	0	173.355	0	-1e10	8	-1e10	8	-1E+10	1	-1E+10	1	-1E+10	1	-1E+10	1	-1E+10	1	-1E+10	1
4902554	73	C	02/13/2023	02:04	-132.866	48.263	0	176.40	0	5.5510	0	33.6400	0	26.535	0	174.841	0	-1e10	8	-1e10	8	-1E+10	1	-1E+10	1	-1E+10	1	-1E+10	1	-1E+10	1	-1E+10	1
4902554	73	C	02/13/2023	02:04	-132.866	48.263	0	177.30	0	5.5480	0	33.6430	0	26.537	0	175.732	0	-1e10	8	-1e10	8	-1E+10	1	-1E+10	1	-1E+10	1	-1E+10	1	-1E+10	1	-1E+10	1
4902554	73	C	02/13/2023	02:04	-132.866	48.263	0	178.30	0	5.5430	0	33.6470	0	26.541	0	176.723	0	-1e10	8	-1e10	8	-1E+10	1	-1E+10	1	-1E+10	1	-1E+10	1	-1E+10	1	-1E+10	1
4902554	73	C	02/13/2023	02:04	-132.866	48.263	0	179.20	0	5.5260	0	33.6540	0	26.549	0	177.615	0	-1e10	8	-1e10	8	-1E+10	1	-1E+10	1	-1E+10	1	-1E+10	1	-1E+10	1	-1E+10	1
4902554	73	C	02/13/2023	02:04	-132.866	48.263	0	180.20	0	5.5060	0	33.6630	0	26.558	0	178.606	0	-1e10	8	-1e10	8	-1E+10	1	-1E+10	1	-1E+10	1	-1E+10	1	-1E+10	1	-1E+10	1
4902554	73	C	02/13/2023	02:04	-132.866	48.263	0	181.10	0	5.5030	0	33.6630	0	26.559	0	179.497	0	-1e10	8	-1e10	8	-1E+10	1	-1E+10	1	-1E+10	1	-1E+10	1	-1E+10	1	-1E+10	1
4902554	73	C	02/13/2023	02:04	-132.866	48.263	0	182.10	0	5.4760	0	33.6730	0	26.570	0	180.488	0	-1e10	8	-1e10	8	-1E+10	1	-1E+10	1	-1E+10	1	-1E+10	1	-1E+10	1	-1E+10	1
4902554	73	C	02/13/2023	02:04	-132.866	48.263	0	183.10	0	5.4600	0	33.6780	0	26.576	0	181.479	0	-1e10	8	-1e10	8	-1E+10	1	-1E+10	1	-1E+10	1	-1E+10	1	-1E+10	1	-1E+10	1
4902554	73	C	02/13/2023	02:04	-132.866	48.263	0	184.10	0	5.4580	0	33.6770	0	26.575	0	182.469	0	-1e10	8	-1e10	8	-1E+10	1	-1E+10	1	-1E+10	1	-1E+10	1	-1E+10	1	-1E+10	1
4902554	73	C	02/13/2023	02:04	-132.866	48.263	0	185.10	0	5.4540	0	33.6780	0	26.576	0	183.460	0	-1e10	8	-1e10	8	-1E+10	1	-1E+10	1	-1E+10	1	-1E+10	1	-1E+10	1	-1E+10	1
4902554	73	C	02/13/2023	02:04	-132.866	48.263	0	186.20	0	5.4450	0	33.6810	0	26.580	0	184.550	0	-1e10	8	-1e10	8	-1E+10	1	-1E+10	1	-1E+10	1	-1E+10	1	-1E+10	1	-1E+10	1
4902554	73	C	02/13/2023	02:04	-132.866	48.263	0	187.20	0	5.4210	0	33.6880	0	26.588	0	185.541	0	-1e10	8	-1e10	8	-1E+10	1	-1E+10	1	-1E+10	1	-1E+10	1	-1E+10	1	-1E+10	1
4902554	73	C	02/13/2023	02:04	-132.866	48.263	0	188.20	0	5.4150	0	33.6880	0	26.589	0	186.531	0	-1e10	8	-1e10	8	-1E+10	1	-1E+10	1	-1E+10	1	-1E+10	1	-1E+10	1	-1E+10	1
4902554	73	C	02/13/2023	02:04	-132.866	48.263	0	189.30	0	5.3950	0	33.6980	0	26.599	0	187.621	0	-1e10	8	-1e10	8	-1E+10	1	-1E+10	1	-1E+10	1	-1E+10	1	-1E+10	1	-1E+10	1
4902554	73	C	02/13/2023	02:04	-132.866	48.263	0	190.30	0	5.3720	0	33.7010	0	26.604	0	188.612	0	-1e10	8	-1e10	8	-1E+10	1	-1E+10	1	-1E+10	1	-1E+10	1	-1E+10	1	-1E+10	1
4902554	73	C	02/13/2023	02:04	-132.866	48.263	0	191.40	0	5.3720	0	33.7010	0	26.604	0	189.701	0	-1e10	8	-1e10	8	-1E+10	1	-1E+10	1	-1E+10	1	-1E+10	1	-1E+10	1	-1E+10	1
4902554	73	C	02/13/2023	02:04	-132.866	48.263	0	192.40	0	5.3700	0	33.7010	0	26.605	0	190.692	0	-1e10	8	-1e10	8	-1E+10	1	-1E+10	1	-1E+10	1	-1E+10	1	-1E+10	1	-1E+10	1
4902554	73	C	02/13/2023	02:04	-132.866	48.263	0	193.50	0	5.3700	0	33.7010	0	26.605	0	191.782	0	-1e10	8	-1e10	8	-1E+10	1	-1E+10	1	-1E+10	1	-1E+10	1	-1E+10	1	-1E+10	1
4902554	73	C	02/13/2023	02:04	-132.866	48.263	0	194.50	0	5.3480	0	33.7060	0	26.611	0	192.772	0	-1e10	8	-1e10	8	-1E+10	1	-1E+10	1	-1E+10	1	-1E+10	1	-1E+10	1	-1E+10	1
4902554	73	C	02/13/2023	02:04	-132.866	48.263	0	195.50	0	5.3430	0	33.7060	0	26.612	0	193.763	0	-1e10	8	-1e10	8	-1E+10	1	-1E+10	1	-1E+10	1	-1E+10	1	-1E+10	1	-1E+10	1
4902554	73	C	02/13/2023	02:04	-132.866	48.263	0	196.90	0	5.3220	0	33.7090	0	26.617	0	195.150	0	-1e10	8	-1e10	8	-1E+10	1	-1E+10	1	-1E+10	1	-1E+10	1	-1E+10	1	-1E+10	1
4902554	73	C	02/13/2023	02:04	-132.866	48.263	0	198.10	0	5.3050	0	33.7130	0	26.622	0	196.339	0	-1e10	8	-1e10	8	-1E+10	1	-1E+10	1	-1E+10	1	-1E+10	1	-1E+10	1	-1E+10	1
4902554	73	C	02/13/2023	02:04	-132.866	48.263	0	198.90	0	5.3000	0	33.7130	0	26.622	0	197.131	0	-1e10	8	-1e10	8	-1E+10	1	-1E+10	1	-1E+10	1	-1E+10	1	-1E+10	1	-1E+10	1
4902554	73	C	02/13/2023	02:04	-132.866	48.263	0	199.70	0	5.2880	0	33.7170	0	26.627	0	197.924	0	-1e10	8	-1e10	8	-1E+10	1	-1E+10	1	-1E+10	1	-1E+10	1	-1E+10	1	-1E+10	1
4902554	73	C	02/13/2023	02:04	-132.866	48.263	0	200.90	0	5.2650	0	33.7210	0	26.633	0	199.112	0	-1e10	8	-1e10	8	-1E+10	1	-1E+10	1	-1E+10	1	-1E+10	1	-1E+10	1	-1E+10	1
4902554	73	C	02/13/2023	02:04	-132.866	48.263	0	202.20	0	5.2320	0	33.7270	0	26.641	0	200.400	0	-1e10	8	-1e10	8	-1E+10	1	-1E+10	1	-1E+10	1	-1E+10	1	-1E+10	1	-1E+10	1
4902554	73	C	02/13/2023	02:04	-132.866	48.263	0	203.00	0	5.2280	0	33.7280	0	26.643	0	201.193	0	-1e10	8	-1e10	8	-1E+10	1	-1E+10	1	-1E+10	1	-1E+10	1	-1E+10	1	-1E+10	1
4902554	73	C	02/13/2023	02:04	-132.866	48.263	0	203.90	0	5.2270	0	33.7270	0	26.642	0	202.084	0	-1e10	8	-1e10	8	-1E+10	1	-1E+10	1	-1E+10	1	-1E+10	1	-1E+10	1	-1E+10	1
4902554	73	C	02/13/2023	02:04	-132.866	48.263	0	204.70	0	5.2260	0	33.7270	0	26.642	0	202.877	0	-1e10	8	-1e10	8	-1E+10	1	-1E+10	1	-1E+10	1	-1E+10	1	-1E+10	1	-1E+10	1
4902554	73	C	02/13/2023	02:04	-132.866	48.263	0	206.00	0	5.2230	0	33.7270	0	26.642	0	204.165	0	-1e10	8	-1e10	8	-1E+10	1	-1E+10	1	-1E+10	1	-1E+10	1	-1E+10	1	-1E+10	1
4902554	73	C	02/13/2023	02:04	-132.866	48.263	0	207.20	0	5.2210	0	33.7270	0	26.643	0	205.353	0	-1e10	8	-1e10	8	-1E+10	1	-1E+10	1	-1E+10	1	-1E+10	1	-1E+10	1	-1E+10	1
4902554	73	C	02/13/2023	02:04	-132.866	48.263	0	208.00	0	5.2150	0	33.7280	0	26.644	0	206.146	0	-1e10	8	-1e10	8	-1E+10	1	-1E+10	1	-1E+10	1	-1E+10	1	-1E+10	1	-1E+10	1
4902554	73	C	02/13/2023	02:04	-132.866	48.263	0	208.80	0	5.2020	0	33.7290	0	26.646	0	206.938	0	-1e10	8	-1e10	8	-1E+10	1	-1E+10	1	-1E+10	1	-1E+10	1	-1E+10	1	-1E+10	1
4902554	73	C	02/13/2023	02:04	-132.866	48.263	0	209.70	0	5.1960	0	33.7300	0	26.648	0	207.830	0	-1e10	8	-1e10	8	-1E+10	1	-1E+10	1	-1E+10	1	-1E+10	1	-1E+10	1	-1E+10	1
4902554	73	C	02/13/2023	02:04	-132.866	48.263	0	211.00	0	5.1530	0	33.7370	0	26.658	0	209.117	0	-1e10	8	-1e10	8	-1E+10	1	-1E+10	1	-1E+10	1	-1E+10	1	-1E+10	1	-1E+10	1
4902554	73	C	02/13/2023	02:04	-132.866	48.263	0	212.30	0	5.1220	0	33.7380	0	26.663	0	210.405	0	-1e10	8	-1e10	8	-1E+10	1	-1E+10	1	-1E+10	1	-1E+10	1	-1E+10	1	-1E+10	1
4902554	73	C	02/13/2023	02:04	-132.866	48.263	0	213.10	0	5.1160	0	33.7390	0	26.664	0	211.198	0	-1e10	8	-1e10	8	-1E+10	1	-1E+10	1	-1E+10	1	-1E+10	1	-1E+10	1	-1E+10	1
4902554	73	C	02/13/2023	02:04	-132.866	48.263	0	214.00	0	5.1030	0	33.7400	0	26.667	0	212.089	0	-1e10	8	-1e10	8	-1E+10	1	-1E+10	1	-1E+10	1	-1E+10	1	-1E+10	1	-1E+10	1
4902554	73	C	02/13/2023	02:04	-132.866	48.263	0	214.90	0	5.0870	0	33.7420	0	26.670	0	212.981	0	-1e10	8	-1e10	8	-1E+10	1	-1E+10	1	-1E+10	1	-1E+10	1	-1E+10	1	-1E+10	1
4902554	73	C	02/13/2023	02:04	-132.866	48.263	0	215.80	0	5.0280	0	33.7480	0	26.682	0	213.872	0	-1e10	8	-1e10	8	-1E+10	1	-1E+10	1	-1E+10	1	-1E+10	1	-1E+10	1	-1E+10	1
4902554	73	C	02/13/2023	02:04	-132.866	48.263	0	216.70	0	5.0260	0	33.7480	0	26.682	0	214.764	0	-1e10	8	-1e10	8	-1E+10	1	-1E+10	1	-1E+10	1	-1E+10	1	-1E+10	1	-1E+10	1
4902554	73	C	02/13/2023	02:04	-132.866	48.263	0	217.90	0	5.0170	0	33.7490	0	26.684	0	215.952	0	-1e10	8	-1e10	8	-1E+10	1	-1E+10	1	-1E+10	1	-1E+10	1	-1E+10	1	-1E+10	1
4902554	73	C	02/13/2023	02:04	-132.866	48.263	0	219.30	0	5.0130	0	33.7500	0	26.685	0	217.339	0	-1e10	8	-1e10	8	-1E+10	1	-1E+10	1	-1E+10	1	-1E+10	1	-1E+10	1	-1E+10	1
4902554	73	C	02/13/2023	02:04	-132.866	48.263	0	220.20	0	5.0120	0	33.7490	0	26.684	0	218.231	0	-1e10	8	-1e10	8	-1E+10	1	-1E+10	1	-1E+10	1	-1E+10	1	-1E+10	1	-1E+10	1
4902554	73	C	02/13/2023	02:04	-132.866	48.263	0	221.10	0	5.0100	0	33.7510	0	26.686	0	219.122	0	-1e10	8	-1e10	8	-1E+10	1	-1E+10	1	-1E+10	1	-1E+10	1	-1E+10	1	-1E+10	1
4902554	73	C	02/13/2023	02:04	-132.866	48.263	0	222.00	0	5.0100	0	33.7500	0	26.685	0	220.014	0	-1e10	8	-1e10	8	-1E+10	1	-1E+10	1	-1E+10	1	-1E+10	1	-1E+10	1	-1E+10	1
4902554	73	C	02/13/2023	02:04	-132.866	48.263	0	222.90	0	5.0070	0	33.7500	0	26.686	0	220.905	0	-1e10	8	-1e10	8	-1E+10	1	-1E+10	1	-1E+10	1	-1E+10	1	-1E+10	1	-1E+10	1
4902554	73	C	02/13/2023	02:04	-132.866	48.263	0	223.80	0	5.0050	0	33.7500	0	26.686	0	221.796	0	-1e10	8	-1e10	8	-1E+10	1	-1E+10	1	-1E+10	1	-1E+10	1	-1E+10	1	-1E+10	1
4902554	73	C	02/13/2023	02:04	-132.866	48.263	0	224.80	0	5.0030	0	33.7500	0	26.686	0	222.787	0	-1e10	8	-1e10	8	-1E+10	1	-1E+10	1	-1E+10	1	-1E+10	1	-1E+10	1	-1E+10	1
4902554	73	C	02/13/2023	02:04	-132.866	48.263	0	225.70	0	5.0000	0	33.7500	0	26.686	0	223.678	0	-1e10	8	-1e10	8	-1E+10	1	-1E+10	1	-1E+10	1	-1E+10	1	-1E+10	1	-1E+10	1
4902554	73	C	02/13/2023	02:04	-132.866	48.263	0	226.60	0	4.9900	0	33.7510	0	26.688	0	224.570	0	-1e10	8	-1e10	8	-1E+10	1	-1E+10	1	-1E+10	1	-1E+10	1	-1E+10	1	-1E+10	1
4902554	73	C	02/13/2023	02:04	-132.866	48.263	0	227.50	0	4.9820	0	33.7520	0	26.690	0	225.461	0	-1e10	8	-1e10	8	-1E+10	1	-1E+10	1	-1E+10	1	-1E+10	1	-1E+10	1	-1E+10	1
4902554	73	C	02/13/2023	02:04	-132.866	48.263	0	228.90	0	4.9700	0	33.7510	0	26.691	0	226.848	0	-1e10	8	-1e10	8	-1E+10	1	-1E+10	1	-1E+10	1	-1E+10	1	-1E+10	1	-1E+10	1
4902554	73	C	02/13/2023	02:04	-132.866	48.263	0	230.30	0	4.9550	0	33.7520	0	26.693	0	228.235	0	-1e10	8	-1e10	8	-1E+10	1	-1E+10	1	-1E+10	1	-1E+10	1	-1E+10	1	-1E+10	1
4902554	73	C	02/13/2023	02:04	-132.866	48.263	0	231.30	0	4.9200	0	33.7560	0	26.700	0	229.225	0	-1e10	8	-1e10	8	-1E+10	1	-1E+10	1	-1E+10	1	-1E+10	1	-1E+10	1	-1E+10	1
4902554	73	C	02/13/2023	02:04	-132.866	48.263	0	232.20	0	4.9000	0	33.7600	0	26.706	0	230.117	0	-1e10	8	-1e10	8	-1E+10	1	-1E+10	1	-1E+10	1	-1E+10	1	-1E+10	1	-1E+10	1
4902554	73	C	02/13/2023	02:04	-132.866	48.263	0	233.20	0	4.8830	0	33.7600	0	26.707	0	231.107	0	-1e10	8	-1e10	8	-1E+10	1	-1E+10	1	-1E+10	1	-1E+10	1	-1E+10	1	-1E+10	1
4902554	73	C	02/13/2023	02:04	-132.866	48.263	0	234.10	0	4.8720	0	33.7590	0	26.708	0	231.998	0	-1e10	8	-1e10	8	-1E+10	1	-1E+10	1	-1E+10	1	-1E+10	1	-1E+10	1	-1E+10	1
4902554	73	C	02/13/2023	02:04	-132.866	48.263	0	235.00	0	4.8590	0	33.7600	0	26.710	0	232.890	0	-1e10	8	-1e10	8	-1E+10	1	-1E+10	1	-1E+10	1	-1E+10	1	-1E+10	1	-1E+10	1
4902554	73	C	02/13/2023	02:04	-132.866	48.263	0	236.00	0	4.8510	0	33.7610	0	26.712	0	233.880	0	-1e10	8	-1e10	8	-1E+10	1	-1E+10	1	-1E+10	1	-1E+10	1	-1E+10	1	-1E+10	1
4902554	73	C	02/13/2023	02:04	-132.866	48.263	0	236.90	0	4.8340	0	33.7630	0	26.715	0	234.772	0	-1e10	8	-1e10	8	-1E+10	1	-1E+10	1	-1E+10	1	-1E+10	1	-1E+10	1	-1E+10	1
4902554	73	C	02/13/2023	02:04	-132.866	48.263	0	237.90	0	4.8210	0	33.7640	0	26.718	0	235.762	0	-1e10	8	-1e10	8	-1E+10	1	-1E+10	1	-1E+10	1	-1E+10	1	-1E+10	1	-1E+10	1
4902554	73	C	02/13/2023	02:04	-132.866	48.263	0	238.80	0	4.8200	0	33.7630	0	26.717	0	236.654	0	-1e10	8	-1e10	8	-1E+10	1	-1E+10	1	-1E+10	1	-1E+10	1	-1E+10	1	-1E+10	1
4902554	73	C	02/13/2023	02:04	-132.866	48.263	0	239.80	0	4.8180	0	33.7630	0	26.717	0	237.644	0	-1e10	8	-1e10	8	-1E+10	1	-1E+10	1	-1E+10	1	-1E+10	1	-1E+10	1	-1E+10	1
4902554	73	C	02/13/2023	02:04	-132.866	48.263	0	240.70	0	4.8180	0	33.7630	0	26.717	0	238.535	0	-1e10	8	-1e10	8	-1E+10	1	-1E+10	1	-1E+10	1	-1E+10	1	-1E+10	1	-1E+10	1
4902554	73	C	02/13/2023	02:04	-132.866	48.263	0	241.70	0	4.8150	0	33.7630	0	26.718	0	239.526	0	-1e10	8	-1e10	8	-1E+10	1	-1E+10	1	-1E+10	1	-1E+10	1	-1E+10	1	-1E+10	1
4902554	73	C	02/13/2023	02:04	-132.866	48.263	0	242.60	0	4.8150	0	33.7630	0	26.718	0	240.417	0	-1e10	8	-1e10	8	-1E+10	1	-1E+10	1	-1E+10	1	-1E+10	1	-1E+10	1	-1E+10	1
4902554	73	C	02/13/2023	02:04	-132.866	48.263	0	243.60	0	4.8120	0	33.7620	0	26.717	0	241.408	0	-1e10	8	-1e10	8	-1E+10	1	-1E+10	1	-1E+10	1	-1E+10	1	-1E+10	1	-1E+10	1
4902554	73	C	02/13/2023	02:04	-132.866	48.263	0	244.90	0	4.7860	0	33.7650	0	26.722	0	242.695	0	-1e10	8	-1e10	8	-1E+10	1	-1E+10	1	-1E+10	1	-1E+10	1	-1E+10	1	-1E+10	1
4902554	73	C	02/13/2023	02:04	-132.866	48.263	0	246.40	0	4.7650	0	33.7690	0	26.728	0	244.181	0	-1e10	8	-1e10	8	-1E+10	1	-1E+10	1	-1E+10	1	-1E+10	1	-1E+10	1	-1E+10	1
4902554	73	C	02/13/2023	02:04	-132.866	48.263	0	247.30	0	4.7290	0	33.7730	0	26.735	0	245.072	0	-1e10	8	-1e10	8	-1E+10	1	-1E+10	1	-1E+10	1	-1E+10	1	-1E+10	1	-1E+10	1
4902554	73	C	02/13/2023	02:04	-132.866	48.263	0	248.20	0	4.7040	0	33.7770	0	26.741	0	245.963	0	-1e10	8	-1e10	8	-1E+10	1	-1E+10	1	-1E+10	1	-1E+10	1	-1E+10	1	-1E+10	1
4902554	73	C	02/13/2023	02:04	-132.866	48.263	0	249.20	0	4.6950	0	33.7790	0	26.743	0	246.954	0	-1e10	8	-1e10	8	-1E+10	1	-1E+10	1	-1E+10	1	-1E+10	1	-1E+10	1	-1E+10	1
4902554	73	C	02/13/2023	02:04	-132.866	48.263	0	250.20	0	4.6880	0	33.7810	0	26.746	0	247.944	0	-1e10	8	-1e10	8	-1E+10	1	-1E+10	1	-1E+10	1	-1E+10	1	-1E+10	1	-1E+10	1
4902554	73	C	02/13/2023	02:04	-132.866	48.263	0	251.10	0	4.6850	0	33.7810	0	26.746	0	248.836	0	-1e10	8	-1e10	8	-1E+10	1	-1E+10	1	-1E+10	1	-1E+10	1	-1E+10	1	-1E+10	1
4902554	73	C	02/13/2023	02:04	-132.866	48.263	0	252.10	0	4.6770	0	33.7830	0	26.749	0	249.826	0	-1e10	8	-1e10	8	-1E+10	1	-1E+10	1	-1E+10	1	-1E+10	1	-1E+10	1	-1E+10	1
4902554	73	C	02/13/2023	02:04	-132.866	48.263	0	253.00	0	4.6720	0	33.7820	0	26.748	0	250.717	0	-1e10	8	-1e10	8	-1E+10	1	-1E+10	1	-1E+10	1	-1E+10	1	-1E+10	1	-1E+10	1
4902554	73	C	02/13/2023	02:04	-132.866	48.263	0	253.90	0	4.6680	0	33.7830	0	26.750	0	251.609	0	-1e10	8	-1e10	8	-1E+10	1	-1E+10	1	-1E+10	1	-1E+10	1	-1E+10	1	-1E+10	1
4902554	73	C	02/13/2023	02:04	-132.866	48.263	0	254.90	0	4.6630	0	33.7840	0	26.751	0	252.599	0	-1e10	8	-1e10	8	-1E+10	1	-1E+10	1	-1E+10	1	-1E+10	1	-1E+10	1	-1E+10	1
4902554	73	C	02/13/2023	02:04	-132.866	48.263	0	255.80	0	4.6580	0	33.7850	0	26.752	0	253.490	0	-1e10	8	-1e10	8	-1E+10	1	-1E+10	1	-1E+10	1	-1E+10	1	-1E+10	1	-1E+10	1
4902554	73	C	02/13/2023	02:04	-132.866	48.263	0	256.70	0	4.6530	0	33.7850	0	26.753	0	254.382	0	-1e10	8	-1e10	8	-1E+10	1	-1E+10	1	-1E+10	1	-1E+10	1	-1E+10	1	-1E+10	1
4902554	73	C	02/13/2023	02:04	-132.866	48.263	0	257.70	0	4.6490	0	33.7860	0	26.754	0	255.372	0	-1e10	8	-1e10	8	-1E+10	1	-1E+10	1	-1E+10	1	-1E+10	1	-1E+10	1	-1E+10	1
4902554	73	C	02/13/2023	02:04	-132.866	48.263	0	258.60	0	4.6430	0	33.7870	0	26.756	0	256.263	0	-1e10	8	-1e10	8	-1E+10	1	-1E+10	1	-1E+10	1	-1E+10	1	-1E+10	1	-1E+10	1
4902554	73	C	02/13/2023	02:04	-132.866	48.263	0	259.60	0	4.6370	0	33.7880	0	26.757	0	257.254	0	-1e10	8	-1e10	8	-1E+10	1	-1E+10	1	-1E+10	1	-1E+10	1	-1E+10	1	-1E+10	1
4902554	73	C	02/13/2023	02:04	-132.866	48.263	0	260.50	0	4.6320	0	33.7890	0	26.758	0	258.145	0	-1e10	8	-1e10	8	-1E+10	1	-1E+10	1	-1E+10	1	-1E+10	1	-1E+10	1	-1E+10	1
4902554	73	C	02/13/2023	02:04	-132.866	48.263	0	261.90	0	4.6290	0	33.7890	0	26.759	0	259.531	0	-1e10	8	-1e10	8	-1E+10	1	-1E+10	1	-1E+10	1	-1E+10	1	-1E+10	1	-1E+10	1
4902554	73	C	02/13/2023	02:04	-132.866	48.263	0	263.40	0	4.6140	0	33.7930	0	26.764	0	261.017	0	-1e10	8	-1e10	8	-1E+10	1	-1E+10	1	-1E+10	1	-1E+10	1	-1E+10	1	-1E+10	1
4902554	73	C	02/13/2023	02:04	-132.866	48.263	0	264.40	0	4.6090	0	33.7930	0	26.764	0	262.007	0	-1e10	8	-1e10	8	-1E+10	1	-1E+10	1	-1E+10	1	-1E+10	1	-1E+10	1	-1E+10	1
4902554	73	C	02/13/2023	02:04	-132.866	48.263	0	265.90	0	4.5970	0	33.7950	0	26.767	0	263.493	0	-1e10	8	-1e10	8	-1E+10	1	-1E+10	1	-1E+10	1	-1E+10	1	-1E+10	1	-1E+10	1
4902554	73	C	02/13/2023	02:04	-132.866	48.263	0	267.40	0	4.5870	0	33.7970	0	26.770	0	264.978	0	-1e10	8	-1e10	8	-1E+10	1	-1E+10	1	-1E+10	1	-1E+10	1	-1E+10	1	-1E+10	1
4902554	73	C	02/13/2023	02:04	-132.866	48.263	0	268.40	0	4.5780	0	33.7990	0	26.772	0	265.968	0	-1e10	8	-1e10	8	-1E+10	1	-1E+10	1	-1E+10	1	-1E+10	1	-1E+10	1	-1E+10	1
4902554	73	C	02/13/2023	02:04	-132.866	48.263	0	269.30	0	4.5780	0	33.8000	0	26.773	0	266.860	0	-1e10	8	-1e10	8	-1E+10	1	-1E+10	1	-1E+10	1	-1E+10	1	-1E+10	1	-1E+10	1
4902554	73	C	02/13/2023	02:04	-132.866	48.263	0	270.30	0	4.5740	0	33.8040	0	26.777	0	267.850	0	-1e10	8	-1e10	8	-1E+10	1	-1E+10	1	-1E+10	1	-1E+10	1	-1E+10	1	-1E+10	1
4902554	73	C	02/13/2023	02:04	-132.866	48.263	0	271.30	0	4.5740	0	33.8080	0	26.780	0	268.840	0	-1e10	8	-1e10	8	-1E+10	1	-1E+10	1	-1E+10	1	-1E+10	1	-1E+10	1	-1E+10	1
4902554	73	C	02/13/2023	02:04	-132.866	48.263	0	272.30	0	4.5730	0	33.8090	0	26.781	0	269.831	0	-1e10	8	-1e10	8	-1E+10	1	-1E+10	1	-1E+10	1	-1E+10	1	-1E+10	1	-1E+10	1
4902554	73	C	02/13/2023	02:04	-132.866	48.263	0	273.30	0	4.5730	0	33.8100	0	26.782	0	270.821	0	-1e10	8	-1e10	8	-1E+10	1	-1E+10	1	-1E+10	1	-1E+10	1	-1E+10	1	-1E+10	1
4902554	73	C	02/13/2023	02:04	-132.866	48.263	0	274.20	0	4.5720	0	33.8100	0	26.782	0	271.712	0	-1e10	8	-1e10	8	-1E+10	1	-1E+10	1	-1E+10	1	-1E+10	1	-1E+10	1	-1E+10	1
4902554	73	C	02/13/2023	02:04	-132.866	48.263	0	275.20	0	4.5710	0	33.8120	0	26.783	0	272.702	0	-1e10	8	-1e10	8	-1E+10	1	-1E+10	1	-1E+10	1	-1E+10	1	-1E+10	1	-1E+10	1
4902554	73	C	02/13/2023	02:04	-132.866	48.263	0	276.20	0	4.5710	0	33.8120	0	26.783	0	273.693	0	-1e10	8	-1e10	8	-1E+10	1	-1E+10	1	-1E+10	1	-1E+10	1	-1E+10	1	-1E+10	1
4902554	73	C	02/13/2023	02:04	-132.866	48.263	0	277.20	0	4.5710	0	33.8120	0	26.783	0	274.683	0	-1e10	8	-1e10	8	-1E+10	1	-1E+10	1	-1E+10	1	-1E+10	1	-1E+10	1	-1E+10	1
4902554	73	C	02/13/2023	02:04	-132.866	48.263	0	278.20	0	4.5710	0	33.8140	0	26.785	0	275.673	0	-1e10	8	-1e10	8	-1E+10	1	-1E+10	1	-1E+10	1	-1E+10	1	-1E+10	1	-1E+10	1
4902554	73	C	02/13/2023	02:04	-132.866	48.263	0	279.20	0	4.5710	0	33.8140	0	26.785	0	276.663	0	-1e10	8	-1e10	8	-1E+10	1	-1E+10	1	-1E+10	1	-1E+10	1	-1E+10	1	-1E+10	1
4902554	73	C	02/13/2023	02:04	-132.866	48.263	0	280.30	0	4.5710	0	33.8160	0	26.787	0	277.753	0	-1e10	8	-1e10	8	-1E+10	1	-1E+10	1	-1E+10	1	-1E+10	1	-1E+10	1	-1E+10	1
4902554	73	C	02/13/2023	02:04	-132.866	48.263	0	281.30	0	4.5710	0	33.8150	0	26.786	0	278.743	0	-1e10	8	-1e10	8	-1E+10	1	-1E+10	1	-1E+10	1	-1E+10	1	-1E+10	1	-1E+10	1
4902554	73	C	02/13/2023	02:04	-132.866	48.263	0	282.40	0	4.5720	0	33.8170	0	26.787	0	279.832	0	-1e10	8	-1e10	8	-1E+10	1	-1E+10	1	-1E+10	1	-1E+10	1	-1E+10	1	-1E+10	1
4902554	73	C	02/13/2023	02:04	-132.866	48.263	0	283.40	0	4.5720	0	33.8190	0	26.789	0	280.822	0	-1e10	8	-1e10	8	-1E+10	1	-1E+10	1	-1E+10	1	-1E+10	1	-1E+10	1	-1E+10	1
4902554	73	C	02/13/2023	02:04	-132.866	48.263	0	284.50	0	4.5730	0	33.8200	0	26.790	0	281.912	0	-1e10	8	-1e10	8	-1E+10	1	-1E+10	1	-1E+10	1	-1E+10	1	-1E+10	1	-1E+10	1
4902554	73	C	02/13/2023	02:04	-132.866	48.263	0	285.50	0	4.5730	0	33.8220	0	26.791	0	282.902	0	-1e10	8	-1e10	8	-1E+10	1	-1E+10	1	-1E+10	1	-1E+10	1	-1E+10	1	-1E+10	1
4902554	73	C	02/13/2023	02:04	-132.866	48.263	0	286.60	0	4.5730	0	33.8230	0	26.792	0	283.991	0	-1e10	8	-1e10	8	-1E+10	1	-1E+10	1	-1E+10	1	-1E+10	1	-1E+10	1	-1E+10	1
4902554	73	C	02/13/2023	02:04	-132.866	48.263	0	287.60	0	4.5730	0	33.8250	0	26.794	0	284.981	0	-1e10	8	-1e10	8	-1E+10	1	-1E+10	1	-1E+10	1	-1E+10	1	-1E+10	1	-1E+10	1
4902554	73	C	02/13/2023	02:04	-132.866	48.263	0	288.60	0	4.5650	0	33.8270	0	26.796	0	285.972	0	-1e10	8	-1e10	8	-1E+10	1	-1E+10	1	-1E+10	1	-1E+10	1	-1E+10	1	-1E+10	1
4902554	73	C	02/13/2023	02:04	-132.866	48.263	0	289.70	0	4.5660	0	33.8280	0	26.797	0	287.061	0	-1e10	8	-1e10	8	-1E+10	1	-1E+10	1	-1E+10	1	-1E+10	1	-1E+10	1	-1E+10	1
4902554	73	C	02/13/2023	02:04	-132.866	48.263	0	290.70	0	4.5650	0	33.8280	0	26.797	0	288.051	0	-1e10	8	-1e10	8	-1E+10	1	-1E+10	1	-1E+10	1	-1E+10	1	-1E+10	1	-1E+10	1
4902554	73	C	02/13/2023	02:04	-132.866	48.263	0	291.80	0	4.5560	0	33.8280	0	26.798	0	289.140	0	-1e10	8	-1e10	8	-1E+10	1	-1E+10	1	-1E+10	1	-1E+10	1	-1E+10	1	-1E+10	1
4902554	73	C	02/13/2023	02:04	-132.866	48.263	0	292.80	0	4.5490	0	33.8290	0	26.799	0	290.130	0	-1e10	8	-1e10	8	-1E+10	1	-1E+10	1	-1E+10	1	-1E+10	1	-1E+10	1	-1E+10	1
4902554	73	C	02/13/2023	02:04	-132.866	48.263	0	293.90	0	4.5350	0	33.8290	0	26.801	0	291.220	0	-1e10	8	-1e10	8	-1E+10	1	-1E+10	1	-1E+10	1	-1E+10	1	-1E+10	1	-1E+10	1
4902554	73	C	02/13/2023	02:04	-132.866	48.263	0	294.90	0	4.5320	0	33.8300	0	26.802	0	292.210	0	-1e10	8	-1e10	8	-1E+10	1	-1E+10	1	-1E+10	1	-1E+10	1	-1E+10	1	-1E+10	1
4902554	73	C	02/13/2023	02:04	-132.866	48.263	0	295.90	0	4.5270	0	33.8310	0	26.803	0	293.200	0	-1e10	8	-1e10	8	-1E+10	1	-1E+10	1	-1E+10	1	-1E+10	1	-1E+10	1	-1E+10	1
4902554	73	C	02/13/2023	02:04	-132.866	48.263	0	296.90	0	4.5240	0	33.8310	0	26.804	0	294.190	0	-1e10	8	-1e10	8	-1E+10	1	-1E+10	1	-1E+10	1	-1E+10	1	-1E+10	1	-1E+10	1
4902554	73	C	02/13/2023	02:04	-132.866	48.263	0	297.90	0	4.5200	0	33.8330	0	26.806	0	295.180	0	-1e10	8	-1e10	8	-1E+10	1	-1E+10	1	-1E+10	1	-1E+10	1	-1E+10	1	-1E+10	1
4902554	73	C	02/13/2023	02:04	-132.866	48.263	0	299.00	0	4.5320	0	33.8380	0	26.808	0	296.269	0	-1e10	8	-1e10	8	-1E+10	1	-1E+10	1	-1E+10	1	-1E+10	1	-1E+10	1	-1E+10	1
4902554	73	C	02/13/2023	02:04	-132.866	48.263	0	300.20	0	4.5430	0	33.8470	0	26.814	0	297.458	0	-1e10	8	-1e10	8	-1E+10	1	-1E+10	1	-1E+10	1	-1E+10	1	-1E+10	1	-1E+10	1
4902554	73	C	02/13/2023	02:04	-132.866	48.263	0	301.00	0	4.5550	0	33.8480	0	26.814	0	298.250	0	-1e10	8	-1e10	8	-1E+10	1	-1E+10	1	-1E+10	1	-1E+10	1	-1E+10	1	-1E+10	1
4902554	73	C	02/13/2023	02:04	-132.866	48.263	0	301.80	0	4.5690	0	33.8540	0	26.817	0	299.042	0	-1e10	8	-1e10	8	-1E+10	1	-1E+10	1	-1E+10	1	-1E+10	1	-1E+10	1	-1E+10	1
4902554	73	C	02/13/2023	02:04	-132.866	48.263	0	302.90	0	4.5810	0	33.8600	0	26.821	0	300.131	0	-1e10	8	-1e10	8	-1E+10	1	-1E+10	1	-1E+10	1	-1E+10	1	-1E+10	1	-1E+10	1
4902554	73	C	02/13/2023	02:04	-132.866	48.263	0	304.20	0	4.5750	0	33.8600	0	26.821	0	301.418	0	-1e10	8	-1e10	8	-1E+10	1	-1E+10	1	-1E+10	1	-1E+10	1	-1E+10	1	-1E+10	1
4902554	73	C	02/13/2023	02:04	-132.866	48.263	0	304.90	0	4.5700	0	33.8630	0	26.824	0	302.111	0	-1e10	8	-1e10	8	-1E+10	1	-1E+10	1	-1E+10	1	-1E+10	1	-1E+10	1	-1E+10	1
4902554	73	C	02/13/2023	02:04	-132.866	48.263	0	305.80	0	4.5640	0	33.8650	0	26.826	0	303.002	0	-1e10	8	-1e10	8	-1E+10	1	-1E+10	1	-1E+10	1	-1E+10	1	-1E+10	1	-1E+10	1
4902554	73	C	02/13/2023	02:04	-132.866	48.263	0	307.00	0	4.5430	0	33.8640	0	26.828	0	304.190	0	-1e10	8	-1e10	8	-1E+10	1	-1E+10	1	-1E+10	1	-1E+10	1	-1E+10	1	-1E+10	1
4902554	73	C	02/13/2023	02:04	-132.866	48.263	0	308.20	0	4.5420	0	33.8650	0	26.829	0	305.379	0	-1e10	8	-1e10	8	-1E+10	1	-1E+10	1	-1E+10	1	-1E+10	1	-1E+10	1	-1E+10	1
4902554	73	C	02/13/2023	02:04	-132.866	48.263	0	309.00	0	4.5430	0	33.8670	0	26.830	0	306.171	0	-1e10	8	-1e10	8	-1E+10	1	-1E+10	1	-1E+10	1	-1E+10	1	-1E+10	1	-1E+10	1
4902554	73	C	02/13/2023	02:04	-132.866	48.263	0	309.90	0	4.5420	0	33.8680	0	26.831	0	307.062	0	-1e10	8	-1e10	8	-1E+10	1	-1E+10	1	-1E+10	1	-1E+10	1	-1E+10	1	-1E+10	1
4902554	73	C	02/13/2023	02:04	-132.866	48.263	0	310.70	0	4.5500	0	33.8700	0	26.832	0	307.854	0	-1e10	8	-1e10	8	-1E+10	1	-1E+10	1	-1E+10	1	-1E+10	1	-1E+10	1	-1E+10	1
4902554	73	C	02/13/2023	02:04	-132.866	48.263	0	311.90	0	4.5600	0	33.8730	0	26.833	0	309.042	0	-1e10	8	-1e10	8	-1E+10	1	-1E+10	1	-1E+10	1	-1E+10	1	-1E+10	1	-1E+10	1
4902554	73	C	02/13/2023	02:04	-132.866	48.263	0	313.20	0	4.5590	0	33.8740	0	26.834	0	310.329	0	-1e10	8	-1e10	8	-1E+10	1	-1E+10	1	-1E+10	1	-1E+10	1	-1E+10	1	-1E+10	1
4902554	73	C	02/13/2023	02:04	-132.866	48.263	0	314.10	0	4.5580	0	33.8740	0	26.834	0	311.220	0	-1e10	8	-1e10	8	-1E+10	1	-1E+10	1	-1E+10	1	-1E+10	1	-1E+10	1	-1E+10	1
4902554	73	C	02/13/2023	02:04	-132.866	48.263	0	314.90	0	4.5580	0	33.8740	0	26.834	0	312.012	0	-1e10	8	-1e10	8	-1E+10	1	-1E+10	1	-1E+10	1	-1E+10	1	-1E+10	1	-1E+10	1
4902554	73	C	02/13/2023	02:04	-132.866	48.263	0	315.70	0	4.5570	0	33.8750	0	26.835	0	312.804	0	-1e10	8	-1e10	8	-1E+10	1	-1E+10	1	-1E+10	1	-1E+10	1	-1E+10	1	-1E+10	1
4902554	73	C	02/13/2023	02:04	-132.866	48.263	0	317.00	0	4.5570	0	33.8750	0	26.835	0	314.091	0	-1e10	8	-1e10	8	-1E+10	1	-1E+10	1	-1E+10	1	-1E+10	1	-1E+10	1	-1E+10	1
4902554	73	C	02/13/2023	02:04	-132.866	48.263	0	318.30	0	4.5560	0	33.8750	0	26.835	0	315.378	0	-1e10	8	-1e10	8	-1E+10	1	-1E+10	1	-1E+10	1	-1E+10	1	-1E+10	1	-1E+10	1
4902554	73	C	02/13/2023	02:04	-132.866	48.263	0	319.10	0	4.5560	0	33.8780	0	26.838	0	316.171	0	-1e10	8	-1e10	8	-1E+10	1	-1E+10	1	-1E+10	1	-1E+10	1	-1E+10	1	-1E+10	1
4902554	73	C	02/13/2023	02:04	-132.866	48.263	0	319.90	0	4.5560	0	33.8780	0	26.838	0	316.963	0	-1e10	8	-1e10	8	-1E+10	1	-1E+10	1	-1E+10	1	-1E+10	1	-1E+10	1	-1E+10	1
4902554	73	C	02/13/2023	02:04	-132.866	48.263	0	320.80	0	4.5540	0	33.8790	0	26.839	0	317.854	0	-1e10	8	-1e10	8	-1E+10	1	-1E+10	1	-1E+10	1	-1E+10	1	-1E+10	1	-1E+10	1
4902554	73	C	02/13/2023	02:04	-132.866	48.263	0	322.00	0	4.5510	0	33.8800	0	26.840	0	319.042	0	-1e10	8	-1e10	8	-1E+10	1	-1E+10	1	-1E+10	1	-1E+10	1	-1E+10	1	-1E+10	1
4902554	73	C	02/13/2023	02:04	-132.866	48.263	0	323.30	0	4.5490	0	33.8800	0	26.840	0	320.329	0	-1e10	8	-1e10	8	-1E+10	1	-1E+10	1	-1E+10	1	-1E+10	1	-1E+10	1	-1E+10	1
4902554	73	C	02/13/2023	02:04	-132.866	48.263	0	324.10	0	4.5460	0	33.8800	0	26.840	0	321.121	0	-1e10	8	-1e10	8	-1E+10	1	-1E+10	1	-1E+10	1	-1E+10	1	-1E+10	1	-1E+10	1
4902554	73	C	02/13/2023	02:04	-132.866	48.263	0	325.00	0	4.5420	0	33.8810	0	26.842	0	322.012	0	-1e10	8	-1e10	8	-1E+10	1	-1E+10	1	-1E+10	1	-1E+10	1	-1E+10	1	-1E+10	1
4902554	73	C	02/13/2023	02:04	-132.866	48.263	0	325.80	0	4.5380	0	33.8820	0	26.843	0	322.804	0	-1e10	8	-1e10	8	-1E+10	1	-1E+10	1	-1E+10	1	-1E+10	1	-1E+10	1	-1E+10	1
4902554	73	C	02/13/2023	02:04	-132.866	48.263	0	327.00	0	4.5370	0	33.8820	0	26.843	0	323.992	0	-1e10	8	-1e10	8	-1E+10	1	-1E+10	1	-1E+10	1	-1E+10	1	-1E+10	1	-1E+10	1
4902554	73	C	02/13/2023	02:04	-132.866	48.263	0	328.30	0	4.5310	0	33.8830	0	26.845	0	325.279	0	-1e10	8	-1e10	8	-1E+10	1	-1E+10	1	-1E+10	1	-1E+10	1	-1E+10	1	-1E+10	1
4902554	73	C	02/13/2023	02:04	-132.866	48.263	0	329.10	0	4.5310	0	33.8830	0	26.845	0	326.071	0	-1e10	8	-1e10	8	-1E+10	1	-1E+10	1	-1E+10	1	-1E+10	1	-1E+10	1	-1E+10	1
4902554	73	C	02/13/2023	02:04	-132.866	48.263	0	330.00	0	4.5330	0	33.8830	0	26.844	0	326.962	0	-1e10	8	-1e10	8	-1E+10	1	-1E+10	1	-1E+10	1	-1E+10	1	-1E+10	1	-1E+10	1
4902554	73	C	02/13/2023	02:04	-132.866	48.263	0	330.80	0	4.5330	0	33.8830	0	26.844	0	327.754	0	-1e10	8	-1e10	8	-1E+10	1	-1E+10	1	-1E+10	1	-1E+10	1	-1E+10	1	-1E+10	1
4902554	73	C	02/13/2023	02:04	-132.866	48.263	0	332.00	0	4.5310	0	33.8850	0	26.846	0	328.942	0	-1e10	8	-1e10	8	-1E+10	1	-1E+10	1	-1E+10	1	-1E+10	1	-1E+10	1	-1E+10	1
4902554	73	C	02/13/2023	02:04	-132.866	48.263	0	333.30	0	4.5080	0	33.8900	0	26.853	0	330.229	0	-1e10	8	-1e10	8	-1E+10	1	-1E+10	1	-1E+10	1	-1E+10	1	-1E+10	1	-1E+10	1
4902554	73	C	02/13/2023	02:04	-132.866	48.263	0	334.10	0	4.5150	0	33.8950	0	26.856	0	331.021	0	-1e10	8	-1e10	8	-1E+10	1	-1E+10	1	-1E+10	1	-1E+10	1	-1E+10	1	-1E+10	1
4902554	73	C	02/13/2023	02:04	-132.866	48.263	0	334.90	0	4.5080	0	33.8960	0	26.857	0	331.813	0	-1e10	8	-1e10	8	-1E+10	1	-1E+10	1	-1E+10	1	-1E+10	1	-1E+10	1	-1E+10	1
4902554	73	C	02/13/2023	02:04	-132.866	48.263	0	335.80	0	4.5030	0	33.8970	0	26.859	0	332.704	0	-1e10	8	-1e10	8	-1E+10	1	-1E+10	1	-1E+10	1	-1E+10	1	-1E+10	1	-1E+10	1
4902554	73	C	02/13/2023	02:04	-132.866	48.263	0	336.90	0	4.4980	0	33.8980	0	26.860	0	333.793	0	-1e10	8	-1e10	8	-1E+10	1	-1E+10	1	-1E+10	1	-1E+10	1	-1E+10	1	-1E+10	1
4902554	73	C	02/13/2023	02:04	-132.866	48.263	0	338.20	0	4.4940	0	33.9000	0	26.862	0	335.080	0	-1e10	8	-1e10	8	-1E+10	1	-1E+10	1	-1E+10	1	-1E+10	1	-1E+10	1	-1E+10	1
4902554	73	C	02/13/2023	02:04	-132.866	48.263	0	339.00	0	4.4900	0	33.9010	0	26.863	0	335.872	0	-1e10	8	-1e10	8	-1E+10	1	-1E+10	1	-1E+10	1	-1E+10	1	-1E+10	1	-1E+10	1
4902554	73	C	02/13/2023	02:04	-132.866	48.263	0	339.80	0	4.4880	0	33.9020	0	26.864	0	336.664	0	-1e10	8	-1e10	8	-1E+10	1	-1E+10	1	-1E+10	1	-1E+10	1	-1E+10	1	-1E+10	1
4902554	73	C	02/13/2023	02:04	-132.866	48.263	0	341.00	0	4.4860	0	33.9030	0	26.865	0	337.852	0	-1e10	8	-1e10	8	-1E+10	1	-1E+10	1	-1E+10	1	-1E+10	1	-1E+10	1	-1E+10	1
4902554	73	C	02/13/2023	02:04	-132.866	48.263	0	342.30	0	4.4820	0	33.9050	0	26.867	0	339.139	0	-1e10	8	-1e10	8	-1E+10	1	-1E+10	1	-1E+10	1	-1E+10	1	-1E+10	1	-1E+10	1
4902554	73	C	02/13/2023	02:04	-132.866	48.263	0	343.10	0	4.4800	0	33.9060	0	26.868	0	339.930	0	-1e10	8	-1e10	8	-1E+10	1	-1E+10	1	-1E+10	1	-1E+10	1	-1E+10	1	-1E+10	1
4902554	73	C	02/13/2023	02:04	-132.866	48.263	0	344.00	0	4.4720	0	33.9060	0	26.869	0	340.821	0	-1e10	8	-1e10	8	-1E+10	1	-1E+10	1	-1E+10	1	-1E+10	1	-1E+10	1	-1E+10	1
4902554	73	C	02/13/2023	02:04	-132.866	48.263	0	344.80	0	4.4650	0	33.9080	0	26.872	0	341.613	0	-1e10	8	-1e10	8	-1E+10	1	-1E+10	1	-1E+10	1	-1E+10	1	-1E+10	1	-1E+10	1
4902554	73	C	02/13/2023	02:04	-132.866	48.263	0	346.00	0	4.4630	0	33.9070	0	26.871	0	342.801	0	-1e10	8	-1e10	8	-1E+10	1	-1E+10	1	-1E+10	1	-1E+10	1	-1E+10	1	-1E+10	1
4902554	73	C	02/13/2023	02:04	-132.866	48.263	0	347.20	0	4.4600	0	33.9090	0	26.873	0	343.989	0	-1e10	8	-1e10	8	-1E+10	1	-1E+10	1	-1E+10	1	-1E+10	1	-1E+10	1	-1E+10	1
4902554	73	C	02/13/2023	02:04	-132.866	48.263	0	348.00	0	4.4580	0	33.9100	0	26.874	0	344.781	0	-1e10	8	-1e10	8	-1E+10	1	-1E+10	1	-1E+10	1	-1E+10	1	-1E+10	1	-1E+10	1
4902554	73	C	02/13/2023	02:04	-132.866	48.263	0	348.80	0	4.4570	0	33.9110	0	26.875	0	345.573	0	-1e10	8	-1e10	8	-1E+10	1	-1E+10	1	-1E+10	1	-1E+10	1	-1E+10	1	-1E+10	1
4902554	73	C	02/13/2023	02:04	-132.866	48.263	0	349.70	0	4.4510	0	33.9120	0	26.876	0	346.464	0	-1e10	8	-1e10	8	-1E+10	1	-1E+10	1	-1E+10	1	-1E+10	1	-1E+10	1	-1E+10	1
4902554	73	C	02/13/2023	02:04	-132.866	48.263	0	352.90	0	4.4400	0	33.9150	0	26.880	0	349.632	0	-1e10	8	-1e10	8	-1E+10	1	-1E+10	1	-1E+10	1	-1E+10	1	-1E+10	1	-1E+10	1
4902554	73	C	02/13/2023	02:04	-132.866	48.263	0	357.90	0	4.4210	0	33.9200	0	26.886	0	354.581	0	-1e10	8	-1e10	8	-1E+10	1	-1E+10	1	-1E+10	1	-1E+10	1	-1E+10	1	-1E+10	1
4902554	73	C	02/13/2023	02:04	-132.866	48.263	0	362.60	0	4.4080	0	33.9260	0	26.892	0	359.233	0	-1e10	8	-1e10	8	-1E+10	1	-1E+10	1	-1E+10	1	-1E+10	1	-1E+10	1	-1E+10	1
4902554	73	C	02/13/2023	02:04	-132.866	48.263	0	367.60	0	4.3960	0	33.9290	0	26.896	0	364.183	0	-1e10	8	-1e10	8	-1E+10	1	-1E+10	1	-1E+10	1	-1E+10	1	-1E+10	1	-1E+10	1
4902554	73	C	02/13/2023	02:04	-132.866	48.263	0	372.60	0	4.3890	0	33.9310	0	26.898	0	369.132	0	-1e10	8	-1e10	8	-1E+10	1	-1E+10	1	-1E+10	1	-1E+10	1	-1E+10	1	-1E+10	1
4902554	73	C	02/13/2023	02:04	-132.866	48.263	0	377.70	0	4.3720	0	33.9370	0	26.905	0	374.180	0	-1e10	8	-1e10	8	-1E+10	1	-1E+10	1	-1E+10	1	-1E+10	1	-1E+10	1	-1E+10	1
4902554	73	C	02/13/2023	02:04	-132.866	48.263	0	382.80	0	4.3300	0	33.9470	0	26.917	0	379.227	0	-1e10	8	-1e10	8	-1E+10	1	-1E+10	1	-1E+10	1	-1E+10	1	-1E+10	1	-1E+10	1
4902554	73	C	02/13/2023	02:04	-132.866	48.263	0	387.90	0	4.3210	0	33.9530	0	26.923	0	384.275	0	-1e10	8	-1e10	8	-1E+10	1	-1E+10	1	-1E+10	1	-1E+10	1	-1E+10	1	-1E+10	1
4902554	73	C	02/13/2023	02:04	-132.866	48.263	0	393.00	0	4.3040	0	33.9580	0	26.929	0	389.323	0	-1e10	8	-1e10	8	-1E+10	1	-1E+10	1	-1E+10	1	-1E+10	1	-1E+10	1	-1E+10	1
4902554	73	C	02/13/2023	02:04	-132.866	48.263	0	398.20	0	4.2990	0	33.9610	0	26.932	0	394.469	0	-1e10	8	-1e10	8	-1E+10	1	-1E+10	1	-1E+10	1	-1E+10	1	-1E+10	1	-1E+10	1
4902554	73	C	02/13/2023	02:04	-132.866	48.263	0	402.90	0	4.2920	0	33.9630	0	26.934	0	399.121	0	-1e10	8	-1e10	8	-1E+10	1	-1E+10	1	-1E+10	1	-1E+10	1	-1E+10	1	-1E+10	1
4902554	73	C	02/13/2023	02:04	-132.866	48.263	0	407.60	0	4.2870	0	33.9690	0	26.939	0	403.772	0	-1e10	8	-1e10	8	-1E+10	1	-1E+10	1	-1E+10	1	-1E+10	1	-1E+10	1	-1E+10	1
4902554	73	C	02/13/2023	02:04	-132.866	48.263	0	412.80	0	4.2730	0	33.9800	0	26.950	0	408.918	0	-1e10	8	-1e10	8	-1E+10	1	-1E+10	1	-1E+10	1	-1E+10	1	-1E+10	1	-1E+10	1
4902554	73	C	02/13/2023	02:04	-132.866	48.263	0	417.80	0	4.2480	0	33.9940	0	26.963	0	413.866	0	-1e10	8	-1e10	8	-1E+10	1	-1E+10	1	-1E+10	1	-1E+10	1	-1E+10	1	-1E+10	1
4902554	73	C	02/13/2023	02:04	-132.866	48.263	0	422.80	0	4.2410	0	34.0010	0	26.970	0	418.814	0	-1e10	8	-1e10	8	-1E+10	1	-1E+10	1	-1E+10	1	-1E+10	1	-1E+10	1	-1E+10	1
4902554	73	C	02/13/2023	02:04	-132.866	48.263	0	428.10	0	4.2310	0	34.0030	0	26.972	0	424.058	0	-1e10	8	-1e10	8	-1E+10	1	-1E+10	1	-1E+10	1	-1E+10	1	-1E+10	1	-1E+10	1
4902554	73	C	02/13/2023	02:04	-132.866	48.263	0	432.90	0	4.2270	0	34.0030	0	26.973	0	428.808	0	-1e10	8	-1e10	8	-1E+10	1	-1E+10	1	-1E+10	1	-1E+10	1	-1E+10	1	-1E+10	1
4902554	73	C	02/13/2023	02:04	-132.866	48.263	0	437.90	0	4.2190	0	34.0080	0	26.978	0	433.756	0	-1e10	8	-1e10	8	-1E+10	1	-1E+10	1	-1E+10	1	-1E+10	1	-1E+10	1	-1E+10	1
4902554	73	C	02/13/2023	02:04	-132.866	48.263	0	443.10	0	4.2110	0	34.0130	0	26.983	0	438.901	0	-1e10	8	-1e10	8	-1E+10	1	-1E+10	1	-1E+10	1	-1E+10	1	-1E+10	1	-1E+10	1
4902554	73	C	02/13/2023	02:04	-132.866	48.263	0	447.80	0	4.2050	0	34.0180	0	26.987	0	443.551	0	-1e10	8	-1e10	8	-1E+10	1	-1E+10	1	-1E+10	1	-1E+10	1	-1E+10	1	-1E+10	1
4902554	73	C	02/13/2023	02:04	-132.866	48.263	0	453.00	0	4.1970	0	34.0220	0	26.991	0	448.696	0	-1e10	8	-1e10	8	-1E+10	1	-1E+10	1	-1E+10	1	-1E+10	1	-1E+10	1	-1E+10	1
4902554	73	C	02/13/2023	02:04	-132.866	48.263	0	458.10	0	4.1820	0	34.0320	0	27.001	0	453.742	0	-1e10	8	-1e10	8	-1E+10	1	-1E+10	1	-1E+10	1	-1E+10	1	-1E+10	1	-1E+10	1
4902554	73	C	02/13/2023	02:04	-132.866	48.263	0	463.00	0	4.1750	0	34.0360	0	27.005	0	458.590	0	-1e10	8	-1e10	8	-1E+10	1	-1E+10	1	-1E+10	1	-1E+10	1	-1E+10	1	-1E+10	1
4902554	73	C	02/13/2023	02:04	-132.866	48.263	0	468.00	0	4.1690	0	34.0400	0	27.009	0	463.537	0	-1e10	8	-1e10	8	-1E+10	1	-1E+10	1	-1E+10	1	-1E+10	1	-1E+10	1	-1E+10	1
4902554	73	C	02/13/2023	02:04	-132.866	48.263	0	473.10	0	4.1600	0	34.0450	0	27.014	0	468.583	0	-1e10	8	-1e10	8	-1E+10	1	-1E+10	1	-1E+10	1	-1E+10	1	-1E+10	1	-1E+10	1
4902554	73	C	02/13/2023	02:04	-132.866	48.263	0	478.20	0	4.1510	0	34.0500	0	27.019	0	473.628	0	-1e10	8	-1e10	8	-1E+10	1	-1E+10	1	-1E+10	1	-1E+10	1	-1E+10	1	-1E+10	1
4902554	73	C	02/13/2023	02:04	-132.866	48.263	0	483.00	0	4.1420	0	34.0550	0	27.023	0	478.377	0	-1e10	8	-1e10	8	-1E+10	1	-1E+10	1	-1E+10	1	-1E+10	1	-1E+10	1	-1E+10	1
4902554	73	C	02/13/2023	02:04	-132.866	48.263	0	487.80	0	4.1390	0	34.0570	0	27.025	0	483.125	0	-1e10	8	-1e10	8	-1E+10	1	-1E+10	1	-1E+10	1	-1E+10	1	-1E+10	1	-1E+10	1
4902554	73	C	02/13/2023	02:04	-132.866	48.263	0	493.10	0	4.1290	0	34.0620	0	27.030	0	488.368	0	-1e10	8	-1e10	8	-1E+10	1	-1E+10	1	-1E+10	1	-1E+10	1	-1E+10	1	-1E+10	1
4902554	73	C	02/13/2023	02:04	-132.866	48.263	0	498.00	0	4.1230	0	34.0650	0	27.034	0	493.216	0	-1e10	8	-1e10	8	-1E+10	1	-1E+10	1	-1E+10	1	-1E+10	1	-1E+10	1	-1E+10	1
4902554	73	C	02/13/2023	02:04	-132.866	48.263	0	502.90	0	4.1110	0	34.0710	0	27.040	0	498.063	0	-1e10	8	-1e10	8	-1E+10	1	-1E+10	1	-1E+10	1	-1E+10	1	-1E+10	1	-1E+10	1
4902554	73	C	02/13/2023	02:04	-132.866	48.263	0	507.80	0	4.1020	0	34.0750	0	27.044	0	502.909	0	-1e10	8	-1e10	8	-1E+10	1	-1E+10	1	-1E+10	1	-1E+10	1	-1E+10	1	-1E+10	1
4902554	73	C	02/13/2023	02:04	-132.866	48.263	0	512.70	0	4.0940	0	34.0790	0	27.048	0	507.756	0	-1e10	8	-1e10	8	-1E+10	1	-1E+10	1	-1E+10	1	-1E+10	1	-1E+10	1	-1E+10	1
4902554	73	C	02/13/2023	02:04	-132.866	48.263	0	518.00	0	4.0800	0	34.0860	0	27.055	0	512.999	0	-1e10	8	-1e10	8	-1E+10	1	-1E+10	1	-1E+10	1	-1E+10	1	-1E+10	1	-1E+10	1
4902554	73	C	02/13/2023	02:04	-132.866	48.263	0	523.00	0	4.0620	0	34.0940	0	27.063	0	517.944	0	-1e10	8	-1e10	8	-1E+10	1	-1E+10	1	-1E+10	1	-1E+10	1	-1E+10	1	-1E+10	1
4902554	73	C	02/13/2023	02:04	-132.866	48.263	0	528.00	0	4.0580	0	34.0960	0	27.065	0	522.890	0	-1e10	8	-1e10	8	-1E+10	1	-1E+10	1	-1E+10	1	-1E+10	1	-1E+10	1	-1E+10	1
4902554	73	C	02/13/2023	02:04	-132.866	48.263	0	533.00	0	4.0520	0	34.0990	0	27.068	0	527.835	0	-1e10	8	-1e10	8	-1E+10	1	-1E+10	1	-1E+10	1	-1E+10	1	-1E+10	1	-1E+10	1
4902554	73	C	02/13/2023	02:04	-132.866	48.263	0	538.10	0	4.0350	0	34.1060	0	27.075	0	532.879	0	-1e10	8	-1e10	8	-1E+10	1	-1E+10	1	-1E+10	1	-1E+10	1	-1E+10	1	-1E+10	1
4902554	73	C	02/13/2023	02:04	-132.866	48.263	0	543.20	0	4.0230	0	34.1100	0	27.080	0	537.923	0	-1e10	8	-1e10	8	-1E+10	1	-1E+10	1	-1E+10	1	-1E+10	1	-1E+10	1	-1E+10	1
4902554	73	C	02/13/2023	02:04	-132.866	48.263	0	547.80	0	4.0150	0	34.1140	0	27.084	0	542.472	0	-1e10	8	-1e10	8	-1E+10	1	-1E+10	1	-1E+10	1	-1E+10	1	-1E+10	1	-1E+10	1
4902554	73	C	02/13/2023	02:04	-132.866	48.263	0	552.70	0	4.0060	0	34.1170	0	27.087	0	547.318	0	-1e10	8	-1e10	8	-1E+10	1	-1E+10	1	-1E+10	1	-1E+10	1	-1E+10	1	-1E+10	1
4902554	73	C	02/13/2023	02:04	-132.866	48.263	0	558.10	0	3.9980	0	34.1200	0	27.091	0	552.658	0	-1e10	8	-1e10	8	-1E+10	1	-1E+10	1	-1E+10	1	-1E+10	1	-1E+10	1	-1E+10	1
4902554	73	C	02/13/2023	02:04	-132.866	48.263	0	563.10	0	3.9860	0	34.1240	0	27.095	0	557.603	0	-1e10	8	-1e10	8	-1E+10	1	-1E+10	1	-1E+10	1	-1E+10	1	-1E+10	1	-1E+10	1
4902554	73	C	02/13/2023	02:04	-132.866	48.263	0	568.00	0	3.9670	0	34.1300	0	27.102	0	562.448	0	-1e10	8	-1e10	8	-1E+10	1	-1E+10	1	-1E+10	1	-1E+10	1	-1E+10	1	-1E+10	1
4902554	73	C	02/13/2023	02:04	-132.866	48.263	0	572.90	0	3.9490	0	34.1360	0	27.108	0	567.294	0	-1e10	8	-1e10	8	-1E+10	1	-1E+10	1	-1E+10	1	-1E+10	1	-1E+10	1	-1E+10	1
4902554	73	C	02/13/2023	02:04	-132.866	48.263	0	577.70	0	3.9400	0	34.1390	0	27.112	0	572.040	0	-1e10	8	-1e10	8	-1E+10	1	-1E+10	1	-1E+10	1	-1E+10	1	-1E+10	1	-1E+10	1
4902554	73	C	02/13/2023	02:04	-132.866	48.263	0	583.00	0	3.9210	0	34.1450	0	27.118	0	577.281	0	-1e10	8	-1e10	8	-1E+10	1	-1E+10	1	-1E+10	1	-1E+10	1	-1E+10	1	-1E+10	1
4902554	73	C	02/13/2023	02:04	-132.866	48.263	0	587.80	0	3.9020	0	34.1500	0	27.124	0	582.027	0	-1e10	8	-1e10	8	-1E+10	1	-1E+10	1	-1E+10	1	-1E+10	1	-1E+10	1	-1E+10	1
4902554	73	C	02/13/2023	02:04	-132.866	48.263	0	592.70	0	3.8930	0	34.1530	0	27.128	0	586.872	0	-1e10	8	-1e10	8	-1E+10	1	-1E+10	1	-1E+10	1	-1E+10	1	-1E+10	1	-1E+10	1
4902554	73	C	02/13/2023	02:04	-132.866	48.263	0	598.00	0	3.8870	0	34.1540	0	27.129	0	592.112	0	-1e10	8	-1e10	8	-1E+10	1	-1E+10	1	-1E+10	1	-1E+10	1	-1E+10	1	-1E+10	1
4902554	73	C	02/13/2023	02:04	-132.866	48.263	0	602.90	0	3.8820	0	34.1560	0	27.131	0	596.957	0	-1e10	8	-1e10	8	-1E+10	1	-1E+10	1	-1E+10	1	-1E+10	1	-1E+10	1	-1E+10	1
4902554	73	C	02/13/2023	02:04	-132.866	48.263	0	607.70	0	3.8640	0	34.1610	0	27.137	0	601.703	0	-1e10	8	-1e10	8	-1E+10	1	-1E+10	1	-1E+10	1	-1E+10	1	-1E+10	1	-1E+10	1
4902554	73	C	02/13/2023	02:04	-132.866	48.263	0	612.80	0	3.8360	0	34.1690	0	27.146	0	606.745	0	-1e10	8	-1e10	8	-1E+10	1	-1E+10	1	-1E+10	1	-1E+10	1	-1E+10	1	-1E+10	1
4902554	73	C	02/13/2023	02:04	-132.866	48.263	0	617.80	0	3.8210	0	34.1740	0	27.152	0	611.688	0	-1e10	8	-1e10	8	-1E+10	1	-1E+10	1	-1E+10	1	-1E+10	1	-1E+10	1	-1E+10	1
4902554	73	C	02/13/2023	02:04	-132.866	48.263	0	623.00	0	3.8010	0	34.1810	0	27.159	0	616.829	0	-1e10	8	-1e10	8	-1E+10	1	-1E+10	1	-1E+10	1	-1E+10	1	-1E+10	1	-1E+10	1
4902554	73	C	02/13/2023	02:04	-132.866	48.263	0	627.70	0	3.7920	0	34.1850	0	27.163	0	621.476	0	-1e10	8	-1e10	8	-1E+10	1	-1E+10	1	-1E+10	1	-1E+10	1	-1E+10	1	-1E+10	1
4902554	73	C	02/13/2023	02:04	-132.866	48.263	0	632.90	0	3.7850	0	34.1880	0	27.167	0	626.616	0	-1e10	8	-1e10	8	-1E+10	1	-1E+10	1	-1E+10	1	-1E+10	1	-1E+10	1	-1E+10	1
4902554	73	C	02/13/2023	02:04	-132.866	48.263	0	638.00	0	3.7780	0	34.1910	0	27.170	0	631.658	0	-1e10	8	-1e10	8	-1E+10	1	-1E+10	1	-1E+10	1	-1E+10	1	-1E+10	1	-1E+10	1
4902554	73	C	02/13/2023	02:04	-132.866	48.263	0	642.70	0	3.7720	0	34.1920	0	27.171	0	636.304	0	-1e10	8	-1e10	8	-1E+10	1	-1E+10	1	-1E+10	1	-1E+10	1	-1E+10	1	-1E+10	1
4902554	73	C	02/13/2023	02:04	-132.866	48.263	0	647.80	0	3.7620	0	34.1960	0	27.175	0	641.345	0	-1e10	8	-1e10	8	-1E+10	1	-1E+10	1	-1E+10	1	-1E+10	1	-1E+10	1	-1E+10	1
4902554	73	C	02/13/2023	02:04	-132.866	48.263	0	653.00	0	3.7540	0	34.2000	0	27.179	0	646.486	0	-1e10	8	-1e10	8	-1E+10	1	-1E+10	1	-1E+10	1	-1E+10	1	-1E+10	1	-1E+10	1
4902554	73	C	02/13/2023	02:04	-132.866	48.263	0	657.80	0	3.7390	0	34.2040	0	27.184	0	651.230	0	-1e10	8	-1e10	8	-1E+10	1	-1E+10	1	-1E+10	1	-1E+10	1	-1E+10	1	-1E+10	1
4902554	73	C	02/13/2023	02:04	-132.866	48.263	0	662.60	0	3.7170	0	34.2090	0	27.190	0	655.975	0	-1e10	8	-1e10	8	-1E+10	1	-1E+10	1	-1E+10	1	-1E+10	1	-1E+10	1	-1E+10	1
4902554	73	C	02/13/2023	02:04	-132.866	48.263	0	667.60	0	3.6960	0	34.2160	0	27.198	0	660.917	0	-1e10	8	-1e10	8	-1E+10	1	-1E+10	1	-1E+10	1	-1E+10	1	-1E+10	1	-1E+10	1
4902554	73	C	02/13/2023	02:04	-132.866	48.263	0	672.60	0	3.6770	0	34.2210	0	27.204	0	665.859	0	-1e10	8	-1e10	8	-1E+10	1	-1E+10	1	-1E+10	1	-1E+10	1	-1E+10	1	-1E+10	1
4902554	73	C	02/13/2023	02:04	-132.866	48.263	0	677.60	0	3.6660	0	34.2230	0	27.206	0	670.801	0	-1e10	8	-1e10	8	-1E+10	1	-1E+10	1	-1E+10	1	-1E+10	1	-1E+10	1	-1E+10	1
4902554	73	C	02/13/2023	02:04	-132.866	48.263	0	682.90	0	3.6500	0	34.2280	0	27.212	0	676.039	0	-1e10	8	-1e10	8	-1E+10	1	-1E+10	1	-1E+10	1	-1E+10	1	-1E+10	1	-1E+10	1
4902554	73	C	02/13/2023	02:04	-132.866	48.263	0	688.00	0	3.6380	0	34.2310	0	27.216	0	681.079	0	-1e10	8	-1e10	8	-1E+10	1	-1E+10	1	-1E+10	1	-1E+10	1	-1E+10	1	-1E+10	1
4902554	73	C	02/13/2023	02:04	-132.866	48.263	0	693.10	0	3.6120	0	34.2360	0	27.222	0	686.120	0	-1e10	8	-1e10	8	-1E+10	1	-1E+10	1	-1E+10	1	-1E+10	1	-1E+10	1	-1E+10	1
4902554	73	C	02/13/2023	02:04	-132.866	48.263	0	698.00	0	3.6030	0	34.2380	0	27.225	0	690.962	0	-1e10	8	-1e10	8	-1E+10	1	-1E+10	1	-1E+10	1	-1E+10	1	-1E+10	1	-1E+10	1
4902554	73	C	02/13/2023	02:04	-132.866	48.263	0	703.00	0	3.5880	0	34.2430	0	27.230	0	695.903	0	-1e10	8	-1e10	8	-1E+10	1	-1E+10	1	-1E+10	1	-1E+10	1	-1E+10	1	-1E+10	1
4902554	73	C	02/13/2023	02:04	-132.866	48.263	0	707.80	0	3.5810	0	34.2450	0	27.233	0	700.647	0	-1e10	8	-1e10	8	-1E+10	1	-1E+10	1	-1E+10	1	-1E+10	1	-1E+10	1	-1E+10	1
4902554	73	C	02/13/2023	02:04	-132.866	48.263	0	712.70	0	3.5830	0	34.2470	0	27.234	0	705.489	0	-1e10	8	-1e10	8	-1E+10	1	-1E+10	1	-1E+10	1	-1E+10	1	-1E+10	1	-1E+10	1
4902554	73	C	02/13/2023	02:04	-132.866	48.263	0	717.70	0	3.5790	0	34.2480	0	27.235	0	710.430	0	-1e10	8	-1e10	8	-1E+10	1	-1E+10	1	-1E+10	1	-1E+10	1	-1E+10	1	-1E+10	1
4902554	73	C	02/13/2023	02:04	-132.866	48.263	0	722.90	0	3.5700	0	34.2480	0	27.236	0	715.568	0	-1e10	8	-1e10	8	-1E+10	1	-1E+10	1	-1E+10	1	-1E+10	1	-1E+10	1	-1E+10	1
4902554	73	C	02/13/2023	02:04	-132.866	48.263	0	728.10	0	3.5620	0	34.2480	0	27.237	0	720.707	0	-1e10	8	-1e10	8	-1E+10	1	-1E+10	1	-1E+10	1	-1E+10	1	-1E+10	1	-1E+10	1
4902554	73	C	02/13/2023	02:04	-132.866	48.263	0	732.90	0	3.5580	0	34.2490	0	27.238	0	725.450	0	-1e10	8	-1e10	8	-1E+10	1	-1E+10	1	-1E+10	1	-1E+10	1	-1E+10	1	-1E+10	1
4902554	73	C	02/13/2023	02:04	-132.866	48.263	0	737.90	0	3.5490	0	34.2520	0	27.241	0	730.390	0	-1e10	8	-1e10	8	-1E+10	1	-1E+10	1	-1E+10	1	-1E+10	1	-1E+10	1	-1E+10	1
4902554	73	C	02/13/2023	02:04	-132.866	48.263	0	742.90	0	3.5380	0	34.2550	0	27.245	0	735.330	0	-1e10	8	-1e10	8	-1E+10	1	-1E+10	1	-1E+10	1	-1E+10	1	-1E+10	1	-1E+10	1
4902554	73	C	02/13/2023	02:04	-132.866	48.263	0	747.90	0	3.5270	0	34.2580	0	27.248	0	740.270	0	-1e10	8	-1e10	8	-1E+10	1	-1E+10	1	-1E+10	1	-1E+10	1	-1E+10	1	-1E+10	1
4902554	73	C	02/13/2023	02:04	-132.866	48.263	0	753.00	0	3.5220	0	34.2610	0	27.251	0	745.309	0	-1e10	8	-1e10	8	-1E+10	1	-1E+10	1	-1E+10	1	-1E+10	1	-1E+10	1	-1E+10	1
4902554	73	C	02/13/2023	02:04	-132.866	48.263	0	758.00	0	3.5210	0	34.2620	0	27.252	0	750.249	0	-1e10	8	-1e10	8	-1E+10	1	-1E+10	1	-1E+10	1	-1E+10	1	-1E+10	1	-1E+10	1
4902554	73	C	02/13/2023	02:04	-132.866	48.263	0	763.00	0	3.5120	0	34.2650	0	27.255	0	755.189	0	-1e10	8	-1e10	8	-1E+10	1	-1E+10	1	-1E+10	1	-1E+10	1	-1E+10	1	-1E+10	1
4902554	73	C	02/13/2023	02:04	-132.866	48.263	0	768.00	0	3.5090	0	34.2660	0	27.257	0	760.129	0	-1e10	8	-1e10	8	-1E+10	1	-1E+10	1	-1E+10	1	-1E+10	1	-1E+10	1	-1E+10	1
4902554	73	C	02/13/2023	02:04	-132.866	48.263	0	773.00	0	3.4980	0	34.2700	0	27.261	0	765.068	0	-1e10	8	-1e10	8	-1E+10	1	-1E+10	1	-1E+10	1	-1E+10	1	-1E+10	1	-1E+10	1
4902554	73	C	02/13/2023	02:04	-132.866	48.263	0	778.00	0	3.4870	0	34.2730	0	27.264	0	770.008	0	-1e10	8	-1e10	8	-1E+10	1	-1E+10	1	-1E+10	1	-1E+10	1	-1E+10	1	-1E+10	1
4902554	73	C	02/13/2023	02:04	-132.866	48.263	0	783.00	0	3.4850	0	34.2740	0	27.265	0	774.947	0	-1e10	8	-1e10	8	-1E+10	1	-1E+10	1	-1E+10	1	-1E+10	1	-1E+10	1	-1E+10	1
4902554	73	C	02/13/2023	02:04	-132.866	48.263	0	788.20	0	3.4840	0	34.2750	0	27.266	0	780.084	0	-1e10	8	-1e10	8	-1E+10	1	-1E+10	1	-1E+10	1	-1E+10	1	-1E+10	1	-1E+10	1
4902554	73	C	02/13/2023	02:04	-132.866	48.263	0	792.90	0	3.4790	0	34.2770	0	27.268	0	784.727	0	-1e10	8	-1e10	8	-1E+10	1	-1E+10	1	-1E+10	1	-1E+10	1	-1E+10	1	-1E+10	1
4902554	73	C	02/13/2023	02:04	-132.866	48.263	0	797.60	0	3.4710	0	34.2780	0	27.270	0	789.370	0	-1e10	8	-1e10	8	-1E+10	1	-1E+10	1	-1E+10	1	-1E+10	1	-1E+10	1	-1E+10	1
4902554	73	C	02/13/2023	02:04	-132.866	48.263	0	802.70	0	3.4550	0	34.2820	0	27.275	0	794.407	0	-1e10	8	-1e10	8	-1E+10	1	-1E+10	1	-1E+10	1	-1E+10	1	-1E+10	1	-1E+10	1
4902554	73	C	02/13/2023	02:04	-132.866	48.263	0	807.90	0	3.4410	0	34.2850	0	27.279	0	799.544	0	-1e10	8	-1e10	8	-1E+10	1	-1E+10	1	-1E+10	1	-1E+10	1	-1E+10	1	-1E+10	1
4902554	73	C	02/13/2023	02:04	-132.866	48.263	0	812.90	0	3.4240	0	34.2880	0	27.283	0	804.482	0	-1e10	8	-1e10	8	-1E+10	1	-1E+10	1	-1E+10	1	-1E+10	1	-1E+10	1	-1E+10	1
4902554	73	C	02/13/2023	02:04	-132.866	48.263	0	817.90	0	3.4100	0	34.2910	0	27.286	0	809.421	0	-1e10	8	-1e10	8	-1E+10	1	-1E+10	1	-1E+10	1	-1E+10	1	-1E+10	1	-1E+10	1
4902554	73	C	02/13/2023	02:04	-132.866	48.263	0	822.90	0	3.3900	0	34.2940	0	27.291	0	814.359	0	-1e10	8	-1e10	8	-1E+10	1	-1E+10	1	-1E+10	1	-1E+10	1	-1E+10	1	-1E+10	1
4902554	73	C	02/13/2023	02:04	-132.866	48.263	0	827.90	0	3.3870	0	34.2950	0	27.292	0	819.298	0	-1e10	8	-1e10	8	-1E+10	1	-1E+10	1	-1E+10	1	-1E+10	1	-1E+10	1	-1E+10	1
4902554	73	C	02/13/2023	02:04	-132.866	48.263	0	832.80	0	3.3770	0	34.2960	0	27.294	0	824.137	0	-1e10	8	-1e10	8	-1E+10	1	-1E+10	1	-1E+10	1	-1E+10	1	-1E+10	1	-1E+10	1
4902554	73	C	02/13/2023	02:04	-132.866	48.263	0	837.80	0	3.3710	0	34.2960	0	27.294	0	829.075	0	-1e10	8	-1e10	8	-1E+10	1	-1E+10	1	-1E+10	1	-1E+10	1	-1E+10	1	-1E+10	1
4902554	73	C	02/13/2023	02:04	-132.866	48.263	0	842.70	0	3.3640	0	34.2970	0	27.296	0	833.914	0	-1e10	8	-1e10	8	-1E+10	1	-1E+10	1	-1E+10	1	-1E+10	1	-1E+10	1	-1E+10	1
4902554	73	C	02/13/2023	02:04	-132.866	48.263	0	847.70	0	3.3600	0	34.3000	0	27.298	0	838.852	0	-1e10	8	-1e10	8	-1E+10	1	-1E+10	1	-1E+10	1	-1E+10	1	-1E+10	1	-1E+10	1
4902554	73	C	02/13/2023	02:04	-132.866	48.263	0	853.00	0	3.3540	0	34.3010	0	27.300	0	844.086	0	-1e10	8	-1e10	8	-1E+10	1	-1E+10	1	-1E+10	1	-1E+10	1	-1E+10	1	-1E+10	1
4902554	73	C	02/13/2023	02:04	-132.866	48.263	0	858.30	0	3.3460	0	34.3040	0	27.303	0	849.320	0	-1e10	8	-1e10	8	-1E+10	1	-1E+10	1	-1E+10	1	-1E+10	1	-1E+10	1	-1E+10	1
4902554	73	C	02/13/2023	02:04	-132.866	48.263	0	863.20	0	3.3340	0	34.3050	0	27.305	0	854.159	0	-1e10	8	-1e10	8	-1E+10	1	-1E+10	1	-1E+10	1	-1E+10	1	-1E+10	1	-1E+10	1
4902554	73	C	02/13/2023	02:04	-132.866	48.263	0	867.90	0	3.3230	0	34.3080	0	27.308	0	858.800	0	-1e10	8	-1e10	8	-1E+10	1	-1E+10	1	-1E+10	1	-1E+10	1	-1E+10	1	-1E+10	1
4902554	73	C	02/13/2023	02:04	-132.866	48.263	0	872.60	0	3.3080	0	34.3100	0	27.311	0	863.441	0	-1e10	8	-1e10	8	-1E+10	1	-1E+10	1	-1E+10	1	-1E+10	1	-1E+10	1	-1E+10	1
4902554	73	C	02/13/2023	02:04	-132.866	48.263	0	877.80	0	3.2920	0	34.3120	0	27.315	0	868.575	0	-1e10	8	-1e10	8	-1E+10	1	-1E+10	1	-1E+10	1	-1E+10	1	-1E+10	1	-1E+10	1
4902554	73	C	02/13/2023	02:04	-132.866	48.263	0	883.00	0	3.2860	0	34.3140	0	27.317	0	873.710	0	-1e10	8	-1e10	8	-1E+10	1	-1E+10	1	-1E+10	1	-1E+10	1	-1E+10	1	-1E+10	1
4902554	73	C	02/13/2023	02:04	-132.866	48.263	0	887.90	0	3.2830	0	34.3150	0	27.318	0	878.548	0	-1e10	8	-1e10	8	-1E+10	1	-1E+10	1	-1E+10	1	-1E+10	1	-1E+10	1	-1E+10	1
4902554	73	C	02/13/2023	02:04	-132.866	48.263	0	892.70	0	3.2800	0	34.3160	0	27.319	0	883.287	0	-1e10	8	-1e10	8	-1E+10	1	-1E+10	1	-1E+10	1	-1E+10	1	-1E+10	1	-1E+10	1
4902554	73	C	02/13/2023	02:04	-132.866	48.263	0	897.90	0	3.2720	0	34.3170	0	27.321	0	888.421	0	-1e10	8	-1e10	8	-1E+10	1	-1E+10	1	-1E+10	1	-1E+10	1	-1E+10	1	-1E+10	1
4902554	73	C	02/13/2023	02:04	-132.866	48.263	0	903.00	0	3.2610	0	34.3200	0	27.324	0	893.457	0	-1e10	8	-1e10	8	-1E+10	1	-1E+10	1	-1E+10	1	-1E+10	1	-1E+10	1	-1E+10	1
4902554	73	C	02/13/2023	02:04	-132.866	48.263	0	907.70	0	3.2490	0	34.3220	0	27.327	0	898.097	0	-1e10	8	-1e10	8	-1E+10	1	-1E+10	1	-1E+10	1	-1E+10	1	-1E+10	1	-1E+10	1
4902554	73	C	02/13/2023	02:04	-132.866	48.263	0	912.90	0	3.2350	0	34.3260	0	27.331	0	903.231	0	-1e10	8	-1e10	8	-1E+10	1	-1E+10	1	-1E+10	1	-1E+10	1	-1E+10	1	-1E+10	1
4902554	73	C	02/13/2023	02:04	-132.866	48.263	0	918.10	0	3.2250	0	34.3270	0	27.333	0	908.364	0	-1e10	8	-1e10	8	-1E+10	1	-1E+10	1	-1E+10	1	-1E+10	1	-1E+10	1	-1E+10	1
4902554	73	C	02/13/2023	02:04	-132.866	48.263	0	923.00	0	3.2150	0	34.3300	0	27.336	0	913.202	0	-1e10	8	-1e10	8	-1E+10	1	-1E+10	1	-1E+10	1	-1E+10	1	-1E+10	1	-1E+10	1
4902554	73	C	02/13/2023	02:04	-132.866	48.263	0	927.90	0	3.2060	0	34.3330	0	27.340	0	918.039	0	-1e10	8	-1e10	8	-1E+10	1	-1E+10	1	-1E+10	1	-1E+10	1	-1E+10	1	-1E+10	1
4902554	73	C	02/13/2023	02:04	-132.866	48.263	0	932.80	0	3.2040	0	34.3340	0	27.341	0	922.876	0	-1e10	8	-1e10	8	-1E+10	1	-1E+10	1	-1E+10	1	-1E+10	1	-1E+10	1	-1E+10	1
4902554	73	C	02/13/2023	02:04	-132.866	48.263	0	937.90	0	3.1960	0	34.3350	0	27.342	0	927.911	0	-1e10	8	-1e10	8	-1E+10	1	-1E+10	1	-1E+10	1	-1E+10	1	-1E+10	1	-1E+10	1
4902554	73	C	02/13/2023	02:04	-132.866	48.263	0	943.10	0	3.1870	0	34.3370	0	27.345	0	933.044	0	-1e10	8	-1e10	8	-1E+10	1	-1E+10	1	-1E+10	1	-1E+10	1	-1E+10	1	-1E+10	1
4902554	73	C	02/13/2023	02:04	-132.866	48.263	0	947.90	0	3.1710	0	34.3410	0	27.349	0	937.782	0	-1e10	8	-1e10	8	-1E+10	1	-1E+10	1	-1E+10	1	-1E+10	1	-1E+10	1	-1E+10	1
4902554	73	C	02/13/2023	02:04	-132.866	48.263	0	952.70	0	3.1590	0	34.3440	0	27.353	0	942.520	0	-1e10	8	-1e10	8	-1E+10	1	-1E+10	1	-1E+10	1	-1E+10	1	-1E+10	1	-1E+10	1
4902554	73	C	02/13/2023	02:04	-132.866	48.263	0	957.90	0	3.1510	0	34.3450	0	27.354	0	947.652	0	-1e10	8	-1e10	8	-1E+10	1	-1E+10	1	-1E+10	1	-1E+10	1	-1E+10	1	-1E+10	1
4902554	73	C	02/13/2023	02:04	-132.866	48.263	0	963.20	0	3.1410	0	34.3470	0	27.357	0	952.884	0	-1e10	8	-1e10	8	-1E+10	1	-1E+10	1	-1E+10	1	-1E+10	1	-1E+10	1	-1E+10	1
4902554	73	C	02/13/2023	02:04	-132.866	48.263	0	968.20	0	3.1260	0	34.3520	0	27.362	0	957.819	0	-1e10	8	-1e10	8	-1E+10	1	-1E+10	1	-1E+10	1	-1E+10	1	-1E+10	1	-1E+10	1
4902554	73	C	02/13/2023	02:04	-132.866	48.263	0	972.90	0	3.1190	0	34.3540	0	27.365	0	962.457	0	-1e10	8	-1e10	8	-1E+10	1	-1E+10	1	-1E+10	1	-1E+10	1	-1E+10	1	-1E+10	1
4902554	73	C	02/13/2023	02:04	-132.866	48.263	0	977.60	0	3.1090	0	34.3560	0	27.367	0	967.096	0	-1e10	8	-1e10	8	-1E+10	1	-1E+10	1	-1E+10	1	-1E+10	1	-1E+10	1	-1E+10	1
4902554	73	C	02/13/2023	02:04	-132.866	48.263	0	982.70	0	3.1050	0	34.3560	0	27.368	0	972.129	0	-1e10	8	-1e10	8	-1E+10	1	-1E+10	1	-1E+10	1	-1E+10	1	-1E+10	1	-1E+10	1
4902554	73	C	02/13/2023	02:04	-132.866	48.263	0	987.90	0	3.0990	0	34.3580	0	27.370	0	977.261	0	-1e10	8	-1e10	8	-1E+10	1	-1E+10	1	-1E+10	1	-1E+10	1	-1E+10	1	-1E+10	1
4902554	73	C	02/13/2023	02:04	-132.866	48.263	0	992.80	0	3.0910	0	34.3600	0	27.372	0	982.097	0	-1e10	8	-1e10	8	-1E+10	1	-1E+10	1	-1E+10	1	-1E+10	1	-1E+10	1	-1E+10	1
4902554	73	C	02/13/2023	02:04	-132.866	48.263	0	997.70	0	3.0840	0	34.3620	0	27.374	0	986.933	0	-1e10	8	-1e10	8	-1E+10	1	-1E+10	1	-1E+10	1	-1E+10	1	-1E+10	1	-1E+10	1
4902554	73	C	02/13/2023	02:04	-132.866	48.263	0	1005.50	0	3.0670	0	34.3660	0	27.379	0	994.630	0	-1e10	8	-1e10	8	-1E+10	1	-1E+10	1	-1E+10	1	-1E+10	1	-1E+10	1	-1E+10	1
4902554	73	C	02/13/2023	02:04	-132.866	48.263	0	1015.50	0	3.0530	0	34.3690	0	27.383	0	1004.498	0	-1e10	8	-1e10	8	-1E+10	1	-1E+10	1	-1E+10	1	-1E+10	1	-1E+10	1	-1E+10	1
4902554	73	C	02/13/2023	02:04	-132.866	48.263	0	1025.20	0	3.0430	0	34.3710	0	27.385	0	1014.070	0	-1e10	8	-1e10	8	-1E+10	1	-1E+10	1	-1E+10	1	-1E+10	1	-1E+10	1	-1E+10	1
4902554	73	C	02/13/2023	02:04	-132.866	48.263	0	1035.00	0	3.0300	0	34.3750	0	27.390	0	1023.739	0	-1e10	8	-1e10	8	-1E+10	1	-1E+10	1	-1E+10	1	-1E+10	1	-1E+10	1	-1E+10	1
4902554	73	C	02/13/2023	02:04	-132.866	48.263	0	1045.10	0	3.0170	0	34.3780	0	27.394	0	1033.704	0	-1e10	8	-1e10	8	-1E+10	1	-1E+10	1	-1E+10	1	-1E+10	1	-1E+10	1	-1E+10	1
4902554	73	C	02/13/2023	02:04	-132.866	48.263	0	1055.50	0	2.9930	0	34.3850	0	27.401	0	1043.965	0	-1e10	8	-1e10	8	-1E+10	1	-1E+10	1	-1E+10	1	-1E+10	1	-1E+10	1	-1E+10	1
4902554	73	C	02/13/2023	02:04	-132.866	48.263	0	1065.50	0	2.9820	0	34.3880	0	27.405	0	1053.831	0	-1e10	8	-1e10	8	-1E+10	1	-1E+10	1	-1E+10	1	-1E+10	1	-1E+10	1	-1E+10	1
4902554	73	C	02/13/2023	02:04	-132.866	48.263	0	1075.60	0	2.9730	0	34.3900	0	27.407	0	1063.795	0	-1e10	8	-1e10	8	-1E+10	1	-1E+10	1	-1E+10	1	-1E+10	1	-1E+10	1	-1E+10	1
4902554	73	C	02/13/2023	02:04	-132.866	48.263	0	1085.50	0	2.9460	0	34.3960	0	27.415	0	1073.561	0	-1e10	8	-1e10	8	-1E+10	1	-1E+10	1	-1E+10	1	-1E+10	1	-1E+10	1	-1E+10	1
4902554	73	C	02/13/2023	02:04	-132.866	48.263	0	1095.20	0	2.9220	0	34.4010	0	27.421	0	1083.129	0	-1e10	8	-1e10	8	-1E+10	1	-1E+10	1	-1E+10	1	-1E+10	1	-1E+10	1	-1E+10	1
4902554	73	C	02/13/2023	02:04	-132.866	48.263	0	1105.20	0	2.9050	0	34.4050	0	27.425	0	1092.993	0	-1e10	8	-1e10	8	-1E+10	1	-1E+10	1	-1E+10	1	-1E+10	1	-1E+10	1	-1E+10	1
4902554	73	C	02/13/2023	02:04	-132.866	48.263	0	1115.40	0	2.8920	0	34.4080	0	27.429	0	1103.053	0	-1e10	8	-1e10	8	-1E+10	1	-1E+10	1	-1E+10	1	-1E+10	1	-1E+10	1	-1E+10	1
4902554	73	C	02/13/2023	02:04	-132.866	48.263	0	1125.10	0	2.8780	0	34.4100	0	27.432	0	1112.620	0	-1e10	8	-1e10	8	-1E+10	1	-1E+10	1	-1E+10	1	-1E+10	1	-1E+10	1	-1E+10	1
4902554	73	C	02/13/2023	02:04	-132.866	48.263	0	1135.40	0	2.8710	0	34.4110	0	27.433	0	1122.778	0	-1e10	8	-1e10	8	-1E+10	1	-1E+10	1	-1E+10	1	-1E+10	1	-1E+10	1	-1E+10	1
4902554	73	C	02/13/2023	02:04	-132.866	48.263	0	1145.80	0	2.8520	0	34.4150	0	27.438	0	1133.035	0	-1e10	8	-1e10	8	-1E+10	1	-1E+10	1	-1E+10	1	-1E+10	1	-1E+10	1	-1E+10	1
4902554	73	C	02/13/2023	02:04	-132.866	48.263	0	1155.70	0	2.8380	0	34.4170	0	27.441	0	1142.798	0	-1e10	8	-1e10	8	-1E+10	1	-1E+10	1	-1E+10	1	-1E+10	1	-1E+10	1	-1E+10	1
4902554	73	C	02/13/2023	02:04	-132.866	48.263	0	1165.70	0	2.8120	0	34.4210	0	27.447	0	1152.658	0	-1e10	8	-1e10	8	-1E+10	1	-1E+10	1	-1E+10	1	-1E+10	1	-1E+10	1	-1E+10	1
4902554	73	C	02/13/2023	02:04	-132.866	48.263	0	1175.40	0	2.7910	0	34.4260	0	27.453	0	1162.223	0	-1e10	8	-1e10	8	-1E+10	1	-1E+10	1	-1E+10	1	-1E+10	1	-1E+10	1	-1E+10	1
4902554	73	C	02/13/2023	02:04	-132.866	48.263	0	1185.10	0	2.7740	0	34.4280	0	27.456	0	1171.787	0	-1e10	8	-1e10	8	-1E+10	1	-1E+10	1	-1E+10	1	-1E+10	1	-1E+10	1	-1E+10	1
4902554	73	C	02/13/2023	02:04	-132.866	48.263	0	1195.30	0	2.7520	0	34.4320	0	27.461	0	1181.844	0	-1e10	8	-1e10	8	-1E+10	1	-1E+10	1	-1E+10	1	-1E+10	1	-1E+10	1	-1E+10	1
4902554	73	C	02/13/2023	02:04	-132.866	48.263	0	1205.50	0	2.7350	0	34.4350	0	27.465	0	1191.900	0	-1e10	8	-1e10	8	-1E+10	1	-1E+10	1	-1E+10	1	-1E+10	1	-1E+10	1	-1E+10	1
4902554	73	C	02/13/2023	02:04	-132.866	48.263	0	1215.70	0	2.7170	0	34.4380	0	27.469	0	1201.956	0	-1e10	8	-1e10	8	-1E+10	1	-1E+10	1	-1E+10	1	-1E+10	1	-1E+10	1	-1E+10	1
4902554	73	C	02/13/2023	02:04	-132.866	48.263	0	1225.50	0	2.7080	0	34.4400	0	27.471	0	1211.617	0	-1e10	8	-1e10	8	-1E+10	1	-1E+10	1	-1E+10	1	-1E+10	1	-1E+10	1	-1E+10	1
4902554	73	C	02/13/2023	02:04	-132.866	48.263	0	1235.20	0	2.6870	0	34.4420	0	27.475	0	1221.179	0	-1e10	8	-1e10	8	-1E+10	1	-1E+10	1	-1E+10	1	-1E+10	1	-1E+10	1	-1E+10	1
4902554	73	C	02/13/2023	02:04	-132.866	48.263	0	1245.20	0	2.6750	0	34.4440	0	27.478	0	1231.036	0	-1e10	8	-1e10	8	-1E+10	1	-1E+10	1	-1E+10	1	-1E+10	1	-1E+10	1	-1E+10	1
4902554	73	C	02/13/2023	02:04	-132.866	48.263	0	1255.10	0	2.6510	0	34.4470	0	27.482	0	1240.795	0	-1e10	8	-1e10	8	-1E+10	1	-1E+10	1	-1E+10	1	-1E+10	1	-1E+10	1	-1E+10	1
4902554	73	C	02/13/2023	02:04	-132.866	48.263	0	1265.10	0	2.6280	0	34.4510	0	27.487	0	1250.651	0	-1e10	8	-1e10	8	-1E+10	1	-1E+10	1	-1E+10	1	-1E+10	1	-1E+10	1	-1E+10	1
4902554	73	C	02/13/2023	02:04	-132.866	48.263	0	1275.30	0	2.6130	0	34.4540	0	27.491	0	1260.704	0	-1e10	8	-1e10	8	-1E+10	1	-1E+10	1	-1E+10	1	-1E+10	1	-1E+10	1	-1E+10	1
4902554	73	C	02/13/2023	02:04	-132.866	48.263	0	1285.20	0	2.6110	0	34.4540	0	27.491	0	1270.461	0	-1e10	8	-1e10	8	-1E+10	1	-1E+10	1	-1E+10	1	-1E+10	1	-1E+10	1	-1E+10	1
4902554	73	C	02/13/2023	02:04	-132.866	48.263	0	1295.30	0	2.5990	0	34.4560	0	27.494	0	1280.414	0	-1e10	8	-1e10	8	-1E+10	1	-1E+10	1	-1E+10	1	-1E+10	1	-1E+10	1	-1E+10	1
4902554	73	C	02/13/2023	02:04	-132.866	48.263	0	1305.60	0	2.5800	0	34.4590	0	27.498	0	1290.564	0	-1e10	8	-1e10	8	-1E+10	1	-1E+10	1	-1E+10	1	-1E+10	1	-1E+10	1	-1E+10	1
4902554	73	C	02/13/2023	02:04	-132.866	48.263	0	1315.60	0	2.5630	0	34.4620	0	27.502	0	1300.418	0	-1e10	8	-1e10	8	-1E+10	1	-1E+10	1	-1E+10	1	-1E+10	1	-1E+10	1	-1E+10	1
4902554	73	C	02/13/2023	02:04	-132.866	48.263	0	1325.50	0	2.5440	0	34.4670	0	27.508	0	1310.173	0	-1e10	8	-1e10	8	-1E+10	1	-1E+10	1	-1E+10	1	-1E+10	1	-1E+10	1	-1E+10	1
4902554	73	C	02/13/2023	02:04	-132.866	48.263	0	1335.30	0	2.5220	0	34.4710	0	27.513	0	1319.830	0	-1e10	8	-1e10	8	-1E+10	1	-1E+10	1	-1E+10	1	-1E+10	1	-1E+10	1	-1E+10	1
4902554	73	C	02/13/2023	02:04	-132.866	48.263	0	1345.30	0	2.5060	0	34.4740	0	27.516	0	1329.682	0	-1e10	8	-1e10	8	-1E+10	1	-1E+10	1	-1E+10	1	-1E+10	1	-1E+10	1	-1E+10	1
4902554	73	C	02/13/2023	02:04	-132.866	48.263	0	1355.70	0	2.4900	0	34.4770	0	27.520	0	1339.928	0	-1e10	8	-1e10	8	-1E+10	1	-1E+10	1	-1E+10	1	-1E+10	1	-1E+10	1	-1E+10	1
4902554	73	C	02/13/2023	02:04	-132.866	48.263	0	1365.50	0	2.4780	0	34.4800	0	27.524	0	1349.583	0	-1e10	8	-1e10	8	-1E+10	1	-1E+10	1	-1E+10	1	-1E+10	1	-1E+10	1	-1E+10	1
4902554	73	C	02/13/2023	02:04	-132.866	48.263	0	1375.50	0	2.4670	0	34.4820	0	27.526	0	1359.434	0	-1e10	8	-1e10	8	-1E+10	1	-1E+10	1	-1E+10	1	-1E+10	1	-1E+10	1	-1E+10	1
4902554	73	C	02/13/2023	02:04	-132.866	48.263	0	1385.50	0	2.4670	0	34.4830	0	27.527	0	1369.285	0	-1e10	8	-1e10	8	-1E+10	1	-1E+10	1	-1E+10	1	-1E+10	1	-1E+10	1	-1E+10	1
4902554	73	C	02/13/2023	02:04	-132.866	48.263	0	1395.60	0	2.4570	0	34.4870	0	27.531	0	1379.234	0	-1e10	8	-1e10	8	-1E+10	1	-1E+10	1	-1E+10	1	-1E+10	1	-1E+10	1	-1E+10	1
4902554	73	C	02/13/2023	02:04	-132.866	48.263	0	1405.30	0	2.4460	0	34.4890	0	27.534	0	1388.788	0	-1e10	8	-1e10	8	-1E+10	1	-1E+10	1	-1E+10	1	-1E+10	1	-1E+10	1	-1E+10	1
4902554	73	C	02/13/2023	02:04	-132.866	48.263	0	1415.30	0	2.4380	0	34.4920	0	27.537	0	1398.638	0	-1e10	8	-1e10	8	-1E+10	1	-1E+10	1	-1E+10	1	-1E+10	1	-1E+10	1	-1E+10	1
4902554	73	C	02/13/2023	02:04	-132.866	48.263	0	1425.80	0	2.4300	0	34.4930	0	27.538	0	1408.979	0	-1e10	8	-1e10	8	-1E+10	1	-1E+10	1	-1E+10	1	-1E+10	1	-1E+10	1	-1E+10	1
4902554	73	C	02/13/2023	02:04	-132.866	48.263	0	1435.60	0	2.4030	0	34.4950	0	27.542	0	1418.630	0	-1e10	8	-1e10	8	-1E+10	1	-1E+10	1	-1E+10	1	-1E+10	1	-1E+10	1	-1E+10	1
4902554	73	C	02/13/2023	02:04	-132.866	48.263	0	1445.60	0	2.3860	0	34.4970	0	27.545	0	1428.478	0	-1e10	8	-1e10	8	-1E+10	1	-1E+10	1	-1E+10	1	-1E+10	1	-1E+10	1	-1E+10	1
4902554	73	C	02/13/2023	02:04	-132.866	48.263	0	1455.30	0	2.3760	0	34.4990	0	27.548	0	1438.030	0	-1e10	8	-1e10	8	-1E+10	1	-1E+10	1	-1E+10	1	-1E+10	1	-1E+10	1	-1E+10	1
4902554	73	C	02/13/2023	02:04	-132.866	48.263	0	1465.10	0	2.3630	0	34.5020	0	27.551	0	1447.680	0	-1e10	8	-1e10	8	-1E+10	1	-1E+10	1	-1E+10	1	-1E+10	1	-1E+10	1	-1E+10	1
4902554	73	C	02/13/2023	02:04	-132.866	48.263	0	1475.20	0	2.3520	0	34.5040	0	27.554	0	1457.626	0	-1e10	8	-1e10	8	-1E+10	1	-1E+10	1	-1E+10	1	-1E+10	1	-1E+10	1	-1E+10	1
4902554	73	C	02/13/2023	02:04	-132.866	48.263	0	1485.50	0	2.3420	0	34.5060	0	27.556	0	1467.767	0	-1e10	8	-1e10	8	-1E+10	1	-1E+10	1	-1E+10	1	-1E+10	1	-1E+10	1	-1E+10	1
4902554	73	C	02/13/2023	02:04	-132.866	48.263	0	1495.40	0	2.3290	0	34.5080	0	27.559	0	1477.514	0	-1e10	8	-1e10	8	-1E+10	1	-1E+10	1	-1E+10	1	-1E+10	1	-1E+10	1	-1E+10	1
4902554	73	C	02/13/2023	02:04	-132.866	48.263	0	1505.30	0	2.3160	0	34.5110	0	27.563	0	1487.261	0	-1e10	8	-1e10	8	-1E+10	1	-1E+10	1	-1E+10	1	-1E+10	1	-1E+10	1	-1E+10	1
4902554	73	C	02/13/2023	02:04	-132.866	48.263	0	1515.20	0	2.3090	0	34.5120	0	27.564	0	1497.007	0	-1e10	8	-1e10	8	-1E+10	1	-1E+10	1	-1E+10	1	-1E+10	1	-1E+10	1	-1E+10	1
4902554	73	C	02/13/2023	02:04	-132.866	48.263	0	1525.30	0	2.3040	0	34.5130	0	27.565	0	1506.950	0	-1e10	8	-1e10	8	-1E+10	1	-1E+10	1	-1E+10	1	-1E+10	1	-1E+10	1	-1E+10	1
4902554	73	C	02/13/2023	02:04	-132.866	48.263	0	1535.40	0	2.2980	0	34.5150	0	27.567	0	1516.893	0	-1e10	8	-1e10	8	-1E+10	1	-1E+10	1	-1E+10	1	-1E+10	1	-1E+10	1	-1E+10	1
4902554	73	C	02/13/2023	02:04	-132.866	48.263	0	1545.20	0	2.2850	0	34.5170	0	27.570	0	1526.539	0	-1e10	8	-1e10	8	-1E+10	1	-1E+10	1	-1E+10	1	-1E+10	1	-1E+10	1	-1E+10	1
4902554	73	C	02/13/2023	02:04	-132.866	48.263	0	1555.10	0	2.2700	0	34.5200	0	27.574	0	1536.284	0	-1e10	8	-1e10	8	-1E+10	1	-1E+10	1	-1E+10	1	-1E+10	1	-1E+10	1	-1E+10	1
4902554	73	C	02/13/2023	02:04	-132.866	48.263	0	1565.40	0	2.2550	0	34.5230	0	27.578	0	1546.421	0	-1e10	8	-1e10	8	-1E+10	1	-1E+10	1	-1E+10	1	-1E+10	1	-1E+10	1	-1E+10	1
4902554	73	C	02/13/2023	02:04	-132.866	48.263	0	1575.80	0	2.2420	0	34.5250	0	27.580	0	1556.657	0	-1e10	8	-1e10	8	-1E+10	1	-1E+10	1	-1E+10	1	-1E+10	1	-1E+10	1	-1E+10	1
4902554	73	C	02/13/2023	02:04	-132.866	48.263	0	1585.80	0	2.2320	0	34.5270	0	27.583	0	1566.499	0	-1e10	8	-1e10	8	-1E+10	1	-1E+10	1	-1E+10	1	-1E+10	1	-1E+10	1	-1E+10	1
4902554	73	C	02/13/2023	02:04	-132.866	48.263	0	1595.40	0	2.2250	0	34.5290	0	27.585	0	1575.946	0	-1e10	8	-1e10	8	-1E+10	1	-1E+10	1	-1E+10	1	-1E+10	1	-1E+10	1	-1E+10	1
4902554	73	C	02/13/2023	02:04	-132.866	48.263	0	1605.10	0	2.2170	0	34.5300	0	27.586	0	1585.491	0	-1e10	8	-1e10	8	-1E+10	1	-1E+10	1	-1E+10	1	-1E+10	1	-1E+10	1	-1E+10	1
4902554	73	C	02/13/2023	02:04	-132.866	48.263	0	1615.40	0	2.2100	0	34.5320	0	27.589	0	1595.627	0	-1e10	8	-1e10	8	-1E+10	1	-1E+10	1	-1E+10	1	-1E+10	1	-1E+10	1	-1E+10	1
4902554	73	C	02/13/2023	02:04	-132.866	48.263	0	1625.60	0	2.2000	0	34.5340	0	27.591	0	1605.663	0	-1e10	8	-1e10	8	-1E+10	1	-1E+10	1	-1E+10	1	-1E+10	1	-1E+10	1	-1E+10	1
4902554	73	C	02/13/2023	02:04	-132.866	48.263	0	1635.60	0	2.1930	0	34.5350	0	27.592	0	1615.502	0	-1e10	8	-1e10	8	-1E+10	1	-1E+10	1	-1E+10	1	-1E+10	1	-1E+10	1	-1E+10	1
4902554	73	C	02/13/2023	02:04	-132.866	48.263	0	1645.60	0	2.1890	0	34.5360	0	27.594	0	1625.341	0	-1e10	8	-1e10	8	-1E+10	1	-1E+10	1	-1E+10	1	-1E+10	1	-1E+10	1	-1E+10	1
4902554	73	C	02/13/2023	02:04	-132.866	48.263	0	1655.60	0	2.1850	0	34.5370	0	27.595	0	1635.180	0	-1e10	8	-1e10	8	-1E+10	1	-1E+10	1	-1E+10	1	-1E+10	1	-1E+10	1	-1E+10	1
4902554	73	C	02/13/2023	02:04	-132.866	48.263	0	1665.60	0	2.1800	0	34.5380	0	27.596	0	1645.017	0	-1e10	8	-1e10	8	-1E+10	1	-1E+10	1	-1E+10	1	-1E+10	1	-1E+10	1	-1E+10	1
4902554	73	C	02/13/2023	02:04	-132.866	48.263	0	1675.40	0	2.1720	0	34.5400	0	27.598	0	1654.658	0	-1e10	8	-1e10	8	-1E+10	1	-1E+10	1	-1E+10	1	-1E+10	1	-1E+10	1	-1E+10	1
4902554	73	C	02/13/2023	02:04	-132.866	48.263	0	1685.20	0	2.1680	0	34.5410	0	27.600	0	1664.298	0	-1e10	8	-1e10	8	-1E+10	1	-1E+10	1	-1E+10	1	-1E+10	1	-1E+10	1	-1E+10	1
4902554	73	C	02/13/2023	02:04	-132.866	48.263	0	1695.60	0	2.1580	0	34.5430	0	27.602	0	1674.528	0	-1e10	8	-1e10	8	-1E+10	1	-1E+10	1	-1E+10	1	-1E+10	1	-1E+10	1	-1E+10	1
4902554	73	C	02/13/2023	02:04	-132.866	48.263	0	1705.90	0	2.1450	0	34.5450	0	27.605	0	1684.659	0	-1e10	8	-1e10	8	-1E+10	1	-1E+10	1	-1E+10	1	-1E+10	1	-1E+10	1	-1E+10	1
4902554	73	C	02/13/2023	02:04	-132.866	48.263	0	1715.20	0	2.1310	0	34.5480	0	27.608	0	1693.806	0	-1e10	8	-1e10	8	-1E+10	1	-1E+10	1	-1E+10	1	-1E+10	1	-1E+10	1	-1E+10	1
4902554	73	C	02/13/2023	02:04	-132.866	48.263	0	1725.30	0	2.1280	0	34.5490	0	27.609	0	1703.740	0	-1e10	8	-1e10	8	-1E+10	1	-1E+10	1	-1E+10	1	-1E+10	1	-1E+10	1	-1E+10	1
4902554	73	C	02/13/2023	02:04	-132.866	48.263	0	1735.50	0	2.1140	0	34.5520	0	27.613	0	1713.771	0	-1e10	8	-1e10	8	-1E+10	1	-1E+10	1	-1E+10	1	-1E+10	1	-1E+10	1	-1E+10	1
4902554	73	C	02/13/2023	02:04	-132.866	48.263	0	1745.50	0	2.1090	0	34.5530	0	27.614	0	1723.606	0	-1e10	8	-1e10	8	-1E+10	1	-1E+10	1	-1E+10	1	-1E+10	1	-1E+10	1	-1E+10	1
4902554	73	C	02/13/2023	02:04	-132.866	48.263	0	1755.20	0	2.1030	0	34.5540	0	27.616	0	1733.144	0	-1e10	8	-1e10	8	-1E+10	1	-1E+10	1	-1E+10	1	-1E+10	1	-1E+10	1	-1E+10	1
4902554	73	C	02/13/2023	02:04	-132.866	48.263	0	1765.20	0	2.0950	0	34.5550	0	27.617	0	1742.978	0	-1e10	8	-1e10	8	-1E+10	1	-1E+10	1	-1E+10	1	-1E+10	1	-1E+10	1	-1E+10	1
4902554	73	C	02/13/2023	02:04	-132.866	48.263	0	1775.30	0	2.0870	0	34.5570	0	27.619	0	1752.909	0	-1e10	8	-1e10	8	-1E+10	1	-1E+10	1	-1E+10	1	-1E+10	1	-1E+10	1	-1E+10	1
4902554	73	C	02/13/2023	02:04	-132.866	48.263	0	1785.20	0	2.0790	0	34.5590	0	27.622	0	1762.643	0	-1e10	8	-1e10	8	-1E+10	1	-1E+10	1	-1E+10	1	-1E+10	1	-1E+10	1	-1E+10	1
4902554	73	C	02/13/2023	02:04	-132.866	48.263	0	1795.30	0	2.0720	0	34.5600	0	27.623	0	1772.573	0	-1e10	8	-1e10	8	-1E+10	1	-1E+10	1	-1E+10	1	-1E+10	1	-1E+10	1	-1E+10	1
4902554	73	C	02/13/2023	02:04	-132.866	48.263	0	1805.30	0	2.0640	0	34.5620	0	27.625	0	1782.405	0	-1e10	8	-1e10	8	-1E+10	1	-1E+10	1	-1E+10	1	-1E+10	1	-1E+10	1	-1E+10	1
4902554	73	C	02/13/2023	02:04	-132.866	48.263	0	1815.20	0	2.0540	0	34.5640	0	27.628	0	1792.137	0	-1e10	8	-1e10	8	-1E+10	1	-1E+10	1	-1E+10	1	-1E+10	1	-1E+10	1	-1E+10	1
4902554	73	C	02/13/2023	02:04	-132.866	48.263	0	1825.30	0	2.0420	0	34.5660	0	27.630	0	1802.066	0	-1e10	8	-1e10	8	-1E+10	1	-1E+10	1	-1E+10	1	-1E+10	1	-1E+10	1	-1E+10	1
4902554	73	C	02/13/2023	02:04	-132.866	48.263	0	1835.10	0	2.0340	0	34.5670	0	27.632	0	1811.700	0	-1e10	8	-1e10	8	-1E+10	1	-1E+10	1	-1E+10	1	-1E+10	1	-1E+10	1	-1E+10	1
4902554	73	C	02/13/2023	02:04	-132.866	48.263	0	1845.00	0	2.0300	0	34.5680	0	27.633	0	1821.431	0	-1e10	8	-1e10	8	-1E+10	1	-1E+10	1	-1E+10	1	-1E+10	1	-1E+10	1	-1E+10	1
4902554	73	C	02/13/2023	02:04	-132.866	48.263	0	1855.40	0	2.0150	0	34.5710	0	27.637	0	1831.653	0	-1e10	8	-1e10	8	-1E+10	1	-1E+10	1	-1E+10	1	-1E+10	1	-1E+10	1	-1E+10	1
4902554	73	C	02/13/2023	02:04	-132.866	48.263	0	1865.80	0	2.0050	0	34.5730	0	27.639	0	1841.875	0	-1e10	8	-1e10	8	-1E+10	1	-1E+10	1	-1E+10	1	-1E+10	1	-1E+10	1	-1E+10	1
4902554	73	C	02/13/2023	02:04	-132.866	48.263	0	1875.40	0	2.0000	0	34.5740	0	27.640	0	1851.311	0	-1e10	8	-1e10	8	-1E+10	1	-1E+10	1	-1E+10	1	-1E+10	1	-1E+10	1	-1E+10	1
4902554	73	C	02/13/2023	02:04	-132.866	48.263	0	1885.00	0	1.9970	0	34.5750	0	27.641	0	1860.745	0	-1e10	8	-1e10	8	-1E+10	1	-1E+10	1	-1E+10	1	-1E+10	1	-1E+10	1	-1E+10	1
4902554	73	C	02/13/2023	02:04	-132.866	48.263	0	1895.30	0	1.9880	0	34.5770	0	27.644	0	1870.867	0	-1e10	8	-1e10	8	-1E+10	1	-1E+10	1	-1E+10	1	-1E+10	1	-1E+10	1	-1E+10	1
4902554	73	C	02/13/2023	02:04	-132.866	48.263	0	1905.20	0	1.9800	0	34.5780	0	27.645	0	1880.596	0	-1e10	8	-1e10	8	-1E+10	1	-1E+10	1	-1E+10	1	-1E+10	1	-1E+10	1	-1E+10	1
4902554	73	C	02/13/2023	02:04	-132.866	48.263	0	1915.20	0	1.9730	0	34.5800	0	27.647	0	1890.422	0	-1e10	8	-1e10	8	-1E+10	1	-1E+10	1	-1E+10	1	-1E+10	1	-1E+10	1	-1E+10	1
4902554	73	C	02/13/2023	02:04	-132.866	48.263	0	1925.30	0	1.9670	0	34.5810	0	27.649	0	1900.347	0	-1e10	8	-1e10	8	-1E+10	1	-1E+10	1	-1E+10	1	-1E+10	1	-1E+10	1	-1E+10	1
4902554	73	C	02/13/2023	02:04	-132.866	48.263	0	1935.00	0	1.9630	0	34.5820	0	27.650	0	1909.878	0	-1e10	8	-1e10	8	-1E+10	1	-1E+10	1	-1E+10	1	-1E+10	1	-1E+10	1	-1E+10	1
4902554	73	C	02/13/2023	02:04	-132.866	48.263	0	1945.30	0	1.9590	0	34.5830	0	27.651	0	1919.998	0	-1e10	8	-1e10	8	-1E+10	1	-1E+10	1	-1E+10	1	-1E+10	1	-1E+10	1	-1E+10	1
4902554	73	C	02/13/2023	02:04	-132.866	48.263	0	1955.50	0	1.9540	0	34.5840	0	27.652	0	1930.019	0	-1e10	8	-1e10	8	-1E+10	1	-1E+10	1	-1E+10	1	-1E+10	1	-1E+10	1	-1E+10	1
4902554	73	C	02/13/2023	02:04	-132.866	48.263	0	1965.70	0	1.9480	0	34.5850	0	27.654	0	1940.039	0	-1e10	8	-1e10	8	-1E+10	1	-1E+10	1	-1E+10	1	-1E+10	1	-1E+10	1	-1E+10	1
4902554	73	C	02/13/2023	02:04	-132.866	48.263	0	1975.70	0	1.9410	0	34.5870	0	27.656	0	1949.863	0	-1e10	8	-1e10	8	-1E+10	1	-1E+10	1	-1E+10	1	-1E+10	1	-1E+10	1	-1E+10	1
4902554	73	C	02/13/2023	02:04	-132.866	48.263	0	1983.70	0	1.9350	0	34.5880	0	27.657	0	1957.722	0	-1e10	8	-1e10	8	-1E+10	1	-1E+10	1	-1E+10	1	-1E+10	1	-1E+10	1	-1E+10	1
4902554	73	C	02/13/2023	02:04	-132.866	48.263	0																										
4902554	77	C	03/25/2023	22:01	-132.645	47.935	0	0.40	0	7.4050	0	32.3400	0	25.269	0	0.397	0	-1e10	8	-1e10	8	-1E+10	1	-1E+10	1	-1E+10	1	-1E+10	1	-1E+10	1	-1E+10	1
4902554	77	C	03/25/2023	22:01	-132.645	47.935	0	0.50	0	7.4048	0	32.3400	0	25.269	0	0.496	0	-1e10	8	-1e10	8	-1E+10	1	-1E+10	1	-1E+10	1	-1E+10	1	-1E+10	1	-1E+10	1
4902554	77	C	03/25/2023	22:01	-132.645	47.935	0	1.00	0	7.4040	0	32.3400	0	25.270	0	0.992	0	-1e10	8	-1e10	8	-1E+10	1	-1E+10	1	-1E+10	1	-1E+10	1	-1E+10	1	-1E+10	1
4902554	77	C	03/25/2023	22:01	-132.645	47.935	0	1.90	0	7.4050	0	32.3370	0	25.267	0	1.884	0	-1e10	8	-1e10	8	-1E+10	1	-1E+10	1	-1E+10	1	-1E+10	1	-1E+10	1	-1E+10	1
4902554	77	C	03/25/2023	22:01	-132.645	47.935	0	3.00	0	7.4050	0	32.3370	0	25.267	0	2.975	0	-1e10	8	-1e10	8	-1E+10	1	-1E+10	1	-1E+10	1	-1E+10	1	-1E+10	1	-1E+10	1
4902554	77	C	03/25/2023	22:01	-132.645	47.935	0	3.90	0	7.4040	0	32.3380	0	25.268	0	3.867	0	-1e10	8	-1e10	8	-1E+10	1	-1E+10	1	-1E+10	1	-1E+10	1	-1E+10	1	-1E+10	1
4902554	77	C	03/25/2023	22:01	-132.645	47.935	0	5.00	0	7.4020	0	32.3400	0	25.270	0	4.958	0	-1e10	8	-1e10	8	-1E+10	1	-1E+10	1	-1E+10	1	-1E+10	1	-1E+10	1	-1E+10	1
4902554	77	C	03/25/2023	22:01	-132.645	47.935	0	6.00	0	7.4020	0	32.3400	0	25.270	0	5.950	0	-1e10	8	-1e10	8	-1E+10	1	-1E+10	1	-1E+10	1	-1E+10	1	-1E+10	1	-1E+10	1
4902554	77	C	03/25/2023	22:01	-132.645	47.935	0	7.00	0	7.4010	0	32.3400	0	25.270	0	6.941	0	-1e10	8	-1e10	8	-1E+10	1	-1E+10	1	-1E+10	1	-1E+10	1	-1E+10	1	-1E+10	1
4902554	77	C	03/25/2023	22:01	-132.645	47.935	0	8.10	0	7.4030	0	32.3400	0	25.270	0	8.032	0	-1e10	8	-1e10	8	-1E+10	1	-1E+10	1	-1E+10	1	-1E+10	1	-1E+10	1	-1E+10	1
4902554	77	C	03/25/2023	22:01	-132.645	47.935	0	8.80	0	7.4030	0	32.3400	0	25.270	0	8.726	0	-1e10	8	-1e10	8	-1E+10	1	-1E+10	1	-1E+10	1	-1E+10	1	-1E+10	1	-1E+10	1
4902554	77	C	03/25/2023	22:01	-132.645	47.935	0	10.00	0	7.4040	0	32.3400	0	25.270	0	9.916	0	-1e10	8	-1e10	8	-1E+10	1	-1E+10	1	-1E+10	1	-1E+10	1	-1E+10	1	-1E+10	1
4902554	77	C	03/25/2023	22:01	-132.645	47.935	0	11.20	0	7.4040	0	32.3400	0	25.270	0	11.106	0	-1e10	8	-1e10	8	-1E+10	1	-1E+10	1	-1E+10	1	-1E+10	1	-1E+10	1	-1E+10	1
4902554	77	C	03/25/2023	22:01	-132.645	47.935	0	11.90	0	7.4050	0	32.3390	0	25.269	0	11.800	0	-1e10	8	-1e10	8	-1E+10	1	-1E+10	1	-1E+10	1	-1E+10	1	-1E+10	1	-1E+10	1
4902554	77	C	03/25/2023	22:01	-132.645	47.935	0	13.10	0	7.4040	0	32.3400	0	25.270	0	12.990	0	-1e10	8	-1e10	8	-1E+10	1	-1E+10	1	-1E+10	1	-1E+10	1	-1E+10	1	-1E+10	1
4902554	77	C	03/25/2023	22:01	-132.645	47.935	0	14.00	0	7.4030	0	32.3400	0	25.270	0	13.882	0	-1e10	8	-1e10	8	-1E+10	1	-1E+10	1	-1E+10	1	-1E+10	1	-1E+10	1	-1E+10	1
4902554	77	C	03/25/2023	22:01	-132.645	47.935	0	15.00	0	7.4030	0	32.3400	0	25.270	0	14.874	0	-1e10	8	-1e10	8	-1E+10	1	-1E+10	1	-1E+10	1	-1E+10	1	-1E+10	1	-1E+10	1
4902554	77	C	03/25/2023	22:01	-132.645	47.935	0	16.00	0	7.4030	0	32.3400	0	25.270	0	15.865	0	-1e10	8	-1e10	8	-1E+10	1	-1E+10	1	-1E+10	1	-1E+10	1	-1E+10	1	-1E+10	1
4902554	77	C	03/25/2023	22:01	-132.645	47.935	0	16.90	0	7.4030	0	32.3400	0	25.270	0	16.758	0	-1e10	8	-1e10	8	-1E+10	1	-1E+10	1	-1E+10	1	-1E+10	1	-1E+10	1	-1E+10	1
4902554	77	C	03/25/2023	22:01	-132.645	47.935	0	17.80	0	7.4030	0	32.3400	0	25.270	0	17.650	0	-1e10	8	-1e10	8	-1E+10	1	-1E+10	1	-1E+10	1	-1E+10	1	-1E+10	1	-1E+10	1
4902554	77	C	03/25/2023	22:01	-132.645	47.935	0	18.80	0	7.4010	0	32.3410	0	25.271	0	18.642	0	-1e10	8	-1e10	8	-1E+10	1	-1E+10	1	-1E+10	1	-1E+10	1	-1E+10	1	-1E+10	1
4902554	77	C	03/25/2023	22:01	-132.645	47.935	0	19.80	0	7.4020	0	32.3400	0	25.270	0	19.633	0	-1e10	8	-1e10	8	-1E+10	1	-1E+10	1	-1E+10	1	-1E+10	1	-1E+10	1	-1E+10	1
4902554	77	C	03/25/2023	22:01	-132.645	47.935	0	20.80	0	7.4020	0	32.3400	0	25.270	0	20.625	0	-1e10	8	-1e10	8	-1E+10	1	-1E+10	1	-1E+10	1	-1E+10	1	-1E+10	1	-1E+10	1
4902554	77	C	03/25/2023	22:01	-132.645	47.935	0	21.70	0	7.3950	0	32.3400	0	25.271	0	21.517	0	-1e10	8	-1e10	8	-1E+10	1	-1E+10	1	-1E+10	1	-1E+10	1	-1E+10	1	-1E+10	1
4902554	77	C	03/25/2023	22:01	-132.645	47.935	0	23.10	0	7.3940	0	32.3400	0	25.271	0	22.905	0	-1e10	8	-1e10	8	-1E+10	1	-1E+10	1	-1E+10	1	-1E+10	1	-1E+10	1	-1E+10	1
4902554	77	C	03/25/2023	22:01	-132.645	47.935	0	24.30	0	7.3990	0	32.3400	0	25.271	0	24.095	0	-1e10	8	-1e10	8	-1E+10	1	-1E+10	1	-1E+10	1	-1E+10	1	-1E+10	1	-1E+10	1
4902554	77	C	03/25/2023	22:01	-132.645	47.935	0	25.00	0	7.4000	0	32.3400	0	25.270	0	24.789	0	-1e10	8	-1e10	8	-1E+10	1	-1E+10	1	-1E+10	1	-1E+10	1	-1E+10	1	-1E+10	1
4902554	77	C	03/25/2023	22:01	-132.645	47.935	0	26.10	0	7.3880	0	32.3410	0	25.273	0	25.880	0	-1e10	8	-1e10	8	-1E+10	1	-1E+10	1	-1E+10	1	-1E+10	1	-1E+10	1	-1E+10	1
4902554	77	C	03/25/2023	22:01	-132.645	47.935	0	27.00	0	7.3910	0	32.3430	0	25.274	0	26.772	0	-1e10	8	-1e10	8	-1E+10	1	-1E+10	1	-1E+10	1	-1E+10	1	-1E+10	1	-1E+10	1
4902554	77	C	03/25/2023	22:01	-132.645	47.935	0	28.20	0	7.3900	0	32.3400	0	25.272	0	27.962	0	-1e10	8	-1e10	8	-1E+10	1	-1E+10	1	-1E+10	1	-1E+10	1	-1E+10	1	-1E+10	1
4902554	77	C	03/25/2023	22:01	-132.645	47.935	0	29.10	0	7.3890	0	32.3410	0	25.273	0	28.854	0	-1e10	8	-1e10	8	-1E+10	1	-1E+10	1	-1E+10	1	-1E+10	1	-1E+10	1	-1E+10	1
4902554	77	C	03/25/2023	22:01	-132.645	47.935	0	29.90	0	7.3900	0	32.3400	0	25.272	0	29.647	0	-1e10	8	-1e10	8	-1E+10	1	-1E+10	1	-1E+10	1	-1E+10	1	-1E+10	1	-1E+10	1
4902554	77	C	03/25/2023	22:01	-132.645	47.935	0	31.10	0	7.3900	0	32.3390	0	25.271	0	30.837	0	-1e10	8	-1e10	8	-1E+10	1	-1E+10	1	-1E+10	1	-1E+10	1	-1E+10	1	-1E+10	1
4902554	77	C	03/25/2023	22:01	-132.645	47.935	0	32.00	0	7.3830	0	32.3390	0	25.272	0	31.729	0	-1e10	8	-1e10	8	-1E+10	1	-1E+10	1	-1E+10	1	-1E+10	1	-1E+10	1	-1E+10	1
4902554	77	C	03/25/2023	22:01	-132.645	47.935	0	32.90	0	7.3750	0	32.3400	0	25.274	0	32.622	0	-1e10	8	-1e10	8	-1E+10	1	-1E+10	1	-1E+10	1	-1E+10	1	-1E+10	1	-1E+10	1
4902554	77	C	03/25/2023	22:01	-132.645	47.935	0	34.20	0	7.3740	0	32.3400	0	25.274	0	33.910	0	-1e10	8	-1e10	8	-1E+10	1	-1E+10	1	-1E+10	1	-1E+10	1	-1E+10	1	-1E+10	1
4902554	77	C	03/25/2023	22:01	-132.645	47.935	0	35.10	0	7.3760	0	32.3390	0	25.273	0	34.803	0	-1e10	8	-1e10	8	-1E+10	1	-1E+10	1	-1E+10	1	-1E+10	1	-1E+10	1	-1E+10	1
4902554	77	C	03/25/2023	22:01	-132.645	47.935	0	36.00	0	7.3760	0	32.3390	0	25.273	0	35.695	0	-1e10	8	-1e10	8	-1E+10	1	-1E+10	1	-1E+10	1	-1E+10	1	-1E+10	1	-1E+10	1
4902554	77	C	03/25/2023	22:01	-132.645	47.935	0	36.90	0	7.3740	0	32.3390	0	25.273	0	36.587	0	-1e10	8	-1e10	8	-1E+10	1	-1E+10	1	-1E+10	1	-1E+10	1	-1E+10	1	-1E+10	1
4902554	77	C	03/25/2023	22:01	-132.645	47.935	0	38.10	0	7.3740	0	32.3390	0	25.273	0	37.777	0	-1e10	8	-1e10	8	-1E+10	1	-1E+10	1	-1E+10	1	-1E+10	1	-1E+10	1	-1E+10	1
4902554	77	C	03/25/2023	22:01	-132.645	47.935	0	39.10	0	7.3750	0	32.3390	0	25.273	0	38.768	0	-1e10	8	-1e10	8	-1E+10	1	-1E+10	1	-1E+10	1	-1E+10	1	-1E+10	1	-1E+10	1
4902554	77	C	03/25/2023	22:01	-132.645	47.935	0	40.10	0	7.3740	0	32.3390	0	25.273	0	39.760	0	-1e10	8	-1e10	8	-1E+10	1	-1E+10	1	-1E+10	1	-1E+10	1	-1E+10	1	-1E+10	1
4902554	77	C	03/25/2023	22:01	-132.645	47.935	0	41.10	0	7.3730	0	32.3390	0	25.273	0	40.751	0	-1e10	8	-1e10	8	-1E+10	1	-1E+10	1	-1E+10	1	-1E+10	1	-1E+10	1	-1E+10	1
4902554	77	C	03/25/2023	22:01	-132.645	47.935	0	42.10	0	7.3730	0	32.3400	0	25.274	0	41.743	0	-1e10	8	-1e10	8	-1E+10	1	-1E+10	1	-1E+10	1	-1E+10	1	-1E+10	1	-1E+10	1
4902554	77	C	03/25/2023	22:01	-132.645	47.935	0	43.10	0	7.3710	0	32.3390	0	25.274	0	42.734	0	-1e10	8	-1e10	8	-1E+10	1	-1E+10	1	-1E+10	1	-1E+10	1	-1E+10	1	-1E+10	1
4902554	77	C	03/25/2023	22:01	-132.645	47.935	0	44.10	0	7.3730	0	32.3380	0	25.273	0	43.726	0	-1e10	8	-1e10	8	-1E+10	1	-1E+10	1	-1E+10	1	-1E+10	1	-1E+10	1	-1E+10	1
4902554	77	C	03/25/2023	22:01	-132.645	47.935	0	45.10	0	7.3720	0	32.3390	0	25.274	0	44.717	0	-1e10	8	-1e10	8	-1E+10	1	-1E+10	1	-1E+10	1	-1E+10	1	-1E+10	1	-1E+10	1
4902554	77	C	03/25/2023	22:01	-132.645	47.935	0	46.00	0	7.3710	0	32.3390	0	25.274	0	45.609	0	-1e10	8	-1e10	8	-1E+10	1	-1E+10	1	-1E+10	1	-1E+10	1	-1E+10	1	-1E+10	1
4902554	77	C	03/25/2023	22:01	-132.645	47.935	0	47.00	0	7.3700	0	32.3390	0	25.274	0	46.601	0	-1e10	8	-1e10	8	-1E+10	1	-1E+10	1	-1E+10	1	-1E+10	1	-1E+10	1	-1E+10	1
4902554	77	C	03/25/2023	22:01	-132.645	47.935	0	47.90	0	7.3700	0	32.3390	0	25.274	0	47.493	0	-1e10	8	-1e10	8	-1E+10	1	-1E+10	1	-1E+10	1	-1E+10	1	-1E+10	1	-1E+10	1
4902554	77	C	03/25/2023	22:01	-132.645	47.935	0	49.10	0	7.3670	0	32.3390	0	25.274	0	48.682	0	-1e10	8	-1e10	8	-1E+10	1	-1E+10	1	-1E+10	1	-1E+10	1	-1E+10	1	-1E+10	1
4902554	77	C	03/25/2023	22:01	-132.645	47.935	0	49.80	0	7.3650	0	32.3390	0	25.275	0	49.376	0	-1e10	8	-1e10	8	-1E+10	1	-1E+10	1	-1E+10	1	-1E+10	1	-1E+10	1	-1E+10	1
4902554	77	C	03/25/2023	22:01	-132.645	47.935	0	51.00	0	7.3680	0	32.3380	0	25.274	0	50.566	0	-1e10	8	-1e10	8	-1E+10	1	-1E+10	1	-1E+10	1	-1E+10	1	-1E+10	1	-1E+10	1
4902554	77	C	03/25/2023	22:01	-132.645	47.935	0	52.10	0	7.3660	0	32.3390	0	25.275	0	51.657	0	-1e10	8	-1e10	8	-1E+10	1	-1E+10	1	-1E+10	1	-1E+10	1	-1E+10	1	-1E+10	1
4902554	77	C	03/25/2023	22:01	-132.645	47.935	0	53.30	0	7.3670	0	32.3390	0	25.274	0	52.846	0	-1e10	8	-1e10	8	-1E+10	1	-1E+10	1	-1E+10	1	-1E+10	1	-1E+10	1	-1E+10	1
4902554	77	C	03/25/2023	22:01	-132.645	47.935	0	54.00	0	7.3670	0	32.3380	0	25.274	0	53.540	0	-1e10	8	-1e10	8	-1E+10	1	-1E+10	1	-1E+10	1	-1E+10	1	-1E+10	1	-1E+10	1
4902554	77	C	03/25/2023	22:01	-132.645	47.935	0	55.00	0	7.3680	0	32.3390	0	25.274	0	54.532	0	-1e10	8	-1e10	8	-1E+10	1	-1E+10	1	-1E+10	1	-1E+10	1	-1E+10	1	-1E+10	1
4902554	77	C	03/25/2023	22:01	-132.645	47.935	0	56.30	0	7.3660	0	32.3380	0	25.274	0	55.820	0	-1e10	8	-1e10	8	-1E+10	1	-1E+10	1	-1E+10	1	-1E+10	1	-1E+10	1	-1E+10	1
4902554	77	C	03/25/2023	22:01	-132.645	47.935	0	57.00	0	7.3660	0	32.3390	0	25.275	0	56.514	0	-1e10	8	-1e10	8	-1E+10	1	-1E+10	1	-1E+10	1	-1E+10	1	-1E+10	1	-1E+10	1
4902554	77	C	03/25/2023	22:01	-132.645	47.935	0	58.00	0	7.3670	0	32.3390	0	25.275	0	57.506	0	-1e10	8	-1e10	8	-1E+10	1	-1E+10	1	-1E+10	1	-1E+10	1	-1E+10	1	-1E+10	1
4902554	77	C	03/25/2023	22:01	-132.645	47.935	0	58.90	0	7.3660	0	32.3390	0	25.275	0	58.398	0	-1e10	8	-1e10	8	-1E+10	1	-1E+10	1	-1E+10	1	-1E+10	1	-1E+10	1	-1E+10	1
4902554	77	C	03/25/2023	22:01	-132.645	47.935	0	59.90	0	7.3660	0	32.3390	0	25.275	0	59.389	0	-1e10	8	-1e10	8	-1E+10	1	-1E+10	1	-1E+10	1	-1E+10	1	-1E+10	1	-1E+10	1
4902554	77	C	03/25/2023	22:01	-132.645	47.935	0	60.90	0	7.3650	0	32.3390	0	25.275	0	60.380	0	-1e10	8	-1e10	8	-1E+10	1	-1E+10	1	-1E+10	1	-1E+10	1	-1E+10	1	-1E+10	1
4902554	77	C	03/25/2023	22:01	-132.645	47.935	0	62.00	0	7.3640	0	32.3380	0	25.274	0	61.471	0	-1e10	8	-1e10	8	-1E+10	1	-1E+10	1	-1E+10	1	-1E+10	1	-1E+10	1	-1E+10	1
4902554	77	C	03/25/2023	22:01	-132.645	47.935	0	63.00	0	7.3630	0	32.3380	0	25.274	0	62.462	0	-1e10	8	-1e10	8	-1E+10	1	-1E+10	1	-1E+10	1	-1E+10	1	-1E+10	1	-1E+10	1
4902554	77	C	03/25/2023	22:01	-132.645	47.935	0	64.10	0	7.3640	0	32.3390	0	25.275	0	63.553	0	-1e10	8	-1e10	8	-1E+10	1	-1E+10	1	-1E+10	1	-1E+10	1	-1E+10	1	-1E+10	1
4902554	77	C	03/25/2023	22:01	-132.645	47.935	0	64.90	0	7.3640	0	32.3390	0	25.275	0	64.346	0	-1e10	8	-1e10	8	-1E+10	1	-1E+10	1	-1E+10	1	-1E+10	1	-1E+10	1	-1E+10	1
4902554	77	C	03/25/2023	22:01	-132.645	47.935	0	65.70	0	7.3650	0	32.3380	0	25.274	0	65.139	0	-1e10	8	-1e10	8	-1E+10	1	-1E+10	1	-1E+10	1	-1E+10	1	-1E+10	1	-1E+10	1
4902554	77	C	03/25/2023	22:01	-132.645	47.935	0	66.70	0	7.3640	0	32.3380	0	25.274	0	66.130	0	-1e10	8	-1e10	8	-1E+10	1	-1E+10	1	-1E+10	1	-1E+10	1	-1E+10	1	-1E+10	1
4902554	77	C	03/25/2023	22:01	-132.645	47.935	0	67.80	0	7.3600	0	32.3380	0	25.275	0	67.220	0	-1e10	8	-1e10	8	-1E+10	1	-1E+10	1	-1E+10	1	-1E+10	1	-1E+10	1	-1E+10	1
4902554	77	C	03/25/2023	22:01	-132.645	47.935	0	68.90	0	7.3610	0	32.3380	0	25.275	0	68.311	0	-1e10	8	-1e10	8	-1E+10	1	-1E+10	1	-1E+10	1	-1E+10	1	-1E+10	1	-1E+10	1
4902554	77	C	03/25/2023	22:01	-132.645	47.935	0	70.00	0	7.3610	0	32.3390	0	25.276	0	69.401	0	-1e10	8	-1e10	8	-1E+10	1	-1E+10	1	-1E+10	1	-1E+10	1	-1E+10	1	-1E+10	1
4902554	77	C	03/25/2023	22:01	-132.645	47.935	0	71.00	0	7.3610	0	32.3390	0	25.276	0	70.393	0	-1e10	8	-1e10	8	-1E+10	1	-1E+10	1	-1E+10	1	-1E+10	1	-1E+10	1	-1E+10	1
4902554	77	C	03/25/2023	22:01	-132.645	47.935	0	72.00	0	7.3610	0	32.3390	0	25.276	0	71.384	0	-1e10	8	-1e10	8	-1E+10	1	-1E+10	1	-1E+10	1	-1E+10	1	-1E+10	1	-1E+10	1
4902554	77	C	03/25/2023	22:01	-132.645	47.935	0	73.00	0	7.3610	0	32.3390	0	25.276	0	72.375	0	-1e10	8	-1e10	8	-1E+10	1	-1E+10	1	-1E+10	1	-1E+10	1	-1E+10	1	-1E+10	1
4902554	77	C	03/25/2023	22:01	-132.645	47.935	0	74.00	0	7.3610	0	32.3380	0	25.275	0	73.366	0	-1e10	8	-1e10	8	-1E+10	1	-1E+10	1	-1E+10	1	-1E+10	1	-1E+10	1	-1E+10	1
4902554	77	C	03/25/2023	22:01	-132.645	47.935	0	75.00	0	7.3610	0	32.3380	0	25.275	0	74.358	0	-1e10	8	-1e10	8	-1E+10	1	-1E+10	1	-1E+10	1	-1E+10	1	-1E+10	1	-1E+10	1
4902554	77	C	03/25/2023	22:01	-132.645	47.935	0	76.00	0	7.3610	0	32.3390	0	25.276	0	75.349	0	-1e10	8	-1e10	8	-1E+10	1	-1E+10	1	-1E+10	1	-1E+10	1	-1E+10	1	-1E+10	1
4902554	77	C	03/25/2023	22:01	-132.645	47.935	0	77.00	0	7.3610	0	32.3390	0	25.276	0	76.340	0	-1e10	8	-1e10	8	-1E+10	1	-1E+10	1	-1E+10	1	-1E+10	1	-1E+10	1	-1E+10	1
4902554	77	C	03/25/2023	22:01	-132.645	47.935	0	78.20	0	7.3610	0	32.3380	0	25.275	0	77.530	0	-1e10	8	-1e10	8	-1E+10	1	-1E+10	1	-1E+10	1	-1E+10	1	-1E+10	1	-1E+10	1
4902554	77	C	03/25/2023	22:01	-132.645	47.935	0	78.90	0	7.3610	0	32.3390	0	25.276	0	78.223	0	-1e10	8	-1e10	8	-1E+10	1	-1E+10	1	-1E+10	1	-1E+10	1	-1E+10	1	-1E+10	1
4902554	77	C	03/25/2023	22:01	-132.645	47.935	0	80.10	0	7.3610	0	32.3390	0	25.276	0	79.413	0	-1e10	8	-1e10	8	-1E+10	1	-1E+10	1	-1E+10	1	-1E+10	1	-1E+10	1	-1E+10	1
4902554	77	C	03/25/2023	22:01	-132.645	47.935	0	80.80	0	7.3610	0	32.3380	0	25.275	0	80.107	0	-1e10	8	-1e10	8	-1E+10	1	-1E+10	1	-1E+10	1	-1E+10	1	-1E+10	1	-1E+10	1
4902554	77	C	03/25/2023	22:01	-132.645	47.935	0	81.80	0	7.3620	0	32.3390	0	25.276	0	81.098	0	-1e10	8	-1e10	8	-1E+10	1	-1E+10	1	-1E+10	1	-1E+10	1	-1E+10	1	-1E+10	1
4902554	77	C	03/25/2023	22:01	-132.645	47.935	0	82.80	0	7.3620	0	32.3390	0	25.276	0	82.089	0	-1e10	8	-1e10	8	-1E+10	1	-1E+10	1	-1E+10	1	-1E+10	1	-1E+10	1	-1E+10	1
4902554	77	C	03/25/2023	22:01	-132.645	47.935	0	83.80	0	7.3620	0	32.3390	0	25.276	0	83.080	0	-1e10	8	-1e10	8	-1E+10	1	-1E+10	1	-1E+10	1	-1E+10	1	-1E+10	1	-1E+10	1
4902554	77	C	03/25/2023	22:01	-132.645	47.935	0	84.80	0	7.3620	0	32.3390	0	25.276	0	84.072	0	-1e10	8	-1e10	8	-1E+10	1	-1E+10	1	-1E+10	1	-1E+10	1	-1E+10	1	-1E+10	1
4902554	77	C	03/25/2023	22:01	-132.645	47.935	0	85.90	0	7.3640	0	32.3400	0	25.276	0	85.162	0	-1e10	8	-1e10	8	-1E+10	1	-1E+10	1	-1E+10	1	-1E+10	1	-1E+10	1	-1E+10	1
4902554	77	C	03/25/2023	22:01	-132.645	47.935	0	87.00	0	7.3640	0	32.3400	0	25.276	0	86.252	0	-1e10	8	-1e10	8	-1E+10	1	-1E+10	1	-1E+10	1	-1E+10	1	-1E+10	1	-1E+10	1
4902554	77	C	03/25/2023	22:01	-132.645	47.935	0	88.10	0	7.3640	0	32.3400	0	25.276	0	87.343	0	-1e10	8	-1e10	8	-1E+10	1	-1E+10	1	-1E+10	1	-1E+10	1	-1E+10	1	-1E+10	1
4902554	77	C	03/25/2023	22:01	-132.645	47.935	0	89.00	0	7.3640	0	32.3400	0	25.276	0	88.235	0	-1e10	8	-1e10	8	-1E+10	1	-1E+10	1	-1E+10	1	-1E+10	1	-1E+10	1	-1E+10	1
4902554	77	C	03/25/2023	22:01	-132.645	47.935	0	89.80	0	7.3640	0	32.3400	0	25.276	0	89.028	0	-1e10	8	-1e10	8	-1E+10	1	-1E+10	1	-1E+10	1	-1E+10	1	-1E+10	1	-1E+10	1
4902554	77	C	03/25/2023	22:01	-132.645	47.935	0	91.10	0	7.3650	0	32.3400	0	25.276	0	90.316	0	-1e10	8	-1e10	8	-1E+10	1	-1E+10	1	-1E+10	1	-1E+10	1	-1E+10	1	-1E+10	1
4902554	77	C	03/25/2023	22:01	-132.645	47.935	0	92.00	0	7.3650	0	32.3410	0	25.277	0	91.208	0	-1e10	8	-1e10	8	-1E+10	1	-1E+10	1	-1E+10	1	-1E+10	1	-1E+10	1	-1E+10	1
4902554	77	C	03/25/2023	22:01	-132.645	47.935	0	92.90	0	7.3650	0	32.3410	0	25.277	0	92.100	0	-1e10	8	-1e10	8	-1E+10	1	-1E+10	1	-1E+10	1	-1E+10	1	-1E+10	1	-1E+10	1
4902554	77	C	03/25/2023	22:01	-132.645	47.935	0	94.10	0	7.3640	0	32.3410	0	25.277	0	93.290	0	-1e10	8	-1e10	8	-1E+10	1	-1E+10	1	-1E+10	1	-1E+10	1	-1E+10	1	-1E+10	1
4902554	77	C	03/25/2023	22:01	-132.645	47.935	0	95.00	0	7.3640	0	32.3420	0	25.278	0	94.182	0	-1e10	8	-1e10	8	-1E+10	1	-1E+10	1	-1E+10	1	-1E+10	1	-1E+10	1	-1E+10	1
4902554	77	C	03/25/2023	22:01	-132.645	47.935	0	96.00	0	7.3640	0	32.3420	0	25.278	0	95.173	0	-1e10	8	-1e10	8	-1E+10	1	-1E+10	1	-1E+10	1	-1E+10	1	-1E+10	1	-1E+10	1
4902554	77	C	03/25/2023	22:01	-132.645	47.935	0	96.90	0	7.3640	0	32.3420	0	25.278	0	96.065	0	-1e10	8	-1e10	8	-1E+10	1	-1E+10	1	-1E+10	1	-1E+10	1	-1E+10	1	-1E+10	1
4902554	77	C	03/25/2023	22:01	-132.645	47.935	0	97.80	0	7.3630	0	32.3430	0	25.279	0	96.957	0	-1e10	8	-1e10	8	-1E+10	1	-1E+10	1	-1E+10	1	-1E+10	1	-1E+10	1	-1E+10	1
4902554	77	C	03/25/2023	22:01	-132.645	47.935	0	99.00	0	7.3620	0	32.3430	0	25.279	0	98.146	0	-1e10	8	-1e10	8	-1E+10	1	-1E+10	1	-1E+10	1	-1E+10	1	-1E+10	1	-1E+10	1
4902554	77	C	03/25/2023	22:01	-132.645	47.935	0	99.90	0	7.3610	0	32.3430	0	25.279	0	99.038	0	-1e10	8	-1e10	8	-1E+10	1	-1E+10	1	-1E+10	1	-1E+10	1	-1E+10	1	-1E+10	1
4902554	77	C	03/25/2023	22:01	-132.645	47.935	0	100.80	0	7.3460	0	32.3580	0	25.293	0	99.930	0	-1e10	8	-1e10	8	-1E+10	1	-1E+10	1	-1E+10	1	-1E+10	1	-1E+10	1	-1E+10	1
4902554	77	C	03/25/2023	22:01	-132.645	47.935	0	101.90	0	7.3330	0	32.3670	0	25.302	0	101.021	0	-1e10	8	-1e10	8	-1E+10	1	-1E+10	1	-1E+10	1	-1E+10	1	-1E+10	1	-1E+10	1
4902554	77	C	03/25/2023	22:01	-132.645	47.935	0	103.00	0	7.3170	0	32.3810	0	25.315	0	102.111	0	-1e10	8	-1e10	8	-1E+10	1	-1E+10	1	-1E+10	1	-1E+10	1	-1E+10	1	-1E+10	1
4902554	77	C	03/25/2023	22:01	-132.645	47.935	0	104.10	0	7.2930	0	32.4010	0	25.334	0	103.201	0	-1e10	8	-1e10	8	-1E+10	1	-1E+10	1	-1E+10	1	-1E+10	1	-1E+10	1	-1E+10	1
4902554	77	C	03/25/2023	22:01	-132.645	47.935	0	105.10	0	7.2780	0	32.4130	0	25.345	0	104.192	0	-1e10	8	-1e10	8	-1E+10	1	-1E+10	1	-1E+10	1	-1E+10	1	-1E+10	1	-1E+10	1
4902554	77	C	03/25/2023	22:01	-132.645	47.935	0	106.10	0	7.2550	0	32.4340	0	25.365	0	105.183	0	-1e10	8	-1e10	8	-1E+10	1	-1E+10	1	-1E+10	1	-1E+10	1	-1E+10	1	-1E+10	1
4902554	77	C	03/25/2023	22:01	-132.645	47.935	0	107.00	0	7.2250	0	32.4600	0	25.390	0	106.075	0	-1e10	8	-1e10	8	-1E+10	1	-1E+10	1	-1E+10	1	-1E+10	1	-1E+10	1	-1E+10	1
4902554	77	C	03/25/2023	22:01	-132.645	47.935	0	108.10	0	7.1840	0	32.5010	0	25.427	0	107.165	0	-1e10	8	-1e10	8	-1E+10	1	-1E+10	1	-1E+10	1	-1E+10	1	-1E+10	1	-1E+10	1
4902554	77	C	03/25/2023	22:01	-132.645	47.935	0	109.10	0	7.1570	0	32.5160	0	25.443	0	108.157	0	-1e10	8	-1e10	8	-1E+10	1	-1E+10	1	-1E+10	1	-1E+10	1	-1E+10	1	-1E+10	1
4902554	77	C	03/25/2023	22:01	-132.645	47.935	0	109.90	0	7.1340	0	32.5290	0	25.456	0	108.949	0	-1e10	8	-1e10	8	-1E+10	1	-1E+10	1	-1E+10	1	-1E+10	1	-1E+10	1	-1E+10	1
4902554	77	C	03/25/2023	22:01	-132.645	47.935	0	111.00	0	7.0770	0	32.5800	0	25.504	0	110.040	0	-1e10	8	-1e10	8	-1E+10	1	-1E+10	1	-1E+10	1	-1E+10	1	-1E+10	1	-1E+10	1
4902554	77	C	03/25/2023	22:01	-132.645	47.935	0	111.90	0	7.0300	0	32.6320	0	25.551	0	110.932	0	-1e10	8	-1e10	8	-1E+10	1	-1E+10	1	-1E+10	1	-1E+10	1	-1E+10	1	-1E+10	1
4902554	77	C	03/25/2023	22:01	-132.645	47.935	0	113.10	0	7.0010	0	32.6610	0	25.578	0	112.121	0	-1e10	8	-1e10	8	-1E+10	1	-1E+10	1	-1E+10	1	-1E+10	1	-1E+10	1	-1E+10	1
4902554	77	C	03/25/2023	22:01	-132.645	47.935	0	113.80	0	6.9010	0	32.7510	0	25.662	0	112.815	0	-1e10	8	-1e10	8	-1E+10	1	-1E+10	1	-1E+10	1	-1E+10	1	-1E+10	1	-1E+10	1
4902554	77	C	03/25/2023	22:01	-132.645	47.935	0	114.90	0	6.8580	0	32.7910	0	25.699	0	113.905	0	-1e10	8	-1e10	8	-1E+10	1	-1E+10	1	-1E+10	1	-1E+10	1	-1E+10	1	-1E+10	1
4902554	77	C	03/25/2023	22:01	-132.645	47.935	0	116.10	0	6.8070	0	32.8290	0	25.736	0	115.094	0	-1e10	8	-1e10	8	-1E+10	1	-1E+10	1	-1E+10	1	-1E+10	1	-1E+10	1	-1E+10	1
4902554	77	C	03/25/2023	22:01	-132.645	47.935	0	116.80	0	6.6640	0	32.9320	0	25.836	0	115.788	0	-1e10	8	-1e10	8	-1E+10	1	-1E+10	1	-1E+10	1	-1E+10	1	-1E+10	1	-1E+10	1
4902554	77	C	03/25/2023	22:01	-132.645	47.935	0	117.90	0	6.5770	0	32.9980	0	25.899	0	116.878	0	-1e10	8	-1e10	8	-1E+10	1	-1E+10	1	-1E+10	1	-1E+10	1	-1E+10	1	-1E+10	1
4902554	77	C	03/25/2023	22:01	-132.645	47.935	0	119.10	0	6.5500	0	33.0190	0	25.919	0	118.067	0	-1e10	8	-1e10	8	-1E+10	1	-1E+10	1	-1E+10	1	-1E+10	1	-1E+10	1	-1E+10	1
4902554	77	C	03/25/2023	22:01	-132.645	47.935	0	120.00	0	6.5310	0	33.0340	0	25.934	0	118.959	0	-1e10	8	-1e10	8	-1E+10	1	-1E+10	1	-1E+10	1	-1E+10	1	-1E+10	1	-1E+10	1
4902554	77	C	03/25/2023	22:01	-132.645	47.935	0	120.90	0	6.5140	0	33.0460	0	25.945	0	119.851	0	-1e10	8	-1e10	8	-1E+10	1	-1E+10	1	-1E+10	1	-1E+10	1	-1E+10	1	-1E+10	1
4902554	77	C	03/25/2023	22:01	-132.645	47.935	0	122.00	0	6.4830	0	33.0760	0	25.973	0	120.941	0	-1e10	8	-1e10	8	-1E+10	1	-1E+10	1	-1E+10	1	-1E+10	1	-1E+10	1	-1E+10	1
4902554	77	C	03/25/2023	22:01	-132.645	47.935	0	123.00	0	6.4560	0	33.1030	0	25.998	0	121.932	0	-1e10	8	-1e10	8	-1E+10	1	-1E+10	1	-1E+10	1	-1E+10	1	-1E+10	1	-1E+10	1
4902554	77	C	03/25/2023	22:01	-132.645	47.935	0	124.10	0	6.4440	0	33.1120	0	26.007	0	123.022	0	-1e10	8	-1e10	8	-1E+10	1	-1E+10	1	-1E+10	1	-1E+10	1	-1E+10	1	-1E+10	1
4902554	77	C	03/25/2023	22:01	-132.645	47.935	0	124.80	0	6.4120	0	33.1500	0	26.041	0	123.716	0	-1e10	8	-1e10	8	-1E+10	1	-1E+10	1	-1E+10	1	-1E+10	1	-1E+10	1	-1E+10	1
4902554	77	C	03/25/2023	22:01	-132.645	47.935	0	125.90	0	6.3980	0	33.1660	0	26.055	0	124.806	0	-1e10	8	-1e10	8	-1E+10	1	-1E+10	1	-1E+10	1	-1E+10	1	-1E+10	1	-1E+10	1
4902554	77	C	03/25/2023	22:01	-132.645	47.935	0	127.10	0	6.3640	0	33.2110	0	26.095	0	125.995	0	-1e10	8	-1e10	8	-1E+10	1	-1E+10	1	-1E+10	1	-1E+10	1	-1E+10	1	-1E+10	1
4902554	77	C	03/25/2023	22:01	-132.645	47.935	0	127.80	0	6.3320	0	33.2630	0	26.140	0	126.689	0	-1e10	8	-1e10	8	-1E+10	1	-1E+10	1	-1E+10	1	-1E+10	1	-1E+10	1	-1E+10	1
4902554	77	C	03/25/2023	22:01	-132.645	47.935	0	128.70	0	6.3260	0	33.2700	0	26.146	0	127.581	0	-1e10	8	-1e10	8	-1E+10	1	-1E+10	1	-1E+10	1	-1E+10	1	-1E+10	1	-1E+10	1
4902554	77	C	03/25/2023	22:01	-132.645	47.935	0	129.90	0	6.2940	0	33.3130	0	26.184	0	128.770	0	-1e10	8	-1e10	8	-1E+10	1	-1E+10	1	-1E+10	1	-1E+10	1	-1E+10	1	-1E+10	1
4902554	77	C	03/25/2023	22:01	-132.645	47.935	0	131.30	0	6.2640	0	33.3570	0	26.223	0	130.158	0	-1e10	8	-1e10	8	-1E+10	1	-1E+10	1	-1E+10	1	-1E+10	1	-1E+10	1	-1E+10	1
4902554	77	C	03/25/2023	22:01	-132.645	47.935	0	132.20	0	6.2620	0	33.3590	0	26.225	0	131.049	0	-1e10	8	-1e10	8	-1E+10	1	-1E+10	1	-1E+10	1	-1E+10	1	-1E+10	1	-1E+10	1
4902554	77	C	03/25/2023	22:01	-132.645	47.935	0	133.10	0	6.2480	0	33.3760	0	26.240	0	131.941	0	-1e10	8	-1e10	8	-1E+10	1	-1E+10	1	-1E+10	1	-1E+10	1	-1E+10	1	-1E+10	1
4902554	77	C	03/25/2023	22:01	-132.645	47.935	0	134.10	0	6.2190	0	33.4120	0	26.272	0	132.932	0	-1e10	8	-1e10	8	-1E+10	1	-1E+10	1	-1E+10	1	-1E+10	1	-1E+10	1	-1E+10	1
4902554	77	C	03/25/2023	22:01	-132.645	47.935	0	135.00	0	6.2070	0	33.4260	0	26.285	0	133.824	0	-1e10	8	-1e10	8	-1E+10	1	-1E+10	1	-1E+10	1	-1E+10	1	-1E+10	1	-1E+10	1
4902554	77	C	03/25/2023	22:01	-132.645	47.935	0	136.00	0	6.2030	0	33.4300	0	26.288	0	134.815	0	-1e10	8	-1e10	8	-1E+10	1	-1E+10	1	-1E+10	1	-1E+10	1	-1E+10	1	-1E+10	1
4902554	77	C	03/25/2023	22:01	-132.645	47.935	0	137.00	0	6.2010	0	33.4330	0	26.291	0	135.806	0	-1e10	8	-1e10	8	-1E+10	1	-1E+10	1	-1E+10	1	-1E+10	1	-1E+10	1	-1E+10	1
4902554	77	C	03/25/2023	22:01	-132.645	47.935	0	137.90	0	6.2000	0	33.4360	0	26.293	0	136.698	0	-1e10	8	-1e10	8	-1E+10	1	-1E+10	1	-1E+10	1	-1E+10	1	-1E+10	1	-1E+10	1
4902554	77	C	03/25/2023	22:01	-132.645	47.935	0	138.90	0	6.1980	0	33.4390	0	26.296	0	137.689	0	-1e10	8	-1e10	8	-1E+10	1	-1E+10	1	-1E+10	1	-1E+10	1	-1E+10	1	-1E+10	1
4902554	77	C	03/25/2023	22:01	-132.645	47.935	0	139.80	0	6.1920	0	33.4460	0	26.302	0	138.581	0	-1e10	8	-1e10	8	-1E+10	1	-1E+10	1	-1E+10	1	-1E+10	1	-1E+10	1	-1E+10	1
4902554	77	C	03/25/2023	22:01	-132.645	47.935	0	140.80	0	6.1870	0	33.4530	0	26.309	0	139.572	0	-1e10	8	-1e10	8	-1E+10	1	-1E+10	1	-1E+10	1	-1E+10	1	-1E+10	1	-1E+10	1
4902554	77	C	03/25/2023	22:01	-132.645	47.935	0	141.80	0	6.1850	0	33.4550	0	26.310	0	140.563	0	-1e10	8	-1e10	8	-1E+10	1	-1E+10	1	-1E+10	1	-1E+10	1	-1E+10	1	-1E+10	1
4902554	77	C	03/25/2023	22:01	-132.645	47.935	0	142.80	0	6.1830	0	33.4570	0	26.312	0	141.554	0	-1e10	8	-1e10	8	-1E+10	1	-1E+10	1	-1E+10	1	-1E+10	1	-1E+10	1	-1E+10	1
4902554	77	C	03/25/2023	22:01	-132.645	47.935	0	143.80	0	6.1750	0	33.4650	0	26.320	0	142.544	0	-1e10	8	-1e10	8	-1E+10	1	-1E+10	1	-1E+10	1	-1E+10	1	-1E+10	1	-1E+10	1
4902554	77	C	03/25/2023	22:01	-132.645	47.935	0	144.80	0	6.1720	0	33.4680	0	26.322	0	143.535	0	-1e10	8	-1e10	8	-1E+10	1	-1E+10	1	-1E+10	1	-1E+10	1	-1E+10	1	-1E+10	1
4902554	77	C	03/25/2023	22:01	-132.645	47.935	0	145.80	0	6.1570	0	33.4850	0	26.338	0	144.526	0	-1e10	8	-1e10	8	-1E+10	1	-1E+10	1	-1E+10	1	-1E+10	1	-1E+10	1	-1E+10	1
4902554	77	C	03/25/2023	22:01	-132.645	47.935	0	146.80	0	6.1500	0	33.4930	0	26.345	0	145.517	0	-1e10	8	-1e10	8	-1E+10	1	-1E+10	1	-1E+10	1	-1E+10	1	-1E+10	1	-1E+10	1
4902554	77	C	03/25/2023	22:01	-132.645	47.935	0	147.80	0	6.1440	0	33.4980	0	26.350	0	146.508	0	-1e10	8	-1e10	8	-1E+10	1	-1E+10	1	-1E+10	1	-1E+10	1	-1E+10	1	-1E+10	1
4902554	77	C	03/25/2023	22:01	-132.645	47.935	0	148.80	0	6.1380	0	33.5050	0	26.356	0	147.499	0	-1e10	8	-1e10	8	-1E+10	1	-1E+10	1	-1E+10	1	-1E+10	1	-1E+10	1	-1E+10	1
4902554	77	C	03/25/2023	22:01	-132.645	47.935	0	149.80	0	6.1330	0	33.5120	0	26.362	0	148.490	0	-1e10	8	-1e10	8	-1E+10	1	-1E+10	1	-1E+10	1	-1E+10	1	-1E+10	1	-1E+10	1
4902554	77	C	03/25/2023	22:01	-132.645	47.935	0	150.90	0	6.1210	0	33.5350	0	26.382	0	149.580	0	-1e10	8	-1e10	8	-1E+10	1	-1E+10	1	-1E+10	1	-1E+10	1	-1E+10	1	-1E+10	1
4902554	77	C	03/25/2023	22:01	-132.645	47.935	0	151.90	0	6.1150	0	33.5370	0	26.384	0	150.571	0	-1e10	8	-1e10	8	-1E+10	1	-1E+10	1	-1E+10	1	-1E+10	1	-1E+10	1	-1E+10	1
4902554	77	C	03/25/2023	22:01	-132.645	47.935	0	152.90	0	6.1130	0	33.5380	0	26.385	0	151.562	0	-1e10	8	-1e10	8	-1E+10	1	-1E+10	1	-1E+10	1	-1E+10	1	-1E+10	1	-1E+10	1
4902554	77	C	03/25/2023	22:01	-132.645	47.935	0	154.00	0	6.1070	0	33.5440	0	26.391	0	152.652	0	-1e10	8	-1e10	8	-1E+10	1	-1E+10	1	-1E+10	1	-1E+10	1	-1E+10	1	-1E+10	1
4902554	77	C	03/25/2023	22:01	-132.645	47.935	0	155.00	0	6.1020	0	33.5510	0	26.397	0	153.643	0	-1e10	8	-1e10	8	-1E+10	1	-1E+10	1	-1E+10	1	-1E+10	1	-1E+10	1	-1E+10	1
4902554	77	C	03/25/2023	22:01	-132.645	47.935	0	156.10	0	6.1010	0	33.5530	0	26.398	0	154.733	0	-1e10	8	-1e10	8	-1E+10	1	-1E+10	1	-1E+10	1	-1E+10	1	-1E+10	1	-1E+10	1
4902554	77	C	03/25/2023	22:01	-132.645	47.935	0	157.10	0	6.0930	0	33.5610	0	26.406	0	155.723	0	-1e10	8	-1e10	8	-1E+10	1	-1E+10	1	-1E+10	1	-1E+10	1	-1E+10	1	-1E+10	1
4902554	77	C	03/25/2023	22:01	-132.645	47.935	0	158.20	0	6.0910	0	33.5680	0	26.412	0	156.813	0	-1e10	8	-1e10	8	-1E+10	1	-1E+10	1	-1E+10	1	-1E+10	1	-1E+10	1	-1E+10	1
4902554	77	C	03/25/2023	22:01	-132.645	47.935	0	159.20	0	6.0880	0	33.5710	0	26.414	0	157.804	0	-1e10	8	-1e10	8	-1E+10	1	-1E+10	1	-1E+10	1	-1E+10	1	-1E+10	1	-1E+10	1
4902554	77	C	03/25/2023	22:01	-132.645	47.935	0	160.20	0	6.0800	0	33.5830	0	26.425	0	158.795	0	-1e10	8	-1e10	8	-1E+10	1	-1E+10	1	-1E+10	1	-1E+10	1	-1E+10	1	-1E+10	1
4902554	77	C	03/25/2023	22:01	-132.645	47.935	0	161.20	0	6.0700	0	33.5950	0	26.436	0	159.786	0	-1e10	8	-1e10	8	-1E+10	1	-1E+10	1	-1E+10	1	-1E+10	1	-1E+10	1	-1E+10	1
4902554	77	C	03/25/2023	22:01	-132.645	47.935	0	162.30	0	6.0680	0	33.5960	0	26.437	0	160.876	0	-1e10	8	-1e10	8	-1E+10	1	-1E+10	1	-1E+10	1	-1E+10	1	-1E+10	1	-1E+10	1
4902554	77	C	03/25/2023	22:01	-132.645	47.935	0	163.30	0	6.0670	0	33.5970	0	26.438	0	161.867	0	-1e10	8	-1e10	8	-1E+10	1	-1E+10	1	-1E+10	1	-1E+10	1	-1E+10	1	-1E+10	1
4902554	77	C	03/25/2023	22:01	-132.645	47.935	0	164.30	0	6.0670	0	33.5970	0	26.438	0	162.857	0	-1e10	8	-1e10	8	-1E+10	1	-1E+10	1	-1E+10	1	-1E+10	1	-1E+10	1	-1E+10	1
4902554	77	C	03/25/2023	22:01	-132.645	47.935	0	165.30	0	6.0620	0	33.6010	0	26.441	0	163.848	0	-1e10	8	-1e10	8	-1E+10	1	-1E+10	1	-1E+10	1	-1E+10	1	-1E+10	1	-1E+10	1
4902554	77	C	03/25/2023	22:01	-132.645	47.935	0	166.30	0	6.0310	0	33.6290	0	26.467	0	164.839	0	-1e10	8	-1e10	8	-1E+10	1	-1E+10	1	-1E+10	1	-1E+10	1	-1E+10	1	-1E+10	1
4902554	77	C	03/25/2023	22:01	-132.645	47.935	0	167.40	0	6.0270	0	33.6320	0	26.470	0	165.929	0	-1e10	8	-1e10	8	-1E+10	1	-1E+10	1	-1E+10	1	-1E+10	1	-1E+10	1	-1E+10	1
4902554	77	C	03/25/2023	22:01	-132.645	47.935	0	168.40	0	6.0120	0	33.6430	0	26.481	0	166.920	0	-1e10	8	-1e10	8	-1E+10	1	-1E+10	1	-1E+10	1	-1E+10	1	-1E+10	1	-1E+10	1
4902554	77	C	03/25/2023	22:01	-132.645	47.935	0	169.40	0	6.0070	0	33.6460	0	26.484	0	167.911	0	-1e10	8	-1e10	8	-1E+10	1	-1E+10	1	-1E+10	1	-1E+10	1	-1E+10	1	-1E+10	1
4902554	77	C	03/25/2023	22:01	-132.645	47.935	0	170.50	0	5.9920	0	33.6550	0	26.493	0	169.000	0	-1e10	8	-1e10	8	-1E+10	1	-1E+10	1	-1E+10	1	-1E+10	1	-1E+10	1	-1E+10	1
4902554	77	C	03/25/2023	22:01	-132.645	47.935	0	171.50	0	5.9840	0	33.6600	0	26.498	0	169.991	0	-1e10	8	-1e10	8	-1E+10	1	-1E+10	1	-1E+10	1	-1E+10	1	-1E+10	1	-1E+10	1
4902554	77	C	03/25/2023	22:01	-132.645	47.935	0	172.50	0	5.9800	0	33.6660	0	26.503	0	170.982	0	-1e10	8	-1e10	8	-1E+10	1	-1E+10	1	-1E+10	1	-1E+10	1	-1E+10	1	-1E+10	1
4902554	77	C	03/25/2023	22:01	-132.645	47.935	0	173.50	0	5.9590	0	33.6760	0	26.514	0	171.973	0	-1e10	8	-1e10	8	-1E+10	1	-1E+10	1	-1E+10	1	-1E+10	1	-1E+10	1	-1E+10	1
4902554	77	C	03/25/2023	22:01	-132.645	47.935	0	174.60	0	5.9490	0	33.6800	0	26.518	0	173.063	0	-1e10	8	-1e10	8	-1E+10	1	-1E+10	1	-1E+10	1	-1E+10	1	-1E+10	1	-1E+10	1
4902554	77	C	03/25/2023	22:01	-132.645	47.935	0	175.60	0	5.9300	0	33.6860	0	26.525	0	174.053	0	-1e10	8	-1e10	8	-1E+10	1	-1E+10	1	-1E+10	1	-1E+10	1	-1E+10	1	-1E+10	1
4902554	77	C	03/25/2023	22:01	-132.645	47.935	0	176.60	0	5.9210	0	33.6900	0	26.529	0	175.044	0	-1e10	8	-1e10	8	-1E+10	1	-1E+10	1	-1E+10	1	-1E+10	1	-1E+10	1	-1E+10	1
4902554	77	C	03/25/2023	22:01	-132.645	47.935	0	177.60	0	5.9060	0	33.6960	0	26.536	0	176.035	0	-1e10	8	-1e10	8	-1E+10	1	-1E+10	1	-1E+10	1	-1E+10	1	-1E+10	1	-1E+10	1
4902554	77	C	03/25/2023	22:01	-132.645	47.935	0	178.60	0	5.9010	0	33.6960	0	26.537	0	177.026	0	-1e10	8	-1e10	8	-1E+10	1	-1E+10	1	-1E+10	1	-1E+10	1	-1E+10	1	-1E+10	1
4902554	77	C	03/25/2023	22:01	-132.645	47.935	0	179.60	0	5.8980	0	33.6970	0	26.538	0	178.017	0	-1e10	8	-1e10	8	-1E+10	1	-1E+10	1	-1E+10	1	-1E+10	1	-1E+10	1	-1E+10	1
4902554	77	C	03/25/2023	22:01	-132.645	47.935	0	180.70	0	5.8960	0	33.6970	0	26.538	0	179.106	0	-1e10	8	-1e10	8	-1E+10	1	-1E+10	1	-1E+10	1	-1E+10	1	-1E+10	1	-1E+10	1
4902554	77	C	03/25/2023	22:01	-132.645	47.935	0	181.70	0	5.8940	0	33.6980	0	26.539	0	180.097	0	-1e10	8	-1e10	8	-1E+10	1	-1E+10	1	-1E+10	1	-1E+10	1	-1E+10	1	-1E+10	1
4902554	77	C	03/25/2023	22:01	-132.645	47.935	0	182.70	0	5.8930	0	33.6980	0	26.539	0	181.088	0	-1e10	8	-1e10	8	-1E+10	1	-1E+10	1	-1E+10	1	-1E+10	1	-1E+10	1	-1E+10	1
4902554	77	C	03/25/2023	22:01	-132.645	47.935	0	183.60	0	5.8880	0	33.6990	0	26.541	0	181.979	0	-1e10	8	-1e10	8	-1E+10	1	-1E+10	1	-1E+10	1	-1E+10	1	-1E+10	1	-1E+10	1
4902554	77	C	03/25/2023	22:01	-132.645	47.935	0	184.60	0	5.8770	0	33.7010	0	26.544	0	182.970	0	-1e10	8	-1e10	8	-1E+10	1	-1E+10	1	-1E+10	1	-1E+10	1	-1E+10	1	-1E+10	1
4902554	77	C	03/25/2023	22:01	-132.645	47.935	0	185.60	0	5.8730	0	33.7020	0	26.545	0	183.961	0	-1e10	8	-1e10	8	-1E+10	1	-1E+10	1	-1E+10	1	-1E+10	1	-1E+10	1	-1E+10	1
4902554	77	C	03/25/2023	22:01	-132.645	47.935	0	186.60	0	5.8570	0	33.7070	0	26.551	0	184.952	0	-1e10	8	-1e10	8	-1E+10	1	-1E+10	1	-1E+10	1	-1E+10	1	-1E+10	1	-1E+10	1
4902554	77	C	03/25/2023	22:01	-132.645	47.935	0	187.60	0	5.8350	0	33.7100	0	26.556	0	185.942	0	-1e10	8	-1e10	8	-1E+10	1	-1E+10	1	-1E+10	1	-1E+10	1	-1E+10	1	-1E+10	1
4902554	77	C	03/25/2023	22:01	-132.645	47.935	0	188.60	0	5.8300	0	33.7110	0	26.557	0	186.933	0	-1e10	8	-1e10	8	-1E+10	1	-1E+10	1	-1E+10	1	-1E+10	1	-1E+10	1	-1E+10	1
4902554	77	C	03/25/2023	22:01	-132.645	47.935	0	189.60	0	5.8240	0	33.7110	0	26.558	0	187.924	0	-1e10	8	-1e10	8	-1E+10	1	-1E+10	1	-1E+10	1	-1E+10	1	-1E+10	1	-1E+10	1
4902554	77	C	03/25/2023	22:01	-132.645	47.935	0	190.60	0	5.8180	0	33.7120	0	26.560	0	188.915	0	-1e10	8	-1e10	8	-1E+10	1	-1E+10	1	-1E+10	1	-1E+10	1	-1E+10	1	-1E+10	1
4902554	77	C	03/25/2023	22:01	-132.645	47.935	0	191.60	0	5.8150	0	33.7120	0	26.560	0	189.905	0	-1e10	8	-1e10	8	-1E+10	1	-1E+10	1	-1E+10	1	-1E+10	1	-1E+10	1	-1E+10	1
4902554	77	C	03/25/2023	22:01	-132.645	47.935	0	192.60	0	5.8030	0	33.7120	0	26.561	0	190.896	0	-1e10	8	-1e10	8	-1E+10	1	-1E+10	1	-1E+10	1	-1E+10	1	-1E+10	1	-1E+10	1
4902554	77	C	03/25/2023	22:01	-132.645	47.935	0	193.70	0	5.7330	0	33.7310	0	26.585	0	191.986	0	-1e10	8	-1e10	8	-1E+10	1	-1E+10	1	-1E+10	1	-1E+10	1	-1E+10	1	-1E+10	1
4902554	77	C	03/25/2023	22:01	-132.645	47.935	0	194.70	0	5.6370	0	33.7340	0	26.599	0	192.976	0	-1e10	8	-1e10	8	-1E+10	1	-1E+10	1	-1E+10	1	-1E+10	1	-1E+10	1	-1E+10	1
4902554	77	C	03/25/2023	22:01	-132.645	47.935	0	195.70	0	5.6270	0	33.7350	0	26.601	0	193.967	0	-1e10	8	-1e10	8	-1E+10	1	-1E+10	1	-1E+10	1	-1E+10	1	-1E+10	1	-1E+10	1
4902554	77	C	03/25/2023	22:01	-132.645	47.935	0	196.70	0	5.6150	0	33.7360	0	26.603	0	194.958	0	-1e10	8	-1e10	8	-1E+10	1	-1E+10	1	-1E+10	1	-1E+10	1	-1E+10	1	-1E+10	1
4902554	77	C	03/25/2023	22:01	-132.645	47.935	0	197.80	0	5.6070	0	33.7370	0	26.605	0	196.047	0	-1e10	8	-1e10	8	-1E+10	1	-1E+10	1	-1E+10	1	-1E+10	1	-1E+10	1	-1E+10	1
4902554	77	C	03/25/2023	22:01	-132.645	47.935	0	198.80	0	5.5990	0	33.7370	0	26.606	0	197.038	0	-1e10	8	-1e10	8	-1E+10	1	-1E+10	1	-1E+10	1	-1E+10	1	-1E+10	1	-1E+10	1
4902554	77	C	03/25/2023	22:01	-132.645	47.935	0	199.80	0	5.5960	0	33.7380	0	26.607	0	198.029	0	-1e10	8	-1e10	8	-1E+10	1	-1E+10	1	-1E+10	1	-1E+10	1	-1E+10	1	-1E+10	1
4902554	77	C	03/25/2023	22:01	-132.645	47.935	0	200.80	0	5.5830	0	33.7400	0	26.610	0	199.019	0	-1e10	8	-1e10	8	-1E+10	1	-1E+10	1	-1E+10	1	-1E+10	1	-1E+10	1	-1E+10	1
4902554	77	C	03/25/2023	22:01	-132.645	47.935	0	201.80	0	5.5640	0	33.7400	0	26.613	0	200.010	0	-1e10	8	-1e10	8	-1E+10	1	-1E+10	1	-1E+10	1	-1E+10	1	-1E+10	1	-1E+10	1
4902554	77	C	03/25/2023	22:01	-132.645	47.935	0	202.90	0	5.5580	0	33.7400	0	26.613	0	201.100	0	-1e10	8	-1e10	8	-1E+10	1	-1E+10	1	-1E+10	1	-1E+10	1	-1E+10	1	-1E+10	1
4902554	77	C	03/25/2023	22:01	-132.645	47.935	0	203.90	0	5.5530	0	33.7410	0	26.615	0	202.090	0	-1e10	8	-1e10	8	-1E+10	1	-1E+10	1	-1E+10	1	-1E+10	1	-1E+10	1	-1E+10	1
4902554	77	C	03/25/2023	22:01	-132.645	47.935	0	204.90	0	5.5510	0	33.7400	0	26.614	0	203.081	0	-1e10	8	-1e10	8	-1E+10	1	-1E+10	1	-1E+10	1	-1E+10	1	-1E+10	1	-1E+10	1
4902554	77	C	03/25/2023	22:01	-132.645	47.935	0	205.90	0	5.5480	0	33.7400	0	26.615	0	204.072	0	-1e10	8	-1e10	8	-1E+10	1	-1E+10	1	-1E+10	1	-1E+10	1	-1E+10	1	-1E+10	1
4902554	77	C	03/25/2023	22:01	-132.645	47.935	0	206.90	0	5.5380	0	33.7430	0	26.618	0	205.062	0	-1e10	8	-1e10	8	-1E+10	1	-1E+10	1	-1E+10	1	-1E+10	1	-1E+10	1	-1E+10	1
4902554	77	C	03/25/2023	22:01	-132.645	47.935	0	207.80	0	5.5070	0	33.7440	0	26.623	0	205.954	0	-1e10	8	-1e10	8	-1E+10	1	-1E+10	1	-1E+10	1	-1E+10	1	-1E+10	1	-1E+10	1
4902554	77	C	03/25/2023	22:01	-132.645	47.935	0	208.80	0	5.4860	0	33.7450	0	26.626	0	206.944	0	-1e10	8	-1e10	8	-1E+10	1	-1E+10	1	-1E+10	1	-1E+10	1	-1E+10	1	-1E+10	1
4902554	77	C	03/25/2023	22:01	-132.645	47.935	0	209.90	0	5.4430	0	33.7490	0	26.634	0	208.034	0	-1e10	8	-1e10	8	-1E+10	1	-1E+10	1	-1E+10	1	-1E+10	1	-1E+10	1	-1E+10	1
4902554	77	C	03/25/2023	22:01	-132.645	47.935	0	211.10	0	5.4270	0	33.7490	0	26.636	0	209.223	0	-1e10	8	-1e10	8	-1E+10	1	-1E+10	1	-1E+10	1	-1E+10	1	-1E+10	1	-1E+10	1
4902554	77	C	03/25/2023	22:01	-132.645	47.935	0	211.80	0	5.4240	0	33.7480	0	26.636	0	209.916	0	-1e10	8	-1e10	8	-1E+10	1	-1E+10	1	-1E+10	1	-1E+10	1	-1E+10	1	-1E+10	1
4902554	77	C	03/25/2023	22:01	-132.645	47.935	0	212.90	0	5.4100	0	33.7490	0	26.638	0	211.006	0	-1e10	8	-1e10	8	-1E+10	1	-1E+10	1	-1E+10	1	-1E+10	1	-1E+10	1	-1E+10	1
4902554	77	C	03/25/2023	22:01	-132.645	47.935	0	214.10	0	5.3870	0	33.7510	0	26.642	0	212.195	0	-1e10	8	-1e10	8	-1E+10	1	-1E+10	1	-1E+10	1	-1E+10	1	-1E+10	1	-1E+10	1
4902554	77	C	03/25/2023	22:01	-132.645	47.935	0	214.80	0	5.3730	0	33.7510	0	26.644	0	212.888	0	-1e10	8	-1e10	8	-1E+10	1	-1E+10	1	-1E+10	1	-1E+10	1	-1E+10	1	-1E+10	1
4902554	77	C	03/25/2023	22:01	-132.645	47.935	0	216.00	0	5.3480	0	33.7530	0	26.649	0	214.077	0	-1e10	8	-1e10	8	-1E+10	1	-1E+10	1	-1E+10	1	-1E+10	1	-1E+10	1	-1E+10	1
4902554	77	C	03/25/2023	22:01	-132.645	47.935	0	217.10	0	5.3380	0	33.7540	0	26.651	0	215.166	0	-1e10	8	-1e10	8	-1E+10	1	-1E+10	1	-1E+10	1	-1E+10	1	-1E+10	1	-1E+10	1
4902554	77	C	03/25/2023	22:01	-132.645	47.935	0	217.90	0	5.3330	0	33.7540	0	26.651	0	215.959	0	-1e10	8	-1e10	8	-1E+10	1	-1E+10	1	-1E+10	1	-1E+10	1	-1E+10	1	-1E+10	1
4902554	77	C	03/25/2023	22:01	-132.645	47.935	0	218.70	0	5.3290	0	33.7530	0	26.651	0	216.751	0	-1e10	8	-1e10	8	-1E+10	1	-1E+10	1	-1E+10	1	-1E+10	1	-1E+10	1	-1E+10	1
4902554	77	C	03/25/2023	22:01	-132.645	47.935	0	219.90	0	5.3020	0	33.7550	0	26.656	0	217.940	0	-1e10	8	-1e10	8	-1E+10	1	-1E+10	1	-1E+10	1	-1E+10	1	-1E+10	1	-1E+10	1
4902554	77	C	03/25/2023	22:01	-132.645	47.935	0	221.10	0	5.2830	0	33.7550	0	26.658	0	219.129	0	-1e10	8	-1e10	8	-1E+10	1	-1E+10	1	-1E+10	1	-1E+10	1	-1E+10	1	-1E+10	1
4902554	77	C	03/25/2023	22:01	-132.645	47.935	0	221.90	0	5.2560	0	33.7580	0	26.663	0	219.921	0	-1e10	8	-1e10	8	-1E+10	1	-1E+10	1	-1E+10	1	-1E+10	1	-1E+10	1	-1E+10	1
4902554	77	C	03/25/2023	22:01	-132.645	47.935	0	222.60	0	5.2410	0	33.7590	0	26.666	0	220.614	0	-1e10	8	-1e10	8	-1E+10	1	-1E+10	1	-1E+10	1	-1E+10	1	-1E+10	1	-1E+10	1
4902554	77	C	03/25/2023	22:01	-132.645	47.935	0	223.90	0	5.2170	0	33.7600	0	26.669	0	221.902	0	-1e10	8	-1e10	8	-1E+10	1	-1E+10	1	-1E+10	1	-1E+10	1	-1E+10	1	-1E+10	1
4902554	77	C	03/25/2023	22:01	-132.645	47.935	0	225.10	0	5.2090	0	33.7610	0	26.671	0	223.091	0	-1e10	8	-1e10	8	-1E+10	1	-1E+10	1	-1E+10	1	-1E+10	1	-1E+10	1	-1E+10	1
4902554	77	C	03/25/2023	22:01	-132.645	47.935	0	225.90	0	5.1990	0	33.7620	0	26.673	0	223.883	0	-1e10	8	-1e10	8	-1E+10	1	-1E+10	1	-1E+10	1	-1E+10	1	-1E+10	1	-1E+10	1
4902554	77	C	03/25/2023	22:01	-132.645	47.935	0	226.70	0	5.1890	0	33.7640	0	26.676	0	224.676	0	-1e10	8	-1e10	8	-1E+10	1	-1E+10	1	-1E+10	1	-1E+10	1	-1E+10	1	-1E+10	1
4902554	77	C	03/25/2023	22:01	-132.645	47.935	0	228.00	0	5.1770	0	33.7630	0	26.676	0	225.963	0	-1e10	8	-1e10	8	-1E+10	1	-1E+10	1	-1E+10	1	-1E+10	1	-1E+10	1	-1E+10	1
4902554	77	C	03/25/2023	22:01	-132.645	47.935	0	229.30	0	5.1630	0	33.7630	0	26.678	0	227.251	0	-1e10	8	-1e10	8	-1E+10	1	-1E+10	1	-1E+10	1	-1E+10	1	-1E+10	1	-1E+10	1
4902554	77	C	03/25/2023	22:01	-132.645	47.935	0	230.10	0	5.1550	0	33.7640	0	26.680	0	228.043	0	-1e10	8	-1e10	8	-1E+10	1	-1E+10	1	-1E+10	1	-1E+10	1	-1E+10	1	-1E+10	1
4902554	77	C	03/25/2023	22:01	-132.645	47.935	0	230.90	0	5.1410	0	33.7660	0	26.683	0	228.836	0	-1e10	8	-1e10	8	-1E+10	1	-1E+10	1	-1E+10	1	-1E+10	1	-1E+10	1	-1E+10	1
4902554	77	C	03/25/2023	22:01	-132.645	47.935	0	231.80	0	5.1290	0	33.7670	0	26.685	0	229.727	0	-1e10	8	-1e10	8	-1E+10	1	-1E+10	1	-1E+10	1	-1E+10	1	-1E+10	1	-1E+10	1
4902554	77	C	03/25/2023	22:01	-132.645	47.935	0	232.70	0	5.1270	0	33.7660	0	26.685	0	230.619	0	-1e10	8	-1e10	8	-1E+10	1	-1E+10	1	-1E+10	1	-1E+10	1	-1E+10	1	-1E+10	1
4902554	77	C	03/25/2023	22:01	-132.645	47.935	0	234.00	0	5.1210	0	33.7660	0	26.685	0	231.906	0	-1e10	8	-1e10	8	-1E+10	1	-1E+10	1	-1E+10	1	-1E+10	1	-1E+10	1	-1E+10	1
4902554	77	C	03/25/2023	22:01	-132.645	47.935	0	235.40	0	5.1180	0	33.7670	0	26.686	0	233.293	0	-1e10	8	-1e10	8	-1E+10	1	-1E+10	1	-1E+10	1	-1E+10	1	-1E+10	1	-1E+10	1
4902554	77	C	03/25/2023	22:01	-132.645	47.935	0	236.30	0	5.1100	0	33.7680	0	26.688	0	234.184	0	-1e10	8	-1e10	8	-1E+10	1	-1E+10	1	-1E+10	1	-1E+10	1	-1E+10	1	-1E+10	1
4902554	77	C	03/25/2023	22:01	-132.645	47.935	0	237.20	0	5.1060	0	33.7670	0	26.688	0	235.076	0	-1e10	8	-1e10	8	-1E+10	1	-1E+10	1	-1E+10	1	-1E+10	1	-1E+10	1	-1E+10	1
4902554	77	C	03/25/2023	22:01	-132.645	47.935	0	238.10	0	5.1030	0	33.7670	0	26.688	0	235.967	0	-1e10	8	-1e10	8	-1E+10	1	-1E+10	1	-1E+10	1	-1E+10	1	-1E+10	1	-1E+10	1
4902554	77	C	03/25/2023	22:01	-132.645	47.935	0	239.10	0	5.1000	0	33.7670	0	26.689	0	236.958	0	-1e10	8	-1e10	8	-1E+10	1	-1E+10	1	-1E+10	1	-1E+10	1	-1E+10	1	-1E+10	1
4902554	77	C	03/25/2023	22:01	-132.645	47.935	0	240.00	0	5.0950	0	33.7680	0	26.690	0	237.849	0	-1e10	8	-1e10	8	-1E+10	1	-1E+10	1	-1E+10	1	-1E+10	1	-1E+10	1	-1E+10	1
4902554	77	C	03/25/2023	22:01	-132.645	47.935	0	241.00	0	5.0720	0	33.7690	0	26.693	0	238.840	0	-1e10	8	-1e10	8	-1E+10	1	-1E+10	1	-1E+10	1	-1E+10	1	-1E+10	1	-1E+10	1
4902554	77	C	03/25/2023	22:01	-132.645	47.935	0	241.90	0	5.0560	0	33.7730	0	26.698	0	239.731	0	-1e10	8	-1e10	8	-1E+10	1	-1E+10	1	-1E+10	1	-1E+10	1	-1E+10	1	-1E+10	1
4902554	77	C	03/25/2023	22:01	-132.645	47.935	0	242.90	0	5.0410	0	33.7730	0	26.700	0	240.722	0	-1e10	8	-1e10	8	-1E+10	1	-1E+10	1	-1E+10	1	-1E+10	1	-1E+10	1	-1E+10	1
4902554	77	C	03/25/2023	22:01	-132.645	47.935	0	243.80	0	5.0340	0	33.7730	0	26.701	0	241.613	0	-1e10	8	-1e10	8	-1E+10	1	-1E+10	1	-1E+10	1	-1E+10	1	-1E+10	1	-1E+10	1
4902554	77	C	03/25/2023	22:01	-132.645	47.935	0	244.80	0	5.0290	0	33.7720	0	26.701	0	242.603	0	-1e10	8	-1e10	8	-1E+10	1	-1E+10	1	-1E+10	1	-1E+10	1	-1E+10	1	-1E+10	1
4902554	77	C	03/25/2023	22:01	-132.645	47.935	0	245.70	0	5.0260	0	33.7720	0	26.701	0	243.495	0	-1e10	8	-1e10	8	-1E+10	1	-1E+10	1	-1E+10	1	-1E+10	1	-1E+10	1	-1E+10	1
4902554	77	C	03/25/2023	22:01	-132.645	47.935	0	246.70	0	5.0190	0	33.7730	0	26.703	0	244.485	0	-1e10	8	-1e10	8	-1E+10	1	-1E+10	1	-1E+10	1	-1E+10	1	-1E+10	1	-1E+10	1
4902554	77	C	03/25/2023	22:01	-132.645	47.935	0	247.70	0	5.0100	0	33.7730	0	26.704	0	245.476	0	-1e10	8	-1e10	8	-1E+10	1	-1E+10	1	-1E+10	1	-1E+10	1	-1E+10	1	-1E+10	1
4902554	77	C	03/25/2023	22:01	-132.645	47.935	0	248.70	0	5.0100	0	33.7720	0	26.703	0	246.466	0	-1e10	8	-1e10	8	-1E+10	1	-1E+10	1	-1E+10	1	-1E+10	1	-1E+10	1	-1E+10	1
4902554	77	C	03/25/2023	22:01	-132.645	47.935	0	249.60	0	4.9990	0	33.7730	0	26.705	0	247.357	0	-1e10	8	-1e10	8	-1E+10	1	-1E+10	1	-1E+10	1	-1E+10	1	-1E+10	1	-1E+10	1
4902554	77	C	03/25/2023	22:01	-132.645	47.935	0	250.60	0	4.9860	0	33.7760	0	26.709	0	248.348	0	-1e10	8	-1e10	8	-1E+10	1	-1E+10	1	-1E+10	1	-1E+10	1	-1E+10	1	-1E+10	1
4902554	77	C	03/25/2023	22:01	-132.645	47.935	0	251.50	0	4.9690	0	33.7760	0	26.711	0	249.239	0	-1e10	8	-1e10	8	-1E+10	1	-1E+10	1	-1E+10	1	-1E+10	1	-1E+10	1	-1E+10	1
4902554	77	C	03/25/2023	22:01	-132.645	47.935	0	252.50	0	4.9450	0	33.7780	0	26.715	0	250.230	0	-1e10	8	-1e10	8	-1E+10	1	-1E+10	1	-1E+10	1	-1E+10	1	-1E+10	1	-1E+10	1
4902554	77	C	03/25/2023	22:01	-132.645	47.935	0	253.60	0	4.9280	0	33.7810	0	26.719	0	251.319	0	-1e10	8	-1e10	8	-1E+10	1	-1E+10	1	-1E+10	1	-1E+10	1	-1E+10	1	-1E+10	1
4902554	77	C	03/25/2023	22:01	-132.645	47.935	0	254.60	0	4.9200	0	33.7800	0	26.719	0	252.310	0	-1e10	8	-1e10	8	-1E+10	1	-1E+10	1	-1E+10	1	-1E+10	1	-1E+10	1	-1E+10	1
4902554	77	C	03/25/2023	22:01	-132.645	47.935	0	255.60	0	4.9090	0	33.7810	0	26.721	0	253.300	0	-1e10	8	-1e10	8	-1E+10	1	-1E+10	1	-1E+10	1	-1E+10	1	-1E+10	1	-1E+10	1
4902554	77	C	03/25/2023	22:01	-132.645	47.935	0	256.60	0	4.9050	0	33.7810	0	26.722	0	254.290	0	-1e10	8	-1e10	8	-1E+10	1	-1E+10	1	-1E+10	1	-1E+10	1	-1E+10	1	-1E+10	1
4902554	77	C	03/25/2023	22:01	-132.645	47.935	0	257.60	0	4.9010	0	33.7800	0	26.722	0	255.281	0	-1e10	8	-1e10	8	-1E+10	1	-1E+10	1	-1E+10	1	-1E+10	1	-1E+10	1	-1E+10	1
4902554	77	C	03/25/2023	22:01	-132.645	47.935	0	258.60	0	4.8990	0	33.7810	0	26.723	0	256.271	0	-1e10	8	-1e10	8	-1E+10	1	-1E+10	1	-1E+10	1	-1E+10	1	-1E+10	1	-1E+10	1
4902554	77	C	03/25/2023	22:01	-132.645	47.935	0	259.70	0	4.8970	0	33.7810	0	26.723	0	257.360	0	-1e10	8	-1e10	8	-1E+10	1	-1E+10	1	-1E+10	1	-1E+10	1	-1E+10	1	-1E+10	1
4902554	77	C	03/25/2023	22:01	-132.645	47.935	0	260.70	0	4.8930	0	33.7810	0	26.723	0	258.351	0	-1e10	8	-1e10	8	-1E+10	1	-1E+10	1	-1E+10	1	-1E+10	1	-1E+10	1	-1E+10	1
4902554	77	C	03/25/2023	22:01	-132.645	47.935	0	261.80	0	4.8900	0	33.7810	0	26.724	0	259.440	0	-1e10	8	-1e10	8	-1E+10	1	-1E+10	1	-1E+10	1	-1E+10	1	-1E+10	1	-1E+10	1
4902554	77	C	03/25/2023	22:01	-132.645	47.935	0	262.90	0	4.8810	0	33.7820	0	26.725	0	260.530	0	-1e10	8	-1e10	8	-1E+10	1	-1E+10	1	-1E+10	1	-1E+10	1	-1E+10	1	-1E+10	1
4902554	77	C	03/25/2023	22:01	-132.645	47.935	0	263.90	0	4.8770	0	33.7820	0	26.726	0	261.520	0	-1e10	8	-1e10	8	-1E+10	1	-1E+10	1	-1E+10	1	-1E+10	1	-1E+10	1	-1E+10	1
4902554	77	C	03/25/2023	22:01	-132.645	47.935	0	265.00	0	4.8680	0	33.7840	0	26.728	0	262.609	0	-1e10	8	-1e10	8	-1E+10	1	-1E+10	1	-1E+10	1	-1E+10	1	-1E+10	1	-1E+10	1
4902554	77	C	03/25/2023	22:01	-132.645	47.935	0	266.10	0	4.8660	0	33.7830	0	26.728	0	263.699	0	-1e10	8	-1e10	8	-1E+10	1	-1E+10	1	-1E+10	1	-1E+10	1	-1E+10	1	-1E+10	1
4902554	77	C	03/25/2023	22:01	-132.645	47.935	0	267.10	0	4.8650	0	33.7830	0	26.728	0	264.689	0	-1e10	8	-1e10	8	-1E+10	1	-1E+10	1	-1E+10	1	-1E+10	1	-1E+10	1	-1E+10	1
4902554	77	C	03/25/2023	22:01	-132.645	47.935	0	268.20	0	4.8610	0	33.7840	0	26.729	0	265.778	0	-1e10	8	-1e10	8	-1E+10	1	-1E+10	1	-1E+10	1	-1E+10	1	-1E+10	1	-1E+10	1
4902554	77	C	03/25/2023	22:01	-132.645	47.935	0	269.20	0	4.8540	0	33.7840	0	26.730	0	266.769	0	-1e10	8	-1e10	8	-1E+10	1	-1E+10	1	-1E+10	1	-1E+10	1	-1E+10	1	-1E+10	1
4902554	77	C	03/25/2023	22:01	-132.645	47.935	0	270.30	0	4.8500	0	33.7850	0	26.731	0	267.858	0	-1e10	8	-1e10	8	-1E+10	1	-1E+10	1	-1E+10	1	-1E+10	1	-1E+10	1	-1E+10	1
4902554	77	C	03/25/2023	22:01	-132.645	47.935	0	271.40	0	4.8450	0	33.7860	0	26.733	0	268.947	0	-1e10	8	-1e10	8	-1E+10	1	-1E+10	1	-1E+10	1	-1E+10	1	-1E+10	1	-1E+10	1
4902554	77	C	03/25/2023	22:01	-132.645	47.935	0	272.40	0	4.8380	0	33.7860	0	26.733	0	269.938	0	-1e10	8	-1e10	8	-1E+10	1	-1E+10	1	-1E+10	1	-1E+10	1	-1E+10	1	-1E+10	1
4902554	77	C	03/25/2023	22:01	-132.645	47.935	0	273.50	0	4.8310	0	33.7860	0	26.734	0	271.027	0	-1e10	8	-1e10	8	-1E+10	1	-1E+10	1	-1E+10	1	-1E+10	1	-1E+10	1	-1E+10	1
4902554	77	C	03/25/2023	22:01	-132.645	47.935	0	274.60	0	4.8250	0	33.7860	0	26.735	0	272.116	0	-1e10	8	-1e10	8	-1E+10	1	-1E+10	1	-1E+10	1	-1E+10	1	-1E+10	1	-1E+10	1
4902554	77	C	03/25/2023	22:01	-132.645	47.935	0	275.70	0	4.8120	0	33.7860	0	26.736	0	273.206	0	-1e10	8	-1e10	8	-1E+10	1	-1E+10	1	-1E+10	1	-1E+10	1	-1E+10	1	-1E+10	1
4902554	77	C	03/25/2023	22:01	-132.645	47.935	0	276.70	0	4.7620	0	33.7930	0	26.747	0	274.196	0	-1e10	8	-1e10	8	-1E+10	1	-1E+10	1	-1E+10	1	-1E+10	1	-1E+10	1	-1E+10	1
4902554	77	C	03/25/2023	22:01	-132.645	47.935	0	277.80	0	4.7490	0	33.7940	0	26.750	0	275.285	0	-1e10	8	-1e10	8	-1E+10	1	-1E+10	1	-1E+10	1	-1E+10	1	-1E+10	1	-1E+10	1
4902554	77	C	03/25/2023	22:01	-132.645	47.935	0	278.90	0	4.7420	0	33.7960	0	26.752	0	276.375	0	-1e10	8	-1e10	8	-1E+10	1	-1E+10	1	-1E+10	1	-1E+10	1	-1E+10	1	-1E+10	1
4902554	77	C	03/25/2023	22:01	-132.645	47.935	0	280.00	0	4.7310	0	33.7960	0	26.753	0	277.464	0	-1e10	8	-1e10	8	-1E+10	1	-1E+10	1	-1E+10	1	-1E+10	1	-1E+10	1	-1E+10	1
4902554	77	C	03/25/2023	22:01	-132.645	47.935	0	281.10	0	4.7220	0	33.7970	0	26.755	0	278.553	0	-1e10	8	-1e10	8	-1E+10	1	-1E+10	1	-1E+10	1	-1E+10	1	-1E+10	1	-1E+10	1
4902554	77	C	03/25/2023	22:01	-132.645	47.935	0	282.20	0	4.7190	0	33.7970	0	26.755	0	279.643	0	-1e10	8	-1e10	8	-1E+10	1	-1E+10	1	-1E+10	1	-1E+10	1	-1E+10	1	-1E+10	1
4902554	77	C	03/25/2023	22:01	-132.645	47.935	0	283.30	0	4.7150	0	33.7980	0	26.757	0	280.732	0	-1e10	8	-1e10	8	-1E+10	1	-1E+10	1	-1E+10	1	-1E+10	1	-1E+10	1	-1E+10	1
4902554	77	C	03/25/2023	22:01	-132.645	47.935	0	284.40	0	4.7050	0	33.7990	0	26.759	0	281.821	0	-1e10	8	-1e10	8	-1E+10	1	-1E+10	1	-1E+10	1	-1E+10	1	-1E+10	1	-1E+10	1
4902554	77	C	03/25/2023	22:01	-132.645	47.935	0	285.50	0	4.7040	0	33.7990	0	26.759	0	282.910	0	-1e10	8	-1e10	8	-1E+10	1	-1E+10	1	-1E+10	1	-1E+10	1	-1E+10	1	-1E+10	1
4902554	77	C	03/25/2023	22:01	-132.645	47.935	0	286.50	0	4.6980	0	33.8010	0	26.761	0	283.901	0	-1e10	8	-1e10	8	-1E+10	1	-1E+10	1	-1E+10	1	-1E+10	1	-1E+10	1	-1E+10	1
4902554	77	C	03/25/2023	22:01	-132.645	47.935	0	287.90	0	4.6910	0	33.8030	0	26.763	0	285.287	0	-1e10	8	-1e10	8	-1E+10	1	-1E+10	1	-1E+10	1	-1E+10	1	-1E+10	1	-1E+10	1
4902554	77	C	03/25/2023	22:01	-132.645	47.935	0	289.10	0	4.6850	0	33.8040	0	26.765	0	286.475	0	-1e10	8	-1e10	8	-1E+10	1	-1E+10	1	-1E+10	1	-1E+10	1	-1E+10	1	-1E+10	1
4902554	77	C	03/25/2023	22:01	-132.645	47.935	0	289.90	0	4.6820	0	33.8050	0	26.766	0	287.267	0	-1e10	8	-1e10	8	-1E+10	1	-1E+10	1	-1E+10	1	-1E+10	1	-1E+10	1	-1E+10	1
4902554	77	C	03/25/2023	22:01	-132.645	47.935	0	290.70	0	4.6810	0	33.8050	0	26.766	0	288.060	0	-1e10	8	-1e10	8	-1E+10	1	-1E+10	1	-1E+10	1	-1E+10	1	-1E+10	1	-1E+10	1
4902554	77	C	03/25/2023	22:01	-132.645	47.935	0	291.90	0	4.6770	0	33.8050	0	26.766	0	289.248	0	-1e10	8	-1e10	8	-1E+10	1	-1E+10	1	-1E+10	1	-1E+10	1	-1E+10	1	-1E+10	1
4902554	77	C	03/25/2023	22:01	-132.645	47.935	0	293.10	0	4.6700	0	33.8050	0	26.767	0	290.436	0	-1e10	8	-1e10	8	-1E+10	1	-1E+10	1	-1E+10	1	-1E+10	1	-1E+10	1	-1E+10	1
4902554	77	C	03/25/2023	22:01	-132.645	47.935	0	293.90	0	4.6540	0	33.8090	0	26.772	0	291.228	0	-1e10	8	-1e10	8	-1E+10	1	-1E+10	1	-1E+10	1	-1E+10	1	-1E+10	1	-1E+10	1
4902554	77	C	03/25/2023	22:01	-132.645	47.935	0	294.70	0	4.6340	0	33.8090	0	26.774	0	292.020	0	-1e10	8	-1e10	8	-1E+10	1	-1E+10	1	-1E+10	1	-1E+10	1	-1E+10	1	-1E+10	1
4902554	77	C	03/25/2023	22:01	-132.645	47.935	0	295.90	0	4.6120	0	33.8120	0	26.779	0	293.209	0	-1e10	8	-1e10	8	-1E+10	1	-1E+10	1	-1E+10	1	-1E+10	1	-1E+10	1	-1E+10	1
4902554	77	C	03/25/2023	22:01	-132.645	47.935	0	297.20	0	4.5930	0	33.8150	0	26.784	0	294.496	0	-1e10	8	-1e10	8	-1E+10	1	-1E+10	1	-1E+10	1	-1E+10	1	-1E+10	1	-1E+10	1
4902554	77	C	03/25/2023	22:01	-132.645	47.935	0	298.10	0	4.5750	0	33.8190	0	26.789	0	295.387	0	-1e10	8	-1e10	8	-1E+10	1	-1E+10	1	-1E+10	1	-1E+10	1	-1E+10	1	-1E+10	1
4902554	77	C	03/25/2023	22:01	-132.645	47.935	0	298.90	0	4.5830	0	33.8230	0	26.791	0	296.179	0	-1e10	8	-1e10	8	-1E+10	1	-1E+10	1	-1E+10	1	-1E+10	1	-1E+10	1	-1E+10	1
4902554	77	C	03/25/2023	22:01	-132.645	47.935	0	299.80	0	4.5800	0	33.8250	0	26.793	0	297.070	0	-1e10	8	-1e10	8	-1E+10	1	-1E+10	1	-1E+10	1	-1E+10	1	-1E+10	1	-1E+10	1
4902554	77	C	03/25/2023	22:01	-132.645	47.935	0	300.60	0	4.5740	0	33.8250	0	26.794	0	297.863	0	-1e10	8	-1e10	8	-1E+10	1	-1E+10	1	-1E+10	1	-1E+10	1	-1E+10	1	-1E+10	1
4902554	77	C	03/25/2023	22:01	-132.645	47.935	0	301.90	0	4.5590	0	33.8300	0	26.799	0	299.150	0	-1e10	8	-1e10	8	-1E+10	1	-1E+10	1	-1E+10	1	-1E+10	1	-1E+10	1	-1E+10	1
4902554	77	C	03/25/2023	22:01	-132.645	47.935	0	303.10	0	4.5550	0	33.8300	0	26.800	0	300.338	0	-1e10	8	-1e10	8	-1E+10	1	-1E+10	1	-1E+10	1	-1E+10	1	-1E+10	1	-1E+10	1
4902554	77	C	03/25/2023	22:01	-132.645	47.935	0	304.00	0	4.5540	0	33.8310	0	26.801	0	301.229	0	-1e10	8	-1e10	8	-1E+10	1	-1E+10	1	-1E+10	1	-1E+10	1	-1E+10	1	-1E+10	1
4902554	77	C	03/25/2023	22:01	-132.645	47.935	0	304.80	0	4.5530	0	33.8310	0	26.801	0	302.021	0	-1e10	8	-1e10	8	-1E+10	1	-1E+10	1	-1E+10	1	-1E+10	1	-1E+10	1	-1E+10	1
4902554	77	C	03/25/2023	22:01	-132.645	47.935	0	305.70	0	4.5530	0	33.8300	0	26.800	0	302.912	0	-1e10	8	-1e10	8	-1E+10	1	-1E+10	1	-1E+10	1	-1E+10	1	-1E+10	1	-1E+10	1
4902554	77	C	03/25/2023	22:01	-132.645	47.935	0	306.90	0	4.5520	0	33.8320	0	26.802	0	304.101	0	-1e10	8	-1e10	8	-1E+10	1	-1E+10	1	-1E+10	1	-1E+10	1	-1E+10	1	-1E+10	1
4902554	77	C	03/25/2023	22:01	-132.645	47.935	0	308.20	0	4.5530	0	33.8330	0	26.802	0	305.388	0	-1e10	8	-1e10	8	-1E+10	1	-1E+10	1	-1E+10	1	-1E+10	1	-1E+10	1	-1E+10	1
4902554	77	C	03/25/2023	22:01	-132.645	47.935	0	309.10	0	4.5540	0	33.8350	0	26.804	0	306.279	0	-1e10	8	-1e10	8	-1E+10	1	-1E+10	1	-1E+10	1	-1E+10	1	-1E+10	1	-1E+10	1
4902554	77	C	03/25/2023	22:01	-132.645	47.935	0	309.90	0	4.5580	0	33.8390	0	26.807	0	307.071	0	-1e10	8	-1e10	8	-1E+10	1	-1E+10	1	-1E+10	1	-1E+10	1	-1E+10	1	-1E+10	1
4902554	77	C	03/25/2023	22:01	-132.645	47.935	0	310.80	0	4.5620	0	33.8410	0	26.808	0	307.962	0	-1e10	8	-1e10	8	-1E+10	1	-1E+10	1	-1E+10	1	-1E+10	1	-1E+10	1	-1E+10	1
4902554	77	C	03/25/2023	22:01	-132.645	47.935	0	311.60	0	4.5760	0	33.8490	0	26.813	0	308.754	0	-1e10	8	-1e10	8	-1E+10	1	-1E+10	1	-1E+10	1	-1E+10	1	-1E+10	1	-1E+10	1
4902554	77	C	03/25/2023	22:01	-132.645	47.935	0	312.90	0	4.6030	0	33.8580	0	26.817	0	310.041	0	-1e10	8	-1e10	8	-1E+10	1	-1E+10	1	-1E+10	1	-1E+10	1	-1E+10	1	-1E+10	1
4902554	77	C	03/25/2023	22:01	-132.645	47.935	0	314.20	0	4.6010	0	33.8590	0	26.818	0	311.329	0	-1e10	8	-1e10	8	-1E+10	1	-1E+10	1	-1E+10	1	-1E+10	1	-1E+10	1	-1E+10	1
4902554	77	C	03/25/2023	22:01	-132.645	47.935	0	315.10	0	4.6050	0	33.8600	0	26.818	0	312.220	0	-1e10	8	-1e10	8	-1E+10	1	-1E+10	1	-1E+10	1	-1E+10	1	-1E+10	1	-1E+10	1
4902554	77	C	03/25/2023	22:01	-132.645	47.935	0	315.90	0	4.6060	0	33.8610	0	26.819	0	313.012	0	-1e10	8	-1e10	8	-1E+10	1	-1E+10	1	-1E+10	1	-1E+10	1	-1E+10	1	-1E+10	1
4902554	77	C	03/25/2023	22:01	-132.645	47.935	0	316.80	0	4.5910	0	33.8600	0	26.820	0	313.903	0	-1e10	8	-1e10	8	-1E+10	1	-1E+10	1	-1E+10	1	-1E+10	1	-1E+10	1	-1E+10	1
4902554	77	C	03/25/2023	22:01	-132.645	47.935	0	317.70	0	4.5870	0	33.8610	0	26.821	0	314.794	0	-1e10	8	-1e10	8	-1E+10	1	-1E+10	1	-1E+10	1	-1E+10	1	-1E+10	1	-1E+10	1
4902554	77	C	03/25/2023	22:01	-132.645	47.935	0	318.90	0	4.5630	0	33.8590	0	26.822	0	315.982	0	-1e10	8	-1e10	8	-1E+10	1	-1E+10	1	-1E+10	1	-1E+10	1	-1E+10	1	-1E+10	1
4902554	77	C	03/25/2023	22:01	-132.645	47.935	0	320.20	0	4.5340	0	33.8570	0	26.823	0	317.269	0	-1e10	8	-1e10	8	-1E+10	1	-1E+10	1	-1E+10	1	-1E+10	1	-1E+10	1	-1E+10	1
4902554	77	C	03/25/2023	22:01	-132.645	47.935	0	321.10	0	4.5340	0	33.8570	0	26.823	0	318.160	0	-1e10	8	-1e10	8	-1E+10	1	-1E+10	1	-1E+10	1	-1E+10	1	-1E+10	1	-1E+10	1
4902554	77	C	03/25/2023	22:01	-132.645	47.935	0	321.90	0	4.5320	0	33.8570	0	26.824	0	318.952	0	-1e10	8	-1e10	8	-1E+10	1	-1E+10	1	-1E+10	1	-1E+10	1	-1E+10	1	-1E+10	1
4902554	77	C	03/25/2023	22:01	-132.645	47.935	0	322.80	0	4.5270	0	33.8600	0	26.827	0	319.843	0	-1e10	8	-1e10	8	-1E+10	1	-1E+10	1	-1E+10	1	-1E+10	1	-1E+10	1	-1E+10	1
4902554	77	C	03/25/2023	22:01	-132.645	47.935	0	324.00	0	4.5270	0	33.8610	0	26.827	0	321.031	0	-1e10	8	-1e10	8	-1E+10	1	-1E+10	1	-1E+10	1	-1E+10	1	-1E+10	1	-1E+10	1
4902554	77	C	03/25/2023	22:01	-132.645	47.935	0	325.30	0	4.5240	0	33.8620	0	26.829	0	322.318	0	-1e10	8	-1e10	8	-1E+10	1	-1E+10	1	-1E+10	1	-1E+10	1	-1E+10	1	-1E+10	1
4902554	77	C	03/25/2023	22:01	-132.645	47.935	0	326.10	0	4.5090	0	33.8640	0	26.832	0	323.111	0	-1e10	8	-1e10	8	-1E+10	1	-1E+10	1	-1E+10	1	-1E+10	1	-1E+10	1	-1E+10	1
4902554	77	C	03/25/2023	22:01	-132.645	47.935	0	326.90	0	4.5010	0	33.8670	0	26.835	0	323.903	0	-1e10	8	-1e10	8	-1E+10	1	-1E+10	1	-1E+10	1	-1E+10	1	-1E+10	1	-1E+10	1
4902554	77	C	03/25/2023	22:01	-132.645	47.935	0	327.80	0	4.5320	0	33.8710	0	26.835	0	324.794	0	-1e10	8	-1e10	8	-1E+10	1	-1E+10	1	-1E+10	1	-1E+10	1	-1E+10	1	-1E+10	1
4902554	77	C	03/25/2023	22:01	-132.645	47.935	0	328.60	0	4.5170	0	33.8750	0	26.840	0	325.586	0	-1e10	8	-1e10	8	-1E+10	1	-1E+10	1	-1E+10	1	-1E+10	1	-1E+10	1	-1E+10	1
4902554	77	C	03/25/2023	22:01	-132.645	47.935	0	329.90	0	4.5050	0	33.8760	0	26.842	0	326.873	0	-1e10	8	-1e10	8	-1E+10	1	-1E+10	1	-1E+10	1	-1E+10	1	-1E+10	1	-1E+10	1
4902554	77	C	03/25/2023	22:01	-132.645	47.935	0	331.10	0	4.4790	0	33.8800	0	26.848	0	328.061	0	-1e10	8	-1e10	8	-1E+10	1	-1E+10	1	-1E+10	1	-1E+10	1	-1E+10	1	-1E+10	1
4902554	77	C	03/25/2023	22:01	-132.645	47.935	0	332.00	0	4.4780	0	33.8810	0	26.849	0	328.952	0	-1e10	8	-1e10	8	-1E+10	1	-1E+10	1	-1E+10	1	-1E+10	1	-1E+10	1	-1E+10	1
4902554	77	C	03/25/2023	22:01	-132.645	47.935	0	332.80	0	4.4760	0	33.8810	0	26.849	0	329.744	0	-1e10	8	-1e10	8	-1E+10	1	-1E+10	1	-1E+10	1	-1E+10	1	-1E+10	1	-1E+10	1
4902554	77	C	03/25/2023	22:01	-132.645	47.935	0	333.70	0	4.4770	0	33.8840	0	26.851	0	330.635	0	-1e10	8	-1e10	8	-1E+10	1	-1E+10	1	-1E+10	1	-1E+10	1	-1E+10	1	-1E+10	1
4902554	77	C	03/25/2023	22:01	-132.645	47.935	0	334.90	0	4.4790	0	33.8860	0	26.853	0	331.823	0	-1e10	8	-1e10	8	-1E+10	1	-1E+10	1	-1E+10	1	-1E+10	1	-1E+10	1	-1E+10	1
4902554	77	C	03/25/2023	22:01	-132.645	47.935	0	336.20	0	4.4960	0	33.8960	0	26.859	0	333.110	0	-1e10	8	-1e10	8	-1E+10	1	-1E+10	1	-1E+10	1	-1E+10	1	-1E+10	1	-1E+10	1
4902554	77	C	03/25/2023	22:01	-132.645	47.935	0	337.00	0	4.4970	0	33.8990	0	26.861	0	333.902	0	-1e10	8	-1e10	8	-1E+10	1	-1E+10	1	-1E+10	1	-1E+10	1	-1E+10	1	-1E+10	1
4902554	77	C	03/25/2023	22:01	-132.645	47.935	0	337.90	0	4.4970	0	33.9000	0	26.862	0	334.793	0	-1e10	8	-1e10	8	-1E+10	1	-1E+10	1	-1E+10	1	-1E+10	1	-1E+10	1	-1E+10	1
4902554	77	C	03/25/2023	22:01	-132.645	47.935	0	338.70	0	4.4970	0	33.9000	0	26.862	0	335.585	0	-1e10	8	-1e10	8	-1E+10	1	-1E+10	1	-1E+10	1	-1E+10	1	-1E+10	1	-1E+10	1
4902554	77	C	03/25/2023	22:01	-132.645	47.935	0	339.60	0	4.4980	0	33.9030	0	26.864	0	336.476	0	-1e10	8	-1e10	8	-1E+10	1	-1E+10	1	-1E+10	1	-1E+10	1	-1E+10	1	-1E+10	1
4902554	77	C	03/25/2023	22:01	-132.645	47.935	0	340.90	0	4.4950	0	33.9040	0	26.865	0	337.763	0	-1e10	8	-1e10	8	-1E+10	1	-1E+10	1	-1E+10	1	-1E+10	1	-1E+10	1	-1E+10	1
4902554	77	C	03/25/2023	22:01	-132.645	47.935	0	342.20	0	4.4940	0	33.9050	0	26.866	0	339.050	0	-1e10	8	-1e10	8	-1E+10	1	-1E+10	1	-1E+10	1	-1E+10	1	-1E+10	1	-1E+10	1
4902554	77	C	03/25/2023	22:01	-132.645	47.935	0	343.10	0	4.4920	0	33.9060	0	26.867	0	339.941	0	-1e10	8	-1e10	8	-1E+10	1	-1E+10	1	-1E+10	1	-1E+10	1	-1E+10	1	-1E+10	1
4902554	77	C	03/25/2023	22:01	-132.645	47.935	0	344.00	0	4.4910	0	33.9070	0	26.868	0	340.832	0	-1e10	8	-1e10	8	-1E+10	1	-1E+10	1	-1E+10	1	-1E+10	1	-1E+10	1	-1E+10	1
4902554	77	C	03/25/2023	22:01	-132.645	47.935	0	344.80	0	4.4890	0	33.9070	0	26.868	0	341.624	0	-1e10	8	-1e10	8	-1E+10	1	-1E+10	1	-1E+10	1	-1E+10	1	-1E+10	1	-1E+10	1
4902554	77	C	03/25/2023	22:01	-132.645	47.935	0	345.70	0	4.4870	0	33.9080	0	26.869	0	342.515	0	-1e10	8	-1e10	8	-1E+10	1	-1E+10	1	-1E+10	1	-1E+10	1	-1E+10	1	-1E+10	1
4902554	77	C	03/25/2023	22:01	-132.645	47.935	0	346.60	0	4.4860	0	33.9070	0	26.869	0	343.406	0	-1e10	8	-1e10	8	-1E+10	1	-1E+10	1	-1E+10	1	-1E+10	1	-1E+10	1	-1E+10	1
4902554	77	C	03/25/2023	22:01	-132.645	47.935	0	347.90	0	4.4800	0	33.9090	0	26.871	0	344.693	0	-1e10	8	-1e10	8	-1E+10	1	-1E+10	1	-1E+10	1	-1E+10	1	-1E+10	1	-1E+10	1
4902554	77	C	03/25/2023	22:01	-132.645	47.935	0	349.20	0	4.4780	0	33.9110	0	26.873	0	345.979	0	-1e10	8	-1e10	8	-1E+10	1	-1E+10	1	-1E+10	1	-1E+10	1	-1E+10	1	-1E+10	1
4902554	77	C	03/25/2023	22:01	-132.645	47.935	0	350.10	0	4.4750	0	33.9120	0	26.874	0	346.870	0	-1e10	8	-1e10	8	-1E+10	1	-1E+10	1	-1E+10	1	-1E+10	1	-1E+10	1	-1E+10	1
4902554	77	C	03/25/2023	22:01	-132.645	47.935	0	353.10	0	4.4600	0	33.9130	0	26.876	0	349.840	0	-1e10	8	-1e10	8	-1E+10	1	-1E+10	1	-1E+10	1	-1E+10	1	-1E+10	1	-1E+10	1
4902554	77	C	03/25/2023	22:01	-132.645	47.935	0	358.00	0	4.4000	0	33.9200	0	26.888	0	354.691	0	-1e10	8	-1e10	8	-1E+10	1	-1E+10	1	-1E+10	1	-1E+10	1	-1E+10	1	-1E+10	1
4902554	77	C	03/25/2023	22:01	-132.645	47.935	0	362.90	0	4.3770	0	33.9290	0	26.898	0	359.541	0	-1e10	8	-1e10	8	-1E+10	1	-1E+10	1	-1E+10	1	-1E+10	1	-1E+10	1	-1E+10	1
4902554	77	C	03/25/2023	22:01	-132.645	47.935	0	368.10	0	4.3520	0	33.9320	0	26.903	0	364.689	0	-1e10	8	-1e10	8	-1E+10	1	-1E+10	1	-1E+10	1	-1E+10	1	-1E+10	1	-1E+10	1
4902554	77	C	03/25/2023	22:01	-132.645	47.935	0	372.90	0	4.3400	0	33.9340	0	26.906	0	369.440	0	-1e10	8	-1e10	8	-1E+10	1	-1E+10	1	-1E+10	1	-1E+10	1	-1E+10	1	-1E+10	1
4902554	77	C	03/25/2023	22:01	-132.645	47.935	0	377.60	0	4.3350	0	33.9350	0	26.907	0	374.092	0	-1e10	8	-1e10	8	-1E+10	1	-1E+10	1	-1E+10	1	-1E+10	1	-1E+10	1	-1E+10	1
4902554	77	C	03/25/2023	22:01	-132.645	47.935	0	382.90	0	4.3170	0	33.9390	0	26.912	0	379.338	0	-1e10	8	-1e10	8	-1E+10	1	-1E+10	1	-1E+10	1	-1E+10	1	-1E+10	1	-1E+10	1
4902554	77	C	03/25/2023	22:01	-132.645	47.935	0	388.40	0	4.3140	0	33.9420	0	26.915	0	384.782	0	-1e10	8	-1e10	8	-1E+10	1	-1E+10	1	-1E+10	1	-1E+10	1	-1E+10	1	-1E+10	1
4902554	77	C	03/25/2023	22:01	-132.645	47.935	0	393.40	0	4.3020	0	33.9460	0	26.919	0	389.730	0	-1e10	8	-1e10	8	-1E+10	1	-1E+10	1	-1E+10	1	-1E+10	1	-1E+10	1	-1E+10	1
4902554	77	C	03/25/2023	22:01	-132.645	47.935	0	397.90	0	4.2970	0	33.9490	0	26.922	0	394.184	0	-1e10	8	-1e10	8	-1E+10	1	-1E+10	1	-1E+10	1	-1E+10	1	-1E+10	1	-1E+10	1
4902554	77	C	03/25/2023	22:01	-132.645	47.935	0	402.50	0	4.2890	0	33.9580	0	26.930	0	398.737	0	-1e10	8	-1e10	8	-1E+10	1	-1E+10	1	-1E+10	1	-1E+10	1	-1E+10	1	-1E+10	1
4902554	77	C	03/25/2023	22:01	-132.645	47.935	0	407.60	0	4.2800	0	33.9680	0	26.939	0	403.784	0	-1e10	8	-1e10	8	-1E+10	1	-1E+10	1	-1E+10	1	-1E+10	1	-1E+10	1	-1E+10	1
4902554	77	C	03/25/2023	22:01	-132.645	47.935	0	412.90	0	4.2760	0	33.9740	0	26.945	0	409.029	0	-1e10	8	-1e10	8	-1E+10	1	-1E+10	1	-1E+10	1	-1E+10	1	-1E+10	1	-1E+10	1
4902554	77	C	03/25/2023	22:01	-132.645	47.935	0	418.10	0	4.2720	0	33.9790	0	26.949	0	414.175	0	-1e10	8	-1e10	8	-1E+10	1	-1E+10	1	-1E+10	1	-1E+10	1	-1E+10	1	-1E+10	1
4902554	77	C	03/25/2023	22:01	-132.645	47.935	0	422.90	0	4.2680	0	33.9820	0	26.952	0	418.925	0	-1e10	8	-1e10	8	-1E+10	1	-1E+10	1	-1E+10	1	-1E+10	1	-1E+10	1	-1E+10	1
4902554	77	C	03/25/2023	22:01	-132.645	47.935	0	427.60	0	4.2550	0	33.9910	0	26.960	0	423.576	0	-1e10	8	-1e10	8	-1E+10	1	-1E+10	1	-1E+10	1	-1E+10	1	-1E+10	1	-1E+10	1
4902554	77	C	03/25/2023	22:01	-132.645	47.935	0	432.90	0	4.2450	0	33.9950	0	26.965	0	428.821	0	-1e10	8	-1e10	8	-1E+10	1	-1E+10	1	-1E+10	1	-1E+10	1	-1E+10	1	-1E+10	1
4902554	77	C	03/25/2023	22:01	-132.645	47.935	0	438.20	0	4.2410	0	33.9960	0	26.966	0	434.066	0	-1e10	8	-1e10	8	-1E+10	1	-1E+10	1	-1E+10	1	-1E+10	1	-1E+10	1	-1E+10	1
4902554	77	C	03/25/2023	22:01	-132.645	47.935	0	442.90	0	4.2370	0	33.9980	0	26.968	0	438.716	0	-1e10	8	-1e10	8	-1E+10	1	-1E+10	1	-1E+10	1	-1E+10	1	-1E+10	1	-1E+10	1
4902554	77	C	03/25/2023	22:01	-132.645	47.935	0	447.60	0	4.2360	0	33.9990	0	26.969	0	443.367	0	-1e10	8	-1e10	8	-1E+10	1	-1E+10	1	-1E+10	1	-1E+10	1	-1E+10	1	-1E+10	1
4902554	77	C	03/25/2023	22:01	-132.645	47.935	0	452.70	0	4.2140	0	34.0090	0	26.979	0	448.413	0	-1e10	8	-1e10	8	-1E+10	1	-1E+10	1	-1E+10	1	-1E+10	1	-1E+10	1	-1E+10	1
4902554	77	C	03/25/2023	22:01	-132.645	47.935	0	457.90	0	4.1990	0	34.0180	0	26.988	0	453.558	0	-1e10	8	-1e10	8	-1E+10	1	-1E+10	1	-1E+10	1	-1E+10	1	-1E+10	1	-1E+10	1
4902554	77	C	03/25/2023	22:01	-132.645	47.935	0	463.10	0	4.1890	0	34.0230	0	26.993	0	458.703	0	-1e10	8	-1e10	8	-1E+10	1	-1E+10	1	-1E+10	1	-1E+10	1	-1E+10	1	-1E+10	1
4902554	77	C	03/25/2023	22:01	-132.645	47.935	0	468.30	0	4.1850	0	34.0250	0	26.995	0	463.848	0	-1e10	8	-1e10	8	-1E+10	1	-1E+10	1	-1E+10	1	-1E+10	1	-1E+10	1	-1E+10	1
4902554	77	C	03/25/2023	22:01	-132.645	47.935	0	472.90	0	4.1710	0	34.0320	0	27.002	0	468.399	0	-1e10	8	-1e10	8	-1E+10	1	-1E+10	1	-1E+10	1	-1E+10	1	-1E+10	1	-1E+10	1
4902554	77	C	03/25/2023	22:01	-132.645	47.935	0	477.70	0	4.1680	0	34.0330	0	27.003	0	473.148	0	-1e10	8	-1e10	8	-1E+10	1	-1E+10	1	-1E+10	1	-1E+10	1	-1E+10	1	-1E+10	1
4902554	77	C	03/25/2023	22:01	-132.645	47.935	0	483.00	0	4.1630	0	34.0350	0	27.005	0	478.391	0	-1e10	8	-1e10	8	-1E+10	1	-1E+10	1	-1E+10	1	-1E+10	1	-1E+10	1	-1E+10	1
4902554	77	C	03/25/2023	22:01	-132.645	47.935	0	487.90	0	4.1490	0	34.0420	0	27.012	0	483.239	0	-1e10	8	-1e10	8	-1E+10	1	-1E+10	1	-1E+10	1	-1E+10	1	-1E+10	1	-1E+10	1
4902554	77	C	03/25/2023	22:01	-132.645	47.935	0	492.90	0	4.1340	0	34.0480	0	27.019	0	488.185	0	-1e10	8	-1e10	8	-1E+10	1	-1E+10	1	-1E+10	1	-1E+10	1	-1E+10	1	-1E+10	1
4902554	77	C	03/25/2023	22:01	-132.645	47.935	0	497.70	0	4.1260	0	34.0510	0	27.022	0	492.934	0	-1e10	8	-1e10	8	-1E+10	1	-1E+10	1	-1E+10	1	-1E+10	1	-1E+10	1	-1E+10	1
4902554	77	C	03/25/2023	22:01	-132.645	47.935	0	502.80	0	4.1100	0	34.0600	0	27.031	0	497.979	0	-1e10	8	-1e10	8	-1E+10	1	-1E+10	1	-1E+10	1	-1E+10	1	-1E+10	1	-1E+10	1
4902554	77	C	03/25/2023	22:01	-132.645	47.935	0	507.80	0	4.0970	0	34.0690	0	27.039	0	502.925	0	-1e10	8	-1e10	8	-1E+10	1	-1E+10	1	-1E+10	1	-1E+10	1	-1E+10	1	-1E+10	1
4902554	77	C	03/25/2023	22:01	-132.645	47.935	0	512.80	0	4.0850	0	34.0720	0	27.043	0	507.870	0	-1e10	8	-1e10	8	-1E+10	1	-1E+10	1	-1E+10	1	-1E+10	1	-1E+10	1	-1E+10	1
4902554	77	C	03/25/2023	22:01	-132.645	47.935	0	517.70	0	4.0760	0	34.0770	0	27.048	0	512.717	0	-1e10	8	-1e10	8	-1E+10	1	-1E+10	1	-1E+10	1	-1E+10	1	-1E+10	1	-1E+10	1
4902554	77	C	03/25/2023	22:01	-132.645	47.935	0	522.60	0	4.0620	0	34.0820	0	27.053	0	517.564	0	-1e10	8	-1e10	8	-1E+10	1	-1E+10	1	-1E+10	1	-1E+10	1	-1E+10	1	-1E+10	1
4902554	77	C	03/25/2023	22:01	-132.645	47.935	0	528.10	0	4.0460	0	34.0840	0	27.057	0	523.004	0	-1e10	8	-1e10	8	-1E+10	1	-1E+10	1	-1E+10	1	-1E+10	1	-1E+10	1	-1E+10	1
4902554	77	C	03/25/2023	22:01	-132.645	47.935	0	532.90	0	4.0340	0	34.0860	0	27.060	0	527.752	0	-1e10	8	-1e10	8	-1E+10	1	-1E+10	1	-1E+10	1	-1E+10	1	-1E+10	1	-1E+10	1
4902554	77	C	03/25/2023	22:01	-132.645	47.935	0	537.60	0	4.0220	0	34.0900	0	27.064	0	532.400	0	-1e10	8	-1e10	8	-1E+10	1	-1E+10	1	-1E+10	1	-1E+10	1	-1E+10	1	-1E+10	1
4902554	77	C	03/25/2023	22:01	-132.645	47.935	0	542.80	0	4.0060	0	34.0970	0	27.071	0	537.543	0	-1e10	8	-1e10	8	-1E+10	1	-1E+10	1	-1E+10	1	-1E+10	1	-1E+10	1	-1E+10	1
4902554	77	C	03/25/2023	22:01	-132.645	47.935	0	548.10	0	4.0010	0	34.1010	0	27.075	0	542.785	0	-1e10	8	-1e10	8	-1E+10	1	-1E+10	1	-1E+10	1	-1E+10	1	-1E+10	1	-1E+10	1
4902554	77	C	03/25/2023	22:01	-132.645	47.935	0	552.80	0	3.9850	0	34.1050	0	27.080	0	547.433	0	-1e10	8	-1e10	8	-1E+10	1	-1E+10	1	-1E+10	1	-1E+10	1	-1E+10	1	-1E+10	1
4902554	77	C	03/25/2023	22:01	-132.645	47.935	0	557.90	0	3.9660	0	34.1110	0	27.087	0	552.477	0	-1e10	8	-1e10	8	-1E+10	1	-1E+10	1	-1E+10	1	-1E+10	1	-1E+10	1	-1E+10	1
4902554	77	C	03/25/2023	22:01	-132.645	47.935	0	562.90	0	3.9610	0	34.1140	0	27.090	0	557.422	0	-1e10	8	-1e10	8	-1E+10	1	-1E+10	1	-1E+10	1	-1E+10	1	-1E+10	1	-1E+10	1
4902554	77	C	03/25/2023	22:01	-132.645	47.935	0	567.70	0	3.9480	0	34.1180	0	27.094	0	562.169	0	-1e10	8	-1e10	8	-1E+10	1	-1E+10	1	-1E+10	1	-1E+10	1	-1E+10	1	-1E+10	1
4902554	77	C	03/25/2023	22:01	-132.645	47.935	0	572.60	0	3.9340	0	34.1240	0	27.100	0	567.014	0	-1e10	8	-1e10	8	-1E+10	1	-1E+10	1	-1E+10	1	-1E+10	1	-1E+10	1	-1E+10	1
4902554	77	C	03/25/2023	22:01	-132.645	47.935	0	577.70	0	3.9190	0	34.1290	0	27.106	0	572.057	0	-1e10	8	-1e10	8	-1E+10	1	-1E+10	1	-1E+10	1	-1E+10	1	-1E+10	1	-1E+10	1
4902554	77	C	03/25/2023	22:01	-132.645	47.935	0	582.80	0	3.9030	0	34.1360	0	27.113	0	577.101	0	-1e10	8	-1e10	8	-1E+10	1	-1E+10	1	-1E+10	1	-1E+10	1	-1E+10	1	-1E+10	1
4902554	77	C	03/25/2023	22:01	-132.645	47.935	0	588.10	0	3.8980	0	34.1380	0	27.115	0	582.341	0	-1e10	8	-1e10	8	-1E+10	1	-1E+10	1	-1E+10	1	-1E+10	1	-1E+10	1	-1E+10	1
4902554	77	C	03/25/2023	22:01	-132.645	47.935	0	593.10	0	3.8870	0	34.1410	0	27.119	0	587.285	0	-1e10	8	-1e10	8	-1E+10	1	-1E+10	1	-1E+10	1	-1E+10	1	-1E+10	1	-1E+10	1
4902554	77	C	03/25/2023	22:01	-132.645	47.935	0	598.00	0	3.8720	0	34.1460	0	27.124	0	592.130	0	-1e10	8	-1e10	8	-1E+10	1	-1E+10	1	-1E+10	1	-1E+10	1	-1E+10	1	-1E+10	1
4902554	77	C	03/25/2023	22:01	-132.645	47.935	0	603.00	0	3.8580	0	34.1510	0	27.130	0	597.074	0	-1e10	8	-1e10	8	-1E+10	1	-1E+10	1	-1E+10	1	-1E+10	1	-1E+10	1	-1E+10	1
4902554	77	C	03/25/2023	22:01	-132.645	47.935	0	608.00	0	3.8430	0	34.1560	0	27.135	0	602.018	0	-1e10	8	-1e10	8	-1E+10	1	-1E+10	1	-1E+10	1	-1E+10	1	-1E+10	1	-1E+10	1
4902554	77	C	03/25/2023	22:01	-132.645	47.935	0	613.00	0	3.8280	0	34.1610	0	27.141	0	606.961	0	-1e10	8	-1e10	8	-1E+10	1	-1E+10	1	-1E+10	1	-1E+10	1	-1E+10	1	-1E+10	1
4902554	77	C	03/25/2023	22:01	-132.645	47.935	0	617.70	0	3.8130	0	34.1660	0	27.146	0	611.608	0	-1e10	8	-1e10	8	-1E+10	1	-1E+10	1	-1E+10	1	-1E+10	1	-1E+10	1	-1E+10	1
4902554	77	C	03/25/2023	22:01	-132.645	47.935	0	622.90	0	3.8060	0	34.1690	0	27.149	0	616.749	0	-1e10	8	-1e10	8	-1E+10	1	-1E+10	1	-1E+10	1	-1E+10	1	-1E+10	1	-1E+10	1
4902554	77	C	03/25/2023	22:01	-132.645	47.935	0	628.10	0	3.8010	0	34.1700	0	27.151	0	621.890	0	-1e10	8	-1e10	8	-1E+10	1	-1E+10	1	-1E+10	1	-1E+10	1	-1E+10	1	-1E+10	1
4902554	77	C	03/25/2023	22:01	-132.645	47.935	0	632.80	0	3.7850	0	34.1760	0	27.157	0	626.536	0	-1e10	8	-1e10	8	-1E+10	1	-1E+10	1	-1E+10	1	-1E+10	1	-1E+10	1	-1E+10	1
4902554	77	C	03/25/2023	22:01	-132.645	47.935	0	637.60	0	3.7730	0	34.1810	0	27.162	0	631.282	0	-1e10	8	-1e10	8	-1E+10	1	-1E+10	1	-1E+10	1	-1E+10	1	-1E+10	1	-1E+10	1
4902554	77	C	03/25/2023	22:01	-132.645	47.935	0	642.90	0	3.7670	0	34.1830	0	27.164	0	636.521	0	-1e10	8	-1e10	8	-1E+10	1	-1E+10	1	-1E+10	1	-1E+10	1	-1E+10	1	-1E+10	1
4902554	77	C	03/25/2023	22:01	-132.645	47.935	0	648.30	0	3.7580	0	34.1860	0	27.168	0	641.859	0	-1e10	8	-1e10	8	-1E+10	1	-1E+10	1	-1E+10	1	-1E+10	1	-1E+10	1	-1E+10	1
4902554	77	C	03/25/2023	22:01	-132.645	47.935	0	653.30	0	3.7560	0	34.1870	0	27.169	0	646.802	0	-1e10	8	-1e10	8	-1E+10	1	-1E+10	1	-1E+10	1	-1E+10	1	-1E+10	1	-1E+10	1
4902554	77	C	03/25/2023	22:01	-132.645	47.935	0	658.20	0	3.7530	0	34.1890	0	27.171	0	651.645	0	-1e10	8	-1e10	8	-1E+10	1	-1E+10	1	-1E+10	1	-1E+10	1	-1E+10	1	-1E+10	1
4902554	77	C	03/25/2023	22:01	-132.645	47.935	0	663.20	0	3.7360	0	34.1960	0	27.178	0	656.588	0	-1e10	8	-1e10	8	-1E+10	1	-1E+10	1	-1E+10	1	-1E+10	1	-1E+10	1	-1E+10	1
4902554	77	C	03/25/2023	22:01	-132.645	47.935	0	668.00	0	3.7310	0	34.1970	0	27.179	0	661.332	0	-1e10	8	-1e10	8	-1E+10	1	-1E+10	1	-1E+10	1	-1E+10	1	-1E+10	1	-1E+10	1
4902554	77	C	03/25/2023	22:01	-132.645	47.935	0	672.70	0	3.7270	0	34.2000	0	27.182	0	665.978	0	-1e10	8	-1e10	8	-1E+10	1	-1E+10	1	-1E+10	1	-1E+10	1	-1E+10	1	-1E+10	1
4902554	77	C	03/25/2023	22:01	-132.645	47.935	0	678.00	0	3.7180	0	34.2030	0	27.185	0	671.216	0	-1e10	8	-1e10	8	-1E+10	1	-1E+10	1	-1E+10	1	-1E+10	1	-1E+10	1	-1E+10	1
4902554	77	C	03/25/2023	22:01	-132.645	47.935	0	683.10	0	3.7000	0	34.2090	0	27.192	0	676.257	0	-1e10	8	-1e10	8	-1E+10	1	-1E+10	1	-1E+10	1	-1E+10	1	-1E+10	1	-1E+10	1
4902554	77	C	03/25/2023	22:01	-132.645	47.935	0	687.90	0	3.6860	0	34.2130	0	27.197	0	681.001	0	-1e10	8	-1e10	8	-1E+10	1	-1E+10	1	-1E+10	1	-1E+10	1	-1E+10	1	-1E+10	1
4902554	77	C	03/25/2023	22:01	-132.645	47.935	0	692.80	0	3.6780	0	34.2160	0	27.200	0	685.844	0	-1e10	8	-1e10	8	-1E+10	1	-1E+10	1	-1E+10	1	-1E+10	1	-1E+10	1	-1E+10	1
4902554	77	C	03/25/2023	22:01	-132.645	47.935	0	697.80	0	3.6660	0	34.2200	0	27.204	0	690.785	0	-1e10	8	-1e10	8	-1E+10	1	-1E+10	1	-1E+10	1	-1E+10	1	-1E+10	1	-1E+10	1
4902554	77	C	03/25/2023	22:01	-132.645	47.935	0	702.90	0	3.6560	0	34.2220	0	27.207	0	695.825	0	-1e10	8	-1e10	8	-1E+10	1	-1E+10	1	-1E+10	1	-1E+10	1	-1E+10	1	-1E+10	1
4902554	77	C	03/25/2023	22:01	-132.645	47.935	0	708.10	0	3.6450	0	34.2250	0	27.210	0	700.964	0	-1e10	8	-1e10	8	-1E+10	1	-1E+10	1	-1E+10	1	-1E+10	1	-1E+10	1	-1E+10	1
4902554	77	C	03/25/2023	22:01	-132.645	47.935	0	713.00	0	3.6390	0	34.2270	0	27.213	0	705.807	0	-1e10	8	-1e10	8	-1E+10	1	-1E+10	1	-1E+10	1	-1E+10	1	-1E+10	1	-1E+10	1
4902554	77	C	03/25/2023	22:01	-132.645	47.935	0	717.90	0	3.6340	0	34.2290	0	27.215	0	710.649	0	-1e10	8	-1e10	8	-1E+10	1	-1E+10	1	-1E+10	1	-1E+10	1	-1E+10	1	-1E+10	1
4902554	77	C	03/25/2023	22:01	-132.645	47.935	0	722.90	0	3.6260	0	34.2300	0	27.216	0	715.590	0	-1e10	8	-1e10	8	-1E+10	1	-1E+10	1	-1E+10	1	-1E+10	1	-1E+10	1	-1E+10	1
4902554	77	C	03/25/2023	22:01	-132.645	47.935	0	727.80	0	3.6170	0	34.2330	0	27.220	0	720.432	0	-1e10	8	-1e10	8	-1E+10	1	-1E+10	1	-1E+10	1	-1E+10	1	-1E+10	1	-1E+10	1
4902554	77	C	03/25/2023	22:01	-132.645	47.935	0	732.90	0	3.5950	0	34.2390	0	27.227	0	725.471	0	-1e10	8	-1e10	8	-1E+10	1	-1E+10	1	-1E+10	1	-1E+10	1	-1E+10	1	-1E+10	1
4902554	77	C	03/25/2023	22:01	-132.645	47.935	0	738.00	0	3.5790	0	34.2420	0	27.231	0	730.511	0	-1e10	8	-1e10	8	-1E+10	1	-1E+10	1	-1E+10	1	-1E+10	1	-1E+10	1	-1E+10	1
4902554	77	C	03/25/2023	22:01	-132.645	47.935	0	743.20	0	3.5690	0	34.2450	0	27.234	0	735.649	0	-1e10	8	-1e10	8	-1E+10	1	-1E+10	1	-1E+10	1	-1E+10	1	-1E+10	1	-1E+10	1
4902554	77	C	03/25/2023	22:01	-132.645	47.935	0	748.00	0	3.5620	0	34.2480	0	27.237	0	740.392	0	-1e10	8	-1e10	8	-1E+10	1	-1E+10	1	-1E+10	1	-1E+10	1	-1E+10	1	-1E+10	1
4902554	77	C	03/25/2023	22:01	-132.645	47.935	0	752.80	0	3.5590	0	34.2480	0	27.237	0	745.134	0	-1e10	8	-1e10	8	-1E+10	1	-1E+10	1	-1E+10	1	-1E+10	1	-1E+10	1	-1E+10	1
4902554	77	C	03/25/2023	22:01	-132.645	47.935	0	757.60	0	3.5540	0	34.2500	0	27.239	0	749.877	0	-1e10	8	-1e10	8	-1E+10	1	-1E+10	1	-1E+10	1	-1E+10	1	-1E+10	1	-1E+10	1
4902554	77	C	03/25/2023	22:01	-132.645	47.935	0	762.50	0	3.5350	0	34.2550	0	27.245	0	754.718	0	-1e10	8	-1e10	8	-1E+10	1	-1E+10	1	-1E+10	1	-1E+10	1	-1E+10	1	-1E+10	1
4902554	77	C	03/25/2023	22:01	-132.645	47.935	0	767.90	0	3.5210	0	34.2580	0	27.249	0	760.053	0	-1e10	8	-1e10	8	-1E+10	1	-1E+10	1	-1E+10	1	-1E+10	1	-1E+10	1	-1E+10	1
4902554	77	C	03/25/2023	22:01	-132.645	47.935	0	773.40	0	3.5110	0	34.2600	0	27.252	0	765.487	0	-1e10	8	-1e10	8	-1E+10	1	-1E+10	1	-1E+10	1	-1E+10	1	-1E+10	1	-1E+10	1
4902554	77	C	03/25/2023	22:01	-132.645	47.935	0	778.40	0	3.5000	0	34.2630	0	27.255	0	770.426	0	-1e10	8	-1e10	8	-1E+10	1	-1E+10	1	-1E+10	1	-1E+10	1	-1E+10	1	-1E+10	1
4902554	77	C	03/25/2023	22:01	-132.645	47.935	0	783.40	0	3.4830	0	34.2670	0	27.260	0	775.366	0	-1e10	8	-1e10	8	-1E+10	1	-1E+10	1	-1E+10	1	-1E+10	1	-1E+10	1	-1E+10	1
4902554	77	C	03/25/2023	22:01	-132.645	47.935	0	788.40	0	3.4690	0	34.2700	0	27.264	0	780.305	0	-1e10	8	-1e10	8	-1E+10	1	-1E+10	1	-1E+10	1	-1E+10	1	-1E+10	1	-1E+10	1
4902554	77	C	03/25/2023	22:01	-132.645	47.935	0	793.40	0	3.4580	0	34.2730	0	27.267	0	785.244	0	-1e10	8	-1e10	8	-1E+10	1	-1E+10	1	-1E+10	1	-1E+10	1	-1E+10	1	-1E+10	1
4902554	77	C	03/25/2023	22:01	-132.645	47.935	0	798.40	0	3.4460	0	34.2760	0	27.271	0	790.184	0	-1e10	8	-1e10	8	-1E+10	1	-1E+10	1	-1E+10	1	-1E+10	1	-1E+10	1	-1E+10	1
4902554	77	C	03/25/2023	22:01	-132.645	47.935	0	802.90	0	3.4370	0	34.2780	0	27.273	0	794.629	0	-1e10	8	-1e10	8	-1E+10	1	-1E+10	1	-1E+10	1	-1E+10	1	-1E+10	1	-1E+10	1
4902554	77	C	03/25/2023	22:01	-132.645	47.935	0	807.90	0	3.4170	0	34.2820	0	27.278	0	799.568	0	-1e10	8	-1e10	8	-1E+10	1	-1E+10	1	-1E+10	1	-1E+10	1	-1E+10	1	-1E+10	1
4902554	77	C	03/25/2023	22:01	-132.645	47.935	0	813.40	0	3.4000	0	34.2860	0	27.283	0	805.000	0	-1e10	8	-1e10	8	-1E+10	1	-1E+10	1	-1E+10	1	-1E+10	1	-1E+10	1	-1E+10	1
4902554	77	C	03/25/2023	22:01	-132.645	47.935	0	818.40	0	3.3890	0	34.2880	0	27.286	0	809.939	0	-1e10	8	-1e10	8	-1E+10	1	-1E+10	1	-1E+10	1	-1E+10	1	-1E+10	1	-1E+10	1
4902554	77	C	03/25/2023	22:01	-132.645	47.935	0	822.90	0	3.3790	0	34.2910	0	27.289	0	814.384	0	-1e10	8	-1e10	8	-1E+10	1	-1E+10	1	-1E+10	1	-1E+10	1	-1E+10	1	-1E+10	1
4902554	77	C	03/25/2023	22:01	-132.645	47.935	0	827.50	0	3.3720	0	34.2930	0	27.292	0	818.927	0	-1e10	8	-1e10	8	-1E+10	1	-1E+10	1	-1E+10	1	-1E+10	1	-1E+10	1	-1E+10	1
4902554	77	C	03/25/2023	22:01	-132.645	47.935	0	832.60	0	3.3610	0	34.2950	0	27.294	0	823.964	0	-1e10	8	-1e10	8	-1E+10	1	-1E+10	1	-1E+10	1	-1E+10	1	-1E+10	1	-1E+10	1
4902554	77	C	03/25/2023	22:01	-132.645	47.935	0	837.60	0	3.3540	0	34.2970	0	27.297	0	828.902	0	-1e10	8	-1e10	8	-1E+10	1	-1E+10	1	-1E+10	1	-1E+10	1	-1E+10	1	-1E+10	1
4902554	77	C	03/25/2023	22:01	-132.645	47.935	0	842.60	0	3.3510	0	34.2980	0	27.298	0	833.840	0	-1e10	8	-1e10	8	-1E+10	1	-1E+10	1	-1E+10	1	-1E+10	1	-1E+10	1	-1E+10	1
4902554	77	C	03/25/2023	22:01	-132.645	47.935	0	847.70	0	3.3490	0	34.2990	0	27.299	0	838.877	0	-1e10	8	-1e10	8	-1E+10	1	-1E+10	1	-1E+10	1	-1E+10	1	-1E+10	1	-1E+10	1
4902554	77	C	03/25/2023	22:01	-132.645	47.935	0	852.80	0	3.3480	0	34.2990	0	27.299	0	843.914	0	-1e10	8	-1e10	8	-1E+10	1	-1E+10	1	-1E+10	1	-1E+10	1	-1E+10	1	-1E+10	1
4902554	77	C	03/25/2023	22:01	-132.645	47.935	0	858.00	0	3.3460	0	34.3000	0	27.300	0	849.049	0	-1e10	8	-1e10	8	-1E+10	1	-1E+10	1	-1E+10	1	-1E+10	1	-1E+10	1	-1E+10	1
4902554	77	C	03/25/2023	22:01	-132.645	47.935	0	863.10	0	3.3330	0	34.3040	0	27.304	0	854.086	0	-1e10	8	-1e10	8	-1E+10	1	-1E+10	1	-1E+10	1	-1E+10	1	-1E+10	1	-1E+10	1
4902554	77	C	03/25/2023	22:01	-132.645	47.935	0	868.20	0	3.3190	0	34.3070	0	27.308	0	859.122	0	-1e10	8	-1e10	8	-1E+10	1	-1E+10	1	-1E+10	1	-1E+10	1	-1E+10	1	-1E+10	1
4902554	77	C	03/25/2023	22:01	-132.645	47.935	0	873.30	0	3.3040	0	34.3100	0	27.312	0	864.158	0	-1e10	8	-1e10	8	-1E+10	1	-1E+10	1	-1E+10	1	-1E+10	1	-1E+10	1	-1E+10	1
4902554	77	C	03/25/2023	22:01	-132.645	47.935	0	878.00	0	3.2980	0	34.3120	0	27.314	0	868.799	0	-1e10	8	-1e10	8	-1E+10	1	-1E+10	1	-1E+10	1	-1E+10	1	-1E+10	1	-1E+10	1
4902554	77	C	03/25/2023	22:01	-132.645	47.935	0	882.70	0	3.2920	0	34.3130	0	27.315	0	873.440	0	-1e10	8	-1e10	8	-1E+10	1	-1E+10	1	-1E+10	1	-1E+10	1	-1E+10	1	-1E+10	1
4902554	77	C	03/25/2023	22:01	-132.645	47.935	0	887.90	0	3.2820	0	34.3150	0	27.318	0	878.574	0	-1e10	8	-1e10	8	-1E+10	1	-1E+10	1	-1E+10	1	-1E+10	1	-1E+10	1	-1E+10	1
4902554	77	C	03/25/2023	22:01	-132.645	47.935	0	893.10	0	3.2720	0	34.3170	0	27.321	0	883.709	0	-1e10	8	-1e10	8	-1E+10	1	-1E+10	1	-1E+10	1	-1E+10	1	-1E+10	1	-1E+10	1
4902554	77	C	03/25/2023	22:01	-132.645	47.935	0	898.20	0	3.2520	0	34.3220	0	27.326	0	888.744	0	-1e10	8	-1e10	8	-1E+10	1	-1E+10	1	-1E+10	1	-1E+10	1	-1E+10	1	-1E+10	1
4902554	77	C	03/25/2023	22:01	-132.645	47.935	0	902.90	0	3.2420	0	34.3250	0	27.330	0	893.385	0	-1e10	8	-1e10	8	-1E+10	1	-1E+10	1	-1E+10	1	-1E+10	1	-1E+10	1	-1E+10	1
4902554	77	C	03/25/2023	22:01	-132.645	47.935	0	907.90	0	3.2380	0	34.3250	0	27.330	0	898.321	0	-1e10	8	-1e10	8	-1E+10	1	-1E+10	1	-1E+10	1	-1E+10	1	-1E+10	1	-1E+10	1
4902554	77	C	03/25/2023	22:01	-132.645	47.935	0	912.90	0	3.2270	0	34.3280	0	27.334	0	903.258	0	-1e10	8	-1e10	8	-1E+10	1	-1E+10	1	-1E+10	1	-1E+10	1	-1E+10	1	-1E+10	1
4902554	77	C	03/25/2023	22:01	-132.645	47.935	0	917.90	0	3.2130	0	34.3310	0	27.337	0	908.194	0	-1e10	8	-1e10	8	-1E+10	1	-1E+10	1	-1E+10	1	-1E+10	1	-1E+10	1	-1E+10	1
4902554	77	C	03/25/2023	22:01	-132.645	47.935	0	922.90	0	3.1990	0	34.3340	0	27.341	0	913.131	0	-1e10	8	-1e10	8	-1E+10	1	-1E+10	1	-1E+10	1	-1E+10	1	-1E+10	1	-1E+10	1
4902554	77	C	03/25/2023	22:01	-132.645	47.935	0	927.70	0	3.1890	0	34.3360	0	27.344	0	917.869	0	-1e10	8	-1e10	8	-1E+10	1	-1E+10	1	-1E+10	1	-1E+10	1	-1E+10	1	-1E+10	1
4902554	77	C	03/25/2023	22:01	-132.645	47.935	0	932.60	0	3.1730	0	34.3390	0	27.347	0	922.706	0	-1e10	8	-1e10	8	-1E+10	1	-1E+10	1	-1E+10	1	-1E+10	1	-1E+10	1	-1E+10	1
4902554	77	C	03/25/2023	22:01	-132.645	47.935	0	938.00	0	3.1600	0	34.3420	0	27.351	0	928.037	0	-1e10	8	-1e10	8	-1E+10	1	-1E+10	1	-1E+10	1	-1E+10	1	-1E+10	1	-1E+10	1
4902554	77	C	03/25/2023	22:01	-132.645	47.935	0	942.90	0	3.1560	0	34.3440	0	27.353	0	932.874	0	-1e10	8	-1e10	8	-1E+10	1	-1E+10	1	-1E+10	1	-1E+10	1	-1E+10	1	-1E+10	1
4902554	77	C	03/25/2023	22:01	-132.645	47.935	0	947.80	0	3.1460	0	34.3460	0	27.356	0	937.711	0	-1e10	8	-1e10	8	-1E+10	1	-1E+10	1	-1E+10	1	-1E+10	1	-1E+10	1	-1E+10	1
4902554	77	C	03/25/2023	22:01	-132.645	47.935	0	952.80	0	3.1360	0	34.3490	0	27.359	0	942.647	0	-1e10	8	-1e10	8	-1E+10	1	-1E+10	1	-1E+10	1	-1E+10	1	-1E+10	1	-1E+10	1
4902554	77	C	03/25/2023	22:01	-132.645	47.935	0	957.80	0	3.1280	0	34.3510	0	27.361	0	947.582	0	-1e10	8	-1e10	8	-1E+10	1	-1E+10	1	-1E+10	1	-1E+10	1	-1E+10	1	-1E+10	1
4902554	77	C	03/25/2023	22:01	-132.645	47.935	0	962.80	0	3.1190	0	34.3530	0	27.364	0	952.517	0	-1e10	8	-1e10	8	-1E+10	1	-1E+10	1	-1E+10	1	-1E+10	1	-1E+10	1	-1E+10	1
4902554	77	C	03/25/2023	22:01	-132.645	47.935	0	967.70	0	3.1130	0	34.3540	0	27.365	0	957.354	0	-1e10	8	-1e10	8	-1E+10	1	-1E+10	1	-1E+10	1	-1E+10	1	-1E+10	1	-1E+10	1
4902554	77	C	03/25/2023	22:01	-132.645	47.935	0	972.80	0	3.1090	0	34.3550	0	27.366	0	962.388	0	-1e10	8	-1e10	8	-1E+10	1	-1E+10	1	-1E+10	1	-1E+10	1	-1E+10	1	-1E+10	1
4902554	77	C	03/25/2023	22:01	-132.645	47.935	0	977.90	0	3.1040	0	34.3560	0	27.368	0	967.421	0	-1e10	8	-1e10	8	-1E+10	1	-1E+10	1	-1E+10	1	-1E+10	1	-1E+10	1	-1E+10	1
4902554	77	C	03/25/2023	22:01	-132.645	47.935	0	983.00	0	3.0900	0	34.3600	0	27.372	0	972.455	0	-1e10	8	-1e10	8	-1E+10	1	-1E+10	1	-1E+10	1	-1E+10	1	-1E+10	1	-1E+10	1
4902554	77	C	03/25/2023	22:01	-132.645	47.935	0	987.60	0	3.0810	0	34.3620	0	27.375	0	976.995	0	-1e10	8	-1e10	8	-1E+10	1	-1E+10	1	-1E+10	1	-1E+10	1	-1E+10	1	-1E+10	1
4902554	77	C	03/25/2023	22:01	-132.645	47.935	0	992.70	0	3.0700	0	34.3640	0	27.377	0	982.028	0	-1e10	8	-1e10	8	-1E+10	1	-1E+10	1	-1E+10	1	-1E+10	1	-1E+10	1	-1E+10	1
4902554	77	C	03/25/2023	22:01	-132.645	47.935	0	997.80	0	3.0610	0	34.3660	0	27.380	0	987.061	0	-1e10	8	-1e10	8	-1E+10	1	-1E+10	1	-1E+10	1	-1E+10	1	-1E+10	1	-1E+10	1
4902554	77	C	03/25/2023	22:01	-132.645	47.935	0	1005.40	0	3.0520	0	34.3680	0	27.382	0	994.561	0	-1e10	8	-1e10	8	-1E+10	1	-1E+10	1	-1E+10	1	-1E+10	1	-1E+10	1	-1E+10	1
4902554	77	C	03/25/2023	22:01	-132.645	47.935	0	1015.40	0	3.0360	0	34.3730	0	27.388	0	1004.430	0	-1e10	8	-1e10	8	-1E+10	1	-1E+10	1	-1E+10	1	-1E+10	1	-1E+10	1	-1E+10	1
4902554	77	C	03/25/2023	22:01	-132.645	47.935	0	1025.30	0	3.0170	0	34.3770	0	27.393	0	1014.199	0	-1e10	8	-1e10	8	-1E+10	1	-1E+10	1	-1E+10	1	-1E+10	1	-1E+10	1	-1E+10	1
4902554	77	C	03/25/2023	22:01	-132.645	47.935	0	1035.30	0	2.9950	0	34.3810	0	27.398	0	1024.066	0	-1e10	8	-1e10	8	-1E+10	1	-1E+10	1	-1E+10	1	-1E+10	1	-1E+10	1	-1E+10	1
4902554	77	C	03/25/2023	22:01	-132.645	47.935	0	1045.40	0	2.9830	0	34.3860	0	27.403	0	1034.032	0	-1e10	8	-1e10	8	-1E+10	1	-1E+10	1	-1E+10	1	-1E+10	1	-1E+10	1	-1E+10	1
4902554	77	C	03/25/2023	22:01	-132.645	47.935	0	1055.50	0	2.9560	0	34.3910	0	27.409	0	1043.997	0	-1e10	8	-1e10	8	-1E+10	1	-1E+10	1	-1E+10	1	-1E+10	1	-1E+10	1	-1E+10	1
4902554	77	C	03/25/2023	22:01	-132.645	47.935	0	1065.40	0	2.9460	0	34.3930	0	27.412	0	1053.764	0	-1e10	8	-1e10	8	-1E+10	1	-1E+10	1	-1E+10	1	-1E+10	1	-1E+10	1	-1E+10	1
4902554	77	C	03/25/2023	22:01	-132.645	47.935	0	1075.30	0	2.9370	0	34.3950	0	27.414	0	1063.531	0	-1e10	8	-1e10	8	-1E+10	1	-1E+10	1	-1E+10	1	-1E+10	1	-1E+10	1	-1E+10	1
4902554	77	C	03/25/2023	22:01	-132.645	47.935	0	1085.50	0	2.9230	0	34.3990	0	27.419	0	1073.593	0	-1e10	8	-1e10	8	-1E+10	1	-1E+10	1	-1E+10	1	-1E+10	1	-1E+10	1	-1E+10	1
4902554	77	C	03/25/2023	22:01	-132.645	47.935	0	1095.80	0	2.9050	0	34.4030	0	27.424	0	1083.753	0	-1e10	8	-1e10	8	-1E+10	1	-1E+10	1	-1E+10	1	-1E+10	1	-1E+10	1	-1E+10	1
4902554	77	C	03/25/2023	22:01	-132.645	47.935	0	1105.50	0	2.8860	0	34.4070	0	27.429	0	1093.321	0	-1e10	8	-1e10	8	-1E+10	1	-1E+10	1	-1E+10	1	-1E+10	1	-1E+10	1	-1E+10	1
4902554	77	C	03/25/2023	22:01	-132.645	47.935	0	1115.30	0	2.8800	0	34.4080	0	27.430	0	1102.988	0	-1e10	8	-1e10	8	-1E+10	1	-1E+10	1	-1E+10	1	-1E+10	1	-1E+10	1	-1E+10	1
4902554	77	C	03/25/2023	22:01	-132.645	47.935	0	1125.50	0	2.8740	0	34.4100	0	27.432	0	1113.048	0	-1e10	8	-1e10	8	-1E+10	1	-1E+10	1	-1E+10	1	-1E+10	1	-1E+10	1	-1E+10	1
4902554	77	C	03/25/2023	22:01	-132.645	47.935	0	1135.70	0	2.8670	0	34.4110	0	27.434	0	1123.108	0	-1e10	8	-1e10	8	-1E+10	1	-1E+10	1	-1E+10	1	-1E+10	1	-1E+10	1	-1E+10	1
4902554	77	C	03/25/2023	22:01	-132.645	47.935	0	1145.80	0	2.8560	0	34.4130	0	27.436	0	1133.069	0	-1e10	8	-1e10	8	-1E+10	1	-1E+10	1	-1E+10	1	-1E+10	1	-1E+10	1	-1E+10	1
4902554	77	C	03/25/2023	22:01	-132.645	47.935	0	1155.40	0	2.8420	0	34.4150	0	27.439	0	1142.536	0	-1e10	8	-1e10	8	-1E+10	1	-1E+10	1	-1E+10	1	-1E+10	1	-1E+10	1	-1E+10	1
4902554	77	C	03/25/2023	22:01	-132.645	47.935	0	1165.30	0	2.8260	0	34.4180	0	27.443	0	1152.299	0	-1e10	8	-1e10	8	-1E+10	1	-1E+10	1	-1E+10	1	-1E+10	1	-1E+10	1	-1E+10	1
4902554	77	C	03/25/2023	22:01	-132.645	47.935	0	1175.30	0	2.8030	0	34.4220	0	27.448	0	1162.160	0	-1e10	8	-1e10	8	-1E+10	1	-1E+10	1	-1E+10	1	-1E+10	1	-1E+10	1	-1E+10	1
4902554	77	C	03/25/2023	22:01	-132.645	47.935	0	1185.50	0	2.7910	0	34.4240	0	27.451	0	1172.217	0	-1e10	8	-1e10	8	-1E+10	1	-1E+10	1	-1E+10	1	-1E+10	1	-1E+10	1	-1E+10	1
4902554	77	C	03/25/2023	22:01	-132.645	47.935	0	1195.90	0	2.7750	0	34.4270	0	27.455	0	1182.471	0	-1e10	8	-1e10	8	-1E+10	1	-1E+10	1	-1E+10	1	-1E+10	1	-1E+10	1	-1E+10	1
4902554	77	C	03/25/2023	22:01	-132.645	47.935	0	1205.70	0	2.7570	0	34.4310	0	27.460	0	1192.133	0	-1e10	8	-1e10	8	-1E+10	1	-1E+10	1	-1E+10	1	-1E+10	1	-1E+10	1	-1E+10	1
4902554	77	C	03/25/2023	22:01	-132.645	47.935	0	1215.40	0	2.7440	0	34.4320	0	27.462	0	1201.697	0	-1e10	8	-1e10	8	-1E+10	1	-1E+10	1	-1E+10	1	-1E+10	1	-1E+10	1	-1E+10	1
4902554	77	C	03/25/2023	22:01	-132.645	47.935	0	1225.50	0	2.7210	0	34.4350	0	27.466	0	1211.654	0	-1e10	8	-1e10	8	-1E+10	1	-1E+10	1	-1E+10	1	-1E+10	1	-1E+10	1	-1E+10	1
4902554	77	C	03/25/2023	22:01	-132.645	47.935	0	1235.60	0	2.7050	0	34.4380	0	27.470	0	1221.610	0	-1e10	8	-1e10	8	-1E+10	1	-1E+10	1	-1E+10	1	-1E+10	1	-1E+10	1	-1E+10	1
4902554	77	C	03/25/2023	22:01	-132.645	47.935	0	1245.60	0	2.6820	0	34.4430	0	27.476	0	1231.468	0	-1e10	8	-1e10	8	-1E+10	1	-1E+10	1	-1E+10	1	-1E+10	1	-1E+10	1	-1E+10	1
4902554	77	C	03/25/2023	22:01	-132.645	47.935	0	1255.60	0	2.6570	0	34.4470	0	27.482	0	1241.325	0	-1e10	8	-1e10	8	-1E+10	1	-1E+10	1	-1E+10	1	-1E+10	1	-1E+10	1	-1E+10	1
4902554	77	C	03/25/2023	22:01	-132.645	47.935	0	1265.70	0	2.6500	0	34.4480	0	27.483	0	1251.280	0	-1e10	8	-1e10	8	-1E+10	1	-1E+10	1	-1E+10	1	-1E+10	1	-1E+10	1	-1E+10	1
4902554	77	C	03/25/2023	22:01	-132.645	47.935	0	1275.70	0	2.6470	0	34.4500	0	27.485	0	1261.136	0	-1e10	8	-1e10	8	-1E+10	1	-1E+10	1	-1E+10	1	-1E+10	1	-1E+10	1	-1E+10	1
4902554	77	C	03/25/2023	22:01	-132.645	47.935	0	1285.80	0	2.6380	0	34.4510	0	27.487	0	1271.090	0	-1e10	8	-1e10	8	-1E+10	1	-1E+10	1	-1E+10	1	-1E+10	1	-1E+10	1	-1E+10	1
4902554	77	C	03/25/2023	22:01	-132.645	47.935	0	1295.30	0	2.6190	0	34.4540	0	27.491	0	1280.453	0	-1e10	8	-1e10	8	-1E+10	1	-1E+10	1	-1E+10	1	-1E+10	1	-1E+10	1	-1E+10	1
4902554	77	C	03/25/2023	22:01	-132.645	47.935	0	1305.40	0	2.6100	0	34.4560	0	27.493	0	1290.406	0	-1e10	8	-1e10	8	-1E+10	1	-1E+10	1	-1E+10	1	-1E+10	1	-1E+10	1	-1E+10	1
4902554	77	C	03/25/2023	22:01	-132.645	47.935	0	1315.50	0	2.6020	0	34.4570	0	27.495	0	1300.359	0	-1e10	8	-1e10	8	-1E+10	1	-1E+10	1	-1E+10	1	-1E+10	1	-1E+10	1	-1E+10	1
4902554	77	C	03/25/2023	22:01	-132.645	47.935	0	1325.20	0	2.5890	0	34.4610	0	27.499	0	1309.917	0	-1e10	8	-1e10	8	-1E+10	1	-1E+10	1	-1E+10	1	-1E+10	1	-1E+10	1	-1E+10	1
4902554	77	C	03/25/2023	22:01	-132.645	47.935	0	1335.50	0	2.5780	0	34.4630	0	27.502	0	1320.066	0	-1e10	8	-1e10	8	-1E+10	1	-1E+10	1	-1E+10	1	-1E+10	1	-1E+10	1	-1E+10	1
4902554	77	C	03/25/2023	22:01	-132.645	47.935	0	1345.50	0	2.5640	0	34.4650	0	27.504	0	1329.919	0	-1e10	8	-1e10	8	-1E+10	1	-1E+10	1	-1E+10	1	-1E+10	1	-1E+10	1	-1E+10	1
4902554	77	C	03/25/2023	22:01	-132.645	47.935	0	1355.40	0	2.5480	0	34.4680	0	27.508	0	1339.673	0	-1e10	8	-1e10	8	-1E+10	1	-1E+10	1	-1E+10	1	-1E+10	1	-1E+10	1	-1E+10	1
4902554	77	C	03/25/2023	22:01	-132.645	47.935	0	1365.60	0	2.5290	0	34.4720	0	27.513	0	1349.722	0	-1e10	8	-1e10	8	-1E+10	1	-1E+10	1	-1E+10	1	-1E+10	1	-1E+10	1	-1E+10	1
4902554	77	C	03/25/2023	22:01	-132.645	47.935	0	1375.50	0	2.5250	0	34.4730	0	27.514	0	1359.475	0	-1e10	8	-1e10	8	-1E+10	1	-1E+10	1	-1E+10	1	-1E+10	1	-1E+10	1	-1E+10	1
4902554	77	C	03/25/2023	22:01	-132.645	47.935	0	1385.30	0	2.5160	0	34.4750	0	27.517	0	1369.129	0	-1e10	8	-1e10	8	-1E+10	1	-1E+10	1	-1E+10	1	-1E+10	1	-1E+10	1	-1E+10	1
4902554	77	C	03/25/2023	22:01	-132.645	47.935	0	1395.10	0	2.5090	0	34.4760	0	27.518	0	1378.783	0	-1e10	8	-1e10	8	-1E+10	1	-1E+10	1	-1E+10	1	-1E+10	1	-1E+10	1	-1E+10	1
4902554	77	C	03/25/2023	22:01	-132.645	47.935	0	1405.10	0	2.4960	0	34.4790	0	27.522	0	1388.633	0	-1e10	8	-1e10	8	-1E+10	1	-1E+10	1	-1E+10	1	-1E+10	1	-1E+10	1	-1E+10	1
4902554	77	C	03/25/2023	22:01	-132.645	47.935	0	1415.20	0	2.4810	0	34.4800	0	27.524	0	1398.581	0	-1e10	8	-1e10	8	-1E+10	1	-1E+10	1	-1E+10	1	-1E+10	1	-1E+10	1	-1E+10	1
4902554	77	C	03/25/2023	22:01	-132.645	47.935	0	1425.40	0	2.4640	0	34.4840	0	27.528	0	1408.627	0	-1e10	8	-1e10	8	-1E+10	1	-1E+10	1	-1E+10	1	-1E+10	1	-1E+10	1	-1E+10	1
4902554	77	C	03/25/2023	22:01	-132.645	47.935	0	1435.50	0	2.4580	0	34.4850	0	27.530	0	1418.574	0	-1e10	8	-1e10	8	-1E+10	1	-1E+10	1	-1E+10	1	-1E+10	1	-1E+10	1	-1E+10	1
4902554	77	C	03/25/2023	22:01	-132.645	47.935	0	1445.50	0	2.4400	0	34.4880	0	27.534	0	1428.423	0	-1e10	8	-1e10	8	-1E+10	1	-1E+10	1	-1E+10	1	-1E+10	1	-1E+10	1	-1E+10	1
4902554	77	C	03/25/2023	22:01	-132.645	47.935	0	1455.60	0	2.4240	0	34.4910	0	27.538	0	1438.369	0	-1e10	8	-1e10	8	-1E+10	1	-1E+10	1	-1E+10	1	-1E+10	1	-1E+10	1	-1E+10	1
4902554	77	C	03/25/2023	22:01	-132.645	47.935	0	1465.70	0	2.4130	0	34.4940	0	27.541	0	1448.315	0	-1e10	8	-1e10	8	-1E+10	1	-1E+10	1	-1E+10	1	-1E+10	1	-1E+10	1	-1E+10	1
4902554	77	C	03/25/2023	22:01	-132.645	47.935	0	1475.50	0	2.4030	0	34.4950	0	27.543	0	1457.965	0	-1e10	8	-1e10	8	-1E+10	1	-1E+10	1	-1E+10	1	-1E+10	1	-1E+10	1	-1E+10	1
4902554	77	C	03/25/2023	22:01	-132.645	47.935	0	1485.30	0	2.3910	0	34.4980	0	27.546	0	1467.614	0	-1e10	8	-1e10	8	-1E+10	1	-1E+10	1	-1E+10	1	-1E+10	1	-1E+10	1	-1E+10	1
4902554	77	C	03/25/2023	22:01	-132.645	47.935	0	1495.60	0	2.3700	0	34.5020	0	27.551	0	1477.756	0	-1e10	8	-1e10	8	-1E+10	1	-1E+10	1	-1E+10	1	-1E+10	1	-1E+10	1	-1E+10	1
4902554	77	C	03/25/2023	22:01	-132.645	47.935	0	1505.30	0	2.3650	0	34.5030	0	27.552	0	1487.306	0	-1e10	8	-1e10	8	-1E+10	1	-1E+10	1	-1E+10	1	-1E+10	1	-1E+10	1	-1E+10	1
4902554	77	C	03/25/2023	22:01	-132.645	47.935	0	1515.20	0	2.3530	0	34.5060	0	27.556	0	1497.052	0	-1e10	8	-1e10	8	-1E+10	1	-1E+10	1	-1E+10	1	-1E+10	1	-1E+10	1	-1E+10	1
4902554	77	C	03/25/2023	22:01	-132.645	47.935	0	1525.60	0	2.3450	0	34.5070	0	27.557	0	1507.291	0	-1e10	8	-1e10	8	-1E+10	1	-1E+10	1	-1E+10	1	-1E+10	1	-1E+10	1	-1E+10	1
4902554	77	C	03/25/2023	22:01	-132.645	47.935	0	1535.60	0	2.3370	0	34.5090	0	27.560	0	1517.135	0	-1e10	8	-1e10	8	-1E+10	1	-1E+10	1	-1E+10	1	-1E+10	1	-1E+10	1	-1E+10	1
4902554	77	C	03/25/2023	22:01	-132.645	47.935	0	1545.50	0	2.3310	0	34.5100	0	27.561	0	1526.880	0	-1e10	8	-1e10	8	-1E+10	1	-1E+10	1	-1E+10	1	-1E+10	1	-1E+10	1	-1E+10	1
4902554	77	C	03/25/2023	22:01	-132.645	47.935	0	1555.40	0	2.3160	0	34.5130	0	27.565	0	1536.625	0	-1e10	8	-1e10	8	-1E+10	1	-1E+10	1	-1E+10	1	-1E+10	1	-1E+10	1	-1E+10	1
4902554	77	C	03/25/2023	22:01	-132.645	47.935	0	1565.40	0	2.2990	0	34.5170	0	27.569	0	1546.468	0	-1e10	8	-1e10	8	-1E+10	1	-1E+10	1	-1E+10	1	-1E+10	1	-1E+10	1	-1E+10	1
4902554	77	C	03/25/2023	22:01	-132.645	47.935	0	1575.60	0	2.2930	0	34.5180	0	27.571	0	1556.507	0	-1e10	8	-1e10	8	-1E+10	1	-1E+10	1	-1E+10	1	-1E+10	1	-1E+10	1	-1E+10	1
4902554	77	C	03/25/2023	22:01	-132.645	47.935	0	1585.50	0	2.2840	0	34.5210	0	27.574	0	1566.250	0	-1e10	8	-1e10	8	-1E+10	1	-1E+10	1	-1E+10	1	-1E+10	1	-1E+10	1	-1E+10	1
4902554	77	C	03/25/2023	22:01	-132.645	47.935	0	1595.30	0	2.2710	0	34.5230	0	27.576	0	1575.895	0	-1e10	8	-1e10	8	-1E+10	1	-1E+10	1	-1E+10	1	-1E+10	1	-1E+10	1	-1E+10	1
4902554	77	C	03/25/2023	22:01	-132.645	47.935	0	1605.30	0	2.2610	0	34.5250	0	27.579	0	1585.736	0	-1e10	8	-1e10	8	-1E+10	1	-1E+10	1	-1E+10	1	-1E+10	1	-1E+10	1	-1E+10	1
4902554	77	C	03/25/2023	22:01	-132.645	47.935	0	1615.40	0	2.2540	0	34.5260	0	27.580	0	1595.675	0	-1e10	8	-1e10	8	-1E+10	1	-1E+10	1	-1E+10	1	-1E+10	1	-1E+10	1	-1E+10	1
4902554	77	C	03/25/2023	22:01	-132.645	47.935	0	1625.60	0	2.2390	0	34.5280	0	27.583	0	1605.711	0	-1e10	8	-1e10	8	-1E+10	1	-1E+10	1	-1E+10	1	-1E+10	1	-1E+10	1	-1E+10	1
4902554	77	C	03/25/2023	22:01	-132.645	47.935	0	1635.70	0	2.2190	0	34.5320	0	27.588	0	1615.649	0	-1e10	8	-1e10	8	-1E+10	1	-1E+10	1	-1E+10	1	-1E+10	1	-1E+10	1	-1E+10	1
4902554	77	C	03/25/2023	22:01	-132.645	47.935	0	1645.50	0	2.2090	0	34.5340	0	27.590	0	1625.292	0	-1e10	8	-1e10	8	-1E+10	1	-1E+10	1	-1E+10	1	-1E+10	1	-1E+10	1	-1E+10	1
4902554	77	C	03/25/2023	22:01	-132.645	47.935	0	1655.40	0	2.2040	0	34.5350	0	27.592	0	1635.032	0	-1e10	8	-1e10	8	-1E+10	1	-1E+10	1	-1E+10	1	-1E+10	1	-1E+10	1	-1E+10	1
4902554	77	C	03/25/2023	22:01	-132.645	47.935	0	1665.40	0	2.1970	0	34.5360	0	27.593	0	1644.870	0	-1e10	8	-1e10	8	-1E+10	1	-1E+10	1	-1E+10	1	-1E+10	1	-1E+10	1	-1E+10	1
4902554	77	C	03/25/2023	22:01	-132.645	47.935	0	1675.80	0	2.1870	0	34.5390	0	27.596	0	1655.101	0	-1e10	8	-1e10	8	-1E+10	1	-1E+10	1	-1E+10	1	-1E+10	1	-1E+10	1	-1E+10	1
4902554	77	C	03/25/2023	22:01	-132.645	47.935	0	1685.50	0	2.1800	0	34.5400	0	27.598	0	1664.644	0	-1e10	8	-1e10	8	-1E+10	1	-1E+10	1	-1E+10	1	-1E+10	1	-1E+10	1	-1E+10	1
4902554	77	C	03/25/2023	22:01	-132.645	47.935	0	1695.20	0	2.1720	0	34.5410	0	27.599	0	1674.185	0	-1e10	8	-1e10	8	-1E+10	1	-1E+10	1	-1E+10	1	-1E+10	1	-1E+10	1	-1E+10	1
4902554	77	C	03/25/2023	22:01	-132.645	47.935	0	1705.30	0	2.1650	0	34.5430	0	27.602	0	1684.120	0	-1e10	8	-1e10	8	-1E+10	1	-1E+10	1	-1E+10	1	-1E+10	1	-1E+10	1	-1E+10	1
4902554	77	C	03/25/2023	22:01	-132.645	47.935	0	1715.40	0	2.1490	0	34.5460	0	27.605	0	1694.054	0	-1e10	8	-1e10	8	-1E+10	1	-1E+10	1	-1E+10	1	-1E+10	1	-1E+10	1	-1E+10	1
4902554	77	C	03/25/2023	22:01	-132.645	47.935	0	1725.30	0	2.1420	0	34.5480	0	27.607	0	1703.791	0	-1e10	8	-1e10	8	-1E+10	1	-1E+10	1	-1E+10	1	-1E+10	1	-1E+10	1	-1E+10	1
4902554	77	C	03/25/2023	22:01	-132.645	47.935	0	1735.60	0	2.1350	0	34.5490	0	27.609	0	1713.921	0	-1e10	8	-1e10	8	-1E+10	1	-1E+10	1	-1E+10	1	-1E+10	1	-1E+10	1	-1E+10	1
4902554	77	C	03/25/2023	22:01	-132.645	47.935	0	1745.70	0	2.1290	0	34.5500	0	27.610	0	1723.854	0	-1e10	8	-1e10	8	-1E+10	1	-1E+10	1	-1E+10	1	-1E+10	1	-1E+10	1	-1E+10	1
4902554	77	C	03/25/2023	22:01	-132.645	47.935	0	1755.70	0	2.1180	0	34.5530	0	27.614	0	1733.688	0	-1e10	8	-1e10	8	-1E+10	1	-1E+10	1	-1E+10	1	-1E+10	1	-1E+10	1	-1E+10	1
4902554	77	C	03/25/2023	22:01	-132.645	47.935	0	1765.60	0	2.1100	0	34.5540	0	27.615	0	1743.423	0	-1e10	8	-1e10	8	-1E+10	1	-1E+10	1	-1E+10	1	-1E+10	1	-1E+10	1	-1E+10	1
4902554	77	C	03/25/2023	22:01	-132.645	47.935	0	1775.70	0	2.0970	0	34.5570	0	27.619	0	1753.355	0	-1e10	8	-1e10	8	-1E+10	1	-1E+10	1	-1E+10	1	-1E+10	1	-1E+10	1	-1E+10	1
4902554	77	C	03/25/2023	22:01	-132.645	47.935	0	1785.50	0	2.0870	0	34.5590	0	27.621	0	1762.991	0	-1e10	8	-1e10	8	-1E+10	1	-1E+10	1	-1E+10	1	-1E+10	1	-1E+10	1	-1E+10	1
4902554	77	C	03/25/2023	22:01	-132.645	47.935	0	1795.40	0	2.0850	0	34.5600	0	27.622	0	1772.725	0	-1e10	8	-1e10	8	-1E+10	1	-1E+10	1	-1E+10	1	-1E+10	1	-1E+10	1	-1E+10	1
4902554	77	C	03/25/2023	22:01	-132.645	47.935	0	1805.80	0	2.0830	0	34.5600	0	27.622	0	1782.950	0	-1e10	8	-1e10	8	-1E+10	1	-1E+10	1	-1E+10	1	-1E+10	1	-1E+10	1	-1E+10	1
4902554	77	C	03/25/2023	22:01	-132.645	47.935	0	1815.60	0	2.0770	0	34.5610	0	27.624	0	1792.584	0	-1e10	8	-1e10	8	-1E+10	1	-1E+10	1	-1E+10	1	-1E+10	1	-1E+10	1	-1E+10	1
4902554	77	C	03/25/2023	22:01	-132.645	47.935	0	1825.50	0	2.0650	0	34.5630	0	27.626	0	1802.317	0	-1e10	8	-1e10	8	-1E+10	1	-1E+10	1	-1E+10	1	-1E+10	1	-1E+10	1	-1E+10	1
4902554	77	C	03/25/2023	22:01	-132.645	47.935	0	1835.50	0	2.0570	0	34.5650	0	27.628	0	1812.147	0	-1e10	8	-1e10	8	-1E+10	1	-1E+10	1	-1E+10	1	-1E+10	1	-1E+10	1	-1E+10	1
4902554	77	C	03/25/2023	22:01	-132.645	47.935	0	1845.20	0	2.0480	0	34.5660	0	27.630	0	1821.682	0	-1e10	8	-1e10	8	-1E+10	1	-1E+10	1	-1E+10	1	-1E+10	1	-1E+10	1	-1E+10	1
4902554	77	C	03/25/2023	22:01	-132.645	47.935	0	1855.40	0	2.0380	0	34.5680	0	27.632	0	1831.709	0	-1e10	8	-1e10	8	-1E+10	1	-1E+10	1	-1E+10	1	-1E+10	1	-1E+10	1	-1E+10	1
4902554	77	C	03/25/2023	22:01	-132.645	47.935	0	1865.40	0	2.0330	0	34.5690	0	27.634	0	1841.538	0	-1e10	8	-1e10	8	-1E+10	1	-1E+10	1	-1E+10	1	-1E+10	1	-1E+10	1	-1E+10	1
4902554	77	C	03/25/2023	22:01	-132.645	47.935	0	1875.30	0	2.0300	0	34.5700	0	27.635	0	1851.268	0	-1e10	8	-1e10	8	-1E+10	1	-1E+10	1	-1E+10	1	-1E+10	1	-1E+10	1	-1E+10	1
4902554	77	C	03/25/2023	22:01	-132.645	47.935	0	1885.40	0	2.0180	0	34.5720	0	27.637	0	1861.194	0	-1e10	8	-1e10	8	-1E+10	1	-1E+10	1	-1E+10	1	-1E+10	1	-1E+10	1	-1E+10	1
4902554	77	C	03/25/2023	22:01	-132.645	47.935	0	1895.30	0	2.0050	0	34.5740	0	27.640	0	1870.924	0	-1e10	8	-1e10	8	-1E+10	1	-1E+10	1	-1E+10	1	-1E+10	1	-1E+10	1	-1E+10	1
4902554	77	C	03/25/2023	22:01	-132.645	47.935	0	1905.60	0	2.0000	0	34.5750	0	27.641	0	1881.046	0	-1e10	8	-1e10	8	-1E+10	1	-1E+10	1	-1E+10	1	-1E+10	1	-1E+10	1	-1E+10	1
4902554	77	C	03/25/2023	22:01	-132.645	47.935	0	1915.30	0	1.9940	0	34.5770	0	27.643	0	1890.578	0	-1e10	8	-1e10	8	-1E+10	1	-1E+10	1	-1E+10	1	-1E+10	1	-1E+10	1	-1E+10	1
4902554	77	C	03/25/2023	22:01	-132.645	47.935	0	1925.40	0	1.9890	0	34.5780	0	27.645	0	1900.502	0	-1e10	8	-1e10	8	-1E+10	1	-1E+10	1	-1E+10	1	-1E+10	1	-1E+10	1	-1E+10	1
4902554	77	C	03/25/2023	22:01	-132.645	47.935	0	1935.50	0	1.9820	0	34.5790	0	27.646	0	1910.426	0	-1e10	8	-1e10	8	-1E+10	1	-1E+10	1	-1E+10	1	-1E+10	1	-1E+10	1	-1E+10	1
4902554	77	C	03/25/2023	22:01	-132.645	47.935	0	1945.40	0	1.9760	0	34.5800	0	27.647	0	1920.153	0	-1e10	8	-1e10	8	-1E+10	1	-1E+10	1	-1E+10	1	-1E+10	1	-1E+10	1	-1E+10	1
4902554	77	C	03/25/2023	22:01	-132.645	47.935	0	1955.40	0	1.9680	0	34.5820	0	27.650	0	1929.978	0	-1e10	8	-1e10	8	-1E+10	1	-1E+10	1	-1E+10	1	-1E+10	1	-1E+10	1	-1E+10	1
4902554	77	C	03/25/2023	22:01	-132.645	47.935	0	1965.60	0	1.9650	0	34.5830	0	27.651	0	1939.999	0	-1e10	8	-1e10	8	-1E+10	1	-1E+10	1	-1E+10	1	-1E+10	1	-1E+10	1	-1E+10	1
4902554	77	C	03/25/2023	22:01	-132.645	47.935	0	1975.70	0	1.9630	0	34.5830	0	27.651	0	1949.922	0	-1e10	8	-1e10	8	-1E+10	1	-1E+10	1	-1E+10	1	-1E+10	1	-1E+10	1	-1E+10	1
4902554	77	C	03/25/2023	22:01	-132.645	47.935	0	1980.80	0	1.9600	0	34.5840	0	27.652	0	1954.932	0	-1e10	8	-1e10	8	-1E+10	1	-1E+10	1	-1E+10	1	-1E+10	1	-1E+10	1	-1E+10	1
4902554	77	C	03/25/2023	22:01	-132.645	47.935	0																										
4902554	78	C	04/05/2023	02:49	-132.741	47.864	0	0.10	0	7.3080	0	32.3420	0	25.284	0	0.099	0	-1e10	8	-1e10	8	-1E+10	1	-1E+10	1	-1E+10	1	-1E+10	1	-1E+10	1	-1E+10	1
4902554	78	C	04/05/2023	02:49	-132.741	47.864	0	0.20	0	7.3100	0	32.3400	0	25.282	0	0.198	0	-1e10	8	-1e10	8	-1E+10	1	-1E+10	1	-1E+10	1	-1E+10	1	-1E+10	1	-1E+10	1
4902554	78	C	04/05/2023	02:49	-132.741	47.864	0	0.30	0	7.3070	0	32.3410	0	25.284	0	0.297	0	-1e10	8	-1e10	8	-1E+10	1	-1E+10	1	-1E+10	1	-1E+10	1	-1E+10	1	-1E+10	1
4902554	78	C	04/05/2023	02:49	-132.741	47.864	0	0.60	0	7.3076	0	32.3404	0	25.283	0	0.595	0	-1e10	8	-1e10	8	-1E+10	1	-1E+10	1	-1E+10	1	-1E+10	1	-1E+10	1	-1E+10	1
4902554	78	C	04/05/2023	02:49	-132.741	47.864	0	0.80	0	7.3080	0	32.3400	0	25.283	0	0.793	0	-1e10	8	-1e10	8	-1E+10	1	-1E+10	1	-1E+10	1	-1E+10	1	-1E+10	1	-1E+10	1
4902554	78	C	04/05/2023	02:49	-132.741	47.864	0	2.10	0	7.3080	0	32.3400	0	25.283	0	2.082	0	-1e10	8	-1e10	8	-1E+10	1	-1E+10	1	-1E+10	1	-1E+10	1	-1E+10	1	-1E+10	1
4902554	78	C	04/05/2023	02:49	-132.741	47.864	0	3.10	0	7.3070	0	32.3400	0	25.283	0	3.074	0	-1e10	8	-1e10	8	-1E+10	1	-1E+10	1	-1E+10	1	-1E+10	1	-1E+10	1	-1E+10	1
4902554	78	C	04/05/2023	02:49	-132.741	47.864	0	4.10	0	7.3080	0	32.3410	0	25.283	0	4.066	0	-1e10	8	-1e10	8	-1E+10	1	-1E+10	1	-1E+10	1	-1E+10	1	-1E+10	1	-1E+10	1
4902554	78	C	04/05/2023	02:49	-132.741	47.864	0	5.10	0	7.3080	0	32.3410	0	25.284	0	5.057	0	-1e10	8	-1e10	8	-1E+10	1	-1E+10	1	-1E+10	1	-1E+10	1	-1E+10	1	-1E+10	1
4902554	78	C	04/05/2023	02:49	-132.741	47.864	0	6.00	0	7.3080	0	32.3410	0	25.284	0	5.950	0	-1e10	8	-1e10	8	-1E+10	1	-1E+10	1	-1E+10	1	-1E+10	1	-1E+10	1	-1E+10	1
4902554	78	C	04/05/2023	02:49	-132.741	47.864	0	7.00	0	7.3080	0	32.3410	0	25.284	0	6.941	0	-1e10	8	-1e10	8	-1E+10	1	-1E+10	1	-1E+10	1	-1E+10	1	-1E+10	1	-1E+10	1
4902554	78	C	04/05/2023	02:49	-132.741	47.864	0	7.90	0	7.3070	0	32.3410	0	25.284	0	7.834	0	-1e10	8	-1e10	8	-1E+10	1	-1E+10	1	-1E+10	1	-1E+10	1	-1E+10	1	-1E+10	1
4902554	78	C	04/05/2023	02:49	-132.741	47.864	0	9.00	0	7.3070	0	32.3410	0	25.284	0	8.924	0	-1e10	8	-1e10	8	-1E+10	1	-1E+10	1	-1E+10	1	-1E+10	1	-1E+10	1	-1E+10	1
4902554	78	C	04/05/2023	02:49	-132.741	47.864	0	10.00	0	7.3060	0	32.3420	0	25.285	0	9.916	0	-1e10	8	-1e10	8	-1E+10	1	-1E+10	1	-1E+10	1	-1E+10	1	-1E+10	1	-1E+10	1
4902554	78	C	04/05/2023	02:49	-132.741	47.864	0	10.90	0	7.3040	0	32.3430	0	25.286	0	10.808	0	-1e10	8	-1e10	8	-1E+10	1	-1E+10	1	-1E+10	1	-1E+10	1	-1E+10	1	-1E+10	1
4902554	78	C	04/05/2023	02:49	-132.741	47.864	0	11.90	0	7.3040	0	32.3430	0	25.286	0	11.800	0	-1e10	8	-1e10	8	-1E+10	1	-1E+10	1	-1E+10	1	-1E+10	1	-1E+10	1	-1E+10	1
4902554	78	C	04/05/2023	02:49	-132.741	47.864	0	13.00	0	7.3040	0	32.3440	0	25.287	0	12.891	0	-1e10	8	-1e10	8	-1E+10	1	-1E+10	1	-1E+10	1	-1E+10	1	-1E+10	1	-1E+10	1
4902554	78	C	04/05/2023	02:49	-132.741	47.864	0	13.90	0	7.3030	0	32.3440	0	25.287	0	13.783	0	-1e10	8	-1e10	8	-1E+10	1	-1E+10	1	-1E+10	1	-1E+10	1	-1E+10	1	-1E+10	1
4902554	78	C	04/05/2023	02:49	-132.741	47.864	0	15.10	0	7.3020	0	32.3450	0	25.288	0	14.973	0	-1e10	8	-1e10	8	-1E+10	1	-1E+10	1	-1E+10	1	-1E+10	1	-1E+10	1	-1E+10	1
4902554	78	C	04/05/2023	02:49	-132.741	47.864	0	15.90	0	7.3020	0	32.3440	0	25.287	0	15.766	0	-1e10	8	-1e10	8	-1E+10	1	-1E+10	1	-1E+10	1	-1E+10	1	-1E+10	1	-1E+10	1
4902554	78	C	04/05/2023	02:49	-132.741	47.864	0	16.90	0	7.3010	0	32.3450	0	25.288	0	16.758	0	-1e10	8	-1e10	8	-1E+10	1	-1E+10	1	-1E+10	1	-1E+10	1	-1E+10	1	-1E+10	1
4902554	78	C	04/05/2023	02:49	-132.741	47.864	0	18.00	0	7.3060	0	32.3440	0	25.286	0	17.848	0	-1e10	8	-1e10	8	-1E+10	1	-1E+10	1	-1E+10	1	-1E+10	1	-1E+10	1	-1E+10	1
4902554	78	C	04/05/2023	02:49	-132.741	47.864	0	19.00	0	7.3050	0	32.3440	0	25.286	0	18.840	0	-1e10	8	-1e10	8	-1E+10	1	-1E+10	1	-1E+10	1	-1E+10	1	-1E+10	1	-1E+10	1
4902554	78	C	04/05/2023	02:49	-132.741	47.864	0	20.10	0	7.3050	0	32.3440	0	25.286	0	19.931	0	-1e10	8	-1e10	8	-1E+10	1	-1E+10	1	-1E+10	1	-1E+10	1	-1E+10	1	-1E+10	1
4902554	78	C	04/05/2023	02:49	-132.741	47.864	0	20.80	0	7.3050	0	32.3440	0	25.286	0	20.625	0	-1e10	8	-1e10	8	-1E+10	1	-1E+10	1	-1E+10	1	-1E+10	1	-1E+10	1	-1E+10	1
4902554	78	C	04/05/2023	02:49	-132.741	47.864	0	22.00	0	7.3030	0	32.3450	0	25.288	0	21.814	0	-1e10	8	-1e10	8	-1E+10	1	-1E+10	1	-1E+10	1	-1E+10	1	-1E+10	1	-1E+10	1
4902554	78	C	04/05/2023	02:49	-132.741	47.864	0	23.10	0	7.3050	0	32.3440	0	25.287	0	22.905	0	-1e10	8	-1e10	8	-1E+10	1	-1E+10	1	-1E+10	1	-1E+10	1	-1E+10	1	-1E+10	1
4902554	78	C	04/05/2023	02:49	-132.741	47.864	0	23.80	0	7.2970	0	32.3450	0	25.288	0	23.599	0	-1e10	8	-1e10	8	-1E+10	1	-1E+10	1	-1E+10	1	-1E+10	1	-1E+10	1	-1E+10	1
4902554	78	C	04/05/2023	02:49	-132.741	47.864	0	24.90	0	7.2970	0	32.3440	0	25.288	0	24.690	0	-1e10	8	-1e10	8	-1E+10	1	-1E+10	1	-1E+10	1	-1E+10	1	-1E+10	1	-1E+10	1
4902554	78	C	04/05/2023	02:49	-132.741	47.864	0	26.00	0	7.2950	0	32.3460	0	25.289	0	25.781	0	-1e10	8	-1e10	8	-1E+10	1	-1E+10	1	-1E+10	1	-1E+10	1	-1E+10	1	-1E+10	1
4902554	78	C	04/05/2023	02:49	-132.741	47.864	0	26.80	0	7.2970	0	32.3450	0	25.288	0	26.574	0	-1e10	8	-1e10	8	-1E+10	1	-1E+10	1	-1E+10	1	-1E+10	1	-1E+10	1	-1E+10	1
4902554	78	C	04/05/2023	02:49	-132.741	47.864	0	27.80	0	7.2950	0	32.3450	0	25.289	0	27.565	0	-1e10	8	-1e10	8	-1E+10	1	-1E+10	1	-1E+10	1	-1E+10	1	-1E+10	1	-1E+10	1
4902554	78	C	04/05/2023	02:49	-132.741	47.864	0	28.90	0	7.2940	0	32.3460	0	25.290	0	28.656	0	-1e10	8	-1e10	8	-1E+10	1	-1E+10	1	-1E+10	1	-1E+10	1	-1E+10	1	-1E+10	1
4902554	78	C	04/05/2023	02:49	-132.741	47.864	0	30.00	0	7.2930	0	32.3460	0	25.290	0	29.746	0	-1e10	8	-1e10	8	-1E+10	1	-1E+10	1	-1E+10	1	-1E+10	1	-1E+10	1	-1E+10	1
4902554	78	C	04/05/2023	02:49	-132.741	47.864	0	31.00	0	7.2940	0	32.3460	0	25.290	0	30.738	0	-1e10	8	-1e10	8	-1E+10	1	-1E+10	1	-1E+10	1	-1E+10	1	-1E+10	1	-1E+10	1
4902554	78	C	04/05/2023	02:49	-132.741	47.864	0	32.00	0	7.2920	0	32.3470	0	25.291	0	31.729	0	-1e10	8	-1e10	8	-1E+10	1	-1E+10	1	-1E+10	1	-1E+10	1	-1E+10	1	-1E+10	1
4902554	78	C	04/05/2023	02:49	-132.741	47.864	0	33.00	0	7.2910	0	32.3450	0	25.289	0	32.721	0	-1e10	8	-1e10	8	-1E+10	1	-1E+10	1	-1E+10	1	-1E+10	1	-1E+10	1	-1E+10	1
4902554	78	C	04/05/2023	02:49	-132.741	47.864	0	34.00	0	7.2880	0	32.3470	0	25.291	0	33.712	0	-1e10	8	-1e10	8	-1E+10	1	-1E+10	1	-1E+10	1	-1E+10	1	-1E+10	1	-1E+10	1
4902554	78	C	04/05/2023	02:49	-132.741	47.864	0	35.00	0	7.2880	0	32.3460	0	25.291	0	34.704	0	-1e10	8	-1e10	8	-1E+10	1	-1E+10	1	-1E+10	1	-1E+10	1	-1E+10	1	-1E+10	1
4902554	78	C	04/05/2023	02:49	-132.741	47.864	0	35.70	0	7.2870	0	32.3470	0	25.291	0	35.398	0	-1e10	8	-1e10	8	-1E+10	1	-1E+10	1	-1E+10	1	-1E+10	1	-1E+10	1	-1E+10	1
4902554	78	C	04/05/2023	02:49	-132.741	47.864	0	36.80	0	7.2850	0	32.3470	0	25.292	0	36.488	0	-1e10	8	-1e10	8	-1E+10	1	-1E+10	1	-1E+10	1	-1E+10	1	-1E+10	1	-1E+10	1
4902554	78	C	04/05/2023	02:49	-132.741	47.864	0	38.00	0	7.2840	0	32.3470	0	25.292	0	37.678	0	-1e10	8	-1e10	8	-1E+10	1	-1E+10	1	-1E+10	1	-1E+10	1	-1E+10	1	-1E+10	1
4902554	78	C	04/05/2023	02:49	-132.741	47.864	0	39.00	0	7.2800	0	32.3480	0	25.293	0	38.670	0	-1e10	8	-1e10	8	-1E+10	1	-1E+10	1	-1E+10	1	-1E+10	1	-1E+10	1	-1E+10	1
4902554	78	C	04/05/2023	02:49	-132.741	47.864	0	40.10	0	7.2790	0	32.3490	0	25.294	0	39.760	0	-1e10	8	-1e10	8	-1E+10	1	-1E+10	1	-1E+10	1	-1E+10	1	-1E+10	1	-1E+10	1
4902554	78	C	04/05/2023	02:49	-132.741	47.864	0	40.80	0	7.2770	0	32.3500	0	25.295	0	40.454	0	-1e10	8	-1e10	8	-1E+10	1	-1E+10	1	-1E+10	1	-1E+10	1	-1E+10	1	-1E+10	1
4902554	78	C	04/05/2023	02:49	-132.741	47.864	0	41.80	0	7.2770	0	32.3500	0	25.295	0	41.446	0	-1e10	8	-1e10	8	-1E+10	1	-1E+10	1	-1E+10	1	-1E+10	1	-1E+10	1	-1E+10	1
4902554	78	C	04/05/2023	02:49	-132.741	47.864	0	42.90	0	7.2760	0	32.3500	0	25.295	0	42.536	0	-1e10	8	-1e10	8	-1E+10	1	-1E+10	1	-1E+10	1	-1E+10	1	-1E+10	1	-1E+10	1
4902554	78	C	04/05/2023	02:49	-132.741	47.864	0	44.00	0	7.2760	0	32.3500	0	25.295	0	43.627	0	-1e10	8	-1e10	8	-1E+10	1	-1E+10	1	-1E+10	1	-1E+10	1	-1E+10	1	-1E+10	1
4902554	78	C	04/05/2023	02:49	-132.741	47.864	0	45.10	0	7.2760	0	32.3510	0	25.296	0	44.717	0	-1e10	8	-1e10	8	-1E+10	1	-1E+10	1	-1E+10	1	-1E+10	1	-1E+10	1	-1E+10	1
4902554	78	C	04/05/2023	02:49	-132.741	47.864	0	45.80	0	7.2750	0	32.3520	0	25.297	0	45.411	0	-1e10	8	-1e10	8	-1E+10	1	-1E+10	1	-1E+10	1	-1E+10	1	-1E+10	1	-1E+10	1
4902554	78	C	04/05/2023	02:49	-132.741	47.864	0	46.80	0	7.2750	0	32.3510	0	25.296	0	46.403	0	-1e10	8	-1e10	8	-1E+10	1	-1E+10	1	-1E+10	1	-1E+10	1	-1E+10	1	-1E+10	1
4902554	78	C	04/05/2023	02:49	-132.741	47.864	0	47.90	0	7.2760	0	32.3510	0	25.296	0	47.493	0	-1e10	8	-1e10	8	-1E+10	1	-1E+10	1	-1E+10	1	-1E+10	1	-1E+10	1	-1E+10	1
4902554	78	C	04/05/2023	02:49	-132.741	47.864	0	48.90	0	7.2760	0	32.3510	0	25.296	0	48.485	0	-1e10	8	-1e10	8	-1E+10	1	-1E+10	1	-1E+10	1	-1E+10	1	-1E+10	1	-1E+10	1
4902554	78	C	04/05/2023	02:49	-132.741	47.864	0	50.00	0	7.2760	0	32.3510	0	25.296	0	49.575	0	-1e10	8	-1e10	8	-1E+10	1	-1E+10	1	-1E+10	1	-1E+10	1	-1E+10	1	-1E+10	1
4902554	78	C	04/05/2023	02:49	-132.741	47.864	0	51.00	0	7.2760	0	32.3510	0	25.296	0	50.566	0	-1e10	8	-1e10	8	-1E+10	1	-1E+10	1	-1E+10	1	-1E+10	1	-1E+10	1	-1E+10	1
4902554	78	C	04/05/2023	02:49	-132.741	47.864	0	52.10	0	7.2760	0	32.3510	0	25.296	0	51.657	0	-1e10	8	-1e10	8	-1E+10	1	-1E+10	1	-1E+10	1	-1E+10	1	-1E+10	1	-1E+10	1
4902554	78	C	04/05/2023	02:49	-132.741	47.864	0	52.80	0	7.2760	0	32.3520	0	25.297	0	52.351	0	-1e10	8	-1e10	8	-1E+10	1	-1E+10	1	-1E+10	1	-1E+10	1	-1E+10	1	-1E+10	1
4902554	78	C	04/05/2023	02:49	-132.741	47.864	0	53.80	0	7.2760	0	32.3510	0	25.296	0	53.342	0	-1e10	8	-1e10	8	-1E+10	1	-1E+10	1	-1E+10	1	-1E+10	1	-1E+10	1	-1E+10	1
4902554	78	C	04/05/2023	02:49	-132.741	47.864	0	54.90	0	7.2760	0	32.3520	0	25.297	0	54.433	0	-1e10	8	-1e10	8	-1E+10	1	-1E+10	1	-1E+10	1	-1E+10	1	-1E+10	1	-1E+10	1
4902554	78	C	04/05/2023	02:49	-132.741	47.864	0	55.90	0	7.2760	0	32.3520	0	25.297	0	55.424	0	-1e10	8	-1e10	8	-1E+10	1	-1E+10	1	-1E+10	1	-1E+10	1	-1E+10	1	-1E+10	1
4902554	78	C	04/05/2023	02:49	-132.741	47.864	0	57.00	0	7.2760	0	32.3520	0	25.297	0	56.515	0	-1e10	8	-1e10	8	-1E+10	1	-1E+10	1	-1E+10	1	-1E+10	1	-1E+10	1	-1E+10	1
4902554	78	C	04/05/2023	02:49	-132.741	47.864	0	58.00	0	7.2760	0	32.3520	0	25.297	0	57.506	0	-1e10	8	-1e10	8	-1E+10	1	-1E+10	1	-1E+10	1	-1E+10	1	-1E+10	1	-1E+10	1
4902554	78	C	04/05/2023	02:49	-132.741	47.864	0	59.10	0	7.2760	0	32.3520	0	25.297	0	58.596	0	-1e10	8	-1e10	8	-1E+10	1	-1E+10	1	-1E+10	1	-1E+10	1	-1E+10	1	-1E+10	1
4902554	78	C	04/05/2023	02:49	-132.741	47.864	0	59.90	0	7.2760	0	32.3520	0	25.297	0	59.389	0	-1e10	8	-1e10	8	-1E+10	1	-1E+10	1	-1E+10	1	-1E+10	1	-1E+10	1	-1E+10	1
4902554	78	C	04/05/2023	02:49	-132.741	47.864	0	60.90	0	7.2760	0	32.3520	0	25.297	0	60.381	0	-1e10	8	-1e10	8	-1E+10	1	-1E+10	1	-1E+10	1	-1E+10	1	-1E+10	1	-1E+10	1
4902554	78	C	04/05/2023	02:49	-132.741	47.864	0	62.00	0	7.2770	0	32.3520	0	25.297	0	61.471	0	-1e10	8	-1e10	8	-1E+10	1	-1E+10	1	-1E+10	1	-1E+10	1	-1E+10	1	-1E+10	1
4902554	78	C	04/05/2023	02:49	-132.741	47.864	0	63.00	0	7.2760	0	32.3520	0	25.297	0	62.463	0	-1e10	8	-1e10	8	-1E+10	1	-1E+10	1	-1E+10	1	-1E+10	1	-1E+10	1	-1E+10	1
4902554	78	C	04/05/2023	02:49	-132.741	47.864	0	64.10	0	7.2760	0	32.3520	0	25.297	0	63.553	0	-1e10	8	-1e10	8	-1E+10	1	-1E+10	1	-1E+10	1	-1E+10	1	-1E+10	1	-1E+10	1
4902554	78	C	04/05/2023	02:49	-132.741	47.864	0	64.80	0	7.2760	0	32.3520	0	25.297	0	64.247	0	-1e10	8	-1e10	8	-1E+10	1	-1E+10	1	-1E+10	1	-1E+10	1	-1E+10	1	-1E+10	1
4902554	78	C	04/05/2023	02:49	-132.741	47.864	0	65.90	0	7.2760	0	32.3520	0	25.297	0	65.337	0	-1e10	8	-1e10	8	-1E+10	1	-1E+10	1	-1E+10	1	-1E+10	1	-1E+10	1	-1E+10	1
4902554	78	C	04/05/2023	02:49	-132.741	47.864	0	67.00	0	7.2770	0	32.3520	0	25.297	0	66.428	0	-1e10	8	-1e10	8	-1E+10	1	-1E+10	1	-1E+10	1	-1E+10	1	-1E+10	1	-1E+10	1
4902554	78	C	04/05/2023	02:49	-132.741	47.864	0	67.70	0	7.2770	0	32.3510	0	25.296	0	67.122	0	-1e10	8	-1e10	8	-1E+10	1	-1E+10	1	-1E+10	1	-1E+10	1	-1E+10	1	-1E+10	1
4902554	78	C	04/05/2023	02:49	-132.741	47.864	0	68.80	0	7.2770	0	32.3520	0	25.297	0	68.212	0	-1e10	8	-1e10	8	-1E+10	1	-1E+10	1	-1E+10	1	-1E+10	1	-1E+10	1	-1E+10	1
4902554	78	C	04/05/2023	02:49	-132.741	47.864	0	69.90	0	7.2770	0	32.3520	0	25.297	0	69.303	0	-1e10	8	-1e10	8	-1E+10	1	-1E+10	1	-1E+10	1	-1E+10	1	-1E+10	1	-1E+10	1
4902554	78	C	04/05/2023	02:49	-132.741	47.864	0	71.00	0	7.2770	0	32.3520	0	25.297	0	70.393	0	-1e10	8	-1e10	8	-1E+10	1	-1E+10	1	-1E+10	1	-1E+10	1	-1E+10	1	-1E+10	1
4902554	78	C	04/05/2023	02:49	-132.741	47.864	0	72.10	0	7.2770	0	32.3520	0	25.297	0	71.483	0	-1e10	8	-1e10	8	-1E+10	1	-1E+10	1	-1E+10	1	-1E+10	1	-1E+10	1	-1E+10	1
4902554	78	C	04/05/2023	02:49	-132.741	47.864	0	72.80	0	7.2760	0	32.3520	0	25.297	0	72.177	0	-1e10	8	-1e10	8	-1E+10	1	-1E+10	1	-1E+10	1	-1E+10	1	-1E+10	1	-1E+10	1
4902554	78	C	04/05/2023	02:49	-132.741	47.864	0	73.90	0	7.2750	0	32.3520	0	25.298	0	73.268	0	-1e10	8	-1e10	8	-1E+10	1	-1E+10	1	-1E+10	1	-1E+10	1	-1E+10	1	-1E+10	1
4902554	78	C	04/05/2023	02:49	-132.741	47.864	0	75.00	0	7.2750	0	32.3520	0	25.298	0	74.358	0	-1e10	8	-1e10	8	-1E+10	1	-1E+10	1	-1E+10	1	-1E+10	1	-1E+10	1	-1E+10	1
4902554	78	C	04/05/2023	02:49	-132.741	47.864	0	75.70	0	7.2750	0	32.3520	0	25.298	0	75.052	0	-1e10	8	-1e10	8	-1E+10	1	-1E+10	1	-1E+10	1	-1E+10	1	-1E+10	1	-1E+10	1
4902554	78	C	04/05/2023	02:49	-132.741	47.864	0	76.80	0	7.2740	0	32.3520	0	25.298	0	76.142	0	-1e10	8	-1e10	8	-1E+10	1	-1E+10	1	-1E+10	1	-1E+10	1	-1E+10	1	-1E+10	1
4902554	78	C	04/05/2023	02:49	-132.741	47.864	0	77.90	0	7.2740	0	32.3520	0	25.298	0	77.233	0	-1e10	8	-1e10	8	-1E+10	1	-1E+10	1	-1E+10	1	-1E+10	1	-1E+10	1	-1E+10	1
4902554	78	C	04/05/2023	02:49	-132.741	47.864	0	78.90	0	7.2740	0	32.3520	0	25.298	0	78.224	0	-1e10	8	-1e10	8	-1E+10	1	-1E+10	1	-1E+10	1	-1E+10	1	-1E+10	1	-1E+10	1
4902554	78	C	04/05/2023	02:49	-132.741	47.864	0	80.00	0	7.2730	0	32.3520	0	25.298	0	79.314	0	-1e10	8	-1e10	8	-1E+10	1	-1E+10	1	-1E+10	1	-1E+10	1	-1E+10	1	-1E+10	1
4902554	78	C	04/05/2023	02:49	-132.741	47.864	0	80.80	0	7.2720	0	32.3520	0	25.298	0	80.107	0	-1e10	8	-1e10	8	-1E+10	1	-1E+10	1	-1E+10	1	-1E+10	1	-1E+10	1	-1E+10	1
4902554	78	C	04/05/2023	02:49	-132.741	47.864	0	81.80	0	7.2710	0	32.3520	0	25.298	0	81.099	0	-1e10	8	-1e10	8	-1E+10	1	-1E+10	1	-1E+10	1	-1E+10	1	-1E+10	1	-1E+10	1
4902554	78	C	04/05/2023	02:49	-132.741	47.864	0	82.90	0	7.2720	0	32.3520	0	25.298	0	82.189	0	-1e10	8	-1e10	8	-1E+10	1	-1E+10	1	-1E+10	1	-1E+10	1	-1E+10	1	-1E+10	1
4902554	78	C	04/05/2023	02:49	-132.741	47.864	0	83.90	0	7.2720	0	32.3530	0	25.299	0	83.180	0	-1e10	8	-1e10	8	-1E+10	1	-1E+10	1	-1E+10	1	-1E+10	1	-1E+10	1	-1E+10	1
4902554	78	C	04/05/2023	02:49	-132.741	47.864	0	85.00	0	7.2720	0	32.3520	0	25.298	0	84.270	0	-1e10	8	-1e10	8	-1E+10	1	-1E+10	1	-1E+10	1	-1E+10	1	-1E+10	1	-1E+10	1
4902554	78	C	04/05/2023	02:49	-132.741	47.864	0	85.90	0	7.2720	0	32.3530	0	25.299	0	85.163	0	-1e10	8	-1e10	8	-1E+10	1	-1E+10	1	-1E+10	1	-1E+10	1	-1E+10	1	-1E+10	1
4902554	78	C	04/05/2023	02:49	-132.741	47.864	0	87.00	0	7.2720	0	32.3530	0	25.299	0	86.253	0	-1e10	8	-1e10	8	-1E+10	1	-1E+10	1	-1E+10	1	-1E+10	1	-1E+10	1	-1E+10	1
4902554	78	C	04/05/2023	02:49	-132.741	47.864	0	88.00	0	7.2730	0	32.3530	0	25.299	0	87.244	0	-1e10	8	-1e10	8	-1E+10	1	-1E+10	1	-1E+10	1	-1E+10	1	-1E+10	1	-1E+10	1
4902554	78	C	04/05/2023	02:49	-132.741	47.864	0	89.10	0	7.2740	0	32.3530	0	25.299	0	88.334	0	-1e10	8	-1e10	8	-1E+10	1	-1E+10	1	-1E+10	1	-1E+10	1	-1E+10	1	-1E+10	1
4902554	78	C	04/05/2023	02:49	-132.741	47.864	0	90.00	0	7.2740	0	32.3540	0	25.299	0	89.226	0	-1e10	8	-1e10	8	-1E+10	1	-1E+10	1	-1E+10	1	-1E+10	1	-1E+10	1	-1E+10	1
4902554	78	C	04/05/2023	02:49	-132.741	47.864	0	91.10	0	7.2740	0	32.3540	0	25.299	0	90.317	0	-1e10	8	-1e10	8	-1E+10	1	-1E+10	1	-1E+10	1	-1E+10	1	-1E+10	1	-1E+10	1
4902554	78	C	04/05/2023	02:49	-132.741	47.864	0	92.00	0	7.2740	0	32.3540	0	25.299	0	91.209	0	-1e10	8	-1e10	8	-1E+10	1	-1E+10	1	-1E+10	1	-1E+10	1	-1E+10	1	-1E+10	1
4902554	78	C	04/05/2023	02:49	-132.741	47.864	0	93.00	0	7.2750	0	32.3540	0	25.299	0	92.200	0	-1e10	8	-1e10	8	-1E+10	1	-1E+10	1	-1E+10	1	-1E+10	1	-1E+10	1	-1E+10	1
4902554	78	C	04/05/2023	02:49	-132.741	47.864	0	94.00	0	7.2740	0	32.3540	0	25.299	0	93.191	0	-1e10	8	-1e10	8	-1E+10	1	-1E+10	1	-1E+10	1	-1E+10	1	-1E+10	1	-1E+10	1
4902554	78	C	04/05/2023	02:49	-132.741	47.864	0	95.00	0	7.2750	0	32.3550	0	25.300	0	94.182	0	-1e10	8	-1e10	8	-1E+10	1	-1E+10	1	-1E+10	1	-1E+10	1	-1E+10	1	-1E+10	1
4902554	78	C	04/05/2023	02:49	-132.741	47.864	0	96.00	0	7.2750	0	32.3540	0	25.299	0	95.173	0	-1e10	8	-1e10	8	-1E+10	1	-1E+10	1	-1E+10	1	-1E+10	1	-1E+10	1	-1E+10	1
4902554	78	C	04/05/2023	02:49	-132.741	47.864	0	97.00	0	7.2760	0	32.3550	0	25.300	0	96.165	0	-1e10	8	-1e10	8	-1E+10	1	-1E+10	1	-1E+10	1	-1E+10	1	-1E+10	1	-1E+10	1
4902554	78	C	04/05/2023	02:49	-132.741	47.864	0	97.90	0	7.2760	0	32.3550	0	25.300	0	97.057	0	-1e10	8	-1e10	8	-1E+10	1	-1E+10	1	-1E+10	1	-1E+10	1	-1E+10	1	-1E+10	1
4902554	78	C	04/05/2023	02:49	-132.741	47.864	0	99.00	0	7.2770	0	32.3550	0	25.300	0	98.147	0	-1e10	8	-1e10	8	-1E+10	1	-1E+10	1	-1E+10	1	-1E+10	1	-1E+10	1	-1E+10	1
4902554	78	C	04/05/2023	02:49	-132.741	47.864	0	100.00	0	7.2770	0	32.3550	0	25.300	0	99.138	0	-1e10	8	-1e10	8	-1E+10	1	-1E+10	1	-1E+10	1	-1E+10	1	-1E+10	1	-1E+10	1
4902554	78	C	04/05/2023	02:49	-132.741	47.864	0	101.00	0	7.2790	0	32.3560	0	25.300	0	100.129	0	-1e10	8	-1e10	8	-1E+10	1	-1E+10	1	-1E+10	1	-1E+10	1	-1E+10	1	-1E+10	1
4902554	78	C	04/05/2023	02:49	-132.741	47.864	0	101.90	0	7.2800	0	32.3580	0	25.302	0	101.021	0	-1e10	8	-1e10	8	-1E+10	1	-1E+10	1	-1E+10	1	-1E+10	1	-1E+10	1	-1E+10	1
4902554	78	C	04/05/2023	02:49	-132.741	47.864	0	102.90	0	7.2790	0	32.3600	0	25.304	0	102.012	0	-1e10	8	-1e10	8	-1E+10	1	-1E+10	1	-1E+10	1	-1E+10	1	-1E+10	1	-1E+10	1
4902554	78	C	04/05/2023	02:49	-132.741	47.864	0	103.70	0	7.2790	0	32.3610	0	25.304	0	102.805	0	-1e10	8	-1e10	8	-1E+10	1	-1E+10	1	-1E+10	1	-1E+10	1	-1E+10	1	-1E+10	1
4902554	78	C	04/05/2023	02:49	-132.741	47.864	0	105.00	0	7.2760	0	32.3640	0	25.307	0	104.094	0	-1e10	8	-1e10	8	-1E+10	1	-1E+10	1	-1E+10	1	-1E+10	1	-1E+10	1	-1E+10	1
4902554	78	C	04/05/2023	02:49	-132.741	47.864	0	106.10	0	7.2660	0	32.3790	0	25.320	0	105.184	0	-1e10	8	-1e10	8	-1E+10	1	-1E+10	1	-1E+10	1	-1E+10	1	-1E+10	1	-1E+10	1
4902554	78	C	04/05/2023	02:49	-132.741	47.864	0	107.10	0	7.2010	0	32.4490	0	25.384	0	106.175	0	-1e10	8	-1e10	8	-1E+10	1	-1E+10	1	-1E+10	1	-1E+10	1	-1E+10	1	-1E+10	1
4902554	78	C	04/05/2023	02:49	-132.741	47.864	0	108.10	0	7.0240	0	32.6160	0	25.539	0	107.166	0	-1e10	8	-1e10	8	-1E+10	1	-1E+10	1	-1E+10	1	-1E+10	1	-1E+10	1	-1E+10	1
4902554	78	C	04/05/2023	02:49	-132.741	47.864	0	109.10	0	6.9000	0	32.7770	0	25.683	0	108.157	0	-1e10	8	-1e10	8	-1E+10	1	-1E+10	1	-1E+10	1	-1E+10	1	-1E+10	1	-1E+10	1
4902554	78	C	04/05/2023	02:49	-132.741	47.864	0	110.00	0	6.7670	0	32.9230	0	25.815	0	109.049	0	-1e10	8	-1e10	8	-1E+10	1	-1E+10	1	-1E+10	1	-1E+10	1	-1E+10	1	-1E+10	1
4902554	78	C	04/05/2023	02:49	-132.741	47.864	0	110.90	0	6.7550	0	32.9330	0	25.825	0	109.941	0	-1e10	8	-1e10	8	-1E+10	1	-1E+10	1	-1E+10	1	-1E+10	1	-1E+10	1	-1E+10	1
4902554	78	C	04/05/2023	02:49	-132.741	47.864	0	111.80	0	6.7490	0	32.9380	0	25.830	0	110.833	0	-1e10	8	-1e10	8	-1E+10	1	-1E+10	1	-1E+10	1	-1E+10	1	-1E+10	1	-1E+10	1
4902554	78	C	04/05/2023	02:49	-132.741	47.864	0	113.00	0	6.7250	0	32.9550	0	25.846	0	112.022	0	-1e10	8	-1e10	8	-1E+10	1	-1E+10	1	-1E+10	1	-1E+10	1	-1E+10	1	-1E+10	1
4902554	78	C	04/05/2023	02:49	-132.741	47.864	0	114.10	0	6.7070	0	32.9660	0	25.857	0	113.113	0	-1e10	8	-1e10	8	-1E+10	1	-1E+10	1	-1E+10	1	-1E+10	1	-1E+10	1	-1E+10	1
4902554	78	C	04/05/2023	02:49	-132.741	47.864	0	115.00	0	6.6850	0	32.9770	0	25.869	0	114.005	0	-1e10	8	-1e10	8	-1E+10	1	-1E+10	1	-1E+10	1	-1E+10	1	-1E+10	1	-1E+10	1
4902554	78	C	04/05/2023	02:49	-132.741	47.864	0	115.90	0	6.6660	0	32.9890	0	25.881	0	114.897	0	-1e10	8	-1e10	8	-1E+10	1	-1E+10	1	-1E+10	1	-1E+10	1	-1E+10	1	-1E+10	1
4902554	78	C	04/05/2023	02:49	-132.741	47.864	0	116.90	0	6.6430	0	33.0030	0	25.895	0	115.888	0	-1e10	8	-1e10	8	-1E+10	1	-1E+10	1	-1E+10	1	-1E+10	1	-1E+10	1	-1E+10	1
4902554	78	C	04/05/2023	02:49	-132.741	47.864	0	117.90	0	6.5790	0	33.0480	0	25.939	0	116.879	0	-1e10	8	-1e10	8	-1E+10	1	-1E+10	1	-1E+10	1	-1E+10	1	-1E+10	1	-1E+10	1
4902554	78	C	04/05/2023	02:49	-132.741	47.864	0	119.00	0	6.5180	0	33.0870	0	25.977	0	117.969	0	-1e10	8	-1e10	8	-1E+10	1	-1E+10	1	-1E+10	1	-1E+10	1	-1E+10	1	-1E+10	1
4902554	78	C	04/05/2023	02:49	-132.741	47.864	0	119.90	0	6.5010	0	33.1150	0	26.001	0	118.861	0	-1e10	8	-1e10	8	-1E+10	1	-1E+10	1	-1E+10	1	-1E+10	1	-1E+10	1	-1E+10	1
4902554	78	C	04/05/2023	02:49	-132.741	47.864	0	120.70	0	6.4870	0	33.1270	0	26.013	0	119.654	0	-1e10	8	-1e10	8	-1E+10	1	-1E+10	1	-1E+10	1	-1E+10	1	-1E+10	1	-1E+10	1
4902554	78	C	04/05/2023	02:49	-132.741	47.864	0	121.90	0	6.4580	0	33.1630	0	26.045	0	120.843	0	-1e10	8	-1e10	8	-1E+10	1	-1E+10	1	-1E+10	1	-1E+10	1	-1E+10	1	-1E+10	1
4902554	78	C	04/05/2023	02:49	-132.741	47.864	0	123.00	0	6.4480	0	33.1730	0	26.054	0	121.933	0	-1e10	8	-1e10	8	-1E+10	1	-1E+10	1	-1E+10	1	-1E+10	1	-1E+10	1	-1E+10	1
4902554	78	C	04/05/2023	02:49	-132.741	47.864	0	123.90	0	6.4230	0	33.1930	0	26.073	0	122.825	0	-1e10	8	-1e10	8	-1E+10	1	-1E+10	1	-1E+10	1	-1E+10	1	-1E+10	1	-1E+10	1
4902554	78	C	04/05/2023	02:49	-132.741	47.864	0	124.80	0	6.4080	0	33.2050	0	26.084	0	123.717	0	-1e10	8	-1e10	8	-1E+10	1	-1E+10	1	-1E+10	1	-1E+10	1	-1E+10	1	-1E+10	1
4902554	78	C	04/05/2023	02:49	-132.741	47.864	0	126.00	0	6.4050	0	33.2070	0	26.086	0	124.906	0	-1e10	8	-1e10	8	-1E+10	1	-1E+10	1	-1E+10	1	-1E+10	1	-1E+10	1	-1E+10	1
4902554	78	C	04/05/2023	02:49	-132.741	47.864	0	126.90	0	6.3870	0	33.2220	0	26.101	0	125.798	0	-1e10	8	-1e10	8	-1E+10	1	-1E+10	1	-1E+10	1	-1E+10	1	-1E+10	1	-1E+10	1
4902554	78	C	04/05/2023	02:49	-132.741	47.864	0	127.80	0	6.3670	0	33.2410	0	26.118	0	126.690	0	-1e10	8	-1e10	8	-1E+10	1	-1E+10	1	-1E+10	1	-1E+10	1	-1E+10	1	-1E+10	1
4902554	78	C	04/05/2023	02:49	-132.741	47.864	0	128.90	0	6.3490	0	33.2600	0	26.135	0	127.780	0	-1e10	8	-1e10	8	-1E+10	1	-1E+10	1	-1E+10	1	-1E+10	1	-1E+10	1	-1E+10	1
4902554	78	C	04/05/2023	02:49	-132.741	47.864	0	129.80	0	6.3430	0	33.2660	0	26.141	0	128.672	0	-1e10	8	-1e10	8	-1E+10	1	-1E+10	1	-1E+10	1	-1E+10	1	-1E+10	1	-1E+10	1
4902554	78	C	04/05/2023	02:49	-132.741	47.864	0	130.90	0	6.3180	0	33.2960	0	26.168	0	129.762	0	-1e10	8	-1e10	8	-1E+10	1	-1E+10	1	-1E+10	1	-1E+10	1	-1E+10	1	-1E+10	1
4902554	78	C	04/05/2023	02:49	-132.741	47.864	0	131.90	0	6.2980	0	33.3170	0	26.187	0	130.753	0	-1e10	8	-1e10	8	-1E+10	1	-1E+10	1	-1E+10	1	-1E+10	1	-1E+10	1	-1E+10	1
4902554	78	C	04/05/2023	02:49	-132.741	47.864	0	133.00	0	6.2870	0	33.3400	0	26.207	0	131.843	0	-1e10	8	-1e10	8	-1E+10	1	-1E+10	1	-1E+10	1	-1E+10	1	-1E+10	1	-1E+10	1
4902554	78	C	04/05/2023	02:49	-132.741	47.864	0	133.80	0	6.2550	0	33.3810	0	26.243	0	132.636	0	-1e10	8	-1e10	8	-1E+10	1	-1E+10	1	-1E+10	1	-1E+10	1	-1E+10	1	-1E+10	1
4902554	78	C	04/05/2023	02:49	-132.741	47.864	0	134.90	0	6.2360	0	33.4000	0	26.260	0	133.726	0	-1e10	8	-1e10	8	-1E+10	1	-1E+10	1	-1E+10	1	-1E+10	1	-1E+10	1	-1E+10	1
4902554	78	C	04/05/2023	02:49	-132.741	47.864	0	136.10	0	6.2240	0	33.4110	0	26.271	0	134.915	0	-1e10	8	-1e10	8	-1E+10	1	-1E+10	1	-1E+10	1	-1E+10	1	-1E+10	1	-1E+10	1
4902554	78	C	04/05/2023	02:49	-132.741	47.864	0	136.90	0	6.2190	0	33.4150	0	26.274	0	135.708	0	-1e10	8	-1e10	8	-1E+10	1	-1E+10	1	-1E+10	1	-1E+10	1	-1E+10	1	-1E+10	1
4902554	78	C	04/05/2023	02:49	-132.741	47.864	0	137.70	0	6.2120	0	33.4270	0	26.285	0	136.501	0	-1e10	8	-1e10	8	-1E+10	1	-1E+10	1	-1E+10	1	-1E+10	1	-1E+10	1	-1E+10	1
4902554	78	C	04/05/2023	02:49	-132.741	47.864	0	138.90	0	6.2050	0	33.4370	0	26.294	0	137.690	0	-1e10	8	-1e10	8	-1E+10	1	-1E+10	1	-1E+10	1	-1E+10	1	-1E+10	1	-1E+10	1
4902554	78	C	04/05/2023	02:49	-132.741	47.864	0	140.10	0	6.2040	0	33.4400	0	26.296	0	138.879	0	-1e10	8	-1e10	8	-1E+10	1	-1E+10	1	-1E+10	1	-1E+10	1	-1E+10	1	-1E+10	1
4902554	78	C	04/05/2023	02:49	-132.741	47.864	0	140.80	0	6.2050	0	33.4390	0	26.295	0	139.573	0	-1e10	8	-1e10	8	-1E+10	1	-1E+10	1	-1E+10	1	-1E+10	1	-1E+10	1	-1E+10	1
4902554	78	C	04/05/2023	02:49	-132.741	47.864	0	141.90	0	6.2010	0	33.4460	0	26.301	0	140.663	0	-1e10	8	-1e10	8	-1E+10	1	-1E+10	1	-1E+10	1	-1E+10	1	-1E+10	1	-1E+10	1
4902554	78	C	04/05/2023	02:49	-132.741	47.864	0	143.00	0	6.1920	0	33.4550	0	26.309	0	141.753	0	-1e10	8	-1e10	8	-1E+10	1	-1E+10	1	-1E+10	1	-1E+10	1	-1E+10	1	-1E+10	1
4902554	78	C	04/05/2023	02:49	-132.741	47.864	0	143.80	0	6.1760	0	33.4710	0	26.324	0	142.545	0	-1e10	8	-1e10	8	-1E+10	1	-1E+10	1	-1E+10	1	-1E+10	1	-1E+10	1	-1E+10	1
4902554	78	C	04/05/2023	02:49	-132.741	47.864	0	144.90	0	6.1560	0	33.5050	0	26.354	0	143.635	0	-1e10	8	-1e10	8	-1E+10	1	-1E+10	1	-1E+10	1	-1E+10	1	-1E+10	1	-1E+10	1
4902554	78	C	04/05/2023	02:49	-132.741	47.864	0	146.10	0	6.1220	0	33.5640	0	26.404	0	144.825	0	-1e10	8	-1e10	8	-1E+10	1	-1E+10	1	-1E+10	1	-1E+10	1	-1E+10	1	-1E+10	1
4902554	78	C	04/05/2023	02:49	-132.741	47.864	0	147.00	0	6.1050	0	33.5870	0	26.425	0	145.716	0	-1e10	8	-1e10	8	-1E+10	1	-1E+10	1	-1E+10	1	-1E+10	1	-1E+10	1	-1E+10	1
4902554	78	C	04/05/2023	02:49	-132.741	47.864	0	147.90	0	6.0980	0	33.5980	0	26.434	0	146.608	0	-1e10	8	-1e10	8	-1E+10	1	-1E+10	1	-1E+10	1	-1E+10	1	-1E+10	1	-1E+10	1
4902554	78	C	04/05/2023	02:49	-132.741	47.864	0	148.70	0	6.0890	0	33.6050	0	26.441	0	147.401	0	-1e10	8	-1e10	8	-1E+10	1	-1E+10	1	-1E+10	1	-1E+10	1	-1E+10	1	-1E+10	1
4902554	78	C	04/05/2023	02:49	-132.741	47.864	0	149.60	0	6.0730	0	33.6160	0	26.452	0	148.293	0	-1e10	8	-1e10	8	-1E+10	1	-1E+10	1	-1E+10	1	-1E+10	1	-1E+10	1	-1E+10	1
4902554	78	C	04/05/2023	02:49	-132.741	47.864	0	150.90	0	6.0610	0	33.6170	0	26.454	0	149.581	0	-1e10	8	-1e10	8	-1E+10	1	-1E+10	1	-1E+10	1	-1E+10	1	-1E+10	1	-1E+10	1
4902554	78	C	04/05/2023	02:49	-132.741	47.864	0	152.20	0	6.0440	0	33.6270	0	26.464	0	150.869	0	-1e10	8	-1e10	8	-1E+10	1	-1E+10	1	-1E+10	1	-1E+10	1	-1E+10	1	-1E+10	1
4902554	78	C	04/05/2023	02:49	-132.741	47.864	0	153.00	0	6.0380	0	33.6320	0	26.469	0	151.662	0	-1e10	8	-1e10	8	-1E+10	1	-1E+10	1	-1E+10	1	-1E+10	1	-1E+10	1	-1E+10	1
4902554	78	C	04/05/2023	02:49	-132.741	47.864	0	153.90	0	6.0390	0	33.6320	0	26.469	0	152.554	0	-1e10	8	-1e10	8	-1E+10	1	-1E+10	1	-1E+10	1	-1E+10	1	-1E+10	1	-1E+10	1
4902554	78	C	04/05/2023	02:49	-132.741	47.864	0	154.80	0	6.0360	0	33.6350	0	26.471	0	153.445	0	-1e10	8	-1e10	8	-1E+10	1	-1E+10	1	-1E+10	1	-1E+10	1	-1E+10	1	-1E+10	1
4902554	78	C	04/05/2023	02:49	-132.741	47.864	0	155.60	0	6.0350	0	33.6360	0	26.472	0	154.238	0	-1e10	8	-1e10	8	-1E+10	1	-1E+10	1	-1E+10	1	-1E+10	1	-1E+10	1	-1E+10	1
4902554	78	C	04/05/2023	02:49	-132.741	47.864	0	156.90	0	6.0280	0	33.6410	0	26.477	0	155.526	0	-1e10	8	-1e10	8	-1E+10	1	-1E+10	1	-1E+10	1	-1E+10	1	-1E+10	1	-1E+10	1
4902554	78	C	04/05/2023	02:49	-132.741	47.864	0	158.20	0	6.0170	0	33.6480	0	26.484	0	156.814	0	-1e10	8	-1e10	8	-1E+10	1	-1E+10	1	-1E+10	1	-1E+10	1	-1E+10	1	-1E+10	1
4902554	78	C	04/05/2023	02:49	-132.741	47.864	0	159.10	0	5.9840	0	33.6610	0	26.498	0	157.706	0	-1e10	8	-1e10	8	-1E+10	1	-1E+10	1	-1E+10	1	-1E+10	1	-1E+10	1	-1E+10	1
4902554	78	C	04/05/2023	02:49	-132.741	47.864	0	160.00	0	5.9820	0	33.6610	0	26.499	0	158.598	0	-1e10	8	-1e10	8	-1E+10	1	-1E+10	1	-1E+10	1	-1E+10	1	-1E+10	1	-1E+10	1
4902554	78	C	04/05/2023	02:49	-132.741	47.864	0	160.90	0	5.9800	0	33.6610	0	26.499	0	159.490	0	-1e10	8	-1e10	8	-1E+10	1	-1E+10	1	-1E+10	1	-1E+10	1	-1E+10	1	-1E+10	1
4902554	78	C	04/05/2023	02:49	-132.741	47.864	0	161.80	0	5.9770	0	33.6620	0	26.500	0	160.381	0	-1e10	8	-1e10	8	-1E+10	1	-1E+10	1	-1E+10	1	-1E+10	1	-1E+10	1	-1E+10	1
4902554	78	C	04/05/2023	02:49	-132.741	47.864	0	162.80	0	5.9660	0	33.6680	0	26.506	0	161.372	0	-1e10	8	-1e10	8	-1E+10	1	-1E+10	1	-1E+10	1	-1E+10	1	-1E+10	1	-1E+10	1
4902554	78	C	04/05/2023	02:49	-132.741	47.864	0	163.70	0	5.9520	0	33.6730	0	26.512	0	162.264	0	-1e10	8	-1e10	8	-1E+10	1	-1E+10	1	-1E+10	1	-1E+10	1	-1E+10	1	-1E+10	1
4902554	78	C	04/05/2023	02:49	-132.741	47.864	0	164.60	0	5.9520	0	33.6730	0	26.512	0	163.156	0	-1e10	8	-1e10	8	-1E+10	1	-1E+10	1	-1E+10	1	-1E+10	1	-1E+10	1	-1E+10	1
4902554	78	C	04/05/2023	02:49	-132.741	47.864	0	165.60	0	5.9520	0	33.6730	0	26.512	0	164.147	0	-1e10	8	-1e10	8	-1E+10	1	-1E+10	1	-1E+10	1	-1E+10	1	-1E+10	1	-1E+10	1
4902554	78	C	04/05/2023	02:49	-132.741	47.864	0	166.50	0	5.9490	0	33.6750	0	26.514	0	165.038	0	-1e10	8	-1e10	8	-1E+10	1	-1E+10	1	-1E+10	1	-1E+10	1	-1E+10	1	-1E+10	1
4902554	78	C	04/05/2023	02:49	-132.741	47.864	0	167.90	0	5.9080	0	33.6880	0	26.529	0	166.425	0	-1e10	8	-1e10	8	-1E+10	1	-1E+10	1	-1E+10	1	-1E+10	1	-1E+10	1	-1E+10	1
4902554	78	C	04/05/2023	02:49	-132.741	47.864	0	169.40	0	5.8510	0	33.7010	0	26.547	0	167.912	0	-1e10	8	-1e10	8	-1E+10	1	-1E+10	1	-1E+10	1	-1E+10	1	-1E+10	1	-1E+10	1
4902554	78	C	04/05/2023	02:49	-132.741	47.864	0	170.40	0	5.8270	0	33.7050	0	26.553	0	168.902	0	-1e10	8	-1e10	8	-1E+10	1	-1E+10	1	-1E+10	1	-1E+10	1	-1E+10	1	-1E+10	1
4902554	78	C	04/05/2023	02:49	-132.741	47.864	0	171.40	0	5.8260	0	33.7040	0	26.552	0	169.893	0	-1e10	8	-1e10	8	-1E+10	1	-1E+10	1	-1E+10	1	-1E+10	1	-1E+10	1	-1E+10	1
4902554	78	C	04/05/2023	02:49	-132.741	47.864	0	172.40	0	5.8230	0	33.7050	0	26.553	0	170.884	0	-1e10	8	-1e10	8	-1E+10	1	-1E+10	1	-1E+10	1	-1E+10	1	-1E+10	1	-1E+10	1
4902554	78	C	04/05/2023	02:49	-132.741	47.864	0	173.50	0	5.8210	0	33.7060	0	26.554	0	171.974	0	-1e10	8	-1e10	8	-1E+10	1	-1E+10	1	-1E+10	1	-1E+10	1	-1E+10	1	-1E+10	1
4902554	78	C	04/05/2023	02:49	-132.741	47.864	0	174.50	0	5.8090	0	33.7110	0	26.560	0	172.965	0	-1e10	8	-1e10	8	-1E+10	1	-1E+10	1	-1E+10	1	-1E+10	1	-1E+10	1	-1E+10	1
4902554	78	C	04/05/2023	02:49	-132.741	47.864	0	175.50	0	5.8020	0	33.7120	0	26.561	0	173.956	0	-1e10	8	-1e10	8	-1E+10	1	-1E+10	1	-1E+10	1	-1E+10	1	-1E+10	1	-1E+10	1
4902554	78	C	04/05/2023	02:49	-132.741	47.864	0	176.50	0	5.7960	0	33.7120	0	26.562	0	174.946	0	-1e10	8	-1e10	8	-1E+10	1	-1E+10	1	-1E+10	1	-1E+10	1	-1E+10	1	-1E+10	1
4902554	78	C	04/05/2023	02:49	-132.741	47.864	0	177.60	0	5.7800	0	33.7140	0	26.566	0	176.036	0	-1e10	8	-1e10	8	-1E+10	1	-1E+10	1	-1E+10	1	-1E+10	1	-1E+10	1	-1E+10	1
4902554	78	C	04/05/2023	02:49	-132.741	47.864	0	178.60	0	5.7350	0	33.7160	0	26.573	0	177.027	0	-1e10	8	-1e10	8	-1E+10	1	-1E+10	1	-1E+10	1	-1E+10	1	-1E+10	1	-1E+10	1
4902554	78	C	04/05/2023	02:49	-132.741	47.864	0	179.70	0	5.7240	0	33.7190	0	26.576	0	178.117	0	-1e10	8	-1e10	8	-1E+10	1	-1E+10	1	-1E+10	1	-1E+10	1	-1E+10	1	-1E+10	1
4902554	78	C	04/05/2023	02:49	-132.741	47.864	0	180.70	0	5.7170	0	33.7200	0	26.578	0	179.108	0	-1e10	8	-1e10	8	-1E+10	1	-1E+10	1	-1E+10	1	-1E+10	1	-1E+10	1	-1E+10	1
4902554	78	C	04/05/2023	02:49	-132.741	47.864	0	181.60	0	5.7120	0	33.7200	0	26.579	0	179.999	0	-1e10	8	-1e10	8	-1E+10	1	-1E+10	1	-1E+10	1	-1E+10	1	-1E+10	1	-1E+10	1
4902554	78	C	04/05/2023	02:49	-132.741	47.864	0	183.00	0	5.6970	0	33.7220	0	26.582	0	181.386	0	-1e10	8	-1e10	8	-1E+10	1	-1E+10	1	-1E+10	1	-1E+10	1	-1E+10	1	-1E+10	1
4902554	78	C	04/05/2023	02:49	-132.741	47.864	0	184.10	0	5.6940	0	33.7310	0	26.590	0	182.476	0	-1e10	8	-1e10	8	-1E+10	1	-1E+10	1	-1E+10	1	-1E+10	1	-1E+10	1	-1E+10	1
4902554	78	C	04/05/2023	02:49	-132.741	47.864	0	184.90	0	5.6970	0	33.7360	0	26.593	0	183.269	0	-1e10	8	-1e10	8	-1E+10	1	-1E+10	1	-1E+10	1	-1E+10	1	-1E+10	1	-1E+10	1
4902554	78	C	04/05/2023	02:49	-132.741	47.864	0	185.70	0	5.7060	0	33.7370	0	26.593	0	184.061	0	-1e10	8	-1e10	8	-1E+10	1	-1E+10	1	-1E+10	1	-1E+10	1	-1E+10	1	-1E+10	1
4902554	78	C	04/05/2023	02:49	-132.741	47.864	0	186.90	0	5.7000	0	33.7440	0	26.599	0	185.250	0	-1e10	8	-1e10	8	-1E+10	1	-1E+10	1	-1E+10	1	-1E+10	1	-1E+10	1	-1E+10	1
4902554	78	C	04/05/2023	02:49	-132.741	47.864	0	188.10	0	5.6880	0	33.7440	0	26.601	0	186.439	0	-1e10	8	-1e10	8	-1E+10	1	-1E+10	1	-1E+10	1	-1E+10	1	-1E+10	1	-1E+10	1
4902554	78	C	04/05/2023	02:49	-132.741	47.864	0	189.00	0	5.6770	0	33.7450	0	26.603	0	187.331	0	-1e10	8	-1e10	8	-1E+10	1	-1E+10	1	-1E+10	1	-1E+10	1	-1E+10	1	-1E+10	1
4902554	78	C	04/05/2023	02:49	-132.741	47.864	0	189.80	0	5.6440	0	33.7400	0	26.603	0	188.123	0	-1e10	8	-1e10	8	-1E+10	1	-1E+10	1	-1E+10	1	-1E+10	1	-1E+10	1	-1E+10	1
4902554	78	C	04/05/2023	02:49	-132.741	47.864	0	190.60	0	5.6380	0	33.7400	0	26.604	0	188.916	0	-1e10	8	-1e10	8	-1E+10	1	-1E+10	1	-1E+10	1	-1E+10	1	-1E+10	1	-1E+10	1
4902554	78	C	04/05/2023	02:49	-132.741	47.864	0	191.90	0	5.6200	0	33.7400	0	26.606	0	190.204	0	-1e10	8	-1e10	8	-1E+10	1	-1E+10	1	-1E+10	1	-1E+10	1	-1E+10	1	-1E+10	1
4902554	78	C	04/05/2023	02:49	-132.741	47.864	0	193.10	0	5.6250	0	33.7410	0	26.606	0	191.392	0	-1e10	8	-1e10	8	-1E+10	1	-1E+10	1	-1E+10	1	-1E+10	1	-1E+10	1	-1E+10	1
4902554	78	C	04/05/2023	02:49	-132.741	47.864	0	194.00	0	5.5710	0	33.7430	0	26.614	0	192.284	0	-1e10	8	-1e10	8	-1E+10	1	-1E+10	1	-1E+10	1	-1E+10	1	-1E+10	1	-1E+10	1
4902554	78	C	04/05/2023	02:49	-132.741	47.864	0	194.80	0	5.5520	0	33.7460	0	26.619	0	193.077	0	-1e10	8	-1e10	8	-1E+10	1	-1E+10	1	-1E+10	1	-1E+10	1	-1E+10	1	-1E+10	1
4902554	78	C	04/05/2023	02:49	-132.741	47.864	0	195.70	0	5.5470	0	33.7460	0	26.619	0	193.968	0	-1e10	8	-1e10	8	-1E+10	1	-1E+10	1	-1E+10	1	-1E+10	1	-1E+10	1	-1E+10	1
4902554	78	C	04/05/2023	02:49	-132.741	47.864	0	197.00	0	5.5280	0	33.7480	0	26.623	0	195.256	0	-1e10	8	-1e10	8	-1E+10	1	-1E+10	1	-1E+10	1	-1E+10	1	-1E+10	1	-1E+10	1
4902554	78	C	04/05/2023	02:49	-132.741	47.864	0	198.30	0	5.5030	0	33.7490	0	26.627	0	196.544	0	-1e10	8	-1e10	8	-1E+10	1	-1E+10	1	-1E+10	1	-1E+10	1	-1E+10	1	-1E+10	1
4902554	78	C	04/05/2023	02:49	-132.741	47.864	0	199.20	0	5.4960	0	33.7490	0	26.628	0	197.436	0	-1e10	8	-1e10	8	-1E+10	1	-1E+10	1	-1E+10	1	-1E+10	1	-1E+10	1	-1E+10	1
4902554	78	C	04/05/2023	02:49	-132.741	47.864	0	200.00	0	5.4940	0	33.7490	0	26.628	0	198.228	0	-1e10	8	-1e10	8	-1E+10	1	-1E+10	1	-1E+10	1	-1E+10	1	-1E+10	1	-1E+10	1
4902554	78	C	04/05/2023	02:49	-132.741	47.864	0	200.90	0	5.4860	0	33.7490	0	26.629	0	199.120	0	-1e10	8	-1e10	8	-1E+10	1	-1E+10	1	-1E+10	1	-1E+10	1	-1E+10	1	-1E+10	1
4902554	78	C	04/05/2023	02:49	-132.741	47.864	0	201.80	0	5.4430	0	33.7530	0	26.637	0	200.011	0	-1e10	8	-1e10	8	-1E+10	1	-1E+10	1	-1E+10	1	-1E+10	1	-1E+10	1	-1E+10	1
4902554	78	C	04/05/2023	02:49	-132.741	47.864	0	202.70	0	5.4380	0	33.7550	0	26.639	0	200.903	0	-1e10	8	-1e10	8	-1E+10	1	-1E+10	1	-1E+10	1	-1E+10	1	-1E+10	1	-1E+10	1
4902554	78	C	04/05/2023	02:49	-132.741	47.864	0	203.60	0	5.4420	0	33.7550	0	26.639	0	201.795	0	-1e10	8	-1e10	8	-1E+10	1	-1E+10	1	-1E+10	1	-1E+10	1	-1E+10	1	-1E+10	1
4902554	78	C	04/05/2023	02:49	-132.741	47.864	0	204.90	0	5.4490	0	33.7560	0	26.639	0	203.082	0	-1e10	8	-1e10	8	-1E+10	1	-1E+10	1	-1E+10	1	-1E+10	1	-1E+10	1	-1E+10	1
4902554	78	C	04/05/2023	02:49	-132.741	47.864	0	206.20	0	5.4420	0	33.7570	0	26.641	0	204.370	0	-1e10	8	-1e10	8	-1E+10	1	-1E+10	1	-1E+10	1	-1E+10	1	-1E+10	1	-1E+10	1
4902554	78	C	04/05/2023	02:49	-132.741	47.864	0	207.10	0	5.4370	0	33.7590	0	26.643	0	205.262	0	-1e10	8	-1e10	8	-1E+10	1	-1E+10	1	-1E+10	1	-1E+10	1	-1E+10	1	-1E+10	1
4902554	78	C	04/05/2023	02:49	-132.741	47.864	0	208.00	0	5.4280	0	33.7580	0	26.643	0	206.153	0	-1e10	8	-1e10	8	-1E+10	1	-1E+10	1	-1E+10	1	-1E+10	1	-1E+10	1	-1E+10	1
4902554	78	C	04/05/2023	02:49	-132.741	47.864	0	208.90	0	5.3930	0	33.7600	0	26.649	0	207.045	0	-1e10	8	-1e10	8	-1E+10	1	-1E+10	1	-1E+10	1	-1E+10	1	-1E+10	1	-1E+10	1
4902554	78	C	04/05/2023	02:49	-132.741	47.864	0	209.80	0	5.3760	0	33.7610	0	26.652	0	207.936	0	-1e10	8	-1e10	8	-1E+10	1	-1E+10	1	-1E+10	1	-1E+10	1	-1E+10	1	-1E+10	1
4902554	78	C	04/05/2023	02:49	-132.741	47.864	0	210.70	0	5.3680	0	33.7600	0	26.652	0	208.828	0	-1e10	8	-1e10	8	-1E+10	1	-1E+10	1	-1E+10	1	-1E+10	1	-1E+10	1	-1E+10	1
4902554	78	C	04/05/2023	02:49	-132.741	47.864	0	211.70	0	5.3460	0	33.7620	0	26.656	0	209.819	0	-1e10	8	-1e10	8	-1E+10	1	-1E+10	1	-1E+10	1	-1E+10	1	-1E+10	1	-1E+10	1
4902554	78	C	04/05/2023	02:49	-132.741	47.864	0	212.60	0	5.3420	0	33.7620	0	26.656	0	210.710	0	-1e10	8	-1e10	8	-1E+10	1	-1E+10	1	-1E+10	1	-1E+10	1	-1E+10	1	-1E+10	1
4902554	78	C	04/05/2023	02:49	-132.741	47.864	0	213.90	0	5.3330	0	33.7620	0	26.657	0	211.998	0	-1e10	8	-1e10	8	-1E+10	1	-1E+10	1	-1E+10	1	-1E+10	1	-1E+10	1	-1E+10	1
4902554	78	C	04/05/2023	02:49	-132.741	47.864	0	215.30	0	5.3250	0	33.7620	0	26.658	0	213.385	0	-1e10	8	-1e10	8	-1E+10	1	-1E+10	1	-1E+10	1	-1E+10	1	-1E+10	1	-1E+10	1
4902554	78	C	04/05/2023	02:49	-132.741	47.864	0	216.20	0	5.3170	0	33.7630	0	26.660	0	214.276	0	-1e10	8	-1e10	8	-1E+10	1	-1E+10	1	-1E+10	1	-1E+10	1	-1E+10	1	-1E+10	1
4902554	78	C	04/05/2023	02:49	-132.741	47.864	0	217.10	0	5.3170	0	33.7630	0	26.660	0	215.168	0	-1e10	8	-1e10	8	-1E+10	1	-1E+10	1	-1E+10	1	-1E+10	1	-1E+10	1	-1E+10	1
4902554	78	C	04/05/2023	02:49	-132.741	47.864	0	218.10	0	5.3130	0	33.7630	0	26.661	0	216.158	0	-1e10	8	-1e10	8	-1E+10	1	-1E+10	1	-1E+10	1	-1E+10	1	-1E+10	1	-1E+10	1
4902554	78	C	04/05/2023	02:49	-132.741	47.864	0	219.00	0	5.3130	0	33.7630	0	26.661	0	217.050	0	-1e10	8	-1e10	8	-1E+10	1	-1E+10	1	-1E+10	1	-1E+10	1	-1E+10	1	-1E+10	1
4902554	78	C	04/05/2023	02:49	-132.741	47.864	0	219.90	0	5.3130	0	33.7620	0	26.660	0	217.941	0	-1e10	8	-1e10	8	-1E+10	1	-1E+10	1	-1E+10	1	-1E+10	1	-1E+10	1	-1E+10	1
4902554	78	C	04/05/2023	02:49	-132.741	47.864	0	220.80	0	5.3000	0	33.7640	0	26.663	0	218.833	0	-1e10	8	-1e10	8	-1E+10	1	-1E+10	1	-1E+10	1	-1E+10	1	-1E+10	1	-1E+10	1
4902554	78	C	04/05/2023	02:49	-132.741	47.864	0	221.80	0	5.2830	0	33.7650	0	26.666	0	219.823	0	-1e10	8	-1e10	8	-1E+10	1	-1E+10	1	-1E+10	1	-1E+10	1	-1E+10	1	-1E+10	1
4902554	78	C	04/05/2023	02:49	-132.741	47.864	0	222.70	0	5.2790	0	33.7640	0	26.665	0	220.715	0	-1e10	8	-1e10	8	-1E+10	1	-1E+10	1	-1E+10	1	-1E+10	1	-1E+10	1	-1E+10	1
4902554	78	C	04/05/2023	02:49	-132.741	47.864	0	223.60	0	5.2620	0	33.7630	0	26.667	0	221.606	0	-1e10	8	-1e10	8	-1E+10	1	-1E+10	1	-1E+10	1	-1E+10	1	-1E+10	1	-1E+10	1
4902554	78	C	04/05/2023	02:49	-132.741	47.864	0	224.50	0	5.2290	0	33.7640	0	26.671	0	222.498	0	-1e10	8	-1e10	8	-1E+10	1	-1E+10	1	-1E+10	1	-1E+10	1	-1E+10	1	-1E+10	1
4902554	78	C	04/05/2023	02:49	-132.741	47.864	0	225.90	0	5.1870	0	33.7670	0	26.678	0	223.885	0	-1e10	8	-1e10	8	-1E+10	1	-1E+10	1	-1E+10	1	-1E+10	1	-1E+10	1	-1E+10	1
4902554	78	C	04/05/2023	02:49	-132.741	47.864	0	227.40	0	5.1630	0	33.7680	0	26.682	0	225.370	0	-1e10	8	-1e10	8	-1E+10	1	-1E+10	1	-1E+10	1	-1E+10	1	-1E+10	1	-1E+10	1
4902554	78	C	04/05/2023	02:49	-132.741	47.864	0	228.30	0	5.1590	0	33.7680	0	26.683	0	226.262	0	-1e10	8	-1e10	8	-1E+10	1	-1E+10	1	-1E+10	1	-1E+10	1	-1E+10	1	-1E+10	1
4902554	78	C	04/05/2023	02:49	-132.741	47.864	0	229.20	0	5.1550	0	33.7680	0	26.683	0	227.153	0	-1e10	8	-1e10	8	-1E+10	1	-1E+10	1	-1E+10	1	-1E+10	1	-1E+10	1	-1E+10	1
4902554	78	C	04/05/2023	02:49	-132.741	47.864	0	230.10	0	5.1180	0	33.7740	0	26.692	0	228.045	0	-1e10	8	-1e10	8	-1E+10	1	-1E+10	1	-1E+10	1	-1E+10	1	-1E+10	1	-1E+10	1
4902554	78	C	04/05/2023	02:49	-132.741	47.864	0	231.10	0	5.0890	0	33.7830	0	26.702	0	229.035	0	-1e10	8	-1e10	8	-1E+10	1	-1E+10	1	-1E+10	1	-1E+10	1	-1E+10	1	-1E+10	1
4902554	78	C	04/05/2023	02:49	-132.741	47.864	0	232.10	0	5.0870	0	33.7840	0	26.703	0	230.026	0	-1e10	8	-1e10	8	-1E+10	1	-1E+10	1	-1E+10	1	-1E+10	1	-1E+10	1	-1E+10	1
4902554	78	C	04/05/2023	02:49	-132.741	47.864	0	233.00	0	5.0870	0	33.7850	0	26.704	0	230.917	0	-1e10	8	-1e10	8	-1E+10	1	-1E+10	1	-1E+10	1	-1E+10	1	-1E+10	1	-1E+10	1
4902554	78	C	04/05/2023	02:49	-132.741	47.864	0	233.90	0	5.0870	0	33.7860	0	26.705	0	231.809	0	-1e10	8	-1e10	8	-1E+10	1	-1E+10	1	-1E+10	1	-1E+10	1	-1E+10	1	-1E+10	1
4902554	78	C	04/05/2023	02:49	-132.741	47.864	0	234.80	0	5.0890	0	33.7880	0	26.706	0	232.700	0	-1e10	8	-1e10	8	-1E+10	1	-1E+10	1	-1E+10	1	-1E+10	1	-1E+10	1	-1E+10	1
4902554	78	C	04/05/2023	02:49	-132.741	47.864	0	235.80	0	5.0890	0	33.7890	0	26.707	0	233.691	0	-1e10	8	-1e10	8	-1E+10	1	-1E+10	1	-1E+10	1	-1E+10	1	-1E+10	1	-1E+10	1
4902554	78	C	04/05/2023	02:49	-132.741	47.864	0	236.70	0	5.0890	0	33.7890	0	26.707	0	234.582	0	-1e10	8	-1e10	8	-1E+10	1	-1E+10	1	-1E+10	1	-1E+10	1	-1E+10	1	-1E+10	1
4902554	78	C	04/05/2023	02:49	-132.741	47.864	0	237.70	0	5.0900	0	33.7900	0	26.708	0	235.573	0	-1e10	8	-1e10	8	-1E+10	1	-1E+10	1	-1E+10	1	-1E+10	1	-1E+10	1	-1E+10	1
4902554	78	C	04/05/2023	02:49	-132.741	47.864	0	238.60	0	5.0960	0	33.7930	0	26.710	0	236.464	0	-1e10	8	-1e10	8	-1E+10	1	-1E+10	1	-1E+10	1	-1E+10	1	-1E+10	1	-1E+10	1
4902554	78	C	04/05/2023	02:49	-132.741	47.864	0	239.50	0	5.0960	0	33.7950	0	26.711	0	237.356	0	-1e10	8	-1e10	8	-1E+10	1	-1E+10	1	-1E+10	1	-1E+10	1	-1E+10	1	-1E+10	1
4902554	78	C	04/05/2023	02:49	-132.741	47.864	0	240.90	0	5.0970	0	33.7960	0	26.712	0	238.742	0	-1e10	8	-1e10	8	-1E+10	1	-1E+10	1	-1E+10	1	-1E+10	1	-1E+10	1	-1E+10	1
4902554	78	C	04/05/2023	02:49	-132.741	47.864	0	242.40	0	5.0980	0	33.7980	0	26.713	0	240.228	0	-1e10	8	-1e10	8	-1E+10	1	-1E+10	1	-1E+10	1	-1E+10	1	-1E+10	1	-1E+10	1
4902554	78	C	04/05/2023	02:49	-132.741	47.864	0	243.30	0	5.0980	0	33.7980	0	26.713	0	241.119	0	-1e10	8	-1e10	8	-1E+10	1	-1E+10	1	-1E+10	1	-1E+10	1	-1E+10	1	-1E+10	1
4902554	78	C	04/05/2023	02:49	-132.741	47.864	0	244.20	0	5.0980	0	33.7990	0	26.714	0	242.011	0	-1e10	8	-1e10	8	-1E+10	1	-1E+10	1	-1E+10	1	-1E+10	1	-1E+10	1	-1E+10	1
4902554	78	C	04/05/2023	02:49	-132.741	47.864	0	245.10	0	5.0980	0	33.8000	0	26.715	0	242.902	0	-1e10	8	-1e10	8	-1E+10	1	-1E+10	1	-1E+10	1	-1E+10	1	-1E+10	1	-1E+10	1
4902554	78	C	04/05/2023	02:49	-132.741	47.864	0	246.00	0	5.0980	0	33.8010	0	26.716	0	243.794	0	-1e10	8	-1e10	8	-1E+10	1	-1E+10	1	-1E+10	1	-1E+10	1	-1E+10	1	-1E+10	1
4902554	78	C	04/05/2023	02:49	-132.741	47.864	0	246.90	0	5.0970	0	33.8010	0	26.716	0	244.685	0	-1e10	8	-1e10	8	-1E+10	1	-1E+10	1	-1E+10	1	-1E+10	1	-1E+10	1	-1E+10	1
4902554	78	C	04/05/2023	02:49	-132.741	47.864	0	247.80	0	5.0950	0	33.8030	0	26.718	0	245.576	0	-1e10	8	-1e10	8	-1E+10	1	-1E+10	1	-1E+10	1	-1E+10	1	-1E+10	1	-1E+10	1
4902554	78	C	04/05/2023	02:49	-132.741	47.864	0	248.70	0	5.0930	0	33.8050	0	26.720	0	246.468	0	-1e10	8	-1e10	8	-1E+10	1	-1E+10	1	-1E+10	1	-1E+10	1	-1E+10	1	-1E+10	1
4902554	78	C	04/05/2023	02:49	-132.741	47.864	0	249.60	0	5.0920	0	33.8050	0	26.720	0	247.359	0	-1e10	8	-1e10	8	-1E+10	1	-1E+10	1	-1E+10	1	-1E+10	1	-1E+10	1	-1E+10	1
4902554	78	C	04/05/2023	02:49	-132.741	47.864	0	250.90	0	5.0900	0	33.8050	0	26.720	0	248.647	0	-1e10	8	-1e10	8	-1E+10	1	-1E+10	1	-1E+10	1	-1E+10	1	-1E+10	1	-1E+10	1
4902554	78	C	04/05/2023	02:49	-132.741	47.864	0	252.40	0	5.0920	0	33.8050	0	26.720	0	250.132	0	-1e10	8	-1e10	8	-1E+10	1	-1E+10	1	-1E+10	1	-1E+10	1	-1E+10	1	-1E+10	1
4902554	78	C	04/05/2023	02:49	-132.741	47.864	0	253.30	0	5.0860	0	33.8080	0	26.723	0	251.024	0	-1e10	8	-1e10	8	-1E+10	1	-1E+10	1	-1E+10	1	-1E+10	1	-1E+10	1	-1E+10	1
4902554	78	C	04/05/2023	02:49	-132.741	47.864	0	254.20	0	5.0820	0	33.8100	0	26.725	0	251.915	0	-1e10	8	-1e10	8	-1E+10	1	-1E+10	1	-1E+10	1	-1E+10	1	-1E+10	1	-1E+10	1
4902554	78	C	04/05/2023	02:49	-132.741	47.864	0	255.10	0	5.0790	0	33.8130	0	26.728	0	252.806	0	-1e10	8	-1e10	8	-1E+10	1	-1E+10	1	-1E+10	1	-1E+10	1	-1E+10	1	-1E+10	1
4902554	78	C	04/05/2023	02:49	-132.741	47.864	0	256.00	0	5.0780	0	33.8170	0	26.731	0	253.698	0	-1e10	8	-1e10	8	-1E+10	1	-1E+10	1	-1E+10	1	-1E+10	1	-1E+10	1	-1E+10	1
4902554	78	C	04/05/2023	02:49	-132.741	47.864	0	256.90	0	5.0790	0	33.8150	0	26.729	0	254.589	0	-1e10	8	-1e10	8	-1E+10	1	-1E+10	1	-1E+10	1	-1E+10	1	-1E+10	1	-1E+10	1
4902554	78	C	04/05/2023	02:49	-132.741	47.864	0	257.90	0	5.0810	0	33.8180	0	26.731	0	255.579	0	-1e10	8	-1e10	8	-1E+10	1	-1E+10	1	-1E+10	1	-1E+10	1	-1E+10	1	-1E+10	1
4902554	78	C	04/05/2023	02:49	-132.741	47.864	0	258.80	0	5.0810	0	33.8190	0	26.732	0	256.471	0	-1e10	8	-1e10	8	-1E+10	1	-1E+10	1	-1E+10	1	-1E+10	1	-1E+10	1	-1E+10	1
4902554	78	C	04/05/2023	02:49	-132.741	47.864	0	259.70	0	5.0820	0	33.8210	0	26.734	0	257.362	0	-1e10	8	-1e10	8	-1E+10	1	-1E+10	1	-1E+10	1	-1E+10	1	-1E+10	1	-1E+10	1
4902554	78	C	04/05/2023	02:49	-132.741	47.864	0	260.70	0	5.0820	0	33.8220	0	26.734	0	258.353	0	-1e10	8	-1e10	8	-1E+10	1	-1E+10	1	-1E+10	1	-1E+10	1	-1E+10	1	-1E+10	1
4902554	78	C	04/05/2023	02:49	-132.741	47.864	0	261.70	0	5.0820	0	33.8220	0	26.734	0	259.343	0	-1e10	8	-1e10	8	-1E+10	1	-1E+10	1	-1E+10	1	-1E+10	1	-1E+10	1	-1E+10	1
4902554	78	C	04/05/2023	02:49	-132.741	47.864	0	262.60	0	5.0820	0	33.8230	0	26.735	0	260.234	0	-1e10	8	-1e10	8	-1E+10	1	-1E+10	1	-1E+10	1	-1E+10	1	-1E+10	1	-1E+10	1
4902554	78	C	04/05/2023	02:49	-132.741	47.864	0	263.50	0	5.0840	0	33.8230	0	26.735	0	261.126	0	-1e10	8	-1e10	8	-1E+10	1	-1E+10	1	-1E+10	1	-1E+10	1	-1E+10	1	-1E+10	1
4902554	78	C	04/05/2023	02:49	-132.741	47.864	0	264.50	0	5.0840	0	33.8250	0	26.737	0	262.116	0	-1e10	8	-1e10	8	-1E+10	1	-1E+10	1	-1E+10	1	-1E+10	1	-1E+10	1	-1E+10	1
4902554	78	C	04/05/2023	02:49	-132.741	47.864	0	265.50	0	5.0840	0	33.8280	0	26.739	0	263.106	0	-1e10	8	-1e10	8	-1E+10	1	-1E+10	1	-1E+10	1	-1E+10	1	-1E+10	1	-1E+10	1
4902554	78	C	04/05/2023	02:49	-132.741	47.864	0	266.90	0	5.0820	0	33.8310	0	26.742	0	264.493	0	-1e10	8	-1e10	8	-1E+10	1	-1E+10	1	-1E+10	1	-1E+10	1	-1E+10	1	-1E+10	1
4902554	78	C	04/05/2023	02:49	-132.741	47.864	0	268.40	0	5.0820	0	33.8310	0	26.742	0	265.978	0	-1e10	8	-1e10	8	-1E+10	1	-1E+10	1	-1E+10	1	-1E+10	1	-1E+10	1	-1E+10	1
4902554	78	C	04/05/2023	02:49	-132.741	47.864	0	269.40	0	5.0830	0	33.8320	0	26.742	0	266.969	0	-1e10	8	-1e10	8	-1E+10	1	-1E+10	1	-1E+10	1	-1E+10	1	-1E+10	1	-1E+10	1
4902554	78	C	04/05/2023	02:49	-132.741	47.864	0	270.40	0	5.0820	0	33.8320	0	26.742	0	267.959	0	-1e10	8	-1e10	8	-1E+10	1	-1E+10	1	-1E+10	1	-1E+10	1	-1E+10	1	-1E+10	1
4902554	78	C	04/05/2023	02:49	-132.741	47.864	0	271.30	0	5.0770	0	33.8360	0	26.746	0	268.850	0	-1e10	8	-1e10	8	-1E+10	1	-1E+10	1	-1E+10	1	-1E+10	1	-1E+10	1	-1E+10	1
4902554	78	C	04/05/2023	02:49	-132.741	47.864	0	272.30	0	5.0750	0	33.8370	0	26.747	0	269.840	0	-1e10	8	-1e10	8	-1E+10	1	-1E+10	1	-1E+10	1	-1E+10	1	-1E+10	1	-1E+10	1
4902554	78	C	04/05/2023	02:49	-132.741	47.864	0	273.30	0	5.0730	0	33.8380	0	26.748	0	270.831	0	-1e10	8	-1e10	8	-1E+10	1	-1E+10	1	-1E+10	1	-1E+10	1	-1E+10	1	-1E+10	1
4902554	78	C	04/05/2023	02:49	-132.741	47.864	0	274.30	0	5.0590	0	33.8410	0	26.752	0	271.821	0	-1e10	8	-1e10	8	-1E+10	1	-1E+10	1	-1E+10	1	-1E+10	1	-1E+10	1	-1E+10	1
4902554	78	C	04/05/2023	02:49	-132.741	47.864	0	275.40	0	5.0510	0	33.8430	0	26.755	0	272.910	0	-1e10	8	-1e10	8	-1E+10	1	-1E+10	1	-1E+10	1	-1E+10	1	-1E+10	1	-1E+10	1
4902554	78	C	04/05/2023	02:49	-132.741	47.864	0	276.40	0	5.0510	0	33.8420	0	26.754	0	273.901	0	-1e10	8	-1e10	8	-1E+10	1	-1E+10	1	-1E+10	1	-1E+10	1	-1E+10	1	-1E+10	1
4902554	78	C	04/05/2023	02:49	-132.741	47.864	0	277.40	0	5.0490	0	33.8420	0	26.754	0	274.891	0	-1e10	8	-1e10	8	-1E+10	1	-1E+10	1	-1E+10	1	-1E+10	1	-1E+10	1	-1E+10	1
4902554	78	C	04/05/2023	02:49	-132.741	47.864	0	278.40	0	5.0480	0	33.8430	0	26.755	0	275.881	0	-1e10	8	-1e10	8	-1E+10	1	-1E+10	1	-1E+10	1	-1E+10	1	-1E+10	1	-1E+10	1
4902554	78	C	04/05/2023	02:49	-132.741	47.864	0	279.40	0	5.0440	0	33.8420	0	26.755	0	276.872	0	-1e10	8	-1e10	8	-1E+10	1	-1E+10	1	-1E+10	1	-1E+10	1	-1E+10	1	-1E+10	1
4902554	78	C	04/05/2023	02:49	-132.741	47.864	0	280.40	0	5.0350	0	33.8420	0	26.756	0	277.862	0	-1e10	8	-1e10	8	-1E+10	1	-1E+10	1	-1E+10	1	-1E+10	1	-1E+10	1	-1E+10	1
4902554	78	C	04/05/2023	02:49	-132.741	47.864	0	281.40	0	5.0330	0	33.8420	0	26.756	0	278.852	0	-1e10	8	-1e10	8	-1E+10	1	-1E+10	1	-1E+10	1	-1E+10	1	-1E+10	1	-1E+10	1
4902554	78	C	04/05/2023	02:49	-132.741	47.864	0	282.40	0	5.0320	0	33.8420	0	26.756	0	279.842	0	-1e10	8	-1e10	8	-1E+10	1	-1E+10	1	-1E+10	1	-1E+10	1	-1E+10	1	-1E+10	1
4902554	78	C	04/05/2023	02:49	-132.741	47.864	0	283.30	0	5.0210	0	33.8440	0	26.759	0	280.734	0	-1e10	8	-1e10	8	-1E+10	1	-1E+10	1	-1E+10	1	-1E+10	1	-1E+10	1	-1E+10	1
4902554	78	C	04/05/2023	02:49	-132.741	47.864	0	284.30	0	5.0070	0	33.8450	0	26.761	0	281.724	0	-1e10	8	-1e10	8	-1E+10	1	-1E+10	1	-1E+10	1	-1E+10	1	-1E+10	1	-1E+10	1
4902554	78	C	04/05/2023	02:49	-132.741	47.864	0	285.30	0	4.9910	0	33.8470	0	26.765	0	282.714	0	-1e10	8	-1e10	8	-1E+10	1	-1E+10	1	-1E+10	1	-1E+10	1	-1E+10	1	-1E+10	1
4902554	78	C	04/05/2023	02:49	-132.741	47.864	0	286.30	0	4.9680	0	33.8460	0	26.767	0	283.704	0	-1e10	8	-1e10	8	-1E+10	1	-1E+10	1	-1E+10	1	-1E+10	1	-1E+10	1	-1E+10	1
4902554	78	C	04/05/2023	02:49	-132.741	47.864	0	287.30	0	4.9290	0	33.8460	0	26.771	0	284.695	0	-1e10	8	-1e10	8	-1E+10	1	-1E+10	1	-1E+10	1	-1E+10	1	-1E+10	1	-1E+10	1
4902554	78	C	04/05/2023	02:49	-132.741	47.864	0	288.30	0	4.8660	0	33.8420	0	26.775	0	285.685	0	-1e10	8	-1e10	8	-1E+10	1	-1E+10	1	-1E+10	1	-1E+10	1	-1E+10	1	-1E+10	1
4902554	78	C	04/05/2023	02:49	-132.741	47.864	0	289.30	0	4.8440	0	33.8430	0	26.778	0	286.675	0	-1e10	8	-1e10	8	-1E+10	1	-1E+10	1	-1E+10	1	-1E+10	1	-1E+10	1	-1E+10	1
4902554	78	C	04/05/2023	02:49	-132.741	47.864	0	290.30	0	4.8350	0	33.8430	0	26.779	0	287.665	0	-1e10	8	-1e10	8	-1E+10	1	-1E+10	1	-1E+10	1	-1E+10	1	-1E+10	1	-1E+10	1
4902554	78	C	04/05/2023	02:49	-132.741	47.864	0	291.30	0	4.8310	0	33.8420	0	26.779	0	288.656	0	-1e10	8	-1e10	8	-1E+10	1	-1E+10	1	-1E+10	1	-1E+10	1	-1E+10	1	-1E+10	1
4902554	78	C	04/05/2023	02:49	-132.741	47.864	0	292.30	0	4.8110	0	33.8410	0	26.780	0	289.646	0	-1e10	8	-1e10	8	-1E+10	1	-1E+10	1	-1E+10	1	-1E+10	1	-1E+10	1	-1E+10	1
4902554	78	C	04/05/2023	02:49	-132.741	47.864	0	293.30	0	4.7880	0	33.8410	0	26.783	0	290.636	0	-1e10	8	-1e10	8	-1E+10	1	-1E+10	1	-1E+10	1	-1E+10	1	-1E+10	1	-1E+10	1
4902554	78	C	04/05/2023	02:49	-132.741	47.864	0	294.30	0	4.7720	0	33.8420	0	26.785	0	291.626	0	-1e10	8	-1e10	8	-1E+10	1	-1E+10	1	-1E+10	1	-1E+10	1	-1E+10	1	-1E+10	1
4902554	78	C	04/05/2023	02:49	-132.741	47.864	0	295.30	0	4.7590	0	33.8410	0	26.786	0	292.617	0	-1e10	8	-1e10	8	-1E+10	1	-1E+10	1	-1E+10	1	-1E+10	1	-1E+10	1	-1E+10	1
4902554	78	C	04/05/2023	02:49	-132.741	47.864	0	296.30	0	4.7580	0	33.8410	0	26.786	0	293.607	0	-1e10	8	-1e10	8	-1E+10	1	-1E+10	1	-1E+10	1	-1E+10	1	-1E+10	1	-1E+10	1
4902554	78	C	04/05/2023	02:49	-132.741	47.864	0	297.30	0	4.7590	0	33.8400	0	26.785	0	294.597	0	-1e10	8	-1e10	8	-1E+10	1	-1E+10	1	-1E+10	1	-1E+10	1	-1E+10	1	-1E+10	1
4902554	78	C	04/05/2023	02:49	-132.741	47.864	0	298.30	0	4.7540	0	33.8410	0	26.787	0	295.587	0	-1e10	8	-1e10	8	-1E+10	1	-1E+10	1	-1E+10	1	-1E+10	1	-1E+10	1	-1E+10	1
4902554	78	C	04/05/2023	02:49	-132.741	47.864	0	299.30	0	4.7480	0	33.8400	0	26.786	0	296.577	0	-1e10	8	-1e10	8	-1E+10	1	-1E+10	1	-1E+10	1	-1E+10	1	-1E+10	1	-1E+10	1
4902554	78	C	04/05/2023	02:49	-132.741	47.864	0	300.20	0	4.7360	0	33.8420	0	26.789	0	297.468	0	-1e10	8	-1e10	8	-1E+10	1	-1E+10	1	-1E+10	1	-1E+10	1	-1E+10	1	-1E+10	1
4902554	78	C	04/05/2023	02:49	-132.741	47.864	0	301.20	0	4.7080	0	33.8390	0	26.790	0	298.459	0	-1e10	8	-1e10	8	-1E+10	1	-1E+10	1	-1E+10	1	-1E+10	1	-1E+10	1	-1E+10	1
4902554	78	C	04/05/2023	02:49	-132.741	47.864	0	302.20	0	4.6650	0	33.8430	0	26.798	0	299.449	0	-1e10	8	-1e10	8	-1E+10	1	-1E+10	1	-1E+10	1	-1E+10	1	-1E+10	1	-1E+10	1
4902554	78	C	04/05/2023	02:49	-132.741	47.864	0	303.20	0	4.6620	0	33.8440	0	26.799	0	300.439	0	-1e10	8	-1e10	8	-1E+10	1	-1E+10	1	-1E+10	1	-1E+10	1	-1E+10	1	-1E+10	1
4902554	78	C	04/05/2023	02:49	-132.741	47.864	0	304.10	0	4.6310	0	33.8500	0	26.807	0	301.330	0	-1e10	8	-1e10	8	-1E+10	1	-1E+10	1	-1E+10	1	-1E+10	1	-1E+10	1	-1E+10	1
4902554	78	C	04/05/2023	02:49	-132.741	47.864	0	305.10	0	4.6270	0	33.8490	0	26.807	0	302.320	0	-1e10	8	-1e10	8	-1E+10	1	-1E+10	1	-1E+10	1	-1E+10	1	-1E+10	1	-1E+10	1
4902554	78	C	04/05/2023	02:49	-132.741	47.864	0	306.10	0	4.6130	0	33.8480	0	26.808	0	303.310	0	-1e10	8	-1e10	8	-1E+10	1	-1E+10	1	-1E+10	1	-1E+10	1	-1E+10	1	-1E+10	1
4902554	78	C	04/05/2023	02:49	-132.741	47.864	0	307.10	0	4.6120	0	33.8470	0	26.807	0	304.301	0	-1e10	8	-1e10	8	-1E+10	1	-1E+10	1	-1E+10	1	-1E+10	1	-1E+10	1	-1E+10	1
4902554	78	C	04/05/2023	02:49	-132.741	47.864	0	308.10	0	4.6110	0	33.8460	0	26.806	0	305.291	0	-1e10	8	-1e10	8	-1E+10	1	-1E+10	1	-1E+10	1	-1E+10	1	-1E+10	1	-1E+10	1
4902554	78	C	04/05/2023	02:49	-132.741	47.864	0	309.00	0	4.6090	0	33.8470	0	26.807	0	306.182	0	-1e10	8	-1e10	8	-1E+10	1	-1E+10	1	-1E+10	1	-1E+10	1	-1E+10	1	-1E+10	1
4902554	78	C	04/05/2023	02:49	-132.741	47.864	0	310.00	0	4.5930	0	33.8470	0	26.809	0	307.172	0	-1e10	8	-1e10	8	-1E+10	1	-1E+10	1	-1E+10	1	-1E+10	1	-1E+10	1	-1E+10	1
4902554	78	C	04/05/2023	02:49	-132.741	47.864	0	310.90	0	4.5870	0	33.8470	0	26.810	0	308.063	0	-1e10	8	-1e10	8	-1E+10	1	-1E+10	1	-1E+10	1	-1E+10	1	-1E+10	1	-1E+10	1
4902554	78	C	04/05/2023	02:49	-132.741	47.864	0	311.90	0	4.5770	0	33.8490	0	26.812	0	309.053	0	-1e10	8	-1e10	8	-1E+10	1	-1E+10	1	-1E+10	1	-1E+10	1	-1E+10	1	-1E+10	1
4902554	78	C	04/05/2023	02:49	-132.741	47.864	0	312.90	0	4.5630	0	33.8520	0	26.816	0	310.043	0	-1e10	8	-1e10	8	-1E+10	1	-1E+10	1	-1E+10	1	-1E+10	1	-1E+10	1	-1E+10	1
4902554	78	C	04/05/2023	02:49	-132.741	47.864	0	313.90	0	4.5510	0	33.8540	0	26.819	0	311.034	0	-1e10	8	-1e10	8	-1E+10	1	-1E+10	1	-1E+10	1	-1E+10	1	-1E+10	1	-1E+10	1
4902554	78	C	04/05/2023	02:49	-132.741	47.864	0	314.80	0	4.5460	0	33.8550	0	26.821	0	311.925	0	-1e10	8	-1e10	8	-1E+10	1	-1E+10	1	-1E+10	1	-1E+10	1	-1E+10	1	-1E+10	1
4902554	78	C	04/05/2023	02:49	-132.741	47.864	0	315.80	0	4.5360	0	33.8570	0	26.823	0	312.915	0	-1e10	8	-1e10	8	-1E+10	1	-1E+10	1	-1E+10	1	-1E+10	1	-1E+10	1	-1E+10	1
4902554	78	C	04/05/2023	02:49	-132.741	47.864	0	316.80	0	4.5330	0	33.8570	0	26.824	0	313.905	0	-1e10	8	-1e10	8	-1E+10	1	-1E+10	1	-1E+10	1	-1E+10	1	-1E+10	1	-1E+10	1
4902554	78	C	04/05/2023	02:49	-132.741	47.864	0	317.70	0	4.5290	0	33.8580	0	26.825	0	314.796	0	-1e10	8	-1e10	8	-1E+10	1	-1E+10	1	-1E+10	1	-1E+10	1	-1E+10	1	-1E+10	1
4902554	78	C	04/05/2023	02:49	-132.741	47.864	0	318.70	0	4.5240	0	33.8600	0	26.827	0	315.786	0	-1e10	8	-1e10	8	-1E+10	1	-1E+10	1	-1E+10	1	-1E+10	1	-1E+10	1	-1E+10	1
4902554	78	C	04/05/2023	02:49	-132.741	47.864	0	319.70	0	4.5210	0	33.8600	0	26.827	0	316.776	0	-1e10	8	-1e10	8	-1E+10	1	-1E+10	1	-1E+10	1	-1E+10	1	-1E+10	1	-1E+10	1
4902554	78	C	04/05/2023	02:49	-132.741	47.864	0	320.70	0	4.5170	0	33.8610	0	26.828	0	317.766	0	-1e10	8	-1e10	8	-1E+10	1	-1E+10	1	-1E+10	1	-1E+10	1	-1E+10	1	-1E+10	1
4902554	78	C	04/05/2023	02:49	-132.741	47.864	0	321.60	0	4.5130	0	33.8620	0	26.830	0	318.657	0	-1e10	8	-1e10	8	-1E+10	1	-1E+10	1	-1E+10	1	-1E+10	1	-1E+10	1	-1E+10	1
4902554	78	C	04/05/2023	02:49	-132.741	47.864	0	322.60	0	4.5090	0	33.8630	0	26.831	0	319.647	0	-1e10	8	-1e10	8	-1E+10	1	-1E+10	1	-1E+10	1	-1E+10	1	-1E+10	1	-1E+10	1
4902554	78	C	04/05/2023	02:49	-132.741	47.864	0	323.50	0	4.5090	0	33.8630	0	26.831	0	320.538	0	-1e10	8	-1e10	8	-1E+10	1	-1E+10	1	-1E+10	1	-1E+10	1	-1E+10	1	-1E+10	1
4902554	78	C	04/05/2023	02:49	-132.741	47.864	0	324.50	0	4.5070	0	33.8630	0	26.831	0	321.529	0	-1e10	8	-1e10	8	-1E+10	1	-1E+10	1	-1E+10	1	-1E+10	1	-1E+10	1	-1E+10	1
4902554	78	C	04/05/2023	02:49	-132.741	47.864	0	325.50	0	4.5050	0	33.8640	0	26.832	0	322.519	0	-1e10	8	-1e10	8	-1E+10	1	-1E+10	1	-1E+10	1	-1E+10	1	-1E+10	1	-1E+10	1
4902554	78	C	04/05/2023	02:49	-132.741	47.864	0	326.50	0	4.5000	0	33.8640	0	26.833	0	323.509	0	-1e10	8	-1e10	8	-1E+10	1	-1E+10	1	-1E+10	1	-1E+10	1	-1E+10	1	-1E+10	1
4902554	78	C	04/05/2023	02:49	-132.741	47.864	0	327.90	0	4.4940	0	33.8650	0	26.834	0	324.895	0	-1e10	8	-1e10	8	-1E+10	1	-1E+10	1	-1E+10	1	-1E+10	1	-1E+10	1	-1E+10	1
4902554	78	C	04/05/2023	02:49	-132.741	47.864	0	329.40	0	4.4900	0	33.8660	0	26.835	0	326.380	0	-1e10	8	-1e10	8	-1E+10	1	-1E+10	1	-1E+10	1	-1E+10	1	-1E+10	1	-1E+10	1
4902554	78	C	04/05/2023	02:49	-132.741	47.864	0	330.40	0	4.4800	0	33.8690	0	26.839	0	327.370	0	-1e10	8	-1e10	8	-1E+10	1	-1E+10	1	-1E+10	1	-1E+10	1	-1E+10	1	-1E+10	1
4902554	78	C	04/05/2023	02:49	-132.741	47.864	0	331.40	0	4.4780	0	33.8690	0	26.839	0	328.360	0	-1e10	8	-1e10	8	-1E+10	1	-1E+10	1	-1E+10	1	-1E+10	1	-1E+10	1	-1E+10	1
4902554	78	C	04/05/2023	02:49	-132.741	47.864	0	332.40	0	4.4780	0	33.8700	0	26.840	0	329.350	0	-1e10	8	-1e10	8	-1E+10	1	-1E+10	1	-1E+10	1	-1E+10	1	-1E+10	1	-1E+10	1
4902554	78	C	04/05/2023	02:49	-132.741	47.864	0	333.40	0	4.4760	0	33.8700	0	26.840	0	330.340	0	-1e10	8	-1e10	8	-1E+10	1	-1E+10	1	-1E+10	1	-1E+10	1	-1E+10	1	-1E+10	1
4902554	78	C	04/05/2023	02:49	-132.741	47.864	0	334.30	0	4.4750	0	33.8710	0	26.841	0	331.231	0	-1e10	8	-1e10	8	-1E+10	1	-1E+10	1	-1E+10	1	-1E+10	1	-1E+10	1	-1E+10	1
4902554	78	C	04/05/2023	02:49	-132.741	47.864	0	335.30	0	4.4750	0	33.8710	0	26.841	0	332.221	0	-1e10	8	-1e10	8	-1E+10	1	-1E+10	1	-1E+10	1	-1E+10	1	-1E+10	1	-1E+10	1
4902554	78	C	04/05/2023	02:49	-132.741	47.864	0	336.30	0	4.4750	0	33.8730	0	26.843	0	333.211	0	-1e10	8	-1e10	8	-1E+10	1	-1E+10	1	-1E+10	1	-1E+10	1	-1E+10	1	-1E+10	1
4902554	78	C	04/05/2023	02:49	-132.741	47.864	0	337.30	0	4.4770	0	33.8730	0	26.842	0	334.201	0	-1e10	8	-1e10	8	-1E+10	1	-1E+10	1	-1E+10	1	-1E+10	1	-1E+10	1	-1E+10	1
4902554	78	C	04/05/2023	02:49	-132.741	47.864	0	338.30	0	4.4770	0	33.8740	0	26.843	0	335.191	0	-1e10	8	-1e10	8	-1E+10	1	-1E+10	1	-1E+10	1	-1E+10	1	-1E+10	1	-1E+10	1
4902554	78	C	04/05/2023	02:49	-132.741	47.864	0	339.30	0	4.4770	0	33.8730	0	26.842	0	336.181	0	-1e10	8	-1e10	8	-1E+10	1	-1E+10	1	-1E+10	1	-1E+10	1	-1E+10	1	-1E+10	1
4902554	78	C	04/05/2023	02:49	-132.741	47.864	0	340.30	0	4.4740	0	33.8740	0	26.844	0	337.171	0	-1e10	8	-1e10	8	-1E+10	1	-1E+10	1	-1E+10	1	-1E+10	1	-1E+10	1	-1E+10	1
4902554	78	C	04/05/2023	02:49	-132.741	47.864	0	341.30	0	4.4670	0	33.8750	0	26.845	0	338.161	0	-1e10	8	-1e10	8	-1E+10	1	-1E+10	1	-1E+10	1	-1E+10	1	-1E+10	1	-1E+10	1
4902554	78	C	04/05/2023	02:49	-132.741	47.864	0	342.30	0	4.4340	0	33.8850	0	26.857	0	339.151	0	-1e10	8	-1e10	8	-1E+10	1	-1E+10	1	-1E+10	1	-1E+10	1	-1E+10	1	-1E+10	1
4902554	78	C	04/05/2023	02:49	-132.741	47.864	0	343.30	0	4.4270	0	33.8850	0	26.857	0	340.141	0	-1e10	8	-1e10	8	-1E+10	1	-1E+10	1	-1E+10	1	-1E+10	1	-1E+10	1	-1E+10	1
4902554	78	C	04/05/2023	02:49	-132.741	47.864	0	344.30	0	4.4210	0	33.8870	0	26.860	0	341.131	0	-1e10	8	-1e10	8	-1E+10	1	-1E+10	1	-1E+10	1	-1E+10	1	-1E+10	1	-1E+10	1
4902554	78	C	04/05/2023	02:49	-132.741	47.864	0	345.30	0	4.4150	0	33.8890	0	26.862	0	342.121	0	-1e10	8	-1e10	8	-1E+10	1	-1E+10	1	-1E+10	1	-1E+10	1	-1E+10	1	-1E+10	1
4902554	78	C	04/05/2023	02:49	-132.741	47.864	0	346.30	0	4.4090	0	33.8910	0	26.864	0	343.111	0	-1e10	8	-1e10	8	-1E+10	1	-1E+10	1	-1E+10	1	-1E+10	1	-1E+10	1	-1E+10	1
4902554	78	C	04/05/2023	02:49	-132.741	47.864	0	347.30	0	4.4070	0	33.8910	0	26.864	0	344.101	0	-1e10	8	-1e10	8	-1E+10	1	-1E+10	1	-1E+10	1	-1E+10	1	-1E+10	1	-1E+10	1
4902554	78	C	04/05/2023	02:49	-132.741	47.864	0	348.30	0	4.4050	0	33.8920	0	26.865	0	345.091	0	-1e10	8	-1e10	8	-1E+10	1	-1E+10	1	-1E+10	1	-1E+10	1	-1E+10	1	-1E+10	1
4902554	78	C	04/05/2023	02:49	-132.741	47.864	0	349.40	0	4.4040	0	33.8920	0	26.865	0	346.180	0	-1e10	8	-1e10	8	-1E+10	1	-1E+10	1	-1E+10	1	-1E+10	1	-1E+10	1	-1E+10	1
4902554	78	C	04/05/2023	02:49	-132.741	47.864	0	350.40	0	4.3970	0	33.8940	0	26.868	0	347.170	0	-1e10	8	-1e10	8	-1E+10	1	-1E+10	1	-1E+10	1	-1E+10	1	-1E+10	1	-1E+10	1
4902554	78	C	04/05/2023	02:49	-132.741	47.864	0	353.40	0	4.3710	0	33.8990	0	26.875	0	350.139	0	-1e10	8	-1e10	8	-1E+10	1	-1E+10	1	-1E+10	1	-1E+10	1	-1E+10	1	-1E+10	1
4902554	78	C	04/05/2023	02:49	-132.741	47.864	0	358.40	0	4.3320	0	33.9110	0	26.888	0	355.089	0	-1e10	8	-1e10	8	-1E+10	1	-1E+10	1	-1E+10	1	-1E+10	1	-1E+10	1	-1E+10	1
4902554	78	C	04/05/2023	02:49	-132.741	47.864	0	362.90	0	4.3170	0	33.9190	0	26.896	0	359.544	0	-1e10	8	-1e10	8	-1E+10	1	-1E+10	1	-1E+10	1	-1E+10	1	-1E+10	1	-1E+10	1
4902554	78	C	04/05/2023	02:49	-132.741	47.864	0	367.50	0	4.3050	0	33.9260	0	26.903	0	364.097	0	-1e10	8	-1e10	8	-1E+10	1	-1E+10	1	-1E+10	1	-1E+10	1	-1E+10	1	-1E+10	1
4902554	78	C	04/05/2023	02:49	-132.741	47.864	0	372.60	0	4.2950	0	33.9290	0	26.907	0	369.145	0	-1e10	8	-1e10	8	-1E+10	1	-1E+10	1	-1E+10	1	-1E+10	1	-1E+10	1	-1E+10	1
4902554	78	C	04/05/2023	02:49	-132.741	47.864	0	377.70	0	4.2740	0	33.9380	0	26.916	0	374.193	0	-1e10	8	-1e10	8	-1E+10	1	-1E+10	1	-1E+10	1	-1E+10	1	-1E+10	1	-1E+10	1
4902554	78	C	04/05/2023	02:49	-132.741	47.864	0	382.80	0	4.2610	0	33.9450	0	26.923	0	379.241	0	-1e10	8	-1e10	8	-1E+10	1	-1E+10	1	-1E+10	1	-1E+10	1	-1E+10	1	-1E+10	1
4902554	78	C	04/05/2023	02:49	-132.741	47.864	0	388.20	0	4.2560	0	33.9480	0	26.926	0	384.586	0	-1e10	8	-1e10	8	-1E+10	1	-1E+10	1	-1E+10	1	-1E+10	1	-1E+10	1	-1E+10	1
4902554	78	C	04/05/2023	02:49	-132.741	47.864	0	393.10	0	4.2530	0	33.9510	0	26.929	0	389.436	0	-1e10	8	-1e10	8	-1E+10	1	-1E+10	1	-1E+10	1	-1E+10	1	-1E+10	1	-1E+10	1
4902554	78	C	04/05/2023	02:49	-132.741	47.864	0	397.80	0	4.2460	0	33.9560	0	26.933	0	394.088	0	-1e10	8	-1e10	8	-1E+10	1	-1E+10	1	-1E+10	1	-1E+10	1	-1E+10	1	-1E+10	1
4902554	78	C	04/05/2023	02:49	-132.741	47.864	0	402.60	0	4.2340	0	33.9650	0	26.942	0	398.838	0	-1e10	8	-1e10	8	-1E+10	1	-1E+10	1	-1E+10	1	-1E+10	1	-1E+10	1	-1E+10	1
4902554	78	C	04/05/2023	02:49	-132.741	47.864	0	407.60	0	4.2320	0	33.9690	0	26.945	0	403.787	0	-1e10	8	-1e10	8	-1E+10	1	-1E+10	1	-1E+10	1	-1E+10	1	-1E+10	1	-1E+10	1
4902554	78	C	04/05/2023	02:49	-132.741	47.864	0	412.70	0	4.2290	0	33.9720	0	26.948	0	408.834	0	-1e10	8	-1e10	8	-1E+10	1	-1E+10	1	-1E+10	1	-1E+10	1	-1E+10	1	-1E+10	1
4902554	78	C	04/05/2023	02:49	-132.741	47.864	0	417.90	0	4.2250	0	33.9740	0	26.950	0	413.980	0	-1e10	8	-1e10	8	-1E+10	1	-1E+10	1	-1E+10	1	-1E+10	1	-1E+10	1	-1E+10	1
4902554	78	C	04/05/2023	02:49	-132.741	47.864	0	423.10	0	4.2190	0	33.9800	0	26.955	0	419.126	0	-1e10	8	-1e10	8	-1E+10	1	-1E+10	1	-1E+10	1	-1E+10	1	-1E+10	1	-1E+10	1
4902554	78	C	04/05/2023	02:49	-132.741	47.864	0	427.90	0	4.2100	0	33.9890	0	26.964	0	423.876	0	-1e10	8	-1e10	8	-1E+10	1	-1E+10	1	-1E+10	1	-1E+10	1	-1E+10	1	-1E+10	1
4902554	78	C	04/05/2023	02:49	-132.741	47.864	0	432.90	0	4.2050	0	33.9940	0	26.968	0	428.824	0	-1e10	8	-1e10	8	-1E+10	1	-1E+10	1	-1E+10	1	-1E+10	1	-1E+10	1	-1E+10	1
4902554	78	C	04/05/2023	02:49	-132.741	47.864	0	437.90	0	4.1910	0	34.0040	0	26.977	0	433.772	0	-1e10	8	-1e10	8	-1E+10	1	-1E+10	1	-1E+10	1	-1E+10	1	-1E+10	1	-1E+10	1
4902554	78	C	04/05/2023	02:49	-132.741	47.864	0	442.90	0	4.1750	0	34.0140	0	26.987	0	438.719	0	-1e10	8	-1e10	8	-1E+10	1	-1E+10	1	-1E+10	1	-1E+10	1	-1E+10	1	-1E+10	1
4902554	78	C	04/05/2023	02:49	-132.741	47.864	0	448.00	0	4.1520	0	34.0240	0	26.998	0	443.766	0	-1e10	8	-1e10	8	-1E+10	1	-1E+10	1	-1E+10	1	-1E+10	1	-1E+10	1	-1E+10	1
4902554	78	C	04/05/2023	02:49	-132.741	47.864	0	452.70	0	4.1340	0	34.0330	0	27.007	0	448.416	0	-1e10	8	-1e10	8	-1E+10	1	-1E+10	1	-1E+10	1	-1E+10	1	-1E+10	1	-1E+10	1
4902554	78	C	04/05/2023	02:49	-132.741	47.864	0	458.00	0	4.1270	0	34.0360	0	27.010	0	453.660	0	-1e10	8	-1e10	8	-1E+10	1	-1E+10	1	-1E+10	1	-1E+10	1	-1E+10	1	-1E+10	1
4902554	78	C	04/05/2023	02:49	-132.741	47.864	0	463.20	0	4.1170	0	34.0400	0	27.014	0	458.805	0	-1e10	8	-1e10	8	-1E+10	1	-1E+10	1	-1E+10	1	-1E+10	1	-1E+10	1	-1E+10	1
4902554	78	C	04/05/2023	02:49	-132.741	47.864	0	467.90	0	4.1030	0	34.0460	0	27.020	0	463.455	0	-1e10	8	-1e10	8	-1E+10	1	-1E+10	1	-1E+10	1	-1E+10	1	-1E+10	1	-1E+10	1
4902554	78	C	04/05/2023	02:49	-132.741	47.864	0	472.70	0	4.0870	0	34.0520	0	27.027	0	468.204	0	-1e10	8	-1e10	8	-1E+10	1	-1E+10	1	-1E+10	1	-1E+10	1	-1E+10	1	-1E+10	1
4902554	78	C	04/05/2023	02:49	-132.741	47.864	0	477.60	0	4.0820	0	34.0560	0	27.030	0	473.052	0	-1e10	8	-1e10	8	-1E+10	1	-1E+10	1	-1E+10	1	-1E+10	1	-1E+10	1	-1E+10	1
4902554	78	C	04/05/2023	02:49	-132.741	47.864	0	482.50	0	4.0700	0	34.0630	0	27.037	0	477.900	0	-1e10	8	-1e10	8	-1E+10	1	-1E+10	1	-1E+10	1	-1E+10	1	-1E+10	1	-1E+10	1
4902554	78	C	04/05/2023	02:49	-132.741	47.864	0	487.90	0	4.0650	0	34.0660	0	27.040	0	483.242	0	-1e10	8	-1e10	8	-1E+10	1	-1E+10	1	-1E+10	1	-1E+10	1	-1E+10	1	-1E+10	1
4902554	78	C	04/05/2023	02:49	-132.741	47.864	0	493.20	0	4.0600	0	34.0670	0	27.042	0	488.485	0	-1e10	8	-1e10	8	-1E+10	1	-1E+10	1	-1E+10	1	-1E+10	1	-1E+10	1	-1E+10	1
4902554	78	C	04/05/2023	02:49	-132.741	47.864	0	498.10	0	4.0540	0	34.0700	0	27.045	0	493.333	0	-1e10	8	-1e10	8	-1E+10	1	-1E+10	1	-1E+10	1	-1E+10	1	-1E+10	1	-1E+10	1
4902554	78	C	04/05/2023	02:49	-132.741	47.864	0	503.10	0	4.0470	0	34.0740	0	27.048	0	498.279	0	-1e10	8	-1e10	8	-1E+10	1	-1E+10	1	-1E+10	1	-1E+10	1	-1E+10	1	-1E+10	1
4902554	78	C	04/05/2023	02:49	-132.741	47.864	0	508.00	0	4.0420	0	34.0780	0	27.052	0	503.126	0	-1e10	8	-1e10	8	-1E+10	1	-1E+10	1	-1E+10	1	-1E+10	1	-1E+10	1	-1E+10	1
4902554	78	C	04/05/2023	02:49	-132.741	47.864	0	512.90	0	4.0390	0	34.0820	0	27.056	0	507.973	0	-1e10	8	-1e10	8	-1E+10	1	-1E+10	1	-1E+10	1	-1E+10	1	-1E+10	1	-1E+10	1
4902554	78	C	04/05/2023	02:49	-132.741	47.864	0	517.80	0	4.0340	0	34.0840	0	27.058	0	512.820	0	-1e10	8	-1e10	8	-1E+10	1	-1E+10	1	-1E+10	1	-1E+10	1	-1E+10	1	-1E+10	1
4902554	78	C	04/05/2023	02:49	-132.741	47.864	0	522.80	0	4.0270	0	34.0870	0	27.061	0	517.765	0	-1e10	8	-1e10	8	-1E+10	1	-1E+10	1	-1E+10	1	-1E+10	1	-1E+10	1	-1E+10	1
4902554	78	C	04/05/2023	02:49	-132.741	47.864	0	527.80	0	4.0220	0	34.0890	0	27.063	0	522.711	0	-1e10	8	-1e10	8	-1E+10	1	-1E+10	1	-1E+10	1	-1E+10	1	-1E+10	1	-1E+10	1
4902554	78	C	04/05/2023	02:49	-132.741	47.864	0	532.90	0	4.0080	0	34.0950	0	27.069	0	527.755	0	-1e10	8	-1e10	8	-1E+10	1	-1E+10	1	-1E+10	1	-1E+10	1	-1E+10	1	-1E+10	1
4902554	78	C	04/05/2023	02:49	-132.741	47.864	0	538.00	0	4.0010	0	34.0980	0	27.073	0	532.799	0	-1e10	8	-1e10	8	-1E+10	1	-1E+10	1	-1E+10	1	-1E+10	1	-1E+10	1	-1E+10	1
4902554	78	C	04/05/2023	02:49	-132.741	47.864	0	543.20	0	3.9930	0	34.1020	0	27.077	0	537.943	0	-1e10	8	-1e10	8	-1E+10	1	-1E+10	1	-1E+10	1	-1E+10	1	-1E+10	1	-1E+10	1
4902554	78	C	04/05/2023	02:49	-132.741	47.864	0	548.30	0	3.9820	0	34.1060	0	27.081	0	542.986	0	-1e10	8	-1e10	8	-1E+10	1	-1E+10	1	-1E+10	1	-1E+10	1	-1E+10	1	-1E+10	1
4902554	78	C	04/05/2023	02:49	-132.741	47.864	0	552.90	0	3.9760	0	34.1080	0	27.083	0	547.536	0	-1e10	8	-1e10	8	-1E+10	1	-1E+10	1	-1E+10	1	-1E+10	1	-1E+10	1	-1E+10	1
4902554	78	C	04/05/2023	02:49	-132.741	47.864	0	557.50	0	3.9670	0	34.1110	0	27.086	0	552.085	0	-1e10	8	-1e10	8	-1E+10	1	-1E+10	1	-1E+10	1	-1E+10	1	-1E+10	1	-1E+10	1
4902554	78	C	04/05/2023	02:49	-132.741	47.864	0	562.50	0	3.9430	0	34.1200	0	27.096	0	557.030	0	-1e10	8	-1e10	8	-1E+10	1	-1E+10	1	-1E+10	1	-1E+10	1	-1E+10	1	-1E+10	1
4902554	78	C	04/05/2023	02:49	-132.741	47.864	0	568.00	0	3.9260	0	34.1270	0	27.103	0	562.469	0	-1e10	8	-1e10	8	-1E+10	1	-1E+10	1	-1E+10	1	-1E+10	1	-1E+10	1	-1E+10	1
4902554	78	C	04/05/2023	02:49	-132.741	47.864	0	572.90	0	3.9100	0	34.1330	0	27.110	0	567.315	0	-1e10	8	-1e10	8	-1E+10	1	-1E+10	1	-1E+10	1	-1E+10	1	-1E+10	1	-1E+10	1
4902554	78	C	04/05/2023	02:49	-132.741	47.864	0	577.60	0	3.9020	0	34.1360	0	27.113	0	571.962	0	-1e10	8	-1e10	8	-1E+10	1	-1E+10	1	-1E+10	1	-1E+10	1	-1E+10	1	-1E+10	1
4902554	78	C	04/05/2023	02:49	-132.741	47.864	0	582.60	0	3.8870	0	34.1410	0	27.119	0	576.907	0	-1e10	8	-1e10	8	-1E+10	1	-1E+10	1	-1E+10	1	-1E+10	1	-1E+10	1	-1E+10	1
4902554	78	C	04/05/2023	02:49	-132.741	47.864	0	587.70	0	3.8800	0	34.1430	0	27.121	0	581.950	0	-1e10	8	-1e10	8	-1E+10	1	-1E+10	1	-1E+10	1	-1E+10	1	-1E+10	1	-1E+10	1
4902554	78	C	04/05/2023	02:49	-132.741	47.864	0	592.80	0	3.8730	0	34.1450	0	27.123	0	586.992	0	-1e10	8	-1e10	8	-1E+10	1	-1E+10	1	-1E+10	1	-1E+10	1	-1E+10	1	-1E+10	1
4902554	78	C	04/05/2023	02:49	-132.741	47.864	0	598.00	0	3.8640	0	34.1490	0	27.127	0	592.134	0	-1e10	8	-1e10	8	-1E+10	1	-1E+10	1	-1E+10	1	-1E+10	1	-1E+10	1	-1E+10	1
4902554	78	C	04/05/2023	02:49	-132.741	47.864	0	602.90	0	3.8510	0	34.1530	0	27.132	0	596.979	0	-1e10	8	-1e10	8	-1E+10	1	-1E+10	1	-1E+10	1	-1E+10	1	-1E+10	1	-1E+10	1
4902554	78	C	04/05/2023	02:49	-132.741	47.864	0	607.80	0	3.8410	0	34.1560	0	27.135	0	601.824	0	-1e10	8	-1e10	8	-1E+10	1	-1E+10	1	-1E+10	1	-1E+10	1	-1E+10	1	-1E+10	1
4902554	78	C	04/05/2023	02:49	-132.741	47.864	0	612.90	0	3.8370	0	34.1580	0	27.137	0	606.866	0	-1e10	8	-1e10	8	-1E+10	1	-1E+10	1	-1E+10	1	-1E+10	1	-1E+10	1	-1E+10	1
4902554	78	C	04/05/2023	02:49	-132.741	47.864	0	617.90	0	3.8330	0	34.1580	0	27.138	0	611.810	0	-1e10	8	-1e10	8	-1E+10	1	-1E+10	1	-1E+10	1	-1E+10	1	-1E+10	1	-1E+10	1
4902554	78	C	04/05/2023	02:49	-132.741	47.864	0	623.10	0	3.8150	0	34.1640	0	27.144	0	616.951	0	-1e10	8	-1e10	8	-1E+10	1	-1E+10	1	-1E+10	1	-1E+10	1	-1E+10	1	-1E+10	1
4902554	78	C	04/05/2023	02:49	-132.741	47.864	0	627.80	0	3.8060	0	34.1670	0	27.148	0	621.597	0	-1e10	8	-1e10	8	-1E+10	1	-1E+10	1	-1E+10	1	-1E+10	1	-1E+10	1	-1E+10	1
4902554	78	C	04/05/2023	02:49	-132.741	47.864	0	632.60	0	3.7930	0	34.1720	0	27.153	0	626.343	0	-1e10	8	-1e10	8	-1E+10	1	-1E+10	1	-1E+10	1	-1E+10	1	-1E+10	1	-1E+10	1
4902554	78	C	04/05/2023	02:49	-132.741	47.864	0	637.50	0	3.7800	0	34.1760	0	27.158	0	631.187	0	-1e10	8	-1e10	8	-1E+10	1	-1E+10	1	-1E+10	1	-1E+10	1	-1E+10	1	-1E+10	1
4902554	78	C	04/05/2023	02:49	-132.741	47.864	0	642.50	0	3.7720	0	34.1790	0	27.161	0	636.130	0	-1e10	8	-1e10	8	-1E+10	1	-1E+10	1	-1E+10	1	-1E+10	1	-1E+10	1	-1E+10	1
4902554	78	C	04/05/2023	02:49	-132.741	47.864	0	647.50	0	3.7560	0	34.1870	0	27.169	0	641.072	0	-1e10	8	-1e10	8	-1E+10	1	-1E+10	1	-1E+10	1	-1E+10	1	-1E+10	1	-1E+10	1
4902554	78	C	04/05/2023	02:49	-132.741	47.864	0	652.50	0	3.7530	0	34.1890	0	27.171	0	646.015	0	-1e10	8	-1e10	8	-1E+10	1	-1E+10	1	-1E+10	1	-1E+10	1	-1E+10	1	-1E+10	1
4902554	78	C	04/05/2023	02:49	-132.741	47.864	0	657.60	0	3.7440	0	34.1930	0	27.175	0	651.056	0	-1e10	8	-1e10	8	-1E+10	1	-1E+10	1	-1E+10	1	-1E+10	1	-1E+10	1	-1E+10	1
4902554	78	C	04/05/2023	02:49	-132.741	47.864	0	662.70	0	3.7430	0	34.1940	0	27.176	0	656.098	0	-1e10	8	-1e10	8	-1E+10	1	-1E+10	1	-1E+10	1	-1E+10	1	-1E+10	1	-1E+10	1
4902554	78	C	04/05/2023	02:49	-132.741	47.864	0	667.80	0	3.7370	0	34.1960	0	27.178	0	661.139	0	-1e10	8	-1e10	8	-1E+10	1	-1E+10	1	-1E+10	1	-1E+10	1	-1E+10	1	-1E+10	1
4902554	78	C	04/05/2023	02:49	-132.741	47.864	0	672.90	0	3.7290	0	34.1990	0	27.181	0	666.180	0	-1e10	8	-1e10	8	-1E+10	1	-1E+10	1	-1E+10	1	-1E+10	1	-1E+10	1	-1E+10	1
4902554	78	C	04/05/2023	02:49	-132.741	47.864	0	678.00	0	3.7230	0	34.2010	0	27.183	0	671.221	0	-1e10	8	-1e10	8	-1E+10	1	-1E+10	1	-1E+10	1	-1E+10	1	-1E+10	1	-1E+10	1
4902554	78	C	04/05/2023	02:49	-132.741	47.864	0	683.20	0	3.7070	0	34.2060	0	27.189	0	676.360	0	-1e10	8	-1e10	8	-1E+10	1	-1E+10	1	-1E+10	1	-1E+10	1	-1E+10	1	-1E+10	1
4902554	78	C	04/05/2023	02:49	-132.741	47.864	0	688.00	0	3.6970	0	34.2090	0	27.192	0	681.104	0	-1e10	8	-1e10	8	-1E+10	1	-1E+10	1	-1E+10	1	-1E+10	1	-1E+10	1	-1E+10	1
4902554	78	C	04/05/2023	02:49	-132.741	47.864	0	693.10	0	3.6940	0	34.2100	0	27.194	0	686.145	0	-1e10	8	-1e10	8	-1E+10	1	-1E+10	1	-1E+10	1	-1E+10	1	-1E+10	1	-1E+10	1
4902554	78	C	04/05/2023	02:49	-132.741	47.864	0	698.10	0	3.6880	0	34.2110	0	27.195	0	691.086	0	-1e10	8	-1e10	8	-1E+10	1	-1E+10	1	-1E+10	1	-1E+10	1	-1E+10	1	-1E+10	1
4902554	78	C	04/05/2023	02:49	-132.741	47.864	0	703.00	0	3.6790	0	34.2140	0	27.198	0	695.929	0	-1e10	8	-1e10	8	-1E+10	1	-1E+10	1	-1E+10	1	-1E+10	1	-1E+10	1	-1E+10	1
4902554	78	C	04/05/2023	02:49	-132.741	47.864	0	708.00	0	3.6580	0	34.2200	0	27.205	0	700.870	0	-1e10	8	-1e10	8	-1E+10	1	-1E+10	1	-1E+10	1	-1E+10	1	-1E+10	1	-1E+10	1
4902554	78	C	04/05/2023	02:49	-132.741	47.864	0	713.10	0	3.6500	0	34.2220	0	27.208	0	705.910	0	-1e10	8	-1e10	8	-1E+10	1	-1E+10	1	-1E+10	1	-1E+10	1	-1E+10	1	-1E+10	1
4902554	78	C	04/05/2023	02:49	-132.741	47.864	0	717.80	0	3.6420	0	34.2240	0	27.210	0	710.555	0	-1e10	8	-1e10	8	-1E+10	1	-1E+10	1	-1E+10	1	-1E+10	1	-1E+10	1	-1E+10	1
4902554	78	C	04/05/2023	02:49	-132.741	47.864	0	722.60	0	3.6300	0	34.2280	0	27.214	0	715.298	0	-1e10	8	-1e10	8	-1E+10	1	-1E+10	1	-1E+10	1	-1E+10	1	-1E+10	1	-1E+10	1
4902554	78	C	04/05/2023	02:49	-132.741	47.864	0	727.80	0	3.6250	0	34.2290	0	27.216	0	720.437	0	-1e10	8	-1e10	8	-1E+10	1	-1E+10	1	-1E+10	1	-1E+10	1	-1E+10	1	-1E+10	1
4902554	78	C	04/05/2023	02:49	-132.741	47.864	0	733.00	0	3.6120	0	34.2330	0	27.220	0	725.575	0	-1e10	8	-1e10	8	-1E+10	1	-1E+10	1	-1E+10	1	-1E+10	1	-1E+10	1	-1E+10	1
4902554	78	C	04/05/2023	02:49	-132.741	47.864	0	738.20	0	3.5910	0	34.2380	0	27.226	0	730.713	0	-1e10	8	-1e10	8	-1E+10	1	-1E+10	1	-1E+10	1	-1E+10	1	-1E+10	1	-1E+10	1
4902554	78	C	04/05/2023	02:49	-132.741	47.864	0	743.00	0	3.5750	0	34.2420	0	27.231	0	735.456	0	-1e10	8	-1e10	8	-1E+10	1	-1E+10	1	-1E+10	1	-1E+10	1	-1E+10	1	-1E+10	1
4902554	78	C	04/05/2023	02:49	-132.741	47.864	0	747.70	0	3.5630	0	34.2450	0	27.235	0	740.100	0	-1e10	8	-1e10	8	-1E+10	1	-1E+10	1	-1E+10	1	-1E+10	1	-1E+10	1	-1E+10	1
4902554	78	C	04/05/2023	02:49	-132.741	47.864	0	752.90	0	3.5550	0	34.2480	0	27.238	0	745.238	0	-1e10	8	-1e10	8	-1E+10	1	-1E+10	1	-1E+10	1	-1E+10	1	-1E+10	1	-1E+10	1
4902554	78	C	04/05/2023	02:49	-132.741	47.864	0	758.10	0	3.5450	0	34.2500	0	27.240	0	750.376	0	-1e10	8	-1e10	8	-1E+10	1	-1E+10	1	-1E+10	1	-1E+10	1	-1E+10	1	-1E+10	1
4902554	78	C	04/05/2023	02:49	-132.741	47.864	0	762.80	0	3.5340	0	34.2530	0	27.244	0	755.019	0	-1e10	8	-1e10	8	-1E+10	1	-1E+10	1	-1E+10	1	-1E+10	1	-1E+10	1	-1E+10	1
4902554	78	C	04/05/2023	02:49	-132.741	47.864	0	767.70	0	3.5190	0	34.2570	0	27.248	0	759.860	0	-1e10	8	-1e10	8	-1E+10	1	-1E+10	1	-1E+10	1	-1E+10	1	-1E+10	1	-1E+10	1
4902554	78	C	04/05/2023	02:49	-132.741	47.864	0	773.00	0	3.5100	0	34.2590	0	27.251	0	765.096	0	-1e10	8	-1e10	8	-1E+10	1	-1E+10	1	-1E+10	1	-1E+10	1	-1E+10	1	-1E+10	1
4902554	78	C	04/05/2023	02:49	-132.741	47.864	0	777.90	0	3.5040	0	34.2600	0	27.252	0	769.937	0	-1e10	8	-1e10	8	-1E+10	1	-1E+10	1	-1E+10	1	-1E+10	1	-1E+10	1	-1E+10	1
4902554	78	C	04/05/2023	02:49	-132.741	47.864	0	782.80	0	3.5000	0	34.2610	0	27.254	0	774.778	0	-1e10	8	-1e10	8	-1E+10	1	-1E+10	1	-1E+10	1	-1E+10	1	-1E+10	1	-1E+10	1
4902554	78	C	04/05/2023	02:49	-132.741	47.864	0	787.80	0	3.4860	0	34.2660	0	27.259	0	779.718	0	-1e10	8	-1e10	8	-1E+10	1	-1E+10	1	-1E+10	1	-1E+10	1	-1E+10	1	-1E+10	1
4902554	78	C	04/05/2023	02:49	-132.741	47.864	0	792.70	0	3.4790	0	34.2670	0	27.260	0	784.558	0	-1e10	8	-1e10	8	-1E+10	1	-1E+10	1	-1E+10	1	-1E+10	1	-1E+10	1	-1E+10	1
4902554	78	C	04/05/2023	02:49	-132.741	47.864	0	797.90	0	3.4610	0	34.2720	0	27.266	0	789.695	0	-1e10	8	-1e10	8	-1E+10	1	-1E+10	1	-1E+10	1	-1E+10	1	-1E+10	1	-1E+10	1
4902554	78	C	04/05/2023	02:49	-132.741	47.864	0	802.80	0	3.4500	0	34.2750	0	27.270	0	794.535	0	-1e10	8	-1e10	8	-1E+10	1	-1E+10	1	-1E+10	1	-1E+10	1	-1E+10	1	-1E+10	1
4902554	78	C	04/05/2023	02:49	-132.741	47.864	0	807.80	0	3.4460	0	34.2760	0	27.271	0	799.474	0	-1e10	8	-1e10	8	-1E+10	1	-1E+10	1	-1E+10	1	-1E+10	1	-1E+10	1	-1E+10	1
4902554	78	C	04/05/2023	02:49	-132.741	47.864	0	812.90	0	3.4400	0	34.2770	0	27.272	0	804.512	0	-1e10	8	-1e10	8	-1E+10	1	-1E+10	1	-1E+10	1	-1E+10	1	-1E+10	1	-1E+10	1
4902554	78	C	04/05/2023	02:49	-132.741	47.864	0	818.00	0	3.4310	0	34.2800	0	27.276	0	809.549	0	-1e10	8	-1e10	8	-1E+10	1	-1E+10	1	-1E+10	1	-1E+10	1	-1E+10	1	-1E+10	1
4902554	78	C	04/05/2023	02:49	-132.741	47.864	0	823.10	0	3.4270	0	34.2800	0	27.276	0	814.587	0	-1e10	8	-1e10	8	-1E+10	1	-1E+10	1	-1E+10	1	-1E+10	1	-1E+10	1	-1E+10	1
4902554	78	C	04/05/2023	02:49	-132.741	47.864	0	828.10	0	3.4180	0	34.2830	0	27.279	0	819.525	0	-1e10	8	-1e10	8	-1E+10	1	-1E+10	1	-1E+10	1	-1E+10	1	-1E+10	1	-1E+10	1
4902554	78	C	04/05/2023	02:49	-132.741	47.864	0	833.10	0	3.4020	0	34.2860	0	27.283	0	824.463	0	-1e10	8	-1e10	8	-1E+10	1	-1E+10	1	-1E+10	1	-1E+10	1	-1E+10	1	-1E+10	1
4902554	78	C	04/05/2023	02:49	-132.741	47.864	0	837.70	0	3.3800	0	34.2910	0	27.289	0	829.007	0	-1e10	8	-1e10	8	-1E+10	1	-1E+10	1	-1E+10	1	-1E+10	1	-1E+10	1	-1E+10	1
4902554	78	C	04/05/2023	02:49	-132.741	47.864	0	842.90	0	3.3660	0	34.2940	0	27.293	0	834.142	0	-1e10	8	-1e10	8	-1E+10	1	-1E+10	1	-1E+10	1	-1E+10	1	-1E+10	1	-1E+10	1
4902554	78	C	04/05/2023	02:49	-132.741	47.864	0	848.10	0	3.3590	0	34.2960	0	27.295	0	839.278	0	-1e10	8	-1e10	8	-1E+10	1	-1E+10	1	-1E+10	1	-1E+10	1	-1E+10	1	-1E+10	1
4902554	78	C	04/05/2023	02:49	-132.741	47.864	0	852.90	0	3.3500	0	34.2980	0	27.298	0	844.018	0	-1e10	8	-1e10	8	-1E+10	1	-1E+10	1	-1E+10	1	-1E+10	1	-1E+10	1	-1E+10	1
4902554	78	C	04/05/2023	02:49	-132.741	47.864	0	857.80	0	3.3380	0	34.3000	0	27.301	0	848.857	0	-1e10	8	-1e10	8	-1E+10	1	-1E+10	1	-1E+10	1	-1E+10	1	-1E+10	1	-1E+10	1
4902554	78	C	04/05/2023	02:49	-132.741	47.864	0	862.70	0	3.3310	0	34.3020	0	27.303	0	853.696	0	-1e10	8	-1e10	8	-1E+10	1	-1E+10	1	-1E+10	1	-1E+10	1	-1E+10	1	-1E+10	1
4902554	78	C	04/05/2023	02:49	-132.741	47.864	0	868.00	0	3.3190	0	34.3050	0	27.306	0	858.930	0	-1e10	8	-1e10	8	-1E+10	1	-1E+10	1	-1E+10	1	-1E+10	1	-1E+10	1	-1E+10	1
4902554	78	C	04/05/2023	02:49	-132.741	47.864	0	873.30	0	3.3040	0	34.3090	0	27.311	0	864.164	0	-1e10	8	-1e10	8	-1E+10	1	-1E+10	1	-1E+10	1	-1E+10	1	-1E+10	1	-1E+10	1
4902554	78	C	04/05/2023	02:49	-132.741	47.864	0	878.20	0	3.2960	0	34.3110	0	27.313	0	869.002	0	-1e10	8	-1e10	8	-1E+10	1	-1E+10	1	-1E+10	1	-1E+10	1	-1E+10	1	-1E+10	1
4902554	78	C	04/05/2023	02:49	-132.741	47.864	0	883.10	0	3.2870	0	34.3130	0	27.316	0	873.841	0	-1e10	8	-1e10	8	-1E+10	1	-1E+10	1	-1E+10	1	-1E+10	1	-1E+10	1	-1E+10	1
4902554	78	C	04/05/2023	02:49	-132.741	47.864	0	888.00	0	3.2780	0	34.3150	0	27.318	0	878.679	0	-1e10	8	-1e10	8	-1E+10	1	-1E+10	1	-1E+10	1	-1E+10	1	-1E+10	1	-1E+10	1
4902554	78	C	04/05/2023	02:49	-132.741	47.864	0	893.00	0	3.2740	0	34.3160	0	27.320	0	883.616	0	-1e10	8	-1e10	8	-1E+10	1	-1E+10	1	-1E+10	1	-1E+10	1	-1E+10	1	-1E+10	1
4902554	78	C	04/05/2023	02:49	-132.741	47.864	0	898.10	0	3.2670	0	34.3180	0	27.322	0	888.651	0	-1e10	8	-1e10	8	-1E+10	1	-1E+10	1	-1E+10	1	-1E+10	1	-1E+10	1	-1E+10	1
4902554	78	C	04/05/2023	02:49	-132.741	47.864	0	903.20	0	3.2570	0	34.3200	0	27.324	0	893.687	0	-1e10	8	-1e10	8	-1E+10	1	-1E+10	1	-1E+10	1	-1E+10	1	-1E+10	1	-1E+10	1
4902554	78	C	04/05/2023	02:49	-132.741	47.864	0	907.90	0	3.2500	0	34.3220	0	27.327	0	898.327	0	-1e10	8	-1e10	8	-1E+10	1	-1E+10	1	-1E+10	1	-1E+10	1	-1E+10	1	-1E+10	1
4902554	78	C	04/05/2023	02:49	-132.741	47.864	0	912.50	0	3.2390	0	34.3250	0	27.330	0	902.869	0	-1e10	8	-1e10	8	-1E+10	1	-1E+10	1	-1E+10	1	-1E+10	1	-1E+10	1	-1E+10	1
4902554	78	C	04/05/2023	02:49	-132.741	47.864	0	917.60	0	3.2320	0	34.3260	0	27.332	0	907.904	0	-1e10	8	-1e10	8	-1E+10	1	-1E+10	1	-1E+10	1	-1E+10	1	-1E+10	1	-1E+10	1
4902554	78	C	04/05/2023	02:49	-132.741	47.864	0	922.70	0	3.2260	0	34.3270	0	27.333	0	912.939	0	-1e10	8	-1e10	8	-1E+10	1	-1E+10	1	-1E+10	1	-1E+10	1	-1E+10	1	-1E+10	1
4902554	78	C	04/05/2023	02:49	-132.741	47.864	0	927.80	0	3.2150	0	34.3300	0	27.336	0	917.974	0	-1e10	8	-1e10	8	-1E+10	1	-1E+10	1	-1E+10	1	-1E+10	1	-1E+10	1	-1E+10	1
4902554	78	C	04/05/2023	02:49	-132.741	47.864	0	932.90	0	3.2070	0	34.3320	0	27.339	0	923.009	0	-1e10	8	-1e10	8	-1E+10	1	-1E+10	1	-1E+10	1	-1E+10	1	-1E+10	1	-1E+10	1
4902554	78	C	04/05/2023	02:49	-132.741	47.864	0	938.10	0	3.2020	0	34.3330	0	27.340	0	928.142	0	-1e10	8	-1e10	8	-1E+10	1	-1E+10	1	-1E+10	1	-1E+10	1	-1E+10	1	-1E+10	1
4902554	78	C	04/05/2023	02:49	-132.741	47.864	0	942.80	0	3.1930	0	34.3350	0	27.343	0	932.782	0	-1e10	8	-1e10	8	-1E+10	1	-1E+10	1	-1E+10	1	-1E+10	1	-1E+10	1	-1E+10	1
4902554	78	C	04/05/2023	02:49	-132.741	47.864	0	947.50	0	3.1830	0	34.3380	0	27.346	0	937.421	0	-1e10	8	-1e10	8	-1E+10	1	-1E+10	1	-1E+10	1	-1E+10	1	-1E+10	1	-1E+10	1
4902554	78	C	04/05/2023	02:49	-132.741	47.864	0	952.60	0	3.1760	0	34.3400	0	27.348	0	942.455	0	-1e10	8	-1e10	8	-1E+10	1	-1E+10	1	-1E+10	1	-1E+10	1	-1E+10	1	-1E+10	1
4902554	78	C	04/05/2023	02:49	-132.741	47.864	0	957.80	0	3.1590	0	34.3430	0	27.352	0	947.588	0	-1e10	8	-1e10	8	-1E+10	1	-1E+10	1	-1E+10	1	-1E+10	1	-1E+10	1	-1E+10	1
4902554	78	C	04/05/2023	02:49	-132.741	47.864	0	962.90	0	3.1410	0	34.3480	0	27.358	0	952.622	0	-1e10	8	-1e10	8	-1E+10	1	-1E+10	1	-1E+10	1	-1E+10	1	-1E+10	1	-1E+10	1
4902554	78	C	04/05/2023	02:49	-132.741	47.864	0	967.70	0	3.1290	0	34.3510	0	27.361	0	957.360	0	-1e10	8	-1e10	8	-1E+10	1	-1E+10	1	-1E+10	1	-1E+10	1	-1E+10	1	-1E+10	1
4902554	78	C	04/05/2023	02:49	-132.741	47.864	0	972.80	0	3.1060	0	34.3560	0	27.367	0	962.394	0	-1e10	8	-1e10	8	-1E+10	1	-1E+10	1	-1E+10	1	-1E+10	1	-1E+10	1	-1E+10	1
4902554	78	C	04/05/2023	02:49	-132.741	47.864	0	978.00	0	3.0930	0	34.3590	0	27.371	0	967.526	0	-1e10	8	-1e10	8	-1E+10	1	-1E+10	1	-1E+10	1	-1E+10	1	-1E+10	1	-1E+10	1
4902554	78	C	04/05/2023	02:49	-132.741	47.864	0	982.90	0	3.0920	0	34.3600	0	27.372	0	972.363	0	-1e10	8	-1e10	8	-1E+10	1	-1E+10	1	-1E+10	1	-1E+10	1	-1E+10	1	-1E+10	1
4902554	78	C	04/05/2023	02:49	-132.741	47.864	0	987.90	0	3.0910	0	34.3600	0	27.372	0	977.297	0	-1e10	8	-1e10	8	-1E+10	1	-1E+10	1	-1E+10	1	-1E+10	1	-1E+10	1	-1E+10	1
4902554	78	C	04/05/2023	02:49	-132.741	47.864	0	993.00	0	3.0880	0	34.3610	0	27.373	0	982.331	0	-1e10	8	-1e10	8	-1E+10	1	-1E+10	1	-1E+10	1	-1E+10	1	-1E+10	1	-1E+10	1
4902554	78	C	04/05/2023	02:49	-132.741	47.864	0	998.10	0	3.0820	0	34.3620	0	27.375	0	987.364	0	-1e10	8	-1e10	8	-1E+10	1	-1E+10	1	-1E+10	1	-1E+10	1	-1E+10	1	-1E+10	1
4902554	78	C	04/05/2023	02:49	-132.741	47.864	0	1005.30	0	3.0750	0	34.3630	0	27.376	0	994.469	0	-1e10	8	-1e10	8	-1E+10	1	-1E+10	1	-1E+10	1	-1E+10	1	-1E+10	1	-1E+10	1
4902554	78	C	04/05/2023	02:49	-132.741	47.864	0	1015.10	0	3.0570	0	34.3680	0	27.382	0	1004.140	0	-1e10	8	-1e10	8	-1E+10	1	-1E+10	1	-1E+10	1	-1E+10	1	-1E+10	1	-1E+10	1
4902554	78	C	04/05/2023	02:49	-132.741	47.864	0	1025.20	0	3.0410	0	34.3710	0	27.386	0	1014.107	0	-1e10	8	-1e10	8	-1E+10	1	-1E+10	1	-1E+10	1	-1E+10	1	-1E+10	1	-1E+10	1
4902554	78	C	04/05/2023	02:49	-132.741	47.864	0	1035.20	0	3.0340	0	34.3730	0	27.388	0	1023.974	0	-1e10	8	-1e10	8	-1E+10	1	-1E+10	1	-1E+10	1	-1E+10	1	-1E+10	1	-1E+10	1
4902554	78	C	04/05/2023	02:49	-132.741	47.864	0	1045.20	0	3.0180	0	34.3760	0	27.392	0	1033.841	0	-1e10	8	-1e10	8	-1E+10	1	-1E+10	1	-1E+10	1	-1E+10	1	-1E+10	1	-1E+10	1
4902554	78	C	04/05/2023	02:49	-132.741	47.864	0	1055.20	0	3.0030	0	34.3790	0	27.396	0	1043.707	0	-1e10	8	-1e10	8	-1E+10	1	-1E+10	1	-1E+10	1	-1E+10	1	-1E+10	1	-1E+10	1
4902554	78	C	04/05/2023	02:49	-132.741	47.864	0	1065.40	0	2.9860	0	34.3850	0	27.402	0	1053.771	0	-1e10	8	-1e10	8	-1E+10	1	-1E+10	1	-1E+10	1	-1E+10	1	-1E+10	1	-1E+10	1
4902554	78	C	04/05/2023	02:49	-132.741	47.864	0	1075.70	0	2.9640	0	34.3910	0	27.409	0	1063.932	0	-1e10	8	-1e10	8	-1E+10	1	-1E+10	1	-1E+10	1	-1E+10	1	-1E+10	1	-1E+10	1
4902554	78	C	04/05/2023	02:49	-132.741	47.864	0	1085.70	0	2.9440	0	34.3950	0	27.414	0	1073.797	0	-1e10	8	-1e10	8	-1E+10	1	-1E+10	1	-1E+10	1	-1E+10	1	-1E+10	1	-1E+10	1
4902554	78	C	04/05/2023	02:49	-132.741	47.864	0	1095.70	0	2.9340	0	34.3970	0	27.416	0	1083.662	0	-1e10	8	-1e10	8	-1E+10	1	-1E+10	1	-1E+10	1	-1E+10	1	-1E+10	1	-1E+10	1
4902554	78	C	04/05/2023	02:49	-132.741	47.864	0	1105.50	0	2.9140	0	34.4010	0	27.421	0	1093.329	0	-1e10	8	-1e10	8	-1E+10	1	-1E+10	1	-1E+10	1	-1E+10	1	-1E+10	1	-1E+10	1
4902554	78	C	04/05/2023	02:49	-132.741	47.864	0	1115.20	0	2.9020	0	34.4040	0	27.425	0	1102.896	0	-1e10	8	-1e10	8	-1E+10	1	-1E+10	1	-1E+10	1	-1E+10	1	-1E+10	1	-1E+10	1
4902554	78	C	04/05/2023	02:49	-132.741	47.864	0	1125.00	0	2.8900	0	34.4060	0	27.428	0	1112.562	0	-1e10	8	-1e10	8	-1E+10	1	-1E+10	1	-1E+10	1	-1E+10	1	-1E+10	1	-1E+10	1
4902554	78	C	04/05/2023	02:49	-132.741	47.864	0	1135.00	0	2.8790	0	34.4080	0	27.430	0	1122.425	0	-1e10	8	-1e10	8	-1E+10	1	-1E+10	1	-1E+10	1	-1E+10	1	-1E+10	1	-1E+10	1
4902554	78	C	04/05/2023	02:49	-132.741	47.864	0	1145.00	0	2.8540	0	34.4130	0	27.437	0	1132.287	0	-1e10	8	-1e10	8	-1E+10	1	-1E+10	1	-1E+10	1	-1E+10	1	-1E+10	1	-1E+10	1
4902554	78	C	04/05/2023	02:49	-132.741	47.864	0	1155.40	0	2.8410	0	34.4160	0	27.440	0	1142.544	0	-1e10	8	-1e10	8	-1E+10	1	-1E+10	1	-1E+10	1	-1E+10	1	-1E+10	1	-1E+10	1
4902554	78	C	04/05/2023	02:49	-132.741	47.864	0	1165.40	0	2.8240	0	34.4190	0	27.444	0	1152.405	0	-1e10	8	-1e10	8	-1E+10	1	-1E+10	1	-1E+10	1	-1E+10	1	-1E+10	1	-1E+10	1
4902554	78	C	04/05/2023	02:49	-132.741	47.864	0	1175.60	0	2.8150	0	34.4220	0	27.447	0	1162.463	0	-1e10	8	-1e10	8	-1E+10	1	-1E+10	1	-1E+10	1	-1E+10	1	-1E+10	1	-1E+10	1
4902554	78	C	04/05/2023	02:49	-132.741	47.864	0	1185.50	0	2.8070	0	34.4240	0	27.450	0	1172.225	0	-1e10	8	-1e10	8	-1E+10	1	-1E+10	1	-1E+10	1	-1E+10	1	-1E+10	1	-1E+10	1
4902554	78	C	04/05/2023	02:49	-132.741	47.864	0	1195.20	0	2.7940	0	34.4270	0	27.453	0	1181.789	0	-1e10	8	-1e10	8	-1E+10	1	-1E+10	1	-1E+10	1	-1E+10	1	-1E+10	1	-1E+10	1
4902554	78	C	04/05/2023	02:49	-132.741	47.864	0	1205.20	0	2.7870	0	34.4280	0	27.455	0	1191.648	0	-1e10	8	-1e10	8	-1E+10	1	-1E+10	1	-1E+10	1	-1E+10	1	-1E+10	1	-1E+10	1
4902554	78	C	04/05/2023	02:49	-132.741	47.864	0	1215.40	0	2.7750	0	34.4310	0	27.458	0	1201.705	0	-1e10	8	-1e10	8	-1E+10	1	-1E+10	1	-1E+10	1	-1E+10	1	-1E+10	1	-1E+10	1
4902554	78	C	04/05/2023	02:49	-132.741	47.864	0	1225.40	0	2.7520	0	34.4340	0	27.463	0	1211.563	0	-1e10	8	-1e10	8	-1E+10	1	-1E+10	1	-1E+10	1	-1E+10	1	-1E+10	1	-1E+10	1
4902554	78	C	04/05/2023	02:49	-132.741	47.864	0	1235.40	0	2.7290	0	34.4370	0	27.467	0	1221.421	0	-1e10	8	-1e10	8	-1E+10	1	-1E+10	1	-1E+10	1	-1E+10	1	-1E+10	1	-1E+10	1
4902554	78	C	04/05/2023	02:49	-132.741	47.864	0	1245.40	0	2.7060	0	34.4400	0	27.472	0	1231.279	0	-1e10	8	-1e10	8	-1E+10	1	-1E+10	1	-1E+10	1	-1E+10	1	-1E+10	1	-1E+10	1
4902554	78	C	04/05/2023	02:49	-132.741	47.864	0	1255.40	0	2.6910	0	34.4440	0	27.476	0	1241.136	0	-1e10	8	-1e10	8	-1E+10	1	-1E+10	1	-1E+10	1	-1E+10	1	-1E+10	1	-1E+10	1
4902554	78	C	04/05/2023	02:49	-132.741	47.864	0	1265.40	0	2.6630	0	34.4480	0	27.482	0	1250.993	0	-1e10	8	-1e10	8	-1E+10	1	-1E+10	1	-1E+10	1	-1E+10	1	-1E+10	1	-1E+10	1
4902554	78	C	04/05/2023	02:49	-132.741	47.864	0	1275.50	0	2.6390	0	34.4520	0	27.487	0	1260.947	0	-1e10	8	-1e10	8	-1E+10	1	-1E+10	1	-1E+10	1	-1E+10	1	-1E+10	1	-1E+10	1
4902554	78	C	04/05/2023	02:49	-132.741	47.864	0	1285.60	0	2.6280	0	34.4540	0	27.490	0	1270.902	0	-1e10	8	-1e10	8	-1E+10	1	-1E+10	1	-1E+10	1	-1E+10	1	-1E+10	1	-1E+10	1
4902554	78	C	04/05/2023	02:49	-132.741	47.864	0	1295.50	0	2.6110	0	34.4570	0	27.494	0	1280.658	0	-1e10	8	-1e10	8	-1E+10	1	-1E+10	1	-1E+10	1	-1E+10	1	-1E+10	1	-1E+10	1
4902554	78	C	04/05/2023	02:49	-132.741	47.864	0	1305.60	0	2.6070	0	34.4620	0	27.498	0	1290.612	0	-1e10	8	-1e10	8	-1E+10	1	-1E+10	1	-1E+10	1	-1E+10	1	-1E+10	1	-1E+10	1
4902554	78	C	04/05/2023	02:49	-132.741	47.864	0	1315.40	0	2.5940	0	34.4650	0	27.502	0	1300.269	0	-1e10	8	-1e10	8	-1E+10	1	-1E+10	1	-1E+10	1	-1E+10	1	-1E+10	1	-1E+10	1
4902554	78	C	04/05/2023	02:49	-132.741	47.864	0	1325.40	0	2.5700	0	34.4690	0	27.507	0	1310.123	0	-1e10	8	-1e10	8	-1E+10	1	-1E+10	1	-1E+10	1	-1E+10	1	-1E+10	1	-1E+10	1
4902554	78	C	04/05/2023	02:49	-132.741	47.864	0	1335.30	0	2.5540	0	34.4710	0	27.510	0	1319.878	0	-1e10	8	-1e10	8	-1E+10	1	-1E+10	1	-1E+10	1	-1E+10	1	-1E+10	1	-1E+10	1
4902554	78	C	04/05/2023	02:49	-132.741	47.864	0	1345.50	0	2.5440	0	34.4740	0	27.513	0	1329.928	0	-1e10	8	-1e10	8	-1E+10	1	-1E+10	1	-1E+10	1	-1E+10	1	-1E+10	1	-1E+10	1
4902554	78	C	04/05/2023	02:49	-132.741	47.864	0	1355.50	0	2.5280	0	34.4760	0	27.516	0	1339.780	0	-1e10	8	-1e10	8	-1E+10	1	-1E+10	1	-1E+10	1	-1E+10	1	-1E+10	1	-1E+10	1
4902554	78	C	04/05/2023	02:49	-132.741	47.864	0	1365.50	0	2.5150	0	34.4780	0	27.519	0	1349.632	0	-1e10	8	-1e10	8	-1E+10	1	-1E+10	1	-1E+10	1	-1E+10	1	-1E+10	1	-1E+10	1
4902554	78	C	04/05/2023	02:49	-132.741	47.864	0	1375.60	0	2.5010	0	34.4800	0	27.522	0	1359.582	0	-1e10	8	-1e10	8	-1E+10	1	-1E+10	1	-1E+10	1	-1E+10	1	-1E+10	1	-1E+10	1
4902554	78	C	04/05/2023	02:49	-132.741	47.864	0	1385.40	0	2.4950	0	34.4810	0	27.523	0	1369.237	0	-1e10	8	-1e10	8	-1E+10	1	-1E+10	1	-1E+10	1	-1E+10	1	-1E+10	1	-1E+10	1
4902554	78	C	04/05/2023	02:49	-132.741	47.864	0	1395.20	0	2.4870	0	34.4830	0	27.526	0	1378.890	0	-1e10	8	-1e10	8	-1E+10	1	-1E+10	1	-1E+10	1	-1E+10	1	-1E+10	1	-1E+10	1
4902554	78	C	04/05/2023	02:49	-132.741	47.864	0	1405.50	0	2.4790	0	34.4850	0	27.528	0	1389.036	0	-1e10	8	-1e10	8	-1E+10	1	-1E+10	1	-1E+10	1	-1E+10	1	-1E+10	1	-1E+10	1
4902554	78	C	04/05/2023	02:49	-132.741	47.864	0	1415.50	0	2.4580	0	34.4880	0	27.532	0	1398.886	0	-1e10	8	-1e10	8	-1E+10	1	-1E+10	1	-1E+10	1	-1E+10	1	-1E+10	1	-1E+10	1
4902554	78	C	04/05/2023	02:49	-132.741	47.864	0	1425.50	0	2.4480	0	34.4890	0	27.534	0	1408.735	0	-1e10	8	-1e10	8	-1E+10	1	-1E+10	1	-1E+10	1	-1E+10	1	-1E+10	1	-1E+10	1
4902554	78	C	04/05/2023	02:49	-132.741	47.864	0	1435.40	0	2.4350	0	34.4920	0	27.537	0	1418.485	0	-1e10	8	-1e10	8	-1E+10	1	-1E+10	1	-1E+10	1	-1E+10	1	-1E+10	1	-1E+10	1
4902554	78	C	04/05/2023	02:49	-132.741	47.864	0	1445.40	0	2.4110	0	34.4970	0	27.543	0	1428.334	0	-1e10	8	-1e10	8	-1E+10	1	-1E+10	1	-1E+10	1	-1E+10	1	-1E+10	1	-1E+10	1
4902554	78	C	04/05/2023	02:49	-132.741	47.864	0	1455.60	0	2.3960	0	34.4990	0	27.546	0	1438.378	0	-1e10	8	-1e10	8	-1E+10	1	-1E+10	1	-1E+10	1	-1E+10	1	-1E+10	1	-1E+10	1
4902554	78	C	04/05/2023	02:49	-132.741	47.864	0	1465.40	0	2.3930	0	34.5000	0	27.547	0	1448.029	0	-1e10	8	-1e10	8	-1E+10	1	-1E+10	1	-1E+10	1	-1E+10	1	-1E+10	1	-1E+10	1
4902554	78	C	04/05/2023	02:49	-132.741	47.864	0	1475.40	0	2.3790	0	34.5020	0	27.550	0	1457.876	0	-1e10	8	-1e10	8	-1E+10	1	-1E+10	1	-1E+10	1	-1E+10	1	-1E+10	1	-1E+10	1
4902554	78	C	04/05/2023	02:49	-132.741	47.864	0	1485.60	0	2.3620	0	34.5050	0	27.554	0	1467.919	0	-1e10	8	-1e10	8	-1E+10	1	-1E+10	1	-1E+10	1	-1E+10	1	-1E+10	1	-1E+10	1
4902554	78	C	04/05/2023	02:49	-132.741	47.864	0	1495.50	0	2.3500	0	34.5070	0	27.557	0	1477.667	0	-1e10	8	-1e10	8	-1E+10	1	-1E+10	1	-1E+10	1	-1E+10	1	-1E+10	1	-1E+10	1
4902554	78	C	04/05/2023	02:49	-132.741	47.864	0	1505.30	0	2.3350	0	34.5100	0	27.560	0	1487.316	0	-1e10	8	-1e10	8	-1E+10	1	-1E+10	1	-1E+10	1	-1E+10	1	-1E+10	1	-1E+10	1
4902554	78	C	04/05/2023	02:49	-132.741	47.864	0	1515.20	0	2.3230	0	34.5120	0	27.563	0	1497.062	0	-1e10	8	-1e10	8	-1E+10	1	-1E+10	1	-1E+10	1	-1E+10	1	-1E+10	1	-1E+10	1
4902554	78	C	04/05/2023	02:49	-132.741	47.864	0	1525.50	0	2.3140	0	34.5140	0	27.565	0	1507.202	0	-1e10	8	-1e10	8	-1E+10	1	-1E+10	1	-1E+10	1	-1E+10	1	-1E+10	1	-1E+10	1
4902554	78	C	04/05/2023	02:49	-132.741	47.864	0	1535.60	0	2.2990	0	34.5170	0	27.569	0	1517.145	0	-1e10	8	-1e10	8	-1E+10	1	-1E+10	1	-1E+10	1	-1E+10	1	-1E+10	1	-1E+10	1
4902554	78	C	04/05/2023	02:49	-132.741	47.864	0	1545.20	0	2.2900	0	34.5190	0	27.571	0	1526.595	0	-1e10	8	-1e10	8	-1E+10	1	-1E+10	1	-1E+10	1	-1E+10	1	-1E+10	1	-1E+10	1
4902554	78	C	04/05/2023	02:49	-132.741	47.864	0	1555.20	0	2.2800	0	34.5210	0	27.574	0	1536.438	0	-1e10	8	-1e10	8	-1E+10	1	-1E+10	1	-1E+10	1	-1E+10	1	-1E+10	1	-1E+10	1
4902554	78	C	04/05/2023	02:49	-132.741	47.864	0	1565.20	0	2.2680	0	34.5230	0	27.576	0	1546.281	0	-1e10	8	-1e10	8	-1E+10	1	-1E+10	1	-1E+10	1	-1E+10	1	-1E+10	1	-1E+10	1
4902554	78	C	04/05/2023	02:49	-132.741	47.864	0	1575.10	0	2.2540	0	34.5260	0	27.580	0	1556.025	0	-1e10	8	-1e10	8	-1E+10	1	-1E+10	1	-1E+10	1	-1E+10	1	-1E+10	1	-1E+10	1
4902554	78	C	04/05/2023	02:49	-132.741	47.864	0	1585.30	0	2.2420	0	34.5280	0	27.583	0	1566.064	0	-1e10	8	-1e10	8	-1E+10	1	-1E+10	1	-1E+10	1	-1E+10	1	-1E+10	1	-1E+10	1
4902554	78	C	04/05/2023	02:49	-132.741	47.864	0	1595.30	0	2.2310	0	34.5300	0	27.585	0	1575.905	0	-1e10	8	-1e10	8	-1E+10	1	-1E+10	1	-1E+10	1	-1E+10	1	-1E+10	1	-1E+10	1
4902554	78	C	04/05/2023	02:49	-132.741	47.864	0	1605.20	0	2.2180	0	34.5320	0	27.588	0	1585.648	0	-1e10	8	-1e10	8	-1E+10	1	-1E+10	1	-1E+10	1	-1E+10	1	-1E+10	1	-1E+10	1
4902554	78	C	04/05/2023	02:49	-132.741	47.864	0	1615.30	0	2.2030	0	34.5350	0	27.592	0	1595.587	0	-1e10	8	-1e10	8	-1E+10	1	-1E+10	1	-1E+10	1	-1E+10	1	-1E+10	1	-1E+10	1
4902554	78	C	04/05/2023	02:49	-132.741	47.864	0	1625.50	0	2.1960	0	34.5360	0	27.593	0	1605.624	0	-1e10	8	-1e10	8	-1E+10	1	-1E+10	1	-1E+10	1	-1E+10	1	-1E+10	1	-1E+10	1
4902554	78	C	04/05/2023	02:49	-132.741	47.864	0	1635.30	0	2.1850	0	34.5380	0	27.596	0	1615.267	0	-1e10	8	-1e10	8	-1E+10	1	-1E+10	1	-1E+10	1	-1E+10	1	-1E+10	1	-1E+10	1
4902554	78	C	04/05/2023	02:49	-132.741	47.864	0	1645.20	0	2.1710	0	34.5410	0	27.599	0	1625.007	0	-1e10	8	-1e10	8	-1E+10	1	-1E+10	1	-1E+10	1	-1E+10	1	-1E+10	1	-1E+10	1
4902554	78	C	04/05/2023	02:49	-132.741	47.864	0	1655.70	0	2.1650	0	34.5420	0	27.600	0	1635.338	0	-1e10	8	-1e10	8	-1E+10	1	-1E+10	1	-1E+10	1	-1E+10	1	-1E+10	1	-1E+10	1
4902554	78	C	04/05/2023	02:49	-132.741	47.864	0	1665.50	0	2.1540	0	34.5450	0	27.604	0	1644.979	0	-1e10	8	-1e10	8	-1E+10	1	-1E+10	1	-1E+10	1	-1E+10	1	-1E+10	1	-1E+10	1
4902554	78	C	04/05/2023	02:49	-132.741	47.864	0	1675.10	0	2.1510	0	34.5460	0	27.605	0	1654.424	0	-1e10	8	-1e10	8	-1E+10	1	-1E+10	1	-1E+10	1	-1E+10	1	-1E+10	1	-1E+10	1
4902554	78	C	04/05/2023	02:49	-132.741	47.864	0	1685.30	0	2.1380	0	34.5480	0	27.608	0	1664.458	0	-1e10	8	-1e10	8	-1E+10	1	-1E+10	1	-1E+10	1	-1E+10	1	-1E+10	1	-1E+10	1
4902554	78	C	04/05/2023	02:49	-132.741	47.864	0	1695.60	0	2.1280	0	34.5490	0	27.609	0	1674.590	0	-1e10	8	-1e10	8	-1E+10	1	-1E+10	1	-1E+10	1	-1E+10	1	-1E+10	1	-1E+10	1
4902554	78	C	04/05/2023	02:49	-132.741	47.864	0	1705.40	0	2.1230	0	34.5510	0	27.611	0	1684.229	0	-1e10	8	-1e10	8	-1E+10	1	-1E+10	1	-1E+10	1	-1E+10	1	-1E+10	1	-1E+10	1
4902554	78	C	04/05/2023	02:49	-132.741	47.864	0	1715.30	0	2.1190	0	34.5520	0	27.612	0	1693.967	0	-1e10	8	-1e10	8	-1E+10	1	-1E+10	1	-1E+10	1	-1E+10	1	-1E+10	1	-1E+10	1
4902554	78	C	04/05/2023	02:49	-132.741	47.864	0	1725.30	0	2.1070	0	34.5540	0	27.615	0	1703.802	0	-1e10	8	-1e10	8	-1E+10	1	-1E+10	1	-1E+10	1	-1E+10	1	-1E+10	1	-1E+10	1
4902554	78	C	04/05/2023	02:49	-132.741	47.864	0	1735.40	0	2.0980	0	34.5550	0	27.617	0	1713.736	0	-1e10	8	-1e10	8	-1E+10	1	-1E+10	1	-1E+10	1	-1E+10	1	-1E+10	1	-1E+10	1
4902554	78	C	04/05/2023	02:49	-132.741	47.864	0	1745.70	0	2.0860	0	34.5580	0	27.620	0	1723.865	0	-1e10	8	-1e10	8	-1E+10	1	-1E+10	1	-1E+10	1	-1E+10	1	-1E+10	1	-1E+10	1
4902554	78	C	04/05/2023	02:49	-132.741	47.864	0	1755.40	0	2.0690	0	34.5610	0	27.624	0	1733.405	0	-1e10	8	-1e10	8	-1E+10	1	-1E+10	1	-1E+10	1	-1E+10	1	-1E+10	1	-1E+10	1
4902554	78	C	04/05/2023	02:49	-132.741	47.864	0	1765.20	0	2.0570	0	34.5630	0	27.626	0	1743.041	0	-1e10	8	-1e10	8	-1E+10	1	-1E+10	1	-1E+10	1	-1E+10	1	-1E+10	1	-1E+10	1
4902554	78	C	04/05/2023	02:49	-132.741	47.864	0	1775.60	0	2.0520	0	34.5640	0	27.628	0	1753.268	0	-1e10	8	-1e10	8	-1E+10	1	-1E+10	1	-1E+10	1	-1E+10	1	-1E+10	1	-1E+10	1
4902554	78	C	04/05/2023	02:49	-132.741	47.864	0	1785.60	0	2.0450	0	34.5660	0	27.630	0	1763.101	0	-1e10	8	-1e10	8	-1E+10	1	-1E+10	1	-1E+10	1	-1E+10	1	-1E+10	1	-1E+10	1
4902554	78	C	04/05/2023	02:49	-132.741	47.864	0	1795.40	0	2.0310	0	34.5680	0	27.633	0	1772.736	0	-1e10	8	-1e10	8	-1E+10	1	-1E+10	1	-1E+10	1	-1E+10	1	-1E+10	1	-1E+10	1
4902554	78	C	04/05/2023	02:49	-132.741	47.864	0	1805.20	0	2.0230	0	34.5700	0	27.635	0	1782.372	0	-1e10	8	-1e10	8	-1E+10	1	-1E+10	1	-1E+10	1	-1E+10	1	-1E+10	1	-1E+10	1
4902554	78	C	04/05/2023	02:49	-132.741	47.864	0	1815.30	0	2.0070	0	34.5730	0	27.639	0	1792.301	0	-1e10	8	-1e10	8	-1E+10	1	-1E+10	1	-1E+10	1	-1E+10	1	-1E+10	1	-1E+10	1
4902554	78	C	04/05/2023	02:49	-132.741	47.864	0	1825.40	0	1.9990	0	34.5740	0	27.640	0	1802.231	0	-1e10	8	-1e10	8	-1E+10	1	-1E+10	1	-1E+10	1	-1E+10	1	-1E+10	1	-1E+10	1
4902554	78	C	04/05/2023	02:49	-132.741	47.864	0	1835.40	0	1.9920	0	34.5760	0	27.642	0	1812.061	0	-1e10	8	-1e10	8	-1E+10	1	-1E+10	1	-1E+10	1	-1E+10	1	-1E+10	1	-1E+10	1
4902554	78	C	04/05/2023	02:49	-132.741	47.864	0	1845.20	0	1.9880	0	34.5770	0	27.643	0	1821.694	0	-1e10	8	-1e10	8	-1E+10	1	-1E+10	1	-1E+10	1	-1E+10	1	-1E+10	1	-1E+10	1
4902554	78	C	04/05/2023	02:49	-132.741	47.864	0	1855.20	0	1.9810	0	34.5780	0	27.645	0	1831.524	0	-1e10	8	-1e10	8	-1E+10	1	-1E+10	1	-1E+10	1	-1E+10	1	-1E+10	1	-1E+10	1
4902554	78	C	04/05/2023	02:49	-132.741	47.864	0	1865.30	0	1.9750	0	34.5790	0	27.646	0	1841.451	0	-1e10	8	-1e10	8	-1E+10	1	-1E+10	1	-1E+10	1	-1E+10	1	-1E+10	1	-1E+10	1
4902554	78	C	04/05/2023	02:49	-132.741	47.864	0	1875.40	0	1.9670	0	34.5810	0	27.648	0	1851.378	0	-1e10	8	-1e10	8	-1E+10	1	-1E+10	1	-1E+10	1	-1E+10	1	-1E+10	1	-1E+10	1
4902554	78	C	04/05/2023	02:49	-132.741	47.864	0	1885.50	0	1.9620	0	34.5820	0	27.650	0	1861.305	0	-1e10	8	-1e10	8	-1E+10	1	-1E+10	1	-1E+10	1	-1E+10	1	-1E+10	1	-1E+10	1
4902554	78	C	04/05/2023	02:49	-132.741	47.864	0	1895.60	0	1.9570	0	34.5830	0	27.651	0	1871.231	0	-1e10	8	-1e10	8	-1E+10	1	-1E+10	1	-1E+10	1	-1E+10	1	-1E+10	1	-1E+10	1
4902554	78	C	04/05/2023	02:49	-132.741	47.864	0	1905.60	0	1.9540	0	34.5840	0	27.652	0	1881.058	0	-1e10	8	-1e10	8	-1E+10	1	-1E+10	1	-1E+10	1	-1E+10	1	-1E+10	1	-1E+10	1
4902554	78	C	04/05/2023	02:49	-132.741	47.864	0	1915.30	0	1.9510	0	34.5840	0	27.652	0	1890.590	0	-1e10	8	-1e10	8	-1E+10	1	-1E+10	1	-1E+10	1	-1E+10	1	-1E+10	1	-1E+10	1
4902554	78	C	04/05/2023	02:49	-132.741	47.864	0	1925.30	0	1.9450	0	34.5850	0	27.654	0	1900.416	0	-1e10	8	-1e10	8	-1E+10	1	-1E+10	1	-1E+10	1	-1E+10	1	-1E+10	1	-1E+10	1
4902554	78	C	04/05/2023	02:49	-132.741	47.864	0	1935.60	0	1.9400	0	34.5860	0	27.655	0	1910.537	0	-1e10	8	-1e10	8	-1E+10	1	-1E+10	1	-1E+10	1	-1E+10	1	-1E+10	1	-1E+10	1
4902554	78	C	04/05/2023	02:49	-132.741	47.864	0	1945.60	0	1.9340	0	34.5880	0	27.657	0	1920.363	0	-1e10	8	-1e10	8	-1E+10	1	-1E+10	1	-1E+10	1	-1E+10	1	-1E+10	1	-1E+10	1
4902554	78	C	04/05/2023	02:49	-132.741	47.864	0	1955.80	0	1.9300	0	34.5880	0	27.657	0	1930.384	0	-1e10	8	-1e10	8	-1E+10	1	-1E+10	1	-1E+10	1	-1E+10	1	-1E+10	1	-1E+10	1
4902554	78	C	04/05/2023	02:49	-132.741	47.864	0	1965.60	0	1.9260	0	34.5890	0	27.658	0	1940.012	0	-1e10	8	-1e10	8	-1E+10	1	-1E+10	1	-1E+10	1	-1E+10	1	-1E+10	1	-1E+10	1
4902554	78	C	04/05/2023	02:49	-132.741	47.864	0	1975.40	0	1.9220	0	34.5900	0	27.660	0	1949.640	0	-1e10	8	-1e10	8	-1E+10	1	-1E+10	1	-1E+10	1	-1E+10	1	-1E+10	1	-1E+10	1
4902554	78	C	04/05/2023	02:49	-132.741	47.864	0	1985.80	0	1.9200	0	34.5910	0	27.661	0	1959.856	0	-1e10	8	-1e10	8	-1E+10	1	-1E+10	1	-1E+10	1	-1E+10	1	-1E+10	1	-1E+10	1
4902554	78	C	04/05/2023	02:49	-132.741	47.864	0	1995.60	0	1.9170	0	34.5910	0	27.661	0	1969.483	0	-1e10	8	-1e10	8	-1E+10	1	-1E+10	1	-1E+10	1	-1E+10	1	-1E+10	1	-1E+10	1
4902554	78	C	04/05/2023	02:49	-132.741	47.864	0	2005.30	0	1.9130	0	34.5920	0	27.662	0	1979.011	0	-1e10	8	-1e10	8	-1E+10	1	-1E+10	1	-1E+10	1	-1E+10	1	-1E+10	1	-1E+10	1
4902554	78	C	04/05/2023	02:49	-132.741	47.864	0	2015.20	0	1.9080	0	34.5930	0	27.663	0	1988.735	0	-1e10	8	-1e10	8	-1E+10	1	-1E+10	1	-1E+10	1	-1E+10	1	-1E+10	1	-1E+10	1
4902554	78	C	04/05/2023	02:49	-132.741	47.864	0																										
4902554	79	C	04/15/2023	08:10	-132.748	47.817	0	0.30	0	7.2230	0	32.3170	0	25.276	0	0.297	0	-1e10	8	-1e10	8	-1E+10	1	-1E+10	1	-1E+10	1	-1E+10	1	-1E+10	1	-1E+10	1
4902554	79	C	04/15/2023	08:10	-132.748	47.817	0	0.60	0	7.2234	0	32.3166	0	25.276	0	0.595	0	-1e10	8	-1e10	8	-1E+10	1	-1E+10	1	-1E+10	1	-1E+10	1	-1E+10	1	-1E+10	1
4902554	79	C	04/15/2023	08:10	-132.748	47.817	0	1.10	0	7.2240	0	32.3160	0	25.275	0	1.091	0	-1e10	8	-1e10	8	-1E+10	1	-1E+10	1	-1E+10	1	-1E+10	1	-1E+10	1	-1E+10	1
4902554	79	C	04/15/2023	08:10	-132.748	47.817	0	2.20	0	7.2240	0	32.3170	0	25.276	0	2.182	0	-1e10	8	-1e10	8	-1E+10	1	-1E+10	1	-1E+10	1	-1E+10	1	-1E+10	1	-1E+10	1
4902554	79	C	04/15/2023	08:10	-132.748	47.817	0	2.80	0	7.2240	0	32.3160	0	25.275	0	2.777	0	-1e10	8	-1e10	8	-1E+10	1	-1E+10	1	-1E+10	1	-1E+10	1	-1E+10	1	-1E+10	1
4902554	79	C	04/15/2023	08:10	-132.748	47.817	0	3.90	0	7.2250	0	32.3160	0	25.275	0	3.867	0	-1e10	8	-1e10	8	-1E+10	1	-1E+10	1	-1E+10	1	-1E+10	1	-1E+10	1	-1E+10	1
4902554	79	C	04/15/2023	08:10	-132.748	47.817	0	5.00	0	7.2260	0	32.3160	0	25.275	0	4.958	0	-1e10	8	-1e10	8	-1E+10	1	-1E+10	1	-1E+10	1	-1E+10	1	-1E+10	1	-1E+10	1
4902554	79	C	04/15/2023	08:10	-132.748	47.817	0	5.70	0	7.2250	0	32.3170	0	25.276	0	5.652	0	-1e10	8	-1e10	8	-1E+10	1	-1E+10	1	-1E+10	1	-1E+10	1	-1E+10	1	-1E+10	1
4902554	79	C	04/15/2023	08:10	-132.748	47.817	0	6.90	0	7.2230	0	32.3160	0	25.275	0	6.842	0	-1e10	8	-1e10	8	-1E+10	1	-1E+10	1	-1E+10	1	-1E+10	1	-1E+10	1	-1E+10	1
4902554	79	C	04/15/2023	08:10	-132.748	47.817	0	8.10	0	7.2220	0	32.3170	0	25.276	0	8.032	0	-1e10	8	-1e10	8	-1E+10	1	-1E+10	1	-1E+10	1	-1E+10	1	-1E+10	1	-1E+10	1
4902554	79	C	04/15/2023	08:10	-132.748	47.817	0	9.00	0	7.2220	0	32.3170	0	25.276	0	8.924	0	-1e10	8	-1e10	8	-1E+10	1	-1E+10	1	-1E+10	1	-1E+10	1	-1E+10	1	-1E+10	1
4902554	79	C	04/15/2023	08:10	-132.748	47.817	0	9.80	0	7.2230	0	32.3170	0	25.276	0	9.718	0	-1e10	8	-1e10	8	-1E+10	1	-1E+10	1	-1E+10	1	-1E+10	1	-1E+10	1	-1E+10	1
4902554	79	C	04/15/2023	08:10	-132.748	47.817	0	11.00	0	7.2230	0	32.3170	0	25.276	0	10.908	0	-1e10	8	-1e10	8	-1E+10	1	-1E+10	1	-1E+10	1	-1E+10	1	-1E+10	1	-1E+10	1
4902554	79	C	04/15/2023	08:10	-132.748	47.817	0	12.10	0	7.2240	0	32.3170	0	25.276	0	11.998	0	-1e10	8	-1e10	8	-1E+10	1	-1E+10	1	-1E+10	1	-1E+10	1	-1E+10	1	-1E+10	1
4902554	79	C	04/15/2023	08:10	-132.748	47.817	0	13.00	0	7.2250	0	32.3170	0	25.276	0	12.891	0	-1e10	8	-1e10	8	-1E+10	1	-1E+10	1	-1E+10	1	-1E+10	1	-1E+10	1	-1E+10	1
4902554	79	C	04/15/2023	08:10	-132.748	47.817	0	13.90	0	7.2260	0	32.3160	0	25.275	0	13.783	0	-1e10	8	-1e10	8	-1E+10	1	-1E+10	1	-1E+10	1	-1E+10	1	-1E+10	1	-1E+10	1
4902554	79	C	04/15/2023	08:10	-132.748	47.817	0	15.10	0	7.2260	0	32.3160	0	25.275	0	14.973	0	-1e10	8	-1e10	8	-1E+10	1	-1E+10	1	-1E+10	1	-1E+10	1	-1E+10	1	-1E+10	1
4902554	79	C	04/15/2023	08:10	-132.748	47.817	0	16.00	0	7.2260	0	32.3160	0	25.275	0	15.865	0	-1e10	8	-1e10	8	-1E+10	1	-1E+10	1	-1E+10	1	-1E+10	1	-1E+10	1	-1E+10	1
4902554	79	C	04/15/2023	08:10	-132.748	47.817	0	16.80	0	7.2250	0	32.3170	0	25.276	0	16.659	0	-1e10	8	-1e10	8	-1E+10	1	-1E+10	1	-1E+10	1	-1E+10	1	-1E+10	1	-1E+10	1
4902554	79	C	04/15/2023	08:10	-132.748	47.817	0	18.00	0	7.2250	0	32.3160	0	25.275	0	17.848	0	-1e10	8	-1e10	8	-1E+10	1	-1E+10	1	-1E+10	1	-1E+10	1	-1E+10	1	-1E+10	1
4902554	79	C	04/15/2023	08:10	-132.748	47.817	0	18.70	0	7.2230	0	32.3170	0	25.276	0	18.543	0	-1e10	8	-1e10	8	-1E+10	1	-1E+10	1	-1E+10	1	-1E+10	1	-1E+10	1	-1E+10	1
4902554	79	C	04/15/2023	08:10	-132.748	47.817	0	20.10	0	7.2230	0	32.3170	0	25.276	0	19.931	0	-1e10	8	-1e10	8	-1E+10	1	-1E+10	1	-1E+10	1	-1E+10	1	-1E+10	1	-1E+10	1
4902554	79	C	04/15/2023	08:10	-132.748	47.817	0	21.20	0	7.2230	0	32.3170	0	25.276	0	21.021	0	-1e10	8	-1e10	8	-1E+10	1	-1E+10	1	-1E+10	1	-1E+10	1	-1E+10	1	-1E+10	1
4902554	79	C	04/15/2023	08:10	-132.748	47.817	0	22.00	0	7.2230	0	32.3170	0	25.276	0	21.815	0	-1e10	8	-1e10	8	-1E+10	1	-1E+10	1	-1E+10	1	-1E+10	1	-1E+10	1	-1E+10	1
4902554	79	C	04/15/2023	08:10	-132.748	47.817	0	23.20	0	7.2230	0	32.3170	0	25.276	0	23.004	0	-1e10	8	-1e10	8	-1E+10	1	-1E+10	1	-1E+10	1	-1E+10	1	-1E+10	1	-1E+10	1
4902554	79	C	04/15/2023	08:10	-132.748	47.817	0	23.90	0	7.2230	0	32.3160	0	25.276	0	23.698	0	-1e10	8	-1e10	8	-1E+10	1	-1E+10	1	-1E+10	1	-1E+10	1	-1E+10	1	-1E+10	1
4902554	79	C	04/15/2023	08:10	-132.748	47.817	0	25.10	0	7.2230	0	32.3170	0	25.276	0	24.888	0	-1e10	8	-1e10	8	-1E+10	1	-1E+10	1	-1E+10	1	-1E+10	1	-1E+10	1	-1E+10	1
4902554	79	C	04/15/2023	08:10	-132.748	47.817	0	25.90	0	7.2230	0	32.3170	0	25.276	0	25.681	0	-1e10	8	-1e10	8	-1E+10	1	-1E+10	1	-1E+10	1	-1E+10	1	-1E+10	1	-1E+10	1
4902554	79	C	04/15/2023	08:10	-132.748	47.817	0	27.10	0	7.2240	0	32.3170	0	25.276	0	26.871	0	-1e10	8	-1e10	8	-1E+10	1	-1E+10	1	-1E+10	1	-1E+10	1	-1E+10	1	-1E+10	1
4902554	79	C	04/15/2023	08:10	-132.748	47.817	0	28.10	0	7.2230	0	32.3170	0	25.276	0	27.863	0	-1e10	8	-1e10	8	-1E+10	1	-1E+10	1	-1E+10	1	-1E+10	1	-1E+10	1	-1E+10	1
4902554	79	C	04/15/2023	08:10	-132.748	47.817	0	29.10	0	7.2230	0	32.3170	0	25.276	0	28.854	0	-1e10	8	-1e10	8	-1E+10	1	-1E+10	1	-1E+10	1	-1E+10	1	-1E+10	1	-1E+10	1
4902554	79	C	04/15/2023	08:10	-132.748	47.817	0	30.10	0	7.2230	0	32.3170	0	25.276	0	29.846	0	-1e10	8	-1e10	8	-1E+10	1	-1E+10	1	-1E+10	1	-1E+10	1	-1E+10	1	-1E+10	1
4902554	79	C	04/15/2023	08:10	-132.748	47.817	0	31.00	0	7.2240	0	32.3170	0	25.276	0	30.738	0	-1e10	8	-1e10	8	-1E+10	1	-1E+10	1	-1E+10	1	-1E+10	1	-1E+10	1	-1E+10	1
4902554	79	C	04/15/2023	08:10	-132.748	47.817	0	31.90	0	7.2270	0	32.3160	0	25.275	0	31.630	0	-1e10	8	-1e10	8	-1E+10	1	-1E+10	1	-1E+10	1	-1E+10	1	-1E+10	1	-1E+10	1
4902554	79	C	04/15/2023	08:10	-132.748	47.817	0	32.90	0	7.2270	0	32.3170	0	25.276	0	32.622	0	-1e10	8	-1e10	8	-1E+10	1	-1E+10	1	-1E+10	1	-1E+10	1	-1E+10	1	-1E+10	1
4902554	79	C	04/15/2023	08:10	-132.748	47.817	0	33.90	0	7.2260	0	32.3170	0	25.276	0	33.613	0	-1e10	8	-1e10	8	-1E+10	1	-1E+10	1	-1E+10	1	-1E+10	1	-1E+10	1	-1E+10	1
4902554	79	C	04/15/2023	08:10	-132.748	47.817	0	35.00	0	7.2270	0	32.3170	0	25.276	0	34.704	0	-1e10	8	-1e10	8	-1E+10	1	-1E+10	1	-1E+10	1	-1E+10	1	-1E+10	1	-1E+10	1
4902554	79	C	04/15/2023	08:10	-132.748	47.817	0	36.20	0	7.2270	0	32.3170	0	25.276	0	35.894	0	-1e10	8	-1e10	8	-1E+10	1	-1E+10	1	-1E+10	1	-1E+10	1	-1E+10	1	-1E+10	1
4902554	79	C	04/15/2023	08:10	-132.748	47.817	0	36.80	0	7.2270	0	32.3160	0	25.275	0	36.489	0	-1e10	8	-1e10	8	-1E+10	1	-1E+10	1	-1E+10	1	-1E+10	1	-1E+10	1	-1E+10	1
4902554	79	C	04/15/2023	08:10	-132.748	47.817	0	38.00	0	7.2260	0	32.3170	0	25.276	0	37.678	0	-1e10	8	-1e10	8	-1E+10	1	-1E+10	1	-1E+10	1	-1E+10	1	-1E+10	1	-1E+10	1
4902554	79	C	04/15/2023	08:10	-132.748	47.817	0	39.20	0	7.2270	0	32.3170	0	25.276	0	38.868	0	-1e10	8	-1e10	8	-1E+10	1	-1E+10	1	-1E+10	1	-1E+10	1	-1E+10	1	-1E+10	1
4902554	79	C	04/15/2023	08:10	-132.748	47.817	0	40.00	0	7.2270	0	32.3170	0	25.276	0	39.661	0	-1e10	8	-1e10	8	-1E+10	1	-1E+10	1	-1E+10	1	-1E+10	1	-1E+10	1	-1E+10	1
4902554	79	C	04/15/2023	08:10	-132.748	47.817	0	41.20	0	7.2260	0	32.3170	0	25.276	0	40.851	0	-1e10	8	-1e10	8	-1E+10	1	-1E+10	1	-1E+10	1	-1E+10	1	-1E+10	1	-1E+10	1
4902554	79	C	04/15/2023	08:10	-132.748	47.817	0	42.00	0	7.2260	0	32.3170	0	25.276	0	41.644	0	-1e10	8	-1e10	8	-1E+10	1	-1E+10	1	-1E+10	1	-1E+10	1	-1E+10	1	-1E+10	1
4902554	79	C	04/15/2023	08:10	-132.748	47.817	0	43.20	0	7.2260	0	32.3170	0	25.276	0	42.834	0	-1e10	8	-1e10	8	-1E+10	1	-1E+10	1	-1E+10	1	-1E+10	1	-1E+10	1	-1E+10	1
4902554	79	C	04/15/2023	08:10	-132.748	47.817	0	43.90	0	7.2260	0	32.3170	0	25.276	0	43.528	0	-1e10	8	-1e10	8	-1E+10	1	-1E+10	1	-1E+10	1	-1E+10	1	-1E+10	1	-1E+10	1
4902554	79	C	04/15/2023	08:10	-132.748	47.817	0	45.00	0	7.2260	0	32.3170	0	25.276	0	44.618	0	-1e10	8	-1e10	8	-1E+10	1	-1E+10	1	-1E+10	1	-1E+10	1	-1E+10	1	-1E+10	1
4902554	79	C	04/15/2023	08:10	-132.748	47.817	0	46.00	0	7.2260	0	32.3170	0	25.276	0	45.610	0	-1e10	8	-1e10	8	-1E+10	1	-1E+10	1	-1E+10	1	-1E+10	1	-1E+10	1	-1E+10	1
4902554	79	C	04/15/2023	08:10	-132.748	47.817	0	46.90	0	7.2250	0	32.3170	0	25.276	0	46.502	0	-1e10	8	-1e10	8	-1E+10	1	-1E+10	1	-1E+10	1	-1E+10	1	-1E+10	1	-1E+10	1
4902554	79	C	04/15/2023	08:10	-132.748	47.817	0	47.80	0	7.2250	0	32.3170	0	25.276	0	47.394	0	-1e10	8	-1e10	8	-1E+10	1	-1E+10	1	-1E+10	1	-1E+10	1	-1E+10	1	-1E+10	1
4902554	79	C	04/15/2023	08:10	-132.748	47.817	0	48.80	0	7.2250	0	32.3170	0	25.276	0	48.386	0	-1e10	8	-1e10	8	-1E+10	1	-1E+10	1	-1E+10	1	-1E+10	1	-1E+10	1	-1E+10	1
4902554	79	C	04/15/2023	08:10	-132.748	47.817	0	49.90	0	7.2260	0	32.3170	0	25.276	0	49.476	0	-1e10	8	-1e10	8	-1E+10	1	-1E+10	1	-1E+10	1	-1E+10	1	-1E+10	1	-1E+10	1
4902554	79	C	04/15/2023	08:10	-132.748	47.817	0	51.00	0	7.2260	0	32.3170	0	25.276	0	50.567	0	-1e10	8	-1e10	8	-1E+10	1	-1E+10	1	-1E+10	1	-1E+10	1	-1E+10	1	-1E+10	1
4902554	79	C	04/15/2023	08:10	-132.748	47.817	0	51.90	0	7.2270	0	32.3160	0	25.275	0	51.459	0	-1e10	8	-1e10	8	-1E+10	1	-1E+10	1	-1E+10	1	-1E+10	1	-1E+10	1	-1E+10	1
4902554	79	C	04/15/2023	08:10	-132.748	47.817	0	52.90	0	7.2260	0	32.3160	0	25.276	0	52.450	0	-1e10	8	-1e10	8	-1E+10	1	-1E+10	1	-1E+10	1	-1E+10	1	-1E+10	1	-1E+10	1
4902554	79	C	04/15/2023	08:10	-132.748	47.817	0	54.10	0	7.2260	0	32.3170	0	25.276	0	53.640	0	-1e10	8	-1e10	8	-1E+10	1	-1E+10	1	-1E+10	1	-1E+10	1	-1E+10	1	-1E+10	1
4902554	79	C	04/15/2023	08:10	-132.748	47.817	0	55.00	0	7.2250	0	32.3170	0	25.277	0	54.532	0	-1e10	8	-1e10	8	-1E+10	1	-1E+10	1	-1E+10	1	-1E+10	1	-1E+10	1	-1E+10	1
4902554	79	C	04/15/2023	08:10	-132.748	47.817	0	56.10	0	7.2240	0	32.3170	0	25.277	0	55.623	0	-1e10	8	-1e10	8	-1E+10	1	-1E+10	1	-1E+10	1	-1E+10	1	-1E+10	1	-1E+10	1
4902554	79	C	04/15/2023	08:10	-132.748	47.817	0	57.10	0	7.2260	0	32.3160	0	25.276	0	56.614	0	-1e10	8	-1e10	8	-1E+10	1	-1E+10	1	-1E+10	1	-1E+10	1	-1E+10	1	-1E+10	1
4902554	79	C	04/15/2023	08:10	-132.748	47.817	0	58.00	0	7.2270	0	32.3170	0	25.276	0	57.506	0	-1e10	8	-1e10	8	-1E+10	1	-1E+10	1	-1E+10	1	-1E+10	1	-1E+10	1	-1E+10	1
4902554	79	C	04/15/2023	08:10	-132.748	47.817	0	58.90	0	7.2270	0	32.3170	0	25.276	0	58.398	0	-1e10	8	-1e10	8	-1E+10	1	-1E+10	1	-1E+10	1	-1E+10	1	-1E+10	1	-1E+10	1
4902554	79	C	04/15/2023	08:10	-132.748	47.817	0	60.00	0	7.2240	0	32.3170	0	25.277	0	59.489	0	-1e10	8	-1e10	8	-1E+10	1	-1E+10	1	-1E+10	1	-1E+10	1	-1E+10	1	-1E+10	1
4902554	79	C	04/15/2023	08:10	-132.748	47.817	0	61.00	0	7.2260	0	32.3170	0	25.276	0	60.480	0	-1e10	8	-1e10	8	-1E+10	1	-1E+10	1	-1E+10	1	-1E+10	1	-1E+10	1	-1E+10	1
4902554	79	C	04/15/2023	08:10	-132.748	47.817	0	62.10	0	7.2250	0	32.3170	0	25.277	0	61.571	0	-1e10	8	-1e10	8	-1E+10	1	-1E+10	1	-1E+10	1	-1E+10	1	-1E+10	1	-1E+10	1
4902554	79	C	04/15/2023	08:10	-132.748	47.817	0	63.00	0	7.2220	0	32.3170	0	25.277	0	62.463	0	-1e10	8	-1e10	8	-1E+10	1	-1E+10	1	-1E+10	1	-1E+10	1	-1E+10	1	-1E+10	1
4902554	79	C	04/15/2023	08:10	-132.748	47.817	0	64.30	0	7.2210	0	32.3170	0	25.277	0	63.752	0	-1e10	8	-1e10	8	-1E+10	1	-1E+10	1	-1E+10	1	-1E+10	1	-1E+10	1	-1E+10	1
4902554	79	C	04/15/2023	08:10	-132.748	47.817	0	65.00	0	7.2210	0	32.3170	0	25.277	0	64.445	0	-1e10	8	-1e10	8	-1E+10	1	-1E+10	1	-1E+10	1	-1E+10	1	-1E+10	1	-1E+10	1
4902554	79	C	04/15/2023	08:10	-132.748	47.817	0	66.20	0	7.2210	0	32.3170	0	25.277	0	65.635	0	-1e10	8	-1e10	8	-1E+10	1	-1E+10	1	-1E+10	1	-1E+10	1	-1E+10	1	-1E+10	1
4902554	79	C	04/15/2023	08:10	-132.748	47.817	0	67.00	0	7.2200	0	32.3170	0	25.277	0	66.428	0	-1e10	8	-1e10	8	-1E+10	1	-1E+10	1	-1E+10	1	-1E+10	1	-1E+10	1	-1E+10	1
4902554	79	C	04/15/2023	08:10	-132.748	47.817	0	68.10	0	7.2180	0	32.3170	0	25.278	0	67.519	0	-1e10	8	-1e10	8	-1E+10	1	-1E+10	1	-1E+10	1	-1E+10	1	-1E+10	1	-1E+10	1
4902554	79	C	04/15/2023	08:10	-132.748	47.817	0	68.80	0	7.2180	0	32.3170	0	25.278	0	68.212	0	-1e10	8	-1e10	8	-1E+10	1	-1E+10	1	-1E+10	1	-1E+10	1	-1E+10	1	-1E+10	1
4902554	79	C	04/15/2023	08:10	-132.748	47.817	0	69.90	0	7.2170	0	32.3180	0	25.279	0	69.303	0	-1e10	8	-1e10	8	-1E+10	1	-1E+10	1	-1E+10	1	-1E+10	1	-1E+10	1	-1E+10	1
4902554	79	C	04/15/2023	08:10	-132.748	47.817	0	71.00	0	7.2180	0	32.3170	0	25.278	0	70.393	0	-1e10	8	-1e10	8	-1E+10	1	-1E+10	1	-1E+10	1	-1E+10	1	-1E+10	1	-1E+10	1
4902554	79	C	04/15/2023	08:10	-132.748	47.817	0	72.00	0	7.2180	0	32.3180	0	25.278	0	71.385	0	-1e10	8	-1e10	8	-1E+10	1	-1E+10	1	-1E+10	1	-1E+10	1	-1E+10	1	-1E+10	1
4902554	79	C	04/15/2023	08:10	-132.748	47.817	0	73.20	0	7.2180	0	32.3170	0	25.278	0	72.574	0	-1e10	8	-1e10	8	-1E+10	1	-1E+10	1	-1E+10	1	-1E+10	1	-1E+10	1	-1E+10	1
4902554	79	C	04/15/2023	08:10	-132.748	47.817	0	73.90	0	7.2160	0	32.3180	0	25.279	0	73.268	0	-1e10	8	-1e10	8	-1E+10	1	-1E+10	1	-1E+10	1	-1E+10	1	-1E+10	1	-1E+10	1
4902554	79	C	04/15/2023	08:10	-132.748	47.817	0	75.10	0	7.2160	0	32.3180	0	25.279	0	74.457	0	-1e10	8	-1e10	8	-1E+10	1	-1E+10	1	-1E+10	1	-1E+10	1	-1E+10	1	-1E+10	1
4902554	79	C	04/15/2023	08:10	-132.748	47.817	0	75.90	0	7.2150	0	32.3180	0	25.279	0	75.251	0	-1e10	8	-1e10	8	-1E+10	1	-1E+10	1	-1E+10	1	-1E+10	1	-1E+10	1	-1E+10	1
4902554	79	C	04/15/2023	08:10	-132.748	47.817	0	77.10	0	7.2150	0	32.3180	0	25.279	0	76.440	0	-1e10	8	-1e10	8	-1E+10	1	-1E+10	1	-1E+10	1	-1E+10	1	-1E+10	1	-1E+10	1
4902554	79	C	04/15/2023	08:10	-132.748	47.817	0	77.80	0	7.2150	0	32.3180	0	25.279	0	77.134	0	-1e10	8	-1e10	8	-1E+10	1	-1E+10	1	-1E+10	1	-1E+10	1	-1E+10	1	-1E+10	1
4902554	79	C	04/15/2023	08:10	-132.748	47.817	0	79.00	0	7.2150	0	32.3170	0	25.278	0	78.323	0	-1e10	8	-1e10	8	-1E+10	1	-1E+10	1	-1E+10	1	-1E+10	1	-1E+10	1	-1E+10	1
4902554	79	C	04/15/2023	08:10	-132.748	47.817	0	80.10	0	7.2160	0	32.3170	0	25.278	0	79.414	0	-1e10	8	-1e10	8	-1E+10	1	-1E+10	1	-1E+10	1	-1E+10	1	-1E+10	1	-1E+10	1
4902554	79	C	04/15/2023	08:10	-132.748	47.817	0	80.80	0	7.2150	0	32.3170	0	25.278	0	80.108	0	-1e10	8	-1e10	8	-1E+10	1	-1E+10	1	-1E+10	1	-1E+10	1	-1E+10	1	-1E+10	1
4902554	79	C	04/15/2023	08:10	-132.748	47.817	0	81.90	0	7.2090	0	32.3190	0	25.281	0	81.198	0	-1e10	8	-1e10	8	-1E+10	1	-1E+10	1	-1E+10	1	-1E+10	1	-1E+10	1	-1E+10	1
4902554	79	C	04/15/2023	08:10	-132.748	47.817	0	82.90	0	7.2070	0	32.3190	0	25.281	0	82.189	0	-1e10	8	-1e10	8	-1E+10	1	-1E+10	1	-1E+10	1	-1E+10	1	-1E+10	1	-1E+10	1
4902554	79	C	04/15/2023	08:10	-132.748	47.817	0	84.00	0	7.2060	0	32.3190	0	25.281	0	83.280	0	-1e10	8	-1e10	8	-1E+10	1	-1E+10	1	-1E+10	1	-1E+10	1	-1E+10	1	-1E+10	1
4902554	79	C	04/15/2023	08:10	-132.748	47.817	0	85.00	0	7.2040	0	32.3190	0	25.281	0	84.271	0	-1e10	8	-1e10	8	-1E+10	1	-1E+10	1	-1E+10	1	-1E+10	1	-1E+10	1	-1E+10	1
4902554	79	C	04/15/2023	08:10	-132.748	47.817	0	86.10	0	7.2010	0	32.3200	0	25.283	0	85.361	0	-1e10	8	-1e10	8	-1E+10	1	-1E+10	1	-1E+10	1	-1E+10	1	-1E+10	1	-1E+10	1
4902554	79	C	04/15/2023	08:10	-132.748	47.817	0	86.90	0	7.2010	0	32.3200	0	25.283	0	86.154	0	-1e10	8	-1e10	8	-1E+10	1	-1E+10	1	-1E+10	1	-1E+10	1	-1E+10	1	-1E+10	1
4902554	79	C	04/15/2023	08:10	-132.748	47.817	0	88.10	0	7.1960	0	32.3220	0	25.285	0	87.344	0	-1e10	8	-1e10	8	-1E+10	1	-1E+10	1	-1E+10	1	-1E+10	1	-1E+10	1	-1E+10	1
4902554	79	C	04/15/2023	08:10	-132.748	47.817	0	88.90	0	7.1920	0	32.3240	0	25.287	0	88.136	0	-1e10	8	-1e10	8	-1E+10	1	-1E+10	1	-1E+10	1	-1E+10	1	-1E+10	1	-1E+10	1
4902554	79	C	04/15/2023	08:10	-132.748	47.817	0	90.20	0	7.1830	0	32.3280	0	25.291	0	89.425	0	-1e10	8	-1e10	8	-1E+10	1	-1E+10	1	-1E+10	1	-1E+10	1	-1E+10	1	-1E+10	1
4902554	79	C	04/15/2023	08:10	-132.748	47.817	0	91.10	0	7.1790	0	32.3300	0	25.293	0	90.317	0	-1e10	8	-1e10	8	-1E+10	1	-1E+10	1	-1E+10	1	-1E+10	1	-1E+10	1	-1E+10	1
4902554	79	C	04/15/2023	08:10	-132.748	47.817	0	92.00	0	7.1700	0	32.3340	0	25.298	0	91.209	0	-1e10	8	-1e10	8	-1E+10	1	-1E+10	1	-1E+10	1	-1E+10	1	-1E+10	1	-1E+10	1
4902554	79	C	04/15/2023	08:10	-132.748	47.817	0	92.70	0	7.1560	0	32.3400	0	25.304	0	91.903	0	-1e10	8	-1e10	8	-1E+10	1	-1E+10	1	-1E+10	1	-1E+10	1	-1E+10	1	-1E+10	1
4902554	79	C	04/15/2023	08:10	-132.748	47.817	0	93.70	0	7.1420	0	32.3490	0	25.313	0	92.894	0	-1e10	8	-1e10	8	-1E+10	1	-1E+10	1	-1E+10	1	-1E+10	1	-1E+10	1	-1E+10	1
4902554	79	C	04/15/2023	08:10	-132.748	47.817	0	94.80	0	7.1010	0	32.3770	0	25.341	0	93.984	0	-1e10	8	-1e10	8	-1E+10	1	-1E+10	1	-1E+10	1	-1E+10	1	-1E+10	1	-1E+10	1
4902554	79	C	04/15/2023	08:10	-132.748	47.817	0	95.90	0	7.0820	0	32.3890	0	25.353	0	95.075	0	-1e10	8	-1e10	8	-1E+10	1	-1E+10	1	-1E+10	1	-1E+10	1	-1E+10	1	-1E+10	1
4902554	79	C	04/15/2023	08:10	-132.748	47.817	0	96.90	0	7.0460	0	32.4200	0	25.382	0	96.066	0	-1e10	8	-1e10	8	-1E+10	1	-1E+10	1	-1E+10	1	-1E+10	1	-1E+10	1	-1E+10	1
4902554	79	C	04/15/2023	08:10	-132.748	47.817	0	98.20	0	6.9970	0	32.4600	0	25.420	0	97.354	0	-1e10	8	-1e10	8	-1E+10	1	-1E+10	1	-1E+10	1	-1E+10	1	-1E+10	1	-1E+10	1
4902554	79	C	04/15/2023	08:10	-132.748	47.817	0	98.90	0	6.9720	0	32.4860	0	25.444	0	98.048	0	-1e10	8	-1e10	8	-1E+10	1	-1E+10	1	-1E+10	1	-1E+10	1	-1E+10	1	-1E+10	1
4902554	79	C	04/15/2023	08:10	-132.748	47.817	0	100.00	0	6.9500	0	32.5100	0	25.466	0	99.138	0	-1e10	8	-1e10	8	-1E+10	1	-1E+10	1	-1E+10	1	-1E+10	1	-1E+10	1	-1E+10	1
4902554	79	C	04/15/2023	08:10	-132.748	47.817	0	101.10	0	6.8480	0	32.6010	0	25.551	0	100.229	0	-1e10	8	-1e10	8	-1E+10	1	-1E+10	1	-1E+10	1	-1E+10	1	-1E+10	1	-1E+10	1
4902554	79	C	04/15/2023	08:10	-132.748	47.817	0	102.10	0	6.7190	0	32.7110	0	25.655	0	101.220	0	-1e10	8	-1e10	8	-1E+10	1	-1E+10	1	-1E+10	1	-1E+10	1	-1E+10	1	-1E+10	1
4902554	79	C	04/15/2023	08:10	-132.748	47.817	0	103.00	0	6.6780	0	32.7500	0	25.691	0	102.112	0	-1e10	8	-1e10	8	-1E+10	1	-1E+10	1	-1E+10	1	-1E+10	1	-1E+10	1	-1E+10	1
4902554	79	C	04/15/2023	08:10	-132.748	47.817	0	103.90	0	6.6640	0	32.7650	0	25.704	0	103.004	0	-1e10	8	-1e10	8	-1E+10	1	-1E+10	1	-1E+10	1	-1E+10	1	-1E+10	1	-1E+10	1
4902554	79	C	04/15/2023	08:10	-132.748	47.817	0	105.00	0	6.6590	0	32.7710	0	25.710	0	104.094	0	-1e10	8	-1e10	8	-1E+10	1	-1E+10	1	-1E+10	1	-1E+10	1	-1E+10	1	-1E+10	1
4902554	79	C	04/15/2023	08:10	-132.748	47.817	0	106.20	0	6.6500	0	32.7780	0	25.716	0	105.283	0	-1e10	8	-1e10	8	-1E+10	1	-1E+10	1	-1E+10	1	-1E+10	1	-1E+10	1	-1E+10	1
4902554	79	C	04/15/2023	08:10	-132.748	47.817	0	106.90	0	6.6220	0	32.8060	0	25.742	0	105.977	0	-1e10	8	-1e10	8	-1E+10	1	-1E+10	1	-1E+10	1	-1E+10	1	-1E+10	1	-1E+10	1
4902554	79	C	04/15/2023	08:10	-132.748	47.817	0	107.90	0	6.5820	0	32.8610	0	25.791	0	106.968	0	-1e10	8	-1e10	8	-1E+10	1	-1E+10	1	-1E+10	1	-1E+10	1	-1E+10	1	-1E+10	1
4902554	79	C	04/15/2023	08:10	-132.748	47.817	0	109.00	0	6.5260	0	32.9230	0	25.847	0	108.059	0	-1e10	8	-1e10	8	-1E+10	1	-1E+10	1	-1E+10	1	-1E+10	1	-1E+10	1	-1E+10	1
4902554	79	C	04/15/2023	08:10	-132.748	47.817	0	110.10	0	6.5110	0	32.9370	0	25.860	0	109.149	0	-1e10	8	-1e10	8	-1E+10	1	-1E+10	1	-1E+10	1	-1E+10	1	-1E+10	1	-1E+10	1
4902554	79	C	04/15/2023	08:10	-132.748	47.817	0	111.10	0	6.5040	0	32.9450	0	25.867	0	110.140	0	-1e10	8	-1e10	8	-1E+10	1	-1E+10	1	-1E+10	1	-1E+10	1	-1E+10	1	-1E+10	1
4902554	79	C	04/15/2023	08:10	-132.748	47.817	0	111.90	0	6.5010	0	32.9490	0	25.870	0	110.933	0	-1e10	8	-1e10	8	-1E+10	1	-1E+10	1	-1E+10	1	-1E+10	1	-1E+10	1	-1E+10	1
4902554	79	C	04/15/2023	08:10	-132.748	47.817	0	112.70	0	6.4870	0	32.9680	0	25.887	0	111.726	0	-1e10	8	-1e10	8	-1E+10	1	-1E+10	1	-1E+10	1	-1E+10	1	-1E+10	1	-1E+10	1
4902554	79	C	04/15/2023	08:10	-132.748	47.817	0	113.90	0	6.4490	0	33.0160	0	25.930	0	112.915	0	-1e10	8	-1e10	8	-1E+10	1	-1E+10	1	-1E+10	1	-1E+10	1	-1E+10	1	-1E+10	1
4902554	79	C	04/15/2023	08:10	-132.748	47.817	0	115.10	0	6.3890	0	33.0780	0	25.987	0	114.104	0	-1e10	8	-1e10	8	-1E+10	1	-1E+10	1	-1E+10	1	-1E+10	1	-1E+10	1	-1E+10	1
4902554	79	C	04/15/2023	08:10	-132.748	47.817	0	116.00	0	6.3370	0	33.1500	0	26.050	0	114.996	0	-1e10	8	-1e10	8	-1E+10	1	-1E+10	1	-1E+10	1	-1E+10	1	-1E+10	1	-1E+10	1
4902554	79	C	04/15/2023	08:10	-132.748	47.817	0	116.70	0	6.3340	0	33.2070	0	26.095	0	115.690	0	-1e10	8	-1e10	8	-1E+10	1	-1E+10	1	-1E+10	1	-1E+10	1	-1E+10	1	-1E+10	1
4902554	79	C	04/15/2023	08:10	-132.748	47.817	0	117.90	0	6.3080	0	33.2810	0	26.157	0	116.879	0	-1e10	8	-1e10	8	-1E+10	1	-1E+10	1	-1E+10	1	-1E+10	1	-1E+10	1	-1E+10	1
4902554	79	C	04/15/2023	08:10	-132.748	47.817	0	119.00	0	6.3040	0	33.3030	0	26.175	0	117.969	0	-1e10	8	-1e10	8	-1E+10	1	-1E+10	1	-1E+10	1	-1E+10	1	-1E+10	1	-1E+10	1
4902554	79	C	04/15/2023	08:10	-132.748	47.817	0	119.80	0	6.3010	0	33.3140	0	26.184	0	118.762	0	-1e10	8	-1e10	8	-1E+10	1	-1E+10	1	-1E+10	1	-1E+10	1	-1E+10	1	-1E+10	1
4902554	79	C	04/15/2023	08:10	-132.748	47.817	0	120.70	0	6.2860	0	33.3400	0	26.207	0	119.654	0	-1e10	8	-1e10	8	-1E+10	1	-1E+10	1	-1E+10	1	-1E+10	1	-1E+10	1	-1E+10	1
4902554	79	C	04/15/2023	08:10	-132.748	47.817	0	121.90	0	6.2750	0	33.3560	0	26.221	0	120.843	0	-1e10	8	-1e10	8	-1E+10	1	-1E+10	1	-1E+10	1	-1E+10	1	-1E+10	1	-1E+10	1
4902554	79	C	04/15/2023	08:10	-132.748	47.817	0	123.20	0	6.2710	0	33.3640	0	26.227	0	122.132	0	-1e10	8	-1e10	8	-1E+10	1	-1E+10	1	-1E+10	1	-1E+10	1	-1E+10	1	-1E+10	1
4902554	79	C	04/15/2023	08:10	-132.748	47.817	0	124.10	0	6.2660	0	33.3690	0	26.232	0	123.024	0	-1e10	8	-1e10	8	-1E+10	1	-1E+10	1	-1E+10	1	-1E+10	1	-1E+10	1	-1E+10	1
4902554	79	C	04/15/2023	08:10	-132.748	47.817	0	124.90	0	6.2590	0	33.3820	0	26.243	0	123.817	0	-1e10	8	-1e10	8	-1E+10	1	-1E+10	1	-1E+10	1	-1E+10	1	-1E+10	1	-1E+10	1
4902554	79	C	04/15/2023	08:10	-132.748	47.817	0	125.80	0	6.2580	0	33.3840	0	26.245	0	124.708	0	-1e10	8	-1e10	8	-1E+10	1	-1E+10	1	-1E+10	1	-1E+10	1	-1E+10	1	-1E+10	1
4902554	79	C	04/15/2023	08:10	-132.748	47.817	0	126.70	0	6.2550	0	33.3870	0	26.248	0	125.600	0	-1e10	8	-1e10	8	-1E+10	1	-1E+10	1	-1E+10	1	-1E+10	1	-1E+10	1	-1E+10	1
4902554	79	C	04/15/2023	08:10	-132.748	47.817	0	127.90	0	6.2430	0	33.4050	0	26.263	0	126.790	0	-1e10	8	-1e10	8	-1E+10	1	-1E+10	1	-1E+10	1	-1E+10	1	-1E+10	1	-1E+10	1
4902554	79	C	04/15/2023	08:10	-132.748	47.817	0	129.30	0	6.2310	0	33.4270	0	26.282	0	128.177	0	-1e10	8	-1e10	8	-1E+10	1	-1E+10	1	-1E+10	1	-1E+10	1	-1E+10	1	-1E+10	1
4902554	79	C	04/15/2023	08:10	-132.748	47.817	0	130.20	0	6.2300	0	33.4310	0	26.286	0	129.069	0	-1e10	8	-1e10	8	-1E+10	1	-1E+10	1	-1E+10	1	-1E+10	1	-1E+10	1	-1E+10	1
4902554	79	C	04/15/2023	08:10	-132.748	47.817	0	131.10	0	6.2220	0	33.4450	0	26.298	0	129.961	0	-1e10	8	-1e10	8	-1E+10	1	-1E+10	1	-1E+10	1	-1E+10	1	-1E+10	1	-1E+10	1
4902554	79	C	04/15/2023	08:10	-132.748	47.817	0	132.00	0	6.2180	0	33.4500	0	26.302	0	130.853	0	-1e10	8	-1e10	8	-1E+10	1	-1E+10	1	-1E+10	1	-1E+10	1	-1E+10	1	-1E+10	1
4902554	79	C	04/15/2023	08:10	-132.748	47.817	0	132.90	0	6.2110	0	33.4610	0	26.312	0	131.745	0	-1e10	8	-1e10	8	-1E+10	1	-1E+10	1	-1E+10	1	-1E+10	1	-1E+10	1	-1E+10	1
4902554	79	C	04/15/2023	08:10	-132.748	47.817	0	133.90	0	6.1920	0	33.4890	0	26.336	0	132.736	0	-1e10	8	-1e10	8	-1E+10	1	-1E+10	1	-1E+10	1	-1E+10	1	-1E+10	1	-1E+10	1
4902554	79	C	04/15/2023	08:10	-132.748	47.817	0	134.90	0	6.1740	0	33.5140	0	26.358	0	133.727	0	-1e10	8	-1e10	8	-1E+10	1	-1E+10	1	-1E+10	1	-1E+10	1	-1E+10	1	-1E+10	1
4902554	79	C	04/15/2023	08:10	-132.748	47.817	0	135.90	0	6.1690	0	33.5180	0	26.362	0	134.717	0	-1e10	8	-1e10	8	-1E+10	1	-1E+10	1	-1E+10	1	-1E+10	1	-1E+10	1	-1E+10	1
4902554	79	C	04/15/2023	08:10	-132.748	47.817	0	136.90	0	6.1600	0	33.5290	0	26.372	0	135.708	0	-1e10	8	-1e10	8	-1E+10	1	-1E+10	1	-1E+10	1	-1E+10	1	-1E+10	1	-1E+10	1
4902554	79	C	04/15/2023	08:10	-132.748	47.817	0	137.90	0	6.1560	0	33.5360	0	26.378	0	136.699	0	-1e10	8	-1e10	8	-1E+10	1	-1E+10	1	-1E+10	1	-1E+10	1	-1E+10	1	-1E+10	1
4902554	79	C	04/15/2023	08:10	-132.748	47.817	0	138.90	0	6.1470	0	33.5470	0	26.388	0	137.690	0	-1e10	8	-1e10	8	-1E+10	1	-1E+10	1	-1E+10	1	-1E+10	1	-1E+10	1	-1E+10	1
4902554	79	C	04/15/2023	08:10	-132.748	47.817	0	140.00	0	6.1380	0	33.5570	0	26.397	0	138.780	0	-1e10	8	-1e10	8	-1E+10	1	-1E+10	1	-1E+10	1	-1E+10	1	-1E+10	1	-1E+10	1
4902554	79	C	04/15/2023	08:10	-132.748	47.817	0	141.00	0	6.1350	0	33.5600	0	26.400	0	139.771	0	-1e10	8	-1e10	8	-1E+10	1	-1E+10	1	-1E+10	1	-1E+10	1	-1E+10	1	-1E+10	1
4902554	79	C	04/15/2023	08:10	-132.748	47.817	0	142.10	0	6.1280	0	33.5670	0	26.406	0	140.861	0	-1e10	8	-1e10	8	-1E+10	1	-1E+10	1	-1E+10	1	-1E+10	1	-1E+10	1	-1E+10	1
4902554	79	C	04/15/2023	08:10	-132.748	47.817	0	143.10	0	6.1220	0	33.5730	0	26.411	0	141.852	0	-1e10	8	-1e10	8	-1E+10	1	-1E+10	1	-1E+10	1	-1E+10	1	-1E+10	1	-1E+10	1
4902554	79	C	04/15/2023	08:10	-132.748	47.817	0	144.20	0	6.1180	0	33.5780	0	26.416	0	142.942	0	-1e10	8	-1e10	8	-1E+10	1	-1E+10	1	-1E+10	1	-1E+10	1	-1E+10	1	-1E+10	1
4902554	79	C	04/15/2023	08:10	-132.748	47.817	0	145.20	0	6.1150	0	33.5800	0	26.418	0	143.933	0	-1e10	8	-1e10	8	-1E+10	1	-1E+10	1	-1E+10	1	-1E+10	1	-1E+10	1	-1E+10	1
4902554	79	C	04/15/2023	08:10	-132.748	47.817	0	146.20	0	6.1150	0	33.5800	0	26.418	0	144.924	0	-1e10	8	-1e10	8	-1E+10	1	-1E+10	1	-1E+10	1	-1E+10	1	-1E+10	1	-1E+10	1
4902554	79	C	04/15/2023	08:10	-132.748	47.817	0	147.30	0	6.1140	0	33.5820	0	26.420	0	146.014	0	-1e10	8	-1e10	8	-1E+10	1	-1E+10	1	-1E+10	1	-1E+10	1	-1E+10	1	-1E+10	1
4902554	79	C	04/15/2023	08:10	-132.748	47.817	0	148.30	0	6.1050	0	33.5910	0	26.428	0	147.005	0	-1e10	8	-1e10	8	-1E+10	1	-1E+10	1	-1E+10	1	-1E+10	1	-1E+10	1	-1E+10	1
4902554	79	C	04/15/2023	08:10	-132.748	47.817	0	149.30	0	6.0990	0	33.5970	0	26.433	0	147.996	0	-1e10	8	-1e10	8	-1E+10	1	-1E+10	1	-1E+10	1	-1E+10	1	-1E+10	1	-1E+10	1
4902554	79	C	04/15/2023	08:10	-132.748	47.817	0	150.30	0	6.0910	0	33.6050	0	26.441	0	148.987	0	-1e10	8	-1e10	8	-1E+10	1	-1E+10	1	-1E+10	1	-1E+10	1	-1E+10	1	-1E+10	1
4902554	79	C	04/15/2023	08:10	-132.748	47.817	0	151.30	0	6.0910	0	33.6050	0	26.441	0	149.978	0	-1e10	8	-1e10	8	-1E+10	1	-1E+10	1	-1E+10	1	-1E+10	1	-1E+10	1	-1E+10	1
4902554	79	C	04/15/2023	08:10	-132.748	47.817	0	152.40	0	6.0880	0	33.6080	0	26.443	0	151.068	0	-1e10	8	-1e10	8	-1E+10	1	-1E+10	1	-1E+10	1	-1E+10	1	-1E+10	1	-1E+10	1
4902554	79	C	04/15/2023	08:10	-132.748	47.817	0	153.40	0	6.0830	0	33.6120	0	26.447	0	152.059	0	-1e10	8	-1e10	8	-1E+10	1	-1E+10	1	-1E+10	1	-1E+10	1	-1E+10	1	-1E+10	1
4902554	79	C	04/15/2023	08:10	-132.748	47.817	0	154.40	0	6.0740	0	33.6190	0	26.454	0	153.050	0	-1e10	8	-1e10	8	-1E+10	1	-1E+10	1	-1E+10	1	-1E+10	1	-1E+10	1	-1E+10	1
4902554	79	C	04/15/2023	08:10	-132.748	47.817	0	155.40	0	6.0720	0	33.6200	0	26.455	0	154.041	0	-1e10	8	-1e10	8	-1E+10	1	-1E+10	1	-1E+10	1	-1E+10	1	-1E+10	1	-1E+10	1
4902554	79	C	04/15/2023	08:10	-132.748	47.817	0	156.40	0	6.0600	0	33.6280	0	26.463	0	155.031	0	-1e10	8	-1e10	8	-1E+10	1	-1E+10	1	-1E+10	1	-1E+10	1	-1E+10	1	-1E+10	1
4902554	79	C	04/15/2023	08:10	-132.748	47.817	0	157.40	0	6.0500	0	33.6350	0	26.470	0	156.022	0	-1e10	8	-1e10	8	-1E+10	1	-1E+10	1	-1E+10	1	-1E+10	1	-1E+10	1	-1E+10	1
4902554	79	C	04/15/2023	08:10	-132.748	47.817	0	158.40	0	6.0350	0	33.6450	0	26.479	0	157.013	0	-1e10	8	-1e10	8	-1E+10	1	-1E+10	1	-1E+10	1	-1E+10	1	-1E+10	1	-1E+10	1
4902554	79	C	04/15/2023	08:10	-132.748	47.817	0	159.50	0	6.0260	0	33.6500	0	26.485	0	158.103	0	-1e10	8	-1e10	8	-1E+10	1	-1E+10	1	-1E+10	1	-1E+10	1	-1E+10	1	-1E+10	1
4902554	79	C	04/15/2023	08:10	-132.748	47.817	0	160.50	0	6.0150	0	33.6560	0	26.491	0	159.094	0	-1e10	8	-1e10	8	-1E+10	1	-1E+10	1	-1E+10	1	-1E+10	1	-1E+10	1	-1E+10	1
4902554	79	C	04/15/2023	08:10	-132.748	47.817	0	161.50	0	5.9990	0	33.6650	0	26.500	0	160.085	0	-1e10	8	-1e10	8	-1E+10	1	-1E+10	1	-1E+10	1	-1E+10	1	-1E+10	1	-1E+10	1
4902554	79	C	04/15/2023	08:10	-132.748	47.817	0	162.50	0	5.9900	0	33.6700	0	26.505	0	161.076	0	-1e10	8	-1e10	8	-1E+10	1	-1E+10	1	-1E+10	1	-1E+10	1	-1E+10	1	-1E+10	1
4902554	79	C	04/15/2023	08:10	-132.748	47.817	0	163.50	0	5.9860	0	33.6720	0	26.507	0	162.067	0	-1e10	8	-1e10	8	-1E+10	1	-1E+10	1	-1E+10	1	-1E+10	1	-1E+10	1	-1E+10	1
4902554	79	C	04/15/2023	08:10	-132.748	47.817	0	164.90	0	5.9740	0	33.6770	0	26.512	0	163.454	0	-1e10	8	-1e10	8	-1E+10	1	-1E+10	1	-1E+10	1	-1E+10	1	-1E+10	1	-1E+10	1
4902554	79	C	04/15/2023	08:10	-132.748	47.817	0	166.40	0	5.9640	0	33.6820	0	26.518	0	164.940	0	-1e10	8	-1e10	8	-1E+10	1	-1E+10	1	-1E+10	1	-1E+10	1	-1E+10	1	-1E+10	1
4902554	79	C	04/15/2023	08:10	-132.748	47.817	0	167.40	0	5.9440	0	33.6900	0	26.526	0	165.931	0	-1e10	8	-1e10	8	-1E+10	1	-1E+10	1	-1E+10	1	-1E+10	1	-1E+10	1	-1E+10	1
4902554	79	C	04/15/2023	08:10	-132.748	47.817	0	168.40	0	5.9360	0	33.6920	0	26.529	0	166.922	0	-1e10	8	-1e10	8	-1E+10	1	-1E+10	1	-1E+10	1	-1E+10	1	-1E+10	1	-1E+10	1
4902554	79	C	04/15/2023	08:10	-132.748	47.817	0	169.30	0	5.9320	0	33.6930	0	26.530	0	167.813	0	-1e10	8	-1e10	8	-1E+10	1	-1E+10	1	-1E+10	1	-1E+10	1	-1E+10	1	-1E+10	1
4902554	79	C	04/15/2023	08:10	-132.748	47.817	0	170.30	0	5.9220	0	33.6980	0	26.535	0	168.804	0	-1e10	8	-1e10	8	-1E+10	1	-1E+10	1	-1E+10	1	-1E+10	1	-1E+10	1	-1E+10	1
4902554	79	C	04/15/2023	08:10	-132.748	47.817	0	171.30	0	5.9160	0	33.6980	0	26.536	0	169.795	0	-1e10	8	-1e10	8	-1E+10	1	-1E+10	1	-1E+10	1	-1E+10	1	-1E+10	1	-1E+10	1
4902554	79	C	04/15/2023	08:10	-132.748	47.817	0	172.20	0	5.9100	0	33.6990	0	26.538	0	170.687	0	-1e10	8	-1e10	8	-1E+10	1	-1E+10	1	-1E+10	1	-1E+10	1	-1E+10	1	-1E+10	1
4902554	79	C	04/15/2023	08:10	-132.748	47.817	0	173.20	0	5.8970	0	33.7030	0	26.543	0	171.677	0	-1e10	8	-1e10	8	-1E+10	1	-1E+10	1	-1E+10	1	-1E+10	1	-1E+10	1	-1E+10	1
4902554	79	C	04/15/2023	08:10	-132.748	47.817	0	174.10	0	5.8890	0	33.7040	0	26.544	0	172.569	0	-1e10	8	-1e10	8	-1E+10	1	-1E+10	1	-1E+10	1	-1E+10	1	-1E+10	1	-1E+10	1
4902554	79	C	04/15/2023	08:10	-132.748	47.817	0	175.10	0	5.8720	0	33.7090	0	26.550	0	173.560	0	-1e10	8	-1e10	8	-1E+10	1	-1E+10	1	-1E+10	1	-1E+10	1	-1E+10	1	-1E+10	1
4902554	79	C	04/15/2023	08:10	-132.748	47.817	0	176.00	0	5.8620	0	33.7110	0	26.553	0	174.452	0	-1e10	8	-1e10	8	-1E+10	1	-1E+10	1	-1E+10	1	-1E+10	1	-1E+10	1	-1E+10	1
4902554	79	C	04/15/2023	08:10	-132.748	47.817	0	177.00	0	5.8580	0	33.7120	0	26.555	0	175.442	0	-1e10	8	-1e10	8	-1E+10	1	-1E+10	1	-1E+10	1	-1E+10	1	-1E+10	1	-1E+10	1
4902554	79	C	04/15/2023	08:10	-132.748	47.817	0	177.90	0	5.8520	0	33.7130	0	26.556	0	176.334	0	-1e10	8	-1e10	8	-1E+10	1	-1E+10	1	-1E+10	1	-1E+10	1	-1E+10	1	-1E+10	1
4902554	79	C	04/15/2023	08:10	-132.748	47.817	0	178.90	0	5.8490	0	33.7130	0	26.556	0	177.325	0	-1e10	8	-1e10	8	-1E+10	1	-1E+10	1	-1E+10	1	-1E+10	1	-1E+10	1	-1E+10	1
4902554	79	C	04/15/2023	08:10	-132.748	47.817	0	179.80	0	5.8450	0	33.7140	0	26.558	0	178.217	0	-1e10	8	-1e10	8	-1E+10	1	-1E+10	1	-1E+10	1	-1E+10	1	-1E+10	1	-1E+10	1
4902554	79	C	04/15/2023	08:10	-132.748	47.817	0	180.80	0	5.8260	0	33.7190	0	26.564	0	179.207	0	-1e10	8	-1e10	8	-1E+10	1	-1E+10	1	-1E+10	1	-1E+10	1	-1E+10	1	-1E+10	1
4902554	79	C	04/15/2023	08:10	-132.748	47.817	0	181.80	0	5.8140	0	33.7180	0	26.565	0	180.198	0	-1e10	8	-1e10	8	-1E+10	1	-1E+10	1	-1E+10	1	-1E+10	1	-1E+10	1	-1E+10	1
4902554	79	C	04/15/2023	08:10	-132.748	47.817	0	182.70	0	5.7930	0	33.7220	0	26.570	0	181.090	0	-1e10	8	-1e10	8	-1E+10	1	-1E+10	1	-1E+10	1	-1E+10	1	-1E+10	1	-1E+10	1
4902554	79	C	04/15/2023	08:10	-132.748	47.817	0	183.70	0	5.7540	0	33.7280	0	26.580	0	182.081	0	-1e10	8	-1e10	8	-1E+10	1	-1E+10	1	-1E+10	1	-1E+10	1	-1E+10	1	-1E+10	1
4902554	79	C	04/15/2023	08:10	-132.748	47.817	0	184.60	0	5.7370	0	33.7300	0	26.584	0	182.972	0	-1e10	8	-1e10	8	-1E+10	1	-1E+10	1	-1E+10	1	-1E+10	1	-1E+10	1	-1E+10	1
4902554	79	C	04/15/2023	08:10	-132.748	47.817	0	185.60	0	5.7320	0	33.7300	0	26.584	0	183.963	0	-1e10	8	-1e10	8	-1E+10	1	-1E+10	1	-1E+10	1	-1E+10	1	-1E+10	1	-1E+10	1
4902554	79	C	04/15/2023	08:10	-132.748	47.817	0	186.60	0	5.7210	0	33.7320	0	26.587	0	184.954	0	-1e10	8	-1e10	8	-1E+10	1	-1E+10	1	-1E+10	1	-1E+10	1	-1E+10	1	-1E+10	1
4902554	79	C	04/15/2023	08:10	-132.748	47.817	0	187.50	0	5.7070	0	33.7350	0	26.591	0	185.845	0	-1e10	8	-1e10	8	-1E+10	1	-1E+10	1	-1E+10	1	-1E+10	1	-1E+10	1	-1E+10	1
4902554	79	C	04/15/2023	08:10	-132.748	47.817	0	188.50	0	5.6960	0	33.7350	0	26.593	0	186.836	0	-1e10	8	-1e10	8	-1E+10	1	-1E+10	1	-1E+10	1	-1E+10	1	-1E+10	1	-1E+10	1
4902554	79	C	04/15/2023	08:10	-132.748	47.817	0	189.90	0	5.6760	0	33.7370	0	26.597	0	188.223	0	-1e10	8	-1e10	8	-1E+10	1	-1E+10	1	-1E+10	1	-1E+10	1	-1E+10	1	-1E+10	1
4902554	79	C	04/15/2023	08:10	-132.748	47.817	0	191.40	0	5.6720	0	33.7370	0	26.597	0	189.709	0	-1e10	8	-1e10	8	-1E+10	1	-1E+10	1	-1E+10	1	-1E+10	1	-1E+10	1	-1E+10	1
4902554	79	C	04/15/2023	08:10	-132.748	47.817	0	192.40	0	5.6700	0	33.7370	0	26.597	0	190.700	0	-1e10	8	-1e10	8	-1E+10	1	-1E+10	1	-1E+10	1	-1E+10	1	-1E+10	1	-1E+10	1
4902554	79	C	04/15/2023	08:10	-132.748	47.817	0	193.40	0	5.6630	0	33.7380	0	26.599	0	191.691	0	-1e10	8	-1e10	8	-1E+10	1	-1E+10	1	-1E+10	1	-1E+10	1	-1E+10	1	-1E+10	1
4902554	79	C	04/15/2023	08:10	-132.748	47.817	0	194.30	0	5.6580	0	33.7380	0	26.600	0	192.582	0	-1e10	8	-1e10	8	-1E+10	1	-1E+10	1	-1E+10	1	-1E+10	1	-1E+10	1	-1E+10	1
4902554	79	C	04/15/2023	08:10	-132.748	47.817	0	195.30	0	5.6510	0	33.7380	0	26.600	0	193.573	0	-1e10	8	-1e10	8	-1E+10	1	-1E+10	1	-1E+10	1	-1E+10	1	-1E+10	1	-1E+10	1
4902554	79	C	04/15/2023	08:10	-132.748	47.817	0	196.30	0	5.6520	0	33.7380	0	26.600	0	194.564	0	-1e10	8	-1e10	8	-1E+10	1	-1E+10	1	-1E+10	1	-1E+10	1	-1E+10	1	-1E+10	1
4902554	79	C	04/15/2023	08:10	-132.748	47.817	0	197.30	0	5.6520	0	33.7380	0	26.600	0	195.554	0	-1e10	8	-1e10	8	-1E+10	1	-1E+10	1	-1E+10	1	-1E+10	1	-1E+10	1	-1E+10	1
4902554	79	C	04/15/2023	08:10	-132.748	47.817	0	198.30	0	5.6430	0	33.7390	0	26.602	0	196.545	0	-1e10	8	-1e10	8	-1E+10	1	-1E+10	1	-1E+10	1	-1E+10	1	-1E+10	1	-1E+10	1
4902554	79	C	04/15/2023	08:10	-132.748	47.817	0	199.30	0	5.6340	0	33.7390	0	26.603	0	197.536	0	-1e10	8	-1e10	8	-1E+10	1	-1E+10	1	-1E+10	1	-1E+10	1	-1E+10	1	-1E+10	1
4902554	79	C	04/15/2023	08:10	-132.748	47.817	0	200.20	0	5.6240	0	33.7410	0	26.606	0	198.427	0	-1e10	8	-1e10	8	-1E+10	1	-1E+10	1	-1E+10	1	-1E+10	1	-1E+10	1	-1E+10	1
4902554	79	C	04/15/2023	08:10	-132.748	47.817	0	201.20	0	5.5980	0	33.7410	0	26.609	0	199.418	0	-1e10	8	-1e10	8	-1E+10	1	-1E+10	1	-1E+10	1	-1E+10	1	-1E+10	1	-1E+10	1
4902554	79	C	04/15/2023	08:10	-132.748	47.817	0	202.20	0	5.5790	0	33.7440	0	26.614	0	200.408	0	-1e10	8	-1e10	8	-1E+10	1	-1E+10	1	-1E+10	1	-1E+10	1	-1E+10	1	-1E+10	1
4902554	79	C	04/15/2023	08:10	-132.748	47.817	0	203.10	0	5.5350	0	33.7480	0	26.622	0	201.300	0	-1e10	8	-1e10	8	-1E+10	1	-1E+10	1	-1E+10	1	-1E+10	1	-1E+10	1	-1E+10	1
4902554	79	C	04/15/2023	08:10	-132.748	47.817	0	204.10	0	5.5010	0	33.7500	0	26.628	0	202.291	0	-1e10	8	-1e10	8	-1E+10	1	-1E+10	1	-1E+10	1	-1E+10	1	-1E+10	1	-1E+10	1
4902554	79	C	04/15/2023	08:10	-132.748	47.817	0	204.80	0	5.4940	0	33.7500	0	26.629	0	202.984	0	-1e10	8	-1e10	8	-1E+10	1	-1E+10	1	-1E+10	1	-1E+10	1	-1E+10	1	-1E+10	1
4902554	79	C	04/15/2023	08:10	-132.748	47.817	0	205.90	0	5.4890	0	33.7500	0	26.629	0	204.074	0	-1e10	8	-1e10	8	-1E+10	1	-1E+10	1	-1E+10	1	-1E+10	1	-1E+10	1	-1E+10	1
4902554	79	C	04/15/2023	08:10	-132.748	47.817	0	207.10	0	5.4660	0	33.7520	0	26.634	0	205.263	0	-1e10	8	-1e10	8	-1E+10	1	-1E+10	1	-1E+10	1	-1E+10	1	-1E+10	1	-1E+10	1
4902554	79	C	04/15/2023	08:10	-132.748	47.817	0	207.80	0	5.4480	0	33.7540	0	26.638	0	205.956	0	-1e10	8	-1e10	8	-1E+10	1	-1E+10	1	-1E+10	1	-1E+10	1	-1E+10	1	-1E+10	1
4902554	79	C	04/15/2023	08:10	-132.748	47.817	0	209.00	0	5.4230	0	33.7570	0	26.643	0	207.145	0	-1e10	8	-1e10	8	-1E+10	1	-1E+10	1	-1E+10	1	-1E+10	1	-1E+10	1	-1E+10	1
4902554	79	C	04/15/2023	08:10	-132.748	47.817	0	210.20	0	5.4050	0	33.7590	0	26.647	0	208.334	0	-1e10	8	-1e10	8	-1E+10	1	-1E+10	1	-1E+10	1	-1E+10	1	-1E+10	1	-1E+10	1
4902554	79	C	04/15/2023	08:10	-132.748	47.817	0	210.90	0	5.3990	0	33.7600	0	26.648	0	209.027	0	-1e10	8	-1e10	8	-1E+10	1	-1E+10	1	-1E+10	1	-1E+10	1	-1E+10	1	-1E+10	1
4902554	79	C	04/15/2023	08:10	-132.748	47.817	0	211.70	0	5.3960	0	33.7600	0	26.648	0	209.819	0	-1e10	8	-1e10	8	-1E+10	1	-1E+10	1	-1E+10	1	-1E+10	1	-1E+10	1	-1E+10	1
4902554	79	C	04/15/2023	08:10	-132.748	47.817	0	212.90	0	5.3950	0	33.7600	0	26.649	0	211.008	0	-1e10	8	-1e10	8	-1E+10	1	-1E+10	1	-1E+10	1	-1E+10	1	-1E+10	1	-1E+10	1
4902554	79	C	04/15/2023	08:10	-132.748	47.817	0	214.10	0	5.3860	0	33.7620	0	26.651	0	212.197	0	-1e10	8	-1e10	8	-1E+10	1	-1E+10	1	-1E+10	1	-1E+10	1	-1E+10	1	-1E+10	1
4902554	79	C	04/15/2023	08:10	-132.748	47.817	0	214.90	0	5.3800	0	33.7620	0	26.652	0	212.989	0	-1e10	8	-1e10	8	-1E+10	1	-1E+10	1	-1E+10	1	-1E+10	1	-1E+10	1	-1E+10	1
4902554	79	C	04/15/2023	08:10	-132.748	47.817	0	215.70	0	5.3730	0	33.7630	0	26.654	0	213.782	0	-1e10	8	-1e10	8	-1E+10	1	-1E+10	1	-1E+10	1	-1E+10	1	-1E+10	1	-1E+10	1
4902554	79	C	04/15/2023	08:10	-132.748	47.817	0	216.90	0	5.3630	0	33.7640	0	26.656	0	214.971	0	-1e10	8	-1e10	8	-1E+10	1	-1E+10	1	-1E+10	1	-1E+10	1	-1E+10	1	-1E+10	1
4902554	79	C	04/15/2023	08:10	-132.748	47.817	0	218.20	0	5.3570	0	33.7640	0	26.656	0	216.258	0	-1e10	8	-1e10	8	-1E+10	1	-1E+10	1	-1E+10	1	-1E+10	1	-1E+10	1	-1E+10	1
4902554	79	C	04/15/2023	08:10	-132.748	47.817	0	219.00	0	5.3400	0	33.7670	0	26.661	0	217.051	0	-1e10	8	-1e10	8	-1E+10	1	-1E+10	1	-1E+10	1	-1E+10	1	-1E+10	1	-1E+10	1
4902554	79	C	04/15/2023	08:10	-132.748	47.817	0	219.80	0	5.3370	0	33.7660	0	26.660	0	217.843	0	-1e10	8	-1e10	8	-1E+10	1	-1E+10	1	-1E+10	1	-1E+10	1	-1E+10	1	-1E+10	1
4902554	79	C	04/15/2023	08:10	-132.748	47.817	0	220.60	0	5.3360	0	33.7650	0	26.660	0	218.636	0	-1e10	8	-1e10	8	-1E+10	1	-1E+10	1	-1E+10	1	-1E+10	1	-1E+10	1	-1E+10	1
4902554	79	C	04/15/2023	08:10	-132.748	47.817	0	221.90	0	5.3240	0	33.7650	0	26.661	0	219.923	0	-1e10	8	-1e10	8	-1E+10	1	-1E+10	1	-1E+10	1	-1E+10	1	-1E+10	1	-1E+10	1
4902554	79	C	04/15/2023	08:10	-132.748	47.817	0	223.20	0	5.3080	0	33.7660	0	26.664	0	221.211	0	-1e10	8	-1e10	8	-1E+10	1	-1E+10	1	-1E+10	1	-1E+10	1	-1E+10	1	-1E+10	1
4902554	79	C	04/15/2023	08:10	-132.748	47.817	0	224.00	0	5.2690	0	33.7700	0	26.671	0	222.004	0	-1e10	8	-1e10	8	-1E+10	1	-1E+10	1	-1E+10	1	-1E+10	1	-1E+10	1	-1E+10	1
4902554	79	C	04/15/2023	08:10	-132.748	47.817	0	224.90	0	5.2560	0	33.7700	0	26.673	0	222.895	0	-1e10	8	-1e10	8	-1E+10	1	-1E+10	1	-1E+10	1	-1E+10	1	-1E+10	1	-1E+10	1
4902554	79	C	04/15/2023	08:10	-132.748	47.817	0	225.70	0	5.2450	0	33.7700	0	26.674	0	223.688	0	-1e10	8	-1e10	8	-1E+10	1	-1E+10	1	-1E+10	1	-1E+10	1	-1E+10	1	-1E+10	1
4902554	79	C	04/15/2023	08:10	-132.748	47.817	0	227.00	0	5.2370	0	33.7710	0	26.676	0	224.975	0	-1e10	8	-1e10	8	-1E+10	1	-1E+10	1	-1E+10	1	-1E+10	1	-1E+10	1	-1E+10	1
4902554	79	C	04/15/2023	08:10	-132.748	47.817	0	228.30	0	5.2160	0	33.7730	0	26.680	0	226.263	0	-1e10	8	-1e10	8	-1E+10	1	-1E+10	1	-1E+10	1	-1E+10	1	-1E+10	1	-1E+10	1
4902554	79	C	04/15/2023	08:10	-132.748	47.817	0	229.20	0	5.2000	0	33.7750	0	26.683	0	227.154	0	-1e10	8	-1e10	8	-1E+10	1	-1E+10	1	-1E+10	1	-1E+10	1	-1E+10	1	-1E+10	1
4902554	79	C	04/15/2023	08:10	-132.748	47.817	0	230.00	0	5.1970	0	33.7740	0	26.683	0	227.947	0	-1e10	8	-1e10	8	-1E+10	1	-1E+10	1	-1E+10	1	-1E+10	1	-1E+10	1	-1E+10	1
4902554	79	C	04/15/2023	08:10	-132.748	47.817	0	230.90	0	5.1950	0	33.7760	0	26.685	0	228.838	0	-1e10	8	-1e10	8	-1E+10	1	-1E+10	1	-1E+10	1	-1E+10	1	-1E+10	1	-1E+10	1
4902554	79	C	04/15/2023	08:10	-132.748	47.817	0	231.80	0	5.1950	0	33.7740	0	26.683	0	229.730	0	-1e10	8	-1e10	8	-1E+10	1	-1E+10	1	-1E+10	1	-1E+10	1	-1E+10	1	-1E+10	1
4902554	79	C	04/15/2023	08:10	-132.748	47.817	0	232.70	0	5.1950	0	33.7740	0	26.683	0	230.621	0	-1e10	8	-1e10	8	-1E+10	1	-1E+10	1	-1E+10	1	-1E+10	1	-1E+10	1	-1E+10	1
4902554	79	C	04/15/2023	08:10	-132.748	47.817	0	233.90	0	5.1930	0	33.7740	0	26.683	0	231.810	0	-1e10	8	-1e10	8	-1E+10	1	-1E+10	1	-1E+10	1	-1E+10	1	-1E+10	1	-1E+10	1
4902554	79	C	04/15/2023	08:10	-132.748	47.817	0	235.30	0	5.1880	0	33.7750	0	26.685	0	233.197	0	-1e10	8	-1e10	8	-1E+10	1	-1E+10	1	-1E+10	1	-1E+10	1	-1E+10	1	-1E+10	1
4902554	79	C	04/15/2023	08:10	-132.748	47.817	0	236.10	0	5.1790	0	33.7760	0	26.687	0	233.989	0	-1e10	8	-1e10	8	-1E+10	1	-1E+10	1	-1E+10	1	-1E+10	1	-1E+10	1	-1E+10	1
4902554	79	C	04/15/2023	08:10	-132.748	47.817	0	237.00	0	5.1700	0	33.7780	0	26.689	0	234.880	0	-1e10	8	-1e10	8	-1E+10	1	-1E+10	1	-1E+10	1	-1E+10	1	-1E+10	1	-1E+10	1
4902554	79	C	04/15/2023	08:10	-132.748	47.817	0	237.90	0	5.1680	0	33.7780	0	26.689	0	235.772	0	-1e10	8	-1e10	8	-1E+10	1	-1E+10	1	-1E+10	1	-1E+10	1	-1E+10	1	-1E+10	1
4902554	79	C	04/15/2023	08:10	-132.748	47.817	0	238.80	0	5.1650	0	33.7790	0	26.691	0	236.663	0	-1e10	8	-1e10	8	-1E+10	1	-1E+10	1	-1E+10	1	-1E+10	1	-1E+10	1	-1E+10	1
4902554	79	C	04/15/2023	08:10	-132.748	47.817	0	239.70	0	5.1630	0	33.7800	0	26.692	0	237.555	0	-1e10	8	-1e10	8	-1E+10	1	-1E+10	1	-1E+10	1	-1E+10	1	-1E+10	1	-1E+10	1
4902554	79	C	04/15/2023	08:10	-132.748	47.817	0	240.60	0	5.1620	0	33.7800	0	26.692	0	238.446	0	-1e10	8	-1e10	8	-1E+10	1	-1E+10	1	-1E+10	1	-1E+10	1	-1E+10	1	-1E+10	1
4902554	79	C	04/15/2023	08:10	-132.748	47.817	0	241.90	0	5.1600	0	33.7790	0	26.691	0	239.734	0	-1e10	8	-1e10	8	-1E+10	1	-1E+10	1	-1E+10	1	-1E+10	1	-1E+10	1	-1E+10	1
4902554	79	C	04/15/2023	08:10	-132.748	47.817	0	243.30	0	5.1550	0	33.7810	0	26.693	0	241.120	0	-1e10	8	-1e10	8	-1E+10	1	-1E+10	1	-1E+10	1	-1E+10	1	-1E+10	1	-1E+10	1
4902554	79	C	04/15/2023	08:10	-132.748	47.817	0	244.10	0	5.1540	0	33.7810	0	26.694	0	241.913	0	-1e10	8	-1e10	8	-1E+10	1	-1E+10	1	-1E+10	1	-1E+10	1	-1E+10	1	-1E+10	1
4902554	79	C	04/15/2023	08:10	-132.748	47.817	0	245.00	0	5.1520	0	33.7810	0	26.694	0	242.804	0	-1e10	8	-1e10	8	-1E+10	1	-1E+10	1	-1E+10	1	-1E+10	1	-1E+10	1	-1E+10	1
4902554	79	C	04/15/2023	08:10	-132.748	47.817	0	245.90	0	5.1500	0	33.7810	0	26.694	0	243.696	0	-1e10	8	-1e10	8	-1E+10	1	-1E+10	1	-1E+10	1	-1E+10	1	-1E+10	1	-1E+10	1
4902554	79	C	04/15/2023	08:10	-132.748	47.817	0	246.80	0	5.1470	0	33.7810	0	26.694	0	244.587	0	-1e10	8	-1e10	8	-1E+10	1	-1E+10	1	-1E+10	1	-1E+10	1	-1E+10	1	-1E+10	1
4902554	79	C	04/15/2023	08:10	-132.748	47.817	0	247.70	0	5.1450	0	33.7800	0	26.694	0	245.478	0	-1e10	8	-1e10	8	-1E+10	1	-1E+10	1	-1E+10	1	-1E+10	1	-1E+10	1	-1E+10	1
4902554	79	C	04/15/2023	08:10	-132.748	47.817	0	248.60	0	5.1350	0	33.7820	0	26.697	0	246.370	0	-1e10	8	-1e10	8	-1E+10	1	-1E+10	1	-1E+10	1	-1E+10	1	-1E+10	1	-1E+10	1
4902554	79	C	04/15/2023	08:10	-132.748	47.817	0	249.90	0	5.1210	0	33.7820	0	26.698	0	247.657	0	-1e10	8	-1e10	8	-1E+10	1	-1E+10	1	-1E+10	1	-1E+10	1	-1E+10	1	-1E+10	1
4902554	79	C	04/15/2023	08:10	-132.748	47.817	0	251.30	0	5.0960	0	33.7860	0	26.704	0	249.044	0	-1e10	8	-1e10	8	-1E+10	1	-1E+10	1	-1E+10	1	-1E+10	1	-1E+10	1	-1E+10	1
4902554	79	C	04/15/2023	08:10	-132.748	47.817	0	252.30	0	5.0820	0	33.7850	0	26.705	0	250.034	0	-1e10	8	-1e10	8	-1E+10	1	-1E+10	1	-1E+10	1	-1E+10	1	-1E+10	1	-1E+10	1
4902554	79	C	04/15/2023	08:10	-132.748	47.817	0	253.20	0	5.0750	0	33.7840	0	26.705	0	250.926	0	-1e10	8	-1e10	8	-1E+10	1	-1E+10	1	-1E+10	1	-1E+10	1	-1E+10	1	-1E+10	1
4902554	79	C	04/15/2023	08:10	-132.748	47.817	0	254.10	0	5.0690	0	33.7840	0	26.706	0	251.817	0	-1e10	8	-1e10	8	-1E+10	1	-1E+10	1	-1E+10	1	-1E+10	1	-1E+10	1	-1E+10	1
4902554	79	C	04/15/2023	08:10	-132.748	47.817	0	255.00	0	5.0640	0	33.7850	0	26.707	0	252.708	0	-1e10	8	-1e10	8	-1E+10	1	-1E+10	1	-1E+10	1	-1E+10	1	-1E+10	1	-1E+10	1
4902554	79	C	04/15/2023	08:10	-132.748	47.817	0	255.90	0	5.0570	0	33.7850	0	26.708	0	253.600	0	-1e10	8	-1e10	8	-1E+10	1	-1E+10	1	-1E+10	1	-1E+10	1	-1E+10	1	-1E+10	1
4902554	79	C	04/15/2023	08:10	-132.748	47.817	0	256.90	0	5.0460	0	33.7850	0	26.709	0	254.590	0	-1e10	8	-1e10	8	-1E+10	1	-1E+10	1	-1E+10	1	-1E+10	1	-1E+10	1	-1E+10	1
4902554	79	C	04/15/2023	08:10	-132.748	47.817	0	257.80	0	5.0310	0	33.7860	0	26.712	0	255.481	0	-1e10	8	-1e10	8	-1E+10	1	-1E+10	1	-1E+10	1	-1E+10	1	-1E+10	1	-1E+10	1
4902554	79	C	04/15/2023	08:10	-132.748	47.817	0	258.70	0	5.0300	0	33.7850	0	26.711	0	256.373	0	-1e10	8	-1e10	8	-1E+10	1	-1E+10	1	-1E+10	1	-1E+10	1	-1E+10	1	-1E+10	1
4902554	79	C	04/15/2023	08:10	-132.748	47.817	0	259.70	0	5.0170	0	33.7870	0	26.714	0	257.363	0	-1e10	8	-1e10	8	-1E+10	1	-1E+10	1	-1E+10	1	-1E+10	1	-1E+10	1	-1E+10	1
4902554	79	C	04/15/2023	08:10	-132.748	47.817	0	260.60	0	5.0140	0	33.7870	0	26.714	0	258.255	0	-1e10	8	-1e10	8	-1E+10	1	-1E+10	1	-1E+10	1	-1E+10	1	-1E+10	1	-1E+10	1
4902554	79	C	04/15/2023	08:10	-132.748	47.817	0	261.60	0	5.0120	0	33.7880	0	26.715	0	259.245	0	-1e10	8	-1e10	8	-1E+10	1	-1E+10	1	-1E+10	1	-1E+10	1	-1E+10	1	-1E+10	1
4902554	79	C	04/15/2023	08:10	-132.748	47.817	0	262.50	0	5.0100	0	33.7880	0	26.716	0	260.136	0	-1e10	8	-1e10	8	-1E+10	1	-1E+10	1	-1E+10	1	-1E+10	1	-1E+10	1	-1E+10	1
4902554	79	C	04/15/2023	08:10	-132.748	47.817	0	263.90	0	4.9990	0	33.7880	0	26.717	0	261.523	0	-1e10	8	-1e10	8	-1E+10	1	-1E+10	1	-1E+10	1	-1E+10	1	-1E+10	1	-1E+10	1
4902554	79	C	04/15/2023	08:10	-132.748	47.817	0	265.40	0	4.9750	0	33.7890	0	26.720	0	263.008	0	-1e10	8	-1e10	8	-1E+10	1	-1E+10	1	-1E+10	1	-1E+10	1	-1E+10	1	-1E+10	1
4902554	79	C	04/15/2023	08:10	-132.748	47.817	0	266.30	0	4.9550	0	33.7920	0	26.725	0	263.900	0	-1e10	8	-1e10	8	-1E+10	1	-1E+10	1	-1E+10	1	-1E+10	1	-1E+10	1	-1E+10	1
4902554	79	C	04/15/2023	08:10	-132.748	47.817	0	267.30	0	4.9540	0	33.7930	0	26.726	0	264.890	0	-1e10	8	-1e10	8	-1E+10	1	-1E+10	1	-1E+10	1	-1E+10	1	-1E+10	1	-1E+10	1
4902554	79	C	04/15/2023	08:10	-132.748	47.817	0	268.20	0	4.9550	0	33.7970	0	26.729	0	265.781	0	-1e10	8	-1e10	8	-1E+10	1	-1E+10	1	-1E+10	1	-1E+10	1	-1E+10	1	-1E+10	1
4902554	79	C	04/15/2023	08:10	-132.748	47.817	0	269.20	0	4.9610	0	33.7970	0	26.728	0	266.772	0	-1e10	8	-1e10	8	-1E+10	1	-1E+10	1	-1E+10	1	-1E+10	1	-1E+10	1	-1E+10	1
4902554	79	C	04/15/2023	08:10	-132.748	47.817	0	270.10	0	4.9420	0	33.7980	0	26.731	0	267.663	0	-1e10	8	-1e10	8	-1E+10	1	-1E+10	1	-1E+10	1	-1E+10	1	-1E+10	1	-1E+10	1
4902554	79	C	04/15/2023	08:10	-132.748	47.817	0	271.10	0	4.9410	0	33.8010	0	26.734	0	268.653	0	-1e10	8	-1e10	8	-1E+10	1	-1E+10	1	-1E+10	1	-1E+10	1	-1E+10	1	-1E+10	1
4902554	79	C	04/15/2023	08:10	-132.748	47.817	0	272.10	0	4.9450	0	33.8030	0	26.735	0	269.644	0	-1e10	8	-1e10	8	-1E+10	1	-1E+10	1	-1E+10	1	-1E+10	1	-1E+10	1	-1E+10	1
4902554	79	C	04/15/2023	08:10	-132.748	47.817	0	273.10	0	4.9400	0	33.8070	0	26.739	0	270.634	0	-1e10	8	-1e10	8	-1E+10	1	-1E+10	1	-1E+10	1	-1E+10	1	-1E+10	1	-1E+10	1
4902554	79	C	04/15/2023	08:10	-132.748	47.817	0	274.00	0	4.9350	0	33.8070	0	26.739	0	271.525	0	-1e10	8	-1e10	8	-1E+10	1	-1E+10	1	-1E+10	1	-1E+10	1	-1E+10	1	-1E+10	1
4902554	79	C	04/15/2023	08:10	-132.748	47.817	0	275.00	0	4.9320	0	33.8070	0	26.740	0	272.516	0	-1e10	8	-1e10	8	-1E+10	1	-1E+10	1	-1E+10	1	-1E+10	1	-1E+10	1	-1E+10	1
4902554	79	C	04/15/2023	08:10	-132.748	47.817	0	276.00	0	4.9280	0	33.8080	0	26.741	0	273.506	0	-1e10	8	-1e10	8	-1E+10	1	-1E+10	1	-1E+10	1	-1E+10	1	-1E+10	1	-1E+10	1
4902554	79	C	04/15/2023	08:10	-132.748	47.817	0	277.00	0	4.9200	0	33.8120	0	26.745	0	274.496	0	-1e10	8	-1e10	8	-1E+10	1	-1E+10	1	-1E+10	1	-1E+10	1	-1E+10	1	-1E+10	1
4902554	79	C	04/15/2023	08:10	-132.748	47.817	0	277.90	0	4.9150	0	33.8130	0	26.746	0	275.387	0	-1e10	8	-1e10	8	-1E+10	1	-1E+10	1	-1E+10	1	-1E+10	1	-1E+10	1	-1E+10	1
4902554	79	C	04/15/2023	08:10	-132.748	47.817	0	278.90	0	4.9050	0	33.8120	0	26.747	0	276.378	0	-1e10	8	-1e10	8	-1E+10	1	-1E+10	1	-1E+10	1	-1E+10	1	-1E+10	1	-1E+10	1
4902554	79	C	04/15/2023	08:10	-132.748	47.817	0	279.90	0	4.8930	0	33.8120	0	26.748	0	277.368	0	-1e10	8	-1e10	8	-1E+10	1	-1E+10	1	-1E+10	1	-1E+10	1	-1E+10	1	-1E+10	1
4902554	79	C	04/15/2023	08:10	-132.748	47.817	0	280.90	0	4.8820	0	33.8140	0	26.751	0	278.358	0	-1e10	8	-1e10	8	-1E+10	1	-1E+10	1	-1E+10	1	-1E+10	1	-1E+10	1	-1E+10	1
4902554	79	C	04/15/2023	08:10	-132.748	47.817	0	281.90	0	4.8780	0	33.8130	0	26.751	0	279.349	0	-1e10	8	-1e10	8	-1E+10	1	-1E+10	1	-1E+10	1	-1E+10	1	-1E+10	1	-1E+10	1
4902554	79	C	04/15/2023	08:10	-132.748	47.817	0	282.90	0	4.8690	0	33.8140	0	26.752	0	280.339	0	-1e10	8	-1e10	8	-1E+10	1	-1E+10	1	-1E+10	1	-1E+10	1	-1E+10	1	-1E+10	1
4902554	79	C	04/15/2023	08:10	-132.748	47.817	0	283.90	0	4.8430	0	33.8150	0	26.756	0	281.329	0	-1e10	8	-1e10	8	-1E+10	1	-1E+10	1	-1E+10	1	-1E+10	1	-1E+10	1	-1E+10	1
4902554	79	C	04/15/2023	08:10	-132.748	47.817	0	284.90	0	4.8330	0	33.8130	0	26.756	0	282.319	0	-1e10	8	-1e10	8	-1E+10	1	-1E+10	1	-1E+10	1	-1E+10	1	-1E+10	1	-1E+10	1
4902554	79	C	04/15/2023	08:10	-132.748	47.817	0	285.90	0	4.8290	0	33.8130	0	26.756	0	283.310	0	-1e10	8	-1e10	8	-1E+10	1	-1E+10	1	-1E+10	1	-1E+10	1	-1E+10	1	-1E+10	1
4902554	79	C	04/15/2023	08:10	-132.748	47.817	0	286.90	0	4.8180	0	33.8160	0	26.760	0	284.300	0	-1e10	8	-1e10	8	-1E+10	1	-1E+10	1	-1E+10	1	-1E+10	1	-1E+10	1	-1E+10	1
4902554	79	C	04/15/2023	08:10	-132.748	47.817	0	287.90	0	4.8180	0	33.8160	0	26.760	0	285.290	0	-1e10	8	-1e10	8	-1E+10	1	-1E+10	1	-1E+10	1	-1E+10	1	-1E+10	1	-1E+10	1
4902554	79	C	04/15/2023	08:10	-132.748	47.817	0	289.00	0	4.8180	0	33.8160	0	26.760	0	286.379	0	-1e10	8	-1e10	8	-1E+10	1	-1E+10	1	-1E+10	1	-1E+10	1	-1E+10	1	-1E+10	1
4902554	79	C	04/15/2023	08:10	-132.748	47.817	0	290.00	0	4.8170	0	33.8160	0	26.760	0	287.370	0	-1e10	8	-1e10	8	-1E+10	1	-1E+10	1	-1E+10	1	-1E+10	1	-1E+10	1	-1E+10	1
4902554	79	C	04/15/2023	08:10	-132.748	47.817	0	291.00	0	4.8180	0	33.8160	0	26.760	0	288.360	0	-1e10	8	-1e10	8	-1E+10	1	-1E+10	1	-1E+10	1	-1E+10	1	-1E+10	1	-1E+10	1
4902554	79	C	04/15/2023	08:10	-132.748	47.817	0	292.00	0	4.8160	0	33.8170	0	26.761	0	289.350	0	-1e10	8	-1e10	8	-1E+10	1	-1E+10	1	-1E+10	1	-1E+10	1	-1E+10	1	-1E+10	1
4902554	79	C	04/15/2023	08:10	-132.748	47.817	0	293.00	0	4.8130	0	33.8190	0	26.763	0	290.340	0	-1e10	8	-1e10	8	-1E+10	1	-1E+10	1	-1E+10	1	-1E+10	1	-1E+10	1	-1E+10	1
4902554	79	C	04/15/2023	08:10	-132.748	47.817	0	294.00	0	4.8090	0	33.8200	0	26.764	0	291.330	0	-1e10	8	-1e10	8	-1E+10	1	-1E+10	1	-1E+10	1	-1E+10	1	-1E+10	1	-1E+10	1
4902554	79	C	04/15/2023	08:10	-132.748	47.817	0	295.00	0	4.8060	0	33.8210	0	26.765	0	292.321	0	-1e10	8	-1e10	8	-1E+10	1	-1E+10	1	-1E+10	1	-1E+10	1	-1E+10	1	-1E+10	1
4902554	79	C	04/15/2023	08:10	-132.748	47.817	0	296.10	0	4.8030	0	33.8230	0	26.767	0	293.410	0	-1e10	8	-1e10	8	-1E+10	1	-1E+10	1	-1E+10	1	-1E+10	1	-1E+10	1	-1E+10	1
4902554	79	C	04/15/2023	08:10	-132.748	47.817	0	297.10	0	4.8010	0	33.8240	0	26.768	0	294.400	0	-1e10	8	-1e10	8	-1E+10	1	-1E+10	1	-1E+10	1	-1E+10	1	-1E+10	1	-1E+10	1
4902554	79	C	04/15/2023	08:10	-132.748	47.817	0	298.10	0	4.7930	0	33.8280	0	26.772	0	295.390	0	-1e10	8	-1e10	8	-1E+10	1	-1E+10	1	-1E+10	1	-1E+10	1	-1E+10	1	-1E+10	1
4902554	79	C	04/15/2023	08:10	-132.748	47.817	0	299.10	0	4.7910	0	33.8270	0	26.771	0	296.381	0	-1e10	8	-1e10	8	-1E+10	1	-1E+10	1	-1E+10	1	-1E+10	1	-1E+10	1	-1E+10	1
4902554	79	C	04/15/2023	08:10	-132.748	47.817	0	300.20	0	4.7930	0	33.8280	0	26.772	0	297.470	0	-1e10	8	-1e10	8	-1E+10	1	-1E+10	1	-1E+10	1	-1E+10	1	-1E+10	1	-1E+10	1
4902554	79	C	04/15/2023	08:10	-132.748	47.817	0	301.20	0	4.7910	0	33.8290	0	26.773	0	298.460	0	-1e10	8	-1e10	8	-1E+10	1	-1E+10	1	-1E+10	1	-1E+10	1	-1E+10	1	-1E+10	1
4902554	79	C	04/15/2023	08:10	-132.748	47.817	0	302.20	0	4.7900	0	33.8280	0	26.772	0	299.450	0	-1e10	8	-1e10	8	-1E+10	1	-1E+10	1	-1E+10	1	-1E+10	1	-1E+10	1	-1E+10	1
4902554	79	C	04/15/2023	08:10	-132.748	47.817	0	303.20	0	4.7880	0	33.8290	0	26.773	0	300.440	0	-1e10	8	-1e10	8	-1E+10	1	-1E+10	1	-1E+10	1	-1E+10	1	-1E+10	1	-1E+10	1
4902554	79	C	04/15/2023	08:10	-132.748	47.817	0	304.30	0	4.7880	0	33.8290	0	26.773	0	301.529	0	-1e10	8	-1e10	8	-1E+10	1	-1E+10	1	-1E+10	1	-1E+10	1	-1E+10	1	-1E+10	1
4902554	79	C	04/15/2023	08:10	-132.748	47.817	0	305.30	0	4.7870	0	33.8290	0	26.774	0	302.520	0	-1e10	8	-1e10	8	-1E+10	1	-1E+10	1	-1E+10	1	-1E+10	1	-1E+10	1	-1E+10	1
4902554	79	C	04/15/2023	08:10	-132.748	47.817	0	306.40	0	4.7850	0	33.8290	0	26.774	0	303.609	0	-1e10	8	-1e10	8	-1E+10	1	-1E+10	1	-1E+10	1	-1E+10	1	-1E+10	1	-1E+10	1
4902554	79	C	04/15/2023	08:10	-132.748	47.817	0	307.40	0	4.7770	0	33.8300	0	26.775	0	304.599	0	-1e10	8	-1e10	8	-1E+10	1	-1E+10	1	-1E+10	1	-1E+10	1	-1E+10	1	-1E+10	1
4902554	79	C	04/15/2023	08:10	-132.748	47.817	0	308.40	0	4.7720	0	33.8300	0	26.776	0	305.589	0	-1e10	8	-1e10	8	-1E+10	1	-1E+10	1	-1E+10	1	-1E+10	1	-1E+10	1	-1E+10	1
4902554	79	C	04/15/2023	08:10	-132.748	47.817	0	309.40	0	4.7620	0	33.8310	0	26.778	0	306.579	0	-1e10	8	-1e10	8	-1E+10	1	-1E+10	1	-1E+10	1	-1E+10	1	-1E+10	1	-1E+10	1
4902554	79	C	04/15/2023	08:10	-132.748	47.817	0	310.50	0	4.7490	0	33.8340	0	26.782	0	307.668	0	-1e10	8	-1e10	8	-1E+10	1	-1E+10	1	-1E+10	1	-1E+10	1	-1E+10	1	-1E+10	1
4902554	79	C	04/15/2023	08:10	-132.748	47.817	0	311.50	0	4.7420	0	33.8360	0	26.784	0	308.659	0	-1e10	8	-1e10	8	-1E+10	1	-1E+10	1	-1E+10	1	-1E+10	1	-1E+10	1	-1E+10	1
4902554	79	C	04/15/2023	08:10	-132.748	47.817	0	312.60	0	4.7340	0	33.8390	0	26.787	0	309.748	0	-1e10	8	-1e10	8	-1E+10	1	-1E+10	1	-1E+10	1	-1E+10	1	-1E+10	1	-1E+10	1
4902554	79	C	04/15/2023	08:10	-132.748	47.817	0	313.60	0	4.7240	0	33.8400	0	26.789	0	310.738	0	-1e10	8	-1e10	8	-1E+10	1	-1E+10	1	-1E+10	1	-1E+10	1	-1E+10	1	-1E+10	1
4902554	79	C	04/15/2023	08:10	-132.748	47.817	0	314.60	0	4.7210	0	33.8410	0	26.790	0	311.728	0	-1e10	8	-1e10	8	-1E+10	1	-1E+10	1	-1E+10	1	-1E+10	1	-1E+10	1	-1E+10	1
4902554	79	C	04/15/2023	08:10	-132.748	47.817	0	315.70	0	4.7150	0	33.8420	0	26.792	0	312.817	0	-1e10	8	-1e10	8	-1E+10	1	-1E+10	1	-1E+10	1	-1E+10	1	-1E+10	1	-1E+10	1
4902554	79	C	04/15/2023	08:10	-132.748	47.817	0	316.70	0	4.7100	0	33.8430	0	26.793	0	313.807	0	-1e10	8	-1e10	8	-1E+10	1	-1E+10	1	-1E+10	1	-1E+10	1	-1E+10	1	-1E+10	1
4902554	79	C	04/15/2023	08:10	-132.748	47.817	0	317.70	0	4.7070	0	33.8440	0	26.794	0	314.797	0	-1e10	8	-1e10	8	-1E+10	1	-1E+10	1	-1E+10	1	-1E+10	1	-1E+10	1	-1E+10	1
4902554	79	C	04/15/2023	08:10	-132.748	47.817	0	318.70	0	4.7010	0	33.8440	0	26.795	0	315.787	0	-1e10	8	-1e10	8	-1E+10	1	-1E+10	1	-1E+10	1	-1E+10	1	-1E+10	1	-1E+10	1
4902554	79	C	04/15/2023	08:10	-132.748	47.817	0	319.80	0	4.6910	0	33.8450	0	26.797	0	316.876	0	-1e10	8	-1e10	8	-1E+10	1	-1E+10	1	-1E+10	1	-1E+10	1	-1E+10	1	-1E+10	1
4902554	79	C	04/15/2023	08:10	-132.748	47.817	0	320.80	0	4.6830	0	33.8480	0	26.800	0	317.867	0	-1e10	8	-1e10	8	-1E+10	1	-1E+10	1	-1E+10	1	-1E+10	1	-1E+10	1	-1E+10	1
4902554	79	C	04/15/2023	08:10	-132.748	47.817	0	321.80	0	4.6770	0	33.8470	0	26.800	0	318.857	0	-1e10	8	-1e10	8	-1E+10	1	-1E+10	1	-1E+10	1	-1E+10	1	-1E+10	1	-1E+10	1
4902554	79	C	04/15/2023	08:10	-132.748	47.817	0	322.90	0	4.6570	0	33.8480	0	26.803	0	319.946	0	-1e10	8	-1e10	8	-1E+10	1	-1E+10	1	-1E+10	1	-1E+10	1	-1E+10	1	-1E+10	1
4902554	79	C	04/15/2023	08:10	-132.748	47.817	0	323.90	0	4.6520	0	33.8500	0	26.805	0	320.936	0	-1e10	8	-1e10	8	-1E+10	1	-1E+10	1	-1E+10	1	-1E+10	1	-1E+10	1	-1E+10	1
4902554	79	C	04/15/2023	08:10	-132.748	47.817	0	324.90	0	4.6510	0	33.8500	0	26.805	0	321.926	0	-1e10	8	-1e10	8	-1E+10	1	-1E+10	1	-1E+10	1	-1E+10	1	-1E+10	1	-1E+10	1
4902554	79	C	04/15/2023	08:10	-132.748	47.817	0	326.00	0	4.6480	0	33.8500	0	26.806	0	323.015	0	-1e10	8	-1e10	8	-1E+10	1	-1E+10	1	-1E+10	1	-1E+10	1	-1E+10	1	-1E+10	1
4902554	79	C	04/15/2023	08:10	-132.748	47.817	0	327.00	0	4.6420	0	33.8510	0	26.807	0	324.005	0	-1e10	8	-1e10	8	-1E+10	1	-1E+10	1	-1E+10	1	-1E+10	1	-1E+10	1	-1E+10	1
4902554	79	C	04/15/2023	08:10	-132.748	47.817	0	328.00	0	4.6410	0	33.8510	0	26.807	0	324.995	0	-1e10	8	-1e10	8	-1E+10	1	-1E+10	1	-1E+10	1	-1E+10	1	-1E+10	1	-1E+10	1
4902554	79	C	04/15/2023	08:10	-132.748	47.817	0	329.00	0	4.6350	0	33.8510	0	26.808	0	325.985	0	-1e10	8	-1e10	8	-1E+10	1	-1E+10	1	-1E+10	1	-1E+10	1	-1E+10	1	-1E+10	1
4902554	79	C	04/15/2023	08:10	-132.748	47.817	0	330.10	0	4.6310	0	33.8510	0	26.808	0	327.074	0	-1e10	8	-1e10	8	-1E+10	1	-1E+10	1	-1E+10	1	-1E+10	1	-1E+10	1	-1E+10	1
4902554	79	C	04/15/2023	08:10	-132.748	47.817	0	331.10	0	4.6270	0	33.8520	0	26.810	0	328.064	0	-1e10	8	-1e10	8	-1E+10	1	-1E+10	1	-1E+10	1	-1E+10	1	-1E+10	1	-1E+10	1
4902554	79	C	04/15/2023	08:10	-132.748	47.817	0	332.10	0	4.6120	0	33.8550	0	26.814	0	329.054	0	-1e10	8	-1e10	8	-1E+10	1	-1E+10	1	-1E+10	1	-1E+10	1	-1E+10	1	-1E+10	1
4902554	79	C	04/15/2023	08:10	-132.748	47.817	0	333.10	0	4.6090	0	33.8560	0	26.815	0	330.044	0	-1e10	8	-1e10	8	-1E+10	1	-1E+10	1	-1E+10	1	-1E+10	1	-1E+10	1	-1E+10	1
4902554	79	C	04/15/2023	08:10	-132.748	47.817	0	334.10	0	4.6000	0	33.8570	0	26.816	0	331.034	0	-1e10	8	-1e10	8	-1E+10	1	-1E+10	1	-1E+10	1	-1E+10	1	-1E+10	1	-1E+10	1
4902554	79	C	04/15/2023	08:10	-132.748	47.817	0	335.20	0	4.5910	0	33.8570	0	26.817	0	332.123	0	-1e10	8	-1e10	8	-1E+10	1	-1E+10	1	-1E+10	1	-1E+10	1	-1E+10	1	-1E+10	1
4902554	79	C	04/15/2023	08:10	-132.748	47.817	0	336.20	0	4.5800	0	33.8590	0	26.820	0	333.113	0	-1e10	8	-1e10	8	-1E+10	1	-1E+10	1	-1E+10	1	-1E+10	1	-1E+10	1	-1E+10	1
4902554	79	C	04/15/2023	08:10	-132.748	47.817	0	337.20	0	4.5740	0	33.8600	0	26.822	0	334.103	0	-1e10	8	-1e10	8	-1E+10	1	-1E+10	1	-1E+10	1	-1E+10	1	-1E+10	1	-1E+10	1
4902554	79	C	04/15/2023	08:10	-132.748	47.817	0	338.10	0	4.5660	0	33.8610	0	26.823	0	334.994	0	-1e10	8	-1e10	8	-1E+10	1	-1E+10	1	-1E+10	1	-1E+10	1	-1E+10	1	-1E+10	1
4902554	79	C	04/15/2023	08:10	-132.748	47.817	0	339.00	0	4.5670	0	33.8600	0	26.822	0	335.885	0	-1e10	8	-1e10	8	-1E+10	1	-1E+10	1	-1E+10	1	-1E+10	1	-1E+10	1	-1E+10	1
4902554	79	C	04/15/2023	08:10	-132.748	47.817	0	339.80	0	4.5670	0	33.8610	0	26.823	0	336.677	0	-1e10	8	-1e10	8	-1E+10	1	-1E+10	1	-1E+10	1	-1E+10	1	-1E+10	1	-1E+10	1
4902554	79	C	04/15/2023	08:10	-132.748	47.817	0	340.80	0	4.5560	0	33.8630	0	26.826	0	337.667	0	-1e10	8	-1e10	8	-1E+10	1	-1E+10	1	-1E+10	1	-1E+10	1	-1E+10	1	-1E+10	1
4902554	79	C	04/15/2023	08:10	-132.748	47.817	0	342.00	0	4.5420	0	33.8660	0	26.830	0	338.855	0	-1e10	8	-1e10	8	-1E+10	1	-1E+10	1	-1E+10	1	-1E+10	1	-1E+10	1	-1E+10	1
4902554	79	C	04/15/2023	08:10	-132.748	47.817	0	342.80	0	4.5370	0	33.8670	0	26.831	0	339.647	0	-1e10	8	-1e10	8	-1E+10	1	-1E+10	1	-1E+10	1	-1E+10	1	-1E+10	1	-1E+10	1
4902554	79	C	04/15/2023	08:10	-132.748	47.817	0	343.90	0	4.5340	0	33.8670	0	26.832	0	340.736	0	-1e10	8	-1e10	8	-1E+10	1	-1E+10	1	-1E+10	1	-1E+10	1	-1E+10	1	-1E+10	1
4902554	79	C	04/15/2023	08:10	-132.748	47.817	0	345.00	0	4.5290	0	33.8690	0	26.834	0	341.825	0	-1e10	8	-1e10	8	-1E+10	1	-1E+10	1	-1E+10	1	-1E+10	1	-1E+10	1	-1E+10	1
4902554	79	C	04/15/2023	08:10	-132.748	47.817	0	345.80	0	4.5180	0	33.8710	0	26.837	0	342.617	0	-1e10	8	-1e10	8	-1E+10	1	-1E+10	1	-1E+10	1	-1E+10	1	-1E+10	1	-1E+10	1
4902554	79	C	04/15/2023	08:10	-132.748	47.817	0	346.90	0	4.5180	0	33.8720	0	26.837	0	343.706	0	-1e10	8	-1e10	8	-1E+10	1	-1E+10	1	-1E+10	1	-1E+10	1	-1E+10	1	-1E+10	1
4902554	79	C	04/15/2023	08:10	-132.748	47.817	0	348.10	0	4.5170	0	33.8710	0	26.837	0	344.894	0	-1e10	8	-1e10	8	-1E+10	1	-1E+10	1	-1E+10	1	-1E+10	1	-1E+10	1	-1E+10	1
4902554	79	C	04/15/2023	08:10	-132.748	47.817	0	348.90	0	4.5160	0	33.8720	0	26.838	0	345.686	0	-1e10	8	-1e10	8	-1E+10	1	-1E+10	1	-1E+10	1	-1E+10	1	-1E+10	1	-1E+10	1
4902554	79	C	04/15/2023	08:10	-132.748	47.817	0	350.00	0	4.5080	0	33.8740	0	26.840	0	346.775	0	-1e10	8	-1e10	8	-1E+10	1	-1E+10	1	-1E+10	1	-1E+10	1	-1E+10	1	-1E+10	1
4902554	79	C	04/15/2023	08:10	-132.748	47.817	0	353.10	0	4.4960	0	33.8780	0	26.845	0	349.844	0	-1e10	8	-1e10	8	-1E+10	1	-1E+10	1	-1E+10	1	-1E+10	1	-1E+10	1	-1E+10	1
4902554	79	C	04/15/2023	08:10	-132.748	47.817	0	357.90	0	4.4870	0	33.8810	0	26.848	0	354.596	0	-1e10	8	-1e10	8	-1E+10	1	-1E+10	1	-1E+10	1	-1E+10	1	-1E+10	1	-1E+10	1
4902554	79	C	04/15/2023	08:10	-132.748	47.817	0	362.90	0	4.4700	0	33.8880	0	26.855	0	359.545	0	-1e10	8	-1e10	8	-1E+10	1	-1E+10	1	-1E+10	1	-1E+10	1	-1E+10	1	-1E+10	1
4902554	79	C	04/15/2023	08:10	-132.748	47.817	0	367.90	0	4.4650	0	33.8890	0	26.857	0	364.494	0	-1e10	8	-1e10	8	-1E+10	1	-1E+10	1	-1E+10	1	-1E+10	1	-1E+10	1	-1E+10	1
4902554	79	C	04/15/2023	08:10	-132.748	47.817	0	372.90	0	4.4470	0	33.8950	0	26.863	0	369.444	0	-1e10	8	-1e10	8	-1E+10	1	-1E+10	1	-1E+10	1	-1E+10	1	-1E+10	1	-1E+10	1
4902554	79	C	04/15/2023	08:10	-132.748	47.817	0	378.10	0	4.4380	0	33.8990	0	26.868	0	374.591	0	-1e10	8	-1e10	8	-1E+10	1	-1E+10	1	-1E+10	1	-1E+10	1	-1E+10	1	-1E+10	1
4902554	79	C	04/15/2023	08:10	-132.748	47.817	0	382.90	0	4.4320	0	33.9020	0	26.871	0	379.342	0	-1e10	8	-1e10	8	-1E+10	1	-1E+10	1	-1E+10	1	-1E+10	1	-1E+10	1	-1E+10	1
4902554	79	C	04/15/2023	08:10	-132.748	47.817	0	387.80	0	4.4230	0	33.9090	0	26.877	0	384.192	0	-1e10	8	-1e10	8	-1E+10	1	-1E+10	1	-1E+10	1	-1E+10	1	-1E+10	1	-1E+10	1
4902554	79	C	04/15/2023	08:10	-132.748	47.817	0	393.10	0	4.4190	0	33.9140	0	26.882	0	389.438	0	-1e10	8	-1e10	8	-1E+10	1	-1E+10	1	-1E+10	1	-1E+10	1	-1E+10	1	-1E+10	1
4902554	79	C	04/15/2023	08:10	-132.748	47.817	0	398.10	0	4.4140	0	33.9160	0	26.884	0	394.386	0	-1e10	8	-1e10	8	-1E+10	1	-1E+10	1	-1E+10	1	-1E+10	1	-1E+10	1	-1E+10	1
4902554	79	C	04/15/2023	08:10	-132.748	47.817	0	403.00	0	4.3960	0	33.9230	0	26.891	0	399.236	0	-1e10	8	-1e10	8	-1E+10	1	-1E+10	1	-1E+10	1	-1E+10	1	-1E+10	1	-1E+10	1
4902554	79	C	04/15/2023	08:10	-132.748	47.817	0	408.00	0	4.3750	0	33.9310	0	26.900	0	404.184	0	-1e10	8	-1e10	8	-1E+10	1	-1E+10	1	-1E+10	1	-1E+10	1	-1E+10	1	-1E+10	1
4902554	79	C	04/15/2023	08:10	-132.748	47.817	0	413.00	0	4.3680	0	33.9350	0	26.904	0	409.133	0	-1e10	8	-1e10	8	-1E+10	1	-1E+10	1	-1E+10	1	-1E+10	1	-1E+10	1	-1E+10	1
4902554	79	C	04/15/2023	08:10	-132.748	47.817	0	418.10	0	4.3560	0	33.9400	0	26.909	0	414.180	0	-1e10	8	-1e10	8	-1E+10	1	-1E+10	1	-1E+10	1	-1E+10	1	-1E+10	1	-1E+10	1
4902554	79	C	04/15/2023	08:10	-132.748	47.817	0	422.70	0	4.3500	0	33.9430	0	26.912	0	418.732	0	-1e10	8	-1e10	8	-1E+10	1	-1E+10	1	-1E+10	1	-1E+10	1	-1E+10	1	-1E+10	1
4902554	79	C	04/15/2023	08:10	-132.748	47.817	0	427.90	0	4.3380	0	33.9480	0	26.918	0	423.878	0	-1e10	8	-1e10	8	-1E+10	1	-1E+10	1	-1E+10	1	-1E+10	1	-1E+10	1	-1E+10	1
4902554	79	C	04/15/2023	08:10	-132.748	47.817	0	433.00	0	4.3290	0	33.9520	0	26.922	0	428.925	0	-1e10	8	-1e10	8	-1E+10	1	-1E+10	1	-1E+10	1	-1E+10	1	-1E+10	1	-1E+10	1
4902554	79	C	04/15/2023	08:10	-132.748	47.817	0	437.80	0	4.3150	0	33.9590	0	26.929	0	433.674	0	-1e10	8	-1e10	8	-1E+10	1	-1E+10	1	-1E+10	1	-1E+10	1	-1E+10	1	-1E+10	1
4902554	79	C	04/15/2023	08:10	-132.748	47.817	0	442.50	0	4.3000	0	33.9670	0	26.937	0	438.325	0	-1e10	8	-1e10	8	-1E+10	1	-1E+10	1	-1E+10	1	-1E+10	1	-1E+10	1	-1E+10	1
4902554	79	C	04/15/2023	08:10	-132.748	47.817	0	447.80	0	4.2850	0	33.9750	0	26.945	0	443.570	0	-1e10	8	-1e10	8	-1E+10	1	-1E+10	1	-1E+10	1	-1E+10	1	-1E+10	1	-1E+10	1
4902554	79	C	04/15/2023	08:10	-132.748	47.817	0	453.00	0	4.2810	0	33.9770	0	26.947	0	448.715	0	-1e10	8	-1e10	8	-1E+10	1	-1E+10	1	-1E+10	1	-1E+10	1	-1E+10	1	-1E+10	1
4902554	79	C	04/15/2023	08:10	-132.748	47.817	0	457.70	0	4.2710	0	33.9810	0	26.951	0	453.365	0	-1e10	8	-1e10	8	-1E+10	1	-1E+10	1	-1E+10	1	-1E+10	1	-1E+10	1	-1E+10	1
4902554	79	C	04/15/2023	08:10	-132.748	47.817	0	462.70	0	4.2430	0	33.9910	0	26.962	0	458.312	0	-1e10	8	-1e10	8	-1E+10	1	-1E+10	1	-1E+10	1	-1E+10	1	-1E+10	1	-1E+10	1
4902554	79	C	04/15/2023	08:10	-132.748	47.817	0	467.90	0	4.2350	0	33.9940	0	26.965	0	463.457	0	-1e10	8	-1e10	8	-1E+10	1	-1E+10	1	-1E+10	1	-1E+10	1	-1E+10	1	-1E+10	1
4902554	79	C	04/15/2023	08:10	-132.748	47.817	0	472.60	0	4.2270	0	33.9970	0	26.968	0	468.107	0	-1e10	8	-1e10	8	-1E+10	1	-1E+10	1	-1E+10	1	-1E+10	1	-1E+10	1	-1E+10	1
4902554	79	C	04/15/2023	08:10	-132.748	47.817	0	477.90	0	4.2080	0	34.0020	0	26.974	0	473.351	0	-1e10	8	-1e10	8	-1E+10	1	-1E+10	1	-1E+10	1	-1E+10	1	-1E+10	1	-1E+10	1
4902554	79	C	04/15/2023	08:10	-132.748	47.817	0	483.30	0	4.1980	0	34.0040	0	26.977	0	478.693	0	-1e10	8	-1e10	8	-1E+10	1	-1E+10	1	-1E+10	1	-1E+10	1	-1E+10	1	-1E+10	1
4902554	79	C	04/15/2023	08:10	-132.748	47.817	0	488.20	0	4.1860	0	34.0060	0	26.980	0	483.541	0	-1e10	8	-1e10	8	-1E+10	1	-1E+10	1	-1E+10	1	-1E+10	1	-1E+10	1	-1E+10	1
4902554	79	C	04/15/2023	08:10	-132.748	47.817	0	493.20	0	4.1690	0	34.0130	0	26.987	0	488.487	0	-1e10	8	-1e10	8	-1E+10	1	-1E+10	1	-1E+10	1	-1E+10	1	-1E+10	1	-1E+10	1
4902554	79	C	04/15/2023	08:10	-132.748	47.817	0	498.10	0	4.1630	0	34.0170	0	26.991	0	493.335	0	-1e10	8	-1e10	8	-1E+10	1	-1E+10	1	-1E+10	1	-1E+10	1	-1E+10	1	-1E+10	1
4902554	79	C	04/15/2023	08:10	-132.748	47.817	0	503.10	0	4.1570	0	34.0220	0	26.996	0	498.281	0	-1e10	8	-1e10	8	-1E+10	1	-1E+10	1	-1E+10	1	-1E+10	1	-1E+10	1	-1E+10	1
4902554	79	C	04/15/2023	08:10	-132.748	47.817	0	508.00	0	4.1500	0	34.0280	0	27.001	0	503.128	0	-1e10	8	-1e10	8	-1E+10	1	-1E+10	1	-1E+10	1	-1E+10	1	-1E+10	1	-1E+10	1
4902554	79	C	04/15/2023	08:10	-132.748	47.817	0	513.00	0	4.1400	0	34.0330	0	27.006	0	508.074	0	-1e10	8	-1e10	8	-1E+10	1	-1E+10	1	-1E+10	1	-1E+10	1	-1E+10	1	-1E+10	1
4902554	79	C	04/15/2023	08:10	-132.748	47.817	0	518.20	0	4.1270	0	34.0400	0	27.013	0	513.218	0	-1e10	8	-1e10	8	-1E+10	1	-1E+10	1	-1E+10	1	-1E+10	1	-1E+10	1	-1E+10	1
4902554	79	C	04/15/2023	08:10	-132.748	47.817	0	522.80	0	4.1140	0	34.0470	0	27.020	0	517.768	0	-1e10	8	-1e10	8	-1E+10	1	-1E+10	1	-1E+10	1	-1E+10	1	-1E+10	1	-1E+10	1
4902554	79	C	04/15/2023	08:10	-132.748	47.817	0	527.50	0	4.0910	0	34.0560	0	27.030	0	522.416	0	-1e10	8	-1e10	8	-1E+10	1	-1E+10	1	-1E+10	1	-1E+10	1	-1E+10	1	-1E+10	1
4902554	79	C	04/15/2023	08:10	-132.748	47.817	0	532.80	0	4.0720	0	34.0670	0	27.041	0	527.659	0	-1e10	8	-1e10	8	-1E+10	1	-1E+10	1	-1E+10	1	-1E+10	1	-1E+10	1	-1E+10	1
4902554	79	C	04/15/2023	08:10	-132.748	47.817	0	538.20	0	4.0570	0	34.0710	0	27.045	0	533.000	0	-1e10	8	-1e10	8	-1E+10	1	-1E+10	1	-1E+10	1	-1E+10	1	-1E+10	1	-1E+10	1
4902554	79	C	04/15/2023	08:10	-132.748	47.817	0	543.00	0	4.0550	0	34.0770	0	27.050	0	537.747	0	-1e10	8	-1e10	8	-1E+10	1	-1E+10	1	-1E+10	1	-1E+10	1	-1E+10	1	-1E+10	1
4902554	79	C	04/15/2023	08:10	-132.748	47.817	0	547.70	0	4.0460	0	34.0810	0	27.055	0	542.395	0	-1e10	8	-1e10	8	-1E+10	1	-1E+10	1	-1E+10	1	-1E+10	1	-1E+10	1	-1E+10	1
4902554	79	C	04/15/2023	08:10	-132.748	47.817	0	553.00	0	4.0290	0	34.0870	0	27.061	0	547.637	0	-1e10	8	-1e10	8	-1E+10	1	-1E+10	1	-1E+10	1	-1E+10	1	-1E+10	1	-1E+10	1
4902554	79	C	04/15/2023	08:10	-132.748	47.817	0	557.80	0	4.0190	0	34.0940	0	27.068	0	552.384	0	-1e10	8	-1e10	8	-1E+10	1	-1E+10	1	-1E+10	1	-1E+10	1	-1E+10	1	-1E+10	1
4902554	79	C	04/15/2023	08:10	-132.748	47.817	0	562.90	0	4.0120	0	34.0980	0	27.072	0	557.428	0	-1e10	8	-1e10	8	-1E+10	1	-1E+10	1	-1E+10	1	-1E+10	1	-1E+10	1	-1E+10	1
4902554	79	C	04/15/2023	08:10	-132.748	47.817	0	567.90	0	4.0060	0	34.1010	0	27.075	0	562.372	0	-1e10	8	-1e10	8	-1E+10	1	-1E+10	1	-1E+10	1	-1E+10	1	-1E+10	1	-1E+10	1
4902554	79	C	04/15/2023	08:10	-132.748	47.817	0	572.70	0	3.9970	0	34.1040	0	27.078	0	567.119	0	-1e10	8	-1e10	8	-1E+10	1	-1E+10	1	-1E+10	1	-1E+10	1	-1E+10	1	-1E+10	1
4902554	79	C	04/15/2023	08:10	-132.748	47.817	0	577.70	0	3.9860	0	34.1050	0	27.080	0	572.064	0	-1e10	8	-1e10	8	-1E+10	1	-1E+10	1	-1E+10	1	-1E+10	1	-1E+10	1	-1E+10	1
4902554	79	C	04/15/2023	08:10	-132.748	47.817	0	582.70	0	3.9740	0	34.1090	0	27.084	0	577.008	0	-1e10	8	-1e10	8	-1E+10	1	-1E+10	1	-1E+10	1	-1E+10	1	-1E+10	1	-1E+10	1
4902554	79	C	04/15/2023	08:10	-132.748	47.817	0	587.70	0	3.9680	0	34.1120	0	27.087	0	581.952	0	-1e10	8	-1e10	8	-1E+10	1	-1E+10	1	-1E+10	1	-1E+10	1	-1E+10	1	-1E+10	1
4902554	79	C	04/15/2023	08:10	-132.748	47.817	0	592.60	0	3.9620	0	34.1140	0	27.090	0	586.797	0	-1e10	8	-1e10	8	-1E+10	1	-1E+10	1	-1E+10	1	-1E+10	1	-1E+10	1	-1E+10	1
4902554	79	C	04/15/2023	08:10	-132.748	47.817	0	597.60	0	3.9480	0	34.1200	0	27.096	0	591.741	0	-1e10	8	-1e10	8	-1E+10	1	-1E+10	1	-1E+10	1	-1E+10	1	-1E+10	1	-1E+10	1
4902554	79	C	04/15/2023	08:10	-132.748	47.817	0	602.50	0	3.9400	0	34.1240	0	27.100	0	596.586	0	-1e10	8	-1e10	8	-1E+10	1	-1E+10	1	-1E+10	1	-1E+10	1	-1E+10	1	-1E+10	1
4902554	79	C	04/15/2023	08:10	-132.748	47.817	0	607.70	0	3.9300	0	34.1270	0	27.103	0	601.728	0	-1e10	8	-1e10	8	-1E+10	1	-1E+10	1	-1E+10	1	-1E+10	1	-1E+10	1	-1E+10	1
4902554	79	C	04/15/2023	08:10	-132.748	47.817	0	613.00	0	3.9190	0	34.1320	0	27.108	0	606.968	0	-1e10	8	-1e10	8	-1E+10	1	-1E+10	1	-1E+10	1	-1E+10	1	-1E+10	1	-1E+10	1
4902554	79	C	04/15/2023	08:10	-132.748	47.817	0	617.80	0	3.9000	0	34.1380	0	27.115	0	611.713	0	-1e10	8	-1e10	8	-1E+10	1	-1E+10	1	-1E+10	1	-1E+10	1	-1E+10	1	-1E+10	1
4902554	79	C	04/15/2023	08:10	-132.748	47.817	0	622.80	0	3.8920	0	34.1410	0	27.118	0	616.657	0	-1e10	8	-1e10	8	-1E+10	1	-1E+10	1	-1E+10	1	-1E+10	1	-1E+10	1	-1E+10	1
4902554	79	C	04/15/2023	08:10	-132.748	47.817	0	627.80	0	3.8810	0	34.1440	0	27.122	0	621.600	0	-1e10	8	-1e10	8	-1E+10	1	-1E+10	1	-1E+10	1	-1E+10	1	-1E+10	1	-1E+10	1
4902554	79	C	04/15/2023	08:10	-132.748	47.817	0	632.90	0	3.8710	0	34.1480	0	27.126	0	626.642	0	-1e10	8	-1e10	8	-1E+10	1	-1E+10	1	-1E+10	1	-1E+10	1	-1E+10	1	-1E+10	1
4902554	79	C	04/15/2023	08:10	-132.748	47.817	0	638.10	0	3.8630	0	34.1500	0	27.129	0	631.783	0	-1e10	8	-1e10	8	-1E+10	1	-1E+10	1	-1E+10	1	-1E+10	1	-1E+10	1	-1E+10	1
4902554	79	C	04/15/2023	08:10	-132.748	47.817	0	642.90	0	3.8560	0	34.1530	0	27.132	0	636.528	0	-1e10	8	-1e10	8	-1E+10	1	-1E+10	1	-1E+10	1	-1E+10	1	-1E+10	1	-1E+10	1
4902554	79	C	04/15/2023	08:10	-132.748	47.817	0	647.80	0	3.8410	0	34.1580	0	27.137	0	641.372	0	-1e10	8	-1e10	8	-1E+10	1	-1E+10	1	-1E+10	1	-1E+10	1	-1E+10	1	-1E+10	1
4902554	79	C	04/15/2023	08:10	-132.748	47.817	0	652.70	0	3.8300	0	34.1620	0	27.142	0	646.216	0	-1e10	8	-1e10	8	-1E+10	1	-1E+10	1	-1E+10	1	-1E+10	1	-1E+10	1	-1E+10	1
4902554	79	C	04/15/2023	08:10	-132.748	47.817	0	657.70	0	3.8190	0	34.1660	0	27.146	0	651.158	0	-1e10	8	-1e10	8	-1E+10	1	-1E+10	1	-1E+10	1	-1E+10	1	-1E+10	1	-1E+10	1
4902554	79	C	04/15/2023	08:10	-132.748	47.817	0	662.80	0	3.8090	0	34.1690	0	27.149	0	656.199	0	-1e10	8	-1e10	8	-1E+10	1	-1E+10	1	-1E+10	1	-1E+10	1	-1E+10	1	-1E+10	1
4902554	79	C	04/15/2023	08:10	-132.748	47.817	0	668.00	0	3.7940	0	34.1740	0	27.155	0	661.339	0	-1e10	8	-1e10	8	-1E+10	1	-1E+10	1	-1E+10	1	-1E+10	1	-1E+10	1	-1E+10	1
4902554	79	C	04/15/2023	08:10	-132.748	47.817	0	673.20	0	3.7850	0	34.1780	0	27.159	0	666.479	0	-1e10	8	-1e10	8	-1E+10	1	-1E+10	1	-1E+10	1	-1E+10	1	-1E+10	1	-1E+10	1
4902554	79	C	04/15/2023	08:10	-132.748	47.817	0	677.90	0	3.7760	0	34.1810	0	27.162	0	671.125	0	-1e10	8	-1e10	8	-1E+10	1	-1E+10	1	-1E+10	1	-1E+10	1	-1E+10	1	-1E+10	1
4902554	79	C	04/15/2023	08:10	-132.748	47.817	0	682.90	0	3.7630	0	34.1870	0	27.168	0	676.067	0	-1e10	8	-1e10	8	-1E+10	1	-1E+10	1	-1E+10	1	-1E+10	1	-1E+10	1	-1E+10	1
4902554	79	C	04/15/2023	08:10	-132.748	47.817	0	688.00	0	3.7510	0	34.1910	0	27.173	0	681.107	0	-1e10	8	-1e10	8	-1E+10	1	-1E+10	1	-1E+10	1	-1E+10	1	-1E+10	1	-1E+10	1
4902554	79	C	04/15/2023	08:10	-132.748	47.817	0	692.90	0	3.7400	0	34.1940	0	27.176	0	685.950	0	-1e10	8	-1e10	8	-1E+10	1	-1E+10	1	-1E+10	1	-1E+10	1	-1E+10	1	-1E+10	1
4902554	79	C	04/15/2023	08:10	-132.748	47.817	0	697.80	0	3.7370	0	34.1950	0	27.177	0	690.793	0	-1e10	8	-1e10	8	-1E+10	1	-1E+10	1	-1E+10	1	-1E+10	1	-1E+10	1	-1E+10	1
4902554	79	C	04/15/2023	08:10	-132.748	47.817	0	702.70	0	3.7310	0	34.1960	0	27.179	0	695.635	0	-1e10	8	-1e10	8	-1E+10	1	-1E+10	1	-1E+10	1	-1E+10	1	-1E+10	1	-1E+10	1
4902554	79	C	04/15/2023	08:10	-132.748	47.817	0	707.70	0	3.7120	0	34.2010	0	27.185	0	700.577	0	-1e10	8	-1e10	8	-1E+10	1	-1E+10	1	-1E+10	1	-1E+10	1	-1E+10	1	-1E+10	1
4902554	79	C	04/15/2023	08:10	-132.748	47.817	0	712.80	0	3.6940	0	34.2060	0	27.190	0	705.617	0	-1e10	8	-1e10	8	-1E+10	1	-1E+10	1	-1E+10	1	-1E+10	1	-1E+10	1	-1E+10	1
4902554	79	C	04/15/2023	08:10	-132.748	47.817	0	717.80	0	3.6780	0	34.2110	0	27.196	0	710.558	0	-1e10	8	-1e10	8	-1E+10	1	-1E+10	1	-1E+10	1	-1E+10	1	-1E+10	1	-1E+10	1
4902554	79	C	04/15/2023	08:10	-132.748	47.817	0	723.00	0	3.6620	0	34.2160	0	27.202	0	715.696	0	-1e10	8	-1e10	8	-1E+10	1	-1E+10	1	-1E+10	1	-1E+10	1	-1E+10	1	-1E+10	1
4902554	79	C	04/15/2023	08:10	-132.748	47.817	0	728.10	0	3.6550	0	34.2190	0	27.205	0	720.736	0	-1e10	8	-1e10	8	-1E+10	1	-1E+10	1	-1E+10	1	-1E+10	1	-1E+10	1	-1E+10	1
4902554	79	C	04/15/2023	08:10	-132.748	47.817	0	732.90	0	3.6440	0	34.2220	0	27.208	0	725.479	0	-1e10	8	-1e10	8	-1E+10	1	-1E+10	1	-1E+10	1	-1E+10	1	-1E+10	1	-1E+10	1
4902554	79	C	04/15/2023	08:10	-132.748	47.817	0	737.60	0	3.6320	0	34.2260	0	27.213	0	730.123	0	-1e10	8	-1e10	8	-1E+10	1	-1E+10	1	-1E+10	1	-1E+10	1	-1E+10	1	-1E+10	1
4902554	79	C	04/15/2023	08:10	-132.748	47.817	0	742.80	0	3.6250	0	34.2280	0	27.215	0	735.262	0	-1e10	8	-1e10	8	-1E+10	1	-1E+10	1	-1E+10	1	-1E+10	1	-1E+10	1	-1E+10	1
4902554	79	C	04/15/2023	08:10	-132.748	47.817	0	748.00	0	3.6240	0	34.2280	0	27.215	0	740.400	0	-1e10	8	-1e10	8	-1E+10	1	-1E+10	1	-1E+10	1	-1E+10	1	-1E+10	1	-1E+10	1
4902554	79	C	04/15/2023	08:10	-132.748	47.817	0	752.90	0	3.6170	0	34.2300	0	27.217	0	745.241	0	-1e10	8	-1e10	8	-1E+10	1	-1E+10	1	-1E+10	1	-1E+10	1	-1E+10	1	-1E+10	1
4902554	79	C	04/15/2023	08:10	-132.748	47.817	0	757.90	0	3.5920	0	34.2370	0	27.225	0	750.181	0	-1e10	8	-1e10	8	-1E+10	1	-1E+10	1	-1E+10	1	-1E+10	1	-1E+10	1	-1E+10	1
4902554	79	C	04/15/2023	08:10	-132.748	47.817	0	762.90	0	3.5680	0	34.2430	0	27.233	0	755.121	0	-1e10	8	-1e10	8	-1E+10	1	-1E+10	1	-1E+10	1	-1E+10	1	-1E+10	1	-1E+10	1
4902554	79	C	04/15/2023	08:10	-132.748	47.817	0	767.90	0	3.5490	0	34.2480	0	27.238	0	760.061	0	-1e10	8	-1e10	8	-1E+10	1	-1E+10	1	-1E+10	1	-1E+10	1	-1E+10	1	-1E+10	1
4902554	79	C	04/15/2023	08:10	-132.748	47.817	0	773.00	0	3.5370	0	34.2520	0	27.243	0	765.100	0	-1e10	8	-1e10	8	-1E+10	1	-1E+10	1	-1E+10	1	-1E+10	1	-1E+10	1	-1E+10	1
4902554	79	C	04/15/2023	08:10	-132.748	47.817	0	777.60	0	3.5250	0	34.2560	0	27.247	0	769.644	0	-1e10	8	-1e10	8	-1E+10	1	-1E+10	1	-1E+10	1	-1E+10	1	-1E+10	1	-1E+10	1
4902554	79	C	04/15/2023	08:10	-132.748	47.817	0	782.80	0	3.5200	0	34.2560	0	27.248	0	774.781	0	-1e10	8	-1e10	8	-1E+10	1	-1E+10	1	-1E+10	1	-1E+10	1	-1E+10	1	-1E+10	1
4902554	79	C	04/15/2023	08:10	-132.748	47.817	0	787.90	0	3.5040	0	34.2610	0	27.253	0	779.820	0	-1e10	8	-1e10	8	-1E+10	1	-1E+10	1	-1E+10	1	-1E+10	1	-1E+10	1	-1E+10	1
4902554	79	C	04/15/2023	08:10	-132.748	47.817	0	793.00	0	3.4870	0	34.2650	0	27.258	0	784.858	0	-1e10	8	-1e10	8	-1E+10	1	-1E+10	1	-1E+10	1	-1E+10	1	-1E+10	1	-1E+10	1
4902554	79	C	04/15/2023	08:10	-132.748	47.817	0	798.20	0	3.4760	0	34.2670	0	27.261	0	789.995	0	-1e10	8	-1e10	8	-1E+10	1	-1E+10	1	-1E+10	1	-1E+10	1	-1E+10	1	-1E+10	1
4902554	79	C	04/15/2023	08:10	-132.748	47.817	0	802.80	0	3.4680	0	34.2690	0	27.263	0	794.538	0	-1e10	8	-1e10	8	-1E+10	1	-1E+10	1	-1E+10	1	-1E+10	1	-1E+10	1	-1E+10	1
4902554	79	C	04/15/2023	08:10	-132.748	47.817	0	807.90	0	3.4570	0	34.2720	0	27.267	0	799.576	0	-1e10	8	-1e10	8	-1E+10	1	-1E+10	1	-1E+10	1	-1E+10	1	-1E+10	1	-1E+10	1
4902554	79	C	04/15/2023	08:10	-132.748	47.817	0	813.00	0	3.4490	0	34.2740	0	27.269	0	804.614	0	-1e10	8	-1e10	8	-1E+10	1	-1E+10	1	-1E+10	1	-1E+10	1	-1E+10	1	-1E+10	1
4902554	79	C	04/15/2023	08:10	-132.748	47.817	0	817.70	0	3.4390	0	34.2770	0	27.272	0	809.256	0	-1e10	8	-1e10	8	-1E+10	1	-1E+10	1	-1E+10	1	-1E+10	1	-1E+10	1	-1E+10	1
4902554	79	C	04/15/2023	08:10	-132.748	47.817	0	822.80	0	3.4280	0	34.2800	0	27.276	0	814.294	0	-1e10	8	-1e10	8	-1E+10	1	-1E+10	1	-1E+10	1	-1E+10	1	-1E+10	1	-1E+10	1
4902554	79	C	04/15/2023	08:10	-132.748	47.817	0	827.90	0	3.4130	0	34.2830	0	27.280	0	819.331	0	-1e10	8	-1e10	8	-1E+10	1	-1E+10	1	-1E+10	1	-1E+10	1	-1E+10	1	-1E+10	1
4902554	79	C	04/15/2023	08:10	-132.748	47.817	0	833.00	0	3.4060	0	34.2850	0	27.282	0	824.368	0	-1e10	8	-1e10	8	-1E+10	1	-1E+10	1	-1E+10	1	-1E+10	1	-1E+10	1	-1E+10	1
4902554	79	C	04/15/2023	08:10	-132.748	47.817	0	838.10	0	3.3960	0	34.2870	0	27.285	0	829.405	0	-1e10	8	-1e10	8	-1E+10	1	-1E+10	1	-1E+10	1	-1E+10	1	-1E+10	1	-1E+10	1
4902554	79	C	04/15/2023	08:10	-132.748	47.817	0	843.00	0	3.3880	0	34.2890	0	27.287	0	834.245	0	-1e10	8	-1e10	8	-1E+10	1	-1E+10	1	-1E+10	1	-1E+10	1	-1E+10	1	-1E+10	1
4902554	79	C	04/15/2023	08:10	-132.748	47.817	0	848.00	0	3.3800	0	34.2910	0	27.289	0	839.183	0	-1e10	8	-1e10	8	-1E+10	1	-1E+10	1	-1E+10	1	-1E+10	1	-1E+10	1	-1E+10	1
4902554	79	C	04/15/2023	08:10	-132.748	47.817	0	852.90	0	3.3750	0	34.2930	0	27.291	0	844.022	0	-1e10	8	-1e10	8	-1E+10	1	-1E+10	1	-1E+10	1	-1E+10	1	-1E+10	1	-1E+10	1
4902554	79	C	04/15/2023	08:10	-132.748	47.817	0	857.80	0	3.3630	0	34.2950	0	27.294	0	848.861	0	-1e10	8	-1e10	8	-1E+10	1	-1E+10	1	-1E+10	1	-1E+10	1	-1E+10	1	-1E+10	1
4902554	79	C	04/15/2023	08:10	-132.748	47.817	0	862.70	0	3.3540	0	34.2970	0	27.297	0	853.700	0	-1e10	8	-1e10	8	-1E+10	1	-1E+10	1	-1E+10	1	-1E+10	1	-1E+10	1	-1E+10	1
4902554	79	C	04/15/2023	08:10	-132.748	47.817	0	868.10	0	3.3400	0	34.3000	0	27.300	0	859.032	0	-1e10	8	-1e10	8	-1E+10	1	-1E+10	1	-1E+10	1	-1E+10	1	-1E+10	1	-1E+10	1
4902554	79	C	04/15/2023	08:10	-132.748	47.817	0	873.10	0	3.3220	0	34.3050	0	27.306	0	863.970	0	-1e10	8	-1e10	8	-1E+10	1	-1E+10	1	-1E+10	1	-1E+10	1	-1E+10	1	-1E+10	1
4902554	79	C	04/15/2023	08:10	-132.748	47.817	0	877.70	0	3.3170	0	34.3060	0	27.307	0	868.512	0	-1e10	8	-1e10	8	-1E+10	1	-1E+10	1	-1E+10	1	-1E+10	1	-1E+10	1	-1E+10	1
4902554	79	C	04/15/2023	08:10	-132.748	47.817	0	882.80	0	3.3120	0	34.3070	0	27.309	0	873.548	0	-1e10	8	-1e10	8	-1E+10	1	-1E+10	1	-1E+10	1	-1E+10	1	-1E+10	1	-1E+10	1
4902554	79	C	04/15/2023	08:10	-132.748	47.817	0	887.90	0	3.3000	0	34.3100	0	27.312	0	878.584	0	-1e10	8	-1e10	8	-1E+10	1	-1E+10	1	-1E+10	1	-1E+10	1	-1E+10	1	-1E+10	1
4902554	79	C	04/15/2023	08:10	-132.748	47.817	0	892.70	0	3.2920	0	34.3120	0	27.315	0	883.323	0	-1e10	8	-1e10	8	-1E+10	1	-1E+10	1	-1E+10	1	-1E+10	1	-1E+10	1	-1E+10	1
4902554	79	C	04/15/2023	08:10	-132.748	47.817	0	897.90	0	3.2820	0	34.3140	0	27.317	0	888.458	0	-1e10	8	-1e10	8	-1E+10	1	-1E+10	1	-1E+10	1	-1E+10	1	-1E+10	1	-1E+10	1
4902554	79	C	04/15/2023	08:10	-132.748	47.817	0	903.10	0	3.2690	0	34.3170	0	27.321	0	893.592	0	-1e10	8	-1e10	8	-1E+10	1	-1E+10	1	-1E+10	1	-1E+10	1	-1E+10	1	-1E+10	1
4902554	79	C	04/15/2023	08:10	-132.748	47.817	0	907.80	0	3.2540	0	34.3210	0	27.325	0	898.232	0	-1e10	8	-1e10	8	-1E+10	1	-1E+10	1	-1E+10	1	-1E+10	1	-1E+10	1	-1E+10	1
4902554	79	C	04/15/2023	08:10	-132.748	47.817	0	912.60	0	3.2440	0	34.3230	0	27.328	0	902.971	0	-1e10	8	-1e10	8	-1E+10	1	-1E+10	1	-1E+10	1	-1E+10	1	-1E+10	1	-1E+10	1
4902554	79	C	04/15/2023	08:10	-132.748	47.817	0	917.90	0	3.2290	0	34.3260	0	27.332	0	908.204	0	-1e10	8	-1e10	8	-1E+10	1	-1E+10	1	-1E+10	1	-1E+10	1	-1E+10	1	-1E+10	1
4902554	79	C	04/15/2023	08:10	-132.748	47.817	0	923.30	0	3.2190	0	34.3290	0	27.335	0	913.535	0	-1e10	8	-1e10	8	-1E+10	1	-1E+10	1	-1E+10	1	-1E+10	1	-1E+10	1	-1E+10	1
4902554	79	C	04/15/2023	08:10	-132.748	47.817	0	928.10	0	3.2110	0	34.3310	0	27.338	0	918.274	0	-1e10	8	-1e10	8	-1E+10	1	-1E+10	1	-1E+10	1	-1E+10	1	-1E+10	1	-1E+10	1
4902554	79	C	04/15/2023	08:10	-132.748	47.817	0	933.10	0	3.2040	0	34.3320	0	27.339	0	923.210	0	-1e10	8	-1e10	8	-1E+10	1	-1E+10	1	-1E+10	1	-1E+10	1	-1E+10	1	-1E+10	1
4902554	79	C	04/15/2023	08:10	-132.748	47.817	0	938.00	0	3.1920	0	34.3350	0	27.343	0	928.047	0	-1e10	8	-1e10	8	-1E+10	1	-1E+10	1	-1E+10	1	-1E+10	1	-1E+10	1	-1E+10	1
4902554	79	C	04/15/2023	08:10	-132.748	47.817	0	943.10	0	3.1840	0	34.3370	0	27.345	0	933.082	0	-1e10	8	-1e10	8	-1E+10	1	-1E+10	1	-1E+10	1	-1E+10	1	-1E+10	1	-1E+10	1
4902554	79	C	04/15/2023	08:10	-132.748	47.817	0	947.90	0	3.1760	0	34.3390	0	27.347	0	937.820	0	-1e10	8	-1e10	8	-1E+10	1	-1E+10	1	-1E+10	1	-1E+10	1	-1E+10	1	-1E+10	1
4902554	79	C	04/15/2023	08:10	-132.748	47.817	0	953.00	0	3.1690	0	34.3400	0	27.349	0	942.854	0	-1e10	8	-1e10	8	-1E+10	1	-1E+10	1	-1E+10	1	-1E+10	1	-1E+10	1	-1E+10	1
4902554	79	C	04/15/2023	08:10	-132.748	47.817	0	958.20	0	3.1610	0	34.3430	0	27.352	0	947.987	0	-1e10	8	-1e10	8	-1E+10	1	-1E+10	1	-1E+10	1	-1E+10	1	-1E+10	1	-1E+10	1
4902554	79	C	04/15/2023	08:10	-132.748	47.817	0	963.10	0	3.1540	0	34.3440	0	27.353	0	952.824	0	-1e10	8	-1e10	8	-1E+10	1	-1E+10	1	-1E+10	1	-1E+10	1	-1E+10	1	-1E+10	1
4902554	79	C	04/15/2023	08:10	-132.748	47.817	0	967.70	0	3.1370	0	34.3480	0	27.358	0	957.364	0	-1e10	8	-1e10	8	-1E+10	1	-1E+10	1	-1E+10	1	-1E+10	1	-1E+10	1	-1E+10	1
4902554	79	C	04/15/2023	08:10	-132.748	47.817	0	972.90	0	3.1340	0	34.3490	0	27.359	0	962.497	0	-1e10	8	-1e10	8	-1E+10	1	-1E+10	1	-1E+10	1	-1E+10	1	-1E+10	1	-1E+10	1
4902554	79	C	04/15/2023	08:10	-132.748	47.817	0	978.10	0	3.1240	0	34.3510	0	27.362	0	967.629	0	-1e10	8	-1e10	8	-1E+10	1	-1E+10	1	-1E+10	1	-1E+10	1	-1E+10	1	-1E+10	1
4902554	79	C	04/15/2023	08:10	-132.748	47.817	0	982.90	0	3.1070	0	34.3550	0	27.367	0	972.367	0	-1e10	8	-1e10	8	-1E+10	1	-1E+10	1	-1E+10	1	-1E+10	1	-1E+10	1	-1E+10	1
4902554	79	C	04/15/2023	08:10	-132.748	47.817	0	987.70	0	3.1020	0	34.3570	0	27.369	0	977.104	0	-1e10	8	-1e10	8	-1E+10	1	-1E+10	1	-1E+10	1	-1E+10	1	-1E+10	1	-1E+10	1
4902554	79	C	04/15/2023	08:10	-132.748	47.817	0	993.00	0	3.0980	0	34.3580	0	27.370	0	982.335	0	-1e10	8	-1e10	8	-1E+10	1	-1E+10	1	-1E+10	1	-1E+10	1	-1E+10	1	-1E+10	1
4902554	79	C	04/15/2023	08:10	-132.748	47.817	0	998.30	0	3.0950	0	34.3580	0	27.370	0	987.565	0	-1e10	8	-1e10	8	-1E+10	1	-1E+10	1	-1E+10	1	-1E+10	1	-1E+10	1	-1E+10	1
4902554	79	C	04/15/2023	08:10	-132.748	47.817	0	1005.40	0	3.0840	0	34.3620	0	27.374	0	994.572	0	-1e10	8	-1e10	8	-1E+10	1	-1E+10	1	-1E+10	1	-1E+10	1	-1E+10	1	-1E+10	1
4902554	79	C	04/15/2023	08:10	-132.748	47.817	0	1015.60	0	3.0640	0	34.3660	0	27.380	0	1004.638	0	-1e10	8	-1e10	8	-1E+10	1	-1E+10	1	-1E+10	1	-1E+10	1	-1E+10	1	-1E+10	1
4902554	79	C	04/15/2023	08:10	-132.748	47.817	0	1025.70	0	3.0460	0	34.3710	0	27.385	0	1014.604	0	-1e10	8	-1e10	8	-1E+10	1	-1E+10	1	-1E+10	1	-1E+10	1	-1E+10	1	-1E+10	1
4902554	79	C	04/15/2023	08:10	-132.748	47.817	0	1035.50	0	3.0150	0	34.3770	0	27.393	0	1024.274	0	-1e10	8	-1e10	8	-1E+10	1	-1E+10	1	-1E+10	1	-1E+10	1	-1E+10	1	-1E+10	1
4902554	79	C	04/15/2023	08:10	-132.748	47.817	0	1045.40	0	3.0000	0	34.3800	0	27.397	0	1034.043	0	-1e10	8	-1e10	8	-1E+10	1	-1E+10	1	-1E+10	1	-1E+10	1	-1E+10	1	-1E+10	1
4902554	79	C	04/15/2023	08:10	-132.748	47.817	0	1055.20	0	2.9770	0	34.3860	0	27.404	0	1043.712	0	-1e10	8	-1e10	8	-1E+10	1	-1E+10	1	-1E+10	1	-1E+10	1	-1E+10	1	-1E+10	1
4902554	79	C	04/15/2023	08:10	-132.748	47.817	0	1065.20	0	2.9520	0	34.3920	0	27.411	0	1053.578	0	-1e10	8	-1e10	8	-1E+10	1	-1E+10	1	-1E+10	1	-1E+10	1	-1E+10	1	-1E+10	1
4902554	79	C	04/15/2023	08:10	-132.748	47.817	0	1075.40	0	2.9180	0	34.4000	0	27.420	0	1063.641	0	-1e10	8	-1e10	8	-1E+10	1	-1E+10	1	-1E+10	1	-1E+10	1	-1E+10	1	-1E+10	1
4902554	79	C	04/15/2023	08:10	-132.748	47.817	0	1085.20	0	2.8920	0	34.4050	0	27.426	0	1073.309	0	-1e10	8	-1e10	8	-1E+10	1	-1E+10	1	-1E+10	1	-1E+10	1	-1E+10	1	-1E+10	1
4902554	79	C	04/15/2023	08:10	-132.748	47.817	0	1095.50	0	2.8780	0	34.4070	0	27.429	0	1083.469	0	-1e10	8	-1e10	8	-1E+10	1	-1E+10	1	-1E+10	1	-1E+10	1	-1E+10	1	-1E+10	1
4902554	79	C	04/15/2023	08:10	-132.748	47.817	0	1105.90	0	2.8620	0	34.4110	0	27.434	0	1093.728	0	-1e10	8	-1e10	8	-1E+10	1	-1E+10	1	-1E+10	1	-1E+10	1	-1E+10	1	-1E+10	1
4902554	79	C	04/15/2023	08:10	-132.748	47.817	0	1115.80	0	2.8510	0	34.4130	0	27.437	0	1103.493	0	-1e10	8	-1e10	8	-1E+10	1	-1E+10	1	-1E+10	1	-1E+10	1	-1E+10	1	-1E+10	1
4902554	79	C	04/15/2023	08:10	-132.748	47.817	0	1125.60	0	2.8300	0	34.4180	0	27.443	0	1113.159	0	-1e10	8	-1e10	8	-1E+10	1	-1E+10	1	-1E+10	1	-1E+10	1	-1E+10	1	-1E+10	1
4902554	79	C	04/15/2023	08:10	-132.748	47.817	0	1135.20	0	2.8180	0	34.4200	0	27.445	0	1122.627	0	-1e10	8	-1e10	8	-1E+10	1	-1E+10	1	-1E+10	1	-1E+10	1	-1E+10	1	-1E+10	1
4902554	79	C	04/15/2023	08:10	-132.748	47.817	0	1145.20	0	2.8160	0	34.4230	0	27.448	0	1132.489	0	-1e10	8	-1e10	8	-1E+10	1	-1E+10	1	-1E+10	1	-1E+10	1	-1E+10	1	-1E+10	1
4902554	79	C	04/15/2023	08:10	-132.748	47.817	0	1155.30	0	2.7930	0	34.4270	0	27.453	0	1142.450	0	-1e10	8	-1e10	8	-1E+10	1	-1E+10	1	-1E+10	1	-1E+10	1	-1E+10	1	-1E+10	1
4902554	79	C	04/15/2023	08:10	-132.748	47.817	0	1165.40	0	2.7730	0	34.4310	0	27.458	0	1152.410	0	-1e10	8	-1e10	8	-1E+10	1	-1E+10	1	-1E+10	1	-1E+10	1	-1E+10	1	-1E+10	1
4902554	79	C	04/15/2023	08:10	-132.748	47.817	0	1175.30	0	2.7530	0	34.4320	0	27.461	0	1162.172	0	-1e10	8	-1e10	8	-1E+10	1	-1E+10	1	-1E+10	1	-1E+10	1	-1E+10	1	-1E+10	1
4902554	79	C	04/15/2023	08:10	-132.748	47.817	0	1185.70	0	2.7310	0	34.4360	0	27.466	0	1172.427	0	-1e10	8	-1e10	8	-1E+10	1	-1E+10	1	-1E+10	1	-1E+10	1	-1E+10	1	-1E+10	1
4902554	79	C	04/15/2023	08:10	-132.748	47.817	0	1195.60	0	2.7120	0	34.4390	0	27.470	0	1182.188	0	-1e10	8	-1e10	8	-1E+10	1	-1E+10	1	-1E+10	1	-1E+10	1	-1E+10	1	-1E+10	1
4902554	79	C	04/15/2023	08:10	-132.748	47.817	0	1205.60	0	2.6990	0	34.4430	0	27.474	0	1192.048	0	-1e10	8	-1e10	8	-1E+10	1	-1E+10	1	-1E+10	1	-1E+10	1	-1E+10	1	-1E+10	1
4902554	79	C	04/15/2023	08:10	-132.748	47.817	0	1215.70	0	2.6910	0	34.4460	0	27.478	0	1202.005	0	-1e10	8	-1e10	8	-1E+10	1	-1E+10	1	-1E+10	1	-1E+10	1	-1E+10	1	-1E+10	1
4902554	79	C	04/15/2023	08:10	-132.748	47.817	0	1225.40	0	2.6810	0	34.4480	0	27.480	0	1211.568	0	-1e10	8	-1e10	8	-1E+10	1	-1E+10	1	-1E+10	1	-1E+10	1	-1E+10	1	-1E+10	1
4902554	79	C	04/15/2023	08:10	-132.748	47.817	0	1235.30	0	2.6640	0	34.4500	0	27.483	0	1221.328	0	-1e10	8	-1e10	8	-1E+10	1	-1E+10	1	-1E+10	1	-1E+10	1	-1E+10	1	-1E+10	1
4902554	79	C	04/15/2023	08:10	-132.748	47.817	0	1245.60	0	2.6590	0	34.4520	0	27.485	0	1231.481	0	-1e10	8	-1e10	8	-1E+10	1	-1E+10	1	-1E+10	1	-1E+10	1	-1E+10	1	-1E+10	1
4902554	79	C	04/15/2023	08:10	-132.748	47.817	0	1255.30	0	2.6500	0	34.4540	0	27.488	0	1241.043	0	-1e10	8	-1e10	8	-1E+10	1	-1E+10	1	-1E+10	1	-1E+10	1	-1E+10	1	-1E+10	1
4902554	79	C	04/15/2023	08:10	-132.748	47.817	0	1265.10	0	2.6350	0	34.4560	0	27.491	0	1250.702	0	-1e10	8	-1e10	8	-1E+10	1	-1E+10	1	-1E+10	1	-1E+10	1	-1E+10	1	-1E+10	1
4902554	79	C	04/15/2023	08:10	-132.748	47.817	0	1275.30	0	2.6230	0	34.4580	0	27.493	0	1260.756	0	-1e10	8	-1e10	8	-1E+10	1	-1E+10	1	-1E+10	1	-1E+10	1	-1E+10	1	-1E+10	1
4902554	79	C	04/15/2023	08:10	-132.748	47.817	0	1285.60	0	2.6130	0	34.4600	0	27.496	0	1270.907	0	-1e10	8	-1e10	8	-1E+10	1	-1E+10	1	-1E+10	1	-1E+10	1	-1E+10	1	-1E+10	1
4902554	79	C	04/15/2023	08:10	-132.748	47.817	0	1295.40	0	2.6010	0	34.4620	0	27.499	0	1280.565	0	-1e10	8	-1e10	8	-1E+10	1	-1E+10	1	-1E+10	1	-1E+10	1	-1E+10	1	-1E+10	1
4902554	79	C	04/15/2023	08:10	-132.748	47.817	0	1305.30	0	2.5880	0	34.4630	0	27.501	0	1290.322	0	-1e10	8	-1e10	8	-1E+10	1	-1E+10	1	-1E+10	1	-1E+10	1	-1E+10	1	-1E+10	1
4902554	79	C	04/15/2023	08:10	-132.748	47.817	0	1315.30	0	2.5630	0	34.4650	0	27.504	0	1300.176	0	-1e10	8	-1e10	8	-1E+10	1	-1E+10	1	-1E+10	1	-1E+10	1	-1E+10	1	-1E+10	1
4902554	79	C	04/15/2023	08:10	-132.748	47.817	0	1325.40	0	2.5430	0	34.4690	0	27.509	0	1310.129	0	-1e10	8	-1e10	8	-1E+10	1	-1E+10	1	-1E+10	1	-1E+10	1	-1E+10	1	-1E+10	1
4902554	79	C	04/15/2023	08:10	-132.748	47.817	0	1335.60	0	2.5330	0	34.4720	0	27.513	0	1320.179	0	-1e10	8	-1e10	8	-1E+10	1	-1E+10	1	-1E+10	1	-1E+10	1	-1E+10	1	-1E+10	1
4902554	79	C	04/15/2023	08:10	-132.748	47.817	0	1345.50	0	2.5270	0	34.4750	0	27.515	0	1329.934	0	-1e10	8	-1e10	8	-1E+10	1	-1E+10	1	-1E+10	1	-1E+10	1	-1E+10	1	-1E+10	1
4902554	79	C	04/15/2023	08:10	-132.748	47.817	0	1355.30	0	2.5080	0	34.4770	0	27.519	0	1339.589	0	-1e10	8	-1e10	8	-1E+10	1	-1E+10	1	-1E+10	1	-1E+10	1	-1E+10	1	-1E+10	1
4902554	79	C	04/15/2023	08:10	-132.748	47.817	0	1365.40	0	2.4950	0	34.4790	0	27.521	0	1349.540	0	-1e10	8	-1e10	8	-1E+10	1	-1E+10	1	-1E+10	1	-1E+10	1	-1E+10	1	-1E+10	1
4902554	79	C	04/15/2023	08:10	-132.748	47.817	0	1375.80	0	2.4840	0	34.4820	0	27.525	0	1359.785	0	-1e10	8	-1e10	8	-1E+10	1	-1E+10	1	-1E+10	1	-1E+10	1	-1E+10	1	-1E+10	1
4902554	79	C	04/15/2023	08:10	-132.748	47.817	0	1385.40	0	2.4720	0	34.4850	0	27.528	0	1369.242	0	-1e10	8	-1e10	8	-1E+10	1	-1E+10	1	-1E+10	1	-1E+10	1	-1E+10	1	-1E+10	1
4902554	79	C	04/15/2023	08:10	-132.748	47.817	0	1395.30	0	2.4580	0	34.4870	0	27.531	0	1378.995	0	-1e10	8	-1e10	8	-1E+10	1	-1E+10	1	-1E+10	1	-1E+10	1	-1E+10	1	-1E+10	1
4902554	79	C	04/15/2023	08:10	-132.748	47.817	0	1405.10	0	2.4410	0	34.4890	0	27.534	0	1388.648	0	-1e10	8	-1e10	8	-1E+10	1	-1E+10	1	-1E+10	1	-1E+10	1	-1E+10	1	-1E+10	1
4902554	79	C	04/15/2023	08:10	-132.748	47.817	0	1415.10	0	2.4280	0	34.4920	0	27.538	0	1398.498	0	-1e10	8	-1e10	8	-1E+10	1	-1E+10	1	-1E+10	1	-1E+10	1	-1E+10	1	-1E+10	1
4902554	79	C	04/15/2023	08:10	-132.748	47.817	0	1425.20	0	2.4130	0	34.4950	0	27.541	0	1408.445	0	-1e10	8	-1e10	8	-1E+10	1	-1E+10	1	-1E+10	1	-1E+10	1	-1E+10	1	-1E+10	1
4902554	79	C	04/15/2023	08:10	-132.748	47.817	0	1435.30	0	2.4050	0	34.4970	0	27.544	0	1418.393	0	-1e10	8	-1e10	8	-1E+10	1	-1E+10	1	-1E+10	1	-1E+10	1	-1E+10	1	-1E+10	1
4902554	79	C	04/15/2023	08:10	-132.748	47.817	0	1445.40	0	2.3960	0	34.5000	0	27.547	0	1428.340	0	-1e10	8	-1e10	8	-1E+10	1	-1E+10	1	-1E+10	1	-1E+10	1	-1E+10	1	-1E+10	1
4902554	79	C	04/15/2023	08:10	-132.748	47.817	0	1455.40	0	2.3860	0	34.5010	0	27.549	0	1438.188	0	-1e10	8	-1e10	8	-1E+10	1	-1E+10	1	-1E+10	1	-1E+10	1	-1E+10	1	-1E+10	1
4902554	79	C	04/15/2023	08:10	-132.748	47.817	0	1465.60	0	2.3690	0	34.5040	0	27.552	0	1448.232	0	-1e10	8	-1e10	8	-1E+10	1	-1E+10	1	-1E+10	1	-1E+10	1	-1E+10	1	-1E+10	1
4902554	79	C	04/15/2023	08:10	-132.748	47.817	0	1475.20	0	2.3600	0	34.5060	0	27.555	0	1457.685	0	-1e10	8	-1e10	8	-1E+10	1	-1E+10	1	-1E+10	1	-1E+10	1	-1E+10	1	-1E+10	1
4902554	79	C	04/15/2023	08:10	-132.748	47.817	0	1485.30	0	2.3500	0	34.5080	0	27.557	0	1467.630	0	-1e10	8	-1e10	8	-1E+10	1	-1E+10	1	-1E+10	1	-1E+10	1	-1E+10	1	-1E+10	1
4902554	79	C	04/15/2023	08:10	-132.748	47.817	0	1495.30	0	2.3410	0	34.5090	0	27.559	0	1477.476	0	-1e10	8	-1e10	8	-1E+10	1	-1E+10	1	-1E+10	1	-1E+10	1	-1E+10	1	-1E+10	1
4902554	79	C	04/15/2023	08:10	-132.748	47.817	0	1505.20	0	2.3320	0	34.5110	0	27.561	0	1487.223	0	-1e10	8	-1e10	8	-1E+10	1	-1E+10	1	-1E+10	1	-1E+10	1	-1E+10	1	-1E+10	1
4902554	79	C	04/15/2023	08:10	-132.748	47.817	0	1515.40	0	2.3260	0	34.5120	0	27.563	0	1497.266	0	-1e10	8	-1e10	8	-1E+10	1	-1E+10	1	-1E+10	1	-1E+10	1	-1E+10	1	-1E+10	1
4902554	79	C	04/15/2023	08:10	-132.748	47.817	0	1525.70	0	2.3170	0	34.5140	0	27.565	0	1507.406	0	-1e10	8	-1e10	8	-1E+10	1	-1E+10	1	-1E+10	1	-1E+10	1	-1E+10	1	-1E+10	1
4902554	79	C	04/15/2023	08:10	-132.748	47.817	0	1535.70	0	2.3070	0	34.5160	0	27.568	0	1517.250	0	-1e10	8	-1e10	8	-1E+10	1	-1E+10	1	-1E+10	1	-1E+10	1	-1E+10	1	-1E+10	1
4902554	79	C	04/15/2023	08:10	-132.748	47.817	0	1545.70	0	2.3000	0	34.5170	0	27.569	0	1527.094	0	-1e10	8	-1e10	8	-1E+10	1	-1E+10	1	-1E+10	1	-1E+10	1	-1E+10	1	-1E+10	1
4902554	79	C	04/15/2023	08:10	-132.748	47.817	0	1555.60	0	2.2890	0	34.5190	0	27.572	0	1536.839	0	-1e10	8	-1e10	8	-1E+10	1	-1E+10	1	-1E+10	1	-1E+10	1	-1E+10	1	-1E+10	1
4902554	79	C	04/15/2023	08:10	-132.748	47.817	0	1565.60	0	2.2780	0	34.5210	0	27.574	0	1546.681	0	-1e10	8	-1e10	8	-1E+10	1	-1E+10	1	-1E+10	1	-1E+10	1	-1E+10	1	-1E+10	1
4902554	79	C	04/15/2023	08:10	-132.748	47.817	0	1575.70	0	2.2660	0	34.5230	0	27.577	0	1556.622	0	-1e10	8	-1e10	8	-1E+10	1	-1E+10	1	-1E+10	1	-1E+10	1	-1E+10	1	-1E+10	1
4902554	79	C	04/15/2023	08:10	-132.748	47.817	0	1585.60	0	2.2590	0	34.5250	0	27.579	0	1566.366	0	-1e10	8	-1e10	8	-1E+10	1	-1E+10	1	-1E+10	1	-1E+10	1	-1E+10	1	-1E+10	1
4902554	79	C	04/15/2023	08:10	-132.748	47.817	0	1595.60	0	2.2510	0	34.5260	0	27.580	0	1576.207	0	-1e10	8	-1e10	8	-1E+10	1	-1E+10	1	-1E+10	1	-1E+10	1	-1E+10	1	-1E+10	1
4902554	79	C	04/15/2023	08:10	-132.748	47.817	0	1605.40	0	2.2430	0	34.5280	0	27.583	0	1585.851	0	-1e10	8	-1e10	8	-1E+10	1	-1E+10	1	-1E+10	1	-1E+10	1	-1E+10	1	-1E+10	1
4902554	79	C	04/15/2023	08:10	-132.748	47.817	0	1615.20	0	2.2380	0	34.5290	0	27.584	0	1595.495	0	-1e10	8	-1e10	8	-1E+10	1	-1E+10	1	-1E+10	1	-1E+10	1	-1E+10	1	-1E+10	1
4902554	79	C	04/15/2023	08:10	-132.748	47.817	0	1625.50	0	2.2350	0	34.5300	0	27.585	0	1605.631	0	-1e10	8	-1e10	8	-1E+10	1	-1E+10	1	-1E+10	1	-1E+10	1	-1E+10	1	-1E+10	1
4902554	79	C	04/15/2023	08:10	-132.748	47.817	0	1635.50	0	2.2220	0	34.5320	0	27.588	0	1615.470	0	-1e10	8	-1e10	8	-1E+10	1	-1E+10	1	-1E+10	1	-1E+10	1	-1E+10	1	-1E+10	1
4902554	79	C	04/15/2023	08:10	-132.748	47.817	0	1645.10	0	2.2010	0	34.5360	0	27.593	0	1624.916	0	-1e10	8	-1e10	8	-1E+10	1	-1E+10	1	-1E+10	1	-1E+10	1	-1E+10	1	-1E+10	1
4902554	79	C	04/15/2023	08:10	-132.748	47.817	0	1655.00	0	2.1920	0	34.5380	0	27.595	0	1634.656	0	-1e10	8	-1e10	8	-1E+10	1	-1E+10	1	-1E+10	1	-1E+10	1	-1E+10	1	-1E+10	1
4902554	79	C	04/15/2023	08:10	-132.748	47.817	0	1665.20	0	2.1860	0	34.5390	0	27.596	0	1644.691	0	-1e10	8	-1e10	8	-1E+10	1	-1E+10	1	-1E+10	1	-1E+10	1	-1E+10	1	-1E+10	1
4902554	79	C	04/15/2023	08:10	-132.748	47.817	0	1675.50	0	2.1820	0	34.5400	0	27.598	0	1654.824	0	-1e10	8	-1e10	8	-1E+10	1	-1E+10	1	-1E+10	1	-1E+10	1	-1E+10	1	-1E+10	1
4902554	79	C	04/15/2023	08:10	-132.748	47.817	0	1685.40	0	2.1710	0	34.5420	0	27.600	0	1664.563	0	-1e10	8	-1e10	8	-1E+10	1	-1E+10	1	-1E+10	1	-1E+10	1	-1E+10	1	-1E+10	1
4902554	79	C	04/15/2023	08:10	-132.748	47.817	0	1695.30	0	2.1630	0	34.5430	0	27.602	0	1674.302	0	-1e10	8	-1e10	8	-1E+10	1	-1E+10	1	-1E+10	1	-1E+10	1	-1E+10	1	-1E+10	1
4902554	79	C	04/15/2023	08:10	-132.748	47.817	0	1705.40	0	2.1510	0	34.5460	0	27.605	0	1684.237	0	-1e10	8	-1e10	8	-1E+10	1	-1E+10	1	-1E+10	1	-1E+10	1	-1E+10	1	-1E+10	1
4902554	79	C	04/15/2023	08:10	-132.748	47.817	0	1715.20	0	2.1400	0	34.5470	0	27.607	0	1693.876	0	-1e10	8	-1e10	8	-1E+10	1	-1E+10	1	-1E+10	1	-1E+10	1	-1E+10	1	-1E+10	1
4902554	79	C	04/15/2023	08:10	-132.748	47.817	0	1725.20	0	2.1260	0	34.5500	0	27.610	0	1703.711	0	-1e10	8	-1e10	8	-1E+10	1	-1E+10	1	-1E+10	1	-1E+10	1	-1E+10	1	-1E+10	1
4902554	79	C	04/15/2023	08:10	-132.748	47.817	0	1735.20	0	2.1100	0	34.5530	0	27.614	0	1713.546	0	-1e10	8	-1e10	8	-1E+10	1	-1E+10	1	-1E+10	1	-1E+10	1	-1E+10	1	-1E+10	1
4902554	79	C	04/15/2023	08:10	-132.748	47.817	0	1745.20	0	2.1020	0	34.5550	0	27.616	0	1723.381	0	-1e10	8	-1e10	8	-1E+10	1	-1E+10	1	-1E+10	1	-1E+10	1	-1E+10	1	-1E+10	1
4902554	79	C	04/15/2023	08:10	-132.748	47.817	0	1755.50	0	2.0940	0	34.5560	0	27.618	0	1733.510	0	-1e10	8	-1e10	8	-1E+10	1	-1E+10	1	-1E+10	1	-1E+10	1	-1E+10	1	-1E+10	1
4902554	79	C	04/15/2023	08:10	-132.748	47.817	0	1765.60	0	2.0840	0	34.5580	0	27.620	0	1743.442	0	-1e10	8	-1e10	8	-1E+10	1	-1E+10	1	-1E+10	1	-1E+10	1	-1E+10	1	-1E+10	1
4902554	79	C	04/15/2023	08:10	-132.748	47.817	0	1775.40	0	2.0720	0	34.5600	0	27.623	0	1753.079	0	-1e10	8	-1e10	8	-1E+10	1	-1E+10	1	-1E+10	1	-1E+10	1	-1E+10	1	-1E+10	1
4902554	79	C	04/15/2023	08:10	-132.748	47.817	0	1785.30	0	2.0670	0	34.5620	0	27.625	0	1762.813	0	-1e10	8	-1e10	8	-1E+10	1	-1E+10	1	-1E+10	1	-1E+10	1	-1E+10	1	-1E+10	1
4902554	79	C	04/15/2023	08:10	-132.748	47.817	0	1795.40	0	2.0640	0	34.5620	0	27.625	0	1772.744	0	-1e10	8	-1e10	8	-1E+10	1	-1E+10	1	-1E+10	1	-1E+10	1	-1E+10	1	-1E+10	1
4902554	79	C	04/15/2023	08:10	-132.748	47.817	0	1805.30	0	2.0600	0	34.5630	0	27.626	0	1782.478	0	-1e10	8	-1e10	8	-1E+10	1	-1E+10	1	-1E+10	1	-1E+10	1	-1E+10	1	-1E+10	1
4902554	79	C	04/15/2023	08:10	-132.748	47.817	0	1815.70	0	2.0510	0	34.5650	0	27.629	0	1792.702	0	-1e10	8	-1e10	8	-1E+10	1	-1E+10	1	-1E+10	1	-1E+10	1	-1E+10	1	-1E+10	1
4902554	79	C	04/15/2023	08:10	-132.748	47.817	0	1825.70	0	2.0460	0	34.5660	0	27.630	0	1802.533	0	-1e10	8	-1e10	8	-1E+10	1	-1E+10	1	-1E+10	1	-1E+10	1	-1E+10	1	-1E+10	1
4902554	79	C	04/15/2023	08:10	-132.748	47.817	0	1835.70	0	2.0360	0	34.5680	0	27.632	0	1812.364	0	-1e10	8	-1e10	8	-1E+10	1	-1E+10	1	-1E+10	1	-1E+10	1	-1E+10	1	-1E+10	1
4902554	79	C	04/15/2023	08:10	-132.748	47.817	0	1845.40	0	2.0320	0	34.5690	0	27.634	0	1821.899	0	-1e10	8	-1e10	8	-1E+10	1	-1E+10	1	-1E+10	1	-1E+10	1	-1E+10	1	-1E+10	1
4902554	79	C	04/15/2023	08:10	-132.748	47.817	0	1855.20	0	2.0280	0	34.5700	0	27.635	0	1831.532	0	-1e10	8	-1e10	8	-1E+10	1	-1E+10	1	-1E+10	1	-1E+10	1	-1E+10	1	-1E+10	1
4902554	79	C	04/15/2023	08:10	-132.748	47.817	0	1865.50	0	2.0220	0	34.5710	0	27.636	0	1841.656	0	-1e10	8	-1e10	8	-1E+10	1	-1E+10	1	-1E+10	1	-1E+10	1	-1E+10	1	-1E+10	1
4902554	79	C	04/15/2023	08:10	-132.748	47.817	0	1875.40	0	2.0150	0	34.5720	0	27.638	0	1851.386	0	-1e10	8	-1e10	8	-1E+10	1	-1E+10	1	-1E+10	1	-1E+10	1	-1E+10	1	-1E+10	1
4902554	79	C	04/15/2023	08:10	-132.748	47.817	0	1885.40	0	2.0090	0	34.5730	0	27.639	0	1861.214	0	-1e10	8	-1e10	8	-1E+10	1	-1E+10	1	-1E+10	1	-1E+10	1	-1E+10	1	-1E+10	1
4902554	79	C	04/15/2023	08:10	-132.748	47.817	0	1895.60	0	2.0040	0	34.5740	0	27.640	0	1871.239	0	-1e10	8	-1e10	8	-1E+10	1	-1E+10	1	-1E+10	1	-1E+10	1	-1E+10	1	-1E+10	1
4902554	79	C	04/15/2023	08:10	-132.748	47.817	0	1905.50	0	2.0000	0	34.5750	0	27.641	0	1880.968	0	-1e10	8	-1e10	8	-1E+10	1	-1E+10	1	-1E+10	1	-1E+10	1	-1E+10	1	-1E+10	1
4902554	79	C	04/15/2023	08:10	-132.748	47.817	0	1915.50	0	1.9940	0	34.5770	0	27.643	0	1890.795	0	-1e10	8	-1e10	8	-1E+10	1	-1E+10	1	-1E+10	1	-1E+10	1	-1E+10	1	-1E+10	1
4902554	79	C	04/15/2023	08:10	-132.748	47.817	0	1925.40	0	1.9860	0	34.5780	0	27.645	0	1900.523	0	-1e10	8	-1e10	8	-1E+10	1	-1E+10	1	-1E+10	1	-1E+10	1	-1E+10	1	-1E+10	1
4902554	79	C	04/15/2023	08:10	-132.748	47.817	0	1935.40	0	1.9780	0	34.5800	0	27.647	0	1910.349	0	-1e10	8	-1e10	8	-1E+10	1	-1E+10	1	-1E+10	1	-1E+10	1	-1E+10	1	-1E+10	1
4902554	79	C	04/15/2023	08:10	-132.748	47.817	0	1945.70	0	1.9730	0	34.5810	0	27.648	0	1920.469	0	-1e10	8	-1e10	8	-1E+10	1	-1E+10	1	-1E+10	1	-1E+10	1	-1E+10	1	-1E+10	1
4902554	79	C	04/15/2023	08:10	-132.748	47.817	0	1955.50	0	1.9690	0	34.5820	0	27.650	0	1930.098	0	-1e10	8	-1e10	8	-1E+10	1	-1E+10	1	-1E+10	1	-1E+10	1	-1E+10	1	-1E+10	1
4902554	79	C	04/15/2023	08:10	-132.748	47.817	0	1965.40	0	1.9610	0	34.5830	0	27.651	0	1939.824	0	-1e10	8	-1e10	8	-1E+10	1	-1E+10	1	-1E+10	1	-1E+10	1	-1E+10	1	-1E+10	1
4902554	79	C	04/15/2023	08:10	-132.748	47.817	0	1975.40	0	1.9530	0	34.5840	0	27.652	0	1949.648	0	-1e10	8	-1e10	8	-1E+10	1	-1E+10	1	-1E+10	1	-1E+10	1	-1E+10	1	-1E+10	1
4902554	79	C	04/15/2023	08:10	-132.748	47.817	0	1985.60	0	1.9450	0	34.5860	0	27.655	0	1959.668	0	-1e10	8	-1e10	8	-1E+10	1	-1E+10	1	-1E+10	1	-1E+10	1	-1E+10	1	-1E+10	1
4902554	79	C	04/15/2023	08:10	-132.748	47.817	0	1992.30	0	1.9410	0	34.5870	0	27.656	0	1966.250	0	-1e10	8	-1e10	8	-1E+10	1	-1E+10	1	-1E+10	1	-1E+10	1	-1E+10	1	-1E+10	1
4902554	79	C	04/15/2023	08:10	-132.748	47.817	0																										
4902554	80	C	04/25/2023	12:53	-132.701	47.738	0	0.40	0	7.4920	0	32.3270	0	25.247	0	0.397	0	-1e10	8	-1e10	8	-1E+10	1	-1E+10	1	-1E+10	1	-1E+10	1	-1E+10	1	-1E+10	1
4902554	80	C	04/25/2023	12:53	-132.701	47.738	0	0.60	0	7.4920	0	32.3266	0	25.247	0	0.595	0	-1e10	8	-1e10	8	-1E+10	1	-1E+10	1	-1E+10	1	-1E+10	1	-1E+10	1	-1E+10	1
4902554	80	C	04/25/2023	12:53	-132.701	47.738	0	0.90	0	7.4920	0	32.3260	0	25.246	0	0.892	0	-1e10	8	-1e10	8	-1E+10	1	-1E+10	1	-1E+10	1	-1E+10	1	-1E+10	1	-1E+10	1
4902554	80	C	04/25/2023	12:53	-132.701	47.738	0	2.00	0	7.4920	0	32.3260	0	25.246	0	1.983	0	-1e10	8	-1e10	8	-1E+10	1	-1E+10	1	-1E+10	1	-1E+10	1	-1E+10	1	-1E+10	1
4902554	80	C	04/25/2023	12:53	-132.701	47.738	0	3.10	0	7.4890	0	32.3300	0	25.250	0	3.074	0	-1e10	8	-1e10	8	-1E+10	1	-1E+10	1	-1E+10	1	-1E+10	1	-1E+10	1	-1E+10	1
4902554	80	C	04/25/2023	12:53	-132.701	47.738	0	3.90	0	7.4910	0	32.3290	0	25.249	0	3.867	0	-1e10	8	-1e10	8	-1E+10	1	-1E+10	1	-1E+10	1	-1E+10	1	-1E+10	1	-1E+10	1
4902554	80	C	04/25/2023	12:53	-132.701	47.738	0	4.80	0	7.4900	0	32.3290	0	25.249	0	4.760	0	-1e10	8	-1e10	8	-1E+10	1	-1E+10	1	-1E+10	1	-1E+10	1	-1E+10	1	-1E+10	1
4902554	80	C	04/25/2023	12:53	-132.701	47.738	0	6.10	0	7.4930	0	32.3290	0	25.249	0	6.049	0	-1e10	8	-1e10	8	-1E+10	1	-1E+10	1	-1E+10	1	-1E+10	1	-1E+10	1	-1E+10	1
4902554	80	C	04/25/2023	12:53	-132.701	47.738	0	7.10	0	7.4960	0	32.3290	0	25.248	0	7.040	0	-1e10	8	-1e10	8	-1E+10	1	-1E+10	1	-1E+10	1	-1E+10	1	-1E+10	1	-1E+10	1
4902554	80	C	04/25/2023	12:53	-132.701	47.738	0	8.10	0	7.4940	0	32.3290	0	25.249	0	8.032	0	-1e10	8	-1e10	8	-1E+10	1	-1E+10	1	-1E+10	1	-1E+10	1	-1E+10	1	-1E+10	1
4902554	80	C	04/25/2023	12:53	-132.701	47.738	0	9.00	0	7.4940	0	32.3290	0	25.249	0	8.924	0	-1e10	8	-1e10	8	-1E+10	1	-1E+10	1	-1E+10	1	-1E+10	1	-1E+10	1	-1E+10	1
4902554	80	C	04/25/2023	12:53	-132.701	47.738	0	9.90	0	7.4930	0	32.3290	0	25.249	0	9.817	0	-1e10	8	-1e10	8	-1E+10	1	-1E+10	1	-1E+10	1	-1E+10	1	-1E+10	1	-1E+10	1
4902554	80	C	04/25/2023	12:53	-132.701	47.738	0	11.00	0	7.4840	0	32.3290	0	25.250	0	10.908	0	-1e10	8	-1e10	8	-1E+10	1	-1E+10	1	-1E+10	1	-1E+10	1	-1E+10	1	-1E+10	1
4902554	80	C	04/25/2023	12:53	-132.701	47.738	0	12.00	0	7.4810	0	32.3280	0	25.250	0	11.899	0	-1e10	8	-1e10	8	-1E+10	1	-1E+10	1	-1E+10	1	-1E+10	1	-1E+10	1	-1E+10	1
4902554	80	C	04/25/2023	12:53	-132.701	47.738	0	13.10	0	7.4820	0	32.3300	0	25.251	0	12.990	0	-1e10	8	-1e10	8	-1E+10	1	-1E+10	1	-1E+10	1	-1E+10	1	-1E+10	1	-1E+10	1
4902554	80	C	04/25/2023	12:53	-132.701	47.738	0	14.00	0	7.4770	0	32.3290	0	25.251	0	13.882	0	-1e10	8	-1e10	8	-1E+10	1	-1E+10	1	-1E+10	1	-1E+10	1	-1E+10	1	-1E+10	1
4902554	80	C	04/25/2023	12:53	-132.701	47.738	0	14.90	0	7.4810	0	32.3270	0	25.249	0	14.775	0	-1e10	8	-1e10	8	-1E+10	1	-1E+10	1	-1E+10	1	-1E+10	1	-1E+10	1	-1E+10	1
4902554	80	C	04/25/2023	12:53	-132.701	47.738	0	16.00	0	7.4750	0	32.3290	0	25.251	0	15.866	0	-1e10	8	-1e10	8	-1E+10	1	-1E+10	1	-1E+10	1	-1E+10	1	-1E+10	1	-1E+10	1
4902554	80	C	04/25/2023	12:53	-132.701	47.738	0	16.90	0	7.4690	0	32.3300	0	25.253	0	16.758	0	-1e10	8	-1e10	8	-1E+10	1	-1E+10	1	-1E+10	1	-1E+10	1	-1E+10	1	-1E+10	1
4902554	80	C	04/25/2023	12:53	-132.701	47.738	0	17.80	0	7.4700	0	32.3290	0	25.252	0	17.650	0	-1e10	8	-1e10	8	-1E+10	1	-1E+10	1	-1E+10	1	-1E+10	1	-1E+10	1	-1E+10	1
4902554	80	C	04/25/2023	12:53	-132.701	47.738	0	19.00	0	7.4610	0	32.3300	0	25.254	0	18.840	0	-1e10	8	-1e10	8	-1E+10	1	-1E+10	1	-1E+10	1	-1E+10	1	-1E+10	1	-1E+10	1
4902554	80	C	04/25/2023	12:53	-132.701	47.738	0	19.90	0	7.4520	0	32.3300	0	25.255	0	19.733	0	-1e10	8	-1e10	8	-1E+10	1	-1E+10	1	-1E+10	1	-1E+10	1	-1E+10	1	-1E+10	1
4902554	80	C	04/25/2023	12:53	-132.701	47.738	0	20.80	0	7.4400	0	32.3280	0	25.255	0	20.625	0	-1e10	8	-1e10	8	-1E+10	1	-1E+10	1	-1E+10	1	-1E+10	1	-1E+10	1	-1E+10	1
4902554	80	C	04/25/2023	12:53	-132.701	47.738	0	22.10	0	7.4280	0	32.3290	0	25.258	0	21.914	0	-1e10	8	-1e10	8	-1E+10	1	-1E+10	1	-1E+10	1	-1E+10	1	-1E+10	1	-1E+10	1
4902554	80	C	04/25/2023	12:53	-132.701	47.738	0	23.00	0	7.4170	0	32.3300	0	25.260	0	22.806	0	-1e10	8	-1e10	8	-1E+10	1	-1E+10	1	-1E+10	1	-1E+10	1	-1E+10	1	-1E+10	1
4902554	80	C	04/25/2023	12:53	-132.701	47.738	0	24.00	0	7.4150	0	32.3300	0	25.260	0	23.798	0	-1e10	8	-1e10	8	-1E+10	1	-1E+10	1	-1E+10	1	-1E+10	1	-1E+10	1	-1E+10	1
4902554	80	C	04/25/2023	12:53	-132.701	47.738	0	24.90	0	7.4140	0	32.3300	0	25.261	0	24.690	0	-1e10	8	-1e10	8	-1E+10	1	-1E+10	1	-1E+10	1	-1E+10	1	-1E+10	1	-1E+10	1
4902554	80	C	04/25/2023	12:53	-132.701	47.738	0	25.90	0	7.4140	0	32.3300	0	25.261	0	25.682	0	-1e10	8	-1e10	8	-1E+10	1	-1E+10	1	-1E+10	1	-1E+10	1	-1E+10	1	-1E+10	1
4902554	80	C	04/25/2023	12:53	-132.701	47.738	0	26.80	0	7.4140	0	32.3300	0	25.261	0	26.574	0	-1e10	8	-1e10	8	-1E+10	1	-1E+10	1	-1E+10	1	-1E+10	1	-1E+10	1	-1E+10	1
4902554	80	C	04/25/2023	12:53	-132.701	47.738	0	27.80	0	7.4120	0	32.3300	0	25.261	0	27.566	0	-1e10	8	-1e10	8	-1E+10	1	-1E+10	1	-1E+10	1	-1E+10	1	-1E+10	1	-1E+10	1
4902554	80	C	04/25/2023	12:53	-132.701	47.738	0	29.10	0	7.4110	0	32.3300	0	25.261	0	28.854	0	-1e10	8	-1e10	8	-1E+10	1	-1E+10	1	-1E+10	1	-1E+10	1	-1E+10	1	-1E+10	1
4902554	80	C	04/25/2023	12:53	-132.701	47.738	0	30.10	0	7.4110	0	32.3300	0	25.261	0	29.846	0	-1e10	8	-1e10	8	-1E+10	1	-1E+10	1	-1E+10	1	-1E+10	1	-1E+10	1	-1E+10	1
4902554	80	C	04/25/2023	12:53	-132.701	47.738	0	31.00	0	7.4100	0	32.3300	0	25.261	0	30.738	0	-1e10	8	-1e10	8	-1E+10	1	-1E+10	1	-1E+10	1	-1E+10	1	-1E+10	1	-1E+10	1
4902554	80	C	04/25/2023	12:53	-132.701	47.738	0	32.00	0	7.4100	0	32.3300	0	25.261	0	31.730	0	-1e10	8	-1e10	8	-1E+10	1	-1E+10	1	-1E+10	1	-1E+10	1	-1E+10	1	-1E+10	1
4902554	80	C	04/25/2023	12:53	-132.701	47.738	0	33.00	0	7.4090	0	32.3300	0	25.261	0	32.721	0	-1e10	8	-1e10	8	-1E+10	1	-1E+10	1	-1E+10	1	-1E+10	1	-1E+10	1	-1E+10	1
4902554	80	C	04/25/2023	12:53	-132.701	47.738	0	34.00	0	7.4090	0	32.3300	0	25.261	0	33.713	0	-1e10	8	-1e10	8	-1E+10	1	-1E+10	1	-1E+10	1	-1E+10	1	-1E+10	1	-1E+10	1
4902554	80	C	04/25/2023	12:53	-132.701	47.738	0	34.90	0	7.4080	0	32.3300	0	25.262	0	34.605	0	-1e10	8	-1e10	8	-1E+10	1	-1E+10	1	-1E+10	1	-1E+10	1	-1E+10	1	-1E+10	1
4902554	80	C	04/25/2023	12:53	-132.701	47.738	0	35.90	0	7.4070	0	32.3300	0	25.262	0	35.597	0	-1e10	8	-1e10	8	-1E+10	1	-1E+10	1	-1E+10	1	-1E+10	1	-1E+10	1	-1E+10	1
4902554	80	C	04/25/2023	12:53	-132.701	47.738	0	36.90	0	7.4060	0	32.3300	0	25.262	0	36.588	0	-1e10	8	-1e10	8	-1E+10	1	-1E+10	1	-1E+10	1	-1E+10	1	-1E+10	1	-1E+10	1
4902554	80	C	04/25/2023	12:53	-132.701	47.738	0	37.90	0	7.4060	0	32.3300	0	25.262	0	37.579	0	-1e10	8	-1e10	8	-1E+10	1	-1E+10	1	-1E+10	1	-1E+10	1	-1E+10	1	-1E+10	1
4902554	80	C	04/25/2023	12:53	-132.701	47.738	0	38.80	0	7.4050	0	32.3300	0	25.262	0	38.472	0	-1e10	8	-1e10	8	-1E+10	1	-1E+10	1	-1E+10	1	-1E+10	1	-1E+10	1	-1E+10	1
4902554	80	C	04/25/2023	12:53	-132.701	47.738	0	39.80	0	7.4050	0	32.3300	0	25.262	0	39.463	0	-1e10	8	-1e10	8	-1E+10	1	-1E+10	1	-1E+10	1	-1E+10	1	-1E+10	1	-1E+10	1
4902554	80	C	04/25/2023	12:53	-132.701	47.738	0	40.80	0	7.4050	0	32.3300	0	25.262	0	40.455	0	-1e10	8	-1e10	8	-1E+10	1	-1E+10	1	-1E+10	1	-1E+10	1	-1E+10	1	-1E+10	1
4902554	80	C	04/25/2023	12:53	-132.701	47.738	0	42.00	0	7.4040	0	32.3300	0	25.262	0	41.644	0	-1e10	8	-1e10	8	-1E+10	1	-1E+10	1	-1E+10	1	-1E+10	1	-1E+10	1	-1E+10	1
4902554	80	C	04/25/2023	12:53	-132.701	47.738	0	43.00	0	7.4030	0	32.3290	0	25.262	0	42.636	0	-1e10	8	-1e10	8	-1E+10	1	-1E+10	1	-1E+10	1	-1E+10	1	-1E+10	1	-1E+10	1
4902554	80	C	04/25/2023	12:53	-132.701	47.738	0	43.80	0	7.3970	0	32.3300	0	25.263	0	43.429	0	-1e10	8	-1e10	8	-1E+10	1	-1E+10	1	-1E+10	1	-1E+10	1	-1E+10	1	-1E+10	1
4902554	80	C	04/25/2023	12:53	-132.701	47.738	0	45.10	0	7.3930	0	32.3290	0	25.263	0	44.718	0	-1e10	8	-1e10	8	-1E+10	1	-1E+10	1	-1E+10	1	-1E+10	1	-1E+10	1	-1E+10	1
4902554	80	C	04/25/2023	12:53	-132.701	47.738	0	46.00	0	7.3870	0	32.3300	0	25.265	0	45.610	0	-1e10	8	-1e10	8	-1E+10	1	-1E+10	1	-1E+10	1	-1E+10	1	-1E+10	1	-1E+10	1
4902554	80	C	04/25/2023	12:53	-132.701	47.738	0	46.90	0	7.3770	0	32.3290	0	25.265	0	46.502	0	-1e10	8	-1e10	8	-1E+10	1	-1E+10	1	-1E+10	1	-1E+10	1	-1E+10	1	-1E+10	1
4902554	80	C	04/25/2023	12:53	-132.701	47.738	0	48.00	0	7.3630	0	32.3300	0	25.268	0	47.593	0	-1e10	8	-1e10	8	-1E+10	1	-1E+10	1	-1E+10	1	-1E+10	1	-1E+10	1	-1E+10	1
4902554	80	C	04/25/2023	12:53	-132.701	47.738	0	48.90	0	7.3590	0	32.3300	0	25.268	0	48.485	0	-1e10	8	-1e10	8	-1E+10	1	-1E+10	1	-1E+10	1	-1E+10	1	-1E+10	1	-1E+10	1
4902554	80	C	04/25/2023	12:53	-132.701	47.738	0	49.70	0	7.3470	0	32.3300	0	25.270	0	49.278	0	-1e10	8	-1e10	8	-1E+10	1	-1E+10	1	-1E+10	1	-1E+10	1	-1E+10	1	-1E+10	1
4902554	80	C	04/25/2023	12:53	-132.701	47.738	0	50.90	0	7.3380	0	32.3300	0	25.271	0	50.468	0	-1e10	8	-1e10	8	-1E+10	1	-1E+10	1	-1E+10	1	-1E+10	1	-1E+10	1	-1E+10	1
4902554	80	C	04/25/2023	12:53	-132.701	47.738	0	52.10	0	7.3150	0	32.3310	0	25.275	0	51.658	0	-1e10	8	-1e10	8	-1E+10	1	-1E+10	1	-1E+10	1	-1E+10	1	-1E+10	1	-1E+10	1
4902554	80	C	04/25/2023	12:53	-132.701	47.738	0	53.00	0	7.3000	0	32.3300	0	25.277	0	52.550	0	-1e10	8	-1e10	8	-1E+10	1	-1E+10	1	-1E+10	1	-1E+10	1	-1E+10	1	-1E+10	1
4902554	80	C	04/25/2023	12:53	-132.701	47.738	0	53.90	0	7.2910	0	32.3300	0	25.278	0	53.442	0	-1e10	8	-1e10	8	-1E+10	1	-1E+10	1	-1E+10	1	-1E+10	1	-1E+10	1	-1E+10	1
4902554	80	C	04/25/2023	12:53	-132.701	47.738	0	55.00	0	7.2760	0	32.3310	0	25.281	0	54.533	0	-1e10	8	-1e10	8	-1E+10	1	-1E+10	1	-1E+10	1	-1E+10	1	-1E+10	1	-1E+10	1
4902554	80	C	04/25/2023	12:53	-132.701	47.738	0	55.90	0	7.2550	0	32.3330	0	25.285	0	55.425	0	-1e10	8	-1e10	8	-1E+10	1	-1E+10	1	-1E+10	1	-1E+10	1	-1E+10	1	-1E+10	1
4902554	80	C	04/25/2023	12:53	-132.701	47.738	0	56.80	0	7.2470	0	32.3320	0	25.285	0	56.317	0	-1e10	8	-1e10	8	-1E+10	1	-1E+10	1	-1E+10	1	-1E+10	1	-1E+10	1	-1E+10	1
4902554	80	C	04/25/2023	12:53	-132.701	47.738	0	58.00	0	7.2450	0	32.3310	0	25.285	0	57.507	0	-1e10	8	-1e10	8	-1E+10	1	-1E+10	1	-1E+10	1	-1E+10	1	-1E+10	1	-1E+10	1
4902554	80	C	04/25/2023	12:53	-132.701	47.738	0	58.90	0	7.2430	0	32.3310	0	25.285	0	58.399	0	-1e10	8	-1e10	8	-1E+10	1	-1E+10	1	-1E+10	1	-1E+10	1	-1E+10	1	-1E+10	1
4902554	80	C	04/25/2023	12:53	-132.701	47.738	0	59.80	0	7.2420	0	32.3310	0	25.285	0	59.291	0	-1e10	8	-1e10	8	-1E+10	1	-1E+10	1	-1E+10	1	-1E+10	1	-1E+10	1	-1E+10	1
4902554	80	C	04/25/2023	12:53	-132.701	47.738	0	61.00	0	7.2410	0	32.3310	0	25.285	0	60.481	0	-1e10	8	-1e10	8	-1E+10	1	-1E+10	1	-1E+10	1	-1E+10	1	-1E+10	1	-1E+10	1
4902554	80	C	04/25/2023	12:53	-132.701	47.738	0	62.00	0	7.2410	0	32.3320	0	25.286	0	61.472	0	-1e10	8	-1e10	8	-1E+10	1	-1E+10	1	-1E+10	1	-1E+10	1	-1E+10	1	-1E+10	1
4902554	80	C	04/25/2023	12:53	-132.701	47.738	0	62.90	0	7.2410	0	32.3320	0	25.286	0	62.364	0	-1e10	8	-1e10	8	-1E+10	1	-1E+10	1	-1E+10	1	-1E+10	1	-1E+10	1	-1E+10	1
4902554	80	C	04/25/2023	12:53	-132.701	47.738	0	63.90	0	7.2410	0	32.3320	0	25.286	0	63.355	0	-1e10	8	-1e10	8	-1E+10	1	-1E+10	1	-1E+10	1	-1E+10	1	-1E+10	1	-1E+10	1
4902554	80	C	04/25/2023	12:53	-132.701	47.738	0	64.80	0	7.2410	0	32.3320	0	25.286	0	64.248	0	-1e10	8	-1e10	8	-1E+10	1	-1E+10	1	-1E+10	1	-1E+10	1	-1E+10	1	-1E+10	1
4902554	80	C	04/25/2023	12:53	-132.701	47.738	0	65.90	0	7.2410	0	32.3320	0	25.286	0	65.338	0	-1e10	8	-1e10	8	-1E+10	1	-1E+10	1	-1E+10	1	-1E+10	1	-1E+10	1	-1E+10	1
4902554	80	C	04/25/2023	12:53	-132.701	47.738	0	66.80	0	7.2390	0	32.3310	0	25.286	0	66.230	0	-1e10	8	-1e10	8	-1E+10	1	-1E+10	1	-1E+10	1	-1E+10	1	-1E+10	1	-1E+10	1
4902554	80	C	04/25/2023	12:53	-132.701	47.738	0	67.90	0	7.2380	0	32.3320	0	25.287	0	67.321	0	-1e10	8	-1e10	8	-1E+10	1	-1E+10	1	-1E+10	1	-1E+10	1	-1E+10	1	-1E+10	1
4902554	80	C	04/25/2023	12:53	-132.701	47.738	0	68.90	0	7.2370	0	32.3310	0	25.286	0	68.312	0	-1e10	8	-1e10	8	-1E+10	1	-1E+10	1	-1E+10	1	-1E+10	1	-1E+10	1	-1E+10	1
4902554	80	C	04/25/2023	12:53	-132.701	47.738	0	70.00	0	7.2390	0	32.3310	0	25.286	0	69.402	0	-1e10	8	-1e10	8	-1E+10	1	-1E+10	1	-1E+10	1	-1E+10	1	-1E+10	1	-1E+10	1
4902554	80	C	04/25/2023	12:53	-132.701	47.738	0	71.00	0	7.2400	0	32.3320	0	25.286	0	70.394	0	-1e10	8	-1e10	8	-1E+10	1	-1E+10	1	-1E+10	1	-1E+10	1	-1E+10	1	-1E+10	1
4902554	80	C	04/25/2023	12:53	-132.701	47.738	0	72.10	0	7.2370	0	32.3320	0	25.287	0	71.484	0	-1e10	8	-1e10	8	-1E+10	1	-1E+10	1	-1E+10	1	-1E+10	1	-1E+10	1	-1E+10	1
4902554	80	C	04/25/2023	12:53	-132.701	47.738	0	72.90	0	7.2380	0	32.3320	0	25.287	0	72.277	0	-1e10	8	-1e10	8	-1E+10	1	-1E+10	1	-1E+10	1	-1E+10	1	-1E+10	1	-1E+10	1
4902554	80	C	04/25/2023	12:53	-132.701	47.738	0	74.00	0	7.2390	0	32.3320	0	25.287	0	73.368	0	-1e10	8	-1e10	8	-1E+10	1	-1E+10	1	-1E+10	1	-1E+10	1	-1E+10	1	-1E+10	1
4902554	80	C	04/25/2023	12:53	-132.701	47.738	0	75.20	0	7.2390	0	32.3320	0	25.287	0	74.557	0	-1e10	8	-1e10	8	-1E+10	1	-1E+10	1	-1E+10	1	-1E+10	1	-1E+10	1	-1E+10	1
4902554	80	C	04/25/2023	12:53	-132.701	47.738	0	75.90	0	7.2380	0	32.3320	0	25.287	0	75.251	0	-1e10	8	-1e10	8	-1E+10	1	-1E+10	1	-1E+10	1	-1E+10	1	-1E+10	1	-1E+10	1
4902554	80	C	04/25/2023	12:53	-132.701	47.738	0	76.70	0	7.2380	0	32.3320	0	25.287	0	76.044	0	-1e10	8	-1e10	8	-1E+10	1	-1E+10	1	-1E+10	1	-1E+10	1	-1E+10	1	-1E+10	1
4902554	80	C	04/25/2023	12:53	-132.701	47.738	0	77.80	0	7.2390	0	32.3320	0	25.287	0	77.134	0	-1e10	8	-1e10	8	-1E+10	1	-1E+10	1	-1E+10	1	-1E+10	1	-1E+10	1	-1E+10	1
4902554	80	C	04/25/2023	12:53	-132.701	47.738	0	79.00	0	7.2390	0	32.3320	0	25.287	0	78.324	0	-1e10	8	-1e10	8	-1E+10	1	-1E+10	1	-1E+10	1	-1E+10	1	-1E+10	1	-1E+10	1
4902554	80	C	04/25/2023	12:53	-132.701	47.738	0	79.80	0	7.2390	0	32.3320	0	25.287	0	79.117	0	-1e10	8	-1e10	8	-1E+10	1	-1E+10	1	-1E+10	1	-1E+10	1	-1E+10	1	-1E+10	1
4902554	80	C	04/25/2023	12:53	-132.701	47.738	0	81.00	0	7.2390	0	32.3320	0	25.287	0	80.306	0	-1e10	8	-1e10	8	-1E+10	1	-1E+10	1	-1E+10	1	-1E+10	1	-1E+10	1	-1E+10	1
4902554	80	C	04/25/2023	12:53	-132.701	47.738	0	82.20	0	7.2390	0	32.3320	0	25.287	0	81.496	0	-1e10	8	-1e10	8	-1E+10	1	-1E+10	1	-1E+10	1	-1E+10	1	-1E+10	1	-1E+10	1
4902554	80	C	04/25/2023	12:53	-132.701	47.738	0	83.00	0	7.2390	0	32.3320	0	25.287	0	82.289	0	-1e10	8	-1e10	8	-1E+10	1	-1E+10	1	-1E+10	1	-1E+10	1	-1E+10	1	-1E+10	1
4902554	80	C	04/25/2023	12:53	-132.701	47.738	0	83.80	0	7.2390	0	32.3320	0	25.287	0	83.082	0	-1e10	8	-1e10	8	-1E+10	1	-1E+10	1	-1E+10	1	-1E+10	1	-1E+10	1	-1E+10	1
4902554	80	C	04/25/2023	12:53	-132.701	47.738	0	85.00	0	7.2390	0	32.3320	0	25.287	0	84.271	0	-1e10	8	-1e10	8	-1E+10	1	-1E+10	1	-1E+10	1	-1E+10	1	-1E+10	1	-1E+10	1
4902554	80	C	04/25/2023	12:53	-132.701	47.738	0	86.20	0	7.2370	0	32.3320	0	25.287	0	85.461	0	-1e10	8	-1e10	8	-1E+10	1	-1E+10	1	-1E+10	1	-1E+10	1	-1E+10	1	-1E+10	1
4902554	80	C	04/25/2023	12:53	-132.701	47.738	0	87.00	0	7.2380	0	32.3320	0	25.287	0	86.254	0	-1e10	8	-1e10	8	-1E+10	1	-1E+10	1	-1E+10	1	-1E+10	1	-1E+10	1	-1E+10	1
4902554	80	C	04/25/2023	12:53	-132.701	47.738	0	87.80	0	7.2380	0	32.3320	0	25.287	0	87.047	0	-1e10	8	-1e10	8	-1E+10	1	-1E+10	1	-1E+10	1	-1E+10	1	-1E+10	1	-1E+10	1
4902554	80	C	04/25/2023	12:53	-132.701	47.738	0	89.00	0	7.2370	0	32.3320	0	25.287	0	88.236	0	-1e10	8	-1e10	8	-1E+10	1	-1E+10	1	-1E+10	1	-1E+10	1	-1E+10	1	-1E+10	1
4902554	80	C	04/25/2023	12:53	-132.701	47.738	0	90.20	0	7.2360	0	32.3320	0	25.287	0	89.426	0	-1e10	8	-1e10	8	-1E+10	1	-1E+10	1	-1E+10	1	-1E+10	1	-1E+10	1	-1E+10	1
4902554	80	C	04/25/2023	12:53	-132.701	47.738	0	90.90	0	7.2370	0	32.3320	0	25.287	0	90.120	0	-1e10	8	-1e10	8	-1E+10	1	-1E+10	1	-1E+10	1	-1E+10	1	-1E+10	1	-1E+10	1
4902554	80	C	04/25/2023	12:53	-132.701	47.738	0	91.70	0	7.2360	0	32.3320	0	25.287	0	90.912	0	-1e10	8	-1e10	8	-1E+10	1	-1E+10	1	-1E+10	1	-1E+10	1	-1E+10	1	-1E+10	1
4902554	80	C	04/25/2023	12:53	-132.701	47.738	0	92.80	0	7.2370	0	32.3320	0	25.287	0	92.003	0	-1e10	8	-1e10	8	-1E+10	1	-1E+10	1	-1E+10	1	-1E+10	1	-1E+10	1	-1E+10	1
4902554	80	C	04/25/2023	12:53	-132.701	47.738	0	94.00	0	7.2370	0	32.3330	0	25.288	0	93.192	0	-1e10	8	-1e10	8	-1E+10	1	-1E+10	1	-1E+10	1	-1E+10	1	-1E+10	1	-1E+10	1
4902554	80	C	04/25/2023	12:53	-132.701	47.738	0	95.00	0	7.2360	0	32.3330	0	25.288	0	94.183	0	-1e10	8	-1e10	8	-1E+10	1	-1E+10	1	-1E+10	1	-1E+10	1	-1E+10	1	-1E+10	1
4902554	80	C	04/25/2023	12:53	-132.701	47.738	0	96.10	0	7.2350	0	32.3340	0	25.289	0	95.274	0	-1e10	8	-1e10	8	-1E+10	1	-1E+10	1	-1E+10	1	-1E+10	1	-1E+10	1	-1E+10	1
4902554	80	C	04/25/2023	12:53	-132.701	47.738	0	96.80	0	7.2340	0	32.3340	0	25.289	0	95.968	0	-1e10	8	-1e10	8	-1E+10	1	-1E+10	1	-1E+10	1	-1E+10	1	-1E+10	1	-1E+10	1
4902554	80	C	04/25/2023	12:53	-132.701	47.738	0	97.80	0	7.2290	0	32.3350	0	25.291	0	96.959	0	-1e10	8	-1e10	8	-1E+10	1	-1E+10	1	-1E+10	1	-1E+10	1	-1E+10	1	-1E+10	1
4902554	80	C	04/25/2023	12:53	-132.701	47.738	0	98.90	0	7.2260	0	32.3360	0	25.292	0	98.049	0	-1e10	8	-1e10	8	-1E+10	1	-1E+10	1	-1E+10	1	-1E+10	1	-1E+10	1	-1E+10	1
4902554	80	C	04/25/2023	12:53	-132.701	47.738	0	99.90	0	7.2220	0	32.3380	0	25.294	0	99.040	0	-1e10	8	-1e10	8	-1E+10	1	-1E+10	1	-1E+10	1	-1E+10	1	-1E+10	1	-1E+10	1
4902554	80	C	04/25/2023	12:53	-132.701	47.738	0	100.90	0	7.2170	0	32.3400	0	25.296	0	100.031	0	-1e10	8	-1e10	8	-1E+10	1	-1E+10	1	-1E+10	1	-1E+10	1	-1E+10	1	-1E+10	1
4902554	80	C	04/25/2023	12:53	-132.701	47.738	0	101.90	0	7.2110	0	32.3430	0	25.299	0	101.022	0	-1e10	8	-1e10	8	-1E+10	1	-1E+10	1	-1E+10	1	-1E+10	1	-1E+10	1	-1E+10	1
4902554	80	C	04/25/2023	12:53	-132.701	47.738	0	103.00	0	7.2070	0	32.3450	0	25.302	0	102.113	0	-1e10	8	-1e10	8	-1E+10	1	-1E+10	1	-1E+10	1	-1E+10	1	-1E+10	1	-1E+10	1
4902554	80	C	04/25/2023	12:53	-132.701	47.738	0	103.90	0	7.1970	0	32.3500	0	25.307	0	103.005	0	-1e10	8	-1e10	8	-1E+10	1	-1E+10	1	-1E+10	1	-1E+10	1	-1E+10	1	-1E+10	1
4902554	80	C	04/25/2023	12:53	-132.701	47.738	0	104.90	0	7.1890	0	32.3550	0	25.312	0	103.996	0	-1e10	8	-1e10	8	-1E+10	1	-1E+10	1	-1E+10	1	-1E+10	1	-1E+10	1	-1E+10	1
4902554	80	C	04/25/2023	12:53	-132.701	47.738	0	105.80	0	7.1720	0	32.3630	0	25.320	0	104.888	0	-1e10	8	-1e10	8	-1E+10	1	-1E+10	1	-1E+10	1	-1E+10	1	-1E+10	1	-1E+10	1
4902554	80	C	04/25/2023	12:53	-132.701	47.738	0	106.80	0	7.1270	0	32.3900	0	25.348	0	105.879	0	-1e10	8	-1e10	8	-1E+10	1	-1E+10	1	-1E+10	1	-1E+10	1	-1E+10	1	-1E+10	1
4902554	80	C	04/25/2023	12:53	-132.701	47.738	0	108.10	0	7.1200	0	32.3950	0	25.353	0	107.167	0	-1e10	8	-1e10	8	-1E+10	1	-1E+10	1	-1E+10	1	-1E+10	1	-1E+10	1	-1E+10	1
4902554	80	C	04/25/2023	12:53	-132.701	47.738	0	109.00	0	7.1100	0	32.4020	0	25.360	0	108.059	0	-1e10	8	-1e10	8	-1E+10	1	-1E+10	1	-1E+10	1	-1E+10	1	-1E+10	1	-1E+10	1
4902554	80	C	04/25/2023	12:53	-132.701	47.738	0	110.00	0	7.0430	0	32.4630	0	25.417	0	109.050	0	-1e10	8	-1e10	8	-1E+10	1	-1E+10	1	-1E+10	1	-1E+10	1	-1E+10	1	-1E+10	1
4902554	80	C	04/25/2023	12:53	-132.701	47.738	0	111.10	0	6.9650	0	32.5480	0	25.494	0	110.141	0	-1e10	8	-1e10	8	-1E+10	1	-1E+10	1	-1E+10	1	-1E+10	1	-1E+10	1	-1E+10	1
4902554	80	C	04/25/2023	12:53	-132.701	47.738	0	111.90	0	6.8640	0	32.6690	0	25.603	0	110.934	0	-1e10	8	-1e10	8	-1E+10	1	-1E+10	1	-1E+10	1	-1E+10	1	-1E+10	1	-1E+10	1
4902554	80	C	04/25/2023	12:53	-132.701	47.738	0	112.90	0	6.7550	0	32.7650	0	25.692	0	111.925	0	-1e10	8	-1e10	8	-1E+10	1	-1E+10	1	-1E+10	1	-1E+10	1	-1E+10	1	-1E+10	1
4902554	80	C	04/25/2023	12:53	-132.701	47.738	0	114.00	0	6.7050	0	32.8090	0	25.734	0	113.015	0	-1e10	8	-1e10	8	-1E+10	1	-1E+10	1	-1E+10	1	-1E+10	1	-1E+10	1	-1E+10	1
4902554	80	C	04/25/2023	12:53	-132.701	47.738	0	114.90	0	6.6630	0	32.8490	0	25.771	0	113.907	0	-1e10	8	-1e10	8	-1E+10	1	-1E+10	1	-1E+10	1	-1E+10	1	-1E+10	1	-1E+10	1
4902554	80	C	04/25/2023	12:53	-132.701	47.738	0	115.80	0	6.6430	0	32.8660	0	25.787	0	114.799	0	-1e10	8	-1e10	8	-1E+10	1	-1E+10	1	-1E+10	1	-1E+10	1	-1E+10	1	-1E+10	1
4902554	80	C	04/25/2023	12:53	-132.701	47.738	0	116.80	0	6.6340	0	32.8740	0	25.794	0	115.790	0	-1e10	8	-1e10	8	-1E+10	1	-1E+10	1	-1E+10	1	-1E+10	1	-1E+10	1	-1E+10	1
4902554	80	C	04/25/2023	12:53	-132.701	47.738	0	117.80	0	6.6210	0	32.8830	0	25.803	0	116.781	0	-1e10	8	-1e10	8	-1E+10	1	-1E+10	1	-1E+10	1	-1E+10	1	-1E+10	1	-1E+10	1
4902554	80	C	04/25/2023	12:53	-132.701	47.738	0	118.90	0	6.5990	0	32.8950	0	25.815	0	117.871	0	-1e10	8	-1e10	8	-1E+10	1	-1E+10	1	-1E+10	1	-1E+10	1	-1E+10	1	-1E+10	1
4902554	80	C	04/25/2023	12:53	-132.701	47.738	0	120.10	0	6.5810	0	32.9030	0	25.824	0	119.060	0	-1e10	8	-1e10	8	-1E+10	1	-1E+10	1	-1E+10	1	-1E+10	1	-1E+10	1	-1E+10	1
4902554	80	C	04/25/2023	12:53	-132.701	47.738	0	120.90	0	6.5650	0	32.9120	0	25.833	0	119.853	0	-1e10	8	-1e10	8	-1E+10	1	-1E+10	1	-1E+10	1	-1E+10	1	-1E+10	1	-1E+10	1
4902554	80	C	04/25/2023	12:53	-132.701	47.738	0	122.00	0	6.5150	0	32.9490	0	25.869	0	120.943	0	-1e10	8	-1e10	8	-1E+10	1	-1E+10	1	-1E+10	1	-1E+10	1	-1E+10	1	-1E+10	1
4902554	80	C	04/25/2023	12:53	-132.701	47.738	0	122.90	0	6.4520	0	33.0000	0	25.917	0	121.835	0	-1e10	8	-1e10	8	-1E+10	1	-1E+10	1	-1E+10	1	-1E+10	1	-1E+10	1	-1E+10	1
4902554	80	C	04/25/2023	12:53	-132.701	47.738	0	124.00	0	6.3990	0	33.0410	0	25.956	0	122.925	0	-1e10	8	-1e10	8	-1E+10	1	-1E+10	1	-1E+10	1	-1E+10	1	-1E+10	1	-1E+10	1
4902554	80	C	04/25/2023	12:53	-132.701	47.738	0	124.90	0	6.3730	0	33.0870	0	25.996	0	123.817	0	-1e10	8	-1e10	8	-1E+10	1	-1E+10	1	-1E+10	1	-1E+10	1	-1E+10	1	-1E+10	1
4902554	80	C	04/25/2023	12:53	-132.701	47.738	0	125.80	0	6.3440	0	33.1150	0	26.022	0	124.709	0	-1e10	8	-1e10	8	-1E+10	1	-1E+10	1	-1E+10	1	-1E+10	1	-1E+10	1	-1E+10	1
4902554	80	C	04/25/2023	12:53	-132.701	47.738	0	127.00	0	6.3090	0	33.1390	0	26.045	0	125.899	0	-1e10	8	-1e10	8	-1E+10	1	-1E+10	1	-1E+10	1	-1E+10	1	-1E+10	1	-1E+10	1
4902554	80	C	04/25/2023	12:53	-132.701	47.738	0	128.00	0	6.2920	0	33.1540	0	26.059	0	126.890	0	-1e10	8	-1e10	8	-1E+10	1	-1E+10	1	-1E+10	1	-1E+10	1	-1E+10	1	-1E+10	1
4902554	80	C	04/25/2023	12:53	-132.701	47.738	0	128.90	0	6.2780	0	33.1670	0	26.071	0	127.781	0	-1e10	8	-1e10	8	-1E+10	1	-1E+10	1	-1E+10	1	-1E+10	1	-1E+10	1	-1E+10	1
4902554	80	C	04/25/2023	12:53	-132.701	47.738	0	130.00	0	6.2700	0	33.1740	0	26.078	0	128.872	0	-1e10	8	-1e10	8	-1E+10	1	-1E+10	1	-1E+10	1	-1E+10	1	-1E+10	1	-1E+10	1
4902554	80	C	04/25/2023	12:53	-132.701	47.738	0	131.10	0	6.2610	0	33.1880	0	26.090	0	129.962	0	-1e10	8	-1e10	8	-1E+10	1	-1E+10	1	-1E+10	1	-1E+10	1	-1E+10	1	-1E+10	1
4902554	80	C	04/25/2023	12:53	-132.701	47.738	0	132.00	0	6.2580	0	33.1970	0	26.097	0	130.854	0	-1e10	8	-1e10	8	-1E+10	1	-1E+10	1	-1E+10	1	-1E+10	1	-1E+10	1	-1E+10	1
4902554	80	C	04/25/2023	12:53	-132.701	47.738	0	132.80	0	6.2490	0	33.2120	0	26.110	0	131.646	0	-1e10	8	-1e10	8	-1E+10	1	-1E+10	1	-1E+10	1	-1E+10	1	-1E+10	1	-1E+10	1
4902554	80	C	04/25/2023	12:53	-132.701	47.738	0	133.90	0	6.2160	0	33.2930	0	26.178	0	132.737	0	-1e10	8	-1e10	8	-1E+10	1	-1E+10	1	-1E+10	1	-1E+10	1	-1E+10	1	-1E+10	1
4902554	80	C	04/25/2023	12:53	-132.701	47.738	0	135.10	0	6.1960	0	33.3150	0	26.198	0	133.926	0	-1e10	8	-1e10	8	-1E+10	1	-1E+10	1	-1E+10	1	-1E+10	1	-1E+10	1	-1E+10	1
4902554	80	C	04/25/2023	12:53	-132.701	47.738	0	136.00	0	6.1550	0	33.3550	0	26.235	0	134.818	0	-1e10	8	-1e10	8	-1E+10	1	-1E+10	1	-1E+10	1	-1E+10	1	-1E+10	1	-1E+10	1
4902554	80	C	04/25/2023	12:53	-132.701	47.738	0	136.90	0	6.1370	0	33.3610	0	26.242	0	135.709	0	-1e10	8	-1e10	8	-1E+10	1	-1E+10	1	-1E+10	1	-1E+10	1	-1E+10	1	-1E+10	1
4902554	80	C	04/25/2023	12:53	-132.701	47.738	0	137.90	0	6.1120	0	33.3840	0	26.263	0	136.700	0	-1e10	8	-1e10	8	-1E+10	1	-1E+10	1	-1E+10	1	-1E+10	1	-1E+10	1	-1E+10	1
4902554	80	C	04/25/2023	12:53	-132.701	47.738	0	138.90	0	6.1090	0	33.4010	0	26.277	0	137.691	0	-1e10	8	-1e10	8	-1E+10	1	-1E+10	1	-1E+10	1	-1E+10	1	-1E+10	1	-1E+10	1
4902554	80	C	04/25/2023	12:53	-132.701	47.738	0	140.00	0	6.0930	0	33.4240	0	26.297	0	138.781	0	-1e10	8	-1e10	8	-1E+10	1	-1E+10	1	-1E+10	1	-1E+10	1	-1E+10	1	-1E+10	1
4902554	80	C	04/25/2023	12:53	-132.701	47.738	0	141.00	0	6.0850	0	33.4410	0	26.312	0	139.772	0	-1e10	8	-1e10	8	-1E+10	1	-1E+10	1	-1E+10	1	-1E+10	1	-1E+10	1	-1E+10	1
4902554	80	C	04/25/2023	12:53	-132.701	47.738	0	142.20	0	6.0770	0	33.4580	0	26.326	0	140.962	0	-1e10	8	-1e10	8	-1E+10	1	-1E+10	1	-1E+10	1	-1E+10	1	-1E+10	1	-1E+10	1
4902554	80	C	04/25/2023	12:53	-132.701	47.738	0	143.00	0	6.0690	0	33.4630	0	26.331	0	141.754	0	-1e10	8	-1e10	8	-1E+10	1	-1E+10	1	-1E+10	1	-1E+10	1	-1E+10	1	-1E+10	1
4902554	80	C	04/25/2023	12:53	-132.701	47.738	0	143.80	0	6.0690	0	33.4750	0	26.341	0	142.547	0	-1e10	8	-1e10	8	-1E+10	1	-1E+10	1	-1E+10	1	-1E+10	1	-1E+10	1	-1E+10	1
4902554	80	C	04/25/2023	12:53	-132.701	47.738	0	145.00	0	6.0730	0	33.4900	0	26.352	0	143.736	0	-1e10	8	-1e10	8	-1E+10	1	-1E+10	1	-1E+10	1	-1E+10	1	-1E+10	1	-1E+10	1
4902554	80	C	04/25/2023	12:53	-132.701	47.738	0	146.20	0	6.0850	0	33.5130	0	26.369	0	144.925	0	-1e10	8	-1e10	8	-1E+10	1	-1E+10	1	-1E+10	1	-1E+10	1	-1E+10	1	-1E+10	1
4902554	80	C	04/25/2023	12:53	-132.701	47.738	0	147.10	0	6.0840	0	33.5250	0	26.378	0	145.817	0	-1e10	8	-1e10	8	-1E+10	1	-1E+10	1	-1E+10	1	-1E+10	1	-1E+10	1	-1E+10	1
4902554	80	C	04/25/2023	12:53	-132.701	47.738	0	148.00	0	6.0910	0	33.5360	0	26.386	0	146.709	0	-1e10	8	-1e10	8	-1E+10	1	-1E+10	1	-1E+10	1	-1E+10	1	-1E+10	1	-1E+10	1
4902554	80	C	04/25/2023	12:53	-132.701	47.738	0	148.90	0	6.0970	0	33.5440	0	26.392	0	147.601	0	-1e10	8	-1e10	8	-1E+10	1	-1E+10	1	-1E+10	1	-1E+10	1	-1E+10	1	-1E+10	1
4902554	80	C	04/25/2023	12:53	-132.701	47.738	0	149.80	0	6.0960	0	33.5480	0	26.395	0	148.493	0	-1e10	8	-1e10	8	-1E+10	1	-1E+10	1	-1E+10	1	-1E+10	1	-1E+10	1	-1E+10	1
4902554	80	C	04/25/2023	12:53	-132.701	47.738	0	150.80	0	6.0950	0	33.5550	0	26.401	0	149.484	0	-1e10	8	-1e10	8	-1E+10	1	-1E+10	1	-1E+10	1	-1E+10	1	-1E+10	1	-1E+10	1
4902554	80	C	04/25/2023	12:53	-132.701	47.738	0	151.70	0	6.0920	0	33.5600	0	26.405	0	150.375	0	-1e10	8	-1e10	8	-1E+10	1	-1E+10	1	-1E+10	1	-1E+10	1	-1E+10	1	-1E+10	1
4902554	80	C	04/25/2023	12:53	-132.701	47.738	0	152.70	0	6.0950	0	33.5660	0	26.409	0	151.366	0	-1e10	8	-1e10	8	-1E+10	1	-1E+10	1	-1E+10	1	-1E+10	1	-1E+10	1	-1E+10	1
4902554	80	C	04/25/2023	12:53	-132.701	47.738	0	153.60	0	6.0970	0	33.5710	0	26.413	0	152.258	0	-1e10	8	-1e10	8	-1E+10	1	-1E+10	1	-1E+10	1	-1E+10	1	-1E+10	1	-1E+10	1
4902554	80	C	04/25/2023	12:53	-132.701	47.738	0	154.60	0	6.1010	0	33.5730	0	26.414	0	153.249	0	-1e10	8	-1e10	8	-1E+10	1	-1E+10	1	-1E+10	1	-1E+10	1	-1E+10	1	-1E+10	1
4902554	80	C	04/25/2023	12:53	-132.701	47.738	0	155.90	0	6.0940	0	33.5830	0	26.423	0	154.537	0	-1e10	8	-1e10	8	-1E+10	1	-1E+10	1	-1E+10	1	-1E+10	1	-1E+10	1	-1E+10	1
4902554	80	C	04/25/2023	12:53	-132.701	47.738	0	157.40	0	6.0910	0	33.5870	0	26.427	0	156.023	0	-1e10	8	-1e10	8	-1E+10	1	-1E+10	1	-1E+10	1	-1E+10	1	-1E+10	1	-1E+10	1
4902554	80	C	04/25/2023	12:53	-132.701	47.738	0	158.30	0	6.0900	0	33.5960	0	26.434	0	156.915	0	-1e10	8	-1e10	8	-1E+10	1	-1E+10	1	-1E+10	1	-1E+10	1	-1E+10	1	-1E+10	1
4902554	80	C	04/25/2023	12:53	-132.701	47.738	0	159.30	0	6.0940	0	33.6070	0	26.442	0	157.906	0	-1e10	8	-1e10	8	-1E+10	1	-1E+10	1	-1E+10	1	-1E+10	1	-1E+10	1	-1E+10	1
4902554	80	C	04/25/2023	12:53	-132.701	47.738	0	160.20	0	6.0950	0	33.6060	0	26.441	0	158.798	0	-1e10	8	-1e10	8	-1E+10	1	-1E+10	1	-1E+10	1	-1E+10	1	-1E+10	1	-1E+10	1
4902554	80	C	04/25/2023	12:53	-132.701	47.738	0	161.10	0	6.0960	0	33.6090	0	26.443	0	159.690	0	-1e10	8	-1e10	8	-1E+10	1	-1E+10	1	-1E+10	1	-1E+10	1	-1E+10	1	-1E+10	1
4902554	80	C	04/25/2023	12:53	-132.701	47.738	0	162.00	0	6.0970	0	33.6100	0	26.444	0	160.581	0	-1e10	8	-1e10	8	-1E+10	1	-1E+10	1	-1E+10	1	-1E+10	1	-1E+10	1	-1E+10	1
4902554	80	C	04/25/2023	12:53	-132.701	47.738	0	162.90	0	6.0970	0	33.6130	0	26.446	0	161.473	0	-1e10	8	-1e10	8	-1E+10	1	-1E+10	1	-1E+10	1	-1E+10	1	-1E+10	1	-1E+10	1
4902554	80	C	04/25/2023	12:53	-132.701	47.738	0	163.90	0	6.0970	0	33.6140	0	26.447	0	162.464	0	-1e10	8	-1e10	8	-1E+10	1	-1E+10	1	-1E+10	1	-1E+10	1	-1E+10	1	-1E+10	1
4902554	80	C	04/25/2023	12:53	-132.701	47.738	0	164.80	0	6.1010	0	33.6220	0	26.453	0	163.356	0	-1e10	8	-1e10	8	-1E+10	1	-1E+10	1	-1E+10	1	-1E+10	1	-1E+10	1	-1E+10	1
4902554	80	C	04/25/2023	12:53	-132.701	47.738	0	165.80	0	6.1020	0	33.6220	0	26.453	0	164.347	0	-1e10	8	-1e10	8	-1E+10	1	-1E+10	1	-1E+10	1	-1E+10	1	-1E+10	1	-1E+10	1
4902554	80	C	04/25/2023	12:53	-132.701	47.738	0	166.80	0	6.0990	0	33.6300	0	26.460	0	165.337	0	-1e10	8	-1e10	8	-1E+10	1	-1E+10	1	-1E+10	1	-1E+10	1	-1E+10	1	-1E+10	1
4902554	80	C	04/25/2023	12:53	-132.701	47.738	0	167.70	0	6.0880	0	33.6470	0	26.474	0	166.229	0	-1e10	8	-1e10	8	-1E+10	1	-1E+10	1	-1E+10	1	-1E+10	1	-1E+10	1	-1E+10	1
4902554	80	C	04/25/2023	12:53	-132.701	47.738	0	168.70	0	6.0660	0	33.6600	0	26.488	0	167.220	0	-1e10	8	-1e10	8	-1E+10	1	-1E+10	1	-1E+10	1	-1E+10	1	-1E+10	1	-1E+10	1
4902554	80	C	04/25/2023	12:53	-132.701	47.738	0	169.70	0	6.0560	0	33.6650	0	26.493	0	168.211	0	-1e10	8	-1e10	8	-1E+10	1	-1E+10	1	-1E+10	1	-1E+10	1	-1E+10	1	-1E+10	1
4902554	80	C	04/25/2023	12:53	-132.701	47.738	0	170.70	0	6.0510	0	33.6670	0	26.495	0	169.202	0	-1e10	8	-1e10	8	-1E+10	1	-1E+10	1	-1E+10	1	-1E+10	1	-1E+10	1	-1E+10	1
4902554	80	C	04/25/2023	12:53	-132.701	47.738	0	171.80	0	6.0470	0	33.6690	0	26.497	0	170.292	0	-1e10	8	-1e10	8	-1E+10	1	-1E+10	1	-1E+10	1	-1E+10	1	-1E+10	1	-1E+10	1
4902554	80	C	04/25/2023	12:53	-132.701	47.738	0	172.80	0	6.0400	0	33.6720	0	26.500	0	171.282	0	-1e10	8	-1e10	8	-1E+10	1	-1E+10	1	-1E+10	1	-1E+10	1	-1E+10	1	-1E+10	1
4902554	80	C	04/25/2023	12:53	-132.701	47.738	0	173.90	0	6.0380	0	33.6720	0	26.501	0	172.372	0	-1e10	8	-1e10	8	-1E+10	1	-1E+10	1	-1E+10	1	-1E+10	1	-1E+10	1	-1E+10	1
4902554	80	C	04/25/2023	12:53	-132.701	47.738	0	174.90	0	6.0300	0	33.6720	0	26.502	0	173.363	0	-1e10	8	-1e10	8	-1E+10	1	-1E+10	1	-1E+10	1	-1E+10	1	-1E+10	1	-1E+10	1
4902554	80	C	04/25/2023	12:53	-132.701	47.738	0	176.00	0	6.0000	0	33.6820	0	26.513	0	174.453	0	-1e10	8	-1e10	8	-1E+10	1	-1E+10	1	-1E+10	1	-1E+10	1	-1E+10	1	-1E+10	1
4902554	80	C	04/25/2023	12:53	-132.701	47.738	0	177.00	0	5.9640	0	33.6920	0	26.526	0	175.444	0	-1e10	8	-1e10	8	-1E+10	1	-1E+10	1	-1E+10	1	-1E+10	1	-1E+10	1	-1E+10	1
4902554	80	C	04/25/2023	12:53	-132.701	47.738	0	178.10	0	5.9160	0	33.7030	0	26.540	0	176.534	0	-1e10	8	-1e10	8	-1E+10	1	-1E+10	1	-1E+10	1	-1E+10	1	-1E+10	1	-1E+10	1
4902554	80	C	04/25/2023	12:53	-132.701	47.738	0	179.10	0	5.9110	0	33.7050	0	26.542	0	177.524	0	-1e10	8	-1e10	8	-1E+10	1	-1E+10	1	-1E+10	1	-1E+10	1	-1E+10	1	-1E+10	1
4902554	80	C	04/25/2023	12:53	-132.701	47.738	0	180.20	0	5.8990	0	33.7090	0	26.547	0	178.614	0	-1e10	8	-1e10	8	-1E+10	1	-1E+10	1	-1E+10	1	-1E+10	1	-1E+10	1	-1E+10	1
4902554	80	C	04/25/2023	12:53	-132.701	47.738	0	181.30	0	5.8820	0	33.7110	0	26.551	0	179.704	0	-1e10	8	-1e10	8	-1E+10	1	-1E+10	1	-1E+10	1	-1E+10	1	-1E+10	1	-1E+10	1
4902554	80	C	04/25/2023	12:53	-132.701	47.738	0	182.40	0	5.8720	0	33.7120	0	26.553	0	180.794	0	-1e10	8	-1e10	8	-1E+10	1	-1E+10	1	-1E+10	1	-1E+10	1	-1E+10	1	-1E+10	1
4902554	80	C	04/25/2023	12:53	-132.701	47.738	0	183.40	0	5.8670	0	33.7130	0	26.554	0	181.785	0	-1e10	8	-1e10	8	-1E+10	1	-1E+10	1	-1E+10	1	-1E+10	1	-1E+10	1	-1E+10	1
4902554	80	C	04/25/2023	12:53	-132.701	47.738	0	184.50	0	5.8620	0	33.7120	0	26.554	0	182.874	0	-1e10	8	-1e10	8	-1E+10	1	-1E+10	1	-1E+10	1	-1E+10	1	-1E+10	1	-1E+10	1
4902554	80	C	04/25/2023	12:53	-132.701	47.738	0	185.50	0	5.8570	0	33.7130	0	26.556	0	183.865	0	-1e10	8	-1e10	8	-1E+10	1	-1E+10	1	-1E+10	1	-1E+10	1	-1E+10	1	-1E+10	1
4902554	80	C	04/25/2023	12:53	-132.701	47.738	0	186.60	0	5.8280	0	33.7160	0	26.561	0	184.955	0	-1e10	8	-1e10	8	-1E+10	1	-1E+10	1	-1E+10	1	-1E+10	1	-1E+10	1	-1E+10	1
4902554	80	C	04/25/2023	12:53	-132.701	47.738	0	187.70	0	5.7470	0	33.7370	0	26.588	0	186.045	0	-1e10	8	-1e10	8	-1E+10	1	-1E+10	1	-1E+10	1	-1E+10	1	-1E+10	1	-1E+10	1
4902554	80	C	04/25/2023	12:53	-132.701	47.738	0	188.70	0	5.7290	0	33.7300	0	26.585	0	187.036	0	-1e10	8	-1e10	8	-1E+10	1	-1E+10	1	-1E+10	1	-1E+10	1	-1E+10	1	-1E+10	1
4902554	80	C	04/25/2023	12:53	-132.701	47.738	0	189.80	0	5.7170	0	33.7300	0	26.586	0	188.125	0	-1e10	8	-1e10	8	-1E+10	1	-1E+10	1	-1E+10	1	-1E+10	1	-1E+10	1	-1E+10	1
4902554	80	C	04/25/2023	12:53	-132.701	47.738	0	190.90	0	5.7030	0	33.7320	0	26.589	0	189.215	0	-1e10	8	-1e10	8	-1E+10	1	-1E+10	1	-1E+10	1	-1E+10	1	-1E+10	1	-1E+10	1
4902554	80	C	04/25/2023	12:53	-132.701	47.738	0	191.90	0	5.6750	0	33.7350	0	26.595	0	190.206	0	-1e10	8	-1e10	8	-1E+10	1	-1E+10	1	-1E+10	1	-1E+10	1	-1E+10	1	-1E+10	1
4902554	80	C	04/25/2023	12:53	-132.701	47.738	0	193.00	0	5.6490	0	33.7370	0	26.600	0	191.296	0	-1e10	8	-1e10	8	-1E+10	1	-1E+10	1	-1E+10	1	-1E+10	1	-1E+10	1	-1E+10	1
4902554	80	C	04/25/2023	12:53	-132.701	47.738	0	194.00	0	5.6460	0	33.7370	0	26.600	0	192.286	0	-1e10	8	-1e10	8	-1E+10	1	-1E+10	1	-1E+10	1	-1E+10	1	-1E+10	1	-1E+10	1
4902554	80	C	04/25/2023	12:53	-132.701	47.738	0	195.10	0	5.6280	0	33.7430	0	26.607	0	193.376	0	-1e10	8	-1e10	8	-1E+10	1	-1E+10	1	-1E+10	1	-1E+10	1	-1E+10	1	-1E+10	1
4902554	80	C	04/25/2023	12:53	-132.701	47.738	0	196.10	0	5.6250	0	33.7400	0	26.605	0	194.367	0	-1e10	8	-1e10	8	-1E+10	1	-1E+10	1	-1E+10	1	-1E+10	1	-1E+10	1	-1E+10	1
4902554	80	C	04/25/2023	12:53	-132.701	47.738	0	197.20	0	5.6210	0	33.7390	0	26.605	0	195.457	0	-1e10	8	-1e10	8	-1E+10	1	-1E+10	1	-1E+10	1	-1E+10	1	-1E+10	1	-1E+10	1
4902554	80	C	04/25/2023	12:53	-132.701	47.738	0	198.30	0	5.6220	0	33.7380	0	26.604	0	196.546	0	-1e10	8	-1e10	8	-1E+10	1	-1E+10	1	-1E+10	1	-1E+10	1	-1E+10	1	-1E+10	1
4902554	80	C	04/25/2023	12:53	-132.701	47.738	0	199.40	0	5.6200	0	33.7400	0	26.606	0	197.636	0	-1e10	8	-1e10	8	-1E+10	1	-1E+10	1	-1E+10	1	-1E+10	1	-1E+10	1	-1E+10	1
4902554	80	C	04/25/2023	12:53	-132.701	47.738	0	200.40	0	5.6190	0	33.7390	0	26.605	0	198.627	0	-1e10	8	-1e10	8	-1E+10	1	-1E+10	1	-1E+10	1	-1E+10	1	-1E+10	1	-1E+10	1
4902554	80	C	04/25/2023	12:53	-132.701	47.738	0	201.50	0	5.6110	0	33.7390	0	26.606	0	199.716	0	-1e10	8	-1e10	8	-1E+10	1	-1E+10	1	-1E+10	1	-1E+10	1	-1E+10	1	-1E+10	1
4902554	80	C	04/25/2023	12:53	-132.701	47.738	0	202.50	0	5.6060	0	33.7400	0	26.608	0	200.707	0	-1e10	8	-1e10	8	-1E+10	1	-1E+10	1	-1E+10	1	-1E+10	1	-1E+10	1	-1E+10	1
4902554	80	C	04/25/2023	12:53	-132.701	47.738	0	203.60	0	5.5890	0	33.7400	0	26.610	0	201.797	0	-1e10	8	-1e10	8	-1E+10	1	-1E+10	1	-1E+10	1	-1E+10	1	-1E+10	1	-1E+10	1
4902554	80	C	04/25/2023	12:53	-132.701	47.738	0	204.60	0	5.5610	0	33.7420	0	26.615	0	202.788	0	-1e10	8	-1e10	8	-1E+10	1	-1E+10	1	-1E+10	1	-1E+10	1	-1E+10	1	-1E+10	1
4902554	80	C	04/25/2023	12:53	-132.701	47.738	0	205.70	0	5.5430	0	33.7430	0	26.617	0	203.877	0	-1e10	8	-1e10	8	-1E+10	1	-1E+10	1	-1E+10	1	-1E+10	1	-1E+10	1	-1E+10	1
4902554	80	C	04/25/2023	12:53	-132.701	47.738	0	206.80	0	5.5080	0	33.7470	0	26.625	0	204.967	0	-1e10	8	-1e10	8	-1E+10	1	-1E+10	1	-1E+10	1	-1E+10	1	-1E+10	1	-1E+10	1
4902554	80	C	04/25/2023	12:53	-132.701	47.738	0	207.80	0	5.4890	0	33.7460	0	26.626	0	205.958	0	-1e10	8	-1e10	8	-1E+10	1	-1E+10	1	-1E+10	1	-1E+10	1	-1E+10	1	-1E+10	1
4902554	80	C	04/25/2023	12:53	-132.701	47.738	0	208.90	0	5.4770	0	33.7480	0	26.629	0	207.047	0	-1e10	8	-1e10	8	-1E+10	1	-1E+10	1	-1E+10	1	-1E+10	1	-1E+10	1	-1E+10	1
4902554	80	C	04/25/2023	12:53	-132.701	47.738	0	210.00	0	5.4630	0	33.7460	0	26.629	0	208.137	0	-1e10	8	-1e10	8	-1E+10	1	-1E+10	1	-1E+10	1	-1E+10	1	-1E+10	1	-1E+10	1
4902554	80	C	04/25/2023	12:53	-132.701	47.738	0	211.00	0	5.4570	0	33.7480	0	26.632	0	209.128	0	-1e10	8	-1e10	8	-1E+10	1	-1E+10	1	-1E+10	1	-1E+10	1	-1E+10	1	-1E+10	1
4902554	80	C	04/25/2023	12:53	-132.701	47.738	0	212.10	0	5.4510	0	33.7490	0	26.633	0	210.217	0	-1e10	8	-1e10	8	-1E+10	1	-1E+10	1	-1E+10	1	-1E+10	1	-1E+10	1	-1E+10	1
4902554	80	C	04/25/2023	12:53	-132.701	47.738	0	213.20	0	5.4350	0	33.7500	0	26.636	0	211.307	0	-1e10	8	-1e10	8	-1E+10	1	-1E+10	1	-1E+10	1	-1E+10	1	-1E+10	1	-1E+10	1
4902554	80	C	04/25/2023	12:53	-132.701	47.738	0	214.30	0	5.4190	0	33.7520	0	26.639	0	212.397	0	-1e10	8	-1e10	8	-1E+10	1	-1E+10	1	-1E+10	1	-1E+10	1	-1E+10	1	-1E+10	1
4902554	80	C	04/25/2023	12:53	-132.701	47.738	0	215.30	0	5.3950	0	33.7530	0	26.643	0	213.387	0	-1e10	8	-1e10	8	-1E+10	1	-1E+10	1	-1E+10	1	-1E+10	1	-1E+10	1	-1E+10	1
4902554	80	C	04/25/2023	12:53	-132.701	47.738	0	216.30	0	5.3910	0	33.7520	0	26.643	0	214.378	0	-1e10	8	-1e10	8	-1E+10	1	-1E+10	1	-1E+10	1	-1E+10	1	-1E+10	1	-1E+10	1
4902554	80	C	04/25/2023	12:53	-132.701	47.738	0	217.40	0	5.3740	0	33.7530	0	26.646	0	215.467	0	-1e10	8	-1e10	8	-1E+10	1	-1E+10	1	-1E+10	1	-1E+10	1	-1E+10	1	-1E+10	1
4902554	80	C	04/25/2023	12:53	-132.701	47.738	0	218.40	0	5.3660	0	33.7550	0	26.648	0	216.458	0	-1e10	8	-1e10	8	-1E+10	1	-1E+10	1	-1E+10	1	-1E+10	1	-1E+10	1	-1E+10	1
4902554	80	C	04/25/2023	12:53	-132.701	47.738	0	219.50	0	5.3450	0	33.7560	0	26.651	0	217.548	0	-1e10	8	-1e10	8	-1E+10	1	-1E+10	1	-1E+10	1	-1E+10	1	-1E+10	1	-1E+10	1
4902554	80	C	04/25/2023	12:53	-132.701	47.738	0	220.50	0	5.3380	0	33.7580	0	26.654	0	218.538	0	-1e10	8	-1e10	8	-1E+10	1	-1E+10	1	-1E+10	1	-1E+10	1	-1E+10	1	-1E+10	1
4902554	80	C	04/25/2023	12:53	-132.701	47.738	0	221.60	0	5.3320	0	33.7590	0	26.655	0	219.628	0	-1e10	8	-1e10	8	-1E+10	1	-1E+10	1	-1E+10	1	-1E+10	1	-1E+10	1	-1E+10	1
4902554	80	C	04/25/2023	12:53	-132.701	47.738	0	222.60	0	5.3140	0	33.7560	0	26.655	0	220.618	0	-1e10	8	-1e10	8	-1E+10	1	-1E+10	1	-1E+10	1	-1E+10	1	-1E+10	1	-1E+10	1
4902554	80	C	04/25/2023	12:53	-132.701	47.738	0	223.70	0	5.2940	0	33.7600	0	26.661	0	221.708	0	-1e10	8	-1e10	8	-1E+10	1	-1E+10	1	-1E+10	1	-1E+10	1	-1E+10	1	-1E+10	1
4902554	80	C	04/25/2023	12:53	-132.701	47.738	0	224.70	0	5.2780	0	33.7610	0	26.663	0	222.699	0	-1e10	8	-1e10	8	-1E+10	1	-1E+10	1	-1E+10	1	-1E+10	1	-1E+10	1	-1E+10	1
4902554	80	C	04/25/2023	12:53	-132.701	47.738	0	225.80	0	5.2840	0	33.7670	0	26.667	0	223.788	0	-1e10	8	-1e10	8	-1E+10	1	-1E+10	1	-1E+10	1	-1E+10	1	-1E+10	1	-1E+10	1
4902554	80	C	04/25/2023	12:53	-132.701	47.738	0	226.80	0	5.2900	0	33.7670	0	26.667	0	224.779	0	-1e10	8	-1e10	8	-1E+10	1	-1E+10	1	-1E+10	1	-1E+10	1	-1E+10	1	-1E+10	1
4902554	80	C	04/25/2023	12:53	-132.701	47.738	0	227.80	0	5.2930	0	33.7700	0	26.669	0	225.769	0	-1e10	8	-1e10	8	-1E+10	1	-1E+10	1	-1E+10	1	-1E+10	1	-1E+10	1	-1E+10	1
4902554	80	C	04/25/2023	12:53	-132.701	47.738	0	228.80	0	5.2930	0	33.7700	0	26.669	0	226.760	0	-1e10	8	-1e10	8	-1E+10	1	-1E+10	1	-1E+10	1	-1E+10	1	-1E+10	1	-1E+10	1
4902554	80	C	04/25/2023	12:53	-132.701	47.738	0	229.90	0	5.2790	0	33.7730	0	26.673	0	227.849	0	-1e10	8	-1e10	8	-1E+10	1	-1E+10	1	-1E+10	1	-1E+10	1	-1E+10	1	-1E+10	1
4902554	80	C	04/25/2023	12:53	-132.701	47.738	0	230.90	0	5.2660	0	33.7730	0	26.674	0	228.840	0	-1e10	8	-1e10	8	-1E+10	1	-1E+10	1	-1E+10	1	-1E+10	1	-1E+10	1	-1E+10	1
4902554	80	C	04/25/2023	12:53	-132.701	47.738	0	231.90	0	5.2390	0	33.7730	0	26.677	0	229.830	0	-1e10	8	-1e10	8	-1E+10	1	-1E+10	1	-1E+10	1	-1E+10	1	-1E+10	1	-1E+10	1
4902554	80	C	04/25/2023	12:53	-132.701	47.738	0	232.90	0	5.2210	0	33.7730	0	26.679	0	230.821	0	-1e10	8	-1e10	8	-1E+10	1	-1E+10	1	-1E+10	1	-1E+10	1	-1E+10	1	-1E+10	1
4902554	80	C	04/25/2023	12:53	-132.701	47.738	0	234.00	0	5.2030	0	33.7740	0	26.682	0	231.911	0	-1e10	8	-1e10	8	-1E+10	1	-1E+10	1	-1E+10	1	-1E+10	1	-1E+10	1	-1E+10	1
4902554	80	C	04/25/2023	12:53	-132.701	47.738	0	235.00	0	5.1960	0	33.7730	0	26.682	0	232.901	0	-1e10	8	-1e10	8	-1E+10	1	-1E+10	1	-1E+10	1	-1E+10	1	-1E+10	1	-1E+10	1
4902554	80	C	04/25/2023	12:53	-132.701	47.738	0	236.00	0	5.1850	0	33.7740	0	26.684	0	233.892	0	-1e10	8	-1e10	8	-1E+10	1	-1E+10	1	-1E+10	1	-1E+10	1	-1E+10	1	-1E+10	1
4902554	80	C	04/25/2023	12:53	-132.701	47.738	0	237.10	0	5.1790	0	33.7740	0	26.685	0	234.981	0	-1e10	8	-1e10	8	-1E+10	1	-1E+10	1	-1E+10	1	-1E+10	1	-1E+10	1	-1E+10	1
4902554	80	C	04/25/2023	12:53	-132.701	47.738	0	238.10	0	5.1750	0	33.7750	0	26.686	0	235.972	0	-1e10	8	-1e10	8	-1E+10	1	-1E+10	1	-1E+10	1	-1E+10	1	-1E+10	1	-1E+10	1
4902554	80	C	04/25/2023	12:53	-132.701	47.738	0	239.20	0	5.1680	0	33.7760	0	26.688	0	237.061	0	-1e10	8	-1e10	8	-1E+10	1	-1E+10	1	-1E+10	1	-1E+10	1	-1E+10	1	-1E+10	1
4902554	80	C	04/25/2023	12:53	-132.701	47.738	0	240.20	0	5.1640	0	33.7760	0	26.688	0	238.052	0	-1e10	8	-1e10	8	-1E+10	1	-1E+10	1	-1E+10	1	-1E+10	1	-1E+10	1	-1E+10	1
4902554	80	C	04/25/2023	12:53	-132.701	47.738	0	241.30	0	5.1600	0	33.7750	0	26.688	0	239.141	0	-1e10	8	-1e10	8	-1E+10	1	-1E+10	1	-1E+10	1	-1E+10	1	-1E+10	1	-1E+10	1
4902554	80	C	04/25/2023	12:53	-132.701	47.738	0	242.30	0	5.1370	0	33.7810	0	26.695	0	240.132	0	-1e10	8	-1e10	8	-1E+10	1	-1E+10	1	-1E+10	1	-1E+10	1	-1E+10	1	-1E+10	1
4902554	80	C	04/25/2023	12:53	-132.701	47.738	0	243.30	0	5.1100	0	33.7780	0	26.696	0	241.122	0	-1e10	8	-1e10	8	-1E+10	1	-1E+10	1	-1E+10	1	-1E+10	1	-1E+10	1	-1E+10	1
4902554	80	C	04/25/2023	12:53	-132.701	47.738	0	244.40	0	5.1020	0	33.7800	0	26.699	0	242.212	0	-1e10	8	-1e10	8	-1E+10	1	-1E+10	1	-1E+10	1	-1E+10	1	-1E+10	1	-1E+10	1
4902554	80	C	04/25/2023	12:53	-132.701	47.738	0	245.40	0	5.0870	0	33.7780	0	26.699	0	243.202	0	-1e10	8	-1e10	8	-1E+10	1	-1E+10	1	-1E+10	1	-1E+10	1	-1E+10	1	-1E+10	1
4902554	80	C	04/25/2023	12:53	-132.701	47.738	0	246.40	0	5.0860	0	33.7790	0	26.700	0	244.193	0	-1e10	8	-1e10	8	-1E+10	1	-1E+10	1	-1E+10	1	-1E+10	1	-1E+10	1	-1E+10	1
4902554	80	C	04/25/2023	12:53	-132.701	47.738	0	247.50	0	5.0810	0	33.7810	0	26.702	0	245.282	0	-1e10	8	-1e10	8	-1E+10	1	-1E+10	1	-1E+10	1	-1E+10	1	-1E+10	1	-1E+10	1
4902554	80	C	04/25/2023	12:53	-132.701	47.738	0	248.60	0	5.0790	0	33.7800	0	26.701	0	246.372	0	-1e10	8	-1e10	8	-1E+10	1	-1E+10	1	-1E+10	1	-1E+10	1	-1E+10	1	-1E+10	1
4902554	80	C	04/25/2023	12:53	-132.701	47.738	0	249.60	0	5.0760	0	33.7820	0	26.703	0	247.362	0	-1e10	8	-1e10	8	-1E+10	1	-1E+10	1	-1E+10	1	-1E+10	1	-1E+10	1	-1E+10	1
4902554	80	C	04/25/2023	12:53	-132.701	47.738	0	250.60	0	5.0680	0	33.7810	0	26.703	0	248.352	0	-1e10	8	-1e10	8	-1E+10	1	-1E+10	1	-1E+10	1	-1E+10	1	-1E+10	1	-1E+10	1
4902554	80	C	04/25/2023	12:53	-132.701	47.738	0	251.60	0	5.0520	0	33.7820	0	26.706	0	249.343	0	-1e10	8	-1e10	8	-1E+10	1	-1E+10	1	-1E+10	1	-1E+10	1	-1E+10	1	-1E+10	1
4902554	80	C	04/25/2023	12:53	-132.701	47.738	0	252.90	0	5.0470	0	33.7820	0	26.707	0	250.630	0	-1e10	8	-1e10	8	-1E+10	1	-1E+10	1	-1E+10	1	-1E+10	1	-1E+10	1	-1E+10	1
4902554	80	C	04/25/2023	12:53	-132.701	47.738	0	254.10	0	5.0370	0	33.7830	0	26.709	0	251.819	0	-1e10	8	-1e10	8	-1E+10	1	-1E+10	1	-1E+10	1	-1E+10	1	-1E+10	1	-1E+10	1
4902554	80	C	04/25/2023	12:53	-132.701	47.738	0	254.80	0	5.0320	0	33.7830	0	26.709	0	252.512	0	-1e10	8	-1e10	8	-1E+10	1	-1E+10	1	-1E+10	1	-1E+10	1	-1E+10	1	-1E+10	1
4902554	80	C	04/25/2023	12:53	-132.701	47.738	0	256.00	0	5.0230	0	33.7830	0	26.710	0	253.701	0	-1e10	8	-1e10	8	-1E+10	1	-1E+10	1	-1E+10	1	-1E+10	1	-1E+10	1	-1E+10	1
4902554	80	C	04/25/2023	12:53	-132.701	47.738	0	257.20	0	5.0100	0	33.7840	0	26.712	0	254.889	0	-1e10	8	-1e10	8	-1E+10	1	-1E+10	1	-1E+10	1	-1E+10	1	-1E+10	1	-1E+10	1
4902554	80	C	04/25/2023	12:53	-132.701	47.738	0	258.00	0	4.9980	0	33.7850	0	26.715	0	255.681	0	-1e10	8	-1e10	8	-1E+10	1	-1E+10	1	-1E+10	1	-1E+10	1	-1E+10	1	-1E+10	1
4902554	80	C	04/25/2023	12:53	-132.701	47.738	0	258.80	0	4.9780	0	33.7890	0	26.720	0	256.474	0	-1e10	8	-1e10	8	-1E+10	1	-1E+10	1	-1E+10	1	-1E+10	1	-1E+10	1	-1E+10	1
4902554	80	C	04/25/2023	12:53	-132.701	47.738	0	260.00	0	4.9630	0	33.7890	0	26.722	0	257.662	0	-1e10	8	-1e10	8	-1E+10	1	-1E+10	1	-1E+10	1	-1E+10	1	-1E+10	1	-1E+10	1
4902554	80	C	04/25/2023	12:53	-132.701	47.738	0	261.30	0	4.9600	0	33.7890	0	26.722	0	258.950	0	-1e10	8	-1e10	8	-1E+10	1	-1E+10	1	-1E+10	1	-1E+10	1	-1E+10	1	-1E+10	1
4902554	80	C	04/25/2023	12:53	-132.701	47.738	0	262.10	0	4.9520	0	33.7910	0	26.725	0	259.742	0	-1e10	8	-1e10	8	-1E+10	1	-1E+10	1	-1E+10	1	-1E+10	1	-1E+10	1	-1E+10	1
4902554	80	C	04/25/2023	12:53	-132.701	47.738	0	262.80	0	4.9440	0	33.7900	0	26.725	0	260.435	0	-1e10	8	-1e10	8	-1E+10	1	-1E+10	1	-1E+10	1	-1E+10	1	-1E+10	1	-1E+10	1
4902554	80	C	04/25/2023	12:53	-132.701	47.738	0	263.70	0	4.9210	0	33.7940	0	26.730	0	261.327	0	-1e10	8	-1e10	8	-1E+10	1	-1E+10	1	-1E+10	1	-1E+10	1	-1E+10	1	-1E+10	1
4902554	80	C	04/25/2023	12:53	-132.701	47.738	0	264.90	0	4.9170	0	33.7940	0	26.731	0	262.515	0	-1e10	8	-1e10	8	-1E+10	1	-1E+10	1	-1E+10	1	-1E+10	1	-1E+10	1	-1E+10	1
4902554	80	C	04/25/2023	12:53	-132.701	47.738	0	266.10	0	4.9060	0	33.7960	0	26.734	0	263.704	0	-1e10	8	-1e10	8	-1E+10	1	-1E+10	1	-1E+10	1	-1E+10	1	-1E+10	1	-1E+10	1
4902554	80	C	04/25/2023	12:53	-132.701	47.738	0	267.00	0	4.9050	0	33.7960	0	26.734	0	264.595	0	-1e10	8	-1e10	8	-1E+10	1	-1E+10	1	-1E+10	1	-1E+10	1	-1E+10	1	-1E+10	1
4902554	80	C	04/25/2023	12:53	-132.701	47.738	0	267.80	0	4.9040	0	33.7960	0	26.734	0	265.387	0	-1e10	8	-1e10	8	-1E+10	1	-1E+10	1	-1E+10	1	-1E+10	1	-1E+10	1	-1E+10	1
4902554	80	C	04/25/2023	12:53	-132.701	47.738	0	268.60	0	4.9050	0	33.7950	0	26.733	0	266.179	0	-1e10	8	-1e10	8	-1E+10	1	-1E+10	1	-1E+10	1	-1E+10	1	-1E+10	1	-1E+10	1
4902554	80	C	04/25/2023	12:53	-132.701	47.738	0	269.90	0	4.8810	0	33.7990	0	26.739	0	267.467	0	-1e10	8	-1e10	8	-1E+10	1	-1E+10	1	-1E+10	1	-1E+10	1	-1E+10	1	-1E+10	1
4902554	80	C	04/25/2023	12:53	-132.701	47.738	0	271.20	0	4.8670	0	33.8000	0	26.741	0	268.754	0	-1e10	8	-1e10	8	-1E+10	1	-1E+10	1	-1E+10	1	-1E+10	1	-1E+10	1	-1E+10	1
4902554	80	C	04/25/2023	12:53	-132.701	47.738	0	272.00	0	4.8660	0	33.8010	0	26.742	0	269.547	0	-1e10	8	-1e10	8	-1E+10	1	-1E+10	1	-1E+10	1	-1E+10	1	-1E+10	1	-1E+10	1
4902554	80	C	04/25/2023	12:53	-132.701	47.738	0	272.90	0	4.8640	0	33.8010	0	26.742	0	270.438	0	-1e10	8	-1e10	8	-1E+10	1	-1E+10	1	-1E+10	1	-1E+10	1	-1E+10	1	-1E+10	1
4902554	80	C	04/25/2023	12:53	-132.701	47.738	0	273.70	0	4.8580	0	33.8020	0	26.744	0	271.230	0	-1e10	8	-1e10	8	-1E+10	1	-1E+10	1	-1E+10	1	-1E+10	1	-1E+10	1	-1E+10	1
4902554	80	C	04/25/2023	12:53	-132.701	47.738	0	274.90	0	4.8530	0	33.8030	0	26.745	0	272.418	0	-1e10	8	-1e10	8	-1E+10	1	-1E+10	1	-1E+10	1	-1E+10	1	-1E+10	1	-1E+10	1
4902554	80	C	04/25/2023	12:53	-132.701	47.738	0	276.20	0	4.8510	0	33.8030	0	26.746	0	273.706	0	-1e10	8	-1e10	8	-1E+10	1	-1E+10	1	-1E+10	1	-1E+10	1	-1E+10	1	-1E+10	1
4902554	80	C	04/25/2023	12:53	-132.701	47.738	0	277.10	0	4.8490	0	33.8030	0	26.746	0	274.597	0	-1e10	8	-1e10	8	-1E+10	1	-1E+10	1	-1E+10	1	-1E+10	1	-1E+10	1	-1E+10	1
4902554	80	C	04/25/2023	12:53	-132.701	47.738	0	277.90	0	4.8480	0	33.8030	0	26.746	0	275.389	0	-1e10	8	-1e10	8	-1E+10	1	-1E+10	1	-1E+10	1	-1E+10	1	-1E+10	1	-1E+10	1
4902554	80	C	04/25/2023	12:53	-132.701	47.738	0	278.80	0	4.8430	0	33.8040	0	26.747	0	276.281	0	-1e10	8	-1e10	8	-1E+10	1	-1E+10	1	-1E+10	1	-1E+10	1	-1E+10	1	-1E+10	1
4902554	80	C	04/25/2023	12:53	-132.701	47.738	0	280.00	0	4.8320	0	33.8050	0	26.749	0	277.469	0	-1e10	8	-1e10	8	-1E+10	1	-1E+10	1	-1E+10	1	-1E+10	1	-1E+10	1	-1E+10	1
4902554	80	C	04/25/2023	12:53	-132.701	47.738	0	281.20	0	4.8240	0	33.8060	0	26.751	0	278.657	0	-1e10	8	-1e10	8	-1E+10	1	-1E+10	1	-1E+10	1	-1E+10	1	-1E+10	1	-1E+10	1
4902554	80	C	04/25/2023	12:53	-132.701	47.738	0	282.10	0	4.8170	0	33.8070	0	26.753	0	279.549	0	-1e10	8	-1e10	8	-1E+10	1	-1E+10	1	-1E+10	1	-1E+10	1	-1E+10	1	-1E+10	1
4902554	80	C	04/25/2023	12:53	-132.701	47.738	0	282.90	0	4.8140	0	33.8070	0	26.753	0	280.341	0	-1e10	8	-1e10	8	-1E+10	1	-1E+10	1	-1E+10	1	-1E+10	1	-1E+10	1	-1E+10	1
4902554	80	C	04/25/2023	12:53	-132.701	47.738	0	283.70	0	4.7830	0	33.8120	0	26.760	0	281.133	0	-1e10	8	-1e10	8	-1E+10	1	-1E+10	1	-1E+10	1	-1E+10	1	-1E+10	1	-1E+10	1
4902554	80	C	04/25/2023	12:53	-132.701	47.738	0	285.00	0	4.7720	0	33.8140	0	26.763	0	282.420	0	-1e10	8	-1e10	8	-1E+10	1	-1E+10	1	-1E+10	1	-1E+10	1	-1E+10	1	-1E+10	1
4902554	80	C	04/25/2023	12:53	-132.701	47.738	0	286.30	0	4.7600	0	33.8160	0	26.766	0	283.708	0	-1e10	8	-1e10	8	-1E+10	1	-1E+10	1	-1E+10	1	-1E+10	1	-1E+10	1	-1E+10	1
4902554	80	C	04/25/2023	12:53	-132.701	47.738	0	287.20	0	4.7530	0	33.8180	0	26.768	0	284.599	0	-1e10	8	-1e10	8	-1E+10	1	-1E+10	1	-1E+10	1	-1E+10	1	-1E+10	1	-1E+10	1
4902554	80	C	04/25/2023	12:53	-132.701	47.738	0	288.00	0	4.7430	0	33.8190	0	26.770	0	285.391	0	-1e10	8	-1e10	8	-1E+10	1	-1E+10	1	-1E+10	1	-1E+10	1	-1E+10	1	-1E+10	1
4902554	80	C	04/25/2023	12:53	-132.701	47.738	0	288.90	0	4.7380	0	33.8200	0	26.772	0	286.282	0	-1e10	8	-1e10	8	-1E+10	1	-1E+10	1	-1E+10	1	-1E+10	1	-1E+10	1	-1E+10	1
4902554	80	C	04/25/2023	12:53	-132.701	47.738	0	289.70	0	4.7330	0	33.8210	0	26.773	0	287.075	0	-1e10	8	-1e10	8	-1E+10	1	-1E+10	1	-1E+10	1	-1E+10	1	-1E+10	1	-1E+10	1
4902554	80	C	04/25/2023	12:53	-132.701	47.738	0	291.00	0	4.7100	0	33.8250	0	26.779	0	288.362	0	-1e10	8	-1e10	8	-1E+10	1	-1E+10	1	-1E+10	1	-1E+10	1	-1E+10	1	-1E+10	1
4902554	80	C	04/25/2023	12:53	-132.701	47.738	0	292.30	0	4.6930	0	33.8290	0	26.784	0	289.649	0	-1e10	8	-1e10	8	-1E+10	1	-1E+10	1	-1E+10	1	-1E+10	1	-1E+10	1	-1E+10	1
4902554	80	C	04/25/2023	12:53	-132.701	47.738	0	293.10	0	4.6900	0	33.8290	0	26.784	0	290.441	0	-1e10	8	-1e10	8	-1E+10	1	-1E+10	1	-1E+10	1	-1E+10	1	-1E+10	1	-1E+10	1
4902554	80	C	04/25/2023	12:53	-132.701	47.738	0	294.00	0	4.6780	0	33.8310	0	26.787	0	291.333	0	-1e10	8	-1e10	8	-1E+10	1	-1E+10	1	-1E+10	1	-1E+10	1	-1E+10	1	-1E+10	1
4902554	80	C	04/25/2023	12:53	-132.701	47.738	0	294.90	0	4.6720	0	33.8330	0	26.789	0	292.224	0	-1e10	8	-1e10	8	-1E+10	1	-1E+10	1	-1E+10	1	-1E+10	1	-1E+10	1	-1E+10	1
4902554	80	C	04/25/2023	12:53	-132.701	47.738	0	295.80	0	4.6700	0	33.8330	0	26.789	0	293.115	0	-1e10	8	-1e10	8	-1E+10	1	-1E+10	1	-1E+10	1	-1E+10	1	-1E+10	1	-1E+10	1
4902554	80	C	04/25/2023	12:53	-132.701	47.738	0	296.70	0	4.6680	0	33.8330	0	26.790	0	294.006	0	-1e10	8	-1e10	8	-1E+10	1	-1E+10	1	-1E+10	1	-1E+10	1	-1E+10	1	-1E+10	1
4902554	80	C	04/25/2023	12:53	-132.701	47.738	0	297.90	0	4.6650	0	33.8340	0	26.791	0	295.194	0	-1e10	8	-1e10	8	-1E+10	1	-1E+10	1	-1E+10	1	-1E+10	1	-1E+10	1	-1E+10	1
4902554	80	C	04/25/2023	12:53	-132.701	47.738	0	299.30	0	4.6620	0	33.8350	0	26.792	0	296.581	0	-1e10	8	-1e10	8	-1E+10	1	-1E+10	1	-1E+10	1	-1E+10	1	-1E+10	1	-1E+10	1
4902554	80	C	04/25/2023	12:53	-132.701	47.738	0	300.20	0	4.6610	0	33.8350	0	26.792	0	297.472	0	-1e10	8	-1e10	8	-1E+10	1	-1E+10	1	-1E+10	1	-1E+10	1	-1E+10	1	-1E+10	1
4902554	80	C	04/25/2023	12:53	-132.701	47.738	0	301.10	0	4.6580	0	33.8350	0	26.792	0	298.363	0	-1e10	8	-1e10	8	-1E+10	1	-1E+10	1	-1E+10	1	-1E+10	1	-1E+10	1	-1E+10	1
4902554	80	C	04/25/2023	12:53	-132.701	47.738	0	302.00	0	4.6500	0	33.8380	0	26.796	0	299.254	0	-1e10	8	-1e10	8	-1E+10	1	-1E+10	1	-1E+10	1	-1E+10	1	-1E+10	1	-1E+10	1
4902554	80	C	04/25/2023	12:53	-132.701	47.738	0	302.90	0	4.6400	0	33.8400	0	26.798	0	300.145	0	-1e10	8	-1e10	8	-1E+10	1	-1E+10	1	-1E+10	1	-1E+10	1	-1E+10	1	-1E+10	1
4902554	80	C	04/25/2023	12:53	-132.701	47.738	0	303.80	0	4.6360	0	33.8420	0	26.800	0	301.037	0	-1e10	8	-1e10	8	-1E+10	1	-1E+10	1	-1E+10	1	-1E+10	1	-1E+10	1	-1E+10	1
4902554	80	C	04/25/2023	12:53	-132.701	47.738	0	304.70	0	4.6320	0	33.8420	0	26.801	0	301.928	0	-1e10	8	-1e10	8	-1E+10	1	-1E+10	1	-1E+10	1	-1E+10	1	-1E+10	1	-1E+10	1
4902554	80	C	04/25/2023	12:53	-132.701	47.738	0	305.60	0	4.6270	0	33.8440	0	26.803	0	302.819	0	-1e10	8	-1e10	8	-1E+10	1	-1E+10	1	-1E+10	1	-1E+10	1	-1E+10	1	-1E+10	1
4902554	80	C	04/25/2023	12:53	-132.701	47.738	0	306.90	0	4.6070	0	33.8480	0	26.808	0	304.106	0	-1e10	8	-1e10	8	-1E+10	1	-1E+10	1	-1E+10	1	-1E+10	1	-1E+10	1	-1E+10	1
4902554	80	C	04/25/2023	12:53	-132.701	47.738	0	308.30	0	4.5960	0	33.8510	0	26.812	0	305.492	0	-1e10	8	-1e10	8	-1E+10	1	-1E+10	1	-1E+10	1	-1E+10	1	-1E+10	1	-1E+10	1
4902554	80	C	04/25/2023	12:53	-132.701	47.738	0	309.20	0	4.5890	0	33.8530	0	26.814	0	306.383	0	-1e10	8	-1e10	8	-1E+10	1	-1E+10	1	-1E+10	1	-1E+10	1	-1E+10	1	-1E+10	1
4902554	80	C	04/25/2023	12:53	-132.701	47.738	0	310.10	0	4.5850	0	33.8540	0	26.816	0	307.275	0	-1e10	8	-1e10	8	-1E+10	1	-1E+10	1	-1E+10	1	-1E+10	1	-1E+10	1	-1E+10	1
4902554	80	C	04/25/2023	12:53	-132.701	47.738	0	311.10	0	4.5800	0	33.8550	0	26.817	0	308.265	0	-1e10	8	-1e10	8	-1E+10	1	-1E+10	1	-1E+10	1	-1E+10	1	-1E+10	1	-1E+10	1
4902554	80	C	04/25/2023	12:53	-132.701	47.738	0	312.00	0	4.5790	0	33.8550	0	26.817	0	309.156	0	-1e10	8	-1e10	8	-1E+10	1	-1E+10	1	-1E+10	1	-1E+10	1	-1E+10	1	-1E+10	1
4902554	80	C	04/25/2023	12:53	-132.701	47.738	0	312.90	0	4.5770	0	33.8550	0	26.817	0	310.047	0	-1e10	8	-1e10	8	-1E+10	1	-1E+10	1	-1E+10	1	-1E+10	1	-1E+10	1	-1E+10	1
4902554	80	C	04/25/2023	12:53	-132.701	47.738	0	313.80	0	4.5710	0	33.8570	0	26.819	0	310.938	0	-1e10	8	-1e10	8	-1E+10	1	-1E+10	1	-1E+10	1	-1E+10	1	-1E+10	1	-1E+10	1
4902554	80	C	04/25/2023	12:53	-132.701	47.738	0	314.70	0	4.5650	0	33.8580	0	26.821	0	311.829	0	-1e10	8	-1e10	8	-1E+10	1	-1E+10	1	-1E+10	1	-1E+10	1	-1E+10	1	-1E+10	1
4902554	80	C	04/25/2023	12:53	-132.701	47.738	0	315.60	0	4.5620	0	33.8580	0	26.821	0	312.720	0	-1e10	8	-1e10	8	-1E+10	1	-1E+10	1	-1E+10	1	-1E+10	1	-1E+10	1	-1E+10	1
4902554	80	C	04/25/2023	12:53	-132.701	47.738	0	316.90	0	4.5590	0	33.8590	0	26.822	0	314.007	0	-1e10	8	-1e10	8	-1E+10	1	-1E+10	1	-1E+10	1	-1E+10	1	-1E+10	1	-1E+10	1
4902554	80	C	04/25/2023	12:53	-132.701	47.738	0	318.40	0	4.5560	0	33.8590	0	26.823	0	315.493	0	-1e10	8	-1e10	8	-1E+10	1	-1E+10	1	-1E+10	1	-1E+10	1	-1E+10	1	-1E+10	1
4902554	80	C	04/25/2023	12:53	-132.701	47.738	0	319.30	0	4.5550	0	33.8590	0	26.823	0	316.384	0	-1e10	8	-1e10	8	-1E+10	1	-1E+10	1	-1E+10	1	-1E+10	1	-1E+10	1	-1E+10	1
4902554	80	C	04/25/2023	12:53	-132.701	47.738	0	320.20	0	4.5530	0	33.8600	0	26.824	0	317.275	0	-1e10	8	-1e10	8	-1E+10	1	-1E+10	1	-1E+10	1	-1E+10	1	-1E+10	1	-1E+10	1
4902554	80	C	04/25/2023	12:53	-132.701	47.738	0	321.10	0	4.5500	0	33.8600	0	26.824	0	318.166	0	-1e10	8	-1e10	8	-1E+10	1	-1E+10	1	-1E+10	1	-1E+10	1	-1E+10	1	-1E+10	1
4902554	80	C	04/25/2023	12:53	-132.701	47.738	0	322.00	0	4.5450	0	33.8620	0	26.826	0	319.057	0	-1e10	8	-1e10	8	-1E+10	1	-1E+10	1	-1E+10	1	-1E+10	1	-1E+10	1	-1E+10	1
4902554	80	C	04/25/2023	12:53	-132.701	47.738	0	322.90	0	4.5210	0	33.8690	0	26.834	0	319.948	0	-1e10	8	-1e10	8	-1E+10	1	-1E+10	1	-1E+10	1	-1E+10	1	-1E+10	1	-1E+10	1
4902554	80	C	04/25/2023	12:53	-132.701	47.738	0	323.90	0	4.5200	0	33.8690	0	26.835	0	320.938	0	-1e10	8	-1e10	8	-1E+10	1	-1E+10	1	-1E+10	1	-1E+10	1	-1E+10	1	-1E+10	1
4902554	80	C	04/25/2023	12:53	-132.701	47.738	0	324.80	0	4.5180	0	33.8690	0	26.835	0	321.829	0	-1e10	8	-1e10	8	-1E+10	1	-1E+10	1	-1E+10	1	-1E+10	1	-1E+10	1	-1E+10	1
4902554	80	C	04/25/2023	12:53	-132.701	47.738	0	325.80	0	4.5180	0	33.8690	0	26.835	0	322.819	0	-1e10	8	-1e10	8	-1E+10	1	-1E+10	1	-1E+10	1	-1E+10	1	-1E+10	1	-1E+10	1
4902554	80	C	04/25/2023	12:53	-132.701	47.738	0	326.70	0	4.5180	0	33.8700	0	26.836	0	323.710	0	-1e10	8	-1e10	8	-1E+10	1	-1E+10	1	-1E+10	1	-1E+10	1	-1E+10	1	-1E+10	1
4902554	80	C	04/25/2023	12:53	-132.701	47.738	0	327.60	0	4.5190	0	33.8700	0	26.835	0	324.601	0	-1e10	8	-1e10	8	-1E+10	1	-1E+10	1	-1E+10	1	-1E+10	1	-1E+10	1	-1E+10	1
4902554	80	C	04/25/2023	12:53	-132.701	47.738	0	328.60	0	4.5190	0	33.8700	0	26.835	0	325.592	0	-1e10	8	-1e10	8	-1E+10	1	-1E+10	1	-1E+10	1	-1E+10	1	-1E+10	1	-1E+10	1
4902554	80	C	04/25/2023	12:53	-132.701	47.738	0	329.60	0	4.5190	0	33.8700	0	26.835	0	326.582	0	-1e10	8	-1e10	8	-1E+10	1	-1E+10	1	-1E+10	1	-1E+10	1	-1E+10	1	-1E+10	1
4902554	80	C	04/25/2023	12:53	-132.701	47.738	0	330.60	0	4.5140	0	33.8720	0	26.838	0	327.572	0	-1e10	8	-1e10	8	-1E+10	1	-1E+10	1	-1E+10	1	-1E+10	1	-1E+10	1	-1E+10	1
4902554	80	C	04/25/2023	12:53	-132.701	47.738	0	331.60	0	4.5120	0	33.8730	0	26.839	0	328.562	0	-1e10	8	-1e10	8	-1E+10	1	-1E+10	1	-1E+10	1	-1E+10	1	-1E+10	1	-1E+10	1
4902554	80	C	04/25/2023	12:53	-132.701	47.738	0	332.50	0	4.5070	0	33.8740	0	26.840	0	329.453	0	-1e10	8	-1e10	8	-1E+10	1	-1E+10	1	-1E+10	1	-1E+10	1	-1E+10	1	-1E+10	1
4902554	80	C	04/25/2023	12:53	-132.701	47.738	0	333.60	0	4.5060	0	33.8750	0	26.841	0	330.542	0	-1e10	8	-1e10	8	-1E+10	1	-1E+10	1	-1E+10	1	-1E+10	1	-1E+10	1	-1E+10	1
4902554	80	C	04/25/2023	12:53	-132.701	47.738	0	334.50	0	4.5050	0	33.8750	0	26.841	0	331.433	0	-1e10	8	-1e10	8	-1E+10	1	-1E+10	1	-1E+10	1	-1E+10	1	-1E+10	1	-1E+10	1
4902554	80	C	04/25/2023	12:53	-132.701	47.738	0	335.50	0	4.5040	0	33.8760	0	26.842	0	332.423	0	-1e10	8	-1e10	8	-1E+10	1	-1E+10	1	-1E+10	1	-1E+10	1	-1E+10	1	-1E+10	1
4902554	80	C	04/25/2023	12:53	-132.701	47.738	0	336.50	0	4.4990	0	33.8770	0	26.843	0	333.413	0	-1e10	8	-1e10	8	-1E+10	1	-1E+10	1	-1E+10	1	-1E+10	1	-1E+10	1	-1E+10	1
4902554	80	C	04/25/2023	12:53	-132.701	47.738	0	337.50	0	4.4970	0	33.8780	0	26.844	0	334.403	0	-1e10	8	-1e10	8	-1E+10	1	-1E+10	1	-1E+10	1	-1E+10	1	-1E+10	1	-1E+10	1
4902554	80	C	04/25/2023	12:53	-132.701	47.738	0	338.50	0	4.4940	0	33.8790	0	26.845	0	335.393	0	-1e10	8	-1e10	8	-1E+10	1	-1E+10	1	-1E+10	1	-1E+10	1	-1E+10	1	-1E+10	1
4902554	80	C	04/25/2023	12:53	-132.701	47.738	0	339.50	0	4.4880	0	33.8800	0	26.847	0	336.383	0	-1e10	8	-1e10	8	-1E+10	1	-1E+10	1	-1E+10	1	-1E+10	1	-1E+10	1	-1E+10	1
4902554	80	C	04/25/2023	12:53	-132.701	47.738	0	340.50	0	4.4840	0	33.8820	0	26.849	0	337.373	0	-1e10	8	-1e10	8	-1E+10	1	-1E+10	1	-1E+10	1	-1E+10	1	-1E+10	1	-1E+10	1
4902554	80	C	04/25/2023	12:53	-132.701	47.738	0	341.50	0	4.4820	0	33.8820	0	26.849	0	338.363	0	-1e10	8	-1e10	8	-1E+10	1	-1E+10	1	-1E+10	1	-1E+10	1	-1E+10	1	-1E+10	1
4902554	80	C	04/25/2023	12:53	-132.701	47.738	0	342.60	0	4.4780	0	33.8840	0	26.851	0	339.452	0	-1e10	8	-1e10	8	-1E+10	1	-1E+10	1	-1E+10	1	-1E+10	1	-1E+10	1	-1E+10	1
4902554	80	C	04/25/2023	12:53	-132.701	47.738	0	343.60	0	4.4770	0	33.8840	0	26.851	0	340.442	0	-1e10	8	-1e10	8	-1E+10	1	-1E+10	1	-1E+10	1	-1E+10	1	-1E+10	1	-1E+10	1
4902554	80	C	04/25/2023	12:53	-132.701	47.738	0	344.60	0	4.4740	0	33.8860	0	26.853	0	341.432	0	-1e10	8	-1e10	8	-1E+10	1	-1E+10	1	-1E+10	1	-1E+10	1	-1E+10	1	-1E+10	1
4902554	80	C	04/25/2023	12:53	-132.701	47.738	0	345.70	0	4.4730	0	33.8860	0	26.853	0	342.521	0	-1e10	8	-1e10	8	-1E+10	1	-1E+10	1	-1E+10	1	-1E+10	1	-1E+10	1	-1E+10	1
4902554	80	C	04/25/2023	12:53	-132.701	47.738	0	346.70	0	4.4690	0	33.8870	0	26.854	0	343.511	0	-1e10	8	-1e10	8	-1E+10	1	-1E+10	1	-1E+10	1	-1E+10	1	-1E+10	1	-1E+10	1
4902554	80	C	04/25/2023	12:53	-132.701	47.738	0	347.70	0	4.4660	0	33.8880	0	26.856	0	344.501	0	-1e10	8	-1e10	8	-1E+10	1	-1E+10	1	-1E+10	1	-1E+10	1	-1E+10	1	-1E+10	1
4902554	80	C	04/25/2023	12:53	-132.701	47.738	0	348.80	0	4.4570	0	33.8910	0	26.859	0	345.590	0	-1e10	8	-1e10	8	-1E+10	1	-1E+10	1	-1E+10	1	-1E+10	1	-1E+10	1	-1E+10	1
4902554	80	C	04/25/2023	12:53	-132.701	47.738	0	349.80	0	4.4510	0	33.8930	0	26.861	0	346.580	0	-1e10	8	-1e10	8	-1E+10	1	-1E+10	1	-1E+10	1	-1E+10	1	-1E+10	1	-1E+10	1
4902554	80	C	04/25/2023	12:53	-132.701	47.738	0	353.00	0	4.4370	0	33.8980	0	26.867	0	349.748	0	-1e10	8	-1e10	8	-1E+10	1	-1E+10	1	-1E+10	1	-1E+10	1	-1E+10	1	-1E+10	1
4902554	80	C	04/25/2023	12:53	-132.701	47.738	0	357.90	0	4.4230	0	33.9040	0	26.873	0	354.598	0	-1e10	8	-1e10	8	-1E+10	1	-1E+10	1	-1E+10	1	-1E+10	1	-1E+10	1	-1E+10	1
4902554	80	C	04/25/2023	12:53	-132.701	47.738	0	362.90	0	4.4200	0	33.9050	0	26.874	0	359.548	0	-1e10	8	-1e10	8	-1E+10	1	-1E+10	1	-1E+10	1	-1E+10	1	-1E+10	1	-1E+10	1
4902554	80	C	04/25/2023	12:53	-132.701	47.738	0	367.80	0	4.4090	0	33.9100	0	26.879	0	364.398	0	-1e10	8	-1e10	8	-1E+10	1	-1E+10	1	-1E+10	1	-1E+10	1	-1E+10	1	-1E+10	1
4902554	80	C	04/25/2023	12:53	-132.701	47.738	0	372.90	0	4.3930	0	33.9170	0	26.887	0	369.446	0	-1e10	8	-1e10	8	-1E+10	1	-1E+10	1	-1E+10	1	-1E+10	1	-1E+10	1	-1E+10	1
4902554	80	C	04/25/2023	12:53	-132.701	47.738	0	378.00	0	4.3880	0	33.9190	0	26.889	0	374.495	0	-1e10	8	-1e10	8	-1E+10	1	-1E+10	1	-1E+10	1	-1E+10	1	-1E+10	1	-1E+10	1
4902554	80	C	04/25/2023	12:53	-132.701	47.738	0	383.00	0	4.3820	0	33.9210	0	26.891	0	379.444	0	-1e10	8	-1e10	8	-1E+10	1	-1E+10	1	-1E+10	1	-1E+10	1	-1E+10	1	-1E+10	1
4902554	80	C	04/25/2023	12:53	-132.701	47.738	0	387.90	0	4.3700	0	33.9270	0	26.897	0	384.294	0	-1e10	8	-1e10	8	-1E+10	1	-1E+10	1	-1E+10	1	-1E+10	1	-1E+10	1	-1E+10	1
4902554	80	C	04/25/2023	12:53	-132.701	47.738	0	393.00	0	4.3520	0	33.9340	0	26.905	0	389.341	0	-1e10	8	-1e10	8	-1E+10	1	-1E+10	1	-1E+10	1	-1E+10	1	-1E+10	1	-1E+10	1
4902554	80	C	04/25/2023	12:53	-132.701	47.738	0	398.00	0	4.3470	0	33.9380	0	26.908	0	394.290	0	-1e10	8	-1e10	8	-1E+10	1	-1E+10	1	-1E+10	1	-1E+10	1	-1E+10	1	-1E+10	1
4902554	80	C	04/25/2023	12:53	-132.701	47.738	0	402.90	0	4.3350	0	33.9460	0	26.916	0	399.140	0	-1e10	8	-1e10	8	-1E+10	1	-1E+10	1	-1E+10	1	-1E+10	1	-1E+10	1	-1E+10	1
4902554	80	C	04/25/2023	12:53	-132.701	47.738	0	407.90	0	4.3170	0	33.9560	0	26.926	0	404.088	0	-1e10	8	-1e10	8	-1E+10	1	-1E+10	1	-1E+10	1	-1E+10	1	-1E+10	1	-1E+10	1
4902554	80	C	04/25/2023	12:53	-132.701	47.738	0	412.70	0	4.3080	0	33.9580	0	26.929	0	408.839	0	-1e10	8	-1e10	8	-1E+10	1	-1E+10	1	-1E+10	1	-1E+10	1	-1E+10	1	-1E+10	1
4902554	80	C	04/25/2023	12:53	-132.701	47.738	0	418.00	0	4.2980	0	33.9610	0	26.932	0	414.084	0	-1e10	8	-1e10	8	-1E+10	1	-1E+10	1	-1E+10	1	-1E+10	1	-1E+10	1	-1E+10	1
4902554	80	C	04/25/2023	12:53	-132.701	47.738	0	422.80	0	4.2730	0	33.9700	0	26.942	0	418.834	0	-1e10	8	-1e10	8	-1E+10	1	-1E+10	1	-1E+10	1	-1E+10	1	-1E+10	1	-1E+10	1
4902554	80	C	04/25/2023	12:53	-132.701	47.738	0	427.80	0	4.2600	0	33.9740	0	26.946	0	423.782	0	-1e10	8	-1e10	8	-1E+10	1	-1E+10	1	-1E+10	1	-1E+10	1	-1E+10	1	-1E+10	1
4902554	80	C	04/25/2023	12:53	-132.701	47.738	0	432.80	0	4.2470	0	33.9790	0	26.952	0	428.730	0	-1e10	8	-1e10	8	-1E+10	1	-1E+10	1	-1E+10	1	-1E+10	1	-1E+10	1	-1E+10	1
4902554	80	C	04/25/2023	12:53	-132.701	47.738	0	437.70	0	4.2320	0	33.9860	0	26.959	0	433.579	0	-1e10	8	-1e10	8	-1E+10	1	-1E+10	1	-1E+10	1	-1E+10	1	-1E+10	1	-1E+10	1
4902554	80	C	04/25/2023	12:53	-132.701	47.738	0	442.90	0	4.2120	0	33.9950	0	26.968	0	438.724	0	-1e10	8	-1e10	8	-1E+10	1	-1E+10	1	-1E+10	1	-1E+10	1	-1E+10	1	-1E+10	1
4902554	80	C	04/25/2023	12:53	-132.701	47.738	0	448.20	0	4.2000	0	34.0070	0	26.979	0	443.969	0	-1e10	8	-1e10	8	-1E+10	1	-1E+10	1	-1E+10	1	-1E+10	1	-1E+10	1	-1E+10	1
4902554	80	C	04/25/2023	12:53	-132.701	47.738	0	453.00	0	4.2010	0	34.0150	0	26.985	0	448.718	0	-1e10	8	-1e10	8	-1E+10	1	-1E+10	1	-1E+10	1	-1E+10	1	-1E+10	1	-1E+10	1
4902554	80	C	04/25/2023	12:53	-132.701	47.738	0	458.00	0	4.1860	0	34.0230	0	26.993	0	453.665	0	-1e10	8	-1e10	8	-1E+10	1	-1E+10	1	-1E+10	1	-1E+10	1	-1E+10	1	-1E+10	1
4902554	80	C	04/25/2023	12:53	-132.701	47.738	0	463.10	0	4.1630	0	34.0250	0	26.997	0	458.711	0	-1e10	8	-1e10	8	-1E+10	1	-1E+10	1	-1E+10	1	-1E+10	1	-1E+10	1	-1E+10	1
4902554	80	C	04/25/2023	12:53	-132.701	47.738	0	467.80	0	4.1500	0	34.0280	0	27.001	0	463.362	0	-1e10	8	-1e10	8	-1E+10	1	-1E+10	1	-1E+10	1	-1E+10	1	-1E+10	1	-1E+10	1
4902554	80	C	04/25/2023	12:53	-132.701	47.738	0	472.60	0	4.1430	0	34.0330	0	27.006	0	468.111	0	-1e10	8	-1e10	8	-1E+10	1	-1E+10	1	-1E+10	1	-1E+10	1	-1E+10	1	-1E+10	1
4902554	80	C	04/25/2023	12:53	-132.701	47.738	0	477.90	0	4.1380	0	34.0400	0	27.012	0	473.354	0	-1e10	8	-1e10	8	-1E+10	1	-1E+10	1	-1E+10	1	-1E+10	1	-1E+10	1	-1E+10	1
4902554	80	C	04/25/2023	12:53	-132.701	47.738	0	483.10	0	4.1430	0	34.0450	0	27.015	0	478.499	0	-1e10	8	-1e10	8	-1E+10	1	-1E+10	1	-1E+10	1	-1E+10	1	-1E+10	1	-1E+10	1
4902554	80	C	04/25/2023	12:53	-132.701	47.738	0	488.00	0	4.1260	0	34.0490	0	27.020	0	483.346	0	-1e10	8	-1e10	8	-1E+10	1	-1E+10	1	-1E+10	1	-1E+10	1	-1E+10	1	-1E+10	1
4902554	80	C	04/25/2023	12:53	-132.701	47.738	0	493.00	0	4.0980	0	34.0540	0	27.027	0	488.293	0	-1e10	8	-1e10	8	-1E+10	1	-1E+10	1	-1E+10	1	-1E+10	1	-1E+10	1	-1E+10	1
4902554	80	C	04/25/2023	12:53	-132.701	47.738	0	498.00	0	4.0800	0	34.0590	0	27.033	0	493.239	0	-1e10	8	-1e10	8	-1E+10	1	-1E+10	1	-1E+10	1	-1E+10	1	-1E+10	1	-1E+10	1
4902554	80	C	04/25/2023	12:53	-132.701	47.738	0	502.60	0	4.0720	0	34.0620	0	27.036	0	497.790	0	-1e10	8	-1e10	8	-1E+10	1	-1E+10	1	-1E+10	1	-1E+10	1	-1E+10	1	-1E+10	1
4902554	80	C	04/25/2023	12:53	-132.701	47.738	0	507.80	0	4.0700	0	34.0700	0	27.043	0	502.934	0	-1e10	8	-1e10	8	-1E+10	1	-1E+10	1	-1E+10	1	-1E+10	1	-1E+10	1	-1E+10	1
4902554	80	C	04/25/2023	12:53	-132.701	47.738	0	513.00	0	4.0590	0	34.0780	0	27.051	0	508.078	0	-1e10	8	-1e10	8	-1E+10	1	-1E+10	1	-1E+10	1	-1E+10	1	-1E+10	1	-1E+10	1
4902554	80	C	04/25/2023	12:53	-132.701	47.738	0	517.90	0	4.0390	0	34.0820	0	27.056	0	512.924	0	-1e10	8	-1e10	8	-1E+10	1	-1E+10	1	-1E+10	1	-1E+10	1	-1E+10	1	-1E+10	1
4902554	80	C	04/25/2023	12:53	-132.701	47.738	0	522.80	0	4.0220	0	34.0880	0	27.062	0	517.771	0	-1e10	8	-1e10	8	-1E+10	1	-1E+10	1	-1E+10	1	-1E+10	1	-1E+10	1	-1E+10	1
4902554	80	C	04/25/2023	12:53	-132.701	47.738	0	527.90	0	4.0150	0	34.0920	0	27.066	0	522.816	0	-1e10	8	-1e10	8	-1E+10	1	-1E+10	1	-1E+10	1	-1E+10	1	-1E+10	1	-1E+10	1
4902554	80	C	04/25/2023	12:53	-132.701	47.738	0	533.20	0	3.9960	0	34.0990	0	27.074	0	528.058	0	-1e10	8	-1e10	8	-1E+10	1	-1E+10	1	-1E+10	1	-1E+10	1	-1E+10	1	-1E+10	1
4902554	80	C	04/25/2023	12:53	-132.701	47.738	0	538.00	0	3.9880	0	34.1030	0	27.078	0	532.806	0	-1e10	8	-1e10	8	-1E+10	1	-1E+10	1	-1E+10	1	-1E+10	1	-1E+10	1	-1E+10	1
4902554	80	C	04/25/2023	12:53	-132.701	47.738	0	542.80	0	3.9750	0	34.1080	0	27.083	0	537.553	0	-1e10	8	-1e10	8	-1E+10	1	-1E+10	1	-1E+10	1	-1E+10	1	-1E+10	1	-1E+10	1
4902554	80	C	04/25/2023	12:53	-132.701	47.738	0	547.70	0	3.9590	0	34.1140	0	27.090	0	542.399	0	-1e10	8	-1e10	8	-1E+10	1	-1E+10	1	-1E+10	1	-1E+10	1	-1E+10	1	-1E+10	1
4902554	80	C	04/25/2023	12:53	-132.701	47.738	0	552.80	0	3.9450	0	34.1200	0	27.096	0	547.443	0	-1e10	8	-1e10	8	-1E+10	1	-1E+10	1	-1E+10	1	-1E+10	1	-1E+10	1	-1E+10	1
4902554	80	C	04/25/2023	12:53	-132.701	47.738	0	558.00	0	3.9220	0	34.1290	0	27.105	0	552.586	0	-1e10	8	-1e10	8	-1E+10	1	-1E+10	1	-1E+10	1	-1E+10	1	-1E+10	1	-1E+10	1
4902554	80	C	04/25/2023	12:53	-132.701	47.738	0	562.90	0	3.9150	0	34.1320	0	27.108	0	557.432	0	-1e10	8	-1e10	8	-1E+10	1	-1E+10	1	-1E+10	1	-1E+10	1	-1E+10	1	-1E+10	1
4902554	80	C	04/25/2023	12:53	-132.701	47.738	0	567.80	0	3.9070	0	34.1350	0	27.112	0	562.278	0	-1e10	8	-1e10	8	-1E+10	1	-1E+10	1	-1E+10	1	-1E+10	1	-1E+10	1	-1E+10	1
4902554	80	C	04/25/2023	12:53	-132.701	47.738	0	573.00	0	3.8980	0	34.1380	0	27.115	0	567.420	0	-1e10	8	-1e10	8	-1E+10	1	-1E+10	1	-1E+10	1	-1E+10	1	-1E+10	1	-1E+10	1
4902554	80	C	04/25/2023	12:53	-132.701	47.738	0	577.80	0	3.8850	0	34.1410	0	27.119	0	572.167	0	-1e10	8	-1e10	8	-1E+10	1	-1E+10	1	-1E+10	1	-1E+10	1	-1E+10	1	-1E+10	1
4902554	80	C	04/25/2023	12:53	-132.701	47.738	0	582.60	0	3.8740	0	34.1440	0	27.122	0	576.913	0	-1e10	8	-1e10	8	-1E+10	1	-1E+10	1	-1E+10	1	-1E+10	1	-1E+10	1	-1E+10	1
4902554	80	C	04/25/2023	12:53	-132.701	47.738	0	588.00	0	3.8610	0	34.1480	0	27.127	0	582.253	0	-1e10	8	-1e10	8	-1E+10	1	-1E+10	1	-1E+10	1	-1E+10	1	-1E+10	1	-1E+10	1
4902554	80	C	04/25/2023	12:53	-132.701	47.738	0	593.30	0	3.8570	0	34.1500	0	27.129	0	587.494	0	-1e10	8	-1e10	8	-1E+10	1	-1E+10	1	-1E+10	1	-1E+10	1	-1E+10	1	-1E+10	1
4902554	80	C	04/25/2023	12:53	-132.701	47.738	0	598.00	0	3.8520	0	34.1520	0	27.131	0	592.141	0	-1e10	8	-1e10	8	-1E+10	1	-1E+10	1	-1E+10	1	-1E+10	1	-1E+10	1	-1E+10	1
4902554	80	C	04/25/2023	12:53	-132.701	47.738	0	602.70	0	3.8440	0	34.1540	0	27.133	0	596.788	0	-1e10	8	-1e10	8	-1E+10	1	-1E+10	1	-1E+10	1	-1E+10	1	-1E+10	1	-1E+10	1
4902554	80	C	04/25/2023	12:53	-132.701	47.738	0	607.80	0	3.8330	0	34.1580	0	27.138	0	601.831	0	-1e10	8	-1e10	8	-1E+10	1	-1E+10	1	-1E+10	1	-1E+10	1	-1E+10	1	-1E+10	1
4902554	80	C	04/25/2023	12:53	-132.701	47.738	0	613.00	0	3.8190	0	34.1630	0	27.143	0	606.972	0	-1e10	8	-1e10	8	-1E+10	1	-1E+10	1	-1E+10	1	-1E+10	1	-1E+10	1	-1E+10	1
4902554	80	C	04/25/2023	12:53	-132.701	47.738	0	617.70	0	3.8110	0	34.1660	0	27.146	0	611.619	0	-1e10	8	-1e10	8	-1E+10	1	-1E+10	1	-1E+10	1	-1E+10	1	-1E+10	1	-1E+10	1
4902554	80	C	04/25/2023	12:53	-132.701	47.738	0	623.00	0	3.8060	0	34.1670	0	27.148	0	616.859	0	-1e10	8	-1e10	8	-1E+10	1	-1E+10	1	-1E+10	1	-1E+10	1	-1E+10	1	-1E+10	1
4902554	80	C	04/25/2023	12:53	-132.701	47.738	0	628.10	0	3.7970	0	34.1710	0	27.152	0	621.901	0	-1e10	8	-1e10	8	-1E+10	1	-1E+10	1	-1E+10	1	-1E+10	1	-1E+10	1	-1E+10	1
4902554	80	C	04/25/2023	12:53	-132.701	47.738	0	632.90	0	3.7930	0	34.1720	0	27.153	0	626.647	0	-1e10	8	-1e10	8	-1E+10	1	-1E+10	1	-1E+10	1	-1E+10	1	-1E+10	1	-1E+10	1
4902554	80	C	04/25/2023	12:53	-132.701	47.738	0	637.60	0	3.7860	0	34.1760	0	27.157	0	631.293	0	-1e10	8	-1e10	8	-1E+10	1	-1E+10	1	-1E+10	1	-1E+10	1	-1E+10	1	-1E+10	1
4902554	80	C	04/25/2023	12:53	-132.701	47.738	0	642.90	0	3.7770	0	34.1780	0	27.159	0	636.532	0	-1e10	8	-1e10	8	-1E+10	1	-1E+10	1	-1E+10	1	-1E+10	1	-1E+10	1	-1E+10	1
4902554	80	C	04/25/2023	12:53	-132.701	47.738	0	648.30	0	3.7610	0	34.1830	0	27.165	0	641.871	0	-1e10	8	-1e10	8	-1E+10	1	-1E+10	1	-1E+10	1	-1E+10	1	-1E+10	1	-1E+10	1
4902554	80	C	04/25/2023	12:53	-132.701	47.738	0	653.10	0	3.7450	0	34.1890	0	27.171	0	646.616	0	-1e10	8	-1e10	8	-1E+10	1	-1E+10	1	-1E+10	1	-1E+10	1	-1E+10	1	-1E+10	1
4902554	80	C	04/25/2023	12:53	-132.701	47.738	0	657.90	0	3.7380	0	34.1920	0	27.175	0	651.360	0	-1e10	8	-1e10	8	-1E+10	1	-1E+10	1	-1E+10	1	-1E+10	1	-1E+10	1	-1E+10	1
4902554	80	C	04/25/2023	12:53	-132.701	47.738	0	662.80	0	3.7350	0	34.1930	0	27.176	0	656.204	0	-1e10	8	-1e10	8	-1E+10	1	-1E+10	1	-1E+10	1	-1E+10	1	-1E+10	1	-1E+10	1
4902554	80	C	04/25/2023	12:53	-132.701	47.738	0	667.50	0	3.7250	0	34.1970	0	27.180	0	660.850	0	-1e10	8	-1e10	8	-1E+10	1	-1E+10	1	-1E+10	1	-1E+10	1	-1E+10	1	-1E+10	1
4902554	80	C	04/25/2023	12:53	-132.701	47.738	0	672.90	0	3.7130	0	34.2010	0	27.184	0	666.187	0	-1e10	8	-1e10	8	-1E+10	1	-1E+10	1	-1E+10	1	-1E+10	1	-1E+10	1	-1E+10	1
4902554	80	C	04/25/2023	12:53	-132.701	47.738	0	678.30	0	3.6890	0	34.2080	0	27.192	0	671.525	0	-1e10	8	-1e10	8	-1E+10	1	-1E+10	1	-1E+10	1	-1E+10	1	-1E+10	1	-1E+10	1
4902554	80	C	04/25/2023	12:53	-132.701	47.738	0	683.20	0	3.6810	0	34.2100	0	27.195	0	676.368	0	-1e10	8	-1e10	8	-1E+10	1	-1E+10	1	-1E+10	1	-1E+10	1	-1E+10	1	-1E+10	1
4902554	80	C	04/25/2023	12:53	-132.701	47.738	0	688.20	0	3.6770	0	34.2120	0	27.197	0	681.310	0	-1e10	8	-1e10	8	-1E+10	1	-1E+10	1	-1E+10	1	-1E+10	1	-1E+10	1	-1E+10	1
4902554	80	C	04/25/2023	12:53	-132.701	47.738	0	693.20	0	3.6720	0	34.2150	0	27.200	0	686.251	0	-1e10	8	-1e10	8	-1E+10	1	-1E+10	1	-1E+10	1	-1E+10	1	-1E+10	1	-1E+10	1
4902554	80	C	04/25/2023	12:53	-132.701	47.738	0	698.30	0	3.6630	0	34.2210	0	27.205	0	691.292	0	-1e10	8	-1e10	8	-1E+10	1	-1E+10	1	-1E+10	1	-1E+10	1	-1E+10	1	-1E+10	1
4902554	80	C	04/25/2023	12:53	-132.701	47.738	0	702.90	0	3.6590	0	34.2220	0	27.207	0	695.838	0	-1e10	8	-1e10	8	-1E+10	1	-1E+10	1	-1E+10	1	-1E+10	1	-1E+10	1	-1E+10	1
4902554	80	C	04/25/2023	12:53	-132.701	47.738	0	707.60	0	3.6440	0	34.2260	0	27.211	0	700.483	0	-1e10	8	-1e10	8	-1E+10	1	-1E+10	1	-1E+10	1	-1E+10	1	-1E+10	1	-1E+10	1
4902554	80	C	04/25/2023	12:53	-132.701	47.738	0	712.80	0	3.6380	0	34.2280	0	27.213	0	705.622	0	-1e10	8	-1e10	8	-1E+10	1	-1E+10	1	-1E+10	1	-1E+10	1	-1E+10	1	-1E+10	1
4902554	80	C	04/25/2023	12:53	-132.701	47.738	0	718.00	0	3.6320	0	34.2300	0	27.216	0	710.761	0	-1e10	8	-1e10	8	-1E+10	1	-1E+10	1	-1E+10	1	-1E+10	1	-1E+10	1	-1E+10	1
4902554	80	C	04/25/2023	12:53	-132.701	47.738	0	723.10	0	3.6160	0	34.2340	0	27.220	0	715.800	0	-1e10	8	-1e10	8	-1E+10	1	-1E+10	1	-1E+10	1	-1E+10	1	-1E+10	1	-1E+10	1
4902554	80	C	04/25/2023	12:53	-132.701	47.738	0	728.30	0	3.6070	0	34.2360	0	27.223	0	720.939	0	-1e10	8	-1e10	8	-1E+10	1	-1E+10	1	-1E+10	1	-1E+10	1	-1E+10	1	-1E+10	1
4902554	80	C	04/25/2023	12:53	-132.701	47.738	0	732.90	0	3.5900	0	34.2400	0	27.228	0	725.485	0	-1e10	8	-1e10	8	-1E+10	1	-1E+10	1	-1E+10	1	-1E+10	1	-1E+10	1	-1E+10	1
4902554	80	C	04/25/2023	12:53	-132.701	47.738	0	737.90	0	3.5740	0	34.2430	0	27.232	0	730.425	0	-1e10	8	-1e10	8	-1E+10	1	-1E+10	1	-1E+10	1	-1E+10	1	-1E+10	1	-1E+10	1
4902554	80	C	04/25/2023	12:53	-132.701	47.738	0	743.10	0	3.5680	0	34.2440	0	27.233	0	735.563	0	-1e10	8	-1e10	8	-1E+10	1	-1E+10	1	-1E+10	1	-1E+10	1	-1E+10	1	-1E+10	1
4902554	80	C	04/25/2023	12:53	-132.701	47.738	0	748.00	0	3.5650	0	34.2450	0	27.234	0	740.405	0	-1e10	8	-1e10	8	-1E+10	1	-1E+10	1	-1E+10	1	-1E+10	1	-1E+10	1	-1E+10	1
4902554	80	C	04/25/2023	12:53	-132.701	47.738	0	753.10	0	3.5620	0	34.2460	0	27.235	0	745.444	0	-1e10	8	-1e10	8	-1E+10	1	-1E+10	1	-1E+10	1	-1E+10	1	-1E+10	1	-1E+10	1
4902554	80	C	04/25/2023	12:53	-132.701	47.738	0	758.20	0	3.5590	0	34.2470	0	27.237	0	750.483	0	-1e10	8	-1e10	8	-1E+10	1	-1E+10	1	-1E+10	1	-1E+10	1	-1E+10	1	-1E+10	1
4902554	80	C	04/25/2023	12:53	-132.701	47.738	0	762.90	0	3.5480	0	34.2500	0	27.240	0	755.127	0	-1e10	8	-1e10	8	-1E+10	1	-1E+10	1	-1E+10	1	-1E+10	1	-1E+10	1	-1E+10	1
4902554	80	C	04/25/2023	12:53	-132.701	47.738	0	767.70	0	3.5280	0	34.2550	0	27.246	0	759.869	0	-1e10	8	-1e10	8	-1E+10	1	-1E+10	1	-1E+10	1	-1E+10	1	-1E+10	1	-1E+10	1
4902554	80	C	04/25/2023	12:53	-132.701	47.738	0	772.80	0	3.5160	0	34.2570	0	27.249	0	764.908	0	-1e10	8	-1e10	8	-1E+10	1	-1E+10	1	-1E+10	1	-1E+10	1	-1E+10	1	-1E+10	1
4902554	80	C	04/25/2023	12:53	-132.701	47.738	0	778.00	0	3.4940	0	34.2620	0	27.255	0	770.045	0	-1e10	8	-1e10	8	-1E+10	1	-1E+10	1	-1E+10	1	-1E+10	1	-1E+10	1	-1E+10	1
4902554	80	C	04/25/2023	12:53	-132.701	47.738	0	782.80	0	3.4830	0	34.2650	0	27.258	0	774.787	0	-1e10	8	-1e10	8	-1E+10	1	-1E+10	1	-1E+10	1	-1E+10	1	-1E+10	1	-1E+10	1
4902554	80	C	04/25/2023	12:53	-132.701	47.738	0	787.70	0	3.4780	0	34.2670	0	27.261	0	779.628	0	-1e10	8	-1e10	8	-1E+10	1	-1E+10	1	-1E+10	1	-1E+10	1	-1E+10	1	-1E+10	1
4902554	80	C	04/25/2023	12:53	-132.701	47.738	0	792.90	0	3.4570	0	34.2710	0	27.266	0	784.765	0	-1e10	8	-1e10	8	-1E+10	1	-1E+10	1	-1E+10	1	-1E+10	1	-1E+10	1	-1E+10	1
4902554	80	C	04/25/2023	12:53	-132.701	47.738	0	797.80	0	3.4450	0	34.2750	0	27.270	0	789.605	0	-1e10	8	-1e10	8	-1E+10	1	-1E+10	1	-1E+10	1	-1E+10	1	-1E+10	1	-1E+10	1
4902554	80	C	04/25/2023	12:53	-132.701	47.738	0	802.70	0	3.4380	0	34.2760	0	27.272	0	794.445	0	-1e10	8	-1e10	8	-1E+10	1	-1E+10	1	-1E+10	1	-1E+10	1	-1E+10	1	-1E+10	1
4902554	80	C	04/25/2023	12:53	-132.701	47.738	0	808.00	0	3.4260	0	34.2790	0	27.275	0	799.681	0	-1e10	8	-1e10	8	-1E+10	1	-1E+10	1	-1E+10	1	-1E+10	1	-1E+10	1	-1E+10	1
4902554	80	C	04/25/2023	12:53	-132.701	47.738	0	812.90	0	3.4110	0	34.2830	0	27.280	0	804.521	0	-1e10	8	-1e10	8	-1E+10	1	-1E+10	1	-1E+10	1	-1E+10	1	-1E+10	1	-1E+10	1
4902554	80	C	04/25/2023	12:53	-132.701	47.738	0	817.90	0	3.3950	0	34.2860	0	27.284	0	809.460	0	-1e10	8	-1e10	8	-1E+10	1	-1E+10	1	-1E+10	1	-1E+10	1	-1E+10	1	-1E+10	1
4902554	80	C	04/25/2023	12:53	-132.701	47.738	0	823.00	0	3.3820	0	34.2890	0	27.287	0	814.497	0	-1e10	8	-1e10	8	-1E+10	1	-1E+10	1	-1E+10	1	-1E+10	1	-1E+10	1	-1E+10	1
4902554	80	C	04/25/2023	12:53	-132.701	47.738	0	828.00	0	3.3690	0	34.2930	0	27.292	0	819.436	0	-1e10	8	-1e10	8	-1E+10	1	-1E+10	1	-1E+10	1	-1E+10	1	-1E+10	1	-1E+10	1
4902554	80	C	04/25/2023	12:53	-132.701	47.738	0	833.00	0	3.3610	0	34.2950	0	27.294	0	824.374	0	-1e10	8	-1e10	8	-1E+10	1	-1E+10	1	-1E+10	1	-1E+10	1	-1E+10	1	-1E+10	1
4902554	80	C	04/25/2023	12:53	-132.701	47.738	0	838.10	0	3.3530	0	34.2960	0	27.296	0	829.411	0	-1e10	8	-1e10	8	-1E+10	1	-1E+10	1	-1E+10	1	-1E+10	1	-1E+10	1	-1E+10	1
4902554	80	C	04/25/2023	12:53	-132.701	47.738	0	843.20	0	3.3380	0	34.3000	0	27.300	0	834.448	0	-1e10	8	-1e10	8	-1E+10	1	-1E+10	1	-1E+10	1	-1E+10	1	-1E+10	1	-1E+10	1
4902554	80	C	04/25/2023	12:53	-132.701	47.738	0	847.80	0	3.3240	0	34.3040	0	27.305	0	838.991	0	-1e10	8	-1e10	8	-1E+10	1	-1E+10	1	-1E+10	1	-1E+10	1	-1E+10	1	-1E+10	1
4902554	80	C	04/25/2023	12:53	-132.701	47.738	0	852.80	0	3.3130	0	34.3060	0	27.308	0	843.929	0	-1e10	8	-1e10	8	-1E+10	1	-1E+10	1	-1E+10	1	-1E+10	1	-1E+10	1	-1E+10	1
4902554	80	C	04/25/2023	12:53	-132.701	47.738	0	857.80	0	3.2980	0	34.3100	0	27.312	0	848.867	0	-1e10	8	-1e10	8	-1E+10	1	-1E+10	1	-1E+10	1	-1E+10	1	-1E+10	1	-1E+10	1
4902554	80	C	04/25/2023	12:53	-132.701	47.738	0	863.00	0	3.2880	0	34.3120	0	27.315	0	854.002	0	-1e10	8	-1e10	8	-1E+10	1	-1E+10	1	-1E+10	1	-1E+10	1	-1E+10	1	-1E+10	1
4902554	80	C	04/25/2023	12:53	-132.701	47.738	0	868.20	0	3.2800	0	34.3150	0	27.318	0	859.137	0	-1e10	8	-1e10	8	-1E+10	1	-1E+10	1	-1E+10	1	-1E+10	1	-1E+10	1	-1E+10	1
4902554	80	C	04/25/2023	12:53	-132.701	47.738	0	873.00	0	3.2720	0	34.3160	0	27.320	0	863.877	0	-1e10	8	-1e10	8	-1E+10	1	-1E+10	1	-1E+10	1	-1E+10	1	-1E+10	1	-1E+10	1
4902554	80	C	04/25/2023	12:53	-132.701	47.738	0	877.80	0	3.2620	0	34.3190	0	27.323	0	868.617	0	-1e10	8	-1e10	8	-1E+10	1	-1E+10	1	-1E+10	1	-1E+10	1	-1E+10	1	-1E+10	1
4902554	80	C	04/25/2023	12:53	-132.701	47.738	0	882.60	0	3.2590	0	34.3200	0	27.324	0	873.357	0	-1e10	8	-1e10	8	-1E+10	1	-1E+10	1	-1E+10	1	-1E+10	1	-1E+10	1	-1E+10	1
4902554	80	C	04/25/2023	12:53	-132.701	47.738	0	887.80	0	3.2470	0	34.3220	0	27.327	0	878.492	0	-1e10	8	-1e10	8	-1E+10	1	-1E+10	1	-1E+10	1	-1E+10	1	-1E+10	1	-1E+10	1
4902554	80	C	04/25/2023	12:53	-132.701	47.738	0	893.20	0	3.2300	0	34.3260	0	27.332	0	883.824	0	-1e10	8	-1e10	8	-1E+10	1	-1E+10	1	-1E+10	1	-1E+10	1	-1E+10	1	-1E+10	1
4902554	80	C	04/25/2023	12:53	-132.701	47.738	0	898.20	0	3.2170	0	34.3290	0	27.335	0	888.760	0	-1e10	8	-1e10	8	-1E+10	1	-1E+10	1	-1E+10	1	-1E+10	1	-1E+10	1	-1E+10	1
4902554	80	C	04/25/2023	12:53	-132.701	47.738	0	903.20	0	3.2070	0	34.3320	0	27.339	0	893.697	0	-1e10	8	-1e10	8	-1E+10	1	-1E+10	1	-1E+10	1	-1E+10	1	-1E+10	1	-1E+10	1
4902554	80	C	04/25/2023	12:53	-132.701	47.738	0	907.90	0	3.2020	0	34.3330	0	27.340	0	898.338	0	-1e10	8	-1e10	8	-1E+10	1	-1E+10	1	-1E+10	1	-1E+10	1	-1E+10	1	-1E+10	1
4902554	80	C	04/25/2023	12:53	-132.701	47.738	0	913.00	0	3.1970	0	34.3340	0	27.341	0	903.373	0	-1e10	8	-1e10	8	-1E+10	1	-1E+10	1	-1E+10	1	-1E+10	1	-1E+10	1	-1E+10	1
4902554	80	C	04/25/2023	12:53	-132.701	47.738	0	918.20	0	3.1900	0	34.3350	0	27.343	0	908.507	0	-1e10	8	-1e10	8	-1E+10	1	-1E+10	1	-1E+10	1	-1E+10	1	-1E+10	1	-1E+10	1
4902554	80	C	04/25/2023	12:53	-132.701	47.738	0	923.10	0	3.1870	0	34.3360	0	27.344	0	913.344	0	-1e10	8	-1e10	8	-1E+10	1	-1E+10	1	-1E+10	1	-1E+10	1	-1E+10	1	-1E+10	1
4902554	80	C	04/25/2023	12:53	-132.701	47.738	0	928.20	0	3.1770	0	34.3380	0	27.346	0	918.379	0	-1e10	8	-1e10	8	-1E+10	1	-1E+10	1	-1E+10	1	-1E+10	1	-1E+10	1	-1E+10	1
4902554	80	C	04/25/2023	12:53	-132.701	47.738	0	932.90	0	3.1640	0	34.3410	0	27.350	0	923.019	0	-1e10	8	-1e10	8	-1E+10	1	-1E+10	1	-1E+10	1	-1E+10	1	-1E+10	1	-1E+10	1
4902554	80	C	04/25/2023	12:53	-132.701	47.738	0	937.80	0	3.1530	0	34.3440	0	27.353	0	927.857	0	-1e10	8	-1e10	8	-1E+10	1	-1E+10	1	-1E+10	1	-1E+10	1	-1E+10	1	-1E+10	1
4902554	80	C	04/25/2023	12:53	-132.701	47.738	0	942.70	0	3.1460	0	34.3450	0	27.355	0	932.694	0	-1e10	8	-1e10	8	-1E+10	1	-1E+10	1	-1E+10	1	-1E+10	1	-1E+10	1	-1E+10	1
4902554	80	C	04/25/2023	12:53	-132.701	47.738	0	947.80	0	3.1370	0	34.3480	0	27.358	0	937.728	0	-1e10	8	-1e10	8	-1E+10	1	-1E+10	1	-1E+10	1	-1E+10	1	-1E+10	1	-1E+10	1
4902554	80	C	04/25/2023	12:53	-132.701	47.738	0	952.90	0	3.1310	0	34.3490	0	27.359	0	942.762	0	-1e10	8	-1e10	8	-1E+10	1	-1E+10	1	-1E+10	1	-1E+10	1	-1E+10	1	-1E+10	1
4902554	80	C	04/25/2023	12:53	-132.701	47.738	0	957.90	0	3.1260	0	34.3500	0	27.361	0	947.698	0	-1e10	8	-1e10	8	-1E+10	1	-1E+10	1	-1E+10	1	-1E+10	1	-1E+10	1	-1E+10	1
4902554	80	C	04/25/2023	12:53	-132.701	47.738	0	962.90	0	3.1190	0	34.3520	0	27.363	0	952.633	0	-1e10	8	-1e10	8	-1E+10	1	-1E+10	1	-1E+10	1	-1E+10	1	-1E+10	1	-1E+10	1
4902554	80	C	04/25/2023	12:53	-132.701	47.738	0	968.00	0	3.1070	0	34.3550	0	27.367	0	957.667	0	-1e10	8	-1e10	8	-1E+10	1	-1E+10	1	-1E+10	1	-1E+10	1	-1E+10	1	-1E+10	1
4902554	80	C	04/25/2023	12:53	-132.701	47.738	0	973.20	0	3.0940	0	34.3570	0	27.369	0	962.800	0	-1e10	8	-1e10	8	-1E+10	1	-1E+10	1	-1E+10	1	-1E+10	1	-1E+10	1	-1E+10	1
4902554	80	C	04/25/2023	12:53	-132.701	47.738	0	978.00	0	3.0900	0	34.3590	0	27.371	0	967.537	0	-1e10	8	-1e10	8	-1E+10	1	-1E+10	1	-1E+10	1	-1E+10	1	-1E+10	1	-1E+10	1
4902554	80	C	04/25/2023	12:53	-132.701	47.738	0	982.80	0	3.0820	0	34.3600	0	27.373	0	972.275	0	-1e10	8	-1e10	8	-1E+10	1	-1E+10	1	-1E+10	1	-1E+10	1	-1E+10	1	-1E+10	1
4902554	80	C	04/25/2023	12:53	-132.701	47.738	0	987.70	0	3.0740	0	34.3620	0	27.375	0	977.111	0	-1e10	8	-1e10	8	-1E+10	1	-1E+10	1	-1E+10	1	-1E+10	1	-1E+10	1	-1E+10	1
4902554	80	C	04/25/2023	12:53	-132.701	47.738	0	992.70	0	3.0640	0	34.3650	0	27.379	0	982.046	0	-1e10	8	-1e10	8	-1E+10	1	-1E+10	1	-1E+10	1	-1E+10	1	-1E+10	1	-1E+10	1
4902554	80	C	04/25/2023	12:53	-132.701	47.738	0	997.70	0	3.0580	0	34.3660	0	27.380	0	986.980	0	-1e10	8	-1e10	8	-1E+10	1	-1E+10	1	-1E+10	1	-1E+10	1	-1E+10	1	-1E+10	1
4902554	80	C	04/25/2023	12:53	-132.701	47.738	0	1005.30	0	3.0290	0	34.3730	0	27.388	0	994.481	0	-1e10	8	-1e10	8	-1E+10	1	-1E+10	1	-1E+10	1	-1E+10	1	-1E+10	1	-1E+10	1
4902554	80	C	04/25/2023	12:53	-132.701	47.738	0	1015.70	0	3.0110	0	34.3780	0	27.394	0	1004.744	0	-1e10	8	-1e10	8	-1E+10	1	-1E+10	1	-1E+10	1	-1E+10	1	-1E+10	1	-1E+10	1
4902554	80	C	04/25/2023	12:53	-132.701	47.738	0	1025.60	0	2.9870	0	34.3840	0	27.401	0	1014.513	0	-1e10	8	-1e10	8	-1E+10	1	-1E+10	1	-1E+10	1	-1E+10	1	-1E+10	1	-1E+10	1
4902554	80	C	04/25/2023	12:53	-132.701	47.738	0	1035.40	0	2.9740	0	34.3860	0	27.404	0	1024.183	0	-1e10	8	-1e10	8	-1E+10	1	-1E+10	1	-1E+10	1	-1E+10	1	-1E+10	1	-1E+10	1
4902554	80	C	04/25/2023	12:53	-132.701	47.738	0	1045.40	0	2.9680	0	34.3880	0	27.406	0	1034.050	0	-1e10	8	-1e10	8	-1E+10	1	-1E+10	1	-1E+10	1	-1E+10	1	-1E+10	1	-1E+10	1
4902554	80	C	04/25/2023	12:53	-132.701	47.738	0	1055.40	0	2.9550	0	34.3910	0	27.410	0	1043.917	0	-1e10	8	-1e10	8	-1E+10	1	-1E+10	1	-1E+10	1	-1E+10	1	-1E+10	1	-1E+10	1
4902554	80	C	04/25/2023	12:53	-132.701	47.738	0	1065.30	0	2.9440	0	34.3940	0	27.413	0	1053.684	0	-1e10	8	-1e10	8	-1E+10	1	-1E+10	1	-1E+10	1	-1E+10	1	-1E+10	1	-1E+10	1
4902554	80	C	04/25/2023	12:53	-132.701	47.738	0	1075.30	0	2.9280	0	34.3960	0	27.416	0	1063.550	0	-1e10	8	-1e10	8	-1E+10	1	-1E+10	1	-1E+10	1	-1E+10	1	-1E+10	1	-1E+10	1
4902554	80	C	04/25/2023	12:53	-132.701	47.738	0	1085.20	0	2.9050	0	34.4010	0	27.422	0	1073.316	0	-1e10	8	-1e10	8	-1E+10	1	-1E+10	1	-1E+10	1	-1E+10	1	-1E+10	1	-1E+10	1
4902554	80	C	04/25/2023	12:53	-132.701	47.738	0	1095.20	0	2.8870	0	34.4050	0	27.427	0	1083.181	0	-1e10	8	-1e10	8	-1E+10	1	-1E+10	1	-1E+10	1	-1E+10	1	-1E+10	1	-1E+10	1
4902554	80	C	04/25/2023	12:53	-132.701	47.738	0	1105.20	0	2.8740	0	34.4070	0	27.430	0	1093.045	0	-1e10	8	-1e10	8	-1E+10	1	-1E+10	1	-1E+10	1	-1E+10	1	-1E+10	1	-1E+10	1
4902554	80	C	04/25/2023	12:53	-132.701	47.738	0	1115.70	0	2.8630	0	34.4090	0	27.432	0	1103.402	0	-1e10	8	-1e10	8	-1E+10	1	-1E+10	1	-1E+10	1	-1E+10	1	-1E+10	1	-1E+10	1
4902554	80	C	04/25/2023	12:53	-132.701	47.738	0	1125.60	0	2.8480	0	34.4120	0	27.436	0	1113.167	0	-1e10	8	-1e10	8	-1E+10	1	-1E+10	1	-1E+10	1	-1E+10	1	-1E+10	1	-1E+10	1
4902554	80	C	04/25/2023	12:53	-132.701	47.738	0	1135.30	0	2.8310	0	34.4150	0	27.440	0	1122.734	0	-1e10	8	-1e10	8	-1E+10	1	-1E+10	1	-1E+10	1	-1E+10	1	-1E+10	1	-1E+10	1
4902554	80	C	04/25/2023	12:53	-132.701	47.738	0	1145.10	0	2.8200	0	34.4180	0	27.444	0	1132.399	0	-1e10	8	-1e10	8	-1E+10	1	-1E+10	1	-1E+10	1	-1E+10	1	-1E+10	1	-1E+10	1
4902554	80	C	04/25/2023	12:53	-132.701	47.738	0	1155.20	0	2.8090	0	34.4230	0	27.449	0	1142.359	0	-1e10	8	-1e10	8	-1E+10	1	-1E+10	1	-1E+10	1	-1E+10	1	-1E+10	1	-1E+10	1
4902554	80	C	04/25/2023	12:53	-132.701	47.738	0	1165.40	0	2.7900	0	34.4260	0	27.453	0	1152.418	0	-1e10	8	-1e10	8	-1E+10	1	-1E+10	1	-1E+10	1	-1E+10	1	-1E+10	1	-1E+10	1
4902554	80	C	04/25/2023	12:53	-132.701	47.738	0	1175.30	0	2.7780	0	34.4280	0	27.455	0	1162.181	0	-1e10	8	-1e10	8	-1E+10	1	-1E+10	1	-1E+10	1	-1E+10	1	-1E+10	1	-1E+10	1
4902554	80	C	04/25/2023	12:53	-132.701	47.738	0	1185.40	0	2.7690	0	34.4310	0	27.459	0	1172.140	0	-1e10	8	-1e10	8	-1E+10	1	-1E+10	1	-1E+10	1	-1E+10	1	-1E+10	1	-1E+10	1
4902554	80	C	04/25/2023	12:53	-132.701	47.738	0	1195.60	0	2.7570	0	34.4340	0	27.462	0	1182.197	0	-1e10	8	-1e10	8	-1E+10	1	-1E+10	1	-1E+10	1	-1E+10	1	-1E+10	1	-1E+10	1
4902554	80	C	04/25/2023	12:53	-132.701	47.738	0	1205.60	0	2.7450	0	34.4370	0	27.466	0	1192.056	0	-1e10	8	-1e10	8	-1E+10	1	-1E+10	1	-1E+10	1	-1E+10	1	-1E+10	1	-1E+10	1
4902554	80	C	04/25/2023	12:53	-132.701	47.738	0	1215.70	0	2.7320	0	34.4410	0	27.470	0	1202.014	0	-1e10	8	-1e10	8	-1E+10	1	-1E+10	1	-1E+10	1	-1E+10	1	-1E+10	1	-1E+10	1
4902554	80	C	04/25/2023	12:53	-132.701	47.738	0	1225.60	0	2.7160	0	34.4430	0	27.473	0	1211.774	0	-1e10	8	-1e10	8	-1E+10	1	-1E+10	1	-1E+10	1	-1E+10	1	-1E+10	1	-1E+10	1
4902554	80	C	04/25/2023	12:53	-132.701	47.738	0	1235.20	0	2.6950	0	34.4460	0	27.477	0	1221.238	0	-1e10	8	-1e10	8	-1E+10	1	-1E+10	1	-1E+10	1	-1E+10	1	-1E+10	1	-1E+10	1
4902554	80	C	04/25/2023	12:53	-132.701	47.738	0	1245.10	0	2.6700	0	34.4500	0	27.483	0	1230.997	0	-1e10	8	-1e10	8	-1E+10	1	-1E+10	1	-1E+10	1	-1E+10	1	-1E+10	1	-1E+10	1
4902554	80	C	04/25/2023	12:53	-132.701	47.738	0	1255.50	0	2.6500	0	34.4530	0	27.487	0	1241.249	0	-1e10	8	-1e10	8	-1E+10	1	-1E+10	1	-1E+10	1	-1E+10	1	-1E+10	1	-1E+10	1
4902554	80	C	04/25/2023	12:53	-132.701	47.738	0	1265.80	0	2.6270	0	34.4560	0	27.491	0	1251.401	0	-1e10	8	-1e10	8	-1E+10	1	-1E+10	1	-1E+10	1	-1E+10	1	-1E+10	1	-1E+10	1
4902554	80	C	04/25/2023	12:53	-132.701	47.738	0	1275.70	0	2.6120	0	34.4590	0	27.495	0	1261.159	0	-1e10	8	-1e10	8	-1E+10	1	-1E+10	1	-1E+10	1	-1E+10	1	-1E+10	1	-1E+10	1
4902554	80	C	04/25/2023	12:53	-132.701	47.738	0	1285.60	0	2.6010	0	34.4610	0	27.498	0	1270.916	0	-1e10	8	-1e10	8	-1E+10	1	-1E+10	1	-1E+10	1	-1E+10	1	-1E+10	1	-1E+10	1
4902554	80	C	04/25/2023	12:53	-132.701	47.738	0	1295.60	0	2.5990	0	34.4620	0	27.499	0	1280.772	0	-1e10	8	-1e10	8	-1E+10	1	-1E+10	1	-1E+10	1	-1E+10	1	-1E+10	1	-1E+10	1
4902554	80	C	04/25/2023	12:53	-132.701	47.738	0	1305.70	0	2.5950	0	34.4630	0	27.500	0	1290.725	0	-1e10	8	-1e10	8	-1E+10	1	-1E+10	1	-1E+10	1	-1E+10	1	-1E+10	1	-1E+10	1
4902554	80	C	04/25/2023	12:53	-132.701	47.738	0	1315.40	0	2.5880	0	34.4650	0	27.502	0	1300.284	0	-1e10	8	-1e10	8	-1E+10	1	-1E+10	1	-1E+10	1	-1E+10	1	-1E+10	1	-1E+10	1
4902554	80	C	04/25/2023	12:53	-132.701	47.738	0	1325.60	0	2.5700	0	34.4690	0	27.507	0	1310.335	0	-1e10	8	-1e10	8	-1E+10	1	-1E+10	1	-1E+10	1	-1E+10	1	-1E+10	1	-1E+10	1
4902554	80	C	04/25/2023	12:53	-132.701	47.738	0	1335.40	0	2.5550	0	34.4720	0	27.511	0	1319.992	0	-1e10	8	-1e10	8	-1E+10	1	-1E+10	1	-1E+10	1	-1E+10	1	-1E+10	1	-1E+10	1
4902554	80	C	04/25/2023	12:53	-132.701	47.738	0	1345.20	0	2.5400	0	34.4740	0	27.514	0	1329.648	0	-1e10	8	-1e10	8	-1E+10	1	-1E+10	1	-1E+10	1	-1E+10	1	-1E+10	1	-1E+10	1
4902554	80	C	04/25/2023	12:53	-132.701	47.738	0	1355.50	0	2.5270	0	34.4770	0	27.517	0	1339.796	0	-1e10	8	-1e10	8	-1E+10	1	-1E+10	1	-1E+10	1	-1E+10	1	-1E+10	1	-1E+10	1
4902554	80	C	04/25/2023	12:53	-132.701	47.738	0	1365.40	0	2.5140	0	34.4790	0	27.520	0	1349.549	0	-1e10	8	-1e10	8	-1E+10	1	-1E+10	1	-1E+10	1	-1E+10	1	-1E+10	1	-1E+10	1
4902554	80	C	04/25/2023	12:53	-132.701	47.738	0	1375.20	0	2.5070	0	34.4810	0	27.522	0	1359.204	0	-1e10	8	-1e10	8	-1E+10	1	-1E+10	1	-1E+10	1	-1E+10	1	-1E+10	1	-1E+10	1
4902554	80	C	04/25/2023	12:53	-132.701	47.738	0	1385.10	0	2.4980	0	34.4830	0	27.525	0	1368.957	0	-1e10	8	-1e10	8	-1E+10	1	-1E+10	1	-1E+10	1	-1E+10	1	-1E+10	1	-1E+10	1
4902554	80	C	04/25/2023	12:53	-132.701	47.738	0	1395.50	0	2.4880	0	34.4840	0	27.526	0	1379.202	0	-1e10	8	-1e10	8	-1E+10	1	-1E+10	1	-1E+10	1	-1E+10	1	-1E+10	1	-1E+10	1
4902554	80	C	04/25/2023	12:53	-132.701	47.738	0	1405.60	0	2.4750	0	34.4860	0	27.529	0	1389.150	0	-1e10	8	-1e10	8	-1E+10	1	-1E+10	1	-1E+10	1	-1E+10	1	-1E+10	1	-1E+10	1
4902554	80	C	04/25/2023	12:53	-132.701	47.738	0	1415.20	0	2.4600	0	34.4890	0	27.533	0	1398.606	0	-1e10	8	-1e10	8	-1E+10	1	-1E+10	1	-1E+10	1	-1E+10	1	-1E+10	1	-1E+10	1
4902554	80	C	04/25/2023	12:53	-132.701	47.738	0	1425.20	0	2.4510	0	34.4900	0	27.534	0	1408.456	0	-1e10	8	-1e10	8	-1E+10	1	-1E+10	1	-1E+10	1	-1E+10	1	-1E+10	1	-1E+10	1
4902554	80	C	04/25/2023	12:53	-132.701	47.738	0	1435.30	0	2.4390	0	34.4920	0	27.537	0	1418.403	0	-1e10	8	-1e10	8	-1E+10	1	-1E+10	1	-1E+10	1	-1E+10	1	-1E+10	1	-1E+10	1
4902554	80	C	04/25/2023	12:53	-132.701	47.738	0	1445.30	0	2.4230	0	34.4960	0	27.542	0	1428.252	0	-1e10	8	-1e10	8	-1E+10	1	-1E+10	1	-1E+10	1	-1E+10	1	-1E+10	1	-1E+10	1
4902554	80	C	04/25/2023	12:53	-132.701	47.738	0	1455.30	0	2.4070	0	34.4980	0	27.545	0	1438.100	0	-1e10	8	-1e10	8	-1E+10	1	-1E+10	1	-1E+10	1	-1E+10	1	-1E+10	1	-1E+10	1
4902554	80	C	04/25/2023	12:53	-132.701	47.738	0	1465.30	0	2.3930	0	34.5010	0	27.548	0	1447.947	0	-1e10	8	-1e10	8	-1E+10	1	-1E+10	1	-1E+10	1	-1E+10	1	-1E+10	1	-1E+10	1
4902554	80	C	04/25/2023	12:53	-132.701	47.738	0	1475.80	0	2.3800	0	34.5030	0	27.551	0	1458.287	0	-1e10	8	-1e10	8	-1E+10	1	-1E+10	1	-1E+10	1	-1E+10	1	-1E+10	1	-1E+10	1
4902554	80	C	04/25/2023	12:53	-132.701	47.738	0	1485.60	0	2.3660	0	34.5060	0	27.554	0	1467.936	0	-1e10	8	-1e10	8	-1E+10	1	-1E+10	1	-1E+10	1	-1E+10	1	-1E+10	1	-1E+10	1
4902554	80	C	04/25/2023	12:53	-132.701	47.738	0	1495.20	0	2.3570	0	34.5080	0	27.557	0	1477.389	0	-1e10	8	-1e10	8	-1E+10	1	-1E+10	1	-1E+10	1	-1E+10	1	-1E+10	1	-1E+10	1
4902554	80	C	04/25/2023	12:53	-132.701	47.738	0	1505.10	0	2.3420	0	34.5100	0	27.560	0	1487.136	0	-1e10	8	-1e10	8	-1E+10	1	-1E+10	1	-1E+10	1	-1E+10	1	-1E+10	1	-1E+10	1
4902554	80	C	04/25/2023	12:53	-132.701	47.738	0	1515.10	0	2.3360	0	34.5110	0	27.561	0	1496.981	0	-1e10	8	-1e10	8	-1E+10	1	-1E+10	1	-1E+10	1	-1E+10	1	-1E+10	1	-1E+10	1
4902554	80	C	04/25/2023	12:53	-132.701	47.738	0	1525.30	0	2.3260	0	34.5130	0	27.564	0	1507.023	0	-1e10	8	-1e10	8	-1E+10	1	-1E+10	1	-1E+10	1	-1E+10	1	-1E+10	1	-1E+10	1
4902554	80	C	04/25/2023	12:53	-132.701	47.738	0	1535.70	0	2.3170	0	34.5140	0	27.565	0	1517.261	0	-1e10	8	-1e10	8	-1E+10	1	-1E+10	1	-1E+10	1	-1E+10	1	-1E+10	1	-1E+10	1
4902554	80	C	04/25/2023	12:53	-132.701	47.738	0	1545.60	0	2.3110	0	34.5150	0	27.566	0	1527.006	0	-1e10	8	-1e10	8	-1E+10	1	-1E+10	1	-1E+10	1	-1E+10	1	-1E+10	1	-1E+10	1
4902554	80	C	04/25/2023	12:53	-132.701	47.738	0	1555.20	0	2.3070	0	34.5160	0	27.568	0	1536.456	0	-1e10	8	-1e10	8	-1E+10	1	-1E+10	1	-1E+10	1	-1E+10	1	-1E+10	1	-1E+10	1
4902554	80	C	04/25/2023	12:53	-132.701	47.738	0	1565.10	0	2.3030	0	34.5170	0	27.569	0	1546.200	0	-1e10	8	-1e10	8	-1E+10	1	-1E+10	1	-1E+10	1	-1E+10	1	-1E+10	1	-1E+10	1
4902554	80	C	04/25/2023	12:53	-132.701	47.738	0	1575.20	0	2.2980	0	34.5180	0	27.570	0	1556.141	0	-1e10	8	-1e10	8	-1E+10	1	-1E+10	1	-1E+10	1	-1E+10	1	-1E+10	1	-1E+10	1
4902554	80	C	04/25/2023	12:53	-132.701	47.738	0	1585.50	0	2.2910	0	34.5190	0	27.572	0	1566.279	0	-1e10	8	-1e10	8	-1E+10	1	-1E+10	1	-1E+10	1	-1E+10	1	-1E+10	1	-1E+10	1
4902554	80	C	04/25/2023	12:53	-132.701	47.738	0	1595.60	0	2.2790	0	34.5220	0	27.575	0	1576.219	0	-1e10	8	-1e10	8	-1E+10	1	-1E+10	1	-1E+10	1	-1E+10	1	-1E+10	1	-1E+10	1
4902554	80	C	04/25/2023	12:53	-132.701	47.738	0	1605.50	0	2.2630	0	34.5240	0	27.578	0	1585.961	0	-1e10	8	-1e10	8	-1E+10	1	-1E+10	1	-1E+10	1	-1E+10	1	-1E+10	1	-1E+10	1
4902554	80	C	04/25/2023	12:53	-132.701	47.738	0	1615.40	0	2.2520	0	34.5260	0	27.580	0	1595.704	0	-1e10	8	-1e10	8	-1E+10	1	-1E+10	1	-1E+10	1	-1E+10	1	-1E+10	1	-1E+10	1
4902554	80	C	04/25/2023	12:53	-132.701	47.738	0	1625.40	0	2.2350	0	34.5300	0	27.585	0	1605.544	0	-1e10	8	-1e10	8	-1E+10	1	-1E+10	1	-1E+10	1	-1E+10	1	-1E+10	1	-1E+10	1
4902554	80	C	04/25/2023	12:53	-132.701	47.738	0	1635.30	0	2.2190	0	34.5330	0	27.589	0	1615.285	0	-1e10	8	-1e10	8	-1E+10	1	-1E+10	1	-1E+10	1	-1E+10	1	-1E+10	1	-1E+10	1
4902554	80	C	04/25/2023	12:53	-132.701	47.738	0	1645.40	0	2.2060	0	34.5350	0	27.592	0	1625.223	0	-1e10	8	-1e10	8	-1E+10	1	-1E+10	1	-1E+10	1	-1E+10	1	-1E+10	1	-1E+10	1
4902554	80	C	04/25/2023	12:53	-132.701	47.738	0	1655.70	0	2.1980	0	34.5370	0	27.594	0	1635.357	0	-1e10	8	-1e10	8	-1E+10	1	-1E+10	1	-1E+10	1	-1E+10	1	-1E+10	1	-1E+10	1
4902554	80	C	04/25/2023	12:53	-132.701	47.738	0	1665.70	0	2.1910	0	34.5380	0	27.595	0	1645.195	0	-1e10	8	-1e10	8	-1E+10	1	-1E+10	1	-1E+10	1	-1E+10	1	-1E+10	1	-1E+10	1
4902554	80	C	04/25/2023	12:53	-132.701	47.738	0	1675.70	0	2.1750	0	34.5410	0	27.599	0	1655.033	0	-1e10	8	-1e10	8	-1E+10	1	-1E+10	1	-1E+10	1	-1E+10	1	-1E+10	1	-1E+10	1
4902554	80	C	04/25/2023	12:53	-132.701	47.738	0	1685.70	0	2.1600	0	34.5440	0	27.603	0	1664.870	0	-1e10	8	-1e10	8	-1E+10	1	-1E+10	1	-1E+10	1	-1E+10	1	-1E+10	1	-1E+10	1
4902554	80	C	04/25/2023	12:53	-132.701	47.738	0	1695.30	0	2.1470	0	34.5460	0	27.605	0	1674.314	0	-1e10	8	-1e10	8	-1E+10	1	-1E+10	1	-1E+10	1	-1E+10	1	-1E+10	1	-1E+10	1
4902554	80	C	04/25/2023	12:53	-132.701	47.738	0	1705.20	0	2.1370	0	34.5480	0	27.608	0	1684.052	0	-1e10	8	-1e10	8	-1E+10	1	-1E+10	1	-1E+10	1	-1E+10	1	-1E+10	1	-1E+10	1
4902554	80	C	04/25/2023	12:53	-132.701	47.738	0	1715.20	0	2.1300	0	34.5490	0	27.609	0	1693.888	0	-1e10	8	-1e10	8	-1E+10	1	-1E+10	1	-1E+10	1	-1E+10	1	-1E+10	1	-1E+10	1
4902554	80	C	04/25/2023	12:53	-132.701	47.738	0	1725.40	0	2.1170	0	34.5520	0	27.613	0	1703.920	0	-1e10	8	-1e10	8	-1E+10	1	-1E+10	1	-1E+10	1	-1E+10	1	-1E+10	1	-1E+10	1
4902554	80	C	04/25/2023	12:53	-132.701	47.738	0	1735.60	0	2.1050	0	34.5540	0	27.615	0	1713.952	0	-1e10	8	-1e10	8	-1E+10	1	-1E+10	1	-1E+10	1	-1E+10	1	-1E+10	1	-1E+10	1
4902554	80	C	04/25/2023	12:53	-132.701	47.738	0	1745.60	0	2.0980	0	34.5560	0	27.617	0	1723.787	0	-1e10	8	-1e10	8	-1E+10	1	-1E+10	1	-1E+10	1	-1E+10	1	-1E+10	1	-1E+10	1
4902554	80	C	04/25/2023	12:53	-132.701	47.738	0	1755.90	0	2.0880	0	34.5570	0	27.619	0	1733.916	0	-1e10	8	-1e10	8	-1E+10	1	-1E+10	1	-1E+10	1	-1E+10	1	-1E+10	1	-1E+10	1
4902554	80	C	04/25/2023	12:53	-132.701	47.738	0	1765.40	0	2.0780	0	34.5600	0	27.622	0	1743.258	0	-1e10	8	-1e10	8	-1E+10	1	-1E+10	1	-1E+10	1	-1E+10	1	-1E+10	1	-1E+10	1
4902554	80	C	04/25/2023	12:53	-132.701	47.738	0	1775.50	0	2.0640	0	34.5620	0	27.625	0	1753.190	0	-1e10	8	-1e10	8	-1E+10	1	-1E+10	1	-1E+10	1	-1E+10	1	-1E+10	1	-1E+10	1
4902554	80	C	04/25/2023	12:53	-132.701	47.738	0	1785.70	0	2.0550	0	34.5640	0	27.627	0	1763.219	0	-1e10	8	-1e10	8	-1E+10	1	-1E+10	1	-1E+10	1	-1E+10	1	-1E+10	1	-1E+10	1
4902554	80	C	04/25/2023	12:53	-132.701	47.738	0	1795.70	0	2.0490	0	34.5650	0	27.629	0	1773.052	0	-1e10	8	-1e10	8	-1E+10	1	-1E+10	1	-1E+10	1	-1E+10	1	-1E+10	1	-1E+10	1
4902554	80	C	04/25/2023	12:53	-132.701	47.738	0	1805.60	0	2.0400	0	34.5670	0	27.631	0	1782.785	0	-1e10	8	-1e10	8	-1E+10	1	-1E+10	1	-1E+10	1	-1E+10	1	-1E+10	1	-1E+10	1
4902554	80	C	04/25/2023	12:53	-132.701	47.738	0	1815.30	0	2.0360	0	34.5680	0	27.632	0	1792.322	0	-1e10	8	-1e10	8	-1E+10	1	-1E+10	1	-1E+10	1	-1E+10	1	-1E+10	1	-1E+10	1
4902554	80	C	04/25/2023	12:53	-132.701	47.738	0	1825.30	0	2.0290	0	34.5690	0	27.634	0	1802.153	0	-1e10	8	-1e10	8	-1E+10	1	-1E+10	1	-1E+10	1	-1E+10	1	-1E+10	1	-1E+10	1
4902554	80	C	04/25/2023	12:53	-132.701	47.738	0	1835.60	0	2.0220	0	34.5710	0	27.636	0	1812.278	0	-1e10	8	-1e10	8	-1E+10	1	-1E+10	1	-1E+10	1	-1E+10	1	-1E+10	1	-1E+10	1
4902554	80	C	04/25/2023	12:53	-132.701	47.738	0	1845.60	0	2.0150	0	34.5720	0	27.637	0	1822.109	0	-1e10	8	-1e10	8	-1E+10	1	-1E+10	1	-1E+10	1	-1E+10	1	-1E+10	1	-1E+10	1
4902554	80	C	04/25/2023	12:53	-132.701	47.738	0	1855.50	0	2.0090	0	34.5730	0	27.639	0	1831.840	0	-1e10	8	-1e10	8	-1E+10	1	-1E+10	1	-1E+10	1	-1E+10	1	-1E+10	1	-1E+10	1
4902554	80	C	04/25/2023	12:53	-132.701	47.738	0	1865.30	0	2.0030	0	34.5750	0	27.641	0	1841.473	0	-1e10	8	-1e10	8	-1E+10	1	-1E+10	1	-1E+10	1	-1E+10	1	-1E+10	1	-1E+10	1
4902554	80	C	04/25/2023	12:53	-132.701	47.738	0	1875.30	0	1.9970	0	34.5760	0	27.642	0	1851.301	0	-1e10	8	-1e10	8	-1E+10	1	-1E+10	1	-1E+10	1	-1E+10	1	-1E+10	1	-1E+10	1
4902554	80	C	04/25/2023	12:53	-132.701	47.738	0	1885.50	0	1.9910	0	34.5770	0	27.643	0	1861.326	0	-1e10	8	-1e10	8	-1E+10	1	-1E+10	1	-1E+10	1	-1E+10	1	-1E+10	1	-1E+10	1
4902554	80	C	04/25/2023	12:53	-132.701	47.738	0	1895.60	0	1.9830	0	34.5790	0	27.646	0	1871.252	0	-1e10	8	-1e10	8	-1E+10	1	-1E+10	1	-1E+10	1	-1E+10	1	-1E+10	1	-1E+10	1
4902554	80	C	04/25/2023	12:53	-132.701	47.738	0	1905.50	0	1.9760	0	34.5800	0	27.647	0	1880.981	0	-1e10	8	-1e10	8	-1E+10	1	-1E+10	1	-1E+10	1	-1E+10	1	-1E+10	1	-1E+10	1
4902554	80	C	04/25/2023	12:53	-132.701	47.738	0	1915.60	0	1.9730	0	34.5810	0	27.648	0	1890.907	0	-1e10	8	-1e10	8	-1E+10	1	-1E+10	1	-1E+10	1	-1E+10	1	-1E+10	1	-1E+10	1
4902554	80	C	04/25/2023	12:53	-132.701	47.738	0	1925.40	0	1.9660	0	34.5820	0	27.650	0	1900.537	0	-1e10	8	-1e10	8	-1E+10	1	-1E+10	1	-1E+10	1	-1E+10	1	-1E+10	1	-1E+10	1
4902554	80	C	04/25/2023	12:53	-132.701	47.738	0	1935.40	0	1.9590	0	34.5830	0	27.651	0	1910.363	0	-1e10	8	-1e10	8	-1E+10	1	-1E+10	1	-1E+10	1	-1E+10	1	-1E+10	1	-1E+10	1
4902554	80	C	04/25/2023	12:53	-132.701	47.738	0	1945.50	0	1.9530	0	34.5840	0	27.652	0	1920.286	0	-1e10	8	-1e10	8	-1E+10	1	-1E+10	1	-1E+10	1	-1E+10	1	-1E+10	1	-1E+10	1
4902554	80	C	04/25/2023	12:53	-132.701	47.738	0	1955.30	0	1.9510	0	34.5850	0	27.653	0	1929.915	0	-1e10	8	-1e10	8	-1E+10	1	-1E+10	1	-1E+10	1	-1E+10	1	-1E+10	1	-1E+10	1
4902554	80	C	04/25/2023	12:53	-132.701	47.738	0	1965.10	0	1.9490	0	34.5860	0	27.654	0	1939.543	0	-1e10	8	-1e10	8	-1E+10	1	-1E+10	1	-1E+10	1	-1E+10	1	-1E+10	1	-1E+10	1
4902554	80	C	04/25/2023	12:53	-132.701	47.738	0	1975.40	0	1.9420	0	34.5870	0	27.656	0	1949.662	0	-1e10	8	-1e10	8	-1E+10	1	-1E+10	1	-1E+10	1	-1E+10	1	-1E+10	1	-1E+10	1
4902554	80	C	04/25/2023	12:53	-132.701	47.738	0	1985.80	0	1.9390	0	34.5880	0	27.657	0	1959.879	0	-1e10	8	-1e10	8	-1E+10	1	-1E+10	1	-1E+10	1	-1E+10	1	-1E+10	1	-1E+10	1
4902554	80	C	04/25/2023	12:53	-132.701	47.738	0	1995.70	0	1.9360	0	34.5880	0	27.657	0	1969.604	0	-1e10	8	-1e10	8	-1E+10	1	-1E+10	1	-1E+10	1	-1E+10	1	-1E+10	1	-1E+10	1
4902554	80	C	04/25/2023	12:53	-132.701	47.738	0	2005.80	0	1.9300	0	34.5900	0	27.659	0	1979.525	0	-1e10	8	-1e10	8	-1E+10	1	-1E+10	1	-1E+10	1	-1E+10	1	-1E+10	1	-1E+10	1
4902554	80	C	04/25/2023	12:53	-132.701	47.738	0	2016.10	0	1.9250	0	34.5910	0	27.660	0	1989.642	0	-1e10	8	-1e10	8	-1E+10	1	-1E+10	1	-1E+10	1	-1E+10	1	-1E+10	1	-1E+10	1
4902554	80	C	04/25/2023	12:53	-132.701	47.738	0	2022.20	0	1.9200	0	34.5920	0	27.662	0	1995.633	0	-1e10	8	-1e10	8	-1E+10	1	-1E+10	1	-1E+10	1	-1E+10	1	-1E+10	1	-1E+10	1
4902554	80	C	04/25/2023	12:53	-132.701	47.738	0																										
4902554	81	C	05/05/2023	17:53	-132.746	47.685	0	0.30	0	8.2660	0	32.3440	0	25.150	0	0.297	0	-1e10	1	-1e10	1	-1E+10	1	-1E+10	1	-1E+10	1	-1E+10	1	-1E+10	1	-1E+10	1
4902554	81	C	05/05/2023	17:53	-132.746	47.685	0	0.40	0	8.2510	0	32.3340	0	25.144	0	0.397	0	-1e10	8	-1e10	8	-1E+10	1	-1E+10	1	-1E+10	1	-1E+10	1	-1E+10	1	-1E+10	1
4902554	81	C	05/05/2023	17:53	-132.746	47.685	0	1.00	0	8.2460	0	32.3220	0	25.136	0	0.992	0	-1e10	8	-1e10	8	-1E+10	1	-1E+10	1	-1E+10	1	-1E+10	1	-1E+10	1	-1E+10	1
4902554	81	C	05/05/2023	17:53	-132.746	47.685	0	2.10	0	8.2370	0	32.3270	0	25.141	0	2.082	0	-1e10	8	-1e10	8	-1E+10	1	-1E+10	1	-1E+10	1	-1E+10	1	-1E+10	1	-1E+10	1
4902554	81	C	05/05/2023	17:53	-132.746	47.685	0	3.00	0	8.2340	0	32.3280	0	25.142	0	2.975	0	-1e10	8	-1e10	8	-1E+10	1	-1E+10	1	-1E+10	1	-1E+10	1	-1E+10	1	-1E+10	1
4902554	81	C	05/05/2023	17:53	-132.746	47.685	0	3.80	0	8.2300	0	32.3310	0	25.145	0	3.768	0	-1e10	8	-1e10	8	-1E+10	1	-1E+10	1	-1E+10	1	-1E+10	1	-1E+10	1	-1E+10	1
4902554	81	C	05/05/2023	17:53	-132.746	47.685	0	5.00	0	8.2210	0	32.3380	0	25.152	0	4.958	0	-1e10	8	-1e10	8	-1E+10	1	-1E+10	1	-1E+10	1	-1E+10	1	-1E+10	1	-1E+10	1
4902554	81	C	05/05/2023	17:53	-132.746	47.685	0	5.90	0	8.2120	0	32.3380	0	25.153	0	5.851	0	-1e10	8	-1e10	8	-1E+10	1	-1E+10	1	-1E+10	1	-1E+10	1	-1E+10	1	-1E+10	1
4902554	81	C	05/05/2023	17:53	-132.746	47.685	0	6.90	0	8.1990	0	32.3380	0	25.155	0	6.842	0	-1e10	8	-1e10	8	-1E+10	1	-1E+10	1	-1E+10	1	-1E+10	1	-1E+10	1	-1E+10	1
4902554	81	C	05/05/2023	17:53	-132.746	47.685	0	7.90	0	8.1900	0	32.3380	0	25.157	0	7.834	0	-1e10	8	-1e10	8	-1E+10	1	-1E+10	1	-1E+10	1	-1E+10	1	-1E+10	1	-1E+10	1
4902554	81	C	05/05/2023	17:53	-132.746	47.685	0	9.00	0	8.1850	0	32.3380	0	25.157	0	8.925	0	-1e10	8	-1e10	8	-1E+10	1	-1E+10	1	-1E+10	1	-1E+10	1	-1E+10	1	-1E+10	1
4902554	81	C	05/05/2023	17:53	-132.746	47.685	0	10.10	0	8.1770	0	32.3370	0	25.158	0	10.015	0	-1e10	8	-1e10	8	-1E+10	1	-1E+10	1	-1E+10	1	-1E+10	1	-1E+10	1	-1E+10	1
4902554	81	C	05/05/2023	17:53	-132.746	47.685	0	10.90	0	8.1730	0	32.3370	0	25.158	0	10.809	0	-1e10	8	-1e10	8	-1E+10	1	-1E+10	1	-1E+10	1	-1E+10	1	-1E+10	1	-1E+10	1
4902554	81	C	05/05/2023	17:53	-132.746	47.685	0	11.90	0	8.1700	0	32.3370	0	25.159	0	11.800	0	-1e10	8	-1e10	8	-1E+10	1	-1E+10	1	-1E+10	1	-1E+10	1	-1E+10	1	-1E+10	1
4902554	81	C	05/05/2023	17:53	-132.746	47.685	0	13.00	0	8.1650	0	32.3370	0	25.160	0	12.891	0	-1e10	8	-1e10	8	-1E+10	1	-1E+10	1	-1E+10	1	-1E+10	1	-1E+10	1	-1E+10	1
4902554	81	C	05/05/2023	17:53	-132.746	47.685	0	14.10	0	8.1600	0	32.3370	0	25.160	0	13.982	0	-1e10	8	-1e10	8	-1E+10	1	-1E+10	1	-1E+10	1	-1E+10	1	-1E+10	1	-1E+10	1
4902554	81	C	05/05/2023	17:53	-132.746	47.685	0	14.80	0	8.1550	0	32.3370	0	25.161	0	14.676	0	-1e10	8	-1e10	8	-1E+10	1	-1E+10	1	-1E+10	1	-1E+10	1	-1E+10	1	-1E+10	1
4902554	81	C	05/05/2023	17:53	-132.746	47.685	0	15.90	0	8.1320	0	32.3370	0	25.164	0	15.766	0	-1e10	8	-1e10	8	-1E+10	1	-1E+10	1	-1E+10	1	-1E+10	1	-1E+10	1	-1E+10	1
4902554	81	C	05/05/2023	17:53	-132.746	47.685	0	17.10	0	8.1160	0	32.3370	0	25.167	0	16.956	0	-1e10	8	-1e10	8	-1E+10	1	-1E+10	1	-1E+10	1	-1E+10	1	-1E+10	1	-1E+10	1
4902554	81	C	05/05/2023	17:53	-132.746	47.685	0	17.80	0	8.1100	0	32.3370	0	25.168	0	17.650	0	-1e10	8	-1e10	8	-1E+10	1	-1E+10	1	-1E+10	1	-1E+10	1	-1E+10	1	-1E+10	1
4902554	81	C	05/05/2023	17:53	-132.746	47.685	0	19.00	0	8.1040	0	32.3370	0	25.168	0	18.840	0	-1e10	8	-1e10	8	-1E+10	1	-1E+10	1	-1E+10	1	-1E+10	1	-1E+10	1	-1E+10	1
4902554	81	C	05/05/2023	17:53	-132.746	47.685	0	20.10	0	8.1020	0	32.3370	0	25.169	0	19.931	0	-1e10	8	-1e10	8	-1E+10	1	-1E+10	1	-1E+10	1	-1E+10	1	-1E+10	1	-1E+10	1
4902554	81	C	05/05/2023	17:53	-132.746	47.685	0	20.80	0	8.1000	0	32.3370	0	25.169	0	20.625	0	-1e10	8	-1e10	8	-1E+10	1	-1E+10	1	-1E+10	1	-1E+10	1	-1E+10	1	-1E+10	1
4902554	81	C	05/05/2023	17:53	-132.746	47.685	0	21.90	0	8.0970	0	32.3370	0	25.170	0	21.716	0	-1e10	8	-1e10	8	-1E+10	1	-1E+10	1	-1E+10	1	-1E+10	1	-1E+10	1	-1E+10	1
4902554	81	C	05/05/2023	17:53	-132.746	47.685	0	23.00	0	8.0920	0	32.3370	0	25.170	0	22.806	0	-1e10	8	-1e10	8	-1E+10	1	-1E+10	1	-1E+10	1	-1E+10	1	-1E+10	1	-1E+10	1
4902554	81	C	05/05/2023	17:53	-132.746	47.685	0	24.00	0	8.0870	0	32.3370	0	25.171	0	23.798	0	-1e10	8	-1e10	8	-1E+10	1	-1E+10	1	-1E+10	1	-1E+10	1	-1E+10	1	-1E+10	1
4902554	81	C	05/05/2023	17:53	-132.746	47.685	0	25.00	0	8.0850	0	32.3360	0	25.171	0	24.789	0	-1e10	8	-1e10	8	-1E+10	1	-1E+10	1	-1E+10	1	-1E+10	1	-1E+10	1	-1E+10	1
4902554	81	C	05/05/2023	17:53	-132.746	47.685	0	26.00	0	8.0560	0	32.3400	0	25.178	0	25.781	0	-1e10	8	-1e10	8	-1E+10	1	-1E+10	1	-1E+10	1	-1E+10	1	-1E+10	1	-1E+10	1
4902554	81	C	05/05/2023	17:53	-132.746	47.685	0	27.10	0	7.9870	0	32.3410	0	25.189	0	26.872	0	-1e10	8	-1e10	8	-1E+10	1	-1E+10	1	-1E+10	1	-1E+10	1	-1E+10	1	-1E+10	1
4902554	81	C	05/05/2023	17:53	-132.746	47.685	0	27.90	0	7.9460	0	32.3450	0	25.198	0	27.665	0	-1e10	8	-1e10	8	-1E+10	1	-1E+10	1	-1E+10	1	-1E+10	1	-1E+10	1	-1E+10	1
4902554	81	C	05/05/2023	17:53	-132.746	47.685	0	29.00	0	7.9220	0	32.3460	0	25.202	0	28.755	0	-1e10	8	-1e10	8	-1E+10	1	-1E+10	1	-1E+10	1	-1E+10	1	-1E+10	1	-1E+10	1
4902554	81	C	05/05/2023	17:53	-132.746	47.685	0	30.20	0	7.9090	0	32.3470	0	25.205	0	29.945	0	-1e10	8	-1e10	8	-1E+10	1	-1E+10	1	-1E+10	1	-1E+10	1	-1E+10	1	-1E+10	1
4902554	81	C	05/05/2023	17:53	-132.746	47.685	0	30.90	0	7.9000	0	32.3460	0	25.205	0	30.639	0	-1e10	8	-1e10	8	-1E+10	1	-1E+10	1	-1E+10	1	-1E+10	1	-1E+10	1	-1E+10	1
4902554	81	C	05/05/2023	17:53	-132.746	47.685	0	32.00	0	7.8830	0	32.3480	0	25.209	0	31.730	0	-1e10	8	-1e10	8	-1E+10	1	-1E+10	1	-1E+10	1	-1E+10	1	-1E+10	1	-1E+10	1
4902554	81	C	05/05/2023	17:53	-132.746	47.685	0	33.10	0	7.8730	0	32.3480	0	25.211	0	32.821	0	-1e10	8	-1e10	8	-1E+10	1	-1E+10	1	-1E+10	1	-1E+10	1	-1E+10	1	-1E+10	1
4902554	81	C	05/05/2023	17:53	-132.746	47.685	0	34.10	0	7.8420	0	32.3500	0	25.217	0	33.812	0	-1e10	8	-1e10	8	-1E+10	1	-1E+10	1	-1E+10	1	-1E+10	1	-1E+10	1	-1E+10	1
4902554	81	C	05/05/2023	17:53	-132.746	47.685	0	35.10	0	7.8080	0	32.3510	0	25.222	0	34.804	0	-1e10	8	-1e10	8	-1E+10	1	-1E+10	1	-1E+10	1	-1E+10	1	-1E+10	1	-1E+10	1
4902554	81	C	05/05/2023	17:53	-132.746	47.685	0	36.10	0	7.7830	0	32.3520	0	25.227	0	35.795	0	-1e10	8	-1e10	8	-1E+10	1	-1E+10	1	-1E+10	1	-1E+10	1	-1E+10	1	-1E+10	1
4902554	81	C	05/05/2023	17:53	-132.746	47.685	0	37.00	0	7.7560	0	32.3510	0	25.230	0	36.687	0	-1e10	8	-1e10	8	-1E+10	1	-1E+10	1	-1E+10	1	-1E+10	1	-1E+10	1	-1E+10	1
4902554	81	C	05/05/2023	17:53	-132.746	47.685	0	38.10	0	7.6840	0	32.3600	0	25.247	0	37.778	0	-1e10	8	-1e10	8	-1E+10	1	-1E+10	1	-1E+10	1	-1E+10	1	-1E+10	1	-1E+10	1
4902554	81	C	05/05/2023	17:53	-132.746	47.685	0	38.90	0	7.5890	0	32.3670	0	25.266	0	38.571	0	-1e10	8	-1e10	8	-1E+10	1	-1E+10	1	-1E+10	1	-1E+10	1	-1E+10	1	-1E+10	1
4902554	81	C	05/05/2023	17:53	-132.746	47.685	0	40.10	0	7.4940	0	32.3750	0	25.285	0	39.761	0	-1e10	8	-1e10	8	-1E+10	1	-1E+10	1	-1E+10	1	-1E+10	1	-1E+10	1	-1E+10	1
4902554	81	C	05/05/2023	17:53	-132.746	47.685	0	40.90	0	7.4590	0	32.3720	0	25.288	0	40.554	0	-1e10	8	-1e10	8	-1E+10	1	-1E+10	1	-1E+10	1	-1E+10	1	-1E+10	1	-1E+10	1
4902554	81	C	05/05/2023	17:53	-132.746	47.685	0	42.00	0	7.4290	0	32.3710	0	25.291	0	41.645	0	-1e10	8	-1e10	8	-1E+10	1	-1E+10	1	-1E+10	1	-1E+10	1	-1E+10	1	-1E+10	1
4902554	81	C	05/05/2023	17:53	-132.746	47.685	0	43.10	0	7.4380	0	32.3750	0	25.293	0	42.735	0	-1e10	8	-1e10	8	-1E+10	1	-1E+10	1	-1E+10	1	-1E+10	1	-1E+10	1	-1E+10	1
4902554	81	C	05/05/2023	17:53	-132.746	47.685	0	43.90	0	7.4360	0	32.3750	0	25.293	0	43.528	0	-1e10	8	-1e10	8	-1E+10	1	-1E+10	1	-1E+10	1	-1E+10	1	-1E+10	1	-1E+10	1
4902554	81	C	05/05/2023	17:53	-132.746	47.685	0	45.00	0	7.4280	0	32.3740	0	25.294	0	44.619	0	-1e10	8	-1e10	8	-1E+10	1	-1E+10	1	-1E+10	1	-1E+10	1	-1E+10	1	-1E+10	1
4902554	81	C	05/05/2023	17:53	-132.746	47.685	0	45.90	0	7.4120	0	32.3730	0	25.295	0	45.511	0	-1e10	8	-1e10	8	-1E+10	1	-1E+10	1	-1E+10	1	-1E+10	1	-1E+10	1	-1E+10	1
4902554	81	C	05/05/2023	17:53	-132.746	47.685	0	46.80	0	7.3900	0	32.3710	0	25.296	0	46.403	0	-1e10	8	-1e10	8	-1E+10	1	-1E+10	1	-1E+10	1	-1E+10	1	-1E+10	1	-1E+10	1
4902554	81	C	05/05/2023	17:53	-132.746	47.685	0	48.00	0	7.3710	0	32.3700	0	25.298	0	47.593	0	-1e10	8	-1e10	8	-1E+10	1	-1E+10	1	-1E+10	1	-1E+10	1	-1E+10	1	-1E+10	1
4902554	81	C	05/05/2023	17:53	-132.746	47.685	0	48.70	0	7.3640	0	32.3690	0	25.298	0	48.287	0	-1e10	8	-1e10	8	-1E+10	1	-1E+10	1	-1E+10	1	-1E+10	1	-1E+10	1	-1E+10	1
4902554	81	C	05/05/2023	17:53	-132.746	47.685	0	49.70	0	7.3570	0	32.3680	0	25.299	0	49.278	0	-1e10	8	-1e10	8	-1E+10	1	-1E+10	1	-1E+10	1	-1E+10	1	-1E+10	1	-1E+10	1
4902554	81	C	05/05/2023	17:53	-132.746	47.685	0	50.70	0	7.3520	0	32.3680	0	25.299	0	50.270	0	-1e10	8	-1e10	8	-1E+10	1	-1E+10	1	-1E+10	1	-1E+10	1	-1E+10	1	-1E+10	1
4902554	81	C	05/05/2023	17:53	-132.746	47.685	0	51.70	0	7.3500	0	32.3680	0	25.300	0	51.261	0	-1e10	8	-1e10	8	-1E+10	1	-1E+10	1	-1E+10	1	-1E+10	1	-1E+10	1	-1E+10	1
4902554	81	C	05/05/2023	17:53	-132.746	47.685	0	52.80	0	7.3490	0	32.3670	0	25.299	0	52.352	0	-1e10	8	-1e10	8	-1E+10	1	-1E+10	1	-1E+10	1	-1E+10	1	-1E+10	1	-1E+10	1
4902554	81	C	05/05/2023	17:53	-132.746	47.685	0	53.80	0	7.3460	0	32.3680	0	25.300	0	53.343	0	-1e10	8	-1e10	8	-1E+10	1	-1E+10	1	-1E+10	1	-1E+10	1	-1E+10	1	-1E+10	1
4902554	81	C	05/05/2023	17:53	-132.746	47.685	0	54.90	0	7.3450	0	32.3680	0	25.300	0	54.434	0	-1e10	8	-1e10	8	-1E+10	1	-1E+10	1	-1E+10	1	-1E+10	1	-1E+10	1	-1E+10	1
4902554	81	C	05/05/2023	17:53	-132.746	47.685	0	56.00	0	7.3490	0	32.3700	0	25.301	0	55.524	0	-1e10	8	-1e10	8	-1E+10	1	-1E+10	1	-1E+10	1	-1E+10	1	-1E+10	1	-1E+10	1
4902554	81	C	05/05/2023	17:53	-132.746	47.685	0	57.10	0	7.3540	0	32.3710	0	25.301	0	56.615	0	-1e10	8	-1e10	8	-1E+10	1	-1E+10	1	-1E+10	1	-1E+10	1	-1E+10	1	-1E+10	1
4902554	81	C	05/05/2023	17:53	-132.746	47.685	0	58.00	0	7.3550	0	32.3710	0	25.301	0	57.507	0	-1e10	8	-1e10	8	-1E+10	1	-1E+10	1	-1E+10	1	-1E+10	1	-1E+10	1	-1E+10	1
4902554	81	C	05/05/2023	17:53	-132.746	47.685	0	58.80	0	7.3540	0	32.3720	0	25.302	0	58.300	0	-1e10	8	-1e10	8	-1E+10	1	-1E+10	1	-1E+10	1	-1E+10	1	-1E+10	1	-1E+10	1
4902554	81	C	05/05/2023	17:53	-132.746	47.685	0	59.90	0	7.3560	0	32.3720	0	25.302	0	59.390	0	-1e10	8	-1e10	8	-1E+10	1	-1E+10	1	-1E+10	1	-1E+10	1	-1E+10	1	-1E+10	1
4902554	81	C	05/05/2023	17:53	-132.746	47.685	0	61.00	0	7.3610	0	32.3730	0	25.302	0	60.481	0	-1e10	8	-1e10	8	-1E+10	1	-1E+10	1	-1E+10	1	-1E+10	1	-1E+10	1	-1E+10	1
4902554	81	C	05/05/2023	17:53	-132.746	47.685	0	61.90	0	7.3790	0	32.3770	0	25.303	0	61.373	0	-1e10	8	-1e10	8	-1E+10	1	-1E+10	1	-1E+10	1	-1E+10	1	-1E+10	1	-1E+10	1
4902554	81	C	05/05/2023	17:53	-132.746	47.685	0	62.70	0	7.3820	0	32.3780	0	25.303	0	62.166	0	-1e10	8	-1e10	8	-1E+10	1	-1E+10	1	-1E+10	1	-1E+10	1	-1E+10	1	-1E+10	1
4902554	81	C	05/05/2023	17:53	-132.746	47.685	0	63.80	0	7.3890	0	32.3790	0	25.303	0	63.257	0	-1e10	8	-1e10	8	-1E+10	1	-1E+10	1	-1E+10	1	-1E+10	1	-1E+10	1	-1E+10	1
4902554	81	C	05/05/2023	17:53	-132.746	47.685	0	65.00	0	7.3940	0	32.3800	0	25.303	0	64.446	0	-1e10	8	-1e10	8	-1E+10	1	-1E+10	1	-1E+10	1	-1E+10	1	-1E+10	1	-1E+10	1
4902554	81	C	05/05/2023	17:53	-132.746	47.685	0	66.10	0	7.4040	0	32.3830	0	25.304	0	65.537	0	-1e10	8	-1e10	8	-1E+10	1	-1E+10	1	-1E+10	1	-1E+10	1	-1E+10	1	-1E+10	1
4902554	81	C	05/05/2023	17:53	-132.746	47.685	0	67.10	0	7.4100	0	32.3840	0	25.304	0	66.528	0	-1e10	8	-1e10	8	-1E+10	1	-1E+10	1	-1E+10	1	-1E+10	1	-1E+10	1	-1E+10	1
4902554	81	C	05/05/2023	17:53	-132.746	47.685	0	68.00	0	7.4100	0	32.3850	0	25.305	0	67.420	0	-1e10	8	-1e10	8	-1E+10	1	-1E+10	1	-1E+10	1	-1E+10	1	-1E+10	1	-1E+10	1
4902554	81	C	05/05/2023	17:53	-132.746	47.685	0	68.70	0	7.4170	0	32.3860	0	25.305	0	68.114	0	-1e10	8	-1e10	8	-1E+10	1	-1E+10	1	-1E+10	1	-1E+10	1	-1E+10	1	-1E+10	1
4902554	81	C	05/05/2023	17:53	-132.746	47.685	0	69.80	0	7.4200	0	32.3860	0	25.304	0	69.205	0	-1e10	8	-1e10	8	-1E+10	1	-1E+10	1	-1E+10	1	-1E+10	1	-1E+10	1	-1E+10	1
4902554	81	C	05/05/2023	17:53	-132.746	47.685	0	70.90	0	7.4210	0	32.3870	0	25.305	0	70.295	0	-1e10	8	-1e10	8	-1E+10	1	-1E+10	1	-1E+10	1	-1E+10	1	-1E+10	1	-1E+10	1
4902554	81	C	05/05/2023	17:53	-132.746	47.685	0	71.90	0	7.4190	0	32.3860	0	25.305	0	71.286	0	-1e10	8	-1e10	8	-1E+10	1	-1E+10	1	-1E+10	1	-1E+10	1	-1E+10	1	-1E+10	1
4902554	81	C	05/05/2023	17:53	-132.746	47.685	0	73.00	0	7.4170	0	32.3860	0	25.305	0	72.377	0	-1e10	8	-1e10	8	-1E+10	1	-1E+10	1	-1E+10	1	-1E+10	1	-1E+10	1	-1E+10	1
4902554	81	C	05/05/2023	17:53	-132.746	47.685	0	74.10	0	7.3970	0	32.3840	0	25.306	0	73.467	0	-1e10	8	-1e10	8	-1E+10	1	-1E+10	1	-1E+10	1	-1E+10	1	-1E+10	1	-1E+10	1
4902554	81	C	05/05/2023	17:53	-132.746	47.685	0	74.90	0	7.3890	0	32.3830	0	25.306	0	74.260	0	-1e10	8	-1e10	8	-1E+10	1	-1E+10	1	-1E+10	1	-1E+10	1	-1E+10	1	-1E+10	1
4902554	81	C	05/05/2023	17:53	-132.746	47.685	0	75.70	0	7.3830	0	32.3830	0	25.307	0	75.053	0	-1e10	8	-1e10	8	-1E+10	1	-1E+10	1	-1E+10	1	-1E+10	1	-1E+10	1	-1E+10	1
4902554	81	C	05/05/2023	17:53	-132.746	47.685	0	76.80	0	7.3740	0	32.3810	0	25.307	0	76.144	0	-1e10	8	-1e10	8	-1E+10	1	-1E+10	1	-1E+10	1	-1E+10	1	-1E+10	1	-1E+10	1
4902554	81	C	05/05/2023	17:53	-132.746	47.685	0	77.90	0	7.3740	0	32.3810	0	25.307	0	77.234	0	-1e10	8	-1e10	8	-1E+10	1	-1E+10	1	-1E+10	1	-1E+10	1	-1E+10	1	-1E+10	1
4902554	81	C	05/05/2023	17:53	-132.746	47.685	0	79.00	0	7.3720	0	32.3810	0	25.307	0	78.324	0	-1e10	8	-1e10	8	-1E+10	1	-1E+10	1	-1E+10	1	-1E+10	1	-1E+10	1	-1E+10	1
4902554	81	C	05/05/2023	17:53	-132.746	47.685	0	80.10	0	7.3740	0	32.3810	0	25.307	0	79.415	0	-1e10	8	-1e10	8	-1E+10	1	-1E+10	1	-1E+10	1	-1E+10	1	-1E+10	1	-1E+10	1
4902554	81	C	05/05/2023	17:53	-132.746	47.685	0	81.00	0	7.3750	0	32.3820	0	25.308	0	80.307	0	-1e10	8	-1e10	8	-1E+10	1	-1E+10	1	-1E+10	1	-1E+10	1	-1E+10	1	-1E+10	1
4902554	81	C	05/05/2023	17:53	-132.746	47.685	0	81.80	0	7.3770	0	32.3820	0	25.307	0	81.100	0	-1e10	8	-1e10	8	-1E+10	1	-1E+10	1	-1E+10	1	-1E+10	1	-1E+10	1	-1E+10	1
4902554	81	C	05/05/2023	17:53	-132.746	47.685	0	82.90	0	7.3740	0	32.3820	0	25.308	0	82.190	0	-1e10	8	-1e10	8	-1E+10	1	-1E+10	1	-1E+10	1	-1E+10	1	-1E+10	1	-1E+10	1
4902554	81	C	05/05/2023	17:53	-132.746	47.685	0	84.00	0	7.3760	0	32.3830	0	25.308	0	83.281	0	-1e10	8	-1e10	8	-1E+10	1	-1E+10	1	-1E+10	1	-1E+10	1	-1E+10	1	-1E+10	1
4902554	81	C	05/05/2023	17:53	-132.746	47.685	0	85.10	0	7.3780	0	32.3830	0	25.308	0	84.371	0	-1e10	8	-1e10	8	-1E+10	1	-1E+10	1	-1E+10	1	-1E+10	1	-1E+10	1	-1E+10	1
4902554	81	C	05/05/2023	17:53	-132.746	47.685	0	86.00	0	7.3830	0	32.3840	0	25.308	0	85.263	0	-1e10	8	-1e10	8	-1E+10	1	-1E+10	1	-1E+10	1	-1E+10	1	-1E+10	1	-1E+10	1
4902554	81	C	05/05/2023	17:53	-132.746	47.685	0	86.80	0	7.3830	0	32.3840	0	25.308	0	86.056	0	-1e10	8	-1e10	8	-1E+10	1	-1E+10	1	-1E+10	1	-1E+10	1	-1E+10	1	-1E+10	1
4902554	81	C	05/05/2023	17:53	-132.746	47.685	0	87.90	0	7.3570	0	32.3820	0	25.310	0	87.146	0	-1e10	8	-1e10	8	-1E+10	1	-1E+10	1	-1E+10	1	-1E+10	1	-1E+10	1	-1E+10	1
4902554	81	C	05/05/2023	17:53	-132.746	47.685	0	89.10	0	7.3420	0	32.3790	0	25.310	0	88.336	0	-1e10	8	-1e10	8	-1E+10	1	-1E+10	1	-1E+10	1	-1E+10	1	-1E+10	1	-1E+10	1
4902554	81	C	05/05/2023	17:53	-132.746	47.685	0	90.00	0	7.3390	0	32.3780	0	25.309	0	89.228	0	-1e10	8	-1e10	8	-1E+10	1	-1E+10	1	-1E+10	1	-1E+10	1	-1E+10	1	-1E+10	1
4902554	81	C	05/05/2023	17:53	-132.746	47.685	0	90.70	0	7.3150	0	32.3760	0	25.311	0	89.922	0	-1e10	8	-1e10	8	-1E+10	1	-1E+10	1	-1E+10	1	-1E+10	1	-1E+10	1	-1E+10	1
4902554	81	C	05/05/2023	17:53	-132.746	47.685	0	91.80	0	7.2960	0	32.3760	0	25.314	0	91.012	0	-1e10	8	-1e10	8	-1E+10	1	-1E+10	1	-1E+10	1	-1E+10	1	-1E+10	1	-1E+10	1
4902554	81	C	05/05/2023	17:53	-132.746	47.685	0	92.90	0	7.3200	0	32.3860	0	25.318	0	92.102	0	-1e10	8	-1e10	8	-1E+10	1	-1E+10	1	-1E+10	1	-1E+10	1	-1E+10	1	-1E+10	1
4902554	81	C	05/05/2023	17:53	-132.746	47.685	0	93.90	0	7.3330	0	32.3910	0	25.321	0	93.094	0	-1e10	8	-1e10	8	-1E+10	1	-1E+10	1	-1E+10	1	-1E+10	1	-1E+10	1	-1E+10	1
4902554	81	C	05/05/2023	17:53	-132.746	47.685	0	95.00	0	7.3100	0	32.3950	0	25.327	0	94.184	0	-1e10	8	-1e10	8	-1E+10	1	-1E+10	1	-1E+10	1	-1E+10	1	-1E+10	1	-1E+10	1
4902554	81	C	05/05/2023	17:53	-132.746	47.685	0	96.00	0	7.3040	0	32.3950	0	25.328	0	95.175	0	-1e10	8	-1e10	8	-1E+10	1	-1E+10	1	-1E+10	1	-1E+10	1	-1E+10	1	-1E+10	1
4902554	81	C	05/05/2023	17:53	-132.746	47.685	0	97.10	0	7.2490	0	32.4100	0	25.347	0	96.265	0	-1e10	8	-1e10	8	-1E+10	1	-1E+10	1	-1E+10	1	-1E+10	1	-1E+10	1	-1E+10	1
4902554	81	C	05/05/2023	17:53	-132.746	47.685	0	98.00	0	7.2330	0	32.4150	0	25.353	0	97.157	0	-1e10	8	-1e10	8	-1E+10	1	-1E+10	1	-1E+10	1	-1E+10	1	-1E+10	1	-1E+10	1
4902554	81	C	05/05/2023	17:53	-132.746	47.685	0	98.80	0	7.1930	0	32.4320	0	25.372	0	97.950	0	-1e10	8	-1e10	8	-1E+10	1	-1E+10	1	-1E+10	1	-1E+10	1	-1E+10	1	-1E+10	1
4902554	81	C	05/05/2023	17:53	-132.746	47.685	0	100.00	0	7.1610	0	32.4540	0	25.393	0	99.140	0	-1e10	8	-1e10	8	-1E+10	1	-1E+10	1	-1E+10	1	-1E+10	1	-1E+10	1	-1E+10	1
4902554	81	C	05/05/2023	17:53	-132.746	47.685	0	101.10	0	7.1290	0	32.4730	0	25.413	0	100.230	0	-1e10	8	-1e10	8	-1E+10	1	-1E+10	1	-1E+10	1	-1E+10	1	-1E+10	1	-1E+10	1
4902554	81	C	05/05/2023	17:53	-132.746	47.685	0	102.30	0	7.1050	0	32.5010	0	25.438	0	101.419	0	-1e10	8	-1e10	8	-1E+10	1	-1E+10	1	-1E+10	1	-1E+10	1	-1E+10	1	-1E+10	1
4902554	81	C	05/05/2023	17:53	-132.746	47.685	0	103.00	0	7.0890	0	32.5110	0	25.448	0	102.113	0	-1e10	8	-1e10	8	-1E+10	1	-1E+10	1	-1E+10	1	-1E+10	1	-1E+10	1	-1E+10	1
4902554	81	C	05/05/2023	17:53	-132.746	47.685	0	104.00	0	7.0480	0	32.5390	0	25.476	0	103.104	0	-1e10	8	-1e10	8	-1E+10	1	-1E+10	1	-1E+10	1	-1E+10	1	-1E+10	1	-1E+10	1
4902554	81	C	05/05/2023	17:53	-132.746	47.685	0	105.00	0	6.9690	0	32.5880	0	25.525	0	104.095	0	-1e10	8	-1e10	8	-1E+10	1	-1E+10	1	-1E+10	1	-1E+10	1	-1E+10	1	-1E+10	1
4902554	81	C	05/05/2023	17:53	-132.746	47.685	0	105.90	0	6.9490	0	32.6080	0	25.543	0	104.987	0	-1e10	8	-1e10	8	-1E+10	1	-1E+10	1	-1E+10	1	-1E+10	1	-1E+10	1	-1E+10	1
4902554	81	C	05/05/2023	17:53	-132.746	47.685	0	106.90	0	6.9250	0	32.6290	0	25.563	0	105.979	0	-1e10	8	-1e10	8	-1E+10	1	-1E+10	1	-1E+10	1	-1E+10	1	-1E+10	1	-1E+10	1
4902554	81	C	05/05/2023	17:53	-132.746	47.685	0	107.80	0	6.9010	0	32.6500	0	25.583	0	106.871	0	-1e10	8	-1e10	8	-1E+10	1	-1E+10	1	-1E+10	1	-1E+10	1	-1E+10	1	-1E+10	1
4902554	81	C	05/05/2023	17:53	-132.746	47.685	0	108.90	0	6.8320	0	32.7190	0	25.646	0	107.961	0	-1e10	8	-1e10	8	-1E+10	1	-1E+10	1	-1E+10	1	-1E+10	1	-1E+10	1	-1E+10	1
4902554	81	C	05/05/2023	17:53	-132.746	47.685	0	110.10	0	6.7660	0	32.7640	0	25.690	0	109.150	0	-1e10	8	-1e10	8	-1E+10	1	-1E+10	1	-1E+10	1	-1E+10	1	-1E+10	1	-1E+10	1
4902554	81	C	05/05/2023	17:53	-132.746	47.685	0	111.00	0	6.7330	0	32.7940	0	25.718	0	110.042	0	-1e10	8	-1e10	8	-1E+10	1	-1E+10	1	-1E+10	1	-1E+10	1	-1E+10	1	-1E+10	1
4902554	81	C	05/05/2023	17:53	-132.746	47.685	0	112.00	0	6.7090	0	32.8300	0	25.750	0	111.033	0	-1e10	8	-1e10	8	-1E+10	1	-1E+10	1	-1E+10	1	-1E+10	1	-1E+10	1	-1E+10	1
4902554	81	C	05/05/2023	17:53	-132.746	47.685	0	113.00	0	6.6910	0	32.8560	0	25.773	0	112.024	0	-1e10	8	-1e10	8	-1E+10	1	-1E+10	1	-1E+10	1	-1E+10	1	-1E+10	1	-1E+10	1
4902554	81	C	05/05/2023	17:53	-132.746	47.685	0	114.00	0	6.6590	0	32.8920	0	25.805	0	113.015	0	-1e10	8	-1e10	8	-1E+10	1	-1E+10	1	-1E+10	1	-1E+10	1	-1E+10	1	-1E+10	1
4902554	81	C	05/05/2023	17:53	-132.746	47.685	0	115.10	0	6.5930	0	32.9550	0	25.863	0	114.106	0	-1e10	8	-1e10	8	-1E+10	1	-1E+10	1	-1E+10	1	-1E+10	1	-1E+10	1	-1E+10	1
4902554	81	C	05/05/2023	17:53	-132.746	47.685	0	116.00	0	6.5640	0	32.9830	0	25.889	0	114.998	0	-1e10	8	-1e10	8	-1E+10	1	-1E+10	1	-1E+10	1	-1E+10	1	-1E+10	1	-1E+10	1
4902554	81	C	05/05/2023	17:53	-132.746	47.685	0	116.90	0	6.5430	0	33.0000	0	25.905	0	115.890	0	-1e10	8	-1e10	8	-1E+10	1	-1E+10	1	-1E+10	1	-1E+10	1	-1E+10	1	-1E+10	1
4902554	81	C	05/05/2023	17:53	-132.746	47.685	0	117.80	0	6.4710	0	33.0590	0	25.961	0	116.782	0	-1e10	8	-1e10	8	-1E+10	1	-1E+10	1	-1E+10	1	-1E+10	1	-1E+10	1	-1E+10	1
4902554	81	C	05/05/2023	17:53	-132.746	47.685	0	118.80	0	6.4360	0	33.0830	0	25.985	0	117.773	0	-1e10	8	-1e10	8	-1E+10	1	-1E+10	1	-1E+10	1	-1E+10	1	-1E+10	1	-1E+10	1
4902554	81	C	05/05/2023	17:53	-132.746	47.685	0	119.90	0	6.4200	0	33.0940	0	25.995	0	118.863	0	-1e10	8	-1e10	8	-1E+10	1	-1E+10	1	-1E+10	1	-1E+10	1	-1E+10	1	-1E+10	1
4902554	81	C	05/05/2023	17:53	-132.746	47.685	0	120.80	0	6.4120	0	33.0990	0	26.000	0	119.755	0	-1e10	8	-1e10	8	-1E+10	1	-1E+10	1	-1E+10	1	-1E+10	1	-1E+10	1	-1E+10	1
4902554	81	C	05/05/2023	17:53	-132.746	47.685	0	122.10	0	6.4060	0	33.1020	0	26.003	0	121.043	0	-1e10	8	-1e10	8	-1E+10	1	-1E+10	1	-1E+10	1	-1E+10	1	-1E+10	1	-1E+10	1
4902554	81	C	05/05/2023	17:53	-132.746	47.685	0	123.00	0	6.3890	0	33.1150	0	26.016	0	121.935	0	-1e10	8	-1e10	8	-1E+10	1	-1E+10	1	-1E+10	1	-1E+10	1	-1E+10	1	-1E+10	1
4902554	81	C	05/05/2023	17:53	-132.746	47.685	0	123.90	0	6.3650	0	33.1290	0	26.030	0	122.827	0	-1e10	8	-1e10	8	-1E+10	1	-1E+10	1	-1E+10	1	-1E+10	1	-1E+10	1	-1E+10	1
4902554	81	C	05/05/2023	17:53	-132.746	47.685	0	124.80	0	6.3120	0	33.1670	0	26.067	0	123.719	0	-1e10	8	-1e10	8	-1E+10	1	-1E+10	1	-1E+10	1	-1E+10	1	-1E+10	1	-1E+10	1
4902554	81	C	05/05/2023	17:53	-132.746	47.685	0	125.80	0	6.2830	0	33.1830	0	26.083	0	124.710	0	-1e10	8	-1e10	8	-1E+10	1	-1E+10	1	-1E+10	1	-1E+10	1	-1E+10	1	-1E+10	1
4902554	81	C	05/05/2023	17:53	-132.746	47.685	0	126.80	0	6.2330	0	33.2220	0	26.120	0	125.701	0	-1e10	8	-1e10	8	-1E+10	1	-1E+10	1	-1E+10	1	-1E+10	1	-1E+10	1	-1E+10	1
4902554	81	C	05/05/2023	17:53	-132.746	47.685	0	127.80	0	6.2130	0	33.2570	0	26.150	0	126.692	0	-1e10	8	-1e10	8	-1E+10	1	-1E+10	1	-1E+10	1	-1E+10	1	-1E+10	1	-1E+10	1
4902554	81	C	05/05/2023	17:53	-132.746	47.685	0	128.90	0	6.2120	0	33.2780	0	26.167	0	127.782	0	-1e10	8	-1e10	8	-1E+10	1	-1E+10	1	-1E+10	1	-1E+10	1	-1E+10	1	-1E+10	1
4902554	81	C	05/05/2023	17:53	-132.746	47.685	0	129.90	0	6.2080	0	33.2820	0	26.171	0	128.773	0	-1e10	8	-1e10	8	-1E+10	1	-1E+10	1	-1E+10	1	-1E+10	1	-1E+10	1	-1E+10	1
4902554	81	C	05/05/2023	17:53	-132.746	47.685	0	131.00	0	6.2040	0	33.2840	0	26.173	0	129.863	0	-1e10	8	-1e10	8	-1E+10	1	-1E+10	1	-1E+10	1	-1E+10	1	-1E+10	1	-1E+10	1
4902554	81	C	05/05/2023	17:53	-132.746	47.685	0	132.10	0	6.1960	0	33.2900	0	26.179	0	130.953	0	-1e10	8	-1e10	8	-1E+10	1	-1E+10	1	-1E+10	1	-1E+10	1	-1E+10	1	-1E+10	1
4902554	81	C	05/05/2023	17:53	-132.746	47.685	0	133.20	0	6.1940	0	33.2930	0	26.181	0	132.043	0	-1e10	8	-1e10	8	-1E+10	1	-1E+10	1	-1E+10	1	-1E+10	1	-1E+10	1	-1E+10	1
4902554	81	C	05/05/2023	17:53	-132.746	47.685	0	133.80	0	6.1950	0	33.2930	0	26.181	0	132.638	0	-1e10	8	-1e10	8	-1E+10	1	-1E+10	1	-1E+10	1	-1E+10	1	-1E+10	1	-1E+10	1
4902554	81	C	05/05/2023	17:53	-132.746	47.685	0	134.80	0	6.1810	0	33.3050	0	26.192	0	133.629	0	-1e10	8	-1e10	8	-1E+10	1	-1E+10	1	-1E+10	1	-1E+10	1	-1E+10	1	-1E+10	1
4902554	81	C	05/05/2023	17:53	-132.746	47.685	0	135.80	0	6.1580	0	33.3280	0	26.213	0	134.620	0	-1e10	8	-1e10	8	-1E+10	1	-1E+10	1	-1E+10	1	-1E+10	1	-1E+10	1	-1E+10	1
4902554	81	C	05/05/2023	17:53	-132.746	47.685	0	136.80	0	6.1590	0	33.3490	0	26.230	0	135.611	0	-1e10	8	-1e10	8	-1E+10	1	-1E+10	1	-1E+10	1	-1E+10	1	-1E+10	1	-1E+10	1
4902554	81	C	05/05/2023	17:53	-132.746	47.685	0	137.90	0	6.1540	0	33.3710	0	26.248	0	136.701	0	-1e10	8	-1e10	8	-1E+10	1	-1E+10	1	-1E+10	1	-1E+10	1	-1E+10	1	-1E+10	1
4902554	81	C	05/05/2023	17:53	-132.746	47.685	0	138.70	0	6.1490	0	33.3800	0	26.256	0	137.494	0	-1e10	8	-1e10	8	-1E+10	1	-1E+10	1	-1E+10	1	-1E+10	1	-1E+10	1	-1E+10	1
4902554	81	C	05/05/2023	17:53	-132.746	47.685	0	139.90	0	6.1340	0	33.4120	0	26.283	0	138.683	0	-1e10	8	-1e10	8	-1E+10	1	-1E+10	1	-1E+10	1	-1E+10	1	-1E+10	1	-1E+10	1
4902554	81	C	05/05/2023	17:53	-132.746	47.685	0	141.20	0	6.1180	0	33.4530	0	26.317	0	139.971	0	-1e10	8	-1e10	8	-1E+10	1	-1E+10	1	-1E+10	1	-1E+10	1	-1E+10	1	-1E+10	1
4902554	81	C	05/05/2023	17:53	-132.746	47.685	0	142.10	0	6.1170	0	33.4560	0	26.320	0	140.863	0	-1e10	8	-1e10	8	-1E+10	1	-1E+10	1	-1E+10	1	-1E+10	1	-1E+10	1	-1E+10	1
4902554	81	C	05/05/2023	17:53	-132.746	47.685	0	142.90	0	6.1110	0	33.4650	0	26.328	0	141.656	0	-1e10	8	-1e10	8	-1E+10	1	-1E+10	1	-1E+10	1	-1E+10	1	-1E+10	1	-1E+10	1
4902554	81	C	05/05/2023	17:53	-132.746	47.685	0	143.80	0	6.1110	0	33.4680	0	26.330	0	142.548	0	-1e10	8	-1e10	8	-1E+10	1	-1E+10	1	-1E+10	1	-1E+10	1	-1E+10	1	-1E+10	1
4902554	81	C	05/05/2023	17:53	-132.746	47.685	0	144.80	0	6.1020	0	33.4790	0	26.340	0	143.539	0	-1e10	8	-1e10	8	-1E+10	1	-1E+10	1	-1E+10	1	-1E+10	1	-1E+10	1	-1E+10	1
4902554	81	C	05/05/2023	17:53	-132.746	47.685	0	145.70	0	6.0880	0	33.4920	0	26.352	0	144.431	0	-1e10	8	-1e10	8	-1E+10	1	-1E+10	1	-1E+10	1	-1E+10	1	-1E+10	1	-1E+10	1
4902554	81	C	05/05/2023	17:53	-132.746	47.685	0	146.70	0	6.0870	0	33.4940	0	26.354	0	145.421	0	-1e10	8	-1e10	8	-1E+10	1	-1E+10	1	-1E+10	1	-1E+10	1	-1E+10	1	-1E+10	1
4902554	81	C	05/05/2023	17:53	-132.746	47.685	0	147.60	0	6.0790	0	33.4970	0	26.357	0	146.313	0	-1e10	8	-1e10	8	-1E+10	1	-1E+10	1	-1E+10	1	-1E+10	1	-1E+10	1	-1E+10	1
4902554	81	C	05/05/2023	17:53	-132.746	47.685	0	148.50	0	6.0820	0	33.4980	0	26.357	0	147.205	0	-1e10	8	-1e10	8	-1E+10	1	-1E+10	1	-1E+10	1	-1E+10	1	-1E+10	1	-1E+10	1
4902554	81	C	05/05/2023	17:53	-132.746	47.685	0	149.50	0	6.0670	0	33.5060	0	26.366	0	148.196	0	-1e10	8	-1e10	8	-1E+10	1	-1E+10	1	-1E+10	1	-1E+10	1	-1E+10	1	-1E+10	1
4902554	81	C	05/05/2023	17:53	-132.746	47.685	0	150.50	0	6.0440	0	33.5150	0	26.376	0	149.187	0	-1e10	8	-1e10	8	-1E+10	1	-1E+10	1	-1E+10	1	-1E+10	1	-1E+10	1	-1E+10	1
4902554	81	C	05/05/2023	17:53	-132.746	47.685	0	151.50	0	6.0420	0	33.5180	0	26.378	0	150.178	0	-1e10	8	-1e10	8	-1E+10	1	-1E+10	1	-1E+10	1	-1E+10	1	-1E+10	1	-1E+10	1
4902554	81	C	05/05/2023	17:53	-132.746	47.685	0	152.50	0	6.0300	0	33.5320	0	26.391	0	151.169	0	-1e10	8	-1e10	8	-1E+10	1	-1E+10	1	-1E+10	1	-1E+10	1	-1E+10	1	-1E+10	1
4902554	81	C	05/05/2023	17:53	-132.746	47.685	0	153.50	0	6.0220	0	33.5420	0	26.400	0	152.160	0	-1e10	8	-1e10	8	-1E+10	1	-1E+10	1	-1E+10	1	-1E+10	1	-1E+10	1	-1E+10	1
4902554	81	C	05/05/2023	17:53	-132.746	47.685	0	154.50	0	5.9920	0	33.5570	0	26.415	0	153.151	0	-1e10	8	-1e10	8	-1E+10	1	-1E+10	1	-1E+10	1	-1E+10	1	-1E+10	1	-1E+10	1
4902554	81	C	05/05/2023	17:53	-132.746	47.685	0	155.50	0	5.9900	0	33.5700	0	26.426	0	154.142	0	-1e10	8	-1e10	8	-1E+10	1	-1E+10	1	-1E+10	1	-1E+10	1	-1E+10	1	-1E+10	1
4902554	81	C	05/05/2023	17:53	-132.746	47.685	0	156.60	0	5.9940	0	33.5750	0	26.429	0	155.232	0	-1e10	8	-1e10	8	-1E+10	1	-1E+10	1	-1E+10	1	-1E+10	1	-1E+10	1	-1E+10	1
4902554	81	C	05/05/2023	17:53	-132.746	47.685	0	157.70	0	5.9970	0	33.5870	0	26.438	0	156.321	0	-1e10	8	-1e10	8	-1E+10	1	-1E+10	1	-1E+10	1	-1E+10	1	-1E+10	1	-1E+10	1
4902554	81	C	05/05/2023	17:53	-132.746	47.685	0	158.70	0	5.9980	0	33.5890	0	26.440	0	157.312	0	-1e10	8	-1e10	8	-1E+10	1	-1E+10	1	-1E+10	1	-1E+10	1	-1E+10	1	-1E+10	1
4902554	81	C	05/05/2023	17:53	-132.746	47.685	0	159.90	0	5.9910	0	33.5950	0	26.445	0	158.501	0	-1e10	8	-1e10	8	-1E+10	1	-1E+10	1	-1E+10	1	-1E+10	1	-1E+10	1	-1E+10	1
4902554	81	C	05/05/2023	17:53	-132.746	47.685	0	160.90	0	5.9930	0	33.5970	0	26.447	0	159.492	0	-1e10	8	-1e10	8	-1E+10	1	-1E+10	1	-1E+10	1	-1E+10	1	-1E+10	1	-1E+10	1
4902554	81	C	05/05/2023	17:53	-132.746	47.685	0	162.10	0	5.9920	0	33.5970	0	26.447	0	160.681	0	-1e10	8	-1e10	8	-1E+10	1	-1E+10	1	-1E+10	1	-1E+10	1	-1E+10	1	-1E+10	1
4902554	81	C	05/05/2023	17:53	-132.746	47.685	0	163.10	0	5.9920	0	33.5980	0	26.448	0	161.672	0	-1e10	8	-1e10	8	-1E+10	1	-1E+10	1	-1E+10	1	-1E+10	1	-1E+10	1	-1E+10	1
4902554	81	C	05/05/2023	17:53	-132.746	47.685	0	164.30	0	5.9830	0	33.5980	0	26.449	0	162.861	0	-1e10	8	-1e10	8	-1E+10	1	-1E+10	1	-1E+10	1	-1E+10	1	-1E+10	1	-1E+10	1
4902554	81	C	05/05/2023	17:53	-132.746	47.685	0	165.40	0	5.9830	0	33.5980	0	26.449	0	163.951	0	-1e10	8	-1e10	8	-1E+10	1	-1E+10	1	-1E+10	1	-1E+10	1	-1E+10	1	-1E+10	1
4902554	81	C	05/05/2023	17:53	-132.746	47.685	0	166.50	0	5.9800	0	33.5970	0	26.448	0	165.041	0	-1e10	8	-1e10	8	-1E+10	1	-1E+10	1	-1E+10	1	-1E+10	1	-1E+10	1	-1E+10	1
4902554	81	C	05/05/2023	17:53	-132.746	47.685	0	167.60	0	5.9580	0	33.6090	0	26.461	0	166.131	0	-1e10	8	-1e10	8	-1E+10	1	-1E+10	1	-1E+10	1	-1E+10	1	-1E+10	1	-1E+10	1
4902554	81	C	05/05/2023	17:53	-132.746	47.685	0	168.70	0	5.9760	0	33.6360	0	26.480	0	167.221	0	-1e10	8	-1e10	8	-1E+10	1	-1E+10	1	-1E+10	1	-1E+10	1	-1E+10	1	-1E+10	1
4902554	81	C	05/05/2023	17:53	-132.746	47.685	0	169.90	0	5.9420	0	33.6480	0	26.493	0	168.410	0	-1e10	8	-1e10	8	-1E+10	1	-1E+10	1	-1E+10	1	-1E+10	1	-1E+10	1	-1E+10	1
4902554	81	C	05/05/2023	17:53	-132.746	47.685	0	171.00	0	5.9280	0	33.6560	0	26.502	0	169.500	0	-1e10	8	-1e10	8	-1E+10	1	-1E+10	1	-1E+10	1	-1E+10	1	-1E+10	1	-1E+10	1
4902554	81	C	05/05/2023	17:53	-132.746	47.685	0	172.10	0	5.9250	0	33.6570	0	26.503	0	170.590	0	-1e10	8	-1e10	8	-1E+10	1	-1E+10	1	-1E+10	1	-1E+10	1	-1E+10	1	-1E+10	1
4902554	81	C	05/05/2023	17:53	-132.746	47.685	0	173.30	0	5.9200	0	33.6610	0	26.507	0	171.779	0	-1e10	8	-1e10	8	-1E+10	1	-1E+10	1	-1E+10	1	-1E+10	1	-1E+10	1	-1E+10	1
4902554	81	C	05/05/2023	17:53	-132.746	47.685	0	174.40	0	5.9180	0	33.6620	0	26.508	0	172.868	0	-1e10	8	-1e10	8	-1E+10	1	-1E+10	1	-1E+10	1	-1E+10	1	-1E+10	1	-1E+10	1
4902554	81	C	05/05/2023	17:53	-132.746	47.685	0	175.60	0	5.9060	0	33.6670	0	26.513	0	174.057	0	-1e10	8	-1e10	8	-1E+10	1	-1E+10	1	-1E+10	1	-1E+10	1	-1E+10	1	-1E+10	1
4902554	81	C	05/05/2023	17:53	-132.746	47.685	0	176.70	0	5.9060	0	33.6660	0	26.512	0	175.147	0	-1e10	8	-1e10	8	-1E+10	1	-1E+10	1	-1E+10	1	-1E+10	1	-1E+10	1	-1E+10	1
4902554	81	C	05/05/2023	17:53	-132.746	47.685	0	177.90	0	5.9070	0	33.6660	0	26.512	0	176.336	0	-1e10	8	-1e10	8	-1E+10	1	-1E+10	1	-1E+10	1	-1E+10	1	-1E+10	1	-1E+10	1
4902554	81	C	05/05/2023	17:53	-132.746	47.685	0	179.00	0	5.8960	0	33.6700	0	26.517	0	177.426	0	-1e10	8	-1e10	8	-1E+10	1	-1E+10	1	-1E+10	1	-1E+10	1	-1E+10	1	-1E+10	1
4902554	81	C	05/05/2023	17:53	-132.746	47.685	0	180.10	0	5.9010	0	33.6680	0	26.514	0	178.516	0	-1e10	8	-1e10	8	-1E+10	1	-1E+10	1	-1E+10	1	-1E+10	1	-1E+10	1	-1E+10	1
4902554	81	C	05/05/2023	17:53	-132.746	47.685	0	181.20	0	5.8780	0	33.6730	0	26.521	0	179.606	0	-1e10	8	-1e10	8	-1E+10	1	-1E+10	1	-1E+10	1	-1E+10	1	-1E+10	1	-1E+10	1
4902554	81	C	05/05/2023	17:53	-132.746	47.685	0	182.40	0	5.8620	0	33.6840	0	26.532	0	180.795	0	-1e10	8	-1e10	8	-1E+10	1	-1E+10	1	-1E+10	1	-1E+10	1	-1E+10	1	-1E+10	1
4902554	81	C	05/05/2023	17:53	-132.746	47.685	0	183.50	0	5.8330	0	33.6970	0	26.546	0	181.885	0	-1e10	8	-1e10	8	-1E+10	1	-1E+10	1	-1E+10	1	-1E+10	1	-1E+10	1	-1E+10	1
4902554	81	C	05/05/2023	17:53	-132.746	47.685	0	184.70	0	5.8150	0	33.6960	0	26.547	0	183.073	0	-1e10	8	-1e10	8	-1E+10	1	-1E+10	1	-1E+10	1	-1E+10	1	-1E+10	1	-1E+10	1
4902554	81	C	05/05/2023	17:53	-132.746	47.685	0	185.80	0	5.8200	0	33.6990	0	26.549	0	184.163	0	-1e10	8	-1e10	8	-1E+10	1	-1E+10	1	-1E+10	1	-1E+10	1	-1E+10	1	-1E+10	1
4902554	81	C	05/05/2023	17:53	-132.746	47.685	0	186.90	0	5.8210	0	33.7040	0	26.553	0	185.253	0	-1e10	8	-1e10	8	-1E+10	1	-1E+10	1	-1E+10	1	-1E+10	1	-1E+10	1	-1E+10	1
4902554	81	C	05/05/2023	17:53	-132.746	47.685	0	188.10	0	5.8110	0	33.7070	0	26.556	0	186.442	0	-1e10	8	-1e10	8	-1E+10	1	-1E+10	1	-1E+10	1	-1E+10	1	-1E+10	1	-1E+10	1
4902554	81	C	05/05/2023	17:53	-132.746	47.685	0	189.20	0	5.8030	0	33.7070	0	26.557	0	187.532	0	-1e10	8	-1e10	8	-1E+10	1	-1E+10	1	-1E+10	1	-1E+10	1	-1E+10	1	-1E+10	1
4902554	81	C	05/05/2023	17:53	-132.746	47.685	0	190.30	0	5.8010	0	33.7080	0	26.558	0	188.622	0	-1e10	8	-1e10	8	-1E+10	1	-1E+10	1	-1E+10	1	-1E+10	1	-1E+10	1	-1E+10	1
4902554	81	C	05/05/2023	17:53	-132.746	47.685	0	191.50	0	5.7940	0	33.7100	0	26.561	0	189.810	0	-1e10	8	-1e10	8	-1E+10	1	-1E+10	1	-1E+10	1	-1E+10	1	-1E+10	1	-1E+10	1
4902554	81	C	05/05/2023	17:53	-132.746	47.685	0	192.60	0	5.7820	0	33.7090	0	26.562	0	190.900	0	-1e10	8	-1e10	8	-1E+10	1	-1E+10	1	-1E+10	1	-1E+10	1	-1E+10	1	-1E+10	1
4902554	81	C	05/05/2023	17:53	-132.746	47.685	0	193.80	0	5.7660	0	33.7110	0	26.565	0	192.089	0	-1e10	8	-1e10	8	-1E+10	1	-1E+10	1	-1E+10	1	-1E+10	1	-1E+10	1	-1E+10	1
4902554	81	C	05/05/2023	17:53	-132.746	47.685	0	194.90	0	5.7620	0	33.7110	0	26.566	0	193.179	0	-1e10	8	-1e10	8	-1E+10	1	-1E+10	1	-1E+10	1	-1E+10	1	-1E+10	1	-1E+10	1
4902554	81	C	05/05/2023	17:53	-132.746	47.685	0	196.00	0	5.7600	0	33.7120	0	26.567	0	194.269	0	-1e10	8	-1e10	8	-1E+10	1	-1E+10	1	-1E+10	1	-1E+10	1	-1E+10	1	-1E+10	1
4902554	81	C	05/05/2023	17:53	-132.746	47.685	0	197.20	0	5.7370	0	33.7180	0	26.574	0	195.458	0	-1e10	8	-1e10	8	-1E+10	1	-1E+10	1	-1E+10	1	-1E+10	1	-1E+10	1	-1E+10	1
4902554	81	C	05/05/2023	17:53	-132.746	47.685	0	198.30	0	5.7290	0	33.7240	0	26.580	0	196.547	0	-1e10	8	-1e10	8	-1E+10	1	-1E+10	1	-1E+10	1	-1E+10	1	-1E+10	1	-1E+10	1
4902554	81	C	05/05/2023	17:53	-132.746	47.685	0	199.40	0	5.7200	0	33.7250	0	26.582	0	197.637	0	-1e10	8	-1e10	8	-1E+10	1	-1E+10	1	-1E+10	1	-1E+10	1	-1E+10	1	-1E+10	1
4902554	81	C	05/05/2023	17:53	-132.746	47.685	0	200.60	0	5.7150	0	33.7240	0	26.582	0	198.826	0	-1e10	8	-1e10	8	-1E+10	1	-1E+10	1	-1E+10	1	-1E+10	1	-1E+10	1	-1E+10	1
4902554	81	C	05/05/2023	17:53	-132.746	47.685	0	201.70	0	5.7170	0	33.7250	0	26.582	0	199.916	0	-1e10	8	-1e10	8	-1E+10	1	-1E+10	1	-1E+10	1	-1E+10	1	-1E+10	1	-1E+10	1
4902554	81	C	05/05/2023	17:53	-132.746	47.685	0	202.80	0	5.7200	0	33.7290	0	26.585	0	201.005	0	-1e10	8	-1e10	8	-1E+10	1	-1E+10	1	-1E+10	1	-1E+10	1	-1E+10	1	-1E+10	1
4902554	81	C	05/05/2023	17:53	-132.746	47.685	0	203.90	0	5.7070	0	33.7260	0	26.584	0	202.095	0	-1e10	8	-1e10	8	-1E+10	1	-1E+10	1	-1E+10	1	-1E+10	1	-1E+10	1	-1E+10	1
4902554	81	C	05/05/2023	17:53	-132.746	47.685	0	205.00	0	5.7150	0	33.7340	0	26.590	0	203.185	0	-1e10	8	-1e10	8	-1E+10	1	-1E+10	1	-1E+10	1	-1E+10	1	-1E+10	1	-1E+10	1
4902554	81	C	05/05/2023	17:53	-132.746	47.685	0	206.10	0	5.7130	0	33.7370	0	26.592	0	204.274	0	-1e10	8	-1e10	8	-1E+10	1	-1E+10	1	-1E+10	1	-1E+10	1	-1E+10	1	-1E+10	1
4902554	81	C	05/05/2023	17:53	-132.746	47.685	0	207.20	0	5.6990	0	33.7400	0	26.596	0	205.364	0	-1e10	8	-1e10	8	-1E+10	1	-1E+10	1	-1E+10	1	-1E+10	1	-1E+10	1	-1E+10	1
4902554	81	C	05/05/2023	17:53	-132.746	47.685	0	208.30	0	5.6930	0	33.7410	0	26.598	0	206.454	0	-1e10	8	-1e10	8	-1E+10	1	-1E+10	1	-1E+10	1	-1E+10	1	-1E+10	1	-1E+10	1
4902554	81	C	05/05/2023	17:53	-132.746	47.685	0	209.40	0	5.6820	0	33.7450	0	26.602	0	207.544	0	-1e10	8	-1e10	8	-1E+10	1	-1E+10	1	-1E+10	1	-1E+10	1	-1E+10	1	-1E+10	1
4902554	81	C	05/05/2023	17:53	-132.746	47.685	0	210.40	0	5.6650	0	33.7440	0	26.604	0	208.534	0	-1e10	8	-1e10	8	-1E+10	1	-1E+10	1	-1E+10	1	-1E+10	1	-1E+10	1	-1E+10	1
4902554	81	C	05/05/2023	17:53	-132.746	47.685	0	211.50	0	5.6590	0	33.7440	0	26.604	0	209.624	0	-1e10	8	-1e10	8	-1E+10	1	-1E+10	1	-1E+10	1	-1E+10	1	-1E+10	1	-1E+10	1
4902554	81	C	05/05/2023	17:53	-132.746	47.685	0	212.60	0	5.6440	0	33.7480	0	26.609	0	210.714	0	-1e10	8	-1e10	8	-1E+10	1	-1E+10	1	-1E+10	1	-1E+10	1	-1E+10	1	-1E+10	1
4902554	81	C	05/05/2023	17:53	-132.746	47.685	0	213.70	0	5.6230	0	33.7460	0	26.610	0	211.803	0	-1e10	8	-1e10	8	-1E+10	1	-1E+10	1	-1E+10	1	-1E+10	1	-1E+10	1	-1E+10	1
4902554	81	C	05/05/2023	17:53	-132.746	47.685	0	214.70	0	5.5550	0	33.7410	0	26.615	0	212.794	0	-1e10	8	-1e10	8	-1E+10	1	-1E+10	1	-1E+10	1	-1E+10	1	-1E+10	1	-1E+10	1
4902554	81	C	05/05/2023	17:53	-132.746	47.685	0	215.80	0	5.5120	0	33.7400	0	26.619	0	213.884	0	-1e10	8	-1e10	8	-1E+10	1	-1E+10	1	-1E+10	1	-1E+10	1	-1E+10	1	-1E+10	1
4902554	81	C	05/05/2023	17:53	-132.746	47.685	0	216.80	0	5.4900	0	33.7410	0	26.622	0	214.874	0	-1e10	8	-1e10	8	-1E+10	1	-1E+10	1	-1E+10	1	-1E+10	1	-1E+10	1	-1E+10	1
4902554	81	C	05/05/2023	17:53	-132.746	47.685	0	217.80	0	5.4810	0	33.7430	0	26.625	0	215.865	0	-1e10	8	-1e10	8	-1E+10	1	-1E+10	1	-1E+10	1	-1E+10	1	-1E+10	1	-1E+10	1
4902554	81	C	05/05/2023	17:53	-132.746	47.685	0	218.80	0	5.4870	0	33.7470	0	26.627	0	216.855	0	-1e10	8	-1e10	8	-1E+10	1	-1E+10	1	-1E+10	1	-1E+10	1	-1E+10	1	-1E+10	1
4902554	81	C	05/05/2023	17:53	-132.746	47.685	0	220.00	0	5.4780	0	33.7500	0	26.631	0	218.044	0	-1e10	8	-1e10	8	-1E+10	1	-1E+10	1	-1E+10	1	-1E+10	1	-1E+10	1	-1E+10	1
4902554	81	C	05/05/2023	17:53	-132.746	47.685	0	221.10	0	5.4470	0	33.7510	0	26.635	0	219.134	0	-1e10	8	-1e10	8	-1E+10	1	-1E+10	1	-1E+10	1	-1E+10	1	-1E+10	1	-1E+10	1
4902554	81	C	05/05/2023	17:53	-132.746	47.685	0	221.90	0	5.4330	0	33.7520	0	26.638	0	219.926	0	-1e10	8	-1e10	8	-1E+10	1	-1E+10	1	-1E+10	1	-1E+10	1	-1E+10	1	-1E+10	1
4902554	81	C	05/05/2023	17:53	-132.746	47.685	0	222.70	0	5.4190	0	33.7530	0	26.640	0	220.719	0	-1e10	8	-1e10	8	-1E+10	1	-1E+10	1	-1E+10	1	-1E+10	1	-1E+10	1	-1E+10	1
4902554	81	C	05/05/2023	17:53	-132.746	47.685	0	223.90	0	5.4130	0	33.7530	0	26.641	0	221.907	0	-1e10	8	-1e10	8	-1E+10	1	-1E+10	1	-1E+10	1	-1E+10	1	-1E+10	1	-1E+10	1
4902554	81	C	05/05/2023	17:53	-132.746	47.685	0	225.10	0	5.4080	0	33.7540	0	26.642	0	223.096	0	-1e10	8	-1e10	8	-1E+10	1	-1E+10	1	-1E+10	1	-1E+10	1	-1E+10	1	-1E+10	1
4902554	81	C	05/05/2023	17:53	-132.746	47.685	0	225.90	0	5.3890	0	33.7550	0	26.645	0	223.888	0	-1e10	8	-1e10	8	-1E+10	1	-1E+10	1	-1E+10	1	-1E+10	1	-1E+10	1	-1E+10	1
4902554	81	C	05/05/2023	17:53	-132.746	47.685	0	226.70	0	5.3830	0	33.7550	0	26.646	0	224.681	0	-1e10	8	-1e10	8	-1E+10	1	-1E+10	1	-1E+10	1	-1E+10	1	-1E+10	1	-1E+10	1
4902554	81	C	05/05/2023	17:53	-132.746	47.685	0	227.90	0	5.3730	0	33.7550	0	26.647	0	225.869	0	-1e10	8	-1e10	8	-1E+10	1	-1E+10	1	-1E+10	1	-1E+10	1	-1E+10	1	-1E+10	1
4902554	81	C	05/05/2023	17:53	-132.746	47.685	0	229.10	0	5.3610	0	33.7560	0	26.650	0	227.058	0	-1e10	8	-1e10	8	-1E+10	1	-1E+10	1	-1E+10	1	-1E+10	1	-1E+10	1	-1E+10	1
4902554	81	C	05/05/2023	17:53	-132.746	47.685	0	229.90	0	5.3480	0	33.7570	0	26.652	0	227.851	0	-1e10	8	-1e10	8	-1E+10	1	-1E+10	1	-1E+10	1	-1E+10	1	-1E+10	1	-1E+10	1
4902554	81	C	05/05/2023	17:53	-132.746	47.685	0	230.70	0	5.3450	0	33.7560	0	26.651	0	228.643	0	-1e10	8	-1e10	8	-1E+10	1	-1E+10	1	-1E+10	1	-1E+10	1	-1E+10	1	-1E+10	1
4902554	81	C	05/05/2023	17:53	-132.746	47.685	0	232.00	0	5.3410	0	33.7560	0	26.652	0	229.931	0	-1e10	8	-1e10	8	-1E+10	1	-1E+10	1	-1E+10	1	-1E+10	1	-1E+10	1	-1E+10	1
4902554	81	C	05/05/2023	17:53	-132.746	47.685	0	233.20	0	5.3140	0	33.7600	0	26.658	0	231.119	0	-1e10	8	-1e10	8	-1E+10	1	-1E+10	1	-1E+10	1	-1E+10	1	-1E+10	1	-1E+10	1
4902554	81	C	05/05/2023	17:53	-132.746	47.685	0	234.00	0	5.3150	0	33.7600	0	26.658	0	231.912	0	-1e10	8	-1e10	8	-1E+10	1	-1E+10	1	-1E+10	1	-1E+10	1	-1E+10	1	-1E+10	1
4902554	81	C	05/05/2023	17:53	-132.746	47.685	0	234.80	0	5.3110	0	33.7610	0	26.659	0	232.704	0	-1e10	8	-1e10	8	-1E+10	1	-1E+10	1	-1E+10	1	-1E+10	1	-1E+10	1	-1E+10	1
4902554	81	C	05/05/2023	17:53	-132.746	47.685	0	235.60	0	5.3030	0	33.7620	0	26.661	0	233.497	0	-1e10	8	-1e10	8	-1E+10	1	-1E+10	1	-1E+10	1	-1E+10	1	-1E+10	1	-1E+10	1
4902554	81	C	05/05/2023	17:53	-132.746	47.685	0	236.90	0	5.2910	0	33.7630	0	26.663	0	234.784	0	-1e10	8	-1e10	8	-1E+10	1	-1E+10	1	-1E+10	1	-1E+10	1	-1E+10	1	-1E+10	1
4902554	81	C	05/05/2023	17:53	-132.746	47.685	0	238.10	0	5.2730	0	33.7760	0	26.676	0	235.973	0	-1e10	8	-1e10	8	-1E+10	1	-1E+10	1	-1E+10	1	-1E+10	1	-1E+10	1	-1E+10	1
4902554	81	C	05/05/2023	17:53	-132.746	47.685	0	238.90	0	5.2620	0	33.7690	0	26.671	0	236.765	0	-1e10	8	-1e10	8	-1E+10	1	-1E+10	1	-1E+10	1	-1E+10	1	-1E+10	1	-1E+10	1
4902554	81	C	05/05/2023	17:53	-132.746	47.685	0	239.70	0	5.2470	0	33.7690	0	26.673	0	237.558	0	-1e10	8	-1e10	8	-1E+10	1	-1E+10	1	-1E+10	1	-1E+10	1	-1E+10	1	-1E+10	1
4902554	81	C	05/05/2023	17:53	-132.746	47.685	0	240.90	0	5.2380	0	33.7680	0	26.674	0	238.746	0	-1e10	8	-1e10	8	-1E+10	1	-1E+10	1	-1E+10	1	-1E+10	1	-1E+10	1	-1E+10	1
4902554	81	C	05/05/2023	17:53	-132.746	47.685	0	242.20	0	5.2250	0	33.7680	0	26.675	0	240.034	0	-1e10	8	-1e10	8	-1E+10	1	-1E+10	1	-1E+10	1	-1E+10	1	-1E+10	1	-1E+10	1
4902554	81	C	05/05/2023	17:53	-132.746	47.685	0	243.00	0	5.2100	0	33.7690	0	26.678	0	240.826	0	-1e10	8	-1e10	8	-1E+10	1	-1E+10	1	-1E+10	1	-1E+10	1	-1E+10	1	-1E+10	1
4902554	81	C	05/05/2023	17:53	-132.746	47.685	0	243.80	0	5.2070	0	33.7700	0	26.679	0	241.619	0	-1e10	8	-1e10	8	-1E+10	1	-1E+10	1	-1E+10	1	-1E+10	1	-1E+10	1	-1E+10	1
4902554	81	C	05/05/2023	17:53	-132.746	47.685	0	244.70	0	5.2060	0	33.7680	0	26.677	0	242.510	0	-1e10	8	-1e10	8	-1E+10	1	-1E+10	1	-1E+10	1	-1E+10	1	-1E+10	1	-1E+10	1
4902554	81	C	05/05/2023	17:53	-132.746	47.685	0	245.90	0	5.2020	0	33.7660	0	26.676	0	243.698	0	-1e10	8	-1e10	8	-1E+10	1	-1E+10	1	-1E+10	1	-1E+10	1	-1E+10	1	-1E+10	1
4902554	81	C	05/05/2023	17:53	-132.746	47.685	0	247.10	0	5.1750	0	33.7720	0	26.684	0	244.887	0	-1e10	8	-1e10	8	-1E+10	1	-1E+10	1	-1E+10	1	-1E+10	1	-1E+10	1	-1E+10	1
4902554	81	C	05/05/2023	17:53	-132.746	47.685	0	248.00	0	5.1720	0	33.7710	0	26.684	0	245.778	0	-1e10	8	-1e10	8	-1E+10	1	-1E+10	1	-1E+10	1	-1E+10	1	-1E+10	1	-1E+10	1
4902554	81	C	05/05/2023	17:53	-132.746	47.685	0	248.80	0	5.1620	0	33.7720	0	26.686	0	246.571	0	-1e10	8	-1e10	8	-1E+10	1	-1E+10	1	-1E+10	1	-1E+10	1	-1E+10	1	-1E+10	1
4902554	81	C	05/05/2023	17:53	-132.746	47.685	0	249.60	0	5.1590	0	33.7730	0	26.687	0	247.363	0	-1e10	8	-1e10	8	-1E+10	1	-1E+10	1	-1E+10	1	-1E+10	1	-1E+10	1	-1E+10	1
4902554	81	C	05/05/2023	17:53	-132.746	47.685	0	250.90	0	5.1560	0	33.7750	0	26.689	0	248.651	0	-1e10	8	-1e10	8	-1E+10	1	-1E+10	1	-1E+10	1	-1E+10	1	-1E+10	1	-1E+10	1
4902554	81	C	05/05/2023	17:53	-132.746	47.685	0	252.20	0	5.1500	0	33.7770	0	26.691	0	249.938	0	-1e10	8	-1e10	8	-1E+10	1	-1E+10	1	-1E+10	1	-1E+10	1	-1E+10	1	-1E+10	1
4902554	81	C	05/05/2023	17:53	-132.746	47.685	0	253.00	0	5.1500	0	33.7770	0	26.691	0	250.731	0	-1e10	8	-1e10	8	-1E+10	1	-1E+10	1	-1E+10	1	-1E+10	1	-1E+10	1	-1E+10	1
4902554	81	C	05/05/2023	17:53	-132.746	47.685	0	253.90	0	5.1500	0	33.7770	0	26.691	0	251.622	0	-1e10	8	-1e10	8	-1E+10	1	-1E+10	1	-1E+10	1	-1E+10	1	-1E+10	1	-1E+10	1
4902554	81	C	05/05/2023	17:53	-132.746	47.685	0	254.80	0	5.1510	0	33.7780	0	26.692	0	252.513	0	-1e10	8	-1e10	8	-1E+10	1	-1E+10	1	-1E+10	1	-1E+10	1	-1E+10	1	-1E+10	1
4902554	81	C	05/05/2023	17:53	-132.746	47.685	0	255.60	0	5.1490	0	33.7780	0	26.692	0	253.306	0	-1e10	8	-1e10	8	-1E+10	1	-1E+10	1	-1E+10	1	-1E+10	1	-1E+10	1	-1E+10	1
4902554	81	C	05/05/2023	17:53	-132.746	47.685	0	256.90	0	5.1470	0	33.7790	0	26.693	0	254.593	0	-1e10	8	-1e10	8	-1E+10	1	-1E+10	1	-1E+10	1	-1E+10	1	-1E+10	1	-1E+10	1
4902554	81	C	05/05/2023	17:53	-132.746	47.685	0	258.20	0	5.1370	0	33.7810	0	26.696	0	255.881	0	-1e10	8	-1e10	8	-1E+10	1	-1E+10	1	-1E+10	1	-1E+10	1	-1E+10	1	-1E+10	1
4902554	81	C	05/05/2023	17:53	-132.746	47.685	0	259.10	0	5.1100	0	33.7810	0	26.699	0	256.772	0	-1e10	8	-1e10	8	-1E+10	1	-1E+10	1	-1E+10	1	-1E+10	1	-1E+10	1	-1E+10	1
4902554	81	C	05/05/2023	17:53	-132.746	47.685	0	259.90	0	5.0970	0	33.7810	0	26.700	0	257.564	0	-1e10	8	-1e10	8	-1E+10	1	-1E+10	1	-1E+10	1	-1E+10	1	-1E+10	1	-1E+10	1
4902554	81	C	05/05/2023	17:53	-132.746	47.685	0	260.80	0	5.0910	0	33.7810	0	26.701	0	258.456	0	-1e10	8	-1e10	8	-1E+10	1	-1E+10	1	-1E+10	1	-1E+10	1	-1E+10	1	-1E+10	1
4902554	81	C	05/05/2023	17:53	-132.746	47.685	0	261.70	0	5.0880	0	33.7830	0	26.703	0	259.347	0	-1e10	8	-1e10	8	-1E+10	1	-1E+10	1	-1E+10	1	-1E+10	1	-1E+10	1	-1E+10	1
4902554	81	C	05/05/2023	17:53	-132.746	47.685	0	262.90	0	5.0800	0	33.7860	0	26.706	0	260.536	0	-1e10	8	-1e10	8	-1E+10	1	-1E+10	1	-1E+10	1	-1E+10	1	-1E+10	1	-1E+10	1
4902554	81	C	05/05/2023	17:53	-132.746	47.685	0	264.30	0	5.0650	0	33.7920	0	26.713	0	261.922	0	-1e10	8	-1e10	8	-1E+10	1	-1E+10	1	-1E+10	1	-1E+10	1	-1E+10	1	-1E+10	1
4902554	81	C	05/05/2023	17:53	-132.746	47.685	0	265.20	0	5.0600	0	33.7910	0	26.712	0	262.813	0	-1e10	8	-1e10	8	-1E+10	1	-1E+10	1	-1E+10	1	-1E+10	1	-1E+10	1	-1E+10	1
4902554	81	C	05/05/2023	17:53	-132.746	47.685	0	266.00	0	5.0530	0	33.7920	0	26.714	0	263.606	0	-1e10	8	-1e10	8	-1E+10	1	-1E+10	1	-1E+10	1	-1E+10	1	-1E+10	1	-1E+10	1
4902554	81	C	05/05/2023	17:53	-132.746	47.685	0	266.90	0	5.0240	0	33.7950	0	26.720	0	264.497	0	-1e10	8	-1e10	8	-1E+10	1	-1E+10	1	-1E+10	1	-1E+10	1	-1E+10	1	-1E+10	1
4902554	81	C	05/05/2023	17:53	-132.746	47.685	0	267.80	0	4.9980	0	33.7980	0	26.725	0	265.388	0	-1e10	8	-1e10	8	-1E+10	1	-1E+10	1	-1E+10	1	-1E+10	1	-1E+10	1	-1E+10	1
4902554	81	C	05/05/2023	17:53	-132.746	47.685	0	268.70	0	4.9810	0	33.7990	0	26.728	0	266.280	0	-1e10	8	-1e10	8	-1E+10	1	-1E+10	1	-1E+10	1	-1E+10	1	-1E+10	1	-1E+10	1
4902554	81	C	05/05/2023	17:53	-132.746	47.685	0	269.60	0	4.9760	0	33.8000	0	26.729	0	267.171	0	-1e10	8	-1e10	8	-1E+10	1	-1E+10	1	-1E+10	1	-1E+10	1	-1E+10	1	-1E+10	1
4902554	81	C	05/05/2023	17:53	-132.746	47.685	0	270.90	0	4.9750	0	33.7990	0	26.728	0	268.458	0	-1e10	8	-1e10	8	-1E+10	1	-1E+10	1	-1E+10	1	-1E+10	1	-1E+10	1	-1E+10	1
4902554	81	C	05/05/2023	17:53	-132.746	47.685	0	272.30	0	4.9740	0	33.7990	0	26.729	0	269.845	0	-1e10	8	-1e10	8	-1E+10	1	-1E+10	1	-1E+10	1	-1E+10	1	-1E+10	1	-1E+10	1
4902554	81	C	05/05/2023	17:53	-132.746	47.685	0	273.20	0	4.9750	0	33.7990	0	26.728	0	270.736	0	-1e10	8	-1e10	8	-1E+10	1	-1E+10	1	-1E+10	1	-1E+10	1	-1E+10	1	-1E+10	1
4902554	81	C	05/05/2023	17:53	-132.746	47.685	0	274.10	0	4.9700	0	33.8000	0	26.730	0	271.628	0	-1e10	8	-1e10	8	-1E+10	1	-1E+10	1	-1E+10	1	-1E+10	1	-1E+10	1	-1E+10	1
4902554	81	C	05/05/2023	17:53	-132.746	47.685	0	275.00	0	4.9640	0	33.8020	0	26.732	0	272.519	0	-1e10	8	-1e10	8	-1E+10	1	-1E+10	1	-1E+10	1	-1E+10	1	-1E+10	1	-1E+10	1
4902554	81	C	05/05/2023	17:53	-132.746	47.685	0	275.90	0	4.9430	0	33.8000	0	26.733	0	273.410	0	-1e10	8	-1e10	8	-1E+10	1	-1E+10	1	-1E+10	1	-1E+10	1	-1E+10	1	-1E+10	1
4902554	81	C	05/05/2023	17:53	-132.746	47.685	0	276.80	0	4.9340	0	33.8030	0	26.736	0	274.301	0	-1e10	8	-1e10	8	-1E+10	1	-1E+10	1	-1E+10	1	-1E+10	1	-1E+10	1	-1E+10	1
4902554	81	C	05/05/2023	17:53	-132.746	47.685	0	277.70	0	4.9250	0	33.8050	0	26.739	0	275.193	0	-1e10	8	-1e10	8	-1E+10	1	-1E+10	1	-1E+10	1	-1E+10	1	-1E+10	1	-1E+10	1
4902554	81	C	05/05/2023	17:53	-132.746	47.685	0	278.70	0	4.9110	0	33.8060	0	26.741	0	276.183	0	-1e10	8	-1e10	8	-1E+10	1	-1E+10	1	-1E+10	1	-1E+10	1	-1E+10	1	-1E+10	1
4902554	81	C	05/05/2023	17:53	-132.746	47.685	0	279.60	0	4.9070	0	33.8060	0	26.742	0	277.074	0	-1e10	8	-1e10	8	-1E+10	1	-1E+10	1	-1E+10	1	-1E+10	1	-1E+10	1	-1E+10	1
4902554	81	C	05/05/2023	17:53	-132.746	47.685	0	280.90	0	4.8910	0	33.8080	0	26.745	0	278.362	0	-1e10	8	-1e10	8	-1E+10	1	-1E+10	1	-1E+10	1	-1E+10	1	-1E+10	1	-1E+10	1
4902554	81	C	05/05/2023	17:53	-132.746	47.685	0	282.30	0	4.8760	0	33.8100	0	26.748	0	279.748	0	-1e10	8	-1e10	8	-1E+10	1	-1E+10	1	-1E+10	1	-1E+10	1	-1E+10	1	-1E+10	1
4902554	81	C	05/05/2023	17:53	-132.746	47.685	0	283.30	0	4.8630	0	33.8130	0	26.752	0	280.738	0	-1e10	8	-1e10	8	-1E+10	1	-1E+10	1	-1E+10	1	-1E+10	1	-1E+10	1	-1E+10	1
4902554	81	C	05/05/2023	17:53	-132.746	47.685	0	284.20	0	4.8450	0	33.8150	0	26.756	0	281.630	0	-1e10	8	-1e10	8	-1E+10	1	-1E+10	1	-1E+10	1	-1E+10	1	-1E+10	1	-1E+10	1
4902554	81	C	05/05/2023	17:53	-132.746	47.685	0	285.10	0	4.8400	0	33.8160	0	26.757	0	282.521	0	-1e10	8	-1e10	8	-1E+10	1	-1E+10	1	-1E+10	1	-1E+10	1	-1E+10	1	-1E+10	1
4902554	81	C	05/05/2023	17:53	-132.746	47.685	0	286.10	0	4.8340	0	33.8180	0	26.759	0	283.511	0	-1e10	8	-1e10	8	-1E+10	1	-1E+10	1	-1E+10	1	-1E+10	1	-1E+10	1	-1E+10	1
4902554	81	C	05/05/2023	17:53	-132.746	47.685	0	287.00	0	4.8220	0	33.8210	0	26.763	0	284.402	0	-1e10	8	-1e10	8	-1E+10	1	-1E+10	1	-1E+10	1	-1E+10	1	-1E+10	1	-1E+10	1
4902554	81	C	05/05/2023	17:53	-132.746	47.685	0	288.00	0	4.8190	0	33.8200	0	26.763	0	285.393	0	-1e10	8	-1e10	8	-1E+10	1	-1E+10	1	-1E+10	1	-1E+10	1	-1E+10	1	-1E+10	1
4902554	81	C	05/05/2023	17:53	-132.746	47.685	0	288.90	0	4.8150	0	33.8210	0	26.764	0	286.284	0	-1e10	8	-1e10	8	-1E+10	1	-1E+10	1	-1E+10	1	-1E+10	1	-1E+10	1	-1E+10	1
4902554	81	C	05/05/2023	17:53	-132.746	47.685	0	289.80	0	4.8140	0	33.8210	0	26.764	0	287.175	0	-1e10	8	-1e10	8	-1E+10	1	-1E+10	1	-1E+10	1	-1E+10	1	-1E+10	1	-1E+10	1
4902554	81	C	05/05/2023	17:53	-132.746	47.685	0	290.70	0	4.8140	0	33.8210	0	26.764	0	288.066	0	-1e10	8	-1e10	8	-1E+10	1	-1E+10	1	-1E+10	1	-1E+10	1	-1E+10	1	-1E+10	1
4902554	81	C	05/05/2023	17:53	-132.746	47.685	0	291.60	0	4.8130	0	33.8210	0	26.764	0	288.957	0	-1e10	8	-1e10	8	-1E+10	1	-1E+10	1	-1E+10	1	-1E+10	1	-1E+10	1	-1E+10	1
4902554	81	C	05/05/2023	17:53	-132.746	47.685	0	292.50	0	4.8130	0	33.8210	0	26.764	0	289.849	0	-1e10	8	-1e10	8	-1E+10	1	-1E+10	1	-1E+10	1	-1E+10	1	-1E+10	1	-1E+10	1
4902554	81	C	05/05/2023	17:53	-132.746	47.685	0	293.90	0	4.8120	0	33.8210	0	26.764	0	291.235	0	-1e10	8	-1e10	8	-1E+10	1	-1E+10	1	-1E+10	1	-1E+10	1	-1E+10	1	-1E+10	1
4902554	81	C	05/05/2023	17:53	-132.746	47.685	0	295.30	0	4.8090	0	33.8220	0	26.765	0	292.621	0	-1e10	8	-1e10	8	-1E+10	1	-1E+10	1	-1E+10	1	-1E+10	1	-1E+10	1	-1E+10	1
4902554	81	C	05/05/2023	17:53	-132.746	47.685	0	296.20	0	4.8040	0	33.8220	0	26.766	0	293.513	0	-1e10	8	-1e10	8	-1E+10	1	-1E+10	1	-1E+10	1	-1E+10	1	-1E+10	1	-1E+10	1
4902554	81	C	05/05/2023	17:53	-132.746	47.685	0	297.20	0	4.7950	0	33.8250	0	26.769	0	294.503	0	-1e10	8	-1e10	8	-1E+10	1	-1E+10	1	-1E+10	1	-1E+10	1	-1E+10	1	-1E+10	1
4902554	81	C	05/05/2023	17:53	-132.746	47.685	0	298.10	0	4.7870	0	33.8250	0	26.770	0	295.394	0	-1e10	8	-1e10	8	-1E+10	1	-1E+10	1	-1E+10	1	-1E+10	1	-1E+10	1	-1E+10	1
4902554	81	C	05/05/2023	17:53	-132.746	47.685	0	299.00	0	4.7760	0	33.8280	0	26.774	0	296.285	0	-1e10	8	-1e10	8	-1E+10	1	-1E+10	1	-1E+10	1	-1E+10	1	-1E+10	1	-1E+10	1
4902554	81	C	05/05/2023	17:53	-132.746	47.685	0	299.90	0	4.7700	0	33.8290	0	26.775	0	297.176	0	-1e10	8	-1e10	8	-1E+10	1	-1E+10	1	-1E+10	1	-1E+10	1	-1E+10	1	-1E+10	1
4902554	81	C	05/05/2023	17:53	-132.746	47.685	0	300.90	0	4.7670	0	33.8290	0	26.776	0	298.166	0	-1e10	8	-1e10	8	-1E+10	1	-1E+10	1	-1E+10	1	-1E+10	1	-1E+10	1	-1E+10	1
4902554	81	C	05/05/2023	17:53	-132.746	47.685	0	301.80	0	4.7660	0	33.8290	0	26.776	0	299.058	0	-1e10	8	-1e10	8	-1E+10	1	-1E+10	1	-1E+10	1	-1E+10	1	-1E+10	1	-1E+10	1
4902554	81	C	05/05/2023	17:53	-132.746	47.685	0	302.70	0	4.7650	0	33.8290	0	26.776	0	299.949	0	-1e10	8	-1e10	8	-1E+10	1	-1E+10	1	-1E+10	1	-1E+10	1	-1E+10	1	-1E+10	1
4902554	81	C	05/05/2023	17:53	-132.746	47.685	0	303.70	0	4.7530	0	33.8320	0	26.780	0	300.939	0	-1e10	8	-1e10	8	-1E+10	1	-1E+10	1	-1E+10	1	-1E+10	1	-1E+10	1	-1E+10	1
4902554	81	C	05/05/2023	17:53	-132.746	47.685	0	304.60	0	4.7500	0	33.8320	0	26.780	0	301.830	0	-1e10	8	-1e10	8	-1E+10	1	-1E+10	1	-1E+10	1	-1E+10	1	-1E+10	1	-1E+10	1
4902554	81	C	05/05/2023	17:53	-132.746	47.685	0	305.60	0	4.7490	0	33.8310	0	26.779	0	302.820	0	-1e10	8	-1e10	8	-1E+10	1	-1E+10	1	-1E+10	1	-1E+10	1	-1E+10	1	-1E+10	1
4902554	81	C	05/05/2023	17:53	-132.746	47.685	0	306.90	0	4.7400	0	33.8320	0	26.781	0	304.108	0	-1e10	8	-1e10	8	-1E+10	1	-1E+10	1	-1E+10	1	-1E+10	1	-1E+10	1	-1E+10	1
4902554	81	C	05/05/2023	17:53	-132.746	47.685	0	308.40	0	4.7380	0	33.8330	0	26.782	0	305.593	0	-1e10	8	-1e10	8	-1E+10	1	-1E+10	1	-1E+10	1	-1E+10	1	-1E+10	1	-1E+10	1
4902554	81	C	05/05/2023	17:53	-132.746	47.685	0	309.30	0	4.7360	0	33.8340	0	26.783	0	306.484	0	-1e10	8	-1e10	8	-1E+10	1	-1E+10	1	-1E+10	1	-1E+10	1	-1E+10	1	-1E+10	1
4902554	81	C	05/05/2023	17:53	-132.746	47.685	0	310.30	0	4.7340	0	33.8350	0	26.784	0	307.474	0	-1e10	8	-1e10	8	-1E+10	1	-1E+10	1	-1E+10	1	-1E+10	1	-1E+10	1	-1E+10	1
4902554	81	C	05/05/2023	17:53	-132.746	47.685	0	311.20	0	4.7230	0	33.8380	0	26.788	0	308.365	0	-1e10	8	-1e10	8	-1E+10	1	-1E+10	1	-1E+10	1	-1E+10	1	-1E+10	1	-1E+10	1
4902554	81	C	05/05/2023	17:53	-132.746	47.685	0	312.20	0	4.7140	0	33.8390	0	26.790	0	309.355	0	-1e10	8	-1e10	8	-1E+10	1	-1E+10	1	-1E+10	1	-1E+10	1	-1E+10	1	-1E+10	1
4902554	81	C	05/05/2023	17:53	-132.746	47.685	0	313.10	0	4.7040	0	33.8390	0	26.791	0	310.247	0	-1e10	8	-1e10	8	-1E+10	1	-1E+10	1	-1E+10	1	-1E+10	1	-1E+10	1	-1E+10	1
4902554	81	C	05/05/2023	17:53	-132.746	47.685	0	314.10	0	4.7040	0	33.8390	0	26.791	0	311.237	0	-1e10	8	-1e10	8	-1E+10	1	-1E+10	1	-1E+10	1	-1E+10	1	-1E+10	1	-1E+10	1
4902554	81	C	05/05/2023	17:53	-132.746	47.685	0	315.00	0	4.6830	0	33.8420	0	26.795	0	312.128	0	-1e10	8	-1e10	8	-1E+10	1	-1E+10	1	-1E+10	1	-1E+10	1	-1E+10	1	-1E+10	1
4902554	81	C	05/05/2023	17:53	-132.746	47.685	0	316.00	0	4.6760	0	33.8430	0	26.797	0	313.118	0	-1e10	8	-1e10	8	-1E+10	1	-1E+10	1	-1E+10	1	-1E+10	1	-1E+10	1	-1E+10	1
4902554	81	C	05/05/2023	17:53	-132.746	47.685	0	316.90	0	4.6640	0	33.8460	0	26.801	0	314.009	0	-1e10	8	-1e10	8	-1E+10	1	-1E+10	1	-1E+10	1	-1E+10	1	-1E+10	1	-1E+10	1
4902554	81	C	05/05/2023	17:53	-132.746	47.685	0	317.90	0	4.6630	0	33.8460	0	26.801	0	314.999	0	-1e10	8	-1e10	8	-1E+10	1	-1E+10	1	-1E+10	1	-1E+10	1	-1E+10	1	-1E+10	1
4902554	81	C	05/05/2023	17:53	-132.746	47.685	0	318.90	0	4.6600	0	33.8460	0	26.801	0	315.989	0	-1e10	8	-1e10	8	-1E+10	1	-1E+10	1	-1E+10	1	-1E+10	1	-1E+10	1	-1E+10	1
4902554	81	C	05/05/2023	17:53	-132.746	47.685	0	319.80	0	4.6560	0	33.8460	0	26.802	0	316.880	0	-1e10	8	-1e10	8	-1E+10	1	-1E+10	1	-1E+10	1	-1E+10	1	-1E+10	1	-1E+10	1
4902554	81	C	05/05/2023	17:53	-132.746	47.685	0	320.80	0	4.6580	0	33.8470	0	26.802	0	317.870	0	-1e10	8	-1e10	8	-1E+10	1	-1E+10	1	-1E+10	1	-1E+10	1	-1E+10	1	-1E+10	1
4902554	81	C	05/05/2023	17:53	-132.746	47.685	0	321.80	0	4.6570	0	33.8490	0	26.804	0	318.861	0	-1e10	8	-1e10	8	-1E+10	1	-1E+10	1	-1E+10	1	-1E+10	1	-1E+10	1	-1E+10	1
4902554	81	C	05/05/2023	17:53	-132.746	47.685	0	322.70	0	4.6430	0	33.8500	0	26.806	0	319.752	0	-1e10	8	-1e10	8	-1E+10	1	-1E+10	1	-1E+10	1	-1E+10	1	-1E+10	1	-1E+10	1
4902554	81	C	05/05/2023	17:53	-132.746	47.685	0	323.70	0	4.6350	0	33.8510	0	26.808	0	320.742	0	-1e10	8	-1e10	8	-1E+10	1	-1E+10	1	-1E+10	1	-1E+10	1	-1E+10	1	-1E+10	1
4902554	81	C	05/05/2023	17:53	-132.746	47.685	0	324.60	0	4.6270	0	33.8520	0	26.809	0	321.633	0	-1e10	8	-1e10	8	-1E+10	1	-1E+10	1	-1E+10	1	-1E+10	1	-1E+10	1	-1E+10	1
4902554	81	C	05/05/2023	17:53	-132.746	47.685	0	325.60	0	4.6180	0	33.8520	0	26.810	0	322.623	0	-1e10	8	-1e10	8	-1E+10	1	-1E+10	1	-1E+10	1	-1E+10	1	-1E+10	1	-1E+10	1
4902554	81	C	05/05/2023	17:53	-132.746	47.685	0	326.90	0	4.5870	0	33.8560	0	26.817	0	323.910	0	-1e10	8	-1e10	8	-1E+10	1	-1E+10	1	-1E+10	1	-1E+10	1	-1E+10	1	-1E+10	1
4902554	81	C	05/05/2023	17:53	-132.746	47.685	0	328.40	0	4.5850	0	33.8560	0	26.817	0	325.395	0	-1e10	8	-1e10	8	-1E+10	1	-1E+10	1	-1E+10	1	-1E+10	1	-1E+10	1	-1E+10	1
4902554	81	C	05/05/2023	17:53	-132.746	47.685	0	329.30	0	4.5670	0	33.8590	0	26.822	0	326.286	0	-1e10	8	-1e10	8	-1E+10	1	-1E+10	1	-1E+10	1	-1E+10	1	-1E+10	1	-1E+10	1
4902554	81	C	05/05/2023	17:53	-132.746	47.685	0	330.30	0	4.5580	0	33.8600	0	26.823	0	327.276	0	-1e10	8	-1e10	8	-1E+10	1	-1E+10	1	-1E+10	1	-1E+10	1	-1E+10	1	-1E+10	1
4902554	81	C	05/05/2023	17:53	-132.746	47.685	0	331.30	0	4.5540	0	33.8620	0	26.825	0	328.266	0	-1e10	8	-1e10	8	-1E+10	1	-1E+10	1	-1E+10	1	-1E+10	1	-1E+10	1	-1E+10	1
4902554	81	C	05/05/2023	17:53	-132.746	47.685	0	332.20	0	4.5510	0	33.8620	0	26.826	0	329.157	0	-1e10	8	-1e10	8	-1E+10	1	-1E+10	1	-1E+10	1	-1E+10	1	-1E+10	1	-1E+10	1
4902554	81	C	05/05/2023	17:53	-132.746	47.685	0	333.20	0	4.5480	0	33.8620	0	26.826	0	330.147	0	-1e10	8	-1e10	8	-1E+10	1	-1E+10	1	-1E+10	1	-1E+10	1	-1E+10	1	-1E+10	1
4902554	81	C	05/05/2023	17:53	-132.746	47.685	0	334.10	0	4.5370	0	33.8670	0	26.831	0	331.038	0	-1e10	8	-1e10	8	-1E+10	1	-1E+10	1	-1E+10	1	-1E+10	1	-1E+10	1	-1E+10	1
4902554	81	C	05/05/2023	17:53	-132.746	47.685	0	335.10	0	4.5250	0	33.8670	0	26.833	0	332.028	0	-1e10	8	-1e10	8	-1E+10	1	-1E+10	1	-1E+10	1	-1E+10	1	-1E+10	1	-1E+10	1
4902554	81	C	05/05/2023	17:53	-132.746	47.685	0	336.10	0	4.5140	0	33.8700	0	26.836	0	333.018	0	-1e10	8	-1e10	8	-1E+10	1	-1E+10	1	-1E+10	1	-1E+10	1	-1E+10	1	-1E+10	1
4902554	81	C	05/05/2023	17:53	-132.746	47.685	0	337.00	0	4.5030	0	33.8730	0	26.840	0	333.909	0	-1e10	8	-1e10	8	-1E+10	1	-1E+10	1	-1E+10	1	-1E+10	1	-1E+10	1	-1E+10	1
4902554	81	C	05/05/2023	17:53	-132.746	47.685	0	338.00	0	4.5000	0	33.8730	0	26.840	0	334.899	0	-1e10	8	-1e10	8	-1E+10	1	-1E+10	1	-1E+10	1	-1E+10	1	-1E+10	1	-1E+10	1
4902554	81	C	05/05/2023	17:53	-132.746	47.685	0	339.00	0	4.5000	0	33.8730	0	26.840	0	335.890	0	-1e10	8	-1e10	8	-1E+10	1	-1E+10	1	-1E+10	1	-1E+10	1	-1E+10	1	-1E+10	1
4902554	81	C	05/05/2023	17:53	-132.746	47.685	0	339.90	0	4.5010	0	33.8730	0	26.840	0	336.781	0	-1e10	8	-1e10	8	-1E+10	1	-1E+10	1	-1E+10	1	-1E+10	1	-1E+10	1	-1E+10	1
4902554	81	C	05/05/2023	17:53	-132.746	47.685	0	340.90	0	4.5000	0	33.8730	0	26.840	0	337.771	0	-1e10	8	-1e10	8	-1E+10	1	-1E+10	1	-1E+10	1	-1E+10	1	-1E+10	1	-1E+10	1
4902554	81	C	05/05/2023	17:53	-132.746	47.685	0	341.90	0	4.4950	0	33.8750	0	26.842	0	338.761	0	-1e10	8	-1e10	8	-1E+10	1	-1E+10	1	-1E+10	1	-1E+10	1	-1E+10	1	-1E+10	1
4902554	81	C	05/05/2023	17:53	-132.746	47.685	0	342.80	0	4.4900	0	33.8770	0	26.844	0	339.652	0	-1e10	8	-1e10	8	-1E+10	1	-1E+10	1	-1E+10	1	-1E+10	1	-1E+10	1	-1E+10	1
4902554	81	C	05/05/2023	17:53	-132.746	47.685	0	343.80	0	4.4800	0	33.8810	0	26.849	0	340.642	0	-1e10	8	-1e10	8	-1E+10	1	-1E+10	1	-1E+10	1	-1E+10	1	-1E+10	1	-1E+10	1
4902554	81	C	05/05/2023	17:53	-132.746	47.685	0	344.70	0	4.4750	0	33.8820	0	26.850	0	341.533	0	-1e10	8	-1e10	8	-1E+10	1	-1E+10	1	-1E+10	1	-1E+10	1	-1E+10	1	-1E+10	1
4902554	81	C	05/05/2023	17:53	-132.746	47.685	0	345.70	0	4.4680	0	33.8850	0	26.853	0	342.523	0	-1e10	8	-1e10	8	-1E+10	1	-1E+10	1	-1E+10	1	-1E+10	1	-1E+10	1	-1E+10	1
4902554	81	C	05/05/2023	17:53	-132.746	47.685	0	346.70	0	4.4670	0	33.8850	0	26.853	0	343.512	0	-1e10	8	-1e10	8	-1E+10	1	-1E+10	1	-1E+10	1	-1E+10	1	-1E+10	1	-1E+10	1
4902554	81	C	05/05/2023	17:53	-132.746	47.685	0	347.60	0	4.4660	0	33.8850	0	26.853	0	344.403	0	-1e10	8	-1e10	8	-1E+10	1	-1E+10	1	-1E+10	1	-1E+10	1	-1E+10	1	-1E+10	1
4902554	81	C	05/05/2023	17:53	-132.746	47.685	0	348.60	0	4.4640	0	33.8860	0	26.854	0	345.393	0	-1e10	8	-1e10	8	-1E+10	1	-1E+10	1	-1E+10	1	-1E+10	1	-1E+10	1	-1E+10	1
4902554	81	C	05/05/2023	17:53	-132.746	47.685	0	349.60	0	4.4610	0	33.8870	0	26.855	0	346.383	0	-1e10	8	-1e10	8	-1E+10	1	-1E+10	1	-1E+10	1	-1E+10	1	-1E+10	1	-1E+10	1
4902554	81	C	05/05/2023	17:53	-132.746	47.685	0	352.90	0	4.4420	0	33.8940	0	26.863	0	349.650	0	-1e10	8	-1e10	8	-1E+10	1	-1E+10	1	-1E+10	1	-1E+10	1	-1E+10	1	-1E+10	1
4902554	81	C	05/05/2023	17:53	-132.746	47.685	0	358.20	0	4.4250	0	33.9020	0	26.871	0	354.897	0	-1e10	8	-1e10	8	-1E+10	1	-1E+10	1	-1E+10	1	-1E+10	1	-1E+10	1	-1E+10	1
4902554	81	C	05/05/2023	17:53	-132.746	47.685	0	363.10	0	4.4130	0	33.9100	0	26.879	0	359.747	0	-1e10	8	-1e10	8	-1E+10	1	-1E+10	1	-1E+10	1	-1E+10	1	-1E+10	1	-1E+10	1
4902554	81	C	05/05/2023	17:53	-132.746	47.685	0	367.90	0	4.4040	0	33.9170	0	26.885	0	364.499	0	-1e10	8	-1e10	8	-1E+10	1	-1E+10	1	-1E+10	1	-1E+10	1	-1E+10	1	-1E+10	1
4902554	81	C	05/05/2023	17:53	-132.746	47.685	0	373.00	0	4.3800	0	33.9290	0	26.898	0	369.547	0	-1e10	8	-1e10	8	-1E+10	1	-1E+10	1	-1E+10	1	-1E+10	1	-1E+10	1	-1E+10	1
4902554	81	C	05/05/2023	17:53	-132.746	47.685	0	378.10	0	4.3670	0	33.9360	0	26.905	0	374.595	0	-1e10	8	-1e10	8	-1E+10	1	-1E+10	1	-1E+10	1	-1E+10	1	-1E+10	1	-1E+10	1
4902554	81	C	05/05/2023	17:53	-132.746	47.685	0	382.90	0	4.3510	0	33.9460	0	26.914	0	379.347	0	-1e10	8	-1e10	8	-1E+10	1	-1E+10	1	-1E+10	1	-1E+10	1	-1E+10	1	-1E+10	1
4902554	81	C	05/05/2023	17:53	-132.746	47.685	0	387.70	0	4.3330	0	33.9560	0	26.924	0	384.098	0	-1e10	8	-1e10	8	-1E+10	1	-1E+10	1	-1E+10	1	-1E+10	1	-1E+10	1	-1E+10	1
4902554	81	C	05/05/2023	17:53	-132.746	47.685	0	392.60	0	4.3230	0	33.9650	0	26.932	0	388.947	0	-1e10	8	-1e10	8	-1E+10	1	-1E+10	1	-1E+10	1	-1E+10	1	-1E+10	1	-1E+10	1
4902554	81	C	05/05/2023	17:53	-132.746	47.685	0	397.90	0	4.3130	0	33.9710	0	26.938	0	394.193	0	-1e10	8	-1e10	8	-1E+10	1	-1E+10	1	-1E+10	1	-1E+10	1	-1E+10	1	-1E+10	1
4902554	81	C	05/05/2023	17:53	-132.746	47.685	0	402.90	0	4.3020	0	33.9750	0	26.943	0	399.142	0	-1e10	8	-1e10	8	-1E+10	1	-1E+10	1	-1E+10	1	-1E+10	1	-1E+10	1	-1E+10	1
4902554	81	C	05/05/2023	17:53	-132.746	47.685	0	407.60	0	4.2930	0	33.9780	0	26.946	0	403.793	0	-1e10	8	-1e10	8	-1E+10	1	-1E+10	1	-1E+10	1	-1E+10	1	-1E+10	1	-1E+10	1
4902554	81	C	05/05/2023	17:53	-132.746	47.685	0	412.90	0	4.2880	0	33.9820	0	26.950	0	409.039	0	-1e10	8	-1e10	8	-1E+10	1	-1E+10	1	-1E+10	1	-1E+10	1	-1E+10	1	-1E+10	1
4902554	81	C	05/05/2023	17:53	-132.746	47.685	0	418.40	0	4.2780	0	33.9880	0	26.956	0	414.482	0	-1e10	8	-1e10	8	-1E+10	1	-1E+10	1	-1E+10	1	-1E+10	1	-1E+10	1	-1E+10	1
4902554	81	C	05/05/2023	17:53	-132.746	47.685	0	423.40	0	4.2690	0	33.9930	0	26.961	0	419.430	0	-1e10	8	-1e10	8	-1E+10	1	-1E+10	1	-1E+10	1	-1E+10	1	-1E+10	1	-1E+10	1
4902554	81	C	05/05/2023	17:53	-132.746	47.685	0	428.30	0	4.2650	0	33.9990	0	26.966	0	424.279	0	-1e10	8	-1e10	8	-1E+10	1	-1E+10	1	-1E+10	1	-1E+10	1	-1E+10	1	-1E+10	1
4902554	81	C	05/05/2023	17:53	-132.746	47.685	0	433.30	0	4.2600	0	34.0050	0	26.971	0	429.227	0	-1e10	8	-1e10	8	-1E+10	1	-1E+10	1	-1E+10	1	-1E+10	1	-1E+10	1	-1E+10	1
4902554	81	C	05/05/2023	17:53	-132.746	47.685	0	438.00	0	4.2550	0	34.0070	0	26.973	0	433.878	0	-1e10	8	-1e10	8	-1E+10	1	-1E+10	1	-1E+10	1	-1E+10	1	-1E+10	1	-1E+10	1
4902554	81	C	05/05/2023	17:53	-132.746	47.685	0	442.70	0	4.2410	0	34.0110	0	26.978	0	438.528	0	-1e10	8	-1e10	8	-1E+10	1	-1E+10	1	-1E+10	1	-1E+10	1	-1E+10	1	-1E+10	1
4902554	81	C	05/05/2023	17:53	-132.746	47.685	0	448.00	0	4.2190	0	34.0200	0	26.987	0	443.773	0	-1e10	8	-1e10	8	-1E+10	1	-1E+10	1	-1E+10	1	-1E+10	1	-1E+10	1	-1E+10	1
4902554	81	C	05/05/2023	17:53	-132.746	47.685	0	452.80	0	4.2130	0	34.0220	0	26.990	0	448.522	0	-1e10	8	-1e10	8	-1E+10	1	-1E+10	1	-1E+10	1	-1E+10	1	-1E+10	1	-1E+10	1
4902554	81	C	05/05/2023	17:53	-132.746	47.685	0	457.70	0	4.2060	0	34.0240	0	26.992	0	453.371	0	-1e10	8	-1e10	8	-1E+10	1	-1E+10	1	-1E+10	1	-1E+10	1	-1E+10	1	-1E+10	1
4902554	81	C	05/05/2023	17:53	-132.746	47.685	0	463.00	0	4.1990	0	34.0260	0	26.994	0	458.615	0	-1e10	8	-1e10	8	-1E+10	1	-1E+10	1	-1E+10	1	-1E+10	1	-1E+10	1	-1E+10	1
4902554	81	C	05/05/2023	17:53	-132.746	47.685	0	467.80	0	4.1920	0	34.0280	0	26.997	0	463.364	0	-1e10	8	-1e10	8	-1E+10	1	-1E+10	1	-1E+10	1	-1E+10	1	-1E+10	1	-1E+10	1
4902554	81	C	05/05/2023	17:53	-132.746	47.685	0	472.70	0	4.1840	0	34.0310	0	27.000	0	468.212	0	-1e10	8	-1e10	8	-1E+10	1	-1E+10	1	-1E+10	1	-1E+10	1	-1E+10	1	-1E+10	1
4902554	81	C	05/05/2023	17:53	-132.746	47.685	0	478.10	0	4.1780	0	34.0350	0	27.004	0	473.554	0	-1e10	8	-1e10	8	-1E+10	1	-1E+10	1	-1E+10	1	-1E+10	1	-1E+10	1	-1E+10	1
4902554	81	C	05/05/2023	17:53	-132.746	47.685	0	482.90	0	4.1580	0	34.0440	0	27.013	0	478.303	0	-1e10	8	-1e10	8	-1E+10	1	-1E+10	1	-1E+10	1	-1E+10	1	-1E+10	1	-1E+10	1
4902554	81	C	05/05/2023	17:53	-132.746	47.685	0	487.60	0	4.1500	0	34.0480	0	27.017	0	482.953	0	-1e10	8	-1e10	8	-1E+10	1	-1E+10	1	-1E+10	1	-1E+10	1	-1E+10	1	-1E+10	1
4902554	81	C	05/05/2023	17:53	-132.746	47.685	0	492.80	0	4.1380	0	34.0540	0	27.023	0	488.097	0	-1e10	8	-1e10	8	-1E+10	1	-1E+10	1	-1E+10	1	-1E+10	1	-1E+10	1	-1E+10	1
4902554	81	C	05/05/2023	17:53	-132.746	47.685	0	498.10	0	4.1270	0	34.0590	0	27.028	0	493.341	0	-1e10	8	-1e10	8	-1E+10	1	-1E+10	1	-1E+10	1	-1E+10	1	-1E+10	1	-1E+10	1
4902554	81	C	05/05/2023	17:53	-132.746	47.685	0	503.00	0	4.1140	0	34.0660	0	27.035	0	498.188	0	-1e10	8	-1e10	8	-1E+10	1	-1E+10	1	-1E+10	1	-1E+10	1	-1E+10	1	-1E+10	1
4902554	81	C	05/05/2023	17:53	-132.746	47.685	0	508.00	0	4.1070	0	34.0700	0	27.039	0	503.134	0	-1e10	8	-1e10	8	-1E+10	1	-1E+10	1	-1E+10	1	-1E+10	1	-1E+10	1	-1E+10	1
4902554	81	C	05/05/2023	17:53	-132.746	47.685	0	513.10	0	4.0980	0	34.0740	0	27.043	0	508.179	0	-1e10	8	-1e10	8	-1E+10	1	-1E+10	1	-1E+10	1	-1E+10	1	-1E+10	1	-1E+10	1
4902554	81	C	05/05/2023	17:53	-132.746	47.685	0	517.90	0	4.0920	0	34.0770	0	27.046	0	512.927	0	-1e10	8	-1e10	8	-1E+10	1	-1E+10	1	-1E+10	1	-1E+10	1	-1E+10	1	-1E+10	1
4902554	81	C	05/05/2023	17:53	-132.746	47.685	0	522.70	0	4.0850	0	34.0800	0	27.050	0	517.675	0	-1e10	8	-1e10	8	-1E+10	1	-1E+10	1	-1E+10	1	-1E+10	1	-1E+10	1	-1E+10	1
4902554	81	C	05/05/2023	17:53	-132.746	47.685	0	528.10	0	4.0740	0	34.0850	0	27.055	0	523.016	0	-1e10	8	-1e10	8	-1E+10	1	-1E+10	1	-1E+10	1	-1E+10	1	-1E+10	1	-1E+10	1
4902554	81	C	05/05/2023	17:53	-132.746	47.685	0	533.10	0	4.0650	0	34.0890	0	27.059	0	527.962	0	-1e10	8	-1e10	8	-1E+10	1	-1E+10	1	-1E+10	1	-1E+10	1	-1E+10	1	-1E+10	1
4902554	81	C	05/05/2023	17:53	-132.746	47.685	0	538.10	0	4.0550	0	34.0920	0	27.062	0	532.907	0	-1e10	8	-1e10	8	-1E+10	1	-1E+10	1	-1E+10	1	-1E+10	1	-1E+10	1	-1E+10	1
4902554	81	C	05/05/2023	17:53	-132.746	47.685	0	543.20	0	4.0460	0	34.0970	0	27.067	0	537.951	0	-1e10	8	-1e10	8	-1E+10	1	-1E+10	1	-1E+10	1	-1E+10	1	-1E+10	1	-1E+10	1
4902554	81	C	05/05/2023	17:53	-132.746	47.685	0	547.80	0	4.0330	0	34.1020	0	27.073	0	542.501	0	-1e10	8	-1e10	8	-1E+10	1	-1E+10	1	-1E+10	1	-1E+10	1	-1E+10	1	-1E+10	1
4902554	81	C	05/05/2023	17:53	-132.746	47.685	0	553.00	0	4.0140	0	34.1100	0	27.081	0	547.644	0	-1e10	8	-1e10	8	-1E+10	1	-1E+10	1	-1E+10	1	-1E+10	1	-1E+10	1	-1E+10	1
4902554	81	C	05/05/2023	17:53	-132.746	47.685	0	558.30	0	3.9980	0	34.1150	0	27.087	0	552.885	0	-1e10	8	-1e10	8	-1E+10	1	-1E+10	1	-1E+10	1	-1E+10	1	-1E+10	1	-1E+10	1
4902554	81	C	05/05/2023	17:53	-132.746	47.685	0	563.10	0	3.9860	0	34.1190	0	27.091	0	557.632	0	-1e10	8	-1e10	8	-1E+10	1	-1E+10	1	-1E+10	1	-1E+10	1	-1E+10	1	-1E+10	1
4902554	81	C	05/05/2023	17:53	-132.746	47.685	0	568.00	0	3.9750	0	34.1220	0	27.095	0	562.478	0	-1e10	8	-1e10	8	-1E+10	1	-1E+10	1	-1E+10	1	-1E+10	1	-1E+10	1	-1E+10	1
4902554	81	C	05/05/2023	17:53	-132.746	47.685	0	572.90	0	3.9660	0	34.1260	0	27.099	0	567.324	0	-1e10	8	-1e10	8	-1E+10	1	-1E+10	1	-1E+10	1	-1E+10	1	-1E+10	1	-1E+10	1
4902554	81	C	05/05/2023	17:53	-132.746	47.685	0	577.90	0	3.9560	0	34.1300	0	27.103	0	572.268	0	-1e10	8	-1e10	8	-1E+10	1	-1E+10	1	-1E+10	1	-1E+10	1	-1E+10	1	-1E+10	1
4902554	81	C	05/05/2023	17:53	-132.746	47.685	0	582.90	0	3.9530	0	34.1320	0	27.105	0	577.213	0	-1e10	8	-1e10	8	-1E+10	1	-1E+10	1	-1E+10	1	-1E+10	1	-1E+10	1	-1E+10	1
4902554	81	C	05/05/2023	17:53	-132.746	47.685	0	587.90	0	3.9490	0	34.1330	0	27.106	0	582.157	0	-1e10	8	-1e10	8	-1E+10	1	-1E+10	1	-1E+10	1	-1E+10	1	-1E+10	1	-1E+10	1
4902554	81	C	05/05/2023	17:53	-132.746	47.685	0	593.00	0	3.9470	0	34.1340	0	27.107	0	587.200	0	-1e10	8	-1e10	8	-1E+10	1	-1E+10	1	-1E+10	1	-1E+10	1	-1E+10	1	-1E+10	1
4902554	81	C	05/05/2023	17:53	-132.746	47.685	0	598.20	0	3.9430	0	34.1350	0	27.108	0	592.342	0	-1e10	8	-1e10	8	-1E+10	1	-1E+10	1	-1E+10	1	-1E+10	1	-1E+10	1	-1E+10	1
4902554	81	C	05/05/2023	17:53	-132.746	47.685	0	603.00	0	3.9350	0	34.1380	0	27.112	0	597.088	0	-1e10	8	-1e10	8	-1E+10	1	-1E+10	1	-1E+10	1	-1E+10	1	-1E+10	1	-1E+10	1
4902554	81	C	05/05/2023	17:53	-132.746	47.685	0	607.70	0	3.9290	0	34.1400	0	27.114	0	601.735	0	-1e10	8	-1e10	8	-1E+10	1	-1E+10	1	-1E+10	1	-1E+10	1	-1E+10	1	-1E+10	1
4902554	81	C	05/05/2023	17:53	-132.746	47.685	0	613.00	0	3.9230	0	34.1420	0	27.116	0	606.975	0	-1e10	8	-1e10	8	-1E+10	1	-1E+10	1	-1E+10	1	-1E+10	1	-1E+10	1	-1E+10	1
4902554	81	C	05/05/2023	17:53	-132.746	47.685	0	618.30	0	3.9160	0	34.1450	0	27.119	0	612.215	0	-1e10	8	-1e10	8	-1E+10	1	-1E+10	1	-1E+10	1	-1E+10	1	-1E+10	1	-1E+10	1
4902554	81	C	05/05/2023	17:53	-132.746	47.685	0	622.90	0	3.9020	0	34.1500	0	27.125	0	616.763	0	-1e10	8	-1e10	8	-1E+10	1	-1E+10	1	-1E+10	1	-1E+10	1	-1E+10	1	-1E+10	1
4902554	81	C	05/05/2023	17:53	-132.746	47.685	0	627.50	0	3.8900	0	34.1520	0	27.127	0	621.311	0	-1e10	8	-1e10	8	-1E+10	1	-1E+10	1	-1E+10	1	-1E+10	1	-1E+10	1	-1E+10	1
4902554	81	C	05/05/2023	17:53	-132.746	47.685	0	632.60	0	3.8620	0	34.1550	0	27.133	0	626.353	0	-1e10	8	-1e10	8	-1E+10	1	-1E+10	1	-1E+10	1	-1E+10	1	-1E+10	1	-1E+10	1
4902554	81	C	05/05/2023	17:53	-132.746	47.685	0	637.70	0	3.8510	0	34.1570	0	27.135	0	631.395	0	-1e10	8	-1e10	8	-1E+10	1	-1E+10	1	-1E+10	1	-1E+10	1	-1E+10	1	-1E+10	1
4902554	81	C	05/05/2023	17:53	-132.746	47.685	0	642.80	0	3.8400	0	34.1610	0	27.140	0	636.437	0	-1e10	8	-1e10	8	-1E+10	1	-1E+10	1	-1E+10	1	-1E+10	1	-1E+10	1	-1E+10	1
4902554	81	C	05/05/2023	17:53	-132.746	47.685	0	647.80	0	3.8280	0	34.1640	0	27.143	0	641.380	0	-1e10	8	-1e10	8	-1E+10	1	-1E+10	1	-1E+10	1	-1E+10	1	-1E+10	1	-1E+10	1
4902554	81	C	05/05/2023	17:53	-132.746	47.685	0	652.90	0	3.8120	0	34.1690	0	27.149	0	646.421	0	-1e10	8	-1e10	8	-1E+10	1	-1E+10	1	-1E+10	1	-1E+10	1	-1E+10	1	-1E+10	1
4902554	81	C	05/05/2023	17:53	-132.746	47.685	0	657.90	0	3.8030	0	34.1710	0	27.151	0	651.364	0	-1e10	8	-1e10	8	-1E+10	1	-1E+10	1	-1E+10	1	-1E+10	1	-1E+10	1	-1E+10	1
4902554	81	C	05/05/2023	17:53	-132.746	47.685	0	663.00	0	3.7990	0	34.1730	0	27.153	0	656.405	0	-1e10	8	-1e10	8	-1E+10	1	-1E+10	1	-1E+10	1	-1E+10	1	-1E+10	1	-1E+10	1
4902554	81	C	05/05/2023	17:53	-132.746	47.685	0	668.00	0	3.7910	0	34.1750	0	27.156	0	661.347	0	-1e10	8	-1e10	8	-1E+10	1	-1E+10	1	-1E+10	1	-1E+10	1	-1E+10	1	-1E+10	1
4902554	81	C	05/05/2023	17:53	-132.746	47.685	0	673.00	0	3.7740	0	34.1810	0	27.162	0	666.289	0	-1e10	8	-1e10	8	-1E+10	1	-1E+10	1	-1E+10	1	-1E+10	1	-1E+10	1	-1E+10	1
4902554	81	C	05/05/2023	17:53	-132.746	47.685	0	678.00	0	3.7550	0	34.1870	0	27.169	0	671.232	0	-1e10	8	-1e10	8	-1E+10	1	-1E+10	1	-1E+10	1	-1E+10	1	-1E+10	1	-1E+10	1
4902554	81	C	05/05/2023	17:53	-132.746	47.685	0	683.00	0	3.7420	0	34.1920	0	27.174	0	676.174	0	-1e10	8	-1e10	8	-1E+10	1	-1E+10	1	-1E+10	1	-1E+10	1	-1E+10	1	-1E+10	1
4902554	81	C	05/05/2023	17:53	-132.746	47.685	0	688.00	0	3.7300	0	34.1960	0	27.179	0	681.115	0	-1e10	8	-1e10	8	-1E+10	1	-1E+10	1	-1E+10	1	-1E+10	1	-1E+10	1	-1E+10	1
4902554	81	C	05/05/2023	17:53	-132.746	47.685	0	692.90	0	3.7210	0	34.1990	0	27.182	0	685.958	0	-1e10	8	-1e10	8	-1E+10	1	-1E+10	1	-1E+10	1	-1E+10	1	-1E+10	1	-1E+10	1
4902554	81	C	05/05/2023	17:53	-132.746	47.685	0	697.80	0	3.7040	0	34.2040	0	27.188	0	690.801	0	-1e10	8	-1e10	8	-1E+10	1	-1E+10	1	-1E+10	1	-1E+10	1	-1E+10	1	-1E+10	1
4902554	81	C	05/05/2023	17:53	-132.746	47.685	0	702.80	0	3.6880	0	34.2090	0	27.193	0	695.743	0	-1e10	8	-1e10	8	-1E+10	1	-1E+10	1	-1E+10	1	-1E+10	1	-1E+10	1	-1E+10	1
4902554	81	C	05/05/2023	17:53	-132.746	47.685	0	707.80	0	3.6760	0	34.2120	0	27.197	0	700.684	0	-1e10	8	-1e10	8	-1E+10	1	-1E+10	1	-1E+10	1	-1E+10	1	-1E+10	1	-1E+10	1
4902554	81	C	05/05/2023	17:53	-132.746	47.685	0	712.80	0	3.6620	0	34.2170	0	27.202	0	705.625	0	-1e10	8	-1e10	8	-1E+10	1	-1E+10	1	-1E+10	1	-1E+10	1	-1E+10	1	-1E+10	1
4902554	81	C	05/05/2023	17:53	-132.746	47.685	0	717.80	0	3.6470	0	34.2210	0	27.207	0	710.566	0	-1e10	8	-1e10	8	-1E+10	1	-1E+10	1	-1E+10	1	-1E+10	1	-1E+10	1	-1E+10	1
4902554	81	C	05/05/2023	17:53	-132.746	47.685	0	722.80	0	3.6390	0	34.2240	0	27.210	0	715.507	0	-1e10	8	-1e10	8	-1E+10	1	-1E+10	1	-1E+10	1	-1E+10	1	-1E+10	1	-1E+10	1
4902554	81	C	05/05/2023	17:53	-132.746	47.685	0	727.80	0	3.6300	0	34.2260	0	27.213	0	720.448	0	-1e10	8	-1e10	8	-1E+10	1	-1E+10	1	-1E+10	1	-1E+10	1	-1E+10	1	-1E+10	1
4902554	81	C	05/05/2023	17:53	-132.746	47.685	0	733.00	0	3.6130	0	34.2310	0	27.218	0	725.587	0	-1e10	8	-1e10	8	-1E+10	1	-1E+10	1	-1E+10	1	-1E+10	1	-1E+10	1	-1E+10	1
4902554	81	C	05/05/2023	17:53	-132.746	47.685	0	738.20	0	3.5970	0	34.2350	0	27.223	0	730.725	0	-1e10	8	-1e10	8	-1E+10	1	-1E+10	1	-1E+10	1	-1E+10	1	-1E+10	1	-1E+10	1
4902554	81	C	05/05/2023	17:53	-132.746	47.685	0	742.90	0	3.5840	0	34.2390	0	27.228	0	735.369	0	-1e10	8	-1e10	8	-1E+10	1	-1E+10	1	-1E+10	1	-1E+10	1	-1E+10	1	-1E+10	1
4902554	81	C	05/05/2023	17:53	-132.746	47.685	0	747.80	0	3.5760	0	34.2410	0	27.230	0	740.211	0	-1e10	8	-1e10	8	-1E+10	1	-1E+10	1	-1E+10	1	-1E+10	1	-1E+10	1	-1E+10	1
4902554	81	C	05/05/2023	17:53	-132.746	47.685	0	752.80	0	3.5510	0	34.2470	0	27.237	0	745.151	0	-1e10	8	-1e10	8	-1E+10	1	-1E+10	1	-1E+10	1	-1E+10	1	-1E+10	1	-1E+10	1
4902554	81	C	05/05/2023	17:53	-132.746	47.685	0	757.90	0	3.5350	0	34.2500	0	27.241	0	750.190	0	-1e10	8	-1e10	8	-1E+10	1	-1E+10	1	-1E+10	1	-1E+10	1	-1E+10	1	-1E+10	1
4902554	81	C	05/05/2023	17:53	-132.746	47.685	0	762.90	0	3.5140	0	34.2560	0	27.248	0	755.130	0	-1e10	8	-1e10	8	-1E+10	1	-1E+10	1	-1E+10	1	-1E+10	1	-1E+10	1	-1E+10	1
4902554	81	C	05/05/2023	17:53	-132.746	47.685	0	768.00	0	3.4960	0	34.2610	0	27.254	0	760.169	0	-1e10	8	-1e10	8	-1E+10	1	-1E+10	1	-1E+10	1	-1E+10	1	-1E+10	1	-1E+10	1
4902554	81	C	05/05/2023	17:53	-132.746	47.685	0	772.80	0	3.4940	0	34.2620	0	27.255	0	764.911	0	-1e10	8	-1e10	8	-1E+10	1	-1E+10	1	-1E+10	1	-1E+10	1	-1E+10	1	-1E+10	1
4902554	81	C	05/05/2023	17:53	-132.746	47.685	0	777.70	0	3.4940	0	34.2620	0	27.255	0	769.752	0	-1e10	8	-1e10	8	-1E+10	1	-1E+10	1	-1E+10	1	-1E+10	1	-1E+10	1	-1E+10	1
4902554	81	C	05/05/2023	17:53	-132.746	47.685	0	782.90	0	3.4840	0	34.2640	0	27.258	0	774.890	0	-1e10	8	-1e10	8	-1E+10	1	-1E+10	1	-1E+10	1	-1E+10	1	-1E+10	1	-1E+10	1
4902554	81	C	05/05/2023	17:53	-132.746	47.685	0	787.90	0	3.4740	0	34.2670	0	27.261	0	779.829	0	-1e10	8	-1e10	8	-1E+10	1	-1E+10	1	-1E+10	1	-1E+10	1	-1E+10	1	-1E+10	1
4902554	81	C	05/05/2023	17:53	-132.746	47.685	0	792.90	0	3.4670	0	34.2680	0	27.262	0	784.769	0	-1e10	8	-1e10	8	-1E+10	1	-1E+10	1	-1E+10	1	-1E+10	1	-1E+10	1	-1E+10	1
4902554	81	C	05/05/2023	17:53	-132.746	47.685	0	798.00	0	3.4570	0	34.2710	0	27.266	0	789.807	0	-1e10	8	-1e10	8	-1E+10	1	-1E+10	1	-1E+10	1	-1E+10	1	-1E+10	1	-1E+10	1
4902554	81	C	05/05/2023	17:53	-132.746	47.685	0	803.00	0	3.4430	0	34.2740	0	27.270	0	794.746	0	-1e10	8	-1e10	8	-1E+10	1	-1E+10	1	-1E+10	1	-1E+10	1	-1E+10	1	-1E+10	1
4902554	81	C	05/05/2023	17:53	-132.746	47.685	0	808.10	0	3.4230	0	34.2800	0	27.276	0	799.784	0	-1e10	8	-1e10	8	-1E+10	1	-1E+10	1	-1E+10	1	-1E+10	1	-1E+10	1	-1E+10	1
4902554	81	C	05/05/2023	17:53	-132.746	47.685	0	812.80	0	3.4190	0	34.2810	0	27.277	0	804.426	0	-1e10	8	-1e10	8	-1E+10	1	-1E+10	1	-1E+10	1	-1E+10	1	-1E+10	1	-1E+10	1
4902554	81	C	05/05/2023	17:53	-132.746	47.685	0	817.60	0	3.4170	0	34.2810	0	27.278	0	809.167	0	-1e10	8	-1e10	8	-1E+10	1	-1E+10	1	-1E+10	1	-1E+10	1	-1E+10	1	-1E+10	1
4902554	81	C	05/05/2023	17:53	-132.746	47.685	0	822.80	0	3.4070	0	34.2840	0	27.281	0	814.304	0	-1e10	8	-1e10	8	-1E+10	1	-1E+10	1	-1E+10	1	-1E+10	1	-1E+10	1	-1E+10	1
4902554	81	C	05/05/2023	17:53	-132.746	47.685	0	828.10	0	3.3970	0	34.2860	0	27.284	0	819.538	0	-1e10	8	-1e10	8	-1E+10	1	-1E+10	1	-1E+10	1	-1E+10	1	-1E+10	1	-1E+10	1
4902554	81	C	05/05/2023	17:53	-132.746	47.685	0	832.80	0	3.3860	0	34.2890	0	27.287	0	824.181	0	-1e10	8	-1e10	8	-1E+10	1	-1E+10	1	-1E+10	1	-1E+10	1	-1E+10	1	-1E+10	1
4902554	81	C	05/05/2023	17:53	-132.746	47.685	0	837.70	0	3.3730	0	34.2920	0	27.291	0	829.020	0	-1e10	8	-1e10	8	-1E+10	1	-1E+10	1	-1E+10	1	-1E+10	1	-1E+10	1	-1E+10	1
4902554	81	C	05/05/2023	17:53	-132.746	47.685	0	842.50	0	3.3600	0	34.2950	0	27.294	0	833.761	0	-1e10	8	-1e10	8	-1E+10	1	-1E+10	1	-1E+10	1	-1E+10	1	-1E+10	1	-1E+10	1
4902554	81	C	05/05/2023	17:53	-132.746	47.685	0	847.90	0	3.3500	0	34.2980	0	27.298	0	839.094	0	-1e10	8	-1e10	8	-1E+10	1	-1E+10	1	-1E+10	1	-1E+10	1	-1E+10	1	-1E+10	1
4902554	81	C	05/05/2023	17:53	-132.746	47.685	0	853.20	0	3.3400	0	34.3000	0	27.300	0	844.328	0	-1e10	8	-1e10	8	-1E+10	1	-1E+10	1	-1E+10	1	-1E+10	1	-1E+10	1	-1E+10	1
4902554	81	C	05/05/2023	17:53	-132.746	47.685	0	858.20	0	3.3320	0	34.3020	0	27.303	0	849.266	0	-1e10	8	-1e10	8	-1E+10	1	-1E+10	1	-1E+10	1	-1E+10	1	-1E+10	1	-1E+10	1
4902554	81	C	05/05/2023	17:53	-132.746	47.685	0	863.10	0	3.3270	0	34.3030	0	27.304	0	854.105	0	-1e10	8	-1e10	8	-1E+10	1	-1E+10	1	-1E+10	1	-1E+10	1	-1E+10	1	-1E+10	1
4902554	81	C	05/05/2023	17:53	-132.746	47.685	0	868.10	0	3.3200	0	34.3050	0	27.306	0	859.043	0	-1e10	8	-1e10	8	-1E+10	1	-1E+10	1	-1E+10	1	-1E+10	1	-1E+10	1	-1E+10	1
4902554	81	C	05/05/2023	17:53	-132.746	47.685	0	873.10	0	3.3160	0	34.3060	0	27.308	0	863.980	0	-1e10	8	-1e10	8	-1E+10	1	-1E+10	1	-1E+10	1	-1E+10	1	-1E+10	1	-1E+10	1
4902554	81	C	05/05/2023	17:53	-132.746	47.685	0	878.20	0	3.3090	0	34.3080	0	27.310	0	869.016	0	-1e10	8	-1e10	8	-1E+10	1	-1E+10	1	-1E+10	1	-1E+10	1	-1E+10	1	-1E+10	1
4902554	81	C	05/05/2023	17:53	-132.746	47.685	0	882.90	0	3.2970	0	34.3110	0	27.313	0	873.658	0	-1e10	8	-1e10	8	-1E+10	1	-1E+10	1	-1E+10	1	-1E+10	1	-1E+10	1	-1E+10	1
4902554	81	C	05/05/2023	17:53	-132.746	47.685	0	887.50	0	3.2840	0	34.3140	0	27.317	0	878.200	0	-1e10	8	-1e10	8	-1E+10	1	-1E+10	1	-1E+10	1	-1E+10	1	-1E+10	1	-1E+10	1
4902554	81	C	05/05/2023	17:53	-132.746	47.685	0	892.70	0	3.2700	0	34.3170	0	27.321	0	883.334	0	-1e10	8	-1e10	8	-1E+10	1	-1E+10	1	-1E+10	1	-1E+10	1	-1E+10	1	-1E+10	1
4902554	81	C	05/05/2023	17:53	-132.746	47.685	0	897.70	0	3.2560	0	34.3200	0	27.324	0	888.271	0	-1e10	8	-1e10	8	-1E+10	1	-1E+10	1	-1E+10	1	-1E+10	1	-1E+10	1	-1E+10	1
4902554	81	C	05/05/2023	17:53	-132.746	47.685	0	902.90	0	3.2500	0	34.3210	0	27.326	0	893.405	0	-1e10	8	-1e10	8	-1E+10	1	-1E+10	1	-1E+10	1	-1E+10	1	-1E+10	1	-1E+10	1
4902554	81	C	05/05/2023	17:53	-132.746	47.685	0	908.10	0	3.2450	0	34.3220	0	27.327	0	898.540	0	-1e10	8	-1e10	8	-1E+10	1	-1E+10	1	-1E+10	1	-1E+10	1	-1E+10	1	-1E+10	1
4902554	81	C	05/05/2023	17:53	-132.746	47.685	0	913.00	0	3.2360	0	34.3240	0	27.330	0	903.377	0	-1e10	8	-1e10	8	-1E+10	1	-1E+10	1	-1E+10	1	-1E+10	1	-1E+10	1	-1E+10	1
4902554	81	C	05/05/2023	17:53	-132.746	47.685	0	918.10	0	3.2240	0	34.3270	0	27.333	0	908.413	0	-1e10	8	-1e10	8	-1E+10	1	-1E+10	1	-1E+10	1	-1E+10	1	-1E+10	1	-1E+10	1
4902554	81	C	05/05/2023	17:53	-132.746	47.685	0	923.10	0	3.2160	0	34.3290	0	27.335	0	913.349	0	-1e10	8	-1e10	8	-1E+10	1	-1E+10	1	-1E+10	1	-1E+10	1	-1E+10	1	-1E+10	1
4902554	81	C	05/05/2023	17:53	-132.746	47.685	0	928.20	0	3.2090	0	34.3310	0	27.338	0	918.384	0	-1e10	8	-1e10	8	-1E+10	1	-1E+10	1	-1E+10	1	-1E+10	1	-1E+10	1	-1E+10	1
4902554	81	C	05/05/2023	17:53	-132.746	47.685	0	933.00	0	3.1990	0	34.3340	0	27.341	0	923.123	0	-1e10	8	-1e10	8	-1E+10	1	-1E+10	1	-1E+10	1	-1E+10	1	-1E+10	1	-1E+10	1
4902554	81	C	05/05/2023	17:53	-132.746	47.685	0	937.80	0	3.1920	0	34.3350	0	27.343	0	927.861	0	-1e10	8	-1e10	8	-1E+10	1	-1E+10	1	-1E+10	1	-1E+10	1	-1E+10	1	-1E+10	1
4902554	81	C	05/05/2023	17:53	-132.746	47.685	0	943.10	0	3.1840	0	34.3370	0	27.345	0	933.093	0	-1e10	8	-1e10	8	-1E+10	1	-1E+10	1	-1E+10	1	-1E+10	1	-1E+10	1	-1E+10	1
4902554	81	C	05/05/2023	17:53	-132.746	47.685	0	947.80	0	3.1700	0	34.3400	0	27.349	0	937.733	0	-1e10	8	-1e10	8	-1E+10	1	-1E+10	1	-1E+10	1	-1E+10	1	-1E+10	1	-1E+10	1
4902554	81	C	05/05/2023	17:53	-132.746	47.685	0	952.70	0	3.1680	0	34.3410	0	27.350	0	942.570	0	-1e10	8	-1e10	8	-1E+10	1	-1E+10	1	-1E+10	1	-1E+10	1	-1E+10	1	-1E+10	1
4902554	81	C	05/05/2023	17:53	-132.746	47.685	0	958.00	0	3.1620	0	34.3420	0	27.351	0	947.801	0	-1e10	8	-1e10	8	-1E+10	1	-1E+10	1	-1E+10	1	-1E+10	1	-1E+10	1	-1E+10	1
4902554	81	C	05/05/2023	17:53	-132.746	47.685	0	962.90	0	3.1520	0	34.3440	0	27.354	0	952.638	0	-1e10	8	-1e10	8	-1E+10	1	-1E+10	1	-1E+10	1	-1E+10	1	-1E+10	1	-1E+10	1
4902554	81	C	05/05/2023	17:53	-132.746	47.685	0	967.90	0	3.1450	0	34.3470	0	27.357	0	957.573	0	-1e10	8	-1e10	8	-1E+10	1	-1E+10	1	-1E+10	1	-1E+10	1	-1E+10	1	-1E+10	1
4902554	81	C	05/05/2023	17:53	-132.746	47.685	0	972.90	0	3.1360	0	34.3480	0	27.358	0	962.509	0	-1e10	8	-1e10	8	-1E+10	1	-1E+10	1	-1E+10	1	-1E+10	1	-1E+10	1	-1E+10	1
4902554	81	C	05/05/2023	17:53	-132.746	47.685	0	977.90	0	3.1250	0	34.3510	0	27.362	0	967.444	0	-1e10	8	-1e10	8	-1E+10	1	-1E+10	1	-1E+10	1	-1E+10	1	-1E+10	1	-1E+10	1
4902554	81	C	05/05/2023	17:53	-132.746	47.685	0	983.00	0	3.1080	0	34.3540	0	27.366	0	972.477	0	-1e10	8	-1e10	8	-1E+10	1	-1E+10	1	-1E+10	1	-1E+10	1	-1E+10	1	-1E+10	1
4902554	81	C	05/05/2023	17:53	-132.746	47.685	0	987.60	0	3.0940	0	34.3590	0	27.371	0	977.017	0	-1e10	8	-1e10	8	-1E+10	1	-1E+10	1	-1E+10	1	-1E+10	1	-1E+10	1	-1E+10	1
4902554	81	C	05/05/2023	17:53	-132.746	47.685	0	992.80	0	3.0870	0	34.3600	0	27.372	0	982.149	0	-1e10	8	-1e10	8	-1E+10	1	-1E+10	1	-1E+10	1	-1E+10	1	-1E+10	1	-1E+10	1
4902554	81	C	05/05/2023	17:53	-132.746	47.685	0	997.90	0	3.0790	0	34.3620	0	27.375	0	987.183	0	-1e10	8	-1e10	8	-1E+10	1	-1E+10	1	-1E+10	1	-1E+10	1	-1E+10	1	-1E+10	1
4902554	81	C	05/05/2023	17:53	-132.746	47.685	0	1005.40	0	3.0670	0	34.3650	0	27.378	0	994.584	0	-1e10	8	-1e10	8	-1E+10	1	-1E+10	1	-1E+10	1	-1E+10	1	-1E+10	1	-1E+10	1
4902554	81	C	05/05/2023	17:53	-132.746	47.685	0	1015.30	0	3.0560	0	34.3670	0	27.381	0	1004.354	0	-1e10	8	-1e10	8	-1E+10	1	-1E+10	1	-1E+10	1	-1E+10	1	-1E+10	1	-1E+10	1
4902554	81	C	05/05/2023	17:53	-132.746	47.685	0	1025.10	0	3.0400	0	34.3720	0	27.387	0	1014.025	0	-1e10	8	-1e10	8	-1E+10	1	-1E+10	1	-1E+10	1	-1E+10	1	-1E+10	1	-1E+10	1
4902554	81	C	05/05/2023	17:53	-132.746	47.685	0	1035.20	0	3.0240	0	34.3760	0	27.391	0	1023.991	0	-1e10	8	-1e10	8	-1E+10	1	-1E+10	1	-1E+10	1	-1E+10	1	-1E+10	1	-1E+10	1
4902554	81	C	05/05/2023	17:53	-132.746	47.685	0	1045.30	0	3.0070	0	34.3820	0	27.398	0	1033.957	0	-1e10	8	-1e10	8	-1E+10	1	-1E+10	1	-1E+10	1	-1E+10	1	-1E+10	1	-1E+10	1
4902554	81	C	05/05/2023	17:53	-132.746	47.685	0	1055.60	0	2.9870	0	34.3870	0	27.403	0	1044.119	0	-1e10	8	-1e10	8	-1E+10	1	-1E+10	1	-1E+10	1	-1E+10	1	-1E+10	1	-1E+10	1
4902554	81	C	05/05/2023	17:53	-132.746	47.685	0	1065.50	0	2.9670	0	34.3900	0	27.408	0	1053.887	0	-1e10	8	-1e10	8	-1E+10	1	-1E+10	1	-1E+10	1	-1E+10	1	-1E+10	1	-1E+10	1
4902554	81	C	05/05/2023	17:53	-132.746	47.685	0	1075.20	0	2.9560	0	34.3930	0	27.411	0	1063.456	0	-1e10	8	-1e10	8	-1E+10	1	-1E+10	1	-1E+10	1	-1E+10	1	-1E+10	1	-1E+10	1
4902554	81	C	05/05/2023	17:53	-132.746	47.685	0	1085.10	0	2.9450	0	34.3960	0	27.415	0	1073.223	0	-1e10	8	-1e10	8	-1E+10	1	-1E+10	1	-1E+10	1	-1E+10	1	-1E+10	1	-1E+10	1
4902554	81	C	05/05/2023	17:53	-132.746	47.685	0	1095.40	0	2.9370	0	34.3980	0	27.417	0	1083.384	0	-1e10	8	-1e10	8	-1E+10	1	-1E+10	1	-1E+10	1	-1E+10	1	-1E+10	1	-1E+10	1
4902554	81	C	05/05/2023	17:53	-132.746	47.685	0	1105.50	0	2.9210	0	34.4000	0	27.420	0	1093.347	0	-1e10	8	-1e10	8	-1E+10	1	-1E+10	1	-1E+10	1	-1E+10	1	-1E+10	1	-1E+10	1
4902554	81	C	05/05/2023	17:53	-132.746	47.685	0	1115.60	0	2.9000	0	34.4030	0	27.424	0	1103.309	0	-1e10	8	-1e10	8	-1E+10	1	-1E+10	1	-1E+10	1	-1E+10	1	-1E+10	1	-1E+10	1
4902554	81	C	05/05/2023	17:53	-132.746	47.685	0	1125.80	0	2.8850	0	34.4060	0	27.428	0	1113.370	0	-1e10	8	-1e10	8	-1E+10	1	-1E+10	1	-1E+10	1	-1E+10	1	-1E+10	1	-1E+10	1
4902554	81	C	05/05/2023	17:53	-132.746	47.685	0	1135.50	0	2.8810	0	34.4100	0	27.432	0	1122.937	0	-1e10	8	-1e10	8	-1E+10	1	-1E+10	1	-1E+10	1	-1E+10	1	-1E+10	1	-1E+10	1
4902554	81	C	05/05/2023	17:53	-132.746	47.685	0	1145.50	0	2.8680	0	34.4140	0	27.436	0	1132.799	0	-1e10	8	-1e10	8	-1E+10	1	-1E+10	1	-1E+10	1	-1E+10	1	-1E+10	1	-1E+10	1
4902554	81	C	05/05/2023	17:53	-132.746	47.685	0	1155.60	0	2.8580	0	34.4160	0	27.439	0	1142.760	0	-1e10	8	-1e10	8	-1E+10	1	-1E+10	1	-1E+10	1	-1E+10	1	-1E+10	1	-1E+10	1
4902554	81	C	05/05/2023	17:53	-132.746	47.685	0	1165.60	0	2.8470	0	34.4190	0	27.442	0	1152.621	0	-1e10	8	-1e10	8	-1E+10	1	-1E+10	1	-1E+10	1	-1E+10	1	-1E+10	1	-1E+10	1
4902554	81	C	05/05/2023	17:53	-132.746	47.685	0	1175.30	0	2.8360	0	34.4210	0	27.445	0	1162.186	0	-1e10	8	-1e10	8	-1E+10	1	-1E+10	1	-1E+10	1	-1E+10	1	-1E+10	1	-1E+10	1
4902554	81	C	05/05/2023	17:53	-132.746	47.685	0	1185.00	0	2.8130	0	34.4230	0	27.448	0	1171.751	0	-1e10	8	-1e10	8	-1E+10	1	-1E+10	1	-1E+10	1	-1E+10	1	-1E+10	1	-1E+10	1
4902554	81	C	05/05/2023	17:53	-132.746	47.685	0	1195.30	0	2.8030	0	34.4250	0	27.451	0	1181.907	0	-1e10	8	-1e10	8	-1E+10	1	-1E+10	1	-1E+10	1	-1E+10	1	-1E+10	1	-1E+10	1
4902554	81	C	05/05/2023	17:53	-132.746	47.685	0	1205.30	0	2.7960	0	34.4280	0	27.454	0	1191.767	0	-1e10	8	-1e10	8	-1E+10	1	-1E+10	1	-1E+10	1	-1E+10	1	-1E+10	1	-1E+10	1
4902554	81	C	05/05/2023	17:53	-132.746	47.685	0	1215.30	0	2.7830	0	34.4310	0	27.458	0	1201.626	0	-1e10	8	-1e10	8	-1E+10	1	-1E+10	1	-1E+10	1	-1E+10	1	-1E+10	1	-1E+10	1
4902554	81	C	05/05/2023	17:53	-132.746	47.685	0	1225.70	0	2.7580	0	34.4360	0	27.464	0	1211.879	0	-1e10	8	-1e10	8	-1E+10	1	-1E+10	1	-1E+10	1	-1E+10	1	-1E+10	1	-1E+10	1
4902554	81	C	05/05/2023	17:53	-132.746	47.685	0	1235.40	0	2.7390	0	34.4400	0	27.469	0	1221.441	0	-1e10	8	-1e10	8	-1E+10	1	-1E+10	1	-1E+10	1	-1E+10	1	-1E+10	1	-1E+10	1
4902554	81	C	05/05/2023	17:53	-132.746	47.685	0	1245.30	0	2.7210	0	34.4440	0	27.474	0	1231.200	0	-1e10	8	-1e10	8	-1E+10	1	-1E+10	1	-1E+10	1	-1E+10	1	-1E+10	1	-1E+10	1
4902554	81	C	05/05/2023	17:53	-132.746	47.685	0	1255.20	0	2.7070	0	34.4460	0	27.476	0	1240.959	0	-1e10	8	-1e10	8	-1E+10	1	-1E+10	1	-1E+10	1	-1E+10	1	-1E+10	1	-1E+10	1
4902554	81	C	05/05/2023	17:53	-132.746	47.685	0	1265.40	0	2.6980	0	34.4480	0	27.479	0	1251.013	0	-1e10	8	-1e10	8	-1E+10	1	-1E+10	1	-1E+10	1	-1E+10	1	-1E+10	1	-1E+10	1
4902554	81	C	05/05/2023	17:53	-132.746	47.685	0	1275.40	0	2.6760	0	34.4530	0	27.485	0	1260.870	0	-1e10	8	-1e10	8	-1E+10	1	-1E+10	1	-1E+10	1	-1E+10	1	-1E+10	1	-1E+10	1
4902554	81	C	05/05/2023	17:53	-132.746	47.685	0	1285.60	0	2.6600	0	34.4560	0	27.489	0	1270.923	0	-1e10	8	-1e10	8	-1E+10	1	-1E+10	1	-1E+10	1	-1E+10	1	-1E+10	1	-1E+10	1
4902554	81	C	05/05/2023	17:53	-132.746	47.685	0	1295.40	0	2.6440	0	34.4590	0	27.493	0	1280.581	0	-1e10	8	-1e10	8	-1E+10	1	-1E+10	1	-1E+10	1	-1E+10	1	-1E+10	1	-1E+10	1
4902554	81	C	05/05/2023	17:53	-132.746	47.685	0	1305.40	0	2.6280	0	34.4610	0	27.496	0	1290.436	0	-1e10	8	-1e10	8	-1E+10	1	-1E+10	1	-1E+10	1	-1E+10	1	-1E+10	1	-1E+10	1
4902554	81	C	05/05/2023	17:53	-132.746	47.685	0	1315.60	0	2.6150	0	34.4630	0	27.498	0	1300.487	0	-1e10	8	-1e10	8	-1E+10	1	-1E+10	1	-1E+10	1	-1E+10	1	-1E+10	1	-1E+10	1
4902554	81	C	05/05/2023	17:53	-132.746	47.685	0	1325.40	0	2.5920	0	34.4670	0	27.503	0	1310.144	0	-1e10	8	-1e10	8	-1E+10	1	-1E+10	1	-1E+10	1	-1E+10	1	-1E+10	1	-1E+10	1
4902554	81	C	05/05/2023	17:53	-132.746	47.685	0	1335.20	0	2.5750	0	34.4710	0	27.508	0	1319.801	0	-1e10	8	-1e10	8	-1E+10	1	-1E+10	1	-1E+10	1	-1E+10	1	-1E+10	1	-1E+10	1
4902554	81	C	05/05/2023	17:53	-132.746	47.685	0	1345.30	0	2.5600	0	34.4740	0	27.512	0	1329.753	0	-1e10	8	-1e10	8	-1E+10	1	-1E+10	1	-1E+10	1	-1E+10	1	-1E+10	1	-1E+10	1
4902554	81	C	05/05/2023	17:53	-132.746	47.685	0	1355.30	0	2.5500	0	34.4760	0	27.514	0	1339.605	0	-1e10	8	-1e10	8	-1E+10	1	-1E+10	1	-1E+10	1	-1E+10	1	-1E+10	1	-1E+10	1
4902554	81	C	05/05/2023	17:53	-132.746	47.685	0	1365.10	0	2.5420	0	34.4780	0	27.517	0	1349.260	0	-1e10	8	-1e10	8	-1E+10	1	-1E+10	1	-1E+10	1	-1E+10	1	-1E+10	1	-1E+10	1
4902554	81	C	05/05/2023	17:53	-132.746	47.685	0	1375.20	0	2.5300	0	34.4800	0	27.519	0	1359.211	0	-1e10	8	-1e10	8	-1E+10	1	-1E+10	1	-1E+10	1	-1E+10	1	-1E+10	1	-1E+10	1
4902554	81	C	05/05/2023	17:53	-132.746	47.685	0	1385.30	0	2.5120	0	34.4830	0	27.523	0	1369.161	0	-1e10	8	-1e10	8	-1E+10	1	-1E+10	1	-1E+10	1	-1E+10	1	-1E+10	1	-1E+10	1
4902554	81	C	05/05/2023	17:53	-132.746	47.685	0	1395.70	0	2.5010	0	34.4860	0	27.527	0	1379.405	0	-1e10	8	-1e10	8	-1E+10	1	-1E+10	1	-1E+10	1	-1E+10	1	-1E+10	1	-1E+10	1
4902554	81	C	05/05/2023	17:53	-132.746	47.685	0	1405.60	0	2.4910	0	34.4870	0	27.528	0	1389.157	0	-1e10	8	-1e10	8	-1E+10	1	-1E+10	1	-1E+10	1	-1E+10	1	-1E+10	1	-1E+10	1
4902554	81	C	05/05/2023	17:53	-132.746	47.685	0	1415.50	0	2.4850	0	34.4880	0	27.530	0	1398.909	0	-1e10	8	-1e10	8	-1E+10	1	-1E+10	1	-1E+10	1	-1E+10	1	-1E+10	1	-1E+10	1
4902554	81	C	05/05/2023	17:53	-132.746	47.685	0	1425.30	0	2.4760	0	34.4900	0	27.532	0	1408.561	0	-1e10	8	-1e10	8	-1E+10	1	-1E+10	1	-1E+10	1	-1E+10	1	-1E+10	1	-1E+10	1
4902554	81	C	05/05/2023	17:53	-132.746	47.685	0	1435.30	0	2.4650	0	34.4920	0	27.535	0	1418.410	0	-1e10	8	-1e10	8	-1E+10	1	-1E+10	1	-1E+10	1	-1E+10	1	-1E+10	1	-1E+10	1
4902554	81	C	05/05/2023	17:53	-132.746	47.685	0	1445.30	0	2.4610	0	34.4920	0	27.535	0	1428.259	0	-1e10	8	-1e10	8	-1E+10	1	-1E+10	1	-1E+10	1	-1E+10	1	-1E+10	1	-1E+10	1
4902554	81	C	05/05/2023	17:53	-132.746	47.685	0	1455.20	0	2.4440	0	34.4940	0	27.538	0	1438.008	0	-1e10	8	-1e10	8	-1E+10	1	-1E+10	1	-1E+10	1	-1E+10	1	-1E+10	1	-1E+10	1
4902554	81	C	05/05/2023	17:53	-132.746	47.685	0	1465.50	0	2.4320	0	34.4960	0	27.541	0	1448.151	0	-1e10	8	-1e10	8	-1E+10	1	-1E+10	1	-1E+10	1	-1E+10	1	-1E+10	1	-1E+10	1
4902554	81	C	05/05/2023	17:53	-132.746	47.685	0	1475.80	0	2.4200	0	34.4990	0	27.544	0	1458.294	0	-1e10	8	-1e10	8	-1E+10	1	-1E+10	1	-1E+10	1	-1E+10	1	-1E+10	1	-1E+10	1
4902554	81	C	05/05/2023	17:53	-132.746	47.685	0	1485.40	0	2.4050	0	34.5010	0	27.547	0	1467.747	0	-1e10	8	-1e10	8	-1E+10	1	-1E+10	1	-1E+10	1	-1E+10	1	-1E+10	1	-1E+10	1
4902554	81	C	05/05/2023	17:53	-132.746	47.685	0	1495.50	0	2.3910	0	34.5030	0	27.550	0	1477.691	0	-1e10	8	-1e10	8	-1E+10	1	-1E+10	1	-1E+10	1	-1E+10	1	-1E+10	1	-1E+10	1
4902554	81	C	05/05/2023	17:53	-132.746	47.685	0	1505.40	0	2.3730	0	34.5060	0	27.554	0	1487.439	0	-1e10	8	-1e10	8	-1E+10	1	-1E+10	1	-1E+10	1	-1E+10	1	-1E+10	1	-1E+10	1
4902554	81	C	05/05/2023	17:53	-132.746	47.685	0	1515.20	0	2.3620	0	34.5080	0	27.557	0	1497.087	0	-1e10	8	-1e10	8	-1E+10	1	-1E+10	1	-1E+10	1	-1E+10	1	-1E+10	1	-1E+10	1
4902554	81	C	05/05/2023	17:53	-132.746	47.685	0	1525.30	0	2.3540	0	34.5100	0	27.559	0	1507.030	0	-1e10	8	-1e10	8	-1E+10	1	-1E+10	1	-1E+10	1	-1E+10	1	-1E+10	1	-1E+10	1
4902554	81	C	05/05/2023	17:53	-132.746	47.685	0	1535.40	0	2.3390	0	34.5120	0	27.562	0	1516.973	0	-1e10	8	-1e10	8	-1E+10	1	-1E+10	1	-1E+10	1	-1E+10	1	-1E+10	1	-1E+10	1
4902554	81	C	05/05/2023	17:53	-132.746	47.685	0	1545.60	0	2.3260	0	34.5140	0	27.564	0	1527.014	0	-1e10	8	-1e10	8	-1E+10	1	-1E+10	1	-1E+10	1	-1E+10	1	-1E+10	1	-1E+10	1
4902554	81	C	05/05/2023	17:53	-132.746	47.685	0	1555.70	0	2.3120	0	34.5170	0	27.568	0	1536.956	0	-1e10	8	-1e10	8	-1E+10	1	-1E+10	1	-1E+10	1	-1E+10	1	-1E+10	1	-1E+10	1
4902554	81	C	05/05/2023	17:53	-132.746	47.685	0	1565.80	0	2.2900	0	34.5210	0	27.573	0	1546.897	0	-1e10	8	-1e10	8	-1E+10	1	-1E+10	1	-1E+10	1	-1E+10	1	-1E+10	1	-1E+10	1
4902554	81	C	05/05/2023	17:53	-132.746	47.685	0	1575.90	0	2.2770	0	34.5230	0	27.576	0	1556.838	0	-1e10	8	-1e10	8	-1E+10	1	-1E+10	1	-1E+10	1	-1E+10	1	-1E+10	1	-1E+10	1
4902554	81	C	05/05/2023	17:53	-132.746	47.685	0	1585.60	0	2.2610	0	34.5250	0	27.579	0	1566.385	0	-1e10	8	-1e10	8	-1E+10	1	-1E+10	1	-1E+10	1	-1E+10	1	-1E+10	1	-1E+10	1
4902554	81	C	05/05/2023	17:53	-132.746	47.685	0	1595.40	0	2.2470	0	34.5280	0	27.582	0	1576.030	0	-1e10	8	-1e10	8	-1E+10	1	-1E+10	1	-1E+10	1	-1E+10	1	-1E+10	1	-1E+10	1
4902554	81	C	05/05/2023	17:53	-132.746	47.685	0	1605.50	0	2.2310	0	34.5320	0	27.587	0	1585.969	0	-1e10	8	-1e10	8	-1E+10	1	-1E+10	1	-1E+10	1	-1E+10	1	-1E+10	1	-1E+10	1
4902554	81	C	05/05/2023	17:53	-132.746	47.685	0	1615.60	0	2.2130	0	34.5350	0	27.591	0	1595.908	0	-1e10	8	-1e10	8	-1E+10	1	-1E+10	1	-1E+10	1	-1E+10	1	-1E+10	1	-1E+10	1
4902554	81	C	05/05/2023	17:53	-132.746	47.685	0	1625.50	0	2.1970	0	34.5370	0	27.594	0	1605.650	0	-1e10	8	-1e10	8	-1E+10	1	-1E+10	1	-1E+10	1	-1E+10	1	-1E+10	1	-1E+10	1
4902554	81	C	05/05/2023	17:53	-132.746	47.685	0	1635.20	0	2.1820	0	34.5390	0	27.597	0	1615.195	0	-1e10	8	-1e10	8	-1E+10	1	-1E+10	1	-1E+10	1	-1E+10	1	-1E+10	1	-1E+10	1
4902554	81	C	05/05/2023	17:53	-132.746	47.685	0	1645.20	0	2.1750	0	34.5410	0	27.599	0	1625.034	0	-1e10	8	-1e10	8	-1E+10	1	-1E+10	1	-1E+10	1	-1E+10	1	-1E+10	1	-1E+10	1
4902554	81	C	05/05/2023	17:53	-132.746	47.685	0	1655.20	0	2.1720	0	34.5420	0	27.600	0	1634.873	0	-1e10	8	-1e10	8	-1E+10	1	-1E+10	1	-1E+10	1	-1E+10	1	-1E+10	1	-1E+10	1
4902554	81	C	05/05/2023	17:53	-132.746	47.685	0	1665.00	0	2.1640	0	34.5430	0	27.601	0	1644.514	0	-1e10	8	-1e10	8	-1E+10	1	-1E+10	1	-1E+10	1	-1E+10	1	-1E+10	1	-1E+10	1
4902554	81	C	05/05/2023	17:53	-132.746	47.685	0	1675.60	0	2.1540	0	34.5450	0	27.604	0	1654.943	0	-1e10	8	-1e10	8	-1E+10	1	-1E+10	1	-1E+10	1	-1E+10	1	-1E+10	1	-1E+10	1
4902554	81	C	05/05/2023	17:53	-132.746	47.685	0	1685.40	0	2.1480	0	34.5470	0	27.606	0	1664.583	0	-1e10	8	-1e10	8	-1E+10	1	-1E+10	1	-1E+10	1	-1E+10	1	-1E+10	1	-1E+10	1
4902554	81	C	05/05/2023	17:53	-132.746	47.685	0	1695.20	0	2.1430	0	34.5480	0	27.607	0	1674.224	0	-1e10	8	-1e10	8	-1E+10	1	-1E+10	1	-1E+10	1	-1E+10	1	-1E+10	1	-1E+10	1
4902554	81	C	05/05/2023	17:53	-132.746	47.685	0	1705.30	0	2.1340	0	34.5490	0	27.609	0	1684.159	0	-1e10	8	-1e10	8	-1E+10	1	-1E+10	1	-1E+10	1	-1E+10	1	-1E+10	1	-1E+10	1
4902554	81	C	05/05/2023	17:53	-132.746	47.685	0	1715.60	0	2.1220	0	34.5510	0	27.611	0	1694.290	0	-1e10	8	-1e10	8	-1E+10	1	-1E+10	1	-1E+10	1	-1E+10	1	-1E+10	1	-1E+10	1
4902554	81	C	05/05/2023	17:53	-132.746	47.685	0	1725.50	0	2.1130	0	34.5530	0	27.614	0	1704.027	0	-1e10	8	-1e10	8	-1E+10	1	-1E+10	1	-1E+10	1	-1E+10	1	-1E+10	1	-1E+10	1
4902554	81	C	05/05/2023	17:53	-132.746	47.685	0	1735.20	0	2.1070	0	34.5550	0	27.616	0	1713.567	0	-1e10	8	-1e10	8	-1E+10	1	-1E+10	1	-1E+10	1	-1E+10	1	-1E+10	1	-1E+10	1
4902554	81	C	05/05/2023	17:53	-132.746	47.685	0	1745.10	0	2.1010	0	34.5560	0	27.617	0	1723.304	0	-1e10	8	-1e10	8	-1E+10	1	-1E+10	1	-1E+10	1	-1E+10	1	-1E+10	1	-1E+10	1
4902554	81	C	05/05/2023	17:53	-132.746	47.685	0	1755.30	0	2.0960	0	34.5570	0	27.618	0	1733.335	0	-1e10	8	-1e10	8	-1E+10	1	-1E+10	1	-1E+10	1	-1E+10	1	-1E+10	1	-1E+10	1
4902554	81	C	05/05/2023	17:53	-132.746	47.685	0	1765.50	0	2.0880	0	34.5590	0	27.621	0	1743.365	0	-1e10	8	-1e10	8	-1E+10	1	-1E+10	1	-1E+10	1	-1E+10	1	-1E+10	1	-1E+10	1
4902554	81	C	05/05/2023	17:53	-132.746	47.685	0	1775.40	0	2.0760	0	34.5610	0	27.623	0	1753.100	0	-1e10	8	-1e10	8	-1E+10	1	-1E+10	1	-1E+10	1	-1E+10	1	-1E+10	1	-1E+10	1
4902554	81	C	05/05/2023	17:53	-132.746	47.685	0	1785.40	0	2.0700	0	34.5620	0	27.625	0	1762.933	0	-1e10	8	-1e10	8	-1E+10	1	-1E+10	1	-1E+10	1	-1E+10	1	-1E+10	1	-1E+10	1
4902554	81	C	05/05/2023	17:53	-132.746	47.685	0	1795.80	0	2.0600	0	34.5640	0	27.627	0	1773.159	0	-1e10	8	-1e10	8	-1E+10	1	-1E+10	1	-1E+10	1	-1E+10	1	-1E+10	1	-1E+10	1
4902554	81	C	05/05/2023	17:53	-132.746	47.685	0	1805.40	0	2.0540	0	34.5650	0	27.628	0	1782.598	0	-1e10	8	-1e10	8	-1E+10	1	-1E+10	1	-1E+10	1	-1E+10	1	-1E+10	1	-1E+10	1
4902554	81	C	05/05/2023	17:53	-132.746	47.685	0	1815.40	0	2.0490	0	34.5660	0	27.630	0	1792.429	0	-1e10	8	-1e10	8	-1E+10	1	-1E+10	1	-1E+10	1	-1E+10	1	-1E+10	1	-1E+10	1
4902554	81	C	05/05/2023	17:53	-132.746	47.685	0	1825.30	0	2.0380	0	34.5690	0	27.633	0	1802.162	0	-1e10	8	-1e10	8	-1E+10	1	-1E+10	1	-1E+10	1	-1E+10	1	-1E+10	1	-1E+10	1
4902554	81	C	05/05/2023	17:53	-132.746	47.685	0	1835.70	0	2.0280	0	34.5700	0	27.635	0	1812.386	0	-1e10	8	-1e10	8	-1E+10	1	-1E+10	1	-1E+10	1	-1E+10	1	-1E+10	1	-1E+10	1
4902554	81	C	05/05/2023	17:53	-132.746	47.685	0	1845.50	0	2.0140	0	34.5730	0	27.638	0	1822.019	0	-1e10	8	-1e10	8	-1E+10	1	-1E+10	1	-1E+10	1	-1E+10	1	-1E+10	1	-1E+10	1
4902554	81	C	05/05/2023	17:53	-132.746	47.685	0	1855.20	0	2.0090	0	34.5740	0	27.639	0	1831.554	0	-1e10	8	-1e10	8	-1E+10	1	-1E+10	1	-1E+10	1	-1E+10	1	-1E+10	1	-1E+10	1
4902554	81	C	05/05/2023	17:53	-132.746	47.685	0	1865.00	0	2.0060	0	34.5750	0	27.641	0	1841.187	0	-1e10	8	-1e10	8	-1E+10	1	-1E+10	1	-1E+10	1	-1E+10	1	-1E+10	1	-1E+10	1
4902554	81	C	05/05/2023	17:53	-132.746	47.685	0	1875.40	0	1.9980	0	34.5760	0	27.642	0	1851.409	0	-1e10	8	-1e10	8	-1E+10	1	-1E+10	1	-1E+10	1	-1E+10	1	-1E+10	1	-1E+10	1
4902554	81	C	05/05/2023	17:53	-132.746	47.685	0	1885.40	0	1.9910	0	34.5770	0	27.643	0	1861.237	0	-1e10	8	-1e10	8	-1E+10	1	-1E+10	1	-1E+10	1	-1E+10	1	-1E+10	1	-1E+10	1
4902554	81	C	05/05/2023	17:53	-132.746	47.685	0	1895.30	0	1.9870	0	34.5780	0	27.645	0	1870.967	0	-1e10	8	-1e10	8	-1E+10	1	-1E+10	1	-1E+10	1	-1E+10	1	-1E+10	1	-1E+10	1
4902554	81	C	05/05/2023	17:53	-132.746	47.685	0	1905.50	0	1.9810	0	34.5800	0	27.647	0	1880.991	0	-1e10	8	-1e10	8	-1E+10	1	-1E+10	1	-1E+10	1	-1E+10	1	-1E+10	1	-1E+10	1
4902554	81	C	05/05/2023	17:53	-132.746	47.685	0	1915.40	0	1.9690	0	34.5820	0	27.649	0	1890.719	0	-1e10	8	-1e10	8	-1E+10	1	-1E+10	1	-1E+10	1	-1E+10	1	-1E+10	1	-1E+10	1
4902554	81	C	05/05/2023	17:53	-132.746	47.685	0	1925.60	0	1.9640	0	34.5840	0	27.651	0	1900.742	0	-1e10	8	-1e10	8	-1E+10	1	-1E+10	1	-1E+10	1	-1E+10	1	-1E+10	1	-1E+10	1
4902554	81	C	05/05/2023	17:53	-132.746	47.685	0	1935.80	0	1.9600	0	34.5840	0	27.652	0	1910.765	0	-1e10	8	-1e10	8	-1E+10	1	-1E+10	1	-1E+10	1	-1E+10	1	-1E+10	1	-1E+10	1
4902554	81	C	05/05/2023	17:53	-132.746	47.685	0	1945.80	0	1.9550	0	34.5850	0	27.653	0	1920.591	0	-1e10	8	-1e10	8	-1E+10	1	-1E+10	1	-1E+10	1	-1E+10	1	-1E+10	1	-1E+10	1
4902554	81	C	05/05/2023	17:53	-132.746	47.685	0	1955.70	0	1.9530	0	34.5860	0	27.654	0	1930.317	0	-1e10	8	-1e10	8	-1E+10	1	-1E+10	1	-1E+10	1	-1E+10	1	-1E+10	1	-1E+10	1
4902554	81	C	05/05/2023	17:53	-132.746	47.685	0	1965.30	0	1.9480	0	34.5870	0	27.655	0	1939.749	0	-1e10	8	-1e10	8	-1E+10	1	-1E+10	1	-1E+10	1	-1E+10	1	-1E+10	1	-1E+10	1
4902554	81	C	05/05/2023	17:53	-132.746	47.685	0	1974.90	0	1.9430	0	34.5880	0	27.656	0	1949.181	0	-1e10	8	-1e10	8	-1E+10	1	-1E+10	1	-1E+10	1	-1E+10	1	-1E+10	1	-1E+10	1
4902554	81	C	05/05/2023	17:53	-132.746	47.685	0																										
4902554	82	C	05/15/2023	22:59	-132.781	47.702	0	0.30	0	9.5880	8	32.2740	8	24.892	0	0.297	0	-1e10	8	-1e10	8	-1E+10	1	-1E+10	1	-1E+10	1	-1E+10	1	-1E+10	1	-1E+10	1
4902554	82	C	05/15/2023	22:59	-132.781	47.702	0	1.10	0	9.5760	8	32.2150	8	24.848	0	1.091	0	-1e10	8	-1e10	8	-1E+10	1	-1E+10	1	-1E+10	1	-1E+10	1	-1E+10	1	-1E+10	1
4902554	82	C	05/15/2023	22:59	-132.781	47.702	0	2.00	0	9.5500	0	32.1850	0	24.828	0	1.983	0	-1e10	8	-1e10	8	-1E+10	1	-1E+10	1	-1E+10	1	-1E+10	1	-1E+10	1	-1E+10	1
4902554	82	C	05/15/2023	22:59	-132.781	47.702	0	3.10	0	9.4960	0	32.1580	0	24.816	0	3.074	0	-1e10	8	-1e10	8	-1E+10	1	-1E+10	1	-1E+10	1	-1E+10	1	-1E+10	1	-1E+10	1
4902554	82	C	05/15/2023	22:59	-132.781	47.702	0	4.00	0	9.3860	0	32.2460	0	24.902	0	3.967	0	-1e10	8	-1e10	8	-1E+10	1	-1E+10	1	-1E+10	1	-1E+10	1	-1E+10	1	-1E+10	1
4902554	82	C	05/15/2023	22:59	-132.781	47.702	0	5.00	0	9.2970	0	32.3210	0	24.975	0	4.958	0	-1e10	8	-1e10	8	-1E+10	1	-1E+10	1	-1E+10	1	-1E+10	1	-1E+10	1	-1E+10	1
4902554	82	C	05/15/2023	22:59	-132.781	47.702	0	6.20	0	9.2170	0	32.3220	0	24.988	0	6.148	0	-1e10	8	-1e10	8	-1E+10	1	-1E+10	1	-1E+10	1	-1E+10	1	-1E+10	1	-1E+10	1
4902554	82	C	05/15/2023	22:59	-132.781	47.702	0	6.90	0	9.2020	0	32.3220	0	24.991	0	6.842	0	-1e10	8	-1e10	8	-1E+10	1	-1E+10	1	-1E+10	1	-1E+10	1	-1E+10	1	-1E+10	1
4902554	82	C	05/15/2023	22:59	-132.781	47.702	0	8.10	0	9.1850	0	32.3240	0	24.995	0	8.032	0	-1e10	8	-1e10	8	-1E+10	1	-1E+10	1	-1E+10	1	-1E+10	1	-1E+10	1	-1E+10	1
4902554	82	C	05/15/2023	22:59	-132.781	47.702	0	8.80	0	9.1730	0	32.3230	0	24.996	0	8.726	0	-1e10	8	-1e10	8	-1E+10	1	-1E+10	1	-1E+10	1	-1E+10	1	-1E+10	1	-1E+10	1
4902554	82	C	05/15/2023	22:59	-132.781	47.702	0	10.00	0	9.1560	0	32.3240	0	24.999	0	9.916	0	-1e10	8	-1e10	8	-1E+10	1	-1E+10	1	-1E+10	1	-1E+10	1	-1E+10	1	-1E+10	1
4902554	82	C	05/15/2023	22:59	-132.781	47.702	0	11.30	0	9.1380	0	32.3250	0	25.003	0	11.205	0	-1e10	8	-1e10	8	-1E+10	1	-1E+10	1	-1E+10	1	-1E+10	1	-1E+10	1	-1E+10	1
4902554	82	C	05/15/2023	22:59	-132.781	47.702	0	11.90	0	9.1230	0	32.3250	0	25.005	0	11.800	0	-1e10	8	-1e10	8	-1E+10	1	-1E+10	1	-1E+10	1	-1E+10	1	-1E+10	1	-1E+10	1
4902554	82	C	05/15/2023	22:59	-132.781	47.702	0	12.80	0	9.1080	0	32.3260	0	25.009	0	12.693	0	-1e10	8	-1e10	8	-1E+10	1	-1E+10	1	-1E+10	1	-1E+10	1	-1E+10	1	-1E+10	1
4902554	82	C	05/15/2023	22:59	-132.781	47.702	0	14.00	0	9.0910	0	32.3270	0	25.012	0	13.882	0	-1e10	8	-1e10	8	-1E+10	1	-1E+10	1	-1E+10	1	-1E+10	1	-1E+10	1	-1E+10	1
4902554	82	C	05/15/2023	22:59	-132.781	47.702	0	14.70	0	9.0850	0	32.3270	0	25.013	0	14.577	0	-1e10	8	-1e10	8	-1E+10	1	-1E+10	1	-1E+10	1	-1E+10	1	-1E+10	1	-1E+10	1
4902554	82	C	05/15/2023	22:59	-132.781	47.702	0	15.90	0	9.0790	0	32.3290	0	25.016	0	15.766	0	-1e10	8	-1e10	8	-1E+10	1	-1E+10	1	-1E+10	1	-1E+10	1	-1E+10	1	-1E+10	1
4902554	82	C	05/15/2023	22:59	-132.781	47.702	0	17.10	0	9.0730	0	32.3300	0	25.017	0	16.956	0	-1e10	8	-1e10	8	-1E+10	1	-1E+10	1	-1E+10	1	-1E+10	1	-1E+10	1	-1E+10	1
4902554	82	C	05/15/2023	22:59	-132.781	47.702	0	18.10	0	9.0660	0	32.3300	0	25.018	0	17.948	0	-1e10	8	-1e10	8	-1E+10	1	-1E+10	1	-1E+10	1	-1E+10	1	-1E+10	1	-1E+10	1
4902554	82	C	05/15/2023	22:59	-132.781	47.702	0	19.10	0	9.0560	0	32.3300	0	25.020	0	18.939	0	-1e10	8	-1e10	8	-1E+10	1	-1E+10	1	-1E+10	1	-1E+10	1	-1E+10	1	-1E+10	1
4902554	82	C	05/15/2023	22:59	-132.781	47.702	0	20.10	0	9.0360	0	32.3300	0	25.023	0	19.931	0	-1e10	8	-1e10	8	-1E+10	1	-1E+10	1	-1E+10	1	-1E+10	1	-1E+10	1	-1E+10	1
4902554	82	C	05/15/2023	22:59	-132.781	47.702	0	21.10	0	9.0200	0	32.3320	0	25.027	0	20.922	0	-1e10	8	-1e10	8	-1E+10	1	-1E+10	1	-1E+10	1	-1E+10	1	-1E+10	1	-1E+10	1
4902554	82	C	05/15/2023	22:59	-132.781	47.702	0	22.00	0	8.9960	0	32.3360	0	25.034	0	21.815	0	-1e10	8	-1e10	8	-1E+10	1	-1E+10	1	-1E+10	1	-1E+10	1	-1E+10	1	-1E+10	1
4902554	82	C	05/15/2023	22:59	-132.781	47.702	0	23.00	0	8.9790	0	32.3380	0	25.038	0	22.806	0	-1e10	8	-1e10	8	-1E+10	1	-1E+10	1	-1E+10	1	-1E+10	1	-1E+10	1	-1E+10	1
4902554	82	C	05/15/2023	22:59	-132.781	47.702	0	23.90	0	8.9350	0	32.3410	0	25.047	0	23.699	0	-1e10	8	-1e10	8	-1E+10	1	-1E+10	1	-1E+10	1	-1E+10	1	-1E+10	1	-1E+10	1
4902554	82	C	05/15/2023	22:59	-132.781	47.702	0	24.90	0	8.8660	0	32.3420	0	25.059	0	24.690	0	-1e10	8	-1e10	8	-1E+10	1	-1E+10	1	-1E+10	1	-1E+10	1	-1E+10	1	-1E+10	1
4902554	82	C	05/15/2023	22:59	-132.781	47.702	0	26.00	0	8.8010	0	32.3430	0	25.069	0	25.781	0	-1e10	8	-1e10	8	-1E+10	1	-1E+10	1	-1E+10	1	-1E+10	1	-1E+10	1	-1E+10	1
4902554	82	C	05/15/2023	22:59	-132.781	47.702	0	27.10	0	8.7070	0	32.3400	0	25.081	0	26.872	0	-1e10	8	-1e10	8	-1E+10	1	-1E+10	1	-1E+10	1	-1E+10	1	-1E+10	1	-1E+10	1
4902554	82	C	05/15/2023	22:59	-132.781	47.702	0	28.00	0	8.6620	0	32.3360	0	25.085	0	27.764	0	-1e10	8	-1e10	8	-1E+10	1	-1E+10	1	-1E+10	1	-1E+10	1	-1E+10	1	-1E+10	1
4902554	82	C	05/15/2023	22:59	-132.781	47.702	0	28.80	0	8.6240	0	32.3350	0	25.090	0	28.557	0	-1e10	8	-1e10	8	-1E+10	1	-1E+10	1	-1E+10	1	-1E+10	1	-1E+10	1	-1E+10	1
4902554	82	C	05/15/2023	22:59	-132.781	47.702	0	29.90	0	8.6010	0	32.3330	0	25.092	0	29.648	0	-1e10	8	-1e10	8	-1E+10	1	-1E+10	1	-1E+10	1	-1E+10	1	-1E+10	1	-1E+10	1
4902554	82	C	05/15/2023	22:59	-132.781	47.702	0	31.10	0	8.5910	0	32.3320	0	25.093	0	30.838	0	-1e10	8	-1e10	8	-1E+10	1	-1E+10	1	-1E+10	1	-1E+10	1	-1E+10	1	-1E+10	1
4902554	82	C	05/15/2023	22:59	-132.781	47.702	0	31.90	0	8.5870	0	32.3320	0	25.093	0	31.631	0	-1e10	8	-1e10	8	-1E+10	1	-1E+10	1	-1E+10	1	-1E+10	1	-1E+10	1	-1E+10	1
4902554	82	C	05/15/2023	22:59	-132.781	47.702	0	32.70	0	8.5830	0	32.3320	0	25.094	0	32.424	0	-1e10	8	-1e10	8	-1E+10	1	-1E+10	1	-1E+10	1	-1E+10	1	-1E+10	1	-1E+10	1
4902554	82	C	05/15/2023	22:59	-132.781	47.702	0	33.80	0	8.5700	0	32.3320	0	25.096	0	33.515	0	-1e10	8	-1e10	8	-1E+10	1	-1E+10	1	-1E+10	1	-1E+10	1	-1E+10	1	-1E+10	1
4902554	82	C	05/15/2023	22:59	-132.781	47.702	0	34.90	0	8.5560	0	32.3300	0	25.097	0	34.605	0	-1e10	8	-1e10	8	-1E+10	1	-1E+10	1	-1E+10	1	-1E+10	1	-1E+10	1	-1E+10	1
4902554	82	C	05/15/2023	22:59	-132.781	47.702	0	35.90	0	8.5430	0	32.3300	0	25.098	0	35.597	0	-1e10	8	-1e10	8	-1E+10	1	-1E+10	1	-1E+10	1	-1E+10	1	-1E+10	1	-1E+10	1
4902554	82	C	05/15/2023	22:59	-132.781	47.702	0	37.00	0	8.5340	0	32.3290	0	25.099	0	36.687	0	-1e10	8	-1e10	8	-1E+10	1	-1E+10	1	-1E+10	1	-1E+10	1	-1E+10	1	-1E+10	1
4902554	82	C	05/15/2023	22:59	-132.781	47.702	0	38.00	0	8.5280	0	32.3280	0	25.099	0	37.679	0	-1e10	8	-1e10	8	-1E+10	1	-1E+10	1	-1E+10	1	-1E+10	1	-1E+10	1	-1E+10	1
4902554	82	C	05/15/2023	22:59	-132.781	47.702	0	39.00	0	8.5210	0	32.3280	0	25.100	0	38.670	0	-1e10	8	-1e10	8	-1E+10	1	-1E+10	1	-1E+10	1	-1E+10	1	-1E+10	1	-1E+10	1
4902554	82	C	05/15/2023	22:59	-132.781	47.702	0	40.00	0	8.5200	0	32.3290	0	25.101	0	39.662	0	-1e10	8	-1e10	8	-1E+10	1	-1E+10	1	-1E+10	1	-1E+10	1	-1E+10	1	-1E+10	1
4902554	82	C	05/15/2023	22:59	-132.781	47.702	0	41.10	0	8.5190	0	32.3300	0	25.102	0	40.752	0	-1e10	8	-1e10	8	-1E+10	1	-1E+10	1	-1E+10	1	-1E+10	1	-1E+10	1	-1E+10	1
4902554	82	C	05/15/2023	22:59	-132.781	47.702	0	42.10	0	8.5140	0	32.3310	0	25.104	0	41.744	0	-1e10	8	-1e10	8	-1E+10	1	-1E+10	1	-1E+10	1	-1E+10	1	-1E+10	1	-1E+10	1
4902554	82	C	05/15/2023	22:59	-132.781	47.702	0	43.10	0	8.5010	0	32.3300	0	25.105	0	42.735	0	-1e10	8	-1e10	8	-1E+10	1	-1E+10	1	-1E+10	1	-1E+10	1	-1E+10	1	-1E+10	1
4902554	82	C	05/15/2023	22:59	-132.781	47.702	0	44.10	0	8.4900	0	32.3290	0	25.106	0	43.726	0	-1e10	8	-1e10	8	-1E+10	1	-1E+10	1	-1E+10	1	-1E+10	1	-1E+10	1	-1E+10	1
4902554	82	C	05/15/2023	22:59	-132.781	47.702	0	45.30	0	8.4540	0	32.3300	0	25.112	0	44.916	0	-1e10	8	-1e10	8	-1E+10	1	-1E+10	1	-1E+10	1	-1E+10	1	-1E+10	1	-1E+10	1
4902554	82	C	05/15/2023	22:59	-132.781	47.702	0	46.30	0	8.4260	0	32.3290	0	25.115	0	45.908	0	-1e10	8	-1e10	8	-1E+10	1	-1E+10	1	-1E+10	1	-1E+10	1	-1E+10	1	-1E+10	1
4902554	82	C	05/15/2023	22:59	-132.781	47.702	0	47.00	0	8.3840	0	32.3300	0	25.122	0	46.602	0	-1e10	8	-1e10	8	-1E+10	1	-1E+10	1	-1E+10	1	-1E+10	1	-1E+10	1	-1E+10	1
4902554	82	C	05/15/2023	22:59	-132.781	47.702	0	48.00	0	8.3270	0	32.3310	0	25.132	0	47.593	0	-1e10	8	-1e10	8	-1E+10	1	-1E+10	1	-1E+10	1	-1E+10	1	-1E+10	1	-1E+10	1
4902554	82	C	05/15/2023	22:59	-132.781	47.702	0	48.90	0	8.2840	0	32.3320	0	25.139	0	48.485	0	-1e10	8	-1e10	8	-1E+10	1	-1E+10	1	-1E+10	1	-1E+10	1	-1E+10	1	-1E+10	1
4902554	82	C	05/15/2023	22:59	-132.781	47.702	0	49.90	0	8.2550	0	32.3320	0	25.143	0	49.477	0	-1e10	8	-1e10	8	-1E+10	1	-1E+10	1	-1E+10	1	-1E+10	1	-1E+10	1	-1E+10	1
4902554	82	C	05/15/2023	22:59	-132.781	47.702	0	50.80	0	8.2160	0	32.3320	0	25.149	0	50.369	0	-1e10	8	-1e10	8	-1E+10	1	-1E+10	1	-1E+10	1	-1E+10	1	-1E+10	1	-1E+10	1
4902554	82	C	05/15/2023	22:59	-132.781	47.702	0	51.90	0	8.1550	0	32.3340	0	25.159	0	51.459	0	-1e10	8	-1e10	8	-1E+10	1	-1E+10	1	-1E+10	1	-1E+10	1	-1E+10	1	-1E+10	1
4902554	82	C	05/15/2023	22:59	-132.781	47.702	0	53.30	0	8.0580	0	32.3480	0	25.184	0	52.847	0	-1e10	8	-1e10	8	-1E+10	1	-1E+10	1	-1E+10	1	-1E+10	1	-1E+10	1	-1E+10	1
4902554	82	C	05/15/2023	22:59	-132.781	47.702	0	53.90	0	7.9840	0	32.3260	0	25.178	0	53.442	0	-1e10	8	-1e10	8	-1E+10	1	-1E+10	1	-1E+10	1	-1E+10	1	-1E+10	1	-1E+10	1
4902554	82	C	05/15/2023	22:59	-132.781	47.702	0	54.80	0	7.8660	0	32.3330	0	25.200	0	54.334	0	-1e10	8	-1e10	8	-1E+10	1	-1E+10	1	-1E+10	1	-1E+10	1	-1E+10	1	-1E+10	1
4902554	82	C	05/15/2023	22:59	-132.781	47.702	0	55.80	0	7.7290	0	32.3380	0	25.223	0	55.326	0	-1e10	8	-1e10	8	-1E+10	1	-1E+10	1	-1E+10	1	-1E+10	1	-1E+10	1	-1E+10	1
4902554	82	C	05/15/2023	22:59	-132.781	47.702	0	56.80	0	7.5170	0	32.3450	0	25.259	0	56.317	0	-1e10	8	-1e10	8	-1E+10	1	-1E+10	1	-1E+10	1	-1E+10	1	-1E+10	1	-1E+10	1
4902554	82	C	05/15/2023	22:59	-132.781	47.702	0	58.00	0	7.3520	0	32.3440	0	25.281	0	57.507	0	-1e10	8	-1e10	8	-1E+10	1	-1E+10	1	-1E+10	1	-1E+10	1	-1E+10	1	-1E+10	1
4902554	82	C	05/15/2023	22:59	-132.781	47.702	0	59.10	0	7.2440	0	32.3440	0	25.295	0	58.597	0	-1e10	8	-1e10	8	-1E+10	1	-1E+10	1	-1E+10	1	-1E+10	1	-1E+10	1	-1E+10	1
4902554	82	C	05/15/2023	22:59	-132.781	47.702	0	60.00	0	7.2350	0	32.3450	0	25.297	0	59.489	0	-1e10	8	-1e10	8	-1E+10	1	-1E+10	1	-1E+10	1	-1E+10	1	-1E+10	1	-1E+10	1
4902554	82	C	05/15/2023	22:59	-132.781	47.702	0	60.90	0	7.2190	0	32.3460	0	25.300	0	60.382	0	-1e10	8	-1e10	8	-1E+10	1	-1E+10	1	-1E+10	1	-1E+10	1	-1E+10	1	-1E+10	1
4902554	82	C	05/15/2023	22:59	-132.781	47.702	0	62.10	0	7.2150	0	32.3460	0	25.301	0	61.571	0	-1e10	8	-1e10	8	-1E+10	1	-1E+10	1	-1E+10	1	-1E+10	1	-1E+10	1	-1E+10	1
4902554	82	C	05/15/2023	22:59	-132.781	47.702	0	63.10	0	7.2120	0	32.3470	0	25.302	0	62.563	0	-1e10	8	-1e10	8	-1E+10	1	-1E+10	1	-1E+10	1	-1E+10	1	-1E+10	1	-1E+10	1
4902554	82	C	05/15/2023	22:59	-132.781	47.702	0	64.00	0	7.2080	0	32.3460	0	25.302	0	63.455	0	-1e10	8	-1e10	8	-1E+10	1	-1E+10	1	-1E+10	1	-1E+10	1	-1E+10	1	-1E+10	1
4902554	82	C	05/15/2023	22:59	-132.781	47.702	0	64.90	0	7.2040	0	32.3470	0	25.303	0	64.347	0	-1e10	8	-1e10	8	-1E+10	1	-1E+10	1	-1E+10	1	-1E+10	1	-1E+10	1	-1E+10	1
4902554	82	C	05/15/2023	22:59	-132.781	47.702	0	65.90	0	7.2030	0	32.3500	0	25.306	0	65.338	0	-1e10	8	-1e10	8	-1E+10	1	-1E+10	1	-1E+10	1	-1E+10	1	-1E+10	1	-1E+10	1
4902554	82	C	05/15/2023	22:59	-132.781	47.702	0	66.90	0	7.1960	0	32.3500	0	25.307	0	66.330	0	-1e10	8	-1e10	8	-1E+10	1	-1E+10	1	-1E+10	1	-1E+10	1	-1E+10	1	-1E+10	1
4902554	82	C	05/15/2023	22:59	-132.781	47.702	0	67.80	0	7.2050	0	32.3530	0	25.308	0	67.222	0	-1e10	8	-1e10	8	-1E+10	1	-1E+10	1	-1E+10	1	-1E+10	1	-1E+10	1	-1E+10	1
4902554	82	C	05/15/2023	22:59	-132.781	47.702	0	68.80	0	7.2090	0	32.3550	0	25.309	0	68.213	0	-1e10	8	-1e10	8	-1E+10	1	-1E+10	1	-1E+10	1	-1E+10	1	-1E+10	1	-1E+10	1
4902554	82	C	05/15/2023	22:59	-132.781	47.702	0	69.80	0	7.2060	0	32.3550	0	25.309	0	69.204	0	-1e10	8	-1e10	8	-1E+10	1	-1E+10	1	-1E+10	1	-1E+10	1	-1E+10	1	-1E+10	1
4902554	82	C	05/15/2023	22:59	-132.781	47.702	0	70.90	0	7.2010	0	32.3550	0	25.310	0	70.295	0	-1e10	8	-1e10	8	-1E+10	1	-1E+10	1	-1E+10	1	-1E+10	1	-1E+10	1	-1E+10	1
4902554	82	C	05/15/2023	22:59	-132.781	47.702	0	71.90	0	7.1990	0	32.3550	0	25.310	0	71.286	0	-1e10	8	-1e10	8	-1E+10	1	-1E+10	1	-1E+10	1	-1E+10	1	-1E+10	1	-1E+10	1
4902554	82	C	05/15/2023	22:59	-132.781	47.702	0	73.00	0	7.1890	0	32.3530	0	25.310	0	72.377	0	-1e10	8	-1e10	8	-1E+10	1	-1E+10	1	-1E+10	1	-1E+10	1	-1E+10	1	-1E+10	1
4902554	82	C	05/15/2023	22:59	-132.781	47.702	0	73.80	0	7.1860	0	32.3540	0	25.311	0	73.170	0	-1e10	8	-1e10	8	-1E+10	1	-1E+10	1	-1E+10	1	-1E+10	1	-1E+10	1	-1E+10	1
4902554	82	C	05/15/2023	22:59	-132.781	47.702	0	74.80	0	7.1800	0	32.3520	0	25.310	0	74.161	0	-1e10	8	-1e10	8	-1E+10	1	-1E+10	1	-1E+10	1	-1E+10	1	-1E+10	1	-1E+10	1
4902554	82	C	05/15/2023	22:59	-132.781	47.702	0	76.00	0	7.1730	0	32.3520	0	25.311	0	75.350	0	-1e10	8	-1e10	8	-1E+10	1	-1E+10	1	-1E+10	1	-1E+10	1	-1E+10	1	-1E+10	1
4902554	82	C	05/15/2023	22:59	-132.781	47.702	0	76.70	0	7.1690	0	32.3520	0	25.312	0	76.044	0	-1e10	8	-1e10	8	-1E+10	1	-1E+10	1	-1E+10	1	-1E+10	1	-1E+10	1	-1E+10	1
4902554	82	C	05/15/2023	22:59	-132.781	47.702	0	77.90	0	7.1600	0	32.3510	0	25.312	0	77.234	0	-1e10	8	-1e10	8	-1E+10	1	-1E+10	1	-1E+10	1	-1E+10	1	-1E+10	1	-1E+10	1
4902554	82	C	05/15/2023	22:59	-132.781	47.702	0	79.00	0	7.1530	0	32.3500	0	25.312	0	78.324	0	-1e10	8	-1e10	8	-1E+10	1	-1E+10	1	-1E+10	1	-1E+10	1	-1E+10	1	-1E+10	1
4902554	82	C	05/15/2023	22:59	-132.781	47.702	0	79.80	0	7.1440	0	32.3500	0	25.314	0	79.117	0	-1e10	8	-1e10	8	-1E+10	1	-1E+10	1	-1E+10	1	-1E+10	1	-1E+10	1	-1E+10	1
4902554	82	C	05/15/2023	22:59	-132.781	47.702	0	81.00	0	7.1190	0	32.3460	0	25.314	0	80.307	0	-1e10	8	-1e10	8	-1E+10	1	-1E+10	1	-1E+10	1	-1E+10	1	-1E+10	1	-1E+10	1
4902554	82	C	05/15/2023	22:59	-132.781	47.702	0	82.20	0	7.0990	0	32.3440	0	25.315	0	81.496	0	-1e10	8	-1e10	8	-1E+10	1	-1E+10	1	-1E+10	1	-1E+10	1	-1E+10	1	-1E+10	1
4902554	82	C	05/15/2023	22:59	-132.781	47.702	0	83.00	0	7.0990	0	32.3440	0	25.315	0	82.289	0	-1e10	8	-1e10	8	-1E+10	1	-1E+10	1	-1E+10	1	-1E+10	1	-1E+10	1	-1E+10	1
4902554	82	C	05/15/2023	22:59	-132.781	47.702	0	83.80	0	7.0960	0	32.3440	0	25.315	0	83.082	0	-1e10	8	-1e10	8	-1E+10	1	-1E+10	1	-1E+10	1	-1E+10	1	-1E+10	1	-1E+10	1
4902554	82	C	05/15/2023	22:59	-132.781	47.702	0	85.00	0	7.0940	0	32.3440	0	25.316	0	84.272	0	-1e10	8	-1e10	8	-1E+10	1	-1E+10	1	-1E+10	1	-1E+10	1	-1E+10	1	-1E+10	1
4902554	82	C	05/15/2023	22:59	-132.781	47.702	0	86.20	0	7.0920	0	32.3440	0	25.316	0	85.461	0	-1e10	8	-1e10	8	-1E+10	1	-1E+10	1	-1E+10	1	-1E+10	1	-1E+10	1	-1E+10	1
4902554	82	C	05/15/2023	22:59	-132.781	47.702	0	87.00	0	7.0920	0	32.3430	0	25.315	0	86.254	0	-1e10	8	-1e10	8	-1E+10	1	-1E+10	1	-1E+10	1	-1E+10	1	-1E+10	1	-1E+10	1
4902554	82	C	05/15/2023	22:59	-132.781	47.702	0	87.80	0	7.0900	0	32.3430	0	25.316	0	87.047	0	-1e10	8	-1e10	8	-1E+10	1	-1E+10	1	-1E+10	1	-1E+10	1	-1E+10	1	-1E+10	1
4902554	82	C	05/15/2023	22:59	-132.781	47.702	0	88.70	0	7.0900	0	32.3430	0	25.316	0	87.939	0	-1e10	8	-1e10	8	-1E+10	1	-1E+10	1	-1E+10	1	-1E+10	1	-1E+10	1	-1E+10	1
4902554	82	C	05/15/2023	22:59	-132.781	47.702	0	89.90	0	7.0890	0	32.3430	0	25.316	0	89.129	0	-1e10	8	-1e10	8	-1E+10	1	-1E+10	1	-1E+10	1	-1E+10	1	-1E+10	1	-1E+10	1
4902554	82	C	05/15/2023	22:59	-132.781	47.702	0	91.00	0	7.0900	0	32.3440	0	25.316	0	90.219	0	-1e10	8	-1e10	8	-1E+10	1	-1E+10	1	-1E+10	1	-1E+10	1	-1E+10	1	-1E+10	1
4902554	82	C	05/15/2023	22:59	-132.781	47.702	0	91.90	0	7.0890	0	32.3440	0	25.317	0	91.111	0	-1e10	8	-1e10	8	-1E+10	1	-1E+10	1	-1E+10	1	-1E+10	1	-1E+10	1	-1E+10	1
4902554	82	C	05/15/2023	22:59	-132.781	47.702	0	93.00	0	7.0880	0	32.3440	0	25.317	0	92.201	0	-1e10	8	-1e10	8	-1E+10	1	-1E+10	1	-1E+10	1	-1E+10	1	-1E+10	1	-1E+10	1
4902554	82	C	05/15/2023	22:59	-132.781	47.702	0	94.20	0	7.0910	0	32.3450	0	25.317	0	93.391	0	-1e10	8	-1e10	8	-1E+10	1	-1E+10	1	-1E+10	1	-1E+10	1	-1E+10	1	-1E+10	1
4902554	82	C	05/15/2023	22:59	-132.781	47.702	0	94.90	0	7.0910	0	32.3450	0	25.317	0	94.085	0	-1e10	8	-1e10	8	-1E+10	1	-1E+10	1	-1E+10	1	-1E+10	1	-1E+10	1	-1E+10	1
4902554	82	C	05/15/2023	22:59	-132.781	47.702	0	96.00	0	7.0880	0	32.3460	0	25.318	0	95.175	0	-1e10	8	-1e10	8	-1E+10	1	-1E+10	1	-1E+10	1	-1E+10	1	-1E+10	1	-1E+10	1
4902554	82	C	05/15/2023	22:59	-132.781	47.702	0	97.10	0	7.0840	0	32.3460	0	25.319	0	96.265	0	-1e10	8	-1e10	8	-1E+10	1	-1E+10	1	-1E+10	1	-1E+10	1	-1E+10	1	-1E+10	1
4902554	82	C	05/15/2023	22:59	-132.781	47.702	0	97.80	0	7.0820	0	32.3450	0	25.318	0	96.959	0	-1e10	8	-1e10	8	-1E+10	1	-1E+10	1	-1E+10	1	-1E+10	1	-1E+10	1	-1E+10	1
4902554	82	C	05/15/2023	22:59	-132.781	47.702	0	98.90	0	7.0800	0	32.3460	0	25.319	0	98.049	0	-1e10	8	-1e10	8	-1E+10	1	-1E+10	1	-1E+10	1	-1E+10	1	-1E+10	1	-1E+10	1
4902554	82	C	05/15/2023	22:59	-132.781	47.702	0	99.90	0	7.0800	0	32.3460	0	25.319	0	99.040	0	-1e10	8	-1e10	8	-1E+10	1	-1E+10	1	-1E+10	1	-1E+10	1	-1E+10	1	-1E+10	1
4902554	82	C	05/15/2023	22:59	-132.781	47.702	0	100.90	0	7.0780	0	32.3460	0	25.320	0	100.032	0	-1e10	8	-1e10	8	-1E+10	1	-1E+10	1	-1E+10	1	-1E+10	1	-1E+10	1	-1E+10	1
4902554	82	C	05/15/2023	22:59	-132.781	47.702	0	101.90	0	7.0740	0	32.3470	0	25.321	0	101.023	0	-1e10	8	-1e10	8	-1E+10	1	-1E+10	1	-1E+10	1	-1E+10	1	-1E+10	1	-1E+10	1
4902554	82	C	05/15/2023	22:59	-132.781	47.702	0	102.90	0	7.0750	0	32.3490	0	25.322	0	102.014	0	-1e10	8	-1e10	8	-1E+10	1	-1E+10	1	-1E+10	1	-1E+10	1	-1E+10	1	-1E+10	1
4902554	82	C	05/15/2023	22:59	-132.781	47.702	0	104.10	0	7.0760	0	32.3530	0	25.325	0	103.203	0	-1e10	8	-1e10	8	-1E+10	1	-1E+10	1	-1E+10	1	-1E+10	1	-1E+10	1	-1E+10	1
4902554	82	C	05/15/2023	22:59	-132.781	47.702	0	105.10	0	7.0690	0	32.3590	0	25.331	0	104.194	0	-1e10	8	-1e10	8	-1E+10	1	-1E+10	1	-1E+10	1	-1E+10	1	-1E+10	1	-1E+10	1
4902554	82	C	05/15/2023	22:59	-132.781	47.702	0	106.10	0	7.0600	0	32.3620	0	25.335	0	105.185	0	-1e10	8	-1e10	8	-1E+10	1	-1E+10	1	-1E+10	1	-1E+10	1	-1E+10	1	-1E+10	1
4902554	82	C	05/15/2023	22:59	-132.781	47.702	0	106.90	0	7.0530	0	32.3670	0	25.340	0	105.978	0	-1e10	8	-1e10	8	-1E+10	1	-1E+10	1	-1E+10	1	-1E+10	1	-1E+10	1	-1E+10	1
4902554	82	C	05/15/2023	22:59	-132.781	47.702	0	107.90	0	7.0270	0	32.3830	0	25.356	0	106.970	0	-1e10	8	-1e10	8	-1E+10	1	-1E+10	1	-1E+10	1	-1E+10	1	-1E+10	1	-1E+10	1
4902554	82	C	05/15/2023	22:59	-132.781	47.702	0	109.00	0	7.0140	0	32.3960	0	25.368	0	108.060	0	-1e10	8	-1e10	8	-1E+10	1	-1E+10	1	-1E+10	1	-1E+10	1	-1E+10	1	-1E+10	1
4902554	82	C	05/15/2023	22:59	-132.781	47.702	0	109.80	0	6.9910	0	32.4330	0	25.400	0	108.853	0	-1e10	8	-1e10	8	-1E+10	1	-1E+10	1	-1E+10	1	-1E+10	1	-1E+10	1	-1E+10	1
4902554	82	C	05/15/2023	22:59	-132.781	47.702	0	110.80	0	6.9040	0	32.5120	0	25.474	0	109.844	0	-1e10	8	-1e10	8	-1E+10	1	-1E+10	1	-1E+10	1	-1E+10	1	-1E+10	1	-1E+10	1
4902554	82	C	05/15/2023	22:59	-132.781	47.702	0	111.90	0	6.8290	0	32.5870	0	25.543	0	110.934	0	-1e10	8	-1e10	8	-1E+10	1	-1E+10	1	-1E+10	1	-1E+10	1	-1E+10	1	-1E+10	1
4902554	82	C	05/15/2023	22:59	-132.781	47.702	0	113.10	0	6.7310	0	32.6730	0	25.623	0	112.123	0	-1e10	8	-1e10	8	-1E+10	1	-1E+10	1	-1E+10	1	-1E+10	1	-1E+10	1	-1E+10	1
4902554	82	C	05/15/2023	22:59	-132.781	47.702	0	114.10	0	6.6600	0	32.7300	0	25.677	0	113.114	0	-1e10	8	-1e10	8	-1E+10	1	-1E+10	1	-1E+10	1	-1E+10	1	-1E+10	1	-1E+10	1
4902554	82	C	05/15/2023	22:59	-132.781	47.702	0	115.00	0	6.6100	0	32.7700	0	25.715	0	114.006	0	-1e10	8	-1e10	8	-1E+10	1	-1E+10	1	-1E+10	1	-1E+10	1	-1E+10	1	-1E+10	1
4902554	82	C	05/15/2023	22:59	-132.781	47.702	0	115.90	0	6.5670	0	32.8040	0	25.748	0	114.898	0	-1e10	8	-1e10	8	-1E+10	1	-1E+10	1	-1E+10	1	-1E+10	1	-1E+10	1	-1E+10	1
4902554	82	C	05/15/2023	22:59	-132.781	47.702	0	117.00	0	6.4620	0	32.9050	0	25.841	0	115.988	0	-1e10	8	-1e10	8	-1E+10	1	-1E+10	1	-1E+10	1	-1E+10	1	-1E+10	1	-1E+10	1
4902554	82	C	05/15/2023	22:59	-132.781	47.702	0	118.30	0	6.3740	0	32.9970	0	25.925	0	117.277	0	-1e10	8	-1e10	8	-1E+10	1	-1E+10	1	-1E+10	1	-1E+10	1	-1E+10	1	-1E+10	1
4902554	82	C	05/15/2023	22:59	-132.781	47.702	0	119.00	0	6.3580	0	33.0090	0	25.936	0	117.971	0	-1e10	8	-1e10	8	-1E+10	1	-1E+10	1	-1E+10	1	-1E+10	1	-1E+10	1	-1E+10	1
4902554	82	C	05/15/2023	22:59	-132.781	47.702	0	120.00	0	6.3500	0	33.0140	0	25.941	0	118.962	0	-1e10	8	-1e10	8	-1E+10	1	-1E+10	1	-1E+10	1	-1E+10	1	-1E+10	1	-1E+10	1
4902554	82	C	05/15/2023	22:59	-132.781	47.702	0	121.10	0	6.3420	0	33.0190	0	25.946	0	120.052	0	-1e10	8	-1e10	8	-1E+10	1	-1E+10	1	-1E+10	1	-1E+10	1	-1E+10	1	-1E+10	1
4902554	82	C	05/15/2023	22:59	-132.781	47.702	0	122.10	0	6.3180	0	33.0440	0	25.969	0	121.043	0	-1e10	8	-1e10	8	-1E+10	1	-1E+10	1	-1E+10	1	-1E+10	1	-1E+10	1	-1E+10	1
4902554	82	C	05/15/2023	22:59	-132.781	47.702	0	122.90	0	6.3150	0	33.0480	0	25.972	0	121.836	0	-1e10	8	-1e10	8	-1E+10	1	-1E+10	1	-1E+10	1	-1E+10	1	-1E+10	1	-1E+10	1
4902554	82	C	05/15/2023	22:59	-132.781	47.702	0	123.80	0	6.3020	0	33.0610	0	25.984	0	122.728	0	-1e10	8	-1e10	8	-1E+10	1	-1E+10	1	-1E+10	1	-1E+10	1	-1E+10	1	-1E+10	1
4902554	82	C	05/15/2023	22:59	-132.781	47.702	0	125.00	0	6.2760	0	33.0920	0	26.012	0	123.917	0	-1e10	8	-1e10	8	-1E+10	1	-1E+10	1	-1E+10	1	-1E+10	1	-1E+10	1	-1E+10	1
4902554	82	C	05/15/2023	22:59	-132.781	47.702	0	126.00	0	6.2530	0	33.1150	0	26.033	0	124.908	0	-1e10	8	-1e10	8	-1E+10	1	-1E+10	1	-1E+10	1	-1E+10	1	-1E+10	1	-1E+10	1
4902554	82	C	05/15/2023	22:59	-132.781	47.702	0	127.00	0	6.2150	0	33.1440	0	26.061	0	125.899	0	-1e10	8	-1e10	8	-1E+10	1	-1E+10	1	-1E+10	1	-1E+10	1	-1E+10	1	-1E+10	1
4902554	82	C	05/15/2023	22:59	-132.781	47.702	0	128.00	0	6.2000	0	33.1550	0	26.071	0	126.890	0	-1e10	8	-1e10	8	-1E+10	1	-1E+10	1	-1E+10	1	-1E+10	1	-1E+10	1	-1E+10	1
4902554	82	C	05/15/2023	22:59	-132.781	47.702	0	129.00	0	6.1740	0	33.1790	0	26.094	0	127.881	0	-1e10	8	-1e10	8	-1E+10	1	-1E+10	1	-1E+10	1	-1E+10	1	-1E+10	1	-1E+10	1
4902554	82	C	05/15/2023	22:59	-132.781	47.702	0	130.10	0	6.1590	0	33.1890	0	26.103	0	128.971	0	-1e10	8	-1e10	8	-1E+10	1	-1E+10	1	-1E+10	1	-1E+10	1	-1E+10	1	-1E+10	1
4902554	82	C	05/15/2023	22:59	-132.781	47.702	0	131.10	0	6.1400	0	33.1970	0	26.112	0	129.962	0	-1e10	8	-1e10	8	-1E+10	1	-1E+10	1	-1E+10	1	-1E+10	1	-1E+10	1	-1E+10	1
4902554	82	C	05/15/2023	22:59	-132.781	47.702	0	132.20	0	6.1240	0	33.2060	0	26.121	0	131.052	0	-1e10	8	-1e10	8	-1E+10	1	-1E+10	1	-1E+10	1	-1E+10	1	-1E+10	1	-1E+10	1
4902554	82	C	05/15/2023	22:59	-132.781	47.702	0	132.90	0	6.1140	0	33.2110	0	26.126	0	131.746	0	-1e10	8	-1e10	8	-1E+10	1	-1E+10	1	-1E+10	1	-1E+10	1	-1E+10	1	-1E+10	1
4902554	82	C	05/15/2023	22:59	-132.781	47.702	0	133.70	0	6.0480	0	33.2500	0	26.166	0	132.539	0	-1e10	8	-1e10	8	-1E+10	1	-1E+10	1	-1E+10	1	-1E+10	1	-1E+10	1	-1E+10	1
4902554	82	C	05/15/2023	22:59	-132.781	47.702	0	134.90	0	5.9930	0	33.2830	0	26.198	0	133.728	0	-1e10	8	-1e10	8	-1E+10	1	-1E+10	1	-1E+10	1	-1E+10	1	-1E+10	1	-1E+10	1
4902554	82	C	05/15/2023	22:59	-132.781	47.702	0	136.10	0	5.9400	0	33.3200	0	26.234	0	134.917	0	-1e10	8	-1e10	8	-1E+10	1	-1E+10	1	-1E+10	1	-1E+10	1	-1E+10	1	-1E+10	1
4902554	82	C	05/15/2023	22:59	-132.781	47.702	0	136.90	0	5.9280	0	33.3320	0	26.245	0	135.710	0	-1e10	8	-1e10	8	-1E+10	1	-1E+10	1	-1E+10	1	-1E+10	1	-1E+10	1	-1E+10	1
4902554	82	C	05/15/2023	22:59	-132.781	47.702	0	137.80	0	5.9250	0	33.3380	0	26.250	0	136.602	0	-1e10	8	-1e10	8	-1E+10	1	-1E+10	1	-1E+10	1	-1E+10	1	-1E+10	1	-1E+10	1
4902554	82	C	05/15/2023	22:59	-132.781	47.702	0	138.60	0	5.9170	0	33.3460	0	26.258	0	137.395	0	-1e10	8	-1e10	8	-1E+10	1	-1E+10	1	-1E+10	1	-1E+10	1	-1E+10	1	-1E+10	1
4902554	82	C	05/15/2023	22:59	-132.781	47.702	0	139.90	0	5.8920	0	33.3560	0	26.269	0	138.683	0	-1e10	8	-1e10	8	-1E+10	1	-1E+10	1	-1E+10	1	-1E+10	1	-1E+10	1	-1E+10	1
4902554	82	C	05/15/2023	22:59	-132.781	47.702	0	141.20	0	5.8770	0	33.3660	0	26.278	0	139.971	0	-1e10	8	-1e10	8	-1E+10	1	-1E+10	1	-1E+10	1	-1E+10	1	-1E+10	1	-1E+10	1
4902554	82	C	05/15/2023	22:59	-132.781	47.702	0	142.10	0	5.8780	0	33.3790	0	26.288	0	140.863	0	-1e10	8	-1e10	8	-1E+10	1	-1E+10	1	-1E+10	1	-1E+10	1	-1E+10	1	-1E+10	1
4902554	82	C	05/15/2023	22:59	-132.781	47.702	0	143.00	0	5.8640	0	33.3900	0	26.299	0	141.755	0	-1e10	8	-1e10	8	-1E+10	1	-1E+10	1	-1E+10	1	-1E+10	1	-1E+10	1	-1E+10	1
4902554	82	C	05/15/2023	22:59	-132.781	47.702	0	143.90	0	5.8510	0	33.3970	0	26.306	0	142.647	0	-1e10	8	-1e10	8	-1E+10	1	-1E+10	1	-1E+10	1	-1E+10	1	-1E+10	1	-1E+10	1
4902554	82	C	05/15/2023	22:59	-132.781	47.702	0	144.80	0	5.8520	0	33.4010	0	26.309	0	143.538	0	-1e10	8	-1e10	8	-1E+10	1	-1E+10	1	-1E+10	1	-1E+10	1	-1E+10	1	-1E+10	1
4902554	82	C	05/15/2023	22:59	-132.781	47.702	0	145.70	0	5.8550	0	33.4010	0	26.309	0	144.430	0	-1e10	8	-1e10	8	-1E+10	1	-1E+10	1	-1E+10	1	-1E+10	1	-1E+10	1	-1E+10	1
4902554	82	C	05/15/2023	22:59	-132.781	47.702	0	146.60	0	5.8540	0	33.4300	0	26.332	0	145.322	0	-1e10	8	-1e10	8	-1E+10	1	-1E+10	1	-1E+10	1	-1E+10	1	-1E+10	1	-1E+10	1
4902554	82	C	05/15/2023	22:59	-132.781	47.702	0	147.90	0	5.8300	0	33.4450	0	26.347	0	146.610	0	-1e10	8	-1e10	8	-1E+10	1	-1E+10	1	-1E+10	1	-1E+10	1	-1E+10	1	-1E+10	1
4902554	82	C	05/15/2023	22:59	-132.781	47.702	0	149.30	0	5.8410	0	33.4530	0	26.352	0	147.998	0	-1e10	8	-1e10	8	-1E+10	1	-1E+10	1	-1E+10	1	-1E+10	1	-1E+10	1	-1E+10	1
4902554	82	C	05/15/2023	22:59	-132.781	47.702	0	150.20	0	5.8450	0	33.4640	0	26.360	0	148.889	0	-1e10	8	-1e10	8	-1E+10	1	-1E+10	1	-1E+10	1	-1E+10	1	-1E+10	1	-1E+10	1
4902554	82	C	05/15/2023	22:59	-132.781	47.702	0	151.10	0	5.8320	0	33.4870	0	26.380	0	149.781	0	-1e10	8	-1e10	8	-1E+10	1	-1E+10	1	-1E+10	1	-1E+10	1	-1E+10	1	-1E+10	1
4902554	82	C	05/15/2023	22:59	-132.781	47.702	0	152.00	0	5.8310	0	33.4910	0	26.383	0	150.673	0	-1e10	8	-1e10	8	-1E+10	1	-1E+10	1	-1E+10	1	-1E+10	1	-1E+10	1	-1E+10	1
4902554	82	C	05/15/2023	22:59	-132.781	47.702	0	153.00	0	5.8310	0	33.4980	0	26.388	0	151.664	0	-1e10	8	-1e10	8	-1E+10	1	-1E+10	1	-1E+10	1	-1E+10	1	-1E+10	1	-1E+10	1
4902554	82	C	05/15/2023	22:59	-132.781	47.702	0	154.00	0	5.8270	0	33.5080	0	26.397	0	152.655	0	-1e10	8	-1e10	8	-1E+10	1	-1E+10	1	-1E+10	1	-1E+10	1	-1E+10	1	-1E+10	1
4902554	82	C	05/15/2023	22:59	-132.781	47.702	0	154.90	0	5.8240	0	33.5150	0	26.403	0	153.547	0	-1e10	8	-1e10	8	-1E+10	1	-1E+10	1	-1E+10	1	-1E+10	1	-1E+10	1	-1E+10	1
4902554	82	C	05/15/2023	22:59	-132.781	47.702	0	155.90	0	5.8210	0	33.5210	0	26.408	0	154.538	0	-1e10	8	-1e10	8	-1E+10	1	-1E+10	1	-1E+10	1	-1E+10	1	-1E+10	1	-1E+10	1
4902554	82	C	05/15/2023	22:59	-132.781	47.702	0	156.80	0	5.8190	0	33.5240	0	26.410	0	155.429	0	-1e10	8	-1e10	8	-1E+10	1	-1E+10	1	-1E+10	1	-1E+10	1	-1E+10	1	-1E+10	1
4902554	82	C	05/15/2023	22:59	-132.781	47.702	0	157.80	0	5.8180	0	33.5260	0	26.412	0	156.420	0	-1e10	8	-1e10	8	-1E+10	1	-1E+10	1	-1E+10	1	-1E+10	1	-1E+10	1	-1E+10	1
4902554	82	C	05/15/2023	22:59	-132.781	47.702	0	158.70	0	5.8160	0	33.5290	0	26.415	0	157.312	0	-1e10	8	-1e10	8	-1E+10	1	-1E+10	1	-1E+10	1	-1E+10	1	-1E+10	1	-1E+10	1
4902554	82	C	05/15/2023	22:59	-132.781	47.702	0	159.60	0	5.8100	0	33.5540	0	26.435	0	158.204	0	-1e10	8	-1e10	8	-1E+10	1	-1E+10	1	-1E+10	1	-1E+10	1	-1E+10	1	-1E+10	1
4902554	82	C	05/15/2023	22:59	-132.781	47.702	0	160.60	0	5.8160	0	33.5620	0	26.441	0	159.195	0	-1e10	8	-1e10	8	-1E+10	1	-1E+10	1	-1E+10	1	-1E+10	1	-1E+10	1	-1E+10	1
4902554	82	C	05/15/2023	22:59	-132.781	47.702	0	161.50	0	5.8090	0	33.5840	0	26.459	0	160.087	0	-1e10	8	-1e10	8	-1E+10	1	-1E+10	1	-1E+10	1	-1E+10	1	-1E+10	1	-1E+10	1
4902554	82	C	05/15/2023	22:59	-132.781	47.702	0	162.90	0	5.8010	0	33.5920	0	26.466	0	161.474	0	-1e10	8	-1e10	8	-1E+10	1	-1E+10	1	-1E+10	1	-1E+10	1	-1E+10	1	-1E+10	1
4902554	82	C	05/15/2023	22:59	-132.781	47.702	0	164.30	0	5.7820	0	33.6070	0	26.481	0	162.861	0	-1e10	8	-1e10	8	-1E+10	1	-1E+10	1	-1E+10	1	-1E+10	1	-1E+10	1	-1E+10	1
4902554	82	C	05/15/2023	22:59	-132.781	47.702	0	165.20	0	5.7680	0	33.6130	0	26.487	0	163.753	0	-1e10	8	-1e10	8	-1E+10	1	-1E+10	1	-1E+10	1	-1E+10	1	-1E+10	1	-1E+10	1
4902554	82	C	05/15/2023	22:59	-132.781	47.702	0	166.10	0	5.7570	0	33.6210	0	26.495	0	164.644	0	-1e10	8	-1e10	8	-1E+10	1	-1E+10	1	-1E+10	1	-1E+10	1	-1E+10	1	-1E+10	1
4902554	82	C	05/15/2023	22:59	-132.781	47.702	0	167.00	0	5.7500	0	33.6280	0	26.501	0	165.536	0	-1e10	8	-1e10	8	-1E+10	1	-1E+10	1	-1E+10	1	-1E+10	1	-1E+10	1	-1E+10	1
4902554	82	C	05/15/2023	22:59	-132.781	47.702	0	167.80	0	5.7470	0	33.6300	0	26.503	0	166.329	0	-1e10	8	-1e10	8	-1E+10	1	-1E+10	1	-1E+10	1	-1E+10	1	-1E+10	1	-1E+10	1
4902554	82	C	05/15/2023	22:59	-132.781	47.702	0	168.70	0	5.7330	0	33.6380	0	26.511	0	167.221	0	-1e10	8	-1e10	8	-1E+10	1	-1E+10	1	-1E+10	1	-1E+10	1	-1E+10	1	-1E+10	1
4902554	82	C	05/15/2023	22:59	-132.781	47.702	0	169.60	0	5.7280	0	33.6450	0	26.517	0	168.112	0	-1e10	8	-1e10	8	-1E+10	1	-1E+10	1	-1E+10	1	-1E+10	1	-1E+10	1	-1E+10	1
4902554	82	C	05/15/2023	22:59	-132.781	47.702	0	170.90	0	5.7190	0	33.6490	0	26.522	0	169.400	0	-1e10	8	-1e10	8	-1E+10	1	-1E+10	1	-1E+10	1	-1E+10	1	-1E+10	1	-1E+10	1
4902554	82	C	05/15/2023	22:59	-132.781	47.702	0	172.30	0	5.7030	0	33.6580	0	26.531	0	170.788	0	-1e10	8	-1e10	8	-1E+10	1	-1E+10	1	-1E+10	1	-1E+10	1	-1E+10	1	-1E+10	1
4902554	82	C	05/15/2023	22:59	-132.781	47.702	0	173.20	0	5.6940	0	33.6630	0	26.536	0	171.679	0	-1e10	8	-1e10	8	-1E+10	1	-1E+10	1	-1E+10	1	-1E+10	1	-1E+10	1	-1E+10	1
4902554	82	C	05/15/2023	22:59	-132.781	47.702	0	174.10	0	5.6910	0	33.6640	0	26.537	0	172.571	0	-1e10	8	-1e10	8	-1E+10	1	-1E+10	1	-1E+10	1	-1E+10	1	-1E+10	1	-1E+10	1
4902554	82	C	05/15/2023	22:59	-132.781	47.702	0	175.00	0	5.6910	0	33.6640	0	26.537	0	173.463	0	-1e10	8	-1e10	8	-1E+10	1	-1E+10	1	-1E+10	1	-1E+10	1	-1E+10	1	-1E+10	1
4902554	82	C	05/15/2023	22:59	-132.781	47.702	0	175.80	0	5.6890	0	33.6660	0	26.539	0	174.255	0	-1e10	8	-1e10	8	-1E+10	1	-1E+10	1	-1E+10	1	-1E+10	1	-1E+10	1	-1E+10	1
4902554	82	C	05/15/2023	22:59	-132.781	47.702	0	176.70	0	5.6850	0	33.6660	0	26.539	0	175.147	0	-1e10	8	-1e10	8	-1E+10	1	-1E+10	1	-1E+10	1	-1E+10	1	-1E+10	1	-1E+10	1
4902554	82	C	05/15/2023	22:59	-132.781	47.702	0	177.60	0	5.6770	0	33.6650	0	26.539	0	176.039	0	-1e10	8	-1e10	8	-1E+10	1	-1E+10	1	-1E+10	1	-1E+10	1	-1E+10	1	-1E+10	1
4902554	82	C	05/15/2023	22:59	-132.781	47.702	0	178.90	0	5.6630	0	33.6630	0	26.540	0	177.327	0	-1e10	8	-1e10	8	-1E+10	1	-1E+10	1	-1E+10	1	-1E+10	1	-1E+10	1	-1E+10	1
4902554	82	C	05/15/2023	22:59	-132.781	47.702	0	180.30	0	5.6360	0	33.6630	0	26.543	0	178.714	0	-1e10	8	-1e10	8	-1E+10	1	-1E+10	1	-1E+10	1	-1E+10	1	-1E+10	1	-1E+10	1
4902554	82	C	05/15/2023	22:59	-132.781	47.702	0	181.10	0	5.6370	0	33.6640	0	26.543	0	179.506	0	-1e10	8	-1e10	8	-1E+10	1	-1E+10	1	-1E+10	1	-1E+10	1	-1E+10	1	-1E+10	1
4902554	82	C	05/15/2023	22:59	-132.781	47.702	0	182.00	0	5.6490	0	33.6660	0	26.544	0	180.398	0	-1e10	8	-1e10	8	-1E+10	1	-1E+10	1	-1E+10	1	-1E+10	1	-1E+10	1	-1E+10	1
4902554	82	C	05/15/2023	22:59	-132.781	47.702	0	182.90	0	5.6320	0	33.6670	0	26.546	0	181.290	0	-1e10	8	-1e10	8	-1E+10	1	-1E+10	1	-1E+10	1	-1E+10	1	-1E+10	1	-1E+10	1
4902554	82	C	05/15/2023	22:59	-132.781	47.702	0	183.80	0	5.5650	0	33.6770	0	26.562	0	182.182	0	-1e10	8	-1e10	8	-1E+10	1	-1E+10	1	-1E+10	1	-1E+10	1	-1E+10	1	-1E+10	1
4902554	82	C	05/15/2023	22:59	-132.781	47.702	0	184.80	0	5.5540	0	33.6760	0	26.563	0	183.172	0	-1e10	8	-1e10	8	-1E+10	1	-1E+10	1	-1E+10	1	-1E+10	1	-1E+10	1	-1E+10	1
4902554	82	C	05/15/2023	22:59	-132.781	47.702	0	185.70	0	5.5450	0	33.6790	0	26.566	0	184.064	0	-1e10	8	-1e10	8	-1E+10	1	-1E+10	1	-1E+10	1	-1E+10	1	-1E+10	1	-1E+10	1
4902554	82	C	05/15/2023	22:59	-132.781	47.702	0	186.60	0	5.5380	0	33.6820	0	26.570	0	184.956	0	-1e10	8	-1e10	8	-1E+10	1	-1E+10	1	-1E+10	1	-1E+10	1	-1E+10	1	-1E+10	1
4902554	82	C	05/15/2023	22:59	-132.781	47.702	0	187.50	0	5.5340	0	33.6830	0	26.571	0	185.847	0	-1e10	8	-1e10	8	-1E+10	1	-1E+10	1	-1E+10	1	-1E+10	1	-1E+10	1	-1E+10	1
4902554	82	C	05/15/2023	22:59	-132.781	47.702	0	188.50	0	5.5220	0	33.6880	0	26.576	0	186.838	0	-1e10	8	-1e10	8	-1E+10	1	-1E+10	1	-1E+10	1	-1E+10	1	-1E+10	1	-1E+10	1
4902554	82	C	05/15/2023	22:59	-132.781	47.702	0	189.90	0	5.4940	0	33.7070	0	26.595	0	188.225	0	-1e10	8	-1e10	8	-1E+10	1	-1E+10	1	-1E+10	1	-1E+10	1	-1E+10	1	-1E+10	1
4902554	82	C	05/15/2023	22:59	-132.781	47.702	0	191.40	0	5.4860	0	33.7110	0	26.599	0	189.711	0	-1e10	8	-1e10	8	-1E+10	1	-1E+10	1	-1E+10	1	-1E+10	1	-1E+10	1	-1E+10	1
4902554	82	C	05/15/2023	22:59	-132.781	47.702	0	192.40	0	5.4710	0	33.7130	0	26.602	0	190.702	0	-1e10	8	-1e10	8	-1E+10	1	-1E+10	1	-1E+10	1	-1E+10	1	-1E+10	1	-1E+10	1
4902554	82	C	05/15/2023	22:59	-132.781	47.702	0	193.30	0	5.4710	0	33.7130	0	26.602	0	191.593	0	-1e10	8	-1e10	8	-1E+10	1	-1E+10	1	-1E+10	1	-1E+10	1	-1E+10	1	-1E+10	1
4902554	82	C	05/15/2023	22:59	-132.781	47.702	0	194.30	0	5.4660	0	33.7130	0	26.603	0	192.584	0	-1e10	8	-1e10	8	-1E+10	1	-1E+10	1	-1E+10	1	-1E+10	1	-1E+10	1	-1E+10	1
4902554	82	C	05/15/2023	22:59	-132.781	47.702	0	195.30	0	5.4650	0	33.7140	0	26.604	0	193.575	0	-1e10	8	-1e10	8	-1E+10	1	-1E+10	1	-1E+10	1	-1E+10	1	-1E+10	1	-1E+10	1
4902554	82	C	05/15/2023	22:59	-132.781	47.702	0	196.40	0	5.4540	0	33.7150	0	26.606	0	194.665	0	-1e10	8	-1e10	8	-1E+10	1	-1E+10	1	-1E+10	1	-1E+10	1	-1E+10	1	-1E+10	1
4902554	82	C	05/15/2023	22:59	-132.781	47.702	0	197.40	0	5.4400	0	33.7170	0	26.609	0	195.655	0	-1e10	8	-1e10	8	-1E+10	1	-1E+10	1	-1E+10	1	-1E+10	1	-1E+10	1	-1E+10	1
4902554	82	C	05/15/2023	22:59	-132.781	47.702	0	198.40	0	5.4360	0	33.7190	0	26.611	0	196.646	0	-1e10	8	-1e10	8	-1E+10	1	-1E+10	1	-1E+10	1	-1E+10	1	-1E+10	1	-1E+10	1
4902554	82	C	05/15/2023	22:59	-132.781	47.702	0	199.40	0	5.4350	0	33.7200	0	26.612	0	197.637	0	-1e10	8	-1e10	8	-1E+10	1	-1E+10	1	-1E+10	1	-1E+10	1	-1E+10	1	-1E+10	1
4902554	82	C	05/15/2023	22:59	-132.781	47.702	0	200.40	0	5.4230	0	33.7220	0	26.615	0	198.627	0	-1e10	8	-1e10	8	-1E+10	1	-1E+10	1	-1E+10	1	-1E+10	1	-1E+10	1	-1E+10	1
4902554	82	C	05/15/2023	22:59	-132.781	47.702	0	201.50	0	5.4190	0	33.7230	0	26.616	0	199.717	0	-1e10	8	-1e10	8	-1E+10	1	-1E+10	1	-1E+10	1	-1E+10	1	-1E+10	1	-1E+10	1
4902554	82	C	05/15/2023	22:59	-132.781	47.702	0	202.50	0	5.4200	0	33.7240	0	26.617	0	200.708	0	-1e10	8	-1e10	8	-1E+10	1	-1E+10	1	-1E+10	1	-1E+10	1	-1E+10	1	-1E+10	1
4902554	82	C	05/15/2023	22:59	-132.781	47.702	0	203.50	0	5.4190	0	33.7250	0	26.618	0	201.698	0	-1e10	8	-1e10	8	-1E+10	1	-1E+10	1	-1E+10	1	-1E+10	1	-1E+10	1	-1E+10	1
4902554	82	C	05/15/2023	22:59	-132.781	47.702	0	204.60	0	5.4170	0	33.7260	0	26.619	0	202.788	0	-1e10	8	-1e10	8	-1E+10	1	-1E+10	1	-1E+10	1	-1E+10	1	-1E+10	1	-1E+10	1
4902554	82	C	05/15/2023	22:59	-132.781	47.702	0	205.60	0	5.4130	0	33.7270	0	26.620	0	203.779	0	-1e10	8	-1e10	8	-1E+10	1	-1E+10	1	-1E+10	1	-1E+10	1	-1E+10	1	-1E+10	1
4902554	82	C	05/15/2023	22:59	-132.781	47.702	0	206.60	0	5.4020	0	33.7290	0	26.623	0	204.769	0	-1e10	8	-1e10	8	-1E+10	1	-1E+10	1	-1E+10	1	-1E+10	1	-1E+10	1	-1E+10	1
4902554	82	C	05/15/2023	22:59	-132.781	47.702	0	207.70	0	5.3830	0	33.7330	0	26.629	0	205.859	0	-1e10	8	-1e10	8	-1E+10	1	-1E+10	1	-1E+10	1	-1E+10	1	-1E+10	1	-1E+10	1
4902554	82	C	05/15/2023	22:59	-132.781	47.702	0	208.70	0	5.3730	0	33.7350	0	26.631	0	206.850	0	-1e10	8	-1e10	8	-1E+10	1	-1E+10	1	-1E+10	1	-1E+10	1	-1E+10	1	-1E+10	1
4902554	82	C	05/15/2023	22:59	-132.781	47.702	0	209.70	0	5.3570	0	33.7400	0	26.637	0	207.840	0	-1e10	8	-1e10	8	-1E+10	1	-1E+10	1	-1E+10	1	-1E+10	1	-1E+10	1	-1E+10	1
4902554	82	C	05/15/2023	22:59	-132.781	47.702	0	210.80	0	5.3490	0	33.7410	0	26.639	0	208.930	0	-1e10	8	-1e10	8	-1E+10	1	-1E+10	1	-1E+10	1	-1E+10	1	-1E+10	1	-1E+10	1
4902554	82	C	05/15/2023	22:59	-132.781	47.702	0	211.90	0	5.3290	0	33.7440	0	26.644	0	210.020	0	-1e10	8	-1e10	8	-1E+10	1	-1E+10	1	-1E+10	1	-1E+10	1	-1E+10	1	-1E+10	1
4902554	82	C	05/15/2023	22:59	-132.781	47.702	0	213.00	0	5.3110	0	33.7440	0	26.646	0	211.110	0	-1e10	8	-1e10	8	-1E+10	1	-1E+10	1	-1E+10	1	-1E+10	1	-1E+10	1	-1E+10	1
4902554	82	C	05/15/2023	22:59	-132.781	47.702	0	214.00	0	5.2980	0	33.7490	0	26.651	0	212.100	0	-1e10	8	-1e10	8	-1E+10	1	-1E+10	1	-1E+10	1	-1E+10	1	-1E+10	1	-1E+10	1
4902554	82	C	05/15/2023	22:59	-132.781	47.702	0	215.10	0	5.2930	0	33.7510	0	26.653	0	213.190	0	-1e10	8	-1e10	8	-1E+10	1	-1E+10	1	-1E+10	1	-1E+10	1	-1E+10	1	-1E+10	1
4902554	82	C	05/15/2023	22:59	-132.781	47.702	0	216.20	0	5.2920	0	33.7510	0	26.654	0	214.279	0	-1e10	8	-1e10	8	-1E+10	1	-1E+10	1	-1E+10	1	-1E+10	1	-1E+10	1	-1E+10	1
4902554	82	C	05/15/2023	22:59	-132.781	47.702	0	217.20	0	5.2920	0	33.7520	0	26.654	0	215.270	0	-1e10	8	-1e10	8	-1E+10	1	-1E+10	1	-1E+10	1	-1E+10	1	-1E+10	1	-1E+10	1
4902554	82	C	05/15/2023	22:59	-132.781	47.702	0	218.30	0	5.2940	0	33.7510	0	26.653	0	216.360	0	-1e10	8	-1e10	8	-1E+10	1	-1E+10	1	-1E+10	1	-1E+10	1	-1E+10	1	-1E+10	1
4902554	82	C	05/15/2023	22:59	-132.781	47.702	0	219.30	0	5.2910	0	33.7550	0	26.657	0	217.350	0	-1e10	8	-1e10	8	-1E+10	1	-1E+10	1	-1E+10	1	-1E+10	1	-1E+10	1	-1E+10	1
4902554	82	C	05/15/2023	22:59	-132.781	47.702	0	220.30	0	5.2790	0	33.7590	0	26.661	0	218.341	0	-1e10	8	-1e10	8	-1E+10	1	-1E+10	1	-1E+10	1	-1E+10	1	-1E+10	1	-1E+10	1
4902554	82	C	05/15/2023	22:59	-132.781	47.702	0	221.40	0	5.2720	0	33.7560	0	26.660	0	219.430	0	-1e10	8	-1e10	8	-1E+10	1	-1E+10	1	-1E+10	1	-1E+10	1	-1E+10	1	-1E+10	1
4902554	82	C	05/15/2023	22:59	-132.781	47.702	0	222.40	0	5.2620	0	33.7590	0	26.663	0	220.421	0	-1e10	8	-1e10	8	-1E+10	1	-1E+10	1	-1E+10	1	-1E+10	1	-1E+10	1	-1E+10	1
4902554	82	C	05/15/2023	22:59	-132.781	47.702	0	223.50	0	5.2480	0	33.7590	0	26.665	0	221.511	0	-1e10	8	-1e10	8	-1E+10	1	-1E+10	1	-1E+10	1	-1E+10	1	-1E+10	1	-1E+10	1
4902554	82	C	05/15/2023	22:59	-132.781	47.702	0	224.50	0	5.2350	0	33.7600	0	26.667	0	222.501	0	-1e10	8	-1e10	8	-1E+10	1	-1E+10	1	-1E+10	1	-1E+10	1	-1E+10	1	-1E+10	1
4902554	82	C	05/15/2023	22:59	-132.781	47.702	0	225.50	0	5.2280	0	33.7600	0	26.668	0	223.492	0	-1e10	8	-1e10	8	-1E+10	1	-1E+10	1	-1E+10	1	-1E+10	1	-1E+10	1	-1E+10	1
4902554	82	C	05/15/2023	22:59	-132.781	47.702	0	226.50	0	5.2260	0	33.7600	0	26.668	0	224.482	0	-1e10	8	-1e10	8	-1E+10	1	-1E+10	1	-1E+10	1	-1E+10	1	-1E+10	1	-1E+10	1
4902554	82	C	05/15/2023	22:59	-132.781	47.702	0	227.50	0	5.2170	0	33.7610	0	26.670	0	225.473	0	-1e10	8	-1e10	8	-1E+10	1	-1E+10	1	-1E+10	1	-1E+10	1	-1E+10	1	-1E+10	1
4902554	82	C	05/15/2023	22:59	-132.781	47.702	0	228.50	0	5.2060	0	33.7620	0	26.672	0	226.463	0	-1e10	8	-1e10	8	-1E+10	1	-1E+10	1	-1E+10	1	-1E+10	1	-1E+10	1	-1E+10	1
4902554	82	C	05/15/2023	22:59	-132.781	47.702	0	229.50	0	5.1960	0	33.7640	0	26.675	0	227.454	0	-1e10	8	-1e10	8	-1E+10	1	-1E+10	1	-1E+10	1	-1E+10	1	-1E+10	1	-1E+10	1
4902554	82	C	05/15/2023	22:59	-132.781	47.702	0	230.50	0	5.1900	0	33.7640	0	26.676	0	228.445	0	-1e10	8	-1e10	8	-1E+10	1	-1E+10	1	-1E+10	1	-1E+10	1	-1E+10	1	-1E+10	1
4902554	82	C	05/15/2023	22:59	-132.781	47.702	0	231.50	0	5.1700	0	33.7670	0	26.680	0	229.435	0	-1e10	8	-1e10	8	-1E+10	1	-1E+10	1	-1E+10	1	-1E+10	1	-1E+10	1	-1E+10	1
4902554	82	C	05/15/2023	22:59	-132.781	47.702	0	232.50	0	5.1590	0	33.7670	0	26.682	0	230.426	0	-1e10	8	-1e10	8	-1E+10	1	-1E+10	1	-1E+10	1	-1E+10	1	-1E+10	1	-1E+10	1
4902554	82	C	05/15/2023	22:59	-132.781	47.702	0	233.50	0	5.1410	0	33.7710	0	26.687	0	231.416	0	-1e10	8	-1e10	8	-1E+10	1	-1E+10	1	-1E+10	1	-1E+10	1	-1E+10	1	-1E+10	1
4902554	82	C	05/15/2023	22:59	-132.781	47.702	0	234.50	0	5.1230	0	33.7730	0	26.691	0	232.407	0	-1e10	8	-1e10	8	-1E+10	1	-1E+10	1	-1E+10	1	-1E+10	1	-1E+10	1	-1E+10	1
4902554	82	C	05/15/2023	22:59	-132.781	47.702	0	235.50	0	5.1130	0	33.7730	0	26.692	0	233.397	0	-1e10	8	-1e10	8	-1E+10	1	-1E+10	1	-1E+10	1	-1E+10	1	-1E+10	1	-1E+10	1
4902554	82	C	05/15/2023	22:59	-132.781	47.702	0	236.50	0	5.1000	0	33.7720	0	26.693	0	234.388	0	-1e10	8	-1e10	8	-1E+10	1	-1E+10	1	-1E+10	1	-1E+10	1	-1E+10	1	-1E+10	1
4902554	82	C	05/15/2023	22:59	-132.781	47.702	0	237.50	0	5.0930	0	33.7750	0	26.696	0	235.378	0	-1e10	8	-1e10	8	-1E+10	1	-1E+10	1	-1E+10	1	-1E+10	1	-1E+10	1	-1E+10	1
4902554	82	C	05/15/2023	22:59	-132.781	47.702	0	238.50	0	5.0830	0	33.7760	0	26.698	0	236.369	0	-1e10	8	-1e10	8	-1E+10	1	-1E+10	1	-1E+10	1	-1E+10	1	-1E+10	1	-1E+10	1
4902554	82	C	05/15/2023	22:59	-132.781	47.702	0	239.50	0	5.0820	0	33.7760	0	26.698	0	237.359	0	-1e10	8	-1e10	8	-1E+10	1	-1E+10	1	-1E+10	1	-1E+10	1	-1E+10	1	-1E+10	1
4902554	82	C	05/15/2023	22:59	-132.781	47.702	0	240.50	0	5.0800	0	33.7760	0	26.698	0	238.350	0	-1e10	8	-1e10	8	-1E+10	1	-1E+10	1	-1E+10	1	-1E+10	1	-1E+10	1	-1E+10	1
4902554	82	C	05/15/2023	22:59	-132.781	47.702	0	241.50	0	5.0790	0	33.7770	0	26.699	0	239.340	0	-1e10	8	-1e10	8	-1E+10	1	-1E+10	1	-1E+10	1	-1E+10	1	-1E+10	1	-1E+10	1
4902554	82	C	05/15/2023	22:59	-132.781	47.702	0	242.50	0	5.0730	0	33.7770	0	26.700	0	240.331	0	-1e10	8	-1e10	8	-1E+10	1	-1E+10	1	-1E+10	1	-1E+10	1	-1E+10	1	-1E+10	1
4902554	82	C	05/15/2023	22:59	-132.781	47.702	0	243.90	0	5.0270	0	33.7850	0	26.711	0	241.717	0	-1e10	8	-1e10	8	-1E+10	1	-1E+10	1	-1E+10	1	-1E+10	1	-1E+10	1	-1E+10	1
4902554	82	C	05/15/2023	22:59	-132.781	47.702	0	245.40	0	5.0030	0	33.7830	0	26.712	0	243.203	0	-1e10	8	-1e10	8	-1E+10	1	-1E+10	1	-1E+10	1	-1E+10	1	-1E+10	1	-1E+10	1
4902554	82	C	05/15/2023	22:59	-132.781	47.702	0	246.30	0	5.0010	0	33.7850	0	26.714	0	244.094	0	-1e10	8	-1e10	8	-1E+10	1	-1E+10	1	-1E+10	1	-1E+10	1	-1E+10	1	-1E+10	1
4902554	82	C	05/15/2023	22:59	-132.781	47.702	0	247.20	0	5.0010	0	33.7870	0	26.716	0	244.986	0	-1e10	8	-1e10	8	-1E+10	1	-1E+10	1	-1E+10	1	-1E+10	1	-1E+10	1	-1E+10	1
4902554	82	C	05/15/2023	22:59	-132.781	47.702	0	248.00	0	4.9910	0	33.7900	0	26.719	0	245.778	0	-1e10	8	-1e10	8	-1E+10	1	-1E+10	1	-1E+10	1	-1E+10	1	-1E+10	1	-1E+10	1
4902554	82	C	05/15/2023	22:59	-132.781	47.702	0	248.70	0	4.9800	0	33.7920	0	26.722	0	246.471	0	-1e10	8	-1e10	8	-1E+10	1	-1E+10	1	-1E+10	1	-1E+10	1	-1E+10	1	-1E+10	1
4902554	82	C	05/15/2023	22:59	-132.781	47.702	0	249.80	0	4.9690	0	33.7940	0	26.725	0	247.561	0	-1e10	8	-1e10	8	-1E+10	1	-1E+10	1	-1E+10	1	-1E+10	1	-1E+10	1	-1E+10	1
4902554	82	C	05/15/2023	22:59	-132.781	47.702	0	250.90	0	4.9440	0	33.7950	0	26.729	0	248.650	0	-1e10	8	-1e10	8	-1E+10	1	-1E+10	1	-1E+10	1	-1E+10	1	-1E+10	1	-1E+10	1
4902554	82	C	05/15/2023	22:59	-132.781	47.702	0	252.00	0	4.9070	0	33.8020	0	26.738	0	249.740	0	-1e10	8	-1e10	8	-1E+10	1	-1E+10	1	-1E+10	1	-1E+10	1	-1E+10	1	-1E+10	1
4902554	82	C	05/15/2023	22:59	-132.781	47.702	0	253.20	0	4.9010	0	33.8020	0	26.739	0	250.928	0	-1e10	8	-1e10	8	-1E+10	1	-1E+10	1	-1E+10	1	-1E+10	1	-1E+10	1	-1E+10	1
4902554	82	C	05/15/2023	22:59	-132.781	47.702	0	254.00	0	4.9030	0	33.8030	0	26.740	0	251.721	0	-1e10	8	-1e10	8	-1E+10	1	-1E+10	1	-1E+10	1	-1E+10	1	-1E+10	1	-1E+10	1
4902554	82	C	05/15/2023	22:59	-132.781	47.702	0	254.70	0	4.9040	0	33.8030	0	26.739	0	252.414	0	-1e10	8	-1e10	8	-1E+10	1	-1E+10	1	-1E+10	1	-1E+10	1	-1E+10	1	-1E+10	1
4902554	82	C	05/15/2023	22:59	-132.781	47.702	0	255.80	0	4.9030	0	33.8030	0	26.740	0	253.503	0	-1e10	8	-1e10	8	-1E+10	1	-1E+10	1	-1E+10	1	-1E+10	1	-1E+10	1	-1E+10	1
4902554	82	C	05/15/2023	22:59	-132.781	47.702	0	257.00	0	4.9000	0	33.8030	0	26.740	0	254.692	0	-1e10	8	-1e10	8	-1E+10	1	-1E+10	1	-1E+10	1	-1E+10	1	-1E+10	1	-1E+10	1
4902554	82	C	05/15/2023	22:59	-132.781	47.702	0	257.80	0	4.8970	0	33.8040	0	26.741	0	255.484	0	-1e10	8	-1e10	8	-1E+10	1	-1E+10	1	-1E+10	1	-1E+10	1	-1E+10	1	-1E+10	1
4902554	82	C	05/15/2023	22:59	-132.781	47.702	0	259.00	0	4.8930	0	33.8040	0	26.741	0	256.673	0	-1e10	8	-1e10	8	-1E+10	1	-1E+10	1	-1E+10	1	-1E+10	1	-1E+10	1	-1E+10	1
4902554	82	C	05/15/2023	22:59	-132.781	47.702	0	260.10	0	4.8890	0	33.8060	0	26.744	0	257.762	0	-1e10	8	-1e10	8	-1E+10	1	-1E+10	1	-1E+10	1	-1E+10	1	-1E+10	1	-1E+10	1
4902554	82	C	05/15/2023	22:59	-132.781	47.702	0	260.90	0	4.8880	0	33.8070	0	26.744	0	258.554	0	-1e10	8	-1e10	8	-1E+10	1	-1E+10	1	-1E+10	1	-1E+10	1	-1E+10	1	-1E+10	1
4902554	82	C	05/15/2023	22:59	-132.781	47.702	0	261.70	0	4.8850	0	33.8080	0	26.746	0	259.347	0	-1e10	8	-1e10	8	-1E+10	1	-1E+10	1	-1E+10	1	-1E+10	1	-1E+10	1	-1E+10	1
4902554	82	C	05/15/2023	22:59	-132.781	47.702	0	262.90	0	4.8790	0	33.8120	0	26.749	0	260.535	0	-1e10	8	-1e10	8	-1E+10	1	-1E+10	1	-1E+10	1	-1E+10	1	-1E+10	1	-1E+10	1
4902554	82	C	05/15/2023	22:59	-132.781	47.702	0	264.10	0	4.8730	0	33.8140	0	26.752	0	261.724	0	-1e10	8	-1e10	8	-1E+10	1	-1E+10	1	-1E+10	1	-1E+10	1	-1E+10	1	-1E+10	1
4902554	82	C	05/15/2023	22:59	-132.781	47.702	0	264.90	0	4.8710	0	33.8160	0	26.754	0	262.516	0	-1e10	8	-1e10	8	-1E+10	1	-1E+10	1	-1E+10	1	-1E+10	1	-1E+10	1	-1E+10	1
4902554	82	C	05/15/2023	22:59	-132.781	47.702	0	265.70	0	4.8710	0	33.8170	0	26.754	0	263.308	0	-1e10	8	-1e10	8	-1E+10	1	-1E+10	1	-1E+10	1	-1E+10	1	-1E+10	1	-1E+10	1
4902554	82	C	05/15/2023	22:59	-132.781	47.702	0	266.90	0	4.8690	0	33.8180	0	26.755	0	264.497	0	-1e10	8	-1e10	8	-1E+10	1	-1E+10	1	-1E+10	1	-1E+10	1	-1E+10	1	-1E+10	1
4902554	82	C	05/15/2023	22:59	-132.781	47.702	0	268.10	0	4.8670	0	33.8190	0	26.756	0	265.685	0	-1e10	8	-1e10	8	-1E+10	1	-1E+10	1	-1E+10	1	-1E+10	1	-1E+10	1	-1E+10	1
4902554	82	C	05/15/2023	22:59	-132.781	47.702	0	269.00	0	4.8670	0	33.8200	0	26.757	0	266.576	0	-1e10	8	-1e10	8	-1E+10	1	-1E+10	1	-1E+10	1	-1E+10	1	-1E+10	1	-1E+10	1
4902554	82	C	05/15/2023	22:59	-132.781	47.702	0	269.80	0	4.8670	0	33.8210	0	26.758	0	267.369	0	-1e10	8	-1e10	8	-1E+10	1	-1E+10	1	-1E+10	1	-1E+10	1	-1E+10	1	-1E+10	1
4902554	82	C	05/15/2023	22:59	-132.781	47.702	0	271.00	0	4.8670	0	33.8210	0	26.758	0	268.557	0	-1e10	8	-1e10	8	-1E+10	1	-1E+10	1	-1E+10	1	-1E+10	1	-1E+10	1	-1E+10	1
4902554	82	C	05/15/2023	22:59	-132.781	47.702	0	272.20	0	4.8650	0	33.8240	0	26.761	0	269.745	0	-1e10	8	-1e10	8	-1E+10	1	-1E+10	1	-1E+10	1	-1E+10	1	-1E+10	1	-1E+10	1
4902554	82	C	05/15/2023	22:59	-132.781	47.702	0	273.00	0	4.8650	0	33.8250	0	26.761	0	270.538	0	-1e10	8	-1e10	8	-1E+10	1	-1E+10	1	-1E+10	1	-1E+10	1	-1E+10	1	-1E+10	1
4902554	82	C	05/15/2023	22:59	-132.781	47.702	0	273.80	0	4.8640	0	33.8250	0	26.762	0	271.330	0	-1e10	8	-1e10	8	-1E+10	1	-1E+10	1	-1E+10	1	-1E+10	1	-1E+10	1	-1E+10	1
4902554	82	C	05/15/2023	22:59	-132.781	47.702	0	274.70	0	4.8630	0	33.8250	0	26.762	0	272.221	0	-1e10	8	-1e10	8	-1E+10	1	-1E+10	1	-1E+10	1	-1E+10	1	-1E+10	1	-1E+10	1
4902554	82	C	05/15/2023	22:59	-132.781	47.702	0	275.90	0	4.8580	0	33.8270	0	26.764	0	273.410	0	-1e10	8	-1e10	8	-1E+10	1	-1E+10	1	-1E+10	1	-1E+10	1	-1E+10	1	-1E+10	1
4902554	82	C	05/15/2023	22:59	-132.781	47.702	0	277.10	0	4.8570	0	33.8280	0	26.765	0	274.598	0	-1e10	8	-1e10	8	-1E+10	1	-1E+10	1	-1E+10	1	-1E+10	1	-1E+10	1	-1E+10	1
4902554	82	C	05/15/2023	22:59	-132.781	47.702	0	277.90	0	4.8540	0	33.8290	0	26.766	0	275.390	0	-1e10	8	-1e10	8	-1E+10	1	-1E+10	1	-1E+10	1	-1E+10	1	-1E+10	1	-1E+10	1
4902554	82	C	05/15/2023	22:59	-132.781	47.702	0	278.80	0	4.8480	0	33.8290	0	26.767	0	276.282	0	-1e10	8	-1e10	8	-1E+10	1	-1E+10	1	-1E+10	1	-1E+10	1	-1E+10	1	-1E+10	1
4902554	82	C	05/15/2023	22:59	-132.781	47.702	0	280.00	0	4.8360	0	33.8300	0	26.769	0	277.470	0	-1e10	8	-1e10	8	-1E+10	1	-1E+10	1	-1E+10	1	-1E+10	1	-1E+10	1	-1E+10	1
4902554	82	C	05/15/2023	22:59	-132.781	47.702	0	281.20	0	4.8240	0	33.8310	0	26.771	0	278.658	0	-1e10	8	-1e10	8	-1E+10	1	-1E+10	1	-1E+10	1	-1E+10	1	-1E+10	1	-1E+10	1
4902554	82	C	05/15/2023	22:59	-132.781	47.702	0	282.10	0	4.8230	0	33.8310	0	26.771	0	279.550	0	-1e10	8	-1e10	8	-1E+10	1	-1E+10	1	-1E+10	1	-1E+10	1	-1E+10	1	-1E+10	1
4902554	82	C	05/15/2023	22:59	-132.781	47.702	0	282.90	0	4.8150	0	33.8330	0	26.773	0	280.342	0	-1e10	8	-1e10	8	-1E+10	1	-1E+10	1	-1E+10	1	-1E+10	1	-1E+10	1	-1E+10	1
4902554	82	C	05/15/2023	22:59	-132.781	47.702	0	283.80	0	4.8090	0	33.8340	0	26.775	0	281.233	0	-1e10	8	-1e10	8	-1E+10	1	-1E+10	1	-1E+10	1	-1E+10	1	-1E+10	1	-1E+10	1
4902554	82	C	05/15/2023	22:59	-132.781	47.702	0	284.60	0	4.8020	0	33.8340	0	26.776	0	282.025	0	-1e10	8	-1e10	8	-1E+10	1	-1E+10	1	-1E+10	1	-1E+10	1	-1E+10	1	-1E+10	1
4902554	82	C	05/15/2023	22:59	-132.781	47.702	0	285.90	0	4.7940	0	33.8340	0	26.777	0	283.313	0	-1e10	8	-1e10	8	-1E+10	1	-1E+10	1	-1E+10	1	-1E+10	1	-1E+10	1	-1E+10	1
4902554	82	C	05/15/2023	22:59	-132.781	47.702	0	287.20	0	4.7870	0	33.8360	0	26.779	0	284.600	0	-1e10	8	-1e10	8	-1E+10	1	-1E+10	1	-1E+10	1	-1E+10	1	-1E+10	1	-1E+10	1
4902554	82	C	05/15/2023	22:59	-132.781	47.702	0	288.00	0	4.7860	0	33.8360	0	26.779	0	285.392	0	-1e10	8	-1e10	8	-1E+10	1	-1E+10	1	-1E+10	1	-1E+10	1	-1E+10	1	-1E+10	1
4902554	82	C	05/15/2023	22:59	-132.781	47.702	0	288.90	0	4.7830	0	33.8370	0	26.780	0	286.283	0	-1e10	8	-1e10	8	-1E+10	1	-1E+10	1	-1E+10	1	-1E+10	1	-1E+10	1	-1E+10	1
4902554	82	C	05/15/2023	22:59	-132.781	47.702	0	289.70	0	4.7790	0	33.8380	0	26.781	0	287.076	0	-1e10	8	-1e10	8	-1E+10	1	-1E+10	1	-1E+10	1	-1E+10	1	-1E+10	1	-1E+10	1
4902554	82	C	05/15/2023	22:59	-132.781	47.702	0	290.60	0	4.7750	0	33.8380	0	26.782	0	287.967	0	-1e10	8	-1e10	8	-1E+10	1	-1E+10	1	-1E+10	1	-1E+10	1	-1E+10	1	-1E+10	1
4902554	82	C	05/15/2023	22:59	-132.781	47.702	0	291.90	0	4.7720	0	33.8380	0	26.782	0	289.254	0	-1e10	8	-1e10	8	-1E+10	1	-1E+10	1	-1E+10	1	-1E+10	1	-1E+10	1	-1E+10	1
4902554	82	C	05/15/2023	22:59	-132.781	47.702	0	293.20	0	4.7710	0	33.8390	0	26.783	0	290.541	0	-1e10	8	-1e10	8	-1E+10	1	-1E+10	1	-1E+10	1	-1E+10	1	-1E+10	1	-1E+10	1
4902554	82	C	05/15/2023	22:59	-132.781	47.702	0	294.00	0	4.7710	0	33.8390	0	26.783	0	291.334	0	-1e10	8	-1e10	8	-1E+10	1	-1E+10	1	-1E+10	1	-1E+10	1	-1E+10	1	-1E+10	1
4902554	82	C	05/15/2023	22:59	-132.781	47.702	0	294.90	0	4.7700	0	33.8390	0	26.783	0	292.225	0	-1e10	8	-1e10	8	-1E+10	1	-1E+10	1	-1E+10	1	-1E+10	1	-1E+10	1	-1E+10	1
4902554	82	C	05/15/2023	22:59	-132.781	47.702	0	295.80	0	4.7720	0	33.8410	0	26.785	0	293.116	0	-1e10	8	-1e10	8	-1E+10	1	-1E+10	1	-1E+10	1	-1E+10	1	-1E+10	1	-1E+10	1
4902554	82	C	05/15/2023	22:59	-132.781	47.702	0	296.70	0	4.7730	0	33.8410	0	26.785	0	294.007	0	-1e10	8	-1e10	8	-1E+10	1	-1E+10	1	-1E+10	1	-1E+10	1	-1E+10	1	-1E+10	1
4902554	82	C	05/15/2023	22:59	-132.781	47.702	0	297.90	0	4.7580	0	33.8420	0	26.787	0	295.195	0	-1e10	8	-1e10	8	-1E+10	1	-1E+10	1	-1E+10	1	-1E+10	1	-1E+10	1	-1E+10	1
4902554	82	C	05/15/2023	22:59	-132.781	47.702	0	299.20	0	4.7390	0	33.8400	0	26.787	0	296.483	0	-1e10	8	-1e10	8	-1E+10	1	-1E+10	1	-1E+10	1	-1E+10	1	-1E+10	1	-1E+10	1
4902554	82	C	05/15/2023	22:59	-132.781	47.702	0	300.10	0	4.7370	0	33.8400	0	26.788	0	297.374	0	-1e10	8	-1e10	8	-1E+10	1	-1E+10	1	-1E+10	1	-1E+10	1	-1E+10	1	-1E+10	1
4902554	82	C	05/15/2023	22:59	-132.781	47.702	0	300.90	0	4.7250	0	33.8420	0	26.791	0	298.166	0	-1e10	8	-1e10	8	-1E+10	1	-1E+10	1	-1E+10	1	-1E+10	1	-1E+10	1	-1E+10	1
4902554	82	C	05/15/2023	22:59	-132.781	47.702	0	301.80	0	4.6960	0	33.8410	0	26.793	0	299.057	0	-1e10	8	-1e10	8	-1E+10	1	-1E+10	1	-1E+10	1	-1E+10	1	-1E+10	1	-1E+10	1
4902554	82	C	05/15/2023	22:59	-132.781	47.702	0	302.60	0	4.6810	0	33.8410	0	26.795	0	299.849	0	-1e10	8	-1e10	8	-1E+10	1	-1E+10	1	-1E+10	1	-1E+10	1	-1E+10	1	-1E+10	1
4902554	82	C	05/15/2023	22:59	-132.781	47.702	0	303.90	0	4.6760	0	33.8420	0	26.796	0	301.137	0	-1e10	8	-1e10	8	-1E+10	1	-1E+10	1	-1E+10	1	-1E+10	1	-1E+10	1	-1E+10	1
4902554	82	C	05/15/2023	22:59	-132.781	47.702	0	305.30	0	4.6470	0	33.8450	0	26.802	0	302.523	0	-1e10	8	-1e10	8	-1E+10	1	-1E+10	1	-1E+10	1	-1E+10	1	-1E+10	1	-1E+10	1
4902554	82	C	05/15/2023	22:59	-132.781	47.702	0	306.20	0	4.6370	0	33.8450	0	26.803	0	303.414	0	-1e10	8	-1e10	8	-1E+10	1	-1E+10	1	-1E+10	1	-1E+10	1	-1E+10	1	-1E+10	1
4902554	82	C	05/15/2023	22:59	-132.781	47.702	0	307.10	0	4.6360	0	33.8490	0	26.806	0	304.305	0	-1e10	8	-1e10	8	-1E+10	1	-1E+10	1	-1E+10	1	-1E+10	1	-1E+10	1	-1E+10	1
4902554	82	C	05/15/2023	22:59	-132.781	47.702	0	307.90	0	4.6330	0	33.8490	0	26.806	0	305.097	0	-1e10	8	-1e10	8	-1E+10	1	-1E+10	1	-1E+10	1	-1E+10	1	-1E+10	1	-1E+10	1
4902554	82	C	05/15/2023	22:59	-132.781	47.702	0	308.90	0	4.6310	0	33.8500	0	26.807	0	306.087	0	-1e10	8	-1e10	8	-1E+10	1	-1E+10	1	-1E+10	1	-1E+10	1	-1E+10	1	-1E+10	1
4902554	82	C	05/15/2023	22:59	-132.781	47.702	0	309.80	0	4.6300	0	33.8500	0	26.807	0	306.979	0	-1e10	8	-1e10	8	-1E+10	1	-1E+10	1	-1E+10	1	-1E+10	1	-1E+10	1	-1E+10	1
4902554	82	C	05/15/2023	22:59	-132.781	47.702	0	310.60	0	4.6300	0	33.8500	0	26.807	0	307.771	0	-1e10	8	-1e10	8	-1E+10	1	-1E+10	1	-1E+10	1	-1E+10	1	-1E+10	1	-1E+10	1
4902554	82	C	05/15/2023	22:59	-132.781	47.702	0	311.90	0	4.6280	0	33.8510	0	26.808	0	309.058	0	-1e10	8	-1e10	8	-1E+10	1	-1E+10	1	-1E+10	1	-1E+10	1	-1E+10	1	-1E+10	1
4902554	82	C	05/15/2023	22:59	-132.781	47.702	0	313.40	0	4.6220	0	33.8520	0	26.810	0	310.543	0	-1e10	8	-1e10	8	-1E+10	1	-1E+10	1	-1E+10	1	-1E+10	1	-1E+10	1	-1E+10	1
4902554	82	C	05/15/2023	22:59	-132.781	47.702	0	314.30	0	4.6210	0	33.8530	0	26.811	0	311.434	0	-1e10	8	-1e10	8	-1E+10	1	-1E+10	1	-1E+10	1	-1E+10	1	-1E+10	1	-1E+10	1
4902554	82	C	05/15/2023	22:59	-132.781	47.702	0	315.20	0	4.6190	0	33.8550	0	26.813	0	312.325	0	-1e10	8	-1e10	8	-1E+10	1	-1E+10	1	-1E+10	1	-1E+10	1	-1E+10	1	-1E+10	1
4902554	82	C	05/15/2023	22:59	-132.781	47.702	0	316.10	0	4.6180	0	33.8560	0	26.814	0	313.216	0	-1e10	8	-1e10	8	-1E+10	1	-1E+10	1	-1E+10	1	-1E+10	1	-1E+10	1	-1E+10	1
4902554	82	C	05/15/2023	22:59	-132.781	47.702	0	317.00	0	4.6160	0	33.8580	0	26.815	0	314.108	0	-1e10	8	-1e10	8	-1E+10	1	-1E+10	1	-1E+10	1	-1E+10	1	-1E+10	1	-1E+10	1
4902554	82	C	05/15/2023	22:59	-132.781	47.702	0	317.90	0	4.6140	0	33.8590	0	26.816	0	314.999	0	-1e10	8	-1e10	8	-1E+10	1	-1E+10	1	-1E+10	1	-1E+10	1	-1E+10	1	-1E+10	1
4902554	82	C	05/15/2023	22:59	-132.781	47.702	0	318.80	0	4.6120	0	33.8600	0	26.817	0	315.890	0	-1e10	8	-1e10	8	-1E+10	1	-1E+10	1	-1E+10	1	-1E+10	1	-1E+10	1	-1E+10	1
4902554	82	C	05/15/2023	22:59	-132.781	47.702	0	319.80	0	4.6100	0	33.8630	0	26.820	0	316.880	0	-1e10	8	-1e10	8	-1E+10	1	-1E+10	1	-1E+10	1	-1E+10	1	-1E+10	1	-1E+10	1
4902554	82	C	05/15/2023	22:59	-132.781	47.702	0	320.70	0	4.6090	0	33.8640	0	26.821	0	317.771	0	-1e10	8	-1e10	8	-1E+10	1	-1E+10	1	-1E+10	1	-1E+10	1	-1E+10	1	-1E+10	1
4902554	82	C	05/15/2023	22:59	-132.781	47.702	0	321.60	0	4.6090	0	33.8650	0	26.822	0	318.662	0	-1e10	8	-1e10	8	-1E+10	1	-1E+10	1	-1E+10	1	-1E+10	1	-1E+10	1	-1E+10	1
4902554	82	C	05/15/2023	22:59	-132.781	47.702	0	322.60	0	4.6090	0	33.8660	0	26.823	0	319.652	0	-1e10	8	-1e10	8	-1E+10	1	-1E+10	1	-1E+10	1	-1E+10	1	-1E+10	1	-1E+10	1
4902554	82	C	05/15/2023	22:59	-132.781	47.702	0	323.50	0	4.6080	0	33.8680	0	26.824	0	320.543	0	-1e10	8	-1e10	8	-1E+10	1	-1E+10	1	-1E+10	1	-1E+10	1	-1E+10	1	-1E+10	1
4902554	82	C	05/15/2023	22:59	-132.781	47.702	0	324.90	0	4.6080	0	33.8700	0	26.826	0	321.929	0	-1e10	8	-1e10	8	-1E+10	1	-1E+10	1	-1E+10	1	-1E+10	1	-1E+10	1	-1E+10	1
4902554	82	C	05/15/2023	22:59	-132.781	47.702	0	326.40	0	4.6070	0	33.8710	0	26.827	0	323.414	0	-1e10	8	-1e10	8	-1E+10	1	-1E+10	1	-1E+10	1	-1E+10	1	-1E+10	1	-1E+10	1
4902554	82	C	05/15/2023	22:59	-132.781	47.702	0	327.40	0	4.6050	0	33.8720	0	26.828	0	324.405	0	-1e10	8	-1e10	8	-1E+10	1	-1E+10	1	-1E+10	1	-1E+10	1	-1E+10	1	-1E+10	1
4902554	82	C	05/15/2023	22:59	-132.781	47.702	0	328.30	0	4.6030	0	33.8730	0	26.829	0	325.296	0	-1e10	8	-1e10	8	-1E+10	1	-1E+10	1	-1E+10	1	-1E+10	1	-1E+10	1	-1E+10	1
4902554	82	C	05/15/2023	22:59	-132.781	47.702	0	329.30	0	4.6000	0	33.8750	0	26.831	0	326.286	0	-1e10	8	-1e10	8	-1E+10	1	-1E+10	1	-1E+10	1	-1E+10	1	-1E+10	1	-1E+10	1
4902554	82	C	05/15/2023	22:59	-132.781	47.702	0	330.30	0	4.5950	0	33.8760	0	26.832	0	327.276	0	-1e10	8	-1e10	8	-1E+10	1	-1E+10	1	-1E+10	1	-1E+10	1	-1E+10	1	-1E+10	1
4902554	82	C	05/15/2023	22:59	-132.781	47.702	0	331.30	0	4.5940	0	33.8760	0	26.832	0	328.266	0	-1e10	8	-1e10	8	-1E+10	1	-1E+10	1	-1E+10	1	-1E+10	1	-1E+10	1	-1E+10	1
4902554	82	C	05/15/2023	22:59	-132.781	47.702	0	332.20	0	4.5930	0	33.8760	0	26.832	0	329.157	0	-1e10	8	-1e10	8	-1E+10	1	-1E+10	1	-1E+10	1	-1E+10	1	-1E+10	1	-1E+10	1
4902554	82	C	05/15/2023	22:59	-132.781	47.702	0	333.20	0	4.5890	0	33.8770	0	26.834	0	330.147	0	-1e10	8	-1e10	8	-1E+10	1	-1E+10	1	-1E+10	1	-1E+10	1	-1E+10	1	-1E+10	1
4902554	82	C	05/15/2023	22:59	-132.781	47.702	0	334.20	0	4.5840	0	33.8770	0	26.834	0	331.137	0	-1e10	8	-1e10	8	-1E+10	1	-1E+10	1	-1E+10	1	-1E+10	1	-1E+10	1	-1E+10	1
4902554	82	C	05/15/2023	22:59	-132.781	47.702	0	335.20	0	4.5850	0	33.8770	0	26.834	0	332.127	0	-1e10	8	-1e10	8	-1E+10	1	-1E+10	1	-1E+10	1	-1E+10	1	-1E+10	1	-1E+10	1
4902554	82	C	05/15/2023	22:59	-132.781	47.702	0	336.20	0	4.5810	0	33.8770	0	26.834	0	333.117	0	-1e10	8	-1e10	8	-1E+10	1	-1E+10	1	-1E+10	1	-1E+10	1	-1E+10	1	-1E+10	1
4902554	82	C	05/15/2023	22:59	-132.781	47.702	0	337.20	0	4.5740	0	33.8770	0	26.835	0	334.107	0	-1e10	8	-1e10	8	-1E+10	1	-1E+10	1	-1E+10	1	-1E+10	1	-1E+10	1	-1E+10	1
4902554	82	C	05/15/2023	22:59	-132.781	47.702	0	338.20	0	4.5750	0	33.8760	0	26.834	0	335.097	0	-1e10	8	-1e10	8	-1E+10	1	-1E+10	1	-1E+10	1	-1E+10	1	-1E+10	1	-1E+10	1
4902554	82	C	05/15/2023	22:59	-132.781	47.702	0	339.20	0	4.5740	0	33.8790	0	26.837	0	336.087	0	-1e10	8	-1e10	8	-1E+10	1	-1E+10	1	-1E+10	1	-1E+10	1	-1E+10	1	-1E+10	1
4902554	82	C	05/15/2023	22:59	-132.781	47.702	0	340.30	0	4.5700	0	33.8880	0	26.844	0	337.176	0	-1e10	8	-1e10	8	-1E+10	1	-1E+10	1	-1E+10	1	-1E+10	1	-1E+10	1	-1E+10	1
4902554	82	C	05/15/2023	22:59	-132.781	47.702	0	341.30	0	4.5660	0	33.8900	0	26.846	0	338.166	0	-1e10	8	-1e10	8	-1E+10	1	-1E+10	1	-1E+10	1	-1E+10	1	-1E+10	1	-1E+10	1
4902554	82	C	05/15/2023	22:59	-132.781	47.702	0	342.30	0	4.5480	0	33.8880	0	26.847	0	339.156	0	-1e10	8	-1e10	8	-1E+10	1	-1E+10	1	-1E+10	1	-1E+10	1	-1E+10	1	-1E+10	1
4902554	82	C	05/15/2023	22:59	-132.781	47.702	0	343.30	0	4.5420	0	33.8870	0	26.847	0	340.146	0	-1e10	8	-1e10	8	-1E+10	1	-1E+10	1	-1E+10	1	-1E+10	1	-1E+10	1	-1E+10	1
4902554	82	C	05/15/2023	22:59	-132.781	47.702	0	344.40	0	4.5360	0	33.8880	0	26.848	0	341.235	0	-1e10	8	-1e10	8	-1E+10	1	-1E+10	1	-1E+10	1	-1E+10	1	-1E+10	1	-1E+10	1
4902554	82	C	05/15/2023	22:59	-132.781	47.702	0	345.40	0	4.5270	0	33.8900	0	26.851	0	342.225	0	-1e10	8	-1e10	8	-1E+10	1	-1E+10	1	-1E+10	1	-1E+10	1	-1E+10	1	-1E+10	1
4902554	82	C	05/15/2023	22:59	-132.781	47.702	0	346.50	0	4.5420	0	33.8910	0	26.850	0	343.314	0	-1e10	8	-1e10	8	-1E+10	1	-1E+10	1	-1E+10	1	-1E+10	1	-1E+10	1	-1E+10	1
4902554	82	C	05/15/2023	22:59	-132.781	47.702	0	347.50	0	4.5370	0	33.8930	0	26.852	0	344.304	0	-1e10	8	-1e10	8	-1E+10	1	-1E+10	1	-1E+10	1	-1E+10	1	-1E+10	1	-1E+10	1
4902554	82	C	05/15/2023	22:59	-132.781	47.702	0	348.60	0	4.5360	0	33.8970	0	26.855	0	345.393	0	-1e10	8	-1e10	8	-1E+10	1	-1E+10	1	-1E+10	1	-1E+10	1	-1E+10	1	-1E+10	1
4902554	82	C	05/15/2023	22:59	-132.781	47.702	0	349.60	0	4.5350	0	33.8990	0	26.857	0	346.383	0	-1e10	8	-1e10	8	-1E+10	1	-1E+10	1	-1E+10	1	-1E+10	1	-1E+10	1	-1E+10	1
4902554	82	C	05/15/2023	22:59	-132.781	47.702	0	352.80	0	4.5180	0	33.9010	0	26.860	0	349.551	0	-1e10	8	-1e10	8	-1E+10	1	-1E+10	1	-1E+10	1	-1E+10	1	-1E+10	1	-1E+10	1
4902554	82	C	05/15/2023	22:59	-132.781	47.702	0	357.80	0	4.4660	0	33.9010	0	26.866	0	354.500	0	-1e10	8	-1e10	8	-1E+10	1	-1E+10	1	-1E+10	1	-1E+10	1	-1E+10	1	-1E+10	1
4902554	82	C	05/15/2023	22:59	-132.781	47.702	0	362.70	0	4.4310	0	33.9000	0	26.869	0	359.351	0	-1e10	8	-1e10	8	-1E+10	1	-1E+10	1	-1E+10	1	-1E+10	1	-1E+10	1	-1E+10	1
4902554	82	C	05/15/2023	22:59	-132.781	47.702	0	367.70	0	4.4020	0	33.9060	0	26.877	0	364.300	0	-1e10	8	-1e10	8	-1E+10	1	-1E+10	1	-1E+10	1	-1E+10	1	-1E+10	1	-1E+10	1
4902554	82	C	05/15/2023	22:59	-132.781	47.702	0	372.70	0	4.3850	0	33.9060	0	26.879	0	369.250	0	-1e10	8	-1e10	8	-1E+10	1	-1E+10	1	-1E+10	1	-1E+10	1	-1E+10	1	-1E+10	1
4902554	82	C	05/15/2023	22:59	-132.781	47.702	0	377.70	0	4.3920	0	33.9110	0	26.882	0	374.199	0	-1e10	8	-1e10	8	-1E+10	1	-1E+10	1	-1E+10	1	-1E+10	1	-1E+10	1	-1E+10	1
4902554	82	C	05/15/2023	22:59	-132.781	47.702	0	382.70	0	4.3700	0	33.9190	0	26.891	0	379.148	0	-1e10	8	-1e10	8	-1E+10	1	-1E+10	1	-1E+10	1	-1E+10	1	-1E+10	1	-1E+10	1
4902554	82	C	05/15/2023	22:59	-132.781	47.702	0	387.60	0	4.3120	0	33.9250	0	26.902	0	383.998	0	-1e10	8	-1e10	8	-1E+10	1	-1E+10	1	-1E+10	1	-1E+10	1	-1E+10	1	-1E+10	1
4902554	82	C	05/15/2023	22:59	-132.781	47.702	0	392.70	0	4.3060	0	33.9310	0	26.907	0	389.046	0	-1e10	8	-1e10	8	-1E+10	1	-1E+10	1	-1E+10	1	-1E+10	1	-1E+10	1	-1E+10	1
4902554	82	C	05/15/2023	22:59	-132.781	47.702	0	397.90	0	4.3040	0	33.9360	0	26.911	0	394.192	0	-1e10	8	-1e10	8	-1E+10	1	-1E+10	1	-1E+10	1	-1E+10	1	-1E+10	1	-1E+10	1
4902554	82	C	05/15/2023	22:59	-132.781	47.702	0	403.10	0	4.2980	0	33.9410	0	26.916	0	399.339	0	-1e10	8	-1e10	8	-1E+10	1	-1E+10	1	-1E+10	1	-1E+10	1	-1E+10	1	-1E+10	1
4902554	82	C	05/15/2023	22:59	-132.781	47.702	0	408.00	0	4.2970	0	33.9520	0	26.925	0	404.189	0	-1e10	8	-1e10	8	-1E+10	1	-1E+10	1	-1E+10	1	-1E+10	1	-1E+10	1	-1E+10	1
4902554	82	C	05/15/2023	22:59	-132.781	47.702	0	412.90	0	4.2990	0	33.9540	0	26.926	0	409.038	0	-1e10	8	-1e10	8	-1E+10	1	-1E+10	1	-1E+10	1	-1E+10	1	-1E+10	1	-1E+10	1
4902554	82	C	05/15/2023	22:59	-132.781	47.702	0	417.80	0	4.2990	0	33.9600	0	26.931	0	413.887	0	-1e10	8	-1e10	8	-1E+10	1	-1E+10	1	-1E+10	1	-1E+10	1	-1E+10	1	-1E+10	1
4902554	82	C	05/15/2023	22:59	-132.781	47.702	0	422.70	0	4.2970	0	33.9660	0	26.936	0	418.736	0	-1e10	8	-1e10	8	-1E+10	1	-1E+10	1	-1E+10	1	-1E+10	1	-1E+10	1	-1E+10	1
4902554	82	C	05/15/2023	22:59	-132.781	47.702	0	428.10	0	4.2880	0	33.9730	0	26.943	0	424.080	0	-1e10	8	-1e10	8	-1E+10	1	-1E+10	1	-1E+10	1	-1E+10	1	-1E+10	1	-1E+10	1
4902554	82	C	05/15/2023	22:59	-132.781	47.702	0	433.10	0	4.2740	0	33.9770	0	26.947	0	429.028	0	-1e10	8	-1e10	8	-1E+10	1	-1E+10	1	-1E+10	1	-1E+10	1	-1E+10	1	-1E+10	1
4902554	82	C	05/15/2023	22:59	-132.781	47.702	0	438.00	0	4.2720	0	33.9810	0	26.951	0	433.877	0	-1e10	8	-1e10	8	-1E+10	1	-1E+10	1	-1E+10	1	-1E+10	1	-1E+10	1	-1E+10	1
4902554	82	C	05/15/2023	22:59	-132.781	47.702	0	443.00	0	4.2690	0	33.9920	0	26.960	0	438.825	0	-1e10	8	-1e10	8	-1E+10	1	-1E+10	1	-1E+10	1	-1E+10	1	-1E+10	1	-1E+10	1
4902554	82	C	05/15/2023	22:59	-132.781	47.702	0	447.90	0	4.2550	0	33.9930	0	26.962	0	443.673	0	-1e10	8	-1e10	8	-1E+10	1	-1E+10	1	-1E+10	1	-1E+10	1	-1E+10	1	-1E+10	1
4902554	82	C	05/15/2023	22:59	-132.781	47.702	0	453.00	0	4.2440	0	33.9950	0	26.965	0	448.720	0	-1e10	8	-1e10	8	-1E+10	1	-1E+10	1	-1E+10	1	-1E+10	1	-1E+10	1	-1E+10	1
4902554	82	C	05/15/2023	22:59	-132.781	47.702	0	457.90	0	4.2380	0	34.0000	0	26.970	0	453.568	0	-1e10	8	-1e10	8	-1E+10	1	-1E+10	1	-1E+10	1	-1E+10	1	-1E+10	1	-1E+10	1
4902554	82	C	05/15/2023	22:59	-132.781	47.702	0	462.90	0	4.2330	0	34.0040	0	26.973	0	458.515	0	-1e10	8	-1e10	8	-1E+10	1	-1E+10	1	-1E+10	1	-1E+10	1	-1E+10	1	-1E+10	1
4902554	82	C	05/15/2023	22:59	-132.781	47.702	0	468.00	0	4.2170	0	34.0130	0	26.982	0	463.561	0	-1e10	8	-1e10	8	-1E+10	1	-1E+10	1	-1E+10	1	-1E+10	1	-1E+10	1	-1E+10	1
4902554	82	C	05/15/2023	22:59	-132.781	47.702	0	473.00	0	4.2020	0	34.0200	0	26.989	0	468.508	0	-1e10	8	-1e10	8	-1E+10	1	-1E+10	1	-1E+10	1	-1E+10	1	-1E+10	1	-1E+10	1
4902554	82	C	05/15/2023	22:59	-132.781	47.702	0	478.00	0	4.1900	0	34.0260	0	26.995	0	473.455	0	-1e10	8	-1e10	8	-1E+10	1	-1E+10	1	-1E+10	1	-1E+10	1	-1E+10	1	-1E+10	1
4902554	82	C	05/15/2023	22:59	-132.781	47.702	0	483.20	0	4.1820	0	34.0330	0	27.002	0	478.599	0	-1e10	8	-1e10	8	-1E+10	1	-1E+10	1	-1E+10	1	-1E+10	1	-1E+10	1	-1E+10	1
4902554	82	C	05/15/2023	22:59	-132.781	47.702	0	488.00	0	4.1760	0	34.0390	0	27.007	0	483.348	0	-1e10	8	-1e10	8	-1E+10	1	-1E+10	1	-1E+10	1	-1E+10	1	-1E+10	1	-1E+10	1
4902554	82	C	05/15/2023	22:59	-132.781	47.702	0	492.90	0	4.1670	0	34.0460	0	27.014	0	488.196	0	-1e10	8	-1e10	8	-1E+10	1	-1E+10	1	-1E+10	1	-1E+10	1	-1E+10	1	-1E+10	1
4902554	82	C	05/15/2023	22:59	-132.781	47.702	0	497.80	0	4.1550	0	34.0530	0	27.021	0	493.043	0	-1e10	8	-1e10	8	-1E+10	1	-1E+10	1	-1E+10	1	-1E+10	1	-1E+10	1	-1E+10	1
4902554	82	C	05/15/2023	22:59	-132.781	47.702	0	502.80	0	4.1390	0	34.0600	0	27.028	0	497.989	0	-1e10	8	-1e10	8	-1E+10	1	-1E+10	1	-1E+10	1	-1E+10	1	-1E+10	1	-1E+10	1
4902554	82	C	05/15/2023	22:59	-132.781	47.702	0	507.70	0	4.1310	0	34.0650	0	27.033	0	502.836	0	-1e10	8	-1e10	8	-1E+10	1	-1E+10	1	-1E+10	1	-1E+10	1	-1E+10	1	-1E+10	1
4902554	82	C	05/15/2023	22:59	-132.781	47.702	0	512.70	0	4.1180	0	34.0700	0	27.038	0	507.782	0	-1e10	8	-1e10	8	-1E+10	1	-1E+10	1	-1E+10	1	-1E+10	1	-1E+10	1	-1E+10	1
4902554	82	C	05/15/2023	22:59	-132.781	47.702	0	517.80	0	4.1050	0	34.0750	0	27.043	0	512.827	0	-1e10	8	-1e10	8	-1E+10	1	-1E+10	1	-1E+10	1	-1E+10	1	-1E+10	1	-1E+10	1
4902554	82	C	05/15/2023	22:59	-132.781	47.702	0	522.80	0	4.0970	0	34.0800	0	27.048	0	517.773	0	-1e10	8	-1e10	8	-1E+10	1	-1E+10	1	-1E+10	1	-1E+10	1	-1E+10	1	-1E+10	1
4902554	82	C	05/15/2023	22:59	-132.781	47.702	0	527.90	0	4.0870	0	34.0830	0	27.052	0	522.818	0	-1e10	8	-1e10	8	-1E+10	1	-1E+10	1	-1E+10	1	-1E+10	1	-1E+10	1	-1E+10	1
4902554	82	C	05/15/2023	22:59	-132.781	47.702	0	533.10	0	4.0730	0	34.0890	0	27.058	0	527.961	0	-1e10	8	-1e10	8	-1E+10	1	-1E+10	1	-1E+10	1	-1E+10	1	-1E+10	1	-1E+10	1
4902554	82	C	05/15/2023	22:59	-132.781	47.702	0	538.20	0	4.0650	0	34.0910	0	27.060	0	533.005	0	-1e10	8	-1e10	8	-1E+10	1	-1E+10	1	-1E+10	1	-1E+10	1	-1E+10	1	-1E+10	1
4902554	82	C	05/15/2023	22:59	-132.781	47.702	0	542.90	0	4.0510	0	34.0960	0	27.066	0	537.654	0	-1e10	8	-1e10	8	-1E+10	1	-1E+10	1	-1E+10	1	-1E+10	1	-1E+10	1	-1E+10	1
4902554	82	C	05/15/2023	22:59	-132.781	47.702	0	547.60	0	4.0350	0	34.1020	0	27.072	0	542.302	0	-1e10	8	-1e10	8	-1E+10	1	-1E+10	1	-1E+10	1	-1E+10	1	-1E+10	1	-1E+10	1
4902554	82	C	05/15/2023	22:59	-132.781	47.702	0	552.80	0	4.0260	0	34.1060	0	27.076	0	547.445	0	-1e10	8	-1e10	8	-1E+10	1	-1E+10	1	-1E+10	1	-1E+10	1	-1E+10	1	-1E+10	1
4902554	82	C	05/15/2023	22:59	-132.781	47.702	0	558.00	0	4.0190	0	34.1100	0	27.080	0	552.588	0	-1e10	8	-1e10	8	-1E+10	1	-1E+10	1	-1E+10	1	-1E+10	1	-1E+10	1	-1E+10	1
4902554	82	C	05/15/2023	22:59	-132.781	47.702	0	563.20	0	4.0100	0	34.1130	0	27.084	0	557.730	0	-1e10	8	-1e10	8	-1E+10	1	-1E+10	1	-1E+10	1	-1E+10	1	-1E+10	1	-1E+10	1
4902554	82	C	05/15/2023	22:59	-132.781	47.702	0	568.00	0	3.9990	0	34.1170	0	27.088	0	562.477	0	-1e10	8	-1e10	8	-1E+10	1	-1E+10	1	-1E+10	1	-1E+10	1	-1E+10	1	-1E+10	1
4902554	82	C	05/15/2023	22:59	-132.781	47.702	0	572.80	0	3.9880	0	34.1210	0	27.092	0	567.224	0	-1e10	8	-1e10	8	-1E+10	1	-1E+10	1	-1E+10	1	-1E+10	1	-1E+10	1	-1E+10	1
4902554	82	C	05/15/2023	22:59	-132.781	47.702	0	577.70	0	3.9750	0	34.1250	0	27.097	0	572.070	0	-1e10	8	-1e10	8	-1E+10	1	-1E+10	1	-1E+10	1	-1E+10	1	-1E+10	1	-1E+10	1
4902554	82	C	05/15/2023	22:59	-132.781	47.702	0	582.60	0	3.9620	0	34.1290	0	27.102	0	576.915	0	-1e10	8	-1e10	8	-1E+10	1	-1E+10	1	-1E+10	1	-1E+10	1	-1E+10	1	-1E+10	1
4902554	82	C	05/15/2023	22:59	-132.781	47.702	0	587.90	0	3.9460	0	34.1350	0	27.108	0	582.156	0	-1e10	8	-1e10	8	-1E+10	1	-1E+10	1	-1E+10	1	-1E+10	1	-1E+10	1	-1E+10	1
4902554	82	C	05/15/2023	22:59	-132.781	47.702	0	593.30	0	3.9350	0	34.1390	0	27.112	0	587.496	0	-1e10	8	-1e10	8	-1E+10	1	-1E+10	1	-1E+10	1	-1E+10	1	-1E+10	1	-1E+10	1
4902554	82	C	05/15/2023	22:59	-132.781	47.702	0	598.20	0	3.9240	0	34.1430	0	27.117	0	592.341	0	-1e10	8	-1e10	8	-1E+10	1	-1E+10	1	-1E+10	1	-1E+10	1	-1E+10	1	-1E+10	1
4902554	82	C	05/15/2023	22:59	-132.781	47.702	0	603.30	0	3.9130	0	34.1470	0	27.121	0	597.383	0	-1e10	8	-1e10	8	-1E+10	1	-1E+10	1	-1E+10	1	-1E+10	1	-1E+10	1	-1E+10	1
4902554	82	C	05/15/2023	22:59	-132.781	47.702	0	608.30	0	3.8880	0	34.1560	0	27.131	0	602.327	0	-1e10	8	-1e10	8	-1E+10	1	-1E+10	1	-1E+10	1	-1E+10	1	-1E+10	1	-1E+10	1
4902554	82	C	05/15/2023	22:59	-132.781	47.702	0	612.90	0	3.8810	0	34.1590	0	27.134	0	606.875	0	-1e10	8	-1e10	8	-1E+10	1	-1E+10	1	-1E+10	1	-1E+10	1	-1E+10	1	-1E+10	1
4902554	82	C	05/15/2023	22:59	-132.781	47.702	0	617.60	0	3.8650	0	34.1640	0	27.139	0	611.522	0	-1e10	8	-1e10	8	-1E+10	1	-1E+10	1	-1E+10	1	-1E+10	1	-1E+10	1	-1E+10	1
4902554	82	C	05/15/2023	22:59	-132.781	47.702	0	622.80	0	3.8570	0	34.1670	0	27.143	0	616.663	0	-1e10	8	-1e10	8	-1E+10	1	-1E+10	1	-1E+10	1	-1E+10	1	-1E+10	1	-1E+10	1
4902554	82	C	05/15/2023	22:59	-132.781	47.702	0	628.00	0	3.8430	0	34.1720	0	27.148	0	621.804	0	-1e10	8	-1e10	8	-1E+10	1	-1E+10	1	-1E+10	1	-1E+10	1	-1E+10	1	-1E+10	1
4902554	82	C	05/15/2023	22:59	-132.781	47.702	0	632.80	0	3.8350	0	34.1740	0	27.150	0	626.550	0	-1e10	8	-1e10	8	-1E+10	1	-1E+10	1	-1E+10	1	-1E+10	1	-1E+10	1	-1E+10	1
4902554	82	C	05/15/2023	22:59	-132.781	47.702	0	637.60	0	3.8290	0	34.1760	0	27.153	0	631.295	0	-1e10	8	-1e10	8	-1E+10	1	-1E+10	1	-1E+10	1	-1E+10	1	-1E+10	1	-1E+10	1
4902554	82	C	05/15/2023	22:59	-132.781	47.702	0	643.10	0	3.8150	0	34.1800	0	27.157	0	636.732	0	-1e10	8	-1e10	8	-1E+10	1	-1E+10	1	-1E+10	1	-1E+10	1	-1E+10	1	-1E+10	1
4902554	82	C	05/15/2023	22:59	-132.781	47.702	0	648.10	0	3.7990	0	34.1850	0	27.163	0	641.675	0	-1e10	8	-1e10	8	-1E+10	1	-1E+10	1	-1E+10	1	-1E+10	1	-1E+10	1	-1E+10	1
4902554	82	C	05/15/2023	22:59	-132.781	47.702	0	652.80	0	3.7930	0	34.1870	0	27.165	0	646.321	0	-1e10	8	-1e10	8	-1E+10	1	-1E+10	1	-1E+10	1	-1E+10	1	-1E+10	1	-1E+10	1
4902554	82	C	05/15/2023	22:59	-132.781	47.702	0	657.90	0	3.7850	0	34.1890	0	27.168	0	651.363	0	-1e10	8	-1e10	8	-1E+10	1	-1E+10	1	-1E+10	1	-1E+10	1	-1E+10	1	-1E+10	1
4902554	82	C	05/15/2023	22:59	-132.781	47.702	0	663.10	0	3.7690	0	34.1940	0	27.173	0	656.503	0	-1e10	8	-1e10	8	-1E+10	1	-1E+10	1	-1E+10	1	-1E+10	1	-1E+10	1	-1E+10	1
4902554	82	C	05/15/2023	22:59	-132.781	47.702	0	667.90	0	3.7580	0	34.1970	0	27.177	0	661.247	0	-1e10	8	-1e10	8	-1E+10	1	-1E+10	1	-1E+10	1	-1E+10	1	-1E+10	1	-1E+10	1
4902554	82	C	05/15/2023	22:59	-132.781	47.702	0	672.70	0	3.7530	0	34.1980	0	27.178	0	665.992	0	-1e10	8	-1e10	8	-1E+10	1	-1E+10	1	-1E+10	1	-1E+10	1	-1E+10	1	-1E+10	1
4902554	82	C	05/15/2023	22:59	-132.781	47.702	0	677.90	0	3.7410	0	34.2020	0	27.182	0	671.132	0	-1e10	8	-1e10	8	-1E+10	1	-1E+10	1	-1E+10	1	-1E+10	1	-1E+10	1	-1E+10	1
4902554	82	C	05/15/2023	22:59	-132.781	47.702	0	683.30	0	3.7290	0	34.2050	0	27.186	0	676.469	0	-1e10	8	-1e10	8	-1E+10	1	-1E+10	1	-1E+10	1	-1E+10	1	-1E+10	1	-1E+10	1
4902554	82	C	05/15/2023	22:59	-132.781	47.702	0	688.30	0	3.7180	0	34.2080	0	27.190	0	681.411	0	-1e10	8	-1e10	8	-1E+10	1	-1E+10	1	-1E+10	1	-1E+10	1	-1E+10	1	-1E+10	1
4902554	82	C	05/15/2023	22:59	-132.781	47.702	0	693.30	0	3.7090	0	34.2110	0	27.193	0	686.353	0	-1e10	8	-1e10	8	-1E+10	1	-1E+10	1	-1E+10	1	-1E+10	1	-1E+10	1	-1E+10	1
4902554	82	C	05/15/2023	22:59	-132.781	47.702	0	697.90	0	3.7030	0	34.2120	0	27.194	0	690.899	0	-1e10	8	-1e10	8	-1E+10	1	-1E+10	1	-1E+10	1	-1E+10	1	-1E+10	1	-1E+10	1
4902554	82	C	05/15/2023	22:59	-132.781	47.702	0	702.50	0	3.6910	0	34.2160	0	27.199	0	695.445	0	-1e10	8	-1e10	8	-1E+10	1	-1E+10	1	-1E+10	1	-1E+10	1	-1E+10	1	-1E+10	1
4902554	82	C	05/15/2023	22:59	-132.781	47.702	0	707.80	0	3.6820	0	34.2180	0	27.201	0	700.683	0	-1e10	8	-1e10	8	-1E+10	1	-1E+10	1	-1E+10	1	-1E+10	1	-1E+10	1	-1E+10	1
4902554	82	C	05/15/2023	22:59	-132.781	47.702	0	713.00	0	3.6610	0	34.2230	0	27.207	0	705.822	0	-1e10	8	-1e10	8	-1E+10	1	-1E+10	1	-1E+10	1	-1E+10	1	-1E+10	1	-1E+10	1
4902554	82	C	05/15/2023	22:59	-132.781	47.702	0	718.20	0	3.6390	0	34.2290	0	27.214	0	710.961	0	-1e10	8	-1e10	8	-1E+10	1	-1E+10	1	-1E+10	1	-1E+10	1	-1E+10	1	-1E+10	1
4902554	82	C	05/15/2023	22:59	-132.781	47.702	0	723.40	0	3.6150	0	34.2350	0	27.221	0	716.099	0	-1e10	8	-1e10	8	-1E+10	1	-1E+10	1	-1E+10	1	-1E+10	1	-1E+10	1	-1E+10	1
4902554	82	C	05/15/2023	22:59	-132.781	47.702	0	728.10	0	3.6080	0	34.2360	0	27.223	0	720.744	0	-1e10	8	-1e10	8	-1E+10	1	-1E+10	1	-1E+10	1	-1E+10	1	-1E+10	1	-1E+10	1
4902554	82	C	05/15/2023	22:59	-132.781	47.702	0	732.60	0	3.5990	0	34.2390	0	27.226	0	725.190	0	-1e10	8	-1e10	8	-1E+10	1	-1E+10	1	-1E+10	1	-1E+10	1	-1E+10	1	-1E+10	1
4902554	82	C	05/15/2023	22:59	-132.781	47.702	0	737.60	0	3.5910	0	34.2400	0	27.228	0	730.131	0	-1e10	8	-1e10	8	-1E+10	1	-1E+10	1	-1E+10	1	-1E+10	1	-1E+10	1	-1E+10	1
4902554	82	C	05/15/2023	22:59	-132.781	47.702	0	742.50	0	3.5700	0	34.2460	0	27.235	0	734.973	0	-1e10	8	-1e10	8	-1E+10	1	-1E+10	1	-1E+10	1	-1E+10	1	-1E+10	1	-1E+10	1
4902554	82	C	05/15/2023	22:59	-132.781	47.702	0	747.60	0	3.5660	0	34.2470	0	27.236	0	740.012	0	-1e10	8	-1e10	8	-1E+10	1	-1E+10	1	-1E+10	1	-1E+10	1	-1E+10	1	-1E+10	1
4902554	82	C	05/15/2023	22:59	-132.781	47.702	0	752.80	0	3.5590	0	34.2490	0	27.238	0	745.150	0	-1e10	8	-1e10	8	-1E+10	1	-1E+10	1	-1E+10	1	-1E+10	1	-1E+10	1	-1E+10	1
4902554	82	C	05/15/2023	22:59	-132.781	47.702	0	758.00	0	3.5480	0	34.2510	0	27.241	0	750.288	0	-1e10	8	-1e10	8	-1E+10	1	-1E+10	1	-1E+10	1	-1E+10	1	-1E+10	1	-1E+10	1
4902554	82	C	05/15/2023	22:59	-132.781	47.702	0	762.80	0	3.5290	0	34.2560	0	27.247	0	755.030	0	-1e10	8	-1e10	8	-1E+10	1	-1E+10	1	-1E+10	1	-1E+10	1	-1E+10	1	-1E+10	1
4902554	82	C	05/15/2023	22:59	-132.781	47.702	0	767.70	0	3.5140	0	34.2600	0	27.251	0	759.872	0	-1e10	8	-1e10	8	-1E+10	1	-1E+10	1	-1E+10	1	-1E+10	1	-1E+10	1	-1E+10	1
4902554	82	C	05/15/2023	22:59	-132.781	47.702	0	773.00	0	3.4990	0	34.2630	0	27.255	0	765.108	0	-1e10	8	-1e10	8	-1E+10	1	-1E+10	1	-1E+10	1	-1E+10	1	-1E+10	1	-1E+10	1
4902554	82	C	05/15/2023	22:59	-132.781	47.702	0	778.00	0	3.4810	0	34.2680	0	27.261	0	770.048	0	-1e10	8	-1e10	8	-1E+10	1	-1E+10	1	-1E+10	1	-1E+10	1	-1E+10	1	-1E+10	1
4902554	82	C	05/15/2023	22:59	-132.781	47.702	0	783.00	0	3.4760	0	34.2690	0	27.262	0	774.987	0	-1e10	8	-1e10	8	-1E+10	1	-1E+10	1	-1E+10	1	-1E+10	1	-1E+10	1	-1E+10	1
4902554	82	C	05/15/2023	22:59	-132.781	47.702	0	788.00	0	3.4700	0	34.2700	0	27.264	0	779.927	0	-1e10	8	-1e10	8	-1E+10	1	-1E+10	1	-1E+10	1	-1E+10	1	-1E+10	1	-1E+10	1
4902554	82	C	05/15/2023	22:59	-132.781	47.702	0	792.90	0	3.4540	0	34.2730	0	27.268	0	784.767	0	-1e10	8	-1e10	8	-1E+10	1	-1E+10	1	-1E+10	1	-1E+10	1	-1E+10	1	-1E+10	1
4902554	82	C	05/15/2023	22:59	-132.781	47.702	0	798.00	0	3.4430	0	34.2760	0	27.271	0	789.805	0	-1e10	8	-1e10	8	-1E+10	1	-1E+10	1	-1E+10	1	-1E+10	1	-1E+10	1	-1E+10	1
4902554	82	C	05/15/2023	22:59	-132.781	47.702	0	803.00	0	3.4340	0	34.2780	0	27.274	0	794.744	0	-1e10	8	-1e10	8	-1E+10	1	-1E+10	1	-1E+10	1	-1E+10	1	-1E+10	1	-1E+10	1
4902554	82	C	05/15/2023	22:59	-132.781	47.702	0	808.00	0	3.4230	0	34.2810	0	27.277	0	799.684	0	-1e10	8	-1e10	8	-1E+10	1	-1E+10	1	-1E+10	1	-1E+10	1	-1E+10	1	-1E+10	1
4902554	82	C	05/15/2023	22:59	-132.781	47.702	0	813.10	0	3.4150	0	34.2820	0	27.279	0	804.721	0	-1e10	8	-1e10	8	-1E+10	1	-1E+10	1	-1E+10	1	-1E+10	1	-1E+10	1	-1E+10	1
4902554	82	C	05/15/2023	22:59	-132.781	47.702	0	818.10	0	3.4030	0	34.2850	0	27.282	0	809.660	0	-1e10	8	-1e10	8	-1E+10	1	-1E+10	1	-1E+10	1	-1E+10	1	-1E+10	1	-1E+10	1
4902554	82	C	05/15/2023	22:59	-132.781	47.702	0	822.60	0	3.3980	0	34.2860	0	27.284	0	814.105	0	-1e10	8	-1e10	8	-1E+10	1	-1E+10	1	-1E+10	1	-1E+10	1	-1E+10	1	-1E+10	1
4902554	82	C	05/15/2023	22:59	-132.781	47.702	0	827.80	0	3.3890	0	34.2880	0	27.286	0	819.241	0	-1e10	8	-1e10	8	-1E+10	1	-1E+10	1	-1E+10	1	-1E+10	1	-1E+10	1	-1E+10	1
4902554	82	C	05/15/2023	22:59	-132.781	47.702	0	832.90	0	3.3780	0	34.2900	0	27.289	0	824.278	0	-1e10	8	-1e10	8	-1E+10	1	-1E+10	1	-1E+10	1	-1E+10	1	-1E+10	1	-1E+10	1
4902554	82	C	05/15/2023	22:59	-132.781	47.702	0	838.00	0	3.3640	0	34.2930	0	27.292	0	829.315	0	-1e10	8	-1e10	8	-1E+10	1	-1E+10	1	-1E+10	1	-1E+10	1	-1E+10	1	-1E+10	1
4902554	82	C	05/15/2023	22:59	-132.781	47.702	0	843.20	0	3.3510	0	34.2960	0	27.296	0	834.451	0	-1e10	8	-1e10	8	-1E+10	1	-1E+10	1	-1E+10	1	-1E+10	1	-1E+10	1	-1E+10	1
4902554	82	C	05/15/2023	22:59	-132.781	47.702	0	847.80	0	3.3430	0	34.2980	0	27.298	0	838.994	0	-1e10	8	-1e10	8	-1E+10	1	-1E+10	1	-1E+10	1	-1E+10	1	-1E+10	1	-1E+10	1
4902554	82	C	05/15/2023	22:59	-132.781	47.702	0	852.80	0	3.3260	0	34.3010	0	27.302	0	843.932	0	-1e10	8	-1e10	8	-1E+10	1	-1E+10	1	-1E+10	1	-1E+10	1	-1E+10	1	-1E+10	1
4902554	82	C	05/15/2023	22:59	-132.781	47.702	0	857.80	0	3.3160	0	34.3030	0	27.305	0	848.870	0	-1e10	8	-1e10	8	-1E+10	1	-1E+10	1	-1E+10	1	-1E+10	1	-1E+10	1	-1E+10	1
4902554	82	C	05/15/2023	22:59	-132.781	47.702	0	862.70	0	3.3060	0	34.3050	0	27.308	0	853.709	0	-1e10	8	-1e10	8	-1E+10	1	-1E+10	1	-1E+10	1	-1E+10	1	-1E+10	1	-1E+10	1
4902554	82	C	05/15/2023	22:59	-132.781	47.702	0	867.80	0	3.2940	0	34.3080	0	27.311	0	858.745	0	-1e10	8	-1e10	8	-1E+10	1	-1E+10	1	-1E+10	1	-1E+10	1	-1E+10	1	-1E+10	1
4902554	82	C	05/15/2023	22:59	-132.781	47.702	0	872.70	0	3.2860	0	34.3100	0	27.313	0	863.584	0	-1e10	8	-1e10	8	-1E+10	1	-1E+10	1	-1E+10	1	-1E+10	1	-1E+10	1	-1E+10	1
4902554	82	C	05/15/2023	22:59	-132.781	47.702	0	877.70	0	3.2800	0	34.3110	0	27.315	0	868.521	0	-1e10	8	-1e10	8	-1E+10	1	-1E+10	1	-1E+10	1	-1E+10	1	-1E+10	1	-1E+10	1
4902554	82	C	05/15/2023	22:59	-132.781	47.702	0	882.80	0	3.2690	0	34.3140	0	27.318	0	873.557	0	-1e10	8	-1e10	8	-1E+10	1	-1E+10	1	-1E+10	1	-1E+10	1	-1E+10	1	-1E+10	1
4902554	82	C	05/15/2023	22:59	-132.781	47.702	0	887.90	0	3.2620	0	34.3160	0	27.321	0	878.593	0	-1e10	8	-1e10	8	-1E+10	1	-1E+10	1	-1E+10	1	-1E+10	1	-1E+10	1	-1E+10	1
4902554	82	C	05/15/2023	22:59	-132.781	47.702	0	892.90	0	3.2570	0	34.3170	0	27.322	0	883.530	0	-1e10	8	-1e10	8	-1E+10	1	-1E+10	1	-1E+10	1	-1E+10	1	-1E+10	1	-1E+10	1
4902554	82	C	05/15/2023	22:59	-132.781	47.702	0	898.00	0	3.2460	0	34.3200	0	27.325	0	888.566	0	-1e10	8	-1e10	8	-1E+10	1	-1E+10	1	-1E+10	1	-1E+10	1	-1E+10	1	-1E+10	1
4902554	82	C	05/15/2023	22:59	-132.781	47.702	0	902.70	0	3.2330	0	34.3230	0	27.329	0	893.207	0	-1e10	8	-1e10	8	-1E+10	1	-1E+10	1	-1E+10	1	-1E+10	1	-1E+10	1	-1E+10	1
4902554	82	C	05/15/2023	22:59	-132.781	47.702	0	907.90	0	3.2140	0	34.3270	0	27.334	0	898.341	0	-1e10	8	-1e10	8	-1E+10	1	-1E+10	1	-1E+10	1	-1E+10	1	-1E+10	1	-1E+10	1
4902554	82	C	05/15/2023	22:59	-132.781	47.702	0	913.20	0	3.1960	0	34.3330	0	27.340	0	903.573	0	-1e10	8	-1e10	8	-1E+10	1	-1E+10	1	-1E+10	1	-1E+10	1	-1E+10	1	-1E+10	1
4902554	82	C	05/15/2023	22:59	-132.781	47.702	0	918.10	0	3.1820	0	34.3360	0	27.344	0	908.411	0	-1e10	8	-1e10	8	-1E+10	1	-1E+10	1	-1E+10	1	-1E+10	1	-1E+10	1	-1E+10	1
4902554	82	C	05/15/2023	22:59	-132.781	47.702	0	922.90	0	3.1700	0	34.3390	0	27.348	0	913.150	0	-1e10	8	-1e10	8	-1E+10	1	-1E+10	1	-1E+10	1	-1E+10	1	-1E+10	1	-1E+10	1
4902554	82	C	05/15/2023	22:59	-132.781	47.702	0	927.80	0	3.1570	0	34.3420	0	27.351	0	917.988	0	-1e10	8	-1e10	8	-1E+10	1	-1E+10	1	-1E+10	1	-1E+10	1	-1E+10	1	-1E+10	1
4902554	82	C	05/15/2023	22:59	-132.781	47.702	0	933.00	0	3.1410	0	34.3460	0	27.356	0	923.121	0	-1e10	8	-1e10	8	-1E+10	1	-1E+10	1	-1E+10	1	-1E+10	1	-1E+10	1	-1E+10	1
4902554	82	C	05/15/2023	22:59	-132.781	47.702	0	938.00	0	3.1310	0	34.3490	0	27.359	0	928.057	0	-1e10	8	-1e10	8	-1E+10	1	-1E+10	1	-1E+10	1	-1E+10	1	-1E+10	1	-1E+10	1
4902554	82	C	05/15/2023	22:59	-132.781	47.702	0	942.80	0	3.1270	0	34.3500	0	27.361	0	932.795	0	-1e10	8	-1e10	8	-1E+10	1	-1E+10	1	-1E+10	1	-1E+10	1	-1E+10	1	-1E+10	1
4902554	82	C	05/15/2023	22:59	-132.781	47.702	0	947.80	0	3.1220	0	34.3510	0	27.362	0	937.731	0	-1e10	8	-1e10	8	-1E+10	1	-1E+10	1	-1E+10	1	-1E+10	1	-1E+10	1	-1E+10	1
4902554	82	C	05/15/2023	22:59	-132.781	47.702	0	953.00	0	3.1090	0	34.3540	0	27.365	0	942.864	0	-1e10	8	-1e10	8	-1E+10	1	-1E+10	1	-1E+10	1	-1E+10	1	-1E+10	1	-1E+10	1
4902554	82	C	05/15/2023	22:59	-132.781	47.702	0	957.90	0	3.0950	0	34.3570	0	27.369	0	947.701	0	-1e10	8	-1e10	8	-1E+10	1	-1E+10	1	-1E+10	1	-1E+10	1	-1E+10	1	-1E+10	1
4902554	82	C	05/15/2023	22:59	-132.781	47.702	0	962.80	0	3.0890	0	34.3590	0	27.371	0	952.538	0	-1e10	8	-1e10	8	-1E+10	1	-1E+10	1	-1E+10	1	-1E+10	1	-1E+10	1	-1E+10	1
4902554	82	C	05/15/2023	22:59	-132.781	47.702	0	967.90	0	3.0810	0	34.3610	0	27.374	0	957.572	0	-1e10	8	-1e10	8	-1E+10	1	-1E+10	1	-1E+10	1	-1E+10	1	-1E+10	1	-1E+10	1
4902554	82	C	05/15/2023	22:59	-132.781	47.702	0	972.70	0	3.0790	0	34.3620	0	27.375	0	962.310	0	-1e10	8	-1e10	8	-1E+10	1	-1E+10	1	-1E+10	1	-1E+10	1	-1E+10	1	-1E+10	1
4902554	82	C	05/15/2023	22:59	-132.781	47.702	0	977.70	0	3.0740	0	34.3630	0	27.376	0	967.245	0	-1e10	8	-1e10	8	-1E+10	1	-1E+10	1	-1E+10	1	-1E+10	1	-1E+10	1	-1E+10	1
4902554	82	C	05/15/2023	22:59	-132.781	47.702	0	982.70	0	3.0620	0	34.3650	0	27.379	0	972.180	0	-1e10	8	-1e10	8	-1E+10	1	-1E+10	1	-1E+10	1	-1E+10	1	-1E+10	1	-1E+10	1
4902554	82	C	05/15/2023	22:59	-132.781	47.702	0	987.80	0	3.0510	0	34.3690	0	27.383	0	977.213	0	-1e10	8	-1e10	8	-1E+10	1	-1E+10	1	-1E+10	1	-1E+10	1	-1E+10	1	-1E+10	1
4902554	82	C	05/15/2023	22:59	-132.781	47.702	0	992.90	0	3.0480	0	34.3690	0	27.383	0	982.246	0	-1e10	8	-1e10	8	-1E+10	1	-1E+10	1	-1E+10	1	-1E+10	1	-1E+10	1	-1E+10	1
4902554	82	C	05/15/2023	22:59	-132.781	47.702	0	998.20	0	3.0470	0	34.3700	0	27.384	0	987.477	0	-1e10	8	-1e10	8	-1E+10	1	-1E+10	1	-1E+10	1	-1E+10	1	-1E+10	1	-1E+10	1
4902554	82	C	05/15/2023	22:59	-132.781	47.702	0	1005.60	0	3.0360	0	34.3730	0	27.388	0	994.780	0	-1e10	8	-1e10	8	-1E+10	1	-1E+10	1	-1E+10	1	-1E+10	1	-1E+10	1	-1E+10	1
4902554	82	C	05/15/2023	22:59	-132.781	47.702	0	1015.40	0	3.0270	0	34.3750	0	27.390	0	1004.451	0	-1e10	8	-1e10	8	-1E+10	1	-1E+10	1	-1E+10	1	-1E+10	1	-1E+10	1	-1E+10	1
4902554	82	C	05/15/2023	22:59	-132.781	47.702	0	1025.20	0	3.0220	0	34.3760	0	27.391	0	1014.122	0	-1e10	8	-1e10	8	-1E+10	1	-1E+10	1	-1E+10	1	-1E+10	1	-1E+10	1	-1E+10	1
4902554	82	C	05/15/2023	22:59	-132.781	47.702	0	1035.50	0	3.0060	0	34.3800	0	27.396	0	1024.285	0	-1e10	8	-1e10	8	-1E+10	1	-1E+10	1	-1E+10	1	-1E+10	1	-1E+10	1	-1E+10	1
4902554	82	C	05/15/2023	22:59	-132.781	47.702	0	1045.80	0	2.9940	0	34.3830	0	27.400	0	1034.448	0	-1e10	8	-1e10	8	-1E+10	1	-1E+10	1	-1E+10	1	-1E+10	1	-1E+10	1	-1E+10	1
4902554	82	C	05/15/2023	22:59	-132.781	47.702	0	1055.40	0	2.9820	0	34.3850	0	27.402	0	1043.920	0	-1e10	8	-1e10	8	-1E+10	1	-1E+10	1	-1E+10	1	-1E+10	1	-1E+10	1	-1E+10	1
4902554	82	C	05/15/2023	22:59	-132.781	47.702	0	1065.50	0	2.9680	0	34.3880	0	27.406	0	1053.885	0	-1e10	8	-1e10	8	-1E+10	1	-1E+10	1	-1E+10	1	-1E+10	1	-1E+10	1	-1E+10	1
4902554	82	C	05/15/2023	22:59	-132.781	47.702	0	1075.70	0	2.9510	0	34.3920	0	27.411	0	1063.948	0	-1e10	8	-1e10	8	-1E+10	1	-1E+10	1	-1E+10	1	-1E+10	1	-1E+10	1	-1E+10	1
4902554	82	C	05/15/2023	22:59	-132.781	47.702	0	1085.20	0	2.9400	0	34.3940	0	27.413	0	1073.320	0	-1e10	8	-1e10	8	-1E+10	1	-1E+10	1	-1E+10	1	-1E+10	1	-1E+10	1	-1E+10	1
4902554	82	C	05/15/2023	22:59	-132.781	47.702	0	1095.20	0	2.9250	0	34.3970	0	27.417	0	1083.185	0	-1e10	8	-1e10	8	-1E+10	1	-1E+10	1	-1E+10	1	-1E+10	1	-1E+10	1	-1E+10	1
4902554	82	C	05/15/2023	22:59	-132.781	47.702	0	1105.60	0	2.9070	0	34.4020	0	27.423	0	1093.444	0	-1e10	8	-1e10	8	-1E+10	1	-1E+10	1	-1E+10	1	-1E+10	1	-1E+10	1	-1E+10	1
4902554	82	C	05/15/2023	22:59	-132.781	47.702	0	1115.50	0	2.8930	0	34.4060	0	27.427	0	1103.209	0	-1e10	8	-1e10	8	-1E+10	1	-1E+10	1	-1E+10	1	-1E+10	1	-1E+10	1	-1E+10	1
4902554	82	C	05/15/2023	22:59	-132.781	47.702	0	1125.30	0	2.8820	0	34.4080	0	27.430	0	1112.875	0	-1e10	8	-1e10	8	-1E+10	1	-1E+10	1	-1E+10	1	-1E+10	1	-1E+10	1	-1E+10	1
4902554	82	C	05/15/2023	22:59	-132.781	47.702	0	1135.70	0	2.8670	0	34.4130	0	27.435	0	1123.132	0	-1e10	8	-1e10	8	-1E+10	1	-1E+10	1	-1E+10	1	-1E+10	1	-1E+10	1	-1E+10	1
4902554	82	C	05/15/2023	22:59	-132.781	47.702	0	1145.50	0	2.8490	0	34.4170	0	27.440	0	1132.797	0	-1e10	8	-1e10	8	-1E+10	1	-1E+10	1	-1E+10	1	-1E+10	1	-1E+10	1	-1E+10	1
4902554	82	C	05/15/2023	22:59	-132.781	47.702	0	1155.40	0	2.8300	0	34.4220	0	27.446	0	1142.561	0	-1e10	8	-1e10	8	-1E+10	1	-1E+10	1	-1E+10	1	-1E+10	1	-1E+10	1	-1E+10	1
4902554	82	C	05/15/2023	22:59	-132.781	47.702	0	1165.20	0	2.8220	0	34.4240	0	27.448	0	1152.225	0	-1e10	8	-1e10	8	-1E+10	1	-1E+10	1	-1E+10	1	-1E+10	1	-1E+10	1	-1E+10	1
4902554	82	C	05/15/2023	22:59	-132.781	47.702	0	1175.10	0	2.8050	0	34.4270	0	27.452	0	1161.987	0	-1e10	8	-1e10	8	-1E+10	1	-1E+10	1	-1E+10	1	-1E+10	1	-1E+10	1	-1E+10	1
4902554	82	C	05/15/2023	22:59	-132.781	47.702	0	1185.30	0	2.7870	0	34.4300	0	27.456	0	1172.045	0	-1e10	8	-1e10	8	-1E+10	1	-1E+10	1	-1E+10	1	-1E+10	1	-1E+10	1	-1E+10	1
4902554	82	C	05/15/2023	22:59	-132.781	47.702	0	1195.60	0	2.7620	0	34.4350	0	27.463	0	1182.201	0	-1e10	8	-1e10	8	-1E+10	1	-1E+10	1	-1E+10	1	-1E+10	1	-1E+10	1	-1E+10	1
4902554	82	C	05/15/2023	22:59	-132.781	47.702	0	1205.40	0	2.7570	0	34.4360	0	27.464	0	1191.863	0	-1e10	8	-1e10	8	-1E+10	1	-1E+10	1	-1E+10	1	-1E+10	1	-1E+10	1	-1E+10	1
4902554	82	C	05/15/2023	22:59	-132.781	47.702	0	1215.10	0	2.7520	0	34.4370	0	27.465	0	1201.427	0	-1e10	8	-1e10	8	-1E+10	1	-1E+10	1	-1E+10	1	-1E+10	1	-1E+10	1	-1E+10	1
4902554	82	C	05/15/2023	22:59	-132.781	47.702	0	1225.50	0	2.7370	0	34.4410	0	27.470	0	1211.680	0	-1e10	8	-1e10	8	-1E+10	1	-1E+10	1	-1E+10	1	-1E+10	1	-1E+10	1	-1E+10	1
4902554	82	C	05/15/2023	22:59	-132.781	47.702	0	1235.60	0	2.7220	0	34.4430	0	27.473	0	1221.636	0	-1e10	8	-1e10	8	-1E+10	1	-1E+10	1	-1E+10	1	-1E+10	1	-1E+10	1	-1E+10	1
4902554	82	C	05/15/2023	22:59	-132.781	47.702	0	1245.60	0	2.7040	0	34.4470	0	27.477	0	1231.494	0	-1e10	8	-1e10	8	-1E+10	1	-1E+10	1	-1E+10	1	-1E+10	1	-1E+10	1	-1E+10	1
4902554	82	C	05/15/2023	22:59	-132.781	47.702	0	1255.30	0	2.6900	0	34.4490	0	27.480	0	1241.056	0	-1e10	8	-1e10	8	-1E+10	1	-1E+10	1	-1E+10	1	-1E+10	1	-1E+10	1	-1E+10	1
4902554	82	C	05/15/2023	22:59	-132.781	47.702	0	1265.10	0	2.6710	0	34.4530	0	27.485	0	1250.715	0	-1e10	8	-1e10	8	-1E+10	1	-1E+10	1	-1E+10	1	-1E+10	1	-1E+10	1	-1E+10	1
4902554	82	C	05/15/2023	22:59	-132.781	47.702	0	1275.20	0	2.6520	0	34.4570	0	27.490	0	1260.670	0	-1e10	8	-1e10	8	-1E+10	1	-1E+10	1	-1E+10	1	-1E+10	1	-1E+10	1	-1E+10	1
4902554	82	C	05/15/2023	22:59	-132.781	47.702	0	1285.50	0	2.6420	0	34.4590	0	27.493	0	1270.822	0	-1e10	8	-1e10	8	-1E+10	1	-1E+10	1	-1E+10	1	-1E+10	1	-1E+10	1	-1E+10	1
4902554	82	C	05/15/2023	22:59	-132.781	47.702	0	1295.90	0	2.6250	0	34.4620	0	27.497	0	1281.072	0	-1e10	8	-1e10	8	-1E+10	1	-1E+10	1	-1E+10	1	-1E+10	1	-1E+10	1	-1E+10	1
4902554	82	C	05/15/2023	22:59	-132.781	47.702	0	1305.90	0	2.6180	0	34.4630	0	27.498	0	1290.927	0	-1e10	8	-1e10	8	-1E+10	1	-1E+10	1	-1E+10	1	-1E+10	1	-1E+10	1	-1E+10	1
4902554	82	C	05/15/2023	22:59	-132.781	47.702	0	1315.80	0	2.6080	0	34.4650	0	27.500	0	1300.683	0	-1e10	8	-1e10	8	-1E+10	1	-1E+10	1	-1E+10	1	-1E+10	1	-1E+10	1	-1E+10	1
4902554	82	C	05/15/2023	22:59	-132.781	47.702	0	1325.50	0	2.5910	0	34.4670	0	27.504	0	1310.241	0	-1e10	8	-1e10	8	-1E+10	1	-1E+10	1	-1E+10	1	-1E+10	1	-1E+10	1	-1E+10	1
4902554	82	C	05/15/2023	22:59	-132.781	47.702	0	1335.60	0	2.5830	0	34.4680	0	27.505	0	1320.193	0	-1e10	8	-1e10	8	-1E+10	1	-1E+10	1	-1E+10	1	-1E+10	1	-1E+10	1	-1E+10	1
4902554	82	C	05/15/2023	22:59	-132.781	47.702	0	1345.30	0	2.5790	0	34.4690	0	27.506	0	1329.751	0	-1e10	8	-1e10	8	-1E+10	1	-1E+10	1	-1E+10	1	-1E+10	1	-1E+10	1	-1E+10	1
4902554	82	C	05/15/2023	22:59	-132.781	47.702	0	1355.40	0	2.5710	0	34.4710	0	27.509	0	1339.702	0	-1e10	8	-1e10	8	-1E+10	1	-1E+10	1	-1E+10	1	-1E+10	1	-1E+10	1	-1E+10	1
4902554	82	C	05/15/2023	22:59	-132.781	47.702	0	1365.50	0	2.5540	0	34.4750	0	27.513	0	1349.652	0	-1e10	8	-1e10	8	-1E+10	1	-1E+10	1	-1E+10	1	-1E+10	1	-1E+10	1	-1E+10	1
4902554	82	C	05/15/2023	22:59	-132.781	47.702	0	1375.50	0	2.5340	0	34.4780	0	27.517	0	1359.504	0	-1e10	8	-1e10	8	-1E+10	1	-1E+10	1	-1E+10	1	-1E+10	1	-1E+10	1	-1E+10	1
4902554	82	C	05/15/2023	22:59	-132.781	47.702	0	1385.40	0	2.5180	0	34.4820	0	27.522	0	1369.257	0	-1e10	8	-1e10	8	-1E+10	1	-1E+10	1	-1E+10	1	-1E+10	1	-1E+10	1	-1E+10	1
4902554	82	C	05/15/2023	22:59	-132.781	47.702	0	1395.50	0	2.5010	0	34.4840	0	27.525	0	1379.206	0	-1e10	8	-1e10	8	-1E+10	1	-1E+10	1	-1E+10	1	-1E+10	1	-1E+10	1	-1E+10	1
4902554	82	C	05/15/2023	22:59	-132.781	47.702	0	1405.30	0	2.4870	0	34.4870	0	27.529	0	1388.860	0	-1e10	8	-1e10	8	-1E+10	1	-1E+10	1	-1E+10	1	-1E+10	1	-1E+10	1	-1E+10	1
4902554	82	C	05/15/2023	22:59	-132.781	47.702	0	1415.40	0	2.4720	0	34.4890	0	27.532	0	1398.808	0	-1e10	8	-1e10	8	-1E+10	1	-1E+10	1	-1E+10	1	-1E+10	1	-1E+10	1	-1E+10	1
4902554	82	C	05/15/2023	22:59	-132.781	47.702	0	1425.80	0	2.4590	0	34.4910	0	27.534	0	1409.051	0	-1e10	8	-1e10	8	-1E+10	1	-1E+10	1	-1E+10	1	-1E+10	1	-1E+10	1	-1E+10	1
4902554	82	C	05/15/2023	22:59	-132.781	47.702	0	1435.50	0	2.4410	0	34.4940	0	27.538	0	1418.605	0	-1e10	8	-1e10	8	-1E+10	1	-1E+10	1	-1E+10	1	-1E+10	1	-1E+10	1	-1E+10	1
4902554	82	C	05/15/2023	22:59	-132.781	47.702	0	1445.30	0	2.4170	0	34.4980	0	27.544	0	1428.256	0	-1e10	8	-1e10	8	-1E+10	1	-1E+10	1	-1E+10	1	-1E+10	1	-1E+10	1	-1E+10	1
4902554	82	C	05/15/2023	22:59	-132.781	47.702	0	1455.20	0	2.4000	0	34.5020	0	27.548	0	1438.006	0	-1e10	8	-1e10	8	-1E+10	1	-1E+10	1	-1E+10	1	-1E+10	1	-1E+10	1	-1E+10	1
4902554	82	C	05/15/2023	22:59	-132.781	47.702	0	1465.40	0	2.3920	0	34.5030	0	27.550	0	1448.050	0	-1e10	8	-1e10	8	-1E+10	1	-1E+10	1	-1E+10	1	-1E+10	1	-1E+10	1	-1E+10	1
4902554	82	C	05/15/2023	22:59	-132.781	47.702	0	1475.40	0	2.3760	0	34.5060	0	27.554	0	1457.898	0	-1e10	8	-1e10	8	-1E+10	1	-1E+10	1	-1E+10	1	-1E+10	1	-1E+10	1	-1E+10	1
4902554	82	C	05/15/2023	22:59	-132.781	47.702	0	1485.30	0	2.3600	0	34.5090	0	27.557	0	1467.646	0	-1e10	8	-1e10	8	-1E+10	1	-1E+10	1	-1E+10	1	-1E+10	1	-1E+10	1	-1E+10	1
4902554	82	C	05/15/2023	22:59	-132.781	47.702	0	1495.40	0	2.3520	0	34.5110	0	27.560	0	1477.590	0	-1e10	8	-1e10	8	-1E+10	1	-1E+10	1	-1E+10	1	-1E+10	1	-1E+10	1	-1E+10	1
4902554	82	C	05/15/2023	22:59	-132.781	47.702	0	1505.60	0	2.3400	0	34.5130	0	27.562	0	1487.633	0	-1e10	8	-1e10	8	-1E+10	1	-1E+10	1	-1E+10	1	-1E+10	1	-1E+10	1	-1E+10	1
4902554	82	C	05/15/2023	22:59	-132.781	47.702	0	1515.40	0	2.3360	0	34.5140	0	27.563	0	1497.281	0	-1e10	8	-1e10	8	-1E+10	1	-1E+10	1	-1E+10	1	-1E+10	1	-1E+10	1	-1E+10	1
4902554	82	C	05/15/2023	22:59	-132.781	47.702	0	1525.30	0	2.3230	0	34.5160	0	27.566	0	1507.028	0	-1e10	8	-1e10	8	-1E+10	1	-1E+10	1	-1E+10	1	-1E+10	1	-1E+10	1	-1E+10	1
4902554	82	C	05/15/2023	22:59	-132.781	47.702	0	1535.40	0	2.2990	0	34.5210	0	27.572	0	1516.971	0	-1e10	8	-1e10	8	-1E+10	1	-1E+10	1	-1E+10	1	-1E+10	1	-1E+10	1	-1E+10	1
4902554	82	C	05/15/2023	22:59	-132.781	47.702	0	1545.20	0	2.2890	0	34.5230	0	27.575	0	1526.618	0	-1e10	8	-1e10	8	-1E+10	1	-1E+10	1	-1E+10	1	-1E+10	1	-1E+10	1	-1E+10	1
4902554	82	C	05/15/2023	22:59	-132.781	47.702	0	1555.10	0	2.2770	0	34.5250	0	27.577	0	1536.363	0	-1e10	8	-1e10	8	-1E+10	1	-1E+10	1	-1E+10	1	-1E+10	1	-1E+10	1	-1E+10	1
4902554	82	C	05/15/2023	22:59	-132.781	47.702	0	1565.00	0	2.2650	0	34.5270	0	27.580	0	1546.107	0	-1e10	8	-1e10	8	-1E+10	1	-1E+10	1	-1E+10	1	-1E+10	1	-1E+10	1	-1E+10	1
4902554	82	C	05/15/2023	22:59	-132.781	47.702	0	1575.00	0	2.2620	0	34.5280	0	27.581	0	1555.950	0	-1e10	8	-1e10	8	-1E+10	1	-1E+10	1	-1E+10	1	-1E+10	1	-1E+10	1	-1E+10	1
4902554	82	C	05/15/2023	22:59	-132.781	47.702	0	1585.10	0	2.2500	0	34.5290	0	27.583	0	1565.890	0	-1e10	8	-1e10	8	-1E+10	1	-1E+10	1	-1E+10	1	-1E+10	1	-1E+10	1	-1E+10	1
4902554	82	C	05/15/2023	22:59	-132.781	47.702	0	1595.50	0	2.2450	0	34.5300	0	27.584	0	1576.125	0	-1e10	8	-1e10	8	-1E+10	1	-1E+10	1	-1E+10	1	-1E+10	1	-1E+10	1	-1E+10	1
4902554	82	C	05/15/2023	22:59	-132.781	47.702	0	1605.80	0	2.2410	0	34.5310	0	27.585	0	1586.262	0	-1e10	8	-1e10	8	-1E+10	1	-1E+10	1	-1E+10	1	-1E+10	1	-1E+10	1	-1E+10	1
4902554	82	C	05/15/2023	22:59	-132.781	47.702	0	1615.70	0	2.2220	0	34.5340	0	27.589	0	1596.004	0	-1e10	8	-1e10	8	-1E+10	1	-1E+10	1	-1E+10	1	-1E+10	1	-1E+10	1	-1E+10	1
4902554	82	C	05/15/2023	22:59	-132.781	47.702	0	1625.50	0	2.2140	0	34.5350	0	27.591	0	1605.648	0	-1e10	8	-1e10	8	-1E+10	1	-1E+10	1	-1E+10	1	-1E+10	1	-1E+10	1	-1E+10	1
4902554	82	C	05/15/2023	22:59	-132.781	47.702	0	1635.30	0	2.2060	0	34.5370	0	27.593	0	1615.291	0	-1e10	8	-1e10	8	-1E+10	1	-1E+10	1	-1E+10	1	-1E+10	1	-1E+10	1	-1E+10	1
4902554	82	C	05/15/2023	22:59	-132.781	47.702	0	1645.10	0	2.1970	0	34.5380	0	27.595	0	1624.933	0	-1e10	8	-1e10	8	-1E+10	1	-1E+10	1	-1E+10	1	-1E+10	1	-1E+10	1	-1E+10	1
4902554	82	C	05/15/2023	22:59	-132.781	47.702	0	1655.10	0	2.1870	0	34.5400	0	27.597	0	1634.772	0	-1e10	8	-1e10	8	-1E+10	1	-1E+10	1	-1E+10	1	-1E+10	1	-1E+10	1	-1E+10	1
4902554	82	C	05/15/2023	22:59	-132.781	47.702	0	1665.10	0	2.1800	0	34.5410	0	27.599	0	1644.610	0	-1e10	8	-1e10	8	-1E+10	1	-1E+10	1	-1E+10	1	-1E+10	1	-1E+10	1	-1E+10	1
4902554	82	C	05/15/2023	22:59	-132.781	47.702	0	1675.20	0	2.1680	0	34.5440	0	27.602	0	1654.547	0	-1e10	8	-1e10	8	-1E+10	1	-1E+10	1	-1E+10	1	-1E+10	1	-1E+10	1	-1E+10	1
4902554	82	C	05/15/2023	22:59	-132.781	47.702	0	1685.60	0	2.1570	0	34.5460	0	27.604	0	1664.778	0	-1e10	8	-1e10	8	-1E+10	1	-1E+10	1	-1E+10	1	-1E+10	1	-1E+10	1	-1E+10	1
4902554	82	C	05/15/2023	22:59	-132.781	47.702	0	1695.60	0	2.1490	0	34.5470	0	27.606	0	1674.615	0	-1e10	8	-1e10	8	-1E+10	1	-1E+10	1	-1E+10	1	-1E+10	1	-1E+10	1	-1E+10	1
4902554	82	C	05/15/2023	22:59	-132.781	47.702	0	1705.40	0	2.1300	0	34.5510	0	27.611	0	1684.254	0	-1e10	8	-1e10	8	-1E+10	1	-1E+10	1	-1E+10	1	-1E+10	1	-1E+10	1	-1E+10	1
4902554	82	C	05/15/2023	22:59	-132.781	47.702	0	1715.50	0	2.1190	0	34.5530	0	27.613	0	1694.189	0	-1e10	8	-1e10	8	-1E+10	1	-1E+10	1	-1E+10	1	-1E+10	1	-1E+10	1	-1E+10	1
4902554	82	C	05/15/2023	22:59	-132.781	47.702	0	1725.70	0	2.1010	0	34.5560	0	27.617	0	1704.221	0	-1e10	8	-1e10	8	-1E+10	1	-1E+10	1	-1E+10	1	-1E+10	1	-1E+10	1	-1E+10	1
4902554	82	C	05/15/2023	22:59	-132.781	47.702	0	1735.60	0	2.0900	0	34.5580	0	27.620	0	1713.958	0	-1e10	8	-1e10	8	-1E+10	1	-1E+10	1	-1E+10	1	-1E+10	1	-1E+10	1	-1E+10	1
4902554	82	C	05/15/2023	22:59	-132.781	47.702	0	1745.30	0	2.0820	0	34.5600	0	27.622	0	1723.498	0	-1e10	8	-1e10	8	-1E+10	1	-1E+10	1	-1E+10	1	-1E+10	1	-1E+10	1	-1E+10	1
4902554	82	C	05/15/2023	22:59	-132.781	47.702	0	1755.30	0	2.0690	0	34.5620	0	27.625	0	1733.332	0	-1e10	8	-1e10	8	-1E+10	1	-1E+10	1	-1E+10	1	-1E+10	1	-1E+10	1	-1E+10	1
4902554	82	C	05/15/2023	22:59	-132.781	47.702	0	1765.60	0	2.0600	0	34.5640	0	27.627	0	1743.461	0	-1e10	8	-1e10	8	-1E+10	1	-1E+10	1	-1E+10	1	-1E+10	1	-1E+10	1	-1E+10	1
4902554	82	C	05/15/2023	22:59	-132.781	47.702	0	1775.40	0	2.0550	0	34.5650	0	27.628	0	1753.097	0	-1e10	8	-1e10	8	-1E+10	1	-1E+10	1	-1E+10	1	-1E+10	1	-1E+10	1	-1E+10	1
4902554	82	C	05/15/2023	22:59	-132.781	47.702	0	1785.10	0	2.0470	0	34.5670	0	27.630	0	1762.635	0	-1e10	8	-1e10	8	-1E+10	1	-1E+10	1	-1E+10	1	-1E+10	1	-1E+10	1	-1E+10	1
4902554	82	C	05/15/2023	22:59	-132.781	47.702	0	1795.20	0	2.0360	0	34.5690	0	27.633	0	1772.566	0	-1e10	8	-1e10	8	-1E+10	1	-1E+10	1	-1E+10	1	-1E+10	1	-1E+10	1	-1E+10	1
4902554	82	C	05/15/2023	22:59	-132.781	47.702	0	1805.20	0	2.0320	0	34.5700	0	27.634	0	1782.398	0	-1e10	8	-1e10	8	-1E+10	1	-1E+10	1	-1E+10	1	-1E+10	1	-1E+10	1	-1E+10	1
4902554	82	C	05/15/2023	22:59	-132.781	47.702	0	1815.40	0	2.0280	0	34.5710	0	27.635	0	1792.426	0	-1e10	8	-1e10	8	-1E+10	1	-1E+10	1	-1E+10	1	-1E+10	1	-1E+10	1	-1E+10	1
4902554	82	C	05/15/2023	22:59	-132.781	47.702	0	1825.30	0	2.0260	0	34.5720	0	27.636	0	1802.159	0	-1e10	8	-1e10	8	-1E+10	1	-1E+10	1	-1E+10	1	-1E+10	1	-1E+10	1	-1E+10	1
4902554	82	C	05/15/2023	22:59	-132.781	47.702	0	1835.30	0	2.0210	0	34.5720	0	27.637	0	1811.990	0	-1e10	8	-1e10	8	-1E+10	1	-1E+10	1	-1E+10	1	-1E+10	1	-1E+10	1	-1E+10	1
4902554	82	C	05/15/2023	22:59	-132.781	47.702	0	1845.50	0	2.0110	0	34.5740	0	27.639	0	1822.016	0	-1e10	8	-1e10	8	-1E+10	1	-1E+10	1	-1E+10	1	-1E+10	1	-1E+10	1	-1E+10	1
4902554	82	C	05/15/2023	22:59	-132.781	47.702	0	1855.40	0	2.0070	0	34.5750	0	27.640	0	1831.748	0	-1e10	8	-1e10	8	-1E+10	1	-1E+10	1	-1E+10	1	-1E+10	1	-1E+10	1	-1E+10	1
4902554	82	C	05/15/2023	22:59	-132.781	47.702	0	1865.30	0	2.0030	0	34.5760	0	27.642	0	1841.479	0	-1e10	8	-1e10	8	-1E+10	1	-1E+10	1	-1E+10	1	-1E+10	1	-1E+10	1	-1E+10	1
4902554	82	C	05/15/2023	22:59	-132.781	47.702	0	1875.40	0	1.9980	0	34.5770	0	27.643	0	1851.406	0	-1e10	8	-1e10	8	-1E+10	1	-1E+10	1	-1E+10	1	-1E+10	1	-1E+10	1	-1E+10	1
4902554	82	C	05/15/2023	22:59	-132.781	47.702	0	1885.40	0	1.9920	0	34.5780	0	27.644	0	1861.234	0	-1e10	8	-1e10	8	-1E+10	1	-1E+10	1	-1E+10	1	-1E+10	1	-1E+10	1	-1E+10	1
4902554	82	C	05/15/2023	22:59	-132.781	47.702	0	1895.30	0	1.9840	0	34.5800	0	27.646	0	1870.964	0	-1e10	8	-1e10	8	-1E+10	1	-1E+10	1	-1E+10	1	-1E+10	1	-1E+10	1	-1E+10	1
4902554	82	C	05/15/2023	22:59	-132.781	47.702	0	1905.60	0	1.9810	0	34.5810	0	27.648	0	1881.086	0	-1e10	8	-1e10	8	-1E+10	1	-1E+10	1	-1E+10	1	-1E+10	1	-1E+10	1	-1E+10	1
4902554	82	C	05/15/2023	22:59	-132.781	47.702	0	1915.30	0	1.9750	0	34.5820	0	27.649	0	1890.618	0	-1e10	8	-1e10	8	-1E+10	1	-1E+10	1	-1E+10	1	-1E+10	1	-1E+10	1	-1E+10	1
4902554	82	C	05/15/2023	22:59	-132.781	47.702	0	1925.40	0	1.9690	0	34.5830	0	27.650	0	1900.543	0	-1e10	8	-1e10	8	-1E+10	1	-1E+10	1	-1E+10	1	-1E+10	1	-1E+10	1	-1E+10	1
4902554	82	C	05/15/2023	22:59	-132.781	47.702	0	1935.60	0	1.9630	0	34.5840	0	27.651	0	1910.565	0	-1e10	8	-1e10	8	-1E+10	1	-1E+10	1	-1E+10	1	-1E+10	1	-1E+10	1	-1E+10	1
4902554	82	C	05/15/2023	22:59	-132.781	47.702	0	1945.60	0	1.9580	0	34.5850	0	27.653	0	1920.391	0	-1e10	8	-1e10	8	-1E+10	1	-1E+10	1	-1E+10	1	-1E+10	1	-1E+10	1	-1E+10	1
4902554	82	C	05/15/2023	22:59	-132.781	47.702	0	1955.30	0	1.9560	0	34.5860	0	27.654	0	1929.922	0	-1e10	8	-1e10	8	-1E+10	1	-1E+10	1	-1E+10	1	-1E+10	1	-1E+10	1	-1E+10	1
4902554	82	C	05/15/2023	22:59	-132.781	47.702	0	1965.00	0	1.9500	0	34.5870	0	27.655	0	1939.451	0	-1e10	8	-1e10	8	-1E+10	1	-1E+10	1	-1E+10	1	-1E+10	1	-1E+10	1	-1E+10	1
4902554	82	C	05/15/2023	22:59	-132.781	47.702	0	1975.30	0	1.9450	0	34.5870	0	27.655	0	1949.570	0	-1e10	8	-1e10	8	-1E+10	1	-1E+10	1	-1E+10	1	-1E+10	1	-1E+10	1	-1E+10	1
4902554	82	C	05/15/2023	22:59	-132.781	47.702	0	1985.50	0	1.9360	0	34.5890	0	27.658	0	1959.591	0	-1e10	8	-1e10	8	-1E+10	1	-1E+10	1	-1E+10	1	-1E+10	1	-1E+10	1	-1E+10	1
4902554	82	C	05/15/2023	22:59	-132.781	47.702	0	1995.70	0	1.9290	0	34.5900	0	27.659	0	1969.610	0	-1e10	8	-1e10	8	-1E+10	1	-1E+10	1	-1E+10	1	-1E+10	1	-1E+10	1	-1E+10	1
4902554	82	C	05/15/2023	22:59	-132.781	47.702	0	2005.40	0	1.9240	0	34.5910	0	27.660	0	1979.139	0	-1e10	8	-1e10	8	-1E+10	1	-1E+10	1	-1E+10	1	-1E+10	1	-1E+10	1	-1E+10	1
4902554	82	C	05/15/2023	22:59	-132.781	47.702	0	2015.10	0	1.9190	0	34.5920	0	27.662	0	1988.666	0	-1e10	8	-1e10	8	-1E+10	1	-1E+10	1	-1E+10	1	-1E+10	1	-1E+10	1	-1E+10	1
4902554	82	C	05/15/2023	22:59	-132.781	47.702	0	2023.40	0	1.9180	0	34.5930	0	27.663	0	1996.819	0	-1e10	8	-1e10	8	-1E+10	1	-1E+10	1	-1E+10	1	-1E+10	1	-1E+10	1	-1E+10	1
4902554	82	C	05/15/2023	22:59	-132.781	47.702	0																										
4902554	83	C	05/26/2023	03:57	-132.794	47.700	0	0.20	0	11.9130	0	32.3060	0	24.514	0	0.198	0	-1e10	8	-1e10	8	-1E+10	1	-1E+10	1	-1E+10	1	-1E+10	1	-1E+10	1	-1E+10	1
4902554	83	C	05/26/2023	03:57	-132.794	47.700	0	1.00	0	11.9160	0	32.2970	0	24.507	0	0.992	0	-1e10	8	-1e10	8	-1E+10	1	-1E+10	1	-1E+10	1	-1E+10	1	-1E+10	1	-1E+10	1
4902554	83	C	05/26/2023	03:57	-132.794	47.700	0	2.30	0	11.9190	0	32.2880	0	24.499	0	2.281	0	-1e10	8	-1e10	8	-1E+10	1	-1E+10	1	-1E+10	1	-1E+10	1	-1E+10	1	-1E+10	1
4902554	83	C	05/26/2023	03:57	-132.794	47.700	0	2.90	0	11.9160	0	32.2880	0	24.500	0	2.876	0	-1e10	8	-1e10	8	-1E+10	1	-1E+10	1	-1E+10	1	-1E+10	1	-1E+10	1	-1E+10	1
4902554	83	C	05/26/2023	03:57	-132.794	47.700	0	3.90	0	11.9050	0	32.3000	0	24.511	0	3.867	0	-1e10	8	-1e10	8	-1E+10	1	-1E+10	1	-1E+10	1	-1E+10	1	-1E+10	1	-1E+10	1
4902554	83	C	05/26/2023	03:57	-132.794	47.700	0	4.90	0	11.9100	0	32.3090	0	24.517	0	4.859	0	-1e10	8	-1e10	8	-1E+10	1	-1E+10	1	-1E+10	1	-1E+10	1	-1E+10	1	-1E+10	1
4902554	83	C	05/26/2023	03:57	-132.794	47.700	0	6.10	0	11.8900	0	32.3090	0	24.521	0	6.049	0	-1e10	8	-1e10	8	-1E+10	1	-1E+10	1	-1E+10	1	-1E+10	1	-1E+10	1	-1E+10	1
4902554	83	C	05/26/2023	03:57	-132.794	47.700	0	6.90	0	11.8810	0	32.3080	0	24.522	0	6.842	0	-1e10	8	-1e10	8	-1E+10	1	-1E+10	1	-1E+10	1	-1E+10	1	-1E+10	1	-1E+10	1
4902554	83	C	05/26/2023	03:57	-132.794	47.700	0	8.00	0	11.7900	0	32.3080	0	24.539	0	7.933	0	-1e10	8	-1e10	8	-1E+10	1	-1E+10	1	-1E+10	1	-1E+10	1	-1E+10	1	-1E+10	1
4902554	83	C	05/26/2023	03:57	-132.794	47.700	0	9.20	0	11.7830	0	32.3180	0	24.548	0	9.123	0	-1e10	8	-1e10	8	-1E+10	1	-1E+10	1	-1E+10	1	-1E+10	1	-1E+10	1	-1E+10	1
4902554	83	C	05/26/2023	03:57	-132.794	47.700	0	10.00	0	11.7280	0	32.2980	0	24.542	0	9.916	0	-1e10	8	-1e10	8	-1E+10	1	-1E+10	1	-1E+10	1	-1E+10	1	-1E+10	1	-1E+10	1
4902554	83	C	05/26/2023	03:57	-132.794	47.700	0	11.00	0	11.5060	0	32.3100	0	24.592	0	10.908	0	-1e10	8	-1e10	8	-1E+10	1	-1E+10	1	-1E+10	1	-1E+10	1	-1E+10	1	-1E+10	1
4902554	83	C	05/26/2023	03:57	-132.794	47.700	0	12.30	0	10.8570	0	32.3100	0	24.707	0	12.197	0	-1e10	8	-1e10	8	-1E+10	1	-1E+10	1	-1E+10	1	-1E+10	1	-1E+10	1	-1E+10	1
4902554	83	C	05/26/2023	03:57	-132.794	47.700	0	13.20	0	10.7890	0	32.3080	0	24.717	0	13.089	0	-1e10	8	-1e10	8	-1E+10	1	-1E+10	1	-1E+10	1	-1E+10	1	-1E+10	1	-1E+10	1
4902554	83	C	05/26/2023	03:57	-132.794	47.700	0	13.90	0	10.7720	0	32.3060	0	24.719	0	13.783	0	-1e10	8	-1e10	8	-1E+10	1	-1E+10	1	-1E+10	1	-1E+10	1	-1E+10	1	-1E+10	1
4902554	83	C	05/26/2023	03:57	-132.794	47.700	0	15.00	0	10.7460	0	32.3080	0	24.725	0	14.874	0	-1e10	8	-1e10	8	-1E+10	1	-1E+10	1	-1E+10	1	-1E+10	1	-1E+10	1	-1E+10	1
4902554	83	C	05/26/2023	03:57	-132.794	47.700	0	16.10	0	10.7090	0	32.3060	0	24.730	0	15.965	0	-1e10	8	-1e10	8	-1E+10	1	-1E+10	1	-1E+10	1	-1E+10	1	-1E+10	1	-1E+10	1
4902554	83	C	05/26/2023	03:57	-132.794	47.700	0	17.10	0	10.6180	0	32.3080	0	24.747	0	16.956	0	-1e10	8	-1e10	8	-1E+10	1	-1E+10	1	-1E+10	1	-1E+10	1	-1E+10	1	-1E+10	1
4902554	83	C	05/26/2023	03:57	-132.794	47.700	0	18.00	0	10.5560	0	32.3050	0	24.755	0	17.849	0	-1e10	8	-1e10	8	-1E+10	1	-1E+10	1	-1E+10	1	-1E+10	1	-1E+10	1	-1E+10	1
4902554	83	C	05/26/2023	03:57	-132.794	47.700	0	18.90	0	10.4860	0	32.3000	0	24.763	0	18.741	0	-1e10	8	-1e10	8	-1E+10	1	-1E+10	1	-1E+10	1	-1E+10	1	-1E+10	1	-1E+10	1
4902554	83	C	05/26/2023	03:57	-132.794	47.700	0	20.10	0	10.2180	0	32.3050	0	24.813	0	19.931	0	-1e10	8	-1e10	8	-1E+10	1	-1E+10	1	-1E+10	1	-1E+10	1	-1E+10	1	-1E+10	1
4902554	83	C	05/26/2023	03:57	-132.794	47.700	0	21.00	0	10.1610	0	32.3010	0	24.819	0	20.823	0	-1e10	8	-1e10	8	-1E+10	1	-1E+10	1	-1E+10	1	-1E+10	1	-1E+10	1	-1E+10	1
4902554	83	C	05/26/2023	03:57	-132.794	47.700	0	22.00	0	9.9780	0	32.3040	0	24.852	0	21.815	0	-1e10	8	-1e10	8	-1E+10	1	-1E+10	1	-1E+10	1	-1E+10	1	-1E+10	1	-1E+10	1
4902554	83	C	05/26/2023	03:57	-132.794	47.700	0	23.10	0	9.8410	0	32.2990	0	24.871	0	22.906	0	-1e10	8	-1e10	8	-1E+10	1	-1E+10	1	-1E+10	1	-1E+10	1	-1E+10	1	-1E+10	1
4902554	83	C	05/26/2023	03:57	-132.794	47.700	0	24.10	0	9.5220	0	32.3040	0	24.926	0	23.897	0	-1e10	8	-1e10	8	-1E+10	1	-1E+10	1	-1E+10	1	-1E+10	1	-1E+10	1	-1E+10	1
4902554	83	C	05/26/2023	03:57	-132.794	47.700	0	25.00	0	9.3250	0	32.3040	0	24.957	0	24.789	0	-1e10	8	-1e10	8	-1E+10	1	-1E+10	1	-1E+10	1	-1E+10	1	-1E+10	1	-1E+10	1
4902554	83	C	05/26/2023	03:57	-132.794	47.700	0	25.90	0	9.2340	0	32.3000	0	24.969	0	25.682	0	-1e10	8	-1e10	8	-1E+10	1	-1E+10	1	-1E+10	1	-1E+10	1	-1E+10	1	-1E+10	1
4902554	83	C	05/26/2023	03:57	-132.794	47.700	0	26.90	0	9.0550	0	32.3070	0	25.002	0	26.673	0	-1e10	8	-1e10	8	-1E+10	1	-1E+10	1	-1E+10	1	-1E+10	1	-1E+10	1	-1E+10	1
4902554	83	C	05/26/2023	03:57	-132.794	47.700	0	27.90	0	8.9170	0	32.3040	0	25.021	0	27.665	0	-1e10	8	-1e10	8	-1E+10	1	-1E+10	1	-1E+10	1	-1E+10	1	-1E+10	1	-1E+10	1
4902554	83	C	05/26/2023	03:57	-132.794	47.700	0	28.80	0	8.8430	0	32.3050	0	25.033	0	28.557	0	-1e10	8	-1e10	8	-1E+10	1	-1E+10	1	-1E+10	1	-1E+10	1	-1E+10	1	-1E+10	1
4902554	83	C	05/26/2023	03:57	-132.794	47.700	0	29.80	0	8.8190	0	32.3060	0	25.038	0	29.549	0	-1e10	8	-1e10	8	-1E+10	1	-1E+10	1	-1E+10	1	-1E+10	1	-1E+10	1	-1E+10	1
4902554	83	C	05/26/2023	03:57	-132.794	47.700	0	31.00	0	8.8090	0	32.3050	0	25.039	0	30.738	0	-1e10	8	-1e10	8	-1E+10	1	-1E+10	1	-1E+10	1	-1E+10	1	-1E+10	1	-1E+10	1
4902554	83	C	05/26/2023	03:57	-132.794	47.700	0	32.10	0	8.7630	0	32.3060	0	25.046	0	31.829	0	-1e10	8	-1e10	8	-1E+10	1	-1E+10	1	-1E+10	1	-1E+10	1	-1E+10	1	-1E+10	1
4902554	83	C	05/26/2023	03:57	-132.794	47.700	0	33.20	0	8.6820	0	32.3070	0	25.060	0	32.920	0	-1e10	8	-1e10	8	-1E+10	1	-1E+10	1	-1E+10	1	-1E+10	1	-1E+10	1	-1E+10	1
4902554	83	C	05/26/2023	03:57	-132.794	47.700	0	33.90	0	8.6520	0	32.3060	0	25.063	0	33.614	0	-1e10	8	-1e10	8	-1E+10	1	-1E+10	1	-1E+10	1	-1E+10	1	-1E+10	1	-1E+10	1
4902554	83	C	05/26/2023	03:57	-132.794	47.700	0	34.80	0	8.6090	0	32.3070	0	25.071	0	34.506	0	-1e10	8	-1e10	8	-1E+10	1	-1E+10	1	-1E+10	1	-1E+10	1	-1E+10	1	-1E+10	1
4902554	83	C	05/26/2023	03:57	-132.794	47.700	0	36.00	0	8.5590	0	32.3100	0	25.080	0	35.696	0	-1e10	8	-1e10	8	-1E+10	1	-1E+10	1	-1E+10	1	-1E+10	1	-1E+10	1	-1E+10	1
4902554	83	C	05/26/2023	03:57	-132.794	47.700	0	37.10	0	8.5490	0	32.3100	0	25.082	0	36.786	0	-1e10	8	-1e10	8	-1E+10	1	-1E+10	1	-1E+10	1	-1E+10	1	-1E+10	1	-1E+10	1
4902554	83	C	05/26/2023	03:57	-132.794	47.700	0	38.20	0	8.5370	0	32.3100	0	25.084	0	37.877	0	-1e10	8	-1e10	8	-1E+10	1	-1E+10	1	-1E+10	1	-1E+10	1	-1E+10	1	-1E+10	1
4902554	83	C	05/26/2023	03:57	-132.794	47.700	0	39.10	0	8.4900	0	32.3120	0	25.092	0	38.769	0	-1e10	8	-1e10	8	-1E+10	1	-1E+10	1	-1E+10	1	-1E+10	1	-1E+10	1	-1E+10	1
4902554	83	C	05/26/2023	03:57	-132.794	47.700	0	39.90	0	8.4800	0	32.3080	0	25.091	0	39.562	0	-1e10	8	-1e10	8	-1E+10	1	-1E+10	1	-1E+10	1	-1E+10	1	-1E+10	1	-1E+10	1
4902554	83	C	05/26/2023	03:57	-132.794	47.700	0	41.20	0	8.4630	0	32.3070	0	25.093	0	40.851	0	-1e10	8	-1e10	8	-1E+10	1	-1E+10	1	-1E+10	1	-1E+10	1	-1E+10	1	-1E+10	1
4902554	83	C	05/26/2023	03:57	-132.794	47.700	0	42.00	0	8.4300	0	32.3090	0	25.099	0	41.644	0	-1e10	8	-1e10	8	-1E+10	1	-1E+10	1	-1E+10	1	-1E+10	1	-1E+10	1	-1E+10	1
4902554	83	C	05/26/2023	03:57	-132.794	47.700	0	43.30	0	8.3270	0	32.3150	0	25.119	0	42.933	0	-1e10	8	-1e10	8	-1E+10	1	-1E+10	1	-1E+10	1	-1E+10	1	-1E+10	1	-1E+10	1
4902554	83	C	05/26/2023	03:57	-132.794	47.700	0	44.00	0	8.2210	0	32.3230	0	25.141	0	43.627	0	-1e10	8	-1e10	8	-1E+10	1	-1E+10	1	-1E+10	1	-1E+10	1	-1E+10	1	-1E+10	1
4902554	83	C	05/26/2023	03:57	-132.794	47.700	0	45.00	0	8.1660	0	32.3230	0	25.149	0	44.619	0	-1e10	8	-1e10	8	-1E+10	1	-1E+10	1	-1E+10	1	-1E+10	1	-1E+10	1	-1E+10	1
4902554	83	C	05/26/2023	03:57	-132.794	47.700	0	46.00	0	8.0330	0	32.3280	0	25.172	0	45.610	0	-1e10	8	-1e10	8	-1E+10	1	-1E+10	1	-1E+10	1	-1E+10	1	-1E+10	1	-1E+10	1
4902554	83	C	05/26/2023	03:57	-132.794	47.700	0	47.10	0	7.9650	0	32.3290	0	25.183	0	46.701	0	-1e10	8	-1e10	8	-1E+10	1	-1E+10	1	-1E+10	1	-1E+10	1	-1E+10	1	-1E+10	1
4902554	83	C	05/26/2023	03:57	-132.794	47.700	0	48.10	0	7.8850	0	32.3300	0	25.195	0	47.692	0	-1e10	8	-1e10	8	-1E+10	1	-1E+10	1	-1E+10	1	-1E+10	1	-1E+10	1	-1E+10	1
4902554	83	C	05/26/2023	03:57	-132.794	47.700	0	49.00	0	7.7420	0	32.3610	0	25.240	0	48.584	0	-1e10	8	-1e10	8	-1E+10	1	-1E+10	1	-1E+10	1	-1E+10	1	-1E+10	1	-1E+10	1
4902554	83	C	05/26/2023	03:57	-132.794	47.700	0	49.90	0	7.5870	0	32.3390	0	25.244	0	49.477	0	-1e10	8	-1e10	8	-1E+10	1	-1E+10	1	-1E+10	1	-1E+10	1	-1E+10	1	-1E+10	1
4902554	83	C	05/26/2023	03:57	-132.794	47.700	0	51.10	0	7.4850	0	32.3430	0	25.261	0	50.666	0	-1e10	8	-1e10	8	-1E+10	1	-1E+10	1	-1E+10	1	-1E+10	1	-1E+10	1	-1E+10	1
4902554	83	C	05/26/2023	03:57	-132.794	47.700	0	52.10	0	7.4310	0	32.3420	0	25.268	0	51.658	0	-1e10	8	-1e10	8	-1E+10	1	-1E+10	1	-1E+10	1	-1E+10	1	-1E+10	1	-1E+10	1
4902554	83	C	05/26/2023	03:57	-132.794	47.700	0	53.00	0	7.3940	0	32.3430	0	25.274	0	52.550	0	-1e10	8	-1e10	8	-1E+10	1	-1E+10	1	-1E+10	1	-1E+10	1	-1E+10	1	-1E+10	1
4902554	83	C	05/26/2023	03:57	-132.794	47.700	0	54.00	0	7.3800	0	32.3440	0	25.277	0	53.541	0	-1e10	8	-1e10	8	-1E+10	1	-1E+10	1	-1E+10	1	-1E+10	1	-1E+10	1	-1E+10	1
4902554	83	C	05/26/2023	03:57	-132.794	47.700	0	55.00	0	7.3580	0	32.3440	0	25.280	0	54.533	0	-1e10	8	-1e10	8	-1E+10	1	-1E+10	1	-1E+10	1	-1E+10	1	-1E+10	1	-1E+10	1
4902554	83	C	05/26/2023	03:57	-132.794	47.700	0	56.10	0	7.3420	0	32.3440	0	25.282	0	55.623	0	-1e10	8	-1e10	8	-1E+10	1	-1E+10	1	-1E+10	1	-1E+10	1	-1E+10	1	-1E+10	1
4902554	83	C	05/26/2023	03:57	-132.794	47.700	0	57.00	0	7.3240	0	32.3450	0	25.285	0	56.515	0	-1e10	8	-1e10	8	-1E+10	1	-1E+10	1	-1E+10	1	-1E+10	1	-1E+10	1	-1E+10	1
4902554	83	C	05/26/2023	03:57	-132.794	47.700	0	58.10	0	7.3120	0	32.3450	0	25.287	0	57.606	0	-1e10	8	-1e10	8	-1E+10	1	-1E+10	1	-1E+10	1	-1E+10	1	-1E+10	1	-1E+10	1
4902554	83	C	05/26/2023	03:57	-132.794	47.700	0	58.80	0	7.3070	0	32.3450	0	25.287	0	58.300	0	-1e10	8	-1e10	8	-1E+10	1	-1E+10	1	-1E+10	1	-1E+10	1	-1E+10	1	-1E+10	1
4902554	83	C	05/26/2023	03:57	-132.794	47.700	0	59.80	0	7.3070	0	32.3450	0	25.287	0	59.291	0	-1e10	8	-1e10	8	-1E+10	1	-1E+10	1	-1E+10	1	-1E+10	1	-1E+10	1	-1E+10	1
4902554	83	C	05/26/2023	03:57	-132.794	47.700	0	60.80	0	7.3050	0	32.3450	0	25.288	0	60.283	0	-1e10	8	-1e10	8	-1E+10	1	-1E+10	1	-1E+10	1	-1E+10	1	-1E+10	1	-1E+10	1
4902554	83	C	05/26/2023	03:57	-132.794	47.700	0	61.80	0	7.2880	0	32.3460	0	25.291	0	61.274	0	-1e10	8	-1e10	8	-1E+10	1	-1E+10	1	-1E+10	1	-1E+10	1	-1E+10	1	-1E+10	1
4902554	83	C	05/26/2023	03:57	-132.794	47.700	0	62.90	0	7.2720	0	32.3490	0	25.295	0	62.364	0	-1e10	8	-1e10	8	-1E+10	1	-1E+10	1	-1E+10	1	-1E+10	1	-1E+10	1	-1E+10	1
4902554	83	C	05/26/2023	03:57	-132.794	47.700	0	63.90	0	7.2450	0	32.3530	0	25.302	0	63.356	0	-1e10	8	-1e10	8	-1E+10	1	-1E+10	1	-1E+10	1	-1E+10	1	-1E+10	1	-1E+10	1
4902554	83	C	05/26/2023	03:57	-132.794	47.700	0	65.00	0	7.2290	0	32.3570	0	25.308	0	64.446	0	-1e10	8	-1e10	8	-1E+10	1	-1E+10	1	-1E+10	1	-1E+10	1	-1E+10	1	-1E+10	1
4902554	83	C	05/26/2023	03:57	-132.794	47.700	0	66.00	0	7.2240	0	32.3530	0	25.305	0	65.437	0	-1e10	8	-1e10	8	-1E+10	1	-1E+10	1	-1E+10	1	-1E+10	1	-1E+10	1	-1E+10	1
4902554	83	C	05/26/2023	03:57	-132.794	47.700	0	67.10	0	7.2200	0	32.3530	0	25.306	0	66.528	0	-1e10	8	-1e10	8	-1E+10	1	-1E+10	1	-1E+10	1	-1E+10	1	-1E+10	1	-1E+10	1
4902554	83	C	05/26/2023	03:57	-132.794	47.700	0	68.00	0	7.1930	0	32.3550	0	25.311	0	67.420	0	-1e10	8	-1e10	8	-1E+10	1	-1E+10	1	-1E+10	1	-1E+10	1	-1E+10	1	-1E+10	1
4902554	83	C	05/26/2023	03:57	-132.794	47.700	0	69.10	0	7.2060	0	32.3620	0	25.315	0	68.511	0	-1e10	8	-1e10	8	-1E+10	1	-1E+10	1	-1E+10	1	-1E+10	1	-1E+10	1	-1E+10	1
4902554	83	C	05/26/2023	03:57	-132.794	47.700	0	69.80	0	7.2180	0	32.3650	0	25.315	0	69.204	0	-1e10	8	-1e10	8	-1E+10	1	-1E+10	1	-1E+10	1	-1E+10	1	-1E+10	1	-1E+10	1
4902554	83	C	05/26/2023	03:57	-132.794	47.700	0	70.80	0	7.2210	0	32.3680	0	25.317	0	70.196	0	-1e10	8	-1e10	8	-1E+10	1	-1E+10	1	-1E+10	1	-1E+10	1	-1E+10	1	-1E+10	1
4902554	83	C	05/26/2023	03:57	-132.794	47.700	0	71.80	0	7.2370	0	32.3720	0	25.318	0	71.187	0	-1e10	8	-1e10	8	-1E+10	1	-1E+10	1	-1E+10	1	-1E+10	1	-1E+10	1	-1E+10	1
4902554	83	C	05/26/2023	03:57	-132.794	47.700	0	72.80	0	7.2390	0	32.3740	0	25.320	0	72.178	0	-1e10	8	-1e10	8	-1E+10	1	-1E+10	1	-1E+10	1	-1E+10	1	-1E+10	1	-1E+10	1
4902554	83	C	05/26/2023	03:57	-132.794	47.700	0	74.10	0	7.2280	0	32.3720	0	25.320	0	73.467	0	-1e10	8	-1e10	8	-1E+10	1	-1E+10	1	-1E+10	1	-1E+10	1	-1E+10	1	-1E+10	1
4902554	83	C	05/26/2023	03:57	-132.794	47.700	0	75.10	0	7.2120	0	32.3720	0	25.322	0	74.458	0	-1e10	8	-1e10	8	-1E+10	1	-1E+10	1	-1E+10	1	-1E+10	1	-1E+10	1	-1E+10	1
4902554	83	C	05/26/2023	03:57	-132.794	47.700	0	76.00	0	7.1600	0	32.3670	0	25.325	0	75.350	0	-1e10	8	-1e10	8	-1E+10	1	-1E+10	1	-1E+10	1	-1E+10	1	-1E+10	1	-1E+10	1
4902554	83	C	05/26/2023	03:57	-132.794	47.700	0	77.00	0	7.1270	0	32.3630	0	25.326	0	76.342	0	-1e10	8	-1e10	8	-1E+10	1	-1E+10	1	-1E+10	1	-1E+10	1	-1E+10	1	-1E+10	1
4902554	83	C	05/26/2023	03:57	-132.794	47.700	0	77.90	0	7.1220	0	32.3620	0	25.326	0	77.234	0	-1e10	8	-1e10	8	-1E+10	1	-1E+10	1	-1E+10	1	-1E+10	1	-1E+10	1	-1E+10	1
4902554	83	C	05/26/2023	03:57	-132.794	47.700	0	78.90	0	7.1190	0	32.3610	0	25.326	0	78.225	0	-1e10	8	-1e10	8	-1E+10	1	-1E+10	1	-1E+10	1	-1E+10	1	-1E+10	1	-1E+10	1
4902554	83	C	05/26/2023	03:57	-132.794	47.700	0	80.10	0	7.1120	0	32.3610	0	25.327	0	79.415	0	-1e10	8	-1e10	8	-1E+10	1	-1E+10	1	-1E+10	1	-1E+10	1	-1E+10	1	-1E+10	1
4902554	83	C	05/26/2023	03:57	-132.794	47.700	0	81.00	0	7.1000	0	32.3600	0	25.327	0	80.307	0	-1e10	8	-1e10	8	-1E+10	1	-1E+10	1	-1E+10	1	-1E+10	1	-1E+10	1	-1E+10	1
4902554	83	C	05/26/2023	03:57	-132.794	47.700	0	82.00	0	7.0910	0	32.3590	0	25.328	0	81.298	0	-1e10	8	-1e10	8	-1E+10	1	-1E+10	1	-1E+10	1	-1E+10	1	-1E+10	1	-1E+10	1
4902554	83	C	05/26/2023	03:57	-132.794	47.700	0	82.90	0	7.0830	0	32.3580	0	25.328	0	82.190	0	-1e10	8	-1e10	8	-1E+10	1	-1E+10	1	-1E+10	1	-1E+10	1	-1E+10	1	-1E+10	1
4902554	83	C	05/26/2023	03:57	-132.794	47.700	0	83.90	0	7.0740	0	32.3580	0	25.329	0	83.181	0	-1e10	8	-1e10	8	-1E+10	1	-1E+10	1	-1E+10	1	-1E+10	1	-1E+10	1	-1E+10	1
4902554	83	C	05/26/2023	03:57	-132.794	47.700	0	84.90	0	7.0670	0	32.3580	0	25.330	0	84.173	0	-1e10	8	-1e10	8	-1E+10	1	-1E+10	1	-1E+10	1	-1E+10	1	-1E+10	1	-1E+10	1
4902554	83	C	05/26/2023	03:57	-132.794	47.700	0	86.00	0	7.0590	0	32.3580	0	25.331	0	85.263	0	-1e10	8	-1e10	8	-1E+10	1	-1E+10	1	-1E+10	1	-1E+10	1	-1E+10	1	-1E+10	1
4902554	83	C	05/26/2023	03:57	-132.794	47.700	0	87.10	0	7.0490	0	32.3570	0	25.332	0	86.353	0	-1e10	8	-1e10	8	-1E+10	1	-1E+10	1	-1E+10	1	-1E+10	1	-1E+10	1	-1E+10	1
4902554	83	C	05/26/2023	03:57	-132.794	47.700	0	87.90	0	7.0490	0	32.3580	0	25.333	0	87.146	0	-1e10	8	-1e10	8	-1E+10	1	-1E+10	1	-1E+10	1	-1E+10	1	-1E+10	1	-1E+10	1
4902554	83	C	05/26/2023	03:57	-132.794	47.700	0	89.00	0	7.0540	0	32.3590	0	25.333	0	88.237	0	-1e10	8	-1e10	8	-1E+10	1	-1E+10	1	-1E+10	1	-1E+10	1	-1E+10	1	-1E+10	1
4902554	83	C	05/26/2023	03:57	-132.794	47.700	0	90.20	0	7.0560	0	32.3610	0	25.334	0	89.426	0	-1e10	8	-1e10	8	-1E+10	1	-1E+10	1	-1E+10	1	-1E+10	1	-1E+10	1	-1E+10	1
4902554	83	C	05/26/2023	03:57	-132.794	47.700	0	90.80	0	7.0580	0	32.3620	0	25.335	0	90.021	0	-1e10	8	-1e10	8	-1E+10	1	-1E+10	1	-1E+10	1	-1E+10	1	-1E+10	1	-1E+10	1
4902554	83	C	05/26/2023	03:57	-132.794	47.700	0	92.10	0	7.0400	0	32.3630	0	25.338	0	91.309	0	-1e10	8	-1e10	8	-1E+10	1	-1E+10	1	-1E+10	1	-1E+10	1	-1E+10	1	-1E+10	1
4902554	83	C	05/26/2023	03:57	-132.794	47.700	0	93.00	0	7.0320	0	32.3620	0	25.338	0	92.201	0	-1e10	8	-1e10	8	-1E+10	1	-1E+10	1	-1E+10	1	-1E+10	1	-1E+10	1	-1E+10	1
4902554	83	C	05/26/2023	03:57	-132.794	47.700	0	94.10	0	7.0340	0	32.3640	0	25.340	0	93.292	0	-1e10	8	-1e10	8	-1E+10	1	-1E+10	1	-1E+10	1	-1E+10	1	-1E+10	1	-1E+10	1
4902554	83	C	05/26/2023	03:57	-132.794	47.700	0	94.80	0	7.0380	0	32.3650	0	25.340	0	93.985	0	-1e10	8	-1e10	8	-1E+10	1	-1E+10	1	-1E+10	1	-1E+10	1	-1E+10	1	-1E+10	1
4902554	83	C	05/26/2023	03:57	-132.794	47.700	0	95.70	0	7.0330	0	32.3640	0	25.340	0	94.878	0	-1e10	8	-1e10	8	-1E+10	1	-1E+10	1	-1E+10	1	-1E+10	1	-1E+10	1	-1E+10	1
4902554	83	C	05/26/2023	03:57	-132.794	47.700	0	97.10	0	7.0190	0	32.3660	0	25.343	0	96.265	0	-1e10	8	-1e10	8	-1E+10	1	-1E+10	1	-1E+10	1	-1E+10	1	-1E+10	1	-1E+10	1
4902554	83	C	05/26/2023	03:57	-132.794	47.700	0	98.30	0	7.0270	0	32.3710	0	25.346	0	97.455	0	-1e10	8	-1e10	8	-1E+10	1	-1E+10	1	-1E+10	1	-1E+10	1	-1E+10	1	-1E+10	1
4902554	83	C	05/26/2023	03:57	-132.794	47.700	0	99.30	0	7.0390	0	32.3850	0	25.356	0	98.446	0	-1e10	8	-1e10	8	-1E+10	1	-1E+10	1	-1E+10	1	-1E+10	1	-1E+10	1	-1E+10	1
4902554	83	C	05/26/2023	03:57	-132.794	47.700	0	100.10	0	7.0300	0	32.3870	0	25.358	0	99.239	0	-1e10	8	-1e10	8	-1E+10	1	-1E+10	1	-1E+10	1	-1E+10	1	-1E+10	1	-1E+10	1
4902554	83	C	05/26/2023	03:57	-132.794	47.700	0	101.10	0	7.0040	0	32.3920	0	25.366	0	100.230	0	-1e10	8	-1e10	8	-1E+10	1	-1E+10	1	-1E+10	1	-1E+10	1	-1E+10	1	-1E+10	1
4902554	83	C	05/26/2023	03:57	-132.794	47.700	0	101.90	0	6.9990	0	32.3980	0	25.371	0	101.023	0	-1e10	8	-1e10	8	-1E+10	1	-1E+10	1	-1E+10	1	-1E+10	1	-1E+10	1	-1E+10	1
4902554	83	C	05/26/2023	03:57	-132.794	47.700	0	102.70	0	6.9950	0	32.4010	0	25.374	0	101.816	0	-1e10	8	-1e10	8	-1E+10	1	-1E+10	1	-1E+10	1	-1E+10	1	-1E+10	1	-1E+10	1
4902554	83	C	05/26/2023	03:57	-132.794	47.700	0	103.80	0	6.9860	0	32.4160	0	25.387	0	102.906	0	-1e10	8	-1e10	8	-1E+10	1	-1E+10	1	-1E+10	1	-1E+10	1	-1E+10	1	-1E+10	1
4902554	83	C	05/26/2023	03:57	-132.794	47.700	0	104.80	0	6.9830	0	32.4210	0	25.391	0	103.897	0	-1e10	8	-1e10	8	-1E+10	1	-1E+10	1	-1E+10	1	-1E+10	1	-1E+10	1	-1E+10	1
4902554	83	C	05/26/2023	03:57	-132.794	47.700	0	105.90	0	6.9800	0	32.4290	0	25.398	0	104.987	0	-1e10	8	-1e10	8	-1E+10	1	-1E+10	1	-1E+10	1	-1E+10	1	-1E+10	1	-1E+10	1
4902554	83	C	05/26/2023	03:57	-132.794	47.700	0	106.90	0	6.9770	0	32.4350	0	25.403	0	105.978	0	-1e10	8	-1e10	8	-1E+10	1	-1E+10	1	-1E+10	1	-1E+10	1	-1E+10	1	-1E+10	1
4902554	83	C	05/26/2023	03:57	-132.794	47.700	0	107.80	0	6.9670	0	32.4530	0	25.419	0	106.870	0	-1e10	8	-1e10	8	-1E+10	1	-1E+10	1	-1E+10	1	-1E+10	1	-1E+10	1	-1E+10	1
4902554	83	C	05/26/2023	03:57	-132.794	47.700	0	109.00	0	6.9410	0	32.5010	0	25.460	0	108.060	0	-1e10	8	-1e10	8	-1E+10	1	-1E+10	1	-1E+10	1	-1E+10	1	-1E+10	1	-1E+10	1
4902554	83	C	05/26/2023	03:57	-132.794	47.700	0	110.00	0	6.8970	0	32.5580	0	25.511	0	109.051	0	-1e10	8	-1e10	8	-1E+10	1	-1E+10	1	-1E+10	1	-1E+10	1	-1E+10	1	-1E+10	1
4902554	83	C	05/26/2023	03:57	-132.794	47.700	0	111.00	0	6.8130	0	32.6440	0	25.590	0	110.042	0	-1e10	8	-1e10	8	-1E+10	1	-1E+10	1	-1E+10	1	-1E+10	1	-1E+10	1	-1E+10	1
4902554	83	C	05/26/2023	03:57	-132.794	47.700	0	111.90	0	6.7610	0	32.6980	0	25.639	0	110.934	0	-1e10	8	-1e10	8	-1E+10	1	-1E+10	1	-1E+10	1	-1E+10	1	-1E+10	1	-1E+10	1
4902554	83	C	05/26/2023	03:57	-132.794	47.700	0	112.80	0	6.7010	0	32.7560	0	25.692	0	111.826	0	-1e10	8	-1e10	8	-1E+10	1	-1E+10	1	-1E+10	1	-1E+10	1	-1E+10	1	-1E+10	1
4902554	83	C	05/26/2023	03:57	-132.794	47.700	0	113.80	0	6.6580	0	32.7930	0	25.727	0	112.817	0	-1e10	8	-1e10	8	-1E+10	1	-1E+10	1	-1E+10	1	-1E+10	1	-1E+10	1	-1E+10	1
4902554	83	C	05/26/2023	03:57	-132.794	47.700	0	114.90	0	6.5400	0	32.8810	0	25.812	0	113.907	0	-1e10	8	-1e10	8	-1E+10	1	-1E+10	1	-1E+10	1	-1E+10	1	-1E+10	1	-1E+10	1
4902554	83	C	05/26/2023	03:57	-132.794	47.700	0	116.00	0	6.4560	0	32.9580	0	25.883	0	114.997	0	-1e10	8	-1e10	8	-1E+10	1	-1E+10	1	-1E+10	1	-1E+10	1	-1E+10	1	-1E+10	1
4902554	83	C	05/26/2023	03:57	-132.794	47.700	0	117.10	0	6.3680	0	33.0300	0	25.951	0	116.088	0	-1e10	8	-1e10	8	-1E+10	1	-1E+10	1	-1E+10	1	-1E+10	1	-1E+10	1	-1E+10	1
4902554	83	C	05/26/2023	03:57	-132.794	47.700	0	118.00	0	6.3280	0	33.0500	0	25.972	0	116.980	0	-1e10	8	-1e10	8	-1E+10	1	-1E+10	1	-1E+10	1	-1E+10	1	-1E+10	1	-1E+10	1
4902554	83	C	05/26/2023	03:57	-132.794	47.700	0	118.90	0	6.3040	0	33.0620	0	25.985	0	117.872	0	-1e10	8	-1e10	8	-1E+10	1	-1E+10	1	-1E+10	1	-1E+10	1	-1E+10	1	-1E+10	1
4902554	83	C	05/26/2023	03:57	-132.794	47.700	0	119.80	0	6.2600	0	33.1010	0	26.021	0	118.763	0	-1e10	8	-1e10	8	-1E+10	1	-1E+10	1	-1E+10	1	-1E+10	1	-1E+10	1	-1E+10	1
4902554	83	C	05/26/2023	03:57	-132.794	47.700	0	120.80	0	6.2030	0	33.1510	0	26.068	0	119.755	0	-1e10	8	-1e10	8	-1E+10	1	-1E+10	1	-1E+10	1	-1E+10	1	-1E+10	1	-1E+10	1
4902554	83	C	05/26/2023	03:57	-132.794	47.700	0	121.80	0	6.1820	0	33.1640	0	26.081	0	120.746	0	-1e10	8	-1e10	8	-1E+10	1	-1E+10	1	-1E+10	1	-1E+10	1	-1E+10	1	-1E+10	1
4902554	83	C	05/26/2023	03:57	-132.794	47.700	0	122.80	0	6.1400	0	33.2050	0	26.118	0	121.737	0	-1e10	8	-1e10	8	-1E+10	1	-1E+10	1	-1E+10	1	-1E+10	1	-1E+10	1	-1E+10	1
4902554	83	C	05/26/2023	03:57	-132.794	47.700	0	124.00	0	6.1160	0	33.2290	0	26.140	0	122.926	0	-1e10	8	-1e10	8	-1E+10	1	-1E+10	1	-1E+10	1	-1E+10	1	-1E+10	1	-1E+10	1
4902554	83	C	05/26/2023	03:57	-132.794	47.700	0	125.00	0	6.0930	0	33.2450	0	26.156	0	123.917	0	-1e10	8	-1e10	8	-1E+10	1	-1E+10	1	-1E+10	1	-1E+10	1	-1E+10	1	-1E+10	1
4902554	83	C	05/26/2023	03:57	-132.794	47.700	0	126.20	0	6.0610	0	33.2650	0	26.176	0	125.106	0	-1e10	8	-1e10	8	-1E+10	1	-1E+10	1	-1E+10	1	-1E+10	1	-1E+10	1	-1E+10	1
4902554	83	C	05/26/2023	03:57	-132.794	47.700	0	127.00	0	6.0220	0	33.2980	0	26.207	0	125.899	0	-1e10	8	-1e10	8	-1E+10	1	-1E+10	1	-1E+10	1	-1E+10	1	-1E+10	1	-1E+10	1
4902554	83	C	05/26/2023	03:57	-132.794	47.700	0	127.80	0	6.0180	0	33.3220	0	26.226	0	126.692	0	-1e10	8	-1e10	8	-1E+10	1	-1E+10	1	-1E+10	1	-1E+10	1	-1E+10	1	-1E+10	1
4902554	83	C	05/26/2023	03:57	-132.794	47.700	0	129.00	0	6.0070	0	33.3410	0	26.242	0	127.881	0	-1e10	8	-1e10	8	-1E+10	1	-1E+10	1	-1E+10	1	-1E+10	1	-1E+10	1	-1E+10	1
4902554	83	C	05/26/2023	03:57	-132.794	47.700	0	130.20	0	5.9880	0	33.3660	0	26.265	0	129.070	0	-1e10	8	-1e10	8	-1E+10	1	-1E+10	1	-1E+10	1	-1E+10	1	-1E+10	1	-1E+10	1
4902554	83	C	05/26/2023	03:57	-132.794	47.700	0	131.00	0	5.9840	0	33.3730	0	26.271	0	129.863	0	-1e10	8	-1e10	8	-1E+10	1	-1E+10	1	-1E+10	1	-1E+10	1	-1E+10	1	-1E+10	1
4902554	83	C	05/26/2023	03:57	-132.794	47.700	0	131.90	0	5.9690	0	33.3950	0	26.290	0	130.755	0	-1e10	8	-1e10	8	-1E+10	1	-1E+10	1	-1E+10	1	-1E+10	1	-1E+10	1	-1E+10	1
4902554	83	C	05/26/2023	03:57	-132.794	47.700	0	132.80	0	5.9420	0	33.4240	0	26.316	0	131.647	0	-1e10	8	-1e10	8	-1E+10	1	-1E+10	1	-1E+10	1	-1E+10	1	-1E+10	1	-1E+10	1
4902554	83	C	05/26/2023	03:57	-132.794	47.700	0	133.60	0	5.9200	0	33.4400	0	26.331	0	132.440	0	-1e10	8	-1e10	8	-1E+10	1	-1E+10	1	-1E+10	1	-1E+10	1	-1E+10	1	-1E+10	1
4902554	83	C	05/26/2023	03:57	-132.794	47.700	0	134.90	0	5.9160	0	33.4530	0	26.342	0	133.728	0	-1e10	8	-1e10	8	-1E+10	1	-1E+10	1	-1E+10	1	-1E+10	1	-1E+10	1	-1E+10	1
4902554	83	C	05/26/2023	03:57	-132.794	47.700	0	136.20	0	5.9140	0	33.4620	0	26.350	0	135.016	0	-1e10	8	-1e10	8	-1E+10	1	-1E+10	1	-1E+10	1	-1E+10	1	-1E+10	1	-1E+10	1
4902554	83	C	05/26/2023	03:57	-132.794	47.700	0	137.10	0	5.9130	0	33.4630	0	26.351	0	135.908	0	-1e10	8	-1e10	8	-1E+10	1	-1E+10	1	-1E+10	1	-1E+10	1	-1E+10	1	-1E+10	1
4902554	83	C	05/26/2023	03:57	-132.794	47.700	0	137.90	0	5.9100	0	33.4710	0	26.357	0	136.701	0	-1e10	8	-1e10	8	-1E+10	1	-1E+10	1	-1E+10	1	-1E+10	1	-1E+10	1	-1E+10	1
4902554	83	C	05/26/2023	03:57	-132.794	47.700	0	138.80	0	5.9040	0	33.4730	0	26.360	0	137.593	0	-1e10	8	-1e10	8	-1E+10	1	-1E+10	1	-1E+10	1	-1E+10	1	-1E+10	1	-1E+10	1
4902554	83	C	05/26/2023	03:57	-132.794	47.700	0	139.70	0	5.8970	0	33.4770	0	26.364	0	138.485	0	-1e10	8	-1e10	8	-1E+10	1	-1E+10	1	-1E+10	1	-1E+10	1	-1E+10	1	-1E+10	1
4902554	83	C	05/26/2023	03:57	-132.794	47.700	0	140.90	0	5.8540	0	33.4960	0	26.384	0	139.674	0	-1e10	8	-1e10	8	-1E+10	1	-1E+10	1	-1E+10	1	-1E+10	1	-1E+10	1	-1E+10	1
4902554	83	C	05/26/2023	03:57	-132.794	47.700	0	142.30	0	5.7920	0	33.5130	0	26.405	0	141.061	0	-1e10	8	-1e10	8	-1E+10	1	-1E+10	1	-1E+10	1	-1E+10	1	-1E+10	1	-1E+10	1
4902554	83	C	05/26/2023	03:57	-132.794	47.700	0	143.10	0	5.7820	0	33.5260	0	26.416	0	141.854	0	-1e10	8	-1e10	8	-1E+10	1	-1E+10	1	-1E+10	1	-1E+10	1	-1E+10	1	-1E+10	1
4902554	83	C	05/26/2023	03:57	-132.794	47.700	0	144.00	0	5.7900	0	33.5310	0	26.419	0	142.746	0	-1e10	8	-1e10	8	-1E+10	1	-1E+10	1	-1E+10	1	-1E+10	1	-1E+10	1	-1E+10	1
4902554	83	C	05/26/2023	03:57	-132.794	47.700	0	144.90	0	5.7800	0	33.5340	0	26.423	0	143.638	0	-1e10	8	-1e10	8	-1E+10	1	-1E+10	1	-1E+10	1	-1E+10	1	-1E+10	1	-1E+10	1
4902554	83	C	05/26/2023	03:57	-132.794	47.700	0	145.80	0	5.7830	0	33.5400	0	26.427	0	144.529	0	-1e10	8	-1e10	8	-1E+10	1	-1E+10	1	-1E+10	1	-1E+10	1	-1E+10	1	-1E+10	1
4902554	83	C	05/26/2023	03:57	-132.794	47.700	0	146.70	0	5.7800	0	33.5450	0	26.432	0	145.421	0	-1e10	8	-1e10	8	-1E+10	1	-1E+10	1	-1E+10	1	-1E+10	1	-1E+10	1	-1E+10	1
4902554	83	C	05/26/2023	03:57	-132.794	47.700	0	147.60	0	5.7760	0	33.5500	0	26.436	0	146.313	0	-1e10	8	-1e10	8	-1E+10	1	-1E+10	1	-1E+10	1	-1E+10	1	-1E+10	1	-1E+10	1
4902554	83	C	05/26/2023	03:57	-132.794	47.700	0	148.90	0	5.7640	0	33.5610	0	26.446	0	147.601	0	-1e10	8	-1e10	8	-1E+10	1	-1E+10	1	-1E+10	1	-1E+10	1	-1E+10	1	-1E+10	1
4902554	83	C	05/26/2023	03:57	-132.794	47.700	0	150.40	0	5.7780	0	33.5880	0	26.466	0	149.088	0	-1e10	8	-1e10	8	-1E+10	1	-1E+10	1	-1E+10	1	-1E+10	1	-1E+10	1	-1E+10	1
4902554	83	C	05/26/2023	03:57	-132.794	47.700	0	151.30	0	5.7460	0	33.5930	0	26.474	0	149.980	0	-1e10	8	-1e10	8	-1E+10	1	-1E+10	1	-1E+10	1	-1E+10	1	-1E+10	1	-1E+10	1
4902554	83	C	05/26/2023	03:57	-132.794	47.700	0	152.30	0	5.6870	0	33.6020	0	26.488	0	150.970	0	-1e10	8	-1e10	8	-1E+10	1	-1E+10	1	-1E+10	1	-1E+10	1	-1E+10	1	-1E+10	1
4902554	83	C	05/26/2023	03:57	-132.794	47.700	0	153.20	0	5.6750	0	33.6150	0	26.500	0	151.862	0	-1e10	8	-1e10	8	-1E+10	1	-1E+10	1	-1E+10	1	-1E+10	1	-1E+10	1	-1E+10	1
4902554	83	C	05/26/2023	03:57	-132.794	47.700	0	154.20	0	5.6680	0	33.6160	0	26.502	0	152.853	0	-1e10	8	-1e10	8	-1E+10	1	-1E+10	1	-1E+10	1	-1E+10	1	-1E+10	1	-1E+10	1
4902554	83	C	05/26/2023	03:57	-132.794	47.700	0	155.20	0	5.6730	0	33.6160	0	26.501	0	153.844	0	-1e10	8	-1e10	8	-1E+10	1	-1E+10	1	-1E+10	1	-1E+10	1	-1E+10	1	-1E+10	1
4902554	83	C	05/26/2023	03:57	-132.794	47.700	0	156.20	0	5.6760	0	33.6160	0	26.501	0	154.835	0	-1e10	8	-1e10	8	-1E+10	1	-1E+10	1	-1E+10	1	-1E+10	1	-1E+10	1	-1E+10	1
4902554	83	C	05/26/2023	03:57	-132.794	47.700	0	157.20	0	5.6780	0	33.6190	0	26.503	0	155.826	0	-1e10	8	-1e10	8	-1E+10	1	-1E+10	1	-1E+10	1	-1E+10	1	-1E+10	1	-1E+10	1
4902554	83	C	05/26/2023	03:57	-132.794	47.700	0	158.20	0	5.6740	0	33.6240	0	26.507	0	156.817	0	-1e10	8	-1e10	8	-1E+10	1	-1E+10	1	-1E+10	1	-1E+10	1	-1E+10	1	-1E+10	1
4902554	83	C	05/26/2023	03:57	-132.794	47.700	0	159.20	0	5.6530	0	33.6370	0	26.520	0	157.808	0	-1e10	8	-1e10	8	-1E+10	1	-1E+10	1	-1E+10	1	-1E+10	1	-1E+10	1	-1E+10	1
4902554	83	C	05/26/2023	03:57	-132.794	47.700	0	160.20	0	5.6530	0	33.6380	0	26.521	0	158.798	0	-1e10	8	-1e10	8	-1E+10	1	-1E+10	1	-1E+10	1	-1E+10	1	-1E+10	1	-1E+10	1
4902554	83	C	05/26/2023	03:57	-132.794	47.700	0	161.20	0	5.6550	0	33.6400	0	26.522	0	159.789	0	-1e10	8	-1e10	8	-1E+10	1	-1E+10	1	-1E+10	1	-1E+10	1	-1E+10	1	-1E+10	1
4902554	83	C	05/26/2023	03:57	-132.794	47.700	0	162.30	0	5.6640	0	33.6450	0	26.525	0	160.879	0	-1e10	8	-1e10	8	-1E+10	1	-1E+10	1	-1E+10	1	-1E+10	1	-1E+10	1	-1E+10	1
4902554	83	C	05/26/2023	03:57	-132.794	47.700	0	163.30	0	5.6680	0	33.6530	0	26.531	0	161.870	0	-1e10	8	-1e10	8	-1E+10	1	-1E+10	1	-1E+10	1	-1E+10	1	-1E+10	1	-1E+10	1
4902554	83	C	05/26/2023	03:57	-132.794	47.700	0	164.40	0	5.6610	0	33.6600	0	26.537	0	162.960	0	-1e10	8	-1e10	8	-1E+10	1	-1E+10	1	-1E+10	1	-1E+10	1	-1E+10	1	-1E+10	1
4902554	83	C	05/26/2023	03:57	-132.794	47.700	0	165.40	0	5.6590	0	33.6620	0	26.539	0	163.951	0	-1e10	8	-1e10	8	-1E+10	1	-1E+10	1	-1E+10	1	-1E+10	1	-1E+10	1	-1E+10	1
4902554	83	C	05/26/2023	03:57	-132.794	47.700	0	166.50	0	5.6580	0	33.6620	0	26.539	0	165.041	0	-1e10	8	-1e10	8	-1E+10	1	-1E+10	1	-1E+10	1	-1E+10	1	-1E+10	1	-1E+10	1
4902554	83	C	05/26/2023	03:57	-132.794	47.700	0	167.50	0	5.6470	0	33.6710	0	26.548	0	166.032	0	-1e10	8	-1e10	8	-1E+10	1	-1E+10	1	-1E+10	1	-1E+10	1	-1E+10	1	-1E+10	1
4902554	83	C	05/26/2023	03:57	-132.794	47.700	0	168.60	0	5.6410	0	33.6730	0	26.550	0	167.122	0	-1e10	8	-1e10	8	-1E+10	1	-1E+10	1	-1E+10	1	-1E+10	1	-1E+10	1	-1E+10	1
4902554	83	C	05/26/2023	03:57	-132.794	47.700	0	169.70	0	5.6360	0	33.6770	0	26.554	0	168.211	0	-1e10	8	-1e10	8	-1E+10	1	-1E+10	1	-1E+10	1	-1E+10	1	-1E+10	1	-1E+10	1
4902554	83	C	05/26/2023	03:57	-132.794	47.700	0	170.80	0	5.6250	0	33.6850	0	26.561	0	169.301	0	-1e10	8	-1e10	8	-1E+10	1	-1E+10	1	-1E+10	1	-1E+10	1	-1E+10	1	-1E+10	1
4902554	83	C	05/26/2023	03:57	-132.794	47.700	0	171.90	0	5.6080	0	33.6870	0	26.565	0	170.391	0	-1e10	8	-1e10	8	-1E+10	1	-1E+10	1	-1E+10	1	-1E+10	1	-1E+10	1	-1E+10	1
4902554	83	C	05/26/2023	03:57	-132.794	47.700	0	173.00	0	5.6030	0	33.6890	0	26.567	0	171.481	0	-1e10	8	-1e10	8	-1E+10	1	-1E+10	1	-1E+10	1	-1E+10	1	-1E+10	1	-1E+10	1
4902554	83	C	05/26/2023	03:57	-132.794	47.700	0	174.10	0	5.6020	0	33.6890	0	26.567	0	172.571	0	-1e10	8	-1e10	8	-1E+10	1	-1E+10	1	-1E+10	1	-1E+10	1	-1E+10	1	-1E+10	1
4902554	83	C	05/26/2023	03:57	-132.794	47.700	0	175.10	0	5.6010	0	33.6900	0	26.568	0	173.562	0	-1e10	8	-1e10	8	-1E+10	1	-1E+10	1	-1E+10	1	-1E+10	1	-1E+10	1	-1E+10	1
4902554	83	C	05/26/2023	03:57	-132.794	47.700	0	176.20	0	5.6000	0	33.6900	0	26.568	0	174.652	0	-1e10	8	-1e10	8	-1E+10	1	-1E+10	1	-1E+10	1	-1E+10	1	-1E+10	1	-1E+10	1
4902554	83	C	05/26/2023	03:57	-132.794	47.700	0	177.40	0	5.5920	0	33.6940	0	26.573	0	175.841	0	-1e10	8	-1e10	8	-1E+10	1	-1E+10	1	-1E+10	1	-1E+10	1	-1E+10	1	-1E+10	1
4902554	83	C	05/26/2023	03:57	-132.794	47.700	0	178.50	0	5.5860	0	33.6960	0	26.575	0	176.930	0	-1e10	8	-1e10	8	-1E+10	1	-1E+10	1	-1E+10	1	-1E+10	1	-1E+10	1	-1E+10	1
4902554	83	C	05/26/2023	03:57	-132.794	47.700	0	179.60	0	5.5770	0	33.6990	0	26.578	0	178.020	0	-1e10	8	-1e10	8	-1E+10	1	-1E+10	1	-1E+10	1	-1E+10	1	-1E+10	1	-1E+10	1
4902554	83	C	05/26/2023	03:57	-132.794	47.700	0	180.70	0	5.5740	0	33.7010	0	26.580	0	179.110	0	-1e10	8	-1e10	8	-1E+10	1	-1E+10	1	-1E+10	1	-1E+10	1	-1E+10	1	-1E+10	1
4902554	83	C	05/26/2023	03:57	-132.794	47.700	0	181.80	0	5.5580	0	33.7070	0	26.587	0	180.200	0	-1e10	8	-1e10	8	-1E+10	1	-1E+10	1	-1E+10	1	-1E+10	1	-1E+10	1	-1E+10	1
4902554	83	C	05/26/2023	03:57	-132.794	47.700	0	182.90	0	5.5360	0	33.7150	0	26.596	0	181.290	0	-1e10	8	-1e10	8	-1E+10	1	-1E+10	1	-1E+10	1	-1E+10	1	-1E+10	1	-1E+10	1
4902554	83	C	05/26/2023	03:57	-132.794	47.700	0	184.00	0	5.5380	0	33.7150	0	26.596	0	182.380	0	-1e10	8	-1e10	8	-1E+10	1	-1E+10	1	-1E+10	1	-1E+10	1	-1E+10	1	-1E+10	1
4902554	83	C	05/26/2023	03:57	-132.794	47.700	0	185.10	0	5.5310	0	33.7200	0	26.601	0	183.470	0	-1e10	8	-1e10	8	-1E+10	1	-1E+10	1	-1E+10	1	-1E+10	1	-1E+10	1	-1E+10	1
4902554	83	C	05/26/2023	03:57	-132.794	47.700	0	186.30	0	5.5250	0	33.7240	0	26.604	0	184.658	0	-1e10	8	-1e10	8	-1E+10	1	-1E+10	1	-1E+10	1	-1E+10	1	-1E+10	1	-1E+10	1
4902554	83	C	05/26/2023	03:57	-132.794	47.700	0	187.40	0	5.5130	0	33.7250	0	26.607	0	185.748	0	-1e10	8	-1e10	8	-1E+10	1	-1E+10	1	-1E+10	1	-1E+10	1	-1E+10	1	-1E+10	1
4902554	83	C	05/26/2023	03:57	-132.794	47.700	0	188.40	0	5.4980	0	33.7290	0	26.612	0	186.739	0	-1e10	8	-1e10	8	-1E+10	1	-1E+10	1	-1E+10	1	-1E+10	1	-1E+10	1	-1E+10	1
4902554	83	C	05/26/2023	03:57	-132.794	47.700	0	189.50	0	5.4700	0	33.7340	0	26.619	0	187.829	0	-1e10	8	-1e10	8	-1E+10	1	-1E+10	1	-1E+10	1	-1E+10	1	-1E+10	1	-1E+10	1
4902554	83	C	05/26/2023	03:57	-132.794	47.700	0	190.60	0	5.4630	0	33.7340	0	26.620	0	188.919	0	-1e10	8	-1e10	8	-1E+10	1	-1E+10	1	-1E+10	1	-1E+10	1	-1E+10	1	-1E+10	1
4902554	83	C	05/26/2023	03:57	-132.794	47.700	0	191.70	0	5.4540	0	33.7350	0	26.622	0	190.008	0	-1e10	8	-1e10	8	-1E+10	1	-1E+10	1	-1E+10	1	-1E+10	1	-1E+10	1	-1E+10	1
4902554	83	C	05/26/2023	03:57	-132.794	47.700	0	192.80	0	5.4240	0	33.7390	0	26.628	0	191.098	0	-1e10	8	-1e10	8	-1E+10	1	-1E+10	1	-1E+10	1	-1E+10	1	-1E+10	1	-1E+10	1
4902554	83	C	05/26/2023	03:57	-132.794	47.700	0	193.80	0	5.4130	0	33.7400	0	26.630	0	192.089	0	-1e10	8	-1e10	8	-1E+10	1	-1E+10	1	-1E+10	1	-1E+10	1	-1E+10	1	-1E+10	1
4902554	83	C	05/26/2023	03:57	-132.794	47.700	0	194.80	0	5.4050	0	33.7410	0	26.632	0	193.080	0	-1e10	8	-1e10	8	-1E+10	1	-1E+10	1	-1E+10	1	-1E+10	1	-1E+10	1	-1E+10	1
4902554	83	C	05/26/2023	03:57	-132.794	47.700	0	195.80	0	5.3980	0	33.7410	0	26.633	0	194.070	0	-1e10	8	-1e10	8	-1E+10	1	-1E+10	1	-1E+10	1	-1E+10	1	-1E+10	1	-1E+10	1
4902554	83	C	05/26/2023	03:57	-132.794	47.700	0	196.60	0	5.3860	0	33.7430	0	26.636	0	194.863	0	-1e10	8	-1e10	8	-1E+10	1	-1E+10	1	-1E+10	1	-1E+10	1	-1E+10	1	-1E+10	1
4902554	83	C	05/26/2023	03:57	-132.794	47.700	0	197.80	0	5.3690	0	33.7440	0	26.639	0	196.052	0	-1e10	8	-1e10	8	-1E+10	1	-1E+10	1	-1E+10	1	-1E+10	1	-1E+10	1	-1E+10	1
4902554	83	C	05/26/2023	03:57	-132.794	47.700	0	199.00	0	5.3510	0	33.7470	0	26.643	0	197.240	0	-1e10	8	-1e10	8	-1E+10	1	-1E+10	1	-1E+10	1	-1E+10	1	-1E+10	1	-1E+10	1
4902554	83	C	05/26/2023	03:57	-132.794	47.700	0	199.80	0	5.3310	0	33.7510	0	26.649	0	198.033	0	-1e10	8	-1e10	8	-1E+10	1	-1E+10	1	-1E+10	1	-1E+10	1	-1E+10	1	-1E+10	1
4902554	83	C	05/26/2023	03:57	-132.794	47.700	0	201.00	0	5.3250	0	33.7500	0	26.649	0	199.222	0	-1e10	8	-1e10	8	-1E+10	1	-1E+10	1	-1E+10	1	-1E+10	1	-1E+10	1	-1E+10	1
4902554	83	C	05/26/2023	03:57	-132.794	47.700	0	202.20	0	5.3100	0	33.7530	0	26.653	0	200.411	0	-1e10	8	-1e10	8	-1E+10	1	-1E+10	1	-1E+10	1	-1E+10	1	-1E+10	1	-1E+10	1
4902554	83	C	05/26/2023	03:57	-132.794	47.700	0	203.00	0	5.2940	0	33.7550	0	26.656	0	201.203	0	-1e10	8	-1e10	8	-1E+10	1	-1E+10	1	-1E+10	1	-1E+10	1	-1E+10	1	-1E+10	1
4902554	83	C	05/26/2023	03:57	-132.794	47.700	0	203.80	0	5.2820	0	33.7570	0	26.659	0	201.996	0	-1e10	8	-1e10	8	-1E+10	1	-1E+10	1	-1E+10	1	-1E+10	1	-1E+10	1	-1E+10	1
4902554	83	C	05/26/2023	03:57	-132.794	47.700	0	205.00	0	5.2730	0	33.7580	0	26.661	0	203.184	0	-1e10	8	-1e10	8	-1E+10	1	-1E+10	1	-1E+10	1	-1E+10	1	-1E+10	1	-1E+10	1
4902554	83	C	05/26/2023	03:57	-132.794	47.700	0	206.20	0	5.2610	0	33.7580	0	26.663	0	204.373	0	-1e10	8	-1e10	8	-1E+10	1	-1E+10	1	-1E+10	1	-1E+10	1	-1E+10	1	-1E+10	1
4902554	83	C	05/26/2023	03:57	-132.794	47.700	0	207.00	0	5.2540	0	33.7590	0	26.664	0	205.166	0	-1e10	8	-1e10	8	-1E+10	1	-1E+10	1	-1E+10	1	-1E+10	1	-1E+10	1	-1E+10	1
4902554	83	C	05/26/2023	03:57	-132.794	47.700	0	207.80	0	5.2450	0	33.7600	0	26.666	0	205.958	0	-1e10	8	-1e10	8	-1E+10	1	-1E+10	1	-1E+10	1	-1E+10	1	-1E+10	1	-1E+10	1
4902554	83	C	05/26/2023	03:57	-132.794	47.700	0	208.90	0	5.2310	0	33.7610	0	26.668	0	207.048	0	-1e10	8	-1e10	8	-1E+10	1	-1E+10	1	-1E+10	1	-1E+10	1	-1E+10	1	-1E+10	1
4902554	83	C	05/26/2023	03:57	-132.794	47.700	0	210.10	0	5.1970	0	33.7650	0	26.676	0	208.237	0	-1e10	8	-1e10	8	-1E+10	1	-1E+10	1	-1E+10	1	-1E+10	1	-1E+10	1	-1E+10	1
4902554	83	C	05/26/2023	03:57	-132.794	47.700	0	210.90	0	5.1840	0	33.7680	0	26.679	0	209.029	0	-1e10	8	-1e10	8	-1E+10	1	-1E+10	1	-1E+10	1	-1E+10	1	-1E+10	1	-1E+10	1
4902554	83	C	05/26/2023	03:57	-132.794	47.700	0	211.70	0	5.1440	0	33.7710	0	26.686	0	209.822	0	-1e10	8	-1e10	8	-1E+10	1	-1E+10	1	-1E+10	1	-1E+10	1	-1E+10	1	-1E+10	1
4902554	83	C	05/26/2023	03:57	-132.794	47.700	0	212.90	0	5.1350	0	33.7710	0	26.688	0	211.010	0	-1e10	8	-1e10	8	-1E+10	1	-1E+10	1	-1E+10	1	-1E+10	1	-1E+10	1	-1E+10	1
4902554	83	C	05/26/2023	03:57	-132.794	47.700	0	214.20	0	5.1260	0	33.7720	0	26.689	0	212.298	0	-1e10	8	-1e10	8	-1E+10	1	-1E+10	1	-1E+10	1	-1E+10	1	-1E+10	1	-1E+10	1
4902554	83	C	05/26/2023	03:57	-132.794	47.700	0	215.00	0	5.1090	0	33.7720	0	26.691	0	213.091	0	-1e10	8	-1e10	8	-1E+10	1	-1E+10	1	-1E+10	1	-1E+10	1	-1E+10	1	-1E+10	1
4902554	83	C	05/26/2023	03:57	-132.794	47.700	0	215.80	0	5.1020	0	33.7720	0	26.692	0	213.883	0	-1e10	8	-1e10	8	-1E+10	1	-1E+10	1	-1E+10	1	-1E+10	1	-1E+10	1	-1E+10	1
4902554	83	C	05/26/2023	03:57	-132.794	47.700	0	216.60	0	5.0880	0	33.7740	0	26.695	0	214.676	0	-1e10	8	-1e10	8	-1E+10	1	-1E+10	1	-1E+10	1	-1E+10	1	-1E+10	1	-1E+10	1
4902554	83	C	05/26/2023	03:57	-132.794	47.700	0	217.90	0	5.0690	0	33.7750	0	26.698	0	215.963	0	-1e10	8	-1e10	8	-1E+10	1	-1E+10	1	-1E+10	1	-1E+10	1	-1E+10	1	-1E+10	1
4902554	83	C	05/26/2023	03:57	-132.794	47.700	0	219.10	0	5.0480	0	33.7750	0	26.701	0	217.152	0	-1e10	8	-1e10	8	-1E+10	1	-1E+10	1	-1E+10	1	-1E+10	1	-1E+10	1	-1E+10	1
4902554	83	C	05/26/2023	03:57	-132.794	47.700	0	219.90	0	5.0360	0	33.7760	0	26.703	0	217.945	0	-1e10	8	-1e10	8	-1E+10	1	-1E+10	1	-1E+10	1	-1E+10	1	-1E+10	1	-1E+10	1
4902554	83	C	05/26/2023	03:57	-132.794	47.700	0	220.80	0	5.0320	0	33.7760	0	26.703	0	218.836	0	-1e10	8	-1e10	8	-1E+10	1	-1E+10	1	-1E+10	1	-1E+10	1	-1E+10	1	-1E+10	1
4902554	83	C	05/26/2023	03:57	-132.794	47.700	0	222.00	0	5.0260	0	33.7780	0	26.706	0	220.025	0	-1e10	8	-1e10	8	-1E+10	1	-1E+10	1	-1E+10	1	-1E+10	1	-1E+10	1	-1E+10	1
4902554	83	C	05/26/2023	03:57	-132.794	47.700	0	223.30	0	5.0130	0	33.7820	0	26.710	0	221.313	0	-1e10	8	-1e10	8	-1E+10	1	-1E+10	1	-1E+10	1	-1E+10	1	-1E+10	1	-1E+10	1
4902554	83	C	05/26/2023	03:57	-132.794	47.700	0	224.10	0	4.9920	0	33.7830	0	26.713	0	222.105	0	-1e10	8	-1e10	8	-1E+10	1	-1E+10	1	-1E+10	1	-1E+10	1	-1E+10	1	-1E+10	1
4902554	83	C	05/26/2023	03:57	-132.794	47.700	0	225.00	0	4.9850	0	33.7840	0	26.715	0	222.997	0	-1e10	8	-1e10	8	-1E+10	1	-1E+10	1	-1E+10	1	-1E+10	1	-1E+10	1	-1E+10	1
4902554	83	C	05/26/2023	03:57	-132.794	47.700	0	225.80	0	4.9790	0	33.7850	0	26.716	0	223.789	0	-1e10	8	-1e10	8	-1E+10	1	-1E+10	1	-1E+10	1	-1E+10	1	-1E+10	1	-1E+10	1
4902554	83	C	05/26/2023	03:57	-132.794	47.700	0	226.70	0	4.9730	0	33.7850	0	26.717	0	224.680	0	-1e10	8	-1e10	8	-1E+10	1	-1E+10	1	-1E+10	1	-1E+10	1	-1E+10	1	-1E+10	1
4902554	83	C	05/26/2023	03:57	-132.794	47.700	0	227.90	0	4.9530	0	33.7860	0	26.720	0	225.869	0	-1e10	8	-1e10	8	-1E+10	1	-1E+10	1	-1E+10	1	-1E+10	1	-1E+10	1	-1E+10	1
4902554	83	C	05/26/2023	03:57	-132.794	47.700	0	229.20	0	4.9490	0	33.7860	0	26.721	0	227.157	0	-1e10	8	-1e10	8	-1E+10	1	-1E+10	1	-1E+10	1	-1E+10	1	-1E+10	1	-1E+10	1
4902554	83	C	05/26/2023	03:57	-132.794	47.700	0	230.10	0	4.9430	0	33.7860	0	26.721	0	228.048	0	-1e10	8	-1e10	8	-1E+10	1	-1E+10	1	-1E+10	1	-1E+10	1	-1E+10	1	-1E+10	1
4902554	83	C	05/26/2023	03:57	-132.794	47.700	0	230.90	0	4.9170	0	33.7870	0	26.725	0	228.841	0	-1e10	8	-1e10	8	-1E+10	1	-1E+10	1	-1E+10	1	-1E+10	1	-1E+10	1	-1E+10	1
4902554	83	C	05/26/2023	03:57	-132.794	47.700	0	231.80	0	4.9160	0	33.7860	0	26.724	0	229.732	0	-1e10	8	-1e10	8	-1E+10	1	-1E+10	1	-1E+10	1	-1E+10	1	-1E+10	1	-1E+10	1
4902554	83	C	05/26/2023	03:57	-132.794	47.700	0	232.70	0	4.8970	0	33.7910	0	26.731	0	230.624	0	-1e10	8	-1e10	8	-1E+10	1	-1E+10	1	-1E+10	1	-1E+10	1	-1E+10	1	-1E+10	1
4902554	83	C	05/26/2023	03:57	-132.794	47.700	0	233.90	0	4.8750	0	33.7920	0	26.734	0	231.812	0	-1e10	8	-1e10	8	-1E+10	1	-1E+10	1	-1E+10	1	-1E+10	1	-1E+10	1	-1E+10	1
4902554	83	C	05/26/2023	03:57	-132.794	47.700	0	235.20	0	4.8700	0	33.7920	0	26.734	0	233.100	0	-1e10	8	-1e10	8	-1E+10	1	-1E+10	1	-1E+10	1	-1E+10	1	-1E+10	1	-1E+10	1
4902554	83	C	05/26/2023	03:57	-132.794	47.700	0	236.10	0	4.8700	0	33.7930	0	26.735	0	233.991	0	-1e10	8	-1e10	8	-1E+10	1	-1E+10	1	-1E+10	1	-1E+10	1	-1E+10	1	-1E+10	1
4902554	83	C	05/26/2023	03:57	-132.794	47.700	0	237.00	0	4.8660	0	33.7930	0	26.736	0	234.883	0	-1e10	8	-1e10	8	-1E+10	1	-1E+10	1	-1E+10	1	-1E+10	1	-1E+10	1	-1E+10	1
4902554	83	C	05/26/2023	03:57	-132.794	47.700	0	237.90	0	4.8590	0	33.7940	0	26.737	0	235.774	0	-1e10	8	-1e10	8	-1E+10	1	-1E+10	1	-1E+10	1	-1E+10	1	-1E+10	1	-1E+10	1
4902554	83	C	05/26/2023	03:57	-132.794	47.700	0	238.70	0	4.8550	0	33.7940	0	26.738	0	236.567	0	-1e10	8	-1e10	8	-1E+10	1	-1E+10	1	-1E+10	1	-1E+10	1	-1E+10	1	-1E+10	1
4902554	83	C	05/26/2023	03:57	-132.794	47.700	0	239.60	0	4.8500	0	33.7950	0	26.739	0	237.458	0	-1e10	8	-1e10	8	-1E+10	1	-1E+10	1	-1E+10	1	-1E+10	1	-1E+10	1	-1E+10	1
4902554	83	C	05/26/2023	03:57	-132.794	47.700	0	240.90	0	4.8350	0	33.7960	0	26.741	0	238.746	0	-1e10	8	-1e10	8	-1E+10	1	-1E+10	1	-1E+10	1	-1E+10	1	-1E+10	1	-1E+10	1
4902554	83	C	05/26/2023	03:57	-132.794	47.700	0	242.30	0	4.8190	0	33.7990	0	26.746	0	240.132	0	-1e10	8	-1e10	8	-1E+10	1	-1E+10	1	-1E+10	1	-1E+10	1	-1E+10	1	-1E+10	1
4902554	83	C	05/26/2023	03:57	-132.794	47.700	0	243.20	0	4.8140	0	33.8000	0	26.747	0	241.024	0	-1e10	8	-1e10	8	-1E+10	1	-1E+10	1	-1E+10	1	-1E+10	1	-1E+10	1	-1E+10	1
4902554	83	C	05/26/2023	03:57	-132.794	47.700	0	244.10	0	4.8100	0	33.8000	0	26.747	0	241.915	0	-1e10	8	-1e10	8	-1E+10	1	-1E+10	1	-1E+10	1	-1E+10	1	-1E+10	1	-1E+10	1
4902554	83	C	05/26/2023	03:57	-132.794	47.700	0	245.00	0	4.7930	0	33.8030	0	26.752	0	242.807	0	-1e10	8	-1e10	8	-1E+10	1	-1E+10	1	-1E+10	1	-1E+10	1	-1E+10	1	-1E+10	1
4902554	83	C	05/26/2023	03:57	-132.794	47.700	0	245.90	0	4.7870	0	33.8030	0	26.752	0	243.698	0	-1e10	8	-1e10	8	-1E+10	1	-1E+10	1	-1E+10	1	-1E+10	1	-1E+10	1	-1E+10	1
4902554	83	C	05/26/2023	03:57	-132.794	47.700	0	246.80	0	4.7860	0	33.8030	0	26.752	0	244.590	0	-1e10	8	-1e10	8	-1E+10	1	-1E+10	1	-1E+10	1	-1E+10	1	-1E+10	1	-1E+10	1
4902554	83	C	05/26/2023	03:57	-132.794	47.700	0	247.70	0	4.7830	0	33.8040	0	26.754	0	245.481	0	-1e10	8	-1e10	8	-1E+10	1	-1E+10	1	-1E+10	1	-1E+10	1	-1E+10	1	-1E+10	1
4902554	83	C	05/26/2023	03:57	-132.794	47.700	0	248.60	0	4.7840	0	33.8040	0	26.754	0	246.372	0	-1e10	8	-1e10	8	-1E+10	1	-1E+10	1	-1E+10	1	-1E+10	1	-1E+10	1	-1E+10	1
4902554	83	C	05/26/2023	03:57	-132.794	47.700	0	249.90	0	4.7810	0	33.8060	0	26.755	0	247.660	0	-1e10	8	-1e10	8	-1E+10	1	-1E+10	1	-1E+10	1	-1E+10	1	-1E+10	1	-1E+10	1
4902554	83	C	05/26/2023	03:57	-132.794	47.700	0	251.30	0	4.7750	0	33.8060	0	26.756	0	249.047	0	-1e10	8	-1e10	8	-1E+10	1	-1E+10	1	-1E+10	1	-1E+10	1	-1E+10	1	-1E+10	1
4902554	83	C	05/26/2023	03:57	-132.794	47.700	0	252.20	0	4.7710	0	33.8060	0	26.757	0	249.938	0	-1e10	8	-1e10	8	-1E+10	1	-1E+10	1	-1E+10	1	-1E+10	1	-1E+10	1	-1E+10	1
4902554	83	C	05/26/2023	03:57	-132.794	47.700	0	253.10	0	4.7590	0	33.8060	0	26.758	0	250.829	0	-1e10	8	-1e10	8	-1E+10	1	-1E+10	1	-1E+10	1	-1E+10	1	-1E+10	1	-1E+10	1
4902554	83	C	05/26/2023	03:57	-132.794	47.700	0	254.00	0	4.7540	0	33.8070	0	26.759	0	251.721	0	-1e10	8	-1e10	8	-1E+10	1	-1E+10	1	-1E+10	1	-1E+10	1	-1E+10	1	-1E+10	1
4902554	83	C	05/26/2023	03:57	-132.794	47.700	0	254.90	0	4.7480	0	33.8100	0	26.762	0	252.612	0	-1e10	8	-1e10	8	-1E+10	1	-1E+10	1	-1E+10	1	-1E+10	1	-1E+10	1	-1E+10	1
4902554	83	C	05/26/2023	03:57	-132.794	47.700	0	255.80	0	4.7330	0	33.8120	0	26.766	0	253.503	0	-1e10	8	-1e10	8	-1E+10	1	-1E+10	1	-1E+10	1	-1E+10	1	-1E+10	1	-1E+10	1
4902554	83	C	05/26/2023	03:57	-132.794	47.700	0	256.70	0	4.7260	0	33.8120	0	26.766	0	254.395	0	-1e10	8	-1e10	8	-1E+10	1	-1E+10	1	-1E+10	1	-1E+10	1	-1E+10	1	-1E+10	1
4902554	83	C	05/26/2023	03:57	-132.794	47.700	0	257.60	0	4.7100	0	33.8160	0	26.771	0	255.286	0	-1e10	8	-1e10	8	-1E+10	1	-1E+10	1	-1E+10	1	-1E+10	1	-1E+10	1	-1E+10	1
4902554	83	C	05/26/2023	03:57	-132.794	47.700	0	258.60	0	4.7010	0	33.8150	0	26.771	0	256.277	0	-1e10	8	-1e10	8	-1E+10	1	-1E+10	1	-1E+10	1	-1E+10	1	-1E+10	1	-1E+10	1
4902554	83	C	05/26/2023	03:57	-132.794	47.700	0	259.90	0	4.6800	0	33.8190	0	26.777	0	257.564	0	-1e10	8	-1e10	8	-1E+10	1	-1E+10	1	-1E+10	1	-1E+10	1	-1E+10	1	-1E+10	1
4902554	83	C	05/26/2023	03:57	-132.794	47.700	0	261.30	0	4.6570	0	33.8220	0	26.782	0	258.951	0	-1e10	8	-1e10	8	-1E+10	1	-1E+10	1	-1E+10	1	-1E+10	1	-1E+10	1	-1E+10	1
4902554	83	C	05/26/2023	03:57	-132.794	47.700	0	262.30	0	4.6530	0	33.8230	0	26.783	0	259.941	0	-1e10	8	-1e10	8	-1E+10	1	-1E+10	1	-1E+10	1	-1E+10	1	-1E+10	1	-1E+10	1
4902554	83	C	05/26/2023	03:57	-132.794	47.700	0	263.20	0	4.6450	0	33.8250	0	26.786	0	260.832	0	-1e10	8	-1e10	8	-1E+10	1	-1E+10	1	-1E+10	1	-1E+10	1	-1E+10	1	-1E+10	1
4902554	83	C	05/26/2023	03:57	-132.794	47.700	0	264.10	0	4.6340	0	33.8280	0	26.789	0	261.724	0	-1e10	8	-1e10	8	-1E+10	1	-1E+10	1	-1E+10	1	-1E+10	1	-1E+10	1	-1E+10	1
4902554	83	C	05/26/2023	03:57	-132.794	47.700	0	265.00	0	4.6310	0	33.8280	0	26.790	0	262.615	0	-1e10	8	-1e10	8	-1E+10	1	-1E+10	1	-1E+10	1	-1E+10	1	-1E+10	1	-1E+10	1
4902554	83	C	05/26/2023	03:57	-132.794	47.700	0	265.90	0	4.6170	0	33.8330	0	26.795	0	263.506	0	-1e10	8	-1e10	8	-1E+10	1	-1E+10	1	-1E+10	1	-1E+10	1	-1E+10	1	-1E+10	1
4902554	83	C	05/26/2023	03:57	-132.794	47.700	0	266.90	0	4.6120	0	33.8340	0	26.796	0	264.497	0	-1e10	8	-1e10	8	-1E+10	1	-1E+10	1	-1E+10	1	-1E+10	1	-1E+10	1	-1E+10	1
4902554	83	C	05/26/2023	03:57	-132.794	47.700	0	267.80	0	4.6110	0	33.8320	0	26.795	0	265.388	0	-1e10	8	-1e10	8	-1E+10	1	-1E+10	1	-1E+10	1	-1E+10	1	-1E+10	1	-1E+10	1
4902554	83	C	05/26/2023	03:57	-132.794	47.700	0	268.70	0	4.6090	0	33.8330	0	26.796	0	266.279	0	-1e10	8	-1e10	8	-1E+10	1	-1E+10	1	-1E+10	1	-1E+10	1	-1E+10	1	-1E+10	1
4902554	83	C	05/26/2023	03:57	-132.794	47.700	0	269.60	0	4.6090	0	33.8330	0	26.796	0	267.171	0	-1e10	8	-1e10	8	-1E+10	1	-1E+10	1	-1E+10	1	-1E+10	1	-1E+10	1	-1E+10	1
4902554	83	C	05/26/2023	03:57	-132.794	47.700	0	270.60	0	4.6080	0	33.8330	0	26.796	0	268.161	0	-1e10	8	-1e10	8	-1E+10	1	-1E+10	1	-1E+10	1	-1E+10	1	-1E+10	1	-1E+10	1
4902554	83	C	05/26/2023	03:57	-132.794	47.700	0	271.90	0	4.6060	0	33.8390	0	26.801	0	269.448	0	-1e10	8	-1e10	8	-1E+10	1	-1E+10	1	-1E+10	1	-1E+10	1	-1E+10	1	-1E+10	1
4902554	83	C	05/26/2023	03:57	-132.794	47.700	0	273.30	0	4.6010	0	33.8440	0	26.806	0	270.835	0	-1e10	8	-1e10	8	-1E+10	1	-1E+10	1	-1E+10	1	-1E+10	1	-1E+10	1	-1E+10	1
4902554	83	C	05/26/2023	03:57	-132.794	47.700	0	274.30	0	4.5870	0	33.8420	0	26.805	0	271.825	0	-1e10	8	-1e10	8	-1E+10	1	-1E+10	1	-1E+10	1	-1E+10	1	-1E+10	1	-1E+10	1
4902554	83	C	05/26/2023	03:57	-132.794	47.700	0	275.20	0	4.5840	0	33.8430	0	26.807	0	272.717	0	-1e10	8	-1e10	8	-1E+10	1	-1E+10	1	-1E+10	1	-1E+10	1	-1E+10	1	-1E+10	1
4902554	83	C	05/26/2023	03:57	-132.794	47.700	0	276.10	0	4.5820	0	33.8450	0	26.808	0	273.608	0	-1e10	8	-1e10	8	-1E+10	1	-1E+10	1	-1E+10	1	-1E+10	1	-1E+10	1	-1E+10	1
4902554	83	C	05/26/2023	03:57	-132.794	47.700	0	277.00	0	4.5810	0	33.8490	0	26.812	0	274.499	0	-1e10	8	-1e10	8	-1E+10	1	-1E+10	1	-1E+10	1	-1E+10	1	-1E+10	1	-1E+10	1
4902554	83	C	05/26/2023	03:57	-132.794	47.700	0	277.90	0	4.5870	0	33.8510	0	26.813	0	275.390	0	-1e10	8	-1e10	8	-1E+10	1	-1E+10	1	-1E+10	1	-1E+10	1	-1E+10	1	-1E+10	1
4902554	83	C	05/26/2023	03:57	-132.794	47.700	0	278.80	0	4.5780	0	33.8530	0	26.815	0	276.282	0	-1e10	8	-1e10	8	-1E+10	1	-1E+10	1	-1E+10	1	-1E+10	1	-1E+10	1	-1E+10	1
4902554	83	C	05/26/2023	03:57	-132.794	47.700	0	279.80	0	4.5780	0	33.8510	0	26.814	0	277.272	0	-1e10	8	-1e10	8	-1E+10	1	-1E+10	1	-1E+10	1	-1E+10	1	-1E+10	1	-1E+10	1
4902554	83	C	05/26/2023	03:57	-132.794	47.700	0	280.70	0	4.5780	0	33.8520	0	26.814	0	278.163	0	-1e10	8	-1e10	8	-1E+10	1	-1E+10	1	-1E+10	1	-1E+10	1	-1E+10	1	-1E+10	1
4902554	83	C	05/26/2023	03:57	-132.794	47.700	0	281.60	0	4.5770	0	33.8520	0	26.815	0	279.054	0	-1e10	8	-1e10	8	-1E+10	1	-1E+10	1	-1E+10	1	-1E+10	1	-1E+10	1	-1E+10	1
4902554	83	C	05/26/2023	03:57	-132.794	47.700	0	282.90	0	4.5770	0	33.8530	0	26.815	0	280.342	0	-1e10	8	-1e10	8	-1E+10	1	-1E+10	1	-1E+10	1	-1E+10	1	-1E+10	1	-1E+10	1
4902554	83	C	05/26/2023	03:57	-132.794	47.700	0	284.30	0	4.5790	0	33.8550	0	26.817	0	281.728	0	-1e10	8	-1e10	8	-1E+10	1	-1E+10	1	-1E+10	1	-1E+10	1	-1E+10	1	-1E+10	1
4902554	83	C	05/26/2023	03:57	-132.794	47.700	0	285.20	0	4.5860	0	33.8570	0	26.818	0	282.619	0	-1e10	8	-1e10	8	-1E+10	1	-1E+10	1	-1E+10	1	-1E+10	1	-1E+10	1	-1E+10	1
4902554	83	C	05/26/2023	03:57	-132.794	47.700	0	286.10	0	4.5920	0	33.8570	0	26.817	0	283.511	0	-1e10	8	-1e10	8	-1E+10	1	-1E+10	1	-1E+10	1	-1E+10	1	-1E+10	1	-1E+10	1
4902554	83	C	05/26/2023	03:57	-132.794	47.700	0	287.10	0	4.5980	0	33.8610	0	26.819	0	284.501	0	-1e10	8	-1e10	8	-1E+10	1	-1E+10	1	-1E+10	1	-1E+10	1	-1E+10	1	-1E+10	1
4902554	83	C	05/26/2023	03:57	-132.794	47.700	0	288.00	0	4.6000	0	33.8640	0	26.822	0	285.392	0	-1e10	8	-1e10	8	-1E+10	1	-1E+10	1	-1E+10	1	-1E+10	1	-1E+10	1	-1E+10	1
4902554	83	C	05/26/2023	03:57	-132.794	47.700	0	289.00	0	4.6000	0	33.8710	0	26.827	0	286.382	0	-1e10	8	-1e10	8	-1E+10	1	-1E+10	1	-1E+10	1	-1E+10	1	-1E+10	1	-1E+10	1
4902554	83	C	05/26/2023	03:57	-132.794	47.700	0	289.90	0	4.6020	0	33.8760	0	26.831	0	287.274	0	-1e10	8	-1e10	8	-1E+10	1	-1E+10	1	-1E+10	1	-1E+10	1	-1E+10	1	-1E+10	1
4902554	83	C	05/26/2023	03:57	-132.794	47.700	0	290.80	0	4.6020	0	33.8760	0	26.831	0	288.165	0	-1e10	8	-1e10	8	-1E+10	1	-1E+10	1	-1E+10	1	-1E+10	1	-1E+10	1	-1E+10	1
4902554	83	C	05/26/2023	03:57	-132.794	47.700	0	291.80	0	4.5990	0	33.8790	0	26.834	0	289.155	0	-1e10	8	-1e10	8	-1E+10	1	-1E+10	1	-1E+10	1	-1E+10	1	-1E+10	1	-1E+10	1
4902554	83	C	05/26/2023	03:57	-132.794	47.700	0	292.70	0	4.5960	0	33.8800	0	26.835	0	290.046	0	-1e10	8	-1e10	8	-1E+10	1	-1E+10	1	-1E+10	1	-1E+10	1	-1E+10	1	-1E+10	1
4902554	83	C	05/26/2023	03:57	-132.794	47.700	0	293.70	0	4.5970	0	33.8830	0	26.837	0	291.037	0	-1e10	8	-1e10	8	-1E+10	1	-1E+10	1	-1E+10	1	-1E+10	1	-1E+10	1	-1E+10	1
4902554	83	C	05/26/2023	03:57	-132.794	47.700	0	294.60	0	4.6020	0	33.8850	0	26.838	0	291.928	0	-1e10	8	-1e10	8	-1E+10	1	-1E+10	1	-1E+10	1	-1E+10	1	-1E+10	1	-1E+10	1
4902554	83	C	05/26/2023	03:57	-132.794	47.700	0	295.60	0	4.6030	0	33.8850	0	26.838	0	292.918	0	-1e10	8	-1e10	8	-1E+10	1	-1E+10	1	-1E+10	1	-1E+10	1	-1E+10	1	-1E+10	1
4902554	83	C	05/26/2023	03:57	-132.794	47.700	0	296.50	0	4.6000	0	33.8860	0	26.839	0	293.809	0	-1e10	8	-1e10	8	-1E+10	1	-1E+10	1	-1E+10	1	-1E+10	1	-1E+10	1	-1E+10	1
4902554	83	C	05/26/2023	03:57	-132.794	47.700	0	297.90	0	4.5980	0	33.8860	0	26.839	0	295.195	0	-1e10	8	-1e10	8	-1E+10	1	-1E+10	1	-1E+10	1	-1E+10	1	-1E+10	1	-1E+10	1
4902554	83	C	05/26/2023	03:57	-132.794	47.700	0	299.40	0	4.5890	0	33.8870	0	26.841	0	296.681	0	-1e10	8	-1e10	8	-1E+10	1	-1E+10	1	-1E+10	1	-1E+10	1	-1E+10	1	-1E+10	1
4902554	83	C	05/26/2023	03:57	-132.794	47.700	0	300.30	0	4.5810	0	33.8890	0	26.844	0	297.572	0	-1e10	8	-1e10	8	-1E+10	1	-1E+10	1	-1E+10	1	-1E+10	1	-1E+10	1	-1E+10	1
4902554	83	C	05/26/2023	03:57	-132.794	47.700	0	301.30	0	4.5800	0	33.8880	0	26.843	0	298.562	0	-1e10	8	-1e10	8	-1E+10	1	-1E+10	1	-1E+10	1	-1E+10	1	-1E+10	1	-1E+10	1
4902554	83	C	05/26/2023	03:57	-132.794	47.700	0	302.20	0	4.5780	0	33.8910	0	26.846	0	299.453	0	-1e10	8	-1e10	8	-1E+10	1	-1E+10	1	-1E+10	1	-1E+10	1	-1E+10	1	-1E+10	1
4902554	83	C	05/26/2023	03:57	-132.794	47.700	0	303.20	0	4.5740	0	33.8940	0	26.848	0	300.444	0	-1e10	8	-1e10	8	-1E+10	1	-1E+10	1	-1E+10	1	-1E+10	1	-1E+10	1	-1E+10	1
4902554	83	C	05/26/2023	03:57	-132.794	47.700	0	304.10	0	4.5730	0	33.8940	0	26.849	0	301.335	0	-1e10	8	-1e10	8	-1E+10	1	-1E+10	1	-1E+10	1	-1E+10	1	-1E+10	1	-1E+10	1
4902554	83	C	05/26/2023	03:57	-132.794	47.700	0	305.10	0	4.5720	0	33.8940	0	26.849	0	302.325	0	-1e10	8	-1e10	8	-1E+10	1	-1E+10	1	-1E+10	1	-1E+10	1	-1E+10	1	-1E+10	1
4902554	83	C	05/26/2023	03:57	-132.794	47.700	0	306.10	0	4.5690	0	33.8950	0	26.850	0	303.315	0	-1e10	8	-1e10	8	-1E+10	1	-1E+10	1	-1E+10	1	-1E+10	1	-1E+10	1	-1E+10	1
4902554	83	C	05/26/2023	03:57	-132.794	47.700	0	307.00	0	4.5680	0	33.8950	0	26.850	0	304.206	0	-1e10	8	-1e10	8	-1E+10	1	-1E+10	1	-1E+10	1	-1E+10	1	-1E+10	1	-1E+10	1
4902554	83	C	05/26/2023	03:57	-132.794	47.700	0	308.00	0	4.5650	0	33.8960	0	26.851	0	305.196	0	-1e10	8	-1e10	8	-1E+10	1	-1E+10	1	-1E+10	1	-1E+10	1	-1E+10	1	-1E+10	1
4902554	83	C	05/26/2023	03:57	-132.794	47.700	0	309.00	0	4.5620	0	33.9000	0	26.855	0	306.186	0	-1e10	8	-1e10	8	-1E+10	1	-1E+10	1	-1E+10	1	-1E+10	1	-1E+10	1	-1E+10	1
4902554	83	C	05/26/2023	03:57	-132.794	47.700	0	310.00	0	4.5600	0	33.9030	0	26.857	0	307.177	0	-1e10	8	-1e10	8	-1E+10	1	-1E+10	1	-1E+10	1	-1E+10	1	-1E+10	1	-1E+10	1
4902554	83	C	05/26/2023	03:57	-132.794	47.700	0	311.00	0	4.5580	0	33.9040	0	26.858	0	308.167	0	-1e10	8	-1e10	8	-1E+10	1	-1E+10	1	-1E+10	1	-1E+10	1	-1E+10	1	-1E+10	1
4902554	83	C	05/26/2023	03:57	-132.794	47.700	0	312.00	0	4.5550	0	33.9060	0	26.860	0	309.157	0	-1e10	8	-1e10	8	-1E+10	1	-1E+10	1	-1E+10	1	-1E+10	1	-1E+10	1	-1E+10	1
4902554	83	C	05/26/2023	03:57	-132.794	47.700	0	312.90	0	4.5520	0	33.9070	0	26.861	0	310.048	0	-1e10	8	-1e10	8	-1E+10	1	-1E+10	1	-1E+10	1	-1E+10	1	-1E+10	1	-1E+10	1
4902554	83	C	05/26/2023	03:57	-132.794	47.700	0	314.00	0	4.5510	0	33.9080	0	26.862	0	311.137	0	-1e10	8	-1e10	8	-1E+10	1	-1E+10	1	-1E+10	1	-1E+10	1	-1E+10	1	-1E+10	1
4902554	83	C	05/26/2023	03:57	-132.794	47.700	0	315.00	0	4.5500	0	33.9090	0	26.863	0	312.127	0	-1e10	8	-1e10	8	-1E+10	1	-1E+10	1	-1E+10	1	-1E+10	1	-1E+10	1	-1E+10	1
4902554	83	C	05/26/2023	03:57	-132.794	47.700	0	316.00	0	4.5450	0	33.9130	0	26.867	0	313.117	0	-1e10	8	-1e10	8	-1E+10	1	-1E+10	1	-1E+10	1	-1E+10	1	-1E+10	1	-1E+10	1
4902554	83	C	05/26/2023	03:57	-132.794	47.700	0	317.00	0	4.5440	0	33.9140	0	26.868	0	314.108	0	-1e10	8	-1e10	8	-1E+10	1	-1E+10	1	-1E+10	1	-1E+10	1	-1E+10	1	-1E+10	1
4902554	83	C	05/26/2023	03:57	-132.794	47.700	0	318.00	0	4.5430	0	33.9150	0	26.869	0	315.098	0	-1e10	8	-1e10	8	-1E+10	1	-1E+10	1	-1E+10	1	-1E+10	1	-1E+10	1	-1E+10	1
4902554	83	C	05/26/2023	03:57	-132.794	47.700	0	319.00	0	4.5420	0	33.9150	0	26.869	0	316.088	0	-1e10	8	-1e10	8	-1E+10	1	-1E+10	1	-1E+10	1	-1E+10	1	-1E+10	1	-1E+10	1
4902554	83	C	05/26/2023	03:57	-132.794	47.700	0	320.00	0	4.5410	0	33.9160	0	26.870	0	317.078	0	-1e10	8	-1e10	8	-1E+10	1	-1E+10	1	-1E+10	1	-1E+10	1	-1E+10	1	-1E+10	1
4902554	83	C	05/26/2023	03:57	-132.794	47.700	0	321.00	0	4.5390	0	33.9170	0	26.871	0	318.068	0	-1e10	8	-1e10	8	-1E+10	1	-1E+10	1	-1E+10	1	-1E+10	1	-1E+10	1	-1E+10	1
4902554	83	C	05/26/2023	03:57	-132.794	47.700	0	322.10	0	4.5380	0	33.9190	0	26.872	0	319.157	0	-1e10	8	-1e10	8	-1E+10	1	-1E+10	1	-1E+10	1	-1E+10	1	-1E+10	1	-1E+10	1
4902554	83	C	05/26/2023	03:57	-132.794	47.700	0	323.00	0	4.5360	0	33.9200	0	26.873	0	320.048	0	-1e10	8	-1e10	8	-1E+10	1	-1E+10	1	-1E+10	1	-1E+10	1	-1E+10	1	-1E+10	1
4902554	83	C	05/26/2023	03:57	-132.794	47.700	0	324.00	0	4.5320	0	33.9230	0	26.876	0	321.038	0	-1e10	8	-1e10	8	-1E+10	1	-1E+10	1	-1E+10	1	-1E+10	1	-1E+10	1	-1E+10	1
4902554	83	C	05/26/2023	03:57	-132.794	47.700	0	324.90	0	4.5290	0	33.9240	0	26.877	0	321.929	0	-1e10	8	-1e10	8	-1E+10	1	-1E+10	1	-1E+10	1	-1E+10	1	-1E+10	1	-1E+10	1
4902554	83	C	05/26/2023	03:57	-132.794	47.700	0	325.70	0	4.5280	0	33.9250	0	26.878	0	322.721	0	-1e10	8	-1e10	8	-1E+10	1	-1E+10	1	-1E+10	1	-1E+10	1	-1E+10	1	-1E+10	1
4902554	83	C	05/26/2023	03:57	-132.794	47.700	0	326.90	0	4.5270	0	33.9260	0	26.879	0	323.910	0	-1e10	8	-1e10	8	-1E+10	1	-1E+10	1	-1E+10	1	-1E+10	1	-1E+10	1	-1E+10	1
4902554	83	C	05/26/2023	03:57	-132.794	47.700	0	328.00	0	4.5250	0	33.9270	0	26.880	0	324.999	0	-1e10	8	-1e10	8	-1E+10	1	-1E+10	1	-1E+10	1	-1E+10	1	-1E+10	1	-1E+10	1
4902554	83	C	05/26/2023	03:57	-132.794	47.700	0	328.80	0	4.5250	0	33.9270	0	26.880	0	325.791	0	-1e10	8	-1e10	8	-1E+10	1	-1E+10	1	-1E+10	1	-1E+10	1	-1E+10	1	-1E+10	1
4902554	83	C	05/26/2023	03:57	-132.794	47.700	0	330.00	0	4.5210	0	33.9270	0	26.881	0	326.979	0	-1e10	8	-1e10	8	-1E+10	1	-1E+10	1	-1E+10	1	-1E+10	1	-1E+10	1	-1E+10	1
4902554	83	C	05/26/2023	03:57	-132.794	47.700	0	331.20	0	4.5210	0	33.9280	0	26.881	0	328.167	0	-1e10	8	-1e10	8	-1E+10	1	-1E+10	1	-1E+10	1	-1E+10	1	-1E+10	1	-1E+10	1
4902554	83	C	05/26/2023	03:57	-132.794	47.700	0	332.00	0	4.5200	0	33.9280	0	26.881	0	328.959	0	-1e10	8	-1e10	8	-1E+10	1	-1E+10	1	-1E+10	1	-1E+10	1	-1E+10	1	-1E+10	1
4902554	83	C	05/26/2023	03:57	-132.794	47.700	0	332.80	0	4.5090	0	33.9330	0	26.887	0	329.751	0	-1e10	8	-1e10	8	-1E+10	1	-1E+10	1	-1E+10	1	-1E+10	1	-1E+10	1	-1E+10	1
4902554	83	C	05/26/2023	03:57	-132.794	47.700	0	334.00	0	4.5080	0	33.9330	0	26.887	0	330.939	0	-1e10	8	-1e10	8	-1E+10	1	-1E+10	1	-1E+10	1	-1E+10	1	-1E+10	1	-1E+10	1
4902554	83	C	05/26/2023	03:57	-132.794	47.700	0	335.20	0	4.5040	0	33.9350	0	26.889	0	332.127	0	-1e10	8	-1e10	8	-1E+10	1	-1E+10	1	-1E+10	1	-1E+10	1	-1E+10	1	-1E+10	1
4902554	83	C	05/26/2023	03:57	-132.794	47.700	0	336.10	0	4.5020	0	33.9360	0	26.890	0	333.018	0	-1e10	8	-1e10	8	-1E+10	1	-1E+10	1	-1E+10	1	-1E+10	1	-1E+10	1	-1E+10	1
4902554	83	C	05/26/2023	03:57	-132.794	47.700	0	336.90	0	4.5000	0	33.9370	0	26.891	0	333.810	0	-1e10	8	-1e10	8	-1E+10	1	-1E+10	1	-1E+10	1	-1E+10	1	-1E+10	1	-1E+10	1
4902554	83	C	05/26/2023	03:57	-132.794	47.700	0	337.80	0	4.5010	0	33.9370	0	26.891	0	334.701	0	-1e10	8	-1e10	8	-1E+10	1	-1E+10	1	-1E+10	1	-1E+10	1	-1E+10	1	-1E+10	1
4902554	83	C	05/26/2023	03:57	-132.794	47.700	0	339.00	0	4.5000	0	33.9370	0	26.891	0	335.889	0	-1e10	8	-1e10	8	-1E+10	1	-1E+10	1	-1E+10	1	-1E+10	1	-1E+10	1	-1E+10	1
4902554	83	C	05/26/2023	03:57	-132.794	47.700	0	340.30	0	4.4980	0	33.9380	0	26.892	0	337.176	0	-1e10	8	-1e10	8	-1E+10	1	-1E+10	1	-1E+10	1	-1E+10	1	-1E+10	1	-1E+10	1
4902554	83	C	05/26/2023	03:57	-132.794	47.700	0	341.20	0	4.4970	0	33.9390	0	26.893	0	338.067	0	-1e10	8	-1e10	8	-1E+10	1	-1E+10	1	-1E+10	1	-1E+10	1	-1E+10	1	-1E+10	1
4902554	83	C	05/26/2023	03:57	-132.794	47.700	0	342.00	0	4.4970	0	33.9390	0	26.893	0	338.859	0	-1e10	8	-1e10	8	-1E+10	1	-1E+10	1	-1E+10	1	-1E+10	1	-1E+10	1	-1E+10	1
4902554	83	C	05/26/2023	03:57	-132.794	47.700	0	342.90	0	4.4940	0	33.9400	0	26.894	0	339.750	0	-1e10	8	-1e10	8	-1E+10	1	-1E+10	1	-1E+10	1	-1E+10	1	-1E+10	1	-1E+10	1
4902554	83	C	05/26/2023	03:57	-132.794	47.700	0	343.80	0	4.4900	0	33.9440	0	26.897	0	340.641	0	-1e10	8	-1e10	8	-1E+10	1	-1E+10	1	-1E+10	1	-1E+10	1	-1E+10	1	-1E+10	1
4902554	83	C	05/26/2023	03:57	-132.794	47.700	0	344.70	0	4.4880	0	33.9450	0	26.899	0	341.532	0	-1e10	8	-1e10	8	-1E+10	1	-1E+10	1	-1E+10	1	-1E+10	1	-1E+10	1	-1E+10	1
4902554	83	C	05/26/2023	03:57	-132.794	47.700	0	346.00	0	4.4870	0	33.9460	0	26.899	0	342.819	0	-1e10	8	-1e10	8	-1E+10	1	-1E+10	1	-1E+10	1	-1E+10	1	-1E+10	1	-1E+10	1
4902554	83	C	05/26/2023	03:57	-132.794	47.700	0	347.40	0	4.4870	0	33.9460	0	26.899	0	344.205	0	-1e10	8	-1e10	8	-1E+10	1	-1E+10	1	-1E+10	1	-1E+10	1	-1E+10	1	-1E+10	1
4902554	83	C	05/26/2023	03:57	-132.794	47.700	0	348.20	0	4.4870	0	33.9460	0	26.899	0	344.997	0	-1e10	8	-1e10	8	-1E+10	1	-1E+10	1	-1E+10	1	-1E+10	1	-1E+10	1	-1E+10	1
4902554	83	C	05/26/2023	03:57	-132.794	47.700	0	349.20	0	4.4840	0	33.9490	0	26.902	0	345.987	0	-1e10	8	-1e10	8	-1E+10	1	-1E+10	1	-1E+10	1	-1E+10	1	-1E+10	1	-1E+10	1
4902554	83	C	05/26/2023	03:57	-132.794	47.700	0	350.10	0	4.4820	0	33.9500	0	26.903	0	346.878	0	-1e10	8	-1e10	8	-1E+10	1	-1E+10	1	-1E+10	1	-1E+10	1	-1E+10	1	-1E+10	1
4902554	83	C	05/26/2023	03:57	-132.794	47.700	0	352.90	0	4.4800	0	33.9510	0	26.904	0	349.650	0	-1e10	8	-1e10	8	-1E+10	1	-1E+10	1	-1E+10	1	-1E+10	1	-1E+10	1	-1E+10	1
4902554	83	C	05/26/2023	03:57	-132.794	47.700	0	357.60	0	4.4710	0	33.9560	0	26.909	0	354.302	0	-1e10	8	-1e10	8	-1E+10	1	-1E+10	1	-1E+10	1	-1E+10	1	-1E+10	1	-1E+10	1
4902554	83	C	05/26/2023	03:57	-132.794	47.700	0	362.90	0	4.4560	0	33.9630	0	26.916	0	359.549	0	-1e10	8	-1e10	8	-1E+10	1	-1E+10	1	-1E+10	1	-1E+10	1	-1E+10	1	-1E+10	1
4902554	83	C	05/26/2023	03:57	-132.794	47.700	0	368.30	0	4.4410	0	33.9680	0	26.922	0	364.894	0	-1e10	8	-1e10	8	-1E+10	1	-1E+10	1	-1E+10	1	-1E+10	1	-1E+10	1	-1E+10	1
4902554	83	C	05/26/2023	03:57	-132.794	47.700	0	373.40	0	4.4290	0	33.9700	0	26.925	0	369.943	0	-1e10	8	-1e10	8	-1E+10	1	-1E+10	1	-1E+10	1	-1E+10	1	-1E+10	1	-1E+10	1
4902554	83	C	05/26/2023	03:57	-132.794	47.700	0	377.90	0	4.4190	0	33.9720	0	26.928	0	374.397	0	-1e10	8	-1e10	8	-1E+10	1	-1E+10	1	-1E+10	1	-1E+10	1	-1E+10	1	-1E+10	1
4902554	83	C	05/26/2023	03:57	-132.794	47.700	0	382.50	0	4.4060	0	33.9750	0	26.931	0	378.950	0	-1e10	8	-1e10	8	-1E+10	1	-1E+10	1	-1E+10	1	-1E+10	1	-1E+10	1	-1E+10	1
4902554	83	C	05/26/2023	03:57	-132.794	47.700	0	387.50	0	4.3960	0	33.9770	0	26.934	0	383.899	0	-1e10	8	-1e10	8	-1E+10	1	-1E+10	1	-1E+10	1	-1E+10	1	-1E+10	1	-1E+10	1
4902554	83	C	05/26/2023	03:57	-132.794	47.700	0	392.50	0	4.3750	0	33.9820	0	26.940	0	388.848	0	-1e10	8	-1e10	8	-1E+10	1	-1E+10	1	-1E+10	1	-1E+10	1	-1E+10	1	-1E+10	1
4902554	83	C	05/26/2023	03:57	-132.794	47.700	0	397.60	0	4.3590	0	33.9860	0	26.945	0	393.896	0	-1e10	8	-1e10	8	-1E+10	1	-1E+10	1	-1E+10	1	-1E+10	1	-1E+10	1	-1E+10	1
4902554	83	C	05/26/2023	03:57	-132.794	47.700	0	402.60	0	4.3500	0	33.9880	0	26.948	0	398.844	0	-1e10	8	-1e10	8	-1E+10	1	-1E+10	1	-1E+10	1	-1E+10	1	-1E+10	1	-1E+10	1
4902554	83	C	05/26/2023	03:57	-132.794	47.700	0	407.50	0	4.3290	0	33.9920	0	26.953	0	403.694	0	-1e10	8	-1e10	8	-1E+10	1	-1E+10	1	-1E+10	1	-1E+10	1	-1E+10	1	-1E+10	1
4902554	83	C	05/26/2023	03:57	-132.794	47.700	0	412.90	0	4.3200	0	33.9990	0	26.960	0	409.038	0	-1e10	8	-1e10	8	-1E+10	1	-1E+10	1	-1E+10	1	-1E+10	1	-1E+10	1	-1E+10	1
4902554	83	C	05/26/2023	03:57	-132.794	47.700	0	418.40	0	4.3080	0	34.0060	0	26.967	0	414.481	0	-1e10	8	-1e10	8	-1E+10	1	-1E+10	1	-1E+10	1	-1E+10	1	-1E+10	1	-1E+10	1
4902554	83	C	05/26/2023	03:57	-132.794	47.700	0	423.30	0	4.3010	0	34.0090	0	26.970	0	419.330	0	-1e10	8	-1e10	8	-1E+10	1	-1E+10	1	-1E+10	1	-1E+10	1	-1E+10	1	-1E+10	1
4902554	83	C	05/26/2023	03:57	-132.794	47.700	0	428.20	0	4.2950	0	34.0120	0	26.973	0	424.179	0	-1e10	8	-1e10	8	-1E+10	1	-1E+10	1	-1E+10	1	-1E+10	1	-1E+10	1	-1E+10	1
4902554	83	C	05/26/2023	03:57	-132.794	47.700	0	433.10	0	4.2890	0	34.0160	0	26.977	0	429.028	0	-1e10	8	-1e10	8	-1E+10	1	-1E+10	1	-1E+10	1	-1E+10	1	-1E+10	1	-1E+10	1
4902554	83	C	05/26/2023	03:57	-132.794	47.700	0	437.90	0	4.2810	0	34.0210	0	26.982	0	433.778	0	-1e10	8	-1e10	8	-1E+10	1	-1E+10	1	-1E+10	1	-1E+10	1	-1E+10	1	-1E+10	1
4902554	83	C	05/26/2023	03:57	-132.794	47.700	0	442.80	0	4.2630	0	34.0250	0	26.987	0	438.627	0	-1e10	8	-1e10	8	-1E+10	1	-1E+10	1	-1E+10	1	-1E+10	1	-1E+10	1	-1E+10	1
4902554	83	C	05/26/2023	03:57	-132.794	47.700	0	447.60	0	4.2430	0	34.0270	0	26.990	0	443.376	0	-1e10	8	-1e10	8	-1E+10	1	-1E+10	1	-1E+10	1	-1E+10	1	-1E+10	1	-1E+10	1
4902554	83	C	05/26/2023	03:57	-132.794	47.700	0	452.80	0	4.2180	0	34.0290	0	26.995	0	448.522	0	-1e10	8	-1e10	8	-1E+10	1	-1E+10	1	-1E+10	1	-1E+10	1	-1E+10	1	-1E+10	1
4902554	83	C	05/26/2023	03:57	-132.794	47.700	0	458.10	0	4.2000	0	34.0320	0	26.999	0	453.766	0	-1e10	8	-1e10	8	-1E+10	1	-1E+10	1	-1E+10	1	-1E+10	1	-1E+10	1	-1E+10	1
4902554	83	C	05/26/2023	03:57	-132.794	47.700	0	462.80	0	4.1950	0	34.0380	0	27.004	0	458.416	0	-1e10	8	-1e10	8	-1E+10	1	-1E+10	1	-1E+10	1	-1E+10	1	-1E+10	1	-1E+10	1
4902554	83	C	05/26/2023	03:57	-132.794	47.700	0	468.00	0	4.1920	0	34.0420	0	27.008	0	463.561	0	-1e10	8	-1e10	8	-1E+10	1	-1E+10	1	-1E+10	1	-1E+10	1	-1E+10	1	-1E+10	1
4902554	83	C	05/26/2023	03:57	-132.794	47.700	0	473.20	0	4.1850	0	34.0450	0	27.011	0	468.706	0	-1e10	8	-1e10	8	-1E+10	1	-1E+10	1	-1E+10	1	-1E+10	1	-1E+10	1	-1E+10	1
4902554	83	C	05/26/2023	03:57	-132.794	47.700	0	478.00	0	4.1880	0	34.0500	0	27.015	0	473.455	0	-1e10	8	-1e10	8	-1E+10	1	-1E+10	1	-1E+10	1	-1E+10	1	-1E+10	1	-1E+10	1
4902554	83	C	05/26/2023	03:57	-132.794	47.700	0	482.80	0	4.1850	0	34.0560	0	27.020	0	478.204	0	-1e10	8	-1e10	8	-1E+10	1	-1E+10	1	-1E+10	1	-1E+10	1	-1E+10	1	-1E+10	1
4902554	83	C	05/26/2023	03:57	-132.794	47.700	0	487.60	0	4.1800	0	34.0600	0	27.024	0	482.952	0	-1e10	8	-1e10	8	-1E+10	1	-1E+10	1	-1E+10	1	-1E+10	1	-1E+10	1	-1E+10	1
4902554	83	C	05/26/2023	03:57	-132.794	47.700	0	492.90	0	4.1720	0	34.0630	0	27.027	0	488.196	0	-1e10	8	-1e10	8	-1E+10	1	-1E+10	1	-1E+10	1	-1E+10	1	-1E+10	1	-1E+10	1
4902554	83	C	05/26/2023	03:57	-132.794	47.700	0	498.10	0	4.1660	0	34.0660	0	27.030	0	493.340	0	-1e10	8	-1e10	8	-1E+10	1	-1E+10	1	-1E+10	1	-1E+10	1	-1E+10	1	-1E+10	1
4902554	83	C	05/26/2023	03:57	-132.794	47.700	0	502.90	0	4.1430	0	34.0700	0	27.035	0	498.088	0	-1e10	8	-1e10	8	-1E+10	1	-1E+10	1	-1E+10	1	-1E+10	1	-1E+10	1	-1E+10	1
4902554	83	C	05/26/2023	03:57	-132.794	47.700	0	507.80	0	4.1330	0	34.0750	0	27.041	0	502.935	0	-1e10	8	-1e10	8	-1E+10	1	-1E+10	1	-1E+10	1	-1E+10	1	-1E+10	1	-1E+10	1
4902554	83	C	05/26/2023	03:57	-132.794	47.700	0	512.70	0	4.1090	0	34.0780	0	27.045	0	507.783	0	-1e10	8	-1e10	8	-1E+10	1	-1E+10	1	-1E+10	1	-1E+10	1	-1E+10	1	-1E+10	1
4902554	83	C	05/26/2023	03:57	-132.794	47.700	0	517.60	0	4.0840	0	34.0810	0	27.050	0	512.629	0	-1e10	8	-1e10	8	-1E+10	1	-1E+10	1	-1E+10	1	-1E+10	1	-1E+10	1	-1E+10	1
4902554	83	C	05/26/2023	03:57	-132.794	47.700	0	522.90	0	4.0690	0	34.0850	0	27.055	0	517.872	0	-1e10	8	-1e10	8	-1E+10	1	-1E+10	1	-1E+10	1	-1E+10	1	-1E+10	1	-1E+10	1
4902554	83	C	05/26/2023	03:57	-132.794	47.700	0	528.30	0	4.0530	0	34.0900	0	27.061	0	523.213	0	-1e10	8	-1e10	8	-1E+10	1	-1E+10	1	-1E+10	1	-1E+10	1	-1E+10	1	-1E+10	1
4902554	83	C	05/26/2023	03:57	-132.794	47.700	0	533.30	0	4.0490	0	34.0920	0	27.063	0	528.159	0	-1e10	8	-1e10	8	-1E+10	1	-1E+10	1	-1E+10	1	-1E+10	1	-1E+10	1	-1E+10	1
4902554	83	C	05/26/2023	03:57	-132.794	47.700	0	538.30	0	4.0420	0	34.0950	0	27.066	0	533.104	0	-1e10	8	-1e10	8	-1E+10	1	-1E+10	1	-1E+10	1	-1E+10	1	-1E+10	1	-1E+10	1
4902554	83	C	05/26/2023	03:57	-132.794	47.700	0	543.20	0	4.0240	0	34.1020	0	27.073	0	537.951	0	-1e10	8	-1e10	8	-1E+10	1	-1E+10	1	-1E+10	1	-1E+10	1	-1E+10	1	-1E+10	1
4902554	83	C	05/26/2023	03:57	-132.794	47.700	0	548.30	0	4.0140	0	34.1070	0	27.078	0	542.995	0	-1e10	8	-1e10	8	-1E+10	1	-1E+10	1	-1E+10	1	-1E+10	1	-1E+10	1	-1E+10	1
4902554	83	C	05/26/2023	03:57	-132.794	47.700	0	553.30	0	4.0040	0	34.1110	0	27.083	0	547.940	0	-1e10	8	-1e10	8	-1E+10	1	-1E+10	1	-1E+10	1	-1E+10	1	-1E+10	1	-1E+10	1
4902554	83	C	05/26/2023	03:57	-132.794	47.700	0	557.90	0	4.0000	0	34.1140	0	27.086	0	552.489	0	-1e10	8	-1e10	8	-1E+10	1	-1E+10	1	-1E+10	1	-1E+10	1	-1E+10	1	-1E+10	1
4902554	83	C	05/26/2023	03:57	-132.794	47.700	0	562.50	0	3.9840	0	34.1210	0	27.093	0	557.038	0	-1e10	8	-1e10	8	-1E+10	1	-1E+10	1	-1E+10	1	-1E+10	1	-1E+10	1	-1E+10	1
4902554	83	C	05/26/2023	03:57	-132.794	47.700	0	567.90	0	3.9720	0	34.1260	0	27.098	0	562.379	0	-1e10	8	-1e10	8	-1E+10	1	-1E+10	1	-1E+10	1	-1E+10	1	-1E+10	1	-1E+10	1
4902554	83	C	05/26/2023	03:57	-132.794	47.700	0	572.80	0	3.9640	0	34.1300	0	27.102	0	567.224	0	-1e10	8	-1e10	8	-1E+10	1	-1E+10	1	-1E+10	1	-1E+10	1	-1E+10	1	-1E+10	1
4902554	83	C	05/26/2023	03:57	-132.794	47.700	0	577.60	0	3.9510	0	34.1330	0	27.106	0	571.971	0	-1e10	8	-1e10	8	-1E+10	1	-1E+10	1	-1E+10	1	-1E+10	1	-1E+10	1	-1E+10	1
4902554	83	C	05/26/2023	03:57	-132.794	47.700	0	582.70	0	3.9350	0	34.1390	0	27.112	0	577.014	0	-1e10	8	-1e10	8	-1E+10	1	-1E+10	1	-1E+10	1	-1E+10	1	-1E+10	1	-1E+10	1
4902554	83	C	05/26/2023	03:57	-132.794	47.700	0	587.80	0	3.9190	0	34.1440	0	27.118	0	582.057	0	-1e10	8	-1e10	8	-1E+10	1	-1E+10	1	-1E+10	1	-1E+10	1	-1E+10	1	-1E+10	1
4902554	83	C	05/26/2023	03:57	-132.794	47.700	0	593.10	0	3.9000	0	34.1500	0	27.125	0	587.298	0	-1e10	8	-1e10	8	-1E+10	1	-1E+10	1	-1E+10	1	-1E+10	1	-1E+10	1	-1E+10	1
4902554	83	C	05/26/2023	03:57	-132.794	47.700	0	598.00	0	3.8890	0	34.1540	0	27.129	0	592.143	0	-1e10	8	-1e10	8	-1E+10	1	-1E+10	1	-1E+10	1	-1E+10	1	-1E+10	1	-1E+10	1
4902554	83	C	05/26/2023	03:57	-132.794	47.700	0	602.90	0	3.8760	0	34.1590	0	27.134	0	596.988	0	-1e10	8	-1e10	8	-1E+10	1	-1E+10	1	-1E+10	1	-1E+10	1	-1E+10	1	-1E+10	1
4902554	83	C	05/26/2023	03:57	-132.794	47.700	0	607.90	0	3.8650	0	34.1630	0	27.139	0	601.932	0	-1e10	8	-1e10	8	-1E+10	1	-1E+10	1	-1E+10	1	-1E+10	1	-1E+10	1	-1E+10	1
4902554	83	C	05/26/2023	03:57	-132.794	47.700	0	612.80	0	3.8520	0	34.1660	0	27.142	0	606.776	0	-1e10	8	-1e10	8	-1E+10	1	-1E+10	1	-1E+10	1	-1E+10	1	-1E+10	1	-1E+10	1
4902554	83	C	05/26/2023	03:57	-132.794	47.700	0	617.80	0	3.8340	0	34.1730	0	27.150	0	611.720	0	-1e10	8	-1e10	8	-1E+10	1	-1E+10	1	-1E+10	1	-1E+10	1	-1E+10	1	-1E+10	1
4902554	83	C	05/26/2023	03:57	-132.794	47.700	0	622.70	0	3.8170	0	34.1780	0	27.155	0	616.565	0	-1e10	8	-1e10	8	-1E+10	1	-1E+10	1	-1E+10	1	-1E+10	1	-1E+10	1	-1E+10	1
4902554	83	C	05/26/2023	03:57	-132.794	47.700	0	627.80	0	3.8050	0	34.1810	0	27.159	0	621.607	0	-1e10	8	-1e10	8	-1E+10	1	-1E+10	1	-1E+10	1	-1E+10	1	-1E+10	1	-1E+10	1
4902554	83	C	05/26/2023	03:57	-132.794	47.700	0	632.80	0	3.7940	0	34.1850	0	27.163	0	626.550	0	-1e10	8	-1e10	8	-1E+10	1	-1E+10	1	-1E+10	1	-1E+10	1	-1E+10	1	-1E+10	1
4902554	83	C	05/26/2023	03:57	-132.794	47.700	0	637.90	0	3.7800	0	34.1900	0	27.169	0	631.592	0	-1e10	8	-1e10	8	-1E+10	1	-1E+10	1	-1E+10	1	-1E+10	1	-1E+10	1	-1E+10	1
4902554	83	C	05/26/2023	03:57	-132.794	47.700	0	642.60	0	3.7770	0	34.1910	0	27.170	0	636.238	0	-1e10	8	-1e10	8	-1E+10	1	-1E+10	1	-1E+10	1	-1E+10	1	-1E+10	1	-1E+10	1
4902554	83	C	05/26/2023	03:57	-132.794	47.700	0	647.80	0	3.7730	0	34.1920	0	27.171	0	641.379	0	-1e10	8	-1e10	8	-1E+10	1	-1E+10	1	-1E+10	1	-1E+10	1	-1E+10	1	-1E+10	1
4902554	83	C	05/26/2023	03:57	-132.794	47.700	0	653.10	0	3.7590	0	34.1960	0	27.176	0	646.618	0	-1e10	8	-1e10	8	-1E+10	1	-1E+10	1	-1E+10	1	-1E+10	1	-1E+10	1	-1E+10	1
4902554	83	C	05/26/2023	03:57	-132.794	47.700	0	658.00	0	3.7440	0	34.2000	0	27.180	0	651.462	0	-1e10	8	-1e10	8	-1E+10	1	-1E+10	1	-1E+10	1	-1E+10	1	-1E+10	1	-1E+10	1
4902554	83	C	05/26/2023	03:57	-132.794	47.700	0	662.90	0	3.7320	0	34.2040	0	27.185	0	656.305	0	-1e10	8	-1e10	8	-1E+10	1	-1E+10	1	-1E+10	1	-1E+10	1	-1E+10	1	-1E+10	1
4902554	83	C	05/26/2023	03:57	-132.794	47.700	0	667.70	0	3.7270	0	34.2060	0	27.187	0	661.050	0	-1e10	8	-1e10	8	-1E+10	1	-1E+10	1	-1E+10	1	-1E+10	1	-1E+10	1	-1E+10	1
4902554	83	C	05/26/2023	03:57	-132.794	47.700	0	673.00	0	3.7210	0	34.2070	0	27.188	0	666.289	0	-1e10	8	-1e10	8	-1E+10	1	-1E+10	1	-1E+10	1	-1E+10	1	-1E+10	1	-1E+10	1
4902554	83	C	05/26/2023	03:57	-132.794	47.700	0	678.20	0	3.7010	0	34.2130	0	27.195	0	671.428	0	-1e10	8	-1e10	8	-1E+10	1	-1E+10	1	-1E+10	1	-1E+10	1	-1E+10	1	-1E+10	1
4902554	83	C	05/26/2023	03:57	-132.794	47.700	0	683.00	0	3.6830	0	34.2180	0	27.201	0	676.173	0	-1e10	8	-1e10	8	-1E+10	1	-1E+10	1	-1E+10	1	-1E+10	1	-1E+10	1	-1E+10	1
4902554	83	C	05/26/2023	03:57	-132.794	47.700	0	687.90	0	3.6700	0	34.2210	0	27.205	0	681.016	0	-1e10	8	-1e10	8	-1E+10	1	-1E+10	1	-1E+10	1	-1E+10	1	-1E+10	1	-1E+10	1
4902554	83	C	05/26/2023	03:57	-132.794	47.700	0	692.90	0	3.6610	0	34.2230	0	27.207	0	685.957	0	-1e10	8	-1e10	8	-1E+10	1	-1E+10	1	-1E+10	1	-1E+10	1	-1E+10	1	-1E+10	1
4902554	83	C	05/26/2023	03:57	-132.794	47.700	0	697.80	0	3.6440	0	34.2270	0	27.212	0	690.800	0	-1e10	8	-1e10	8	-1E+10	1	-1E+10	1	-1E+10	1	-1E+10	1	-1E+10	1	-1E+10	1
4902554	83	C	05/26/2023	03:57	-132.794	47.700	0	702.80	0	3.6290	0	34.2300	0	27.216	0	695.742	0	-1e10	8	-1e10	8	-1E+10	1	-1E+10	1	-1E+10	1	-1E+10	1	-1E+10	1	-1E+10	1
4902554	83	C	05/26/2023	03:57	-132.794	47.700	0	707.70	0	3.6170	0	34.2330	0	27.219	0	700.584	0	-1e10	8	-1e10	8	-1E+10	1	-1E+10	1	-1E+10	1	-1E+10	1	-1E+10	1	-1E+10	1
4902554	83	C	05/26/2023	03:57	-132.794	47.700	0	712.70	0	3.6030	0	34.2370	0	27.224	0	705.525	0	-1e10	8	-1e10	8	-1E+10	1	-1E+10	1	-1E+10	1	-1E+10	1	-1E+10	1	-1E+10	1
4902554	83	C	05/26/2023	03:57	-132.794	47.700	0	717.60	0	3.5890	0	34.2410	0	27.229	0	710.368	0	-1e10	8	-1e10	8	-1E+10	1	-1E+10	1	-1E+10	1	-1E+10	1	-1E+10	1	-1E+10	1
4902554	83	C	05/26/2023	03:57	-132.794	47.700	0	722.50	0	3.5710	0	34.2460	0	27.234	0	715.210	0	-1e10	8	-1e10	8	-1E+10	1	-1E+10	1	-1E+10	1	-1E+10	1	-1E+10	1	-1E+10	1
4902554	83	C	05/26/2023	03:57	-132.794	47.700	0	727.90	0	3.5580	0	34.2490	0	27.238	0	720.546	0	-1e10	8	-1e10	8	-1E+10	1	-1E+10	1	-1E+10	1	-1E+10	1	-1E+10	1	-1E+10	1
4902554	83	C	05/26/2023	03:57	-132.794	47.700	0	733.30	0	3.5480	0	34.2510	0	27.241	0	725.882	0	-1e10	8	-1e10	8	-1E+10	1	-1E+10	1	-1E+10	1	-1E+10	1	-1E+10	1	-1E+10	1
4902554	83	C	05/26/2023	03:57	-132.794	47.700	0	738.20	0	3.5330	0	34.2540	0	27.245	0	730.724	0	-1e10	8	-1e10	8	-1E+10	1	-1E+10	1	-1E+10	1	-1E+10	1	-1E+10	1	-1E+10	1
4902554	83	C	05/26/2023	03:57	-132.794	47.700	0	743.20	0	3.5240	0	34.2570	0	27.248	0	735.665	0	-1e10	8	-1e10	8	-1E+10	1	-1E+10	1	-1E+10	1	-1E+10	1	-1E+10	1	-1E+10	1
4902554	83	C	05/26/2023	03:57	-132.794	47.700	0	748.10	0	3.5180	0	34.2590	0	27.250	0	740.506	0	-1e10	8	-1e10	8	-1E+10	1	-1E+10	1	-1E+10	1	-1E+10	1	-1E+10	1	-1E+10	1
4902554	83	C	05/26/2023	03:57	-132.794	47.700	0	753.10	0	3.5120	0	34.2600	0	27.251	0	745.447	0	-1e10	8	-1e10	8	-1E+10	1	-1E+10	1	-1E+10	1	-1E+10	1	-1E+10	1	-1E+10	1
4902554	83	C	05/26/2023	03:57	-132.794	47.700	0	758.00	0	3.5030	0	34.2620	0	27.254	0	750.288	0	-1e10	8	-1e10	8	-1E+10	1	-1E+10	1	-1E+10	1	-1E+10	1	-1E+10	1	-1E+10	1
4902554	83	C	05/26/2023	03:57	-132.794	47.700	0	762.80	0	3.4880	0	34.2660	0	27.259	0	755.031	0	-1e10	8	-1e10	8	-1E+10	1	-1E+10	1	-1E+10	1	-1E+10	1	-1E+10	1	-1E+10	1
4902554	83	C	05/26/2023	03:57	-132.794	47.700	0	768.00	0	3.4760	0	34.2680	0	27.261	0	760.168	0	-1e10	8	-1e10	8	-1E+10	1	-1E+10	1	-1E+10	1	-1E+10	1	-1E+10	1	-1E+10	1
4902554	83	C	05/26/2023	03:57	-132.794	47.700	0	773.30	0	3.4590	0	34.2720	0	27.266	0	765.404	0	-1e10	8	-1e10	8	-1E+10	1	-1E+10	1	-1E+10	1	-1E+10	1	-1E+10	1	-1E+10	1
4902554	83	C	05/26/2023	03:57	-132.794	47.700	0	778.20	0	3.4440	0	34.2750	0	27.270	0	770.245	0	-1e10	8	-1e10	8	-1E+10	1	-1E+10	1	-1E+10	1	-1E+10	1	-1E+10	1	-1E+10	1
4902554	83	C	05/26/2023	03:57	-132.794	47.700	0	783.00	0	3.4280	0	34.2790	0	27.275	0	774.987	0	-1e10	8	-1e10	8	-1E+10	1	-1E+10	1	-1E+10	1	-1E+10	1	-1E+10	1	-1E+10	1
4902554	83	C	05/26/2023	03:57	-132.794	47.700	0	788.00	0	3.4170	0	34.2810	0	27.277	0	779.927	0	-1e10	8	-1e10	8	-1E+10	1	-1E+10	1	-1E+10	1	-1E+10	1	-1E+10	1	-1E+10	1
4902554	83	C	05/26/2023	03:57	-132.794	47.700	0	793.00	0	3.4040	0	34.2840	0	27.281	0	784.866	0	-1e10	8	-1e10	8	-1E+10	1	-1E+10	1	-1E+10	1	-1E+10	1	-1E+10	1	-1E+10	1
4902554	83	C	05/26/2023	03:57	-132.794	47.700	0	797.80	0	3.3940	0	34.2860	0	27.284	0	789.608	0	-1e10	8	-1e10	8	-1E+10	1	-1E+10	1	-1E+10	1	-1E+10	1	-1E+10	1	-1E+10	1
4902554	83	C	05/26/2023	03:57	-132.794	47.700	0	802.70	0	3.3800	0	34.2890	0	27.287	0	794.448	0	-1e10	8	-1e10	8	-1E+10	1	-1E+10	1	-1E+10	1	-1E+10	1	-1E+10	1	-1E+10	1
4902554	83	C	05/26/2023	03:57	-132.794	47.700	0	807.60	0	3.3710	0	34.2910	0	27.290	0	799.288	0	-1e10	8	-1e10	8	-1E+10	1	-1E+10	1	-1E+10	1	-1E+10	1	-1E+10	1	-1E+10	1
4902554	83	C	05/26/2023	03:57	-132.794	47.700	0	812.70	0	3.3540	0	34.2950	0	27.295	0	804.326	0	-1e10	8	-1e10	8	-1E+10	1	-1E+10	1	-1E+10	1	-1E+10	1	-1E+10	1	-1E+10	1
4902554	83	C	05/26/2023	03:57	-132.794	47.700	0	817.80	0	3.3460	0	34.2970	0	27.297	0	809.364	0	-1e10	8	-1e10	8	-1E+10	1	-1E+10	1	-1E+10	1	-1E+10	1	-1E+10	1	-1E+10	1
4902554	83	C	05/26/2023	03:57	-132.794	47.700	0	822.90	0	3.3340	0	34.3000	0	27.301	0	814.401	0	-1e10	8	-1e10	8	-1E+10	1	-1E+10	1	-1E+10	1	-1E+10	1	-1E+10	1	-1E+10	1
4902554	83	C	05/26/2023	03:57	-132.794	47.700	0	827.80	0	3.3260	0	34.3020	0	27.303	0	819.241	0	-1e10	8	-1e10	8	-1E+10	1	-1E+10	1	-1E+10	1	-1E+10	1	-1E+10	1	-1E+10	1
4902554	83	C	05/26/2023	03:57	-132.794	47.700	0	832.70	0	3.3220	0	34.3030	0	27.304	0	824.081	0	-1e10	8	-1e10	8	-1E+10	1	-1E+10	1	-1E+10	1	-1E+10	1	-1E+10	1	-1E+10	1
4902554	83	C	05/26/2023	03:57	-132.794	47.700	0	838.10	0	3.3070	0	34.3060	0	27.308	0	829.414	0	-1e10	8	-1e10	8	-1E+10	1	-1E+10	1	-1E+10	1	-1E+10	1	-1E+10	1	-1E+10	1
4902554	83	C	05/26/2023	03:57	-132.794	47.700	0	843.20	0	3.2930	0	34.3100	0	27.313	0	834.451	0	-1e10	8	-1e10	8	-1E+10	1	-1E+10	1	-1E+10	1	-1E+10	1	-1E+10	1	-1E+10	1
4902554	83	C	05/26/2023	03:57	-132.794	47.700	0	847.90	0	3.2890	0	34.3110	0	27.314	0	839.093	0	-1e10	8	-1e10	8	-1E+10	1	-1E+10	1	-1E+10	1	-1E+10	1	-1E+10	1	-1E+10	1
4902554	83	C	05/26/2023	03:57	-132.794	47.700	0	852.70	0	3.2800	0	34.3130	0	27.316	0	843.833	0	-1e10	8	-1e10	8	-1E+10	1	-1E+10	1	-1E+10	1	-1E+10	1	-1E+10	1	-1E+10	1
4902554	83	C	05/26/2023	03:57	-132.794	47.700	0	857.60	0	3.2690	0	34.3150	0	27.319	0	848.672	0	-1e10	8	-1e10	8	-1E+10	1	-1E+10	1	-1E+10	1	-1E+10	1	-1E+10	1	-1E+10	1
4902554	83	C	05/26/2023	03:57	-132.794	47.700	0	862.60	0	3.2640	0	34.3170	0	27.321	0	853.610	0	-1e10	8	-1e10	8	-1E+10	1	-1E+10	1	-1E+10	1	-1E+10	1	-1E+10	1	-1E+10	1
4902554	83	C	05/26/2023	03:57	-132.794	47.700	0	867.60	0	3.2560	0	34.3190	0	27.323	0	858.548	0	-1e10	8	-1e10	8	-1E+10	1	-1E+10	1	-1E+10	1	-1E+10	1	-1E+10	1	-1E+10	1
4902554	83	C	05/26/2023	03:57	-132.794	47.700	0	872.80	0	3.2490	0	34.3200	0	27.325	0	863.683	0	-1e10	8	-1e10	8	-1E+10	1	-1E+10	1	-1E+10	1	-1E+10	1	-1E+10	1	-1E+10	1
4902554	83	C	05/26/2023	03:57	-132.794	47.700	0	878.10	0	3.2420	0	34.3220	0	27.327	0	868.916	0	-1e10	8	-1e10	8	-1E+10	1	-1E+10	1	-1E+10	1	-1E+10	1	-1E+10	1	-1E+10	1
4902554	83	C	05/26/2023	03:57	-132.794	47.700	0	882.90	0	3.2320	0	34.3240	0	27.330	0	873.656	0	-1e10	8	-1e10	8	-1E+10	1	-1E+10	1	-1E+10	1	-1E+10	1	-1E+10	1	-1E+10	1
4902554	83	C	05/26/2023	03:57	-132.794	47.700	0	887.70	0	3.2240	0	34.3260	0	27.332	0	878.396	0	-1e10	8	-1e10	8	-1E+10	1	-1E+10	1	-1E+10	1	-1E+10	1	-1E+10	1	-1E+10	1
4902554	83	C	05/26/2023	03:57	-132.794	47.700	0	892.70	0	3.2180	0	34.3280	0	27.334	0	883.333	0	-1e10	8	-1e10	8	-1E+10	1	-1E+10	1	-1E+10	1	-1E+10	1	-1E+10	1	-1E+10	1
4902554	83	C	05/26/2023	03:57	-132.794	47.700	0	897.80	0	3.2110	0	34.3290	0	27.336	0	888.369	0	-1e10	8	-1e10	8	-1E+10	1	-1E+10	1	-1E+10	1	-1E+10	1	-1E+10	1	-1E+10	1
4902554	83	C	05/26/2023	03:57	-132.794	47.700	0	902.90	0	3.1990	0	34.3320	0	27.339	0	893.404	0	-1e10	8	-1e10	8	-1E+10	1	-1E+10	1	-1E+10	1	-1E+10	1	-1E+10	1	-1E+10	1
4902554	83	C	05/26/2023	03:57	-132.794	47.700	0	907.80	0	3.1850	0	34.3350	0	27.343	0	898.242	0	-1e10	8	-1e10	8	-1E+10	1	-1E+10	1	-1E+10	1	-1E+10	1	-1E+10	1	-1E+10	1
4902554	83	C	05/26/2023	03:57	-132.794	47.700	0	912.80	0	3.1730	0	34.3380	0	27.347	0	903.179	0	-1e10	8	-1e10	8	-1E+10	1	-1E+10	1	-1E+10	1	-1E+10	1	-1E+10	1	-1E+10	1
4902554	83	C	05/26/2023	03:57	-132.794	47.700	0	917.80	0	3.1590	0	34.3410	0	27.350	0	908.115	0	-1e10	8	-1e10	8	-1E+10	1	-1E+10	1	-1E+10	1	-1E+10	1	-1E+10	1	-1E+10	1
4902554	83	C	05/26/2023	03:57	-132.794	47.700	0	923.00	0	3.1500	0	34.3430	0	27.353	0	913.249	0	-1e10	8	-1e10	8	-1E+10	1	-1E+10	1	-1E+10	1	-1E+10	1	-1E+10	1	-1E+10	1
4902554	83	C	05/26/2023	03:57	-132.794	47.700	0	928.10	0	3.1420	0	34.3450	0	27.355	0	918.284	0	-1e10	8	-1e10	8	-1E+10	1	-1E+10	1	-1E+10	1	-1E+10	1	-1E+10	1	-1E+10	1
4902554	83	C	05/26/2023	03:57	-132.794	47.700	0	932.90	0	3.1290	0	34.3490	0	27.359	0	923.023	0	-1e10	8	-1e10	8	-1E+10	1	-1E+10	1	-1E+10	1	-1E+10	1	-1E+10	1	-1E+10	1
4902554	83	C	05/26/2023	03:57	-132.794	47.700	0	937.60	0	3.1160	0	34.3520	0	27.363	0	927.662	0	-1e10	8	-1e10	8	-1E+10	1	-1E+10	1	-1E+10	1	-1E+10	1	-1E+10	1	-1E+10	1
4902554	83	C	05/26/2023	03:57	-132.794	47.700	0	943.00	0	3.1060	0	34.3540	0	27.366	0	932.993	0	-1e10	8	-1e10	8	-1E+10	1	-1E+10	1	-1E+10	1	-1E+10	1	-1E+10	1	-1E+10	1
4902554	83	C	05/26/2023	03:57	-132.794	47.700	0	948.30	0	3.1020	0	34.3550	0	27.367	0	938.225	0	-1e10	8	-1e10	8	-1E+10	1	-1E+10	1	-1E+10	1	-1E+10	1	-1E+10	1	-1E+10	1
4902554	83	C	05/26/2023	03:57	-132.794	47.700	0	953.20	0	3.1010	0	34.3560	0	27.368	0	943.062	0	-1e10	8	-1e10	8	-1E+10	1	-1E+10	1	-1E+10	1	-1E+10	1	-1E+10	1	-1E+10	1
4902554	83	C	05/26/2023	03:57	-132.794	47.700	0	958.10	0	3.0930	0	34.3580	0	27.370	0	947.899	0	-1e10	8	-1e10	8	-1E+10	1	-1E+10	1	-1E+10	1	-1E+10	1	-1E+10	1	-1E+10	1
4902554	83	C	05/26/2023	03:57	-132.794	47.700	0	963.00	0	3.0840	0	34.3600	0	27.373	0	952.735	0	-1e10	8	-1e10	8	-1E+10	1	-1E+10	1	-1E+10	1	-1E+10	1	-1E+10	1	-1E+10	1
4902554	83	C	05/26/2023	03:57	-132.794	47.700	0	967.90	0	3.0770	0	34.3620	0	27.375	0	957.572	0	-1e10	8	-1e10	8	-1E+10	1	-1E+10	1	-1E+10	1	-1E+10	1	-1E+10	1	-1E+10	1
4902554	83	C	05/26/2023	03:57	-132.794	47.700	0	972.80	0	3.0650	0	34.3650	0	27.378	0	962.408	0	-1e10	8	-1e10	8	-1E+10	1	-1E+10	1	-1E+10	1	-1E+10	1	-1E+10	1	-1E+10	1
4902554	83	C	05/26/2023	03:57	-132.794	47.700	0	977.80	0	3.0560	0	34.3670	0	27.381	0	967.343	0	-1e10	8	-1e10	8	-1E+10	1	-1E+10	1	-1E+10	1	-1E+10	1	-1E+10	1	-1E+10	1
4902554	83	C	05/26/2023	03:57	-132.794	47.700	0	982.80	0	3.0500	0	34.3690	0	27.383	0	972.278	0	-1e10	8	-1e10	8	-1E+10	1	-1E+10	1	-1E+10	1	-1E+10	1	-1E+10	1	-1E+10	1
4902554	83	C	05/26/2023	03:57	-132.794	47.700	0	987.80	0	3.0440	0	34.3700	0	27.384	0	977.213	0	-1e10	8	-1e10	8	-1E+10	1	-1E+10	1	-1E+10	1	-1E+10	1	-1E+10	1	-1E+10	1
4902554	83	C	05/26/2023	03:57	-132.794	47.700	0	992.90	0	3.0380	0	34.3720	0	27.387	0	982.247	0	-1e10	8	-1e10	8	-1E+10	1	-1E+10	1	-1E+10	1	-1E+10	1	-1E+10	1	-1E+10	1
4902554	83	C	05/26/2023	03:57	-132.794	47.700	0	998.20	0	3.0300	0	34.3730	0	27.388	0	987.477	0	-1e10	8	-1e10	8	-1E+10	1	-1E+10	1	-1E+10	1	-1E+10	1	-1E+10	1	-1E+10	1
4902554	83	C	05/26/2023	03:57	-132.794	47.700	0	1005.50	0	3.0230	0	34.3750	0	27.390	0	994.682	0	-1e10	8	-1e10	8	-1E+10	1	-1E+10	1	-1E+10	1	-1E+10	1	-1E+10	1	-1E+10	1
4902554	83	C	05/26/2023	03:57	-132.794	47.700	0	1015.20	0	3.0140	0	34.3770	0	27.393	0	1004.254	0	-1e10	8	-1e10	8	-1E+10	1	-1E+10	1	-1E+10	1	-1E+10	1	-1E+10	1	-1E+10	1
4902554	83	C	05/26/2023	03:57	-132.794	47.700	0	1025.30	0	3.0010	0	34.3810	0	27.397	0	1014.221	0	-1e10	8	-1e10	8	-1E+10	1	-1E+10	1	-1E+10	1	-1E+10	1	-1E+10	1	-1E+10	1
4902554	83	C	05/26/2023	03:57	-132.794	47.700	0	1035.30	0	2.9860	0	34.3840	0	27.401	0	1024.088	0	-1e10	8	-1e10	8	-1E+10	1	-1E+10	1	-1E+10	1	-1E+10	1	-1E+10	1	-1E+10	1
4902554	83	C	05/26/2023	03:57	-132.794	47.700	0	1045.20	0	2.9720	0	34.3870	0	27.405	0	1033.856	0	-1e10	8	-1e10	8	-1E+10	1	-1E+10	1	-1E+10	1	-1E+10	1	-1E+10	1	-1E+10	1
4902554	83	C	05/26/2023	03:57	-132.794	47.700	0	1055.10	0	2.9600	0	34.3910	0	27.409	0	1043.624	0	-1e10	8	-1e10	8	-1E+10	1	-1E+10	1	-1E+10	1	-1E+10	1	-1E+10	1	-1E+10	1
4902554	83	C	05/26/2023	03:57	-132.794	47.700	0	1065.00	0	2.9430	0	34.3950	0	27.414	0	1053.392	0	-1e10	8	-1e10	8	-1E+10	1	-1E+10	1	-1E+10	1	-1E+10	1	-1E+10	1	-1E+10	1
4902554	83	C	05/26/2023	03:57	-132.794	47.700	0	1075.30	0	2.9280	0	34.3980	0	27.418	0	1063.554	0	-1e10	8	-1e10	8	-1E+10	1	-1E+10	1	-1E+10	1	-1E+10	1	-1E+10	1	-1E+10	1
4902554	83	C	05/26/2023	03:57	-132.794	47.700	0	1085.30	0	2.9110	0	34.4020	0	27.422	0	1073.419	0	-1e10	8	-1e10	8	-1E+10	1	-1E+10	1	-1E+10	1	-1E+10	1	-1E+10	1	-1E+10	1
4902554	83	C	05/26/2023	03:57	-132.794	47.700	0	1095.40	0	2.8950	0	34.4050	0	27.426	0	1083.382	0	-1e10	8	-1e10	8	-1E+10	1	-1E+10	1	-1E+10	1	-1E+10	1	-1E+10	1	-1E+10	1
4902554	83	C	05/26/2023	03:57	-132.794	47.700	0	1105.80	0	2.8790	0	34.4090	0	27.431	0	1093.641	0	-1e10	8	-1e10	8	-1E+10	1	-1E+10	1	-1E+10	1	-1E+10	1	-1E+10	1	-1E+10	1
4902554	83	C	05/26/2023	03:57	-132.794	47.700	0	1115.70	0	2.8550	0	34.4130	0	27.436	0	1103.406	0	-1e10	8	-1e10	8	-1E+10	1	-1E+10	1	-1E+10	1	-1E+10	1	-1E+10	1	-1E+10	1
4902554	83	C	05/26/2023	03:57	-132.794	47.700	0	1125.40	0	2.8470	0	34.4140	0	27.438	0	1112.974	0	-1e10	8	-1e10	8	-1E+10	1	-1E+10	1	-1E+10	1	-1E+10	1	-1E+10	1	-1E+10	1
4902554	83	C	05/26/2023	03:57	-132.794	47.700	0	1135.20	0	2.8360	0	34.4170	0	27.441	0	1122.639	0	-1e10	8	-1e10	8	-1E+10	1	-1E+10	1	-1E+10	1	-1E+10	1	-1E+10	1	-1E+10	1
4902554	83	C	05/26/2023	03:57	-132.794	47.700	0	1145.30	0	2.8270	0	34.4190	0	27.444	0	1132.600	0	-1e10	8	-1e10	8	-1E+10	1	-1E+10	1	-1E+10	1	-1E+10	1	-1E+10	1	-1E+10	1
4902554	83	C	05/26/2023	03:57	-132.794	47.700	0	1155.50	0	2.8130	0	34.4230	0	27.448	0	1142.659	0	-1e10	8	-1e10	8	-1E+10	1	-1E+10	1	-1E+10	1	-1E+10	1	-1E+10	1	-1E+10	1
4902554	83	C	05/26/2023	03:57	-132.794	47.700	0	1165.50	0	2.7930	0	34.4270	0	27.453	0	1152.521	0	-1e10	8	-1e10	8	-1E+10	1	-1E+10	1	-1E+10	1	-1E+10	1	-1E+10	1	-1E+10	1
4902554	83	C	05/26/2023	03:57	-132.794	47.700	0	1175.50	0	2.7840	0	34.4280	0	27.455	0	1162.382	0	-1e10	8	-1e10	8	-1E+10	1	-1E+10	1	-1E+10	1	-1E+10	1	-1E+10	1	-1E+10	1
4902554	83	C	05/26/2023	03:57	-132.794	47.700	0	1185.20	0	2.7690	0	34.4310	0	27.459	0	1171.946	0	-1e10	8	-1e10	8	-1E+10	1	-1E+10	1	-1E+10	1	-1E+10	1	-1E+10	1	-1E+10	1
4902554	83	C	05/26/2023	03:57	-132.794	47.700	0	1195.40	0	2.7530	0	34.4350	0	27.463	0	1182.004	0	-1e10	8	-1e10	8	-1E+10	1	-1E+10	1	-1E+10	1	-1E+10	1	-1E+10	1	-1E+10	1
4902554	83	C	05/26/2023	03:57	-132.794	47.700	0	1205.60	0	2.7420	0	34.4380	0	27.467	0	1192.061	0	-1e10	8	-1e10	8	-1E+10	1	-1E+10	1	-1E+10	1	-1E+10	1	-1E+10	1	-1E+10	1
4902554	83	C	05/26/2023	03:57	-132.794	47.700	0	1215.50	0	2.7260	0	34.4400	0	27.470	0	1201.821	0	-1e10	8	-1e10	8	-1E+10	1	-1E+10	1	-1E+10	1	-1E+10	1	-1E+10	1	-1E+10	1
4902554	83	C	05/26/2023	03:57	-132.794	47.700	0	1225.40	0	2.7050	0	34.4440	0	27.475	0	1211.581	0	-1e10	8	-1e10	8	-1E+10	1	-1E+10	1	-1E+10	1	-1E+10	1	-1E+10	1	-1E+10	1
4902554	83	C	05/26/2023	03:57	-132.794	47.700	0	1235.40	0	2.6960	0	34.4470	0	27.478	0	1221.440	0	-1e10	8	-1e10	8	-1E+10	1	-1E+10	1	-1E+10	1	-1E+10	1	-1E+10	1	-1E+10	1
4902554	83	C	05/26/2023	03:57	-132.794	47.700	0	1245.50	0	2.6760	0	34.4510	0	27.483	0	1231.396	0	-1e10	8	-1e10	8	-1E+10	1	-1E+10	1	-1E+10	1	-1E+10	1	-1E+10	1	-1E+10	1
4902554	83	C	05/26/2023	03:57	-132.794	47.700	0	1255.20	0	2.6540	0	34.4530	0	27.487	0	1240.957	0	-1e10	8	-1e10	8	-1E+10	1	-1E+10	1	-1E+10	1	-1E+10	1	-1E+10	1	-1E+10	1
4902554	83	C	05/26/2023	03:57	-132.794	47.700	0	1265.20	0	2.6370	0	34.4570	0	27.491	0	1250.814	0	-1e10	8	-1e10	8	-1E+10	1	-1E+10	1	-1E+10	1	-1E+10	1	-1E+10	1	-1E+10	1
4902554	83	C	05/26/2023	03:57	-132.794	47.700	0	1275.30	0	2.6260	0	34.4590	0	27.494	0	1260.769	0	-1e10	8	-1e10	8	-1E+10	1	-1E+10	1	-1E+10	1	-1E+10	1	-1E+10	1	-1E+10	1
4902554	83	C	05/26/2023	03:57	-132.794	47.700	0	1285.10	0	2.6090	0	34.4620	0	27.498	0	1270.428	0	-1e10	8	-1e10	8	-1E+10	1	-1E+10	1	-1E+10	1	-1E+10	1	-1E+10	1	-1E+10	1
4902554	83	C	05/26/2023	03:57	-132.794	47.700	0	1295.00	0	2.5970	0	34.4640	0	27.500	0	1280.185	0	-1e10	8	-1e10	8	-1E+10	1	-1E+10	1	-1E+10	1	-1E+10	1	-1E+10	1	-1E+10	1
4902554	83	C	05/26/2023	03:57	-132.794	47.700	0	1305.10	0	2.5800	0	34.4670	0	27.504	0	1290.138	0	-1e10	8	-1e10	8	-1E+10	1	-1E+10	1	-1E+10	1	-1E+10	1	-1E+10	1	-1E+10	1
4902554	83	C	05/26/2023	03:57	-132.794	47.700	0	1315.40	0	2.5690	0	34.4690	0	27.507	0	1300.289	0	-1e10	8	-1e10	8	-1E+10	1	-1E+10	1	-1E+10	1	-1E+10	1	-1E+10	1	-1E+10	1
4902554	83	C	05/26/2023	03:57	-132.794	47.700	0	1325.30	0	2.5580	0	34.4710	0	27.510	0	1310.044	0	-1e10	8	-1e10	8	-1E+10	1	-1E+10	1	-1E+10	1	-1E+10	1	-1E+10	1	-1E+10	1
4902554	83	C	05/26/2023	03:57	-132.794	47.700	0	1335.30	0	2.5460	0	34.4740	0	27.513	0	1319.898	0	-1e10	8	-1e10	8	-1E+10	1	-1E+10	1	-1E+10	1	-1E+10	1	-1E+10	1	-1E+10	1
4902554	83	C	05/26/2023	03:57	-132.794	47.700	0	1345.30	0	2.5240	0	34.4780	0	27.518	0	1329.751	0	-1e10	8	-1e10	8	-1E+10	1	-1E+10	1	-1E+10	1	-1E+10	1	-1E+10	1	-1E+10	1
4902554	83	C	05/26/2023	03:57	-132.794	47.700	0	1355.10	0	2.5150	0	34.4800	0	27.521	0	1339.406	0	-1e10	8	-1e10	8	-1E+10	1	-1E+10	1	-1E+10	1	-1E+10	1	-1E+10	1	-1E+10	1
4902554	83	C	05/26/2023	03:57	-132.794	47.700	0	1365.20	0	2.4960	0	34.4830	0	27.525	0	1349.357	0	-1e10	8	-1e10	8	-1E+10	1	-1E+10	1	-1E+10	1	-1E+10	1	-1E+10	1	-1E+10	1
4902554	83	C	05/26/2023	03:57	-132.794	47.700	0	1375.00	0	2.4790	0	34.4870	0	27.529	0	1359.012	0	-1e10	8	-1e10	8	-1E+10	1	-1E+10	1	-1E+10	1	-1E+10	1	-1E+10	1	-1E+10	1
4902554	83	C	05/26/2023	03:57	-132.794	47.700	0	1385.20	0	2.4720	0	34.4880	0	27.531	0	1369.060	0	-1e10	8	-1e10	8	-1E+10	1	-1E+10	1	-1E+10	1	-1E+10	1	-1E+10	1	-1E+10	1
4902554	83	C	05/26/2023	03:57	-132.794	47.700	0	1395.20	0	2.4640	0	34.4900	0	27.533	0	1378.911	0	-1e10	8	-1e10	8	-1E+10	1	-1E+10	1	-1E+10	1	-1E+10	1	-1E+10	1	-1E+10	1
4902554	83	C	05/26/2023	03:57	-132.794	47.700	0	1405.00	0	2.4490	0	34.4920	0	27.536	0	1388.564	0	-1e10	8	-1e10	8	-1E+10	1	-1E+10	1	-1E+10	1	-1E+10	1	-1E+10	1	-1E+10	1
4902554	83	C	05/26/2023	03:57	-132.794	47.700	0	1415.00	0	2.4360	0	34.4940	0	27.539	0	1398.414	0	-1e10	8	-1e10	8	-1E+10	1	-1E+10	1	-1E+10	1	-1E+10	1	-1E+10	1	-1E+10	1
4902554	83	C	05/26/2023	03:57	-132.794	47.700	0	1425.30	0	2.4200	0	34.4970	0	27.542	0	1408.559	0	-1e10	8	-1e10	8	-1E+10	1	-1E+10	1	-1E+10	1	-1E+10	1	-1E+10	1	-1E+10	1
4902554	83	C	05/26/2023	03:57	-132.794	47.700	0	1435.30	0	2.4040	0	34.5000	0	27.546	0	1418.408	0	-1e10	8	-1e10	8	-1E+10	1	-1E+10	1	-1E+10	1	-1E+10	1	-1E+10	1	-1E+10	1
4902554	83	C	05/26/2023	03:57	-132.794	47.700	0	1445.30	0	2.3960	0	34.5010	0	27.548	0	1428.257	0	-1e10	8	-1e10	8	-1E+10	1	-1E+10	1	-1E+10	1	-1E+10	1	-1E+10	1	-1E+10	1
4902554	83	C	05/26/2023	03:57	-132.794	47.700	0	1455.10	0	2.3840	0	34.5030	0	27.550	0	1437.908	0	-1e10	8	-1e10	8	-1E+10	1	-1E+10	1	-1E+10	1	-1E+10	1	-1E+10	1	-1E+10	1
4902554	83	C	05/26/2023	03:57	-132.794	47.700	0	1465.20	0	2.3750	0	34.5050	0	27.553	0	1447.854	0	-1e10	8	-1e10	8	-1E+10	1	-1E+10	1	-1E+10	1	-1E+10	1	-1E+10	1	-1E+10	1
4902554	83	C	05/26/2023	03:57	-132.794	47.700	0	1475.20	0	2.3690	0	34.5060	0	27.554	0	1457.701	0	-1e10	8	-1e10	8	-1E+10	1	-1E+10	1	-1E+10	1	-1E+10	1	-1E+10	1	-1E+10	1
4902554	83	C	05/26/2023	03:57	-132.794	47.700	0	1485.40	0	2.3600	0	34.5080	0	27.557	0	1467.744	0	-1e10	8	-1e10	8	-1E+10	1	-1E+10	1	-1E+10	1	-1E+10	1	-1E+10	1	-1E+10	1
4902554	83	C	05/26/2023	03:57	-132.794	47.700	0	1495.50	0	2.3460	0	34.5090	0	27.559	0	1477.689	0	-1e10	8	-1e10	8	-1E+10	1	-1E+10	1	-1E+10	1	-1E+10	1	-1E+10	1	-1E+10	1
4902554	83	C	05/26/2023	03:57	-132.794	47.700	0	1505.30	0	2.3350	0	34.5110	0	27.561	0	1487.338	0	-1e10	8	-1e10	8	-1E+10	1	-1E+10	1	-1E+10	1	-1E+10	1	-1E+10	1	-1E+10	1
4902554	83	C	05/26/2023	03:57	-132.794	47.700	0	1515.30	0	2.3210	0	34.5130	0	27.564	0	1497.183	0	-1e10	8	-1e10	8	-1E+10	1	-1E+10	1	-1E+10	1	-1E+10	1	-1E+10	1	-1E+10	1
4902554	83	C	05/26/2023	03:57	-132.794	47.700	0	1525.50	0	2.3100	0	34.5150	0	27.566	0	1507.225	0	-1e10	8	-1e10	8	-1E+10	1	-1E+10	1	-1E+10	1	-1E+10	1	-1E+10	1	-1E+10	1
4902554	83	C	05/26/2023	03:57	-132.794	47.700	0	1535.40	0	2.3050	0	34.5160	0	27.568	0	1516.971	0	-1e10	8	-1e10	8	-1E+10	1	-1E+10	1	-1E+10	1	-1E+10	1	-1E+10	1	-1E+10	1
4902554	83	C	05/26/2023	03:57	-132.794	47.700	0	1545.40	0	2.3000	0	34.5180	0	27.570	0	1526.815	0	-1e10	8	-1e10	8	-1E+10	1	-1E+10	1	-1E+10	1	-1E+10	1	-1E+10	1	-1E+10	1
4902554	83	C	05/26/2023	03:57	-132.794	47.700	0	1555.30	0	2.2930	0	34.5190	0	27.571	0	1536.560	0	-1e10	8	-1e10	8	-1E+10	1	-1E+10	1	-1E+10	1	-1E+10	1	-1E+10	1	-1E+10	1
4902554	83	C	05/26/2023	03:57	-132.794	47.700	0	1565.40	0	2.2820	0	34.5210	0	27.574	0	1546.501	0	-1e10	8	-1e10	8	-1E+10	1	-1E+10	1	-1E+10	1	-1E+10	1	-1E+10	1	-1E+10	1
4902554	83	C	05/26/2023	03:57	-132.794	47.700	0	1575.40	0	2.2710	0	34.5230	0	27.576	0	1556.344	0	-1e10	8	-1e10	8	-1E+10	1	-1E+10	1	-1E+10	1	-1E+10	1	-1E+10	1	-1E+10	1
4902554	83	C	05/26/2023	03:57	-132.794	47.700	0	1585.40	0	2.2630	0	34.5250	0	27.579	0	1566.186	0	-1e10	8	-1e10	8	-1E+10	1	-1E+10	1	-1E+10	1	-1E+10	1	-1E+10	1	-1E+10	1
4902554	83	C	05/26/2023	03:57	-132.794	47.700	0	1595.60	0	2.2590	0	34.5250	0	27.579	0	1576.224	0	-1e10	8	-1e10	8	-1E+10	1	-1E+10	1	-1E+10	1	-1E+10	1	-1E+10	1	-1E+10	1
4902554	83	C	05/26/2023	03:57	-132.794	47.700	0	1605.60	0	2.2580	0	34.5270	0	27.581	0	1586.065	0	-1e10	8	-1e10	8	-1E+10	1	-1E+10	1	-1E+10	1	-1E+10	1	-1E+10	1	-1E+10	1
4902554	83	C	05/26/2023	03:57	-132.794	47.700	0	1615.70	0	2.2540	0	34.5280	0	27.582	0	1596.004	0	-1e10	8	-1e10	8	-1E+10	1	-1E+10	1	-1E+10	1	-1E+10	1	-1E+10	1	-1E+10	1
4902554	83	C	05/26/2023	03:57	-132.794	47.700	0	1625.80	0	2.2510	0	34.5290	0	27.583	0	1605.943	0	-1e10	8	-1e10	8	-1E+10	1	-1E+10	1	-1E+10	1	-1E+10	1	-1E+10	1	-1E+10	1
4902554	83	C	05/26/2023	03:57	-132.794	47.700	0	1635.80	0	2.2460	0	34.5300	0	27.584	0	1615.783	0	-1e10	8	-1e10	8	-1E+10	1	-1E+10	1	-1E+10	1	-1E+10	1	-1E+10	1	-1E+10	1
4902554	83	C	05/26/2023	03:57	-132.794	47.700	0	1645.40	0	2.2330	0	34.5320	0	27.587	0	1625.228	0	-1e10	8	-1e10	8	-1E+10	1	-1E+10	1	-1E+10	1	-1E+10	1	-1E+10	1	-1E+10	1
4902554	83	C	05/26/2023	03:57	-132.794	47.700	0	1655.30	0	2.2110	0	34.5360	0	27.592	0	1634.969	0	-1e10	8	-1e10	8	-1E+10	1	-1E+10	1	-1E+10	1	-1E+10	1	-1E+10	1	-1E+10	1
4902554	83	C	05/26/2023	03:57	-132.794	47.700	0	1665.70	0	2.2020	0	34.5380	0	27.594	0	1645.201	0	-1e10	8	-1e10	8	-1E+10	1	-1E+10	1	-1E+10	1	-1E+10	1	-1E+10	1	-1E+10	1
4902554	83	C	05/26/2023	03:57	-132.794	47.700	0	1675.80	0	2.1900	0	34.5400	0	27.597	0	1655.137	0	-1e10	8	-1e10	8	-1E+10	1	-1E+10	1	-1E+10	1	-1E+10	1	-1E+10	1	-1E+10	1
4902554	83	C	05/26/2023	03:57	-132.794	47.700	0	1685.40	0	2.1690	0	34.5450	0	27.603	0	1664.581	0	-1e10	8	-1e10	8	-1E+10	1	-1E+10	1	-1E+10	1	-1E+10	1	-1E+10	1	-1E+10	1
4902554	83	C	05/26/2023	03:57	-132.794	47.700	0	1695.20	0	2.1560	0	34.5470	0	27.605	0	1674.221	0	-1e10	8	-1e10	8	-1E+10	1	-1E+10	1	-1E+10	1	-1E+10	1	-1E+10	1	-1E+10	1
4902554	83	C	05/26/2023	03:57	-132.794	47.700	0	1705.60	0	2.1350	0	34.5510	0	27.610	0	1684.451	0	-1e10	8	-1e10	8	-1E+10	1	-1E+10	1	-1E+10	1	-1E+10	1	-1E+10	1	-1E+10	1
4902554	83	C	05/26/2023	03:57	-132.794	47.700	0	1715.50	0	2.1270	0	34.5520	0	27.612	0	1694.189	0	-1e10	8	-1e10	8	-1E+10	1	-1E+10	1	-1E+10	1	-1E+10	1	-1E+10	1	-1E+10	1
4902554	83	C	05/26/2023	03:57	-132.794	47.700	0	1725.00	0	2.1140	0	34.5550	0	27.615	0	1703.533	0	-1e10	8	-1e10	8	-1E+10	1	-1E+10	1	-1E+10	1	-1E+10	1	-1E+10	1	-1E+10	1
4902554	83	C	05/26/2023	03:57	-132.794	47.700	0	1735.00	0	2.0980	0	34.5580	0	27.619	0	1713.368	0	-1e10	8	-1e10	8	-1E+10	1	-1E+10	1	-1E+10	1	-1E+10	1	-1E+10	1	-1E+10	1
4902554	83	C	05/26/2023	03:57	-132.794	47.700	0	1745.60	0	2.0870	0	34.5600	0	27.622	0	1723.793	0	-1e10	8	-1e10	8	-1E+10	1	-1E+10	1	-1E+10	1	-1E+10	1	-1E+10	1	-1E+10	1
4902554	83	C	05/26/2023	03:57	-132.794	47.700	0	1755.30	0	2.0810	0	34.5610	0	27.623	0	1733.332	0	-1e10	8	-1e10	8	-1E+10	1	-1E+10	1	-1E+10	1	-1E+10	1	-1E+10	1	-1E+10	1
4902554	83	C	05/26/2023	03:57	-132.794	47.700	0	1765.50	0	2.0650	0	34.5630	0	27.626	0	1743.363	0	-1e10	8	-1e10	8	-1E+10	1	-1E+10	1	-1E+10	1	-1E+10	1	-1E+10	1	-1E+10	1
4902554	83	C	05/26/2023	03:57	-132.794	47.700	0	1775.40	0	2.0600	0	34.5650	0	27.628	0	1753.098	0	-1e10	8	-1e10	8	-1E+10	1	-1E+10	1	-1E+10	1	-1E+10	1	-1E+10	1	-1E+10	1
4902554	83	C	05/26/2023	03:57	-132.794	47.700	0	1785.50	0	2.0590	0	34.5650	0	27.628	0	1763.029	0	-1e10	8	-1e10	8	-1E+10	1	-1E+10	1	-1E+10	1	-1E+10	1	-1E+10	1	-1E+10	1
4902554	83	C	05/26/2023	03:57	-132.794	47.700	0	1795.50	0	2.0530	0	34.5660	0	27.629	0	1772.861	0	-1e10	8	-1e10	8	-1E+10	1	-1E+10	1	-1E+10	1	-1E+10	1	-1E+10	1	-1E+10	1
4902554	83	C	05/26/2023	03:57	-132.794	47.700	0	1805.40	0	2.0510	0	34.5660	0	27.629	0	1782.595	0	-1e10	8	-1e10	8	-1E+10	1	-1E+10	1	-1E+10	1	-1E+10	1	-1E+10	1	-1E+10	1
4902554	83	C	05/26/2023	03:57	-132.794	47.700	0	1815.60	0	2.0460	0	34.5670	0	27.631	0	1792.623	0	-1e10	8	-1e10	8	-1E+10	1	-1E+10	1	-1E+10	1	-1E+10	1	-1E+10	1	-1E+10	1
4902554	83	C	05/26/2023	03:57	-132.794	47.700	0	1825.40	0	2.0410	0	34.5690	0	27.633	0	1802.258	0	-1e10	8	-1e10	8	-1E+10	1	-1E+10	1	-1E+10	1	-1E+10	1	-1E+10	1	-1E+10	1
4902554	83	C	05/26/2023	03:57	-132.794	47.700	0	1835.30	0	2.0320	0	34.5700	0	27.634	0	1811.990	0	-1e10	8	-1e10	8	-1E+10	1	-1E+10	1	-1E+10	1	-1E+10	1	-1E+10	1	-1E+10	1
4902554	83	C	05/26/2023	03:57	-132.794	47.700	0	1845.50	0	2.0250	0	34.5720	0	27.637	0	1822.017	0	-1e10	8	-1e10	8	-1E+10	1	-1E+10	1	-1E+10	1	-1E+10	1	-1E+10	1	-1E+10	1
4902554	83	C	05/26/2023	03:57	-132.794	47.700	0	1855.40	0	2.0230	0	34.5720	0	27.637	0	1831.748	0	-1e10	8	-1e10	8	-1E+10	1	-1E+10	1	-1E+10	1	-1E+10	1	-1E+10	1	-1E+10	1
4902554	83	C	05/26/2023	03:57	-132.794	47.700	0	1865.10	0	2.0200	0	34.5730	0	27.638	0	1841.282	0	-1e10	8	-1e10	8	-1E+10	1	-1E+10	1	-1E+10	1	-1E+10	1	-1E+10	1	-1E+10	1
4902554	83	C	05/26/2023	03:57	-132.794	47.700	0	1875.00	0	2.0130	0	34.5740	0	27.639	0	1851.013	0	-1e10	8	-1e10	8	-1E+10	1	-1E+10	1	-1E+10	1	-1E+10	1	-1E+10	1	-1E+10	1
4902554	83	C	05/26/2023	03:57	-132.794	47.700	0	1885.00	0	2.0050	0	34.5750	0	27.641	0	1860.841	0	-1e10	8	-1e10	8	-1E+10	1	-1E+10	1	-1E+10	1	-1E+10	1	-1E+10	1	-1E+10	1
4902554	83	C	05/26/2023	03:57	-132.794	47.700	0	1895.40	0	1.9960	0	34.5770	0	27.643	0	1871.062	0	-1e10	8	-1e10	8	-1E+10	1	-1E+10	1	-1E+10	1	-1E+10	1	-1E+10	1	-1E+10	1
4902554	83	C	05/26/2023	03:57	-132.794	47.700	0	1905.50	0	1.9890	0	34.5780	0	27.644	0	1880.988	0	-1e10	8	-1e10	8	-1E+10	1	-1E+10	1	-1E+10	1	-1E+10	1	-1E+10	1	-1E+10	1
4902554	83	C	05/26/2023	03:57	-132.794	47.700	0	1915.20	0	1.9870	0	34.5790	0	27.646	0	1890.520	0	-1e10	8	-1e10	8	-1E+10	1	-1E+10	1	-1E+10	1	-1E+10	1	-1E+10	1	-1E+10	1
4902554	83	C	05/26/2023	03:57	-132.794	47.700	0	1925.00	0	1.9790	0	34.5800	0	27.647	0	1900.150	0	-1e10	8	-1e10	8	-1E+10	1	-1E+10	1	-1E+10	1	-1E+10	1	-1E+10	1	-1E+10	1
4902554	83	C	05/26/2023	03:57	-132.794	47.700	0	1935.10	0	1.9760	0	34.5810	0	27.648	0	1910.074	0	-1e10	8	-1e10	8	-1E+10	1	-1E+10	1	-1E+10	1	-1E+10	1	-1E+10	1	-1E+10	1
4902554	83	C	05/26/2023	03:57	-132.794	47.700	0	1945.40	0	1.9710	0	34.5820	0	27.649	0	1920.195	0	-1e10	8	-1e10	8	-1E+10	1	-1E+10	1	-1E+10	1	-1E+10	1	-1E+10	1	-1E+10	1
4902554	83	C	05/26/2023	03:57	-132.794	47.700	0	1955.60	0	1.9630	0	34.5840	0	27.652	0	1930.216	0	-1e10	8	-1e10	8	-1E+10	1	-1E+10	1	-1E+10	1	-1E+10	1	-1E+10	1	-1E+10	1
4902554	83	C	05/26/2023	03:57	-132.794	47.700	0	1965.50	0	1.9560	0	34.5860	0	27.654	0	1939.943	0	-1e10	8	-1e10	8	-1E+10	1	-1E+10	1	-1E+10	1	-1E+10	1	-1E+10	1	-1E+10	1
4902554	83	C	05/26/2023	03:57	-132.794	47.700	0	1975.10	0	1.9540	0	34.5860	0	27.654	0	1949.374	0	-1e10	8	-1e10	8	-1E+10	1	-1E+10	1	-1E+10	1	-1E+10	1	-1E+10	1	-1E+10	1
4902554	83	C	05/26/2023	03:57	-132.794	47.700	0	1985.10	0	1.9480	0	34.5880	0	27.656	0	1959.198	0	-1e10	8	-1e10	8	-1E+10	1	-1E+10	1	-1E+10	1	-1E+10	1	-1E+10	1	-1E+10	1
4902554	83	C	05/26/2023	03:57	-132.794	47.700	0	1995.30	0	1.9390	0	34.5890	0	27.658	0	1969.218	0	-1e10	8	-1e10	8	-1E+10	1	-1E+10	1	-1E+10	1	-1E+10	1	-1E+10	1	-1E+10	1
4902554	83	C	05/26/2023	03:57	-132.794	47.700	0	2005.80	0	1.9350	0	34.5900	0	27.659	0	1979.532	0	-1e10	8	-1e10	8	-1E+10	1	-1E+10	1	-1E+10	1	-1E+10	1	-1E+10	1	-1E+10	1
4902554	83	C	05/26/2023	03:57	-132.794	47.700	0	2010.70	0	1.9350	0	34.5910	0	27.660	0	1984.345	0	-1e10	8	-1e10	8	-1E+10	1	-1E+10	1	-1E+10	1	-1E+10	1	-1E+10	1	-1E+10	1
4902554	83	C	05/26/2023	03:57	-132.794	47.700	0																										
4902554	84	C	06/05/2023	09:01	-132.783	47.681	0	0.40	0	11.4890	0	32.3240	0	24.606	0	0.397	0	-1e10	8	-1e10	8	-1E+10	1	-1E+10	1	-1E+10	1	-1E+10	1	-1E+10	1	-1E+10	1
4902554	84	C	06/05/2023	09:01	-132.783	47.681	0	0.70	0	11.4940	0	32.3200	0	24.602	0	0.694	0	-1e10	8	-1e10	8	-1E+10	1	-1E+10	1	-1E+10	1	-1E+10	1	-1E+10	1	-1E+10	1
4902554	84	C	06/05/2023	09:01	-132.783	47.681	0	1.80	0	11.4940	0	32.3200	0	24.602	0	1.785	0	-1e10	8	-1e10	8	-1E+10	1	-1E+10	1	-1E+10	1	-1E+10	1	-1E+10	1	-1E+10	1
4902554	84	C	06/05/2023	09:01	-132.783	47.681	0	2.90	0	11.4950	0	32.3190	0	24.601	0	2.876	0	-1e10	8	-1e10	8	-1E+10	1	-1E+10	1	-1E+10	1	-1E+10	1	-1E+10	1	-1E+10	1
4902554	84	C	06/05/2023	09:01	-132.783	47.681	0	3.90	0	11.4920	0	32.3220	0	24.604	0	3.867	0	-1e10	8	-1e10	8	-1E+10	1	-1E+10	1	-1E+10	1	-1E+10	1	-1E+10	1	-1E+10	1
4902554	84	C	06/05/2023	09:01	-132.783	47.681	0	4.90	0	11.4920	0	32.3240	0	24.605	0	4.859	0	-1e10	8	-1e10	8	-1E+10	1	-1E+10	1	-1E+10	1	-1E+10	1	-1E+10	1	-1E+10	1
4902554	84	C	06/05/2023	09:01	-132.783	47.681	0	6.00	0	11.4910	0	32.3240	0	24.605	0	5.950	0	-1e10	8	-1e10	8	-1E+10	1	-1E+10	1	-1E+10	1	-1E+10	1	-1E+10	1	-1E+10	1
4902554	84	C	06/05/2023	09:01	-132.783	47.681	0	7.00	0	11.4900	0	32.3240	0	24.606	0	6.941	0	-1e10	8	-1e10	8	-1E+10	1	-1E+10	1	-1E+10	1	-1E+10	1	-1E+10	1	-1E+10	1
4902554	84	C	06/05/2023	09:01	-132.783	47.681	0	8.00	0	11.4890	0	32.3230	0	24.605	0	7.933	0	-1e10	8	-1e10	8	-1E+10	1	-1E+10	1	-1E+10	1	-1E+10	1	-1E+10	1	-1E+10	1
4902554	84	C	06/05/2023	09:01	-132.783	47.681	0	9.10	0	11.4910	0	32.3240	0	24.605	0	9.024	0	-1e10	8	-1e10	8	-1E+10	1	-1E+10	1	-1E+10	1	-1E+10	1	-1E+10	1	-1E+10	1
4902554	84	C	06/05/2023	09:01	-132.783	47.681	0	10.10	0	11.4910	0	32.3230	0	24.605	0	10.015	0	-1e10	8	-1e10	8	-1E+10	1	-1E+10	1	-1E+10	1	-1E+10	1	-1E+10	1	-1E+10	1
4902554	84	C	06/05/2023	09:01	-132.783	47.681	0	11.10	0	11.4900	0	32.3230	0	24.605	0	11.007	0	-1e10	8	-1e10	8	-1E+10	1	-1E+10	1	-1E+10	1	-1E+10	1	-1E+10	1	-1E+10	1
4902554	84	C	06/05/2023	09:01	-132.783	47.681	0	12.00	0	11.4950	0	32.3240	0	24.605	0	11.899	0	-1e10	8	-1e10	8	-1E+10	1	-1E+10	1	-1E+10	1	-1E+10	1	-1E+10	1	-1E+10	1
4902554	84	C	06/05/2023	09:01	-132.783	47.681	0	12.90	0	11.4940	0	32.3230	0	24.604	0	12.792	0	-1e10	8	-1e10	8	-1E+10	1	-1E+10	1	-1E+10	1	-1E+10	1	-1E+10	1	-1E+10	1
4902554	84	C	06/05/2023	09:01	-132.783	47.681	0	13.80	0	11.4940	0	32.3220	0	24.603	0	13.684	0	-1e10	8	-1e10	8	-1E+10	1	-1E+10	1	-1E+10	1	-1E+10	1	-1E+10	1	-1E+10	1
4902554	84	C	06/05/2023	09:01	-132.783	47.681	0	14.70	0	11.4940	0	32.3230	0	24.604	0	14.577	0	-1e10	8	-1e10	8	-1E+10	1	-1E+10	1	-1E+10	1	-1E+10	1	-1E+10	1	-1E+10	1
4902554	84	C	06/05/2023	09:01	-132.783	47.681	0	15.90	0	11.4910	0	32.3220	0	24.604	0	15.766	0	-1e10	8	-1e10	8	-1E+10	1	-1E+10	1	-1E+10	1	-1E+10	1	-1E+10	1	-1E+10	1
4902554	84	C	06/05/2023	09:01	-132.783	47.681	0	17.00	0	11.4680	0	32.3220	0	24.608	0	16.857	0	-1e10	8	-1e10	8	-1E+10	1	-1E+10	1	-1E+10	1	-1E+10	1	-1E+10	1	-1E+10	1
4902554	84	C	06/05/2023	09:01	-132.783	47.681	0	18.00	0	11.4410	0	32.3230	0	24.614	0	17.849	0	-1e10	8	-1e10	8	-1E+10	1	-1E+10	1	-1E+10	1	-1E+10	1	-1E+10	1	-1E+10	1
4902554	84	C	06/05/2023	09:01	-132.783	47.681	0	19.10	0	11.4140	0	32.3190	0	24.616	0	18.939	0	-1e10	8	-1e10	8	-1E+10	1	-1E+10	1	-1E+10	1	-1E+10	1	-1E+10	1	-1E+10	1
4902554	84	C	06/05/2023	09:01	-132.783	47.681	0	20.00	0	11.3250	0	32.3050	0	24.621	0	19.832	0	-1e10	8	-1e10	8	-1E+10	1	-1E+10	1	-1E+10	1	-1E+10	1	-1E+10	1	-1E+10	1
4902554	84	C	06/05/2023	09:01	-132.783	47.681	0	20.90	0	10.4250	0	32.3210	0	24.790	0	20.724	0	-1e10	8	-1e10	8	-1E+10	1	-1E+10	1	-1E+10	1	-1E+10	1	-1E+10	1	-1E+10	1
4902554	84	C	06/05/2023	09:01	-132.783	47.681	0	21.90	0	10.0250	0	32.3060	0	24.846	0	21.716	0	-1e10	8	-1e10	8	-1E+10	1	-1E+10	1	-1E+10	1	-1E+10	1	-1E+10	1	-1E+10	1
4902554	84	C	06/05/2023	09:01	-132.783	47.681	0	22.90	0	9.5920	0	32.3040	0	24.915	0	22.707	0	-1e10	8	-1e10	8	-1E+10	1	-1E+10	1	-1E+10	1	-1E+10	1	-1E+10	1	-1E+10	1
4902554	84	C	06/05/2023	09:01	-132.783	47.681	0	23.90	0	9.2670	0	32.3120	0	24.973	0	23.699	0	-1e10	8	-1e10	8	-1E+10	1	-1E+10	1	-1E+10	1	-1E+10	1	-1E+10	1	-1E+10	1
4902554	84	C	06/05/2023	09:01	-132.783	47.681	0	25.00	0	9.0140	0	32.3170	0	25.016	0	24.789	0	-1e10	8	-1e10	8	-1E+10	1	-1E+10	1	-1E+10	1	-1E+10	1	-1E+10	1	-1E+10	1
4902554	84	C	06/05/2023	09:01	-132.783	47.681	0	26.10	0	8.9160	0	32.3140	0	25.029	0	25.880	0	-1e10	8	-1e10	8	-1E+10	1	-1E+10	1	-1E+10	1	-1E+10	1	-1E+10	1	-1E+10	1
4902554	84	C	06/05/2023	09:01	-132.783	47.681	0	26.90	0	8.7400	0	32.3160	0	25.058	0	26.673	0	-1e10	8	-1e10	8	-1E+10	1	-1E+10	1	-1E+10	1	-1E+10	1	-1E+10	1	-1E+10	1
4902554	84	C	06/05/2023	09:01	-132.783	47.681	0	27.70	0	8.6110	0	32.3080	0	25.071	0	27.467	0	-1e10	8	-1e10	8	-1E+10	1	-1E+10	1	-1E+10	1	-1E+10	1	-1E+10	1	-1E+10	1
4902554	84	C	06/05/2023	09:01	-132.783	47.681	0	28.80	0	8.5530	0	32.3070	0	25.079	0	28.557	0	-1e10	8	-1e10	8	-1E+10	1	-1E+10	1	-1E+10	1	-1E+10	1	-1E+10	1	-1E+10	1
4902554	84	C	06/05/2023	09:01	-132.783	47.681	0	30.10	0	8.4500	0	32.3090	0	25.096	0	29.846	0	-1e10	8	-1e10	8	-1E+10	1	-1E+10	1	-1E+10	1	-1E+10	1	-1E+10	1	-1E+10	1
4902554	84	C	06/05/2023	09:01	-132.783	47.681	0	31.00	0	8.3720	0	32.3110	0	25.109	0	30.738	0	-1e10	8	-1e10	8	-1E+10	1	-1E+10	1	-1E+10	1	-1E+10	1	-1E+10	1	-1E+10	1
4902554	84	C	06/05/2023	09:01	-132.783	47.681	0	32.00	0	8.2670	0	32.3150	0	25.128	0	31.730	0	-1e10	8	-1e10	8	-1E+10	1	-1E+10	1	-1E+10	1	-1E+10	1	-1E+10	1	-1E+10	1
4902554	84	C	06/05/2023	09:01	-132.783	47.681	0	33.10	0	8.2060	0	32.3170	0	25.138	0	32.821	0	-1e10	8	-1e10	8	-1E+10	1	-1E+10	1	-1E+10	1	-1E+10	1	-1E+10	1	-1E+10	1
4902554	84	C	06/05/2023	09:01	-132.783	47.681	0	34.10	0	8.1500	0	32.3200	0	25.149	0	33.812	0	-1e10	8	-1e10	8	-1E+10	1	-1E+10	1	-1E+10	1	-1E+10	1	-1E+10	1	-1E+10	1
4902554	84	C	06/05/2023	09:01	-132.783	47.681	0	35.00	0	8.1150	0	32.3210	0	25.155	0	34.704	0	-1e10	8	-1e10	8	-1E+10	1	-1E+10	1	-1E+10	1	-1E+10	1	-1E+10	1	-1E+10	1
4902554	84	C	06/05/2023	09:01	-132.783	47.681	0	36.20	0	8.0740	0	32.3200	0	25.160	0	35.894	0	-1e10	8	-1e10	8	-1E+10	1	-1E+10	1	-1E+10	1	-1E+10	1	-1E+10	1	-1E+10	1
4902554	84	C	06/05/2023	09:01	-132.783	47.681	0	36.90	0	7.9870	0	32.3240	0	25.175	0	36.588	0	-1e10	8	-1e10	8	-1E+10	1	-1E+10	1	-1E+10	1	-1E+10	1	-1E+10	1	-1E+10	1
4902554	84	C	06/05/2023	09:01	-132.783	47.681	0	38.20	0	7.9060	0	32.3270	0	25.189	0	37.877	0	-1e10	8	-1e10	8	-1E+10	1	-1E+10	1	-1E+10	1	-1E+10	1	-1E+10	1	-1E+10	1
4902554	84	C	06/05/2023	09:01	-132.783	47.681	0	38.80	0	7.8520	0	32.3300	0	25.199	0	38.472	0	-1e10	8	-1e10	8	-1E+10	1	-1E+10	1	-1E+10	1	-1E+10	1	-1E+10	1	-1E+10	1
4902554	84	C	06/05/2023	09:01	-132.783	47.681	0	39.90	0	7.7270	0	32.3340	0	25.220	0	39.563	0	-1e10	8	-1e10	8	-1E+10	1	-1E+10	1	-1E+10	1	-1E+10	1	-1E+10	1	-1E+10	1
4902554	84	C	06/05/2023	09:01	-132.783	47.681	0	41.30	0	7.6630	0	32.3390	0	25.233	0	40.951	0	-1e10	8	-1e10	8	-1E+10	1	-1E+10	1	-1E+10	1	-1E+10	1	-1E+10	1	-1E+10	1
4902554	84	C	06/05/2023	09:01	-132.783	47.681	0	42.00	0	7.6080	0	32.3390	0	25.241	0	41.645	0	-1e10	8	-1e10	8	-1E+10	1	-1E+10	1	-1E+10	1	-1E+10	1	-1E+10	1	-1E+10	1
4902554	84	C	06/05/2023	09:01	-132.783	47.681	0	43.00	0	7.5430	0	32.3410	0	25.252	0	42.636	0	-1e10	8	-1e10	8	-1E+10	1	-1E+10	1	-1E+10	1	-1E+10	1	-1E+10	1	-1E+10	1
4902554	84	C	06/05/2023	09:01	-132.783	47.681	0	44.00	0	7.4830	0	32.3440	0	25.262	0	43.627	0	-1e10	8	-1e10	8	-1E+10	1	-1E+10	1	-1E+10	1	-1E+10	1	-1E+10	1	-1E+10	1
4902554	84	C	06/05/2023	09:01	-132.783	47.681	0	45.00	0	7.4290	0	32.3470	0	25.272	0	44.619	0	-1e10	8	-1e10	8	-1E+10	1	-1E+10	1	-1E+10	1	-1E+10	1	-1E+10	1	-1E+10	1
4902554	84	C	06/05/2023	09:01	-132.783	47.681	0	46.00	0	7.4150	0	32.3480	0	25.275	0	45.610	0	-1e10	8	-1e10	8	-1E+10	1	-1E+10	1	-1E+10	1	-1E+10	1	-1E+10	1	-1E+10	1
4902554	84	C	06/05/2023	09:01	-132.783	47.681	0	47.00	0	7.4070	0	32.3470	0	25.275	0	46.602	0	-1e10	8	-1e10	8	-1E+10	1	-1E+10	1	-1E+10	1	-1E+10	1	-1E+10	1	-1E+10	1
4902554	84	C	06/05/2023	09:01	-132.783	47.681	0	48.00	0	7.3790	0	32.3450	0	25.277	0	47.593	0	-1e10	8	-1e10	8	-1E+10	1	-1E+10	1	-1E+10	1	-1E+10	1	-1E+10	1	-1E+10	1
4902554	84	C	06/05/2023	09:01	-132.783	47.681	0	49.00	0	7.3480	0	32.3450	0	25.282	0	48.584	0	-1e10	8	-1e10	8	-1E+10	1	-1E+10	1	-1E+10	1	-1E+10	1	-1E+10	1	-1E+10	1
4902554	84	C	06/05/2023	09:01	-132.783	47.681	0	50.00	0	7.3150	0	32.3470	0	25.288	0	49.576	0	-1e10	8	-1e10	8	-1E+10	1	-1E+10	1	-1E+10	1	-1E+10	1	-1E+10	1	-1E+10	1
4902554	84	C	06/05/2023	09:01	-132.783	47.681	0	51.00	0	7.2980	0	32.3470	0	25.290	0	50.567	0	-1e10	8	-1e10	8	-1E+10	1	-1E+10	1	-1E+10	1	-1E+10	1	-1E+10	1	-1E+10	1
4902554	84	C	06/05/2023	09:01	-132.783	47.681	0	52.00	0	7.2710	0	32.3480	0	25.295	0	51.559	0	-1e10	8	-1e10	8	-1E+10	1	-1E+10	1	-1E+10	1	-1E+10	1	-1E+10	1	-1E+10	1
4902554	84	C	06/05/2023	09:01	-132.783	47.681	0	53.00	0	7.2590	0	32.3490	0	25.297	0	52.550	0	-1e10	8	-1e10	8	-1E+10	1	-1E+10	1	-1E+10	1	-1E+10	1	-1E+10	1	-1E+10	1
4902554	84	C	06/05/2023	09:01	-132.783	47.681	0	54.00	0	7.2490	0	32.3490	0	25.298	0	53.541	0	-1e10	8	-1e10	8	-1E+10	1	-1E+10	1	-1E+10	1	-1E+10	1	-1E+10	1	-1E+10	1
4902554	84	C	06/05/2023	09:01	-132.783	47.681	0	55.00	0	7.2350	0	32.3500	0	25.301	0	54.533	0	-1e10	8	-1e10	8	-1E+10	1	-1E+10	1	-1E+10	1	-1E+10	1	-1E+10	1	-1E+10	1
4902554	84	C	06/05/2023	09:01	-132.783	47.681	0	56.20	0	7.2270	0	32.3500	0	25.302	0	55.722	0	-1e10	8	-1e10	8	-1E+10	1	-1E+10	1	-1E+10	1	-1E+10	1	-1E+10	1	-1E+10	1
4902554	84	C	06/05/2023	09:01	-132.783	47.681	0	56.90	0	7.2230	0	32.3490	0	25.302	0	56.416	0	-1e10	8	-1e10	8	-1E+10	1	-1E+10	1	-1E+10	1	-1E+10	1	-1E+10	1	-1E+10	1
4902554	84	C	06/05/2023	09:01	-132.783	47.681	0	57.90	0	7.2250	0	32.3520	0	25.304	0	57.408	0	-1e10	8	-1e10	8	-1E+10	1	-1E+10	1	-1E+10	1	-1E+10	1	-1E+10	1	-1E+10	1
4902554	84	C	06/05/2023	09:01	-132.783	47.681	0	58.80	0	7.2030	0	32.3540	0	25.309	0	58.300	0	-1e10	8	-1e10	8	-1E+10	1	-1E+10	1	-1E+10	1	-1E+10	1	-1E+10	1	-1E+10	1
4902554	84	C	06/05/2023	09:01	-132.783	47.681	0	59.80	0	7.1780	0	32.3530	0	25.311	0	59.291	0	-1e10	8	-1e10	8	-1E+10	1	-1E+10	1	-1E+10	1	-1E+10	1	-1E+10	1	-1E+10	1
4902554	84	C	06/05/2023	09:01	-132.783	47.681	0	60.80	0	7.1700	0	32.3540	0	25.313	0	60.283	0	-1e10	8	-1e10	8	-1E+10	1	-1E+10	1	-1E+10	1	-1E+10	1	-1E+10	1	-1E+10	1
4902554	84	C	06/05/2023	09:01	-132.783	47.681	0	61.80	0	7.1540	0	32.3550	0	25.316	0	61.274	0	-1e10	8	-1e10	8	-1E+10	1	-1E+10	1	-1E+10	1	-1E+10	1	-1E+10	1	-1E+10	1
4902554	84	C	06/05/2023	09:01	-132.783	47.681	0	63.00	0	7.1370	0	32.3550	0	25.318	0	62.464	0	-1e10	8	-1e10	8	-1E+10	1	-1E+10	1	-1E+10	1	-1E+10	1	-1E+10	1	-1E+10	1
4902554	84	C	06/05/2023	09:01	-132.783	47.681	0	63.70	0	7.1360	0	32.3550	0	25.319	0	63.158	0	-1e10	8	-1e10	8	-1E+10	1	-1E+10	1	-1E+10	1	-1E+10	1	-1E+10	1	-1E+10	1
4902554	84	C	06/05/2023	09:01	-132.783	47.681	0	64.70	0	7.1300	0	32.3570	0	25.321	0	64.149	0	-1e10	8	-1e10	8	-1E+10	1	-1E+10	1	-1E+10	1	-1E+10	1	-1E+10	1	-1E+10	1
4902554	84	C	06/05/2023	09:01	-132.783	47.681	0	65.70	0	7.1170	0	32.3570	0	25.323	0	65.140	0	-1e10	8	-1e10	8	-1E+10	1	-1E+10	1	-1E+10	1	-1E+10	1	-1E+10	1	-1E+10	1
4902554	84	C	06/05/2023	09:01	-132.783	47.681	0	66.90	0	7.1130	0	32.3580	0	25.324	0	66.330	0	-1e10	8	-1e10	8	-1E+10	1	-1E+10	1	-1E+10	1	-1E+10	1	-1E+10	1	-1E+10	1
4902554	84	C	06/05/2023	09:01	-132.783	47.681	0	68.10	0	7.1010	0	32.3590	0	25.326	0	67.519	0	-1e10	8	-1e10	8	-1E+10	1	-1E+10	1	-1E+10	1	-1E+10	1	-1E+10	1	-1E+10	1
4902554	84	C	06/05/2023	09:01	-132.783	47.681	0	68.90	0	7.0940	0	32.3590	0	25.327	0	68.312	0	-1e10	8	-1e10	8	-1E+10	1	-1E+10	1	-1E+10	1	-1E+10	1	-1E+10	1	-1E+10	1
4902554	84	C	06/05/2023	09:01	-132.783	47.681	0	69.70	0	7.0910	0	32.3590	0	25.328	0	69.105	0	-1e10	8	-1e10	8	-1E+10	1	-1E+10	1	-1E+10	1	-1E+10	1	-1E+10	1	-1E+10	1
4902554	84	C	06/05/2023	09:01	-132.783	47.681	0	70.80	0	7.0850	0	32.3600	0	25.329	0	70.196	0	-1e10	8	-1e10	8	-1E+10	1	-1E+10	1	-1E+10	1	-1E+10	1	-1E+10	1	-1E+10	1
4902554	84	C	06/05/2023	09:01	-132.783	47.681	0	71.80	0	7.0760	0	32.3600	0	25.331	0	71.187	0	-1e10	8	-1e10	8	-1E+10	1	-1E+10	1	-1E+10	1	-1E+10	1	-1E+10	1	-1E+10	1
4902554	84	C	06/05/2023	09:01	-132.783	47.681	0	72.90	0	7.0730	0	32.3610	0	25.332	0	72.278	0	-1e10	8	-1e10	8	-1E+10	1	-1E+10	1	-1E+10	1	-1E+10	1	-1E+10	1	-1E+10	1
4902554	84	C	06/05/2023	09:01	-132.783	47.681	0	74.00	0	7.0680	0	32.3610	0	25.332	0	73.368	0	-1e10	8	-1e10	8	-1E+10	1	-1E+10	1	-1E+10	1	-1E+10	1	-1E+10	1	-1E+10	1
4902554	84	C	06/05/2023	09:01	-132.783	47.681	0	75.10	0	7.0640	0	32.3610	0	25.333	0	74.458	0	-1e10	8	-1e10	8	-1E+10	1	-1E+10	1	-1E+10	1	-1E+10	1	-1E+10	1	-1E+10	1
4902554	84	C	06/05/2023	09:01	-132.783	47.681	0	75.90	0	7.0580	0	32.3620	0	25.335	0	75.251	0	-1e10	8	-1e10	8	-1E+10	1	-1E+10	1	-1E+10	1	-1E+10	1	-1E+10	1	-1E+10	1
4902554	84	C	06/05/2023	09:01	-132.783	47.681	0	76.70	0	7.0570	0	32.3630	0	25.336	0	76.044	0	-1e10	8	-1e10	8	-1E+10	1	-1E+10	1	-1E+10	1	-1E+10	1	-1E+10	1	-1E+10	1
4902554	84	C	06/05/2023	09:01	-132.783	47.681	0	77.80	0	7.0530	0	32.3630	0	25.336	0	77.135	0	-1e10	8	-1e10	8	-1E+10	1	-1E+10	1	-1E+10	1	-1E+10	1	-1E+10	1	-1E+10	1
4902554	84	C	06/05/2023	09:01	-132.783	47.681	0	78.90	0	7.0470	0	32.3630	0	25.337	0	78.225	0	-1e10	8	-1e10	8	-1E+10	1	-1E+10	1	-1E+10	1	-1E+10	1	-1E+10	1	-1E+10	1
4902554	84	C	06/05/2023	09:01	-132.783	47.681	0	80.00	0	7.0430	0	32.3630	0	25.337	0	79.316	0	-1e10	8	-1e10	8	-1E+10	1	-1E+10	1	-1E+10	1	-1E+10	1	-1E+10	1	-1E+10	1
4902554	84	C	06/05/2023	09:01	-132.783	47.681	0	81.10	0	7.0370	0	32.3640	0	25.339	0	80.406	0	-1e10	8	-1e10	8	-1E+10	1	-1E+10	1	-1E+10	1	-1E+10	1	-1E+10	1	-1E+10	1
4902554	84	C	06/05/2023	09:01	-132.783	47.681	0	81.90	0	7.0320	0	32.3640	0	25.340	0	81.199	0	-1e10	8	-1e10	8	-1E+10	1	-1E+10	1	-1E+10	1	-1E+10	1	-1E+10	1	-1E+10	1
4902554	84	C	06/05/2023	09:01	-132.783	47.681	0	82.70	0	7.0220	0	32.3650	0	25.342	0	81.992	0	-1e10	8	-1e10	8	-1E+10	1	-1E+10	1	-1E+10	1	-1E+10	1	-1E+10	1	-1E+10	1
4902554	84	C	06/05/2023	09:01	-132.783	47.681	0	83.80	0	7.0120	0	32.3650	0	25.343	0	83.082	0	-1e10	8	-1e10	8	-1E+10	1	-1E+10	1	-1E+10	1	-1E+10	1	-1E+10	1	-1E+10	1
4902554	84	C	06/05/2023	09:01	-132.783	47.681	0	84.90	0	7.0050	0	32.3670	0	25.346	0	84.173	0	-1e10	8	-1e10	8	-1E+10	1	-1E+10	1	-1E+10	1	-1E+10	1	-1E+10	1	-1E+10	1
4902554	84	C	06/05/2023	09:01	-132.783	47.681	0	86.00	0	7.0070	0	32.3690	0	25.347	0	85.263	0	-1e10	8	-1e10	8	-1E+10	1	-1E+10	1	-1E+10	1	-1E+10	1	-1E+10	1	-1E+10	1
4902554	84	C	06/05/2023	09:01	-132.783	47.681	0	87.00	0	6.9890	0	32.3710	0	25.351	0	86.254	0	-1e10	8	-1e10	8	-1E+10	1	-1E+10	1	-1E+10	1	-1E+10	1	-1E+10	1	-1E+10	1
4902554	84	C	06/05/2023	09:01	-132.783	47.681	0	88.10	0	6.9880	0	32.3730	0	25.353	0	87.345	0	-1e10	8	-1e10	8	-1E+10	1	-1E+10	1	-1E+10	1	-1E+10	1	-1E+10	1	-1E+10	1
4902554	84	C	06/05/2023	09:01	-132.783	47.681	0	89.10	0	6.9810	0	32.3760	0	25.356	0	88.336	0	-1e10	8	-1e10	8	-1E+10	1	-1E+10	1	-1E+10	1	-1E+10	1	-1E+10	1	-1E+10	1
4902554	84	C	06/05/2023	09:01	-132.783	47.681	0	90.10	0	6.9730	0	32.3810	0	25.361	0	89.327	0	-1e10	8	-1e10	8	-1E+10	1	-1E+10	1	-1E+10	1	-1E+10	1	-1E+10	1	-1E+10	1
4902554	84	C	06/05/2023	09:01	-132.783	47.681	0	91.10	0	6.9700	0	32.4000	0	25.376	0	90.318	0	-1e10	8	-1e10	8	-1E+10	1	-1E+10	1	-1E+10	1	-1E+10	1	-1E+10	1	-1E+10	1
4902554	84	C	06/05/2023	09:01	-132.783	47.681	0	92.10	0	6.9680	0	32.4140	0	25.388	0	91.309	0	-1e10	8	-1e10	8	-1E+10	1	-1E+10	1	-1E+10	1	-1E+10	1	-1E+10	1	-1E+10	1
4902554	84	C	06/05/2023	09:01	-132.783	47.681	0	93.00	0	6.9570	0	32.4220	0	25.395	0	92.202	0	-1e10	8	-1e10	8	-1E+10	1	-1E+10	1	-1E+10	1	-1E+10	1	-1E+10	1	-1E+10	1
4902554	84	C	06/05/2023	09:01	-132.783	47.681	0	93.70	0	6.9360	0	32.4340	0	25.408	0	92.895	0	-1e10	8	-1e10	8	-1E+10	1	-1E+10	1	-1E+10	1	-1E+10	1	-1E+10	1	-1E+10	1
4902554	84	C	06/05/2023	09:01	-132.783	47.681	0	94.80	0	6.9240	0	32.4440	0	25.417	0	93.986	0	-1e10	8	-1e10	8	-1E+10	1	-1E+10	1	-1E+10	1	-1E+10	1	-1E+10	1	-1E+10	1
4902554	84	C	06/05/2023	09:01	-132.783	47.681	0	95.80	0	6.9180	0	32.4530	0	25.425	0	94.977	0	-1e10	8	-1e10	8	-1E+10	1	-1E+10	1	-1E+10	1	-1E+10	1	-1E+10	1	-1E+10	1
4902554	84	C	06/05/2023	09:01	-132.783	47.681	0	96.80	0	6.9120	0	32.4680	0	25.438	0	95.968	0	-1e10	8	-1e10	8	-1E+10	1	-1E+10	1	-1E+10	1	-1E+10	1	-1E+10	1	-1E+10	1
4902554	84	C	06/05/2023	09:01	-132.783	47.681	0	98.00	0	6.9000	0	32.4840	0	25.452	0	97.157	0	-1e10	8	-1e10	8	-1E+10	1	-1E+10	1	-1E+10	1	-1E+10	1	-1E+10	1	-1E+10	1
4902554	84	C	06/05/2023	09:01	-132.783	47.681	0	99.00	0	6.8740	0	32.5190	0	25.483	0	98.149	0	-1e10	8	-1e10	8	-1E+10	1	-1E+10	1	-1E+10	1	-1E+10	1	-1E+10	1	-1E+10	1
4902554	84	C	06/05/2023	09:01	-132.783	47.681	0	100.00	0	6.8500	0	32.5480	0	25.509	0	99.140	0	-1e10	8	-1e10	8	-1E+10	1	-1E+10	1	-1E+10	1	-1E+10	1	-1E+10	1	-1E+10	1
4902554	84	C	06/05/2023	09:01	-132.783	47.681	0	100.90	0	6.8210	0	32.5790	0	25.537	0	100.032	0	-1e10	8	-1e10	8	-1E+10	1	-1E+10	1	-1E+10	1	-1E+10	1	-1E+10	1	-1E+10	1
4902554	84	C	06/05/2023	09:01	-132.783	47.681	0	101.80	0	6.8000	0	32.6060	0	25.561	0	100.924	0	-1e10	8	-1e10	8	-1E+10	1	-1E+10	1	-1E+10	1	-1E+10	1	-1E+10	1	-1E+10	1
4902554	84	C	06/05/2023	09:01	-132.783	47.681	0	102.90	0	6.7730	0	32.6410	0	25.592	0	102.014	0	-1e10	8	-1e10	8	-1E+10	1	-1E+10	1	-1E+10	1	-1E+10	1	-1E+10	1	-1E+10	1
4902554	84	C	06/05/2023	09:01	-132.783	47.681	0	104.10	0	6.7410	0	32.6810	0	25.628	0	103.203	0	-1e10	8	-1e10	8	-1E+10	1	-1E+10	1	-1E+10	1	-1E+10	1	-1E+10	1	-1E+10	1
4902554	84	C	06/05/2023	09:01	-132.783	47.681	0	104.90	0	6.7040	0	32.7230	0	25.666	0	103.996	0	-1e10	8	-1e10	8	-1E+10	1	-1E+10	1	-1E+10	1	-1E+10	1	-1E+10	1	-1E+10	1
4902554	84	C	06/05/2023	09:01	-132.783	47.681	0	106.10	0	6.6870	0	32.7410	0	25.682	0	105.186	0	-1e10	8	-1e10	8	-1E+10	1	-1E+10	1	-1E+10	1	-1E+10	1	-1E+10	1	-1E+10	1
4902554	84	C	06/05/2023	09:01	-132.783	47.681	0	107.30	0	6.6350	0	32.7930	0	25.730	0	106.375	0	-1e10	8	-1e10	8	-1E+10	1	-1E+10	1	-1E+10	1	-1E+10	1	-1E+10	1	-1E+10	1
4902554	84	C	06/05/2023	09:01	-132.783	47.681	0	108.00	0	6.6230	0	32.8030	0	25.740	0	107.069	0	-1e10	8	-1e10	8	-1E+10	1	-1E+10	1	-1E+10	1	-1E+10	1	-1E+10	1	-1E+10	1
4902554	84	C	06/05/2023	09:01	-132.783	47.681	0	108.90	0	6.6120	0	32.8130	0	25.749	0	107.961	0	-1e10	8	-1e10	8	-1E+10	1	-1E+10	1	-1E+10	1	-1E+10	1	-1E+10	1	-1E+10	1
4902554	84	C	06/05/2023	09:01	-132.783	47.681	0	109.90	0	6.6010	0	32.8230	0	25.758	0	108.952	0	-1e10	8	-1e10	8	-1E+10	1	-1E+10	1	-1E+10	1	-1E+10	1	-1E+10	1	-1E+10	1
4902554	84	C	06/05/2023	09:01	-132.783	47.681	0	110.80	0	6.5600	0	32.8640	0	25.796	0	109.844	0	-1e10	8	-1e10	8	-1E+10	1	-1E+10	1	-1E+10	1	-1E+10	1	-1E+10	1	-1E+10	1
4902554	84	C	06/05/2023	09:01	-132.783	47.681	0	111.90	0	6.5340	0	32.9170	0	25.841	0	110.934	0	-1e10	8	-1e10	8	-1E+10	1	-1E+10	1	-1E+10	1	-1E+10	1	-1E+10	1	-1E+10	1
4902554	84	C	06/05/2023	09:01	-132.783	47.681	0	113.00	0	6.4870	0	33.0110	0	25.921	0	112.024	0	-1e10	8	-1e10	8	-1E+10	1	-1E+10	1	-1E+10	1	-1E+10	1	-1E+10	1	-1E+10	1
4902554	84	C	06/05/2023	09:01	-132.783	47.681	0	114.10	0	6.4390	0	33.0700	0	25.974	0	113.115	0	-1e10	8	-1e10	8	-1E+10	1	-1E+10	1	-1E+10	1	-1E+10	1	-1E+10	1	-1E+10	1
4902554	84	C	06/05/2023	09:01	-132.783	47.681	0	115.00	0	6.4070	0	33.1030	0	26.004	0	114.007	0	-1e10	8	-1e10	8	-1E+10	1	-1E+10	1	-1E+10	1	-1E+10	1	-1E+10	1	-1E+10	1
4902554	84	C	06/05/2023	09:01	-132.783	47.681	0	116.00	0	6.3730	0	33.1330	0	26.032	0	114.998	0	-1e10	8	-1e10	8	-1E+10	1	-1E+10	1	-1E+10	1	-1E+10	1	-1E+10	1	-1E+10	1
4902554	84	C	06/05/2023	09:01	-132.783	47.681	0	117.00	0	6.3300	0	33.1760	0	26.071	0	115.989	0	-1e10	8	-1e10	8	-1E+10	1	-1E+10	1	-1E+10	1	-1E+10	1	-1E+10	1	-1E+10	1
4902554	84	C	06/05/2023	09:01	-132.783	47.681	0	118.00	0	6.2810	0	33.2240	0	26.116	0	116.980	0	-1e10	8	-1e10	8	-1E+10	1	-1E+10	1	-1E+10	1	-1E+10	1	-1E+10	1	-1E+10	1
4902554	84	C	06/05/2023	09:01	-132.783	47.681	0	119.10	0	6.2580	0	33.2540	0	26.142	0	118.070	0	-1e10	8	-1e10	8	-1E+10	1	-1E+10	1	-1E+10	1	-1E+10	1	-1E+10	1	-1E+10	1
4902554	84	C	06/05/2023	09:01	-132.783	47.681	0	120.00	0	6.2570	0	33.2550	0	26.143	0	118.962	0	-1e10	8	-1e10	8	-1E+10	1	-1E+10	1	-1E+10	1	-1E+10	1	-1E+10	1	-1E+10	1
4902554	84	C	06/05/2023	09:01	-132.783	47.681	0	121.00	0	6.2540	0	33.2590	0	26.147	0	119.953	0	-1e10	8	-1e10	8	-1E+10	1	-1E+10	1	-1E+10	1	-1E+10	1	-1E+10	1	-1E+10	1
4902554	84	C	06/05/2023	09:01	-132.783	47.681	0	122.00	0	6.2540	0	33.2630	0	26.150	0	120.944	0	-1e10	8	-1e10	8	-1E+10	1	-1E+10	1	-1E+10	1	-1E+10	1	-1E+10	1	-1E+10	1
4902554	84	C	06/05/2023	09:01	-132.783	47.681	0	123.10	0	6.2570	0	33.2780	0	26.161	0	122.034	0	-1e10	8	-1e10	8	-1E+10	1	-1E+10	1	-1E+10	1	-1E+10	1	-1E+10	1	-1E+10	1
4902554	84	C	06/05/2023	09:01	-132.783	47.681	0	123.80	0	6.2520	0	33.2850	0	26.167	0	122.728	0	-1e10	8	-1e10	8	-1E+10	1	-1E+10	1	-1E+10	1	-1E+10	1	-1E+10	1	-1E+10	1
4902554	84	C	06/05/2023	09:01	-132.783	47.681	0	124.80	0	6.2270	0	33.3060	0	26.187	0	123.719	0	-1e10	8	-1e10	8	-1E+10	1	-1E+10	1	-1E+10	1	-1E+10	1	-1E+10	1	-1E+10	1
4902554	84	C	06/05/2023	09:01	-132.783	47.681	0	125.90	0	6.2060	0	33.3220	0	26.203	0	124.809	0	-1e10	8	-1e10	8	-1E+10	1	-1E+10	1	-1E+10	1	-1E+10	1	-1E+10	1	-1E+10	1
4902554	84	C	06/05/2023	09:01	-132.783	47.681	0	126.70	0	6.1930	0	33.3470	0	26.224	0	125.602	0	-1e10	8	-1e10	8	-1E+10	1	-1E+10	1	-1E+10	1	-1E+10	1	-1E+10	1	-1E+10	1
4902554	84	C	06/05/2023	09:01	-132.783	47.681	0	127.90	0	6.1800	0	33.3550	0	26.232	0	126.791	0	-1e10	8	-1e10	8	-1E+10	1	-1E+10	1	-1E+10	1	-1E+10	1	-1E+10	1	-1E+10	1
4902554	84	C	06/05/2023	09:01	-132.783	47.681	0	129.10	0	6.1460	0	33.3770	0	26.254	0	127.980	0	-1e10	8	-1e10	8	-1E+10	1	-1E+10	1	-1E+10	1	-1E+10	1	-1E+10	1	-1E+10	1
4902554	84	C	06/05/2023	09:01	-132.783	47.681	0	129.90	0	6.1300	0	33.3860	0	26.263	0	128.773	0	-1e10	8	-1e10	8	-1E+10	1	-1E+10	1	-1E+10	1	-1E+10	1	-1E+10	1	-1E+10	1
4902554	84	C	06/05/2023	09:01	-132.783	47.681	0	130.80	0	6.1240	0	33.3900	0	26.267	0	129.665	0	-1e10	8	-1e10	8	-1E+10	1	-1E+10	1	-1E+10	1	-1E+10	1	-1E+10	1	-1E+10	1
4902554	84	C	06/05/2023	09:01	-132.783	47.681	0	131.70	0	6.1120	0	33.3960	0	26.273	0	130.557	0	-1e10	8	-1e10	8	-1E+10	1	-1E+10	1	-1E+10	1	-1E+10	1	-1E+10	1	-1E+10	1
4902554	84	C	06/05/2023	09:01	-132.783	47.681	0	132.60	0	6.1030	0	33.4020	0	26.279	0	131.449	0	-1e10	8	-1e10	8	-1E+10	1	-1E+10	1	-1E+10	1	-1E+10	1	-1E+10	1	-1E+10	1
4902554	84	C	06/05/2023	09:01	-132.783	47.681	0	133.90	0	6.0870	0	33.4110	0	26.288	0	132.737	0	-1e10	8	-1e10	8	-1E+10	1	-1E+10	1	-1E+10	1	-1E+10	1	-1E+10	1	-1E+10	1
4902554	84	C	06/05/2023	09:01	-132.783	47.681	0	135.30	0	6.0380	0	33.4370	0	26.314	0	134.125	0	-1e10	8	-1e10	8	-1E+10	1	-1E+10	1	-1E+10	1	-1E+10	1	-1E+10	1	-1E+10	1
4902554	84	C	06/05/2023	09:01	-132.783	47.681	0	136.20	0	5.9930	0	33.4530	0	26.333	0	135.016	0	-1e10	8	-1e10	8	-1E+10	1	-1E+10	1	-1E+10	1	-1E+10	1	-1E+10	1	-1E+10	1
4902554	84	C	06/05/2023	09:01	-132.783	47.681	0	137.20	0	5.9870	0	33.4590	0	26.338	0	136.007	0	-1e10	8	-1e10	8	-1E+10	1	-1E+10	1	-1E+10	1	-1E+10	1	-1E+10	1	-1E+10	1
4902554	84	C	06/05/2023	09:01	-132.783	47.681	0	138.10	0	5.9810	0	33.4620	0	26.341	0	136.899	0	-1e10	8	-1e10	8	-1E+10	1	-1E+10	1	-1E+10	1	-1E+10	1	-1E+10	1	-1E+10	1
4902554	84	C	06/05/2023	09:01	-132.783	47.681	0	139.10	0	5.9710	0	33.4680	0	26.347	0	137.890	0	-1e10	8	-1e10	8	-1E+10	1	-1E+10	1	-1E+10	1	-1E+10	1	-1E+10	1	-1E+10	1
4902554	84	C	06/05/2023	09:01	-132.783	47.681	0	140.00	0	5.9670	0	33.4760	0	26.354	0	138.782	0	-1e10	8	-1e10	8	-1E+10	1	-1E+10	1	-1E+10	1	-1E+10	1	-1E+10	1	-1E+10	1
4902554	84	C	06/05/2023	09:01	-132.783	47.681	0	141.00	0	5.9640	0	33.4810	0	26.358	0	139.773	0	-1e10	8	-1e10	8	-1E+10	1	-1E+10	1	-1E+10	1	-1E+10	1	-1E+10	1	-1E+10	1
4902554	84	C	06/05/2023	09:01	-132.783	47.681	0	141.90	0	5.9580	0	33.4860	0	26.363	0	140.665	0	-1e10	8	-1e10	8	-1E+10	1	-1E+10	1	-1E+10	1	-1E+10	1	-1E+10	1	-1E+10	1
4902554	84	C	06/05/2023	09:01	-132.783	47.681	0	142.90	0	5.9550	0	33.4880	0	26.365	0	141.656	0	-1e10	8	-1e10	8	-1E+10	1	-1E+10	1	-1E+10	1	-1E+10	1	-1E+10	1	-1E+10	1
4902554	84	C	06/05/2023	09:01	-132.783	47.681	0	143.90	0	5.9410	0	33.4940	0	26.372	0	142.647	0	-1e10	8	-1e10	8	-1E+10	1	-1E+10	1	-1E+10	1	-1E+10	1	-1E+10	1	-1E+10	1
4902554	84	C	06/05/2023	09:01	-132.783	47.681	0	144.80	0	5.9330	0	33.4960	0	26.374	0	143.539	0	-1e10	8	-1e10	8	-1E+10	1	-1E+10	1	-1E+10	1	-1E+10	1	-1E+10	1	-1E+10	1
4902554	84	C	06/05/2023	09:01	-132.783	47.681	0	145.80	0	5.9330	0	33.4950	0	26.373	0	144.530	0	-1e10	8	-1e10	8	-1E+10	1	-1E+10	1	-1E+10	1	-1E+10	1	-1E+10	1	-1E+10	1
4902554	84	C	06/05/2023	09:01	-132.783	47.681	0	146.80	0	5.8990	0	33.5060	0	26.386	0	145.521	0	-1e10	8	-1e10	8	-1E+10	1	-1E+10	1	-1E+10	1	-1E+10	1	-1E+10	1	-1E+10	1
4902554	84	C	06/05/2023	09:01	-132.783	47.681	0	147.80	0	5.8690	0	33.5200	0	26.401	0	146.512	0	-1e10	8	-1e10	8	-1E+10	1	-1E+10	1	-1E+10	1	-1E+10	1	-1E+10	1	-1E+10	1
4902554	84	C	06/05/2023	09:01	-132.783	47.681	0	148.80	0	5.8500	0	33.5240	0	26.407	0	147.502	0	-1e10	8	-1e10	8	-1E+10	1	-1E+10	1	-1E+10	1	-1E+10	1	-1E+10	1	-1E+10	1
4902554	84	C	06/05/2023	09:01	-132.783	47.681	0	149.90	0	5.8070	0	33.5440	0	26.428	0	148.592	0	-1e10	8	-1e10	8	-1E+10	1	-1E+10	1	-1E+10	1	-1E+10	1	-1E+10	1	-1E+10	1
4902554	84	C	06/05/2023	09:01	-132.783	47.681	0	150.90	0	5.7920	0	33.5490	0	26.433	0	149.583	0	-1e10	8	-1e10	8	-1E+10	1	-1E+10	1	-1E+10	1	-1E+10	1	-1E+10	1	-1E+10	1
4902554	84	C	06/05/2023	09:01	-132.783	47.681	0	151.90	0	5.7860	0	33.5500	0	26.435	0	150.574	0	-1e10	8	-1e10	8	-1E+10	1	-1E+10	1	-1E+10	1	-1E+10	1	-1E+10	1	-1E+10	1
4902554	84	C	06/05/2023	09:01	-132.783	47.681	0	153.00	0	5.7820	0	33.5520	0	26.437	0	151.664	0	-1e10	8	-1e10	8	-1E+10	1	-1E+10	1	-1E+10	1	-1E+10	1	-1E+10	1	-1E+10	1
4902554	84	C	06/05/2023	09:01	-132.783	47.681	0	154.00	0	5.7790	0	33.5540	0	26.439	0	152.655	0	-1e10	8	-1e10	8	-1E+10	1	-1E+10	1	-1E+10	1	-1E+10	1	-1E+10	1	-1E+10	1
4902554	84	C	06/05/2023	09:01	-132.783	47.681	0	155.00	0	5.7770	0	33.5550	0	26.440	0	153.646	0	-1e10	8	-1e10	8	-1E+10	1	-1E+10	1	-1E+10	1	-1E+10	1	-1E+10	1	-1E+10	1
4902554	84	C	06/05/2023	09:01	-132.783	47.681	0	156.10	0	5.7740	0	33.5570	0	26.442	0	154.736	0	-1e10	8	-1e10	8	-1E+10	1	-1E+10	1	-1E+10	1	-1E+10	1	-1E+10	1	-1E+10	1
4902554	84	C	06/05/2023	09:01	-132.783	47.681	0	157.10	0	5.7700	0	33.5620	0	26.446	0	155.727	0	-1e10	8	-1e10	8	-1E+10	1	-1E+10	1	-1E+10	1	-1E+10	1	-1E+10	1	-1E+10	1
4902554	84	C	06/05/2023	09:01	-132.783	47.681	0	158.10	0	5.7630	0	33.5660	0	26.451	0	156.718	0	-1e10	8	-1e10	8	-1E+10	1	-1E+10	1	-1E+10	1	-1E+10	1	-1E+10	1	-1E+10	1
4902554	84	C	06/05/2023	09:01	-132.783	47.681	0	159.20	0	5.7490	0	33.5750	0	26.459	0	157.808	0	-1e10	8	-1e10	8	-1E+10	1	-1E+10	1	-1E+10	1	-1E+10	1	-1E+10	1	-1E+10	1
4902554	84	C	06/05/2023	09:01	-132.783	47.681	0	160.20	0	5.7490	0	33.5830	0	26.466	0	158.799	0	-1e10	8	-1e10	8	-1E+10	1	-1E+10	1	-1E+10	1	-1E+10	1	-1E+10	1	-1E+10	1
4902554	84	C	06/05/2023	09:01	-132.783	47.681	0	161.30	0	5.7460	0	33.5850	0	26.468	0	159.889	0	-1e10	8	-1e10	8	-1E+10	1	-1E+10	1	-1E+10	1	-1E+10	1	-1E+10	1	-1E+10	1
4902554	84	C	06/05/2023	09:01	-132.783	47.681	0	162.30	0	5.7380	0	33.5900	0	26.473	0	160.880	0	-1e10	8	-1e10	8	-1E+10	1	-1E+10	1	-1E+10	1	-1E+10	1	-1E+10	1	-1E+10	1
4902554	84	C	06/05/2023	09:01	-132.783	47.681	0	163.40	0	5.7340	0	33.5910	0	26.474	0	161.969	0	-1e10	8	-1e10	8	-1E+10	1	-1E+10	1	-1E+10	1	-1E+10	1	-1E+10	1	-1E+10	1
4902554	84	C	06/05/2023	09:01	-132.783	47.681	0	164.40	0	5.7240	0	33.5960	0	26.479	0	162.960	0	-1e10	8	-1e10	8	-1E+10	1	-1E+10	1	-1E+10	1	-1E+10	1	-1E+10	1	-1E+10	1
4902554	84	C	06/05/2023	09:01	-132.783	47.681	0	165.50	0	5.7090	0	33.6090	0	26.491	0	164.050	0	-1e10	8	-1e10	8	-1E+10	1	-1E+10	1	-1E+10	1	-1E+10	1	-1E+10	1	-1E+10	1
4902554	84	C	06/05/2023	09:01	-132.783	47.681	0	166.50	0	5.7100	0	33.6100	0	26.492	0	165.041	0	-1e10	8	-1e10	8	-1E+10	1	-1E+10	1	-1E+10	1	-1E+10	1	-1E+10	1	-1E+10	1
4902554	84	C	06/05/2023	09:01	-132.783	47.681	0	167.60	0	5.7120	0	33.6120	0	26.493	0	166.131	0	-1e10	8	-1e10	8	-1E+10	1	-1E+10	1	-1E+10	1	-1E+10	1	-1E+10	1	-1E+10	1
4902554	84	C	06/05/2023	09:01	-132.783	47.681	0	168.70	0	5.7180	0	33.6140	0	26.494	0	167.221	0	-1e10	8	-1e10	8	-1E+10	1	-1E+10	1	-1E+10	1	-1E+10	1	-1E+10	1	-1E+10	1
4902554	84	C	06/05/2023	09:01	-132.783	47.681	0	169.70	0	5.7260	0	33.6170	0	26.495	0	168.212	0	-1e10	8	-1e10	8	-1E+10	1	-1E+10	1	-1E+10	1	-1E+10	1	-1E+10	1	-1E+10	1
4902554	84	C	06/05/2023	09:01	-132.783	47.681	0	170.80	0	5.7190	0	33.6230	0	26.501	0	169.302	0	-1e10	8	-1e10	8	-1E+10	1	-1E+10	1	-1E+10	1	-1E+10	1	-1E+10	1	-1E+10	1
4902554	84	C	06/05/2023	09:01	-132.783	47.681	0	171.90	0	5.6970	0	33.6280	0	26.508	0	170.392	0	-1e10	8	-1e10	8	-1E+10	1	-1E+10	1	-1E+10	1	-1E+10	1	-1E+10	1	-1E+10	1
4902554	84	C	06/05/2023	09:01	-132.783	47.681	0	172.90	0	5.6840	0	33.6360	0	26.516	0	171.382	0	-1e10	8	-1e10	8	-1E+10	1	-1E+10	1	-1E+10	1	-1E+10	1	-1E+10	1	-1E+10	1
4902554	84	C	06/05/2023	09:01	-132.783	47.681	0	174.00	0	5.6740	0	33.6430	0	26.522	0	172.472	0	-1e10	8	-1e10	8	-1E+10	1	-1E+10	1	-1E+10	1	-1E+10	1	-1E+10	1	-1E+10	1
4902554	84	C	06/05/2023	09:01	-132.783	47.681	0	175.00	0	5.6690	0	33.6490	0	26.528	0	173.463	0	-1e10	8	-1e10	8	-1E+10	1	-1E+10	1	-1E+10	1	-1E+10	1	-1E+10	1	-1E+10	1
4902554	84	C	06/05/2023	09:01	-132.783	47.681	0	176.10	0	5.6680	0	33.6510	0	26.529	0	174.553	0	-1e10	8	-1e10	8	-1E+10	1	-1E+10	1	-1E+10	1	-1E+10	1	-1E+10	1	-1E+10	1
4902554	84	C	06/05/2023	09:01	-132.783	47.681	0	177.20	0	5.6660	0	33.6550	0	26.533	0	175.643	0	-1e10	8	-1e10	8	-1E+10	1	-1E+10	1	-1E+10	1	-1E+10	1	-1E+10	1	-1E+10	1
4902554	84	C	06/05/2023	09:01	-132.783	47.681	0	178.20	0	5.6610	0	33.6610	0	26.538	0	176.634	0	-1e10	8	-1e10	8	-1E+10	1	-1E+10	1	-1E+10	1	-1E+10	1	-1E+10	1	-1E+10	1
4902554	84	C	06/05/2023	09:01	-132.783	47.681	0	179.30	0	5.6590	0	33.6700	0	26.546	0	177.723	0	-1e10	8	-1e10	8	-1E+10	1	-1E+10	1	-1E+10	1	-1E+10	1	-1E+10	1	-1E+10	1
4902554	84	C	06/05/2023	09:01	-132.783	47.681	0	180.40	0	5.6490	0	33.6720	0	26.548	0	178.813	0	-1e10	8	-1e10	8	-1E+10	1	-1E+10	1	-1E+10	1	-1E+10	1	-1E+10	1	-1E+10	1
4902554	84	C	06/05/2023	09:01	-132.783	47.681	0	181.50	0	5.6440	0	33.6780	0	26.554	0	179.903	0	-1e10	8	-1e10	8	-1E+10	1	-1E+10	1	-1E+10	1	-1E+10	1	-1E+10	1	-1E+10	1
4902554	84	C	06/05/2023	09:01	-132.783	47.681	0	182.60	0	5.6430	0	33.6790	0	26.555	0	180.993	0	-1e10	8	-1e10	8	-1E+10	1	-1E+10	1	-1E+10	1	-1E+10	1	-1E+10	1	-1E+10	1
4902554	84	C	06/05/2023	09:01	-132.783	47.681	0	183.60	0	5.6430	0	33.6800	0	26.555	0	181.984	0	-1e10	8	-1e10	8	-1E+10	1	-1E+10	1	-1E+10	1	-1E+10	1	-1E+10	1	-1E+10	1
4902554	84	C	06/05/2023	09:01	-132.783	47.681	0	184.70	0	5.6430	0	33.6810	0	26.556	0	183.074	0	-1e10	8	-1e10	8	-1E+10	1	-1E+10	1	-1E+10	1	-1E+10	1	-1E+10	1	-1E+10	1
4902554	84	C	06/05/2023	09:01	-132.783	47.681	0	185.70	0	5.6420	0	33.6830	0	26.558	0	184.064	0	-1e10	8	-1e10	8	-1E+10	1	-1E+10	1	-1E+10	1	-1E+10	1	-1E+10	1	-1E+10	1
4902554	84	C	06/05/2023	09:01	-132.783	47.681	0	186.80	0	5.6410	0	33.6850	0	26.560	0	185.154	0	-1e10	8	-1e10	8	-1E+10	1	-1E+10	1	-1E+10	1	-1E+10	1	-1E+10	1	-1E+10	1
4902554	84	C	06/05/2023	09:01	-132.783	47.681	0	187.90	0	5.6400	0	33.6890	0	26.563	0	186.244	0	-1e10	8	-1e10	8	-1E+10	1	-1E+10	1	-1E+10	1	-1E+10	1	-1E+10	1	-1E+10	1
4902554	84	C	06/05/2023	09:01	-132.783	47.681	0	188.90	0	5.6380	0	33.6910	0	26.565	0	187.235	0	-1e10	8	-1e10	8	-1E+10	1	-1E+10	1	-1E+10	1	-1E+10	1	-1E+10	1	-1E+10	1
4902554	84	C	06/05/2023	09:01	-132.783	47.681	0	190.00	0	5.6340	0	33.6920	0	26.566	0	188.324	0	-1e10	8	-1e10	8	-1E+10	1	-1E+10	1	-1E+10	1	-1E+10	1	-1E+10	1	-1E+10	1
4902554	84	C	06/05/2023	09:01	-132.783	47.681	0	191.10	0	5.6270	0	33.6960	0	26.570	0	189.414	0	-1e10	8	-1e10	8	-1E+10	1	-1E+10	1	-1E+10	1	-1E+10	1	-1E+10	1	-1E+10	1
4902554	84	C	06/05/2023	09:01	-132.783	47.681	0	192.10	0	5.6240	0	33.6980	0	26.572	0	190.405	0	-1e10	8	-1e10	8	-1E+10	1	-1E+10	1	-1E+10	1	-1E+10	1	-1E+10	1	-1E+10	1
4902554	84	C	06/05/2023	09:01	-132.783	47.681	0	193.20	0	5.6220	0	33.6980	0	26.572	0	191.495	0	-1e10	8	-1e10	8	-1E+10	1	-1E+10	1	-1E+10	1	-1E+10	1	-1E+10	1	-1E+10	1
4902554	84	C	06/05/2023	09:01	-132.783	47.681	0	194.30	0	5.6210	0	33.7000	0	26.574	0	192.585	0	-1e10	8	-1e10	8	-1E+10	1	-1E+10	1	-1E+10	1	-1E+10	1	-1E+10	1	-1E+10	1
4902554	84	C	06/05/2023	09:01	-132.783	47.681	0	195.30	0	5.6190	0	33.7040	0	26.577	0	193.575	0	-1e10	8	-1e10	8	-1E+10	1	-1E+10	1	-1E+10	1	-1E+10	1	-1E+10	1	-1E+10	1
4902554	84	C	06/05/2023	09:01	-132.783	47.681	0	196.40	0	5.6090	0	33.7070	0	26.581	0	194.665	0	-1e10	8	-1e10	8	-1E+10	1	-1E+10	1	-1E+10	1	-1E+10	1	-1E+10	1	-1E+10	1
4902554	84	C	06/05/2023	09:01	-132.783	47.681	0	197.40	0	5.6060	0	33.7060	0	26.581	0	195.656	0	-1e10	8	-1e10	8	-1E+10	1	-1E+10	1	-1E+10	1	-1E+10	1	-1E+10	1	-1E+10	1
4902554	84	C	06/05/2023	09:01	-132.783	47.681	0	198.50	0	5.6070	0	33.7070	0	26.581	0	196.745	0	-1e10	8	-1e10	8	-1E+10	1	-1E+10	1	-1E+10	1	-1E+10	1	-1E+10	1	-1E+10	1
4902554	84	C	06/05/2023	09:01	-132.783	47.681	0	199.50	0	5.6120	0	33.7080	0	26.581	0	197.736	0	-1e10	8	-1e10	8	-1E+10	1	-1E+10	1	-1E+10	1	-1E+10	1	-1E+10	1	-1E+10	1
4902554	84	C	06/05/2023	09:01	-132.783	47.681	0	200.60	0	5.6050	0	33.7120	0	26.585	0	198.826	0	-1e10	8	-1e10	8	-1E+10	1	-1E+10	1	-1E+10	1	-1E+10	1	-1E+10	1	-1E+10	1
4902554	84	C	06/05/2023	09:01	-132.783	47.681	0	201.60	0	5.5910	0	33.7130	0	26.588	0	199.817	0	-1e10	8	-1e10	8	-1E+10	1	-1E+10	1	-1E+10	1	-1E+10	1	-1E+10	1	-1E+10	1
4902554	84	C	06/05/2023	09:01	-132.783	47.681	0	202.50	0	5.5880	0	33.7180	0	26.592	0	200.708	0	-1e10	8	-1e10	8	-1E+10	1	-1E+10	1	-1E+10	1	-1E+10	1	-1E+10	1	-1E+10	1
4902554	84	C	06/05/2023	09:01	-132.783	47.681	0	203.80	0	5.5890	0	33.7260	0	26.599	0	201.996	0	-1e10	8	-1e10	8	-1E+10	1	-1E+10	1	-1E+10	1	-1E+10	1	-1E+10	1	-1E+10	1
4902554	84	C	06/05/2023	09:01	-132.783	47.681	0	205.00	0	5.5950	0	33.7320	0	26.603	0	203.185	0	-1e10	8	-1e10	8	-1E+10	1	-1E+10	1	-1E+10	1	-1E+10	1	-1E+10	1	-1E+10	1
4902554	84	C	06/05/2023	09:01	-132.783	47.681	0	205.70	0	5.5960	0	33.7310	0	26.602	0	203.878	0	-1e10	8	-1e10	8	-1E+10	1	-1E+10	1	-1E+10	1	-1E+10	1	-1E+10	1	-1E+10	1
4902554	84	C	06/05/2023	09:01	-132.783	47.681	0	206.90	0	5.5930	0	33.7340	0	26.604	0	205.067	0	-1e10	8	-1e10	8	-1E+10	1	-1E+10	1	-1E+10	1	-1E+10	1	-1E+10	1	-1E+10	1
4902554	84	C	06/05/2023	09:01	-132.783	47.681	0	208.10	0	5.5890	0	33.7340	0	26.605	0	206.256	0	-1e10	8	-1e10	8	-1E+10	1	-1E+10	1	-1E+10	1	-1E+10	1	-1E+10	1	-1E+10	1
4902554	84	C	06/05/2023	09:01	-132.783	47.681	0	208.90	0	5.5650	0	33.7430	0	26.615	0	207.048	0	-1e10	8	-1e10	8	-1E+10	1	-1E+10	1	-1E+10	1	-1E+10	1	-1E+10	1	-1E+10	1
4902554	84	C	06/05/2023	09:01	-132.783	47.681	0	209.70	0	5.5550	0	33.7350	0	26.610	0	207.841	0	-1e10	8	-1e10	8	-1E+10	1	-1E+10	1	-1E+10	1	-1E+10	1	-1E+10	1	-1E+10	1
4902554	84	C	06/05/2023	09:01	-132.783	47.681	0	210.90	0	5.5480	0	33.7360	0	26.611	0	209.030	0	-1e10	8	-1e10	8	-1E+10	1	-1E+10	1	-1E+10	1	-1E+10	1	-1E+10	1	-1E+10	1
4902554	84	C	06/05/2023	09:01	-132.783	47.681	0	212.10	0	5.5200	0	33.7400	0	26.618	0	210.218	0	-1e10	8	-1e10	8	-1E+10	1	-1E+10	1	-1E+10	1	-1E+10	1	-1E+10	1	-1E+10	1
4902554	84	C	06/05/2023	09:01	-132.783	47.681	0	212.90	0	5.5130	0	33.7410	0	26.620	0	211.011	0	-1e10	8	-1e10	8	-1E+10	1	-1E+10	1	-1E+10	1	-1E+10	1	-1E+10	1	-1E+10	1
4902554	84	C	06/05/2023	09:01	-132.783	47.681	0	213.80	0	5.5070	0	33.7420	0	26.621	0	211.902	0	-1e10	8	-1e10	8	-1E+10	1	-1E+10	1	-1E+10	1	-1E+10	1	-1E+10	1	-1E+10	1
4902554	84	C	06/05/2023	09:01	-132.783	47.681	0	215.00	0	5.4940	0	33.7420	0	26.623	0	213.091	0	-1e10	8	-1e10	8	-1E+10	1	-1E+10	1	-1E+10	1	-1E+10	1	-1E+10	1	-1E+10	1
4902554	84	C	06/05/2023	09:01	-132.783	47.681	0	216.20	0	5.4610	0	33.7480	0	26.631	0	214.280	0	-1e10	8	-1e10	8	-1E+10	1	-1E+10	1	-1E+10	1	-1E+10	1	-1E+10	1	-1E+10	1
4902554	84	C	06/05/2023	09:01	-132.783	47.681	0	217.00	0	5.4450	0	33.7460	0	26.632	0	215.072	0	-1e10	8	-1e10	8	-1E+10	1	-1E+10	1	-1E+10	1	-1E+10	1	-1E+10	1	-1E+10	1
4902554	84	C	06/05/2023	09:01	-132.783	47.681	0	217.90	0	5.4370	0	33.7480	0	26.634	0	215.964	0	-1e10	8	-1e10	8	-1E+10	1	-1E+10	1	-1E+10	1	-1E+10	1	-1E+10	1	-1E+10	1
4902554	84	C	06/05/2023	09:01	-132.783	47.681	0	218.70	0	5.4250	0	33.7490	0	26.636	0	216.756	0	-1e10	8	-1e10	8	-1E+10	1	-1E+10	1	-1E+10	1	-1E+10	1	-1E+10	1	-1E+10	1
4902554	84	C	06/05/2023	09:01	-132.783	47.681	0	219.90	0	5.4160	0	33.7510	0	26.639	0	217.945	0	-1e10	8	-1e10	8	-1E+10	1	-1E+10	1	-1E+10	1	-1E+10	1	-1E+10	1	-1E+10	1
4902554	84	C	06/05/2023	09:01	-132.783	47.681	0	221.10	0	5.3740	0	33.7610	0	26.652	0	219.134	0	-1e10	8	-1e10	8	-1E+10	1	-1E+10	1	-1E+10	1	-1E+10	1	-1E+10	1	-1E+10	1
4902554	84	C	06/05/2023	09:01	-132.783	47.681	0	222.00	0	5.3550	0	33.7620	0	26.655	0	220.025	0	-1e10	8	-1e10	8	-1E+10	1	-1E+10	1	-1E+10	1	-1E+10	1	-1E+10	1	-1E+10	1
4902554	84	C	06/05/2023	09:01	-132.783	47.681	0	222.80	0	5.3510	0	33.7610	0	26.655	0	220.818	0	-1e10	8	-1e10	8	-1E+10	1	-1E+10	1	-1E+10	1	-1E+10	1	-1E+10	1	-1E+10	1
4902554	84	C	06/05/2023	09:01	-132.783	47.681	0	224.00	0	5.3460	0	33.7610	0	26.655	0	222.006	0	-1e10	8	-1e10	8	-1E+10	1	-1E+10	1	-1E+10	1	-1E+10	1	-1E+10	1	-1E+10	1
4902554	84	C	06/05/2023	09:01	-132.783	47.681	0	225.30	0	5.3450	0	33.7620	0	26.656	0	223.294	0	-1e10	8	-1e10	8	-1E+10	1	-1E+10	1	-1E+10	1	-1E+10	1	-1E+10	1	-1E+10	1
4902554	84	C	06/05/2023	09:01	-132.783	47.681	0	226.10	0	5.3420	0	33.7620	0	26.657	0	224.087	0	-1e10	8	-1e10	8	-1E+10	1	-1E+10	1	-1E+10	1	-1E+10	1	-1E+10	1	-1E+10	1
4902554	84	C	06/05/2023	09:01	-132.783	47.681	0	226.90	0	5.3410	0	33.7610	0	26.656	0	224.879	0	-1e10	8	-1e10	8	-1E+10	1	-1E+10	1	-1E+10	1	-1E+10	1	-1E+10	1	-1E+10	1
4902554	84	C	06/05/2023	09:01	-132.783	47.681	0	227.80	0	5.3400	0	33.7610	0	26.656	0	225.770	0	-1e10	8	-1e10	8	-1E+10	1	-1E+10	1	-1E+10	1	-1E+10	1	-1E+10	1	-1E+10	1
4902554	84	C	06/05/2023	09:01	-132.783	47.681	0	228.60	0	5.3320	0	33.7620	0	26.658	0	226.563	0	-1e10	8	-1e10	8	-1E+10	1	-1E+10	1	-1E+10	1	-1E+10	1	-1E+10	1	-1E+10	1
4902554	84	C	06/05/2023	09:01	-132.783	47.681	0	229.90	0	5.2880	0	33.7650	0	26.665	0	227.851	0	-1e10	8	-1e10	8	-1E+10	1	-1E+10	1	-1E+10	1	-1E+10	1	-1E+10	1	-1E+10	1
4902554	84	C	06/05/2023	09:01	-132.783	47.681	0	231.20	0	5.2730	0	33.7660	0	26.668	0	229.138	0	-1e10	8	-1e10	8	-1E+10	1	-1E+10	1	-1E+10	1	-1E+10	1	-1E+10	1	-1E+10	1
4902554	84	C	06/05/2023	09:01	-132.783	47.681	0	232.00	0	5.2520	0	33.7670	0	26.671	0	229.931	0	-1e10	8	-1e10	8	-1E+10	1	-1E+10	1	-1E+10	1	-1E+10	1	-1E+10	1	-1E+10	1
4902554	84	C	06/05/2023	09:01	-132.783	47.681	0	232.90	0	5.2260	0	33.7670	0	26.674	0	230.822	0	-1e10	8	-1e10	8	-1E+10	1	-1E+10	1	-1E+10	1	-1E+10	1	-1E+10	1	-1E+10	1
4902554	84	C	06/05/2023	09:01	-132.783	47.681	0	233.70	0	5.2140	0	33.7680	0	26.676	0	231.615	0	-1e10	8	-1e10	8	-1E+10	1	-1E+10	1	-1E+10	1	-1E+10	1	-1E+10	1	-1E+10	1
4902554	84	C	06/05/2023	09:01	-132.783	47.681	0	234.60	0	5.1840	0	33.7670	0	26.679	0	232.506	0	-1e10	8	-1e10	8	-1E+10	1	-1E+10	1	-1E+10	1	-1E+10	1	-1E+10	1	-1E+10	1
4902554	84	C	06/05/2023	09:01	-132.783	47.681	0	235.90	0	5.1680	0	33.7660	0	26.680	0	233.794	0	-1e10	8	-1e10	8	-1E+10	1	-1E+10	1	-1E+10	1	-1E+10	1	-1E+10	1	-1E+10	1
4902554	84	C	06/05/2023	09:01	-132.783	47.681	0	237.20	0	5.1430	0	33.7710	0	26.687	0	235.081	0	-1e10	8	-1e10	8	-1E+10	1	-1E+10	1	-1E+10	1	-1E+10	1	-1E+10	1	-1E+10	1
4902554	84	C	06/05/2023	09:01	-132.783	47.681	0	238.10	0	5.1320	0	33.7710	0	26.688	0	235.973	0	-1e10	8	-1e10	8	-1E+10	1	-1E+10	1	-1E+10	1	-1E+10	1	-1E+10	1	-1E+10	1
4902554	84	C	06/05/2023	09:01	-132.783	47.681	0	239.00	0	5.1050	0	33.7680	0	26.689	0	236.864	0	-1e10	8	-1e10	8	-1E+10	1	-1E+10	1	-1E+10	1	-1E+10	1	-1E+10	1	-1E+10	1
4902554	84	C	06/05/2023	09:01	-132.783	47.681	0	239.80	0	5.0980	0	33.7690	0	26.690	0	237.657	0	-1e10	8	-1e10	8	-1E+10	1	-1E+10	1	-1E+10	1	-1E+10	1	-1E+10	1	-1E+10	1
4902554	84	C	06/05/2023	09:01	-132.783	47.681	0	240.70	0	5.0750	0	33.7730	0	26.696	0	238.548	0	-1e10	8	-1e10	8	-1E+10	1	-1E+10	1	-1E+10	1	-1E+10	1	-1E+10	1	-1E+10	1
4902554	84	C	06/05/2023	09:01	-132.783	47.681	0	241.60	0	5.0650	0	33.7710	0	26.696	0	239.440	0	-1e10	8	-1e10	8	-1E+10	1	-1E+10	1	-1E+10	1	-1E+10	1	-1E+10	1	-1E+10	1
4902554	84	C	06/05/2023	09:01	-132.783	47.681	0	242.90	0	5.0180	0	33.7790	0	26.707	0	240.727	0	-1e10	8	-1e10	8	-1E+10	1	-1E+10	1	-1E+10	1	-1E+10	1	-1E+10	1	-1E+10	1
4902554	84	C	06/05/2023	09:01	-132.783	47.681	0	244.30	0	4.9910	0	33.7770	0	26.709	0	242.114	0	-1e10	8	-1e10	8	-1E+10	1	-1E+10	1	-1E+10	1	-1E+10	1	-1E+10	1	-1E+10	1
4902554	84	C	06/05/2023	09:01	-132.783	47.681	0	245.20	0	4.9830	0	33.7770	0	26.710	0	243.005	0	-1e10	8	-1e10	8	-1E+10	1	-1E+10	1	-1E+10	1	-1E+10	1	-1E+10	1	-1E+10	1
4902554	84	C	06/05/2023	09:01	-132.783	47.681	0	246.10	0	4.9700	0	33.7790	0	26.713	0	243.897	0	-1e10	8	-1e10	8	-1E+10	1	-1E+10	1	-1E+10	1	-1E+10	1	-1E+10	1	-1E+10	1
4902554	84	C	06/05/2023	09:01	-132.783	47.681	0	247.00	0	4.9600	0	33.7800	0	26.715	0	244.788	0	-1e10	8	-1e10	8	-1E+10	1	-1E+10	1	-1E+10	1	-1E+10	1	-1E+10	1	-1E+10	1
4902554	84	C	06/05/2023	09:01	-132.783	47.681	0	247.90	0	4.9540	0	33.7790	0	26.715	0	245.679	0	-1e10	8	-1e10	8	-1E+10	1	-1E+10	1	-1E+10	1	-1E+10	1	-1E+10	1	-1E+10	1
4902554	84	C	06/05/2023	09:01	-132.783	47.681	0	248.90	0	4.9510	0	33.7800	0	26.716	0	246.670	0	-1e10	8	-1e10	8	-1E+10	1	-1E+10	1	-1E+10	1	-1E+10	1	-1E+10	1	-1E+10	1
4902554	84	C	06/05/2023	09:01	-132.783	47.681	0	249.80	0	4.9470	0	33.7800	0	26.716	0	247.561	0	-1e10	8	-1e10	8	-1E+10	1	-1E+10	1	-1E+10	1	-1E+10	1	-1E+10	1	-1E+10	1
4902554	84	C	06/05/2023	09:01	-132.783	47.681	0	250.70	0	4.9330	0	33.7800	0	26.718	0	248.453	0	-1e10	8	-1e10	8	-1E+10	1	-1E+10	1	-1E+10	1	-1E+10	1	-1E+10	1	-1E+10	1
4902554	84	C	06/05/2023	09:01	-132.783	47.681	0	251.70	0	4.9160	0	33.7820	0	26.721	0	249.443	0	-1e10	8	-1e10	8	-1E+10	1	-1E+10	1	-1E+10	1	-1E+10	1	-1E+10	1	-1E+10	1
4902554	84	C	06/05/2023	09:01	-132.783	47.681	0	252.60	0	4.8940	0	33.7850	0	26.726	0	250.335	0	-1e10	8	-1e10	8	-1E+10	1	-1E+10	1	-1E+10	1	-1E+10	1	-1E+10	1	-1E+10	1
4902554	84	C	06/05/2023	09:01	-132.783	47.681	0	253.60	0	4.8860	0	33.7860	0	26.728	0	251.325	0	-1e10	8	-1e10	8	-1E+10	1	-1E+10	1	-1E+10	1	-1E+10	1	-1E+10	1	-1E+10	1
4902554	84	C	06/05/2023	09:01	-132.783	47.681	0	254.60	0	4.8640	0	33.7870	0	26.731	0	252.315	0	-1e10	8	-1e10	8	-1E+10	1	-1E+10	1	-1E+10	1	-1E+10	1	-1E+10	1	-1E+10	1
4902554	84	C	06/05/2023	09:01	-132.783	47.681	0	255.60	0	4.8770	0	33.7920	0	26.734	0	253.306	0	-1e10	8	-1e10	8	-1E+10	1	-1E+10	1	-1E+10	1	-1E+10	1	-1E+10	1	-1E+10	1
4902554	84	C	06/05/2023	09:01	-132.783	47.681	0	256.50	0	4.8700	0	33.7940	0	26.736	0	254.197	0	-1e10	8	-1e10	8	-1E+10	1	-1E+10	1	-1E+10	1	-1E+10	1	-1E+10	1	-1E+10	1
4902554	84	C	06/05/2023	09:01	-132.783	47.681	0	257.50	0	4.8560	0	33.7940	0	26.738	0	255.188	0	-1e10	8	-1e10	8	-1E+10	1	-1E+10	1	-1E+10	1	-1E+10	1	-1E+10	1	-1E+10	1
4902554	84	C	06/05/2023	09:01	-132.783	47.681	0	258.50	0	4.8490	0	33.7950	0	26.739	0	256.178	0	-1e10	8	-1e10	8	-1E+10	1	-1E+10	1	-1E+10	1	-1E+10	1	-1E+10	1	-1E+10	1
4902554	84	C	06/05/2023	09:01	-132.783	47.681	0	259.50	0	4.8460	0	33.7940	0	26.739	0	257.168	0	-1e10	8	-1e10	8	-1E+10	1	-1E+10	1	-1E+10	1	-1E+10	1	-1E+10	1	-1E+10	1
4902554	84	C	06/05/2023	09:01	-132.783	47.681	0	260.50	0	4.8300	0	33.7970	0	26.743	0	258.159	0	-1e10	8	-1e10	8	-1E+10	1	-1E+10	1	-1E+10	1	-1E+10	1	-1E+10	1	-1E+10	1
4902554	84	C	06/05/2023	09:01	-132.783	47.681	0	261.50	0	4.8220	0	33.7990	0	26.745	0	259.149	0	-1e10	8	-1e10	8	-1E+10	1	-1E+10	1	-1E+10	1	-1E+10	1	-1E+10	1	-1E+10	1
4902554	84	C	06/05/2023	09:01	-132.783	47.681	0	262.50	0	4.8040	0	33.8000	0	26.748	0	260.140	0	-1e10	8	-1e10	8	-1E+10	1	-1E+10	1	-1E+10	1	-1E+10	1	-1E+10	1	-1E+10	1
4902554	84	C	06/05/2023	09:01	-132.783	47.681	0	263.50	0	4.7980	0	33.8010	0	26.750	0	261.130	0	-1e10	8	-1e10	8	-1E+10	1	-1E+10	1	-1E+10	1	-1E+10	1	-1E+10	1	-1E+10	1
4902554	84	C	06/05/2023	09:01	-132.783	47.681	0	264.50	0	4.7970	0	33.8010	0	26.750	0	262.120	0	-1e10	8	-1e10	8	-1E+10	1	-1E+10	1	-1E+10	1	-1E+10	1	-1E+10	1	-1E+10	1
4902554	84	C	06/05/2023	09:01	-132.783	47.681	0	265.50	0	4.7970	0	33.8000	0	26.749	0	263.111	0	-1e10	8	-1e10	8	-1E+10	1	-1E+10	1	-1E+10	1	-1E+10	1	-1E+10	1	-1E+10	1
4902554	84	C	06/05/2023	09:01	-132.783	47.681	0	266.60	0	4.7530	0	33.8120	0	26.763	0	264.200	0	-1e10	8	-1e10	8	-1E+10	1	-1E+10	1	-1E+10	1	-1E+10	1	-1E+10	1	-1E+10	1
4902554	84	C	06/05/2023	09:01	-132.783	47.681	0	267.60	0	4.7420	0	33.8100	0	26.763	0	265.190	0	-1e10	8	-1e10	8	-1E+10	1	-1E+10	1	-1E+10	1	-1E+10	1	-1E+10	1	-1E+10	1
4902554	84	C	06/05/2023	09:01	-132.783	47.681	0	268.70	0	4.7360	0	33.8110	0	26.765	0	266.280	0	-1e10	8	-1e10	8	-1E+10	1	-1E+10	1	-1E+10	1	-1E+10	1	-1E+10	1	-1E+10	1
4902554	84	C	06/05/2023	09:01	-132.783	47.681	0	269.70	0	4.7350	0	33.8110	0	26.765	0	267.270	0	-1e10	8	-1e10	8	-1E+10	1	-1E+10	1	-1E+10	1	-1E+10	1	-1E+10	1	-1E+10	1
4902554	84	C	06/05/2023	09:01	-132.783	47.681	0	270.80	0	4.7320	0	33.8110	0	26.765	0	268.360	0	-1e10	8	-1e10	8	-1E+10	1	-1E+10	1	-1E+10	1	-1E+10	1	-1E+10	1	-1E+10	1
4902554	84	C	06/05/2023	09:01	-132.783	47.681	0	271.90	0	4.7250	0	33.8130	0	26.767	0	269.449	0	-1e10	8	-1e10	8	-1E+10	1	-1E+10	1	-1E+10	1	-1E+10	1	-1E+10	1	-1E+10	1
4902554	84	C	06/05/2023	09:01	-132.783	47.681	0	272.90	0	4.7220	0	33.8120	0	26.767	0	270.439	0	-1e10	8	-1e10	8	-1E+10	1	-1E+10	1	-1E+10	1	-1E+10	1	-1E+10	1	-1E+10	1
4902554	84	C	06/05/2023	09:01	-132.783	47.681	0	274.00	0	4.7190	0	33.8130	0	26.768	0	271.529	0	-1e10	8	-1e10	8	-1E+10	1	-1E+10	1	-1E+10	1	-1E+10	1	-1E+10	1	-1E+10	1
4902554	84	C	06/05/2023	09:01	-132.783	47.681	0	275.00	0	4.7160	0	33.8130	0	26.768	0	272.519	0	-1e10	8	-1e10	8	-1E+10	1	-1E+10	1	-1E+10	1	-1E+10	1	-1E+10	1	-1E+10	1
4902554	84	C	06/05/2023	09:01	-132.783	47.681	0	276.00	0	4.7130	0	33.8140	0	26.770	0	273.509	0	-1e10	8	-1e10	8	-1E+10	1	-1E+10	1	-1E+10	1	-1E+10	1	-1E+10	1	-1E+10	1
4902554	84	C	06/05/2023	09:01	-132.783	47.681	0	277.10	0	4.7090	0	33.8140	0	26.770	0	274.599	0	-1e10	8	-1e10	8	-1E+10	1	-1E+10	1	-1E+10	1	-1E+10	1	-1E+10	1	-1E+10	1
4902554	84	C	06/05/2023	09:01	-132.783	47.681	0	278.10	0	4.7050	0	33.8140	0	26.770	0	275.589	0	-1e10	8	-1e10	8	-1E+10	1	-1E+10	1	-1E+10	1	-1E+10	1	-1E+10	1	-1E+10	1
4902554	84	C	06/05/2023	09:01	-132.783	47.681	0	279.20	0	4.7030	0	33.8140	0	26.771	0	276.678	0	-1e10	8	-1e10	8	-1E+10	1	-1E+10	1	-1E+10	1	-1E+10	1	-1E+10	1	-1E+10	1
4902554	84	C	06/05/2023	09:01	-132.783	47.681	0	280.20	0	4.6940	0	33.8160	0	26.773	0	277.669	0	-1e10	8	-1e10	8	-1E+10	1	-1E+10	1	-1E+10	1	-1E+10	1	-1E+10	1	-1E+10	1
4902554	84	C	06/05/2023	09:01	-132.783	47.681	0	281.30	0	4.6920	0	33.8160	0	26.773	0	278.758	0	-1e10	8	-1e10	8	-1E+10	1	-1E+10	1	-1E+10	1	-1E+10	1	-1E+10	1	-1E+10	1
4902554	84	C	06/05/2023	09:01	-132.783	47.681	0	282.30	0	4.6910	0	33.8160	0	26.774	0	279.748	0	-1e10	8	-1e10	8	-1E+10	1	-1E+10	1	-1E+10	1	-1E+10	1	-1E+10	1	-1E+10	1
4902554	84	C	06/05/2023	09:01	-132.783	47.681	0	283.30	0	4.6900	0	33.8160	0	26.774	0	280.738	0	-1e10	8	-1e10	8	-1E+10	1	-1E+10	1	-1E+10	1	-1E+10	1	-1E+10	1	-1E+10	1
4902554	84	C	06/05/2023	09:01	-132.783	47.681	0	284.30	0	4.6830	0	33.8180	0	26.776	0	281.729	0	-1e10	8	-1e10	8	-1E+10	1	-1E+10	1	-1E+10	1	-1E+10	1	-1E+10	1	-1E+10	1
4902554	84	C	06/05/2023	09:01	-132.783	47.681	0	285.40	0	4.6490	0	33.8210	0	26.782	0	282.818	0	-1e10	8	-1e10	8	-1E+10	1	-1E+10	1	-1E+10	1	-1E+10	1	-1E+10	1	-1E+10	1
4902554	84	C	06/05/2023	09:01	-132.783	47.681	0	286.40	0	4.6440	0	33.8230	0	26.784	0	283.808	0	-1e10	8	-1e10	8	-1E+10	1	-1E+10	1	-1E+10	1	-1E+10	1	-1E+10	1	-1E+10	1
4902554	84	C	06/05/2023	09:01	-132.783	47.681	0	287.40	0	4.6440	0	33.8220	0	26.784	0	284.799	0	-1e10	8	-1e10	8	-1E+10	1	-1E+10	1	-1E+10	1	-1E+10	1	-1E+10	1	-1E+10	1
4902554	84	C	06/05/2023	09:01	-132.783	47.681	0	288.50	0	4.6420	0	33.8230	0	26.785	0	285.888	0	-1e10	8	-1e10	8	-1E+10	1	-1E+10	1	-1E+10	1	-1E+10	1	-1E+10	1	-1E+10	1
4902554	84	C	06/05/2023	09:01	-132.783	47.681	0	289.50	0	4.6380	0	33.8240	0	26.786	0	286.878	0	-1e10	8	-1e10	8	-1E+10	1	-1E+10	1	-1E+10	1	-1E+10	1	-1E+10	1	-1E+10	1
4902554	84	C	06/05/2023	09:01	-132.783	47.681	0	290.50	0	4.6350	0	33.8250	0	26.787	0	287.868	0	-1e10	8	-1e10	8	-1E+10	1	-1E+10	1	-1E+10	1	-1E+10	1	-1E+10	1	-1E+10	1
4902554	84	C	06/05/2023	09:01	-132.783	47.681	0	291.50	0	4.6280	0	33.8280	0	26.790	0	288.859	0	-1e10	8	-1e10	8	-1E+10	1	-1E+10	1	-1E+10	1	-1E+10	1	-1E+10	1	-1E+10	1
4902554	84	C	06/05/2023	09:01	-132.783	47.681	0	292.60	0	4.6160	0	33.8320	0	26.795	0	289.948	0	-1e10	8	-1e10	8	-1E+10	1	-1E+10	1	-1E+10	1	-1E+10	1	-1E+10	1	-1E+10	1
4902554	84	C	06/05/2023	09:01	-132.783	47.681	0	293.60	0	4.6100	0	33.8330	0	26.796	0	290.938	0	-1e10	8	-1e10	8	-1E+10	1	-1E+10	1	-1E+10	1	-1E+10	1	-1E+10	1	-1E+10	1
4902554	84	C	06/05/2023	09:01	-132.783	47.681	0	294.60	0	4.6130	0	33.8330	0	26.796	0	291.928	0	-1e10	8	-1e10	8	-1E+10	1	-1E+10	1	-1E+10	1	-1E+10	1	-1E+10	1	-1E+10	1
4902554	84	C	06/05/2023	09:01	-132.783	47.681	0	295.60	0	4.6050	0	33.8380	0	26.801	0	292.918	0	-1e10	8	-1e10	8	-1E+10	1	-1E+10	1	-1E+10	1	-1E+10	1	-1E+10	1	-1E+10	1
4902554	84	C	06/05/2023	09:01	-132.783	47.681	0	296.60	0	4.5920	0	33.8380	0	26.802	0	293.909	0	-1e10	8	-1e10	8	-1E+10	1	-1E+10	1	-1E+10	1	-1E+10	1	-1E+10	1	-1E+10	1
4902554	84	C	06/05/2023	09:01	-132.783	47.681	0	297.60	0	4.5970	0	33.8390	0	26.802	0	294.899	0	-1e10	8	-1e10	8	-1E+10	1	-1E+10	1	-1E+10	1	-1E+10	1	-1E+10	1	-1E+10	1
4902554	84	C	06/05/2023	09:01	-132.783	47.681	0	298.70	0	4.6050	0	33.8450	0	26.806	0	295.988	0	-1e10	8	-1e10	8	-1E+10	1	-1E+10	1	-1E+10	1	-1E+10	1	-1E+10	1	-1E+10	1
4902554	84	C	06/05/2023	09:01	-132.783	47.681	0	299.70	0	4.5990	0	33.8470	0	26.808	0	296.978	0	-1e10	8	-1e10	8	-1E+10	1	-1E+10	1	-1E+10	1	-1E+10	1	-1E+10	1	-1E+10	1
4902554	84	C	06/05/2023	09:01	-132.783	47.681	0	300.70	0	4.5910	0	33.8480	0	26.810	0	297.969	0	-1e10	8	-1e10	8	-1E+10	1	-1E+10	1	-1E+10	1	-1E+10	1	-1E+10	1	-1E+10	1
4902554	84	C	06/05/2023	09:01	-132.783	47.681	0	301.70	0	4.5830	0	33.8500	0	26.812	0	298.959	0	-1e10	8	-1e10	8	-1E+10	1	-1E+10	1	-1E+10	1	-1E+10	1	-1E+10	1	-1E+10	1
4902554	84	C	06/05/2023	09:01	-132.783	47.681	0	302.70	0	4.5690	0	33.8530	0	26.816	0	299.949	0	-1e10	8	-1e10	8	-1E+10	1	-1E+10	1	-1E+10	1	-1E+10	1	-1E+10	1	-1E+10	1
4902554	84	C	06/05/2023	09:01	-132.783	47.681	0	303.70	0	4.5660	0	33.8540	0	26.818	0	300.939	0	-1e10	8	-1e10	8	-1E+10	1	-1E+10	1	-1E+10	1	-1E+10	1	-1E+10	1	-1E+10	1
4902554	84	C	06/05/2023	09:01	-132.783	47.681	0	304.80	0	4.5640	0	33.8540	0	26.818	0	302.028	0	-1e10	8	-1e10	8	-1E+10	1	-1E+10	1	-1E+10	1	-1E+10	1	-1E+10	1	-1E+10	1
4902554	84	C	06/05/2023	09:01	-132.783	47.681	0	305.80	0	4.5600	0	33.8550	0	26.819	0	303.018	0	-1e10	8	-1e10	8	-1E+10	1	-1E+10	1	-1E+10	1	-1E+10	1	-1E+10	1	-1E+10	1
4902554	84	C	06/05/2023	09:01	-132.783	47.681	0	306.80	0	4.5510	0	33.8570	0	26.822	0	304.009	0	-1e10	8	-1e10	8	-1E+10	1	-1E+10	1	-1E+10	1	-1E+10	1	-1E+10	1	-1E+10	1
4902554	84	C	06/05/2023	09:01	-132.783	47.681	0	307.90	0	4.5310	0	33.8610	0	26.827	0	305.098	0	-1e10	8	-1e10	8	-1E+10	1	-1E+10	1	-1E+10	1	-1E+10	1	-1E+10	1	-1E+10	1
4902554	84	C	06/05/2023	09:01	-132.783	47.681	0	308.90	0	4.5280	0	33.8620	0	26.828	0	306.088	0	-1e10	8	-1e10	8	-1E+10	1	-1E+10	1	-1E+10	1	-1E+10	1	-1E+10	1	-1E+10	1
4902554	84	C	06/05/2023	09:01	-132.783	47.681	0	309.90	0	4.5250	0	33.8620	0	26.828	0	307.078	0	-1e10	8	-1e10	8	-1E+10	1	-1E+10	1	-1E+10	1	-1E+10	1	-1E+10	1	-1E+10	1
4902554	84	C	06/05/2023	09:01	-132.783	47.681	0	311.00	0	4.5230	0	33.8630	0	26.829	0	308.167	0	-1e10	8	-1e10	8	-1E+10	1	-1E+10	1	-1E+10	1	-1E+10	1	-1E+10	1	-1E+10	1
4902554	84	C	06/05/2023	09:01	-132.783	47.681	0	312.00	0	4.5230	0	33.8630	0	26.829	0	309.157	0	-1e10	8	-1e10	8	-1E+10	1	-1E+10	1	-1E+10	1	-1E+10	1	-1E+10	1	-1E+10	1
4902554	84	C	06/05/2023	09:01	-132.783	47.681	0	313.00	0	4.5220	0	33.8630	0	26.829	0	310.148	0	-1e10	8	-1e10	8	-1E+10	1	-1E+10	1	-1E+10	1	-1E+10	1	-1E+10	1	-1E+10	1
4902554	84	C	06/05/2023	09:01	-132.783	47.681	0	314.00	0	4.5190	0	33.8640	0	26.831	0	311.138	0	-1e10	8	-1e10	8	-1E+10	1	-1E+10	1	-1E+10	1	-1E+10	1	-1E+10	1	-1E+10	1
4902554	84	C	06/05/2023	09:01	-132.783	47.681	0	315.00	0	4.5160	0	33.8650	0	26.832	0	312.128	0	-1e10	8	-1e10	8	-1E+10	1	-1E+10	1	-1E+10	1	-1E+10	1	-1E+10	1	-1E+10	1
4902554	84	C	06/05/2023	09:01	-132.783	47.681	0	316.00	0	4.5130	0	33.8660	0	26.833	0	313.118	0	-1e10	8	-1e10	8	-1E+10	1	-1E+10	1	-1E+10	1	-1E+10	1	-1E+10	1	-1E+10	1
4902554	84	C	06/05/2023	09:01	-132.783	47.681	0	317.00	0	4.5120	0	33.8670	0	26.834	0	314.108	0	-1e10	8	-1e10	8	-1E+10	1	-1E+10	1	-1E+10	1	-1E+10	1	-1E+10	1	-1E+10	1
4902554	84	C	06/05/2023	09:01	-132.783	47.681	0	318.10	0	4.5100	0	33.8670	0	26.834	0	315.197	0	-1e10	8	-1e10	8	-1E+10	1	-1E+10	1	-1E+10	1	-1E+10	1	-1E+10	1	-1E+10	1
4902554	84	C	06/05/2023	09:01	-132.783	47.681	0	319.10	0	4.5080	0	33.8690	0	26.836	0	316.187	0	-1e10	8	-1e10	8	-1E+10	1	-1E+10	1	-1E+10	1	-1E+10	1	-1E+10	1	-1E+10	1
4902554	84	C	06/05/2023	09:01	-132.783	47.681	0	320.10	0	4.5070	0	33.8690	0	26.836	0	317.177	0	-1e10	8	-1e10	8	-1E+10	1	-1E+10	1	-1E+10	1	-1E+10	1	-1E+10	1	-1E+10	1
4902554	84	C	06/05/2023	09:01	-132.783	47.681	0	321.10	0	4.5000	0	33.8730	0	26.840	0	318.168	0	-1e10	8	-1e10	8	-1E+10	1	-1E+10	1	-1E+10	1	-1E+10	1	-1E+10	1	-1E+10	1
4902554	84	C	06/05/2023	09:01	-132.783	47.681	0	322.10	0	4.4960	0	33.8740	0	26.841	0	319.158	0	-1e10	8	-1e10	8	-1E+10	1	-1E+10	1	-1E+10	1	-1E+10	1	-1E+10	1	-1E+10	1
4902554	84	C	06/05/2023	09:01	-132.783	47.681	0	323.10	0	4.4960	0	33.8750	0	26.842	0	320.148	0	-1e10	8	-1e10	8	-1E+10	1	-1E+10	1	-1E+10	1	-1E+10	1	-1E+10	1	-1E+10	1
4902554	84	C	06/05/2023	09:01	-132.783	47.681	0	324.10	0	4.4930	0	33.8770	0	26.844	0	321.138	0	-1e10	8	-1e10	8	-1E+10	1	-1E+10	1	-1E+10	1	-1E+10	1	-1E+10	1	-1E+10	1
4902554	84	C	06/05/2023	09:01	-132.783	47.681	0	325.20	0	4.4920	0	33.8780	0	26.845	0	322.227	0	-1e10	8	-1e10	8	-1E+10	1	-1E+10	1	-1E+10	1	-1E+10	1	-1E+10	1	-1E+10	1
4902554	84	C	06/05/2023	09:01	-132.783	47.681	0	326.20	0	4.4890	0	33.8790	0	26.846	0	323.217	0	-1e10	8	-1e10	8	-1E+10	1	-1E+10	1	-1E+10	1	-1E+10	1	-1E+10	1	-1E+10	1
4902554	84	C	06/05/2023	09:01	-132.783	47.681	0	327.20	0	4.4870	0	33.8800	0	26.847	0	324.207	0	-1e10	8	-1e10	8	-1E+10	1	-1E+10	1	-1E+10	1	-1E+10	1	-1E+10	1	-1E+10	1
4902554	84	C	06/05/2023	09:01	-132.783	47.681	0	328.20	0	4.4840	0	33.8820	0	26.849	0	325.197	0	-1e10	8	-1e10	8	-1E+10	1	-1E+10	1	-1E+10	1	-1E+10	1	-1E+10	1	-1E+10	1
4902554	84	C	06/05/2023	09:01	-132.783	47.681	0	329.20	0	4.4800	0	33.8830	0	26.850	0	326.187	0	-1e10	8	-1e10	8	-1E+10	1	-1E+10	1	-1E+10	1	-1E+10	1	-1E+10	1	-1E+10	1
4902554	84	C	06/05/2023	09:01	-132.783	47.681	0	330.30	0	4.4760	0	33.8850	0	26.852	0	327.276	0	-1e10	8	-1e10	8	-1E+10	1	-1E+10	1	-1E+10	1	-1E+10	1	-1E+10	1	-1E+10	1
4902554	84	C	06/05/2023	09:01	-132.783	47.681	0	331.30	0	4.4720	0	33.8870	0	26.854	0	328.266	0	-1e10	8	-1e10	8	-1E+10	1	-1E+10	1	-1E+10	1	-1E+10	1	-1E+10	1	-1E+10	1
4902554	84	C	06/05/2023	09:01	-132.783	47.681	0	332.30	0	4.4680	0	33.8880	0	26.855	0	329.256	0	-1e10	8	-1e10	8	-1E+10	1	-1E+10	1	-1E+10	1	-1E+10	1	-1E+10	1	-1E+10	1
4902554	84	C	06/05/2023	09:01	-132.783	47.681	0	333.30	0	4.4670	0	33.8880	0	26.855	0	330.246	0	-1e10	8	-1e10	8	-1E+10	1	-1E+10	1	-1E+10	1	-1E+10	1	-1E+10	1	-1E+10	1
4902554	84	C	06/05/2023	09:01	-132.783	47.681	0	334.30	0	4.4660	0	33.8890	0	26.856	0	331.236	0	-1e10	8	-1e10	8	-1E+10	1	-1E+10	1	-1E+10	1	-1E+10	1	-1E+10	1	-1E+10	1
4902554	84	C	06/05/2023	09:01	-132.783	47.681	0	335.40	0	4.4660	0	33.8900	0	26.857	0	332.326	0	-1e10	8	-1e10	8	-1E+10	1	-1E+10	1	-1E+10	1	-1E+10	1	-1E+10	1	-1E+10	1
4902554	84	C	06/05/2023	09:01	-132.783	47.681	0	336.40	0	4.4630	0	33.8900	0	26.857	0	333.316	0	-1e10	8	-1e10	8	-1E+10	1	-1E+10	1	-1E+10	1	-1E+10	1	-1E+10	1	-1E+10	1
4902554	84	C	06/05/2023	09:01	-132.783	47.681	0	337.40	0	4.4600	0	33.8920	0	26.859	0	334.306	0	-1e10	8	-1e10	8	-1E+10	1	-1E+10	1	-1E+10	1	-1E+10	1	-1E+10	1	-1E+10	1
4902554	84	C	06/05/2023	09:01	-132.783	47.681	0	338.50	0	4.4570	0	33.8930	0	26.860	0	335.395	0	-1e10	8	-1e10	8	-1E+10	1	-1E+10	1	-1E+10	1	-1E+10	1	-1E+10	1	-1E+10	1
4902554	84	C	06/05/2023	09:01	-132.783	47.681	0	339.50	0	4.4370	0	33.8960	0	26.865	0	336.385	0	-1e10	8	-1e10	8	-1E+10	1	-1E+10	1	-1E+10	1	-1E+10	1	-1E+10	1	-1E+10	1
4902554	84	C	06/05/2023	09:01	-132.783	47.681	0	340.60	0	4.4280	0	33.8960	0	26.866	0	337.474	0	-1e10	8	-1e10	8	-1E+10	1	-1E+10	1	-1E+10	1	-1E+10	1	-1E+10	1	-1E+10	1
4902554	84	C	06/05/2023	09:01	-132.783	47.681	0	341.60	0	4.4270	0	33.8960	0	26.866	0	338.464	0	-1e10	8	-1e10	8	-1E+10	1	-1E+10	1	-1E+10	1	-1E+10	1	-1E+10	1	-1E+10	1
4902554	84	C	06/05/2023	09:01	-132.783	47.681	0	342.70	0	4.4220	0	33.8970	0	26.867	0	339.553	0	-1e10	8	-1e10	8	-1E+10	1	-1E+10	1	-1E+10	1	-1E+10	1	-1E+10	1	-1E+10	1
4902554	84	C	06/05/2023	09:01	-132.783	47.681	0	343.70	0	4.4110	0	33.8970	0	26.869	0	340.543	0	-1e10	8	-1e10	8	-1E+10	1	-1E+10	1	-1E+10	1	-1E+10	1	-1E+10	1	-1E+10	1
4902554	84	C	06/05/2023	09:01	-132.783	47.681	0	344.70	0	4.4040	0	33.8980	0	26.870	0	341.533	0	-1e10	8	-1e10	8	-1E+10	1	-1E+10	1	-1E+10	1	-1E+10	1	-1E+10	1	-1E+10	1
4902554	84	C	06/05/2023	09:01	-132.783	47.681	0	345.80	0	4.3960	0	33.8990	0	26.872	0	342.622	0	-1e10	8	-1e10	8	-1E+10	1	-1E+10	1	-1E+10	1	-1E+10	1	-1E+10	1	-1E+10	1
4902554	84	C	06/05/2023	09:01	-132.783	47.681	0	346.80	0	4.3900	0	33.9030	0	26.876	0	343.612	0	-1e10	8	-1e10	8	-1E+10	1	-1E+10	1	-1E+10	1	-1E+10	1	-1E+10	1	-1E+10	1
4902554	84	C	06/05/2023	09:01	-132.783	47.681	0	347.90	0	4.3890	0	33.9040	0	26.877	0	344.701	0	-1e10	8	-1e10	8	-1E+10	1	-1E+10	1	-1E+10	1	-1E+10	1	-1E+10	1	-1E+10	1
4902554	84	C	06/05/2023	09:01	-132.783	47.681	0	348.90	0	4.3880	0	33.9050	0	26.877	0	345.691	0	-1e10	8	-1e10	8	-1E+10	1	-1E+10	1	-1E+10	1	-1E+10	1	-1E+10	1	-1E+10	1
4902554	84	C	06/05/2023	09:01	-132.783	47.681	0	349.90	0	4.3850	0	33.9050	0	26.878	0	346.680	0	-1e10	8	-1e10	8	-1E+10	1	-1E+10	1	-1E+10	1	-1E+10	1	-1E+10	1	-1E+10	1
4902554	84	C	06/05/2023	09:01	-132.783	47.681	0	353.10	0	4.3820	0	33.9060	0	26.879	0	349.848	0	-1e10	8	-1e10	8	-1E+10	1	-1E+10	1	-1E+10	1	-1E+10	1	-1E+10	1	-1E+10	1
4902554	84	C	06/05/2023	09:01	-132.783	47.681	0	357.90	0	4.3620	0	33.9140	0	26.887	0	354.600	0	-1e10	8	-1e10	8	-1E+10	1	-1E+10	1	-1E+10	1	-1E+10	1	-1E+10	1	-1E+10	1
4902554	84	C	06/05/2023	09:01	-132.783	47.681	0	362.70	0	4.3540	0	33.9180	0	26.891	0	359.352	0	-1e10	8	-1e10	8	-1E+10	1	-1E+10	1	-1E+10	1	-1E+10	1	-1E+10	1	-1E+10	1
4902554	84	C	06/05/2023	09:01	-132.783	47.681	0	367.90	0	4.3460	0	33.9220	0	26.896	0	364.499	0	-1e10	8	-1e10	8	-1E+10	1	-1E+10	1	-1E+10	1	-1E+10	1	-1E+10	1	-1E+10	1
4902554	84	C	06/05/2023	09:01	-132.783	47.681	0	373.10	0	4.3500	0	33.9310	0	26.902	0	369.646	0	-1e10	8	-1e10	8	-1E+10	1	-1E+10	1	-1E+10	1	-1E+10	1	-1E+10	1	-1E+10	1
4902554	84	C	06/05/2023	09:01	-132.783	47.681	0	378.10	0	4.3530	0	33.9400	0	26.909	0	374.596	0	-1e10	8	-1e10	8	-1E+10	1	-1E+10	1	-1E+10	1	-1E+10	1	-1E+10	1	-1E+10	1
4902554	84	C	06/05/2023	09:01	-132.783	47.681	0	383.20	0	4.3590	0	33.9500	0	26.917	0	379.644	0	-1e10	8	-1e10	8	-1E+10	1	-1E+10	1	-1E+10	1	-1E+10	1	-1E+10	1	-1E+10	1
4902554	84	C	06/05/2023	09:01	-132.783	47.681	0	388.00	0	4.3510	0	33.9540	0	26.921	0	384.395	0	-1e10	8	-1e10	8	-1E+10	1	-1E+10	1	-1E+10	1	-1E+10	1	-1E+10	1	-1E+10	1
4902554	84	C	06/05/2023	09:01	-132.783	47.681	0	393.00	0	4.3400	0	33.9640	0	26.930	0	389.343	0	-1e10	8	-1e10	8	-1E+10	1	-1E+10	1	-1E+10	1	-1E+10	1	-1E+10	1	-1E+10	1
4902554	84	C	06/05/2023	09:01	-132.783	47.681	0	398.10	0	4.3280	0	33.9740	0	26.939	0	394.391	0	-1e10	8	-1e10	8	-1E+10	1	-1E+10	1	-1E+10	1	-1E+10	1	-1E+10	1	-1E+10	1
4902554	84	C	06/05/2023	09:01	-132.783	47.681	0	402.80	0	4.3300	0	33.9810	0	26.944	0	399.043	0	-1e10	8	-1e10	8	-1E+10	1	-1E+10	1	-1E+10	1	-1E+10	1	-1E+10	1	-1E+10	1
4902554	84	C	06/05/2023	09:01	-132.783	47.681	0	407.60	0	4.3200	0	33.9880	0	26.951	0	403.793	0	-1e10	8	-1e10	8	-1E+10	1	-1E+10	1	-1E+10	1	-1E+10	1	-1E+10	1	-1E+10	1
4902554	84	C	06/05/2023	09:01	-132.783	47.681	0	412.50	0	4.3090	0	33.9950	0	26.958	0	408.643	0	-1e10	8	-1e10	8	-1E+10	1	-1E+10	1	-1E+10	1	-1E+10	1	-1E+10	1	-1E+10	1
4902554	84	C	06/05/2023	09:01	-132.783	47.681	0	417.50	0	4.3040	0	34.0000	0	26.962	0	413.591	0	-1e10	8	-1e10	8	-1E+10	1	-1E+10	1	-1E+10	1	-1E+10	1	-1E+10	1	-1E+10	1
4902554	84	C	06/05/2023	09:01	-132.783	47.681	0	422.90	0	4.3000	0	34.0030	0	26.965	0	418.935	0	-1e10	8	-1e10	8	-1E+10	1	-1E+10	1	-1E+10	1	-1E+10	1	-1E+10	1	-1E+10	1
4902554	84	C	06/05/2023	09:01	-132.783	47.681	0	428.40	0	4.2960	0	34.0080	0	26.970	0	424.378	0	-1e10	8	-1e10	8	-1E+10	1	-1E+10	1	-1E+10	1	-1E+10	1	-1E+10	1	-1E+10	1
4902554	84	C	06/05/2023	09:01	-132.783	47.681	0	433.40	0	4.2890	0	34.0160	0	26.977	0	429.326	0	-1e10	8	-1e10	8	-1E+10	1	-1E+10	1	-1E+10	1	-1E+10	1	-1E+10	1	-1E+10	1
4902554	84	C	06/05/2023	09:01	-132.783	47.681	0	437.90	0	4.2720	0	34.0220	0	26.983	0	433.779	0	-1e10	8	-1e10	8	-1E+10	1	-1E+10	1	-1E+10	1	-1E+10	1	-1E+10	1	-1E+10	1
4902554	84	C	06/05/2023	09:01	-132.783	47.681	0	442.50	0	4.2670	0	34.0240	0	26.986	0	438.331	0	-1e10	8	-1e10	8	-1E+10	1	-1E+10	1	-1E+10	1	-1E+10	1	-1E+10	1	-1E+10	1
4902554	84	C	06/05/2023	09:01	-132.783	47.681	0	447.60	0	4.2590	0	34.0250	0	26.987	0	443.377	0	-1e10	8	-1e10	8	-1E+10	1	-1E+10	1	-1E+10	1	-1E+10	1	-1E+10	1	-1E+10	1
4902554	84	C	06/05/2023	09:01	-132.783	47.681	0	452.60	0	4.2450	0	34.0290	0	26.992	0	448.325	0	-1e10	8	-1e10	8	-1E+10	1	-1E+10	1	-1E+10	1	-1E+10	1	-1E+10	1	-1E+10	1
4902554	84	C	06/05/2023	09:01	-132.783	47.681	0	457.60	0	4.2380	0	34.0340	0	26.997	0	453.272	0	-1e10	8	-1e10	8	-1E+10	1	-1E+10	1	-1E+10	1	-1E+10	1	-1E+10	1	-1E+10	1
4902554	84	C	06/05/2023	09:01	-132.783	47.681	0	462.60	0	4.2400	0	34.0390	0	27.000	0	458.219	0	-1e10	8	-1e10	8	-1E+10	1	-1E+10	1	-1E+10	1	-1E+10	1	-1E+10	1	-1E+10	1
4902554	84	C	06/05/2023	09:01	-132.783	47.681	0	467.70	0	4.2380	0	34.0440	0	27.005	0	463.265	0	-1e10	8	-1e10	8	-1E+10	1	-1E+10	1	-1E+10	1	-1E+10	1	-1E+10	1	-1E+10	1
4902554	84	C	06/05/2023	09:01	-132.783	47.681	0	472.70	0	4.2340	0	34.0480	0	27.008	0	468.212	0	-1e10	8	-1e10	8	-1E+10	1	-1E+10	1	-1E+10	1	-1E+10	1	-1E+10	1	-1E+10	1
4902554	84	C	06/05/2023	09:01	-132.783	47.681	0	477.80	0	4.2280	0	34.0500	0	27.011	0	473.258	0	-1e10	8	-1e10	8	-1E+10	1	-1E+10	1	-1E+10	1	-1E+10	1	-1E+10	1	-1E+10	1
4902554	84	C	06/05/2023	09:01	-132.783	47.681	0	483.00	0	4.2240	0	34.0520	0	27.013	0	478.402	0	-1e10	8	-1e10	8	-1E+10	1	-1E+10	1	-1E+10	1	-1E+10	1	-1E+10	1	-1E+10	1
4902554	84	C	06/05/2023	09:01	-132.783	47.681	0	488.10	0	4.2090	0	34.0570	0	27.018	0	483.448	0	-1e10	8	-1e10	8	-1E+10	1	-1E+10	1	-1E+10	1	-1E+10	1	-1E+10	1	-1E+10	1
4902554	84	C	06/05/2023	09:01	-132.783	47.681	0	492.80	0	4.1900	0	34.0630	0	27.025	0	488.098	0	-1e10	8	-1e10	8	-1E+10	1	-1E+10	1	-1E+10	1	-1E+10	1	-1E+10	1	-1E+10	1
4902554	84	C	06/05/2023	09:01	-132.783	47.681	0	497.60	0	4.1770	0	34.0650	0	27.028	0	492.846	0	-1e10	8	-1e10	8	-1E+10	1	-1E+10	1	-1E+10	1	-1E+10	1	-1E+10	1	-1E+10	1
4902554	84	C	06/05/2023	09:01	-132.783	47.681	0	502.90	0	4.1560	0	34.0700	0	27.034	0	498.089	0	-1e10	8	-1e10	8	-1E+10	1	-1E+10	1	-1E+10	1	-1E+10	1	-1E+10	1	-1E+10	1
4902554	84	C	06/05/2023	09:01	-132.783	47.681	0	508.20	0	4.1420	0	34.0750	0	27.040	0	503.332	0	-1e10	8	-1e10	8	-1E+10	1	-1E+10	1	-1E+10	1	-1E+10	1	-1E+10	1	-1E+10	1
4902554	84	C	06/05/2023	09:01	-132.783	47.681	0	512.90	0	4.1180	0	34.0800	0	27.046	0	507.981	0	-1e10	8	-1e10	8	-1E+10	1	-1E+10	1	-1E+10	1	-1E+10	1	-1E+10	1	-1E+10	1
4902554	84	C	06/05/2023	09:01	-132.783	47.681	0	517.60	0	4.0980	0	34.0840	0	27.051	0	512.630	0	-1e10	8	-1e10	8	-1E+10	1	-1E+10	1	-1E+10	1	-1E+10	1	-1E+10	1	-1E+10	1
4902554	84	C	06/05/2023	09:01	-132.783	47.681	0	522.80	0	4.0870	0	34.0900	0	27.057	0	517.774	0	-1e10	8	-1e10	8	-1E+10	1	-1E+10	1	-1E+10	1	-1E+10	1	-1E+10	1	-1E+10	1
4902554	84	C	06/05/2023	09:01	-132.783	47.681	0	528.10	0	4.0830	0	34.0970	0	27.063	0	523.016	0	-1e10	8	-1e10	8	-1E+10	1	-1E+10	1	-1E+10	1	-1E+10	1	-1E+10	1	-1E+10	1
4902554	84	C	06/05/2023	09:01	-132.783	47.681	0	532.90	0	4.0680	0	34.1030	0	27.070	0	527.764	0	-1e10	8	-1e10	8	-1E+10	1	-1E+10	1	-1E+10	1	-1E+10	1	-1E+10	1	-1E+10	1
4902554	84	C	06/05/2023	09:01	-132.783	47.681	0	537.90	0	4.0440	0	34.1100	0	27.078	0	532.710	0	-1e10	8	-1e10	8	-1E+10	1	-1E+10	1	-1E+10	1	-1E+10	1	-1E+10	1	-1E+10	1
4902554	84	C	06/05/2023	09:01	-132.783	47.681	0	542.90	0	4.0270	0	34.1140	0	27.083	0	537.655	0	-1e10	8	-1e10	8	-1E+10	1	-1E+10	1	-1E+10	1	-1E+10	1	-1E+10	1	-1E+10	1
4902554	84	C	06/05/2023	09:01	-132.783	47.681	0	547.80	0	4.0110	0	34.1190	0	27.088	0	542.501	0	-1e10	8	-1e10	8	-1E+10	1	-1E+10	1	-1E+10	1	-1E+10	1	-1E+10	1	-1E+10	1
4902554	84	C	06/05/2023	09:01	-132.783	47.681	0	552.70	0	3.9960	0	34.1230	0	27.093	0	547.347	0	-1e10	8	-1e10	8	-1E+10	1	-1E+10	1	-1E+10	1	-1E+10	1	-1E+10	1	-1E+10	1
4902554	84	C	06/05/2023	09:01	-132.783	47.681	0	557.80	0	3.9810	0	34.1280	0	27.099	0	552.391	0	-1e10	8	-1e10	8	-1E+10	1	-1E+10	1	-1E+10	1	-1E+10	1	-1E+10	1	-1E+10	1
4902554	84	C	06/05/2023	09:01	-132.783	47.681	0	562.80	0	3.9720	0	34.1320	0	27.103	0	557.336	0	-1e10	8	-1e10	8	-1E+10	1	-1E+10	1	-1E+10	1	-1E+10	1	-1E+10	1	-1E+10	1
4902554	84	C	06/05/2023	09:01	-132.783	47.681	0	567.90	0	3.9620	0	34.1340	0	27.105	0	562.380	0	-1e10	8	-1e10	8	-1E+10	1	-1E+10	1	-1E+10	1	-1E+10	1	-1E+10	1	-1E+10	1
4902554	84	C	06/05/2023	09:01	-132.783	47.681	0	573.20	0	3.9470	0	34.1380	0	27.110	0	567.621	0	-1e10	8	-1e10	8	-1E+10	1	-1E+10	1	-1E+10	1	-1E+10	1	-1E+10	1	-1E+10	1
4902554	84	C	06/05/2023	09:01	-132.783	47.681	0	578.00	0	3.9360	0	34.1410	0	27.114	0	572.367	0	-1e10	8	-1e10	8	-1E+10	1	-1E+10	1	-1E+10	1	-1E+10	1	-1E+10	1	-1E+10	1
4902554	84	C	06/05/2023	09:01	-132.783	47.681	0	582.90	0	3.9270	0	34.1440	0	27.117	0	577.213	0	-1e10	8	-1e10	8	-1E+10	1	-1E+10	1	-1E+10	1	-1E+10	1	-1E+10	1	-1E+10	1
4902554	84	C	06/05/2023	09:01	-132.783	47.681	0	587.90	0	3.9230	0	34.1460	0	27.119	0	582.157	0	-1e10	8	-1e10	8	-1E+10	1	-1E+10	1	-1E+10	1	-1E+10	1	-1E+10	1	-1E+10	1
4902554	84	C	06/05/2023	09:01	-132.783	47.681	0	592.80	0	3.9180	0	34.1480	0	27.121	0	587.002	0	-1e10	8	-1e10	8	-1E+10	1	-1E+10	1	-1E+10	1	-1E+10	1	-1E+10	1	-1E+10	1
4902554	84	C	06/05/2023	09:01	-132.783	47.681	0	597.90	0	3.9010	0	34.1530	0	27.127	0	592.045	0	-1e10	8	-1e10	8	-1E+10	1	-1E+10	1	-1E+10	1	-1E+10	1	-1E+10	1	-1E+10	1
4902554	84	C	06/05/2023	09:01	-132.783	47.681	0	602.60	0	3.8850	0	34.1590	0	27.133	0	596.692	0	-1e10	8	-1e10	8	-1E+10	1	-1E+10	1	-1E+10	1	-1E+10	1	-1E+10	1	-1E+10	1
4902554	84	C	06/05/2023	09:01	-132.783	47.681	0	607.80	0	3.8750	0	34.1610	0	27.136	0	601.834	0	-1e10	8	-1e10	8	-1E+10	1	-1E+10	1	-1E+10	1	-1E+10	1	-1E+10	1	-1E+10	1
4902554	84	C	06/05/2023	09:01	-132.783	47.681	0	613.00	0	3.8680	0	34.1640	0	27.139	0	606.975	0	-1e10	8	-1e10	8	-1E+10	1	-1E+10	1	-1E+10	1	-1E+10	1	-1E+10	1	-1E+10	1
4902554	84	C	06/05/2023	09:01	-132.783	47.681	0	617.70	0	3.8550	0	34.1670	0	27.143	0	611.622	0	-1e10	8	-1e10	8	-1E+10	1	-1E+10	1	-1E+10	1	-1E+10	1	-1E+10	1	-1E+10	1
4902554	84	C	06/05/2023	09:01	-132.783	47.681	0	622.90	0	3.8370	0	34.1720	0	27.149	0	616.763	0	-1e10	8	-1e10	8	-1E+10	1	-1E+10	1	-1E+10	1	-1E+10	1	-1E+10	1	-1E+10	1
4902554	84	C	06/05/2023	09:01	-132.783	47.681	0	628.10	0	3.8230	0	34.1760	0	27.153	0	621.904	0	-1e10	8	-1e10	8	-1E+10	1	-1E+10	1	-1E+10	1	-1E+10	1	-1E+10	1	-1E+10	1
4902554	84	C	06/05/2023	09:01	-132.783	47.681	0	632.90	0	3.8130	0	34.1790	0	27.157	0	626.650	0	-1e10	8	-1e10	8	-1E+10	1	-1E+10	1	-1E+10	1	-1E+10	1	-1E+10	1	-1E+10	1
4902554	84	C	06/05/2023	09:01	-132.783	47.681	0	637.80	0	3.8080	0	34.1810	0	27.159	0	631.494	0	-1e10	8	-1e10	8	-1E+10	1	-1E+10	1	-1E+10	1	-1E+10	1	-1E+10	1	-1E+10	1
4902554	84	C	06/05/2023	09:01	-132.783	47.681	0	642.70	0	3.7990	0	34.1840	0	27.162	0	636.338	0	-1e10	8	-1e10	8	-1E+10	1	-1E+10	1	-1E+10	1	-1E+10	1	-1E+10	1	-1E+10	1
4902554	84	C	06/05/2023	09:01	-132.783	47.681	0	647.70	0	3.7820	0	34.1890	0	27.168	0	641.281	0	-1e10	8	-1e10	8	-1E+10	1	-1E+10	1	-1E+10	1	-1E+10	1	-1E+10	1	-1E+10	1
4902554	84	C	06/05/2023	09:01	-132.783	47.681	0	652.80	0	3.7720	0	34.1920	0	27.171	0	646.322	0	-1e10	8	-1e10	8	-1E+10	1	-1E+10	1	-1E+10	1	-1E+10	1	-1E+10	1	-1E+10	1
4902554	84	C	06/05/2023	09:01	-132.783	47.681	0	658.00	0	3.7640	0	34.1940	0	27.174	0	651.463	0	-1e10	8	-1e10	8	-1E+10	1	-1E+10	1	-1E+10	1	-1E+10	1	-1E+10	1	-1E+10	1
4902554	84	C	06/05/2023	09:01	-132.783	47.681	0	663.20	0	3.7530	0	34.1970	0	27.177	0	656.603	0	-1e10	8	-1e10	8	-1E+10	1	-1E+10	1	-1E+10	1	-1E+10	1	-1E+10	1	-1E+10	1
4902554	84	C	06/05/2023	09:01	-132.783	47.681	0	667.90	0	3.7400	0	34.2000	0	27.181	0	661.249	0	-1e10	8	-1e10	8	-1E+10	1	-1E+10	1	-1E+10	1	-1E+10	1	-1E+10	1	-1E+10	1
4902554	84	C	06/05/2023	09:01	-132.783	47.681	0	672.60	0	3.7300	0	34.2020	0	27.183	0	665.894	0	-1e10	8	-1e10	8	-1E+10	1	-1E+10	1	-1E+10	1	-1E+10	1	-1E+10	1	-1E+10	1
4902554	84	C	06/05/2023	09:01	-132.783	47.681	0	677.60	0	3.7220	0	34.2040	0	27.186	0	670.836	0	-1e10	8	-1e10	8	-1E+10	1	-1E+10	1	-1E+10	1	-1E+10	1	-1E+10	1	-1E+10	1
4902554	84	C	06/05/2023	09:01	-132.783	47.681	0	682.90	0	3.7110	0	34.2070	0	27.189	0	676.075	0	-1e10	8	-1e10	8	-1E+10	1	-1E+10	1	-1E+10	1	-1E+10	1	-1E+10	1	-1E+10	1
4902554	84	C	06/05/2023	09:01	-132.783	47.681	0	687.90	0	3.7060	0	34.2100	0	27.192	0	681.017	0	-1e10	8	-1e10	8	-1E+10	1	-1E+10	1	-1E+10	1	-1E+10	1	-1E+10	1	-1E+10	1
4902554	84	C	06/05/2023	09:01	-132.783	47.681	0	692.50	0	3.6920	0	34.2140	0	27.197	0	685.563	0	-1e10	8	-1e10	8	-1E+10	1	-1E+10	1	-1E+10	1	-1E+10	1	-1E+10	1	-1E+10	1
4902554	84	C	06/05/2023	09:01	-132.783	47.681	0	697.50	0	3.6800	0	34.2170	0	27.200	0	690.505	0	-1e10	8	-1e10	8	-1E+10	1	-1E+10	1	-1E+10	1	-1E+10	1	-1E+10	1	-1E+10	1
4902554	84	C	06/05/2023	09:01	-132.783	47.681	0	702.60	0	3.6660	0	34.2210	0	27.205	0	695.545	0	-1e10	8	-1e10	8	-1E+10	1	-1E+10	1	-1E+10	1	-1E+10	1	-1E+10	1	-1E+10	1
4902554	84	C	06/05/2023	09:01	-132.783	47.681	0	707.60	0	3.6550	0	34.2250	0	27.209	0	700.487	0	-1e10	8	-1e10	8	-1E+10	1	-1E+10	1	-1E+10	1	-1E+10	1	-1E+10	1	-1E+10	1
4902554	84	C	06/05/2023	09:01	-132.783	47.681	0	712.70	0	3.6490	0	34.2260	0	27.211	0	705.527	0	-1e10	8	-1e10	8	-1E+10	1	-1E+10	1	-1E+10	1	-1E+10	1	-1E+10	1	-1E+10	1
4902554	84	C	06/05/2023	09:01	-132.783	47.681	0	717.90	0	3.6440	0	34.2270	0	27.212	0	710.666	0	-1e10	8	-1e10	8	-1E+10	1	-1E+10	1	-1E+10	1	-1E+10	1	-1E+10	1	-1E+10	1
4902554	84	C	06/05/2023	09:01	-132.783	47.681	0	723.00	0	3.6330	0	34.2300	0	27.216	0	715.705	0	-1e10	8	-1e10	8	-1E+10	1	-1E+10	1	-1E+10	1	-1E+10	1	-1E+10	1	-1E+10	1
4902554	84	C	06/05/2023	09:01	-132.783	47.681	0	728.20	0	3.6180	0	34.2330	0	27.220	0	720.844	0	-1e10	8	-1e10	8	-1E+10	1	-1E+10	1	-1E+10	1	-1E+10	1	-1E+10	1	-1E+10	1
4902554	84	C	06/05/2023	09:01	-132.783	47.681	0	733.10	0	3.6040	0	34.2370	0	27.224	0	725.686	0	-1e10	8	-1e10	8	-1E+10	1	-1E+10	1	-1E+10	1	-1E+10	1	-1E+10	1	-1E+10	1
4902554	84	C	06/05/2023	09:01	-132.783	47.681	0	737.90	0	3.5890	0	34.2400	0	27.228	0	730.429	0	-1e10	8	-1e10	8	-1E+10	1	-1E+10	1	-1E+10	1	-1E+10	1	-1E+10	1	-1E+10	1
4902554	84	C	06/05/2023	09:01	-132.783	47.681	0	743.20	0	3.5690	0	34.2450	0	27.234	0	735.666	0	-1e10	8	-1e10	8	-1E+10	1	-1E+10	1	-1E+10	1	-1E+10	1	-1E+10	1	-1E+10	1
4902554	84	C	06/05/2023	09:01	-132.783	47.681	0	748.00	0	3.5590	0	34.2480	0	27.237	0	740.409	0	-1e10	8	-1e10	8	-1E+10	1	-1E+10	1	-1E+10	1	-1E+10	1	-1E+10	1	-1E+10	1
4902554	84	C	06/05/2023	09:01	-132.783	47.681	0	752.80	0	3.5450	0	34.2510	0	27.241	0	745.152	0	-1e10	8	-1e10	8	-1E+10	1	-1E+10	1	-1E+10	1	-1E+10	1	-1E+10	1	-1E+10	1
4902554	84	C	06/05/2023	09:01	-132.783	47.681	0	758.00	0	3.5250	0	34.2560	0	27.247	0	750.289	0	-1e10	8	-1e10	8	-1E+10	1	-1E+10	1	-1E+10	1	-1E+10	1	-1E+10	1	-1E+10	1
4902554	84	C	06/05/2023	09:01	-132.783	47.681	0	762.80	0	3.5030	0	34.2610	0	27.253	0	755.032	0	-1e10	8	-1e10	8	-1E+10	1	-1E+10	1	-1E+10	1	-1E+10	1	-1E+10	1	-1E+10	1
4902554	84	C	06/05/2023	09:01	-132.783	47.681	0	767.70	0	3.4960	0	34.2630	0	27.255	0	759.873	0	-1e10	8	-1e10	8	-1E+10	1	-1E+10	1	-1E+10	1	-1E+10	1	-1E+10	1	-1E+10	1
4902554	84	C	06/05/2023	09:01	-132.783	47.681	0	773.10	0	3.4770	0	34.2680	0	27.261	0	765.208	0	-1e10	8	-1e10	8	-1E+10	1	-1E+10	1	-1E+10	1	-1E+10	1	-1E+10	1	-1E+10	1
4902554	84	C	06/05/2023	09:01	-132.783	47.681	0	778.20	0	3.4630	0	34.2710	0	27.265	0	770.247	0	-1e10	8	-1e10	8	-1E+10	1	-1E+10	1	-1E+10	1	-1E+10	1	-1E+10	1	-1E+10	1
4902554	84	C	06/05/2023	09:01	-132.783	47.681	0	782.80	0	3.4540	0	34.2730	0	27.268	0	774.791	0	-1e10	8	-1e10	8	-1E+10	1	-1E+10	1	-1E+10	1	-1E+10	1	-1E+10	1	-1E+10	1
4902554	84	C	06/05/2023	09:01	-132.783	47.681	0	787.90	0	3.4360	0	34.2770	0	27.272	0	779.829	0	-1e10	8	-1e10	8	-1E+10	1	-1E+10	1	-1E+10	1	-1E+10	1	-1E+10	1	-1E+10	1
4902554	84	C	06/05/2023	09:01	-132.783	47.681	0	793.00	0	3.4240	0	34.2800	0	27.276	0	784.868	0	-1e10	8	-1e10	8	-1E+10	1	-1E+10	1	-1E+10	1	-1E+10	1	-1E+10	1	-1E+10	1
4902554	84	C	06/05/2023	09:01	-132.783	47.681	0	797.70	0	3.4110	0	34.2830	0	27.280	0	789.510	0	-1e10	8	-1e10	8	-1E+10	1	-1E+10	1	-1E+10	1	-1E+10	1	-1E+10	1	-1E+10	1
4902554	84	C	06/05/2023	09:01	-132.783	47.681	0	802.90	0	3.3970	0	34.2870	0	27.284	0	794.647	0	-1e10	8	-1e10	8	-1E+10	1	-1E+10	1	-1E+10	1	-1E+10	1	-1E+10	1	-1E+10	1
4902554	84	C	06/05/2023	09:01	-132.783	47.681	0	808.10	0	3.3860	0	34.2890	0	27.287	0	799.784	0	-1e10	8	-1e10	8	-1E+10	1	-1E+10	1	-1E+10	1	-1E+10	1	-1E+10	1	-1E+10	1
4902554	84	C	06/05/2023	09:01	-132.783	47.681	0	812.90	0	3.3800	0	34.2910	0	27.289	0	804.525	0	-1e10	8	-1e10	8	-1E+10	1	-1E+10	1	-1E+10	1	-1E+10	1	-1E+10	1	-1E+10	1
4902554	84	C	06/05/2023	09:01	-132.783	47.681	0	817.90	0	3.3720	0	34.2930	0	27.291	0	809.464	0	-1e10	8	-1e10	8	-1E+10	1	-1E+10	1	-1E+10	1	-1E+10	1	-1E+10	1	-1E+10	1
4902554	84	C	06/05/2023	09:01	-132.783	47.681	0	822.80	0	3.3570	0	34.2970	0	27.296	0	814.304	0	-1e10	8	-1e10	8	-1E+10	1	-1E+10	1	-1E+10	1	-1E+10	1	-1E+10	1	-1E+10	1
4902554	84	C	06/05/2023	09:01	-132.783	47.681	0	827.90	0	3.3490	0	34.2980	0	27.298	0	819.341	0	-1e10	8	-1e10	8	-1E+10	1	-1E+10	1	-1E+10	1	-1E+10	1	-1E+10	1	-1E+10	1
4902554	84	C	06/05/2023	09:01	-132.783	47.681	0	832.90	0	3.3400	0	34.3010	0	27.301	0	824.280	0	-1e10	8	-1e10	8	-1E+10	1	-1E+10	1	-1E+10	1	-1E+10	1	-1E+10	1	-1E+10	1
4902554	84	C	06/05/2023	09:01	-132.783	47.681	0	838.00	0	3.3310	0	34.3020	0	27.303	0	829.317	0	-1e10	8	-1e10	8	-1E+10	1	-1E+10	1	-1E+10	1	-1E+10	1	-1E+10	1	-1E+10	1
4902554	84	C	06/05/2023	09:01	-132.783	47.681	0	843.10	0	3.3130	0	34.3050	0	27.307	0	834.354	0	-1e10	8	-1e10	8	-1E+10	1	-1E+10	1	-1E+10	1	-1E+10	1	-1E+10	1	-1E+10	1
4902554	84	C	06/05/2023	09:01	-132.783	47.681	0	847.90	0	3.3010	0	34.3080	0	27.310	0	839.094	0	-1e10	8	-1e10	8	-1E+10	1	-1E+10	1	-1E+10	1	-1E+10	1	-1E+10	1	-1E+10	1
4902554	84	C	06/05/2023	09:01	-132.783	47.681	0	852.80	0	3.2900	0	34.3100	0	27.313	0	843.934	0	-1e10	8	-1e10	8	-1E+10	1	-1E+10	1	-1E+10	1	-1E+10	1	-1E+10	1	-1E+10	1
4902554	84	C	06/05/2023	09:01	-132.783	47.681	0	857.90	0	3.2820	0	34.3120	0	27.315	0	848.970	0	-1e10	8	-1e10	8	-1E+10	1	-1E+10	1	-1E+10	1	-1E+10	1	-1E+10	1	-1E+10	1
4902554	84	C	06/05/2023	09:01	-132.783	47.681	0	863.10	0	3.2740	0	34.3140	0	27.318	0	854.105	0	-1e10	8	-1e10	8	-1E+10	1	-1E+10	1	-1E+10	1	-1E+10	1	-1E+10	1	-1E+10	1
4902554	84	C	06/05/2023	09:01	-132.783	47.681	0	868.00	0	3.2690	0	34.3160	0	27.320	0	858.944	0	-1e10	8	-1e10	8	-1E+10	1	-1E+10	1	-1E+10	1	-1E+10	1	-1E+10	1	-1E+10	1
4902554	84	C	06/05/2023	09:01	-132.783	47.681	0	873.00	0	3.2620	0	34.3170	0	27.321	0	863.882	0	-1e10	8	-1e10	8	-1E+10	1	-1E+10	1	-1E+10	1	-1E+10	1	-1E+10	1	-1E+10	1
4902554	84	C	06/05/2023	09:01	-132.783	47.681	0	878.20	0	3.2490	0	34.3200	0	27.325	0	869.017	0	-1e10	8	-1e10	8	-1E+10	1	-1E+10	1	-1E+10	1	-1E+10	1	-1E+10	1	-1E+10	1
4902554	84	C	06/05/2023	09:01	-132.783	47.681	0	883.00	0	3.2370	0	34.3230	0	27.328	0	873.757	0	-1e10	8	-1e10	8	-1E+10	1	-1E+10	1	-1E+10	1	-1E+10	1	-1E+10	1	-1E+10	1
4902554	84	C	06/05/2023	09:01	-132.783	47.681	0	887.80	0	3.2300	0	34.3240	0	27.330	0	878.496	0	-1e10	8	-1e10	8	-1E+10	1	-1E+10	1	-1E+10	1	-1E+10	1	-1E+10	1	-1E+10	1
4902554	84	C	06/05/2023	09:01	-132.783	47.681	0	892.80	0	3.2240	0	34.3260	0	27.332	0	883.433	0	-1e10	8	-1e10	8	-1E+10	1	-1E+10	1	-1E+10	1	-1E+10	1	-1E+10	1	-1E+10	1
4902554	84	C	06/05/2023	09:01	-132.783	47.681	0	897.80	0	3.2200	0	34.3270	0	27.333	0	888.370	0	-1e10	8	-1e10	8	-1E+10	1	-1E+10	1	-1E+10	1	-1E+10	1	-1E+10	1	-1E+10	1
4902554	84	C	06/05/2023	09:01	-132.783	47.681	0	902.90	0	3.2140	0	34.3290	0	27.336	0	893.406	0	-1e10	8	-1e10	8	-1E+10	1	-1E+10	1	-1E+10	1	-1E+10	1	-1E+10	1	-1E+10	1
4902554	84	C	06/05/2023	09:01	-132.783	47.681	0	908.20	0	3.2110	0	34.3300	0	27.337	0	898.639	0	-1e10	8	-1e10	8	-1E+10	1	-1E+10	1	-1E+10	1	-1E+10	1	-1E+10	1	-1E+10	1
4902554	84	C	06/05/2023	09:01	-132.783	47.681	0	912.80	0	3.2050	0	34.3310	0	27.338	0	903.180	0	-1e10	8	-1e10	8	-1E+10	1	-1E+10	1	-1E+10	1	-1E+10	1	-1E+10	1	-1E+10	1
4902554	84	C	06/05/2023	09:01	-132.783	47.681	0	917.60	0	3.2020	0	34.3320	0	27.339	0	907.919	0	-1e10	8	-1e10	8	-1E+10	1	-1E+10	1	-1E+10	1	-1E+10	1	-1E+10	1	-1E+10	1
4902554	84	C	06/05/2023	09:01	-132.783	47.681	0	922.80	0	3.1940	0	34.3340	0	27.341	0	913.053	0	-1e10	8	-1e10	8	-1E+10	1	-1E+10	1	-1E+10	1	-1E+10	1	-1E+10	1	-1E+10	1
4902554	84	C	06/05/2023	09:01	-132.783	47.681	0	928.10	0	3.1860	0	34.3360	0	27.344	0	918.285	0	-1e10	8	-1e10	8	-1E+10	1	-1E+10	1	-1E+10	1	-1E+10	1	-1E+10	1	-1E+10	1
4902554	84	C	06/05/2023	09:01	-132.783	47.681	0	932.80	0	3.1800	0	34.3370	0	27.345	0	922.925	0	-1e10	8	-1e10	8	-1E+10	1	-1E+10	1	-1E+10	1	-1E+10	1	-1E+10	1	-1E+10	1
4902554	84	C	06/05/2023	09:01	-132.783	47.681	0	937.50	0	3.1740	0	34.3390	0	27.347	0	927.565	0	-1e10	8	-1e10	8	-1E+10	1	-1E+10	1	-1E+10	1	-1E+10	1	-1E+10	1	-1E+10	1
4902554	84	C	06/05/2023	09:01	-132.783	47.681	0	942.80	0	3.1660	0	34.3410	0	27.350	0	932.797	0	-1e10	8	-1e10	8	-1E+10	1	-1E+10	1	-1E+10	1	-1E+10	1	-1E+10	1	-1E+10	1
4902554	84	C	06/05/2023	09:01	-132.783	47.681	0	948.00	0	3.1610	0	34.3420	0	27.351	0	937.930	0	-1e10	8	-1e10	8	-1E+10	1	-1E+10	1	-1E+10	1	-1E+10	1	-1E+10	1	-1E+10	1
4902554	84	C	06/05/2023	09:01	-132.783	47.681	0	953.20	0	3.1560	0	34.3430	0	27.352	0	943.064	0	-1e10	8	-1e10	8	-1E+10	1	-1E+10	1	-1E+10	1	-1E+10	1	-1E+10	1	-1E+10	1
4902554	84	C	06/05/2023	09:01	-132.783	47.681	0	957.90	0	3.1500	0	34.3450	0	27.355	0	947.703	0	-1e10	8	-1e10	8	-1E+10	1	-1E+10	1	-1E+10	1	-1E+10	1	-1E+10	1	-1E+10	1
4902554	84	C	06/05/2023	09:01	-132.783	47.681	0	962.60	0	3.1460	0	34.3460	0	27.356	0	952.342	0	-1e10	8	-1e10	8	-1E+10	1	-1E+10	1	-1E+10	1	-1E+10	1	-1E+10	1	-1E+10	1
4902554	84	C	06/05/2023	09:01	-132.783	47.681	0	967.70	0	3.1400	0	34.3470	0	27.357	0	957.376	0	-1e10	8	-1e10	8	-1E+10	1	-1E+10	1	-1E+10	1	-1E+10	1	-1E+10	1	-1E+10	1
4902554	84	C	06/05/2023	09:01	-132.783	47.681	0	972.90	0	3.1330	0	34.3490	0	27.359	0	962.509	0	-1e10	8	-1e10	8	-1E+10	1	-1E+10	1	-1E+10	1	-1E+10	1	-1E+10	1	-1E+10	1
4902554	84	C	06/05/2023	09:01	-132.783	47.681	0	977.90	0	3.1270	0	34.3510	0	27.362	0	967.444	0	-1e10	8	-1e10	8	-1E+10	1	-1E+10	1	-1E+10	1	-1E+10	1	-1E+10	1	-1E+10	1
4902554	84	C	06/05/2023	09:01	-132.783	47.681	0	982.80	0	3.1190	0	34.3530	0	27.364	0	972.280	0	-1e10	8	-1e10	8	-1E+10	1	-1E+10	1	-1E+10	1	-1E+10	1	-1E+10	1	-1E+10	1
4902554	84	C	06/05/2023	09:01	-132.783	47.681	0	987.70	0	3.1100	0	34.3540	0	27.366	0	977.116	0	-1e10	8	-1e10	8	-1E+10	1	-1E+10	1	-1E+10	1	-1E+10	1	-1E+10	1	-1E+10	1
4902554	84	C	06/05/2023	09:01	-132.783	47.681	0	992.60	0	3.0970	0	34.3580	0	27.370	0	981.952	0	-1e10	8	-1e10	8	-1E+10	1	-1E+10	1	-1E+10	1	-1E+10	1	-1E+10	1	-1E+10	1
4902554	84	C	06/05/2023	09:01	-132.783	47.681	0	998.00	0	3.0880	0	34.3600	0	27.372	0	987.282	0	-1e10	8	-1e10	8	-1E+10	1	-1E+10	1	-1E+10	1	-1E+10	1	-1E+10	1	-1E+10	1
4902554	84	C	06/05/2023	09:01	-132.783	47.681	0	1005.70	0	3.0770	0	34.3620	0	27.375	0	994.881	0	-1e10	8	-1e10	8	-1E+10	1	-1E+10	1	-1E+10	1	-1E+10	1	-1E+10	1	-1E+10	1
4902554	84	C	06/05/2023	09:01	-132.783	47.681	0	1015.30	0	3.0650	0	34.3650	0	27.379	0	1004.354	0	-1e10	8	-1e10	8	-1E+10	1	-1E+10	1	-1E+10	1	-1E+10	1	-1E+10	1	-1E+10	1
4902554	84	C	06/05/2023	09:01	-132.783	47.681	0	1025.30	0	3.0470	0	34.3690	0	27.384	0	1014.222	0	-1e10	8	-1e10	8	-1E+10	1	-1E+10	1	-1E+10	1	-1E+10	1	-1E+10	1	-1E+10	1
4902554	84	C	06/05/2023	09:01	-132.783	47.681	0	1035.20	0	3.0260	0	34.3750	0	27.390	0	1023.991	0	-1e10	8	-1e10	8	-1E+10	1	-1E+10	1	-1E+10	1	-1E+10	1	-1E+10	1	-1E+10	1
4902554	84	C	06/05/2023	09:01	-132.783	47.681	0	1045.20	0	3.0100	0	34.3790	0	27.395	0	1033.858	0	-1e10	8	-1e10	8	-1E+10	1	-1E+10	1	-1E+10	1	-1E+10	1	-1E+10	1	-1E+10	1
4902554	84	C	06/05/2023	09:01	-132.783	47.681	0	1055.50	0	2.9950	0	34.3830	0	27.400	0	1044.021	0	-1e10	8	-1e10	8	-1E+10	1	-1E+10	1	-1E+10	1	-1E+10	1	-1E+10	1	-1E+10	1
4902554	84	C	06/05/2023	09:01	-132.783	47.681	0	1065.50	0	2.9830	0	34.3860	0	27.403	0	1053.887	0	-1e10	8	-1e10	8	-1E+10	1	-1E+10	1	-1E+10	1	-1E+10	1	-1E+10	1	-1E+10	1
4902554	84	C	06/05/2023	09:01	-132.783	47.681	0	1075.90	0	2.9640	0	34.3900	0	27.408	0	1064.147	0	-1e10	8	-1e10	8	-1E+10	1	-1E+10	1	-1E+10	1	-1E+10	1	-1E+10	1	-1E+10	1
4902554	84	C	06/05/2023	09:01	-132.783	47.681	0	1085.50	0	2.9500	0	34.3930	0	27.412	0	1073.618	0	-1e10	8	-1e10	8	-1E+10	1	-1E+10	1	-1E+10	1	-1E+10	1	-1E+10	1	-1E+10	1
4902554	84	C	06/05/2023	09:01	-132.783	47.681	0	1095.50	0	2.9340	0	34.3960	0	27.416	0	1083.483	0	-1e10	8	-1e10	8	-1E+10	1	-1E+10	1	-1E+10	1	-1E+10	1	-1E+10	1	-1E+10	1
4902554	84	C	06/05/2023	09:01	-132.783	47.681	0	1105.70	0	2.9160	0	34.4000	0	27.421	0	1093.544	0	-1e10	8	-1e10	8	-1E+10	1	-1E+10	1	-1E+10	1	-1E+10	1	-1E+10	1	-1E+10	1
4902554	84	C	06/05/2023	09:01	-132.783	47.681	0	1115.50	0	2.9100	0	34.4010	0	27.422	0	1103.211	0	-1e10	8	-1e10	8	-1E+10	1	-1E+10	1	-1E+10	1	-1E+10	1	-1E+10	1	-1E+10	1
4902554	84	C	06/05/2023	09:01	-132.783	47.681	0	1125.30	0	2.9040	0	34.4020	0	27.423	0	1112.877	0	-1e10	8	-1e10	8	-1E+10	1	-1E+10	1	-1E+10	1	-1E+10	1	-1E+10	1	-1E+10	1
4902554	84	C	06/05/2023	09:01	-132.783	47.681	0	1135.30	0	2.8940	0	34.4050	0	27.427	0	1122.740	0	-1e10	8	-1e10	8	-1E+10	1	-1E+10	1	-1E+10	1	-1E+10	1	-1E+10	1	-1E+10	1
4902554	84	C	06/05/2023	09:01	-132.783	47.681	0	1145.60	0	2.8760	0	34.4080	0	27.431	0	1132.898	0	-1e10	8	-1e10	8	-1E+10	1	-1E+10	1	-1E+10	1	-1E+10	1	-1E+10	1	-1E+10	1
4902554	84	C	06/05/2023	09:01	-132.783	47.681	0	1155.50	0	2.8590	0	34.4110	0	27.435	0	1142.661	0	-1e10	8	-1e10	8	-1E+10	1	-1E+10	1	-1E+10	1	-1E+10	1	-1E+10	1	-1E+10	1
4902554	84	C	06/05/2023	09:01	-132.783	47.681	0	1165.40	0	2.8540	0	34.4120	0	27.436	0	1152.424	0	-1e10	8	-1e10	8	-1E+10	1	-1E+10	1	-1E+10	1	-1E+10	1	-1E+10	1	-1E+10	1
4902554	84	C	06/05/2023	09:01	-132.783	47.681	0	1175.40	0	2.8360	0	34.4150	0	27.440	0	1162.285	0	-1e10	8	-1e10	8	-1E+10	1	-1E+10	1	-1E+10	1	-1E+10	1	-1E+10	1	-1E+10	1
4902554	84	C	06/05/2023	09:01	-132.783	47.681	0	1185.10	0	2.8170	0	34.4190	0	27.445	0	1171.850	0	-1e10	8	-1e10	8	-1E+10	1	-1E+10	1	-1E+10	1	-1E+10	1	-1E+10	1	-1E+10	1
4902554	84	C	06/05/2023	09:01	-132.783	47.681	0	1195.30	0	2.8050	0	34.4220	0	27.448	0	1181.907	0	-1e10	8	-1e10	8	-1E+10	1	-1E+10	1	-1E+10	1	-1E+10	1	-1E+10	1	-1E+10	1
4902554	84	C	06/05/2023	09:01	-132.783	47.681	0	1205.80	0	2.7900	0	34.4250	0	27.452	0	1192.260	0	-1e10	8	-1e10	8	-1E+10	1	-1E+10	1	-1E+10	1	-1E+10	1	-1E+10	1	-1E+10	1
4902554	84	C	06/05/2023	09:01	-132.783	47.681	0	1215.30	0	2.7790	0	34.4270	0	27.455	0	1201.626	0	-1e10	8	-1e10	8	-1E+10	1	-1E+10	1	-1E+10	1	-1E+10	1	-1E+10	1	-1E+10	1
4902554	84	C	06/05/2023	09:01	-132.783	47.681	0	1225.00	0	2.7600	0	34.4300	0	27.459	0	1211.189	0	-1e10	8	-1e10	8	-1E+10	1	-1E+10	1	-1E+10	1	-1E+10	1	-1E+10	1	-1E+10	1
4902554	84	C	06/05/2023	09:01	-132.783	47.681	0	1235.20	0	2.7440	0	34.4330	0	27.463	0	1221.244	0	-1e10	8	-1e10	8	-1E+10	1	-1E+10	1	-1E+10	1	-1E+10	1	-1E+10	1	-1E+10	1
4902554	84	C	06/05/2023	09:01	-132.783	47.681	0	1245.40	0	2.7300	0	34.4360	0	27.466	0	1231.299	0	-1e10	8	-1e10	8	-1E+10	1	-1E+10	1	-1E+10	1	-1E+10	1	-1E+10	1	-1E+10	1
4902554	84	C	06/05/2023	09:01	-132.783	47.681	0	1255.20	0	2.7220	0	34.4380	0	27.469	0	1240.960	0	-1e10	8	-1e10	8	-1E+10	1	-1E+10	1	-1E+10	1	-1E+10	1	-1E+10	1	-1E+10	1
4902554	84	C	06/05/2023	09:01	-132.783	47.681	0	1265.10	0	2.7020	0	34.4420	0	27.474	0	1250.718	0	-1e10	8	-1e10	8	-1E+10	1	-1E+10	1	-1E+10	1	-1E+10	1	-1E+10	1	-1E+10	1
4902554	84	C	06/05/2023	09:01	-132.783	47.681	0	1275.60	0	2.6800	0	34.4450	0	27.478	0	1261.067	0	-1e10	8	-1e10	8	-1E+10	1	-1E+10	1	-1E+10	1	-1E+10	1	-1E+10	1	-1E+10	1
4902554	84	C	06/05/2023	09:01	-132.783	47.681	0	1285.60	0	2.6650	0	34.4490	0	27.483	0	1270.923	0	-1e10	8	-1e10	8	-1E+10	1	-1E+10	1	-1E+10	1	-1E+10	1	-1E+10	1	-1E+10	1
4902554	84	C	06/05/2023	09:01	-132.783	47.681	0	1295.20	0	2.6440	0	34.4530	0	27.488	0	1280.384	0	-1e10	8	-1e10	8	-1E+10	1	-1E+10	1	-1E+10	1	-1E+10	1	-1E+10	1	-1E+10	1
4902554	84	C	06/05/2023	09:01	-132.783	47.681	0	1305.40	0	2.6300	0	34.4560	0	27.491	0	1290.436	0	-1e10	8	-1e10	8	-1E+10	1	-1E+10	1	-1E+10	1	-1E+10	1	-1E+10	1	-1E+10	1
4902554	84	C	06/05/2023	09:01	-132.783	47.681	0	1315.50	0	2.6140	0	34.4590	0	27.495	0	1300.389	0	-1e10	8	-1e10	8	-1E+10	1	-1E+10	1	-1E+10	1	-1E+10	1	-1E+10	1	-1E+10	1
4902554	84	C	06/05/2023	09:01	-132.783	47.681	0	1325.60	0	2.5950	0	34.4630	0	27.500	0	1310.342	0	-1e10	8	-1e10	8	-1E+10	1	-1E+10	1	-1E+10	1	-1E+10	1	-1E+10	1	-1E+10	1
4902554	84	C	06/05/2023	09:01	-132.783	47.681	0	1335.80	0	2.5790	0	34.4660	0	27.504	0	1320.393	0	-1e10	8	-1e10	8	-1E+10	1	-1E+10	1	-1E+10	1	-1E+10	1	-1E+10	1	-1E+10	1
4902554	84	C	06/05/2023	09:01	-132.783	47.681	0	1345.50	0	2.5670	0	34.4680	0	27.507	0	1329.950	0	-1e10	8	-1e10	8	-1E+10	1	-1E+10	1	-1E+10	1	-1E+10	1	-1E+10	1	-1E+10	1
4902554	84	C	06/05/2023	09:01	-132.783	47.681	0	1355.30	0	2.5470	0	34.4710	0	27.511	0	1339.606	0	-1e10	8	-1e10	8	-1E+10	1	-1E+10	1	-1E+10	1	-1E+10	1	-1E+10	1	-1E+10	1
4902554	84	C	06/05/2023	09:01	-132.783	47.681	0	1365.40	0	2.5380	0	34.4730	0	27.513	0	1349.557	0	-1e10	8	-1e10	8	-1E+10	1	-1E+10	1	-1E+10	1	-1E+10	1	-1E+10	1	-1E+10	1
4902554	84	C	06/05/2023	09:01	-132.783	47.681	0	1375.10	0	2.5260	0	34.4750	0	27.516	0	1359.113	0	-1e10	8	-1e10	8	-1E+10	1	-1E+10	1	-1E+10	1	-1E+10	1	-1E+10	1	-1E+10	1
4902554	84	C	06/05/2023	09:01	-132.783	47.681	0	1385.10	0	2.5140	0	34.4770	0	27.518	0	1368.964	0	-1e10	8	-1e10	8	-1E+10	1	-1E+10	1	-1E+10	1	-1E+10	1	-1E+10	1	-1E+10	1
4902554	84	C	06/05/2023	09:01	-132.783	47.681	0	1395.10	0	2.4930	0	34.4810	0	27.523	0	1378.815	0	-1e10	8	-1e10	8	-1E+10	1	-1E+10	1	-1E+10	1	-1E+10	1	-1E+10	1	-1E+10	1
4902554	84	C	06/05/2023	09:01	-132.783	47.681	0	1405.30	0	2.4830	0	34.4830	0	27.526	0	1388.862	0	-1e10	8	-1e10	8	-1E+10	1	-1E+10	1	-1E+10	1	-1E+10	1	-1E+10	1	-1E+10	1
4902554	84	C	06/05/2023	09:01	-132.783	47.681	0	1415.30	0	2.4690	0	34.4860	0	27.530	0	1398.712	0	-1e10	8	-1e10	8	-1E+10	1	-1E+10	1	-1E+10	1	-1E+10	1	-1E+10	1	-1E+10	1
4902554	84	C	06/05/2023	09:01	-132.783	47.681	0	1425.10	0	2.4530	0	34.4890	0	27.533	0	1408.365	0	-1e10	8	-1e10	8	-1E+10	1	-1E+10	1	-1E+10	1	-1E+10	1	-1E+10	1	-1E+10	1
4902554	84	C	06/05/2023	09:01	-132.783	47.681	0	1435.10	0	2.4420	0	34.4910	0	27.536	0	1418.214	0	-1e10	8	-1e10	8	-1E+10	1	-1E+10	1	-1E+10	1	-1E+10	1	-1E+10	1	-1E+10	1
4902554	84	C	06/05/2023	09:01	-132.783	47.681	0	1445.10	0	2.4290	0	34.4930	0	27.539	0	1428.062	0	-1e10	8	-1e10	8	-1E+10	1	-1E+10	1	-1E+10	1	-1E+10	1	-1E+10	1	-1E+10	1
4902554	84	C	06/05/2023	09:01	-132.783	47.681	0	1455.00	0	2.4150	0	34.4960	0	27.542	0	1437.812	0	-1e10	8	-1e10	8	-1E+10	1	-1E+10	1	-1E+10	1	-1E+10	1	-1E+10	1	-1E+10	1
4902554	84	C	06/05/2023	09:01	-132.783	47.681	0	1465.10	0	2.4100	0	34.4970	0	27.544	0	1447.758	0	-1e10	8	-1e10	8	-1E+10	1	-1E+10	1	-1E+10	1	-1E+10	1	-1E+10	1	-1E+10	1
4902554	84	C	06/05/2023	09:01	-132.783	47.681	0	1475.30	0	2.3930	0	34.5000	0	27.547	0	1457.802	0	-1e10	8	-1e10	8	-1E+10	1	-1E+10	1	-1E+10	1	-1E+10	1	-1E+10	1	-1E+10	1
4902554	84	C	06/05/2023	09:01	-132.783	47.681	0	1485.60	0	2.3850	0	34.5020	0	27.550	0	1467.944	0	-1e10	8	-1e10	8	-1E+10	1	-1E+10	1	-1E+10	1	-1E+10	1	-1E+10	1	-1E+10	1
4902554	84	C	06/05/2023	09:01	-132.783	47.681	0	1495.50	0	2.3750	0	34.5040	0	27.552	0	1477.692	0	-1e10	8	-1e10	8	-1E+10	1	-1E+10	1	-1E+10	1	-1E+10	1	-1E+10	1	-1E+10	1
4902554	84	C	06/05/2023	09:01	-132.783	47.681	0	1505.40	0	2.3640	0	34.5060	0	27.555	0	1487.439	0	-1e10	8	-1e10	8	-1E+10	1	-1E+10	1	-1E+10	1	-1E+10	1	-1E+10	1	-1E+10	1
4902554	84	C	06/05/2023	09:01	-132.783	47.681	0	1515.60	0	2.3600	0	34.5070	0	27.556	0	1497.481	0	-1e10	8	-1e10	8	-1E+10	1	-1E+10	1	-1E+10	1	-1E+10	1	-1E+10	1	-1E+10	1
4902554	84	C	06/05/2023	09:01	-132.783	47.681	0	1525.70	0	2.3540	0	34.5080	0	27.557	0	1507.424	0	-1e10	8	-1e10	8	-1E+10	1	-1E+10	1	-1E+10	1	-1E+10	1	-1E+10	1	-1E+10	1
4902554	84	C	06/05/2023	09:01	-132.783	47.681	0	1535.80	0	2.3400	0	34.5110	0	27.561	0	1517.367	0	-1e10	8	-1e10	8	-1E+10	1	-1E+10	1	-1E+10	1	-1E+10	1	-1E+10	1	-1E+10	1
4902554	84	C	06/05/2023	09:01	-132.783	47.681	0	1545.60	0	2.3190	0	34.5140	0	27.565	0	1527.014	0	-1e10	8	-1e10	8	-1E+10	1	-1E+10	1	-1E+10	1	-1E+10	1	-1E+10	1	-1E+10	1
4902554	84	C	06/05/2023	09:01	-132.783	47.681	0	1555.60	0	2.3060	0	34.5170	0	27.569	0	1536.858	0	-1e10	8	-1e10	8	-1E+10	1	-1E+10	1	-1E+10	1	-1E+10	1	-1E+10	1	-1E+10	1
4902554	84	C	06/05/2023	09:01	-132.783	47.681	0	1565.40	0	2.2930	0	34.5200	0	27.572	0	1546.504	0	-1e10	8	-1e10	8	-1E+10	1	-1E+10	1	-1E+10	1	-1E+10	1	-1E+10	1	-1E+10	1
4902554	84	C	06/05/2023	09:01	-132.783	47.681	0	1575.20	0	2.2790	0	34.5220	0	27.575	0	1556.149	0	-1e10	8	-1e10	8	-1E+10	1	-1E+10	1	-1E+10	1	-1E+10	1	-1E+10	1	-1E+10	1
4902554	84	C	06/05/2023	09:01	-132.783	47.681	0	1585.20	0	2.2690	0	34.5240	0	27.577	0	1565.992	0	-1e10	8	-1e10	8	-1E+10	1	-1E+10	1	-1E+10	1	-1E+10	1	-1E+10	1	-1E+10	1
4902554	84	C	06/05/2023	09:01	-132.783	47.681	0	1595.30	0	2.2630	0	34.5250	0	27.579	0	1575.932	0	-1e10	8	-1e10	8	-1E+10	1	-1E+10	1	-1E+10	1	-1E+10	1	-1E+10	1	-1E+10	1
4902554	84	C	06/05/2023	09:01	-132.783	47.681	0	1605.30	0	2.2590	0	34.5260	0	27.580	0	1585.773	0	-1e10	8	-1e10	8	-1E+10	1	-1E+10	1	-1E+10	1	-1E+10	1	-1E+10	1	-1E+10	1
4902554	84	C	06/05/2023	09:01	-132.783	47.681	0	1615.30	0	2.2490	0	34.5280	0	27.582	0	1595.614	0	-1e10	8	-1e10	8	-1E+10	1	-1E+10	1	-1E+10	1	-1E+10	1	-1E+10	1	-1E+10	1
4902554	84	C	06/05/2023	09:01	-132.783	47.681	0	1625.20	0	2.2420	0	34.5290	0	27.584	0	1605.355	0	-1e10	8	-1e10	8	-1E+10	1	-1E+10	1	-1E+10	1	-1E+10	1	-1E+10	1	-1E+10	1
4902554	84	C	06/05/2023	09:01	-132.783	47.681	0	1635.50	0	2.2230	0	34.5320	0	27.588	0	1615.490	0	-1e10	8	-1e10	8	-1E+10	1	-1E+10	1	-1E+10	1	-1E+10	1	-1E+10	1	-1E+10	1
4902554	84	C	06/05/2023	09:01	-132.783	47.681	0	1645.40	0	2.2110	0	34.5340	0	27.590	0	1625.231	0	-1e10	8	-1e10	8	-1E+10	1	-1E+10	1	-1E+10	1	-1E+10	1	-1E+10	1	-1E+10	1
4902554	84	C	06/05/2023	09:01	-132.783	47.681	0	1655.20	0	2.1960	0	34.5380	0	27.595	0	1634.873	0	-1e10	8	-1e10	8	-1E+10	1	-1E+10	1	-1E+10	1	-1E+10	1	-1E+10	1	-1E+10	1
4902554	84	C	06/05/2023	09:01	-132.783	47.681	0	1665.30	0	2.1860	0	34.5390	0	27.596	0	1644.810	0	-1e10	8	-1e10	8	-1E+10	1	-1E+10	1	-1E+10	1	-1E+10	1	-1E+10	1	-1E+10	1
4902554	84	C	06/05/2023	09:01	-132.783	47.681	0	1675.30	0	2.1780	0	34.5410	0	27.599	0	1654.648	0	-1e10	8	-1e10	8	-1E+10	1	-1E+10	1	-1E+10	1	-1E+10	1	-1E+10	1	-1E+10	1
4902554	84	C	06/05/2023	09:01	-132.783	47.681	0	1685.60	0	2.1680	0	34.5430	0	27.601	0	1664.781	0	-1e10	8	-1e10	8	-1E+10	1	-1E+10	1	-1E+10	1	-1E+10	1	-1E+10	1	-1E+10	1
4902554	84	C	06/05/2023	09:01	-132.783	47.681	0	1695.60	0	2.1560	0	34.5460	0	27.605	0	1674.618	0	-1e10	8	-1e10	8	-1E+10	1	-1E+10	1	-1E+10	1	-1E+10	1	-1E+10	1	-1E+10	1
4902554	84	C	06/05/2023	09:01	-132.783	47.681	0	1705.40	0	2.1380	0	34.5480	0	27.608	0	1684.258	0	-1e10	8	-1e10	8	-1E+10	1	-1E+10	1	-1E+10	1	-1E+10	1	-1E+10	1	-1E+10	1
4902554	84	C	06/05/2023	09:01	-132.783	47.681	0	1715.50	0	2.1260	0	34.5520	0	27.612	0	1694.192	0	-1e10	8	-1e10	8	-1E+10	1	-1E+10	1	-1E+10	1	-1E+10	1	-1E+10	1	-1E+10	1
4902554	84	C	06/05/2023	09:01	-132.783	47.681	0	1725.30	0	2.1170	0	34.5530	0	27.613	0	1703.831	0	-1e10	8	-1e10	8	-1E+10	1	-1E+10	1	-1E+10	1	-1E+10	1	-1E+10	1	-1E+10	1
4902554	84	C	06/05/2023	09:01	-132.783	47.681	0	1735.30	0	2.1100	0	34.5550	0	27.616	0	1713.666	0	-1e10	8	-1e10	8	-1E+10	1	-1E+10	1	-1E+10	1	-1E+10	1	-1E+10	1	-1E+10	1
4902554	84	C	06/05/2023	09:01	-132.783	47.681	0	1745.70	0	2.0980	0	34.5580	0	27.619	0	1723.894	0	-1e10	8	-1e10	8	-1E+10	1	-1E+10	1	-1E+10	1	-1E+10	1	-1E+10	1	-1E+10	1
4902554	84	C	06/05/2023	09:01	-132.783	47.681	0	1755.50	0	2.0890	0	34.5600	0	27.621	0	1733.532	0	-1e10	8	-1e10	8	-1E+10	1	-1E+10	1	-1E+10	1	-1E+10	1	-1E+10	1	-1E+10	1
4902554	84	C	06/05/2023	09:01	-132.783	47.681	0	1765.30	0	2.0820	0	34.5610	0	27.623	0	1743.169	0	-1e10	8	-1e10	8	-1E+10	1	-1E+10	1	-1E+10	1	-1E+10	1	-1E+10	1	-1E+10	1
4902554	84	C	06/05/2023	09:01	-132.783	47.681	0	1775.30	0	2.0720	0	34.5630	0	27.625	0	1753.002	0	-1e10	8	-1e10	8	-1E+10	1	-1E+10	1	-1E+10	1	-1E+10	1	-1E+10	1	-1E+10	1
4902554	84	C	06/05/2023	09:01	-132.783	47.681	0	1785.40	0	2.0560	0	34.5650	0	27.628	0	1762.934	0	-1e10	8	-1e10	8	-1E+10	1	-1E+10	1	-1E+10	1	-1E+10	1	-1E+10	1	-1E+10	1
4902554	84	C	06/05/2023	09:01	-132.783	47.681	0	1795.60	0	2.0410	0	34.5680	0	27.632	0	1772.963	0	-1e10	8	-1e10	8	-1E+10	1	-1E+10	1	-1E+10	1	-1E+10	1	-1E+10	1	-1E+10	1
4902554	84	C	06/05/2023	09:01	-132.783	47.681	0	1805.60	0	2.0320	0	34.5700	0	27.634	0	1782.795	0	-1e10	8	-1e10	8	-1E+10	1	-1E+10	1	-1E+10	1	-1E+10	1	-1E+10	1	-1E+10	1
4902554	84	C	06/05/2023	09:01	-132.783	47.681	0	1815.40	0	2.0250	0	34.5710	0	27.636	0	1792.430	0	-1e10	8	-1e10	8	-1E+10	1	-1E+10	1	-1E+10	1	-1E+10	1	-1E+10	1	-1E+10	1
4902554	84	C	06/05/2023	09:01	-132.783	47.681	0	1825.30	0	2.0170	0	34.5730	0	27.638	0	1802.162	0	-1e10	8	-1e10	8	-1E+10	1	-1E+10	1	-1E+10	1	-1E+10	1	-1E+10	1	-1E+10	1
4902554	84	C	06/05/2023	09:01	-132.783	47.681	0	1835.60	0	2.0110	0	34.5730	0	27.638	0	1812.288	0	-1e10	8	-1e10	8	-1E+10	1	-1E+10	1	-1E+10	1	-1E+10	1	-1E+10	1	-1E+10	1
4902554	84	C	06/05/2023	09:01	-132.783	47.681	0	1845.40	0	2.0070	0	34.5740	0	27.640	0	1821.922	0	-1e10	8	-1e10	8	-1E+10	1	-1E+10	1	-1E+10	1	-1E+10	1	-1E+10	1	-1E+10	1
4902554	84	C	06/05/2023	09:01	-132.783	47.681	0	1855.20	0	2.0030	0	34.5760	0	27.642	0	1831.555	0	-1e10	8	-1e10	8	-1E+10	1	-1E+10	1	-1E+10	1	-1E+10	1	-1E+10	1	-1E+10	1
4902554	84	C	06/05/2023	09:01	-132.783	47.681	0	1865.40	0	1.9970	0	34.5770	0	27.643	0	1841.581	0	-1e10	8	-1e10	8	-1E+10	1	-1E+10	1	-1E+10	1	-1E+10	1	-1E+10	1	-1E+10	1
4902554	84	C	06/05/2023	09:01	-132.783	47.681	0	1875.30	0	1.9930	0	34.5780	0	27.644	0	1851.311	0	-1e10	8	-1e10	8	-1E+10	1	-1E+10	1	-1E+10	1	-1E+10	1	-1E+10	1	-1E+10	1
4902554	84	C	06/05/2023	09:01	-132.783	47.681	0	1885.30	0	1.9830	0	34.5790	0	27.646	0	1861.139	0	-1e10	8	-1e10	8	-1E+10	1	-1E+10	1	-1E+10	1	-1E+10	1	-1E+10	1	-1E+10	1
4902554	84	C	06/05/2023	09:01	-132.783	47.681	0	1895.70	0	1.9750	0	34.5800	0	27.647	0	1871.360	0	-1e10	8	-1e10	8	-1E+10	1	-1E+10	1	-1E+10	1	-1E+10	1	-1E+10	1	-1E+10	1
4902554	84	C	06/05/2023	09:01	-132.783	47.681	0	1905.50	0	1.9690	0	34.5820	0	27.649	0	1880.991	0	-1e10	8	-1e10	8	-1E+10	1	-1E+10	1	-1E+10	1	-1E+10	1	-1E+10	1	-1E+10	1
4902554	84	C	06/05/2023	09:01	-132.783	47.681	0	1915.40	0	1.9640	0	34.5830	0	27.650	0	1890.720	0	-1e10	8	-1e10	8	-1E+10	1	-1E+10	1	-1E+10	1	-1E+10	1	-1E+10	1	-1E+10	1
4902554	84	C	06/05/2023	09:01	-132.783	47.681	0	1925.30	0	1.9600	0	34.5830	0	27.651	0	1900.448	0	-1e10	8	-1e10	8	-1E+10	1	-1E+10	1	-1E+10	1	-1E+10	1	-1E+10	1	-1E+10	1
4902554	84	C	06/05/2023	09:01	-132.783	47.681	0	1935.30	0	1.9590	0	34.5840	0	27.652	0	1910.274	0	-1e10	8	-1e10	8	-1E+10	1	-1E+10	1	-1E+10	1	-1E+10	1	-1E+10	1	-1E+10	1
4902554	84	C	06/05/2023	09:01	-132.783	47.681	0	1945.40	0	1.9560	0	34.5840	0	27.652	0	1920.198	0	-1e10	8	-1e10	8	-1E+10	1	-1E+10	1	-1E+10	1	-1E+10	1	-1E+10	1	-1E+10	1
4902554	84	C	06/05/2023	09:01	-132.783	47.681	0	1955.30	0	1.9460	0	34.5860	0	27.654	0	1929.925	0	-1e10	8	-1e10	8	-1E+10	1	-1E+10	1	-1E+10	1	-1E+10	1	-1E+10	1	-1E+10	1
4902554	84	C	06/05/2023	09:01	-132.783	47.681	0	1964.70	0	1.9420	0	34.5870	0	27.656	0	1939.160	0	-1e10	8	-1e10	8	-1E+10	1	-1E+10	1	-1E+10	1	-1E+10	1	-1E+10	1	-1E+10	1
4902554	84	C	06/05/2023	09:01	-132.783	47.681	0																										
4902554	87	C	07/06/2023	00:15	-132.553	47.645	0	0.30	0	14.8990	0	32.3210	0	23.930	0	0.297	0	-1e10	8	-1e10	8	-1E+10	1	-1E+10	1	-1E+10	1	-1E+10	1	-1E+10	1	-1E+10	1
4902554	87	C	07/06/2023	00:15	-132.553	47.645	0	0.40	0	14.9020	0	32.3550	0	23.955	0	0.397	0	-1e10	8	-1e10	8	-1E+10	1	-1E+10	1	-1E+10	1	-1E+10	1	-1E+10	1	-1E+10	1
4902554	87	C	07/06/2023	00:15	-132.553	47.645	0	1.00	0	14.9050	0	32.3520	0	23.952	0	0.992	0	-1e10	8	-1e10	8	-1E+10	1	-1E+10	1	-1E+10	1	-1E+10	1	-1E+10	1	-1E+10	1
4902554	87	C	07/06/2023	00:15	-132.553	47.645	0	1.80	0	14.9050	0	32.3540	0	23.954	0	1.785	0	-1e10	8	-1e10	8	-1E+10	1	-1E+10	1	-1E+10	1	-1E+10	1	-1E+10	1	-1E+10	1
4902554	87	C	07/06/2023	00:15	-132.553	47.645	0	2.80	0	14.9060	0	32.3520	0	23.952	0	2.777	0	-1e10	8	-1e10	8	-1E+10	1	-1E+10	1	-1E+10	1	-1E+10	1	-1E+10	1	-1E+10	1
4902554	87	C	07/06/2023	00:15	-132.553	47.645	0	3.80	0	14.9050	0	32.3550	0	23.955	0	3.768	0	-1e10	8	-1e10	8	-1E+10	1	-1E+10	1	-1E+10	1	-1E+10	1	-1E+10	1	-1E+10	1
4902554	87	C	07/06/2023	00:15	-132.553	47.645	0	4.80	0	14.9030	0	32.3570	0	23.957	0	4.760	0	-1e10	8	-1e10	8	-1E+10	1	-1E+10	1	-1E+10	1	-1E+10	1	-1E+10	1	-1E+10	1
4902554	87	C	07/06/2023	00:15	-132.553	47.645	0	5.80	0	14.9040	0	32.3580	0	23.957	0	5.751	0	-1e10	8	-1e10	8	-1E+10	1	-1E+10	1	-1E+10	1	-1E+10	1	-1E+10	1	-1E+10	1
4902554	87	C	07/06/2023	00:15	-132.553	47.645	0	6.80	0	14.9030	0	32.3580	0	23.958	0	6.743	0	-1e10	8	-1e10	8	-1E+10	1	-1E+10	1	-1E+10	1	-1E+10	1	-1E+10	1	-1E+10	1
4902554	87	C	07/06/2023	00:15	-132.553	47.645	0	7.90	0	14.9050	0	32.3580	0	23.957	0	7.834	0	-1e10	8	-1e10	8	-1E+10	1	-1E+10	1	-1E+10	1	-1E+10	1	-1E+10	1	-1E+10	1
4902554	87	C	07/06/2023	00:15	-132.553	47.645	0	8.90	0	14.9050	0	32.3580	0	23.957	0	8.825	0	-1e10	8	-1e10	8	-1E+10	1	-1E+10	1	-1E+10	1	-1E+10	1	-1E+10	1	-1E+10	1
4902554	87	C	07/06/2023	00:15	-132.553	47.645	0	9.90	0	14.9060	0	32.3580	0	23.957	0	9.817	0	-1e10	8	-1e10	8	-1E+10	1	-1E+10	1	-1E+10	1	-1E+10	1	-1E+10	1	-1E+10	1
4902554	87	C	07/06/2023	00:15	-132.553	47.645	0	10.80	0	14.9040	0	32.3570	0	23.957	0	10.709	0	-1e10	8	-1e10	8	-1E+10	1	-1E+10	1	-1E+10	1	-1E+10	1	-1E+10	1	-1E+10	1
4902554	87	C	07/06/2023	00:15	-132.553	47.645	0	11.90	0	14.9030	0	32.3580	0	23.958	0	11.800	0	-1e10	8	-1e10	8	-1E+10	1	-1E+10	1	-1E+10	1	-1E+10	1	-1E+10	1	-1E+10	1
4902554	87	C	07/06/2023	00:15	-132.553	47.645	0	13.00	0	14.9010	0	32.3570	0	23.958	0	12.891	0	-1e10	8	-1e10	8	-1E+10	1	-1E+10	1	-1E+10	1	-1E+10	1	-1E+10	1	-1E+10	1
4902554	87	C	07/06/2023	00:15	-132.553	47.645	0	14.00	0	14.9030	0	32.3560	0	23.956	0	13.883	0	-1e10	8	-1e10	8	-1E+10	1	-1E+10	1	-1E+10	1	-1E+10	1	-1E+10	1	-1E+10	1
4902554	87	C	07/06/2023	00:15	-132.553	47.645	0	15.10	0	14.8310	0	32.3620	0	23.976	0	14.973	0	-1e10	8	-1e10	8	-1E+10	1	-1E+10	1	-1E+10	1	-1E+10	1	-1E+10	1	-1E+10	1
4902554	87	C	07/06/2023	00:15	-132.553	47.645	0	16.00	0	14.6720	0	32.3510	0	24.002	0	15.866	0	-1e10	8	-1e10	8	-1E+10	1	-1E+10	1	-1E+10	1	-1E+10	1	-1E+10	1	-1E+10	1
4902554	87	C	07/06/2023	00:15	-132.553	47.645	0	16.90	0	14.2980	0	32.3450	0	24.076	0	16.758	0	-1e10	8	-1e10	8	-1E+10	1	-1E+10	1	-1E+10	1	-1E+10	1	-1E+10	1	-1E+10	1
4902554	87	C	07/06/2023	00:15	-132.553	47.645	0	17.90	0	13.5380	0	32.3480	0	24.234	0	17.750	0	-1e10	8	-1e10	8	-1E+10	1	-1E+10	1	-1E+10	1	-1E+10	1	-1E+10	1	-1E+10	1
4902554	87	C	07/06/2023	00:15	-132.553	47.645	0	19.10	0	13.3650	0	32.3470	0	24.267	0	18.939	0	-1e10	8	-1e10	8	-1E+10	1	-1E+10	1	-1E+10	1	-1E+10	1	-1E+10	1	-1E+10	1
4902554	87	C	07/06/2023	00:15	-132.553	47.645	0	20.10	0	13.2180	0	32.3410	0	24.292	0	19.931	0	-1e10	8	-1e10	8	-1E+10	1	-1E+10	1	-1E+10	1	-1E+10	1	-1E+10	1	-1E+10	1
4902554	87	C	07/06/2023	00:15	-132.553	47.645	0	21.20	0	13.1130	0	32.3380	0	24.310	0	21.022	0	-1e10	8	-1e10	8	-1E+10	1	-1E+10	1	-1E+10	1	-1E+10	1	-1E+10	1	-1E+10	1
4902554	87	C	07/06/2023	00:15	-132.553	47.645	0	21.90	0	12.9870	0	32.3420	0	24.338	0	21.716	0	-1e10	8	-1e10	8	-1E+10	1	-1E+10	1	-1E+10	1	-1E+10	1	-1E+10	1	-1E+10	1
4902554	87	C	07/06/2023	00:15	-132.553	47.645	0	23.10	0	12.6520	0	32.3350	0	24.398	0	22.906	0	-1e10	8	-1e10	8	-1E+10	1	-1E+10	1	-1E+10	1	-1E+10	1	-1E+10	1	-1E+10	1
4902554	87	C	07/06/2023	00:15	-132.553	47.645	0	24.00	0	12.4800	0	32.3370	0	24.432	0	23.798	0	-1e10	8	-1e10	8	-1E+10	1	-1E+10	1	-1E+10	1	-1E+10	1	-1E+10	1	-1E+10	1
4902554	87	C	07/06/2023	00:15	-132.553	47.645	0	25.00	0	12.1950	0	32.3300	0	24.481	0	24.790	0	-1e10	8	-1e10	8	-1E+10	1	-1E+10	1	-1E+10	1	-1E+10	1	-1E+10	1	-1E+10	1
4902554	87	C	07/06/2023	00:15	-132.553	47.645	0	25.90	0	11.9790	0	32.3360	0	24.526	0	25.682	0	-1e10	8	-1e10	8	-1E+10	1	-1E+10	1	-1E+10	1	-1E+10	1	-1E+10	1	-1E+10	1
4902554	87	C	07/06/2023	00:15	-132.553	47.645	0	27.10	0	11.5780	0	32.3430	0	24.605	0	26.872	0	-1e10	8	-1e10	8	-1E+10	1	-1E+10	1	-1E+10	1	-1E+10	1	-1E+10	1	-1E+10	1
4902554	87	C	07/06/2023	00:15	-132.553	47.645	0	28.00	0	11.1290	0	32.3430	0	24.685	0	27.764	0	-1e10	8	-1e10	8	-1E+10	1	-1E+10	1	-1E+10	1	-1E+10	1	-1E+10	1	-1E+10	1
4902554	87	C	07/06/2023	00:15	-132.553	47.645	0	29.10	0	10.5940	0	32.3330	0	24.771	0	28.855	0	-1e10	8	-1e10	8	-1E+10	1	-1E+10	1	-1E+10	1	-1E+10	1	-1E+10	1	-1E+10	1
4902554	87	C	07/06/2023	00:15	-132.553	47.645	0	29.90	0	10.4140	0	32.3330	0	24.802	0	29.648	0	-1e10	8	-1e10	8	-1E+10	1	-1E+10	1	-1E+10	1	-1E+10	1	-1E+10	1	-1E+10	1
4902554	87	C	07/06/2023	00:15	-132.553	47.645	0	30.80	0	10.1530	0	32.3350	0	24.847	0	30.540	0	-1e10	8	-1e10	8	-1E+10	1	-1E+10	1	-1E+10	1	-1E+10	1	-1E+10	1	-1E+10	1
4902554	87	C	07/06/2023	00:15	-132.553	47.645	0	31.90	0	9.7060	0	32.3330	0	24.919	0	31.631	0	-1e10	8	-1e10	8	-1E+10	1	-1E+10	1	-1E+10	1	-1E+10	1	-1E+10	1	-1E+10	1
4902554	87	C	07/06/2023	00:15	-132.553	47.645	0	33.10	0	9.5070	0	32.3380	0	24.955	0	32.821	0	-1e10	8	-1e10	8	-1E+10	1	-1E+10	1	-1E+10	1	-1E+10	1	-1E+10	1	-1E+10	1
4902554	87	C	07/06/2023	00:15	-132.553	47.645	0	34.10	0	9.3680	0	32.3380	0	24.977	0	33.812	0	-1e10	8	-1e10	8	-1E+10	1	-1E+10	1	-1E+10	1	-1E+10	1	-1E+10	1	-1E+10	1
4902554	87	C	07/06/2023	00:15	-132.553	47.645	0	35.00	0	9.1420	0	32.3440	0	25.018	0	34.704	0	-1e10	8	-1e10	8	-1E+10	1	-1E+10	1	-1E+10	1	-1E+10	1	-1E+10	1	-1E+10	1
4902554	87	C	07/06/2023	00:15	-132.553	47.645	0	35.80	0	8.9850	0	32.3410	0	25.040	0	35.498	0	-1e10	8	-1e10	8	-1E+10	1	-1E+10	1	-1E+10	1	-1E+10	1	-1E+10	1	-1E+10	1
4902554	87	C	07/06/2023	00:15	-132.553	47.645	0	37.00	0	8.8900	0	32.3450	0	25.058	0	36.687	0	-1e10	8	-1e10	8	-1E+10	1	-1E+10	1	-1E+10	1	-1E+10	1	-1E+10	1	-1E+10	1
4902554	87	C	07/06/2023	00:15	-132.553	47.645	0	38.10	0	8.7890	0	32.3560	0	25.082	0	37.778	0	-1e10	8	-1e10	8	-1E+10	1	-1E+10	1	-1E+10	1	-1E+10	1	-1E+10	1	-1E+10	1
4902554	87	C	07/06/2023	00:15	-132.553	47.645	0	39.00	0	8.6150	0	32.3530	0	25.106	0	38.670	0	-1e10	8	-1e10	8	-1E+10	1	-1E+10	1	-1E+10	1	-1E+10	1	-1E+10	1	-1E+10	1
4902554	87	C	07/06/2023	00:15	-132.553	47.645	0	39.90	0	8.5320	0	32.3570	0	25.121	0	39.563	0	-1e10	8	-1e10	8	-1E+10	1	-1E+10	1	-1E+10	1	-1E+10	1	-1E+10	1	-1E+10	1
4902554	87	C	07/06/2023	00:15	-132.553	47.645	0	40.90	0	8.4970	0	32.3680	0	25.135	0	40.554	0	-1e10	8	-1e10	8	-1E+10	1	-1E+10	1	-1E+10	1	-1E+10	1	-1E+10	1	-1E+10	1
4902554	87	C	07/06/2023	00:15	-132.553	47.645	0	41.80	0	8.4890	0	32.3720	0	25.140	0	41.446	0	-1e10	8	-1e10	8	-1E+10	1	-1E+10	1	-1E+10	1	-1E+10	1	-1E+10	1	-1E+10	1
4902554	87	C	07/06/2023	00:15	-132.553	47.645	0	43.00	0	8.4460	0	32.3810	0	25.153	0	42.636	0	-1e10	8	-1e10	8	-1E+10	1	-1E+10	1	-1E+10	1	-1E+10	1	-1E+10	1	-1E+10	1
4902554	87	C	07/06/2023	00:15	-132.553	47.645	0	44.00	0	8.3230	0	32.3870	0	25.176	0	43.628	0	-1e10	8	-1e10	8	-1E+10	1	-1E+10	1	-1E+10	1	-1E+10	1	-1E+10	1	-1E+10	1
4902554	87	C	07/06/2023	00:15	-132.553	47.645	0	44.90	0	8.3000	0	32.3880	0	25.180	0	44.520	0	-1e10	8	-1e10	8	-1E+10	1	-1E+10	1	-1E+10	1	-1E+10	1	-1E+10	1	-1E+10	1
4902554	87	C	07/06/2023	00:15	-132.553	47.645	0	46.10	0	8.2670	0	32.3890	0	25.186	0	45.710	0	-1e10	8	-1e10	8	-1E+10	1	-1E+10	1	-1E+10	1	-1E+10	1	-1E+10	1	-1E+10	1
4902554	87	C	07/06/2023	00:15	-132.553	47.645	0	47.00	0	8.2140	0	32.3910	0	25.195	0	46.602	0	-1e10	8	-1e10	8	-1E+10	1	-1E+10	1	-1E+10	1	-1E+10	1	-1E+10	1	-1E+10	1
4902554	87	C	07/06/2023	00:15	-132.553	47.645	0	47.90	0	8.0920	0	32.3960	0	25.217	0	47.494	0	-1e10	8	-1e10	8	-1E+10	1	-1E+10	1	-1E+10	1	-1E+10	1	-1E+10	1	-1E+10	1
4902554	87	C	07/06/2023	00:15	-132.553	47.645	0	48.90	0	8.0210	0	32.3940	0	25.226	0	48.485	0	-1e10	8	-1e10	8	-1E+10	1	-1E+10	1	-1E+10	1	-1E+10	1	-1E+10	1	-1E+10	1
4902554	87	C	07/06/2023	00:15	-132.553	47.645	0	49.90	0	8.0140	0	32.3930	0	25.226	0	49.477	0	-1e10	8	-1e10	8	-1E+10	1	-1E+10	1	-1E+10	1	-1E+10	1	-1E+10	1	-1E+10	1
4902554	87	C	07/06/2023	00:15	-132.553	47.645	0	51.10	0	8.0090	0	32.3910	0	25.225	0	50.667	0	-1e10	8	-1e10	8	-1E+10	1	-1E+10	1	-1E+10	1	-1E+10	1	-1E+10	1	-1E+10	1
4902554	87	C	07/06/2023	00:15	-132.553	47.645	0	52.00	0	7.9460	0	32.3850	0	25.229	0	51.559	0	-1e10	8	-1e10	8	-1E+10	1	-1E+10	1	-1E+10	1	-1E+10	1	-1E+10	1	-1E+10	1
4902554	87	C	07/06/2023	00:15	-132.553	47.645	0	52.90	0	7.8500	0	32.3890	0	25.246	0	52.451	0	-1e10	8	-1e10	8	-1E+10	1	-1E+10	1	-1E+10	1	-1E+10	1	-1E+10	1	-1E+10	1
4902554	87	C	07/06/2023	00:15	-132.553	47.645	0	53.80	0	7.8260	0	32.3950	0	25.254	0	53.343	0	-1e10	8	-1e10	8	-1E+10	1	-1E+10	1	-1E+10	1	-1E+10	1	-1E+10	1	-1E+10	1
4902554	87	C	07/06/2023	00:15	-132.553	47.645	0	54.80	0	7.7810	0	32.4000	0	25.265	0	54.335	0	-1e10	8	-1e10	8	-1E+10	1	-1E+10	1	-1E+10	1	-1E+10	1	-1E+10	1	-1E+10	1
4902554	87	C	07/06/2023	00:15	-132.553	47.645	0	55.80	0	7.7300	0	32.4010	0	25.273	0	55.326	0	-1e10	8	-1e10	8	-1E+10	1	-1E+10	1	-1E+10	1	-1E+10	1	-1E+10	1	-1E+10	1
4902554	87	C	07/06/2023	00:15	-132.553	47.645	0	56.80	0	7.6640	0	32.3980	0	25.280	0	56.317	0	-1e10	8	-1e10	8	-1E+10	1	-1E+10	1	-1E+10	1	-1E+10	1	-1E+10	1	-1E+10	1
4902554	87	C	07/06/2023	00:15	-132.553	47.645	0	57.90	0	7.6140	0	32.3960	0	25.285	0	57.408	0	-1e10	8	-1e10	8	-1E+10	1	-1E+10	1	-1E+10	1	-1E+10	1	-1E+10	1	-1E+10	1
4902554	87	C	07/06/2023	00:15	-132.553	47.645	0	58.90	0	7.6000	0	32.3970	0	25.288	0	58.399	0	-1e10	8	-1e10	8	-1E+10	1	-1E+10	1	-1E+10	1	-1E+10	1	-1E+10	1	-1E+10	1
4902554	87	C	07/06/2023	00:15	-132.553	47.645	0	60.00	0	7.6020	0	32.4010	0	25.291	0	59.490	0	-1e10	8	-1e10	8	-1E+10	1	-1E+10	1	-1E+10	1	-1E+10	1	-1E+10	1	-1E+10	1
4902554	87	C	07/06/2023	00:15	-132.553	47.645	0	61.20	0	7.6280	0	32.4090	0	25.293	0	60.679	0	-1e10	8	-1e10	8	-1E+10	1	-1E+10	1	-1E+10	1	-1E+10	1	-1E+10	1	-1E+10	1
4902554	87	C	07/06/2023	00:15	-132.553	47.645	0	62.00	0	7.6250	0	32.4110	0	25.295	0	61.472	0	-1e10	8	-1e10	8	-1E+10	1	-1E+10	1	-1E+10	1	-1E+10	1	-1E+10	1	-1E+10	1
4902554	87	C	07/06/2023	00:15	-132.553	47.645	0	63.20	0	7.6200	0	32.4140	0	25.299	0	62.662	0	-1e10	8	-1e10	8	-1E+10	1	-1E+10	1	-1E+10	1	-1E+10	1	-1E+10	1	-1E+10	1
4902554	87	C	07/06/2023	00:15	-132.553	47.645	0	64.00	0	7.6120	0	32.4140	0	25.300	0	63.455	0	-1e10	8	-1e10	8	-1E+10	1	-1E+10	1	-1E+10	1	-1E+10	1	-1E+10	1	-1E+10	1
4902554	87	C	07/06/2023	00:15	-132.553	47.645	0	65.20	0	7.5960	0	32.4140	0	25.302	0	64.645	0	-1e10	8	-1e10	8	-1E+10	1	-1E+10	1	-1E+10	1	-1E+10	1	-1E+10	1	-1E+10	1
4902554	87	C	07/06/2023	00:15	-132.553	47.645	0	65.80	0	7.5910	0	32.4120	0	25.301	0	65.240	0	-1e10	8	-1e10	8	-1E+10	1	-1E+10	1	-1E+10	1	-1E+10	1	-1E+10	1	-1E+10	1
4902554	87	C	07/06/2023	00:15	-132.553	47.645	0	66.90	0	7.5860	0	32.4120	0	25.302	0	66.330	0	-1e10	8	-1e10	8	-1E+10	1	-1E+10	1	-1E+10	1	-1E+10	1	-1E+10	1	-1E+10	1
4902554	87	C	07/06/2023	00:15	-132.553	47.645	0	68.20	0	7.5660	0	32.4110	0	25.304	0	67.619	0	-1e10	8	-1e10	8	-1E+10	1	-1E+10	1	-1E+10	1	-1E+10	1	-1E+10	1	-1E+10	1
4902554	87	C	07/06/2023	00:15	-132.553	47.645	0	68.80	0	7.5590	0	32.4110	0	25.305	0	68.214	0	-1e10	8	-1e10	8	-1E+10	1	-1E+10	1	-1E+10	1	-1E+10	1	-1E+10	1	-1E+10	1
4902554	87	C	07/06/2023	00:15	-132.553	47.645	0	70.10	0	7.5450	0	32.4120	0	25.308	0	69.502	0	-1e10	8	-1e10	8	-1E+10	1	-1E+10	1	-1E+10	1	-1E+10	1	-1E+10	1	-1E+10	1
4902554	87	C	07/06/2023	00:15	-132.553	47.645	0	71.20	0	7.5030	0	32.4050	0	25.308	0	70.593	0	-1e10	8	-1e10	8	-1E+10	1	-1E+10	1	-1E+10	1	-1E+10	1	-1E+10	1	-1E+10	1
4902554	87	C	07/06/2023	00:15	-132.553	47.645	0	71.80	0	7.4990	0	32.4050	0	25.308	0	71.187	0	-1e10	8	-1e10	8	-1E+10	1	-1E+10	1	-1E+10	1	-1E+10	1	-1E+10	1	-1E+10	1
4902554	87	C	07/06/2023	00:15	-132.553	47.645	0	72.90	0	7.4930	0	32.4040	0	25.308	0	72.278	0	-1e10	8	-1e10	8	-1E+10	1	-1E+10	1	-1E+10	1	-1E+10	1	-1E+10	1	-1E+10	1
4902554	87	C	07/06/2023	00:15	-132.553	47.645	0	73.90	0	7.4750	0	32.4030	0	25.310	0	73.269	0	-1e10	8	-1e10	8	-1E+10	1	-1E+10	1	-1E+10	1	-1E+10	1	-1E+10	1	-1E+10	1
4902554	87	C	07/06/2023	00:15	-132.553	47.645	0	75.00	0	7.4570	0	32.3990	0	25.310	0	74.360	0	-1e10	8	-1e10	8	-1E+10	1	-1E+10	1	-1E+10	1	-1E+10	1	-1E+10	1	-1E+10	1
4902554	87	C	07/06/2023	00:15	-132.553	47.645	0	76.20	0	7.4190	0	32.3940	0	25.311	0	75.549	0	-1e10	8	-1e10	8	-1E+10	1	-1E+10	1	-1E+10	1	-1E+10	1	-1E+10	1	-1E+10	1
4902554	87	C	07/06/2023	00:15	-132.553	47.645	0	77.00	0	7.3770	0	32.3920	0	25.315	0	76.342	0	-1e10	8	-1e10	8	-1E+10	1	-1E+10	1	-1E+10	1	-1E+10	1	-1E+10	1	-1E+10	1
4902554	87	C	07/06/2023	00:15	-132.553	47.645	0	78.20	0	7.3200	0	32.3880	0	25.320	0	77.532	0	-1e10	8	-1e10	8	-1E+10	1	-1E+10	1	-1E+10	1	-1E+10	1	-1E+10	1	-1E+10	1
4902554	87	C	07/06/2023	00:15	-132.553	47.645	0	79.00	0	7.3070	0	32.3870	0	25.321	0	78.325	0	-1e10	8	-1e10	8	-1E+10	1	-1E+10	1	-1E+10	1	-1E+10	1	-1E+10	1	-1E+10	1
4902554	87	C	07/06/2023	00:15	-132.553	47.645	0	80.20	0	7.2940	0	32.3870	0	25.323	0	79.514	0	-1e10	8	-1e10	8	-1E+10	1	-1E+10	1	-1E+10	1	-1E+10	1	-1E+10	1	-1E+10	1
4902554	87	C	07/06/2023	00:15	-132.553	47.645	0	81.10	0	7.2860	0	32.3870	0	25.324	0	80.406	0	-1e10	8	-1e10	8	-1E+10	1	-1E+10	1	-1E+10	1	-1E+10	1	-1E+10	1	-1E+10	1
4902554	87	C	07/06/2023	00:15	-132.553	47.645	0	81.90	0	7.2810	0	32.3860	0	25.324	0	81.199	0	-1e10	8	-1e10	8	-1E+10	1	-1E+10	1	-1E+10	1	-1E+10	1	-1E+10	1	-1E+10	1
4902554	87	C	07/06/2023	00:15	-132.553	47.645	0	83.20	0	7.2710	0	32.3870	0	25.326	0	82.488	0	-1e10	8	-1e10	8	-1E+10	1	-1E+10	1	-1E+10	1	-1E+10	1	-1E+10	1	-1E+10	1
4902554	87	C	07/06/2023	00:15	-132.553	47.645	0	84.00	0	7.2670	0	32.3890	0	25.328	0	83.281	0	-1e10	8	-1e10	8	-1E+10	1	-1E+10	1	-1E+10	1	-1E+10	1	-1E+10	1	-1E+10	1
4902554	87	C	07/06/2023	00:15	-132.553	47.645	0	85.00	0	7.2650	0	32.3900	0	25.329	0	84.272	0	-1e10	8	-1e10	8	-1E+10	1	-1E+10	1	-1E+10	1	-1E+10	1	-1E+10	1	-1E+10	1
4902554	87	C	07/06/2023	00:15	-132.553	47.645	0	86.10	0	7.2630	0	32.3930	0	25.332	0	85.362	0	-1e10	8	-1e10	8	-1E+10	1	-1E+10	1	-1E+10	1	-1E+10	1	-1E+10	1	-1E+10	1
4902554	87	C	07/06/2023	00:15	-132.553	47.645	0	86.90	0	7.2590	0	32.3940	0	25.333	0	86.155	0	-1e10	8	-1e10	8	-1E+10	1	-1E+10	1	-1E+10	1	-1E+10	1	-1E+10	1	-1E+10	1
4902554	87	C	07/06/2023	00:15	-132.553	47.645	0	88.10	0	7.2580	0	32.3960	0	25.335	0	87.345	0	-1e10	8	-1e10	8	-1E+10	1	-1E+10	1	-1E+10	1	-1E+10	1	-1E+10	1	-1E+10	1
4902554	87	C	07/06/2023	00:15	-132.553	47.645	0	88.90	0	7.2550	0	32.3960	0	25.335	0	88.138	0	-1e10	8	-1e10	8	-1E+10	1	-1E+10	1	-1E+10	1	-1E+10	1	-1E+10	1	-1E+10	1
4902554	87	C	07/06/2023	00:15	-132.553	47.645	0	89.90	0	7.2330	0	32.3960	0	25.338	0	89.129	0	-1e10	8	-1e10	8	-1E+10	1	-1E+10	1	-1E+10	1	-1E+10	1	-1E+10	1	-1E+10	1
4902554	87	C	07/06/2023	00:15	-132.553	47.645	0	91.00	0	7.2130	0	32.3990	0	25.343	0	90.219	0	-1e10	8	-1e10	8	-1E+10	1	-1E+10	1	-1E+10	1	-1E+10	1	-1E+10	1	-1E+10	1
4902554	87	C	07/06/2023	00:15	-132.553	47.645	0	92.10	0	7.2100	0	32.4030	0	25.347	0	91.310	0	-1e10	8	-1e10	8	-1E+10	1	-1E+10	1	-1E+10	1	-1E+10	1	-1E+10	1	-1E+10	1
4902554	87	C	07/06/2023	00:15	-132.553	47.645	0	92.80	0	7.2000	0	32.4030	0	25.348	0	92.004	0	-1e10	8	-1e10	8	-1E+10	1	-1E+10	1	-1E+10	1	-1E+10	1	-1E+10	1	-1E+10	1
4902554	87	C	07/06/2023	00:15	-132.553	47.645	0	93.80	0	7.1860	0	32.4040	0	25.351	0	92.995	0	-1e10	8	-1e10	8	-1E+10	1	-1E+10	1	-1E+10	1	-1E+10	1	-1E+10	1	-1E+10	1
4902554	87	C	07/06/2023	00:15	-132.553	47.645	0	94.80	0	7.1540	0	32.4050	0	25.356	0	93.986	0	-1e10	8	-1e10	8	-1E+10	1	-1E+10	1	-1E+10	1	-1E+10	1	-1E+10	1	-1E+10	1
4902554	87	C	07/06/2023	00:15	-132.553	47.645	0	95.90	0	7.1310	0	32.4060	0	25.360	0	95.076	0	-1e10	8	-1e10	8	-1E+10	1	-1E+10	1	-1E+10	1	-1E+10	1	-1E+10	1	-1E+10	1
4902554	87	C	07/06/2023	00:15	-132.553	47.645	0	97.00	0	7.1480	0	32.4130	0	25.363	0	96.167	0	-1e10	8	-1e10	8	-1E+10	1	-1E+10	1	-1E+10	1	-1E+10	1	-1E+10	1	-1E+10	1
4902554	87	C	07/06/2023	00:15	-132.553	47.645	0	97.90	0	7.1620	0	32.4220	0	25.368	0	97.059	0	-1e10	8	-1e10	8	-1E+10	1	-1E+10	1	-1E+10	1	-1E+10	1	-1E+10	1	-1E+10	1
4902554	87	C	07/06/2023	00:15	-132.553	47.645	0	99.00	0	7.1790	0	32.4340	0	25.375	0	98.149	0	-1e10	8	-1e10	8	-1E+10	1	-1E+10	1	-1E+10	1	-1E+10	1	-1E+10	1	-1E+10	1
4902554	87	C	07/06/2023	00:15	-132.553	47.645	0	100.10	0	7.1480	0	32.4450	0	25.388	0	99.239	0	-1e10	8	-1e10	8	-1E+10	1	-1E+10	1	-1E+10	1	-1E+10	1	-1E+10	1	-1E+10	1
4902554	87	C	07/06/2023	00:15	-132.553	47.645	0	101.10	0	7.1010	0	32.4550	0	25.402	0	100.230	0	-1e10	8	-1e10	8	-1E+10	1	-1E+10	1	-1E+10	1	-1E+10	1	-1E+10	1	-1E+10	1
4902554	87	C	07/06/2023	00:15	-132.553	47.645	0	101.90	0	7.1010	0	32.4700	0	25.414	0	101.023	0	-1e10	8	-1e10	8	-1E+10	1	-1E+10	1	-1E+10	1	-1E+10	1	-1E+10	1	-1E+10	1
4902554	87	C	07/06/2023	00:15	-132.553	47.645	0	102.70	0	7.1150	0	32.4890	0	25.427	0	101.816	0	-1e10	8	-1e10	8	-1E+10	1	-1E+10	1	-1E+10	1	-1E+10	1	-1E+10	1	-1E+10	1
4902554	87	C	07/06/2023	00:15	-132.553	47.645	0	103.80	0	7.0920	0	32.5080	0	25.445	0	102.906	0	-1e10	8	-1e10	8	-1E+10	1	-1E+10	1	-1E+10	1	-1E+10	1	-1E+10	1	-1E+10	1
4902554	87	C	07/06/2023	00:15	-132.553	47.645	0	105.00	0	7.0590	0	32.5400	0	25.475	0	104.096	0	-1e10	8	-1e10	8	-1E+10	1	-1E+10	1	-1E+10	1	-1E+10	1	-1E+10	1	-1E+10	1
4902554	87	C	07/06/2023	00:15	-132.553	47.645	0	105.90	0	7.0510	0	32.5600	0	25.492	0	104.988	0	-1e10	8	-1e10	8	-1E+10	1	-1E+10	1	-1E+10	1	-1E+10	1	-1E+10	1	-1E+10	1
4902554	87	C	07/06/2023	00:15	-132.553	47.645	0	106.80	0	7.0300	0	32.5740	0	25.506	0	105.880	0	-1e10	8	-1e10	8	-1E+10	1	-1E+10	1	-1E+10	1	-1E+10	1	-1E+10	1	-1E+10	1
4902554	87	C	07/06/2023	00:15	-132.553	47.645	0	108.00	0	6.9930	0	32.5970	0	25.529	0	107.069	0	-1e10	8	-1e10	8	-1E+10	1	-1E+10	1	-1E+10	1	-1E+10	1	-1E+10	1	-1E+10	1
4902554	87	C	07/06/2023	00:15	-132.553	47.645	0	109.10	0	6.9640	0	32.6180	0	25.549	0	108.159	0	-1e10	8	-1e10	8	-1E+10	1	-1E+10	1	-1E+10	1	-1E+10	1	-1E+10	1	-1E+10	1
4902554	87	C	07/06/2023	00:15	-132.553	47.645	0	110.40	0	6.9370	0	32.6530	0	25.580	0	109.448	0	-1e10	8	-1e10	8	-1E+10	1	-1E+10	1	-1E+10	1	-1E+10	1	-1E+10	1	-1E+10	1
4902554	87	C	07/06/2023	00:15	-132.553	47.645	0	111.10	0	6.9030	0	32.6870	0	25.612	0	110.142	0	-1e10	8	-1e10	8	-1E+10	1	-1E+10	1	-1E+10	1	-1E+10	1	-1E+10	1	-1E+10	1
4902554	87	C	07/06/2023	00:15	-132.553	47.645	0	112.00	0	6.8930	0	32.6940	0	25.618	0	111.034	0	-1e10	8	-1e10	8	-1E+10	1	-1E+10	1	-1E+10	1	-1E+10	1	-1E+10	1	-1E+10	1
4902554	87	C	07/06/2023	00:15	-132.553	47.645	0	113.00	0	6.8660	0	32.7100	0	25.635	0	112.025	0	-1e10	8	-1e10	8	-1E+10	1	-1E+10	1	-1E+10	1	-1E+10	1	-1E+10	1	-1E+10	1
4902554	87	C	07/06/2023	00:15	-132.553	47.645	0	114.10	0	6.7820	0	32.7660	0	25.690	0	113.115	0	-1e10	8	-1e10	8	-1E+10	1	-1E+10	1	-1E+10	1	-1E+10	1	-1E+10	1	-1E+10	1
4902554	87	C	07/06/2023	00:15	-132.553	47.645	0	115.00	0	6.7010	0	32.8390	0	25.758	0	114.007	0	-1e10	8	-1e10	8	-1E+10	1	-1E+10	1	-1E+10	1	-1E+10	1	-1E+10	1	-1E+10	1
4902554	87	C	07/06/2023	00:15	-132.553	47.645	0	115.90	0	6.6080	0	32.9080	0	25.824	0	114.899	0	-1e10	8	-1e10	8	-1E+10	1	-1E+10	1	-1E+10	1	-1E+10	1	-1E+10	1	-1E+10	1
4902554	87	C	07/06/2023	00:15	-132.553	47.645	0	117.00	0	6.5490	0	32.9660	0	25.878	0	115.989	0	-1e10	8	-1e10	8	-1E+10	1	-1E+10	1	-1E+10	1	-1E+10	1	-1E+10	1	-1E+10	1
4902554	87	C	07/06/2023	00:15	-132.553	47.645	0	118.10	0	6.4600	0	33.0150	0	25.928	0	117.079	0	-1e10	8	-1e10	8	-1E+10	1	-1E+10	1	-1E+10	1	-1E+10	1	-1E+10	1	-1E+10	1
4902554	87	C	07/06/2023	00:15	-132.553	47.645	0	119.30	0	6.4500	0	33.0200	0	25.933	0	118.269	0	-1e10	8	-1e10	8	-1E+10	1	-1E+10	1	-1E+10	1	-1E+10	1	-1E+10	1	-1E+10	1
4902554	87	C	07/06/2023	00:15	-132.553	47.645	0	120.20	0	6.4350	0	33.0280	0	25.941	0	119.161	0	-1e10	8	-1e10	8	-1E+10	1	-1E+10	1	-1E+10	1	-1E+10	1	-1E+10	1	-1E+10	1
4902554	87	C	07/06/2023	00:15	-132.553	47.645	0	120.80	0	6.4300	0	33.0300	0	25.944	0	119.755	0	-1e10	8	-1e10	8	-1E+10	1	-1E+10	1	-1E+10	1	-1E+10	1	-1E+10	1	-1E+10	1
4902554	87	C	07/06/2023	00:15	-132.553	47.645	0	121.90	0	6.3880	0	33.0510	0	25.966	0	120.845	0	-1e10	8	-1e10	8	-1E+10	1	-1E+10	1	-1E+10	1	-1E+10	1	-1E+10	1	-1E+10	1
4902554	87	C	07/06/2023	00:15	-132.553	47.645	0	123.30	0	6.3000	0	33.1050	0	26.019	0	122.233	0	-1e10	8	-1e10	8	-1E+10	1	-1E+10	1	-1E+10	1	-1E+10	1	-1E+10	1	-1E+10	1
4902554	87	C	07/06/2023	00:15	-132.553	47.645	0	124.00	0	6.2670	0	33.1270	0	26.041	0	122.927	0	-1e10	8	-1e10	8	-1E+10	1	-1E+10	1	-1E+10	1	-1E+10	1	-1E+10	1	-1E+10	1
4902554	87	C	07/06/2023	00:15	-132.553	47.645	0	125.10	0	6.2310	0	33.1610	0	26.072	0	124.017	0	-1e10	8	-1e10	8	-1E+10	1	-1E+10	1	-1E+10	1	-1E+10	1	-1E+10	1	-1E+10	1
4902554	87	C	07/06/2023	00:15	-132.553	47.645	0	125.90	0	6.2130	0	33.1740	0	26.085	0	124.810	0	-1e10	8	-1e10	8	-1E+10	1	-1E+10	1	-1E+10	1	-1E+10	1	-1E+10	1	-1E+10	1
4902554	87	C	07/06/2023	00:15	-132.553	47.645	0	126.80	0	6.1930	0	33.1890	0	26.099	0	125.701	0	-1e10	8	-1e10	8	-1E+10	1	-1E+10	1	-1E+10	1	-1E+10	1	-1E+10	1	-1E+10	1
4902554	87	C	07/06/2023	00:15	-132.553	47.645	0	127.80	0	6.1580	0	33.2150	0	26.124	0	126.692	0	-1e10	8	-1e10	8	-1E+10	1	-1E+10	1	-1E+10	1	-1E+10	1	-1E+10	1	-1E+10	1
4902554	87	C	07/06/2023	00:15	-132.553	47.645	0	128.80	0	6.0960	0	33.2690	0	26.174	0	127.683	0	-1e10	8	-1e10	8	-1E+10	1	-1E+10	1	-1E+10	1	-1E+10	1	-1E+10	1	-1E+10	1
4902554	87	C	07/06/2023	00:15	-132.553	47.645	0	130.00	0	6.0470	0	33.3040	0	26.208	0	128.873	0	-1e10	8	-1e10	8	-1E+10	1	-1E+10	1	-1E+10	1	-1E+10	1	-1E+10	1	-1E+10	1
4902554	87	C	07/06/2023	00:15	-132.553	47.645	0	130.70	0	6.0220	0	33.3290	0	26.231	0	129.566	0	-1e10	8	-1e10	8	-1E+10	1	-1E+10	1	-1E+10	1	-1E+10	1	-1E+10	1	-1E+10	1
4902554	87	C	07/06/2023	00:15	-132.553	47.645	0	131.80	0	6.0220	0	33.3310	0	26.233	0	130.657	0	-1e10	8	-1e10	8	-1E+10	1	-1E+10	1	-1E+10	1	-1E+10	1	-1E+10	1	-1E+10	1
4902554	87	C	07/06/2023	00:15	-132.553	47.645	0	133.00	0	6.0210	0	33.3330	0	26.234	0	131.846	0	-1e10	8	-1e10	8	-1E+10	1	-1E+10	1	-1E+10	1	-1E+10	1	-1E+10	1	-1E+10	1
4902554	87	C	07/06/2023	00:15	-132.553	47.645	0	133.70	0	6.0210	0	33.3360	0	26.237	0	132.539	0	-1e10	8	-1e10	8	-1E+10	1	-1E+10	1	-1E+10	1	-1E+10	1	-1E+10	1	-1E+10	1
4902554	87	C	07/06/2023	00:15	-132.553	47.645	0	134.90	0	6.0170	0	33.3420	0	26.242	0	133.729	0	-1e10	8	-1e10	8	-1E+10	1	-1E+10	1	-1E+10	1	-1E+10	1	-1E+10	1	-1E+10	1
4902554	87	C	07/06/2023	00:15	-132.553	47.645	0	136.10	0	6.0180	0	33.3530	0	26.251	0	134.918	0	-1e10	8	-1e10	8	-1E+10	1	-1E+10	1	-1E+10	1	-1E+10	1	-1E+10	1	-1E+10	1
4902554	87	C	07/06/2023	00:15	-132.553	47.645	0	136.90	0	6.0140	0	33.3560	0	26.253	0	135.711	0	-1e10	8	-1e10	8	-1E+10	1	-1E+10	1	-1E+10	1	-1E+10	1	-1E+10	1	-1E+10	1
4902554	87	C	07/06/2023	00:15	-132.553	47.645	0	137.70	0	6.0150	0	33.3570	0	26.254	0	136.503	0	-1e10	8	-1e10	8	-1E+10	1	-1E+10	1	-1E+10	1	-1E+10	1	-1E+10	1	-1E+10	1
4902554	87	C	07/06/2023	00:15	-132.553	47.645	0	138.90	0	6.0340	0	33.3720	0	26.264	0	137.693	0	-1e10	8	-1e10	8	-1E+10	1	-1E+10	1	-1E+10	1	-1E+10	1	-1E+10	1	-1E+10	1
4902554	87	C	07/06/2023	00:15	-132.553	47.645	0	140.20	0	6.0460	0	33.3860	0	26.273	0	138.981	0	-1e10	8	-1e10	8	-1E+10	1	-1E+10	1	-1E+10	1	-1E+10	1	-1E+10	1	-1E+10	1
4902554	87	C	07/06/2023	00:15	-132.553	47.645	0	141.00	0	6.0500	0	33.3890	0	26.275	0	139.774	0	-1e10	8	-1e10	8	-1E+10	1	-1E+10	1	-1E+10	1	-1E+10	1	-1E+10	1	-1E+10	1
4902554	87	C	07/06/2023	00:15	-132.553	47.645	0	141.80	0	6.0490	0	33.3900	0	26.276	0	140.566	0	-1e10	8	-1e10	8	-1E+10	1	-1E+10	1	-1E+10	1	-1E+10	1	-1E+10	1	-1E+10	1
4902554	87	C	07/06/2023	00:15	-132.553	47.645	0	142.70	0	6.0300	0	33.4100	0	26.294	0	141.458	0	-1e10	8	-1e10	8	-1E+10	1	-1E+10	1	-1E+10	1	-1E+10	1	-1E+10	1	-1E+10	1
4902554	87	C	07/06/2023	00:15	-132.553	47.645	0	143.90	0	5.9840	0	33.4350	0	26.320	0	142.647	0	-1e10	8	-1e10	8	-1E+10	1	-1E+10	1	-1E+10	1	-1E+10	1	-1E+10	1	-1E+10	1
4902554	87	C	07/06/2023	00:15	-132.553	47.645	0	145.30	0	5.9810	0	33.4410	0	26.325	0	144.035	0	-1e10	8	-1e10	8	-1E+10	1	-1E+10	1	-1E+10	1	-1E+10	1	-1E+10	1	-1E+10	1
4902554	87	C	07/06/2023	00:15	-132.553	47.645	0	146.10	0	5.9830	0	33.4400	0	26.324	0	144.827	0	-1e10	8	-1e10	8	-1E+10	1	-1E+10	1	-1E+10	1	-1E+10	1	-1E+10	1	-1E+10	1
4902554	87	C	07/06/2023	00:15	-132.553	47.645	0	147.00	0	5.9610	0	33.4480	0	26.333	0	145.719	0	-1e10	8	-1e10	8	-1E+10	1	-1E+10	1	-1E+10	1	-1E+10	1	-1E+10	1	-1E+10	1
4902554	87	C	07/06/2023	00:15	-132.553	47.645	0	147.90	0	5.9410	0	33.4550	0	26.341	0	146.611	0	-1e10	8	-1e10	8	-1E+10	1	-1E+10	1	-1E+10	1	-1E+10	1	-1E+10	1	-1E+10	1
4902554	87	C	07/06/2023	00:15	-132.553	47.645	0	148.80	0	5.9300	0	33.4650	0	26.350	0	147.503	0	-1e10	8	-1e10	8	-1E+10	1	-1E+10	1	-1E+10	1	-1E+10	1	-1E+10	1	-1E+10	1
4902554	87	C	07/06/2023	00:15	-132.553	47.645	0	149.70	0	5.9290	0	33.4680	0	26.353	0	148.395	0	-1e10	8	-1e10	8	-1E+10	1	-1E+10	1	-1E+10	1	-1E+10	1	-1E+10	1	-1E+10	1
4902554	87	C	07/06/2023	00:15	-132.553	47.645	0	150.60	0	5.9210	0	33.4740	0	26.358	0	149.287	0	-1e10	8	-1e10	8	-1E+10	1	-1E+10	1	-1E+10	1	-1E+10	1	-1E+10	1	-1E+10	1
4902554	87	C	07/06/2023	00:15	-132.553	47.645	0	151.60	0	5.8970	0	33.4910	0	26.375	0	150.278	0	-1e10	8	-1e10	8	-1E+10	1	-1E+10	1	-1E+10	1	-1E+10	1	-1E+10	1	-1E+10	1
4902554	87	C	07/06/2023	00:15	-132.553	47.645	0	152.60	0	5.8990	0	33.5170	0	26.395	0	151.268	0	-1e10	8	-1e10	8	-1E+10	1	-1E+10	1	-1E+10	1	-1E+10	1	-1E+10	1	-1E+10	1
4902554	87	C	07/06/2023	00:15	-132.553	47.645	0	153.50	0	5.8940	0	33.5320	0	26.408	0	152.160	0	-1e10	8	-1e10	8	-1E+10	1	-1E+10	1	-1E+10	1	-1E+10	1	-1E+10	1	-1E+10	1
4902554	87	C	07/06/2023	00:15	-132.553	47.645	0	154.50	0	5.8860	0	33.5390	0	26.414	0	153.151	0	-1e10	8	-1e10	8	-1E+10	1	-1E+10	1	-1E+10	1	-1E+10	1	-1E+10	1	-1E+10	1
4902554	87	C	07/06/2023	00:15	-132.553	47.645	0	155.90	0	5.8810	0	33.5400	0	26.416	0	154.538	0	-1e10	8	-1e10	8	-1E+10	1	-1E+10	1	-1E+10	1	-1E+10	1	-1E+10	1	-1E+10	1
4902554	87	C	07/06/2023	00:15	-132.553	47.645	0	157.40	0	5.8780	0	33.5430	0	26.418	0	156.025	0	-1e10	8	-1e10	8	-1E+10	1	-1E+10	1	-1E+10	1	-1E+10	1	-1E+10	1	-1E+10	1
4902554	87	C	07/06/2023	00:15	-132.553	47.645	0	158.40	0	5.8770	0	33.5430	0	26.418	0	157.016	0	-1e10	8	-1e10	8	-1E+10	1	-1E+10	1	-1E+10	1	-1E+10	1	-1E+10	1	-1E+10	1
4902554	87	C	07/06/2023	00:15	-132.553	47.645	0	159.40	0	5.8760	0	33.5450	0	26.420	0	158.007	0	-1e10	8	-1e10	8	-1E+10	1	-1E+10	1	-1E+10	1	-1E+10	1	-1E+10	1	-1E+10	1
4902554	87	C	07/06/2023	00:15	-132.553	47.645	0	160.30	0	5.8810	0	33.5530	0	26.426	0	158.898	0	-1e10	8	-1e10	8	-1E+10	1	-1E+10	1	-1E+10	1	-1E+10	1	-1E+10	1	-1E+10	1
4902554	87	C	07/06/2023	00:15	-132.553	47.645	0	161.30	0	5.8840	0	33.5570	0	26.429	0	159.889	0	-1e10	8	-1e10	8	-1E+10	1	-1E+10	1	-1E+10	1	-1E+10	1	-1E+10	1	-1E+10	1
4902554	87	C	07/06/2023	00:15	-132.553	47.645	0	162.30	0	5.8880	0	33.5610	0	26.431	0	160.880	0	-1e10	8	-1e10	8	-1E+10	1	-1E+10	1	-1E+10	1	-1E+10	1	-1E+10	1	-1E+10	1
4902554	87	C	07/06/2023	00:15	-132.553	47.645	0	163.30	0	5.8360	0	33.5740	0	26.448	0	161.871	0	-1e10	8	-1e10	8	-1E+10	1	-1E+10	1	-1E+10	1	-1E+10	1	-1E+10	1	-1E+10	1
4902554	87	C	07/06/2023	00:15	-132.553	47.645	0	164.30	0	5.8360	0	33.5830	0	26.455	0	162.862	0	-1e10	8	-1e10	8	-1E+10	1	-1E+10	1	-1E+10	1	-1E+10	1	-1E+10	1	-1E+10	1
4902554	87	C	07/06/2023	00:15	-132.553	47.645	0	165.30	0	5.8250	0	33.5900	0	26.462	0	163.853	0	-1e10	8	-1e10	8	-1E+10	1	-1E+10	1	-1E+10	1	-1E+10	1	-1E+10	1	-1E+10	1
4902554	87	C	07/06/2023	00:15	-132.553	47.645	0	166.20	0	5.8200	0	33.6090	0	26.478	0	164.744	0	-1e10	8	-1e10	8	-1E+10	1	-1E+10	1	-1E+10	1	-1E+10	1	-1E+10	1	-1E+10	1
4902554	87	C	07/06/2023	00:15	-132.553	47.645	0	167.30	0	5.8160	0	33.6140	0	26.482	0	165.834	0	-1e10	8	-1e10	8	-1E+10	1	-1E+10	1	-1E+10	1	-1E+10	1	-1E+10	1	-1E+10	1
4902554	87	C	07/06/2023	00:15	-132.553	47.645	0	168.30	0	5.8040	0	33.6200	0	26.488	0	166.825	0	-1e10	8	-1e10	8	-1E+10	1	-1E+10	1	-1E+10	1	-1E+10	1	-1E+10	1	-1E+10	1
4902554	87	C	07/06/2023	00:15	-132.553	47.645	0	169.30	0	5.8010	0	33.6270	0	26.494	0	167.816	0	-1e10	8	-1e10	8	-1E+10	1	-1E+10	1	-1E+10	1	-1E+10	1	-1E+10	1	-1E+10	1
4902554	87	C	07/06/2023	00:15	-132.553	47.645	0	170.30	0	5.7870	0	33.6340	0	26.501	0	168.807	0	-1e10	8	-1e10	8	-1E+10	1	-1E+10	1	-1E+10	1	-1E+10	1	-1E+10	1	-1E+10	1
4902554	87	C	07/06/2023	00:15	-132.553	47.645	0	171.30	0	5.7810	0	33.6410	0	26.508	0	169.798	0	-1e10	8	-1e10	8	-1E+10	1	-1E+10	1	-1E+10	1	-1E+10	1	-1E+10	1	-1E+10	1
4902554	87	C	07/06/2023	00:15	-132.553	47.645	0	172.30	0	5.7800	0	33.6420	0	26.509	0	170.788	0	-1e10	8	-1e10	8	-1E+10	1	-1E+10	1	-1E+10	1	-1E+10	1	-1E+10	1	-1E+10	1
4902554	87	C	07/06/2023	00:15	-132.553	47.645	0	173.40	0	5.7770	0	33.6450	0	26.511	0	171.878	0	-1e10	8	-1e10	8	-1E+10	1	-1E+10	1	-1E+10	1	-1E+10	1	-1E+10	1	-1E+10	1
4902554	87	C	07/06/2023	00:15	-132.553	47.645	0	174.40	0	5.7680	0	33.6560	0	26.521	0	172.869	0	-1e10	8	-1e10	8	-1E+10	1	-1E+10	1	-1E+10	1	-1E+10	1	-1E+10	1	-1E+10	1
4902554	87	C	07/06/2023	00:15	-132.553	47.645	0	175.40	0	5.7640	0	33.6580	0	26.523	0	173.860	0	-1e10	8	-1e10	8	-1E+10	1	-1E+10	1	-1E+10	1	-1E+10	1	-1E+10	1	-1E+10	1
4902554	87	C	07/06/2023	00:15	-132.553	47.645	0	176.50	0	5.7770	0	33.6610	0	26.524	0	174.950	0	-1e10	8	-1e10	8	-1E+10	1	-1E+10	1	-1E+10	1	-1E+10	1	-1E+10	1	-1E+10	1
4902554	87	C	07/06/2023	00:15	-132.553	47.645	0	177.50	0	5.7830	0	33.6670	0	26.528	0	175.941	0	-1e10	8	-1e10	8	-1E+10	1	-1E+10	1	-1E+10	1	-1E+10	1	-1E+10	1	-1E+10	1
4902554	87	C	07/06/2023	00:15	-132.553	47.645	0	178.50	0	5.7890	0	33.6740	0	26.533	0	176.931	0	-1e10	8	-1e10	8	-1E+10	1	-1E+10	1	-1E+10	1	-1E+10	1	-1E+10	1	-1E+10	1
4902554	87	C	07/06/2023	00:15	-132.553	47.645	0	179.50	0	5.7730	0	33.6820	0	26.541	0	177.922	0	-1e10	8	-1e10	8	-1E+10	1	-1E+10	1	-1E+10	1	-1E+10	1	-1E+10	1	-1E+10	1
4902554	87	C	07/06/2023	00:15	-132.553	47.645	0	180.50	0	5.7710	0	33.6820	0	26.541	0	178.913	0	-1e10	8	-1e10	8	-1E+10	1	-1E+10	1	-1E+10	1	-1E+10	1	-1E+10	1	-1E+10	1
4902554	87	C	07/06/2023	00:15	-132.553	47.645	0	181.50	0	5.7510	0	33.6850	0	26.546	0	179.904	0	-1e10	8	-1e10	8	-1E+10	1	-1E+10	1	-1E+10	1	-1E+10	1	-1E+10	1	-1E+10	1
4902554	87	C	07/06/2023	00:15	-132.553	47.645	0	182.50	0	5.7370	0	33.6850	0	26.548	0	180.894	0	-1e10	8	-1e10	8	-1E+10	1	-1E+10	1	-1E+10	1	-1E+10	1	-1E+10	1	-1E+10	1
4902554	87	C	07/06/2023	00:15	-132.553	47.645	0	183.50	0	5.7160	0	33.6920	0	26.556	0	181.885	0	-1e10	8	-1e10	8	-1E+10	1	-1E+10	1	-1E+10	1	-1E+10	1	-1E+10	1	-1E+10	1
4902554	87	C	07/06/2023	00:15	-132.553	47.645	0	184.50	0	5.7180	0	33.6900	0	26.554	0	182.876	0	-1e10	8	-1e10	8	-1E+10	1	-1E+10	1	-1E+10	1	-1E+10	1	-1E+10	1	-1E+10	1
4902554	87	C	07/06/2023	00:15	-132.553	47.645	0	185.50	0	5.7150	0	33.7000	0	26.563	0	183.867	0	-1e10	8	-1e10	8	-1E+10	1	-1E+10	1	-1E+10	1	-1E+10	1	-1E+10	1	-1E+10	1
4902554	87	C	07/06/2023	00:15	-132.553	47.645	0	186.60	0	5.6800	0	33.7050	0	26.571	0	184.957	0	-1e10	8	-1e10	8	-1E+10	1	-1E+10	1	-1E+10	1	-1E+10	1	-1E+10	1	-1E+10	1
4902554	87	C	07/06/2023	00:15	-132.553	47.645	0	187.60	0	5.6780	0	33.7160	0	26.580	0	185.947	0	-1e10	8	-1e10	8	-1E+10	1	-1E+10	1	-1E+10	1	-1E+10	1	-1E+10	1	-1E+10	1
4902554	87	C	07/06/2023	00:15	-132.553	47.645	0	188.50	0	5.6720	0	33.7170	0	26.581	0	186.839	0	-1e10	8	-1e10	8	-1E+10	1	-1E+10	1	-1E+10	1	-1E+10	1	-1E+10	1	-1E+10	1
4902554	87	C	07/06/2023	00:15	-132.553	47.645	0	189.50	0	5.6710	0	33.7170	0	26.581	0	187.830	0	-1e10	8	-1e10	8	-1E+10	1	-1E+10	1	-1E+10	1	-1E+10	1	-1E+10	1	-1E+10	1
4902554	87	C	07/06/2023	00:15	-132.553	47.645	0	190.50	0	5.6680	0	33.7170	0	26.582	0	188.820	0	-1e10	8	-1e10	8	-1E+10	1	-1E+10	1	-1E+10	1	-1E+10	1	-1E+10	1	-1E+10	1
4902554	87	C	07/06/2023	00:15	-132.553	47.645	0	191.50	0	5.6410	0	33.7240	0	26.591	0	189.811	0	-1e10	8	-1e10	8	-1E+10	1	-1E+10	1	-1E+10	1	-1E+10	1	-1E+10	1	-1E+10	1
4902554	87	C	07/06/2023	00:15	-132.553	47.645	0	192.50	0	5.6080	0	33.7300	0	26.599	0	190.802	0	-1e10	8	-1e10	8	-1E+10	1	-1E+10	1	-1E+10	1	-1E+10	1	-1E+10	1	-1E+10	1
4902554	87	C	07/06/2023	00:15	-132.553	47.645	0	193.50	0	5.5910	0	33.7310	0	26.602	0	191.793	0	-1e10	8	-1e10	8	-1E+10	1	-1E+10	1	-1E+10	1	-1E+10	1	-1E+10	1	-1E+10	1
4902554	87	C	07/06/2023	00:15	-132.553	47.645	0	194.90	0	5.5740	0	33.7340	0	26.607	0	193.180	0	-1e10	8	-1e10	8	-1E+10	1	-1E+10	1	-1E+10	1	-1E+10	1	-1E+10	1	-1E+10	1
4902554	87	C	07/06/2023	00:15	-132.553	47.645	0	196.40	0	5.5610	0	33.7350	0	26.609	0	194.666	0	-1e10	8	-1e10	8	-1E+10	1	-1E+10	1	-1E+10	1	-1E+10	1	-1E+10	1	-1E+10	1
4902554	87	C	07/06/2023	00:15	-132.553	47.645	0	197.40	0	5.5550	0	33.7350	0	26.610	0	195.656	0	-1e10	8	-1e10	8	-1E+10	1	-1E+10	1	-1E+10	1	-1E+10	1	-1E+10	1	-1E+10	1
4902554	87	C	07/06/2023	00:15	-132.553	47.645	0	198.40	0	5.5470	0	33.7360	0	26.611	0	196.647	0	-1e10	8	-1e10	8	-1E+10	1	-1E+10	1	-1E+10	1	-1E+10	1	-1E+10	1	-1E+10	1
4902554	87	C	07/06/2023	00:15	-132.553	47.645	0	199.40	0	5.5380	0	33.7360	0	26.612	0	197.638	0	-1e10	8	-1e10	8	-1E+10	1	-1E+10	1	-1E+10	1	-1E+10	1	-1E+10	1	-1E+10	1
4902554	87	C	07/06/2023	00:15	-132.553	47.645	0	200.40	0	5.5250	0	33.7370	0	26.615	0	198.628	0	-1e10	8	-1e10	8	-1E+10	1	-1E+10	1	-1E+10	1	-1E+10	1	-1E+10	1	-1E+10	1
4902554	87	C	07/06/2023	00:15	-132.553	47.645	0	201.40	0	5.5090	0	33.7400	0	26.619	0	199.619	0	-1e10	8	-1e10	8	-1E+10	1	-1E+10	1	-1E+10	1	-1E+10	1	-1E+10	1	-1E+10	1
4902554	87	C	07/06/2023	00:15	-132.553	47.645	0	202.40	0	5.4820	0	33.7430	0	26.625	0	200.610	0	-1e10	8	-1e10	8	-1E+10	1	-1E+10	1	-1E+10	1	-1E+10	1	-1E+10	1	-1E+10	1
4902554	87	C	07/06/2023	00:15	-132.553	47.645	0	203.40	0	5.4600	0	33.7470	0	26.631	0	201.600	0	-1e10	8	-1e10	8	-1E+10	1	-1E+10	1	-1E+10	1	-1E+10	1	-1E+10	1	-1E+10	1
4902554	87	C	07/06/2023	00:15	-132.553	47.645	0	204.40	0	5.4480	0	33.7470	0	26.632	0	202.591	0	-1e10	8	-1e10	8	-1E+10	1	-1E+10	1	-1E+10	1	-1E+10	1	-1E+10	1	-1E+10	1
4902554	87	C	07/06/2023	00:15	-132.553	47.645	0	205.40	0	5.4450	0	33.7470	0	26.632	0	203.582	0	-1e10	8	-1e10	8	-1E+10	1	-1E+10	1	-1E+10	1	-1E+10	1	-1E+10	1	-1E+10	1
4902554	87	C	07/06/2023	00:15	-132.553	47.645	0	206.50	0	5.4420	0	33.7480	0	26.633	0	204.671	0	-1e10	8	-1e10	8	-1E+10	1	-1E+10	1	-1E+10	1	-1E+10	1	-1E+10	1	-1E+10	1
4902554	87	C	07/06/2023	00:15	-132.553	47.645	0	207.50	0	5.4370	0	33.7480	0	26.634	0	205.662	0	-1e10	8	-1e10	8	-1E+10	1	-1E+10	1	-1E+10	1	-1E+10	1	-1E+10	1	-1E+10	1
4902554	87	C	07/06/2023	00:15	-132.553	47.645	0	208.50	0	5.4300	0	33.7480	0	26.635	0	206.653	0	-1e10	8	-1e10	8	-1E+10	1	-1E+10	1	-1E+10	1	-1E+10	1	-1E+10	1	-1E+10	1
4902554	87	C	07/06/2023	00:15	-132.553	47.645	0	209.50	0	5.4220	0	33.7490	0	26.637	0	207.643	0	-1e10	8	-1e10	8	-1E+10	1	-1E+10	1	-1E+10	1	-1E+10	1	-1E+10	1	-1E+10	1
4902554	87	C	07/06/2023	00:15	-132.553	47.645	0	210.50	0	5.4060	0	33.7510	0	26.640	0	208.634	0	-1e10	8	-1e10	8	-1E+10	1	-1E+10	1	-1E+10	1	-1E+10	1	-1E+10	1	-1E+10	1
4902554	87	C	07/06/2023	00:15	-132.553	47.645	0	211.60	0	5.3930	0	33.7530	0	26.643	0	209.724	0	-1e10	8	-1e10	8	-1E+10	1	-1E+10	1	-1E+10	1	-1E+10	1	-1E+10	1	-1E+10	1
4902554	87	C	07/06/2023	00:15	-132.553	47.645	0	212.60	0	5.3650	0	33.7570	0	26.650	0	210.714	0	-1e10	8	-1e10	8	-1E+10	1	-1E+10	1	-1E+10	1	-1E+10	1	-1E+10	1	-1E+10	1
4902554	87	C	07/06/2023	00:15	-132.553	47.645	0	213.60	0	5.3470	0	33.7600	0	26.654	0	211.705	0	-1e10	8	-1e10	8	-1E+10	1	-1E+10	1	-1E+10	1	-1E+10	1	-1E+10	1	-1E+10	1
4902554	87	C	07/06/2023	00:15	-132.553	47.645	0	214.60	0	5.3450	0	33.7610	0	26.655	0	212.696	0	-1e10	8	-1e10	8	-1E+10	1	-1E+10	1	-1E+10	1	-1E+10	1	-1E+10	1	-1E+10	1
4902554	87	C	07/06/2023	00:15	-132.553	47.645	0	215.70	0	5.3450	0	33.7620	0	26.656	0	213.785	0	-1e10	8	-1e10	8	-1E+10	1	-1E+10	1	-1E+10	1	-1E+10	1	-1E+10	1	-1E+10	1
4902554	87	C	07/06/2023	00:15	-132.553	47.645	0	216.70	0	5.3380	0	33.7670	0	26.661	0	214.776	0	-1e10	8	-1e10	8	-1E+10	1	-1E+10	1	-1E+10	1	-1E+10	1	-1E+10	1	-1E+10	1
4902554	87	C	07/06/2023	00:15	-132.553	47.645	0	217.70	0	5.3280	0	33.7700	0	26.664	0	215.766	0	-1e10	8	-1e10	8	-1E+10	1	-1E+10	1	-1E+10	1	-1E+10	1	-1E+10	1	-1E+10	1
4902554	87	C	07/06/2023	00:15	-132.553	47.645	0	218.70	0	5.3240	0	33.7730	0	26.667	0	216.757	0	-1e10	8	-1e10	8	-1E+10	1	-1E+10	1	-1E+10	1	-1E+10	1	-1E+10	1	-1E+10	1
4902554	87	C	07/06/2023	00:15	-132.553	47.645	0	219.70	0	5.3190	0	33.7740	0	26.669	0	217.748	0	-1e10	8	-1e10	8	-1E+10	1	-1E+10	1	-1E+10	1	-1E+10	1	-1E+10	1	-1E+10	1
4902554	87	C	07/06/2023	00:15	-132.553	47.645	0	220.70	0	5.3160	0	33.7740	0	26.669	0	218.738	0	-1e10	8	-1e10	8	-1E+10	1	-1E+10	1	-1E+10	1	-1E+10	1	-1E+10	1	-1E+10	1
4902554	87	C	07/06/2023	00:15	-132.553	47.645	0	222.00	0	5.2990	0	33.7780	0	26.674	0	220.026	0	-1e10	8	-1e10	8	-1E+10	1	-1E+10	1	-1E+10	1	-1E+10	1	-1E+10	1	-1E+10	1
4902554	87	C	07/06/2023	00:15	-132.553	47.645	0	223.20	0	5.2810	0	33.7780	0	26.676	0	221.215	0	-1e10	8	-1e10	8	-1E+10	1	-1E+10	1	-1E+10	1	-1E+10	1	-1E+10	1	-1E+10	1
4902554	87	C	07/06/2023	00:15	-132.553	47.645	0	224.00	0	5.2690	0	33.7770	0	26.677	0	222.007	0	-1e10	8	-1e10	8	-1E+10	1	-1E+10	1	-1E+10	1	-1E+10	1	-1E+10	1	-1E+10	1
4902554	87	C	07/06/2023	00:15	-132.553	47.645	0	224.70	0	5.2630	0	33.7770	0	26.678	0	222.701	0	-1e10	8	-1e10	8	-1E+10	1	-1E+10	1	-1E+10	1	-1E+10	1	-1E+10	1	-1E+10	1
4902554	87	C	07/06/2023	00:15	-132.553	47.645	0	225.90	0	5.2230	0	33.7780	0	26.683	0	223.889	0	-1e10	8	-1e10	8	-1E+10	1	-1E+10	1	-1E+10	1	-1E+10	1	-1E+10	1	-1E+10	1
4902554	87	C	07/06/2023	00:15	-132.553	47.645	0	227.10	0	5.1990	0	33.7770	0	26.685	0	225.078	0	-1e10	8	-1e10	8	-1E+10	1	-1E+10	1	-1E+10	1	-1E+10	1	-1E+10	1	-1E+10	1
4902554	87	C	07/06/2023	00:15	-132.553	47.645	0	227.80	0	5.1920	0	33.7770	0	26.686	0	225.771	0	-1e10	8	-1e10	8	-1E+10	1	-1E+10	1	-1E+10	1	-1E+10	1	-1E+10	1	-1E+10	1
4902554	87	C	07/06/2023	00:15	-132.553	47.645	0	229.00	0	5.1570	0	33.7780	0	26.691	0	226.960	0	-1e10	8	-1e10	8	-1E+10	1	-1E+10	1	-1E+10	1	-1E+10	1	-1E+10	1	-1E+10	1
4902554	87	C	07/06/2023	00:15	-132.553	47.645	0	230.20	0	5.1420	0	33.7770	0	26.692	0	228.149	0	-1e10	8	-1e10	8	-1E+10	1	-1E+10	1	-1E+10	1	-1E+10	1	-1E+10	1	-1E+10	1
4902554	87	C	07/06/2023	00:15	-132.553	47.645	0	231.00	0	5.1310	0	33.7780	0	26.694	0	228.941	0	-1e10	8	-1e10	8	-1E+10	1	-1E+10	1	-1E+10	1	-1E+10	1	-1E+10	1	-1E+10	1
4902554	87	C	07/06/2023	00:15	-132.553	47.645	0	231.70	0	5.1230	0	33.7780	0	26.695	0	229.634	0	-1e10	8	-1e10	8	-1E+10	1	-1E+10	1	-1E+10	1	-1E+10	1	-1E+10	1	-1E+10	1
4902554	87	C	07/06/2023	00:15	-132.553	47.645	0	232.90	0	5.1170	0	33.7780	0	26.695	0	230.823	0	-1e10	8	-1e10	8	-1E+10	1	-1E+10	1	-1E+10	1	-1E+10	1	-1E+10	1	-1E+10	1
4902554	87	C	07/06/2023	00:15	-132.553	47.645	0	234.10	0	5.1040	0	33.7780	0	26.697	0	232.012	0	-1e10	8	-1e10	8	-1E+10	1	-1E+10	1	-1E+10	1	-1E+10	1	-1E+10	1	-1E+10	1
4902554	87	C	07/06/2023	00:15	-132.553	47.645	0	235.00	0	5.0990	0	33.7780	0	26.697	0	232.903	0	-1e10	8	-1e10	8	-1E+10	1	-1E+10	1	-1E+10	1	-1E+10	1	-1E+10	1	-1E+10	1
4902554	87	C	07/06/2023	00:15	-132.553	47.645	0	235.80	0	5.0960	0	33.7790	0	26.699	0	233.695	0	-1e10	8	-1e10	8	-1E+10	1	-1E+10	1	-1E+10	1	-1E+10	1	-1E+10	1	-1E+10	1
4902554	87	C	07/06/2023	00:15	-132.553	47.645	0	237.00	0	5.0810	0	33.7790	0	26.700	0	234.884	0	-1e10	8	-1e10	8	-1E+10	1	-1E+10	1	-1E+10	1	-1E+10	1	-1E+10	1	-1E+10	1
4902554	87	C	07/06/2023	00:15	-132.553	47.645	0	238.30	0	5.0710	0	33.7790	0	26.701	0	236.172	0	-1e10	8	-1e10	8	-1E+10	1	-1E+10	1	-1E+10	1	-1E+10	1	-1E+10	1	-1E+10	1
4902554	87	C	07/06/2023	00:15	-132.553	47.645	0	239.10	0	5.0650	0	33.7790	0	26.702	0	236.964	0	-1e10	8	-1e10	8	-1E+10	1	-1E+10	1	-1E+10	1	-1E+10	1	-1E+10	1	-1E+10	1
4902554	87	C	07/06/2023	00:15	-132.553	47.645	0	240.00	0	5.0160	0	33.7830	0	26.711	0	237.856	0	-1e10	8	-1e10	8	-1E+10	1	-1E+10	1	-1E+10	1	-1E+10	1	-1E+10	1	-1E+10	1
4902554	87	C	07/06/2023	00:15	-132.553	47.645	0	240.90	0	5.0100	0	33.7830	0	26.712	0	238.747	0	-1e10	8	-1e10	8	-1E+10	1	-1E+10	1	-1E+10	1	-1E+10	1	-1E+10	1	-1E+10	1
4902554	87	C	07/06/2023	00:15	-132.553	47.645	0	241.70	0	5.0090	0	33.7830	0	26.712	0	239.539	0	-1e10	8	-1e10	8	-1E+10	1	-1E+10	1	-1E+10	1	-1E+10	1	-1E+10	1	-1E+10	1
4902554	87	C	07/06/2023	00:15	-132.553	47.645	0	243.00	0	5.0070	0	33.7820	0	26.711	0	240.827	0	-1e10	8	-1e10	8	-1E+10	1	-1E+10	1	-1E+10	1	-1E+10	1	-1E+10	1	-1E+10	1
4902554	87	C	07/06/2023	00:15	-132.553	47.645	0	244.30	0	5.0030	0	33.7810	0	26.711	0	242.115	0	-1e10	8	-1e10	8	-1E+10	1	-1E+10	1	-1E+10	1	-1E+10	1	-1E+10	1	-1E+10	1
4902554	87	C	07/06/2023	00:15	-132.553	47.645	0	245.20	0	4.9830	0	33.7850	0	26.716	0	243.006	0	-1e10	8	-1e10	8	-1E+10	1	-1E+10	1	-1E+10	1	-1E+10	1	-1E+10	1	-1E+10	1
4902554	87	C	07/06/2023	00:15	-132.553	47.645	0	246.10	0	4.9750	0	33.7860	0	26.718	0	243.897	0	-1e10	8	-1e10	8	-1E+10	1	-1E+10	1	-1E+10	1	-1E+10	1	-1E+10	1	-1E+10	1
4902554	87	C	07/06/2023	00:15	-132.553	47.645	0	247.00	0	4.9670	0	33.7860	0	26.719	0	244.789	0	-1e10	8	-1e10	8	-1E+10	1	-1E+10	1	-1E+10	1	-1E+10	1	-1E+10	1	-1E+10	1
4902554	87	C	07/06/2023	00:15	-132.553	47.645	0	248.00	0	4.9460	0	33.7870	0	26.722	0	245.779	0	-1e10	8	-1e10	8	-1E+10	1	-1E+10	1	-1E+10	1	-1E+10	1	-1E+10	1	-1E+10	1
4902554	87	C	07/06/2023	00:15	-132.553	47.645	0	248.90	0	4.9160	0	33.7920	0	26.729	0	246.671	0	-1e10	8	-1e10	8	-1E+10	1	-1E+10	1	-1E+10	1	-1E+10	1	-1E+10	1	-1E+10	1
4902554	87	C	07/06/2023	00:15	-132.553	47.645	0	249.80	0	4.9120	0	33.7890	0	26.727	0	247.562	0	-1e10	8	-1e10	8	-1E+10	1	-1E+10	1	-1E+10	1	-1E+10	1	-1E+10	1	-1E+10	1
4902554	87	C	07/06/2023	00:15	-132.553	47.645	0	250.70	0	4.9070	0	33.7900	0	26.729	0	248.454	0	-1e10	8	-1e10	8	-1E+10	1	-1E+10	1	-1E+10	1	-1E+10	1	-1E+10	1	-1E+10	1
4902554	87	C	07/06/2023	00:15	-132.553	47.645	0	251.70	0	4.9060	0	33.7890	0	26.728	0	249.444	0	-1e10	8	-1e10	8	-1E+10	1	-1E+10	1	-1E+10	1	-1E+10	1	-1E+10	1	-1E+10	1
4902554	87	C	07/06/2023	00:15	-132.553	47.645	0	252.60	0	4.9060	0	33.7890	0	26.728	0	250.335	0	-1e10	8	-1e10	8	-1E+10	1	-1E+10	1	-1E+10	1	-1E+10	1	-1E+10	1	-1E+10	1
4902554	87	C	07/06/2023	00:15	-132.553	47.645	0	253.50	0	4.9060	0	33.7890	0	26.728	0	251.227	0	-1e10	8	-1e10	8	-1E+10	1	-1E+10	1	-1E+10	1	-1E+10	1	-1E+10	1	-1E+10	1
4902554	87	C	07/06/2023	00:15	-132.553	47.645	0	254.90	0	4.9040	0	33.7890	0	26.728	0	252.613	0	-1e10	8	-1e10	8	-1E+10	1	-1E+10	1	-1E+10	1	-1E+10	1	-1E+10	1	-1E+10	1
4902554	87	C	07/06/2023	00:15	-132.553	47.645	0	256.40	0	4.9030	0	33.7900	0	26.729	0	254.099	0	-1e10	8	-1e10	8	-1E+10	1	-1E+10	1	-1E+10	1	-1E+10	1	-1E+10	1	-1E+10	1
4902554	87	C	07/06/2023	00:15	-132.553	47.645	0	257.30	0	4.9000	0	33.7910	0	26.730	0	254.990	0	-1e10	8	-1e10	8	-1E+10	1	-1E+10	1	-1E+10	1	-1E+10	1	-1E+10	1	-1E+10	1
4902554	87	C	07/06/2023	00:15	-132.553	47.645	0	258.30	0	4.9000	0	33.7900	0	26.730	0	255.981	0	-1e10	8	-1e10	8	-1E+10	1	-1E+10	1	-1E+10	1	-1E+10	1	-1E+10	1	-1E+10	1
4902554	87	C	07/06/2023	00:15	-132.553	47.645	0	259.30	0	4.8960	0	33.7900	0	26.730	0	256.971	0	-1e10	8	-1e10	8	-1E+10	1	-1E+10	1	-1E+10	1	-1E+10	1	-1E+10	1	-1E+10	1
4902554	87	C	07/06/2023	00:15	-132.553	47.645	0	260.30	0	4.8650	0	33.7940	0	26.737	0	257.962	0	-1e10	8	-1e10	8	-1E+10	1	-1E+10	1	-1E+10	1	-1E+10	1	-1E+10	1	-1E+10	1
4902554	87	C	07/06/2023	00:15	-132.553	47.645	0	261.20	0	4.8770	0	33.7970	0	26.738	0	258.853	0	-1e10	8	-1e10	8	-1E+10	1	-1E+10	1	-1E+10	1	-1E+10	1	-1E+10	1	-1E+10	1
4902554	87	C	07/06/2023	00:15	-132.553	47.645	0	262.20	0	4.8830	0	33.7980	0	26.738	0	259.843	0	-1e10	8	-1e10	8	-1E+10	1	-1E+10	1	-1E+10	1	-1E+10	1	-1E+10	1	-1E+10	1
4902554	87	C	07/06/2023	00:15	-132.553	47.645	0	263.20	0	4.8770	0	33.8010	0	26.741	0	260.834	0	-1e10	8	-1e10	8	-1E+10	1	-1E+10	1	-1E+10	1	-1E+10	1	-1E+10	1	-1E+10	1
4902554	87	C	07/06/2023	00:15	-132.553	47.645	0	264.20	0	4.8690	0	33.7990	0	26.740	0	261.824	0	-1e10	8	-1e10	8	-1E+10	1	-1E+10	1	-1E+10	1	-1E+10	1	-1E+10	1	-1E+10	1
4902554	87	C	07/06/2023	00:15	-132.553	47.645	0	265.20	0	4.8570	0	33.8010	0	26.743	0	262.814	0	-1e10	8	-1e10	8	-1E+10	1	-1E+10	1	-1E+10	1	-1E+10	1	-1E+10	1	-1E+10	1
4902554	87	C	07/06/2023	00:15	-132.553	47.645	0	266.20	0	4.8560	0	33.8010	0	26.743	0	263.805	0	-1e10	8	-1e10	8	-1E+10	1	-1E+10	1	-1E+10	1	-1E+10	1	-1E+10	1	-1E+10	1
4902554	87	C	07/06/2023	00:15	-132.553	47.645	0	267.20	0	4.8490	0	33.8050	0	26.747	0	264.795	0	-1e10	8	-1e10	8	-1E+10	1	-1E+10	1	-1E+10	1	-1E+10	1	-1E+10	1	-1E+10	1
4902554	87	C	07/06/2023	00:15	-132.553	47.645	0	268.10	0	4.8420	0	33.8030	0	26.746	0	265.686	0	-1e10	8	-1e10	8	-1E+10	1	-1E+10	1	-1E+10	1	-1E+10	1	-1E+10	1	-1E+10	1
4902554	87	C	07/06/2023	00:15	-132.553	47.645	0	269.10	0	4.8430	0	33.8030	0	26.746	0	266.677	0	-1e10	8	-1e10	8	-1E+10	1	-1E+10	1	-1E+10	1	-1E+10	1	-1E+10	1	-1E+10	1
4902554	87	C	07/06/2023	00:15	-132.553	47.645	0	270.10	0	4.8430	0	33.8060	0	26.749	0	267.667	0	-1e10	8	-1e10	8	-1E+10	1	-1E+10	1	-1E+10	1	-1E+10	1	-1E+10	1	-1E+10	1
4902554	87	C	07/06/2023	00:15	-132.553	47.645	0	271.10	0	4.8400	0	33.8110	0	26.753	0	268.658	0	-1e10	8	-1e10	8	-1E+10	1	-1E+10	1	-1E+10	1	-1E+10	1	-1E+10	1	-1E+10	1
4902554	87	C	07/06/2023	00:15	-132.553	47.645	0	272.10	0	4.8250	0	33.8120	0	26.756	0	269.648	0	-1e10	8	-1e10	8	-1E+10	1	-1E+10	1	-1E+10	1	-1E+10	1	-1E+10	1	-1E+10	1
4902554	87	C	07/06/2023	00:15	-132.553	47.645	0	273.00	0	4.8170	0	33.8120	0	26.756	0	270.539	0	-1e10	8	-1e10	8	-1E+10	1	-1E+10	1	-1E+10	1	-1E+10	1	-1E+10	1	-1E+10	1
4902554	87	C	07/06/2023	00:15	-132.553	47.645	0	274.10	0	4.8070	0	33.8120	0	26.758	0	271.629	0	-1e10	8	-1e10	8	-1E+10	1	-1E+10	1	-1E+10	1	-1E+10	1	-1E+10	1	-1E+10	1
4902554	87	C	07/06/2023	00:15	-132.553	47.645	0	275.00	0	4.7960	0	33.8130	0	26.760	0	272.520	0	-1e10	8	-1e10	8	-1E+10	1	-1E+10	1	-1E+10	1	-1E+10	1	-1E+10	1	-1E+10	1
4902554	87	C	07/06/2023	00:15	-132.553	47.645	0	276.00	0	4.7920	0	33.8120	0	26.759	0	273.510	0	-1e10	8	-1e10	8	-1E+10	1	-1E+10	1	-1E+10	1	-1E+10	1	-1E+10	1	-1E+10	1
4902554	87	C	07/06/2023	00:15	-132.553	47.645	0	277.00	0	4.7920	0	33.8120	0	26.759	0	274.500	0	-1e10	8	-1e10	8	-1E+10	1	-1E+10	1	-1E+10	1	-1E+10	1	-1E+10	1	-1E+10	1
4902554	87	C	07/06/2023	00:15	-132.553	47.645	0	278.00	0	4.7860	0	33.8120	0	26.760	0	275.491	0	-1e10	8	-1e10	8	-1E+10	1	-1E+10	1	-1E+10	1	-1E+10	1	-1E+10	1	-1E+10	1
4902554	87	C	07/06/2023	00:15	-132.553	47.645	0	279.00	0	4.7840	0	33.8120	0	26.760	0	276.481	0	-1e10	8	-1e10	8	-1E+10	1	-1E+10	1	-1E+10	1	-1E+10	1	-1E+10	1	-1E+10	1
4902554	87	C	07/06/2023	00:15	-132.553	47.645	0	280.00	0	4.7800	0	33.8120	0	26.761	0	277.471	0	-1e10	8	-1e10	8	-1E+10	1	-1E+10	1	-1E+10	1	-1E+10	1	-1E+10	1	-1E+10	1
4902554	87	C	07/06/2023	00:15	-132.553	47.645	0	281.00	0	4.7690	0	33.8130	0	26.763	0	278.462	0	-1e10	8	-1e10	8	-1E+10	1	-1E+10	1	-1E+10	1	-1E+10	1	-1E+10	1	-1E+10	1
4902554	87	C	07/06/2023	00:15	-132.553	47.645	0	282.00	0	4.7630	0	33.8140	0	26.764	0	279.452	0	-1e10	8	-1e10	8	-1E+10	1	-1E+10	1	-1E+10	1	-1E+10	1	-1E+10	1	-1E+10	1
4902554	87	C	07/06/2023	00:15	-132.553	47.645	0	283.10	0	4.7610	0	33.8140	0	26.764	0	280.541	0	-1e10	8	-1e10	8	-1E+10	1	-1E+10	1	-1E+10	1	-1E+10	1	-1E+10	1	-1E+10	1
4902554	87	C	07/06/2023	00:15	-132.553	47.645	0	284.10	0	4.7510	0	33.8150	0	26.766	0	281.532	0	-1e10	8	-1e10	8	-1E+10	1	-1E+10	1	-1E+10	1	-1E+10	1	-1E+10	1	-1E+10	1
4902554	87	C	07/06/2023	00:15	-132.553	47.645	0	285.10	0	4.7470	0	33.8160	0	26.767	0	282.522	0	-1e10	8	-1e10	8	-1E+10	1	-1E+10	1	-1E+10	1	-1E+10	1	-1E+10	1	-1E+10	1
4902554	87	C	07/06/2023	00:15	-132.553	47.645	0	286.10	0	4.7430	0	33.8170	0	26.769	0	283.512	0	-1e10	8	-1e10	8	-1E+10	1	-1E+10	1	-1E+10	1	-1E+10	1	-1E+10	1	-1E+10	1
4902554	87	C	07/06/2023	00:15	-132.553	47.645	0	287.10	0	4.7330	0	33.8170	0	26.770	0	284.502	0	-1e10	8	-1e10	8	-1E+10	1	-1E+10	1	-1E+10	1	-1E+10	1	-1E+10	1	-1E+10	1
4902554	87	C	07/06/2023	00:15	-132.553	47.645	0	288.10	0	4.7290	0	33.8180	0	26.771	0	285.493	0	-1e10	8	-1e10	8	-1E+10	1	-1E+10	1	-1E+10	1	-1E+10	1	-1E+10	1	-1E+10	1
4902554	87	C	07/06/2023	00:15	-132.553	47.645	0	289.10	0	4.7220	0	33.8190	0	26.773	0	286.483	0	-1e10	8	-1e10	8	-1E+10	1	-1E+10	1	-1E+10	1	-1E+10	1	-1E+10	1	-1E+10	1
4902554	87	C	07/06/2023	00:15	-132.553	47.645	0	290.10	0	4.7140	0	33.8200	0	26.774	0	287.473	0	-1e10	8	-1e10	8	-1E+10	1	-1E+10	1	-1E+10	1	-1E+10	1	-1E+10	1	-1E+10	1
4902554	87	C	07/06/2023	00:15	-132.553	47.645	0	291.10	0	4.7100	0	33.8220	0	26.776	0	288.463	0	-1e10	8	-1e10	8	-1E+10	1	-1E+10	1	-1E+10	1	-1E+10	1	-1E+10	1	-1E+10	1
4902554	87	C	07/06/2023	00:15	-132.553	47.645	0	292.10	0	4.7080	0	33.8220	0	26.777	0	289.454	0	-1e10	8	-1e10	8	-1E+10	1	-1E+10	1	-1E+10	1	-1E+10	1	-1E+10	1	-1E+10	1
4902554	87	C	07/06/2023	00:15	-132.553	47.645	0	293.20	0	4.7060	0	33.8220	0	26.777	0	290.543	0	-1e10	8	-1e10	8	-1E+10	1	-1E+10	1	-1E+10	1	-1E+10	1	-1E+10	1	-1E+10	1
4902554	87	C	07/06/2023	00:15	-132.553	47.645	0	294.10	0	4.7040	0	33.8220	0	26.777	0	291.434	0	-1e10	8	-1e10	8	-1E+10	1	-1E+10	1	-1E+10	1	-1E+10	1	-1E+10	1	-1E+10	1
4902554	87	C	07/06/2023	00:15	-132.553	47.645	0	295.10	0	4.7040	0	33.8220	0	26.777	0	292.424	0	-1e10	8	-1e10	8	-1E+10	1	-1E+10	1	-1E+10	1	-1E+10	1	-1E+10	1	-1E+10	1
4902554	87	C	07/06/2023	00:15	-132.553	47.645	0	296.10	0	4.7030	0	33.8220	0	26.777	0	293.415	0	-1e10	8	-1e10	8	-1E+10	1	-1E+10	1	-1E+10	1	-1E+10	1	-1E+10	1	-1E+10	1
4902554	87	C	07/06/2023	00:15	-132.553	47.645	0	297.10	0	4.7040	0	33.8220	0	26.777	0	294.405	0	-1e10	8	-1e10	8	-1E+10	1	-1E+10	1	-1E+10	1	-1E+10	1	-1E+10	1	-1E+10	1
4902554	87	C	07/06/2023	00:15	-132.553	47.645	0	298.20	0	4.7000	0	33.8220	0	26.777	0	295.494	0	-1e10	8	-1e10	8	-1E+10	1	-1E+10	1	-1E+10	1	-1E+10	1	-1E+10	1	-1E+10	1
4902554	87	C	07/06/2023	00:15	-132.553	47.645	0	299.20	0	4.6800	0	33.8250	0	26.782	0	296.484	0	-1e10	8	-1e10	8	-1E+10	1	-1E+10	1	-1E+10	1	-1E+10	1	-1E+10	1	-1E+10	1
4902554	87	C	07/06/2023	00:15	-132.553	47.645	0	300.20	0	4.6650	0	33.8270	0	26.785	0	297.474	0	-1e10	8	-1e10	8	-1E+10	1	-1E+10	1	-1E+10	1	-1E+10	1	-1E+10	1	-1E+10	1
4902554	87	C	07/06/2023	00:15	-132.553	47.645	0	301.20	0	4.6520	0	33.8280	0	26.788	0	298.465	0	-1e10	8	-1e10	8	-1E+10	1	-1E+10	1	-1E+10	1	-1E+10	1	-1E+10	1	-1E+10	1
4902554	87	C	07/06/2023	00:15	-132.553	47.645	0	302.20	0	4.6490	0	33.8280	0	26.788	0	299.455	0	-1e10	8	-1e10	8	-1E+10	1	-1E+10	1	-1E+10	1	-1E+10	1	-1E+10	1	-1E+10	1
4902554	87	C	07/06/2023	00:15	-132.553	47.645	0	303.30	0	4.6480	0	33.8280	0	26.788	0	300.544	0	-1e10	8	-1e10	8	-1E+10	1	-1E+10	1	-1E+10	1	-1E+10	1	-1E+10	1	-1E+10	1
4902554	87	C	07/06/2023	00:15	-132.553	47.645	0	304.30	0	4.6340	0	33.8300	0	26.791	0	301.534	0	-1e10	8	-1e10	8	-1E+10	1	-1E+10	1	-1E+10	1	-1E+10	1	-1E+10	1	-1E+10	1
4902554	87	C	07/06/2023	00:15	-132.553	47.645	0	305.30	0	4.6340	0	33.8290	0	26.790	0	302.524	0	-1e10	8	-1e10	8	-1E+10	1	-1E+10	1	-1E+10	1	-1E+10	1	-1E+10	1	-1E+10	1
4902554	87	C	07/06/2023	00:15	-132.553	47.645	0	306.30	0	4.6170	0	33.8290	0	26.792	0	303.515	0	-1e10	8	-1e10	8	-1E+10	1	-1E+10	1	-1E+10	1	-1E+10	1	-1E+10	1	-1E+10	1
4902554	87	C	07/06/2023	00:15	-132.553	47.645	0	307.20	0	4.6060	0	33.8300	0	26.794	0	304.406	0	-1e10	8	-1e10	8	-1E+10	1	-1E+10	1	-1E+10	1	-1E+10	1	-1E+10	1	-1E+10	1
4902554	87	C	07/06/2023	00:15	-132.553	47.645	0	308.20	0	4.6040	0	33.8310	0	26.795	0	305.396	0	-1e10	8	-1e10	8	-1E+10	1	-1E+10	1	-1E+10	1	-1E+10	1	-1E+10	1	-1E+10	1
4902554	87	C	07/06/2023	00:15	-132.553	47.645	0	309.20	0	4.6030	0	33.8310	0	26.795	0	306.386	0	-1e10	8	-1e10	8	-1E+10	1	-1E+10	1	-1E+10	1	-1E+10	1	-1E+10	1	-1E+10	1
4902554	87	C	07/06/2023	00:15	-132.553	47.645	0	310.20	0	4.5980	0	33.8320	0	26.797	0	307.376	0	-1e10	8	-1e10	8	-1E+10	1	-1E+10	1	-1E+10	1	-1E+10	1	-1E+10	1	-1E+10	1
4902554	87	C	07/06/2023	00:15	-132.553	47.645	0	311.20	0	4.5960	0	33.8320	0	26.797	0	308.366	0	-1e10	8	-1e10	8	-1E+10	1	-1E+10	1	-1E+10	1	-1E+10	1	-1E+10	1	-1E+10	1
4902554	87	C	07/06/2023	00:15	-132.553	47.645	0	312.20	0	4.5880	0	33.8360	0	26.801	0	309.357	0	-1e10	8	-1e10	8	-1E+10	1	-1E+10	1	-1E+10	1	-1E+10	1	-1E+10	1	-1E+10	1
4902554	87	C	07/06/2023	00:15	-132.553	47.645	0	313.10	0	4.5890	0	33.8380	0	26.802	0	310.248	0	-1e10	8	-1e10	8	-1E+10	1	-1E+10	1	-1E+10	1	-1E+10	1	-1E+10	1	-1E+10	1
4902554	87	C	07/06/2023	00:15	-132.553	47.645	0	314.10	0	4.5860	0	33.8380	0	26.803	0	311.238	0	-1e10	8	-1e10	8	-1E+10	1	-1E+10	1	-1E+10	1	-1E+10	1	-1E+10	1	-1E+10	1
4902554	87	C	07/06/2023	00:15	-132.553	47.645	0	315.10	0	4.5830	0	33.8380	0	26.803	0	312.228	0	-1e10	8	-1e10	8	-1E+10	1	-1E+10	1	-1E+10	1	-1E+10	1	-1E+10	1	-1E+10	1
4902554	87	C	07/06/2023	00:15	-132.553	47.645	0	316.00	0	4.5840	0	33.8380	0	26.803	0	313.119	0	-1e10	8	-1e10	8	-1E+10	1	-1E+10	1	-1E+10	1	-1E+10	1	-1E+10	1	-1E+10	1
4902554	87	C	07/06/2023	00:15	-132.553	47.645	0	317.00	0	4.5810	0	33.8390	0	26.804	0	314.109	0	-1e10	8	-1e10	8	-1E+10	1	-1E+10	1	-1E+10	1	-1E+10	1	-1E+10	1	-1E+10	1
4902554	87	C	07/06/2023	00:15	-132.553	47.645	0	318.00	0	4.5760	0	33.8400	0	26.805	0	315.099	0	-1e10	8	-1e10	8	-1E+10	1	-1E+10	1	-1E+10	1	-1E+10	1	-1E+10	1	-1E+10	1
4902554	87	C	07/06/2023	00:15	-132.553	47.645	0	318.90	0	4.5750	0	33.8400	0	26.806	0	315.990	0	-1e10	8	-1e10	8	-1E+10	1	-1E+10	1	-1E+10	1	-1E+10	1	-1E+10	1	-1E+10	1
4902554	87	C	07/06/2023	00:15	-132.553	47.645	0	319.90	0	4.5730	0	33.8400	0	26.806	0	316.981	0	-1e10	8	-1e10	8	-1E+10	1	-1E+10	1	-1E+10	1	-1E+10	1	-1E+10	1	-1E+10	1
4902554	87	C	07/06/2023	00:15	-132.553	47.645	0	320.90	0	4.5710	0	33.8410	0	26.807	0	317.971	0	-1e10	8	-1e10	8	-1E+10	1	-1E+10	1	-1E+10	1	-1E+10	1	-1E+10	1	-1E+10	1
4902554	87	C	07/06/2023	00:15	-132.553	47.645	0	321.80	0	4.5640	0	33.8430	0	26.809	0	318.862	0	-1e10	8	-1e10	8	-1E+10	1	-1E+10	1	-1E+10	1	-1E+10	1	-1E+10	1	-1E+10	1
4902554	87	C	07/06/2023	00:15	-132.553	47.645	0	322.80	0	4.5570	0	33.8440	0	26.811	0	319.852	0	-1e10	8	-1e10	8	-1E+10	1	-1E+10	1	-1E+10	1	-1E+10	1	-1E+10	1	-1E+10	1
4902554	87	C	07/06/2023	00:15	-132.553	47.645	0	323.80	0	4.5530	0	33.8450	0	26.812	0	320.842	0	-1e10	8	-1e10	8	-1E+10	1	-1E+10	1	-1E+10	1	-1E+10	1	-1E+10	1	-1E+10	1
4902554	87	C	07/06/2023	00:15	-132.553	47.645	0	324.70	0	4.5440	0	33.8480	0	26.815	0	321.733	0	-1e10	8	-1e10	8	-1E+10	1	-1E+10	1	-1E+10	1	-1E+10	1	-1E+10	1	-1E+10	1
4902554	87	C	07/06/2023	00:15	-132.553	47.645	0	325.70	0	4.5400	0	33.8490	0	26.817	0	322.723	0	-1e10	8	-1e10	8	-1E+10	1	-1E+10	1	-1E+10	1	-1E+10	1	-1E+10	1	-1E+10	1
4902554	87	C	07/06/2023	00:15	-132.553	47.645	0	326.70	0	4.5370	0	33.8490	0	26.817	0	323.713	0	-1e10	8	-1e10	8	-1E+10	1	-1E+10	1	-1E+10	1	-1E+10	1	-1E+10	1	-1E+10	1
4902554	87	C	07/06/2023	00:15	-132.553	47.645	0	327.60	0	4.5370	0	33.8490	0	26.817	0	324.604	0	-1e10	8	-1e10	8	-1E+10	1	-1E+10	1	-1E+10	1	-1E+10	1	-1E+10	1	-1E+10	1
4902554	87	C	07/06/2023	00:15	-132.553	47.645	0	328.60	0	4.5350	0	33.8500	0	26.818	0	325.594	0	-1e10	8	-1e10	8	-1E+10	1	-1E+10	1	-1E+10	1	-1E+10	1	-1E+10	1	-1E+10	1
4902554	87	C	07/06/2023	00:15	-132.553	47.645	0	329.60	0	4.5290	0	33.8490	0	26.818	0	326.584	0	-1e10	8	-1e10	8	-1E+10	1	-1E+10	1	-1E+10	1	-1E+10	1	-1E+10	1	-1E+10	1
4902554	87	C	07/06/2023	00:15	-132.553	47.645	0	330.50	0	4.5220	0	33.8500	0	26.819	0	327.475	0	-1e10	8	-1e10	8	-1E+10	1	-1E+10	1	-1E+10	1	-1E+10	1	-1E+10	1	-1E+10	1
4902554	87	C	07/06/2023	00:15	-132.553	47.645	0	331.50	0	4.5120	0	33.8540	0	26.824	0	328.465	0	-1e10	8	-1e10	8	-1E+10	1	-1E+10	1	-1E+10	1	-1E+10	1	-1E+10	1	-1E+10	1
4902554	87	C	07/06/2023	00:15	-132.553	47.645	0	332.50	0	4.5110	0	33.8540	0	26.824	0	329.456	0	-1e10	8	-1e10	8	-1E+10	1	-1E+10	1	-1E+10	1	-1E+10	1	-1E+10	1	-1E+10	1
4902554	87	C	07/06/2023	00:15	-132.553	47.645	0	333.50	0	4.5060	0	33.8560	0	26.826	0	330.446	0	-1e10	8	-1e10	8	-1E+10	1	-1E+10	1	-1E+10	1	-1E+10	1	-1E+10	1	-1E+10	1
4902554	87	C	07/06/2023	00:15	-132.553	47.645	0	334.50	0	4.5010	0	33.8550	0	26.826	0	331.436	0	-1e10	8	-1e10	8	-1E+10	1	-1E+10	1	-1E+10	1	-1E+10	1	-1E+10	1	-1E+10	1
4902554	87	C	07/06/2023	00:15	-132.553	47.645	0	335.50	0	4.4990	0	33.8560	0	26.827	0	332.426	0	-1e10	8	-1e10	8	-1E+10	1	-1E+10	1	-1E+10	1	-1E+10	1	-1E+10	1	-1E+10	1
4902554	87	C	07/06/2023	00:15	-132.553	47.645	0	336.50	0	4.4970	0	33.8560	0	26.827	0	333.416	0	-1e10	8	-1e10	8	-1E+10	1	-1E+10	1	-1E+10	1	-1E+10	1	-1E+10	1	-1E+10	1
4902554	87	C	07/06/2023	00:15	-132.553	47.645	0	337.50	0	4.4910	0	33.8580	0	26.829	0	334.406	0	-1e10	8	-1e10	8	-1E+10	1	-1E+10	1	-1E+10	1	-1E+10	1	-1E+10	1	-1E+10	1
4902554	87	C	07/06/2023	00:15	-132.553	47.645	0	338.50	0	4.4810	0	33.8600	0	26.832	0	335.396	0	-1e10	8	-1e10	8	-1E+10	1	-1E+10	1	-1E+10	1	-1E+10	1	-1E+10	1	-1E+10	1
4902554	87	C	07/06/2023	00:15	-132.553	47.645	0	339.50	0	4.4760	0	33.8610	0	26.833	0	336.386	0	-1e10	8	-1e10	8	-1E+10	1	-1E+10	1	-1E+10	1	-1E+10	1	-1E+10	1	-1E+10	1
4902554	87	C	07/06/2023	00:15	-132.553	47.645	0	340.50	0	4.4750	0	33.8610	0	26.833	0	337.376	0	-1e10	8	-1e10	8	-1E+10	1	-1E+10	1	-1E+10	1	-1E+10	1	-1E+10	1	-1E+10	1
4902554	87	C	07/06/2023	00:15	-132.553	47.645	0	341.50	0	4.4710	0	33.8610	0	26.834	0	338.366	0	-1e10	8	-1e10	8	-1E+10	1	-1E+10	1	-1E+10	1	-1E+10	1	-1E+10	1	-1E+10	1
4902554	87	C	07/06/2023	00:15	-132.553	47.645	0	342.50	0	4.4640	0	33.8640	0	26.837	0	339.356	0	-1e10	8	-1e10	8	-1E+10	1	-1E+10	1	-1E+10	1	-1E+10	1	-1E+10	1	-1E+10	1
4902554	87	C	07/06/2023	00:15	-132.553	47.645	0	343.50	0	4.4570	0	33.8650	0	26.838	0	340.346	0	-1e10	8	-1e10	8	-1E+10	1	-1E+10	1	-1E+10	1	-1E+10	1	-1E+10	1	-1E+10	1
4902554	87	C	07/06/2023	00:15	-132.553	47.645	0	344.50	0	4.4460	0	33.8650	0	26.839	0	341.336	0	-1e10	8	-1e10	8	-1E+10	1	-1E+10	1	-1E+10	1	-1E+10	1	-1E+10	1	-1E+10	1
4902554	87	C	07/06/2023	00:15	-132.553	47.645	0	345.50	0	4.4380	0	33.8670	0	26.842	0	342.326	0	-1e10	8	-1e10	8	-1E+10	1	-1E+10	1	-1E+10	1	-1E+10	1	-1E+10	1	-1E+10	1
4902554	87	C	07/06/2023	00:15	-132.553	47.645	0	346.50	0	4.4310	0	33.8690	0	26.844	0	343.316	0	-1e10	8	-1e10	8	-1E+10	1	-1E+10	1	-1E+10	1	-1E+10	1	-1E+10	1	-1E+10	1
4902554	87	C	07/06/2023	00:15	-132.553	47.645	0	347.50	0	4.4250	0	33.8710	0	26.846	0	344.306	0	-1e10	8	-1e10	8	-1E+10	1	-1E+10	1	-1E+10	1	-1E+10	1	-1E+10	1	-1E+10	1
4902554	87	C	07/06/2023	00:15	-132.553	47.645	0	348.50	0	4.4200	0	33.8720	0	26.848	0	345.296	0	-1e10	8	-1e10	8	-1E+10	1	-1E+10	1	-1E+10	1	-1E+10	1	-1E+10	1	-1E+10	1
4902554	87	C	07/06/2023	00:15	-132.553	47.645	0	349.50	0	4.4130	0	33.8730	0	26.849	0	346.286	0	-1e10	8	-1e10	8	-1E+10	1	-1E+10	1	-1E+10	1	-1E+10	1	-1E+10	1	-1E+10	1
4902554	87	C	07/06/2023	00:15	-132.553	47.645	0	352.50	0	4.4040	0	33.8770	0	26.854	0	349.256	0	-1e10	8	-1e10	8	-1E+10	1	-1E+10	1	-1E+10	1	-1E+10	1	-1E+10	1	-1E+10	1
4902554	87	C	07/06/2023	00:15	-132.553	47.645	0	357.60	0	4.4030	0	33.8770	0	26.854	0	354.304	0	-1e10	8	-1e10	8	-1E+10	1	-1E+10	1	-1E+10	1	-1E+10	1	-1E+10	1	-1E+10	1
4902554	87	C	07/06/2023	00:15	-132.553	47.645	0	362.70	0	4.3750	0	33.8850	0	26.863	0	359.353	0	-1e10	8	-1e10	8	-1E+10	1	-1E+10	1	-1E+10	1	-1E+10	1	-1E+10	1	-1E+10	1
4902554	87	C	07/06/2023	00:15	-132.553	47.645	0	367.80	0	4.3590	0	33.8920	0	26.870	0	364.401	0	-1e10	8	-1e10	8	-1E+10	1	-1E+10	1	-1E+10	1	-1E+10	1	-1E+10	1	-1E+10	1
4902554	87	C	07/06/2023	00:15	-132.553	47.645	0	373.00	0	4.3520	0	33.8950	0	26.873	0	369.549	0	-1e10	8	-1e10	8	-1E+10	1	-1E+10	1	-1E+10	1	-1E+10	1	-1E+10	1	-1E+10	1
4902554	87	C	07/06/2023	00:15	-132.553	47.645	0	378.20	0	4.3390	0	33.9020	0	26.880	0	374.696	0	-1e10	8	-1e10	8	-1E+10	1	-1E+10	1	-1E+10	1	-1E+10	1	-1E+10	1	-1E+10	1
4902554	87	C	07/06/2023	00:15	-132.553	47.645	0	383.10	0	4.3260	0	33.9100	0	26.888	0	379.546	0	-1e10	8	-1e10	8	-1E+10	1	-1E+10	1	-1E+10	1	-1E+10	1	-1E+10	1	-1E+10	1
4902554	87	C	07/06/2023	00:15	-132.553	47.645	0	388.20	0	4.3100	0	33.9210	0	26.899	0	384.594	0	-1e10	8	-1e10	8	-1E+10	1	-1E+10	1	-1E+10	1	-1E+10	1	-1E+10	1	-1E+10	1
4902554	87	C	07/06/2023	00:15	-132.553	47.645	0	393.00	0	4.3030	0	33.9260	0	26.903	0	389.345	0	-1e10	8	-1e10	8	-1E+10	1	-1E+10	1	-1E+10	1	-1E+10	1	-1E+10	1	-1E+10	1
4902554	87	C	07/06/2023	00:15	-132.553	47.645	0	397.90	0	4.2990	0	33.9290	0	26.906	0	394.195	0	-1e10	8	-1e10	8	-1E+10	1	-1E+10	1	-1E+10	1	-1E+10	1	-1E+10	1	-1E+10	1
4902554	87	C	07/06/2023	00:15	-132.553	47.645	0	402.90	0	4.2870	0	33.9390	0	26.916	0	399.143	0	-1e10	8	-1e10	8	-1E+10	1	-1E+10	1	-1E+10	1	-1E+10	1	-1E+10	1	-1E+10	1
4902554	87	C	07/06/2023	00:15	-132.553	47.645	0	407.90	0	4.2720	0	33.9510	0	26.927	0	404.092	0	-1e10	8	-1e10	8	-1E+10	1	-1E+10	1	-1E+10	1	-1E+10	1	-1E+10	1	-1E+10	1
4902554	87	C	07/06/2023	00:15	-132.553	47.645	0	412.90	0	4.2650	0	33.9550	0	26.931	0	409.040	0	-1e10	8	-1e10	8	-1E+10	1	-1E+10	1	-1E+10	1	-1E+10	1	-1E+10	1	-1E+10	1
4902554	87	C	07/06/2023	00:15	-132.553	47.645	0	417.80	0	4.2570	0	33.9620	0	26.937	0	413.889	0	-1e10	8	-1e10	8	-1E+10	1	-1E+10	1	-1E+10	1	-1E+10	1	-1E+10	1	-1E+10	1
4902554	87	C	07/06/2023	00:15	-132.553	47.645	0	422.90	0	4.2430	0	33.9750	0	26.949	0	418.936	0	-1e10	8	-1e10	8	-1E+10	1	-1E+10	1	-1E+10	1	-1E+10	1	-1E+10	1	-1E+10	1
4902554	87	C	07/06/2023	00:15	-132.553	47.645	0	428.00	0	4.2390	0	33.9790	0	26.953	0	423.983	0	-1e10	8	-1e10	8	-1E+10	1	-1E+10	1	-1E+10	1	-1E+10	1	-1E+10	1	-1E+10	1
4902554	87	C	07/06/2023	00:15	-132.553	47.645	0	433.00	0	4.2310	0	33.9860	0	26.959	0	428.931	0	-1e10	8	-1e10	8	-1E+10	1	-1E+10	1	-1E+10	1	-1E+10	1	-1E+10	1	-1E+10	1
4902554	87	C	07/06/2023	00:15	-132.553	47.645	0	438.00	0	4.2200	0	33.9940	0	26.967	0	433.879	0	-1e10	8	-1e10	8	-1E+10	1	-1E+10	1	-1E+10	1	-1E+10	1	-1E+10	1	-1E+10	1
4902554	87	C	07/06/2023	00:15	-132.553	47.645	0	443.10	0	4.2030	0	34.0010	0	26.974	0	438.926	0	-1e10	8	-1e10	8	-1E+10	1	-1E+10	1	-1E+10	1	-1E+10	1	-1E+10	1	-1E+10	1
4902554	87	C	07/06/2023	00:15	-132.553	47.645	0	447.70	0	4.1990	0	34.0040	0	26.977	0	443.478	0	-1e10	8	-1e10	8	-1E+10	1	-1E+10	1	-1E+10	1	-1E+10	1	-1E+10	1	-1E+10	1
4902554	87	C	07/06/2023	00:15	-132.553	47.645	0	452.80	0	4.1890	0	34.0090	0	26.982	0	448.524	0	-1e10	8	-1e10	8	-1E+10	1	-1E+10	1	-1E+10	1	-1E+10	1	-1E+10	1	-1E+10	1
4902554	87	C	07/06/2023	00:15	-132.553	47.645	0	457.90	0	4.1830	0	34.0130	0	26.986	0	453.570	0	-1e10	8	-1e10	8	-1E+10	1	-1E+10	1	-1E+10	1	-1E+10	1	-1E+10	1	-1E+10	1
4902554	87	C	07/06/2023	00:15	-132.553	47.645	0	462.60	0	4.1810	0	34.0160	0	26.988	0	458.221	0	-1e10	8	-1e10	8	-1E+10	1	-1E+10	1	-1E+10	1	-1E+10	1	-1E+10	1	-1E+10	1
4902554	87	C	07/06/2023	00:15	-132.553	47.645	0	467.80	0	4.1800	0	34.0190	0	26.991	0	463.366	0	-1e10	8	-1e10	8	-1E+10	1	-1E+10	1	-1E+10	1	-1E+10	1	-1E+10	1	-1E+10	1
4902554	87	C	07/06/2023	00:15	-132.553	47.645	0	473.10	0	4.1740	0	34.0310	0	27.001	0	468.609	0	-1e10	8	-1e10	8	-1E+10	1	-1E+10	1	-1E+10	1	-1E+10	1	-1E+10	1	-1E+10	1
4902554	87	C	07/06/2023	00:15	-132.553	47.645	0	477.90	0	4.1710	0	34.0370	0	27.006	0	473.358	0	-1e10	8	-1e10	8	-1E+10	1	-1E+10	1	-1E+10	1	-1E+10	1	-1E+10	1	-1E+10	1
4902554	87	C	07/06/2023	00:15	-132.553	47.645	0	482.70	0	4.1670	0	34.0410	0	27.010	0	478.107	0	-1e10	8	-1e10	8	-1E+10	1	-1E+10	1	-1E+10	1	-1E+10	1	-1E+10	1	-1E+10	1
4902554	87	C	07/06/2023	00:15	-132.553	47.645	0	487.70	0	4.1610	0	34.0460	0	27.014	0	483.054	0	-1e10	8	-1e10	8	-1E+10	1	-1E+10	1	-1E+10	1	-1E+10	1	-1E+10	1	-1E+10	1
4902554	87	C	07/06/2023	00:15	-132.553	47.645	0	492.70	0	4.1540	0	34.0520	0	27.020	0	488.000	0	-1e10	8	-1e10	8	-1E+10	1	-1E+10	1	-1E+10	1	-1E+10	1	-1E+10	1	-1E+10	1
4902554	87	C	07/06/2023	00:15	-132.553	47.645	0	497.60	0	4.1480	0	34.0560	0	27.024	0	492.848	0	-1e10	8	-1e10	8	-1E+10	1	-1E+10	1	-1E+10	1	-1E+10	1	-1E+10	1	-1E+10	1
4902554	87	C	07/06/2023	00:15	-132.553	47.645	0	502.60	0	4.1410	0	34.0590	0	27.027	0	497.794	0	-1e10	8	-1e10	8	-1E+10	1	-1E+10	1	-1E+10	1	-1E+10	1	-1E+10	1	-1E+10	1
4902554	87	C	07/06/2023	00:15	-132.553	47.645	0	507.50	0	4.1360	0	34.0630	0	27.031	0	502.641	0	-1e10	8	-1e10	8	-1E+10	1	-1E+10	1	-1E+10	1	-1E+10	1	-1E+10	1	-1E+10	1
4902554	87	C	07/06/2023	00:15	-132.553	47.645	0	512.50	0	4.1360	0	34.0640	0	27.031	0	507.587	0	-1e10	8	-1e10	8	-1E+10	1	-1E+10	1	-1E+10	1	-1E+10	1	-1E+10	1	-1E+10	1
4902554	87	C	07/06/2023	00:15	-132.553	47.645	0	517.50	0	4.1240	0	34.0700	0	27.038	0	512.533	0	-1e10	8	-1e10	8	-1E+10	1	-1E+10	1	-1E+10	1	-1E+10	1	-1E+10	1	-1E+10	1
4902554	87	C	07/06/2023	00:15	-132.553	47.645	0	522.50	0	4.1120	0	34.0740	0	27.042	0	517.479	0	-1e10	8	-1e10	8	-1E+10	1	-1E+10	1	-1E+10	1	-1E+10	1	-1E+10	1	-1E+10	1
4902554	87	C	07/06/2023	00:15	-132.553	47.645	0	527.60	0	4.1060	0	34.0770	0	27.045	0	522.524	0	-1e10	8	-1e10	8	-1E+10	1	-1E+10	1	-1E+10	1	-1E+10	1	-1E+10	1	-1E+10	1
4902554	87	C	07/06/2023	00:15	-132.553	47.645	0	532.80	0	4.0930	0	34.0820	0	27.050	0	527.667	0	-1e10	8	-1e10	8	-1E+10	1	-1E+10	1	-1E+10	1	-1E+10	1	-1E+10	1	-1E+10	1
4902554	87	C	07/06/2023	00:15	-132.553	47.645	0	538.00	0	4.0780	0	34.0910	0	27.059	0	532.810	0	-1e10	8	-1e10	8	-1E+10	1	-1E+10	1	-1E+10	1	-1E+10	1	-1E+10	1	-1E+10	1
4902554	87	C	07/06/2023	00:15	-132.553	47.645	0	542.70	0	4.0690	0	34.0930	0	27.062	0	537.459	0	-1e10	8	-1e10	8	-1E+10	1	-1E+10	1	-1E+10	1	-1E+10	1	-1E+10	1	-1E+10	1
4902554	87	C	07/06/2023	00:15	-132.553	47.645	0	547.50	0	4.0580	0	34.0950	0	27.064	0	542.206	0	-1e10	8	-1e10	8	-1E+10	1	-1E+10	1	-1E+10	1	-1E+10	1	-1E+10	1	-1E+10	1
4902554	87	C	07/06/2023	00:15	-132.553	47.645	0	552.80	0	4.0460	0	34.1010	0	27.070	0	547.448	0	-1e10	8	-1e10	8	-1E+10	1	-1E+10	1	-1E+10	1	-1E+10	1	-1E+10	1	-1E+10	1
4902554	87	C	07/06/2023	00:15	-132.553	47.645	0	557.70	0	4.0310	0	34.1070	0	27.077	0	552.294	0	-1e10	8	-1e10	8	-1E+10	1	-1E+10	1	-1E+10	1	-1E+10	1	-1E+10	1	-1E+10	1
4902554	87	C	07/06/2023	00:15	-132.553	47.645	0	562.60	0	4.0190	0	34.1120	0	27.082	0	557.140	0	-1e10	8	-1e10	8	-1E+10	1	-1E+10	1	-1E+10	1	-1E+10	1	-1E+10	1	-1E+10	1
4902554	87	C	07/06/2023	00:15	-132.553	47.645	0	567.60	0	4.0030	0	34.1180	0	27.088	0	562.085	0	-1e10	8	-1e10	8	-1E+10	1	-1E+10	1	-1E+10	1	-1E+10	1	-1E+10	1	-1E+10	1
4902554	87	C	07/06/2023	00:15	-132.553	47.645	0	572.50	0	3.9890	0	34.1230	0	27.094	0	566.930	0	-1e10	8	-1e10	8	-1E+10	1	-1E+10	1	-1E+10	1	-1E+10	1	-1E+10	1	-1E+10	1
4902554	87	C	07/06/2023	00:15	-132.553	47.645	0	577.50	0	3.9740	0	34.1280	0	27.099	0	571.875	0	-1e10	8	-1e10	8	-1E+10	1	-1E+10	1	-1E+10	1	-1E+10	1	-1E+10	1	-1E+10	1
4902554	87	C	07/06/2023	00:15	-132.553	47.645	0	582.60	0	3.9540	0	34.1340	0	27.106	0	576.918	0	-1e10	8	-1e10	8	-1E+10	1	-1E+10	1	-1E+10	1	-1E+10	1	-1E+10	1	-1E+10	1
4902554	87	C	07/06/2023	00:15	-132.553	47.645	0	587.60	0	3.9460	0	34.1370	0	27.110	0	581.862	0	-1e10	8	-1e10	8	-1E+10	1	-1E+10	1	-1E+10	1	-1E+10	1	-1E+10	1	-1E+10	1
4902554	87	C	07/06/2023	00:15	-132.553	47.645	0	592.70	0	3.9300	0	34.1430	0	27.116	0	586.905	0	-1e10	8	-1e10	8	-1E+10	1	-1E+10	1	-1E+10	1	-1E+10	1	-1E+10	1	-1E+10	1
4902554	87	C	07/06/2023	00:15	-132.553	47.645	0	598.00	0	3.9150	0	34.1490	0	27.122	0	592.146	0	-1e10	8	-1e10	8	-1E+10	1	-1E+10	1	-1E+10	1	-1E+10	1	-1E+10	1	-1E+10	1
4902554	87	C	07/06/2023	00:15	-132.553	47.645	0	603.20	0	3.8950	0	34.1540	0	27.128	0	597.288	0	-1e10	8	-1e10	8	-1E+10	1	-1E+10	1	-1E+10	1	-1E+10	1	-1E+10	1	-1E+10	1
4902554	87	C	07/06/2023	00:15	-132.553	47.645	0	608.00	0	3.8860	0	34.1570	0	27.132	0	602.034	0	-1e10	8	-1e10	8	-1E+10	1	-1E+10	1	-1E+10	1	-1E+10	1	-1E+10	1	-1E+10	1
4902554	87	C	07/06/2023	00:15	-132.553	47.645	0	612.90	0	3.8780	0	34.1590	0	27.134	0	606.878	0	-1e10	8	-1e10	8	-1E+10	1	-1E+10	1	-1E+10	1	-1E+10	1	-1E+10	1	-1E+10	1
4902554	87	C	07/06/2023	00:15	-132.553	47.645	0	617.80	0	3.8670	0	34.1620	0	27.138	0	611.723	0	-1e10	8	-1e10	8	-1E+10	1	-1E+10	1	-1E+10	1	-1E+10	1	-1E+10	1	-1E+10	1
4902554	87	C	07/06/2023	00:15	-132.553	47.645	0	622.80	0	3.8440	0	34.1680	0	27.145	0	616.667	0	-1e10	8	-1e10	8	-1E+10	1	-1E+10	1	-1E+10	1	-1E+10	1	-1E+10	1	-1E+10	1
4902554	87	C	07/06/2023	00:15	-132.553	47.645	0	627.90	0	3.8280	0	34.1740	0	27.151	0	621.709	0	-1e10	8	-1e10	8	-1E+10	1	-1E+10	1	-1E+10	1	-1E+10	1	-1E+10	1	-1E+10	1
4902554	87	C	07/06/2023	00:15	-132.553	47.645	0	632.60	0	3.8220	0	34.1760	0	27.153	0	626.355	0	-1e10	8	-1e10	8	-1E+10	1	-1E+10	1	-1E+10	1	-1E+10	1	-1E+10	1	-1E+10	1
4902554	87	C	07/06/2023	00:15	-132.553	47.645	0	637.90	0	3.8080	0	34.1800	0	27.158	0	631.595	0	-1e10	8	-1e10	8	-1E+10	1	-1E+10	1	-1E+10	1	-1E+10	1	-1E+10	1	-1E+10	1
4902554	87	C	07/06/2023	00:15	-132.553	47.645	0	643.40	0	3.7920	0	34.1840	0	27.163	0	637.032	0	-1e10	8	-1e10	8	-1E+10	1	-1E+10	1	-1E+10	1	-1E+10	1	-1E+10	1	-1E+10	1
4902554	87	C	07/06/2023	00:15	-132.553	47.645	0	648.40	0	3.7760	0	34.1890	0	27.168	0	641.975	0	-1e10	8	-1e10	8	-1E+10	1	-1E+10	1	-1E+10	1	-1E+10	1	-1E+10	1	-1E+10	1
4902554	87	C	07/06/2023	00:15	-132.553	47.645	0	652.90	0	3.7680	0	34.1920	0	27.172	0	646.423	0	-1e10	8	-1e10	8	-1E+10	1	-1E+10	1	-1E+10	1	-1E+10	1	-1E+10	1	-1E+10	1
4902554	87	C	07/06/2023	00:15	-132.553	47.645	0	657.60	0	3.7550	0	34.1950	0	27.175	0	651.069	0	-1e10	8	-1e10	8	-1E+10	1	-1E+10	1	-1E+10	1	-1E+10	1	-1E+10	1	-1E+10	1
4902554	87	C	07/06/2023	00:15	-132.553	47.645	0	662.80	0	3.7480	0	34.1980	0	27.178	0	656.210	0	-1e10	8	-1e10	8	-1E+10	1	-1E+10	1	-1E+10	1	-1E+10	1	-1E+10	1	-1E+10	1
4902554	87	C	07/06/2023	00:15	-132.553	47.645	0	668.00	0	3.7400	0	34.2000	0	27.181	0	661.350	0	-1e10	8	-1e10	8	-1E+10	1	-1E+10	1	-1E+10	1	-1E+10	1	-1E+10	1	-1E+10	1
4902554	87	C	07/06/2023	00:15	-132.553	47.645	0	672.80	0	3.7260	0	34.2040	0	27.185	0	666.094	0	-1e10	8	-1e10	8	-1E+10	1	-1E+10	1	-1E+10	1	-1E+10	1	-1E+10	1	-1E+10	1
4902554	87	C	07/06/2023	00:15	-132.553	47.645	0	677.80	0	3.7180	0	34.2070	0	27.189	0	671.036	0	-1e10	8	-1e10	8	-1E+10	1	-1E+10	1	-1E+10	1	-1E+10	1	-1E+10	1	-1E+10	1
4902554	87	C	07/06/2023	00:15	-132.553	47.645	0	682.90	0	3.7050	0	34.2100	0	27.192	0	676.077	0	-1e10	8	-1e10	8	-1E+10	1	-1E+10	1	-1E+10	1	-1E+10	1	-1E+10	1	-1E+10	1
4902554	87	C	07/06/2023	00:15	-132.553	47.645	0	687.70	0	3.6970	0	34.2120	0	27.195	0	680.821	0	-1e10	8	-1e10	8	-1E+10	1	-1E+10	1	-1E+10	1	-1E+10	1	-1E+10	1	-1E+10	1
4902554	87	C	07/06/2023	00:15	-132.553	47.645	0	692.90	0	3.6840	0	34.2160	0	27.199	0	685.961	0	-1e10	8	-1e10	8	-1E+10	1	-1E+10	1	-1E+10	1	-1E+10	1	-1E+10	1	-1E+10	1
4902554	87	C	07/06/2023	00:15	-132.553	47.645	0	698.20	0	3.6710	0	34.2190	0	27.203	0	691.199	0	-1e10	8	-1e10	8	-1E+10	1	-1E+10	1	-1E+10	1	-1E+10	1	-1E+10	1	-1E+10	1
4902554	87	C	07/06/2023	00:15	-132.553	47.645	0	703.20	0	3.6550	0	34.2240	0	27.209	0	696.141	0	-1e10	8	-1e10	8	-1E+10	1	-1E+10	1	-1E+10	1	-1E+10	1	-1E+10	1	-1E+10	1
4902554	87	C	07/06/2023	00:15	-132.553	47.645	0	707.90	0	3.6460	0	34.2260	0	27.211	0	700.785	0	-1e10	8	-1e10	8	-1E+10	1	-1E+10	1	-1E+10	1	-1E+10	1	-1E+10	1	-1E+10	1
4902554	87	C	07/06/2023	00:15	-132.553	47.645	0	712.60	0	3.6300	0	34.2300	0	27.216	0	705.430	0	-1e10	8	-1e10	8	-1E+10	1	-1E+10	1	-1E+10	1	-1E+10	1	-1E+10	1	-1E+10	1
4902554	87	C	07/06/2023	00:15	-132.553	47.645	0	717.80	0	3.6170	0	34.2330	0	27.220	0	710.569	0	-1e10	8	-1e10	8	-1E+10	1	-1E+10	1	-1E+10	1	-1E+10	1	-1E+10	1	-1E+10	1
4902554	87	C	07/06/2023	00:15	-132.553	47.645	0	723.10	0	3.6070	0	34.2360	0	27.223	0	715.807	0	-1e10	8	-1e10	8	-1E+10	1	-1E+10	1	-1E+10	1	-1E+10	1	-1E+10	1	-1E+10	1
4902554	87	C	07/06/2023	00:15	-132.553	47.645	0	727.90	0	3.5940	0	34.2390	0	27.227	0	720.550	0	-1e10	8	-1e10	8	-1E+10	1	-1E+10	1	-1E+10	1	-1E+10	1	-1E+10	1	-1E+10	1
4902554	87	C	07/06/2023	00:15	-132.553	47.645	0	732.80	0	3.5860	0	34.2410	0	27.229	0	725.392	0	-1e10	8	-1e10	8	-1E+10	1	-1E+10	1	-1E+10	1	-1E+10	1	-1E+10	1	-1E+10	1
4902554	87	C	07/06/2023	00:15	-132.553	47.645	0	738.00	0	3.5740	0	34.2450	0	27.233	0	730.530	0	-1e10	8	-1e10	8	-1E+10	1	-1E+10	1	-1E+10	1	-1E+10	1	-1E+10	1	-1E+10	1
4902554	87	C	07/06/2023	00:15	-132.553	47.645	0	742.80	0	3.5700	0	34.2460	0	27.235	0	735.273	0	-1e10	8	-1e10	8	-1E+10	1	-1E+10	1	-1E+10	1	-1E+10	1	-1E+10	1	-1E+10	1
4902554	87	C	07/06/2023	00:15	-132.553	47.645	0	747.60	0	3.5580	0	34.2490	0	27.238	0	740.016	0	-1e10	8	-1e10	8	-1E+10	1	-1E+10	1	-1E+10	1	-1E+10	1	-1E+10	1	-1E+10	1
4902554	87	C	07/06/2023	00:15	-132.553	47.645	0	752.90	0	3.5470	0	34.2510	0	27.241	0	745.253	0	-1e10	8	-1e10	8	-1E+10	1	-1E+10	1	-1E+10	1	-1E+10	1	-1E+10	1	-1E+10	1
4902554	87	C	07/06/2023	00:15	-132.553	47.645	0	758.20	0	3.5360	0	34.2540	0	27.244	0	750.489	0	-1e10	8	-1e10	8	-1E+10	1	-1E+10	1	-1E+10	1	-1E+10	1	-1E+10	1	-1E+10	1
4902554	87	C	07/06/2023	00:15	-132.553	47.645	0	763.00	0	3.5290	0	34.2550	0	27.246	0	755.232	0	-1e10	8	-1e10	8	-1E+10	1	-1E+10	1	-1E+10	1	-1E+10	1	-1E+10	1	-1E+10	1
4902554	87	C	07/06/2023	00:15	-132.553	47.645	0	767.80	0	3.5210	0	34.2580	0	27.249	0	759.974	0	-1e10	8	-1e10	8	-1E+10	1	-1E+10	1	-1E+10	1	-1E+10	1	-1E+10	1	-1E+10	1
4902554	87	C	07/06/2023	00:15	-132.553	47.645	0	773.00	0	3.5090	0	34.2600	0	27.252	0	765.112	0	-1e10	8	-1e10	8	-1E+10	1	-1E+10	1	-1E+10	1	-1E+10	1	-1E+10	1	-1E+10	1
4902554	87	C	07/06/2023	00:15	-132.553	47.645	0	777.90	0	3.4920	0	34.2650	0	27.258	0	769.953	0	-1e10	8	-1e10	8	-1E+10	1	-1E+10	1	-1E+10	1	-1E+10	1	-1E+10	1	-1E+10	1
4902554	87	C	07/06/2023	00:15	-132.553	47.645	0	782.80	0	3.4810	0	34.2670	0	27.260	0	774.794	0	-1e10	8	-1e10	8	-1E+10	1	-1E+10	1	-1E+10	1	-1E+10	1	-1E+10	1	-1E+10	1
4902554	87	C	07/06/2023	00:15	-132.553	47.645	0	787.80	0	3.4690	0	34.2700	0	27.264	0	779.733	0	-1e10	8	-1e10	8	-1E+10	1	-1E+10	1	-1E+10	1	-1E+10	1	-1E+10	1	-1E+10	1
4902554	87	C	07/06/2023	00:15	-132.553	47.645	0	792.80	0	3.4590	0	34.2720	0	27.266	0	784.673	0	-1e10	8	-1e10	8	-1E+10	1	-1E+10	1	-1E+10	1	-1E+10	1	-1E+10	1	-1E+10	1
4902554	87	C	07/06/2023	00:15	-132.553	47.645	0	797.80	0	3.4340	0	34.2790	0	27.274	0	789.612	0	-1e10	8	-1e10	8	-1E+10	1	-1E+10	1	-1E+10	1	-1E+10	1	-1E+10	1	-1E+10	1
4902554	87	C	07/06/2023	00:15	-132.553	47.645	0	802.90	0	3.4210	0	34.2820	0	27.278	0	794.650	0	-1e10	8	-1e10	8	-1E+10	1	-1E+10	1	-1E+10	1	-1E+10	1	-1E+10	1	-1E+10	1
4902554	87	C	07/06/2023	00:15	-132.553	47.645	0	808.00	0	3.4070	0	34.2860	0	27.283	0	799.688	0	-1e10	8	-1e10	8	-1E+10	1	-1E+10	1	-1E+10	1	-1E+10	1	-1E+10	1	-1E+10	1
4902554	87	C	07/06/2023	00:15	-132.553	47.645	0	812.60	0	3.4060	0	34.2870	0	27.283	0	804.231	0	-1e10	8	-1e10	8	-1E+10	1	-1E+10	1	-1E+10	1	-1E+10	1	-1E+10	1	-1E+10	1
4902554	87	C	07/06/2023	00:15	-132.553	47.645	0	817.80	0	3.4030	0	34.2870	0	27.284	0	809.368	0	-1e10	8	-1e10	8	-1E+10	1	-1E+10	1	-1E+10	1	-1E+10	1	-1E+10	1	-1E+10	1
4902554	87	C	07/06/2023	00:15	-132.553	47.645	0	822.90	0	3.3910	0	34.2900	0	27.287	0	814.405	0	-1e10	8	-1e10	8	-1E+10	1	-1E+10	1	-1E+10	1	-1E+10	1	-1E+10	1	-1E+10	1
4902554	87	C	07/06/2023	00:15	-132.553	47.645	0	828.00	0	3.3860	0	34.2910	0	27.289	0	819.443	0	-1e10	8	-1e10	8	-1E+10	1	-1E+10	1	-1E+10	1	-1E+10	1	-1E+10	1	-1E+10	1
4902554	87	C	07/06/2023	00:15	-132.553	47.645	0	833.10	0	3.3750	0	34.2930	0	27.291	0	824.480	0	-1e10	8	-1e10	8	-1E+10	1	-1E+10	1	-1E+10	1	-1E+10	1	-1E+10	1	-1E+10	1
4902554	87	C	07/06/2023	00:15	-132.553	47.645	0	837.80	0	3.3660	0	34.2960	0	27.295	0	829.122	0	-1e10	8	-1e10	8	-1E+10	1	-1E+10	1	-1E+10	1	-1E+10	1	-1E+10	1	-1E+10	1
4902554	87	C	07/06/2023	00:15	-132.553	47.645	0	842.50	0	3.3600	0	34.2960	0	27.295	0	833.764	0	-1e10	8	-1e10	8	-1E+10	1	-1E+10	1	-1E+10	1	-1E+10	1	-1E+10	1	-1E+10	1
4902554	87	C	07/06/2023	00:15	-132.553	47.645	0	847.90	0	3.3520	0	34.2980	0	27.298	0	839.097	0	-1e10	8	-1e10	8	-1E+10	1	-1E+10	1	-1E+10	1	-1E+10	1	-1E+10	1	-1E+10	1
4902554	87	C	07/06/2023	00:15	-132.553	47.645	0	853.20	0	3.3380	0	34.3000	0	27.301	0	844.331	0	-1e10	8	-1e10	8	-1E+10	1	-1E+10	1	-1E+10	1	-1E+10	1	-1E+10	1	-1E+10	1
4902554	87	C	07/06/2023	00:15	-132.553	47.645	0	858.10	0	3.3260	0	34.3030	0	27.304	0	849.171	0	-1e10	8	-1e10	8	-1E+10	1	-1E+10	1	-1E+10	1	-1E+10	1	-1E+10	1	-1E+10	1
4902554	87	C	07/06/2023	00:15	-132.553	47.645	0	863.10	0	3.3210	0	34.3040	0	27.305	0	854.108	0	-1e10	8	-1e10	8	-1E+10	1	-1E+10	1	-1E+10	1	-1E+10	1	-1E+10	1	-1E+10	1
4902554	87	C	07/06/2023	00:15	-132.553	47.645	0	868.10	0	3.3160	0	34.3050	0	27.307	0	859.046	0	-1e10	8	-1e10	8	-1E+10	1	-1E+10	1	-1E+10	1	-1E+10	1	-1E+10	1	-1E+10	1
4902554	87	C	07/06/2023	00:15	-132.553	47.645	0	873.00	0	3.3010	0	34.3100	0	27.312	0	863.885	0	-1e10	8	-1e10	8	-1E+10	1	-1E+10	1	-1E+10	1	-1E+10	1	-1E+10	1	-1E+10	1
4902554	87	C	07/06/2023	00:15	-132.553	47.645	0	877.80	0	3.2910	0	34.3120	0	27.315	0	868.625	0	-1e10	8	-1e10	8	-1E+10	1	-1E+10	1	-1E+10	1	-1E+10	1	-1E+10	1	-1E+10	1
4902554	87	C	07/06/2023	00:15	-132.553	47.645	0	882.90	0	3.2850	0	34.3120	0	27.315	0	873.661	0	-1e10	8	-1e10	8	-1E+10	1	-1E+10	1	-1E+10	1	-1E+10	1	-1E+10	1	-1E+10	1
4902554	87	C	07/06/2023	00:15	-132.553	47.645	0	887.60	0	3.2810	0	34.3140	0	27.317	0	878.302	0	-1e10	8	-1e10	8	-1E+10	1	-1E+10	1	-1E+10	1	-1E+10	1	-1E+10	1	-1E+10	1
4902554	87	C	07/06/2023	00:15	-132.553	47.645	0	892.90	0	3.2700	0	34.3160	0	27.320	0	883.535	0	-1e10	8	-1e10	8	-1E+10	1	-1E+10	1	-1E+10	1	-1E+10	1	-1E+10	1	-1E+10	1
4902554	87	C	07/06/2023	00:15	-132.553	47.645	0	897.90	0	3.2670	0	34.3170	0	27.321	0	888.472	0	-1e10	8	-1e10	8	-1E+10	1	-1E+10	1	-1E+10	1	-1E+10	1	-1E+10	1	-1E+10	1
4902554	87	C	07/06/2023	00:15	-132.553	47.645	0	902.60	0	3.2650	0	34.3180	0	27.322	0	893.112	0	-1e10	8	-1e10	8	-1E+10	1	-1E+10	1	-1E+10	1	-1E+10	1	-1E+10	1	-1E+10	1
4902554	87	C	07/06/2023	00:15	-132.553	47.645	0	907.80	0	3.2580	0	34.3210	0	27.325	0	898.247	0	-1e10	8	-1e10	8	-1E+10	1	-1E+10	1	-1E+10	1	-1E+10	1	-1E+10	1	-1E+10	1
4902554	87	C	07/06/2023	00:15	-132.553	47.645	0	913.10	0	3.2530	0	34.3220	0	27.326	0	903.479	0	-1e10	8	-1e10	8	-1E+10	1	-1E+10	1	-1E+10	1	-1E+10	1	-1E+10	1	-1E+10	1
4902554	87	C	07/06/2023	00:15	-132.553	47.645	0	917.90	0	3.2470	0	34.3240	0	27.329	0	908.219	0	-1e10	8	-1e10	8	-1E+10	1	-1E+10	1	-1E+10	1	-1E+10	1	-1E+10	1	-1E+10	1
4902554	87	C	07/06/2023	00:15	-132.553	47.645	0	922.70	0	3.2420	0	34.3250	0	27.330	0	912.957	0	-1e10	8	-1e10	8	-1E+10	1	-1E+10	1	-1E+10	1	-1E+10	1	-1E+10	1	-1E+10	1
4902554	87	C	07/06/2023	00:15	-132.553	47.645	0	927.90	0	3.2270	0	34.3280	0	27.334	0	918.091	0	-1e10	8	-1e10	8	-1E+10	1	-1E+10	1	-1E+10	1	-1E+10	1	-1E+10	1	-1E+10	1
4902554	87	C	07/06/2023	00:15	-132.553	47.645	0	933.10	0	3.2140	0	34.3310	0	27.337	0	923.225	0	-1e10	8	-1e10	8	-1E+10	1	-1E+10	1	-1E+10	1	-1E+10	1	-1E+10	1	-1E+10	1
4902554	87	C	07/06/2023	00:15	-132.553	47.645	0	938.20	0	3.1990	0	34.3350	0	27.342	0	928.259	0	-1e10	8	-1e10	8	-1E+10	1	-1E+10	1	-1E+10	1	-1E+10	1	-1E+10	1	-1E+10	1
4902554	87	C	07/06/2023	00:15	-132.553	47.645	0	942.90	0	3.1920	0	34.3370	0	27.344	0	932.899	0	-1e10	8	-1e10	8	-1E+10	1	-1E+10	1	-1E+10	1	-1E+10	1	-1E+10	1	-1E+10	1
4902554	87	C	07/06/2023	00:15	-132.553	47.645	0	947.70	0	3.1840	0	34.3380	0	27.346	0	937.637	0	-1e10	8	-1e10	8	-1E+10	1	-1E+10	1	-1E+10	1	-1E+10	1	-1E+10	1	-1E+10	1
4902554	87	C	07/06/2023	00:15	-132.553	47.645	0	953.00	0	3.1780	0	34.3390	0	27.347	0	942.869	0	-1e10	8	-1e10	8	-1E+10	1	-1E+10	1	-1E+10	1	-1E+10	1	-1E+10	1	-1E+10	1
4902554	87	C	07/06/2023	00:15	-132.553	47.645	0	958.00	0	3.1730	0	34.3420	0	27.350	0	947.805	0	-1e10	8	-1e10	8	-1E+10	1	-1E+10	1	-1E+10	1	-1E+10	1	-1E+10	1	-1E+10	1
4902554	87	C	07/06/2023	00:15	-132.553	47.645	0	962.90	0	3.1840	0	34.3460	0	27.352	0	952.642	0	-1e10	8	-1e10	8	-1E+10	1	-1E+10	1	-1E+10	1	-1E+10	1	-1E+10	1	-1E+10	1
4902554	87	C	07/06/2023	00:15	-132.553	47.645	0	968.00	0	3.1820	0	34.3480	0	27.354	0	957.676	0	-1e10	8	-1e10	8	-1E+10	1	-1E+10	1	-1E+10	1	-1E+10	1	-1E+10	1	-1E+10	1
4902554	87	C	07/06/2023	00:15	-132.553	47.645	0	973.00	0	3.1750	0	34.3500	0	27.356	0	962.611	0	-1e10	8	-1e10	8	-1E+10	1	-1E+10	1	-1E+10	1	-1E+10	1	-1E+10	1	-1E+10	1
4902554	87	C	07/06/2023	00:15	-132.553	47.645	0	978.00	0	3.1680	0	34.3520	0	27.359	0	967.546	0	-1e10	8	-1e10	8	-1E+10	1	-1E+10	1	-1E+10	1	-1E+10	1	-1E+10	1	-1E+10	1
4902554	87	C	07/06/2023	00:15	-132.553	47.645	0	983.10	0	3.1550	0	34.3540	0	27.361	0	972.579	0	-1e10	8	-1e10	8	-1E+10	1	-1E+10	1	-1E+10	1	-1E+10	1	-1E+10	1	-1E+10	1
4902554	87	C	07/06/2023	00:15	-132.553	47.645	0	988.10	0	3.1400	0	34.3560	0	27.364	0	977.514	0	-1e10	8	-1e10	8	-1E+10	1	-1E+10	1	-1E+10	1	-1E+10	1	-1E+10	1	-1E+10	1
4902554	87	C	07/06/2023	00:15	-132.553	47.645	0	992.80	0	3.1350	0	34.3560	0	27.365	0	982.153	0	-1e10	8	-1e10	8	-1E+10	1	-1E+10	1	-1E+10	1	-1E+10	1	-1E+10	1	-1E+10	1
4902554	87	C	07/06/2023	00:15	-132.553	47.645	0	997.90	0	3.1230	0	34.3590	0	27.368	0	987.186	0	-1e10	8	-1e10	8	-1E+10	1	-1E+10	1	-1E+10	1	-1E+10	1	-1E+10	1	-1E+10	1
4902554	87	C	07/06/2023	00:15	-132.553	47.645	0	1005.50	0	3.1070	0	34.3610	0	27.372	0	994.687	0	-1e10	8	-1e10	8	-1E+10	1	-1E+10	1	-1E+10	1	-1E+10	1	-1E+10	1	-1E+10	1
4902554	87	C	07/06/2023	00:15	-132.553	47.645	0	1015.50	0	3.0870	0	34.3650	0	27.377	0	1004.555	0	-1e10	8	-1e10	8	-1E+10	1	-1E+10	1	-1E+10	1	-1E+10	1	-1E+10	1	-1E+10	1
4902554	87	C	07/06/2023	00:15	-132.553	47.645	0	1025.50	0	3.0850	0	34.3690	0	27.380	0	1014.423	0	-1e10	8	-1e10	8	-1E+10	1	-1E+10	1	-1E+10	1	-1E+10	1	-1E+10	1	-1E+10	1
4902554	87	C	07/06/2023	00:15	-132.553	47.645	0	1035.20	0	3.0570	0	34.3700	0	27.383	0	1023.995	0	-1e10	8	-1e10	8	-1E+10	1	-1E+10	1	-1E+10	1	-1E+10	1	-1E+10	1	-1E+10	1
4902554	87	C	07/06/2023	00:15	-132.553	47.645	0	1045.50	0	3.0420	0	34.3740	0	27.388	0	1034.158	0	-1e10	8	-1e10	8	-1E+10	1	-1E+10	1	-1E+10	1	-1E+10	1	-1E+10	1	-1E+10	1
4902554	87	C	07/06/2023	00:15	-132.553	47.645	0	1055.80	0	3.0410	0	34.3770	0	27.391	0	1044.320	0	-1e10	8	-1e10	8	-1E+10	1	-1E+10	1	-1E+10	1	-1E+10	1	-1E+10	1	-1E+10	1
4902554	87	C	07/06/2023	00:15	-132.553	47.645	0	1065.80	0	3.0320	0	34.3830	0	27.396	0	1054.187	0	-1e10	8	-1e10	8	-1E+10	1	-1E+10	1	-1E+10	1	-1E+10	1	-1E+10	1	-1E+10	1
4902554	87	C	07/06/2023	00:15	-132.553	47.645	0	1075.90	0	3.0140	0	34.3880	0	27.402	0	1064.151	0	-1e10	8	-1e10	8	-1E+10	1	-1E+10	1	-1E+10	1	-1E+10	1	-1E+10	1	-1E+10	1
4902554	87	C	07/06/2023	00:15	-132.553	47.645	0	1085.80	0	2.9960	0	34.3920	0	27.407	0	1073.918	0	-1e10	8	-1e10	8	-1E+10	1	-1E+10	1	-1E+10	1	-1E+10	1	-1E+10	1	-1E+10	1
4902554	87	C	07/06/2023	00:15	-132.553	47.645	0	1095.50	0	2.9850	0	34.3980	0	27.413	0	1083.486	0	-1e10	8	-1e10	8	-1E+10	1	-1E+10	1	-1E+10	1	-1E+10	1	-1E+10	1	-1E+10	1
4902554	87	C	07/06/2023	00:15	-132.553	47.645	0	1105.50	0	2.9680	0	34.4030	0	27.418	0	1093.351	0	-1e10	8	-1e10	8	-1E+10	1	-1E+10	1	-1E+10	1	-1E+10	1	-1E+10	1	-1E+10	1
4902554	87	C	07/06/2023	00:15	-132.553	47.645	0	1115.70	0	2.9490	0	34.4070	0	27.423	0	1103.412	0	-1e10	8	-1e10	8	-1E+10	1	-1E+10	1	-1E+10	1	-1E+10	1	-1E+10	1	-1E+10	1
4902554	87	C	07/06/2023	00:15	-132.553	47.645	0	1125.70	0	2.9300	0	34.4090	0	27.427	0	1113.275	0	-1e10	8	-1e10	8	-1E+10	1	-1E+10	1	-1E+10	1	-1E+10	1	-1E+10	1	-1E+10	1
4902554	87	C	07/06/2023	00:15	-132.553	47.645	0	1135.50	0	2.9240	0	34.4110	0	27.429	0	1122.941	0	-1e10	8	-1e10	8	-1E+10	1	-1E+10	1	-1E+10	1	-1E+10	1	-1E+10	1	-1E+10	1
4902554	87	C	07/06/2023	00:15	-132.553	47.645	0	1145.30	0	2.9170	0	34.4140	0	27.432	0	1132.606	0	-1e10	8	-1e10	8	-1E+10	1	-1E+10	1	-1E+10	1	-1E+10	1	-1E+10	1	-1E+10	1
4902554	87	C	07/06/2023	00:15	-132.553	47.645	0	1155.60	0	2.8950	0	34.4180	0	27.437	0	1142.764	0	-1e10	8	-1e10	8	-1E+10	1	-1E+10	1	-1E+10	1	-1E+10	1	-1E+10	1	-1E+10	1
4902554	87	C	07/06/2023	00:15	-132.553	47.645	0	1165.60	0	2.8700	0	34.4200	0	27.441	0	1152.625	0	-1e10	8	-1e10	8	-1E+10	1	-1E+10	1	-1E+10	1	-1E+10	1	-1E+10	1	-1E+10	1
4902554	87	C	07/06/2023	00:15	-132.553	47.645	0	1175.50	0	2.8550	0	34.4240	0	27.446	0	1162.388	0	-1e10	8	-1e10	8	-1E+10	1	-1E+10	1	-1E+10	1	-1E+10	1	-1E+10	1	-1E+10	1
4902554	87	C	07/06/2023	00:15	-132.553	47.645	0	1185.30	0	2.8250	0	34.4250	0	27.449	0	1172.051	0	-1e10	8	-1e10	8	-1E+10	1	-1E+10	1	-1E+10	1	-1E+10	1	-1E+10	1	-1E+10	1
4902554	87	C	07/06/2023	00:15	-132.553	47.645	0	1195.20	0	2.7960	0	34.4270	0	27.453	0	1181.813	0	-1e10	8	-1e10	8	-1E+10	1	-1E+10	1	-1E+10	1	-1E+10	1	-1E+10	1	-1E+10	1
4902554	87	C	07/06/2023	00:15	-132.553	47.645	0	1205.20	0	2.7740	0	34.4310	0	27.458	0	1191.672	0	-1e10	8	-1e10	8	-1E+10	1	-1E+10	1	-1E+10	1	-1E+10	1	-1E+10	1	-1E+10	1
4902554	87	C	07/06/2023	00:15	-132.553	47.645	0	1215.40	0	2.7670	0	34.4360	0	27.463	0	1201.729	0	-1e10	8	-1e10	8	-1E+10	1	-1E+10	1	-1E+10	1	-1E+10	1	-1E+10	1	-1E+10	1
4902554	87	C	07/06/2023	00:15	-132.553	47.645	0	1225.80	0	2.7630	0	34.4400	0	27.467	0	1211.982	0	-1e10	8	-1e10	8	-1E+10	1	-1E+10	1	-1E+10	1	-1E+10	1	-1E+10	1	-1E+10	1
4902554	87	C	07/06/2023	00:15	-132.553	47.645	0	1235.70	0	2.7550	0	34.4410	0	27.468	0	1221.741	0	-1e10	8	-1e10	8	-1E+10	1	-1E+10	1	-1E+10	1	-1E+10	1	-1E+10	1	-1E+10	1
4902554	87	C	07/06/2023	00:15	-132.553	47.645	0	1245.70	0	2.7240	0	34.4430	0	27.473	0	1231.599	0	-1e10	8	-1e10	8	-1E+10	1	-1E+10	1	-1E+10	1	-1E+10	1	-1E+10	1	-1E+10	1
4902554	87	C	07/06/2023	00:15	-132.553	47.645	0	1255.30	0	2.7170	0	34.4470	0	27.476	0	1241.062	0	-1e10	8	-1e10	8	-1E+10	1	-1E+10	1	-1E+10	1	-1E+10	1	-1E+10	1	-1E+10	1
4902554	87	C	07/06/2023	00:15	-132.553	47.645	0	1265.10	0	2.6980	0	34.4500	0	27.481	0	1250.722	0	-1e10	8	-1e10	8	-1E+10	1	-1E+10	1	-1E+10	1	-1E+10	1	-1E+10	1	-1E+10	1
4902554	87	C	07/06/2023	00:15	-132.553	47.645	0	1275.50	0	2.6810	0	34.4520	0	27.484	0	1260.973	0	-1e10	8	-1e10	8	-1E+10	1	-1E+10	1	-1E+10	1	-1E+10	1	-1E+10	1	-1E+10	1
4902554	87	C	07/06/2023	00:15	-132.553	47.645	0	1285.50	0	2.6720	0	34.4550	0	27.487	0	1270.829	0	-1e10	8	-1e10	8	-1E+10	1	-1E+10	1	-1E+10	1	-1E+10	1	-1E+10	1	-1E+10	1
4902554	87	C	07/06/2023	00:15	-132.553	47.645	0	1295.30	0	2.6550	0	34.4570	0	27.490	0	1280.487	0	-1e10	8	-1e10	8	-1E+10	1	-1E+10	1	-1E+10	1	-1E+10	1	-1E+10	1	-1E+10	1
4902554	87	C	07/06/2023	00:15	-132.553	47.645	0	1305.30	0	2.6410	0	34.4600	0	27.494	0	1290.342	0	-1e10	8	-1e10	8	-1E+10	1	-1E+10	1	-1E+10	1	-1E+10	1	-1E+10	1	-1E+10	1
4902554	87	C	07/06/2023	00:15	-132.553	47.645	0	1315.20	0	2.6220	0	34.4620	0	27.497	0	1300.098	0	-1e10	8	-1e10	8	-1E+10	1	-1E+10	1	-1E+10	1	-1E+10	1	-1E+10	1	-1E+10	1
4902554	87	C	07/06/2023	00:15	-132.553	47.645	0	1325.10	0	2.6120	0	34.4640	0	27.499	0	1309.854	0	-1e10	8	-1e10	8	-1E+10	1	-1E+10	1	-1E+10	1	-1E+10	1	-1E+10	1	-1E+10	1
4902554	87	C	07/06/2023	00:15	-132.553	47.645	0	1335.40	0	2.5950	0	34.4670	0	27.503	0	1320.003	0	-1e10	8	-1e10	8	-1E+10	1	-1E+10	1	-1E+10	1	-1E+10	1	-1E+10	1	-1E+10	1
4902554	87	C	07/06/2023	00:15	-132.553	47.645	0	1345.70	0	2.5720	0	34.4690	0	27.507	0	1330.152	0	-1e10	8	-1e10	8	-1E+10	1	-1E+10	1	-1E+10	1	-1E+10	1	-1E+10	1	-1E+10	1
4902554	87	C	07/06/2023	00:15	-132.553	47.645	0	1355.70	0	2.5590	0	34.4710	0	27.510	0	1340.004	0	-1e10	8	-1e10	8	-1E+10	1	-1E+10	1	-1E+10	1	-1E+10	1	-1E+10	1	-1E+10	1
4902554	87	C	07/06/2023	00:15	-132.553	47.645	0	1365.40	0	2.5520	0	34.4720	0	27.511	0	1349.561	0	-1e10	8	-1e10	8	-1E+10	1	-1E+10	1	-1E+10	1	-1E+10	1	-1E+10	1	-1E+10	1
4902554	87	C	07/06/2023	00:15	-132.553	47.645	0	1375.30	0	2.5400	0	34.4750	0	27.515	0	1359.314	0	-1e10	8	-1e10	8	-1E+10	1	-1E+10	1	-1E+10	1	-1E+10	1	-1E+10	1	-1E+10	1
4902554	87	C	07/06/2023	00:15	-132.553	47.645	0	1385.40	0	2.5220	0	34.4780	0	27.519	0	1369.264	0	-1e10	8	-1e10	8	-1E+10	1	-1E+10	1	-1E+10	1	-1E+10	1	-1E+10	1	-1E+10	1
4902554	87	C	07/06/2023	00:15	-132.553	47.645	0	1395.20	0	2.5060	0	34.4800	0	27.522	0	1378.918	0	-1e10	8	-1e10	8	-1E+10	1	-1E+10	1	-1E+10	1	-1E+10	1	-1E+10	1	-1E+10	1
4902554	87	C	07/06/2023	00:15	-132.553	47.645	0	1405.10	0	2.4880	0	34.4830	0	27.526	0	1388.670	0	-1e10	8	-1e10	8	-1E+10	1	-1E+10	1	-1E+10	1	-1E+10	1	-1E+10	1	-1E+10	1
4902554	87	C	07/06/2023	00:15	-132.553	47.645	0	1415.20	0	2.4750	0	34.4860	0	27.529	0	1398.618	0	-1e10	8	-1e10	8	-1E+10	1	-1E+10	1	-1E+10	1	-1E+10	1	-1E+10	1	-1E+10	1
4902554	87	C	07/06/2023	00:15	-132.553	47.645	0	1425.20	0	2.4580	0	34.4880	0	27.532	0	1408.468	0	-1e10	8	-1e10	8	-1E+10	1	-1E+10	1	-1E+10	1	-1E+10	1	-1E+10	1	-1E+10	1
4902554	87	C	07/06/2023	00:15	-132.553	47.645	0	1435.30	0	2.4460	0	34.4910	0	27.536	0	1418.415	0	-1e10	8	-1e10	8	-1E+10	1	-1E+10	1	-1E+10	1	-1E+10	1	-1E+10	1	-1E+10	1
4902554	87	C	07/06/2023	00:15	-132.553	47.645	0	1445.40	0	2.4320	0	34.4940	0	27.539	0	1428.362	0	-1e10	8	-1e10	8	-1E+10	1	-1E+10	1	-1E+10	1	-1E+10	1	-1E+10	1	-1E+10	1
4902554	87	C	07/06/2023	00:15	-132.553	47.645	0	1455.40	0	2.4210	0	34.4960	0	27.542	0	1438.210	0	-1e10	8	-1e10	8	-1E+10	1	-1E+10	1	-1E+10	1	-1E+10	1	-1E+10	1	-1E+10	1
4902554	87	C	07/06/2023	00:15	-132.553	47.645	0	1465.10	0	2.4100	0	34.4980	0	27.544	0	1447.763	0	-1e10	8	-1e10	8	-1E+10	1	-1E+10	1	-1E+10	1	-1E+10	1	-1E+10	1	-1E+10	1
4902554	87	C	07/06/2023	00:15	-132.553	47.645	0	1475.40	0	2.3960	0	34.5010	0	27.548	0	1457.905	0	-1e10	8	-1e10	8	-1E+10	1	-1E+10	1	-1E+10	1	-1E+10	1	-1E+10	1	-1E+10	1
4902554	87	C	07/06/2023	00:15	-132.553	47.645	0	1485.60	0	2.3860	0	34.5030	0	27.550	0	1467.949	0	-1e10	8	-1e10	8	-1E+10	1	-1E+10	1	-1E+10	1	-1E+10	1	-1E+10	1	-1E+10	1
4902554	87	C	07/06/2023	00:15	-132.553	47.645	0	1495.30	0	2.3770	0	34.5050	0	27.553	0	1477.500	0	-1e10	8	-1e10	8	-1E+10	1	-1E+10	1	-1E+10	1	-1E+10	1	-1E+10	1	-1E+10	1
4902554	87	C	07/06/2023	00:15	-132.553	47.645	0	1505.00	0	2.3680	0	34.5070	0	27.555	0	1487.050	0	-1e10	8	-1e10	8	-1E+10	1	-1E+10	1	-1E+10	1	-1E+10	1	-1E+10	1	-1E+10	1
4902554	87	C	07/06/2023	00:15	-132.553	47.645	0	1515.50	0	2.3630	0	34.5100	0	27.558	0	1497.388	0	-1e10	8	-1e10	8	-1E+10	1	-1E+10	1	-1E+10	1	-1E+10	1	-1E+10	1	-1E+10	1
4902554	87	C	07/06/2023	00:15	-132.553	47.645	0	1525.40	0	2.3480	0	34.5120	0	27.561	0	1507.134	0	-1e10	8	-1e10	8	-1E+10	1	-1E+10	1	-1E+10	1	-1E+10	1	-1E+10	1	-1E+10	1
4902554	87	C	07/06/2023	00:15	-132.553	47.645	0	1535.60	0	2.3370	0	34.5140	0	27.564	0	1517.175	0	-1e10	8	-1e10	8	-1E+10	1	-1E+10	1	-1E+10	1	-1E+10	1	-1E+10	1	-1E+10	1
4902554	87	C	07/06/2023	00:15	-132.553	47.645	0	1545.70	0	2.3300	0	34.5150	0	27.565	0	1527.118	0	-1e10	8	-1e10	8	-1E+10	1	-1E+10	1	-1E+10	1	-1E+10	1	-1E+10	1	-1E+10	1
4902554	87	C	07/06/2023	00:15	-132.553	47.645	0	1555.40	0	2.3190	0	34.5170	0	27.568	0	1536.666	0	-1e10	8	-1e10	8	-1E+10	1	-1E+10	1	-1E+10	1	-1E+10	1	-1E+10	1	-1E+10	1
4902554	87	C	07/06/2023	00:15	-132.553	47.645	0	1565.30	0	2.3090	0	34.5190	0	27.570	0	1546.411	0	-1e10	8	-1e10	8	-1E+10	1	-1E+10	1	-1E+10	1	-1E+10	1	-1E+10	1	-1E+10	1
4902554	87	C	07/06/2023	00:15	-132.553	47.645	0	1575.40	0	2.2960	0	34.5220	0	27.573	0	1556.352	0	-1e10	8	-1e10	8	-1E+10	1	-1E+10	1	-1E+10	1	-1E+10	1	-1E+10	1	-1E+10	1
4902554	87	C	07/06/2023	00:15	-132.553	47.645	0	1585.30	0	2.2790	0	34.5250	0	27.577	0	1566.095	0	-1e10	8	-1e10	8	-1E+10	1	-1E+10	1	-1E+10	1	-1E+10	1	-1E+10	1	-1E+10	1
4902554	87	C	07/06/2023	00:15	-132.553	47.645	0	1595.20	0	2.2710	0	34.5260	0	27.579	0	1575.838	0	-1e10	8	-1e10	8	-1E+10	1	-1E+10	1	-1E+10	1	-1E+10	1	-1E+10	1	-1E+10	1
4902554	87	C	07/06/2023	00:15	-132.553	47.645	0	1605.10	0	2.2550	0	34.5270	0	27.581	0	1585.581	0	-1e10	8	-1e10	8	-1E+10	1	-1E+10	1	-1E+10	1	-1E+10	1	-1E+10	1	-1E+10	1
4902554	87	C	07/06/2023	00:15	-132.553	47.645	0	1615.20	0	2.2450	0	34.5280	0	27.583	0	1595.520	0	-1e10	8	-1e10	8	-1E+10	1	-1E+10	1	-1E+10	1	-1E+10	1	-1E+10	1	-1E+10	1
4902554	87	C	07/06/2023	00:15	-132.553	47.645	0	1625.40	0	2.2330	0	34.5300	0	27.585	0	1605.558	0	-1e10	8	-1e10	8	-1E+10	1	-1E+10	1	-1E+10	1	-1E+10	1	-1E+10	1	-1E+10	1
4902554	87	C	07/06/2023	00:15	-132.553	47.645	0	1635.60	0	2.2220	0	34.5320	0	27.588	0	1615.594	0	-1e10	8	-1e10	8	-1E+10	1	-1E+10	1	-1E+10	1	-1E+10	1	-1E+10	1	-1E+10	1
4902554	87	C	07/06/2023	00:15	-132.553	47.645	0	1645.40	0	2.2120	0	34.5340	0	27.590	0	1625.237	0	-1e10	8	-1e10	8	-1E+10	1	-1E+10	1	-1E+10	1	-1E+10	1	-1E+10	1	-1E+10	1
4902554	87	C	07/06/2023	00:15	-132.553	47.645	0	1655.30	0	2.1980	0	34.5370	0	27.594	0	1634.977	0	-1e10	8	-1e10	8	-1E+10	1	-1E+10	1	-1E+10	1	-1E+10	1	-1E+10	1	-1E+10	1
4902554	87	C	07/06/2023	00:15	-132.553	47.645	0	1665.30	0	2.1870	0	34.5390	0	27.596	0	1644.816	0	-1e10	8	-1e10	8	-1E+10	1	-1E+10	1	-1E+10	1	-1E+10	1	-1E+10	1	-1E+10	1
4902554	87	C	07/06/2023	00:15	-132.553	47.645	0	1675.40	0	2.1770	0	34.5410	0	27.599	0	1654.752	0	-1e10	8	-1e10	8	-1E+10	1	-1E+10	1	-1E+10	1	-1E+10	1	-1E+10	1	-1E+10	1
4902554	87	C	07/06/2023	00:15	-132.553	47.645	0	1686.00	0	2.1700	0	34.5420	0	27.600	0	1665.180	0	-1e10	8	-1e10	8	-1E+10	1	-1E+10	1	-1E+10	1	-1E+10	1	-1E+10	1	-1E+10	1
4902554	87	C	07/06/2023	00:15	-132.553	47.645	0	1695.50	0	2.1570	0	34.5450	0	27.604	0	1674.525	0	-1e10	8	-1e10	8	-1E+10	1	-1E+10	1	-1E+10	1	-1E+10	1	-1E+10	1	-1E+10	1
4902554	87	C	07/06/2023	00:15	-132.553	47.645	0	1705.40	0	2.1500	0	34.5460	0	27.605	0	1684.263	0	-1e10	8	-1e10	8	-1E+10	1	-1E+10	1	-1E+10	1	-1E+10	1	-1E+10	1	-1E+10	1
4902554	87	C	07/06/2023	00:15	-132.553	47.645	0	1715.20	0	2.1430	0	34.5470	0	27.607	0	1693.903	0	-1e10	8	-1e10	8	-1E+10	1	-1E+10	1	-1E+10	1	-1E+10	1	-1E+10	1	-1E+10	1
4902554	87	C	07/06/2023	00:15	-132.553	47.645	0	1725.20	0	2.1380	0	34.5480	0	27.608	0	1703.738	0	-1e10	8	-1e10	8	-1E+10	1	-1E+10	1	-1E+10	1	-1E+10	1	-1E+10	1	-1E+10	1
4902554	87	C	07/06/2023	00:15	-132.553	47.645	0	1735.10	0	2.1270	0	34.5510	0	27.611	0	1713.475	0	-1e10	8	-1e10	8	-1E+10	1	-1E+10	1	-1E+10	1	-1E+10	1	-1E+10	1	-1E+10	1
4902554	87	C	07/06/2023	00:15	-132.553	47.645	0	1745.00	0	2.1190	0	34.5520	0	27.613	0	1723.212	0	-1e10	8	-1e10	8	-1E+10	1	-1E+10	1	-1E+10	1	-1E+10	1	-1E+10	1	-1E+10	1
4902554	87	C	07/06/2023	00:15	-132.553	47.645	0	1755.20	0	2.1130	0	34.5540	0	27.615	0	1733.243	0	-1e10	8	-1e10	8	-1E+10	1	-1E+10	1	-1E+10	1	-1E+10	1	-1E+10	1	-1E+10	1
4902554	87	C	07/06/2023	00:15	-132.553	47.645	0	1765.40	0	2.1080	0	34.5550	0	27.616	0	1743.273	0	-1e10	8	-1e10	8	-1E+10	1	-1E+10	1	-1E+10	1	-1E+10	1	-1E+10	1	-1E+10	1
4902554	87	C	07/06/2023	00:15	-132.553	47.645	0	1775.60	0	2.1020	0	34.5570	0	27.618	0	1753.303	0	-1e10	8	-1e10	8	-1E+10	1	-1E+10	1	-1E+10	1	-1E+10	1	-1E+10	1	-1E+10	1
4902554	87	C	07/06/2023	00:15	-132.553	47.645	0	1785.40	0	2.0940	0	34.5580	0	27.620	0	1762.940	0	-1e10	8	-1e10	8	-1E+10	1	-1E+10	1	-1E+10	1	-1E+10	1	-1E+10	1	-1E+10	1
4902554	87	C	07/06/2023	00:15	-132.553	47.645	0	1795.20	0	2.0870	0	34.5590	0	27.621	0	1772.575	0	-1e10	8	-1e10	8	-1E+10	1	-1E+10	1	-1E+10	1	-1E+10	1	-1E+10	1	-1E+10	1
4902554	87	C	07/06/2023	00:15	-132.553	47.645	0	1805.40	0	2.0790	0	34.5610	0	27.623	0	1782.604	0	-1e10	8	-1e10	8	-1E+10	1	-1E+10	1	-1E+10	1	-1E+10	1	-1E+10	1	-1E+10	1
4902554	87	C	07/06/2023	00:15	-132.553	47.645	0	1815.60	0	2.0710	0	34.5630	0	27.626	0	1792.632	0	-1e10	8	-1e10	8	-1E+10	1	-1E+10	1	-1E+10	1	-1E+10	1	-1E+10	1	-1E+10	1
4902554	87	C	07/06/2023	00:15	-132.553	47.645	0	1825.30	0	2.0620	0	34.5640	0	27.627	0	1802.168	0	-1e10	8	-1e10	8	-1E+10	1	-1E+10	1	-1E+10	1	-1E+10	1	-1E+10	1	-1E+10	1
4902554	87	C	07/06/2023	00:15	-132.553	47.645	0	1835.00	0	2.0510	0	34.5670	0	27.630	0	1811.704	0	-1e10	8	-1e10	8	-1E+10	1	-1E+10	1	-1E+10	1	-1E+10	1	-1E+10	1	-1E+10	1
4902554	87	C	07/06/2023	00:15	-132.553	47.645	0	1845.20	0	2.0400	0	34.5690	0	27.633	0	1821.731	0	-1e10	8	-1e10	8	-1E+10	1	-1E+10	1	-1E+10	1	-1E+10	1	-1E+10	1	-1E+10	1
4902554	87	C	07/06/2023	00:15	-132.553	47.645	0	1855.60	0	2.0350	0	34.5700	0	27.634	0	1831.954	0	-1e10	8	-1e10	8	-1E+10	1	-1E+10	1	-1E+10	1	-1E+10	1	-1E+10	1	-1E+10	1
4902554	87	C	07/06/2023	00:15	-132.553	47.645	0	1865.50	0	2.0230	0	34.5720	0	27.637	0	1841.685	0	-1e10	8	-1e10	8	-1E+10	1	-1E+10	1	-1E+10	1	-1E+10	1	-1E+10	1	-1E+10	1
4902554	87	C	07/06/2023	00:15	-132.553	47.645	0	1875.40	0	2.0100	0	34.5740	0	27.639	0	1851.416	0	-1e10	8	-1e10	8	-1E+10	1	-1E+10	1	-1E+10	1	-1E+10	1	-1E+10	1	-1E+10	1
4902554	87	C	07/06/2023	00:15	-132.553	47.645	0	1885.30	0	2.0050	0	34.5760	0	27.642	0	1861.146	0	-1e10	8	-1e10	8	-1E+10	1	-1E+10	1	-1E+10	1	-1E+10	1	-1E+10	1	-1E+10	1
4902554	87	C	07/06/2023	00:15	-132.553	47.645	0	1895.40	0	2.0020	0	34.5770	0	27.643	0	1871.072	0	-1e10	8	-1e10	8	-1E+10	1	-1E+10	1	-1E+10	1	-1E+10	1	-1E+10	1	-1E+10	1
4902554	87	C	07/06/2023	00:15	-132.553	47.645	0	1905.40	0	1.9960	0	34.5780	0	27.644	0	1880.899	0	-1e10	8	-1e10	8	-1E+10	1	-1E+10	1	-1E+10	1	-1E+10	1	-1E+10	1	-1E+10	1
4902554	87	C	07/06/2023	00:15	-132.553	47.645	0	1915.40	0	1.9830	0	34.5800	0	27.647	0	1890.726	0	-1e10	8	-1e10	8	-1E+10	1	-1E+10	1	-1E+10	1	-1E+10	1	-1E+10	1	-1E+10	1
4902554	87	C	07/06/2023	00:15	-132.553	47.645	0	1925.40	0	1.9750	0	34.5820	0	27.649	0	1900.553	0	-1e10	8	-1e10	8	-1E+10	1	-1E+10	1	-1E+10	1	-1E+10	1	-1E+10	1	-1E+10	1
4902554	87	C	07/06/2023	00:15	-132.553	47.645	0	1935.50	0	1.9670	0	34.5840	0	27.651	0	1910.477	0	-1e10	8	-1e10	8	-1E+10	1	-1E+10	1	-1E+10	1	-1E+10	1	-1E+10	1	-1E+10	1
4902554	87	C	07/06/2023	00:15	-132.553	47.645	0	1945.60	0	1.9570	0	34.5850	0	27.653	0	1920.401	0	-1e10	8	-1e10	8	-1E+10	1	-1E+10	1	-1E+10	1	-1E+10	1	-1E+10	1	-1E+10	1
4902554	87	C	07/06/2023	00:15	-132.553	47.645	0	1955.20	0	1.9500	0	34.5870	0	27.655	0	1929.833	0	-1e10	8	-1e10	8	-1E+10	1	-1E+10	1	-1E+10	1	-1E+10	1	-1E+10	1	-1E+10	1
4902554	87	C	07/06/2023	00:15	-132.553	47.645	0	1965.40	0	1.9450	0	34.5880	0	27.656	0	1939.855	0	-1e10	8	-1e10	8	-1E+10	1	-1E+10	1	-1E+10	1	-1E+10	1	-1E+10	1	-1E+10	1
4902554	87	C	07/06/2023	00:15	-132.553	47.645	0	1975.70	0	1.9400	0	34.5890	0	27.657	0	1949.974	0	-1e10	8	-1e10	8	-1E+10	1	-1E+10	1	-1E+10	1	-1E+10	1	-1E+10	1	-1E+10	1
4902554	87	C	07/06/2023	00:15	-132.553	47.645	0	1985.30	0	1.9350	0	34.5900	0	27.659	0	1959.405	0	-1e10	8	-1e10	8	-1E+10	1	-1E+10	1	-1E+10	1	-1E+10	1	-1E+10	1	-1E+10	1
4902554	87	C	07/06/2023	00:15	-132.553	47.645	0	1995.40	0	1.9270	0	34.5920	0	27.661	0	1969.326	0	-1e10	8	-1e10	8	-1E+10	1	-1E+10	1	-1E+10	1	-1E+10	1	-1E+10	1	-1E+10	1
4902554	87	C	07/06/2023	00:15	-132.553	47.645	0	2005.60	0	1.9160	0	34.5940	0	27.663	0	1979.345	0	-1e10	8	-1e10	8	-1E+10	1	-1E+10	1	-1E+10	1	-1E+10	1	-1E+10	1	-1E+10	1
4902554	87	C	07/06/2023	00:15	-132.553	47.645	0	2014.50	0	1.9110	0	34.5940	0	27.664	0	1988.088	0	-1e10	8	-1e10	8	-1E+10	1	-1E+10	1	-1E+10	1	-1E+10	1	-1E+10	1	-1E+10	1
4902554	87	C	07/06/2023	00:15	-132.553	47.645	0																										
4902554	88	C	07/16/2023	05:02	-132.602	47.638	0	0.10	0	15.3400	8	32.2580	8	23.786	0	0.099	0	-1e10	8	-1e10	8	-1E+10	1	-1E+10	1	-1E+10	1	-1E+10	1	-1E+10	1	-1E+10	1
4902554	88	C	07/16/2023	05:02	-132.602	47.638	0	0.20	0	15.3360	0	32.2330	0	23.768	0	0.198	0	-1e10	8	-1e10	8	-1E+10	1	-1E+10	1	-1E+10	1	-1E+10	1	-1E+10	1	-1E+10	1
4902554	88	C	07/16/2023	05:02	-132.602	47.638	0	1.00	0	15.3250	0	32.2270	0	23.766	0	0.992	0	-1e10	8	-1e10	8	-1E+10	1	-1E+10	1	-1E+10	1	-1E+10	1	-1E+10	1	-1E+10	1
4902554	88	C	07/16/2023	05:02	-132.602	47.638	0	2.20	0	15.3460	0	32.2980	0	23.816	0	2.182	0	-1e10	8	-1e10	8	-1E+10	1	-1E+10	1	-1E+10	1	-1E+10	1	-1E+10	1	-1E+10	1
4902554	88	C	07/16/2023	05:02	-132.602	47.638	0	2.90	0	15.3440	0	32.3030	0	23.820	0	2.876	0	-1e10	8	-1e10	8	-1E+10	1	-1E+10	1	-1E+10	1	-1E+10	1	-1E+10	1	-1E+10	1
4902554	88	C	07/16/2023	05:02	-132.602	47.638	0	4.10	0	15.3370	0	32.3070	0	23.825	0	4.066	0	-1e10	8	-1e10	8	-1E+10	1	-1E+10	1	-1E+10	1	-1E+10	1	-1E+10	1	-1E+10	1
4902554	88	C	07/16/2023	05:02	-132.602	47.638	0	4.80	0	15.3310	0	32.3190	0	23.835	0	4.760	0	-1e10	8	-1e10	8	-1E+10	1	-1E+10	1	-1E+10	1	-1E+10	1	-1E+10	1	-1E+10	1
4902554	88	C	07/16/2023	05:02	-132.602	47.638	0	5.90	0	15.3170	0	32.3210	0	23.840	0	5.851	0	-1e10	8	-1e10	8	-1E+10	1	-1E+10	1	-1E+10	1	-1E+10	1	-1E+10	1	-1E+10	1
4902554	88	C	07/16/2023	05:02	-132.602	47.638	0	7.00	0	15.2310	0	32.3240	0	23.861	0	6.941	0	-1e10	8	-1e10	8	-1E+10	1	-1E+10	1	-1E+10	1	-1E+10	1	-1E+10	1	-1E+10	1
4902554	88	C	07/16/2023	05:02	-132.602	47.638	0	8.20	0	14.9840	0	32.3580	0	23.940	0	8.131	0	-1e10	8	-1e10	8	-1E+10	1	-1E+10	1	-1E+10	1	-1E+10	1	-1E+10	1	-1E+10	1
4902554	88	C	07/16/2023	05:02	-132.602	47.638	0	9.00	0	14.9680	0	32.3610	0	23.946	0	8.925	0	-1e10	8	-1e10	8	-1E+10	1	-1E+10	1	-1E+10	1	-1E+10	1	-1E+10	1	-1E+10	1
4902554	88	C	07/16/2023	05:02	-132.602	47.638	0	10.10	0	14.9450	0	32.3600	0	23.950	0	10.015	0	-1e10	8	-1e10	8	-1E+10	1	-1E+10	1	-1E+10	1	-1E+10	1	-1E+10	1	-1E+10	1
4902554	88	C	07/16/2023	05:02	-132.602	47.638	0	11.30	0	14.9180	0	32.3640	0	23.959	0	11.205	0	-1e10	8	-1e10	8	-1E+10	1	-1E+10	1	-1E+10	1	-1E+10	1	-1E+10	1	-1E+10	1
4902554	88	C	07/16/2023	05:02	-132.602	47.638	0	12.00	0	14.8990	0	32.3590	0	23.959	0	11.899	0	-1e10	8	-1e10	8	-1E+10	1	-1E+10	1	-1E+10	1	-1E+10	1	-1E+10	1	-1E+10	1
4902554	88	C	07/16/2023	05:02	-132.602	47.638	0	13.00	0	14.8630	0	32.3630	0	23.970	0	12.891	0	-1e10	8	-1e10	8	-1E+10	1	-1E+10	1	-1E+10	1	-1E+10	1	-1E+10	1	-1E+10	1
4902554	88	C	07/16/2023	05:02	-132.602	47.638	0	14.20	0	14.8270	0	32.3640	0	23.979	0	14.081	0	-1e10	8	-1e10	8	-1E+10	1	-1E+10	1	-1E+10	1	-1E+10	1	-1E+10	1	-1E+10	1
4902554	88	C	07/16/2023	05:02	-132.602	47.638	0	14.90	0	14.8130	0	32.3640	0	23.982	0	14.775	0	-1e10	8	-1e10	8	-1E+10	1	-1E+10	1	-1E+10	1	-1E+10	1	-1E+10	1	-1E+10	1
4902554	88	C	07/16/2023	05:02	-132.602	47.638	0	16.10	0	14.7670	0	32.3650	0	23.992	0	15.965	0	-1e10	8	-1e10	8	-1E+10	1	-1E+10	1	-1E+10	1	-1E+10	1	-1E+10	1	-1E+10	1
4902554	88	C	07/16/2023	05:02	-132.602	47.638	0	17.00	0	14.7550	0	32.3640	0	23.994	0	16.857	0	-1e10	8	-1e10	8	-1E+10	1	-1E+10	1	-1E+10	1	-1E+10	1	-1E+10	1	-1E+10	1
4902554	88	C	07/16/2023	05:02	-132.602	47.638	0	18.20	0	14.7240	0	32.3640	0	24.001	0	18.047	0	-1e10	8	-1e10	8	-1E+10	1	-1E+10	1	-1E+10	1	-1E+10	1	-1E+10	1	-1E+10	1
4902554	88	C	07/16/2023	05:02	-132.602	47.638	0	18.90	0	14.6690	0	32.3630	0	24.012	0	18.741	0	-1e10	8	-1e10	8	-1E+10	1	-1E+10	1	-1E+10	1	-1E+10	1	-1E+10	1	-1E+10	1
4902554	88	C	07/16/2023	05:02	-132.602	47.638	0	19.90	0	14.5440	0	32.3660	0	24.040	0	19.733	0	-1e10	8	-1e10	8	-1E+10	1	-1E+10	1	-1E+10	1	-1E+10	1	-1E+10	1	-1E+10	1
4902554	88	C	07/16/2023	05:02	-132.602	47.638	0	20.90	0	14.3770	0	32.3620	0	24.072	0	20.724	0	-1e10	8	-1e10	8	-1E+10	1	-1E+10	1	-1E+10	1	-1E+10	1	-1E+10	1	-1E+10	1
4902554	88	C	07/16/2023	05:02	-132.602	47.638	0	22.00	0	14.1280	0	32.3610	0	24.123	0	21.815	0	-1e10	8	-1e10	8	-1E+10	1	-1E+10	1	-1E+10	1	-1E+10	1	-1E+10	1	-1E+10	1
4902554	88	C	07/16/2023	05:02	-132.602	47.638	0	23.30	0	13.3870	0	32.3680	0	24.279	0	23.104	0	-1e10	8	-1e10	8	-1E+10	1	-1E+10	1	-1E+10	1	-1E+10	1	-1E+10	1	-1E+10	1
4902554	88	C	07/16/2023	05:02	-132.602	47.638	0	24.10	0	13.0020	0	32.3670	0	24.355	0	23.897	0	-1e10	8	-1e10	8	-1E+10	1	-1E+10	1	-1E+10	1	-1E+10	1	-1E+10	1	-1E+10	1
4902554	88	C	07/16/2023	05:02	-132.602	47.638	0	24.90	0	12.6960	0	32.3750	0	24.420	0	24.690	0	-1e10	8	-1e10	8	-1E+10	1	-1E+10	1	-1E+10	1	-1E+10	1	-1E+10	1	-1E+10	1
4902554	88	C	07/16/2023	05:02	-132.602	47.638	0	25.70	0	12.4860	0	32.3520	0	24.443	0	25.484	0	-1e10	8	-1e10	8	-1E+10	1	-1E+10	1	-1E+10	1	-1E+10	1	-1E+10	1	-1E+10	1
4902554	88	C	07/16/2023	05:02	-132.602	47.638	0	26.80	0	12.2960	0	32.3600	0	24.485	0	26.574	0	-1e10	8	-1e10	8	-1E+10	1	-1E+10	1	-1E+10	1	-1E+10	1	-1E+10	1	-1E+10	1
4902554	88	C	07/16/2023	05:02	-132.602	47.638	0	27.80	0	12.2010	0	32.3590	0	24.502	0	27.566	0	-1e10	8	-1e10	8	-1E+10	1	-1E+10	1	-1E+10	1	-1E+10	1	-1E+10	1	-1E+10	1
4902554	88	C	07/16/2023	05:02	-132.602	47.638	0	28.90	0	12.1490	0	32.3590	0	24.512	0	28.656	0	-1e10	8	-1e10	8	-1E+10	1	-1E+10	1	-1E+10	1	-1E+10	1	-1E+10	1	-1E+10	1
4902554	88	C	07/16/2023	05:02	-132.602	47.638	0	30.00	0	12.0140	0	32.3580	0	24.536	0	29.747	0	-1e10	8	-1e10	8	-1E+10	1	-1E+10	1	-1E+10	1	-1E+10	1	-1E+10	1	-1E+10	1
4902554	88	C	07/16/2023	05:02	-132.602	47.638	0	31.00	0	11.8430	0	32.3420	0	24.556	0	30.739	0	-1e10	8	-1e10	8	-1E+10	1	-1E+10	1	-1E+10	1	-1E+10	1	-1E+10	1	-1E+10	1
4902554	88	C	07/16/2023	05:02	-132.602	47.638	0	32.00	0	11.2510	0	32.3480	0	24.668	0	31.730	0	-1e10	8	-1e10	8	-1E+10	1	-1E+10	1	-1E+10	1	-1E+10	1	-1E+10	1	-1E+10	1
4902554	88	C	07/16/2023	05:02	-132.602	47.638	0	33.00	0	10.8220	0	32.2480	0	24.665	0	32.722	0	-1e10	8	-1e10	8	-1E+10	1	-1E+10	1	-1E+10	1	-1E+10	1	-1E+10	1	-1E+10	1
4902554	88	C	07/16/2023	05:02	-132.602	47.638	0	33.70	0	9.8730	0	32.3670	0	24.919	0	33.416	0	-1e10	8	-1e10	8	-1E+10	1	-1E+10	1	-1E+10	1	-1E+10	1	-1E+10	1	-1E+10	1
4902554	88	C	07/16/2023	05:02	-132.602	47.638	0	34.90	0	9.4460	0	32.3690	0	24.989	0	34.605	0	-1e10	8	-1e10	8	-1E+10	1	-1E+10	1	-1E+10	1	-1E+10	1	-1E+10	1	-1E+10	1
4902554	88	C	07/16/2023	05:02	-132.602	47.638	0	36.00	0	9.1800	0	32.3690	0	25.031	0	35.696	0	-1e10	8	-1e10	8	-1E+10	1	-1E+10	1	-1E+10	1	-1E+10	1	-1E+10	1	-1E+10	1
4902554	88	C	07/16/2023	05:02	-132.602	47.638	0	37.10	0	8.9480	0	32.3750	0	25.072	0	36.787	0	-1e10	8	-1e10	8	-1E+10	1	-1E+10	1	-1E+10	1	-1E+10	1	-1E+10	1	-1E+10	1
4902554	88	C	07/16/2023	05:02	-132.602	47.638	0	38.30	0	8.7150	0	32.3800	0	25.112	0	37.976	0	-1e10	8	-1e10	8	-1E+10	1	-1E+10	1	-1E+10	1	-1E+10	1	-1E+10	1	-1E+10	1
4902554	88	C	07/16/2023	05:02	-132.602	47.638	0	39.00	0	8.6550	0	32.3790	0	25.120	0	38.670	0	-1e10	8	-1e10	8	-1E+10	1	-1E+10	1	-1E+10	1	-1E+10	1	-1E+10	1	-1E+10	1
4902554	88	C	07/16/2023	05:02	-132.602	47.638	0	40.10	0	8.4730	0	32.3830	0	25.151	0	39.761	0	-1e10	8	-1e10	8	-1E+10	1	-1E+10	1	-1E+10	1	-1E+10	1	-1E+10	1	-1E+10	1
4902554	88	C	07/16/2023	05:02	-132.602	47.638	0	41.00	0	8.3380	0	32.3790	0	25.167	0	40.653	0	-1e10	8	-1e10	8	-1E+10	1	-1E+10	1	-1E+10	1	-1E+10	1	-1E+10	1	-1E+10	1
4902554	88	C	07/16/2023	05:02	-132.602	47.638	0	41.90	0	8.1440	0	32.3770	0	25.194	0	41.546	0	-1e10	8	-1e10	8	-1E+10	1	-1E+10	1	-1E+10	1	-1E+10	1	-1E+10	1	-1E+10	1
4902554	88	C	07/16/2023	05:02	-132.602	47.638	0	42.80	0	7.9900	0	32.3810	0	25.220	0	42.438	0	-1e10	8	-1e10	8	-1E+10	1	-1E+10	1	-1E+10	1	-1E+10	1	-1E+10	1	-1E+10	1
4902554	88	C	07/16/2023	05:02	-132.602	47.638	0	44.00	0	7.8390	0	32.3820	0	25.242	0	43.628	0	-1e10	8	-1e10	8	-1E+10	1	-1E+10	1	-1E+10	1	-1E+10	1	-1E+10	1	-1E+10	1
4902554	88	C	07/16/2023	05:02	-132.602	47.638	0	45.20	0	7.7720	0	32.3830	0	25.253	0	44.817	0	-1e10	8	-1e10	8	-1E+10	1	-1E+10	1	-1E+10	1	-1E+10	1	-1E+10	1	-1E+10	1
4902554	88	C	07/16/2023	05:02	-132.602	47.638	0	46.00	0	7.7360	0	32.3810	0	25.256	0	45.610	0	-1e10	8	-1e10	8	-1E+10	1	-1E+10	1	-1E+10	1	-1E+10	1	-1E+10	1	-1E+10	1
4902554	88	C	07/16/2023	05:02	-132.602	47.638	0	47.30	0	7.6330	0	32.3820	0	25.271	0	46.899	0	-1e10	8	-1e10	8	-1E+10	1	-1E+10	1	-1E+10	1	-1E+10	1	-1E+10	1	-1E+10	1
4902554	88	C	07/16/2023	05:02	-132.602	47.638	0	47.90	0	7.5810	0	32.3830	0	25.279	0	47.494	0	-1e10	8	-1e10	8	-1E+10	1	-1E+10	1	-1E+10	1	-1E+10	1	-1E+10	1	-1E+10	1
4902554	88	C	07/16/2023	05:02	-132.602	47.638	0	48.80	0	7.5620	0	32.3830	0	25.282	0	48.386	0	-1e10	8	-1e10	8	-1E+10	1	-1E+10	1	-1E+10	1	-1E+10	1	-1E+10	1	-1E+10	1
4902554	88	C	07/16/2023	05:02	-132.602	47.638	0	50.10	0	7.5340	0	32.3860	0	25.288	0	49.675	0	-1e10	8	-1e10	8	-1E+10	1	-1E+10	1	-1E+10	1	-1E+10	1	-1E+10	1	-1E+10	1
4902554	88	C	07/16/2023	05:02	-132.602	47.638	0	51.00	0	7.5180	0	32.3900	0	25.294	0	50.567	0	-1e10	8	-1e10	8	-1E+10	1	-1E+10	1	-1E+10	1	-1E+10	1	-1E+10	1	-1E+10	1
4902554	88	C	07/16/2023	05:02	-132.602	47.638	0	51.90	0	7.5110	0	32.3890	0	25.294	0	51.460	0	-1e10	8	-1e10	8	-1E+10	1	-1E+10	1	-1E+10	1	-1E+10	1	-1E+10	1	-1E+10	1
4902554	88	C	07/16/2023	05:02	-132.602	47.638	0	53.00	0	7.4700	0	32.3890	0	25.300	0	52.550	0	-1e10	8	-1e10	8	-1E+10	1	-1E+10	1	-1E+10	1	-1E+10	1	-1E+10	1	-1E+10	1
4902554	88	C	07/16/2023	05:02	-132.602	47.638	0	54.10	0	7.4530	0	32.3900	0	25.303	0	53.641	0	-1e10	8	-1e10	8	-1E+10	1	-1E+10	1	-1E+10	1	-1E+10	1	-1E+10	1	-1E+10	1
4902554	88	C	07/16/2023	05:02	-132.602	47.638	0	55.20	0	7.4480	0	32.3920	0	25.305	0	54.731	0	-1e10	8	-1e10	8	-1E+10	1	-1E+10	1	-1E+10	1	-1E+10	1	-1E+10	1	-1E+10	1
4902554	88	C	07/16/2023	05:02	-132.602	47.638	0	56.10	0	7.4210	0	32.3890	0	25.306	0	55.624	0	-1e10	8	-1e10	8	-1E+10	1	-1E+10	1	-1E+10	1	-1E+10	1	-1E+10	1	-1E+10	1
4902554	88	C	07/16/2023	05:02	-132.602	47.638	0	56.80	0	7.4140	0	32.3900	0	25.308	0	56.317	0	-1e10	8	-1e10	8	-1E+10	1	-1E+10	1	-1E+10	1	-1E+10	1	-1E+10	1	-1E+10	1
4902554	88	C	07/16/2023	05:02	-132.602	47.638	0	57.70	0	7.3990	0	32.3890	0	25.309	0	57.210	0	-1e10	8	-1e10	8	-1E+10	1	-1E+10	1	-1E+10	1	-1E+10	1	-1E+10	1	-1E+10	1
4902554	88	C	07/16/2023	05:02	-132.602	47.638	0	58.70	0	7.3820	0	32.3900	0	25.313	0	58.201	0	-1e10	8	-1e10	8	-1E+10	1	-1E+10	1	-1E+10	1	-1E+10	1	-1E+10	1	-1E+10	1
4902554	88	C	07/16/2023	05:02	-132.602	47.638	0	59.90	0	7.3790	0	32.3910	0	25.314	0	59.391	0	-1e10	8	-1e10	8	-1E+10	1	-1E+10	1	-1E+10	1	-1E+10	1	-1E+10	1	-1E+10	1
4902554	88	C	07/16/2023	05:02	-132.602	47.638	0	61.00	0	7.3810	0	32.3930	0	25.315	0	60.481	0	-1e10	8	-1e10	8	-1E+10	1	-1E+10	1	-1E+10	1	-1E+10	1	-1E+10	1	-1E+10	1
4902554	88	C	07/16/2023	05:02	-132.602	47.638	0	61.70	0	7.3770	0	32.3920	0	25.315	0	61.175	0	-1e10	8	-1e10	8	-1E+10	1	-1E+10	1	-1E+10	1	-1E+10	1	-1E+10	1	-1E+10	1
4902554	88	C	07/16/2023	05:02	-132.602	47.638	0	62.70	0	7.3730	0	32.3930	0	25.316	0	62.166	0	-1e10	8	-1e10	8	-1E+10	1	-1E+10	1	-1E+10	1	-1E+10	1	-1E+10	1	-1E+10	1
4902554	88	C	07/16/2023	05:02	-132.602	47.638	0	63.70	0	7.3560	0	32.3920	0	25.318	0	63.158	0	-1e10	8	-1e10	8	-1E+10	1	-1E+10	1	-1E+10	1	-1E+10	1	-1E+10	1	-1E+10	1
4902554	88	C	07/16/2023	05:02	-132.602	47.638	0	64.80	0	7.3490	0	32.3920	0	25.319	0	64.248	0	-1e10	8	-1e10	8	-1E+10	1	-1E+10	1	-1E+10	1	-1E+10	1	-1E+10	1	-1E+10	1
4902554	88	C	07/16/2023	05:02	-132.602	47.638	0	65.80	0	7.3500	0	32.3930	0	25.319	0	65.240	0	-1e10	8	-1e10	8	-1E+10	1	-1E+10	1	-1E+10	1	-1E+10	1	-1E+10	1	-1E+10	1
4902554	88	C	07/16/2023	05:02	-132.602	47.638	0	66.90	0	7.3330	0	32.3930	0	25.322	0	66.330	0	-1e10	8	-1e10	8	-1E+10	1	-1E+10	1	-1E+10	1	-1E+10	1	-1E+10	1	-1E+10	1
4902554	88	C	07/16/2023	05:02	-132.602	47.638	0	67.90	0	7.3290	0	32.3930	0	25.322	0	67.321	0	-1e10	8	-1e10	8	-1E+10	1	-1E+10	1	-1E+10	1	-1E+10	1	-1E+10	1	-1E+10	1
4902554	88	C	07/16/2023	05:02	-132.602	47.638	0	69.00	0	7.3350	0	32.3940	0	25.322	0	68.412	0	-1e10	8	-1e10	8	-1E+10	1	-1E+10	1	-1E+10	1	-1E+10	1	-1E+10	1	-1E+10	1
4902554	88	C	07/16/2023	05:02	-132.602	47.638	0	70.10	0	7.3450	0	32.3990	0	25.325	0	69.502	0	-1e10	8	-1e10	8	-1E+10	1	-1E+10	1	-1E+10	1	-1E+10	1	-1E+10	1	-1E+10	1
4902554	88	C	07/16/2023	05:02	-132.602	47.638	0	71.00	0	7.3560	0	32.4030	0	25.327	0	70.394	0	-1e10	8	-1e10	8	-1E+10	1	-1E+10	1	-1E+10	1	-1E+10	1	-1E+10	1	-1E+10	1
4902554	88	C	07/16/2023	05:02	-132.602	47.638	0	71.80	0	7.3370	0	32.4010	0	25.328	0	71.187	0	-1e10	8	-1e10	8	-1E+10	1	-1E+10	1	-1E+10	1	-1E+10	1	-1E+10	1	-1E+10	1
4902554	88	C	07/16/2023	05:02	-132.602	47.638	0	72.90	0	7.3240	0	32.4010	0	25.329	0	72.278	0	-1e10	8	-1e10	8	-1E+10	1	-1E+10	1	-1E+10	1	-1E+10	1	-1E+10	1	-1E+10	1
4902554	88	C	07/16/2023	05:02	-132.602	47.638	0	74.10	0	7.3220	0	32.4020	0	25.330	0	73.467	0	-1e10	8	-1e10	8	-1E+10	1	-1E+10	1	-1E+10	1	-1E+10	1	-1E+10	1	-1E+10	1
4902554	88	C	07/16/2023	05:02	-132.602	47.638	0	75.00	0	7.2990	0	32.4010	0	25.333	0	74.360	0	-1e10	8	-1e10	8	-1E+10	1	-1E+10	1	-1E+10	1	-1E+10	1	-1E+10	1	-1E+10	1
4902554	88	C	07/16/2023	05:02	-132.602	47.638	0	75.90	0	7.3060	0	32.4040	0	25.334	0	75.252	0	-1e10	8	-1e10	8	-1E+10	1	-1E+10	1	-1E+10	1	-1E+10	1	-1E+10	1	-1E+10	1
4902554	88	C	07/16/2023	05:02	-132.602	47.638	0	77.10	0	7.3130	0	32.4070	0	25.336	0	76.441	0	-1e10	8	-1e10	8	-1E+10	1	-1E+10	1	-1E+10	1	-1E+10	1	-1E+10	1	-1E+10	1
4902554	88	C	07/16/2023	05:02	-132.602	47.638	0	78.10	0	7.3180	0	32.4080	0	25.336	0	77.433	0	-1e10	8	-1e10	8	-1E+10	1	-1E+10	1	-1E+10	1	-1E+10	1	-1E+10	1	-1E+10	1
4902554	88	C	07/16/2023	05:02	-132.602	47.638	0	79.00	0	7.3320	0	32.4150	0	25.339	0	78.325	0	-1e10	8	-1e10	8	-1E+10	1	-1E+10	1	-1E+10	1	-1E+10	1	-1E+10	1	-1E+10	1
4902554	88	C	07/16/2023	05:02	-132.602	47.638	0	79.90	0	7.3420	0	32.4180	0	25.340	0	79.217	0	-1e10	8	-1e10	8	-1E+10	1	-1E+10	1	-1E+10	1	-1E+10	1	-1E+10	1	-1E+10	1
4902554	88	C	07/16/2023	05:02	-132.602	47.638	0	80.80	0	7.3540	0	32.4190	0	25.340	0	80.109	0	-1e10	8	-1e10	8	-1E+10	1	-1E+10	1	-1E+10	1	-1E+10	1	-1E+10	1	-1E+10	1
4902554	88	C	07/16/2023	05:02	-132.602	47.638	0	81.90	0	7.3450	0	32.4200	0	25.342	0	81.199	0	-1e10	8	-1e10	8	-1E+10	1	-1E+10	1	-1E+10	1	-1E+10	1	-1E+10	1	-1E+10	1
4902554	88	C	07/16/2023	05:02	-132.602	47.638	0	82.80	0	7.3630	0	32.4270	0	25.345	0	82.091	0	-1e10	8	-1e10	8	-1E+10	1	-1E+10	1	-1E+10	1	-1E+10	1	-1E+10	1	-1E+10	1
4902554	88	C	07/16/2023	05:02	-132.602	47.638	0	84.10	0	7.3640	0	32.4290	0	25.346	0	83.380	0	-1e10	8	-1e10	8	-1E+10	1	-1E+10	1	-1E+10	1	-1E+10	1	-1E+10	1	-1E+10	1
4902554	88	C	07/16/2023	05:02	-132.602	47.638	0	85.10	0	7.3560	0	32.4280	0	25.346	0	84.371	0	-1e10	8	-1e10	8	-1E+10	1	-1E+10	1	-1E+10	1	-1E+10	1	-1E+10	1	-1E+10	1
4902554	88	C	07/16/2023	05:02	-132.602	47.638	0	86.00	0	7.3440	0	32.4270	0	25.347	0	85.263	0	-1e10	8	-1e10	8	-1E+10	1	-1E+10	1	-1E+10	1	-1E+10	1	-1E+10	1	-1E+10	1
4902554	88	C	07/16/2023	05:02	-132.602	47.638	0	87.00	0	7.3460	0	32.4300	0	25.349	0	86.255	0	-1e10	8	-1e10	8	-1E+10	1	-1E+10	1	-1E+10	1	-1E+10	1	-1E+10	1	-1E+10	1
4902554	88	C	07/16/2023	05:02	-132.602	47.638	0	87.90	0	7.3460	0	32.4310	0	25.350	0	87.147	0	-1e10	8	-1e10	8	-1E+10	1	-1E+10	1	-1E+10	1	-1E+10	1	-1E+10	1	-1E+10	1
4902554	88	C	07/16/2023	05:02	-132.602	47.638	0	88.90	0	7.3430	0	32.4330	0	25.352	0	88.138	0	-1e10	8	-1e10	8	-1E+10	1	-1E+10	1	-1E+10	1	-1E+10	1	-1E+10	1	-1E+10	1
4902554	88	C	07/16/2023	05:02	-132.602	47.638	0	89.80	0	7.3370	0	32.4340	0	25.354	0	89.030	0	-1e10	8	-1e10	8	-1E+10	1	-1E+10	1	-1E+10	1	-1E+10	1	-1E+10	1	-1E+10	1
4902554	88	C	07/16/2023	05:02	-132.602	47.638	0	91.00	0	7.3360	0	32.4360	0	25.355	0	90.219	0	-1e10	8	-1e10	8	-1E+10	1	-1E+10	1	-1E+10	1	-1E+10	1	-1E+10	1	-1E+10	1
4902554	88	C	07/16/2023	05:02	-132.602	47.638	0	91.90	0	7.3270	0	32.4370	0	25.357	0	91.112	0	-1e10	8	-1e10	8	-1E+10	1	-1E+10	1	-1E+10	1	-1E+10	1	-1E+10	1	-1E+10	1
4902554	88	C	07/16/2023	05:02	-132.602	47.638	0	92.70	0	7.3050	0	32.4410	0	25.364	0	91.905	0	-1e10	8	-1e10	8	-1E+10	1	-1E+10	1	-1E+10	1	-1E+10	1	-1E+10	1	-1E+10	1
4902554	88	C	07/16/2023	05:02	-132.602	47.638	0	93.90	0	7.2920	0	32.4450	0	25.369	0	93.094	0	-1e10	8	-1e10	8	-1E+10	1	-1E+10	1	-1E+10	1	-1E+10	1	-1E+10	1	-1E+10	1
4902554	88	C	07/16/2023	05:02	-132.602	47.638	0	95.00	0	7.2760	0	32.4440	0	25.370	0	94.184	0	-1e10	8	-1e10	8	-1E+10	1	-1E+10	1	-1E+10	1	-1E+10	1	-1E+10	1	-1E+10	1
4902554	88	C	07/16/2023	05:02	-132.602	47.638	0	96.00	0	7.2680	0	32.4480	0	25.374	0	95.175	0	-1e10	8	-1e10	8	-1E+10	1	-1E+10	1	-1E+10	1	-1E+10	1	-1E+10	1	-1E+10	1
4902554	88	C	07/16/2023	05:02	-132.602	47.638	0	97.10	0	7.2610	0	32.4640	0	25.388	0	96.266	0	-1e10	8	-1e10	8	-1E+10	1	-1E+10	1	-1E+10	1	-1E+10	1	-1E+10	1	-1E+10	1
4902554	88	C	07/16/2023	05:02	-132.602	47.638	0	98.00	0	7.2610	0	32.4720	0	25.394	0	97.158	0	-1e10	8	-1e10	8	-1E+10	1	-1E+10	1	-1E+10	1	-1E+10	1	-1E+10	1	-1E+10	1
4902554	88	C	07/16/2023	05:02	-132.602	47.638	0	98.70	0	7.2710	0	32.4780	0	25.397	0	97.852	0	-1e10	8	-1e10	8	-1E+10	1	-1E+10	1	-1E+10	1	-1E+10	1	-1E+10	1	-1E+10	1
4902554	88	C	07/16/2023	05:02	-132.602	47.638	0	99.70	0	7.2240	0	32.4920	0	25.415	0	98.843	0	-1e10	8	-1e10	8	-1E+10	1	-1E+10	1	-1E+10	1	-1E+10	1	-1E+10	1	-1E+10	1
4902554	88	C	07/16/2023	05:02	-132.602	47.638	0	100.80	0	7.1620	0	32.5060	0	25.434	0	99.933	0	-1e10	8	-1e10	8	-1E+10	1	-1E+10	1	-1E+10	1	-1E+10	1	-1E+10	1	-1E+10	1
4902554	88	C	07/16/2023	05:02	-132.602	47.638	0	101.90	0	7.1460	0	32.5180	0	25.446	0	101.023	0	-1e10	8	-1e10	8	-1E+10	1	-1E+10	1	-1E+10	1	-1E+10	1	-1E+10	1	-1E+10	1
4902554	88	C	07/16/2023	05:02	-132.602	47.638	0	102.90	0	7.0670	0	32.5350	0	25.470	0	102.014	0	-1e10	8	-1e10	8	-1E+10	1	-1E+10	1	-1E+10	1	-1E+10	1	-1E+10	1	-1E+10	1
4902554	88	C	07/16/2023	05:02	-132.602	47.638	0	104.10	0	6.9420	0	32.6090	0	25.545	0	103.204	0	-1e10	8	-1e10	8	-1E+10	1	-1E+10	1	-1E+10	1	-1E+10	1	-1E+10	1	-1E+10	1
4902554	88	C	07/16/2023	05:02	-132.602	47.638	0	105.10	0	6.9290	0	32.6250	0	25.559	0	104.195	0	-1e10	8	-1e10	8	-1E+10	1	-1E+10	1	-1E+10	1	-1E+10	1	-1E+10	1	-1E+10	1
4902554	88	C	07/16/2023	05:02	-132.602	47.638	0	106.00	0	6.8810	0	32.6490	0	25.584	0	105.087	0	-1e10	8	-1e10	8	-1E+10	1	-1E+10	1	-1E+10	1	-1E+10	1	-1E+10	1	-1E+10	1
4902554	88	C	07/16/2023	05:02	-132.602	47.638	0	106.90	0	6.8190	0	32.6920	0	25.627	0	105.979	0	-1e10	8	-1e10	8	-1E+10	1	-1E+10	1	-1E+10	1	-1E+10	1	-1E+10	1	-1E+10	1
4902554	88	C	07/16/2023	05:02	-132.602	47.638	0	107.80	0	6.7700	0	32.7300	0	25.663	0	106.871	0	-1e10	8	-1e10	8	-1E+10	1	-1E+10	1	-1E+10	1	-1E+10	1	-1E+10	1	-1E+10	1
4902554	88	C	07/16/2023	05:02	-132.602	47.638	0	109.00	0	6.7250	0	32.7570	0	25.690	0	108.060	0	-1e10	8	-1e10	8	-1E+10	1	-1E+10	1	-1E+10	1	-1E+10	1	-1E+10	1	-1E+10	1
4902554	88	C	07/16/2023	05:02	-132.602	47.638	0	110.00	0	6.6480	0	32.8200	0	25.750	0	109.051	0	-1e10	8	-1e10	8	-1E+10	1	-1E+10	1	-1E+10	1	-1E+10	1	-1E+10	1	-1E+10	1
4902554	88	C	07/16/2023	05:02	-132.602	47.638	0	110.90	0	6.6160	0	32.8450	0	25.774	0	109.943	0	-1e10	8	-1e10	8	-1E+10	1	-1E+10	1	-1E+10	1	-1E+10	1	-1E+10	1	-1E+10	1
4902554	88	C	07/16/2023	05:02	-132.602	47.638	0	112.00	0	6.6040	0	32.8510	0	25.780	0	111.034	0	-1e10	8	-1e10	8	-1E+10	1	-1E+10	1	-1E+10	1	-1E+10	1	-1E+10	1	-1E+10	1
4902554	88	C	07/16/2023	05:02	-132.602	47.638	0	113.10	0	6.5830	0	32.8640	0	25.793	0	112.124	0	-1e10	8	-1e10	8	-1E+10	1	-1E+10	1	-1E+10	1	-1E+10	1	-1E+10	1	-1E+10	1
4902554	88	C	07/16/2023	05:02	-132.602	47.638	0	114.00	0	6.5470	0	32.8900	0	25.818	0	113.016	0	-1e10	8	-1e10	8	-1E+10	1	-1E+10	1	-1E+10	1	-1E+10	1	-1E+10	1	-1E+10	1
4902554	88	C	07/16/2023	05:02	-132.602	47.638	0	115.00	0	6.5180	0	32.9110	0	25.838	0	114.007	0	-1e10	8	-1e10	8	-1E+10	1	-1E+10	1	-1E+10	1	-1E+10	1	-1E+10	1	-1E+10	1
4902554	88	C	07/16/2023	05:02	-132.602	47.638	0	116.10	0	6.4860	0	32.9370	0	25.863	0	115.097	0	-1e10	8	-1e10	8	-1E+10	1	-1E+10	1	-1E+10	1	-1E+10	1	-1E+10	1	-1E+10	1
4902554	88	C	07/16/2023	05:02	-132.602	47.638	0	116.90	0	6.4700	0	32.9540	0	25.878	0	115.890	0	-1e10	8	-1e10	8	-1E+10	1	-1E+10	1	-1E+10	1	-1E+10	1	-1E+10	1	-1E+10	1
4902554	88	C	07/16/2023	05:02	-132.602	47.638	0	117.90	0	6.4600	0	32.9620	0	25.886	0	116.881	0	-1e10	8	-1e10	8	-1E+10	1	-1E+10	1	-1E+10	1	-1E+10	1	-1E+10	1	-1E+10	1
4902554	88	C	07/16/2023	05:02	-132.602	47.638	0	118.90	0	6.4190	0	32.9950	0	25.917	0	117.872	0	-1e10	8	-1e10	8	-1E+10	1	-1E+10	1	-1E+10	1	-1E+10	1	-1E+10	1	-1E+10	1
4902554	88	C	07/16/2023	05:02	-132.602	47.638	0	120.00	0	6.3680	0	33.0410	0	25.960	0	118.962	0	-1e10	8	-1e10	8	-1E+10	1	-1E+10	1	-1E+10	1	-1E+10	1	-1E+10	1	-1E+10	1
4902554	88	C	07/16/2023	05:02	-132.602	47.638	0	121.10	0	6.3510	0	33.0540	0	25.973	0	120.053	0	-1e10	8	-1e10	8	-1E+10	1	-1E+10	1	-1E+10	1	-1E+10	1	-1E+10	1	-1E+10	1
4902554	88	C	07/16/2023	05:02	-132.602	47.638	0	121.90	0	6.3390	0	33.0640	0	25.982	0	120.845	0	-1e10	8	-1e10	8	-1E+10	1	-1E+10	1	-1E+10	1	-1E+10	1	-1E+10	1	-1E+10	1
4902554	88	C	07/16/2023	05:02	-132.602	47.638	0	123.00	0	6.3250	0	33.0780	0	25.995	0	121.936	0	-1e10	8	-1e10	8	-1E+10	1	-1E+10	1	-1E+10	1	-1E+10	1	-1E+10	1	-1E+10	1
4902554	88	C	07/16/2023	05:02	-132.602	47.638	0	124.10	0	6.3070	0	33.0910	0	26.007	0	123.026	0	-1e10	8	-1e10	8	-1E+10	1	-1E+10	1	-1E+10	1	-1E+10	1	-1E+10	1	-1E+10	1
4902554	88	C	07/16/2023	05:02	-132.602	47.638	0	124.90	0	6.2960	0	33.1000	0	26.016	0	123.819	0	-1e10	8	-1e10	8	-1E+10	1	-1E+10	1	-1E+10	1	-1E+10	1	-1E+10	1	-1E+10	1
4902554	88	C	07/16/2023	05:02	-132.602	47.638	0	126.00	0	6.2460	0	33.1390	0	26.053	0	124.909	0	-1e10	8	-1e10	8	-1E+10	1	-1E+10	1	-1E+10	1	-1E+10	1	-1E+10	1	-1E+10	1
4902554	88	C	07/16/2023	05:02	-132.602	47.638	0	127.20	0	6.1860	0	33.1790	0	26.092	0	126.098	0	-1e10	8	-1e10	8	-1E+10	1	-1E+10	1	-1E+10	1	-1E+10	1	-1E+10	1	-1E+10	1
4902554	88	C	07/16/2023	05:02	-132.602	47.638	0	128.00	0	6.1750	0	33.1850	0	26.098	0	126.891	0	-1e10	8	-1e10	8	-1E+10	1	-1E+10	1	-1E+10	1	-1E+10	1	-1E+10	1	-1E+10	1
4902554	88	C	07/16/2023	05:02	-132.602	47.638	0	128.90	0	6.1720	0	33.1870	0	26.100	0	127.783	0	-1e10	8	-1e10	8	-1E+10	1	-1E+10	1	-1E+10	1	-1E+10	1	-1E+10	1	-1E+10	1
4902554	88	C	07/16/2023	05:02	-132.602	47.638	0	129.70	0	6.1690	0	33.1880	0	26.101	0	128.575	0	-1e10	8	-1e10	8	-1E+10	1	-1E+10	1	-1E+10	1	-1E+10	1	-1E+10	1	-1E+10	1
4902554	88	C	07/16/2023	05:02	-132.602	47.638	0	130.90	0	6.1510	0	33.2000	0	26.113	0	129.765	0	-1e10	8	-1e10	8	-1E+10	1	-1E+10	1	-1E+10	1	-1E+10	1	-1E+10	1	-1E+10	1
4902554	88	C	07/16/2023	05:02	-132.602	47.638	0	132.40	0	6.1370	0	33.2080	0	26.121	0	131.251	0	-1e10	8	-1e10	8	-1E+10	1	-1E+10	1	-1E+10	1	-1E+10	1	-1E+10	1	-1E+10	1
4902554	88	C	07/16/2023	05:02	-132.602	47.638	0	133.30	0	6.0960	0	33.2370	0	26.149	0	132.143	0	-1e10	8	-1e10	8	-1E+10	1	-1E+10	1	-1E+10	1	-1E+10	1	-1E+10	1	-1E+10	1
4902554	88	C	07/16/2023	05:02	-132.602	47.638	0	134.30	0	6.0510	0	33.2680	0	26.179	0	133.134	0	-1e10	8	-1e10	8	-1E+10	1	-1E+10	1	-1E+10	1	-1E+10	1	-1E+10	1	-1E+10	1
4902554	88	C	07/16/2023	05:02	-132.602	47.638	0	135.30	0	6.0430	0	33.2730	0	26.184	0	134.125	0	-1e10	8	-1e10	8	-1E+10	1	-1E+10	1	-1E+10	1	-1E+10	1	-1E+10	1	-1E+10	1
4902554	88	C	07/16/2023	05:02	-132.602	47.638	0	136.30	0	6.0040	0	33.3030	0	26.213	0	135.116	0	-1e10	8	-1e10	8	-1E+10	1	-1E+10	1	-1E+10	1	-1E+10	1	-1E+10	1	-1E+10	1
4902554	88	C	07/16/2023	05:02	-132.602	47.638	0	137.30	0	6.0020	0	33.3050	0	26.215	0	136.107	0	-1e10	8	-1e10	8	-1E+10	1	-1E+10	1	-1E+10	1	-1E+10	1	-1E+10	1	-1E+10	1
4902554	88	C	07/16/2023	05:02	-132.602	47.638	0	138.30	0	5.9950	0	33.3130	0	26.222	0	137.098	0	-1e10	8	-1e10	8	-1E+10	1	-1E+10	1	-1E+10	1	-1E+10	1	-1E+10	1	-1E+10	1
4902554	88	C	07/16/2023	05:02	-132.602	47.638	0	139.30	0	5.9560	0	33.3380	0	26.246	0	138.089	0	-1e10	8	-1e10	8	-1E+10	1	-1E+10	1	-1E+10	1	-1E+10	1	-1E+10	1	-1E+10	1
4902554	88	C	07/16/2023	05:02	-132.602	47.638	0	140.30	0	5.9500	0	33.3410	0	26.250	0	139.080	0	-1e10	8	-1e10	8	-1E+10	1	-1E+10	1	-1E+10	1	-1E+10	1	-1E+10	1	-1E+10	1
4902554	88	C	07/16/2023	05:02	-132.602	47.638	0	141.40	0	5.9450	0	33.3440	0	26.253	0	140.170	0	-1e10	8	-1e10	8	-1E+10	1	-1E+10	1	-1E+10	1	-1E+10	1	-1E+10	1	-1E+10	1
4902554	88	C	07/16/2023	05:02	-132.602	47.638	0	142.40	0	5.9370	0	33.3490	0	26.258	0	141.161	0	-1e10	8	-1e10	8	-1E+10	1	-1E+10	1	-1E+10	1	-1E+10	1	-1E+10	1	-1E+10	1
4902554	88	C	07/16/2023	05:02	-132.602	47.638	0	143.30	0	5.9360	0	33.3500	0	26.258	0	142.053	0	-1e10	8	-1e10	8	-1E+10	1	-1E+10	1	-1E+10	1	-1E+10	1	-1E+10	1	-1E+10	1
4902554	88	C	07/16/2023	05:02	-132.602	47.638	0	144.30	0	5.9340	0	33.3510	0	26.260	0	143.044	0	-1e10	8	-1e10	8	-1E+10	1	-1E+10	1	-1E+10	1	-1E+10	1	-1E+10	1	-1E+10	1
4902554	88	C	07/16/2023	05:02	-132.602	47.638	0	145.30	0	5.9290	0	33.3570	0	26.265	0	144.035	0	-1e10	8	-1e10	8	-1E+10	1	-1E+10	1	-1E+10	1	-1E+10	1	-1E+10	1	-1E+10	1
4902554	88	C	07/16/2023	05:02	-132.602	47.638	0	146.30	0	5.9120	0	33.3810	0	26.286	0	145.026	0	-1e10	8	-1e10	8	-1E+10	1	-1E+10	1	-1E+10	1	-1E+10	1	-1E+10	1	-1E+10	1
4902554	88	C	07/16/2023	05:02	-132.602	47.638	0	147.30	0	5.9000	0	33.4040	0	26.306	0	146.017	0	-1e10	8	-1e10	8	-1E+10	1	-1E+10	1	-1E+10	1	-1E+10	1	-1E+10	1	-1E+10	1
4902554	88	C	07/16/2023	05:02	-132.602	47.638	0	148.30	0	5.9020	0	33.4100	0	26.310	0	147.008	0	-1e10	8	-1e10	8	-1E+10	1	-1E+10	1	-1E+10	1	-1E+10	1	-1E+10	1	-1E+10	1
4902554	88	C	07/16/2023	05:02	-132.602	47.638	0	149.30	0	5.8910	0	33.4330	0	26.330	0	147.999	0	-1e10	8	-1e10	8	-1E+10	1	-1E+10	1	-1E+10	1	-1E+10	1	-1E+10	1	-1E+10	1
4902554	88	C	07/16/2023	05:02	-132.602	47.638	0	150.40	0	5.8940	0	33.4320	0	26.328	0	149.089	0	-1e10	8	-1e10	8	-1E+10	1	-1E+10	1	-1E+10	1	-1E+10	1	-1E+10	1	-1E+10	1
4902554	88	C	07/16/2023	05:02	-132.602	47.638	0	151.30	0	5.8910	0	33.4380	0	26.334	0	149.980	0	-1e10	8	-1e10	8	-1E+10	1	-1E+10	1	-1E+10	1	-1E+10	1	-1E+10	1	-1E+10	1
4902554	88	C	07/16/2023	05:02	-132.602	47.638	0	152.30	0	5.8830	0	33.4420	0	26.338	0	150.971	0	-1e10	8	-1e10	8	-1E+10	1	-1E+10	1	-1E+10	1	-1E+10	1	-1E+10	1	-1E+10	1
4902554	88	C	07/16/2023	05:02	-132.602	47.638	0	153.30	0	5.8700	0	33.4530	0	26.348	0	151.962	0	-1e10	8	-1e10	8	-1E+10	1	-1E+10	1	-1E+10	1	-1E+10	1	-1E+10	1	-1E+10	1
4902554	88	C	07/16/2023	05:02	-132.602	47.638	0	154.30	0	5.8610	0	33.4600	0	26.355	0	152.953	0	-1e10	8	-1e10	8	-1E+10	1	-1E+10	1	-1E+10	1	-1E+10	1	-1E+10	1	-1E+10	1
4902554	88	C	07/16/2023	05:02	-132.602	47.638	0	155.30	0	5.8410	0	33.4670	0	26.363	0	153.944	0	-1e10	8	-1e10	8	-1E+10	1	-1E+10	1	-1E+10	1	-1E+10	1	-1E+10	1	-1E+10	1
4902554	88	C	07/16/2023	05:02	-132.602	47.638	0	156.20	0	5.8200	0	33.4860	0	26.380	0	154.836	0	-1e10	8	-1e10	8	-1E+10	1	-1E+10	1	-1E+10	1	-1E+10	1	-1E+10	1	-1E+10	1
4902554	88	C	07/16/2023	05:02	-132.602	47.638	0	157.20	0	5.8140	0	33.4950	0	26.388	0	155.827	0	-1e10	8	-1e10	8	-1E+10	1	-1E+10	1	-1E+10	1	-1E+10	1	-1E+10	1	-1E+10	1
4902554	88	C	07/16/2023	05:02	-132.602	47.638	0	158.20	0	5.8120	0	33.4990	0	26.392	0	156.818	0	-1e10	8	-1e10	8	-1E+10	1	-1E+10	1	-1E+10	1	-1E+10	1	-1E+10	1	-1E+10	1
4902554	88	C	07/16/2023	05:02	-132.602	47.638	0	159.20	0	5.8100	0	33.5040	0	26.396	0	157.808	0	-1e10	8	-1e10	8	-1E+10	1	-1E+10	1	-1E+10	1	-1E+10	1	-1E+10	1	-1E+10	1
4902554	88	C	07/16/2023	05:02	-132.602	47.638	0	160.20	0	5.8130	0	33.5180	0	26.406	0	158.799	0	-1e10	8	-1e10	8	-1E+10	1	-1E+10	1	-1E+10	1	-1E+10	1	-1E+10	1	-1E+10	1
4902554	88	C	07/16/2023	05:02	-132.602	47.638	0	161.20	0	5.8110	0	33.5260	0	26.413	0	159.790	0	-1e10	8	-1e10	8	-1E+10	1	-1E+10	1	-1E+10	1	-1E+10	1	-1E+10	1	-1E+10	1
4902554	88	C	07/16/2023	05:02	-132.602	47.638	0	162.10	0	5.8040	0	33.5300	0	26.417	0	160.682	0	-1e10	8	-1e10	8	-1E+10	1	-1E+10	1	-1E+10	1	-1E+10	1	-1E+10	1	-1E+10	1
4902554	88	C	07/16/2023	05:02	-132.602	47.638	0	163.10	0	5.7960	0	33.5310	0	26.419	0	161.673	0	-1e10	8	-1e10	8	-1E+10	1	-1E+10	1	-1E+10	1	-1E+10	1	-1E+10	1	-1E+10	1
4902554	88	C	07/16/2023	05:02	-132.602	47.638	0	164.00	0	5.7900	0	33.5350	0	26.423	0	162.565	0	-1e10	8	-1e10	8	-1E+10	1	-1E+10	1	-1E+10	1	-1E+10	1	-1E+10	1	-1E+10	1
4902554	88	C	07/16/2023	05:02	-132.602	47.638	0	165.00	0	5.7820	0	33.5380	0	26.426	0	163.555	0	-1e10	8	-1e10	8	-1E+10	1	-1E+10	1	-1E+10	1	-1E+10	1	-1E+10	1	-1E+10	1
4902554	88	C	07/16/2023	05:02	-132.602	47.638	0	165.90	0	5.7740	0	33.5430	0	26.431	0	164.447	0	-1e10	8	-1e10	8	-1E+10	1	-1E+10	1	-1E+10	1	-1E+10	1	-1E+10	1	-1E+10	1
4902554	88	C	07/16/2023	05:02	-132.602	47.638	0	166.90	0	5.7650	0	33.5510	0	26.438	0	165.438	0	-1e10	8	-1e10	8	-1E+10	1	-1E+10	1	-1E+10	1	-1E+10	1	-1E+10	1	-1E+10	1
4902554	88	C	07/16/2023	05:02	-132.602	47.638	0	167.80	0	5.7570	0	33.5650	0	26.451	0	166.330	0	-1e10	8	-1e10	8	-1E+10	1	-1E+10	1	-1E+10	1	-1E+10	1	-1E+10	1	-1E+10	1
4902554	88	C	07/16/2023	05:02	-132.602	47.638	0	168.70	0	5.7500	0	33.5680	0	26.454	0	167.222	0	-1e10	8	-1e10	8	-1E+10	1	-1E+10	1	-1E+10	1	-1E+10	1	-1E+10	1	-1E+10	1
4902554	88	C	07/16/2023	05:02	-132.602	47.638	0	169.70	0	5.7500	0	33.5790	0	26.462	0	168.212	0	-1e10	8	-1e10	8	-1E+10	1	-1E+10	1	-1E+10	1	-1E+10	1	-1E+10	1	-1E+10	1
4902554	88	C	07/16/2023	05:02	-132.602	47.638	0	170.60	0	5.7420	0	33.5830	0	26.467	0	169.104	0	-1e10	8	-1e10	8	-1E+10	1	-1E+10	1	-1E+10	1	-1E+10	1	-1E+10	1	-1E+10	1
4902554	88	C	07/16/2023	05:02	-132.602	47.638	0	171.50	0	5.7440	0	33.5870	0	26.470	0	169.996	0	-1e10	8	-1e10	8	-1E+10	1	-1E+10	1	-1E+10	1	-1E+10	1	-1E+10	1	-1E+10	1
4902554	88	C	07/16/2023	05:02	-132.602	47.638	0	172.90	0	5.7330	0	33.5970	0	26.479	0	171.383	0	-1e10	8	-1e10	8	-1E+10	1	-1E+10	1	-1E+10	1	-1E+10	1	-1E+10	1	-1E+10	1
4902554	88	C	07/16/2023	05:02	-132.602	47.638	0	174.40	0	5.7110	0	33.6050	0	26.488	0	172.869	0	-1e10	8	-1e10	8	-1E+10	1	-1E+10	1	-1E+10	1	-1E+10	1	-1E+10	1	-1E+10	1
4902554	88	C	07/16/2023	05:02	-132.602	47.638	0	175.30	0	5.7110	0	33.6120	0	26.493	0	173.761	0	-1e10	8	-1e10	8	-1E+10	1	-1E+10	1	-1E+10	1	-1E+10	1	-1E+10	1	-1E+10	1
4902554	88	C	07/16/2023	05:02	-132.602	47.638	0	176.30	0	5.7150	0	33.6170	0	26.497	0	174.752	0	-1e10	8	-1e10	8	-1E+10	1	-1E+10	1	-1E+10	1	-1E+10	1	-1E+10	1	-1E+10	1
4902554	88	C	07/16/2023	05:02	-132.602	47.638	0	177.20	0	5.7130	0	33.6160	0	26.496	0	175.643	0	-1e10	8	-1e10	8	-1E+10	1	-1E+10	1	-1E+10	1	-1E+10	1	-1E+10	1	-1E+10	1
4902554	88	C	07/16/2023	05:02	-132.602	47.638	0	178.10	0	5.6990	0	33.6260	0	26.506	0	176.535	0	-1e10	8	-1e10	8	-1E+10	1	-1E+10	1	-1E+10	1	-1E+10	1	-1E+10	1	-1E+10	1
4902554	88	C	07/16/2023	05:02	-132.602	47.638	0	179.10	0	5.6920	0	33.6350	0	26.514	0	177.526	0	-1e10	8	-1e10	8	-1E+10	1	-1E+10	1	-1E+10	1	-1E+10	1	-1E+10	1	-1E+10	1
4902554	88	C	07/16/2023	05:02	-132.602	47.638	0	180.00	0	5.6790	0	33.6430	0	26.522	0	178.418	0	-1e10	8	-1e10	8	-1E+10	1	-1E+10	1	-1E+10	1	-1E+10	1	-1E+10	1	-1E+10	1
4902554	88	C	07/16/2023	05:02	-132.602	47.638	0	181.00	0	5.6780	0	33.6540	0	26.531	0	179.408	0	-1e10	8	-1e10	8	-1E+10	1	-1E+10	1	-1E+10	1	-1E+10	1	-1E+10	1	-1E+10	1
4902554	88	C	07/16/2023	05:02	-132.602	47.638	0	181.90	0	5.7060	0	33.6540	0	26.527	0	180.300	0	-1e10	8	-1e10	8	-1E+10	1	-1E+10	1	-1E+10	1	-1E+10	1	-1E+10	1	-1E+10	1
4902554	88	C	07/16/2023	05:02	-132.602	47.638	0	182.90	0	5.7290	0	33.6780	0	26.543	0	181.291	0	-1e10	8	-1e10	8	-1E+10	1	-1E+10	1	-1E+10	1	-1E+10	1	-1E+10	1	-1E+10	1
4902554	88	C	07/16/2023	05:02	-132.602	47.638	0	183.80	0	5.7260	0	33.6840	0	26.549	0	182.183	0	-1e10	8	-1e10	8	-1E+10	1	-1E+10	1	-1E+10	1	-1E+10	1	-1E+10	1	-1E+10	1
4902554	88	C	07/16/2023	05:02	-132.602	47.638	0	185.00	0	5.6960	0	33.6910	0	26.558	0	183.372	0	-1e10	8	-1e10	8	-1E+10	1	-1E+10	1	-1E+10	1	-1E+10	1	-1E+10	1	-1E+10	1
4902554	88	C	07/16/2023	05:02	-132.602	47.638	0	186.20	0	5.7020	0	33.7000	0	26.564	0	184.560	0	-1e10	8	-1e10	8	-1E+10	1	-1E+10	1	-1E+10	1	-1E+10	1	-1E+10	1	-1E+10	1
4902554	88	C	07/16/2023	05:02	-132.602	47.638	0	186.90	0	5.6940	0	33.7020	0	26.567	0	185.254	0	-1e10	8	-1e10	8	-1E+10	1	-1E+10	1	-1E+10	1	-1E+10	1	-1E+10	1	-1E+10	1
4902554	88	C	07/16/2023	05:02	-132.602	47.638	0	188.00	0	5.6630	0	33.6980	0	26.567	0	186.344	0	-1e10	8	-1e10	8	-1E+10	1	-1E+10	1	-1E+10	1	-1E+10	1	-1E+10	1	-1E+10	1
4902554	88	C	07/16/2023	05:02	-132.602	47.638	0	189.20	0	5.6490	0	33.6990	0	26.570	0	187.533	0	-1e10	8	-1e10	8	-1E+10	1	-1E+10	1	-1E+10	1	-1E+10	1	-1E+10	1	-1E+10	1
4902554	88	C	07/16/2023	05:02	-132.602	47.638	0	189.90	0	5.6370	0	33.7000	0	26.572	0	188.226	0	-1e10	8	-1e10	8	-1E+10	1	-1E+10	1	-1E+10	1	-1E+10	1	-1E+10	1	-1E+10	1
4902554	88	C	07/16/2023	05:02	-132.602	47.638	0	190.70	0	5.6360	0	33.7020	0	26.574	0	189.019	0	-1e10	8	-1e10	8	-1E+10	1	-1E+10	1	-1E+10	1	-1E+10	1	-1E+10	1	-1E+10	1
4902554	88	C	07/16/2023	05:02	-132.602	47.638	0	191.90	0	5.6320	0	33.7040	0	26.576	0	190.208	0	-1e10	8	-1e10	8	-1E+10	1	-1E+10	1	-1E+10	1	-1E+10	1	-1E+10	1	-1E+10	1
4902554	88	C	07/16/2023	05:02	-132.602	47.638	0	193.00	0	5.6310	0	33.7080	0	26.579	0	191.297	0	-1e10	8	-1e10	8	-1E+10	1	-1E+10	1	-1E+10	1	-1E+10	1	-1E+10	1	-1E+10	1
4902554	88	C	07/16/2023	05:02	-132.602	47.638	0	193.90	0	5.6340	0	33.7110	0	26.581	0	192.189	0	-1e10	8	-1e10	8	-1E+10	1	-1E+10	1	-1E+10	1	-1E+10	1	-1E+10	1	-1E+10	1
4902554	88	C	07/16/2023	05:02	-132.602	47.638	0	194.70	0	5.6340	0	33.7130	0	26.583	0	192.982	0	-1e10	8	-1e10	8	-1E+10	1	-1E+10	1	-1E+10	1	-1E+10	1	-1E+10	1	-1E+10	1
4902554	88	C	07/16/2023	05:02	-132.602	47.638	0	195.90	0	5.6220	0	33.7210	0	26.591	0	194.170	0	-1e10	8	-1e10	8	-1E+10	1	-1E+10	1	-1E+10	1	-1E+10	1	-1E+10	1	-1E+10	1
4902554	88	C	07/16/2023	05:02	-132.602	47.638	0	197.10	0	5.6120	0	33.7230	0	26.593	0	195.359	0	-1e10	8	-1e10	8	-1E+10	1	-1E+10	1	-1E+10	1	-1E+10	1	-1E+10	1	-1E+10	1
4902554	88	C	07/16/2023	05:02	-132.602	47.638	0	198.00	0	5.6070	0	33.7230	0	26.594	0	196.251	0	-1e10	8	-1e10	8	-1E+10	1	-1E+10	1	-1E+10	1	-1E+10	1	-1E+10	1	-1E+10	1
4902554	88	C	07/16/2023	05:02	-132.602	47.638	0	198.80	0	5.6070	0	33.7230	0	26.594	0	197.043	0	-1e10	8	-1e10	8	-1E+10	1	-1E+10	1	-1E+10	1	-1E+10	1	-1E+10	1	-1E+10	1
4902554	88	C	07/16/2023	05:02	-132.602	47.638	0	199.60	0	5.6070	0	33.7230	0	26.594	0	197.836	0	-1e10	8	-1e10	8	-1E+10	1	-1E+10	1	-1E+10	1	-1E+10	1	-1E+10	1	-1E+10	1
4902554	88	C	07/16/2023	05:02	-132.602	47.638	0	200.90	0	5.6010	0	33.7230	0	26.595	0	199.124	0	-1e10	8	-1e10	8	-1E+10	1	-1E+10	1	-1E+10	1	-1E+10	1	-1E+10	1	-1E+10	1
4902554	88	C	07/16/2023	05:02	-132.602	47.638	0	202.10	0	5.5930	0	33.7240	0	26.596	0	200.313	0	-1e10	8	-1e10	8	-1E+10	1	-1E+10	1	-1E+10	1	-1E+10	1	-1E+10	1	-1E+10	1
4902554	88	C	07/16/2023	05:02	-132.602	47.638	0	203.00	0	5.5860	0	33.7250	0	26.598	0	201.204	0	-1e10	8	-1e10	8	-1E+10	1	-1E+10	1	-1E+10	1	-1E+10	1	-1E+10	1	-1E+10	1
4902554	88	C	07/16/2023	05:02	-132.602	47.638	0	203.80	0	5.5730	0	33.7300	0	26.604	0	201.997	0	-1e10	8	-1e10	8	-1E+10	1	-1E+10	1	-1E+10	1	-1E+10	1	-1E+10	1	-1E+10	1
4902554	88	C	07/16/2023	05:02	-132.602	47.638	0	204.60	0	5.5520	0	33.7310	0	26.607	0	202.789	0	-1e10	8	-1e10	8	-1E+10	1	-1E+10	1	-1E+10	1	-1E+10	1	-1E+10	1	-1E+10	1
4902554	88	C	07/16/2023	05:02	-132.602	47.638	0	205.90	0	5.5400	0	33.7320	0	26.609	0	204.077	0	-1e10	8	-1e10	8	-1E+10	1	-1E+10	1	-1E+10	1	-1E+10	1	-1E+10	1	-1E+10	1
4902554	88	C	07/16/2023	05:02	-132.602	47.638	0	207.10	0	5.5070	0	33.7370	0	26.617	0	205.266	0	-1e10	8	-1e10	8	-1E+10	1	-1E+10	1	-1E+10	1	-1E+10	1	-1E+10	1	-1E+10	1
4902554	88	C	07/16/2023	05:02	-132.602	47.638	0	208.00	0	5.5060	0	33.7370	0	26.617	0	206.158	0	-1e10	8	-1e10	8	-1E+10	1	-1E+10	1	-1E+10	1	-1E+10	1	-1E+10	1	-1E+10	1
4902554	88	C	07/16/2023	05:02	-132.602	47.638	0	208.80	0	5.5050	0	33.7370	0	26.617	0	206.950	0	-1e10	8	-1e10	8	-1E+10	1	-1E+10	1	-1E+10	1	-1E+10	1	-1E+10	1	-1E+10	1
4902554	88	C	07/16/2023	05:02	-132.602	47.638	0	209.60	0	5.5020	0	33.7380	0	26.618	0	207.743	0	-1e10	8	-1e10	8	-1E+10	1	-1E+10	1	-1E+10	1	-1E+10	1	-1E+10	1	-1E+10	1
4902554	88	C	07/16/2023	05:02	-132.602	47.638	0	210.90	0	5.4910	0	33.7380	0	26.620	0	209.030	0	-1e10	8	-1e10	8	-1E+10	1	-1E+10	1	-1E+10	1	-1E+10	1	-1E+10	1	-1E+10	1
4902554	88	C	07/16/2023	05:02	-132.602	47.638	0	212.20	0	5.4870	0	33.7390	0	26.621	0	210.318	0	-1e10	8	-1e10	8	-1E+10	1	-1E+10	1	-1E+10	1	-1E+10	1	-1E+10	1	-1E+10	1
4902554	88	C	07/16/2023	05:02	-132.602	47.638	0	213.00	0	5.4850	0	33.7390	0	26.621	0	211.111	0	-1e10	8	-1e10	8	-1E+10	1	-1E+10	1	-1E+10	1	-1E+10	1	-1E+10	1	-1E+10	1
4902554	88	C	07/16/2023	05:02	-132.602	47.638	0	213.80	0	5.4840	0	33.7390	0	26.621	0	211.903	0	-1e10	8	-1e10	8	-1E+10	1	-1E+10	1	-1E+10	1	-1E+10	1	-1E+10	1	-1E+10	1
4902554	88	C	07/16/2023	05:02	-132.602	47.638	0	214.70	0	5.4820	0	33.7390	0	26.622	0	212.795	0	-1e10	8	-1e10	8	-1E+10	1	-1E+10	1	-1E+10	1	-1E+10	1	-1E+10	1	-1E+10	1
4902554	88	C	07/16/2023	05:02	-132.602	47.638	0	215.90	0	5.4740	0	33.7400	0	26.623	0	213.984	0	-1e10	8	-1e10	8	-1E+10	1	-1E+10	1	-1E+10	1	-1E+10	1	-1E+10	1	-1E+10	1
4902554	88	C	07/16/2023	05:02	-132.602	47.638	0	217.20	0	5.4630	0	33.7410	0	26.626	0	215.271	0	-1e10	8	-1e10	8	-1E+10	1	-1E+10	1	-1E+10	1	-1E+10	1	-1E+10	1	-1E+10	1
4902554	88	C	07/16/2023	05:02	-132.602	47.638	0	218.10	0	5.4460	0	33.7470	0	26.632	0	216.163	0	-1e10	8	-1e10	8	-1E+10	1	-1E+10	1	-1E+10	1	-1E+10	1	-1E+10	1	-1E+10	1
4902554	88	C	07/16/2023	05:02	-132.602	47.638	0	219.00	0	5.4170	0	33.7500	0	26.638	0	217.054	0	-1e10	8	-1e10	8	-1E+10	1	-1E+10	1	-1E+10	1	-1E+10	1	-1E+10	1	-1E+10	1
4902554	88	C	07/16/2023	05:02	-132.602	47.638	0	219.90	0	5.4100	0	33.7500	0	26.639	0	217.946	0	-1e10	8	-1e10	8	-1E+10	1	-1E+10	1	-1E+10	1	-1E+10	1	-1E+10	1	-1E+10	1
4902554	88	C	07/16/2023	05:02	-132.602	47.638	0	220.80	0	5.4050	0	33.7500	0	26.640	0	218.837	0	-1e10	8	-1e10	8	-1E+10	1	-1E+10	1	-1E+10	1	-1E+10	1	-1E+10	1	-1E+10	1
4902554	88	C	07/16/2023	05:02	-132.602	47.638	0	221.60	0	5.3990	0	33.7500	0	26.640	0	219.630	0	-1e10	8	-1e10	8	-1E+10	1	-1E+10	1	-1E+10	1	-1E+10	1	-1E+10	1	-1E+10	1
4902554	88	C	07/16/2023	05:02	-132.602	47.638	0	222.90	0	5.3850	0	33.7500	0	26.642	0	220.918	0	-1e10	8	-1e10	8	-1E+10	1	-1E+10	1	-1E+10	1	-1E+10	1	-1E+10	1	-1E+10	1
4902554	88	C	07/16/2023	05:02	-132.602	47.638	0	224.30	0	5.3580	0	33.7530	0	26.647	0	222.304	0	-1e10	8	-1e10	8	-1E+10	1	-1E+10	1	-1E+10	1	-1E+10	1	-1E+10	1	-1E+10	1
4902554	88	C	07/16/2023	05:02	-132.602	47.638	0	225.20	0	5.3320	0	33.7570	0	26.654	0	223.196	0	-1e10	8	-1e10	8	-1E+10	1	-1E+10	1	-1E+10	1	-1E+10	1	-1E+10	1	-1E+10	1
4902554	88	C	07/16/2023	05:02	-132.602	47.638	0	226.10	0	5.3130	0	33.7560	0	26.655	0	224.087	0	-1e10	8	-1e10	8	-1E+10	1	-1E+10	1	-1E+10	1	-1E+10	1	-1E+10	1	-1E+10	1
4902554	88	C	07/16/2023	05:02	-132.602	47.638	0	227.00	0	5.3080	0	33.7560	0	26.656	0	224.979	0	-1e10	8	-1e10	8	-1E+10	1	-1E+10	1	-1E+10	1	-1E+10	1	-1E+10	1	-1E+10	1
4902554	88	C	07/16/2023	05:02	-132.602	47.638	0	227.90	0	5.3000	0	33.7570	0	26.657	0	225.870	0	-1e10	8	-1e10	8	-1E+10	1	-1E+10	1	-1E+10	1	-1E+10	1	-1E+10	1	-1E+10	1
4902554	88	C	07/16/2023	05:02	-132.602	47.638	0	228.80	0	5.2920	0	33.7570	0	26.658	0	226.762	0	-1e10	8	-1e10	8	-1E+10	1	-1E+10	1	-1E+10	1	-1E+10	1	-1E+10	1	-1E+10	1
4902554	88	C	07/16/2023	05:02	-132.602	47.638	0	229.60	0	5.2760	0	33.7580	0	26.661	0	227.554	0	-1e10	8	-1e10	8	-1E+10	1	-1E+10	1	-1E+10	1	-1E+10	1	-1E+10	1	-1E+10	1
4902554	88	C	07/16/2023	05:02	-132.602	47.638	0	230.90	0	5.2620	0	33.7590	0	26.663	0	228.842	0	-1e10	8	-1e10	8	-1E+10	1	-1E+10	1	-1E+10	1	-1E+10	1	-1E+10	1	-1E+10	1
4902554	88	C	07/16/2023	05:02	-132.602	47.638	0	232.30	0	5.2430	0	33.7620	0	26.668	0	230.229	0	-1e10	8	-1e10	8	-1E+10	1	-1E+10	1	-1E+10	1	-1E+10	1	-1E+10	1	-1E+10	1
4902554	88	C	07/16/2023	05:02	-132.602	47.638	0	233.20	0	5.2110	0	33.7640	0	26.673	0	231.120	0	-1e10	8	-1e10	8	-1E+10	1	-1E+10	1	-1E+10	1	-1E+10	1	-1E+10	1	-1E+10	1
4902554	88	C	07/16/2023	05:02	-132.602	47.638	0	234.20	0	5.2070	0	33.7640	0	26.674	0	232.111	0	-1e10	8	-1e10	8	-1E+10	1	-1E+10	1	-1E+10	1	-1E+10	1	-1E+10	1	-1E+10	1
4902554	88	C	07/16/2023	05:02	-132.602	47.638	0	235.10	0	5.2040	0	33.7640	0	26.674	0	233.002	0	-1e10	8	-1e10	8	-1E+10	1	-1E+10	1	-1E+10	1	-1E+10	1	-1E+10	1	-1E+10	1
4902554	88	C	07/16/2023	05:02	-132.602	47.638	0	236.00	0	5.2040	0	33.7640	0	26.674	0	233.894	0	-1e10	8	-1e10	8	-1E+10	1	-1E+10	1	-1E+10	1	-1E+10	1	-1E+10	1	-1E+10	1
4902554	88	C	07/16/2023	05:02	-132.602	47.638	0	236.90	0	5.1940	0	33.7650	0	26.676	0	234.785	0	-1e10	8	-1e10	8	-1E+10	1	-1E+10	1	-1E+10	1	-1E+10	1	-1E+10	1	-1E+10	1
4902554	88	C	07/16/2023	05:02	-132.602	47.638	0	237.80	0	5.1900	0	33.7640	0	26.676	0	235.677	0	-1e10	8	-1e10	8	-1E+10	1	-1E+10	1	-1E+10	1	-1E+10	1	-1E+10	1	-1E+10	1
4902554	88	C	07/16/2023	05:02	-132.602	47.638	0	238.80	0	5.1810	0	33.7640	0	26.677	0	236.667	0	-1e10	8	-1e10	8	-1E+10	1	-1E+10	1	-1E+10	1	-1E+10	1	-1E+10	1	-1E+10	1
4902554	88	C	07/16/2023	05:02	-132.602	47.638	0	239.70	0	5.1560	0	33.7680	0	26.683	0	237.559	0	-1e10	8	-1e10	8	-1E+10	1	-1E+10	1	-1E+10	1	-1E+10	1	-1E+10	1	-1E+10	1
4902554	88	C	07/16/2023	05:02	-132.602	47.638	0	240.60	0	5.1420	0	33.7690	0	26.685	0	238.450	0	-1e10	8	-1e10	8	-1E+10	1	-1E+10	1	-1E+10	1	-1E+10	1	-1E+10	1	-1E+10	1
4902554	88	C	07/16/2023	05:02	-132.602	47.638	0	241.60	0	5.1210	0	33.7700	0	26.689	0	239.441	0	-1e10	8	-1e10	8	-1E+10	1	-1E+10	1	-1E+10	1	-1E+10	1	-1E+10	1	-1E+10	1
4902554	88	C	07/16/2023	05:02	-132.602	47.638	0	242.50	0	5.1150	0	33.7710	0	26.690	0	240.332	0	-1e10	8	-1e10	8	-1E+10	1	-1E+10	1	-1E+10	1	-1E+10	1	-1E+10	1	-1E+10	1
4902554	88	C	07/16/2023	05:02	-132.602	47.638	0	243.90	0	5.1060	0	33.7710	0	26.691	0	241.719	0	-1e10	8	-1e10	8	-1E+10	1	-1E+10	1	-1E+10	1	-1E+10	1	-1E+10	1	-1E+10	1
4902554	88	C	07/16/2023	05:02	-132.602	47.638	0	245.40	0	5.0980	0	33.7710	0	26.692	0	243.204	0	-1e10	8	-1e10	8	-1E+10	1	-1E+10	1	-1E+10	1	-1E+10	1	-1E+10	1	-1E+10	1
4902554	88	C	07/16/2023	05:02	-132.602	47.638	0	246.40	0	5.0920	0	33.7700	0	26.692	0	244.195	0	-1e10	8	-1e10	8	-1E+10	1	-1E+10	1	-1E+10	1	-1E+10	1	-1E+10	1	-1E+10	1
4902554	88	C	07/16/2023	05:02	-132.602	47.638	0	247.40	0	5.0570	0	33.7760	0	26.701	0	245.185	0	-1e10	8	-1e10	8	-1E+10	1	-1E+10	1	-1E+10	1	-1E+10	1	-1E+10	1	-1E+10	1
4902554	88	C	07/16/2023	05:02	-132.602	47.638	0	248.30	0	5.0020	0	33.7810	0	26.711	0	246.077	0	-1e10	8	-1e10	8	-1E+10	1	-1E+10	1	-1E+10	1	-1E+10	1	-1E+10	1	-1E+10	1
4902554	88	C	07/16/2023	05:02	-132.602	47.638	0	249.30	0	4.9870	0	33.7800	0	26.712	0	247.067	0	-1e10	8	-1e10	8	-1E+10	1	-1E+10	1	-1E+10	1	-1E+10	1	-1E+10	1	-1E+10	1
4902554	88	C	07/16/2023	05:02	-132.602	47.638	0	250.30	0	4.9830	0	33.7830	0	26.715	0	248.058	0	-1e10	8	-1e10	8	-1E+10	1	-1E+10	1	-1E+10	1	-1E+10	1	-1E+10	1	-1E+10	1
4902554	88	C	07/16/2023	05:02	-132.602	47.638	0	251.30	0	4.9780	0	33.7830	0	26.715	0	249.048	0	-1e10	8	-1e10	8	-1E+10	1	-1E+10	1	-1E+10	1	-1E+10	1	-1E+10	1	-1E+10	1
4902554	88	C	07/16/2023	05:02	-132.602	47.638	0	252.30	0	4.9680	0	33.7820	0	26.716	0	250.038	0	-1e10	8	-1e10	8	-1E+10	1	-1E+10	1	-1E+10	1	-1E+10	1	-1E+10	1	-1E+10	1
4902554	88	C	07/16/2023	05:02	-132.602	47.638	0	253.30	0	4.9570	0	33.7840	0	26.718	0	251.029	0	-1e10	8	-1e10	8	-1E+10	1	-1E+10	1	-1E+10	1	-1E+10	1	-1E+10	1	-1E+10	1
4902554	88	C	07/16/2023	05:02	-132.602	47.638	0	254.30	0	4.9540	0	33.7840	0	26.719	0	252.019	0	-1e10	8	-1e10	8	-1E+10	1	-1E+10	1	-1E+10	1	-1E+10	1	-1E+10	1	-1E+10	1
4902554	88	C	07/16/2023	05:02	-132.602	47.638	0	255.30	0	4.9510	0	33.7840	0	26.719	0	253.010	0	-1e10	8	-1e10	8	-1E+10	1	-1E+10	1	-1E+10	1	-1E+10	1	-1E+10	1	-1E+10	1
4902554	88	C	07/16/2023	05:02	-132.602	47.638	0	256.30	0	4.9480	0	33.7850	0	26.720	0	254.000	0	-1e10	8	-1e10	8	-1E+10	1	-1E+10	1	-1E+10	1	-1E+10	1	-1E+10	1	-1E+10	1
4902554	88	C	07/16/2023	05:02	-132.602	47.638	0	257.30	0	4.9480	0	33.7850	0	26.720	0	254.991	0	-1e10	8	-1e10	8	-1E+10	1	-1E+10	1	-1E+10	1	-1E+10	1	-1E+10	1	-1E+10	1
4902554	88	C	07/16/2023	05:02	-132.602	47.638	0	258.30	0	4.9430	0	33.7860	0	26.722	0	255.981	0	-1e10	8	-1e10	8	-1E+10	1	-1E+10	1	-1E+10	1	-1E+10	1	-1E+10	1	-1E+10	1
4902554	88	C	07/16/2023	05:02	-132.602	47.638	0	259.30	0	4.9350	0	33.7870	0	26.723	0	256.971	0	-1e10	8	-1e10	8	-1E+10	1	-1E+10	1	-1E+10	1	-1E+10	1	-1E+10	1	-1E+10	1
4902554	88	C	07/16/2023	05:02	-132.602	47.638	0	260.30	0	4.9330	0	33.7880	0	26.724	0	257.962	0	-1e10	8	-1e10	8	-1E+10	1	-1E+10	1	-1E+10	1	-1E+10	1	-1E+10	1	-1E+10	1
4902554	88	C	07/16/2023	05:02	-132.602	47.638	0	261.30	0	4.9300	0	33.7890	0	26.725	0	258.952	0	-1e10	8	-1e10	8	-1E+10	1	-1E+10	1	-1E+10	1	-1E+10	1	-1E+10	1	-1E+10	1
4902554	88	C	07/16/2023	05:02	-132.602	47.638	0	262.30	0	4.9300	0	33.7890	0	26.725	0	259.942	0	-1e10	8	-1e10	8	-1E+10	1	-1E+10	1	-1E+10	1	-1E+10	1	-1E+10	1	-1E+10	1
4902554	88	C	07/16/2023	05:02	-132.602	47.638	0	263.40	0	4.9290	0	33.7890	0	26.726	0	261.032	0	-1e10	8	-1e10	8	-1E+10	1	-1E+10	1	-1E+10	1	-1E+10	1	-1E+10	1	-1E+10	1
4902554	88	C	07/16/2023	05:02	-132.602	47.638	0	264.40	0	4.9250	0	33.7900	0	26.727	0	262.022	0	-1e10	8	-1e10	8	-1E+10	1	-1E+10	1	-1E+10	1	-1E+10	1	-1E+10	1	-1E+10	1
4902554	88	C	07/16/2023	05:02	-132.602	47.638	0	265.40	0	4.9180	0	33.7930	0	26.730	0	263.013	0	-1e10	8	-1e10	8	-1E+10	1	-1E+10	1	-1E+10	1	-1E+10	1	-1E+10	1	-1E+10	1
4902554	88	C	07/16/2023	05:02	-132.602	47.638	0	266.40	0	4.9090	0	33.7930	0	26.731	0	264.003	0	-1e10	8	-1e10	8	-1E+10	1	-1E+10	1	-1E+10	1	-1E+10	1	-1E+10	1	-1E+10	1
4902554	88	C	07/16/2023	05:02	-132.602	47.638	0	267.40	0	4.9030	0	33.7940	0	26.733	0	264.993	0	-1e10	8	-1e10	8	-1E+10	1	-1E+10	1	-1E+10	1	-1E+10	1	-1E+10	1	-1E+10	1
4902554	88	C	07/16/2023	05:02	-132.602	47.638	0	268.50	0	4.9010	0	33.7950	0	26.734	0	266.083	0	-1e10	8	-1e10	8	-1E+10	1	-1E+10	1	-1E+10	1	-1E+10	1	-1E+10	1	-1E+10	1
4902554	88	C	07/16/2023	05:02	-132.602	47.638	0	269.50	0	4.8960	0	33.7970	0	26.736	0	267.073	0	-1e10	8	-1e10	8	-1E+10	1	-1E+10	1	-1E+10	1	-1E+10	1	-1E+10	1	-1E+10	1
4902554	88	C	07/16/2023	05:02	-132.602	47.638	0	270.60	0	4.8910	0	33.7980	0	26.737	0	268.163	0	-1e10	8	-1e10	8	-1E+10	1	-1E+10	1	-1E+10	1	-1E+10	1	-1E+10	1	-1E+10	1
4902554	88	C	07/16/2023	05:02	-132.602	47.638	0	271.60	0	4.8770	0	33.8010	0	26.741	0	269.153	0	-1e10	8	-1e10	8	-1E+10	1	-1E+10	1	-1E+10	1	-1E+10	1	-1E+10	1	-1E+10	1
4902554	88	C	07/16/2023	05:02	-132.602	47.638	0	272.70	0	4.8660	0	33.8020	0	26.743	0	270.242	0	-1e10	8	-1e10	8	-1E+10	1	-1E+10	1	-1E+10	1	-1E+10	1	-1E+10	1	-1E+10	1
4902554	88	C	07/16/2023	05:02	-132.602	47.638	0	273.80	0	4.8550	0	33.8040	0	26.746	0	271.332	0	-1e10	8	-1e10	8	-1E+10	1	-1E+10	1	-1E+10	1	-1E+10	1	-1E+10	1	-1E+10	1
4902554	88	C	07/16/2023	05:02	-132.602	47.638	0	274.80	0	4.8390	0	33.8080	0	26.751	0	272.322	0	-1e10	8	-1e10	8	-1E+10	1	-1E+10	1	-1E+10	1	-1E+10	1	-1E+10	1	-1E+10	1
4902554	88	C	07/16/2023	05:02	-132.602	47.638	0	275.90	0	4.8320	0	33.8080	0	26.752	0	273.411	0	-1e10	8	-1e10	8	-1E+10	1	-1E+10	1	-1E+10	1	-1E+10	1	-1E+10	1	-1E+10	1
4902554	88	C	07/16/2023	05:02	-132.602	47.638	0	277.00	0	4.8280	0	33.8090	0	26.753	0	274.501	0	-1e10	8	-1e10	8	-1E+10	1	-1E+10	1	-1E+10	1	-1E+10	1	-1E+10	1	-1E+10	1
4902554	88	C	07/16/2023	05:02	-132.602	47.638	0	278.00	0	4.8230	0	33.8090	0	26.753	0	275.491	0	-1e10	8	-1e10	8	-1E+10	1	-1E+10	1	-1E+10	1	-1E+10	1	-1E+10	1	-1E+10	1
4902554	88	C	07/16/2023	05:02	-132.602	47.638	0	279.10	0	4.8210	0	33.8100	0	26.754	0	276.580	0	-1e10	8	-1e10	8	-1E+10	1	-1E+10	1	-1E+10	1	-1E+10	1	-1E+10	1	-1E+10	1
4902554	88	C	07/16/2023	05:02	-132.602	47.638	0	280.20	0	4.8190	0	33.8100	0	26.755	0	277.670	0	-1e10	8	-1e10	8	-1E+10	1	-1E+10	1	-1E+10	1	-1E+10	1	-1E+10	1	-1E+10	1
4902554	88	C	07/16/2023	05:02	-132.602	47.638	0	281.20	0	4.8130	0	33.8110	0	26.756	0	278.660	0	-1e10	8	-1e10	8	-1E+10	1	-1E+10	1	-1E+10	1	-1E+10	1	-1E+10	1	-1E+10	1
4902554	88	C	07/16/2023	05:02	-132.602	47.638	0	282.30	0	4.8060	0	33.8120	0	26.758	0	279.749	0	-1e10	8	-1e10	8	-1E+10	1	-1E+10	1	-1E+10	1	-1E+10	1	-1E+10	1	-1E+10	1
4902554	88	C	07/16/2023	05:02	-132.602	47.638	0	283.40	0	4.7960	0	33.8140	0	26.760	0	280.839	0	-1e10	8	-1e10	8	-1E+10	1	-1E+10	1	-1E+10	1	-1E+10	1	-1E+10	1	-1E+10	1
4902554	88	C	07/16/2023	05:02	-132.602	47.638	0	284.50	0	4.7870	0	33.8150	0	26.762	0	281.928	0	-1e10	8	-1e10	8	-1E+10	1	-1E+10	1	-1E+10	1	-1E+10	1	-1E+10	1	-1E+10	1
4902554	88	C	07/16/2023	05:02	-132.602	47.638	0	285.50	0	4.7840	0	33.8160	0	26.763	0	282.918	0	-1e10	8	-1e10	8	-1E+10	1	-1E+10	1	-1E+10	1	-1E+10	1	-1E+10	1	-1E+10	1
4902554	88	C	07/16/2023	05:02	-132.602	47.638	0	286.60	0	4.7730	0	33.8190	0	26.767	0	284.007	0	-1e10	8	-1e10	8	-1E+10	1	-1E+10	1	-1E+10	1	-1E+10	1	-1E+10	1	-1E+10	1
4902554	88	C	07/16/2023	05:02	-132.602	47.638	0	287.70	0	4.7600	0	33.8210	0	26.770	0	285.097	0	-1e10	8	-1e10	8	-1E+10	1	-1E+10	1	-1E+10	1	-1E+10	1	-1E+10	1	-1E+10	1
4902554	88	C	07/16/2023	05:02	-132.602	47.638	0	288.80	0	4.7570	0	33.8210	0	26.770	0	286.186	0	-1e10	8	-1e10	8	-1E+10	1	-1E+10	1	-1E+10	1	-1E+10	1	-1E+10	1	-1E+10	1
4902554	88	C	07/16/2023	05:02	-132.602	47.638	0	289.90	0	4.7560	0	33.8210	0	26.770	0	287.275	0	-1e10	8	-1e10	8	-1E+10	1	-1E+10	1	-1E+10	1	-1E+10	1	-1E+10	1	-1E+10	1
4902554	88	C	07/16/2023	05:02	-132.602	47.638	0	291.10	0	4.7550	0	33.8210	0	26.771	0	288.464	0	-1e10	8	-1e10	8	-1E+10	1	-1E+10	1	-1E+10	1	-1E+10	1	-1E+10	1	-1E+10	1
4902554	88	C	07/16/2023	05:02	-132.602	47.638	0	292.20	0	4.7410	0	33.8260	0	26.776	0	289.553	0	-1e10	8	-1e10	8	-1E+10	1	-1E+10	1	-1E+10	1	-1E+10	1	-1E+10	1	-1E+10	1
4902554	88	C	07/16/2023	05:02	-132.602	47.638	0	293.30	0	4.7360	0	33.8270	0	26.777	0	290.642	0	-1e10	8	-1e10	8	-1E+10	1	-1E+10	1	-1E+10	1	-1E+10	1	-1E+10	1	-1E+10	1
4902554	88	C	07/16/2023	05:02	-132.602	47.638	0	294.40	0	4.7350	0	33.8280	0	26.778	0	291.731	0	-1e10	8	-1e10	8	-1E+10	1	-1E+10	1	-1E+10	1	-1E+10	1	-1E+10	1	-1E+10	1
4902554	88	C	07/16/2023	05:02	-132.602	47.638	0	295.50	0	4.7270	0	33.8290	0	26.780	0	292.821	0	-1e10	8	-1e10	8	-1E+10	1	-1E+10	1	-1E+10	1	-1E+10	1	-1E+10	1	-1E+10	1
4902554	88	C	07/16/2023	05:02	-132.602	47.638	0	296.60	0	4.7200	0	33.8300	0	26.782	0	293.910	0	-1e10	8	-1e10	8	-1E+10	1	-1E+10	1	-1E+10	1	-1E+10	1	-1E+10	1	-1E+10	1
4902554	88	C	07/16/2023	05:02	-132.602	47.638	0	297.70	0	4.7170	0	33.8310	0	26.783	0	294.999	0	-1e10	8	-1e10	8	-1E+10	1	-1E+10	1	-1E+10	1	-1E+10	1	-1E+10	1	-1E+10	1
4902554	88	C	07/16/2023	05:02	-132.602	47.638	0	298.80	0	4.7080	0	33.8350	0	26.787	0	296.088	0	-1e10	8	-1e10	8	-1E+10	1	-1E+10	1	-1E+10	1	-1E+10	1	-1E+10	1	-1E+10	1
4902554	88	C	07/16/2023	05:02	-132.602	47.638	0	299.90	0	4.7030	0	33.8360	0	26.788	0	297.178	0	-1e10	8	-1e10	8	-1E+10	1	-1E+10	1	-1E+10	1	-1E+10	1	-1E+10	1	-1E+10	1
4902554	88	C	07/16/2023	05:02	-132.602	47.638	0	301.00	0	4.7000	0	33.8370	0	26.789	0	298.267	0	-1e10	8	-1e10	8	-1E+10	1	-1E+10	1	-1E+10	1	-1E+10	1	-1E+10	1	-1E+10	1
4902554	88	C	07/16/2023	05:02	-132.602	47.638	0	302.10	0	4.6980	0	33.8370	0	26.790	0	299.356	0	-1e10	8	-1e10	8	-1E+10	1	-1E+10	1	-1E+10	1	-1E+10	1	-1E+10	1	-1E+10	1
4902554	88	C	07/16/2023	05:02	-132.602	47.638	0	303.30	0	4.6950	0	33.8370	0	26.790	0	300.544	0	-1e10	8	-1e10	8	-1E+10	1	-1E+10	1	-1E+10	1	-1E+10	1	-1E+10	1	-1E+10	1
4902554	88	C	07/16/2023	05:02	-132.602	47.638	0	304.40	0	4.6890	0	33.8370	0	26.791	0	301.633	0	-1e10	8	-1e10	8	-1E+10	1	-1E+10	1	-1E+10	1	-1E+10	1	-1E+10	1	-1E+10	1
4902554	88	C	07/16/2023	05:02	-132.602	47.638	0	305.50	0	4.6820	0	33.8390	0	26.793	0	302.723	0	-1e10	8	-1e10	8	-1E+10	1	-1E+10	1	-1E+10	1	-1E+10	1	-1E+10	1	-1E+10	1
4902554	88	C	07/16/2023	05:02	-132.602	47.638	0	306.60	0	4.6680	0	33.8410	0	26.796	0	303.812	0	-1e10	8	-1e10	8	-1E+10	1	-1E+10	1	-1E+10	1	-1E+10	1	-1E+10	1	-1E+10	1
4902554	88	C	07/16/2023	05:02	-132.602	47.638	0	307.70	0	4.6510	0	33.8430	0	26.800	0	304.901	0	-1e10	8	-1e10	8	-1E+10	1	-1E+10	1	-1E+10	1	-1E+10	1	-1E+10	1	-1E+10	1
4902554	88	C	07/16/2023	05:02	-132.602	47.638	0	308.80	0	4.6440	0	33.8440	0	26.801	0	305.990	0	-1e10	8	-1e10	8	-1E+10	1	-1E+10	1	-1E+10	1	-1E+10	1	-1E+10	1	-1E+10	1
4902554	88	C	07/16/2023	05:02	-132.602	47.638	0	309.90	0	4.6290	0	33.8460	0	26.804	0	307.079	0	-1e10	8	-1e10	8	-1E+10	1	-1E+10	1	-1E+10	1	-1E+10	1	-1E+10	1	-1E+10	1
4902554	88	C	07/16/2023	05:02	-132.602	47.638	0	311.00	0	4.6260	0	33.8460	0	26.805	0	308.169	0	-1e10	8	-1e10	8	-1E+10	1	-1E+10	1	-1E+10	1	-1E+10	1	-1E+10	1	-1E+10	1
4902554	88	C	07/16/2023	05:02	-132.602	47.638	0	312.10	0	4.6050	0	33.8510	0	26.811	0	309.258	0	-1e10	8	-1e10	8	-1E+10	1	-1E+10	1	-1E+10	1	-1E+10	1	-1E+10	1	-1E+10	1
4902554	88	C	07/16/2023	05:02	-132.602	47.638	0	313.30	0	4.6020	0	33.8490	0	26.810	0	310.446	0	-1e10	8	-1e10	8	-1E+10	1	-1E+10	1	-1E+10	1	-1E+10	1	-1E+10	1	-1E+10	1
4902554	88	C	07/16/2023	05:02	-132.602	47.638	0	314.30	0	4.5960	0	33.8500	0	26.811	0	311.436	0	-1e10	8	-1e10	8	-1E+10	1	-1E+10	1	-1E+10	1	-1E+10	1	-1E+10	1	-1E+10	1
4902554	88	C	07/16/2023	05:02	-132.602	47.638	0	315.40	0	4.5910	0	33.8510	0	26.813	0	312.525	0	-1e10	8	-1e10	8	-1E+10	1	-1E+10	1	-1E+10	1	-1E+10	1	-1E+10	1	-1E+10	1
4902554	88	C	07/16/2023	05:02	-132.602	47.638	0	316.60	0	4.5830	0	33.8510	0	26.813	0	313.713	0	-1e10	8	-1e10	8	-1E+10	1	-1E+10	1	-1E+10	1	-1E+10	1	-1E+10	1	-1E+10	1
4902554	88	C	07/16/2023	05:02	-132.602	47.638	0	317.70	0	4.5770	0	33.8520	0	26.815	0	314.802	0	-1e10	8	-1e10	8	-1E+10	1	-1E+10	1	-1E+10	1	-1E+10	1	-1E+10	1	-1E+10	1
4902554	88	C	07/16/2023	05:02	-132.602	47.638	0	318.80	0	4.5730	0	33.8530	0	26.816	0	315.892	0	-1e10	8	-1e10	8	-1E+10	1	-1E+10	1	-1E+10	1	-1E+10	1	-1E+10	1	-1E+10	1
4902554	88	C	07/16/2023	05:02	-132.602	47.638	0	319.90	0	4.5700	0	33.8530	0	26.816	0	316.981	0	-1e10	8	-1e10	8	-1E+10	1	-1E+10	1	-1E+10	1	-1E+10	1	-1E+10	1	-1E+10	1
4902554	88	C	07/16/2023	05:02	-132.602	47.638	0	321.00	0	4.5670	0	33.8540	0	26.818	0	318.070	0	-1e10	8	-1e10	8	-1E+10	1	-1E+10	1	-1E+10	1	-1E+10	1	-1E+10	1	-1E+10	1
4902554	88	C	07/16/2023	05:02	-132.602	47.638	0	322.10	0	4.5570	0	33.8560	0	26.820	0	319.159	0	-1e10	8	-1e10	8	-1E+10	1	-1E+10	1	-1E+10	1	-1E+10	1	-1E+10	1	-1E+10	1
4902554	88	C	07/16/2023	05:02	-132.602	47.638	0	323.30	0	4.5490	0	33.8570	0	26.822	0	320.347	0	-1e10	8	-1e10	8	-1E+10	1	-1E+10	1	-1E+10	1	-1E+10	1	-1E+10	1	-1E+10	1
4902554	88	C	07/16/2023	05:02	-132.602	47.638	0	324.40	0	4.5440	0	33.8570	0	26.822	0	321.436	0	-1e10	8	-1e10	8	-1E+10	1	-1E+10	1	-1E+10	1	-1E+10	1	-1E+10	1	-1E+10	1
4902554	88	C	07/16/2023	05:02	-132.602	47.638	0	325.50	0	4.5320	0	33.8590	0	26.825	0	322.525	0	-1e10	8	-1e10	8	-1E+10	1	-1E+10	1	-1E+10	1	-1E+10	1	-1E+10	1	-1E+10	1
4902554	88	C	07/16/2023	05:02	-132.602	47.638	0	326.60	0	4.5220	0	33.8590	0	26.826	0	323.614	0	-1e10	8	-1e10	8	-1E+10	1	-1E+10	1	-1E+10	1	-1E+10	1	-1E+10	1	-1E+10	1
4902554	88	C	07/16/2023	05:02	-132.602	47.638	0	327.70	0	4.5120	0	33.8630	0	26.831	0	324.703	0	-1e10	8	-1e10	8	-1E+10	1	-1E+10	1	-1E+10	1	-1E+10	1	-1E+10	1	-1E+10	1
4902554	88	C	07/16/2023	05:02	-132.602	47.638	0	328.80	0	4.5050	0	33.8630	0	26.831	0	325.793	0	-1e10	8	-1e10	8	-1E+10	1	-1E+10	1	-1E+10	1	-1E+10	1	-1E+10	1	-1E+10	1
4902554	88	C	07/16/2023	05:02	-132.602	47.638	0	330.00	0	4.5020	0	33.8630	0	26.832	0	326.981	0	-1e10	8	-1e10	8	-1E+10	1	-1E+10	1	-1E+10	1	-1E+10	1	-1E+10	1	-1E+10	1
4902554	88	C	07/16/2023	05:02	-132.602	47.638	0	331.10	0	4.5000	0	33.8630	0	26.832	0	328.070	0	-1e10	8	-1e10	8	-1E+10	1	-1E+10	1	-1E+10	1	-1E+10	1	-1E+10	1	-1E+10	1
4902554	88	C	07/16/2023	05:02	-132.602	47.638	0	332.10	0	4.4990	0	33.8630	0	26.832	0	329.060	0	-1e10	8	-1e10	8	-1E+10	1	-1E+10	1	-1E+10	1	-1E+10	1	-1E+10	1	-1E+10	1
4902554	88	C	07/16/2023	05:02	-132.602	47.638	0	333.20	0	4.4980	0	33.8630	0	26.832	0	330.149	0	-1e10	8	-1e10	8	-1E+10	1	-1E+10	1	-1E+10	1	-1E+10	1	-1E+10	1	-1E+10	1
4902554	88	C	07/16/2023	05:02	-132.602	47.638	0	334.30	0	4.4970	0	33.8630	0	26.832	0	331.238	0	-1e10	8	-1e10	8	-1E+10	1	-1E+10	1	-1E+10	1	-1E+10	1	-1E+10	1	-1E+10	1
4902554	88	C	07/16/2023	05:02	-132.602	47.638	0	335.40	0	4.4950	0	33.8640	0	26.833	0	332.327	0	-1e10	8	-1e10	8	-1E+10	1	-1E+10	1	-1E+10	1	-1E+10	1	-1E+10	1	-1E+10	1
4902554	88	C	07/16/2023	05:02	-132.602	47.638	0	336.50	0	4.4880	0	33.8650	0	26.835	0	333.416	0	-1e10	8	-1e10	8	-1E+10	1	-1E+10	1	-1E+10	1	-1E+10	1	-1E+10	1	-1E+10	1
4902554	88	C	07/16/2023	05:02	-132.602	47.638	0	337.60	0	4.4860	0	33.8650	0	26.835	0	334.505	0	-1e10	8	-1e10	8	-1E+10	1	-1E+10	1	-1E+10	1	-1E+10	1	-1E+10	1	-1E+10	1
4902554	88	C	07/16/2023	05:02	-132.602	47.638	0	338.70	0	4.4780	0	33.8650	0	26.836	0	335.594	0	-1e10	8	-1e10	8	-1E+10	1	-1E+10	1	-1E+10	1	-1E+10	1	-1E+10	1	-1E+10	1
4902554	88	C	07/16/2023	05:02	-132.602	47.638	0	339.80	0	4.4700	0	33.8680	0	26.839	0	336.683	0	-1e10	8	-1e10	8	-1E+10	1	-1E+10	1	-1E+10	1	-1E+10	1	-1E+10	1	-1E+10	1
4902554	88	C	07/16/2023	05:02	-132.602	47.638	0	340.90	0	4.4630	0	33.8700	0	26.842	0	337.772	0	-1e10	8	-1e10	8	-1E+10	1	-1E+10	1	-1E+10	1	-1E+10	1	-1E+10	1	-1E+10	1
4902554	88	C	07/16/2023	05:02	-132.602	47.638	0	342.00	0	4.4620	0	33.8690	0	26.841	0	338.861	0	-1e10	8	-1e10	8	-1E+10	1	-1E+10	1	-1E+10	1	-1E+10	1	-1E+10	1	-1E+10	1
4902554	88	C	07/16/2023	05:02	-132.602	47.638	0	343.10	0	4.4570	0	33.8700	0	26.842	0	339.950	0	-1e10	8	-1e10	8	-1E+10	1	-1E+10	1	-1E+10	1	-1E+10	1	-1E+10	1	-1E+10	1
4902554	88	C	07/16/2023	05:02	-132.602	47.638	0	344.20	0	4.4490	0	33.8710	0	26.844	0	341.039	0	-1e10	8	-1e10	8	-1E+10	1	-1E+10	1	-1E+10	1	-1E+10	1	-1E+10	1	-1E+10	1
4902554	88	C	07/16/2023	05:02	-132.602	47.638	0	345.30	0	4.4380	0	33.8730	0	26.847	0	342.128	0	-1e10	8	-1e10	8	-1E+10	1	-1E+10	1	-1E+10	1	-1E+10	1	-1E+10	1	-1E+10	1
4902554	88	C	07/16/2023	05:02	-132.602	47.638	0	346.40	0	4.4360	0	33.8720	0	26.846	0	343.217	0	-1e10	8	-1e10	8	-1E+10	1	-1E+10	1	-1E+10	1	-1E+10	1	-1E+10	1	-1E+10	1
4902554	88	C	07/16/2023	05:02	-132.602	47.638	0	347.50	0	4.4350	0	33.8730	0	26.847	0	344.306	0	-1e10	8	-1e10	8	-1E+10	1	-1E+10	1	-1E+10	1	-1E+10	1	-1E+10	1	-1E+10	1
4902554	88	C	07/16/2023	05:02	-132.602	47.638	0	348.60	0	4.4280	0	33.8750	0	26.849	0	345.395	0	-1e10	8	-1e10	8	-1E+10	1	-1E+10	1	-1E+10	1	-1E+10	1	-1E+10	1	-1E+10	1
4902554	88	C	07/16/2023	05:02	-132.602	47.638	0	349.70	0	4.4260	0	33.8750	0	26.850	0	346.484	0	-1e10	8	-1e10	8	-1E+10	1	-1E+10	1	-1E+10	1	-1E+10	1	-1E+10	1	-1E+10	1
4902554	88	C	07/16/2023	05:02	-132.602	47.638	0	353.00	0	4.4130	0	33.8780	0	26.853	0	349.751	0	-1e10	8	-1e10	8	-1E+10	1	-1E+10	1	-1E+10	1	-1E+10	1	-1E+10	1	-1E+10	1
4902554	88	C	07/16/2023	05:02	-132.602	47.638	0	357.90	0	4.3970	0	33.8850	0	26.861	0	354.601	0	-1e10	8	-1e10	8	-1E+10	1	-1E+10	1	-1E+10	1	-1E+10	1	-1E+10	1	-1E+10	1
4902554	88	C	07/16/2023	05:02	-132.602	47.638	0	362.80	0	4.3800	0	33.8890	0	26.866	0	359.452	0	-1e10	8	-1e10	8	-1E+10	1	-1E+10	1	-1E+10	1	-1E+10	1	-1E+10	1	-1E+10	1
4902554	88	C	07/16/2023	05:02	-132.602	47.638	0	368.20	0	4.3650	0	33.8940	0	26.871	0	364.797	0	-1e10	8	-1e10	8	-1E+10	1	-1E+10	1	-1E+10	1	-1E+10	1	-1E+10	1	-1E+10	1
4902554	88	C	07/16/2023	05:02	-132.602	47.638	0	373.00	0	4.3550	0	33.8970	0	26.875	0	369.549	0	-1e10	8	-1e10	8	-1E+10	1	-1E+10	1	-1E+10	1	-1E+10	1	-1E+10	1	-1E+10	1
4902554	88	C	07/16/2023	05:02	-132.602	47.638	0	377.90	0	4.3360	0	33.9070	0	26.885	0	374.399	0	-1e10	8	-1e10	8	-1E+10	1	-1E+10	1	-1E+10	1	-1E+10	1	-1E+10	1	-1E+10	1
4902554	88	C	07/16/2023	05:02	-132.602	47.638	0	383.30	0	4.3180	0	33.9150	0	26.893	0	379.744	0	-1e10	8	-1e10	8	-1E+10	1	-1E+10	1	-1E+10	1	-1E+10	1	-1E+10	1	-1E+10	1
4902554	88	C	07/16/2023	05:02	-132.602	47.638	0	388.30	0	4.2990	0	33.9270	0	26.905	0	384.693	0	-1e10	8	-1e10	8	-1E+10	1	-1E+10	1	-1E+10	1	-1E+10	1	-1E+10	1	-1E+10	1
4902554	88	C	07/16/2023	05:02	-132.602	47.638	0	392.90	0	4.2930	0	33.9330	0	26.910	0	389.246	0	-1e10	8	-1e10	8	-1E+10	1	-1E+10	1	-1E+10	1	-1E+10	1	-1E+10	1	-1E+10	1
4902554	88	C	07/16/2023	05:02	-132.602	47.638	0	397.80	0	4.2880	0	33.9390	0	26.915	0	394.096	0	-1e10	8	-1e10	8	-1E+10	1	-1E+10	1	-1E+10	1	-1E+10	1	-1E+10	1	-1E+10	1
4902554	88	C	07/16/2023	05:02	-132.602	47.638	0	402.60	0	4.2800	0	33.9460	0	26.922	0	398.847	0	-1e10	8	-1e10	8	-1E+10	1	-1E+10	1	-1E+10	1	-1E+10	1	-1E+10	1	-1E+10	1
4902554	88	C	07/16/2023	05:02	-132.602	47.638	0	407.90	0	4.2750	0	33.9510	0	26.926	0	404.092	0	-1e10	8	-1e10	8	-1E+10	1	-1E+10	1	-1E+10	1	-1E+10	1	-1E+10	1	-1E+10	1
4902554	88	C	07/16/2023	05:02	-132.602	47.638	0	413.10	0	4.2700	0	33.9560	0	26.931	0	409.238	0	-1e10	8	-1e10	8	-1E+10	1	-1E+10	1	-1E+10	1	-1E+10	1	-1E+10	1	-1E+10	1
4902554	88	C	07/16/2023	05:02	-132.602	47.638	0	418.00	0	4.2650	0	33.9640	0	26.938	0	414.088	0	-1e10	8	-1e10	8	-1E+10	1	-1E+10	1	-1E+10	1	-1E+10	1	-1E+10	1	-1E+10	1
4902554	88	C	07/16/2023	05:02	-132.602	47.638	0	422.90	0	4.2570	0	33.9700	0	26.943	0	418.937	0	-1e10	8	-1e10	8	-1E+10	1	-1E+10	1	-1E+10	1	-1E+10	1	-1E+10	1	-1E+10	1
4902554	88	C	07/16/2023	05:02	-132.602	47.638	0	427.90	0	4.2500	0	33.9750	0	26.948	0	423.885	0	-1e10	8	-1e10	8	-1E+10	1	-1E+10	1	-1E+10	1	-1E+10	1	-1E+10	1	-1E+10	1
4902554	88	C	07/16/2023	05:02	-132.602	47.638	0	433.00	0	4.2430	0	33.9810	0	26.954	0	428.932	0	-1e10	8	-1e10	8	-1E+10	1	-1E+10	1	-1E+10	1	-1E+10	1	-1E+10	1	-1E+10	1
4902554	88	C	07/16/2023	05:02	-132.602	47.638	0	438.00	0	4.2270	0	33.9900	0	26.963	0	433.879	0	-1e10	8	-1e10	8	-1E+10	1	-1E+10	1	-1E+10	1	-1E+10	1	-1E+10	1	-1E+10	1
4902554	88	C	07/16/2023	05:02	-132.602	47.638	0	443.10	0	4.2180	0	33.9940	0	26.967	0	438.926	0	-1e10	8	-1e10	8	-1E+10	1	-1E+10	1	-1E+10	1	-1E+10	1	-1E+10	1	-1E+10	1
4902554	88	C	07/16/2023	05:02	-132.602	47.638	0	448.10	0	4.2070	0	34.0020	0	26.974	0	443.874	0	-1e10	8	-1e10	8	-1E+10	1	-1E+10	1	-1E+10	1	-1E+10	1	-1E+10	1	-1E+10	1
4902554	88	C	07/16/2023	05:02	-132.602	47.638	0	452.90	0	4.1910	0	34.0120	0	26.984	0	448.623	0	-1e10	8	-1e10	8	-1E+10	1	-1E+10	1	-1E+10	1	-1E+10	1	-1E+10	1	-1E+10	1
4902554	88	C	07/16/2023	05:02	-132.602	47.638	0	457.80	0	4.1860	0	34.0150	0	26.987	0	453.472	0	-1e10	8	-1e10	8	-1E+10	1	-1E+10	1	-1E+10	1	-1E+10	1	-1E+10	1	-1E+10	1
4902554	88	C	07/16/2023	05:02	-132.602	47.638	0	462.80	0	4.1800	0	34.0170	0	26.989	0	458.419	0	-1e10	8	-1e10	8	-1E+10	1	-1E+10	1	-1E+10	1	-1E+10	1	-1E+10	1	-1E+10	1
4902554	88	C	07/16/2023	05:02	-132.602	47.638	0	467.80	0	4.1720	0	34.0220	0	26.994	0	463.366	0	-1e10	8	-1e10	8	-1E+10	1	-1E+10	1	-1E+10	1	-1E+10	1	-1E+10	1	-1E+10	1
4902554	88	C	07/16/2023	05:02	-132.602	47.638	0	473.00	0	4.1620	0	34.0280	0	27.000	0	468.511	0	-1e10	8	-1e10	8	-1E+10	1	-1E+10	1	-1E+10	1	-1E+10	1	-1E+10	1	-1E+10	1
4902554	88	C	07/16/2023	05:02	-132.602	47.638	0	477.80	0	4.1510	0	34.0350	0	27.007	0	473.260	0	-1e10	8	-1e10	8	-1E+10	1	-1E+10	1	-1E+10	1	-1E+10	1	-1E+10	1	-1E+10	1
4902554	88	C	07/16/2023	05:02	-132.602	47.638	0	482.60	0	4.1460	0	34.0410	0	27.012	0	478.009	0	-1e10	8	-1e10	8	-1E+10	1	-1E+10	1	-1E+10	1	-1E+10	1	-1E+10	1	-1E+10	1
4902554	88	C	07/16/2023	05:02	-132.602	47.638	0	487.90	0	4.1410	0	34.0460	0	27.016	0	483.252	0	-1e10	8	-1e10	8	-1E+10	1	-1E+10	1	-1E+10	1	-1E+10	1	-1E+10	1	-1E+10	1
4902554	88	C	07/16/2023	05:02	-132.602	47.638	0	493.20	0	4.1310	0	34.0510	0	27.022	0	488.495	0	-1e10	8	-1e10	8	-1E+10	1	-1E+10	1	-1E+10	1	-1E+10	1	-1E+10	1	-1E+10	1
4902554	88	C	07/16/2023	05:02	-132.602	47.638	0	498.10	0	4.1290	0	34.0570	0	27.027	0	493.343	0	-1e10	8	-1e10	8	-1E+10	1	-1E+10	1	-1E+10	1	-1E+10	1	-1E+10	1	-1E+10	1
4902554	88	C	07/16/2023	05:02	-132.602	47.638	0	503.10	0	4.1170	0	34.0580	0	27.029	0	498.289	0	-1e10	8	-1e10	8	-1E+10	1	-1E+10	1	-1E+10	1	-1E+10	1	-1E+10	1	-1E+10	1
4902554	88	C	07/16/2023	05:02	-132.602	47.638	0	508.10	0	4.0950	0	34.0630	0	27.035	0	503.235	0	-1e10	8	-1e10	8	-1E+10	1	-1E+10	1	-1E+10	1	-1E+10	1	-1E+10	1	-1E+10	1
4902554	88	C	07/16/2023	05:02	-132.602	47.638	0	513.10	0	4.0970	0	34.0710	0	27.041	0	508.181	0	-1e10	8	-1e10	8	-1E+10	1	-1E+10	1	-1E+10	1	-1E+10	1	-1E+10	1	-1E+10	1
4902554	88	C	07/16/2023	05:02	-132.602	47.638	0	517.90	0	4.1070	0	34.0800	0	27.047	0	512.929	0	-1e10	8	-1e10	8	-1E+10	1	-1E+10	1	-1E+10	1	-1E+10	1	-1E+10	1	-1E+10	1
4902554	88	C	07/16/2023	05:02	-132.602	47.638	0	522.90	0	4.1060	0	34.0840	0	27.051	0	517.875	0	-1e10	8	-1e10	8	-1E+10	1	-1E+10	1	-1E+10	1	-1E+10	1	-1E+10	1	-1E+10	1
4902554	88	C	07/16/2023	05:02	-132.602	47.638	0	528.00	0	4.1120	0	34.0920	0	27.056	0	522.920	0	-1e10	8	-1e10	8	-1E+10	1	-1E+10	1	-1E+10	1	-1E+10	1	-1E+10	1	-1E+10	1
4902554	88	C	07/16/2023	05:02	-132.602	47.638	0	532.80	0	4.1220	0	34.0960	0	27.059	0	527.667	0	-1e10	8	-1e10	8	-1E+10	1	-1E+10	1	-1E+10	1	-1E+10	1	-1E+10	1	-1E+10	1
4902554	88	C	07/16/2023	05:02	-132.602	47.638	0	537.70	0	4.0980	0	34.1010	0	27.065	0	532.514	0	-1e10	8	-1e10	8	-1E+10	1	-1E+10	1	-1E+10	1	-1E+10	1	-1E+10	1	-1E+10	1
4902554	88	C	07/16/2023	05:02	-132.602	47.638	0	542.60	0	4.0760	0	34.1010	0	27.067	0	537.360	0	-1e10	8	-1e10	8	-1E+10	1	-1E+10	1	-1E+10	1	-1E+10	1	-1E+10	1	-1E+10	1
4902554	88	C	07/16/2023	05:02	-132.602	47.638	0	547.60	0	4.0490	0	34.1030	0	27.072	0	542.305	0	-1e10	8	-1e10	8	-1E+10	1	-1E+10	1	-1E+10	1	-1E+10	1	-1E+10	1	-1E+10	1
4902554	88	C	07/16/2023	05:02	-132.602	47.638	0	552.70	0	4.0400	0	34.1050	0	27.074	0	547.349	0	-1e10	8	-1e10	8	-1E+10	1	-1E+10	1	-1E+10	1	-1E+10	1	-1E+10	1	-1E+10	1
4902554	88	C	07/16/2023	05:02	-132.602	47.638	0	557.90	0	4.0400	0	34.1080	0	27.077	0	552.492	0	-1e10	8	-1e10	8	-1E+10	1	-1E+10	1	-1E+10	1	-1E+10	1	-1E+10	1	-1E+10	1
4902554	88	C	07/16/2023	05:02	-132.602	47.638	0	563.10	0	4.0350	0	34.1100	0	27.079	0	557.635	0	-1e10	8	-1e10	8	-1E+10	1	-1E+10	1	-1E+10	1	-1E+10	1	-1E+10	1	-1E+10	1
4902554	88	C	07/16/2023	05:02	-132.602	47.638	0	568.00	0	4.0220	0	34.1170	0	27.086	0	562.481	0	-1e10	8	-1e10	8	-1E+10	1	-1E+10	1	-1E+10	1	-1E+10	1	-1E+10	1	-1E+10	1
4902554	88	C	07/16/2023	05:02	-132.602	47.638	0	573.00	0	4.0130	0	34.1200	0	27.089	0	567.425	0	-1e10	8	-1e10	8	-1E+10	1	-1E+10	1	-1E+10	1	-1E+10	1	-1E+10	1	-1E+10	1
4902554	88	C	07/16/2023	05:02	-132.602	47.638	0	578.20	0	4.0080	0	34.1230	0	27.092	0	572.567	0	-1e10	8	-1e10	8	-1E+10	1	-1E+10	1	-1E+10	1	-1E+10	1	-1E+10	1	-1E+10	1
4902554	88	C	07/16/2023	05:02	-132.602	47.638	0	583.00	0	4.0000	0	34.1270	0	27.096	0	577.314	0	-1e10	8	-1e10	8	-1E+10	1	-1E+10	1	-1E+10	1	-1E+10	1	-1E+10	1	-1E+10	1
4902554	88	C	07/16/2023	05:02	-132.602	47.638	0	587.80	0	3.9900	0	34.1300	0	27.100	0	582.061	0	-1e10	8	-1e10	8	-1E+10	1	-1E+10	1	-1E+10	1	-1E+10	1	-1E+10	1	-1E+10	1
4902554	88	C	07/16/2023	05:02	-132.602	47.638	0	592.70	0	3.9740	0	34.1320	0	27.103	0	586.906	0	-1e10	8	-1e10	8	-1E+10	1	-1E+10	1	-1E+10	1	-1E+10	1	-1E+10	1	-1E+10	1
4902554	88	C	07/16/2023	05:02	-132.602	47.638	0	597.70	0	3.9610	0	34.1360	0	27.107	0	591.850	0	-1e10	8	-1e10	8	-1E+10	1	-1E+10	1	-1E+10	1	-1E+10	1	-1E+10	1	-1E+10	1
4902554	88	C	07/16/2023	05:02	-132.602	47.638	0	602.60	0	3.9540	0	34.1400	0	27.111	0	596.695	0	-1e10	8	-1e10	8	-1E+10	1	-1E+10	1	-1E+10	1	-1E+10	1	-1E+10	1	-1E+10	1
4902554	88	C	07/16/2023	05:02	-132.602	47.638	0	607.60	0	3.9420	0	34.1460	0	27.117	0	601.639	0	-1e10	8	-1e10	8	-1E+10	1	-1E+10	1	-1E+10	1	-1E+10	1	-1E+10	1	-1E+10	1
4902554	88	C	07/16/2023	05:02	-132.602	47.638	0	612.60	0	3.9380	0	34.1490	0	27.120	0	606.582	0	-1e10	8	-1e10	8	-1E+10	1	-1E+10	1	-1E+10	1	-1E+10	1	-1E+10	1	-1E+10	1
4902554	88	C	07/16/2023	05:02	-132.602	47.638	0	617.60	0	3.9350	0	34.1520	0	27.123	0	611.526	0	-1e10	8	-1e10	8	-1E+10	1	-1E+10	1	-1E+10	1	-1E+10	1	-1E+10	1	-1E+10	1
4902554	88	C	07/16/2023	05:02	-132.602	47.638	0	622.70	0	3.9370	0	34.1570	0	27.127	0	616.568	0	-1e10	8	-1e10	8	-1E+10	1	-1E+10	1	-1E+10	1	-1E+10	1	-1E+10	1	-1E+10	1
4902554	88	C	07/16/2023	05:02	-132.602	47.638	0	627.80	0	3.9360	0	34.1630	0	27.132	0	621.610	0	-1e10	8	-1e10	8	-1E+10	1	-1E+10	1	-1E+10	1	-1E+10	1	-1E+10	1	-1E+10	1
4902554	88	C	07/16/2023	05:02	-132.602	47.638	0	632.80	0	3.9390	0	34.1640	0	27.132	0	626.553	0	-1e10	8	-1e10	8	-1E+10	1	-1E+10	1	-1E+10	1	-1E+10	1	-1E+10	1	-1E+10	1
4902554	88	C	07/16/2023	05:02	-132.602	47.638	0	637.80	0	3.9240	0	34.1690	0	27.138	0	631.497	0	-1e10	8	-1e10	8	-1E+10	1	-1E+10	1	-1E+10	1	-1E+10	1	-1E+10	1	-1E+10	1
4902554	88	C	07/16/2023	05:02	-132.602	47.638	0	642.70	0	3.9240	0	34.1750	0	27.142	0	636.341	0	-1e10	8	-1e10	8	-1E+10	1	-1E+10	1	-1E+10	1	-1E+10	1	-1E+10	1	-1E+10	1
4902554	88	C	07/16/2023	05:02	-132.602	47.638	0	647.70	0	3.9100	0	34.1780	0	27.146	0	641.283	0	-1e10	8	-1e10	8	-1E+10	1	-1E+10	1	-1E+10	1	-1E+10	1	-1E+10	1	-1E+10	1
4902554	88	C	07/16/2023	05:02	-132.602	47.638	0	652.70	0	3.8810	0	34.1800	0	27.151	0	646.226	0	-1e10	8	-1e10	8	-1E+10	1	-1E+10	1	-1E+10	1	-1E+10	1	-1E+10	1	-1E+10	1
4902554	88	C	07/16/2023	05:02	-132.602	47.638	0	657.70	0	3.8590	0	34.1820	0	27.155	0	651.169	0	-1e10	8	-1e10	8	-1E+10	1	-1E+10	1	-1E+10	1	-1E+10	1	-1E+10	1	-1E+10	1
4902554	88	C	07/16/2023	05:02	-132.602	47.638	0	662.70	0	3.8500	0	34.1870	0	27.160	0	656.111	0	-1e10	8	-1e10	8	-1E+10	1	-1E+10	1	-1E+10	1	-1E+10	1	-1E+10	1	-1E+10	1
4902554	88	C	07/16/2023	05:02	-132.602	47.638	0	667.70	0	3.8400	0	34.1900	0	27.163	0	661.054	0	-1e10	8	-1e10	8	-1E+10	1	-1E+10	1	-1E+10	1	-1E+10	1	-1E+10	1	-1E+10	1
4902554	88	C	07/16/2023	05:02	-132.602	47.638	0	672.70	0	3.8510	0	34.1950	0	27.166	0	665.996	0	-1e10	8	-1e10	8	-1E+10	1	-1E+10	1	-1E+10	1	-1E+10	1	-1E+10	1	-1E+10	1
4902554	88	C	07/16/2023	05:02	-132.602	47.638	0	677.80	0	3.8190	0	34.1980	0	27.172	0	671.037	0	-1e10	8	-1e10	8	-1E+10	1	-1E+10	1	-1E+10	1	-1E+10	1	-1E+10	1	-1E+10	1
4902554	88	C	07/16/2023	05:02	-132.602	47.638	0	683.00	0	3.8040	0	34.2010	0	27.175	0	676.176	0	-1e10	8	-1e10	8	-1E+10	1	-1E+10	1	-1E+10	1	-1E+10	1	-1E+10	1	-1E+10	1
4902554	88	C	07/16/2023	05:02	-132.602	47.638	0	688.10	0	3.7960	0	34.2060	0	27.180	0	681.217	0	-1e10	8	-1e10	8	-1E+10	1	-1E+10	1	-1E+10	1	-1E+10	1	-1E+10	1	-1E+10	1
4902554	88	C	07/16/2023	05:02	-132.602	47.638	0	693.20	0	3.7950	0	34.2090	0	27.183	0	686.258	0	-1e10	8	-1e10	8	-1E+10	1	-1E+10	1	-1E+10	1	-1E+10	1	-1E+10	1	-1E+10	1
4902554	88	C	07/16/2023	05:02	-132.602	47.638	0	698.30	0	3.7890	0	34.2150	0	27.188	0	691.298	0	-1e10	8	-1e10	8	-1E+10	1	-1E+10	1	-1E+10	1	-1E+10	1	-1E+10	1	-1E+10	1
4902554	88	C	07/16/2023	05:02	-132.602	47.638	0	703.00	0	3.7890	0	34.2180	0	27.191	0	695.943	0	-1e10	8	-1e10	8	-1E+10	1	-1E+10	1	-1E+10	1	-1E+10	1	-1E+10	1	-1E+10	1
4902554	88	C	07/16/2023	05:02	-132.602	47.638	0	707.50	0	3.7900	0	34.2210	0	27.193	0	700.391	0	-1e10	8	-1e10	8	-1E+10	1	-1E+10	1	-1E+10	1	-1E+10	1	-1E+10	1	-1E+10	1
4902554	88	C	07/16/2023	05:02	-132.602	47.638	0	712.70	0	3.7900	0	34.2240	0	27.195	0	705.530	0	-1e10	8	-1e10	8	-1E+10	1	-1E+10	1	-1E+10	1	-1E+10	1	-1E+10	1	-1E+10	1
4902554	88	C	07/16/2023	05:02	-132.602	47.638	0	717.80	0	3.7810	0	34.2300	0	27.201	0	710.570	0	-1e10	8	-1e10	8	-1E+10	1	-1E+10	1	-1E+10	1	-1E+10	1	-1E+10	1	-1E+10	1
4902554	88	C	07/16/2023	05:02	-132.602	47.638	0	722.70	0	3.7690	0	34.2340	0	27.205	0	715.412	0	-1e10	8	-1e10	8	-1E+10	1	-1E+10	1	-1E+10	1	-1E+10	1	-1E+10	1	-1E+10	1
4902554	88	C	07/16/2023	05:02	-132.602	47.638	0	727.80	0	3.7670	0	34.2370	0	27.208	0	720.452	0	-1e10	8	-1e10	8	-1E+10	1	-1E+10	1	-1E+10	1	-1E+10	1	-1E+10	1	-1E+10	1
4902554	88	C	07/16/2023	05:02	-132.602	47.638	0	733.10	0	3.7650	0	34.2390	0	27.210	0	725.689	0	-1e10	8	-1e10	8	-1E+10	1	-1E+10	1	-1E+10	1	-1E+10	1	-1E+10	1	-1E+10	1
4902554	88	C	07/16/2023	05:02	-132.602	47.638	0	738.10	0	3.7580	0	34.2420	0	27.213	0	730.629	0	-1e10	8	-1e10	8	-1E+10	1	-1E+10	1	-1E+10	1	-1E+10	1	-1E+10	1	-1E+10	1
4902554	88	C	07/16/2023	05:02	-132.602	47.638	0	743.00	0	3.7540	0	34.2430	0	27.214	0	735.471	0	-1e10	8	-1e10	8	-1E+10	1	-1E+10	1	-1E+10	1	-1E+10	1	-1E+10	1	-1E+10	1
4902554	88	C	07/16/2023	05:02	-132.602	47.638	0	748.00	0	3.7400	0	34.2470	0	27.219	0	740.412	0	-1e10	8	-1e10	8	-1E+10	1	-1E+10	1	-1E+10	1	-1E+10	1	-1E+10	1	-1E+10	1
4902554	88	C	07/16/2023	05:02	-132.602	47.638	0	753.00	0	3.7310	0	34.2490	0	27.221	0	745.352	0	-1e10	8	-1e10	8	-1E+10	1	-1E+10	1	-1E+10	1	-1E+10	1	-1E+10	1	-1E+10	1
4902554	88	C	07/16/2023	05:02	-132.602	47.638	0	758.00	0	3.7130	0	34.2530	0	27.226	0	750.292	0	-1e10	8	-1e10	8	-1E+10	1	-1E+10	1	-1E+10	1	-1E+10	1	-1E+10	1	-1E+10	1
4902554	88	C	07/16/2023	05:02	-132.602	47.638	0	763.10	0	3.6920	0	34.2580	0	27.232	0	755.331	0	-1e10	8	-1e10	8	-1E+10	1	-1E+10	1	-1E+10	1	-1E+10	1	-1E+10	1	-1E+10	1
4902554	88	C	07/16/2023	05:02	-132.602	47.638	0	768.10	0	3.6760	0	34.2620	0	27.237	0	760.271	0	-1e10	8	-1e10	8	-1E+10	1	-1E+10	1	-1E+10	1	-1E+10	1	-1E+10	1	-1E+10	1
4902554	88	C	07/16/2023	05:02	-132.602	47.638	0	773.10	0	3.6670	0	34.2650	0	27.241	0	765.211	0	-1e10	8	-1e10	8	-1E+10	1	-1E+10	1	-1E+10	1	-1E+10	1	-1E+10	1	-1E+10	1
4902554	88	C	07/16/2023	05:02	-132.602	47.638	0	778.10	0	3.6510	0	34.2680	0	27.245	0	770.151	0	-1e10	8	-1e10	8	-1E+10	1	-1E+10	1	-1E+10	1	-1E+10	1	-1E+10	1	-1E+10	1
4902554	88	C	07/16/2023	05:02	-132.602	47.638	0	783.20	0	3.6200	0	34.2700	0	27.249	0	775.189	0	-1e10	8	-1e10	8	-1E+10	1	-1E+10	1	-1E+10	1	-1E+10	1	-1E+10	1	-1E+10	1
4902554	88	C	07/16/2023	05:02	-132.602	47.638	0	787.80	0	3.5900	0	34.2730	0	27.255	0	779.734	0	-1e10	8	-1e10	8	-1E+10	1	-1E+10	1	-1E+10	1	-1E+10	1	-1E+10	1	-1E+10	1
4902554	88	C	07/16/2023	05:02	-132.602	47.638	0	792.60	0	3.5820	0	34.2740	0	27.256	0	784.476	0	-1e10	8	-1e10	8	-1E+10	1	-1E+10	1	-1E+10	1	-1E+10	1	-1E+10	1	-1E+10	1
4902554	88	C	07/16/2023	05:02	-132.602	47.638	0	797.70	0	3.5840	0	34.2760	0	27.258	0	789.514	0	-1e10	8	-1e10	8	-1E+10	1	-1E+10	1	-1E+10	1	-1E+10	1	-1E+10	1	-1E+10	1
4902554	88	C	07/16/2023	05:02	-132.602	47.638	0	803.10	0	3.5780	0	34.2830	0	27.264	0	794.848	0	-1e10	8	-1e10	8	-1E+10	1	-1E+10	1	-1E+10	1	-1E+10	1	-1E+10	1	-1E+10	1
4902554	88	C	07/16/2023	05:02	-132.602	47.638	0	808.10	0	3.5410	0	34.2810	0	27.266	0	799.787	0	-1e10	8	-1e10	8	-1E+10	1	-1E+10	1	-1E+10	1	-1E+10	1	-1E+10	1	-1E+10	1
4902554	88	C	07/16/2023	05:02	-132.602	47.638	0	812.60	0	3.5470	0	34.2850	0	27.268	0	804.232	0	-1e10	8	-1e10	8	-1E+10	1	-1E+10	1	-1E+10	1	-1E+10	1	-1E+10	1	-1E+10	1
4902554	88	C	07/16/2023	05:02	-132.602	47.638	0	817.80	0	3.5140	0	34.2840	0	27.271	0	809.368	0	-1e10	8	-1e10	8	-1E+10	1	-1E+10	1	-1E+10	1	-1E+10	1	-1E+10	1	-1E+10	1
4902554	88	C	07/16/2023	05:02	-132.602	47.638	0	822.80	0	3.4500	0	34.2780	0	27.272	0	814.307	0	-1e10	8	-1e10	8	-1E+10	1	-1E+10	1	-1E+10	1	-1E+10	1	-1E+10	1	-1E+10	1
4902554	88	C	07/16/2023	05:02	-132.602	47.638	0	827.80	0	3.4270	0	34.2810	0	27.277	0	819.246	0	-1e10	8	-1e10	8	-1E+10	1	-1E+10	1	-1E+10	1	-1E+10	1	-1E+10	1	-1E+10	1
4902554	88	C	07/16/2023	05:02	-132.602	47.638	0	832.90	0	3.4140	0	34.2830	0	27.280	0	824.283	0	-1e10	8	-1e10	8	-1E+10	1	-1E+10	1	-1E+10	1	-1E+10	1	-1E+10	1	-1E+10	1
4902554	88	C	07/16/2023	05:02	-132.602	47.638	0	838.00	0	3.3970	0	34.2870	0	27.285	0	829.320	0	-1e10	8	-1e10	8	-1E+10	1	-1E+10	1	-1E+10	1	-1E+10	1	-1E+10	1	-1E+10	1
4902554	88	C	07/16/2023	05:02	-132.602	47.638	0	843.10	0	3.3860	0	34.2890	0	27.287	0	834.357	0	-1e10	8	-1e10	8	-1E+10	1	-1E+10	1	-1E+10	1	-1E+10	1	-1E+10	1	-1E+10	1
4902554	88	C	07/16/2023	05:02	-132.602	47.638	0	847.80	0	3.3740	0	34.2920	0	27.291	0	838.999	0	-1e10	8	-1e10	8	-1E+10	1	-1E+10	1	-1E+10	1	-1E+10	1	-1E+10	1	-1E+10	1
4902554	88	C	07/16/2023	05:02	-132.602	47.638	0	852.60	0	3.3620	0	34.2940	0	27.293	0	843.739	0	-1e10	8	-1e10	8	-1E+10	1	-1E+10	1	-1E+10	1	-1E+10	1	-1E+10	1	-1E+10	1
4902554	88	C	07/16/2023	05:02	-132.602	47.638	0	857.90	0	3.3470	0	34.2980	0	27.298	0	848.974	0	-1e10	8	-1e10	8	-1E+10	1	-1E+10	1	-1E+10	1	-1E+10	1	-1E+10	1	-1E+10	1
4902554	88	C	07/16/2023	05:02	-132.602	47.638	0	863.30	0	3.3380	0	34.3010	0	27.301	0	854.306	0	-1e10	8	-1e10	8	-1E+10	1	-1E+10	1	-1E+10	1	-1E+10	1	-1E+10	1	-1E+10	1
4902554	88	C	07/16/2023	05:02	-132.602	47.638	0	868.30	0	3.3320	0	34.3030	0	27.304	0	859.244	0	-1e10	8	-1e10	8	-1E+10	1	-1E+10	1	-1E+10	1	-1E+10	1	-1E+10	1	-1E+10	1
4902554	88	C	07/16/2023	05:02	-132.602	47.638	0	873.20	0	3.3200	0	34.3050	0	27.306	0	864.083	0	-1e10	8	-1e10	8	-1E+10	1	-1E+10	1	-1E+10	1	-1E+10	1	-1E+10	1	-1E+10	1
4902554	88	C	07/16/2023	05:02	-132.602	47.638	0	878.00	0	3.3140	0	34.3060	0	27.308	0	868.823	0	-1e10	8	-1e10	8	-1E+10	1	-1E+10	1	-1E+10	1	-1E+10	1	-1E+10	1	-1E+10	1
4902554	88	C	07/16/2023	05:02	-132.602	47.638	0	882.90	0	3.3010	0	34.3090	0	27.311	0	873.661	0	-1e10	8	-1e10	8	-1E+10	1	-1E+10	1	-1E+10	1	-1E+10	1	-1E+10	1	-1E+10	1
4902554	88	C	07/16/2023	05:02	-132.602	47.638	0	887.90	0	3.2940	0	34.3110	0	27.314	0	878.598	0	-1e10	8	-1e10	8	-1E+10	1	-1E+10	1	-1E+10	1	-1E+10	1	-1E+10	1	-1E+10	1
4902554	88	C	07/16/2023	05:02	-132.602	47.638	0	892.70	0	3.2910	0	34.3120	0	27.315	0	883.338	0	-1e10	8	-1e10	8	-1E+10	1	-1E+10	1	-1E+10	1	-1E+10	1	-1E+10	1	-1E+10	1
4902554	88	C	07/16/2023	05:02	-132.602	47.638	0	897.90	0	3.2820	0	34.3140	0	27.317	0	888.472	0	-1e10	8	-1e10	8	-1E+10	1	-1E+10	1	-1E+10	1	-1E+10	1	-1E+10	1	-1E+10	1
4902554	88	C	07/16/2023	05:02	-132.602	47.638	0	903.20	0	3.2700	0	34.3160	0	27.320	0	893.706	0	-1e10	8	-1e10	8	-1E+10	1	-1E+10	1	-1E+10	1	-1E+10	1	-1E+10	1	-1E+10	1
4902554	88	C	07/16/2023	05:02	-132.602	47.638	0	908.20	0	3.2590	0	34.3190	0	27.323	0	898.642	0	-1e10	8	-1e10	8	-1E+10	1	-1E+10	1	-1E+10	1	-1E+10	1	-1E+10	1	-1E+10	1
4902554	88	C	07/16/2023	05:02	-132.602	47.638	0	912.80	0	3.2540	0	34.3200	0	27.325	0	903.184	0	-1e10	8	-1e10	8	-1E+10	1	-1E+10	1	-1E+10	1	-1E+10	1	-1E+10	1	-1E+10	1
4902554	88	C	07/16/2023	05:02	-132.602	47.638	0	917.60	0	3.2480	0	34.3220	0	27.327	0	907.923	0	-1e10	8	-1e10	8	-1E+10	1	-1E+10	1	-1E+10	1	-1E+10	1	-1E+10	1	-1E+10	1
4902554	88	C	07/16/2023	05:02	-132.602	47.638	0	922.90	0	3.2430	0	34.3230	0	27.328	0	913.155	0	-1e10	8	-1e10	8	-1E+10	1	-1E+10	1	-1E+10	1	-1E+10	1	-1E+10	1	-1E+10	1
4902554	88	C	07/16/2023	05:02	-132.602	47.638	0	927.90	0	3.2340	0	34.3240	0	27.330	0	918.092	0	-1e10	8	-1e10	8	-1E+10	1	-1E+10	1	-1E+10	1	-1E+10	1	-1E+10	1	-1E+10	1
4902554	88	C	07/16/2023	05:02	-132.602	47.638	0	932.90	0	3.2200	0	34.3280	0	27.334	0	923.028	0	-1e10	8	-1e10	8	-1E+10	1	-1E+10	1	-1E+10	1	-1E+10	1	-1E+10	1	-1E+10	1
4902554	88	C	07/16/2023	05:02	-132.602	47.638	0	937.90	0	3.2120	0	34.3300	0	27.337	0	927.964	0	-1e10	8	-1e10	8	-1E+10	1	-1E+10	1	-1E+10	1	-1E+10	1	-1E+10	1	-1E+10	1
4902554	88	C	07/16/2023	05:02	-132.602	47.638	0	942.80	0	3.2040	0	34.3330	0	27.340	0	932.801	0	-1e10	8	-1e10	8	-1E+10	1	-1E+10	1	-1E+10	1	-1E+10	1	-1E+10	1	-1E+10	1
4902554	88	C	07/16/2023	05:02	-132.602	47.638	0	947.80	0	3.2010	0	34.3330	0	27.340	0	937.737	0	-1e10	8	-1e10	8	-1E+10	1	-1E+10	1	-1E+10	1	-1E+10	1	-1E+10	1	-1E+10	1
4902554	88	C	07/16/2023	05:02	-132.602	47.638	0	952.80	0	3.1930	0	34.3350	0	27.343	0	942.672	0	-1e10	8	-1e10	8	-1E+10	1	-1E+10	1	-1E+10	1	-1E+10	1	-1E+10	1	-1E+10	1
4902554	88	C	07/16/2023	05:02	-132.602	47.638	0	957.80	0	3.1900	0	34.3360	0	27.344	0	947.608	0	-1e10	8	-1e10	8	-1E+10	1	-1E+10	1	-1E+10	1	-1E+10	1	-1E+10	1	-1E+10	1
4902554	88	C	07/16/2023	05:02	-132.602	47.638	0	963.00	0	3.1850	0	34.3380	0	27.346	0	952.741	0	-1e10	8	-1e10	8	-1E+10	1	-1E+10	1	-1E+10	1	-1E+10	1	-1E+10	1	-1E+10	1
4902554	88	C	07/16/2023	05:02	-132.602	47.638	0	968.10	0	3.1760	0	34.3400	0	27.348	0	957.775	0	-1e10	8	-1e10	8	-1E+10	1	-1E+10	1	-1E+10	1	-1E+10	1	-1E+10	1	-1E+10	1
4902554	88	C	07/16/2023	05:02	-132.602	47.638	0	972.80	0	3.1650	0	34.3430	0	27.352	0	962.414	0	-1e10	8	-1e10	8	-1E+10	1	-1E+10	1	-1E+10	1	-1E+10	1	-1E+10	1	-1E+10	1
4902554	88	C	07/16/2023	05:02	-132.602	47.638	0	978.00	0	3.1600	0	34.3430	0	27.352	0	967.546	0	-1e10	8	-1e10	8	-1E+10	1	-1E+10	1	-1E+10	1	-1E+10	1	-1E+10	1	-1E+10	1
4902554	88	C	07/16/2023	05:02	-132.602	47.638	0	983.30	0	3.1480	0	34.3460	0	27.356	0	972.777	0	-1e10	8	-1e10	8	-1E+10	1	-1E+10	1	-1E+10	1	-1E+10	1	-1E+10	1	-1E+10	1
4902554	88	C	07/16/2023	05:02	-132.602	47.638	0	988.10	0	3.1410	0	34.3470	0	27.357	0	977.515	0	-1e10	8	-1e10	8	-1E+10	1	-1E+10	1	-1E+10	1	-1E+10	1	-1E+10	1	-1E+10	1
4902554	88	C	07/16/2023	05:02	-132.602	47.638	0	993.00	0	3.1290	0	34.3510	0	27.362	0	982.351	0	-1e10	8	-1e10	8	-1E+10	1	-1E+10	1	-1E+10	1	-1E+10	1	-1E+10	1	-1E+10	1
4902554	88	C	07/16/2023	05:02	-132.602	47.638	0	997.90	0	3.1250	0	34.3520	0	27.363	0	987.187	0	-1e10	8	-1e10	8	-1E+10	1	-1E+10	1	-1E+10	1	-1E+10	1	-1E+10	1	-1E+10	1
4902554	88	C	07/16/2023	05:02	-132.602	47.638	0	1005.30	0	3.1140	0	34.3540	0	27.365	0	994.490	0	-1e10	8	-1e10	8	-1E+10	1	-1E+10	1	-1E+10	1	-1E+10	1	-1E+10	1	-1E+10	1
4902554	88	C	07/16/2023	05:02	-132.602	47.638	0	1015.10	0	3.0990	0	34.3580	0	27.370	0	1004.161	0	-1e10	8	-1e10	8	-1E+10	1	-1E+10	1	-1E+10	1	-1E+10	1	-1E+10	1	-1E+10	1
4902554	88	C	07/16/2023	05:02	-132.602	47.638	0	1025.30	0	3.0790	0	34.3630	0	27.376	0	1014.226	0	-1e10	8	-1e10	8	-1E+10	1	-1E+10	1	-1E+10	1	-1E+10	1	-1E+10	1	-1E+10	1
4902554	88	C	07/16/2023	05:02	-132.602	47.638	0	1035.50	0	3.0620	0	34.3680	0	27.381	0	1024.291	0	-1e10	8	-1e10	8	-1E+10	1	-1E+10	1	-1E+10	1	-1E+10	1	-1E+10	1	-1E+10	1
4902554	88	C	07/16/2023	05:02	-132.602	47.638	0	1045.40	0	3.0460	0	34.3740	0	27.388	0	1034.060	0	-1e10	8	-1e10	8	-1E+10	1	-1E+10	1	-1E+10	1	-1E+10	1	-1E+10	1	-1E+10	1
4902554	88	C	07/16/2023	05:02	-132.602	47.638	0	1055.30	0	3.0360	0	34.3800	0	27.393	0	1043.828	0	-1e10	8	-1e10	8	-1E+10	1	-1E+10	1	-1E+10	1	-1E+10	1	-1E+10	1	-1E+10	1
4902554	88	C	07/16/2023	05:02	-132.602	47.638	0	1065.20	0	3.0300	0	34.3870	0	27.400	0	1053.595	0	-1e10	8	-1e10	8	-1E+10	1	-1E+10	1	-1E+10	1	-1E+10	1	-1E+10	1	-1E+10	1
4902554	88	C	07/16/2023	05:02	-132.602	47.638	0	1075.50	0	3.0060	0	34.3930	0	27.407	0	1063.757	0	-1e10	8	-1e10	8	-1E+10	1	-1E+10	1	-1E+10	1	-1E+10	1	-1E+10	1	-1E+10	1
4902554	88	C	07/16/2023	05:02	-132.602	47.638	0	1085.40	0	2.9760	0	34.3980	0	27.413	0	1073.524	0	-1e10	8	-1e10	8	-1E+10	1	-1E+10	1	-1E+10	1	-1E+10	1	-1E+10	1	-1E+10	1
4902554	88	C	07/16/2023	05:02	-132.602	47.638	0	1095.30	0	2.9480	0	34.3990	0	27.417	0	1083.290	0	-1e10	8	-1e10	8	-1E+10	1	-1E+10	1	-1E+10	1	-1E+10	1	-1E+10	1	-1E+10	1
4902554	88	C	07/16/2023	05:02	-132.602	47.638	0	1105.20	0	2.9260	0	34.4010	0	27.420	0	1093.055	0	-1e10	8	-1e10	8	-1E+10	1	-1E+10	1	-1E+10	1	-1E+10	1	-1E+10	1	-1E+10	1
4902554	88	C	07/16/2023	05:02	-132.602	47.638	0	1115.30	0	2.9110	0	34.4030	0	27.423	0	1103.018	0	-1e10	8	-1e10	8	-1E+10	1	-1E+10	1	-1E+10	1	-1E+10	1	-1E+10	1	-1E+10	1
4902554	88	C	07/16/2023	05:02	-132.602	47.638	0	1125.40	0	2.8920	0	34.4090	0	27.430	0	1112.980	0	-1e10	8	-1e10	8	-1E+10	1	-1E+10	1	-1E+10	1	-1E+10	1	-1E+10	1	-1E+10	1
4902554	88	C	07/16/2023	05:02	-132.602	47.638	0	1135.70	0	2.8740	0	34.4100	0	27.432	0	1123.139	0	-1e10	8	-1e10	8	-1E+10	1	-1E+10	1	-1E+10	1	-1E+10	1	-1E+10	1	-1E+10	1
4902554	88	C	07/16/2023	05:02	-132.602	47.638	0	1145.50	0	2.8580	0	34.4150	0	27.438	0	1132.804	0	-1e10	8	-1e10	8	-1E+10	1	-1E+10	1	-1E+10	1	-1E+10	1	-1E+10	1	-1E+10	1
4902554	88	C	07/16/2023	05:02	-132.602	47.638	0	1155.70	0	2.8530	0	34.4180	0	27.441	0	1142.863	0	-1e10	8	-1e10	8	-1E+10	1	-1E+10	1	-1E+10	1	-1E+10	1	-1E+10	1	-1E+10	1
4902554	88	C	07/16/2023	05:02	-132.602	47.638	0	1165.60	0	2.8290	0	34.4210	0	27.445	0	1152.626	0	-1e10	8	-1e10	8	-1E+10	1	-1E+10	1	-1E+10	1	-1E+10	1	-1E+10	1	-1E+10	1
4902554	88	C	07/16/2023	05:02	-132.602	47.638	0	1175.40	0	2.8120	0	34.4220	0	27.448	0	1162.290	0	-1e10	8	-1e10	8	-1E+10	1	-1E+10	1	-1E+10	1	-1E+10	1	-1E+10	1	-1E+10	1
4902554	88	C	07/16/2023	05:02	-132.602	47.638	0	1185.30	0	2.8010	0	34.4230	0	27.450	0	1172.052	0	-1e10	8	-1e10	8	-1E+10	1	-1E+10	1	-1E+10	1	-1E+10	1	-1E+10	1	-1E+10	1
4902554	88	C	07/16/2023	05:02	-132.602	47.638	0	1195.00	0	2.7890	0	34.4250	0	27.452	0	1181.616	0	-1e10	8	-1e10	8	-1E+10	1	-1E+10	1	-1E+10	1	-1E+10	1	-1E+10	1	-1E+10	1
4902554	88	C	07/16/2023	05:02	-132.602	47.638	0	1205.00	0	2.7820	0	34.4270	0	27.454	0	1191.476	0	-1e10	8	-1e10	8	-1E+10	1	-1E+10	1	-1E+10	1	-1E+10	1	-1E+10	1	-1E+10	1
4902554	88	C	07/16/2023	05:02	-132.602	47.638	0	1215.20	0	2.7730	0	34.4300	0	27.458	0	1201.532	0	-1e10	8	-1e10	8	-1E+10	1	-1E+10	1	-1E+10	1	-1E+10	1	-1E+10	1	-1E+10	1
4902554	88	C	07/16/2023	05:02	-132.602	47.638	0	1225.20	0	2.7560	0	34.4330	0	27.462	0	1211.391	0	-1e10	8	-1e10	8	-1E+10	1	-1E+10	1	-1E+10	1	-1E+10	1	-1E+10	1	-1E+10	1
4902554	88	C	07/16/2023	05:02	-132.602	47.638	0	1235.50	0	2.7400	0	34.4360	0	27.466	0	1221.545	0	-1e10	8	-1e10	8	-1E+10	1	-1E+10	1	-1E+10	1	-1E+10	1	-1E+10	1	-1E+10	1
4902554	88	C	07/16/2023	05:02	-132.602	47.638	0	1245.50	0	2.7250	0	34.4380	0	27.468	0	1231.403	0	-1e10	8	-1e10	8	-1E+10	1	-1E+10	1	-1E+10	1	-1E+10	1	-1E+10	1	-1E+10	1
4902554	88	C	07/16/2023	05:02	-132.602	47.638	0	1255.50	0	2.7070	0	34.4410	0	27.472	0	1241.260	0	-1e10	8	-1e10	8	-1E+10	1	-1E+10	1	-1E+10	1	-1E+10	1	-1E+10	1	-1E+10	1
4902554	88	C	07/16/2023	05:02	-132.602	47.638	0	1265.60	0	2.6910	0	34.4440	0	27.476	0	1251.216	0	-1e10	8	-1e10	8	-1E+10	1	-1E+10	1	-1E+10	1	-1E+10	1	-1E+10	1	-1E+10	1
4902554	88	C	07/16/2023	05:02	-132.602	47.638	0	1275.60	0	2.6760	0	34.4470	0	27.480	0	1261.072	0	-1e10	8	-1e10	8	-1E+10	1	-1E+10	1	-1E+10	1	-1E+10	1	-1E+10	1	-1E+10	1
4902554	88	C	07/16/2023	05:02	-132.602	47.638	0	1285.30	0	2.6590	0	34.4500	0	27.484	0	1270.632	0	-1e10	8	-1e10	8	-1E+10	1	-1E+10	1	-1E+10	1	-1E+10	1	-1E+10	1	-1E+10	1
4902554	88	C	07/16/2023	05:02	-132.602	47.638	0	1295.10	0	2.6370	0	34.4550	0	27.490	0	1280.291	0	-1e10	8	-1e10	8	-1E+10	1	-1E+10	1	-1E+10	1	-1E+10	1	-1E+10	1	-1E+10	1
4902554	88	C	07/16/2023	05:02	-132.602	47.638	0	1305.20	0	2.6160	0	34.4590	0	27.495	0	1290.244	0	-1e10	8	-1e10	8	-1E+10	1	-1E+10	1	-1E+10	1	-1E+10	1	-1E+10	1	-1E+10	1
4902554	88	C	07/16/2023	05:02	-132.602	47.638	0	1315.30	0	2.6040	0	34.4620	0	27.498	0	1300.198	0	-1e10	8	-1e10	8	-1E+10	1	-1E+10	1	-1E+10	1	-1E+10	1	-1E+10	1	-1E+10	1
4902554	88	C	07/16/2023	05:02	-132.602	47.638	0	1325.30	0	2.5920	0	34.4630	0	27.500	0	1310.052	0	-1e10	8	-1e10	8	-1E+10	1	-1E+10	1	-1E+10	1	-1E+10	1	-1E+10	1	-1E+10	1
4902554	88	C	07/16/2023	05:02	-132.602	47.638	0	1335.50	0	2.5730	0	34.4670	0	27.505	0	1320.102	0	-1e10	8	-1e10	8	-1E+10	1	-1E+10	1	-1E+10	1	-1E+10	1	-1E+10	1	-1E+10	1
4902554	88	C	07/16/2023	05:02	-132.602	47.638	0	1345.50	0	2.5510	0	34.4710	0	27.510	0	1329.955	0	-1e10	8	-1e10	8	-1E+10	1	-1E+10	1	-1E+10	1	-1E+10	1	-1E+10	1	-1E+10	1
4902554	88	C	07/16/2023	05:02	-132.602	47.638	0	1355.40	0	2.5380	0	34.4730	0	27.513	0	1339.710	0	-1e10	8	-1e10	8	-1E+10	1	-1E+10	1	-1E+10	1	-1E+10	1	-1E+10	1	-1E+10	1
4902554	88	C	07/16/2023	05:02	-132.602	47.638	0	1365.40	0	2.5220	0	34.4760	0	27.517	0	1349.562	0	-1e10	8	-1e10	8	-1E+10	1	-1E+10	1	-1E+10	1	-1E+10	1	-1E+10	1	-1E+10	1
4902554	88	C	07/16/2023	05:02	-132.602	47.638	0	1375.40	0	2.5080	0	34.4790	0	27.520	0	1359.414	0	-1e10	8	-1e10	8	-1E+10	1	-1E+10	1	-1E+10	1	-1E+10	1	-1E+10	1	-1E+10	1
4902554	88	C	07/16/2023	05:02	-132.602	47.638	0	1385.50	0	2.4970	0	34.4810	0	27.523	0	1369.364	0	-1e10	8	-1e10	8	-1E+10	1	-1E+10	1	-1E+10	1	-1E+10	1	-1E+10	1	-1E+10	1
4902554	88	C	07/16/2023	05:02	-132.602	47.638	0	1395.40	0	2.4830	0	34.4830	0	27.526	0	1379.116	0	-1e10	8	-1e10	8	-1E+10	1	-1E+10	1	-1E+10	1	-1E+10	1	-1E+10	1	-1E+10	1
4902554	88	C	07/16/2023	05:02	-132.602	47.638	0	1405.10	0	2.4680	0	34.4860	0	27.530	0	1388.671	0	-1e10	8	-1e10	8	-1E+10	1	-1E+10	1	-1E+10	1	-1E+10	1	-1E+10	1	-1E+10	1
4902554	88	C	07/16/2023	05:02	-132.602	47.638	0	1415.10	0	2.4600	0	34.4880	0	27.532	0	1398.521	0	-1e10	8	-1e10	8	-1E+10	1	-1E+10	1	-1E+10	1	-1E+10	1	-1E+10	1	-1E+10	1
4902554	88	C	07/16/2023	05:02	-132.602	47.638	0	1425.30	0	2.4510	0	34.4900	0	27.534	0	1408.567	0	-1e10	8	-1e10	8	-1E+10	1	-1E+10	1	-1E+10	1	-1E+10	1	-1E+10	1	-1E+10	1
4902554	88	C	07/16/2023	05:02	-132.602	47.638	0	1435.30	0	2.4430	0	34.4910	0	27.536	0	1418.416	0	-1e10	8	-1e10	8	-1E+10	1	-1E+10	1	-1E+10	1	-1E+10	1	-1E+10	1	-1E+10	1
4902554	88	C	07/16/2023	05:02	-132.602	47.638	0	1445.10	0	2.4360	0	34.4940	0	27.539	0	1428.068	0	-1e10	8	-1e10	8	-1E+10	1	-1E+10	1	-1E+10	1	-1E+10	1	-1E+10	1	-1E+10	1
4902554	88	C	07/16/2023	05:02	-132.602	47.638	0	1455.20	0	2.4260	0	34.4950	0	27.541	0	1438.014	0	-1e10	8	-1e10	8	-1E+10	1	-1E+10	1	-1E+10	1	-1E+10	1	-1E+10	1	-1E+10	1
4902554	88	C	07/16/2023	05:02	-132.602	47.638	0	1465.40	0	2.4120	0	34.4970	0	27.543	0	1448.059	0	-1e10	8	-1e10	8	-1E+10	1	-1E+10	1	-1E+10	1	-1E+10	1	-1E+10	1	-1E+10	1
4902554	88	C	07/16/2023	05:02	-132.602	47.638	0	1475.60	0	2.3990	0	34.5000	0	27.547	0	1458.103	0	-1e10	8	-1e10	8	-1E+10	1	-1E+10	1	-1E+10	1	-1E+10	1	-1E+10	1	-1E+10	1
4902554	88	C	07/16/2023	05:02	-132.602	47.638	0	1485.80	0	2.3940	0	34.5010	0	27.548	0	1468.147	0	-1e10	8	-1e10	8	-1E+10	1	-1E+10	1	-1E+10	1	-1E+10	1	-1E+10	1	-1E+10	1
4902554	88	C	07/16/2023	05:02	-132.602	47.638	0	1495.40	0	2.3820	0	34.5040	0	27.552	0	1477.599	0	-1e10	8	-1e10	8	-1E+10	1	-1E+10	1	-1E+10	1	-1E+10	1	-1E+10	1	-1E+10	1
4902554	88	C	07/16/2023	05:02	-132.602	47.638	0	1505.10	0	2.3590	0	34.5070	0	27.556	0	1487.150	0	-1e10	8	-1e10	8	-1E+10	1	-1E+10	1	-1E+10	1	-1E+10	1	-1E+10	1	-1E+10	1
4902554	88	C	07/16/2023	05:02	-132.602	47.638	0	1515.30	0	2.3490	0	34.5090	0	27.558	0	1497.192	0	-1e10	8	-1e10	8	-1E+10	1	-1E+10	1	-1E+10	1	-1E+10	1	-1E+10	1	-1E+10	1
4902554	88	C	07/16/2023	05:02	-132.602	47.638	0	1525.40	0	2.3410	0	34.5100	0	27.560	0	1507.135	0	-1e10	8	-1e10	8	-1E+10	1	-1E+10	1	-1E+10	1	-1E+10	1	-1E+10	1	-1E+10	1
4902554	88	C	07/16/2023	05:02	-132.602	47.638	0	1535.70	0	2.3250	0	34.5140	0	27.564	0	1517.275	0	-1e10	8	-1e10	8	-1E+10	1	-1E+10	1	-1E+10	1	-1E+10	1	-1E+10	1	-1E+10	1
4902554	88	C	07/16/2023	05:02	-132.602	47.638	0	1545.40	0	2.3160	0	34.5150	0	27.566	0	1526.824	0	-1e10	8	-1e10	8	-1E+10	1	-1E+10	1	-1E+10	1	-1E+10	1	-1E+10	1	-1E+10	1
4902554	88	C	07/16/2023	05:02	-132.602	47.638	0	1555.20	0	2.3110	0	34.5170	0	27.568	0	1536.470	0	-1e10	8	-1e10	8	-1E+10	1	-1E+10	1	-1E+10	1	-1E+10	1	-1E+10	1	-1E+10	1
4902554	88	C	07/16/2023	05:02	-132.602	47.638	0	1565.40	0	2.3040	0	34.5180	0	27.570	0	1546.510	0	-1e10	8	-1e10	8	-1E+10	1	-1E+10	1	-1E+10	1	-1E+10	1	-1E+10	1	-1E+10	1
4902554	88	C	07/16/2023	05:02	-132.602	47.638	0	1575.40	0	2.2830	0	34.5210	0	27.574	0	1556.353	0	-1e10	8	-1e10	8	-1E+10	1	-1E+10	1	-1E+10	1	-1E+10	1	-1E+10	1	-1E+10	1
4902554	88	C	07/16/2023	05:02	-132.602	47.638	0	1585.40	0	2.2680	0	34.5240	0	27.577	0	1566.195	0	-1e10	8	-1e10	8	-1E+10	1	-1E+10	1	-1E+10	1	-1E+10	1	-1E+10	1	-1E+10	1
4902554	88	C	07/16/2023	05:02	-132.602	47.638	0	1595.60	0	2.2550	0	34.5260	0	27.580	0	1576.233	0	-1e10	8	-1e10	8	-1E+10	1	-1E+10	1	-1E+10	1	-1E+10	1	-1E+10	1	-1E+10	1
4902554	88	C	07/16/2023	05:02	-132.602	47.638	0	1605.30	0	2.2490	0	34.5280	0	27.582	0	1585.779	0	-1e10	8	-1e10	8	-1E+10	1	-1E+10	1	-1E+10	1	-1E+10	1	-1E+10	1	-1E+10	1
4902554	88	C	07/16/2023	05:02	-132.602	47.638	0	1615.30	0	2.2380	0	34.5300	0	27.585	0	1595.620	0	-1e10	8	-1e10	8	-1E+10	1	-1E+10	1	-1E+10	1	-1E+10	1	-1E+10	1	-1E+10	1
4902554	88	C	07/16/2023	05:02	-132.602	47.638	0	1625.40	0	2.2270	0	34.5320	0	27.587	0	1605.559	0	-1e10	8	-1e10	8	-1E+10	1	-1E+10	1	-1E+10	1	-1E+10	1	-1E+10	1	-1E+10	1
4902554	88	C	07/16/2023	05:02	-132.602	47.638	0	1635.20	0	2.2170	0	34.5350	0	27.591	0	1615.202	0	-1e10	8	-1e10	8	-1E+10	1	-1E+10	1	-1E+10	1	-1E+10	1	-1E+10	1	-1E+10	1
4902554	88	C	07/16/2023	05:02	-132.602	47.638	0	1645.00	0	2.2060	0	34.5380	0	27.594	0	1624.844	0	-1e10	8	-1e10	8	-1E+10	1	-1E+10	1	-1E+10	1	-1E+10	1	-1E+10	1	-1E+10	1
4902554	88	C	07/16/2023	05:02	-132.602	47.638	0	1655.40	0	2.1960	0	34.5400	0	27.596	0	1635.077	0	-1e10	8	-1e10	8	-1E+10	1	-1E+10	1	-1E+10	1	-1E+10	1	-1E+10	1	-1E+10	1
4902554	88	C	07/16/2023	05:02	-132.602	47.638	0	1665.20	0	2.1870	0	34.5410	0	27.598	0	1644.718	0	-1e10	8	-1e10	8	-1E+10	1	-1E+10	1	-1E+10	1	-1E+10	1	-1E+10	1	-1E+10	1
4902554	88	C	07/16/2023	05:02	-132.602	47.638	0	1675.30	0	2.1800	0	34.5420	0	27.599	0	1654.655	0	-1e10	8	-1e10	8	-1E+10	1	-1E+10	1	-1E+10	1	-1E+10	1	-1E+10	1	-1E+10	1
4902554	88	C	07/16/2023	05:02	-132.602	47.638	0	1685.40	0	2.1680	0	34.5440	0	27.602	0	1664.591	0	-1e10	8	-1e10	8	-1E+10	1	-1E+10	1	-1E+10	1	-1E+10	1	-1E+10	1	-1E+10	1
4902554	88	C	07/16/2023	05:02	-132.602	47.638	0	1695.30	0	2.1590	0	34.5460	0	27.604	0	1674.329	0	-1e10	8	-1e10	8	-1E+10	1	-1E+10	1	-1E+10	1	-1E+10	1	-1E+10	1	-1E+10	1
4902554	88	C	07/16/2023	05:02	-132.602	47.638	0	1705.40	0	2.1480	0	34.5480	0	27.607	0	1684.264	0	-1e10	8	-1e10	8	-1E+10	1	-1E+10	1	-1E+10	1	-1E+10	1	-1E+10	1	-1E+10	1
4902554	88	C	07/16/2023	05:02	-132.602	47.638	0	1715.40	0	2.1390	0	34.5490	0	27.608	0	1694.100	0	-1e10	8	-1e10	8	-1E+10	1	-1E+10	1	-1E+10	1	-1E+10	1	-1E+10	1	-1E+10	1
4902554	88	C	07/16/2023	05:02	-132.602	47.638	0	1725.10	0	2.1290	0	34.5510	0	27.611	0	1703.641	0	-1e10	8	-1e10	8	-1E+10	1	-1E+10	1	-1E+10	1	-1E+10	1	-1E+10	1	-1E+10	1
4902554	88	C	07/16/2023	05:02	-132.602	47.638	0	1735.30	0	2.1210	0	34.5520	0	27.612	0	1713.673	0	-1e10	8	-1e10	8	-1E+10	1	-1E+10	1	-1E+10	1	-1E+10	1	-1E+10	1	-1E+10	1
4902554	88	C	07/16/2023	05:02	-132.602	47.638	0	1745.50	0	2.1180	0	34.5530	0	27.614	0	1723.704	0	-1e10	8	-1e10	8	-1E+10	1	-1E+10	1	-1E+10	1	-1E+10	1	-1E+10	1	-1E+10	1
4902554	88	C	07/16/2023	05:02	-132.602	47.638	0	1755.50	0	2.1090	0	34.5550	0	27.616	0	1733.539	0	-1e10	8	-1e10	8	-1E+10	1	-1E+10	1	-1E+10	1	-1E+10	1	-1E+10	1	-1E+10	1
4902554	88	C	07/16/2023	05:02	-132.602	47.638	0	1765.60	0	2.1000	0	34.5570	0	27.618	0	1743.471	0	-1e10	8	-1e10	8	-1E+10	1	-1E+10	1	-1E+10	1	-1E+10	1	-1E+10	1	-1E+10	1
4902554	88	C	07/16/2023	05:02	-132.602	47.638	0	1775.60	0	2.0920	0	34.5580	0	27.620	0	1753.304	0	-1e10	8	-1e10	8	-1E+10	1	-1E+10	1	-1E+10	1	-1E+10	1	-1E+10	1	-1E+10	1
4902554	88	C	07/16/2023	05:02	-132.602	47.638	0	1785.50	0	2.0830	0	34.5600	0	27.622	0	1763.039	0	-1e10	8	-1e10	8	-1E+10	1	-1E+10	1	-1E+10	1	-1E+10	1	-1E+10	1	-1E+10	1
4902554	88	C	07/16/2023	05:02	-132.602	47.638	0	1795.40	0	2.0750	0	34.5620	0	27.624	0	1772.773	0	-1e10	8	-1e10	8	-1E+10	1	-1E+10	1	-1E+10	1	-1E+10	1	-1E+10	1	-1E+10	1
4902554	88	C	07/16/2023	05:02	-132.602	47.638	0	1805.50	0	2.0700	0	34.5630	0	27.626	0	1782.704	0	-1e10	8	-1e10	8	-1E+10	1	-1E+10	1	-1E+10	1	-1E+10	1	-1E+10	1	-1E+10	1
4902554	88	C	07/16/2023	05:02	-132.602	47.638	0	1815.50	0	2.0620	0	34.5640	0	27.627	0	1792.535	0	-1e10	8	-1e10	8	-1E+10	1	-1E+10	1	-1E+10	1	-1E+10	1	-1E+10	1	-1E+10	1
4902554	88	C	07/16/2023	05:02	-132.602	47.638	0	1825.60	0	2.0530	0	34.5660	0	27.629	0	1802.465	0	-1e10	8	-1e10	8	-1E+10	1	-1E+10	1	-1E+10	1	-1E+10	1	-1E+10	1	-1E+10	1
4902554	88	C	07/16/2023	05:02	-132.602	47.638	0	1835.40	0	2.0460	0	34.5680	0	27.632	0	1812.099	0	-1e10	8	-1e10	8	-1E+10	1	-1E+10	1	-1E+10	1	-1E+10	1	-1E+10	1	-1E+10	1
4902554	88	C	07/16/2023	05:02	-132.602	47.638	0	1845.40	0	2.0360	0	34.5690	0	27.633	0	1821.929	0	-1e10	8	-1e10	8	-1E+10	1	-1E+10	1	-1E+10	1	-1E+10	1	-1E+10	1	-1E+10	1
4902554	88	C	07/16/2023	05:02	-132.602	47.638	0	1855.50	0	2.0290	0	34.5710	0	27.636	0	1831.857	0	-1e10	8	-1e10	8	-1E+10	1	-1E+10	1	-1E+10	1	-1E+10	1	-1E+10	1	-1E+10	1
4902554	88	C	07/16/2023	05:02	-132.602	47.638	0	1865.30	0	2.0220	0	34.5720	0	27.637	0	1841.490	0	-1e10	8	-1e10	8	-1E+10	1	-1E+10	1	-1E+10	1	-1E+10	1	-1E+10	1	-1E+10	1
4902554	88	C	07/16/2023	05:02	-132.602	47.638	0	1875.40	0	2.0160	0	34.5730	0	27.638	0	1851.417	0	-1e10	8	-1e10	8	-1E+10	1	-1E+10	1	-1E+10	1	-1E+10	1	-1E+10	1	-1E+10	1
4902554	88	C	07/16/2023	05:02	-132.602	47.638	0	1885.40	0	2.0050	0	34.5760	0	27.642	0	1861.245	0	-1e10	8	-1e10	8	-1E+10	1	-1E+10	1	-1E+10	1	-1E+10	1	-1E+10	1	-1E+10	1
4902554	88	C	07/16/2023	05:02	-132.602	47.638	0	1895.40	0	1.9970	0	34.5770	0	27.643	0	1871.073	0	-1e10	8	-1e10	8	-1E+10	1	-1E+10	1	-1E+10	1	-1E+10	1	-1E+10	1	-1E+10	1
4902554	88	C	07/16/2023	05:02	-132.602	47.638	0	1905.10	0	1.9910	0	34.5790	0	27.645	0	1880.606	0	-1e10	8	-1e10	8	-1E+10	1	-1E+10	1	-1E+10	1	-1E+10	1	-1E+10	1	-1E+10	1
4902554	88	C	07/16/2023	05:02	-132.602	47.638	0	1915.10	0	1.9820	0	34.5810	0	27.647	0	1890.433	0	-1e10	8	-1e10	8	-1E+10	1	-1E+10	1	-1E+10	1	-1E+10	1	-1E+10	1	-1E+10	1
4902554	88	C	07/16/2023	05:02	-132.602	47.638	0	1925.50	0	1.9740	0	34.5820	0	27.649	0	1900.652	0	-1e10	8	-1e10	8	-1E+10	1	-1E+10	1	-1E+10	1	-1E+10	1	-1E+10	1	-1E+10	1
4902554	88	C	07/16/2023	05:02	-132.602	47.638	0	1935.80	0	1.9690	0	34.5840	0	27.651	0	1910.773	0	-1e10	8	-1e10	8	-1E+10	1	-1E+10	1	-1E+10	1	-1E+10	1	-1E+10	1	-1E+10	1
4902554	88	C	07/16/2023	05:02	-132.602	47.638	0	1945.80	0	1.9660	0	34.5840	0	27.651	0	1920.599	0	-1e10	8	-1e10	8	-1E+10	1	-1E+10	1	-1E+10	1	-1E+10	1	-1E+10	1	-1E+10	1
4902554	88	C	07/16/2023	05:02	-132.602	47.638	0	1955.50	0	1.9600	0	34.5850	0	27.653	0	1930.129	0	-1e10	8	-1e10	8	-1E+10	1	-1E+10	1	-1E+10	1	-1E+10	1	-1E+10	1	-1E+10	1
4902554	88	C	07/16/2023	05:02	-132.602	47.638	0	1965.40	0	1.9520	0	34.5870	0	27.655	0	1939.856	0	-1e10	8	-1e10	8	-1E+10	1	-1E+10	1	-1E+10	1	-1E+10	1	-1E+10	1	-1E+10	1
4902554	88	C	07/16/2023	05:02	-132.602	47.638	0	1976.00	0	1.9460	0	34.5880	0	27.656	0	1950.270	0	-1e10	8	-1e10	8	-1E+10	1	-1E+10	1	-1E+10	1	-1E+10	1	-1E+10	1	-1E+10	1
4902554	88	C	07/16/2023	05:02	-132.602	47.638	0	1982.40	0	1.9430	0	34.5890	0	27.657	0	1956.557	0	-1e10	8	-1e10	8	-1E+10	1	-1E+10	1	-1E+10	1	-1E+10	1	-1E+10	1	-1E+10	1
4902554	88	C	07/16/2023	05:02	-132.602	47.638	0																										
4902554	89	C	07/26/2023	10:05	-132.565	47.742	0	0.20	0	16.4220	0	32.3640	0	23.626	0	0.198	0	-1e10	8	-1e10	8	-1E+10	1	-1E+10	1	-1E+10	1	-1E+10	1	-1E+10	1	-1E+10	1
4902554	89	C	07/26/2023	10:05	-132.565	47.742	0	0.30	0	16.4230	0	32.3610	0	23.624	0	0.297	0	-1e10	1	-1e10	1	-1E+10	1	-1E+10	1	-1E+10	1	-1E+10	1	-1E+10	1	-1E+10	1
4902554	89	C	07/26/2023	10:05	-132.565	47.742	0	0.40	0	16.4300	0	32.2550	0	23.541	0	0.397	0	-1e10	8	-1e10	8	-1E+10	1	-1E+10	1	-1E+10	1	-1E+10	1	-1E+10	1	-1E+10	1
4902554	89	C	07/26/2023	10:05	-132.565	47.742	0	1.20	0	16.4130	0	32.2370	0	23.531	0	1.190	0	-1e10	8	-1e10	8	-1E+10	1	-1E+10	1	-1E+10	1	-1E+10	1	-1E+10	1	-1E+10	1
4902554	89	C	07/26/2023	10:05	-132.565	47.742	0	2.10	0	16.4140	0	32.2250	0	23.522	0	2.082	0	-1e10	8	-1e10	8	-1E+10	1	-1E+10	1	-1E+10	1	-1E+10	1	-1E+10	1	-1E+10	1
4902554	89	C	07/26/2023	10:05	-132.565	47.742	0	2.90	0	16.3790	0	32.2490	0	23.548	0	2.876	0	-1e10	8	-1e10	8	-1E+10	1	-1E+10	1	-1E+10	1	-1E+10	1	-1E+10	1	-1E+10	1
4902554	89	C	07/26/2023	10:05	-132.565	47.742	0	4.00	0	16.3420	0	32.2950	0	23.592	0	3.966	0	-1e10	8	-1e10	8	-1E+10	1	-1E+10	1	-1E+10	1	-1E+10	1	-1E+10	1	-1E+10	1
4902554	89	C	07/26/2023	10:05	-132.565	47.742	0	5.10	0	16.1800	0	32.3620	0	23.680	0	5.057	0	-1e10	8	-1e10	8	-1E+10	1	-1E+10	1	-1E+10	1	-1E+10	1	-1E+10	1	-1E+10	1
4902554	89	C	07/26/2023	10:05	-132.565	47.742	0	5.90	0	16.0500	0	32.3620	0	23.709	0	5.851	0	-1e10	8	-1e10	8	-1E+10	1	-1E+10	1	-1E+10	1	-1E+10	1	-1E+10	1	-1E+10	1
4902554	89	C	07/26/2023	10:05	-132.565	47.742	0	6.70	0	16.0340	0	32.3610	0	23.712	0	6.644	0	-1e10	8	-1e10	8	-1E+10	1	-1E+10	1	-1E+10	1	-1E+10	1	-1E+10	1	-1E+10	1
4902554	89	C	07/26/2023	10:05	-132.565	47.742	0	7.70	0	16.0230	0	32.3610	0	23.715	0	7.635	0	-1e10	8	-1e10	8	-1E+10	1	-1E+10	1	-1E+10	1	-1E+10	1	-1E+10	1	-1E+10	1
4902554	89	C	07/26/2023	10:05	-132.565	47.742	0	8.80	0	16.0100	0	32.3600	0	23.717	0	8.726	0	-1e10	8	-1e10	8	-1E+10	1	-1E+10	1	-1E+10	1	-1E+10	1	-1E+10	1	-1E+10	1
4902554	89	C	07/26/2023	10:05	-132.565	47.742	0	9.70	0	15.9940	0	32.3600	0	23.720	0	9.619	0	-1e10	8	-1e10	8	-1E+10	1	-1E+10	1	-1E+10	1	-1E+10	1	-1E+10	1	-1E+10	1
4902554	89	C	07/26/2023	10:05	-132.565	47.742	0	10.90	0	15.9810	0	32.3610	0	23.724	0	10.809	0	-1e10	8	-1e10	8	-1E+10	1	-1E+10	1	-1E+10	1	-1E+10	1	-1E+10	1	-1E+10	1
4902554	89	C	07/26/2023	10:05	-132.565	47.742	0	12.00	0	15.9730	0	32.3610	0	23.726	0	11.899	0	-1e10	8	-1e10	8	-1E+10	1	-1E+10	1	-1E+10	1	-1E+10	1	-1E+10	1	-1E+10	1
4902554	89	C	07/26/2023	10:05	-132.565	47.742	0	13.10	0	15.9650	0	32.3600	0	23.727	0	12.990	0	-1e10	8	-1e10	8	-1E+10	1	-1E+10	1	-1E+10	1	-1E+10	1	-1E+10	1	-1E+10	1
4902554	89	C	07/26/2023	10:05	-132.565	47.742	0	13.90	0	15.9580	0	32.3600	0	23.729	0	13.783	0	-1e10	8	-1e10	8	-1E+10	1	-1E+10	1	-1E+10	1	-1E+10	1	-1E+10	1	-1E+10	1
4902554	89	C	07/26/2023	10:05	-132.565	47.742	0	15.00	0	15.9510	0	32.3600	0	23.730	0	14.874	0	-1e10	8	-1e10	8	-1E+10	1	-1E+10	1	-1E+10	1	-1E+10	1	-1E+10	1	-1E+10	1
4902554	89	C	07/26/2023	10:05	-132.565	47.742	0	15.90	0	15.9420	0	32.3550	0	23.728	0	15.766	0	-1e10	8	-1e10	8	-1E+10	1	-1E+10	1	-1E+10	1	-1E+10	1	-1E+10	1	-1E+10	1
4902554	89	C	07/26/2023	10:05	-132.565	47.742	0	17.10	0	15.4820	0	32.3530	0	23.829	0	16.956	0	-1e10	8	-1e10	8	-1E+10	1	-1E+10	1	-1E+10	1	-1E+10	1	-1E+10	1	-1E+10	1
4902554	89	C	07/26/2023	10:05	-132.565	47.742	0	18.00	0	14.6410	0	32.3630	0	24.018	0	17.849	0	-1e10	8	-1e10	8	-1E+10	1	-1E+10	1	-1E+10	1	-1E+10	1	-1E+10	1	-1E+10	1
4902554	89	C	07/26/2023	10:05	-132.565	47.742	0	18.80	0	14.2280	0	32.3540	0	24.097	0	18.642	0	-1e10	8	-1e10	8	-1E+10	1	-1E+10	1	-1E+10	1	-1E+10	1	-1E+10	1	-1E+10	1
4902554	89	C	07/26/2023	10:05	-132.565	47.742	0	19.90	0	13.3750	0	32.3760	0	24.288	0	19.733	0	-1e10	8	-1e10	8	-1E+10	1	-1E+10	1	-1E+10	1	-1E+10	1	-1E+10	1	-1E+10	1
4902554	89	C	07/26/2023	10:05	-132.565	47.742	0	21.00	0	12.9450	0	32.3980	0	24.390	0	20.823	0	-1e10	8	-1e10	8	-1E+10	1	-1E+10	1	-1E+10	1	-1E+10	1	-1E+10	1	-1E+10	1
4902554	89	C	07/26/2023	10:05	-132.565	47.742	0	21.70	0	12.7640	0	32.3830	0	24.413	0	21.517	0	-1e10	8	-1e10	8	-1E+10	1	-1E+10	1	-1E+10	1	-1E+10	1	-1E+10	1	-1E+10	1
4902554	89	C	07/26/2023	10:05	-132.565	47.742	0	22.70	0	12.6020	0	32.3850	0	24.446	0	22.509	0	-1e10	8	-1e10	8	-1E+10	1	-1E+10	1	-1E+10	1	-1E+10	1	-1E+10	1	-1E+10	1
4902554	89	C	07/26/2023	10:05	-132.565	47.742	0	23.70	0	12.5400	0	32.3860	0	24.459	0	23.500	0	-1e10	8	-1e10	8	-1E+10	1	-1E+10	1	-1E+10	1	-1E+10	1	-1E+10	1	-1E+10	1
4902554	89	C	07/26/2023	10:05	-132.565	47.742	0	24.80	0	12.4380	0	32.3900	0	24.481	0	24.591	0	-1e10	8	-1e10	8	-1E+10	1	-1E+10	1	-1E+10	1	-1E+10	1	-1E+10	1	-1E+10	1
4902554	89	C	07/26/2023	10:05	-132.565	47.742	0	25.80	0	12.3310	0	32.3890	0	24.501	0	25.583	0	-1e10	8	-1e10	8	-1E+10	1	-1E+10	1	-1E+10	1	-1E+10	1	-1E+10	1	-1E+10	1
4902554	89	C	07/26/2023	10:05	-132.565	47.742	0	27.00	0	12.1740	0	32.3870	0	24.529	0	26.772	0	-1e10	8	-1e10	8	-1E+10	1	-1E+10	1	-1E+10	1	-1E+10	1	-1E+10	1	-1E+10	1
4902554	89	C	07/26/2023	10:05	-132.565	47.742	0	27.70	0	12.0350	0	32.3850	0	24.553	0	27.466	0	-1e10	8	-1e10	8	-1E+10	1	-1E+10	1	-1E+10	1	-1E+10	1	-1E+10	1	-1E+10	1
4902554	89	C	07/26/2023	10:05	-132.565	47.742	0	28.70	0	11.7910	0	32.3780	0	24.593	0	28.458	0	-1e10	8	-1e10	8	-1E+10	1	-1E+10	1	-1E+10	1	-1E+10	1	-1E+10	1	-1E+10	1
4902554	89	C	07/26/2023	10:05	-132.565	47.742	0	29.90	0	11.3380	0	32.3850	0	24.681	0	29.648	0	-1e10	8	-1e10	8	-1E+10	1	-1E+10	1	-1E+10	1	-1E+10	1	-1E+10	1	-1E+10	1
4902554	89	C	07/26/2023	10:05	-132.565	47.742	0	31.00	0	10.9990	0	32.3790	0	24.736	0	30.738	0	-1e10	8	-1e10	8	-1E+10	1	-1E+10	1	-1E+10	1	-1E+10	1	-1E+10	1	-1E+10	1
4902554	89	C	07/26/2023	10:05	-132.565	47.742	0	32.10	0	10.3500	0	32.3810	0	24.850	0	31.829	0	-1e10	8	-1e10	8	-1E+10	1	-1E+10	1	-1E+10	1	-1E+10	1	-1E+10	1	-1E+10	1
4902554	89	C	07/26/2023	10:05	-132.565	47.742	0	33.00	0	10.0170	0	32.3830	0	24.907	0	32.721	0	-1e10	8	-1e10	8	-1E+10	1	-1E+10	1	-1E+10	1	-1E+10	1	-1E+10	1	-1E+10	1
4902554	89	C	07/26/2023	10:05	-132.565	47.742	0	33.90	0	9.7440	0	32.3860	0	24.954	0	33.614	0	-1e10	8	-1e10	8	-1E+10	1	-1E+10	1	-1E+10	1	-1E+10	1	-1E+10	1	-1E+10	1
4902554	89	C	07/26/2023	10:05	-132.565	47.742	0	35.00	0	9.6080	0	32.3850	0	24.976	0	34.704	0	-1e10	8	-1e10	8	-1E+10	1	-1E+10	1	-1E+10	1	-1E+10	1	-1E+10	1	-1E+10	1
4902554	89	C	07/26/2023	10:05	-132.565	47.742	0	35.90	0	9.4610	0	32.3850	0	24.999	0	35.596	0	-1e10	8	-1e10	8	-1E+10	1	-1E+10	1	-1E+10	1	-1E+10	1	-1E+10	1	-1E+10	1
4902554	89	C	07/26/2023	10:05	-132.565	47.742	0	36.90	0	9.3200	0	32.3830	0	25.020	0	36.588	0	-1e10	8	-1e10	8	-1E+10	1	-1E+10	1	-1E+10	1	-1E+10	1	-1E+10	1	-1E+10	1
4902554	89	C	07/26/2023	10:05	-132.565	47.742	0	37.90	0	9.2460	0	32.3800	0	25.030	0	37.579	0	-1e10	8	-1e10	8	-1E+10	1	-1E+10	1	-1E+10	1	-1E+10	1	-1E+10	1	-1E+10	1
4902554	89	C	07/26/2023	10:05	-132.565	47.742	0	39.00	0	8.9720	0	32.3830	0	25.075	0	38.670	0	-1e10	8	-1e10	8	-1E+10	1	-1E+10	1	-1E+10	1	-1E+10	1	-1E+10	1	-1E+10	1
4902554	89	C	07/26/2023	10:05	-132.565	47.742	0	39.90	0	8.7810	0	32.3870	0	25.107	0	39.562	0	-1e10	8	-1e10	8	-1E+10	1	-1E+10	1	-1E+10	1	-1E+10	1	-1E+10	1	-1E+10	1
4902554	89	C	07/26/2023	10:05	-132.565	47.742	0	40.90	0	8.7210	0	32.3850	0	25.115	0	40.554	0	-1e10	8	-1e10	8	-1E+10	1	-1E+10	1	-1E+10	1	-1E+10	1	-1E+10	1	-1E+10	1
4902554	89	C	07/26/2023	10:05	-132.565	47.742	0	41.80	0	8.6590	0	32.3860	0	25.125	0	41.446	0	-1e10	8	-1e10	8	-1E+10	1	-1E+10	1	-1E+10	1	-1E+10	1	-1E+10	1	-1E+10	1
4902554	89	C	07/26/2023	10:05	-132.565	47.742	0	42.80	0	8.5790	0	32.3890	0	25.139	0	42.437	0	-1e10	8	-1e10	8	-1E+10	1	-1E+10	1	-1E+10	1	-1E+10	1	-1E+10	1	-1E+10	1
4902554	89	C	07/26/2023	10:05	-132.565	47.742	0	43.80	0	8.4630	0	32.3940	0	25.161	0	43.429	0	-1e10	8	-1e10	8	-1E+10	1	-1E+10	1	-1E+10	1	-1E+10	1	-1E+10	1	-1E+10	1
4902554	89	C	07/26/2023	10:05	-132.565	47.742	0	44.80	0	8.3230	0	32.3890	0	25.178	0	44.420	0	-1e10	8	-1e10	8	-1E+10	1	-1E+10	1	-1E+10	1	-1E+10	1	-1E+10	1	-1E+10	1
4902554	89	C	07/26/2023	10:05	-132.565	47.742	0	45.90	0	8.2810	0	32.3850	0	25.181	0	45.511	0	-1e10	8	-1e10	8	-1E+10	1	-1E+10	1	-1E+10	1	-1E+10	1	-1E+10	1	-1E+10	1
4902554	89	C	07/26/2023	10:05	-132.565	47.742	0	46.90	0	8.2490	0	32.3850	0	25.185	0	46.502	0	-1e10	8	-1e10	8	-1E+10	1	-1E+10	1	-1E+10	1	-1E+10	1	-1E+10	1	-1E+10	1
4902554	89	C	07/26/2023	10:05	-132.565	47.742	0	47.90	0	8.2040	0	32.3870	0	25.194	0	47.494	0	-1e10	8	-1e10	8	-1E+10	1	-1E+10	1	-1E+10	1	-1E+10	1	-1E+10	1	-1E+10	1
4902554	89	C	07/26/2023	10:05	-132.565	47.742	0	48.90	0	8.1630	0	32.3840	0	25.197	0	48.485	0	-1e10	8	-1e10	8	-1E+10	1	-1E+10	1	-1E+10	1	-1E+10	1	-1E+10	1	-1E+10	1
4902554	89	C	07/26/2023	10:05	-132.565	47.742	0	50.00	0	8.0980	0	32.3860	0	25.208	0	49.576	0	-1e10	8	-1e10	8	-1E+10	1	-1E+10	1	-1E+10	1	-1E+10	1	-1E+10	1	-1E+10	1
4902554	89	C	07/26/2023	10:05	-132.565	47.742	0	50.90	0	8.0290	0	32.3880	0	25.220	0	50.468	0	-1e10	8	-1e10	8	-1E+10	1	-1E+10	1	-1E+10	1	-1E+10	1	-1E+10	1	-1E+10	1
4902554	89	C	07/26/2023	10:05	-132.565	47.742	0	52.00	0	7.9870	0	32.3910	0	25.228	0	51.558	0	-1e10	8	-1e10	8	-1E+10	1	-1E+10	1	-1E+10	1	-1E+10	1	-1E+10	1	-1E+10	1
4902554	89	C	07/26/2023	10:05	-132.565	47.742	0	52.90	0	7.9430	0	32.3900	0	25.234	0	52.451	0	-1e10	8	-1e10	8	-1E+10	1	-1E+10	1	-1E+10	1	-1E+10	1	-1E+10	1	-1E+10	1
4902554	89	C	07/26/2023	10:05	-132.565	47.742	0	54.00	0	7.9090	0	32.3910	0	25.239	0	53.541	0	-1e10	8	-1e10	8	-1E+10	1	-1E+10	1	-1E+10	1	-1E+10	1	-1E+10	1	-1E+10	1
4902554	89	C	07/26/2023	10:05	-132.565	47.742	0	54.90	0	7.8150	0	32.3970	0	25.258	0	54.433	0	-1e10	8	-1e10	8	-1E+10	1	-1E+10	1	-1E+10	1	-1E+10	1	-1E+10	1	-1E+10	1
4902554	89	C	07/26/2023	10:05	-132.565	47.742	0	55.90	0	7.7650	0	32.3950	0	25.263	0	55.425	0	-1e10	8	-1e10	8	-1E+10	1	-1E+10	1	-1E+10	1	-1E+10	1	-1E+10	1	-1E+10	1
4902554	89	C	07/26/2023	10:05	-132.565	47.742	0	56.90	0	7.7300	0	32.3940	0	25.267	0	56.416	0	-1e10	8	-1e10	8	-1E+10	1	-1E+10	1	-1E+10	1	-1E+10	1	-1E+10	1	-1E+10	1
4902554	89	C	07/26/2023	10:05	-132.565	47.742	0	57.90	0	7.6990	0	32.3910	0	25.269	0	57.407	0	-1e10	8	-1e10	8	-1E+10	1	-1E+10	1	-1E+10	1	-1E+10	1	-1E+10	1	-1E+10	1
4902554	89	C	07/26/2023	10:05	-132.565	47.742	0	58.90	0	7.6600	0	32.3960	0	25.279	0	58.399	0	-1e10	8	-1e10	8	-1E+10	1	-1E+10	1	-1E+10	1	-1E+10	1	-1E+10	1	-1E+10	1
4902554	89	C	07/26/2023	10:05	-132.565	47.742	0	60.00	0	7.6180	0	32.3980	0	25.286	0	59.489	0	-1e10	8	-1e10	8	-1E+10	1	-1E+10	1	-1E+10	1	-1E+10	1	-1E+10	1	-1E+10	1
4902554	89	C	07/26/2023	10:05	-132.565	47.742	0	61.00	0	7.5970	0	32.3990	0	25.290	0	60.481	0	-1e10	8	-1e10	8	-1E+10	1	-1E+10	1	-1E+10	1	-1E+10	1	-1E+10	1	-1E+10	1
4902554	89	C	07/26/2023	10:05	-132.565	47.742	0	62.00	0	7.5890	0	32.3980	0	25.290	0	61.472	0	-1e10	8	-1e10	8	-1E+10	1	-1E+10	1	-1E+10	1	-1E+10	1	-1E+10	1	-1E+10	1
4902554	89	C	07/26/2023	10:05	-132.565	47.742	0	63.00	0	7.5750	0	32.3980	0	25.292	0	62.463	0	-1e10	8	-1e10	8	-1E+10	1	-1E+10	1	-1E+10	1	-1E+10	1	-1E+10	1	-1E+10	1
4902554	89	C	07/26/2023	10:05	-132.565	47.742	0	64.10	0	7.5580	0	32.3980	0	25.295	0	63.554	0	-1e10	8	-1e10	8	-1E+10	1	-1E+10	1	-1E+10	1	-1E+10	1	-1E+10	1	-1E+10	1
4902554	89	C	07/26/2023	10:05	-132.565	47.742	0	65.10	0	7.5350	0	32.3980	0	25.298	0	64.545	0	-1e10	8	-1e10	8	-1E+10	1	-1E+10	1	-1E+10	1	-1E+10	1	-1E+10	1	-1E+10	1
4902554	89	C	07/26/2023	10:05	-132.565	47.742	0	66.00	0	7.5150	0	32.3980	0	25.301	0	65.437	0	-1e10	8	-1e10	8	-1E+10	1	-1E+10	1	-1E+10	1	-1E+10	1	-1E+10	1	-1E+10	1
4902554	89	C	07/26/2023	10:05	-132.565	47.742	0	66.80	0	7.4880	0	32.3970	0	25.304	0	66.230	0	-1e10	8	-1e10	8	-1E+10	1	-1E+10	1	-1E+10	1	-1E+10	1	-1E+10	1	-1E+10	1
4902554	89	C	07/26/2023	10:05	-132.565	47.742	0	68.10	0	7.4210	0	32.3970	0	25.313	0	67.519	0	-1e10	8	-1e10	8	-1E+10	1	-1E+10	1	-1E+10	1	-1E+10	1	-1E+10	1	-1E+10	1
4902554	89	C	07/26/2023	10:05	-132.565	47.742	0	69.20	0	7.4010	0	32.3990	0	25.317	0	68.609	0	-1e10	8	-1e10	8	-1E+10	1	-1E+10	1	-1E+10	1	-1E+10	1	-1E+10	1	-1E+10	1
4902554	89	C	07/26/2023	10:05	-132.565	47.742	0	69.90	0	7.3960	0	32.4000	0	25.319	0	69.303	0	-1e10	8	-1e10	8	-1E+10	1	-1E+10	1	-1E+10	1	-1E+10	1	-1E+10	1	-1E+10	1
4902554	89	C	07/26/2023	10:05	-132.565	47.742	0	71.10	0	7.3930	0	32.4010	0	25.320	0	70.493	0	-1e10	8	-1e10	8	-1E+10	1	-1E+10	1	-1E+10	1	-1E+10	1	-1E+10	1	-1E+10	1
4902554	89	C	07/26/2023	10:05	-132.565	47.742	0	72.00	0	7.3870	0	32.4000	0	25.320	0	71.385	0	-1e10	8	-1e10	8	-1E+10	1	-1E+10	1	-1E+10	1	-1E+10	1	-1E+10	1	-1E+10	1
4902554	89	C	07/26/2023	10:05	-132.565	47.742	0	73.10	0	7.3620	0	32.3990	0	25.323	0	72.475	0	-1e10	8	-1e10	8	-1E+10	1	-1E+10	1	-1E+10	1	-1E+10	1	-1E+10	1	-1E+10	1
4902554	89	C	07/26/2023	10:05	-132.565	47.742	0	74.00	0	7.3240	0	32.3970	0	25.326	0	73.368	0	-1e10	8	-1e10	8	-1E+10	1	-1E+10	1	-1E+10	1	-1E+10	1	-1E+10	1	-1E+10	1
4902554	89	C	07/26/2023	10:05	-132.565	47.742	0	75.00	0	7.3810	0	32.4100	0	25.329	0	74.359	0	-1e10	8	-1e10	8	-1E+10	1	-1E+10	1	-1E+10	1	-1E+10	1	-1E+10	1	-1E+10	1
4902554	89	C	07/26/2023	10:05	-132.565	47.742	0	76.00	0	7.3790	0	32.4140	0	25.332	0	75.350	0	-1e10	8	-1e10	8	-1E+10	1	-1E+10	1	-1E+10	1	-1E+10	1	-1E+10	1	-1E+10	1
4902554	89	C	07/26/2023	10:05	-132.565	47.742	0	77.00	0	7.3780	0	32.4140	0	25.332	0	76.341	0	-1e10	8	-1e10	8	-1E+10	1	-1E+10	1	-1E+10	1	-1E+10	1	-1E+10	1	-1E+10	1
4902554	89	C	07/26/2023	10:05	-132.565	47.742	0	78.00	0	7.3920	0	32.4200	0	25.335	0	77.333	0	-1e10	8	-1e10	8	-1E+10	1	-1E+10	1	-1E+10	1	-1E+10	1	-1E+10	1	-1E+10	1
4902554	89	C	07/26/2023	10:05	-132.565	47.742	0	79.00	0	7.3890	0	32.4210	0	25.336	0	78.324	0	-1e10	8	-1e10	8	-1E+10	1	-1E+10	1	-1E+10	1	-1E+10	1	-1E+10	1	-1E+10	1
4902554	89	C	07/26/2023	10:05	-132.565	47.742	0	80.00	0	7.3910	0	32.4220	0	25.337	0	79.315	0	-1e10	8	-1e10	8	-1E+10	1	-1E+10	1	-1E+10	1	-1E+10	1	-1E+10	1	-1E+10	1
4902554	89	C	07/26/2023	10:05	-132.565	47.742	0	81.00	0	7.3910	0	32.4220	0	25.337	0	80.306	0	-1e10	8	-1e10	8	-1E+10	1	-1E+10	1	-1E+10	1	-1E+10	1	-1E+10	1	-1E+10	1
4902554	89	C	07/26/2023	10:05	-132.565	47.742	0	81.90	0	7.3880	0	32.4240	0	25.339	0	81.199	0	-1e10	8	-1e10	8	-1E+10	1	-1E+10	1	-1E+10	1	-1E+10	1	-1E+10	1	-1E+10	1
4902554	89	C	07/26/2023	10:05	-132.565	47.742	0	83.10	0	7.3760	0	32.4260	0	25.342	0	82.388	0	-1e10	8	-1e10	8	-1E+10	1	-1E+10	1	-1E+10	1	-1E+10	1	-1E+10	1	-1E+10	1
4902554	89	C	07/26/2023	10:05	-132.565	47.742	0	83.90	0	7.3700	0	32.4250	0	25.342	0	83.181	0	-1e10	8	-1e10	8	-1E+10	1	-1E+10	1	-1E+10	1	-1E+10	1	-1E+10	1	-1E+10	1
4902554	89	C	07/26/2023	10:05	-132.565	47.742	0	85.20	0	7.3610	0	32.4240	0	25.343	0	84.470	0	-1e10	8	-1e10	8	-1E+10	1	-1E+10	1	-1E+10	1	-1E+10	1	-1E+10	1	-1E+10	1
4902554	89	C	07/26/2023	10:05	-132.565	47.742	0	85.90	0	7.3370	0	32.4230	0	25.345	0	85.163	0	-1e10	8	-1e10	8	-1E+10	1	-1E+10	1	-1E+10	1	-1E+10	1	-1E+10	1	-1E+10	1
4902554	89	C	07/26/2023	10:05	-132.565	47.742	0	87.10	0	7.2850	0	32.4210	0	25.351	0	86.353	0	-1e10	8	-1e10	8	-1E+10	1	-1E+10	1	-1E+10	1	-1E+10	1	-1E+10	1	-1E+10	1
4902554	89	C	07/26/2023	10:05	-132.565	47.742	0	87.90	0	7.2900	0	32.4250	0	25.353	0	87.146	0	-1e10	8	-1e10	8	-1E+10	1	-1E+10	1	-1E+10	1	-1E+10	1	-1E+10	1	-1E+10	1
4902554	89	C	07/26/2023	10:05	-132.565	47.742	0	89.10	0	7.2930	0	32.4270	0	25.354	0	88.335	0	-1e10	8	-1e10	8	-1E+10	1	-1E+10	1	-1E+10	1	-1E+10	1	-1E+10	1	-1E+10	1
4902554	89	C	07/26/2023	10:05	-132.565	47.742	0	90.00	0	7.2820	0	32.4200	0	25.350	0	89.227	0	-1e10	8	-1e10	8	-1E+10	1	-1E+10	1	-1E+10	1	-1E+10	1	-1E+10	1	-1E+10	1
4902554	89	C	07/26/2023	10:05	-132.565	47.742	0	91.10	0	7.2570	0	32.4240	0	25.357	0	90.318	0	-1e10	8	-1e10	8	-1E+10	1	-1E+10	1	-1E+10	1	-1E+10	1	-1E+10	1	-1E+10	1
4902554	89	C	07/26/2023	10:05	-132.565	47.742	0	92.10	0	7.2020	0	32.4240	0	25.364	0	91.309	0	-1e10	8	-1e10	8	-1E+10	1	-1E+10	1	-1E+10	1	-1E+10	1	-1E+10	1	-1E+10	1
4902554	89	C	07/26/2023	10:05	-132.565	47.742	0	93.00	0	7.1870	0	32.4240	0	25.366	0	92.201	0	-1e10	8	-1e10	8	-1E+10	1	-1E+10	1	-1E+10	1	-1E+10	1	-1E+10	1	-1E+10	1
4902554	89	C	07/26/2023	10:05	-132.565	47.742	0	93.80	0	7.1930	0	32.4270	0	25.368	0	92.994	0	-1e10	8	-1e10	8	-1E+10	1	-1E+10	1	-1E+10	1	-1E+10	1	-1E+10	1	-1E+10	1
4902554	89	C	07/26/2023	10:05	-132.565	47.742	0	94.90	0	7.1880	0	32.4290	0	25.370	0	94.084	0	-1e10	8	-1e10	8	-1E+10	1	-1E+10	1	-1E+10	1	-1E+10	1	-1E+10	1	-1E+10	1
4902554	89	C	07/26/2023	10:05	-132.565	47.742	0	96.00	0	7.1560	0	32.4260	0	25.372	0	95.175	0	-1e10	8	-1e10	8	-1E+10	1	-1E+10	1	-1E+10	1	-1E+10	1	-1E+10	1	-1E+10	1
4902554	89	C	07/26/2023	10:05	-132.565	47.742	0	96.90	0	7.0640	0	32.4240	0	25.383	0	96.067	0	-1e10	8	-1e10	8	-1E+10	1	-1E+10	1	-1E+10	1	-1E+10	1	-1E+10	1	-1E+10	1
4902554	89	C	07/26/2023	10:05	-132.565	47.742	0	97.70	0	7.0740	0	32.4300	0	25.386	0	96.860	0	-1e10	8	-1e10	8	-1E+10	1	-1E+10	1	-1E+10	1	-1E+10	1	-1E+10	1	-1E+10	1
4902554	89	C	07/26/2023	10:05	-132.565	47.742	0	98.90	0	7.0730	0	32.4330	0	25.389	0	98.049	0	-1e10	8	-1e10	8	-1E+10	1	-1E+10	1	-1E+10	1	-1E+10	1	-1E+10	1	-1E+10	1
4902554	89	C	07/26/2023	10:05	-132.565	47.742	0	100.00	0	7.0800	0	32.4420	0	25.395	0	99.139	0	-1e10	8	-1e10	8	-1E+10	1	-1E+10	1	-1E+10	1	-1E+10	1	-1E+10	1	-1E+10	1
4902554	89	C	07/26/2023	10:05	-132.565	47.742	0	101.10	0	7.0870	0	32.4490	0	25.400	0	100.229	0	-1e10	8	-1e10	8	-1E+10	1	-1E+10	1	-1E+10	1	-1E+10	1	-1E+10	1	-1E+10	1
4902554	89	C	07/26/2023	10:05	-132.565	47.742	0	101.90	0	7.0430	0	32.4650	0	25.418	0	101.022	0	-1e10	8	-1e10	8	-1E+10	1	-1E+10	1	-1E+10	1	-1E+10	1	-1E+10	1	-1E+10	1
4902554	89	C	07/26/2023	10:05	-132.565	47.742	0	102.70	0	7.0580	0	32.4870	0	25.433	0	101.815	0	-1e10	8	-1e10	8	-1E+10	1	-1E+10	1	-1E+10	1	-1E+10	1	-1E+10	1	-1E+10	1
4902554	89	C	07/26/2023	10:05	-132.565	47.742	0	103.70	0	7.0810	0	32.5130	0	25.451	0	102.806	0	-1e10	8	-1e10	8	-1E+10	1	-1E+10	1	-1E+10	1	-1E+10	1	-1E+10	1	-1E+10	1
4902554	89	C	07/26/2023	10:05	-132.565	47.742	0	104.90	0	7.0670	0	32.5450	0	25.478	0	103.996	0	-1e10	8	-1e10	8	-1E+10	1	-1E+10	1	-1E+10	1	-1E+10	1	-1E+10	1	-1E+10	1
4902554	89	C	07/26/2023	10:05	-132.565	47.742	0	106.10	0	7.0190	0	32.5890	0	25.519	0	105.185	0	-1e10	8	-1e10	8	-1E+10	1	-1E+10	1	-1E+10	1	-1E+10	1	-1E+10	1	-1E+10	1
4902554	89	C	07/26/2023	10:05	-132.565	47.742	0	107.10	0	6.9170	0	32.6760	0	25.601	0	106.176	0	-1e10	8	-1e10	8	-1E+10	1	-1E+10	1	-1E+10	1	-1E+10	1	-1E+10	1	-1E+10	1
4902554	89	C	07/26/2023	10:05	-132.565	47.742	0	108.00	0	6.8500	0	32.7330	0	25.655	0	107.068	0	-1e10	8	-1e10	8	-1E+10	1	-1E+10	1	-1E+10	1	-1E+10	1	-1E+10	1	-1E+10	1
4902554	89	C	07/26/2023	10:05	-132.565	47.742	0	108.90	0	6.8020	0	32.7690	0	25.689	0	107.960	0	-1e10	8	-1e10	8	-1E+10	1	-1E+10	1	-1E+10	1	-1E+10	1	-1E+10	1	-1E+10	1
4902554	89	C	07/26/2023	10:05	-132.565	47.742	0	110.00	0	6.7520	0	32.8080	0	25.727	0	109.050	0	-1e10	8	-1e10	8	-1E+10	1	-1E+10	1	-1E+10	1	-1E+10	1	-1E+10	1	-1E+10	1
4902554	89	C	07/26/2023	10:05	-132.565	47.742	0	111.10	0	6.7040	0	32.8470	0	25.764	0	110.141	0	-1e10	8	-1e10	8	-1E+10	1	-1E+10	1	-1E+10	1	-1E+10	1	-1E+10	1	-1E+10	1
4902554	89	C	07/26/2023	10:05	-132.565	47.742	0	112.10	0	6.6480	0	32.8840	0	25.800	0	111.132	0	-1e10	8	-1e10	8	-1E+10	1	-1E+10	1	-1E+10	1	-1E+10	1	-1E+10	1	-1E+10	1
4902554	89	C	07/26/2023	10:05	-132.565	47.742	0	113.00	0	6.6030	0	32.9210	0	25.835	0	112.024	0	-1e10	8	-1e10	8	-1E+10	1	-1E+10	1	-1E+10	1	-1E+10	1	-1E+10	1	-1E+10	1
4902554	89	C	07/26/2023	10:05	-132.565	47.742	0	113.80	0	6.5640	0	32.9530	0	25.866	0	112.817	0	-1e10	8	-1e10	8	-1E+10	1	-1E+10	1	-1E+10	1	-1E+10	1	-1E+10	1	-1E+10	1
4902554	89	C	07/26/2023	10:05	-132.565	47.742	0	115.00	0	6.5270	0	32.9740	0	25.887	0	114.006	0	-1e10	8	-1e10	8	-1E+10	1	-1E+10	1	-1E+10	1	-1E+10	1	-1E+10	1	-1E+10	1
4902554	89	C	07/26/2023	10:05	-132.565	47.742	0	116.00	0	6.4780	0	33.0030	0	25.916	0	114.997	0	-1e10	8	-1e10	8	-1E+10	1	-1E+10	1	-1E+10	1	-1E+10	1	-1E+10	1	-1E+10	1
4902554	89	C	07/26/2023	10:05	-132.565	47.742	0	117.00	0	6.4210	0	33.0410	0	25.953	0	115.988	0	-1e10	8	-1e10	8	-1E+10	1	-1E+10	1	-1E+10	1	-1E+10	1	-1E+10	1	-1E+10	1
4902554	89	C	07/26/2023	10:05	-132.565	47.742	0	118.00	0	6.3840	0	33.0730	0	25.983	0	116.979	0	-1e10	8	-1e10	8	-1E+10	1	-1E+10	1	-1E+10	1	-1E+10	1	-1E+10	1	-1E+10	1
4902554	89	C	07/26/2023	10:05	-132.565	47.742	0	118.90	0	6.3660	0	33.0900	0	25.999	0	117.871	0	-1e10	8	-1e10	8	-1E+10	1	-1E+10	1	-1E+10	1	-1E+10	1	-1E+10	1	-1E+10	1
4902554	89	C	07/26/2023	10:05	-132.565	47.742	0	119.90	0	6.3500	0	33.0960	0	26.006	0	118.862	0	-1e10	8	-1e10	8	-1E+10	1	-1E+10	1	-1E+10	1	-1E+10	1	-1E+10	1	-1E+10	1
4902554	89	C	07/26/2023	10:05	-132.565	47.742	0	120.90	0	6.3330	0	33.1120	0	26.021	0	119.853	0	-1e10	8	-1e10	8	-1E+10	1	-1E+10	1	-1E+10	1	-1E+10	1	-1E+10	1	-1E+10	1
4902554	89	C	07/26/2023	10:05	-132.565	47.742	0	121.90	0	6.3180	0	33.1310	0	26.038	0	120.844	0	-1e10	8	-1e10	8	-1E+10	1	-1E+10	1	-1E+10	1	-1E+10	1	-1E+10	1	-1E+10	1
4902554	89	C	07/26/2023	10:05	-132.565	47.742	0	122.90	0	6.3110	0	33.1390	0	26.045	0	121.835	0	-1e10	8	-1e10	8	-1E+10	1	-1E+10	1	-1E+10	1	-1E+10	1	-1E+10	1	-1E+10	1
4902554	89	C	07/26/2023	10:05	-132.565	47.742	0	124.00	0	6.2970	0	33.1520	0	26.057	0	122.925	0	-1e10	8	-1e10	8	-1E+10	1	-1E+10	1	-1E+10	1	-1E+10	1	-1E+10	1	-1E+10	1
4902554	89	C	07/26/2023	10:05	-132.565	47.742	0	125.00	0	6.2610	0	33.1780	0	26.082	0	123.916	0	-1e10	8	-1e10	8	-1E+10	1	-1E+10	1	-1E+10	1	-1E+10	1	-1E+10	1	-1E+10	1
4902554	89	C	07/26/2023	10:05	-132.565	47.742	0	126.10	0	6.2460	0	33.1880	0	26.092	0	125.007	0	-1e10	8	-1e10	8	-1E+10	1	-1E+10	1	-1E+10	1	-1E+10	1	-1E+10	1	-1E+10	1
4902554	89	C	07/26/2023	10:05	-132.565	47.742	0	127.10	0	6.2420	0	33.1910	0	26.095	0	125.998	0	-1e10	8	-1e10	8	-1E+10	1	-1E+10	1	-1E+10	1	-1E+10	1	-1E+10	1	-1E+10	1
4902554	89	C	07/26/2023	10:05	-132.565	47.742	0	128.10	0	6.2330	0	33.1980	0	26.101	0	126.989	0	-1e10	8	-1e10	8	-1E+10	1	-1E+10	1	-1E+10	1	-1E+10	1	-1E+10	1	-1E+10	1
4902554	89	C	07/26/2023	10:05	-132.565	47.742	0	128.80	0	6.2210	0	33.2040	0	26.108	0	127.682	0	-1e10	8	-1e10	8	-1E+10	1	-1E+10	1	-1E+10	1	-1E+10	1	-1E+10	1	-1E+10	1
4902554	89	C	07/26/2023	10:05	-132.565	47.742	0	129.80	0	6.1840	0	33.2210	0	26.126	0	128.673	0	-1e10	8	-1e10	8	-1E+10	1	-1E+10	1	-1E+10	1	-1E+10	1	-1E+10	1	-1E+10	1
4902554	89	C	07/26/2023	10:05	-132.565	47.742	0	130.90	0	6.1550	0	33.2460	0	26.149	0	129.763	0	-1e10	8	-1e10	8	-1E+10	1	-1E+10	1	-1E+10	1	-1E+10	1	-1E+10	1	-1E+10	1
4902554	89	C	07/26/2023	10:05	-132.565	47.742	0	131.90	0	6.1400	0	33.2680	0	26.168	0	130.754	0	-1e10	8	-1e10	8	-1E+10	1	-1E+10	1	-1E+10	1	-1E+10	1	-1E+10	1	-1E+10	1
4902554	89	C	07/26/2023	10:05	-132.565	47.742	0	133.00	0	6.1180	0	33.2870	0	26.186	0	131.845	0	-1e10	8	-1e10	8	-1E+10	1	-1E+10	1	-1E+10	1	-1E+10	1	-1E+10	1	-1E+10	1
4902554	89	C	07/26/2023	10:05	-132.565	47.742	0	133.70	0	6.1190	0	33.2920	0	26.190	0	132.538	0	-1e10	8	-1e10	8	-1E+10	1	-1E+10	1	-1E+10	1	-1E+10	1	-1E+10	1	-1E+10	1
4902554	89	C	07/26/2023	10:05	-132.565	47.742	0	134.90	0	6.1150	0	33.2940	0	26.192	0	133.727	0	-1e10	8	-1e10	8	-1E+10	1	-1E+10	1	-1E+10	1	-1E+10	1	-1E+10	1	-1E+10	1
4902554	89	C	07/26/2023	10:05	-132.565	47.742	0	136.10	0	6.0930	0	33.3180	0	26.214	0	134.917	0	-1e10	8	-1e10	8	-1E+10	1	-1E+10	1	-1E+10	1	-1E+10	1	-1E+10	1	-1E+10	1
4902554	89	C	07/26/2023	10:05	-132.565	47.742	0	136.90	0	6.0590	0	33.3440	0	26.238	0	135.709	0	-1e10	8	-1e10	8	-1E+10	1	-1E+10	1	-1E+10	1	-1E+10	1	-1E+10	1	-1E+10	1
4902554	89	C	07/26/2023	10:05	-132.565	47.742	0	137.70	0	6.0410	0	33.3590	0	26.253	0	136.502	0	-1e10	8	-1e10	8	-1E+10	1	-1E+10	1	-1E+10	1	-1E+10	1	-1E+10	1	-1E+10	1
4902554	89	C	07/26/2023	10:05	-132.565	47.742	0	138.90	0	6.0360	0	33.3630	0	26.256	0	137.691	0	-1e10	8	-1e10	8	-1E+10	1	-1E+10	1	-1E+10	1	-1E+10	1	-1E+10	1	-1E+10	1
4902554	89	C	07/26/2023	10:05	-132.565	47.742	0	140.20	0	6.0340	0	33.3640	0	26.257	0	138.980	0	-1e10	8	-1e10	8	-1E+10	1	-1E+10	1	-1E+10	1	-1E+10	1	-1E+10	1	-1E+10	1
4902554	89	C	07/26/2023	10:05	-132.565	47.742	0	141.00	0	6.0310	0	33.3660	0	26.259	0	139.772	0	-1e10	8	-1e10	8	-1E+10	1	-1E+10	1	-1E+10	1	-1E+10	1	-1E+10	1	-1E+10	1
4902554	89	C	07/26/2023	10:05	-132.565	47.742	0	141.90	0	6.0300	0	33.3670	0	26.260	0	140.664	0	-1e10	8	-1e10	8	-1E+10	1	-1E+10	1	-1E+10	1	-1E+10	1	-1E+10	1	-1E+10	1
4902554	89	C	07/26/2023	10:05	-132.565	47.742	0	142.70	0	6.0290	0	33.3680	0	26.261	0	141.457	0	-1e10	8	-1e10	8	-1E+10	1	-1E+10	1	-1E+10	1	-1E+10	1	-1E+10	1	-1E+10	1
4902554	89	C	07/26/2023	10:05	-132.565	47.742	0	143.60	0	6.0250	0	33.3710	0	26.264	0	142.349	0	-1e10	8	-1e10	8	-1E+10	1	-1E+10	1	-1E+10	1	-1E+10	1	-1E+10	1	-1E+10	1
4902554	89	C	07/26/2023	10:05	-132.565	47.742	0	144.90	0	5.9920	0	33.3960	0	26.288	0	143.637	0	-1e10	8	-1e10	8	-1E+10	1	-1E+10	1	-1E+10	1	-1E+10	1	-1E+10	1	-1E+10	1
4902554	89	C	07/26/2023	10:05	-132.565	47.742	0	146.30	0	5.9550	0	33.4350	0	26.323	0	145.024	0	-1e10	8	-1e10	8	-1E+10	1	-1E+10	1	-1E+10	1	-1E+10	1	-1E+10	1	-1E+10	1
4902554	89	C	07/26/2023	10:05	-132.565	47.742	0	147.20	0	5.9430	0	33.4410	0	26.330	0	145.916	0	-1e10	8	-1e10	8	-1E+10	1	-1E+10	1	-1E+10	1	-1E+10	1	-1E+10	1	-1E+10	1
4902554	89	C	07/26/2023	10:05	-132.565	47.742	0	148.10	0	5.9350	0	33.4470	0	26.335	0	146.808	0	-1e10	8	-1e10	8	-1E+10	1	-1E+10	1	-1E+10	1	-1E+10	1	-1E+10	1	-1E+10	1
4902554	89	C	07/26/2023	10:05	-132.565	47.742	0	149.00	0	5.9260	0	33.4550	0	26.343	0	147.700	0	-1e10	8	-1e10	8	-1E+10	1	-1E+10	1	-1E+10	1	-1E+10	1	-1E+10	1	-1E+10	1
4902554	89	C	07/26/2023	10:05	-132.565	47.742	0	149.90	0	5.9220	0	33.4590	0	26.346	0	148.592	0	-1e10	8	-1e10	8	-1E+10	1	-1E+10	1	-1E+10	1	-1E+10	1	-1E+10	1	-1E+10	1
4902554	89	C	07/26/2023	10:05	-132.565	47.742	0	150.80	0	5.9110	0	33.4700	0	26.356	0	149.483	0	-1e10	8	-1e10	8	-1E+10	1	-1E+10	1	-1E+10	1	-1E+10	1	-1E+10	1	-1E+10	1
4902554	89	C	07/26/2023	10:05	-132.565	47.742	0	151.70	0	5.8890	0	33.4900	0	26.375	0	150.375	0	-1e10	8	-1e10	8	-1E+10	1	-1E+10	1	-1E+10	1	-1E+10	1	-1E+10	1	-1E+10	1
4902554	89	C	07/26/2023	10:05	-132.565	47.742	0	152.60	0	5.8870	0	33.4970	0	26.381	0	151.267	0	-1e10	8	-1e10	8	-1E+10	1	-1E+10	1	-1E+10	1	-1E+10	1	-1E+10	1	-1E+10	1
4902554	89	C	07/26/2023	10:05	-132.565	47.742	0	153.60	0	5.8800	0	33.5050	0	26.388	0	152.258	0	-1e10	8	-1e10	8	-1E+10	1	-1E+10	1	-1E+10	1	-1E+10	1	-1E+10	1	-1E+10	1
4902554	89	C	07/26/2023	10:05	-132.565	47.742	0	154.50	0	5.8710	0	33.5190	0	26.400	0	153.150	0	-1e10	8	-1e10	8	-1E+10	1	-1E+10	1	-1E+10	1	-1E+10	1	-1E+10	1	-1E+10	1
4902554	89	C	07/26/2023	10:05	-132.565	47.742	0	155.50	0	5.8740	0	33.5280	0	26.407	0	154.141	0	-1e10	8	-1e10	8	-1E+10	1	-1E+10	1	-1E+10	1	-1E+10	1	-1E+10	1	-1E+10	1
4902554	89	C	07/26/2023	10:05	-132.565	47.742	0	156.50	0	5.8740	0	33.5310	0	26.409	0	155.132	0	-1e10	8	-1e10	8	-1E+10	1	-1E+10	1	-1E+10	1	-1E+10	1	-1E+10	1	-1E+10	1
4902554	89	C	07/26/2023	10:05	-132.565	47.742	0	157.50	0	5.8680	0	33.5430	0	26.419	0	156.122	0	-1e10	8	-1e10	8	-1E+10	1	-1E+10	1	-1E+10	1	-1E+10	1	-1E+10	1	-1E+10	1
4902554	89	C	07/26/2023	10:05	-132.565	47.742	0	158.90	0	5.8580	0	33.5600	0	26.434	0	157.510	0	-1e10	8	-1e10	8	-1E+10	1	-1E+10	1	-1E+10	1	-1E+10	1	-1E+10	1	-1E+10	1
4902554	89	C	07/26/2023	10:05	-132.565	47.742	0	160.40	0	5.8570	0	33.5640	0	26.437	0	158.996	0	-1e10	8	-1e10	8	-1E+10	1	-1E+10	1	-1E+10	1	-1E+10	1	-1E+10	1	-1E+10	1
4902554	89	C	07/26/2023	10:05	-132.565	47.742	0	161.40	0	5.8540	0	33.5680	0	26.441	0	159.987	0	-1e10	8	-1e10	8	-1E+10	1	-1E+10	1	-1E+10	1	-1E+10	1	-1E+10	1	-1E+10	1
4902554	89	C	07/26/2023	10:05	-132.565	47.742	0	162.40	0	5.8480	0	33.5730	0	26.446	0	160.978	0	-1e10	8	-1e10	8	-1E+10	1	-1E+10	1	-1E+10	1	-1E+10	1	-1E+10	1	-1E+10	1
4902554	89	C	07/26/2023	10:05	-132.565	47.742	0	163.40	0	5.8440	0	33.5760	0	26.449	0	161.969	0	-1e10	8	-1e10	8	-1E+10	1	-1E+10	1	-1E+10	1	-1E+10	1	-1E+10	1	-1E+10	1
4902554	89	C	07/26/2023	10:05	-132.565	47.742	0	164.50	0	5.8380	0	33.5820	0	26.454	0	163.058	0	-1e10	8	-1e10	8	-1E+10	1	-1E+10	1	-1E+10	1	-1E+10	1	-1E+10	1	-1E+10	1
4902554	89	C	07/26/2023	10:05	-132.565	47.742	0	165.50	0	5.8220	0	33.6030	0	26.473	0	164.049	0	-1e10	8	-1e10	8	-1E+10	1	-1E+10	1	-1E+10	1	-1E+10	1	-1E+10	1	-1E+10	1
4902554	89	C	07/26/2023	10:05	-132.565	47.742	0	166.50	0	5.8150	0	33.6250	0	26.491	0	165.040	0	-1e10	8	-1e10	8	-1E+10	1	-1E+10	1	-1E+10	1	-1E+10	1	-1E+10	1	-1E+10	1
4902554	89	C	07/26/2023	10:05	-132.565	47.742	0	167.50	0	5.8130	0	33.6290	0	26.494	0	166.031	0	-1e10	8	-1e10	8	-1E+10	1	-1E+10	1	-1E+10	1	-1E+10	1	-1E+10	1	-1E+10	1
4902554	89	C	07/26/2023	10:05	-132.565	47.742	0	168.60	0	5.8170	0	33.6320	0	26.496	0	167.121	0	-1e10	8	-1e10	8	-1E+10	1	-1E+10	1	-1E+10	1	-1E+10	1	-1E+10	1	-1E+10	1
4902554	89	C	07/26/2023	10:05	-132.565	47.742	0	169.60	0	5.8160	0	33.6360	0	26.500	0	168.112	0	-1e10	8	-1e10	8	-1E+10	1	-1E+10	1	-1E+10	1	-1E+10	1	-1E+10	1	-1E+10	1
4902554	89	C	07/26/2023	10:05	-132.565	47.742	0	170.60	0	5.8140	0	33.6400	0	26.503	0	169.103	0	-1e10	8	-1e10	8	-1E+10	1	-1E+10	1	-1E+10	1	-1E+10	1	-1E+10	1	-1E+10	1
4902554	89	C	07/26/2023	10:05	-132.565	47.742	0	171.60	0	5.8130	0	33.6430	0	26.505	0	170.093	0	-1e10	8	-1e10	8	-1E+10	1	-1E+10	1	-1E+10	1	-1E+10	1	-1E+10	1	-1E+10	1
4902554	89	C	07/26/2023	10:05	-132.565	47.742	0	172.60	0	5.8060	0	33.6470	0	26.509	0	171.084	0	-1e10	8	-1e10	8	-1E+10	1	-1E+10	1	-1E+10	1	-1E+10	1	-1E+10	1	-1E+10	1
4902554	89	C	07/26/2023	10:05	-132.565	47.742	0	173.70	0	5.8030	0	33.6500	0	26.512	0	172.174	0	-1e10	8	-1e10	8	-1E+10	1	-1E+10	1	-1E+10	1	-1E+10	1	-1E+10	1	-1E+10	1
4902554	89	C	07/26/2023	10:05	-132.565	47.742	0	174.70	0	5.8000	0	33.6520	0	26.514	0	173.165	0	-1e10	8	-1e10	8	-1E+10	1	-1E+10	1	-1E+10	1	-1E+10	1	-1E+10	1	-1E+10	1
4902554	89	C	07/26/2023	10:05	-132.565	47.742	0	175.70	0	5.7950	0	33.6560	0	26.518	0	174.156	0	-1e10	8	-1e10	8	-1E+10	1	-1E+10	1	-1E+10	1	-1E+10	1	-1E+10	1	-1E+10	1
4902554	89	C	07/26/2023	10:05	-132.565	47.742	0	176.60	0	5.7940	0	33.6600	0	26.521	0	175.047	0	-1e10	8	-1e10	8	-1E+10	1	-1E+10	1	-1E+10	1	-1E+10	1	-1E+10	1	-1E+10	1
4902554	89	C	07/26/2023	10:05	-132.565	47.742	0	177.60	0	5.7870	0	33.6640	0	26.525	0	176.038	0	-1e10	8	-1e10	8	-1E+10	1	-1E+10	1	-1E+10	1	-1E+10	1	-1E+10	1	-1E+10	1
4902554	89	C	07/26/2023	10:05	-132.565	47.742	0	178.60	0	5.7800	0	33.6680	0	26.529	0	177.029	0	-1e10	8	-1e10	8	-1E+10	1	-1E+10	1	-1E+10	1	-1E+10	1	-1E+10	1	-1E+10	1
4902554	89	C	07/26/2023	10:05	-132.565	47.742	0	179.60	0	5.7760	0	33.6690	0	26.531	0	178.020	0	-1e10	8	-1e10	8	-1E+10	1	-1E+10	1	-1E+10	1	-1E+10	1	-1E+10	1	-1E+10	1
4902554	89	C	07/26/2023	10:05	-132.565	47.742	0	180.50	0	5.7670	0	33.6730	0	26.535	0	178.911	0	-1e10	8	-1e10	8	-1E+10	1	-1E+10	1	-1E+10	1	-1E+10	1	-1E+10	1	-1E+10	1
4902554	89	C	07/26/2023	10:05	-132.565	47.742	0	181.50	0	5.7580	0	33.6770	0	26.539	0	179.902	0	-1e10	8	-1e10	8	-1E+10	1	-1E+10	1	-1E+10	1	-1E+10	1	-1E+10	1	-1E+10	1
4902554	89	C	07/26/2023	10:05	-132.565	47.742	0	182.90	0	5.7530	0	33.6790	0	26.541	0	181.289	0	-1e10	8	-1e10	8	-1E+10	1	-1E+10	1	-1E+10	1	-1E+10	1	-1E+10	1	-1E+10	1
4902554	89	C	07/26/2023	10:05	-132.565	47.742	0	184.40	0	5.7490	0	33.6820	0	26.544	0	182.775	0	-1e10	8	-1e10	8	-1E+10	1	-1E+10	1	-1E+10	1	-1E+10	1	-1E+10	1	-1E+10	1
4902554	89	C	07/26/2023	10:05	-132.565	47.742	0	185.30	0	5.7440	0	33.6860	0	26.548	0	183.667	0	-1e10	8	-1e10	8	-1E+10	1	-1E+10	1	-1E+10	1	-1E+10	1	-1E+10	1	-1E+10	1
4902554	89	C	07/26/2023	10:05	-132.565	47.742	0	186.30	0	5.7410	0	33.6860	0	26.548	0	184.658	0	-1e10	8	-1e10	8	-1E+10	1	-1E+10	1	-1E+10	1	-1E+10	1	-1E+10	1	-1E+10	1
4902554	89	C	07/26/2023	10:05	-132.565	47.742	0	187.20	0	5.7420	0	33.6880	0	26.550	0	185.549	0	-1e10	8	-1e10	8	-1E+10	1	-1E+10	1	-1E+10	1	-1E+10	1	-1E+10	1	-1E+10	1
4902554	89	C	07/26/2023	10:05	-132.565	47.742	0	188.10	0	5.7380	0	33.6890	0	26.551	0	186.441	0	-1e10	8	-1e10	8	-1E+10	1	-1E+10	1	-1E+10	1	-1E+10	1	-1E+10	1	-1E+10	1
4902554	89	C	07/26/2023	10:05	-132.565	47.742	0	189.00	0	5.7320	0	33.6910	0	26.553	0	187.333	0	-1e10	8	-1e10	8	-1E+10	1	-1E+10	1	-1E+10	1	-1E+10	1	-1E+10	1	-1E+10	1
4902554	89	C	07/26/2023	10:05	-132.565	47.742	0	189.90	0	5.7100	0	33.6970	0	26.561	0	188.224	0	-1e10	8	-1e10	8	-1E+10	1	-1E+10	1	-1E+10	1	-1E+10	1	-1E+10	1	-1E+10	1
4902554	89	C	07/26/2023	10:05	-132.565	47.742	0	190.90	0	5.6870	0	33.7040	0	26.569	0	189.215	0	-1e10	8	-1e10	8	-1E+10	1	-1E+10	1	-1E+10	1	-1E+10	1	-1E+10	1	-1E+10	1
4902554	89	C	07/26/2023	10:05	-132.565	47.742	0	191.80	0	5.6570	0	33.7120	0	26.579	0	190.107	0	-1e10	8	-1e10	8	-1E+10	1	-1E+10	1	-1E+10	1	-1E+10	1	-1E+10	1	-1E+10	1
4902554	89	C	07/26/2023	10:05	-132.565	47.742	0	192.70	0	5.6450	0	33.7150	0	26.583	0	190.998	0	-1e10	8	-1e10	8	-1E+10	1	-1E+10	1	-1E+10	1	-1E+10	1	-1E+10	1	-1E+10	1
4902554	89	C	07/26/2023	10:05	-132.565	47.742	0	193.60	0	5.6440	0	33.7170	0	26.585	0	191.890	0	-1e10	8	-1e10	8	-1E+10	1	-1E+10	1	-1E+10	1	-1E+10	1	-1E+10	1	-1E+10	1
4902554	89	C	07/26/2023	10:05	-132.565	47.742	0	194.60	0	5.6450	0	33.7170	0	26.585	0	192.881	0	-1e10	8	-1e10	8	-1E+10	1	-1E+10	1	-1E+10	1	-1E+10	1	-1E+10	1	-1E+10	1
4902554	89	C	07/26/2023	10:05	-132.565	47.742	0	195.90	0	5.6430	0	33.7170	0	26.585	0	194.169	0	-1e10	8	-1e10	8	-1E+10	1	-1E+10	1	-1E+10	1	-1E+10	1	-1E+10	1	-1E+10	1
4902554	89	C	07/26/2023	10:05	-132.565	47.742	0	197.30	0	5.6350	0	33.7180	0	26.587	0	195.556	0	-1e10	8	-1e10	8	-1E+10	1	-1E+10	1	-1E+10	1	-1E+10	1	-1E+10	1	-1E+10	1
4902554	89	C	07/26/2023	10:05	-132.565	47.742	0	198.20	0	5.6260	0	33.7210	0	26.590	0	196.447	0	-1e10	8	-1e10	8	-1E+10	1	-1E+10	1	-1E+10	1	-1E+10	1	-1E+10	1	-1E+10	1
4902554	89	C	07/26/2023	10:05	-132.565	47.742	0	199.10	0	5.6080	0	33.7240	0	26.595	0	197.339	0	-1e10	8	-1e10	8	-1E+10	1	-1E+10	1	-1E+10	1	-1E+10	1	-1E+10	1	-1E+10	1
4902554	89	C	07/26/2023	10:05	-132.565	47.742	0	200.00	0	5.5980	0	33.7270	0	26.598	0	198.230	0	-1e10	8	-1e10	8	-1E+10	1	-1E+10	1	-1E+10	1	-1E+10	1	-1E+10	1	-1E+10	1
4902554	89	C	07/26/2023	10:05	-132.565	47.742	0	200.90	0	5.5890	0	33.7280	0	26.600	0	199.122	0	-1e10	8	-1e10	8	-1E+10	1	-1E+10	1	-1E+10	1	-1E+10	1	-1E+10	1	-1E+10	1
4902554	89	C	07/26/2023	10:05	-132.565	47.742	0	201.80	0	5.5820	0	33.7290	0	26.602	0	200.014	0	-1e10	8	-1e10	8	-1E+10	1	-1E+10	1	-1E+10	1	-1E+10	1	-1E+10	1	-1E+10	1
4902554	89	C	07/26/2023	10:05	-132.565	47.742	0	202.70	0	5.5650	0	33.7300	0	26.605	0	200.905	0	-1e10	8	-1e10	8	-1E+10	1	-1E+10	1	-1E+10	1	-1E+10	1	-1E+10	1	-1E+10	1
4902554	89	C	07/26/2023	10:05	-132.565	47.742	0	203.60	0	5.5630	0	33.7300	0	26.605	0	201.797	0	-1e10	8	-1e10	8	-1E+10	1	-1E+10	1	-1E+10	1	-1E+10	1	-1E+10	1	-1E+10	1
4902554	89	C	07/26/2023	10:05	-132.565	47.742	0	204.90	0	5.5430	0	33.7340	0	26.610	0	203.085	0	-1e10	8	-1e10	8	-1E+10	1	-1E+10	1	-1E+10	1	-1E+10	1	-1E+10	1	-1E+10	1
4902554	89	C	07/26/2023	10:05	-132.565	47.742	0	206.30	0	5.5310	0	33.7350	0	26.613	0	204.472	0	-1e10	8	-1e10	8	-1E+10	1	-1E+10	1	-1E+10	1	-1E+10	1	-1E+10	1	-1E+10	1
4902554	89	C	07/26/2023	10:05	-132.565	47.742	0	207.30	0	5.5220	0	33.7360	0	26.614	0	205.462	0	-1e10	8	-1e10	8	-1E+10	1	-1E+10	1	-1E+10	1	-1E+10	1	-1E+10	1	-1E+10	1
4902554	89	C	07/26/2023	10:05	-132.565	47.742	0	208.20	0	5.5050	0	33.7390	0	26.619	0	206.354	0	-1e10	8	-1e10	8	-1E+10	1	-1E+10	1	-1E+10	1	-1E+10	1	-1E+10	1	-1E+10	1
4902554	89	C	07/26/2023	10:05	-132.565	47.742	0	209.10	0	5.5010	0	33.7390	0	26.619	0	207.245	0	-1e10	8	-1e10	8	-1E+10	1	-1E+10	1	-1E+10	1	-1E+10	1	-1E+10	1	-1E+10	1
4902554	89	C	07/26/2023	10:05	-132.565	47.742	0	210.00	0	5.4960	0	33.7410	0	26.622	0	208.137	0	-1e10	8	-1e10	8	-1E+10	1	-1E+10	1	-1E+10	1	-1E+10	1	-1E+10	1	-1E+10	1
4902554	89	C	07/26/2023	10:05	-132.565	47.742	0	211.00	0	5.4830	0	33.7410	0	26.623	0	209.127	0	-1e10	8	-1e10	8	-1E+10	1	-1E+10	1	-1E+10	1	-1E+10	1	-1E+10	1	-1E+10	1
4902554	89	C	07/26/2023	10:05	-132.565	47.742	0	211.90	0	5.4660	0	33.7440	0	26.628	0	210.019	0	-1e10	8	-1e10	8	-1E+10	1	-1E+10	1	-1E+10	1	-1E+10	1	-1E+10	1	-1E+10	1
4902554	89	C	07/26/2023	10:05	-132.565	47.742	0	212.80	0	5.4540	0	33.7450	0	26.630	0	210.911	0	-1e10	8	-1e10	8	-1E+10	1	-1E+10	1	-1E+10	1	-1E+10	1	-1E+10	1	-1E+10	1
4902554	89	C	07/26/2023	10:05	-132.565	47.742	0	213.80	0	5.4460	0	33.7460	0	26.631	0	211.901	0	-1e10	8	-1e10	8	-1E+10	1	-1E+10	1	-1E+10	1	-1E+10	1	-1E+10	1	-1E+10	1
4902554	89	C	07/26/2023	10:05	-132.565	47.742	0	214.70	0	5.4340	0	33.7480	0	26.634	0	212.793	0	-1e10	8	-1e10	8	-1E+10	1	-1E+10	1	-1E+10	1	-1E+10	1	-1E+10	1	-1E+10	1
4902554	89	C	07/26/2023	10:05	-132.565	47.742	0	215.70	0	5.4250	0	33.7490	0	26.636	0	213.783	0	-1e10	8	-1e10	8	-1E+10	1	-1E+10	1	-1E+10	1	-1E+10	1	-1E+10	1	-1E+10	1
4902554	89	C	07/26/2023	10:05	-132.565	47.742	0	216.90	0	5.4060	0	33.7500	0	26.639	0	214.972	0	-1e10	8	-1e10	8	-1E+10	1	-1E+10	1	-1E+10	1	-1E+10	1	-1E+10	1	-1E+10	1
4902554	89	C	07/26/2023	10:05	-132.565	47.742	0	218.10	0	5.3960	0	33.7510	0	26.641	0	216.161	0	-1e10	8	-1e10	8	-1E+10	1	-1E+10	1	-1E+10	1	-1E+10	1	-1E+10	1	-1E+10	1
4902554	89	C	07/26/2023	10:05	-132.565	47.742	0	218.80	0	5.3940	0	33.7510	0	26.642	0	216.854	0	-1e10	8	-1e10	8	-1E+10	1	-1E+10	1	-1E+10	1	-1E+10	1	-1E+10	1	-1E+10	1
4902554	89	C	07/26/2023	10:05	-132.565	47.742	0	219.90	0	5.3890	0	33.7510	0	26.642	0	217.944	0	-1e10	8	-1e10	8	-1E+10	1	-1E+10	1	-1E+10	1	-1E+10	1	-1E+10	1	-1E+10	1
4902554	89	C	07/26/2023	10:05	-132.565	47.742	0	221.00	0	5.3720	0	33.7530	0	26.646	0	219.033	0	-1e10	8	-1e10	8	-1E+10	1	-1E+10	1	-1E+10	1	-1E+10	1	-1E+10	1	-1E+10	1
4902554	89	C	07/26/2023	10:05	-132.565	47.742	0	221.70	0	5.3530	0	33.7550	0	26.650	0	219.727	0	-1e10	8	-1e10	8	-1E+10	1	-1E+10	1	-1E+10	1	-1E+10	1	-1E+10	1	-1E+10	1
4902554	89	C	07/26/2023	10:05	-132.565	47.742	0	222.80	0	5.3260	0	33.7580	0	26.655	0	220.816	0	-1e10	8	-1e10	8	-1E+10	1	-1E+10	1	-1E+10	1	-1E+10	1	-1E+10	1	-1E+10	1
4902554	89	C	07/26/2023	10:05	-132.565	47.742	0	224.00	0	5.3190	0	33.7610	0	26.658	0	222.005	0	-1e10	8	-1e10	8	-1E+10	1	-1E+10	1	-1E+10	1	-1E+10	1	-1E+10	1	-1E+10	1
4902554	89	C	07/26/2023	10:05	-132.565	47.742	0	224.70	0	5.3130	0	33.7610	0	26.659	0	222.699	0	-1e10	8	-1e10	8	-1E+10	1	-1E+10	1	-1E+10	1	-1E+10	1	-1E+10	1	-1E+10	1
4902554	89	C	07/26/2023	10:05	-132.565	47.742	0	225.90	0	5.3030	0	33.7610	0	26.660	0	223.887	0	-1e10	8	-1e10	8	-1E+10	1	-1E+10	1	-1E+10	1	-1E+10	1	-1E+10	1	-1E+10	1
4902554	89	C	07/26/2023	10:05	-132.565	47.742	0	227.10	0	5.2850	0	33.7630	0	26.664	0	225.076	0	-1e10	8	-1e10	8	-1E+10	1	-1E+10	1	-1E+10	1	-1E+10	1	-1E+10	1	-1E+10	1
4902554	89	C	07/26/2023	10:05	-132.565	47.742	0	227.90	0	5.2740	0	33.7640	0	26.666	0	225.868	0	-1e10	8	-1e10	8	-1E+10	1	-1E+10	1	-1E+10	1	-1E+10	1	-1E+10	1	-1E+10	1
4902554	89	C	07/26/2023	10:05	-132.565	47.742	0	228.70	0	5.2690	0	33.7640	0	26.667	0	226.661	0	-1e10	8	-1e10	8	-1E+10	1	-1E+10	1	-1E+10	1	-1E+10	1	-1E+10	1	-1E+10	1
4902554	89	C	07/26/2023	10:05	-132.565	47.742	0	229.90	0	5.2520	0	33.7660	0	26.670	0	227.849	0	-1e10	8	-1e10	8	-1E+10	1	-1E+10	1	-1E+10	1	-1E+10	1	-1E+10	1	-1E+10	1
4902554	89	C	07/26/2023	10:05	-132.565	47.742	0	231.20	0	5.2430	0	33.7660	0	26.671	0	229.137	0	-1e10	8	-1e10	8	-1E+10	1	-1E+10	1	-1E+10	1	-1E+10	1	-1E+10	1	-1E+10	1
4902554	89	C	07/26/2023	10:05	-132.565	47.742	0	232.10	0	5.2400	0	33.7660	0	26.672	0	230.029	0	-1e10	8	-1e10	8	-1E+10	1	-1E+10	1	-1E+10	1	-1E+10	1	-1E+10	1	-1E+10	1
4902554	89	C	07/26/2023	10:05	-132.565	47.742	0	232.90	0	5.2250	0	33.7670	0	26.674	0	230.821	0	-1e10	8	-1e10	8	-1E+10	1	-1E+10	1	-1E+10	1	-1E+10	1	-1E+10	1	-1E+10	1
4902554	89	C	07/26/2023	10:05	-132.565	47.742	0	233.80	0	5.2170	0	33.7680	0	26.676	0	231.712	0	-1e10	8	-1e10	8	-1E+10	1	-1E+10	1	-1E+10	1	-1E+10	1	-1E+10	1	-1E+10	1
4902554	89	C	07/26/2023	10:05	-132.565	47.742	0	234.70	0	5.2130	0	33.7680	0	26.676	0	232.604	0	-1e10	8	-1e10	8	-1E+10	1	-1E+10	1	-1E+10	1	-1E+10	1	-1E+10	1	-1E+10	1
4902554	89	C	07/26/2023	10:05	-132.565	47.742	0	235.60	0	5.2070	0	33.7670	0	26.676	0	233.495	0	-1e10	8	-1e10	8	-1E+10	1	-1E+10	1	-1E+10	1	-1E+10	1	-1E+10	1	-1E+10	1
4902554	89	C	07/26/2023	10:05	-132.565	47.742	0	236.90	0	5.1870	0	33.7680	0	26.679	0	234.783	0	-1e10	8	-1e10	8	-1E+10	1	-1E+10	1	-1E+10	1	-1E+10	1	-1E+10	1	-1E+10	1
4902554	89	C	07/26/2023	10:05	-132.565	47.742	0	238.20	0	5.1770	0	33.7690	0	26.681	0	236.071	0	-1e10	8	-1e10	8	-1E+10	1	-1E+10	1	-1E+10	1	-1E+10	1	-1E+10	1	-1E+10	1
4902554	89	C	07/26/2023	10:05	-132.565	47.742	0	239.10	0	5.1680	0	33.7700	0	26.683	0	236.962	0	-1e10	8	-1e10	8	-1E+10	1	-1E+10	1	-1E+10	1	-1E+10	1	-1E+10	1	-1E+10	1
4902554	89	C	07/26/2023	10:05	-132.565	47.742	0	240.10	0	5.1590	0	33.7710	0	26.685	0	237.953	0	-1e10	8	-1e10	8	-1E+10	1	-1E+10	1	-1E+10	1	-1E+10	1	-1E+10	1	-1E+10	1
4902554	89	C	07/26/2023	10:05	-132.565	47.742	0	241.00	0	5.1560	0	33.7720	0	26.686	0	238.844	0	-1e10	8	-1e10	8	-1E+10	1	-1E+10	1	-1E+10	1	-1E+10	1	-1E+10	1	-1E+10	1
4902554	89	C	07/26/2023	10:05	-132.565	47.742	0	241.90	0	5.1390	0	33.7730	0	26.689	0	239.735	0	-1e10	8	-1e10	8	-1E+10	1	-1E+10	1	-1E+10	1	-1E+10	1	-1E+10	1	-1E+10	1
4902554	89	C	07/26/2023	10:05	-132.565	47.742	0	242.90	0	5.1300	0	33.7730	0	26.690	0	240.726	0	-1e10	8	-1e10	8	-1E+10	1	-1E+10	1	-1E+10	1	-1E+10	1	-1E+10	1	-1E+10	1
4902554	89	C	07/26/2023	10:05	-132.565	47.742	0	243.80	0	5.1200	0	33.7740	0	26.692	0	241.617	0	-1e10	8	-1e10	8	-1E+10	1	-1E+10	1	-1E+10	1	-1E+10	1	-1E+10	1	-1E+10	1
4902554	89	C	07/26/2023	10:05	-132.565	47.742	0	244.80	0	5.1100	0	33.7750	0	26.694	0	242.608	0	-1e10	8	-1e10	8	-1E+10	1	-1E+10	1	-1E+10	1	-1E+10	1	-1E+10	1	-1E+10	1
4902554	89	C	07/26/2023	10:05	-132.565	47.742	0	245.80	0	5.1000	0	33.7760	0	26.696	0	243.598	0	-1e10	8	-1e10	8	-1E+10	1	-1E+10	1	-1E+10	1	-1E+10	1	-1E+10	1	-1E+10	1
4902554	89	C	07/26/2023	10:05	-132.565	47.742	0	246.70	0	5.0970	0	33.7760	0	26.696	0	244.490	0	-1e10	8	-1e10	8	-1E+10	1	-1E+10	1	-1E+10	1	-1E+10	1	-1E+10	1	-1E+10	1
4902554	89	C	07/26/2023	10:05	-132.565	47.742	0	247.70	0	5.0960	0	33.7760	0	26.696	0	245.480	0	-1e10	8	-1e10	8	-1E+10	1	-1E+10	1	-1E+10	1	-1E+10	1	-1E+10	1	-1E+10	1
4902554	89	C	07/26/2023	10:05	-132.565	47.742	0	248.70	0	5.0900	0	33.7770	0	26.698	0	246.470	0	-1e10	8	-1e10	8	-1E+10	1	-1E+10	1	-1E+10	1	-1E+10	1	-1E+10	1	-1E+10	1
4902554	89	C	07/26/2023	10:05	-132.565	47.742	0	249.70	0	5.0870	0	33.7780	0	26.699	0	247.461	0	-1e10	8	-1e10	8	-1E+10	1	-1E+10	1	-1E+10	1	-1E+10	1	-1E+10	1	-1E+10	1
4902554	89	C	07/26/2023	10:05	-132.565	47.742	0	250.70	0	5.0800	0	33.7780	0	26.700	0	248.451	0	-1e10	8	-1e10	8	-1E+10	1	-1E+10	1	-1E+10	1	-1E+10	1	-1E+10	1	-1E+10	1
4902554	89	C	07/26/2023	10:05	-132.565	47.742	0	251.60	0	5.0720	0	33.7810	0	26.703	0	249.343	0	-1e10	8	-1e10	8	-1E+10	1	-1E+10	1	-1E+10	1	-1E+10	1	-1E+10	1	-1E+10	1
4902554	89	C	07/26/2023	10:05	-132.565	47.742	0	252.60	0	5.0670	0	33.7810	0	26.704	0	250.333	0	-1e10	8	-1e10	8	-1E+10	1	-1E+10	1	-1E+10	1	-1E+10	1	-1E+10	1	-1E+10	1
4902554	89	C	07/26/2023	10:05	-132.565	47.742	0	253.70	0	5.0590	0	33.7830	0	26.706	0	251.423	0	-1e10	8	-1e10	8	-1E+10	1	-1E+10	1	-1E+10	1	-1E+10	1	-1E+10	1	-1E+10	1
4902554	89	C	07/26/2023	10:05	-132.565	47.742	0	254.70	0	5.0540	0	33.7840	0	26.707	0	252.413	0	-1e10	8	-1e10	8	-1E+10	1	-1E+10	1	-1E+10	1	-1E+10	1	-1E+10	1	-1E+10	1
4902554	89	C	07/26/2023	10:05	-132.565	47.742	0	255.70	0	5.0460	0	33.7840	0	26.708	0	253.403	0	-1e10	8	-1e10	8	-1E+10	1	-1E+10	1	-1E+10	1	-1E+10	1	-1E+10	1	-1E+10	1
4902554	89	C	07/26/2023	10:05	-132.565	47.742	0	256.70	0	5.0460	0	33.7860	0	26.710	0	254.394	0	-1e10	8	-1e10	8	-1E+10	1	-1E+10	1	-1E+10	1	-1E+10	1	-1E+10	1	-1E+10	1
4902554	89	C	07/26/2023	10:05	-132.565	47.742	0	257.70	0	5.0430	0	33.7880	0	26.712	0	255.384	0	-1e10	8	-1e10	8	-1E+10	1	-1E+10	1	-1E+10	1	-1E+10	1	-1E+10	1	-1E+10	1
4902554	89	C	07/26/2023	10:05	-132.565	47.742	0	258.70	0	5.0430	0	33.7870	0	26.711	0	256.375	0	-1e10	8	-1e10	8	-1E+10	1	-1E+10	1	-1E+10	1	-1E+10	1	-1E+10	1	-1E+10	1
4902554	89	C	07/26/2023	10:05	-132.565	47.742	0	259.70	0	5.0380	0	33.7880	0	26.712	0	257.365	0	-1e10	8	-1e10	8	-1E+10	1	-1E+10	1	-1E+10	1	-1E+10	1	-1E+10	1	-1E+10	1
4902554	89	C	07/26/2023	10:05	-132.565	47.742	0	260.70	0	5.0230	0	33.7890	0	26.715	0	258.355	0	-1e10	8	-1e10	8	-1E+10	1	-1E+10	1	-1E+10	1	-1E+10	1	-1E+10	1	-1E+10	1
4902554	89	C	07/26/2023	10:05	-132.565	47.742	0	261.80	0	5.0070	0	33.7900	0	26.718	0	259.445	0	-1e10	8	-1e10	8	-1E+10	1	-1E+10	1	-1E+10	1	-1E+10	1	-1E+10	1	-1E+10	1
4902554	89	C	07/26/2023	10:05	-132.565	47.742	0	262.80	0	5.0040	0	33.7900	0	26.718	0	260.435	0	-1e10	8	-1e10	8	-1E+10	1	-1E+10	1	-1E+10	1	-1E+10	1	-1E+10	1	-1E+10	1
4902554	89	C	07/26/2023	10:05	-132.565	47.742	0	263.80	0	5.0020	0	33.7910	0	26.719	0	261.426	0	-1e10	8	-1e10	8	-1E+10	1	-1E+10	1	-1E+10	1	-1E+10	1	-1E+10	1	-1E+10	1
4902554	89	C	07/26/2023	10:05	-132.565	47.742	0	264.80	0	5.0000	0	33.7910	0	26.719	0	262.416	0	-1e10	8	-1e10	8	-1E+10	1	-1E+10	1	-1E+10	1	-1E+10	1	-1E+10	1	-1E+10	1
4902554	89	C	07/26/2023	10:05	-132.565	47.742	0	265.80	0	4.9980	0	33.7920	0	26.720	0	263.406	0	-1e10	8	-1e10	8	-1E+10	1	-1E+10	1	-1E+10	1	-1E+10	1	-1E+10	1	-1E+10	1
4902554	89	C	07/26/2023	10:05	-132.565	47.742	0	266.90	0	4.9920	0	33.7940	0	26.722	0	264.496	0	-1e10	8	-1e10	8	-1E+10	1	-1E+10	1	-1E+10	1	-1E+10	1	-1E+10	1	-1E+10	1
4902554	89	C	07/26/2023	10:05	-132.565	47.742	0	267.90	0	4.9780	0	33.7960	0	26.726	0	265.486	0	-1e10	8	-1e10	8	-1E+10	1	-1E+10	1	-1E+10	1	-1E+10	1	-1E+10	1	-1E+10	1
4902554	89	C	07/26/2023	10:05	-132.565	47.742	0	268.90	0	4.9690	0	33.7950	0	26.726	0	266.476	0	-1e10	8	-1e10	8	-1E+10	1	-1E+10	1	-1E+10	1	-1E+10	1	-1E+10	1	-1E+10	1
4902554	89	C	07/26/2023	10:05	-132.565	47.742	0	269.90	0	4.9650	0	33.7990	0	26.730	0	267.467	0	-1e10	8	-1e10	8	-1E+10	1	-1E+10	1	-1E+10	1	-1E+10	1	-1E+10	1	-1E+10	1
4902554	89	C	07/26/2023	10:05	-132.565	47.742	0	270.90	0	4.9650	0	33.8000	0	26.730	0	268.457	0	-1e10	8	-1e10	8	-1E+10	1	-1E+10	1	-1E+10	1	-1E+10	1	-1E+10	1	-1E+10	1
4902554	89	C	07/26/2023	10:05	-132.565	47.742	0	271.90	0	4.9660	0	33.8000	0	26.730	0	269.447	0	-1e10	8	-1e10	8	-1E+10	1	-1E+10	1	-1E+10	1	-1E+10	1	-1E+10	1	-1E+10	1
4902554	89	C	07/26/2023	10:05	-132.565	47.742	0	272.90	0	4.9660	0	33.8010	0	26.731	0	270.438	0	-1e10	8	-1e10	8	-1E+10	1	-1E+10	1	-1E+10	1	-1E+10	1	-1E+10	1	-1E+10	1
4902554	89	C	07/26/2023	10:05	-132.565	47.742	0	273.90	0	4.9630	0	33.8010	0	26.731	0	271.428	0	-1e10	8	-1e10	8	-1E+10	1	-1E+10	1	-1E+10	1	-1E+10	1	-1E+10	1	-1E+10	1
4902554	89	C	07/26/2023	10:05	-132.565	47.742	0	275.00	0	4.9570	0	33.8020	0	26.733	0	272.517	0	-1e10	8	-1e10	8	-1E+10	1	-1E+10	1	-1E+10	1	-1E+10	1	-1E+10	1	-1E+10	1
4902554	89	C	07/26/2023	10:05	-132.565	47.742	0	276.00	0	4.9680	0	33.8060	0	26.735	0	273.508	0	-1e10	8	-1e10	8	-1E+10	1	-1E+10	1	-1E+10	1	-1E+10	1	-1E+10	1	-1E+10	1
4902554	89	C	07/26/2023	10:05	-132.565	47.742	0	277.00	0	4.9460	0	33.8090	0	26.740	0	274.498	0	-1e10	8	-1e10	8	-1E+10	1	-1E+10	1	-1E+10	1	-1E+10	1	-1E+10	1	-1E+10	1
4902554	89	C	07/26/2023	10:05	-132.565	47.742	0	278.00	0	4.9410	0	33.8090	0	26.740	0	275.488	0	-1e10	8	-1e10	8	-1E+10	1	-1E+10	1	-1E+10	1	-1E+10	1	-1E+10	1	-1E+10	1
4902554	89	C	07/26/2023	10:05	-132.565	47.742	0	279.00	0	4.9250	0	33.8110	0	26.744	0	276.479	0	-1e10	8	-1e10	8	-1E+10	1	-1E+10	1	-1E+10	1	-1E+10	1	-1E+10	1	-1E+10	1
4902554	89	C	07/26/2023	10:05	-132.565	47.742	0	280.10	0	4.9160	0	33.8090	0	26.743	0	277.568	0	-1e10	8	-1e10	8	-1E+10	1	-1E+10	1	-1E+10	1	-1E+10	1	-1E+10	1	-1E+10	1
4902554	89	C	07/26/2023	10:05	-132.565	47.742	0	281.10	0	4.9100	0	33.8080	0	26.743	0	278.558	0	-1e10	8	-1e10	8	-1E+10	1	-1E+10	1	-1E+10	1	-1E+10	1	-1E+10	1	-1E+10	1
4902554	89	C	07/26/2023	10:05	-132.565	47.742	0	282.10	0	4.8990	0	33.8080	0	26.744	0	279.549	0	-1e10	8	-1e10	8	-1E+10	1	-1E+10	1	-1E+10	1	-1E+10	1	-1E+10	1	-1E+10	1
4902554	89	C	07/26/2023	10:05	-132.565	47.742	0	283.10	0	4.8810	0	33.8090	0	26.747	0	280.539	0	-1e10	8	-1e10	8	-1E+10	1	-1E+10	1	-1E+10	1	-1E+10	1	-1E+10	1	-1E+10	1
4902554	89	C	07/26/2023	10:05	-132.565	47.742	0	284.10	0	4.8750	0	33.8100	0	26.748	0	281.529	0	-1e10	8	-1e10	8	-1E+10	1	-1E+10	1	-1E+10	1	-1E+10	1	-1E+10	1	-1E+10	1
4902554	89	C	07/26/2023	10:05	-132.565	47.742	0	285.10	0	4.8760	0	33.8100	0	26.748	0	282.519	0	-1e10	8	-1e10	8	-1E+10	1	-1E+10	1	-1E+10	1	-1E+10	1	-1E+10	1	-1E+10	1
4902554	89	C	07/26/2023	10:05	-132.565	47.742	0	286.20	0	4.8460	0	33.8140	0	26.755	0	283.609	0	-1e10	8	-1e10	8	-1E+10	1	-1E+10	1	-1E+10	1	-1E+10	1	-1E+10	1	-1E+10	1
4902554	89	C	07/26/2023	10:05	-132.565	47.742	0	287.20	0	4.8360	0	33.8120	0	26.754	0	284.599	0	-1e10	8	-1e10	8	-1E+10	1	-1E+10	1	-1E+10	1	-1E+10	1	-1E+10	1	-1E+10	1
4902554	89	C	07/26/2023	10:05	-132.565	47.742	0	288.20	0	4.8360	0	33.8120	0	26.754	0	285.589	0	-1e10	8	-1e10	8	-1E+10	1	-1E+10	1	-1E+10	1	-1E+10	1	-1E+10	1	-1E+10	1
4902554	89	C	07/26/2023	10:05	-132.565	47.742	0	289.20	0	4.8360	0	33.8120	0	26.754	0	286.579	0	-1e10	8	-1e10	8	-1E+10	1	-1E+10	1	-1E+10	1	-1E+10	1	-1E+10	1	-1E+10	1
4902554	89	C	07/26/2023	10:05	-132.565	47.742	0	290.20	0	4.8360	0	33.8120	0	26.754	0	287.570	0	-1e10	8	-1e10	8	-1E+10	1	-1E+10	1	-1E+10	1	-1E+10	1	-1E+10	1	-1E+10	1
4902554	89	C	07/26/2023	10:05	-132.565	47.742	0	291.20	0	4.8300	0	33.8140	0	26.757	0	288.560	0	-1e10	8	-1e10	8	-1E+10	1	-1E+10	1	-1E+10	1	-1E+10	1	-1E+10	1	-1E+10	1
4902554	89	C	07/26/2023	10:05	-132.565	47.742	0	292.20	0	4.8300	0	33.8160	0	26.758	0	289.550	0	-1e10	8	-1e10	8	-1E+10	1	-1E+10	1	-1E+10	1	-1E+10	1	-1E+10	1	-1E+10	1
4902554	89	C	07/26/2023	10:05	-132.565	47.742	0	293.20	0	4.8380	0	33.8150	0	26.757	0	290.540	0	-1e10	8	-1e10	8	-1E+10	1	-1E+10	1	-1E+10	1	-1E+10	1	-1E+10	1	-1E+10	1
4902554	89	C	07/26/2023	10:05	-132.565	47.742	0	294.30	0	4.8210	0	33.8190	0	26.762	0	291.630	0	-1e10	8	-1e10	8	-1E+10	1	-1E+10	1	-1E+10	1	-1E+10	1	-1E+10	1	-1E+10	1
4902554	89	C	07/26/2023	10:05	-132.565	47.742	0	295.30	0	4.8060	0	33.8190	0	26.763	0	292.620	0	-1e10	8	-1e10	8	-1E+10	1	-1E+10	1	-1E+10	1	-1E+10	1	-1E+10	1	-1E+10	1
4902554	89	C	07/26/2023	10:05	-132.565	47.742	0	296.30	0	4.8010	0	33.8200	0	26.765	0	293.610	0	-1e10	8	-1e10	8	-1E+10	1	-1E+10	1	-1E+10	1	-1E+10	1	-1E+10	1	-1E+10	1
4902554	89	C	07/26/2023	10:05	-132.565	47.742	0	297.30	0	4.7990	0	33.8210	0	26.766	0	294.600	0	-1e10	8	-1e10	8	-1E+10	1	-1E+10	1	-1E+10	1	-1E+10	1	-1E+10	1	-1E+10	1
4902554	89	C	07/26/2023	10:05	-132.565	47.742	0	298.30	0	4.7940	0	33.8210	0	26.766	0	295.590	0	-1e10	8	-1e10	8	-1E+10	1	-1E+10	1	-1E+10	1	-1E+10	1	-1E+10	1	-1E+10	1
4902554	89	C	07/26/2023	10:05	-132.565	47.742	0	299.30	0	4.7920	0	33.8220	0	26.767	0	296.581	0	-1e10	8	-1e10	8	-1E+10	1	-1E+10	1	-1E+10	1	-1E+10	1	-1E+10	1	-1E+10	1
4902554	89	C	07/26/2023	10:05	-132.565	47.742	0	300.30	0	4.7970	0	33.8260	0	26.770	0	297.571	0	-1e10	8	-1e10	8	-1E+10	1	-1E+10	1	-1E+10	1	-1E+10	1	-1E+10	1	-1E+10	1
4902554	89	C	07/26/2023	10:05	-132.565	47.742	0	301.30	0	4.7840	0	33.8260	0	26.771	0	298.561	0	-1e10	8	-1e10	8	-1E+10	1	-1E+10	1	-1E+10	1	-1E+10	1	-1E+10	1	-1E+10	1
4902554	89	C	07/26/2023	10:05	-132.565	47.742	0	302.30	0	4.7720	0	33.8260	0	26.773	0	299.551	0	-1e10	8	-1e10	8	-1E+10	1	-1E+10	1	-1E+10	1	-1E+10	1	-1E+10	1	-1E+10	1
4902554	89	C	07/26/2023	10:05	-132.565	47.742	0	303.40	0	4.7680	0	33.8260	0	26.773	0	300.640	0	-1e10	8	-1e10	8	-1E+10	1	-1E+10	1	-1E+10	1	-1E+10	1	-1E+10	1	-1E+10	1
4902554	89	C	07/26/2023	10:05	-132.565	47.742	0	304.40	0	4.7670	0	33.8270	0	26.774	0	301.631	0	-1e10	8	-1e10	8	-1E+10	1	-1E+10	1	-1E+10	1	-1E+10	1	-1E+10	1	-1E+10	1
4902554	89	C	07/26/2023	10:05	-132.565	47.742	0	305.40	0	4.7630	0	33.8280	0	26.775	0	302.621	0	-1e10	8	-1e10	8	-1E+10	1	-1E+10	1	-1E+10	1	-1E+10	1	-1E+10	1	-1E+10	1
4902554	89	C	07/26/2023	10:05	-132.565	47.742	0	306.40	0	4.7610	0	33.8270	0	26.775	0	303.611	0	-1e10	8	-1e10	8	-1E+10	1	-1E+10	1	-1E+10	1	-1E+10	1	-1E+10	1	-1E+10	1
4902554	89	C	07/26/2023	10:05	-132.565	47.742	0	307.50	0	4.7600	0	33.8290	0	26.777	0	304.700	0	-1e10	8	-1e10	8	-1E+10	1	-1E+10	1	-1E+10	1	-1E+10	1	-1E+10	1	-1E+10	1
4902554	89	C	07/26/2023	10:05	-132.565	47.742	0	308.50	0	4.7590	0	33.8310	0	26.778	0	305.690	0	-1e10	8	-1e10	8	-1E+10	1	-1E+10	1	-1E+10	1	-1E+10	1	-1E+10	1	-1E+10	1
4902554	89	C	07/26/2023	10:05	-132.565	47.742	0	309.50	0	4.7580	0	33.8320	0	26.779	0	306.680	0	-1e10	8	-1e10	8	-1E+10	1	-1E+10	1	-1E+10	1	-1E+10	1	-1E+10	1	-1E+10	1
4902554	89	C	07/26/2023	10:05	-132.565	47.742	0	310.50	0	4.7610	0	33.8330	0	26.780	0	307.671	0	-1e10	8	-1e10	8	-1E+10	1	-1E+10	1	-1E+10	1	-1E+10	1	-1E+10	1	-1E+10	1
4902554	89	C	07/26/2023	10:05	-132.565	47.742	0	311.50	0	4.7560	0	33.8340	0	26.781	0	308.661	0	-1e10	8	-1e10	8	-1E+10	1	-1E+10	1	-1E+10	1	-1E+10	1	-1E+10	1	-1E+10	1
4902554	89	C	07/26/2023	10:05	-132.565	47.742	0	312.50	0	4.7510	0	33.8330	0	26.781	0	309.651	0	-1e10	8	-1e10	8	-1E+10	1	-1E+10	1	-1E+10	1	-1E+10	1	-1E+10	1	-1E+10	1
4902554	89	C	07/26/2023	10:05	-132.565	47.742	0	313.60	0	4.7450	0	33.8330	0	26.781	0	310.740	0	-1e10	8	-1e10	8	-1E+10	1	-1E+10	1	-1E+10	1	-1E+10	1	-1E+10	1	-1E+10	1
4902554	89	C	07/26/2023	10:05	-132.565	47.742	0	314.60	0	4.7510	0	33.8340	0	26.782	0	311.730	0	-1e10	8	-1e10	8	-1E+10	1	-1E+10	1	-1E+10	1	-1E+10	1	-1E+10	1	-1E+10	1
4902554	89	C	07/26/2023	10:05	-132.565	47.742	0	315.60	0	4.7510	0	33.8340	0	26.782	0	312.720	0	-1e10	8	-1e10	8	-1E+10	1	-1E+10	1	-1E+10	1	-1E+10	1	-1E+10	1	-1E+10	1
4902554	89	C	07/26/2023	10:05	-132.565	47.742	0	316.60	0	4.7170	0	33.8380	0	26.788	0	313.710	0	-1e10	8	-1e10	8	-1E+10	1	-1E+10	1	-1E+10	1	-1E+10	1	-1E+10	1	-1E+10	1
4902554	89	C	07/26/2023	10:05	-132.565	47.742	0	317.60	0	4.7080	0	33.8330	0	26.785	0	314.700	0	-1e10	8	-1e10	8	-1E+10	1	-1E+10	1	-1E+10	1	-1E+10	1	-1E+10	1	-1E+10	1
4902554	89	C	07/26/2023	10:05	-132.565	47.742	0	318.70	0	4.6690	0	33.8440	0	26.799	0	315.790	0	-1e10	8	-1e10	8	-1E+10	1	-1E+10	1	-1E+10	1	-1E+10	1	-1E+10	1	-1E+10	1
4902554	89	C	07/26/2023	10:05	-132.565	47.742	0	319.70	0	4.6540	0	33.8320	0	26.791	0	316.780	0	-1e10	8	-1e10	8	-1E+10	1	-1E+10	1	-1E+10	1	-1E+10	1	-1E+10	1	-1E+10	1
4902554	89	C	07/26/2023	10:05	-132.565	47.742	0	320.70	0	4.6490	0	33.8330	0	26.792	0	317.770	0	-1e10	8	-1e10	8	-1E+10	1	-1E+10	1	-1E+10	1	-1E+10	1	-1E+10	1	-1E+10	1
4902554	89	C	07/26/2023	10:05	-132.565	47.742	0	321.70	0	4.6470	0	33.8330	0	26.792	0	318.760	0	-1e10	8	-1e10	8	-1E+10	1	-1E+10	1	-1E+10	1	-1E+10	1	-1E+10	1	-1E+10	1
4902554	89	C	07/26/2023	10:05	-132.565	47.742	0	322.70	0	4.6450	0	33.8310	0	26.791	0	319.750	0	-1e10	8	-1e10	8	-1E+10	1	-1E+10	1	-1E+10	1	-1E+10	1	-1E+10	1	-1E+10	1
4902554	89	C	07/26/2023	10:05	-132.565	47.742	0	323.80	0	4.6260	0	33.8370	0	26.798	0	320.839	0	-1e10	8	-1e10	8	-1E+10	1	-1E+10	1	-1E+10	1	-1E+10	1	-1E+10	1	-1E+10	1
4902554	89	C	07/26/2023	10:05	-132.565	47.742	0	324.80	0	4.6160	0	33.8370	0	26.799	0	321.829	0	-1e10	8	-1e10	8	-1E+10	1	-1E+10	1	-1E+10	1	-1E+10	1	-1E+10	1	-1E+10	1
4902554	89	C	07/26/2023	10:05	-132.565	47.742	0	325.90	0	4.6100	0	33.8380	0	26.800	0	322.918	0	-1e10	8	-1e10	8	-1E+10	1	-1E+10	1	-1E+10	1	-1E+10	1	-1E+10	1	-1E+10	1
4902554	89	C	07/26/2023	10:05	-132.565	47.742	0	326.90	0	4.6050	0	33.8400	0	26.802	0	323.908	0	-1e10	8	-1e10	8	-1E+10	1	-1E+10	1	-1E+10	1	-1E+10	1	-1E+10	1	-1E+10	1
4902554	89	C	07/26/2023	10:05	-132.565	47.742	0	327.90	0	4.6080	0	33.8420	0	26.804	0	324.898	0	-1e10	8	-1e10	8	-1E+10	1	-1E+10	1	-1E+10	1	-1E+10	1	-1E+10	1	-1E+10	1
4902554	89	C	07/26/2023	10:05	-132.565	47.742	0	328.90	0	4.6080	0	33.8440	0	26.805	0	325.888	0	-1e10	8	-1e10	8	-1E+10	1	-1E+10	1	-1E+10	1	-1E+10	1	-1E+10	1	-1E+10	1
4902554	89	C	07/26/2023	10:05	-132.565	47.742	0	329.90	0	4.5980	0	33.8450	0	26.807	0	326.878	0	-1e10	8	-1e10	8	-1E+10	1	-1E+10	1	-1E+10	1	-1E+10	1	-1E+10	1	-1E+10	1
4902554	89	C	07/26/2023	10:05	-132.565	47.742	0	330.90	0	4.5970	0	33.8460	0	26.808	0	327.869	0	-1e10	8	-1e10	8	-1E+10	1	-1E+10	1	-1E+10	1	-1E+10	1	-1E+10	1	-1E+10	1
4902554	89	C	07/26/2023	10:05	-132.565	47.742	0	332.00	0	4.5930	0	33.8470	0	26.809	0	328.958	0	-1e10	8	-1e10	8	-1E+10	1	-1E+10	1	-1E+10	1	-1E+10	1	-1E+10	1	-1E+10	1
4902554	89	C	07/26/2023	10:05	-132.565	47.742	0	332.90	0	4.5870	0	33.8500	0	26.812	0	329.849	0	-1e10	8	-1e10	8	-1E+10	1	-1E+10	1	-1E+10	1	-1E+10	1	-1E+10	1	-1E+10	1
4902554	89	C	07/26/2023	10:05	-132.565	47.742	0	334.00	0	4.5820	0	33.8520	0	26.814	0	330.938	0	-1e10	8	-1e10	8	-1E+10	1	-1E+10	1	-1E+10	1	-1E+10	1	-1E+10	1	-1E+10	1
4902554	89	C	07/26/2023	10:05	-132.565	47.742	0	334.90	0	4.5810	0	33.8510	0	26.814	0	331.829	0	-1e10	8	-1e10	8	-1E+10	1	-1E+10	1	-1E+10	1	-1E+10	1	-1E+10	1	-1E+10	1
4902554	89	C	07/26/2023	10:05	-132.565	47.742	0	336.00	0	4.5740	0	33.8530	0	26.816	0	332.918	0	-1e10	8	-1e10	8	-1E+10	1	-1E+10	1	-1E+10	1	-1E+10	1	-1E+10	1	-1E+10	1
4902554	89	C	07/26/2023	10:05	-132.565	47.742	0	337.00	0	4.5610	0	33.8550	0	26.819	0	333.908	0	-1e10	8	-1e10	8	-1E+10	1	-1E+10	1	-1E+10	1	-1E+10	1	-1E+10	1	-1E+10	1
4902554	89	C	07/26/2023	10:05	-132.565	47.742	0	338.00	0	4.5340	0	33.8610	0	26.827	0	334.898	0	-1e10	8	-1e10	8	-1E+10	1	-1E+10	1	-1E+10	1	-1E+10	1	-1E+10	1	-1E+10	1
4902554	89	C	07/26/2023	10:05	-132.565	47.742	0	339.00	0	4.5190	0	33.8630	0	26.830	0	335.888	0	-1e10	8	-1e10	8	-1E+10	1	-1E+10	1	-1E+10	1	-1E+10	1	-1E+10	1	-1E+10	1
4902554	89	C	07/26/2023	10:05	-132.565	47.742	0	340.00	0	4.5140	0	33.8640	0	26.831	0	336.878	0	-1e10	8	-1e10	8	-1E+10	1	-1E+10	1	-1E+10	1	-1E+10	1	-1E+10	1	-1E+10	1
4902554	89	C	07/26/2023	10:05	-132.565	47.742	0	341.00	0	4.5040	0	33.8660	0	26.834	0	337.868	0	-1e10	8	-1e10	8	-1E+10	1	-1E+10	1	-1E+10	1	-1E+10	1	-1E+10	1	-1E+10	1
4902554	89	C	07/26/2023	10:05	-132.565	47.742	0	342.00	0	4.5000	0	33.8670	0	26.835	0	338.858	0	-1e10	8	-1e10	8	-1E+10	1	-1E+10	1	-1E+10	1	-1E+10	1	-1E+10	1	-1E+10	1
4902554	89	C	07/26/2023	10:05	-132.565	47.742	0	343.00	0	4.4940	0	33.8680	0	26.837	0	339.848	0	-1e10	8	-1e10	8	-1E+10	1	-1E+10	1	-1E+10	1	-1E+10	1	-1E+10	1	-1E+10	1
4902554	89	C	07/26/2023	10:05	-132.565	47.742	0	344.00	0	4.4890	0	33.8700	0	26.839	0	340.838	0	-1e10	8	-1e10	8	-1E+10	1	-1E+10	1	-1E+10	1	-1E+10	1	-1E+10	1	-1E+10	1
4902554	89	C	07/26/2023	10:05	-132.565	47.742	0	345.00	0	4.4860	0	33.8710	0	26.840	0	341.828	0	-1e10	8	-1e10	8	-1E+10	1	-1E+10	1	-1E+10	1	-1E+10	1	-1E+10	1	-1E+10	1
4902554	89	C	07/26/2023	10:05	-132.565	47.742	0	346.00	0	4.4860	0	33.8710	0	26.840	0	342.818	0	-1e10	8	-1e10	8	-1E+10	1	-1E+10	1	-1E+10	1	-1E+10	1	-1E+10	1	-1E+10	1
4902554	89	C	07/26/2023	10:05	-132.565	47.742	0	347.10	0	4.4850	0	33.8720	0	26.841	0	343.907	0	-1e10	8	-1e10	8	-1E+10	1	-1E+10	1	-1E+10	1	-1E+10	1	-1E+10	1	-1E+10	1
4902554	89	C	07/26/2023	10:05	-132.565	47.742	0	348.10	0	4.4780	0	33.8750	0	26.844	0	344.897	0	-1e10	8	-1e10	8	-1E+10	1	-1E+10	1	-1E+10	1	-1E+10	1	-1E+10	1	-1E+10	1
4902554	89	C	07/26/2023	10:05	-132.565	47.742	0	349.10	0	4.4710	0	33.8760	0	26.846	0	345.887	0	-1e10	8	-1e10	8	-1E+10	1	-1E+10	1	-1E+10	1	-1E+10	1	-1E+10	1	-1E+10	1
4902554	89	C	07/26/2023	10:05	-132.565	47.742	0	350.10	0	4.4620	0	33.8790	0	26.849	0	346.877	0	-1e10	8	-1e10	8	-1E+10	1	-1E+10	1	-1E+10	1	-1E+10	1	-1E+10	1	-1E+10	1
4902554	89	C	07/26/2023	10:05	-132.565	47.742	0	353.00	0	4.4520	0	33.8820	0	26.852	0	349.747	0	-1e10	8	-1e10	8	-1E+10	1	-1E+10	1	-1E+10	1	-1E+10	1	-1E+10	1	-1E+10	1
4902554	89	C	07/26/2023	10:05	-132.565	47.742	0	358.00	0	4.4220	0	33.8880	0	26.860	0	354.697	0	-1e10	8	-1e10	8	-1E+10	1	-1E+10	1	-1E+10	1	-1E+10	1	-1E+10	1	-1E+10	1
4902554	89	C	07/26/2023	10:05	-132.565	47.742	0	362.90	0	4.4020	0	33.8940	0	26.867	0	359.548	0	-1e10	8	-1e10	8	-1E+10	1	-1E+10	1	-1E+10	1	-1E+10	1	-1E+10	1	-1E+10	1
4902554	89	C	07/26/2023	10:05	-132.565	47.742	0	367.80	0	4.3840	0	33.8980	0	26.872	0	364.398	0	-1e10	8	-1e10	8	-1E+10	1	-1E+10	1	-1E+10	1	-1E+10	1	-1E+10	1	-1E+10	1
4902554	89	C	07/26/2023	10:05	-132.565	47.742	0	372.70	0	4.3590	0	33.9060	0	26.881	0	369.248	0	-1e10	8	-1e10	8	-1E+10	1	-1E+10	1	-1E+10	1	-1E+10	1	-1E+10	1	-1E+10	1
4902554	89	C	07/26/2023	10:05	-132.565	47.742	0	377.50	0	4.3500	0	33.9110	0	26.886	0	374.000	0	-1e10	8	-1e10	8	-1E+10	1	-1E+10	1	-1E+10	1	-1E+10	1	-1E+10	1	-1E+10	1
4902554	89	C	07/26/2023	10:05	-132.565	47.742	0	382.90	0	4.3280	0	33.9180	0	26.894	0	379.345	0	-1e10	8	-1e10	8	-1E+10	1	-1E+10	1	-1E+10	1	-1E+10	1	-1E+10	1	-1E+10	1
4902554	89	C	07/26/2023	10:05	-132.565	47.742	0	388.30	0	4.3160	0	33.9240	0	26.900	0	384.689	0	-1e10	8	-1e10	8	-1E+10	1	-1E+10	1	-1E+10	1	-1E+10	1	-1E+10	1	-1E+10	1
4902554	89	C	07/26/2023	10:05	-132.565	47.742	0	393.20	0	4.3050	0	33.9310	0	26.907	0	389.539	0	-1e10	8	-1e10	8	-1E+10	1	-1E+10	1	-1E+10	1	-1E+10	1	-1E+10	1	-1E+10	1
4902554	89	C	07/26/2023	10:05	-132.565	47.742	0	398.00	0	4.2970	0	33.9360	0	26.912	0	394.290	0	-1e10	8	-1e10	8	-1E+10	1	-1E+10	1	-1E+10	1	-1E+10	1	-1E+10	1	-1E+10	1
4902554	89	C	07/26/2023	10:05	-132.565	47.742	0	403.00	0	4.2930	0	33.9400	0	26.916	0	399.239	0	-1e10	8	-1e10	8	-1E+10	1	-1E+10	1	-1E+10	1	-1E+10	1	-1E+10	1	-1E+10	1
4902554	89	C	07/26/2023	10:05	-132.565	47.742	0	407.80	0	4.2910	0	33.9450	0	26.920	0	403.989	0	-1e10	8	-1e10	8	-1E+10	1	-1E+10	1	-1E+10	1	-1E+10	1	-1E+10	1	-1E+10	1
4902554	89	C	07/26/2023	10:05	-132.565	47.742	0	412.70	0	4.2870	0	33.9530	0	26.927	0	408.839	0	-1e10	8	-1e10	8	-1E+10	1	-1E+10	1	-1E+10	1	-1E+10	1	-1E+10	1	-1E+10	1
4902554	89	C	07/26/2023	10:05	-132.565	47.742	0	417.80	0	4.2830	0	33.9610	0	26.934	0	413.886	0	-1e10	8	-1e10	8	-1E+10	1	-1E+10	1	-1E+10	1	-1E+10	1	-1E+10	1	-1E+10	1
4902554	89	C	07/26/2023	10:05	-132.565	47.742	0	423.00	0	4.2720	0	33.9690	0	26.941	0	419.032	0	-1e10	8	-1e10	8	-1E+10	1	-1E+10	1	-1E+10	1	-1E+10	1	-1E+10	1	-1E+10	1
4902554	89	C	07/26/2023	10:05	-132.565	47.742	0	427.90	0	4.2610	0	33.9770	0	26.949	0	423.881	0	-1e10	8	-1e10	8	-1E+10	1	-1E+10	1	-1E+10	1	-1E+10	1	-1E+10	1	-1E+10	1
4902554	89	C	07/26/2023	10:05	-132.565	47.742	0	432.90	0	4.2560	0	33.9840	0	26.955	0	428.829	0	-1e10	8	-1e10	8	-1E+10	1	-1E+10	1	-1E+10	1	-1E+10	1	-1E+10	1	-1E+10	1
4902554	89	C	07/26/2023	10:05	-132.565	47.742	0	438.00	0	4.2520	0	33.9870	0	26.958	0	433.875	0	-1e10	8	-1e10	8	-1E+10	1	-1E+10	1	-1E+10	1	-1E+10	1	-1E+10	1	-1E+10	1
4902554	89	C	07/26/2023	10:05	-132.565	47.742	0	442.70	0	4.2490	0	33.9890	0	26.960	0	438.526	0	-1e10	8	-1e10	8	-1E+10	1	-1E+10	1	-1E+10	1	-1E+10	1	-1E+10	1	-1E+10	1
4902554	89	C	07/26/2023	10:05	-132.565	47.742	0	448.00	0	4.2430	0	33.9920	0	26.963	0	443.770	0	-1e10	8	-1e10	8	-1E+10	1	-1E+10	1	-1E+10	1	-1E+10	1	-1E+10	1	-1E+10	1
4902554	89	C	07/26/2023	10:05	-132.565	47.742	0	453.40	0	4.2260	0	34.0000	0	26.971	0	449.114	0	-1e10	8	-1e10	8	-1E+10	1	-1E+10	1	-1E+10	1	-1E+10	1	-1E+10	1	-1E+10	1
4902554	89	C	07/26/2023	10:05	-132.565	47.742	0	458.30	0	4.2170	0	34.0040	0	26.975	0	453.962	0	-1e10	8	-1e10	8	-1E+10	1	-1E+10	1	-1E+10	1	-1E+10	1	-1E+10	1	-1E+10	1
4902554	89	C	07/26/2023	10:05	-132.565	47.742	0	463.30	0	4.2140	0	34.0080	0	26.978	0	458.909	0	-1e10	8	-1e10	8	-1E+10	1	-1E+10	1	-1E+10	1	-1E+10	1	-1E+10	1	-1E+10	1
4902554	89	C	07/26/2023	10:05	-132.565	47.742	0	468.30	0	4.2110	0	34.0120	0	26.982	0	463.856	0	-1e10	8	-1e10	8	-1E+10	1	-1E+10	1	-1E+10	1	-1E+10	1	-1E+10	1	-1E+10	1
4902554	89	C	07/26/2023	10:05	-132.565	47.742	0	473.30	0	4.2040	0	34.0170	0	26.987	0	468.803	0	-1e10	8	-1e10	8	-1E+10	1	-1E+10	1	-1E+10	1	-1E+10	1	-1E+10	1	-1E+10	1
4902554	89	C	07/26/2023	10:05	-132.565	47.742	0	477.90	0	4.1950	0	34.0200	0	26.990	0	473.354	0	-1e10	8	-1e10	8	-1E+10	1	-1E+10	1	-1E+10	1	-1E+10	1	-1E+10	1	-1E+10	1
4902554	89	C	07/26/2023	10:05	-132.565	47.742	0	482.50	0	4.1910	0	34.0230	0	26.993	0	477.905	0	-1e10	8	-1e10	8	-1E+10	1	-1E+10	1	-1E+10	1	-1E+10	1	-1E+10	1	-1E+10	1
4902554	89	C	07/26/2023	10:05	-132.565	47.742	0	487.70	0	4.1840	0	34.0270	0	26.997	0	483.050	0	-1e10	8	-1e10	8	-1E+10	1	-1E+10	1	-1E+10	1	-1E+10	1	-1E+10	1	-1E+10	1
4902554	89	C	07/26/2023	10:05	-132.565	47.742	0	492.90	0	4.1730	0	34.0320	0	27.002	0	488.194	0	-1e10	8	-1e10	8	-1E+10	1	-1E+10	1	-1E+10	1	-1E+10	1	-1E+10	1	-1E+10	1
4902554	89	C	07/26/2023	10:05	-132.565	47.742	0	498.10	0	4.1640	0	34.0350	0	27.005	0	493.338	0	-1e10	8	-1e10	8	-1E+10	1	-1E+10	1	-1E+10	1	-1E+10	1	-1E+10	1	-1E+10	1
4902554	89	C	07/26/2023	10:05	-132.565	47.742	0	503.20	0	4.1450	0	34.0420	0	27.013	0	498.383	0	-1e10	8	-1e10	8	-1E+10	1	-1E+10	1	-1E+10	1	-1E+10	1	-1E+10	1	-1E+10	1
4902554	89	C	07/26/2023	10:05	-132.565	47.742	0	507.90	0	4.1410	0	34.0440	0	27.015	0	503.032	0	-1e10	8	-1e10	8	-1E+10	1	-1E+10	1	-1E+10	1	-1E+10	1	-1E+10	1	-1E+10	1
4902554	89	C	07/26/2023	10:05	-132.565	47.742	0	512.50	0	4.1390	0	34.0470	0	27.018	0	507.583	0	-1e10	8	-1e10	8	-1E+10	1	-1E+10	1	-1E+10	1	-1E+10	1	-1E+10	1	-1E+10	1
4902554	89	C	07/26/2023	10:05	-132.565	47.742	0	517.50	0	4.1380	0	34.0560	0	27.025	0	512.529	0	-1e10	8	-1e10	8	-1E+10	1	-1E+10	1	-1E+10	1	-1E+10	1	-1E+10	1	-1E+10	1
4902554	89	C	07/26/2023	10:05	-132.565	47.742	0	522.50	0	4.1310	0	34.0660	0	27.034	0	517.474	0	-1e10	8	-1e10	8	-1E+10	1	-1E+10	1	-1E+10	1	-1E+10	1	-1E+10	1	-1E+10	1
4902554	89	C	07/26/2023	10:05	-132.565	47.742	0	527.50	0	4.1210	0	34.0710	0	27.039	0	522.420	0	-1e10	8	-1e10	8	-1E+10	1	-1E+10	1	-1E+10	1	-1E+10	1	-1E+10	1	-1E+10	1
4902554	89	C	07/26/2023	10:05	-132.565	47.742	0	532.60	0	4.1090	0	34.0770	0	27.045	0	527.464	0	-1e10	8	-1e10	8	-1E+10	1	-1E+10	1	-1E+10	1	-1E+10	1	-1E+10	1	-1E+10	1
4902554	89	C	07/26/2023	10:05	-132.565	47.742	0	537.60	0	4.1050	0	34.0800	0	27.048	0	532.410	0	-1e10	8	-1e10	8	-1E+10	1	-1E+10	1	-1E+10	1	-1E+10	1	-1E+10	1	-1E+10	1
4902554	89	C	07/26/2023	10:05	-132.565	47.742	0	542.60	0	4.0950	0	34.0860	0	27.053	0	537.355	0	-1e10	8	-1e10	8	-1E+10	1	-1E+10	1	-1E+10	1	-1E+10	1	-1E+10	1	-1E+10	1
4902554	89	C	07/26/2023	10:05	-132.565	47.742	0	547.60	0	4.0860	0	34.0910	0	27.058	0	542.300	0	-1e10	8	-1e10	8	-1E+10	1	-1E+10	1	-1E+10	1	-1E+10	1	-1E+10	1	-1E+10	1
4902554	89	C	07/26/2023	10:05	-132.565	47.742	0	552.60	0	4.0930	0	34.1000	0	27.065	0	547.245	0	-1e10	8	-1e10	8	-1E+10	1	-1E+10	1	-1E+10	1	-1E+10	1	-1E+10	1	-1E+10	1
4902554	89	C	07/26/2023	10:05	-132.565	47.742	0	557.70	0	4.0820	0	34.1030	0	27.068	0	552.289	0	-1e10	8	-1e10	8	-1E+10	1	-1E+10	1	-1E+10	1	-1E+10	1	-1E+10	1	-1E+10	1
4902554	89	C	07/26/2023	10:05	-132.565	47.742	0	563.00	0	4.0620	0	34.1060	0	27.073	0	557.531	0	-1e10	8	-1e10	8	-1E+10	1	-1E+10	1	-1E+10	1	-1E+10	1	-1E+10	1	-1E+10	1
4902554	89	C	07/26/2023	10:05	-132.565	47.742	0	567.80	0	4.0540	0	34.1090	0	27.076	0	562.277	0	-1e10	8	-1e10	8	-1E+10	1	-1E+10	1	-1E+10	1	-1E+10	1	-1E+10	1	-1E+10	1
4902554	89	C	07/26/2023	10:05	-132.565	47.742	0	572.90	0	4.0260	0	34.1160	0	27.085	0	567.321	0	-1e10	8	-1e10	8	-1E+10	1	-1E+10	1	-1E+10	1	-1E+10	1	-1E+10	1	-1E+10	1
4902554	89	C	07/26/2023	10:05	-132.565	47.742	0	578.10	0	4.0040	0	34.1200	0	27.090	0	572.463	0	-1e10	8	-1e10	8	-1E+10	1	-1E+10	1	-1E+10	1	-1E+10	1	-1E+10	1	-1E+10	1
4902554	89	C	07/26/2023	10:05	-132.565	47.742	0	583.00	0	3.9930	0	34.1240	0	27.094	0	577.309	0	-1e10	8	-1e10	8	-1E+10	1	-1E+10	1	-1E+10	1	-1E+10	1	-1E+10	1	-1E+10	1
4902554	89	C	07/26/2023	10:05	-132.565	47.742	0	588.00	0	3.9870	0	34.1280	0	27.098	0	582.253	0	-1e10	8	-1e10	8	-1E+10	1	-1E+10	1	-1E+10	1	-1E+10	1	-1E+10	1	-1E+10	1
4902554	89	C	07/26/2023	10:05	-132.565	47.742	0	593.00	0	3.9750	0	34.1330	0	27.103	0	587.197	0	-1e10	8	-1e10	8	-1E+10	1	-1E+10	1	-1E+10	1	-1E+10	1	-1E+10	1	-1E+10	1
4902554	89	C	07/26/2023	10:05	-132.565	47.742	0	598.10	0	3.9570	0	34.1400	0	27.111	0	592.240	0	-1e10	8	-1e10	8	-1E+10	1	-1E+10	1	-1E+10	1	-1E+10	1	-1E+10	1	-1E+10	1
4902554	89	C	07/26/2023	10:05	-132.565	47.742	0	602.90	0	3.9440	0	34.1450	0	27.116	0	596.986	0	-1e10	8	-1e10	8	-1E+10	1	-1E+10	1	-1E+10	1	-1E+10	1	-1E+10	1	-1E+10	1
4902554	89	C	07/26/2023	10:05	-132.565	47.742	0	607.80	0	3.9390	0	34.1470	0	27.118	0	601.831	0	-1e10	8	-1e10	8	-1E+10	1	-1E+10	1	-1E+10	1	-1E+10	1	-1E+10	1	-1E+10	1
4902554	89	C	07/26/2023	10:05	-132.565	47.742	0	613.10	0	3.9330	0	34.1490	0	27.121	0	607.071	0	-1e10	8	-1e10	8	-1E+10	1	-1E+10	1	-1E+10	1	-1E+10	1	-1E+10	1	-1E+10	1
4902554	89	C	07/26/2023	10:05	-132.565	47.742	0	618.00	0	3.9260	0	34.1510	0	27.123	0	611.915	0	-1e10	8	-1e10	8	-1E+10	1	-1E+10	1	-1E+10	1	-1E+10	1	-1E+10	1	-1E+10	1
4902554	89	C	07/26/2023	10:05	-132.565	47.742	0	622.90	0	3.9200	0	34.1550	0	27.127	0	616.760	0	-1e10	8	-1e10	8	-1E+10	1	-1E+10	1	-1E+10	1	-1E+10	1	-1E+10	1	-1E+10	1
4902554	89	C	07/26/2023	10:05	-132.565	47.742	0	627.90	0	3.9150	0	34.1590	0	27.130	0	621.703	0	-1e10	8	-1e10	8	-1E+10	1	-1E+10	1	-1E+10	1	-1E+10	1	-1E+10	1	-1E+10	1
4902554	89	C	07/26/2023	10:05	-132.565	47.742	0	632.80	0	3.9050	0	34.1630	0	27.135	0	626.547	0	-1e10	8	-1e10	8	-1E+10	1	-1E+10	1	-1E+10	1	-1E+10	1	-1E+10	1	-1E+10	1
4902554	89	C	07/26/2023	10:05	-132.565	47.742	0	637.90	0	3.9020	0	34.1690	0	27.140	0	631.589	0	-1e10	8	-1e10	8	-1E+10	1	-1E+10	1	-1E+10	1	-1E+10	1	-1E+10	1	-1E+10	1
4902554	89	C	07/26/2023	10:05	-132.565	47.742	0	643.00	0	3.9050	0	34.1740	0	27.144	0	636.631	0	-1e10	8	-1e10	8	-1E+10	1	-1E+10	1	-1E+10	1	-1E+10	1	-1E+10	1	-1E+10	1
4902554	89	C	07/26/2023	10:05	-132.565	47.742	0	648.00	0	3.9110	0	34.1790	0	27.147	0	641.574	0	-1e10	8	-1e10	8	-1E+10	1	-1E+10	1	-1E+10	1	-1E+10	1	-1E+10	1	-1E+10	1
4902554	89	C	07/26/2023	10:05	-132.565	47.742	0	653.00	0	3.9120	0	34.1830	0	27.150	0	646.517	0	-1e10	8	-1e10	8	-1E+10	1	-1E+10	1	-1E+10	1	-1E+10	1	-1E+10	1	-1E+10	1
4902554	89	C	07/26/2023	10:05	-132.565	47.742	0	658.10	0	3.9080	0	34.1850	0	27.152	0	651.558	0	-1e10	8	-1e10	8	-1E+10	1	-1E+10	1	-1E+10	1	-1E+10	1	-1E+10	1	-1E+10	1
4902554	89	C	07/26/2023	10:05	-132.565	47.742	0	662.70	0	3.9030	0	34.1880	0	27.155	0	656.105	0	-1e10	8	-1e10	8	-1E+10	1	-1E+10	1	-1E+10	1	-1E+10	1	-1E+10	1	-1E+10	1
4902554	89	C	07/26/2023	10:05	-132.565	47.742	0	667.90	0	3.8940	0	34.1920	0	27.159	0	661.245	0	-1e10	8	-1e10	8	-1E+10	1	-1E+10	1	-1E+10	1	-1E+10	1	-1E+10	1	-1E+10	1
4902554	89	C	07/26/2023	10:05	-132.565	47.742	0	673.00	0	3.8890	0	34.1950	0	27.162	0	666.286	0	-1e10	8	-1e10	8	-1E+10	1	-1E+10	1	-1E+10	1	-1E+10	1	-1E+10	1	-1E+10	1
4902554	89	C	07/26/2023	10:05	-132.565	47.742	0	677.70	0	3.8820	0	34.2000	0	27.167	0	670.932	0	-1e10	8	-1e10	8	-1E+10	1	-1E+10	1	-1E+10	1	-1E+10	1	-1E+10	1	-1E+10	1
4902554	89	C	07/26/2023	10:05	-132.565	47.742	0	682.50	0	3.8720	0	34.2040	0	27.171	0	675.676	0	-1e10	8	-1e10	8	-1E+10	1	-1E+10	1	-1E+10	1	-1E+10	1	-1E+10	1	-1E+10	1
4902554	89	C	07/26/2023	10:05	-132.565	47.742	0	687.80	0	3.8610	0	34.2060	0	27.174	0	680.914	0	-1e10	8	-1e10	8	-1E+10	1	-1E+10	1	-1E+10	1	-1E+10	1	-1E+10	1	-1E+10	1
4902554	89	C	07/26/2023	10:05	-132.565	47.742	0	693.10	0	3.8450	0	34.2100	0	27.179	0	686.152	0	-1e10	8	-1e10	8	-1E+10	1	-1E+10	1	-1E+10	1	-1E+10	1	-1E+10	1	-1E+10	1
4902554	89	C	07/26/2023	10:05	-132.565	47.742	0	698.00	0	3.8330	0	34.2140	0	27.183	0	690.995	0	-1e10	8	-1e10	8	-1E+10	1	-1E+10	1	-1E+10	1	-1E+10	1	-1E+10	1	-1E+10	1
4902554	89	C	07/26/2023	10:05	-132.565	47.742	0	702.90	0	3.8230	0	34.2170	0	27.186	0	695.838	0	-1e10	8	-1e10	8	-1E+10	1	-1E+10	1	-1E+10	1	-1E+10	1	-1E+10	1	-1E+10	1
4902554	89	C	07/26/2023	10:05	-132.565	47.742	0	707.80	0	3.8150	0	34.2200	0	27.190	0	700.680	0	-1e10	8	-1e10	8	-1E+10	1	-1E+10	1	-1E+10	1	-1E+10	1	-1E+10	1	-1E+10	1
4902554	89	C	07/26/2023	10:05	-132.565	47.742	0	712.80	0	3.8050	0	34.2240	0	27.194	0	705.622	0	-1e10	8	-1e10	8	-1E+10	1	-1E+10	1	-1E+10	1	-1E+10	1	-1E+10	1	-1E+10	1
4902554	89	C	07/26/2023	10:05	-132.565	47.742	0	717.80	0	3.7940	0	34.2270	0	27.197	0	710.563	0	-1e10	8	-1e10	8	-1E+10	1	-1E+10	1	-1E+10	1	-1E+10	1	-1E+10	1	-1E+10	1
4902554	89	C	07/26/2023	10:05	-132.565	47.742	0	722.70	0	3.7760	0	34.2300	0	27.202	0	715.405	0	-1e10	8	-1e10	8	-1E+10	1	-1E+10	1	-1E+10	1	-1E+10	1	-1E+10	1	-1E+10	1
4902554	89	C	07/26/2023	10:05	-132.565	47.742	0	727.70	0	3.7480	0	34.2340	0	27.208	0	720.346	0	-1e10	8	-1e10	8	-1E+10	1	-1E+10	1	-1E+10	1	-1E+10	1	-1E+10	1	-1E+10	1
4902554	89	C	07/26/2023	10:05	-132.565	47.742	0	732.70	0	3.7400	0	34.2380	0	27.212	0	725.287	0	-1e10	8	-1e10	8	-1E+10	1	-1E+10	1	-1E+10	1	-1E+10	1	-1E+10	1	-1E+10	1
4902554	89	C	07/26/2023	10:05	-132.565	47.742	0	737.70	0	3.7340	0	34.2400	0	27.214	0	730.227	0	-1e10	8	-1e10	8	-1E+10	1	-1E+10	1	-1E+10	1	-1E+10	1	-1E+10	1	-1E+10	1
4902554	89	C	07/26/2023	10:05	-132.565	47.742	0	742.70	0	3.6990	0	34.2420	0	27.219	0	735.168	0	-1e10	8	-1e10	8	-1E+10	1	-1E+10	1	-1E+10	1	-1E+10	1	-1E+10	1	-1E+10	1
4902554	89	C	07/26/2023	10:05	-132.565	47.742	0	747.80	0	3.6670	0	34.2420	0	27.222	0	740.207	0	-1e10	8	-1e10	8	-1E+10	1	-1E+10	1	-1E+10	1	-1E+10	1	-1E+10	1	-1E+10	1
4902554	89	C	07/26/2023	10:05	-132.565	47.742	0	752.80	0	3.6350	0	34.2440	0	27.227	0	745.147	0	-1e10	8	-1e10	8	-1E+10	1	-1E+10	1	-1E+10	1	-1E+10	1	-1E+10	1	-1E+10	1
4902554	89	C	07/26/2023	10:05	-132.565	47.742	0	757.90	0	3.6450	0	34.2480	0	27.229	0	750.186	0	-1e10	8	-1e10	8	-1E+10	1	-1E+10	1	-1E+10	1	-1E+10	1	-1E+10	1	-1E+10	1
4902554	89	C	07/26/2023	10:05	-132.565	47.742	0	763.00	0	3.6000	0	34.2500	0	27.235	0	755.225	0	-1e10	8	-1e10	8	-1E+10	1	-1E+10	1	-1E+10	1	-1E+10	1	-1E+10	1	-1E+10	1
4902554	89	C	07/26/2023	10:05	-132.565	47.742	0	767.80	0	3.5810	0	34.2510	0	27.238	0	759.968	0	-1e10	8	-1e10	8	-1E+10	1	-1E+10	1	-1E+10	1	-1E+10	1	-1E+10	1	-1E+10	1
4902554	89	C	07/26/2023	10:05	-132.565	47.742	0	772.80	0	3.5820	0	34.2570	0	27.242	0	764.907	0	-1e10	8	-1e10	8	-1E+10	1	-1E+10	1	-1E+10	1	-1E+10	1	-1E+10	1	-1E+10	1
4902554	89	C	07/26/2023	10:05	-132.565	47.742	0	778.00	0	3.5930	0	34.2630	0	27.246	0	770.045	0	-1e10	8	-1e10	8	-1E+10	1	-1E+10	1	-1E+10	1	-1E+10	1	-1E+10	1	-1E+10	1
4902554	89	C	07/26/2023	10:05	-132.565	47.742	0	782.80	0	3.5740	0	34.2660	0	27.250	0	774.787	0	-1e10	8	-1e10	8	-1E+10	1	-1E+10	1	-1E+10	1	-1E+10	1	-1E+10	1	-1E+10	1
4902554	89	C	07/26/2023	10:05	-132.565	47.742	0	787.80	0	3.5600	0	34.2670	0	27.253	0	779.726	0	-1e10	8	-1e10	8	-1E+10	1	-1E+10	1	-1E+10	1	-1E+10	1	-1E+10	1	-1E+10	1
4902554	89	C	07/26/2023	10:05	-132.565	47.742	0	792.90	0	3.5460	0	34.2690	0	27.256	0	784.764	0	-1e10	8	-1e10	8	-1E+10	1	-1E+10	1	-1E+10	1	-1E+10	1	-1E+10	1	-1E+10	1
4902554	89	C	07/26/2023	10:05	-132.565	47.742	0	798.00	0	3.5200	0	34.2710	0	27.260	0	789.802	0	-1e10	8	-1e10	8	-1E+10	1	-1E+10	1	-1E+10	1	-1E+10	1	-1E+10	1	-1E+10	1
4902554	89	C	07/26/2023	10:05	-132.565	47.742	0	803.00	0	3.4950	0	34.2720	0	27.263	0	794.742	0	-1e10	8	-1e10	8	-1E+10	1	-1E+10	1	-1E+10	1	-1E+10	1	-1E+10	1	-1E+10	1
4902554	89	C	07/26/2023	10:05	-132.565	47.742	0	808.00	0	3.4670	0	34.2750	0	27.268	0	799.681	0	-1e10	8	-1e10	8	-1E+10	1	-1E+10	1	-1E+10	1	-1E+10	1	-1E+10	1	-1E+10	1
4902554	89	C	07/26/2023	10:05	-132.565	47.742	0	813.00	0	3.4540	0	34.2770	0	27.271	0	804.619	0	-1e10	8	-1e10	8	-1E+10	1	-1E+10	1	-1E+10	1	-1E+10	1	-1E+10	1	-1E+10	1
4902554	89	C	07/26/2023	10:05	-132.565	47.742	0	817.70	0	3.4530	0	34.2780	0	27.272	0	809.262	0	-1e10	8	-1e10	8	-1E+10	1	-1E+10	1	-1E+10	1	-1E+10	1	-1E+10	1	-1E+10	1
4902554	89	C	07/26/2023	10:05	-132.565	47.742	0	822.80	0	3.4490	0	34.2800	0	27.274	0	814.299	0	-1e10	8	-1e10	8	-1E+10	1	-1E+10	1	-1E+10	1	-1E+10	1	-1E+10	1	-1E+10	1
4902554	89	C	07/26/2023	10:05	-132.565	47.742	0	827.90	0	3.4360	0	34.2830	0	27.278	0	819.337	0	-1e10	8	-1e10	8	-1E+10	1	-1E+10	1	-1E+10	1	-1E+10	1	-1E+10	1	-1E+10	1
4902554	89	C	07/26/2023	10:05	-132.565	47.742	0	832.70	0	3.4250	0	34.2850	0	27.280	0	824.078	0	-1e10	8	-1e10	8	-1E+10	1	-1E+10	1	-1E+10	1	-1E+10	1	-1E+10	1	-1E+10	1
4902554	89	C	07/26/2023	10:05	-132.565	47.742	0	837.90	0	3.4110	0	34.2860	0	27.282	0	829.213	0	-1e10	8	-1e10	8	-1E+10	1	-1E+10	1	-1E+10	1	-1E+10	1	-1E+10	1	-1E+10	1
4902554	89	C	07/26/2023	10:05	-132.565	47.742	0	843.20	0	3.4090	0	34.2910	0	27.287	0	834.448	0	-1e10	8	-1e10	8	-1E+10	1	-1E+10	1	-1E+10	1	-1E+10	1	-1E+10	1	-1E+10	1
4902554	89	C	07/26/2023	10:05	-132.565	47.742	0	848.00	0	3.3950	0	34.2940	0	27.290	0	839.188	0	-1e10	8	-1e10	8	-1E+10	1	-1E+10	1	-1E+10	1	-1E+10	1	-1E+10	1	-1E+10	1
4902554	89	C	07/26/2023	10:05	-132.565	47.742	0	852.90	0	3.3760	0	34.2950	0	27.293	0	844.028	0	-1e10	8	-1e10	8	-1E+10	1	-1E+10	1	-1E+10	1	-1E+10	1	-1E+10	1	-1E+10	1
4902554	89	C	07/26/2023	10:05	-132.565	47.742	0	857.90	0	3.3480	0	34.2980	0	27.298	0	848.965	0	-1e10	8	-1e10	8	-1E+10	1	-1E+10	1	-1E+10	1	-1E+10	1	-1E+10	1	-1E+10	1
4902554	89	C	07/26/2023	10:05	-132.565	47.742	0	862.90	0	3.3390	0	34.3000	0	27.301	0	853.903	0	-1e10	8	-1e10	8	-1E+10	1	-1E+10	1	-1E+10	1	-1E+10	1	-1E+10	1	-1E+10	1
4902554	89	C	07/26/2023	10:05	-132.565	47.742	0	867.90	0	3.3280	0	34.3020	0	27.303	0	858.841	0	-1e10	8	-1e10	8	-1E+10	1	-1E+10	1	-1E+10	1	-1E+10	1	-1E+10	1	-1E+10	1
4902554	89	C	07/26/2023	10:05	-132.565	47.742	0	873.00	0	3.3120	0	34.3060	0	27.308	0	863.877	0	-1e10	8	-1e10	8	-1E+10	1	-1E+10	1	-1E+10	1	-1E+10	1	-1E+10	1	-1E+10	1
4902554	89	C	07/26/2023	10:05	-132.565	47.742	0	878.00	0	3.3060	0	34.3070	0	27.309	0	868.814	0	-1e10	8	-1e10	8	-1E+10	1	-1E+10	1	-1E+10	1	-1E+10	1	-1E+10	1	-1E+10	1
4902554	89	C	07/26/2023	10:05	-132.565	47.742	0	883.10	0	3.2960	0	34.3090	0	27.312	0	873.850	0	-1e10	8	-1e10	8	-1E+10	1	-1E+10	1	-1E+10	1	-1E+10	1	-1E+10	1	-1E+10	1
4902554	89	C	07/26/2023	10:05	-132.565	47.742	0	888.20	0	3.2820	0	34.3130	0	27.316	0	878.886	0	-1e10	8	-1e10	8	-1E+10	1	-1E+10	1	-1E+10	1	-1E+10	1	-1E+10	1	-1E+10	1
4902554	89	C	07/26/2023	10:05	-132.565	47.742	0	893.30	0	3.2720	0	34.3150	0	27.319	0	883.922	0	-1e10	8	-1e10	8	-1E+10	1	-1E+10	1	-1E+10	1	-1E+10	1	-1E+10	1	-1E+10	1
4902554	89	C	07/26/2023	10:05	-132.565	47.742	0	898.00	0	3.2630	0	34.3170	0	27.321	0	888.563	0	-1e10	8	-1e10	8	-1E+10	1	-1E+10	1	-1E+10	1	-1E+10	1	-1E+10	1	-1E+10	1
4902554	89	C	07/26/2023	10:05	-132.565	47.742	0	902.60	0	3.2540	0	34.3190	0	27.324	0	893.104	0	-1e10	8	-1e10	8	-1E+10	1	-1E+10	1	-1E+10	1	-1E+10	1	-1E+10	1	-1E+10	1
4902554	89	C	07/26/2023	10:05	-132.565	47.742	0	907.70	0	3.2440	0	34.3220	0	27.327	0	898.140	0	-1e10	8	-1e10	8	-1E+10	1	-1E+10	1	-1E+10	1	-1E+10	1	-1E+10	1	-1E+10	1
4902554	89	C	07/26/2023	10:05	-132.565	47.742	0	912.90	0	3.2320	0	34.3240	0	27.330	0	903.274	0	-1e10	8	-1e10	8	-1E+10	1	-1E+10	1	-1E+10	1	-1E+10	1	-1E+10	1	-1E+10	1
4902554	89	C	07/26/2023	10:05	-132.565	47.742	0	918.00	0	3.2290	0	34.3250	0	27.331	0	908.309	0	-1e10	8	-1e10	8	-1E+10	1	-1E+10	1	-1E+10	1	-1E+10	1	-1E+10	1	-1E+10	1
4902554	89	C	07/26/2023	10:05	-132.565	47.742	0	922.70	0	3.2220	0	34.3270	0	27.333	0	912.949	0	-1e10	8	-1e10	8	-1E+10	1	-1E+10	1	-1E+10	1	-1E+10	1	-1E+10	1	-1E+10	1
4902554	89	C	07/26/2023	10:05	-132.565	47.742	0	927.80	0	3.2100	0	34.3300	0	27.337	0	917.984	0	-1e10	8	-1e10	8	-1E+10	1	-1E+10	1	-1E+10	1	-1E+10	1	-1E+10	1	-1E+10	1
4902554	89	C	07/26/2023	10:05	-132.565	47.742	0	933.00	0	3.2040	0	34.3310	0	27.338	0	923.118	0	-1e10	8	-1e10	8	-1E+10	1	-1E+10	1	-1E+10	1	-1E+10	1	-1E+10	1	-1E+10	1
4902554	89	C	07/26/2023	10:05	-132.565	47.742	0	937.80	0	3.2000	0	34.3320	0	27.339	0	927.856	0	-1e10	8	-1e10	8	-1E+10	1	-1E+10	1	-1E+10	1	-1E+10	1	-1E+10	1	-1E+10	1
4902554	89	C	07/26/2023	10:05	-132.565	47.742	0	942.60	0	3.1910	0	34.3340	0	27.342	0	932.595	0	-1e10	8	-1e10	8	-1E+10	1	-1E+10	1	-1E+10	1	-1E+10	1	-1E+10	1	-1E+10	1
4902554	89	C	07/26/2023	10:05	-132.565	47.742	0	947.90	0	3.1820	0	34.3360	0	27.344	0	937.827	0	-1e10	8	-1e10	8	-1E+10	1	-1E+10	1	-1E+10	1	-1E+10	1	-1E+10	1	-1E+10	1
4902554	89	C	07/26/2023	10:05	-132.565	47.742	0	953.10	0	3.1760	0	34.3380	0	27.347	0	942.960	0	-1e10	8	-1e10	8	-1E+10	1	-1E+10	1	-1E+10	1	-1E+10	1	-1E+10	1	-1E+10	1
4902554	89	C	07/26/2023	10:05	-132.565	47.742	0	958.00	0	3.1690	0	34.3400	0	27.349	0	947.796	0	-1e10	8	-1e10	8	-1E+10	1	-1E+10	1	-1E+10	1	-1E+10	1	-1E+10	1	-1E+10	1
4902554	89	C	07/26/2023	10:05	-132.565	47.742	0	963.00	0	3.1650	0	34.3410	0	27.350	0	952.732	0	-1e10	8	-1e10	8	-1E+10	1	-1E+10	1	-1E+10	1	-1E+10	1	-1E+10	1	-1E+10	1
4902554	89	C	07/26/2023	10:05	-132.565	47.742	0	968.00	0	3.1570	0	34.3430	0	27.352	0	957.667	0	-1e10	8	-1e10	8	-1E+10	1	-1E+10	1	-1E+10	1	-1E+10	1	-1E+10	1	-1E+10	1
4902554	89	C	07/26/2023	10:05	-132.565	47.742	0	973.00	0	3.1500	0	34.3440	0	27.354	0	962.602	0	-1e10	8	-1e10	8	-1E+10	1	-1E+10	1	-1E+10	1	-1E+10	1	-1E+10	1	-1E+10	1
4902554	89	C	07/26/2023	10:05	-132.565	47.742	0	978.10	0	3.1440	0	34.3460	0	27.356	0	967.636	0	-1e10	8	-1e10	8	-1E+10	1	-1E+10	1	-1E+10	1	-1E+10	1	-1E+10	1	-1E+10	1
4902554	89	C	07/26/2023	10:05	-132.565	47.742	0	983.20	0	3.1370	0	34.3470	0	27.358	0	972.669	0	-1e10	8	-1e10	8	-1E+10	1	-1E+10	1	-1E+10	1	-1E+10	1	-1E+10	1	-1E+10	1
4902554	89	C	07/26/2023	10:05	-132.565	47.742	0	988.00	0	3.1290	0	34.3500	0	27.361	0	977.407	0	-1e10	8	-1e10	8	-1E+10	1	-1E+10	1	-1E+10	1	-1E+10	1	-1E+10	1	-1E+10	1
4902554	89	C	07/26/2023	10:05	-132.565	47.742	0	992.80	0	3.1230	0	34.3510	0	27.362	0	982.144	0	-1e10	8	-1e10	8	-1E+10	1	-1E+10	1	-1E+10	1	-1E+10	1	-1E+10	1	-1E+10	1
4902554	89	C	07/26/2023	10:05	-132.565	47.742	0	998.10	0	3.1220	0	34.3510	0	27.362	0	987.375	0	-1e10	8	-1e10	8	-1E+10	1	-1E+10	1	-1E+10	1	-1E+10	1	-1E+10	1	-1E+10	1
4902554	89	C	07/26/2023	10:05	-132.565	47.742	0	1005.50	0	3.1110	0	34.3540	0	27.366	0	994.678	0	-1e10	8	-1e10	8	-1E+10	1	-1E+10	1	-1E+10	1	-1E+10	1	-1E+10	1	-1E+10	1
4902554	89	C	07/26/2023	10:05	-132.565	47.742	0	1015.50	0	3.0910	0	34.3590	0	27.371	0	1004.546	0	-1e10	8	-1e10	8	-1E+10	1	-1E+10	1	-1E+10	1	-1E+10	1	-1E+10	1	-1E+10	1
4902554	89	C	07/26/2023	10:05	-132.565	47.742	0	1025.60	0	3.0740	0	34.3630	0	27.376	0	1014.513	0	-1e10	8	-1e10	8	-1E+10	1	-1E+10	1	-1E+10	1	-1E+10	1	-1E+10	1	-1E+10	1
4902554	89	C	07/26/2023	10:05	-132.565	47.742	0	1035.30	0	3.0570	0	34.3670	0	27.381	0	1024.084	0	-1e10	8	-1e10	8	-1E+10	1	-1E+10	1	-1E+10	1	-1E+10	1	-1E+10	1	-1E+10	1
4902554	89	C	07/26/2023	10:05	-132.565	47.742	0	1045.30	0	3.0390	0	34.3740	0	27.388	0	1033.951	0	-1e10	8	-1e10	8	-1E+10	1	-1E+10	1	-1E+10	1	-1E+10	1	-1E+10	1	-1E+10	1
4902554	89	C	07/26/2023	10:05	-132.565	47.742	0	1055.40	0	3.0220	0	34.3800	0	27.395	0	1043.916	0	-1e10	8	-1e10	8	-1E+10	1	-1E+10	1	-1E+10	1	-1E+10	1	-1E+10	1	-1E+10	1
4902554	89	C	07/26/2023	10:05	-132.565	47.742	0	1065.30	0	2.9940	0	34.3850	0	27.401	0	1053.684	0	-1e10	8	-1e10	8	-1E+10	1	-1E+10	1	-1E+10	1	-1E+10	1	-1E+10	1	-1E+10	1
4902554	89	C	07/26/2023	10:05	-132.565	47.742	0	1075.40	0	2.9750	0	34.3910	0	27.408	0	1063.648	0	-1e10	8	-1e10	8	-1E+10	1	-1E+10	1	-1E+10	1	-1E+10	1	-1E+10	1	-1E+10	1
4902554	89	C	07/26/2023	10:05	-132.565	47.742	0	1085.30	0	2.9530	0	34.3940	0	27.412	0	1073.415	0	-1e10	8	-1e10	8	-1E+10	1	-1E+10	1	-1E+10	1	-1E+10	1	-1E+10	1	-1E+10	1
4902554	89	C	07/26/2023	10:05	-132.565	47.742	0	1095.30	0	2.9350	0	34.3990	0	27.418	0	1083.279	0	-1e10	8	-1e10	8	-1E+10	1	-1E+10	1	-1E+10	1	-1E+10	1	-1E+10	1	-1E+10	1
4902554	89	C	07/26/2023	10:05	-132.565	47.742	0	1105.50	0	2.9310	0	34.4070	0	27.425	0	1093.341	0	-1e10	8	-1e10	8	-1E+10	1	-1E+10	1	-1E+10	1	-1E+10	1	-1E+10	1	-1E+10	1
4902554	89	C	07/26/2023	10:05	-132.565	47.742	0	1115.30	0	2.9180	0	34.4120	0	27.430	0	1103.007	0	-1e10	8	-1e10	8	-1E+10	1	-1E+10	1	-1E+10	1	-1E+10	1	-1E+10	1	-1E+10	1
4902554	89	C	07/26/2023	10:05	-132.565	47.742	0	1125.20	0	2.9040	0	34.4150	0	27.434	0	1112.772	0	-1e10	8	-1e10	8	-1E+10	1	-1E+10	1	-1E+10	1	-1E+10	1	-1E+10	1	-1E+10	1
4902554	89	C	07/26/2023	10:05	-132.565	47.742	0	1135.30	0	2.8870	0	34.4180	0	27.438	0	1122.734	0	-1e10	8	-1e10	8	-1E+10	1	-1E+10	1	-1E+10	1	-1E+10	1	-1E+10	1	-1E+10	1
4902554	89	C	07/26/2023	10:05	-132.565	47.742	0	1145.50	0	2.8710	0	34.4190	0	27.440	0	1132.793	0	-1e10	8	-1e10	8	-1E+10	1	-1E+10	1	-1E+10	1	-1E+10	1	-1E+10	1	-1E+10	1
4902554	89	C	07/26/2023	10:05	-132.565	47.742	0	1155.10	0	2.8450	0	34.4220	0	27.445	0	1142.260	0	-1e10	8	-1e10	8	-1E+10	1	-1E+10	1	-1E+10	1	-1E+10	1	-1E+10	1	-1E+10	1
4902554	89	C	07/26/2023	10:05	-132.565	47.742	0	1165.40	0	2.8270	0	34.4250	0	27.449	0	1152.418	0	-1e10	8	-1e10	8	-1E+10	1	-1E+10	1	-1E+10	1	-1E+10	1	-1E+10	1	-1E+10	1
4902554	89	C	07/26/2023	10:05	-132.565	47.742	0	1175.40	0	2.8170	0	34.4290	0	27.453	0	1162.279	0	-1e10	8	-1e10	8	-1E+10	1	-1E+10	1	-1E+10	1	-1E+10	1	-1E+10	1	-1E+10	1
4902554	89	C	07/26/2023	10:05	-132.565	47.742	0	1185.30	0	2.7970	0	34.4320	0	27.457	0	1172.041	0	-1e10	8	-1e10	8	-1E+10	1	-1E+10	1	-1E+10	1	-1E+10	1	-1E+10	1	-1E+10	1
4902554	89	C	07/26/2023	10:05	-132.565	47.742	0	1195.70	0	2.7810	0	34.4340	0	27.460	0	1182.295	0	-1e10	8	-1e10	8	-1E+10	1	-1E+10	1	-1E+10	1	-1E+10	1	-1E+10	1	-1E+10	1
4902554	89	C	07/26/2023	10:05	-132.565	47.742	0	1205.40	0	2.7710	0	34.4360	0	27.463	0	1191.859	0	-1e10	8	-1e10	8	-1E+10	1	-1E+10	1	-1E+10	1	-1E+10	1	-1E+10	1	-1E+10	1
4902554	89	C	07/26/2023	10:05	-132.565	47.742	0	1215.20	0	2.7650	0	34.4390	0	27.466	0	1201.521	0	-1e10	8	-1e10	8	-1E+10	1	-1E+10	1	-1E+10	1	-1E+10	1	-1E+10	1	-1E+10	1
4902554	89	C	07/26/2023	10:05	-132.565	47.742	0	1225.20	0	2.7480	0	34.4420	0	27.470	0	1211.379	0	-1e10	8	-1e10	8	-1E+10	1	-1E+10	1	-1E+10	1	-1E+10	1	-1E+10	1	-1E+10	1
4902554	89	C	07/26/2023	10:05	-132.565	47.742	0	1235.50	0	2.7320	0	34.4440	0	27.473	0	1221.533	0	-1e10	8	-1e10	8	-1E+10	1	-1E+10	1	-1E+10	1	-1E+10	1	-1E+10	1	-1E+10	1
4902554	89	C	07/26/2023	10:05	-132.565	47.742	0	1245.80	0	2.7180	0	34.4470	0	27.476	0	1231.687	0	-1e10	8	-1e10	8	-1E+10	1	-1E+10	1	-1E+10	1	-1E+10	1	-1E+10	1	-1E+10	1
4902554	89	C	07/26/2023	10:05	-132.565	47.742	0	1255.70	0	2.7060	0	34.4490	0	27.479	0	1241.445	0	-1e10	8	-1e10	8	-1E+10	1	-1E+10	1	-1E+10	1	-1E+10	1	-1E+10	1	-1E+10	1
4902554	89	C	07/26/2023	10:05	-132.565	47.742	0	1265.50	0	2.6960	0	34.4500	0	27.481	0	1251.105	0	-1e10	8	-1e10	8	-1E+10	1	-1E+10	1	-1E+10	1	-1E+10	1	-1E+10	1	-1E+10	1
4902554	89	C	07/26/2023	10:05	-132.565	47.742	0	1275.50	0	2.6780	0	34.4540	0	27.485	0	1260.961	0	-1e10	8	-1e10	8	-1E+10	1	-1E+10	1	-1E+10	1	-1E+10	1	-1E+10	1	-1E+10	1
4902554	89	C	07/26/2023	10:05	-132.565	47.742	0	1285.80	0	2.6620	0	34.4560	0	27.489	0	1271.113	0	-1e10	8	-1e10	8	-1E+10	1	-1E+10	1	-1E+10	1	-1E+10	1	-1E+10	1	-1E+10	1
4902554	89	C	07/26/2023	10:05	-132.565	47.742	0	1295.40	0	2.6460	0	34.4600	0	27.493	0	1280.574	0	-1e10	8	-1e10	8	-1E+10	1	-1E+10	1	-1E+10	1	-1E+10	1	-1E+10	1	-1E+10	1
4902554	89	C	07/26/2023	10:05	-132.565	47.742	0	1305.40	0	2.6350	0	34.4630	0	27.497	0	1290.429	0	-1e10	8	-1e10	8	-1E+10	1	-1E+10	1	-1E+10	1	-1E+10	1	-1E+10	1	-1E+10	1
4902554	89	C	07/26/2023	10:05	-132.565	47.742	0	1315.20	0	2.6190	0	34.4660	0	27.500	0	1300.086	0	-1e10	8	-1e10	8	-1E+10	1	-1E+10	1	-1E+10	1	-1E+10	1	-1E+10	1	-1E+10	1
4902554	89	C	07/26/2023	10:05	-132.565	47.742	0	1325.30	0	2.6060	0	34.4680	0	27.503	0	1310.039	0	-1e10	8	-1e10	8	-1E+10	1	-1E+10	1	-1E+10	1	-1E+10	1	-1E+10	1	-1E+10	1
4902554	89	C	07/26/2023	10:05	-132.565	47.742	0	1335.20	0	2.5960	0	34.4710	0	27.506	0	1319.794	0	-1e10	8	-1e10	8	-1E+10	1	-1E+10	1	-1E+10	1	-1E+10	1	-1E+10	1	-1E+10	1
4902554	89	C	07/26/2023	10:05	-132.565	47.742	0	1345.40	0	2.5810	0	34.4730	0	27.509	0	1329.844	0	-1e10	8	-1e10	8	-1E+10	1	-1E+10	1	-1E+10	1	-1E+10	1	-1E+10	1	-1E+10	1
4902554	89	C	07/26/2023	10:05	-132.565	47.742	0	1355.80	0	2.5660	0	34.4730	0	27.511	0	1340.091	0	-1e10	8	-1e10	8	-1E+10	1	-1E+10	1	-1E+10	1	-1E+10	1	-1E+10	1	-1E+10	1
4902554	89	C	07/26/2023	10:05	-132.565	47.742	0	1365.40	0	2.5580	0	34.4750	0	27.513	0	1349.549	0	-1e10	8	-1e10	8	-1E+10	1	-1E+10	1	-1E+10	1	-1E+10	1	-1E+10	1	-1E+10	1
4902554	89	C	07/26/2023	10:05	-132.565	47.742	0	1375.20	0	2.5400	0	34.4780	0	27.517	0	1359.204	0	-1e10	8	-1e10	8	-1E+10	1	-1E+10	1	-1E+10	1	-1E+10	1	-1E+10	1	-1E+10	1
4902554	89	C	07/26/2023	10:05	-132.565	47.742	0	1385.30	0	2.5240	0	34.4800	0	27.520	0	1369.153	0	-1e10	8	-1e10	8	-1E+10	1	-1E+10	1	-1E+10	1	-1E+10	1	-1E+10	1	-1E+10	1
4902554	89	C	07/26/2023	10:05	-132.565	47.742	0	1395.30	0	2.5030	0	34.4830	0	27.524	0	1379.004	0	-1e10	8	-1e10	8	-1E+10	1	-1E+10	1	-1E+10	1	-1E+10	1	-1E+10	1	-1E+10	1
4902554	89	C	07/26/2023	10:05	-132.565	47.742	0	1405.40	0	2.4840	0	34.4860	0	27.528	0	1388.953	0	-1e10	8	-1e10	8	-1E+10	1	-1E+10	1	-1E+10	1	-1E+10	1	-1E+10	1	-1E+10	1
4902554	89	C	07/26/2023	10:05	-132.565	47.742	0	1415.50	0	2.4640	0	34.4890	0	27.532	0	1398.901	0	-1e10	8	-1e10	8	-1E+10	1	-1E+10	1	-1E+10	1	-1E+10	1	-1E+10	1	-1E+10	1
4902554	89	C	07/26/2023	10:05	-132.565	47.742	0	1425.60	0	2.4430	0	34.4930	0	27.537	0	1408.849	0	-1e10	8	-1e10	8	-1E+10	1	-1E+10	1	-1E+10	1	-1E+10	1	-1E+10	1	-1E+10	1
4902554	89	C	07/26/2023	10:05	-132.565	47.742	0	1435.30	0	2.4320	0	34.4950	0	27.540	0	1418.403	0	-1e10	8	-1e10	8	-1E+10	1	-1E+10	1	-1E+10	1	-1E+10	1	-1E+10	1	-1E+10	1
4902554	89	C	07/26/2023	10:05	-132.565	47.742	0	1445.50	0	2.4220	0	34.4980	0	27.543	0	1428.448	0	-1e10	8	-1e10	8	-1E+10	1	-1E+10	1	-1E+10	1	-1E+10	1	-1E+10	1	-1E+10	1
4902554	89	C	07/26/2023	10:05	-132.565	47.742	0	1455.70	0	2.4100	0	34.5010	0	27.547	0	1438.493	0	-1e10	8	-1e10	8	-1E+10	1	-1E+10	1	-1E+10	1	-1E+10	1	-1E+10	1	-1E+10	1
4902554	89	C	07/26/2023	10:05	-132.565	47.742	0	1465.60	0	2.4060	0	34.5030	0	27.549	0	1448.242	0	-1e10	8	-1e10	8	-1E+10	1	-1E+10	1	-1E+10	1	-1E+10	1	-1E+10	1	-1E+10	1
4902554	89	C	07/26/2023	10:05	-132.565	47.742	0	1475.20	0	2.3970	0	34.5050	0	27.551	0	1457.695	0	-1e10	8	-1e10	8	-1E+10	1	-1E+10	1	-1E+10	1	-1E+10	1	-1E+10	1	-1E+10	1
4902554	89	C	07/26/2023	10:05	-132.565	47.742	0	1485.30	0	2.3860	0	34.5070	0	27.554	0	1467.640	0	-1e10	8	-1e10	8	-1E+10	1	-1E+10	1	-1E+10	1	-1E+10	1	-1E+10	1	-1E+10	1
4902554	89	C	07/26/2023	10:05	-132.565	47.742	0	1495.60	0	2.3750	0	34.5080	0	27.555	0	1477.782	0	-1e10	8	-1e10	8	-1E+10	1	-1E+10	1	-1E+10	1	-1E+10	1	-1E+10	1	-1E+10	1
4902554	89	C	07/26/2023	10:05	-132.565	47.742	0	1505.40	0	2.3630	0	34.5090	0	27.557	0	1487.431	0	-1e10	8	-1e10	8	-1E+10	1	-1E+10	1	-1E+10	1	-1E+10	1	-1E+10	1	-1E+10	1
4902554	89	C	07/26/2023	10:05	-132.565	47.742	0	1515.60	0	2.3520	0	34.5120	0	27.561	0	1497.473	0	-1e10	8	-1e10	8	-1E+10	1	-1E+10	1	-1E+10	1	-1E+10	1	-1E+10	1	-1E+10	1
4902554	89	C	07/26/2023	10:05	-132.565	47.742	0	1525.50	0	2.3400	0	34.5130	0	27.562	0	1507.219	0	-1e10	8	-1e10	8	-1E+10	1	-1E+10	1	-1E+10	1	-1E+10	1	-1E+10	1	-1E+10	1
4902554	89	C	07/26/2023	10:05	-132.565	47.742	0	1535.50	0	2.3280	0	34.5150	0	27.565	0	1517.063	0	-1e10	8	-1e10	8	-1E+10	1	-1E+10	1	-1E+10	1	-1E+10	1	-1E+10	1	-1E+10	1
4902554	89	C	07/26/2023	10:05	-132.565	47.742	0	1545.50	0	2.3120	0	34.5180	0	27.569	0	1526.907	0	-1e10	8	-1e10	8	-1E+10	1	-1E+10	1	-1E+10	1	-1E+10	1	-1E+10	1	-1E+10	1
4902554	89	C	07/26/2023	10:05	-132.565	47.742	0	1555.50	0	2.3030	0	34.5200	0	27.571	0	1536.751	0	-1e10	8	-1e10	8	-1E+10	1	-1E+10	1	-1E+10	1	-1E+10	1	-1E+10	1	-1E+10	1
4902554	89	C	07/26/2023	10:05	-132.565	47.742	0	1565.60	0	2.2880	0	34.5220	0	27.574	0	1546.692	0	-1e10	8	-1e10	8	-1E+10	1	-1E+10	1	-1E+10	1	-1E+10	1	-1E+10	1	-1E+10	1
4902554	89	C	07/26/2023	10:05	-132.565	47.742	0	1575.30	0	2.2760	0	34.5250	0	27.578	0	1556.239	0	-1e10	8	-1e10	8	-1E+10	1	-1E+10	1	-1E+10	1	-1E+10	1	-1E+10	1	-1E+10	1
4902554	89	C	07/26/2023	10:05	-132.565	47.742	0	1585.50	0	2.2650	0	34.5270	0	27.580	0	1566.278	0	-1e10	8	-1e10	8	-1E+10	1	-1E+10	1	-1E+10	1	-1E+10	1	-1E+10	1	-1E+10	1
4902554	89	C	07/26/2023	10:05	-132.565	47.742	0	1595.40	0	2.2540	0	34.5290	0	27.583	0	1576.021	0	-1e10	8	-1e10	8	-1E+10	1	-1E+10	1	-1E+10	1	-1E+10	1	-1E+10	1	-1E+10	1
4902554	89	C	07/26/2023	10:05	-132.565	47.742	0	1605.30	0	2.2460	0	34.5310	0	27.585	0	1585.764	0	-1e10	8	-1e10	8	-1E+10	1	-1E+10	1	-1E+10	1	-1E+10	1	-1E+10	1	-1E+10	1
4902554	89	C	07/26/2023	10:05	-132.565	47.742	0	1615.30	0	2.2360	0	34.5320	0	27.587	0	1595.605	0	-1e10	8	-1e10	8	-1E+10	1	-1E+10	1	-1E+10	1	-1E+10	1	-1E+10	1	-1E+10	1
4902554	89	C	07/26/2023	10:05	-132.565	47.742	0	1625.40	0	2.2260	0	34.5340	0	27.589	0	1605.543	0	-1e10	8	-1e10	8	-1E+10	1	-1E+10	1	-1E+10	1	-1E+10	1	-1E+10	1	-1E+10	1
4902554	89	C	07/26/2023	10:05	-132.565	47.742	0	1635.20	0	2.2180	0	34.5360	0	27.591	0	1615.186	0	-1e10	8	-1e10	8	-1E+10	1	-1E+10	1	-1E+10	1	-1E+10	1	-1E+10	1	-1E+10	1
4902554	89	C	07/26/2023	10:05	-132.565	47.742	0	1645.20	0	2.2060	0	34.5380	0	27.594	0	1625.025	0	-1e10	8	-1e10	8	-1E+10	1	-1E+10	1	-1E+10	1	-1E+10	1	-1E+10	1	-1E+10	1
4902554	89	C	07/26/2023	10:05	-132.565	47.742	0	1655.40	0	2.1910	0	34.5400	0	27.597	0	1635.061	0	-1e10	8	-1e10	8	-1E+10	1	-1E+10	1	-1E+10	1	-1E+10	1	-1E+10	1	-1E+10	1
4902554	89	C	07/26/2023	10:05	-132.565	47.742	0	1665.30	0	2.1750	0	34.5430	0	27.601	0	1644.801	0	-1e10	8	-1e10	8	-1E+10	1	-1E+10	1	-1E+10	1	-1E+10	1	-1E+10	1	-1E+10	1
4902554	89	C	07/26/2023	10:05	-132.565	47.742	0	1675.30	0	2.1590	0	34.5450	0	27.603	0	1654.639	0	-1e10	8	-1e10	8	-1E+10	1	-1E+10	1	-1E+10	1	-1E+10	1	-1E+10	1	-1E+10	1
4902554	89	C	07/26/2023	10:05	-132.565	47.742	0	1685.50	0	2.1450	0	34.5470	0	27.606	0	1664.673	0	-1e10	8	-1e10	8	-1E+10	1	-1E+10	1	-1E+10	1	-1E+10	1	-1E+10	1	-1E+10	1
4902554	89	C	07/26/2023	10:05	-132.565	47.742	0	1695.40	0	2.1360	0	34.5490	0	27.609	0	1674.412	0	-1e10	8	-1e10	8	-1E+10	1	-1E+10	1	-1E+10	1	-1E+10	1	-1E+10	1	-1E+10	1
4902554	89	C	07/26/2023	10:05	-132.565	47.742	0	1705.40	0	2.1280	0	34.5500	0	27.610	0	1684.248	0	-1e10	8	-1e10	8	-1E+10	1	-1E+10	1	-1E+10	1	-1E+10	1	-1E+10	1	-1E+10	1
4902554	89	C	07/26/2023	10:05	-132.565	47.742	0	1715.60	0	2.1200	0	34.5520	0	27.612	0	1694.281	0	-1e10	8	-1e10	8	-1E+10	1	-1E+10	1	-1E+10	1	-1E+10	1	-1E+10	1	-1E+10	1
4902554	89	C	07/26/2023	10:05	-132.565	47.742	0	1725.40	0	2.1100	0	34.5540	0	27.615	0	1703.920	0	-1e10	8	-1e10	8	-1E+10	1	-1E+10	1	-1E+10	1	-1E+10	1	-1E+10	1	-1E+10	1
4902554	89	C	07/26/2023	10:05	-132.565	47.742	0	1735.50	0	2.1040	0	34.5550	0	27.616	0	1713.853	0	-1e10	8	-1e10	8	-1E+10	1	-1E+10	1	-1E+10	1	-1E+10	1	-1E+10	1	-1E+10	1
4902554	89	C	07/26/2023	10:05	-132.565	47.742	0	1745.70	0	2.0980	0	34.5560	0	27.617	0	1723.885	0	-1e10	8	-1e10	8	-1E+10	1	-1E+10	1	-1E+10	1	-1E+10	1	-1E+10	1	-1E+10	1
4902554	89	C	07/26/2023	10:05	-132.565	47.742	0	1755.50	0	2.0900	0	34.5580	0	27.620	0	1733.522	0	-1e10	8	-1e10	8	-1E+10	1	-1E+10	1	-1E+10	1	-1E+10	1	-1E+10	1	-1E+10	1
4902554	89	C	07/26/2023	10:05	-132.565	47.742	0	1765.50	0	2.0830	0	34.5590	0	27.621	0	1743.356	0	-1e10	8	-1e10	8	-1E+10	1	-1E+10	1	-1E+10	1	-1E+10	1	-1E+10	1	-1E+10	1
4902554	89	C	07/26/2023	10:05	-132.565	47.742	0	1775.70	0	2.0780	0	34.5600	0	27.622	0	1753.386	0	-1e10	8	-1e10	8	-1E+10	1	-1E+10	1	-1E+10	1	-1E+10	1	-1E+10	1	-1E+10	1
4902554	89	C	07/26/2023	10:05	-132.565	47.742	0	1785.60	0	2.0750	0	34.5610	0	27.624	0	1763.120	0	-1e10	8	-1e10	8	-1E+10	1	-1E+10	1	-1E+10	1	-1E+10	1	-1E+10	1	-1E+10	1
4902554	89	C	07/26/2023	10:05	-132.565	47.742	0	1795.40	0	2.0680	0	34.5620	0	27.625	0	1772.756	0	-1e10	8	-1e10	8	-1E+10	1	-1E+10	1	-1E+10	1	-1E+10	1	-1E+10	1	-1E+10	1
4902554	89	C	07/26/2023	10:05	-132.565	47.742	0	1805.30	0	2.0640	0	34.5630	0	27.626	0	1782.490	0	-1e10	8	-1e10	8	-1E+10	1	-1E+10	1	-1E+10	1	-1E+10	1	-1E+10	1	-1E+10	1
4902554	89	C	07/26/2023	10:05	-132.565	47.742	0	1815.10	0	2.0560	0	34.5650	0	27.628	0	1792.125	0	-1e10	8	-1e10	8	-1E+10	1	-1E+10	1	-1E+10	1	-1E+10	1	-1E+10	1	-1E+10	1
4902554	89	C	07/26/2023	10:05	-132.565	47.742	0	1825.20	0	2.0450	0	34.5670	0	27.631	0	1802.054	0	-1e10	8	-1e10	8	-1E+10	1	-1E+10	1	-1E+10	1	-1E+10	1	-1E+10	1	-1E+10	1
4902554	89	C	07/26/2023	10:05	-132.565	47.742	0	1835.40	0	2.0380	0	34.5690	0	27.633	0	1812.081	0	-1e10	8	-1e10	8	-1E+10	1	-1E+10	1	-1E+10	1	-1E+10	1	-1E+10	1	-1E+10	1
4902554	89	C	07/26/2023	10:05	-132.565	47.742	0	1845.60	0	2.0280	0	34.5700	0	27.635	0	1822.108	0	-1e10	8	-1e10	8	-1E+10	1	-1E+10	1	-1E+10	1	-1E+10	1	-1E+10	1	-1E+10	1
4902554	89	C	07/26/2023	10:05	-132.565	47.742	0	1855.40	0	2.0200	0	34.5720	0	27.637	0	1831.741	0	-1e10	8	-1e10	8	-1E+10	1	-1E+10	1	-1E+10	1	-1E+10	1	-1E+10	1	-1E+10	1
4902554	89	C	07/26/2023	10:05	-132.565	47.742	0	1865.30	0	2.0090	0	34.5740	0	27.640	0	1841.472	0	-1e10	8	-1e10	8	-1E+10	1	-1E+10	1	-1E+10	1	-1E+10	1	-1E+10	1	-1E+10	1
4902554	89	C	07/26/2023	10:05	-132.565	47.742	0	1875.40	0	2.0030	0	34.5760	0	27.642	0	1851.399	0	-1e10	8	-1e10	8	-1E+10	1	-1E+10	1	-1E+10	1	-1E+10	1	-1E+10	1	-1E+10	1
4902554	89	C	07/26/2023	10:05	-132.565	47.742	0	1885.10	0	1.9980	0	34.5770	0	27.643	0	1860.932	0	-1e10	8	-1e10	8	-1E+10	1	-1E+10	1	-1E+10	1	-1E+10	1	-1E+10	1	-1E+10	1
4902554	89	C	07/26/2023	10:05	-132.565	47.742	0	1895.10	0	1.9900	0	34.5790	0	27.645	0	1870.760	0	-1e10	8	-1e10	8	-1E+10	1	-1E+10	1	-1E+10	1	-1E+10	1	-1E+10	1	-1E+10	1
4902554	89	C	07/26/2023	10:05	-132.565	47.742	0	1905.60	0	1.9830	0	34.5800	0	27.647	0	1881.079	0	-1e10	8	-1e10	8	-1E+10	1	-1E+10	1	-1E+10	1	-1E+10	1	-1E+10	1	-1E+10	1
4902554	89	C	07/26/2023	10:05	-132.565	47.742	0	1915.30	0	1.9770	0	34.5810	0	27.648	0	1890.611	0	-1e10	8	-1e10	8	-1E+10	1	-1E+10	1	-1E+10	1	-1E+10	1	-1E+10	1	-1E+10	1
4902554	89	C	07/26/2023	10:05	-132.565	47.742	0	1925.40	0	1.9730	0	34.5820	0	27.649	0	1900.536	0	-1e10	8	-1e10	8	-1E+10	1	-1E+10	1	-1E+10	1	-1E+10	1	-1E+10	1	-1E+10	1
4902554	89	C	07/26/2023	10:05	-132.565	47.742	0	1935.20	0	1.9690	0	34.5830	0	27.650	0	1910.165	0	-1e10	8	-1e10	8	-1E+10	1	-1E+10	1	-1E+10	1	-1E+10	1	-1E+10	1	-1E+10	1
4902554	89	C	07/26/2023	10:05	-132.565	47.742	0	1945.20	0	1.9650	0	34.5840	0	27.651	0	1919.991	0	-1e10	8	-1e10	8	-1E+10	1	-1E+10	1	-1E+10	1	-1E+10	1	-1E+10	1	-1E+10	1
4902554	89	C	07/26/2023	10:05	-132.565	47.742	0	1955.20	0	1.9590	0	34.5850	0	27.653	0	1929.816	0	-1e10	8	-1e10	8	-1E+10	1	-1E+10	1	-1E+10	1	-1E+10	1	-1E+10	1	-1E+10	1
4902554	89	C	07/26/2023	10:05	-132.565	47.742	0	1965.30	0	1.9530	0	34.5860	0	27.654	0	1939.739	0	-1e10	8	-1e10	8	-1E+10	1	-1E+10	1	-1E+10	1	-1E+10	1	-1E+10	1	-1E+10	1
4902554	89	C	07/26/2023	10:05	-132.565	47.742	0	1975.60	0	1.9480	0	34.5870	0	27.655	0	1949.858	0	-1e10	8	-1e10	8	-1E+10	1	-1E+10	1	-1E+10	1	-1E+10	1	-1E+10	1	-1E+10	1
4902554	89	C	07/26/2023	10:05	-132.565	47.742	0	1985.50	0	1.9420	0	34.5880	0	27.657	0	1959.583	0	-1e10	8	-1e10	8	-1E+10	1	-1E+10	1	-1E+10	1	-1E+10	1	-1E+10	1	-1E+10	1
4902554	89	C	07/26/2023	10:05	-132.565	47.742	0	1995.50	0	1.9370	0	34.5900	0	27.659	0	1969.407	0	-1e10	8	-1e10	8	-1E+10	1	-1E+10	1	-1E+10	1	-1E+10	1	-1E+10	1	-1E+10	1
4902554	89	C	07/26/2023	10:05	-132.565	47.742	0	2005.60	0	1.9310	0	34.5910	0	27.660	0	1979.328	0	-1e10	8	-1e10	8	-1E+10	1	-1E+10	1	-1E+10	1	-1E+10	1	-1E+10	1	-1E+10	1
4902554	89	C	07/26/2023	10:05	-132.565	47.742	0	2015.80	0	1.9240	0	34.5920	0	27.661	0	1989.347	0	-1e10	8	-1e10	8	-1E+10	1	-1E+10	1	-1E+10	1	-1E+10	1	-1E+10	1	-1E+10	1
4902554	89	C	07/26/2023	10:05	-132.565	47.742	0	2022.20	0	1.9220	0	34.5930	0	27.662	0	1995.633	0	-1e10	8	-1e10	8	-1E+10	1	-1E+10	1	-1E+10	1	-1E+10	1	-1E+10	1	-1E+10	1
4902554	89	C	07/26/2023	10:05	-132.565	47.742	0																										
4902554	90	C	08/05/2023	15:10	-132.638	47.775	0	0.20	0	17.3970	0	32.2770	0	23.333	0	0.198	0	-1e10	1	-1e10	1	-1E+10	1	-1E+10	1	-1E+10	1	-1E+10	1	-1E+10	1	-1E+10	1
4902554	90	C	08/05/2023	15:10	-132.638	47.775	0	0.30	0	17.3969	0	32.2751	0	23.332	0	0.297	0	-1e10	8	-1e10	8	-1E+10	1	-1E+10	1	-1E+10	1	-1E+10	1	-1E+10	1	-1E+10	1
4902554	90	C	08/05/2023	15:10	-132.638	47.775	0	1.00	0	17.3960	0	32.2620	0	23.322	0	0.992	0	-1e10	8	-1e10	8	-1E+10	1	-1E+10	1	-1E+10	1	-1E+10	1	-1E+10	1	-1E+10	1
4902554	90	C	08/05/2023	15:10	-132.638	47.775	0	2.00	0	17.3940	0	32.2660	0	23.325	0	1.983	0	-1e10	8	-1e10	8	-1E+10	1	-1E+10	1	-1E+10	1	-1E+10	1	-1E+10	1	-1E+10	1
4902554	90	C	08/05/2023	15:10	-132.638	47.775	0	2.90	0	17.3980	0	32.3130	0	23.361	0	2.876	0	-1e10	8	-1e10	8	-1E+10	1	-1E+10	1	-1E+10	1	-1E+10	1	-1E+10	1	-1E+10	1
4902554	90	C	08/05/2023	15:10	-132.638	47.775	0	4.10	0	17.3960	0	32.3160	0	23.363	0	4.066	0	-1e10	8	-1e10	8	-1E+10	1	-1E+10	1	-1E+10	1	-1E+10	1	-1E+10	1	-1E+10	1
4902554	90	C	08/05/2023	15:10	-132.638	47.775	0	5.10	0	17.3960	0	32.3210	0	23.367	0	5.057	0	-1e10	8	-1e10	8	-1E+10	1	-1E+10	1	-1E+10	1	-1E+10	1	-1E+10	1	-1E+10	1
4902554	90	C	08/05/2023	15:10	-132.638	47.775	0	6.10	0	17.3950	0	32.3210	0	23.368	0	6.049	0	-1e10	8	-1e10	8	-1E+10	1	-1E+10	1	-1E+10	1	-1E+10	1	-1E+10	1	-1E+10	1
4902554	90	C	08/05/2023	15:10	-132.638	47.775	0	7.00	0	17.3930	0	32.3200	0	23.367	0	6.941	0	-1e10	8	-1e10	8	-1E+10	1	-1E+10	1	-1E+10	1	-1E+10	1	-1E+10	1	-1E+10	1
4902554	90	C	08/05/2023	15:10	-132.638	47.775	0	7.90	0	17.3890	0	32.3200	0	23.368	0	7.834	0	-1e10	8	-1e10	8	-1E+10	1	-1E+10	1	-1E+10	1	-1E+10	1	-1E+10	1	-1E+10	1
4902554	90	C	08/05/2023	15:10	-132.638	47.775	0	8.90	0	17.3800	0	32.3210	0	23.371	0	8.825	0	-1e10	8	-1e10	8	-1E+10	1	-1E+10	1	-1E+10	1	-1E+10	1	-1E+10	1	-1E+10	1
4902554	90	C	08/05/2023	15:10	-132.638	47.775	0	9.90	0	17.3380	0	32.3180	0	23.379	0	9.817	0	-1e10	8	-1e10	8	-1E+10	1	-1E+10	1	-1E+10	1	-1E+10	1	-1E+10	1	-1E+10	1
4902554	90	C	08/05/2023	15:10	-132.638	47.775	0	11.10	0	17.0050	0	32.3240	0	23.462	0	11.007	0	-1e10	8	-1e10	8	-1E+10	1	-1E+10	1	-1E+10	1	-1E+10	1	-1E+10	1	-1E+10	1
4902554	90	C	08/05/2023	15:10	-132.638	47.775	0	12.00	0	16.8260	0	32.3330	0	23.510	0	11.899	0	-1e10	8	-1e10	8	-1E+10	1	-1E+10	1	-1E+10	1	-1E+10	1	-1E+10	1	-1E+10	1
4902554	90	C	08/05/2023	15:10	-132.638	47.775	0	13.10	0	16.7310	0	32.3380	0	23.536	0	12.990	0	-1e10	8	-1e10	8	-1E+10	1	-1E+10	1	-1E+10	1	-1E+10	1	-1E+10	1	-1E+10	1
4902554	90	C	08/05/2023	15:10	-132.638	47.775	0	14.00	0	16.6660	0	32.3380	0	23.551	0	13.882	0	-1e10	8	-1e10	8	-1E+10	1	-1E+10	1	-1E+10	1	-1E+10	1	-1E+10	1	-1E+10	1
4902554	90	C	08/05/2023	15:10	-132.638	47.775	0	14.90	0	16.4810	0	32.3450	0	23.599	0	14.775	0	-1e10	8	-1e10	8	-1E+10	1	-1E+10	1	-1E+10	1	-1E+10	1	-1E+10	1	-1E+10	1
4902554	90	C	08/05/2023	15:10	-132.638	47.775	0	16.00	0	16.2790	0	32.3480	0	23.647	0	15.865	0	-1e10	8	-1e10	8	-1E+10	1	-1E+10	1	-1E+10	1	-1E+10	1	-1E+10	1	-1E+10	1
4902554	90	C	08/05/2023	15:10	-132.638	47.775	0	17.20	0	16.1430	0	32.3390	0	23.671	0	17.055	0	-1e10	8	-1e10	8	-1E+10	1	-1E+10	1	-1E+10	1	-1E+10	1	-1E+10	1	-1E+10	1
4902554	90	C	08/05/2023	15:10	-132.638	47.775	0	18.00	0	15.6900	0	32.3510	0	23.781	0	17.849	0	-1e10	8	-1e10	8	-1E+10	1	-1E+10	1	-1E+10	1	-1E+10	1	-1E+10	1	-1E+10	1
4902554	90	C	08/05/2023	15:10	-132.638	47.775	0	19.00	0	14.5750	0	32.3490	0	24.021	0	18.840	0	-1e10	8	-1e10	8	-1E+10	1	-1E+10	1	-1E+10	1	-1E+10	1	-1E+10	1	-1E+10	1
4902554	90	C	08/05/2023	15:10	-132.638	47.775	0	19.80	0	14.0080	0	32.3460	0	24.137	0	19.633	0	-1e10	8	-1e10	8	-1E+10	1	-1E+10	1	-1E+10	1	-1E+10	1	-1E+10	1	-1E+10	1
4902554	90	C	08/05/2023	15:10	-132.638	47.775	0	20.80	0	13.3640	0	32.3540	0	24.273	0	20.625	0	-1e10	8	-1e10	8	-1E+10	1	-1E+10	1	-1E+10	1	-1E+10	1	-1E+10	1	-1E+10	1
4902554	90	C	08/05/2023	15:10	-132.638	47.775	0	21.90	0	12.9210	0	32.3570	0	24.363	0	21.716	0	-1e10	8	-1e10	8	-1E+10	1	-1E+10	1	-1E+10	1	-1E+10	1	-1E+10	1	-1E+10	1
4902554	90	C	08/05/2023	15:10	-132.638	47.775	0	22.90	0	12.5930	0	32.3600	0	24.428	0	22.707	0	-1e10	8	-1e10	8	-1E+10	1	-1E+10	1	-1E+10	1	-1E+10	1	-1E+10	1	-1E+10	1
4902554	90	C	08/05/2023	15:10	-132.638	47.775	0	23.80	0	12.2810	0	32.3650	0	24.492	0	23.599	0	-1e10	8	-1e10	8	-1E+10	1	-1E+10	1	-1E+10	1	-1E+10	1	-1E+10	1	-1E+10	1
4902554	90	C	08/05/2023	15:10	-132.638	47.775	0	24.80	0	12.0910	0	32.3730	0	24.534	0	24.591	0	-1e10	8	-1e10	8	-1E+10	1	-1E+10	1	-1E+10	1	-1E+10	1	-1E+10	1	-1E+10	1
4902554	90	C	08/05/2023	15:10	-132.638	47.775	0	25.80	0	12.0750	0	32.3710	0	24.535	0	25.582	0	-1e10	8	-1e10	8	-1E+10	1	-1E+10	1	-1E+10	1	-1E+10	1	-1E+10	1	-1E+10	1
4902554	90	C	08/05/2023	15:10	-132.638	47.775	0	27.10	0	12.0440	0	32.3700	0	24.540	0	26.871	0	-1e10	8	-1e10	8	-1E+10	1	-1E+10	1	-1E+10	1	-1E+10	1	-1E+10	1	-1E+10	1
4902554	90	C	08/05/2023	15:10	-132.638	47.775	0	28.10	0	11.9640	0	32.3660	0	24.552	0	27.863	0	-1e10	8	-1e10	8	-1E+10	1	-1E+10	1	-1E+10	1	-1E+10	1	-1E+10	1	-1E+10	1
4902554	90	C	08/05/2023	15:10	-132.638	47.775	0	29.00	0	11.8230	0	32.3740	0	24.584	0	28.755	0	-1e10	8	-1e10	8	-1E+10	1	-1E+10	1	-1E+10	1	-1E+10	1	-1E+10	1	-1E+10	1
4902554	90	C	08/05/2023	15:10	-132.638	47.775	0	30.20	0	11.5500	0	32.3730	0	24.633	0	29.945	0	-1e10	8	-1e10	8	-1E+10	1	-1E+10	1	-1E+10	1	-1E+10	1	-1E+10	1	-1E+10	1
4902554	90	C	08/05/2023	15:10	-132.638	47.775	0	31.00	0	11.4340	0	32.3690	0	24.651	0	30.738	0	-1e10	8	-1e10	8	-1E+10	1	-1E+10	1	-1E+10	1	-1E+10	1	-1E+10	1	-1E+10	1
4902554	90	C	08/05/2023	15:10	-132.638	47.775	0	32.00	0	11.1880	0	32.3770	0	24.701	0	31.730	0	-1e10	8	-1e10	8	-1E+10	1	-1E+10	1	-1E+10	1	-1E+10	1	-1E+10	1	-1E+10	1
4902554	90	C	08/05/2023	15:10	-132.638	47.775	0	33.00	0	10.7920	0	32.3840	0	24.777	0	32.721	0	-1e10	8	-1e10	8	-1E+10	1	-1E+10	1	-1E+10	1	-1E+10	1	-1E+10	1	-1E+10	1
4902554	90	C	08/05/2023	15:10	-132.638	47.775	0	34.00	0	10.5070	0	32.3810	0	24.823	0	33.713	0	-1e10	8	-1e10	8	-1E+10	1	-1E+10	1	-1E+10	1	-1E+10	1	-1E+10	1	-1E+10	1
4902554	90	C	08/05/2023	15:10	-132.638	47.775	0	35.10	0	10.2560	0	32.3970	0	24.878	0	34.803	0	-1e10	8	-1e10	8	-1E+10	1	-1E+10	1	-1E+10	1	-1E+10	1	-1E+10	1	-1E+10	1
4902554	90	C	08/05/2023	15:10	-132.638	47.775	0	36.10	0	9.9340	0	32.4090	0	24.941	0	35.795	0	-1e10	8	-1e10	8	-1E+10	1	-1E+10	1	-1E+10	1	-1E+10	1	-1E+10	1	-1E+10	1
4902554	90	C	08/05/2023	15:10	-132.638	47.775	0	37.00	0	9.5600	0	32.4040	0	24.998	0	36.687	0	-1e10	8	-1e10	8	-1E+10	1	-1E+10	1	-1E+10	1	-1E+10	1	-1E+10	1	-1E+10	1
4902554	90	C	08/05/2023	15:10	-132.638	47.775	0	37.70	0	9.3690	0	32.4150	0	25.037	0	37.381	0	-1e10	8	-1e10	8	-1E+10	1	-1E+10	1	-1E+10	1	-1E+10	1	-1E+10	1	-1E+10	1
4902554	90	C	08/05/2023	15:10	-132.638	47.775	0	38.70	0	9.2610	0	32.4050	0	25.047	0	38.372	0	-1e10	8	-1e10	8	-1E+10	1	-1E+10	1	-1E+10	1	-1E+10	1	-1E+10	1	-1E+10	1
4902554	90	C	08/05/2023	15:10	-132.638	47.775	0	39.90	0	9.0920	0	32.4150	0	25.081	0	39.562	0	-1e10	8	-1e10	8	-1E+10	1	-1E+10	1	-1E+10	1	-1E+10	1	-1E+10	1	-1E+10	1
4902554	90	C	08/05/2023	15:10	-132.638	47.775	0	40.80	0	8.8510	0	32.4570	0	25.151	0	40.454	0	-1e10	8	-1e10	8	-1E+10	1	-1E+10	1	-1E+10	1	-1E+10	1	-1E+10	1	-1E+10	1
4902554	90	C	08/05/2023	15:10	-132.638	47.775	0	41.80	0	8.6690	0	32.4300	0	25.158	0	41.446	0	-1e10	8	-1e10	8	-1E+10	1	-1E+10	1	-1E+10	1	-1E+10	1	-1E+10	1	-1E+10	1
4902554	90	C	08/05/2023	15:10	-132.638	47.775	0	43.10	0	8.5040	0	32.4290	0	25.182	0	42.735	0	-1e10	8	-1e10	8	-1E+10	1	-1E+10	1	-1E+10	1	-1E+10	1	-1E+10	1	-1E+10	1
4902554	90	C	08/05/2023	15:10	-132.638	47.775	0	44.00	0	8.4420	0	32.4310	0	25.193	0	43.627	0	-1e10	8	-1e10	8	-1E+10	1	-1E+10	1	-1E+10	1	-1E+10	1	-1E+10	1	-1E+10	1
4902554	90	C	08/05/2023	15:10	-132.638	47.775	0	45.00	0	8.4060	0	32.4270	0	25.195	0	44.618	0	-1e10	8	-1e10	8	-1E+10	1	-1E+10	1	-1E+10	1	-1E+10	1	-1E+10	1	-1E+10	1
4902554	90	C	08/05/2023	15:10	-132.638	47.775	0	45.90	0	8.2920	0	32.4210	0	25.207	0	45.511	0	-1e10	8	-1e10	8	-1E+10	1	-1E+10	1	-1E+10	1	-1E+10	1	-1E+10	1	-1E+10	1
4902554	90	C	08/05/2023	15:10	-132.638	47.775	0	46.90	0	8.1070	0	32.4060	0	25.223	0	46.502	0	-1e10	8	-1e10	8	-1E+10	1	-1E+10	1	-1E+10	1	-1E+10	1	-1E+10	1	-1E+10	1
4902554	90	C	08/05/2023	15:10	-132.638	47.775	0	47.80	0	7.9900	0	32.3960	0	25.232	0	47.394	0	-1e10	8	-1e10	8	-1E+10	1	-1E+10	1	-1E+10	1	-1E+10	1	-1E+10	1	-1E+10	1
4902554	90	C	08/05/2023	15:10	-132.638	47.775	0	48.80	0	8.0130	0	32.4090	0	25.239	0	48.386	0	-1e10	8	-1e10	8	-1E+10	1	-1E+10	1	-1E+10	1	-1E+10	1	-1E+10	1	-1E+10	1
4902554	90	C	08/05/2023	15:10	-132.638	47.775	0	49.90	0	7.9960	0	32.4190	0	25.249	0	49.476	0	-1e10	8	-1e10	8	-1E+10	1	-1E+10	1	-1E+10	1	-1E+10	1	-1E+10	1	-1E+10	1
4902554	90	C	08/05/2023	15:10	-132.638	47.775	0	51.20	0	7.9330	0	32.4260	0	25.263	0	50.765	0	-1e10	8	-1e10	8	-1E+10	1	-1E+10	1	-1E+10	1	-1E+10	1	-1E+10	1	-1E+10	1
4902554	90	C	08/05/2023	15:10	-132.638	47.775	0	52.00	0	7.9090	0	32.4260	0	25.267	0	51.558	0	-1e10	8	-1e10	8	-1E+10	1	-1E+10	1	-1E+10	1	-1E+10	1	-1E+10	1	-1E+10	1
4902554	90	C	08/05/2023	15:10	-132.638	47.775	0	53.10	0	7.8750	0	32.4270	0	25.273	0	52.649	0	-1e10	8	-1e10	8	-1E+10	1	-1E+10	1	-1E+10	1	-1E+10	1	-1E+10	1	-1E+10	1
4902554	90	C	08/05/2023	15:10	-132.638	47.775	0	53.90	0	7.7450	0	32.4140	0	25.281	0	53.442	0	-1e10	8	-1e10	8	-1E+10	1	-1E+10	1	-1E+10	1	-1E+10	1	-1E+10	1	-1E+10	1
4902554	90	C	08/05/2023	15:10	-132.638	47.775	0	55.10	0	7.6840	0	32.4080	0	25.285	0	54.631	0	-1e10	8	-1e10	8	-1E+10	1	-1E+10	1	-1E+10	1	-1E+10	1	-1E+10	1	-1E+10	1
4902554	90	C	08/05/2023	15:10	-132.638	47.775	0	56.00	0	7.6510	0	32.4110	0	25.292	0	55.524	0	-1e10	8	-1e10	8	-1E+10	1	-1E+10	1	-1E+10	1	-1E+10	1	-1E+10	1	-1E+10	1
4902554	90	C	08/05/2023	15:10	-132.638	47.775	0	57.00	0	7.6450	0	32.4100	0	25.292	0	56.515	0	-1e10	8	-1e10	8	-1E+10	1	-1E+10	1	-1E+10	1	-1E+10	1	-1E+10	1	-1E+10	1
4902554	90	C	08/05/2023	15:10	-132.638	47.775	0	57.90	0	7.6350	0	32.4090	0	25.292	0	57.407	0	-1e10	8	-1e10	8	-1E+10	1	-1E+10	1	-1E+10	1	-1E+10	1	-1E+10	1	-1E+10	1
4902554	90	C	08/05/2023	15:10	-132.638	47.775	0	59.00	0	7.6070	0	32.4090	0	25.296	0	58.498	0	-1e10	8	-1e10	8	-1E+10	1	-1E+10	1	-1E+10	1	-1E+10	1	-1E+10	1	-1E+10	1
4902554	90	C	08/05/2023	15:10	-132.638	47.775	0	60.20	0	7.5640	0	32.4080	0	25.302	0	59.687	0	-1e10	8	-1e10	8	-1E+10	1	-1E+10	1	-1E+10	1	-1E+10	1	-1E+10	1	-1E+10	1
4902554	90	C	08/05/2023	15:10	-132.638	47.775	0	61.00	0	7.5420	0	32.4070	0	25.304	0	60.480	0	-1e10	8	-1e10	8	-1E+10	1	-1E+10	1	-1E+10	1	-1E+10	1	-1E+10	1	-1E+10	1
4902554	90	C	08/05/2023	15:10	-132.638	47.775	0	62.20	0	7.4980	0	32.4020	0	25.306	0	61.670	0	-1e10	8	-1e10	8	-1E+10	1	-1E+10	1	-1E+10	1	-1E+10	1	-1E+10	1	-1E+10	1
4902554	90	C	08/05/2023	15:10	-132.638	47.775	0	63.10	0	7.4720	0	32.4060	0	25.313	0	62.562	0	-1e10	8	-1e10	8	-1E+10	1	-1E+10	1	-1E+10	1	-1E+10	1	-1E+10	1	-1E+10	1
4902554	90	C	08/05/2023	15:10	-132.638	47.775	0	64.00	0	7.4620	0	32.4060	0	25.314	0	63.454	0	-1e10	8	-1e10	8	-1E+10	1	-1E+10	1	-1E+10	1	-1E+10	1	-1E+10	1	-1E+10	1
4902554	90	C	08/05/2023	15:10	-132.638	47.775	0	65.10	0	7.4290	0	32.4080	0	25.320	0	64.545	0	-1e10	8	-1e10	8	-1E+10	1	-1E+10	1	-1E+10	1	-1E+10	1	-1E+10	1	-1E+10	1
4902554	90	C	08/05/2023	15:10	-132.638	47.775	0	66.00	0	7.3880	0	32.4070	0	25.325	0	65.437	0	-1e10	8	-1e10	8	-1E+10	1	-1E+10	1	-1E+10	1	-1E+10	1	-1E+10	1	-1E+10	1
4902554	90	C	08/05/2023	15:10	-132.638	47.775	0	67.10	0	7.3780	0	32.4070	0	25.327	0	66.527	0	-1e10	8	-1e10	8	-1E+10	1	-1E+10	1	-1E+10	1	-1E+10	1	-1E+10	1	-1E+10	1
4902554	90	C	08/05/2023	15:10	-132.638	47.775	0	68.00	0	7.3620	0	32.4060	0	25.328	0	67.420	0	-1e10	8	-1e10	8	-1E+10	1	-1E+10	1	-1E+10	1	-1E+10	1	-1E+10	1	-1E+10	1
4902554	90	C	08/05/2023	15:10	-132.638	47.775	0	69.30	0	7.3340	0	32.4030	0	25.330	0	68.708	0	-1e10	8	-1e10	8	-1E+10	1	-1E+10	1	-1E+10	1	-1E+10	1	-1E+10	1	-1E+10	1
4902554	90	C	08/05/2023	15:10	-132.638	47.775	0	70.10	0	7.2740	0	32.4000	0	25.335	0	69.501	0	-1e10	8	-1e10	8	-1E+10	1	-1E+10	1	-1E+10	1	-1E+10	1	-1E+10	1	-1E+10	1
4902554	90	C	08/05/2023	15:10	-132.638	47.775	0	70.90	0	7.2450	0	32.3970	0	25.337	0	70.294	0	-1e10	8	-1e10	8	-1E+10	1	-1E+10	1	-1E+10	1	-1E+10	1	-1E+10	1	-1E+10	1
4902554	90	C	08/05/2023	15:10	-132.638	47.775	0	72.10	0	7.2380	0	32.3960	0	25.337	0	71.484	0	-1e10	8	-1e10	8	-1E+10	1	-1E+10	1	-1E+10	1	-1E+10	1	-1E+10	1	-1E+10	1
4902554	90	C	08/05/2023	15:10	-132.638	47.775	0	72.90	0	7.2260	0	32.3970	0	25.340	0	72.277	0	-1e10	8	-1e10	8	-1E+10	1	-1E+10	1	-1E+10	1	-1E+10	1	-1E+10	1	-1E+10	1
4902554	90	C	08/05/2023	15:10	-132.638	47.775	0	74.00	0	7.2400	0	32.4040	0	25.343	0	73.367	0	-1e10	8	-1e10	8	-1E+10	1	-1E+10	1	-1E+10	1	-1E+10	1	-1E+10	1	-1E+10	1
4902554	90	C	08/05/2023	15:10	-132.638	47.775	0	75.10	0	7.2330	0	32.4070	0	25.346	0	74.458	0	-1e10	8	-1e10	8	-1E+10	1	-1E+10	1	-1E+10	1	-1E+10	1	-1E+10	1	-1E+10	1
4902554	90	C	08/05/2023	15:10	-132.638	47.775	0	75.90	0	7.2190	0	32.4070	0	25.348	0	75.251	0	-1e10	8	-1e10	8	-1E+10	1	-1E+10	1	-1E+10	1	-1E+10	1	-1E+10	1	-1E+10	1
4902554	90	C	08/05/2023	15:10	-132.638	47.775	0	77.00	0	7.1910	0	32.4050	0	25.351	0	76.341	0	-1e10	8	-1e10	8	-1E+10	1	-1E+10	1	-1E+10	1	-1E+10	1	-1E+10	1	-1E+10	1
4902554	90	C	08/05/2023	15:10	-132.638	47.775	0	78.20	0	7.1820	0	32.4080	0	25.354	0	77.531	0	-1e10	8	-1e10	8	-1E+10	1	-1E+10	1	-1E+10	1	-1E+10	1	-1E+10	1	-1E+10	1
4902554	90	C	08/05/2023	15:10	-132.638	47.775	0	79.00	0	7.1830	0	32.4090	0	25.355	0	78.324	0	-1e10	8	-1e10	8	-1E+10	1	-1E+10	1	-1E+10	1	-1E+10	1	-1E+10	1	-1E+10	1
4902554	90	C	08/05/2023	15:10	-132.638	47.775	0	79.90	0	7.2410	0	32.4190	0	25.355	0	79.216	0	-1e10	8	-1e10	8	-1E+10	1	-1E+10	1	-1E+10	1	-1E+10	1	-1E+10	1	-1E+10	1
4902554	90	C	08/05/2023	15:10	-132.638	47.775	0	80.90	0	7.2710	0	32.4270	0	25.357	0	80.207	0	-1e10	8	-1e10	8	-1E+10	1	-1E+10	1	-1E+10	1	-1E+10	1	-1E+10	1	-1E+10	1
4902554	90	C	08/05/2023	15:10	-132.638	47.775	0	81.80	0	7.2490	0	32.4250	0	25.359	0	81.099	0	-1e10	8	-1e10	8	-1E+10	1	-1E+10	1	-1E+10	1	-1E+10	1	-1E+10	1	-1E+10	1
4902554	90	C	08/05/2023	15:10	-132.638	47.775	0	82.70	0	7.2340	0	32.4230	0	25.359	0	81.991	0	-1e10	8	-1e10	8	-1E+10	1	-1E+10	1	-1E+10	1	-1E+10	1	-1E+10	1	-1E+10	1
4902554	90	C	08/05/2023	15:10	-132.638	47.775	0	84.10	0	7.2060	0	32.4230	0	25.363	0	83.379	0	-1e10	8	-1e10	8	-1E+10	1	-1E+10	1	-1E+10	1	-1E+10	1	-1E+10	1	-1E+10	1
4902554	90	C	08/05/2023	15:10	-132.638	47.775	0	85.10	0	7.1540	0	32.4130	0	25.362	0	84.370	0	-1e10	8	-1e10	8	-1E+10	1	-1E+10	1	-1E+10	1	-1E+10	1	-1E+10	1	-1E+10	1
4902554	90	C	08/05/2023	15:10	-132.638	47.775	0	86.10	0	7.1350	0	32.4110	0	25.363	0	85.361	0	-1e10	8	-1e10	8	-1E+10	1	-1E+10	1	-1E+10	1	-1E+10	1	-1E+10	1	-1E+10	1
4902554	90	C	08/05/2023	15:10	-132.638	47.775	0	87.10	0	7.1180	0	32.4110	0	25.365	0	86.353	0	-1e10	8	-1e10	8	-1E+10	1	-1E+10	1	-1E+10	1	-1E+10	1	-1E+10	1	-1E+10	1
4902554	90	C	08/05/2023	15:10	-132.638	47.775	0	88.10	0	7.1380	0	32.4170	0	25.367	0	87.344	0	-1e10	8	-1e10	8	-1E+10	1	-1E+10	1	-1E+10	1	-1E+10	1	-1E+10	1	-1E+10	1
4902554	90	C	08/05/2023	15:10	-132.638	47.775	0	89.10	0	7.1690	0	32.4270	0	25.371	0	88.335	0	-1e10	8	-1e10	8	-1E+10	1	-1E+10	1	-1E+10	1	-1E+10	1	-1E+10	1	-1E+10	1
4902554	90	C	08/05/2023	15:10	-132.638	47.775	0	90.10	0	7.2040	0	32.4350	0	25.373	0	89.326	0	-1e10	8	-1e10	8	-1E+10	1	-1E+10	1	-1E+10	1	-1E+10	1	-1E+10	1	-1E+10	1
4902554	90	C	08/05/2023	15:10	-132.638	47.775	0	91.10	0	7.2320	0	32.4430	0	25.375	0	90.317	0	-1e10	8	-1e10	8	-1E+10	1	-1E+10	1	-1E+10	1	-1E+10	1	-1E+10	1	-1E+10	1
4902554	90	C	08/05/2023	15:10	-132.638	47.775	0	92.30	0	7.2620	0	32.4500	0	25.377	0	91.507	0	-1e10	8	-1e10	8	-1E+10	1	-1E+10	1	-1E+10	1	-1E+10	1	-1E+10	1	-1E+10	1
4902554	90	C	08/05/2023	15:10	-132.638	47.775	0	93.00	0	7.2750	0	32.4540	0	25.378	0	92.201	0	-1e10	8	-1e10	8	-1E+10	1	-1E+10	1	-1E+10	1	-1E+10	1	-1E+10	1	-1E+10	1
4902554	90	C	08/05/2023	15:10	-132.638	47.775	0	94.10	0	7.3200	0	32.4670	0	25.382	0	93.291	0	-1e10	8	-1e10	8	-1E+10	1	-1E+10	1	-1E+10	1	-1E+10	1	-1E+10	1	-1E+10	1
4902554	90	C	08/05/2023	15:10	-132.638	47.775	0	95.00	0	7.3230	0	32.4690	0	25.383	0	94.183	0	-1e10	8	-1e10	8	-1E+10	1	-1E+10	1	-1E+10	1	-1E+10	1	-1E+10	1	-1E+10	1
4902554	90	C	08/05/2023	15:10	-132.638	47.775	0	96.10	0	7.3160	0	32.4740	0	25.388	0	95.273	0	-1e10	8	-1e10	8	-1E+10	1	-1E+10	1	-1E+10	1	-1E+10	1	-1E+10	1	-1E+10	1
4902554	90	C	08/05/2023	15:10	-132.638	47.775	0	97.30	0	7.2310	0	32.4710	0	25.397	0	96.463	0	-1e10	8	-1e10	8	-1E+10	1	-1E+10	1	-1E+10	1	-1E+10	1	-1E+10	1	-1E+10	1
4902554	90	C	08/05/2023	15:10	-132.638	47.775	0	98.20	0	7.2360	0	32.4790	0	25.403	0	97.355	0	-1e10	8	-1e10	8	-1E+10	1	-1E+10	1	-1E+10	1	-1E+10	1	-1E+10	1	-1E+10	1
4902554	90	C	08/05/2023	15:10	-132.638	47.775	0	99.10	0	7.2260	0	32.4810	0	25.406	0	98.247	0	-1e10	8	-1e10	8	-1E+10	1	-1E+10	1	-1E+10	1	-1E+10	1	-1E+10	1	-1E+10	1
4902554	90	C	08/05/2023	15:10	-132.638	47.775	0	100.00	0	7.2020	0	32.4830	0	25.411	0	99.139	0	-1e10	8	-1e10	8	-1E+10	1	-1E+10	1	-1E+10	1	-1E+10	1	-1E+10	1	-1E+10	1
4902554	90	C	08/05/2023	15:10	-132.638	47.775	0	100.90	0	7.1760	0	32.4880	0	25.418	0	100.031	0	-1e10	8	-1e10	8	-1E+10	1	-1E+10	1	-1E+10	1	-1E+10	1	-1E+10	1	-1E+10	1
4902554	90	C	08/05/2023	15:10	-132.638	47.775	0	102.30	0	7.1310	0	32.4970	0	25.431	0	101.419	0	-1e10	8	-1e10	8	-1E+10	1	-1E+10	1	-1E+10	1	-1E+10	1	-1E+10	1	-1E+10	1
4902554	90	C	08/05/2023	15:10	-132.638	47.775	0	103.00	0	7.1260	0	32.5020	0	25.436	0	102.112	0	-1e10	8	-1e10	8	-1E+10	1	-1E+10	1	-1E+10	1	-1E+10	1	-1E+10	1	-1E+10	1
4902554	90	C	08/05/2023	15:10	-132.638	47.775	0	103.90	0	7.0270	0	32.5040	0	25.451	0	103.004	0	-1e10	8	-1e10	8	-1E+10	1	-1E+10	1	-1E+10	1	-1E+10	1	-1E+10	1	-1E+10	1
4902554	90	C	08/05/2023	15:10	-132.638	47.775	0	104.90	0	6.9780	0	32.5190	0	25.469	0	103.995	0	-1e10	8	-1e10	8	-1E+10	1	-1E+10	1	-1E+10	1	-1E+10	1	-1E+10	1	-1E+10	1
4902554	90	C	08/05/2023	15:10	-132.638	47.775	0	105.90	0	7.0000	0	32.5350	0	25.479	0	104.987	0	-1e10	8	-1e10	8	-1E+10	1	-1E+10	1	-1E+10	1	-1E+10	1	-1E+10	1	-1E+10	1
4902554	90	C	08/05/2023	15:10	-132.638	47.775	0	107.00	0	6.9910	0	32.5620	0	25.501	0	106.077	0	-1e10	8	-1e10	8	-1E+10	1	-1E+10	1	-1E+10	1	-1E+10	1	-1E+10	1	-1E+10	1
4902554	90	C	08/05/2023	15:10	-132.638	47.775	0	108.10	0	6.9290	0	32.5840	0	25.527	0	107.167	0	-1e10	8	-1e10	8	-1E+10	1	-1E+10	1	-1E+10	1	-1E+10	1	-1E+10	1	-1E+10	1
4902554	90	C	08/05/2023	15:10	-132.638	47.775	0	109.00	0	6.9200	0	32.5880	0	25.531	0	108.059	0	-1e10	8	-1e10	8	-1E+10	1	-1E+10	1	-1E+10	1	-1E+10	1	-1E+10	1	-1E+10	1
4902554	90	C	08/05/2023	15:10	-132.638	47.775	0	109.80	0	6.9180	0	32.5900	0	25.533	0	108.852	0	-1e10	8	-1e10	8	-1E+10	1	-1E+10	1	-1E+10	1	-1E+10	1	-1E+10	1	-1E+10	1
4902554	90	C	08/05/2023	15:10	-132.638	47.775	0	110.90	0	6.8960	0	32.6030	0	25.546	0	109.942	0	-1e10	8	-1e10	8	-1E+10	1	-1E+10	1	-1E+10	1	-1E+10	1	-1E+10	1	-1E+10	1
4902554	90	C	08/05/2023	15:10	-132.638	47.775	0	111.90	0	6.8570	0	32.6230	0	25.567	0	110.933	0	-1e10	8	-1e10	8	-1E+10	1	-1E+10	1	-1E+10	1	-1E+10	1	-1E+10	1	-1E+10	1
4902554	90	C	08/05/2023	15:10	-132.638	47.775	0	113.10	0	6.8280	0	32.6400	0	25.584	0	112.123	0	-1e10	8	-1e10	8	-1E+10	1	-1E+10	1	-1E+10	1	-1E+10	1	-1E+10	1	-1E+10	1
4902554	90	C	08/05/2023	15:10	-132.638	47.775	0	113.90	0	6.8070	0	32.6620	0	25.605	0	112.915	0	-1e10	8	-1e10	8	-1E+10	1	-1E+10	1	-1E+10	1	-1E+10	1	-1E+10	1	-1E+10	1
4902554	90	C	08/05/2023	15:10	-132.638	47.775	0	115.00	0	6.8010	0	32.6740	0	25.615	0	114.006	0	-1e10	8	-1e10	8	-1E+10	1	-1E+10	1	-1E+10	1	-1E+10	1	-1E+10	1	-1E+10	1
4902554	90	C	08/05/2023	15:10	-132.638	47.775	0	116.00	0	6.7970	0	32.6760	0	25.617	0	114.997	0	-1e10	8	-1e10	8	-1E+10	1	-1E+10	1	-1E+10	1	-1E+10	1	-1E+10	1	-1E+10	1
4902554	90	C	08/05/2023	15:10	-132.638	47.775	0	116.90	0	6.7540	0	32.7070	0	25.647	0	115.889	0	-1e10	8	-1e10	8	-1E+10	1	-1E+10	1	-1E+10	1	-1E+10	1	-1E+10	1	-1E+10	1
4902554	90	C	08/05/2023	15:10	-132.638	47.775	0	117.90	0	6.6760	0	32.7600	0	25.699	0	116.880	0	-1e10	8	-1e10	8	-1E+10	1	-1E+10	1	-1E+10	1	-1E+10	1	-1E+10	1	-1E+10	1
4902554	90	C	08/05/2023	15:10	-132.638	47.775	0	118.90	0	6.6120	0	32.8100	0	25.747	0	117.871	0	-1e10	8	-1e10	8	-1E+10	1	-1E+10	1	-1E+10	1	-1E+10	1	-1E+10	1	-1E+10	1
4902554	90	C	08/05/2023	15:10	-132.638	47.775	0	119.90	0	6.5570	0	32.8490	0	25.785	0	118.862	0	-1e10	8	-1e10	8	-1E+10	1	-1E+10	1	-1E+10	1	-1E+10	1	-1E+10	1	-1E+10	1
4902554	90	C	08/05/2023	15:10	-132.638	47.775	0	120.90	0	6.5230	0	32.8740	0	25.809	0	119.853	0	-1e10	8	-1e10	8	-1E+10	1	-1E+10	1	-1E+10	1	-1E+10	1	-1E+10	1	-1E+10	1
4902554	90	C	08/05/2023	15:10	-132.638	47.775	0	121.80	0	6.4650	0	32.9140	0	25.848	0	120.745	0	-1e10	8	-1e10	8	-1E+10	1	-1E+10	1	-1E+10	1	-1E+10	1	-1E+10	1	-1E+10	1
4902554	90	C	08/05/2023	15:10	-132.638	47.775	0	123.10	0	6.3070	0	33.0260	0	25.956	0	122.033	0	-1e10	8	-1e10	8	-1E+10	1	-1E+10	1	-1E+10	1	-1E+10	1	-1E+10	1	-1E+10	1
4902554	90	C	08/05/2023	15:10	-132.638	47.775	0	123.80	0	6.2650	0	33.0530	0	25.983	0	122.727	0	-1e10	8	-1e10	8	-1E+10	1	-1E+10	1	-1E+10	1	-1E+10	1	-1E+10	1	-1E+10	1
4902554	90	C	08/05/2023	15:10	-132.638	47.775	0	124.80	0	6.1540	0	33.1360	0	26.062	0	123.718	0	-1e10	8	-1e10	8	-1E+10	1	-1E+10	1	-1E+10	1	-1E+10	1	-1E+10	1	-1E+10	1
4902554	90	C	08/05/2023	15:10	-132.638	47.775	0	125.90	0	6.1020	0	33.1730	0	26.098	0	124.808	0	-1e10	8	-1e10	8	-1E+10	1	-1E+10	1	-1E+10	1	-1E+10	1	-1E+10	1	-1E+10	1
4902554	90	C	08/05/2023	15:10	-132.638	47.775	0	127.10	0	6.0570	0	33.2060	0	26.130	0	125.997	0	-1e10	8	-1e10	8	-1E+10	1	-1E+10	1	-1E+10	1	-1E+10	1	-1E+10	1	-1E+10	1
4902554	90	C	08/05/2023	15:10	-132.638	47.775	0	128.10	0	6.0380	0	33.2200	0	26.143	0	126.988	0	-1e10	8	-1e10	8	-1E+10	1	-1E+10	1	-1E+10	1	-1E+10	1	-1E+10	1	-1E+10	1
4902554	90	C	08/05/2023	15:10	-132.638	47.775	0	129.00	0	6.0330	0	33.2220	0	26.145	0	127.880	0	-1e10	8	-1e10	8	-1E+10	1	-1E+10	1	-1E+10	1	-1E+10	1	-1E+10	1	-1E+10	1
4902554	90	C	08/05/2023	15:10	-132.638	47.775	0	130.00	0	6.0180	0	33.2370	0	26.159	0	128.871	0	-1e10	8	-1e10	8	-1E+10	1	-1E+10	1	-1E+10	1	-1E+10	1	-1E+10	1	-1E+10	1
4902554	90	C	08/05/2023	15:10	-132.638	47.775	0	131.00	0	5.9840	0	33.2610	0	26.182	0	129.862	0	-1e10	8	-1e10	8	-1E+10	1	-1E+10	1	-1E+10	1	-1E+10	1	-1E+10	1	-1E+10	1
4902554	90	C	08/05/2023	15:10	-132.638	47.775	0	132.00	0	5.9620	0	33.2770	0	26.197	0	130.853	0	-1e10	8	-1e10	8	-1E+10	1	-1E+10	1	-1E+10	1	-1E+10	1	-1E+10	1	-1E+10	1
4902554	90	C	08/05/2023	15:10	-132.638	47.775	0	133.00	0	5.9570	0	33.2840	0	26.204	0	131.844	0	-1e10	8	-1e10	8	-1E+10	1	-1E+10	1	-1E+10	1	-1E+10	1	-1E+10	1	-1E+10	1
4902554	90	C	08/05/2023	15:10	-132.638	47.775	0	134.10	0	5.9390	0	33.2960	0	26.215	0	132.934	0	-1e10	8	-1e10	8	-1E+10	1	-1E+10	1	-1E+10	1	-1E+10	1	-1E+10	1	-1E+10	1
4902554	90	C	08/05/2023	15:10	-132.638	47.775	0	134.90	0	5.9270	0	33.3120	0	26.229	0	133.727	0	-1e10	8	-1e10	8	-1E+10	1	-1E+10	1	-1E+10	1	-1E+10	1	-1E+10	1	-1E+10	1
4902554	90	C	08/05/2023	15:10	-132.638	47.775	0	135.90	0	5.9330	0	33.3300	0	26.243	0	134.718	0	-1e10	8	-1e10	8	-1E+10	1	-1E+10	1	-1E+10	1	-1E+10	1	-1E+10	1	-1E+10	1
4902554	90	C	08/05/2023	15:10	-132.638	47.775	0	137.10	0	5.9160	0	33.3530	0	26.263	0	135.907	0	-1e10	8	-1e10	8	-1E+10	1	-1E+10	1	-1E+10	1	-1E+10	1	-1E+10	1	-1E+10	1
4902554	90	C	08/05/2023	15:10	-132.638	47.775	0	137.90	0	5.8870	0	33.3760	0	26.285	0	136.700	0	-1e10	8	-1e10	8	-1E+10	1	-1E+10	1	-1E+10	1	-1E+10	1	-1E+10	1	-1E+10	1
4902554	90	C	08/05/2023	15:10	-132.638	47.775	0	138.70	0	5.8730	0	33.3870	0	26.295	0	137.493	0	-1e10	8	-1e10	8	-1E+10	1	-1E+10	1	-1E+10	1	-1E+10	1	-1E+10	1	-1E+10	1
4902554	90	C	08/05/2023	15:10	-132.638	47.775	0	139.90	0	5.8240	0	33.4230	0	26.330	0	138.682	0	-1e10	8	-1e10	8	-1E+10	1	-1E+10	1	-1E+10	1	-1E+10	1	-1E+10	1	-1E+10	1
4902554	90	C	08/05/2023	15:10	-132.638	47.775	0	141.20	0	5.8060	0	33.4330	0	26.340	0	139.970	0	-1e10	8	-1e10	8	-1E+10	1	-1E+10	1	-1E+10	1	-1E+10	1	-1E+10	1	-1E+10	1
4902554	90	C	08/05/2023	15:10	-132.638	47.775	0	142.00	0	5.7900	0	33.4470	0	26.353	0	140.763	0	-1e10	8	-1e10	8	-1E+10	1	-1E+10	1	-1E+10	1	-1E+10	1	-1E+10	1	-1E+10	1
4902554	90	C	08/05/2023	15:10	-132.638	47.775	0	142.90	0	5.7960	0	33.4570	0	26.360	0	141.655	0	-1e10	8	-1e10	8	-1E+10	1	-1E+10	1	-1E+10	1	-1E+10	1	-1E+10	1	-1E+10	1
4902554	90	C	08/05/2023	15:10	-132.638	47.775	0	143.80	0	5.8060	0	33.4710	0	26.370	0	142.547	0	-1e10	8	-1e10	8	-1E+10	1	-1E+10	1	-1E+10	1	-1E+10	1	-1E+10	1	-1E+10	1
4902554	90	C	08/05/2023	15:10	-132.638	47.775	0	144.60	0	5.8090	0	33.4770	0	26.374	0	143.339	0	-1e10	8	-1e10	8	-1E+10	1	-1E+10	1	-1E+10	1	-1E+10	1	-1E+10	1	-1E+10	1
4902554	90	C	08/05/2023	15:10	-132.638	47.775	0	145.90	0	5.8080	0	33.5010	0	26.394	0	144.628	0	-1e10	8	-1e10	8	-1E+10	1	-1E+10	1	-1E+10	1	-1E+10	1	-1E+10	1	-1E+10	1
4902554	90	C	08/05/2023	15:10	-132.638	47.775	0	147.40	0	5.8070	0	33.5090	0	26.400	0	146.114	0	-1e10	8	-1e10	8	-1E+10	1	-1E+10	1	-1E+10	1	-1E+10	1	-1E+10	1	-1E+10	1
4902554	90	C	08/05/2023	15:10	-132.638	47.775	0	148.30	0	5.7940	0	33.5170	0	26.408	0	147.006	0	-1e10	8	-1e10	8	-1E+10	1	-1E+10	1	-1E+10	1	-1E+10	1	-1E+10	1	-1E+10	1
4902554	90	C	08/05/2023	15:10	-132.638	47.775	0	149.20	0	5.7880	0	33.5220	0	26.413	0	147.898	0	-1e10	8	-1e10	8	-1E+10	1	-1E+10	1	-1E+10	1	-1E+10	1	-1E+10	1	-1E+10	1
4902554	90	C	08/05/2023	15:10	-132.638	47.775	0	150.20	0	5.7840	0	33.5340	0	26.423	0	148.888	0	-1e10	8	-1e10	8	-1E+10	1	-1E+10	1	-1E+10	1	-1E+10	1	-1E+10	1	-1E+10	1
4902554	90	C	08/05/2023	15:10	-132.638	47.775	0	151.10	0	5.7690	0	33.5370	0	26.427	0	149.780	0	-1e10	8	-1e10	8	-1E+10	1	-1E+10	1	-1E+10	1	-1E+10	1	-1E+10	1	-1E+10	1
4902554	90	C	08/05/2023	15:10	-132.638	47.775	0	152.10	0	5.7570	0	33.5350	0	26.427	0	150.771	0	-1e10	8	-1e10	8	-1E+10	1	-1E+10	1	-1E+10	1	-1E+10	1	-1E+10	1	-1E+10	1
4902554	90	C	08/05/2023	15:10	-132.638	47.775	0	153.00	0	5.7450	0	33.5420	0	26.434	0	151.663	0	-1e10	8	-1e10	8	-1E+10	1	-1E+10	1	-1E+10	1	-1E+10	1	-1E+10	1	-1E+10	1
4902554	90	C	08/05/2023	15:10	-132.638	47.775	0	154.00	0	5.7460	0	33.5420	0	26.434	0	152.654	0	-1e10	8	-1e10	8	-1E+10	1	-1E+10	1	-1E+10	1	-1E+10	1	-1E+10	1	-1E+10	1
4902554	90	C	08/05/2023	15:10	-132.638	47.775	0	155.00	0	5.7530	0	33.5440	0	26.434	0	153.645	0	-1e10	8	-1e10	8	-1E+10	1	-1E+10	1	-1E+10	1	-1E+10	1	-1E+10	1	-1E+10	1
4902554	90	C	08/05/2023	15:10	-132.638	47.775	0	156.00	0	5.7560	0	33.5560	0	26.443	0	154.636	0	-1e10	8	-1e10	8	-1E+10	1	-1E+10	1	-1E+10	1	-1E+10	1	-1E+10	1	-1E+10	1
4902554	90	C	08/05/2023	15:10	-132.638	47.775	0	157.00	0	5.7600	0	33.5620	0	26.448	0	155.627	0	-1e10	8	-1e10	8	-1E+10	1	-1E+10	1	-1E+10	1	-1E+10	1	-1E+10	1	-1E+10	1
4902554	90	C	08/05/2023	15:10	-132.638	47.775	0	158.00	0	5.7550	0	33.5650	0	26.451	0	156.617	0	-1e10	8	-1e10	8	-1E+10	1	-1E+10	1	-1E+10	1	-1E+10	1	-1E+10	1	-1E+10	1
4902554	90	C	08/05/2023	15:10	-132.638	47.775	0	159.00	0	5.7540	0	33.5790	0	26.462	0	157.608	0	-1e10	8	-1e10	8	-1E+10	1	-1E+10	1	-1E+10	1	-1E+10	1	-1E+10	1	-1E+10	1
4902554	90	C	08/05/2023	15:10	-132.638	47.775	0	160.00	0	5.7570	0	33.5790	0	26.462	0	158.599	0	-1e10	8	-1e10	8	-1E+10	1	-1E+10	1	-1E+10	1	-1E+10	1	-1E+10	1	-1E+10	1
4902554	90	C	08/05/2023	15:10	-132.638	47.775	0	161.00	0	5.7650	0	33.5840	0	26.465	0	159.590	0	-1e10	8	-1e10	8	-1E+10	1	-1E+10	1	-1E+10	1	-1E+10	1	-1E+10	1	-1E+10	1
4902554	90	C	08/05/2023	15:10	-132.638	47.775	0	162.00	0	5.7610	0	33.5910	0	26.471	0	160.581	0	-1e10	8	-1e10	8	-1E+10	1	-1E+10	1	-1E+10	1	-1E+10	1	-1E+10	1	-1E+10	1
4902554	90	C	08/05/2023	15:10	-132.638	47.775	0	163.00	0	5.7500	0	33.6020	0	26.481	0	161.572	0	-1e10	8	-1e10	8	-1E+10	1	-1E+10	1	-1E+10	1	-1E+10	1	-1E+10	1	-1E+10	1
4902554	90	C	08/05/2023	15:10	-132.638	47.775	0	164.10	0	5.7370	0	33.6160	0	26.493	0	162.662	0	-1e10	8	-1e10	8	-1E+10	1	-1E+10	1	-1E+10	1	-1E+10	1	-1E+10	1	-1E+10	1
4902554	90	C	08/05/2023	15:10	-132.638	47.775	0	165.10	0	5.7340	0	33.6180	0	26.495	0	163.652	0	-1e10	8	-1e10	8	-1E+10	1	-1E+10	1	-1E+10	1	-1E+10	1	-1E+10	1	-1E+10	1
4902554	90	C	08/05/2023	15:10	-132.638	47.775	0	166.10	0	5.7290	0	33.6210	0	26.498	0	164.643	0	-1e10	8	-1e10	8	-1E+10	1	-1E+10	1	-1E+10	1	-1E+10	1	-1E+10	1	-1E+10	1
4902554	90	C	08/05/2023	15:10	-132.638	47.775	0	167.10	0	5.7180	0	33.6300	0	26.507	0	165.634	0	-1e10	8	-1e10	8	-1E+10	1	-1E+10	1	-1E+10	1	-1E+10	1	-1E+10	1	-1E+10	1
4902554	90	C	08/05/2023	15:10	-132.638	47.775	0	168.20	0	5.7180	0	33.6310	0	26.507	0	166.724	0	-1e10	8	-1e10	8	-1E+10	1	-1E+10	1	-1E+10	1	-1E+10	1	-1E+10	1	-1E+10	1
4902554	90	C	08/05/2023	15:10	-132.638	47.775	0	169.20	0	5.7170	0	33.6310	0	26.508	0	167.715	0	-1e10	8	-1e10	8	-1E+10	1	-1E+10	1	-1E+10	1	-1E+10	1	-1E+10	1	-1E+10	1
4902554	90	C	08/05/2023	15:10	-132.638	47.775	0	170.20	0	5.7180	0	33.6310	0	26.507	0	168.706	0	-1e10	8	-1e10	8	-1E+10	1	-1E+10	1	-1E+10	1	-1E+10	1	-1E+10	1	-1E+10	1
4902554	90	C	08/05/2023	15:10	-132.638	47.775	0	171.30	0	5.7050	0	33.6390	0	26.515	0	169.796	0	-1e10	8	-1e10	8	-1E+10	1	-1E+10	1	-1E+10	1	-1E+10	1	-1E+10	1	-1E+10	1
4902554	90	C	08/05/2023	15:10	-132.638	47.775	0	172.30	0	5.7000	0	33.6440	0	26.520	0	170.786	0	-1e10	8	-1e10	8	-1E+10	1	-1E+10	1	-1E+10	1	-1E+10	1	-1E+10	1	-1E+10	1
4902554	90	C	08/05/2023	15:10	-132.638	47.775	0	173.30	0	5.6930	0	33.6450	0	26.522	0	171.777	0	-1e10	8	-1e10	8	-1E+10	1	-1E+10	1	-1E+10	1	-1E+10	1	-1E+10	1	-1E+10	1
4902554	90	C	08/05/2023	15:10	-132.638	47.775	0	174.30	0	5.6850	0	33.6500	0	26.527	0	172.768	0	-1e10	8	-1e10	8	-1E+10	1	-1E+10	1	-1E+10	1	-1E+10	1	-1E+10	1	-1E+10	1
4902554	90	C	08/05/2023	15:10	-132.638	47.775	0	175.30	0	5.6810	0	33.6560	0	26.532	0	173.759	0	-1e10	8	-1e10	8	-1E+10	1	-1E+10	1	-1E+10	1	-1E+10	1	-1E+10	1	-1E+10	1
4902554	90	C	08/05/2023	15:10	-132.638	47.775	0	176.40	0	5.6770	0	33.6620	0	26.537	0	174.849	0	-1e10	8	-1e10	8	-1E+10	1	-1E+10	1	-1E+10	1	-1E+10	1	-1E+10	1	-1E+10	1
4902554	90	C	08/05/2023	15:10	-132.638	47.775	0	177.40	0	5.6750	0	33.6620	0	26.537	0	175.839	0	-1e10	8	-1e10	8	-1E+10	1	-1E+10	1	-1E+10	1	-1E+10	1	-1E+10	1	-1E+10	1
4902554	90	C	08/05/2023	15:10	-132.638	47.775	0	178.40	0	5.6740	0	33.6630	0	26.538	0	176.830	0	-1e10	8	-1e10	8	-1E+10	1	-1E+10	1	-1E+10	1	-1E+10	1	-1E+10	1	-1E+10	1
4902554	90	C	08/05/2023	15:10	-132.638	47.775	0	179.40	0	5.6710	0	33.6630	0	26.539	0	177.821	0	-1e10	8	-1e10	8	-1E+10	1	-1E+10	1	-1E+10	1	-1E+10	1	-1E+10	1	-1E+10	1
4902554	90	C	08/05/2023	15:10	-132.638	47.775	0	180.40	0	5.6620	0	33.6680	0	26.544	0	178.812	0	-1e10	8	-1e10	8	-1E+10	1	-1E+10	1	-1E+10	1	-1E+10	1	-1E+10	1	-1E+10	1
4902554	90	C	08/05/2023	15:10	-132.638	47.775	0	181.40	0	5.6280	0	33.6690	0	26.549	0	179.802	0	-1e10	8	-1e10	8	-1E+10	1	-1E+10	1	-1E+10	1	-1E+10	1	-1E+10	1	-1E+10	1
4902554	90	C	08/05/2023	15:10	-132.638	47.775	0	182.40	0	5.5920	0	33.6760	0	26.558	0	180.793	0	-1e10	8	-1e10	8	-1E+10	1	-1E+10	1	-1E+10	1	-1E+10	1	-1E+10	1	-1E+10	1
4902554	90	C	08/05/2023	15:10	-132.638	47.775	0	183.40	0	5.5740	0	33.6760	0	26.561	0	181.784	0	-1e10	8	-1e10	8	-1E+10	1	-1E+10	1	-1E+10	1	-1E+10	1	-1E+10	1	-1E+10	1
4902554	90	C	08/05/2023	15:10	-132.638	47.775	0	184.40	0	5.5720	0	33.6770	0	26.562	0	182.775	0	-1e10	8	-1e10	8	-1E+10	1	-1E+10	1	-1E+10	1	-1E+10	1	-1E+10	1	-1E+10	1
4902554	90	C	08/05/2023	15:10	-132.638	47.775	0	185.40	0	5.5690	0	33.6820	0	26.566	0	183.765	0	-1e10	8	-1e10	8	-1E+10	1	-1E+10	1	-1E+10	1	-1E+10	1	-1E+10	1	-1E+10	1
4902554	90	C	08/05/2023	15:10	-132.638	47.775	0	186.40	0	5.5880	0	33.6920	0	26.572	0	184.756	0	-1e10	8	-1e10	8	-1E+10	1	-1E+10	1	-1E+10	1	-1E+10	1	-1E+10	1	-1E+10	1
4902554	90	C	08/05/2023	15:10	-132.638	47.775	0	187.40	0	5.5660	0	33.6940	0	26.576	0	185.747	0	-1e10	8	-1e10	8	-1E+10	1	-1E+10	1	-1E+10	1	-1E+10	1	-1E+10	1	-1E+10	1
4902554	90	C	08/05/2023	15:10	-132.638	47.775	0	188.40	0	5.5550	0	33.6950	0	26.578	0	186.738	0	-1e10	8	-1e10	8	-1E+10	1	-1E+10	1	-1E+10	1	-1E+10	1	-1E+10	1	-1E+10	1
4902554	90	C	08/05/2023	15:10	-132.638	47.775	0	189.40	0	5.5450	0	33.6970	0	26.581	0	187.728	0	-1e10	8	-1e10	8	-1E+10	1	-1E+10	1	-1E+10	1	-1E+10	1	-1E+10	1	-1E+10	1
4902554	90	C	08/05/2023	15:10	-132.638	47.775	0	190.40	0	5.5340	0	33.6960	0	26.581	0	188.719	0	-1e10	8	-1e10	8	-1E+10	1	-1E+10	1	-1E+10	1	-1E+10	1	-1E+10	1	-1E+10	1
4902554	90	C	08/05/2023	15:10	-132.638	47.775	0	191.30	0	5.5250	0	33.6980	0	26.584	0	189.611	0	-1e10	8	-1e10	8	-1E+10	1	-1E+10	1	-1E+10	1	-1E+10	1	-1E+10	1	-1E+10	1
4902554	90	C	08/05/2023	15:10	-132.638	47.775	0	192.30	0	5.5190	0	33.6990	0	26.585	0	190.601	0	-1e10	8	-1e10	8	-1E+10	1	-1E+10	1	-1E+10	1	-1E+10	1	-1E+10	1	-1E+10	1
4902554	90	C	08/05/2023	15:10	-132.638	47.775	0	193.30	0	5.5140	0	33.7010	0	26.588	0	191.592	0	-1e10	8	-1e10	8	-1E+10	1	-1E+10	1	-1E+10	1	-1E+10	1	-1E+10	1	-1E+10	1
4902554	90	C	08/05/2023	15:10	-132.638	47.775	0	194.20	0	5.5070	0	33.7030	0	26.590	0	192.484	0	-1e10	8	-1e10	8	-1E+10	1	-1E+10	1	-1E+10	1	-1E+10	1	-1E+10	1	-1E+10	1
4902554	90	C	08/05/2023	15:10	-132.638	47.775	0	195.20	0	5.4870	0	33.7110	0	26.599	0	193.475	0	-1e10	8	-1e10	8	-1E+10	1	-1E+10	1	-1E+10	1	-1E+10	1	-1E+10	1	-1E+10	1
4902554	90	C	08/05/2023	15:10	-132.638	47.775	0	196.20	0	5.4870	0	33.7110	0	26.599	0	194.465	0	-1e10	8	-1e10	8	-1E+10	1	-1E+10	1	-1E+10	1	-1E+10	1	-1E+10	1	-1E+10	1
4902554	90	C	08/05/2023	15:10	-132.638	47.775	0	197.10	0	5.4870	0	33.7110	0	26.599	0	195.357	0	-1e10	8	-1e10	8	-1E+10	1	-1E+10	1	-1E+10	1	-1E+10	1	-1E+10	1	-1E+10	1
4902554	90	C	08/05/2023	15:10	-132.638	47.775	0	198.10	0	5.4860	0	33.7110	0	26.599	0	196.348	0	-1e10	8	-1e10	8	-1E+10	1	-1E+10	1	-1E+10	1	-1E+10	1	-1E+10	1	-1E+10	1
4902554	90	C	08/05/2023	15:10	-132.638	47.775	0	199.10	0	5.4830	0	33.7120	0	26.600	0	197.338	0	-1e10	8	-1e10	8	-1E+10	1	-1E+10	1	-1E+10	1	-1E+10	1	-1E+10	1	-1E+10	1
4902554	90	C	08/05/2023	15:10	-132.638	47.775	0	200.10	0	5.4720	0	33.7170	0	26.605	0	198.329	0	-1e10	8	-1e10	8	-1E+10	1	-1E+10	1	-1E+10	1	-1E+10	1	-1E+10	1	-1E+10	1
4902554	90	C	08/05/2023	15:10	-132.638	47.775	0	201.00	0	5.4580	0	33.7230	0	26.612	0	199.220	0	-1e10	8	-1e10	8	-1E+10	1	-1E+10	1	-1E+10	1	-1E+10	1	-1E+10	1	-1E+10	1
4902554	90	C	08/05/2023	15:10	-132.638	47.775	0	202.00	0	5.4570	0	33.7240	0	26.613	0	200.211	0	-1e10	8	-1e10	8	-1E+10	1	-1E+10	1	-1E+10	1	-1E+10	1	-1E+10	1	-1E+10	1
4902554	90	C	08/05/2023	15:10	-132.638	47.775	0	203.00	0	5.4460	0	33.7270	0	26.616	0	201.202	0	-1e10	8	-1e10	8	-1E+10	1	-1E+10	1	-1E+10	1	-1E+10	1	-1E+10	1	-1E+10	1
4902554	90	C	08/05/2023	15:10	-132.638	47.775	0	204.00	0	5.4400	0	33.7290	0	26.619	0	202.192	0	-1e10	8	-1e10	8	-1E+10	1	-1E+10	1	-1E+10	1	-1E+10	1	-1E+10	1	-1E+10	1
4902554	90	C	08/05/2023	15:10	-132.638	47.775	0	205.00	0	5.4380	0	33.7300	0	26.620	0	203.183	0	-1e10	8	-1e10	8	-1E+10	1	-1E+10	1	-1E+10	1	-1E+10	1	-1E+10	1	-1E+10	1
4902554	90	C	08/05/2023	15:10	-132.638	47.775	0	206.00	0	5.4300	0	33.7340	0	26.624	0	204.174	0	-1e10	8	-1e10	8	-1E+10	1	-1E+10	1	-1E+10	1	-1E+10	1	-1E+10	1	-1E+10	1
4902554	90	C	08/05/2023	15:10	-132.638	47.775	0	206.90	0	5.4220	0	33.7370	0	26.627	0	205.065	0	-1e10	8	-1e10	8	-1E+10	1	-1E+10	1	-1E+10	1	-1E+10	1	-1E+10	1	-1E+10	1
4902554	90	C	08/05/2023	15:10	-132.638	47.775	0	207.90	0	5.4180	0	33.7390	0	26.629	0	206.056	0	-1e10	8	-1e10	8	-1E+10	1	-1E+10	1	-1E+10	1	-1E+10	1	-1E+10	1	-1E+10	1
4902554	90	C	08/05/2023	15:10	-132.638	47.775	0	208.90	0	5.4120	0	33.7410	0	26.631	0	207.047	0	-1e10	8	-1e10	8	-1E+10	1	-1E+10	1	-1E+10	1	-1E+10	1	-1E+10	1	-1E+10	1
4902554	90	C	08/05/2023	15:10	-132.638	47.775	0	209.90	0	5.4010	0	33.7440	0	26.635	0	208.037	0	-1e10	8	-1e10	8	-1E+10	1	-1E+10	1	-1E+10	1	-1E+10	1	-1E+10	1	-1E+10	1
4902554	90	C	08/05/2023	15:10	-132.638	47.775	0	210.90	0	5.3950	0	33.7460	0	26.637	0	209.028	0	-1e10	8	-1e10	8	-1E+10	1	-1E+10	1	-1E+10	1	-1E+10	1	-1E+10	1	-1E+10	1
4902554	90	C	08/05/2023	15:10	-132.638	47.775	0	211.90	0	5.3910	0	33.7480	0	26.640	0	210.018	0	-1e10	8	-1e10	8	-1E+10	1	-1E+10	1	-1E+10	1	-1E+10	1	-1E+10	1	-1E+10	1
4902554	90	C	08/05/2023	15:10	-132.638	47.775	0	212.90	0	5.3700	0	33.7510	0	26.644	0	211.009	0	-1e10	8	-1e10	8	-1E+10	1	-1E+10	1	-1E+10	1	-1E+10	1	-1E+10	1	-1E+10	1
4902554	90	C	08/05/2023	15:10	-132.638	47.775	0	213.80	0	5.3460	0	33.7510	0	26.647	0	211.901	0	-1e10	8	-1e10	8	-1E+10	1	-1E+10	1	-1E+10	1	-1E+10	1	-1E+10	1	-1E+10	1
4902554	90	C	08/05/2023	15:10	-132.638	47.775	0	214.80	0	5.3350	0	33.7510	0	26.649	0	212.891	0	-1e10	8	-1e10	8	-1E+10	1	-1E+10	1	-1E+10	1	-1E+10	1	-1E+10	1	-1E+10	1
4902554	90	C	08/05/2023	15:10	-132.638	47.775	0	215.80	0	5.3270	0	33.7520	0	26.650	0	213.882	0	-1e10	8	-1e10	8	-1E+10	1	-1E+10	1	-1E+10	1	-1E+10	1	-1E+10	1	-1E+10	1
4902554	90	C	08/05/2023	15:10	-132.638	47.775	0	216.80	0	5.3150	0	33.7540	0	26.653	0	214.872	0	-1e10	8	-1e10	8	-1E+10	1	-1E+10	1	-1E+10	1	-1E+10	1	-1E+10	1	-1E+10	1
4902554	90	C	08/05/2023	15:10	-132.638	47.775	0	217.70	0	5.3090	0	33.7570	0	26.656	0	215.764	0	-1e10	8	-1e10	8	-1E+10	1	-1E+10	1	-1E+10	1	-1E+10	1	-1E+10	1	-1E+10	1
4902554	90	C	08/05/2023	15:10	-132.638	47.775	0	218.70	0	5.2990	0	33.7580	0	26.658	0	216.754	0	-1e10	8	-1e10	8	-1E+10	1	-1E+10	1	-1E+10	1	-1E+10	1	-1E+10	1	-1E+10	1
4902554	90	C	08/05/2023	15:10	-132.638	47.775	0	219.70	0	5.2790	0	33.7580	0	26.661	0	217.745	0	-1e10	8	-1e10	8	-1E+10	1	-1E+10	1	-1E+10	1	-1E+10	1	-1E+10	1	-1E+10	1
4902554	90	C	08/05/2023	15:10	-132.638	47.775	0	220.70	0	5.2610	0	33.7610	0	26.665	0	218.736	0	-1e10	8	-1e10	8	-1E+10	1	-1E+10	1	-1E+10	1	-1E+10	1	-1E+10	1	-1E+10	1
4902554	90	C	08/05/2023	15:10	-132.638	47.775	0	221.70	0	5.2400	0	33.7630	0	26.669	0	219.726	0	-1e10	8	-1e10	8	-1E+10	1	-1E+10	1	-1E+10	1	-1E+10	1	-1E+10	1	-1E+10	1
4902554	90	C	08/05/2023	15:10	-132.638	47.775	0	222.70	0	5.2140	0	33.7640	0	26.673	0	220.717	0	-1e10	8	-1e10	8	-1E+10	1	-1E+10	1	-1E+10	1	-1E+10	1	-1E+10	1	-1E+10	1
4902554	90	C	08/05/2023	15:10	-132.638	47.775	0	223.70	0	5.2170	0	33.7690	0	26.677	0	221.707	0	-1e10	8	-1e10	8	-1E+10	1	-1E+10	1	-1E+10	1	-1E+10	1	-1E+10	1	-1E+10	1
4902554	90	C	08/05/2023	15:10	-132.638	47.775	0	224.70	0	5.2070	0	33.7700	0	26.679	0	222.698	0	-1e10	8	-1e10	8	-1E+10	1	-1E+10	1	-1E+10	1	-1E+10	1	-1E+10	1	-1E+10	1
4902554	90	C	08/05/2023	15:10	-132.638	47.775	0	225.70	0	5.2030	0	33.7710	0	26.680	0	223.688	0	-1e10	8	-1e10	8	-1E+10	1	-1E+10	1	-1E+10	1	-1E+10	1	-1E+10	1	-1E+10	1
4902554	90	C	08/05/2023	15:10	-132.638	47.775	0	226.70	0	5.1800	0	33.7730	0	26.684	0	224.679	0	-1e10	8	-1e10	8	-1E+10	1	-1E+10	1	-1E+10	1	-1E+10	1	-1E+10	1	-1E+10	1
4902554	90	C	08/05/2023	15:10	-132.638	47.775	0	227.70	0	5.1740	0	33.7730	0	26.685	0	225.669	0	-1e10	8	-1e10	8	-1E+10	1	-1E+10	1	-1E+10	1	-1E+10	1	-1E+10	1	-1E+10	1
4902554	90	C	08/05/2023	15:10	-132.638	47.775	0	228.70	0	5.1630	0	33.7730	0	26.686	0	226.660	0	-1e10	8	-1e10	8	-1E+10	1	-1E+10	1	-1E+10	1	-1E+10	1	-1E+10	1	-1E+10	1
4902554	90	C	08/05/2023	15:10	-132.638	47.775	0	229.70	0	5.1470	0	33.7740	0	26.689	0	227.651	0	-1e10	8	-1e10	8	-1E+10	1	-1E+10	1	-1E+10	1	-1E+10	1	-1E+10	1	-1E+10	1
4902554	90	C	08/05/2023	15:10	-132.638	47.775	0	230.60	0	5.1470	0	33.7730	0	26.688	0	228.542	0	-1e10	8	-1e10	8	-1E+10	1	-1E+10	1	-1E+10	1	-1E+10	1	-1E+10	1	-1E+10	1
4902554	90	C	08/05/2023	15:10	-132.638	47.775	0	231.90	0	5.1340	0	33.7730	0	26.689	0	229.830	0	-1e10	8	-1e10	8	-1E+10	1	-1E+10	1	-1E+10	1	-1E+10	1	-1E+10	1	-1E+10	1
4902554	90	C	08/05/2023	15:10	-132.638	47.775	0	233.00	0	5.1230	0	33.7730	0	26.691	0	230.919	0	-1e10	8	-1e10	8	-1E+10	1	-1E+10	1	-1E+10	1	-1E+10	1	-1E+10	1	-1E+10	1
4902554	90	C	08/05/2023	15:10	-132.638	47.775	0	233.80	0	5.0990	0	33.7740	0	26.694	0	231.712	0	-1e10	8	-1e10	8	-1E+10	1	-1E+10	1	-1E+10	1	-1E+10	1	-1E+10	1	-1E+10	1
4902554	90	C	08/05/2023	15:10	-132.638	47.775	0	234.90	0	5.0640	0	33.7750	0	26.699	0	232.801	0	-1e10	8	-1e10	8	-1E+10	1	-1E+10	1	-1E+10	1	-1E+10	1	-1E+10	1	-1E+10	1
4902554	90	C	08/05/2023	15:10	-132.638	47.775	0	236.10	0	5.0610	0	33.7750	0	26.699	0	233.990	0	-1e10	8	-1e10	8	-1E+10	1	-1E+10	1	-1E+10	1	-1E+10	1	-1E+10	1	-1E+10	1
4902554	90	C	08/05/2023	15:10	-132.638	47.775	0	236.90	0	5.0590	0	33.7750	0	26.700	0	234.782	0	-1e10	8	-1e10	8	-1E+10	1	-1E+10	1	-1E+10	1	-1E+10	1	-1E+10	1	-1E+10	1
4902554	90	C	08/05/2023	15:10	-132.638	47.775	0	238.00	0	5.0560	0	33.7760	0	26.701	0	235.872	0	-1e10	8	-1e10	8	-1E+10	1	-1E+10	1	-1E+10	1	-1E+10	1	-1E+10	1	-1E+10	1
4902554	90	C	08/05/2023	15:10	-132.638	47.775	0	239.20	0	5.0360	0	33.7770	0	26.704	0	237.060	0	-1e10	8	-1e10	8	-1E+10	1	-1E+10	1	-1E+10	1	-1E+10	1	-1E+10	1	-1E+10	1
4902554	90	C	08/05/2023	15:10	-132.638	47.775	0	240.00	0	5.0300	0	33.7780	0	26.705	0	237.853	0	-1e10	8	-1e10	8	-1E+10	1	-1E+10	1	-1E+10	1	-1E+10	1	-1E+10	1	-1E+10	1
4902554	90	C	08/05/2023	15:10	-132.638	47.775	0	240.80	0	5.0280	0	33.7780	0	26.706	0	238.645	0	-1e10	8	-1e10	8	-1E+10	1	-1E+10	1	-1E+10	1	-1E+10	1	-1E+10	1	-1E+10	1
4902554	90	C	08/05/2023	15:10	-132.638	47.775	0	242.00	0	5.0200	0	33.7790	0	26.707	0	239.834	0	-1e10	8	-1e10	8	-1E+10	1	-1E+10	1	-1E+10	1	-1E+10	1	-1E+10	1	-1E+10	1
4902554	90	C	08/05/2023	15:10	-132.638	47.775	0	243.20	0	5.0010	0	33.7800	0	26.710	0	241.022	0	-1e10	8	-1e10	8	-1E+10	1	-1E+10	1	-1E+10	1	-1E+10	1	-1E+10	1	-1E+10	1
4902554	90	C	08/05/2023	15:10	-132.638	47.775	0	244.10	0	4.9960	0	33.7810	0	26.712	0	241.914	0	-1e10	8	-1e10	8	-1E+10	1	-1E+10	1	-1E+10	1	-1E+10	1	-1E+10	1	-1E+10	1
4902554	90	C	08/05/2023	15:10	-132.638	47.775	0	244.90	0	4.9880	0	33.7820	0	26.713	0	242.706	0	-1e10	8	-1e10	8	-1E+10	1	-1E+10	1	-1E+10	1	-1E+10	1	-1E+10	1	-1E+10	1
4902554	90	C	08/05/2023	15:10	-132.638	47.775	0	245.70	0	4.9850	0	33.7820	0	26.714	0	243.498	0	-1e10	8	-1e10	8	-1E+10	1	-1E+10	1	-1E+10	1	-1E+10	1	-1E+10	1	-1E+10	1
4902554	90	C	08/05/2023	15:10	-132.638	47.775	0	247.00	0	4.9790	0	33.7810	0	26.713	0	244.786	0	-1e10	8	-1e10	8	-1E+10	1	-1E+10	1	-1E+10	1	-1E+10	1	-1E+10	1	-1E+10	1
4902554	90	C	08/05/2023	15:10	-132.638	47.775	0	248.30	0	4.9760	0	33.7810	0	26.714	0	246.074	0	-1e10	8	-1e10	8	-1E+10	1	-1E+10	1	-1E+10	1	-1E+10	1	-1E+10	1	-1E+10	1
4902554	90	C	08/05/2023	15:10	-132.638	47.775	0	249.10	0	4.9720	0	33.7820	0	26.715	0	246.866	0	-1e10	8	-1e10	8	-1E+10	1	-1E+10	1	-1E+10	1	-1E+10	1	-1E+10	1	-1E+10	1
4902554	90	C	08/05/2023	15:10	-132.638	47.775	0	250.00	0	4.9650	0	33.7830	0	26.717	0	247.757	0	-1e10	8	-1e10	8	-1E+10	1	-1E+10	1	-1E+10	1	-1E+10	1	-1E+10	1	-1E+10	1
4902554	90	C	08/05/2023	15:10	-132.638	47.775	0	250.90	0	4.9630	0	33.7830	0	26.717	0	248.649	0	-1e10	8	-1e10	8	-1E+10	1	-1E+10	1	-1E+10	1	-1E+10	1	-1E+10	1	-1E+10	1
4902554	90	C	08/05/2023	15:10	-132.638	47.775	0	251.80	0	4.9590	0	33.7830	0	26.717	0	249.540	0	-1e10	8	-1e10	8	-1E+10	1	-1E+10	1	-1E+10	1	-1E+10	1	-1E+10	1	-1E+10	1
4902554	90	C	08/05/2023	15:10	-132.638	47.775	0	252.60	0	4.9550	0	33.7840	0	26.719	0	250.332	0	-1e10	8	-1e10	8	-1E+10	1	-1E+10	1	-1E+10	1	-1E+10	1	-1E+10	1	-1E+10	1
4902554	90	C	08/05/2023	15:10	-132.638	47.775	0	253.90	0	4.9410	0	33.7850	0	26.721	0	251.620	0	-1e10	8	-1e10	8	-1E+10	1	-1E+10	1	-1E+10	1	-1E+10	1	-1E+10	1	-1E+10	1
4902554	90	C	08/05/2023	15:10	-132.638	47.775	0	255.30	0	4.9290	0	33.7880	0	26.725	0	253.007	0	-1e10	8	-1e10	8	-1E+10	1	-1E+10	1	-1E+10	1	-1E+10	1	-1E+10	1	-1E+10	1
4902554	90	C	08/05/2023	15:10	-132.638	47.775	0	256.20	0	4.9260	0	33.7870	0	26.724	0	253.898	0	-1e10	8	-1e10	8	-1E+10	1	-1E+10	1	-1E+10	1	-1E+10	1	-1E+10	1	-1E+10	1
4902554	90	C	08/05/2023	15:10	-132.638	47.775	0	257.20	0	4.9250	0	33.7860	0	26.724	0	254.888	0	-1e10	8	-1e10	8	-1E+10	1	-1E+10	1	-1E+10	1	-1E+10	1	-1E+10	1	-1E+10	1
4902554	90	C	08/05/2023	15:10	-132.638	47.775	0	258.10	0	4.9220	0	33.7870	0	26.725	0	255.780	0	-1e10	8	-1e10	8	-1E+10	1	-1E+10	1	-1E+10	1	-1E+10	1	-1E+10	1	-1E+10	1
4902554	90	C	08/05/2023	15:10	-132.638	47.775	0	259.00	0	4.9210	0	33.7860	0	26.724	0	256.671	0	-1e10	8	-1e10	8	-1E+10	1	-1E+10	1	-1E+10	1	-1E+10	1	-1E+10	1	-1E+10	1
4902554	90	C	08/05/2023	15:10	-132.638	47.775	0	259.90	0	4.9150	0	33.7870	0	26.726	0	257.562	0	-1e10	8	-1e10	8	-1E+10	1	-1E+10	1	-1E+10	1	-1E+10	1	-1E+10	1	-1E+10	1
4902554	90	C	08/05/2023	15:10	-132.638	47.775	0	260.90	0	4.9010	0	33.7890	0	26.729	0	258.553	0	-1e10	8	-1e10	8	-1E+10	1	-1E+10	1	-1E+10	1	-1E+10	1	-1E+10	1	-1E+10	1
4902554	90	C	08/05/2023	15:10	-132.638	47.775	0	261.80	0	4.8960	0	33.7900	0	26.730	0	259.444	0	-1e10	8	-1e10	8	-1E+10	1	-1E+10	1	-1E+10	1	-1E+10	1	-1E+10	1	-1E+10	1
4902554	90	C	08/05/2023	15:10	-132.638	47.775	0	262.80	0	4.8870	0	33.7930	0	26.733	0	260.434	0	-1e10	8	-1e10	8	-1E+10	1	-1E+10	1	-1E+10	1	-1E+10	1	-1E+10	1	-1E+10	1
4902554	90	C	08/05/2023	15:10	-132.638	47.775	0	263.70	0	4.8800	0	33.7940	0	26.735	0	261.326	0	-1e10	8	-1e10	8	-1E+10	1	-1E+10	1	-1E+10	1	-1E+10	1	-1E+10	1	-1E+10	1
4902554	90	C	08/05/2023	15:10	-132.638	47.775	0	264.70	0	4.8760	0	33.7940	0	26.736	0	262.316	0	-1e10	8	-1e10	8	-1E+10	1	-1E+10	1	-1E+10	1	-1E+10	1	-1E+10	1	-1E+10	1
4902554	90	C	08/05/2023	15:10	-132.638	47.775	0	265.70	0	4.8750	0	33.7940	0	26.736	0	263.306	0	-1e10	8	-1e10	8	-1E+10	1	-1E+10	1	-1E+10	1	-1E+10	1	-1E+10	1	-1E+10	1
4902554	90	C	08/05/2023	15:10	-132.638	47.775	0	266.60	0	4.8730	0	33.7950	0	26.737	0	264.198	0	-1e10	8	-1e10	8	-1E+10	1	-1E+10	1	-1E+10	1	-1E+10	1	-1E+10	1	-1E+10	1
4902554	90	C	08/05/2023	15:10	-132.638	47.775	0	267.60	0	4.8700	0	33.7960	0	26.738	0	265.188	0	-1e10	8	-1e10	8	-1E+10	1	-1E+10	1	-1E+10	1	-1E+10	1	-1E+10	1	-1E+10	1
4902554	90	C	08/05/2023	15:10	-132.638	47.775	0	268.50	0	4.8610	0	33.7980	0	26.740	0	266.079	0	-1e10	8	-1e10	8	-1E+10	1	-1E+10	1	-1E+10	1	-1E+10	1	-1E+10	1	-1E+10	1
4902554	90	C	08/05/2023	15:10	-132.638	47.775	0	269.50	0	4.8600	0	33.7990	0	26.741	0	267.070	0	-1e10	8	-1e10	8	-1E+10	1	-1E+10	1	-1E+10	1	-1E+10	1	-1E+10	1	-1E+10	1
4902554	90	C	08/05/2023	15:10	-132.638	47.775	0	270.50	0	4.8420	0	33.8030	0	26.746	0	268.060	0	-1e10	8	-1e10	8	-1E+10	1	-1E+10	1	-1E+10	1	-1E+10	1	-1E+10	1	-1E+10	1
4902554	90	C	08/05/2023	15:10	-132.638	47.775	0	271.50	0	4.8370	0	33.8030	0	26.747	0	269.050	0	-1e10	8	-1e10	8	-1E+10	1	-1E+10	1	-1E+10	1	-1E+10	1	-1E+10	1	-1E+10	1
4902554	90	C	08/05/2023	15:10	-132.638	47.775	0	272.90	0	4.8340	0	33.8030	0	26.747	0	270.437	0	-1e10	8	-1e10	8	-1E+10	1	-1E+10	1	-1E+10	1	-1E+10	1	-1E+10	1	-1E+10	1
4902554	90	C	08/05/2023	15:10	-132.638	47.775	0	274.40	0	4.8190	0	33.8090	0	26.754	0	271.922	0	-1e10	8	-1e10	8	-1E+10	1	-1E+10	1	-1E+10	1	-1E+10	1	-1E+10	1	-1E+10	1
4902554	90	C	08/05/2023	15:10	-132.638	47.775	0	275.40	0	4.8160	0	33.8110	0	26.756	0	272.913	0	-1e10	8	-1e10	8	-1E+10	1	-1E+10	1	-1E+10	1	-1E+10	1	-1E+10	1	-1E+10	1
4902554	90	C	08/05/2023	15:10	-132.638	47.775	0	276.40	0	4.8130	0	33.8130	0	26.758	0	273.903	0	-1e10	8	-1e10	8	-1E+10	1	-1E+10	1	-1E+10	1	-1E+10	1	-1E+10	1	-1E+10	1
4902554	90	C	08/05/2023	15:10	-132.638	47.775	0	277.30	0	4.8100	0	33.8140	0	26.759	0	274.794	0	-1e10	8	-1e10	8	-1E+10	1	-1E+10	1	-1E+10	1	-1E+10	1	-1E+10	1	-1E+10	1
4902554	90	C	08/05/2023	15:10	-132.638	47.775	0	278.30	0	4.8130	0	33.8150	0	26.759	0	275.785	0	-1e10	8	-1e10	8	-1E+10	1	-1E+10	1	-1E+10	1	-1E+10	1	-1E+10	1	-1E+10	1
4902554	90	C	08/05/2023	15:10	-132.638	47.775	0	279.30	0	4.8100	0	33.8160	0	26.760	0	276.775	0	-1e10	8	-1e10	8	-1E+10	1	-1E+10	1	-1E+10	1	-1E+10	1	-1E+10	1	-1E+10	1
4902554	90	C	08/05/2023	15:10	-132.638	47.775	0	280.30	0	4.8070	0	33.8160	0	26.761	0	277.765	0	-1e10	8	-1e10	8	-1E+10	1	-1E+10	1	-1E+10	1	-1E+10	1	-1E+10	1	-1E+10	1
4902554	90	C	08/05/2023	15:10	-132.638	47.775	0	281.20	0	4.8020	0	33.8170	0	26.762	0	278.656	0	-1e10	8	-1e10	8	-1E+10	1	-1E+10	1	-1E+10	1	-1E+10	1	-1E+10	1	-1E+10	1
4902554	90	C	08/05/2023	15:10	-132.638	47.775	0	282.20	0	4.8020	0	33.8160	0	26.761	0	279.647	0	-1e10	8	-1e10	8	-1E+10	1	-1E+10	1	-1E+10	1	-1E+10	1	-1E+10	1	-1E+10	1
4902554	90	C	08/05/2023	15:10	-132.638	47.775	0	283.20	0	4.8020	0	33.8170	0	26.762	0	280.637	0	-1e10	8	-1e10	8	-1E+10	1	-1E+10	1	-1E+10	1	-1E+10	1	-1E+10	1	-1E+10	1
4902554	90	C	08/05/2023	15:10	-132.638	47.775	0	284.10	0	4.8010	0	33.8190	0	26.764	0	281.528	0	-1e10	8	-1e10	8	-1E+10	1	-1E+10	1	-1E+10	1	-1E+10	1	-1E+10	1	-1E+10	1
4902554	90	C	08/05/2023	15:10	-132.638	47.775	0	285.10	0	4.7880	0	33.8200	0	26.766	0	282.518	0	-1e10	8	-1e10	8	-1E+10	1	-1E+10	1	-1E+10	1	-1E+10	1	-1E+10	1	-1E+10	1
4902554	90	C	08/05/2023	15:10	-132.638	47.775	0	286.00	0	4.7830	0	33.8210	0	26.767	0	283.410	0	-1e10	8	-1e10	8	-1E+10	1	-1E+10	1	-1E+10	1	-1E+10	1	-1E+10	1	-1E+10	1
4902554	90	C	08/05/2023	15:10	-132.638	47.775	0	287.00	0	4.7780	0	33.8230	0	26.770	0	284.400	0	-1e10	8	-1e10	8	-1E+10	1	-1E+10	1	-1E+10	1	-1E+10	1	-1E+10	1	-1E+10	1
4902554	90	C	08/05/2023	15:10	-132.638	47.775	0	288.00	0	4.7790	0	33.8230	0	26.769	0	285.390	0	-1e10	8	-1e10	8	-1E+10	1	-1E+10	1	-1E+10	1	-1E+10	1	-1E+10	1	-1E+10	1
4902554	90	C	08/05/2023	15:10	-132.638	47.775	0	288.90	0	4.7790	0	33.8240	0	26.770	0	286.281	0	-1e10	8	-1e10	8	-1E+10	1	-1E+10	1	-1E+10	1	-1E+10	1	-1E+10	1	-1E+10	1
4902554	90	C	08/05/2023	15:10	-132.638	47.775	0	289.90	0	4.7750	0	33.8260	0	26.772	0	287.272	0	-1e10	8	-1e10	8	-1E+10	1	-1E+10	1	-1E+10	1	-1E+10	1	-1E+10	1	-1E+10	1
4902554	90	C	08/05/2023	15:10	-132.638	47.775	0	290.80	0	4.7670	0	33.8290	0	26.776	0	288.163	0	-1e10	8	-1e10	8	-1E+10	1	-1E+10	1	-1E+10	1	-1E+10	1	-1E+10	1	-1E+10	1
4902554	90	C	08/05/2023	15:10	-132.638	47.775	0	291.80	0	4.7670	0	33.8300	0	26.776	0	289.153	0	-1e10	8	-1e10	8	-1E+10	1	-1E+10	1	-1E+10	1	-1E+10	1	-1E+10	1	-1E+10	1
4902554	90	C	08/05/2023	15:10	-132.638	47.775	0	292.80	0	4.7660	0	33.8310	0	26.777	0	290.143	0	-1e10	8	-1e10	8	-1E+10	1	-1E+10	1	-1E+10	1	-1E+10	1	-1E+10	1	-1E+10	1
4902554	90	C	08/05/2023	15:10	-132.638	47.775	0	293.70	0	4.7660	0	33.8320	0	26.778	0	291.035	0	-1e10	8	-1e10	8	-1E+10	1	-1E+10	1	-1E+10	1	-1E+10	1	-1E+10	1	-1E+10	1
4902554	90	C	08/05/2023	15:10	-132.638	47.775	0	294.70	0	4.7630	0	33.8330	0	26.779	0	292.025	0	-1e10	8	-1e10	8	-1E+10	1	-1E+10	1	-1E+10	1	-1E+10	1	-1E+10	1	-1E+10	1
4902554	90	C	08/05/2023	15:10	-132.638	47.775	0	295.70	0	4.7620	0	33.8340	0	26.780	0	293.015	0	-1e10	8	-1e10	8	-1E+10	1	-1E+10	1	-1E+10	1	-1E+10	1	-1E+10	1	-1E+10	1
4902554	90	C	08/05/2023	15:10	-132.638	47.775	0	296.60	0	4.7600	0	33.8350	0	26.781	0	293.906	0	-1e10	8	-1e10	8	-1E+10	1	-1E+10	1	-1E+10	1	-1E+10	1	-1E+10	1	-1E+10	1
4902554	90	C	08/05/2023	15:10	-132.638	47.775	0	297.60	0	4.7570	0	33.8350	0	26.782	0	294.896	0	-1e10	8	-1e10	8	-1E+10	1	-1E+10	1	-1E+10	1	-1E+10	1	-1E+10	1	-1E+10	1
4902554	90	C	08/05/2023	15:10	-132.638	47.775	0	298.60	0	4.7560	0	33.8360	0	26.782	0	295.887	0	-1e10	8	-1e10	8	-1E+10	1	-1E+10	1	-1E+10	1	-1E+10	1	-1E+10	1	-1E+10	1
4902554	90	C	08/05/2023	15:10	-132.638	47.775	0	299.50	0	4.7550	0	33.8360	0	26.783	0	296.778	0	-1e10	8	-1e10	8	-1E+10	1	-1E+10	1	-1E+10	1	-1E+10	1	-1E+10	1	-1E+10	1
4902554	90	C	08/05/2023	15:10	-132.638	47.775	0	300.50	0	4.7540	0	33.8360	0	26.783	0	297.768	0	-1e10	8	-1e10	8	-1E+10	1	-1E+10	1	-1E+10	1	-1E+10	1	-1E+10	1	-1E+10	1
4902554	90	C	08/05/2023	15:10	-132.638	47.775	0	301.90	0	4.7370	0	33.8440	0	26.791	0	299.154	0	-1e10	8	-1e10	8	-1E+10	1	-1E+10	1	-1E+10	1	-1E+10	1	-1E+10	1	-1E+10	1
4902554	90	C	08/05/2023	15:10	-132.638	47.775	0	303.40	0	4.7210	0	33.8490	0	26.797	0	300.639	0	-1e10	8	-1e10	8	-1E+10	1	-1E+10	1	-1E+10	1	-1E+10	1	-1E+10	1	-1E+10	1
4902554	90	C	08/05/2023	15:10	-132.638	47.775	0	304.30	0	4.7170	0	33.8500	0	26.798	0	301.531	0	-1e10	8	-1e10	8	-1E+10	1	-1E+10	1	-1E+10	1	-1E+10	1	-1E+10	1	-1E+10	1
4902554	90	C	08/05/2023	15:10	-132.638	47.775	0	305.30	0	4.7130	0	33.8510	0	26.799	0	302.521	0	-1e10	8	-1e10	8	-1E+10	1	-1E+10	1	-1E+10	1	-1E+10	1	-1E+10	1	-1E+10	1
4902554	90	C	08/05/2023	15:10	-132.638	47.775	0	306.20	0	4.7110	0	33.8520	0	26.800	0	303.412	0	-1e10	8	-1e10	8	-1E+10	1	-1E+10	1	-1E+10	1	-1E+10	1	-1E+10	1	-1E+10	1
4902554	90	C	08/05/2023	15:10	-132.638	47.775	0	307.20	0	4.7090	0	33.8530	0	26.801	0	304.402	0	-1e10	8	-1e10	8	-1E+10	1	-1E+10	1	-1E+10	1	-1E+10	1	-1E+10	1	-1E+10	1
4902554	90	C	08/05/2023	15:10	-132.638	47.775	0	308.10	0	4.7110	0	33.8530	0	26.801	0	305.293	0	-1e10	8	-1e10	8	-1E+10	1	-1E+10	1	-1E+10	1	-1E+10	1	-1E+10	1	-1E+10	1
4902554	90	C	08/05/2023	15:10	-132.638	47.775	0	309.10	0	4.6960	0	33.8580	0	26.807	0	306.283	0	-1e10	8	-1e10	8	-1E+10	1	-1E+10	1	-1E+10	1	-1E+10	1	-1E+10	1	-1E+10	1
4902554	90	C	08/05/2023	15:10	-132.638	47.775	0	310.00	0	4.6940	0	33.8590	0	26.808	0	307.175	0	-1e10	8	-1e10	8	-1E+10	1	-1E+10	1	-1E+10	1	-1E+10	1	-1E+10	1	-1E+10	1
4902554	90	C	08/05/2023	15:10	-132.638	47.775	0	311.00	0	4.6840	0	33.8650	0	26.813	0	308.165	0	-1e10	8	-1e10	8	-1E+10	1	-1E+10	1	-1E+10	1	-1E+10	1	-1E+10	1	-1E+10	1
4902554	90	C	08/05/2023	15:10	-132.638	47.775	0	311.90	0	4.6820	0	33.8660	0	26.814	0	309.056	0	-1e10	8	-1e10	8	-1E+10	1	-1E+10	1	-1E+10	1	-1E+10	1	-1E+10	1	-1E+10	1
4902554	90	C	08/05/2023	15:10	-132.638	47.775	0	312.80	0	4.6780	0	33.8670	0	26.816	0	309.947	0	-1e10	8	-1e10	8	-1E+10	1	-1E+10	1	-1E+10	1	-1E+10	1	-1E+10	1	-1E+10	1
4902554	90	C	08/05/2023	15:10	-132.638	47.775	0	313.80	0	4.6790	0	33.8680	0	26.816	0	310.937	0	-1e10	8	-1e10	8	-1E+10	1	-1E+10	1	-1E+10	1	-1E+10	1	-1E+10	1	-1E+10	1
4902554	90	C	08/05/2023	15:10	-132.638	47.775	0	314.70	0	4.6750	0	33.8690	0	26.818	0	311.828	0	-1e10	8	-1e10	8	-1E+10	1	-1E+10	1	-1E+10	1	-1E+10	1	-1E+10	1	-1E+10	1
4902554	90	C	08/05/2023	15:10	-132.638	47.775	0	315.60	0	4.6660	0	33.8690	0	26.819	0	312.719	0	-1e10	8	-1e10	8	-1E+10	1	-1E+10	1	-1E+10	1	-1E+10	1	-1E+10	1	-1E+10	1
4902554	90	C	08/05/2023	15:10	-132.638	47.775	0	316.90	0	4.6590	0	33.8710	0	26.821	0	314.006	0	-1e10	8	-1e10	8	-1E+10	1	-1E+10	1	-1E+10	1	-1E+10	1	-1E+10	1	-1E+10	1
4902554	90	C	08/05/2023	15:10	-132.638	47.775	0	318.30	0	4.6580	0	33.8710	0	26.821	0	315.393	0	-1e10	8	-1e10	8	-1E+10	1	-1E+10	1	-1E+10	1	-1E+10	1	-1E+10	1	-1E+10	1
4902554	90	C	08/05/2023	15:10	-132.638	47.775	0	319.20	0	4.6550	0	33.8740	0	26.824	0	316.284	0	-1e10	8	-1e10	8	-1E+10	1	-1E+10	1	-1E+10	1	-1E+10	1	-1E+10	1	-1E+10	1
4902554	90	C	08/05/2023	15:10	-132.638	47.775	0	320.20	0	4.6450	0	33.8750	0	26.826	0	317.274	0	-1e10	8	-1e10	8	-1E+10	1	-1E+10	1	-1E+10	1	-1E+10	1	-1E+10	1	-1E+10	1
4902554	90	C	08/05/2023	15:10	-132.638	47.775	0	321.10	0	4.6440	0	33.8760	0	26.827	0	318.165	0	-1e10	8	-1e10	8	-1E+10	1	-1E+10	1	-1E+10	1	-1E+10	1	-1E+10	1	-1E+10	1
4902554	90	C	08/05/2023	15:10	-132.638	47.775	0	322.00	0	4.6470	0	33.8770	0	26.827	0	319.056	0	-1e10	8	-1e10	8	-1E+10	1	-1E+10	1	-1E+10	1	-1E+10	1	-1E+10	1	-1E+10	1
4902554	90	C	08/05/2023	15:10	-132.638	47.775	0	322.90	0	4.6430	0	33.8780	0	26.828	0	319.947	0	-1e10	8	-1e10	8	-1E+10	1	-1E+10	1	-1E+10	1	-1E+10	1	-1E+10	1	-1E+10	1
4902554	90	C	08/05/2023	15:10	-132.638	47.775	0	323.80	0	4.6400	0	33.8790	0	26.829	0	320.838	0	-1e10	8	-1e10	8	-1E+10	1	-1E+10	1	-1E+10	1	-1E+10	1	-1E+10	1	-1E+10	1
4902554	90	C	08/05/2023	15:10	-132.638	47.775	0	324.60	0	4.6410	0	33.8820	0	26.832	0	321.630	0	-1e10	8	-1e10	8	-1E+10	1	-1E+10	1	-1E+10	1	-1E+10	1	-1E+10	1	-1E+10	1
4902554	90	C	08/05/2023	15:10	-132.638	47.775	0	325.90	0	4.5960	0	33.8830	0	26.837	0	322.917	0	-1e10	8	-1e10	8	-1E+10	1	-1E+10	1	-1E+10	1	-1E+10	1	-1E+10	1	-1E+10	1
4902554	90	C	08/05/2023	15:10	-132.638	47.775	0	327.30	0	4.5780	0	33.8850	0	26.841	0	324.303	0	-1e10	8	-1e10	8	-1E+10	1	-1E+10	1	-1E+10	1	-1E+10	1	-1E+10	1	-1E+10	1
4902554	90	C	08/05/2023	15:10	-132.638	47.775	0	328.20	0	4.5770	0	33.8860	0	26.842	0	325.194	0	-1e10	8	-1e10	8	-1E+10	1	-1E+10	1	-1E+10	1	-1E+10	1	-1E+10	1	-1E+10	1
4902554	90	C	08/05/2023	15:10	-132.638	47.775	0	329.10	0	4.5750	0	33.8870	0	26.843	0	326.085	0	-1e10	8	-1e10	8	-1E+10	1	-1E+10	1	-1E+10	1	-1E+10	1	-1E+10	1	-1E+10	1
4902554	90	C	08/05/2023	15:10	-132.638	47.775	0	330.00	0	4.5690	0	33.8870	0	26.844	0	326.976	0	-1e10	8	-1e10	8	-1E+10	1	-1E+10	1	-1E+10	1	-1E+10	1	-1E+10	1	-1E+10	1
4902554	90	C	08/05/2023	15:10	-132.638	47.775	0	330.90	0	4.5610	0	33.8870	0	26.844	0	327.868	0	-1e10	8	-1e10	8	-1E+10	1	-1E+10	1	-1E+10	1	-1E+10	1	-1E+10	1	-1E+10	1
4902554	90	C	08/05/2023	15:10	-132.638	47.775	0	331.80	0	4.5600	0	33.8870	0	26.845	0	328.759	0	-1e10	8	-1e10	8	-1E+10	1	-1E+10	1	-1E+10	1	-1E+10	1	-1E+10	1	-1E+10	1
4902554	90	C	08/05/2023	15:10	-132.638	47.775	0	332.70	0	4.5580	0	33.8860	0	26.844	0	329.650	0	-1e10	8	-1e10	8	-1E+10	1	-1E+10	1	-1E+10	1	-1E+10	1	-1E+10	1	-1E+10	1
4902554	90	C	08/05/2023	15:10	-132.638	47.775	0	333.60	0	4.5490	0	33.8870	0	26.846	0	330.541	0	-1e10	8	-1e10	8	-1E+10	1	-1E+10	1	-1E+10	1	-1E+10	1	-1E+10	1	-1E+10	1
4902554	90	C	08/05/2023	15:10	-132.638	47.775	0	334.50	0	4.5290	0	33.8890	0	26.850	0	331.432	0	-1e10	8	-1e10	8	-1E+10	1	-1E+10	1	-1E+10	1	-1E+10	1	-1E+10	1	-1E+10	1
4902554	90	C	08/05/2023	15:10	-132.638	47.775	0	335.90	0	4.5180	0	33.8890	0	26.851	0	332.818	0	-1e10	8	-1e10	8	-1E+10	1	-1E+10	1	-1E+10	1	-1E+10	1	-1E+10	1	-1E+10	1
4902554	90	C	08/05/2023	15:10	-132.638	47.775	0	337.30	0	4.5080	0	33.8890	0	26.852	0	334.204	0	-1e10	8	-1e10	8	-1E+10	1	-1E+10	1	-1E+10	1	-1E+10	1	-1E+10	1	-1E+10	1
4902554	90	C	08/05/2023	15:10	-132.638	47.775	0	338.20	0	4.4940	0	33.8920	0	26.856	0	335.095	0	-1e10	8	-1e10	8	-1E+10	1	-1E+10	1	-1E+10	1	-1E+10	1	-1E+10	1	-1E+10	1
4902554	90	C	08/05/2023	15:10	-132.638	47.775	0	339.10	0	4.4900	0	33.8930	0	26.857	0	335.986	0	-1e10	8	-1e10	8	-1E+10	1	-1E+10	1	-1E+10	1	-1E+10	1	-1E+10	1	-1E+10	1
4902554	90	C	08/05/2023	15:10	-132.638	47.775	0	340.00	0	4.4920	0	33.8940	0	26.858	0	336.877	0	-1e10	8	-1e10	8	-1E+10	1	-1E+10	1	-1E+10	1	-1E+10	1	-1E+10	1	-1E+10	1
4902554	90	C	08/05/2023	15:10	-132.638	47.775	0	340.90	0	4.4930	0	33.8960	0	26.859	0	337.768	0	-1e10	8	-1e10	8	-1E+10	1	-1E+10	1	-1E+10	1	-1E+10	1	-1E+10	1	-1E+10	1
4902554	90	C	08/05/2023	15:10	-132.638	47.775	0	341.80	0	4.4990	0	33.8970	0	26.859	0	338.659	0	-1e10	8	-1e10	8	-1E+10	1	-1E+10	1	-1E+10	1	-1E+10	1	-1E+10	1	-1E+10	1
4902554	90	C	08/05/2023	15:10	-132.638	47.775	0	342.70	0	4.5060	0	33.8990	0	26.860	0	339.550	0	-1e10	8	-1e10	8	-1E+10	1	-1E+10	1	-1E+10	1	-1E+10	1	-1E+10	1	-1E+10	1
4902554	90	C	08/05/2023	15:10	-132.638	47.775	0	343.60	0	4.5110	0	33.9000	0	26.860	0	340.441	0	-1e10	8	-1e10	8	-1E+10	1	-1E+10	1	-1E+10	1	-1E+10	1	-1E+10	1	-1E+10	1
4902554	90	C	08/05/2023	15:10	-132.638	47.775	0	344.90	0	4.5280	0	33.9070	0	26.864	0	341.728	0	-1e10	8	-1e10	8	-1E+10	1	-1E+10	1	-1E+10	1	-1E+10	1	-1E+10	1	-1E+10	1
4902554	90	C	08/05/2023	15:10	-132.638	47.775	0	346.20	0	4.5400	0	33.9120	0	26.867	0	343.015	0	-1e10	8	-1e10	8	-1E+10	1	-1E+10	1	-1E+10	1	-1E+10	1	-1E+10	1	-1E+10	1
4902554	90	C	08/05/2023	15:10	-132.638	47.775	0	347.10	0	4.5430	0	33.9150	0	26.869	0	343.906	0	-1e10	8	-1e10	8	-1E+10	1	-1E+10	1	-1E+10	1	-1E+10	1	-1E+10	1	-1E+10	1
4902554	90	C	08/05/2023	15:10	-132.638	47.775	0	348.10	0	4.5480	0	33.9170	0	26.870	0	344.896	0	-1e10	8	-1e10	8	-1E+10	1	-1E+10	1	-1E+10	1	-1E+10	1	-1E+10	1	-1E+10	1
4902554	90	C	08/05/2023	15:10	-132.638	47.775	0	348.90	0	4.5520	0	33.9190	0	26.871	0	345.688	0	-1e10	8	-1e10	8	-1E+10	1	-1E+10	1	-1E+10	1	-1E+10	1	-1E+10	1	-1E+10	1
4902554	90	C	08/05/2023	15:10	-132.638	47.775	0	349.80	0	4.5520	0	33.9190	0	26.871	0	346.578	0	-1e10	8	-1e10	8	-1E+10	1	-1E+10	1	-1E+10	1	-1E+10	1	-1E+10	1	-1E+10	1
4902554	90	C	08/05/2023	15:10	-132.638	47.775	0	352.90	0	4.5490	0	33.9190	0	26.871	0	349.647	0	-1e10	8	-1e10	8	-1E+10	1	-1E+10	1	-1E+10	1	-1E+10	1	-1E+10	1	-1E+10	1
4902554	90	C	08/05/2023	15:10	-132.638	47.775	0	357.80	0	4.5300	0	33.9240	0	26.877	0	354.498	0	-1e10	8	-1e10	8	-1E+10	1	-1E+10	1	-1E+10	1	-1E+10	1	-1E+10	1	-1E+10	1
4902554	90	C	08/05/2023	15:10	-132.638	47.775	0	362.60	0	4.5140	0	33.9260	0	26.881	0	359.250	0	-1e10	8	-1e10	8	-1E+10	1	-1E+10	1	-1E+10	1	-1E+10	1	-1E+10	1	-1E+10	1
4902554	90	C	08/05/2023	15:10	-132.638	47.775	0	367.90	0	4.4390	0	33.9310	0	26.893	0	364.496	0	-1e10	8	-1e10	8	-1E+10	1	-1E+10	1	-1E+10	1	-1E+10	1	-1E+10	1	-1E+10	1
4902554	90	C	08/05/2023	15:10	-132.638	47.775	0	372.80	0	4.3770	0	33.9310	0	26.899	0	369.346	0	-1e10	8	-1e10	8	-1E+10	1	-1E+10	1	-1E+10	1	-1E+10	1	-1E+10	1	-1E+10	1
4902554	90	C	08/05/2023	15:10	-132.638	47.775	0	377.80	0	4.3330	0	33.9320	0	26.905	0	374.295	0	-1e10	8	-1e10	8	-1E+10	1	-1E+10	1	-1E+10	1	-1E+10	1	-1E+10	1	-1E+10	1
4902554	90	C	08/05/2023	15:10	-132.638	47.775	0	382.90	0	4.2980	0	33.9360	0	26.912	0	379.343	0	-1e10	8	-1e10	8	-1E+10	1	-1E+10	1	-1E+10	1	-1E+10	1	-1E+10	1	-1E+10	1
4902554	90	C	08/05/2023	15:10	-132.638	47.775	0	387.60	0	4.2920	0	33.9430	0	26.918	0	383.995	0	-1e10	8	-1e10	8	-1E+10	1	-1E+10	1	-1E+10	1	-1E+10	1	-1E+10	1	-1E+10	1
4902554	90	C	08/05/2023	15:10	-132.638	47.775	0	392.90	0	4.2830	0	33.9500	0	26.925	0	389.241	0	-1e10	8	-1e10	8	-1E+10	1	-1E+10	1	-1E+10	1	-1E+10	1	-1E+10	1	-1E+10	1
4902554	90	C	08/05/2023	15:10	-132.638	47.775	0	397.80	0	4.2760	0	33.9580	0	26.932	0	394.091	0	-1e10	8	-1e10	8	-1E+10	1	-1E+10	1	-1E+10	1	-1E+10	1	-1E+10	1	-1E+10	1
4902554	90	C	08/05/2023	15:10	-132.638	47.775	0	402.80	0	4.2720	0	33.9630	0	26.936	0	399.039	0	-1e10	8	-1e10	8	-1E+10	1	-1E+10	1	-1E+10	1	-1E+10	1	-1E+10	1	-1E+10	1
4902554	90	C	08/05/2023	15:10	-132.638	47.775	0	407.80	0	4.2700	0	33.9690	0	26.941	0	403.988	0	-1e10	8	-1e10	8	-1E+10	1	-1E+10	1	-1E+10	1	-1E+10	1	-1E+10	1	-1E+10	1
4902554	90	C	08/05/2023	15:10	-132.638	47.775	0	413.00	0	4.2680	0	33.9740	0	26.945	0	409.134	0	-1e10	8	-1e10	8	-1E+10	1	-1E+10	1	-1E+10	1	-1E+10	1	-1E+10	1	-1E+10	1
4902554	90	C	08/05/2023	15:10	-132.638	47.775	0	418.30	0	4.2660	0	33.9780	0	26.949	0	414.379	0	-1e10	8	-1e10	8	-1E+10	1	-1E+10	1	-1E+10	1	-1E+10	1	-1E+10	1	-1E+10	1
4902554	90	C	08/05/2023	15:10	-132.638	47.775	0	423.30	0	4.2650	0	33.9800	0	26.951	0	419.327	0	-1e10	8	-1e10	8	-1E+10	1	-1E+10	1	-1E+10	1	-1E+10	1	-1E+10	1	-1E+10	1
4902554	90	C	08/05/2023	15:10	-132.638	47.775	0	428.20	0	4.2630	0	33.9830	0	26.953	0	424.176	0	-1e10	8	-1e10	8	-1E+10	1	-1E+10	1	-1E+10	1	-1E+10	1	-1E+10	1	-1E+10	1
4902554	90	C	08/05/2023	15:10	-132.638	47.775	0	433.20	0	4.2630	0	33.9870	0	26.956	0	429.124	0	-1e10	8	-1e10	8	-1E+10	1	-1E+10	1	-1E+10	1	-1E+10	1	-1E+10	1	-1E+10	1
4902554	90	C	08/05/2023	15:10	-132.638	47.775	0	438.00	0	4.2570	0	33.9920	0	26.961	0	433.874	0	-1e10	8	-1e10	8	-1E+10	1	-1E+10	1	-1E+10	1	-1E+10	1	-1E+10	1	-1E+10	1
4902554	90	C	08/05/2023	15:10	-132.638	47.775	0	442.70	0	4.2470	0	33.9980	0	26.967	0	438.525	0	-1e10	8	-1e10	8	-1E+10	1	-1E+10	1	-1E+10	1	-1E+10	1	-1E+10	1	-1E+10	1
4902554	90	C	08/05/2023	15:10	-132.638	47.775	0	448.00	0	4.2430	0	34.0040	0	26.972	0	443.769	0	-1e10	8	-1e10	8	-1E+10	1	-1E+10	1	-1E+10	1	-1E+10	1	-1E+10	1	-1E+10	1
4902554	90	C	08/05/2023	15:10	-132.638	47.775	0	453.10	0	4.2400	0	34.0070	0	26.975	0	448.815	0	-1e10	8	-1e10	8	-1E+10	1	-1E+10	1	-1E+10	1	-1E+10	1	-1E+10	1	-1E+10	1
4902554	90	C	08/05/2023	15:10	-132.638	47.775	0	457.70	0	4.2300	0	34.0160	0	26.983	0	453.367	0	-1e10	8	-1e10	8	-1E+10	1	-1E+10	1	-1E+10	1	-1E+10	1	-1E+10	1	-1E+10	1
4902554	90	C	08/05/2023	15:10	-132.638	47.775	0	462.60	0	4.2250	0	34.0190	0	26.986	0	458.215	0	-1e10	8	-1e10	8	-1E+10	1	-1E+10	1	-1E+10	1	-1E+10	1	-1E+10	1	-1E+10	1
4902554	90	C	08/05/2023	15:10	-132.638	47.775	0	467.90	0	4.2230	0	34.0250	0	26.991	0	463.459	0	-1e10	8	-1e10	8	-1E+10	1	-1E+10	1	-1E+10	1	-1E+10	1	-1E+10	1	-1E+10	1
4902554	90	C	08/05/2023	15:10	-132.638	47.775	0	472.90	0	4.2190	0	34.0310	0	26.996	0	468.406	0	-1e10	8	-1e10	8	-1E+10	1	-1E+10	1	-1E+10	1	-1E+10	1	-1E+10	1	-1E+10	1
4902554	90	C	08/05/2023	15:10	-132.638	47.775	0	477.50	0	4.2110	0	34.0340	0	27.000	0	472.957	0	-1e10	8	-1e10	8	-1E+10	1	-1E+10	1	-1E+10	1	-1E+10	1	-1E+10	1	-1E+10	1
4902554	90	C	08/05/2023	15:10	-132.638	47.775	0	482.60	0	4.1970	0	34.0370	0	27.003	0	478.003	0	-1e10	8	-1e10	8	-1E+10	1	-1E+10	1	-1E+10	1	-1E+10	1	-1E+10	1	-1E+10	1
4902554	90	C	08/05/2023	15:10	-132.638	47.775	0	487.70	0	4.1800	0	34.0390	0	27.007	0	483.048	0	-1e10	8	-1e10	8	-1E+10	1	-1E+10	1	-1E+10	1	-1E+10	1	-1E+10	1	-1E+10	1
4902554	90	C	08/05/2023	15:10	-132.638	47.775	0	492.90	0	4.1600	0	34.0430	0	27.012	0	488.192	0	-1e10	8	-1e10	8	-1E+10	1	-1E+10	1	-1E+10	1	-1E+10	1	-1E+10	1	-1E+10	1
4902554	90	C	08/05/2023	15:10	-132.638	47.775	0	498.00	0	4.1420	0	34.0450	0	27.016	0	493.238	0	-1e10	8	-1e10	8	-1E+10	1	-1E+10	1	-1E+10	1	-1E+10	1	-1E+10	1	-1E+10	1
4902554	90	C	08/05/2023	15:10	-132.638	47.775	0	503.20	0	4.1310	0	34.0500	0	27.021	0	498.382	0	-1e10	8	-1e10	8	-1E+10	1	-1E+10	1	-1E+10	1	-1E+10	1	-1E+10	1	-1E+10	1
4902554	90	C	08/05/2023	15:10	-132.638	47.775	0	507.90	0	4.1260	0	34.0530	0	27.024	0	503.031	0	-1e10	8	-1e10	8	-1E+10	1	-1E+10	1	-1E+10	1	-1E+10	1	-1E+10	1	-1E+10	1
4902554	90	C	08/05/2023	15:10	-132.638	47.775	0	512.60	0	4.1190	0	34.0570	0	27.028	0	507.680	0	-1e10	8	-1e10	8	-1E+10	1	-1E+10	1	-1E+10	1	-1E+10	1	-1E+10	1	-1E+10	1
4902554	90	C	08/05/2023	15:10	-132.638	47.775	0	517.90	0	4.1130	0	34.0610	0	27.032	0	512.923	0	-1e10	8	-1e10	8	-1E+10	1	-1E+10	1	-1E+10	1	-1E+10	1	-1E+10	1	-1E+10	1
4902554	90	C	08/05/2023	15:10	-132.638	47.775	0	523.20	0	4.1150	0	34.0700	0	27.039	0	518.165	0	-1e10	8	-1e10	8	-1E+10	1	-1E+10	1	-1E+10	1	-1E+10	1	-1E+10	1	-1E+10	1
4902554	90	C	08/05/2023	15:10	-132.638	47.775	0	528.10	0	4.1140	0	34.0740	0	27.042	0	523.012	0	-1e10	8	-1e10	8	-1E+10	1	-1E+10	1	-1E+10	1	-1E+10	1	-1E+10	1	-1E+10	1
4902554	90	C	08/05/2023	15:10	-132.638	47.775	0	533.00	0	4.1070	0	34.0780	0	27.046	0	527.858	0	-1e10	8	-1e10	8	-1E+10	1	-1E+10	1	-1E+10	1	-1E+10	1	-1E+10	1	-1E+10	1
4902554	90	C	08/05/2023	15:10	-132.638	47.775	0	537.90	0	4.1030	0	34.0850	0	27.052	0	532.705	0	-1e10	8	-1e10	8	-1E+10	1	-1E+10	1	-1E+10	1	-1E+10	1	-1E+10	1	-1E+10	1
4902554	90	C	08/05/2023	15:10	-132.638	47.775	0	542.70	0	4.0750	0	34.0880	0	27.057	0	537.452	0	-1e10	8	-1e10	8	-1E+10	1	-1E+10	1	-1E+10	1	-1E+10	1	-1E+10	1	-1E+10	1
4902554	90	C	08/05/2023	15:10	-132.638	47.775	0	547.70	0	4.0480	0	34.0930	0	27.064	0	542.397	0	-1e10	8	-1e10	8	-1E+10	1	-1E+10	1	-1E+10	1	-1E+10	1	-1E+10	1	-1E+10	1
4902554	90	C	08/05/2023	15:10	-132.638	47.775	0	552.60	0	4.0630	0	34.1000	0	27.068	0	547.244	0	-1e10	8	-1e10	8	-1E+10	1	-1E+10	1	-1E+10	1	-1E+10	1	-1E+10	1	-1E+10	1
4902554	90	C	08/05/2023	15:10	-132.638	47.775	0	557.60	0	4.0220	0	34.1040	0	27.075	0	552.188	0	-1e10	8	-1e10	8	-1E+10	1	-1E+10	1	-1E+10	1	-1E+10	1	-1E+10	1	-1E+10	1
4902554	90	C	08/05/2023	15:10	-132.638	47.775	0	562.60	0	4.0210	0	34.1100	0	27.080	0	557.133	0	-1e10	8	-1e10	8	-1E+10	1	-1E+10	1	-1E+10	1	-1E+10	1	-1E+10	1	-1E+10	1
4902554	90	C	08/05/2023	15:10	-132.638	47.775	0	567.70	0	3.9970	0	34.1140	0	27.086	0	562.177	0	-1e10	8	-1e10	8	-1E+10	1	-1E+10	1	-1E+10	1	-1E+10	1	-1E+10	1	-1E+10	1
4902554	90	C	08/05/2023	15:10	-132.638	47.775	0	572.90	0	3.9790	0	34.1200	0	27.093	0	567.319	0	-1e10	8	-1e10	8	-1E+10	1	-1E+10	1	-1E+10	1	-1E+10	1	-1E+10	1	-1E+10	1
4902554	90	C	08/05/2023	15:10	-132.638	47.775	0	578.10	0	3.9710	0	34.1220	0	27.095	0	572.461	0	-1e10	8	-1e10	8	-1E+10	1	-1E+10	1	-1E+10	1	-1E+10	1	-1E+10	1	-1E+10	1
4902554	90	C	08/05/2023	15:10	-132.638	47.775	0	583.00	0	3.9600	0	34.1250	0	27.099	0	577.307	0	-1e10	8	-1e10	8	-1E+10	1	-1E+10	1	-1E+10	1	-1E+10	1	-1E+10	1	-1E+10	1
4902554	90	C	08/05/2023	15:10	-132.638	47.775	0	587.90	0	3.9550	0	34.1280	0	27.101	0	582.152	0	-1e10	8	-1e10	8	-1E+10	1	-1E+10	1	-1E+10	1	-1E+10	1	-1E+10	1	-1E+10	1
4902554	90	C	08/05/2023	15:10	-132.638	47.775	0	593.10	0	3.9500	0	34.1330	0	27.106	0	587.294	0	-1e10	8	-1e10	8	-1E+10	1	-1E+10	1	-1E+10	1	-1E+10	1	-1E+10	1	-1E+10	1
4902554	90	C	08/05/2023	15:10	-132.638	47.775	0	598.00	0	3.9370	0	34.1380	0	27.111	0	592.139	0	-1e10	8	-1e10	8	-1E+10	1	-1E+10	1	-1E+10	1	-1E+10	1	-1E+10	1	-1E+10	1
4902554	90	C	08/05/2023	15:10	-132.638	47.775	0	602.80	0	3.9290	0	34.1420	0	27.115	0	596.885	0	-1e10	8	-1e10	8	-1E+10	1	-1E+10	1	-1E+10	1	-1E+10	1	-1E+10	1	-1E+10	1
4902554	90	C	08/05/2023	15:10	-132.638	47.775	0	607.80	0	3.9230	0	34.1460	0	27.119	0	601.829	0	-1e10	8	-1e10	8	-1E+10	1	-1E+10	1	-1E+10	1	-1E+10	1	-1E+10	1	-1E+10	1
4902554	90	C	08/05/2023	15:10	-132.638	47.775	0	612.70	0	3.9150	0	34.1480	0	27.122	0	606.673	0	-1e10	8	-1e10	8	-1E+10	1	-1E+10	1	-1E+10	1	-1E+10	1	-1E+10	1	-1E+10	1
4902554	90	C	08/05/2023	15:10	-132.638	47.775	0	617.70	0	3.9060	0	34.1540	0	27.127	0	611.617	0	-1e10	8	-1e10	8	-1E+10	1	-1E+10	1	-1E+10	1	-1E+10	1	-1E+10	1	-1E+10	1
4902554	90	C	08/05/2023	15:10	-132.638	47.775	0	622.70	0	3.9020	0	34.1560	0	27.129	0	616.560	0	-1e10	8	-1e10	8	-1E+10	1	-1E+10	1	-1E+10	1	-1E+10	1	-1E+10	1	-1E+10	1
4902554	90	C	08/05/2023	15:10	-132.638	47.775	0	627.70	0	3.8840	0	34.1600	0	27.134	0	621.504	0	-1e10	8	-1e10	8	-1E+10	1	-1E+10	1	-1E+10	1	-1E+10	1	-1E+10	1	-1E+10	1
4902554	90	C	08/05/2023	15:10	-132.638	47.775	0	632.70	0	3.8710	0	34.1630	0	27.138	0	626.447	0	-1e10	8	-1e10	8	-1E+10	1	-1E+10	1	-1E+10	1	-1E+10	1	-1E+10	1	-1E+10	1
4902554	90	C	08/05/2023	15:10	-132.638	47.775	0	637.70	0	3.8590	0	34.1680	0	27.143	0	631.390	0	-1e10	8	-1e10	8	-1E+10	1	-1E+10	1	-1E+10	1	-1E+10	1	-1E+10	1	-1E+10	1
4902554	90	C	08/05/2023	15:10	-132.638	47.775	0	642.80	0	3.8440	0	34.1710	0	27.147	0	636.431	0	-1e10	8	-1e10	8	-1E+10	1	-1E+10	1	-1E+10	1	-1E+10	1	-1E+10	1	-1E+10	1
4902554	90	C	08/05/2023	15:10	-132.638	47.775	0	647.90	0	3.8490	0	34.1790	0	27.153	0	641.473	0	-1e10	8	-1e10	8	-1E+10	1	-1E+10	1	-1E+10	1	-1E+10	1	-1E+10	1	-1E+10	1
4902554	90	C	08/05/2023	15:10	-132.638	47.775	0	652.70	0	3.8540	0	34.1860	0	27.158	0	646.218	0	-1e10	8	-1e10	8	-1E+10	1	-1E+10	1	-1E+10	1	-1E+10	1	-1E+10	1	-1E+10	1
4902554	90	C	08/05/2023	15:10	-132.638	47.775	0	657.90	0	3.8380	0	34.1900	0	27.163	0	651.358	0	-1e10	8	-1e10	8	-1E+10	1	-1E+10	1	-1E+10	1	-1E+10	1	-1E+10	1	-1E+10	1
4902554	90	C	08/05/2023	15:10	-132.638	47.775	0	663.20	0	3.8420	0	34.1970	0	27.168	0	656.597	0	-1e10	8	-1e10	8	-1E+10	1	-1E+10	1	-1E+10	1	-1E+10	1	-1E+10	1	-1E+10	1
4902554	90	C	08/05/2023	15:10	-132.638	47.775	0	668.20	0	3.8290	0	34.2000	0	27.172	0	661.539	0	-1e10	8	-1e10	8	-1E+10	1	-1E+10	1	-1E+10	1	-1E+10	1	-1E+10	1	-1E+10	1
4902554	90	C	08/05/2023	15:10	-132.638	47.775	0	673.10	0	3.8200	0	34.2060	0	27.178	0	666.383	0	-1e10	8	-1e10	8	-1E+10	1	-1E+10	1	-1E+10	1	-1E+10	1	-1E+10	1	-1E+10	1
4902554	90	C	08/05/2023	15:10	-132.638	47.775	0	678.00	0	3.8160	0	34.2080	0	27.180	0	671.226	0	-1e10	8	-1e10	8	-1E+10	1	-1E+10	1	-1E+10	1	-1E+10	1	-1E+10	1	-1E+10	1
4902554	90	C	08/05/2023	15:10	-132.638	47.775	0	683.00	0	3.8040	0	34.2120	0	27.184	0	676.168	0	-1e10	8	-1e10	8	-1E+10	1	-1E+10	1	-1E+10	1	-1E+10	1	-1E+10	1	-1E+10	1
4902554	90	C	08/05/2023	15:10	-132.638	47.775	0	688.00	0	3.8010	0	34.2180	0	27.189	0	681.110	0	-1e10	8	-1e10	8	-1E+10	1	-1E+10	1	-1E+10	1	-1E+10	1	-1E+10	1	-1E+10	1
4902554	90	C	08/05/2023	15:10	-132.638	47.775	0	693.00	0	3.7870	0	34.2220	0	27.194	0	686.051	0	-1e10	8	-1e10	8	-1E+10	1	-1E+10	1	-1E+10	1	-1E+10	1	-1E+10	1	-1E+10	1
4902554	90	C	08/05/2023	15:10	-132.638	47.775	0	698.00	0	3.7770	0	34.2250	0	27.197	0	690.993	0	-1e10	8	-1e10	8	-1E+10	1	-1E+10	1	-1E+10	1	-1E+10	1	-1E+10	1	-1E+10	1
4902554	90	C	08/05/2023	15:10	-132.638	47.775	0	703.10	0	3.7680	0	34.2290	0	27.201	0	696.033	0	-1e10	8	-1e10	8	-1E+10	1	-1E+10	1	-1E+10	1	-1E+10	1	-1E+10	1	-1E+10	1
4902554	90	C	08/05/2023	15:10	-132.638	47.775	0	708.20	0	3.7580	0	34.2320	0	27.205	0	701.074	0	-1e10	8	-1e10	8	-1E+10	1	-1E+10	1	-1E+10	1	-1E+10	1	-1E+10	1	-1E+10	1
4902554	90	C	08/05/2023	15:10	-132.638	47.775	0	713.30	0	3.7470	0	34.2350	0	27.208	0	706.114	0	-1e10	8	-1e10	8	-1E+10	1	-1E+10	1	-1E+10	1	-1E+10	1	-1E+10	1	-1E+10	1
4902554	90	C	08/05/2023	15:10	-132.638	47.775	0	717.90	0	3.7410	0	34.2360	0	27.210	0	710.659	0	-1e10	8	-1e10	8	-1E+10	1	-1E+10	1	-1E+10	1	-1E+10	1	-1E+10	1	-1E+10	1
4902554	90	C	08/05/2023	15:10	-132.638	47.775	0	722.50	0	3.7290	0	34.2400	0	27.214	0	715.205	0	-1e10	8	-1e10	8	-1E+10	1	-1E+10	1	-1E+10	1	-1E+10	1	-1E+10	1	-1E+10	1
4902554	90	C	08/05/2023	15:10	-132.638	47.775	0	727.60	0	3.7200	0	34.2440	0	27.218	0	720.245	0	-1e10	8	-1e10	8	-1E+10	1	-1E+10	1	-1E+10	1	-1E+10	1	-1E+10	1	-1E+10	1
4902554	90	C	08/05/2023	15:10	-132.638	47.775	0	732.70	0	3.7100	0	34.2500	0	27.224	0	725.284	0	-1e10	8	-1e10	8	-1E+10	1	-1E+10	1	-1E+10	1	-1E+10	1	-1E+10	1	-1E+10	1
4902554	90	C	08/05/2023	15:10	-132.638	47.775	0	737.80	0	3.7030	0	34.2550	0	27.229	0	730.324	0	-1e10	8	-1e10	8	-1E+10	1	-1E+10	1	-1E+10	1	-1E+10	1	-1E+10	1	-1E+10	1
4902554	90	C	08/05/2023	15:10	-132.638	47.775	0	743.00	0	3.6880	0	34.2590	0	27.234	0	735.462	0	-1e10	8	-1e10	8	-1E+10	1	-1E+10	1	-1E+10	1	-1E+10	1	-1E+10	1	-1E+10	1
4902554	90	C	08/05/2023	15:10	-132.638	47.775	0	748.20	0	3.6760	0	34.2630	0	27.238	0	740.600	0	-1e10	8	-1e10	8	-1E+10	1	-1E+10	1	-1E+10	1	-1E+10	1	-1E+10	1	-1E+10	1
4902554	90	C	08/05/2023	15:10	-132.638	47.775	0	752.90	0	3.6660	0	34.2660	0	27.241	0	745.244	0	-1e10	8	-1e10	8	-1E+10	1	-1E+10	1	-1E+10	1	-1E+10	1	-1E+10	1	-1E+10	1
4902554	90	C	08/05/2023	15:10	-132.638	47.775	0	757.90	0	3.6570	0	34.2690	0	27.245	0	750.184	0	-1e10	8	-1e10	8	-1E+10	1	-1E+10	1	-1E+10	1	-1E+10	1	-1E+10	1	-1E+10	1
4902554	90	C	08/05/2023	15:10	-132.638	47.775	0	763.20	0	3.6520	0	34.2720	0	27.248	0	755.421	0	-1e10	8	-1e10	8	-1E+10	1	-1E+10	1	-1E+10	1	-1E+10	1	-1E+10	1	-1E+10	1
4902554	90	C	08/05/2023	15:10	-132.638	47.775	0	767.80	0	3.6380	0	34.2770	0	27.253	0	759.965	0	-1e10	8	-1e10	8	-1E+10	1	-1E+10	1	-1E+10	1	-1E+10	1	-1E+10	1	-1E+10	1
4902554	90	C	08/05/2023	15:10	-132.638	47.775	0	772.60	0	3.6170	0	34.2820	0	27.259	0	764.707	0	-1e10	8	-1e10	8	-1E+10	1	-1E+10	1	-1E+10	1	-1E+10	1	-1E+10	1	-1E+10	1
4902554	90	C	08/05/2023	15:10	-132.638	47.775	0	777.80	0	3.6060	0	34.2880	0	27.265	0	769.845	0	-1e10	8	-1e10	8	-1E+10	1	-1E+10	1	-1E+10	1	-1E+10	1	-1E+10	1	-1E+10	1
4902554	90	C	08/05/2023	15:10	-132.638	47.775	0	783.10	0	3.5950	0	34.2910	0	27.268	0	775.081	0	-1e10	8	-1e10	8	-1E+10	1	-1E+10	1	-1E+10	1	-1E+10	1	-1E+10	1	-1E+10	1
4902554	90	C	08/05/2023	15:10	-132.638	47.775	0	788.10	0	3.5840	0	34.2940	0	27.272	0	780.020	0	-1e10	8	-1e10	8	-1E+10	1	-1E+10	1	-1E+10	1	-1E+10	1	-1E+10	1	-1E+10	1
4902554	90	C	08/05/2023	15:10	-132.638	47.775	0	793.00	0	3.5710	0	34.2960	0	27.275	0	784.861	0	-1e10	8	-1e10	8	-1E+10	1	-1E+10	1	-1E+10	1	-1E+10	1	-1E+10	1	-1E+10	1
4902554	90	C	08/05/2023	15:10	-132.638	47.775	0	797.90	0	3.5290	0	34.2950	0	27.278	0	789.701	0	-1e10	8	-1e10	8	-1E+10	1	-1E+10	1	-1E+10	1	-1E+10	1	-1E+10	1	-1E+10	1
4902554	90	C	08/05/2023	15:10	-132.638	47.775	0	802.90	0	3.4930	0	34.2940	0	27.281	0	794.640	0	-1e10	8	-1e10	8	-1E+10	1	-1E+10	1	-1E+10	1	-1E+10	1	-1E+10	1	-1E+10	1
4902554	90	C	08/05/2023	15:10	-132.638	47.775	0	807.90	0	3.4850	0	34.2940	0	27.282	0	799.579	0	-1e10	8	-1e10	8	-1E+10	1	-1E+10	1	-1E+10	1	-1E+10	1	-1E+10	1	-1E+10	1
4902554	90	C	08/05/2023	15:10	-132.638	47.775	0	812.90	0	3.4420	0	34.2930	0	27.285	0	804.518	0	-1e10	8	-1e10	8	-1E+10	1	-1E+10	1	-1E+10	1	-1E+10	1	-1E+10	1	-1E+10	1
4902554	90	C	08/05/2023	15:10	-132.638	47.775	0	817.90	0	3.4250	0	34.2940	0	27.287	0	809.457	0	-1e10	8	-1e10	8	-1E+10	1	-1E+10	1	-1E+10	1	-1E+10	1	-1E+10	1	-1E+10	1
4902554	90	C	08/05/2023	15:10	-132.638	47.775	0	822.60	0	3.4020	0	34.2950	0	27.290	0	814.099	0	-1e10	8	-1e10	8	-1E+10	1	-1E+10	1	-1E+10	1	-1E+10	1	-1E+10	1	-1E+10	1
4902554	90	C	08/05/2023	15:10	-132.638	47.775	0	827.80	0	3.3780	0	34.2970	0	27.294	0	819.235	0	-1e10	8	-1e10	8	-1E+10	1	-1E+10	1	-1E+10	1	-1E+10	1	-1E+10	1	-1E+10	1
4902554	90	C	08/05/2023	15:10	-132.638	47.775	0	833.20	0	3.3650	0	34.2970	0	27.295	0	824.569	0	-1e10	8	-1e10	8	-1E+10	1	-1E+10	1	-1E+10	1	-1E+10	1	-1E+10	1	-1E+10	1
4902554	90	C	08/05/2023	15:10	-132.638	47.775	0	838.30	0	3.3500	0	34.3020	0	27.301	0	829.606	0	-1e10	8	-1e10	8	-1E+10	1	-1E+10	1	-1E+10	1	-1E+10	1	-1E+10	1	-1E+10	1
4902554	90	C	08/05/2023	15:10	-132.638	47.775	0	843.20	0	3.3350	0	34.3040	0	27.304	0	834.445	0	-1e10	8	-1e10	8	-1E+10	1	-1E+10	1	-1E+10	1	-1E+10	1	-1E+10	1	-1E+10	1
4902554	90	C	08/05/2023	15:10	-132.638	47.775	0	848.20	0	3.3140	0	34.3080	0	27.309	0	839.383	0	-1e10	8	-1e10	8	-1E+10	1	-1E+10	1	-1E+10	1	-1E+10	1	-1E+10	1	-1E+10	1
4902554	90	C	08/05/2023	15:10	-132.638	47.775	0	853.20	0	3.3100	0	34.3090	0	27.310	0	844.321	0	-1e10	8	-1e10	8	-1E+10	1	-1E+10	1	-1E+10	1	-1E+10	1	-1E+10	1	-1E+10	1
4902554	90	C	08/05/2023	15:10	-132.638	47.775	0	858.20	0	3.3090	0	34.3090	0	27.310	0	849.259	0	-1e10	8	-1e10	8	-1E+10	1	-1E+10	1	-1E+10	1	-1E+10	1	-1E+10	1	-1E+10	1
4902554	90	C	08/05/2023	15:10	-132.638	47.775	0	863.20	0	3.2940	0	34.3110	0	27.313	0	854.197	0	-1e10	8	-1e10	8	-1E+10	1	-1E+10	1	-1E+10	1	-1E+10	1	-1E+10	1	-1E+10	1
4902554	90	C	08/05/2023	15:10	-132.638	47.775	0	868.20	0	3.2790	0	34.3140	0	27.317	0	859.134	0	-1e10	8	-1e10	8	-1E+10	1	-1E+10	1	-1E+10	1	-1E+10	1	-1E+10	1	-1E+10	1
4902554	90	C	08/05/2023	15:10	-132.638	47.775	0	873.30	0	3.2730	0	34.3180	0	27.321	0	864.171	0	-1e10	8	-1e10	8	-1E+10	1	-1E+10	1	-1E+10	1	-1E+10	1	-1E+10	1	-1E+10	1
4902554	90	C	08/05/2023	15:10	-132.638	47.775	0	877.90	0	3.2720	0	34.3200	0	27.323	0	868.713	0	-1e10	8	-1e10	8	-1E+10	1	-1E+10	1	-1E+10	1	-1E+10	1	-1E+10	1	-1E+10	1
4902554	90	C	08/05/2023	15:10	-132.638	47.775	0	882.50	0	3.2690	0	34.3210	0	27.324	0	873.255	0	-1e10	8	-1e10	8	-1E+10	1	-1E+10	1	-1E+10	1	-1E+10	1	-1E+10	1	-1E+10	1
4902554	90	C	08/05/2023	15:10	-132.638	47.775	0	887.60	0	3.2520	0	34.3240	0	27.328	0	878.291	0	-1e10	8	-1e10	8	-1E+10	1	-1E+10	1	-1E+10	1	-1E+10	1	-1E+10	1	-1E+10	1
4902554	90	C	08/05/2023	15:10	-132.638	47.775	0	892.70	0	3.2330	0	34.3260	0	27.331	0	883.327	0	-1e10	8	-1e10	8	-1E+10	1	-1E+10	1	-1E+10	1	-1E+10	1	-1E+10	1	-1E+10	1
4902554	90	C	08/05/2023	15:10	-132.638	47.775	0	897.90	0	3.2150	0	34.3290	0	27.335	0	888.461	0	-1e10	8	-1e10	8	-1E+10	1	-1E+10	1	-1E+10	1	-1E+10	1	-1E+10	1	-1E+10	1
4902554	90	C	08/05/2023	15:10	-132.638	47.775	0	903.20	0	3.2130	0	34.3300	0	27.336	0	893.694	0	-1e10	8	-1e10	8	-1E+10	1	-1E+10	1	-1E+10	1	-1E+10	1	-1E+10	1	-1E+10	1
4902554	90	C	08/05/2023	15:10	-132.638	47.775	0	908.00	0	3.2050	0	34.3310	0	27.338	0	898.433	0	-1e10	8	-1e10	8	-1E+10	1	-1E+10	1	-1E+10	1	-1E+10	1	-1E+10	1	-1E+10	1
4902554	90	C	08/05/2023	15:10	-132.638	47.775	0	912.80	0	3.1970	0	34.3340	0	27.341	0	903.172	0	-1e10	8	-1e10	8	-1E+10	1	-1E+10	1	-1E+10	1	-1E+10	1	-1E+10	1	-1E+10	1
4902554	90	C	08/05/2023	15:10	-132.638	47.775	0	918.10	0	3.1900	0	34.3360	0	27.343	0	908.405	0	-1e10	8	-1e10	8	-1E+10	1	-1E+10	1	-1E+10	1	-1E+10	1	-1E+10	1	-1E+10	1
4902554	90	C	08/05/2023	15:10	-132.638	47.775	0	922.90	0	3.1800	0	34.3390	0	27.347	0	913.144	0	-1e10	8	-1e10	8	-1E+10	1	-1E+10	1	-1E+10	1	-1E+10	1	-1E+10	1	-1E+10	1
4902554	90	C	08/05/2023	15:10	-132.638	47.775	0	927.70	0	3.1770	0	34.3410	0	27.349	0	917.883	0	-1e10	8	-1e10	8	-1E+10	1	-1E+10	1	-1E+10	1	-1E+10	1	-1E+10	1	-1E+10	1
4902554	90	C	08/05/2023	15:10	-132.638	47.775	0	933.10	0	3.1720	0	34.3430	0	27.351	0	923.214	0	-1e10	8	-1e10	8	-1E+10	1	-1E+10	1	-1E+10	1	-1E+10	1	-1E+10	1	-1E+10	1
4902554	90	C	08/05/2023	15:10	-132.638	47.775	0	937.90	0	3.1580	0	34.3440	0	27.353	0	927.952	0	-1e10	8	-1e10	8	-1E+10	1	-1E+10	1	-1E+10	1	-1E+10	1	-1E+10	1	-1E+10	1
4902554	90	C	08/05/2023	15:10	-132.638	47.775	0	942.70	0	3.1540	0	34.3450	0	27.354	0	932.691	0	-1e10	8	-1e10	8	-1E+10	1	-1E+10	1	-1E+10	1	-1E+10	1	-1E+10	1	-1E+10	1
4902554	90	C	08/05/2023	15:10	-132.638	47.775	0	947.60	0	3.1480	0	34.3470	0	27.356	0	937.528	0	-1e10	8	-1e10	8	-1E+10	1	-1E+10	1	-1E+10	1	-1E+10	1	-1E+10	1	-1E+10	1
4902554	90	C	08/05/2023	15:10	-132.638	47.775	0	952.90	0	3.1460	0	34.3470	0	27.356	0	942.759	0	-1e10	8	-1e10	8	-1E+10	1	-1E+10	1	-1E+10	1	-1E+10	1	-1E+10	1	-1E+10	1
4902554	90	C	08/05/2023	15:10	-132.638	47.775	0	958.30	0	3.1410	0	34.3490	0	27.359	0	948.090	0	-1e10	8	-1e10	8	-1E+10	1	-1E+10	1	-1E+10	1	-1E+10	1	-1E+10	1	-1E+10	1
4902554	90	C	08/05/2023	15:10	-132.638	47.775	0	963.30	0	3.1280	0	34.3520	0	27.362	0	953.025	0	-1e10	8	-1e10	8	-1E+10	1	-1E+10	1	-1E+10	1	-1E+10	1	-1E+10	1	-1E+10	1
4902554	90	C	08/05/2023	15:10	-132.638	47.775	0	967.90	0	3.1120	0	34.3560	0	27.367	0	957.565	0	-1e10	8	-1e10	8	-1E+10	1	-1E+10	1	-1E+10	1	-1E+10	1	-1E+10	1	-1E+10	1
4902554	90	C	08/05/2023	15:10	-132.638	47.775	0	972.60	0	3.0990	0	34.3600	0	27.371	0	962.204	0	-1e10	8	-1e10	8	-1E+10	1	-1E+10	1	-1E+10	1	-1E+10	1	-1E+10	1	-1E+10	1
4902554	90	C	08/05/2023	15:10	-132.638	47.775	0	977.60	0	3.0900	0	34.3620	0	27.374	0	967.139	0	-1e10	8	-1e10	8	-1E+10	1	-1E+10	1	-1E+10	1	-1E+10	1	-1E+10	1	-1E+10	1
4902554	90	C	08/05/2023	15:10	-132.638	47.775	0	982.80	0	3.0850	0	34.3630	0	27.375	0	972.272	0	-1e10	8	-1e10	8	-1E+10	1	-1E+10	1	-1E+10	1	-1E+10	1	-1E+10	1	-1E+10	1
4902554	90	C	08/05/2023	15:10	-132.638	47.775	0	988.10	0	3.0800	0	34.3650	0	27.377	0	977.503	0	-1e10	8	-1e10	8	-1E+10	1	-1E+10	1	-1E+10	1	-1E+10	1	-1E+10	1	-1E+10	1
4902554	90	C	08/05/2023	15:10	-132.638	47.775	0	992.80	0	3.0750	0	34.3670	0	27.379	0	982.141	0	-1e10	8	-1e10	8	-1E+10	1	-1E+10	1	-1E+10	1	-1E+10	1	-1E+10	1	-1E+10	1
4902554	90	C	08/05/2023	15:10	-132.638	47.775	0	997.70	0	3.0690	0	34.3690	0	27.381	0	986.977	0	-1e10	8	-1e10	8	-1E+10	1	-1E+10	1	-1E+10	1	-1E+10	1	-1E+10	1	-1E+10	1
4902554	90	C	08/05/2023	15:10	-132.638	47.775	0	1005.10	0	3.0540	0	34.3710	0	27.384	0	994.280	0	-1e10	8	-1e10	8	-1E+10	1	-1E+10	1	-1E+10	1	-1E+10	1	-1E+10	1	-1E+10	1
4902554	90	C	08/05/2023	15:10	-132.638	47.775	0	1015.00	0	3.0450	0	34.3740	0	27.388	0	1004.050	0	-1e10	8	-1e10	8	-1E+10	1	-1E+10	1	-1E+10	1	-1E+10	1	-1E+10	1	-1E+10	1
4902554	90	C	08/05/2023	15:10	-132.638	47.775	0	1025.10	0	3.0480	0	34.3790	0	27.391	0	1014.016	0	-1e10	8	-1e10	8	-1E+10	1	-1E+10	1	-1E+10	1	-1E+10	1	-1E+10	1	-1E+10	1
4902554	90	C	08/05/2023	15:10	-132.638	47.775	0	1035.40	0	3.0370	0	34.3840	0	27.396	0	1024.180	0	-1e10	8	-1e10	8	-1E+10	1	-1E+10	1	-1E+10	1	-1E+10	1	-1E+10	1	-1E+10	1
4902554	90	C	08/05/2023	15:10	-132.638	47.775	0	1045.40	0	3.0240	0	34.3880	0	27.401	0	1034.047	0	-1e10	8	-1e10	8	-1E+10	1	-1E+10	1	-1E+10	1	-1E+10	1	-1E+10	1	-1E+10	1
4902554	90	C	08/05/2023	15:10	-132.638	47.775	0	1055.50	0	3.0030	0	34.3930	0	27.407	0	1044.012	0	-1e10	8	-1e10	8	-1E+10	1	-1E+10	1	-1E+10	1	-1E+10	1	-1E+10	1	-1E+10	1
4902554	90	C	08/05/2023	15:10	-132.638	47.775	0	1065.90	0	2.9900	0	34.3960	0	27.410	0	1054.273	0	-1e10	8	-1e10	8	-1E+10	1	-1E+10	1	-1E+10	1	-1E+10	1	-1E+10	1	-1E+10	1
4902554	90	C	08/05/2023	15:10	-132.638	47.775	0	1075.50	0	2.9790	0	34.3980	0	27.413	0	1063.744	0	-1e10	8	-1e10	8	-1E+10	1	-1E+10	1	-1E+10	1	-1E+10	1	-1E+10	1	-1E+10	1
4902554	90	C	08/05/2023	15:10	-132.638	47.775	0	1085.30	0	2.9600	0	34.4020	0	27.418	0	1073.411	0	-1e10	8	-1e10	8	-1E+10	1	-1E+10	1	-1E+10	1	-1E+10	1	-1E+10	1	-1E+10	1
4902554	90	C	08/05/2023	15:10	-132.638	47.775	0	1095.60	0	2.9540	0	34.4040	0	27.420	0	1083.572	0	-1e10	8	-1e10	8	-1E+10	1	-1E+10	1	-1E+10	1	-1E+10	1	-1E+10	1	-1E+10	1
4902554	90	C	08/05/2023	15:10	-132.638	47.775	0	1105.90	0	2.9440	0	34.4060	0	27.423	0	1093.732	0	-1e10	8	-1e10	8	-1E+10	1	-1E+10	1	-1E+10	1	-1E+10	1	-1E+10	1	-1E+10	1
4902554	90	C	08/05/2023	15:10	-132.638	47.775	0	1115.30	0	2.9240	0	34.4100	0	27.428	0	1103.004	0	-1e10	8	-1e10	8	-1E+10	1	-1E+10	1	-1E+10	1	-1E+10	1	-1E+10	1	-1E+10	1
4902554	90	C	08/05/2023	15:10	-132.638	47.775	0	1125.30	0	2.9160	0	34.4120	0	27.430	0	1112.867	0	-1e10	8	-1e10	8	-1E+10	1	-1E+10	1	-1E+10	1	-1E+10	1	-1E+10	1	-1E+10	1
4902554	90	C	08/05/2023	15:10	-132.638	47.775	0	1135.50	0	2.8980	0	34.4160	0	27.435	0	1122.927	0	-1e10	8	-1e10	8	-1E+10	1	-1E+10	1	-1E+10	1	-1E+10	1	-1E+10	1	-1E+10	1
4902554	90	C	08/05/2023	15:10	-132.638	47.775	0	1145.30	0	2.8840	0	34.4190	0	27.439	0	1132.592	0	-1e10	8	-1e10	8	-1E+10	1	-1E+10	1	-1E+10	1	-1E+10	1	-1E+10	1	-1E+10	1
4902554	90	C	08/05/2023	15:10	-132.638	47.775	0	1155.40	0	2.8660	0	34.4220	0	27.443	0	1142.553	0	-1e10	8	-1e10	8	-1E+10	1	-1E+10	1	-1E+10	1	-1E+10	1	-1E+10	1	-1E+10	1
4902554	90	C	08/05/2023	15:10	-132.638	47.775	0	1165.40	0	2.8430	0	34.4270	0	27.449	0	1152.414	0	-1e10	8	-1e10	8	-1E+10	1	-1E+10	1	-1E+10	1	-1E+10	1	-1E+10	1	-1E+10	1
4902554	90	C	08/05/2023	15:10	-132.638	47.775	0	1175.10	0	2.8280	0	34.4290	0	27.452	0	1161.979	0	-1e10	8	-1e10	8	-1E+10	1	-1E+10	1	-1E+10	1	-1E+10	1	-1E+10	1	-1E+10	1
4902554	90	C	08/05/2023	15:10	-132.638	47.775	0	1185.30	0	2.8150	0	34.4300	0	27.454	0	1172.037	0	-1e10	8	-1e10	8	-1E+10	1	-1E+10	1	-1E+10	1	-1E+10	1	-1E+10	1	-1E+10	1
4902554	90	C	08/05/2023	15:10	-132.638	47.775	0	1195.50	0	2.7970	0	34.4330	0	27.458	0	1182.094	0	-1e10	8	-1e10	8	-1E+10	1	-1E+10	1	-1E+10	1	-1E+10	1	-1E+10	1	-1E+10	1
4902554	90	C	08/05/2023	15:10	-132.638	47.775	0	1205.20	0	2.7810	0	34.4360	0	27.462	0	1191.658	0	-1e10	8	-1e10	8	-1E+10	1	-1E+10	1	-1E+10	1	-1E+10	1	-1E+10	1	-1E+10	1
4902554	90	C	08/05/2023	15:10	-132.638	47.775	0	1215.10	0	2.7600	0	34.4380	0	27.465	0	1201.419	0	-1e10	8	-1e10	8	-1E+10	1	-1E+10	1	-1E+10	1	-1E+10	1	-1E+10	1	-1E+10	1
4902554	90	C	08/05/2023	15:10	-132.638	47.775	0	1225.00	0	2.7390	0	34.4410	0	27.470	0	1211.179	0	-1e10	8	-1e10	8	-1E+10	1	-1E+10	1	-1E+10	1	-1E+10	1	-1E+10	1	-1E+10	1
4902554	90	C	08/05/2023	15:10	-132.638	47.775	0	1235.40	0	2.7180	0	34.4450	0	27.475	0	1221.431	0	-1e10	8	-1e10	8	-1E+10	1	-1E+10	1	-1E+10	1	-1E+10	1	-1E+10	1	-1E+10	1
4902554	90	C	08/05/2023	15:10	-132.638	47.775	0	1245.40	0	2.7050	0	34.4470	0	27.477	0	1231.289	0	-1e10	8	-1e10	8	-1E+10	1	-1E+10	1	-1E+10	1	-1E+10	1	-1E+10	1	-1E+10	1
4902554	90	C	08/05/2023	15:10	-132.638	47.775	0	1255.00	0	2.6930	0	34.4490	0	27.480	0	1240.752	0	-1e10	8	-1e10	8	-1E+10	1	-1E+10	1	-1E+10	1	-1E+10	1	-1E+10	1	-1E+10	1
4902554	90	C	08/05/2023	15:10	-132.638	47.775	0	1265.20	0	2.6750	0	34.4530	0	27.485	0	1250.806	0	-1e10	8	-1e10	8	-1E+10	1	-1E+10	1	-1E+10	1	-1E+10	1	-1E+10	1	-1E+10	1
4902554	90	C	08/05/2023	15:10	-132.638	47.775	0	1275.50	0	2.6530	0	34.4570	0	27.490	0	1260.958	0	-1e10	8	-1e10	8	-1E+10	1	-1E+10	1	-1E+10	1	-1E+10	1	-1E+10	1	-1E+10	1
4902554	90	C	08/05/2023	15:10	-132.638	47.775	0	1285.60	0	2.6400	0	34.4600	0	27.494	0	1270.912	0	-1e10	8	-1e10	8	-1E+10	1	-1E+10	1	-1E+10	1	-1E+10	1	-1E+10	1	-1E+10	1
4902554	90	C	08/05/2023	15:10	-132.638	47.775	0	1295.30	0	2.6260	0	34.4620	0	27.496	0	1280.472	0	-1e10	8	-1e10	8	-1E+10	1	-1E+10	1	-1E+10	1	-1E+10	1	-1E+10	1	-1E+10	1
4902554	90	C	08/05/2023	15:10	-132.638	47.775	0	1305.20	0	2.6060	0	34.4650	0	27.501	0	1290.228	0	-1e10	8	-1e10	8	-1E+10	1	-1E+10	1	-1E+10	1	-1E+10	1	-1E+10	1	-1E+10	1
4902554	90	C	08/05/2023	15:10	-132.638	47.775	0	1315.40	0	2.5930	0	34.4680	0	27.504	0	1300.280	0	-1e10	8	-1e10	8	-1E+10	1	-1E+10	1	-1E+10	1	-1E+10	1	-1E+10	1	-1E+10	1
4902554	90	C	08/05/2023	15:10	-132.638	47.775	0	1325.30	0	2.5850	0	34.4700	0	27.506	0	1310.035	0	-1e10	8	-1e10	8	-1E+10	1	-1E+10	1	-1E+10	1	-1E+10	1	-1E+10	1	-1E+10	1
4902554	90	C	08/05/2023	15:10	-132.638	47.775	0	1335.40	0	2.5760	0	34.4710	0	27.508	0	1319.987	0	-1e10	8	-1e10	8	-1E+10	1	-1E+10	1	-1E+10	1	-1E+10	1	-1E+10	1	-1E+10	1
4902554	90	C	08/05/2023	15:10	-132.638	47.775	0	1345.40	0	2.5620	0	34.4740	0	27.512	0	1329.840	0	-1e10	8	-1e10	8	-1E+10	1	-1E+10	1	-1E+10	1	-1E+10	1	-1E+10	1	-1E+10	1
4902554	90	C	08/05/2023	15:10	-132.638	47.775	0	1355.40	0	2.5460	0	34.4760	0	27.515	0	1339.693	0	-1e10	8	-1e10	8	-1E+10	1	-1E+10	1	-1E+10	1	-1E+10	1	-1E+10	1	-1E+10	1
4902554	90	C	08/05/2023	15:10	-132.638	47.775	0	1365.30	0	2.5280	0	34.4790	0	27.519	0	1349.446	0	-1e10	8	-1e10	8	-1E+10	1	-1E+10	1	-1E+10	1	-1E+10	1	-1E+10	1	-1E+10	1
4902554	90	C	08/05/2023	15:10	-132.638	47.775	0	1375.40	0	2.5150	0	34.4810	0	27.521	0	1359.397	0	-1e10	8	-1e10	8	-1E+10	1	-1E+10	1	-1E+10	1	-1E+10	1	-1E+10	1	-1E+10	1
4902554	90	C	08/05/2023	15:10	-132.638	47.775	0	1385.70	0	2.5010	0	34.4830	0	27.524	0	1369.543	0	-1e10	8	-1e10	8	-1E+10	1	-1E+10	1	-1E+10	1	-1E+10	1	-1E+10	1	-1E+10	1
4902554	90	C	08/05/2023	15:10	-132.638	47.775	0	1395.70	0	2.4920	0	34.4850	0	27.527	0	1379.394	0	-1e10	8	-1e10	8	-1E+10	1	-1E+10	1	-1E+10	1	-1E+10	1	-1E+10	1	-1E+10	1
4902554	90	C	08/05/2023	15:10	-132.638	47.775	0	1405.40	0	2.4820	0	34.4860	0	27.528	0	1388.949	0	-1e10	8	-1e10	8	-1E+10	1	-1E+10	1	-1E+10	1	-1E+10	1	-1E+10	1	-1E+10	1
4902554	90	C	08/05/2023	15:10	-132.638	47.775	0	1415.30	0	2.4740	0	34.4880	0	27.531	0	1398.700	0	-1e10	8	-1e10	8	-1E+10	1	-1E+10	1	-1E+10	1	-1E+10	1	-1E+10	1	-1E+10	1
4902554	90	C	08/05/2023	15:10	-132.638	47.775	0	1425.30	0	2.4590	0	34.4910	0	27.534	0	1408.549	0	-1e10	8	-1e10	8	-1E+10	1	-1E+10	1	-1E+10	1	-1E+10	1	-1E+10	1	-1E+10	1
4902554	90	C	08/05/2023	15:10	-132.638	47.775	0	1435.40	0	2.4440	0	34.4940	0	27.538	0	1418.497	0	-1e10	8	-1e10	8	-1E+10	1	-1E+10	1	-1E+10	1	-1E+10	1	-1E+10	1	-1E+10	1
4902554	90	C	08/05/2023	15:10	-132.638	47.775	0	1445.80	0	2.4310	0	34.4980	0	27.542	0	1428.739	0	-1e10	8	-1e10	8	-1E+10	1	-1E+10	1	-1E+10	1	-1E+10	1	-1E+10	1	-1E+10	1
4902554	90	C	08/05/2023	15:10	-132.638	47.775	0	1455.80	0	2.4240	0	34.5000	0	27.545	0	1438.587	0	-1e10	8	-1e10	8	-1E+10	1	-1E+10	1	-1E+10	1	-1E+10	1	-1E+10	1	-1E+10	1
4902554	90	C	08/05/2023	15:10	-132.638	47.775	0	1465.50	0	2.4100	0	34.5030	0	27.548	0	1448.139	0	-1e10	8	-1e10	8	-1E+10	1	-1E+10	1	-1E+10	1	-1E+10	1	-1E+10	1	-1E+10	1
4902554	90	C	08/05/2023	15:10	-132.638	47.775	0	1475.40	0	2.3920	0	34.5050	0	27.551	0	1457.888	0	-1e10	8	-1e10	8	-1E+10	1	-1E+10	1	-1E+10	1	-1E+10	1	-1E+10	1	-1E+10	1
4902554	90	C	08/05/2023	15:10	-132.638	47.775	0	1485.60	0	2.3770	0	34.5070	0	27.554	0	1467.931	0	-1e10	8	-1e10	8	-1E+10	1	-1E+10	1	-1E+10	1	-1E+10	1	-1E+10	1	-1E+10	1
4902554	90	C	08/05/2023	15:10	-132.638	47.775	0	1495.60	0	2.3730	0	34.5080	0	27.556	0	1477.777	0	-1e10	8	-1e10	8	-1E+10	1	-1E+10	1	-1E+10	1	-1E+10	1	-1E+10	1	-1E+10	1
4902554	90	C	08/05/2023	15:10	-132.638	47.775	0	1505.70	0	2.3640	0	34.5100	0	27.558	0	1487.721	0	-1e10	8	-1e10	8	-1E+10	1	-1E+10	1	-1E+10	1	-1E+10	1	-1E+10	1	-1E+10	1
4902554	90	C	08/05/2023	15:10	-132.638	47.775	0	1515.60	0	2.3560	0	34.5120	0	27.560	0	1497.468	0	-1e10	8	-1e10	8	-1E+10	1	-1E+10	1	-1E+10	1	-1E+10	1	-1E+10	1	-1E+10	1
4902554	90	C	08/05/2023	15:10	-132.638	47.775	0	1525.40	0	2.3480	0	34.5140	0	27.563	0	1507.116	0	-1e10	8	-1e10	8	-1E+10	1	-1E+10	1	-1E+10	1	-1E+10	1	-1E+10	1	-1E+10	1
4902554	90	C	08/05/2023	15:10	-132.638	47.775	0	1535.60	0	2.3390	0	34.5160	0	27.565	0	1517.157	0	-1e10	8	-1e10	8	-1E+10	1	-1E+10	1	-1E+10	1	-1E+10	1	-1E+10	1	-1E+10	1
4902554	90	C	08/05/2023	15:10	-132.638	47.775	0	1545.40	0	2.3290	0	34.5170	0	27.567	0	1526.804	0	-1e10	8	-1e10	8	-1E+10	1	-1E+10	1	-1E+10	1	-1E+10	1	-1E+10	1	-1E+10	1
4902554	90	C	08/05/2023	15:10	-132.638	47.775	0	1555.40	0	2.3190	0	34.5190	0	27.569	0	1536.648	0	-1e10	8	-1e10	8	-1E+10	1	-1E+10	1	-1E+10	1	-1E+10	1	-1E+10	1	-1E+10	1
4902554	90	C	08/05/2023	15:10	-132.638	47.775	0	1565.50	0	2.3060	0	34.5210	0	27.572	0	1546.589	0	-1e10	8	-1e10	8	-1E+10	1	-1E+10	1	-1E+10	1	-1E+10	1	-1E+10	1	-1E+10	1
4902554	90	C	08/05/2023	15:10	-132.638	47.775	0	1575.30	0	2.2970	0	34.5220	0	27.573	0	1556.235	0	-1e10	8	-1e10	8	-1E+10	1	-1E+10	1	-1E+10	1	-1E+10	1	-1E+10	1	-1E+10	1
4902554	90	C	08/05/2023	15:10	-132.638	47.775	0	1585.10	0	2.2800	0	34.5230	0	27.576	0	1565.880	0	-1e10	8	-1e10	8	-1E+10	1	-1E+10	1	-1E+10	1	-1E+10	1	-1E+10	1	-1E+10	1
4902554	90	C	08/05/2023	15:10	-132.638	47.775	0	1595.10	0	2.2690	0	34.5260	0	27.579	0	1575.721	0	-1e10	8	-1e10	8	-1E+10	1	-1E+10	1	-1E+10	1	-1E+10	1	-1E+10	1	-1E+10	1
4902554	90	C	08/05/2023	15:10	-132.638	47.775	0	1605.10	0	2.2590	0	34.5280	0	27.581	0	1585.562	0	-1e10	8	-1e10	8	-1E+10	1	-1E+10	1	-1E+10	1	-1E+10	1	-1E+10	1	-1E+10	1
4902554	90	C	08/05/2023	15:10	-132.638	47.775	0	1615.20	0	2.2510	0	34.5290	0	27.583	0	1595.501	0	-1e10	8	-1e10	8	-1E+10	1	-1E+10	1	-1E+10	1	-1E+10	1	-1E+10	1	-1E+10	1
4902554	90	C	08/05/2023	15:10	-132.638	47.775	0	1625.40	0	2.2350	0	34.5310	0	27.586	0	1605.538	0	-1e10	8	-1e10	8	-1E+10	1	-1E+10	1	-1E+10	1	-1E+10	1	-1E+10	1	-1E+10	1
4902554	90	C	08/05/2023	15:10	-132.638	47.775	0	1635.60	0	2.2230	0	34.5330	0	27.589	0	1615.575	0	-1e10	8	-1e10	8	-1E+10	1	-1E+10	1	-1E+10	1	-1E+10	1	-1E+10	1	-1E+10	1
4902554	90	C	08/05/2023	15:10	-132.638	47.775	0	1645.40	0	2.2170	0	34.5350	0	27.591	0	1625.217	0	-1e10	8	-1e10	8	-1E+10	1	-1E+10	1	-1E+10	1	-1E+10	1	-1E+10	1	-1E+10	1
4902554	90	C	08/05/2023	15:10	-132.638	47.775	0	1655.40	0	2.2040	0	34.5360	0	27.593	0	1635.056	0	-1e10	8	-1e10	8	-1E+10	1	-1E+10	1	-1E+10	1	-1E+10	1	-1E+10	1	-1E+10	1
4902554	90	C	08/05/2023	15:10	-132.638	47.775	0	1665.60	0	2.1880	0	34.5390	0	27.596	0	1645.091	0	-1e10	8	-1e10	8	-1E+10	1	-1E+10	1	-1E+10	1	-1E+10	1	-1E+10	1	-1E+10	1
4902554	90	C	08/05/2023	15:10	-132.638	47.775	0	1675.50	0	2.1730	0	34.5420	0	27.600	0	1654.831	0	-1e10	8	-1e10	8	-1E+10	1	-1E+10	1	-1E+10	1	-1E+10	1	-1E+10	1	-1E+10	1
4902554	90	C	08/05/2023	15:10	-132.638	47.775	0	1685.40	0	2.1650	0	34.5440	0	27.602	0	1664.570	0	-1e10	8	-1e10	8	-1E+10	1	-1E+10	1	-1E+10	1	-1E+10	1	-1E+10	1	-1E+10	1
4902554	90	C	08/05/2023	15:10	-132.638	47.775	0	1695.40	0	2.1530	0	34.5460	0	27.605	0	1674.407	0	-1e10	8	-1e10	8	-1E+10	1	-1E+10	1	-1E+10	1	-1E+10	1	-1E+10	1	-1E+10	1
4902554	90	C	08/05/2023	15:10	-132.638	47.775	0	1705.40	0	2.1460	0	34.5480	0	27.607	0	1684.243	0	-1e10	8	-1e10	8	-1E+10	1	-1E+10	1	-1E+10	1	-1E+10	1	-1E+10	1	-1E+10	1
4902554	90	C	08/05/2023	15:10	-132.638	47.775	0	1715.20	0	2.1370	0	34.5500	0	27.609	0	1693.882	0	-1e10	8	-1e10	8	-1E+10	1	-1E+10	1	-1E+10	1	-1E+10	1	-1E+10	1	-1E+10	1
4902554	90	C	08/05/2023	15:10	-132.638	47.775	0	1725.20	0	2.1290	0	34.5510	0	27.611	0	1703.718	0	-1e10	8	-1e10	8	-1E+10	1	-1E+10	1	-1E+10	1	-1E+10	1	-1E+10	1	-1E+10	1
4902554	90	C	08/05/2023	15:10	-132.638	47.775	0	1735.10	0	2.1210	0	34.5520	0	27.612	0	1713.455	0	-1e10	8	-1e10	8	-1E+10	1	-1E+10	1	-1E+10	1	-1E+10	1	-1E+10	1	-1E+10	1
4902554	90	C	08/05/2023	15:10	-132.638	47.775	0	1745.10	0	2.1120	0	34.5540	0	27.615	0	1723.289	0	-1e10	8	-1e10	8	-1E+10	1	-1E+10	1	-1E+10	1	-1E+10	1	-1E+10	1	-1E+10	1
4902554	90	C	08/05/2023	15:10	-132.638	47.775	0	1755.40	0	2.1070	0	34.5550	0	27.616	0	1733.419	0	-1e10	8	-1e10	8	-1E+10	1	-1E+10	1	-1E+10	1	-1E+10	1	-1E+10	1	-1E+10	1
4902554	90	C	08/05/2023	15:10	-132.638	47.775	0	1765.50	0	2.0980	0	34.5570	0	27.618	0	1743.351	0	-1e10	8	-1e10	8	-1E+10	1	-1E+10	1	-1E+10	1	-1E+10	1	-1E+10	1	-1E+10	1
4902554	90	C	08/05/2023	15:10	-132.638	47.775	0	1775.30	0	2.0890	0	34.5580	0	27.620	0	1752.987	0	-1e10	8	-1e10	8	-1E+10	1	-1E+10	1	-1E+10	1	-1E+10	1	-1E+10	1	-1E+10	1
4902554	90	C	08/05/2023	15:10	-132.638	47.775	0	1785.30	0	2.0750	0	34.5610	0	27.624	0	1762.820	0	-1e10	8	-1e10	8	-1E+10	1	-1E+10	1	-1E+10	1	-1E+10	1	-1E+10	1	-1E+10	1
4902554	90	C	08/05/2023	15:10	-132.638	47.775	0	1795.40	0	2.0690	0	34.5620	0	27.625	0	1772.751	0	-1e10	8	-1e10	8	-1E+10	1	-1E+10	1	-1E+10	1	-1E+10	1	-1E+10	1	-1E+10	1
4902554	90	C	08/05/2023	15:10	-132.638	47.775	0	1805.50	0	2.0600	0	34.5640	0	27.627	0	1782.681	0	-1e10	8	-1e10	8	-1E+10	1	-1E+10	1	-1E+10	1	-1E+10	1	-1E+10	1	-1E+10	1
4902554	90	C	08/05/2023	15:10	-132.638	47.775	0	1815.70	0	2.0530	0	34.5650	0	27.629	0	1792.709	0	-1e10	8	-1e10	8	-1E+10	1	-1E+10	1	-1E+10	1	-1E+10	1	-1E+10	1	-1E+10	1
4902554	90	C	08/05/2023	15:10	-132.638	47.775	0	1825.60	0	2.0460	0	34.5660	0	27.630	0	1802.442	0	-1e10	8	-1e10	8	-1E+10	1	-1E+10	1	-1E+10	1	-1E+10	1	-1E+10	1	-1E+10	1
4902554	90	C	08/05/2023	15:10	-132.638	47.775	0	1835.50	0	2.0380	0	34.5680	0	27.632	0	1812.174	0	-1e10	8	-1e10	8	-1E+10	1	-1E+10	1	-1E+10	1	-1E+10	1	-1E+10	1	-1E+10	1
4902554	90	C	08/05/2023	15:10	-132.638	47.775	0	1845.40	0	2.0340	0	34.5690	0	27.633	0	1821.906	0	-1e10	8	-1e10	8	-1E+10	1	-1E+10	1	-1E+10	1	-1E+10	1	-1E+10	1	-1E+10	1
4902554	90	C	08/05/2023	15:10	-132.638	47.775	0	1855.10	0	2.0290	0	34.5700	0	27.635	0	1831.441	0	-1e10	8	-1e10	8	-1E+10	1	-1E+10	1	-1E+10	1	-1E+10	1	-1E+10	1	-1E+10	1
4902554	90	C	08/05/2023	15:10	-132.638	47.775	0	1865.30	0	2.0210	0	34.5720	0	27.637	0	1841.466	0	-1e10	8	-1e10	8	-1E+10	1	-1E+10	1	-1E+10	1	-1E+10	1	-1E+10	1	-1E+10	1
4902554	90	C	08/05/2023	15:10	-132.638	47.775	0	1875.70	0	2.0130	0	34.5740	0	27.639	0	1851.688	0	-1e10	8	-1e10	8	-1E+10	1	-1E+10	1	-1E+10	1	-1E+10	1	-1E+10	1	-1E+10	1
4902554	90	C	08/05/2023	15:10	-132.638	47.775	0	1885.60	0	2.0050	0	34.5750	0	27.641	0	1861.418	0	-1e10	8	-1e10	8	-1E+10	1	-1E+10	1	-1E+10	1	-1E+10	1	-1E+10	1	-1E+10	1
4902554	90	C	08/05/2023	15:10	-132.638	47.775	0	1895.40	0	1.9950	0	34.5770	0	27.643	0	1871.049	0	-1e10	8	-1e10	8	-1E+10	1	-1E+10	1	-1E+10	1	-1E+10	1	-1E+10	1	-1E+10	1
4902554	90	C	08/05/2023	15:10	-132.638	47.775	0	1905.30	0	1.9850	0	34.5800	0	27.646	0	1880.779	0	-1e10	8	-1e10	8	-1E+10	1	-1E+10	1	-1E+10	1	-1E+10	1	-1E+10	1	-1E+10	1
4902554	90	C	08/05/2023	15:10	-132.638	47.775	0	1915.70	0	1.9810	0	34.5810	0	27.648	0	1890.998	0	-1e10	8	-1e10	8	-1E+10	1	-1E+10	1	-1E+10	1	-1E+10	1	-1E+10	1	-1E+10	1
4902554	90	C	08/05/2023	15:10	-132.638	47.775	0	1925.30	0	1.9760	0	34.5820	0	27.649	0	1900.432	0	-1e10	8	-1e10	8	-1E+10	1	-1E+10	1	-1E+10	1	-1E+10	1	-1E+10	1	-1E+10	1
4902554	90	C	08/05/2023	15:10	-132.638	47.775	0	1935.30	0	1.9710	0	34.5830	0	27.650	0	1910.258	0	-1e10	8	-1e10	8	-1E+10	1	-1E+10	1	-1E+10	1	-1E+10	1	-1E+10	1	-1E+10	1
4902554	90	C	08/05/2023	15:10	-132.638	47.775	0	1945.70	0	1.9650	0	34.5840	0	27.651	0	1920.476	0	-1e10	8	-1e10	8	-1E+10	1	-1E+10	1	-1E+10	1	-1E+10	1	-1E+10	1	-1E+10	1
4902554	90	C	08/05/2023	15:10	-132.638	47.775	0	1955.70	0	1.9580	0	34.5860	0	27.654	0	1930.301	0	-1e10	8	-1e10	8	-1E+10	1	-1E+10	1	-1E+10	1	-1E+10	1	-1E+10	1	-1E+10	1
4902554	90	C	08/05/2023	15:10	-132.638	47.775	0	1965.50	0	1.9530	0	34.5860	0	27.654	0	1939.930	0	-1e10	8	-1e10	8	-1E+10	1	-1E+10	1	-1E+10	1	-1E+10	1	-1E+10	1	-1E+10	1
4902554	90	C	08/05/2023	15:10	-132.638	47.775	0	1975.50	0	1.9420	0	34.5880	0	27.657	0	1949.754	0	-1e10	8	-1e10	8	-1E+10	1	-1E+10	1	-1E+10	1	-1E+10	1	-1E+10	1	-1E+10	1
4902554	90	C	08/05/2023	15:10	-132.638	47.775	0	1985.80	0	1.9340	0	34.5900	0	27.659	0	1959.872	0	-1e10	8	-1e10	8	-1E+10	1	-1E+10	1	-1E+10	1	-1E+10	1	-1E+10	1	-1E+10	1
4902554	90	C	08/05/2023	15:10	-132.638	47.775	0	1995.40	0	1.9300	0	34.5910	0	27.660	0	1969.303	0	-1e10	8	-1e10	8	-1E+10	1	-1E+10	1	-1E+10	1	-1E+10	1	-1E+10	1	-1E+10	1
4902554	90	C	08/05/2023	15:10	-132.638	47.775	0	2005.50	0	1.9270	0	34.5920	0	27.661	0	1979.224	0	-1e10	8	-1e10	8	-1E+10	1	-1E+10	1	-1E+10	1	-1E+10	1	-1E+10	1	-1E+10	1
4902554	90	C	08/05/2023	15:10	-132.638	47.775	0	2013.80	0	1.9260	0	34.5920	0	27.661	0	1987.376	0	-1e10	8	-1e10	8	-1E+10	1	-1E+10	1	-1E+10	1	-1E+10	1	-1E+10	1	-1E+10	1
4902554	90	C	08/05/2023	15:10	-132.638	47.775	0																										
4902554	91	C	08/15/2023	20:04	-132.753	47.871	0	0.20	0	18.4180	0	32.3120	0	23.114	0	0.198	0	-1e10	8	-1e10	8	-1E+10	1	-1E+10	1	-1E+10	1	-1E+10	1	-1E+10	1	-1E+10	1
4902554	91	C	08/15/2023	20:04	-132.753	47.871	0	0.30	0	18.4177	0	32.3113	0	23.113	0	0.297	0	-1e10	8	-1e10	8	-1E+10	1	-1E+10	1	-1E+10	1	-1E+10	1	-1E+10	1	-1E+10	1
4902554	91	C	08/15/2023	20:04	-132.753	47.871	0	0.90	0	18.4160	0	32.3070	0	23.110	0	0.892	0	-1e10	8	-1e10	8	-1E+10	1	-1E+10	1	-1E+10	1	-1E+10	1	-1E+10	1	-1E+10	1
4902554	91	C	08/15/2023	20:04	-132.753	47.871	0	2.00	0	18.4220	0	32.2990	0	23.103	0	1.983	0	-1e10	8	-1e10	8	-1E+10	1	-1E+10	1	-1E+10	1	-1E+10	1	-1E+10	1	-1E+10	1
4902554	91	C	08/15/2023	20:04	-132.753	47.871	0	3.10	0	18.4180	0	32.3010	0	23.105	0	3.074	0	-1e10	8	-1e10	8	-1E+10	1	-1E+10	1	-1E+10	1	-1E+10	1	-1E+10	1	-1E+10	1
4902554	91	C	08/15/2023	20:04	-132.753	47.871	0	4.00	0	18.4060	0	32.3120	0	23.117	0	3.966	0	-1e10	8	-1e10	8	-1E+10	1	-1E+10	1	-1E+10	1	-1E+10	1	-1E+10	1	-1E+10	1
4902554	91	C	08/15/2023	20:04	-132.753	47.871	0	4.90	0	18.3970	0	32.3240	0	23.128	0	4.859	0	-1e10	8	-1e10	8	-1E+10	1	-1E+10	1	-1E+10	1	-1E+10	1	-1E+10	1	-1E+10	1
4902554	91	C	08/15/2023	20:04	-132.753	47.871	0	6.00	0	18.4020	0	32.3250	0	23.128	0	5.950	0	-1e10	8	-1e10	8	-1E+10	1	-1E+10	1	-1E+10	1	-1E+10	1	-1E+10	1	-1E+10	1
4902554	91	C	08/15/2023	20:04	-132.753	47.871	0	7.00	0	18.3820	0	32.3250	0	23.133	0	6.941	0	-1e10	8	-1e10	8	-1E+10	1	-1E+10	1	-1E+10	1	-1E+10	1	-1E+10	1	-1E+10	1
4902554	91	C	08/15/2023	20:04	-132.753	47.871	0	8.10	0	18.3740	0	32.3240	0	23.134	0	8.032	0	-1e10	8	-1e10	8	-1E+10	1	-1E+10	1	-1E+10	1	-1E+10	1	-1E+10	1	-1E+10	1
4902554	91	C	08/15/2023	20:04	-132.753	47.871	0	9.30	0	18.3520	0	32.3250	0	23.140	0	9.222	0	-1e10	8	-1e10	8	-1E+10	1	-1E+10	1	-1E+10	1	-1E+10	1	-1E+10	1	-1E+10	1
4902554	91	C	08/15/2023	20:04	-132.753	47.871	0	10.00	0	18.3380	0	32.3240	0	23.143	0	9.916	0	-1e10	8	-1e10	8	-1E+10	1	-1E+10	1	-1E+10	1	-1E+10	1	-1E+10	1	-1E+10	1
4902554	91	C	08/15/2023	20:04	-132.753	47.871	0	11.20	0	18.2840	0	32.3230	0	23.155	0	11.106	0	-1e10	8	-1e10	8	-1E+10	1	-1E+10	1	-1E+10	1	-1E+10	1	-1E+10	1	-1E+10	1
4902554	91	C	08/15/2023	20:04	-132.753	47.871	0	12.10	0	18.2390	0	32.3210	0	23.165	0	11.998	0	-1e10	8	-1e10	8	-1E+10	1	-1E+10	1	-1E+10	1	-1E+10	1	-1E+10	1	-1E+10	1
4902554	91	C	08/15/2023	20:04	-132.753	47.871	0	13.00	0	18.0940	0	32.3240	0	23.202	0	12.891	0	-1e10	8	-1e10	8	-1E+10	1	-1E+10	1	-1E+10	1	-1E+10	1	-1E+10	1	-1E+10	1
4902554	91	C	08/15/2023	20:04	-132.753	47.871	0	13.70	0	18.0250	0	32.3170	0	23.214	0	13.585	0	-1e10	8	-1e10	8	-1E+10	1	-1E+10	1	-1E+10	1	-1E+10	1	-1E+10	1	-1E+10	1
4902554	91	C	08/15/2023	20:04	-132.753	47.871	0	14.90	0	17.9100	0	32.3160	0	23.241	0	14.775	0	-1e10	8	-1e10	8	-1E+10	1	-1E+10	1	-1E+10	1	-1E+10	1	-1E+10	1	-1E+10	1
4902554	91	C	08/15/2023	20:04	-132.753	47.871	0	16.10	0	17.8250	0	32.3220	0	23.266	0	15.964	0	-1e10	8	-1e10	8	-1E+10	1	-1E+10	1	-1E+10	1	-1E+10	1	-1E+10	1	-1E+10	1
4902554	91	C	08/15/2023	20:04	-132.753	47.871	0	17.10	0	17.6830	0	32.3090	0	23.290	0	16.956	0	-1e10	8	-1e10	8	-1E+10	1	-1E+10	1	-1E+10	1	-1E+10	1	-1E+10	1	-1E+10	1
4902554	91	C	08/15/2023	20:04	-132.753	47.871	0	18.00	0	17.3430	0	32.3110	0	23.373	0	17.848	0	-1e10	8	-1e10	8	-1E+10	1	-1E+10	1	-1E+10	1	-1E+10	1	-1E+10	1	-1E+10	1
4902554	91	C	08/15/2023	20:04	-132.753	47.871	0	18.90	0	16.8780	0	32.3090	0	23.480	0	18.741	0	-1e10	8	-1e10	8	-1E+10	1	-1E+10	1	-1E+10	1	-1E+10	1	-1E+10	1	-1E+10	1
4902554	91	C	08/15/2023	20:04	-132.753	47.871	0	19.80	0	16.2160	0	32.3230	0	23.642	0	19.633	0	-1e10	8	-1e10	8	-1E+10	1	-1E+10	1	-1E+10	1	-1E+10	1	-1E+10	1	-1E+10	1
4902554	91	C	08/15/2023	20:04	-132.753	47.871	0	20.90	0	15.7830	0	32.3220	0	23.739	0	20.724	0	-1e10	8	-1e10	8	-1E+10	1	-1E+10	1	-1E+10	1	-1E+10	1	-1E+10	1	-1E+10	1
4902554	91	C	08/15/2023	20:04	-132.753	47.871	0	22.00	0	15.2550	0	32.3470	0	23.874	0	21.814	0	-1e10	8	-1e10	8	-1E+10	1	-1E+10	1	-1E+10	1	-1E+10	1	-1E+10	1	-1E+10	1
4902554	91	C	08/15/2023	20:04	-132.753	47.871	0	23.00	0	14.9090	0	32.3430	0	23.945	0	22.806	0	-1e10	8	-1e10	8	-1E+10	1	-1E+10	1	-1E+10	1	-1E+10	1	-1E+10	1	-1E+10	1
4902554	91	C	08/15/2023	20:04	-132.753	47.871	0	24.10	0	14.6150	0	32.2710	0	23.952	0	23.897	0	-1e10	8	-1e10	8	-1E+10	1	-1E+10	1	-1E+10	1	-1E+10	1	-1E+10	1	-1E+10	1
4902554	91	C	08/15/2023	20:04	-132.753	47.871	0	25.20	0	14.0660	0	32.3160	0	24.102	0	24.987	0	-1e10	8	-1e10	8	-1E+10	1	-1E+10	1	-1E+10	1	-1E+10	1	-1E+10	1	-1E+10	1
4902554	91	C	08/15/2023	20:04	-132.753	47.871	0	25.90	0	13.7000	0	32.2280	0	24.108	0	25.681	0	-1e10	8	-1e10	8	-1E+10	1	-1E+10	1	-1E+10	1	-1E+10	1	-1E+10	1	-1E+10	1
4902554	91	C	08/15/2023	20:04	-132.753	47.871	0	27.00	0	12.9030	8	32.0970	8	24.165	0	26.772	0	-1e10	8	-1e10	8	-1E+10	1	-1E+10	1	-1E+10	1	-1E+10	1	-1E+10	1	-1E+10	1
4902554	91	C	08/15/2023	20:04	-132.753	47.871	0	28.00	0	12.7600	8	31.1930	8	23.493	0	27.763	0	-1e10	8	-1e10	8	-1E+10	1	-1E+10	1	-1E+10	1	-1E+10	1	-1E+10	1	-1E+10	1
4902554	91	C	08/15/2023	20:04	-132.753	47.871	0	29.20	0	12.6520	8	30.3780	8	22.883	0	28.953	0	-1e10	8	-1e10	8	-1E+10	1	-1E+10	1	-1E+10	1	-1E+10	1	-1E+10	1	-1E+10	1
4902554	91	C	08/15/2023	20:04	-132.753	47.871	0	30.00	0	12.5300	0	31.2310	0	23.566	0	29.746	0	-1e10	8	-1e10	8	-1E+10	1	-1E+10	1	-1E+10	1	-1E+10	1	-1E+10	1	-1E+10	1
4902554	91	C	08/15/2023	20:04	-132.753	47.871	0	31.00	0	12.2690	0	31.7600	0	24.025	0	30.738	0	-1e10	8	-1e10	8	-1E+10	1	-1E+10	1	-1E+10	1	-1E+10	1	-1E+10	1	-1E+10	1
4902554	91	C	08/15/2023	20:04	-132.753	47.871	0	32.00	0	12.0150	0	31.8210	0	24.120	0	31.729	0	-1e10	8	-1e10	8	-1E+10	1	-1E+10	1	-1E+10	1	-1E+10	1	-1E+10	1	-1E+10	1
4902554	91	C	08/15/2023	20:04	-132.753	47.871	0	33.00	0	11.5450	0	32.0680	0	24.397	0	32.721	0	-1e10	8	-1e10	8	-1E+10	1	-1E+10	1	-1E+10	1	-1E+10	1	-1E+10	1	-1E+10	1
4902554	91	C	08/15/2023	20:04	-132.753	47.871	0	34.00	0	11.3050	0	32.1840	0	24.531	0	33.712	0	-1e10	8	-1e10	8	-1E+10	1	-1E+10	1	-1E+10	1	-1E+10	1	-1E+10	1	-1E+10	1
4902554	91	C	08/15/2023	20:04	-132.753	47.871	0	34.90	0	11.2380	0	32.1890	0	24.546	0	34.605	0	-1e10	8	-1e10	8	-1E+10	1	-1E+10	1	-1E+10	1	-1E+10	1	-1E+10	1	-1E+10	1
4902554	91	C	08/15/2023	20:04	-132.753	47.871	0	35.90	0	11.1820	0	32.1780	0	24.548	0	35.596	0	-1e10	8	-1e10	8	-1E+10	1	-1E+10	1	-1E+10	1	-1E+10	1	-1E+10	1	-1E+10	1
4902554	91	C	08/15/2023	20:04	-132.753	47.871	0	36.90	0	11.1310	0	32.1780	0	24.557	0	36.588	0	-1e10	8	-1e10	8	-1E+10	1	-1E+10	1	-1E+10	1	-1E+10	1	-1E+10	1	-1E+10	1
4902554	91	C	08/15/2023	20:04	-132.753	47.871	0	38.10	0	11.0390	0	32.3050	0	24.672	0	37.777	0	-1e10	8	-1e10	8	-1E+10	1	-1E+10	1	-1E+10	1	-1E+10	1	-1E+10	1	-1E+10	1
4902554	91	C	08/15/2023	20:04	-132.753	47.871	0	38.70	0	10.9970	0	32.3820	0	24.739	0	38.372	0	-1e10	8	-1e10	8	-1E+10	1	-1E+10	1	-1E+10	1	-1E+10	1	-1E+10	1	-1E+10	1
4902554	91	C	08/15/2023	20:04	-132.753	47.871	0	39.80	0	10.6700	0	32.4180	0	24.824	0	39.463	0	-1e10	8	-1e10	8	-1E+10	1	-1E+10	1	-1E+10	1	-1E+10	1	-1E+10	1	-1E+10	1
4902554	91	C	08/15/2023	20:04	-132.753	47.871	0	40.90	0	10.5260	0	32.3870	0	24.825	0	40.553	0	-1e10	8	-1e10	8	-1E+10	1	-1E+10	1	-1E+10	1	-1E+10	1	-1E+10	1	-1E+10	1
4902554	91	C	08/15/2023	20:04	-132.753	47.871	0	42.00	0	10.4940	0	32.3930	0	24.835	0	41.644	0	-1e10	8	-1e10	8	-1E+10	1	-1E+10	1	-1E+10	1	-1E+10	1	-1E+10	1	-1E+10	1
4902554	91	C	08/15/2023	20:04	-132.753	47.871	0	43.10	0	10.4620	0	32.3970	0	24.844	0	42.734	0	-1e10	8	-1e10	8	-1E+10	1	-1E+10	1	-1E+10	1	-1E+10	1	-1E+10	1	-1E+10	1
4902554	91	C	08/15/2023	20:04	-132.753	47.871	0	44.00	0	10.4290	0	32.3920	0	24.845	0	43.627	0	-1e10	8	-1e10	8	-1E+10	1	-1E+10	1	-1E+10	1	-1E+10	1	-1E+10	1	-1E+10	1
4902554	91	C	08/15/2023	20:04	-132.753	47.871	0	44.90	0	10.3360	0	32.3930	0	24.862	0	44.519	0	-1e10	8	-1e10	8	-1E+10	1	-1E+10	1	-1E+10	1	-1E+10	1	-1E+10	1	-1E+10	1
4902554	91	C	08/15/2023	20:04	-132.753	47.871	0	46.00	0	10.1610	0	32.3980	0	24.895	0	45.609	0	-1e10	8	-1e10	8	-1E+10	1	-1E+10	1	-1E+10	1	-1E+10	1	-1E+10	1	-1E+10	1
4902554	91	C	08/15/2023	20:04	-132.753	47.871	0	47.10	0	9.9290	0	32.4060	0	24.940	0	46.700	0	-1e10	8	-1e10	8	-1E+10	1	-1E+10	1	-1E+10	1	-1E+10	1	-1E+10	1	-1E+10	1
4902554	91	C	08/15/2023	20:04	-132.753	47.871	0	48.00	0	9.7640	0	32.4070	0	24.968	0	47.592	0	-1e10	8	-1e10	8	-1E+10	1	-1E+10	1	-1E+10	1	-1E+10	1	-1E+10	1	-1E+10	1
4902554	91	C	08/15/2023	20:04	-132.753	47.871	0	48.80	0	9.5680	0	32.4120	0	25.004	0	48.385	0	-1e10	8	-1e10	8	-1E+10	1	-1E+10	1	-1E+10	1	-1E+10	1	-1E+10	1	-1E+10	1
4902554	91	C	08/15/2023	20:04	-132.753	47.871	0	49.90	0	9.4760	0	32.4080	0	25.015	0	49.476	0	-1e10	8	-1e10	8	-1E+10	1	-1E+10	1	-1E+10	1	-1E+10	1	-1E+10	1	-1E+10	1
4902554	91	C	08/15/2023	20:04	-132.753	47.871	0	51.10	0	9.2940	0	32.4120	0	25.047	0	50.666	0	-1e10	8	-1e10	8	-1E+10	1	-1E+10	1	-1E+10	1	-1E+10	1	-1E+10	1	-1E+10	1
4902554	91	C	08/15/2023	20:04	-132.753	47.871	0	52.30	0	8.8810	0	32.4210	0	25.119	0	51.855	0	-1e10	8	-1e10	8	-1E+10	1	-1E+10	1	-1E+10	1	-1E+10	1	-1E+10	1	-1E+10	1
4902554	91	C	08/15/2023	20:04	-132.753	47.871	0	53.10	0	8.7590	0	32.4150	0	25.133	0	52.648	0	-1e10	8	-1e10	8	-1E+10	1	-1E+10	1	-1E+10	1	-1E+10	1	-1E+10	1	-1E+10	1
4902554	91	C	08/15/2023	20:04	-132.753	47.871	0	54.00	0	8.6130	0	32.4200	0	25.159	0	53.540	0	-1e10	8	-1e10	8	-1E+10	1	-1E+10	1	-1E+10	1	-1E+10	1	-1E+10	1	-1E+10	1
4902554	91	C	08/15/2023	20:04	-132.753	47.871	0	55.00	0	8.3970	0	32.4220	0	25.193	0	54.532	0	-1e10	8	-1e10	8	-1E+10	1	-1E+10	1	-1E+10	1	-1E+10	1	-1E+10	1	-1E+10	1
4902554	91	C	08/15/2023	20:04	-132.753	47.871	0	56.20	0	8.2000	0	32.4190	0	25.219	0	55.721	0	-1e10	8	-1e10	8	-1E+10	1	-1E+10	1	-1E+10	1	-1E+10	1	-1E+10	1	-1E+10	1
4902554	91	C	08/15/2023	20:04	-132.753	47.871	0	57.10	0	8.1050	0	32.4240	0	25.237	0	56.614	0	-1e10	8	-1e10	8	-1E+10	1	-1E+10	1	-1E+10	1	-1E+10	1	-1E+10	1	-1E+10	1
4902554	91	C	08/15/2023	20:04	-132.753	47.871	0	58.00	0	8.0700	0	32.4220	0	25.241	0	57.506	0	-1e10	8	-1e10	8	-1E+10	1	-1E+10	1	-1E+10	1	-1E+10	1	-1E+10	1	-1E+10	1
4902554	91	C	08/15/2023	20:04	-132.753	47.871	0	59.10	0	7.9730	0	32.4210	0	25.254	0	58.596	0	-1e10	8	-1e10	8	-1E+10	1	-1E+10	1	-1E+10	1	-1E+10	1	-1E+10	1	-1E+10	1
4902554	91	C	08/15/2023	20:04	-132.753	47.871	0	60.10	0	7.8670	0	32.4210	0	25.269	0	59.588	0	-1e10	8	-1e10	8	-1E+10	1	-1E+10	1	-1E+10	1	-1E+10	1	-1E+10	1	-1E+10	1
4902554	91	C	08/15/2023	20:04	-132.753	47.871	0	61.10	0	7.7480	0	32.4190	0	25.284	0	60.579	0	-1e10	8	-1e10	8	-1E+10	1	-1E+10	1	-1E+10	1	-1E+10	1	-1E+10	1	-1E+10	1
4902554	91	C	08/15/2023	20:04	-132.753	47.871	0	62.00	0	7.7090	0	32.4190	0	25.290	0	61.471	0	-1e10	8	-1e10	8	-1E+10	1	-1E+10	1	-1E+10	1	-1E+10	1	-1E+10	1	-1E+10	1
4902554	91	C	08/15/2023	20:04	-132.753	47.871	0	63.00	0	7.6920	0	32.4190	0	25.292	0	62.463	0	-1e10	8	-1e10	8	-1E+10	1	-1E+10	1	-1E+10	1	-1E+10	1	-1E+10	1	-1E+10	1
4902554	91	C	08/15/2023	20:04	-132.753	47.871	0	64.20	0	7.6810	0	32.4190	0	25.294	0	63.652	0	-1e10	8	-1e10	8	-1E+10	1	-1E+10	1	-1E+10	1	-1E+10	1	-1E+10	1	-1E+10	1
4902554	91	C	08/15/2023	20:04	-132.753	47.871	0	64.80	0	7.6760	0	32.4190	0	25.295	0	64.247	0	-1e10	8	-1e10	8	-1E+10	1	-1E+10	1	-1E+10	1	-1E+10	1	-1E+10	1	-1E+10	1
4902554	91	C	08/15/2023	20:04	-132.753	47.871	0	65.70	0	7.6610	0	32.4180	0	25.296	0	65.139	0	-1e10	8	-1e10	8	-1E+10	1	-1E+10	1	-1E+10	1	-1E+10	1	-1E+10	1	-1E+10	1
4902554	91	C	08/15/2023	20:04	-132.753	47.871	0	66.70	0	7.6080	0	32.4190	0	25.304	0	66.130	0	-1e10	8	-1e10	8	-1E+10	1	-1E+10	1	-1E+10	1	-1E+10	1	-1E+10	1	-1E+10	1
4902554	91	C	08/15/2023	20:04	-132.753	47.871	0	67.70	0	7.5600	0	32.4180	0	25.310	0	67.122	0	-1e10	8	-1e10	8	-1E+10	1	-1E+10	1	-1E+10	1	-1E+10	1	-1E+10	1	-1E+10	1
4902554	91	C	08/15/2023	20:04	-132.753	47.871	0	68.70	0	7.5350	0	32.4180	0	25.314	0	68.113	0	-1e10	8	-1e10	8	-1E+10	1	-1E+10	1	-1E+10	1	-1E+10	1	-1E+10	1	-1E+10	1
4902554	91	C	08/15/2023	20:04	-132.753	47.871	0	69.70	0	7.5000	0	32.4180	0	25.318	0	69.104	0	-1e10	8	-1e10	8	-1E+10	1	-1E+10	1	-1E+10	1	-1E+10	1	-1E+10	1	-1E+10	1
4902554	91	C	08/15/2023	20:04	-132.753	47.871	0	70.70	0	7.4860	0	32.4200	0	25.322	0	70.096	0	-1e10	8	-1e10	8	-1E+10	1	-1E+10	1	-1E+10	1	-1E+10	1	-1E+10	1	-1E+10	1
4902554	91	C	08/15/2023	20:04	-132.753	47.871	0	71.90	0	7.4490	0	32.4220	0	25.329	0	71.285	0	-1e10	8	-1e10	8	-1E+10	1	-1E+10	1	-1E+10	1	-1E+10	1	-1E+10	1	-1E+10	1
4902554	91	C	08/15/2023	20:04	-132.753	47.871	0	73.30	0	7.4200	0	32.4220	0	25.333	0	72.673	0	-1e10	8	-1e10	8	-1E+10	1	-1E+10	1	-1E+10	1	-1E+10	1	-1E+10	1	-1E+10	1
4902554	91	C	08/15/2023	20:04	-132.753	47.871	0	74.20	0	7.4130	0	32.4250	0	25.336	0	73.565	0	-1e10	8	-1e10	8	-1E+10	1	-1E+10	1	-1E+10	1	-1E+10	1	-1E+10	1	-1E+10	1
4902554	91	C	08/15/2023	20:04	-132.753	47.871	0	75.10	0	7.4040	0	32.4270	0	25.339	0	74.457	0	-1e10	8	-1e10	8	-1E+10	1	-1E+10	1	-1E+10	1	-1E+10	1	-1E+10	1	-1E+10	1
4902554	91	C	08/15/2023	20:04	-132.753	47.871	0	75.90	0	7.3840	0	32.4280	0	25.342	0	75.250	0	-1e10	8	-1e10	8	-1E+10	1	-1E+10	1	-1E+10	1	-1E+10	1	-1E+10	1	-1E+10	1
4902554	91	C	08/15/2023	20:04	-132.753	47.871	0	77.10	0	7.3300	0	32.4240	0	25.347	0	76.440	0	-1e10	8	-1e10	8	-1E+10	1	-1E+10	1	-1E+10	1	-1E+10	1	-1E+10	1	-1E+10	1
4902554	91	C	08/15/2023	20:04	-132.753	47.871	0	77.90	0	7.2970	0	32.4220	0	25.350	0	77.233	0	-1e10	8	-1e10	8	-1E+10	1	-1E+10	1	-1E+10	1	-1E+10	1	-1E+10	1	-1E+10	1
4902554	91	C	08/15/2023	20:04	-132.753	47.871	0	79.10	0	7.2920	0	32.4250	0	25.353	0	78.422	0	-1e10	8	-1e10	8	-1E+10	1	-1E+10	1	-1E+10	1	-1E+10	1	-1E+10	1	-1E+10	1
4902554	91	C	08/15/2023	20:04	-132.753	47.871	0	79.90	0	7.2810	0	32.4270	0	25.356	0	79.215	0	-1e10	8	-1e10	8	-1E+10	1	-1E+10	1	-1E+10	1	-1E+10	1	-1E+10	1	-1E+10	1
4902554	91	C	08/15/2023	20:04	-132.753	47.871	0	81.00	0	7.2410	0	32.4230	0	25.358	0	80.305	0	-1e10	8	-1e10	8	-1E+10	1	-1E+10	1	-1E+10	1	-1E+10	1	-1E+10	1	-1E+10	1
4902554	91	C	08/15/2023	20:04	-132.753	47.871	0	82.20	0	7.2320	0	32.4240	0	25.360	0	81.495	0	-1e10	8	-1e10	8	-1E+10	1	-1E+10	1	-1E+10	1	-1E+10	1	-1E+10	1	-1E+10	1
4902554	91	C	08/15/2023	20:04	-132.753	47.871	0	83.00	0	7.2350	0	32.4250	0	25.360	0	82.288	0	-1e10	8	-1e10	8	-1E+10	1	-1E+10	1	-1E+10	1	-1E+10	1	-1E+10	1	-1E+10	1
4902554	91	C	08/15/2023	20:04	-132.753	47.871	0	84.20	0	7.2370	0	32.4270	0	25.362	0	83.477	0	-1e10	8	-1e10	8	-1E+10	1	-1E+10	1	-1E+10	1	-1E+10	1	-1E+10	1	-1E+10	1
4902554	91	C	08/15/2023	20:04	-132.753	47.871	0	85.00	0	7.2410	0	32.4300	0	25.364	0	84.270	0	-1e10	8	-1e10	8	-1E+10	1	-1E+10	1	-1E+10	1	-1E+10	1	-1E+10	1	-1E+10	1
4902554	91	C	08/15/2023	20:04	-132.753	47.871	0	85.90	0	7.2490	0	32.4320	0	25.364	0	85.162	0	-1e10	8	-1e10	8	-1E+10	1	-1E+10	1	-1E+10	1	-1E+10	1	-1E+10	1	-1E+10	1
4902554	91	C	08/15/2023	20:04	-132.753	47.871	0	86.90	0	7.2510	0	32.4340	0	25.365	0	86.154	0	-1e10	8	-1e10	8	-1E+10	1	-1E+10	1	-1E+10	1	-1E+10	1	-1E+10	1	-1E+10	1
4902554	91	C	08/15/2023	20:04	-132.753	47.871	0	88.00	0	7.2480	0	32.4350	0	25.367	0	87.244	0	-1e10	8	-1e10	8	-1E+10	1	-1E+10	1	-1E+10	1	-1E+10	1	-1E+10	1	-1E+10	1
4902554	91	C	08/15/2023	20:04	-132.753	47.871	0	89.20	0	7.2380	0	32.4350	0	25.368	0	88.433	0	-1e10	8	-1e10	8	-1E+10	1	-1E+10	1	-1E+10	1	-1E+10	1	-1E+10	1	-1E+10	1
4902554	91	C	08/15/2023	20:04	-132.753	47.871	0	90.00	0	7.2380	0	32.4370	0	25.370	0	89.226	0	-1e10	8	-1e10	8	-1E+10	1	-1E+10	1	-1E+10	1	-1E+10	1	-1E+10	1	-1E+10	1
4902554	91	C	08/15/2023	20:04	-132.753	47.871	0	90.90	0	7.2340	0	32.4420	0	25.374	0	90.118	0	-1e10	8	-1e10	8	-1E+10	1	-1E+10	1	-1E+10	1	-1E+10	1	-1E+10	1	-1E+10	1
4902554	91	C	08/15/2023	20:04	-132.753	47.871	0	92.10	0	7.2330	0	32.4450	0	25.377	0	91.308	0	-1e10	8	-1e10	8	-1E+10	1	-1E+10	1	-1E+10	1	-1E+10	1	-1E+10	1	-1E+10	1
4902554	91	C	08/15/2023	20:04	-132.753	47.871	0	92.90	0	7.2330	0	32.4470	0	25.378	0	92.101	0	-1e10	8	-1e10	8	-1E+10	1	-1E+10	1	-1E+10	1	-1E+10	1	-1E+10	1	-1E+10	1
4902554	91	C	08/15/2023	20:04	-132.753	47.871	0	94.10	0	7.2430	0	32.4520	0	25.381	0	93.290	0	-1e10	8	-1e10	8	-1E+10	1	-1E+10	1	-1E+10	1	-1E+10	1	-1E+10	1	-1E+10	1
4902554	91	C	08/15/2023	20:04	-132.753	47.871	0	94.90	0	7.2540	0	32.4570	0	25.383	0	94.083	0	-1e10	8	-1e10	8	-1E+10	1	-1E+10	1	-1E+10	1	-1E+10	1	-1E+10	1	-1E+10	1
4902554	91	C	08/15/2023	20:04	-132.753	47.871	0	96.10	0	7.2610	0	32.4610	0	25.385	0	95.273	0	-1e10	8	-1e10	8	-1E+10	1	-1E+10	1	-1E+10	1	-1E+10	1	-1E+10	1	-1E+10	1
4902554	91	C	08/15/2023	20:04	-132.753	47.871	0	96.90	0	7.2610	0	32.4610	0	25.385	0	96.065	0	-1e10	8	-1e10	8	-1E+10	1	-1E+10	1	-1E+10	1	-1E+10	1	-1E+10	1	-1E+10	1
4902554	91	C	08/15/2023	20:04	-132.753	47.871	0	98.10	0	7.2640	0	32.4660	0	25.389	0	97.255	0	-1e10	8	-1e10	8	-1E+10	1	-1E+10	1	-1E+10	1	-1E+10	1	-1E+10	1	-1E+10	1
4902554	91	C	08/15/2023	20:04	-132.753	47.871	0	98.90	0	7.2610	0	32.4700	0	25.393	0	98.048	0	-1e10	8	-1e10	8	-1E+10	1	-1E+10	1	-1E+10	1	-1E+10	1	-1E+10	1	-1E+10	1
4902554	91	C	08/15/2023	20:04	-132.753	47.871	0	99.90	0	7.2580	0	32.4730	0	25.395	0	99.039	0	-1e10	8	-1e10	8	-1E+10	1	-1E+10	1	-1E+10	1	-1E+10	1	-1E+10	1	-1E+10	1
4902554	91	C	08/15/2023	20:04	-132.753	47.871	0	100.80	0	7.2530	0	32.4770	0	25.399	0	99.931	0	-1e10	8	-1e10	8	-1E+10	1	-1E+10	1	-1E+10	1	-1E+10	1	-1E+10	1	-1E+10	1
4902554	91	C	08/15/2023	20:04	-132.753	47.871	0	101.70	0	7.2490	0	32.4790	0	25.401	0	100.823	0	-1e10	8	-1e10	8	-1E+10	1	-1E+10	1	-1E+10	1	-1E+10	1	-1E+10	1	-1E+10	1
4902554	91	C	08/15/2023	20:04	-132.753	47.871	0	103.10	0	7.2580	0	32.4840	0	25.404	0	102.211	0	-1e10	8	-1e10	8	-1E+10	1	-1E+10	1	-1E+10	1	-1E+10	1	-1E+10	1	-1E+10	1
4902554	91	C	08/15/2023	20:04	-132.753	47.871	0	104.10	0	7.2600	0	32.4870	0	25.406	0	103.202	0	-1e10	8	-1e10	8	-1E+10	1	-1E+10	1	-1E+10	1	-1E+10	1	-1E+10	1	-1E+10	1
4902554	91	C	08/15/2023	20:04	-132.753	47.871	0	105.00	0	7.2460	0	32.4890	0	25.410	0	104.094	0	-1e10	8	-1e10	8	-1E+10	1	-1E+10	1	-1E+10	1	-1E+10	1	-1E+10	1	-1E+10	1
4902554	91	C	08/15/2023	20:04	-132.753	47.871	0	105.70	0	7.2150	0	32.4890	0	25.414	0	104.787	0	-1e10	8	-1e10	8	-1E+10	1	-1E+10	1	-1E+10	1	-1E+10	1	-1E+10	1	-1E+10	1
4902554	91	C	08/15/2023	20:04	-132.753	47.871	0	106.80	0	7.2050	0	32.4900	0	25.416	0	105.878	0	-1e10	8	-1e10	8	-1E+10	1	-1E+10	1	-1E+10	1	-1E+10	1	-1E+10	1	-1E+10	1
4902554	91	C	08/15/2023	20:04	-132.753	47.871	0	107.90	0	7.2030	0	32.4940	0	25.419	0	106.968	0	-1e10	8	-1e10	8	-1E+10	1	-1E+10	1	-1E+10	1	-1E+10	1	-1E+10	1	-1E+10	1
4902554	91	C	08/15/2023	20:04	-132.753	47.871	0	109.00	0	7.2020	0	32.4980	0	25.423	0	108.058	0	-1e10	8	-1e10	8	-1E+10	1	-1E+10	1	-1E+10	1	-1E+10	1	-1E+10	1	-1E+10	1
4902554	91	C	08/15/2023	20:04	-132.753	47.871	0	110.10	0	7.1920	0	32.5040	0	25.429	0	109.148	0	-1e10	8	-1e10	8	-1E+10	1	-1E+10	1	-1E+10	1	-1E+10	1	-1E+10	1	-1E+10	1
4902554	91	C	08/15/2023	20:04	-132.753	47.871	0	111.00	0	7.1700	0	32.5050	0	25.433	0	110.040	0	-1e10	8	-1e10	8	-1E+10	1	-1E+10	1	-1E+10	1	-1E+10	1	-1E+10	1	-1E+10	1
4902554	91	C	08/15/2023	20:04	-132.753	47.871	0	111.80	0	7.1480	0	32.5070	0	25.437	0	110.833	0	-1e10	8	-1e10	8	-1E+10	1	-1E+10	1	-1E+10	1	-1E+10	1	-1E+10	1	-1E+10	1
4902554	91	C	08/15/2023	20:04	-132.753	47.871	0	112.90	0	7.1200	0	32.5160	0	25.448	0	111.923	0	-1e10	8	-1e10	8	-1E+10	1	-1E+10	1	-1E+10	1	-1E+10	1	-1E+10	1	-1E+10	1
4902554	91	C	08/15/2023	20:04	-132.753	47.871	0	114.10	0	7.0820	0	32.5330	0	25.466	0	113.113	0	-1e10	8	-1e10	8	-1E+10	1	-1E+10	1	-1E+10	1	-1E+10	1	-1E+10	1	-1E+10	1
4902554	91	C	08/15/2023	20:04	-132.753	47.871	0	114.90	0	7.0710	0	32.5470	0	25.479	0	113.905	0	-1e10	8	-1e10	8	-1E+10	1	-1E+10	1	-1E+10	1	-1E+10	1	-1E+10	1	-1E+10	1
4902554	91	C	08/15/2023	20:04	-132.753	47.871	0	115.80	0	7.0340	0	32.5690	0	25.501	0	114.797	0	-1e10	8	-1e10	8	-1E+10	1	-1E+10	1	-1E+10	1	-1E+10	1	-1E+10	1	-1E+10	1
4902554	91	C	08/15/2023	20:04	-132.753	47.871	0	116.90	0	7.0190	0	32.5770	0	25.510	0	115.888	0	-1e10	8	-1e10	8	-1E+10	1	-1E+10	1	-1E+10	1	-1E+10	1	-1E+10	1	-1E+10	1
4902554	91	C	08/15/2023	20:04	-132.753	47.871	0	118.00	0	6.9900	0	32.5940	0	25.527	0	116.978	0	-1e10	8	-1e10	8	-1E+10	1	-1E+10	1	-1E+10	1	-1E+10	1	-1E+10	1	-1E+10	1
4902554	91	C	08/15/2023	20:04	-132.753	47.871	0	119.10	0	6.9550	0	32.6350	0	25.564	0	118.068	0	-1e10	8	-1e10	8	-1E+10	1	-1E+10	1	-1E+10	1	-1E+10	1	-1E+10	1	-1E+10	1
4902554	91	C	08/15/2023	20:04	-132.753	47.871	0	120.10	0	6.9140	0	32.6660	0	25.594	0	119.059	0	-1e10	8	-1e10	8	-1E+10	1	-1E+10	1	-1E+10	1	-1E+10	1	-1E+10	1	-1E+10	1
4902554	91	C	08/15/2023	20:04	-132.753	47.871	0	121.20	0	6.8520	0	32.7020	0	25.630	0	120.149	0	-1e10	8	-1e10	8	-1E+10	1	-1E+10	1	-1E+10	1	-1E+10	1	-1E+10	1	-1E+10	1
4902554	91	C	08/15/2023	20:04	-132.753	47.871	0	122.00	0	6.7350	0	32.7800	0	25.707	0	120.942	0	-1e10	8	-1e10	8	-1E+10	1	-1E+10	1	-1E+10	1	-1E+10	1	-1E+10	1	-1E+10	1
4902554	91	C	08/15/2023	20:04	-132.753	47.871	0	123.10	0	6.6140	0	32.8540	0	25.781	0	122.032	0	-1e10	8	-1e10	8	-1E+10	1	-1E+10	1	-1E+10	1	-1E+10	1	-1E+10	1	-1E+10	1
4902554	91	C	08/15/2023	20:04	-132.753	47.871	0	124.00	0	6.4740	0	32.9460	0	25.872	0	122.924	0	-1e10	8	-1e10	8	-1E+10	1	-1E+10	1	-1E+10	1	-1E+10	1	-1E+10	1	-1E+10	1
4902554	91	C	08/15/2023	20:04	-132.753	47.871	0	125.00	0	6.3470	0	33.0300	0	25.954	0	123.915	0	-1e10	8	-1e10	8	-1E+10	1	-1E+10	1	-1E+10	1	-1E+10	1	-1E+10	1	-1E+10	1
4902554	91	C	08/15/2023	20:04	-132.753	47.871	0	126.30	0	6.2880	0	33.0690	0	25.992	0	125.203	0	-1e10	8	-1e10	8	-1E+10	1	-1E+10	1	-1E+10	1	-1E+10	1	-1E+10	1	-1E+10	1
4902554	91	C	08/15/2023	20:04	-132.753	47.871	0	127.20	0	6.2830	0	33.0730	0	25.996	0	126.095	0	-1e10	8	-1e10	8	-1E+10	1	-1E+10	1	-1E+10	1	-1E+10	1	-1E+10	1	-1E+10	1
4902554	91	C	08/15/2023	20:04	-132.753	47.871	0	127.90	0	6.2820	0	33.0740	0	25.997	0	126.789	0	-1e10	8	-1e10	8	-1E+10	1	-1E+10	1	-1E+10	1	-1E+10	1	-1E+10	1	-1E+10	1
4902554	91	C	08/15/2023	20:04	-132.753	47.871	0	128.90	0	6.2780	0	33.0770	0	26.000	0	127.780	0	-1e10	8	-1e10	8	-1E+10	1	-1E+10	1	-1E+10	1	-1E+10	1	-1E+10	1	-1E+10	1
4902554	91	C	08/15/2023	20:04	-132.753	47.871	0	130.00	0	6.2640	0	33.0860	0	26.009	0	128.870	0	-1e10	8	-1e10	8	-1E+10	1	-1E+10	1	-1E+10	1	-1E+10	1	-1E+10	1	-1E+10	1
4902554	91	C	08/15/2023	20:04	-132.753	47.871	0	130.90	0	6.2110	0	33.1250	0	26.046	0	129.762	0	-1e10	8	-1e10	8	-1E+10	1	-1E+10	1	-1E+10	1	-1E+10	1	-1E+10	1	-1E+10	1
4902554	91	C	08/15/2023	20:04	-132.753	47.871	0	131.80	0	6.1700	0	33.1490	0	26.071	0	130.654	0	-1e10	8	-1e10	8	-1E+10	1	-1E+10	1	-1E+10	1	-1E+10	1	-1E+10	1	-1E+10	1
4902554	91	C	08/15/2023	20:04	-132.753	47.871	0	132.90	0	6.1340	0	33.1700	0	26.092	0	131.744	0	-1e10	8	-1e10	8	-1E+10	1	-1E+10	1	-1E+10	1	-1E+10	1	-1E+10	1	-1E+10	1
4902554	91	C	08/15/2023	20:04	-132.753	47.871	0	134.00	0	6.0640	0	33.2210	0	26.141	0	132.834	0	-1e10	8	-1e10	8	-1E+10	1	-1E+10	1	-1E+10	1	-1E+10	1	-1E+10	1	-1E+10	1
4902554	91	C	08/15/2023	20:04	-132.753	47.871	0	135.30	0	6.0020	0	33.2730	0	26.189	0	134.122	0	-1e10	8	-1e10	8	-1E+10	1	-1E+10	1	-1E+10	1	-1E+10	1	-1E+10	1	-1E+10	1
4902554	91	C	08/15/2023	20:04	-132.753	47.871	0	136.10	0	5.9910	0	33.2850	0	26.200	0	134.915	0	-1e10	8	-1e10	8	-1E+10	1	-1E+10	1	-1E+10	1	-1E+10	1	-1E+10	1	-1E+10	1
4902554	91	C	08/15/2023	20:04	-132.753	47.871	0	136.90	0	5.9890	0	33.3020	0	26.214	0	135.708	0	-1e10	8	-1e10	8	-1E+10	1	-1E+10	1	-1E+10	1	-1E+10	1	-1E+10	1	-1E+10	1
4902554	91	C	08/15/2023	20:04	-132.753	47.871	0	137.90	0	5.9800	0	33.3050	0	26.217	0	136.699	0	-1e10	8	-1e10	8	-1E+10	1	-1E+10	1	-1E+10	1	-1E+10	1	-1E+10	1	-1E+10	1
4902554	91	C	08/15/2023	20:04	-132.753	47.871	0	138.80	0	5.9560	0	33.3210	0	26.233	0	137.591	0	-1e10	8	-1e10	8	-1E+10	1	-1E+10	1	-1E+10	1	-1E+10	1	-1E+10	1	-1E+10	1
4902554	91	C	08/15/2023	20:04	-132.753	47.871	0	139.80	0	5.9280	0	33.3360	0	26.248	0	138.582	0	-1e10	8	-1e10	8	-1E+10	1	-1E+10	1	-1E+10	1	-1E+10	1	-1E+10	1	-1E+10	1
4902554	91	C	08/15/2023	20:04	-132.753	47.871	0	140.80	0	5.8940	0	33.3460	0	26.260	0	139.573	0	-1e10	8	-1e10	8	-1E+10	1	-1E+10	1	-1E+10	1	-1E+10	1	-1E+10	1	-1E+10	1
4902554	91	C	08/15/2023	20:04	-132.753	47.871	0	141.70	0	5.8660	0	33.3580	0	26.273	0	140.464	0	-1e10	8	-1e10	8	-1E+10	1	-1E+10	1	-1E+10	1	-1E+10	1	-1E+10	1	-1E+10	1
4902554	91	C	08/15/2023	20:04	-132.753	47.871	0	142.70	0	5.8500	0	33.3690	0	26.284	0	141.455	0	-1e10	8	-1e10	8	-1E+10	1	-1E+10	1	-1E+10	1	-1E+10	1	-1E+10	1	-1E+10	1
4902554	91	C	08/15/2023	20:04	-132.753	47.871	0	143.70	0	5.8450	0	33.3790	0	26.293	0	142.446	0	-1e10	8	-1e10	8	-1E+10	1	-1E+10	1	-1E+10	1	-1E+10	1	-1E+10	1	-1E+10	1
4902554	91	C	08/15/2023	20:04	-132.753	47.871	0	144.70	0	5.8380	0	33.3860	0	26.299	0	143.437	0	-1e10	8	-1e10	8	-1E+10	1	-1E+10	1	-1E+10	1	-1E+10	1	-1E+10	1	-1E+10	1
4902554	91	C	08/15/2023	20:04	-132.753	47.871	0	145.90	0	5.8330	0	33.3920	0	26.304	0	144.626	0	-1e10	8	-1e10	8	-1E+10	1	-1E+10	1	-1E+10	1	-1E+10	1	-1E+10	1	-1E+10	1
4902554	91	C	08/15/2023	20:04	-132.753	47.871	0	146.90	0	5.8230	0	33.4050	0	26.316	0	145.617	0	-1e10	8	-1e10	8	-1E+10	1	-1E+10	1	-1E+10	1	-1E+10	1	-1E+10	1	-1E+10	1
4902554	91	C	08/15/2023	20:04	-132.753	47.871	0	148.00	0	5.8030	0	33.4310	0	26.339	0	146.707	0	-1e10	8	-1e10	8	-1E+10	1	-1E+10	1	-1E+10	1	-1E+10	1	-1E+10	1	-1E+10	1
4902554	91	C	08/15/2023	20:04	-132.753	47.871	0	149.00	0	5.7910	0	33.4510	0	26.356	0	147.698	0	-1e10	8	-1e10	8	-1E+10	1	-1E+10	1	-1E+10	1	-1E+10	1	-1E+10	1	-1E+10	1
4902554	91	C	08/15/2023	20:04	-132.753	47.871	0	150.00	0	5.7840	0	33.4560	0	26.361	0	148.689	0	-1e10	8	-1e10	8	-1E+10	1	-1E+10	1	-1E+10	1	-1E+10	1	-1E+10	1	-1E+10	1
4902554	91	C	08/15/2023	20:04	-132.753	47.871	0	151.00	0	5.7820	0	33.4630	0	26.367	0	149.680	0	-1e10	8	-1e10	8	-1E+10	1	-1E+10	1	-1E+10	1	-1E+10	1	-1E+10	1	-1E+10	1
4902554	91	C	08/15/2023	20:04	-132.753	47.871	0	152.00	0	5.7820	0	33.4670	0	26.370	0	150.671	0	-1e10	8	-1e10	8	-1E+10	1	-1E+10	1	-1E+10	1	-1E+10	1	-1E+10	1	-1E+10	1
4902554	91	C	08/15/2023	20:04	-132.753	47.871	0	153.00	0	5.7830	0	33.4740	0	26.375	0	151.662	0	-1e10	8	-1e10	8	-1E+10	1	-1E+10	1	-1E+10	1	-1E+10	1	-1E+10	1	-1E+10	1
4902554	91	C	08/15/2023	20:04	-132.753	47.871	0	154.00	0	5.7810	0	33.4790	0	26.379	0	152.653	0	-1e10	8	-1e10	8	-1E+10	1	-1E+10	1	-1E+10	1	-1E+10	1	-1E+10	1	-1E+10	1
4902554	91	C	08/15/2023	20:04	-132.753	47.871	0	155.00	0	5.7710	0	33.5040	0	26.400	0	153.643	0	-1e10	8	-1e10	8	-1E+10	1	-1E+10	1	-1E+10	1	-1E+10	1	-1E+10	1	-1E+10	1
4902554	91	C	08/15/2023	20:04	-132.753	47.871	0	156.00	0	5.7560	0	33.5190	0	26.414	0	154.634	0	-1e10	8	-1e10	8	-1E+10	1	-1E+10	1	-1E+10	1	-1E+10	1	-1E+10	1	-1E+10	1
4902554	91	C	08/15/2023	20:04	-132.753	47.871	0	156.90	0	5.7530	0	33.5220	0	26.417	0	155.526	0	-1e10	8	-1e10	8	-1E+10	1	-1E+10	1	-1E+10	1	-1E+10	1	-1E+10	1	-1E+10	1
4902554	91	C	08/15/2023	20:04	-132.753	47.871	0	157.90	0	5.7500	0	33.5250	0	26.420	0	156.517	0	-1e10	8	-1e10	8	-1E+10	1	-1E+10	1	-1E+10	1	-1E+10	1	-1E+10	1	-1E+10	1
4902554	91	C	08/15/2023	20:04	-132.753	47.871	0	158.90	0	5.7370	0	33.5390	0	26.432	0	157.508	0	-1e10	8	-1e10	8	-1E+10	1	-1E+10	1	-1E+10	1	-1E+10	1	-1E+10	1	-1E+10	1
4902554	91	C	08/15/2023	20:04	-132.753	47.871	0	159.80	0	5.7360	0	33.5400	0	26.433	0	158.400	0	-1e10	8	-1e10	8	-1E+10	1	-1E+10	1	-1E+10	1	-1E+10	1	-1E+10	1	-1E+10	1
4902554	91	C	08/15/2023	20:04	-132.753	47.871	0	160.80	0	5.7290	0	33.5480	0	26.440	0	159.390	0	-1e10	8	-1e10	8	-1E+10	1	-1E+10	1	-1E+10	1	-1E+10	1	-1E+10	1	-1E+10	1
4902554	91	C	08/15/2023	20:04	-132.753	47.871	0	161.70	0	5.7110	0	33.5710	0	26.461	0	160.282	0	-1e10	8	-1e10	8	-1E+10	1	-1E+10	1	-1E+10	1	-1E+10	1	-1E+10	1	-1E+10	1
4902554	91	C	08/15/2023	20:04	-132.753	47.871	0	162.60	0	5.7110	0	33.5710	0	26.461	0	161.174	0	-1e10	8	-1e10	8	-1E+10	1	-1E+10	1	-1E+10	1	-1E+10	1	-1E+10	1	-1E+10	1
4902554	91	C	08/15/2023	20:04	-132.753	47.871	0	163.90	0	5.7080	0	33.5750	0	26.464	0	162.462	0	-1e10	8	-1e10	8	-1E+10	1	-1E+10	1	-1E+10	1	-1E+10	1	-1E+10	1	-1E+10	1
4902554	91	C	08/15/2023	20:04	-132.753	47.871	0	165.30	0	5.7090	0	33.5820	0	26.470	0	163.849	0	-1e10	8	-1e10	8	-1E+10	1	-1E+10	1	-1E+10	1	-1E+10	1	-1E+10	1	-1E+10	1
4902554	91	C	08/15/2023	20:04	-132.753	47.871	0	166.20	0	5.7040	0	33.5970	0	26.482	0	164.741	0	-1e10	8	-1e10	8	-1E+10	1	-1E+10	1	-1E+10	1	-1E+10	1	-1E+10	1	-1E+10	1
4902554	91	C	08/15/2023	20:04	-132.753	47.871	0	167.10	0	5.6830	0	33.6120	0	26.497	0	165.633	0	-1e10	8	-1e10	8	-1E+10	1	-1E+10	1	-1E+10	1	-1E+10	1	-1E+10	1	-1E+10	1
4902554	91	C	08/15/2023	20:04	-132.753	47.871	0	168.00	0	5.6730	0	33.6140	0	26.499	0	166.524	0	-1e10	8	-1e10	8	-1E+10	1	-1E+10	1	-1E+10	1	-1E+10	1	-1E+10	1	-1E+10	1
4902554	91	C	08/15/2023	20:04	-132.753	47.871	0	168.80	0	5.6720	0	33.6160	0	26.501	0	167.317	0	-1e10	8	-1e10	8	-1E+10	1	-1E+10	1	-1E+10	1	-1E+10	1	-1E+10	1	-1E+10	1
4902554	91	C	08/15/2023	20:04	-132.753	47.871	0	169.80	0	5.6630	0	33.6220	0	26.507	0	168.308	0	-1e10	8	-1e10	8	-1E+10	1	-1E+10	1	-1E+10	1	-1E+10	1	-1E+10	1	-1E+10	1
4902554	91	C	08/15/2023	20:04	-132.753	47.871	0	170.60	0	5.6540	0	33.6320	0	26.516	0	169.101	0	-1e10	8	-1e10	8	-1E+10	1	-1E+10	1	-1E+10	1	-1E+10	1	-1E+10	1	-1E+10	1
4902554	91	C	08/15/2023	20:04	-132.753	47.871	0	172.00	0	5.6500	0	33.6360	0	26.520	0	170.488	0	-1e10	8	-1e10	8	-1E+10	1	-1E+10	1	-1E+10	1	-1E+10	1	-1E+10	1	-1E+10	1
4902554	91	C	08/15/2023	20:04	-132.753	47.871	0	173.30	0	5.6490	0	33.6400	0	26.523	0	171.776	0	-1e10	8	-1e10	8	-1E+10	1	-1E+10	1	-1E+10	1	-1E+10	1	-1E+10	1	-1E+10	1
4902554	91	C	08/15/2023	20:04	-132.753	47.871	0	174.20	0	5.6500	0	33.6390	0	26.522	0	172.667	0	-1e10	8	-1e10	8	-1E+10	1	-1E+10	1	-1E+10	1	-1E+10	1	-1E+10	1	-1E+10	1
4902554	91	C	08/15/2023	20:04	-132.753	47.871	0	175.10	0	5.6490	0	33.6400	0	26.523	0	173.559	0	-1e10	8	-1e10	8	-1E+10	1	-1E+10	1	-1E+10	1	-1E+10	1	-1E+10	1	-1E+10	1
4902554	91	C	08/15/2023	20:04	-132.753	47.871	0	176.00	0	5.6280	0	33.6470	0	26.531	0	174.451	0	-1e10	8	-1e10	8	-1E+10	1	-1E+10	1	-1E+10	1	-1E+10	1	-1E+10	1	-1E+10	1
4902554	91	C	08/15/2023	20:04	-132.753	47.871	0	176.80	0	5.6210	0	33.6480	0	26.533	0	175.243	0	-1e10	8	-1e10	8	-1E+10	1	-1E+10	1	-1E+10	1	-1E+10	1	-1E+10	1	-1E+10	1
4902554	91	C	08/15/2023	20:04	-132.753	47.871	0	177.70	0	5.6190	0	33.6480	0	26.533	0	176.135	0	-1e10	8	-1e10	8	-1E+10	1	-1E+10	1	-1E+10	1	-1E+10	1	-1E+10	1	-1E+10	1
4902554	91	C	08/15/2023	20:04	-132.753	47.871	0	178.50	0	5.6150	0	33.6480	0	26.533	0	176.928	0	-1e10	8	-1e10	8	-1E+10	1	-1E+10	1	-1E+10	1	-1E+10	1	-1E+10	1	-1E+10	1
4902554	91	C	08/15/2023	20:04	-132.753	47.871	0	179.90	0	5.5990	0	33.6540	0	26.540	0	178.315	0	-1e10	8	-1e10	8	-1E+10	1	-1E+10	1	-1E+10	1	-1E+10	1	-1E+10	1	-1E+10	1
4902554	91	C	08/15/2023	20:04	-132.753	47.871	0	181.30	0	5.5690	0	33.6660	0	26.553	0	179.702	0	-1e10	8	-1e10	8	-1E+10	1	-1E+10	1	-1E+10	1	-1E+10	1	-1E+10	1	-1E+10	1
4902554	91	C	08/15/2023	20:04	-132.753	47.871	0	182.20	0	5.5520	0	33.6790	0	26.566	0	180.594	0	-1e10	8	-1e10	8	-1E+10	1	-1E+10	1	-1E+10	1	-1E+10	1	-1E+10	1	-1E+10	1
4902554	91	C	08/15/2023	20:04	-132.753	47.871	0	183.10	0	5.5440	0	33.6780	0	26.566	0	181.485	0	-1e10	8	-1e10	8	-1E+10	1	-1E+10	1	-1E+10	1	-1E+10	1	-1E+10	1	-1E+10	1
4902554	91	C	08/15/2023	20:04	-132.753	47.871	0	184.00	0	5.5370	0	33.6800	0	26.568	0	182.377	0	-1e10	8	-1e10	8	-1E+10	1	-1E+10	1	-1E+10	1	-1E+10	1	-1E+10	1	-1E+10	1
4902554	91	C	08/15/2023	20:04	-132.753	47.871	0	185.00	0	5.5360	0	33.6820	0	26.570	0	183.368	0	-1e10	8	-1e10	8	-1E+10	1	-1E+10	1	-1E+10	1	-1E+10	1	-1E+10	1	-1E+10	1
4902554	91	C	08/15/2023	20:04	-132.753	47.871	0	185.90	0	5.5280	0	33.6850	0	26.573	0	184.259	0	-1e10	8	-1e10	8	-1E+10	1	-1E+10	1	-1E+10	1	-1E+10	1	-1E+10	1	-1E+10	1
4902554	91	C	08/15/2023	20:04	-132.753	47.871	0	186.80	0	5.5100	0	33.6960	0	26.584	0	185.151	0	-1e10	8	-1e10	8	-1E+10	1	-1E+10	1	-1E+10	1	-1E+10	1	-1E+10	1	-1E+10	1
4902554	91	C	08/15/2023	20:04	-132.753	47.871	0	187.70	0	5.4830	0	33.7040	0	26.594	0	186.043	0	-1e10	8	-1e10	8	-1E+10	1	-1E+10	1	-1E+10	1	-1E+10	1	-1E+10	1	-1E+10	1
4902554	91	C	08/15/2023	20:04	-132.753	47.871	0	188.70	0	5.4740	0	33.7070	0	26.597	0	187.033	0	-1e10	8	-1e10	8	-1E+10	1	-1E+10	1	-1E+10	1	-1E+10	1	-1E+10	1	-1E+10	1
4902554	91	C	08/15/2023	20:04	-132.753	47.871	0	189.70	0	5.4670	0	33.7090	0	26.599	0	188.024	0	-1e10	8	-1e10	8	-1E+10	1	-1E+10	1	-1E+10	1	-1E+10	1	-1E+10	1	-1E+10	1
4902554	91	C	08/15/2023	20:04	-132.753	47.871	0	190.70	0	5.4630	0	33.7110	0	26.602	0	189.015	0	-1e10	8	-1e10	8	-1E+10	1	-1E+10	1	-1E+10	1	-1E+10	1	-1E+10	1	-1E+10	1
4902554	91	C	08/15/2023	20:04	-132.753	47.871	0	191.60	0	5.4600	0	33.7120	0	26.603	0	189.906	0	-1e10	8	-1e10	8	-1E+10	1	-1E+10	1	-1E+10	1	-1E+10	1	-1E+10	1	-1E+10	1
4902554	91	C	08/15/2023	20:04	-132.753	47.871	0	192.60	0	5.4580	0	33.7140	0	26.605	0	190.897	0	-1e10	8	-1e10	8	-1E+10	1	-1E+10	1	-1E+10	1	-1E+10	1	-1E+10	1	-1E+10	1
4902554	91	C	08/15/2023	20:04	-132.753	47.871	0	193.60	0	5.4550	0	33.7160	0	26.606	0	191.888	0	-1e10	8	-1e10	8	-1E+10	1	-1E+10	1	-1E+10	1	-1E+10	1	-1E+10	1	-1E+10	1
4902554	91	C	08/15/2023	20:04	-132.753	47.871	0	194.60	0	5.4510	0	33.7170	0	26.608	0	192.878	0	-1e10	8	-1e10	8	-1E+10	1	-1E+10	1	-1E+10	1	-1E+10	1	-1E+10	1	-1E+10	1
4902554	91	C	08/15/2023	20:04	-132.753	47.871	0	195.60	0	5.4330	0	33.7220	0	26.614	0	193.869	0	-1e10	8	-1e10	8	-1E+10	1	-1E+10	1	-1E+10	1	-1E+10	1	-1E+10	1	-1E+10	1
4902554	91	C	08/15/2023	20:04	-132.753	47.871	0	196.60	0	5.4300	0	33.7210	0	26.613	0	194.860	0	-1e10	8	-1e10	8	-1E+10	1	-1E+10	1	-1E+10	1	-1E+10	1	-1E+10	1	-1E+10	1
4902554	91	C	08/15/2023	20:04	-132.753	47.871	0	197.50	0	5.4280	0	33.7210	0	26.614	0	195.751	0	-1e10	8	-1e10	8	-1E+10	1	-1E+10	1	-1E+10	1	-1E+10	1	-1E+10	1	-1E+10	1
4902554	91	C	08/15/2023	20:04	-132.753	47.871	0	198.50	0	5.4210	0	33.7210	0	26.614	0	196.742	0	-1e10	8	-1e10	8	-1E+10	1	-1E+10	1	-1E+10	1	-1E+10	1	-1E+10	1	-1E+10	1
4902554	91	C	08/15/2023	20:04	-132.753	47.871	0	199.50	0	5.4030	0	33.7240	0	26.619	0	197.733	0	-1e10	8	-1e10	8	-1E+10	1	-1E+10	1	-1E+10	1	-1E+10	1	-1E+10	1	-1E+10	1
4902554	91	C	08/15/2023	20:04	-132.753	47.871	0	200.50	0	5.4020	0	33.7250	0	26.620	0	198.723	0	-1e10	8	-1e10	8	-1E+10	1	-1E+10	1	-1E+10	1	-1E+10	1	-1E+10	1	-1E+10	1
4902554	91	C	08/15/2023	20:04	-132.753	47.871	0	201.50	0	5.3920	0	33.7280	0	26.623	0	199.714	0	-1e10	8	-1e10	8	-1E+10	1	-1E+10	1	-1E+10	1	-1E+10	1	-1E+10	1	-1E+10	1
4902554	91	C	08/15/2023	20:04	-132.753	47.871	0	202.50	0	5.3770	0	33.7340	0	26.630	0	200.705	0	-1e10	8	-1e10	8	-1E+10	1	-1E+10	1	-1E+10	1	-1E+10	1	-1E+10	1	-1E+10	1
4902554	91	C	08/15/2023	20:04	-132.753	47.871	0	203.60	0	5.3760	0	33.7340	0	26.630	0	201.794	0	-1e10	8	-1e10	8	-1E+10	1	-1E+10	1	-1E+10	1	-1E+10	1	-1E+10	1	-1E+10	1
4902554	91	C	08/15/2023	20:04	-132.753	47.871	0	204.60	0	5.3750	0	33.7340	0	26.630	0	202.785	0	-1e10	8	-1e10	8	-1E+10	1	-1E+10	1	-1E+10	1	-1E+10	1	-1E+10	1	-1E+10	1
4902554	91	C	08/15/2023	20:04	-132.753	47.871	0	205.60	0	5.3720	0	33.7360	0	26.632	0	203.776	0	-1e10	8	-1e10	8	-1E+10	1	-1E+10	1	-1E+10	1	-1E+10	1	-1E+10	1	-1E+10	1
4902554	91	C	08/15/2023	20:04	-132.753	47.871	0	206.60	0	5.3700	0	33.7390	0	26.635	0	204.766	0	-1e10	8	-1e10	8	-1E+10	1	-1E+10	1	-1E+10	1	-1E+10	1	-1E+10	1	-1E+10	1
4902554	91	C	08/15/2023	20:04	-132.753	47.871	0	207.50	0	5.3680	0	33.7400	0	26.636	0	205.658	0	-1e10	8	-1e10	8	-1E+10	1	-1E+10	1	-1E+10	1	-1E+10	1	-1E+10	1	-1E+10	1
4902554	91	C	08/15/2023	20:04	-132.753	47.871	0	208.90	0	5.3680	0	33.7390	0	26.635	0	207.045	0	-1e10	8	-1e10	8	-1E+10	1	-1E+10	1	-1E+10	1	-1E+10	1	-1E+10	1	-1E+10	1
4902554	91	C	08/15/2023	20:04	-132.753	47.871	0	210.10	0	5.3680	0	33.7400	0	26.636	0	208.233	0	-1e10	8	-1e10	8	-1E+10	1	-1E+10	1	-1E+10	1	-1E+10	1	-1E+10	1	-1E+10	1
4902554	91	C	08/15/2023	20:04	-132.753	47.871	0	210.90	0	5.3660	0	33.7400	0	26.636	0	209.026	0	-1e10	8	-1e10	8	-1E+10	1	-1E+10	1	-1E+10	1	-1E+10	1	-1E+10	1	-1E+10	1
4902554	91	C	08/15/2023	20:04	-132.753	47.871	0	211.70	0	5.3550	0	33.7420	0	26.639	0	209.818	0	-1e10	8	-1e10	8	-1E+10	1	-1E+10	1	-1E+10	1	-1E+10	1	-1E+10	1	-1E+10	1
4902554	91	C	08/15/2023	20:04	-132.753	47.871	0	212.90	0	5.3460	0	33.7440	0	26.642	0	211.007	0	-1e10	8	-1e10	8	-1E+10	1	-1E+10	1	-1E+10	1	-1E+10	1	-1E+10	1	-1E+10	1
4902554	91	C	08/15/2023	20:04	-132.753	47.871	0	214.10	0	5.3390	0	33.7450	0	26.643	0	212.196	0	-1e10	8	-1e10	8	-1E+10	1	-1E+10	1	-1E+10	1	-1E+10	1	-1E+10	1	-1E+10	1
4902554	91	C	08/15/2023	20:04	-132.753	47.871	0	214.90	0	5.3280	0	33.7480	0	26.647	0	212.988	0	-1e10	8	-1e10	8	-1E+10	1	-1E+10	1	-1E+10	1	-1E+10	1	-1E+10	1	-1E+10	1
4902554	91	C	08/15/2023	20:04	-132.753	47.871	0	215.80	0	5.3260	0	33.7490	0	26.648	0	213.880	0	-1e10	8	-1e10	8	-1E+10	1	-1E+10	1	-1E+10	1	-1E+10	1	-1E+10	1	-1E+10	1
4902554	91	C	08/15/2023	20:04	-132.753	47.871	0	216.60	0	5.3170	0	33.7510	0	26.651	0	214.672	0	-1e10	8	-1e10	8	-1E+10	1	-1E+10	1	-1E+10	1	-1E+10	1	-1E+10	1	-1E+10	1
4902554	91	C	08/15/2023	20:04	-132.753	47.871	0	217.90	0	5.3070	0	33.7520	0	26.653	0	215.960	0	-1e10	8	-1e10	8	-1E+10	1	-1E+10	1	-1E+10	1	-1E+10	1	-1E+10	1	-1E+10	1
4902554	91	C	08/15/2023	20:04	-132.753	47.871	0	219.20	0	5.3040	0	33.7520	0	26.653	0	217.248	0	-1e10	8	-1e10	8	-1E+10	1	-1E+10	1	-1E+10	1	-1E+10	1	-1E+10	1	-1E+10	1
4902554	91	C	08/15/2023	20:04	-132.753	47.871	0	220.10	0	5.2920	0	33.7540	0	26.656	0	218.139	0	-1e10	8	-1e10	8	-1E+10	1	-1E+10	1	-1E+10	1	-1E+10	1	-1E+10	1	-1E+10	1
4902554	91	C	08/15/2023	20:04	-132.753	47.871	0	220.90	0	5.2880	0	33.7540	0	26.656	0	218.932	0	-1e10	8	-1e10	8	-1E+10	1	-1E+10	1	-1E+10	1	-1E+10	1	-1E+10	1	-1E+10	1
4902554	91	C	08/15/2023	20:04	-132.753	47.871	0	221.80	0	5.2850	0	33.7540	0	26.657	0	219.823	0	-1e10	8	-1e10	8	-1E+10	1	-1E+10	1	-1E+10	1	-1E+10	1	-1E+10	1	-1E+10	1
4902554	91	C	08/15/2023	20:04	-132.753	47.871	0	222.70	0	5.2750	0	33.7550	0	26.659	0	220.715	0	-1e10	8	-1e10	8	-1E+10	1	-1E+10	1	-1E+10	1	-1E+10	1	-1E+10	1	-1E+10	1
4902554	91	C	08/15/2023	20:04	-132.753	47.871	0	223.60	0	5.2630	0	33.7580	0	26.663	0	221.606	0	-1e10	8	-1e10	8	-1E+10	1	-1E+10	1	-1E+10	1	-1E+10	1	-1E+10	1	-1E+10	1
4902554	91	C	08/15/2023	20:04	-132.753	47.871	0	224.90	0	5.2470	0	33.7600	0	26.666	0	222.894	0	-1e10	8	-1e10	8	-1E+10	1	-1E+10	1	-1E+10	1	-1E+10	1	-1E+10	1	-1E+10	1
4902554	91	C	08/15/2023	20:04	-132.753	47.871	0	226.30	0	5.2280	0	33.7640	0	26.671	0	224.281	0	-1e10	8	-1e10	8	-1E+10	1	-1E+10	1	-1E+10	1	-1E+10	1	-1E+10	1	-1E+10	1
4902554	91	C	08/15/2023	20:04	-132.753	47.871	0	227.30	0	5.2120	0	33.7660	0	26.675	0	225.271	0	-1e10	8	-1e10	8	-1E+10	1	-1E+10	1	-1E+10	1	-1E+10	1	-1E+10	1	-1E+10	1
4902554	91	C	08/15/2023	20:04	-132.753	47.871	0	228.20	0	5.2120	0	33.7660	0	26.675	0	226.163	0	-1e10	8	-1e10	8	-1E+10	1	-1E+10	1	-1E+10	1	-1E+10	1	-1E+10	1	-1E+10	1
4902554	91	C	08/15/2023	20:04	-132.753	47.871	0	229.10	0	5.2110	0	33.7670	0	26.676	0	227.054	0	-1e10	8	-1e10	8	-1E+10	1	-1E+10	1	-1E+10	1	-1E+10	1	-1E+10	1	-1E+10	1
4902554	91	C	08/15/2023	20:04	-132.753	47.871	0	230.00	0	5.2090	0	33.7670	0	26.676	0	227.946	0	-1e10	8	-1e10	8	-1E+10	1	-1E+10	1	-1E+10	1	-1E+10	1	-1E+10	1	-1E+10	1
4902554	91	C	08/15/2023	20:04	-132.753	47.871	0	230.90	0	5.2080	0	33.7670	0	26.676	0	228.837	0	-1e10	8	-1e10	8	-1E+10	1	-1E+10	1	-1E+10	1	-1E+10	1	-1E+10	1	-1E+10	1
4902554	91	C	08/15/2023	20:04	-132.753	47.871	0	231.90	0	5.2070	0	33.7670	0	26.676	0	229.828	0	-1e10	8	-1e10	8	-1E+10	1	-1E+10	1	-1E+10	1	-1E+10	1	-1E+10	1	-1E+10	1
4902554	91	C	08/15/2023	20:04	-132.753	47.871	0	232.80	0	5.2060	0	33.7670	0	26.676	0	230.719	0	-1e10	8	-1e10	8	-1E+10	1	-1E+10	1	-1E+10	1	-1E+10	1	-1E+10	1	-1E+10	1
4902554	91	C	08/15/2023	20:04	-132.753	47.871	0	233.70	0	5.2030	0	33.7670	0	26.677	0	231.611	0	-1e10	8	-1e10	8	-1E+10	1	-1E+10	1	-1E+10	1	-1E+10	1	-1E+10	1	-1E+10	1
4902554	91	C	08/15/2023	20:04	-132.753	47.871	0	234.70	0	5.1890	0	33.7700	0	26.681	0	232.601	0	-1e10	8	-1e10	8	-1E+10	1	-1E+10	1	-1E+10	1	-1E+10	1	-1E+10	1	-1E+10	1
4902554	91	C	08/15/2023	20:04	-132.753	47.871	0	235.60	0	5.1750	0	33.7720	0	26.684	0	233.493	0	-1e10	8	-1e10	8	-1E+10	1	-1E+10	1	-1E+10	1	-1E+10	1	-1E+10	1	-1E+10	1
4902554	91	C	08/15/2023	20:04	-132.753	47.871	0	236.50	0	5.1680	0	33.7740	0	26.686	0	234.384	0	-1e10	8	-1e10	8	-1E+10	1	-1E+10	1	-1E+10	1	-1E+10	1	-1E+10	1	-1E+10	1
4902554	91	C	08/15/2023	20:04	-132.753	47.871	0	237.50	0	5.1590	0	33.7740	0	26.687	0	235.374	0	-1e10	8	-1e10	8	-1E+10	1	-1E+10	1	-1E+10	1	-1E+10	1	-1E+10	1	-1E+10	1
4902554	91	C	08/15/2023	20:04	-132.753	47.871	0	238.60	0	5.1500	0	33.7740	0	26.688	0	236.464	0	-1e10	8	-1e10	8	-1E+10	1	-1E+10	1	-1E+10	1	-1E+10	1	-1E+10	1	-1E+10	1
4902554	91	C	08/15/2023	20:04	-132.753	47.871	0	239.90	0	5.1330	0	33.7760	0	26.692	0	237.752	0	-1e10	8	-1e10	8	-1E+10	1	-1E+10	1	-1E+10	1	-1E+10	1	-1E+10	1	-1E+10	1
4902554	91	C	08/15/2023	20:04	-132.753	47.871	0	241.40	0	5.1060	0	33.7790	0	26.697	0	239.237	0	-1e10	8	-1e10	8	-1E+10	1	-1E+10	1	-1E+10	1	-1E+10	1	-1E+10	1	-1E+10	1
4902554	91	C	08/15/2023	20:04	-132.753	47.871	0	242.30	0	5.0900	0	33.7800	0	26.700	0	240.129	0	-1e10	8	-1e10	8	-1E+10	1	-1E+10	1	-1E+10	1	-1E+10	1	-1E+10	1	-1E+10	1
4902554	91	C	08/15/2023	20:04	-132.753	47.871	0	243.30	0	5.0890	0	33.7800	0	26.700	0	241.119	0	-1e10	8	-1e10	8	-1E+10	1	-1E+10	1	-1E+10	1	-1E+10	1	-1E+10	1	-1E+10	1
4902554	91	C	08/15/2023	20:04	-132.753	47.871	0	244.20	0	5.0870	0	33.7800	0	26.700	0	242.011	0	-1e10	8	-1e10	8	-1E+10	1	-1E+10	1	-1E+10	1	-1E+10	1	-1E+10	1	-1E+10	1
4902554	91	C	08/15/2023	20:04	-132.753	47.871	0	245.20	0	5.0800	0	33.7810	0	26.702	0	243.001	0	-1e10	8	-1e10	8	-1E+10	1	-1E+10	1	-1E+10	1	-1E+10	1	-1E+10	1	-1E+10	1
4902554	91	C	08/15/2023	20:04	-132.753	47.871	0	246.10	0	5.0760	0	33.7810	0	26.702	0	243.892	0	-1e10	8	-1e10	8	-1E+10	1	-1E+10	1	-1E+10	1	-1E+10	1	-1E+10	1	-1E+10	1
4902554	91	C	08/15/2023	20:04	-132.753	47.871	0	247.10	0	5.0660	0	33.7820	0	26.704	0	244.883	0	-1e10	8	-1e10	8	-1E+10	1	-1E+10	1	-1E+10	1	-1E+10	1	-1E+10	1	-1E+10	1
4902554	91	C	08/15/2023	20:04	-132.753	47.871	0	248.00	0	5.0500	0	33.7840	0	26.708	0	245.774	0	-1e10	8	-1e10	8	-1E+10	1	-1E+10	1	-1E+10	1	-1E+10	1	-1E+10	1	-1E+10	1
4902554	91	C	08/15/2023	20:04	-132.753	47.871	0	248.90	0	5.0310	0	33.7860	0	26.712	0	246.666	0	-1e10	8	-1e10	8	-1E+10	1	-1E+10	1	-1E+10	1	-1E+10	1	-1E+10	1	-1E+10	1
4902554	91	C	08/15/2023	20:04	-132.753	47.871	0	249.90	0	5.0220	0	33.7900	0	26.716	0	247.656	0	-1e10	8	-1e10	8	-1E+10	1	-1E+10	1	-1E+10	1	-1E+10	1	-1E+10	1	-1E+10	1
4902554	91	C	08/15/2023	20:04	-132.753	47.871	0	250.90	0	5.0160	0	33.7880	0	26.715	0	248.646	0	-1e10	8	-1e10	8	-1E+10	1	-1E+10	1	-1E+10	1	-1E+10	1	-1E+10	1	-1E+10	1
4902554	91	C	08/15/2023	20:04	-132.753	47.871	0	251.80	0	5.0050	0	33.7890	0	26.717	0	249.538	0	-1e10	8	-1e10	8	-1E+10	1	-1E+10	1	-1E+10	1	-1E+10	1	-1E+10	1	-1E+10	1
4902554	91	C	08/15/2023	20:04	-132.753	47.871	0	252.80	0	5.0030	0	33.7890	0	26.717	0	250.528	0	-1e10	8	-1e10	8	-1E+10	1	-1E+10	1	-1E+10	1	-1E+10	1	-1E+10	1	-1E+10	1
4902554	91	C	08/15/2023	20:04	-132.753	47.871	0	253.80	0	4.9940	0	33.7910	0	26.720	0	251.519	0	-1e10	8	-1e10	8	-1E+10	1	-1E+10	1	-1E+10	1	-1E+10	1	-1E+10	1	-1E+10	1
4902554	91	C	08/15/2023	20:04	-132.753	47.871	0	254.70	0	4.9750	0	33.7940	0	26.724	0	252.410	0	-1e10	8	-1e10	8	-1E+10	1	-1E+10	1	-1E+10	1	-1E+10	1	-1E+10	1	-1E+10	1
4902554	91	C	08/15/2023	20:04	-132.753	47.871	0	255.70	0	4.9610	0	33.7930	0	26.725	0	253.400	0	-1e10	8	-1e10	8	-1E+10	1	-1E+10	1	-1E+10	1	-1E+10	1	-1E+10	1	-1E+10	1
4902554	91	C	08/15/2023	20:04	-132.753	47.871	0	256.70	0	4.9540	0	33.7940	0	26.727	0	254.391	0	-1e10	8	-1e10	8	-1E+10	1	-1E+10	1	-1E+10	1	-1E+10	1	-1E+10	1	-1E+10	1
4902554	91	C	08/15/2023	20:04	-132.753	47.871	0	257.60	0	4.9360	0	33.7960	0	26.730	0	255.282	0	-1e10	8	-1e10	8	-1E+10	1	-1E+10	1	-1E+10	1	-1E+10	1	-1E+10	1	-1E+10	1
4902554	91	C	08/15/2023	20:04	-132.753	47.871	0	258.60	0	4.9270	0	33.7960	0	26.731	0	256.273	0	-1e10	8	-1e10	8	-1E+10	1	-1E+10	1	-1E+10	1	-1E+10	1	-1E+10	1	-1E+10	1
4902554	91	C	08/15/2023	20:04	-132.753	47.871	0	259.60	0	4.9170	0	33.7960	0	26.732	0	257.263	0	-1e10	8	-1e10	8	-1E+10	1	-1E+10	1	-1E+10	1	-1E+10	1	-1E+10	1	-1E+10	1
4902554	91	C	08/15/2023	20:04	-132.753	47.871	0	260.60	0	4.9140	0	33.7960	0	26.733	0	258.253	0	-1e10	8	-1e10	8	-1E+10	1	-1E+10	1	-1E+10	1	-1E+10	1	-1E+10	1	-1E+10	1
4902554	91	C	08/15/2023	20:04	-132.753	47.871	0	261.50	0	4.9090	0	33.7970	0	26.734	0	259.145	0	-1e10	8	-1e10	8	-1E+10	1	-1E+10	1	-1E+10	1	-1E+10	1	-1E+10	1	-1E+10	1
4902554	91	C	08/15/2023	20:04	-132.753	47.871	0	262.50	0	4.8930	0	33.7980	0	26.737	0	260.135	0	-1e10	8	-1e10	8	-1E+10	1	-1E+10	1	-1E+10	1	-1E+10	1	-1E+10	1	-1E+10	1
4902554	91	C	08/15/2023	20:04	-132.753	47.871	0	263.50	0	4.8780	0	33.8000	0	26.740	0	261.125	0	-1e10	8	-1e10	8	-1E+10	1	-1E+10	1	-1E+10	1	-1E+10	1	-1E+10	1	-1E+10	1
4902554	91	C	08/15/2023	20:04	-132.753	47.871	0	264.50	0	4.8740	0	33.8010	0	26.741	0	262.116	0	-1e10	8	-1e10	8	-1E+10	1	-1E+10	1	-1E+10	1	-1E+10	1	-1E+10	1	-1E+10	1
4902554	91	C	08/15/2023	20:04	-132.753	47.871	0	265.90	0	4.8660	0	33.8010	0	26.742	0	263.502	0	-1e10	8	-1e10	8	-1E+10	1	-1E+10	1	-1E+10	1	-1E+10	1	-1E+10	1	-1E+10	1
4902554	91	C	08/15/2023	20:04	-132.753	47.871	0	267.40	0	4.8530	0	33.8030	0	26.745	0	264.988	0	-1e10	8	-1e10	8	-1E+10	1	-1E+10	1	-1E+10	1	-1E+10	1	-1E+10	1	-1E+10	1
4902554	91	C	08/15/2023	20:04	-132.753	47.871	0	268.40	0	4.8480	0	33.8020	0	26.745	0	265.978	0	-1e10	8	-1e10	8	-1E+10	1	-1E+10	1	-1E+10	1	-1E+10	1	-1E+10	1	-1E+10	1
4902554	91	C	08/15/2023	20:04	-132.753	47.871	0	269.40	0	4.8400	0	33.8020	0	26.746	0	266.968	0	-1e10	8	-1e10	8	-1E+10	1	-1E+10	1	-1E+10	1	-1E+10	1	-1E+10	1	-1E+10	1
4902554	91	C	08/15/2023	20:04	-132.753	47.871	0	270.40	0	4.8300	0	33.8030	0	26.748	0	267.959	0	-1e10	8	-1e10	8	-1E+10	1	-1E+10	1	-1E+10	1	-1E+10	1	-1E+10	1	-1E+10	1
4902554	91	C	08/15/2023	20:04	-132.753	47.871	0	271.40	0	4.8090	0	33.8040	0	26.751	0	268.949	0	-1e10	8	-1e10	8	-1E+10	1	-1E+10	1	-1E+10	1	-1E+10	1	-1E+10	1	-1E+10	1
4902554	91	C	08/15/2023	20:04	-132.753	47.871	0	272.30	0	4.8050	0	33.8040	0	26.751	0	269.840	0	-1e10	8	-1e10	8	-1E+10	1	-1E+10	1	-1E+10	1	-1E+10	1	-1E+10	1	-1E+10	1
4902554	91	C	08/15/2023	20:04	-132.753	47.871	0	273.30	0	4.8000	0	33.8050	0	26.753	0	270.831	0	-1e10	8	-1e10	8	-1E+10	1	-1E+10	1	-1E+10	1	-1E+10	1	-1E+10	1	-1E+10	1
4902554	91	C	08/15/2023	20:04	-132.753	47.871	0	274.30	0	4.7960	0	33.8070	0	26.755	0	271.821	0	-1e10	8	-1e10	8	-1E+10	1	-1E+10	1	-1E+10	1	-1E+10	1	-1E+10	1	-1E+10	1
4902554	91	C	08/15/2023	20:04	-132.753	47.871	0	275.30	0	4.7900	0	33.8060	0	26.755	0	272.811	0	-1e10	8	-1e10	8	-1E+10	1	-1E+10	1	-1E+10	1	-1E+10	1	-1E+10	1	-1E+10	1
4902554	91	C	08/15/2023	20:04	-132.753	47.871	0	276.30	0	4.7870	0	33.8060	0	26.755	0	273.802	0	-1e10	8	-1e10	8	-1E+10	1	-1E+10	1	-1E+10	1	-1E+10	1	-1E+10	1	-1E+10	1
4902554	91	C	08/15/2023	20:04	-132.753	47.871	0	277.30	0	4.7820	0	33.8070	0	26.756	0	274.792	0	-1e10	8	-1e10	8	-1E+10	1	-1E+10	1	-1E+10	1	-1E+10	1	-1E+10	1	-1E+10	1
4902554	91	C	08/15/2023	20:04	-132.753	47.871	0	278.30	0	4.7760	0	33.8080	0	26.758	0	275.782	0	-1e10	8	-1e10	8	-1E+10	1	-1E+10	1	-1E+10	1	-1E+10	1	-1E+10	1	-1E+10	1
4902554	91	C	08/15/2023	20:04	-132.753	47.871	0	279.30	0	4.7690	0	33.8080	0	26.759	0	276.772	0	-1e10	8	-1e10	8	-1E+10	1	-1E+10	1	-1E+10	1	-1E+10	1	-1E+10	1	-1E+10	1
4902554	91	C	08/15/2023	20:04	-132.753	47.871	0	280.30	0	4.7560	0	33.8110	0	26.762	0	277.763	0	-1e10	8	-1e10	8	-1E+10	1	-1E+10	1	-1E+10	1	-1E+10	1	-1E+10	1	-1E+10	1
4902554	91	C	08/15/2023	20:04	-132.753	47.871	0	281.30	0	4.7490	0	33.8120	0	26.764	0	278.753	0	-1e10	8	-1e10	8	-1E+10	1	-1E+10	1	-1E+10	1	-1E+10	1	-1E+10	1	-1E+10	1
4902554	91	C	08/15/2023	20:04	-132.753	47.871	0	282.30	0	4.7470	0	33.8120	0	26.764	0	279.743	0	-1e10	8	-1e10	8	-1E+10	1	-1E+10	1	-1E+10	1	-1E+10	1	-1E+10	1	-1E+10	1
4902554	91	C	08/15/2023	20:04	-132.753	47.871	0	283.20	0	4.7440	0	33.8120	0	26.765	0	280.634	0	-1e10	8	-1e10	8	-1E+10	1	-1E+10	1	-1E+10	1	-1E+10	1	-1E+10	1	-1E+10	1
4902554	91	C	08/15/2023	20:04	-132.753	47.871	0	284.20	0	4.7390	0	33.8130	0	26.766	0	281.625	0	-1e10	8	-1e10	8	-1E+10	1	-1E+10	1	-1E+10	1	-1E+10	1	-1E+10	1	-1E+10	1
4902554	91	C	08/15/2023	20:04	-132.753	47.871	0	285.20	0	4.7380	0	33.8130	0	26.766	0	282.615	0	-1e10	8	-1e10	8	-1E+10	1	-1E+10	1	-1E+10	1	-1E+10	1	-1E+10	1	-1E+10	1
4902554	91	C	08/15/2023	20:04	-132.753	47.871	0	286.20	0	4.7340	0	33.8130	0	26.767	0	283.605	0	-1e10	8	-1e10	8	-1E+10	1	-1E+10	1	-1E+10	1	-1E+10	1	-1E+10	1	-1E+10	1
4902554	91	C	08/15/2023	20:04	-132.753	47.871	0	287.20	0	4.7320	0	33.8140	0	26.768	0	284.596	0	-1e10	8	-1e10	8	-1E+10	1	-1E+10	1	-1E+10	1	-1E+10	1	-1E+10	1	-1E+10	1
4902554	91	C	08/15/2023	20:04	-132.753	47.871	0	288.20	0	4.7280	0	33.8150	0	26.769	0	285.586	0	-1e10	8	-1e10	8	-1E+10	1	-1E+10	1	-1E+10	1	-1E+10	1	-1E+10	1	-1E+10	1
4902554	91	C	08/15/2023	20:04	-132.753	47.871	0	289.10	0	4.7250	0	33.8150	0	26.769	0	286.477	0	-1e10	8	-1e10	8	-1E+10	1	-1E+10	1	-1E+10	1	-1E+10	1	-1E+10	1	-1E+10	1
4902554	91	C	08/15/2023	20:04	-132.753	47.871	0	290.10	0	4.7220	0	33.8140	0	26.769	0	287.467	0	-1e10	8	-1e10	8	-1E+10	1	-1E+10	1	-1E+10	1	-1E+10	1	-1E+10	1	-1E+10	1
4902554	91	C	08/15/2023	20:04	-132.753	47.871	0	291.10	0	4.7200	0	33.8140	0	26.769	0	288.457	0	-1e10	8	-1e10	8	-1E+10	1	-1E+10	1	-1E+10	1	-1E+10	1	-1E+10	1	-1E+10	1
4902554	91	C	08/15/2023	20:04	-132.753	47.871	0	292.10	0	4.7120	0	33.8160	0	26.771	0	289.448	0	-1e10	8	-1e10	8	-1E+10	1	-1E+10	1	-1E+10	1	-1E+10	1	-1E+10	1	-1E+10	1
4902554	91	C	08/15/2023	20:04	-132.753	47.871	0	293.00	0	4.7090	0	33.8150	0	26.771	0	290.339	0	-1e10	8	-1e10	8	-1E+10	1	-1E+10	1	-1E+10	1	-1E+10	1	-1E+10	1	-1E+10	1
4902554	91	C	08/15/2023	20:04	-132.753	47.871	0	294.00	0	4.6990	0	33.8170	0	26.774	0	291.329	0	-1e10	8	-1e10	8	-1E+10	1	-1E+10	1	-1E+10	1	-1E+10	1	-1E+10	1	-1E+10	1
4902554	91	C	08/15/2023	20:04	-132.753	47.871	0	295.00	0	4.6820	0	33.8210	0	26.779	0	292.319	0	-1e10	8	-1e10	8	-1E+10	1	-1E+10	1	-1E+10	1	-1E+10	1	-1E+10	1	-1E+10	1
4902554	91	C	08/15/2023	20:04	-132.753	47.871	0	296.00	0	4.6810	0	33.8210	0	26.779	0	293.309	0	-1e10	8	-1e10	8	-1E+10	1	-1E+10	1	-1E+10	1	-1E+10	1	-1E+10	1	-1E+10	1
4902554	91	C	08/15/2023	20:04	-132.753	47.871	0	296.90	0	4.6800	0	33.8210	0	26.779	0	294.201	0	-1e10	8	-1e10	8	-1E+10	1	-1E+10	1	-1E+10	1	-1E+10	1	-1E+10	1	-1E+10	1
4902554	91	C	08/15/2023	20:04	-132.753	47.871	0	297.90	0	4.6710	0	33.8240	0	26.782	0	295.191	0	-1e10	8	-1e10	8	-1E+10	1	-1E+10	1	-1E+10	1	-1E+10	1	-1E+10	1	-1E+10	1
4902554	91	C	08/15/2023	20:04	-132.753	47.871	0	298.80	0	4.6710	0	33.8230	0	26.781	0	296.082	0	-1e10	8	-1e10	8	-1E+10	1	-1E+10	1	-1E+10	1	-1E+10	1	-1E+10	1	-1E+10	1
4902554	91	C	08/15/2023	20:04	-132.753	47.871	0	299.80	0	4.6710	0	33.8230	0	26.781	0	297.072	0	-1e10	8	-1e10	8	-1E+10	1	-1E+10	1	-1E+10	1	-1E+10	1	-1E+10	1	-1E+10	1
4902554	91	C	08/15/2023	20:04	-132.753	47.871	0	300.80	0	4.6710	0	33.8230	0	26.781	0	298.062	0	-1e10	8	-1e10	8	-1E+10	1	-1E+10	1	-1E+10	1	-1E+10	1	-1E+10	1	-1E+10	1
4902554	91	C	08/15/2023	20:04	-132.753	47.871	0	301.70	0	4.6710	0	33.8230	0	26.781	0	298.954	0	-1e10	8	-1e10	8	-1E+10	1	-1E+10	1	-1E+10	1	-1E+10	1	-1E+10	1	-1E+10	1
4902554	91	C	08/15/2023	20:04	-132.753	47.871	0	302.70	0	4.6720	0	33.8230	0	26.781	0	299.944	0	-1e10	8	-1e10	8	-1E+10	1	-1E+10	1	-1E+10	1	-1E+10	1	-1E+10	1	-1E+10	1
4902554	91	C	08/15/2023	20:04	-132.753	47.871	0	303.70	0	4.6720	0	33.8230	0	26.781	0	300.934	0	-1e10	8	-1e10	8	-1E+10	1	-1E+10	1	-1E+10	1	-1E+10	1	-1E+10	1	-1E+10	1
4902554	91	C	08/15/2023	20:04	-132.753	47.871	0	304.60	0	4.6710	0	33.8230	0	26.782	0	301.825	0	-1e10	8	-1e10	8	-1E+10	1	-1E+10	1	-1E+10	1	-1E+10	1	-1E+10	1	-1E+10	1
4902554	91	C	08/15/2023	20:04	-132.753	47.871	0	305.60	0	4.6710	0	33.8230	0	26.782	0	302.815	0	-1e10	8	-1e10	8	-1E+10	1	-1E+10	1	-1E+10	1	-1E+10	1	-1E+10	1	-1E+10	1
4902554	91	C	08/15/2023	20:04	-132.753	47.871	0	306.50	0	4.6700	0	33.8230	0	26.782	0	303.706	0	-1e10	8	-1e10	8	-1E+10	1	-1E+10	1	-1E+10	1	-1E+10	1	-1E+10	1	-1E+10	1
4902554	91	C	08/15/2023	20:04	-132.753	47.871	0	307.90	0	4.6690	0	33.8230	0	26.782	0	305.093	0	-1e10	8	-1e10	8	-1E+10	1	-1E+10	1	-1E+10	1	-1E+10	1	-1E+10	1	-1E+10	1
4902554	91	C	08/15/2023	20:04	-132.753	47.871	0	309.40	0	4.6560	0	33.8270	0	26.786	0	306.578	0	-1e10	8	-1e10	8	-1E+10	1	-1E+10	1	-1E+10	1	-1E+10	1	-1E+10	1	-1E+10	1
4902554	91	C	08/15/2023	20:04	-132.753	47.871	0	310.30	0	4.6450	0	33.8290	0	26.789	0	307.469	0	-1e10	8	-1e10	8	-1E+10	1	-1E+10	1	-1E+10	1	-1E+10	1	-1E+10	1	-1E+10	1
4902554	91	C	08/15/2023	20:04	-132.753	47.871	0	311.30	0	4.6420	0	33.8290	0	26.789	0	308.459	0	-1e10	8	-1e10	8	-1E+10	1	-1E+10	1	-1E+10	1	-1E+10	1	-1E+10	1	-1E+10	1
4902554	91	C	08/15/2023	20:04	-132.753	47.871	0	312.20	0	4.6410	0	33.8290	0	26.790	0	309.350	0	-1e10	8	-1e10	8	-1E+10	1	-1E+10	1	-1E+10	1	-1E+10	1	-1E+10	1	-1E+10	1
4902554	91	C	08/15/2023	20:04	-132.753	47.871	0	313.20	0	4.6390	0	33.8290	0	26.790	0	310.340	0	-1e10	8	-1e10	8	-1E+10	1	-1E+10	1	-1E+10	1	-1E+10	1	-1E+10	1	-1E+10	1
4902554	91	C	08/15/2023	20:04	-132.753	47.871	0	314.10	0	4.6370	0	33.8300	0	26.791	0	311.231	0	-1e10	8	-1e10	8	-1E+10	1	-1E+10	1	-1E+10	1	-1E+10	1	-1E+10	1	-1E+10	1
4902554	91	C	08/15/2023	20:04	-132.753	47.871	0	315.10	0	4.6340	0	33.8300	0	26.791	0	312.221	0	-1e10	8	-1e10	8	-1E+10	1	-1E+10	1	-1E+10	1	-1E+10	1	-1E+10	1	-1E+10	1
4902554	91	C	08/15/2023	20:04	-132.753	47.871	0	316.00	0	4.6290	0	33.8320	0	26.793	0	313.113	0	-1e10	8	-1e10	8	-1E+10	1	-1E+10	1	-1E+10	1	-1E+10	1	-1E+10	1	-1E+10	1
4902554	91	C	08/15/2023	20:04	-132.753	47.871	0	317.00	0	4.6290	0	33.8320	0	26.793	0	314.103	0	-1e10	8	-1e10	8	-1E+10	1	-1E+10	1	-1E+10	1	-1E+10	1	-1E+10	1	-1E+10	1
4902554	91	C	08/15/2023	20:04	-132.753	47.871	0	317.90	0	4.6300	0	33.8320	0	26.793	0	314.994	0	-1e10	8	-1e10	8	-1E+10	1	-1E+10	1	-1E+10	1	-1E+10	1	-1E+10	1	-1E+10	1
4902554	91	C	08/15/2023	20:04	-132.753	47.871	0	318.80	0	4.6180	0	33.8350	0	26.797	0	315.885	0	-1e10	8	-1e10	8	-1E+10	1	-1E+10	1	-1E+10	1	-1E+10	1	-1E+10	1	-1E+10	1
4902554	91	C	08/15/2023	20:04	-132.753	47.871	0	319.80	0	4.6080	0	33.8370	0	26.800	0	316.875	0	-1e10	8	-1e10	8	-1E+10	1	-1E+10	1	-1E+10	1	-1E+10	1	-1E+10	1	-1E+10	1
4902554	91	C	08/15/2023	20:04	-132.753	47.871	0	320.70	0	4.6070	0	33.8370	0	26.800	0	317.766	0	-1e10	8	-1e10	8	-1E+10	1	-1E+10	1	-1E+10	1	-1E+10	1	-1E+10	1	-1E+10	1
4902554	91	C	08/15/2023	20:04	-132.753	47.871	0	321.60	0	4.6070	0	33.8370	0	26.800	0	318.657	0	-1e10	8	-1e10	8	-1E+10	1	-1E+10	1	-1E+10	1	-1E+10	1	-1E+10	1	-1E+10	1
4902554	91	C	08/15/2023	20:04	-132.753	47.871	0	322.50	0	4.6050	0	33.8380	0	26.801	0	319.548	0	-1e10	8	-1e10	8	-1E+10	1	-1E+10	1	-1E+10	1	-1E+10	1	-1E+10	1	-1E+10	1
4902554	91	C	08/15/2023	20:04	-132.753	47.871	0	323.90	0	4.6010	0	33.8390	0	26.802	0	320.934	0	-1e10	8	-1e10	8	-1E+10	1	-1E+10	1	-1E+10	1	-1E+10	1	-1E+10	1	-1E+10	1
4902554	91	C	08/15/2023	20:04	-132.753	47.871	0	325.30	0	4.5990	0	33.8400	0	26.803	0	322.320	0	-1e10	8	-1e10	8	-1E+10	1	-1E+10	1	-1E+10	1	-1E+10	1	-1E+10	1	-1E+10	1
4902554	91	C	08/15/2023	20:04	-132.753	47.871	0	326.20	0	4.5970	0	33.8400	0	26.803	0	323.211	0	-1e10	8	-1e10	8	-1E+10	1	-1E+10	1	-1E+10	1	-1E+10	1	-1E+10	1	-1E+10	1
4902554	91	C	08/15/2023	20:04	-132.753	47.871	0	327.20	0	4.5940	0	33.8410	0	26.804	0	324.201	0	-1e10	8	-1e10	8	-1E+10	1	-1E+10	1	-1E+10	1	-1E+10	1	-1E+10	1	-1E+10	1
4902554	91	C	08/15/2023	20:04	-132.753	47.871	0	328.10	0	4.5900	0	33.8420	0	26.806	0	325.093	0	-1e10	8	-1e10	8	-1E+10	1	-1E+10	1	-1E+10	1	-1E+10	1	-1E+10	1	-1E+10	1
4902554	91	C	08/15/2023	20:04	-132.753	47.871	0	329.00	0	4.5890	0	33.8420	0	26.806	0	325.984	0	-1e10	8	-1e10	8	-1E+10	1	-1E+10	1	-1E+10	1	-1E+10	1	-1E+10	1	-1E+10	1
4902554	91	C	08/15/2023	20:04	-132.753	47.871	0	329.90	0	4.5840	0	33.8440	0	26.808	0	326.875	0	-1e10	8	-1e10	8	-1E+10	1	-1E+10	1	-1E+10	1	-1E+10	1	-1E+10	1	-1E+10	1
4902554	91	C	08/15/2023	20:04	-132.753	47.871	0	330.80	0	4.5770	0	33.8460	0	26.810	0	327.766	0	-1e10	8	-1e10	8	-1E+10	1	-1E+10	1	-1E+10	1	-1E+10	1	-1E+10	1	-1E+10	1
4902554	91	C	08/15/2023	20:04	-132.753	47.871	0	331.70	0	4.5740	0	33.8460	0	26.811	0	328.657	0	-1e10	8	-1e10	8	-1E+10	1	-1E+10	1	-1E+10	1	-1E+10	1	-1E+10	1	-1E+10	1
4902554	91	C	08/15/2023	20:04	-132.753	47.871	0	332.60	0	4.5730	0	33.8460	0	26.811	0	329.548	0	-1e10	8	-1e10	8	-1E+10	1	-1E+10	1	-1E+10	1	-1E+10	1	-1E+10	1	-1E+10	1
4902554	91	C	08/15/2023	20:04	-132.753	47.871	0	333.90	0	4.5700	0	33.8460	0	26.811	0	330.835	0	-1e10	8	-1e10	8	-1E+10	1	-1E+10	1	-1E+10	1	-1E+10	1	-1E+10	1	-1E+10	1
4902554	91	C	08/15/2023	20:04	-132.753	47.871	0	335.30	0	4.5670	0	33.8490	0	26.814	0	332.221	0	-1e10	8	-1e10	8	-1E+10	1	-1E+10	1	-1E+10	1	-1E+10	1	-1E+10	1	-1E+10	1
4902554	91	C	08/15/2023	20:04	-132.753	47.871	0	336.20	0	4.5650	0	33.8500	0	26.815	0	333.112	0	-1e10	8	-1e10	8	-1E+10	1	-1E+10	1	-1E+10	1	-1E+10	1	-1E+10	1	-1E+10	1
4902554	91	C	08/15/2023	20:04	-132.753	47.871	0	337.10	0	4.5640	0	33.8510	0	26.816	0	334.003	0	-1e10	8	-1e10	8	-1E+10	1	-1E+10	1	-1E+10	1	-1E+10	1	-1E+10	1	-1E+10	1
4902554	91	C	08/15/2023	20:04	-132.753	47.871	0	338.00	0	4.5610	0	33.8520	0	26.817	0	334.894	0	-1e10	8	-1e10	8	-1E+10	1	-1E+10	1	-1E+10	1	-1E+10	1	-1E+10	1	-1E+10	1
4902554	91	C	08/15/2023	20:04	-132.753	47.871	0	338.90	0	4.5580	0	33.8520	0	26.817	0	335.785	0	-1e10	8	-1e10	8	-1E+10	1	-1E+10	1	-1E+10	1	-1E+10	1	-1E+10	1	-1E+10	1
4902554	91	C	08/15/2023	20:04	-132.753	47.871	0	339.80	0	4.5520	0	33.8550	0	26.820	0	336.676	0	-1e10	8	-1e10	8	-1E+10	1	-1E+10	1	-1E+10	1	-1E+10	1	-1E+10	1	-1E+10	1
4902554	91	C	08/15/2023	20:04	-132.753	47.871	0	340.70	0	4.5500	0	33.8600	0	26.824	0	337.567	0	-1e10	8	-1e10	8	-1E+10	1	-1E+10	1	-1E+10	1	-1E+10	1	-1E+10	1	-1E+10	1
4902554	91	C	08/15/2023	20:04	-132.753	47.871	0	341.60	0	4.5440	0	33.8650	0	26.829	0	338.458	0	-1e10	8	-1e10	8	-1E+10	1	-1E+10	1	-1E+10	1	-1E+10	1	-1E+10	1	-1E+10	1
4902554	91	C	08/15/2023	20:04	-132.753	47.871	0	342.90	0	4.5420	0	33.8660	0	26.830	0	339.745	0	-1e10	8	-1e10	8	-1E+10	1	-1E+10	1	-1E+10	1	-1E+10	1	-1E+10	1	-1E+10	1
4902554	91	C	08/15/2023	20:04	-132.753	47.871	0	344.30	0	4.5360	0	33.8690	0	26.833	0	341.131	0	-1e10	8	-1e10	8	-1E+10	1	-1E+10	1	-1E+10	1	-1E+10	1	-1E+10	1	-1E+10	1
4902554	91	C	08/15/2023	20:04	-132.753	47.871	0	345.20	0	4.5370	0	33.8690	0	26.833	0	342.022	0	-1e10	8	-1e10	8	-1E+10	1	-1E+10	1	-1E+10	1	-1E+10	1	-1E+10	1	-1E+10	1
4902554	91	C	08/15/2023	20:04	-132.753	47.871	0	346.00	0	4.5290	0	33.8710	0	26.835	0	342.814	0	-1e10	8	-1e10	8	-1E+10	1	-1E+10	1	-1E+10	1	-1E+10	1	-1E+10	1	-1E+10	1
4902554	91	C	08/15/2023	20:04	-132.753	47.871	0	346.90	0	4.5200	0	33.8720	0	26.837	0	343.705	0	-1e10	8	-1e10	8	-1E+10	1	-1E+10	1	-1E+10	1	-1E+10	1	-1E+10	1	-1E+10	1
4902554	91	C	08/15/2023	20:04	-132.753	47.871	0	347.80	0	4.5230	0	33.8750	0	26.839	0	344.596	0	-1e10	8	-1e10	8	-1E+10	1	-1E+10	1	-1E+10	1	-1E+10	1	-1E+10	1	-1E+10	1
4902554	91	C	08/15/2023	20:04	-132.753	47.871	0	348.70	0	4.5180	0	33.8760	0	26.841	0	345.487	0	-1e10	8	-1e10	8	-1E+10	1	-1E+10	1	-1E+10	1	-1E+10	1	-1E+10	1	-1E+10	1
4902554	91	C	08/15/2023	20:04	-132.753	47.871	0	349.90	0	4.4960	0	33.8770	0	26.844	0	346.674	0	-1e10	8	-1e10	8	-1E+10	1	-1E+10	1	-1E+10	1	-1E+10	1	-1E+10	1	-1E+10	1
4902554	91	C	08/15/2023	20:04	-132.753	47.871	0	353.10	0	4.4840	0	33.8820	0	26.849	0	349.842	0	-1e10	8	-1e10	8	-1E+10	1	-1E+10	1	-1E+10	1	-1E+10	1	-1E+10	1	-1E+10	1
4902554	91	C	08/15/2023	20:04	-132.753	47.871	0	357.90	0	4.4660	0	33.8900	0	26.857	0	354.594	0	-1e10	8	-1e10	8	-1E+10	1	-1E+10	1	-1E+10	1	-1E+10	1	-1E+10	1	-1E+10	1
4902554	91	C	08/15/2023	20:04	-132.753	47.871	0	363.10	0	4.4630	0	33.9010	0	26.866	0	359.741	0	-1e10	8	-1e10	8	-1E+10	1	-1E+10	1	-1E+10	1	-1E+10	1	-1E+10	1	-1E+10	1
4902554	91	C	08/15/2023	20:04	-132.753	47.871	0	368.20	0	4.4470	0	33.9090	0	26.874	0	364.790	0	-1e10	8	-1e10	8	-1E+10	1	-1E+10	1	-1E+10	1	-1E+10	1	-1E+10	1	-1E+10	1
4902554	91	C	08/15/2023	20:04	-132.753	47.871	0	373.20	0	4.4300	0	33.9140	0	26.880	0	369.739	0	-1e10	8	-1e10	8	-1E+10	1	-1E+10	1	-1E+10	1	-1E+10	1	-1E+10	1	-1E+10	1
4902554	91	C	08/15/2023	20:04	-132.753	47.871	0	378.20	0	4.3770	0	33.9190	0	26.890	0	374.688	0	-1e10	8	-1e10	8	-1E+10	1	-1E+10	1	-1E+10	1	-1E+10	1	-1E+10	1	-1E+10	1
4902554	91	C	08/15/2023	20:04	-132.753	47.871	0	382.90	0	4.3440	0	33.9230	0	26.897	0	379.340	0	-1e10	8	-1e10	8	-1E+10	1	-1E+10	1	-1E+10	1	-1E+10	1	-1E+10	1	-1E+10	1
4902554	91	C	08/15/2023	20:04	-132.753	47.871	0	387.70	0	4.3190	0	33.9270	0	26.903	0	384.091	0	-1e10	8	-1e10	8	-1E+10	1	-1E+10	1	-1E+10	1	-1E+10	1	-1E+10	1	-1E+10	1
4902554	91	C	08/15/2023	20:04	-132.753	47.871	0	393.00	0	4.3020	0	33.9370	0	26.912	0	389.337	0	-1e10	8	-1e10	8	-1E+10	1	-1E+10	1	-1E+10	1	-1E+10	1	-1E+10	1	-1E+10	1
4902554	91	C	08/15/2023	20:04	-132.753	47.871	0	398.10	0	4.2930	0	33.9450	0	26.920	0	394.384	0	-1e10	8	-1e10	8	-1E+10	1	-1E+10	1	-1E+10	1	-1E+10	1	-1E+10	1	-1E+10	1
4902554	91	C	08/15/2023	20:04	-132.753	47.871	0	402.70	0	4.2860	0	33.9470	0	26.922	0	398.937	0	-1e10	8	-1e10	8	-1E+10	1	-1E+10	1	-1E+10	1	-1E+10	1	-1E+10	1	-1E+10	1
4902554	91	C	08/15/2023	20:04	-132.753	47.871	0	407.80	0	4.2860	0	33.9540	0	26.928	0	403.984	0	-1e10	8	-1e10	8	-1E+10	1	-1E+10	1	-1E+10	1	-1E+10	1	-1E+10	1	-1E+10	1
4902554	91	C	08/15/2023	20:04	-132.753	47.871	0	413.00	0	4.2660	0	33.9620	0	26.936	0	409.131	0	-1e10	8	-1e10	8	-1E+10	1	-1E+10	1	-1E+10	1	-1E+10	1	-1E+10	1	-1E+10	1
4902554	91	C	08/15/2023	20:04	-132.753	47.871	0	418.10	0	4.2530	0	33.9740	0	26.947	0	414.178	0	-1e10	8	-1e10	8	-1E+10	1	-1E+10	1	-1E+10	1	-1E+10	1	-1E+10	1	-1E+10	1
4902554	91	C	08/15/2023	20:04	-132.753	47.871	0	422.90	0	4.2430	0	33.9810	0	26.954	0	418.928	0	-1e10	8	-1e10	8	-1E+10	1	-1E+10	1	-1E+10	1	-1E+10	1	-1E+10	1	-1E+10	1
4902554	91	C	08/15/2023	20:04	-132.753	47.871	0	428.00	0	4.2390	0	33.9870	0	26.959	0	423.975	0	-1e10	8	-1e10	8	-1E+10	1	-1E+10	1	-1E+10	1	-1E+10	1	-1E+10	1	-1E+10	1
4902554	91	C	08/15/2023	20:04	-132.753	47.871	0	433.20	0	4.2370	0	33.9940	0	26.965	0	429.120	0	-1e10	8	-1e10	8	-1E+10	1	-1E+10	1	-1E+10	1	-1E+10	1	-1E+10	1	-1E+10	1
4902554	91	C	08/15/2023	20:04	-132.753	47.871	0	438.10	0	4.2370	0	34.0000	0	26.970	0	433.969	0	-1e10	8	-1e10	8	-1E+10	1	-1E+10	1	-1E+10	1	-1E+10	1	-1E+10	1	-1E+10	1
4902554	91	C	08/15/2023	20:04	-132.753	47.871	0	443.00	0	4.2390	0	34.0080	0	26.976	0	438.818	0	-1e10	8	-1e10	8	-1E+10	1	-1E+10	1	-1E+10	1	-1E+10	1	-1E+10	1	-1E+10	1
4902554	91	C	08/15/2023	20:04	-132.753	47.871	0	448.00	0	4.2390	0	34.0240	0	26.988	0	443.765	0	-1e10	8	-1e10	8	-1E+10	1	-1E+10	1	-1E+10	1	-1E+10	1	-1E+10	1	-1E+10	1
4902554	91	C	08/15/2023	20:04	-132.753	47.871	0	452.80	0	4.2210	0	34.0300	0	26.995	0	448.515	0	-1e10	8	-1e10	8	-1E+10	1	-1E+10	1	-1E+10	1	-1E+10	1	-1E+10	1	-1E+10	1
4902554	91	C	08/15/2023	20:04	-132.753	47.871	0	457.60	0	4.2160	0	34.0340	0	26.999	0	453.264	0	-1e10	8	-1e10	8	-1E+10	1	-1E+10	1	-1E+10	1	-1E+10	1	-1E+10	1	-1E+10	1
4902554	91	C	08/15/2023	20:04	-132.753	47.871	0	462.50	0	4.2080	0	34.0380	0	27.003	0	458.112	0	-1e10	8	-1e10	8	-1E+10	1	-1E+10	1	-1E+10	1	-1E+10	1	-1E+10	1	-1E+10	1
4902554	91	C	08/15/2023	20:04	-132.753	47.871	0	467.50	0	4.1960	0	34.0420	0	27.007	0	463.059	0	-1e10	8	-1e10	8	-1E+10	1	-1E+10	1	-1E+10	1	-1E+10	1	-1E+10	1	-1E+10	1
4902554	91	C	08/15/2023	20:04	-132.753	47.871	0	472.50	0	4.1800	0	34.0470	0	27.013	0	468.006	0	-1e10	8	-1e10	8	-1E+10	1	-1E+10	1	-1E+10	1	-1E+10	1	-1E+10	1	-1E+10	1
4902554	91	C	08/15/2023	20:04	-132.753	47.871	0	477.60	0	4.1480	0	34.0490	0	27.018	0	473.052	0	-1e10	8	-1e10	8	-1E+10	1	-1E+10	1	-1E+10	1	-1E+10	1	-1E+10	1	-1E+10	1
4902554	91	C	08/15/2023	20:04	-132.753	47.871	0	482.70	0	4.1440	0	34.0520	0	27.021	0	478.097	0	-1e10	8	-1e10	8	-1E+10	1	-1E+10	1	-1E+10	1	-1E+10	1	-1E+10	1	-1E+10	1
4902554	91	C	08/15/2023	20:04	-132.753	47.871	0	487.90	0	4.1440	0	34.0560	0	27.024	0	483.242	0	-1e10	8	-1e10	8	-1E+10	1	-1E+10	1	-1E+10	1	-1E+10	1	-1E+10	1	-1E+10	1
4902554	91	C	08/15/2023	20:04	-132.753	47.871	0	493.20	0	4.1380	0	34.0610	0	27.029	0	488.485	0	-1e10	8	-1e10	8	-1E+10	1	-1E+10	1	-1E+10	1	-1E+10	1	-1E+10	1	-1E+10	1
4902554	91	C	08/15/2023	20:04	-132.753	47.871	0	498.00	0	4.1450	0	34.0690	0	27.034	0	493.233	0	-1e10	8	-1e10	8	-1E+10	1	-1E+10	1	-1E+10	1	-1E+10	1	-1E+10	1	-1E+10	1
4902554	91	C	08/15/2023	20:04	-132.753	47.871	0	502.70	0	4.1350	0	34.0700	0	27.036	0	497.883	0	-1e10	8	-1e10	8	-1E+10	1	-1E+10	1	-1E+10	1	-1E+10	1	-1E+10	1	-1E+10	1
4902554	91	C	08/15/2023	20:04	-132.753	47.871	0	508.00	0	4.1270	0	34.0730	0	27.040	0	503.125	0	-1e10	8	-1e10	8	-1E+10	1	-1E+10	1	-1E+10	1	-1E+10	1	-1E+10	1	-1E+10	1
4902554	91	C	08/15/2023	20:04	-132.753	47.871	0	513.30	0	4.1240	0	34.0790	0	27.045	0	508.368	0	-1e10	8	-1e10	8	-1E+10	1	-1E+10	1	-1E+10	1	-1E+10	1	-1E+10	1	-1E+10	1
4902554	91	C	08/15/2023	20:04	-132.753	47.871	0	518.00	0	4.1140	0	34.0830	0	27.049	0	513.017	0	-1e10	8	-1e10	8	-1E+10	1	-1E+10	1	-1E+10	1	-1E+10	1	-1E+10	1	-1E+10	1
4902554	91	C	08/15/2023	20:04	-132.753	47.871	0	522.70	0	4.1130	0	34.0880	0	27.053	0	517.666	0	-1e10	8	-1e10	8	-1E+10	1	-1E+10	1	-1E+10	1	-1E+10	1	-1E+10	1	-1E+10	1
4902554	91	C	08/15/2023	20:04	-132.753	47.871	0	527.90	0	4.1090	0	34.0900	0	27.055	0	522.809	0	-1e10	8	-1e10	8	-1E+10	1	-1E+10	1	-1E+10	1	-1E+10	1	-1E+10	1	-1E+10	1
4902554	91	C	08/15/2023	20:04	-132.753	47.871	0	533.20	0	4.0990	0	34.0960	0	27.061	0	528.052	0	-1e10	8	-1e10	8	-1E+10	1	-1E+10	1	-1E+10	1	-1E+10	1	-1E+10	1	-1E+10	1
4902554	91	C	08/15/2023	20:04	-132.753	47.871	0	537.90	0	4.0880	0	34.0980	0	27.064	0	532.700	0	-1e10	8	-1e10	8	-1E+10	1	-1E+10	1	-1E+10	1	-1E+10	1	-1E+10	1	-1E+10	1
4902554	91	C	08/15/2023	20:04	-132.753	47.871	0	542.50	0	4.0790	0	34.1050	0	27.070	0	537.250	0	-1e10	8	-1e10	8	-1E+10	1	-1E+10	1	-1E+10	1	-1E+10	1	-1E+10	1	-1E+10	1
4902554	91	C	08/15/2023	20:04	-132.753	47.871	0	547.60	0	4.0770	0	34.1080	0	27.073	0	542.294	0	-1e10	8	-1e10	8	-1E+10	1	-1E+10	1	-1E+10	1	-1E+10	1	-1E+10	1	-1E+10	1
4902554	91	C	08/15/2023	20:04	-132.753	47.871	0	552.70	0	4.0700	0	34.1140	0	27.078	0	547.338	0	-1e10	8	-1e10	8	-1E+10	1	-1E+10	1	-1E+10	1	-1E+10	1	-1E+10	1	-1E+10	1
4902554	91	C	08/15/2023	20:04	-132.753	47.871	0	557.90	0	4.0500	0	34.1180	0	27.084	0	552.480	0	-1e10	8	-1e10	8	-1E+10	1	-1E+10	1	-1E+10	1	-1E+10	1	-1E+10	1	-1E+10	1
4902554	91	C	08/15/2023	20:04	-132.753	47.871	0	563.00	0	4.0220	0	34.1250	0	27.092	0	557.524	0	-1e10	8	-1e10	8	-1E+10	1	-1E+10	1	-1E+10	1	-1E+10	1	-1E+10	1	-1E+10	1
4902554	91	C	08/15/2023	20:04	-132.753	47.871	0	568.20	0	4.0190	0	34.1320	0	27.098	0	562.666	0	-1e10	8	-1e10	8	-1E+10	1	-1E+10	1	-1E+10	1	-1E+10	1	-1E+10	1	-1E+10	1
4902554	91	C	08/15/2023	20:04	-132.753	47.871	0	572.90	0	3.9990	0	34.1370	0	27.104	0	567.314	0	-1e10	8	-1e10	8	-1E+10	1	-1E+10	1	-1E+10	1	-1E+10	1	-1E+10	1	-1E+10	1
4902554	91	C	08/15/2023	20:04	-132.753	47.871	0	577.60	0	3.9750	0	34.1390	0	27.108	0	571.962	0	-1e10	8	-1e10	8	-1E+10	1	-1E+10	1	-1E+10	1	-1E+10	1	-1E+10	1	-1E+10	1
4902554	91	C	08/15/2023	20:04	-132.753	47.871	0	582.70	0	3.9490	0	34.1400	0	27.112	0	577.005	0	-1e10	8	-1e10	8	-1E+10	1	-1E+10	1	-1E+10	1	-1E+10	1	-1E+10	1	-1E+10	1
4902554	91	C	08/15/2023	20:04	-132.753	47.871	0	587.80	0	3.9410	0	34.1440	0	27.116	0	582.048	0	-1e10	8	-1e10	8	-1E+10	1	-1E+10	1	-1E+10	1	-1E+10	1	-1E+10	1	-1E+10	1
4902554	91	C	08/15/2023	20:04	-132.753	47.871	0	592.80	0	3.9290	0	34.1490	0	27.121	0	586.992	0	-1e10	8	-1e10	8	-1E+10	1	-1E+10	1	-1E+10	1	-1E+10	1	-1E+10	1	-1E+10	1
4902554	91	C	08/15/2023	20:04	-132.753	47.871	0	597.60	0	3.9160	0	34.1530	0	27.125	0	591.738	0	-1e10	8	-1e10	8	-1E+10	1	-1E+10	1	-1E+10	1	-1E+10	1	-1E+10	1	-1E+10	1
4902554	91	C	08/15/2023	20:04	-132.753	47.871	0	602.60	0	3.9100	0	34.1550	0	27.128	0	596.682	0	-1e10	8	-1e10	8	-1E+10	1	-1E+10	1	-1E+10	1	-1E+10	1	-1E+10	1	-1E+10	1
4902554	91	C	08/15/2023	20:04	-132.753	47.871	0	607.60	0	3.9040	0	34.1570	0	27.130	0	601.626	0	-1e10	8	-1e10	8	-1E+10	1	-1E+10	1	-1E+10	1	-1E+10	1	-1E+10	1	-1E+10	1
4902554	91	C	08/15/2023	20:04	-132.753	47.871	0	612.70	0	3.8900	0	34.1610	0	27.134	0	606.668	0	-1e10	8	-1e10	8	-1E+10	1	-1E+10	1	-1E+10	1	-1E+10	1	-1E+10	1	-1E+10	1
4902554	91	C	08/15/2023	20:04	-132.753	47.871	0	618.00	0	3.8710	0	34.1650	0	27.140	0	611.908	0	-1e10	8	-1e10	8	-1E+10	1	-1E+10	1	-1E+10	1	-1E+10	1	-1E+10	1	-1E+10	1
4902554	91	C	08/15/2023	20:04	-132.753	47.871	0	623.00	0	3.8580	0	34.1690	0	27.144	0	616.851	0	-1e10	8	-1e10	8	-1E+10	1	-1E+10	1	-1E+10	1	-1E+10	1	-1E+10	1	-1E+10	1
4902554	91	C	08/15/2023	20:04	-132.753	47.871	0	627.70	0	3.8530	0	34.1720	0	27.147	0	621.498	0	-1e10	8	-1e10	8	-1E+10	1	-1E+10	1	-1E+10	1	-1E+10	1	-1E+10	1	-1E+10	1
4902554	91	C	08/15/2023	20:04	-132.753	47.871	0	632.90	0	3.8520	0	34.1770	0	27.151	0	626.639	0	-1e10	8	-1e10	8	-1E+10	1	-1E+10	1	-1E+10	1	-1E+10	1	-1E+10	1	-1E+10	1
4902554	91	C	08/15/2023	20:04	-132.753	47.871	0	638.30	0	3.8520	0	34.1830	0	27.156	0	631.977	0	-1e10	8	-1e10	8	-1E+10	1	-1E+10	1	-1E+10	1	-1E+10	1	-1E+10	1	-1E+10	1
4902554	91	C	08/15/2023	20:04	-132.753	47.871	0	643.30	0	3.8470	0	34.1890	0	27.161	0	636.920	0	-1e10	8	-1e10	8	-1E+10	1	-1E+10	1	-1E+10	1	-1E+10	1	-1E+10	1	-1E+10	1
4902554	91	C	08/15/2023	20:04	-132.753	47.871	0	647.80	0	3.8510	0	34.1920	0	27.163	0	641.369	0	-1e10	8	-1e10	8	-1E+10	1	-1E+10	1	-1E+10	1	-1E+10	1	-1E+10	1	-1E+10	1
4902554	91	C	08/15/2023	20:04	-132.753	47.871	0	652.50	0	3.8430	0	34.1950	0	27.167	0	646.015	0	-1e10	8	-1e10	8	-1E+10	1	-1E+10	1	-1E+10	1	-1E+10	1	-1E+10	1	-1E+10	1
4902554	91	C	08/15/2023	20:04	-132.753	47.871	0	657.80	0	3.8240	0	34.2030	0	27.175	0	651.254	0	-1e10	8	-1e10	8	-1E+10	1	-1E+10	1	-1E+10	1	-1E+10	1	-1E+10	1	-1E+10	1
4902554	91	C	08/15/2023	20:04	-132.753	47.871	0	663.20	0	3.8180	0	34.2090	0	27.180	0	656.591	0	-1e10	8	-1e10	8	-1E+10	1	-1E+10	1	-1E+10	1	-1E+10	1	-1E+10	1	-1E+10	1
4902554	91	C	08/15/2023	20:04	-132.753	47.871	0	668.00	0	3.8130	0	34.2160	0	27.186	0	661.336	0	-1e10	8	-1e10	8	-1E+10	1	-1E+10	1	-1E+10	1	-1E+10	1	-1E+10	1	-1E+10	1
4902554	91	C	08/15/2023	20:04	-132.753	47.871	0	673.00	0	3.8090	0	34.2170	0	27.188	0	666.278	0	-1e10	8	-1e10	8	-1E+10	1	-1E+10	1	-1E+10	1	-1E+10	1	-1E+10	1	-1E+10	1
4902554	91	C	08/15/2023	20:04	-132.753	47.871	0	677.90	0	3.8010	0	34.2200	0	27.191	0	671.121	0	-1e10	8	-1e10	8	-1E+10	1	-1E+10	1	-1E+10	1	-1E+10	1	-1E+10	1	-1E+10	1
4902554	91	C	08/15/2023	20:04	-132.753	47.871	0	683.00	0	3.7940	0	34.2220	0	27.193	0	676.162	0	-1e10	8	-1e10	8	-1E+10	1	-1E+10	1	-1E+10	1	-1E+10	1	-1E+10	1	-1E+10	1
4902554	91	C	08/15/2023	20:04	-132.753	47.871	0	688.00	0	3.7820	0	34.2250	0	27.197	0	681.104	0	-1e10	8	-1e10	8	-1E+10	1	-1E+10	1	-1E+10	1	-1E+10	1	-1E+10	1	-1E+10	1
4902554	91	C	08/15/2023	20:04	-132.753	47.871	0	693.00	0	3.7740	0	34.2270	0	27.199	0	686.045	0	-1e10	8	-1e10	8	-1E+10	1	-1E+10	1	-1E+10	1	-1E+10	1	-1E+10	1	-1E+10	1
4902554	91	C	08/15/2023	20:04	-132.753	47.871	0	697.90	0	3.7620	0	34.2300	0	27.203	0	690.888	0	-1e10	8	-1e10	8	-1E+10	1	-1E+10	1	-1E+10	1	-1E+10	1	-1E+10	1	-1E+10	1
4902554	91	C	08/15/2023	20:04	-132.753	47.871	0	702.70	0	3.7580	0	34.2310	0	27.204	0	695.632	0	-1e10	8	-1e10	8	-1E+10	1	-1E+10	1	-1E+10	1	-1E+10	1	-1E+10	1	-1E+10	1
4902554	91	C	08/15/2023	20:04	-132.753	47.871	0	708.10	0	3.7510	0	34.2330	0	27.206	0	700.969	0	-1e10	8	-1e10	8	-1E+10	1	-1E+10	1	-1E+10	1	-1E+10	1	-1E+10	1	-1E+10	1
4902554	91	C	08/15/2023	20:04	-132.753	47.871	0	713.00	0	3.7420	0	34.2370	0	27.210	0	705.811	0	-1e10	8	-1e10	8	-1E+10	1	-1E+10	1	-1E+10	1	-1E+10	1	-1E+10	1	-1E+10	1
4902554	91	C	08/15/2023	20:04	-132.753	47.871	0	717.80	0	3.7300	0	34.2390	0	27.213	0	710.554	0	-1e10	8	-1e10	8	-1E+10	1	-1E+10	1	-1E+10	1	-1E+10	1	-1E+10	1	-1E+10	1
4902554	91	C	08/15/2023	20:04	-132.753	47.871	0	723.20	0	3.7260	0	34.2410	0	27.215	0	715.891	0	-1e10	8	-1e10	8	-1E+10	1	-1E+10	1	-1E+10	1	-1E+10	1	-1E+10	1	-1E+10	1
4902554	91	C	08/15/2023	20:04	-132.753	47.871	0	728.10	0	3.7200	0	34.2430	0	27.218	0	720.733	0	-1e10	8	-1e10	8	-1E+10	1	-1E+10	1	-1E+10	1	-1E+10	1	-1E+10	1	-1E+10	1
4902554	91	C	08/15/2023	20:04	-132.753	47.871	0	732.90	0	3.7130	0	34.2460	0	27.221	0	725.476	0	-1e10	8	-1e10	8	-1E+10	1	-1E+10	1	-1E+10	1	-1E+10	1	-1E+10	1	-1E+10	1
4902554	91	C	08/15/2023	20:04	-132.753	47.871	0	737.80	0	3.7040	0	34.2510	0	27.226	0	730.317	0	-1e10	8	-1e10	8	-1E+10	1	-1E+10	1	-1E+10	1	-1E+10	1	-1E+10	1	-1E+10	1
4902554	91	C	08/15/2023	20:04	-132.753	47.871	0	742.60	0	3.6990	0	34.2560	0	27.230	0	735.060	0	-1e10	8	-1e10	8	-1E+10	1	-1E+10	1	-1E+10	1	-1E+10	1	-1E+10	1	-1E+10	1
4902554	91	C	08/15/2023	20:04	-132.753	47.871	0	747.80	0	3.6860	0	34.2600	0	27.235	0	740.198	0	-1e10	8	-1e10	8	-1E+10	1	-1E+10	1	-1E+10	1	-1E+10	1	-1E+10	1	-1E+10	1
4902554	91	C	08/15/2023	20:04	-132.753	47.871	0	753.00	0	3.6750	0	34.2630	0	27.238	0	745.336	0	-1e10	8	-1e10	8	-1E+10	1	-1E+10	1	-1E+10	1	-1E+10	1	-1E+10	1	-1E+10	1
4902554	91	C	08/15/2023	20:04	-132.753	47.871	0	758.20	0	3.6480	0	34.2650	0	27.242	0	750.474	0	-1e10	8	-1e10	8	-1E+10	1	-1E+10	1	-1E+10	1	-1E+10	1	-1E+10	1	-1E+10	1
4902554	91	C	08/15/2023	20:04	-132.753	47.871	0	762.80	0	3.5930	0	34.2650	0	27.248	0	755.019	0	-1e10	8	-1e10	8	-1E+10	1	-1E+10	1	-1E+10	1	-1E+10	1	-1E+10	1	-1E+10	1
4902554	91	C	08/15/2023	20:04	-132.753	47.871	0	767.50	0	3.5770	0	34.2690	0	27.252	0	759.662	0	-1e10	8	-1e10	8	-1E+10	1	-1E+10	1	-1E+10	1	-1E+10	1	-1E+10	1	-1E+10	1
4902554	91	C	08/15/2023	20:04	-132.753	47.871	0	772.50	0	3.5500	0	34.2690	0	27.255	0	764.602	0	-1e10	8	-1e10	8	-1E+10	1	-1E+10	1	-1E+10	1	-1E+10	1	-1E+10	1	-1E+10	1
4902554	91	C	08/15/2023	20:04	-132.753	47.871	0	777.90	0	3.5220	0	34.2720	0	27.260	0	769.937	0	-1e10	8	-1e10	8	-1E+10	1	-1E+10	1	-1E+10	1	-1E+10	1	-1E+10	1	-1E+10	1
4902554	91	C	08/15/2023	20:04	-132.753	47.871	0	783.30	0	3.4710	0	34.2750	0	27.268	0	775.272	0	-1e10	8	-1e10	8	-1E+10	1	-1E+10	1	-1E+10	1	-1E+10	1	-1E+10	1	-1E+10	1
4902554	91	C	08/15/2023	20:04	-132.753	47.871	0	788.20	0	3.4550	0	34.2780	0	27.271	0	780.112	0	-1e10	8	-1e10	8	-1E+10	1	-1E+10	1	-1E+10	1	-1E+10	1	-1E+10	1	-1E+10	1
4902554	91	C	08/15/2023	20:04	-132.753	47.871	0	793.00	0	3.4380	0	34.2820	0	27.276	0	784.854	0	-1e10	8	-1e10	8	-1E+10	1	-1E+10	1	-1E+10	1	-1E+10	1	-1E+10	1	-1E+10	1
4902554	91	C	08/15/2023	20:04	-132.753	47.871	0	798.00	0	3.4090	0	34.2860	0	27.282	0	789.793	0	-1e10	8	-1e10	8	-1E+10	1	-1E+10	1	-1E+10	1	-1E+10	1	-1E+10	1	-1E+10	1
4902554	91	C	08/15/2023	20:04	-132.753	47.871	0	803.10	0	3.3790	0	34.2910	0	27.289	0	794.831	0	-1e10	8	-1e10	8	-1E+10	1	-1E+10	1	-1E+10	1	-1E+10	1	-1E+10	1	-1E+10	1
4902554	91	C	08/15/2023	20:04	-132.753	47.871	0	807.90	0	3.3610	0	34.2950	0	27.294	0	799.572	0	-1e10	8	-1e10	8	-1E+10	1	-1E+10	1	-1E+10	1	-1E+10	1	-1E+10	1	-1E+10	1
4902554	91	C	08/15/2023	20:04	-132.753	47.871	0	812.90	0	3.3510	0	34.2970	0	27.297	0	804.511	0	-1e10	8	-1e10	8	-1E+10	1	-1E+10	1	-1E+10	1	-1E+10	1	-1E+10	1	-1E+10	1
4902554	91	C	08/15/2023	20:04	-132.753	47.871	0	817.90	0	3.3420	0	34.2990	0	27.299	0	809.450	0	-1e10	8	-1e10	8	-1E+10	1	-1E+10	1	-1E+10	1	-1E+10	1	-1E+10	1	-1E+10	1
4902554	91	C	08/15/2023	20:04	-132.753	47.871	0	823.00	0	3.3300	0	34.3010	0	27.302	0	814.487	0	-1e10	8	-1e10	8	-1E+10	1	-1E+10	1	-1E+10	1	-1E+10	1	-1E+10	1	-1E+10	1
4902554	91	C	08/15/2023	20:04	-132.753	47.871	0	827.90	0	3.3120	0	34.3050	0	27.307	0	819.327	0	-1e10	8	-1e10	8	-1E+10	1	-1E+10	1	-1E+10	1	-1E+10	1	-1E+10	1	-1E+10	1
4902554	91	C	08/15/2023	20:04	-132.753	47.871	0	833.00	0	3.3030	0	34.3070	0	27.309	0	824.364	0	-1e10	8	-1e10	8	-1E+10	1	-1E+10	1	-1E+10	1	-1E+10	1	-1E+10	1	-1E+10	1
4902554	91	C	08/15/2023	20:04	-132.753	47.871	0	838.10	0	3.2920	0	34.3090	0	27.312	0	829.401	0	-1e10	8	-1e10	8	-1E+10	1	-1E+10	1	-1E+10	1	-1E+10	1	-1E+10	1	-1E+10	1
4902554	91	C	08/15/2023	20:04	-132.753	47.871	0	843.00	0	3.2760	0	34.3140	0	27.317	0	834.240	0	-1e10	8	-1e10	8	-1E+10	1	-1E+10	1	-1E+10	1	-1E+10	1	-1E+10	1	-1E+10	1
4902554	91	C	08/15/2023	20:04	-132.753	47.871	0	847.90	0	3.2610	0	34.3170	0	27.321	0	839.080	0	-1e10	8	-1e10	8	-1E+10	1	-1E+10	1	-1E+10	1	-1E+10	1	-1E+10	1	-1E+10	1
4902554	91	C	08/15/2023	20:04	-132.753	47.871	0	852.90	0	3.2480	0	34.3200	0	27.325	0	844.018	0	-1e10	8	-1e10	8	-1E+10	1	-1E+10	1	-1E+10	1	-1E+10	1	-1E+10	1	-1E+10	1
4902554	91	C	08/15/2023	20:04	-132.753	47.871	0	857.90	0	3.2390	0	34.3220	0	27.327	0	848.955	0	-1e10	8	-1e10	8	-1E+10	1	-1E+10	1	-1E+10	1	-1E+10	1	-1E+10	1	-1E+10	1
4902554	91	C	08/15/2023	20:04	-132.753	47.871	0	862.90	0	3.2290	0	34.3250	0	27.331	0	853.893	0	-1e10	8	-1e10	8	-1E+10	1	-1E+10	1	-1E+10	1	-1E+10	1	-1E+10	1	-1E+10	1
4902554	91	C	08/15/2023	20:04	-132.753	47.871	0	868.10	0	3.2220	0	34.3260	0	27.332	0	859.028	0	-1e10	8	-1e10	8	-1E+10	1	-1E+10	1	-1E+10	1	-1E+10	1	-1E+10	1	-1E+10	1
4902554	91	C	08/15/2023	20:04	-132.753	47.871	0	873.10	0	3.2150	0	34.3280	0	27.334	0	863.966	0	-1e10	8	-1e10	8	-1E+10	1	-1E+10	1	-1E+10	1	-1E+10	1	-1E+10	1	-1E+10	1
4902554	91	C	08/15/2023	20:04	-132.753	47.871	0	877.80	0	3.2090	0	34.3290	0	27.336	0	868.607	0	-1e10	8	-1e10	8	-1E+10	1	-1E+10	1	-1E+10	1	-1E+10	1	-1E+10	1	-1E+10	1
4902554	91	C	08/15/2023	20:04	-132.753	47.871	0	882.70	0	3.2040	0	34.3310	0	27.338	0	873.445	0	-1e10	8	-1e10	8	-1E+10	1	-1E+10	1	-1E+10	1	-1E+10	1	-1E+10	1	-1E+10	1
4902554	91	C	08/15/2023	20:04	-132.753	47.871	0	887.70	0	3.1990	0	34.3320	0	27.339	0	878.382	0	-1e10	8	-1e10	8	-1E+10	1	-1E+10	1	-1E+10	1	-1E+10	1	-1E+10	1	-1E+10	1
4902554	91	C	08/15/2023	20:04	-132.753	47.871	0	892.80	0	3.1920	0	34.3330	0	27.341	0	883.418	0	-1e10	8	-1e10	8	-1E+10	1	-1E+10	1	-1E+10	1	-1E+10	1	-1E+10	1	-1E+10	1
4902554	91	C	08/15/2023	20:04	-132.753	47.871	0	898.00	0	3.1890	0	34.3340	0	27.342	0	888.552	0	-1e10	8	-1e10	8	-1E+10	1	-1E+10	1	-1E+10	1	-1E+10	1	-1E+10	1	-1E+10	1
4902554	91	C	08/15/2023	20:04	-132.753	47.871	0	902.80	0	3.1870	0	34.3350	0	27.343	0	893.291	0	-1e10	8	-1e10	8	-1E+10	1	-1E+10	1	-1E+10	1	-1E+10	1	-1E+10	1	-1E+10	1
4902554	91	C	08/15/2023	20:04	-132.753	47.871	0	907.70	0	3.1810	0	34.3360	0	27.344	0	898.129	0	-1e10	8	-1e10	8	-1E+10	1	-1E+10	1	-1E+10	1	-1E+10	1	-1E+10	1	-1E+10	1
4902554	91	C	08/15/2023	20:04	-132.753	47.871	0	912.50	0	3.1770	0	34.3370	0	27.345	0	902.868	0	-1e10	8	-1e10	8	-1E+10	1	-1E+10	1	-1E+10	1	-1E+10	1	-1E+10	1	-1E+10	1
4902554	91	C	08/15/2023	20:04	-132.753	47.871	0	917.90	0	3.1720	0	34.3380	0	27.347	0	908.200	0	-1e10	8	-1e10	8	-1E+10	1	-1E+10	1	-1E+10	1	-1E+10	1	-1E+10	1	-1E+10	1
4902554	91	C	08/15/2023	20:04	-132.753	47.871	0	923.40	0	3.1710	0	34.3390	0	27.348	0	913.630	0	-1e10	8	-1e10	8	-1E+10	1	-1E+10	1	-1E+10	1	-1E+10	1	-1E+10	1	-1E+10	1
4902554	91	C	08/15/2023	20:04	-132.753	47.871	0	927.90	0	3.1700	0	34.3390	0	27.348	0	918.072	0	-1e10	8	-1e10	8	-1E+10	1	-1E+10	1	-1E+10	1	-1E+10	1	-1E+10	1	-1E+10	1
4902554	91	C	08/15/2023	20:04	-132.753	47.871	0	932.50	0	3.1670	0	34.3400	0	27.349	0	922.613	0	-1e10	8	-1e10	8	-1E+10	1	-1E+10	1	-1E+10	1	-1E+10	1	-1E+10	1	-1E+10	1
4902554	91	C	08/15/2023	20:04	-132.753	47.871	0	937.50	0	3.1630	0	34.3400	0	27.349	0	927.549	0	-1e10	8	-1e10	8	-1E+10	1	-1E+10	1	-1E+10	1	-1E+10	1	-1E+10	1	-1E+10	1
4902554	91	C	08/15/2023	20:04	-132.753	47.871	0	942.70	0	3.1610	0	34.3410	0	27.350	0	932.682	0	-1e10	8	-1e10	8	-1E+10	1	-1E+10	1	-1E+10	1	-1E+10	1	-1E+10	1	-1E+10	1
4902554	91	C	08/15/2023	20:04	-132.753	47.871	0	947.80	0	3.1560	0	34.3420	0	27.352	0	937.717	0	-1e10	8	-1e10	8	-1E+10	1	-1E+10	1	-1E+10	1	-1E+10	1	-1E+10	1	-1E+10	1
4902554	91	C	08/15/2023	20:04	-132.753	47.871	0	952.90	0	3.1540	0	34.3430	0	27.353	0	942.751	0	-1e10	8	-1e10	8	-1E+10	1	-1E+10	1	-1E+10	1	-1E+10	1	-1E+10	1	-1E+10	1
4902554	91	C	08/15/2023	20:04	-132.753	47.871	0	958.00	0	3.1530	0	34.3430	0	27.353	0	947.785	0	-1e10	8	-1e10	8	-1E+10	1	-1E+10	1	-1E+10	1	-1E+10	1	-1E+10	1	-1E+10	1
4902554	91	C	08/15/2023	20:04	-132.753	47.871	0	963.10	0	3.1520	0	34.3440	0	27.354	0	952.819	0	-1e10	8	-1e10	8	-1E+10	1	-1E+10	1	-1E+10	1	-1E+10	1	-1E+10	1	-1E+10	1
4902554	91	C	08/15/2023	20:04	-132.753	47.871	0	968.20	0	3.1470	0	34.3450	0	27.355	0	957.853	0	-1e10	8	-1e10	8	-1E+10	1	-1E+10	1	-1E+10	1	-1E+10	1	-1E+10	1	-1E+10	1
4902554	91	C	08/15/2023	20:04	-132.753	47.871	0	973.20	0	3.1410	0	34.3460	0	27.356	0	962.788	0	-1e10	8	-1e10	8	-1E+10	1	-1E+10	1	-1E+10	1	-1E+10	1	-1E+10	1	-1E+10	1
4902554	91	C	08/15/2023	20:04	-132.753	47.871	0	978.20	0	3.1340	0	34.3480	0	27.359	0	967.723	0	-1e10	8	-1e10	8	-1E+10	1	-1E+10	1	-1E+10	1	-1E+10	1	-1E+10	1	-1E+10	1
4902554	91	C	08/15/2023	20:04	-132.753	47.871	0	983.20	0	3.1300	0	34.3490	0	27.360	0	972.658	0	-1e10	8	-1e10	8	-1E+10	1	-1E+10	1	-1E+10	1	-1E+10	1	-1E+10	1	-1E+10	1
4902554	91	C	08/15/2023	20:04	-132.753	47.871	0	988.10	0	3.1240	0	34.3500	0	27.361	0	977.494	0	-1e10	8	-1e10	8	-1E+10	1	-1E+10	1	-1E+10	1	-1E+10	1	-1E+10	1	-1E+10	1
4902554	91	C	08/15/2023	20:04	-132.753	47.871	0	993.00	0	3.1120	0	34.3540	0	27.365	0	982.330	0	-1e10	8	-1e10	8	-1E+10	1	-1E+10	1	-1E+10	1	-1E+10	1	-1E+10	1	-1E+10	1
4902554	91	C	08/15/2023	20:04	-132.753	47.871	0	997.80	0	3.1080	0	34.3550	0	27.367	0	987.067	0	-1e10	8	-1e10	8	-1E+10	1	-1E+10	1	-1E+10	1	-1E+10	1	-1E+10	1	-1E+10	1
4902554	91	C	08/15/2023	20:04	-132.753	47.871	0	1005.40	0	3.1010	0	34.3570	0	27.369	0	994.567	0	-1e10	8	-1e10	8	-1E+10	1	-1E+10	1	-1E+10	1	-1E+10	1	-1E+10	1	-1E+10	1
4902554	91	C	08/15/2023	20:04	-132.753	47.871	0	1015.60	0	3.0920	0	34.3590	0	27.371	0	1004.633	0	-1e10	8	-1e10	8	-1E+10	1	-1E+10	1	-1E+10	1	-1E+10	1	-1E+10	1	-1E+10	1
4902554	91	C	08/15/2023	20:04	-132.753	47.871	0	1025.40	0	3.0810	0	34.3620	0	27.375	0	1014.303	0	-1e10	8	-1e10	8	-1E+10	1	-1E+10	1	-1E+10	1	-1E+10	1	-1E+10	1	-1E+10	1
4902554	91	C	08/15/2023	20:04	-132.753	47.871	0	1035.30	0	3.0750	0	34.3640	0	27.377	0	1024.072	0	-1e10	8	-1e10	8	-1E+10	1	-1E+10	1	-1E+10	1	-1E+10	1	-1E+10	1	-1E+10	1
4902554	91	C	08/15/2023	20:04	-132.753	47.871	0	1045.20	0	3.0510	0	34.3700	0	27.384	0	1033.840	0	-1e10	8	-1e10	8	-1E+10	1	-1E+10	1	-1E+10	1	-1E+10	1	-1E+10	1	-1E+10	1
4902554	91	C	08/15/2023	20:04	-132.753	47.871	0	1055.20	0	3.0300	0	34.3770	0	27.392	0	1043.707	0	-1e10	8	-1e10	8	-1E+10	1	-1E+10	1	-1E+10	1	-1E+10	1	-1E+10	1	-1E+10	1
4902554	91	C	08/15/2023	20:04	-132.753	47.871	0	1065.50	0	3.0050	0	34.3840	0	27.400	0	1053.869	0	-1e10	8	-1e10	8	-1E+10	1	-1E+10	1	-1E+10	1	-1E+10	1	-1E+10	1	-1E+10	1
4902554	91	C	08/15/2023	20:04	-132.753	47.871	0	1075.40	0	2.9800	0	34.3910	0	27.407	0	1063.636	0	-1e10	8	-1e10	8	-1E+10	1	-1E+10	1	-1E+10	1	-1E+10	1	-1E+10	1	-1E+10	1
4902554	91	C	08/15/2023	20:04	-132.753	47.871	0	1085.30	0	2.9610	0	34.3940	0	27.412	0	1073.402	0	-1e10	8	-1e10	8	-1E+10	1	-1E+10	1	-1E+10	1	-1E+10	1	-1E+10	1	-1E+10	1
4902554	91	C	08/15/2023	20:04	-132.753	47.871	0	1095.40	0	2.9480	0	34.3980	0	27.416	0	1083.365	0	-1e10	8	-1e10	8	-1E+10	1	-1E+10	1	-1E+10	1	-1E+10	1	-1E+10	1	-1E+10	1
4902554	91	C	08/15/2023	20:04	-132.753	47.871	0	1105.40	0	2.9420	0	34.4010	0	27.419	0	1093.229	0	-1e10	8	-1e10	8	-1E+10	1	-1E+10	1	-1E+10	1	-1E+10	1	-1E+10	1	-1E+10	1
4902554	91	C	08/15/2023	20:04	-132.753	47.871	0	1115.40	0	2.9330	0	34.4050	0	27.423	0	1103.093	0	-1e10	8	-1e10	8	-1E+10	1	-1E+10	1	-1E+10	1	-1E+10	1	-1E+10	1	-1E+10	1
4902554	91	C	08/15/2023	20:04	-132.753	47.871	0	1125.40	0	2.9150	0	34.4080	0	27.427	0	1112.956	0	-1e10	8	-1e10	8	-1E+10	1	-1E+10	1	-1E+10	1	-1E+10	1	-1E+10	1	-1E+10	1
4902554	91	C	08/15/2023	20:04	-132.753	47.871	0	1135.30	0	2.9100	0	34.4120	0	27.431	0	1122.720	0	-1e10	8	-1e10	8	-1E+10	1	-1E+10	1	-1E+10	1	-1E+10	1	-1E+10	1	-1E+10	1
4902554	91	C	08/15/2023	20:04	-132.753	47.871	0	1145.30	0	2.9020	0	34.4140	0	27.433	0	1132.582	0	-1e10	8	-1e10	8	-1E+10	1	-1E+10	1	-1E+10	1	-1E+10	1	-1E+10	1	-1E+10	1
4902554	91	C	08/15/2023	20:04	-132.753	47.871	0	1155.10	0	2.8950	0	34.4160	0	27.435	0	1142.247	0	-1e10	8	-1e10	8	-1E+10	1	-1E+10	1	-1E+10	1	-1E+10	1	-1E+10	1	-1E+10	1
4902554	91	C	08/15/2023	20:04	-132.753	47.871	0	1165.00	0	2.8850	0	34.4180	0	27.438	0	1152.010	0	-1e10	8	-1e10	8	-1E+10	1	-1E+10	1	-1E+10	1	-1E+10	1	-1E+10	1	-1E+10	1
4902554	91	C	08/15/2023	20:04	-132.753	47.871	0	1175.00	0	2.8690	0	34.4200	0	27.441	0	1161.871	0	-1e10	8	-1e10	8	-1E+10	1	-1E+10	1	-1E+10	1	-1E+10	1	-1E+10	1	-1E+10	1
4902554	91	C	08/15/2023	20:04	-132.753	47.871	0	1185.10	0	2.8500	0	34.4230	0	27.445	0	1171.830	0	-1e10	8	-1e10	8	-1E+10	1	-1E+10	1	-1E+10	1	-1E+10	1	-1E+10	1	-1E+10	1
4902554	91	C	08/15/2023	20:04	-132.753	47.871	0	1195.40	0	2.8310	0	34.4250	0	27.449	0	1181.985	0	-1e10	8	-1e10	8	-1E+10	1	-1E+10	1	-1E+10	1	-1E+10	1	-1E+10	1	-1E+10	1
4902554	91	C	08/15/2023	20:04	-132.753	47.871	0	1205.50	0	2.8210	0	34.4270	0	27.451	0	1191.943	0	-1e10	8	-1e10	8	-1E+10	1	-1E+10	1	-1E+10	1	-1E+10	1	-1E+10	1	-1E+10	1
4902554	91	C	08/15/2023	20:04	-132.753	47.871	0	1215.50	0	2.8130	0	34.4300	0	27.454	0	1201.802	0	-1e10	8	-1e10	8	-1E+10	1	-1E+10	1	-1E+10	1	-1E+10	1	-1E+10	1	-1E+10	1
4902554	91	C	08/15/2023	20:04	-132.753	47.871	0	1225.70	0	2.8030	0	34.4330	0	27.458	0	1211.858	0	-1e10	8	-1e10	8	-1E+10	1	-1E+10	1	-1E+10	1	-1E+10	1	-1E+10	1	-1E+10	1
4902554	91	C	08/15/2023	20:04	-132.753	47.871	0	1235.40	0	2.7940	0	34.4350	0	27.460	0	1221.420	0	-1e10	8	-1e10	8	-1E+10	1	-1E+10	1	-1E+10	1	-1E+10	1	-1E+10	1	-1E+10	1
4902554	91	C	08/15/2023	20:04	-132.753	47.871	0	1245.10	0	2.7760	0	34.4370	0	27.463	0	1230.982	0	-1e10	8	-1e10	8	-1E+10	1	-1E+10	1	-1E+10	1	-1E+10	1	-1E+10	1	-1E+10	1
4902554	91	C	08/15/2023	20:04	-132.753	47.871	0	1255.40	0	2.7550	0	34.4400	0	27.468	0	1241.135	0	-1e10	8	-1e10	8	-1E+10	1	-1E+10	1	-1E+10	1	-1E+10	1	-1E+10	1	-1E+10	1
4902554	91	C	08/15/2023	20:04	-132.753	47.871	0	1265.70	0	2.7360	0	34.4430	0	27.472	0	1251.287	0	-1e10	8	-1e10	8	-1E+10	1	-1E+10	1	-1E+10	1	-1E+10	1	-1E+10	1	-1E+10	1
4902554	91	C	08/15/2023	20:04	-132.753	47.871	0	1275.50	0	2.7170	0	34.4450	0	27.475	0	1260.947	0	-1e10	8	-1e10	8	-1E+10	1	-1E+10	1	-1E+10	1	-1E+10	1	-1E+10	1	-1E+10	1
4902554	91	C	08/15/2023	20:04	-132.753	47.871	0	1285.40	0	2.7010	0	34.4480	0	27.479	0	1270.704	0	-1e10	8	-1e10	8	-1E+10	1	-1E+10	1	-1E+10	1	-1E+10	1	-1E+10	1	-1E+10	1
4902554	91	C	08/15/2023	20:04	-132.753	47.871	0	1295.50	0	2.6890	0	34.4490	0	27.481	0	1280.658	0	-1e10	8	-1e10	8	-1E+10	1	-1E+10	1	-1E+10	1	-1E+10	1	-1E+10	1	-1E+10	1
4902554	91	C	08/15/2023	20:04	-132.753	47.871	0	1305.50	0	2.6710	0	34.4530	0	27.485	0	1290.512	0	-1e10	8	-1e10	8	-1E+10	1	-1E+10	1	-1E+10	1	-1E+10	1	-1E+10	1	-1E+10	1
4902554	91	C	08/15/2023	20:04	-132.753	47.871	0	1315.60	0	2.6520	0	34.4570	0	27.490	0	1300.465	0	-1e10	8	-1e10	8	-1E+10	1	-1E+10	1	-1E+10	1	-1E+10	1	-1E+10	1	-1E+10	1
4902554	91	C	08/15/2023	20:04	-132.753	47.871	0	1325.70	0	2.6390	0	34.4600	0	27.494	0	1310.418	0	-1e10	8	-1e10	8	-1E+10	1	-1E+10	1	-1E+10	1	-1E+10	1	-1E+10	1	-1E+10	1
4902554	91	C	08/15/2023	20:04	-132.753	47.871	0	1335.40	0	2.6250	0	34.4620	0	27.497	0	1319.976	0	-1e10	8	-1e10	8	-1E+10	1	-1E+10	1	-1E+10	1	-1E+10	1	-1E+10	1	-1E+10	1
4902554	91	C	08/15/2023	20:04	-132.753	47.871	0	1345.20	0	2.6120	0	34.4660	0	27.501	0	1329.631	0	-1e10	8	-1e10	8	-1E+10	1	-1E+10	1	-1E+10	1	-1E+10	1	-1E+10	1	-1E+10	1
4902554	91	C	08/15/2023	20:04	-132.753	47.871	0	1355.30	0	2.5920	0	34.4700	0	27.506	0	1339.582	0	-1e10	8	-1e10	8	-1E+10	1	-1E+10	1	-1E+10	1	-1E+10	1	-1E+10	1	-1E+10	1
4902554	91	C	08/15/2023	20:04	-132.753	47.871	0	1365.40	0	2.5740	0	34.4730	0	27.510	0	1349.533	0	-1e10	8	-1e10	8	-1E+10	1	-1E+10	1	-1E+10	1	-1E+10	1	-1E+10	1	-1E+10	1
4902554	91	C	08/15/2023	20:04	-132.753	47.871	0	1375.70	0	2.5580	0	34.4750	0	27.513	0	1359.680	0	-1e10	8	-1e10	8	-1E+10	1	-1E+10	1	-1E+10	1	-1E+10	1	-1E+10	1	-1E+10	1
4902554	91	C	08/15/2023	20:04	-132.753	47.871	0	1385.90	0	2.5460	0	34.4770	0	27.516	0	1369.728	0	-1e10	8	-1e10	8	-1E+10	1	-1E+10	1	-1E+10	1	-1E+10	1	-1E+10	1	-1E+10	1
4902554	91	C	08/15/2023	20:04	-132.753	47.871	0	1395.20	0	2.5300	0	34.4790	0	27.519	0	1378.889	0	-1e10	8	-1e10	8	-1E+10	1	-1E+10	1	-1E+10	1	-1E+10	1	-1E+10	1	-1E+10	1
4902554	91	C	08/15/2023	20:04	-132.753	47.871	0	1405.30	0	2.4990	0	34.4840	0	27.525	0	1388.838	0	-1e10	8	-1e10	8	-1E+10	1	-1E+10	1	-1E+10	1	-1E+10	1	-1E+10	1	-1E+10	1
4902554	91	C	08/15/2023	20:04	-132.753	47.871	0	1415.40	0	2.4740	0	34.4870	0	27.530	0	1398.786	0	-1e10	8	-1e10	8	-1E+10	1	-1E+10	1	-1E+10	1	-1E+10	1	-1E+10	1	-1E+10	1
4902554	91	C	08/15/2023	20:04	-132.753	47.871	0	1425.50	0	2.4610	0	34.4890	0	27.533	0	1408.734	0	-1e10	8	-1e10	8	-1E+10	1	-1E+10	1	-1E+10	1	-1E+10	1	-1E+10	1	-1E+10	1
4902554	91	C	08/15/2023	20:04	-132.753	47.871	0	1435.70	0	2.4490	0	34.4910	0	27.535	0	1418.780	0	-1e10	8	-1e10	8	-1E+10	1	-1E+10	1	-1E+10	1	-1E+10	1	-1E+10	1	-1E+10	1
4902554	91	C	08/15/2023	20:04	-132.753	47.871	0	1445.50	0	2.4420	0	34.4920	0	27.537	0	1428.431	0	-1e10	8	-1e10	8	-1E+10	1	-1E+10	1	-1E+10	1	-1E+10	1	-1E+10	1	-1E+10	1
4902554	91	C	08/15/2023	20:04	-132.753	47.871	0	1455.40	0	2.4290	0	34.4940	0	27.540	0	1438.181	0	-1e10	8	-1e10	8	-1E+10	1	-1E+10	1	-1E+10	1	-1E+10	1	-1E+10	1	-1E+10	1
4902554	91	C	08/15/2023	20:04	-132.753	47.871	0	1465.40	0	2.4190	0	34.4960	0	27.542	0	1448.028	0	-1e10	8	-1e10	8	-1E+10	1	-1E+10	1	-1E+10	1	-1E+10	1	-1E+10	1	-1E+10	1
4902554	91	C	08/15/2023	20:04	-132.753	47.871	0	1475.30	0	2.4120	0	34.4980	0	27.544	0	1457.777	0	-1e10	8	-1e10	8	-1E+10	1	-1E+10	1	-1E+10	1	-1E+10	1	-1E+10	1	-1E+10	1
4902554	91	C	08/15/2023	20:04	-132.753	47.871	0	1485.00	0	2.3930	0	34.5010	0	27.548	0	1467.328	0	-1e10	8	-1e10	8	-1E+10	1	-1E+10	1	-1E+10	1	-1E+10	1	-1E+10	1	-1E+10	1
4902554	91	C	08/15/2023	20:04	-132.753	47.871	0	1495.40	0	2.3840	0	34.5030	0	27.551	0	1477.568	0	-1e10	8	-1e10	8	-1E+10	1	-1E+10	1	-1E+10	1	-1E+10	1	-1E+10	1	-1E+10	1
4902554	91	C	08/15/2023	20:04	-132.753	47.871	0	1505.10	0	2.3750	0	34.5050	0	27.553	0	1487.118	0	-1e10	8	-1e10	8	-1E+10	1	-1E+10	1	-1E+10	1	-1E+10	1	-1E+10	1	-1E+10	1
4902554	91	C	08/15/2023	20:04	-132.753	47.871	0	1515.50	0	2.3650	0	34.5070	0	27.556	0	1497.357	0	-1e10	8	-1e10	8	-1E+10	1	-1E+10	1	-1E+10	1	-1E+10	1	-1E+10	1	-1E+10	1
4902554	91	C	08/15/2023	20:04	-132.753	47.871	0	1525.70	0	2.3560	0	34.5100	0	27.559	0	1507.398	0	-1e10	8	-1e10	8	-1E+10	1	-1E+10	1	-1E+10	1	-1E+10	1	-1E+10	1	-1E+10	1
4902554	91	C	08/15/2023	20:04	-132.753	47.871	0	1535.70	0	2.3480	0	34.5120	0	27.561	0	1517.242	0	-1e10	8	-1e10	8	-1E+10	1	-1E+10	1	-1E+10	1	-1E+10	1	-1E+10	1	-1E+10	1
4902554	91	C	08/15/2023	20:04	-132.753	47.871	0	1545.40	0	2.3430	0	34.5140	0	27.563	0	1526.791	0	-1e10	8	-1e10	8	-1E+10	1	-1E+10	1	-1E+10	1	-1E+10	1	-1E+10	1	-1E+10	1
4902554	91	C	08/15/2023	20:04	-132.753	47.871	0	1555.20	0	2.3320	0	34.5150	0	27.565	0	1536.437	0	-1e10	8	-1e10	8	-1E+10	1	-1E+10	1	-1E+10	1	-1E+10	1	-1E+10	1	-1E+10	1
4902554	91	C	08/15/2023	20:04	-132.753	47.871	0	1565.50	0	2.3230	0	34.5170	0	27.567	0	1546.575	0	-1e10	8	-1e10	8	-1E+10	1	-1E+10	1	-1E+10	1	-1E+10	1	-1E+10	1	-1E+10	1
4902554	91	C	08/15/2023	20:04	-132.753	47.871	0	1575.40	0	2.3080	0	34.5190	0	27.570	0	1556.319	0	-1e10	8	-1e10	8	-1E+10	1	-1E+10	1	-1E+10	1	-1E+10	1	-1E+10	1	-1E+10	1
4902554	91	C	08/15/2023	20:04	-132.753	47.871	0	1585.50	0	2.2900	0	34.5210	0	27.573	0	1566.260	0	-1e10	8	-1e10	8	-1E+10	1	-1E+10	1	-1E+10	1	-1E+10	1	-1E+10	1	-1E+10	1
4902554	91	C	08/15/2023	20:04	-132.753	47.871	0	1595.70	0	2.2850	0	34.5220	0	27.575	0	1576.298	0	-1e10	8	-1e10	8	-1E+10	1	-1E+10	1	-1E+10	1	-1E+10	1	-1E+10	1	-1E+10	1
4902554	91	C	08/15/2023	20:04	-132.753	47.871	0	1605.40	0	2.2780	0	34.5240	0	27.577	0	1585.844	0	-1e10	8	-1e10	8	-1E+10	1	-1E+10	1	-1E+10	1	-1E+10	1	-1E+10	1	-1E+10	1
4902554	91	C	08/15/2023	20:04	-132.753	47.871	0	1615.30	0	2.2660	0	34.5260	0	27.579	0	1595.586	0	-1e10	8	-1e10	8	-1E+10	1	-1E+10	1	-1E+10	1	-1E+10	1	-1E+10	1	-1E+10	1
4902554	91	C	08/15/2023	20:04	-132.753	47.871	0	1625.30	0	2.2540	0	34.5280	0	27.582	0	1605.426	0	-1e10	8	-1e10	8	-1E+10	1	-1E+10	1	-1E+10	1	-1E+10	1	-1E+10	1	-1E+10	1
4902554	91	C	08/15/2023	20:04	-132.753	47.871	0	1635.20	0	2.2400	0	34.5300	0	27.585	0	1615.167	0	-1e10	8	-1e10	8	-1E+10	1	-1E+10	1	-1E+10	1	-1E+10	1	-1E+10	1	-1E+10	1
4902554	91	C	08/15/2023	20:04	-132.753	47.871	0	1645.30	0	2.2300	0	34.5320	0	27.587	0	1625.105	0	-1e10	8	-1e10	8	-1E+10	1	-1E+10	1	-1E+10	1	-1E+10	1	-1E+10	1	-1E+10	1
4902554	91	C	08/15/2023	20:04	-132.753	47.871	0	1655.50	0	2.2160	0	34.5350	0	27.591	0	1635.140	0	-1e10	8	-1e10	8	-1E+10	1	-1E+10	1	-1E+10	1	-1E+10	1	-1E+10	1	-1E+10	1
4902554	91	C	08/15/2023	20:04	-132.753	47.871	0	1665.30	0	2.2060	0	34.5370	0	27.593	0	1644.782	0	-1e10	8	-1e10	8	-1E+10	1	-1E+10	1	-1E+10	1	-1E+10	1	-1E+10	1	-1E+10	1
4902554	91	C	08/15/2023	20:04	-132.753	47.871	0	1675.10	0	2.1980	0	34.5380	0	27.595	0	1654.422	0	-1e10	8	-1e10	8	-1E+10	1	-1E+10	1	-1E+10	1	-1E+10	1	-1E+10	1	-1E+10	1
4902554	91	C	08/15/2023	20:04	-132.753	47.871	0	1685.40	0	2.1900	0	34.5400	0	27.597	0	1664.555	0	-1e10	8	-1e10	8	-1E+10	1	-1E+10	1	-1E+10	1	-1E+10	1	-1E+10	1	-1E+10	1
4902554	91	C	08/15/2023	20:04	-132.753	47.871	0	1695.70	0	2.1820	0	34.5410	0	27.599	0	1674.687	0	-1e10	8	-1e10	8	-1E+10	1	-1E+10	1	-1E+10	1	-1E+10	1	-1E+10	1	-1E+10	1
4902554	91	C	08/15/2023	20:04	-132.753	47.871	0	1705.70	0	2.1700	0	34.5440	0	27.602	0	1684.523	0	-1e10	8	-1e10	8	-1E+10	1	-1E+10	1	-1E+10	1	-1E+10	1	-1E+10	1	-1E+10	1
4902554	91	C	08/15/2023	20:04	-132.753	47.871	0	1715.70	0	2.1580	0	34.5470	0	27.605	0	1694.359	0	-1e10	8	-1e10	8	-1E+10	1	-1E+10	1	-1E+10	1	-1E+10	1	-1E+10	1	-1E+10	1
4902554	91	C	08/15/2023	20:04	-132.753	47.871	0	1725.70	0	2.1480	0	34.5490	0	27.608	0	1704.195	0	-1e10	8	-1e10	8	-1E+10	1	-1E+10	1	-1E+10	1	-1E+10	1	-1E+10	1	-1E+10	1
4902554	91	C	08/15/2023	20:04	-132.753	47.871	0	1735.70	0	2.1360	0	34.5520	0	27.611	0	1714.030	0	-1e10	8	-1e10	8	-1E+10	1	-1E+10	1	-1E+10	1	-1E+10	1	-1E+10	1	-1E+10	1
4902554	91	C	08/15/2023	20:04	-132.753	47.871	0	1745.70	0	2.1300	0	34.5540	0	27.613	0	1723.864	0	-1e10	8	-1e10	8	-1E+10	1	-1E+10	1	-1E+10	1	-1E+10	1	-1E+10	1	-1E+10	1
4902554	91	C	08/15/2023	20:04	-132.753	47.871	0	1755.70	0	2.1250	0	34.5570	0	27.616	0	1733.698	0	-1e10	8	-1e10	8	-1E+10	1	-1E+10	1	-1E+10	1	-1E+10	1	-1E+10	1	-1E+10	1
4902554	91	C	08/15/2023	20:04	-132.753	47.871	0	1765.80	0	2.1160	0	34.5580	0	27.618	0	1743.630	0	-1e10	8	-1e10	8	-1E+10	1	-1E+10	1	-1E+10	1	-1E+10	1	-1E+10	1	-1E+10	1
4902554	91	C	08/15/2023	20:04	-132.753	47.871	0	1775.50	0	2.1110	0	34.5600	0	27.620	0	1753.169	0	-1e10	8	-1e10	8	-1E+10	1	-1E+10	1	-1E+10	1	-1E+10	1	-1E+10	1	-1E+10	1
4902554	91	C	08/15/2023	20:04	-132.753	47.871	0	1785.30	0	2.1040	0	34.5610	0	27.621	0	1762.805	0	-1e10	8	-1e10	8	-1E+10	1	-1E+10	1	-1E+10	1	-1E+10	1	-1E+10	1	-1E+10	1
4902554	91	C	08/15/2023	20:04	-132.753	47.871	0	1795.10	0	2.0920	0	34.5630	0	27.624	0	1772.440	0	-1e10	8	-1e10	8	-1E+10	1	-1E+10	1	-1E+10	1	-1E+10	1	-1E+10	1	-1E+10	1
4902554	91	C	08/15/2023	20:04	-132.753	47.871	0	1805.00	0	2.0820	0	34.5640	0	27.625	0	1782.174	0	-1e10	8	-1e10	8	-1E+10	1	-1E+10	1	-1E+10	1	-1E+10	1	-1E+10	1	-1E+10	1
4902554	91	C	08/15/2023	20:04	-132.753	47.871	0	1815.20	0	2.0740	0	34.5660	0	27.628	0	1792.202	0	-1e10	8	-1e10	8	-1E+10	1	-1E+10	1	-1E+10	1	-1E+10	1	-1E+10	1	-1E+10	1
4902554	91	C	08/15/2023	20:04	-132.753	47.871	0	1825.30	0	2.0670	0	34.5670	0	27.629	0	1802.131	0	-1e10	8	-1e10	8	-1E+10	1	-1E+10	1	-1E+10	1	-1E+10	1	-1E+10	1	-1E+10	1
4902554	91	C	08/15/2023	20:04	-132.753	47.871	0	1835.30	0	2.0580	0	34.5690	0	27.632	0	1811.962	0	-1e10	8	-1e10	8	-1E+10	1	-1E+10	1	-1E+10	1	-1E+10	1	-1E+10	1	-1E+10	1
4902554	91	C	08/15/2023	20:04	-132.753	47.871	0	1845.20	0	2.0490	0	34.5700	0	27.633	0	1821.693	0	-1e10	8	-1e10	8	-1E+10	1	-1E+10	1	-1E+10	1	-1E+10	1	-1E+10	1	-1E+10	1
4902554	91	C	08/15/2023	20:04	-132.753	47.871	0	1855.40	0	2.0400	0	34.5720	0	27.635	0	1831.719	0	-1e10	8	-1e10	8	-1E+10	1	-1E+10	1	-1E+10	1	-1E+10	1	-1E+10	1	-1E+10	1
4902554	91	C	08/15/2023	20:04	-132.753	47.871	0	1865.70	0	2.0340	0	34.5730	0	27.637	0	1841.843	0	-1e10	8	-1e10	8	-1E+10	1	-1E+10	1	-1E+10	1	-1E+10	1	-1E+10	1	-1E+10	1
4902554	91	C	08/15/2023	20:04	-132.753	47.871	0	1875.50	0	2.0250	0	34.5740	0	27.638	0	1851.475	0	-1e10	8	-1e10	8	-1E+10	1	-1E+10	1	-1E+10	1	-1E+10	1	-1E+10	1	-1E+10	1
4902554	91	C	08/15/2023	20:04	-132.753	47.871	0	1885.40	0	2.0180	0	34.5750	0	27.640	0	1861.205	0	-1e10	8	-1e10	8	-1E+10	1	-1E+10	1	-1E+10	1	-1E+10	1	-1E+10	1	-1E+10	1
4902554	91	C	08/15/2023	20:04	-132.753	47.871	0	1895.20	0	2.0070	0	34.5780	0	27.643	0	1870.836	0	-1e10	8	-1e10	8	-1E+10	1	-1E+10	1	-1E+10	1	-1E+10	1	-1E+10	1	-1E+10	1
4902554	91	C	08/15/2023	20:04	-132.753	47.871	0	1905.00	0	2.0010	0	34.5790	0	27.644	0	1880.467	0	-1e10	8	-1e10	8	-1E+10	1	-1E+10	1	-1E+10	1	-1E+10	1	-1E+10	1	-1E+10	1
4902554	91	C	08/15/2023	20:04	-132.753	47.871	0	1915.40	0	1.9930	0	34.5800	0	27.646	0	1890.687	0	-1e10	8	-1e10	8	-1E+10	1	-1E+10	1	-1E+10	1	-1E+10	1	-1E+10	1	-1E+10	1
4902554	91	C	08/15/2023	20:04	-132.753	47.871	0	1925.80	0	1.9830	0	34.5820	0	27.648	0	1900.907	0	-1e10	8	-1e10	8	-1E+10	1	-1E+10	1	-1E+10	1	-1E+10	1	-1E+10	1	-1E+10	1
4902554	91	C	08/15/2023	20:04	-132.753	47.871	0	1935.80	0	1.9770	0	34.5830	0	27.650	0	1910.732	0	-1e10	8	-1e10	8	-1E+10	1	-1E+10	1	-1E+10	1	-1E+10	1	-1E+10	1	-1E+10	1
4902554	91	C	08/15/2023	20:04	-132.753	47.871	0	1945.70	0	1.9700	0	34.5840	0	27.651	0	1920.459	0	-1e10	8	-1e10	8	-1E+10	1	-1E+10	1	-1E+10	1	-1E+10	1	-1E+10	1	-1E+10	1
4902554	91	C	08/15/2023	20:04	-132.753	47.871	0	1955.70	0	1.9630	0	34.5850	0	27.652	0	1930.284	0	-1e10	8	-1e10	8	-1E+10	1	-1E+10	1	-1E+10	1	-1E+10	1	-1E+10	1	-1E+10	1
4902554	91	C	08/15/2023	20:04	-132.753	47.871	0	1965.80	0	1.9590	0	34.5860	0	27.654	0	1940.207	0	-1e10	8	-1e10	8	-1E+10	1	-1E+10	1	-1E+10	1	-1E+10	1	-1E+10	1	-1E+10	1
4902554	91	C	08/15/2023	20:04	-132.753	47.871	0	1975.40	0	1.9550	0	34.5870	0	27.655	0	1949.638	0	-1e10	8	-1e10	8	-1E+10	1	-1E+10	1	-1E+10	1	-1E+10	1	-1E+10	1	-1E+10	1
4902554	91	C	08/15/2023	20:04	-132.753	47.871	0	1985.30	0	1.9510	0	34.5880	0	27.656	0	1959.364	0	-1e10	8	-1e10	8	-1E+10	1	-1E+10	1	-1E+10	1	-1E+10	1	-1E+10	1	-1E+10	1
4902554	91	C	08/15/2023	20:04	-132.753	47.871	0	1995.50	0	1.9470	0	34.5890	0	27.657	0	1969.383	0	-1e10	8	-1e10	8	-1E+10	1	-1E+10	1	-1E+10	1	-1E+10	1	-1E+10	1	-1E+10	1
4902554	91	C	08/15/2023	20:04	-132.753	47.871	0	2005.70	0	1.9400	0	34.5900	0	27.658	0	1979.403	0	-1e10	8	-1e10	8	-1E+10	1	-1E+10	1	-1E+10	1	-1E+10	1	-1E+10	1	-1E+10	1
4902554	91	C	08/15/2023	20:04	-132.753	47.871	0	2015.50	0	1.9320	0	34.5910	0	27.660	0	1989.028	0	-1e10	8	-1e10	8	-1E+10	1	-1E+10	1	-1E+10	1	-1E+10	1	-1E+10	1	-1E+10	1
4902554	91	C	08/15/2023	20:04	-132.753	47.871	0	2023.30	0	1.9260	0	34.5920	0	27.661	0	1996.690	0	-1e10	8	-1e10	8	-1E+10	1	-1E+10	1	-1E+10	1	-1E+10	1	-1E+10	1	-1E+10	1
4902554	91	C	08/15/2023	20:04	-132.753	47.871	0																										
4902554	92	C	08/26/2023	01:09	-132.966	47.901	0	0.10	0	17.3560	0	32.3690	0	23.413	0	0.099	0	-1e10	8	-1e10	8	-1E+10	1	-1E+10	1	-1E+10	1	-1E+10	1	-1E+10	1	-1E+10	1
4902554	92	C	08/26/2023	01:09	-132.966	47.901	0	0.20	0	17.3560	0	32.3680	0	23.413	0	0.198	0	-1e10	1	-1e10	1	-1E+10	1	-1E+10	1	-1E+10	1	-1E+10	1	-1E+10	1	-1E+10	1
4902554	92	C	08/26/2023	01:09	-132.966	47.901	0	0.40	0	17.3550	0	32.2830	0	23.348	0	0.397	0	-1e10	8	-1e10	8	-1E+10	1	-1E+10	1	-1E+10	1	-1E+10	1	-1E+10	1	-1E+10	1
4902554	92	C	08/26/2023	01:09	-132.966	47.901	0	1.10	0	17.3570	0	32.3440	0	23.394	0	1.091	0	-1e10	8	-1e10	8	-1E+10	1	-1E+10	1	-1E+10	1	-1E+10	1	-1E+10	1	-1E+10	1
4902554	92	C	08/26/2023	01:09	-132.966	47.901	0	2.00	0	17.3560	0	32.3400	0	23.391	0	1.983	0	-1e10	8	-1e10	8	-1E+10	1	-1E+10	1	-1E+10	1	-1E+10	1	-1E+10	1	-1E+10	1
4902554	92	C	08/26/2023	01:09	-132.966	47.901	0	2.90	0	17.3570	0	32.3640	0	23.409	0	2.876	0	-1e10	8	-1e10	8	-1E+10	1	-1E+10	1	-1E+10	1	-1E+10	1	-1E+10	1	-1E+10	1
4902554	92	C	08/26/2023	01:09	-132.966	47.901	0	3.80	0	17.3570	0	32.3710	0	23.415	0	3.768	0	-1e10	8	-1e10	8	-1E+10	1	-1E+10	1	-1E+10	1	-1E+10	1	-1E+10	1	-1E+10	1
4902554	92	C	08/26/2023	01:09	-132.966	47.901	0	5.10	0	17.3550	0	32.3740	0	23.418	0	5.057	0	-1e10	8	-1e10	8	-1E+10	1	-1E+10	1	-1E+10	1	-1E+10	1	-1E+10	1	-1E+10	1
4902554	92	C	08/26/2023	01:09	-132.966	47.901	0	6.00	0	17.3570	0	32.3740	0	23.417	0	5.950	0	-1e10	8	-1e10	8	-1E+10	1	-1E+10	1	-1E+10	1	-1E+10	1	-1E+10	1	-1E+10	1
4902554	92	C	08/26/2023	01:09	-132.966	47.901	0	6.80	0	17.3560	0	32.3750	0	23.418	0	6.743	0	-1e10	8	-1e10	8	-1E+10	1	-1E+10	1	-1E+10	1	-1E+10	1	-1E+10	1	-1E+10	1
4902554	92	C	08/26/2023	01:09	-132.966	47.901	0	8.10	0	17.3570	0	32.3750	0	23.418	0	8.032	0	-1e10	8	-1e10	8	-1E+10	1	-1E+10	1	-1E+10	1	-1E+10	1	-1E+10	1	-1E+10	1
4902554	92	C	08/26/2023	01:09	-132.966	47.901	0	9.00	0	17.3570	0	32.3740	0	23.417	0	8.924	0	-1e10	8	-1e10	8	-1E+10	1	-1E+10	1	-1E+10	1	-1E+10	1	-1E+10	1	-1E+10	1
4902554	92	C	08/26/2023	01:09	-132.966	47.901	0	9.90	0	17.3560	0	32.3740	0	23.417	0	9.817	0	-1e10	8	-1e10	8	-1E+10	1	-1E+10	1	-1E+10	1	-1E+10	1	-1E+10	1	-1E+10	1
4902554	92	C	08/26/2023	01:09	-132.966	47.901	0	10.90	0	17.3570	0	32.3750	0	23.418	0	10.808	0	-1e10	8	-1e10	8	-1E+10	1	-1E+10	1	-1E+10	1	-1E+10	1	-1E+10	1	-1E+10	1
4902554	92	C	08/26/2023	01:09	-132.966	47.901	0	11.90	0	17.3560	0	32.3740	0	23.418	0	11.800	0	-1e10	8	-1e10	8	-1E+10	1	-1E+10	1	-1E+10	1	-1E+10	1	-1E+10	1	-1E+10	1
4902554	92	C	08/26/2023	01:09	-132.966	47.901	0	13.00	0	17.3570	0	32.3750	0	23.418	0	12.891	0	-1e10	8	-1e10	8	-1E+10	1	-1E+10	1	-1E+10	1	-1E+10	1	-1E+10	1	-1E+10	1
4902554	92	C	08/26/2023	01:09	-132.966	47.901	0	13.70	0	17.3560	0	32.3740	0	23.418	0	13.585	0	-1e10	8	-1e10	8	-1E+10	1	-1E+10	1	-1E+10	1	-1E+10	1	-1E+10	1	-1E+10	1
4902554	92	C	08/26/2023	01:09	-132.966	47.901	0	15.00	0	17.3550	0	32.3740	0	23.418	0	14.874	0	-1e10	8	-1e10	8	-1E+10	1	-1E+10	1	-1E+10	1	-1E+10	1	-1E+10	1	-1E+10	1
4902554	92	C	08/26/2023	01:09	-132.966	47.901	0	16.30	0	17.3530	0	32.3750	0	23.419	0	16.163	0	-1e10	8	-1e10	8	-1E+10	1	-1E+10	1	-1E+10	1	-1E+10	1	-1E+10	1	-1E+10	1
4902554	92	C	08/26/2023	01:09	-132.966	47.901	0	17.20	0	17.3500	0	32.3750	0	23.420	0	17.055	0	-1e10	8	-1e10	8	-1E+10	1	-1E+10	1	-1E+10	1	-1E+10	1	-1E+10	1	-1E+10	1
4902554	92	C	08/26/2023	01:09	-132.966	47.901	0	18.10	0	17.3360	0	32.3730	0	23.422	0	17.947	0	-1e10	8	-1e10	8	-1E+10	1	-1E+10	1	-1E+10	1	-1E+10	1	-1E+10	1	-1E+10	1
4902554	92	C	08/26/2023	01:09	-132.966	47.901	0	19.10	0	17.3430	0	32.3730	0	23.420	0	18.939	0	-1e10	8	-1e10	8	-1E+10	1	-1E+10	1	-1E+10	1	-1E+10	1	-1E+10	1	-1E+10	1
4902554	92	C	08/26/2023	01:09	-132.966	47.901	0	20.00	0	17.3390	0	32.3740	0	23.422	0	19.831	0	-1e10	8	-1e10	8	-1E+10	1	-1E+10	1	-1E+10	1	-1E+10	1	-1E+10	1	-1E+10	1
4902554	92	C	08/26/2023	01:09	-132.966	47.901	0	20.80	0	17.3370	0	32.3730	0	23.422	0	20.625	0	-1e10	8	-1e10	8	-1E+10	1	-1E+10	1	-1E+10	1	-1E+10	1	-1E+10	1	-1E+10	1
4902554	92	C	08/26/2023	01:09	-132.966	47.901	0	21.70	0	17.3340	0	32.3720	0	23.422	0	21.517	0	-1e10	8	-1e10	8	-1E+10	1	-1E+10	1	-1E+10	1	-1E+10	1	-1E+10	1	-1E+10	1
4902554	92	C	08/26/2023	01:09	-132.966	47.901	0	22.80	0	17.3310	0	32.3730	0	23.423	0	22.608	0	-1e10	8	-1e10	8	-1E+10	1	-1E+10	1	-1E+10	1	-1E+10	1	-1E+10	1	-1E+10	1
4902554	92	C	08/26/2023	01:09	-132.966	47.901	0	24.00	0	17.3110	0	32.3710	0	23.426	0	23.797	0	-1e10	8	-1e10	8	-1E+10	1	-1E+10	1	-1E+10	1	-1E+10	1	-1E+10	1	-1E+10	1
4902554	92	C	08/26/2023	01:09	-132.966	47.901	0	24.90	0	17.2710	0	32.3700	0	23.435	0	24.690	0	-1e10	8	-1e10	8	-1E+10	1	-1E+10	1	-1E+10	1	-1E+10	1	-1E+10	1	-1E+10	1
4902554	92	C	08/26/2023	01:09	-132.966	47.901	0	26.10	0	17.2280	0	32.3720	0	23.447	0	25.880	0	-1e10	8	-1e10	8	-1E+10	1	-1E+10	1	-1E+10	1	-1E+10	1	-1E+10	1	-1E+10	1
4902554	92	C	08/26/2023	01:09	-132.966	47.901	0	27.10	0	16.9220	0	32.3690	0	23.516	0	26.871	0	-1e10	8	-1e10	8	-1E+10	1	-1E+10	1	-1E+10	1	-1E+10	1	-1E+10	1	-1E+10	1
4902554	92	C	08/26/2023	01:09	-132.966	47.901	0	28.10	0	15.9460	0	32.3820	0	23.749	0	27.863	0	-1e10	8	-1e10	8	-1E+10	1	-1E+10	1	-1E+10	1	-1E+10	1	-1E+10	1	-1E+10	1
4902554	92	C	08/26/2023	01:09	-132.966	47.901	0	28.80	0	15.2450	0	32.3900	0	23.909	0	28.557	0	-1e10	8	-1e10	8	-1E+10	1	-1E+10	1	-1E+10	1	-1E+10	1	-1E+10	1	-1E+10	1
4902554	92	C	08/26/2023	01:09	-132.966	47.901	0	30.00	0	15.0120	0	32.3710	0	23.945	0	29.746	0	-1e10	8	-1e10	8	-1E+10	1	-1E+10	1	-1E+10	1	-1E+10	1	-1E+10	1	-1E+10	1
4902554	92	C	08/26/2023	01:09	-132.966	47.901	0	31.00	0	15.0040	0	32.3700	0	23.946	0	30.738	0	-1e10	8	-1e10	8	-1E+10	1	-1E+10	1	-1E+10	1	-1E+10	1	-1E+10	1	-1E+10	1
4902554	92	C	08/26/2023	01:09	-132.966	47.901	0	31.90	0	14.9480	0	32.3650	0	23.954	0	31.630	0	-1e10	8	-1e10	8	-1E+10	1	-1E+10	1	-1E+10	1	-1E+10	1	-1E+10	1	-1E+10	1
4902554	92	C	08/26/2023	01:09	-132.966	47.901	0	33.00	0	13.9150	0	32.4000	0	24.198	0	32.721	0	-1e10	8	-1e10	8	-1E+10	1	-1E+10	1	-1E+10	1	-1E+10	1	-1E+10	1	-1E+10	1
4902554	92	C	08/26/2023	01:09	-132.966	47.901	0	34.00	0	12.6250	0	32.4040	0	24.457	0	33.712	0	-1e10	8	-1e10	8	-1E+10	1	-1E+10	1	-1E+10	1	-1E+10	1	-1E+10	1	-1E+10	1
4902554	92	C	08/26/2023	01:09	-132.966	47.901	0	35.10	0	12.0530	0	32.3940	0	24.557	0	34.803	0	-1e10	8	-1e10	8	-1E+10	1	-1E+10	1	-1E+10	1	-1E+10	1	-1E+10	1	-1E+10	1
4902554	92	C	08/26/2023	01:09	-132.966	47.901	0	35.80	0	11.8200	0	32.4020	0	24.607	0	35.497	0	-1e10	8	-1e10	8	-1E+10	1	-1E+10	1	-1E+10	1	-1E+10	1	-1E+10	1	-1E+10	1
4902554	92	C	08/26/2023	01:09	-132.966	47.901	0	37.10	0	11.2230	0	32.4180	0	24.727	0	36.786	0	-1e10	8	-1e10	8	-1E+10	1	-1E+10	1	-1E+10	1	-1E+10	1	-1E+10	1	-1E+10	1
4902554	92	C	08/26/2023	01:09	-132.966	47.901	0	37.90	0	10.7450	0	32.4160	0	24.810	0	37.579	0	-1e10	8	-1e10	8	-1E+10	1	-1E+10	1	-1E+10	1	-1E+10	1	-1E+10	1	-1E+10	1
4902554	92	C	08/26/2023	01:09	-132.966	47.901	0	38.80	0	10.2890	0	32.4160	0	24.888	0	38.471	0	-1e10	8	-1e10	8	-1E+10	1	-1E+10	1	-1E+10	1	-1E+10	1	-1E+10	1	-1E+10	1
4902554	92	C	08/26/2023	01:09	-132.966	47.901	0	39.90	0	9.8700	0	32.4170	0	24.958	0	39.562	0	-1e10	8	-1e10	8	-1E+10	1	-1E+10	1	-1E+10	1	-1E+10	1	-1E+10	1	-1E+10	1
4902554	92	C	08/26/2023	01:09	-132.966	47.901	0	41.00	0	9.5900	0	32.4130	0	25.001	0	40.652	0	-1e10	8	-1e10	8	-1E+10	1	-1E+10	1	-1E+10	1	-1E+10	1	-1E+10	1	-1E+10	1
4902554	92	C	08/26/2023	01:09	-132.966	47.901	0	41.90	0	9.4870	0	32.4120	0	25.016	0	41.545	0	-1e10	8	-1e10	8	-1E+10	1	-1E+10	1	-1E+10	1	-1E+10	1	-1E+10	1	-1E+10	1
4902554	92	C	08/26/2023	01:09	-132.966	47.901	0	42.80	0	9.2350	0	32.4200	0	25.063	0	42.437	0	-1e10	8	-1e10	8	-1E+10	1	-1E+10	1	-1E+10	1	-1E+10	1	-1E+10	1	-1E+10	1
4902554	92	C	08/26/2023	01:09	-132.966	47.901	0	43.90	0	9.0310	0	32.4160	0	25.091	0	43.527	0	-1e10	8	-1e10	8	-1E+10	1	-1E+10	1	-1E+10	1	-1E+10	1	-1E+10	1	-1E+10	1
4902554	92	C	08/26/2023	01:09	-132.966	47.901	0	45.00	0	8.8050	0	32.4260	0	25.134	0	44.618	0	-1e10	8	-1e10	8	-1E+10	1	-1E+10	1	-1E+10	1	-1E+10	1	-1E+10	1	-1E+10	1
4902554	92	C	08/26/2023	01:09	-132.966	47.901	0	46.20	0	8.6210	0	32.4110	0	25.150	0	45.808	0	-1e10	8	-1e10	8	-1E+10	1	-1E+10	1	-1E+10	1	-1E+10	1	-1E+10	1	-1E+10	1
4902554	92	C	08/26/2023	01:09	-132.966	47.901	0	47.00	0	8.5200	0	32.4400	0	25.188	0	46.601	0	-1e10	8	-1e10	8	-1E+10	1	-1E+10	1	-1E+10	1	-1E+10	1	-1E+10	1	-1E+10	1
4902554	92	C	08/26/2023	01:09	-132.966	47.901	0	47.80	0	8.4470	0	32.4100	0	25.176	0	47.394	0	-1e10	8	-1e10	8	-1E+10	1	-1E+10	1	-1E+10	1	-1E+10	1	-1E+10	1	-1E+10	1
4902554	92	C	08/26/2023	01:09	-132.966	47.901	0	48.90	0	8.3460	0	32.4030	0	25.185	0	48.484	0	-1e10	8	-1e10	8	-1E+10	1	-1E+10	1	-1E+10	1	-1E+10	1	-1E+10	1	-1E+10	1
4902554	92	C	08/26/2023	01:09	-132.966	47.901	0	50.00	0	8.2040	0	32.4020	0	25.205	0	49.575	0	-1e10	8	-1e10	8	-1E+10	1	-1E+10	1	-1E+10	1	-1E+10	1	-1E+10	1	-1E+10	1
4902554	92	C	08/26/2023	01:09	-132.966	47.901	0	50.80	0	8.1820	0	32.4030	0	25.209	0	50.368	0	-1e10	8	-1e10	8	-1E+10	1	-1E+10	1	-1E+10	1	-1E+10	1	-1E+10	1	-1E+10	1
4902554	92	C	08/26/2023	01:09	-132.966	47.901	0	51.90	0	8.0900	0	32.3910	0	25.213	0	51.458	0	-1e10	8	-1e10	8	-1E+10	1	-1E+10	1	-1E+10	1	-1E+10	1	-1E+10	1	-1E+10	1
4902554	92	C	08/26/2023	01:09	-132.966	47.901	0	53.00	0	7.9450	0	32.4070	0	25.247	0	52.549	0	-1e10	8	-1e10	8	-1E+10	1	-1E+10	1	-1E+10	1	-1E+10	1	-1E+10	1	-1E+10	1
4902554	92	C	08/26/2023	01:09	-132.966	47.901	0	54.00	0	7.9060	0	32.4130	0	25.257	0	53.540	0	-1e10	8	-1e10	8	-1E+10	1	-1E+10	1	-1E+10	1	-1E+10	1	-1E+10	1	-1E+10	1
4902554	92	C	08/26/2023	01:09	-132.966	47.901	0	55.20	0	7.8550	0	32.4140	0	25.265	0	54.730	0	-1e10	8	-1e10	8	-1E+10	1	-1E+10	1	-1E+10	1	-1E+10	1	-1E+10	1	-1E+10	1
4902554	92	C	08/26/2023	01:09	-132.966	47.901	0	55.90	0	7.8050	0	32.4140	0	25.272	0	55.424	0	-1e10	8	-1e10	8	-1E+10	1	-1E+10	1	-1E+10	1	-1E+10	1	-1E+10	1	-1E+10	1
4902554	92	C	08/26/2023	01:09	-132.966	47.901	0	56.80	0	7.8160	0	32.4220	0	25.277	0	56.316	0	-1e10	8	-1e10	8	-1E+10	1	-1E+10	1	-1E+10	1	-1E+10	1	-1E+10	1	-1E+10	1
4902554	92	C	08/26/2023	01:09	-132.966	47.901	0	57.90	0	7.7900	0	32.4270	0	25.285	0	57.407	0	-1e10	8	-1e10	8	-1E+10	1	-1E+10	1	-1E+10	1	-1E+10	1	-1E+10	1	-1E+10	1
4902554	92	C	08/26/2023	01:09	-132.966	47.901	0	58.80	0	7.7410	0	32.4250	0	25.290	0	58.299	0	-1e10	8	-1e10	8	-1E+10	1	-1E+10	1	-1E+10	1	-1E+10	1	-1E+10	1	-1E+10	1
4902554	92	C	08/26/2023	01:09	-132.966	47.901	0	60.10	0	7.6240	0	32.4170	0	25.300	0	59.588	0	-1e10	8	-1e10	8	-1E+10	1	-1E+10	1	-1E+10	1	-1E+10	1	-1E+10	1	-1E+10	1
4902554	92	C	08/26/2023	01:09	-132.966	47.901	0	61.10	0	7.5520	0	32.4320	0	25.322	0	60.579	0	-1e10	8	-1e10	8	-1E+10	1	-1E+10	1	-1E+10	1	-1E+10	1	-1E+10	1	-1E+10	1
4902554	92	C	08/26/2023	01:09	-132.966	47.901	0	62.00	0	7.4790	0	32.4230	0	25.325	0	61.471	0	-1e10	8	-1e10	8	-1E+10	1	-1E+10	1	-1E+10	1	-1E+10	1	-1E+10	1	-1E+10	1
4902554	92	C	08/26/2023	01:09	-132.966	47.901	0	63.10	0	7.4300	0	32.4200	0	25.330	0	62.561	0	-1e10	8	-1e10	8	-1E+10	1	-1E+10	1	-1E+10	1	-1E+10	1	-1E+10	1	-1E+10	1
4902554	92	C	08/26/2023	01:09	-132.966	47.901	0	63.90	0	7.4020	0	32.4170	0	25.331	0	63.355	0	-1e10	8	-1e10	8	-1E+10	1	-1E+10	1	-1E+10	1	-1E+10	1	-1E+10	1	-1E+10	1
4902554	92	C	08/26/2023	01:09	-132.966	47.901	0	64.80	0	7.3880	0	32.4200	0	25.335	0	64.247	0	-1e10	8	-1e10	8	-1E+10	1	-1E+10	1	-1E+10	1	-1E+10	1	-1E+10	1	-1E+10	1
4902554	92	C	08/26/2023	01:09	-132.966	47.901	0	65.90	0	7.4080	0	32.4290	0	25.340	0	65.337	0	-1e10	8	-1e10	8	-1E+10	1	-1E+10	1	-1E+10	1	-1E+10	1	-1E+10	1	-1E+10	1
4902554	92	C	08/26/2023	01:09	-132.966	47.901	0	67.10	0	7.3710	0	32.4300	0	25.346	0	66.527	0	-1e10	8	-1e10	8	-1E+10	1	-1E+10	1	-1E+10	1	-1E+10	1	-1E+10	1	-1E+10	1
4902554	92	C	08/26/2023	01:09	-132.966	47.901	0	67.90	0	7.3400	0	32.4250	0	25.346	0	67.320	0	-1e10	8	-1e10	8	-1E+10	1	-1E+10	1	-1E+10	1	-1E+10	1	-1E+10	1	-1E+10	1
4902554	92	C	08/26/2023	01:09	-132.966	47.901	0	69.00	0	7.2920	0	32.4210	0	25.349	0	68.410	0	-1e10	8	-1e10	8	-1E+10	1	-1E+10	1	-1E+10	1	-1E+10	1	-1E+10	1	-1E+10	1
4902554	92	C	08/26/2023	01:09	-132.966	47.901	0	70.00	0	7.2740	0	32.4190	0	25.350	0	69.401	0	-1e10	8	-1e10	8	-1E+10	1	-1E+10	1	-1E+10	1	-1E+10	1	-1E+10	1	-1E+10	1
4902554	92	C	08/26/2023	01:09	-132.966	47.901	0	71.00	0	7.2470	0	32.4180	0	25.353	0	70.393	0	-1e10	8	-1e10	8	-1E+10	1	-1E+10	1	-1E+10	1	-1E+10	1	-1E+10	1	-1E+10	1
4902554	92	C	08/26/2023	01:09	-132.966	47.901	0	72.00	0	7.2320	0	32.4190	0	25.356	0	71.384	0	-1e10	8	-1e10	8	-1E+10	1	-1E+10	1	-1E+10	1	-1E+10	1	-1E+10	1	-1E+10	1
4902554	92	C	08/26/2023	01:09	-132.966	47.901	0	73.00	0	7.2370	0	32.4230	0	25.358	0	72.375	0	-1e10	8	-1e10	8	-1E+10	1	-1E+10	1	-1E+10	1	-1E+10	1	-1E+10	1	-1E+10	1
4902554	92	C	08/26/2023	01:09	-132.966	47.901	0	74.10	0	7.2370	0	32.4230	0	25.359	0	73.466	0	-1e10	8	-1e10	8	-1E+10	1	-1E+10	1	-1E+10	1	-1E+10	1	-1E+10	1	-1E+10	1
4902554	92	C	08/26/2023	01:09	-132.966	47.901	0	74.90	0	7.2500	0	32.4260	0	25.359	0	74.259	0	-1e10	8	-1e10	8	-1E+10	1	-1E+10	1	-1E+10	1	-1E+10	1	-1E+10	1	-1E+10	1
4902554	92	C	08/26/2023	01:09	-132.966	47.901	0	75.70	0	7.2270	0	32.4290	0	25.365	0	75.052	0	-1e10	8	-1e10	8	-1E+10	1	-1E+10	1	-1E+10	1	-1E+10	1	-1E+10	1	-1E+10	1
4902554	92	C	08/26/2023	01:09	-132.966	47.901	0	76.80	0	7.2200	0	32.4270	0	25.364	0	76.142	0	-1e10	8	-1e10	8	-1E+10	1	-1E+10	1	-1E+10	1	-1E+10	1	-1E+10	1	-1E+10	1
4902554	92	C	08/26/2023	01:09	-132.966	47.901	0	77.80	0	7.2070	0	32.4250	0	25.364	0	77.133	0	-1e10	8	-1e10	8	-1E+10	1	-1E+10	1	-1E+10	1	-1E+10	1	-1E+10	1	-1E+10	1
4902554	92	C	08/26/2023	01:09	-132.966	47.901	0	78.90	0	7.2010	0	32.4290	0	25.368	0	78.224	0	-1e10	8	-1e10	8	-1E+10	1	-1E+10	1	-1E+10	1	-1E+10	1	-1E+10	1	-1E+10	1
4902554	92	C	08/26/2023	01:09	-132.966	47.901	0	79.90	0	7.2100	0	32.4310	0	25.369	0	79.215	0	-1e10	8	-1e10	8	-1E+10	1	-1E+10	1	-1E+10	1	-1E+10	1	-1E+10	1	-1E+10	1
4902554	92	C	08/26/2023	01:09	-132.966	47.901	0	80.90	0	7.2140	0	32.4360	0	25.372	0	80.206	0	-1e10	8	-1e10	8	-1E+10	1	-1E+10	1	-1E+10	1	-1E+10	1	-1E+10	1	-1E+10	1
4902554	92	C	08/26/2023	01:09	-132.966	47.901	0	82.00	0	7.1900	0	32.4380	0	25.377	0	81.296	0	-1e10	8	-1e10	8	-1E+10	1	-1E+10	1	-1E+10	1	-1E+10	1	-1E+10	1	-1E+10	1
4902554	92	C	08/26/2023	01:09	-132.966	47.901	0	83.00	0	7.1860	0	32.4380	0	25.377	0	82.288	0	-1e10	8	-1e10	8	-1E+10	1	-1E+10	1	-1E+10	1	-1E+10	1	-1E+10	1	-1E+10	1
4902554	92	C	08/26/2023	01:09	-132.966	47.901	0	84.00	0	7.1740	0	32.4400	0	25.381	0	83.279	0	-1e10	8	-1e10	8	-1E+10	1	-1E+10	1	-1E+10	1	-1E+10	1	-1E+10	1	-1E+10	1
4902554	92	C	08/26/2023	01:09	-132.966	47.901	0	85.00	0	7.1650	0	32.4430	0	25.384	0	84.270	0	-1e10	8	-1e10	8	-1E+10	1	-1E+10	1	-1E+10	1	-1E+10	1	-1E+10	1	-1E+10	1
4902554	92	C	08/26/2023	01:09	-132.966	47.901	0	86.00	0	7.1520	0	32.4440	0	25.387	0	85.261	0	-1e10	8	-1e10	8	-1E+10	1	-1E+10	1	-1E+10	1	-1E+10	1	-1E+10	1	-1E+10	1
4902554	92	C	08/26/2023	01:09	-132.966	47.901	0	87.00	0	7.1460	0	32.4470	0	25.390	0	86.253	0	-1e10	8	-1e10	8	-1E+10	1	-1E+10	1	-1E+10	1	-1E+10	1	-1E+10	1	-1E+10	1
4902554	92	C	08/26/2023	01:09	-132.966	47.901	0	87.90	0	7.1360	0	32.4510	0	25.394	0	87.145	0	-1e10	8	-1e10	8	-1E+10	1	-1E+10	1	-1E+10	1	-1E+10	1	-1E+10	1	-1E+10	1
4902554	92	C	08/26/2023	01:09	-132.966	47.901	0	88.80	0	7.1290	0	32.4560	0	25.399	0	88.037	0	-1e10	8	-1e10	8	-1E+10	1	-1E+10	1	-1E+10	1	-1E+10	1	-1E+10	1	-1E+10	1
4902554	92	C	08/26/2023	01:09	-132.966	47.901	0	89.90	0	7.1250	0	32.4580	0	25.401	0	89.127	0	-1e10	8	-1e10	8	-1E+10	1	-1E+10	1	-1E+10	1	-1E+10	1	-1E+10	1	-1E+10	1
4902554	92	C	08/26/2023	01:09	-132.966	47.901	0	91.10	0	7.1190	0	32.4610	0	25.405	0	90.316	0	-1e10	8	-1e10	8	-1E+10	1	-1E+10	1	-1E+10	1	-1E+10	1	-1E+10	1	-1E+10	1
4902554	92	C	08/26/2023	01:09	-132.966	47.901	0	91.80	0	7.1130	0	32.4670	0	25.410	0	91.010	0	-1e10	8	-1e10	8	-1E+10	1	-1E+10	1	-1E+10	1	-1E+10	1	-1E+10	1	-1E+10	1
4902554	92	C	08/26/2023	01:09	-132.966	47.901	0	93.10	0	7.0980	0	32.4750	0	25.418	0	92.299	0	-1e10	8	-1e10	8	-1E+10	1	-1E+10	1	-1E+10	1	-1E+10	1	-1E+10	1	-1E+10	1
4902554	92	C	08/26/2023	01:09	-132.966	47.901	0	94.00	0	7.0780	0	32.4840	0	25.428	0	93.191	0	-1e10	8	-1e10	8	-1E+10	1	-1E+10	1	-1E+10	1	-1E+10	1	-1E+10	1	-1E+10	1
4902554	92	C	08/26/2023	01:09	-132.966	47.901	0	94.90	0	7.0480	0	32.5000	0	25.445	0	94.083	0	-1e10	8	-1e10	8	-1E+10	1	-1E+10	1	-1E+10	1	-1E+10	1	-1E+10	1	-1E+10	1
4902554	92	C	08/26/2023	01:09	-132.966	47.901	0	96.10	0	7.0210	0	32.5230	0	25.467	0	95.272	0	-1e10	8	-1e10	8	-1E+10	1	-1E+10	1	-1E+10	1	-1E+10	1	-1E+10	1	-1E+10	1
4902554	92	C	08/26/2023	01:09	-132.966	47.901	0	97.10	0	7.0160	0	32.5310	0	25.474	0	96.263	0	-1e10	8	-1e10	8	-1E+10	1	-1E+10	1	-1E+10	1	-1E+10	1	-1E+10	1	-1E+10	1
4902554	92	C	08/26/2023	01:09	-132.966	47.901	0	97.90	0	7.0130	0	32.5330	0	25.475	0	97.056	0	-1e10	8	-1e10	8	-1E+10	1	-1E+10	1	-1E+10	1	-1E+10	1	-1E+10	1	-1E+10	1
4902554	92	C	08/26/2023	01:09	-132.966	47.901	0	99.10	0	7.0020	0	32.5500	0	25.490	0	98.246	0	-1e10	8	-1e10	8	-1E+10	1	-1E+10	1	-1E+10	1	-1E+10	1	-1E+10	1	-1E+10	1
4902554	92	C	08/26/2023	01:09	-132.966	47.901	0	100.00	0	6.9780	0	32.5630	0	25.504	0	99.138	0	-1e10	8	-1e10	8	-1E+10	1	-1E+10	1	-1E+10	1	-1E+10	1	-1E+10	1	-1E+10	1
4902554	92	C	08/26/2023	01:09	-132.966	47.901	0	100.90	0	6.9560	0	32.5760	0	25.517	0	100.030	0	-1e10	8	-1e10	8	-1E+10	1	-1E+10	1	-1E+10	1	-1E+10	1	-1E+10	1	-1E+10	1
4902554	92	C	08/26/2023	01:09	-132.966	47.901	0	102.10	0	6.9130	0	32.6100	0	25.549	0	101.219	0	-1e10	8	-1e10	8	-1E+10	1	-1E+10	1	-1E+10	1	-1E+10	1	-1E+10	1	-1E+10	1
4902554	92	C	08/26/2023	01:09	-132.966	47.901	0	103.00	0	6.8560	0	32.6530	0	25.591	0	102.111	0	-1e10	8	-1e10	8	-1E+10	1	-1E+10	1	-1E+10	1	-1E+10	1	-1E+10	1	-1E+10	1
4902554	92	C	08/26/2023	01:09	-132.966	47.901	0	104.00	0	6.8350	0	32.6850	0	25.619	0	103.102	0	-1e10	8	-1e10	8	-1E+10	1	-1E+10	1	-1E+10	1	-1E+10	1	-1E+10	1	-1E+10	1
4902554	92	C	08/26/2023	01:09	-132.966	47.901	0	105.10	0	6.8260	0	32.6930	0	25.626	0	104.192	0	-1e10	8	-1e10	8	-1E+10	1	-1E+10	1	-1E+10	1	-1E+10	1	-1E+10	1	-1E+10	1
4902554	92	C	08/26/2023	01:09	-132.966	47.901	0	106.00	0	6.7730	0	32.7150	0	25.651	0	105.084	0	-1e10	8	-1e10	8	-1E+10	1	-1E+10	1	-1E+10	1	-1E+10	1	-1E+10	1	-1E+10	1
4902554	92	C	08/26/2023	01:09	-132.966	47.901	0	107.00	0	6.7130	0	32.7530	0	25.688	0	106.076	0	-1e10	8	-1e10	8	-1E+10	1	-1E+10	1	-1E+10	1	-1E+10	1	-1E+10	1	-1E+10	1
4902554	92	C	08/26/2023	01:09	-132.966	47.901	0	108.20	0	6.7050	0	32.7660	0	25.700	0	107.265	0	-1e10	8	-1e10	8	-1E+10	1	-1E+10	1	-1E+10	1	-1E+10	1	-1E+10	1	-1E+10	1
4902554	92	C	08/26/2023	01:09	-132.966	47.901	0	108.90	0	6.6870	0	32.7800	0	25.713	0	107.959	0	-1e10	8	-1e10	8	-1E+10	1	-1E+10	1	-1E+10	1	-1E+10	1	-1E+10	1	-1E+10	1
4902554	92	C	08/26/2023	01:09	-132.966	47.901	0	110.10	0	6.6670	0	32.7990	0	25.731	0	109.148	0	-1e10	8	-1e10	8	-1E+10	1	-1E+10	1	-1E+10	1	-1E+10	1	-1E+10	1	-1E+10	1
4902554	92	C	08/26/2023	01:09	-132.966	47.901	0	111.00	0	6.6550	0	32.8170	0	25.746	0	110.040	0	-1e10	8	-1e10	8	-1E+10	1	-1E+10	1	-1E+10	1	-1E+10	1	-1E+10	1	-1E+10	1
4902554	92	C	08/26/2023	01:09	-132.966	47.901	0	112.30	0	6.6300	0	32.8520	0	25.777	0	111.328	0	-1e10	8	-1e10	8	-1E+10	1	-1E+10	1	-1E+10	1	-1E+10	1	-1E+10	1	-1E+10	1
4902554	92	C	08/26/2023	01:09	-132.966	47.901	0	112.90	0	6.6150	0	32.8640	0	25.789	0	111.923	0	-1e10	8	-1e10	8	-1E+10	1	-1E+10	1	-1E+10	1	-1E+10	1	-1E+10	1	-1E+10	1
4902554	92	C	08/26/2023	01:09	-132.966	47.901	0	114.00	0	6.6030	0	32.8750	0	25.799	0	113.013	0	-1e10	8	-1e10	8	-1E+10	1	-1E+10	1	-1E+10	1	-1E+10	1	-1E+10	1	-1E+10	1
4902554	92	C	08/26/2023	01:09	-132.966	47.901	0	115.00	0	6.5630	0	32.9000	0	25.824	0	114.004	0	-1e10	8	-1e10	8	-1E+10	1	-1E+10	1	-1E+10	1	-1E+10	1	-1E+10	1	-1E+10	1
4902554	92	C	08/26/2023	01:09	-132.966	47.901	0	116.10	0	6.5240	0	32.9240	0	25.848	0	115.094	0	-1e10	8	-1e10	8	-1E+10	1	-1E+10	1	-1E+10	1	-1E+10	1	-1E+10	1	-1E+10	1
4902554	92	C	08/26/2023	01:09	-132.966	47.901	0	116.90	0	6.5020	0	32.9350	0	25.859	0	115.887	0	-1e10	8	-1e10	8	-1E+10	1	-1E+10	1	-1E+10	1	-1E+10	1	-1E+10	1	-1E+10	1
4902554	92	C	08/26/2023	01:09	-132.966	47.901	0	118.20	0	6.4520	0	32.9680	0	25.892	0	117.176	0	-1e10	8	-1e10	8	-1E+10	1	-1E+10	1	-1E+10	1	-1E+10	1	-1E+10	1	-1E+10	1
4902554	92	C	08/26/2023	01:09	-132.966	47.901	0	118.90	0	6.3720	0	33.0190	0	25.942	0	117.869	0	-1e10	8	-1e10	8	-1E+10	1	-1E+10	1	-1E+10	1	-1E+10	1	-1E+10	1	-1E+10	1
4902554	92	C	08/26/2023	01:09	-132.966	47.901	0	120.00	0	6.3380	0	33.0410	0	25.964	0	118.960	0	-1e10	8	-1e10	8	-1E+10	1	-1E+10	1	-1E+10	1	-1E+10	1	-1E+10	1	-1E+10	1
4902554	92	C	08/26/2023	01:09	-132.966	47.901	0	121.00	0	6.3240	0	33.0500	0	25.973	0	119.951	0	-1e10	8	-1e10	8	-1E+10	1	-1E+10	1	-1E+10	1	-1E+10	1	-1E+10	1	-1E+10	1
4902554	92	C	08/26/2023	01:09	-132.966	47.901	0	122.00	0	6.3080	0	33.0600	0	25.983	0	120.942	0	-1e10	8	-1e10	8	-1E+10	1	-1E+10	1	-1E+10	1	-1E+10	1	-1E+10	1	-1E+10	1
4902554	92	C	08/26/2023	01:09	-132.966	47.901	0	122.90	0	6.2860	0	33.0730	0	25.996	0	121.834	0	-1e10	8	-1e10	8	-1E+10	1	-1E+10	1	-1E+10	1	-1E+10	1	-1E+10	1	-1E+10	1
4902554	92	C	08/26/2023	01:09	-132.966	47.901	0	123.80	0	6.2620	0	33.0910	0	26.013	0	122.725	0	-1e10	8	-1e10	8	-1E+10	1	-1E+10	1	-1E+10	1	-1E+10	1	-1E+10	1	-1E+10	1
4902554	92	C	08/26/2023	01:09	-132.966	47.901	0	125.00	0	6.1840	0	33.1480	0	26.068	0	123.915	0	-1e10	8	-1e10	8	-1E+10	1	-1E+10	1	-1E+10	1	-1E+10	1	-1E+10	1	-1E+10	1
4902554	92	C	08/26/2023	01:09	-132.966	47.901	0	126.00	0	6.1270	0	33.1810	0	26.101	0	124.906	0	-1e10	8	-1e10	8	-1E+10	1	-1E+10	1	-1E+10	1	-1E+10	1	-1E+10	1	-1E+10	1
4902554	92	C	08/26/2023	01:09	-132.966	47.901	0	127.00	0	6.0970	0	33.2020	0	26.121	0	125.897	0	-1e10	8	-1e10	8	-1E+10	1	-1E+10	1	-1E+10	1	-1E+10	1	-1E+10	1	-1E+10	1
4902554	92	C	08/26/2023	01:09	-132.966	47.901	0	128.20	0	6.0620	0	33.2250	0	26.144	0	127.086	0	-1e10	8	-1e10	8	-1E+10	1	-1E+10	1	-1E+10	1	-1E+10	1	-1E+10	1	-1E+10	1
4902554	92	C	08/26/2023	01:09	-132.966	47.901	0	128.90	0	6.0480	0	33.2330	0	26.152	0	127.780	0	-1e10	8	-1e10	8	-1E+10	1	-1E+10	1	-1E+10	1	-1E+10	1	-1E+10	1	-1E+10	1
4902554	92	C	08/26/2023	01:09	-132.966	47.901	0	129.70	0	6.0300	0	33.2460	0	26.165	0	128.572	0	-1e10	8	-1e10	8	-1E+10	1	-1E+10	1	-1E+10	1	-1E+10	1	-1E+10	1	-1E+10	1
4902554	92	C	08/26/2023	01:09	-132.966	47.901	0	130.90	0	5.9810	0	33.2890	0	26.205	0	129.762	0	-1e10	8	-1e10	8	-1E+10	1	-1E+10	1	-1E+10	1	-1E+10	1	-1E+10	1	-1E+10	1
4902554	92	C	08/26/2023	01:09	-132.966	47.901	0	132.30	0	5.9280	0	33.3340	0	26.247	0	131.149	0	-1e10	8	-1e10	8	-1E+10	1	-1E+10	1	-1E+10	1	-1E+10	1	-1E+10	1	-1E+10	1
4902554	92	C	08/26/2023	01:09	-132.966	47.901	0	133.20	0	5.9290	0	33.3420	0	26.253	0	132.041	0	-1e10	8	-1e10	8	-1E+10	1	-1E+10	1	-1E+10	1	-1E+10	1	-1E+10	1	-1E+10	1
4902554	92	C	08/26/2023	01:09	-132.966	47.901	0	134.10	0	5.9280	0	33.3420	0	26.253	0	132.933	0	-1e10	8	-1e10	8	-1E+10	1	-1E+10	1	-1E+10	1	-1E+10	1	-1E+10	1	-1E+10	1
4902554	92	C	08/26/2023	01:09	-132.966	47.901	0	135.00	0	5.9360	0	33.3390	0	26.250	0	133.825	0	-1e10	8	-1e10	8	-1E+10	1	-1E+10	1	-1E+10	1	-1E+10	1	-1E+10	1	-1E+10	1
4902554	92	C	08/26/2023	01:09	-132.966	47.901	0	135.90	0	5.9380	0	33.3450	0	26.254	0	134.716	0	-1e10	8	-1e10	8	-1E+10	1	-1E+10	1	-1E+10	1	-1E+10	1	-1E+10	1	-1E+10	1
4902554	92	C	08/26/2023	01:09	-132.966	47.901	0	136.80	0	5.9400	0	33.3470	0	26.256	0	135.608	0	-1e10	8	-1e10	8	-1E+10	1	-1E+10	1	-1E+10	1	-1E+10	1	-1E+10	1	-1E+10	1
4902554	92	C	08/26/2023	01:09	-132.966	47.901	0	137.70	0	5.9390	0	33.3490	0	26.257	0	136.500	0	-1e10	8	-1e10	8	-1E+10	1	-1E+10	1	-1E+10	1	-1E+10	1	-1E+10	1	-1E+10	1
4902554	92	C	08/26/2023	01:09	-132.966	47.901	0	138.60	0	5.9400	0	33.3500	0	26.258	0	137.392	0	-1e10	8	-1e10	8	-1E+10	1	-1E+10	1	-1E+10	1	-1E+10	1	-1E+10	1	-1E+10	1
4902554	92	C	08/26/2023	01:09	-132.966	47.901	0	139.90	0	5.9150	0	33.3830	0	26.287	0	138.680	0	-1e10	8	-1e10	8	-1E+10	1	-1E+10	1	-1E+10	1	-1E+10	1	-1E+10	1	-1E+10	1
4902554	92	C	08/26/2023	01:09	-132.966	47.901	0	141.40	0	5.9110	0	33.3850	0	26.289	0	140.167	0	-1e10	8	-1e10	8	-1E+10	1	-1E+10	1	-1E+10	1	-1E+10	1	-1E+10	1	-1E+10	1
4902554	92	C	08/26/2023	01:09	-132.966	47.901	0	142.20	0	5.9090	0	33.3860	0	26.290	0	140.959	0	-1e10	8	-1e10	8	-1E+10	1	-1E+10	1	-1E+10	1	-1E+10	1	-1E+10	1	-1E+10	1
4902554	92	C	08/26/2023	01:09	-132.966	47.901	0	143.20	0	5.8910	0	33.3960	0	26.300	0	141.950	0	-1e10	8	-1e10	8	-1E+10	1	-1E+10	1	-1E+10	1	-1E+10	1	-1E+10	1	-1E+10	1
4902554	92	C	08/26/2023	01:09	-132.966	47.901	0	144.10	0	5.8860	0	33.3930	0	26.299	0	142.842	0	-1e10	8	-1e10	8	-1E+10	1	-1E+10	1	-1E+10	1	-1E+10	1	-1E+10	1	-1E+10	1
4902554	92	C	08/26/2023	01:09	-132.966	47.901	0	145.10	0	5.8800	0	33.3970	0	26.302	0	143.833	0	-1e10	8	-1e10	8	-1E+10	1	-1E+10	1	-1E+10	1	-1E+10	1	-1E+10	1	-1E+10	1
4902554	92	C	08/26/2023	01:09	-132.966	47.901	0	146.00	0	5.8670	0	33.4030	0	26.309	0	144.725	0	-1e10	8	-1e10	8	-1E+10	1	-1E+10	1	-1E+10	1	-1E+10	1	-1E+10	1	-1E+10	1
4902554	92	C	08/26/2023	01:09	-132.966	47.901	0	147.00	0	5.8610	0	33.4280	0	26.329	0	145.716	0	-1e10	8	-1e10	8	-1E+10	1	-1E+10	1	-1E+10	1	-1E+10	1	-1E+10	1	-1E+10	1
4902554	92	C	08/26/2023	01:09	-132.966	47.901	0	148.00	0	5.8620	0	33.4330	0	26.333	0	146.707	0	-1e10	8	-1e10	8	-1E+10	1	-1E+10	1	-1E+10	1	-1E+10	1	-1E+10	1	-1E+10	1
4902554	92	C	08/26/2023	01:09	-132.966	47.901	0	148.90	0	5.8590	0	33.4360	0	26.336	0	147.599	0	-1e10	8	-1e10	8	-1E+10	1	-1E+10	1	-1E+10	1	-1E+10	1	-1E+10	1	-1E+10	1
4902554	92	C	08/26/2023	01:09	-132.966	47.901	0	149.90	0	5.8560	0	33.4390	0	26.339	0	148.589	0	-1e10	8	-1e10	8	-1E+10	1	-1E+10	1	-1E+10	1	-1E+10	1	-1E+10	1	-1E+10	1
4902554	92	C	08/26/2023	01:09	-132.966	47.901	0	150.90	0	5.8540	0	33.4430	0	26.342	0	149.580	0	-1e10	8	-1e10	8	-1E+10	1	-1E+10	1	-1E+10	1	-1E+10	1	-1E+10	1	-1E+10	1
4902554	92	C	08/26/2023	01:09	-132.966	47.901	0	151.80	0	5.8550	0	33.4520	0	26.349	0	150.472	0	-1e10	8	-1e10	8	-1E+10	1	-1E+10	1	-1E+10	1	-1E+10	1	-1E+10	1	-1E+10	1
4902554	92	C	08/26/2023	01:09	-132.966	47.901	0	152.80	0	5.8500	0	33.4540	0	26.351	0	151.463	0	-1e10	8	-1e10	8	-1E+10	1	-1E+10	1	-1E+10	1	-1E+10	1	-1E+10	1	-1E+10	1
4902554	92	C	08/26/2023	01:09	-132.966	47.901	0	153.70	0	5.8420	0	33.4610	0	26.358	0	152.355	0	-1e10	8	-1e10	8	-1E+10	1	-1E+10	1	-1E+10	1	-1E+10	1	-1E+10	1	-1E+10	1
4902554	92	C	08/26/2023	01:09	-132.966	47.901	0	154.70	0	5.8400	0	33.4660	0	26.362	0	153.346	0	-1e10	8	-1e10	8	-1E+10	1	-1E+10	1	-1E+10	1	-1E+10	1	-1E+10	1	-1E+10	1
4902554	92	C	08/26/2023	01:09	-132.966	47.901	0	155.50	0	5.8310	0	33.4720	0	26.368	0	154.138	0	-1e10	8	-1e10	8	-1E+10	1	-1E+10	1	-1E+10	1	-1E+10	1	-1E+10	1	-1E+10	1
4902554	92	C	08/26/2023	01:09	-132.966	47.901	0	156.90	0	5.7950	0	33.4950	0	26.390	0	155.526	0	-1e10	8	-1e10	8	-1E+10	1	-1E+10	1	-1E+10	1	-1E+10	1	-1E+10	1	-1E+10	1
4902554	92	C	08/26/2023	01:09	-132.966	47.901	0	158.30	0	5.7720	0	33.5190	0	26.412	0	156.913	0	-1e10	8	-1e10	8	-1E+10	1	-1E+10	1	-1E+10	1	-1E+10	1	-1E+10	1	-1E+10	1
4902554	92	C	08/26/2023	01:09	-132.966	47.901	0	159.20	0	5.7630	0	33.5270	0	26.420	0	157.805	0	-1e10	8	-1e10	8	-1E+10	1	-1E+10	1	-1E+10	1	-1E+10	1	-1E+10	1	-1E+10	1
4902554	92	C	08/26/2023	01:09	-132.966	47.901	0	160.10	0	5.7620	0	33.5270	0	26.420	0	158.696	0	-1e10	8	-1e10	8	-1E+10	1	-1E+10	1	-1E+10	1	-1E+10	1	-1E+10	1	-1E+10	1
4902554	92	C	08/26/2023	01:09	-132.966	47.901	0	161.00	0	5.7550	0	33.5280	0	26.421	0	159.588	0	-1e10	8	-1e10	8	-1E+10	1	-1E+10	1	-1E+10	1	-1E+10	1	-1E+10	1	-1E+10	1
4902554	92	C	08/26/2023	01:09	-132.966	47.901	0	161.90	0	5.7450	0	33.5330	0	26.427	0	160.480	0	-1e10	8	-1e10	8	-1E+10	1	-1E+10	1	-1E+10	1	-1E+10	1	-1E+10	1	-1E+10	1
4902554	92	C	08/26/2023	01:09	-132.966	47.901	0	162.80	0	5.7180	0	33.5490	0	26.443	0	161.372	0	-1e10	8	-1e10	8	-1E+10	1	-1E+10	1	-1E+10	1	-1E+10	1	-1E+10	1	-1E+10	1
4902554	92	C	08/26/2023	01:09	-132.966	47.901	0	163.70	0	5.7040	0	33.5670	0	26.459	0	162.263	0	-1e10	8	-1e10	8	-1E+10	1	-1E+10	1	-1E+10	1	-1E+10	1	-1E+10	1	-1E+10	1
4902554	92	C	08/26/2023	01:09	-132.966	47.901	0	164.60	0	5.7060	0	33.5690	0	26.460	0	163.155	0	-1e10	8	-1e10	8	-1E+10	1	-1E+10	1	-1E+10	1	-1E+10	1	-1E+10	1	-1E+10	1
4902554	92	C	08/26/2023	01:09	-132.966	47.901	0	165.90	0	5.6950	0	33.5800	0	26.470	0	164.443	0	-1e10	8	-1e10	8	-1E+10	1	-1E+10	1	-1E+10	1	-1E+10	1	-1E+10	1	-1E+10	1
4902554	92	C	08/26/2023	01:09	-132.966	47.901	0	167.30	0	5.6150	0	33.6100	0	26.503	0	165.830	0	-1e10	8	-1e10	8	-1E+10	1	-1E+10	1	-1E+10	1	-1E+10	1	-1E+10	1	-1E+10	1
4902554	92	C	08/26/2023	01:09	-132.966	47.901	0	168.30	0	5.5910	0	33.6320	0	26.524	0	166.821	0	-1e10	8	-1e10	8	-1E+10	1	-1E+10	1	-1E+10	1	-1E+10	1	-1E+10	1	-1E+10	1
4902554	92	C	08/26/2023	01:09	-132.966	47.901	0	169.20	0	5.5830	0	33.6370	0	26.528	0	167.713	0	-1e10	8	-1e10	8	-1E+10	1	-1E+10	1	-1E+10	1	-1E+10	1	-1E+10	1	-1E+10	1
4902554	92	C	08/26/2023	01:09	-132.966	47.901	0	170.20	0	5.5730	0	33.6430	0	26.534	0	168.704	0	-1e10	8	-1e10	8	-1E+10	1	-1E+10	1	-1E+10	1	-1E+10	1	-1E+10	1	-1E+10	1
4902554	92	C	08/26/2023	01:09	-132.966	47.901	0	171.10	0	5.5620	0	33.6500	0	26.541	0	169.595	0	-1e10	8	-1e10	8	-1E+10	1	-1E+10	1	-1E+10	1	-1E+10	1	-1E+10	1	-1E+10	1
4902554	92	C	08/26/2023	01:09	-132.966	47.901	0	172.10	0	5.5570	0	33.6530	0	26.544	0	170.586	0	-1e10	8	-1e10	8	-1E+10	1	-1E+10	1	-1E+10	1	-1E+10	1	-1E+10	1	-1E+10	1
4902554	92	C	08/26/2023	01:09	-132.966	47.901	0	173.00	0	5.5510	0	33.6560	0	26.547	0	171.478	0	-1e10	8	-1e10	8	-1E+10	1	-1E+10	1	-1E+10	1	-1E+10	1	-1E+10	1	-1E+10	1
4902554	92	C	08/26/2023	01:09	-132.966	47.901	0	174.00	0	5.5450	0	33.6580	0	26.550	0	172.469	0	-1e10	8	-1e10	8	-1E+10	1	-1E+10	1	-1E+10	1	-1E+10	1	-1E+10	1	-1E+10	1
4902554	92	C	08/26/2023	01:09	-132.966	47.901	0	174.90	0	5.5380	0	33.6630	0	26.554	0	173.360	0	-1e10	8	-1e10	8	-1E+10	1	-1E+10	1	-1E+10	1	-1E+10	1	-1E+10	1	-1E+10	1
4902554	92	C	08/26/2023	01:09	-132.966	47.901	0	175.90	0	5.5350	0	33.6650	0	26.556	0	174.351	0	-1e10	8	-1e10	8	-1E+10	1	-1E+10	1	-1E+10	1	-1E+10	1	-1E+10	1	-1E+10	1
4902554	92	C	08/26/2023	01:09	-132.966	47.901	0	176.80	0	5.5340	0	33.6650	0	26.557	0	175.243	0	-1e10	8	-1e10	8	-1E+10	1	-1E+10	1	-1E+10	1	-1E+10	1	-1E+10	1	-1E+10	1
4902554	92	C	08/26/2023	01:09	-132.966	47.901	0	177.70	0	5.5320	0	33.6670	0	26.558	0	176.135	0	-1e10	8	-1e10	8	-1E+10	1	-1E+10	1	-1E+10	1	-1E+10	1	-1E+10	1	-1E+10	1
4902554	92	C	08/26/2023	01:09	-132.966	47.901	0	178.70	0	5.5220	0	33.6740	0	26.565	0	177.125	0	-1e10	8	-1e10	8	-1E+10	1	-1E+10	1	-1E+10	1	-1E+10	1	-1E+10	1	-1E+10	1
4902554	92	C	08/26/2023	01:09	-132.966	47.901	0	179.70	0	5.5060	0	33.6820	0	26.573	0	178.116	0	-1e10	8	-1e10	8	-1E+10	1	-1E+10	1	-1E+10	1	-1E+10	1	-1E+10	1	-1E+10	1
4902554	92	C	08/26/2023	01:09	-132.966	47.901	0	180.60	0	5.5000	0	33.6840	0	26.576	0	179.008	0	-1e10	8	-1e10	8	-1E+10	1	-1E+10	1	-1E+10	1	-1E+10	1	-1E+10	1	-1E+10	1
4902554	92	C	08/26/2023	01:09	-132.966	47.901	0	181.60	0	5.4910	0	33.6880	0	26.580	0	179.999	0	-1e10	8	-1e10	8	-1E+10	1	-1E+10	1	-1E+10	1	-1E+10	1	-1E+10	1	-1E+10	1
4902554	92	C	08/26/2023	01:09	-132.966	47.901	0	182.60	0	5.4840	0	33.6920	0	26.584	0	180.989	0	-1e10	8	-1e10	8	-1E+10	1	-1E+10	1	-1E+10	1	-1E+10	1	-1E+10	1	-1E+10	1
4902554	92	C	08/26/2023	01:09	-132.966	47.901	0	183.60	0	5.4610	0	33.7010	0	26.594	0	181.980	0	-1e10	8	-1e10	8	-1E+10	1	-1E+10	1	-1E+10	1	-1E+10	1	-1E+10	1	-1E+10	1
4902554	92	C	08/26/2023	01:09	-132.966	47.901	0	184.60	0	5.4460	0	33.7040	0	26.598	0	182.971	0	-1e10	8	-1e10	8	-1E+10	1	-1E+10	1	-1E+10	1	-1E+10	1	-1E+10	1	-1E+10	1
4902554	92	C	08/26/2023	01:09	-132.966	47.901	0	185.70	0	5.4440	0	33.7050	0	26.599	0	184.061	0	-1e10	8	-1e10	8	-1E+10	1	-1E+10	1	-1E+10	1	-1E+10	1	-1E+10	1	-1E+10	1
4902554	92	C	08/26/2023	01:09	-132.966	47.901	0	186.70	0	5.4400	0	33.7080	0	26.602	0	185.051	0	-1e10	8	-1e10	8	-1E+10	1	-1E+10	1	-1E+10	1	-1E+10	1	-1E+10	1	-1E+10	1
4902554	92	C	08/26/2023	01:09	-132.966	47.901	0	187.70	0	5.4290	0	33.7090	0	26.604	0	186.042	0	-1e10	8	-1e10	8	-1E+10	1	-1E+10	1	-1E+10	1	-1E+10	1	-1E+10	1	-1E+10	1
4902554	92	C	08/26/2023	01:09	-132.966	47.901	0	188.70	0	5.4290	0	33.7090	0	26.604	0	187.033	0	-1e10	8	-1e10	8	-1E+10	1	-1E+10	1	-1E+10	1	-1E+10	1	-1E+10	1	-1E+10	1
4902554	92	C	08/26/2023	01:09	-132.966	47.901	0	189.70	0	5.4290	0	33.7090	0	26.604	0	188.023	0	-1e10	8	-1e10	8	-1E+10	1	-1E+10	1	-1E+10	1	-1E+10	1	-1E+10	1	-1E+10	1
4902554	92	C	08/26/2023	01:09	-132.966	47.901	0	190.80	0	5.4280	0	33.7090	0	26.604	0	189.113	0	-1e10	8	-1e10	8	-1E+10	1	-1E+10	1	-1E+10	1	-1E+10	1	-1E+10	1	-1E+10	1
4902554	92	C	08/26/2023	01:09	-132.966	47.901	0	191.80	0	5.4280	0	33.7090	0	26.604	0	190.104	0	-1e10	8	-1e10	8	-1E+10	1	-1E+10	1	-1E+10	1	-1E+10	1	-1E+10	1	-1E+10	1
4902554	92	C	08/26/2023	01:09	-132.966	47.901	0	192.90	0	5.4220	0	33.7110	0	26.606	0	191.194	0	-1e10	8	-1e10	8	-1E+10	1	-1E+10	1	-1E+10	1	-1E+10	1	-1E+10	1	-1E+10	1
4902554	92	C	08/26/2023	01:09	-132.966	47.901	0	194.00	0	5.4140	0	33.7120	0	26.608	0	192.283	0	-1e10	8	-1e10	8	-1E+10	1	-1E+10	1	-1E+10	1	-1E+10	1	-1E+10	1	-1E+10	1
4902554	92	C	08/26/2023	01:09	-132.966	47.901	0	195.00	0	5.4010	0	33.7160	0	26.613	0	193.274	0	-1e10	8	-1e10	8	-1E+10	1	-1E+10	1	-1E+10	1	-1E+10	1	-1E+10	1	-1E+10	1
4902554	92	C	08/26/2023	01:09	-132.966	47.901	0	196.10	0	5.3860	0	33.7210	0	26.619	0	194.364	0	-1e10	8	-1e10	8	-1E+10	1	-1E+10	1	-1E+10	1	-1E+10	1	-1E+10	1	-1E+10	1
4902554	92	C	08/26/2023	01:09	-132.966	47.901	0	197.20	0	5.3590	0	33.7270	0	26.627	0	195.454	0	-1e10	8	-1e10	8	-1E+10	1	-1E+10	1	-1E+10	1	-1E+10	1	-1E+10	1	-1E+10	1
4902554	92	C	08/26/2023	01:09	-132.966	47.901	0	198.30	0	5.3530	0	33.7290	0	26.629	0	196.543	0	-1e10	8	-1e10	8	-1E+10	1	-1E+10	1	-1E+10	1	-1E+10	1	-1E+10	1	-1E+10	1
4902554	92	C	08/26/2023	01:09	-132.966	47.901	0	199.40	0	5.3410	0	33.7310	0	26.632	0	197.633	0	-1e10	8	-1e10	8	-1E+10	1	-1E+10	1	-1E+10	1	-1E+10	1	-1E+10	1	-1E+10	1
4902554	92	C	08/26/2023	01:09	-132.966	47.901	0	200.40	0	5.3340	0	33.7330	0	26.634	0	198.624	0	-1e10	8	-1e10	8	-1E+10	1	-1E+10	1	-1E+10	1	-1E+10	1	-1E+10	1	-1E+10	1
4902554	92	C	08/26/2023	01:09	-132.966	47.901	0	201.50	0	5.3310	0	33.7340	0	26.635	0	199.713	0	-1e10	8	-1e10	8	-1E+10	1	-1E+10	1	-1E+10	1	-1E+10	1	-1E+10	1	-1E+10	1
4902554	92	C	08/26/2023	01:09	-132.966	47.901	0	202.60	0	5.3220	0	33.7350	0	26.637	0	200.803	0	-1e10	8	-1e10	8	-1E+10	1	-1E+10	1	-1E+10	1	-1E+10	1	-1E+10	1	-1E+10	1
4902554	92	C	08/26/2023	01:09	-132.966	47.901	0	203.70	0	5.3120	0	33.7380	0	26.641	0	201.893	0	-1e10	8	-1e10	8	-1E+10	1	-1E+10	1	-1E+10	1	-1E+10	1	-1E+10	1	-1E+10	1
4902554	92	C	08/26/2023	01:09	-132.966	47.901	0	204.70	0	5.3090	0	33.7380	0	26.641	0	202.884	0	-1e10	8	-1e10	8	-1E+10	1	-1E+10	1	-1E+10	1	-1E+10	1	-1E+10	1	-1E+10	1
4902554	92	C	08/26/2023	01:09	-132.966	47.901	0	205.80	0	5.3070	0	33.7380	0	26.641	0	203.973	0	-1e10	8	-1e10	8	-1E+10	1	-1E+10	1	-1E+10	1	-1E+10	1	-1E+10	1	-1E+10	1
4902554	92	C	08/26/2023	01:09	-132.966	47.901	0	206.90	0	5.3070	0	33.7390	0	26.642	0	205.063	0	-1e10	8	-1e10	8	-1E+10	1	-1E+10	1	-1E+10	1	-1E+10	1	-1E+10	1	-1E+10	1
4902554	92	C	08/26/2023	01:09	-132.966	47.901	0	207.90	0	5.3180	0	33.7430	0	26.644	0	206.054	0	-1e10	8	-1e10	8	-1E+10	1	-1E+10	1	-1E+10	1	-1E+10	1	-1E+10	1	-1E+10	1
4902554	92	C	08/26/2023	01:09	-132.966	47.901	0	209.00	0	5.3080	0	33.7460	0	26.648	0	207.143	0	-1e10	8	-1e10	8	-1E+10	1	-1E+10	1	-1E+10	1	-1E+10	1	-1E+10	1	-1E+10	1
4902554	92	C	08/26/2023	01:09	-132.966	47.901	0	210.00	0	5.3030	0	33.7460	0	26.648	0	208.134	0	-1e10	8	-1e10	8	-1E+10	1	-1E+10	1	-1E+10	1	-1E+10	1	-1E+10	1	-1E+10	1
4902554	92	C	08/26/2023	01:09	-132.966	47.901	0	211.00	0	5.3030	0	33.7470	0	26.649	0	209.124	0	-1e10	8	-1e10	8	-1E+10	1	-1E+10	1	-1E+10	1	-1E+10	1	-1E+10	1	-1E+10	1
4902554	92	C	08/26/2023	01:09	-132.966	47.901	0	212.10	0	5.2810	0	33.7470	0	26.652	0	210.214	0	-1e10	8	-1e10	8	-1E+10	1	-1E+10	1	-1E+10	1	-1E+10	1	-1E+10	1	-1E+10	1
4902554	92	C	08/26/2023	01:09	-132.966	47.901	0	213.10	0	5.2550	0	33.7520	0	26.659	0	211.205	0	-1e10	8	-1e10	8	-1E+10	1	-1E+10	1	-1E+10	1	-1E+10	1	-1E+10	1	-1E+10	1
4902554	92	C	08/26/2023	01:09	-132.966	47.901	0	214.10	0	5.2310	0	33.7520	0	26.661	0	212.195	0	-1e10	8	-1e10	8	-1E+10	1	-1E+10	1	-1E+10	1	-1E+10	1	-1E+10	1	-1E+10	1
4902554	92	C	08/26/2023	01:09	-132.966	47.901	0	215.20	0	5.2290	0	33.7540	0	26.663	0	213.285	0	-1e10	8	-1e10	8	-1E+10	1	-1E+10	1	-1E+10	1	-1E+10	1	-1E+10	1	-1E+10	1
4902554	92	C	08/26/2023	01:09	-132.966	47.901	0	216.20	0	5.2310	0	33.7600	0	26.668	0	214.276	0	-1e10	8	-1e10	8	-1E+10	1	-1E+10	1	-1E+10	1	-1E+10	1	-1E+10	1	-1E+10	1
4902554	92	C	08/26/2023	01:09	-132.966	47.901	0	217.20	0	5.2280	0	33.7610	0	26.669	0	215.266	0	-1e10	8	-1e10	8	-1E+10	1	-1E+10	1	-1E+10	1	-1E+10	1	-1E+10	1	-1E+10	1
4902554	92	C	08/26/2023	01:09	-132.966	47.901	0	218.20	0	5.2230	0	33.7660	0	26.673	0	216.257	0	-1e10	8	-1e10	8	-1E+10	1	-1E+10	1	-1E+10	1	-1E+10	1	-1E+10	1	-1E+10	1
4902554	92	C	08/26/2023	01:09	-132.966	47.901	0	219.20	0	5.2240	0	33.7660	0	26.673	0	217.247	0	-1e10	8	-1e10	8	-1E+10	1	-1E+10	1	-1E+10	1	-1E+10	1	-1E+10	1	-1E+10	1
4902554	92	C	08/26/2023	01:09	-132.966	47.901	0	220.20	0	5.2230	0	33.7660	0	26.673	0	218.238	0	-1e10	8	-1e10	8	-1E+10	1	-1E+10	1	-1E+10	1	-1E+10	1	-1E+10	1	-1E+10	1
4902554	92	C	08/26/2023	01:09	-132.966	47.901	0	221.20	0	5.2180	0	33.7690	0	26.676	0	219.228	0	-1e10	8	-1e10	8	-1E+10	1	-1E+10	1	-1E+10	1	-1E+10	1	-1E+10	1	-1E+10	1
4902554	92	C	08/26/2023	01:09	-132.966	47.901	0	222.20	0	5.1990	0	33.7740	0	26.683	0	220.219	0	-1e10	8	-1e10	8	-1E+10	1	-1E+10	1	-1E+10	1	-1E+10	1	-1E+10	1	-1E+10	1
4902554	92	C	08/26/2023	01:09	-132.966	47.901	0	223.20	0	5.1940	0	33.7750	0	26.684	0	221.209	0	-1e10	8	-1e10	8	-1E+10	1	-1E+10	1	-1E+10	1	-1E+10	1	-1E+10	1	-1E+10	1
4902554	92	C	08/26/2023	01:09	-132.966	47.901	0	224.20	0	5.1890	0	33.7740	0	26.684	0	222.200	0	-1e10	8	-1e10	8	-1E+10	1	-1E+10	1	-1E+10	1	-1E+10	1	-1E+10	1	-1E+10	1
4902554	92	C	08/26/2023	01:09	-132.966	47.901	0	225.20	0	5.1810	0	33.7760	0	26.686	0	223.191	0	-1e10	8	-1e10	8	-1E+10	1	-1E+10	1	-1E+10	1	-1E+10	1	-1E+10	1	-1E+10	1
4902554	92	C	08/26/2023	01:09	-132.966	47.901	0	226.20	0	5.1690	0	33.7800	0	26.691	0	224.181	0	-1e10	8	-1e10	8	-1E+10	1	-1E+10	1	-1E+10	1	-1E+10	1	-1E+10	1	-1E+10	1
4902554	92	C	08/26/2023	01:09	-132.966	47.901	0	227.20	0	5.1570	0	33.7810	0	26.693	0	225.172	0	-1e10	8	-1e10	8	-1E+10	1	-1E+10	1	-1E+10	1	-1E+10	1	-1E+10	1	-1E+10	1
4902554	92	C	08/26/2023	01:09	-132.966	47.901	0	228.20	0	5.1540	0	33.7800	0	26.693	0	226.162	0	-1e10	8	-1e10	8	-1E+10	1	-1E+10	1	-1E+10	1	-1E+10	1	-1E+10	1	-1E+10	1
4902554	92	C	08/26/2023	01:09	-132.966	47.901	0	229.10	0	5.1320	0	33.7850	0	26.699	0	227.054	0	-1e10	8	-1e10	8	-1E+10	1	-1E+10	1	-1E+10	1	-1E+10	1	-1E+10	1	-1E+10	1
4902554	92	C	08/26/2023	01:09	-132.966	47.901	0	230.10	0	5.1070	0	33.7880	0	26.704	0	228.044	0	-1e10	8	-1e10	8	-1E+10	1	-1E+10	1	-1E+10	1	-1E+10	1	-1E+10	1	-1E+10	1
4902554	92	C	08/26/2023	01:09	-132.966	47.901	0	231.10	0	5.0970	0	33.7890	0	26.706	0	229.035	0	-1e10	8	-1e10	8	-1E+10	1	-1E+10	1	-1E+10	1	-1E+10	1	-1E+10	1	-1E+10	1
4902554	92	C	08/26/2023	01:09	-132.966	47.901	0	232.10	0	5.0920	0	33.7900	0	26.708	0	230.025	0	-1e10	8	-1e10	8	-1E+10	1	-1E+10	1	-1E+10	1	-1E+10	1	-1E+10	1	-1E+10	1
4902554	92	C	08/26/2023	01:09	-132.966	47.901	0	233.10	0	5.0790	0	33.7900	0	26.709	0	231.016	0	-1e10	8	-1e10	8	-1E+10	1	-1E+10	1	-1E+10	1	-1E+10	1	-1E+10	1	-1E+10	1
4902554	92	C	08/26/2023	01:09	-132.966	47.901	0	234.10	0	5.0600	0	33.7940	0	26.714	0	232.006	0	-1e10	8	-1e10	8	-1E+10	1	-1E+10	1	-1E+10	1	-1E+10	1	-1E+10	1	-1E+10	1
4902554	92	C	08/26/2023	01:09	-132.966	47.901	0	235.10	0	5.0520	0	33.7950	0	26.716	0	232.997	0	-1e10	8	-1e10	8	-1E+10	1	-1E+10	1	-1E+10	1	-1E+10	1	-1E+10	1	-1E+10	1
4902554	92	C	08/26/2023	01:09	-132.966	47.901	0	236.10	0	5.0420	0	33.7980	0	26.720	0	233.987	0	-1e10	8	-1e10	8	-1E+10	1	-1E+10	1	-1E+10	1	-1E+10	1	-1E+10	1	-1E+10	1
4902554	92	C	08/26/2023	01:09	-132.966	47.901	0	237.10	0	5.0290	0	33.7980	0	26.721	0	234.978	0	-1e10	8	-1e10	8	-1E+10	1	-1E+10	1	-1E+10	1	-1E+10	1	-1E+10	1	-1E+10	1
4902554	92	C	08/26/2023	01:09	-132.966	47.901	0	238.10	0	5.0150	0	33.7980	0	26.723	0	235.968	0	-1e10	8	-1e10	8	-1E+10	1	-1E+10	1	-1E+10	1	-1E+10	1	-1E+10	1	-1E+10	1
4902554	92	C	08/26/2023	01:09	-132.966	47.901	0	239.00	0	5.0130	0	33.8000	0	26.725	0	236.860	0	-1e10	8	-1e10	8	-1E+10	1	-1E+10	1	-1E+10	1	-1E+10	1	-1E+10	1	-1E+10	1
4902554	92	C	08/26/2023	01:09	-132.966	47.901	0	239.90	0	5.0040	0	33.8010	0	26.726	0	237.751	0	-1e10	8	-1e10	8	-1E+10	1	-1E+10	1	-1E+10	1	-1E+10	1	-1E+10	1	-1E+10	1
4902554	92	C	08/26/2023	01:09	-132.966	47.901	0	241.00	0	4.9940	0	33.8010	0	26.728	0	238.840	0	-1e10	8	-1e10	8	-1E+10	1	-1E+10	1	-1E+10	1	-1E+10	1	-1E+10	1	-1E+10	1
4902554	92	C	08/26/2023	01:09	-132.966	47.901	0	242.20	0	4.9830	0	33.8030	0	26.730	0	240.029	0	-1e10	8	-1e10	8	-1E+10	1	-1E+10	1	-1E+10	1	-1E+10	1	-1E+10	1	-1E+10	1
4902554	92	C	08/26/2023	01:09	-132.966	47.901	0	242.90	0	4.9940	0	33.8060	0	26.732	0	240.722	0	-1e10	8	-1e10	8	-1E+10	1	-1E+10	1	-1E+10	1	-1E+10	1	-1E+10	1	-1E+10	1
4902554	92	C	08/26/2023	01:09	-132.966	47.901	0	243.70	0	4.9740	0	33.8100	0	26.737	0	241.515	0	-1e10	8	-1e10	8	-1E+10	1	-1E+10	1	-1E+10	1	-1E+10	1	-1E+10	1	-1E+10	1
4902554	92	C	08/26/2023	01:09	-132.966	47.901	0	244.90	0	4.9620	0	33.8100	0	26.738	0	242.703	0	-1e10	8	-1e10	8	-1E+10	1	-1E+10	1	-1E+10	1	-1E+10	1	-1E+10	1	-1E+10	1
4902554	92	C	08/26/2023	01:09	-132.966	47.901	0	246.00	0	4.9550	0	33.8100	0	26.739	0	243.793	0	-1e10	8	-1e10	8	-1E+10	1	-1E+10	1	-1E+10	1	-1E+10	1	-1E+10	1	-1E+10	1
4902554	92	C	08/26/2023	01:09	-132.966	47.901	0	246.80	0	4.9540	0	33.8100	0	26.739	0	244.585	0	-1e10	8	-1e10	8	-1E+10	1	-1E+10	1	-1E+10	1	-1E+10	1	-1E+10	1	-1E+10	1
4902554	92	C	08/26/2023	01:09	-132.966	47.901	0	248.00	0	4.9520	0	33.8090	0	26.739	0	245.774	0	-1e10	8	-1e10	8	-1E+10	1	-1E+10	1	-1E+10	1	-1E+10	1	-1E+10	1	-1E+10	1
4902554	92	C	08/26/2023	01:09	-132.966	47.901	0	249.10	0	4.8970	0	33.8140	0	26.749	0	246.863	0	-1e10	8	-1e10	8	-1E+10	1	-1E+10	1	-1E+10	1	-1E+10	1	-1E+10	1	-1E+10	1
4902554	92	C	08/26/2023	01:09	-132.966	47.901	0	249.90	0	4.8850	0	33.8120	0	26.749	0	247.655	0	-1e10	8	-1e10	8	-1E+10	1	-1E+10	1	-1E+10	1	-1E+10	1	-1E+10	1	-1E+10	1
4902554	92	C	08/26/2023	01:09	-132.966	47.901	0	250.80	0	4.8680	0	33.8120	0	26.751	0	248.547	0	-1e10	8	-1e10	8	-1E+10	1	-1E+10	1	-1E+10	1	-1E+10	1	-1E+10	1	-1E+10	1
4902554	92	C	08/26/2023	01:09	-132.966	47.901	0	251.90	0	4.8650	0	33.8110	0	26.750	0	249.636	0	-1e10	8	-1e10	8	-1E+10	1	-1E+10	1	-1E+10	1	-1E+10	1	-1E+10	1	-1E+10	1
4902554	92	C	08/26/2023	01:09	-132.966	47.901	0	253.20	0	4.8230	0	33.8130	0	26.756	0	250.924	0	-1e10	8	-1e10	8	-1E+10	1	-1E+10	1	-1E+10	1	-1E+10	1	-1E+10	1	-1E+10	1
4902554	92	C	08/26/2023	01:09	-132.966	47.901	0	254.00	0	4.8110	0	33.8130	0	26.758	0	251.716	0	-1e10	8	-1e10	8	-1E+10	1	-1E+10	1	-1E+10	1	-1E+10	1	-1E+10	1	-1E+10	1
4902554	92	C	08/26/2023	01:09	-132.966	47.901	0	254.80	0	4.8070	0	33.8130	0	26.758	0	252.508	0	-1e10	8	-1e10	8	-1E+10	1	-1E+10	1	-1E+10	1	-1E+10	1	-1E+10	1	-1E+10	1
4902554	92	C	08/26/2023	01:09	-132.966	47.901	0	255.60	0	4.8010	0	33.8150	0	26.760	0	253.301	0	-1e10	8	-1e10	8	-1E+10	1	-1E+10	1	-1E+10	1	-1E+10	1	-1E+10	1	-1E+10	1
4902554	92	C	08/26/2023	01:09	-132.966	47.901	0	256.90	0	4.7990	0	33.8140	0	26.760	0	254.588	0	-1e10	8	-1e10	8	-1E+10	1	-1E+10	1	-1E+10	1	-1E+10	1	-1E+10	1	-1E+10	1
4902554	92	C	08/26/2023	01:09	-132.966	47.901	0	258.20	0	4.7990	0	33.8130	0	26.759	0	255.876	0	-1e10	8	-1e10	8	-1E+10	1	-1E+10	1	-1E+10	1	-1E+10	1	-1E+10	1	-1E+10	1
4902554	92	C	08/26/2023	01:09	-132.966	47.901	0	259.00	0	4.7970	0	33.8140	0	26.760	0	256.668	0	-1e10	8	-1e10	8	-1E+10	1	-1E+10	1	-1E+10	1	-1E+10	1	-1E+10	1	-1E+10	1
4902554	92	C	08/26/2023	01:09	-132.966	47.901	0	259.90	0	4.7950	0	33.8140	0	26.760	0	257.559	0	-1e10	8	-1e10	8	-1E+10	1	-1E+10	1	-1E+10	1	-1E+10	1	-1E+10	1	-1E+10	1
4902554	92	C	08/26/2023	01:09	-132.966	47.901	0	260.70	0	4.7850	0	33.8160	0	26.763	0	258.352	0	-1e10	8	-1e10	8	-1E+10	1	-1E+10	1	-1E+10	1	-1E+10	1	-1E+10	1	-1E+10	1
4902554	92	C	08/26/2023	01:09	-132.966	47.901	0	262.00	0	4.7800	0	33.8150	0	26.763	0	259.639	0	-1e10	8	-1e10	8	-1E+10	1	-1E+10	1	-1E+10	1	-1E+10	1	-1E+10	1	-1E+10	1
4902554	92	C	08/26/2023	01:09	-132.966	47.901	0	263.30	0	4.7790	0	33.8150	0	26.763	0	260.927	0	-1e10	8	-1e10	8	-1E+10	1	-1E+10	1	-1E+10	1	-1E+10	1	-1E+10	1	-1E+10	1
4902554	92	C	08/26/2023	01:09	-132.966	47.901	0	264.20	0	4.7700	0	33.8170	0	26.766	0	261.818	0	-1e10	8	-1e10	8	-1E+10	1	-1E+10	1	-1E+10	1	-1E+10	1	-1E+10	1	-1E+10	1
4902554	92	C	08/26/2023	01:09	-132.966	47.901	0	265.00	0	4.7560	0	33.8170	0	26.767	0	262.610	0	-1e10	8	-1e10	8	-1E+10	1	-1E+10	1	-1E+10	1	-1E+10	1	-1E+10	1	-1E+10	1
4902554	92	C	08/26/2023	01:09	-132.966	47.901	0	265.90	0	4.7540	0	33.8180	0	26.768	0	263.501	0	-1e10	8	-1e10	8	-1E+10	1	-1E+10	1	-1E+10	1	-1E+10	1	-1E+10	1	-1E+10	1
4902554	92	C	08/26/2023	01:09	-132.966	47.901	0	266.80	0	4.7510	0	33.8180	0	26.768	0	264.393	0	-1e10	8	-1e10	8	-1E+10	1	-1E+10	1	-1E+10	1	-1E+10	1	-1E+10	1	-1E+10	1
4902554	92	C	08/26/2023	01:09	-132.966	47.901	0	267.70	0	4.7450	0	33.8190	0	26.770	0	265.284	0	-1e10	8	-1e10	8	-1E+10	1	-1E+10	1	-1E+10	1	-1E+10	1	-1E+10	1	-1E+10	1
4902554	92	C	08/26/2023	01:09	-132.966	47.901	0	268.90	0	4.7390	0	33.8190	0	26.771	0	266.472	0	-1e10	8	-1e10	8	-1E+10	1	-1E+10	1	-1E+10	1	-1E+10	1	-1E+10	1	-1E+10	1
4902554	92	C	08/26/2023	01:09	-132.966	47.901	0	270.30	0	4.7290	0	33.8200	0	26.772	0	267.859	0	-1e10	8	-1e10	8	-1E+10	1	-1E+10	1	-1E+10	1	-1E+10	1	-1E+10	1	-1E+10	1
4902554	92	C	08/26/2023	01:09	-132.966	47.901	0	271.20	0	4.7270	0	33.8200	0	26.773	0	268.750	0	-1e10	8	-1e10	8	-1E+10	1	-1E+10	1	-1E+10	1	-1E+10	1	-1E+10	1	-1E+10	1
4902554	92	C	08/26/2023	01:09	-132.966	47.901	0	272.00	0	4.7210	0	33.8210	0	26.774	0	269.542	0	-1e10	8	-1e10	8	-1E+10	1	-1E+10	1	-1E+10	1	-1E+10	1	-1E+10	1	-1E+10	1
4902554	92	C	08/26/2023	01:09	-132.966	47.901	0	272.90	0	4.7100	0	33.8210	0	26.775	0	270.434	0	-1e10	8	-1e10	8	-1E+10	1	-1E+10	1	-1E+10	1	-1E+10	1	-1E+10	1	-1E+10	1
4902554	92	C	08/26/2023	01:09	-132.966	47.901	0	273.80	0	4.7010	0	33.8210	0	26.776	0	271.325	0	-1e10	8	-1e10	8	-1E+10	1	-1E+10	1	-1E+10	1	-1E+10	1	-1E+10	1	-1E+10	1
4902554	92	C	08/26/2023	01:09	-132.966	47.901	0	274.70	0	4.6800	0	33.8240	0	26.781	0	272.216	0	-1e10	8	-1e10	8	-1E+10	1	-1E+10	1	-1E+10	1	-1E+10	1	-1E+10	1	-1E+10	1
4902554	92	C	08/26/2023	01:09	-132.966	47.901	0	275.50	0	4.6760	0	33.8240	0	26.782	0	273.009	0	-1e10	8	-1e10	8	-1E+10	1	-1E+10	1	-1E+10	1	-1E+10	1	-1E+10	1	-1E+10	1
4902554	92	C	08/26/2023	01:09	-132.966	47.901	0	276.90	0	4.6570	0	33.8290	0	26.788	0	274.395	0	-1e10	8	-1e10	8	-1E+10	1	-1E+10	1	-1E+10	1	-1E+10	1	-1E+10	1	-1E+10	1
4902554	92	C	08/26/2023	01:09	-132.966	47.901	0	278.20	0	4.6420	0	33.8310	0	26.791	0	275.682	0	-1e10	8	-1e10	8	-1E+10	1	-1E+10	1	-1E+10	1	-1E+10	1	-1E+10	1	-1E+10	1
4902554	92	C	08/26/2023	01:09	-132.966	47.901	0	279.10	0	4.6330	0	33.8320	0	26.793	0	276.574	0	-1e10	8	-1e10	8	-1E+10	1	-1E+10	1	-1E+10	1	-1E+10	1	-1E+10	1	-1E+10	1
4902554	92	C	08/26/2023	01:09	-132.966	47.901	0	280.00	0	4.6240	0	33.8340	0	26.795	0	277.465	0	-1e10	8	-1e10	8	-1E+10	1	-1E+10	1	-1E+10	1	-1E+10	1	-1E+10	1	-1E+10	1
4902554	92	C	08/26/2023	01:09	-132.966	47.901	0	280.90	0	4.6150	0	33.8380	0	26.799	0	278.356	0	-1e10	8	-1e10	8	-1E+10	1	-1E+10	1	-1E+10	1	-1E+10	1	-1E+10	1	-1E+10	1
4902554	92	C	08/26/2023	01:09	-132.966	47.901	0	281.90	0	4.6010	0	33.8380	0	26.801	0	279.346	0	-1e10	8	-1e10	8	-1E+10	1	-1E+10	1	-1E+10	1	-1E+10	1	-1E+10	1	-1E+10	1
4902554	92	C	08/26/2023	01:09	-132.966	47.901	0	282.70	0	4.5970	0	33.8390	0	26.802	0	280.139	0	-1e10	8	-1e10	8	-1E+10	1	-1E+10	1	-1E+10	1	-1E+10	1	-1E+10	1	-1E+10	1
4902554	92	C	08/26/2023	01:09	-132.966	47.901	0	283.60	0	4.5940	0	33.8390	0	26.802	0	281.030	0	-1e10	8	-1e10	8	-1E+10	1	-1E+10	1	-1E+10	1	-1E+10	1	-1E+10	1	-1E+10	1
4902554	92	C	08/26/2023	01:09	-132.966	47.901	0	284.90	0	4.5870	0	33.8400	0	26.804	0	282.317	0	-1e10	8	-1e10	8	-1E+10	1	-1E+10	1	-1E+10	1	-1E+10	1	-1E+10	1	-1E+10	1
4902554	92	C	08/26/2023	01:09	-132.966	47.901	0	286.40	0	4.5700	0	33.8450	0	26.810	0	283.802	0	-1e10	8	-1e10	8	-1E+10	1	-1E+10	1	-1E+10	1	-1E+10	1	-1E+10	1	-1E+10	1
4902554	92	C	08/26/2023	01:09	-132.966	47.901	0	287.30	0	4.5650	0	33.8460	0	26.811	0	284.694	0	-1e10	8	-1e10	8	-1E+10	1	-1E+10	1	-1E+10	1	-1E+10	1	-1E+10	1	-1E+10	1
4902554	92	C	08/26/2023	01:09	-132.966	47.901	0	288.20	0	4.5600	0	33.8470	0	26.812	0	285.585	0	-1e10	8	-1e10	8	-1E+10	1	-1E+10	1	-1E+10	1	-1E+10	1	-1E+10	1	-1E+10	1
4902554	92	C	08/26/2023	01:09	-132.966	47.901	0	289.10	0	4.5470	0	33.8510	0	26.817	0	286.476	0	-1e10	8	-1e10	8	-1E+10	1	-1E+10	1	-1E+10	1	-1E+10	1	-1E+10	1	-1E+10	1
4902554	92	C	08/26/2023	01:09	-132.966	47.901	0	290.10	0	4.5460	0	33.8510	0	26.817	0	287.466	0	-1e10	8	-1e10	8	-1E+10	1	-1E+10	1	-1E+10	1	-1E+10	1	-1E+10	1	-1E+10	1
4902554	92	C	08/26/2023	01:09	-132.966	47.901	0	291.00	0	4.5450	0	33.8510	0	26.817	0	288.358	0	-1e10	8	-1e10	8	-1E+10	1	-1E+10	1	-1E+10	1	-1E+10	1	-1E+10	1	-1E+10	1
4902554	92	C	08/26/2023	01:09	-132.966	47.901	0	291.90	0	4.5450	0	33.8510	0	26.817	0	289.249	0	-1e10	8	-1e10	8	-1E+10	1	-1E+10	1	-1E+10	1	-1E+10	1	-1E+10	1	-1E+10	1
4902554	92	C	08/26/2023	01:09	-132.966	47.901	0	292.90	0	4.5450	0	33.8510	0	26.817	0	290.239	0	-1e10	8	-1e10	8	-1E+10	1	-1E+10	1	-1E+10	1	-1E+10	1	-1E+10	1	-1E+10	1
4902554	92	C	08/26/2023	01:09	-132.966	47.901	0	293.80	0	4.5410	0	33.8530	0	26.819	0	291.130	0	-1e10	8	-1e10	8	-1E+10	1	-1E+10	1	-1E+10	1	-1E+10	1	-1E+10	1	-1E+10	1
4902554	92	C	08/26/2023	01:09	-132.966	47.901	0	294.80	0	4.5360	0	33.8550	0	26.821	0	292.120	0	-1e10	8	-1e10	8	-1E+10	1	-1E+10	1	-1E+10	1	-1E+10	1	-1E+10	1	-1E+10	1
4902554	92	C	08/26/2023	01:09	-132.966	47.901	0	295.70	0	4.5330	0	33.8560	0	26.823	0	293.012	0	-1e10	8	-1e10	8	-1E+10	1	-1E+10	1	-1E+10	1	-1E+10	1	-1E+10	1	-1E+10	1
4902554	92	C	08/26/2023	01:09	-132.966	47.901	0	296.70	0	4.5230	0	33.8600	0	26.827	0	294.002	0	-1e10	8	-1e10	8	-1E+10	1	-1E+10	1	-1E+10	1	-1E+10	1	-1E+10	1	-1E+10	1
4902554	92	C	08/26/2023	01:09	-132.966	47.901	0	297.60	0	4.5200	0	33.8600	0	26.827	0	294.893	0	-1e10	8	-1e10	8	-1E+10	1	-1E+10	1	-1E+10	1	-1E+10	1	-1E+10	1	-1E+10	1
4902554	92	C	08/26/2023	01:09	-132.966	47.901	0	298.60	0	4.5160	0	33.8620	0	26.829	0	295.883	0	-1e10	8	-1e10	8	-1E+10	1	-1E+10	1	-1E+10	1	-1E+10	1	-1E+10	1	-1E+10	1
4902554	92	C	08/26/2023	01:09	-132.966	47.901	0	299.50	0	4.5140	0	33.8640	0	26.831	0	296.774	0	-1e10	8	-1e10	8	-1E+10	1	-1E+10	1	-1E+10	1	-1E+10	1	-1E+10	1	-1E+10	1
4902554	92	C	08/26/2023	01:09	-132.966	47.901	0	300.50	0	4.5140	0	33.8660	0	26.833	0	297.764	0	-1e10	8	-1e10	8	-1E+10	1	-1E+10	1	-1E+10	1	-1E+10	1	-1E+10	1	-1E+10	1
4902554	92	C	08/26/2023	01:09	-132.966	47.901	0	301.90	0	4.5110	0	33.8680	0	26.835	0	299.151	0	-1e10	8	-1e10	8	-1E+10	1	-1E+10	1	-1E+10	1	-1E+10	1	-1E+10	1	-1E+10	1
4902554	92	C	08/26/2023	01:09	-132.966	47.901	0	303.40	0	4.5100	0	33.8680	0	26.835	0	300.636	0	-1e10	8	-1e10	8	-1E+10	1	-1E+10	1	-1E+10	1	-1E+10	1	-1E+10	1	-1E+10	1
4902554	92	C	08/26/2023	01:09	-132.966	47.901	0	304.40	0	4.5100	0	33.8680	0	26.835	0	301.626	0	-1e10	8	-1e10	8	-1E+10	1	-1E+10	1	-1E+10	1	-1E+10	1	-1E+10	1	-1E+10	1
4902554	92	C	08/26/2023	01:09	-132.966	47.901	0	305.30	0	4.5100	0	33.8690	0	26.835	0	302.517	0	-1e10	8	-1e10	8	-1E+10	1	-1E+10	1	-1E+10	1	-1E+10	1	-1E+10	1	-1E+10	1
4902554	92	C	08/26/2023	01:09	-132.966	47.901	0	306.30	0	4.5100	0	33.8690	0	26.835	0	303.507	0	-1e10	8	-1e10	8	-1E+10	1	-1E+10	1	-1E+10	1	-1E+10	1	-1E+10	1	-1E+10	1
4902554	92	C	08/26/2023	01:09	-132.966	47.901	0	307.30	0	4.5080	0	33.8700	0	26.836	0	304.498	0	-1e10	8	-1e10	8	-1E+10	1	-1E+10	1	-1E+10	1	-1E+10	1	-1E+10	1	-1E+10	1
4902554	92	C	08/26/2023	01:09	-132.966	47.901	0	308.30	0	4.4990	0	33.8730	0	26.840	0	305.488	0	-1e10	8	-1e10	8	-1E+10	1	-1E+10	1	-1E+10	1	-1E+10	1	-1E+10	1	-1E+10	1
4902554	92	C	08/26/2023	01:09	-132.966	47.901	0	309.30	0	4.4960	0	33.8740	0	26.841	0	306.478	0	-1e10	8	-1e10	8	-1E+10	1	-1E+10	1	-1E+10	1	-1E+10	1	-1E+10	1	-1E+10	1
4902554	92	C	08/26/2023	01:09	-132.966	47.901	0	310.20	0	4.4970	0	33.8750	0	26.842	0	307.369	0	-1e10	8	-1e10	8	-1E+10	1	-1E+10	1	-1E+10	1	-1E+10	1	-1E+10	1	-1E+10	1
4902554	92	C	08/26/2023	01:09	-132.966	47.901	0	311.20	0	4.4970	0	33.8750	0	26.842	0	308.359	0	-1e10	8	-1e10	8	-1E+10	1	-1E+10	1	-1E+10	1	-1E+10	1	-1E+10	1	-1E+10	1
4902554	92	C	08/26/2023	01:09	-132.966	47.901	0	312.10	0	4.4970	0	33.8770	0	26.843	0	309.250	0	-1e10	8	-1e10	8	-1E+10	1	-1E+10	1	-1E+10	1	-1E+10	1	-1E+10	1	-1E+10	1
4902554	92	C	08/26/2023	01:09	-132.966	47.901	0	313.00	0	4.4950	0	33.8800	0	26.846	0	310.141	0	-1e10	8	-1e10	8	-1E+10	1	-1E+10	1	-1E+10	1	-1E+10	1	-1E+10	1	-1E+10	1
4902554	92	C	08/26/2023	01:09	-132.966	47.901	0	313.90	0	4.4920	0	33.8830	0	26.849	0	311.032	0	-1e10	8	-1e10	8	-1E+10	1	-1E+10	1	-1E+10	1	-1E+10	1	-1E+10	1	-1E+10	1
4902554	92	C	08/26/2023	01:09	-132.966	47.901	0	314.90	0	4.4910	0	33.8830	0	26.849	0	312.023	0	-1e10	8	-1e10	8	-1E+10	1	-1E+10	1	-1E+10	1	-1E+10	1	-1E+10	1	-1E+10	1
4902554	92	C	08/26/2023	01:09	-132.966	47.901	0	316.10	0	4.4870	0	33.8850	0	26.851	0	313.211	0	-1e10	8	-1e10	8	-1E+10	1	-1E+10	1	-1E+10	1	-1E+10	1	-1E+10	1	-1E+10	1
4902554	92	C	08/26/2023	01:09	-132.966	47.901	0	316.80	0	4.4830	0	33.8850	0	26.851	0	313.904	0	-1e10	8	-1e10	8	-1E+10	1	-1E+10	1	-1E+10	1	-1E+10	1	-1E+10	1	-1E+10	1
4902554	92	C	08/26/2023	01:09	-132.966	47.901	0	317.80	0	4.4790	0	33.8880	0	26.854	0	314.894	0	-1e10	8	-1e10	8	-1E+10	1	-1E+10	1	-1E+10	1	-1E+10	1	-1E+10	1	-1E+10	1
4902554	92	C	08/26/2023	01:09	-132.966	47.901	0	319.00	0	4.4770	0	33.8900	0	26.856	0	316.082	0	-1e10	8	-1e10	8	-1E+10	1	-1E+10	1	-1E+10	1	-1E+10	1	-1E+10	1	-1E+10	1
4902554	92	C	08/26/2023	01:09	-132.966	47.901	0	319.70	0	4.4730	0	33.8920	0	26.858	0	316.775	0	-1e10	8	-1e10	8	-1E+10	1	-1E+10	1	-1E+10	1	-1E+10	1	-1E+10	1	-1E+10	1
4902554	92	C	08/26/2023	01:09	-132.966	47.901	0	320.80	0	4.4710	0	33.8930	0	26.859	0	317.864	0	-1e10	8	-1e10	8	-1E+10	1	-1E+10	1	-1E+10	1	-1E+10	1	-1E+10	1	-1E+10	1
4902554	92	C	08/26/2023	01:09	-132.966	47.901	0	322.00	0	4.4700	0	33.8940	0	26.860	0	319.052	0	-1e10	8	-1e10	8	-1E+10	1	-1E+10	1	-1E+10	1	-1E+10	1	-1E+10	1	-1E+10	1
4902554	92	C	08/26/2023	01:09	-132.966	47.901	0	322.80	0	4.4690	0	33.8950	0	26.861	0	319.844	0	-1e10	8	-1e10	8	-1E+10	1	-1E+10	1	-1E+10	1	-1E+10	1	-1E+10	1	-1E+10	1
4902554	92	C	08/26/2023	01:09	-132.966	47.901	0	324.00	0	4.4690	0	33.8940	0	26.860	0	321.032	0	-1e10	8	-1e10	8	-1E+10	1	-1E+10	1	-1E+10	1	-1E+10	1	-1E+10	1	-1E+10	1
4902554	92	C	08/26/2023	01:09	-132.966	47.901	0	325.20	0	4.4680	0	33.8940	0	26.860	0	322.220	0	-1e10	8	-1e10	8	-1E+10	1	-1E+10	1	-1E+10	1	-1E+10	1	-1E+10	1	-1E+10	1
4902554	92	C	08/26/2023	01:09	-132.966	47.901	0	326.00	0	4.4680	0	33.8950	0	26.861	0	323.012	0	-1e10	8	-1e10	8	-1E+10	1	-1E+10	1	-1E+10	1	-1E+10	1	-1E+10	1	-1E+10	1
4902554	92	C	08/26/2023	01:09	-132.966	47.901	0	326.80	0	4.4660	0	33.8950	0	26.861	0	323.805	0	-1e10	8	-1e10	8	-1E+10	1	-1E+10	1	-1E+10	1	-1E+10	1	-1E+10	1	-1E+10	1
4902554	92	C	08/26/2023	01:09	-132.966	47.901	0	327.70	0	4.4620	0	33.8960	0	26.862	0	324.696	0	-1e10	8	-1e10	8	-1E+10	1	-1E+10	1	-1E+10	1	-1E+10	1	-1E+10	1	-1E+10	1
4902554	92	C	08/26/2023	01:09	-132.966	47.901	0	328.90	0	4.4490	0	33.8970	0	26.864	0	325.884	0	-1e10	8	-1e10	8	-1E+10	1	-1E+10	1	-1E+10	1	-1E+10	1	-1E+10	1	-1E+10	1
4902554	92	C	08/26/2023	01:09	-132.966	47.901	0	330.20	0	4.4440	0	33.8990	0	26.867	0	327.171	0	-1e10	8	-1e10	8	-1E+10	1	-1E+10	1	-1E+10	1	-1E+10	1	-1E+10	1	-1E+10	1
4902554	92	C	08/26/2023	01:09	-132.966	47.901	0	331.10	0	4.4430	0	33.9010	0	26.868	0	328.062	0	-1e10	8	-1e10	8	-1E+10	1	-1E+10	1	-1E+10	1	-1E+10	1	-1E+10	1	-1E+10	1
4902554	92	C	08/26/2023	01:09	-132.966	47.901	0	331.90	0	4.4390	0	33.9020	0	26.869	0	328.854	0	-1e10	8	-1e10	8	-1E+10	1	-1E+10	1	-1E+10	1	-1E+10	1	-1E+10	1	-1E+10	1
4902554	92	C	08/26/2023	01:09	-132.966	47.901	0	332.80	0	4.4390	0	33.9020	0	26.870	0	329.745	0	-1e10	8	-1e10	8	-1E+10	1	-1E+10	1	-1E+10	1	-1E+10	1	-1E+10	1	-1E+10	1
4902554	92	C	08/26/2023	01:09	-132.966	47.901	0	333.60	0	4.4390	0	33.9020	0	26.870	0	330.537	0	-1e10	8	-1e10	8	-1E+10	1	-1E+10	1	-1E+10	1	-1E+10	1	-1E+10	1	-1E+10	1
4902554	92	C	08/26/2023	01:09	-132.966	47.901	0	334.90	0	4.4390	0	33.9050	0	26.872	0	331.824	0	-1e10	8	-1e10	8	-1E+10	1	-1E+10	1	-1E+10	1	-1E+10	1	-1E+10	1	-1E+10	1
4902554	92	C	08/26/2023	01:09	-132.966	47.901	0	336.30	0	4.4380	0	33.9090	0	26.875	0	333.210	0	-1e10	8	-1e10	8	-1E+10	1	-1E+10	1	-1E+10	1	-1E+10	1	-1E+10	1	-1E+10	1
4902554	92	C	08/26/2023	01:09	-132.966	47.901	0	337.20	0	4.4370	0	33.9100	0	26.876	0	334.101	0	-1e10	8	-1e10	8	-1E+10	1	-1E+10	1	-1E+10	1	-1E+10	1	-1E+10	1	-1E+10	1
4902554	92	C	08/26/2023	01:09	-132.966	47.901	0	338.10	0	4.4370	0	33.9110	0	26.877	0	334.992	0	-1e10	8	-1e10	8	-1E+10	1	-1E+10	1	-1E+10	1	-1E+10	1	-1E+10	1	-1E+10	1
4902554	92	C	08/26/2023	01:09	-132.966	47.901	0	339.00	0	4.4360	0	33.9120	0	26.878	0	335.883	0	-1e10	8	-1e10	8	-1E+10	1	-1E+10	1	-1E+10	1	-1E+10	1	-1E+10	1	-1E+10	1
4902554	92	C	08/26/2023	01:09	-132.966	47.901	0	339.90	0	4.4330	0	33.9130	0	26.879	0	336.774	0	-1e10	8	-1e10	8	-1E+10	1	-1E+10	1	-1E+10	1	-1E+10	1	-1E+10	1	-1E+10	1
4902554	92	C	08/26/2023	01:09	-132.966	47.901	0	340.80	0	4.4320	0	33.9130	0	26.879	0	337.665	0	-1e10	8	-1e10	8	-1E+10	1	-1E+10	1	-1E+10	1	-1E+10	1	-1E+10	1	-1E+10	1
4902554	92	C	08/26/2023	01:09	-132.966	47.901	0	341.80	0	4.4310	0	33.9140	0	26.880	0	338.655	0	-1e10	8	-1e10	8	-1E+10	1	-1E+10	1	-1E+10	1	-1E+10	1	-1E+10	1	-1E+10	1
4902554	92	C	08/26/2023	01:09	-132.966	47.901	0	342.70	0	4.4270	0	33.9170	0	26.883	0	339.546	0	-1e10	8	-1e10	8	-1E+10	1	-1E+10	1	-1E+10	1	-1E+10	1	-1E+10	1	-1E+10	1
4902554	92	C	08/26/2023	01:09	-132.966	47.901	0	343.60	0	4.4260	0	33.9170	0	26.883	0	340.437	0	-1e10	8	-1e10	8	-1E+10	1	-1E+10	1	-1E+10	1	-1E+10	1	-1E+10	1	-1E+10	1
4902554	92	C	08/26/2023	01:09	-132.966	47.901	0	344.60	0	4.4120	0	33.9190	0	26.886	0	341.427	0	-1e10	8	-1e10	8	-1E+10	1	-1E+10	1	-1E+10	1	-1E+10	1	-1E+10	1	-1E+10	1
4902554	92	C	08/26/2023	01:09	-132.966	47.901	0	345.50	0	4.4100	0	33.9190	0	26.886	0	342.318	0	-1e10	8	-1e10	8	-1E+10	1	-1E+10	1	-1E+10	1	-1E+10	1	-1E+10	1	-1E+10	1
4902554	92	C	08/26/2023	01:09	-132.966	47.901	0	346.90	0	4.4100	0	33.9210	0	26.888	0	343.704	0	-1e10	8	-1e10	8	-1E+10	1	-1E+10	1	-1E+10	1	-1E+10	1	-1E+10	1	-1E+10	1
4902554	92	C	08/26/2023	01:09	-132.966	47.901	0	348.40	0	4.4090	0	33.9240	0	26.890	0	345.189	0	-1e10	8	-1e10	8	-1E+10	1	-1E+10	1	-1E+10	1	-1E+10	1	-1E+10	1	-1E+10	1
4902554	92	C	08/26/2023	01:09	-132.966	47.901	0	349.40	0	4.4110	0	33.9240	0	26.890	0	346.178	0	-1e10	8	-1e10	8	-1E+10	1	-1E+10	1	-1E+10	1	-1E+10	1	-1E+10	1	-1E+10	1
4902554	92	C	08/26/2023	01:09	-132.966	47.901	0	350.30	0	4.4140	0	33.9250	0	26.891	0	347.069	0	-1e10	8	-1e10	8	-1E+10	1	-1E+10	1	-1E+10	1	-1E+10	1	-1E+10	1	-1E+10	1
4902554	92	C	08/26/2023	01:09	-132.966	47.901	0	353.20	0	4.3970	0	33.9300	0	26.896	0	349.940	0	-1e10	8	-1e10	8	-1E+10	1	-1E+10	1	-1E+10	1	-1E+10	1	-1E+10	1	-1E+10	1
4902554	92	C	08/26/2023	01:09	-132.966	47.901	0	358.20	0	4.3700	0	33.9340	0	26.902	0	354.890	0	-1e10	8	-1e10	8	-1E+10	1	-1E+10	1	-1E+10	1	-1E+10	1	-1E+10	1	-1E+10	1
4902554	92	C	08/26/2023	01:09	-132.966	47.901	0	363.10	0	4.3520	0	33.9420	0	26.911	0	359.740	0	-1e10	8	-1e10	8	-1E+10	1	-1E+10	1	-1E+10	1	-1E+10	1	-1E+10	1	-1E+10	1
4902554	92	C	08/26/2023	01:09	-132.966	47.901	0	368.10	0	4.3400	0	33.9460	0	26.915	0	364.690	0	-1e10	8	-1e10	8	-1E+10	1	-1E+10	1	-1E+10	1	-1E+10	1	-1E+10	1	-1E+10	1
4902554	92	C	08/26/2023	01:09	-132.966	47.901	0	373.10	0	4.3280	0	33.9510	0	26.921	0	369.639	0	-1e10	8	-1e10	8	-1E+10	1	-1E+10	1	-1E+10	1	-1E+10	1	-1E+10	1	-1E+10	1
4902554	92	C	08/26/2023	01:09	-132.966	47.901	0	378.10	0	4.3220	0	33.9540	0	26.924	0	374.588	0	-1e10	8	-1e10	8	-1E+10	1	-1E+10	1	-1E+10	1	-1E+10	1	-1E+10	1	-1E+10	1
4902554	92	C	08/26/2023	01:09	-132.966	47.901	0	383.00	0	4.3140	0	33.9580	0	26.928	0	379.438	0	-1e10	8	-1e10	8	-1E+10	1	-1E+10	1	-1E+10	1	-1E+10	1	-1E+10	1	-1E+10	1
4902554	92	C	08/26/2023	01:09	-132.966	47.901	0	387.90	0	4.3070	0	33.9620	0	26.932	0	384.288	0	-1e10	8	-1e10	8	-1E+10	1	-1E+10	1	-1E+10	1	-1E+10	1	-1E+10	1	-1E+10	1
4902554	92	C	08/26/2023	01:09	-132.966	47.901	0	392.80	0	4.2950	0	33.9660	0	26.936	0	389.138	0	-1e10	8	-1e10	8	-1E+10	1	-1E+10	1	-1E+10	1	-1E+10	1	-1E+10	1	-1E+10	1
4902554	92	C	08/26/2023	01:09	-132.966	47.901	0	397.60	0	4.2820	0	33.9700	0	26.941	0	393.888	0	-1e10	8	-1e10	8	-1E+10	1	-1E+10	1	-1E+10	1	-1E+10	1	-1E+10	1	-1E+10	1
4902554	92	C	08/26/2023	01:09	-132.966	47.901	0	403.00	0	4.2620	0	33.9780	0	26.949	0	399.233	0	-1e10	8	-1e10	8	-1E+10	1	-1E+10	1	-1E+10	1	-1E+10	1	-1E+10	1	-1E+10	1
4902554	92	C	08/26/2023	01:09	-132.966	47.901	0	408.30	0	4.2530	0	33.9830	0	26.954	0	404.478	0	-1e10	8	-1e10	8	-1E+10	1	-1E+10	1	-1E+10	1	-1E+10	1	-1E+10	1	-1E+10	1
4902554	92	C	08/26/2023	01:09	-132.966	47.901	0	413.20	0	4.2530	0	33.9890	0	26.959	0	409.327	0	-1e10	8	-1e10	8	-1E+10	1	-1E+10	1	-1E+10	1	-1E+10	1	-1E+10	1	-1E+10	1
4902554	92	C	08/26/2023	01:09	-132.966	47.901	0	418.10	0	4.2600	0	33.9970	0	26.965	0	414.177	0	-1e10	8	-1e10	8	-1E+10	1	-1E+10	1	-1E+10	1	-1E+10	1	-1E+10	1	-1E+10	1
4902554	92	C	08/26/2023	01:09	-132.966	47.901	0	423.10	0	4.2580	0	34.0020	0	26.969	0	419.125	0	-1e10	8	-1e10	8	-1E+10	1	-1E+10	1	-1E+10	1	-1E+10	1	-1E+10	1	-1E+10	1
4902554	92	C	08/26/2023	01:09	-132.966	47.901	0	428.10	0	4.2650	0	34.0140	0	26.978	0	424.072	0	-1e10	8	-1e10	8	-1E+10	1	-1E+10	1	-1E+10	1	-1E+10	1	-1E+10	1	-1E+10	1
4902554	92	C	08/26/2023	01:09	-132.966	47.901	0	433.10	0	4.2630	0	34.0160	0	26.979	0	429.020	0	-1e10	8	-1e10	8	-1E+10	1	-1E+10	1	-1E+10	1	-1E+10	1	-1E+10	1	-1E+10	1
4902554	92	C	08/26/2023	01:09	-132.966	47.901	0	438.20	0	4.2570	0	34.0210	0	26.984	0	434.067	0	-1e10	8	-1e10	8	-1E+10	1	-1E+10	1	-1E+10	1	-1E+10	1	-1E+10	1	-1E+10	1
4902554	92	C	08/26/2023	01:09	-132.966	47.901	0	443.20	0	4.2540	0	34.0260	0	26.988	0	439.014	0	-1e10	8	-1e10	8	-1E+10	1	-1E+10	1	-1E+10	1	-1E+10	1	-1E+10	1	-1E+10	1
4902554	92	C	08/26/2023	01:09	-132.966	47.901	0	448.20	0	4.2500	0	34.0300	0	26.992	0	443.962	0	-1e10	8	-1e10	8	-1E+10	1	-1E+10	1	-1E+10	1	-1E+10	1	-1E+10	1	-1E+10	1
4902554	92	C	08/26/2023	01:09	-132.966	47.901	0	453.30	0	4.2420	0	34.0360	0	26.998	0	449.008	0	-1e10	8	-1e10	8	-1E+10	1	-1E+10	1	-1E+10	1	-1E+10	1	-1E+10	1	-1E+10	1
4902554	92	C	08/26/2023	01:09	-132.966	47.901	0	458.30	0	4.2320	0	34.0410	0	27.003	0	453.955	0	-1e10	8	-1e10	8	-1E+10	1	-1E+10	1	-1E+10	1	-1E+10	1	-1E+10	1	-1E+10	1
4902554	92	C	08/26/2023	01:09	-132.966	47.901	0	463.40	0	4.2220	0	34.0480	0	27.009	0	459.001	0	-1e10	8	-1e10	8	-1E+10	1	-1E+10	1	-1E+10	1	-1E+10	1	-1E+10	1	-1E+10	1
4902554	92	C	08/26/2023	01:09	-132.966	47.901	0	467.90	0	4.2140	0	34.0510	0	27.013	0	463.454	0	-1e10	8	-1e10	8	-1E+10	1	-1E+10	1	-1E+10	1	-1E+10	1	-1E+10	1	-1E+10	1
4902554	92	C	08/26/2023	01:09	-132.966	47.901	0	472.60	0	4.2090	0	34.0530	0	27.015	0	468.104	0	-1e10	8	-1e10	8	-1E+10	1	-1E+10	1	-1E+10	1	-1E+10	1	-1E+10	1	-1E+10	1
4902554	92	C	08/26/2023	01:09	-132.966	47.901	0	477.80	0	4.2020	0	34.0560	0	27.018	0	473.248	0	-1e10	8	-1e10	8	-1E+10	1	-1E+10	1	-1E+10	1	-1E+10	1	-1E+10	1	-1E+10	1
4902554	92	C	08/26/2023	01:09	-132.966	47.901	0	483.00	0	4.1900	0	34.0620	0	27.024	0	478.393	0	-1e10	8	-1e10	8	-1E+10	1	-1E+10	1	-1E+10	1	-1E+10	1	-1E+10	1	-1E+10	1
4902554	92	C	08/26/2023	01:09	-132.966	47.901	0	487.80	0	4.1840	0	34.0650	0	27.027	0	483.141	0	-1e10	8	-1e10	8	-1E+10	1	-1E+10	1	-1E+10	1	-1E+10	1	-1E+10	1	-1E+10	1
4902554	92	C	08/26/2023	01:09	-132.966	47.901	0	492.50	0	4.1770	0	34.0670	0	27.029	0	487.791	0	-1e10	8	-1e10	8	-1E+10	1	-1E+10	1	-1E+10	1	-1E+10	1	-1E+10	1	-1E+10	1
4902554	92	C	08/26/2023	01:09	-132.966	47.901	0	497.70	0	4.1640	0	34.0720	0	27.035	0	492.935	0	-1e10	8	-1e10	8	-1E+10	1	-1E+10	1	-1E+10	1	-1E+10	1	-1E+10	1	-1E+10	1
4902554	92	C	08/26/2023	01:09	-132.966	47.901	0	502.90	0	4.1480	0	34.0780	0	27.041	0	498.079	0	-1e10	8	-1e10	8	-1E+10	1	-1E+10	1	-1E+10	1	-1E+10	1	-1E+10	1	-1E+10	1
4902554	92	C	08/26/2023	01:09	-132.966	47.901	0	508.10	0	4.1330	0	34.0830	0	27.047	0	503.223	0	-1e10	8	-1e10	8	-1E+10	1	-1E+10	1	-1E+10	1	-1E+10	1	-1E+10	1	-1E+10	1
4902554	92	C	08/26/2023	01:09	-132.966	47.901	0	513.00	0	4.1200	0	34.0890	0	27.053	0	508.070	0	-1e10	8	-1e10	8	-1E+10	1	-1E+10	1	-1E+10	1	-1E+10	1	-1E+10	1	-1E+10	1
4902554	92	C	08/26/2023	01:09	-132.966	47.901	0	518.00	0	4.1110	0	34.0920	0	27.056	0	513.016	0	-1e10	8	-1e10	8	-1E+10	1	-1E+10	1	-1E+10	1	-1E+10	1	-1E+10	1	-1E+10	1
4902554	92	C	08/26/2023	01:09	-132.966	47.901	0	523.00	0	4.1040	0	34.0940	0	27.059	0	517.961	0	-1e10	8	-1e10	8	-1E+10	1	-1E+10	1	-1E+10	1	-1E+10	1	-1E+10	1	-1E+10	1
4902554	92	C	08/26/2023	01:09	-132.966	47.901	0	528.10	0	4.1000	0	34.0970	0	27.062	0	523.006	0	-1e10	8	-1e10	8	-1E+10	1	-1E+10	1	-1E+10	1	-1E+10	1	-1E+10	1	-1E+10	1
4902554	92	C	08/26/2023	01:09	-132.966	47.901	0	532.90	0	4.0870	0	34.1030	0	27.068	0	527.753	0	-1e10	8	-1e10	8	-1E+10	1	-1E+10	1	-1E+10	1	-1E+10	1	-1E+10	1	-1E+10	1
4902554	92	C	08/26/2023	01:09	-132.966	47.901	0	537.60	0	4.0760	0	34.1070	0	27.072	0	532.402	0	-1e10	8	-1e10	8	-1E+10	1	-1E+10	1	-1E+10	1	-1E+10	1	-1E+10	1	-1E+10	1
4902554	92	C	08/26/2023	01:09	-132.966	47.901	0	542.90	0	4.0620	0	34.1110	0	27.077	0	537.644	0	-1e10	8	-1e10	8	-1E+10	1	-1E+10	1	-1E+10	1	-1E+10	1	-1E+10	1	-1E+10	1
4902554	92	C	08/26/2023	01:09	-132.966	47.901	0	547.80	0	4.0520	0	34.1150	0	27.081	0	542.490	0	-1e10	8	-1e10	8	-1E+10	1	-1E+10	1	-1E+10	1	-1E+10	1	-1E+10	1	-1E+10	1
4902554	92	C	08/26/2023	01:09	-132.966	47.901	0	552.80	0	4.0400	0	34.1190	0	27.085	0	547.435	0	-1e10	8	-1e10	8	-1E+10	1	-1E+10	1	-1E+10	1	-1E+10	1	-1E+10	1	-1E+10	1
4902554	92	C	08/26/2023	01:09	-132.966	47.901	0	557.90	0	4.0350	0	34.1200	0	27.087	0	552.479	0	-1e10	8	-1e10	8	-1E+10	1	-1E+10	1	-1E+10	1	-1E+10	1	-1E+10	1	-1E+10	1
4902554	92	C	08/26/2023	01:09	-132.966	47.901	0	562.60	0	4.0230	0	34.1240	0	27.091	0	557.127	0	-1e10	8	-1e10	8	-1E+10	1	-1E+10	1	-1E+10	1	-1E+10	1	-1E+10	1	-1E+10	1
4902554	92	C	08/26/2023	01:09	-132.966	47.901	0	567.90	0	4.0170	0	34.1250	0	27.093	0	562.368	0	-1e10	8	-1e10	8	-1E+10	1	-1E+10	1	-1E+10	1	-1E+10	1	-1E+10	1	-1E+10	1
4902554	92	C	08/26/2023	01:09	-132.966	47.901	0	573.30	0	4.0070	0	34.1290	0	27.097	0	567.708	0	-1e10	8	-1e10	8	-1E+10	1	-1E+10	1	-1E+10	1	-1E+10	1	-1E+10	1	-1E+10	1
4902554	92	C	08/26/2023	01:09	-132.966	47.901	0	578.20	0	3.9970	0	34.1310	0	27.100	0	572.554	0	-1e10	8	-1e10	8	-1E+10	1	-1E+10	1	-1E+10	1	-1E+10	1	-1E+10	1	-1E+10	1
4902554	92	C	08/26/2023	01:09	-132.966	47.901	0	583.10	0	3.9840	0	34.1350	0	27.104	0	577.399	0	-1e10	8	-1e10	8	-1E+10	1	-1E+10	1	-1E+10	1	-1E+10	1	-1E+10	1	-1E+10	1
4902554	92	C	08/26/2023	01:09	-132.966	47.901	0	588.10	0	3.9740	0	34.1380	0	27.108	0	582.343	0	-1e10	8	-1e10	8	-1E+10	1	-1E+10	1	-1E+10	1	-1E+10	1	-1E+10	1	-1E+10	1
4902554	92	C	08/26/2023	01:09	-132.966	47.901	0	593.00	0	3.9650	0	34.1400	0	27.110	0	587.188	0	-1e10	8	-1e10	8	-1E+10	1	-1E+10	1	-1E+10	1	-1E+10	1	-1E+10	1	-1E+10	1
4902554	92	C	08/26/2023	01:09	-132.966	47.901	0	598.00	0	3.9550	0	34.1420	0	27.113	0	592.132	0	-1e10	8	-1e10	8	-1E+10	1	-1E+10	1	-1E+10	1	-1E+10	1	-1E+10	1	-1E+10	1
4902554	92	C	08/26/2023	01:09	-132.966	47.901	0	602.90	0	3.9390	0	34.1450	0	27.117	0	596.977	0	-1e10	8	-1e10	8	-1E+10	1	-1E+10	1	-1E+10	1	-1E+10	1	-1E+10	1	-1E+10	1
4902554	92	C	08/26/2023	01:09	-132.966	47.901	0	607.80	0	3.9270	0	34.1470	0	27.120	0	601.822	0	-1e10	8	-1e10	8	-1E+10	1	-1E+10	1	-1E+10	1	-1E+10	1	-1E+10	1	-1E+10	1
4902554	92	C	08/26/2023	01:09	-132.966	47.901	0	612.60	0	3.9150	0	34.1500	0	27.123	0	606.568	0	-1e10	8	-1e10	8	-1E+10	1	-1E+10	1	-1E+10	1	-1E+10	1	-1E+10	1	-1E+10	1
4902554	92	C	08/26/2023	01:09	-132.966	47.901	0	618.00	0	3.9060	0	34.1520	0	27.126	0	611.906	0	-1e10	8	-1e10	8	-1E+10	1	-1E+10	1	-1E+10	1	-1E+10	1	-1E+10	1	-1E+10	1
4902554	92	C	08/26/2023	01:09	-132.966	47.901	0	623.30	0	3.9040	0	34.1530	0	27.127	0	617.146	0	-1e10	8	-1e10	8	-1E+10	1	-1E+10	1	-1E+10	1	-1E+10	1	-1E+10	1	-1E+10	1
4902554	92	C	08/26/2023	01:09	-132.966	47.901	0	628.20	0	3.8950	0	34.1560	0	27.130	0	621.991	0	-1e10	8	-1e10	8	-1E+10	1	-1E+10	1	-1E+10	1	-1E+10	1	-1E+10	1	-1E+10	1
4902554	92	C	08/26/2023	01:09	-132.966	47.901	0	633.10	0	3.8810	0	34.1580	0	27.133	0	626.835	0	-1e10	8	-1e10	8	-1E+10	1	-1E+10	1	-1E+10	1	-1E+10	1	-1E+10	1	-1E+10	1
4902554	92	C	08/26/2023	01:09	-132.966	47.901	0	638.00	0	3.8750	0	34.1600	0	27.135	0	631.679	0	-1e10	8	-1e10	8	-1E+10	1	-1E+10	1	-1E+10	1	-1E+10	1	-1E+10	1	-1E+10	1
4902554	92	C	08/26/2023	01:09	-132.966	47.901	0	643.00	0	3.8610	0	34.1650	0	27.141	0	636.622	0	-1e10	8	-1e10	8	-1E+10	1	-1E+10	1	-1E+10	1	-1E+10	1	-1E+10	1	-1E+10	1
4902554	92	C	08/26/2023	01:09	-132.966	47.901	0	647.80	0	3.8500	0	34.1680	0	27.144	0	641.367	0	-1e10	8	-1e10	8	-1E+10	1	-1E+10	1	-1E+10	1	-1E+10	1	-1E+10	1	-1E+10	1
4902554	92	C	08/26/2023	01:09	-132.966	47.901	0	652.70	0	3.8330	0	34.1750	0	27.152	0	646.211	0	-1e10	8	-1e10	8	-1E+10	1	-1E+10	1	-1E+10	1	-1E+10	1	-1E+10	1	-1E+10	1
4902554	92	C	08/26/2023	01:09	-132.966	47.901	0	657.60	0	3.8190	0	34.1800	0	27.157	0	651.054	0	-1e10	8	-1e10	8	-1E+10	1	-1E+10	1	-1E+10	1	-1E+10	1	-1E+10	1	-1E+10	1
4902554	92	C	08/26/2023	01:09	-132.966	47.901	0	662.90	0	3.8110	0	34.1840	0	27.161	0	656.293	0	-1e10	8	-1e10	8	-1E+10	1	-1E+10	1	-1E+10	1	-1E+10	1	-1E+10	1	-1E+10	1
4902554	92	C	08/26/2023	01:09	-132.966	47.901	0	668.20	0	3.8070	0	34.1860	0	27.163	0	661.532	0	-1e10	8	-1e10	8	-1E+10	1	-1E+10	1	-1E+10	1	-1E+10	1	-1E+10	1	-1E+10	1
4902554	92	C	08/26/2023	01:09	-132.966	47.901	0	673.00	0	3.8040	0	34.1880	0	27.165	0	666.276	0	-1e10	8	-1e10	8	-1E+10	1	-1E+10	1	-1E+10	1	-1E+10	1	-1E+10	1	-1E+10	1
4902554	92	C	08/26/2023	01:09	-132.966	47.901	0	677.80	0	3.7950	0	34.1920	0	27.169	0	671.021	0	-1e10	8	-1e10	8	-1E+10	1	-1E+10	1	-1E+10	1	-1E+10	1	-1E+10	1	-1E+10	1
4902554	92	C	08/26/2023	01:09	-132.966	47.901	0	683.00	0	3.7770	0	34.1970	0	27.175	0	676.160	0	-1e10	8	-1e10	8	-1E+10	1	-1E+10	1	-1E+10	1	-1E+10	1	-1E+10	1	-1E+10	1
4902554	92	C	08/26/2023	01:09	-132.966	47.901	0	688.30	0	3.7750	0	34.2050	0	27.182	0	681.398	0	-1e10	8	-1e10	8	-1E+10	1	-1E+10	1	-1E+10	1	-1E+10	1	-1E+10	1	-1E+10	1
4902554	92	C	08/26/2023	01:09	-132.966	47.901	0	693.10	0	3.7820	0	34.2140	0	27.188	0	686.142	0	-1e10	8	-1e10	8	-1E+10	1	-1E+10	1	-1E+10	1	-1E+10	1	-1E+10	1	-1E+10	1
4902554	92	C	08/26/2023	01:09	-132.966	47.901	0	697.90	0	3.7690	0	34.2170	0	27.192	0	690.886	0	-1e10	8	-1e10	8	-1E+10	1	-1E+10	1	-1E+10	1	-1E+10	1	-1E+10	1	-1E+10	1
4902554	92	C	08/26/2023	01:09	-132.966	47.901	0	702.70	0	3.7590	0	34.2200	0	27.195	0	695.630	0	-1e10	8	-1e10	8	-1E+10	1	-1E+10	1	-1E+10	1	-1E+10	1	-1E+10	1	-1E+10	1
4902554	92	C	08/26/2023	01:09	-132.966	47.901	0	708.00	0	3.7410	0	34.2240	0	27.200	0	700.868	0	-1e10	8	-1e10	8	-1E+10	1	-1E+10	1	-1E+10	1	-1E+10	1	-1E+10	1	-1E+10	1
4902554	92	C	08/26/2023	01:09	-132.966	47.901	0	713.40	0	3.7280	0	34.2260	0	27.203	0	706.204	0	-1e10	8	-1e10	8	-1E+10	1	-1E+10	1	-1E+10	1	-1E+10	1	-1E+10	1	-1E+10	1
4902554	92	C	08/26/2023	01:09	-132.966	47.901	0	718.40	0	3.7170	0	34.2280	0	27.206	0	711.145	0	-1e10	8	-1e10	8	-1E+10	1	-1E+10	1	-1E+10	1	-1E+10	1	-1E+10	1	-1E+10	1
4902554	92	C	08/26/2023	01:09	-132.966	47.901	0	722.90	0	3.7090	0	34.2300	0	27.208	0	715.592	0	-1e10	8	-1e10	8	-1E+10	1	-1E+10	1	-1E+10	1	-1E+10	1	-1E+10	1	-1E+10	1
4902554	92	C	08/26/2023	01:09	-132.966	47.901	0	727.50	0	3.7040	0	34.2320	0	27.210	0	720.138	0	-1e10	8	-1e10	8	-1E+10	1	-1E+10	1	-1E+10	1	-1E+10	1	-1E+10	1	-1E+10	1
4902554	92	C	08/26/2023	01:09	-132.966	47.901	0	732.60	0	3.6930	0	34.2350	0	27.214	0	725.177	0	-1e10	8	-1e10	8	-1E+10	1	-1E+10	1	-1E+10	1	-1E+10	1	-1E+10	1	-1E+10	1
4902554	92	C	08/26/2023	01:09	-132.966	47.901	0	737.80	0	3.6930	0	34.2400	0	27.218	0	730.315	0	-1e10	8	-1e10	8	-1E+10	1	-1E+10	1	-1E+10	1	-1E+10	1	-1E+10	1	-1E+10	1
4902554	92	C	08/26/2023	01:09	-132.966	47.901	0	743.00	0	3.7080	0	34.2480	0	27.223	0	735.453	0	-1e10	8	-1e10	8	-1E+10	1	-1E+10	1	-1E+10	1	-1E+10	1	-1E+10	1	-1E+10	1
4902554	92	C	08/26/2023	01:09	-132.966	47.901	0	748.20	0	3.6980	0	34.2540	0	27.229	0	740.591	0	-1e10	8	-1e10	8	-1E+10	1	-1E+10	1	-1E+10	1	-1E+10	1	-1E+10	1	-1E+10	1
4902554	92	C	08/26/2023	01:09	-132.966	47.901	0	753.00	0	3.6880	0	34.2580	0	27.233	0	745.334	0	-1e10	8	-1e10	8	-1E+10	1	-1E+10	1	-1E+10	1	-1E+10	1	-1E+10	1	-1E+10	1
4902554	92	C	08/26/2023	01:09	-132.966	47.901	0	757.90	0	3.6820	0	34.2600	0	27.235	0	750.175	0	-1e10	8	-1e10	8	-1E+10	1	-1E+10	1	-1E+10	1	-1E+10	1	-1E+10	1	-1E+10	1
4902554	92	C	08/26/2023	01:09	-132.966	47.901	0	762.90	0	3.6760	0	34.2620	0	27.237	0	755.115	0	-1e10	8	-1e10	8	-1E+10	1	-1E+10	1	-1E+10	1	-1E+10	1	-1E+10	1	-1E+10	1
4902554	92	C	08/26/2023	01:09	-132.966	47.901	0	768.00	0	3.6710	0	34.2630	0	27.239	0	760.154	0	-1e10	8	-1e10	8	-1E+10	1	-1E+10	1	-1E+10	1	-1E+10	1	-1E+10	1	-1E+10	1
4902554	92	C	08/26/2023	01:09	-132.966	47.901	0	773.20	0	3.6610	0	34.2680	0	27.244	0	765.291	0	-1e10	8	-1e10	8	-1E+10	1	-1E+10	1	-1E+10	1	-1E+10	1	-1E+10	1	-1E+10	1
4902554	92	C	08/26/2023	01:09	-132.966	47.901	0	778.00	0	3.6540	0	34.2720	0	27.247	0	770.033	0	-1e10	8	-1e10	8	-1E+10	1	-1E+10	1	-1E+10	1	-1E+10	1	-1E+10	1	-1E+10	1
4902554	92	C	08/26/2023	01:09	-132.966	47.901	0	782.90	0	3.6370	0	34.2760	0	27.252	0	774.874	0	-1e10	8	-1e10	8	-1E+10	1	-1E+10	1	-1E+10	1	-1E+10	1	-1E+10	1	-1E+10	1
4902554	92	C	08/26/2023	01:09	-132.966	47.901	0	787.90	0	3.6200	0	34.2800	0	27.257	0	779.814	0	-1e10	8	-1e10	8	-1E+10	1	-1E+10	1	-1E+10	1	-1E+10	1	-1E+10	1	-1E+10	1
4902554	92	C	08/26/2023	01:09	-132.966	47.901	0	792.80	0	3.6030	0	34.2840	0	27.262	0	784.654	0	-1e10	8	-1e10	8	-1E+10	1	-1E+10	1	-1E+10	1	-1E+10	1	-1E+10	1	-1E+10	1
4902554	92	C	08/26/2023	01:09	-132.966	47.901	0	797.90	0	3.5870	0	34.2870	0	27.266	0	789.692	0	-1e10	8	-1e10	8	-1E+10	1	-1E+10	1	-1E+10	1	-1E+10	1	-1E+10	1	-1E+10	1
4902554	92	C	08/26/2023	01:09	-132.966	47.901	0	803.00	0	3.5670	0	34.2900	0	27.270	0	794.730	0	-1e10	8	-1e10	8	-1E+10	1	-1E+10	1	-1E+10	1	-1E+10	1	-1E+10	1	-1E+10	1
4902554	92	C	08/26/2023	01:09	-132.966	47.901	0	808.20	0	3.5640	0	34.2910	0	27.272	0	799.866	0	-1e10	8	-1e10	8	-1E+10	1	-1E+10	1	-1E+10	1	-1E+10	1	-1E+10	1	-1E+10	1
4902554	92	C	08/26/2023	01:09	-132.966	47.901	0	812.90	0	3.5370	0	34.2930	0	27.276	0	804.509	0	-1e10	8	-1e10	8	-1E+10	1	-1E+10	1	-1E+10	1	-1E+10	1	-1E+10	1	-1E+10	1
4902554	92	C	08/26/2023	01:09	-132.966	47.901	0	817.60	0	3.4960	0	34.2930	0	27.280	0	809.151	0	-1e10	8	-1e10	8	-1E+10	1	-1E+10	1	-1E+10	1	-1E+10	1	-1E+10	1	-1E+10	1
4902554	92	C	08/26/2023	01:09	-132.966	47.901	0	822.80	0	3.4380	0	34.2900	0	27.283	0	814.287	0	-1e10	8	-1e10	8	-1E+10	1	-1E+10	1	-1E+10	1	-1E+10	1	-1E+10	1	-1E+10	1
4902554	92	C	08/26/2023	01:09	-132.966	47.901	0	828.20	0	3.3980	0	34.2890	0	27.286	0	819.621	0	-1e10	8	-1e10	8	-1E+10	1	-1E+10	1	-1E+10	1	-1E+10	1	-1E+10	1	-1E+10	1
4902554	92	C	08/26/2023	01:09	-132.966	47.901	0	833.10	0	3.3860	0	34.2910	0	27.289	0	824.461	0	-1e10	8	-1e10	8	-1E+10	1	-1E+10	1	-1E+10	1	-1E+10	1	-1E+10	1	-1E+10	1
4902554	92	C	08/26/2023	01:09	-132.966	47.901	0	838.00	0	3.3690	0	34.2940	0	27.293	0	829.300	0	-1e10	8	-1e10	8	-1E+10	1	-1E+10	1	-1E+10	1	-1E+10	1	-1E+10	1	-1E+10	1
4902554	92	C	08/26/2023	01:09	-132.966	47.901	0	843.00	0	3.3630	0	34.2960	0	27.295	0	834.238	0	-1e10	8	-1e10	8	-1E+10	1	-1E+10	1	-1E+10	1	-1E+10	1	-1E+10	1	-1E+10	1
4902554	92	C	08/26/2023	01:09	-132.966	47.901	0	848.00	0	3.3480	0	34.2980	0	27.298	0	839.176	0	-1e10	8	-1e10	8	-1E+10	1	-1E+10	1	-1E+10	1	-1E+10	1	-1E+10	1	-1E+10	1
4902554	92	C	08/26/2023	01:09	-132.966	47.901	0	853.00	0	3.3360	0	34.3010	0	27.302	0	844.114	0	-1e10	8	-1e10	8	-1E+10	1	-1E+10	1	-1E+10	1	-1E+10	1	-1E+10	1	-1E+10	1
4902554	92	C	08/26/2023	01:09	-132.966	47.901	0	858.10	0	3.3200	0	34.3040	0	27.305	0	849.150	0	-1e10	8	-1e10	8	-1E+10	1	-1E+10	1	-1E+10	1	-1E+10	1	-1E+10	1	-1E+10	1
4902554	92	C	08/26/2023	01:09	-132.966	47.901	0	863.10	0	3.3060	0	34.3070	0	27.309	0	854.088	0	-1e10	8	-1e10	8	-1E+10	1	-1E+10	1	-1E+10	1	-1E+10	1	-1E+10	1	-1E+10	1
4902554	92	C	08/26/2023	01:09	-132.966	47.901	0	868.20	0	3.2970	0	34.3090	0	27.312	0	859.124	0	-1e10	8	-1e10	8	-1E+10	1	-1E+10	1	-1E+10	1	-1E+10	1	-1E+10	1	-1E+10	1
4902554	92	C	08/26/2023	01:09	-132.966	47.901	0	872.90	0	3.2820	0	34.3120	0	27.315	0	863.766	0	-1e10	8	-1e10	8	-1E+10	1	-1E+10	1	-1E+10	1	-1E+10	1	-1E+10	1	-1E+10	1
4902554	92	C	08/26/2023	01:09	-132.966	47.901	0	877.50	0	3.2740	0	34.3140	0	27.318	0	868.308	0	-1e10	8	-1e10	8	-1E+10	1	-1E+10	1	-1E+10	1	-1E+10	1	-1E+10	1	-1E+10	1
4902554	92	C	08/26/2023	01:09	-132.966	47.901	0	882.70	0	3.2660	0	34.3160	0	27.320	0	873.443	0	-1e10	8	-1e10	8	-1E+10	1	-1E+10	1	-1E+10	1	-1E+10	1	-1E+10	1	-1E+10	1
4902554	92	C	08/26/2023	01:09	-132.966	47.901	0	888.00	0	3.2560	0	34.3180	0	27.323	0	878.676	0	-1e10	8	-1e10	8	-1E+10	1	-1E+10	1	-1E+10	1	-1E+10	1	-1E+10	1	-1E+10	1
4902554	92	C	08/26/2023	01:09	-132.966	47.901	0	893.20	0	3.2490	0	34.3200	0	27.325	0	883.810	0	-1e10	8	-1e10	8	-1E+10	1	-1E+10	1	-1E+10	1	-1E+10	1	-1E+10	1	-1E+10	1
4902554	92	C	08/26/2023	01:09	-132.966	47.901	0	898.00	0	3.2390	0	34.3220	0	27.328	0	888.550	0	-1e10	8	-1e10	8	-1E+10	1	-1E+10	1	-1E+10	1	-1E+10	1	-1E+10	1	-1E+10	1
4902554	92	C	08/26/2023	01:09	-132.966	47.901	0	902.90	0	3.2330	0	34.3240	0	27.330	0	893.388	0	-1e10	8	-1e10	8	-1E+10	1	-1E+10	1	-1E+10	1	-1E+10	1	-1E+10	1	-1E+10	1
4902554	92	C	08/26/2023	01:09	-132.966	47.901	0	907.70	0	3.2270	0	34.3250	0	27.331	0	898.127	0	-1e10	8	-1e10	8	-1E+10	1	-1E+10	1	-1E+10	1	-1E+10	1	-1E+10	1	-1E+10	1
4902554	92	C	08/26/2023	01:09	-132.966	47.901	0	912.70	0	3.2250	0	34.3260	0	27.332	0	903.063	0	-1e10	8	-1e10	8	-1E+10	1	-1E+10	1	-1E+10	1	-1E+10	1	-1E+10	1	-1E+10	1
4902554	92	C	08/26/2023	01:09	-132.966	47.901	0	917.70	0	3.2190	0	34.3270	0	27.334	0	908.000	0	-1e10	8	-1e10	8	-1E+10	1	-1E+10	1	-1E+10	1	-1E+10	1	-1E+10	1	-1E+10	1
4902554	92	C	08/26/2023	01:09	-132.966	47.901	0	922.70	0	3.2150	0	34.3280	0	27.335	0	912.936	0	-1e10	8	-1e10	8	-1E+10	1	-1E+10	1	-1E+10	1	-1E+10	1	-1E+10	1	-1E+10	1
4902554	92	C	08/26/2023	01:09	-132.966	47.901	0	927.80	0	3.2090	0	34.3300	0	27.337	0	917.971	0	-1e10	8	-1e10	8	-1E+10	1	-1E+10	1	-1E+10	1	-1E+10	1	-1E+10	1	-1E+10	1
4902554	92	C	08/26/2023	01:09	-132.966	47.901	0	932.90	0	3.1950	0	34.3330	0	27.341	0	923.005	0	-1e10	8	-1e10	8	-1E+10	1	-1E+10	1	-1E+10	1	-1E+10	1	-1E+10	1	-1E+10	1
4902554	92	C	08/26/2023	01:09	-132.966	47.901	0	938.10	0	3.1840	0	34.3360	0	27.344	0	928.139	0	-1e10	8	-1e10	8	-1E+10	1	-1E+10	1	-1E+10	1	-1E+10	1	-1E+10	1	-1E+10	1
4902554	92	C	08/26/2023	01:09	-132.966	47.901	0	942.90	0	3.1780	0	34.3370	0	27.346	0	932.877	0	-1e10	8	-1e10	8	-1E+10	1	-1E+10	1	-1E+10	1	-1E+10	1	-1E+10	1	-1E+10	1
4902554	92	C	08/26/2023	01:09	-132.966	47.901	0	947.60	0	3.1710	0	34.3390	0	27.348	0	937.517	0	-1e10	8	-1e10	8	-1E+10	1	-1E+10	1	-1E+10	1	-1E+10	1	-1E+10	1	-1E+10	1
4902554	92	C	08/26/2023	01:09	-132.966	47.901	0	952.70	0	3.1590	0	34.3420	0	27.351	0	942.551	0	-1e10	8	-1e10	8	-1E+10	1	-1E+10	1	-1E+10	1	-1E+10	1	-1E+10	1	-1E+10	1
4902554	92	C	08/26/2023	01:09	-132.966	47.901	0	958.00	0	3.1570	0	34.3430	0	27.352	0	947.782	0	-1e10	8	-1e10	8	-1E+10	1	-1E+10	1	-1E+10	1	-1E+10	1	-1E+10	1	-1E+10	1
4902554	92	C	08/26/2023	01:09	-132.966	47.901	0	963.20	0	3.1480	0	34.3440	0	27.354	0	952.915	0	-1e10	8	-1e10	8	-1E+10	1	-1E+10	1	-1E+10	1	-1E+10	1	-1E+10	1	-1E+10	1
4902554	92	C	08/26/2023	01:09	-132.966	47.901	0	968.00	0	3.1390	0	34.3470	0	27.357	0	957.653	0	-1e10	8	-1e10	8	-1E+10	1	-1E+10	1	-1E+10	1	-1E+10	1	-1E+10	1	-1E+10	1
4902554	92	C	08/26/2023	01:09	-132.966	47.901	0	972.90	0	3.1350	0	34.3480	0	27.358	0	962.489	0	-1e10	8	-1e10	8	-1E+10	1	-1E+10	1	-1E+10	1	-1E+10	1	-1E+10	1	-1E+10	1
4902554	92	C	08/26/2023	01:09	-132.966	47.901	0	977.90	0	3.1290	0	34.3490	0	27.360	0	967.424	0	-1e10	8	-1e10	8	-1E+10	1	-1E+10	1	-1E+10	1	-1E+10	1	-1E+10	1	-1E+10	1
4902554	92	C	08/26/2023	01:09	-132.966	47.901	0	982.80	0	3.1220	0	34.3510	0	27.362	0	972.260	0	-1e10	8	-1e10	8	-1E+10	1	-1E+10	1	-1E+10	1	-1E+10	1	-1E+10	1	-1E+10	1
4902554	92	C	08/26/2023	01:09	-132.966	47.901	0	988.10	0	3.1140	0	34.3530	0	27.364	0	977.491	0	-1e10	8	-1e10	8	-1E+10	1	-1E+10	1	-1E+10	1	-1E+10	1	-1E+10	1	-1E+10	1
4902554	92	C	08/26/2023	01:09	-132.966	47.901	0	993.00	0	3.1110	0	34.3540	0	27.366	0	982.327	0	-1e10	8	-1e10	8	-1E+10	1	-1E+10	1	-1E+10	1	-1E+10	1	-1E+10	1	-1E+10	1
4902554	92	C	08/26/2023	01:09	-132.966	47.901	0	998.00	0	3.1010	0	34.3560	0	27.368	0	987.262	0	-1e10	8	-1e10	8	-1E+10	1	-1E+10	1	-1E+10	1	-1E+10	1	-1E+10	1	-1E+10	1
4902554	92	C	08/26/2023	01:09	-132.966	47.901	0	1005.80	0	3.0900	0	34.3600	0	27.372	0	994.959	0	-1e10	8	-1e10	8	-1E+10	1	-1E+10	1	-1E+10	1	-1E+10	1	-1E+10	1	-1E+10	1
4902554	92	C	08/26/2023	01:09	-132.966	47.901	0	1015.50	0	3.0770	0	34.3640	0	27.377	0	1004.531	0	-1e10	8	-1e10	8	-1E+10	1	-1E+10	1	-1E+10	1	-1E+10	1	-1E+10	1	-1E+10	1
4902554	92	C	08/26/2023	01:09	-132.966	47.901	0	1025.20	0	3.0600	0	34.3680	0	27.382	0	1014.103	0	-1e10	8	-1e10	8	-1E+10	1	-1E+10	1	-1E+10	1	-1E+10	1	-1E+10	1	-1E+10	1
4902554	92	C	08/26/2023	01:09	-132.966	47.901	0	1035.40	0	3.0490	0	34.3720	0	27.386	0	1024.168	0	-1e10	8	-1e10	8	-1E+10	1	-1E+10	1	-1E+10	1	-1E+10	1	-1E+10	1	-1E+10	1
4902554	92	C	08/26/2023	01:09	-132.966	47.901	0	1045.70	0	3.0370	0	34.3750	0	27.389	0	1034.331	0	-1e10	8	-1e10	8	-1E+10	1	-1E+10	1	-1E+10	1	-1E+10	1	-1E+10	1	-1E+10	1
4902554	92	C	08/26/2023	01:09	-132.966	47.901	0	1055.40	0	3.0180	0	34.3780	0	27.394	0	1043.901	0	-1e10	8	-1e10	8	-1E+10	1	-1E+10	1	-1E+10	1	-1E+10	1	-1E+10	1	-1E+10	1
4902554	92	C	08/26/2023	01:09	-132.966	47.901	0	1065.10	0	2.9980	0	34.3830	0	27.399	0	1053.471	0	-1e10	8	-1e10	8	-1E+10	1	-1E+10	1	-1E+10	1	-1E+10	1	-1E+10	1	-1E+10	1
4902554	92	C	08/26/2023	01:09	-132.966	47.901	0	1075.30	0	2.9840	0	34.3860	0	27.403	0	1063.534	0	-1e10	8	-1e10	8	-1E+10	1	-1E+10	1	-1E+10	1	-1E+10	1	-1E+10	1	-1E+10	1
4902554	92	C	08/26/2023	01:09	-132.966	47.901	0	1085.40	0	2.9680	0	34.3900	0	27.408	0	1073.498	0	-1e10	8	-1e10	8	-1E+10	1	-1E+10	1	-1E+10	1	-1E+10	1	-1E+10	1	-1E+10	1
4902554	92	C	08/26/2023	01:09	-132.966	47.901	0	1095.50	0	2.9510	0	34.3950	0	27.413	0	1083.461	0	-1e10	8	-1e10	8	-1E+10	1	-1E+10	1	-1E+10	1	-1E+10	1	-1E+10	1	-1E+10	1
4902554	92	C	08/26/2023	01:09	-132.966	47.901	0	1105.70	0	2.9370	0	34.3990	0	27.418	0	1093.522	0	-1e10	8	-1e10	8	-1E+10	1	-1E+10	1	-1E+10	1	-1E+10	1	-1E+10	1	-1E+10	1
4902554	92	C	08/26/2023	01:09	-132.966	47.901	0	1115.40	0	2.9220	0	34.4030	0	27.422	0	1103.090	0	-1e10	8	-1e10	8	-1E+10	1	-1E+10	1	-1E+10	1	-1E+10	1	-1E+10	1	-1E+10	1
4902554	92	C	08/26/2023	01:09	-132.966	47.901	0	1125.40	0	2.9100	0	34.4060	0	27.426	0	1112.953	0	-1e10	8	-1e10	8	-1E+10	1	-1E+10	1	-1E+10	1	-1E+10	1	-1E+10	1	-1E+10	1
4902554	92	C	08/26/2023	01:09	-132.966	47.901	0	1135.40	0	2.9030	0	34.4090	0	27.429	0	1122.816	0	-1e10	8	-1e10	8	-1E+10	1	-1E+10	1	-1E+10	1	-1E+10	1	-1E+10	1	-1E+10	1
4902554	92	C	08/26/2023	01:09	-132.966	47.901	0	1145.20	0	2.8900	0	34.4140	0	27.434	0	1132.481	0	-1e10	8	-1e10	8	-1E+10	1	-1E+10	1	-1E+10	1	-1E+10	1	-1E+10	1	-1E+10	1
4902554	92	C	08/26/2023	01:09	-132.966	47.901	0	1155.40	0	2.8800	0	34.4160	0	27.437	0	1142.540	0	-1e10	8	-1e10	8	-1E+10	1	-1E+10	1	-1E+10	1	-1E+10	1	-1E+10	1	-1E+10	1
4902554	92	C	08/26/2023	01:09	-132.966	47.901	0	1165.30	0	2.8740	0	34.4190	0	27.440	0	1152.302	0	-1e10	8	-1e10	8	-1E+10	1	-1E+10	1	-1E+10	1	-1E+10	1	-1E+10	1	-1E+10	1
4902554	92	C	08/26/2023	01:09	-132.966	47.901	0	1175.00	0	2.8570	0	34.4220	0	27.444	0	1161.867	0	-1e10	8	-1e10	8	-1E+10	1	-1E+10	1	-1E+10	1	-1E+10	1	-1E+10	1	-1E+10	1
4902554	92	C	08/26/2023	01:09	-132.966	47.901	0	1185.40	0	2.8400	0	34.4250	0	27.448	0	1172.122	0	-1e10	8	-1e10	8	-1E+10	1	-1E+10	1	-1E+10	1	-1E+10	1	-1E+10	1	-1E+10	1
4902554	92	C	08/26/2023	01:09	-132.966	47.901	0	1195.10	0	2.8210	0	34.4290	0	27.453	0	1181.686	0	-1e10	8	-1e10	8	-1E+10	1	-1E+10	1	-1E+10	1	-1E+10	1	-1E+10	1	-1E+10	1
4902554	92	C	08/26/2023	01:09	-132.966	47.901	0	1205.30	0	2.8000	0	34.4330	0	27.458	0	1191.743	0	-1e10	8	-1e10	8	-1E+10	1	-1E+10	1	-1E+10	1	-1E+10	1	-1E+10	1	-1E+10	1
4902554	92	C	08/26/2023	01:09	-132.966	47.901	0	1215.60	0	2.7800	0	34.4350	0	27.461	0	1201.898	0	-1e10	8	-1e10	8	-1E+10	1	-1E+10	1	-1E+10	1	-1E+10	1	-1E+10	1	-1E+10	1
4902554	92	C	08/26/2023	01:09	-132.966	47.901	0	1225.40	0	2.7640	0	34.4370	0	27.464	0	1211.559	0	-1e10	8	-1e10	8	-1E+10	1	-1E+10	1	-1E+10	1	-1E+10	1	-1E+10	1	-1E+10	1
4902554	92	C	08/26/2023	01:09	-132.966	47.901	0	1235.60	0	2.7460	0	34.4390	0	27.467	0	1221.614	0	-1e10	8	-1e10	8	-1E+10	1	-1E+10	1	-1E+10	1	-1E+10	1	-1E+10	1	-1E+10	1
4902554	92	C	08/26/2023	01:09	-132.966	47.901	0	1245.50	0	2.7390	0	34.4410	0	27.470	0	1231.373	0	-1e10	8	-1e10	8	-1E+10	1	-1E+10	1	-1E+10	1	-1E+10	1	-1E+10	1	-1E+10	1
4902554	92	C	08/26/2023	01:09	-132.966	47.901	0	1255.30	0	2.7250	0	34.4440	0	27.473	0	1241.033	0	-1e10	8	-1e10	8	-1E+10	1	-1E+10	1	-1E+10	1	-1E+10	1	-1E+10	1	-1E+10	1
4902554	92	C	08/26/2023	01:09	-132.966	47.901	0	1265.20	0	2.7110	0	34.4450	0	27.475	0	1250.791	0	-1e10	8	-1e10	8	-1E+10	1	-1E+10	1	-1E+10	1	-1E+10	1	-1E+10	1	-1E+10	1
4902554	92	C	08/26/2023	01:09	-132.966	47.901	0	1275.40	0	2.7020	0	34.4480	0	27.479	0	1260.844	0	-1e10	8	-1e10	8	-1E+10	1	-1E+10	1	-1E+10	1	-1E+10	1	-1E+10	1	-1E+10	1
4902554	92	C	08/26/2023	01:09	-132.966	47.901	0	1285.50	0	2.6990	0	34.4490	0	27.480	0	1270.799	0	-1e10	8	-1e10	8	-1E+10	1	-1E+10	1	-1E+10	1	-1E+10	1	-1E+10	1	-1E+10	1
4902554	92	C	08/26/2023	01:09	-132.966	47.901	0	1295.20	0	2.6790	0	34.4510	0	27.483	0	1280.358	0	-1e10	8	-1e10	8	-1E+10	1	-1E+10	1	-1E+10	1	-1E+10	1	-1E+10	1	-1E+10	1
4902554	92	C	08/26/2023	01:09	-132.966	47.901	0	1305.40	0	2.6660	0	34.4530	0	27.486	0	1290.410	0	-1e10	8	-1e10	8	-1E+10	1	-1E+10	1	-1E+10	1	-1E+10	1	-1E+10	1	-1E+10	1
4902554	92	C	08/26/2023	01:09	-132.966	47.901	0	1315.80	0	2.6600	0	34.4550	0	27.488	0	1300.659	0	-1e10	8	-1e10	8	-1E+10	1	-1E+10	1	-1E+10	1	-1E+10	1	-1E+10	1	-1E+10	1
4902554	92	C	08/26/2023	01:09	-132.966	47.901	0	1325.70	0	2.6500	0	34.4570	0	27.491	0	1310.414	0	-1e10	8	-1e10	8	-1E+10	1	-1E+10	1	-1E+10	1	-1E+10	1	-1E+10	1	-1E+10	1
4902554	92	C	08/26/2023	01:09	-132.966	47.901	0	1335.60	0	2.6350	0	34.4600	0	27.494	0	1320.169	0	-1e10	8	-1e10	8	-1E+10	1	-1E+10	1	-1E+10	1	-1E+10	1	-1E+10	1	-1E+10	1
4902554	92	C	08/26/2023	01:09	-132.966	47.901	0	1345.40	0	2.6200	0	34.4620	0	27.497	0	1329.825	0	-1e10	8	-1e10	8	-1E+10	1	-1E+10	1	-1E+10	1	-1E+10	1	-1E+10	1	-1E+10	1
4902554	92	C	08/26/2023	01:09	-132.966	47.901	0	1355.30	0	2.6100	0	34.4640	0	27.500	0	1339.579	0	-1e10	8	-1e10	8	-1E+10	1	-1E+10	1	-1E+10	1	-1E+10	1	-1E+10	1	-1E+10	1
4902554	92	C	08/26/2023	01:09	-132.966	47.901	0	1365.50	0	2.5910	0	34.4670	0	27.504	0	1349.628	0	-1e10	8	-1e10	8	-1E+10	1	-1E+10	1	-1E+10	1	-1E+10	1	-1E+10	1	-1E+10	1
4902554	92	C	08/26/2023	01:09	-132.966	47.901	0	1375.60	0	2.5710	0	34.4700	0	27.508	0	1359.578	0	-1e10	8	-1e10	8	-1E+10	1	-1E+10	1	-1E+10	1	-1E+10	1	-1E+10	1	-1E+10	1
4902554	92	C	08/26/2023	01:09	-132.966	47.901	0	1385.60	0	2.5620	0	34.4740	0	27.512	0	1369.429	0	-1e10	8	-1e10	8	-1E+10	1	-1E+10	1	-1E+10	1	-1E+10	1	-1E+10	1	-1E+10	1
4902554	92	C	08/26/2023	01:09	-132.966	47.901	0	1395.60	0	2.5480	0	34.4770	0	27.516	0	1379.279	0	-1e10	8	-1e10	8	-1E+10	1	-1E+10	1	-1E+10	1	-1E+10	1	-1E+10	1	-1E+10	1
4902554	92	C	08/26/2023	01:09	-132.966	47.901	0	1405.40	0	2.5360	0	34.4820	0	27.521	0	1388.933	0	-1e10	8	-1e10	8	-1E+10	1	-1E+10	1	-1E+10	1	-1E+10	1	-1E+10	1	-1E+10	1
4902554	92	C	08/26/2023	01:09	-132.966	47.901	0	1415.50	0	2.5080	0	34.4840	0	27.525	0	1398.881	0	-1e10	8	-1e10	8	-1E+10	1	-1E+10	1	-1E+10	1	-1E+10	1	-1E+10	1	-1E+10	1
4902554	92	C	08/26/2023	01:09	-132.966	47.901	0	1425.30	0	2.4810	0	34.4850	0	27.528	0	1408.533	0	-1e10	8	-1e10	8	-1E+10	1	-1E+10	1	-1E+10	1	-1E+10	1	-1E+10	1	-1E+10	1
4902554	92	C	08/26/2023	01:09	-132.966	47.901	0	1435.40	0	2.4560	0	34.4890	0	27.533	0	1418.480	0	-1e10	8	-1e10	8	-1E+10	1	-1E+10	1	-1E+10	1	-1E+10	1	-1E+10	1	-1E+10	1
4902554	92	C	08/26/2023	01:09	-132.966	47.901	0	1445.70	0	2.4390	0	34.4920	0	27.537	0	1428.624	0	-1e10	8	-1e10	8	-1E+10	1	-1E+10	1	-1E+10	1	-1E+10	1	-1E+10	1	-1E+10	1
4902554	92	C	08/26/2023	01:09	-132.966	47.901	0	1455.70	0	2.4200	0	34.4960	0	27.542	0	1438.472	0	-1e10	8	-1e10	8	-1E+10	1	-1E+10	1	-1E+10	1	-1E+10	1	-1E+10	1	-1E+10	1
4902554	92	C	08/26/2023	01:09	-132.966	47.901	0	1465.40	0	2.4010	0	34.4990	0	27.546	0	1448.024	0	-1e10	8	-1e10	8	-1E+10	1	-1E+10	1	-1E+10	1	-1E+10	1	-1E+10	1	-1E+10	1
4902554	92	C	08/26/2023	01:09	-132.966	47.901	0	1475.40	0	2.3930	0	34.5020	0	27.549	0	1457.871	0	-1e10	8	-1e10	8	-1E+10	1	-1E+10	1	-1E+10	1	-1E+10	1	-1E+10	1	-1E+10	1
4902554	92	C	08/26/2023	01:09	-132.966	47.901	0	1485.60	0	2.3890	0	34.5030	0	27.550	0	1467.914	0	-1e10	8	-1e10	8	-1E+10	1	-1E+10	1	-1E+10	1	-1E+10	1	-1E+10	1	-1E+10	1
4902554	92	C	08/26/2023	01:09	-132.966	47.901	0	1495.50	0	2.3790	0	34.5060	0	27.553	0	1477.662	0	-1e10	8	-1e10	8	-1E+10	1	-1E+10	1	-1E+10	1	-1E+10	1	-1E+10	1	-1E+10	1
4902554	92	C	08/26/2023	01:09	-132.966	47.901	0	1505.60	0	2.3690	0	34.5080	0	27.556	0	1487.606	0	-1e10	8	-1e10	8	-1E+10	1	-1E+10	1	-1E+10	1	-1E+10	1	-1E+10	1	-1E+10	1
4902554	92	C	08/26/2023	01:09	-132.966	47.901	0	1515.30	0	2.3580	0	34.5100	0	27.558	0	1497.156	0	-1e10	8	-1e10	8	-1E+10	1	-1E+10	1	-1E+10	1	-1E+10	1	-1E+10	1	-1E+10	1
4902554	92	C	08/26/2023	01:09	-132.966	47.901	0	1525.50	0	2.3510	0	34.5120	0	27.561	0	1507.197	0	-1e10	8	-1e10	8	-1E+10	1	-1E+10	1	-1E+10	1	-1E+10	1	-1E+10	1	-1E+10	1
4902554	92	C	08/26/2023	01:09	-132.966	47.901	0	1535.60	0	2.3380	0	34.5150	0	27.564	0	1517.140	0	-1e10	8	-1e10	8	-1E+10	1	-1E+10	1	-1E+10	1	-1E+10	1	-1E+10	1	-1E+10	1
4902554	92	C	08/26/2023	01:09	-132.966	47.901	0	1545.50	0	2.3260	0	34.5160	0	27.566	0	1526.885	0	-1e10	8	-1e10	8	-1E+10	1	-1E+10	1	-1E+10	1	-1E+10	1	-1E+10	1	-1E+10	1
4902554	92	C	08/26/2023	01:09	-132.966	47.901	0	1555.20	0	2.3070	0	34.5190	0	27.570	0	1536.433	0	-1e10	8	-1e10	8	-1E+10	1	-1E+10	1	-1E+10	1	-1E+10	1	-1E+10	1	-1E+10	1
4902554	92	C	08/26/2023	01:09	-132.966	47.901	0	1565.10	0	2.2920	0	34.5200	0	27.572	0	1546.177	0	-1e10	8	-1e10	8	-1E+10	1	-1E+10	1	-1E+10	1	-1E+10	1	-1E+10	1	-1E+10	1
4902554	92	C	08/26/2023	01:09	-132.966	47.901	0	1575.20	0	2.2800	0	34.5220	0	27.575	0	1556.118	0	-1e10	8	-1e10	8	-1E+10	1	-1E+10	1	-1E+10	1	-1E+10	1	-1E+10	1	-1E+10	1
4902554	92	C	08/26/2023	01:09	-132.966	47.901	0	1585.40	0	2.2710	0	34.5240	0	27.577	0	1566.157	0	-1e10	8	-1e10	8	-1E+10	1	-1E+10	1	-1E+10	1	-1E+10	1	-1E+10	1	-1E+10	1
4902554	92	C	08/26/2023	01:09	-132.966	47.901	0	1595.50	0	2.2570	0	34.5270	0	27.581	0	1576.097	0	-1e10	8	-1e10	8	-1E+10	1	-1E+10	1	-1E+10	1	-1E+10	1	-1E+10	1	-1E+10	1
4902554	92	C	08/26/2023	01:09	-132.966	47.901	0	1605.40	0	2.2500	0	34.5280	0	27.582	0	1585.839	0	-1e10	8	-1e10	8	-1E+10	1	-1E+10	1	-1E+10	1	-1E+10	1	-1E+10	1	-1E+10	1
4902554	92	C	08/26/2023	01:09	-132.966	47.901	0	1615.50	0	2.2400	0	34.5300	0	27.585	0	1595.778	0	-1e10	8	-1e10	8	-1E+10	1	-1E+10	1	-1E+10	1	-1E+10	1	-1E+10	1	-1E+10	1
4902554	92	C	08/26/2023	01:09	-132.966	47.901	0	1625.30	0	2.2320	0	34.5310	0	27.586	0	1605.421	0	-1e10	8	-1e10	8	-1E+10	1	-1E+10	1	-1E+10	1	-1E+10	1	-1E+10	1	-1E+10	1
4902554	92	C	08/26/2023	01:09	-132.966	47.901	0	1635.50	0	2.2270	0	34.5330	0	27.588	0	1615.458	0	-1e10	8	-1e10	8	-1E+10	1	-1E+10	1	-1E+10	1	-1E+10	1	-1E+10	1	-1E+10	1
4902554	92	C	08/26/2023	01:09	-132.966	47.901	0	1645.30	0	2.2190	0	34.5340	0	27.590	0	1625.100	0	-1e10	8	-1e10	8	-1E+10	1	-1E+10	1	-1E+10	1	-1E+10	1	-1E+10	1	-1E+10	1
4902554	92	C	08/26/2023	01:09	-132.966	47.901	0	1655.10	0	2.2100	0	34.5370	0	27.593	0	1634.742	0	-1e10	8	-1e10	8	-1E+10	1	-1E+10	1	-1E+10	1	-1E+10	1	-1E+10	1	-1E+10	1
4902554	92	C	08/26/2023	01:09	-132.966	47.901	0	1665.00	0	2.2010	0	34.5380	0	27.594	0	1644.482	0	-1e10	8	-1e10	8	-1E+10	1	-1E+10	1	-1E+10	1	-1E+10	1	-1E+10	1	-1E+10	1
4902554	92	C	08/26/2023	01:09	-132.966	47.901	0	1675.10	0	2.1940	0	34.5400	0	27.597	0	1654.418	0	-1e10	8	-1e10	8	-1E+10	1	-1E+10	1	-1E+10	1	-1E+10	1	-1E+10	1	-1E+10	1
4902554	92	C	08/26/2023	01:09	-132.966	47.901	0	1685.20	0	2.1880	0	34.5420	0	27.599	0	1664.353	0	-1e10	8	-1e10	8	-1E+10	1	-1E+10	1	-1E+10	1	-1E+10	1	-1E+10	1	-1E+10	1
4902554	92	C	08/26/2023	01:09	-132.966	47.901	0	1695.10	0	2.1800	0	34.5440	0	27.601	0	1674.092	0	-1e10	8	-1e10	8	-1E+10	1	-1E+10	1	-1E+10	1	-1E+10	1	-1E+10	1	-1E+10	1
4902554	92	C	08/26/2023	01:09	-132.966	47.901	0	1705.20	0	2.1740	0	34.5450	0	27.602	0	1684.027	0	-1e10	8	-1e10	8	-1E+10	1	-1E+10	1	-1E+10	1	-1E+10	1	-1E+10	1	-1E+10	1
4902554	92	C	08/26/2023	01:09	-132.966	47.901	0	1715.50	0	2.1650	0	34.5470	0	27.605	0	1694.158	0	-1e10	8	-1e10	8	-1E+10	1	-1E+10	1	-1E+10	1	-1E+10	1	-1E+10	1	-1E+10	1
4902554	92	C	08/26/2023	01:09	-132.966	47.901	0	1725.50	0	2.1550	0	34.5480	0	27.606	0	1703.993	0	-1e10	8	-1e10	8	-1E+10	1	-1E+10	1	-1E+10	1	-1E+10	1	-1E+10	1	-1E+10	1
4902554	92	C	08/26/2023	01:09	-132.966	47.901	0	1735.50	0	2.1460	0	34.5500	0	27.609	0	1713.828	0	-1e10	8	-1e10	8	-1E+10	1	-1E+10	1	-1E+10	1	-1E+10	1	-1E+10	1	-1E+10	1
4902554	92	C	08/26/2023	01:09	-132.966	47.901	0	1745.50	0	2.1360	0	34.5520	0	27.611	0	1723.663	0	-1e10	8	-1e10	8	-1E+10	1	-1E+10	1	-1E+10	1	-1E+10	1	-1E+10	1	-1E+10	1
4902554	92	C	08/26/2023	01:09	-132.966	47.901	0	1755.20	0	2.1290	0	34.5530	0	27.613	0	1733.202	0	-1e10	8	-1e10	8	-1E+10	1	-1E+10	1	-1E+10	1	-1E+10	1	-1E+10	1	-1E+10	1
4902554	92	C	08/26/2023	01:09	-132.966	47.901	0	1765.20	0	2.1220	0	34.5540	0	27.614	0	1743.035	0	-1e10	8	-1e10	8	-1E+10	1	-1E+10	1	-1E+10	1	-1E+10	1	-1E+10	1	-1E+10	1
4902554	92	C	08/26/2023	01:09	-132.966	47.901	0	1775.20	0	2.1160	0	34.5570	0	27.617	0	1752.869	0	-1e10	8	-1e10	8	-1E+10	1	-1E+10	1	-1E+10	1	-1E+10	1	-1E+10	1	-1E+10	1
4902554	92	C	08/26/2023	01:09	-132.966	47.901	0	1785.30	0	2.1060	0	34.5580	0	27.619	0	1762.800	0	-1e10	8	-1e10	8	-1E+10	1	-1E+10	1	-1E+10	1	-1E+10	1	-1E+10	1	-1E+10	1
4902554	92	C	08/26/2023	01:09	-132.966	47.901	0	1795.30	0	2.0920	0	34.5610	0	27.622	0	1772.632	0	-1e10	8	-1e10	8	-1E+10	1	-1E+10	1	-1E+10	1	-1E+10	1	-1E+10	1	-1E+10	1
4902554	92	C	08/26/2023	01:09	-132.966	47.901	0	1805.20	0	2.0810	0	34.5640	0	27.626	0	1782.365	0	-1e10	8	-1e10	8	-1E+10	1	-1E+10	1	-1E+10	1	-1E+10	1	-1E+10	1	-1E+10	1
4902554	92	C	08/26/2023	01:09	-132.966	47.901	0	1815.10	0	2.0690	0	34.5660	0	27.628	0	1792.098	0	-1e10	8	-1e10	8	-1E+10	1	-1E+10	1	-1E+10	1	-1E+10	1	-1E+10	1	-1E+10	1
4902554	92	C	08/26/2023	01:09	-132.966	47.901	0	1825.10	0	2.0560	0	34.5670	0	27.630	0	1801.929	0	-1e10	8	-1e10	8	-1E+10	1	-1E+10	1	-1E+10	1	-1E+10	1	-1E+10	1	-1E+10	1
4902554	92	C	08/26/2023	01:09	-132.966	47.901	0	1835.20	0	2.0470	0	34.5690	0	27.632	0	1811.858	0	-1e10	8	-1e10	8	-1E+10	1	-1E+10	1	-1E+10	1	-1E+10	1	-1E+10	1	-1E+10	1
4902554	92	C	08/26/2023	01:09	-132.966	47.901	0	1845.10	0	2.0380	0	34.5700	0	27.634	0	1821.590	0	-1e10	8	-1e10	8	-1E+10	1	-1E+10	1	-1E+10	1	-1E+10	1	-1E+10	1	-1E+10	1
4902554	92	C	08/26/2023	01:09	-132.966	47.901	0	1855.30	0	2.0310	0	34.5710	0	27.635	0	1831.616	0	-1e10	8	-1e10	8	-1E+10	1	-1E+10	1	-1E+10	1	-1E+10	1	-1E+10	1	-1E+10	1
4902554	92	C	08/26/2023	01:09	-132.966	47.901	0	1865.70	0	2.0260	0	34.5720	0	27.637	0	1841.838	0	-1e10	8	-1e10	8	-1E+10	1	-1E+10	1	-1E+10	1	-1E+10	1	-1E+10	1	-1E+10	1
4902554	92	C	08/26/2023	01:09	-132.966	47.901	0	1875.30	0	2.0220	0	34.5730	0	27.638	0	1851.274	0	-1e10	8	-1e10	8	-1E+10	1	-1E+10	1	-1E+10	1	-1E+10	1	-1E+10	1	-1E+10	1
4902554	92	C	08/26/2023	01:09	-132.966	47.901	0	1885.10	0	2.0170	0	34.5740	0	27.639	0	1860.905	0	-1e10	8	-1e10	8	-1E+10	1	-1E+10	1	-1E+10	1	-1E+10	1	-1E+10	1	-1E+10	1
4902554	92	C	08/26/2023	01:09	-132.966	47.901	0	1895.50	0	2.0120	0	34.5750	0	27.640	0	1871.126	0	-1e10	8	-1e10	8	-1E+10	1	-1E+10	1	-1E+10	1	-1E+10	1	-1E+10	1	-1E+10	1
4902554	92	C	08/26/2023	01:09	-132.966	47.901	0	1905.20	0	2.0010	0	34.5770	0	27.643	0	1880.658	0	-1e10	8	-1e10	8	-1E+10	1	-1E+10	1	-1E+10	1	-1E+10	1	-1E+10	1	-1E+10	1
4902554	92	C	08/26/2023	01:09	-132.966	47.901	0	1915.10	0	1.9980	0	34.5770	0	27.643	0	1890.387	0	-1e10	8	-1e10	8	-1E+10	1	-1E+10	1	-1E+10	1	-1E+10	1	-1E+10	1	-1E+10	1
4902554	92	C	08/26/2023	01:09	-132.966	47.901	0	1925.40	0	1.9910	0	34.5790	0	27.645	0	1900.508	0	-1e10	8	-1e10	8	-1E+10	1	-1E+10	1	-1E+10	1	-1E+10	1	-1E+10	1	-1E+10	1
4902554	92	C	08/26/2023	01:09	-132.966	47.901	0	1935.40	0	1.9820	0	34.5810	0	27.648	0	1910.334	0	-1e10	8	-1e10	8	-1E+10	1	-1E+10	1	-1E+10	1	-1E+10	1	-1E+10	1	-1E+10	1
4902554	92	C	08/26/2023	01:09	-132.966	47.901	0	1945.40	0	1.9740	0	34.5820	0	27.649	0	1920.159	0	-1e10	8	-1e10	8	-1E+10	1	-1E+10	1	-1E+10	1	-1E+10	1	-1E+10	1	-1E+10	1
4902554	92	C	08/26/2023	01:09	-132.966	47.901	0	1955.40	0	1.9690	0	34.5830	0	27.650	0	1929.984	0	-1e10	8	-1e10	8	-1E+10	1	-1E+10	1	-1E+10	1	-1E+10	1	-1E+10	1	-1E+10	1
4902554	92	C	08/26/2023	01:09	-132.966	47.901	0	1965.20	0	1.9630	0	34.5840	0	27.652	0	1939.612	0	-1e10	8	-1e10	8	-1E+10	1	-1E+10	1	-1E+10	1	-1E+10	1	-1E+10	1	-1E+10	1
4902554	92	C	08/26/2023	01:09	-132.966	47.901	0	1975.10	0	1.9570	0	34.5860	0	27.654	0	1949.338	0	-1e10	8	-1e10	8	-1E+10	1	-1E+10	1	-1E+10	1	-1E+10	1	-1E+10	1	-1E+10	1
4902554	92	C	08/26/2023	01:09	-132.966	47.901	0	1985.20	0	1.9540	0	34.5860	0	27.654	0	1959.260	0	-1e10	8	-1e10	8	-1E+10	1	-1E+10	1	-1E+10	1	-1E+10	1	-1E+10	1	-1E+10	1
4902554	92	C	08/26/2023	01:09	-132.966	47.901	0	1995.30	0	1.9480	0	34.5870	0	27.655	0	1969.182	0	-1e10	8	-1e10	8	-1E+10	1	-1E+10	1	-1E+10	1	-1E+10	1	-1E+10	1	-1E+10	1
4902554	92	C	08/26/2023	01:09	-132.966	47.901	0	2005.60	0	1.9420	0	34.5890	0	27.658	0	1979.299	0	-1e10	8	-1e10	8	-1E+10	1	-1E+10	1	-1E+10	1	-1E+10	1	-1E+10	1	-1E+10	1
4902554	92	C	08/26/2023	01:09	-132.966	47.901	0	2012.30	0	1.9400	0	34.5890	0	27.658	0	1985.880	0	-1e10	8	-1e10	8	-1E+10	1	-1E+10	1	-1E+10	1	-1E+10	1	-1E+10	1	-1E+10	1
4902554	92	C	08/26/2023	01:09	-132.966	47.901	0																										
4902554	93	C	09/05/2023	06:04	-133.115	47.906	0	0.10	0	17.3870	0	32.4170	0	23.443	0	0.099	0	-1e10	8	-1e10	8	-1E+10	1	-1E+10	1	-1E+10	1	-1E+10	1	-1E+10	1	-1E+10	1
4902554	93	C	09/05/2023	06:04	-133.115	47.906	0	0.20	0	17.3850	0	32.4200	0	23.445	0	0.198	0	-1e10	8	-1e10	8	-1E+10	1	-1E+10	1	-1E+10	1	-1E+10	1	-1E+10	1	-1E+10	1
4902554	93	C	09/05/2023	06:04	-133.115	47.906	0	0.30	0	17.3860	0	32.4200	0	23.445	0	0.297	0	-1e10	1	-1e10	1	-1E+10	1	-1E+10	1	-1E+10	1	-1E+10	1	-1E+10	1	-1E+10	1
4902554	93	C	09/05/2023	06:04	-133.115	47.906	0	0.40	0	17.3930	0	32.4190	0	23.443	0	0.397	0	-1e10	8	-1e10	8	-1E+10	1	-1E+10	1	-1E+10	1	-1E+10	1	-1E+10	1	-1E+10	1
4902554	93	C	09/05/2023	06:04	-133.115	47.906	0	1.10	0	17.3930	0	32.4190	0	23.443	0	1.091	0	-1e10	8	-1e10	8	-1E+10	1	-1E+10	1	-1E+10	1	-1E+10	1	-1E+10	1	-1E+10	1
4902554	93	C	09/05/2023	06:04	-133.115	47.906	0	1.90	0	17.3940	0	32.4190	0	23.443	0	1.884	0	-1e10	8	-1e10	8	-1E+10	1	-1E+10	1	-1E+10	1	-1E+10	1	-1E+10	1	-1E+10	1
4902554	93	C	09/05/2023	06:04	-133.115	47.906	0	3.00	0	17.3960	0	32.4190	0	23.442	0	2.975	0	-1e10	8	-1e10	8	-1E+10	1	-1E+10	1	-1E+10	1	-1E+10	1	-1E+10	1	-1E+10	1
4902554	93	C	09/05/2023	06:04	-133.115	47.906	0	4.00	0	17.3960	0	32.4190	0	23.442	0	3.966	0	-1e10	8	-1e10	8	-1E+10	1	-1E+10	1	-1E+10	1	-1E+10	1	-1E+10	1	-1E+10	1
4902554	93	C	09/05/2023	06:04	-133.115	47.906	0	5.00	0	17.3960	0	32.4210	0	23.444	0	4.958	0	-1e10	8	-1e10	8	-1E+10	1	-1E+10	1	-1E+10	1	-1E+10	1	-1E+10	1	-1E+10	1
4902554	93	C	09/05/2023	06:04	-133.115	47.906	0	5.90	0	17.3960	0	32.4210	0	23.444	0	5.850	0	-1e10	8	-1e10	8	-1E+10	1	-1E+10	1	-1E+10	1	-1E+10	1	-1E+10	1	-1E+10	1
4902554	93	C	09/05/2023	06:04	-133.115	47.906	0	6.90	0	17.3960	0	32.4210	0	23.444	0	6.842	0	-1e10	8	-1e10	8	-1E+10	1	-1E+10	1	-1E+10	1	-1E+10	1	-1E+10	1	-1E+10	1
4902554	93	C	09/05/2023	06:04	-133.115	47.906	0	7.90	0	17.3960	0	32.4220	0	23.445	0	7.834	0	-1e10	8	-1e10	8	-1E+10	1	-1E+10	1	-1E+10	1	-1E+10	1	-1E+10	1	-1E+10	1
4902554	93	C	09/05/2023	06:04	-133.115	47.906	0	8.90	0	17.3950	0	32.4210	0	23.444	0	8.825	0	-1e10	8	-1e10	8	-1E+10	1	-1E+10	1	-1E+10	1	-1E+10	1	-1E+10	1	-1E+10	1
4902554	93	C	09/05/2023	06:04	-133.115	47.906	0	9.90	0	17.3920	0	32.4220	0	23.446	0	9.817	0	-1e10	8	-1e10	8	-1E+10	1	-1E+10	1	-1E+10	1	-1E+10	1	-1E+10	1	-1E+10	1
4902554	93	C	09/05/2023	06:04	-133.115	47.906	0	11.00	0	17.3910	0	32.4220	0	23.446	0	10.907	0	-1e10	8	-1e10	8	-1E+10	1	-1E+10	1	-1E+10	1	-1E+10	1	-1E+10	1	-1E+10	1
4902554	93	C	09/05/2023	06:04	-133.115	47.906	0	11.90	0	17.3890	0	32.4220	0	23.447	0	11.800	0	-1e10	8	-1e10	8	-1E+10	1	-1E+10	1	-1E+10	1	-1E+10	1	-1E+10	1	-1E+10	1
4902554	93	C	09/05/2023	06:04	-133.115	47.906	0	12.70	0	17.3940	0	32.4220	0	23.445	0	12.593	0	-1e10	8	-1e10	8	-1E+10	1	-1E+10	1	-1E+10	1	-1E+10	1	-1E+10	1	-1E+10	1
4902554	93	C	09/05/2023	06:04	-133.115	47.906	0	13.80	0	17.3920	0	32.4210	0	23.445	0	13.684	0	-1e10	8	-1e10	8	-1E+10	1	-1E+10	1	-1E+10	1	-1E+10	1	-1E+10	1	-1E+10	1
4902554	93	C	09/05/2023	06:04	-133.115	47.906	0	14.90	0	17.3870	0	32.4210	0	23.446	0	14.775	0	-1e10	8	-1e10	8	-1E+10	1	-1E+10	1	-1E+10	1	-1E+10	1	-1E+10	1	-1E+10	1
4902554	93	C	09/05/2023	06:04	-133.115	47.906	0	16.00	0	17.3830	0	32.4210	0	23.447	0	15.865	0	-1e10	8	-1e10	8	-1E+10	1	-1E+10	1	-1E+10	1	-1E+10	1	-1E+10	1	-1E+10	1
4902554	93	C	09/05/2023	06:04	-133.115	47.906	0	17.10	0	17.3810	0	32.4200	0	23.447	0	16.956	0	-1e10	8	-1e10	8	-1E+10	1	-1E+10	1	-1E+10	1	-1E+10	1	-1E+10	1	-1E+10	1
4902554	93	C	09/05/2023	06:04	-133.115	47.906	0	18.00	0	17.3810	0	32.4220	0	23.449	0	17.848	0	-1e10	8	-1e10	8	-1E+10	1	-1E+10	1	-1E+10	1	-1E+10	1	-1E+10	1	-1E+10	1
4902554	93	C	09/05/2023	06:04	-133.115	47.906	0	18.90	0	17.3770	0	32.4150	0	23.444	0	18.741	0	-1e10	8	-1e10	8	-1E+10	1	-1E+10	1	-1E+10	1	-1E+10	1	-1E+10	1	-1E+10	1
4902554	93	C	09/05/2023	06:04	-133.115	47.906	0	20.10	0	17.3540	0	32.4210	0	23.454	0	19.931	0	-1e10	8	-1e10	8	-1E+10	1	-1E+10	1	-1E+10	1	-1E+10	1	-1E+10	1	-1E+10	1
4902554	93	C	09/05/2023	06:04	-133.115	47.906	0	21.00	0	17.3390	0	32.4240	0	23.460	0	20.823	0	-1e10	8	-1e10	8	-1E+10	1	-1E+10	1	-1E+10	1	-1E+10	1	-1E+10	1	-1E+10	1
4902554	93	C	09/05/2023	06:04	-133.115	47.906	0	22.00	0	17.3360	0	32.4220	0	23.459	0	21.814	0	-1e10	8	-1e10	8	-1E+10	1	-1E+10	1	-1E+10	1	-1E+10	1	-1E+10	1	-1E+10	1
4902554	93	C	09/05/2023	06:04	-133.115	47.906	0	22.90	0	17.3350	0	32.4220	0	23.460	0	22.707	0	-1e10	8	-1e10	8	-1E+10	1	-1E+10	1	-1E+10	1	-1E+10	1	-1E+10	1	-1E+10	1
4902554	93	C	09/05/2023	06:04	-133.115	47.906	0	23.80	0	17.3320	0	32.4210	0	23.460	0	23.599	0	-1e10	8	-1e10	8	-1E+10	1	-1E+10	1	-1E+10	1	-1E+10	1	-1E+10	1	-1E+10	1
4902554	93	C	09/05/2023	06:04	-133.115	47.906	0	25.10	0	17.3280	0	32.4210	0	23.461	0	24.888	0	-1e10	8	-1e10	8	-1E+10	1	-1E+10	1	-1E+10	1	-1E+10	1	-1E+10	1	-1E+10	1
4902554	93	C	09/05/2023	06:04	-133.115	47.906	0	26.10	0	17.3280	0	32.4220	0	23.462	0	25.880	0	-1e10	8	-1e10	8	-1E+10	1	-1E+10	1	-1E+10	1	-1E+10	1	-1E+10	1	-1E+10	1
4902554	93	C	09/05/2023	06:04	-133.115	47.906	0	26.90	0	17.3240	0	32.4210	0	23.462	0	26.673	0	-1e10	8	-1e10	8	-1E+10	1	-1E+10	1	-1E+10	1	-1E+10	1	-1E+10	1	-1E+10	1
4902554	93	C	09/05/2023	06:04	-133.115	47.906	0	28.00	0	17.3190	0	32.4200	0	23.462	0	27.763	0	-1e10	8	-1e10	8	-1E+10	1	-1E+10	1	-1E+10	1	-1E+10	1	-1E+10	1	-1E+10	1
4902554	93	C	09/05/2023	06:04	-133.115	47.906	0	29.00	0	17.2850	0	32.4190	0	23.469	0	28.755	0	-1e10	8	-1e10	8	-1E+10	1	-1E+10	1	-1E+10	1	-1E+10	1	-1E+10	1	-1E+10	1
4902554	93	C	09/05/2023	06:04	-133.115	47.906	0	30.20	0	17.2470	0	32.4190	0	23.478	0	29.945	0	-1e10	8	-1e10	8	-1E+10	1	-1E+10	1	-1E+10	1	-1E+10	1	-1E+10	1	-1E+10	1
4902554	93	C	09/05/2023	06:04	-133.115	47.906	0	31.10	0	17.2150	0	32.4170	0	23.485	0	30.837	0	-1e10	8	-1e10	8	-1E+10	1	-1E+10	1	-1E+10	1	-1E+10	1	-1E+10	1	-1E+10	1
4902554	93	C	09/05/2023	06:04	-133.115	47.906	0	32.00	0	17.0400	0	32.4050	0	23.516	0	31.729	0	-1e10	8	-1e10	8	-1E+10	1	-1E+10	1	-1E+10	1	-1E+10	1	-1E+10	1	-1E+10	1
4902554	93	C	09/05/2023	06:04	-133.115	47.906	0	33.00	0	16.8410	0	32.3830	0	23.546	0	32.721	0	-1e10	8	-1e10	8	-1E+10	1	-1E+10	1	-1E+10	1	-1E+10	1	-1E+10	1	-1E+10	1
4902554	93	C	09/05/2023	06:04	-133.115	47.906	0	34.00	0	15.6200	0	32.3590	0	23.804	0	33.712	0	-1e10	8	-1e10	8	-1E+10	1	-1E+10	1	-1E+10	1	-1E+10	1	-1E+10	1	-1E+10	1
4902554	93	C	09/05/2023	06:04	-133.115	47.906	0	35.10	0	13.7910	0	32.3640	0	24.195	0	34.803	0	-1e10	8	-1e10	8	-1E+10	1	-1E+10	1	-1E+10	1	-1E+10	1	-1E+10	1	-1E+10	1
4902554	93	C	09/05/2023	06:04	-133.115	47.906	0	36.00	0	12.8770	0	32.3630	0	24.376	0	35.695	0	-1e10	8	-1e10	8	-1E+10	1	-1E+10	1	-1E+10	1	-1E+10	1	-1E+10	1	-1E+10	1
4902554	93	C	09/05/2023	06:04	-133.115	47.906	0	37.00	0	12.4680	0	32.3800	0	24.468	0	36.687	0	-1e10	8	-1e10	8	-1E+10	1	-1E+10	1	-1E+10	1	-1E+10	1	-1E+10	1	-1E+10	1
4902554	93	C	09/05/2023	06:04	-133.115	47.906	0	38.10	0	12.1720	0	32.3810	0	24.525	0	37.777	0	-1e10	8	-1e10	8	-1E+10	1	-1E+10	1	-1E+10	1	-1E+10	1	-1E+10	1	-1E+10	1
4902554	93	C	09/05/2023	06:04	-133.115	47.906	0	38.90	0	11.9100	0	32.3900	0	24.581	0	38.570	0	-1e10	8	-1e10	8	-1E+10	1	-1E+10	1	-1E+10	1	-1E+10	1	-1E+10	1	-1E+10	1
4902554	93	C	09/05/2023	06:04	-133.115	47.906	0	39.80	0	11.6460	0	32.3900	0	24.629	0	39.463	0	-1e10	8	-1e10	8	-1E+10	1	-1E+10	1	-1E+10	1	-1E+10	1	-1E+10	1	-1E+10	1
4902554	93	C	09/05/2023	06:04	-133.115	47.906	0	40.90	0	11.1560	0	32.4040	0	24.728	0	40.553	0	-1e10	8	-1e10	8	-1E+10	1	-1E+10	1	-1E+10	1	-1E+10	1	-1E+10	1	-1E+10	1
4902554	93	C	09/05/2023	06:04	-133.115	47.906	0	42.00	0	10.8760	0	32.4100	0	24.782	0	41.644	0	-1e10	8	-1e10	8	-1E+10	1	-1E+10	1	-1E+10	1	-1E+10	1	-1E+10	1	-1E+10	1
4902554	93	C	09/05/2023	06:04	-133.115	47.906	0	43.00	0	10.7600	0	32.4120	0	24.804	0	42.635	0	-1e10	8	-1e10	8	-1E+10	1	-1E+10	1	-1E+10	1	-1E+10	1	-1E+10	1	-1E+10	1
4902554	93	C	09/05/2023	06:04	-133.115	47.906	0	44.10	0	10.6000	0	32.4140	0	24.833	0	43.726	0	-1e10	8	-1e10	8	-1E+10	1	-1E+10	1	-1E+10	1	-1E+10	1	-1E+10	1	-1E+10	1
4902554	93	C	09/05/2023	06:04	-133.115	47.906	0	45.00	0	10.5570	0	32.4130	0	24.840	0	44.618	0	-1e10	8	-1e10	8	-1E+10	1	-1E+10	1	-1E+10	1	-1E+10	1	-1E+10	1	-1E+10	1
4902554	93	C	09/05/2023	06:04	-133.115	47.906	0	45.80	0	10.5230	0	32.4160	0	24.848	0	45.411	0	-1e10	8	-1e10	8	-1E+10	1	-1E+10	1	-1E+10	1	-1E+10	1	-1E+10	1	-1E+10	1
4902554	93	C	09/05/2023	06:04	-133.115	47.906	0	46.90	0	10.5150	0	32.4130	0	24.847	0	46.502	0	-1e10	8	-1e10	8	-1E+10	1	-1E+10	1	-1E+10	1	-1E+10	1	-1E+10	1	-1E+10	1
4902554	93	C	09/05/2023	06:04	-133.115	47.906	0	48.00	0	10.4970	0	32.4110	0	24.849	0	47.592	0	-1e10	8	-1e10	8	-1E+10	1	-1E+10	1	-1E+10	1	-1E+10	1	-1E+10	1	-1E+10	1
4902554	93	C	09/05/2023	06:04	-133.115	47.906	0	48.90	0	10.4380	0	32.4120	0	24.859	0	48.484	0	-1e10	8	-1e10	8	-1E+10	1	-1E+10	1	-1E+10	1	-1E+10	1	-1E+10	1	-1E+10	1
4902554	93	C	09/05/2023	06:04	-133.115	47.906	0	49.80	0	10.3370	0	32.4070	0	24.873	0	49.377	0	-1e10	8	-1e10	8	-1E+10	1	-1E+10	1	-1E+10	1	-1E+10	1	-1E+10	1	-1E+10	1
4902554	93	C	09/05/2023	06:04	-133.115	47.906	0	51.10	0	9.8110	0	32.4070	0	24.960	0	50.665	0	-1e10	8	-1e10	8	-1E+10	1	-1E+10	1	-1E+10	1	-1E+10	1	-1E+10	1	-1E+10	1
4902554	93	C	09/05/2023	06:04	-133.115	47.906	0	52.10	0	9.5800	0	32.4100	0	25.000	0	51.657	0	-1e10	8	-1e10	8	-1E+10	1	-1E+10	1	-1E+10	1	-1E+10	1	-1E+10	1	-1E+10	1
4902554	93	C	09/05/2023	06:04	-133.115	47.906	0	52.80	0	9.2610	0	32.4060	0	25.048	0	52.351	0	-1e10	8	-1e10	8	-1E+10	1	-1E+10	1	-1E+10	1	-1E+10	1	-1E+10	1	-1E+10	1
4902554	93	C	09/05/2023	06:04	-133.115	47.906	0	53.80	0	9.1300	0	32.4100	0	25.072	0	53.342	0	-1e10	8	-1e10	8	-1E+10	1	-1E+10	1	-1E+10	1	-1E+10	1	-1E+10	1	-1E+10	1
4902554	93	C	09/05/2023	06:04	-133.115	47.906	0	54.90	0	9.0040	0	32.4050	0	25.087	0	54.433	0	-1e10	8	-1e10	8	-1E+10	1	-1E+10	1	-1E+10	1	-1E+10	1	-1E+10	1	-1E+10	1
4902554	93	C	09/05/2023	06:04	-133.115	47.906	0	56.00	0	8.7520	0	32.4040	0	25.125	0	55.523	0	-1e10	8	-1e10	8	-1E+10	1	-1E+10	1	-1E+10	1	-1E+10	1	-1E+10	1	-1E+10	1
4902554	93	C	09/05/2023	06:04	-133.115	47.906	0	57.00	0	8.6350	0	32.4090	0	25.147	0	56.514	0	-1e10	8	-1e10	8	-1E+10	1	-1E+10	1	-1E+10	1	-1E+10	1	-1E+10	1	-1E+10	1
4902554	93	C	09/05/2023	06:04	-133.115	47.906	0	58.00	0	8.3170	0	32.4130	0	25.197	0	57.506	0	-1e10	8	-1e10	8	-1E+10	1	-1E+10	1	-1E+10	1	-1E+10	1	-1E+10	1	-1E+10	1
4902554	93	C	09/05/2023	06:04	-133.115	47.906	0	58.90	0	8.0630	0	32.4110	0	25.233	0	58.398	0	-1e10	8	-1e10	8	-1E+10	1	-1E+10	1	-1E+10	1	-1E+10	1	-1E+10	1	-1E+10	1
4902554	93	C	09/05/2023	06:04	-133.115	47.906	0	59.90	0	7.9520	0	32.4140	0	25.251	0	59.389	0	-1e10	8	-1e10	8	-1E+10	1	-1E+10	1	-1E+10	1	-1E+10	1	-1E+10	1	-1E+10	1
4902554	93	C	09/05/2023	06:04	-133.115	47.906	0	60.90	0	7.8290	0	32.4180	0	25.272	0	60.381	0	-1e10	8	-1e10	8	-1E+10	1	-1E+10	1	-1E+10	1	-1E+10	1	-1E+10	1	-1E+10	1
4902554	93	C	09/05/2023	06:04	-133.115	47.906	0	62.10	0	7.5870	0	32.4130	0	25.302	0	61.570	0	-1e10	8	-1e10	8	-1E+10	1	-1E+10	1	-1E+10	1	-1E+10	1	-1E+10	1	-1E+10	1
4902554	93	C	09/05/2023	06:04	-133.115	47.906	0	62.90	0	7.5730	0	32.4090	0	25.301	0	62.363	0	-1e10	8	-1e10	8	-1E+10	1	-1E+10	1	-1E+10	1	-1E+10	1	-1E+10	1	-1E+10	1
4902554	93	C	09/05/2023	06:04	-133.115	47.906	0	64.30	0	7.5690	0	32.4070	0	25.300	0	63.751	0	-1e10	8	-1e10	8	-1E+10	1	-1E+10	1	-1E+10	1	-1E+10	1	-1E+10	1	-1E+10	1
4902554	93	C	09/05/2023	06:04	-133.115	47.906	0	65.00	0	7.5370	0	32.4080	0	25.305	0	64.445	0	-1e10	8	-1e10	8	-1E+10	1	-1E+10	1	-1E+10	1	-1E+10	1	-1E+10	1	-1E+10	1
4902554	93	C	09/05/2023	06:04	-133.115	47.906	0	66.00	0	7.4510	0	32.4040	0	25.314	0	65.436	0	-1e10	8	-1e10	8	-1E+10	1	-1E+10	1	-1E+10	1	-1E+10	1	-1E+10	1	-1E+10	1
4902554	93	C	09/05/2023	06:04	-133.115	47.906	0	67.00	0	7.3880	0	32.4020	0	25.321	0	66.428	0	-1e10	8	-1e10	8	-1E+10	1	-1E+10	1	-1E+10	1	-1E+10	1	-1E+10	1	-1E+10	1
4902554	93	C	09/05/2023	06:04	-133.115	47.906	0	68.00	0	7.3980	0	32.4100	0	25.326	0	67.419	0	-1e10	8	-1e10	8	-1E+10	1	-1E+10	1	-1E+10	1	-1E+10	1	-1E+10	1	-1E+10	1
4902554	93	C	09/05/2023	06:04	-133.115	47.906	0	69.10	0	7.3720	0	32.4110	0	25.331	0	68.509	0	-1e10	8	-1e10	8	-1E+10	1	-1E+10	1	-1E+10	1	-1E+10	1	-1E+10	1	-1E+10	1
4902554	93	C	09/05/2023	06:04	-133.115	47.906	0	70.10	0	7.3680	0	32.4150	0	25.334	0	69.501	0	-1e10	8	-1e10	8	-1E+10	1	-1E+10	1	-1E+10	1	-1E+10	1	-1E+10	1	-1E+10	1
4902554	93	C	09/05/2023	06:04	-133.115	47.906	0	70.90	0	7.3650	0	32.4170	0	25.336	0	70.294	0	-1e10	8	-1e10	8	-1E+10	1	-1E+10	1	-1E+10	1	-1E+10	1	-1E+10	1	-1E+10	1
4902554	93	C	09/05/2023	06:04	-133.115	47.906	0	71.70	0	7.3320	0	32.4180	0	25.342	0	71.087	0	-1e10	8	-1e10	8	-1E+10	1	-1E+10	1	-1E+10	1	-1E+10	1	-1E+10	1	-1E+10	1
4902554	93	C	09/05/2023	06:04	-133.115	47.906	0	72.80	0	7.2830	0	32.4160	0	25.347	0	72.177	0	-1e10	8	-1e10	8	-1E+10	1	-1E+10	1	-1E+10	1	-1E+10	1	-1E+10	1	-1E+10	1
4902554	93	C	09/05/2023	06:04	-133.115	47.906	0	73.90	0	7.2550	0	32.4190	0	25.353	0	73.267	0	-1e10	8	-1e10	8	-1E+10	1	-1E+10	1	-1E+10	1	-1E+10	1	-1E+10	1	-1E+10	1
4902554	93	C	09/05/2023	06:04	-133.115	47.906	0	75.00	0	7.2450	0	32.4200	0	25.355	0	74.358	0	-1e10	8	-1e10	8	-1E+10	1	-1E+10	1	-1E+10	1	-1E+10	1	-1E+10	1	-1E+10	1
4902554	93	C	09/05/2023	06:04	-133.115	47.906	0	76.10	0	7.2440	0	32.4230	0	25.358	0	75.448	0	-1e10	8	-1e10	8	-1E+10	1	-1E+10	1	-1E+10	1	-1E+10	1	-1E+10	1	-1E+10	1
4902554	93	C	09/05/2023	06:04	-133.115	47.906	0	76.90	0	7.2420	0	32.4260	0	25.360	0	76.241	0	-1e10	8	-1e10	8	-1E+10	1	-1E+10	1	-1E+10	1	-1E+10	1	-1E+10	1	-1E+10	1
4902554	93	C	09/05/2023	06:04	-133.115	47.906	0	77.70	0	7.2630	0	32.4350	0	25.364	0	77.034	0	-1e10	8	-1e10	8	-1E+10	1	-1E+10	1	-1E+10	1	-1E+10	1	-1E+10	1	-1E+10	1
4902554	93	C	09/05/2023	06:04	-133.115	47.906	0	78.80	0	7.2650	0	32.4390	0	25.367	0	78.125	0	-1e10	8	-1e10	8	-1E+10	1	-1E+10	1	-1E+10	1	-1E+10	1	-1E+10	1	-1E+10	1
4902554	93	C	09/05/2023	06:04	-133.115	47.906	0	79.90	0	7.2740	0	32.4430	0	25.369	0	79.215	0	-1e10	8	-1e10	8	-1E+10	1	-1E+10	1	-1E+10	1	-1E+10	1	-1E+10	1	-1E+10	1
4902554	93	C	09/05/2023	06:04	-133.115	47.906	0	81.00	0	7.2640	0	32.4460	0	25.373	0	80.305	0	-1e10	8	-1e10	8	-1E+10	1	-1E+10	1	-1E+10	1	-1E+10	1	-1E+10	1	-1E+10	1
4902554	93	C	09/05/2023	06:04	-133.115	47.906	0	82.00	0	7.2270	0	32.4420	0	25.375	0	81.296	0	-1e10	8	-1e10	8	-1E+10	1	-1E+10	1	-1E+10	1	-1E+10	1	-1E+10	1	-1E+10	1
4902554	93	C	09/05/2023	06:04	-133.115	47.906	0	83.10	0	7.2010	0	32.4400	0	25.377	0	82.387	0	-1e10	8	-1e10	8	-1E+10	1	-1E+10	1	-1E+10	1	-1E+10	1	-1E+10	1	-1E+10	1
4902554	93	C	09/05/2023	06:04	-133.115	47.906	0	84.00	0	7.1850	0	32.4400	0	25.379	0	83.279	0	-1e10	8	-1e10	8	-1E+10	1	-1E+10	1	-1E+10	1	-1E+10	1	-1E+10	1	-1E+10	1
4902554	93	C	09/05/2023	06:04	-133.115	47.906	0	84.80	0	7.1850	0	32.4370	0	25.377	0	84.072	0	-1e10	8	-1e10	8	-1E+10	1	-1E+10	1	-1E+10	1	-1E+10	1	-1E+10	1	-1E+10	1
4902554	93	C	09/05/2023	06:04	-133.115	47.906	0	86.00	0	7.2080	0	32.4530	0	25.386	0	85.261	0	-1e10	8	-1e10	8	-1E+10	1	-1E+10	1	-1E+10	1	-1E+10	1	-1E+10	1	-1E+10	1
4902554	93	C	09/05/2023	06:04	-133.115	47.906	0	86.90	0	7.1960	0	32.4520	0	25.387	0	86.153	0	-1e10	8	-1e10	8	-1E+10	1	-1E+10	1	-1E+10	1	-1E+10	1	-1E+10	1	-1E+10	1
4902554	93	C	09/05/2023	06:04	-133.115	47.906	0	87.80	0	7.1790	0	32.4540	0	25.391	0	87.045	0	-1e10	8	-1e10	8	-1E+10	1	-1E+10	1	-1E+10	1	-1E+10	1	-1E+10	1	-1E+10	1
4902554	93	C	09/05/2023	06:04	-133.115	47.906	0	89.00	0	7.1850	0	32.4560	0	25.392	0	88.235	0	-1e10	8	-1e10	8	-1E+10	1	-1E+10	1	-1E+10	1	-1E+10	1	-1E+10	1	-1E+10	1
4902554	93	C	09/05/2023	06:04	-133.115	47.906	0	90.00	0	7.1930	0	32.4590	0	25.393	0	89.226	0	-1e10	8	-1e10	8	-1E+10	1	-1E+10	1	-1E+10	1	-1E+10	1	-1E+10	1	-1E+10	1
4902554	93	C	09/05/2023	06:04	-133.115	47.906	0	91.00	0	7.2070	0	32.4660	0	25.397	0	90.217	0	-1e10	8	-1e10	8	-1E+10	1	-1E+10	1	-1E+10	1	-1E+10	1	-1E+10	1	-1E+10	1
4902554	93	C	09/05/2023	06:04	-133.115	47.906	0	92.00	0	7.2090	0	32.4670	0	25.397	0	91.208	0	-1e10	8	-1e10	8	-1E+10	1	-1E+10	1	-1E+10	1	-1E+10	1	-1E+10	1	-1E+10	1
4902554	93	C	09/05/2023	06:04	-133.115	47.906	0	93.00	0	7.2420	0	32.4790	0	25.402	0	92.200	0	-1e10	8	-1e10	8	-1E+10	1	-1E+10	1	-1E+10	1	-1E+10	1	-1E+10	1	-1E+10	1
4902554	93	C	09/05/2023	06:04	-133.115	47.906	0	94.10	0	7.2420	0	32.4790	0	25.402	0	93.290	0	-1e10	8	-1e10	8	-1E+10	1	-1E+10	1	-1E+10	1	-1E+10	1	-1E+10	1	-1E+10	1
4902554	93	C	09/05/2023	06:04	-133.115	47.906	0	95.10	0	7.2480	0	32.4810	0	25.403	0	94.281	0	-1e10	8	-1e10	8	-1E+10	1	-1E+10	1	-1E+10	1	-1E+10	1	-1E+10	1	-1E+10	1
4902554	93	C	09/05/2023	06:04	-133.115	47.906	0	96.10	0	7.2650	0	32.4860	0	25.405	0	95.272	0	-1e10	8	-1e10	8	-1E+10	1	-1E+10	1	-1E+10	1	-1E+10	1	-1E+10	1	-1E+10	1
4902554	93	C	09/05/2023	06:04	-133.115	47.906	0	97.10	0	7.2490	0	32.4840	0	25.405	0	96.263	0	-1e10	8	-1e10	8	-1E+10	1	-1E+10	1	-1E+10	1	-1E+10	1	-1E+10	1	-1E+10	1
4902554	93	C	09/05/2023	06:04	-133.115	47.906	0	98.10	0	7.2030	0	32.4870	0	25.414	0	97.255	0	-1e10	8	-1e10	8	-1E+10	1	-1E+10	1	-1E+10	1	-1E+10	1	-1E+10	1	-1E+10	1
4902554	93	C	09/05/2023	06:04	-133.115	47.906	0	99.10	0	7.1550	0	32.4760	0	25.412	0	98.246	0	-1e10	8	-1e10	8	-1E+10	1	-1E+10	1	-1E+10	1	-1E+10	1	-1E+10	1	-1E+10	1
4902554	93	C	09/05/2023	06:04	-133.115	47.906	0	100.00	0	7.1530	0	32.4740	0	25.410	0	99.138	0	-1e10	8	-1e10	8	-1E+10	1	-1E+10	1	-1E+10	1	-1E+10	1	-1E+10	1	-1E+10	1
4902554	93	C	09/05/2023	06:04	-133.115	47.906	0	100.90	0	7.1560	0	32.4780	0	25.413	0	100.030	0	-1e10	8	-1e10	8	-1E+10	1	-1E+10	1	-1E+10	1	-1E+10	1	-1E+10	1	-1E+10	1
4902554	93	C	09/05/2023	06:04	-133.115	47.906	0	102.10	0	7.1460	0	32.4800	0	25.416	0	101.219	0	-1e10	8	-1e10	8	-1E+10	1	-1E+10	1	-1E+10	1	-1E+10	1	-1E+10	1	-1E+10	1
4902554	93	C	09/05/2023	06:04	-133.115	47.906	0	103.00	0	7.1400	0	32.4840	0	25.420	0	102.111	0	-1e10	8	-1e10	8	-1E+10	1	-1E+10	1	-1E+10	1	-1E+10	1	-1E+10	1	-1E+10	1
4902554	93	C	09/05/2023	06:04	-133.115	47.906	0	103.80	0	7.1490	0	32.4890	0	25.423	0	102.904	0	-1e10	8	-1e10	8	-1E+10	1	-1E+10	1	-1E+10	1	-1E+10	1	-1E+10	1	-1E+10	1
4902554	93	C	09/05/2023	06:04	-133.115	47.906	0	104.90	0	7.1430	0	32.4930	0	25.427	0	103.994	0	-1e10	8	-1e10	8	-1E+10	1	-1E+10	1	-1E+10	1	-1E+10	1	-1E+10	1	-1E+10	1
4902554	93	C	09/05/2023	06:04	-133.115	47.906	0	106.00	0	7.1310	0	32.4960	0	25.431	0	105.084	0	-1e10	8	-1e10	8	-1E+10	1	-1E+10	1	-1E+10	1	-1E+10	1	-1E+10	1	-1E+10	1
4902554	93	C	09/05/2023	06:04	-133.115	47.906	0	107.10	0	7.1140	0	32.5000	0	25.436	0	106.175	0	-1e10	8	-1e10	8	-1E+10	1	-1E+10	1	-1E+10	1	-1E+10	1	-1E+10	1	-1E+10	1
4902554	93	C	09/05/2023	06:04	-133.115	47.906	0	108.10	0	7.1150	0	32.5030	0	25.438	0	107.166	0	-1e10	8	-1e10	8	-1E+10	1	-1E+10	1	-1E+10	1	-1E+10	1	-1E+10	1	-1E+10	1
4902554	93	C	09/05/2023	06:04	-133.115	47.906	0	109.00	0	7.1050	0	32.5050	0	25.441	0	108.058	0	-1e10	8	-1e10	8	-1E+10	1	-1E+10	1	-1E+10	1	-1E+10	1	-1E+10	1	-1E+10	1
4902554	93	C	09/05/2023	06:04	-133.115	47.906	0	110.10	0	7.0900	0	32.5050	0	25.443	0	109.148	0	-1e10	8	-1e10	8	-1E+10	1	-1E+10	1	-1E+10	1	-1E+10	1	-1E+10	1	-1E+10	1
4902554	93	C	09/05/2023	06:04	-133.115	47.906	0	111.10	0	7.0750	0	32.5090	0	25.448	0	110.139	0	-1e10	8	-1e10	8	-1E+10	1	-1E+10	1	-1E+10	1	-1E+10	1	-1E+10	1	-1E+10	1
4902554	93	C	09/05/2023	06:04	-133.115	47.906	0	111.90	0	7.0380	0	32.5250	0	25.466	0	110.932	0	-1e10	8	-1e10	8	-1E+10	1	-1E+10	1	-1E+10	1	-1E+10	1	-1E+10	1	-1E+10	1
4902554	93	C	09/05/2023	06:04	-133.115	47.906	0	113.00	0	7.0010	0	32.5500	0	25.491	0	112.022	0	-1e10	8	-1e10	8	-1E+10	1	-1E+10	1	-1E+10	1	-1E+10	1	-1E+10	1	-1E+10	1
4902554	93	C	09/05/2023	06:04	-133.115	47.906	0	114.20	0	6.9690	0	32.5750	0	25.515	0	113.211	0	-1e10	8	-1e10	8	-1E+10	1	-1E+10	1	-1E+10	1	-1E+10	1	-1E+10	1	-1E+10	1
4902554	93	C	09/05/2023	06:04	-133.115	47.906	0	115.10	0	6.9550	0	32.5890	0	25.528	0	114.103	0	-1e10	8	-1e10	8	-1E+10	1	-1E+10	1	-1E+10	1	-1E+10	1	-1E+10	1	-1E+10	1
4902554	93	C	09/05/2023	06:04	-133.115	47.906	0	116.00	0	6.9460	0	32.5960	0	25.534	0	114.995	0	-1e10	8	-1e10	8	-1E+10	1	-1E+10	1	-1E+10	1	-1E+10	1	-1E+10	1	-1E+10	1
4902554	93	C	09/05/2023	06:04	-133.115	47.906	0	116.70	0	6.9360	0	32.6060	0	25.543	0	115.689	0	-1e10	8	-1e10	8	-1E+10	1	-1E+10	1	-1E+10	1	-1E+10	1	-1E+10	1	-1E+10	1
4902554	93	C	09/05/2023	06:04	-133.115	47.906	0	117.70	0	6.9230	0	32.6210	0	25.557	0	116.680	0	-1e10	8	-1e10	8	-1E+10	1	-1E+10	1	-1E+10	1	-1E+10	1	-1E+10	1	-1E+10	1
4902554	93	C	09/05/2023	06:04	-133.115	47.906	0	118.70	0	6.9020	0	32.6400	0	25.575	0	117.671	0	-1e10	8	-1e10	8	-1E+10	1	-1E+10	1	-1E+10	1	-1E+10	1	-1E+10	1	-1E+10	1
4902554	93	C	09/05/2023	06:04	-133.115	47.906	0	119.80	0	6.8890	0	32.6490	0	25.584	0	118.761	0	-1e10	8	-1e10	8	-1E+10	1	-1E+10	1	-1E+10	1	-1E+10	1	-1E+10	1	-1E+10	1
4902554	93	C	09/05/2023	06:04	-133.115	47.906	0	120.90	0	6.8690	0	32.6630	0	25.597	0	119.851	0	-1e10	8	-1e10	8	-1E+10	1	-1E+10	1	-1E+10	1	-1E+10	1	-1E+10	1	-1E+10	1
4902554	93	C	09/05/2023	06:04	-133.115	47.906	0	122.00	0	6.8520	0	32.6750	0	25.609	0	120.942	0	-1e10	8	-1e10	8	-1E+10	1	-1E+10	1	-1E+10	1	-1E+10	1	-1E+10	1	-1E+10	1
4902554	93	C	09/05/2023	06:04	-133.115	47.906	0	123.10	0	6.8410	0	32.6820	0	25.616	0	122.032	0	-1e10	8	-1e10	8	-1E+10	1	-1E+10	1	-1E+10	1	-1E+10	1	-1E+10	1	-1E+10	1
4902554	93	C	09/05/2023	06:04	-133.115	47.906	0	124.10	0	6.8300	0	32.6900	0	25.624	0	123.023	0	-1e10	8	-1e10	8	-1E+10	1	-1E+10	1	-1E+10	1	-1E+10	1	-1E+10	1	-1E+10	1
4902554	93	C	09/05/2023	06:04	-133.115	47.906	0	125.10	0	6.8220	0	32.6940	0	25.628	0	124.014	0	-1e10	8	-1e10	8	-1E+10	1	-1E+10	1	-1E+10	1	-1E+10	1	-1E+10	1	-1E+10	1
4902554	93	C	09/05/2023	06:04	-133.115	47.906	0	126.10	0	6.8090	0	32.7020	0	25.636	0	125.005	0	-1e10	8	-1e10	8	-1E+10	1	-1E+10	1	-1E+10	1	-1E+10	1	-1E+10	1	-1E+10	1
4902554	93	C	09/05/2023	06:04	-133.115	47.906	0	127.10	0	6.7900	0	32.7180	0	25.651	0	125.996	0	-1e10	8	-1e10	8	-1E+10	1	-1E+10	1	-1E+10	1	-1E+10	1	-1E+10	1	-1E+10	1
4902554	93	C	09/05/2023	06:04	-133.115	47.906	0	128.20	0	6.7760	0	32.7340	0	25.665	0	127.086	0	-1e10	8	-1e10	8	-1E+10	1	-1E+10	1	-1E+10	1	-1E+10	1	-1E+10	1	-1E+10	1
4902554	93	C	09/05/2023	06:04	-133.115	47.906	0	129.00	0	6.7690	0	32.7400	0	25.671	0	127.879	0	-1e10	8	-1e10	8	-1E+10	1	-1E+10	1	-1E+10	1	-1E+10	1	-1E+10	1	-1E+10	1
4902554	93	C	09/05/2023	06:04	-133.115	47.906	0	130.10	0	6.7290	0	32.7650	0	25.696	0	128.969	0	-1e10	8	-1e10	8	-1E+10	1	-1E+10	1	-1E+10	1	-1E+10	1	-1E+10	1	-1E+10	1
4902554	93	C	09/05/2023	06:04	-133.115	47.906	0	130.90	0	6.6730	0	32.8010	0	25.732	0	129.762	0	-1e10	8	-1e10	8	-1E+10	1	-1E+10	1	-1E+10	1	-1E+10	1	-1E+10	1	-1E+10	1
4902554	93	C	09/05/2023	06:04	-133.115	47.906	0	132.00	0	6.5960	0	32.8500	0	25.780	0	130.852	0	-1e10	8	-1e10	8	-1E+10	1	-1E+10	1	-1E+10	1	-1E+10	1	-1E+10	1	-1E+10	1
4902554	93	C	09/05/2023	06:04	-133.115	47.906	0	133.20	0	6.5500	0	32.8820	0	25.812	0	132.041	0	-1e10	8	-1e10	8	-1E+10	1	-1E+10	1	-1E+10	1	-1E+10	1	-1E+10	1	-1E+10	1
4902554	93	C	09/05/2023	06:04	-133.115	47.906	0	134.00	0	6.5240	0	32.9050	0	25.833	0	132.834	0	-1e10	8	-1e10	8	-1E+10	1	-1E+10	1	-1E+10	1	-1E+10	1	-1E+10	1	-1E+10	1
4902554	93	C	09/05/2023	06:04	-133.115	47.906	0	135.20	0	6.4960	0	32.9260	0	25.853	0	134.023	0	-1e10	8	-1e10	8	-1E+10	1	-1E+10	1	-1E+10	1	-1E+10	1	-1E+10	1	-1E+10	1
4902554	93	C	09/05/2023	06:04	-133.115	47.906	0	136.00	0	6.4400	0	32.9720	0	25.897	0	134.815	0	-1e10	8	-1e10	8	-1E+10	1	-1E+10	1	-1E+10	1	-1E+10	1	-1E+10	1	-1E+10	1
4902554	93	C	09/05/2023	06:04	-133.115	47.906	0	137.10	0	6.3510	0	33.0350	0	25.958	0	135.906	0	-1e10	8	-1e10	8	-1E+10	1	-1E+10	1	-1E+10	1	-1E+10	1	-1E+10	1	-1E+10	1
4902554	93	C	09/05/2023	06:04	-133.115	47.906	0	137.90	0	6.3160	0	33.0520	0	25.976	0	136.698	0	-1e10	8	-1e10	8	-1E+10	1	-1E+10	1	-1E+10	1	-1E+10	1	-1E+10	1	-1E+10	1
4902554	93	C	09/05/2023	06:04	-133.115	47.906	0	138.70	0	6.2690	0	33.0750	0	26.000	0	137.491	0	-1e10	8	-1e10	8	-1E+10	1	-1E+10	1	-1E+10	1	-1E+10	1	-1E+10	1	-1E+10	1
4902554	93	C	09/05/2023	06:04	-133.115	47.906	0	139.90	0	6.2060	0	33.1150	0	26.039	0	138.680	0	-1e10	8	-1e10	8	-1E+10	1	-1E+10	1	-1E+10	1	-1E+10	1	-1E+10	1	-1E+10	1
4902554	93	C	09/05/2023	06:04	-133.115	47.906	0	141.00	0	6.1640	0	33.1590	0	26.079	0	139.770	0	-1e10	8	-1e10	8	-1E+10	1	-1E+10	1	-1E+10	1	-1E+10	1	-1E+10	1	-1E+10	1
4902554	93	C	09/05/2023	06:04	-133.115	47.906	0	142.00	0	6.1560	0	33.1640	0	26.084	0	140.761	0	-1e10	8	-1e10	8	-1E+10	1	-1E+10	1	-1E+10	1	-1E+10	1	-1E+10	1	-1E+10	1
4902554	93	C	09/05/2023	06:04	-133.115	47.906	0	143.20	0	6.1190	0	33.2070	0	26.123	0	141.950	0	-1e10	8	-1e10	8	-1E+10	1	-1E+10	1	-1E+10	1	-1E+10	1	-1E+10	1	-1E+10	1
4902554	93	C	09/05/2023	06:04	-133.115	47.906	0	144.00	0	6.1010	0	33.2240	0	26.138	0	142.743	0	-1e10	8	-1e10	8	-1E+10	1	-1E+10	1	-1E+10	1	-1E+10	1	-1E+10	1	-1E+10	1
4902554	93	C	09/05/2023	06:04	-133.115	47.906	0	144.80	0	6.0630	0	33.2520	0	26.165	0	143.536	0	-1e10	8	-1e10	8	-1E+10	1	-1E+10	1	-1E+10	1	-1E+10	1	-1E+10	1	-1E+10	1
4902554	93	C	09/05/2023	06:04	-133.115	47.906	0	145.70	0	6.0390	0	33.2800	0	26.190	0	144.428	0	-1e10	8	-1e10	8	-1E+10	1	-1E+10	1	-1E+10	1	-1E+10	1	-1E+10	1	-1E+10	1
4902554	93	C	09/05/2023	06:04	-133.115	47.906	0	146.70	0	5.9840	0	33.3370	0	26.242	0	145.419	0	-1e10	8	-1e10	8	-1E+10	1	-1E+10	1	-1E+10	1	-1E+10	1	-1E+10	1	-1E+10	1
4902554	93	C	09/05/2023	06:04	-133.115	47.906	0	147.60	0	5.9750	0	33.3440	0	26.249	0	146.310	0	-1e10	8	-1e10	8	-1E+10	1	-1E+10	1	-1E+10	1	-1E+10	1	-1E+10	1	-1E+10	1
4902554	93	C	09/05/2023	06:04	-133.115	47.906	0	148.60	0	5.9670	0	33.3530	0	26.257	0	147.301	0	-1e10	8	-1e10	8	-1E+10	1	-1E+10	1	-1E+10	1	-1E+10	1	-1E+10	1	-1E+10	1
4902554	93	C	09/05/2023	06:04	-133.115	47.906	0	149.70	0	5.9450	0	33.3730	0	26.276	0	148.391	0	-1e10	8	-1e10	8	-1E+10	1	-1E+10	1	-1E+10	1	-1E+10	1	-1E+10	1	-1E+10	1
4902554	93	C	09/05/2023	06:04	-133.115	47.906	0	150.80	0	5.9120	0	33.4060	0	26.306	0	149.481	0	-1e10	8	-1e10	8	-1E+10	1	-1E+10	1	-1E+10	1	-1E+10	1	-1E+10	1	-1E+10	1
4902554	93	C	09/05/2023	06:04	-133.115	47.906	0	151.90	0	5.9090	0	33.4080	0	26.308	0	150.571	0	-1e10	8	-1e10	8	-1E+10	1	-1E+10	1	-1E+10	1	-1E+10	1	-1E+10	1	-1E+10	1
4902554	93	C	09/05/2023	06:04	-133.115	47.906	0	152.90	0	5.9070	0	33.4110	0	26.310	0	151.562	0	-1e10	8	-1e10	8	-1E+10	1	-1E+10	1	-1E+10	1	-1E+10	1	-1E+10	1	-1E+10	1
4902554	93	C	09/05/2023	06:04	-133.115	47.906	0	154.10	0	5.9030	0	33.4150	0	26.314	0	152.751	0	-1e10	8	-1e10	8	-1E+10	1	-1E+10	1	-1E+10	1	-1E+10	1	-1E+10	1	-1E+10	1
4902554	93	C	09/05/2023	06:04	-133.115	47.906	0	155.10	0	5.8980	0	33.4200	0	26.319	0	153.742	0	-1e10	8	-1e10	8	-1E+10	1	-1E+10	1	-1E+10	1	-1E+10	1	-1E+10	1	-1E+10	1
4902554	93	C	09/05/2023	06:04	-133.115	47.906	0	156.30	0	5.8920	0	33.4290	0	26.326	0	154.931	0	-1e10	8	-1e10	8	-1E+10	1	-1E+10	1	-1E+10	1	-1E+10	1	-1E+10	1	-1E+10	1
4902554	93	C	09/05/2023	06:04	-133.115	47.906	0	157.40	0	5.8840	0	33.4390	0	26.335	0	156.021	0	-1e10	8	-1e10	8	-1E+10	1	-1E+10	1	-1E+10	1	-1E+10	1	-1E+10	1	-1E+10	1
4902554	93	C	09/05/2023	06:04	-133.115	47.906	0	158.60	0	5.8610	0	33.4660	0	26.359	0	157.210	0	-1e10	8	-1e10	8	-1E+10	1	-1E+10	1	-1E+10	1	-1E+10	1	-1E+10	1	-1E+10	1
4902554	93	C	09/05/2023	06:04	-133.115	47.906	0	159.80	0	5.8590	0	33.4670	0	26.361	0	158.399	0	-1e10	8	-1e10	8	-1E+10	1	-1E+10	1	-1E+10	1	-1E+10	1	-1E+10	1	-1E+10	1
4902554	93	C	09/05/2023	06:04	-133.115	47.906	0	160.90	0	5.8520	0	33.4710	0	26.365	0	159.489	0	-1e10	8	-1e10	8	-1E+10	1	-1E+10	1	-1E+10	1	-1E+10	1	-1E+10	1	-1E+10	1
4902554	93	C	09/05/2023	06:04	-133.115	47.906	0	162.10	0	5.8360	0	33.4760	0	26.370	0	160.678	0	-1e10	8	-1e10	8	-1E+10	1	-1E+10	1	-1E+10	1	-1E+10	1	-1E+10	1	-1E+10	1
4902554	93	C	09/05/2023	06:04	-133.115	47.906	0	163.30	0	5.8170	0	33.4840	0	26.379	0	161.867	0	-1e10	8	-1e10	8	-1E+10	1	-1E+10	1	-1E+10	1	-1E+10	1	-1E+10	1	-1E+10	1
4902554	93	C	09/05/2023	06:04	-133.115	47.906	0	164.50	0	5.8220	0	33.4920	0	26.385	0	163.056	0	-1e10	8	-1e10	8	-1E+10	1	-1E+10	1	-1E+10	1	-1E+10	1	-1E+10	1	-1E+10	1
4902554	93	C	09/05/2023	06:04	-133.115	47.906	0	165.70	0	5.8120	0	33.4970	0	26.390	0	164.245	0	-1e10	8	-1e10	8	-1E+10	1	-1E+10	1	-1E+10	1	-1E+10	1	-1E+10	1	-1E+10	1
4902554	93	C	09/05/2023	06:04	-133.115	47.906	0	166.90	0	5.7840	0	33.5100	0	26.404	0	165.434	0	-1e10	8	-1e10	8	-1E+10	1	-1E+10	1	-1E+10	1	-1E+10	1	-1E+10	1	-1E+10	1
4902554	93	C	09/05/2023	06:04	-133.115	47.906	0	168.10	0	5.7890	0	33.5310	0	26.420	0	166.623	0	-1e10	8	-1e10	8	-1E+10	1	-1E+10	1	-1E+10	1	-1E+10	1	-1E+10	1	-1E+10	1
4902554	93	C	09/05/2023	06:04	-133.115	47.906	0	169.30	0	5.7860	0	33.5300	0	26.419	0	167.812	0	-1e10	8	-1e10	8	-1E+10	1	-1E+10	1	-1E+10	1	-1E+10	1	-1E+10	1	-1E+10	1
4902554	93	C	09/05/2023	06:04	-133.115	47.906	0	170.50	0	5.7800	0	33.5290	0	26.419	0	169.001	0	-1e10	8	-1e10	8	-1E+10	1	-1E+10	1	-1E+10	1	-1E+10	1	-1E+10	1	-1E+10	1
4902554	93	C	09/05/2023	06:04	-133.115	47.906	0	171.70	0	5.7760	0	33.5290	0	26.420	0	170.190	0	-1e10	8	-1e10	8	-1E+10	1	-1E+10	1	-1E+10	1	-1E+10	1	-1E+10	1	-1E+10	1
4902554	93	C	09/05/2023	06:04	-133.115	47.906	0	172.80	0	5.7720	0	33.5290	0	26.420	0	171.280	0	-1e10	8	-1e10	8	-1E+10	1	-1E+10	1	-1E+10	1	-1E+10	1	-1E+10	1	-1E+10	1
4902554	93	C	09/05/2023	06:04	-133.115	47.906	0	174.00	0	5.7240	0	33.5420	0	26.436	0	172.469	0	-1e10	8	-1e10	8	-1E+10	1	-1E+10	1	-1E+10	1	-1E+10	1	-1E+10	1	-1E+10	1
4902554	93	C	09/05/2023	06:04	-133.115	47.906	0	175.10	0	5.7200	0	33.5480	0	26.442	0	173.559	0	-1e10	8	-1e10	8	-1E+10	1	-1E+10	1	-1E+10	1	-1E+10	1	-1E+10	1	-1E+10	1
4902554	93	C	09/05/2023	06:04	-133.115	47.906	0	176.20	0	5.7120	0	33.5540	0	26.447	0	174.648	0	-1e10	8	-1e10	8	-1E+10	1	-1E+10	1	-1E+10	1	-1E+10	1	-1E+10	1	-1E+10	1
4902554	93	C	09/05/2023	06:04	-133.115	47.906	0	177.30	0	5.7100	0	33.5590	0	26.452	0	175.738	0	-1e10	8	-1e10	8	-1E+10	1	-1E+10	1	-1E+10	1	-1E+10	1	-1E+10	1	-1E+10	1
4902554	93	C	09/05/2023	06:04	-133.115	47.906	0	178.40	0	5.7040	0	33.5650	0	26.457	0	176.828	0	-1e10	8	-1e10	8	-1E+10	1	-1E+10	1	-1E+10	1	-1E+10	1	-1E+10	1	-1E+10	1
4902554	93	C	09/05/2023	06:04	-133.115	47.906	0	179.40	0	5.6950	0	33.5720	0	26.464	0	177.819	0	-1e10	8	-1e10	8	-1E+10	1	-1E+10	1	-1E+10	1	-1E+10	1	-1E+10	1	-1E+10	1
4902554	93	C	09/05/2023	06:04	-133.115	47.906	0	180.50	0	5.6870	0	33.5750	0	26.467	0	178.909	0	-1e10	8	-1e10	8	-1E+10	1	-1E+10	1	-1E+10	1	-1E+10	1	-1E+10	1	-1E+10	1
4902554	93	C	09/05/2023	06:04	-133.115	47.906	0	181.50	0	5.6860	0	33.5770	0	26.469	0	179.899	0	-1e10	8	-1e10	8	-1E+10	1	-1E+10	1	-1E+10	1	-1E+10	1	-1E+10	1	-1E+10	1
4902554	93	C	09/05/2023	06:04	-133.115	47.906	0	182.60	0	5.6460	0	33.6000	0	26.492	0	180.989	0	-1e10	8	-1e10	8	-1E+10	1	-1E+10	1	-1E+10	1	-1E+10	1	-1E+10	1	-1E+10	1
4902554	93	C	09/05/2023	06:04	-133.115	47.906	0	183.60	0	5.6390	0	33.6070	0	26.498	0	181.980	0	-1e10	8	-1e10	8	-1E+10	1	-1E+10	1	-1E+10	1	-1E+10	1	-1E+10	1	-1E+10	1
4902554	93	C	09/05/2023	06:04	-133.115	47.906	0	184.60	0	5.6380	0	33.6080	0	26.499	0	182.971	0	-1e10	8	-1e10	8	-1E+10	1	-1E+10	1	-1E+10	1	-1E+10	1	-1E+10	1	-1E+10	1
4902554	93	C	09/05/2023	06:04	-133.115	47.906	0	185.60	0	5.6380	0	33.6080	0	26.499	0	183.961	0	-1e10	8	-1e10	8	-1E+10	1	-1E+10	1	-1E+10	1	-1E+10	1	-1E+10	1	-1E+10	1
4902554	93	C	09/05/2023	06:04	-133.115	47.906	0	186.60	0	5.6340	0	33.6100	0	26.501	0	184.952	0	-1e10	8	-1e10	8	-1E+10	1	-1E+10	1	-1E+10	1	-1E+10	1	-1E+10	1	-1E+10	1
4902554	93	C	09/05/2023	06:04	-133.115	47.906	0	187.50	0	5.6210	0	33.6180	0	26.509	0	185.844	0	-1e10	8	-1e10	8	-1E+10	1	-1E+10	1	-1E+10	1	-1E+10	1	-1E+10	1	-1E+10	1
4902554	93	C	09/05/2023	06:04	-133.115	47.906	0	188.50	0	5.6140	0	33.6230	0	26.514	0	186.835	0	-1e10	8	-1e10	8	-1E+10	1	-1E+10	1	-1E+10	1	-1E+10	1	-1E+10	1	-1E+10	1
4902554	93	C	09/05/2023	06:04	-133.115	47.906	0	189.90	0	5.6020	0	33.6320	0	26.522	0	188.221	0	-1e10	8	-1e10	8	-1E+10	1	-1E+10	1	-1E+10	1	-1E+10	1	-1E+10	1	-1E+10	1
4902554	93	C	09/05/2023	06:04	-133.115	47.906	0	191.40	0	5.5930	0	33.6380	0	26.528	0	189.708	0	-1e10	8	-1e10	8	-1E+10	1	-1E+10	1	-1E+10	1	-1E+10	1	-1E+10	1	-1E+10	1
4902554	93	C	09/05/2023	06:04	-133.115	47.906	0	192.30	0	5.5820	0	33.6440	0	26.534	0	190.599	0	-1e10	8	-1e10	8	-1E+10	1	-1E+10	1	-1E+10	1	-1E+10	1	-1E+10	1	-1E+10	1
4902554	93	C	09/05/2023	06:04	-133.115	47.906	0	193.20	0	5.5690	0	33.6520	0	26.542	0	191.491	0	-1e10	8	-1e10	8	-1E+10	1	-1E+10	1	-1E+10	1	-1E+10	1	-1E+10	1	-1E+10	1
4902554	93	C	09/05/2023	06:04	-133.115	47.906	0	194.20	0	5.5550	0	33.6600	0	26.550	0	192.481	0	-1e10	8	-1e10	8	-1E+10	1	-1E+10	1	-1E+10	1	-1E+10	1	-1E+10	1	-1E+10	1
4902554	93	C	09/05/2023	06:04	-133.115	47.906	0	195.20	0	5.5380	0	33.6690	0	26.559	0	193.472	0	-1e10	8	-1e10	8	-1E+10	1	-1E+10	1	-1E+10	1	-1E+10	1	-1E+10	1	-1E+10	1
4902554	93	C	09/05/2023	06:04	-133.115	47.906	0	196.10	0	5.5370	0	33.6700	0	26.560	0	194.364	0	-1e10	8	-1e10	8	-1E+10	1	-1E+10	1	-1E+10	1	-1E+10	1	-1E+10	1	-1E+10	1
4902554	93	C	09/05/2023	06:04	-133.115	47.906	0	197.10	0	5.5350	0	33.6700	0	26.561	0	195.354	0	-1e10	8	-1e10	8	-1E+10	1	-1E+10	1	-1E+10	1	-1E+10	1	-1E+10	1	-1E+10	1
4902554	93	C	09/05/2023	06:04	-133.115	47.906	0	198.00	0	5.5330	0	33.6710	0	26.562	0	196.246	0	-1e10	8	-1e10	8	-1E+10	1	-1E+10	1	-1E+10	1	-1E+10	1	-1E+10	1	-1E+10	1
4902554	93	C	09/05/2023	06:04	-133.115	47.906	0	198.90	0	5.5320	0	33.6710	0	26.562	0	197.138	0	-1e10	8	-1e10	8	-1E+10	1	-1E+10	1	-1E+10	1	-1E+10	1	-1E+10	1	-1E+10	1
4902554	93	C	09/05/2023	06:04	-133.115	47.906	0	199.90	0	5.5260	0	33.6740	0	26.565	0	198.128	0	-1e10	8	-1e10	8	-1E+10	1	-1E+10	1	-1E+10	1	-1E+10	1	-1E+10	1	-1E+10	1
4902554	93	C	09/05/2023	06:04	-133.115	47.906	0	200.70	0	5.5190	0	33.6760	0	26.567	0	198.921	0	-1e10	8	-1e10	8	-1E+10	1	-1E+10	1	-1E+10	1	-1E+10	1	-1E+10	1	-1E+10	1
4902554	93	C	09/05/2023	06:04	-133.115	47.906	0	201.80	0	5.5110	0	33.6790	0	26.571	0	200.011	0	-1e10	8	-1e10	8	-1E+10	1	-1E+10	1	-1E+10	1	-1E+10	1	-1E+10	1	-1E+10	1
4902554	93	C	09/05/2023	06:04	-133.115	47.906	0	202.90	0	5.4990	0	33.6850	0	26.577	0	201.100	0	-1e10	8	-1e10	8	-1E+10	1	-1E+10	1	-1E+10	1	-1E+10	1	-1E+10	1	-1E+10	1
4902554	93	C	09/05/2023	06:04	-133.115	47.906	0	203.90	0	5.4900	0	33.6870	0	26.579	0	202.091	0	-1e10	8	-1e10	8	-1E+10	1	-1E+10	1	-1E+10	1	-1E+10	1	-1E+10	1	-1E+10	1
4902554	93	C	09/05/2023	06:04	-133.115	47.906	0	205.10	0	5.4720	0	33.6950	0	26.588	0	203.280	0	-1e10	8	-1e10	8	-1E+10	1	-1E+10	1	-1E+10	1	-1E+10	1	-1E+10	1	-1E+10	1
4902554	93	C	09/05/2023	06:04	-133.115	47.906	0	205.80	0	5.4640	0	33.6980	0	26.591	0	203.973	0	-1e10	8	-1e10	8	-1E+10	1	-1E+10	1	-1E+10	1	-1E+10	1	-1E+10	1	-1E+10	1
4902554	93	C	09/05/2023	06:04	-133.115	47.906	0	207.00	0	5.4540	0	33.7020	0	26.596	0	205.162	0	-1e10	8	-1e10	8	-1E+10	1	-1E+10	1	-1E+10	1	-1E+10	1	-1E+10	1	-1E+10	1
4902554	93	C	09/05/2023	06:04	-133.115	47.906	0	208.20	0	5.4520	0	33.7060	0	26.599	0	206.351	0	-1e10	8	-1e10	8	-1E+10	1	-1E+10	1	-1E+10	1	-1E+10	1	-1E+10	1	-1E+10	1
4902554	93	C	09/05/2023	06:04	-133.115	47.906	0	209.00	0	5.4540	0	33.7060	0	26.599	0	207.143	0	-1e10	8	-1e10	8	-1E+10	1	-1E+10	1	-1E+10	1	-1E+10	1	-1E+10	1	-1E+10	1
4902554	93	C	09/05/2023	06:04	-133.115	47.906	0	209.80	0	5.4460	0	33.7110	0	26.604	0	207.936	0	-1e10	8	-1e10	8	-1E+10	1	-1E+10	1	-1E+10	1	-1E+10	1	-1E+10	1	-1E+10	1
4902554	93	C	09/05/2023	06:04	-133.115	47.906	0	210.60	0	5.4280	0	33.7110	0	26.606	0	208.728	0	-1e10	8	-1e10	8	-1E+10	1	-1E+10	1	-1E+10	1	-1E+10	1	-1E+10	1	-1E+10	1
4902554	93	C	09/05/2023	06:04	-133.115	47.906	0	211.90	0	5.4070	0	33.7180	0	26.614	0	210.016	0	-1e10	8	-1e10	8	-1E+10	1	-1E+10	1	-1E+10	1	-1E+10	1	-1E+10	1	-1E+10	1
4902554	93	C	09/05/2023	06:04	-133.115	47.906	0	213.20	0	5.3990	0	33.7210	0	26.617	0	211.304	0	-1e10	8	-1e10	8	-1E+10	1	-1E+10	1	-1E+10	1	-1E+10	1	-1E+10	1	-1E+10	1
4902554	93	C	09/05/2023	06:04	-133.115	47.906	0	214.10	0	5.3950	0	33.7230	0	26.619	0	212.195	0	-1e10	8	-1e10	8	-1E+10	1	-1E+10	1	-1E+10	1	-1E+10	1	-1E+10	1	-1E+10	1
4902554	93	C	09/05/2023	06:04	-133.115	47.906	0	214.90	0	5.3930	0	33.7240	0	26.620	0	212.988	0	-1e10	8	-1e10	8	-1E+10	1	-1E+10	1	-1E+10	1	-1E+10	1	-1E+10	1	-1E+10	1
4902554	93	C	09/05/2023	06:04	-133.115	47.906	0	215.80	0	5.3920	0	33.7250	0	26.621	0	213.879	0	-1e10	8	-1e10	8	-1E+10	1	-1E+10	1	-1E+10	1	-1E+10	1	-1E+10	1	-1E+10	1
4902554	93	C	09/05/2023	06:04	-133.115	47.906	0	216.70	0	5.3830	0	33.7270	0	26.624	0	214.771	0	-1e10	8	-1e10	8	-1E+10	1	-1E+10	1	-1E+10	1	-1E+10	1	-1E+10	1	-1E+10	1
4902554	93	C	09/05/2023	06:04	-133.115	47.906	0	217.60	0	5.3710	0	33.7300	0	26.628	0	215.662	0	-1e10	8	-1e10	8	-1E+10	1	-1E+10	1	-1E+10	1	-1E+10	1	-1E+10	1	-1E+10	1
4902554	93	C	09/05/2023	06:04	-133.115	47.906	0	218.50	0	5.3670	0	33.7310	0	26.629	0	216.554	0	-1e10	8	-1e10	8	-1E+10	1	-1E+10	1	-1E+10	1	-1E+10	1	-1E+10	1	-1E+10	1
4902554	93	C	09/05/2023	06:04	-133.115	47.906	0	219.90	0	5.3630	0	33.7320	0	26.630	0	217.941	0	-1e10	8	-1e10	8	-1E+10	1	-1E+10	1	-1E+10	1	-1E+10	1	-1E+10	1	-1E+10	1
4902554	93	C	09/05/2023	06:04	-133.115	47.906	0	221.30	0	5.3600	0	33.7340	0	26.632	0	219.327	0	-1e10	8	-1e10	8	-1E+10	1	-1E+10	1	-1E+10	1	-1E+10	1	-1E+10	1	-1E+10	1
4902554	93	C	09/05/2023	06:04	-133.115	47.906	0	222.20	0	5.3590	0	33.7340	0	26.632	0	220.219	0	-1e10	8	-1e10	8	-1E+10	1	-1E+10	1	-1E+10	1	-1E+10	1	-1E+10	1	-1E+10	1
4902554	93	C	09/05/2023	06:04	-133.115	47.906	0	223.20	0	5.3490	0	33.7370	0	26.636	0	221.209	0	-1e10	8	-1e10	8	-1E+10	1	-1E+10	1	-1E+10	1	-1E+10	1	-1E+10	1	-1E+10	1
4902554	93	C	09/05/2023	06:04	-133.115	47.906	0	224.10	0	5.3420	0	33.7390	0	26.638	0	222.101	0	-1e10	8	-1e10	8	-1E+10	1	-1E+10	1	-1E+10	1	-1E+10	1	-1E+10	1	-1E+10	1
4902554	93	C	09/05/2023	06:04	-133.115	47.906	0	225.10	0	5.3370	0	33.7400	0	26.640	0	223.091	0	-1e10	8	-1e10	8	-1E+10	1	-1E+10	1	-1E+10	1	-1E+10	1	-1E+10	1	-1E+10	1
4902554	93	C	09/05/2023	06:04	-133.115	47.906	0	226.00	0	5.3260	0	33.7430	0	26.643	0	223.983	0	-1e10	8	-1e10	8	-1E+10	1	-1E+10	1	-1E+10	1	-1E+10	1	-1E+10	1	-1E+10	1
4902554	93	C	09/05/2023	06:04	-133.115	47.906	0	227.00	0	5.3220	0	33.7440	0	26.645	0	224.973	0	-1e10	8	-1e10	8	-1E+10	1	-1E+10	1	-1E+10	1	-1E+10	1	-1E+10	1	-1E+10	1
4902554	93	C	09/05/2023	06:04	-133.115	47.906	0	227.90	0	5.3090	0	33.7470	0	26.648	0	225.865	0	-1e10	8	-1e10	8	-1E+10	1	-1E+10	1	-1E+10	1	-1E+10	1	-1E+10	1	-1E+10	1
4902554	93	C	09/05/2023	06:04	-133.115	47.906	0	228.90	0	5.3040	0	33.7460	0	26.648	0	226.855	0	-1e10	8	-1e10	8	-1E+10	1	-1E+10	1	-1E+10	1	-1E+10	1	-1E+10	1	-1E+10	1
4902554	93	C	09/05/2023	06:04	-133.115	47.906	0	229.90	0	5.2980	0	33.7480	0	26.651	0	227.846	0	-1e10	8	-1e10	8	-1E+10	1	-1E+10	1	-1E+10	1	-1E+10	1	-1E+10	1	-1E+10	1
4902554	93	C	09/05/2023	06:04	-133.115	47.906	0	230.90	0	5.2930	0	33.7480	0	26.651	0	228.836	0	-1e10	8	-1e10	8	-1E+10	1	-1E+10	1	-1E+10	1	-1E+10	1	-1E+10	1	-1E+10	1
4902554	93	C	09/05/2023	06:04	-133.115	47.906	0	231.80	0	5.2920	0	33.7480	0	26.651	0	229.728	0	-1e10	8	-1e10	8	-1E+10	1	-1E+10	1	-1E+10	1	-1E+10	1	-1E+10	1	-1E+10	1
4902554	93	C	09/05/2023	06:04	-133.115	47.906	0	232.80	0	5.2900	0	33.7480	0	26.652	0	230.718	0	-1e10	8	-1e10	8	-1E+10	1	-1E+10	1	-1E+10	1	-1E+10	1	-1E+10	1	-1E+10	1
4902554	93	C	09/05/2023	06:04	-133.115	47.906	0	233.70	0	5.2770	0	33.7500	0	26.655	0	231.610	0	-1e10	8	-1e10	8	-1E+10	1	-1E+10	1	-1E+10	1	-1E+10	1	-1E+10	1	-1E+10	1
4902554	93	C	09/05/2023	06:04	-133.115	47.906	0	234.70	0	5.2710	0	33.7500	0	26.655	0	232.600	0	-1e10	8	-1e10	8	-1E+10	1	-1E+10	1	-1E+10	1	-1E+10	1	-1E+10	1	-1E+10	1
4902554	93	C	09/05/2023	06:04	-133.115	47.906	0	235.70	0	5.2600	0	33.7530	0	26.659	0	233.591	0	-1e10	8	-1e10	8	-1E+10	1	-1E+10	1	-1E+10	1	-1E+10	1	-1E+10	1	-1E+10	1
4902554	93	C	09/05/2023	06:04	-133.115	47.906	0	236.60	0	5.2570	0	33.7520	0	26.659	0	234.482	0	-1e10	8	-1e10	8	-1E+10	1	-1E+10	1	-1E+10	1	-1E+10	1	-1E+10	1	-1E+10	1
4902554	93	C	09/05/2023	06:04	-133.115	47.906	0	237.60	0	5.2550	0	33.7520	0	26.659	0	235.473	0	-1e10	8	-1e10	8	-1E+10	1	-1E+10	1	-1E+10	1	-1E+10	1	-1E+10	1	-1E+10	1
4902554	93	C	09/05/2023	06:04	-133.115	47.906	0	238.50	0	5.2490	0	33.7540	0	26.661	0	236.364	0	-1e10	8	-1e10	8	-1E+10	1	-1E+10	1	-1E+10	1	-1E+10	1	-1E+10	1	-1E+10	1
4902554	93	C	09/05/2023	06:04	-133.115	47.906	0	239.50	0	5.2440	0	33.7550	0	26.663	0	237.355	0	-1e10	8	-1e10	8	-1E+10	1	-1E+10	1	-1E+10	1	-1E+10	1	-1E+10	1	-1E+10	1
4902554	93	C	09/05/2023	06:04	-133.115	47.906	0	240.90	0	5.2260	0	33.7580	0	26.667	0	238.741	0	-1e10	8	-1e10	8	-1E+10	1	-1E+10	1	-1E+10	1	-1E+10	1	-1E+10	1	-1E+10	1
4902554	93	C	09/05/2023	06:04	-133.115	47.906	0	242.40	0	5.2190	0	33.7590	0	26.669	0	240.227	0	-1e10	8	-1e10	8	-1E+10	1	-1E+10	1	-1E+10	1	-1E+10	1	-1E+10	1	-1E+10	1
4902554	93	C	09/05/2023	06:04	-133.115	47.906	0	243.40	0	5.2180	0	33.7600	0	26.670	0	241.217	0	-1e10	8	-1e10	8	-1E+10	1	-1E+10	1	-1E+10	1	-1E+10	1	-1E+10	1	-1E+10	1
4902554	93	C	09/05/2023	06:04	-133.115	47.906	0	244.30	0	5.2210	0	33.7600	0	26.669	0	242.109	0	-1e10	8	-1e10	8	-1E+10	1	-1E+10	1	-1E+10	1	-1E+10	1	-1E+10	1	-1E+10	1
4902554	93	C	09/05/2023	06:04	-133.115	47.906	0	245.30	0	5.2230	0	33.7610	0	26.670	0	243.099	0	-1e10	8	-1e10	8	-1E+10	1	-1E+10	1	-1E+10	1	-1E+10	1	-1E+10	1	-1E+10	1
4902554	93	C	09/05/2023	06:04	-133.115	47.906	0	246.30	0	5.2020	0	33.7660	0	26.676	0	244.090	0	-1e10	8	-1e10	8	-1E+10	1	-1E+10	1	-1E+10	1	-1E+10	1	-1E+10	1	-1E+10	1
4902554	93	C	09/05/2023	06:04	-133.115	47.906	0	247.20	0	5.1970	0	33.7690	0	26.679	0	244.981	0	-1e10	8	-1e10	8	-1E+10	1	-1E+10	1	-1E+10	1	-1E+10	1	-1E+10	1	-1E+10	1
4902554	93	C	09/05/2023	06:04	-133.115	47.906	0	248.20	0	5.1940	0	33.7690	0	26.679	0	245.972	0	-1e10	8	-1e10	8	-1E+10	1	-1E+10	1	-1E+10	1	-1E+10	1	-1E+10	1	-1E+10	1
4902554	93	C	09/05/2023	06:04	-133.115	47.906	0	249.10	0	5.1930	0	33.7710	0	26.681	0	246.863	0	-1e10	8	-1e10	8	-1E+10	1	-1E+10	1	-1E+10	1	-1E+10	1	-1E+10	1	-1E+10	1
4902554	93	C	09/05/2023	06:04	-133.115	47.906	0	250.10	0	5.1820	0	33.7740	0	26.685	0	247.853	0	-1e10	8	-1e10	8	-1E+10	1	-1E+10	1	-1E+10	1	-1E+10	1	-1E+10	1	-1E+10	1
4902554	93	C	09/05/2023	06:04	-133.115	47.906	0	251.00	0	5.1760	0	33.7750	0	26.686	0	248.745	0	-1e10	8	-1e10	8	-1E+10	1	-1E+10	1	-1E+10	1	-1E+10	1	-1E+10	1	-1E+10	1
4902554	93	C	09/05/2023	06:04	-133.115	47.906	0	252.00	0	5.1650	0	33.7790	0	26.691	0	249.735	0	-1e10	8	-1e10	8	-1E+10	1	-1E+10	1	-1E+10	1	-1E+10	1	-1E+10	1	-1E+10	1
4902554	93	C	09/05/2023	06:04	-133.115	47.906	0	252.90	0	5.1610	0	33.7760	0	26.689	0	250.626	0	-1e10	8	-1e10	8	-1E+10	1	-1E+10	1	-1E+10	1	-1E+10	1	-1E+10	1	-1E+10	1
4902554	93	C	09/05/2023	06:04	-133.115	47.906	0	253.90	0	5.1570	0	33.7770	0	26.690	0	251.617	0	-1e10	8	-1e10	8	-1E+10	1	-1E+10	1	-1E+10	1	-1E+10	1	-1E+10	1	-1E+10	1
4902554	93	C	09/05/2023	06:04	-133.115	47.906	0	254.80	0	5.1550	0	33.7770	0	26.690	0	252.508	0	-1e10	8	-1e10	8	-1E+10	1	-1E+10	1	-1E+10	1	-1E+10	1	-1E+10	1	-1E+10	1
4902554	93	C	09/05/2023	06:04	-133.115	47.906	0	255.80	0	5.1480	0	33.7790	0	26.693	0	253.499	0	-1e10	8	-1e10	8	-1E+10	1	-1E+10	1	-1E+10	1	-1E+10	1	-1E+10	1	-1E+10	1
4902554	93	C	09/05/2023	06:04	-133.115	47.906	0	256.70	0	5.1410	0	33.7810	0	26.695	0	254.390	0	-1e10	8	-1e10	8	-1E+10	1	-1E+10	1	-1E+10	1	-1E+10	1	-1E+10	1	-1E+10	1
4902554	93	C	09/05/2023	06:04	-133.115	47.906	0	257.70	0	5.1370	0	33.7830	0	26.697	0	255.380	0	-1e10	8	-1e10	8	-1E+10	1	-1E+10	1	-1E+10	1	-1E+10	1	-1E+10	1	-1E+10	1
4902554	93	C	09/05/2023	06:04	-133.115	47.906	0	258.60	0	5.1310	0	33.7830	0	26.698	0	256.272	0	-1e10	8	-1e10	8	-1E+10	1	-1E+10	1	-1E+10	1	-1E+10	1	-1E+10	1	-1E+10	1
4902554	93	C	09/05/2023	06:04	-133.115	47.906	0	259.60	0	5.1300	0	33.7830	0	26.698	0	257.262	0	-1e10	8	-1e10	8	-1E+10	1	-1E+10	1	-1E+10	1	-1E+10	1	-1E+10	1	-1E+10	1
4902554	93	C	09/05/2023	06:04	-133.115	47.906	0	260.50	0	5.1300	0	33.7830	0	26.698	0	258.153	0	-1e10	8	-1e10	8	-1E+10	1	-1E+10	1	-1E+10	1	-1E+10	1	-1E+10	1	-1E+10	1
4902554	93	C	09/05/2023	06:04	-133.115	47.906	0	261.90	0	5.1210	0	33.7850	0	26.701	0	259.540	0	-1e10	8	-1e10	8	-1E+10	1	-1E+10	1	-1E+10	1	-1E+10	1	-1E+10	1	-1E+10	1
4902554	93	C	09/05/2023	06:04	-133.115	47.906	0	263.30	0	5.1080	0	33.7890	0	26.705	0	260.926	0	-1e10	8	-1e10	8	-1E+10	1	-1E+10	1	-1E+10	1	-1E+10	1	-1E+10	1	-1E+10	1
4902554	93	C	09/05/2023	06:04	-133.115	47.906	0	264.30	0	5.0940	0	33.7920	0	26.709	0	261.917	0	-1e10	8	-1e10	8	-1E+10	1	-1E+10	1	-1E+10	1	-1E+10	1	-1E+10	1	-1E+10	1
4902554	93	C	09/05/2023	06:04	-133.115	47.906	0	265.20	0	5.0870	0	33.7910	0	26.709	0	262.808	0	-1e10	8	-1e10	8	-1E+10	1	-1E+10	1	-1E+10	1	-1E+10	1	-1E+10	1	-1E+10	1
4902554	93	C	09/05/2023	06:04	-133.115	47.906	0	266.10	0	5.0820	0	33.7920	0	26.711	0	263.699	0	-1e10	8	-1e10	8	-1E+10	1	-1E+10	1	-1E+10	1	-1E+10	1	-1E+10	1	-1E+10	1
4902554	93	C	09/05/2023	06:04	-133.115	47.906	0	267.00	0	5.0750	0	33.7920	0	26.711	0	264.591	0	-1e10	8	-1e10	8	-1E+10	1	-1E+10	1	-1E+10	1	-1E+10	1	-1E+10	1	-1E+10	1
4902554	93	C	09/05/2023	06:04	-133.115	47.906	0	267.90	0	5.0640	0	33.7940	0	26.714	0	265.482	0	-1e10	8	-1e10	8	-1E+10	1	-1E+10	1	-1E+10	1	-1E+10	1	-1E+10	1	-1E+10	1
4902554	93	C	09/05/2023	06:04	-133.115	47.906	0	268.80	0	5.0520	0	33.7950	0	26.717	0	266.373	0	-1e10	8	-1e10	8	-1E+10	1	-1E+10	1	-1E+10	1	-1E+10	1	-1E+10	1	-1E+10	1
4902554	93	C	09/05/2023	06:04	-133.115	47.906	0	269.70	0	5.0510	0	33.7940	0	26.716	0	267.265	0	-1e10	8	-1e10	8	-1E+10	1	-1E+10	1	-1E+10	1	-1E+10	1	-1E+10	1	-1E+10	1
4902554	93	C	09/05/2023	06:04	-133.115	47.906	0	270.60	0	5.0460	0	33.7950	0	26.717	0	268.156	0	-1e10	8	-1e10	8	-1E+10	1	-1E+10	1	-1E+10	1	-1E+10	1	-1E+10	1	-1E+10	1
4902554	93	C	09/05/2023	06:04	-133.115	47.906	0	271.90	0	5.0320	0	33.7970	0	26.720	0	269.443	0	-1e10	8	-1e10	8	-1E+10	1	-1E+10	1	-1E+10	1	-1E+10	1	-1E+10	1	-1E+10	1
4902554	93	C	09/05/2023	06:04	-133.115	47.906	0	273.30	0	5.0140	0	33.7990	0	26.724	0	270.830	0	-1e10	8	-1e10	8	-1E+10	1	-1E+10	1	-1E+10	1	-1E+10	1	-1E+10	1	-1E+10	1
4902554	93	C	09/05/2023	06:04	-133.115	47.906	0	274.20	0	5.0020	0	33.8020	0	26.728	0	271.721	0	-1e10	8	-1e10	8	-1E+10	1	-1E+10	1	-1E+10	1	-1E+10	1	-1E+10	1	-1E+10	1
4902554	93	C	09/05/2023	06:04	-133.115	47.906	0	275.00	0	4.9970	0	33.8020	0	26.728	0	272.513	0	-1e10	8	-1e10	8	-1E+10	1	-1E+10	1	-1E+10	1	-1E+10	1	-1E+10	1	-1E+10	1
4902554	93	C	09/05/2023	06:04	-133.115	47.906	0	275.90	0	4.9870	0	33.8030	0	26.730	0	273.405	0	-1e10	8	-1e10	8	-1E+10	1	-1E+10	1	-1E+10	1	-1E+10	1	-1E+10	1	-1E+10	1
4902554	93	C	09/05/2023	06:04	-133.115	47.906	0	276.70	0	4.9770	0	33.8050	0	26.733	0	274.197	0	-1e10	8	-1e10	8	-1E+10	1	-1E+10	1	-1E+10	1	-1E+10	1	-1E+10	1	-1E+10	1
4902554	93	C	09/05/2023	06:04	-133.115	47.906	0	278.00	0	4.9610	0	33.8060	0	26.736	0	275.484	0	-1e10	8	-1e10	8	-1E+10	1	-1E+10	1	-1E+10	1	-1E+10	1	-1E+10	1	-1E+10	1
4902554	93	C	09/05/2023	06:04	-133.115	47.906	0	279.30	0	4.9560	0	33.8070	0	26.737	0	276.772	0	-1e10	8	-1e10	8	-1E+10	1	-1E+10	1	-1E+10	1	-1E+10	1	-1E+10	1	-1E+10	1
4902554	93	C	09/05/2023	06:04	-133.115	47.906	0	280.10	0	4.9540	0	33.8050	0	26.736	0	277.564	0	-1e10	8	-1e10	8	-1E+10	1	-1E+10	1	-1E+10	1	-1E+10	1	-1E+10	1	-1E+10	1
4902554	93	C	09/05/2023	06:04	-133.115	47.906	0	281.00	0	4.9310	0	33.8100	0	26.742	0	278.455	0	-1e10	8	-1e10	8	-1E+10	1	-1E+10	1	-1E+10	1	-1E+10	1	-1E+10	1	-1E+10	1
4902554	93	C	09/05/2023	06:04	-133.115	47.906	0	281.80	0	4.9110	0	33.8090	0	26.744	0	279.247	0	-1e10	8	-1e10	8	-1E+10	1	-1E+10	1	-1E+10	1	-1E+10	1	-1E+10	1	-1E+10	1
4902554	93	C	09/05/2023	06:04	-133.115	47.906	0	282.60	0	4.8850	0	33.8100	0	26.747	0	280.039	0	-1e10	8	-1e10	8	-1E+10	1	-1E+10	1	-1E+10	1	-1E+10	1	-1E+10	1	-1E+10	1
4902554	93	C	09/05/2023	06:04	-133.115	47.906	0	283.90	0	4.8460	0	33.8080	0	26.750	0	281.327	0	-1e10	8	-1e10	8	-1E+10	1	-1E+10	1	-1E+10	1	-1E+10	1	-1E+10	1	-1E+10	1
4902554	93	C	09/05/2023	06:04	-133.115	47.906	0	285.20	0	4.8320	0	33.8100	0	26.753	0	282.614	0	-1e10	8	-1e10	8	-1E+10	1	-1E+10	1	-1E+10	1	-1E+10	1	-1E+10	1	-1E+10	1
4902554	93	C	09/05/2023	06:04	-133.115	47.906	0	286.00	0	4.8180	0	33.8120	0	26.756	0	283.406	0	-1e10	8	-1e10	8	-1E+10	1	-1E+10	1	-1E+10	1	-1E+10	1	-1E+10	1	-1E+10	1
4902554	93	C	09/05/2023	06:04	-133.115	47.906	0	286.80	0	4.8110	0	33.8120	0	26.757	0	284.198	0	-1e10	8	-1e10	8	-1E+10	1	-1E+10	1	-1E+10	1	-1E+10	1	-1E+10	1	-1E+10	1
4902554	93	C	09/05/2023	06:04	-133.115	47.906	0	287.70	0	4.8030	0	33.8130	0	26.759	0	285.090	0	-1e10	8	-1e10	8	-1E+10	1	-1E+10	1	-1E+10	1	-1E+10	1	-1E+10	1	-1E+10	1
4902554	93	C	09/05/2023	06:04	-133.115	47.906	0	288.90	0	4.7940	0	33.8130	0	26.760	0	286.278	0	-1e10	8	-1e10	8	-1E+10	1	-1E+10	1	-1E+10	1	-1E+10	1	-1E+10	1	-1E+10	1
4902554	93	C	09/05/2023	06:04	-133.115	47.906	0	290.20	0	4.7850	0	33.8160	0	26.763	0	287.565	0	-1e10	8	-1e10	8	-1E+10	1	-1E+10	1	-1E+10	1	-1E+10	1	-1E+10	1	-1E+10	1
4902554	93	C	09/05/2023	06:04	-133.115	47.906	0	291.10	0	4.7820	0	33.8150	0	26.763	0	288.456	0	-1e10	8	-1e10	8	-1E+10	1	-1E+10	1	-1E+10	1	-1E+10	1	-1E+10	1	-1E+10	1
4902554	93	C	09/05/2023	06:04	-133.115	47.906	0	291.90	0	4.7820	0	33.8150	0	26.763	0	289.249	0	-1e10	8	-1e10	8	-1E+10	1	-1E+10	1	-1E+10	1	-1E+10	1	-1E+10	1	-1E+10	1
4902554	93	C	09/05/2023	06:04	-133.115	47.906	0	292.80	0	4.7810	0	33.8150	0	26.763	0	290.140	0	-1e10	8	-1e10	8	-1E+10	1	-1E+10	1	-1E+10	1	-1E+10	1	-1E+10	1	-1E+10	1
4902554	93	C	09/05/2023	06:04	-133.115	47.906	0	293.70	0	4.7800	0	33.8150	0	26.763	0	291.031	0	-1e10	8	-1e10	8	-1E+10	1	-1E+10	1	-1E+10	1	-1E+10	1	-1E+10	1	-1E+10	1
4902554	93	C	09/05/2023	06:04	-133.115	47.906	0	294.90	0	4.7760	0	33.8150	0	26.764	0	292.219	0	-1e10	8	-1e10	8	-1E+10	1	-1E+10	1	-1E+10	1	-1E+10	1	-1E+10	1	-1E+10	1
4902554	93	C	09/05/2023	06:04	-133.115	47.906	0	296.30	0	4.7700	0	33.8170	0	26.766	0	293.606	0	-1e10	8	-1e10	8	-1E+10	1	-1E+10	1	-1E+10	1	-1E+10	1	-1E+10	1	-1E+10	1
4902554	93	C	09/05/2023	06:04	-133.115	47.906	0	297.10	0	4.7630	0	33.8170	0	26.767	0	294.398	0	-1e10	8	-1e10	8	-1E+10	1	-1E+10	1	-1E+10	1	-1E+10	1	-1E+10	1	-1E+10	1
4902554	93	C	09/05/2023	06:04	-133.115	47.906	0	298.00	0	4.7590	0	33.8170	0	26.767	0	295.289	0	-1e10	8	-1e10	8	-1E+10	1	-1E+10	1	-1E+10	1	-1E+10	1	-1E+10	1	-1E+10	1
4902554	93	C	09/05/2023	06:04	-133.115	47.906	0	298.80	0	4.7540	0	33.8180	0	26.768	0	296.081	0	-1e10	8	-1e10	8	-1E+10	1	-1E+10	1	-1E+10	1	-1E+10	1	-1E+10	1	-1E+10	1
4902554	93	C	09/05/2023	06:04	-133.115	47.906	0	299.70	0	4.7500	0	33.8180	0	26.769	0	296.972	0	-1e10	8	-1e10	8	-1E+10	1	-1E+10	1	-1E+10	1	-1E+10	1	-1E+10	1	-1E+10	1
4902554	93	C	09/05/2023	06:04	-133.115	47.906	0	301.00	0	4.7390	0	33.8190	0	26.771	0	298.259	0	-1e10	8	-1e10	8	-1E+10	1	-1E+10	1	-1E+10	1	-1E+10	1	-1E+10	1	-1E+10	1
4902554	93	C	09/05/2023	06:04	-133.115	47.906	0	302.30	0	4.7340	0	33.8210	0	26.773	0	299.547	0	-1e10	8	-1e10	8	-1E+10	1	-1E+10	1	-1E+10	1	-1E+10	1	-1E+10	1	-1E+10	1
4902554	93	C	09/05/2023	06:04	-133.115	47.906	0	303.20	0	4.7300	0	33.8210	0	26.773	0	300.438	0	-1e10	8	-1e10	8	-1E+10	1	-1E+10	1	-1E+10	1	-1E+10	1	-1E+10	1	-1E+10	1
4902554	93	C	09/05/2023	06:04	-133.115	47.906	0	304.10	0	4.7230	0	33.8230	0	26.776	0	301.329	0	-1e10	8	-1e10	8	-1E+10	1	-1E+10	1	-1E+10	1	-1E+10	1	-1E+10	1	-1E+10	1
4902554	93	C	09/05/2023	06:04	-133.115	47.906	0	304.90	0	4.7170	0	33.8240	0	26.777	0	302.121	0	-1e10	8	-1e10	8	-1E+10	1	-1E+10	1	-1E+10	1	-1E+10	1	-1E+10	1	-1E+10	1
4902554	93	C	09/05/2023	06:04	-133.115	47.906	0	305.80	0	4.7090	0	33.8250	0	26.779	0	303.012	0	-1e10	8	-1e10	8	-1E+10	1	-1E+10	1	-1E+10	1	-1E+10	1	-1E+10	1	-1E+10	1
4902554	93	C	09/05/2023	06:04	-133.115	47.906	0	306.70	0	4.7030	0	33.8280	0	26.782	0	303.903	0	-1e10	8	-1e10	8	-1E+10	1	-1E+10	1	-1E+10	1	-1E+10	1	-1E+10	1	-1E+10	1
4902554	93	C	09/05/2023	06:04	-133.115	47.906	0	308.00	0	4.6860	0	33.8300	0	26.785	0	305.191	0	-1e10	8	-1e10	8	-1E+10	1	-1E+10	1	-1E+10	1	-1E+10	1	-1E+10	1	-1E+10	1
4902554	93	C	09/05/2023	06:04	-133.115	47.906	0	309.30	0	4.6760	0	33.8330	0	26.789	0	306.478	0	-1e10	8	-1e10	8	-1E+10	1	-1E+10	1	-1E+10	1	-1E+10	1	-1E+10	1	-1E+10	1
4902554	93	C	09/05/2023	06:04	-133.115	47.906	0	310.30	0	4.6730	0	33.8330	0	26.789	0	307.468	0	-1e10	8	-1e10	8	-1E+10	1	-1E+10	1	-1E+10	1	-1E+10	1	-1E+10	1	-1E+10	1
4902554	93	C	09/05/2023	06:04	-133.115	47.906	0	311.20	0	4.6710	0	33.8340	0	26.790	0	308.359	0	-1e10	8	-1e10	8	-1E+10	1	-1E+10	1	-1E+10	1	-1E+10	1	-1E+10	1	-1E+10	1
4902554	93	C	09/05/2023	06:04	-133.115	47.906	0	312.10	0	4.6680	0	33.8350	0	26.791	0	309.250	0	-1e10	8	-1e10	8	-1E+10	1	-1E+10	1	-1E+10	1	-1E+10	1	-1E+10	1	-1E+10	1
4902554	93	C	09/05/2023	06:04	-133.115	47.906	0	313.00	0	4.6630	0	33.8360	0	26.793	0	310.141	0	-1e10	8	-1e10	8	-1E+10	1	-1E+10	1	-1E+10	1	-1E+10	1	-1E+10	1	-1E+10	1
4902554	93	C	09/05/2023	06:04	-133.115	47.906	0	314.00	0	4.6600	0	33.8370	0	26.794	0	311.131	0	-1e10	8	-1e10	8	-1E+10	1	-1E+10	1	-1E+10	1	-1E+10	1	-1E+10	1	-1E+10	1
4902554	93	C	09/05/2023	06:04	-133.115	47.906	0	314.90	0	4.6590	0	33.8370	0	26.794	0	312.022	0	-1e10	8	-1e10	8	-1E+10	1	-1E+10	1	-1E+10	1	-1E+10	1	-1E+10	1	-1E+10	1
4902554	93	C	09/05/2023	06:04	-133.115	47.906	0	315.90	0	4.6550	0	33.8380	0	26.795	0	313.013	0	-1e10	8	-1e10	8	-1E+10	1	-1E+10	1	-1E+10	1	-1E+10	1	-1E+10	1	-1E+10	1
4902554	93	C	09/05/2023	06:04	-133.115	47.906	0	316.80	0	4.6540	0	33.8380	0	26.795	0	313.904	0	-1e10	8	-1e10	8	-1E+10	1	-1E+10	1	-1E+10	1	-1E+10	1	-1E+10	1	-1E+10	1
4902554	93	C	09/05/2023	06:04	-133.115	47.906	0	317.70	0	4.6460	0	33.8400	0	26.798	0	314.795	0	-1e10	8	-1e10	8	-1E+10	1	-1E+10	1	-1E+10	1	-1E+10	1	-1E+10	1	-1E+10	1
4902554	93	C	09/05/2023	06:04	-133.115	47.906	0	318.90	0	4.6420	0	33.8400	0	26.798	0	315.983	0	-1e10	8	-1e10	8	-1E+10	1	-1E+10	1	-1E+10	1	-1E+10	1	-1E+10	1	-1E+10	1
4902554	93	C	09/05/2023	06:04	-133.115	47.906	0	320.10	0	4.6290	0	33.8440	0	26.803	0	317.171	0	-1e10	8	-1e10	8	-1E+10	1	-1E+10	1	-1E+10	1	-1E+10	1	-1E+10	1	-1E+10	1
4902554	93	C	09/05/2023	06:04	-133.115	47.906	0	320.80	0	4.6220	0	33.8460	0	26.805	0	317.864	0	-1e10	8	-1e10	8	-1E+10	1	-1E+10	1	-1E+10	1	-1E+10	1	-1E+10	1	-1E+10	1
4902554	93	C	09/05/2023	06:04	-133.115	47.906	0	321.80	0	4.6170	0	33.8470	0	26.807	0	318.854	0	-1e10	8	-1e10	8	-1E+10	1	-1E+10	1	-1E+10	1	-1E+10	1	-1E+10	1	-1E+10	1
4902554	93	C	09/05/2023	06:04	-133.115	47.906	0	322.90	0	4.6160	0	33.8470	0	26.807	0	319.943	0	-1e10	8	-1e10	8	-1E+10	1	-1E+10	1	-1E+10	1	-1E+10	1	-1E+10	1	-1E+10	1
4902554	93	C	09/05/2023	06:04	-133.115	47.906	0	324.00	0	4.6140	0	33.8470	0	26.807	0	321.032	0	-1e10	8	-1e10	8	-1E+10	1	-1E+10	1	-1E+10	1	-1E+10	1	-1E+10	1	-1E+10	1
4902554	93	C	09/05/2023	06:04	-133.115	47.906	0	325.10	0	4.6140	0	33.8470	0	26.807	0	322.121	0	-1e10	8	-1e10	8	-1E+10	1	-1E+10	1	-1E+10	1	-1E+10	1	-1E+10	1	-1E+10	1
4902554	93	C	09/05/2023	06:04	-133.115	47.906	0	325.80	0	4.6130	0	33.8470	0	26.807	0	322.814	0	-1e10	8	-1e10	8	-1E+10	1	-1E+10	1	-1E+10	1	-1E+10	1	-1E+10	1	-1E+10	1
4902554	93	C	09/05/2023	06:04	-133.115	47.906	0	326.90	0	4.6030	0	33.8490	0	26.810	0	323.903	0	-1e10	8	-1e10	8	-1E+10	1	-1E+10	1	-1E+10	1	-1E+10	1	-1E+10	1	-1E+10	1
4902554	93	C	09/05/2023	06:04	-133.115	47.906	0	328.10	0	4.5830	0	33.8530	0	26.815	0	325.091	0	-1e10	8	-1e10	8	-1E+10	1	-1E+10	1	-1E+10	1	-1E+10	1	-1E+10	1	-1E+10	1
4902554	93	C	09/05/2023	06:04	-133.115	47.906	0	328.80	0	4.5770	0	33.8540	0	26.817	0	325.784	0	-1e10	8	-1e10	8	-1E+10	1	-1E+10	1	-1E+10	1	-1E+10	1	-1E+10	1	-1E+10	1
4902554	93	C	09/05/2023	06:04	-133.115	47.906	0	330.00	0	4.5700	0	33.8560	0	26.819	0	326.973	0	-1e10	8	-1e10	8	-1E+10	1	-1E+10	1	-1E+10	1	-1E+10	1	-1E+10	1	-1E+10	1
4902554	93	C	09/05/2023	06:04	-133.115	47.906	0	331.10	0	4.5660	0	33.8560	0	26.819	0	328.062	0	-1e10	8	-1e10	8	-1E+10	1	-1E+10	1	-1E+10	1	-1E+10	1	-1E+10	1	-1E+10	1
4902554	93	C	09/05/2023	06:04	-133.115	47.906	0	331.90	0	4.5620	0	33.8560	0	26.820	0	328.854	0	-1e10	8	-1e10	8	-1E+10	1	-1E+10	1	-1E+10	1	-1E+10	1	-1E+10	1	-1E+10	1
4902554	93	C	09/05/2023	06:04	-133.115	47.906	0	332.70	0	4.5570	0	33.8560	0	26.820	0	329.646	0	-1e10	8	-1e10	8	-1E+10	1	-1E+10	1	-1E+10	1	-1E+10	1	-1E+10	1	-1E+10	1
4902554	93	C	09/05/2023	06:04	-133.115	47.906	0	333.70	0	4.5530	0	33.8570	0	26.822	0	330.636	0	-1e10	8	-1e10	8	-1E+10	1	-1E+10	1	-1E+10	1	-1E+10	1	-1E+10	1	-1E+10	1
4902554	93	C	09/05/2023	06:04	-133.115	47.906	0	334.90	0	4.5500	0	33.8570	0	26.822	0	331.824	0	-1e10	8	-1e10	8	-1E+10	1	-1E+10	1	-1E+10	1	-1E+10	1	-1E+10	1	-1E+10	1
4902554	93	C	09/05/2023	06:04	-133.115	47.906	0	336.10	0	4.5430	0	33.8590	0	26.824	0	333.012	0	-1e10	8	-1e10	8	-1E+10	1	-1E+10	1	-1E+10	1	-1E+10	1	-1E+10	1	-1E+10	1
4902554	93	C	09/05/2023	06:04	-133.115	47.906	0	336.90	0	4.5420	0	33.8590	0	26.824	0	333.804	0	-1e10	8	-1e10	8	-1E+10	1	-1E+10	1	-1E+10	1	-1E+10	1	-1E+10	1	-1E+10	1
4902554	93	C	09/05/2023	06:04	-133.115	47.906	0	337.70	0	4.5410	0	33.8590	0	26.824	0	334.596	0	-1e10	8	-1e10	8	-1E+10	1	-1E+10	1	-1E+10	1	-1E+10	1	-1E+10	1	-1E+10	1
4902554	93	C	09/05/2023	06:04	-133.115	47.906	0	338.90	0	4.5370	0	33.8590	0	26.825	0	335.784	0	-1e10	8	-1e10	8	-1E+10	1	-1E+10	1	-1E+10	1	-1E+10	1	-1E+10	1	-1E+10	1
4902554	93	C	09/05/2023	06:04	-133.115	47.906	0	340.20	0	4.5340	0	33.8600	0	26.826	0	337.071	0	-1e10	8	-1e10	8	-1E+10	1	-1E+10	1	-1E+10	1	-1E+10	1	-1E+10	1	-1E+10	1
4902554	93	C	09/05/2023	06:04	-133.115	47.906	0	341.00	0	4.5320	0	33.8610	0	26.827	0	337.863	0	-1e10	8	-1e10	8	-1E+10	1	-1E+10	1	-1E+10	1	-1E+10	1	-1E+10	1	-1E+10	1
4902554	93	C	09/05/2023	06:04	-133.115	47.906	0	341.80	0	4.5310	0	33.8610	0	26.827	0	338.655	0	-1e10	8	-1e10	8	-1E+10	1	-1E+10	1	-1E+10	1	-1E+10	1	-1E+10	1	-1E+10	1
4902554	93	C	09/05/2023	06:04	-133.115	47.906	0	342.60	0	4.5270	0	33.8620	0	26.828	0	339.447	0	-1e10	8	-1e10	8	-1E+10	1	-1E+10	1	-1E+10	1	-1E+10	1	-1E+10	1	-1E+10	1
4902554	93	C	09/05/2023	06:04	-133.115	47.906	0	343.70	0	4.5230	0	33.8630	0	26.830	0	340.536	0	-1e10	8	-1e10	8	-1E+10	1	-1E+10	1	-1E+10	1	-1E+10	1	-1E+10	1	-1E+10	1
4902554	93	C	09/05/2023	06:04	-133.115	47.906	0	344.90	0	4.5210	0	33.8640	0	26.831	0	341.724	0	-1e10	8	-1e10	8	-1E+10	1	-1E+10	1	-1E+10	1	-1E+10	1	-1E+10	1	-1E+10	1
4902554	93	C	09/05/2023	06:04	-133.115	47.906	0	346.20	0	4.5200	0	33.8640	0	26.831	0	343.011	0	-1e10	8	-1e10	8	-1E+10	1	-1E+10	1	-1E+10	1	-1E+10	1	-1E+10	1	-1E+10	1
4902554	93	C	09/05/2023	06:04	-133.115	47.906	0	347.00	0	4.5200	0	33.8650	0	26.832	0	343.802	0	-1e10	8	-1e10	8	-1E+10	1	-1E+10	1	-1E+10	1	-1E+10	1	-1E+10	1	-1E+10	1
4902554	93	C	09/05/2023	06:04	-133.115	47.906	0	347.90	0	4.5180	0	33.8660	0	26.833	0	344.693	0	-1e10	8	-1e10	8	-1E+10	1	-1E+10	1	-1E+10	1	-1E+10	1	-1E+10	1	-1E+10	1
4902554	93	C	09/05/2023	06:04	-133.115	47.906	0	348.70	0	4.5140	0	33.8690	0	26.835	0	345.485	0	-1e10	8	-1e10	8	-1E+10	1	-1E+10	1	-1E+10	1	-1E+10	1	-1E+10	1	-1E+10	1
4902554	93	C	09/05/2023	06:04	-133.115	47.906	0	349.60	0	4.5110	0	33.8690	0	26.836	0	346.376	0	-1e10	8	-1e10	8	-1E+10	1	-1E+10	1	-1E+10	1	-1E+10	1	-1E+10	1	-1E+10	1
4902554	93	C	09/05/2023	06:04	-133.115	47.906	0	352.60	0	4.5040	0	33.8740	0	26.840	0	349.346	0	-1e10	8	-1e10	8	-1E+10	1	-1E+10	1	-1E+10	1	-1E+10	1	-1E+10	1	-1E+10	1
4902554	93	C	09/05/2023	06:04	-133.115	47.906	0	357.70	0	4.4970	0	33.8810	0	26.847	0	354.395	0	-1e10	8	-1e10	8	-1E+10	1	-1E+10	1	-1E+10	1	-1E+10	1	-1E+10	1	-1E+10	1
4902554	93	C	09/05/2023	06:04	-133.115	47.906	0	362.90	0	4.4870	0	33.8880	0	26.853	0	359.542	0	-1e10	8	-1e10	8	-1E+10	1	-1E+10	1	-1E+10	1	-1E+10	1	-1E+10	1	-1E+10	1
4902554	93	C	09/05/2023	06:04	-133.115	47.906	0	368.10	0	4.4540	0	33.8920	0	26.860	0	364.690	0	-1e10	8	-1e10	8	-1E+10	1	-1E+10	1	-1E+10	1	-1E+10	1	-1E+10	1	-1E+10	1
4902554	93	C	09/05/2023	06:04	-133.115	47.906	0	373.20	0	4.4300	0	33.9000	0	26.869	0	369.738	0	-1e10	8	-1e10	8	-1E+10	1	-1E+10	1	-1E+10	1	-1E+10	1	-1E+10	1	-1E+10	1
4902554	93	C	09/05/2023	06:04	-133.115	47.906	0	378.00	0	4.4240	0	33.9040	0	26.873	0	374.489	0	-1e10	8	-1e10	8	-1E+10	1	-1E+10	1	-1E+10	1	-1E+10	1	-1E+10	1	-1E+10	1
4902554	93	C	09/05/2023	06:04	-133.115	47.906	0	382.70	0	4.4180	0	33.9090	0	26.878	0	379.141	0	-1e10	8	-1e10	8	-1E+10	1	-1E+10	1	-1E+10	1	-1E+10	1	-1E+10	1	-1E+10	1
4902554	93	C	09/05/2023	06:04	-133.115	47.906	0	387.80	0	4.4110	0	33.9120	0	26.881	0	384.189	0	-1e10	8	-1e10	8	-1E+10	1	-1E+10	1	-1E+10	1	-1E+10	1	-1E+10	1	-1E+10	1
4902554	93	C	09/05/2023	06:04	-133.115	47.906	0	392.80	0	4.4020	0	33.9170	0	26.886	0	389.137	0	-1e10	8	-1e10	8	-1E+10	1	-1E+10	1	-1E+10	1	-1E+10	1	-1E+10	1	-1E+10	1
4902554	93	C	09/05/2023	06:04	-133.115	47.906	0	397.80	0	4.3950	0	33.9230	0	26.891	0	394.086	0	-1e10	8	-1e10	8	-1E+10	1	-1E+10	1	-1E+10	1	-1E+10	1	-1E+10	1	-1E+10	1
4902554	93	C	09/05/2023	06:04	-133.115	47.906	0	402.90	0	4.3810	0	33.9270	0	26.896	0	399.134	0	-1e10	8	-1e10	8	-1E+10	1	-1E+10	1	-1E+10	1	-1E+10	1	-1E+10	1	-1E+10	1
4902554	93	C	09/05/2023	06:04	-133.115	47.906	0	408.00	0	4.3610	0	33.9340	0	26.904	0	404.181	0	-1e10	8	-1e10	8	-1E+10	1	-1E+10	1	-1E+10	1	-1E+10	1	-1E+10	1	-1E+10	1
4902554	93	C	09/05/2023	06:04	-133.115	47.906	0	413.10	0	4.3500	0	33.9360	0	26.907	0	409.228	0	-1e10	8	-1e10	8	-1E+10	1	-1E+10	1	-1E+10	1	-1E+10	1	-1E+10	1	-1E+10	1
4902554	93	C	09/05/2023	06:04	-133.115	47.906	0	417.90	0	4.3210	0	33.9450	0	26.917	0	413.978	0	-1e10	8	-1e10	8	-1E+10	1	-1E+10	1	-1E+10	1	-1E+10	1	-1E+10	1	-1E+10	1
4902554	93	C	09/05/2023	06:04	-133.115	47.906	0	422.70	0	4.3050	0	33.9540	0	26.926	0	418.729	0	-1e10	8	-1e10	8	-1E+10	1	-1E+10	1	-1E+10	1	-1E+10	1	-1E+10	1	-1E+10	1
4902554	93	C	09/05/2023	06:04	-133.115	47.906	0	427.90	0	4.2910	0	33.9630	0	26.934	0	423.874	0	-1e10	8	-1e10	8	-1E+10	1	-1E+10	1	-1E+10	1	-1E+10	1	-1E+10	1	-1E+10	1
4902554	93	C	09/05/2023	06:04	-133.115	47.906	0	432.80	0	4.2870	0	33.9730	0	26.943	0	428.723	0	-1e10	8	-1e10	8	-1E+10	1	-1E+10	1	-1E+10	1	-1E+10	1	-1E+10	1	-1E+10	1
4902554	93	C	09/05/2023	06:04	-133.115	47.906	0	437.80	0	4.2840	0	33.9790	0	26.948	0	433.671	0	-1e10	8	-1e10	8	-1E+10	1	-1E+10	1	-1E+10	1	-1E+10	1	-1E+10	1	-1E+10	1
4902554	93	C	09/05/2023	06:04	-133.115	47.906	0	442.90	0	4.2840	0	33.9830	0	26.951	0	438.717	0	-1e10	8	-1e10	8	-1E+10	1	-1E+10	1	-1E+10	1	-1E+10	1	-1E+10	1	-1E+10	1
4902554	93	C	09/05/2023	06:04	-133.115	47.906	0	447.50	0	4.2880	0	33.9950	0	26.960	0	443.269	0	-1e10	8	-1e10	8	-1E+10	1	-1E+10	1	-1E+10	1	-1E+10	1	-1E+10	1	-1E+10	1
4902554	93	C	09/05/2023	06:04	-133.115	47.906	0	452.80	0	4.2920	0	34.0050	0	26.968	0	448.513	0	-1e10	8	-1e10	8	-1E+10	1	-1E+10	1	-1E+10	1	-1E+10	1	-1E+10	1	-1E+10	1
4902554	93	C	09/05/2023	06:04	-133.115	47.906	0	458.20	0	4.2930	0	34.0080	0	26.970	0	453.856	0	-1e10	8	-1e10	8	-1E+10	1	-1E+10	1	-1E+10	1	-1E+10	1	-1E+10	1	-1E+10	1
4902554	93	C	09/05/2023	06:04	-133.115	47.906	0	463.10	0	4.2880	0	34.0130	0	26.975	0	458.704	0	-1e10	8	-1e10	8	-1E+10	1	-1E+10	1	-1E+10	1	-1E+10	1	-1E+10	1	-1E+10	1
4902554	93	C	09/05/2023	06:04	-133.115	47.906	0	468.10	0	4.2800	0	34.0180	0	26.980	0	463.651	0	-1e10	8	-1e10	8	-1E+10	1	-1E+10	1	-1E+10	1	-1E+10	1	-1E+10	1	-1E+10	1
4902554	93	C	09/05/2023	06:04	-133.115	47.906	0	473.10	0	4.2760	0	34.0220	0	26.983	0	468.598	0	-1e10	8	-1e10	8	-1E+10	1	-1E+10	1	-1E+10	1	-1E+10	1	-1E+10	1	-1E+10	1
4902554	93	C	09/05/2023	06:04	-133.115	47.906	0	478.20	0	4.2660	0	34.0270	0	26.988	0	473.644	0	-1e10	8	-1e10	8	-1E+10	1	-1E+10	1	-1E+10	1	-1E+10	1	-1E+10	1	-1E+10	1
4902554	93	C	09/05/2023	06:04	-133.115	47.906	0	483.00	0	4.2550	0	34.0340	0	26.995	0	478.393	0	-1e10	8	-1e10	8	-1E+10	1	-1E+10	1	-1E+10	1	-1E+10	1	-1E+10	1	-1E+10	1
4902554	93	C	09/05/2023	06:04	-133.115	47.906	0	487.90	0	4.2430	0	34.0420	0	27.003	0	483.240	0	-1e10	8	-1e10	8	-1E+10	1	-1E+10	1	-1E+10	1	-1E+10	1	-1E+10	1	-1E+10	1
4902554	93	C	09/05/2023	06:04	-133.115	47.906	0	492.90	0	4.2340	0	34.0460	0	27.007	0	488.186	0	-1e10	8	-1e10	8	-1E+10	1	-1E+10	1	-1E+10	1	-1E+10	1	-1E+10	1	-1E+10	1
4902554	93	C	09/05/2023	06:04	-133.115	47.906	0	497.70	0	4.2220	0	34.0510	0	27.012	0	492.935	0	-1e10	8	-1e10	8	-1E+10	1	-1E+10	1	-1E+10	1	-1E+10	1	-1E+10	1	-1E+10	1
4902554	93	C	09/05/2023	06:04	-133.115	47.906	0	502.60	0	4.2100	0	34.0560	0	27.017	0	497.782	0	-1e10	8	-1e10	8	-1E+10	1	-1E+10	1	-1E+10	1	-1E+10	1	-1E+10	1	-1E+10	1
4902554	93	C	09/05/2023	06:04	-133.115	47.906	0	507.50	0	4.1960	0	34.0620	0	27.024	0	502.629	0	-1e10	8	-1e10	8	-1E+10	1	-1E+10	1	-1E+10	1	-1E+10	1	-1E+10	1	-1E+10	1
4902554	93	C	09/05/2023	06:04	-133.115	47.906	0	512.60	0	4.1890	0	34.0650	0	27.027	0	507.674	0	-1e10	8	-1e10	8	-1E+10	1	-1E+10	1	-1E+10	1	-1E+10	1	-1E+10	1	-1E+10	1
4902554	93	C	09/05/2023	06:04	-133.115	47.906	0	517.70	0	4.1760	0	34.0710	0	27.033	0	512.719	0	-1e10	8	-1e10	8	-1E+10	1	-1E+10	1	-1E+10	1	-1E+10	1	-1E+10	1	-1E+10	1
4902554	93	C	09/05/2023	06:04	-133.115	47.906	0	522.80	0	4.1560	0	34.0770	0	27.040	0	517.763	0	-1e10	8	-1e10	8	-1E+10	1	-1E+10	1	-1E+10	1	-1E+10	1	-1E+10	1	-1E+10	1
4902554	93	C	09/05/2023	06:04	-133.115	47.906	0	527.90	0	4.1440	0	34.0810	0	27.044	0	522.808	0	-1e10	8	-1e10	8	-1E+10	1	-1E+10	1	-1E+10	1	-1E+10	1	-1E+10	1	-1E+10	1
4902554	93	C	09/05/2023	06:04	-133.115	47.906	0	533.10	0	4.1330	0	34.0860	0	27.049	0	527.951	0	-1e10	8	-1e10	8	-1E+10	1	-1E+10	1	-1E+10	1	-1E+10	1	-1E+10	1	-1E+10	1
4902554	93	C	09/05/2023	06:04	-133.115	47.906	0	537.90	0	4.1230	0	34.0900	0	27.054	0	532.699	0	-1e10	8	-1e10	8	-1E+10	1	-1E+10	1	-1E+10	1	-1E+10	1	-1E+10	1	-1E+10	1
4902554	93	C	09/05/2023	06:04	-133.115	47.906	0	542.70	0	4.1170	0	34.0920	0	27.056	0	537.446	0	-1e10	8	-1e10	8	-1E+10	1	-1E+10	1	-1E+10	1	-1E+10	1	-1E+10	1	-1E+10	1
4902554	93	C	09/05/2023	06:04	-133.115	47.906	0	547.90	0	4.1040	0	34.0960	0	27.061	0	542.589	0	-1e10	8	-1e10	8	-1E+10	1	-1E+10	1	-1E+10	1	-1E+10	1	-1E+10	1	-1E+10	1
4902554	93	C	09/05/2023	06:04	-133.115	47.906	0	553.20	0	4.0940	0	34.1010	0	27.066	0	547.830	0	-1e10	8	-1e10	8	-1E+10	1	-1E+10	1	-1E+10	1	-1E+10	1	-1E+10	1	-1E+10	1
4902554	93	C	09/05/2023	06:04	-133.115	47.906	0	558.00	0	4.0760	0	34.1050	0	27.071	0	552.577	0	-1e10	8	-1e10	8	-1E+10	1	-1E+10	1	-1E+10	1	-1E+10	1	-1E+10	1	-1E+10	1
4902554	93	C	09/05/2023	06:04	-133.115	47.906	0	562.90	0	4.0480	0	34.1090	0	27.077	0	557.423	0	-1e10	8	-1e10	8	-1E+10	1	-1E+10	1	-1E+10	1	-1E+10	1	-1E+10	1	-1E+10	1
4902554	93	C	09/05/2023	06:04	-133.115	47.906	0	568.20	0	4.0210	0	34.1130	0	27.083	0	562.665	0	-1e10	8	-1e10	8	-1E+10	1	-1E+10	1	-1E+10	1	-1E+10	1	-1E+10	1	-1E+10	1
4902554	93	C	09/05/2023	06:04	-133.115	47.906	0	573.00	0	4.0120	0	34.1170	0	27.087	0	567.411	0	-1e10	8	-1e10	8	-1E+10	1	-1E+10	1	-1E+10	1	-1E+10	1	-1E+10	1	-1E+10	1
4902554	93	C	09/05/2023	06:04	-133.115	47.906	0	577.90	0	3.9990	0	34.1200	0	27.091	0	572.257	0	-1e10	8	-1e10	8	-1E+10	1	-1E+10	1	-1E+10	1	-1E+10	1	-1E+10	1	-1E+10	1
4902554	93	C	09/05/2023	06:04	-133.115	47.906	0	582.80	0	3.9980	0	34.1240	0	27.094	0	577.102	0	-1e10	8	-1e10	8	-1E+10	1	-1E+10	1	-1E+10	1	-1E+10	1	-1E+10	1	-1E+10	1
4902554	93	C	09/05/2023	06:04	-133.115	47.906	0	587.70	0	3.9850	0	34.1270	0	27.098	0	581.947	0	-1e10	8	-1e10	8	-1E+10	1	-1E+10	1	-1E+10	1	-1E+10	1	-1E+10	1	-1E+10	1
4902554	93	C	09/05/2023	06:04	-133.115	47.906	0	592.80	0	3.9510	0	34.1330	0	27.106	0	586.990	0	-1e10	8	-1e10	8	-1E+10	1	-1E+10	1	-1E+10	1	-1E+10	1	-1E+10	1	-1E+10	1
4902554	93	C	09/05/2023	06:04	-133.115	47.906	0	597.80	0	3.9440	0	34.1370	0	27.110	0	591.934	0	-1e10	8	-1e10	8	-1E+10	1	-1E+10	1	-1E+10	1	-1E+10	1	-1E+10	1	-1E+10	1
4902554	93	C	09/05/2023	06:04	-133.115	47.906	0	602.90	0	3.9400	0	34.1400	0	27.113	0	596.977	0	-1e10	8	-1e10	8	-1E+10	1	-1E+10	1	-1E+10	1	-1E+10	1	-1E+10	1	-1E+10	1
4902554	93	C	09/05/2023	06:04	-133.115	47.906	0	607.70	0	3.9360	0	34.1450	0	27.117	0	601.723	0	-1e10	8	-1e10	8	-1E+10	1	-1E+10	1	-1E+10	1	-1E+10	1	-1E+10	1	-1E+10	1
4902554	93	C	09/05/2023	06:04	-133.115	47.906	0	613.00	0	3.9310	0	34.1470	0	27.119	0	606.963	0	-1e10	8	-1e10	8	-1E+10	1	-1E+10	1	-1E+10	1	-1E+10	1	-1E+10	1	-1E+10	1
4902554	93	C	09/05/2023	06:04	-133.115	47.906	0	618.30	0	3.9160	0	34.1510	0	27.124	0	612.203	0	-1e10	8	-1e10	8	-1E+10	1	-1E+10	1	-1E+10	1	-1E+10	1	-1E+10	1	-1E+10	1
4902554	93	C	09/05/2023	06:04	-133.115	47.906	0	623.10	0	3.9040	0	34.1540	0	27.128	0	616.948	0	-1e10	8	-1e10	8	-1E+10	1	-1E+10	1	-1E+10	1	-1E+10	1	-1E+10	1	-1E+10	1
4902554	93	C	09/05/2023	06:04	-133.115	47.906	0	628.00	0	3.8840	0	34.1590	0	27.134	0	621.793	0	-1e10	8	-1e10	8	-1E+10	1	-1E+10	1	-1E+10	1	-1E+10	1	-1E+10	1	-1E+10	1
4902554	93	C	09/05/2023	06:04	-133.115	47.906	0	632.90	0	3.8660	0	34.1620	0	27.138	0	626.637	0	-1e10	8	-1e10	8	-1E+10	1	-1E+10	1	-1E+10	1	-1E+10	1	-1E+10	1	-1E+10	1
4902554	93	C	09/05/2023	06:04	-133.115	47.906	0	637.80	0	3.8580	0	34.1660	0	27.142	0	631.481	0	-1e10	8	-1e10	8	-1E+10	1	-1E+10	1	-1E+10	1	-1E+10	1	-1E+10	1	-1E+10	1
4902554	93	C	09/05/2023	06:04	-133.115	47.906	0	642.80	0	3.8520	0	34.1690	0	27.145	0	636.424	0	-1e10	8	-1e10	8	-1E+10	1	-1E+10	1	-1E+10	1	-1E+10	1	-1E+10	1	-1E+10	1
4902554	93	C	09/05/2023	06:04	-133.115	47.906	0	647.80	0	3.8420	0	34.1710	0	27.147	0	641.366	0	-1e10	8	-1e10	8	-1E+10	1	-1E+10	1	-1E+10	1	-1E+10	1	-1E+10	1	-1E+10	1
4902554	93	C	09/05/2023	06:04	-133.115	47.906	0	652.80	0	3.8340	0	34.1730	0	27.150	0	646.309	0	-1e10	8	-1e10	8	-1E+10	1	-1E+10	1	-1E+10	1	-1E+10	1	-1E+10	1	-1E+10	1
4902554	93	C	09/05/2023	06:04	-133.115	47.906	0	658.00	0	3.8250	0	34.1770	0	27.154	0	651.449	0	-1e10	8	-1e10	8	-1E+10	1	-1E+10	1	-1E+10	1	-1E+10	1	-1E+10	1	-1E+10	1
4902554	93	C	09/05/2023	06:04	-133.115	47.906	0	663.10	0	3.8120	0	34.1800	0	27.158	0	656.490	0	-1e10	8	-1e10	8	-1E+10	1	-1E+10	1	-1E+10	1	-1E+10	1	-1E+10	1	-1E+10	1
4902554	93	C	09/05/2023	06:04	-133.115	47.906	0	667.90	0	3.8090	0	34.1840	0	27.161	0	661.235	0	-1e10	8	-1e10	8	-1E+10	1	-1E+10	1	-1E+10	1	-1E+10	1	-1E+10	1	-1E+10	1
4902554	93	C	09/05/2023	06:04	-133.115	47.906	0	672.60	0	3.8030	0	34.1860	0	27.164	0	665.881	0	-1e10	8	-1e10	8	-1E+10	1	-1E+10	1	-1E+10	1	-1E+10	1	-1E+10	1	-1E+10	1
4902554	93	C	09/05/2023	06:04	-133.115	47.906	0	677.80	0	3.7920	0	34.1890	0	27.167	0	671.020	0	-1e10	8	-1e10	8	-1E+10	1	-1E+10	1	-1E+10	1	-1E+10	1	-1E+10	1	-1E+10	1
4902554	93	C	09/05/2023	06:04	-133.115	47.906	0	683.10	0	3.7750	0	34.1920	0	27.171	0	676.259	0	-1e10	8	-1e10	8	-1E+10	1	-1E+10	1	-1E+10	1	-1E+10	1	-1E+10	1	-1E+10	1
4902554	93	C	09/05/2023	06:04	-133.115	47.906	0	687.80	0	3.7770	0	34.1960	0	27.174	0	680.904	0	-1e10	8	-1e10	8	-1E+10	1	-1E+10	1	-1E+10	1	-1E+10	1	-1E+10	1	-1E+10	1
4902554	93	C	09/05/2023	06:04	-133.115	47.906	0	692.60	0	3.7610	0	34.2000	0	27.179	0	685.648	0	-1e10	8	-1e10	8	-1E+10	1	-1E+10	1	-1E+10	1	-1E+10	1	-1E+10	1	-1E+10	1
4902554	93	C	09/05/2023	06:04	-133.115	47.906	0	698.00	0	3.7550	0	34.2030	0	27.182	0	690.985	0	-1e10	8	-1e10	8	-1E+10	1	-1E+10	1	-1E+10	1	-1E+10	1	-1E+10	1	-1E+10	1
4902554	93	C	09/05/2023	06:04	-133.115	47.906	0	702.80	0	3.7530	0	34.2090	0	27.187	0	695.728	0	-1e10	8	-1e10	8	-1E+10	1	-1E+10	1	-1E+10	1	-1E+10	1	-1E+10	1	-1E+10	1
4902554	93	C	09/05/2023	06:04	-133.115	47.906	0	707.70	0	3.7330	0	34.2110	0	27.191	0	700.571	0	-1e10	8	-1e10	8	-1E+10	1	-1E+10	1	-1E+10	1	-1E+10	1	-1E+10	1	-1E+10	1
4902554	93	C	09/05/2023	06:04	-133.115	47.906	0	713.20	0	3.7090	0	34.2120	0	27.194	0	706.006	0	-1e10	8	-1e10	8	-1E+10	1	-1E+10	1	-1E+10	1	-1E+10	1	-1E+10	1	-1E+10	1
4902554	93	C	09/05/2023	06:04	-133.115	47.906	0	718.10	0	3.6870	0	34.2140	0	27.198	0	710.848	0	-1e10	8	-1e10	8	-1E+10	1	-1E+10	1	-1E+10	1	-1E+10	1	-1E+10	1	-1E+10	1
4902554	93	C	09/05/2023	06:04	-133.115	47.906	0	723.00	0	3.6770	0	34.2170	0	27.201	0	715.691	0	-1e10	8	-1e10	8	-1E+10	1	-1E+10	1	-1E+10	1	-1E+10	1	-1E+10	1	-1E+10	1
4902554	93	C	09/05/2023	06:04	-133.115	47.906	0	727.90	0	3.6770	0	34.2230	0	27.206	0	720.533	0	-1e10	8	-1e10	8	-1E+10	1	-1E+10	1	-1E+10	1	-1E+10	1	-1E+10	1	-1E+10	1
4902554	93	C	09/05/2023	06:04	-133.115	47.906	0	732.90	0	3.6910	0	34.2300	0	27.210	0	725.473	0	-1e10	8	-1e10	8	-1E+10	1	-1E+10	1	-1E+10	1	-1E+10	1	-1E+10	1	-1E+10	1
4902554	93	C	09/05/2023	06:04	-133.115	47.906	0	737.90	0	3.7100	0	34.2350	0	27.212	0	730.414	0	-1e10	8	-1e10	8	-1E+10	1	-1E+10	1	-1E+10	1	-1E+10	1	-1E+10	1	-1E+10	1
4902554	93	C	09/05/2023	06:04	-133.115	47.906	0	742.90	0	3.7010	0	34.2390	0	27.216	0	735.354	0	-1e10	8	-1e10	8	-1E+10	1	-1E+10	1	-1E+10	1	-1E+10	1	-1E+10	1	-1E+10	1
4902554	93	C	09/05/2023	06:04	-133.115	47.906	0	747.90	0	3.6870	0	34.2400	0	27.219	0	740.295	0	-1e10	8	-1e10	8	-1E+10	1	-1E+10	1	-1E+10	1	-1E+10	1	-1E+10	1	-1E+10	1
4902554	93	C	09/05/2023	06:04	-133.115	47.906	0	753.00	0	3.6380	0	34.2400	0	27.223	0	745.334	0	-1e10	8	-1e10	8	-1E+10	1	-1E+10	1	-1E+10	1	-1E+10	1	-1E+10	1	-1E+10	1
4902554	93	C	09/05/2023	06:04	-133.115	47.906	0	758.10	0	3.6270	0	34.2410	0	27.225	0	750.373	0	-1e10	8	-1e10	8	-1E+10	1	-1E+10	1	-1E+10	1	-1E+10	1	-1E+10	1	-1E+10	1
4902554	93	C	09/05/2023	06:04	-133.115	47.906	0	763.10	0	3.6250	0	34.2470	0	27.230	0	755.313	0	-1e10	8	-1e10	8	-1E+10	1	-1E+10	1	-1E+10	1	-1E+10	1	-1E+10	1	-1E+10	1
4902554	93	C	09/05/2023	06:04	-133.115	47.906	0	768.10	0	3.6160	0	34.2500	0	27.234	0	760.252	0	-1e10	8	-1e10	8	-1E+10	1	-1E+10	1	-1E+10	1	-1E+10	1	-1E+10	1	-1E+10	1
4902554	93	C	09/05/2023	06:04	-133.115	47.906	0	773.10	0	3.6100	0	34.2510	0	27.235	0	765.192	0	-1e10	8	-1e10	8	-1E+10	1	-1E+10	1	-1E+10	1	-1E+10	1	-1E+10	1	-1E+10	1
4902554	93	C	09/05/2023	06:04	-133.115	47.906	0	778.10	0	3.6050	0	34.2530	0	27.237	0	770.132	0	-1e10	8	-1e10	8	-1E+10	1	-1E+10	1	-1E+10	1	-1E+10	1	-1E+10	1	-1E+10	1
4902554	93	C	09/05/2023	06:04	-133.115	47.906	0	783.10	0	3.5900	0	34.2540	0	27.239	0	775.071	0	-1e10	8	-1e10	8	-1E+10	1	-1E+10	1	-1E+10	1	-1E+10	1	-1E+10	1	-1E+10	1
4902554	93	C	09/05/2023	06:04	-133.115	47.906	0	788.10	0	3.5650	0	34.2560	0	27.243	0	780.011	0	-1e10	8	-1e10	8	-1E+10	1	-1E+10	1	-1E+10	1	-1E+10	1	-1E+10	1	-1E+10	1
4902554	93	C	09/05/2023	06:04	-133.115	47.906	0	793.20	0	3.5610	0	34.2600	0	27.247	0	785.049	0	-1e10	8	-1e10	8	-1E+10	1	-1E+10	1	-1E+10	1	-1E+10	1	-1E+10	1	-1E+10	1
4902554	93	C	09/05/2023	06:04	-133.115	47.906	0	798.20	0	3.5610	0	34.2650	0	27.251	0	789.988	0	-1e10	8	-1e10	8	-1E+10	1	-1E+10	1	-1E+10	1	-1E+10	1	-1E+10	1	-1E+10	1
4902554	93	C	09/05/2023	06:04	-133.115	47.906	0	802.70	0	3.5790	0	34.2720	0	27.255	0	794.433	0	-1e10	8	-1e10	8	-1E+10	1	-1E+10	1	-1E+10	1	-1E+10	1	-1E+10	1	-1E+10	1
4902554	93	C	09/05/2023	06:04	-133.115	47.906	0	807.80	0	3.5800	0	34.2780	0	27.260	0	799.471	0	-1e10	8	-1e10	8	-1E+10	1	-1E+10	1	-1E+10	1	-1E+10	1	-1E+10	1	-1E+10	1
4902554	93	C	09/05/2023	06:04	-133.115	47.906	0	812.90	0	3.5670	0	34.2790	0	27.262	0	804.509	0	-1e10	8	-1e10	8	-1E+10	1	-1E+10	1	-1E+10	1	-1E+10	1	-1E+10	1	-1E+10	1
4902554	93	C	09/05/2023	06:04	-133.115	47.906	0	817.90	0	3.5640	0	34.2820	0	27.264	0	809.447	0	-1e10	8	-1e10	8	-1E+10	1	-1E+10	1	-1E+10	1	-1E+10	1	-1E+10	1	-1E+10	1
4902554	93	C	09/05/2023	06:04	-133.115	47.906	0	823.00	0	3.5410	0	34.2850	0	27.269	0	814.485	0	-1e10	8	-1e10	8	-1E+10	1	-1E+10	1	-1E+10	1	-1E+10	1	-1E+10	1	-1E+10	1
4902554	93	C	09/05/2023	06:04	-133.115	47.906	0	828.00	0	3.5090	0	34.2860	0	27.273	0	819.423	0	-1e10	8	-1e10	8	-1E+10	1	-1E+10	1	-1E+10	1	-1E+10	1	-1E+10	1	-1E+10	1
4902554	93	C	09/05/2023	06:04	-133.115	47.906	0	833.00	0	3.4970	0	34.2870	0	27.275	0	824.361	0	-1e10	8	-1e10	8	-1E+10	1	-1E+10	1	-1E+10	1	-1E+10	1	-1E+10	1	-1E+10	1
4902554	93	C	09/05/2023	06:04	-133.115	47.906	0	837.90	0	3.4830	0	34.2880	0	27.277	0	829.201	0	-1e10	8	-1e10	8	-1E+10	1	-1E+10	1	-1E+10	1	-1E+10	1	-1E+10	1	-1E+10	1
4902554	93	C	09/05/2023	06:04	-133.115	47.906	0	842.80	0	3.4790	0	34.2900	0	27.279	0	834.040	0	-1e10	8	-1e10	8	-1E+10	1	-1E+10	1	-1E+10	1	-1E+10	1	-1E+10	1	-1E+10	1
4902554	93	C	09/05/2023	06:04	-133.115	47.906	0	847.60	0	3.4610	0	34.2940	0	27.284	0	838.781	0	-1e10	8	-1e10	8	-1E+10	1	-1E+10	1	-1E+10	1	-1E+10	1	-1E+10	1	-1E+10	1
4902554	93	C	09/05/2023	06:04	-133.115	47.906	0	852.90	0	3.4540	0	34.2950	0	27.286	0	844.015	0	-1e10	8	-1e10	8	-1E+10	1	-1E+10	1	-1E+10	1	-1E+10	1	-1E+10	1	-1E+10	1
4902554	93	C	09/05/2023	06:04	-133.115	47.906	0	858.10	0	3.4430	0	34.2960	0	27.287	0	849.150	0	-1e10	8	-1e10	8	-1E+10	1	-1E+10	1	-1E+10	1	-1E+10	1	-1E+10	1	-1E+10	1
4902554	93	C	09/05/2023	06:04	-133.115	47.906	0	862.90	0	3.3870	0	34.2950	0	27.292	0	853.890	0	-1e10	8	-1e10	8	-1E+10	1	-1E+10	1	-1E+10	1	-1E+10	1	-1E+10	1	-1E+10	1
4902554	93	C	09/05/2023	06:04	-133.115	47.906	0	867.50	0	3.3720	0	34.2960	0	27.294	0	858.433	0	-1e10	8	-1e10	8	-1E+10	1	-1E+10	1	-1E+10	1	-1E+10	1	-1E+10	1	-1E+10	1
4902554	93	C	09/05/2023	06:04	-133.115	47.906	0	872.80	0	3.3620	0	34.2980	0	27.297	0	863.666	0	-1e10	8	-1e10	8	-1E+10	1	-1E+10	1	-1E+10	1	-1E+10	1	-1E+10	1	-1E+10	1
4902554	93	C	09/05/2023	06:04	-133.115	47.906	0	877.70	0	3.3510	0	34.3010	0	27.300	0	868.505	0	-1e10	8	-1e10	8	-1E+10	1	-1E+10	1	-1E+10	1	-1E+10	1	-1E+10	1	-1E+10	1
4902554	93	C	09/05/2023	06:04	-133.115	47.906	0	882.60	0	3.3360	0	34.3030	0	27.303	0	873.343	0	-1e10	8	-1e10	8	-1E+10	1	-1E+10	1	-1E+10	1	-1E+10	1	-1E+10	1	-1E+10	1
4902554	93	C	09/05/2023	06:04	-133.115	47.906	0	887.90	0	3.3210	0	34.3070	0	27.308	0	878.577	0	-1e10	8	-1e10	8	-1E+10	1	-1E+10	1	-1E+10	1	-1E+10	1	-1E+10	1	-1E+10	1
4902554	93	C	09/05/2023	06:04	-133.115	47.906	0	893.30	0	3.3080	0	34.3110	0	27.312	0	883.909	0	-1e10	8	-1e10	8	-1E+10	1	-1E+10	1	-1E+10	1	-1E+10	1	-1E+10	1	-1E+10	1
4902554	93	C	09/05/2023	06:04	-133.115	47.906	0	897.90	0	3.2960	0	34.3140	0	27.316	0	888.451	0	-1e10	8	-1e10	8	-1E+10	1	-1E+10	1	-1E+10	1	-1E+10	1	-1E+10	1	-1E+10	1
4902554	93	C	09/05/2023	06:04	-133.115	47.906	0	902.60	0	3.2790	0	34.3160	0	27.319	0	893.091	0	-1e10	8	-1e10	8	-1E+10	1	-1E+10	1	-1E+10	1	-1E+10	1	-1E+10	1	-1E+10	1
4902554	93	C	09/05/2023	06:04	-133.115	47.906	0	907.80	0	3.2610	0	34.3170	0	27.322	0	898.225	0	-1e10	8	-1e10	8	-1E+10	1	-1E+10	1	-1E+10	1	-1E+10	1	-1E+10	1	-1E+10	1
4902554	93	C	09/05/2023	06:04	-133.115	47.906	0	912.90	0	3.2490	0	34.3200	0	27.325	0	903.260	0	-1e10	8	-1e10	8	-1E+10	1	-1E+10	1	-1E+10	1	-1E+10	1	-1E+10	1	-1E+10	1
4902554	93	C	09/05/2023	06:04	-133.115	47.906	0	918.10	0	3.2350	0	34.3240	0	27.330	0	908.394	0	-1e10	8	-1e10	8	-1E+10	1	-1E+10	1	-1E+10	1	-1E+10	1	-1E+10	1	-1E+10	1
4902554	93	C	09/05/2023	06:04	-133.115	47.906	0	923.10	0	3.2210	0	34.3270	0	27.333	0	913.330	0	-1e10	8	-1e10	8	-1E+10	1	-1E+10	1	-1E+10	1	-1E+10	1	-1E+10	1	-1E+10	1
4902554	93	C	09/05/2023	06:04	-133.115	47.906	0	927.70	0	3.2120	0	34.3290	0	27.336	0	917.872	0	-1e10	8	-1e10	8	-1E+10	1	-1E+10	1	-1E+10	1	-1E+10	1	-1E+10	1	-1E+10	1
4902554	93	C	09/05/2023	06:04	-133.115	47.906	0	933.00	0	3.2000	0	34.3320	0	27.339	0	923.104	0	-1e10	8	-1e10	8	-1E+10	1	-1E+10	1	-1E+10	1	-1E+10	1	-1E+10	1	-1E+10	1
4902554	93	C	09/05/2023	06:04	-133.115	47.906	0	938.10	0	3.1810	0	34.3360	0	27.344	0	928.138	0	-1e10	8	-1e10	8	-1E+10	1	-1E+10	1	-1E+10	1	-1E+10	1	-1E+10	1	-1E+10	1
4902554	93	C	09/05/2023	06:04	-133.115	47.906	0	942.70	0	3.1750	0	34.3380	0	27.347	0	932.679	0	-1e10	8	-1e10	8	-1E+10	1	-1E+10	1	-1E+10	1	-1E+10	1	-1E+10	1	-1E+10	1
4902554	93	C	09/05/2023	06:04	-133.115	47.906	0	947.90	0	3.1690	0	34.3390	0	27.348	0	937.812	0	-1e10	8	-1e10	8	-1E+10	1	-1E+10	1	-1E+10	1	-1E+10	1	-1E+10	1	-1E+10	1
4902554	93	C	09/05/2023	06:04	-133.115	47.906	0	953.20	0	3.1600	0	34.3420	0	27.351	0	943.044	0	-1e10	8	-1e10	8	-1E+10	1	-1E+10	1	-1E+10	1	-1E+10	1	-1E+10	1	-1E+10	1
4902554	93	C	09/05/2023	06:04	-133.115	47.906	0	958.20	0	3.1530	0	34.3430	0	27.353	0	947.979	0	-1e10	8	-1e10	8	-1E+10	1	-1E+10	1	-1E+10	1	-1E+10	1	-1E+10	1	-1E+10	1
4902554	93	C	09/05/2023	06:04	-133.115	47.906	0	962.90	0	3.1470	0	34.3450	0	27.355	0	952.619	0	-1e10	8	-1e10	8	-1E+10	1	-1E+10	1	-1E+10	1	-1E+10	1	-1E+10	1	-1E+10	1
4902554	93	C	09/05/2023	06:04	-133.115	47.906	0	967.80	0	3.1420	0	34.3460	0	27.356	0	957.455	0	-1e10	8	-1e10	8	-1E+10	1	-1E+10	1	-1E+10	1	-1E+10	1	-1E+10	1	-1E+10	1
4902554	93	C	09/05/2023	06:04	-133.115	47.906	0	972.80	0	3.1340	0	34.3480	0	27.359	0	962.390	0	-1e10	8	-1e10	8	-1E+10	1	-1E+10	1	-1E+10	1	-1E+10	1	-1E+10	1	-1E+10	1
4902554	93	C	09/05/2023	06:04	-133.115	47.906	0	977.80	0	3.1220	0	34.3510	0	27.362	0	967.325	0	-1e10	8	-1e10	8	-1E+10	1	-1E+10	1	-1E+10	1	-1E+10	1	-1E+10	1	-1E+10	1
4902554	93	C	09/05/2023	06:04	-133.115	47.906	0	982.90	0	3.1180	0	34.3520	0	27.363	0	972.359	0	-1e10	8	-1e10	8	-1E+10	1	-1E+10	1	-1E+10	1	-1E+10	1	-1E+10	1	-1E+10	1
4902554	93	C	09/05/2023	06:04	-133.115	47.906	0	988.00	0	3.1150	0	34.3530	0	27.364	0	977.392	0	-1e10	8	-1e10	8	-1E+10	1	-1E+10	1	-1E+10	1	-1E+10	1	-1E+10	1	-1E+10	1
4902554	93	C	09/05/2023	06:04	-133.115	47.906	0	993.20	0	3.1050	0	34.3550	0	27.367	0	982.524	0	-1e10	8	-1e10	8	-1E+10	1	-1E+10	1	-1E+10	1	-1E+10	1	-1E+10	1	-1E+10	1
4902554	93	C	09/05/2023	06:04	-133.115	47.906	0	998.00	0	3.0990	0	34.3570	0	27.369	0	987.261	0	-1e10	8	-1e10	8	-1E+10	1	-1E+10	1	-1E+10	1	-1E+10	1	-1E+10	1	-1E+10	1
4902554	93	C	09/05/2023	06:04	-133.115	47.906	0	1005.20	0	3.0920	0	34.3600	0	27.372	0	994.367	0	-1e10	8	-1e10	8	-1E+10	1	-1E+10	1	-1E+10	1	-1E+10	1	-1E+10	1	-1E+10	1
4902554	93	C	09/05/2023	06:04	-133.115	47.906	0	1015.40	0	3.0780	0	34.3630	0	27.376	0	1004.432	0	-1e10	8	-1e10	8	-1E+10	1	-1E+10	1	-1E+10	1	-1E+10	1	-1E+10	1	-1E+10	1
4902554	93	C	09/05/2023	06:04	-133.115	47.906	0	1025.80	0	3.0650	0	34.3670	0	27.380	0	1014.695	0	-1e10	8	-1e10	8	-1E+10	1	-1E+10	1	-1E+10	1	-1E+10	1	-1E+10	1	-1E+10	1
4902554	93	C	09/05/2023	06:04	-133.115	47.906	0	1035.50	0	3.0480	0	34.3720	0	27.386	0	1024.266	0	-1e10	8	-1e10	8	-1E+10	1	-1E+10	1	-1E+10	1	-1E+10	1	-1E+10	1	-1E+10	1
4902554	93	C	09/05/2023	06:04	-133.115	47.906	0	1045.20	0	3.0320	0	34.3740	0	27.389	0	1033.837	0	-1e10	8	-1e10	8	-1E+10	1	-1E+10	1	-1E+10	1	-1E+10	1	-1E+10	1	-1E+10	1
4902554	93	C	09/05/2023	06:04	-133.115	47.906	0	1055.40	0	3.0090	0	34.3790	0	27.395	0	1043.901	0	-1e10	8	-1e10	8	-1E+10	1	-1E+10	1	-1E+10	1	-1E+10	1	-1E+10	1	-1E+10	1
4902554	93	C	09/05/2023	06:04	-133.115	47.906	0	1065.40	0	2.9980	0	34.3830	0	27.399	0	1053.767	0	-1e10	8	-1e10	8	-1E+10	1	-1E+10	1	-1E+10	1	-1E+10	1	-1E+10	1	-1E+10	1
4902554	93	C	09/05/2023	06:04	-133.115	47.906	0	1075.60	0	2.9920	0	34.3850	0	27.402	0	1063.829	0	-1e10	8	-1e10	8	-1E+10	1	-1E+10	1	-1E+10	1	-1E+10	1	-1E+10	1	-1E+10	1
4902554	93	C	09/05/2023	06:04	-133.115	47.906	0	1085.70	0	2.9800	0	34.3880	0	27.405	0	1073.793	0	-1e10	8	-1e10	8	-1E+10	1	-1E+10	1	-1E+10	1	-1E+10	1	-1E+10	1	-1E+10	1
4902554	93	C	09/05/2023	06:04	-133.115	47.906	0	1095.20	0	2.9630	0	34.3930	0	27.411	0	1083.164	0	-1e10	8	-1e10	8	-1E+10	1	-1E+10	1	-1E+10	1	-1E+10	1	-1E+10	1	-1E+10	1
4902554	93	C	09/05/2023	06:04	-133.115	47.906	0	1105.20	0	2.9440	0	34.3980	0	27.416	0	1093.028	0	-1e10	8	-1e10	8	-1E+10	1	-1E+10	1	-1E+10	1	-1E+10	1	-1E+10	1	-1E+10	1
4902554	93	C	09/05/2023	06:04	-133.115	47.906	0	1115.30	0	2.9300	0	34.4010	0	27.420	0	1102.991	0	-1e10	8	-1e10	8	-1E+10	1	-1E+10	1	-1E+10	1	-1E+10	1	-1E+10	1	-1E+10	1
4902554	93	C	09/05/2023	06:04	-133.115	47.906	0	1125.20	0	2.9150	0	34.4050	0	27.425	0	1112.755	0	-1e10	8	-1e10	8	-1E+10	1	-1E+10	1	-1E+10	1	-1E+10	1	-1E+10	1	-1E+10	1
4902554	93	C	09/05/2023	06:04	-133.115	47.906	0	1135.30	0	2.9030	0	34.4080	0	27.428	0	1122.717	0	-1e10	8	-1e10	8	-1E+10	1	-1E+10	1	-1E+10	1	-1E+10	1	-1E+10	1	-1E+10	1
4902554	93	C	09/05/2023	06:04	-133.115	47.906	0	1145.40	0	2.8890	0	34.4130	0	27.434	0	1132.677	0	-1e10	8	-1e10	8	-1E+10	1	-1E+10	1	-1E+10	1	-1E+10	1	-1E+10	1	-1E+10	1
4902554	93	C	09/05/2023	06:04	-133.115	47.906	0	1155.50	0	2.8770	0	34.4150	0	27.436	0	1142.638	0	-1e10	8	-1e10	8	-1E+10	1	-1E+10	1	-1E+10	1	-1E+10	1	-1E+10	1	-1E+10	1
4902554	93	C	09/05/2023	06:04	-133.115	47.906	0	1165.50	0	2.8580	0	34.4190	0	27.441	0	1152.499	0	-1e10	8	-1e10	8	-1E+10	1	-1E+10	1	-1E+10	1	-1E+10	1	-1E+10	1	-1E+10	1
4902554	93	C	09/05/2023	06:04	-133.115	47.906	0	1175.30	0	2.8360	0	34.4250	0	27.448	0	1162.163	0	-1e10	8	-1e10	8	-1E+10	1	-1E+10	1	-1E+10	1	-1E+10	1	-1E+10	1	-1E+10	1
4902554	93	C	09/05/2023	06:04	-133.115	47.906	0	1185.10	0	2.8200	0	34.4280	0	27.452	0	1171.826	0	-1e10	8	-1e10	8	-1E+10	1	-1E+10	1	-1E+10	1	-1E+10	1	-1E+10	1	-1E+10	1
4902554	93	C	09/05/2023	06:04	-133.115	47.906	0	1195.30	0	2.8150	0	34.4290	0	27.453	0	1181.883	0	-1e10	8	-1e10	8	-1E+10	1	-1E+10	1	-1E+10	1	-1E+10	1	-1E+10	1	-1E+10	1
4902554	93	C	09/05/2023	06:04	-133.115	47.906	0	1205.30	0	2.8040	0	34.4310	0	27.456	0	1191.742	0	-1e10	8	-1e10	8	-1E+10	1	-1E+10	1	-1E+10	1	-1E+10	1	-1E+10	1	-1E+10	1
4902554	93	C	09/05/2023	06:04	-133.115	47.906	0	1215.20	0	2.7960	0	34.4330	0	27.458	0	1201.503	0	-1e10	8	-1e10	8	-1E+10	1	-1E+10	1	-1E+10	1	-1E+10	1	-1E+10	1	-1E+10	1
4902554	93	C	09/05/2023	06:04	-133.115	47.906	0	1225.10	0	2.7710	0	34.4370	0	27.464	0	1211.263	0	-1e10	8	-1e10	8	-1E+10	1	-1E+10	1	-1E+10	1	-1E+10	1	-1E+10	1	-1E+10	1
4902554	93	C	09/05/2023	06:04	-133.115	47.906	0	1235.30	0	2.7520	0	34.4410	0	27.468	0	1221.318	0	-1e10	8	-1e10	8	-1E+10	1	-1E+10	1	-1E+10	1	-1E+10	1	-1E+10	1	-1E+10	1
4902554	93	C	09/05/2023	06:04	-133.115	47.906	0	1245.60	0	2.7310	0	34.4450	0	27.474	0	1231.471	0	-1e10	8	-1e10	8	-1E+10	1	-1E+10	1	-1E+10	1	-1E+10	1	-1E+10	1	-1E+10	1
4902554	93	C	09/05/2023	06:04	-133.115	47.906	0	1255.50	0	2.6970	0	34.4510	0	27.481	0	1241.230	0	-1e10	8	-1e10	8	-1E+10	1	-1E+10	1	-1E+10	1	-1E+10	1	-1E+10	1	-1E+10	1
4902554	93	C	09/05/2023	06:04	-133.115	47.906	0	1265.60	0	2.6690	0	34.4550	0	27.487	0	1251.185	0	-1e10	8	-1e10	8	-1E+10	1	-1E+10	1	-1E+10	1	-1E+10	1	-1E+10	1	-1E+10	1
4902554	93	C	09/05/2023	06:04	-133.115	47.906	0	1275.70	0	2.6440	0	34.4580	0	27.492	0	1261.140	0	-1e10	8	-1e10	8	-1E+10	1	-1E+10	1	-1E+10	1	-1E+10	1	-1E+10	1	-1E+10	1
4902554	93	C	09/05/2023	06:04	-133.115	47.906	0	1285.20	0	2.6250	0	34.4620	0	27.496	0	1270.502	0	-1e10	8	-1e10	8	-1E+10	1	-1E+10	1	-1E+10	1	-1E+10	1	-1E+10	1	-1E+10	1
4902554	93	C	09/05/2023	06:04	-133.115	47.906	0	1295.20	0	2.6100	0	34.4640	0	27.499	0	1280.358	0	-1e10	8	-1e10	8	-1E+10	1	-1E+10	1	-1E+10	1	-1E+10	1	-1E+10	1	-1E+10	1
4902554	93	C	09/05/2023	06:04	-133.115	47.906	0	1305.40	0	2.5880	0	34.4680	0	27.504	0	1290.410	0	-1e10	8	-1e10	8	-1E+10	1	-1E+10	1	-1E+10	1	-1E+10	1	-1E+10	1	-1E+10	1
4902554	93	C	09/05/2023	06:04	-133.115	47.906	0	1315.50	0	2.5690	0	34.4710	0	27.509	0	1300.362	0	-1e10	8	-1e10	8	-1E+10	1	-1E+10	1	-1E+10	1	-1E+10	1	-1E+10	1	-1E+10	1
4902554	93	C	09/05/2023	06:04	-133.115	47.906	0	1325.20	0	2.5540	0	34.4730	0	27.511	0	1309.921	0	-1e10	8	-1e10	8	-1E+10	1	-1E+10	1	-1E+10	1	-1E+10	1	-1E+10	1	-1E+10	1
4902554	93	C	09/05/2023	06:04	-133.115	47.906	0	1335.30	0	2.5430	0	34.4750	0	27.514	0	1319.873	0	-1e10	8	-1e10	8	-1E+10	1	-1E+10	1	-1E+10	1	-1E+10	1	-1E+10	1	-1E+10	1
4902554	93	C	09/05/2023	06:04	-133.115	47.906	0	1345.20	0	2.5360	0	34.4760	0	27.516	0	1329.627	0	-1e10	8	-1e10	8	-1E+10	1	-1E+10	1	-1E+10	1	-1E+10	1	-1E+10	1	-1E+10	1
4902554	93	C	09/05/2023	06:04	-133.115	47.906	0	1355.40	0	2.5250	0	34.4780	0	27.518	0	1339.677	0	-1e10	8	-1e10	8	-1E+10	1	-1E+10	1	-1E+10	1	-1E+10	1	-1E+10	1	-1E+10	1
4902554	93	C	09/05/2023	06:04	-133.115	47.906	0	1365.40	0	2.5140	0	34.4800	0	27.521	0	1349.529	0	-1e10	8	-1e10	8	-1E+10	1	-1E+10	1	-1E+10	1	-1E+10	1	-1E+10	1	-1E+10	1
4902554	93	C	09/05/2023	06:04	-133.115	47.906	0	1375.10	0	2.5120	0	34.4810	0	27.522	0	1359.085	0	-1e10	8	-1e10	8	-1E+10	1	-1E+10	1	-1E+10	1	-1E+10	1	-1E+10	1	-1E+10	1
4902554	93	C	09/05/2023	06:04	-133.115	47.906	0	1385.30	0	2.5000	0	34.4830	0	27.524	0	1369.133	0	-1e10	8	-1e10	8	-1E+10	1	-1E+10	1	-1E+10	1	-1E+10	1	-1E+10	1	-1E+10	1
4902554	93	C	09/05/2023	06:04	-133.115	47.906	0	1395.30	0	2.4920	0	34.4850	0	27.527	0	1378.983	0	-1e10	8	-1e10	8	-1E+10	1	-1E+10	1	-1E+10	1	-1E+10	1	-1E+10	1	-1E+10	1
4902554	93	C	09/05/2023	06:04	-133.115	47.906	0	1405.60	0	2.4760	0	34.4870	0	27.530	0	1389.129	0	-1e10	8	-1e10	8	-1E+10	1	-1E+10	1	-1E+10	1	-1E+10	1	-1E+10	1	-1E+10	1
4902554	93	C	09/05/2023	06:04	-133.115	47.906	0	1415.40	0	2.4730	0	34.4890	0	27.532	0	1398.782	0	-1e10	8	-1e10	8	-1E+10	1	-1E+10	1	-1E+10	1	-1E+10	1	-1E+10	1	-1E+10	1
4902554	93	C	09/05/2023	06:04	-133.115	47.906	0	1425.20	0	2.4570	0	34.4910	0	27.535	0	1408.434	0	-1e10	8	-1e10	8	-1E+10	1	-1E+10	1	-1E+10	1	-1E+10	1	-1E+10	1	-1E+10	1
4902554	93	C	09/05/2023	06:04	-133.115	47.906	0	1435.10	0	2.4450	0	34.4940	0	27.538	0	1418.184	0	-1e10	8	-1e10	8	-1E+10	1	-1E+10	1	-1E+10	1	-1E+10	1	-1E+10	1	-1E+10	1
4902554	93	C	09/05/2023	06:04	-133.115	47.906	0	1445.10	0	2.4380	0	34.4980	0	27.542	0	1428.033	0	-1e10	8	-1e10	8	-1E+10	1	-1E+10	1	-1E+10	1	-1E+10	1	-1E+10	1	-1E+10	1
4902554	93	C	09/05/2023	06:04	-133.115	47.906	0	1455.50	0	2.4290	0	34.5010	0	27.545	0	1438.274	0	-1e10	8	-1e10	8	-1E+10	1	-1E+10	1	-1E+10	1	-1E+10	1	-1E+10	1	-1E+10	1
4902554	93	C	09/05/2023	06:04	-133.115	47.906	0	1465.70	0	2.4070	0	34.5030	0	27.549	0	1448.319	0	-1e10	8	-1e10	8	-1E+10	1	-1E+10	1	-1E+10	1	-1E+10	1	-1E+10	1	-1E+10	1
4902554	93	C	09/05/2023	06:04	-133.115	47.906	0	1475.60	0	2.3930	0	34.5040	0	27.551	0	1458.067	0	-1e10	8	-1e10	8	-1E+10	1	-1E+10	1	-1E+10	1	-1E+10	1	-1E+10	1	-1E+10	1
4902554	93	C	09/05/2023	06:04	-133.115	47.906	0	1485.70	0	2.3710	0	34.5050	0	27.553	0	1468.012	0	-1e10	8	-1e10	8	-1E+10	1	-1E+10	1	-1E+10	1	-1E+10	1	-1E+10	1	-1E+10	1
4902554	93	C	09/05/2023	06:04	-133.115	47.906	0	1495.30	0	2.3560	0	34.5070	0	27.556	0	1477.464	0	-1e10	8	-1e10	8	-1E+10	1	-1E+10	1	-1E+10	1	-1E+10	1	-1E+10	1	-1E+10	1
4902554	93	C	09/05/2023	06:04	-133.115	47.906	0	1505.00	0	2.3330	0	34.5120	0	27.562	0	1487.014	0	-1e10	8	-1e10	8	-1E+10	1	-1E+10	1	-1E+10	1	-1E+10	1	-1E+10	1	-1E+10	1
4902554	93	C	09/05/2023	06:04	-133.115	47.906	0	1515.20	0	2.3200	0	34.5140	0	27.565	0	1497.056	0	-1e10	8	-1e10	8	-1E+10	1	-1E+10	1	-1E+10	1	-1E+10	1	-1E+10	1	-1E+10	1
4902554	93	C	09/05/2023	06:04	-133.115	47.906	0	1525.30	0	2.3130	0	34.5160	0	27.567	0	1507.000	0	-1e10	8	-1e10	8	-1E+10	1	-1E+10	1	-1E+10	1	-1E+10	1	-1E+10	1	-1E+10	1
4902554	93	C	09/05/2023	06:04	-133.115	47.906	0	1535.20	0	2.3050	0	34.5170	0	27.569	0	1516.745	0	-1e10	8	-1e10	8	-1E+10	1	-1E+10	1	-1E+10	1	-1E+10	1	-1E+10	1	-1E+10	1
4902554	93	C	09/05/2023	06:04	-133.115	47.906	0	1545.10	0	2.2920	0	34.5190	0	27.571	0	1526.491	0	-1e10	8	-1e10	8	-1E+10	1	-1E+10	1	-1E+10	1	-1E+10	1	-1E+10	1	-1E+10	1
4902554	93	C	09/05/2023	06:04	-133.115	47.906	0	1555.10	0	2.2840	0	34.5210	0	27.574	0	1536.334	0	-1e10	8	-1e10	8	-1E+10	1	-1E+10	1	-1E+10	1	-1E+10	1	-1E+10	1	-1E+10	1
4902554	93	C	09/05/2023	06:04	-133.115	47.906	0	1565.20	0	2.2750	0	34.5220	0	27.575	0	1546.275	0	-1e10	8	-1e10	8	-1E+10	1	-1E+10	1	-1E+10	1	-1E+10	1	-1E+10	1	-1E+10	1
4902554	93	C	09/05/2023	06:04	-133.115	47.906	0	1575.40	0	2.2540	0	34.5270	0	27.581	0	1556.314	0	-1e10	8	-1e10	8	-1E+10	1	-1E+10	1	-1E+10	1	-1E+10	1	-1E+10	1	-1E+10	1
4902554	93	C	09/05/2023	06:04	-133.115	47.906	0	1585.60	0	2.2450	0	34.5290	0	27.583	0	1566.353	0	-1e10	8	-1e10	8	-1E+10	1	-1E+10	1	-1E+10	1	-1E+10	1	-1E+10	1	-1E+10	1
4902554	93	C	09/05/2023	06:04	-133.115	47.906	0	1595.50	0	2.2330	0	34.5300	0	27.585	0	1576.096	0	-1e10	8	-1e10	8	-1E+10	1	-1E+10	1	-1E+10	1	-1E+10	1	-1E+10	1	-1E+10	1
4902554	93	C	09/05/2023	06:04	-133.115	47.906	0	1605.60	0	2.2200	0	34.5320	0	27.588	0	1586.035	0	-1e10	8	-1e10	8	-1E+10	1	-1E+10	1	-1E+10	1	-1E+10	1	-1E+10	1	-1E+10	1
4902554	93	C	09/05/2023	06:04	-133.115	47.906	0	1615.70	0	2.2150	0	34.5330	0	27.589	0	1595.974	0	-1e10	8	-1e10	8	-1E+10	1	-1E+10	1	-1E+10	1	-1E+10	1	-1E+10	1	-1E+10	1
4902554	93	C	09/05/2023	06:04	-133.115	47.906	0	1625.30	0	2.2100	0	34.5340	0	27.590	0	1605.421	0	-1e10	8	-1e10	8	-1E+10	1	-1E+10	1	-1E+10	1	-1E+10	1	-1E+10	1	-1E+10	1
4902554	93	C	09/05/2023	06:04	-133.115	47.906	0	1635.40	0	2.2020	0	34.5360	0	27.593	0	1615.359	0	-1e10	8	-1e10	8	-1E+10	1	-1E+10	1	-1E+10	1	-1E+10	1	-1E+10	1	-1E+10	1
4902554	93	C	09/05/2023	06:04	-133.115	47.906	0	1645.30	0	2.1970	0	34.5370	0	27.594	0	1625.099	0	-1e10	8	-1e10	8	-1E+10	1	-1E+10	1	-1E+10	1	-1E+10	1	-1E+10	1	-1E+10	1
4902554	93	C	09/05/2023	06:04	-133.115	47.906	0	1655.10	0	2.1950	0	34.5370	0	27.594	0	1634.741	0	-1e10	8	-1e10	8	-1E+10	1	-1E+10	1	-1E+10	1	-1E+10	1	-1E+10	1	-1E+10	1
4902554	93	C	09/05/2023	06:04	-133.115	47.906	0	1665.30	0	2.1910	0	34.5380	0	27.595	0	1644.776	0	-1e10	8	-1e10	8	-1E+10	1	-1E+10	1	-1E+10	1	-1E+10	1	-1E+10	1	-1E+10	1
4902554	93	C	09/05/2023	06:04	-133.115	47.906	0	1675.60	0	2.1790	0	34.5400	0	27.598	0	1654.909	0	-1e10	8	-1e10	8	-1E+10	1	-1E+10	1	-1E+10	1	-1E+10	1	-1E+10	1	-1E+10	1
4902554	93	C	09/05/2023	06:04	-133.115	47.906	0	1685.50	0	2.1620	0	34.5430	0	27.602	0	1664.648	0	-1e10	8	-1e10	8	-1E+10	1	-1E+10	1	-1E+10	1	-1E+10	1	-1E+10	1	-1E+10	1
4902554	93	C	09/05/2023	06:04	-133.115	47.906	0	1695.50	0	2.1430	0	34.5470	0	27.606	0	1674.485	0	-1e10	8	-1e10	8	-1E+10	1	-1E+10	1	-1E+10	1	-1E+10	1	-1E+10	1	-1E+10	1
4902554	93	C	09/05/2023	06:04	-133.115	47.906	0	1706.00	0	2.1340	0	34.5480	0	27.608	0	1684.813	0	-1e10	8	-1e10	8	-1E+10	1	-1E+10	1	-1E+10	1	-1E+10	1	-1E+10	1	-1E+10	1
4902554	93	C	09/05/2023	06:04	-133.115	47.906	0	1715.50	0	2.1300	0	34.5490	0	27.609	0	1694.157	0	-1e10	8	-1e10	8	-1E+10	1	-1E+10	1	-1E+10	1	-1E+10	1	-1E+10	1	-1E+10	1
4902554	93	C	09/05/2023	06:04	-133.115	47.906	0	1725.50	0	2.1230	0	34.5500	0	27.611	0	1703.992	0	-1e10	8	-1e10	8	-1E+10	1	-1E+10	1	-1E+10	1	-1E+10	1	-1E+10	1	-1E+10	1
4902554	93	C	09/05/2023	06:04	-133.115	47.906	0	1735.70	0	2.1100	0	34.5530	0	27.614	0	1714.024	0	-1e10	8	-1e10	8	-1E+10	1	-1E+10	1	-1E+10	1	-1E+10	1	-1E+10	1	-1E+10	1
4902554	93	C	09/05/2023	06:04	-133.115	47.906	0	1745.40	0	2.1060	0	34.5540	0	27.615	0	1723.564	0	-1e10	8	-1e10	8	-1E+10	1	-1E+10	1	-1E+10	1	-1E+10	1	-1E+10	1	-1E+10	1
4902554	93	C	09/05/2023	06:04	-133.115	47.906	0	1755.30	0	2.1000	0	34.5550	0	27.617	0	1733.299	0	-1e10	8	-1e10	8	-1E+10	1	-1E+10	1	-1E+10	1	-1E+10	1	-1E+10	1	-1E+10	1
4902554	93	C	09/05/2023	06:04	-133.115	47.906	0	1765.50	0	2.0870	0	34.5570	0	27.619	0	1743.330	0	-1e10	8	-1e10	8	-1E+10	1	-1E+10	1	-1E+10	1	-1E+10	1	-1E+10	1	-1E+10	1
4902554	93	C	09/05/2023	06:04	-133.115	47.906	0	1775.20	0	2.0800	0	34.5580	0	27.621	0	1752.868	0	-1e10	8	-1e10	8	-1E+10	1	-1E+10	1	-1E+10	1	-1E+10	1	-1E+10	1	-1E+10	1
4902554	93	C	09/05/2023	06:04	-133.115	47.906	0	1785.20	0	2.0730	0	34.5600	0	27.623	0	1762.701	0	-1e10	8	-1e10	8	-1E+10	1	-1E+10	1	-1E+10	1	-1E+10	1	-1E+10	1	-1E+10	1
4902554	93	C	09/05/2023	06:04	-133.115	47.906	0	1795.10	0	2.0650	0	34.5610	0	27.624	0	1772.435	0	-1e10	8	-1e10	8	-1E+10	1	-1E+10	1	-1E+10	1	-1E+10	1	-1E+10	1	-1E+10	1
4902554	93	C	09/05/2023	06:04	-133.115	47.906	0	1805.00	0	2.0610	0	34.5630	0	27.626	0	1782.168	0	-1e10	8	-1e10	8	-1E+10	1	-1E+10	1	-1E+10	1	-1E+10	1	-1E+10	1	-1E+10	1
4902554	93	C	09/05/2023	06:04	-133.115	47.906	0	1815.20	0	2.0560	0	34.5630	0	27.627	0	1792.196	0	-1e10	8	-1e10	8	-1E+10	1	-1E+10	1	-1E+10	1	-1E+10	1	-1E+10	1	-1E+10	1
4902554	93	C	09/05/2023	06:04	-133.115	47.906	0	1825.20	0	2.0470	0	34.5650	0	27.629	0	1802.027	0	-1e10	8	-1e10	8	-1E+10	1	-1E+10	1	-1E+10	1	-1E+10	1	-1E+10	1	-1E+10	1
4902554	93	C	09/05/2023	06:04	-133.115	47.906	0	1835.40	0	2.0360	0	34.5670	0	27.632	0	1812.054	0	-1e10	8	-1e10	8	-1E+10	1	-1E+10	1	-1E+10	1	-1E+10	1	-1E+10	1	-1E+10	1
4902554	93	C	09/05/2023	06:04	-133.115	47.906	0	1845.70	0	2.0290	0	34.5680	0	27.633	0	1822.179	0	-1e10	8	-1e10	8	-1E+10	1	-1E+10	1	-1E+10	1	-1E+10	1	-1E+10	1	-1E+10	1
4902554	93	C	09/05/2023	06:04	-133.115	47.906	0	1855.50	0	2.0210	0	34.5700	0	27.635	0	1831.812	0	-1e10	8	-1e10	8	-1E+10	1	-1E+10	1	-1E+10	1	-1E+10	1	-1E+10	1	-1E+10	1
4902554	93	C	09/05/2023	06:04	-133.115	47.906	0	1865.10	0	2.0100	0	34.5720	0	27.638	0	1841.248	0	-1e10	8	-1e10	8	-1E+10	1	-1E+10	1	-1E+10	1	-1E+10	1	-1E+10	1	-1E+10	1
4902554	93	C	09/05/2023	06:04	-133.115	47.906	0	1875.10	0	2.0040	0	34.5730	0	27.639	0	1851.076	0	-1e10	8	-1e10	8	-1E+10	1	-1E+10	1	-1E+10	1	-1E+10	1	-1E+10	1	-1E+10	1
4902554	93	C	09/05/2023	06:04	-133.115	47.906	0	1885.10	0	1.9960	0	34.5750	0	27.641	0	1860.904	0	-1e10	8	-1e10	8	-1E+10	1	-1E+10	1	-1E+10	1	-1E+10	1	-1E+10	1	-1E+10	1
4902554	93	C	09/05/2023	06:04	-133.115	47.906	0	1895.10	0	1.9840	0	34.5770	0	27.644	0	1870.732	0	-1e10	8	-1e10	8	-1E+10	1	-1E+10	1	-1E+10	1	-1E+10	1	-1E+10	1	-1E+10	1
4902554	93	C	09/05/2023	06:04	-133.115	47.906	0	1905.50	0	1.9730	0	34.5790	0	27.647	0	1880.952	0	-1e10	8	-1e10	8	-1E+10	1	-1E+10	1	-1E+10	1	-1E+10	1	-1E+10	1	-1E+10	1
4902554	93	C	09/05/2023	06:04	-133.115	47.906	0	1915.40	0	1.9700	0	34.5800	0	27.648	0	1890.681	0	-1e10	8	-1e10	8	-1E+10	1	-1E+10	1	-1E+10	1	-1E+10	1	-1E+10	1	-1E+10	1
4902554	93	C	09/05/2023	06:04	-133.115	47.906	0	1925.10	0	1.9620	0	34.5810	0	27.649	0	1900.212	0	-1e10	8	-1e10	8	-1E+10	1	-1E+10	1	-1E+10	1	-1E+10	1	-1E+10	1	-1E+10	1
4902554	93	C	09/05/2023	06:04	-133.115	47.906	0	1935.50	0	1.9580	0	34.5830	0	27.651	0	1910.431	0	-1e10	8	-1e10	8	-1E+10	1	-1E+10	1	-1E+10	1	-1E+10	1	-1E+10	1	-1E+10	1
4902554	93	C	09/05/2023	06:04	-133.115	47.906	0	1945.80	0	1.9560	0	34.5830	0	27.651	0	1920.552	0	-1e10	8	-1e10	8	-1E+10	1	-1E+10	1	-1E+10	1	-1E+10	1	-1E+10	1	-1E+10	1
4902554	93	C	09/05/2023	06:04	-133.115	47.906	0	1955.70	0	1.9560	0	34.5830	0	27.651	0	1930.278	0	-1e10	8	-1e10	8	-1E+10	1	-1E+10	1	-1E+10	1	-1E+10	1	-1E+10	1	-1E+10	1
4902554	93	C	09/05/2023	06:04	-133.115	47.906	0	1964.50	0	1.9550	0	34.5840	0	27.652	0	1938.924	0	-1e10	8	-1e10	8	-1E+10	1	-1E+10	1	-1E+10	1	-1E+10	1	-1E+10	1	-1E+10	1
4902554	93	C	09/05/2023	06:04	-133.115	47.906	0																										
4902554	94	C	09/15/2023	11:12	-133.239	47.785	0	0.10	0	16.8880	0	32.3540	0	23.511	0	0.099	0	-1e10	8	-1e10	8	-1E+10	1	-1E+10	1	-1E+10	1	-1E+10	1	-1E+10	1	-1E+10	1
4902554	94	C	09/15/2023	11:12	-133.239	47.785	0	0.30	0	16.8874	0	32.3551	0	23.512	0	0.297	0	-1e10	8	-1e10	8	-1E+10	1	-1E+10	1	-1E+10	1	-1E+10	1	-1E+10	1	-1E+10	1
4902554	94	C	09/15/2023	11:12	-133.239	47.785	0	0.80	0	16.8860	0	32.3580	0	23.515	0	0.793	0	-1e10	1	-1e10	1	-1E+10	1	-1E+10	1	-1E+10	1	-1E+10	1	-1E+10	1	-1E+10	1
4902554	94	C	09/15/2023	11:12	-133.239	47.785	0	1.00	0	16.8864	0	32.3578	0	23.515	0	0.992	0	-1e10	8	-1e10	8	-1E+10	1	-1E+10	1	-1E+10	1	-1E+10	1	-1E+10	1	-1E+10	1
4902554	94	C	09/15/2023	11:12	-133.239	47.785	0	1.80	0	16.8880	0	32.3570	0	23.514	0	1.785	0	-1e10	1	-1e10	1	-1E+10	1	-1E+10	1	-1E+10	1	-1E+10	1	-1E+10	1	-1E+10	1
4902554	94	C	09/15/2023	11:12	-133.239	47.785	0	2.10	0	16.8885	0	32.3568	0	23.514	0	2.082	0	-1e10	8	-1e10	8	-1E+10	1	-1E+10	1	-1E+10	1	-1E+10	1	-1E+10	1	-1E+10	1
4902554	94	C	09/15/2023	11:12	-133.239	47.785	0	3.00	0	16.8900	0	32.3560	0	23.513	0	2.975	0	-1e10	8	-1e10	8	-1E+10	1	-1E+10	1	-1E+10	1	-1E+10	1	-1E+10	1	-1E+10	1
4902554	94	C	09/15/2023	11:12	-133.239	47.785	0	4.00	0	16.8910	0	32.3570	0	23.513	0	3.966	0	-1e10	8	-1e10	8	-1E+10	1	-1E+10	1	-1E+10	1	-1E+10	1	-1E+10	1	-1E+10	1
4902554	94	C	09/15/2023	11:12	-133.239	47.785	0	5.00	0	16.8910	0	32.3580	0	23.514	0	4.958	0	-1e10	8	-1e10	8	-1E+10	1	-1E+10	1	-1E+10	1	-1E+10	1	-1E+10	1	-1E+10	1
4902554	94	C	09/15/2023	11:12	-133.239	47.785	0	6.00	0	16.8900	0	32.3590	0	23.515	0	5.950	0	-1e10	8	-1e10	8	-1E+10	1	-1E+10	1	-1E+10	1	-1E+10	1	-1E+10	1	-1E+10	1
4902554	94	C	09/15/2023	11:12	-133.239	47.785	0	7.00	0	16.8880	0	32.3590	0	23.516	0	6.941	0	-1e10	8	-1e10	8	-1E+10	1	-1E+10	1	-1E+10	1	-1E+10	1	-1E+10	1	-1E+10	1
4902554	94	C	09/15/2023	11:12	-133.239	47.785	0	7.90	0	16.8880	0	32.3580	0	23.515	0	7.834	0	-1e10	8	-1e10	8	-1E+10	1	-1E+10	1	-1E+10	1	-1E+10	1	-1E+10	1	-1E+10	1
4902554	94	C	09/15/2023	11:12	-133.239	47.785	0	8.80	0	16.8890	0	32.3590	0	23.515	0	8.726	0	-1e10	8	-1e10	8	-1E+10	1	-1E+10	1	-1E+10	1	-1E+10	1	-1E+10	1	-1E+10	1
4902554	94	C	09/15/2023	11:12	-133.239	47.785	0	10.00	0	16.8880	0	32.3590	0	23.516	0	9.916	0	-1e10	8	-1e10	8	-1E+10	1	-1E+10	1	-1E+10	1	-1E+10	1	-1E+10	1	-1E+10	1
4902554	94	C	09/15/2023	11:12	-133.239	47.785	0	11.00	0	16.8900	0	32.3590	0	23.515	0	10.908	0	-1e10	8	-1e10	8	-1E+10	1	-1E+10	1	-1E+10	1	-1E+10	1	-1E+10	1	-1E+10	1
4902554	94	C	09/15/2023	11:12	-133.239	47.785	0	11.90	0	16.8890	0	32.3580	0	23.515	0	11.800	0	-1e10	8	-1e10	8	-1E+10	1	-1E+10	1	-1E+10	1	-1E+10	1	-1E+10	1	-1E+10	1
4902554	94	C	09/15/2023	11:12	-133.239	47.785	0	12.90	0	16.8910	0	32.3580	0	23.514	0	12.792	0	-1e10	8	-1e10	8	-1E+10	1	-1E+10	1	-1E+10	1	-1E+10	1	-1E+10	1	-1E+10	1
4902554	94	C	09/15/2023	11:12	-133.239	47.785	0	13.90	0	16.8910	0	32.3580	0	23.514	0	13.783	0	-1e10	8	-1e10	8	-1E+10	1	-1E+10	1	-1E+10	1	-1E+10	1	-1E+10	1	-1E+10	1
4902554	94	C	09/15/2023	11:12	-133.239	47.785	0	14.90	0	16.8910	0	32.3580	0	23.514	0	14.775	0	-1e10	8	-1e10	8	-1E+10	1	-1E+10	1	-1E+10	1	-1E+10	1	-1E+10	1	-1E+10	1
4902554	94	C	09/15/2023	11:12	-133.239	47.785	0	15.80	0	16.8910	0	32.3580	0	23.514	0	15.667	0	-1e10	8	-1e10	8	-1E+10	1	-1E+10	1	-1E+10	1	-1E+10	1	-1E+10	1	-1E+10	1
4902554	94	C	09/15/2023	11:12	-133.239	47.785	0	17.00	0	16.8920	0	32.3590	0	23.515	0	16.857	0	-1e10	8	-1e10	8	-1E+10	1	-1E+10	1	-1E+10	1	-1E+10	1	-1E+10	1	-1E+10	1
4902554	94	C	09/15/2023	11:12	-133.239	47.785	0	18.00	0	16.8920	0	32.3580	0	23.514	0	17.849	0	-1e10	8	-1e10	8	-1E+10	1	-1E+10	1	-1E+10	1	-1E+10	1	-1E+10	1	-1E+10	1
4902554	94	C	09/15/2023	11:12	-133.239	47.785	0	19.00	0	16.8910	0	32.3580	0	23.515	0	18.840	0	-1e10	8	-1e10	8	-1E+10	1	-1E+10	1	-1E+10	1	-1E+10	1	-1E+10	1	-1E+10	1
4902554	94	C	09/15/2023	11:12	-133.239	47.785	0	20.20	0	16.8890	0	32.3590	0	23.516	0	20.030	0	-1e10	8	-1e10	8	-1E+10	1	-1E+10	1	-1E+10	1	-1E+10	1	-1E+10	1	-1E+10	1
4902554	94	C	09/15/2023	11:12	-133.239	47.785	0	21.10	0	16.8890	0	32.3590	0	23.516	0	20.922	0	-1e10	8	-1e10	8	-1E+10	1	-1E+10	1	-1E+10	1	-1E+10	1	-1E+10	1	-1E+10	1
4902554	94	C	09/15/2023	11:12	-133.239	47.785	0	21.80	0	16.8900	0	32.3590	0	23.516	0	21.616	0	-1e10	8	-1e10	8	-1E+10	1	-1E+10	1	-1E+10	1	-1E+10	1	-1E+10	1	-1E+10	1
4902554	94	C	09/15/2023	11:12	-133.239	47.785	0	22.90	0	16.8910	0	32.3590	0	23.515	0	22.707	0	-1e10	8	-1e10	8	-1E+10	1	-1E+10	1	-1E+10	1	-1E+10	1	-1E+10	1	-1E+10	1
4902554	94	C	09/15/2023	11:12	-133.239	47.785	0	23.90	0	16.8940	0	32.3580	0	23.514	0	23.699	0	-1e10	8	-1e10	8	-1E+10	1	-1E+10	1	-1E+10	1	-1E+10	1	-1E+10	1	-1E+10	1
4902554	94	C	09/15/2023	11:12	-133.239	47.785	0	25.10	0	16.8940	0	32.3580	0	23.514	0	24.888	0	-1e10	8	-1e10	8	-1E+10	1	-1E+10	1	-1E+10	1	-1E+10	1	-1E+10	1	-1E+10	1
4902554	94	C	09/15/2023	11:12	-133.239	47.785	0	25.80	0	16.8930	0	32.3580	0	23.514	0	25.582	0	-1e10	8	-1e10	8	-1E+10	1	-1E+10	1	-1E+10	1	-1E+10	1	-1E+10	1	-1E+10	1
4902554	94	C	09/15/2023	11:12	-133.239	47.785	0	26.90	0	16.8910	0	32.3580	0	23.515	0	26.673	0	-1e10	8	-1e10	8	-1E+10	1	-1E+10	1	-1E+10	1	-1E+10	1	-1E+10	1	-1E+10	1
4902554	94	C	09/15/2023	11:12	-133.239	47.785	0	27.90	0	16.8920	0	32.3580	0	23.515	0	27.665	0	-1e10	8	-1e10	8	-1E+10	1	-1E+10	1	-1E+10	1	-1E+10	1	-1E+10	1	-1E+10	1
4902554	94	C	09/15/2023	11:12	-133.239	47.785	0	28.90	0	16.8650	0	32.3450	0	23.511	0	28.656	0	-1e10	8	-1e10	8	-1E+10	1	-1E+10	1	-1E+10	1	-1E+10	1	-1E+10	1	-1E+10	1
4902554	94	C	09/15/2023	11:12	-133.239	47.785	0	29.80	0	16.7260	0	32.3530	0	23.549	0	29.548	0	-1e10	8	-1e10	8	-1E+10	1	-1E+10	1	-1E+10	1	-1E+10	1	-1E+10	1	-1E+10	1
4902554	94	C	09/15/2023	11:12	-133.239	47.785	0	30.80	0	16.5810	0	32.3550	0	23.584	0	30.540	0	-1e10	8	-1e10	8	-1E+10	1	-1E+10	1	-1E+10	1	-1E+10	1	-1E+10	1	-1E+10	1
4902554	94	C	09/15/2023	11:12	-133.239	47.785	0	31.70	0	16.4970	0	32.3570	0	23.605	0	31.432	0	-1e10	8	-1e10	8	-1E+10	1	-1E+10	1	-1E+10	1	-1E+10	1	-1E+10	1	-1E+10	1
4902554	94	C	09/15/2023	11:12	-133.239	47.785	0	33.10	0	16.2560	0	32.3660	0	23.667	0	32.820	0	-1e10	8	-1e10	8	-1E+10	1	-1E+10	1	-1E+10	1	-1E+10	1	-1E+10	1	-1E+10	1
4902554	94	C	09/15/2023	11:12	-133.239	47.785	0	34.10	0	16.0490	0	32.3770	0	23.722	0	33.812	0	-1e10	8	-1e10	8	-1E+10	1	-1E+10	1	-1E+10	1	-1E+10	1	-1E+10	1	-1E+10	1
4902554	94	C	09/15/2023	11:12	-133.239	47.785	0	35.00	0	15.6310	0	32.3930	0	23.827	0	34.704	0	-1e10	8	-1e10	8	-1E+10	1	-1E+10	1	-1E+10	1	-1E+10	1	-1E+10	1	-1E+10	1
4902554	94	C	09/15/2023	11:12	-133.239	47.785	0	36.10	0	14.7840	0	32.3780	0	23.999	0	35.795	0	-1e10	8	-1e10	8	-1E+10	1	-1E+10	1	-1E+10	1	-1E+10	1	-1E+10	1	-1E+10	1
4902554	94	C	09/15/2023	11:12	-133.239	47.785	0	36.90	0	13.6330	0	32.4570	0	24.299	0	36.588	0	-1e10	8	-1e10	8	-1E+10	1	-1E+10	1	-1E+10	1	-1E+10	1	-1E+10	1	-1E+10	1
4902554	94	C	09/15/2023	11:12	-133.239	47.785	0	38.10	0	12.3350	0	32.4190	0	24.524	0	37.778	0	-1e10	8	-1e10	8	-1E+10	1	-1E+10	1	-1E+10	1	-1E+10	1	-1E+10	1	-1E+10	1
4902554	94	C	09/15/2023	11:12	-133.239	47.785	0	39.00	0	11.5400	0	32.4240	0	24.675	0	38.670	0	-1e10	8	-1e10	8	-1E+10	1	-1E+10	1	-1E+10	1	-1E+10	1	-1E+10	1	-1E+10	1
4902554	94	C	09/15/2023	11:12	-133.239	47.785	0	40.10	0	10.9770	0	32.4390	0	24.787	0	39.760	0	-1e10	8	-1e10	8	-1E+10	1	-1E+10	1	-1E+10	1	-1E+10	1	-1E+10	1	-1E+10	1
4902554	94	C	09/15/2023	11:12	-133.239	47.785	0	41.10	0	10.8790	0	32.4350	0	24.801	0	40.752	0	-1e10	8	-1e10	8	-1E+10	1	-1E+10	1	-1E+10	1	-1E+10	1	-1E+10	1	-1E+10	1
4902554	94	C	09/15/2023	11:12	-133.239	47.785	0	41.70	0	10.7550	0	32.4360	0	24.824	0	41.347	0	-1e10	8	-1e10	8	-1E+10	1	-1E+10	1	-1E+10	1	-1E+10	1	-1E+10	1	-1E+10	1
4902554	94	C	09/15/2023	11:12	-133.239	47.785	0	42.70	0	10.3910	0	32.4620	0	24.906	0	42.338	0	-1e10	8	-1e10	8	-1E+10	1	-1E+10	1	-1E+10	1	-1E+10	1	-1E+10	1	-1E+10	1
4902554	94	C	09/15/2023	11:12	-133.239	47.785	0	43.70	0	10.2360	0	32.4480	0	24.922	0	43.330	0	-1e10	8	-1e10	8	-1E+10	1	-1E+10	1	-1E+10	1	-1E+10	1	-1E+10	1	-1E+10	1
4902554	94	C	09/15/2023	11:12	-133.239	47.785	0	45.10	0	10.1310	0	32.4420	0	24.935	0	44.718	0	-1e10	8	-1e10	8	-1E+10	1	-1E+10	1	-1E+10	1	-1E+10	1	-1E+10	1	-1E+10	1
4902554	94	C	09/15/2023	11:12	-133.239	47.785	0	46.30	0	9.9030	0	32.4420	0	24.972	0	45.907	0	-1e10	8	-1e10	8	-1E+10	1	-1E+10	1	-1E+10	1	-1E+10	1	-1E+10	1	-1E+10	1
4902554	94	C	09/15/2023	11:12	-133.239	47.785	0	47.10	0	9.7840	0	32.4560	0	25.003	0	46.700	0	-1e10	8	-1e10	8	-1E+10	1	-1E+10	1	-1E+10	1	-1E+10	1	-1E+10	1	-1E+10	1
4902554	94	C	09/15/2023	11:12	-133.239	47.785	0	48.00	0	9.4410	0	32.4450	0	25.050	0	47.593	0	-1e10	8	-1e10	8	-1E+10	1	-1E+10	1	-1E+10	1	-1E+10	1	-1E+10	1	-1E+10	1
4902554	94	C	09/15/2023	11:12	-133.239	47.785	0	49.10	0	9.0270	0	32.4410	0	25.112	0	48.683	0	-1e10	8	-1e10	8	-1E+10	1	-1E+10	1	-1E+10	1	-1E+10	1	-1E+10	1	-1E+10	1
4902554	94	C	09/15/2023	11:12	-133.239	47.785	0	50.10	0	8.9630	0	32.4400	0	25.121	0	49.675	0	-1e10	8	-1e10	8	-1E+10	1	-1E+10	1	-1E+10	1	-1E+10	1	-1E+10	1	-1E+10	1
4902554	94	C	09/15/2023	11:12	-133.239	47.785	0	51.00	0	8.8870	0	32.4410	0	25.133	0	50.567	0	-1e10	8	-1e10	8	-1E+10	1	-1E+10	1	-1E+10	1	-1E+10	1	-1E+10	1	-1E+10	1
4902554	94	C	09/15/2023	11:12	-133.239	47.785	0	52.00	0	8.7820	0	32.4420	0	25.150	0	51.558	0	-1e10	8	-1e10	8	-1E+10	1	-1E+10	1	-1E+10	1	-1E+10	1	-1E+10	1	-1E+10	1
4902554	94	C	09/15/2023	11:12	-133.239	47.785	0	53.00	0	8.7220	0	32.4430	0	25.160	0	52.550	0	-1e10	8	-1e10	8	-1E+10	1	-1E+10	1	-1E+10	1	-1E+10	1	-1E+10	1	-1E+10	1
4902554	94	C	09/15/2023	11:12	-133.239	47.785	0	54.10	0	8.6800	0	32.4430	0	25.167	0	53.640	0	-1e10	8	-1e10	8	-1E+10	1	-1E+10	1	-1E+10	1	-1E+10	1	-1E+10	1	-1E+10	1
4902554	94	C	09/15/2023	11:12	-133.239	47.785	0	54.80	0	8.6620	0	32.4440	0	25.170	0	54.334	0	-1e10	8	-1e10	8	-1E+10	1	-1E+10	1	-1E+10	1	-1E+10	1	-1E+10	1	-1E+10	1
4902554	94	C	09/15/2023	11:12	-133.239	47.785	0	55.90	0	8.6170	0	32.4430	0	25.176	0	55.424	0	-1e10	8	-1e10	8	-1E+10	1	-1E+10	1	-1E+10	1	-1E+10	1	-1E+10	1	-1E+10	1
4902554	94	C	09/15/2023	11:12	-133.239	47.785	0	57.10	0	8.5130	0	32.4500	0	25.197	0	56.614	0	-1e10	8	-1e10	8	-1E+10	1	-1E+10	1	-1E+10	1	-1E+10	1	-1E+10	1	-1E+10	1
4902554	94	C	09/15/2023	11:12	-133.239	47.785	0	57.90	0	8.4300	0	32.4510	0	25.211	0	57.407	0	-1e10	8	-1e10	8	-1E+10	1	-1E+10	1	-1E+10	1	-1E+10	1	-1E+10	1	-1E+10	1
4902554	94	C	09/15/2023	11:12	-133.239	47.785	0	58.90	0	8.4120	0	32.4520	0	25.214	0	58.399	0	-1e10	8	-1e10	8	-1E+10	1	-1E+10	1	-1E+10	1	-1E+10	1	-1E+10	1	-1E+10	1
4902554	94	C	09/15/2023	11:12	-133.239	47.785	0	60.00	0	8.4020	0	32.4550	0	25.218	0	59.489	0	-1e10	8	-1e10	8	-1E+10	1	-1E+10	1	-1E+10	1	-1E+10	1	-1E+10	1	-1E+10	1
4902554	94	C	09/15/2023	11:12	-133.239	47.785	0	61.20	0	8.3660	0	32.4600	0	25.227	0	60.679	0	-1e10	8	-1e10	8	-1E+10	1	-1E+10	1	-1E+10	1	-1E+10	1	-1E+10	1	-1E+10	1
4902554	94	C	09/15/2023	11:12	-133.239	47.785	0	62.00	0	8.3470	0	32.4580	0	25.228	0	61.472	0	-1e10	8	-1e10	8	-1E+10	1	-1E+10	1	-1E+10	1	-1E+10	1	-1E+10	1	-1E+10	1
4902554	94	C	09/15/2023	11:12	-133.239	47.785	0	63.20	0	8.2690	0	32.4610	0	25.242	0	62.661	0	-1e10	8	-1e10	8	-1E+10	1	-1E+10	1	-1E+10	1	-1E+10	1	-1E+10	1	-1E+10	1
4902554	94	C	09/15/2023	11:12	-133.239	47.785	0	63.90	0	8.2360	0	32.4610	0	25.247	0	63.355	0	-1e10	8	-1e10	8	-1E+10	1	-1E+10	1	-1E+10	1	-1E+10	1	-1E+10	1	-1E+10	1
4902554	94	C	09/15/2023	11:12	-133.239	47.785	0	65.10	0	8.1960	0	32.4610	0	25.253	0	64.545	0	-1e10	8	-1e10	8	-1E+10	1	-1E+10	1	-1E+10	1	-1E+10	1	-1E+10	1	-1E+10	1
4902554	94	C	09/15/2023	11:12	-133.239	47.785	0	65.80	0	8.1800	0	32.4610	0	25.255	0	65.239	0	-1e10	8	-1e10	8	-1E+10	1	-1E+10	1	-1E+10	1	-1E+10	1	-1E+10	1	-1E+10	1
4902554	94	C	09/15/2023	11:12	-133.239	47.785	0	66.90	0	8.1420	0	32.4620	0	25.262	0	66.329	0	-1e10	8	-1e10	8	-1E+10	1	-1E+10	1	-1E+10	1	-1E+10	1	-1E+10	1	-1E+10	1
4902554	94	C	09/15/2023	11:12	-133.239	47.785	0	68.10	0	8.1060	0	32.4630	0	25.268	0	67.519	0	-1e10	8	-1e10	8	-1E+10	1	-1E+10	1	-1E+10	1	-1E+10	1	-1E+10	1	-1E+10	1
4902554	94	C	09/15/2023	11:12	-133.239	47.785	0	68.80	0	8.0700	0	32.4630	0	25.273	0	68.213	0	-1e10	8	-1e10	8	-1E+10	1	-1E+10	1	-1E+10	1	-1E+10	1	-1E+10	1	-1E+10	1
4902554	94	C	09/15/2023	11:12	-133.239	47.785	0	70.00	0	8.0090	0	32.4610	0	25.280	0	69.402	0	-1e10	8	-1e10	8	-1E+10	1	-1E+10	1	-1E+10	1	-1E+10	1	-1E+10	1	-1E+10	1
4902554	94	C	09/15/2023	11:12	-133.239	47.785	0	71.20	0	7.9310	0	32.4600	0	25.291	0	70.592	0	-1e10	8	-1e10	8	-1E+10	1	-1E+10	1	-1E+10	1	-1E+10	1	-1E+10	1	-1E+10	1
4902554	94	C	09/15/2023	11:12	-133.239	47.785	0	71.90	0	7.9060	0	32.4620	0	25.296	0	71.286	0	-1e10	8	-1e10	8	-1E+10	1	-1E+10	1	-1E+10	1	-1E+10	1	-1E+10	1	-1E+10	1
4902554	94	C	09/15/2023	11:12	-133.239	47.785	0	73.00	0	7.8820	0	32.4600	0	25.298	0	72.376	0	-1e10	8	-1e10	8	-1E+10	1	-1E+10	1	-1E+10	1	-1E+10	1	-1E+10	1	-1E+10	1
4902554	94	C	09/15/2023	11:12	-133.239	47.785	0	74.20	0	7.8780	0	32.4600	0	25.298	0	73.566	0	-1e10	8	-1e10	8	-1E+10	1	-1E+10	1	-1E+10	1	-1E+10	1	-1E+10	1	-1E+10	1
4902554	94	C	09/15/2023	11:12	-133.239	47.785	0	75.00	0	7.8120	0	32.4650	0	25.312	0	74.359	0	-1e10	8	-1e10	8	-1E+10	1	-1E+10	1	-1E+10	1	-1E+10	1	-1E+10	1	-1E+10	1
4902554	94	C	09/15/2023	11:12	-133.239	47.785	0	76.10	0	7.7740	0	32.4650	0	25.317	0	75.449	0	-1e10	8	-1e10	8	-1E+10	1	-1E+10	1	-1E+10	1	-1E+10	1	-1E+10	1	-1E+10	1
4902554	94	C	09/15/2023	11:12	-133.239	47.785	0	76.90	0	7.7750	0	32.4650	0	25.317	0	76.242	0	-1e10	8	-1e10	8	-1E+10	1	-1E+10	1	-1E+10	1	-1E+10	1	-1E+10	1	-1E+10	1
4902554	94	C	09/15/2023	11:12	-133.239	47.785	0	78.10	0	7.7660	0	32.4680	0	25.321	0	77.431	0	-1e10	8	-1e10	8	-1E+10	1	-1E+10	1	-1E+10	1	-1E+10	1	-1E+10	1	-1E+10	1
4902554	94	C	09/15/2023	11:12	-133.239	47.785	0	78.90	0	7.7440	0	32.4710	0	25.326	0	78.224	0	-1e10	8	-1e10	8	-1E+10	1	-1E+10	1	-1E+10	1	-1E+10	1	-1E+10	1	-1E+10	1
4902554	94	C	09/15/2023	11:12	-133.239	47.785	0	80.20	0	7.6860	0	32.4720	0	25.335	0	79.513	0	-1e10	8	-1e10	8	-1E+10	1	-1E+10	1	-1E+10	1	-1E+10	1	-1E+10	1	-1E+10	1
4902554	94	C	09/15/2023	11:12	-133.239	47.785	0	81.00	0	7.6860	0	32.4750	0	25.337	0	80.306	0	-1e10	8	-1e10	8	-1E+10	1	-1E+10	1	-1E+10	1	-1E+10	1	-1E+10	1	-1E+10	1
4902554	94	C	09/15/2023	11:12	-133.239	47.785	0	81.90	0	7.6720	0	32.4720	0	25.337	0	81.198	0	-1e10	8	-1e10	8	-1E+10	1	-1E+10	1	-1E+10	1	-1E+10	1	-1E+10	1	-1E+10	1
4902554	94	C	09/15/2023	11:12	-133.239	47.785	0	83.10	0	7.5950	0	32.4680	0	25.345	0	82.388	0	-1e10	8	-1e10	8	-1E+10	1	-1E+10	1	-1E+10	1	-1E+10	1	-1E+10	1	-1E+10	1
4902554	94	C	09/15/2023	11:12	-133.239	47.785	0	84.10	0	7.5390	0	32.4660	0	25.351	0	83.379	0	-1e10	8	-1e10	8	-1E+10	1	-1E+10	1	-1E+10	1	-1E+10	1	-1E+10	1	-1E+10	1
4902554	94	C	09/15/2023	11:12	-133.239	47.785	0	85.10	0	7.5230	0	32.4670	0	25.354	0	84.370	0	-1e10	8	-1e10	8	-1E+10	1	-1E+10	1	-1E+10	1	-1E+10	1	-1E+10	1	-1E+10	1
4902554	94	C	09/15/2023	11:12	-133.239	47.785	0	86.10	0	7.5450	0	32.4760	0	25.358	0	85.361	0	-1e10	8	-1e10	8	-1E+10	1	-1E+10	1	-1E+10	1	-1E+10	1	-1E+10	1	-1E+10	1
4902554	94	C	09/15/2023	11:12	-133.239	47.785	0	87.00	0	7.5600	0	32.4810	0	25.360	0	86.253	0	-1e10	8	-1e10	8	-1E+10	1	-1E+10	1	-1E+10	1	-1E+10	1	-1E+10	1	-1E+10	1
4902554	94	C	09/15/2023	11:12	-133.239	47.785	0	87.70	0	7.5460	0	32.4810	0	25.362	0	86.947	0	-1e10	8	-1e10	8	-1E+10	1	-1E+10	1	-1E+10	1	-1E+10	1	-1E+10	1	-1E+10	1
4902554	94	C	09/15/2023	11:12	-133.239	47.785	0	88.80	0	7.5070	0	32.4780	0	25.365	0	88.038	0	-1e10	8	-1e10	8	-1E+10	1	-1E+10	1	-1E+10	1	-1E+10	1	-1E+10	1	-1E+10	1
4902554	94	C	09/15/2023	11:12	-133.239	47.785	0	89.90	0	7.4860	0	32.4760	0	25.366	0	89.128	0	-1e10	8	-1e10	8	-1E+10	1	-1E+10	1	-1E+10	1	-1E+10	1	-1E+10	1	-1E+10	1
4902554	94	C	09/15/2023	11:12	-133.239	47.785	0	91.00	0	7.4840	0	32.4770	0	25.367	0	90.218	0	-1e10	8	-1e10	8	-1E+10	1	-1E+10	1	-1E+10	1	-1E+10	1	-1E+10	1	-1E+10	1
4902554	94	C	09/15/2023	11:12	-133.239	47.785	0	92.10	0	7.4630	0	32.4770	0	25.370	0	91.309	0	-1e10	8	-1e10	8	-1E+10	1	-1E+10	1	-1E+10	1	-1E+10	1	-1E+10	1	-1E+10	1
4902554	94	C	09/15/2023	11:12	-133.239	47.785	0	93.10	0	7.4580	0	32.4810	0	25.374	0	92.300	0	-1e10	8	-1e10	8	-1E+10	1	-1E+10	1	-1E+10	1	-1E+10	1	-1E+10	1	-1E+10	1
4902554	94	C	09/15/2023	11:12	-133.239	47.785	0	94.10	0	7.4580	0	32.4850	0	25.377	0	93.291	0	-1e10	8	-1e10	8	-1E+10	1	-1E+10	1	-1E+10	1	-1E+10	1	-1E+10	1	-1E+10	1
4902554	94	C	09/15/2023	11:12	-133.239	47.785	0	94.90	0	7.4630	0	32.4890	0	25.380	0	94.084	0	-1e10	8	-1e10	8	-1E+10	1	-1E+10	1	-1E+10	1	-1E+10	1	-1E+10	1	-1E+10	1
4902554	94	C	09/15/2023	11:12	-133.239	47.785	0	95.70	0	7.4610	0	32.4930	0	25.383	0	94.877	0	-1e10	8	-1e10	8	-1E+10	1	-1E+10	1	-1E+10	1	-1E+10	1	-1E+10	1	-1E+10	1
4902554	94	C	09/15/2023	11:12	-133.239	47.785	0	96.70	0	7.4460	0	32.4940	0	25.386	0	95.868	0	-1e10	8	-1e10	8	-1E+10	1	-1E+10	1	-1E+10	1	-1E+10	1	-1E+10	1	-1E+10	1
4902554	94	C	09/15/2023	11:12	-133.239	47.785	0	97.70	0	7.4300	0	32.4970	0	25.391	0	96.859	0	-1e10	8	-1e10	8	-1E+10	1	-1E+10	1	-1E+10	1	-1E+10	1	-1E+10	1	-1E+10	1
4902554	94	C	09/15/2023	11:12	-133.239	47.785	0	99.10	0	7.4060	0	32.5010	0	25.397	0	98.247	0	-1e10	8	-1e10	8	-1E+10	1	-1E+10	1	-1E+10	1	-1E+10	1	-1E+10	1	-1E+10	1
4902554	94	C	09/15/2023	11:12	-133.239	47.785	0	100.30	0	7.3930	0	32.5080	0	25.404	0	99.436	0	-1e10	8	-1e10	8	-1E+10	1	-1E+10	1	-1E+10	1	-1E+10	1	-1E+10	1	-1E+10	1
4902554	94	C	09/15/2023	11:12	-133.239	47.785	0	101.20	0	7.3840	0	32.5140	0	25.410	0	100.328	0	-1e10	8	-1e10	8	-1E+10	1	-1E+10	1	-1E+10	1	-1E+10	1	-1E+10	1	-1E+10	1
4902554	94	C	09/15/2023	11:12	-133.239	47.785	0	102.10	0	7.3840	0	32.5150	0	25.411	0	101.220	0	-1e10	8	-1e10	8	-1E+10	1	-1E+10	1	-1E+10	1	-1E+10	1	-1E+10	1	-1E+10	1
4902554	94	C	09/15/2023	11:12	-133.239	47.785	0	102.90	0	7.3830	0	32.5160	0	25.412	0	102.013	0	-1e10	8	-1e10	8	-1E+10	1	-1E+10	1	-1E+10	1	-1E+10	1	-1E+10	1	-1E+10	1
4902554	94	C	09/15/2023	11:12	-133.239	47.785	0	104.20	0	7.3800	0	32.5180	0	25.414	0	103.302	0	-1e10	8	-1e10	8	-1E+10	1	-1E+10	1	-1E+10	1	-1E+10	1	-1E+10	1	-1E+10	1
4902554	94	C	09/15/2023	11:12	-133.239	47.785	0	105.10	0	7.3610	0	32.5300	0	25.426	0	104.194	0	-1e10	8	-1e10	8	-1E+10	1	-1E+10	1	-1E+10	1	-1E+10	1	-1E+10	1	-1E+10	1
4902554	94	C	09/15/2023	11:12	-133.239	47.785	0	106.10	0	7.3420	0	32.5300	0	25.429	0	105.185	0	-1e10	8	-1e10	8	-1E+10	1	-1E+10	1	-1E+10	1	-1E+10	1	-1E+10	1	-1E+10	1
4902554	94	C	09/15/2023	11:12	-133.239	47.785	0	107.00	0	7.3190	0	32.5390	0	25.439	0	106.077	0	-1e10	8	-1e10	8	-1E+10	1	-1E+10	1	-1E+10	1	-1E+10	1	-1E+10	1	-1E+10	1
4902554	94	C	09/15/2023	11:12	-133.239	47.785	0	107.90	0	7.2850	0	32.5540	0	25.455	0	106.969	0	-1e10	8	-1e10	8	-1E+10	1	-1E+10	1	-1E+10	1	-1E+10	1	-1E+10	1	-1E+10	1
4902554	94	C	09/15/2023	11:12	-133.239	47.785	0	109.10	0	7.2740	0	32.5690	0	25.469	0	108.158	0	-1e10	8	-1e10	8	-1E+10	1	-1E+10	1	-1E+10	1	-1E+10	1	-1E+10	1	-1E+10	1
4902554	94	C	09/15/2023	11:12	-133.239	47.785	0	109.80	0	7.2570	0	32.5730	0	25.474	0	108.852	0	-1e10	8	-1e10	8	-1E+10	1	-1E+10	1	-1E+10	1	-1E+10	1	-1E+10	1	-1E+10	1
4902554	94	C	09/15/2023	11:12	-133.239	47.785	0	110.80	0	7.2370	0	32.5870	0	25.488	0	109.843	0	-1e10	8	-1e10	8	-1E+10	1	-1E+10	1	-1E+10	1	-1E+10	1	-1E+10	1	-1E+10	1
4902554	94	C	09/15/2023	11:12	-133.239	47.785	0	112.00	0	7.1790	0	32.6030	0	25.508	0	111.032	0	-1e10	8	-1e10	8	-1E+10	1	-1E+10	1	-1E+10	1	-1E+10	1	-1E+10	1	-1E+10	1
4902554	94	C	09/15/2023	11:12	-133.239	47.785	0	113.10	0	7.1260	0	32.6070	0	25.519	0	112.122	0	-1e10	8	-1e10	8	-1E+10	1	-1E+10	1	-1E+10	1	-1E+10	1	-1E+10	1	-1E+10	1
4902554	94	C	09/15/2023	11:12	-133.239	47.785	0	114.10	0	7.0590	0	32.6200	0	25.538	0	113.113	0	-1e10	8	-1e10	8	-1E+10	1	-1E+10	1	-1E+10	1	-1E+10	1	-1E+10	1	-1E+10	1
4902554	94	C	09/15/2023	11:12	-133.239	47.785	0	115.10	0	7.0660	0	32.6460	0	25.558	0	114.105	0	-1e10	8	-1e10	8	-1E+10	1	-1E+10	1	-1E+10	1	-1E+10	1	-1E+10	1	-1E+10	1
4902554	94	C	09/15/2023	11:12	-133.239	47.785	0	115.90	0	7.0790	0	32.6820	0	25.584	0	114.897	0	-1e10	8	-1e10	8	-1E+10	1	-1E+10	1	-1E+10	1	-1E+10	1	-1E+10	1	-1E+10	1
4902554	94	C	09/15/2023	11:12	-133.239	47.785	0	116.90	0	7.0780	0	32.7200	0	25.614	0	115.888	0	-1e10	8	-1e10	8	-1E+10	1	-1E+10	1	-1E+10	1	-1E+10	1	-1E+10	1	-1E+10	1
4902554	94	C	09/15/2023	11:12	-133.239	47.785	0	118.00	0	7.0260	0	32.7490	0	25.644	0	116.979	0	-1e10	8	-1e10	8	-1E+10	1	-1E+10	1	-1E+10	1	-1E+10	1	-1E+10	1	-1E+10	1
4902554	94	C	09/15/2023	11:12	-133.239	47.785	0	119.20	0	6.9220	0	32.7670	0	25.672	0	118.168	0	-1e10	8	-1e10	8	-1E+10	1	-1E+10	1	-1E+10	1	-1E+10	1	-1E+10	1	-1E+10	1
4902554	94	C	09/15/2023	11:12	-133.239	47.785	0	120.00	0	6.9580	0	32.7720	0	25.671	0	118.961	0	-1e10	8	-1e10	8	-1E+10	1	-1E+10	1	-1E+10	1	-1E+10	1	-1E+10	1	-1E+10	1
4902554	94	C	09/15/2023	11:12	-133.239	47.785	0	121.30	0	6.9820	0	32.7960	0	25.687	0	120.249	0	-1e10	8	-1e10	8	-1E+10	1	-1E+10	1	-1E+10	1	-1E+10	1	-1E+10	1	-1E+10	1
4902554	94	C	09/15/2023	11:12	-133.239	47.785	0	121.90	0	6.9570	0	32.8080	0	25.700	0	120.844	0	-1e10	8	-1e10	8	-1E+10	1	-1E+10	1	-1E+10	1	-1E+10	1	-1E+10	1	-1E+10	1
4902554	94	C	09/15/2023	11:12	-133.239	47.785	0	123.10	0	6.8780	0	32.8240	0	25.723	0	122.033	0	-1e10	8	-1e10	8	-1E+10	1	-1E+10	1	-1E+10	1	-1E+10	1	-1E+10	1	-1E+10	1
4902554	94	C	09/15/2023	11:12	-133.239	47.785	0	123.80	0	6.8410	0	32.8300	0	25.733	0	122.727	0	-1e10	8	-1e10	8	-1E+10	1	-1E+10	1	-1E+10	1	-1E+10	1	-1E+10	1	-1E+10	1
4902554	94	C	09/15/2023	11:12	-133.239	47.785	0	124.70	0	6.7950	0	32.8390	0	25.746	0	123.619	0	-1e10	8	-1e10	8	-1E+10	1	-1E+10	1	-1E+10	1	-1E+10	1	-1E+10	1	-1E+10	1
4902554	94	C	09/15/2023	11:12	-133.239	47.785	0	125.70	0	6.7340	0	32.8560	0	25.767	0	124.610	0	-1e10	8	-1e10	8	-1E+10	1	-1E+10	1	-1E+10	1	-1E+10	1	-1E+10	1	-1E+10	1
4902554	94	C	09/15/2023	11:12	-133.239	47.785	0	126.70	0	6.6760	0	32.8750	0	25.790	0	125.601	0	-1e10	8	-1e10	8	-1E+10	1	-1E+10	1	-1E+10	1	-1E+10	1	-1E+10	1	-1E+10	1
4902554	94	C	09/15/2023	11:12	-133.239	47.785	0	127.80	0	6.6240	0	32.8990	0	25.815	0	126.691	0	-1e10	8	-1e10	8	-1E+10	1	-1E+10	1	-1E+10	1	-1E+10	1	-1E+10	1	-1E+10	1
4902554	94	C	09/15/2023	11:12	-133.239	47.785	0	128.90	0	6.5540	0	32.9330	0	25.851	0	127.781	0	-1e10	8	-1e10	8	-1E+10	1	-1E+10	1	-1E+10	1	-1E+10	1	-1E+10	1	-1E+10	1
4902554	94	C	09/15/2023	11:12	-133.239	47.785	0	130.10	0	6.4810	0	32.9690	0	25.889	0	128.970	0	-1e10	8	-1e10	8	-1E+10	1	-1E+10	1	-1E+10	1	-1E+10	1	-1E+10	1	-1E+10	1
4902554	94	C	09/15/2023	11:12	-133.239	47.785	0	131.00	0	6.4670	0	32.9900	0	25.907	0	129.862	0	-1e10	8	-1e10	8	-1E+10	1	-1E+10	1	-1E+10	1	-1E+10	1	-1E+10	1	-1E+10	1
4902554	94	C	09/15/2023	11:12	-133.239	47.785	0	131.80	0	6.4510	0	32.9930	0	25.912	0	130.655	0	-1e10	8	-1e10	8	-1E+10	1	-1E+10	1	-1E+10	1	-1E+10	1	-1E+10	1	-1E+10	1
4902554	94	C	09/15/2023	11:12	-133.239	47.785	0	132.90	0	6.4420	0	32.9960	0	25.915	0	131.745	0	-1e10	8	-1e10	8	-1E+10	1	-1E+10	1	-1E+10	1	-1E+10	1	-1E+10	1	-1E+10	1
4902554	94	C	09/15/2023	11:12	-133.239	47.785	0	134.10	0	6.4110	0	33.0150	0	25.934	0	132.934	0	-1e10	8	-1e10	8	-1E+10	1	-1E+10	1	-1E+10	1	-1E+10	1	-1E+10	1	-1E+10	1
4902554	94	C	09/15/2023	11:12	-133.239	47.785	0	135.00	0	6.3100	0	33.0460	0	25.972	0	133.826	0	-1e10	8	-1e10	8	-1E+10	1	-1E+10	1	-1E+10	1	-1E+10	1	-1E+10	1	-1E+10	1
4902554	94	C	09/15/2023	11:12	-133.239	47.785	0	136.00	0	6.2760	0	33.0640	0	25.990	0	134.817	0	-1e10	8	-1e10	8	-1E+10	1	-1E+10	1	-1E+10	1	-1E+10	1	-1E+10	1	-1E+10	1
4902554	94	C	09/15/2023	11:12	-133.239	47.785	0	137.00	0	6.2390	0	33.1120	0	26.033	0	135.808	0	-1e10	8	-1e10	8	-1E+10	1	-1E+10	1	-1E+10	1	-1E+10	1	-1E+10	1	-1E+10	1
4902554	94	C	09/15/2023	11:12	-133.239	47.785	0	138.00	0	6.2140	0	33.1320	0	26.052	0	136.799	0	-1e10	8	-1e10	8	-1E+10	1	-1E+10	1	-1E+10	1	-1E+10	1	-1E+10	1	-1E+10	1
4902554	94	C	09/15/2023	11:12	-133.239	47.785	0	139.10	0	6.2050	0	33.1340	0	26.054	0	137.889	0	-1e10	8	-1e10	8	-1E+10	1	-1E+10	1	-1E+10	1	-1E+10	1	-1E+10	1	-1E+10	1
4902554	94	C	09/15/2023	11:12	-133.239	47.785	0	139.80	0	6.1980	0	33.1360	0	26.057	0	138.583	0	-1e10	8	-1e10	8	-1E+10	1	-1E+10	1	-1E+10	1	-1E+10	1	-1E+10	1	-1E+10	1
4902554	94	C	09/15/2023	11:12	-133.239	47.785	0	140.90	0	6.1590	0	33.1700	0	26.089	0	139.673	0	-1e10	8	-1e10	8	-1E+10	1	-1E+10	1	-1E+10	1	-1E+10	1	-1E+10	1	-1E+10	1
4902554	94	C	09/15/2023	11:12	-133.239	47.785	0	142.00	0	6.1340	0	33.2000	0	26.115	0	140.763	0	-1e10	8	-1e10	8	-1E+10	1	-1E+10	1	-1E+10	1	-1E+10	1	-1E+10	1	-1E+10	1
4902554	94	C	09/15/2023	11:12	-133.239	47.785	0	142.80	0	6.0850	0	33.2340	0	26.148	0	141.556	0	-1e10	8	-1e10	8	-1E+10	1	-1E+10	1	-1E+10	1	-1E+10	1	-1E+10	1	-1E+10	1
4902554	94	C	09/15/2023	11:12	-133.239	47.785	0	143.90	0	6.0670	0	33.2450	0	26.159	0	142.646	0	-1e10	8	-1e10	8	-1E+10	1	-1E+10	1	-1E+10	1	-1E+10	1	-1E+10	1	-1E+10	1
4902554	94	C	09/15/2023	11:12	-133.239	47.785	0	145.00	0	6.0670	0	33.2440	0	26.159	0	143.736	0	-1e10	8	-1e10	8	-1E+10	1	-1E+10	1	-1E+10	1	-1E+10	1	-1E+10	1	-1E+10	1
4902554	94	C	09/15/2023	11:12	-133.239	47.785	0	146.00	0	6.0440	0	33.2560	0	26.171	0	144.726	0	-1e10	8	-1e10	8	-1E+10	1	-1E+10	1	-1E+10	1	-1E+10	1	-1E+10	1	-1E+10	1
4902554	94	C	09/15/2023	11:12	-133.239	47.785	0	147.20	0	6.0130	0	33.2740	0	26.189	0	145.916	0	-1e10	8	-1e10	8	-1E+10	1	-1E+10	1	-1E+10	1	-1E+10	1	-1E+10	1	-1E+10	1
4902554	94	C	09/15/2023	11:12	-133.239	47.785	0	148.00	0	5.9880	0	33.2900	0	26.205	0	146.708	0	-1e10	8	-1e10	8	-1E+10	1	-1E+10	1	-1E+10	1	-1E+10	1	-1E+10	1	-1E+10	1
4902554	94	C	09/15/2023	11:12	-133.239	47.785	0	148.80	0	5.9660	0	33.3030	0	26.218	0	147.501	0	-1e10	8	-1e10	8	-1E+10	1	-1E+10	1	-1E+10	1	-1E+10	1	-1E+10	1	-1E+10	1
4902554	94	C	09/15/2023	11:12	-133.239	47.785	0	149.90	0	5.9360	0	33.3240	0	26.238	0	148.591	0	-1e10	8	-1e10	8	-1E+10	1	-1E+10	1	-1E+10	1	-1E+10	1	-1E+10	1	-1E+10	1
4902554	94	C	09/15/2023	11:12	-133.239	47.785	0	151.10	0	5.9270	0	33.3340	0	26.247	0	149.780	0	-1e10	8	-1e10	8	-1E+10	1	-1E+10	1	-1E+10	1	-1E+10	1	-1E+10	1	-1E+10	1
4902554	94	C	09/15/2023	11:12	-133.239	47.785	0	151.90	0	5.9250	0	33.3360	0	26.249	0	150.573	0	-1e10	8	-1e10	8	-1E+10	1	-1E+10	1	-1E+10	1	-1E+10	1	-1E+10	1	-1E+10	1
4902554	94	C	09/15/2023	11:12	-133.239	47.785	0	153.00	0	5.9090	0	33.3500	0	26.262	0	151.663	0	-1e10	8	-1e10	8	-1E+10	1	-1E+10	1	-1E+10	1	-1E+10	1	-1E+10	1	-1E+10	1
4902554	94	C	09/15/2023	11:12	-133.239	47.785	0	154.20	0	5.8700	0	33.3770	0	26.288	0	152.852	0	-1e10	8	-1e10	8	-1E+10	1	-1E+10	1	-1E+10	1	-1E+10	1	-1E+10	1	-1E+10	1
4902554	94	C	09/15/2023	11:12	-133.239	47.785	0	155.00	0	5.8650	0	33.3840	0	26.294	0	153.645	0	-1e10	8	-1e10	8	-1E+10	1	-1E+10	1	-1E+10	1	-1E+10	1	-1E+10	1	-1E+10	1
4902554	94	C	09/15/2023	11:12	-133.239	47.785	0	155.80	0	5.8530	0	33.3960	0	26.305	0	154.437	0	-1e10	8	-1e10	8	-1E+10	1	-1E+10	1	-1E+10	1	-1E+10	1	-1E+10	1	-1E+10	1
4902554	94	C	09/15/2023	11:12	-133.239	47.785	0	156.70	0	5.8260	0	33.4210	0	26.328	0	155.329	0	-1e10	8	-1e10	8	-1E+10	1	-1E+10	1	-1E+10	1	-1E+10	1	-1E+10	1	-1E+10	1
4902554	94	C	09/15/2023	11:12	-133.239	47.785	0	157.90	0	5.8220	0	33.4240	0	26.331	0	156.518	0	-1e10	8	-1e10	8	-1E+10	1	-1E+10	1	-1E+10	1	-1E+10	1	-1E+10	1	-1E+10	1
4902554	94	C	09/15/2023	11:12	-133.239	47.785	0	159.20	0	5.8210	0	33.4250	0	26.332	0	157.806	0	-1e10	8	-1e10	8	-1E+10	1	-1E+10	1	-1E+10	1	-1E+10	1	-1E+10	1	-1E+10	1
4902554	94	C	09/15/2023	11:12	-133.239	47.785	0	160.10	0	5.8100	0	33.4360	0	26.342	0	158.698	0	-1e10	8	-1e10	8	-1E+10	1	-1E+10	1	-1E+10	1	-1E+10	1	-1E+10	1	-1E+10	1
4902554	94	C	09/15/2023	11:12	-133.239	47.785	0	160.90	0	5.8020	0	33.4450	0	26.350	0	159.491	0	-1e10	8	-1e10	8	-1E+10	1	-1E+10	1	-1E+10	1	-1E+10	1	-1E+10	1	-1E+10	1
4902554	94	C	09/15/2023	11:12	-133.239	47.785	0	161.80	0	5.7990	0	33.4460	0	26.351	0	160.383	0	-1e10	8	-1e10	8	-1E+10	1	-1E+10	1	-1E+10	1	-1E+10	1	-1E+10	1	-1E+10	1
4902554	94	C	09/15/2023	11:12	-133.239	47.785	0	162.60	0	5.7930	0	33.4520	0	26.357	0	161.175	0	-1e10	8	-1e10	8	-1E+10	1	-1E+10	1	-1E+10	1	-1E+10	1	-1E+10	1	-1E+10	1
4902554	94	C	09/15/2023	11:12	-133.239	47.785	0	163.90	0	5.7830	0	33.4670	0	26.370	0	162.463	0	-1e10	8	-1e10	8	-1E+10	1	-1E+10	1	-1E+10	1	-1E+10	1	-1E+10	1	-1E+10	1
4902554	94	C	09/15/2023	11:12	-133.239	47.785	0	165.20	0	5.7750	0	33.4790	0	26.380	0	163.751	0	-1e10	8	-1e10	8	-1E+10	1	-1E+10	1	-1E+10	1	-1E+10	1	-1E+10	1	-1E+10	1
4902554	94	C	09/15/2023	11:12	-133.239	47.785	0	166.10	0	5.7700	0	33.4870	0	26.387	0	164.643	0	-1e10	8	-1e10	8	-1E+10	1	-1E+10	1	-1E+10	1	-1E+10	1	-1E+10	1	-1E+10	1
4902554	94	C	09/15/2023	11:12	-133.239	47.785	0	166.90	0	5.7680	0	33.4880	0	26.388	0	165.436	0	-1e10	8	-1e10	8	-1E+10	1	-1E+10	1	-1E+10	1	-1E+10	1	-1E+10	1	-1E+10	1
4902554	94	C	09/15/2023	11:12	-133.239	47.785	0	167.80	0	5.7620	0	33.4950	0	26.395	0	166.328	0	-1e10	8	-1e10	8	-1E+10	1	-1E+10	1	-1E+10	1	-1E+10	1	-1E+10	1	-1E+10	1
4902554	94	C	09/15/2023	11:12	-133.239	47.785	0	168.70	0	5.7580	0	33.4990	0	26.398	0	167.219	0	-1e10	8	-1e10	8	-1E+10	1	-1E+10	1	-1E+10	1	-1E+10	1	-1E+10	1	-1E+10	1
4902554	94	C	09/15/2023	11:12	-133.239	47.785	0	169.60	0	5.7460	0	33.5160	0	26.413	0	168.111	0	-1e10	8	-1e10	8	-1E+10	1	-1E+10	1	-1E+10	1	-1E+10	1	-1E+10	1	-1E+10	1
4902554	94	C	09/15/2023	11:12	-133.239	47.785	0	170.90	0	5.7300	0	33.5380	0	26.432	0	169.399	0	-1e10	8	-1e10	8	-1E+10	1	-1E+10	1	-1E+10	1	-1E+10	1	-1E+10	1	-1E+10	1
4902554	94	C	09/15/2023	11:12	-133.239	47.785	0	172.40	0	5.7430	0	33.5590	0	26.448	0	170.885	0	-1e10	8	-1e10	8	-1E+10	1	-1E+10	1	-1E+10	1	-1E+10	1	-1E+10	1	-1E+10	1
4902554	94	C	09/15/2023	11:12	-133.239	47.785	0	173.30	0	5.7400	0	33.5650	0	26.453	0	171.777	0	-1e10	8	-1e10	8	-1E+10	1	-1E+10	1	-1E+10	1	-1E+10	1	-1E+10	1	-1E+10	1
4902554	94	C	09/15/2023	11:12	-133.239	47.785	0	174.20	0	5.7320	0	33.5760	0	26.462	0	172.669	0	-1e10	8	-1e10	8	-1E+10	1	-1E+10	1	-1E+10	1	-1E+10	1	-1E+10	1	-1E+10	1
4902554	94	C	09/15/2023	11:12	-133.239	47.785	0	175.10	0	5.7250	0	33.5770	0	26.464	0	173.560	0	-1e10	8	-1e10	8	-1E+10	1	-1E+10	1	-1E+10	1	-1E+10	1	-1E+10	1	-1E+10	1
4902554	94	C	09/15/2023	11:12	-133.239	47.785	0	176.10	0	5.7150	0	33.5830	0	26.470	0	174.551	0	-1e10	8	-1e10	8	-1E+10	1	-1E+10	1	-1E+10	1	-1E+10	1	-1E+10	1	-1E+10	1
4902554	94	C	09/15/2023	11:12	-133.239	47.785	0	177.00	0	5.7090	0	33.5840	0	26.471	0	175.443	0	-1e10	8	-1e10	8	-1E+10	1	-1E+10	1	-1E+10	1	-1E+10	1	-1E+10	1	-1E+10	1
4902554	94	C	09/15/2023	11:12	-133.239	47.785	0	177.90	0	5.6950	0	33.5860	0	26.475	0	176.335	0	-1e10	8	-1e10	8	-1E+10	1	-1E+10	1	-1E+10	1	-1E+10	1	-1E+10	1	-1E+10	1
4902554	94	C	09/15/2023	11:12	-133.239	47.785	0	178.80	0	5.6910	0	33.5890	0	26.478	0	177.226	0	-1e10	8	-1e10	8	-1E+10	1	-1E+10	1	-1E+10	1	-1E+10	1	-1E+10	1	-1E+10	1
4902554	94	C	09/15/2023	11:12	-133.239	47.785	0	179.80	0	5.6870	0	33.5960	0	26.484	0	178.217	0	-1e10	8	-1e10	8	-1E+10	1	-1E+10	1	-1E+10	1	-1E+10	1	-1E+10	1	-1E+10	1
4902554	94	C	09/15/2023	11:12	-133.239	47.785	0	180.70	0	5.6820	0	33.6040	0	26.491	0	179.109	0	-1e10	8	-1e10	8	-1E+10	1	-1E+10	1	-1E+10	1	-1E+10	1	-1E+10	1	-1E+10	1
4902554	94	C	09/15/2023	11:12	-133.239	47.785	0	181.60	0	5.6810	0	33.6060	0	26.492	0	180.000	0	-1e10	8	-1e10	8	-1E+10	1	-1E+10	1	-1E+10	1	-1E+10	1	-1E+10	1	-1E+10	1
4902554	94	C	09/15/2023	11:12	-133.239	47.785	0	182.50	0	5.6770	0	33.6110	0	26.497	0	180.892	0	-1e10	8	-1e10	8	-1E+10	1	-1E+10	1	-1E+10	1	-1E+10	1	-1E+10	1	-1E+10	1
4902554	94	C	09/15/2023	11:12	-133.239	47.785	0	183.90	0	5.6690	0	33.6150	0	26.501	0	182.279	0	-1e10	8	-1e10	8	-1E+10	1	-1E+10	1	-1E+10	1	-1E+10	1	-1E+10	1	-1E+10	1
4902554	94	C	09/15/2023	11:12	-133.239	47.785	0	185.30	0	5.6690	0	33.6320	0	26.514	0	183.666	0	-1e10	8	-1e10	8	-1E+10	1	-1E+10	1	-1E+10	1	-1E+10	1	-1E+10	1	-1E+10	1
4902554	94	C	09/15/2023	11:12	-133.239	47.785	0	186.20	0	5.6700	0	33.6390	0	26.520	0	184.558	0	-1e10	8	-1e10	8	-1E+10	1	-1E+10	1	-1E+10	1	-1E+10	1	-1E+10	1	-1E+10	1
4902554	94	C	09/15/2023	11:12	-133.239	47.785	0	187.20	0	5.6690	0	33.6430	0	26.523	0	185.549	0	-1e10	8	-1e10	8	-1E+10	1	-1E+10	1	-1E+10	1	-1E+10	1	-1E+10	1	-1E+10	1
4902554	94	C	09/15/2023	11:12	-133.239	47.785	0	188.10	0	5.6700	0	33.6450	0	26.525	0	186.440	0	-1e10	8	-1e10	8	-1E+10	1	-1E+10	1	-1E+10	1	-1E+10	1	-1E+10	1	-1E+10	1
4902554	94	C	09/15/2023	11:12	-133.239	47.785	0	189.00	0	5.6710	0	33.6500	0	26.528	0	187.332	0	-1e10	8	-1e10	8	-1E+10	1	-1E+10	1	-1E+10	1	-1E+10	1	-1E+10	1	-1E+10	1
4902554	94	C	09/15/2023	11:12	-133.239	47.785	0	190.00	0	5.6650	0	33.6580	0	26.535	0	188.323	0	-1e10	8	-1e10	8	-1E+10	1	-1E+10	1	-1E+10	1	-1E+10	1	-1E+10	1	-1E+10	1
4902554	94	C	09/15/2023	11:12	-133.239	47.785	0	191.00	0	5.6480	0	33.6670	0	26.545	0	189.313	0	-1e10	8	-1e10	8	-1E+10	1	-1E+10	1	-1E+10	1	-1E+10	1	-1E+10	1	-1E+10	1
4902554	94	C	09/15/2023	11:12	-133.239	47.785	0	191.90	0	5.6350	0	33.6710	0	26.549	0	190.205	0	-1e10	8	-1e10	8	-1E+10	1	-1E+10	1	-1E+10	1	-1E+10	1	-1E+10	1	-1E+10	1
4902554	94	C	09/15/2023	11:12	-133.239	47.785	0	192.90	0	5.6190	0	33.6760	0	26.555	0	191.196	0	-1e10	8	-1e10	8	-1E+10	1	-1E+10	1	-1E+10	1	-1E+10	1	-1E+10	1	-1E+10	1
4902554	94	C	09/15/2023	11:12	-133.239	47.785	0	193.90	0	5.6030	0	33.6810	0	26.561	0	192.186	0	-1e10	8	-1e10	8	-1E+10	1	-1E+10	1	-1E+10	1	-1E+10	1	-1E+10	1	-1E+10	1
4902554	94	C	09/15/2023	11:12	-133.239	47.785	0	194.90	0	5.6010	0	33.6820	0	26.562	0	193.177	0	-1e10	8	-1e10	8	-1E+10	1	-1E+10	1	-1E+10	1	-1E+10	1	-1E+10	1	-1E+10	1
4902554	94	C	09/15/2023	11:12	-133.239	47.785	0	195.90	0	5.5970	0	33.6830	0	26.563	0	194.168	0	-1e10	8	-1e10	8	-1E+10	1	-1E+10	1	-1E+10	1	-1E+10	1	-1E+10	1	-1E+10	1
4902554	94	C	09/15/2023	11:12	-133.239	47.785	0	196.80	0	5.5870	0	33.6860	0	26.567	0	195.059	0	-1e10	8	-1e10	8	-1E+10	1	-1E+10	1	-1E+10	1	-1E+10	1	-1E+10	1	-1E+10	1
4902554	94	C	09/15/2023	11:12	-133.239	47.785	0	197.80	0	5.5810	0	33.6880	0	26.569	0	196.050	0	-1e10	8	-1e10	8	-1E+10	1	-1E+10	1	-1E+10	1	-1E+10	1	-1E+10	1	-1E+10	1
4902554	94	C	09/15/2023	11:12	-133.239	47.785	0	198.80	0	5.5680	0	33.6920	0	26.574	0	197.041	0	-1e10	8	-1e10	8	-1E+10	1	-1E+10	1	-1E+10	1	-1E+10	1	-1E+10	1	-1E+10	1
4902554	94	C	09/15/2023	11:12	-133.239	47.785	0	199.80	0	5.5480	0	33.6960	0	26.580	0	198.031	0	-1e10	8	-1e10	8	-1E+10	1	-1E+10	1	-1E+10	1	-1E+10	1	-1E+10	1	-1E+10	1
4902554	94	C	09/15/2023	11:12	-133.239	47.785	0	200.70	0	5.5450	0	33.6970	0	26.581	0	198.923	0	-1e10	8	-1e10	8	-1E+10	1	-1E+10	1	-1E+10	1	-1E+10	1	-1E+10	1	-1E+10	1
4902554	94	C	09/15/2023	11:12	-133.239	47.785	0	201.90	0	5.5410	0	33.6980	0	26.582	0	200.112	0	-1e10	8	-1e10	8	-1E+10	1	-1E+10	1	-1E+10	1	-1E+10	1	-1E+10	1	-1E+10	1
4902554	94	C	09/15/2023	11:12	-133.239	47.785	0	203.00	0	5.5290	0	33.7020	0	26.587	0	201.202	0	-1e10	8	-1e10	8	-1E+10	1	-1E+10	1	-1E+10	1	-1E+10	1	-1E+10	1	-1E+10	1
4902554	94	C	09/15/2023	11:12	-133.239	47.785	0	203.70	0	5.5220	0	33.7030	0	26.588	0	201.895	0	-1e10	8	-1e10	8	-1E+10	1	-1E+10	1	-1E+10	1	-1E+10	1	-1E+10	1	-1E+10	1
4902554	94	C	09/15/2023	11:12	-133.239	47.785	0	204.80	0	5.5180	0	33.7040	0	26.590	0	202.985	0	-1e10	8	-1e10	8	-1E+10	1	-1E+10	1	-1E+10	1	-1E+10	1	-1E+10	1	-1E+10	1
4902554	94	C	09/15/2023	11:12	-133.239	47.785	0	206.00	0	5.5120	0	33.7060	0	26.592	0	204.174	0	-1e10	8	-1e10	8	-1E+10	1	-1E+10	1	-1E+10	1	-1E+10	1	-1E+10	1	-1E+10	1
4902554	94	C	09/15/2023	11:12	-133.239	47.785	0	207.00	0	5.5020	0	33.7090	0	26.595	0	205.164	0	-1e10	8	-1e10	8	-1E+10	1	-1E+10	1	-1E+10	1	-1E+10	1	-1E+10	1	-1E+10	1
4902554	94	C	09/15/2023	11:12	-133.239	47.785	0	208.10	0	5.4970	0	33.7090	0	26.596	0	206.254	0	-1e10	8	-1e10	8	-1E+10	1	-1E+10	1	-1E+10	1	-1E+10	1	-1E+10	1	-1E+10	1
4902554	94	C	09/15/2023	11:12	-133.239	47.785	0	208.90	0	5.4860	0	33.7130	0	26.601	0	207.046	0	-1e10	8	-1e10	8	-1E+10	1	-1E+10	1	-1E+10	1	-1E+10	1	-1E+10	1	-1E+10	1
4902554	94	C	09/15/2023	11:12	-133.239	47.785	0	210.00	0	5.4620	0	33.7180	0	26.607	0	208.136	0	-1e10	8	-1e10	8	-1E+10	1	-1E+10	1	-1E+10	1	-1E+10	1	-1E+10	1	-1E+10	1
4902554	94	C	09/15/2023	11:12	-133.239	47.785	0	211.20	0	5.4420	0	33.7230	0	26.614	0	209.325	0	-1e10	8	-1e10	8	-1E+10	1	-1E+10	1	-1E+10	1	-1E+10	1	-1E+10	1	-1E+10	1
4902554	94	C	09/15/2023	11:12	-133.239	47.785	0	211.90	0	5.4180	0	33.7250	0	26.618	0	210.018	0	-1e10	8	-1e10	8	-1E+10	1	-1E+10	1	-1E+10	1	-1E+10	1	-1E+10	1	-1E+10	1
4902554	94	C	09/15/2023	11:12	-133.239	47.785	0	212.70	0	5.4070	0	33.7250	0	26.619	0	210.811	0	-1e10	8	-1e10	8	-1E+10	1	-1E+10	1	-1E+10	1	-1E+10	1	-1E+10	1	-1E+10	1
4902554	94	C	09/15/2023	11:12	-133.239	47.785	0	213.90	0	5.3960	0	33.7270	0	26.622	0	211.999	0	-1e10	8	-1e10	8	-1E+10	1	-1E+10	1	-1E+10	1	-1E+10	1	-1E+10	1	-1E+10	1
4902554	94	C	09/15/2023	11:12	-133.239	47.785	0	215.10	0	5.3850	0	33.7280	0	26.624	0	213.188	0	-1e10	8	-1e10	8	-1E+10	1	-1E+10	1	-1E+10	1	-1E+10	1	-1E+10	1	-1E+10	1
4902554	94	C	09/15/2023	11:12	-133.239	47.785	0	215.90	0	5.3770	0	33.7290	0	26.626	0	213.981	0	-1e10	8	-1e10	8	-1E+10	1	-1E+10	1	-1E+10	1	-1E+10	1	-1E+10	1	-1E+10	1
4902554	94	C	09/15/2023	11:12	-133.239	47.785	0	216.80	0	5.3670	0	33.7290	0	26.627	0	214.872	0	-1e10	8	-1e10	8	-1E+10	1	-1E+10	1	-1E+10	1	-1E+10	1	-1E+10	1	-1E+10	1
4902554	94	C	09/15/2023	11:12	-133.239	47.785	0	218.00	0	5.3580	0	33.7300	0	26.629	0	216.061	0	-1e10	8	-1e10	8	-1E+10	1	-1E+10	1	-1E+10	1	-1E+10	1	-1E+10	1	-1E+10	1
4902554	94	C	09/15/2023	11:12	-133.239	47.785	0	219.30	0	5.3430	0	33.7340	0	26.634	0	217.349	0	-1e10	8	-1e10	8	-1E+10	1	-1E+10	1	-1E+10	1	-1E+10	1	-1E+10	1	-1E+10	1
4902554	94	C	09/15/2023	11:12	-133.239	47.785	0	220.10	0	5.3010	0	33.7370	0	26.641	0	218.141	0	-1e10	8	-1e10	8	-1E+10	1	-1E+10	1	-1E+10	1	-1E+10	1	-1E+10	1	-1E+10	1
4902554	94	C	09/15/2023	11:12	-133.239	47.785	0	221.00	0	5.2940	0	33.7380	0	26.643	0	219.033	0	-1e10	8	-1e10	8	-1E+10	1	-1E+10	1	-1E+10	1	-1E+10	1	-1E+10	1	-1E+10	1
4902554	94	C	09/15/2023	11:12	-133.239	47.785	0	221.80	0	5.2930	0	33.7380	0	26.643	0	219.825	0	-1e10	8	-1e10	8	-1E+10	1	-1E+10	1	-1E+10	1	-1E+10	1	-1E+10	1	-1E+10	1
4902554	94	C	09/15/2023	11:12	-133.239	47.785	0	222.70	0	5.2860	0	33.7380	0	26.644	0	220.717	0	-1e10	8	-1e10	8	-1E+10	1	-1E+10	1	-1E+10	1	-1E+10	1	-1E+10	1	-1E+10	1
4902554	94	C	09/15/2023	11:12	-133.239	47.785	0	223.90	0	5.2730	0	33.7400	0	26.647	0	221.905	0	-1e10	8	-1e10	8	-1E+10	1	-1E+10	1	-1E+10	1	-1E+10	1	-1E+10	1	-1E+10	1
4902554	94	C	09/15/2023	11:12	-133.239	47.785	0	225.30	0	5.2580	0	33.7420	0	26.650	0	223.292	0	-1e10	8	-1e10	8	-1E+10	1	-1E+10	1	-1E+10	1	-1E+10	1	-1E+10	1	-1E+10	1
4902554	94	C	09/15/2023	11:12	-133.239	47.785	0	226.10	0	5.2370	0	33.7450	0	26.655	0	224.084	0	-1e10	8	-1e10	8	-1E+10	1	-1E+10	1	-1E+10	1	-1E+10	1	-1E+10	1	-1E+10	1
4902554	94	C	09/15/2023	11:12	-133.239	47.785	0	227.00	0	5.2240	0	33.7470	0	26.658	0	224.976	0	-1e10	8	-1e10	8	-1E+10	1	-1E+10	1	-1E+10	1	-1E+10	1	-1E+10	1	-1E+10	1
4902554	94	C	09/15/2023	11:12	-133.239	47.785	0	227.90	0	5.2210	0	33.7470	0	26.659	0	225.867	0	-1e10	8	-1e10	8	-1E+10	1	-1E+10	1	-1E+10	1	-1E+10	1	-1E+10	1	-1E+10	1
4902554	94	C	09/15/2023	11:12	-133.239	47.785	0	228.80	0	5.2170	0	33.7470	0	26.659	0	226.759	0	-1e10	8	-1e10	8	-1E+10	1	-1E+10	1	-1E+10	1	-1E+10	1	-1E+10	1	-1E+10	1
4902554	94	C	09/15/2023	11:12	-133.239	47.785	0	229.70	0	5.2060	0	33.7480	0	26.661	0	227.650	0	-1e10	8	-1e10	8	-1E+10	1	-1E+10	1	-1E+10	1	-1E+10	1	-1E+10	1	-1E+10	1
4902554	94	C	09/15/2023	11:12	-133.239	47.785	0	230.90	0	5.1800	0	33.7510	0	26.667	0	228.839	0	-1e10	8	-1e10	8	-1E+10	1	-1E+10	1	-1E+10	1	-1E+10	1	-1E+10	1	-1E+10	1
4902554	94	C	09/15/2023	11:12	-133.239	47.785	0	232.30	0	5.1730	0	33.7520	0	26.668	0	230.226	0	-1e10	8	-1e10	8	-1E+10	1	-1E+10	1	-1E+10	1	-1E+10	1	-1E+10	1	-1E+10	1
4902554	94	C	09/15/2023	11:12	-133.239	47.785	0	233.30	0	5.1690	0	33.7520	0	26.669	0	231.216	0	-1e10	8	-1e10	8	-1E+10	1	-1E+10	1	-1E+10	1	-1E+10	1	-1E+10	1	-1E+10	1
4902554	94	C	09/15/2023	11:12	-133.239	47.785	0	234.20	0	5.1610	0	33.7530	0	26.670	0	232.108	0	-1e10	8	-1e10	8	-1E+10	1	-1E+10	1	-1E+10	1	-1E+10	1	-1E+10	1	-1E+10	1
4902554	94	C	09/15/2023	11:12	-133.239	47.785	0	235.10	0	5.1500	0	33.7540	0	26.673	0	232.999	0	-1e10	8	-1e10	8	-1E+10	1	-1E+10	1	-1E+10	1	-1E+10	1	-1E+10	1	-1E+10	1
4902554	94	C	09/15/2023	11:12	-133.239	47.785	0	236.00	0	5.1430	0	33.7560	0	26.675	0	233.891	0	-1e10	8	-1e10	8	-1E+10	1	-1E+10	1	-1E+10	1	-1E+10	1	-1E+10	1	-1E+10	1
4902554	94	C	09/15/2023	11:12	-133.239	47.785	0	236.90	0	5.1270	0	33.7560	0	26.677	0	234.782	0	-1e10	8	-1e10	8	-1E+10	1	-1E+10	1	-1E+10	1	-1E+10	1	-1E+10	1	-1E+10	1
4902554	94	C	09/15/2023	11:12	-133.239	47.785	0	237.80	0	5.1220	0	33.7560	0	26.677	0	235.673	0	-1e10	8	-1e10	8	-1E+10	1	-1E+10	1	-1E+10	1	-1E+10	1	-1E+10	1	-1E+10	1
4902554	94	C	09/15/2023	11:12	-133.239	47.785	0	238.70	0	5.1170	0	33.7570	0	26.679	0	236.565	0	-1e10	8	-1e10	8	-1E+10	1	-1E+10	1	-1E+10	1	-1E+10	1	-1E+10	1	-1E+10	1
4902554	94	C	09/15/2023	11:12	-133.239	47.785	0	239.60	0	5.1080	0	33.7580	0	26.681	0	237.456	0	-1e10	8	-1e10	8	-1E+10	1	-1E+10	1	-1E+10	1	-1E+10	1	-1E+10	1	-1E+10	1
4902554	94	C	09/15/2023	11:12	-133.239	47.785	0	240.60	0	5.0970	0	33.7600	0	26.683	0	238.447	0	-1e10	8	-1e10	8	-1E+10	1	-1E+10	1	-1E+10	1	-1E+10	1	-1E+10	1	-1E+10	1
4902554	94	C	09/15/2023	11:12	-133.239	47.785	0	241.90	0	5.0850	0	33.7600	0	26.685	0	239.734	0	-1e10	8	-1e10	8	-1E+10	1	-1E+10	1	-1E+10	1	-1E+10	1	-1E+10	1	-1E+10	1
4902554	94	C	09/15/2023	11:12	-133.239	47.785	0	243.30	0	5.0760	0	33.7610	0	26.687	0	241.121	0	-1e10	8	-1e10	8	-1E+10	1	-1E+10	1	-1E+10	1	-1E+10	1	-1E+10	1	-1E+10	1
4902554	94	C	09/15/2023	11:12	-133.239	47.785	0	244.20	0	5.0710	0	33.7610	0	26.687	0	242.012	0	-1e10	8	-1e10	8	-1E+10	1	-1E+10	1	-1E+10	1	-1E+10	1	-1E+10	1	-1E+10	1
4902554	94	C	09/15/2023	11:12	-133.239	47.785	0	245.20	0	5.0600	0	33.7620	0	26.689	0	243.003	0	-1e10	8	-1e10	8	-1E+10	1	-1E+10	1	-1E+10	1	-1E+10	1	-1E+10	1	-1E+10	1
4902554	94	C	09/15/2023	11:12	-133.239	47.785	0	246.10	0	5.0450	0	33.7630	0	26.692	0	243.894	0	-1e10	8	-1e10	8	-1E+10	1	-1E+10	1	-1E+10	1	-1E+10	1	-1E+10	1	-1E+10	1
4902554	94	C	09/15/2023	11:12	-133.239	47.785	0	247.00	0	5.0370	0	33.7640	0	26.693	0	244.786	0	-1e10	8	-1e10	8	-1E+10	1	-1E+10	1	-1E+10	1	-1E+10	1	-1E+10	1	-1E+10	1
4902554	94	C	09/15/2023	11:12	-133.239	47.785	0	247.90	0	5.0210	0	33.7650	0	26.696	0	245.677	0	-1e10	8	-1e10	8	-1E+10	1	-1E+10	1	-1E+10	1	-1E+10	1	-1E+10	1	-1E+10	1
4902554	94	C	09/15/2023	11:12	-133.239	47.785	0	248.90	0	4.9980	0	33.7670	0	26.700	0	246.668	0	-1e10	8	-1e10	8	-1E+10	1	-1E+10	1	-1E+10	1	-1E+10	1	-1E+10	1	-1E+10	1
4902554	94	C	09/15/2023	11:12	-133.239	47.785	0	249.80	0	4.9820	0	33.7680	0	26.703	0	247.559	0	-1e10	8	-1e10	8	-1E+10	1	-1E+10	1	-1E+10	1	-1E+10	1	-1E+10	1	-1E+10	1
4902554	94	C	09/15/2023	11:12	-133.239	47.785	0	250.80	0	4.9750	0	33.7700	0	26.705	0	248.549	0	-1e10	8	-1e10	8	-1E+10	1	-1E+10	1	-1E+10	1	-1E+10	1	-1E+10	1	-1E+10	1
4902554	94	C	09/15/2023	11:12	-133.239	47.785	0	251.70	0	4.9700	0	33.7700	0	26.706	0	249.441	0	-1e10	8	-1e10	8	-1E+10	1	-1E+10	1	-1E+10	1	-1E+10	1	-1E+10	1	-1E+10	1
4902554	94	C	09/15/2023	11:12	-133.239	47.785	0	252.60	0	4.9670	0	33.7700	0	26.706	0	250.332	0	-1e10	8	-1e10	8	-1E+10	1	-1E+10	1	-1E+10	1	-1E+10	1	-1E+10	1	-1E+10	1
4902554	94	C	09/15/2023	11:12	-133.239	47.785	0	253.60	0	4.9500	0	33.7730	0	26.710	0	251.323	0	-1e10	8	-1e10	8	-1E+10	1	-1E+10	1	-1E+10	1	-1E+10	1	-1E+10	1	-1E+10	1
4902554	94	C	09/15/2023	11:12	-133.239	47.785	0	254.50	0	4.9340	0	33.7730	0	26.712	0	252.214	0	-1e10	8	-1e10	8	-1E+10	1	-1E+10	1	-1E+10	1	-1E+10	1	-1E+10	1	-1E+10	1
4902554	94	C	09/15/2023	11:12	-133.239	47.785	0	255.90	0	4.9130	0	33.7750	0	26.716	0	253.600	0	-1e10	8	-1e10	8	-1E+10	1	-1E+10	1	-1E+10	1	-1E+10	1	-1E+10	1	-1E+10	1
4902554	94	C	09/15/2023	11:12	-133.239	47.785	0	257.30	0	4.8930	0	33.7760	0	26.719	0	254.987	0	-1e10	8	-1e10	8	-1E+10	1	-1E+10	1	-1E+10	1	-1E+10	1	-1E+10	1	-1E+10	1
4902554	94	C	09/15/2023	11:12	-133.239	47.785	0	258.30	0	4.8920	0	33.7760	0	26.719	0	255.977	0	-1e10	8	-1e10	8	-1E+10	1	-1E+10	1	-1E+10	1	-1E+10	1	-1E+10	1	-1E+10	1
4902554	94	C	09/15/2023	11:12	-133.239	47.785	0	259.20	0	4.8790	0	33.7800	0	26.724	0	256.869	0	-1e10	8	-1e10	8	-1E+10	1	-1E+10	1	-1E+10	1	-1E+10	1	-1E+10	1	-1E+10	1
4902554	94	C	09/15/2023	11:12	-133.239	47.785	0	260.10	0	4.8760	0	33.7810	0	26.725	0	257.760	0	-1e10	8	-1e10	8	-1E+10	1	-1E+10	1	-1E+10	1	-1E+10	1	-1E+10	1	-1E+10	1
4902554	94	C	09/15/2023	11:12	-133.239	47.785	0	261.00	0	4.8710	0	33.7810	0	26.726	0	258.651	0	-1e10	8	-1e10	8	-1E+10	1	-1E+10	1	-1E+10	1	-1E+10	1	-1E+10	1	-1E+10	1
4902554	94	C	09/15/2023	11:12	-133.239	47.785	0	262.00	0	4.8690	0	33.7830	0	26.728	0	259.642	0	-1e10	8	-1e10	8	-1E+10	1	-1E+10	1	-1E+10	1	-1E+10	1	-1E+10	1	-1E+10	1
4902554	94	C	09/15/2023	11:12	-133.239	47.785	0	262.90	0	4.8630	0	33.7830	0	26.728	0	260.533	0	-1e10	8	-1e10	8	-1E+10	1	-1E+10	1	-1E+10	1	-1E+10	1	-1E+10	1	-1E+10	1
4902554	94	C	09/15/2023	11:12	-133.239	47.785	0	263.80	0	4.8590	0	33.7830	0	26.729	0	261.425	0	-1e10	8	-1e10	8	-1E+10	1	-1E+10	1	-1E+10	1	-1E+10	1	-1E+10	1	-1E+10	1
4902554	94	C	09/15/2023	11:12	-133.239	47.785	0	264.80	0	4.8520	0	33.7840	0	26.730	0	262.415	0	-1e10	8	-1e10	8	-1E+10	1	-1E+10	1	-1E+10	1	-1E+10	1	-1E+10	1	-1E+10	1
4902554	94	C	09/15/2023	11:12	-133.239	47.785	0	265.70	0	4.8530	0	33.7850	0	26.731	0	263.306	0	-1e10	8	-1e10	8	-1E+10	1	-1E+10	1	-1E+10	1	-1E+10	1	-1E+10	1	-1E+10	1
4902554	94	C	09/15/2023	11:12	-133.239	47.785	0	266.70	0	4.8460	0	33.7860	0	26.733	0	264.297	0	-1e10	8	-1e10	8	-1E+10	1	-1E+10	1	-1E+10	1	-1E+10	1	-1E+10	1	-1E+10	1
4902554	94	C	09/15/2023	11:12	-133.239	47.785	0	267.60	0	4.8410	0	33.7860	0	26.733	0	265.188	0	-1e10	8	-1e10	8	-1E+10	1	-1E+10	1	-1E+10	1	-1E+10	1	-1E+10	1	-1E+10	1
4902554	94	C	09/15/2023	11:12	-133.239	47.785	0	268.60	0	4.8360	0	33.7870	0	26.734	0	266.178	0	-1e10	8	-1e10	8	-1E+10	1	-1E+10	1	-1E+10	1	-1E+10	1	-1E+10	1	-1E+10	1
4902554	94	C	09/15/2023	11:12	-133.239	47.785	0	269.50	0	4.8300	0	33.7870	0	26.735	0	267.070	0	-1e10	8	-1e10	8	-1E+10	1	-1E+10	1	-1E+10	1	-1E+10	1	-1E+10	1	-1E+10	1
4902554	94	C	09/15/2023	11:12	-133.239	47.785	0	270.90	0	4.8230	0	33.7880	0	26.737	0	268.456	0	-1e10	8	-1e10	8	-1E+10	1	-1E+10	1	-1E+10	1	-1E+10	1	-1E+10	1	-1E+10	1
4902554	94	C	09/15/2023	11:12	-133.239	47.785	0	272.40	0	4.8170	0	33.7890	0	26.738	0	269.941	0	-1e10	8	-1e10	8	-1E+10	1	-1E+10	1	-1E+10	1	-1E+10	1	-1E+10	1	-1E+10	1
4902554	94	C	09/15/2023	11:12	-133.239	47.785	0	273.40	0	4.8060	0	33.7900	0	26.740	0	270.932	0	-1e10	8	-1e10	8	-1E+10	1	-1E+10	1	-1E+10	1	-1E+10	1	-1E+10	1	-1E+10	1
4902554	94	C	09/15/2023	11:12	-133.239	47.785	0	274.40	0	4.8010	0	33.7910	0	26.742	0	271.922	0	-1e10	8	-1e10	8	-1E+10	1	-1E+10	1	-1E+10	1	-1E+10	1	-1E+10	1	-1E+10	1
4902554	94	C	09/15/2023	11:12	-133.239	47.785	0	275.30	0	4.7970	0	33.7920	0	26.743	0	272.813	0	-1e10	8	-1e10	8	-1E+10	1	-1E+10	1	-1E+10	1	-1E+10	1	-1E+10	1	-1E+10	1
4902554	94	C	09/15/2023	11:12	-133.239	47.785	0	276.30	0	4.7870	0	33.7940	0	26.745	0	273.804	0	-1e10	8	-1e10	8	-1E+10	1	-1E+10	1	-1E+10	1	-1E+10	1	-1E+10	1	-1E+10	1
4902554	94	C	09/15/2023	11:12	-133.239	47.785	0	277.30	0	4.7810	0	33.7940	0	26.746	0	274.794	0	-1e10	8	-1e10	8	-1E+10	1	-1E+10	1	-1E+10	1	-1E+10	1	-1E+10	1	-1E+10	1
4902554	94	C	09/15/2023	11:12	-133.239	47.785	0	278.30	0	4.7730	0	33.7950	0	26.748	0	275.784	0	-1e10	8	-1e10	8	-1E+10	1	-1E+10	1	-1E+10	1	-1E+10	1	-1E+10	1	-1E+10	1
4902554	94	C	09/15/2023	11:12	-133.239	47.785	0	279.30	0	4.7580	0	33.7970	0	26.751	0	276.775	0	-1e10	8	-1e10	8	-1E+10	1	-1E+10	1	-1E+10	1	-1E+10	1	-1E+10	1	-1E+10	1
4902554	94	C	09/15/2023	11:12	-133.239	47.785	0	280.30	0	4.7530	0	33.7980	0	26.752	0	277.765	0	-1e10	8	-1e10	8	-1E+10	1	-1E+10	1	-1E+10	1	-1E+10	1	-1E+10	1	-1E+10	1
4902554	94	C	09/15/2023	11:12	-133.239	47.785	0	281.30	0	4.7500	0	33.7980	0	26.753	0	278.755	0	-1e10	8	-1e10	8	-1E+10	1	-1E+10	1	-1E+10	1	-1E+10	1	-1E+10	1	-1E+10	1
4902554	94	C	09/15/2023	11:12	-133.239	47.785	0	282.30	0	4.7470	0	33.7980	0	26.753	0	279.745	0	-1e10	8	-1e10	8	-1E+10	1	-1E+10	1	-1E+10	1	-1E+10	1	-1E+10	1	-1E+10	1
4902554	94	C	09/15/2023	11:12	-133.239	47.785	0	283.30	0	4.7450	0	33.7980	0	26.753	0	280.736	0	-1e10	8	-1e10	8	-1E+10	1	-1E+10	1	-1E+10	1	-1E+10	1	-1E+10	1	-1E+10	1
4902554	94	C	09/15/2023	11:12	-133.239	47.785	0	284.40	0	4.7430	0	33.7990	0	26.754	0	281.825	0	-1e10	8	-1e10	8	-1E+10	1	-1E+10	1	-1E+10	1	-1E+10	1	-1E+10	1	-1E+10	1
4902554	94	C	09/15/2023	11:12	-133.239	47.785	0	285.40	0	4.7400	0	33.7990	0	26.755	0	282.815	0	-1e10	8	-1e10	8	-1E+10	1	-1E+10	1	-1E+10	1	-1E+10	1	-1E+10	1	-1E+10	1
4902554	94	C	09/15/2023	11:12	-133.239	47.785	0	286.40	0	4.7310	0	33.8000	0	26.757	0	283.806	0	-1e10	8	-1e10	8	-1E+10	1	-1E+10	1	-1E+10	1	-1E+10	1	-1E+10	1	-1E+10	1
4902554	94	C	09/15/2023	11:12	-133.239	47.785	0	287.40	0	4.7280	0	33.8000	0	26.757	0	284.796	0	-1e10	8	-1e10	8	-1E+10	1	-1E+10	1	-1E+10	1	-1E+10	1	-1E+10	1	-1E+10	1
4902554	94	C	09/15/2023	11:12	-133.239	47.785	0	288.40	0	4.7260	0	33.8020	0	26.759	0	285.786	0	-1e10	8	-1e10	8	-1E+10	1	-1E+10	1	-1E+10	1	-1E+10	1	-1E+10	1	-1E+10	1
4902554	94	C	09/15/2023	11:12	-133.239	47.785	0	289.50	0	4.7230	0	33.8040	0	26.761	0	286.875	0	-1e10	8	-1e10	8	-1E+10	1	-1E+10	1	-1E+10	1	-1E+10	1	-1E+10	1	-1E+10	1
4902554	94	C	09/15/2023	11:12	-133.239	47.785	0	290.50	0	4.7200	0	33.8040	0	26.761	0	287.866	0	-1e10	8	-1e10	8	-1E+10	1	-1E+10	1	-1E+10	1	-1E+10	1	-1E+10	1	-1E+10	1
4902554	94	C	09/15/2023	11:12	-133.239	47.785	0	291.50	0	4.7160	0	33.8050	0	26.762	0	288.856	0	-1e10	8	-1e10	8	-1E+10	1	-1E+10	1	-1E+10	1	-1E+10	1	-1E+10	1	-1E+10	1
4902554	94	C	09/15/2023	11:12	-133.239	47.785	0	292.60	0	4.7050	0	33.8080	0	26.766	0	289.945	0	-1e10	8	-1e10	8	-1E+10	1	-1E+10	1	-1E+10	1	-1E+10	1	-1E+10	1	-1E+10	1
4902554	94	C	09/15/2023	11:12	-133.239	47.785	0	293.60	0	4.7010	0	33.8090	0	26.767	0	290.935	0	-1e10	8	-1e10	8	-1E+10	1	-1E+10	1	-1E+10	1	-1E+10	1	-1E+10	1	-1E+10	1
4902554	94	C	09/15/2023	11:12	-133.239	47.785	0	294.60	0	4.6990	0	33.8090	0	26.767	0	291.925	0	-1e10	8	-1e10	8	-1E+10	1	-1E+10	1	-1E+10	1	-1E+10	1	-1E+10	1	-1E+10	1
4902554	94	C	09/15/2023	11:12	-133.239	47.785	0	295.70	0	4.6920	0	33.8110	0	26.770	0	293.015	0	-1e10	8	-1e10	8	-1E+10	1	-1E+10	1	-1E+10	1	-1E+10	1	-1E+10	1	-1E+10	1
4902554	94	C	09/15/2023	11:12	-133.239	47.785	0	296.70	0	4.6810	0	33.8120	0	26.772	0	294.005	0	-1e10	8	-1e10	8	-1E+10	1	-1E+10	1	-1E+10	1	-1E+10	1	-1E+10	1	-1E+10	1
4902554	94	C	09/15/2023	11:12	-133.239	47.785	0	297.80	0	4.6740	0	33.8120	0	26.772	0	295.094	0	-1e10	8	-1e10	8	-1E+10	1	-1E+10	1	-1E+10	1	-1E+10	1	-1E+10	1	-1E+10	1
4902554	94	C	09/15/2023	11:12	-133.239	47.785	0	298.80	0	4.6660	0	33.8140	0	26.775	0	296.084	0	-1e10	8	-1e10	8	-1E+10	1	-1E+10	1	-1E+10	1	-1E+10	1	-1E+10	1	-1E+10	1
4902554	94	C	09/15/2023	11:12	-133.239	47.785	0	299.80	0	4.6560	0	33.8150	0	26.777	0	297.075	0	-1e10	8	-1e10	8	-1E+10	1	-1E+10	1	-1E+10	1	-1E+10	1	-1E+10	1	-1E+10	1
4902554	94	C	09/15/2023	11:12	-133.239	47.785	0	300.80	0	4.6460	0	33.8170	0	26.779	0	298.065	0	-1e10	8	-1e10	8	-1E+10	1	-1E+10	1	-1E+10	1	-1E+10	1	-1E+10	1	-1E+10	1
4902554	94	C	09/15/2023	11:12	-133.239	47.785	0	301.90	0	4.6450	0	33.8170	0	26.780	0	299.154	0	-1e10	8	-1e10	8	-1E+10	1	-1E+10	1	-1E+10	1	-1E+10	1	-1E+10	1	-1E+10	1
4902554	94	C	09/15/2023	11:12	-133.239	47.785	0	302.90	0	4.6390	0	33.8170	0	26.780	0	300.144	0	-1e10	8	-1e10	8	-1E+10	1	-1E+10	1	-1E+10	1	-1E+10	1	-1E+10	1	-1E+10	1
4902554	94	C	09/15/2023	11:12	-133.239	47.785	0	303.90	0	4.6370	0	33.8170	0	26.780	0	301.134	0	-1e10	8	-1e10	8	-1E+10	1	-1E+10	1	-1E+10	1	-1E+10	1	-1E+10	1	-1E+10	1
4902554	94	C	09/15/2023	11:12	-133.239	47.785	0	305.00	0	4.6350	0	33.8170	0	26.781	0	302.223	0	-1e10	8	-1e10	8	-1E+10	1	-1E+10	1	-1E+10	1	-1E+10	1	-1E+10	1	-1E+10	1
4902554	94	C	09/15/2023	11:12	-133.239	47.785	0	306.00	0	4.6290	0	33.8170	0	26.781	0	303.214	0	-1e10	8	-1e10	8	-1E+10	1	-1E+10	1	-1E+10	1	-1E+10	1	-1E+10	1	-1E+10	1
4902554	94	C	09/15/2023	11:12	-133.239	47.785	0	307.10	0	4.6150	0	33.8180	0	26.784	0	304.303	0	-1e10	8	-1e10	8	-1E+10	1	-1E+10	1	-1E+10	1	-1E+10	1	-1E+10	1	-1E+10	1
4902554	94	C	09/15/2023	11:12	-133.239	47.785	0	308.10	0	4.6000	0	33.8210	0	26.788	0	305.293	0	-1e10	8	-1e10	8	-1E+10	1	-1E+10	1	-1E+10	1	-1E+10	1	-1E+10	1	-1E+10	1
4902554	94	C	09/15/2023	11:12	-133.239	47.785	0	309.20	0	4.5860	0	33.8220	0	26.790	0	306.382	0	-1e10	8	-1e10	8	-1E+10	1	-1E+10	1	-1E+10	1	-1E+10	1	-1E+10	1	-1E+10	1
4902554	94	C	09/15/2023	11:12	-133.239	47.785	0	310.20	0	4.5850	0	33.8220	0	26.790	0	307.372	0	-1e10	8	-1e10	8	-1E+10	1	-1E+10	1	-1E+10	1	-1E+10	1	-1E+10	1	-1E+10	1
4902554	94	C	09/15/2023	11:12	-133.239	47.785	0	311.30	0	4.5860	0	33.8230	0	26.791	0	308.461	0	-1e10	8	-1e10	8	-1E+10	1	-1E+10	1	-1E+10	1	-1E+10	1	-1E+10	1	-1E+10	1
4902554	94	C	09/15/2023	11:12	-133.239	47.785	0	312.30	0	4.5780	0	33.8260	0	26.794	0	309.452	0	-1e10	8	-1e10	8	-1E+10	1	-1E+10	1	-1E+10	1	-1E+10	1	-1E+10	1	-1E+10	1
4902554	94	C	09/15/2023	11:12	-133.239	47.785	0	313.30	0	4.5660	0	33.8290	0	26.798	0	310.442	0	-1e10	8	-1e10	8	-1E+10	1	-1E+10	1	-1E+10	1	-1E+10	1	-1E+10	1	-1E+10	1
4902554	94	C	09/15/2023	11:12	-133.239	47.785	0	314.40	0	4.5520	0	33.8320	0	26.802	0	311.531	0	-1e10	8	-1e10	8	-1E+10	1	-1E+10	1	-1E+10	1	-1E+10	1	-1E+10	1	-1E+10	1
4902554	94	C	09/15/2023	11:12	-133.239	47.785	0	315.40	0	4.5460	0	33.8300	0	26.801	0	312.521	0	-1e10	8	-1e10	8	-1E+10	1	-1E+10	1	-1E+10	1	-1E+10	1	-1E+10	1	-1E+10	1
4902554	94	C	09/15/2023	11:12	-133.239	47.785	0	316.50	0	4.5410	0	33.8330	0	26.804	0	313.610	0	-1e10	8	-1e10	8	-1E+10	1	-1E+10	1	-1E+10	1	-1E+10	1	-1E+10	1	-1E+10	1
4902554	94	C	09/15/2023	11:12	-133.239	47.785	0	317.50	0	4.5270	0	33.8350	0	26.807	0	314.600	0	-1e10	8	-1e10	8	-1E+10	1	-1E+10	1	-1E+10	1	-1E+10	1	-1E+10	1	-1E+10	1
4902554	94	C	09/15/2023	11:12	-133.239	47.785	0	318.50	0	4.5230	0	33.8350	0	26.807	0	315.590	0	-1e10	8	-1e10	8	-1E+10	1	-1E+10	1	-1E+10	1	-1E+10	1	-1E+10	1	-1E+10	1
4902554	94	C	09/15/2023	11:12	-133.239	47.785	0	319.50	0	4.5210	0	33.8360	0	26.808	0	316.580	0	-1e10	8	-1e10	8	-1E+10	1	-1E+10	1	-1E+10	1	-1E+10	1	-1E+10	1	-1E+10	1
4902554	94	C	09/15/2023	11:12	-133.239	47.785	0	320.60	0	4.5190	0	33.8360	0	26.808	0	317.669	0	-1e10	8	-1e10	8	-1E+10	1	-1E+10	1	-1E+10	1	-1E+10	1	-1E+10	1	-1E+10	1
4902554	94	C	09/15/2023	11:12	-133.239	47.785	0	321.60	0	4.5190	0	33.8360	0	26.808	0	318.660	0	-1e10	8	-1e10	8	-1E+10	1	-1E+10	1	-1E+10	1	-1E+10	1	-1E+10	1	-1E+10	1
4902554	94	C	09/15/2023	11:12	-133.239	47.785	0	322.60	0	4.5180	0	33.8360	0	26.809	0	319.650	0	-1e10	8	-1e10	8	-1E+10	1	-1E+10	1	-1E+10	1	-1E+10	1	-1E+10	1	-1E+10	1
4902554	94	C	09/15/2023	11:12	-133.239	47.785	0	323.60	0	4.5160	0	33.8360	0	26.809	0	320.640	0	-1e10	8	-1e10	8	-1E+10	1	-1E+10	1	-1E+10	1	-1E+10	1	-1E+10	1	-1E+10	1
4902554	94	C	09/15/2023	11:12	-133.239	47.785	0	324.60	0	4.5110	0	33.8370	0	26.810	0	321.630	0	-1e10	8	-1e10	8	-1E+10	1	-1E+10	1	-1E+10	1	-1E+10	1	-1E+10	1	-1E+10	1
4902554	94	C	09/15/2023	11:12	-133.239	47.785	0	325.70	0	4.5020	0	33.8380	0	26.812	0	322.719	0	-1e10	8	-1e10	8	-1E+10	1	-1E+10	1	-1E+10	1	-1E+10	1	-1E+10	1	-1E+10	1
4902554	94	C	09/15/2023	11:12	-133.239	47.785	0	326.70	0	4.5000	0	33.8390	0	26.813	0	323.709	0	-1e10	8	-1e10	8	-1E+10	1	-1E+10	1	-1E+10	1	-1E+10	1	-1E+10	1	-1E+10	1
4902554	94	C	09/15/2023	11:12	-133.239	47.785	0	327.60	0	4.4990	0	33.8390	0	26.813	0	324.600	0	-1e10	8	-1e10	8	-1E+10	1	-1E+10	1	-1E+10	1	-1E+10	1	-1E+10	1	-1E+10	1
4902554	94	C	09/15/2023	11:12	-133.239	47.785	0	328.60	0	4.4950	0	33.8400	0	26.814	0	325.590	0	-1e10	8	-1e10	8	-1E+10	1	-1E+10	1	-1E+10	1	-1E+10	1	-1E+10	1	-1E+10	1
4902554	94	C	09/15/2023	11:12	-133.239	47.785	0	329.60	0	4.4860	0	33.8430	0	26.818	0	326.580	0	-1e10	8	-1e10	8	-1E+10	1	-1E+10	1	-1E+10	1	-1E+10	1	-1E+10	1	-1E+10	1
4902554	94	C	09/15/2023	11:12	-133.239	47.785	0	330.60	0	4.4850	0	33.8430	0	26.818	0	327.570	0	-1e10	8	-1e10	8	-1E+10	1	-1E+10	1	-1E+10	1	-1E+10	1	-1E+10	1	-1E+10	1
4902554	94	C	09/15/2023	11:12	-133.239	47.785	0	331.50	0	4.4780	0	33.8450	0	26.820	0	328.461	0	-1e10	8	-1e10	8	-1E+10	1	-1E+10	1	-1E+10	1	-1E+10	1	-1E+10	1	-1E+10	1
4902554	94	C	09/15/2023	11:12	-133.239	47.785	0	332.90	0	4.4710	0	33.8470	0	26.822	0	329.847	0	-1e10	8	-1e10	8	-1E+10	1	-1E+10	1	-1E+10	1	-1E+10	1	-1E+10	1	-1E+10	1
4902554	94	C	09/15/2023	11:12	-133.239	47.785	0	334.30	0	4.4680	0	33.8480	0	26.824	0	331.233	0	-1e10	8	-1e10	8	-1E+10	1	-1E+10	1	-1E+10	1	-1E+10	1	-1E+10	1	-1E+10	1
4902554	94	C	09/15/2023	11:12	-133.239	47.785	0	335.30	0	4.4670	0	33.8480	0	26.824	0	332.223	0	-1e10	8	-1e10	8	-1E+10	1	-1E+10	1	-1E+10	1	-1E+10	1	-1E+10	1	-1E+10	1
4902554	94	C	09/15/2023	11:12	-133.239	47.785	0	336.20	0	4.4570	0	33.8560	0	26.831	0	333.114	0	-1e10	8	-1e10	8	-1E+10	1	-1E+10	1	-1E+10	1	-1E+10	1	-1E+10	1	-1E+10	1
4902554	94	C	09/15/2023	11:12	-133.239	47.785	0	337.10	0	4.4520	0	33.8580	0	26.833	0	334.005	0	-1e10	8	-1e10	8	-1E+10	1	-1E+10	1	-1E+10	1	-1E+10	1	-1E+10	1	-1E+10	1
4902554	94	C	09/15/2023	11:12	-133.239	47.785	0	338.00	0	4.4500	0	33.8610	0	26.836	0	334.896	0	-1e10	8	-1e10	8	-1E+10	1	-1E+10	1	-1E+10	1	-1E+10	1	-1E+10	1	-1E+10	1
4902554	94	C	09/15/2023	11:12	-133.239	47.785	0	338.90	0	4.4330	0	33.8640	0	26.840	0	335.787	0	-1e10	8	-1e10	8	-1E+10	1	-1E+10	1	-1E+10	1	-1E+10	1	-1E+10	1	-1E+10	1
4902554	94	C	09/15/2023	11:12	-133.239	47.785	0	339.80	0	4.4300	0	33.8630	0	26.840	0	336.678	0	-1e10	8	-1e10	8	-1E+10	1	-1E+10	1	-1E+10	1	-1E+10	1	-1E+10	1	-1E+10	1
4902554	94	C	09/15/2023	11:12	-133.239	47.785	0	340.80	0	4.4270	0	33.8650	0	26.841	0	337.668	0	-1e10	8	-1e10	8	-1E+10	1	-1E+10	1	-1E+10	1	-1E+10	1	-1E+10	1	-1E+10	1
4902554	94	C	09/15/2023	11:12	-133.239	47.785	0	341.60	0	4.4210	0	33.8670	0	26.844	0	338.460	0	-1e10	8	-1e10	8	-1E+10	1	-1E+10	1	-1E+10	1	-1E+10	1	-1E+10	1	-1E+10	1
4902554	94	C	09/15/2023	11:12	-133.239	47.785	0	343.00	0	4.4190	0	33.8680	0	26.845	0	339.846	0	-1e10	8	-1e10	8	-1E+10	1	-1E+10	1	-1E+10	1	-1E+10	1	-1E+10	1	-1E+10	1
4902554	94	C	09/15/2023	11:12	-133.239	47.785	0	344.30	0	4.4160	0	33.8690	0	26.846	0	341.133	0	-1e10	8	-1e10	8	-1E+10	1	-1E+10	1	-1E+10	1	-1E+10	1	-1E+10	1	-1E+10	1
4902554	94	C	09/15/2023	11:12	-133.239	47.785	0	345.20	0	4.4150	0	33.8700	0	26.847	0	342.024	0	-1e10	8	-1e10	8	-1E+10	1	-1E+10	1	-1E+10	1	-1E+10	1	-1E+10	1	-1E+10	1
4902554	94	C	09/15/2023	11:12	-133.239	47.785	0	346.10	0	4.4070	0	33.8730	0	26.850	0	342.915	0	-1e10	8	-1e10	8	-1E+10	1	-1E+10	1	-1E+10	1	-1E+10	1	-1E+10	1	-1E+10	1
4902554	94	C	09/15/2023	11:12	-133.239	47.785	0	347.00	0	4.4050	0	33.8760	0	26.853	0	343.806	0	-1e10	8	-1e10	8	-1E+10	1	-1E+10	1	-1E+10	1	-1E+10	1	-1E+10	1	-1E+10	1
4902554	94	C	09/15/2023	11:12	-133.239	47.785	0	347.90	0	4.4020	0	33.8800	0	26.856	0	344.697	0	-1e10	8	-1e10	8	-1E+10	1	-1E+10	1	-1E+10	1	-1E+10	1	-1E+10	1	-1E+10	1
4902554	94	C	09/15/2023	11:12	-133.239	47.785	0	348.70	0	4.4010	0	33.8810	0	26.857	0	345.489	0	-1e10	8	-1e10	8	-1E+10	1	-1E+10	1	-1E+10	1	-1E+10	1	-1E+10	1	-1E+10	1
4902554	94	C	09/15/2023	11:12	-133.239	47.785	0	349.60	0	4.4090	0	33.8830	0	26.858	0	346.380	0	-1e10	8	-1e10	8	-1E+10	1	-1E+10	1	-1E+10	1	-1E+10	1	-1E+10	1	-1E+10	1
4902554	94	C	09/15/2023	11:12	-133.239	47.785	0	352.60	0	4.3900	0	33.8870	0	26.863	0	349.350	0	-1e10	8	-1e10	8	-1E+10	1	-1E+10	1	-1E+10	1	-1E+10	1	-1E+10	1	-1E+10	1
4902554	94	C	09/15/2023	11:12	-133.239	47.785	0	357.80	0	4.3720	0	33.8970	0	26.873	0	354.498	0	-1e10	8	-1e10	8	-1E+10	1	-1E+10	1	-1E+10	1	-1E+10	1	-1E+10	1	-1E+10	1
4902554	94	C	09/15/2023	11:12	-133.239	47.785	0	362.90	0	4.3530	0	33.9030	0	26.880	0	359.546	0	-1e10	8	-1e10	8	-1E+10	1	-1E+10	1	-1E+10	1	-1E+10	1	-1E+10	1	-1E+10	1
4902554	94	C	09/15/2023	11:12	-133.239	47.785	0	368.10	0	4.3410	0	33.9090	0	26.886	0	364.694	0	-1e10	8	-1e10	8	-1E+10	1	-1E+10	1	-1E+10	1	-1E+10	1	-1E+10	1	-1E+10	1
4902554	94	C	09/15/2023	11:12	-133.239	47.785	0	373.00	0	4.3200	0	33.9260	0	26.901	0	369.544	0	-1e10	8	-1e10	8	-1E+10	1	-1E+10	1	-1E+10	1	-1E+10	1	-1E+10	1	-1E+10	1
4902554	94	C	09/15/2023	11:12	-133.239	47.785	0	378.00	0	4.2990	0	33.9370	0	26.912	0	374.493	0	-1e10	8	-1e10	8	-1E+10	1	-1E+10	1	-1E+10	1	-1E+10	1	-1E+10	1	-1E+10	1
4902554	94	C	09/15/2023	11:12	-133.239	47.785	0	383.20	0	4.2840	0	33.9450	0	26.920	0	379.640	0	-1e10	8	-1e10	8	-1E+10	1	-1E+10	1	-1E+10	1	-1E+10	1	-1E+10	1	-1E+10	1
4902554	94	C	09/15/2023	11:12	-133.239	47.785	0	388.00	0	4.2760	0	33.9490	0	26.925	0	384.391	0	-1e10	8	-1e10	8	-1E+10	1	-1E+10	1	-1E+10	1	-1E+10	1	-1E+10	1	-1E+10	1
4902554	94	C	09/15/2023	11:12	-133.239	47.785	0	392.90	0	4.2700	0	33.9530	0	26.928	0	389.241	0	-1e10	8	-1e10	8	-1E+10	1	-1E+10	1	-1E+10	1	-1E+10	1	-1E+10	1	-1E+10	1
4902554	94	C	09/15/2023	11:12	-133.239	47.785	0	397.90	0	4.2680	0	33.9580	0	26.933	0	394.189	0	-1e10	8	-1e10	8	-1E+10	1	-1E+10	1	-1E+10	1	-1E+10	1	-1E+10	1	-1E+10	1
4902554	94	C	09/15/2023	11:12	-133.239	47.785	0	402.60	0	4.2670	0	33.9630	0	26.937	0	398.841	0	-1e10	8	-1e10	8	-1E+10	1	-1E+10	1	-1E+10	1	-1E+10	1	-1E+10	1	-1E+10	1
4902554	94	C	09/15/2023	11:12	-133.239	47.785	0	407.70	0	4.2610	0	33.9710	0	26.944	0	403.889	0	-1e10	8	-1e10	8	-1E+10	1	-1E+10	1	-1E+10	1	-1E+10	1	-1E+10	1	-1E+10	1
4902554	94	C	09/15/2023	11:12	-133.239	47.785	0	412.90	0	4.2410	0	33.9790	0	26.952	0	409.035	0	-1e10	8	-1e10	8	-1E+10	1	-1E+10	1	-1E+10	1	-1E+10	1	-1E+10	1	-1E+10	1
4902554	94	C	09/15/2023	11:12	-133.239	47.785	0	418.20	0	4.2370	0	33.9850	0	26.957	0	414.280	0	-1e10	8	-1e10	8	-1E+10	1	-1E+10	1	-1E+10	1	-1E+10	1	-1E+10	1	-1E+10	1
4902554	94	C	09/15/2023	11:12	-133.239	47.785	0	423.20	0	4.2250	0	33.9930	0	26.965	0	419.228	0	-1e10	8	-1e10	8	-1E+10	1	-1E+10	1	-1E+10	1	-1E+10	1	-1E+10	1	-1E+10	1
4902554	94	C	09/15/2023	11:12	-133.239	47.785	0	427.80	0	4.2140	0	33.9980	0	26.970	0	423.780	0	-1e10	8	-1e10	8	-1E+10	1	-1E+10	1	-1E+10	1	-1E+10	1	-1E+10	1	-1E+10	1
4902554	94	C	09/15/2023	11:12	-133.239	47.785	0	432.90	0	4.1960	0	34.0050	0	26.978	0	428.827	0	-1e10	8	-1e10	8	-1E+10	1	-1E+10	1	-1E+10	1	-1E+10	1	-1E+10	1	-1E+10	1
4902554	94	C	09/15/2023	11:12	-133.239	47.785	0	438.20	0	4.1790	0	34.0130	0	26.986	0	434.072	0	-1e10	8	-1e10	8	-1E+10	1	-1E+10	1	-1E+10	1	-1E+10	1	-1E+10	1	-1E+10	1
4902554	94	C	09/15/2023	11:12	-133.239	47.785	0	443.00	0	4.1650	0	34.0210	0	26.994	0	438.821	0	-1e10	8	-1e10	8	-1E+10	1	-1E+10	1	-1E+10	1	-1E+10	1	-1E+10	1	-1E+10	1
4902554	94	C	09/15/2023	11:12	-133.239	47.785	0	448.00	0	4.1580	0	34.0290	0	27.001	0	443.769	0	-1e10	8	-1e10	8	-1E+10	1	-1E+10	1	-1E+10	1	-1E+10	1	-1E+10	1	-1E+10	1
4902554	94	C	09/15/2023	11:12	-133.239	47.785	0	453.00	0	4.1640	0	34.0350	0	27.005	0	448.716	0	-1e10	8	-1e10	8	-1E+10	1	-1E+10	1	-1E+10	1	-1E+10	1	-1E+10	1	-1E+10	1
4902554	94	C	09/15/2023	11:12	-133.239	47.785	0	458.10	0	4.1660	0	34.0370	0	27.006	0	453.762	0	-1e10	8	-1e10	8	-1E+10	1	-1E+10	1	-1E+10	1	-1E+10	1	-1E+10	1	-1E+10	1
4902554	94	C	09/15/2023	11:12	-133.239	47.785	0	462.80	0	4.1630	0	34.0400	0	27.009	0	458.413	0	-1e10	8	-1e10	8	-1E+10	1	-1E+10	1	-1E+10	1	-1E+10	1	-1E+10	1	-1E+10	1
4902554	94	C	09/15/2023	11:12	-133.239	47.785	0	467.50	0	4.1570	0	34.0430	0	27.012	0	463.063	0	-1e10	8	-1e10	8	-1E+10	1	-1E+10	1	-1E+10	1	-1E+10	1	-1E+10	1	-1E+10	1
4902554	94	C	09/15/2023	11:12	-133.239	47.785	0	472.80	0	4.1470	0	34.0460	0	27.016	0	468.307	0	-1e10	8	-1e10	8	-1E+10	1	-1E+10	1	-1E+10	1	-1E+10	1	-1E+10	1	-1E+10	1
4902554	94	C	09/15/2023	11:12	-133.239	47.785	0	478.00	0	4.1390	0	34.0500	0	27.020	0	473.451	0	-1e10	8	-1e10	8	-1E+10	1	-1E+10	1	-1E+10	1	-1E+10	1	-1E+10	1	-1E+10	1
4902554	94	C	09/15/2023	11:12	-133.239	47.785	0	483.30	0	4.1370	0	34.0540	0	27.023	0	478.695	0	-1e10	8	-1e10	8	-1E+10	1	-1E+10	1	-1E+10	1	-1E+10	1	-1E+10	1	-1E+10	1
4902554	94	C	09/15/2023	11:12	-133.239	47.785	0	487.90	0	4.1360	0	34.0560	0	27.025	0	483.245	0	-1e10	8	-1e10	8	-1E+10	1	-1E+10	1	-1E+10	1	-1E+10	1	-1E+10	1	-1E+10	1
4902554	94	C	09/15/2023	11:12	-133.239	47.785	0	492.60	0	4.1340	0	34.0570	0	27.026	0	487.895	0	-1e10	8	-1e10	8	-1E+10	1	-1E+10	1	-1E+10	1	-1E+10	1	-1E+10	1	-1E+10	1
4902554	94	C	09/15/2023	11:12	-133.239	47.785	0	497.90	0	4.1260	0	34.0630	0	27.032	0	493.138	0	-1e10	8	-1e10	8	-1E+10	1	-1E+10	1	-1E+10	1	-1E+10	1	-1E+10	1	-1E+10	1
4902554	94	C	09/15/2023	11:12	-133.239	47.785	0	503.10	0	4.1180	0	34.0710	0	27.039	0	498.282	0	-1e10	8	-1e10	8	-1E+10	1	-1E+10	1	-1E+10	1	-1E+10	1	-1E+10	1	-1E+10	1
4902554	94	C	09/15/2023	11:12	-133.239	47.785	0	508.30	0	4.1100	0	34.0790	0	27.046	0	503.426	0	-1e10	8	-1e10	8	-1E+10	1	-1E+10	1	-1E+10	1	-1E+10	1	-1E+10	1	-1E+10	1
4902554	94	C	09/15/2023	11:12	-133.239	47.785	0	513.00	0	4.1010	0	34.0840	0	27.051	0	508.075	0	-1e10	8	-1e10	8	-1E+10	1	-1E+10	1	-1E+10	1	-1E+10	1	-1E+10	1	-1E+10	1
4902554	94	C	09/15/2023	11:12	-133.239	47.785	0	517.60	0	4.0910	0	34.0870	0	27.054	0	512.625	0	-1e10	8	-1e10	8	-1E+10	1	-1E+10	1	-1E+10	1	-1E+10	1	-1E+10	1	-1E+10	1
4902554	94	C	09/15/2023	11:12	-133.239	47.785	0	522.80	0	4.0780	0	34.0910	0	27.059	0	517.769	0	-1e10	8	-1e10	8	-1E+10	1	-1E+10	1	-1E+10	1	-1E+10	1	-1E+10	1	-1E+10	1
4902554	94	C	09/15/2023	11:12	-133.239	47.785	0	528.20	0	4.0760	0	34.0930	0	27.061	0	523.110	0	-1e10	8	-1e10	8	-1E+10	1	-1E+10	1	-1E+10	1	-1E+10	1	-1E+10	1	-1E+10	1
4902554	94	C	09/15/2023	11:12	-133.239	47.785	0	533.20	0	4.0670	0	34.0980	0	27.066	0	528.056	0	-1e10	8	-1e10	8	-1E+10	1	-1E+10	1	-1E+10	1	-1E+10	1	-1E+10	1	-1E+10	1
4902554	94	C	09/15/2023	11:12	-133.239	47.785	0	538.00	0	4.0600	0	34.1030	0	27.071	0	532.803	0	-1e10	8	-1e10	8	-1E+10	1	-1E+10	1	-1E+10	1	-1E+10	1	-1E+10	1	-1E+10	1
4902554	94	C	09/15/2023	11:12	-133.239	47.785	0	542.80	0	4.0560	0	34.1050	0	27.073	0	537.551	0	-1e10	8	-1e10	8	-1E+10	1	-1E+10	1	-1E+10	1	-1E+10	1	-1E+10	1	-1E+10	1
4902554	94	C	09/15/2023	11:12	-133.239	47.785	0	547.70	0	4.0500	0	34.1080	0	27.076	0	542.397	0	-1e10	8	-1e10	8	-1E+10	1	-1E+10	1	-1E+10	1	-1E+10	1	-1E+10	1	-1E+10	1
4902554	94	C	09/15/2023	11:12	-133.239	47.785	0	552.50	0	4.0300	0	34.1130	0	27.082	0	547.144	0	-1e10	8	-1e10	8	-1E+10	1	-1E+10	1	-1E+10	1	-1E+10	1	-1E+10	1	-1E+10	1
4902554	94	C	09/15/2023	11:12	-133.239	47.785	0	557.50	0	4.0140	0	34.1170	0	27.086	0	552.089	0	-1e10	8	-1e10	8	-1E+10	1	-1E+10	1	-1E+10	1	-1E+10	1	-1E+10	1	-1E+10	1
4902554	94	C	09/15/2023	11:12	-133.239	47.785	0	562.60	0	4.0000	0	34.1230	0	27.093	0	557.133	0	-1e10	8	-1e10	8	-1E+10	1	-1E+10	1	-1E+10	1	-1E+10	1	-1E+10	1	-1E+10	1
4902554	94	C	09/15/2023	11:12	-133.239	47.785	0	567.70	0	3.9780	0	34.1280	0	27.099	0	562.176	0	-1e10	8	-1e10	8	-1E+10	1	-1E+10	1	-1E+10	1	-1E+10	1	-1E+10	1	-1E+10	1
4902554	94	C	09/15/2023	11:12	-133.239	47.785	0	572.90	0	3.9680	0	34.1330	0	27.104	0	567.319	0	-1e10	8	-1e10	8	-1E+10	1	-1E+10	1	-1E+10	1	-1E+10	1	-1E+10	1	-1E+10	1
4902554	94	C	09/15/2023	11:12	-133.239	47.785	0	578.10	0	3.9650	0	34.1350	0	27.106	0	572.461	0	-1e10	8	-1e10	8	-1E+10	1	-1E+10	1	-1E+10	1	-1E+10	1	-1E+10	1	-1E+10	1
4902554	94	C	09/15/2023	11:12	-133.239	47.785	0	583.00	0	3.9550	0	34.1390	0	27.110	0	577.306	0	-1e10	8	-1e10	8	-1E+10	1	-1E+10	1	-1E+10	1	-1E+10	1	-1E+10	1	-1E+10	1
4902554	94	C	09/15/2023	11:12	-133.239	47.785	0	587.90	0	3.9480	0	34.1420	0	27.113	0	582.152	0	-1e10	8	-1e10	8	-1E+10	1	-1E+10	1	-1E+10	1	-1E+10	1	-1E+10	1	-1E+10	1
4902554	94	C	09/15/2023	11:12	-133.239	47.785	0	593.00	0	3.9390	0	34.1450	0	27.117	0	587.194	0	-1e10	8	-1e10	8	-1E+10	1	-1E+10	1	-1E+10	1	-1E+10	1	-1E+10	1	-1E+10	1
4902554	94	C	09/15/2023	11:12	-133.239	47.785	0	598.00	0	3.9280	0	34.1490	0	27.121	0	592.138	0	-1e10	8	-1e10	8	-1E+10	1	-1E+10	1	-1E+10	1	-1E+10	1	-1E+10	1	-1E+10	1
4902554	94	C	09/15/2023	11:12	-133.239	47.785	0	603.10	0	3.9160	0	34.1530	0	27.125	0	597.181	0	-1e10	8	-1e10	8	-1E+10	1	-1E+10	1	-1E+10	1	-1E+10	1	-1E+10	1	-1E+10	1
4902554	94	C	09/15/2023	11:12	-133.239	47.785	0	607.80	0	3.9050	0	34.1580	0	27.131	0	601.828	0	-1e10	8	-1e10	8	-1E+10	1	-1E+10	1	-1E+10	1	-1E+10	1	-1E+10	1	-1E+10	1
4902554	94	C	09/15/2023	11:12	-133.239	47.785	0	612.60	0	3.8930	0	34.1620	0	27.135	0	606.574	0	-1e10	8	-1e10	8	-1E+10	1	-1E+10	1	-1E+10	1	-1E+10	1	-1E+10	1	-1E+10	1
4902554	94	C	09/15/2023	11:12	-133.239	47.785	0	617.80	0	3.8780	0	34.1680	0	27.141	0	611.715	0	-1e10	8	-1e10	8	-1E+10	1	-1E+10	1	-1E+10	1	-1E+10	1	-1E+10	1	-1E+10	1
4902554	94	C	09/15/2023	11:12	-133.239	47.785	0	623.00	0	3.8650	0	34.1730	0	27.147	0	616.856	0	-1e10	8	-1e10	8	-1E+10	1	-1E+10	1	-1E+10	1	-1E+10	1	-1E+10	1	-1E+10	1
4902554	94	C	09/15/2023	11:12	-133.239	47.785	0	627.70	0	3.8570	0	34.1750	0	27.149	0	621.503	0	-1e10	8	-1e10	8	-1E+10	1	-1E+10	1	-1E+10	1	-1E+10	1	-1E+10	1	-1E+10	1
4902554	94	C	09/15/2023	11:12	-133.239	47.785	0	632.90	0	3.8490	0	34.1790	0	27.153	0	626.644	0	-1e10	8	-1e10	8	-1E+10	1	-1E+10	1	-1E+10	1	-1E+10	1	-1E+10	1	-1E+10	1
4902554	94	C	09/15/2023	11:12	-133.239	47.785	0	638.10	0	3.8420	0	34.1800	0	27.155	0	631.784	0	-1e10	8	-1e10	8	-1E+10	1	-1E+10	1	-1E+10	1	-1E+10	1	-1E+10	1	-1E+10	1
4902554	94	C	09/15/2023	11:12	-133.239	47.785	0	642.90	0	3.8380	0	34.1810	0	27.156	0	636.530	0	-1e10	8	-1e10	8	-1E+10	1	-1E+10	1	-1E+10	1	-1E+10	1	-1E+10	1	-1E+10	1
4902554	94	C	09/15/2023	11:12	-133.239	47.785	0	647.60	0	3.8270	0	34.1830	0	27.159	0	641.176	0	-1e10	8	-1e10	8	-1E+10	1	-1E+10	1	-1E+10	1	-1E+10	1	-1E+10	1	-1E+10	1
4902554	94	C	09/15/2023	11:12	-133.239	47.785	0	652.80	0	3.8060	0	34.1860	0	27.163	0	646.316	0	-1e10	8	-1e10	8	-1E+10	1	-1E+10	1	-1E+10	1	-1E+10	1	-1E+10	1	-1E+10	1
4902554	94	C	09/15/2023	11:12	-133.239	47.785	0	657.90	0	3.7870	0	34.1890	0	27.167	0	651.358	0	-1e10	8	-1e10	8	-1E+10	1	-1E+10	1	-1E+10	1	-1E+10	1	-1E+10	1	-1E+10	1
4902554	94	C	09/15/2023	11:12	-133.239	47.785	0	662.90	0	3.7850	0	34.1910	0	27.169	0	656.300	0	-1e10	8	-1e10	8	-1E+10	1	-1E+10	1	-1E+10	1	-1E+10	1	-1E+10	1	-1E+10	1
4902554	94	C	09/15/2023	11:12	-133.239	47.785	0	668.00	0	3.7800	0	34.1940	0	27.172	0	661.341	0	-1e10	8	-1e10	8	-1E+10	1	-1E+10	1	-1E+10	1	-1E+10	1	-1E+10	1	-1E+10	1
4902554	94	C	09/15/2023	11:12	-133.239	47.785	0	672.90	0	3.7600	0	34.1950	0	27.175	0	666.184	0	-1e10	8	-1e10	8	-1E+10	1	-1E+10	1	-1E+10	1	-1E+10	1	-1E+10	1	-1E+10	1
4902554	94	C	09/15/2023	11:12	-133.239	47.785	0	677.90	0	3.7470	0	34.1980	0	27.179	0	671.127	0	-1e10	8	-1e10	8	-1E+10	1	-1E+10	1	-1E+10	1	-1E+10	1	-1E+10	1	-1E+10	1
4902554	94	C	09/15/2023	11:12	-133.239	47.785	0	682.80	0	3.7370	0	34.2000	0	27.181	0	675.970	0	-1e10	8	-1e10	8	-1E+10	1	-1E+10	1	-1E+10	1	-1E+10	1	-1E+10	1	-1E+10	1
4902554	94	C	09/15/2023	11:12	-133.239	47.785	0	687.80	0	3.7130	0	34.2060	0	27.188	0	680.911	0	-1e10	8	-1e10	8	-1E+10	1	-1E+10	1	-1E+10	1	-1E+10	1	-1E+10	1	-1E+10	1
4902554	94	C	09/15/2023	11:12	-133.239	47.785	0	692.80	0	3.7000	0	34.2110	0	27.194	0	685.853	0	-1e10	8	-1e10	8	-1E+10	1	-1E+10	1	-1E+10	1	-1E+10	1	-1E+10	1	-1E+10	1
4902554	94	C	09/15/2023	11:12	-133.239	47.785	0	697.80	0	3.6900	0	34.2140	0	27.197	0	690.795	0	-1e10	8	-1e10	8	-1E+10	1	-1E+10	1	-1E+10	1	-1E+10	1	-1E+10	1	-1E+10	1
4902554	94	C	09/15/2023	11:12	-133.239	47.785	0	702.90	0	3.6720	0	34.2180	0	27.202	0	695.835	0	-1e10	8	-1e10	8	-1E+10	1	-1E+10	1	-1E+10	1	-1E+10	1	-1E+10	1	-1E+10	1
4902554	94	C	09/15/2023	11:12	-133.239	47.785	0	707.90	0	3.6540	0	34.2230	0	27.208	0	700.776	0	-1e10	8	-1e10	8	-1E+10	1	-1E+10	1	-1E+10	1	-1E+10	1	-1E+10	1	-1E+10	1
4902554	94	C	09/15/2023	11:12	-133.239	47.785	0	712.70	0	3.6370	0	34.2290	0	27.214	0	705.520	0	-1e10	8	-1e10	8	-1E+10	1	-1E+10	1	-1E+10	1	-1E+10	1	-1E+10	1	-1E+10	1
4902554	94	C	09/15/2023	11:12	-133.239	47.785	0	717.50	0	3.6220	0	34.2330	0	27.219	0	710.263	0	-1e10	8	-1e10	8	-1E+10	1	-1E+10	1	-1E+10	1	-1E+10	1	-1E+10	1	-1E+10	1
4902554	94	C	09/15/2023	11:12	-133.239	47.785	0	722.50	0	3.6090	0	34.2360	0	27.223	0	715.204	0	-1e10	8	-1e10	8	-1E+10	1	-1E+10	1	-1E+10	1	-1E+10	1	-1E+10	1	-1E+10	1
4902554	94	C	09/15/2023	11:12	-133.239	47.785	0	727.60	0	3.5960	0	34.2390	0	27.226	0	720.244	0	-1e10	8	-1e10	8	-1E+10	1	-1E+10	1	-1E+10	1	-1E+10	1	-1E+10	1	-1E+10	1
4902554	94	C	09/15/2023	11:12	-133.239	47.785	0	732.70	0	3.5900	0	34.2410	0	27.229	0	725.284	0	-1e10	8	-1e10	8	-1E+10	1	-1E+10	1	-1E+10	1	-1E+10	1	-1E+10	1	-1E+10	1
4902554	94	C	09/15/2023	11:12	-133.239	47.785	0	738.00	0	3.5800	0	34.2440	0	27.232	0	730.521	0	-1e10	8	-1e10	8	-1E+10	1	-1E+10	1	-1E+10	1	-1E+10	1	-1E+10	1	-1E+10	1
4902554	94	C	09/15/2023	11:12	-133.239	47.785	0	743.20	0	3.5730	0	34.2460	0	27.234	0	735.659	0	-1e10	8	-1e10	8	-1E+10	1	-1E+10	1	-1E+10	1	-1E+10	1	-1E+10	1	-1E+10	1
4902554	94	C	09/15/2023	11:12	-133.239	47.785	0	747.90	0	3.5720	0	34.2460	0	27.234	0	740.303	0	-1e10	8	-1e10	8	-1E+10	1	-1E+10	1	-1E+10	1	-1E+10	1	-1E+10	1	-1E+10	1
4902554	94	C	09/15/2023	11:12	-133.239	47.785	0	752.90	0	3.5650	0	34.2480	0	27.237	0	745.243	0	-1e10	8	-1e10	8	-1E+10	1	-1E+10	1	-1E+10	1	-1E+10	1	-1E+10	1	-1E+10	1
4902554	94	C	09/15/2023	11:12	-133.239	47.785	0	757.90	0	3.5530	0	34.2510	0	27.240	0	750.183	0	-1e10	8	-1e10	8	-1E+10	1	-1E+10	1	-1E+10	1	-1E+10	1	-1E+10	1	-1E+10	1
4902554	94	C	09/15/2023	11:12	-133.239	47.785	0	763.00	0	3.5420	0	34.2530	0	27.243	0	755.222	0	-1e10	8	-1e10	8	-1E+10	1	-1E+10	1	-1E+10	1	-1E+10	1	-1E+10	1	-1E+10	1
4902554	94	C	09/15/2023	11:12	-133.239	47.785	0	767.80	0	3.5360	0	34.2550	0	27.245	0	759.965	0	-1e10	8	-1e10	8	-1E+10	1	-1E+10	1	-1E+10	1	-1E+10	1	-1E+10	1	-1E+10	1
4902554	94	C	09/15/2023	11:12	-133.239	47.785	0	772.70	0	3.5330	0	34.2560	0	27.246	0	764.806	0	-1e10	8	-1e10	8	-1E+10	1	-1E+10	1	-1E+10	1	-1E+10	1	-1E+10	1	-1E+10	1
4902554	94	C	09/15/2023	11:12	-133.239	47.785	0	778.00	0	3.5230	0	34.2580	0	27.249	0	770.042	0	-1e10	8	-1e10	8	-1E+10	1	-1E+10	1	-1E+10	1	-1E+10	1	-1E+10	1	-1E+10	1
4902554	94	C	09/15/2023	11:12	-133.239	47.785	0	783.00	0	3.5110	0	34.2610	0	27.253	0	774.981	0	-1e10	8	-1e10	8	-1E+10	1	-1E+10	1	-1E+10	1	-1E+10	1	-1E+10	1	-1E+10	1
4902554	94	C	09/15/2023	11:12	-133.239	47.785	0	788.10	0	3.5040	0	34.2630	0	27.255	0	780.019	0	-1e10	8	-1e10	8	-1E+10	1	-1E+10	1	-1E+10	1	-1E+10	1	-1E+10	1	-1E+10	1
4902554	94	C	09/15/2023	11:12	-133.239	47.785	0	793.20	0	3.5000	0	34.2640	0	27.256	0	785.058	0	-1e10	8	-1e10	8	-1E+10	1	-1E+10	1	-1E+10	1	-1E+10	1	-1E+10	1	-1E+10	1
4902554	94	C	09/15/2023	11:12	-133.239	47.785	0	798.00	0	3.4960	0	34.2650	0	27.257	0	789.799	0	-1e10	8	-1e10	8	-1E+10	1	-1E+10	1	-1E+10	1	-1E+10	1	-1E+10	1	-1E+10	1
4902554	94	C	09/15/2023	11:12	-133.239	47.785	0	802.90	0	3.4890	0	34.2670	0	27.260	0	794.640	0	-1e10	8	-1e10	8	-1E+10	1	-1E+10	1	-1E+10	1	-1E+10	1	-1E+10	1	-1E+10	1
4902554	94	C	09/15/2023	11:12	-133.239	47.785	0	807.70	0	3.4850	0	34.2680	0	27.261	0	799.381	0	-1e10	8	-1e10	8	-1E+10	1	-1E+10	1	-1E+10	1	-1E+10	1	-1E+10	1	-1E+10	1
4902554	94	C	09/15/2023	11:12	-133.239	47.785	0	812.60	0	3.4740	0	34.2710	0	27.264	0	804.221	0	-1e10	8	-1e10	8	-1E+10	1	-1E+10	1	-1E+10	1	-1E+10	1	-1E+10	1	-1E+10	1
4902554	94	C	09/15/2023	11:12	-133.239	47.785	0	817.60	0	3.4630	0	34.2730	0	27.267	0	809.160	0	-1e10	8	-1e10	8	-1E+10	1	-1E+10	1	-1E+10	1	-1E+10	1	-1E+10	1	-1E+10	1
4902554	94	C	09/15/2023	11:12	-133.239	47.785	0	822.50	0	3.4540	0	34.2760	0	27.270	0	814.000	0	-1e10	8	-1e10	8	-1E+10	1	-1E+10	1	-1E+10	1	-1E+10	1	-1E+10	1	-1E+10	1
4902554	94	C	09/15/2023	11:12	-133.239	47.785	0	827.50	0	3.4410	0	34.2800	0	27.275	0	818.938	0	-1e10	8	-1e10	8	-1E+10	1	-1E+10	1	-1E+10	1	-1E+10	1	-1E+10	1	-1E+10	1
4902554	94	C	09/15/2023	11:12	-133.239	47.785	0	832.50	0	3.4380	0	34.2800	0	27.275	0	823.877	0	-1e10	8	-1e10	8	-1E+10	1	-1E+10	1	-1E+10	1	-1E+10	1	-1E+10	1	-1E+10	1
4902554	94	C	09/15/2023	11:12	-133.239	47.785	0	837.90	0	3.4280	0	34.2830	0	27.278	0	829.210	0	-1e10	8	-1e10	8	-1E+10	1	-1E+10	1	-1E+10	1	-1E+10	1	-1E+10	1	-1E+10	1
4902554	94	C	09/15/2023	11:12	-133.239	47.785	0	842.90	0	3.4190	0	34.2850	0	27.281	0	834.148	0	-1e10	8	-1e10	8	-1E+10	1	-1E+10	1	-1E+10	1	-1E+10	1	-1E+10	1	-1E+10	1
4902554	94	C	09/15/2023	11:12	-133.239	47.785	0	847.50	0	3.4140	0	34.2860	0	27.282	0	838.691	0	-1e10	8	-1e10	8	-1E+10	1	-1E+10	1	-1E+10	1	-1E+10	1	-1E+10	1	-1E+10	1
4902554	94	C	09/15/2023	11:12	-133.239	47.785	0	852.50	0	3.4070	0	34.2880	0	27.284	0	843.629	0	-1e10	8	-1e10	8	-1E+10	1	-1E+10	1	-1E+10	1	-1E+10	1	-1E+10	1	-1E+10	1
4902554	94	C	09/15/2023	11:12	-133.239	47.785	0	857.60	0	3.4020	0	34.2880	0	27.285	0	848.666	0	-1e10	8	-1e10	8	-1E+10	1	-1E+10	1	-1E+10	1	-1E+10	1	-1E+10	1	-1E+10	1
4902554	94	C	09/15/2023	11:12	-133.239	47.785	0	862.50	0	3.3880	0	34.2910	0	27.289	0	853.505	0	-1e10	8	-1e10	8	-1E+10	1	-1E+10	1	-1E+10	1	-1E+10	1	-1E+10	1	-1E+10	1
4902554	94	C	09/15/2023	11:12	-133.239	47.785	0	867.90	0	3.3810	0	34.2940	0	27.292	0	858.837	0	-1e10	8	-1e10	8	-1E+10	1	-1E+10	1	-1E+10	1	-1E+10	1	-1E+10	1	-1E+10	1
4902554	94	C	09/15/2023	11:12	-133.239	47.785	0	873.40	0	3.3720	0	34.2960	0	27.294	0	864.269	0	-1e10	8	-1e10	8	-1E+10	1	-1E+10	1	-1E+10	1	-1E+10	1	-1E+10	1	-1E+10	1
4902554	94	C	09/15/2023	11:12	-133.239	47.785	0	878.00	0	3.3650	0	34.2990	0	27.297	0	868.811	0	-1e10	8	-1e10	8	-1E+10	1	-1E+10	1	-1E+10	1	-1E+10	1	-1E+10	1	-1E+10	1
4902554	94	C	09/15/2023	11:12	-133.239	47.785	0	882.90	0	3.3580	0	34.3010	0	27.300	0	873.649	0	-1e10	8	-1e10	8	-1E+10	1	-1E+10	1	-1E+10	1	-1E+10	1	-1E+10	1	-1E+10	1
4902554	94	C	09/15/2023	11:12	-133.239	47.785	0	887.90	0	3.3530	0	34.3030	0	27.302	0	878.587	0	-1e10	8	-1e10	8	-1E+10	1	-1E+10	1	-1E+10	1	-1E+10	1	-1E+10	1	-1E+10	1
4902554	94	C	09/15/2023	11:12	-133.239	47.785	0	892.90	0	3.3480	0	34.3050	0	27.304	0	883.524	0	-1e10	8	-1e10	8	-1E+10	1	-1E+10	1	-1E+10	1	-1E+10	1	-1E+10	1	-1E+10	1
4902554	94	C	09/15/2023	11:12	-133.239	47.785	0	898.30	0	3.3230	0	34.3080	0	27.309	0	888.855	0	-1e10	8	-1e10	8	-1E+10	1	-1E+10	1	-1E+10	1	-1E+10	1	-1E+10	1	-1E+10	1
4902554	94	C	09/15/2023	11:12	-133.239	47.785	0	903.10	0	3.3140	0	34.3080	0	27.310	0	893.595	0	-1e10	8	-1e10	8	-1E+10	1	-1E+10	1	-1E+10	1	-1E+10	1	-1E+10	1	-1E+10	1
4902554	94	C	09/15/2023	11:12	-133.239	47.785	0	907.90	0	3.3050	0	34.3110	0	27.313	0	898.334	0	-1e10	8	-1e10	8	-1E+10	1	-1E+10	1	-1E+10	1	-1E+10	1	-1E+10	1	-1E+10	1
4902554	94	C	09/15/2023	11:12	-133.239	47.785	0	912.60	0	3.2960	0	34.3140	0	27.316	0	902.974	0	-1e10	8	-1e10	8	-1E+10	1	-1E+10	1	-1E+10	1	-1E+10	1	-1E+10	1	-1E+10	1
4902554	94	C	09/15/2023	11:12	-133.239	47.785	0	917.80	0	3.2820	0	34.3180	0	27.321	0	908.108	0	-1e10	8	-1e10	8	-1E+10	1	-1E+10	1	-1E+10	1	-1E+10	1	-1E+10	1	-1E+10	1
4902554	94	C	09/15/2023	11:12	-133.239	47.785	0	923.10	0	3.2640	0	34.3200	0	27.324	0	913.340	0	-1e10	8	-1e10	8	-1E+10	1	-1E+10	1	-1E+10	1	-1E+10	1	-1E+10	1	-1E+10	1
4902554	94	C	09/15/2023	11:12	-133.239	47.785	0	927.80	0	3.2510	0	34.3210	0	27.326	0	917.980	0	-1e10	8	-1e10	8	-1E+10	1	-1E+10	1	-1E+10	1	-1E+10	1	-1E+10	1	-1E+10	1
4902554	94	C	09/15/2023	11:12	-133.239	47.785	0	932.60	0	3.2420	0	34.3250	0	27.330	0	922.719	0	-1e10	8	-1e10	8	-1E+10	1	-1E+10	1	-1E+10	1	-1E+10	1	-1E+10	1	-1E+10	1
4902554	94	C	09/15/2023	11:12	-133.239	47.785	0	937.90	0	3.2270	0	34.3280	0	27.334	0	927.951	0	-1e10	8	-1e10	8	-1E+10	1	-1E+10	1	-1E+10	1	-1E+10	1	-1E+10	1	-1E+10	1
4902554	94	C	09/15/2023	11:12	-133.239	47.785	0	943.20	0	3.2150	0	34.3300	0	27.337	0	933.183	0	-1e10	8	-1e10	8	-1E+10	1	-1E+10	1	-1E+10	1	-1E+10	1	-1E+10	1	-1E+10	1
4902554	94	C	09/15/2023	11:12	-133.239	47.785	0	947.90	0	3.2080	0	34.3310	0	27.338	0	937.823	0	-1e10	8	-1e10	8	-1E+10	1	-1E+10	1	-1E+10	1	-1E+10	1	-1E+10	1	-1E+10	1
4902554	94	C	09/15/2023	11:12	-133.239	47.785	0	952.60	0	3.1980	0	34.3340	0	27.341	0	942.462	0	-1e10	8	-1e10	8	-1E+10	1	-1E+10	1	-1E+10	1	-1E+10	1	-1E+10	1	-1E+10	1
4902554	94	C	09/15/2023	11:12	-133.239	47.785	0	957.90	0	3.1920	0	34.3360	0	27.344	0	947.694	0	-1e10	8	-1e10	8	-1E+10	1	-1E+10	1	-1E+10	1	-1E+10	1	-1E+10	1	-1E+10	1
4902554	94	C	09/15/2023	11:12	-133.239	47.785	0	963.10	0	3.1810	0	34.3390	0	27.347	0	952.827	0	-1e10	8	-1e10	8	-1E+10	1	-1E+10	1	-1E+10	1	-1E+10	1	-1E+10	1	-1E+10	1
4902554	94	C	09/15/2023	11:12	-133.239	47.785	0	968.00	0	3.1660	0	34.3420	0	27.351	0	957.663	0	-1e10	8	-1e10	8	-1E+10	1	-1E+10	1	-1E+10	1	-1E+10	1	-1E+10	1	-1E+10	1
4902554	94	C	09/15/2023	11:12	-133.239	47.785	0	972.90	0	3.1610	0	34.3440	0	27.353	0	962.500	0	-1e10	8	-1e10	8	-1E+10	1	-1E+10	1	-1E+10	1	-1E+10	1	-1E+10	1	-1E+10	1
4902554	94	C	09/15/2023	11:12	-133.239	47.785	0	977.80	0	3.1550	0	34.3450	0	27.354	0	967.336	0	-1e10	8	-1e10	8	-1E+10	1	-1E+10	1	-1E+10	1	-1E+10	1	-1E+10	1	-1E+10	1
4902554	94	C	09/15/2023	11:12	-133.239	47.785	0	982.70	0	3.1420	0	34.3470	0	27.357	0	972.172	0	-1e10	8	-1e10	8	-1E+10	1	-1E+10	1	-1E+10	1	-1E+10	1	-1E+10	1	-1E+10	1
4902554	94	C	09/15/2023	11:12	-133.239	47.785	0	987.90	0	3.1350	0	34.3490	0	27.359	0	977.304	0	-1e10	8	-1e10	8	-1E+10	1	-1E+10	1	-1E+10	1	-1E+10	1	-1E+10	1	-1E+10	1
4902554	94	C	09/15/2023	11:12	-133.239	47.785	0	993.00	0	3.1270	0	34.3510	0	27.362	0	982.338	0	-1e10	8	-1e10	8	-1E+10	1	-1E+10	1	-1E+10	1	-1E+10	1	-1E+10	1	-1E+10	1
4902554	94	C	09/15/2023	11:12	-133.239	47.785	0	997.70	0	3.1130	0	34.3550	0	27.366	0	986.976	0	-1e10	8	-1e10	8	-1E+10	1	-1E+10	1	-1E+10	1	-1E+10	1	-1E+10	1	-1E+10	1
4902554	94	C	09/15/2023	11:12	-133.239	47.785	0	1005.10	0	3.1050	0	34.3570	0	27.369	0	994.279	0	-1e10	8	-1e10	8	-1E+10	1	-1E+10	1	-1E+10	1	-1E+10	1	-1E+10	1	-1E+10	1
4902554	94	C	09/15/2023	11:12	-133.239	47.785	0	1015.30	0	3.0930	0	34.3600	0	27.372	0	1004.345	0	-1e10	8	-1e10	8	-1E+10	1	-1E+10	1	-1E+10	1	-1E+10	1	-1E+10	1	-1E+10	1
4902554	94	C	09/15/2023	11:12	-133.239	47.785	0	1025.30	0	3.0770	0	34.3640	0	27.377	0	1014.213	0	-1e10	8	-1e10	8	-1E+10	1	-1E+10	1	-1E+10	1	-1E+10	1	-1E+10	1	-1E+10	1
4902554	94	C	09/15/2023	11:12	-133.239	47.785	0	1035.20	0	3.0590	0	34.3680	0	27.382	0	1023.981	0	-1e10	8	-1e10	8	-1E+10	1	-1E+10	1	-1E+10	1	-1E+10	1	-1E+10	1	-1E+10	1
4902554	94	C	09/15/2023	11:12	-133.239	47.785	0	1045.10	0	3.0440	0	34.3730	0	27.387	0	1033.750	0	-1e10	8	-1e10	8	-1E+10	1	-1E+10	1	-1E+10	1	-1E+10	1	-1E+10	1	-1E+10	1
4902554	94	C	09/15/2023	11:12	-133.239	47.785	0	1055.30	0	3.0360	0	34.3790	0	27.393	0	1043.814	0	-1e10	8	-1e10	8	-1E+10	1	-1E+10	1	-1E+10	1	-1E+10	1	-1E+10	1	-1E+10	1
4902554	94	C	09/15/2023	11:12	-133.239	47.785	0	1065.10	0	3.0160	0	34.3850	0	27.399	0	1053.482	0	-1e10	8	-1e10	8	-1E+10	1	-1E+10	1	-1E+10	1	-1E+10	1	-1E+10	1	-1E+10	1
4902554	94	C	09/15/2023	11:12	-133.239	47.785	0	1075.30	0	2.9900	0	34.3880	0	27.404	0	1063.545	0	-1e10	8	-1e10	8	-1E+10	1	-1E+10	1	-1E+10	1	-1E+10	1	-1E+10	1	-1E+10	1
4902554	94	C	09/15/2023	11:12	-133.239	47.785	0	1085.50	0	2.9720	0	34.3910	0	27.408	0	1073.608	0	-1e10	8	-1e10	8	-1E+10	1	-1E+10	1	-1E+10	1	-1E+10	1	-1E+10	1	-1E+10	1
4902554	94	C	09/15/2023	11:12	-133.239	47.785	0	1095.40	0	2.9620	0	34.3950	0	27.412	0	1083.374	0	-1e10	8	-1e10	8	-1E+10	1	-1E+10	1	-1E+10	1	-1E+10	1	-1E+10	1	-1E+10	1
4902554	94	C	09/15/2023	11:12	-133.239	47.785	0	1105.60	0	2.9420	0	34.3990	0	27.417	0	1093.435	0	-1e10	8	-1e10	8	-1E+10	1	-1E+10	1	-1E+10	1	-1E+10	1	-1E+10	1	-1E+10	1
4902554	94	C	09/15/2023	11:12	-133.239	47.785	0	1115.40	0	2.9280	0	34.4030	0	27.422	0	1103.102	0	-1e10	8	-1e10	8	-1E+10	1	-1E+10	1	-1E+10	1	-1E+10	1	-1E+10	1	-1E+10	1
4902554	94	C	09/15/2023	11:12	-133.239	47.785	0	1125.30	0	2.9150	0	34.4050	0	27.425	0	1112.866	0	-1e10	8	-1e10	8	-1E+10	1	-1E+10	1	-1E+10	1	-1E+10	1	-1E+10	1	-1E+10	1
4902554	94	C	09/15/2023	11:12	-133.239	47.785	0	1135.30	0	2.9030	0	34.4080	0	27.428	0	1122.729	0	-1e10	8	-1e10	8	-1E+10	1	-1E+10	1	-1E+10	1	-1E+10	1	-1E+10	1	-1E+10	1
4902554	94	C	09/15/2023	11:12	-133.239	47.785	0	1145.20	0	2.8870	0	34.4130	0	27.434	0	1132.493	0	-1e10	8	-1e10	8	-1E+10	1	-1E+10	1	-1E+10	1	-1E+10	1	-1E+10	1	-1E+10	1
4902554	94	C	09/15/2023	11:12	-133.239	47.785	0	1155.60	0	2.8790	0	34.4160	0	27.437	0	1142.749	0	-1e10	8	-1e10	8	-1E+10	1	-1E+10	1	-1E+10	1	-1E+10	1	-1E+10	1	-1E+10	1
4902554	94	C	09/15/2023	11:12	-133.239	47.785	0	1165.60	0	2.8590	0	34.4200	0	27.442	0	1152.610	0	-1e10	8	-1e10	8	-1E+10	1	-1E+10	1	-1E+10	1	-1E+10	1	-1E+10	1	-1E+10	1
4902554	94	C	09/15/2023	11:12	-133.239	47.785	0	1175.50	0	2.8470	0	34.4230	0	27.445	0	1162.373	0	-1e10	8	-1e10	8	-1E+10	1	-1E+10	1	-1E+10	1	-1E+10	1	-1E+10	1	-1E+10	1
4902554	94	C	09/15/2023	11:12	-133.239	47.785	0	1185.40	0	2.8370	0	34.4240	0	27.447	0	1172.135	0	-1e10	8	-1e10	8	-1E+10	1	-1E+10	1	-1E+10	1	-1E+10	1	-1E+10	1	-1E+10	1
4902554	94	C	09/15/2023	11:12	-133.239	47.785	0	1195.20	0	2.8220	0	34.4270	0	27.451	0	1181.797	0	-1e10	8	-1e10	8	-1E+10	1	-1E+10	1	-1E+10	1	-1E+10	1	-1E+10	1	-1E+10	1
4902554	94	C	09/15/2023	11:12	-133.239	47.785	0	1205.60	0	2.8150	0	34.4290	0	27.453	0	1192.051	0	-1e10	8	-1e10	8	-1E+10	1	-1E+10	1	-1E+10	1	-1E+10	1	-1E+10	1	-1E+10	1
4902554	94	C	09/15/2023	11:12	-133.239	47.785	0	1215.60	0	2.8010	0	34.4320	0	27.457	0	1201.910	0	-1e10	8	-1e10	8	-1E+10	1	-1E+10	1	-1E+10	1	-1E+10	1	-1E+10	1	-1E+10	1
4902554	94	C	09/15/2023	11:12	-133.239	47.785	0	1225.30	0	2.7880	0	34.4350	0	27.460	0	1211.473	0	-1e10	8	-1e10	8	-1E+10	1	-1E+10	1	-1E+10	1	-1E+10	1	-1E+10	1	-1E+10	1
4902554	94	C	09/15/2023	11:12	-133.239	47.785	0	1235.20	0	2.7610	0	34.4390	0	27.466	0	1221.233	0	-1e10	8	-1e10	8	-1E+10	1	-1E+10	1	-1E+10	1	-1E+10	1	-1E+10	1	-1E+10	1
4902554	94	C	09/15/2023	11:12	-133.239	47.785	0	1245.40	0	2.7480	0	34.4420	0	27.470	0	1231.288	0	-1e10	8	-1e10	8	-1E+10	1	-1E+10	1	-1E+10	1	-1E+10	1	-1E+10	1	-1E+10	1
4902554	94	C	09/15/2023	11:12	-133.239	47.785	0	1255.40	0	2.7380	0	34.4440	0	27.472	0	1241.145	0	-1e10	8	-1e10	8	-1E+10	1	-1E+10	1	-1E+10	1	-1E+10	1	-1E+10	1	-1E+10	1
4902554	94	C	09/15/2023	11:12	-133.239	47.785	0	1265.00	0	2.7260	0	34.4450	0	27.474	0	1250.607	0	-1e10	8	-1e10	8	-1E+10	1	-1E+10	1	-1E+10	1	-1E+10	1	-1E+10	1	-1E+10	1
4902554	94	C	09/15/2023	11:12	-133.239	47.785	0	1274.90	0	2.7050	0	34.4500	0	27.480	0	1260.365	0	-1e10	8	-1e10	8	-1E+10	1	-1E+10	1	-1E+10	1	-1E+10	1	-1E+10	1	-1E+10	1
4902554	94	C	09/15/2023	11:12	-133.239	47.785	0	1285.00	0	2.6890	0	34.4520	0	27.483	0	1270.319	0	-1e10	8	-1e10	8	-1E+10	1	-1E+10	1	-1E+10	1	-1E+10	1	-1E+10	1	-1E+10	1
4902554	94	C	09/15/2023	11:12	-133.239	47.785	0	1295.20	0	2.6830	0	34.4540	0	27.485	0	1280.372	0	-1e10	8	-1e10	8	-1E+10	1	-1E+10	1	-1E+10	1	-1E+10	1	-1E+10	1	-1E+10	1
4902554	94	C	09/15/2023	11:12	-133.239	47.785	0	1305.30	0	2.6700	0	34.4550	0	27.487	0	1290.325	0	-1e10	8	-1e10	8	-1E+10	1	-1E+10	1	-1E+10	1	-1E+10	1	-1E+10	1	-1E+10	1
4902554	94	C	09/15/2023	11:12	-133.239	47.785	0	1315.40	0	2.6530	0	34.4590	0	27.492	0	1300.278	0	-1e10	8	-1e10	8	-1E+10	1	-1E+10	1	-1E+10	1	-1E+10	1	-1E+10	1	-1E+10	1
4902554	94	C	09/15/2023	11:12	-133.239	47.785	0	1325.70	0	2.6390	0	34.4610	0	27.495	0	1310.428	0	-1e10	8	-1e10	8	-1E+10	1	-1E+10	1	-1E+10	1	-1E+10	1	-1E+10	1	-1E+10	1
4902554	94	C	09/15/2023	11:12	-133.239	47.785	0	1335.90	0	2.6270	0	34.4630	0	27.497	0	1320.479	0	-1e10	8	-1e10	8	-1E+10	1	-1E+10	1	-1E+10	1	-1E+10	1	-1E+10	1	-1E+10	1
4902554	94	C	09/15/2023	11:12	-133.239	47.785	0	1345.40	0	2.6130	0	34.4660	0	27.501	0	1329.839	0	-1e10	8	-1e10	8	-1E+10	1	-1E+10	1	-1E+10	1	-1E+10	1	-1E+10	1	-1E+10	1
4902554	94	C	09/15/2023	11:12	-133.239	47.785	0	1355.10	0	2.5980	0	34.4670	0	27.503	0	1339.396	0	-1e10	8	-1e10	8	-1E+10	1	-1E+10	1	-1E+10	1	-1E+10	1	-1E+10	1	-1E+10	1
4902554	94	C	09/15/2023	11:12	-133.239	47.785	0	1365.10	0	2.5840	0	34.4710	0	27.508	0	1349.248	0	-1e10	8	-1e10	8	-1E+10	1	-1E+10	1	-1E+10	1	-1E+10	1	-1E+10	1	-1E+10	1
4902554	94	C	09/15/2023	11:12	-133.239	47.785	0	1375.40	0	2.5680	0	34.4740	0	27.511	0	1359.395	0	-1e10	8	-1e10	8	-1E+10	1	-1E+10	1	-1E+10	1	-1E+10	1	-1E+10	1	-1E+10	1
4902554	94	C	09/15/2023	11:12	-133.239	47.785	0	1385.50	0	2.5550	0	34.4750	0	27.513	0	1369.345	0	-1e10	8	-1e10	8	-1E+10	1	-1E+10	1	-1E+10	1	-1E+10	1	-1E+10	1	-1E+10	1
4902554	94	C	09/15/2023	11:12	-133.239	47.785	0	1395.50	0	2.5470	0	34.4770	0	27.516	0	1379.196	0	-1e10	8	-1e10	8	-1E+10	1	-1E+10	1	-1E+10	1	-1E+10	1	-1E+10	1	-1E+10	1
4902554	94	C	09/15/2023	11:12	-133.239	47.785	0	1405.80	0	2.5410	0	34.4780	0	27.517	0	1389.341	0	-1e10	8	-1e10	8	-1E+10	1	-1E+10	1	-1E+10	1	-1E+10	1	-1E+10	1	-1E+10	1
4902554	94	C	09/15/2023	11:12	-133.239	47.785	0	1415.60	0	2.5210	0	34.4820	0	27.522	0	1398.994	0	-1e10	8	-1e10	8	-1E+10	1	-1E+10	1	-1E+10	1	-1E+10	1	-1E+10	1	-1E+10	1
4902554	94	C	09/15/2023	11:12	-133.239	47.785	0	1425.60	0	2.5120	0	34.4830	0	27.524	0	1408.844	0	-1e10	8	-1e10	8	-1E+10	1	-1E+10	1	-1E+10	1	-1E+10	1	-1E+10	1	-1E+10	1
4902554	94	C	09/15/2023	11:12	-133.239	47.785	0	1435.50	0	2.5060	0	34.4850	0	27.526	0	1418.594	0	-1e10	8	-1e10	8	-1E+10	1	-1E+10	1	-1E+10	1	-1E+10	1	-1E+10	1	-1E+10	1
4902554	94	C	09/15/2023	11:12	-133.239	47.785	0	1445.20	0	2.4950	0	34.4870	0	27.528	0	1428.147	0	-1e10	8	-1e10	8	-1E+10	1	-1E+10	1	-1E+10	1	-1E+10	1	-1E+10	1	-1E+10	1
4902554	94	C	09/15/2023	11:12	-133.239	47.785	0	1455.30	0	2.4870	0	34.4880	0	27.530	0	1438.093	0	-1e10	8	-1e10	8	-1E+10	1	-1E+10	1	-1E+10	1	-1E+10	1	-1E+10	1	-1E+10	1
4902554	94	C	09/15/2023	11:12	-133.239	47.785	0	1465.50	0	2.4740	0	34.4900	0	27.533	0	1448.138	0	-1e10	8	-1e10	8	-1E+10	1	-1E+10	1	-1E+10	1	-1E+10	1	-1E+10	1	-1E+10	1
4902554	94	C	09/15/2023	11:12	-133.239	47.785	0	1475.50	0	2.4610	0	34.4910	0	27.535	0	1457.985	0	-1e10	8	-1e10	8	-1E+10	1	-1E+10	1	-1E+10	1	-1E+10	1	-1E+10	1	-1E+10	1
4902554	94	C	09/15/2023	11:12	-133.239	47.785	0	1485.60	0	2.4460	0	34.4930	0	27.538	0	1467.930	0	-1e10	8	-1e10	8	-1E+10	1	-1E+10	1	-1E+10	1	-1E+10	1	-1E+10	1	-1E+10	1
4902554	94	C	09/15/2023	11:12	-133.239	47.785	0	1495.40	0	2.4310	0	34.4960	0	27.541	0	1477.579	0	-1e10	8	-1e10	8	-1E+10	1	-1E+10	1	-1E+10	1	-1E+10	1	-1E+10	1	-1E+10	1
4902554	94	C	09/15/2023	11:12	-133.239	47.785	0	1505.20	0	2.4230	0	34.4970	0	27.543	0	1487.228	0	-1e10	8	-1e10	8	-1E+10	1	-1E+10	1	-1E+10	1	-1E+10	1	-1E+10	1	-1E+10	1
4902554	94	C	09/15/2023	11:12	-133.239	47.785	0	1515.00	0	2.4160	0	34.4980	0	27.544	0	1496.876	0	-1e10	8	-1e10	8	-1E+10	1	-1E+10	1	-1E+10	1	-1E+10	1	-1E+10	1	-1E+10	1
4902554	94	C	09/15/2023	11:12	-133.239	47.785	0	1525.30	0	2.3930	0	34.5020	0	27.549	0	1507.016	0	-1e10	8	-1e10	8	-1E+10	1	-1E+10	1	-1E+10	1	-1E+10	1	-1E+10	1	-1E+10	1
4902554	94	C	09/15/2023	11:12	-133.239	47.785	0	1535.70	0	2.3740	0	34.5050	0	27.553	0	1517.254	0	-1e10	8	-1e10	8	-1E+10	1	-1E+10	1	-1E+10	1	-1E+10	1	-1E+10	1	-1E+10	1
4902554	94	C	09/15/2023	11:12	-133.239	47.785	0	1545.60	0	2.3550	0	34.5090	0	27.558	0	1527.000	0	-1e10	8	-1e10	8	-1E+10	1	-1E+10	1	-1E+10	1	-1E+10	1	-1E+10	1	-1E+10	1
4902554	94	C	09/15/2023	11:12	-133.239	47.785	0	1555.40	0	2.3440	0	34.5100	0	27.560	0	1536.646	0	-1e10	8	-1e10	8	-1E+10	1	-1E+10	1	-1E+10	1	-1E+10	1	-1E+10	1	-1E+10	1
4902554	94	C	09/15/2023	11:12	-133.239	47.785	0	1565.40	0	2.3350	0	34.5120	0	27.562	0	1546.489	0	-1e10	8	-1e10	8	-1E+10	1	-1E+10	1	-1E+10	1	-1E+10	1	-1E+10	1	-1E+10	1
4902554	94	C	09/15/2023	11:12	-133.239	47.785	0	1575.50	0	2.3120	0	34.5160	0	27.567	0	1556.430	0	-1e10	8	-1e10	8	-1E+10	1	-1E+10	1	-1E+10	1	-1E+10	1	-1E+10	1	-1E+10	1
4902554	94	C	09/15/2023	11:12	-133.239	47.785	0	1585.70	0	2.2920	0	34.5200	0	27.572	0	1566.469	0	-1e10	8	-1e10	8	-1E+10	1	-1E+10	1	-1E+10	1	-1E+10	1	-1E+10	1	-1E+10	1
4902554	94	C	09/15/2023	11:12	-133.239	47.785	0	1595.60	0	2.2770	0	34.5220	0	27.575	0	1576.212	0	-1e10	8	-1e10	8	-1E+10	1	-1E+10	1	-1E+10	1	-1E+10	1	-1E+10	1	-1E+10	1
4902554	94	C	09/15/2023	11:12	-133.239	47.785	0	1605.50	0	2.2610	0	34.5250	0	27.579	0	1585.954	0	-1e10	8	-1e10	8	-1E+10	1	-1E+10	1	-1E+10	1	-1E+10	1	-1E+10	1	-1E+10	1
4902554	94	C	09/15/2023	11:12	-133.239	47.785	0	1615.20	0	2.2490	0	34.5270	0	27.582	0	1595.500	0	-1e10	8	-1e10	8	-1E+10	1	-1E+10	1	-1E+10	1	-1E+10	1	-1E+10	1	-1E+10	1
4902554	94	C	09/15/2023	11:12	-133.239	47.785	0	1625.30	0	2.2310	0	34.5300	0	27.585	0	1605.438	0	-1e10	8	-1e10	8	-1E+10	1	-1E+10	1	-1E+10	1	-1E+10	1	-1E+10	1	-1E+10	1
4902554	94	C	09/15/2023	11:12	-133.239	47.785	0	1635.80	0	2.2170	0	34.5330	0	27.589	0	1615.770	0	-1e10	8	-1e10	8	-1E+10	1	-1E+10	1	-1E+10	1	-1E+10	1	-1E+10	1	-1E+10	1
4902554	94	C	09/15/2023	11:12	-133.239	47.785	0	1645.80	0	2.2090	0	34.5350	0	27.591	0	1625.609	0	-1e10	8	-1e10	8	-1E+10	1	-1E+10	1	-1E+10	1	-1E+10	1	-1E+10	1	-1E+10	1
4902554	94	C	09/15/2023	11:12	-133.239	47.785	0	1655.40	0	2.2030	0	34.5360	0	27.593	0	1635.054	0	-1e10	8	-1e10	8	-1E+10	1	-1E+10	1	-1E+10	1	-1E+10	1	-1E+10	1	-1E+10	1
4902554	94	C	09/15/2023	11:12	-133.239	47.785	0	1665.20	0	2.1950	0	34.5370	0	27.594	0	1644.696	0	-1e10	8	-1e10	8	-1E+10	1	-1E+10	1	-1E+10	1	-1E+10	1	-1E+10	1	-1E+10	1
4902554	94	C	09/15/2023	11:12	-133.239	47.785	0	1675.40	0	2.1860	0	34.5390	0	27.597	0	1654.731	0	-1e10	8	-1e10	8	-1E+10	1	-1E+10	1	-1E+10	1	-1E+10	1	-1E+10	1	-1E+10	1
4902554	94	C	09/15/2023	11:12	-133.239	47.785	0	1685.30	0	2.1790	0	34.5410	0	27.599	0	1664.470	0	-1e10	8	-1e10	8	-1E+10	1	-1E+10	1	-1E+10	1	-1E+10	1	-1E+10	1	-1E+10	1
4902554	94	C	09/15/2023	11:12	-133.239	47.785	0	1695.20	0	2.1660	0	34.5430	0	27.601	0	1674.208	0	-1e10	8	-1e10	8	-1E+10	1	-1E+10	1	-1E+10	1	-1E+10	1	-1E+10	1	-1E+10	1
4902554	94	C	09/15/2023	11:12	-133.239	47.785	0	1705.20	0	2.1600	0	34.5450	0	27.604	0	1684.045	0	-1e10	8	-1e10	8	-1E+10	1	-1E+10	1	-1E+10	1	-1E+10	1	-1E+10	1	-1E+10	1
4902554	94	C	09/15/2023	11:12	-133.239	47.785	0	1715.00	0	2.1540	0	34.5470	0	27.606	0	1693.684	0	-1e10	8	-1e10	8	-1E+10	1	-1E+10	1	-1E+10	1	-1E+10	1	-1E+10	1	-1E+10	1
4902554	94	C	09/15/2023	11:12	-133.239	47.785	0	1725.40	0	2.1470	0	34.5470	0	27.606	0	1703.913	0	-1e10	8	-1e10	8	-1E+10	1	-1E+10	1	-1E+10	1	-1E+10	1	-1E+10	1	-1E+10	1
4902554	94	C	09/15/2023	11:12	-133.239	47.785	0	1735.30	0	2.1370	0	34.5490	0	27.609	0	1713.650	0	-1e10	8	-1e10	8	-1E+10	1	-1E+10	1	-1E+10	1	-1E+10	1	-1E+10	1	-1E+10	1
4902554	94	C	09/15/2023	11:12	-133.239	47.785	0	1745.30	0	2.1280	0	34.5510	0	27.611	0	1723.484	0	-1e10	8	-1e10	8	-1E+10	1	-1E+10	1	-1E+10	1	-1E+10	1	-1E+10	1	-1E+10	1
4902554	94	C	09/15/2023	11:12	-133.239	47.785	0	1755.20	0	2.1200	0	34.5520	0	27.613	0	1733.220	0	-1e10	8	-1e10	8	-1E+10	1	-1E+10	1	-1E+10	1	-1E+10	1	-1E+10	1	-1E+10	1
4902554	94	C	09/15/2023	11:12	-133.239	47.785	0	1765.20	0	2.1120	0	34.5530	0	27.614	0	1743.054	0	-1e10	8	-1e10	8	-1E+10	1	-1E+10	1	-1E+10	1	-1E+10	1	-1E+10	1	-1E+10	1
4902554	94	C	09/15/2023	11:12	-133.239	47.785	0	1775.50	0	2.1040	0	34.5550	0	27.616	0	1753.182	0	-1e10	8	-1e10	8	-1E+10	1	-1E+10	1	-1E+10	1	-1E+10	1	-1E+10	1	-1E+10	1
4902554	94	C	09/15/2023	11:12	-133.239	47.785	0	1785.60	0	2.0970	0	34.5560	0	27.618	0	1763.113	0	-1e10	8	-1e10	8	-1E+10	1	-1E+10	1	-1E+10	1	-1E+10	1	-1E+10	1	-1E+10	1
4902554	94	C	09/15/2023	11:12	-133.239	47.785	0	1795.50	0	2.0870	0	34.5580	0	27.620	0	1772.847	0	-1e10	8	-1e10	8	-1E+10	1	-1E+10	1	-1E+10	1	-1E+10	1	-1E+10	1	-1E+10	1
4902554	94	C	09/15/2023	11:12	-133.239	47.785	0	1805.70	0	2.0770	0	34.5600	0	27.623	0	1782.876	0	-1e10	8	-1e10	8	-1E+10	1	-1E+10	1	-1E+10	1	-1E+10	1	-1E+10	1	-1E+10	1
4902554	94	C	09/15/2023	11:12	-133.239	47.785	0	1815.40	0	2.0690	0	34.5610	0	27.624	0	1792.412	0	-1e10	8	-1e10	8	-1E+10	1	-1E+10	1	-1E+10	1	-1E+10	1	-1E+10	1	-1E+10	1
4902554	94	C	09/15/2023	11:12	-133.239	47.785	0	1825.20	0	2.0590	0	34.5630	0	27.627	0	1802.047	0	-1e10	8	-1e10	8	-1E+10	1	-1E+10	1	-1E+10	1	-1E+10	1	-1E+10	1	-1E+10	1
4902554	94	C	09/15/2023	11:12	-133.239	47.785	0	1835.20	0	2.0460	0	34.5650	0	27.629	0	1811.877	0	-1e10	8	-1e10	8	-1E+10	1	-1E+10	1	-1E+10	1	-1E+10	1	-1E+10	1	-1E+10	1
4902554	94	C	09/15/2023	11:12	-133.239	47.785	0	1844.90	0	2.0350	0	34.5670	0	27.632	0	1821.413	0	-1e10	8	-1e10	8	-1E+10	1	-1E+10	1	-1E+10	1	-1E+10	1	-1E+10	1	-1E+10	1
4902554	94	C	09/15/2023	11:12	-133.239	47.785	0	1855.40	0	2.0280	0	34.5690	0	27.634	0	1831.734	0	-1e10	8	-1e10	8	-1E+10	1	-1E+10	1	-1E+10	1	-1E+10	1	-1E+10	1	-1E+10	1
4902554	94	C	09/15/2023	11:12	-133.239	47.785	0	1865.40	0	2.0190	0	34.5710	0	27.636	0	1841.563	0	-1e10	8	-1e10	8	-1E+10	1	-1E+10	1	-1E+10	1	-1E+10	1	-1E+10	1	-1E+10	1
4902554	94	C	09/15/2023	11:12	-133.239	47.785	0	1875.00	0	2.0080	0	34.5730	0	27.639	0	1850.998	0	-1e10	8	-1e10	8	-1E+10	1	-1E+10	1	-1E+10	1	-1E+10	1	-1E+10	1	-1E+10	1
4902554	94	C	09/15/2023	11:12	-133.239	47.785	0	1885.20	0	2.0010	0	34.5740	0	27.640	0	1861.023	0	-1e10	8	-1e10	8	-1E+10	1	-1E+10	1	-1E+10	1	-1E+10	1	-1E+10	1	-1E+10	1
4902554	94	C	09/15/2023	11:12	-133.239	47.785	0	1895.20	0	1.9950	0	34.5750	0	27.642	0	1870.851	0	-1e10	8	-1e10	8	-1E+10	1	-1E+10	1	-1E+10	1	-1E+10	1	-1E+10	1	-1E+10	1
4902554	94	C	09/15/2023	11:12	-133.239	47.785	0	1905.10	0	1.9840	0	34.5770	0	27.644	0	1880.580	0	-1e10	8	-1e10	8	-1E+10	1	-1E+10	1	-1E+10	1	-1E+10	1	-1E+10	1	-1E+10	1
4902554	94	C	09/15/2023	11:12	-133.239	47.785	0	1915.10	0	1.9770	0	34.5790	0	27.646	0	1890.407	0	-1e10	8	-1e10	8	-1E+10	1	-1E+10	1	-1E+10	1	-1E+10	1	-1E+10	1	-1E+10	1
4902554	94	C	09/15/2023	11:12	-133.239	47.785	0	1925.40	0	1.9680	0	34.5800	0	27.648	0	1900.528	0	-1e10	8	-1e10	8	-1E+10	1	-1E+10	1	-1E+10	1	-1E+10	1	-1E+10	1	-1E+10	1
4902554	94	C	09/15/2023	11:12	-133.239	47.785	0	1935.60	0	1.9600	0	34.5820	0	27.650	0	1910.551	0	-1e10	8	-1e10	8	-1E+10	1	-1E+10	1	-1E+10	1	-1E+10	1	-1E+10	1	-1E+10	1
4902554	94	C	09/15/2023	11:12	-133.239	47.785	0	1945.50	0	1.9560	0	34.5830	0	27.651	0	1920.278	0	-1e10	8	-1e10	8	-1E+10	1	-1E+10	1	-1E+10	1	-1E+10	1	-1E+10	1	-1E+10	1
4902554	94	C	09/15/2023	11:12	-133.239	47.785	0	1955.30	0	1.9500	0	34.5840	0	27.653	0	1929.907	0	-1e10	8	-1e10	8	-1E+10	1	-1E+10	1	-1E+10	1	-1E+10	1	-1E+10	1	-1E+10	1
4902554	94	C	09/15/2023	11:12	-133.239	47.785	0	1965.20	0	1.9420	0	34.5860	0	27.655	0	1939.633	0	-1e10	8	-1e10	8	-1E+10	1	-1E+10	1	-1E+10	1	-1E+10	1	-1E+10	1	-1E+10	1
4902554	94	C	09/15/2023	11:12	-133.239	47.785	0	1975.10	0	1.9370	0	34.5870	0	27.656	0	1949.359	0	-1e10	8	-1e10	8	-1E+10	1	-1E+10	1	-1E+10	1	-1E+10	1	-1E+10	1	-1E+10	1
4902554	94	C	09/15/2023	11:12	-133.239	47.785	0	1985.20	0	1.9330	0	34.5880	0	27.657	0	1959.281	0	-1e10	8	-1e10	8	-1E+10	1	-1E+10	1	-1E+10	1	-1E+10	1	-1E+10	1	-1E+10	1
4902554	94	C	09/15/2023	11:12	-133.239	47.785	0	1995.20	0	1.9280	0	34.5890	0	27.659	0	1969.104	0	-1e10	8	-1e10	8	-1E+10	1	-1E+10	1	-1E+10	1	-1E+10	1	-1E+10	1	-1E+10	1
4902554	94	C	09/15/2023	11:12	-133.239	47.785	0	2005.50	0	1.9220	0	34.5900	0	27.660	0	1979.222	0	-1e10	8	-1e10	8	-1E+10	1	-1E+10	1	-1E+10	1	-1E+10	1	-1E+10	1	-1E+10	1
4902554	94	C	09/15/2023	11:12	-133.239	47.785	0	2013.00	0	1.9150	0	34.5910	0	27.661	0	1986.588	0	-1e10	8	-1e10	8	-1E+10	1	-1E+10	1	-1E+10	1	-1E+10	1	-1E+10	1	-1E+10	1
4902554	94	C	09/15/2023	11:12	-133.239	47.785	0																										
4902554	95	C	09/25/2023	16:07	-133.486	47.730	0	5.30	0	15.1490	0	32.4340	0	23.963	0	5.256	0	-1e10	8	-1e10	8	-1E+10	1	-1E+10	1	-1E+10	1	-1E+10	1	-1E+10	1	-1E+10	1
4902554	95	C	09/25/2023	16:07	-133.486	47.730	0	5.90	0	15.1450	0	32.4340	0	23.964	0	5.851	0	-1e10	8	-1e10	8	-1E+10	1	-1E+10	1	-1E+10	1	-1E+10	1	-1E+10	1	-1E+10	1
4902554	95	C	09/25/2023	16:07	-133.486	47.730	0	7.00	0	15.1450	0	32.4350	0	23.965	0	6.941	0	-1e10	8	-1e10	8	-1E+10	1	-1E+10	1	-1E+10	1	-1E+10	1	-1E+10	1	-1E+10	1
4902554	95	C	09/25/2023	16:07	-133.486	47.730	0	7.80	0	15.1430	0	32.4360	0	23.966	0	7.735	0	-1e10	1	-1e10	1	-1E+10	1	-1E+10	1	-1E+10	1	-1E+10	1	-1E+10	1	-1E+10	1
4902554	95	C	09/25/2023	16:07	-133.486	47.730	0	7.90	0	15.1428	0	32.4361	0	23.966	0	7.834	0	-1e10	8	-1e10	8	-1E+10	1	-1E+10	1	-1E+10	1	-1E+10	1	-1E+10	1	-1E+10	1
4902554	95	C	09/25/2023	16:07	-133.486	47.730	0	9.10	0	15.1400	0	32.4370	0	23.968	0	9.024	0	-1e10	8	-1e10	8	-1E+10	1	-1E+10	1	-1E+10	1	-1E+10	1	-1E+10	1	-1E+10	1
4902554	95	C	09/25/2023	16:07	-133.486	47.730	0	10.10	0	15.1430	0	32.4360	0	23.966	0	10.015	0	-1e10	8	-1e10	8	-1E+10	1	-1E+10	1	-1E+10	1	-1E+10	1	-1E+10	1	-1E+10	1
4902554	95	C	09/25/2023	16:07	-133.486	47.730	0	10.90	0	15.1410	0	32.4350	0	23.966	0	10.809	0	-1e10	8	-1e10	8	-1E+10	1	-1E+10	1	-1E+10	1	-1E+10	1	-1E+10	1	-1E+10	1
4902554	95	C	09/25/2023	16:07	-133.486	47.730	0	11.70	0	15.1420	0	32.4350	0	23.966	0	11.602	0	-1e10	8	-1e10	8	-1E+10	1	-1E+10	1	-1E+10	1	-1E+10	1	-1E+10	1	-1E+10	1
4902554	95	C	09/25/2023	16:07	-133.486	47.730	0	13.00	0	15.1450	0	32.4350	0	23.965	0	12.891	0	-1e10	8	-1e10	8	-1E+10	1	-1E+10	1	-1E+10	1	-1E+10	1	-1E+10	1	-1E+10	1
4902554	95	C	09/25/2023	16:07	-133.486	47.730	0	14.40	0	15.1430	0	32.4350	0	23.966	0	14.279	0	-1e10	8	-1e10	8	-1E+10	1	-1E+10	1	-1E+10	1	-1E+10	1	-1E+10	1	-1E+10	1
4902554	95	C	09/25/2023	16:07	-133.486	47.730	0	15.30	0	15.1450	0	32.4350	0	23.965	0	15.171	0	-1e10	8	-1e10	8	-1E+10	1	-1E+10	1	-1E+10	1	-1E+10	1	-1E+10	1	-1E+10	1
4902554	95	C	09/25/2023	16:07	-133.486	47.730	0	16.10	0	15.1450	0	32.4350	0	23.965	0	15.965	0	-1e10	8	-1e10	8	-1E+10	1	-1E+10	1	-1E+10	1	-1E+10	1	-1E+10	1	-1E+10	1
4902554	95	C	09/25/2023	16:07	-133.486	47.730	0	17.00	0	15.1440	0	32.4350	0	23.965	0	16.857	0	-1e10	8	-1e10	8	-1E+10	1	-1E+10	1	-1E+10	1	-1E+10	1	-1E+10	1	-1E+10	1
4902554	95	C	09/25/2023	16:07	-133.486	47.730	0	17.70	0	15.1450	0	32.4360	0	23.966	0	17.551	0	-1e10	8	-1e10	8	-1E+10	1	-1E+10	1	-1E+10	1	-1E+10	1	-1E+10	1	-1E+10	1
4902554	95	C	09/25/2023	16:07	-133.486	47.730	0	18.80	0	15.1460	0	32.4350	0	23.965	0	18.642	0	-1e10	8	-1e10	8	-1E+10	1	-1E+10	1	-1E+10	1	-1E+10	1	-1E+10	1	-1E+10	1
4902554	95	C	09/25/2023	16:07	-133.486	47.730	0	19.90	0	15.1480	0	32.4350	0	23.965	0	19.733	0	-1e10	8	-1e10	8	-1E+10	1	-1E+10	1	-1E+10	1	-1E+10	1	-1E+10	1	-1E+10	1
4902554	95	C	09/25/2023	16:07	-133.486	47.730	0	20.70	0	15.1480	0	32.4350	0	23.965	0	20.526	0	-1e10	8	-1e10	8	-1E+10	1	-1E+10	1	-1E+10	1	-1E+10	1	-1E+10	1	-1E+10	1
4902554	95	C	09/25/2023	16:07	-133.486	47.730	0	21.80	0	15.1460	0	32.4350	0	23.965	0	21.616	0	-1e10	8	-1e10	8	-1E+10	1	-1E+10	1	-1E+10	1	-1E+10	1	-1E+10	1	-1E+10	1
4902554	95	C	09/25/2023	16:07	-133.486	47.730	0	22.90	0	15.1440	0	32.4360	0	23.966	0	22.707	0	-1e10	8	-1e10	8	-1E+10	1	-1E+10	1	-1E+10	1	-1E+10	1	-1E+10	1	-1E+10	1
4902554	95	C	09/25/2023	16:07	-133.486	47.730	0	23.80	0	15.1420	0	32.4350	0	23.966	0	23.600	0	-1e10	8	-1e10	8	-1E+10	1	-1E+10	1	-1E+10	1	-1E+10	1	-1E+10	1	-1E+10	1
4902554	95	C	09/25/2023	16:07	-133.486	47.730	0	25.10	0	15.1460	0	32.4360	0	23.966	0	24.888	0	-1e10	8	-1e10	8	-1E+10	1	-1E+10	1	-1E+10	1	-1E+10	1	-1E+10	1	-1E+10	1
4902554	95	C	09/25/2023	16:07	-133.486	47.730	0	26.10	0	15.1470	0	32.4350	0	23.965	0	25.880	0	-1e10	8	-1e10	8	-1E+10	1	-1E+10	1	-1E+10	1	-1E+10	1	-1E+10	1	-1E+10	1
4902554	95	C	09/25/2023	16:07	-133.486	47.730	0	27.20	0	15.1410	0	32.4370	0	23.968	0	26.971	0	-1e10	8	-1e10	8	-1E+10	1	-1E+10	1	-1E+10	1	-1E+10	1	-1E+10	1	-1E+10	1
4902554	95	C	09/25/2023	16:07	-133.486	47.730	0	27.90	0	15.1440	0	32.4340	0	23.965	0	27.665	0	-1e10	8	-1e10	8	-1E+10	1	-1E+10	1	-1E+10	1	-1E+10	1	-1E+10	1	-1E+10	1
4902554	95	C	09/25/2023	16:07	-133.486	47.730	0	29.10	0	15.1490	0	32.4350	0	23.965	0	28.854	0	-1e10	8	-1e10	8	-1E+10	1	-1E+10	1	-1E+10	1	-1E+10	1	-1E+10	1	-1E+10	1
4902554	95	C	09/25/2023	16:07	-133.486	47.730	0	30.00	0	15.1440	0	32.4360	0	23.967	0	29.747	0	-1e10	8	-1e10	8	-1E+10	1	-1E+10	1	-1E+10	1	-1E+10	1	-1E+10	1	-1E+10	1
4902554	95	C	09/25/2023	16:07	-133.486	47.730	0	31.10	0	15.1500	0	32.4350	0	23.965	0	30.837	0	-1e10	8	-1e10	8	-1E+10	1	-1E+10	1	-1E+10	1	-1E+10	1	-1E+10	1	-1E+10	1
4902554	95	C	09/25/2023	16:07	-133.486	47.730	0	32.00	0	15.1450	0	32.4350	0	23.966	0	31.730	0	-1e10	8	-1e10	8	-1E+10	1	-1E+10	1	-1E+10	1	-1E+10	1	-1E+10	1	-1E+10	1
4902554	95	C	09/25/2023	16:07	-133.486	47.730	0	33.10	0	15.1330	0	32.4360	0	23.969	0	32.820	0	-1e10	8	-1e10	8	-1E+10	1	-1E+10	1	-1E+10	1	-1E+10	1	-1E+10	1	-1E+10	1
4902554	95	C	09/25/2023	16:07	-133.486	47.730	0	33.90	0	15.0390	0	32.4310	0	23.986	0	33.614	0	-1e10	8	-1e10	8	-1E+10	1	-1E+10	1	-1E+10	1	-1E+10	1	-1E+10	1	-1E+10	1
4902554	95	C	09/25/2023	16:07	-133.486	47.730	0	35.10	0	14.8730	0	32.4390	0	24.027	0	34.803	0	-1e10	8	-1e10	8	-1E+10	1	-1E+10	1	-1E+10	1	-1E+10	1	-1E+10	1	-1E+10	1
4902554	95	C	09/25/2023	16:07	-133.486	47.730	0	36.00	0	14.5980	0	32.4620	0	24.104	0	35.696	0	-1e10	8	-1e10	8	-1E+10	1	-1E+10	1	-1E+10	1	-1E+10	1	-1E+10	1	-1E+10	1
4902554	95	C	09/25/2023	16:07	-133.486	47.730	0	36.90	0	14.4000	0	32.4340	0	24.124	0	36.588	0	-1e10	8	-1e10	8	-1E+10	1	-1E+10	1	-1E+10	1	-1E+10	1	-1E+10	1	-1E+10	1
4902554	95	C	09/25/2023	16:07	-133.486	47.730	0	37.80	0	14.2620	0	32.4380	0	24.156	0	37.480	0	-1e10	8	-1e10	8	-1E+10	1	-1E+10	1	-1E+10	1	-1E+10	1	-1E+10	1	-1E+10	1
4902554	95	C	09/25/2023	16:07	-133.486	47.730	0	39.10	0	14.0220	0	32.4230	0	24.194	0	38.769	0	-1e10	8	-1e10	8	-1E+10	1	-1E+10	1	-1E+10	1	-1E+10	1	-1E+10	1	-1E+10	1
4902554	95	C	09/25/2023	16:07	-133.486	47.730	0	40.20	0	13.8690	0	32.4570	0	24.251	0	39.860	0	-1e10	8	-1e10	8	-1E+10	1	-1E+10	1	-1E+10	1	-1E+10	1	-1E+10	1	-1E+10	1
4902554	95	C	09/25/2023	16:07	-133.486	47.730	0	40.90	0	13.7820	0	32.4380	0	24.254	0	40.554	0	-1e10	8	-1e10	8	-1E+10	1	-1E+10	1	-1E+10	1	-1E+10	1	-1E+10	1	-1E+10	1
4902554	95	C	09/25/2023	16:07	-133.486	47.730	0	42.00	0	12.9060	0	32.4270	0	24.420	0	41.644	0	-1e10	8	-1e10	8	-1E+10	1	-1E+10	1	-1E+10	1	-1E+10	1	-1E+10	1	-1E+10	1
4902554	95	C	09/25/2023	16:07	-133.486	47.730	0	42.90	0	11.4760	0	32.4220	0	24.685	0	42.537	0	-1e10	8	-1e10	8	-1E+10	1	-1E+10	1	-1E+10	1	-1E+10	1	-1E+10	1	-1E+10	1
4902554	95	C	09/25/2023	16:07	-133.486	47.730	0	44.10	0	11.1240	0	32.4330	0	24.757	0	43.726	0	-1e10	8	-1e10	8	-1E+10	1	-1E+10	1	-1E+10	1	-1E+10	1	-1E+10	1	-1E+10	1
4902554	95	C	09/25/2023	16:07	-133.486	47.730	0	45.00	0	11.1050	0	32.4290	0	24.757	0	44.619	0	-1e10	8	-1e10	8	-1E+10	1	-1E+10	1	-1E+10	1	-1E+10	1	-1E+10	1	-1E+10	1
4902554	95	C	09/25/2023	16:07	-133.486	47.730	0	45.90	0	10.9870	0	32.4210	0	24.772	0	45.511	0	-1e10	8	-1e10	8	-1E+10	1	-1E+10	1	-1E+10	1	-1E+10	1	-1E+10	1	-1E+10	1
4902554	95	C	09/25/2023	16:07	-133.486	47.730	0	46.80	0	10.5320	0	32.4330	0	24.860	0	46.403	0	-1e10	8	-1e10	8	-1E+10	1	-1E+10	1	-1E+10	1	-1E+10	1	-1E+10	1	-1E+10	1
4902554	95	C	09/25/2023	16:07	-133.486	47.730	0	47.80	0	10.4190	0	32.4290	0	24.876	0	47.395	0	-1e10	8	-1e10	8	-1E+10	1	-1E+10	1	-1E+10	1	-1E+10	1	-1E+10	1	-1E+10	1
4902554	95	C	09/25/2023	16:07	-133.486	47.730	0	49.00	0	9.8510	0	32.4370	0	24.977	0	48.584	0	-1e10	8	-1e10	8	-1E+10	1	-1E+10	1	-1E+10	1	-1E+10	1	-1E+10	1	-1E+10	1
4902554	95	C	09/25/2023	16:07	-133.486	47.730	0	50.10	0	9.5420	0	32.4230	0	25.016	0	49.675	0	-1e10	8	-1e10	8	-1E+10	1	-1E+10	1	-1E+10	1	-1E+10	1	-1E+10	1	-1E+10	1
4902554	95	C	09/25/2023	16:07	-133.486	47.730	0	51.00	0	9.2120	0	32.4510	0	25.091	0	50.567	0	-1e10	8	-1e10	8	-1E+10	1	-1E+10	1	-1E+10	1	-1E+10	1	-1E+10	1	-1E+10	1
4902554	95	C	09/25/2023	16:07	-133.486	47.730	0	52.10	0	8.9680	0	32.4550	0	25.132	0	51.658	0	-1e10	8	-1e10	8	-1E+10	1	-1E+10	1	-1E+10	1	-1E+10	1	-1E+10	1	-1E+10	1
4902554	95	C	09/25/2023	16:07	-133.486	47.730	0	52.80	0	8.8100	0	32.4520	0	25.154	0	52.352	0	-1e10	8	-1e10	8	-1E+10	1	-1E+10	1	-1E+10	1	-1E+10	1	-1E+10	1	-1E+10	1
4902554	95	C	09/25/2023	16:07	-133.486	47.730	0	53.80	0	8.6220	0	32.4560	0	25.186	0	53.343	0	-1e10	8	-1e10	8	-1E+10	1	-1E+10	1	-1E+10	1	-1E+10	1	-1E+10	1	-1E+10	1
4902554	95	C	09/25/2023	16:07	-133.486	47.730	0	54.90	0	8.5420	0	32.4570	0	25.198	0	54.433	0	-1e10	8	-1e10	8	-1E+10	1	-1E+10	1	-1E+10	1	-1E+10	1	-1E+10	1	-1E+10	1
4902554	95	C	09/25/2023	16:07	-133.486	47.730	0	55.90	0	8.5040	0	32.4570	0	25.204	0	55.425	0	-1e10	8	-1e10	8	-1E+10	1	-1E+10	1	-1E+10	1	-1E+10	1	-1E+10	1	-1E+10	1
4902554	95	C	09/25/2023	16:07	-133.486	47.730	0	57.10	0	8.4800	0	32.4560	0	25.207	0	56.614	0	-1e10	8	-1e10	8	-1E+10	1	-1E+10	1	-1E+10	1	-1E+10	1	-1E+10	1	-1E+10	1
4902554	95	C	09/25/2023	16:07	-133.486	47.730	0	58.00	0	8.4540	0	32.4570	0	25.212	0	57.507	0	-1e10	8	-1e10	8	-1E+10	1	-1E+10	1	-1E+10	1	-1E+10	1	-1E+10	1	-1E+10	1
4902554	95	C	09/25/2023	16:07	-133.486	47.730	0	58.80	0	8.3890	0	32.4580	0	25.222	0	58.300	0	-1e10	8	-1e10	8	-1E+10	1	-1E+10	1	-1E+10	1	-1E+10	1	-1E+10	1	-1E+10	1
4902554	95	C	09/25/2023	16:07	-133.486	47.730	0	59.90	0	8.2870	0	32.4580	0	25.237	0	59.390	0	-1e10	8	-1e10	8	-1E+10	1	-1E+10	1	-1E+10	1	-1E+10	1	-1E+10	1	-1E+10	1
4902554	95	C	09/25/2023	16:07	-133.486	47.730	0	61.10	0	8.1730	0	32.4630	0	25.258	0	60.580	0	-1e10	8	-1e10	8	-1E+10	1	-1E+10	1	-1E+10	1	-1E+10	1	-1E+10	1	-1E+10	1
4902554	95	C	09/25/2023	16:07	-133.486	47.730	0	61.90	0	8.1190	0	32.4670	0	25.269	0	61.373	0	-1e10	8	-1e10	8	-1E+10	1	-1E+10	1	-1E+10	1	-1E+10	1	-1E+10	1	-1E+10	1
4902554	95	C	09/25/2023	16:07	-133.486	47.730	0	63.00	0	8.0590	0	32.4640	0	25.275	0	62.463	0	-1e10	8	-1e10	8	-1E+10	1	-1E+10	1	-1E+10	1	-1E+10	1	-1E+10	1	-1E+10	1
4902554	95	C	09/25/2023	16:07	-133.486	47.730	0	63.90	0	7.9930	0	32.4660	0	25.286	0	63.356	0	-1e10	8	-1e10	8	-1E+10	1	-1E+10	1	-1E+10	1	-1E+10	1	-1E+10	1	-1E+10	1
4902554	95	C	09/25/2023	16:07	-133.486	47.730	0	65.00	0	7.9160	0	32.4700	0	25.301	0	64.446	0	-1e10	8	-1e10	8	-1E+10	1	-1E+10	1	-1E+10	1	-1E+10	1	-1E+10	1	-1E+10	1
4902554	95	C	09/25/2023	16:07	-133.486	47.730	0	66.20	0	7.8290	0	32.4690	0	25.312	0	65.636	0	-1e10	8	-1e10	8	-1E+10	1	-1E+10	1	-1E+10	1	-1E+10	1	-1E+10	1	-1E+10	1
4902554	95	C	09/25/2023	16:07	-133.486	47.730	0	67.00	0	7.8250	0	32.4710	0	25.314	0	66.429	0	-1e10	8	-1e10	8	-1E+10	1	-1E+10	1	-1E+10	1	-1E+10	1	-1E+10	1	-1E+10	1
4902554	95	C	09/25/2023	16:07	-133.486	47.730	0	68.10	0	7.8130	0	32.4710	0	25.316	0	67.519	0	-1e10	8	-1e10	8	-1E+10	1	-1E+10	1	-1E+10	1	-1E+10	1	-1E+10	1	-1E+10	1
4902554	95	C	09/25/2023	16:07	-133.486	47.730	0	68.90	0	7.7990	0	32.4710	0	25.318	0	68.312	0	-1e10	8	-1e10	8	-1E+10	1	-1E+10	1	-1E+10	1	-1E+10	1	-1E+10	1	-1E+10	1
4902554	95	C	09/25/2023	16:07	-133.486	47.730	0	69.80	0	7.7910	0	32.4720	0	25.320	0	69.204	0	-1e10	8	-1e10	8	-1E+10	1	-1E+10	1	-1E+10	1	-1E+10	1	-1E+10	1	-1E+10	1
4902554	95	C	09/25/2023	16:07	-133.486	47.730	0	71.10	0	7.7600	0	32.4680	0	25.321	0	70.493	0	-1e10	8	-1e10	8	-1E+10	1	-1E+10	1	-1E+10	1	-1E+10	1	-1E+10	1	-1E+10	1
4902554	95	C	09/25/2023	16:07	-133.486	47.730	0	72.00	0	7.7210	0	32.4680	0	25.327	0	71.385	0	-1e10	8	-1e10	8	-1E+10	1	-1E+10	1	-1E+10	1	-1E+10	1	-1E+10	1	-1E+10	1
4902554	95	C	09/25/2023	16:07	-133.486	47.730	0	72.90	0	7.6590	0	32.4650	0	25.333	0	72.277	0	-1e10	8	-1e10	8	-1E+10	1	-1E+10	1	-1E+10	1	-1E+10	1	-1E+10	1	-1E+10	1
4902554	95	C	09/25/2023	16:07	-133.486	47.730	0	73.90	0	7.6240	0	32.4620	0	25.336	0	73.269	0	-1e10	8	-1e10	8	-1E+10	1	-1E+10	1	-1E+10	1	-1E+10	1	-1E+10	1	-1E+10	1
4902554	95	C	09/25/2023	16:07	-133.486	47.730	0	75.00	0	7.6300	0	32.4680	0	25.340	0	74.359	0	-1e10	8	-1e10	8	-1E+10	1	-1E+10	1	-1E+10	1	-1E+10	1	-1E+10	1	-1E+10	1
4902554	95	C	09/25/2023	16:07	-133.486	47.730	0	76.00	0	7.6170	0	32.4700	0	25.343	0	75.350	0	-1e10	8	-1e10	8	-1E+10	1	-1E+10	1	-1E+10	1	-1E+10	1	-1E+10	1	-1E+10	1
4902554	95	C	09/25/2023	16:07	-133.486	47.730	0	77.00	0	7.5730	0	32.4690	0	25.348	0	76.341	0	-1e10	8	-1e10	8	-1E+10	1	-1E+10	1	-1E+10	1	-1E+10	1	-1E+10	1	-1E+10	1
4902554	95	C	09/25/2023	16:07	-133.486	47.730	0	78.00	0	7.5570	0	32.4700	0	25.352	0	77.333	0	-1e10	8	-1e10	8	-1E+10	1	-1E+10	1	-1E+10	1	-1E+10	1	-1E+10	1	-1E+10	1
4902554	95	C	09/25/2023	16:07	-133.486	47.730	0	79.00	0	7.5460	0	32.4710	0	25.354	0	78.324	0	-1e10	8	-1e10	8	-1E+10	1	-1E+10	1	-1E+10	1	-1E+10	1	-1E+10	1	-1E+10	1
4902554	95	C	09/25/2023	16:07	-133.486	47.730	0	80.20	0	7.5110	0	32.4720	0	25.360	0	79.514	0	-1e10	8	-1e10	8	-1E+10	1	-1E+10	1	-1E+10	1	-1E+10	1	-1E+10	1	-1E+10	1
4902554	95	C	09/25/2023	16:07	-133.486	47.730	0	81.00	0	7.4540	0	32.4660	0	25.363	0	80.307	0	-1e10	8	-1e10	8	-1E+10	1	-1E+10	1	-1E+10	1	-1E+10	1	-1E+10	1	-1E+10	1
4902554	95	C	09/25/2023	16:07	-133.486	47.730	0	81.90	0	7.4580	0	32.4690	0	25.365	0	81.199	0	-1e10	8	-1e10	8	-1E+10	1	-1E+10	1	-1E+10	1	-1E+10	1	-1E+10	1	-1E+10	1
4902554	95	C	09/25/2023	16:07	-133.486	47.730	0	82.90	0	7.4710	0	32.4710	0	25.364	0	82.190	0	-1e10	8	-1e10	8	-1E+10	1	-1E+10	1	-1E+10	1	-1E+10	1	-1E+10	1	-1E+10	1
4902554	95	C	09/25/2023	16:07	-133.486	47.730	0	83.80	0	7.4670	0	32.4730	0	25.366	0	83.082	0	-1e10	8	-1e10	8	-1E+10	1	-1E+10	1	-1E+10	1	-1E+10	1	-1E+10	1	-1E+10	1
4902554	95	C	09/25/2023	16:07	-133.486	47.730	0	84.80	0	7.4110	0	32.4730	0	25.374	0	84.073	0	-1e10	8	-1e10	8	-1E+10	1	-1E+10	1	-1E+10	1	-1E+10	1	-1E+10	1	-1E+10	1
4902554	95	C	09/25/2023	16:07	-133.486	47.730	0	86.10	0	7.3730	0	32.4730	0	25.379	0	85.362	0	-1e10	8	-1e10	8	-1E+10	1	-1E+10	1	-1E+10	1	-1E+10	1	-1E+10	1	-1E+10	1
4902554	95	C	09/25/2023	16:07	-133.486	47.730	0	87.00	0	7.3790	0	32.4750	0	25.380	0	86.254	0	-1e10	8	-1e10	8	-1E+10	1	-1E+10	1	-1E+10	1	-1E+10	1	-1E+10	1	-1E+10	1
4902554	95	C	09/25/2023	16:07	-133.486	47.730	0	88.10	0	7.3780	0	32.4870	0	25.390	0	87.344	0	-1e10	8	-1e10	8	-1E+10	1	-1E+10	1	-1E+10	1	-1E+10	1	-1E+10	1	-1E+10	1
4902554	95	C	09/25/2023	16:07	-133.486	47.730	0	89.10	0	7.3720	0	32.4910	0	25.394	0	88.335	0	-1e10	8	-1e10	8	-1E+10	1	-1E+10	1	-1E+10	1	-1E+10	1	-1E+10	1	-1E+10	1
4902554	95	C	09/25/2023	16:07	-133.486	47.730	0	90.00	0	7.3720	0	32.4890	0	25.392	0	89.228	0	-1e10	8	-1e10	8	-1E+10	1	-1E+10	1	-1E+10	1	-1E+10	1	-1E+10	1	-1E+10	1
4902554	95	C	09/25/2023	16:07	-133.486	47.730	0	90.70	0	7.4340	0	32.5070	0	25.398	0	89.921	0	-1e10	8	-1e10	8	-1E+10	1	-1E+10	1	-1E+10	1	-1E+10	1	-1E+10	1	-1E+10	1
4902554	95	C	09/25/2023	16:07	-133.486	47.730	0	91.90	0	7.3960	0	32.5060	0	25.402	0	91.111	0	-1e10	8	-1e10	8	-1E+10	1	-1E+10	1	-1E+10	1	-1E+10	1	-1E+10	1	-1E+10	1
4902554	95	C	09/25/2023	16:07	-133.486	47.730	0	93.10	0	7.3630	0	32.5010	0	25.403	0	92.300	0	-1e10	8	-1e10	8	-1E+10	1	-1E+10	1	-1E+10	1	-1E+10	1	-1E+10	1	-1E+10	1
4902554	95	C	09/25/2023	16:07	-133.486	47.730	0	94.10	0	7.4140	0	32.5190	0	25.410	0	93.291	0	-1e10	8	-1e10	8	-1E+10	1	-1E+10	1	-1E+10	1	-1E+10	1	-1E+10	1	-1E+10	1
4902554	95	C	09/25/2023	16:07	-133.486	47.730	0	95.00	0	7.4170	0	32.5210	0	25.411	0	94.183	0	-1e10	8	-1e10	8	-1E+10	1	-1E+10	1	-1E+10	1	-1E+10	1	-1E+10	1	-1E+10	1
4902554	95	C	09/25/2023	16:07	-133.486	47.730	0	96.00	0	7.4010	0	32.5240	0	25.416	0	95.175	0	-1e10	8	-1e10	8	-1E+10	1	-1E+10	1	-1E+10	1	-1E+10	1	-1E+10	1	-1E+10	1
4902554	95	C	09/25/2023	16:07	-133.486	47.730	0	96.90	0	7.3730	0	32.5250	0	25.420	0	96.067	0	-1e10	8	-1e10	8	-1E+10	1	-1E+10	1	-1E+10	1	-1E+10	1	-1E+10	1	-1E+10	1
4902554	95	C	09/25/2023	16:07	-133.486	47.730	0	97.90	0	7.3730	0	32.5250	0	25.420	0	97.058	0	-1e10	8	-1e10	8	-1E+10	1	-1E+10	1	-1E+10	1	-1E+10	1	-1E+10	1	-1E+10	1
4902554	95	C	09/25/2023	16:07	-133.486	47.730	0	98.90	0	7.3500	0	32.5270	0	25.425	0	98.049	0	-1e10	8	-1e10	8	-1E+10	1	-1E+10	1	-1E+10	1	-1E+10	1	-1E+10	1	-1E+10	1
4902554	95	C	09/25/2023	16:07	-133.486	47.730	0	99.90	0	7.3360	0	32.5290	0	25.429	0	99.040	0	-1e10	8	-1e10	8	-1E+10	1	-1E+10	1	-1E+10	1	-1E+10	1	-1E+10	1	-1E+10	1
4902554	95	C	09/25/2023	16:07	-133.486	47.730	0	100.80	0	7.3430	0	32.5330	0	25.431	0	99.932	0	-1e10	8	-1e10	8	-1E+10	1	-1E+10	1	-1E+10	1	-1E+10	1	-1E+10	1	-1E+10	1
4902554	95	C	09/25/2023	16:07	-133.486	47.730	0	101.80	0	7.3400	0	32.5330	0	25.431	0	100.923	0	-1e10	8	-1e10	8	-1E+10	1	-1E+10	1	-1E+10	1	-1E+10	1	-1E+10	1	-1E+10	1
4902554	95	C	09/25/2023	16:07	-133.486	47.730	0	102.70	0	7.3270	0	32.5430	0	25.441	0	101.815	0	-1e10	8	-1e10	8	-1E+10	1	-1E+10	1	-1E+10	1	-1E+10	1	-1E+10	1	-1E+10	1
4902554	95	C	09/25/2023	16:07	-133.486	47.730	0	104.00	0	7.3020	0	32.5470	0	25.448	0	103.104	0	-1e10	8	-1e10	8	-1E+10	1	-1E+10	1	-1E+10	1	-1E+10	1	-1E+10	1	-1E+10	1
4902554	95	C	09/25/2023	16:07	-133.486	47.730	0	105.00	0	7.2910	0	32.5500	0	25.451	0	104.095	0	-1e10	8	-1e10	8	-1E+10	1	-1E+10	1	-1E+10	1	-1E+10	1	-1E+10	1	-1E+10	1
4902554	95	C	09/25/2023	16:07	-133.486	47.730	0	105.70	0	7.2930	0	32.5520	0	25.453	0	104.789	0	-1e10	8	-1e10	8	-1E+10	1	-1E+10	1	-1E+10	1	-1E+10	1	-1E+10	1	-1E+10	1
4902554	95	C	09/25/2023	16:07	-133.486	47.730	0	106.80	0	7.2840	0	32.5550	0	25.456	0	105.879	0	-1e10	8	-1e10	8	-1E+10	1	-1E+10	1	-1E+10	1	-1E+10	1	-1E+10	1	-1E+10	1
4902554	95	C	09/25/2023	16:07	-133.486	47.730	0	107.90	0	7.2440	0	32.5630	0	25.468	0	106.969	0	-1e10	8	-1e10	8	-1E+10	1	-1E+10	1	-1E+10	1	-1E+10	1	-1E+10	1	-1E+10	1
4902554	95	C	09/25/2023	16:07	-133.486	47.730	0	109.10	0	7.2110	0	32.5690	0	25.477	0	108.159	0	-1e10	8	-1e10	8	-1E+10	1	-1E+10	1	-1E+10	1	-1E+10	1	-1E+10	1	-1E+10	1
4902554	95	C	09/25/2023	16:07	-133.486	47.730	0	110.00	0	7.1390	0	32.5770	0	25.493	0	109.051	0	-1e10	8	-1e10	8	-1E+10	1	-1E+10	1	-1E+10	1	-1E+10	1	-1E+10	1	-1E+10	1
4902554	95	C	09/25/2023	16:07	-133.486	47.730	0	110.90	0	7.1320	0	32.5750	0	25.493	0	109.943	0	-1e10	8	-1e10	8	-1E+10	1	-1E+10	1	-1E+10	1	-1E+10	1	-1E+10	1	-1E+10	1
4902554	95	C	09/25/2023	16:07	-133.486	47.730	0	112.00	0	7.1170	0	32.5730	0	25.493	0	111.033	0	-1e10	8	-1e10	8	-1E+10	1	-1E+10	1	-1E+10	1	-1E+10	1	-1E+10	1	-1E+10	1
4902554	95	C	09/25/2023	16:07	-133.486	47.730	0	112.90	0	7.0970	0	32.5810	0	25.502	0	111.925	0	-1e10	8	-1e10	8	-1E+10	1	-1E+10	1	-1E+10	1	-1E+10	1	-1E+10	1	-1E+10	1
4902554	95	C	09/25/2023	16:07	-133.486	47.730	0	113.70	0	7.0730	0	32.5790	0	25.504	0	112.718	0	-1e10	8	-1e10	8	-1E+10	1	-1E+10	1	-1E+10	1	-1E+10	1	-1E+10	1	-1E+10	1
4902554	95	C	09/25/2023	16:07	-133.486	47.730	0	114.80	0	7.0630	0	32.5790	0	25.505	0	113.808	0	-1e10	8	-1e10	8	-1E+10	1	-1E+10	1	-1E+10	1	-1E+10	1	-1E+10	1	-1E+10	1
4902554	95	C	09/25/2023	16:07	-133.486	47.730	0	115.80	0	7.0640	0	32.5820	0	25.507	0	114.799	0	-1e10	8	-1e10	8	-1E+10	1	-1E+10	1	-1E+10	1	-1E+10	1	-1E+10	1	-1E+10	1
4902554	95	C	09/25/2023	16:07	-133.486	47.730	0	116.90	0	7.0610	0	32.6020	0	25.524	0	115.889	0	-1e10	8	-1e10	8	-1E+10	1	-1E+10	1	-1E+10	1	-1E+10	1	-1E+10	1	-1E+10	1
4902554	95	C	09/25/2023	16:07	-133.486	47.730	0	118.10	0	7.0470	0	32.6260	0	25.544	0	117.078	0	-1e10	8	-1e10	8	-1E+10	1	-1E+10	1	-1E+10	1	-1E+10	1	-1E+10	1	-1E+10	1
4902554	95	C	09/25/2023	16:07	-133.486	47.730	0	118.90	0	7.0410	0	32.6330	0	25.551	0	117.871	0	-1e10	8	-1e10	8	-1E+10	1	-1E+10	1	-1E+10	1	-1E+10	1	-1E+10	1	-1E+10	1
4902554	95	C	09/25/2023	16:07	-133.486	47.730	0	119.90	0	7.0090	0	32.6570	0	25.574	0	118.862	0	-1e10	8	-1e10	8	-1E+10	1	-1E+10	1	-1E+10	1	-1E+10	1	-1E+10	1	-1E+10	1
4902554	95	C	09/25/2023	16:07	-133.486	47.730	0	121.00	0	6.9820	0	32.6760	0	25.592	0	119.952	0	-1e10	8	-1e10	8	-1E+10	1	-1E+10	1	-1E+10	1	-1E+10	1	-1E+10	1	-1E+10	1
4902554	95	C	09/25/2023	16:07	-133.486	47.730	0	122.20	0	6.9520	0	32.7370	0	25.645	0	121.142	0	-1e10	8	-1e10	8	-1E+10	1	-1E+10	1	-1E+10	1	-1E+10	1	-1E+10	1	-1E+10	1
4902554	95	C	09/25/2023	16:07	-133.486	47.730	0	122.90	0	6.9600	0	32.7480	0	25.652	0	121.835	0	-1e10	8	-1e10	8	-1E+10	1	-1E+10	1	-1E+10	1	-1E+10	1	-1E+10	1	-1E+10	1
4902554	95	C	09/25/2023	16:07	-133.486	47.730	0	123.80	0	6.9490	0	32.7550	0	25.659	0	122.727	0	-1e10	8	-1e10	8	-1E+10	1	-1E+10	1	-1E+10	1	-1E+10	1	-1E+10	1	-1E+10	1
4902554	95	C	09/25/2023	16:07	-133.486	47.730	0	124.80	0	6.9490	0	32.7550	0	25.659	0	123.718	0	-1e10	8	-1e10	8	-1E+10	1	-1E+10	1	-1E+10	1	-1E+10	1	-1E+10	1	-1E+10	1
4902554	95	C	09/25/2023	16:07	-133.486	47.730	0	125.90	0	6.9520	0	32.7580	0	25.661	0	124.809	0	-1e10	8	-1e10	8	-1E+10	1	-1E+10	1	-1E+10	1	-1E+10	1	-1E+10	1	-1E+10	1
4902554	95	C	09/25/2023	16:07	-133.486	47.730	0	127.00	0	6.9610	0	32.7710	0	25.670	0	125.899	0	-1e10	8	-1e10	8	-1E+10	1	-1E+10	1	-1E+10	1	-1E+10	1	-1E+10	1	-1E+10	1
4902554	95	C	09/25/2023	16:07	-133.486	47.730	0	128.10	0	6.9530	0	32.8030	0	25.696	0	126.989	0	-1e10	8	-1e10	8	-1E+10	1	-1E+10	1	-1E+10	1	-1E+10	1	-1E+10	1	-1E+10	1
4902554	95	C	09/25/2023	16:07	-133.486	47.730	0	129.10	0	6.9280	0	32.8130	0	25.708	0	127.980	0	-1e10	8	-1e10	8	-1E+10	1	-1E+10	1	-1E+10	1	-1E+10	1	-1E+10	1	-1E+10	1
4902554	95	C	09/25/2023	16:07	-133.486	47.730	0	130.00	0	6.9100	0	32.8160	0	25.712	0	128.872	0	-1e10	8	-1e10	8	-1E+10	1	-1E+10	1	-1E+10	1	-1E+10	1	-1E+10	1	-1E+10	1
4902554	95	C	09/25/2023	16:07	-133.486	47.730	0	131.10	0	6.8730	0	32.8240	0	25.724	0	129.962	0	-1e10	8	-1e10	8	-1E+10	1	-1E+10	1	-1E+10	1	-1E+10	1	-1E+10	1	-1E+10	1
4902554	95	C	09/25/2023	16:07	-133.486	47.730	0	132.10	0	6.7990	0	32.8560	0	25.759	0	130.953	0	-1e10	8	-1e10	8	-1E+10	1	-1E+10	1	-1E+10	1	-1E+10	1	-1E+10	1	-1E+10	1
4902554	95	C	09/25/2023	16:07	-133.486	47.730	0	132.90	0	6.7810	0	32.8860	0	25.785	0	131.746	0	-1e10	8	-1e10	8	-1E+10	1	-1E+10	1	-1E+10	1	-1E+10	1	-1E+10	1	-1E+10	1
4902554	95	C	09/25/2023	16:07	-133.486	47.730	0	133.70	0	6.7730	0	32.8990	0	25.796	0	132.538	0	-1e10	8	-1e10	8	-1E+10	1	-1E+10	1	-1E+10	1	-1E+10	1	-1E+10	1	-1E+10	1
4902554	95	C	09/25/2023	16:07	-133.486	47.730	0	134.90	0	6.7310	0	32.9430	0	25.836	0	133.728	0	-1e10	8	-1e10	8	-1E+10	1	-1E+10	1	-1E+10	1	-1E+10	1	-1E+10	1	-1E+10	1
4902554	95	C	09/25/2023	16:07	-133.486	47.730	0	135.90	0	6.6870	0	32.9680	0	25.862	0	134.719	0	-1e10	8	-1e10	8	-1E+10	1	-1E+10	1	-1E+10	1	-1E+10	1	-1E+10	1	-1E+10	1
4902554	95	C	09/25/2023	16:07	-133.486	47.730	0	136.80	0	6.6410	0	32.9940	0	25.888	0	135.610	0	-1e10	8	-1e10	8	-1E+10	1	-1E+10	1	-1E+10	1	-1E+10	1	-1E+10	1	-1E+10	1
4902554	95	C	09/25/2023	16:07	-133.486	47.730	0	138.10	0	6.5500	0	33.0440	0	25.939	0	136.899	0	-1e10	8	-1e10	8	-1E+10	1	-1E+10	1	-1E+10	1	-1E+10	1	-1E+10	1	-1E+10	1
4902554	95	C	09/25/2023	16:07	-133.486	47.730	0	139.00	0	6.5190	0	33.0540	0	25.951	0	137.791	0	-1e10	8	-1e10	8	-1E+10	1	-1E+10	1	-1E+10	1	-1E+10	1	-1E+10	1	-1E+10	1
4902554	95	C	09/25/2023	16:07	-133.486	47.730	0	140.00	0	6.3820	0	33.1250	0	26.025	0	138.782	0	-1e10	8	-1e10	8	-1E+10	1	-1E+10	1	-1E+10	1	-1E+10	1	-1E+10	1	-1E+10	1
4902554	95	C	09/25/2023	16:07	-133.486	47.730	0	141.00	0	6.2890	0	33.1650	0	26.068	0	139.773	0	-1e10	8	-1e10	8	-1E+10	1	-1E+10	1	-1E+10	1	-1E+10	1	-1E+10	1	-1E+10	1
4902554	95	C	09/25/2023	16:07	-133.486	47.730	0	141.80	0	6.2830	0	33.1870	0	26.086	0	140.565	0	-1e10	8	-1e10	8	-1E+10	1	-1E+10	1	-1E+10	1	-1E+10	1	-1E+10	1	-1E+10	1
4902554	95	C	09/25/2023	16:07	-133.486	47.730	0	142.90	0	6.2570	0	33.2070	0	26.105	0	141.655	0	-1e10	8	-1e10	8	-1E+10	1	-1E+10	1	-1E+10	1	-1E+10	1	-1E+10	1	-1E+10	1
4902554	95	C	09/25/2023	16:07	-133.486	47.730	0	144.00	0	6.2180	0	33.2360	0	26.133	0	142.745	0	-1e10	8	-1e10	8	-1E+10	1	-1E+10	1	-1E+10	1	-1E+10	1	-1E+10	1	-1E+10	1
4902554	95	C	09/25/2023	16:07	-133.486	47.730	0	144.80	0	6.1710	0	33.2620	0	26.160	0	143.538	0	-1e10	8	-1e10	8	-1E+10	1	-1E+10	1	-1E+10	1	-1E+10	1	-1E+10	1	-1E+10	1
4902554	95	C	09/25/2023	16:07	-133.486	47.730	0	145.70	0	6.1260	0	33.2850	0	26.184	0	144.430	0	-1e10	8	-1e10	8	-1E+10	1	-1E+10	1	-1E+10	1	-1E+10	1	-1E+10	1	-1E+10	1
4902554	95	C	09/25/2023	16:07	-133.486	47.730	0	146.90	0	6.0970	0	33.2940	0	26.194	0	145.619	0	-1e10	8	-1e10	8	-1E+10	1	-1E+10	1	-1E+10	1	-1E+10	1	-1E+10	1	-1E+10	1
4902554	95	C	09/25/2023	16:07	-133.486	47.730	0	148.20	0	6.0750	0	33.3090	0	26.209	0	146.907	0	-1e10	8	-1e10	8	-1E+10	1	-1E+10	1	-1E+10	1	-1E+10	1	-1E+10	1	-1E+10	1
4902554	95	C	09/25/2023	16:07	-133.486	47.730	0	149.00	0	6.0710	0	33.3150	0	26.214	0	147.700	0	-1e10	8	-1e10	8	-1E+10	1	-1E+10	1	-1E+10	1	-1E+10	1	-1E+10	1	-1E+10	1
4902554	95	C	09/25/2023	16:07	-133.486	47.730	0	149.90	0	6.0620	0	33.3320	0	26.229	0	148.592	0	-1e10	8	-1e10	8	-1E+10	1	-1E+10	1	-1E+10	1	-1E+10	1	-1E+10	1	-1E+10	1
4902554	95	C	09/25/2023	16:07	-133.486	47.730	0	150.80	0	6.0530	0	33.3430	0	26.239	0	149.484	0	-1e10	8	-1e10	8	-1E+10	1	-1E+10	1	-1E+10	1	-1E+10	1	-1E+10	1	-1E+10	1
4902554	95	C	09/25/2023	16:07	-133.486	47.730	0	151.70	0	6.0300	0	33.3580	0	26.253	0	150.375	0	-1e10	8	-1e10	8	-1E+10	1	-1E+10	1	-1E+10	1	-1E+10	1	-1E+10	1	-1E+10	1
4902554	95	C	09/25/2023	16:07	-133.486	47.730	0	153.00	0	6.0150	0	33.3640	0	26.260	0	151.664	0	-1e10	8	-1e10	8	-1E+10	1	-1E+10	1	-1E+10	1	-1E+10	1	-1E+10	1	-1E+10	1
4902554	95	C	09/25/2023	16:07	-133.486	47.730	0	154.30	0	6.0050	0	33.3710	0	26.267	0	152.952	0	-1e10	8	-1e10	8	-1E+10	1	-1E+10	1	-1E+10	1	-1E+10	1	-1E+10	1	-1E+10	1
4902554	95	C	09/25/2023	16:07	-133.486	47.730	0	155.10	0	5.9750	0	33.3790	0	26.277	0	153.745	0	-1e10	8	-1e10	8	-1E+10	1	-1E+10	1	-1E+10	1	-1E+10	1	-1E+10	1	-1E+10	1
4902554	95	C	09/25/2023	16:07	-133.486	47.730	0	155.90	0	5.9460	0	33.3890	0	26.288	0	154.537	0	-1e10	8	-1e10	8	-1E+10	1	-1E+10	1	-1E+10	1	-1E+10	1	-1E+10	1	-1E+10	1
4902554	95	C	09/25/2023	16:07	-133.486	47.730	0	156.80	0	5.9180	0	33.4010	0	26.301	0	155.429	0	-1e10	8	-1e10	8	-1E+10	1	-1E+10	1	-1E+10	1	-1E+10	1	-1E+10	1	-1E+10	1
4902554	95	C	09/25/2023	16:07	-133.486	47.730	0	157.60	0	5.9070	0	33.4110	0	26.310	0	156.222	0	-1e10	8	-1e10	8	-1E+10	1	-1E+10	1	-1E+10	1	-1E+10	1	-1E+10	1	-1E+10	1
4902554	95	C	09/25/2023	16:07	-133.486	47.730	0	158.90	0	5.8840	0	33.4230	0	26.323	0	157.510	0	-1e10	8	-1e10	8	-1E+10	1	-1E+10	1	-1E+10	1	-1E+10	1	-1E+10	1	-1E+10	1
4902554	95	C	09/25/2023	16:07	-133.486	47.730	0	160.30	0	5.8720	0	33.4350	0	26.334	0	158.897	0	-1e10	8	-1e10	8	-1E+10	1	-1E+10	1	-1E+10	1	-1E+10	1	-1E+10	1	-1E+10	1
4902554	95	C	09/25/2023	16:07	-133.486	47.730	0	161.20	0	5.8740	0	33.4420	0	26.339	0	159.789	0	-1e10	8	-1e10	8	-1E+10	1	-1E+10	1	-1E+10	1	-1E+10	1	-1E+10	1	-1E+10	1
4902554	95	C	09/25/2023	16:07	-133.486	47.730	0	162.00	0	5.8370	0	33.4550	0	26.354	0	160.582	0	-1e10	8	-1e10	8	-1E+10	1	-1E+10	1	-1E+10	1	-1E+10	1	-1E+10	1	-1E+10	1
4902554	95	C	09/25/2023	16:07	-133.486	47.730	0	162.90	0	5.8240	0	33.4690	0	26.366	0	161.473	0	-1e10	8	-1e10	8	-1E+10	1	-1E+10	1	-1E+10	1	-1E+10	1	-1E+10	1	-1E+10	1
4902554	95	C	09/25/2023	16:07	-133.486	47.730	0	163.80	0	5.8090	0	33.4750	0	26.373	0	162.365	0	-1e10	8	-1e10	8	-1E+10	1	-1E+10	1	-1E+10	1	-1E+10	1	-1E+10	1	-1E+10	1
4902554	95	C	09/25/2023	16:07	-133.486	47.730	0	164.70	0	5.7840	0	33.4900	0	26.388	0	163.257	0	-1e10	8	-1e10	8	-1E+10	1	-1E+10	1	-1E+10	1	-1E+10	1	-1E+10	1	-1E+10	1
4902554	95	C	09/25/2023	16:07	-133.486	47.730	0	165.90	0	5.7680	0	33.5040	0	26.401	0	164.446	0	-1e10	8	-1e10	8	-1E+10	1	-1E+10	1	-1E+10	1	-1E+10	1	-1E+10	1	-1E+10	1
4902554	95	C	09/25/2023	16:07	-133.486	47.730	0	167.30	0	5.7570	0	33.5240	0	26.418	0	165.833	0	-1e10	8	-1e10	8	-1E+10	1	-1E+10	1	-1E+10	1	-1E+10	1	-1E+10	1	-1E+10	1
4902554	95	C	09/25/2023	16:07	-133.486	47.730	0	168.20	0	5.7510	0	33.5320	0	26.425	0	166.725	0	-1e10	8	-1e10	8	-1E+10	1	-1E+10	1	-1E+10	1	-1E+10	1	-1E+10	1	-1E+10	1
4902554	95	C	09/25/2023	16:07	-133.486	47.730	0	169.10	0	5.7330	0	33.5430	0	26.436	0	167.616	0	-1e10	8	-1e10	8	-1E+10	1	-1E+10	1	-1E+10	1	-1E+10	1	-1E+10	1	-1E+10	1
4902554	95	C	09/25/2023	16:07	-133.486	47.730	0	170.00	0	5.7270	0	33.5480	0	26.441	0	168.508	0	-1e10	8	-1e10	8	-1E+10	1	-1E+10	1	-1E+10	1	-1E+10	1	-1E+10	1	-1E+10	1
4902554	95	C	09/25/2023	16:07	-133.486	47.730	0	170.80	0	5.7220	0	33.5540	0	26.446	0	169.301	0	-1e10	8	-1e10	8	-1E+10	1	-1E+10	1	-1E+10	1	-1E+10	1	-1E+10	1	-1E+10	1
4902554	95	C	09/25/2023	16:07	-133.486	47.730	0	171.70	0	5.7220	0	33.5550	0	26.447	0	170.193	0	-1e10	8	-1e10	8	-1E+10	1	-1E+10	1	-1E+10	1	-1E+10	1	-1E+10	1	-1E+10	1
4902554	95	C	09/25/2023	16:07	-133.486	47.730	0	172.60	0	5.7210	0	33.5570	0	26.449	0	171.084	0	-1e10	8	-1e10	8	-1E+10	1	-1E+10	1	-1E+10	1	-1E+10	1	-1E+10	1	-1E+10	1
4902554	95	C	09/25/2023	16:07	-133.486	47.730	0	173.90	0	5.7170	0	33.5620	0	26.453	0	172.372	0	-1e10	8	-1e10	8	-1E+10	1	-1E+10	1	-1E+10	1	-1E+10	1	-1E+10	1	-1E+10	1
4902554	95	C	09/25/2023	16:07	-133.486	47.730	0	175.20	0	5.7150	0	33.5670	0	26.457	0	173.660	0	-1e10	8	-1e10	8	-1E+10	1	-1E+10	1	-1E+10	1	-1E+10	1	-1E+10	1	-1E+10	1
4902554	95	C	09/25/2023	16:07	-133.486	47.730	0	176.00	0	5.7140	0	33.5680	0	26.458	0	174.453	0	-1e10	8	-1e10	8	-1E+10	1	-1E+10	1	-1E+10	1	-1E+10	1	-1E+10	1	-1E+10	1
4902554	95	C	09/25/2023	16:07	-133.486	47.730	0	176.90	0	5.7270	0	33.5760	0	26.463	0	175.345	0	-1e10	8	-1e10	8	-1E+10	1	-1E+10	1	-1E+10	1	-1E+10	1	-1E+10	1	-1E+10	1
4902554	95	C	09/25/2023	16:07	-133.486	47.730	0	177.70	0	5.7010	0	33.5970	0	26.483	0	176.137	0	-1e10	8	-1e10	8	-1E+10	1	-1E+10	1	-1E+10	1	-1E+10	1	-1E+10	1	-1E+10	1
4902554	95	C	09/25/2023	16:07	-133.486	47.730	0	178.60	0	5.6710	0	33.6190	0	26.504	0	177.029	0	-1e10	8	-1e10	8	-1E+10	1	-1E+10	1	-1E+10	1	-1E+10	1	-1E+10	1	-1E+10	1
4902554	95	C	09/25/2023	16:07	-133.486	47.730	0	179.50	0	5.6380	0	33.6330	0	26.519	0	177.921	0	-1e10	8	-1e10	8	-1E+10	1	-1E+10	1	-1E+10	1	-1E+10	1	-1E+10	1	-1E+10	1
4902554	95	C	09/25/2023	16:07	-133.486	47.730	0	180.90	0	5.6330	0	33.6440	0	26.528	0	179.308	0	-1e10	8	-1e10	8	-1E+10	1	-1E+10	1	-1E+10	1	-1E+10	1	-1E+10	1	-1E+10	1
4902554	95	C	09/25/2023	16:07	-133.486	47.730	0	182.30	0	5.6260	0	33.6510	0	26.535	0	180.695	0	-1e10	8	-1e10	8	-1E+10	1	-1E+10	1	-1E+10	1	-1E+10	1	-1E+10	1	-1E+10	1
4902554	95	C	09/25/2023	16:07	-133.486	47.730	0	183.20	0	5.6240	0	33.6530	0	26.536	0	181.587	0	-1e10	8	-1e10	8	-1E+10	1	-1E+10	1	-1E+10	1	-1E+10	1	-1E+10	1	-1E+10	1
4902554	95	C	09/25/2023	16:07	-133.486	47.730	0	184.20	0	5.6200	0	33.6560	0	26.539	0	182.577	0	-1e10	8	-1e10	8	-1E+10	1	-1E+10	1	-1E+10	1	-1E+10	1	-1E+10	1	-1E+10	1
4902554	95	C	09/25/2023	16:07	-133.486	47.730	0	185.10	0	5.6130	0	33.6610	0	26.544	0	183.469	0	-1e10	8	-1e10	8	-1E+10	1	-1E+10	1	-1E+10	1	-1E+10	1	-1E+10	1	-1E+10	1
4902554	95	C	09/25/2023	16:07	-133.486	47.730	0	186.10	0	5.5960	0	33.6710	0	26.554	0	184.460	0	-1e10	8	-1e10	8	-1E+10	1	-1E+10	1	-1E+10	1	-1E+10	1	-1E+10	1	-1E+10	1
4902554	95	C	09/25/2023	16:07	-133.486	47.730	0	187.00	0	5.5670	0	33.6820	0	26.566	0	185.351	0	-1e10	8	-1e10	8	-1E+10	1	-1E+10	1	-1E+10	1	-1E+10	1	-1E+10	1	-1E+10	1
4902554	95	C	09/25/2023	16:07	-133.486	47.730	0	188.00	0	5.5510	0	33.6880	0	26.573	0	186.342	0	-1e10	8	-1e10	8	-1E+10	1	-1E+10	1	-1E+10	1	-1E+10	1	-1E+10	1	-1E+10	1
4902554	95	C	09/25/2023	16:07	-133.486	47.730	0	188.90	0	5.5420	0	33.6930	0	26.578	0	187.234	0	-1e10	8	-1e10	8	-1E+10	1	-1E+10	1	-1E+10	1	-1E+10	1	-1E+10	1	-1E+10	1
4902554	95	C	09/25/2023	16:07	-133.486	47.730	0	189.80	0	5.5330	0	33.6960	0	26.581	0	188.125	0	-1e10	8	-1e10	8	-1E+10	1	-1E+10	1	-1E+10	1	-1E+10	1	-1E+10	1	-1E+10	1
4902554	95	C	09/25/2023	16:07	-133.486	47.730	0	191.00	0	5.5230	0	33.7010	0	26.587	0	189.314	0	-1e10	8	-1e10	8	-1E+10	1	-1E+10	1	-1E+10	1	-1E+10	1	-1E+10	1	-1E+10	1
4902554	95	C	09/25/2023	16:07	-133.486	47.730	0	192.20	0	5.5190	0	33.7030	0	26.589	0	190.503	0	-1e10	8	-1e10	8	-1E+10	1	-1E+10	1	-1E+10	1	-1E+10	1	-1E+10	1	-1E+10	1
4902554	95	C	09/25/2023	16:07	-133.486	47.730	0	192.90	0	5.5200	0	33.7050	0	26.590	0	191.197	0	-1e10	8	-1e10	8	-1E+10	1	-1E+10	1	-1E+10	1	-1E+10	1	-1E+10	1	-1E+10	1
4902554	95	C	09/25/2023	16:07	-133.486	47.730	0	193.90	0	5.5140	0	33.7070	0	26.592	0	192.187	0	-1e10	8	-1e10	8	-1E+10	1	-1E+10	1	-1E+10	1	-1E+10	1	-1E+10	1	-1E+10	1
4902554	95	C	09/25/2023	16:07	-133.486	47.730	0	195.10	0	5.4980	0	33.7120	0	26.598	0	193.376	0	-1e10	8	-1e10	8	-1E+10	1	-1E+10	1	-1E+10	1	-1E+10	1	-1E+10	1	-1E+10	1
4902554	95	C	09/25/2023	16:07	-133.486	47.730	0	195.80	0	5.4860	0	33.7140	0	26.601	0	194.070	0	-1e10	8	-1e10	8	-1E+10	1	-1E+10	1	-1E+10	1	-1E+10	1	-1E+10	1	-1E+10	1
4902554	95	C	09/25/2023	16:07	-133.486	47.730	0	196.80	0	5.4710	0	33.7160	0	26.605	0	195.060	0	-1e10	8	-1e10	8	-1E+10	1	-1E+10	1	-1E+10	1	-1E+10	1	-1E+10	1	-1E+10	1
4902554	95	C	09/25/2023	16:07	-133.486	47.730	0	198.00	0	5.4350	0	33.7250	0	26.616	0	196.249	0	-1e10	8	-1e10	8	-1E+10	1	-1E+10	1	-1E+10	1	-1E+10	1	-1E+10	1	-1E+10	1
4902554	95	C	09/25/2023	16:07	-133.486	47.730	0	198.80	0	5.4250	0	33.7270	0	26.619	0	197.042	0	-1e10	8	-1e10	8	-1E+10	1	-1E+10	1	-1E+10	1	-1E+10	1	-1E+10	1	-1E+10	1
4902554	95	C	09/25/2023	16:07	-133.486	47.730	0	199.90	0	5.4120	0	33.7290	0	26.622	0	198.132	0	-1e10	8	-1e10	8	-1E+10	1	-1E+10	1	-1E+10	1	-1E+10	1	-1E+10	1	-1E+10	1
4902554	95	C	09/25/2023	16:07	-133.486	47.730	0	201.10	0	5.4020	0	33.7300	0	26.624	0	199.320	0	-1e10	8	-1e10	8	-1E+10	1	-1E+10	1	-1E+10	1	-1E+10	1	-1E+10	1	-1E+10	1
4902554	95	C	09/25/2023	16:07	-133.486	47.730	0	201.90	0	5.3970	0	33.7320	0	26.626	0	200.113	0	-1e10	8	-1e10	8	-1E+10	1	-1E+10	1	-1E+10	1	-1E+10	1	-1E+10	1	-1E+10	1
4902554	95	C	09/25/2023	16:07	-133.486	47.730	0	202.80	0	5.3920	0	33.7320	0	26.627	0	201.004	0	-1e10	8	-1e10	8	-1E+10	1	-1E+10	1	-1E+10	1	-1E+10	1	-1E+10	1	-1E+10	1
4902554	95	C	09/25/2023	16:07	-133.486	47.730	0	204.00	0	5.3830	0	33.7330	0	26.629	0	202.193	0	-1e10	8	-1e10	8	-1E+10	1	-1E+10	1	-1E+10	1	-1E+10	1	-1E+10	1	-1E+10	1
4902554	95	C	09/25/2023	16:07	-133.486	47.730	0	205.30	0	5.3720	0	33.7350	0	26.631	0	203.481	0	-1e10	8	-1e10	8	-1E+10	1	-1E+10	1	-1E+10	1	-1E+10	1	-1E+10	1	-1E+10	1
4902554	95	C	09/25/2023	16:07	-133.486	47.730	0	206.10	0	5.3690	0	33.7360	0	26.633	0	204.274	0	-1e10	8	-1e10	8	-1E+10	1	-1E+10	1	-1E+10	1	-1E+10	1	-1E+10	1	-1E+10	1
4902554	95	C	09/25/2023	16:07	-133.486	47.730	0	207.00	0	5.3540	0	33.7380	0	26.636	0	205.165	0	-1e10	8	-1e10	8	-1E+10	1	-1E+10	1	-1E+10	1	-1E+10	1	-1E+10	1	-1E+10	1
4902554	95	C	09/25/2023	16:07	-133.486	47.730	0	207.80	0	5.3440	0	33.7390	0	26.638	0	205.958	0	-1e10	8	-1e10	8	-1E+10	1	-1E+10	1	-1E+10	1	-1E+10	1	-1E+10	1	-1E+10	1
4902554	95	C	09/25/2023	16:07	-133.486	47.730	0	208.60	0	5.3440	0	33.7380	0	26.637	0	206.750	0	-1e10	8	-1e10	8	-1E+10	1	-1E+10	1	-1E+10	1	-1E+10	1	-1E+10	1	-1E+10	1
4902554	95	C	09/25/2023	16:07	-133.486	47.730	0	209.90	0	5.3320	0	33.7390	0	26.639	0	208.038	0	-1e10	8	-1e10	8	-1E+10	1	-1E+10	1	-1E+10	1	-1E+10	1	-1E+10	1	-1E+10	1
4902554	95	C	09/25/2023	16:07	-133.486	47.730	0	211.20	0	5.3160	0	33.7410	0	26.643	0	209.326	0	-1e10	8	-1e10	8	-1E+10	1	-1E+10	1	-1E+10	1	-1E+10	1	-1E+10	1	-1E+10	1
4902554	95	C	09/25/2023	16:07	-133.486	47.730	0	212.10	0	5.3090	0	33.7420	0	26.644	0	210.217	0	-1e10	8	-1e10	8	-1E+10	1	-1E+10	1	-1E+10	1	-1E+10	1	-1E+10	1	-1E+10	1
4902554	95	C	09/25/2023	16:07	-133.486	47.730	0	213.00	0	5.2960	0	33.7440	0	26.647	0	211.109	0	-1e10	8	-1e10	8	-1E+10	1	-1E+10	1	-1E+10	1	-1E+10	1	-1E+10	1	-1E+10	1
4902554	95	C	09/25/2023	16:07	-133.486	47.730	0	213.80	0	5.2920	0	33.7430	0	26.647	0	211.901	0	-1e10	8	-1e10	8	-1E+10	1	-1E+10	1	-1E+10	1	-1E+10	1	-1E+10	1	-1E+10	1
4902554	95	C	09/25/2023	16:07	-133.486	47.730	0	214.70	0	5.2870	0	33.7440	0	26.649	0	212.793	0	-1e10	8	-1e10	8	-1E+10	1	-1E+10	1	-1E+10	1	-1E+10	1	-1E+10	1	-1E+10	1
4902554	95	C	09/25/2023	16:07	-133.486	47.730	0	215.90	0	5.2640	0	33.7460	0	26.653	0	213.982	0	-1e10	8	-1e10	8	-1E+10	1	-1E+10	1	-1E+10	1	-1E+10	1	-1E+10	1	-1E+10	1
4902554	95	C	09/25/2023	16:07	-133.486	47.730	0	217.30	0	5.2550	0	33.7470	0	26.655	0	215.369	0	-1e10	8	-1e10	8	-1E+10	1	-1E+10	1	-1E+10	1	-1E+10	1	-1E+10	1	-1E+10	1
4902554	95	C	09/25/2023	16:07	-133.486	47.730	0	218.10	0	5.2540	0	33.7460	0	26.654	0	216.161	0	-1e10	8	-1e10	8	-1E+10	1	-1E+10	1	-1E+10	1	-1E+10	1	-1E+10	1	-1E+10	1
4902554	95	C	09/25/2023	16:07	-133.486	47.730	0	219.00	0	5.2470	0	33.7480	0	26.656	0	217.053	0	-1e10	8	-1e10	8	-1E+10	1	-1E+10	1	-1E+10	1	-1E+10	1	-1E+10	1	-1E+10	1
4902554	95	C	09/25/2023	16:07	-133.486	47.730	0	219.90	0	5.2340	0	33.7490	0	26.659	0	217.944	0	-1e10	8	-1e10	8	-1E+10	1	-1E+10	1	-1E+10	1	-1E+10	1	-1E+10	1	-1E+10	1
4902554	95	C	09/25/2023	16:07	-133.486	47.730	0	220.80	0	5.2300	0	33.7480	0	26.658	0	218.836	0	-1e10	8	-1e10	8	-1E+10	1	-1E+10	1	-1E+10	1	-1E+10	1	-1E+10	1	-1E+10	1
4902554	95	C	09/25/2023	16:07	-133.486	47.730	0	221.60	0	5.1920	0	33.7570	0	26.670	0	219.628	0	-1e10	8	-1e10	8	-1E+10	1	-1E+10	1	-1E+10	1	-1E+10	1	-1E+10	1	-1E+10	1
4902554	95	C	09/25/2023	16:07	-133.486	47.730	0	222.90	0	5.1670	0	33.7550	0	26.671	0	220.916	0	-1e10	8	-1e10	8	-1E+10	1	-1E+10	1	-1E+10	1	-1E+10	1	-1E+10	1	-1E+10	1
4902554	95	C	09/25/2023	16:07	-133.486	47.730	0	224.30	0	5.1520	0	33.7560	0	26.674	0	222.303	0	-1e10	8	-1e10	8	-1E+10	1	-1E+10	1	-1E+10	1	-1E+10	1	-1E+10	1	-1E+10	1
4902554	95	C	09/25/2023	16:07	-133.486	47.730	0	225.10	0	5.1370	0	33.7570	0	26.676	0	223.095	0	-1e10	8	-1e10	8	-1E+10	1	-1E+10	1	-1E+10	1	-1E+10	1	-1E+10	1	-1E+10	1
4902554	95	C	09/25/2023	16:07	-133.486	47.730	0	226.00	0	5.1180	0	33.7590	0	26.680	0	223.986	0	-1e10	8	-1e10	8	-1E+10	1	-1E+10	1	-1E+10	1	-1E+10	1	-1E+10	1	-1E+10	1
4902554	95	C	09/25/2023	16:07	-133.486	47.730	0	226.90	0	5.1100	0	33.7600	0	26.682	0	224.878	0	-1e10	8	-1e10	8	-1E+10	1	-1E+10	1	-1E+10	1	-1E+10	1	-1E+10	1	-1E+10	1
4902554	95	C	09/25/2023	16:07	-133.486	47.730	0	227.80	0	5.1020	0	33.7600	0	26.683	0	225.769	0	-1e10	8	-1e10	8	-1E+10	1	-1E+10	1	-1E+10	1	-1E+10	1	-1E+10	1	-1E+10	1
4902554	95	C	09/25/2023	16:07	-133.486	47.730	0	228.70	0	5.0950	0	33.7610	0	26.684	0	226.661	0	-1e10	8	-1e10	8	-1E+10	1	-1E+10	1	-1E+10	1	-1E+10	1	-1E+10	1	-1E+10	1
4902554	95	C	09/25/2023	16:07	-133.486	47.730	0	229.60	0	5.0820	0	33.7630	0	26.687	0	227.552	0	-1e10	8	-1e10	8	-1E+10	1	-1E+10	1	-1E+10	1	-1E+10	1	-1E+10	1	-1E+10	1
4902554	95	C	09/25/2023	16:07	-133.486	47.730	0	230.90	0	5.0500	0	33.7660	0	26.693	0	228.840	0	-1e10	8	-1e10	8	-1E+10	1	-1E+10	1	-1E+10	1	-1E+10	1	-1E+10	1	-1E+10	1
4902554	95	C	09/25/2023	16:07	-133.486	47.730	0	232.20	0	5.0320	0	33.7640	0	26.694	0	230.128	0	-1e10	8	-1e10	8	-1E+10	1	-1E+10	1	-1E+10	1	-1E+10	1	-1E+10	1	-1E+10	1
4902554	95	C	09/25/2023	16:07	-133.486	47.730	0	233.10	0	5.0230	0	33.7650	0	26.696	0	231.019	0	-1e10	8	-1e10	8	-1E+10	1	-1E+10	1	-1E+10	1	-1E+10	1	-1E+10	1	-1E+10	1
4902554	95	C	09/25/2023	16:07	-133.486	47.730	0	234.00	0	5.0140	0	33.7660	0	26.698	0	231.911	0	-1e10	8	-1e10	8	-1E+10	1	-1E+10	1	-1E+10	1	-1E+10	1	-1E+10	1	-1E+10	1
4902554	95	C	09/25/2023	16:07	-133.486	47.730	0	234.90	0	5.0050	0	33.7660	0	26.699	0	232.802	0	-1e10	8	-1e10	8	-1E+10	1	-1E+10	1	-1E+10	1	-1E+10	1	-1E+10	1	-1E+10	1
4902554	95	C	09/25/2023	16:07	-133.486	47.730	0	235.80	0	4.9990	0	33.7660	0	26.699	0	233.694	0	-1e10	8	-1e10	8	-1E+10	1	-1E+10	1	-1E+10	1	-1E+10	1	-1E+10	1	-1E+10	1
4902554	95	C	09/25/2023	16:07	-133.486	47.730	0	236.70	0	4.9860	0	33.7690	0	26.703	0	234.585	0	-1e10	8	-1e10	8	-1E+10	1	-1E+10	1	-1E+10	1	-1E+10	1	-1E+10	1	-1E+10	1
4902554	95	C	09/25/2023	16:07	-133.486	47.730	0	237.90	0	4.9820	0	33.7670	0	26.702	0	235.774	0	-1e10	8	-1e10	8	-1E+10	1	-1E+10	1	-1E+10	1	-1E+10	1	-1E+10	1	-1E+10	1
4902554	95	C	09/25/2023	16:07	-133.486	47.730	0	239.30	0	4.9710	0	33.7690	0	26.705	0	237.160	0	-1e10	8	-1e10	8	-1E+10	1	-1E+10	1	-1E+10	1	-1E+10	1	-1E+10	1	-1E+10	1
4902554	95	C	09/25/2023	16:07	-133.486	47.730	0	240.20	0	4.9630	0	33.7690	0	26.706	0	238.052	0	-1e10	8	-1e10	8	-1E+10	1	-1E+10	1	-1E+10	1	-1E+10	1	-1E+10	1	-1E+10	1
4902554	95	C	09/25/2023	16:07	-133.486	47.730	0	241.10	0	4.9540	0	33.7700	0	26.708	0	238.943	0	-1e10	8	-1e10	8	-1E+10	1	-1E+10	1	-1E+10	1	-1E+10	1	-1E+10	1	-1E+10	1
4902554	95	C	09/25/2023	16:07	-133.486	47.730	0	241.90	0	4.9310	0	33.7750	0	26.714	0	239.736	0	-1e10	8	-1e10	8	-1E+10	1	-1E+10	1	-1E+10	1	-1E+10	1	-1E+10	1	-1E+10	1
4902554	95	C	09/25/2023	16:07	-133.486	47.730	0	242.80	0	4.9200	0	33.7730	0	26.714	0	240.627	0	-1e10	8	-1e10	8	-1E+10	1	-1E+10	1	-1E+10	1	-1E+10	1	-1E+10	1	-1E+10	1
4902554	95	C	09/25/2023	16:07	-133.486	47.730	0	243.80	0	4.9150	0	33.7740	0	26.715	0	241.618	0	-1e10	8	-1e10	8	-1E+10	1	-1E+10	1	-1E+10	1	-1E+10	1	-1E+10	1	-1E+10	1
4902554	95	C	09/25/2023	16:07	-133.486	47.730	0	244.70	0	4.9020	0	33.7750	0	26.717	0	242.509	0	-1e10	8	-1e10	8	-1E+10	1	-1E+10	1	-1E+10	1	-1E+10	1	-1E+10	1	-1E+10	1
4902554	95	C	09/25/2023	16:07	-133.486	47.730	0	245.60	0	4.8900	0	33.7770	0	26.720	0	243.400	0	-1e10	8	-1e10	8	-1E+10	1	-1E+10	1	-1E+10	1	-1E+10	1	-1E+10	1	-1E+10	1
4902554	95	C	09/25/2023	16:07	-133.486	47.730	0	246.90	0	4.8790	0	33.7770	0	26.722	0	244.688	0	-1e10	8	-1e10	8	-1E+10	1	-1E+10	1	-1E+10	1	-1E+10	1	-1E+10	1	-1E+10	1
4902554	95	C	09/25/2023	16:07	-133.486	47.730	0	248.40	0	4.8680	0	33.7790	0	26.724	0	246.174	0	-1e10	8	-1e10	8	-1E+10	1	-1E+10	1	-1E+10	1	-1E+10	1	-1E+10	1	-1E+10	1
4902554	95	C	09/25/2023	16:07	-133.486	47.730	0	249.30	0	4.8580	0	33.7790	0	26.725	0	247.065	0	-1e10	8	-1e10	8	-1E+10	1	-1E+10	1	-1E+10	1	-1E+10	1	-1E+10	1	-1E+10	1
4902554	95	C	09/25/2023	16:07	-133.486	47.730	0	250.20	0	4.8560	0	33.7790	0	26.726	0	247.956	0	-1e10	8	-1e10	8	-1E+10	1	-1E+10	1	-1E+10	1	-1E+10	1	-1E+10	1	-1E+10	1
4902554	95	C	09/25/2023	16:07	-133.486	47.730	0	251.10	0	4.8480	0	33.7810	0	26.728	0	248.848	0	-1e10	8	-1e10	8	-1E+10	1	-1E+10	1	-1E+10	1	-1E+10	1	-1E+10	1	-1E+10	1
4902554	95	C	09/25/2023	16:07	-133.486	47.730	0	252.10	0	4.8480	0	33.7800	0	26.727	0	249.838	0	-1e10	8	-1e10	8	-1E+10	1	-1E+10	1	-1E+10	1	-1E+10	1	-1E+10	1	-1E+10	1
4902554	95	C	09/25/2023	16:07	-133.486	47.730	0	253.00	0	4.8480	0	33.7800	0	26.727	0	250.730	0	-1e10	8	-1e10	8	-1E+10	1	-1E+10	1	-1E+10	1	-1E+10	1	-1E+10	1	-1E+10	1
4902554	95	C	09/25/2023	16:07	-133.486	47.730	0	253.90	0	4.8340	0	33.7830	0	26.731	0	251.621	0	-1e10	8	-1e10	8	-1E+10	1	-1E+10	1	-1E+10	1	-1E+10	1	-1E+10	1	-1E+10	1
4902554	95	C	09/25/2023	16:07	-133.486	47.730	0	254.80	0	4.8310	0	33.7820	0	26.731	0	252.512	0	-1e10	8	-1e10	8	-1E+10	1	-1E+10	1	-1E+10	1	-1E+10	1	-1E+10	1	-1E+10	1
4902554	95	C	09/25/2023	16:07	-133.486	47.730	0	255.70	0	4.8280	0	33.7830	0	26.732	0	253.404	0	-1e10	8	-1e10	8	-1E+10	1	-1E+10	1	-1E+10	1	-1E+10	1	-1E+10	1	-1E+10	1
4902554	95	C	09/25/2023	16:07	-133.486	47.730	0	256.70	0	4.8240	0	33.7830	0	26.733	0	254.394	0	-1e10	8	-1e10	8	-1E+10	1	-1E+10	1	-1E+10	1	-1E+10	1	-1E+10	1	-1E+10	1
4902554	95	C	09/25/2023	16:07	-133.486	47.730	0	257.60	0	4.8110	0	33.7860	0	26.736	0	255.285	0	-1e10	8	-1e10	8	-1E+10	1	-1E+10	1	-1E+10	1	-1E+10	1	-1E+10	1	-1E+10	1
4902554	95	C	09/25/2023	16:07	-133.486	47.730	0	258.60	0	4.8080	0	33.7860	0	26.737	0	256.276	0	-1e10	8	-1e10	8	-1E+10	1	-1E+10	1	-1E+10	1	-1E+10	1	-1E+10	1	-1E+10	1
4902554	95	C	09/25/2023	16:07	-133.486	47.730	0	259.90	0	4.7990	0	33.7870	0	26.738	0	257.563	0	-1e10	8	-1e10	8	-1E+10	1	-1E+10	1	-1E+10	1	-1E+10	1	-1E+10	1	-1E+10	1
4902554	95	C	09/25/2023	16:07	-133.486	47.730	0	261.30	0	4.7880	0	33.7890	0	26.741	0	258.950	0	-1e10	8	-1e10	8	-1E+10	1	-1E+10	1	-1E+10	1	-1E+10	1	-1E+10	1	-1E+10	1
4902554	95	C	09/25/2023	16:07	-133.486	47.730	0	262.30	0	4.7760	0	33.7910	0	26.744	0	259.940	0	-1e10	8	-1e10	8	-1E+10	1	-1E+10	1	-1E+10	1	-1E+10	1	-1E+10	1	-1E+10	1
4902554	95	C	09/25/2023	16:07	-133.486	47.730	0	263.20	0	4.7700	0	33.7920	0	26.746	0	260.832	0	-1e10	8	-1e10	8	-1E+10	1	-1E+10	1	-1E+10	1	-1E+10	1	-1E+10	1	-1E+10	1
4902554	95	C	09/25/2023	16:07	-133.486	47.730	0	264.20	0	4.7650	0	33.7910	0	26.745	0	261.822	0	-1e10	8	-1e10	8	-1E+10	1	-1E+10	1	-1E+10	1	-1E+10	1	-1E+10	1	-1E+10	1
4902554	95	C	09/25/2023	16:07	-133.486	47.730	0	265.10	0	4.7560	0	33.7920	0	26.747	0	262.713	0	-1e10	8	-1e10	8	-1E+10	1	-1E+10	1	-1E+10	1	-1E+10	1	-1E+10	1	-1E+10	1
4902554	95	C	09/25/2023	16:07	-133.486	47.730	0	266.00	0	4.7440	0	33.7930	0	26.749	0	263.605	0	-1e10	8	-1e10	8	-1E+10	1	-1E+10	1	-1E+10	1	-1E+10	1	-1E+10	1	-1E+10	1
4902554	95	C	09/25/2023	16:07	-133.486	47.730	0	266.90	0	4.7430	0	33.7930	0	26.749	0	264.496	0	-1e10	8	-1e10	8	-1E+10	1	-1E+10	1	-1E+10	1	-1E+10	1	-1E+10	1	-1E+10	1
4902554	95	C	09/25/2023	16:07	-133.486	47.730	0	267.80	0	4.7350	0	33.7940	0	26.751	0	265.387	0	-1e10	8	-1e10	8	-1E+10	1	-1E+10	1	-1E+10	1	-1E+10	1	-1E+10	1	-1E+10	1
4902554	95	C	09/25/2023	16:07	-133.486	47.730	0	268.80	0	4.7250	0	33.7970	0	26.755	0	266.378	0	-1e10	8	-1e10	8	-1E+10	1	-1E+10	1	-1E+10	1	-1E+10	1	-1E+10	1	-1E+10	1
4902554	95	C	09/25/2023	16:07	-133.486	47.730	0	269.70	0	4.7120	0	33.7980	0	26.757	0	267.269	0	-1e10	8	-1e10	8	-1E+10	1	-1E+10	1	-1E+10	1	-1E+10	1	-1E+10	1	-1E+10	1
4902554	95	C	09/25/2023	16:07	-133.486	47.730	0	270.60	0	4.7050	0	33.8000	0	26.759	0	268.160	0	-1e10	8	-1e10	8	-1E+10	1	-1E+10	1	-1E+10	1	-1E+10	1	-1E+10	1	-1E+10	1
4902554	95	C	09/25/2023	16:07	-133.486	47.730	0	271.60	0	4.7020	0	33.8010	0	26.760	0	269.151	0	-1e10	8	-1e10	8	-1E+10	1	-1E+10	1	-1E+10	1	-1E+10	1	-1E+10	1	-1E+10	1
4902554	95	C	09/25/2023	16:07	-133.486	47.730	0	272.90	0	4.6980	0	33.8000	0	26.760	0	270.438	0	-1e10	8	-1e10	8	-1E+10	1	-1E+10	1	-1E+10	1	-1E+10	1	-1E+10	1	-1E+10	1
4902554	95	C	09/25/2023	16:07	-133.486	47.730	0	274.40	0	4.6810	0	33.8030	0	26.764	0	271.923	0	-1e10	8	-1e10	8	-1E+10	1	-1E+10	1	-1E+10	1	-1E+10	1	-1E+10	1	-1E+10	1
4902554	95	C	09/25/2023	16:07	-133.486	47.730	0	275.30	0	4.6720	0	33.8040	0	26.766	0	272.815	0	-1e10	8	-1e10	8	-1E+10	1	-1E+10	1	-1E+10	1	-1E+10	1	-1E+10	1	-1E+10	1
4902554	95	C	09/25/2023	16:07	-133.486	47.730	0	276.20	0	4.6540	0	33.8060	0	26.770	0	273.706	0	-1e10	8	-1e10	8	-1E+10	1	-1E+10	1	-1E+10	1	-1E+10	1	-1E+10	1	-1E+10	1
4902554	95	C	09/25/2023	16:07	-133.486	47.730	0	277.10	0	4.6440	0	33.8070	0	26.772	0	274.597	0	-1e10	8	-1e10	8	-1E+10	1	-1E+10	1	-1E+10	1	-1E+10	1	-1E+10	1	-1E+10	1
4902554	95	C	09/25/2023	16:07	-133.486	47.730	0	278.00	0	4.6400	0	33.8080	0	26.773	0	275.489	0	-1e10	8	-1e10	8	-1E+10	1	-1E+10	1	-1E+10	1	-1E+10	1	-1E+10	1	-1E+10	1
4902554	95	C	09/25/2023	16:07	-133.486	47.730	0	278.90	0	4.6380	0	33.8080	0	26.773	0	276.380	0	-1e10	8	-1e10	8	-1E+10	1	-1E+10	1	-1E+10	1	-1E+10	1	-1E+10	1	-1E+10	1
4902554	95	C	09/25/2023	16:07	-133.486	47.730	0	279.80	0	4.6270	0	33.8100	0	26.776	0	277.271	0	-1e10	8	-1e10	8	-1E+10	1	-1E+10	1	-1E+10	1	-1E+10	1	-1E+10	1	-1E+10	1
4902554	95	C	09/25/2023	16:07	-133.486	47.730	0	280.80	0	4.6250	0	33.8110	0	26.777	0	278.261	0	-1e10	8	-1e10	8	-1E+10	1	-1E+10	1	-1E+10	1	-1E+10	1	-1E+10	1	-1E+10	1
4902554	95	C	09/25/2023	16:07	-133.486	47.730	0	281.70	0	4.6180	0	33.8110	0	26.778	0	279.153	0	-1e10	8	-1e10	8	-1E+10	1	-1E+10	1	-1E+10	1	-1E+10	1	-1E+10	1	-1E+10	1
4902554	95	C	09/25/2023	16:07	-133.486	47.730	0	282.60	0	4.6120	0	33.8130	0	26.780	0	280.044	0	-1e10	8	-1e10	8	-1E+10	1	-1E+10	1	-1E+10	1	-1E+10	1	-1E+10	1	-1E+10	1
4902554	95	C	09/25/2023	16:07	-133.486	47.730	0	283.60	0	4.6110	0	33.8130	0	26.780	0	281.034	0	-1e10	8	-1e10	8	-1E+10	1	-1E+10	1	-1E+10	1	-1E+10	1	-1E+10	1	-1E+10	1
4902554	95	C	09/25/2023	16:07	-133.486	47.730	0	284.70	0	4.6020	0	33.8170	0	26.784	0	282.124	0	-1e10	8	-1e10	8	-1E+10	1	-1E+10	1	-1E+10	1	-1E+10	1	-1E+10	1	-1E+10	1
4902554	95	C	09/25/2023	16:07	-133.486	47.730	0	285.60	0	4.5970	0	33.8190	0	26.786	0	283.015	0	-1e10	8	-1e10	8	-1E+10	1	-1E+10	1	-1E+10	1	-1E+10	1	-1E+10	1	-1E+10	1
4902554	95	C	09/25/2023	16:07	-133.486	47.730	0	286.50	0	4.5950	0	33.8190	0	26.786	0	283.906	0	-1e10	8	-1e10	8	-1E+10	1	-1E+10	1	-1E+10	1	-1E+10	1	-1E+10	1	-1E+10	1
4902554	95	C	09/25/2023	16:07	-133.486	47.730	0	287.60	0	4.5940	0	33.8190	0	26.787	0	284.995	0	-1e10	8	-1e10	8	-1E+10	1	-1E+10	1	-1E+10	1	-1E+10	1	-1E+10	1	-1E+10	1
4902554	95	C	09/25/2023	16:07	-133.486	47.730	0	288.60	0	4.5910	0	33.8210	0	26.788	0	285.986	0	-1e10	8	-1e10	8	-1E+10	1	-1E+10	1	-1E+10	1	-1E+10	1	-1E+10	1	-1E+10	1
4902554	95	C	09/25/2023	16:07	-133.486	47.730	0	289.90	0	4.5850	0	33.8220	0	26.790	0	287.273	0	-1e10	8	-1e10	8	-1E+10	1	-1E+10	1	-1E+10	1	-1E+10	1	-1E+10	1	-1E+10	1
4902554	95	C	09/25/2023	16:07	-133.486	47.730	0	291.40	0	4.5730	0	33.8270	0	26.795	0	288.758	0	-1e10	8	-1e10	8	-1E+10	1	-1E+10	1	-1E+10	1	-1E+10	1	-1E+10	1	-1E+10	1
4902554	95	C	09/25/2023	16:07	-133.486	47.730	0	292.30	0	4.5690	0	33.8270	0	26.796	0	289.649	0	-1e10	8	-1e10	8	-1E+10	1	-1E+10	1	-1E+10	1	-1E+10	1	-1E+10	1	-1E+10	1
4902554	95	C	09/25/2023	16:07	-133.486	47.730	0	293.20	0	4.5650	0	33.8290	0	26.798	0	290.541	0	-1e10	8	-1e10	8	-1E+10	1	-1E+10	1	-1E+10	1	-1E+10	1	-1E+10	1	-1E+10	1
4902554	95	C	09/25/2023	16:07	-133.486	47.730	0	294.10	0	4.5640	0	33.8290	0	26.798	0	291.432	0	-1e10	8	-1e10	8	-1E+10	1	-1E+10	1	-1E+10	1	-1E+10	1	-1E+10	1	-1E+10	1
4902554	95	C	09/25/2023	16:07	-133.486	47.730	0	295.00	0	4.5610	0	33.8290	0	26.798	0	292.323	0	-1e10	8	-1e10	8	-1E+10	1	-1E+10	1	-1E+10	1	-1E+10	1	-1E+10	1	-1E+10	1
4902554	95	C	09/25/2023	16:07	-133.486	47.730	0	295.90	0	4.5570	0	33.8300	0	26.799	0	293.214	0	-1e10	8	-1e10	8	-1E+10	1	-1E+10	1	-1E+10	1	-1E+10	1	-1E+10	1	-1E+10	1
4902554	95	C	09/25/2023	16:07	-133.486	47.730	0	296.90	0	4.5480	0	33.8320	0	26.802	0	294.204	0	-1e10	8	-1e10	8	-1E+10	1	-1E+10	1	-1E+10	1	-1E+10	1	-1E+10	1	-1E+10	1
4902554	95	C	09/25/2023	16:07	-133.486	47.730	0	297.80	0	4.5440	0	33.8320	0	26.802	0	295.096	0	-1e10	8	-1e10	8	-1E+10	1	-1E+10	1	-1E+10	1	-1E+10	1	-1E+10	1	-1E+10	1
4902554	95	C	09/25/2023	16:07	-133.486	47.730	0	298.70	0	4.5410	0	33.8330	0	26.803	0	295.987	0	-1e10	8	-1e10	8	-1E+10	1	-1E+10	1	-1E+10	1	-1E+10	1	-1E+10	1	-1E+10	1
4902554	95	C	09/25/2023	16:07	-133.486	47.730	0	299.60	0	4.5370	0	33.8330	0	26.804	0	296.878	0	-1e10	8	-1e10	8	-1E+10	1	-1E+10	1	-1E+10	1	-1E+10	1	-1E+10	1	-1E+10	1
4902554	95	C	09/25/2023	16:07	-133.486	47.730	0	300.90	0	4.5350	0	33.8340	0	26.805	0	298.165	0	-1e10	8	-1e10	8	-1E+10	1	-1E+10	1	-1E+10	1	-1E+10	1	-1E+10	1	-1E+10	1
4902554	95	C	09/25/2023	16:07	-133.486	47.730	0	302.30	0	4.5310	0	33.8350	0	26.806	0	299.552	0	-1e10	8	-1e10	8	-1E+10	1	-1E+10	1	-1E+10	1	-1E+10	1	-1E+10	1	-1E+10	1
4902554	95	C	09/25/2023	16:07	-133.486	47.730	0	303.20	0	4.5270	0	33.8360	0	26.807	0	300.443	0	-1e10	8	-1e10	8	-1E+10	1	-1E+10	1	-1E+10	1	-1E+10	1	-1E+10	1	-1E+10	1
4902554	95	C	09/25/2023	16:07	-133.486	47.730	0	304.10	0	4.5210	0	33.8370	0	26.809	0	301.334	0	-1e10	8	-1e10	8	-1E+10	1	-1E+10	1	-1E+10	1	-1E+10	1	-1E+10	1	-1E+10	1
4902554	95	C	09/25/2023	16:07	-133.486	47.730	0	305.00	0	4.5180	0	33.8380	0	26.810	0	302.225	0	-1e10	8	-1e10	8	-1E+10	1	-1E+10	1	-1E+10	1	-1E+10	1	-1E+10	1	-1E+10	1
4902554	95	C	09/25/2023	16:07	-133.486	47.730	0	305.90	0	4.5170	0	33.8380	0	26.810	0	303.116	0	-1e10	8	-1e10	8	-1E+10	1	-1E+10	1	-1E+10	1	-1E+10	1	-1E+10	1	-1E+10	1
4902554	95	C	09/25/2023	16:07	-133.486	47.730	0	306.80	0	4.5140	0	33.8390	0	26.811	0	304.007	0	-1e10	8	-1e10	8	-1E+10	1	-1E+10	1	-1E+10	1	-1E+10	1	-1E+10	1	-1E+10	1
4902554	95	C	09/25/2023	16:07	-133.486	47.730	0	307.70	0	4.5060	0	33.8400	0	26.813	0	304.898	0	-1e10	8	-1e10	8	-1E+10	1	-1E+10	1	-1E+10	1	-1E+10	1	-1E+10	1	-1E+10	1
4902554	95	C	09/25/2023	16:07	-133.486	47.730	0	308.60	0	4.4990	0	33.8420	0	26.815	0	305.790	0	-1e10	8	-1e10	8	-1E+10	1	-1E+10	1	-1E+10	1	-1E+10	1	-1E+10	1	-1E+10	1
4902554	95	C	09/25/2023	16:07	-133.486	47.730	0	309.90	0	4.4910	0	33.8430	0	26.817	0	307.077	0	-1e10	8	-1e10	8	-1E+10	1	-1E+10	1	-1E+10	1	-1E+10	1	-1E+10	1	-1E+10	1
4902554	95	C	09/25/2023	16:07	-133.486	47.730	0	311.40	0	4.4870	0	33.8450	0	26.819	0	308.562	0	-1e10	8	-1e10	8	-1E+10	1	-1E+10	1	-1E+10	1	-1E+10	1	-1E+10	1	-1E+10	1
4902554	95	C	09/25/2023	16:07	-133.486	47.730	0	312.30	0	4.4850	0	33.8450	0	26.819	0	309.453	0	-1e10	8	-1e10	8	-1E+10	1	-1E+10	1	-1E+10	1	-1E+10	1	-1E+10	1	-1E+10	1
4902554	95	C	09/25/2023	16:07	-133.486	47.730	0	313.20	0	4.4810	0	33.8460	0	26.820	0	310.344	0	-1e10	8	-1e10	8	-1E+10	1	-1E+10	1	-1E+10	1	-1E+10	1	-1E+10	1	-1E+10	1
4902554	95	C	09/25/2023	16:07	-133.486	47.730	0	314.20	0	4.4670	0	33.8500	0	26.825	0	311.334	0	-1e10	8	-1e10	8	-1E+10	1	-1E+10	1	-1E+10	1	-1E+10	1	-1E+10	1	-1E+10	1
4902554	95	C	09/25/2023	16:07	-133.486	47.730	0	315.10	0	4.4560	0	33.8530	0	26.829	0	312.226	0	-1e10	8	-1e10	8	-1E+10	1	-1E+10	1	-1E+10	1	-1E+10	1	-1E+10	1	-1E+10	1
4902554	95	C	09/25/2023	16:07	-133.486	47.730	0	316.10	0	4.4530	0	33.8540	0	26.830	0	313.216	0	-1e10	8	-1e10	8	-1E+10	1	-1E+10	1	-1E+10	1	-1E+10	1	-1E+10	1	-1E+10	1
4902554	95	C	09/25/2023	16:07	-133.486	47.730	0	317.00	0	4.4460	0	33.8550	0	26.831	0	314.107	0	-1e10	8	-1e10	8	-1E+10	1	-1E+10	1	-1E+10	1	-1E+10	1	-1E+10	1	-1E+10	1
4902554	95	C	09/25/2023	16:07	-133.486	47.730	0	317.90	0	4.4460	0	33.8550	0	26.831	0	314.998	0	-1e10	8	-1e10	8	-1E+10	1	-1E+10	1	-1E+10	1	-1E+10	1	-1E+10	1	-1E+10	1
4902554	95	C	09/25/2023	16:07	-133.486	47.730	0	318.80	0	4.4450	0	33.8560	0	26.832	0	315.889	0	-1e10	8	-1e10	8	-1E+10	1	-1E+10	1	-1E+10	1	-1E+10	1	-1E+10	1	-1E+10	1
4902554	95	C	09/25/2023	16:07	-133.486	47.730	0	319.80	0	4.4430	0	33.8570	0	26.833	0	316.879	0	-1e10	8	-1e10	8	-1E+10	1	-1E+10	1	-1E+10	1	-1E+10	1	-1E+10	1	-1E+10	1
4902554	95	C	09/25/2023	16:07	-133.486	47.730	0	320.70	0	4.4410	0	33.8560	0	26.833	0	317.770	0	-1e10	8	-1e10	8	-1E+10	1	-1E+10	1	-1E+10	1	-1E+10	1	-1E+10	1	-1E+10	1
4902554	95	C	09/25/2023	16:07	-133.486	47.730	0	321.60	0	4.4400	0	33.8570	0	26.834	0	318.661	0	-1e10	8	-1e10	8	-1E+10	1	-1E+10	1	-1E+10	1	-1E+10	1	-1E+10	1	-1E+10	1
4902554	95	C	09/25/2023	16:07	-133.486	47.730	0	322.60	0	4.4350	0	33.8570	0	26.834	0	319.651	0	-1e10	8	-1e10	8	-1E+10	1	-1E+10	1	-1E+10	1	-1E+10	1	-1E+10	1	-1E+10	1
4902554	95	C	09/25/2023	16:07	-133.486	47.730	0	323.90	0	4.4310	0	33.8590	0	26.836	0	320.938	0	-1e10	8	-1e10	8	-1E+10	1	-1E+10	1	-1E+10	1	-1E+10	1	-1E+10	1	-1E+10	1
4902554	95	C	09/25/2023	16:07	-133.486	47.730	0	325.40	0	4.4240	0	33.8630	0	26.840	0	322.424	0	-1e10	8	-1e10	8	-1E+10	1	-1E+10	1	-1E+10	1	-1E+10	1	-1E+10	1	-1E+10	1
4902554	95	C	09/25/2023	16:07	-133.486	47.730	0	326.40	0	4.4220	0	33.8630	0	26.840	0	323.414	0	-1e10	8	-1e10	8	-1E+10	1	-1E+10	1	-1E+10	1	-1E+10	1	-1E+10	1	-1E+10	1
4902554	95	C	09/25/2023	16:07	-133.486	47.730	0	327.30	0	4.4200	0	33.8650	0	26.842	0	324.305	0	-1e10	8	-1e10	8	-1E+10	1	-1E+10	1	-1E+10	1	-1E+10	1	-1E+10	1	-1E+10	1
4902554	95	C	09/25/2023	16:07	-133.486	47.730	0	328.30	0	4.4180	0	33.8650	0	26.842	0	325.295	0	-1e10	8	-1e10	8	-1E+10	1	-1E+10	1	-1E+10	1	-1E+10	1	-1E+10	1	-1E+10	1
4902554	95	C	09/25/2023	16:07	-133.486	47.730	0	329.20	0	4.4140	0	33.8650	0	26.843	0	326.186	0	-1e10	8	-1e10	8	-1E+10	1	-1E+10	1	-1E+10	1	-1E+10	1	-1E+10	1	-1E+10	1
4902554	95	C	09/25/2023	16:07	-133.486	47.730	0	330.20	0	4.4110	0	33.8670	0	26.845	0	327.176	0	-1e10	8	-1e10	8	-1E+10	1	-1E+10	1	-1E+10	1	-1E+10	1	-1E+10	1	-1E+10	1
4902554	95	C	09/25/2023	16:07	-133.486	47.730	0	331.10	0	4.4100	0	33.8690	0	26.846	0	328.067	0	-1e10	8	-1e10	8	-1E+10	1	-1E+10	1	-1E+10	1	-1E+10	1	-1E+10	1	-1E+10	1
4902554	95	C	09/25/2023	16:07	-133.486	47.730	0	332.10	0	4.4080	0	33.8700	0	26.847	0	329.057	0	-1e10	8	-1e10	8	-1E+10	1	-1E+10	1	-1E+10	1	-1E+10	1	-1E+10	1	-1E+10	1
4902554	95	C	09/25/2023	16:07	-133.486	47.730	0	333.10	0	4.4110	0	33.8700	0	26.847	0	330.047	0	-1e10	8	-1e10	8	-1E+10	1	-1E+10	1	-1E+10	1	-1E+10	1	-1E+10	1	-1E+10	1
4902554	95	C	09/25/2023	16:07	-133.486	47.730	0	334.00	0	4.4120	0	33.8710	0	26.848	0	330.938	0	-1e10	8	-1e10	8	-1E+10	1	-1E+10	1	-1E+10	1	-1E+10	1	-1E+10	1	-1E+10	1
4902554	95	C	09/25/2023	16:07	-133.486	47.730	0	335.00	0	4.4140	0	33.8720	0	26.848	0	331.928	0	-1e10	8	-1e10	8	-1E+10	1	-1E+10	1	-1E+10	1	-1E+10	1	-1E+10	1	-1E+10	1
4902554	95	C	09/25/2023	16:07	-133.486	47.730	0	336.00	0	4.4070	0	33.8730	0	26.850	0	332.918	0	-1e10	8	-1e10	8	-1E+10	1	-1E+10	1	-1E+10	1	-1E+10	1	-1E+10	1	-1E+10	1
4902554	95	C	09/25/2023	16:07	-133.486	47.730	0	336.90	0	4.4030	0	33.8730	0	26.850	0	333.809	0	-1e10	8	-1e10	8	-1E+10	1	-1E+10	1	-1E+10	1	-1E+10	1	-1E+10	1	-1E+10	1
4902554	95	C	09/25/2023	16:07	-133.486	47.730	0	337.90	0	4.3980	0	33.8730	0	26.851	0	334.799	0	-1e10	8	-1e10	8	-1E+10	1	-1E+10	1	-1E+10	1	-1E+10	1	-1E+10	1	-1E+10	1
4902554	95	C	09/25/2023	16:07	-133.486	47.730	0	338.90	0	4.3980	0	33.8740	0	26.852	0	335.789	0	-1e10	8	-1e10	8	-1E+10	1	-1E+10	1	-1E+10	1	-1E+10	1	-1E+10	1	-1E+10	1
4902554	95	C	09/25/2023	16:07	-133.486	47.730	0	339.90	0	4.3990	0	33.8750	0	26.852	0	336.779	0	-1e10	8	-1e10	8	-1E+10	1	-1E+10	1	-1E+10	1	-1E+10	1	-1E+10	1	-1E+10	1
4902554	95	C	09/25/2023	16:07	-133.486	47.730	0	340.80	0	4.4060	0	33.8780	0	26.854	0	337.670	0	-1e10	8	-1e10	8	-1E+10	1	-1E+10	1	-1E+10	1	-1E+10	1	-1E+10	1	-1E+10	1
4902554	95	C	09/25/2023	16:07	-133.486	47.730	0	341.80	0	4.4070	0	33.8790	0	26.855	0	338.660	0	-1e10	8	-1e10	8	-1E+10	1	-1E+10	1	-1E+10	1	-1E+10	1	-1E+10	1	-1E+10	1
4902554	95	C	09/25/2023	16:07	-133.486	47.730	0	342.80	0	4.4040	0	33.8800	0	26.856	0	339.650	0	-1e10	8	-1e10	8	-1E+10	1	-1E+10	1	-1E+10	1	-1E+10	1	-1E+10	1	-1E+10	1
4902554	95	C	09/25/2023	16:07	-133.486	47.730	0	343.80	0	4.4040	0	33.8800	0	26.856	0	340.640	0	-1e10	8	-1e10	8	-1E+10	1	-1E+10	1	-1E+10	1	-1E+10	1	-1E+10	1	-1E+10	1
4902554	95	C	09/25/2023	16:07	-133.486	47.730	0	344.80	0	4.4040	0	33.8800	0	26.856	0	341.630	0	-1e10	8	-1e10	8	-1E+10	1	-1E+10	1	-1E+10	1	-1E+10	1	-1E+10	1	-1E+10	1
4902554	95	C	09/25/2023	16:07	-133.486	47.730	0	345.80	0	4.4040	0	33.8820	0	26.857	0	342.620	0	-1e10	8	-1e10	8	-1E+10	1	-1E+10	1	-1E+10	1	-1E+10	1	-1E+10	1	-1E+10	1
4902554	95	C	09/25/2023	16:07	-133.486	47.730	0	347.00	0	4.3970	0	33.8830	0	26.859	0	343.808	0	-1e10	8	-1e10	8	-1E+10	1	-1E+10	1	-1E+10	1	-1E+10	1	-1E+10	1	-1E+10	1
4902554	95	C	09/25/2023	16:07	-133.486	47.730	0	347.90	0	4.3950	0	33.8830	0	26.859	0	344.699	0	-1e10	8	-1e10	8	-1E+10	1	-1E+10	1	-1E+10	1	-1E+10	1	-1E+10	1	-1E+10	1
4902554	95	C	09/25/2023	16:07	-133.486	47.730	0	348.90	0	4.3940	0	33.8830	0	26.859	0	345.689	0	-1e10	8	-1e10	8	-1E+10	1	-1E+10	1	-1E+10	1	-1E+10	1	-1E+10	1	-1E+10	1
4902554	95	C	09/25/2023	16:07	-133.486	47.730	0	349.90	0	4.3950	0	33.8860	0	26.862	0	346.679	0	-1e10	8	-1e10	8	-1E+10	1	-1E+10	1	-1E+10	1	-1E+10	1	-1E+10	1	-1E+10	1
4902554	95	C	09/25/2023	16:07	-133.486	47.730	0	352.90	0	4.3920	0	33.8880	0	26.864	0	349.649	0	-1e10	8	-1e10	8	-1E+10	1	-1E+10	1	-1E+10	1	-1E+10	1	-1E+10	1	-1E+10	1
4902554	95	C	09/25/2023	16:07	-133.486	47.730	0	357.90	0	4.3830	0	33.8930	0	26.869	0	354.598	0	-1e10	8	-1e10	8	-1E+10	1	-1E+10	1	-1E+10	1	-1E+10	1	-1E+10	1	-1E+10	1
4902554	95	C	09/25/2023	16:07	-133.486	47.730	0	363.10	0	4.3750	0	33.8960	0	26.872	0	359.746	0	-1e10	8	-1e10	8	-1E+10	1	-1E+10	1	-1E+10	1	-1E+10	1	-1E+10	1	-1E+10	1
4902554	95	C	09/25/2023	16:07	-133.486	47.730	0	368.30	0	4.3680	0	33.9000	0	26.876	0	364.893	0	-1e10	8	-1e10	8	-1E+10	1	-1E+10	1	-1E+10	1	-1E+10	1	-1E+10	1	-1E+10	1
4902554	95	C	09/25/2023	16:07	-133.486	47.730	0	373.00	0	4.3480	0	33.9050	0	26.882	0	369.546	0	-1e10	8	-1e10	8	-1E+10	1	-1E+10	1	-1E+10	1	-1E+10	1	-1E+10	1	-1E+10	1
4902554	95	C	09/25/2023	16:07	-133.486	47.730	0	377.70	0	4.3190	0	33.9140	0	26.892	0	374.198	0	-1e10	8	-1e10	8	-1E+10	1	-1E+10	1	-1E+10	1	-1E+10	1	-1E+10	1	-1E+10	1
4902554	95	C	09/25/2023	16:07	-133.486	47.730	0	383.00	0	4.3090	0	33.9170	0	26.896	0	379.444	0	-1e10	8	-1e10	8	-1E+10	1	-1E+10	1	-1E+10	1	-1E+10	1	-1E+10	1	-1E+10	1
4902554	95	C	09/25/2023	16:07	-133.486	47.730	0	388.30	0	4.2980	0	33.9210	0	26.900	0	384.690	0	-1e10	8	-1e10	8	-1E+10	1	-1E+10	1	-1E+10	1	-1E+10	1	-1E+10	1	-1E+10	1
4902554	95	C	09/25/2023	16:07	-133.486	47.730	0	393.00	0	4.2930	0	33.9270	0	26.905	0	389.342	0	-1e10	8	-1e10	8	-1E+10	1	-1E+10	1	-1E+10	1	-1E+10	1	-1E+10	1	-1E+10	1
4902554	95	C	09/25/2023	16:07	-133.486	47.730	0	397.70	0	4.2880	0	33.9290	0	26.907	0	393.994	0	-1e10	8	-1e10	8	-1E+10	1	-1E+10	1	-1E+10	1	-1E+10	1	-1E+10	1	-1E+10	1
4902554	95	C	09/25/2023	16:07	-133.486	47.730	0	403.20	0	4.2780	0	33.9350	0	26.913	0	399.437	0	-1e10	8	-1e10	8	-1E+10	1	-1E+10	1	-1E+10	1	-1E+10	1	-1E+10	1	-1E+10	1
4902554	95	C	09/25/2023	16:07	-133.486	47.730	0	408.00	0	4.2710	0	33.9420	0	26.920	0	404.187	0	-1e10	8	-1e10	8	-1E+10	1	-1E+10	1	-1E+10	1	-1E+10	1	-1E+10	1	-1E+10	1
4902554	95	C	09/25/2023	16:07	-133.486	47.730	0	413.00	0	4.2650	0	33.9490	0	26.926	0	409.136	0	-1e10	8	-1e10	8	-1E+10	1	-1E+10	1	-1E+10	1	-1E+10	1	-1E+10	1	-1E+10	1
4902554	95	C	09/25/2023	16:07	-133.486	47.730	0	418.20	0	4.2590	0	33.9580	0	26.934	0	414.282	0	-1e10	8	-1e10	8	-1E+10	1	-1E+10	1	-1E+10	1	-1E+10	1	-1E+10	1	-1E+10	1
4902554	95	C	09/25/2023	16:07	-133.486	47.730	0	423.00	0	4.2530	0	33.9660	0	26.941	0	419.032	0	-1e10	8	-1e10	8	-1E+10	1	-1E+10	1	-1E+10	1	-1E+10	1	-1E+10	1	-1E+10	1
4902554	95	C	09/25/2023	16:07	-133.486	47.730	0	427.90	0	4.2480	0	33.9730	0	26.947	0	423.881	0	-1e10	8	-1e10	8	-1E+10	1	-1E+10	1	-1E+10	1	-1E+10	1	-1E+10	1	-1E+10	1
4902554	95	C	09/25/2023	16:07	-133.486	47.730	0	432.90	0	4.2410	0	33.9810	0	26.954	0	428.829	0	-1e10	8	-1e10	8	-1E+10	1	-1E+10	1	-1E+10	1	-1E+10	1	-1E+10	1	-1E+10	1
4902554	95	C	09/25/2023	16:07	-133.486	47.730	0	437.90	0	4.2340	0	33.9870	0	26.960	0	433.777	0	-1e10	8	-1e10	8	-1E+10	1	-1E+10	1	-1E+10	1	-1E+10	1	-1E+10	1	-1E+10	1
4902554	95	C	09/25/2023	16:07	-133.486	47.730	0	442.90	0	4.2250	0	33.9920	0	26.964	0	438.724	0	-1e10	8	-1e10	8	-1E+10	1	-1E+10	1	-1E+10	1	-1E+10	1	-1E+10	1	-1E+10	1
4902554	95	C	09/25/2023	16:07	-133.486	47.730	0	448.00	0	4.2100	0	34.0010	0	26.973	0	443.771	0	-1e10	8	-1e10	8	-1E+10	1	-1E+10	1	-1E+10	1	-1E+10	1	-1E+10	1	-1E+10	1
4902554	95	C	09/25/2023	16:07	-133.486	47.730	0	452.80	0	4.1990	0	34.0060	0	26.978	0	448.520	0	-1e10	8	-1e10	8	-1E+10	1	-1E+10	1	-1E+10	1	-1E+10	1	-1E+10	1	-1E+10	1
4902554	95	C	09/25/2023	16:07	-133.486	47.730	0	457.70	0	4.1930	0	34.0090	0	26.981	0	453.369	0	-1e10	8	-1e10	8	-1E+10	1	-1E+10	1	-1E+10	1	-1E+10	1	-1E+10	1	-1E+10	1
4902554	95	C	09/25/2023	16:07	-133.486	47.730	0	463.00	0	4.1800	0	34.0150	0	26.988	0	458.613	0	-1e10	8	-1e10	8	-1E+10	1	-1E+10	1	-1E+10	1	-1E+10	1	-1E+10	1	-1E+10	1
4902554	95	C	09/25/2023	16:07	-133.486	47.730	0	468.10	0	4.1710	0	34.0210	0	26.993	0	463.659	0	-1e10	8	-1e10	8	-1E+10	1	-1E+10	1	-1E+10	1	-1E+10	1	-1E+10	1	-1E+10	1
4902554	95	C	09/25/2023	16:07	-133.486	47.730	0	472.90	0	4.1650	0	34.0290	0	27.000	0	468.408	0	-1e10	8	-1e10	8	-1E+10	1	-1E+10	1	-1E+10	1	-1E+10	1	-1E+10	1	-1E+10	1
4902554	95	C	09/25/2023	16:07	-133.486	47.730	0	477.80	0	4.1510	0	34.0370	0	27.008	0	473.256	0	-1e10	8	-1e10	8	-1E+10	1	-1E+10	1	-1E+10	1	-1E+10	1	-1E+10	1	-1E+10	1
4902554	95	C	09/25/2023	16:07	-133.486	47.730	0	482.70	0	4.1410	0	34.0430	0	27.014	0	478.103	0	-1e10	8	-1e10	8	-1E+10	1	-1E+10	1	-1E+10	1	-1E+10	1	-1E+10	1	-1E+10	1
4902554	95	C	09/25/2023	16:07	-133.486	47.730	0	487.80	0	4.1340	0	34.0480	0	27.019	0	483.149	0	-1e10	8	-1e10	8	-1E+10	1	-1E+10	1	-1E+10	1	-1E+10	1	-1E+10	1	-1E+10	1
4902554	95	C	09/25/2023	16:07	-133.486	47.730	0	492.80	0	4.1230	0	34.0540	0	27.025	0	488.095	0	-1e10	8	-1e10	8	-1E+10	1	-1E+10	1	-1E+10	1	-1E+10	1	-1E+10	1	-1E+10	1
4902554	95	C	09/25/2023	16:07	-133.486	47.730	0	497.60	0	4.1100	0	34.0580	0	27.029	0	492.844	0	-1e10	8	-1e10	8	-1E+10	1	-1E+10	1	-1E+10	1	-1E+10	1	-1E+10	1	-1E+10	1
4902554	95	C	09/25/2023	16:07	-133.486	47.730	0	502.50	0	4.0870	0	34.0630	0	27.036	0	497.691	0	-1e10	8	-1e10	8	-1E+10	1	-1E+10	1	-1E+10	1	-1E+10	1	-1E+10	1	-1E+10	1
4902554	95	C	09/25/2023	16:07	-133.486	47.730	0	507.90	0	4.0790	0	34.0700	0	27.042	0	503.033	0	-1e10	8	-1e10	8	-1E+10	1	-1E+10	1	-1E+10	1	-1E+10	1	-1E+10	1	-1E+10	1
4902554	95	C	09/25/2023	16:07	-133.486	47.730	0	512.80	0	4.0730	0	34.0760	0	27.048	0	507.880	0	-1e10	8	-1e10	8	-1E+10	1	-1E+10	1	-1E+10	1	-1E+10	1	-1E+10	1	-1E+10	1
4902554	95	C	09/25/2023	16:07	-133.486	47.730	0	517.90	0	4.0690	0	34.0810	0	27.052	0	512.925	0	-1e10	8	-1e10	8	-1E+10	1	-1E+10	1	-1E+10	1	-1E+10	1	-1E+10	1	-1E+10	1
4902554	95	C	09/25/2023	16:07	-133.486	47.730	0	523.10	0	4.0580	0	34.0910	0	27.061	0	518.068	0	-1e10	8	-1e10	8	-1E+10	1	-1E+10	1	-1E+10	1	-1E+10	1	-1E+10	1	-1E+10	1
4902554	95	C	09/25/2023	16:07	-133.486	47.730	0	528.00	0	4.0430	0	34.0960	0	27.067	0	522.915	0	-1e10	8	-1e10	8	-1E+10	1	-1E+10	1	-1E+10	1	-1E+10	1	-1E+10	1	-1E+10	1
4902554	95	C	09/25/2023	16:07	-133.486	47.730	0	532.90	0	4.0410	0	34.0970	0	27.068	0	527.762	0	-1e10	8	-1e10	8	-1E+10	1	-1E+10	1	-1E+10	1	-1E+10	1	-1E+10	1	-1E+10	1
4902554	95	C	09/25/2023	16:07	-133.486	47.730	0	538.00	0	4.0350	0	34.1030	0	27.073	0	532.806	0	-1e10	8	-1e10	8	-1E+10	1	-1E+10	1	-1E+10	1	-1E+10	1	-1E+10	1	-1E+10	1
4902554	95	C	09/25/2023	16:07	-133.486	47.730	0	542.90	0	4.0280	0	34.1080	0	27.078	0	537.652	0	-1e10	8	-1e10	8	-1E+10	1	-1E+10	1	-1E+10	1	-1E+10	1	-1E+10	1	-1E+10	1
4902554	95	C	09/25/2023	16:07	-133.486	47.730	0	547.80	0	4.0220	0	34.1130	0	27.082	0	542.499	0	-1e10	8	-1e10	8	-1E+10	1	-1E+10	1	-1E+10	1	-1E+10	1	-1E+10	1	-1E+10	1
4902554	95	C	09/25/2023	16:07	-133.486	47.730	0	552.90	0	4.0110	0	34.1200	0	27.089	0	547.543	0	-1e10	8	-1e10	8	-1E+10	1	-1E+10	1	-1E+10	1	-1E+10	1	-1E+10	1	-1E+10	1
4902554	95	C	09/25/2023	16:07	-133.486	47.730	0	558.10	0	4.0100	0	34.1210	0	27.090	0	552.685	0	-1e10	8	-1e10	8	-1E+10	1	-1E+10	1	-1E+10	1	-1E+10	1	-1E+10	1	-1E+10	1
4902554	95	C	09/25/2023	16:07	-133.486	47.730	0	563.20	0	4.0100	0	34.1220	0	27.091	0	557.729	0	-1e10	8	-1e10	8	-1E+10	1	-1E+10	1	-1E+10	1	-1E+10	1	-1E+10	1	-1E+10	1
4902554	95	C	09/25/2023	16:07	-133.486	47.730	0	567.90	0	4.0070	0	34.1230	0	27.092	0	562.377	0	-1e10	8	-1e10	8	-1E+10	1	-1E+10	1	-1E+10	1	-1E+10	1	-1E+10	1	-1E+10	1
4902554	95	C	09/25/2023	16:07	-133.486	47.730	0	573.00	0	3.9980	0	34.1270	0	27.096	0	567.420	0	-1e10	8	-1e10	8	-1E+10	1	-1E+10	1	-1E+10	1	-1E+10	1	-1E+10	1	-1E+10	1
4902554	95	C	09/25/2023	16:07	-133.486	47.730	0	578.20	0	3.9880	0	34.1310	0	27.100	0	572.563	0	-1e10	8	-1e10	8	-1E+10	1	-1E+10	1	-1E+10	1	-1E+10	1	-1E+10	1	-1E+10	1
4902554	95	C	09/25/2023	16:07	-133.486	47.730	0	582.90	0	3.9770	0	34.1350	0	27.105	0	577.210	0	-1e10	8	-1e10	8	-1E+10	1	-1E+10	1	-1E+10	1	-1E+10	1	-1E+10	1	-1E+10	1
4902554	95	C	09/25/2023	16:07	-133.486	47.730	0	587.70	0	3.9410	0	34.1450	0	27.116	0	581.957	0	-1e10	8	-1e10	8	-1E+10	1	-1E+10	1	-1E+10	1	-1E+10	1	-1E+10	1	-1E+10	1
4902554	95	C	09/25/2023	16:07	-133.486	47.730	0	593.00	0	3.9340	0	34.1490	0	27.120	0	587.197	0	-1e10	8	-1e10	8	-1E+10	1	-1E+10	1	-1E+10	1	-1E+10	1	-1E+10	1	-1E+10	1
4902554	95	C	09/25/2023	16:07	-133.486	47.730	0	598.30	0	3.9200	0	34.1550	0	27.127	0	592.438	0	-1e10	8	-1e10	8	-1E+10	1	-1E+10	1	-1E+10	1	-1E+10	1	-1E+10	1	-1E+10	1
4902554	95	C	09/25/2023	16:07	-133.486	47.730	0	603.20	0	3.9110	0	34.1590	0	27.131	0	597.283	0	-1e10	8	-1e10	8	-1E+10	1	-1E+10	1	-1E+10	1	-1E+10	1	-1E+10	1	-1E+10	1
4902554	95	C	09/25/2023	16:07	-133.486	47.730	0	608.10	0	3.8960	0	34.1640	0	27.136	0	602.128	0	-1e10	8	-1e10	8	-1E+10	1	-1E+10	1	-1E+10	1	-1E+10	1	-1E+10	1	-1E+10	1
4902554	95	C	09/25/2023	16:07	-133.486	47.730	0	613.10	0	3.8790	0	34.1700	0	27.143	0	607.071	0	-1e10	8	-1e10	8	-1E+10	1	-1E+10	1	-1E+10	1	-1E+10	1	-1E+10	1	-1E+10	1
4902554	95	C	09/25/2023	16:07	-133.486	47.730	0	618.20	0	3.8640	0	34.1700	0	27.144	0	612.114	0	-1e10	8	-1e10	8	-1E+10	1	-1E+10	1	-1E+10	1	-1E+10	1	-1E+10	1	-1E+10	1
4902554	95	C	09/25/2023	16:07	-133.486	47.730	0	623.00	0	3.8520	0	34.1700	0	27.146	0	616.859	0	-1e10	8	-1e10	8	-1E+10	1	-1E+10	1	-1E+10	1	-1E+10	1	-1E+10	1	-1E+10	1
4902554	95	C	09/25/2023	16:07	-133.486	47.730	0	627.70	0	3.8360	0	34.1720	0	27.149	0	621.506	0	-1e10	8	-1e10	8	-1E+10	1	-1E+10	1	-1E+10	1	-1E+10	1	-1E+10	1	-1E+10	1
4902554	95	C	09/25/2023	16:07	-133.486	47.730	0	633.10	0	3.8190	0	34.1750	0	27.153	0	626.845	0	-1e10	8	-1e10	8	-1E+10	1	-1E+10	1	-1E+10	1	-1E+10	1	-1E+10	1	-1E+10	1
4902554	95	C	09/25/2023	16:07	-133.486	47.730	0	637.90	0	3.8030	0	34.1800	0	27.158	0	631.590	0	-1e10	8	-1e10	8	-1E+10	1	-1E+10	1	-1E+10	1	-1E+10	1	-1E+10	1	-1E+10	1
4902554	95	C	09/25/2023	16:07	-133.486	47.730	0	642.90	0	3.7970	0	34.1810	0	27.160	0	636.533	0	-1e10	8	-1e10	8	-1E+10	1	-1E+10	1	-1E+10	1	-1E+10	1	-1E+10	1	-1E+10	1
4902554	95	C	09/25/2023	16:07	-133.486	47.730	0	648.30	0	3.7900	0	34.1830	0	27.162	0	641.871	0	-1e10	8	-1e10	8	-1E+10	1	-1E+10	1	-1E+10	1	-1E+10	1	-1E+10	1	-1E+10	1
4902554	95	C	09/25/2023	16:07	-133.486	47.730	0	652.90	0	3.7800	0	34.1860	0	27.166	0	646.418	0	-1e10	8	-1e10	8	-1E+10	1	-1E+10	1	-1E+10	1	-1E+10	1	-1E+10	1	-1E+10	1
4902554	95	C	09/25/2023	16:07	-133.486	47.730	0	657.60	0	3.7720	0	34.1880	0	27.168	0	651.064	0	-1e10	8	-1e10	8	-1E+10	1	-1E+10	1	-1E+10	1	-1E+10	1	-1E+10	1	-1E+10	1
4902554	95	C	09/25/2023	16:07	-133.486	47.730	0	662.70	0	3.7660	0	34.1900	0	27.170	0	656.106	0	-1e10	8	-1e10	8	-1E+10	1	-1E+10	1	-1E+10	1	-1E+10	1	-1E+10	1	-1E+10	1
4902554	95	C	09/25/2023	16:07	-133.486	47.730	0	667.80	0	3.7600	0	34.1920	0	27.173	0	661.147	0	-1e10	8	-1e10	8	-1E+10	1	-1E+10	1	-1E+10	1	-1E+10	1	-1E+10	1	-1E+10	1
4902554	95	C	09/25/2023	16:07	-133.486	47.730	0	673.00	0	3.7540	0	34.1940	0	27.175	0	666.287	0	-1e10	8	-1e10	8	-1E+10	1	-1E+10	1	-1E+10	1	-1E+10	1	-1E+10	1	-1E+10	1
4902554	95	C	09/25/2023	16:07	-133.486	47.730	0	678.20	0	3.7470	0	34.1960	0	27.177	0	671.426	0	-1e10	8	-1e10	8	-1E+10	1	-1E+10	1	-1E+10	1	-1E+10	1	-1E+10	1	-1E+10	1
4902554	95	C	09/25/2023	16:07	-133.486	47.730	0	683.00	0	3.7400	0	34.1980	0	27.179	0	676.171	0	-1e10	8	-1e10	8	-1E+10	1	-1E+10	1	-1E+10	1	-1E+10	1	-1E+10	1	-1E+10	1
4902554	95	C	09/25/2023	16:07	-133.486	47.730	0	687.80	0	3.7280	0	34.2020	0	27.184	0	680.915	0	-1e10	8	-1e10	8	-1E+10	1	-1E+10	1	-1E+10	1	-1E+10	1	-1E+10	1	-1E+10	1
4902554	95	C	09/25/2023	16:07	-133.486	47.730	0	693.00	0	3.7190	0	34.2050	0	27.187	0	686.054	0	-1e10	8	-1e10	8	-1E+10	1	-1E+10	1	-1E+10	1	-1E+10	1	-1E+10	1	-1E+10	1
4902554	95	C	09/25/2023	16:07	-133.486	47.730	0	698.20	0	3.7100	0	34.2070	0	27.190	0	691.194	0	-1e10	8	-1e10	8	-1E+10	1	-1E+10	1	-1E+10	1	-1E+10	1	-1E+10	1	-1E+10	1
4902554	95	C	09/25/2023	16:07	-133.486	47.730	0	703.00	0	3.7000	0	34.2100	0	27.193	0	695.937	0	-1e10	8	-1e10	8	-1E+10	1	-1E+10	1	-1E+10	1	-1E+10	1	-1E+10	1	-1E+10	1
4902554	95	C	09/25/2023	16:07	-133.486	47.730	0	707.80	0	3.6850	0	34.2140	0	27.198	0	700.681	0	-1e10	8	-1e10	8	-1E+10	1	-1E+10	1	-1E+10	1	-1E+10	1	-1E+10	1	-1E+10	1
4902554	95	C	09/25/2023	16:07	-133.486	47.730	0	713.10	0	3.6740	0	34.2180	0	27.202	0	705.919	0	-1e10	8	-1e10	8	-1E+10	1	-1E+10	1	-1E+10	1	-1E+10	1	-1E+10	1	-1E+10	1
4902554	95	C	09/25/2023	16:07	-133.486	47.730	0	718.10	0	3.6700	0	34.2190	0	27.203	0	710.860	0	-1e10	8	-1e10	8	-1E+10	1	-1E+10	1	-1E+10	1	-1E+10	1	-1E+10	1	-1E+10	1
4902554	95	C	09/25/2023	16:07	-133.486	47.730	0	723.10	0	3.6620	0	34.2220	0	27.206	0	715.801	0	-1e10	8	-1e10	8	-1E+10	1	-1E+10	1	-1E+10	1	-1E+10	1	-1E+10	1	-1E+10	1
4902554	95	C	09/25/2023	16:07	-133.486	47.730	0	728.10	0	3.6550	0	34.2230	0	27.208	0	720.742	0	-1e10	8	-1e10	8	-1E+10	1	-1E+10	1	-1E+10	1	-1E+10	1	-1E+10	1	-1E+10	1
4902554	95	C	09/25/2023	16:07	-133.486	47.730	0	732.70	0	3.6490	0	34.2250	0	27.210	0	725.287	0	-1e10	8	-1e10	8	-1E+10	1	-1E+10	1	-1E+10	1	-1E+10	1	-1E+10	1	-1E+10	1
4902554	95	C	09/25/2023	16:07	-133.486	47.730	0	737.80	0	3.6350	0	34.2290	0	27.215	0	730.327	0	-1e10	8	-1e10	8	-1E+10	1	-1E+10	1	-1E+10	1	-1E+10	1	-1E+10	1	-1E+10	1
4902554	95	C	09/25/2023	16:07	-133.486	47.730	0	743.00	0	3.6270	0	34.2320	0	27.218	0	735.465	0	-1e10	8	-1e10	8	-1E+10	1	-1E+10	1	-1E+10	1	-1E+10	1	-1E+10	1	-1E+10	1
4902554	95	C	09/25/2023	16:07	-133.486	47.730	0	748.10	0	3.6200	0	34.2330	0	27.219	0	740.504	0	-1e10	8	-1e10	8	-1E+10	1	-1E+10	1	-1E+10	1	-1E+10	1	-1E+10	1	-1E+10	1
4902554	95	C	09/25/2023	16:07	-133.486	47.730	0	753.20	0	3.6140	0	34.2350	0	27.222	0	745.543	0	-1e10	8	-1e10	8	-1E+10	1	-1E+10	1	-1E+10	1	-1E+10	1	-1E+10	1	-1E+10	1
4902554	95	C	09/25/2023	16:07	-133.486	47.730	0	757.90	0	3.6040	0	34.2380	0	27.225	0	750.187	0	-1e10	8	-1e10	8	-1E+10	1	-1E+10	1	-1E+10	1	-1E+10	1	-1E+10	1	-1E+10	1
4902554	95	C	09/25/2023	16:07	-133.486	47.730	0	762.70	0	3.5910	0	34.2410	0	27.229	0	754.930	0	-1e10	8	-1e10	8	-1E+10	1	-1E+10	1	-1E+10	1	-1E+10	1	-1E+10	1	-1E+10	1
4902554	95	C	09/25/2023	16:07	-133.486	47.730	0	767.80	0	3.5870	0	34.2430	0	27.231	0	759.968	0	-1e10	8	-1e10	8	-1E+10	1	-1E+10	1	-1E+10	1	-1E+10	1	-1E+10	1	-1E+10	1
4902554	95	C	09/25/2023	16:07	-133.486	47.730	0	773.00	0	3.5760	0	34.2460	0	27.234	0	765.106	0	-1e10	8	-1e10	8	-1E+10	1	-1E+10	1	-1E+10	1	-1E+10	1	-1E+10	1	-1E+10	1
4902554	95	C	09/25/2023	16:07	-133.486	47.730	0	777.70	0	3.5660	0	34.2480	0	27.237	0	769.749	0	-1e10	8	-1e10	8	-1E+10	1	-1E+10	1	-1E+10	1	-1E+10	1	-1E+10	1	-1E+10	1
4902554	95	C	09/25/2023	16:07	-133.486	47.730	0	782.80	0	3.5550	0	34.2510	0	27.240	0	774.788	0	-1e10	8	-1e10	8	-1E+10	1	-1E+10	1	-1E+10	1	-1E+10	1	-1E+10	1	-1E+10	1
4902554	95	C	09/25/2023	16:07	-133.486	47.730	0	787.90	0	3.5450	0	34.2540	0	27.244	0	779.826	0	-1e10	8	-1e10	8	-1E+10	1	-1E+10	1	-1E+10	1	-1E+10	1	-1E+10	1	-1E+10	1
4902554	95	C	09/25/2023	16:07	-133.486	47.730	0	793.00	0	3.5370	0	34.2560	0	27.246	0	784.864	0	-1e10	8	-1e10	8	-1E+10	1	-1E+10	1	-1E+10	1	-1E+10	1	-1E+10	1	-1E+10	1
4902554	95	C	09/25/2023	16:07	-133.486	47.730	0	798.00	0	3.5280	0	34.2580	0	27.249	0	789.803	0	-1e10	8	-1e10	8	-1E+10	1	-1E+10	1	-1E+10	1	-1E+10	1	-1E+10	1	-1E+10	1
4902554	95	C	09/25/2023	16:07	-133.486	47.730	0	802.90	0	3.5170	0	34.2610	0	27.252	0	794.644	0	-1e10	8	-1e10	8	-1E+10	1	-1E+10	1	-1E+10	1	-1E+10	1	-1E+10	1	-1E+10	1
4902554	95	C	09/25/2023	16:07	-133.486	47.730	0	807.80	0	3.5050	0	34.2640	0	27.256	0	799.484	0	-1e10	8	-1e10	8	-1E+10	1	-1E+10	1	-1E+10	1	-1E+10	1	-1E+10	1	-1E+10	1
4902554	95	C	09/25/2023	16:07	-133.486	47.730	0	812.70	0	3.4940	0	34.2660	0	27.258	0	804.324	0	-1e10	8	-1e10	8	-1E+10	1	-1E+10	1	-1E+10	1	-1E+10	1	-1E+10	1	-1E+10	1
4902554	95	C	09/25/2023	16:07	-133.486	47.730	0	818.00	0	3.4840	0	34.2690	0	27.262	0	809.559	0	-1e10	8	-1e10	8	-1E+10	1	-1E+10	1	-1E+10	1	-1E+10	1	-1E+10	1	-1E+10	1
4902554	95	C	09/25/2023	16:07	-133.486	47.730	0	823.20	0	3.4720	0	34.2720	0	27.265	0	814.695	0	-1e10	8	-1e10	8	-1E+10	1	-1E+10	1	-1E+10	1	-1E+10	1	-1E+10	1	-1E+10	1
4902554	95	C	09/25/2023	16:07	-133.486	47.730	0	828.30	0	3.4570	0	34.2750	0	27.269	0	819.733	0	-1e10	8	-1e10	8	-1E+10	1	-1E+10	1	-1E+10	1	-1E+10	1	-1E+10	1	-1E+10	1
4902554	95	C	09/25/2023	16:07	-133.486	47.730	0	833.30	0	3.4450	0	34.2780	0	27.273	0	824.671	0	-1e10	8	-1e10	8	-1E+10	1	-1E+10	1	-1E+10	1	-1E+10	1	-1E+10	1	-1E+10	1
4902554	95	C	09/25/2023	16:07	-133.486	47.730	0	838.20	0	3.4340	0	34.2810	0	27.276	0	829.511	0	-1e10	8	-1e10	8	-1E+10	1	-1E+10	1	-1E+10	1	-1E+10	1	-1E+10	1	-1E+10	1
4902554	95	C	09/25/2023	16:07	-133.486	47.730	0	843.10	0	3.4220	0	34.2840	0	27.280	0	834.350	0	-1e10	8	-1e10	8	-1E+10	1	-1E+10	1	-1E+10	1	-1E+10	1	-1E+10	1	-1E+10	1
4902554	95	C	09/25/2023	16:07	-133.486	47.730	0	848.00	0	3.4130	0	34.2860	0	27.282	0	839.189	0	-1e10	8	-1e10	8	-1E+10	1	-1E+10	1	-1E+10	1	-1E+10	1	-1E+10	1	-1E+10	1
4902554	95	C	09/25/2023	16:07	-133.486	47.730	0	853.00	0	3.3990	0	34.2900	0	27.287	0	844.127	0	-1e10	8	-1e10	8	-1E+10	1	-1E+10	1	-1E+10	1	-1E+10	1	-1E+10	1	-1E+10	1
4902554	95	C	09/25/2023	16:07	-133.486	47.730	0	857.90	0	3.3780	0	34.2950	0	27.293	0	848.966	0	-1e10	8	-1e10	8	-1E+10	1	-1E+10	1	-1E+10	1	-1E+10	1	-1E+10	1	-1E+10	1
4902554	95	C	09/25/2023	16:07	-133.486	47.730	0	863.00	0	3.3610	0	34.2980	0	27.297	0	854.003	0	-1e10	8	-1e10	8	-1E+10	1	-1E+10	1	-1E+10	1	-1E+10	1	-1E+10	1	-1E+10	1
4902554	95	C	09/25/2023	16:07	-133.486	47.730	0	868.10	0	3.3370	0	34.3040	0	27.304	0	859.039	0	-1e10	8	-1e10	8	-1E+10	1	-1E+10	1	-1E+10	1	-1E+10	1	-1E+10	1	-1E+10	1
4902554	95	C	09/25/2023	16:07	-133.486	47.730	0	872.90	0	3.3240	0	34.3080	0	27.308	0	863.779	0	-1e10	8	-1e10	8	-1E+10	1	-1E+10	1	-1E+10	1	-1E+10	1	-1E+10	1	-1E+10	1
4902554	95	C	09/25/2023	16:07	-133.486	47.730	0	877.70	0	3.3110	0	34.3110	0	27.312	0	868.519	0	-1e10	8	-1e10	8	-1E+10	1	-1E+10	1	-1E+10	1	-1E+10	1	-1E+10	1	-1E+10	1
4902554	95	C	09/25/2023	16:07	-133.486	47.730	0	882.80	0	3.3020	0	34.3120	0	27.314	0	873.555	0	-1e10	8	-1e10	8	-1E+10	1	-1E+10	1	-1E+10	1	-1E+10	1	-1E+10	1	-1E+10	1
4902554	95	C	09/25/2023	16:07	-133.486	47.730	0	887.70	0	3.3010	0	34.3130	0	27.315	0	878.393	0	-1e10	8	-1e10	8	-1E+10	1	-1E+10	1	-1E+10	1	-1E+10	1	-1E+10	1	-1E+10	1
4902554	95	C	09/25/2023	16:07	-133.486	47.730	0	892.80	0	3.2870	0	34.3160	0	27.318	0	883.429	0	-1e10	8	-1e10	8	-1E+10	1	-1E+10	1	-1E+10	1	-1E+10	1	-1E+10	1	-1E+10	1
4902554	95	C	09/25/2023	16:07	-133.486	47.730	0	897.60	0	3.2780	0	34.3190	0	27.322	0	888.169	0	-1e10	8	-1e10	8	-1E+10	1	-1E+10	1	-1E+10	1	-1E+10	1	-1E+10	1	-1E+10	1
4902554	95	C	09/25/2023	16:07	-133.486	47.730	0	902.90	0	3.2720	0	34.3200	0	27.323	0	893.402	0	-1e10	8	-1e10	8	-1E+10	1	-1E+10	1	-1E+10	1	-1E+10	1	-1E+10	1	-1E+10	1
4902554	95	C	09/25/2023	16:07	-133.486	47.730	0	908.20	0	3.2570	0	34.3240	0	27.328	0	898.635	0	-1e10	8	-1e10	8	-1E+10	1	-1E+10	1	-1E+10	1	-1E+10	1	-1E+10	1	-1E+10	1
4902554	95	C	09/25/2023	16:07	-133.486	47.730	0	913.00	0	3.2520	0	34.3260	0	27.330	0	903.374	0	-1e10	8	-1e10	8	-1E+10	1	-1E+10	1	-1E+10	1	-1E+10	1	-1E+10	1	-1E+10	1
4902554	95	C	09/25/2023	16:07	-133.486	47.730	0	917.90	0	3.2410	0	34.3280	0	27.332	0	908.211	0	-1e10	8	-1e10	8	-1E+10	1	-1E+10	1	-1E+10	1	-1E+10	1	-1E+10	1	-1E+10	1
4902554	95	C	09/25/2023	16:07	-133.486	47.730	0	923.00	0	3.2300	0	34.3320	0	27.337	0	913.246	0	-1e10	8	-1e10	8	-1E+10	1	-1E+10	1	-1E+10	1	-1E+10	1	-1E+10	1	-1E+10	1
4902554	95	C	09/25/2023	16:07	-133.486	47.730	0	927.90	0	3.2170	0	34.3350	0	27.340	0	918.084	0	-1e10	8	-1e10	8	-1E+10	1	-1E+10	1	-1E+10	1	-1E+10	1	-1E+10	1	-1E+10	1
4902554	95	C	09/25/2023	16:07	-133.486	47.730	0	933.00	0	3.2070	0	34.3370	0	27.343	0	923.119	0	-1e10	8	-1e10	8	-1E+10	1	-1E+10	1	-1E+10	1	-1E+10	1	-1E+10	1	-1E+10	1
4902554	95	C	09/25/2023	16:07	-133.486	47.730	0	938.10	0	3.2010	0	34.3390	0	27.345	0	928.153	0	-1e10	8	-1e10	8	-1E+10	1	-1E+10	1	-1E+10	1	-1E+10	1	-1E+10	1	-1E+10	1
4902554	95	C	09/25/2023	16:07	-133.486	47.730	0	943.00	0	3.1970	0	34.3400	0	27.346	0	932.991	0	-1e10	8	-1e10	8	-1E+10	1	-1E+10	1	-1E+10	1	-1E+10	1	-1E+10	1	-1E+10	1
4902554	95	C	09/25/2023	16:07	-133.486	47.730	0	947.90	0	3.1890	0	34.3420	0	27.349	0	937.828	0	-1e10	8	-1e10	8	-1E+10	1	-1E+10	1	-1E+10	1	-1E+10	1	-1E+10	1	-1E+10	1
4902554	95	C	09/25/2023	16:07	-133.486	47.730	0	953.00	0	3.1730	0	34.3460	0	27.353	0	942.862	0	-1e10	8	-1e10	8	-1E+10	1	-1E+10	1	-1E+10	1	-1E+10	1	-1E+10	1	-1E+10	1
4902554	95	C	09/25/2023	16:07	-133.486	47.730	0	958.10	0	3.1650	0	34.3480	0	27.356	0	947.896	0	-1e10	8	-1e10	8	-1E+10	1	-1E+10	1	-1E+10	1	-1E+10	1	-1E+10	1	-1E+10	1
4902554	95	C	09/25/2023	16:07	-133.486	47.730	0	963.10	0	3.1490	0	34.3510	0	27.359	0	952.831	0	-1e10	8	-1e10	8	-1E+10	1	-1E+10	1	-1E+10	1	-1E+10	1	-1E+10	1	-1E+10	1
4902554	95	C	09/25/2023	16:07	-133.486	47.730	0	968.00	0	3.1430	0	34.3540	0	27.362	0	957.668	0	-1e10	8	-1e10	8	-1E+10	1	-1E+10	1	-1E+10	1	-1E+10	1	-1E+10	1	-1E+10	1
4902554	95	C	09/25/2023	16:07	-133.486	47.730	0	973.00	0	3.1390	0	34.3560	0	27.364	0	962.603	0	-1e10	8	-1e10	8	-1E+10	1	-1E+10	1	-1E+10	1	-1E+10	1	-1E+10	1	-1E+10	1
4902554	95	C	09/25/2023	16:07	-133.486	47.730	0	977.70	0	3.1330	0	34.3570	0	27.366	0	967.242	0	-1e10	8	-1e10	8	-1E+10	1	-1E+10	1	-1E+10	1	-1E+10	1	-1E+10	1	-1E+10	1
4902554	95	C	09/25/2023	16:07	-133.486	47.730	0	982.90	0	3.1200	0	34.3590	0	27.369	0	972.374	0	-1e10	8	-1e10	8	-1E+10	1	-1E+10	1	-1E+10	1	-1E+10	1	-1E+10	1	-1E+10	1
4902554	95	C	09/25/2023	16:07	-133.486	47.730	0	988.20	0	3.1110	0	34.3620	0	27.372	0	977.605	0	-1e10	8	-1e10	8	-1E+10	1	-1E+10	1	-1E+10	1	-1E+10	1	-1E+10	1	-1E+10	1
4902554	95	C	09/25/2023	16:07	-133.486	47.730	0	993.00	0	3.1050	0	34.3640	0	27.374	0	982.343	0	-1e10	8	-1e10	8	-1E+10	1	-1E+10	1	-1E+10	1	-1E+10	1	-1E+10	1	-1E+10	1
4902554	95	C	09/25/2023	16:07	-133.486	47.730	0	998.00	0	3.0920	0	34.3660	0	27.377	0	987.277	0	-1e10	8	-1e10	8	-1E+10	1	-1E+10	1	-1E+10	1	-1E+10	1	-1E+10	1	-1E+10	1
4902554	95	C	09/25/2023	16:07	-133.486	47.730	0	1005.50	0	3.0760	0	34.3680	0	27.380	0	994.679	0	-1e10	8	-1e10	8	-1E+10	1	-1E+10	1	-1E+10	1	-1E+10	1	-1E+10	1	-1E+10	1
4902554	95	C	09/25/2023	16:07	-133.486	47.730	0	1015.70	0	3.0570	0	34.3710	0	27.384	0	1004.745	0	-1e10	8	-1e10	8	-1E+10	1	-1E+10	1	-1E+10	1	-1E+10	1	-1E+10	1	-1E+10	1
4902554	95	C	09/25/2023	16:07	-133.486	47.730	0	1025.50	0	3.0470	0	34.3740	0	27.388	0	1014.415	0	-1e10	8	-1e10	8	-1E+10	1	-1E+10	1	-1E+10	1	-1E+10	1	-1E+10	1	-1E+10	1
4902554	95	C	09/25/2023	16:07	-133.486	47.730	0	1035.40	0	3.0370	0	34.3770	0	27.391	0	1024.184	0	-1e10	8	-1e10	8	-1E+10	1	-1E+10	1	-1E+10	1	-1E+10	1	-1E+10	1	-1E+10	1
4902554	95	C	09/25/2023	16:07	-133.486	47.730	0	1045.50	0	3.0270	0	34.3780	0	27.393	0	1034.150	0	-1e10	8	-1e10	8	-1E+10	1	-1E+10	1	-1E+10	1	-1E+10	1	-1E+10	1	-1E+10	1
4902554	95	C	09/25/2023	16:07	-133.486	47.730	0	1055.60	0	3.0170	0	34.3800	0	27.395	0	1044.115	0	-1e10	8	-1e10	8	-1E+10	1	-1E+10	1	-1E+10	1	-1E+10	1	-1E+10	1	-1E+10	1
4902554	95	C	09/25/2023	16:07	-133.486	47.730	0	1065.70	0	2.9980	0	34.3840	0	27.400	0	1054.080	0	-1e10	8	-1e10	8	-1E+10	1	-1E+10	1	-1E+10	1	-1E+10	1	-1E+10	1	-1E+10	1
4902554	95	C	09/25/2023	16:07	-133.486	47.730	0	1075.70	0	2.9840	0	34.3890	0	27.405	0	1063.945	0	-1e10	8	-1e10	8	-1E+10	1	-1E+10	1	-1E+10	1	-1E+10	1	-1E+10	1	-1E+10	1
4902554	95	C	09/25/2023	16:07	-133.486	47.730	0	1085.60	0	2.9720	0	34.3910	0	27.408	0	1073.712	0	-1e10	8	-1e10	8	-1E+10	1	-1E+10	1	-1E+10	1	-1E+10	1	-1E+10	1	-1E+10	1
4902554	95	C	09/25/2023	16:07	-133.486	47.730	0	1095.40	0	2.9550	0	34.3950	0	27.413	0	1083.379	0	-1e10	8	-1e10	8	-1E+10	1	-1E+10	1	-1E+10	1	-1E+10	1	-1E+10	1	-1E+10	1
4902554	95	C	09/25/2023	16:07	-133.486	47.730	0	1105.40	0	2.9380	0	34.4000	0	27.419	0	1093.243	0	-1e10	8	-1e10	8	-1E+10	1	-1E+10	1	-1E+10	1	-1E+10	1	-1E+10	1	-1E+10	1
4902554	95	C	09/25/2023	16:07	-133.486	47.730	0	1115.30	0	2.9260	0	34.4030	0	27.422	0	1103.009	0	-1e10	8	-1e10	8	-1E+10	1	-1E+10	1	-1E+10	1	-1E+10	1	-1E+10	1	-1E+10	1
4902554	95	C	09/25/2023	16:07	-133.486	47.730	0	1125.70	0	2.9140	0	34.4070	0	27.426	0	1113.266	0	-1e10	8	-1e10	8	-1E+10	1	-1E+10	1	-1E+10	1	-1E+10	1	-1E+10	1	-1E+10	1
4902554	95	C	09/25/2023	16:07	-133.486	47.730	0	1135.50	0	2.9000	0	34.4110	0	27.431	0	1122.932	0	-1e10	8	-1e10	8	-1E+10	1	-1E+10	1	-1E+10	1	-1E+10	1	-1E+10	1	-1E+10	1
4902554	95	C	09/25/2023	16:07	-133.486	47.730	0	1145.30	0	2.8850	0	34.4150	0	27.435	0	1132.597	0	-1e10	8	-1e10	8	-1E+10	1	-1E+10	1	-1E+10	1	-1E+10	1	-1E+10	1	-1E+10	1
4902554	95	C	09/25/2023	16:07	-133.486	47.730	0	1155.40	0	2.8700	0	34.4180	0	27.439	0	1142.558	0	-1e10	8	-1e10	8	-1E+10	1	-1E+10	1	-1E+10	1	-1E+10	1	-1E+10	1	-1E+10	1
4902554	95	C	09/25/2023	16:07	-133.486	47.730	0	1165.60	0	2.8580	0	34.4200	0	27.442	0	1152.616	0	-1e10	8	-1e10	8	-1E+10	1	-1E+10	1	-1E+10	1	-1E+10	1	-1E+10	1	-1E+10	1
4902554	95	C	09/25/2023	16:07	-133.486	47.730	0	1175.20	0	2.8440	0	34.4220	0	27.445	0	1162.083	0	-1e10	8	-1e10	8	-1E+10	1	-1E+10	1	-1E+10	1	-1E+10	1	-1E+10	1	-1E+10	1
4902554	95	C	09/25/2023	16:07	-133.486	47.730	0	1185.20	0	2.8300	0	34.4250	0	27.449	0	1171.943	0	-1e10	8	-1e10	8	-1E+10	1	-1E+10	1	-1E+10	1	-1E+10	1	-1E+10	1	-1E+10	1
4902554	95	C	09/25/2023	16:07	-133.486	47.730	0	1195.20	0	2.8110	0	34.4280	0	27.453	0	1181.803	0	-1e10	8	-1e10	8	-1E+10	1	-1E+10	1	-1E+10	1	-1E+10	1	-1E+10	1	-1E+10	1
4902554	95	C	09/25/2023	16:07	-133.486	47.730	0	1205.00	0	2.7940	0	34.4320	0	27.457	0	1191.466	0	-1e10	8	-1e10	8	-1E+10	1	-1E+10	1	-1E+10	1	-1E+10	1	-1E+10	1	-1E+10	1
4902554	95	C	09/25/2023	16:07	-133.486	47.730	0	1215.10	0	2.7860	0	34.4340	0	27.460	0	1201.423	0	-1e10	8	-1e10	8	-1E+10	1	-1E+10	1	-1E+10	1	-1E+10	1	-1E+10	1	-1E+10	1
4902554	95	C	09/25/2023	16:07	-133.486	47.730	0	1225.50	0	2.7740	0	34.4350	0	27.462	0	1211.677	0	-1e10	8	-1e10	8	-1E+10	1	-1E+10	1	-1E+10	1	-1E+10	1	-1E+10	1	-1E+10	1
4902554	95	C	09/25/2023	16:07	-133.486	47.730	0	1235.60	0	2.7610	0	34.4380	0	27.465	0	1221.633	0	-1e10	8	-1e10	8	-1E+10	1	-1E+10	1	-1E+10	1	-1E+10	1	-1E+10	1	-1E+10	1
4902554	95	C	09/25/2023	16:07	-133.486	47.730	0	1245.40	0	2.7410	0	34.4400	0	27.469	0	1231.294	0	-1e10	8	-1e10	8	-1E+10	1	-1E+10	1	-1E+10	1	-1E+10	1	-1E+10	1	-1E+10	1
4902554	95	C	09/25/2023	16:07	-133.486	47.730	0	1255.30	0	2.7230	0	34.4440	0	27.473	0	1241.053	0	-1e10	8	-1e10	8	-1E+10	1	-1E+10	1	-1E+10	1	-1E+10	1	-1E+10	1	-1E+10	1
4902554	95	C	09/25/2023	16:07	-133.486	47.730	0	1265.10	0	2.7070	0	34.4470	0	27.477	0	1250.712	0	-1e10	8	-1e10	8	-1E+10	1	-1E+10	1	-1E+10	1	-1E+10	1	-1E+10	1	-1E+10	1
4902554	95	C	09/25/2023	16:07	-133.486	47.730	0	1275.20	0	2.6930	0	34.4500	0	27.481	0	1260.667	0	-1e10	8	-1e10	8	-1E+10	1	-1E+10	1	-1E+10	1	-1E+10	1	-1E+10	1	-1E+10	1
4902554	95	C	09/25/2023	16:07	-133.486	47.730	0	1285.30	0	2.6790	0	34.4520	0	27.484	0	1270.622	0	-1e10	8	-1e10	8	-1E+10	1	-1E+10	1	-1E+10	1	-1E+10	1	-1E+10	1	-1E+10	1
4902554	95	C	09/25/2023	16:07	-133.486	47.730	0	1295.40	0	2.6700	0	34.4540	0	27.486	0	1280.576	0	-1e10	8	-1e10	8	-1E+10	1	-1E+10	1	-1E+10	1	-1E+10	1	-1E+10	1	-1E+10	1
4902554	95	C	09/25/2023	16:07	-133.486	47.730	0	1305.30	0	2.6580	0	34.4560	0	27.489	0	1290.332	0	-1e10	8	-1e10	8	-1E+10	1	-1E+10	1	-1E+10	1	-1E+10	1	-1E+10	1	-1E+10	1
4902554	95	C	09/25/2023	16:07	-133.486	47.730	0	1315.20	0	2.6400	0	34.4590	0	27.493	0	1300.088	0	-1e10	8	-1e10	8	-1E+10	1	-1E+10	1	-1E+10	1	-1E+10	1	-1E+10	1	-1E+10	1
4902554	95	C	09/25/2023	16:07	-133.486	47.730	0	1325.30	0	2.6260	0	34.4610	0	27.496	0	1310.040	0	-1e10	8	-1e10	8	-1E+10	1	-1E+10	1	-1E+10	1	-1E+10	1	-1E+10	1	-1E+10	1
4902554	95	C	09/25/2023	16:07	-133.486	47.730	0	1335.30	0	2.6140	0	34.4640	0	27.499	0	1319.894	0	-1e10	8	-1e10	8	-1E+10	1	-1E+10	1	-1E+10	1	-1E+10	1	-1E+10	1	-1E+10	1
4902554	95	C	09/25/2023	16:07	-133.486	47.730	0	1345.30	0	2.6030	0	34.4660	0	27.502	0	1329.747	0	-1e10	8	-1e10	8	-1E+10	1	-1E+10	1	-1E+10	1	-1E+10	1	-1E+10	1	-1E+10	1
4902554	95	C	09/25/2023	16:07	-133.486	47.730	0	1355.40	0	2.5900	0	34.4680	0	27.505	0	1339.698	0	-1e10	8	-1e10	8	-1E+10	1	-1E+10	1	-1E+10	1	-1E+10	1	-1E+10	1	-1E+10	1
4902554	95	C	09/25/2023	16:07	-133.486	47.730	0	1365.40	0	2.5740	0	34.4720	0	27.509	0	1349.550	0	-1e10	8	-1e10	8	-1E+10	1	-1E+10	1	-1E+10	1	-1E+10	1	-1E+10	1	-1E+10	1
4902554	95	C	09/25/2023	16:07	-133.486	47.730	0	1375.20	0	2.5610	0	34.4740	0	27.512	0	1359.205	0	-1e10	8	-1e10	8	-1E+10	1	-1E+10	1	-1E+10	1	-1E+10	1	-1E+10	1	-1E+10	1
4902554	95	C	09/25/2023	16:07	-133.486	47.730	0	1385.50	0	2.5400	0	34.4760	0	27.515	0	1369.352	0	-1e10	8	-1e10	8	-1E+10	1	-1E+10	1	-1E+10	1	-1E+10	1	-1E+10	1	-1E+10	1
4902554	95	C	09/25/2023	16:07	-133.486	47.730	0	1395.70	0	2.5170	0	34.4800	0	27.521	0	1379.400	0	-1e10	8	-1e10	8	-1E+10	1	-1E+10	1	-1E+10	1	-1E+10	1	-1E+10	1	-1E+10	1
4902554	95	C	09/25/2023	16:07	-133.486	47.730	0	1405.60	0	2.5070	0	34.4820	0	27.523	0	1389.151	0	-1e10	8	-1e10	8	-1E+10	1	-1E+10	1	-1E+10	1	-1E+10	1	-1E+10	1	-1E+10	1
4902554	95	C	09/25/2023	16:07	-133.486	47.730	0	1415.60	0	2.4950	0	34.4840	0	27.526	0	1399.001	0	-1e10	8	-1e10	8	-1E+10	1	-1E+10	1	-1E+10	1	-1E+10	1	-1E+10	1	-1E+10	1
4902554	95	C	09/25/2023	16:07	-133.486	47.730	0	1425.70	0	2.4830	0	34.4860	0	27.528	0	1408.949	0	-1e10	8	-1e10	8	-1E+10	1	-1E+10	1	-1E+10	1	-1E+10	1	-1E+10	1	-1E+10	1
4902554	95	C	09/25/2023	16:07	-133.486	47.730	0	1435.50	0	2.4730	0	34.4880	0	27.531	0	1418.601	0	-1e10	8	-1e10	8	-1E+10	1	-1E+10	1	-1E+10	1	-1E+10	1	-1E+10	1	-1E+10	1
4902554	95	C	09/25/2023	16:07	-133.486	47.730	0	1445.30	0	2.4620	0	34.4910	0	27.534	0	1428.253	0	-1e10	8	-1e10	8	-1E+10	1	-1E+10	1	-1E+10	1	-1E+10	1	-1E+10	1	-1E+10	1
4902554	95	C	09/25/2023	16:07	-133.486	47.730	0	1455.20	0	2.4480	0	34.4930	0	27.537	0	1438.002	0	-1e10	8	-1e10	8	-1E+10	1	-1E+10	1	-1E+10	1	-1E+10	1	-1E+10	1	-1E+10	1
4902554	95	C	09/25/2023	16:07	-133.486	47.730	0	1465.30	0	2.4350	0	34.4960	0	27.541	0	1447.948	0	-1e10	8	-1e10	8	-1E+10	1	-1E+10	1	-1E+10	1	-1E+10	1	-1E+10	1	-1E+10	1
4902554	95	C	09/25/2023	16:07	-133.486	47.730	0	1475.70	0	2.4250	0	34.4980	0	27.543	0	1458.189	0	-1e10	8	-1e10	8	-1E+10	1	-1E+10	1	-1E+10	1	-1E+10	1	-1E+10	1	-1E+10	1
4902554	95	C	09/25/2023	16:07	-133.486	47.730	0	1485.30	0	2.4170	0	34.4990	0	27.545	0	1467.642	0	-1e10	8	-1e10	8	-1E+10	1	-1E+10	1	-1E+10	1	-1E+10	1	-1E+10	1	-1E+10	1
4902554	95	C	09/25/2023	16:07	-133.486	47.730	0	1495.40	0	2.4050	0	34.5010	0	27.547	0	1477.587	0	-1e10	8	-1e10	8	-1E+10	1	-1E+10	1	-1E+10	1	-1E+10	1	-1E+10	1	-1E+10	1
4902554	95	C	09/25/2023	16:07	-133.486	47.730	0	1505.30	0	2.3930	0	34.5040	0	27.551	0	1487.334	0	-1e10	8	-1e10	8	-1E+10	1	-1E+10	1	-1E+10	1	-1E+10	1	-1E+10	1	-1E+10	1
4902554	95	C	09/25/2023	16:07	-133.486	47.730	0	1515.20	0	2.3800	0	34.5050	0	27.553	0	1497.081	0	-1e10	8	-1e10	8	-1E+10	1	-1E+10	1	-1E+10	1	-1E+10	1	-1E+10	1	-1E+10	1
4902554	95	C	09/25/2023	16:07	-133.486	47.730	0	1525.10	0	2.3700	0	34.5070	0	27.555	0	1506.827	0	-1e10	8	-1e10	8	-1E+10	1	-1E+10	1	-1E+10	1	-1E+10	1	-1E+10	1	-1E+10	1
4902554	95	C	09/25/2023	16:07	-133.486	47.730	0	1535.00	0	2.3560	0	34.5100	0	27.559	0	1516.573	0	-1e10	8	-1e10	8	-1E+10	1	-1E+10	1	-1E+10	1	-1E+10	1	-1E+10	1	-1E+10	1
4902554	95	C	09/25/2023	16:07	-133.486	47.730	0	1545.00	0	2.3420	0	34.5120	0	27.562	0	1526.417	0	-1e10	8	-1e10	8	-1E+10	1	-1E+10	1	-1E+10	1	-1E+10	1	-1E+10	1	-1E+10	1
4902554	95	C	09/25/2023	16:07	-133.486	47.730	0	1555.20	0	2.3260	0	34.5150	0	27.565	0	1536.457	0	-1e10	8	-1e10	8	-1E+10	1	-1E+10	1	-1E+10	1	-1E+10	1	-1E+10	1	-1E+10	1
4902554	95	C	09/25/2023	16:07	-133.486	47.730	0	1565.60	0	2.3130	0	34.5180	0	27.569	0	1546.694	0	-1e10	8	-1e10	8	-1E+10	1	-1E+10	1	-1E+10	1	-1E+10	1	-1E+10	1	-1E+10	1
4902554	95	C	09/25/2023	16:07	-133.486	47.730	0	1575.60	0	2.2970	0	34.5200	0	27.572	0	1556.536	0	-1e10	8	-1e10	8	-1E+10	1	-1E+10	1	-1E+10	1	-1E+10	1	-1E+10	1	-1E+10	1
4902554	95	C	09/25/2023	16:07	-133.486	47.730	0	1585.30	0	2.2850	0	34.5220	0	27.574	0	1566.083	0	-1e10	8	-1e10	8	-1E+10	1	-1E+10	1	-1E+10	1	-1E+10	1	-1E+10	1	-1E+10	1
4902554	95	C	09/25/2023	16:07	-133.486	47.730	0	1595.20	0	2.2710	0	34.5250	0	27.578	0	1575.826	0	-1e10	8	-1e10	8	-1E+10	1	-1E+10	1	-1E+10	1	-1E+10	1	-1E+10	1	-1E+10	1
4902554	95	C	09/25/2023	16:07	-133.486	47.730	0	1605.40	0	2.2580	0	34.5270	0	27.581	0	1585.864	0	-1e10	8	-1e10	8	-1E+10	1	-1E+10	1	-1E+10	1	-1E+10	1	-1E+10	1	-1E+10	1
4902554	95	C	09/25/2023	16:07	-133.486	47.730	0	1615.30	0	2.2510	0	34.5290	0	27.583	0	1595.606	0	-1e10	8	-1e10	8	-1E+10	1	-1E+10	1	-1E+10	1	-1E+10	1	-1E+10	1	-1E+10	1
4902554	95	C	09/25/2023	16:07	-133.486	47.730	0	1625.40	0	2.2450	0	34.5310	0	27.585	0	1605.545	0	-1e10	8	-1e10	8	-1E+10	1	-1E+10	1	-1E+10	1	-1E+10	1	-1E+10	1	-1E+10	1
4902554	95	C	09/25/2023	16:07	-133.486	47.730	0	1635.70	0	2.2370	0	34.5330	0	27.587	0	1615.680	0	-1e10	8	-1e10	8	-1E+10	1	-1E+10	1	-1E+10	1	-1E+10	1	-1E+10	1	-1E+10	1
4902554	95	C	09/25/2023	16:07	-133.486	47.730	0	1645.50	0	2.2250	0	34.5350	0	27.590	0	1625.322	0	-1e10	8	-1e10	8	-1E+10	1	-1E+10	1	-1E+10	1	-1E+10	1	-1E+10	1	-1E+10	1
4902554	95	C	09/25/2023	16:07	-133.486	47.730	0	1655.20	0	2.2130	0	34.5370	0	27.593	0	1634.866	0	-1e10	8	-1e10	8	-1E+10	1	-1E+10	1	-1E+10	1	-1E+10	1	-1E+10	1	-1E+10	1
4902554	95	C	09/25/2023	16:07	-133.486	47.730	0	1665.40	0	2.2030	0	34.5390	0	27.595	0	1644.901	0	-1e10	8	-1e10	8	-1E+10	1	-1E+10	1	-1E+10	1	-1E+10	1	-1E+10	1	-1E+10	1
4902554	95	C	09/25/2023	16:07	-133.486	47.730	0	1675.80	0	2.1860	0	34.5410	0	27.598	0	1655.133	0	-1e10	8	-1e10	8	-1E+10	1	-1E+10	1	-1E+10	1	-1E+10	1	-1E+10	1	-1E+10	1
4902554	95	C	09/25/2023	16:07	-133.486	47.730	0	1685.50	0	2.1710	0	34.5430	0	27.601	0	1664.675	0	-1e10	8	-1e10	8	-1E+10	1	-1E+10	1	-1E+10	1	-1E+10	1	-1E+10	1	-1E+10	1
4902554	95	C	09/25/2023	16:07	-133.486	47.730	0	1695.20	0	2.1620	0	34.5460	0	27.604	0	1674.217	0	-1e10	8	-1e10	8	-1E+10	1	-1E+10	1	-1E+10	1	-1E+10	1	-1E+10	1	-1E+10	1
4902554	95	C	09/25/2023	16:07	-133.486	47.730	0	1705.30	0	2.1520	0	34.5480	0	27.607	0	1684.152	0	-1e10	8	-1e10	8	-1E+10	1	-1E+10	1	-1E+10	1	-1E+10	1	-1E+10	1	-1E+10	1
4902554	95	C	09/25/2023	16:07	-133.486	47.730	0	1715.50	0	2.1450	0	34.5500	0	27.609	0	1694.184	0	-1e10	8	-1e10	8	-1E+10	1	-1E+10	1	-1E+10	1	-1E+10	1	-1E+10	1	-1E+10	1
4902554	95	C	09/25/2023	16:07	-133.486	47.730	0	1725.70	0	2.1410	0	34.5510	0	27.610	0	1704.217	0	-1e10	8	-1e10	8	-1E+10	1	-1E+10	1	-1E+10	1	-1E+10	1	-1E+10	1	-1E+10	1
4902554	95	C	09/25/2023	16:07	-133.486	47.730	0	1735.50	0	2.1320	0	34.5520	0	27.612	0	1713.855	0	-1e10	8	-1e10	8	-1E+10	1	-1E+10	1	-1E+10	1	-1E+10	1	-1E+10	1	-1E+10	1
4902554	95	C	09/25/2023	16:07	-133.486	47.730	0	1745.60	0	2.1260	0	34.5530	0	27.613	0	1723.788	0	-1e10	8	-1e10	8	-1E+10	1	-1E+10	1	-1E+10	1	-1E+10	1	-1E+10	1	-1E+10	1
4902554	95	C	09/25/2023	16:07	-133.486	47.730	0	1755.80	0	2.1170	0	34.5550	0	27.615	0	1733.819	0	-1e10	8	-1e10	8	-1E+10	1	-1E+10	1	-1E+10	1	-1E+10	1	-1E+10	1	-1E+10	1
4902554	95	C	09/25/2023	16:07	-133.486	47.730	0	1765.70	0	2.1110	0	34.5550	0	27.616	0	1743.554	0	-1e10	8	-1e10	8	-1E+10	1	-1E+10	1	-1E+10	1	-1E+10	1	-1E+10	1	-1E+10	1
4902554	95	C	09/25/2023	16:07	-133.486	47.730	0	1775.60	0	2.1000	0	34.5580	0	27.619	0	1753.289	0	-1e10	8	-1e10	8	-1E+10	1	-1E+10	1	-1E+10	1	-1E+10	1	-1E+10	1	-1E+10	1
4902554	95	C	09/25/2023	16:07	-133.486	47.730	0	1785.60	0	2.0910	0	34.5590	0	27.621	0	1763.122	0	-1e10	8	-1e10	8	-1E+10	1	-1E+10	1	-1E+10	1	-1E+10	1	-1E+10	1	-1E+10	1
4902554	95	C	09/25/2023	16:07	-133.486	47.730	0	1795.30	0	2.0810	0	34.5610	0	27.623	0	1772.660	0	-1e10	8	-1e10	8	-1E+10	1	-1E+10	1	-1E+10	1	-1E+10	1	-1E+10	1	-1E+10	1
4902554	95	C	09/25/2023	16:07	-133.486	47.730	0	1805.10	0	2.0740	0	34.5630	0	27.625	0	1782.295	0	-1e10	8	-1e10	8	-1E+10	1	-1E+10	1	-1E+10	1	-1E+10	1	-1E+10	1	-1E+10	1
4902554	95	C	09/25/2023	16:07	-133.486	47.730	0	1815.20	0	2.0660	0	34.5650	0	27.628	0	1792.225	0	-1e10	8	-1e10	8	-1E+10	1	-1E+10	1	-1E+10	1	-1E+10	1	-1E+10	1	-1E+10	1
4902554	95	C	09/25/2023	16:07	-133.486	47.730	0	1825.40	0	2.0590	0	34.5670	0	27.630	0	1802.253	0	-1e10	8	-1e10	8	-1E+10	1	-1E+10	1	-1E+10	1	-1E+10	1	-1E+10	1	-1E+10	1
4902554	95	C	09/25/2023	16:07	-133.486	47.730	0	1835.80	0	2.0520	0	34.5680	0	27.631	0	1812.476	0	-1e10	8	-1e10	8	-1E+10	1	-1E+10	1	-1E+10	1	-1E+10	1	-1E+10	1	-1E+10	1
4902554	95	C	09/25/2023	16:07	-133.486	47.730	0	1845.50	0	2.0450	0	34.5690	0	27.633	0	1822.012	0	-1e10	8	-1e10	8	-1E+10	1	-1E+10	1	-1E+10	1	-1E+10	1	-1E+10	1	-1E+10	1
4902554	95	C	09/25/2023	16:07	-133.486	47.730	0	1855.30	0	2.0340	0	34.5700	0	27.634	0	1831.645	0	-1e10	8	-1e10	8	-1E+10	1	-1E+10	1	-1E+10	1	-1E+10	1	-1E+10	1	-1E+10	1
4902554	95	C	09/25/2023	16:07	-133.486	47.730	0	1865.40	0	2.0260	0	34.5720	0	27.637	0	1841.572	0	-1e10	8	-1e10	8	-1E+10	1	-1E+10	1	-1E+10	1	-1E+10	1	-1E+10	1	-1E+10	1
4902554	95	C	09/25/2023	16:07	-133.486	47.730	0	1875.50	0	2.0200	0	34.5730	0	27.638	0	1851.499	0	-1e10	8	-1e10	8	-1E+10	1	-1E+10	1	-1E+10	1	-1E+10	1	-1E+10	1	-1E+10	1
4902554	95	C	09/25/2023	16:07	-133.486	47.730	0	1885.50	0	2.0120	0	34.5740	0	27.639	0	1861.328	0	-1e10	8	-1e10	8	-1E+10	1	-1E+10	1	-1E+10	1	-1E+10	1	-1E+10	1	-1E+10	1
4902554	95	C	09/25/2023	16:07	-133.486	47.730	0	1895.40	0	2.0030	0	34.5760	0	27.642	0	1871.057	0	-1e10	8	-1e10	8	-1E+10	1	-1E+10	1	-1E+10	1	-1E+10	1	-1E+10	1	-1E+10	1
4902554	95	C	09/25/2023	16:07	-133.486	47.730	0	1905.50	0	1.9970	0	34.5770	0	27.643	0	1880.983	0	-1e10	8	-1e10	8	-1E+10	1	-1E+10	1	-1E+10	1	-1E+10	1	-1E+10	1	-1E+10	1
4902554	95	C	09/25/2023	16:07	-133.486	47.730	0	1915.30	0	1.9890	0	34.5780	0	27.645	0	1890.613	0	-1e10	8	-1e10	8	-1E+10	1	-1E+10	1	-1E+10	1	-1E+10	1	-1E+10	1	-1E+10	1
4902554	95	C	09/25/2023	16:07	-133.486	47.730	0	1925.30	0	1.9840	0	34.5790	0	27.646	0	1900.440	0	-1e10	8	-1e10	8	-1E+10	1	-1E+10	1	-1E+10	1	-1E+10	1	-1E+10	1	-1E+10	1
4902554	95	C	09/25/2023	16:07	-133.486	47.730	0	1935.30	0	1.9810	0	34.5800	0	27.647	0	1910.266	0	-1e10	8	-1e10	8	-1E+10	1	-1E+10	1	-1E+10	1	-1E+10	1	-1E+10	1	-1E+10	1
4902554	95	C	09/25/2023	16:07	-133.486	47.730	0	1945.30	0	1.9730	0	34.5810	0	27.648	0	1920.091	0	-1e10	8	-1e10	8	-1E+10	1	-1E+10	1	-1E+10	1	-1E+10	1	-1E+10	1	-1E+10	1
4902554	95	C	09/25/2023	16:07	-133.486	47.730	0	1955.30	0	1.9660	0	34.5830	0	27.651	0	1929.916	0	-1e10	8	-1e10	8	-1E+10	1	-1E+10	1	-1E+10	1	-1E+10	1	-1E+10	1	-1E+10	1
4902554	95	C	09/25/2023	16:07	-133.486	47.730	0	1965.30	0	1.9590	0	34.5840	0	27.652	0	1939.741	0	-1e10	8	-1e10	8	-1E+10	1	-1E+10	1	-1E+10	1	-1E+10	1	-1E+10	1	-1E+10	1
4902554	95	C	09/25/2023	16:07	-133.486	47.730	0	1975.30	0	1.9550	0	34.5850	0	27.653	0	1949.565	0	-1e10	8	-1e10	8	-1E+10	1	-1E+10	1	-1E+10	1	-1E+10	1	-1E+10	1	-1E+10	1
4902554	95	C	09/25/2023	16:07	-133.486	47.730	0	1985.40	0	1.9510	0	34.5860	0	27.654	0	1959.487	0	-1e10	8	-1e10	8	-1E+10	1	-1E+10	1	-1E+10	1	-1E+10	1	-1E+10	1	-1E+10	1
4902554	95	C	09/25/2023	16:07	-133.486	47.730	0	1995.50	0	1.9470	0	34.5870	0	27.655	0	1969.409	0	-1e10	8	-1e10	8	-1E+10	1	-1E+10	1	-1E+10	1	-1E+10	1	-1E+10	1	-1E+10	1
4902554	95	C	09/25/2023	16:07	-133.486	47.730	0	2005.10	0	1.9440	0	34.5870	0	27.656	0	1978.839	0	-1e10	8	-1e10	8	-1E+10	1	-1E+10	1	-1E+10	1	-1E+10	1	-1E+10	1	-1E+10	1
4902554	95	C	09/25/2023	16:07	-133.486	47.730	0	2015.60	0	1.9410	0	34.5880	0	27.657	0	1989.152	0	-1e10	8	-1e10	8	-1E+10	1	-1E+10	1	-1E+10	1	-1E+10	1	-1E+10	1	-1E+10	1
4902554	95	C	09/25/2023	16:07	-133.486	47.730	0	2022.50	0	1.9360	0	34.5890	0	27.658	0	1995.930	0	-1e10	8	-1e10	8	-1E+10	1	-1E+10	1	-1E+10	1	-1E+10	1	-1E+10	1	-1E+10	1
4902554	95	C	09/25/2023	16:07	-133.486	47.730	0																										
4902554	96	C	10/05/2023	21:02	-133.619	47.778	0	0.70	0	15.2530	0	32.4180	0	23.928	0	0.694	0	-1e10	8	-1e10	8	-1E+10	1	-1E+10	1	-1E+10	1	-1E+10	1	-1E+10	1	-1E+10	1
4902554	96	C	10/05/2023	21:02	-133.619	47.778	0	0.80	0	15.2490	0	32.3960	0	23.912	0	0.793	0	-1e10	8	-1e10	8	-1E+10	1	-1E+10	1	-1E+10	1	-1E+10	1	-1E+10	1	-1E+10	1
4902554	96	C	10/05/2023	21:02	-133.619	47.778	0	1.80	0	15.2430	0	32.3860	0	23.906	0	1.785	0	-1e10	8	-1e10	8	-1E+10	1	-1E+10	1	-1E+10	1	-1E+10	1	-1E+10	1	-1E+10	1
4902554	96	C	10/05/2023	21:02	-133.619	47.778	0	2.90	0	15.2340	0	32.3890	0	23.910	0	2.876	0	-1e10	8	-1e10	8	-1E+10	1	-1E+10	1	-1E+10	1	-1E+10	1	-1E+10	1	-1E+10	1
4902554	96	C	10/05/2023	21:02	-133.619	47.778	0	4.10	0	15.2330	0	32.3980	0	23.917	0	4.066	0	-1e10	8	-1e10	8	-1E+10	1	-1E+10	1	-1E+10	1	-1E+10	1	-1E+10	1	-1E+10	1
4902554	96	C	10/05/2023	21:02	-133.619	47.778	0	5.10	0	15.1810	0	32.4140	0	23.941	0	5.057	0	-1e10	8	-1e10	8	-1E+10	1	-1E+10	1	-1E+10	1	-1E+10	1	-1E+10	1	-1E+10	1
4902554	96	C	10/05/2023	21:02	-133.619	47.778	0	6.00	0	15.1400	0	32.4150	0	23.951	0	5.950	0	-1e10	8	-1e10	8	-1E+10	1	-1E+10	1	-1E+10	1	-1E+10	1	-1E+10	1	-1E+10	1
4902554	96	C	10/05/2023	21:02	-133.619	47.778	0	6.90	0	15.1280	0	32.4140	0	23.952	0	6.842	0	-1e10	8	-1e10	8	-1E+10	1	-1E+10	1	-1E+10	1	-1E+10	1	-1E+10	1	-1E+10	1
4902554	96	C	10/05/2023	21:02	-133.619	47.778	0	8.10	0	15.0990	0	32.4140	0	23.959	0	8.032	0	-1e10	8	-1e10	8	-1E+10	1	-1E+10	1	-1E+10	1	-1E+10	1	-1E+10	1	-1E+10	1
4902554	96	C	10/05/2023	21:02	-133.619	47.778	0	9.00	0	15.0900	0	32.4140	0	23.961	0	8.924	0	-1e10	8	-1e10	8	-1E+10	1	-1E+10	1	-1E+10	1	-1E+10	1	-1E+10	1	-1E+10	1
4902554	96	C	10/05/2023	21:02	-133.619	47.778	0	10.00	0	15.0780	0	32.4140	0	23.963	0	9.916	0	-1e10	8	-1e10	8	-1E+10	1	-1E+10	1	-1E+10	1	-1E+10	1	-1E+10	1	-1E+10	1
4902554	96	C	10/05/2023	21:02	-133.619	47.778	0	11.00	0	15.0680	0	32.4140	0	23.966	0	10.908	0	-1e10	8	-1e10	8	-1E+10	1	-1E+10	1	-1E+10	1	-1E+10	1	-1E+10	1	-1E+10	1
4902554	96	C	10/05/2023	21:02	-133.619	47.778	0	11.90	0	15.0490	0	32.4140	0	23.970	0	11.800	0	-1e10	8	-1e10	8	-1E+10	1	-1E+10	1	-1E+10	1	-1E+10	1	-1E+10	1	-1E+10	1
4902554	96	C	10/05/2023	21:02	-133.619	47.778	0	12.90	0	15.0220	0	32.4170	0	23.978	0	12.792	0	-1e10	8	-1e10	8	-1E+10	1	-1E+10	1	-1E+10	1	-1E+10	1	-1E+10	1	-1E+10	1
4902554	96	C	10/05/2023	21:02	-133.619	47.778	0	13.90	0	14.9900	0	32.4150	0	23.983	0	13.783	0	-1e10	8	-1e10	8	-1E+10	1	-1E+10	1	-1E+10	1	-1E+10	1	-1E+10	1	-1E+10	1
4902554	96	C	10/05/2023	21:02	-133.619	47.778	0	15.00	0	14.9810	0	32.4150	0	23.985	0	14.874	0	-1e10	8	-1e10	8	-1E+10	1	-1E+10	1	-1E+10	1	-1E+10	1	-1E+10	1	-1E+10	1
4902554	96	C	10/05/2023	21:02	-133.619	47.778	0	15.90	0	14.9650	0	32.4150	0	23.989	0	15.766	0	-1e10	8	-1e10	8	-1E+10	1	-1E+10	1	-1E+10	1	-1E+10	1	-1E+10	1	-1E+10	1
4902554	96	C	10/05/2023	21:02	-133.619	47.778	0	16.90	0	14.9480	0	32.4160	0	23.993	0	16.758	0	-1e10	8	-1e10	8	-1E+10	1	-1E+10	1	-1E+10	1	-1E+10	1	-1E+10	1	-1E+10	1
4902554	96	C	10/05/2023	21:02	-133.619	47.778	0	17.90	0	14.9100	0	32.4170	0	24.002	0	17.749	0	-1e10	8	-1e10	8	-1E+10	1	-1E+10	1	-1E+10	1	-1E+10	1	-1E+10	1	-1E+10	1
4902554	96	C	10/05/2023	21:02	-133.619	47.778	0	19.00	0	14.8890	0	32.4190	0	24.008	0	18.840	0	-1e10	8	-1e10	8	-1E+10	1	-1E+10	1	-1E+10	1	-1E+10	1	-1E+10	1	-1E+10	1
4902554	96	C	10/05/2023	21:02	-133.619	47.778	0	20.00	0	14.8780	0	32.4170	0	24.009	0	19.832	0	-1e10	8	-1e10	8	-1E+10	1	-1E+10	1	-1E+10	1	-1E+10	1	-1E+10	1	-1E+10	1
4902554	96	C	10/05/2023	21:02	-133.619	47.778	0	21.10	0	14.8620	0	32.4170	0	24.012	0	20.922	0	-1e10	8	-1e10	8	-1E+10	1	-1E+10	1	-1E+10	1	-1E+10	1	-1E+10	1	-1E+10	1
4902554	96	C	10/05/2023	21:02	-133.619	47.778	0	21.80	0	14.8550	0	32.4170	0	24.014	0	21.616	0	-1e10	8	-1e10	8	-1E+10	1	-1E+10	1	-1E+10	1	-1E+10	1	-1E+10	1	-1E+10	1
4902554	96	C	10/05/2023	21:02	-133.619	47.778	0	22.80	0	14.8530	0	32.4170	0	24.014	0	22.608	0	-1e10	8	-1e10	8	-1E+10	1	-1E+10	1	-1E+10	1	-1E+10	1	-1E+10	1	-1E+10	1
4902554	96	C	10/05/2023	21:02	-133.619	47.778	0	23.90	0	14.8510	0	32.4170	0	24.015	0	23.699	0	-1e10	8	-1e10	8	-1E+10	1	-1E+10	1	-1E+10	1	-1E+10	1	-1E+10	1	-1E+10	1
4902554	96	C	10/05/2023	21:02	-133.619	47.778	0	24.90	0	14.8480	0	32.4170	0	24.015	0	24.690	0	-1e10	8	-1e10	8	-1E+10	1	-1E+10	1	-1E+10	1	-1E+10	1	-1E+10	1	-1E+10	1
4902554	96	C	10/05/2023	21:02	-133.619	47.778	0	26.00	0	14.8460	0	32.4170	0	24.016	0	25.781	0	-1e10	8	-1e10	8	-1E+10	1	-1E+10	1	-1E+10	1	-1E+10	1	-1E+10	1	-1E+10	1
4902554	96	C	10/05/2023	21:02	-133.619	47.778	0	27.00	0	14.8440	0	32.4170	0	24.016	0	26.772	0	-1e10	8	-1e10	8	-1E+10	1	-1E+10	1	-1E+10	1	-1E+10	1	-1E+10	1	-1E+10	1
4902554	96	C	10/05/2023	21:02	-133.619	47.778	0	28.10	0	14.8420	0	32.4180	0	24.018	0	27.863	0	-1e10	8	-1e10	8	-1E+10	1	-1E+10	1	-1E+10	1	-1E+10	1	-1E+10	1	-1E+10	1
4902554	96	C	10/05/2023	21:02	-133.619	47.778	0	28.90	0	14.8420	0	32.4180	0	24.018	0	28.656	0	-1e10	8	-1e10	8	-1E+10	1	-1E+10	1	-1E+10	1	-1E+10	1	-1E+10	1	-1E+10	1
4902554	96	C	10/05/2023	21:02	-133.619	47.778	0	29.90	0	14.8400	0	32.4180	0	24.018	0	29.648	0	-1e10	8	-1e10	8	-1E+10	1	-1E+10	1	-1E+10	1	-1E+10	1	-1E+10	1	-1E+10	1
4902554	96	C	10/05/2023	21:02	-133.619	47.778	0	30.90	0	14.8390	0	32.4190	0	24.019	0	30.639	0	-1e10	8	-1e10	8	-1E+10	1	-1E+10	1	-1E+10	1	-1E+10	1	-1E+10	1	-1E+10	1
4902554	96	C	10/05/2023	21:02	-133.619	47.778	0	31.90	0	14.8390	0	32.4180	0	24.018	0	31.631	0	-1e10	8	-1e10	8	-1E+10	1	-1E+10	1	-1E+10	1	-1E+10	1	-1E+10	1	-1E+10	1
4902554	96	C	10/05/2023	21:02	-133.619	47.778	0	33.00	0	14.8370	0	32.4190	0	24.020	0	32.721	0	-1e10	8	-1e10	8	-1E+10	1	-1E+10	1	-1E+10	1	-1E+10	1	-1E+10	1	-1E+10	1
4902554	96	C	10/05/2023	21:02	-133.619	47.778	0	33.90	0	14.8370	0	32.4180	0	24.019	0	33.613	0	-1e10	8	-1e10	8	-1E+10	1	-1E+10	1	-1E+10	1	-1E+10	1	-1E+10	1	-1E+10	1
4902554	96	C	10/05/2023	21:02	-133.619	47.778	0	35.10	0	14.8320	0	32.4190	0	24.021	0	34.803	0	-1e10	8	-1e10	8	-1E+10	1	-1E+10	1	-1E+10	1	-1E+10	1	-1E+10	1	-1E+10	1
4902554	96	C	10/05/2023	21:02	-133.619	47.778	0	35.90	0	14.8280	0	32.4190	0	24.022	0	35.596	0	-1e10	8	-1e10	8	-1E+10	1	-1E+10	1	-1E+10	1	-1E+10	1	-1E+10	1	-1E+10	1
4902554	96	C	10/05/2023	21:02	-133.619	47.778	0	36.70	0	14.8220	0	32.4190	0	24.023	0	36.390	0	-1e10	8	-1e10	8	-1E+10	1	-1E+10	1	-1E+10	1	-1E+10	1	-1E+10	1	-1E+10	1
4902554	96	C	10/05/2023	21:02	-133.619	47.778	0	37.90	0	14.7940	0	32.4090	0	24.021	0	37.579	0	-1e10	8	-1e10	8	-1E+10	1	-1E+10	1	-1E+10	1	-1E+10	1	-1E+10	1	-1E+10	1
4902554	96	C	10/05/2023	21:02	-133.619	47.778	0	38.90	0	14.3840	0	32.4020	0	24.102	0	38.571	0	-1e10	8	-1e10	8	-1E+10	1	-1E+10	1	-1E+10	1	-1E+10	1	-1E+10	1	-1E+10	1
4902554	96	C	10/05/2023	21:02	-133.619	47.778	0	39.90	0	13.6800	0	32.4120	0	24.255	0	39.562	0	-1e10	8	-1e10	8	-1E+10	1	-1E+10	1	-1E+10	1	-1E+10	1	-1E+10	1	-1E+10	1
4902554	96	C	10/05/2023	21:02	-133.619	47.778	0	40.80	0	13.2830	0	32.4090	0	24.332	0	40.454	0	-1e10	8	-1e10	8	-1E+10	1	-1E+10	1	-1E+10	1	-1E+10	1	-1E+10	1	-1E+10	1
4902554	96	C	10/05/2023	21:02	-133.619	47.778	0	42.10	0	12.0050	0	32.4250	0	24.590	0	41.743	0	-1e10	8	-1e10	8	-1E+10	1	-1E+10	1	-1E+10	1	-1E+10	1	-1E+10	1	-1E+10	1
4902554	96	C	10/05/2023	21:02	-133.619	47.778	0	43.10	0	10.8720	0	32.4140	0	24.786	0	42.735	0	-1e10	8	-1e10	8	-1E+10	1	-1E+10	1	-1E+10	1	-1E+10	1	-1E+10	1	-1E+10	1
4902554	96	C	10/05/2023	21:02	-133.619	47.778	0	44.00	0	9.9940	0	32.4310	0	24.949	0	43.627	0	-1e10	8	-1e10	8	-1E+10	1	-1E+10	1	-1E+10	1	-1E+10	1	-1E+10	1	-1E+10	1
4902554	96	C	10/05/2023	21:02	-133.619	47.778	0	45.00	0	9.5380	0	32.4420	0	25.032	0	44.618	0	-1e10	8	-1e10	8	-1E+10	1	-1E+10	1	-1E+10	1	-1E+10	1	-1E+10	1	-1E+10	1
4902554	96	C	10/05/2023	21:02	-133.619	47.778	0	46.10	0	9.0980	0	32.4520	0	25.109	0	45.709	0	-1e10	8	-1e10	8	-1E+10	1	-1E+10	1	-1E+10	1	-1E+10	1	-1E+10	1	-1E+10	1
4902554	96	C	10/05/2023	21:02	-133.619	47.778	0	47.00	0	8.9750	0	32.4530	0	25.129	0	46.601	0	-1e10	8	-1e10	8	-1E+10	1	-1E+10	1	-1E+10	1	-1E+10	1	-1E+10	1	-1E+10	1
4902554	96	C	10/05/2023	21:02	-133.619	47.778	0	47.80	0	8.8670	0	32.4590	0	25.151	0	47.394	0	-1e10	8	-1e10	8	-1E+10	1	-1E+10	1	-1E+10	1	-1E+10	1	-1E+10	1	-1E+10	1
4902554	96	C	10/05/2023	21:02	-133.619	47.778	0	49.00	0	8.7630	0	32.4560	0	25.164	0	48.584	0	-1e10	8	-1e10	8	-1E+10	1	-1E+10	1	-1E+10	1	-1E+10	1	-1E+10	1	-1E+10	1
4902554	96	C	10/05/2023	21:02	-133.619	47.778	0	50.10	0	8.6540	0	32.4610	0	25.185	0	49.675	0	-1e10	8	-1e10	8	-1E+10	1	-1E+10	1	-1E+10	1	-1E+10	1	-1E+10	1	-1E+10	1
4902554	96	C	10/05/2023	21:02	-133.619	47.778	0	51.00	0	8.5660	0	32.4650	0	25.201	0	50.567	0	-1e10	8	-1e10	8	-1E+10	1	-1E+10	1	-1E+10	1	-1E+10	1	-1E+10	1	-1E+10	1
4902554	96	C	10/05/2023	21:02	-133.619	47.778	0	51.90	0	8.4670	0	32.4680	0	25.218	0	51.459	0	-1e10	8	-1e10	8	-1E+10	1	-1E+10	1	-1E+10	1	-1E+10	1	-1E+10	1	-1E+10	1
4902554	96	C	10/05/2023	21:02	-133.619	47.778	0	52.90	0	8.3170	0	32.4730	0	25.244	0	52.450	0	-1e10	8	-1e10	8	-1E+10	1	-1E+10	1	-1E+10	1	-1E+10	1	-1E+10	1	-1E+10	1
4902554	96	C	10/05/2023	21:02	-133.619	47.778	0	53.80	0	8.2410	0	32.4740	0	25.256	0	53.343	0	-1e10	8	-1e10	8	-1E+10	1	-1E+10	1	-1E+10	1	-1E+10	1	-1E+10	1	-1E+10	1
4902554	96	C	10/05/2023	21:02	-133.619	47.778	0	55.00	0	8.2010	0	32.4760	0	25.264	0	54.532	0	-1e10	8	-1e10	8	-1E+10	1	-1E+10	1	-1E+10	1	-1E+10	1	-1E+10	1	-1E+10	1
4902554	96	C	10/05/2023	21:02	-133.619	47.778	0	56.00	0	8.1830	0	32.4750	0	25.266	0	55.524	0	-1e10	8	-1e10	8	-1E+10	1	-1E+10	1	-1E+10	1	-1E+10	1	-1E+10	1	-1E+10	1
4902554	96	C	10/05/2023	21:02	-133.619	47.778	0	57.00	0	8.1370	0	32.4770	0	25.274	0	56.515	0	-1e10	8	-1e10	8	-1E+10	1	-1E+10	1	-1E+10	1	-1E+10	1	-1E+10	1	-1E+10	1
4902554	96	C	10/05/2023	21:02	-133.619	47.778	0	58.10	0	8.0870	0	32.4790	0	25.283	0	57.606	0	-1e10	8	-1e10	8	-1E+10	1	-1E+10	1	-1E+10	1	-1E+10	1	-1E+10	1	-1E+10	1
4902554	96	C	10/05/2023	21:02	-133.619	47.778	0	58.90	0	8.0600	0	32.4790	0	25.287	0	58.399	0	-1e10	8	-1e10	8	-1E+10	1	-1E+10	1	-1E+10	1	-1E+10	1	-1E+10	1	-1E+10	1
4902554	96	C	10/05/2023	21:02	-133.619	47.778	0	60.10	0	8.0300	0	32.4770	0	25.290	0	59.588	0	-1e10	8	-1e10	8	-1E+10	1	-1E+10	1	-1E+10	1	-1E+10	1	-1E+10	1	-1E+10	1
4902554	96	C	10/05/2023	21:02	-133.619	47.778	0	61.00	0	7.9130	0	32.4710	0	25.302	0	60.480	0	-1e10	8	-1e10	8	-1E+10	1	-1E+10	1	-1E+10	1	-1E+10	1	-1E+10	1	-1E+10	1
4902554	96	C	10/05/2023	21:02	-133.619	47.778	0	62.00	0	7.7960	0	32.4660	0	25.315	0	61.472	0	-1e10	8	-1e10	8	-1E+10	1	-1E+10	1	-1E+10	1	-1E+10	1	-1E+10	1	-1E+10	1
4902554	96	C	10/05/2023	21:02	-133.619	47.778	0	63.00	0	7.7440	0	32.4640	0	25.320	0	62.463	0	-1e10	8	-1e10	8	-1E+10	1	-1E+10	1	-1E+10	1	-1E+10	1	-1E+10	1	-1E+10	1
4902554	96	C	10/05/2023	21:02	-133.619	47.778	0	64.00	0	7.6830	0	32.4600	0	25.326	0	63.454	0	-1e10	8	-1e10	8	-1E+10	1	-1E+10	1	-1E+10	1	-1E+10	1	-1E+10	1	-1E+10	1
4902554	96	C	10/05/2023	21:02	-133.619	47.778	0	65.10	0	7.6490	0	32.4570	0	25.328	0	64.545	0	-1e10	8	-1e10	8	-1E+10	1	-1E+10	1	-1E+10	1	-1E+10	1	-1E+10	1	-1E+10	1
4902554	96	C	10/05/2023	21:02	-133.619	47.778	0	66.10	0	7.6270	0	32.4550	0	25.330	0	65.536	0	-1e10	8	-1e10	8	-1E+10	1	-1E+10	1	-1E+10	1	-1E+10	1	-1E+10	1	-1E+10	1
4902554	96	C	10/05/2023	21:02	-133.619	47.778	0	67.10	0	7.6070	0	32.4620	0	25.338	0	66.527	0	-1e10	8	-1e10	8	-1E+10	1	-1E+10	1	-1E+10	1	-1E+10	1	-1E+10	1	-1E+10	1
4902554	96	C	10/05/2023	21:02	-133.619	47.778	0	67.80	0	7.6030	0	32.4710	0	25.346	0	67.221	0	-1e10	8	-1e10	8	-1E+10	1	-1E+10	1	-1E+10	1	-1E+10	1	-1E+10	1	-1E+10	1
4902554	96	C	10/05/2023	21:02	-133.619	47.778	0	68.90	0	7.5700	0	32.4720	0	25.351	0	68.312	0	-1e10	8	-1e10	8	-1E+10	1	-1E+10	1	-1E+10	1	-1E+10	1	-1E+10	1	-1E+10	1
4902554	96	C	10/05/2023	21:02	-133.619	47.778	0	70.10	0	7.5500	0	32.4710	0	25.353	0	69.501	0	-1e10	8	-1e10	8	-1E+10	1	-1E+10	1	-1E+10	1	-1E+10	1	-1E+10	1	-1E+10	1
4902554	96	C	10/05/2023	21:02	-133.619	47.778	0	70.90	0	7.5300	0	32.4710	0	25.356	0	70.294	0	-1e10	8	-1e10	8	-1E+10	1	-1E+10	1	-1E+10	1	-1E+10	1	-1E+10	1	-1E+10	1
4902554	96	C	10/05/2023	21:02	-133.619	47.778	0	72.10	0	7.5050	0	32.4740	0	25.362	0	71.484	0	-1e10	8	-1e10	8	-1E+10	1	-1E+10	1	-1E+10	1	-1E+10	1	-1E+10	1	-1E+10	1
4902554	96	C	10/05/2023	21:02	-133.619	47.778	0	72.80	0	7.5020	0	32.4750	0	25.363	0	72.178	0	-1e10	8	-1e10	8	-1E+10	1	-1E+10	1	-1E+10	1	-1E+10	1	-1E+10	1	-1E+10	1
4902554	96	C	10/05/2023	21:02	-133.619	47.778	0	73.70	0	7.5060	0	32.4800	0	25.366	0	73.070	0	-1e10	8	-1e10	8	-1E+10	1	-1E+10	1	-1E+10	1	-1E+10	1	-1E+10	1	-1E+10	1
4902554	96	C	10/05/2023	21:02	-133.619	47.778	0	74.70	0	7.5120	0	32.4840	0	25.369	0	74.061	0	-1e10	8	-1e10	8	-1E+10	1	-1E+10	1	-1E+10	1	-1E+10	1	-1E+10	1	-1E+10	1
4902554	96	C	10/05/2023	21:02	-133.619	47.778	0	75.70	0	7.5070	0	32.4860	0	25.371	0	75.053	0	-1e10	8	-1e10	8	-1E+10	1	-1E+10	1	-1E+10	1	-1E+10	1	-1E+10	1	-1E+10	1
4902554	96	C	10/05/2023	21:02	-133.619	47.778	0	76.70	0	7.5020	0	32.4860	0	25.372	0	76.044	0	-1e10	8	-1e10	8	-1E+10	1	-1E+10	1	-1E+10	1	-1E+10	1	-1E+10	1	-1E+10	1
4902554	96	C	10/05/2023	21:02	-133.619	47.778	0	77.70	0	7.4690	0	32.4880	0	25.378	0	77.035	0	-1e10	8	-1e10	8	-1E+10	1	-1E+10	1	-1E+10	1	-1E+10	1	-1E+10	1	-1E+10	1
4902554	96	C	10/05/2023	21:02	-133.619	47.778	0	78.70	0	7.4230	0	32.4900	0	25.386	0	78.026	0	-1e10	8	-1e10	8	-1E+10	1	-1E+10	1	-1E+10	1	-1E+10	1	-1E+10	1	-1E+10	1
4902554	96	C	10/05/2023	21:02	-133.619	47.778	0	79.70	0	7.3450	0	32.4790	0	25.388	0	79.018	0	-1e10	8	-1e10	8	-1E+10	1	-1E+10	1	-1E+10	1	-1E+10	1	-1E+10	1	-1E+10	1
4902554	96	C	10/05/2023	21:02	-133.619	47.778	0	80.80	0	7.3990	0	32.4910	0	25.390	0	80.108	0	-1e10	8	-1e10	8	-1E+10	1	-1E+10	1	-1E+10	1	-1E+10	1	-1E+10	1	-1E+10	1
4902554	96	C	10/05/2023	21:02	-133.619	47.778	0	81.80	0	7.3790	0	32.4930	0	25.394	0	81.099	0	-1e10	8	-1e10	8	-1E+10	1	-1E+10	1	-1E+10	1	-1E+10	1	-1E+10	1	-1E+10	1
4902554	96	C	10/05/2023	21:02	-133.619	47.778	0	82.80	0	7.2940	0	32.4860	0	25.400	0	82.090	0	-1e10	8	-1e10	8	-1E+10	1	-1E+10	1	-1E+10	1	-1E+10	1	-1E+10	1	-1E+10	1
4902554	96	C	10/05/2023	21:02	-133.619	47.778	0	83.80	0	7.2370	0	32.4800	0	25.403	0	83.082	0	-1e10	8	-1e10	8	-1E+10	1	-1E+10	1	-1E+10	1	-1E+10	1	-1E+10	1	-1E+10	1
4902554	96	C	10/05/2023	21:02	-133.619	47.778	0	84.80	0	7.2080	0	32.4780	0	25.406	0	84.073	0	-1e10	8	-1e10	8	-1E+10	1	-1E+10	1	-1E+10	1	-1E+10	1	-1E+10	1	-1E+10	1
4902554	96	C	10/05/2023	21:02	-133.619	47.778	0	85.80	0	7.2660	0	32.4920	0	25.409	0	85.064	0	-1e10	8	-1e10	8	-1E+10	1	-1E+10	1	-1E+10	1	-1E+10	1	-1E+10	1	-1E+10	1
4902554	96	C	10/05/2023	21:02	-133.619	47.778	0	86.80	0	7.2600	0	32.4940	0	25.411	0	86.055	0	-1e10	8	-1e10	8	-1E+10	1	-1E+10	1	-1E+10	1	-1E+10	1	-1E+10	1	-1E+10	1
4902554	96	C	10/05/2023	21:02	-133.619	47.778	0	87.80	0	7.2830	0	32.5030	0	25.415	0	87.046	0	-1e10	8	-1e10	8	-1E+10	1	-1E+10	1	-1E+10	1	-1E+10	1	-1E+10	1	-1E+10	1
4902554	96	C	10/05/2023	21:02	-133.619	47.778	0	88.80	0	7.2670	0	32.5050	0	25.419	0	88.038	0	-1e10	8	-1e10	8	-1E+10	1	-1E+10	1	-1E+10	1	-1E+10	1	-1E+10	1	-1E+10	1
4902554	96	C	10/05/2023	21:02	-133.619	47.778	0	89.70	0	7.2640	0	32.5020	0	25.417	0	88.930	0	-1e10	8	-1e10	8	-1E+10	1	-1E+10	1	-1E+10	1	-1E+10	1	-1E+10	1	-1E+10	1
4902554	96	C	10/05/2023	21:02	-133.619	47.778	0	91.10	0	7.2730	0	32.5090	0	25.421	0	90.317	0	-1e10	8	-1e10	8	-1E+10	1	-1E+10	1	-1E+10	1	-1E+10	1	-1E+10	1	-1E+10	1
4902554	96	C	10/05/2023	21:02	-133.619	47.778	0	92.00	0	7.2650	0	32.5100	0	25.423	0	91.210	0	-1e10	8	-1e10	8	-1E+10	1	-1E+10	1	-1E+10	1	-1E+10	1	-1E+10	1	-1E+10	1
4902554	96	C	10/05/2023	21:02	-133.619	47.778	0	93.00	0	7.2350	0	32.5190	0	25.435	0	92.201	0	-1e10	8	-1e10	8	-1E+10	1	-1E+10	1	-1E+10	1	-1E+10	1	-1E+10	1	-1E+10	1
4902554	96	C	10/05/2023	21:02	-133.619	47.778	0	94.20	0	7.2740	0	32.5300	0	25.438	0	93.390	0	-1e10	8	-1e10	8	-1E+10	1	-1E+10	1	-1E+10	1	-1E+10	1	-1E+10	1	-1E+10	1
4902554	96	C	10/05/2023	21:02	-133.619	47.778	0	95.10	0	7.2580	0	32.5370	0	25.446	0	94.282	0	-1e10	8	-1e10	8	-1E+10	1	-1E+10	1	-1E+10	1	-1E+10	1	-1E+10	1	-1E+10	1
4902554	96	C	10/05/2023	21:02	-133.619	47.778	0	95.80	0	7.2030	0	32.5370	0	25.453	0	94.976	0	-1e10	8	-1e10	8	-1E+10	1	-1E+10	1	-1E+10	1	-1E+10	1	-1E+10	1	-1E+10	1
4902554	96	C	10/05/2023	21:02	-133.619	47.778	0	96.80	0	7.1190	0	32.5350	0	25.463	0	95.967	0	-1e10	8	-1e10	8	-1E+10	1	-1E+10	1	-1E+10	1	-1E+10	1	-1E+10	1	-1E+10	1
4902554	96	C	10/05/2023	21:02	-133.619	47.778	0	97.90	0	7.1200	0	32.5740	0	25.493	0	97.057	0	-1e10	8	-1e10	8	-1E+10	1	-1E+10	1	-1E+10	1	-1E+10	1	-1E+10	1	-1E+10	1
4902554	96	C	10/05/2023	21:02	-133.619	47.778	0	99.00	0	7.1120	0	32.5890	0	25.506	0	98.148	0	-1e10	8	-1e10	8	-1E+10	1	-1E+10	1	-1E+10	1	-1E+10	1	-1E+10	1	-1E+10	1
4902554	96	C	10/05/2023	21:02	-133.619	47.778	0	100.10	0	7.1280	0	32.6100	0	25.521	0	99.238	0	-1e10	8	-1e10	8	-1E+10	1	-1E+10	1	-1E+10	1	-1E+10	1	-1E+10	1	-1E+10	1
4902554	96	C	10/05/2023	21:02	-133.619	47.778	0	101.00	0	7.1000	0	32.6230	0	25.535	0	100.130	0	-1e10	8	-1e10	8	-1E+10	1	-1E+10	1	-1E+10	1	-1E+10	1	-1E+10	1	-1E+10	1
4902554	96	C	10/05/2023	21:02	-133.619	47.778	0	101.80	0	7.0920	0	32.6310	0	25.542	0	100.923	0	-1e10	8	-1e10	8	-1E+10	1	-1E+10	1	-1E+10	1	-1E+10	1	-1E+10	1	-1E+10	1
4902554	96	C	10/05/2023	21:02	-133.619	47.778	0	103.10	0	7.0730	0	32.6500	0	25.560	0	102.211	0	-1e10	8	-1e10	8	-1E+10	1	-1E+10	1	-1E+10	1	-1E+10	1	-1E+10	1	-1E+10	1
4902554	96	C	10/05/2023	21:02	-133.619	47.778	0	104.00	0	7.0490	0	32.6650	0	25.575	0	103.103	0	-1e10	8	-1e10	8	-1E+10	1	-1E+10	1	-1E+10	1	-1E+10	1	-1E+10	1	-1E+10	1
4902554	96	C	10/05/2023	21:02	-133.619	47.778	0	105.00	0	7.0310	0	32.6800	0	25.589	0	104.095	0	-1e10	8	-1e10	8	-1E+10	1	-1E+10	1	-1E+10	1	-1E+10	1	-1E+10	1	-1E+10	1
4902554	96	C	10/05/2023	21:02	-133.619	47.778	0	105.90	0	7.0190	0	32.6860	0	25.595	0	104.987	0	-1e10	8	-1e10	8	-1E+10	1	-1E+10	1	-1E+10	1	-1E+10	1	-1E+10	1	-1E+10	1
4902554	96	C	10/05/2023	21:02	-133.619	47.778	0	106.80	0	6.9990	0	32.6920	0	25.603	0	105.879	0	-1e10	8	-1e10	8	-1E+10	1	-1E+10	1	-1E+10	1	-1E+10	1	-1E+10	1	-1E+10	1
4902554	96	C	10/05/2023	21:02	-133.619	47.778	0	107.80	0	6.9540	0	32.7310	0	25.639	0	106.870	0	-1e10	8	-1e10	8	-1E+10	1	-1E+10	1	-1E+10	1	-1E+10	1	-1E+10	1	-1E+10	1
4902554	96	C	10/05/2023	21:02	-133.619	47.778	0	108.80	0	6.9300	0	32.7510	0	25.658	0	107.861	0	-1e10	8	-1e10	8	-1E+10	1	-1E+10	1	-1E+10	1	-1E+10	1	-1E+10	1	-1E+10	1
4902554	96	C	10/05/2023	21:02	-133.619	47.778	0	109.80	0	6.9380	0	32.7690	0	25.671	0	108.852	0	-1e10	8	-1e10	8	-1E+10	1	-1E+10	1	-1E+10	1	-1E+10	1	-1E+10	1	-1E+10	1
4902554	96	C	10/05/2023	21:02	-133.619	47.778	0	110.80	0	6.9600	0	32.7870	0	25.683	0	109.843	0	-1e10	8	-1e10	8	-1E+10	1	-1E+10	1	-1E+10	1	-1E+10	1	-1E+10	1	-1E+10	1
4902554	96	C	10/05/2023	21:02	-133.619	47.778	0	112.10	0	6.9630	0	32.7960	0	25.689	0	111.131	0	-1e10	8	-1e10	8	-1E+10	1	-1E+10	1	-1E+10	1	-1E+10	1	-1E+10	1	-1E+10	1
4902554	96	C	10/05/2023	21:02	-133.619	47.778	0	113.00	0	6.9680	0	32.8020	0	25.693	0	112.023	0	-1e10	8	-1e10	8	-1E+10	1	-1E+10	1	-1E+10	1	-1E+10	1	-1E+10	1	-1E+10	1
4902554	96	C	10/05/2023	21:02	-133.619	47.778	0	113.80	0	6.9560	0	32.8140	0	25.705	0	112.816	0	-1e10	8	-1e10	8	-1E+10	1	-1E+10	1	-1E+10	1	-1E+10	1	-1E+10	1	-1E+10	1
4902554	96	C	10/05/2023	21:02	-133.619	47.778	0	114.80	0	6.9140	0	32.8540	0	25.742	0	113.807	0	-1e10	8	-1e10	8	-1E+10	1	-1E+10	1	-1E+10	1	-1E+10	1	-1E+10	1	-1E+10	1
4902554	96	C	10/05/2023	21:02	-133.619	47.778	0	116.00	0	6.8630	0	32.8860	0	25.774	0	114.997	0	-1e10	8	-1e10	8	-1E+10	1	-1E+10	1	-1E+10	1	-1E+10	1	-1E+10	1	-1E+10	1
4902554	96	C	10/05/2023	21:02	-133.619	47.778	0	116.90	0	6.7100	0	32.9470	0	25.842	0	115.889	0	-1e10	8	-1e10	8	-1E+10	1	-1E+10	1	-1E+10	1	-1E+10	1	-1E+10	1	-1E+10	1
4902554	96	C	10/05/2023	21:02	-133.619	47.778	0	117.70	0	6.6760	0	32.9790	0	25.872	0	116.681	0	-1e10	8	-1e10	8	-1E+10	1	-1E+10	1	-1E+10	1	-1E+10	1	-1E+10	1	-1E+10	1
4902554	96	C	10/05/2023	21:02	-133.619	47.778	0	118.90	0	6.6600	0	32.9980	0	25.889	0	117.871	0	-1e10	8	-1e10	8	-1E+10	1	-1E+10	1	-1E+10	1	-1E+10	1	-1E+10	1	-1E+10	1
4902554	96	C	10/05/2023	21:02	-133.619	47.778	0	119.80	0	6.6240	0	33.0460	0	25.931	0	118.763	0	-1e10	8	-1e10	8	-1E+10	1	-1E+10	1	-1E+10	1	-1E+10	1	-1E+10	1	-1E+10	1
4902554	96	C	10/05/2023	21:02	-133.619	47.778	0	120.80	0	6.5040	0	33.1040	0	25.992	0	119.754	0	-1e10	8	-1e10	8	-1E+10	1	-1E+10	1	-1E+10	1	-1E+10	1	-1E+10	1	-1E+10	1
4902554	96	C	10/05/2023	21:02	-133.619	47.778	0	122.10	0	6.4240	0	33.1420	0	26.033	0	121.042	0	-1e10	8	-1e10	8	-1E+10	1	-1E+10	1	-1E+10	1	-1E+10	1	-1E+10	1	-1E+10	1
4902554	96	C	10/05/2023	21:02	-133.619	47.778	0	123.10	0	6.4150	0	33.1560	0	26.045	0	122.033	0	-1e10	8	-1e10	8	-1E+10	1	-1E+10	1	-1E+10	1	-1E+10	1	-1E+10	1	-1E+10	1
4902554	96	C	10/05/2023	21:02	-133.619	47.778	0	123.80	0	6.4440	0	33.1780	0	26.059	0	122.727	0	-1e10	8	-1e10	8	-1E+10	1	-1E+10	1	-1E+10	1	-1E+10	1	-1E+10	1	-1E+10	1
4902554	96	C	10/05/2023	21:02	-133.619	47.778	0	124.80	0	6.4020	0	33.2030	0	26.084	0	123.718	0	-1e10	8	-1e10	8	-1E+10	1	-1E+10	1	-1E+10	1	-1E+10	1	-1E+10	1	-1E+10	1
4902554	96	C	10/05/2023	21:02	-133.619	47.778	0	125.80	0	6.3890	0	33.2120	0	26.092	0	124.709	0	-1e10	8	-1e10	8	-1E+10	1	-1E+10	1	-1E+10	1	-1E+10	1	-1E+10	1	-1E+10	1
4902554	96	C	10/05/2023	21:02	-133.619	47.778	0	126.80	0	6.3730	0	33.2200	0	26.101	0	125.700	0	-1e10	8	-1e10	8	-1E+10	1	-1E+10	1	-1E+10	1	-1E+10	1	-1E+10	1	-1E+10	1
4902554	96	C	10/05/2023	21:02	-133.619	47.778	0	127.90	0	6.3400	0	33.2530	0	26.131	0	126.790	0	-1e10	8	-1e10	8	-1E+10	1	-1E+10	1	-1E+10	1	-1E+10	1	-1E+10	1	-1E+10	1
4902554	96	C	10/05/2023	21:02	-133.619	47.778	0	128.90	0	6.3110	0	33.2780	0	26.155	0	127.781	0	-1e10	8	-1e10	8	-1E+10	1	-1E+10	1	-1E+10	1	-1E+10	1	-1E+10	1	-1E+10	1
4902554	96	C	10/05/2023	21:02	-133.619	47.778	0	130.00	0	6.2790	0	33.3020	0	26.178	0	128.871	0	-1e10	8	-1e10	8	-1E+10	1	-1E+10	1	-1E+10	1	-1E+10	1	-1E+10	1	-1E+10	1
4902554	96	C	10/05/2023	21:02	-133.619	47.778	0	130.90	0	6.2720	0	33.3060	0	26.182	0	129.763	0	-1e10	8	-1e10	8	-1E+10	1	-1E+10	1	-1E+10	1	-1E+10	1	-1E+10	1	-1E+10	1
4902554	96	C	10/05/2023	21:02	-133.619	47.778	0	132.00	0	6.2090	0	33.3510	0	26.225	0	130.853	0	-1e10	8	-1e10	8	-1E+10	1	-1E+10	1	-1E+10	1	-1E+10	1	-1E+10	1	-1E+10	1
4902554	96	C	10/05/2023	21:02	-133.619	47.778	0	132.70	0	6.1940	0	33.3570	0	26.232	0	131.547	0	-1e10	8	-1e10	8	-1E+10	1	-1E+10	1	-1E+10	1	-1E+10	1	-1E+10	1	-1E+10	1
4902554	96	C	10/05/2023	21:02	-133.619	47.778	0	133.80	0	6.1610	0	33.3690	0	26.245	0	132.637	0	-1e10	8	-1e10	8	-1E+10	1	-1E+10	1	-1E+10	1	-1E+10	1	-1E+10	1	-1E+10	1
4902554	96	C	10/05/2023	21:02	-133.619	47.778	0	135.00	0	6.1160	0	33.3860	0	26.264	0	133.826	0	-1e10	8	-1e10	8	-1E+10	1	-1E+10	1	-1E+10	1	-1E+10	1	-1E+10	1	-1E+10	1
4902554	96	C	10/05/2023	21:02	-133.619	47.778	0	135.70	0	6.0980	0	33.3970	0	26.275	0	134.520	0	-1e10	8	-1e10	8	-1E+10	1	-1E+10	1	-1E+10	1	-1E+10	1	-1E+10	1	-1E+10	1
4902554	96	C	10/05/2023	21:02	-133.619	47.778	0	136.90	0	6.0510	0	33.4120	0	26.293	0	135.709	0	-1e10	8	-1e10	8	-1E+10	1	-1E+10	1	-1E+10	1	-1E+10	1	-1E+10	1	-1E+10	1
4902554	96	C	10/05/2023	21:02	-133.619	47.778	0	138.10	0	6.0360	0	33.4260	0	26.306	0	136.898	0	-1e10	8	-1e10	8	-1E+10	1	-1E+10	1	-1E+10	1	-1E+10	1	-1E+10	1	-1E+10	1
4902554	96	C	10/05/2023	21:02	-133.619	47.778	0	138.80	0	6.0680	0	33.4400	0	26.313	0	137.592	0	-1e10	8	-1e10	8	-1E+10	1	-1E+10	1	-1E+10	1	-1E+10	1	-1E+10	1	-1E+10	1
4902554	96	C	10/05/2023	21:02	-133.619	47.778	0	140.00	0	6.0180	0	33.4570	0	26.333	0	138.781	0	-1e10	8	-1e10	8	-1E+10	1	-1E+10	1	-1E+10	1	-1E+10	1	-1E+10	1	-1E+10	1
4902554	96	C	10/05/2023	21:02	-133.619	47.778	0	141.20	0	5.9840	0	33.4670	0	26.345	0	139.970	0	-1e10	8	-1e10	8	-1E+10	1	-1E+10	1	-1E+10	1	-1E+10	1	-1E+10	1	-1E+10	1
4902554	96	C	10/05/2023	21:02	-133.619	47.778	0	142.00	0	5.9850	0	33.4680	0	26.346	0	140.763	0	-1e10	8	-1e10	8	-1E+10	1	-1E+10	1	-1E+10	1	-1E+10	1	-1E+10	1	-1E+10	1
4902554	96	C	10/05/2023	21:02	-133.619	47.778	0	142.80	0	5.9710	0	33.4770	0	26.354	0	141.556	0	-1e10	8	-1e10	8	-1E+10	1	-1E+10	1	-1E+10	1	-1E+10	1	-1E+10	1	-1E+10	1
4902554	96	C	10/05/2023	21:02	-133.619	47.778	0	143.70	0	5.9610	0	33.4840	0	26.361	0	142.447	0	-1e10	8	-1e10	8	-1E+10	1	-1E+10	1	-1E+10	1	-1E+10	1	-1E+10	1	-1E+10	1
4902554	96	C	10/05/2023	21:02	-133.619	47.778	0	144.90	0	5.9430	0	33.5200	0	26.392	0	143.637	0	-1e10	8	-1e10	8	-1E+10	1	-1E+10	1	-1E+10	1	-1E+10	1	-1E+10	1	-1E+10	1
4902554	96	C	10/05/2023	21:02	-133.619	47.778	0	146.30	0	5.9440	0	33.5240	0	26.395	0	145.024	0	-1e10	8	-1e10	8	-1E+10	1	-1E+10	1	-1E+10	1	-1E+10	1	-1E+10	1	-1E+10	1
4902554	96	C	10/05/2023	21:02	-133.619	47.778	0	147.10	0	5.9430	0	33.5250	0	26.396	0	145.817	0	-1e10	8	-1e10	8	-1E+10	1	-1E+10	1	-1E+10	1	-1E+10	1	-1E+10	1	-1E+10	1
4902554	96	C	10/05/2023	21:02	-133.619	47.778	0	148.00	0	5.9400	0	33.5270	0	26.398	0	146.708	0	-1e10	8	-1e10	8	-1E+10	1	-1E+10	1	-1E+10	1	-1E+10	1	-1E+10	1	-1E+10	1
4902554	96	C	10/05/2023	21:02	-133.619	47.778	0	148.80	0	5.9290	0	33.5360	0	26.406	0	147.501	0	-1e10	8	-1e10	8	-1E+10	1	-1E+10	1	-1E+10	1	-1E+10	1	-1E+10	1	-1E+10	1
4902554	96	C	10/05/2023	21:02	-133.619	47.778	0	149.70	0	5.9240	0	33.5430	0	26.413	0	148.393	0	-1e10	8	-1e10	8	-1E+10	1	-1E+10	1	-1E+10	1	-1E+10	1	-1E+10	1	-1E+10	1
4902554	96	C	10/05/2023	21:02	-133.619	47.778	0	150.60	0	5.9140	0	33.5570	0	26.425	0	149.285	0	-1e10	8	-1e10	8	-1E+10	1	-1E+10	1	-1E+10	1	-1E+10	1	-1E+10	1	-1E+10	1
4902554	96	C	10/05/2023	21:02	-133.619	47.778	0	151.60	0	5.9060	0	33.5620	0	26.430	0	150.276	0	-1e10	8	-1e10	8	-1E+10	1	-1E+10	1	-1E+10	1	-1E+10	1	-1E+10	1	-1E+10	1
4902554	96	C	10/05/2023	21:02	-133.619	47.778	0	152.50	0	5.9010	0	33.5670	0	26.434	0	151.168	0	-1e10	8	-1e10	8	-1E+10	1	-1E+10	1	-1E+10	1	-1E+10	1	-1E+10	1	-1E+10	1
4902554	96	C	10/05/2023	21:02	-133.619	47.778	0	153.50	0	5.8990	0	33.5690	0	26.436	0	152.158	0	-1e10	8	-1e10	8	-1E+10	1	-1E+10	1	-1E+10	1	-1E+10	1	-1E+10	1	-1E+10	1
4902554	96	C	10/05/2023	21:02	-133.619	47.778	0	154.50	0	5.8900	0	33.5820	0	26.448	0	153.149	0	-1e10	8	-1e10	8	-1E+10	1	-1E+10	1	-1E+10	1	-1E+10	1	-1E+10	1	-1E+10	1
4902554	96	C	10/05/2023	21:02	-133.619	47.778	0	155.50	0	5.8860	0	33.5860	0	26.451	0	154.140	0	-1e10	8	-1e10	8	-1E+10	1	-1E+10	1	-1E+10	1	-1E+10	1	-1E+10	1	-1E+10	1
4902554	96	C	10/05/2023	21:02	-133.619	47.778	0	156.50	0	5.8790	0	33.5910	0	26.456	0	155.131	0	-1e10	8	-1e10	8	-1E+10	1	-1E+10	1	-1E+10	1	-1E+10	1	-1E+10	1	-1E+10	1
4902554	96	C	10/05/2023	21:02	-133.619	47.778	0	157.50	0	5.8690	0	33.5960	0	26.461	0	156.122	0	-1e10	8	-1e10	8	-1E+10	1	-1E+10	1	-1E+10	1	-1E+10	1	-1E+10	1	-1E+10	1
4902554	96	C	10/05/2023	21:02	-133.619	47.778	0	158.50	0	5.8670	0	33.6010	0	26.465	0	157.113	0	-1e10	8	-1e10	8	-1E+10	1	-1E+10	1	-1E+10	1	-1E+10	1	-1E+10	1	-1E+10	1
4902554	96	C	10/05/2023	21:02	-133.619	47.778	0	159.60	0	5.8620	0	33.6050	0	26.469	0	158.203	0	-1e10	8	-1e10	8	-1E+10	1	-1E+10	1	-1E+10	1	-1E+10	1	-1E+10	1	-1E+10	1
4902554	96	C	10/05/2023	21:02	-133.619	47.778	0	160.60	0	5.8590	0	33.6070	0	26.471	0	159.194	0	-1e10	8	-1e10	8	-1E+10	1	-1E+10	1	-1E+10	1	-1E+10	1	-1E+10	1	-1E+10	1
4902554	96	C	10/05/2023	21:02	-133.619	47.778	0	161.60	0	5.8540	0	33.6070	0	26.472	0	160.184	0	-1e10	8	-1e10	8	-1E+10	1	-1E+10	1	-1E+10	1	-1E+10	1	-1E+10	1	-1E+10	1
4902554	96	C	10/05/2023	21:02	-133.619	47.778	0	162.60	0	5.8500	0	33.6080	0	26.473	0	161.175	0	-1e10	8	-1e10	8	-1E+10	1	-1E+10	1	-1E+10	1	-1E+10	1	-1E+10	1	-1E+10	1
4902554	96	C	10/05/2023	21:02	-133.619	47.778	0	163.60	0	5.8420	0	33.6090	0	26.475	0	162.166	0	-1e10	8	-1e10	8	-1E+10	1	-1E+10	1	-1E+10	1	-1E+10	1	-1E+10	1	-1E+10	1
4902554	96	C	10/05/2023	21:02	-133.619	47.778	0	164.70	0	5.8330	0	33.6120	0	26.478	0	163.256	0	-1e10	8	-1e10	8	-1E+10	1	-1E+10	1	-1E+10	1	-1E+10	1	-1E+10	1	-1E+10	1
4902554	96	C	10/05/2023	21:02	-133.619	47.778	0	165.70	0	5.8230	0	33.6180	0	26.484	0	164.247	0	-1e10	8	-1e10	8	-1E+10	1	-1E+10	1	-1E+10	1	-1E+10	1	-1E+10	1	-1E+10	1
4902554	96	C	10/05/2023	21:02	-133.619	47.778	0	166.80	0	5.8200	0	33.6220	0	26.488	0	165.337	0	-1e10	8	-1e10	8	-1E+10	1	-1E+10	1	-1E+10	1	-1E+10	1	-1E+10	1	-1E+10	1
4902554	96	C	10/05/2023	21:02	-133.619	47.778	0	167.80	0	5.8140	0	33.6300	0	26.495	0	166.328	0	-1e10	8	-1e10	8	-1E+10	1	-1E+10	1	-1E+10	1	-1E+10	1	-1E+10	1	-1E+10	1
4902554	96	C	10/05/2023	21:02	-133.619	47.778	0	168.90	0	5.8110	0	33.6330	0	26.498	0	167.418	0	-1e10	8	-1e10	8	-1E+10	1	-1E+10	1	-1E+10	1	-1E+10	1	-1E+10	1	-1E+10	1
4902554	96	C	10/05/2023	21:02	-133.619	47.778	0	170.00	0	5.7990	0	33.6430	0	26.507	0	168.507	0	-1e10	8	-1e10	8	-1E+10	1	-1E+10	1	-1E+10	1	-1E+10	1	-1E+10	1	-1E+10	1
4902554	96	C	10/05/2023	21:02	-133.619	47.778	0	171.00	0	5.7950	0	33.6450	0	26.509	0	169.498	0	-1e10	8	-1e10	8	-1E+10	1	-1E+10	1	-1E+10	1	-1E+10	1	-1E+10	1	-1E+10	1
4902554	96	C	10/05/2023	21:02	-133.619	47.778	0	172.10	0	5.7940	0	33.6520	0	26.515	0	170.588	0	-1e10	8	-1e10	8	-1E+10	1	-1E+10	1	-1E+10	1	-1E+10	1	-1E+10	1	-1E+10	1
4902554	96	C	10/05/2023	21:02	-133.619	47.778	0	173.20	0	5.7830	0	33.6570	0	26.520	0	171.678	0	-1e10	8	-1e10	8	-1E+10	1	-1E+10	1	-1E+10	1	-1E+10	1	-1E+10	1	-1E+10	1
4902554	96	C	10/05/2023	21:02	-133.619	47.778	0	174.30	0	5.7780	0	33.6600	0	26.523	0	172.768	0	-1e10	8	-1e10	8	-1E+10	1	-1E+10	1	-1E+10	1	-1E+10	1	-1E+10	1	-1E+10	1
4902554	96	C	10/05/2023	21:02	-133.619	47.778	0	175.40	0	5.7670	0	33.6680	0	26.531	0	173.858	0	-1e10	8	-1e10	8	-1E+10	1	-1E+10	1	-1E+10	1	-1E+10	1	-1E+10	1	-1E+10	1
4902554	96	C	10/05/2023	21:02	-133.619	47.778	0	176.50	0	5.7680	0	33.6690	0	26.532	0	174.948	0	-1e10	8	-1e10	8	-1E+10	1	-1E+10	1	-1E+10	1	-1E+10	1	-1E+10	1	-1E+10	1
4902554	96	C	10/05/2023	21:02	-133.619	47.778	0	177.50	0	5.7670	0	33.6700	0	26.532	0	175.938	0	-1e10	8	-1e10	8	-1E+10	1	-1E+10	1	-1E+10	1	-1E+10	1	-1E+10	1	-1E+10	1
4902554	96	C	10/05/2023	21:02	-133.619	47.778	0	178.60	0	5.7580	0	33.6780	0	26.540	0	177.028	0	-1e10	8	-1e10	8	-1E+10	1	-1E+10	1	-1E+10	1	-1E+10	1	-1E+10	1	-1E+10	1
4902554	96	C	10/05/2023	21:02	-133.619	47.778	0	179.70	0	5.7530	0	33.6800	0	26.542	0	178.118	0	-1e10	8	-1e10	8	-1E+10	1	-1E+10	1	-1E+10	1	-1E+10	1	-1E+10	1	-1E+10	1
4902554	96	C	10/05/2023	21:02	-133.619	47.778	0	180.80	0	5.7460	0	33.6820	0	26.545	0	179.208	0	-1e10	8	-1e10	8	-1E+10	1	-1E+10	1	-1E+10	1	-1E+10	1	-1E+10	1	-1E+10	1
4902554	96	C	10/05/2023	21:02	-133.619	47.778	0	181.90	0	5.7350	0	33.6860	0	26.549	0	180.298	0	-1e10	8	-1e10	8	-1E+10	1	-1E+10	1	-1E+10	1	-1E+10	1	-1E+10	1	-1E+10	1
4902554	96	C	10/05/2023	21:02	-133.619	47.778	0	183.00	0	5.7270	0	33.6880	0	26.552	0	181.388	0	-1e10	8	-1e10	8	-1E+10	1	-1E+10	1	-1E+10	1	-1E+10	1	-1E+10	1	-1E+10	1
4902554	96	C	10/05/2023	21:02	-133.619	47.778	0	184.10	0	5.7160	0	33.6910	0	26.555	0	182.477	0	-1e10	8	-1e10	8	-1E+10	1	-1E+10	1	-1E+10	1	-1E+10	1	-1E+10	1	-1E+10	1
4902554	96	C	10/05/2023	21:02	-133.619	47.778	0	185.20	0	5.7100	0	33.6920	0	26.557	0	183.567	0	-1e10	8	-1e10	8	-1E+10	1	-1E+10	1	-1E+10	1	-1E+10	1	-1E+10	1	-1E+10	1
4902554	96	C	10/05/2023	21:02	-133.619	47.778	0	186.20	0	5.7050	0	33.6910	0	26.557	0	184.558	0	-1e10	8	-1e10	8	-1E+10	1	-1E+10	1	-1E+10	1	-1E+10	1	-1E+10	1	-1E+10	1
4902554	96	C	10/05/2023	21:02	-133.619	47.778	0	187.30	0	5.7010	0	33.6930	0	26.559	0	185.648	0	-1e10	8	-1e10	8	-1E+10	1	-1E+10	1	-1E+10	1	-1E+10	1	-1E+10	1	-1E+10	1
4902554	96	C	10/05/2023	21:02	-133.619	47.778	0	188.40	0	5.6870	0	33.6960	0	26.563	0	186.738	0	-1e10	8	-1e10	8	-1E+10	1	-1E+10	1	-1E+10	1	-1E+10	1	-1E+10	1	-1E+10	1
4902554	96	C	10/05/2023	21:02	-133.619	47.778	0	189.50	0	5.6670	0	33.7020	0	26.570	0	187.827	0	-1e10	8	-1e10	8	-1E+10	1	-1E+10	1	-1E+10	1	-1E+10	1	-1E+10	1	-1E+10	1
4902554	96	C	10/05/2023	21:02	-133.619	47.778	0	190.50	0	5.6480	0	33.7040	0	26.574	0	188.818	0	-1e10	8	-1e10	8	-1E+10	1	-1E+10	1	-1E+10	1	-1E+10	1	-1E+10	1	-1E+10	1
4902554	96	C	10/05/2023	21:02	-133.619	47.778	0	191.60	0	5.6350	0	33.7060	0	26.577	0	189.908	0	-1e10	8	-1e10	8	-1E+10	1	-1E+10	1	-1E+10	1	-1E+10	1	-1E+10	1	-1E+10	1
4902554	96	C	10/05/2023	21:02	-133.619	47.778	0	192.70	0	5.6300	0	33.7060	0	26.578	0	190.998	0	-1e10	8	-1e10	8	-1E+10	1	-1E+10	1	-1E+10	1	-1E+10	1	-1E+10	1	-1E+10	1
4902554	96	C	10/05/2023	21:02	-133.619	47.778	0	193.80	0	5.6270	0	33.7070	0	26.579	0	192.087	0	-1e10	8	-1e10	8	-1E+10	1	-1E+10	1	-1E+10	1	-1E+10	1	-1E+10	1	-1E+10	1
4902554	96	C	10/05/2023	21:02	-133.619	47.778	0	194.90	0	5.6170	0	33.7090	0	26.582	0	193.177	0	-1e10	8	-1e10	8	-1E+10	1	-1E+10	1	-1E+10	1	-1E+10	1	-1E+10	1	-1E+10	1
4902554	96	C	10/05/2023	21:02	-133.619	47.778	0	196.00	0	5.5910	0	33.7120	0	26.587	0	194.267	0	-1e10	8	-1e10	8	-1E+10	1	-1E+10	1	-1E+10	1	-1E+10	1	-1E+10	1	-1E+10	1
4902554	96	C	10/05/2023	21:02	-133.619	47.778	0	197.00	0	5.5800	0	33.7140	0	26.590	0	195.258	0	-1e10	8	-1e10	8	-1E+10	1	-1E+10	1	-1E+10	1	-1E+10	1	-1E+10	1	-1E+10	1
4902554	96	C	10/05/2023	21:02	-133.619	47.778	0	198.10	0	5.5690	0	33.7160	0	26.593	0	196.347	0	-1e10	8	-1e10	8	-1E+10	1	-1E+10	1	-1E+10	1	-1E+10	1	-1E+10	1	-1E+10	1
4902554	96	C	10/05/2023	21:02	-133.619	47.778	0	199.20	0	5.5510	0	33.7170	0	26.596	0	197.437	0	-1e10	8	-1e10	8	-1E+10	1	-1E+10	1	-1E+10	1	-1E+10	1	-1E+10	1	-1E+10	1
4902554	96	C	10/05/2023	21:02	-133.619	47.778	0	200.30	0	5.5510	0	33.7190	0	26.597	0	198.527	0	-1e10	8	-1e10	8	-1E+10	1	-1E+10	1	-1E+10	1	-1E+10	1	-1E+10	1	-1E+10	1
4902554	96	C	10/05/2023	21:02	-133.619	47.778	0	201.30	0	5.5350	0	33.7210	0	26.601	0	199.518	0	-1e10	8	-1e10	8	-1E+10	1	-1E+10	1	-1E+10	1	-1E+10	1	-1E+10	1	-1E+10	1
4902554	96	C	10/05/2023	21:02	-133.619	47.778	0	202.40	0	5.5240	0	33.7250	0	26.605	0	200.607	0	-1e10	8	-1e10	8	-1E+10	1	-1E+10	1	-1E+10	1	-1E+10	1	-1E+10	1	-1E+10	1
4902554	96	C	10/05/2023	21:02	-133.619	47.778	0	203.50	0	5.5130	0	33.7260	0	26.608	0	201.697	0	-1e10	8	-1e10	8	-1E+10	1	-1E+10	1	-1E+10	1	-1E+10	1	-1E+10	1	-1E+10	1
4902554	96	C	10/05/2023	21:02	-133.619	47.778	0	204.50	0	5.4980	0	33.7280	0	26.611	0	202.688	0	-1e10	8	-1e10	8	-1E+10	1	-1E+10	1	-1E+10	1	-1E+10	1	-1E+10	1	-1E+10	1
4902554	96	C	10/05/2023	21:02	-133.619	47.778	0	205.60	0	5.4960	0	33.7280	0	26.611	0	203.777	0	-1e10	8	-1e10	8	-1E+10	1	-1E+10	1	-1E+10	1	-1E+10	1	-1E+10	1	-1E+10	1
4902554	96	C	10/05/2023	21:02	-133.619	47.778	0	206.60	0	5.4930	0	33.7290	0	26.612	0	204.768	0	-1e10	8	-1e10	8	-1E+10	1	-1E+10	1	-1E+10	1	-1E+10	1	-1E+10	1	-1E+10	1
4902554	96	C	10/05/2023	21:02	-133.619	47.778	0	207.70	0	5.4820	0	33.7280	0	26.613	0	205.858	0	-1e10	8	-1e10	8	-1E+10	1	-1E+10	1	-1E+10	1	-1E+10	1	-1E+10	1	-1E+10	1
4902554	96	C	10/05/2023	21:02	-133.619	47.778	0	208.80	0	5.4720	0	33.7290	0	26.615	0	206.947	0	-1e10	8	-1e10	8	-1E+10	1	-1E+10	1	-1E+10	1	-1E+10	1	-1E+10	1	-1E+10	1
4902554	96	C	10/05/2023	21:02	-133.619	47.778	0	209.80	0	5.4650	0	33.7300	0	26.617	0	207.938	0	-1e10	8	-1e10	8	-1E+10	1	-1E+10	1	-1E+10	1	-1E+10	1	-1E+10	1	-1E+10	1
4902554	96	C	10/05/2023	21:02	-133.619	47.778	0	210.90	0	5.4540	0	33.7330	0	26.620	0	209.028	0	-1e10	8	-1e10	8	-1E+10	1	-1E+10	1	-1E+10	1	-1E+10	1	-1E+10	1	-1E+10	1
4902554	96	C	10/05/2023	21:02	-133.619	47.778	0	212.00	0	5.4390	0	33.7340	0	26.623	0	210.117	0	-1e10	8	-1e10	8	-1E+10	1	-1E+10	1	-1E+10	1	-1E+10	1	-1E+10	1	-1E+10	1
4902554	96	C	10/05/2023	21:02	-133.619	47.778	0	213.00	0	5.4300	0	33.7360	0	26.625	0	211.108	0	-1e10	8	-1e10	8	-1E+10	1	-1E+10	1	-1E+10	1	-1E+10	1	-1E+10	1	-1E+10	1
4902554	96	C	10/05/2023	21:02	-133.619	47.778	0	214.10	0	5.4190	0	33.7370	0	26.628	0	212.198	0	-1e10	8	-1e10	8	-1E+10	1	-1E+10	1	-1E+10	1	-1E+10	1	-1E+10	1	-1E+10	1
4902554	96	C	10/05/2023	21:02	-133.619	47.778	0	215.20	0	5.4150	0	33.7380	0	26.629	0	213.287	0	-1e10	8	-1e10	8	-1E+10	1	-1E+10	1	-1E+10	1	-1E+10	1	-1E+10	1	-1E+10	1
4902554	96	C	10/05/2023	21:02	-133.619	47.778	0	216.20	0	5.4140	0	33.7380	0	26.629	0	214.278	0	-1e10	8	-1e10	8	-1E+10	1	-1E+10	1	-1E+10	1	-1E+10	1	-1E+10	1	-1E+10	1
4902554	96	C	10/05/2023	21:02	-133.619	47.778	0	217.20	0	5.4040	0	33.7400	0	26.632	0	215.269	0	-1e10	8	-1e10	8	-1E+10	1	-1E+10	1	-1E+10	1	-1E+10	1	-1E+10	1	-1E+10	1
4902554	96	C	10/05/2023	21:02	-133.619	47.778	0	218.30	0	5.3980	0	33.7400	0	26.632	0	216.358	0	-1e10	8	-1e10	8	-1E+10	1	-1E+10	1	-1E+10	1	-1E+10	1	-1E+10	1	-1E+10	1
4902554	96	C	10/05/2023	21:02	-133.619	47.778	0	219.20	0	5.3900	0	33.7410	0	26.634	0	217.250	0	-1e10	8	-1e10	8	-1E+10	1	-1E+10	1	-1E+10	1	-1E+10	1	-1E+10	1	-1E+10	1
4902554	96	C	10/05/2023	21:02	-133.619	47.778	0	220.20	0	5.3770	0	33.7460	0	26.640	0	218.240	0	-1e10	8	-1e10	8	-1E+10	1	-1E+10	1	-1E+10	1	-1E+10	1	-1E+10	1	-1E+10	1
4902554	96	C	10/05/2023	21:02	-133.619	47.778	0	220.90	0	5.3670	0	33.7440	0	26.639	0	218.934	0	-1e10	8	-1e10	8	-1E+10	1	-1E+10	1	-1E+10	1	-1E+10	1	-1E+10	1	-1E+10	1
4902554	96	C	10/05/2023	21:02	-133.619	47.778	0	221.70	0	5.3520	0	33.7490	0	26.645	0	219.726	0	-1e10	8	-1e10	8	-1E+10	1	-1E+10	1	-1E+10	1	-1E+10	1	-1E+10	1	-1E+10	1
4902554	96	C	10/05/2023	21:02	-133.619	47.778	0	222.80	0	5.3370	0	33.7480	0	26.646	0	220.816	0	-1e10	8	-1e10	8	-1E+10	1	-1E+10	1	-1E+10	1	-1E+10	1	-1E+10	1	-1E+10	1
4902554	96	C	10/05/2023	21:02	-133.619	47.778	0	224.00	0	5.3270	0	33.7490	0	26.648	0	222.004	0	-1e10	8	-1e10	8	-1E+10	1	-1E+10	1	-1E+10	1	-1E+10	1	-1E+10	1	-1E+10	1
4902554	96	C	10/05/2023	21:02	-133.619	47.778	0	224.80	0	5.3190	0	33.7510	0	26.650	0	222.797	0	-1e10	8	-1e10	8	-1E+10	1	-1E+10	1	-1E+10	1	-1E+10	1	-1E+10	1	-1E+10	1
4902554	96	C	10/05/2023	21:02	-133.619	47.778	0	225.90	0	5.3120	0	33.7510	0	26.651	0	223.886	0	-1e10	8	-1e10	8	-1E+10	1	-1E+10	1	-1E+10	1	-1E+10	1	-1E+10	1	-1E+10	1
4902554	96	C	10/05/2023	21:02	-133.619	47.778	0	227.10	0	5.3040	0	33.7510	0	26.652	0	225.075	0	-1e10	8	-1e10	8	-1E+10	1	-1E+10	1	-1E+10	1	-1E+10	1	-1E+10	1	-1E+10	1
4902554	96	C	10/05/2023	21:02	-133.619	47.778	0	227.80	0	5.2960	0	33.7520	0	26.654	0	225.768	0	-1e10	8	-1e10	8	-1E+10	1	-1E+10	1	-1E+10	1	-1E+10	1	-1E+10	1	-1E+10	1
4902554	96	C	10/05/2023	21:02	-133.619	47.778	0	229.00	0	5.2890	0	33.7520	0	26.655	0	226.957	0	-1e10	8	-1e10	8	-1E+10	1	-1E+10	1	-1E+10	1	-1E+10	1	-1E+10	1	-1E+10	1
4902554	96	C	10/05/2023	21:02	-133.619	47.778	0	230.20	0	5.2500	0	33.7570	0	26.663	0	228.146	0	-1e10	8	-1e10	8	-1E+10	1	-1E+10	1	-1E+10	1	-1E+10	1	-1E+10	1	-1E+10	1
4902554	96	C	10/05/2023	21:02	-133.619	47.778	0	230.90	0	5.2430	0	33.7570	0	26.664	0	228.839	0	-1e10	8	-1e10	8	-1E+10	1	-1E+10	1	-1E+10	1	-1E+10	1	-1E+10	1	-1E+10	1
4902554	96	C	10/05/2023	21:02	-133.619	47.778	0	231.70	0	5.2370	0	33.7580	0	26.666	0	229.632	0	-1e10	8	-1e10	8	-1E+10	1	-1E+10	1	-1E+10	1	-1E+10	1	-1E+10	1	-1E+10	1
4902554	96	C	10/05/2023	21:02	-133.619	47.778	0	232.90	0	5.2240	0	33.7590	0	26.668	0	230.820	0	-1e10	8	-1e10	8	-1E+10	1	-1E+10	1	-1E+10	1	-1E+10	1	-1E+10	1	-1E+10	1
4902554	96	C	10/05/2023	21:02	-133.619	47.778	0	234.10	0	5.2150	0	33.7600	0	26.670	0	232.009	0	-1e10	8	-1e10	8	-1E+10	1	-1E+10	1	-1E+10	1	-1E+10	1	-1E+10	1	-1E+10	1
4902554	96	C	10/05/2023	21:02	-133.619	47.778	0	234.90	0	5.2120	0	33.7600	0	26.670	0	232.801	0	-1e10	8	-1e10	8	-1E+10	1	-1E+10	1	-1E+10	1	-1E+10	1	-1E+10	1	-1E+10	1
4902554	96	C	10/05/2023	21:02	-133.619	47.778	0	235.70	0	5.2070	0	33.7600	0	26.671	0	233.594	0	-1e10	8	-1e10	8	-1E+10	1	-1E+10	1	-1E+10	1	-1E+10	1	-1E+10	1	-1E+10	1
4902554	96	C	10/05/2023	21:02	-133.619	47.778	0	236.90	0	5.2010	0	33.7610	0	26.672	0	234.782	0	-1e10	8	-1e10	8	-1E+10	1	-1E+10	1	-1E+10	1	-1E+10	1	-1E+10	1	-1E+10	1
4902554	96	C	10/05/2023	21:02	-133.619	47.778	0	238.10	0	5.1770	0	33.7630	0	26.677	0	235.971	0	-1e10	8	-1e10	8	-1E+10	1	-1E+10	1	-1E+10	1	-1E+10	1	-1E+10	1	-1E+10	1
4902554	96	C	10/05/2023	21:02	-133.619	47.778	0	238.90	0	5.1720	0	33.7640	0	26.678	0	236.763	0	-1e10	8	-1e10	8	-1E+10	1	-1E+10	1	-1E+10	1	-1E+10	1	-1E+10	1	-1E+10	1
4902554	96	C	10/05/2023	21:02	-133.619	47.778	0	239.70	0	5.1710	0	33.7640	0	26.678	0	237.556	0	-1e10	8	-1e10	8	-1E+10	1	-1E+10	1	-1E+10	1	-1E+10	1	-1E+10	1	-1E+10	1
4902554	96	C	10/05/2023	21:02	-133.619	47.778	0	241.00	0	5.1630	0	33.7640	0	26.679	0	238.843	0	-1e10	8	-1e10	8	-1E+10	1	-1E+10	1	-1E+10	1	-1E+10	1	-1E+10	1	-1E+10	1
4902554	96	C	10/05/2023	21:02	-133.619	47.778	0	242.20	0	5.1380	0	33.7660	0	26.683	0	240.032	0	-1e10	8	-1e10	8	-1E+10	1	-1E+10	1	-1E+10	1	-1E+10	1	-1E+10	1	-1E+10	1
4902554	96	C	10/05/2023	21:02	-133.619	47.778	0	243.00	0	5.1280	0	33.7670	0	26.685	0	240.824	0	-1e10	8	-1e10	8	-1E+10	1	-1E+10	1	-1E+10	1	-1E+10	1	-1E+10	1	-1E+10	1
4902554	96	C	10/05/2023	21:02	-133.619	47.778	0	243.80	0	5.1170	0	33.7690	0	26.688	0	241.616	0	-1e10	8	-1e10	8	-1E+10	1	-1E+10	1	-1E+10	1	-1E+10	1	-1E+10	1	-1E+10	1
4902554	96	C	10/05/2023	21:02	-133.619	47.778	0	244.70	0	5.1160	0	33.7690	0	26.688	0	242.508	0	-1e10	8	-1e10	8	-1E+10	1	-1E+10	1	-1E+10	1	-1E+10	1	-1E+10	1	-1E+10	1
4902554	96	C	10/05/2023	21:02	-133.619	47.778	0	246.00	0	5.1050	0	33.7690	0	26.690	0	243.795	0	-1e10	8	-1e10	8	-1E+10	1	-1E+10	1	-1E+10	1	-1E+10	1	-1E+10	1	-1E+10	1
4902554	96	C	10/05/2023	21:02	-133.619	47.778	0	247.30	0	5.0890	0	33.7710	0	26.693	0	245.083	0	-1e10	8	-1e10	8	-1E+10	1	-1E+10	1	-1E+10	1	-1E+10	1	-1E+10	1	-1E+10	1
4902554	96	C	10/05/2023	21:02	-133.619	47.778	0	248.20	0	5.0830	0	33.7720	0	26.695	0	245.974	0	-1e10	8	-1e10	8	-1E+10	1	-1E+10	1	-1E+10	1	-1E+10	1	-1E+10	1	-1E+10	1
4902554	96	C	10/05/2023	21:02	-133.619	47.778	0	249.10	0	5.0620	0	33.7750	0	26.699	0	246.866	0	-1e10	8	-1e10	8	-1E+10	1	-1E+10	1	-1E+10	1	-1E+10	1	-1E+10	1	-1E+10	1
4902554	96	C	10/05/2023	21:02	-133.619	47.778	0	250.00	0	5.0570	0	33.7750	0	26.700	0	247.757	0	-1e10	8	-1e10	8	-1E+10	1	-1E+10	1	-1E+10	1	-1E+10	1	-1E+10	1	-1E+10	1
4902554	96	C	10/05/2023	21:02	-133.619	47.778	0	250.80	0	5.0530	0	33.7750	0	26.700	0	248.550	0	-1e10	8	-1e10	8	-1E+10	1	-1E+10	1	-1E+10	1	-1E+10	1	-1E+10	1	-1E+10	1
4902554	96	C	10/05/2023	21:02	-133.619	47.778	0	251.80	0	5.0520	0	33.7750	0	26.701	0	249.540	0	-1e10	8	-1e10	8	-1E+10	1	-1E+10	1	-1E+10	1	-1E+10	1	-1E+10	1	-1E+10	1
4902554	96	C	10/05/2023	21:02	-133.619	47.778	0	252.70	0	5.0320	0	33.7780	0	26.705	0	250.431	0	-1e10	8	-1e10	8	-1E+10	1	-1E+10	1	-1E+10	1	-1E+10	1	-1E+10	1	-1E+10	1
4902554	96	C	10/05/2023	21:02	-133.619	47.778	0	253.60	0	5.0310	0	33.7780	0	26.705	0	251.323	0	-1e10	8	-1e10	8	-1E+10	1	-1E+10	1	-1E+10	1	-1E+10	1	-1E+10	1	-1E+10	1
4902554	96	C	10/05/2023	21:02	-133.619	47.778	0	254.90	0	5.0240	0	33.7780	0	26.706	0	252.610	0	-1e10	8	-1e10	8	-1E+10	1	-1E+10	1	-1E+10	1	-1E+10	1	-1E+10	1	-1E+10	1
4902554	96	C	10/05/2023	21:02	-133.619	47.778	0	256.30	0	5.0170	0	33.7800	0	26.708	0	253.997	0	-1e10	8	-1e10	8	-1E+10	1	-1E+10	1	-1E+10	1	-1E+10	1	-1E+10	1	-1E+10	1
4902554	96	C	10/05/2023	21:02	-133.619	47.778	0	257.20	0	5.0070	0	33.7820	0	26.711	0	254.888	0	-1e10	8	-1e10	8	-1E+10	1	-1E+10	1	-1E+10	1	-1E+10	1	-1E+10	1	-1E+10	1
4902554	96	C	10/05/2023	21:02	-133.619	47.778	0	258.20	0	4.9960	0	33.7820	0	26.712	0	255.879	0	-1e10	8	-1e10	8	-1E+10	1	-1E+10	1	-1E+10	1	-1E+10	1	-1E+10	1	-1E+10	1
4902554	96	C	10/05/2023	21:02	-133.619	47.778	0	259.10	0	4.9910	0	33.7820	0	26.713	0	256.770	0	-1e10	8	-1e10	8	-1E+10	1	-1E+10	1	-1E+10	1	-1E+10	1	-1E+10	1	-1E+10	1
4902554	96	C	10/05/2023	21:02	-133.619	47.778	0	260.00	0	4.9740	0	33.7820	0	26.715	0	257.661	0	-1e10	8	-1e10	8	-1E+10	1	-1E+10	1	-1E+10	1	-1E+10	1	-1E+10	1	-1E+10	1
4902554	96	C	10/05/2023	21:02	-133.619	47.778	0	261.00	0	4.9720	0	33.7830	0	26.716	0	258.652	0	-1e10	8	-1e10	8	-1E+10	1	-1E+10	1	-1E+10	1	-1E+10	1	-1E+10	1	-1E+10	1
4902554	96	C	10/05/2023	21:02	-133.619	47.778	0	261.90	0	4.9850	0	33.7860	0	26.717	0	259.543	0	-1e10	8	-1e10	8	-1E+10	1	-1E+10	1	-1E+10	1	-1E+10	1	-1E+10	1	-1E+10	1
4902554	96	C	10/05/2023	21:02	-133.619	47.778	0	262.80	0	4.9800	0	33.7870	0	26.718	0	260.434	0	-1e10	8	-1e10	8	-1E+10	1	-1E+10	1	-1E+10	1	-1E+10	1	-1E+10	1	-1E+10	1
4902554	96	C	10/05/2023	21:02	-133.619	47.778	0	263.80	0	4.9510	0	33.7900	0	26.724	0	261.425	0	-1e10	8	-1e10	8	-1E+10	1	-1E+10	1	-1E+10	1	-1E+10	1	-1E+10	1	-1E+10	1
4902554	96	C	10/05/2023	21:02	-133.619	47.778	0	264.70	0	4.9630	0	33.7910	0	26.723	0	262.316	0	-1e10	8	-1e10	8	-1E+10	1	-1E+10	1	-1E+10	1	-1E+10	1	-1E+10	1	-1E+10	1
4902554	96	C	10/05/2023	21:02	-133.619	47.778	0	265.60	0	4.9630	0	33.7910	0	26.723	0	263.207	0	-1e10	8	-1e10	8	-1E+10	1	-1E+10	1	-1E+10	1	-1E+10	1	-1E+10	1	-1E+10	1
4902554	96	C	10/05/2023	21:02	-133.619	47.778	0	266.60	0	4.9450	0	33.7930	0	26.727	0	264.198	0	-1e10	8	-1e10	8	-1E+10	1	-1E+10	1	-1E+10	1	-1E+10	1	-1E+10	1	-1E+10	1
4902554	96	C	10/05/2023	21:02	-133.619	47.778	0	267.50	0	4.9270	0	33.7920	0	26.728	0	265.089	0	-1e10	8	-1e10	8	-1E+10	1	-1E+10	1	-1E+10	1	-1E+10	1	-1E+10	1	-1E+10	1
4902554	96	C	10/05/2023	21:02	-133.619	47.778	0	268.90	0	4.9270	0	33.7930	0	26.729	0	266.475	0	-1e10	8	-1e10	8	-1E+10	1	-1E+10	1	-1E+10	1	-1E+10	1	-1E+10	1	-1E+10	1
4902554	96	C	10/05/2023	21:02	-133.619	47.778	0	270.30	0	4.9240	0	33.7950	0	26.731	0	267.862	0	-1e10	8	-1e10	8	-1E+10	1	-1E+10	1	-1E+10	1	-1E+10	1	-1E+10	1	-1E+10	1
4902554	96	C	10/05/2023	21:02	-133.619	47.778	0	271.30	0	4.9230	0	33.7960	0	26.732	0	268.852	0	-1e10	8	-1e10	8	-1E+10	1	-1E+10	1	-1E+10	1	-1E+10	1	-1E+10	1	-1E+10	1
4902554	96	C	10/05/2023	21:02	-133.619	47.778	0	272.20	0	4.9200	0	33.7970	0	26.733	0	269.744	0	-1e10	8	-1e10	8	-1E+10	1	-1E+10	1	-1E+10	1	-1E+10	1	-1E+10	1	-1E+10	1
4902554	96	C	10/05/2023	21:02	-133.619	47.778	0	273.10	0	4.9190	0	33.7980	0	26.734	0	270.635	0	-1e10	8	-1e10	8	-1E+10	1	-1E+10	1	-1E+10	1	-1E+10	1	-1E+10	1	-1E+10	1
4902554	96	C	10/05/2023	21:02	-133.619	47.778	0	274.00	0	4.9150	0	33.7980	0	26.734	0	271.526	0	-1e10	8	-1e10	8	-1E+10	1	-1E+10	1	-1E+10	1	-1E+10	1	-1E+10	1	-1E+10	1
4902554	96	C	10/05/2023	21:02	-133.619	47.778	0	275.00	0	4.9130	0	33.7980	0	26.735	0	272.516	0	-1e10	8	-1e10	8	-1E+10	1	-1E+10	1	-1E+10	1	-1E+10	1	-1E+10	1	-1E+10	1
4902554	96	C	10/05/2023	21:02	-133.619	47.778	0	275.90	0	4.9110	0	33.7980	0	26.735	0	273.408	0	-1e10	8	-1e10	8	-1E+10	1	-1E+10	1	-1E+10	1	-1E+10	1	-1E+10	1	-1E+10	1
4902554	96	C	10/05/2023	21:02	-133.619	47.778	0	276.80	0	4.9110	0	33.7990	0	26.736	0	274.299	0	-1e10	8	-1e10	8	-1E+10	1	-1E+10	1	-1E+10	1	-1E+10	1	-1E+10	1	-1E+10	1
4902554	96	C	10/05/2023	21:02	-133.619	47.778	0	277.70	0	4.9090	0	33.8000	0	26.737	0	275.190	0	-1e10	8	-1e10	8	-1E+10	1	-1E+10	1	-1E+10	1	-1E+10	1	-1E+10	1	-1E+10	1
4902554	96	C	10/05/2023	21:02	-133.619	47.778	0	278.60	0	4.9070	0	33.7990	0	26.736	0	276.082	0	-1e10	8	-1e10	8	-1E+10	1	-1E+10	1	-1E+10	1	-1E+10	1	-1E+10	1	-1E+10	1
4902554	96	C	10/05/2023	21:02	-133.619	47.778	0	279.90	0	4.8990	0	33.8000	0	26.738	0	277.369	0	-1e10	8	-1e10	8	-1E+10	1	-1E+10	1	-1E+10	1	-1E+10	1	-1E+10	1	-1E+10	1
4902554	96	C	10/05/2023	21:02	-133.619	47.778	0	281.30	0	4.9060	0	33.8040	0	26.740	0	278.755	0	-1e10	8	-1e10	8	-1E+10	1	-1E+10	1	-1E+10	1	-1E+10	1	-1E+10	1	-1E+10	1
4902554	96	C	10/05/2023	21:02	-133.619	47.778	0	282.30	0	4.9030	0	33.8060	0	26.742	0	279.746	0	-1e10	8	-1e10	8	-1E+10	1	-1E+10	1	-1E+10	1	-1E+10	1	-1E+10	1	-1E+10	1
4902554	96	C	10/05/2023	21:02	-133.619	47.778	0	283.20	0	4.9010	0	33.8060	0	26.742	0	280.637	0	-1e10	8	-1e10	8	-1E+10	1	-1E+10	1	-1E+10	1	-1E+10	1	-1E+10	1	-1E+10	1
4902554	96	C	10/05/2023	21:02	-133.619	47.778	0	284.10	0	4.9000	0	33.8060	0	26.743	0	281.528	0	-1e10	8	-1e10	8	-1E+10	1	-1E+10	1	-1E+10	1	-1E+10	1	-1E+10	1	-1E+10	1
4902554	96	C	10/05/2023	21:02	-133.619	47.778	0	285.00	0	4.8960	0	33.8070	0	26.744	0	282.419	0	-1e10	8	-1e10	8	-1E+10	1	-1E+10	1	-1E+10	1	-1E+10	1	-1E+10	1	-1E+10	1
4902554	96	C	10/05/2023	21:02	-133.619	47.778	0	285.90	0	4.8640	0	33.8130	0	26.752	0	283.311	0	-1e10	8	-1e10	8	-1E+10	1	-1E+10	1	-1E+10	1	-1E+10	1	-1E+10	1	-1E+10	1
4902554	96	C	10/05/2023	21:02	-133.619	47.778	0	286.80	0	4.8490	0	33.8110	0	26.752	0	284.202	0	-1e10	8	-1e10	8	-1E+10	1	-1E+10	1	-1E+10	1	-1E+10	1	-1E+10	1	-1E+10	1
4902554	96	C	10/05/2023	21:02	-133.619	47.778	0	287.70	0	4.8440	0	33.8100	0	26.752	0	285.093	0	-1e10	8	-1e10	8	-1E+10	1	-1E+10	1	-1E+10	1	-1E+10	1	-1E+10	1	-1E+10	1
4902554	96	C	10/05/2023	21:02	-133.619	47.778	0	288.60	0	4.8310	0	33.8100	0	26.753	0	285.984	0	-1e10	8	-1e10	8	-1E+10	1	-1E+10	1	-1E+10	1	-1E+10	1	-1E+10	1	-1E+10	1
4902554	96	C	10/05/2023	21:02	-133.619	47.778	0	289.90	0	4.8100	0	33.8080	0	26.754	0	287.272	0	-1e10	8	-1e10	8	-1E+10	1	-1E+10	1	-1E+10	1	-1E+10	1	-1E+10	1	-1E+10	1
4902554	96	C	10/05/2023	21:02	-133.619	47.778	0	291.30	0	4.7920	0	33.8090	0	26.757	0	288.658	0	-1e10	8	-1e10	8	-1E+10	1	-1E+10	1	-1E+10	1	-1E+10	1	-1E+10	1	-1E+10	1
4902554	96	C	10/05/2023	21:02	-133.619	47.778	0	292.20	0	4.7860	0	33.8100	0	26.758	0	289.549	0	-1e10	8	-1e10	8	-1E+10	1	-1E+10	1	-1E+10	1	-1E+10	1	-1E+10	1	-1E+10	1
4902554	96	C	10/05/2023	21:02	-133.619	47.778	0	293.10	0	4.7780	0	33.8100	0	26.759	0	290.440	0	-1e10	8	-1e10	8	-1E+10	1	-1E+10	1	-1E+10	1	-1E+10	1	-1E+10	1	-1E+10	1
4902554	96	C	10/05/2023	21:02	-133.619	47.778	0	294.00	0	4.7720	0	33.8090	0	26.759	0	291.332	0	-1e10	8	-1e10	8	-1E+10	1	-1E+10	1	-1E+10	1	-1E+10	1	-1E+10	1	-1E+10	1
4902554	96	C	10/05/2023	21:02	-133.619	47.778	0	294.90	0	4.7610	0	33.8140	0	26.764	0	292.223	0	-1e10	8	-1e10	8	-1E+10	1	-1E+10	1	-1E+10	1	-1E+10	1	-1E+10	1	-1E+10	1
4902554	96	C	10/05/2023	21:02	-133.619	47.778	0	295.80	0	4.7460	0	33.8110	0	26.764	0	293.114	0	-1e10	8	-1e10	8	-1E+10	1	-1E+10	1	-1E+10	1	-1E+10	1	-1E+10	1	-1E+10	1
4902554	96	C	10/05/2023	21:02	-133.619	47.778	0	296.70	0	4.7390	0	33.8120	0	26.765	0	294.005	0	-1e10	8	-1e10	8	-1E+10	1	-1E+10	1	-1E+10	1	-1E+10	1	-1E+10	1	-1E+10	1
4902554	96	C	10/05/2023	21:02	-133.619	47.778	0	297.60	0	4.7310	0	33.8130	0	26.767	0	294.896	0	-1e10	8	-1e10	8	-1E+10	1	-1E+10	1	-1E+10	1	-1E+10	1	-1E+10	1	-1E+10	1
4902554	96	C	10/05/2023	21:02	-133.619	47.778	0	298.90	0	4.7230	0	33.8130	0	26.768	0	296.184	0	-1e10	8	-1e10	8	-1E+10	1	-1E+10	1	-1E+10	1	-1E+10	1	-1E+10	1	-1E+10	1
4902554	96	C	10/05/2023	21:02	-133.619	47.778	0	300.30	0	4.7190	0	33.8140	0	26.769	0	297.570	0	-1e10	8	-1e10	8	-1E+10	1	-1E+10	1	-1E+10	1	-1E+10	1	-1E+10	1	-1E+10	1
4902554	96	C	10/05/2023	21:02	-133.619	47.778	0	301.20	0	4.7170	0	33.8160	0	26.771	0	298.461	0	-1e10	8	-1e10	8	-1E+10	1	-1E+10	1	-1E+10	1	-1E+10	1	-1E+10	1	-1E+10	1
4902554	96	C	10/05/2023	21:02	-133.619	47.778	0	302.10	0	4.7230	0	33.8190	0	26.773	0	299.352	0	-1e10	8	-1e10	8	-1E+10	1	-1E+10	1	-1E+10	1	-1E+10	1	-1E+10	1	-1E+10	1
4902554	96	C	10/05/2023	21:02	-133.619	47.778	0	303.00	0	4.7520	0	33.8220	0	26.772	0	300.243	0	-1e10	8	-1e10	8	-1E+10	1	-1E+10	1	-1E+10	1	-1E+10	1	-1E+10	1	-1E+10	1
4902554	96	C	10/05/2023	21:02	-133.619	47.778	0	303.90	0	4.7520	0	33.8290	0	26.777	0	301.134	0	-1e10	8	-1e10	8	-1E+10	1	-1E+10	1	-1E+10	1	-1E+10	1	-1E+10	1	-1E+10	1
4902554	96	C	10/05/2023	21:02	-133.619	47.778	0	304.80	0	4.7440	0	33.8300	0	26.779	0	302.026	0	-1e10	8	-1e10	8	-1E+10	1	-1E+10	1	-1E+10	1	-1E+10	1	-1E+10	1	-1E+10	1
4902554	96	C	10/05/2023	21:02	-133.619	47.778	0	305.60	0	4.7360	0	33.8260	0	26.777	0	302.818	0	-1e10	8	-1e10	8	-1E+10	1	-1E+10	1	-1E+10	1	-1E+10	1	-1E+10	1	-1E+10	1
4902554	96	C	10/05/2023	21:02	-133.619	47.778	0	306.90	0	4.7170	0	33.8260	0	26.779	0	304.105	0	-1e10	8	-1e10	8	-1E+10	1	-1E+10	1	-1E+10	1	-1E+10	1	-1E+10	1	-1E+10	1
4902554	96	C	10/05/2023	21:02	-133.619	47.778	0	308.30	0	4.7170	0	33.8350	0	26.786	0	305.491	0	-1e10	8	-1e10	8	-1E+10	1	-1E+10	1	-1E+10	1	-1E+10	1	-1E+10	1	-1E+10	1
4902554	96	C	10/05/2023	21:02	-133.619	47.778	0	309.20	0	4.7090	0	33.8320	0	26.785	0	306.382	0	-1e10	8	-1e10	8	-1E+10	1	-1E+10	1	-1E+10	1	-1E+10	1	-1E+10	1	-1E+10	1
4902554	96	C	10/05/2023	21:02	-133.619	47.778	0	310.10	0	4.6930	0	33.8300	0	26.785	0	307.273	0	-1e10	8	-1e10	8	-1E+10	1	-1E+10	1	-1E+10	1	-1E+10	1	-1E+10	1	-1E+10	1
4902554	96	C	10/05/2023	21:02	-133.619	47.778	0	311.00	0	4.6460	0	33.8300	0	26.790	0	308.165	0	-1e10	8	-1e10	8	-1E+10	1	-1E+10	1	-1E+10	1	-1E+10	1	-1E+10	1	-1E+10	1
4902554	96	C	10/05/2023	21:02	-133.619	47.778	0	311.90	0	4.6340	0	33.8290	0	26.790	0	309.056	0	-1e10	8	-1e10	8	-1E+10	1	-1E+10	1	-1E+10	1	-1E+10	1	-1E+10	1	-1E+10	1
4902554	96	C	10/05/2023	21:02	-133.619	47.778	0	312.80	0	4.6150	0	33.8290	0	26.792	0	309.947	0	-1e10	8	-1e10	8	-1E+10	1	-1E+10	1	-1E+10	1	-1E+10	1	-1E+10	1	-1E+10	1
4902554	96	C	10/05/2023	21:02	-133.619	47.778	0	313.70	0	4.6210	0	33.8280	0	26.791	0	310.838	0	-1e10	8	-1e10	8	-1E+10	1	-1E+10	1	-1E+10	1	-1E+10	1	-1E+10	1	-1E+10	1
4902554	96	C	10/05/2023	21:02	-133.619	47.778	0	314.60	0	4.6310	0	33.8310	0	26.792	0	311.729	0	-1e10	8	-1e10	8	-1E+10	1	-1E+10	1	-1E+10	1	-1E+10	1	-1E+10	1	-1E+10	1
4902554	96	C	10/05/2023	21:02	-133.619	47.778	0	315.90	0	4.6330	0	33.8350	0	26.795	0	313.016	0	-1e10	8	-1e10	8	-1E+10	1	-1E+10	1	-1E+10	1	-1E+10	1	-1E+10	1	-1E+10	1
4902554	96	C	10/05/2023	21:02	-133.619	47.778	0	317.30	0	4.6190	0	33.8350	0	26.797	0	314.402	0	-1e10	8	-1e10	8	-1E+10	1	-1E+10	1	-1E+10	1	-1E+10	1	-1E+10	1	-1E+10	1
4902554	96	C	10/05/2023	21:02	-133.619	47.778	0	318.20	0	4.5980	0	33.8370	0	26.801	0	315.293	0	-1e10	8	-1e10	8	-1E+10	1	-1E+10	1	-1E+10	1	-1E+10	1	-1E+10	1	-1E+10	1
4902554	96	C	10/05/2023	21:02	-133.619	47.778	0	319.10	0	4.6020	0	33.8350	0	26.799	0	316.185	0	-1e10	8	-1e10	8	-1E+10	1	-1E+10	1	-1E+10	1	-1E+10	1	-1E+10	1	-1E+10	1
4902554	96	C	10/05/2023	21:02	-133.619	47.778	0	320.00	0	4.5950	0	33.8360	0	26.800	0	317.076	0	-1e10	8	-1e10	8	-1E+10	1	-1E+10	1	-1E+10	1	-1E+10	1	-1E+10	1	-1E+10	1
4902554	96	C	10/05/2023	21:02	-133.619	47.778	0	320.90	0	4.5830	0	33.8370	0	26.802	0	317.967	0	-1e10	8	-1e10	8	-1E+10	1	-1E+10	1	-1E+10	1	-1E+10	1	-1E+10	1	-1E+10	1
4902554	96	C	10/05/2023	21:02	-133.619	47.778	0	321.80	0	4.5660	0	33.8390	0	26.806	0	318.858	0	-1e10	8	-1e10	8	-1E+10	1	-1E+10	1	-1E+10	1	-1E+10	1	-1E+10	1	-1E+10	1
4902554	96	C	10/05/2023	21:02	-133.619	47.778	0	322.70	0	4.5600	0	33.8390	0	26.806	0	319.749	0	-1e10	8	-1e10	8	-1E+10	1	-1E+10	1	-1E+10	1	-1E+10	1	-1E+10	1	-1E+10	1
4902554	96	C	10/05/2023	21:02	-133.619	47.778	0	323.60	0	4.5260	0	33.8420	0	26.812	0	320.640	0	-1e10	8	-1e10	8	-1E+10	1	-1E+10	1	-1E+10	1	-1E+10	1	-1E+10	1	-1E+10	1
4902554	96	C	10/05/2023	21:02	-133.619	47.778	0	324.90	0	4.5170	0	33.8410	0	26.813	0	321.927	0	-1e10	8	-1e10	8	-1E+10	1	-1E+10	1	-1E+10	1	-1E+10	1	-1E+10	1	-1E+10	1
4902554	96	C	10/05/2023	21:02	-133.619	47.778	0	326.30	0	4.5090	0	33.8430	0	26.815	0	323.313	0	-1e10	8	-1e10	8	-1E+10	1	-1E+10	1	-1E+10	1	-1E+10	1	-1E+10	1	-1E+10	1
4902554	96	C	10/05/2023	21:02	-133.619	47.778	0	327.30	0	4.5030	0	33.8430	0	26.816	0	324.303	0	-1e10	8	-1e10	8	-1E+10	1	-1E+10	1	-1E+10	1	-1E+10	1	-1E+10	1	-1E+10	1
4902554	96	C	10/05/2023	21:02	-133.619	47.778	0	328.20	0	4.4960	0	33.8450	0	26.818	0	325.194	0	-1e10	8	-1e10	8	-1E+10	1	-1E+10	1	-1E+10	1	-1E+10	1	-1E+10	1	-1E+10	1
4902554	96	C	10/05/2023	21:02	-133.619	47.778	0	329.10	0	4.4930	0	33.8470	0	26.820	0	326.085	0	-1e10	8	-1e10	8	-1E+10	1	-1E+10	1	-1E+10	1	-1E+10	1	-1E+10	1	-1E+10	1
4902554	96	C	10/05/2023	21:02	-133.619	47.778	0	330.00	0	4.5040	0	33.8460	0	26.818	0	326.976	0	-1e10	8	-1e10	8	-1E+10	1	-1E+10	1	-1E+10	1	-1E+10	1	-1E+10	1	-1E+10	1
4902554	96	C	10/05/2023	21:02	-133.619	47.778	0	330.90	0	4.4970	0	33.8530	0	26.824	0	327.867	0	-1e10	8	-1e10	8	-1E+10	1	-1E+10	1	-1E+10	1	-1E+10	1	-1E+10	1	-1E+10	1
4902554	96	C	10/05/2023	21:02	-133.619	47.778	0	331.80	0	4.4860	0	33.8580	0	26.830	0	328.758	0	-1e10	8	-1e10	8	-1E+10	1	-1E+10	1	-1E+10	1	-1E+10	1	-1E+10	1	-1E+10	1
4902554	96	C	10/05/2023	21:02	-133.619	47.778	0	332.70	0	4.4810	0	33.8550	0	26.828	0	329.650	0	-1e10	8	-1e10	8	-1E+10	1	-1E+10	1	-1E+10	1	-1E+10	1	-1E+10	1	-1E+10	1
4902554	96	C	10/05/2023	21:02	-133.619	47.778	0	333.60	0	4.4750	0	33.8570	0	26.830	0	330.541	0	-1e10	8	-1e10	8	-1E+10	1	-1E+10	1	-1E+10	1	-1E+10	1	-1E+10	1	-1E+10	1
4902554	96	C	10/05/2023	21:02	-133.619	47.778	0	334.60	0	4.4610	0	33.8580	0	26.832	0	331.531	0	-1e10	8	-1e10	8	-1E+10	1	-1E+10	1	-1E+10	1	-1E+10	1	-1E+10	1	-1E+10	1
4902554	96	C	10/05/2023	21:02	-133.619	47.778	0	335.90	0	4.4300	0	33.8610	0	26.838	0	332.818	0	-1e10	8	-1e10	8	-1E+10	1	-1E+10	1	-1E+10	1	-1E+10	1	-1E+10	1	-1E+10	1
4902554	96	C	10/05/2023	21:02	-133.619	47.778	0	337.30	0	4.4250	0	33.8610	0	26.838	0	334.204	0	-1e10	8	-1e10	8	-1E+10	1	-1E+10	1	-1E+10	1	-1E+10	1	-1E+10	1	-1E+10	1
4902554	96	C	10/05/2023	21:02	-133.619	47.778	0	338.30	0	4.4210	0	33.8620	0	26.840	0	335.194	0	-1e10	8	-1e10	8	-1E+10	1	-1E+10	1	-1E+10	1	-1E+10	1	-1E+10	1	-1E+10	1
4902554	96	C	10/05/2023	21:02	-133.619	47.778	0	339.20	0	4.4180	0	33.8620	0	26.840	0	336.085	0	-1e10	8	-1e10	8	-1E+10	1	-1E+10	1	-1E+10	1	-1E+10	1	-1E+10	1	-1E+10	1
4902554	96	C	10/05/2023	21:02	-133.619	47.778	0	340.10	0	4.4170	0	33.8630	0	26.841	0	336.976	0	-1e10	8	-1e10	8	-1E+10	1	-1E+10	1	-1E+10	1	-1E+10	1	-1E+10	1	-1E+10	1
4902554	96	C	10/05/2023	21:02	-133.619	47.778	0	341.10	0	4.4110	0	33.8650	0	26.843	0	337.966	0	-1e10	8	-1e10	8	-1E+10	1	-1E+10	1	-1E+10	1	-1E+10	1	-1E+10	1	-1E+10	1
4902554	96	C	10/05/2023	21:02	-133.619	47.778	0	342.00	0	4.4070	0	33.8660	0	26.844	0	338.857	0	-1e10	8	-1e10	8	-1E+10	1	-1E+10	1	-1E+10	1	-1E+10	1	-1E+10	1	-1E+10	1
4902554	96	C	10/05/2023	21:02	-133.619	47.778	0	343.00	0	4.4030	0	33.8680	0	26.846	0	339.847	0	-1e10	8	-1e10	8	-1E+10	1	-1E+10	1	-1E+10	1	-1E+10	1	-1E+10	1	-1E+10	1
4902554	96	C	10/05/2023	21:02	-133.619	47.778	0	343.90	0	4.4010	0	33.8690	0	26.847	0	340.738	0	-1e10	8	-1e10	8	-1E+10	1	-1E+10	1	-1E+10	1	-1E+10	1	-1E+10	1	-1E+10	1
4902554	96	C	10/05/2023	21:02	-133.619	47.778	0	344.90	0	4.4000	0	33.8690	0	26.848	0	341.728	0	-1e10	8	-1e10	8	-1E+10	1	-1E+10	1	-1E+10	1	-1E+10	1	-1E+10	1	-1E+10	1
4902554	96	C	10/05/2023	21:02	-133.619	47.778	0	345.90	0	4.3980	0	33.8700	0	26.849	0	342.718	0	-1e10	8	-1e10	8	-1E+10	1	-1E+10	1	-1E+10	1	-1E+10	1	-1E+10	1	-1E+10	1
4902554	96	C	10/05/2023	21:02	-133.619	47.778	0	346.80	0	4.3930	0	33.8720	0	26.851	0	343.609	0	-1e10	8	-1e10	8	-1E+10	1	-1E+10	1	-1E+10	1	-1E+10	1	-1E+10	1	-1E+10	1
4902554	96	C	10/05/2023	21:02	-133.619	47.778	0	347.80	0	4.3910	0	33.8730	0	26.852	0	344.598	0	-1e10	8	-1e10	8	-1E+10	1	-1E+10	1	-1E+10	1	-1E+10	1	-1E+10	1	-1E+10	1
4902554	96	C	10/05/2023	21:02	-133.619	47.778	0	348.80	0	4.3880	0	33.8750	0	26.854	0	345.588	0	-1e10	8	-1e10	8	-1E+10	1	-1E+10	1	-1E+10	1	-1E+10	1	-1E+10	1	-1E+10	1
4902554	96	C	10/05/2023	21:02	-133.619	47.778	0	349.80	0	4.3860	0	33.8760	0	26.855	0	346.578	0	-1e10	8	-1e10	8	-1E+10	1	-1E+10	1	-1E+10	1	-1E+10	1	-1E+10	1	-1E+10	1
4902554	96	C	10/05/2023	21:02	-133.619	47.778	0	352.70	0	4.3750	0	33.8800	0	26.859	0	349.449	0	-1e10	8	-1e10	8	-1E+10	1	-1E+10	1	-1E+10	1	-1E+10	1	-1E+10	1	-1E+10	1
4902554	96	C	10/05/2023	21:02	-133.619	47.778	0	357.70	0	4.3590	0	33.8870	0	26.866	0	354.399	0	-1e10	8	-1e10	8	-1E+10	1	-1E+10	1	-1E+10	1	-1E+10	1	-1E+10	1	-1E+10	1
4902554	96	C	10/05/2023	21:02	-133.619	47.778	0	362.70	0	4.3490	0	33.8930	0	26.872	0	359.348	0	-1e10	8	-1e10	8	-1E+10	1	-1E+10	1	-1E+10	1	-1E+10	1	-1E+10	1	-1E+10	1
4902554	96	C	10/05/2023	21:02	-133.619	47.778	0	367.80	0	4.3340	0	33.9000	0	26.879	0	364.397	0	-1e10	8	-1e10	8	-1E+10	1	-1E+10	1	-1E+10	1	-1E+10	1	-1E+10	1	-1E+10	1
4902554	96	C	10/05/2023	21:02	-133.619	47.778	0	372.90	0	4.3250	0	33.9040	0	26.883	0	369.445	0	-1e10	8	-1e10	8	-1E+10	1	-1E+10	1	-1E+10	1	-1E+10	1	-1E+10	1	-1E+10	1
4902554	96	C	10/05/2023	21:02	-133.619	47.778	0	378.00	0	4.3140	0	33.9080	0	26.888	0	374.493	0	-1e10	8	-1e10	8	-1E+10	1	-1E+10	1	-1E+10	1	-1E+10	1	-1E+10	1	-1E+10	1
4902554	96	C	10/05/2023	21:02	-133.619	47.778	0	382.90	0	4.3060	0	33.9160	0	26.895	0	379.343	0	-1e10	8	-1e10	8	-1E+10	1	-1E+10	1	-1E+10	1	-1E+10	1	-1E+10	1	-1E+10	1
4902554	96	C	10/05/2023	21:02	-133.619	47.778	0	387.80	0	4.2980	0	33.9230	0	26.902	0	384.193	0	-1e10	8	-1e10	8	-1E+10	1	-1E+10	1	-1E+10	1	-1E+10	1	-1E+10	1	-1E+10	1
4902554	96	C	10/05/2023	21:02	-133.619	47.778	0	392.90	0	4.2960	0	33.9270	0	26.905	0	389.241	0	-1e10	8	-1e10	8	-1E+10	1	-1E+10	1	-1E+10	1	-1E+10	1	-1E+10	1	-1E+10	1
4902554	96	C	10/05/2023	21:02	-133.619	47.778	0	398.00	0	4.2830	0	33.9310	0	26.910	0	394.289	0	-1e10	8	-1e10	8	-1E+10	1	-1E+10	1	-1E+10	1	-1E+10	1	-1E+10	1	-1E+10	1
4902554	96	C	10/05/2023	21:02	-133.619	47.778	0	403.20	0	4.2680	0	33.9400	0	26.918	0	399.435	0	-1e10	8	-1e10	8	-1E+10	1	-1E+10	1	-1E+10	1	-1E+10	1	-1E+10	1	-1E+10	1
4902554	96	C	10/05/2023	21:02	-133.619	47.778	0	408.10	0	4.2610	0	33.9450	0	26.923	0	404.285	0	-1e10	8	-1e10	8	-1E+10	1	-1E+10	1	-1E+10	1	-1E+10	1	-1E+10	1	-1E+10	1
4902554	96	C	10/05/2023	21:02	-133.619	47.778	0	413.10	0	4.2470	0	33.9530	0	26.931	0	409.233	0	-1e10	8	-1e10	8	-1E+10	1	-1E+10	1	-1E+10	1	-1E+10	1	-1E+10	1	-1E+10	1
4902554	96	C	10/05/2023	21:02	-133.619	47.778	0	418.10	0	4.2420	0	33.9560	0	26.934	0	414.181	0	-1e10	8	-1e10	8	-1E+10	1	-1E+10	1	-1E+10	1	-1E+10	1	-1E+10	1	-1E+10	1
4902554	96	C	10/05/2023	21:02	-133.619	47.778	0	423.10	0	4.2370	0	33.9610	0	26.938	0	419.129	0	-1e10	8	-1e10	8	-1E+10	1	-1E+10	1	-1E+10	1	-1E+10	1	-1E+10	1	-1E+10	1
4902554	96	C	10/05/2023	21:02	-133.619	47.778	0	428.20	0	4.2340	0	33.9630	0	26.940	0	424.176	0	-1e10	8	-1e10	8	-1E+10	1	-1E+10	1	-1E+10	1	-1E+10	1	-1E+10	1	-1E+10	1
4902554	96	C	10/05/2023	21:02	-133.619	47.778	0	433.00	0	4.2270	0	33.9690	0	26.946	0	428.926	0	-1e10	8	-1e10	8	-1E+10	1	-1E+10	1	-1E+10	1	-1E+10	1	-1E+10	1	-1E+10	1
4902554	96	C	10/05/2023	21:02	-133.619	47.778	0	437.80	0	4.2160	0	33.9750	0	26.952	0	433.676	0	-1e10	8	-1e10	8	-1E+10	1	-1E+10	1	-1E+10	1	-1E+10	1	-1E+10	1	-1E+10	1
4902554	96	C	10/05/2023	21:02	-133.619	47.778	0	442.80	0	4.2080	0	33.9810	0	26.957	0	438.624	0	-1e10	8	-1e10	8	-1E+10	1	-1E+10	1	-1E+10	1	-1E+10	1	-1E+10	1	-1E+10	1
4902554	96	C	10/05/2023	21:02	-133.619	47.778	0	447.70	0	4.1980	0	33.9890	0	26.965	0	443.472	0	-1e10	8	-1e10	8	-1E+10	1	-1E+10	1	-1E+10	1	-1E+10	1	-1E+10	1	-1E+10	1
4902554	96	C	10/05/2023	21:02	-133.619	47.778	0	452.70	0	4.1890	0	33.9950	0	26.971	0	448.420	0	-1e10	8	-1e10	8	-1E+10	1	-1E+10	1	-1E+10	1	-1E+10	1	-1E+10	1	-1E+10	1
4902554	96	C	10/05/2023	21:02	-133.619	47.778	0	457.80	0	4.1830	0	34.0000	0	26.975	0	453.466	0	-1e10	8	-1e10	8	-1E+10	1	-1E+10	1	-1E+10	1	-1E+10	1	-1E+10	1	-1E+10	1
4902554	96	C	10/05/2023	21:02	-133.619	47.778	0	463.00	0	4.1790	0	34.0070	0	26.981	0	458.611	0	-1e10	8	-1e10	8	-1E+10	1	-1E+10	1	-1E+10	1	-1E+10	1	-1E+10	1	-1E+10	1
4902554	96	C	10/05/2023	21:02	-133.619	47.778	0	467.70	0	4.1800	0	34.0120	0	26.985	0	463.261	0	-1e10	8	-1e10	8	-1E+10	1	-1E+10	1	-1E+10	1	-1E+10	1	-1E+10	1	-1E+10	1
4902554	96	C	10/05/2023	21:02	-133.619	47.778	0	472.80	0	4.1780	0	34.0170	0	26.989	0	468.307	0	-1e10	8	-1e10	8	-1E+10	1	-1E+10	1	-1E+10	1	-1E+10	1	-1E+10	1	-1E+10	1
4902554	96	C	10/05/2023	21:02	-133.619	47.778	0	478.00	0	4.1710	0	34.0240	0	26.996	0	473.451	0	-1e10	8	-1e10	8	-1E+10	1	-1E+10	1	-1E+10	1	-1E+10	1	-1E+10	1	-1E+10	1
4902554	96	C	10/05/2023	21:02	-133.619	47.778	0	482.70	0	4.1600	0	34.0280	0	27.000	0	478.101	0	-1e10	8	-1e10	8	-1E+10	1	-1E+10	1	-1E+10	1	-1E+10	1	-1E+10	1	-1E+10	1
4902554	96	C	10/05/2023	21:02	-133.619	47.778	0	488.00	0	4.1540	0	34.0350	0	27.006	0	483.345	0	-1e10	8	-1e10	8	-1E+10	1	-1E+10	1	-1E+10	1	-1E+10	1	-1E+10	1	-1E+10	1
4902554	96	C	10/05/2023	21:02	-133.619	47.778	0	493.30	0	4.1510	0	34.0390	0	27.010	0	488.588	0	-1e10	8	-1e10	8	-1E+10	1	-1E+10	1	-1E+10	1	-1E+10	1	-1E+10	1	-1E+10	1
4902554	96	C	10/05/2023	21:02	-133.619	47.778	0	498.10	0	4.1450	0	34.0420	0	27.013	0	493.336	0	-1e10	8	-1e10	8	-1E+10	1	-1E+10	1	-1E+10	1	-1E+10	1	-1E+10	1	-1E+10	1
4902554	96	C	10/05/2023	21:02	-133.619	47.778	0	502.90	0	4.1380	0	34.0470	0	27.018	0	498.085	0	-1e10	8	-1e10	8	-1E+10	1	-1E+10	1	-1E+10	1	-1E+10	1	-1E+10	1	-1E+10	1
4902554	96	C	10/05/2023	21:02	-133.619	47.778	0	507.80	0	4.1220	0	34.0570	0	27.027	0	502.932	0	-1e10	8	-1e10	8	-1E+10	1	-1E+10	1	-1E+10	1	-1E+10	1	-1E+10	1	-1E+10	1
4902554	96	C	10/05/2023	21:02	-133.619	47.778	0	512.70	0	4.1100	0	34.0630	0	27.033	0	507.779	0	-1e10	8	-1e10	8	-1E+10	1	-1E+10	1	-1E+10	1	-1E+10	1	-1E+10	1	-1E+10	1
4902554	96	C	10/05/2023	21:02	-133.619	47.778	0	517.70	0	4.0930	0	34.0710	0	27.042	0	512.725	0	-1e10	8	-1e10	8	-1E+10	1	-1E+10	1	-1E+10	1	-1E+10	1	-1E+10	1	-1E+10	1
4902554	96	C	10/05/2023	21:02	-133.619	47.778	0	523.00	0	4.0860	0	34.0750	0	27.045	0	517.967	0	-1e10	8	-1e10	8	-1E+10	1	-1E+10	1	-1E+10	1	-1E+10	1	-1E+10	1	-1E+10	1
4902554	96	C	10/05/2023	21:02	-133.619	47.778	0	527.70	0	4.0820	0	34.0790	0	27.049	0	522.616	0	-1e10	8	-1e10	8	-1E+10	1	-1E+10	1	-1E+10	1	-1E+10	1	-1E+10	1	-1E+10	1
4902554	96	C	10/05/2023	21:02	-133.619	47.778	0	532.90	0	4.0750	0	34.0850	0	27.055	0	527.759	0	-1e10	8	-1e10	8	-1E+10	1	-1E+10	1	-1E+10	1	-1E+10	1	-1E+10	1	-1E+10	1
4902554	96	C	10/05/2023	21:02	-133.619	47.778	0	538.20	0	4.0670	0	34.0900	0	27.059	0	533.001	0	-1e10	8	-1e10	8	-1E+10	1	-1E+10	1	-1E+10	1	-1E+10	1	-1E+10	1	-1E+10	1
4902554	96	C	10/05/2023	21:02	-133.619	47.778	0	543.20	0	4.0510	0	34.0960	0	27.066	0	537.947	0	-1e10	8	-1e10	8	-1E+10	1	-1E+10	1	-1E+10	1	-1E+10	1	-1E+10	1	-1E+10	1
4902554	96	C	10/05/2023	21:02	-133.619	47.778	0	547.90	0	4.0480	0	34.0980	0	27.068	0	542.595	0	-1e10	8	-1e10	8	-1E+10	1	-1E+10	1	-1E+10	1	-1E+10	1	-1E+10	1	-1E+10	1
4902554	96	C	10/05/2023	21:02	-133.619	47.778	0	552.80	0	4.0330	0	34.1050	0	27.075	0	547.441	0	-1e10	8	-1e10	8	-1E+10	1	-1E+10	1	-1E+10	1	-1E+10	1	-1E+10	1	-1E+10	1
4902554	96	C	10/05/2023	21:02	-133.619	47.778	0	557.70	0	4.0260	0	34.1080	0	27.078	0	552.287	0	-1e10	8	-1e10	8	-1E+10	1	-1E+10	1	-1E+10	1	-1E+10	1	-1E+10	1	-1E+10	1
4902554	96	C	10/05/2023	21:02	-133.619	47.778	0	562.70	0	4.0200	0	34.1100	0	27.080	0	557.232	0	-1e10	8	-1e10	8	-1E+10	1	-1E+10	1	-1E+10	1	-1E+10	1	-1E+10	1	-1E+10	1
4902554	96	C	10/05/2023	21:02	-133.619	47.778	0	567.70	0	4.0120	0	34.1130	0	27.084	0	562.177	0	-1e10	8	-1e10	8	-1E+10	1	-1E+10	1	-1E+10	1	-1E+10	1	-1E+10	1	-1E+10	1
4902554	96	C	10/05/2023	21:02	-133.619	47.778	0	572.90	0	3.9970	0	34.1200	0	27.091	0	567.319	0	-1e10	8	-1e10	8	-1E+10	1	-1E+10	1	-1E+10	1	-1E+10	1	-1E+10	1	-1E+10	1
4902554	96	C	10/05/2023	21:02	-133.619	47.778	0	578.10	0	3.9870	0	34.1250	0	27.096	0	572.461	0	-1e10	8	-1e10	8	-1E+10	1	-1E+10	1	-1E+10	1	-1E+10	1	-1E+10	1	-1E+10	1
4902554	96	C	10/05/2023	21:02	-133.619	47.778	0	582.80	0	3.9860	0	34.1280	0	27.098	0	577.109	0	-1e10	8	-1e10	8	-1E+10	1	-1E+10	1	-1E+10	1	-1E+10	1	-1E+10	1	-1E+10	1
4902554	96	C	10/05/2023	21:02	-133.619	47.778	0	588.00	0	3.9740	0	34.1310	0	27.102	0	582.251	0	-1e10	8	-1e10	8	-1E+10	1	-1E+10	1	-1E+10	1	-1E+10	1	-1E+10	1	-1E+10	1
4902554	96	C	10/05/2023	21:02	-133.619	47.778	0	593.20	0	3.9610	0	34.1340	0	27.106	0	587.393	0	-1e10	8	-1e10	8	-1E+10	1	-1E+10	1	-1E+10	1	-1E+10	1	-1E+10	1	-1E+10	1
4902554	96	C	10/05/2023	21:02	-133.619	47.778	0	598.00	0	3.9410	0	34.1390	0	27.112	0	592.139	0	-1e10	8	-1e10	8	-1E+10	1	-1E+10	1	-1E+10	1	-1E+10	1	-1E+10	1	-1E+10	1
4902554	96	C	10/05/2023	21:02	-133.619	47.778	0	602.80	0	3.9350	0	34.1410	0	27.114	0	596.885	0	-1e10	8	-1e10	8	-1E+10	1	-1E+10	1	-1E+10	1	-1E+10	1	-1E+10	1	-1E+10	1
4902554	96	C	10/05/2023	21:02	-133.619	47.778	0	607.60	0	3.9310	0	34.1420	0	27.115	0	601.631	0	-1e10	8	-1e10	8	-1E+10	1	-1E+10	1	-1E+10	1	-1E+10	1	-1E+10	1	-1E+10	1
4902554	96	C	10/05/2023	21:02	-133.619	47.778	0	612.90	0	3.9240	0	34.1450	0	27.118	0	606.871	0	-1e10	8	-1e10	8	-1E+10	1	-1E+10	1	-1E+10	1	-1E+10	1	-1E+10	1	-1E+10	1
4902554	96	C	10/05/2023	21:02	-133.619	47.778	0	618.00	0	3.9160	0	34.1480	0	27.122	0	611.913	0	-1e10	8	-1e10	8	-1E+10	1	-1E+10	1	-1E+10	1	-1E+10	1	-1E+10	1	-1E+10	1
4902554	96	C	10/05/2023	21:02	-133.619	47.778	0	622.80	0	3.9060	0	34.1510	0	27.125	0	616.659	0	-1e10	8	-1e10	8	-1E+10	1	-1E+10	1	-1E+10	1	-1E+10	1	-1E+10	1	-1E+10	1
4902554	96	C	10/05/2023	21:02	-133.619	47.778	0	628.00	0	3.8930	0	34.1540	0	27.129	0	621.800	0	-1e10	8	-1e10	8	-1E+10	1	-1E+10	1	-1E+10	1	-1E+10	1	-1E+10	1	-1E+10	1
4902554	96	C	10/05/2023	21:02	-133.619	47.778	0	633.20	0	3.8830	0	34.1580	0	27.133	0	626.941	0	-1e10	8	-1e10	8	-1E+10	1	-1E+10	1	-1E+10	1	-1E+10	1	-1E+10	1	-1E+10	1
4902554	96	C	10/05/2023	21:02	-133.619	47.778	0	637.90	0	3.8740	0	34.1600	0	27.135	0	631.587	0	-1e10	8	-1e10	8	-1E+10	1	-1E+10	1	-1E+10	1	-1E+10	1	-1E+10	1	-1E+10	1
4902554	96	C	10/05/2023	21:02	-133.619	47.778	0	642.90	0	3.8620	0	34.1650	0	27.141	0	636.530	0	-1e10	8	-1e10	8	-1E+10	1	-1E+10	1	-1E+10	1	-1E+10	1	-1E+10	1	-1E+10	1
4902554	96	C	10/05/2023	21:02	-133.619	47.778	0	648.00	0	3.8480	0	34.1690	0	27.145	0	641.572	0	-1e10	8	-1e10	8	-1E+10	1	-1E+10	1	-1E+10	1	-1E+10	1	-1E+10	1	-1E+10	1
4902554	96	C	10/05/2023	21:02	-133.619	47.778	0	652.80	0	3.8360	0	34.1730	0	27.150	0	646.317	0	-1e10	8	-1e10	8	-1E+10	1	-1E+10	1	-1E+10	1	-1E+10	1	-1E+10	1	-1E+10	1
4902554	96	C	10/05/2023	21:02	-133.619	47.778	0	658.00	0	3.8270	0	34.1750	0	27.152	0	651.457	0	-1e10	8	-1e10	8	-1E+10	1	-1E+10	1	-1E+10	1	-1E+10	1	-1E+10	1	-1E+10	1
4902554	96	C	10/05/2023	21:02	-133.619	47.778	0	662.80	0	3.8120	0	34.1790	0	27.157	0	656.202	0	-1e10	8	-1e10	8	-1E+10	1	-1E+10	1	-1E+10	1	-1E+10	1	-1E+10	1	-1E+10	1
4902554	96	C	10/05/2023	21:02	-133.619	47.778	0	667.60	0	3.7990	0	34.1830	0	27.161	0	660.946	0	-1e10	8	-1e10	8	-1E+10	1	-1E+10	1	-1E+10	1	-1E+10	1	-1E+10	1	-1E+10	1
4902554	96	C	10/05/2023	21:02	-133.619	47.778	0	672.90	0	3.7890	0	34.1860	0	27.165	0	666.185	0	-1e10	8	-1e10	8	-1E+10	1	-1E+10	1	-1E+10	1	-1E+10	1	-1E+10	1	-1E+10	1
4902554	96	C	10/05/2023	21:02	-133.619	47.778	0	678.10	0	3.7790	0	34.1890	0	27.168	0	671.325	0	-1e10	8	-1e10	8	-1E+10	1	-1E+10	1	-1E+10	1	-1E+10	1	-1E+10	1	-1E+10	1
4902554	96	C	10/05/2023	21:02	-133.619	47.778	0	682.90	0	3.7600	0	34.1950	0	27.175	0	676.069	0	-1e10	8	-1e10	8	-1E+10	1	-1E+10	1	-1E+10	1	-1E+10	1	-1E+10	1	-1E+10	1
4902554	96	C	10/05/2023	21:02	-133.619	47.778	0	687.60	0	3.7470	0	34.1980	0	27.179	0	680.714	0	-1e10	8	-1e10	8	-1E+10	1	-1E+10	1	-1E+10	1	-1E+10	1	-1E+10	1	-1E+10	1
4902554	96	C	10/05/2023	21:02	-133.619	47.778	0	692.70	0	3.7310	0	34.2020	0	27.184	0	685.755	0	-1e10	8	-1e10	8	-1E+10	1	-1E+10	1	-1E+10	1	-1E+10	1	-1E+10	1	-1E+10	1
4902554	96	C	10/05/2023	21:02	-133.619	47.778	0	697.90	0	3.7180	0	34.2060	0	27.188	0	690.894	0	-1e10	8	-1e10	8	-1E+10	1	-1E+10	1	-1E+10	1	-1E+10	1	-1E+10	1	-1E+10	1
4902554	96	C	10/05/2023	21:02	-133.619	47.778	0	703.10	0	3.7060	0	34.2090	0	27.192	0	696.033	0	-1e10	8	-1e10	8	-1E+10	1	-1E+10	1	-1E+10	1	-1E+10	1	-1E+10	1	-1E+10	1
4902554	96	C	10/05/2023	21:02	-133.619	47.778	0	708.00	0	3.6910	0	34.2130	0	27.196	0	700.876	0	-1e10	8	-1e10	8	-1E+10	1	-1E+10	1	-1E+10	1	-1E+10	1	-1E+10	1	-1E+10	1
4902554	96	C	10/05/2023	21:02	-133.619	47.778	0	712.90	0	3.6730	0	34.2180	0	27.202	0	705.718	0	-1e10	8	-1e10	8	-1E+10	1	-1E+10	1	-1E+10	1	-1E+10	1	-1E+10	1	-1E+10	1
4902554	96	C	10/05/2023	21:02	-133.619	47.778	0	718.00	0	3.6570	0	34.2220	0	27.207	0	710.758	0	-1e10	8	-1e10	8	-1E+10	1	-1E+10	1	-1E+10	1	-1E+10	1	-1E+10	1	-1E+10	1
4902554	96	C	10/05/2023	21:02	-133.619	47.778	0	723.00	0	3.6370	0	34.2280	0	27.214	0	715.699	0	-1e10	8	-1e10	8	-1E+10	1	-1E+10	1	-1E+10	1	-1E+10	1	-1E+10	1	-1E+10	1
4902554	96	C	10/05/2023	21:02	-133.619	47.778	0	728.20	0	3.6230	0	34.2340	0	27.220	0	720.838	0	-1e10	8	-1e10	8	-1E+10	1	-1E+10	1	-1E+10	1	-1E+10	1	-1E+10	1	-1E+10	1
4902554	96	C	10/05/2023	21:02	-133.619	47.778	0	733.00	0	3.6120	0	34.2380	0	27.224	0	725.581	0	-1e10	8	-1e10	8	-1E+10	1	-1E+10	1	-1E+10	1	-1E+10	1	-1E+10	1	-1E+10	1
4902554	96	C	10/05/2023	21:02	-133.619	47.778	0	737.80	0	3.5980	0	34.2430	0	27.229	0	730.324	0	-1e10	8	-1e10	8	-1E+10	1	-1E+10	1	-1E+10	1	-1E+10	1	-1E+10	1	-1E+10	1
4902554	96	C	10/05/2023	21:02	-133.619	47.778	0	742.70	0	3.5860	0	34.2450	0	27.232	0	735.165	0	-1e10	8	-1e10	8	-1E+10	1	-1E+10	1	-1E+10	1	-1E+10	1	-1E+10	1	-1E+10	1
4902554	96	C	10/05/2023	21:02	-133.619	47.778	0	747.80	0	3.5740	0	34.2480	0	27.236	0	740.205	0	-1e10	8	-1e10	8	-1E+10	1	-1E+10	1	-1E+10	1	-1E+10	1	-1E+10	1	-1E+10	1
4902554	96	C	10/05/2023	21:02	-133.619	47.778	0	753.00	0	3.5660	0	34.2490	0	27.237	0	745.342	0	-1e10	8	-1e10	8	-1E+10	1	-1E+10	1	-1E+10	1	-1E+10	1	-1E+10	1	-1E+10	1
4902554	96	C	10/05/2023	21:02	-133.619	47.778	0	758.30	0	3.5550	0	34.2520	0	27.241	0	750.579	0	-1e10	8	-1e10	8	-1E+10	1	-1E+10	1	-1E+10	1	-1E+10	1	-1E+10	1	-1E+10	1
4902554	96	C	10/05/2023	21:02	-133.619	47.778	0	763.00	0	3.5390	0	34.2550	0	27.245	0	755.223	0	-1e10	8	-1e10	8	-1E+10	1	-1E+10	1	-1E+10	1	-1E+10	1	-1E+10	1	-1E+10	1
4902554	96	C	10/05/2023	21:02	-133.619	47.778	0	767.80	0	3.5280	0	34.2590	0	27.249	0	759.965	0	-1e10	8	-1e10	8	-1E+10	1	-1E+10	1	-1E+10	1	-1E+10	1	-1E+10	1	-1E+10	1
4902554	96	C	10/05/2023	21:02	-133.619	47.778	0	772.90	0	3.5110	0	34.2630	0	27.254	0	765.004	0	-1e10	8	-1e10	8	-1E+10	1	-1E+10	1	-1E+10	1	-1E+10	1	-1E+10	1	-1E+10	1
4902554	96	C	10/05/2023	21:02	-133.619	47.778	0	777.90	0	3.4960	0	34.2660	0	27.258	0	769.943	0	-1e10	8	-1e10	8	-1E+10	1	-1E+10	1	-1E+10	1	-1E+10	1	-1E+10	1	-1E+10	1
4902554	96	C	10/05/2023	21:02	-133.619	47.778	0	783.00	0	3.4890	0	34.2670	0	27.259	0	774.982	0	-1e10	8	-1e10	8	-1E+10	1	-1E+10	1	-1E+10	1	-1E+10	1	-1E+10	1	-1E+10	1
4902554	96	C	10/05/2023	21:02	-133.619	47.778	0	787.80	0	3.4830	0	34.2690	0	27.262	0	779.724	0	-1e10	8	-1e10	8	-1E+10	1	-1E+10	1	-1E+10	1	-1E+10	1	-1E+10	1	-1E+10	1
4902554	96	C	10/05/2023	21:02	-133.619	47.778	0	792.60	0	3.4770	0	34.2720	0	27.265	0	784.465	0	-1e10	8	-1e10	8	-1E+10	1	-1E+10	1	-1E+10	1	-1E+10	1	-1E+10	1	-1E+10	1
4902554	96	C	10/05/2023	21:02	-133.619	47.778	0	797.50	0	3.4700	0	34.2740	0	27.267	0	789.306	0	-1e10	8	-1e10	8	-1E+10	1	-1E+10	1	-1E+10	1	-1E+10	1	-1E+10	1	-1E+10	1
4902554	96	C	10/05/2023	21:02	-133.619	47.778	0	802.90	0	3.4570	0	34.2770	0	27.271	0	794.640	0	-1e10	8	-1e10	8	-1E+10	1	-1E+10	1	-1E+10	1	-1E+10	1	-1E+10	1	-1E+10	1
4902554	96	C	10/05/2023	21:02	-133.619	47.778	0	808.20	0	3.4420	0	34.2800	0	27.274	0	799.875	0	-1e10	8	-1e10	8	-1E+10	1	-1E+10	1	-1E+10	1	-1E+10	1	-1E+10	1	-1E+10	1
4902554	96	C	10/05/2023	21:02	-133.619	47.778	0	813.10	0	3.4260	0	34.2850	0	27.280	0	804.716	0	-1e10	8	-1e10	8	-1E+10	1	-1E+10	1	-1E+10	1	-1E+10	1	-1E+10	1	-1E+10	1
4902554	96	C	10/05/2023	21:02	-133.619	47.778	0	818.10	0	3.4080	0	34.2880	0	27.284	0	809.654	0	-1e10	8	-1e10	8	-1E+10	1	-1E+10	1	-1E+10	1	-1E+10	1	-1E+10	1	-1E+10	1
4902554	96	C	10/05/2023	21:02	-133.619	47.778	0	823.00	0	3.3960	0	34.2900	0	27.287	0	814.494	0	-1e10	8	-1e10	8	-1E+10	1	-1E+10	1	-1E+10	1	-1E+10	1	-1E+10	1	-1E+10	1
4902554	96	C	10/05/2023	21:02	-133.619	47.778	0	828.00	0	3.3860	0	34.2930	0	27.290	0	819.433	0	-1e10	8	-1e10	8	-1E+10	1	-1E+10	1	-1E+10	1	-1E+10	1	-1E+10	1	-1E+10	1
4902554	96	C	10/05/2023	21:02	-133.619	47.778	0	833.00	0	3.3740	0	34.2960	0	27.294	0	824.371	0	-1e10	8	-1e10	8	-1E+10	1	-1E+10	1	-1E+10	1	-1E+10	1	-1E+10	1	-1E+10	1
4902554	96	C	10/05/2023	21:02	-133.619	47.778	0	838.00	0	3.3670	0	34.2970	0	27.295	0	829.309	0	-1e10	8	-1e10	8	-1E+10	1	-1E+10	1	-1E+10	1	-1E+10	1	-1E+10	1	-1E+10	1
4902554	96	C	10/05/2023	21:02	-133.619	47.778	0	843.00	0	3.3560	0	34.3000	0	27.299	0	834.248	0	-1e10	8	-1e10	8	-1E+10	1	-1E+10	1	-1E+10	1	-1E+10	1	-1E+10	1	-1E+10	1
4902554	96	C	10/05/2023	21:02	-133.619	47.778	0	848.00	0	3.3540	0	34.3010	0	27.300	0	839.186	0	-1e10	8	-1e10	8	-1E+10	1	-1E+10	1	-1E+10	1	-1E+10	1	-1E+10	1	-1E+10	1
4902554	96	C	10/05/2023	21:02	-133.619	47.778	0	853.20	0	3.3510	0	34.3050	0	27.303	0	844.321	0	-1e10	8	-1e10	8	-1E+10	1	-1E+10	1	-1E+10	1	-1E+10	1	-1E+10	1	-1E+10	1
4902554	96	C	10/05/2023	21:02	-133.619	47.778	0	858.30	0	3.3440	0	34.3060	0	27.305	0	849.358	0	-1e10	8	-1e10	8	-1E+10	1	-1E+10	1	-1E+10	1	-1E+10	1	-1E+10	1	-1E+10	1
4902554	96	C	10/05/2023	21:02	-133.619	47.778	0	862.90	0	3.3360	0	34.3080	0	27.307	0	853.900	0	-1e10	8	-1e10	8	-1E+10	1	-1E+10	1	-1E+10	1	-1E+10	1	-1E+10	1	-1E+10	1
4902554	96	C	10/05/2023	21:02	-133.619	47.778	0	867.60	0	3.3270	0	34.3100	0	27.310	0	858.542	0	-1e10	8	-1e10	8	-1E+10	1	-1E+10	1	-1E+10	1	-1E+10	1	-1E+10	1	-1E+10	1
4902554	96	C	10/05/2023	21:02	-133.619	47.778	0	872.90	0	3.3220	0	34.3110	0	27.311	0	863.775	0	-1e10	8	-1e10	8	-1E+10	1	-1E+10	1	-1E+10	1	-1E+10	1	-1E+10	1	-1E+10	1
4902554	96	C	10/05/2023	21:02	-133.619	47.778	0	878.10	0	3.3150	0	34.3120	0	27.312	0	868.910	0	-1e10	8	-1e10	8	-1E+10	1	-1E+10	1	-1E+10	1	-1E+10	1	-1E+10	1	-1E+10	1
4902554	96	C	10/05/2023	21:02	-133.619	47.778	0	882.90	0	3.3080	0	34.3130	0	27.314	0	873.650	0	-1e10	8	-1e10	8	-1E+10	1	-1E+10	1	-1E+10	1	-1E+10	1	-1E+10	1	-1E+10	1
4902554	96	C	10/05/2023	21:02	-133.619	47.778	0	887.50	0	3.3030	0	34.3140	0	27.315	0	878.192	0	-1e10	8	-1e10	8	-1E+10	1	-1E+10	1	-1E+10	1	-1E+10	1	-1E+10	1	-1E+10	1
4902554	96	C	10/05/2023	21:02	-133.619	47.778	0	892.70	0	3.2960	0	34.3160	0	27.317	0	883.327	0	-1e10	8	-1e10	8	-1E+10	1	-1E+10	1	-1E+10	1	-1E+10	1	-1E+10	1	-1E+10	1
4902554	96	C	10/05/2023	21:02	-133.619	47.778	0	897.80	0	3.2890	0	34.3190	0	27.321	0	888.362	0	-1e10	8	-1e10	8	-1E+10	1	-1E+10	1	-1E+10	1	-1E+10	1	-1E+10	1	-1E+10	1
4902554	96	C	10/05/2023	21:02	-133.619	47.778	0	903.00	0	3.2850	0	34.3200	0	27.322	0	893.496	0	-1e10	8	-1e10	8	-1E+10	1	-1E+10	1	-1E+10	1	-1E+10	1	-1E+10	1	-1E+10	1
4902554	96	C	10/05/2023	21:02	-133.619	47.778	0	908.10	0	3.2680	0	34.3220	0	27.325	0	898.532	0	-1e10	8	-1e10	8	-1E+10	1	-1E+10	1	-1E+10	1	-1E+10	1	-1E+10	1	-1E+10	1
4902554	96	C	10/05/2023	21:02	-133.619	47.778	0	913.30	0	3.2580	0	34.3240	0	27.328	0	903.666	0	-1e10	8	-1e10	8	-1E+10	1	-1E+10	1	-1E+10	1	-1E+10	1	-1E+10	1	-1E+10	1
4902554	96	C	10/05/2023	21:02	-133.619	47.778	0	917.90	0	3.2460	0	34.3260	0	27.330	0	908.207	0	-1e10	8	-1e10	8	-1E+10	1	-1E+10	1	-1E+10	1	-1E+10	1	-1E+10	1	-1E+10	1
4902554	96	C	10/05/2023	21:02	-133.619	47.778	0	922.60	0	3.2360	0	34.3290	0	27.334	0	912.847	0	-1e10	8	-1e10	8	-1E+10	1	-1E+10	1	-1E+10	1	-1E+10	1	-1E+10	1	-1E+10	1
4902554	96	C	10/05/2023	21:02	-133.619	47.778	0	927.70	0	3.2260	0	34.3310	0	27.336	0	917.882	0	-1e10	8	-1e10	8	-1E+10	1	-1E+10	1	-1E+10	1	-1E+10	1	-1E+10	1	-1E+10	1
4902554	96	C	10/05/2023	21:02	-133.619	47.778	0	933.00	0	3.2150	0	34.3330	0	27.339	0	923.115	0	-1e10	8	-1e10	8	-1E+10	1	-1E+10	1	-1E+10	1	-1E+10	1	-1E+10	1	-1E+10	1
4902554	96	C	10/05/2023	21:02	-133.619	47.778	0	938.20	0	3.2010	0	34.3360	0	27.343	0	928.248	0	-1e10	8	-1e10	8	-1E+10	1	-1E+10	1	-1E+10	1	-1E+10	1	-1E+10	1	-1E+10	1
4902554	96	C	10/05/2023	21:02	-133.619	47.778	0	942.90	0	3.1940	0	34.3370	0	27.344	0	932.888	0	-1e10	8	-1e10	8	-1E+10	1	-1E+10	1	-1E+10	1	-1E+10	1	-1E+10	1	-1E+10	1
4902554	96	C	10/05/2023	21:02	-133.619	47.778	0	947.60	0	3.1840	0	34.3400	0	27.347	0	937.527	0	-1e10	8	-1e10	8	-1E+10	1	-1E+10	1	-1E+10	1	-1E+10	1	-1E+10	1	-1E+10	1
4902554	96	C	10/05/2023	21:02	-133.619	47.778	0	952.80	0	3.1750	0	34.3410	0	27.349	0	942.660	0	-1e10	8	-1e10	8	-1E+10	1	-1E+10	1	-1E+10	1	-1E+10	1	-1E+10	1	-1E+10	1
4902554	96	C	10/05/2023	21:02	-133.619	47.778	0	958.00	0	3.1690	0	34.3430	0	27.351	0	947.793	0	-1e10	8	-1e10	8	-1E+10	1	-1E+10	1	-1E+10	1	-1E+10	1	-1E+10	1	-1E+10	1
4902554	96	C	10/05/2023	21:02	-133.619	47.778	0	963.20	0	3.1630	0	34.3450	0	27.353	0	952.926	0	-1e10	8	-1e10	8	-1E+10	1	-1E+10	1	-1E+10	1	-1E+10	1	-1E+10	1	-1E+10	1
4902554	96	C	10/05/2023	21:02	-133.619	47.778	0	967.80	0	3.1570	0	34.3470	0	27.356	0	957.466	0	-1e10	8	-1e10	8	-1E+10	1	-1E+10	1	-1E+10	1	-1E+10	1	-1E+10	1	-1E+10	1
4902554	96	C	10/05/2023	21:02	-133.619	47.778	0	972.50	0	3.1500	0	34.3490	0	27.358	0	962.105	0	-1e10	8	-1e10	8	-1E+10	1	-1E+10	1	-1E+10	1	-1E+10	1	-1E+10	1	-1E+10	1
4902554	96	C	10/05/2023	21:02	-133.619	47.778	0	977.70	0	3.1450	0	34.3520	0	27.361	0	967.238	0	-1e10	8	-1e10	8	-1E+10	1	-1E+10	1	-1E+10	1	-1E+10	1	-1E+10	1	-1E+10	1
4902554	96	C	10/05/2023	21:02	-133.619	47.778	0	983.00	0	3.1330	0	34.3540	0	27.363	0	972.469	0	-1e10	8	-1e10	8	-1E+10	1	-1E+10	1	-1E+10	1	-1E+10	1	-1E+10	1	-1E+10	1
4902554	96	C	10/05/2023	21:02	-133.619	47.778	0	988.20	0	3.1220	0	34.3550	0	27.365	0	977.601	0	-1e10	8	-1e10	8	-1E+10	1	-1E+10	1	-1E+10	1	-1E+10	1	-1E+10	1	-1E+10	1
4902554	96	C	10/05/2023	21:02	-133.619	47.778	0	992.90	0	3.1160	0	34.3570	0	27.367	0	982.240	0	-1e10	8	-1e10	8	-1E+10	1	-1E+10	1	-1E+10	1	-1E+10	1	-1E+10	1	-1E+10	1
4902554	96	C	10/05/2023	21:02	-133.619	47.778	0	997.50	0	3.1050	0	34.3600	0	27.371	0	986.779	0	-1e10	8	-1e10	8	-1E+10	1	-1E+10	1	-1E+10	1	-1E+10	1	-1E+10	1	-1E+10	1
4902554	96	C	10/05/2023	21:02	-133.619	47.778	0	1005.10	0	3.0950	0	34.3630	0	27.374	0	994.280	0	-1e10	8	-1e10	8	-1E+10	1	-1E+10	1	-1E+10	1	-1E+10	1	-1E+10	1	-1E+10	1
4902554	96	C	10/05/2023	21:02	-133.619	47.778	0	1015.60	0	3.0650	0	34.3710	0	27.383	0	1004.641	0	-1e10	8	-1e10	8	-1E+10	1	-1E+10	1	-1E+10	1	-1E+10	1	-1E+10	1	-1E+10	1
4902554	96	C	10/05/2023	21:02	-133.619	47.778	0	1025.60	0	3.0470	0	34.3740	0	27.388	0	1014.509	0	-1e10	8	-1e10	8	-1E+10	1	-1E+10	1	-1E+10	1	-1E+10	1	-1E+10	1	-1E+10	1
4902554	96	C	10/05/2023	21:02	-133.619	47.778	0	1035.40	0	3.0250	0	34.3790	0	27.394	0	1024.179	0	-1e10	8	-1e10	8	-1E+10	1	-1E+10	1	-1E+10	1	-1E+10	1	-1E+10	1	-1E+10	1
4902554	96	C	10/05/2023	21:02	-133.619	47.778	0	1045.40	0	3.0050	0	34.3840	0	27.399	0	1034.046	0	-1e10	8	-1e10	8	-1E+10	1	-1E+10	1	-1E+10	1	-1E+10	1	-1E+10	1	-1E+10	1
4902554	96	C	10/05/2023	21:02	-133.619	47.778	0	1055.50	0	2.9870	0	34.3880	0	27.404	0	1044.012	0	-1e10	8	-1e10	8	-1E+10	1	-1E+10	1	-1E+10	1	-1E+10	1	-1E+10	1	-1E+10	1
4902554	96	C	10/05/2023	21:02	-133.619	47.778	0	1065.60	0	2.9760	0	34.3920	0	27.409	0	1053.976	0	-1e10	8	-1e10	8	-1E+10	1	-1E+10	1	-1E+10	1	-1E+10	1	-1E+10	1	-1E+10	1
4902554	96	C	10/05/2023	21:02	-133.619	47.778	0	1075.40	0	2.9650	0	34.3960	0	27.413	0	1063.645	0	-1e10	8	-1e10	8	-1E+10	1	-1E+10	1	-1E+10	1	-1E+10	1	-1E+10	1	-1E+10	1
4902554	96	C	10/05/2023	21:02	-133.619	47.778	0	1085.10	0	2.9560	0	34.4010	0	27.418	0	1073.214	0	-1e10	8	-1e10	8	-1E+10	1	-1E+10	1	-1E+10	1	-1E+10	1	-1E+10	1	-1E+10	1
4902554	96	C	10/05/2023	21:02	-133.619	47.778	0	1095.50	0	2.9440	0	34.4030	0	27.420	0	1083.473	0	-1e10	8	-1e10	8	-1E+10	1	-1E+10	1	-1E+10	1	-1E+10	1	-1E+10	1	-1E+10	1
4902554	96	C	10/05/2023	21:02	-133.619	47.778	0	1105.50	0	2.9290	0	34.4060	0	27.424	0	1093.337	0	-1e10	8	-1e10	8	-1E+10	1	-1E+10	1	-1E+10	1	-1E+10	1	-1E+10	1	-1E+10	1
4902554	96	C	10/05/2023	21:02	-133.619	47.778	0	1115.50	0	2.9110	0	34.4090	0	27.428	0	1103.201	0	-1e10	8	-1e10	8	-1E+10	1	-1E+10	1	-1E+10	1	-1E+10	1	-1E+10	1	-1E+10	1
4902554	96	C	10/05/2023	21:02	-133.619	47.778	0	1125.30	0	2.9030	0	34.4110	0	27.431	0	1112.867	0	-1e10	8	-1e10	8	-1E+10	1	-1E+10	1	-1E+10	1	-1E+10	1	-1E+10	1	-1E+10	1
4902554	96	C	10/05/2023	21:02	-133.619	47.778	0	1135.30	0	2.8900	0	34.4130	0	27.433	0	1122.730	0	-1e10	8	-1e10	8	-1E+10	1	-1E+10	1	-1E+10	1	-1E+10	1	-1E+10	1	-1E+10	1
4902554	96	C	10/05/2023	21:02	-133.619	47.778	0	1145.50	0	2.8750	0	34.4160	0	27.437	0	1132.789	0	-1e10	8	-1e10	8	-1E+10	1	-1E+10	1	-1E+10	1	-1E+10	1	-1E+10	1	-1E+10	1
4902554	96	C	10/05/2023	21:02	-133.619	47.778	0	1155.70	0	2.8540	0	34.4200	0	27.442	0	1142.848	0	-1e10	8	-1e10	8	-1E+10	1	-1E+10	1	-1E+10	1	-1E+10	1	-1E+10	1	-1E+10	1
4902554	96	C	10/05/2023	21:02	-133.619	47.778	0	1165.70	0	2.8480	0	34.4220	0	27.444	0	1152.710	0	-1e10	8	-1e10	8	-1E+10	1	-1E+10	1	-1E+10	1	-1E+10	1	-1E+10	1	-1E+10	1
4902554	96	C	10/05/2023	21:02	-133.619	47.778	0	1175.80	0	2.8420	0	34.4230	0	27.446	0	1162.669	0	-1e10	8	-1e10	8	-1E+10	1	-1E+10	1	-1E+10	1	-1E+10	1	-1E+10	1	-1E+10	1
4902554	96	C	10/05/2023	21:02	-133.619	47.778	0	1185.70	0	2.8490	0	34.4290	0	27.450	0	1172.431	0	-1e10	8	-1e10	8	-1E+10	1	-1E+10	1	-1E+10	1	-1E+10	1	-1E+10	1	-1E+10	1
4902554	96	C	10/05/2023	21:02	-133.619	47.778	0	1195.60	0	2.8380	0	34.4330	0	27.454	0	1182.193	0	-1e10	8	-1e10	8	-1E+10	1	-1E+10	1	-1E+10	1	-1E+10	1	-1E+10	1	-1E+10	1
4902554	96	C	10/05/2023	21:02	-133.619	47.778	0	1205.70	0	2.8310	0	34.4370	0	27.458	0	1192.151	0	-1e10	8	-1e10	8	-1E+10	1	-1E+10	1	-1E+10	1	-1E+10	1	-1E+10	1	-1E+10	1
4902554	96	C	10/05/2023	21:02	-133.619	47.778	0	1215.50	0	2.8170	0	34.4390	0	27.461	0	1201.813	0	-1e10	8	-1e10	8	-1E+10	1	-1E+10	1	-1E+10	1	-1E+10	1	-1E+10	1	-1E+10	1
4902554	96	C	10/05/2023	21:02	-133.619	47.778	0	1225.20	0	2.7970	0	34.4410	0	27.465	0	1211.375	0	-1e10	8	-1e10	8	-1E+10	1	-1E+10	1	-1E+10	1	-1E+10	1	-1E+10	1	-1E+10	1
4902554	96	C	10/05/2023	21:02	-133.619	47.778	0	1235.30	0	2.7530	0	34.4410	0	27.468	0	1221.332	0	-1e10	8	-1e10	8	-1E+10	1	-1E+10	1	-1E+10	1	-1E+10	1	-1E+10	1	-1E+10	1
4902554	96	C	10/05/2023	21:02	-133.619	47.778	0	1245.50	0	2.7270	0	34.4440	0	27.473	0	1231.387	0	-1e10	8	-1e10	8	-1E+10	1	-1E+10	1	-1E+10	1	-1E+10	1	-1E+10	1	-1E+10	1
4902554	96	C	10/05/2023	21:02	-133.619	47.778	0	1255.50	0	2.7150	0	34.4460	0	27.476	0	1241.244	0	-1e10	8	-1e10	8	-1E+10	1	-1E+10	1	-1E+10	1	-1E+10	1	-1E+10	1	-1E+10	1
4902554	96	C	10/05/2023	21:02	-133.619	47.778	0	1265.50	0	2.7020	0	34.4500	0	27.480	0	1251.101	0	-1e10	8	-1e10	8	-1E+10	1	-1E+10	1	-1E+10	1	-1E+10	1	-1E+10	1	-1E+10	1
4902554	96	C	10/05/2023	21:02	-133.619	47.778	0	1275.50	0	2.6900	0	34.4520	0	27.483	0	1260.957	0	-1e10	8	-1e10	8	-1E+10	1	-1E+10	1	-1E+10	1	-1E+10	1	-1E+10	1	-1E+10	1
4902554	96	C	10/05/2023	21:02	-133.619	47.778	0	1285.50	0	2.6670	0	34.4550	0	27.487	0	1270.813	0	-1e10	8	-1e10	8	-1E+10	1	-1E+10	1	-1E+10	1	-1E+10	1	-1E+10	1	-1E+10	1
4902554	96	C	10/05/2023	21:02	-133.619	47.778	0	1295.50	0	2.6520	0	34.4580	0	27.491	0	1280.668	0	-1e10	8	-1e10	8	-1E+10	1	-1E+10	1	-1E+10	1	-1E+10	1	-1E+10	1	-1E+10	1
4902554	96	C	10/05/2023	21:02	-133.619	47.778	0	1305.20	0	2.6320	0	34.4610	0	27.495	0	1290.228	0	-1e10	8	-1e10	8	-1E+10	1	-1E+10	1	-1E+10	1	-1E+10	1	-1E+10	1	-1E+10	1
4902554	96	C	10/05/2023	21:02	-133.619	47.778	0	1315.10	0	2.6180	0	34.4640	0	27.499	0	1299.984	0	-1e10	8	-1e10	8	-1E+10	1	-1E+10	1	-1E+10	1	-1E+10	1	-1E+10	1	-1E+10	1
4902554	96	C	10/05/2023	21:02	-133.619	47.778	0	1325.10	0	2.6050	0	34.4660	0	27.502	0	1309.838	0	-1e10	8	-1e10	8	-1E+10	1	-1E+10	1	-1E+10	1	-1E+10	1	-1E+10	1	-1E+10	1
4902554	96	C	10/05/2023	21:02	-133.619	47.778	0	1335.20	0	2.5930	0	34.4680	0	27.504	0	1319.790	0	-1e10	8	-1e10	8	-1E+10	1	-1E+10	1	-1E+10	1	-1E+10	1	-1E+10	1	-1E+10	1
4902554	96	C	10/05/2023	21:02	-133.619	47.778	0	1345.20	0	2.5790	0	34.4710	0	27.508	0	1329.643	0	-1e10	8	-1e10	8	-1E+10	1	-1E+10	1	-1E+10	1	-1E+10	1	-1E+10	1	-1E+10	1
4902554	96	C	10/05/2023	21:02	-133.619	47.778	0	1355.40	0	2.5630	0	34.4730	0	27.511	0	1339.692	0	-1e10	8	-1e10	8	-1E+10	1	-1E+10	1	-1E+10	1	-1E+10	1	-1E+10	1	-1E+10	1
4902554	96	C	10/05/2023	21:02	-133.619	47.778	0	1365.50	0	2.5380	0	34.4770	0	27.516	0	1349.643	0	-1e10	8	-1e10	8	-1E+10	1	-1E+10	1	-1E+10	1	-1E+10	1	-1E+10	1	-1E+10	1
4902554	96	C	10/05/2023	21:02	-133.619	47.778	0	1375.70	0	2.5170	0	34.4810	0	27.521	0	1359.692	0	-1e10	8	-1e10	8	-1E+10	1	-1E+10	1	-1E+10	1	-1E+10	1	-1E+10	1	-1E+10	1
4902554	96	C	10/05/2023	21:02	-133.619	47.778	0	1385.30	0	2.4990	0	34.4820	0	27.524	0	1369.149	0	-1e10	8	-1e10	8	-1E+10	1	-1E+10	1	-1E+10	1	-1E+10	1	-1E+10	1	-1E+10	1
4902554	96	C	10/05/2023	21:02	-133.619	47.778	0	1395.40	0	2.4890	0	34.4850	0	27.527	0	1379.098	0	-1e10	8	-1e10	8	-1E+10	1	-1E+10	1	-1E+10	1	-1E+10	1	-1E+10	1	-1E+10	1
4902554	96	C	10/05/2023	21:02	-133.619	47.778	0	1405.50	0	2.4830	0	34.4870	0	27.529	0	1389.047	0	-1e10	8	-1e10	8	-1E+10	1	-1E+10	1	-1E+10	1	-1E+10	1	-1E+10	1	-1E+10	1
4902554	96	C	10/05/2023	21:02	-133.619	47.778	0	1415.30	0	2.4750	0	34.4880	0	27.531	0	1398.700	0	-1e10	8	-1e10	8	-1E+10	1	-1E+10	1	-1E+10	1	-1E+10	1	-1E+10	1	-1E+10	1
4902554	96	C	10/05/2023	21:02	-133.619	47.778	0	1425.10	0	2.4600	0	34.4900	0	27.534	0	1408.352	0	-1e10	8	-1e10	8	-1E+10	1	-1E+10	1	-1E+10	1	-1E+10	1	-1E+10	1	-1E+10	1
4902554	96	C	10/05/2023	21:02	-133.619	47.778	0	1435.10	0	2.4490	0	34.4930	0	27.537	0	1418.201	0	-1e10	8	-1e10	8	-1E+10	1	-1E+10	1	-1E+10	1	-1E+10	1	-1E+10	1	-1E+10	1
4902554	96	C	10/05/2023	21:02	-133.619	47.778	0	1445.10	0	2.4360	0	34.4950	0	27.540	0	1428.049	0	-1e10	8	-1e10	8	-1E+10	1	-1E+10	1	-1E+10	1	-1E+10	1	-1E+10	1	-1E+10	1
4902554	96	C	10/05/2023	21:02	-133.619	47.778	0	1455.20	0	2.4230	0	34.4970	0	27.542	0	1437.996	0	-1e10	8	-1e10	8	-1E+10	1	-1E+10	1	-1E+10	1	-1E+10	1	-1E+10	1	-1E+10	1
4902554	96	C	10/05/2023	21:02	-133.619	47.778	0	1465.60	0	2.4000	0	34.5010	0	27.548	0	1448.237	0	-1e10	8	-1e10	8	-1E+10	1	-1E+10	1	-1E+10	1	-1E+10	1	-1E+10	1	-1E+10	1
4902554	96	C	10/05/2023	21:02	-133.619	47.778	0	1475.70	0	2.3790	0	34.5040	0	27.552	0	1458.183	0	-1e10	8	-1e10	8	-1E+10	1	-1E+10	1	-1E+10	1	-1E+10	1	-1E+10	1	-1E+10	1
4902554	96	C	10/05/2023	21:02	-133.619	47.778	0	1485.70	0	2.3640	0	34.5070	0	27.555	0	1468.029	0	-1e10	8	-1e10	8	-1E+10	1	-1E+10	1	-1E+10	1	-1E+10	1	-1E+10	1	-1E+10	1
4902554	96	C	10/05/2023	21:02	-133.619	47.778	0	1495.70	0	2.3440	0	34.5100	0	27.559	0	1477.875	0	-1e10	8	-1e10	8	-1E+10	1	-1E+10	1	-1E+10	1	-1E+10	1	-1E+10	1	-1E+10	1
4902554	96	C	10/05/2023	21:02	-133.619	47.778	0	1505.60	0	2.3270	0	34.5130	0	27.563	0	1487.623	0	-1e10	8	-1e10	8	-1E+10	1	-1E+10	1	-1E+10	1	-1E+10	1	-1E+10	1	-1E+10	1
4902554	96	C	10/05/2023	21:02	-133.619	47.778	0	1515.10	0	2.3120	0	34.5160	0	27.567	0	1496.976	0	-1e10	8	-1e10	8	-1E+10	1	-1E+10	1	-1E+10	1	-1E+10	1	-1E+10	1	-1E+10	1
4902554	96	C	10/05/2023	21:02	-133.619	47.778	0	1525.30	0	2.2960	0	34.5190	0	27.571	0	1507.017	0	-1e10	8	-1e10	8	-1E+10	1	-1E+10	1	-1E+10	1	-1E+10	1	-1E+10	1	-1E+10	1
4902554	96	C	10/05/2023	21:02	-133.619	47.778	0	1535.20	0	2.2870	0	34.5200	0	27.572	0	1516.763	0	-1e10	8	-1e10	8	-1E+10	1	-1E+10	1	-1E+10	1	-1E+10	1	-1E+10	1	-1E+10	1
4902554	96	C	10/05/2023	21:02	-133.619	47.778	0	1545.30	0	2.2620	0	34.5240	0	27.578	0	1526.705	0	-1e10	8	-1e10	8	-1E+10	1	-1E+10	1	-1E+10	1	-1E+10	1	-1E+10	1	-1E+10	1
4902554	96	C	10/05/2023	21:02	-133.619	47.778	0	1555.50	0	2.2490	0	34.5260	0	27.580	0	1536.746	0	-1e10	8	-1e10	8	-1E+10	1	-1E+10	1	-1E+10	1	-1E+10	1	-1E+10	1	-1E+10	1
4902554	96	C	10/05/2023	21:02	-133.619	47.778	0	1565.80	0	2.2350	0	34.5290	0	27.584	0	1546.884	0	-1e10	8	-1e10	8	-1E+10	1	-1E+10	1	-1E+10	1	-1E+10	1	-1E+10	1	-1E+10	1
4902554	96	C	10/05/2023	21:02	-133.619	47.778	0	1575.80	0	2.2270	0	34.5310	0	27.586	0	1556.726	0	-1e10	8	-1e10	8	-1E+10	1	-1E+10	1	-1E+10	1	-1E+10	1	-1E+10	1	-1E+10	1
4902554	96	C	10/05/2023	21:02	-133.619	47.778	0	1585.50	0	2.2140	0	34.5330	0	27.589	0	1566.273	0	-1e10	8	-1e10	8	-1E+10	1	-1E+10	1	-1E+10	1	-1E+10	1	-1E+10	1	-1E+10	1
4902554	96	C	10/05/2023	21:02	-133.619	47.778	0	1595.30	0	2.1990	0	34.5360	0	27.593	0	1575.918	0	-1e10	8	-1e10	8	-1E+10	1	-1E+10	1	-1E+10	1	-1E+10	1	-1E+10	1	-1E+10	1
4902554	96	C	10/05/2023	21:02	-133.619	47.778	0	1605.60	0	2.1870	0	34.5390	0	27.596	0	1586.054	0	-1e10	8	-1e10	8	-1E+10	1	-1E+10	1	-1E+10	1	-1E+10	1	-1E+10	1	-1E+10	1
4902554	96	C	10/05/2023	21:02	-133.619	47.778	0	1615.60	0	2.1700	0	34.5410	0	27.599	0	1595.894	0	-1e10	8	-1e10	8	-1E+10	1	-1E+10	1	-1E+10	1	-1E+10	1	-1E+10	1	-1E+10	1
4902554	96	C	10/05/2023	21:02	-133.619	47.778	0	1625.30	0	2.1600	0	34.5430	0	27.601	0	1605.439	0	-1e10	8	-1e10	8	-1E+10	1	-1E+10	1	-1E+10	1	-1E+10	1	-1E+10	1	-1E+10	1
4902554	96	C	10/05/2023	21:02	-133.619	47.778	0	1635.40	0	2.1510	0	34.5450	0	27.604	0	1615.378	0	-1e10	8	-1e10	8	-1E+10	1	-1E+10	1	-1E+10	1	-1E+10	1	-1E+10	1	-1E+10	1
4902554	96	C	10/05/2023	21:02	-133.619	47.778	0	1645.50	0	2.1440	0	34.5460	0	27.605	0	1625.315	0	-1e10	8	-1e10	8	-1E+10	1	-1E+10	1	-1E+10	1	-1E+10	1	-1E+10	1	-1E+10	1
4902554	96	C	10/05/2023	21:02	-133.619	47.778	0	1655.70	0	2.1370	0	34.5470	0	27.607	0	1635.351	0	-1e10	8	-1e10	8	-1E+10	1	-1E+10	1	-1E+10	1	-1E+10	1	-1E+10	1	-1E+10	1
4902554	96	C	10/05/2023	21:02	-133.619	47.778	0	1665.50	0	2.1240	0	34.5500	0	27.610	0	1644.992	0	-1e10	8	-1e10	8	-1E+10	1	-1E+10	1	-1E+10	1	-1E+10	1	-1E+10	1	-1E+10	1
4902554	96	C	10/05/2023	21:02	-133.619	47.778	0	1675.40	0	2.1200	0	34.5500	0	27.610	0	1654.732	0	-1e10	8	-1e10	8	-1E+10	1	-1E+10	1	-1E+10	1	-1E+10	1	-1E+10	1	-1E+10	1
4902554	96	C	10/05/2023	21:02	-133.619	47.778	0	1685.60	0	2.1040	0	34.5530	0	27.614	0	1664.766	0	-1e10	8	-1e10	8	-1E+10	1	-1E+10	1	-1E+10	1	-1E+10	1	-1E+10	1	-1E+10	1
4902554	96	C	10/05/2023	21:02	-133.619	47.778	0	1695.40	0	2.0880	0	34.5570	0	27.619	0	1674.406	0	-1e10	8	-1e10	8	-1E+10	1	-1E+10	1	-1E+10	1	-1E+10	1	-1E+10	1	-1E+10	1
4902554	96	C	10/05/2023	21:02	-133.619	47.778	0	1705.00	0	2.0840	0	34.5570	0	27.619	0	1683.849	0	-1e10	8	-1e10	8	-1E+10	1	-1E+10	1	-1E+10	1	-1E+10	1	-1E+10	1	-1E+10	1
4902554	96	C	10/05/2023	21:02	-133.619	47.778	0	1715.00	0	2.0770	0	34.5580	0	27.620	0	1693.685	0	-1e10	8	-1e10	8	-1E+10	1	-1E+10	1	-1E+10	1	-1E+10	1	-1E+10	1	-1E+10	1
4902554	96	C	10/05/2023	21:02	-133.619	47.778	0	1725.10	0	2.0690	0	34.5600	0	27.623	0	1703.619	0	-1e10	8	-1e10	8	-1E+10	1	-1E+10	1	-1E+10	1	-1E+10	1	-1E+10	1	-1E+10	1
4902554	96	C	10/05/2023	21:02	-133.619	47.778	0	1735.10	0	2.0620	0	34.5610	0	27.624	0	1713.454	0	-1e10	8	-1e10	8	-1E+10	1	-1E+10	1	-1E+10	1	-1E+10	1	-1E+10	1	-1E+10	1
4902554	96	C	10/05/2023	21:02	-133.619	47.778	0	1745.10	0	2.0540	0	34.5630	0	27.626	0	1723.289	0	-1e10	8	-1e10	8	-1E+10	1	-1E+10	1	-1E+10	1	-1E+10	1	-1E+10	1	-1E+10	1
4902554	96	C	10/05/2023	21:02	-133.619	47.778	0	1755.60	0	2.0490	0	34.5640	0	27.628	0	1733.615	0	-1e10	8	-1e10	8	-1E+10	1	-1E+10	1	-1E+10	1	-1E+10	1	-1E+10	1	-1E+10	1
4902554	96	C	10/05/2023	21:02	-133.619	47.778	0	1765.40	0	2.0330	0	34.5660	0	27.631	0	1743.252	0	-1e10	8	-1e10	8	-1E+10	1	-1E+10	1	-1E+10	1	-1E+10	1	-1E+10	1	-1E+10	1
4902554	96	C	10/05/2023	21:02	-133.619	47.778	0	1775.50	0	2.0260	0	34.5680	0	27.633	0	1753.183	0	-1e10	8	-1e10	8	-1E+10	1	-1E+10	1	-1E+10	1	-1E+10	1	-1E+10	1	-1E+10	1
4902554	96	C	10/05/2023	21:02	-133.619	47.778	0	1785.30	0	2.0200	0	34.5690	0	27.634	0	1762.820	0	-1e10	8	-1e10	8	-1E+10	1	-1E+10	1	-1E+10	1	-1E+10	1	-1E+10	1	-1E+10	1
4902554	96	C	10/05/2023	21:02	-133.619	47.778	0	1795.20	0	2.0100	0	34.5710	0	27.637	0	1772.554	0	-1e10	8	-1e10	8	-1E+10	1	-1E+10	1	-1E+10	1	-1E+10	1	-1E+10	1	-1E+10	1
4902554	96	C	10/05/2023	21:02	-133.619	47.778	0	1805.50	0	2.0050	0	34.5720	0	27.638	0	1782.681	0	-1e10	8	-1e10	8	-1E+10	1	-1E+10	1	-1E+10	1	-1E+10	1	-1E+10	1	-1E+10	1
4902554	96	C	10/05/2023	21:02	-133.619	47.778	0	1815.40	0	1.9980	0	34.5730	0	27.639	0	1792.414	0	-1e10	8	-1e10	8	-1E+10	1	-1E+10	1	-1E+10	1	-1E+10	1	-1E+10	1	-1E+10	1
4902554	96	C	10/05/2023	21:02	-133.619	47.778	0	1825.50	0	1.9930	0	34.5740	0	27.640	0	1802.343	0	-1e10	8	-1e10	8	-1E+10	1	-1E+10	1	-1E+10	1	-1E+10	1	-1E+10	1	-1E+10	1
4902554	96	C	10/05/2023	21:02	-133.619	47.778	0	1835.40	0	1.9890	0	34.5750	0	27.642	0	1812.075	0	-1e10	8	-1e10	8	-1E+10	1	-1E+10	1	-1E+10	1	-1E+10	1	-1E+10	1	-1E+10	1
4902554	96	C	10/05/2023	21:02	-133.619	47.778	0	1845.20	0	1.9850	0	34.5770	0	27.644	0	1821.709	0	-1e10	8	-1e10	8	-1E+10	1	-1E+10	1	-1E+10	1	-1E+10	1	-1E+10	1	-1E+10	1
4902554	96	C	10/05/2023	21:02	-133.619	47.778	0	1855.20	0	1.9780	0	34.5780	0	27.645	0	1831.538	0	-1e10	8	-1e10	8	-1E+10	1	-1E+10	1	-1E+10	1	-1E+10	1	-1E+10	1	-1E+10	1
4902554	96	C	10/05/2023	21:02	-133.619	47.778	0	1865.30	0	1.9740	0	34.5790	0	27.646	0	1841.466	0	-1e10	8	-1e10	8	-1E+10	1	-1E+10	1	-1E+10	1	-1E+10	1	-1E+10	1	-1E+10	1
4902554	96	C	10/05/2023	21:02	-133.619	47.778	0	1875.60	0	1.9670	0	34.5800	0	27.648	0	1851.589	0	-1e10	8	-1e10	8	-1E+10	1	-1E+10	1	-1E+10	1	-1E+10	1	-1E+10	1	-1E+10	1
4902554	96	C	10/05/2023	21:02	-133.619	47.778	0	1885.50	0	1.9620	0	34.5810	0	27.649	0	1861.319	0	-1e10	8	-1e10	8	-1E+10	1	-1E+10	1	-1E+10	1	-1E+10	1	-1E+10	1	-1E+10	1
4902554	96	C	10/05/2023	21:02	-133.619	47.778	0	1895.50	0	1.9610	0	34.5810	0	27.649	0	1871.147	0	-1e10	8	-1e10	8	-1E+10	1	-1E+10	1	-1E+10	1	-1E+10	1	-1E+10	1	-1E+10	1
4902554	96	C	10/05/2023	21:02	-133.619	47.778	0	1905.70	0	1.9550	0	34.5820	0	27.650	0	1881.171	0	-1e10	8	-1e10	8	-1E+10	1	-1E+10	1	-1E+10	1	-1E+10	1	-1E+10	1	-1E+10	1
4902554	96	C	10/05/2023	21:02	-133.619	47.778	0	1915.40	0	1.9500	0	34.5830	0	27.652	0	1890.703	0	-1e10	8	-1e10	8	-1E+10	1	-1E+10	1	-1E+10	1	-1E+10	1	-1E+10	1	-1E+10	1
4902554	96	C	10/05/2023	21:02	-133.619	47.778	0	1925.40	0	1.9430	0	34.5850	0	27.654	0	1900.530	0	-1e10	8	-1e10	8	-1E+10	1	-1E+10	1	-1E+10	1	-1E+10	1	-1E+10	1	-1E+10	1
4902554	96	C	10/05/2023	21:02	-133.619	47.778	0	1935.60	0	1.9400	0	34.5860	0	27.655	0	1910.552	0	-1e10	8	-1e10	8	-1E+10	1	-1E+10	1	-1E+10	1	-1E+10	1	-1E+10	1	-1E+10	1
4902554	96	C	10/05/2023	21:02	-133.619	47.778	0	1945.40	0	1.9330	0	34.5870	0	27.656	0	1920.181	0	-1e10	8	-1e10	8	-1E+10	1	-1E+10	1	-1E+10	1	-1E+10	1	-1E+10	1	-1E+10	1
4902554	96	C	10/05/2023	21:02	-133.619	47.778	0	1955.30	0	1.9280	0	34.5880	0	27.657	0	1929.908	0	-1e10	8	-1e10	8	-1E+10	1	-1E+10	1	-1E+10	1	-1E+10	1	-1E+10	1	-1E+10	1
4902554	96	C	10/05/2023	21:02	-133.619	47.778	0	1965.60	0	1.9240	0	34.5880	0	27.658	0	1940.027	0	-1e10	8	-1e10	8	-1E+10	1	-1E+10	1	-1E+10	1	-1E+10	1	-1E+10	1	-1E+10	1
4902554	96	C	10/05/2023	21:02	-133.619	47.778	0	1975.50	0	1.9190	0	34.5890	0	27.659	0	1949.753	0	-1e10	8	-1e10	8	-1E+10	1	-1E+10	1	-1E+10	1	-1E+10	1	-1E+10	1	-1E+10	1
4902554	96	C	10/05/2023	21:02	-133.619	47.778	0	1985.50	0	1.9150	0	34.5900	0	27.660	0	1959.577	0	-1e10	8	-1e10	8	-1E+10	1	-1E+10	1	-1E+10	1	-1E+10	1	-1E+10	1	-1E+10	1
4902554	96	C	10/05/2023	21:02	-133.619	47.778	0	1995.50	0	1.9120	0	34.5910	0	27.661	0	1969.400	0	-1e10	8	-1e10	8	-1E+10	1	-1E+10	1	-1E+10	1	-1E+10	1	-1E+10	1	-1E+10	1
4902554	96	C	10/05/2023	21:02	-133.619	47.778	0	2005.20	0	1.9090	0	34.5920	0	27.662	0	1978.928	0	-1e10	8	-1e10	8	-1E+10	1	-1E+10	1	-1E+10	1	-1E+10	1	-1E+10	1	-1E+10	1
4902554	96	C	10/05/2023	21:02	-133.619	47.778	0	2015.10	0	1.9060	0	34.5920	0	27.663	0	1988.652	0	-1e10	8	-1e10	8	-1E+10	1	-1E+10	1	-1E+10	1	-1E+10	1	-1E+10	1	-1E+10	1
4902554	96	C	10/05/2023	21:02	-133.619	47.778	0	2025.70	0	1.9020	0	34.5940	0	27.665	0	1999.064	0	-1e10	8	-1e10	8	-1E+10	1	-1E+10	1	-1E+10	1	-1E+10	1	-1E+10	1	-1E+10	1
4902554	96	C	10/05/2023	21:02	-133.619	47.778	0	2030.80	0	1.9010	0	34.5940	0	27.665	0	2004.073	0	-1e10	8	-1e10	8	-1E+10	1	-1E+10	1	-1E+10	1	-1E+10	1	-1E+10	1	-1E+10	1
4902554	96	C	10/05/2023	21:02	-133.619	47.778	0																										
4902554	97	C	10/16/2023	02:03	-133.628	47.814	0	0.00	0	13.8500	0	32.3630	0	24.181	0	0.000	0	-1e10	8	-1e10	8	-1E+10	1	-1E+10	1	-1E+10	1	-1E+10	1	-1E+10	1	-1E+10	1
4902554	97	C	10/16/2023	02:03	-133.628	47.814	0	0.10	0	13.8560	0	32.3740	0	24.189	0	0.099	0	-1e10	1	-1e10	1	-1E+10	1	-1E+10	1	-1E+10	1	-1E+10	1	-1E+10	1	-1E+10	1
4902554	97	C	10/16/2023	02:03	-133.628	47.814	0	0.30	0	13.8600	0	32.3820	0	24.194	0	0.297	0	-1e10	8	-1e10	8	-1E+10	1	-1E+10	1	-1E+10	1	-1E+10	1	-1E+10	1	-1E+10	1
4902554	97	C	10/16/2023	02:03	-133.628	47.814	0	0.80	0	13.8590	0	32.3800	0	24.193	0	0.793	0	-1e10	8	-1e10	8	-1E+10	1	-1E+10	1	-1E+10	1	-1E+10	1	-1E+10	1	-1E+10	1
4902554	97	C	10/16/2023	02:03	-133.628	47.814	0	1.80	0	13.8600	0	32.3850	0	24.196	0	1.785	0	-1e10	8	-1e10	8	-1E+10	1	-1E+10	1	-1E+10	1	-1E+10	1	-1E+10	1	-1E+10	1
4902554	97	C	10/16/2023	02:03	-133.628	47.814	0	3.00	0	13.8600	0	32.3860	0	24.197	0	2.975	0	-1e10	8	-1e10	8	-1E+10	1	-1E+10	1	-1E+10	1	-1E+10	1	-1E+10	1	-1E+10	1
4902554	97	C	10/16/2023	02:03	-133.628	47.814	0	4.20	0	13.8600	0	32.3880	0	24.199	0	4.165	0	-1e10	8	-1e10	8	-1E+10	1	-1E+10	1	-1E+10	1	-1E+10	1	-1E+10	1	-1E+10	1
4902554	97	C	10/16/2023	02:03	-133.628	47.814	0	5.00	0	13.8600	0	32.3890	0	24.200	0	4.958	0	-1e10	8	-1e10	8	-1E+10	1	-1E+10	1	-1E+10	1	-1E+10	1	-1E+10	1	-1E+10	1
4902554	97	C	10/16/2023	02:03	-133.628	47.814	0	6.10	0	13.8610	0	32.3880	0	24.199	0	6.049	0	-1e10	8	-1e10	8	-1E+10	1	-1E+10	1	-1E+10	1	-1E+10	1	-1E+10	1	-1E+10	1
4902554	97	C	10/16/2023	02:03	-133.628	47.814	0	7.10	0	13.8600	0	32.3890	0	24.200	0	7.040	0	-1e10	8	-1e10	8	-1E+10	1	-1E+10	1	-1E+10	1	-1E+10	1	-1E+10	1	-1E+10	1
4902554	97	C	10/16/2023	02:03	-133.628	47.814	0	8.20	0	13.8600	0	32.3890	0	24.200	0	8.131	0	-1e10	8	-1e10	8	-1E+10	1	-1E+10	1	-1E+10	1	-1E+10	1	-1E+10	1	-1E+10	1
4902554	97	C	10/16/2023	02:03	-133.628	47.814	0	9.10	0	13.8610	0	32.3890	0	24.200	0	9.024	0	-1e10	8	-1e10	8	-1E+10	1	-1E+10	1	-1E+10	1	-1E+10	1	-1E+10	1	-1E+10	1
4902554	97	C	10/16/2023	02:03	-133.628	47.814	0	10.00	0	13.8610	0	32.3880	0	24.199	0	9.916	0	-1e10	8	-1e10	8	-1E+10	1	-1E+10	1	-1E+10	1	-1E+10	1	-1E+10	1	-1E+10	1
4902554	97	C	10/16/2023	02:03	-133.628	47.814	0	11.10	0	13.8610	0	32.3880	0	24.199	0	11.007	0	-1e10	8	-1e10	8	-1E+10	1	-1E+10	1	-1E+10	1	-1E+10	1	-1E+10	1	-1E+10	1
4902554	97	C	10/16/2023	02:03	-133.628	47.814	0	12.10	0	13.8600	0	32.3880	0	24.199	0	11.998	0	-1e10	8	-1e10	8	-1E+10	1	-1E+10	1	-1E+10	1	-1E+10	1	-1E+10	1	-1E+10	1
4902554	97	C	10/16/2023	02:03	-133.628	47.814	0	13.10	0	13.8600	0	32.3890	0	24.200	0	12.990	0	-1e10	8	-1e10	8	-1E+10	1	-1E+10	1	-1E+10	1	-1E+10	1	-1E+10	1	-1E+10	1
4902554	97	C	10/16/2023	02:03	-133.628	47.814	0	13.90	0	13.8610	0	32.3880	0	24.199	0	13.783	0	-1e10	8	-1e10	8	-1E+10	1	-1E+10	1	-1E+10	1	-1E+10	1	-1E+10	1	-1E+10	1
4902554	97	C	10/16/2023	02:03	-133.628	47.814	0	14.70	0	13.8600	0	32.3880	0	24.199	0	14.576	0	-1e10	8	-1e10	8	-1E+10	1	-1E+10	1	-1E+10	1	-1E+10	1	-1E+10	1	-1E+10	1
4902554	97	C	10/16/2023	02:03	-133.628	47.814	0	15.70	0	13.8580	0	32.3890	0	24.200	0	15.568	0	-1e10	8	-1e10	8	-1E+10	1	-1E+10	1	-1E+10	1	-1E+10	1	-1E+10	1	-1E+10	1
4902554	97	C	10/16/2023	02:03	-133.628	47.814	0	16.70	0	13.8600	0	32.3880	0	24.199	0	16.559	0	-1e10	8	-1e10	8	-1E+10	1	-1E+10	1	-1E+10	1	-1E+10	1	-1E+10	1	-1E+10	1
4902554	97	C	10/16/2023	02:03	-133.628	47.814	0	17.70	0	13.8600	0	32.3880	0	24.199	0	17.551	0	-1e10	8	-1e10	8	-1E+10	1	-1E+10	1	-1E+10	1	-1E+10	1	-1E+10	1	-1E+10	1
4902554	97	C	10/16/2023	02:03	-133.628	47.814	0	18.70	0	13.8600	0	32.3880	0	24.199	0	18.543	0	-1e10	8	-1e10	8	-1E+10	1	-1E+10	1	-1E+10	1	-1E+10	1	-1E+10	1	-1E+10	1
4902554	97	C	10/16/2023	02:03	-133.628	47.814	0	19.70	0	13.8590	0	32.3870	0	24.199	0	19.534	0	-1e10	8	-1e10	8	-1E+10	1	-1E+10	1	-1E+10	1	-1E+10	1	-1E+10	1	-1E+10	1
4902554	97	C	10/16/2023	02:03	-133.628	47.814	0	20.70	0	13.8600	0	32.3880	0	24.199	0	20.526	0	-1e10	8	-1e10	8	-1E+10	1	-1E+10	1	-1E+10	1	-1E+10	1	-1E+10	1	-1E+10	1
4902554	97	C	10/16/2023	02:03	-133.628	47.814	0	21.70	0	13.8590	0	32.3880	0	24.200	0	21.517	0	-1e10	8	-1e10	8	-1E+10	1	-1E+10	1	-1E+10	1	-1E+10	1	-1E+10	1	-1E+10	1
4902554	97	C	10/16/2023	02:03	-133.628	47.814	0	22.70	0	13.8600	0	32.3880	0	24.199	0	22.509	0	-1e10	8	-1e10	8	-1E+10	1	-1E+10	1	-1E+10	1	-1E+10	1	-1E+10	1	-1E+10	1
4902554	97	C	10/16/2023	02:03	-133.628	47.814	0	23.70	0	13.8590	0	32.3880	0	24.200	0	23.500	0	-1e10	8	-1e10	8	-1E+10	1	-1E+10	1	-1E+10	1	-1E+10	1	-1E+10	1	-1E+10	1
4902554	97	C	10/16/2023	02:03	-133.628	47.814	0	24.80	0	13.8590	0	32.3890	0	24.200	0	24.591	0	-1e10	8	-1e10	8	-1E+10	1	-1E+10	1	-1E+10	1	-1E+10	1	-1E+10	1	-1E+10	1
4902554	97	C	10/16/2023	02:03	-133.628	47.814	0	25.80	0	13.8590	0	32.3880	0	24.200	0	25.582	0	-1e10	8	-1e10	8	-1E+10	1	-1E+10	1	-1E+10	1	-1E+10	1	-1E+10	1	-1E+10	1
4902554	97	C	10/16/2023	02:03	-133.628	47.814	0	26.90	0	13.8590	0	32.3890	0	24.200	0	26.673	0	-1e10	8	-1e10	8	-1E+10	1	-1E+10	1	-1E+10	1	-1E+10	1	-1E+10	1	-1E+10	1
4902554	97	C	10/16/2023	02:03	-133.628	47.814	0	27.90	0	13.8590	0	32.3880	0	24.200	0	27.664	0	-1e10	8	-1e10	8	-1E+10	1	-1E+10	1	-1E+10	1	-1E+10	1	-1E+10	1	-1E+10	1
4902554	97	C	10/16/2023	02:03	-133.628	47.814	0	28.80	0	13.8590	0	32.3880	0	24.200	0	28.557	0	-1e10	8	-1e10	8	-1E+10	1	-1E+10	1	-1E+10	1	-1E+10	1	-1E+10	1	-1E+10	1
4902554	97	C	10/16/2023	02:03	-133.628	47.814	0	29.80	0	13.8590	0	32.3880	0	24.200	0	29.548	0	-1e10	8	-1e10	8	-1E+10	1	-1E+10	1	-1E+10	1	-1E+10	1	-1E+10	1	-1E+10	1
4902554	97	C	10/16/2023	02:03	-133.628	47.814	0	30.90	0	13.8580	0	32.3880	0	24.200	0	30.639	0	-1e10	8	-1e10	8	-1E+10	1	-1E+10	1	-1E+10	1	-1E+10	1	-1E+10	1	-1E+10	1
4902554	97	C	10/16/2023	02:03	-133.628	47.814	0	32.10	0	13.8520	0	32.3870	0	24.200	0	31.829	0	-1e10	8	-1e10	8	-1E+10	1	-1E+10	1	-1E+10	1	-1E+10	1	-1E+10	1	-1E+10	1
4902554	97	C	10/16/2023	02:03	-133.628	47.814	0	32.90	0	13.8270	0	32.3890	0	24.207	0	32.622	0	-1e10	8	-1e10	8	-1E+10	1	-1E+10	1	-1E+10	1	-1E+10	1	-1E+10	1	-1E+10	1
4902554	97	C	10/16/2023	02:03	-133.628	47.814	0	34.10	0	13.7560	0	32.3850	0	24.219	0	33.812	0	-1e10	8	-1e10	8	-1E+10	1	-1E+10	1	-1E+10	1	-1E+10	1	-1E+10	1	-1E+10	1
4902554	97	C	10/16/2023	02:03	-133.628	47.814	0	34.90	0	13.6530	0	32.3960	0	24.248	0	34.605	0	-1e10	8	-1e10	8	-1E+10	1	-1E+10	1	-1E+10	1	-1E+10	1	-1E+10	1	-1E+10	1
4902554	97	C	10/16/2023	02:03	-133.628	47.814	0	36.10	0	13.5780	0	32.3900	0	24.258	0	35.795	0	-1e10	8	-1e10	8	-1E+10	1	-1E+10	1	-1E+10	1	-1E+10	1	-1E+10	1	-1E+10	1
4902554	97	C	10/16/2023	02:03	-133.628	47.814	0	36.90	0	13.4100	0	32.3900	0	24.292	0	36.588	0	-1e10	8	-1e10	8	-1E+10	1	-1E+10	1	-1E+10	1	-1E+10	1	-1E+10	1	-1E+10	1
4902554	97	C	10/16/2023	02:03	-133.628	47.814	0	38.00	0	13.2130	0	32.4050	0	24.343	0	37.678	0	-1e10	8	-1e10	8	-1E+10	1	-1E+10	1	-1E+10	1	-1E+10	1	-1E+10	1	-1E+10	1
4902554	97	C	10/16/2023	02:03	-133.628	47.814	0	38.90	0	13.1320	0	32.3940	0	24.350	0	38.571	0	-1e10	8	-1e10	8	-1E+10	1	-1E+10	1	-1E+10	1	-1E+10	1	-1E+10	1	-1E+10	1
4902554	97	C	10/16/2023	02:03	-133.628	47.814	0	40.10	0	12.9400	0	32.3970	0	24.390	0	39.760	0	-1e10	8	-1e10	8	-1E+10	1	-1E+10	1	-1E+10	1	-1E+10	1	-1E+10	1	-1E+10	1
4902554	97	C	10/16/2023	02:03	-133.628	47.814	0	40.80	0	12.7900	0	32.4040	0	24.425	0	40.454	0	-1e10	8	-1e10	8	-1E+10	1	-1E+10	1	-1E+10	1	-1E+10	1	-1E+10	1	-1E+10	1
4902554	97	C	10/16/2023	02:03	-133.628	47.814	0	42.10	0	12.5590	0	32.4060	0	24.471	0	41.743	0	-1e10	8	-1e10	8	-1E+10	1	-1E+10	1	-1E+10	1	-1E+10	1	-1E+10	1	-1E+10	1
4902554	97	C	10/16/2023	02:03	-133.628	47.814	0	43.10	0	12.2360	0	32.4020	0	24.529	0	42.735	0	-1e10	8	-1e10	8	-1E+10	1	-1E+10	1	-1E+10	1	-1E+10	1	-1E+10	1	-1E+10	1
4902554	97	C	10/16/2023	02:03	-133.628	47.814	0	43.90	0	11.9670	0	32.4060	0	24.583	0	43.528	0	-1e10	8	-1e10	8	-1E+10	1	-1E+10	1	-1E+10	1	-1E+10	1	-1E+10	1	-1E+10	1
4902554	97	C	10/16/2023	02:03	-133.628	47.814	0	45.00	0	11.6470	0	32.4010	0	24.638	0	44.618	0	-1e10	8	-1e10	8	-1E+10	1	-1E+10	1	-1E+10	1	-1E+10	1	-1E+10	1	-1E+10	1
4902554	97	C	10/16/2023	02:03	-133.628	47.814	0	46.00	0	11.0100	0	32.4360	0	24.779	0	45.610	0	-1e10	8	-1e10	8	-1E+10	1	-1E+10	1	-1E+10	1	-1E+10	1	-1E+10	1	-1E+10	1
4902554	97	C	10/16/2023	02:03	-133.628	47.814	0	47.00	0	10.4620	0	32.4070	0	24.851	0	46.601	0	-1e10	8	-1e10	8	-1E+10	1	-1E+10	1	-1E+10	1	-1E+10	1	-1E+10	1	-1E+10	1
4902554	97	C	10/16/2023	02:03	-133.628	47.814	0	48.20	0	9.8060	0	32.4270	0	24.977	0	47.791	0	-1e10	8	-1e10	8	-1E+10	1	-1E+10	1	-1E+10	1	-1E+10	1	-1E+10	1	-1E+10	1
4902554	97	C	10/16/2023	02:03	-133.628	47.814	0	49.10	0	9.6000	0	32.4240	0	25.008	0	48.683	0	-1e10	8	-1e10	8	-1E+10	1	-1E+10	1	-1E+10	1	-1E+10	1	-1E+10	1	-1E+10	1
4902554	97	C	10/16/2023	02:03	-133.628	47.814	0	49.90	0	9.3770	0	32.4320	0	25.050	0	49.476	0	-1e10	8	-1e10	8	-1E+10	1	-1E+10	1	-1E+10	1	-1E+10	1	-1E+10	1	-1E+10	1
4902554	97	C	10/16/2023	02:03	-133.628	47.814	0	51.30	0	9.0320	0	32.4410	0	25.111	0	50.864	0	-1e10	8	-1e10	8	-1E+10	1	-1E+10	1	-1E+10	1	-1E+10	1	-1E+10	1	-1E+10	1
4902554	97	C	10/16/2023	02:03	-133.628	47.814	0	52.20	0	8.8620	0	32.4760	0	25.165	0	51.756	0	-1e10	8	-1e10	8	-1E+10	1	-1E+10	1	-1E+10	1	-1E+10	1	-1E+10	1	-1E+10	1
4902554	97	C	10/16/2023	02:03	-133.628	47.814	0	53.00	0	8.4850	0	32.4470	0	25.199	0	52.549	0	-1e10	8	-1e10	8	-1E+10	1	-1E+10	1	-1E+10	1	-1E+10	1	-1E+10	1	-1E+10	1
4902554	97	C	10/16/2023	02:03	-133.628	47.814	0	53.90	0	8.2190	0	32.4540	0	25.244	0	53.442	0	-1e10	8	-1e10	8	-1E+10	1	-1E+10	1	-1E+10	1	-1E+10	1	-1E+10	1	-1E+10	1
4902554	97	C	10/16/2023	02:03	-133.628	47.814	0	55.10	0	8.0550	0	32.4470	0	25.262	0	54.631	0	-1e10	8	-1e10	8	-1E+10	1	-1E+10	1	-1E+10	1	-1E+10	1	-1E+10	1	-1E+10	1
4902554	97	C	10/16/2023	02:03	-133.628	47.814	0	56.00	0	7.8620	0	32.4540	0	25.296	0	55.523	0	-1e10	8	-1e10	8	-1E+10	1	-1E+10	1	-1E+10	1	-1E+10	1	-1E+10	1	-1E+10	1
4902554	97	C	10/16/2023	02:03	-133.628	47.814	0	56.80	0	7.8150	0	32.4530	0	25.302	0	56.317	0	-1e10	8	-1e10	8	-1E+10	1	-1E+10	1	-1E+10	1	-1E+10	1	-1E+10	1	-1E+10	1
4902554	97	C	10/16/2023	02:03	-133.628	47.814	0	58.00	0	7.7360	0	32.4580	0	25.317	0	57.506	0	-1e10	8	-1e10	8	-1E+10	1	-1E+10	1	-1E+10	1	-1E+10	1	-1E+10	1	-1E+10	1
4902554	97	C	10/16/2023	02:03	-133.628	47.814	0	59.00	0	7.7130	0	32.4670	0	25.327	0	58.498	0	-1e10	8	-1e10	8	-1E+10	1	-1E+10	1	-1E+10	1	-1E+10	1	-1E+10	1	-1E+10	1
4902554	97	C	10/16/2023	02:03	-133.628	47.814	0	59.90	0	7.6510	0	32.4720	0	25.340	0	59.390	0	-1e10	8	-1e10	8	-1E+10	1	-1E+10	1	-1E+10	1	-1E+10	1	-1E+10	1	-1E+10	1
4902554	97	C	10/16/2023	02:03	-133.628	47.814	0	61.10	0	7.6040	0	32.4710	0	25.346	0	60.579	0	-1e10	8	-1e10	8	-1E+10	1	-1E+10	1	-1E+10	1	-1E+10	1	-1E+10	1	-1E+10	1
4902554	97	C	10/16/2023	02:03	-133.628	47.814	0	62.00	0	7.5390	0	32.4640	0	25.349	0	61.472	0	-1e10	8	-1e10	8	-1E+10	1	-1E+10	1	-1E+10	1	-1E+10	1	-1E+10	1	-1E+10	1
4902554	97	C	10/16/2023	02:03	-133.628	47.814	0	62.90	0	7.5250	0	32.4650	0	25.352	0	62.364	0	-1e10	8	-1e10	8	-1E+10	1	-1E+10	1	-1E+10	1	-1E+10	1	-1E+10	1	-1E+10	1
4902554	97	C	10/16/2023	02:03	-133.628	47.814	0	63.90	0	7.4850	0	32.4600	0	25.353	0	63.355	0	-1e10	8	-1e10	8	-1E+10	1	-1E+10	1	-1E+10	1	-1E+10	1	-1E+10	1	-1E+10	1
4902554	97	C	10/16/2023	02:03	-133.628	47.814	0	65.00	0	7.4340	0	32.4630	0	25.363	0	64.446	0	-1e10	8	-1e10	8	-1E+10	1	-1E+10	1	-1E+10	1	-1E+10	1	-1E+10	1	-1E+10	1
4902554	97	C	10/16/2023	02:03	-133.628	47.814	0	66.20	0	7.3900	0	32.4600	0	25.367	0	65.635	0	-1e10	8	-1e10	8	-1E+10	1	-1E+10	1	-1E+10	1	-1E+10	1	-1E+10	1	-1E+10	1
4902554	97	C	10/16/2023	02:03	-133.628	47.814	0	67.00	0	7.4100	0	32.4670	0	25.369	0	66.428	0	-1e10	8	-1e10	8	-1E+10	1	-1E+10	1	-1E+10	1	-1E+10	1	-1E+10	1	-1E+10	1
4902554	97	C	10/16/2023	02:03	-133.628	47.814	0	68.10	0	7.4240	0	32.4710	0	25.371	0	67.519	0	-1e10	8	-1e10	8	-1E+10	1	-1E+10	1	-1E+10	1	-1E+10	1	-1E+10	1	-1E+10	1
4902554	97	C	10/16/2023	02:03	-133.628	47.814	0	69.20	0	7.4130	0	32.4700	0	25.371	0	68.609	0	-1e10	8	-1e10	8	-1E+10	1	-1E+10	1	-1E+10	1	-1E+10	1	-1E+10	1	-1E+10	1
4902554	97	C	10/16/2023	02:03	-133.628	47.814	0	69.90	0	7.3480	0	32.4670	0	25.378	0	69.303	0	-1e10	8	-1e10	8	-1E+10	1	-1E+10	1	-1E+10	1	-1E+10	1	-1E+10	1	-1E+10	1
4902554	97	C	10/16/2023	02:03	-133.628	47.814	0	70.80	0	7.2760	0	32.4640	0	25.385	0	70.195	0	-1e10	8	-1e10	8	-1E+10	1	-1E+10	1	-1E+10	1	-1E+10	1	-1E+10	1	-1E+10	1
4902554	97	C	10/16/2023	02:03	-133.628	47.814	0	71.80	0	7.2700	0	32.4690	0	25.390	0	71.186	0	-1e10	8	-1e10	8	-1E+10	1	-1E+10	1	-1E+10	1	-1E+10	1	-1E+10	1	-1E+10	1
4902554	97	C	10/16/2023	02:03	-133.628	47.814	0	72.80	0	7.3040	0	32.4780	0	25.393	0	72.178	0	-1e10	8	-1e10	8	-1E+10	1	-1E+10	1	-1E+10	1	-1E+10	1	-1E+10	1	-1E+10	1
4902554	97	C	10/16/2023	02:03	-133.628	47.814	0	73.80	0	7.3370	0	32.4860	0	25.394	0	73.169	0	-1e10	8	-1e10	8	-1E+10	1	-1E+10	1	-1E+10	1	-1E+10	1	-1E+10	1	-1E+10	1
4902554	97	C	10/16/2023	02:03	-133.628	47.814	0	74.80	0	7.3340	0	32.4890	0	25.397	0	74.160	0	-1e10	8	-1e10	8	-1E+10	1	-1E+10	1	-1E+10	1	-1E+10	1	-1E+10	1	-1E+10	1
4902554	97	C	10/16/2023	02:03	-133.628	47.814	0	75.80	0	7.3400	0	32.4910	0	25.398	0	75.151	0	-1e10	8	-1e10	8	-1E+10	1	-1E+10	1	-1E+10	1	-1E+10	1	-1E+10	1	-1E+10	1
4902554	97	C	10/16/2023	02:03	-133.628	47.814	0	77.10	0	7.3330	0	32.4920	0	25.400	0	76.440	0	-1e10	8	-1e10	8	-1E+10	1	-1E+10	1	-1E+10	1	-1E+10	1	-1E+10	1	-1E+10	1
4902554	97	C	10/16/2023	02:03	-133.628	47.814	0	78.10	0	7.3350	0	32.4930	0	25.400	0	77.431	0	-1e10	8	-1e10	8	-1E+10	1	-1E+10	1	-1E+10	1	-1E+10	1	-1E+10	1	-1E+10	1
4902554	97	C	10/16/2023	02:03	-133.628	47.814	0	78.80	0	7.3300	0	32.4950	0	25.403	0	78.125	0	-1e10	8	-1e10	8	-1E+10	1	-1E+10	1	-1E+10	1	-1E+10	1	-1E+10	1	-1E+10	1
4902554	97	C	10/16/2023	02:03	-133.628	47.814	0	80.00	0	7.3210	0	32.4950	0	25.404	0	79.315	0	-1e10	8	-1e10	8	-1E+10	1	-1E+10	1	-1E+10	1	-1E+10	1	-1E+10	1	-1E+10	1
4902554	97	C	10/16/2023	02:03	-133.628	47.814	0	80.90	0	7.3160	0	32.4960	0	25.405	0	80.207	0	-1e10	8	-1e10	8	-1E+10	1	-1E+10	1	-1E+10	1	-1E+10	1	-1E+10	1	-1E+10	1
4902554	97	C	10/16/2023	02:03	-133.628	47.814	0	82.30	0	7.3110	0	32.4970	0	25.407	0	81.595	0	-1e10	8	-1e10	8	-1E+10	1	-1E+10	1	-1E+10	1	-1E+10	1	-1E+10	1	-1E+10	1
4902554	97	C	10/16/2023	02:03	-133.628	47.814	0	83.20	0	7.3130	0	32.4990	0	25.408	0	82.487	0	-1e10	8	-1e10	8	-1E+10	1	-1E+10	1	-1E+10	1	-1E+10	1	-1E+10	1	-1E+10	1
4902554	97	C	10/16/2023	02:03	-133.628	47.814	0	84.10	0	7.3190	0	32.5020	0	25.410	0	83.379	0	-1e10	8	-1e10	8	-1E+10	1	-1E+10	1	-1E+10	1	-1E+10	1	-1E+10	1	-1E+10	1
4902554	97	C	10/16/2023	02:03	-133.628	47.814	0	85.00	0	7.3160	0	32.5030	0	25.411	0	84.271	0	-1e10	8	-1e10	8	-1E+10	1	-1E+10	1	-1E+10	1	-1E+10	1	-1E+10	1	-1E+10	1
4902554	97	C	10/16/2023	02:03	-133.628	47.814	0	86.20	0	7.3100	0	32.5030	0	25.412	0	85.460	0	-1e10	8	-1e10	8	-1E+10	1	-1E+10	1	-1E+10	1	-1E+10	1	-1E+10	1	-1E+10	1
4902554	97	C	10/16/2023	02:03	-133.628	47.814	0	87.10	0	7.2910	0	32.5020	0	25.413	0	86.352	0	-1e10	8	-1e10	8	-1E+10	1	-1E+10	1	-1E+10	1	-1E+10	1	-1E+10	1	-1E+10	1
4902554	97	C	10/16/2023	02:03	-133.628	47.814	0	87.90	0	7.2330	0	32.4960	0	25.417	0	87.145	0	-1e10	8	-1e10	8	-1E+10	1	-1E+10	1	-1E+10	1	-1E+10	1	-1E+10	1	-1E+10	1
4902554	97	C	10/16/2023	02:03	-133.628	47.814	0	89.10	0	7.1370	0	32.4980	0	25.431	0	88.335	0	-1e10	8	-1e10	8	-1E+10	1	-1E+10	1	-1E+10	1	-1E+10	1	-1E+10	1	-1E+10	1
4902554	97	C	10/16/2023	02:03	-133.628	47.814	0	90.00	0	7.1330	0	32.4910	0	25.426	0	89.227	0	-1e10	8	-1e10	8	-1E+10	1	-1E+10	1	-1E+10	1	-1E+10	1	-1E+10	1	-1E+10	1
4902554	97	C	10/16/2023	02:03	-133.628	47.814	0	91.20	0	7.1440	0	32.4950	0	25.428	0	90.416	0	-1e10	8	-1e10	8	-1E+10	1	-1E+10	1	-1E+10	1	-1E+10	1	-1E+10	1	-1E+10	1
4902554	97	C	10/16/2023	02:03	-133.628	47.814	0	92.00	0	7.1580	0	32.5160	0	25.443	0	91.209	0	-1e10	8	-1e10	8	-1E+10	1	-1E+10	1	-1E+10	1	-1E+10	1	-1E+10	1	-1E+10	1
4902554	97	C	10/16/2023	02:03	-133.628	47.814	0	93.20	0	7.1670	0	32.5410	0	25.461	0	92.399	0	-1e10	8	-1e10	8	-1E+10	1	-1E+10	1	-1E+10	1	-1E+10	1	-1E+10	1	-1E+10	1
4902554	97	C	10/16/2023	02:03	-133.628	47.814	0	93.80	0	7.1950	0	32.5500	0	25.464	0	92.993	0	-1e10	8	-1e10	8	-1E+10	1	-1E+10	1	-1E+10	1	-1E+10	1	-1E+10	1	-1E+10	1
4902554	97	C	10/16/2023	02:03	-133.628	47.814	0	94.90	0	7.2080	0	32.5680	0	25.477	0	94.084	0	-1e10	8	-1e10	8	-1E+10	1	-1E+10	1	-1E+10	1	-1E+10	1	-1E+10	1	-1E+10	1
4902554	97	C	10/16/2023	02:03	-133.628	47.814	0	96.20	0	7.1510	0	32.5710	0	25.487	0	95.372	0	-1e10	8	-1e10	8	-1E+10	1	-1E+10	1	-1E+10	1	-1E+10	1	-1E+10	1	-1E+10	1
4902554	97	C	10/16/2023	02:03	-133.628	47.814	0	96.80	0	7.0860	0	32.6020	0	25.520	0	95.967	0	-1e10	8	-1e10	8	-1E+10	1	-1E+10	1	-1E+10	1	-1E+10	1	-1E+10	1	-1E+10	1
4902554	97	C	10/16/2023	02:03	-133.628	47.814	0	97.90	0	7.0870	0	32.6580	0	25.564	0	97.057	0	-1e10	8	-1e10	8	-1E+10	1	-1E+10	1	-1E+10	1	-1E+10	1	-1E+10	1	-1E+10	1
4902554	97	C	10/16/2023	02:03	-133.628	47.814	0	98.80	0	7.0250	0	32.7060	0	25.610	0	97.949	0	-1e10	8	-1e10	8	-1E+10	1	-1E+10	1	-1E+10	1	-1E+10	1	-1E+10	1	-1E+10	1
4902554	97	C	10/16/2023	02:03	-133.628	47.814	0	100.10	0	6.9550	0	32.7420	0	25.648	0	99.238	0	-1e10	8	-1e10	8	-1E+10	1	-1E+10	1	-1E+10	1	-1E+10	1	-1E+10	1	-1E+10	1
4902554	97	C	10/16/2023	02:03	-133.628	47.814	0	101.00	0	6.9220	0	32.7660	0	25.671	0	100.130	0	-1e10	8	-1e10	8	-1E+10	1	-1E+10	1	-1E+10	1	-1E+10	1	-1E+10	1	-1E+10	1
4902554	97	C	10/16/2023	02:03	-133.628	47.814	0	102.10	0	6.8640	0	32.8010	0	25.706	0	101.220	0	-1e10	8	-1e10	8	-1E+10	1	-1E+10	1	-1E+10	1	-1E+10	1	-1E+10	1	-1E+10	1
4902554	97	C	10/16/2023	02:03	-133.628	47.814	0	103.00	0	6.8240	0	32.8520	0	25.752	0	102.112	0	-1e10	8	-1e10	8	-1E+10	1	-1E+10	1	-1E+10	1	-1E+10	1	-1E+10	1	-1E+10	1
4902554	97	C	10/16/2023	02:03	-133.628	47.814	0	104.10	0	6.8070	0	32.8730	0	25.771	0	103.202	0	-1e10	8	-1e10	8	-1E+10	1	-1E+10	1	-1E+10	1	-1E+10	1	-1E+10	1	-1E+10	1
4902554	97	C	10/16/2023	02:03	-133.628	47.814	0	105.20	0	6.7990	0	32.8840	0	25.780	0	104.292	0	-1e10	8	-1e10	8	-1E+10	1	-1E+10	1	-1E+10	1	-1E+10	1	-1E+10	1	-1E+10	1
4902554	97	C	10/16/2023	02:03	-133.628	47.814	0	105.80	0	6.7860	0	32.8910	0	25.788	0	104.887	0	-1e10	8	-1e10	8	-1E+10	1	-1E+10	1	-1E+10	1	-1E+10	1	-1E+10	1	-1E+10	1
4902554	97	C	10/16/2023	02:03	-133.628	47.814	0	106.90	0	6.7660	0	32.9060	0	25.802	0	105.977	0	-1e10	8	-1e10	8	-1E+10	1	-1E+10	1	-1E+10	1	-1E+10	1	-1E+10	1	-1E+10	1
4902554	97	C	10/16/2023	02:03	-133.628	47.814	0	108.10	0	6.7530	0	32.9150	0	25.811	0	107.167	0	-1e10	8	-1e10	8	-1E+10	1	-1E+10	1	-1E+10	1	-1E+10	1	-1E+10	1	-1E+10	1
4902554	97	C	10/16/2023	02:03	-133.628	47.814	0	109.00	0	6.7070	0	32.9490	0	25.844	0	108.059	0	-1e10	8	-1e10	8	-1E+10	1	-1E+10	1	-1E+10	1	-1E+10	1	-1E+10	1	-1E+10	1
4902554	97	C	10/16/2023	02:03	-133.628	47.814	0	109.70	0	6.6670	0	32.9750	0	25.869	0	108.752	0	-1e10	8	-1e10	8	-1E+10	1	-1E+10	1	-1E+10	1	-1E+10	1	-1E+10	1	-1E+10	1
4902554	97	C	10/16/2023	02:03	-133.628	47.814	0	110.80	0	6.6390	0	32.9940	0	25.888	0	109.843	0	-1e10	8	-1e10	8	-1E+10	1	-1E+10	1	-1E+10	1	-1E+10	1	-1E+10	1	-1E+10	1
4902554	97	C	10/16/2023	02:03	-133.628	47.814	0	111.90	0	6.5860	0	33.0340	0	25.927	0	110.933	0	-1e10	8	-1e10	8	-1E+10	1	-1E+10	1	-1E+10	1	-1E+10	1	-1E+10	1	-1E+10	1
4902554	97	C	10/16/2023	02:03	-133.628	47.814	0	112.90	0	6.5480	0	33.0570	0	25.950	0	111.924	0	-1e10	8	-1e10	8	-1E+10	1	-1E+10	1	-1E+10	1	-1E+10	1	-1E+10	1	-1E+10	1
4902554	97	C	10/16/2023	02:03	-133.628	47.814	0	113.80	0	6.5260	0	33.0710	0	25.963	0	112.816	0	-1e10	8	-1e10	8	-1E+10	1	-1E+10	1	-1E+10	1	-1E+10	1	-1E+10	1	-1E+10	1
4902554	97	C	10/16/2023	02:03	-133.628	47.814	0	115.00	0	6.5030	0	33.0840	0	25.977	0	114.005	0	-1e10	8	-1e10	8	-1E+10	1	-1E+10	1	-1E+10	1	-1E+10	1	-1E+10	1	-1E+10	1
4902554	97	C	10/16/2023	02:03	-133.628	47.814	0	116.10	0	6.4870	0	33.0930	0	25.986	0	115.095	0	-1e10	8	-1e10	8	-1E+10	1	-1E+10	1	-1E+10	1	-1E+10	1	-1E+10	1	-1E+10	1
4902554	97	C	10/16/2023	02:03	-133.628	47.814	0	117.00	0	6.4810	0	33.0960	0	25.989	0	115.987	0	-1e10	8	-1e10	8	-1E+10	1	-1E+10	1	-1E+10	1	-1E+10	1	-1E+10	1	-1E+10	1
4902554	97	C	10/16/2023	02:03	-133.628	47.814	0	117.90	0	6.4650	0	33.1100	0	26.002	0	116.879	0	-1e10	8	-1e10	8	-1E+10	1	-1E+10	1	-1E+10	1	-1E+10	1	-1E+10	1	-1E+10	1
4902554	97	C	10/16/2023	02:03	-133.628	47.814	0	118.90	0	6.4460	0	33.1210	0	26.013	0	117.870	0	-1e10	8	-1e10	8	-1E+10	1	-1E+10	1	-1E+10	1	-1E+10	1	-1E+10	1	-1E+10	1
4902554	97	C	10/16/2023	02:03	-133.628	47.814	0	119.80	0	6.3940	0	33.1380	0	26.033	0	118.762	0	-1e10	8	-1e10	8	-1E+10	1	-1E+10	1	-1E+10	1	-1E+10	1	-1E+10	1	-1E+10	1
4902554	97	C	10/16/2023	02:03	-133.628	47.814	0	121.00	0	6.3420	0	33.1670	0	26.063	0	119.952	0	-1e10	8	-1e10	8	-1E+10	1	-1E+10	1	-1E+10	1	-1E+10	1	-1E+10	1	-1E+10	1
4902554	97	C	10/16/2023	02:03	-133.628	47.814	0	122.00	0	6.3340	0	33.1710	0	26.067	0	120.943	0	-1e10	8	-1e10	8	-1E+10	1	-1E+10	1	-1E+10	1	-1E+10	1	-1E+10	1	-1E+10	1
4902554	97	C	10/16/2023	02:03	-133.628	47.814	0	123.00	0	6.3080	0	33.1830	0	26.080	0	121.934	0	-1e10	8	-1e10	8	-1E+10	1	-1E+10	1	-1E+10	1	-1E+10	1	-1E+10	1	-1E+10	1
4902554	97	C	10/16/2023	02:03	-133.628	47.814	0	124.10	0	6.2240	0	33.2130	0	26.114	0	123.024	0	-1e10	8	-1e10	8	-1E+10	1	-1E+10	1	-1E+10	1	-1E+10	1	-1E+10	1	-1E+10	1
4902554	97	C	10/16/2023	02:03	-133.628	47.814	0	124.80	0	6.1980	0	33.2360	0	26.136	0	123.717	0	-1e10	8	-1e10	8	-1E+10	1	-1E+10	1	-1E+10	1	-1E+10	1	-1E+10	1	-1E+10	1
4902554	97	C	10/16/2023	02:03	-133.628	47.814	0	125.90	0	6.1760	0	33.2540	0	26.153	0	124.808	0	-1e10	8	-1e10	8	-1E+10	1	-1E+10	1	-1E+10	1	-1E+10	1	-1E+10	1	-1E+10	1
4902554	97	C	10/16/2023	02:03	-133.628	47.814	0	127.00	0	6.1640	0	33.2650	0	26.163	0	125.898	0	-1e10	8	-1e10	8	-1E+10	1	-1E+10	1	-1E+10	1	-1E+10	1	-1E+10	1	-1E+10	1
4902554	97	C	10/16/2023	02:03	-133.628	47.814	0	128.00	0	6.1630	0	33.2650	0	26.163	0	126.889	0	-1e10	8	-1e10	8	-1E+10	1	-1E+10	1	-1E+10	1	-1E+10	1	-1E+10	1	-1E+10	1
4902554	97	C	10/16/2023	02:03	-133.628	47.814	0	129.10	0	6.1620	0	33.2660	0	26.164	0	127.979	0	-1e10	8	-1e10	8	-1E+10	1	-1E+10	1	-1E+10	1	-1E+10	1	-1E+10	1	-1E+10	1
4902554	97	C	10/16/2023	02:03	-133.628	47.814	0	129.80	0	6.1480	0	33.2780	0	26.175	0	128.673	0	-1e10	8	-1e10	8	-1E+10	1	-1E+10	1	-1E+10	1	-1E+10	1	-1E+10	1	-1E+10	1
4902554	97	C	10/16/2023	02:03	-133.628	47.814	0	130.80	0	6.1280	0	33.2930	0	26.189	0	129.664	0	-1e10	8	-1e10	8	-1E+10	1	-1E+10	1	-1E+10	1	-1E+10	1	-1E+10	1	-1E+10	1
4902554	97	C	10/16/2023	02:03	-133.628	47.814	0	132.00	0	6.0980	0	33.3170	0	26.212	0	130.853	0	-1e10	8	-1e10	8	-1E+10	1	-1E+10	1	-1E+10	1	-1E+10	1	-1E+10	1	-1E+10	1
4902554	97	C	10/16/2023	02:03	-133.628	47.814	0	132.80	0	6.0930	0	33.3220	0	26.217	0	131.646	0	-1e10	8	-1e10	8	-1E+10	1	-1E+10	1	-1E+10	1	-1E+10	1	-1E+10	1	-1E+10	1
4902554	97	C	10/16/2023	02:03	-133.628	47.814	0	133.90	0	6.0630	0	33.3370	0	26.232	0	132.736	0	-1e10	8	-1e10	8	-1E+10	1	-1E+10	1	-1E+10	1	-1E+10	1	-1E+10	1	-1E+10	1
4902554	97	C	10/16/2023	02:03	-133.628	47.814	0	135.20	0	6.0380	0	33.3570	0	26.251	0	134.024	0	-1e10	8	-1e10	8	-1E+10	1	-1E+10	1	-1E+10	1	-1E+10	1	-1E+10	1	-1E+10	1
4902554	97	C	10/16/2023	02:03	-133.628	47.814	0	136.00	0	6.0200	0	33.3720	0	26.265	0	134.817	0	-1e10	8	-1e10	8	-1E+10	1	-1E+10	1	-1E+10	1	-1E+10	1	-1E+10	1	-1E+10	1
4902554	97	C	10/16/2023	02:03	-133.628	47.814	0	136.70	0	6.0330	0	33.3730	0	26.265	0	135.510	0	-1e10	8	-1e10	8	-1E+10	1	-1E+10	1	-1E+10	1	-1E+10	1	-1E+10	1	-1E+10	1
4902554	97	C	10/16/2023	02:03	-133.628	47.814	0	138.00	0	6.0120	0	33.4100	0	26.296	0	136.799	0	-1e10	8	-1e10	8	-1E+10	1	-1E+10	1	-1E+10	1	-1E+10	1	-1E+10	1	-1E+10	1
4902554	97	C	10/16/2023	02:03	-133.628	47.814	0	139.20	0	6.0040	0	33.4270	0	26.311	0	137.988	0	-1e10	8	-1e10	8	-1E+10	1	-1E+10	1	-1E+10	1	-1E+10	1	-1E+10	1	-1E+10	1
4902554	97	C	10/16/2023	02:03	-133.628	47.814	0	140.10	0	5.9970	0	33.4340	0	26.317	0	138.880	0	-1e10	8	-1e10	8	-1E+10	1	-1E+10	1	-1E+10	1	-1E+10	1	-1E+10	1	-1E+10	1
4902554	97	C	10/16/2023	02:03	-133.628	47.814	0	140.90	0	5.9920	0	33.4390	0	26.322	0	139.672	0	-1e10	8	-1e10	8	-1E+10	1	-1E+10	1	-1E+10	1	-1E+10	1	-1E+10	1	-1E+10	1
4902554	97	C	10/16/2023	02:03	-133.628	47.814	0	141.80	0	5.9810	0	33.4500	0	26.332	0	140.564	0	-1e10	8	-1e10	8	-1E+10	1	-1E+10	1	-1E+10	1	-1E+10	1	-1E+10	1	-1E+10	1
4902554	97	C	10/16/2023	02:03	-133.628	47.814	0	142.60	0	5.9700	0	33.4630	0	26.344	0	141.357	0	-1e10	8	-1e10	8	-1E+10	1	-1E+10	1	-1E+10	1	-1E+10	1	-1E+10	1	-1E+10	1
4902554	97	C	10/16/2023	02:03	-133.628	47.814	0	143.90	0	5.9540	0	33.4780	0	26.357	0	142.645	0	-1e10	8	-1e10	8	-1E+10	1	-1E+10	1	-1E+10	1	-1E+10	1	-1E+10	1	-1E+10	1
4902554	97	C	10/16/2023	02:03	-133.628	47.814	0	145.20	0	5.9370	0	33.4960	0	26.374	0	143.933	0	-1e10	8	-1e10	8	-1E+10	1	-1E+10	1	-1E+10	1	-1E+10	1	-1E+10	1	-1E+10	1
4902554	97	C	10/16/2023	02:03	-133.628	47.814	0	146.10	0	5.9300	0	33.4990	0	26.377	0	144.825	0	-1e10	8	-1e10	8	-1E+10	1	-1E+10	1	-1E+10	1	-1E+10	1	-1E+10	1	-1E+10	1
4902554	97	C	10/16/2023	02:03	-133.628	47.814	0	147.00	0	5.9240	0	33.5080	0	26.385	0	145.717	0	-1e10	8	-1e10	8	-1E+10	1	-1E+10	1	-1E+10	1	-1E+10	1	-1E+10	1	-1E+10	1
4902554	97	C	10/16/2023	02:03	-133.628	47.814	0	147.90	0	5.9230	0	33.5120	0	26.388	0	146.609	0	-1e10	8	-1e10	8	-1E+10	1	-1E+10	1	-1E+10	1	-1E+10	1	-1E+10	1	-1E+10	1
4902554	97	C	10/16/2023	02:03	-133.628	47.814	0	148.80	0	5.9220	0	33.5140	0	26.390	0	147.501	0	-1e10	8	-1e10	8	-1E+10	1	-1E+10	1	-1E+10	1	-1E+10	1	-1E+10	1	-1E+10	1
4902554	97	C	10/16/2023	02:03	-133.628	47.814	0	149.60	0	5.9160	0	33.5220	0	26.397	0	148.293	0	-1e10	8	-1e10	8	-1E+10	1	-1E+10	1	-1E+10	1	-1E+10	1	-1E+10	1	-1E+10	1
4902554	97	C	10/16/2023	02:03	-133.628	47.814	0	150.90	0	5.9060	0	33.5320	0	26.406	0	149.582	0	-1e10	8	-1e10	8	-1E+10	1	-1E+10	1	-1E+10	1	-1E+10	1	-1E+10	1	-1E+10	1
4902554	97	C	10/16/2023	02:03	-133.628	47.814	0	152.30	0	5.8610	0	33.5520	0	26.427	0	150.969	0	-1e10	8	-1e10	8	-1E+10	1	-1E+10	1	-1E+10	1	-1E+10	1	-1E+10	1	-1E+10	1
4902554	97	C	10/16/2023	02:03	-133.628	47.814	0	153.20	0	5.8480	0	33.5470	0	26.425	0	151.861	0	-1e10	8	-1e10	8	-1E+10	1	-1E+10	1	-1E+10	1	-1E+10	1	-1E+10	1	-1E+10	1
4902554	97	C	10/16/2023	02:03	-133.628	47.814	0	154.20	0	5.8350	0	33.5590	0	26.436	0	152.852	0	-1e10	8	-1e10	8	-1E+10	1	-1E+10	1	-1E+10	1	-1E+10	1	-1E+10	1	-1E+10	1
4902554	97	C	10/16/2023	02:03	-133.628	47.814	0	155.10	0	5.8000	0	33.5630	0	26.444	0	153.743	0	-1e10	8	-1e10	8	-1E+10	1	-1E+10	1	-1E+10	1	-1E+10	1	-1E+10	1	-1E+10	1
4902554	97	C	10/16/2023	02:03	-133.628	47.814	0	156.00	0	5.8030	0	33.5660	0	26.446	0	154.635	0	-1e10	8	-1e10	8	-1E+10	1	-1E+10	1	-1E+10	1	-1E+10	1	-1E+10	1	-1E+10	1
4902554	97	C	10/16/2023	02:03	-133.628	47.814	0	156.90	0	5.7980	0	33.5660	0	26.446	0	155.527	0	-1e10	8	-1e10	8	-1E+10	1	-1E+10	1	-1E+10	1	-1E+10	1	-1E+10	1	-1E+10	1
4902554	97	C	10/16/2023	02:03	-133.628	47.814	0	157.80	0	5.7840	0	33.5700	0	26.451	0	156.419	0	-1e10	8	-1e10	8	-1E+10	1	-1E+10	1	-1E+10	1	-1E+10	1	-1E+10	1	-1E+10	1
4902554	97	C	10/16/2023	02:03	-133.628	47.814	0	158.80	0	5.7570	0	33.5750	0	26.458	0	157.410	0	-1e10	8	-1e10	8	-1E+10	1	-1E+10	1	-1E+10	1	-1E+10	1	-1E+10	1	-1E+10	1
4902554	97	C	10/16/2023	02:03	-133.628	47.814	0	159.70	0	5.7420	0	33.5790	0	26.463	0	158.301	0	-1e10	8	-1e10	8	-1E+10	1	-1E+10	1	-1E+10	1	-1E+10	1	-1E+10	1	-1E+10	1
4902554	97	C	10/16/2023	02:03	-133.628	47.814	0	160.60	0	5.7180	0	33.5890	0	26.474	0	159.193	0	-1e10	8	-1e10	8	-1E+10	1	-1E+10	1	-1E+10	1	-1E+10	1	-1E+10	1	-1E+10	1
4902554	97	C	10/16/2023	02:03	-133.628	47.814	0	161.60	0	5.7040	0	33.6030	0	26.487	0	160.184	0	-1e10	8	-1e10	8	-1E+10	1	-1E+10	1	-1E+10	1	-1E+10	1	-1E+10	1	-1E+10	1
4902554	97	C	10/16/2023	02:03	-133.628	47.814	0	162.60	0	5.6910	0	33.6130	0	26.496	0	161.175	0	-1e10	8	-1e10	8	-1E+10	1	-1E+10	1	-1E+10	1	-1E+10	1	-1E+10	1	-1E+10	1
4902554	97	C	10/16/2023	02:03	-133.628	47.814	0	163.50	0	5.6850	0	33.6230	0	26.505	0	162.067	0	-1e10	8	-1e10	8	-1E+10	1	-1E+10	1	-1E+10	1	-1E+10	1	-1E+10	1	-1E+10	1
4902554	97	C	10/16/2023	02:03	-133.628	47.814	0	164.50	0	5.6810	0	33.6260	0	26.508	0	163.057	0	-1e10	8	-1e10	8	-1E+10	1	-1E+10	1	-1E+10	1	-1E+10	1	-1E+10	1	-1E+10	1
4902554	97	C	10/16/2023	02:03	-133.628	47.814	0	165.50	0	5.6730	0	33.6300	0	26.512	0	164.048	0	-1e10	8	-1e10	8	-1E+10	1	-1E+10	1	-1E+10	1	-1E+10	1	-1E+10	1	-1E+10	1
4902554	97	C	10/16/2023	02:03	-133.628	47.814	0	166.50	0	5.6690	0	33.6330	0	26.515	0	165.039	0	-1e10	8	-1e10	8	-1E+10	1	-1E+10	1	-1E+10	1	-1E+10	1	-1E+10	1	-1E+10	1
4902554	97	C	10/16/2023	02:03	-133.628	47.814	0	167.50	0	5.6720	0	33.6440	0	26.523	0	166.030	0	-1e10	8	-1e10	8	-1E+10	1	-1E+10	1	-1E+10	1	-1E+10	1	-1E+10	1	-1E+10	1
4902554	97	C	10/16/2023	02:03	-133.628	47.814	0	168.50	0	5.6660	0	33.6610	0	26.537	0	167.021	0	-1e10	8	-1e10	8	-1E+10	1	-1E+10	1	-1E+10	1	-1E+10	1	-1E+10	1	-1E+10	1
4902554	97	C	10/16/2023	02:03	-133.628	47.814	0	169.50	0	5.6620	0	33.6640	0	26.540	0	168.012	0	-1e10	8	-1e10	8	-1E+10	1	-1E+10	1	-1E+10	1	-1E+10	1	-1E+10	1	-1E+10	1
4902554	97	C	10/16/2023	02:03	-133.628	47.814	0	170.50	0	5.6570	0	33.6670	0	26.543	0	169.002	0	-1e10	8	-1e10	8	-1E+10	1	-1E+10	1	-1E+10	1	-1E+10	1	-1E+10	1	-1E+10	1
4902554	97	C	10/16/2023	02:03	-133.628	47.814	0	171.50	0	5.6560	0	33.6700	0	26.546	0	169.993	0	-1e10	8	-1e10	8	-1E+10	1	-1E+10	1	-1E+10	1	-1E+10	1	-1E+10	1	-1E+10	1
4902554	97	C	10/16/2023	02:03	-133.628	47.814	0	172.50	0	5.6560	0	33.6700	0	26.546	0	170.984	0	-1e10	8	-1e10	8	-1E+10	1	-1E+10	1	-1E+10	1	-1E+10	1	-1E+10	1	-1E+10	1
4902554	97	C	10/16/2023	02:03	-133.628	47.814	0	173.60	0	5.6540	0	33.6720	0	26.548	0	172.074	0	-1e10	8	-1e10	8	-1E+10	1	-1E+10	1	-1E+10	1	-1E+10	1	-1E+10	1	-1E+10	1
4902554	97	C	10/16/2023	02:03	-133.628	47.814	0	174.60	0	5.6520	0	33.6740	0	26.550	0	173.065	0	-1e10	8	-1e10	8	-1E+10	1	-1E+10	1	-1E+10	1	-1E+10	1	-1E+10	1	-1E+10	1
4902554	97	C	10/16/2023	02:03	-133.628	47.814	0	175.60	0	5.6490	0	33.6760	0	26.551	0	174.055	0	-1e10	8	-1e10	8	-1E+10	1	-1E+10	1	-1E+10	1	-1E+10	1	-1E+10	1	-1E+10	1
4902554	97	C	10/16/2023	02:03	-133.628	47.814	0	176.70	0	5.6530	0	33.6790	0	26.553	0	175.145	0	-1e10	8	-1e10	8	-1E+10	1	-1E+10	1	-1E+10	1	-1E+10	1	-1E+10	1	-1E+10	1
4902554	97	C	10/16/2023	02:03	-133.628	47.814	0	177.70	0	5.6570	0	33.6800	0	26.554	0	176.136	0	-1e10	8	-1e10	8	-1E+10	1	-1E+10	1	-1E+10	1	-1E+10	1	-1E+10	1	-1E+10	1
4902554	97	C	10/16/2023	02:03	-133.628	47.814	0	178.70	0	5.6680	0	33.6850	0	26.556	0	177.127	0	-1e10	8	-1e10	8	-1E+10	1	-1E+10	1	-1E+10	1	-1E+10	1	-1E+10	1	-1E+10	1
4902554	97	C	10/16/2023	02:03	-133.628	47.814	0	179.80	0	5.6500	0	33.6880	0	26.561	0	178.217	0	-1e10	8	-1e10	8	-1E+10	1	-1E+10	1	-1E+10	1	-1E+10	1	-1E+10	1	-1E+10	1
4902554	97	C	10/16/2023	02:03	-133.628	47.814	0	180.80	0	5.6430	0	33.6880	0	26.562	0	179.207	0	-1e10	8	-1e10	8	-1E+10	1	-1E+10	1	-1E+10	1	-1E+10	1	-1E+10	1	-1E+10	1
4902554	97	C	10/16/2023	02:03	-133.628	47.814	0	181.80	0	5.6340	0	33.6900	0	26.564	0	180.198	0	-1e10	8	-1e10	8	-1E+10	1	-1E+10	1	-1E+10	1	-1E+10	1	-1E+10	1	-1E+10	1
4902554	97	C	10/16/2023	02:03	-133.628	47.814	0	182.90	0	5.6120	0	33.6950	0	26.571	0	181.288	0	-1e10	8	-1e10	8	-1E+10	1	-1E+10	1	-1E+10	1	-1E+10	1	-1E+10	1	-1E+10	1
4902554	97	C	10/16/2023	02:03	-133.628	47.814	0	183.90	0	5.5910	0	33.7000	0	26.578	0	182.279	0	-1e10	8	-1e10	8	-1E+10	1	-1E+10	1	-1E+10	1	-1E+10	1	-1E+10	1	-1E+10	1
4902554	97	C	10/16/2023	02:03	-133.628	47.814	0	184.90	0	5.5960	0	33.7030	0	26.579	0	183.269	0	-1e10	8	-1e10	8	-1E+10	1	-1E+10	1	-1E+10	1	-1E+10	1	-1E+10	1	-1E+10	1
4902554	97	C	10/16/2023	02:03	-133.628	47.814	0	186.00	0	5.5760	0	33.7030	0	26.582	0	184.359	0	-1e10	8	-1e10	8	-1E+10	1	-1E+10	1	-1E+10	1	-1E+10	1	-1E+10	1	-1E+10	1
4902554	97	C	10/16/2023	02:03	-133.628	47.814	0	187.00	0	5.5660	0	33.7050	0	26.584	0	185.350	0	-1e10	8	-1e10	8	-1E+10	1	-1E+10	1	-1E+10	1	-1E+10	1	-1E+10	1	-1E+10	1
4902554	97	C	10/16/2023	02:03	-133.628	47.814	0	188.10	0	5.5580	0	33.7080	0	26.588	0	186.440	0	-1e10	8	-1e10	8	-1E+10	1	-1E+10	1	-1E+10	1	-1E+10	1	-1E+10	1	-1E+10	1
4902554	97	C	10/16/2023	02:03	-133.628	47.814	0	189.10	0	5.5510	0	33.7150	0	26.594	0	187.431	0	-1e10	8	-1e10	8	-1E+10	1	-1E+10	1	-1E+10	1	-1E+10	1	-1E+10	1	-1E+10	1
4902554	97	C	10/16/2023	02:03	-133.628	47.814	0	190.20	0	5.5600	0	33.7150	0	26.593	0	188.520	0	-1e10	8	-1e10	8	-1E+10	1	-1E+10	1	-1E+10	1	-1E+10	1	-1E+10	1	-1E+10	1
4902554	97	C	10/16/2023	02:03	-133.628	47.814	0	191.20	0	5.5620	0	33.7180	0	26.595	0	189.511	0	-1e10	8	-1e10	8	-1E+10	1	-1E+10	1	-1E+10	1	-1E+10	1	-1E+10	1	-1E+10	1
4902554	97	C	10/16/2023	02:03	-133.628	47.814	0	192.20	0	5.5630	0	33.7200	0	26.597	0	190.502	0	-1e10	8	-1e10	8	-1E+10	1	-1E+10	1	-1E+10	1	-1E+10	1	-1E+10	1	-1E+10	1
4902554	97	C	10/16/2023	02:03	-133.628	47.814	0	193.20	0	5.5570	0	33.7220	0	26.599	0	191.492	0	-1e10	8	-1e10	8	-1E+10	1	-1E+10	1	-1E+10	1	-1E+10	1	-1E+10	1	-1E+10	1
4902554	97	C	10/16/2023	02:03	-133.628	47.814	0	194.20	0	5.5530	0	33.7220	0	26.600	0	192.483	0	-1e10	8	-1e10	8	-1E+10	1	-1E+10	1	-1E+10	1	-1E+10	1	-1E+10	1	-1E+10	1
4902554	97	C	10/16/2023	02:03	-133.628	47.814	0	195.30	0	5.5450	0	33.7200	0	26.599	0	193.573	0	-1e10	8	-1e10	8	-1E+10	1	-1E+10	1	-1E+10	1	-1E+10	1	-1E+10	1	-1E+10	1
4902554	97	C	10/16/2023	02:03	-133.628	47.814	0	196.30	0	5.5410	0	33.7190	0	26.599	0	194.564	0	-1e10	8	-1e10	8	-1E+10	1	-1E+10	1	-1E+10	1	-1E+10	1	-1E+10	1	-1E+10	1
4902554	97	C	10/16/2023	02:03	-133.628	47.814	0	197.30	0	5.5480	0	33.7140	0	26.594	0	195.554	0	-1e10	8	-1e10	8	-1E+10	1	-1E+10	1	-1E+10	1	-1E+10	1	-1E+10	1	-1E+10	1
4902554	97	C	10/16/2023	02:03	-133.628	47.814	0	198.30	0	5.5340	0	33.7230	0	26.603	0	196.545	0	-1e10	8	-1e10	8	-1E+10	1	-1E+10	1	-1E+10	1	-1E+10	1	-1E+10	1	-1E+10	1
4902554	97	C	10/16/2023	02:03	-133.628	47.814	0	199.30	0	5.5400	0	33.7300	0	26.608	0	197.536	0	-1e10	8	-1e10	8	-1E+10	1	-1E+10	1	-1E+10	1	-1E+10	1	-1E+10	1	-1E+10	1
4902554	97	C	10/16/2023	02:03	-133.628	47.814	0	200.30	0	5.5420	0	33.7320	0	26.609	0	198.526	0	-1e10	8	-1e10	8	-1E+10	1	-1E+10	1	-1E+10	1	-1E+10	1	-1E+10	1	-1E+10	1
4902554	97	C	10/16/2023	02:03	-133.628	47.814	0	201.30	0	5.5840	0	33.7510	0	26.619	0	199.517	0	-1e10	8	-1e10	8	-1E+10	1	-1E+10	1	-1E+10	1	-1E+10	1	-1E+10	1	-1E+10	1
4902554	97	C	10/16/2023	02:03	-133.628	47.814	0	202.30	0	5.5730	0	33.7530	0	26.622	0	200.508	0	-1e10	8	-1e10	8	-1E+10	1	-1E+10	1	-1E+10	1	-1E+10	1	-1E+10	1	-1E+10	1
4902554	97	C	10/16/2023	02:03	-133.628	47.814	0	203.40	0	5.5610	0	33.7530	0	26.623	0	201.597	0	-1e10	8	-1e10	8	-1E+10	1	-1E+10	1	-1E+10	1	-1E+10	1	-1E+10	1	-1E+10	1
4902554	97	C	10/16/2023	02:03	-133.628	47.814	0	204.40	0	5.5460	0	33.7550	0	26.627	0	202.588	0	-1e10	8	-1e10	8	-1E+10	1	-1E+10	1	-1E+10	1	-1E+10	1	-1E+10	1	-1E+10	1
4902554	97	C	10/16/2023	02:03	-133.628	47.814	0	205.40	0	5.5510	0	33.7580	0	26.628	0	203.579	0	-1e10	8	-1e10	8	-1E+10	1	-1E+10	1	-1E+10	1	-1E+10	1	-1E+10	1	-1E+10	1
4902554	97	C	10/16/2023	02:03	-133.628	47.814	0	206.50	0	5.5500	0	33.7610	0	26.631	0	204.668	0	-1e10	8	-1e10	8	-1E+10	1	-1E+10	1	-1E+10	1	-1E+10	1	-1E+10	1	-1E+10	1
4902554	97	C	10/16/2023	02:03	-133.628	47.814	0	207.50	0	5.5310	0	33.7590	0	26.632	0	205.659	0	-1e10	8	-1e10	8	-1E+10	1	-1E+10	1	-1E+10	1	-1E+10	1	-1E+10	1	-1E+10	1
4902554	97	C	10/16/2023	02:03	-133.628	47.814	0	208.50	0	5.4910	0	33.7590	0	26.636	0	206.650	0	-1e10	8	-1e10	8	-1E+10	1	-1E+10	1	-1E+10	1	-1E+10	1	-1E+10	1	-1E+10	1
4902554	97	C	10/16/2023	02:03	-133.628	47.814	0	209.50	0	5.4850	0	33.7570	0	26.636	0	207.640	0	-1e10	8	-1e10	8	-1E+10	1	-1E+10	1	-1E+10	1	-1E+10	1	-1E+10	1	-1E+10	1
4902554	97	C	10/16/2023	02:03	-133.628	47.814	0	210.50	0	5.4600	0	33.7620	0	26.642	0	208.631	0	-1e10	8	-1e10	8	-1E+10	1	-1E+10	1	-1E+10	1	-1E+10	1	-1E+10	1	-1E+10	1
4902554	97	C	10/16/2023	02:03	-133.628	47.814	0	211.50	0	5.4210	0	33.7620	0	26.647	0	209.621	0	-1e10	8	-1e10	8	-1E+10	1	-1E+10	1	-1E+10	1	-1E+10	1	-1E+10	1	-1E+10	1
4902554	97	C	10/16/2023	02:03	-133.628	47.814	0	212.60	0	5.3720	0	33.7620	0	26.653	0	210.711	0	-1e10	8	-1e10	8	-1E+10	1	-1E+10	1	-1E+10	1	-1E+10	1	-1E+10	1	-1E+10	1
4902554	97	C	10/16/2023	02:03	-133.628	47.814	0	213.60	0	5.3270	0	33.7590	0	26.656	0	211.702	0	-1e10	8	-1e10	8	-1E+10	1	-1E+10	1	-1E+10	1	-1E+10	1	-1E+10	1	-1E+10	1
4902554	97	C	10/16/2023	02:03	-133.628	47.814	0	214.60	0	5.3100	0	33.7590	0	26.658	0	212.692	0	-1e10	8	-1e10	8	-1E+10	1	-1E+10	1	-1E+10	1	-1E+10	1	-1E+10	1	-1E+10	1
4902554	97	C	10/16/2023	02:03	-133.628	47.814	0	215.70	0	5.2940	0	33.7600	0	26.660	0	213.782	0	-1e10	8	-1e10	8	-1E+10	1	-1E+10	1	-1E+10	1	-1E+10	1	-1E+10	1	-1E+10	1
4902554	97	C	10/16/2023	02:03	-133.628	47.814	0	216.70	0	5.2930	0	33.7610	0	26.661	0	214.773	0	-1e10	8	-1e10	8	-1E+10	1	-1E+10	1	-1E+10	1	-1E+10	1	-1E+10	1	-1E+10	1
4902554	97	C	10/16/2023	02:03	-133.628	47.814	0	217.80	0	5.2760	0	33.7660	0	26.667	0	215.862	0	-1e10	8	-1e10	8	-1E+10	1	-1E+10	1	-1E+10	1	-1E+10	1	-1E+10	1	-1E+10	1
4902554	97	C	10/16/2023	02:03	-133.628	47.814	0	218.80	0	5.2660	0	33.7640	0	26.667	0	216.853	0	-1e10	8	-1e10	8	-1E+10	1	-1E+10	1	-1E+10	1	-1E+10	1	-1E+10	1	-1E+10	1
4902554	97	C	10/16/2023	02:03	-133.628	47.814	0	219.80	0	5.2570	0	33.7660	0	26.670	0	217.843	0	-1e10	8	-1e10	8	-1E+10	1	-1E+10	1	-1E+10	1	-1E+10	1	-1E+10	1	-1E+10	1
4902554	97	C	10/16/2023	02:03	-133.628	47.814	0	220.70	0	5.2530	0	33.7690	0	26.672	0	218.735	0	-1e10	8	-1e10	8	-1E+10	1	-1E+10	1	-1E+10	1	-1E+10	1	-1E+10	1	-1E+10	1
4902554	97	C	10/16/2023	02:03	-133.628	47.814	0	221.70	0	5.2390	0	33.7690	0	26.674	0	219.725	0	-1e10	8	-1e10	8	-1E+10	1	-1E+10	1	-1E+10	1	-1E+10	1	-1E+10	1	-1E+10	1
4902554	97	C	10/16/2023	02:03	-133.628	47.814	0	222.90	0	5.2360	0	33.7730	0	26.678	0	220.914	0	-1e10	8	-1e10	8	-1E+10	1	-1E+10	1	-1E+10	1	-1E+10	1	-1E+10	1	-1E+10	1
4902554	97	C	10/16/2023	02:03	-133.628	47.814	0	224.00	0	5.2330	0	33.7730	0	26.678	0	222.004	0	-1e10	8	-1e10	8	-1E+10	1	-1E+10	1	-1E+10	1	-1E+10	1	-1E+10	1	-1E+10	1
4902554	97	C	10/16/2023	02:03	-133.628	47.814	0	224.80	0	5.2310	0	33.7740	0	26.679	0	222.796	0	-1e10	8	-1e10	8	-1E+10	1	-1E+10	1	-1E+10	1	-1E+10	1	-1E+10	1	-1E+10	1
4902554	97	C	10/16/2023	02:03	-133.628	47.814	0	226.00	0	5.2210	0	33.7780	0	26.683	0	223.985	0	-1e10	8	-1e10	8	-1E+10	1	-1E+10	1	-1E+10	1	-1E+10	1	-1E+10	1	-1E+10	1
4902554	97	C	10/16/2023	02:03	-133.628	47.814	0	227.20	0	5.2180	0	33.7820	0	26.687	0	225.173	0	-1e10	8	-1e10	8	-1E+10	1	-1E+10	1	-1E+10	1	-1E+10	1	-1E+10	1	-1E+10	1
4902554	97	C	10/16/2023	02:03	-133.628	47.814	0	228.00	0	5.2070	0	33.7820	0	26.688	0	225.966	0	-1e10	8	-1e10	8	-1E+10	1	-1E+10	1	-1E+10	1	-1E+10	1	-1E+10	1	-1E+10	1
4902554	97	C	10/16/2023	02:03	-133.628	47.814	0	228.80	0	5.1970	0	33.7820	0	26.689	0	226.758	0	-1e10	8	-1e10	8	-1E+10	1	-1E+10	1	-1E+10	1	-1E+10	1	-1E+10	1	-1E+10	1
4902554	97	C	10/16/2023	02:03	-133.628	47.814	0	229.90	0	5.1920	0	33.7840	0	26.691	0	227.848	0	-1e10	8	-1e10	8	-1E+10	1	-1E+10	1	-1E+10	1	-1E+10	1	-1E+10	1	-1E+10	1
4902554	97	C	10/16/2023	02:03	-133.628	47.814	0	231.10	0	5.2010	0	33.7900	0	26.695	0	229.036	0	-1e10	8	-1e10	8	-1E+10	1	-1E+10	1	-1E+10	1	-1E+10	1	-1E+10	1	-1E+10	1
4902554	97	C	10/16/2023	02:03	-133.628	47.814	0	231.90	0	5.1970	0	33.7920	0	26.697	0	229.829	0	-1e10	8	-1e10	8	-1E+10	1	-1E+10	1	-1E+10	1	-1E+10	1	-1E+10	1	-1E+10	1
4902554	97	C	10/16/2023	02:03	-133.628	47.814	0	232.80	0	5.1820	0	33.7920	0	26.699	0	230.720	0	-1e10	8	-1e10	8	-1E+10	1	-1E+10	1	-1E+10	1	-1E+10	1	-1E+10	1	-1E+10	1
4902554	97	C	10/16/2023	02:03	-133.628	47.814	0	234.00	0	5.1750	0	33.7930	0	26.701	0	231.909	0	-1e10	8	-1e10	8	-1E+10	1	-1E+10	1	-1E+10	1	-1E+10	1	-1E+10	1	-1E+10	1
4902554	97	C	10/16/2023	02:03	-133.628	47.814	0	235.20	0	5.1690	0	33.7970	0	26.704	0	233.098	0	-1e10	8	-1e10	8	-1E+10	1	-1E+10	1	-1E+10	1	-1E+10	1	-1E+10	1	-1E+10	1
4902554	97	C	10/16/2023	02:03	-133.628	47.814	0	236.00	0	5.1540	0	33.7950	0	26.705	0	233.890	0	-1e10	8	-1e10	8	-1E+10	1	-1E+10	1	-1E+10	1	-1E+10	1	-1E+10	1	-1E+10	1
4902554	97	C	10/16/2023	02:03	-133.628	47.814	0	236.80	0	5.1420	0	33.7970	0	26.708	0	234.682	0	-1e10	8	-1e10	8	-1E+10	1	-1E+10	1	-1E+10	1	-1E+10	1	-1E+10	1	-1E+10	1
4902554	97	C	10/16/2023	02:03	-133.628	47.814	0	237.60	0	5.1360	0	33.7970	0	26.708	0	235.475	0	-1e10	8	-1e10	8	-1E+10	1	-1E+10	1	-1E+10	1	-1E+10	1	-1E+10	1	-1E+10	1
4902554	97	C	10/16/2023	02:03	-133.628	47.814	0	238.90	0	5.1270	0	33.7990	0	26.711	0	236.762	0	-1e10	8	-1e10	8	-1E+10	1	-1E+10	1	-1E+10	1	-1E+10	1	-1E+10	1	-1E+10	1
4902554	97	C	10/16/2023	02:03	-133.628	47.814	0	240.10	0	5.1200	0	33.8000	0	26.712	0	237.951	0	-1e10	8	-1e10	8	-1E+10	1	-1E+10	1	-1E+10	1	-1E+10	1	-1E+10	1	-1E+10	1
4902554	97	C	10/16/2023	02:03	-133.628	47.814	0	240.90	0	5.1090	0	33.7990	0	26.713	0	238.743	0	-1e10	8	-1e10	8	-1E+10	1	-1E+10	1	-1E+10	1	-1E+10	1	-1E+10	1	-1E+10	1
4902554	97	C	10/16/2023	02:03	-133.628	47.814	0	241.80	0	5.1010	0	33.8020	0	26.716	0	239.635	0	-1e10	8	-1e10	8	-1E+10	1	-1E+10	1	-1E+10	1	-1E+10	1	-1E+10	1	-1E+10	1
4902554	97	C	10/16/2023	02:03	-133.628	47.814	0	243.00	0	5.0920	0	33.8020	0	26.717	0	240.823	0	-1e10	8	-1e10	8	-1E+10	1	-1E+10	1	-1E+10	1	-1E+10	1	-1E+10	1	-1E+10	1
4902554	97	C	10/16/2023	02:03	-133.628	47.814	0	244.30	0	5.0750	0	33.8020	0	26.719	0	242.111	0	-1e10	8	-1e10	8	-1E+10	1	-1E+10	1	-1E+10	1	-1E+10	1	-1E+10	1	-1E+10	1
4902554	97	C	10/16/2023	02:03	-133.628	47.814	0	245.10	0	5.0610	0	33.8030	0	26.722	0	242.903	0	-1e10	8	-1e10	8	-1E+10	1	-1E+10	1	-1E+10	1	-1E+10	1	-1E+10	1	-1E+10	1
4902554	97	C	10/16/2023	02:03	-133.628	47.814	0	245.90	0	5.0340	0	33.8010	0	26.723	0	243.696	0	-1e10	8	-1e10	8	-1E+10	1	-1E+10	1	-1E+10	1	-1E+10	1	-1E+10	1	-1E+10	1
4902554	97	C	10/16/2023	02:03	-133.628	47.814	0	246.80	0	5.0320	0	33.8020	0	26.724	0	244.587	0	-1e10	8	-1e10	8	-1E+10	1	-1E+10	1	-1E+10	1	-1E+10	1	-1E+10	1	-1E+10	1
4902554	97	C	10/16/2023	02:03	-133.628	47.814	0	247.60	0	5.0150	0	33.8020	0	26.726	0	245.379	0	-1e10	8	-1e10	8	-1E+10	1	-1E+10	1	-1E+10	1	-1E+10	1	-1E+10	1	-1E+10	1
4902554	97	C	10/16/2023	02:03	-133.628	47.814	0	248.90	0	5.0030	0	33.8020	0	26.727	0	246.667	0	-1e10	8	-1e10	8	-1E+10	1	-1E+10	1	-1E+10	1	-1E+10	1	-1E+10	1	-1E+10	1
4902554	97	C	10/16/2023	02:03	-133.628	47.814	0	250.20	0	4.9920	0	33.8040	0	26.730	0	247.954	0	-1e10	8	-1e10	8	-1E+10	1	-1E+10	1	-1E+10	1	-1E+10	1	-1E+10	1	-1E+10	1
4902554	97	C	10/16/2023	02:03	-133.628	47.814	0	251.10	0	4.9830	0	33.8040	0	26.731	0	248.846	0	-1e10	8	-1e10	8	-1E+10	1	-1E+10	1	-1E+10	1	-1E+10	1	-1E+10	1	-1E+10	1
4902554	97	C	10/16/2023	02:03	-133.628	47.814	0	251.90	0	4.9790	0	33.8030	0	26.731	0	249.638	0	-1e10	8	-1e10	8	-1E+10	1	-1E+10	1	-1E+10	1	-1E+10	1	-1E+10	1	-1E+10	1
4902554	97	C	10/16/2023	02:03	-133.628	47.814	0	252.80	0	4.9740	0	33.8020	0	26.731	0	250.530	0	-1e10	8	-1e10	8	-1E+10	1	-1E+10	1	-1E+10	1	-1E+10	1	-1E+10	1	-1E+10	1
4902554	97	C	10/16/2023	02:03	-133.628	47.814	0	253.70	0	4.9580	0	33.8020	0	26.733	0	251.421	0	-1e10	8	-1e10	8	-1E+10	1	-1E+10	1	-1E+10	1	-1E+10	1	-1E+10	1	-1E+10	1
4902554	97	C	10/16/2023	02:03	-133.628	47.814	0	254.90	0	4.9130	0	33.7990	0	26.735	0	252.609	0	-1e10	8	-1e10	8	-1E+10	1	-1E+10	1	-1E+10	1	-1E+10	1	-1E+10	1	-1E+10	1
4902554	97	C	10/16/2023	02:03	-133.628	47.814	0	256.30	0	4.8860	0	33.7980	0	26.737	0	253.996	0	-1e10	8	-1e10	8	-1E+10	1	-1E+10	1	-1E+10	1	-1E+10	1	-1E+10	1	-1E+10	1
4902554	97	C	10/16/2023	02:03	-133.628	47.814	0	257.20	0	4.8810	0	33.7970	0	26.737	0	254.887	0	-1e10	8	-1e10	8	-1E+10	1	-1E+10	1	-1E+10	1	-1E+10	1	-1E+10	1	-1E+10	1
4902554	97	C	10/16/2023	02:03	-133.628	47.814	0	258.10	0	4.8760	0	33.7990	0	26.739	0	255.779	0	-1e10	8	-1e10	8	-1E+10	1	-1E+10	1	-1E+10	1	-1E+10	1	-1E+10	1	-1E+10	1
4902554	97	C	10/16/2023	02:03	-133.628	47.814	0	258.90	0	4.8620	0	33.8020	0	26.743	0	256.571	0	-1e10	8	-1e10	8	-1E+10	1	-1E+10	1	-1E+10	1	-1E+10	1	-1E+10	1	-1E+10	1
4902554	97	C	10/16/2023	02:03	-133.628	47.814	0	259.80	0	4.8530	0	33.7990	0	26.742	0	257.462	0	-1e10	8	-1e10	8	-1E+10	1	-1E+10	1	-1E+10	1	-1E+10	1	-1E+10	1	-1E+10	1
4902554	97	C	10/16/2023	02:03	-133.628	47.814	0	260.70	0	4.8520	0	33.8000	0	26.743	0	258.354	0	-1e10	8	-1e10	8	-1E+10	1	-1E+10	1	-1E+10	1	-1E+10	1	-1E+10	1	-1E+10	1
4902554	97	C	10/16/2023	02:03	-133.628	47.814	0	261.60	0	4.8460	0	33.7990	0	26.743	0	259.245	0	-1e10	8	-1e10	8	-1E+10	1	-1E+10	1	-1E+10	1	-1E+10	1	-1E+10	1	-1E+10	1
4902554	97	C	10/16/2023	02:03	-133.628	47.814	0	262.90	0	4.8370	0	33.7990	0	26.744	0	260.533	0	-1e10	8	-1e10	8	-1E+10	1	-1E+10	1	-1E+10	1	-1E+10	1	-1E+10	1	-1E+10	1
4902554	97	C	10/16/2023	02:03	-133.628	47.814	0	264.30	0	4.8280	0	33.8000	0	26.746	0	261.919	0	-1e10	8	-1e10	8	-1E+10	1	-1E+10	1	-1E+10	1	-1E+10	1	-1E+10	1	-1E+10	1
4902554	97	C	10/16/2023	02:03	-133.628	47.814	0	265.20	0	4.8240	0	33.8010	0	26.747	0	262.810	0	-1e10	8	-1e10	8	-1E+10	1	-1E+10	1	-1E+10	1	-1E+10	1	-1E+10	1	-1E+10	1
4902554	97	C	10/16/2023	02:03	-133.628	47.814	0	266.10	0	4.8200	0	33.8030	0	26.749	0	263.702	0	-1e10	8	-1e10	8	-1E+10	1	-1E+10	1	-1E+10	1	-1E+10	1	-1E+10	1	-1E+10	1
4902554	97	C	10/16/2023	02:03	-133.628	47.814	0	267.00	0	4.8120	0	33.8030	0	26.750	0	264.593	0	-1e10	8	-1e10	8	-1E+10	1	-1E+10	1	-1E+10	1	-1E+10	1	-1E+10	1	-1E+10	1
4902554	97	C	10/16/2023	02:03	-133.628	47.814	0	267.90	0	4.8100	0	33.8030	0	26.750	0	265.484	0	-1e10	8	-1e10	8	-1E+10	1	-1E+10	1	-1E+10	1	-1E+10	1	-1E+10	1	-1E+10	1
4902554	97	C	10/16/2023	02:03	-133.628	47.814	0	268.80	0	4.7930	0	33.8040	0	26.753	0	266.376	0	-1e10	8	-1e10	8	-1E+10	1	-1E+10	1	-1E+10	1	-1E+10	1	-1E+10	1	-1E+10	1
4902554	97	C	10/16/2023	02:03	-133.628	47.814	0	269.80	0	4.7900	0	33.8030	0	26.752	0	267.366	0	-1e10	8	-1e10	8	-1E+10	1	-1E+10	1	-1E+10	1	-1E+10	1	-1E+10	1	-1E+10	1
4902554	97	C	10/16/2023	02:03	-133.628	47.814	0	270.60	0	4.7730	0	33.8060	0	26.757	0	268.158	0	-1e10	8	-1e10	8	-1E+10	1	-1E+10	1	-1E+10	1	-1E+10	1	-1E+10	1	-1E+10	1
4902554	97	C	10/16/2023	02:03	-133.628	47.814	0	271.60	0	4.7570	0	33.8030	0	26.756	0	269.149	0	-1e10	8	-1e10	8	-1E+10	1	-1E+10	1	-1E+10	1	-1E+10	1	-1E+10	1	-1E+10	1
4902554	97	C	10/16/2023	02:03	-133.628	47.814	0	272.90	0	4.7570	0	33.8050	0	26.758	0	270.436	0	-1e10	8	-1e10	8	-1E+10	1	-1E+10	1	-1E+10	1	-1E+10	1	-1E+10	1	-1E+10	1
4902554	97	C	10/16/2023	02:03	-133.628	47.814	0	274.30	0	4.7470	0	33.8060	0	26.759	0	271.822	0	-1e10	8	-1e10	8	-1E+10	1	-1E+10	1	-1E+10	1	-1E+10	1	-1E+10	1	-1E+10	1
4902554	97	C	10/16/2023	02:03	-133.628	47.814	0	275.20	0	4.7350	0	33.8060	0	26.761	0	272.714	0	-1e10	8	-1e10	8	-1E+10	1	-1E+10	1	-1E+10	1	-1E+10	1	-1E+10	1	-1E+10	1
4902554	97	C	10/16/2023	02:03	-133.628	47.814	0	276.10	0	4.7260	0	33.8080	0	26.763	0	273.605	0	-1e10	8	-1e10	8	-1E+10	1	-1E+10	1	-1E+10	1	-1E+10	1	-1E+10	1	-1E+10	1
4902554	97	C	10/16/2023	02:03	-133.628	47.814	0	277.00	0	4.7240	0	33.8070	0	26.763	0	274.496	0	-1e10	8	-1e10	8	-1E+10	1	-1E+10	1	-1E+10	1	-1E+10	1	-1E+10	1	-1E+10	1
4902554	97	C	10/16/2023	02:03	-133.628	47.814	0	277.90	0	4.7100	0	33.8090	0	26.766	0	275.387	0	-1e10	8	-1e10	8	-1E+10	1	-1E+10	1	-1E+10	1	-1E+10	1	-1E+10	1	-1E+10	1
4902554	97	C	10/16/2023	02:03	-133.628	47.814	0	278.80	0	4.7030	0	33.8090	0	26.767	0	276.279	0	-1e10	8	-1e10	8	-1E+10	1	-1E+10	1	-1E+10	1	-1E+10	1	-1E+10	1	-1E+10	1
4902554	97	C	10/16/2023	02:03	-133.628	47.814	0	279.80	0	4.6940	0	33.8100	0	26.768	0	277.269	0	-1e10	8	-1e10	8	-1E+10	1	-1E+10	1	-1E+10	1	-1E+10	1	-1E+10	1	-1E+10	1
4902554	97	C	10/16/2023	02:03	-133.628	47.814	0	280.70	0	4.6870	0	33.8090	0	26.768	0	278.160	0	-1e10	8	-1e10	8	-1E+10	1	-1E+10	1	-1E+10	1	-1E+10	1	-1E+10	1	-1E+10	1
4902554	97	C	10/16/2023	02:03	-133.628	47.814	0	281.60	0	4.6800	0	33.8100	0	26.770	0	279.052	0	-1e10	8	-1e10	8	-1E+10	1	-1E+10	1	-1E+10	1	-1E+10	1	-1E+10	1	-1E+10	1
4902554	97	C	10/16/2023	02:03	-133.628	47.814	0	282.90	0	4.6640	0	33.8110	0	26.773	0	280.339	0	-1e10	8	-1e10	8	-1E+10	1	-1E+10	1	-1E+10	1	-1E+10	1	-1E+10	1	-1E+10	1
4902554	97	C	10/16/2023	02:03	-133.628	47.814	0	284.30	0	4.6500	0	33.8120	0	26.775	0	281.725	0	-1e10	8	-1e10	8	-1E+10	1	-1E+10	1	-1E+10	1	-1E+10	1	-1E+10	1	-1E+10	1
4902554	97	C	10/16/2023	02:03	-133.628	47.814	0	285.30	0	4.6430	0	33.8140	0	26.777	0	282.715	0	-1e10	8	-1e10	8	-1E+10	1	-1E+10	1	-1E+10	1	-1E+10	1	-1E+10	1	-1E+10	1
4902554	97	C	10/16/2023	02:03	-133.628	47.814	0	286.20	0	4.6340	0	33.8160	0	26.780	0	283.607	0	-1e10	8	-1e10	8	-1E+10	1	-1E+10	1	-1E+10	1	-1E+10	1	-1E+10	1	-1E+10	1
4902554	97	C	10/16/2023	02:03	-133.628	47.814	0	287.10	0	4.6200	0	33.8170	0	26.782	0	284.498	0	-1e10	8	-1e10	8	-1E+10	1	-1E+10	1	-1E+10	1	-1E+10	1	-1E+10	1	-1E+10	1
4902554	97	C	10/16/2023	02:03	-133.628	47.814	0	288.00	0	4.6100	0	33.8180	0	26.784	0	285.389	0	-1e10	8	-1e10	8	-1E+10	1	-1E+10	1	-1E+10	1	-1E+10	1	-1E+10	1	-1E+10	1
4902554	97	C	10/16/2023	02:03	-133.628	47.814	0	288.90	0	4.6060	0	33.8190	0	26.785	0	286.280	0	-1e10	8	-1e10	8	-1E+10	1	-1E+10	1	-1E+10	1	-1E+10	1	-1E+10	1	-1E+10	1
4902554	97	C	10/16/2023	02:03	-133.628	47.814	0	289.80	0	4.6030	0	33.8190	0	26.786	0	287.172	0	-1e10	8	-1e10	8	-1E+10	1	-1E+10	1	-1E+10	1	-1E+10	1	-1E+10	1	-1E+10	1
4902554	97	C	10/16/2023	02:03	-133.628	47.814	0	290.80	0	4.5960	0	33.8210	0	26.788	0	288.162	0	-1e10	8	-1e10	8	-1E+10	1	-1E+10	1	-1E+10	1	-1E+10	1	-1E+10	1	-1E+10	1
4902554	97	C	10/16/2023	02:03	-133.628	47.814	0	291.70	0	4.5950	0	33.8200	0	26.787	0	289.053	0	-1e10	8	-1e10	8	-1E+10	1	-1E+10	1	-1E+10	1	-1E+10	1	-1E+10	1	-1E+10	1
4902554	97	C	10/16/2023	02:03	-133.628	47.814	0	292.60	0	4.5940	0	33.8200	0	26.787	0	289.944	0	-1e10	8	-1e10	8	-1E+10	1	-1E+10	1	-1E+10	1	-1E+10	1	-1E+10	1	-1E+10	1
4902554	97	C	10/16/2023	02:03	-133.628	47.814	0	293.90	0	4.5880	0	33.8220	0	26.790	0	291.232	0	-1e10	8	-1e10	8	-1E+10	1	-1E+10	1	-1E+10	1	-1E+10	1	-1E+10	1	-1E+10	1
4902554	97	C	10/16/2023	02:03	-133.628	47.814	0	295.40	0	4.5820	0	33.8230	0	26.791	0	292.717	0	-1e10	8	-1e10	8	-1E+10	1	-1E+10	1	-1E+10	1	-1E+10	1	-1E+10	1	-1E+10	1
4902554	97	C	10/16/2023	02:03	-133.628	47.814	0	296.30	0	4.5770	0	33.8240	0	26.792	0	293.608	0	-1e10	8	-1e10	8	-1E+10	1	-1E+10	1	-1E+10	1	-1E+10	1	-1E+10	1	-1E+10	1
4902554	97	C	10/16/2023	02:03	-133.628	47.814	0	297.20	0	4.5710	0	33.8250	0	26.794	0	294.499	0	-1e10	8	-1e10	8	-1E+10	1	-1E+10	1	-1E+10	1	-1E+10	1	-1E+10	1	-1E+10	1
4902554	97	C	10/16/2023	02:03	-133.628	47.814	0	298.10	0	4.5660	0	33.8250	0	26.794	0	295.390	0	-1e10	8	-1e10	8	-1E+10	1	-1E+10	1	-1E+10	1	-1E+10	1	-1E+10	1	-1E+10	1
4902554	97	C	10/16/2023	02:03	-133.628	47.814	0	299.10	0	4.5610	0	33.8260	0	26.796	0	296.381	0	-1e10	8	-1e10	8	-1E+10	1	-1E+10	1	-1E+10	1	-1E+10	1	-1E+10	1	-1E+10	1
4902554	97	C	10/16/2023	02:03	-133.628	47.814	0	300.00	0	4.5550	0	33.8270	0	26.797	0	297.272	0	-1e10	8	-1e10	8	-1E+10	1	-1E+10	1	-1E+10	1	-1E+10	1	-1E+10	1	-1E+10	1
4902554	97	C	10/16/2023	02:03	-133.628	47.814	0	300.90	0	4.5510	0	33.8270	0	26.798	0	298.163	0	-1e10	8	-1e10	8	-1E+10	1	-1E+10	1	-1E+10	1	-1E+10	1	-1E+10	1	-1E+10	1
4902554	97	C	10/16/2023	02:03	-133.628	47.814	0	301.80	0	4.5450	0	33.8280	0	26.799	0	299.054	0	-1e10	8	-1e10	8	-1E+10	1	-1E+10	1	-1E+10	1	-1E+10	1	-1E+10	1	-1E+10	1
4902554	97	C	10/16/2023	02:03	-133.628	47.814	0	302.70	0	4.5310	0	33.8310	0	26.803	0	299.945	0	-1e10	8	-1e10	8	-1E+10	1	-1E+10	1	-1E+10	1	-1E+10	1	-1E+10	1	-1E+10	1
4902554	97	C	10/16/2023	02:03	-133.628	47.814	0	303.60	0	4.5250	0	33.8310	0	26.804	0	300.836	0	-1e10	8	-1e10	8	-1E+10	1	-1E+10	1	-1E+10	1	-1E+10	1	-1E+10	1	-1E+10	1
4902554	97	C	10/16/2023	02:03	-133.628	47.814	0	304.60	0	4.5220	0	33.8320	0	26.805	0	301.827	0	-1e10	8	-1e10	8	-1E+10	1	-1E+10	1	-1E+10	1	-1E+10	1	-1E+10	1	-1E+10	1
4902554	97	C	10/16/2023	02:03	-133.628	47.814	0	305.90	0	4.5190	0	33.8330	0	26.806	0	303.114	0	-1e10	8	-1e10	8	-1E+10	1	-1E+10	1	-1E+10	1	-1E+10	1	-1E+10	1	-1E+10	1
4902554	97	C	10/16/2023	02:03	-133.628	47.814	0	307.30	0	4.5180	0	33.8340	0	26.807	0	304.500	0	-1e10	8	-1e10	8	-1E+10	1	-1E+10	1	-1E+10	1	-1E+10	1	-1E+10	1	-1E+10	1
4902554	97	C	10/16/2023	02:03	-133.628	47.814	0	308.30	0	4.5170	0	33.8340	0	26.807	0	305.490	0	-1e10	8	-1e10	8	-1E+10	1	-1E+10	1	-1E+10	1	-1E+10	1	-1E+10	1	-1E+10	1
4902554	97	C	10/16/2023	02:03	-133.628	47.814	0	309.20	0	4.5150	0	33.8350	0	26.808	0	306.381	0	-1e10	8	-1e10	8	-1E+10	1	-1E+10	1	-1E+10	1	-1E+10	1	-1E+10	1	-1E+10	1
4902554	97	C	10/16/2023	02:03	-133.628	47.814	0	310.10	0	4.5120	0	33.8360	0	26.809	0	307.272	0	-1e10	8	-1e10	8	-1E+10	1	-1E+10	1	-1E+10	1	-1E+10	1	-1E+10	1	-1E+10	1
4902554	97	C	10/16/2023	02:03	-133.628	47.814	0	311.10	0	4.5090	0	33.8350	0	26.809	0	308.263	0	-1e10	8	-1e10	8	-1E+10	1	-1E+10	1	-1E+10	1	-1E+10	1	-1E+10	1	-1E+10	1
4902554	97	C	10/16/2023	02:03	-133.628	47.814	0	312.00	0	4.5060	0	33.8350	0	26.809	0	309.154	0	-1e10	8	-1e10	8	-1E+10	1	-1E+10	1	-1E+10	1	-1E+10	1	-1E+10	1	-1E+10	1
4902554	97	C	10/16/2023	02:03	-133.628	47.814	0	312.90	0	4.5060	0	33.8360	0	26.810	0	310.045	0	-1e10	8	-1e10	8	-1E+10	1	-1E+10	1	-1E+10	1	-1E+10	1	-1E+10	1	-1E+10	1
4902554	97	C	10/16/2023	02:03	-133.628	47.814	0	313.90	0	4.5030	0	33.8370	0	26.811	0	311.035	0	-1e10	8	-1e10	8	-1E+10	1	-1E+10	1	-1E+10	1	-1E+10	1	-1E+10	1	-1E+10	1
4902554	97	C	10/16/2023	02:03	-133.628	47.814	0	314.80	0	4.4980	0	33.8380	0	26.812	0	311.926	0	-1e10	8	-1e10	8	-1E+10	1	-1E+10	1	-1E+10	1	-1E+10	1	-1E+10	1	-1E+10	1
4902554	97	C	10/16/2023	02:03	-133.628	47.814	0	315.80	0	4.4880	0	33.8400	0	26.815	0	312.916	0	-1e10	8	-1e10	8	-1E+10	1	-1E+10	1	-1E+10	1	-1E+10	1	-1E+10	1	-1E+10	1
4902554	97	C	10/16/2023	02:03	-133.628	47.814	0	316.70	0	4.4860	0	33.8410	0	26.816	0	313.807	0	-1e10	8	-1e10	8	-1E+10	1	-1E+10	1	-1E+10	1	-1E+10	1	-1E+10	1	-1E+10	1
4902554	97	C	10/16/2023	02:03	-133.628	47.814	0	317.70	0	4.4710	0	33.8450	0	26.821	0	314.797	0	-1e10	8	-1e10	8	-1E+10	1	-1E+10	1	-1E+10	1	-1E+10	1	-1E+10	1	-1E+10	1
4902554	97	C	10/16/2023	02:03	-133.628	47.814	0	318.70	0	4.4690	0	33.8450	0	26.821	0	315.788	0	-1e10	8	-1e10	8	-1E+10	1	-1E+10	1	-1E+10	1	-1E+10	1	-1E+10	1	-1E+10	1
4902554	97	C	10/16/2023	02:03	-133.628	47.814	0	319.60	0	4.4690	0	33.8460	0	26.822	0	316.679	0	-1e10	8	-1e10	8	-1E+10	1	-1E+10	1	-1E+10	1	-1E+10	1	-1E+10	1	-1E+10	1
4902554	97	C	10/16/2023	02:03	-133.628	47.814	0	320.60	0	4.4640	0	33.8470	0	26.823	0	317.669	0	-1e10	8	-1e10	8	-1E+10	1	-1E+10	1	-1E+10	1	-1E+10	1	-1E+10	1	-1E+10	1
4902554	97	C	10/16/2023	02:03	-133.628	47.814	0	321.50	0	4.4620	0	33.8490	0	26.825	0	318.560	0	-1e10	8	-1e10	8	-1E+10	1	-1E+10	1	-1E+10	1	-1E+10	1	-1E+10	1	-1E+10	1
4902554	97	C	10/16/2023	02:03	-133.628	47.814	0	322.90	0	4.4540	0	33.8500	0	26.827	0	319.946	0	-1e10	8	-1e10	8	-1E+10	1	-1E+10	1	-1E+10	1	-1E+10	1	-1E+10	1	-1E+10	1
4902554	97	C	10/16/2023	02:03	-133.628	47.814	0	324.30	0	4.4480	0	33.8510	0	26.828	0	321.332	0	-1e10	8	-1e10	8	-1E+10	1	-1E+10	1	-1E+10	1	-1E+10	1	-1E+10	1	-1E+10	1
4902554	97	C	10/16/2023	02:03	-133.628	47.814	0	325.30	0	4.4440	0	33.8510	0	26.828	0	322.322	0	-1e10	8	-1e10	8	-1E+10	1	-1E+10	1	-1E+10	1	-1E+10	1	-1E+10	1	-1E+10	1
4902554	97	C	10/16/2023	02:03	-133.628	47.814	0	326.30	0	4.4390	0	33.8530	0	26.831	0	323.312	0	-1e10	8	-1e10	8	-1E+10	1	-1E+10	1	-1E+10	1	-1E+10	1	-1E+10	1	-1E+10	1
4902554	97	C	10/16/2023	02:03	-133.628	47.814	0	327.20	0	4.4370	0	33.8540	0	26.832	0	324.203	0	-1e10	8	-1e10	8	-1E+10	1	-1E+10	1	-1E+10	1	-1E+10	1	-1E+10	1	-1E+10	1
4902554	97	C	10/16/2023	02:03	-133.628	47.814	0	328.20	0	4.4330	0	33.8540	0	26.832	0	325.193	0	-1e10	8	-1e10	8	-1E+10	1	-1E+10	1	-1E+10	1	-1E+10	1	-1E+10	1	-1E+10	1
4902554	97	C	10/16/2023	02:03	-133.628	47.814	0	329.10	0	4.4310	0	33.8540	0	26.832	0	326.084	0	-1e10	8	-1e10	8	-1E+10	1	-1E+10	1	-1E+10	1	-1E+10	1	-1E+10	1	-1E+10	1
4902554	97	C	10/16/2023	02:03	-133.628	47.814	0	330.10	0	4.4290	0	33.8540	0	26.832	0	327.074	0	-1e10	8	-1e10	8	-1E+10	1	-1E+10	1	-1E+10	1	-1E+10	1	-1E+10	1	-1E+10	1
4902554	97	C	10/16/2023	02:03	-133.628	47.814	0	331.00	0	4.4280	0	33.8570	0	26.835	0	327.965	0	-1e10	8	-1e10	8	-1E+10	1	-1E+10	1	-1E+10	1	-1E+10	1	-1E+10	1	-1E+10	1
4902554	97	C	10/16/2023	02:03	-133.628	47.814	0	331.90	0	4.4270	0	33.8570	0	26.835	0	328.856	0	-1e10	8	-1e10	8	-1E+10	1	-1E+10	1	-1E+10	1	-1E+10	1	-1E+10	1	-1E+10	1
4902554	97	C	10/16/2023	02:03	-133.628	47.814	0	332.90	0	4.4220	0	33.8590	0	26.837	0	329.846	0	-1e10	8	-1e10	8	-1E+10	1	-1E+10	1	-1E+10	1	-1E+10	1	-1E+10	1	-1E+10	1
4902554	97	C	10/16/2023	02:03	-133.628	47.814	0	333.80	0	4.4140	0	33.8610	0	26.840	0	330.737	0	-1e10	8	-1e10	8	-1E+10	1	-1E+10	1	-1E+10	1	-1E+10	1	-1E+10	1	-1E+10	1
4902554	97	C	10/16/2023	02:03	-133.628	47.814	0	334.80	0	4.4160	0	33.8610	0	26.839	0	331.727	0	-1e10	8	-1e10	8	-1E+10	1	-1E+10	1	-1E+10	1	-1E+10	1	-1E+10	1	-1E+10	1
4902554	97	C	10/16/2023	02:03	-133.628	47.814	0	335.70	0	4.4180	0	33.8610	0	26.839	0	332.619	0	-1e10	8	-1e10	8	-1E+10	1	-1E+10	1	-1E+10	1	-1E+10	1	-1E+10	1	-1E+10	1
4902554	97	C	10/16/2023	02:03	-133.628	47.814	0	336.60	0	4.4130	0	33.8630	0	26.841	0	333.510	0	-1e10	8	-1e10	8	-1E+10	1	-1E+10	1	-1E+10	1	-1E+10	1	-1E+10	1	-1E+10	1
4902554	97	C	10/16/2023	02:03	-133.628	47.814	0	337.60	0	4.4040	0	33.8630	0	26.842	0	334.500	0	-1e10	8	-1e10	8	-1E+10	1	-1E+10	1	-1E+10	1	-1E+10	1	-1E+10	1	-1E+10	1
4902554	97	C	10/16/2023	02:03	-133.628	47.814	0	338.50	0	4.3980	0	33.8640	0	26.844	0	335.391	0	-1e10	8	-1e10	8	-1E+10	1	-1E+10	1	-1E+10	1	-1E+10	1	-1E+10	1	-1E+10	1
4902554	97	C	10/16/2023	02:03	-133.628	47.814	0	339.90	0	4.3920	0	33.8670	0	26.847	0	336.777	0	-1e10	8	-1e10	8	-1E+10	1	-1E+10	1	-1E+10	1	-1E+10	1	-1E+10	1	-1E+10	1
4902554	97	C	10/16/2023	02:03	-133.628	47.814	0	341.30	0	4.3850	0	33.8690	0	26.849	0	338.163	0	-1e10	8	-1e10	8	-1E+10	1	-1E+10	1	-1E+10	1	-1E+10	1	-1E+10	1	-1E+10	1
4902554	97	C	10/16/2023	02:03	-133.628	47.814	0	342.30	0	4.3820	0	33.8700	0	26.850	0	339.152	0	-1e10	8	-1e10	8	-1E+10	1	-1E+10	1	-1E+10	1	-1E+10	1	-1E+10	1	-1E+10	1
4902554	97	C	10/16/2023	02:03	-133.628	47.814	0	343.20	0	4.3790	0	33.8740	0	26.854	0	340.044	0	-1e10	8	-1e10	8	-1E+10	1	-1E+10	1	-1E+10	1	-1E+10	1	-1E+10	1	-1E+10	1
4902554	97	C	10/16/2023	02:03	-133.628	47.814	0	344.20	0	4.3790	0	33.8750	0	26.855	0	341.033	0	-1e10	8	-1e10	8	-1E+10	1	-1E+10	1	-1E+10	1	-1E+10	1	-1E+10	1	-1E+10	1
4902554	97	C	10/16/2023	02:03	-133.628	47.814	0	345.10	0	4.3770	0	33.8750	0	26.855	0	341.924	0	-1e10	8	-1e10	8	-1E+10	1	-1E+10	1	-1E+10	1	-1E+10	1	-1E+10	1	-1E+10	1
4902554	97	C	10/16/2023	02:03	-133.628	47.814	0	346.00	0	4.3740	0	33.8770	0	26.857	0	342.815	0	-1e10	8	-1e10	8	-1E+10	1	-1E+10	1	-1E+10	1	-1E+10	1	-1E+10	1	-1E+10	1
4902554	97	C	10/16/2023	02:03	-133.628	47.814	0	347.00	0	4.3690	0	33.8790	0	26.859	0	343.805	0	-1e10	8	-1e10	8	-1E+10	1	-1E+10	1	-1E+10	1	-1E+10	1	-1E+10	1	-1E+10	1
4902554	97	C	10/16/2023	02:03	-133.628	47.814	0	347.90	0	4.3570	0	33.8800	0	26.861	0	344.696	0	-1e10	8	-1e10	8	-1E+10	1	-1E+10	1	-1E+10	1	-1E+10	1	-1E+10	1	-1E+10	1
4902554	97	C	10/16/2023	02:03	-133.628	47.814	0	348.90	0	4.3480	0	33.8820	0	26.863	0	345.686	0	-1e10	8	-1e10	8	-1E+10	1	-1E+10	1	-1E+10	1	-1E+10	1	-1E+10	1	-1E+10	1
4902554	97	C	10/16/2023	02:03	-133.628	47.814	0	349.80	0	4.3540	0	33.8850	0	26.865	0	346.577	0	-1e10	8	-1e10	8	-1E+10	1	-1E+10	1	-1E+10	1	-1E+10	1	-1E+10	1	-1E+10	1
4902554	97	C	10/16/2023	02:03	-133.628	47.814	0	352.70	0	4.3400	0	33.8890	0	26.870	0	349.448	0	-1e10	8	-1e10	8	-1E+10	1	-1E+10	1	-1E+10	1	-1E+10	1	-1E+10	1	-1E+10	1
4902554	97	C	10/16/2023	02:03	-133.628	47.814	0	358.00	0	4.3240	0	33.8940	0	26.876	0	354.695	0	-1e10	8	-1e10	8	-1E+10	1	-1E+10	1	-1E+10	1	-1E+10	1	-1E+10	1	-1E+10	1
4902554	97	C	10/16/2023	02:03	-133.628	47.814	0	363.30	0	4.3090	0	33.8990	0	26.881	0	359.941	0	-1e10	8	-1e10	8	-1E+10	1	-1E+10	1	-1E+10	1	-1E+10	1	-1E+10	1	-1E+10	1
4902554	97	C	10/16/2023	02:03	-133.628	47.814	0	368.30	0	4.3010	0	33.9040	0	26.886	0	364.891	0	-1e10	8	-1e10	8	-1E+10	1	-1E+10	1	-1E+10	1	-1E+10	1	-1E+10	1	-1E+10	1
4902554	97	C	10/16/2023	02:03	-133.628	47.814	0	373.30	0	4.2930	0	33.9110	0	26.892	0	369.840	0	-1e10	8	-1e10	8	-1E+10	1	-1E+10	1	-1E+10	1	-1E+10	1	-1E+10	1	-1E+10	1
4902554	97	C	10/16/2023	02:03	-133.628	47.814	0	378.30	0	4.2870	0	33.9150	0	26.896	0	374.789	0	-1e10	8	-1e10	8	-1E+10	1	-1E+10	1	-1E+10	1	-1E+10	1	-1E+10	1	-1E+10	1
4902554	97	C	10/16/2023	02:03	-133.628	47.814	0	383.30	0	4.2810	0	33.9200	0	26.901	0	379.738	0	-1e10	8	-1e10	8	-1E+10	1	-1E+10	1	-1E+10	1	-1E+10	1	-1E+10	1	-1E+10	1
4902554	97	C	10/16/2023	02:03	-133.628	47.814	0	388.10	0	4.2720	0	33.9290	0	26.909	0	384.489	0	-1e10	8	-1e10	8	-1E+10	1	-1E+10	1	-1E+10	1	-1E+10	1	-1E+10	1	-1E+10	1
4902554	97	C	10/16/2023	02:03	-133.628	47.814	0	393.00	0	4.2690	0	33.9320	0	26.912	0	389.339	0	-1e10	8	-1e10	8	-1E+10	1	-1E+10	1	-1E+10	1	-1E+10	1	-1E+10	1	-1E+10	1
4902554	97	C	10/16/2023	02:03	-133.628	47.814	0	398.00	0	4.2620	0	33.9390	0	26.918	0	394.287	0	-1e10	8	-1e10	8	-1E+10	1	-1E+10	1	-1E+10	1	-1E+10	1	-1E+10	1	-1E+10	1
4902554	97	C	10/16/2023	02:03	-133.628	47.814	0	402.70	0	4.2570	0	33.9440	0	26.923	0	398.939	0	-1e10	8	-1e10	8	-1E+10	1	-1E+10	1	-1E+10	1	-1E+10	1	-1E+10	1	-1E+10	1
4902554	97	C	10/16/2023	02:03	-133.628	47.814	0	407.90	0	4.2430	0	33.9530	0	26.931	0	404.085	0	-1e10	8	-1e10	8	-1E+10	1	-1E+10	1	-1E+10	1	-1E+10	1	-1E+10	1	-1E+10	1
4902554	97	C	10/16/2023	02:03	-133.628	47.814	0	413.20	0	4.2310	0	33.9610	0	26.939	0	409.331	0	-1e10	8	-1e10	8	-1E+10	1	-1E+10	1	-1E+10	1	-1E+10	1	-1E+10	1	-1E+10	1
4902554	97	C	10/16/2023	02:03	-133.628	47.814	0	418.20	0	4.2260	0	33.9650	0	26.943	0	414.279	0	-1e10	8	-1e10	8	-1E+10	1	-1E+10	1	-1E+10	1	-1E+10	1	-1E+10	1	-1E+10	1
4902554	97	C	10/16/2023	02:03	-133.628	47.814	0	423.20	0	4.2220	0	33.9680	0	26.946	0	419.227	0	-1e10	8	-1e10	8	-1E+10	1	-1E+10	1	-1E+10	1	-1E+10	1	-1E+10	1	-1E+10	1
4902554	97	C	10/16/2023	02:03	-133.628	47.814	0	428.20	0	4.2140	0	33.9750	0	26.952	0	424.175	0	-1e10	8	-1e10	8	-1E+10	1	-1E+10	1	-1E+10	1	-1E+10	1	-1E+10	1	-1E+10	1
4902554	97	C	10/16/2023	02:03	-133.628	47.814	0	433.30	0	4.2000	0	33.9850	0	26.961	0	429.222	0	-1e10	8	-1e10	8	-1E+10	1	-1E+10	1	-1E+10	1	-1E+10	1	-1E+10	1	-1E+10	1
4902554	97	C	10/16/2023	02:03	-133.628	47.814	0	437.90	0	4.1870	0	33.9950	0	26.971	0	433.774	0	-1e10	8	-1e10	8	-1E+10	1	-1E+10	1	-1E+10	1	-1E+10	1	-1E+10	1	-1E+10	1
4902554	97	C	10/16/2023	02:03	-133.628	47.814	0	442.80	0	4.1820	0	33.9990	0	26.974	0	438.622	0	-1e10	8	-1e10	8	-1E+10	1	-1E+10	1	-1E+10	1	-1E+10	1	-1E+10	1	-1E+10	1
4902554	97	C	10/16/2023	02:03	-133.628	47.814	0	448.10	0	4.1750	0	34.0030	0	26.978	0	443.867	0	-1e10	8	-1e10	8	-1E+10	1	-1E+10	1	-1E+10	1	-1E+10	1	-1E+10	1	-1E+10	1
4902554	97	C	10/16/2023	02:03	-133.628	47.814	0	453.10	0	4.1650	0	34.0100	0	26.985	0	448.814	0	-1e10	8	-1e10	8	-1E+10	1	-1E+10	1	-1E+10	1	-1E+10	1	-1E+10	1	-1E+10	1
4902554	97	C	10/16/2023	02:03	-133.628	47.814	0	457.70	0	4.1610	0	34.0160	0	26.990	0	453.365	0	-1e10	8	-1e10	8	-1E+10	1	-1E+10	1	-1E+10	1	-1E+10	1	-1E+10	1	-1E+10	1
4902554	97	C	10/16/2023	02:03	-133.628	47.814	0	462.80	0	4.1530	0	34.0210	0	26.995	0	458.411	0	-1e10	8	-1e10	8	-1E+10	1	-1E+10	1	-1E+10	1	-1E+10	1	-1E+10	1	-1E+10	1
4902554	97	C	10/16/2023	02:03	-133.628	47.814	0	468.00	0	4.1470	0	34.0270	0	27.001	0	463.556	0	-1e10	8	-1e10	8	-1E+10	1	-1E+10	1	-1E+10	1	-1E+10	1	-1E+10	1	-1E+10	1
4902554	97	C	10/16/2023	02:03	-133.628	47.814	0	472.80	0	4.1420	0	34.0330	0	27.006	0	468.305	0	-1e10	8	-1e10	8	-1E+10	1	-1E+10	1	-1E+10	1	-1E+10	1	-1E+10	1	-1E+10	1
4902554	97	C	10/16/2023	02:03	-133.628	47.814	0	477.80	0	4.1350	0	34.0390	0	27.011	0	473.252	0	-1e10	8	-1e10	8	-1E+10	1	-1E+10	1	-1E+10	1	-1E+10	1	-1E+10	1	-1E+10	1
4902554	97	C	10/16/2023	02:03	-133.628	47.814	0	482.70	0	4.1320	0	34.0440	0	27.016	0	478.100	0	-1e10	8	-1e10	8	-1E+10	1	-1E+10	1	-1E+10	1	-1E+10	1	-1E+10	1	-1E+10	1
4902554	97	C	10/16/2023	02:03	-133.628	47.814	0	487.70	0	4.1270	0	34.0490	0	27.020	0	483.046	0	-1e10	8	-1e10	8	-1E+10	1	-1E+10	1	-1E+10	1	-1E+10	1	-1E+10	1	-1E+10	1
4902554	97	C	10/16/2023	02:03	-133.628	47.814	0	492.80	0	4.1180	0	34.0550	0	27.026	0	488.092	0	-1e10	8	-1e10	8	-1E+10	1	-1E+10	1	-1E+10	1	-1E+10	1	-1E+10	1	-1E+10	1
4902554	97	C	10/16/2023	02:03	-133.628	47.814	0	498.00	0	4.1020	0	34.0630	0	27.034	0	493.236	0	-1e10	8	-1e10	8	-1E+10	1	-1E+10	1	-1E+10	1	-1E+10	1	-1E+10	1	-1E+10	1
4902554	97	C	10/16/2023	02:03	-133.628	47.814	0	503.20	0	4.0920	0	34.0690	0	27.040	0	498.380	0	-1e10	8	-1e10	8	-1E+10	1	-1E+10	1	-1E+10	1	-1E+10	1	-1E+10	1	-1E+10	1
4902554	97	C	10/16/2023	02:03	-133.628	47.814	0	508.00	0	4.0840	0	34.0720	0	27.043	0	503.128	0	-1e10	8	-1e10	8	-1E+10	1	-1E+10	1	-1E+10	1	-1E+10	1	-1E+10	1	-1E+10	1
4902554	97	C	10/16/2023	02:03	-133.628	47.814	0	512.70	0	4.0760	0	34.0760	0	27.047	0	507.777	0	-1e10	8	-1e10	8	-1E+10	1	-1E+10	1	-1E+10	1	-1E+10	1	-1E+10	1	-1E+10	1
4902554	97	C	10/16/2023	02:03	-133.628	47.814	0	518.10	0	4.0690	0	34.0790	0	27.050	0	513.119	0	-1e10	8	-1e10	8	-1E+10	1	-1E+10	1	-1E+10	1	-1E+10	1	-1E+10	1	-1E+10	1
4902554	97	C	10/16/2023	02:03	-133.628	47.814	0	522.90	0	4.0620	0	34.0840	0	27.055	0	517.867	0	-1e10	8	-1e10	8	-1E+10	1	-1E+10	1	-1E+10	1	-1E+10	1	-1E+10	1	-1E+10	1
4902554	97	C	10/16/2023	02:03	-133.628	47.814	0	527.70	0	4.0540	0	34.0880	0	27.059	0	522.614	0	-1e10	8	-1e10	8	-1E+10	1	-1E+10	1	-1E+10	1	-1E+10	1	-1E+10	1	-1E+10	1
4902554	97	C	10/16/2023	02:03	-133.628	47.814	0	533.10	0	4.0380	0	34.0950	0	27.066	0	527.955	0	-1e10	8	-1e10	8	-1E+10	1	-1E+10	1	-1E+10	1	-1E+10	1	-1E+10	1	-1E+10	1
4902554	97	C	10/16/2023	02:03	-133.628	47.814	0	537.90	0	4.0260	0	34.1020	0	27.073	0	532.703	0	-1e10	8	-1e10	8	-1E+10	1	-1E+10	1	-1E+10	1	-1E+10	1	-1E+10	1	-1E+10	1
4902554	97	C	10/16/2023	02:03	-133.628	47.814	0	542.70	0	4.0200	0	34.1050	0	27.076	0	537.450	0	-1e10	8	-1e10	8	-1E+10	1	-1E+10	1	-1E+10	1	-1E+10	1	-1E+10	1	-1E+10	1
4902554	97	C	10/16/2023	02:03	-133.628	47.814	0	547.60	0	4.0060	0	34.1110	0	27.082	0	542.297	0	-1e10	8	-1e10	8	-1E+10	1	-1E+10	1	-1E+10	1	-1E+10	1	-1E+10	1	-1E+10	1
4902554	97	C	10/16/2023	02:03	-133.628	47.814	0	552.60	0	3.9940	0	34.1150	0	27.087	0	547.242	0	-1e10	8	-1e10	8	-1E+10	1	-1E+10	1	-1E+10	1	-1E+10	1	-1E+10	1	-1E+10	1
4902554	97	C	10/16/2023	02:03	-133.628	47.814	0	557.60	0	3.9820	0	34.1190	0	27.091	0	552.187	0	-1e10	8	-1e10	8	-1E+10	1	-1E+10	1	-1E+10	1	-1E+10	1	-1E+10	1	-1E+10	1
4902554	97	C	10/16/2023	02:03	-133.628	47.814	0	562.80	0	3.9750	0	34.1220	0	27.094	0	557.329	0	-1e10	8	-1e10	8	-1E+10	1	-1E+10	1	-1E+10	1	-1E+10	1	-1E+10	1	-1E+10	1
4902554	97	C	10/16/2023	02:03	-133.628	47.814	0	568.00	0	3.9710	0	34.1230	0	27.096	0	562.472	0	-1e10	8	-1e10	8	-1E+10	1	-1E+10	1	-1E+10	1	-1E+10	1	-1E+10	1	-1E+10	1
4902554	97	C	10/16/2023	02:03	-133.628	47.814	0	573.20	0	3.9570	0	34.1280	0	27.101	0	567.614	0	-1e10	8	-1e10	8	-1E+10	1	-1E+10	1	-1E+10	1	-1E+10	1	-1E+10	1	-1E+10	1
4902554	97	C	10/16/2023	02:03	-133.628	47.814	0	578.00	0	3.9450	0	34.1330	0	27.106	0	572.360	0	-1e10	8	-1e10	8	-1E+10	1	-1E+10	1	-1E+10	1	-1E+10	1	-1E+10	1	-1E+10	1
4902554	97	C	10/16/2023	02:03	-133.628	47.814	0	582.70	0	3.9310	0	34.1370	0	27.111	0	577.008	0	-1e10	8	-1e10	8	-1E+10	1	-1E+10	1	-1E+10	1	-1E+10	1	-1E+10	1	-1E+10	1
4902554	97	C	10/16/2023	02:03	-133.628	47.814	0	587.90	0	3.9200	0	34.1420	0	27.116	0	582.150	0	-1e10	8	-1e10	8	-1E+10	1	-1E+10	1	-1E+10	1	-1E+10	1	-1E+10	1	-1E+10	1
4902554	97	C	10/16/2023	02:03	-133.628	47.814	0	593.20	0	3.9060	0	34.1470	0	27.122	0	587.391	0	-1e10	8	-1e10	8	-1E+10	1	-1E+10	1	-1E+10	1	-1E+10	1	-1E+10	1	-1E+10	1
4902554	97	C	10/16/2023	02:03	-133.628	47.814	0	598.00	0	3.8930	0	34.1530	0	27.128	0	592.137	0	-1e10	8	-1e10	8	-1E+10	1	-1E+10	1	-1E+10	1	-1E+10	1	-1E+10	1	-1E+10	1
4902554	97	C	10/16/2023	02:03	-133.628	47.814	0	602.80	0	3.8830	0	34.1570	0	27.132	0	596.883	0	-1e10	8	-1e10	8	-1E+10	1	-1E+10	1	-1E+10	1	-1E+10	1	-1E+10	1	-1E+10	1
4902554	97	C	10/16/2023	02:03	-133.628	47.814	0	608.10	0	3.8740	0	34.1600	0	27.135	0	602.123	0	-1e10	8	-1e10	8	-1E+10	1	-1E+10	1	-1E+10	1	-1E+10	1	-1E+10	1	-1E+10	1
4902554	97	C	10/16/2023	02:03	-133.628	47.814	0	613.00	0	3.8600	0	34.1650	0	27.141	0	606.968	0	-1e10	8	-1e10	8	-1E+10	1	-1E+10	1	-1E+10	1	-1E+10	1	-1E+10	1	-1E+10	1
4902554	97	C	10/16/2023	02:03	-133.628	47.814	0	617.90	0	3.8550	0	34.1670	0	27.143	0	611.813	0	-1e10	8	-1e10	8	-1E+10	1	-1E+10	1	-1E+10	1	-1E+10	1	-1E+10	1	-1E+10	1
4902554	97	C	10/16/2023	02:03	-133.628	47.814	0	622.80	0	3.8490	0	34.1680	0	27.144	0	616.657	0	-1e10	8	-1e10	8	-1E+10	1	-1E+10	1	-1E+10	1	-1E+10	1	-1E+10	1	-1E+10	1
4902554	97	C	10/16/2023	02:03	-133.628	47.814	0	627.70	0	3.8400	0	34.1710	0	27.148	0	621.501	0	-1e10	8	-1e10	8	-1E+10	1	-1E+10	1	-1E+10	1	-1E+10	1	-1E+10	1	-1E+10	1
4902554	97	C	10/16/2023	02:03	-133.628	47.814	0	633.00	0	3.8230	0	34.1760	0	27.153	0	626.741	0	-1e10	8	-1e10	8	-1E+10	1	-1E+10	1	-1E+10	1	-1E+10	1	-1E+10	1	-1E+10	1
4902554	97	C	10/16/2023	02:03	-133.628	47.814	0	638.00	0	3.8160	0	34.1790	0	27.156	0	631.684	0	-1e10	8	-1e10	8	-1E+10	1	-1E+10	1	-1E+10	1	-1E+10	1	-1E+10	1	-1E+10	1
4902554	97	C	10/16/2023	02:03	-133.628	47.814	0	642.90	0	3.7980	0	34.1840	0	27.162	0	636.528	0	-1e10	8	-1e10	8	-1E+10	1	-1E+10	1	-1E+10	1	-1E+10	1	-1E+10	1	-1E+10	1
4902554	97	C	10/16/2023	02:03	-133.628	47.814	0	648.20	0	3.7800	0	34.1890	0	27.168	0	641.767	0	-1e10	8	-1e10	8	-1E+10	1	-1E+10	1	-1E+10	1	-1E+10	1	-1E+10	1	-1E+10	1
4902554	97	C	10/16/2023	02:03	-133.628	47.814	0	653.00	0	3.7680	0	34.1920	0	27.172	0	646.512	0	-1e10	8	-1e10	8	-1E+10	1	-1E+10	1	-1E+10	1	-1E+10	1	-1E+10	1	-1E+10	1
4902554	97	C	10/16/2023	02:03	-133.628	47.814	0	657.90	0	3.7510	0	34.1970	0	27.177	0	651.356	0	-1e10	8	-1e10	8	-1E+10	1	-1E+10	1	-1E+10	1	-1E+10	1	-1E+10	1	-1E+10	1
4902554	97	C	10/16/2023	02:03	-133.628	47.814	0	662.90	0	3.7340	0	34.2020	0	27.183	0	656.298	0	-1e10	8	-1e10	8	-1E+10	1	-1E+10	1	-1E+10	1	-1E+10	1	-1E+10	1	-1E+10	1
4902554	97	C	10/16/2023	02:03	-133.628	47.814	0	667.90	0	3.7160	0	34.2070	0	27.189	0	661.241	0	-1e10	8	-1e10	8	-1E+10	1	-1E+10	1	-1E+10	1	-1E+10	1	-1E+10	1	-1E+10	1
4902554	97	C	10/16/2023	02:03	-133.628	47.814	0	672.90	0	3.6990	0	34.2110	0	27.194	0	666.183	0	-1e10	8	-1e10	8	-1E+10	1	-1E+10	1	-1E+10	1	-1E+10	1	-1E+10	1	-1E+10	1
4902554	97	C	10/16/2023	02:03	-133.628	47.814	0	678.00	0	3.6860	0	34.2150	0	27.198	0	671.224	0	-1e10	8	-1e10	8	-1E+10	1	-1E+10	1	-1E+10	1	-1E+10	1	-1E+10	1	-1E+10	1
4902554	97	C	10/16/2023	02:03	-133.628	47.814	0	683.10	0	3.6740	0	34.2170	0	27.201	0	676.264	0	-1e10	8	-1e10	8	-1E+10	1	-1E+10	1	-1E+10	1	-1E+10	1	-1E+10	1	-1E+10	1
4902554	97	C	10/16/2023	02:03	-133.628	47.814	0	687.90	0	3.6630	0	34.2200	0	27.204	0	681.009	0	-1e10	8	-1e10	8	-1E+10	1	-1E+10	1	-1E+10	1	-1E+10	1	-1E+10	1	-1E+10	1
4902554	97	C	10/16/2023	02:03	-133.628	47.814	0	692.60	0	3.6510	0	34.2230	0	27.208	0	685.654	0	-1e10	8	-1e10	8	-1E+10	1	-1E+10	1	-1E+10	1	-1E+10	1	-1E+10	1	-1E+10	1
4902554	97	C	10/16/2023	02:03	-133.628	47.814	0	697.90	0	3.6360	0	34.2270	0	27.213	0	690.892	0	-1e10	8	-1e10	8	-1E+10	1	-1E+10	1	-1E+10	1	-1E+10	1	-1E+10	1	-1E+10	1
4902554	97	C	10/16/2023	02:03	-133.628	47.814	0	703.30	0	3.6240	0	34.2300	0	27.216	0	696.229	0	-1e10	8	-1e10	8	-1E+10	1	-1E+10	1	-1E+10	1	-1E+10	1	-1E+10	1	-1E+10	1
4902554	97	C	10/16/2023	02:03	-133.628	47.814	0	708.30	0	3.6150	0	34.2330	0	27.220	0	701.170	0	-1e10	8	-1e10	8	-1E+10	1	-1E+10	1	-1E+10	1	-1E+10	1	-1E+10	1	-1E+10	1
4902554	97	C	10/16/2023	02:03	-133.628	47.814	0	713.40	0	3.6040	0	34.2360	0	27.223	0	706.210	0	-1e10	8	-1e10	8	-1E+10	1	-1E+10	1	-1E+10	1	-1E+10	1	-1E+10	1	-1E+10	1
4902554	97	C	10/16/2023	02:03	-133.628	47.814	0	717.90	0	3.5940	0	34.2380	0	27.226	0	710.657	0	-1e10	8	-1e10	8	-1E+10	1	-1E+10	1	-1E+10	1	-1E+10	1	-1E+10	1	-1E+10	1
4902554	97	C	10/16/2023	02:03	-133.628	47.814	0	722.60	0	3.5880	0	34.2390	0	27.227	0	715.301	0	-1e10	8	-1e10	8	-1E+10	1	-1E+10	1	-1E+10	1	-1E+10	1	-1E+10	1	-1E+10	1
4902554	97	C	10/16/2023	02:03	-133.628	47.814	0	727.90	0	3.5770	0	34.2420	0	27.231	0	720.539	0	-1e10	8	-1e10	8	-1E+10	1	-1E+10	1	-1E+10	1	-1E+10	1	-1E+10	1	-1E+10	1
4902554	97	C	10/16/2023	02:03	-133.628	47.814	0	733.10	0	3.5670	0	34.2440	0	27.233	0	725.677	0	-1e10	8	-1e10	8	-1E+10	1	-1E+10	1	-1E+10	1	-1E+10	1	-1E+10	1	-1E+10	1
4902554	97	C	10/16/2023	02:03	-133.628	47.814	0	738.00	0	3.5600	0	34.2470	0	27.236	0	730.519	0	-1e10	8	-1e10	8	-1E+10	1	-1E+10	1	-1E+10	1	-1E+10	1	-1E+10	1	-1E+10	1
4902554	97	C	10/16/2023	02:03	-133.628	47.814	0	743.10	0	3.5530	0	34.2490	0	27.239	0	735.558	0	-1e10	8	-1e10	8	-1E+10	1	-1E+10	1	-1E+10	1	-1E+10	1	-1E+10	1	-1E+10	1
4902554	97	C	10/16/2023	02:03	-133.628	47.814	0	747.80	0	3.5400	0	34.2530	0	27.243	0	740.202	0	-1e10	8	-1e10	8	-1E+10	1	-1E+10	1	-1E+10	1	-1E+10	1	-1E+10	1	-1E+10	1
4902554	97	C	10/16/2023	02:03	-133.628	47.814	0	752.70	0	3.5300	0	34.2550	0	27.246	0	745.044	0	-1e10	8	-1e10	8	-1E+10	1	-1E+10	1	-1E+10	1	-1E+10	1	-1E+10	1	-1E+10	1
4902554	97	C	10/16/2023	02:03	-133.628	47.814	0	757.70	0	3.5190	0	34.2580	0	27.249	0	749.984	0	-1e10	8	-1e10	8	-1E+10	1	-1E+10	1	-1E+10	1	-1E+10	1	-1E+10	1	-1E+10	1
4902554	97	C	10/16/2023	02:03	-133.628	47.814	0	762.70	0	3.5120	0	34.2600	0	27.252	0	754.924	0	-1e10	8	-1e10	8	-1E+10	1	-1E+10	1	-1E+10	1	-1E+10	1	-1E+10	1	-1E+10	1
4902554	97	C	10/16/2023	02:03	-133.628	47.814	0	767.90	0	3.5020	0	34.2630	0	27.255	0	760.061	0	-1e10	8	-1e10	8	-1E+10	1	-1E+10	1	-1E+10	1	-1E+10	1	-1E+10	1	-1E+10	1
4902554	97	C	10/16/2023	02:03	-133.628	47.814	0	772.60	0	3.4980	0	34.2640	0	27.256	0	764.705	0	-1e10	8	-1e10	8	-1E+10	1	-1E+10	1	-1E+10	1	-1E+10	1	-1E+10	1	-1E+10	1
4902554	97	C	10/16/2023	02:03	-133.628	47.814	0	777.80	0	3.4890	0	34.2680	0	27.260	0	769.842	0	-1e10	8	-1e10	8	-1E+10	1	-1E+10	1	-1E+10	1	-1E+10	1	-1E+10	1	-1E+10	1
4902554	97	C	10/16/2023	02:03	-133.628	47.814	0	783.20	0	3.4710	0	34.2720	0	27.265	0	775.177	0	-1e10	8	-1e10	8	-1E+10	1	-1E+10	1	-1E+10	1	-1E+10	1	-1E+10	1	-1E+10	1
4902554	97	C	10/16/2023	02:03	-133.628	47.814	0	788.10	0	3.4610	0	34.2750	0	27.269	0	780.017	0	-1e10	8	-1e10	8	-1E+10	1	-1E+10	1	-1E+10	1	-1E+10	1	-1E+10	1	-1E+10	1
4902554	97	C	10/16/2023	02:03	-133.628	47.814	0	793.00	0	3.4450	0	34.2770	0	27.272	0	784.858	0	-1e10	8	-1e10	8	-1E+10	1	-1E+10	1	-1E+10	1	-1E+10	1	-1E+10	1	-1E+10	1
4902554	97	C	10/16/2023	02:03	-133.628	47.814	0	798.00	0	3.4310	0	34.2800	0	27.275	0	789.797	0	-1e10	8	-1e10	8	-1E+10	1	-1E+10	1	-1E+10	1	-1E+10	1	-1E+10	1	-1E+10	1
4902554	97	C	10/16/2023	02:03	-133.628	47.814	0	803.00	0	3.4230	0	34.2840	0	27.279	0	794.736	0	-1e10	8	-1e10	8	-1E+10	1	-1E+10	1	-1E+10	1	-1E+10	1	-1E+10	1	-1E+10	1
4902554	97	C	10/16/2023	02:03	-133.628	47.814	0	808.00	0	3.4170	0	34.2870	0	27.282	0	799.675	0	-1e10	8	-1e10	8	-1E+10	1	-1E+10	1	-1E+10	1	-1E+10	1	-1E+10	1	-1E+10	1
4902554	97	C	10/16/2023	02:03	-133.628	47.814	0	813.00	0	3.4110	0	34.2890	0	27.285	0	804.614	0	-1e10	8	-1e10	8	-1E+10	1	-1E+10	1	-1E+10	1	-1E+10	1	-1E+10	1	-1E+10	1
4902554	97	C	10/16/2023	02:03	-133.628	47.814	0	818.10	0	3.4030	0	34.2910	0	27.287	0	809.652	0	-1e10	8	-1e10	8	-1E+10	1	-1E+10	1	-1E+10	1	-1E+10	1	-1E+10	1	-1E+10	1
4902554	97	C	10/16/2023	02:03	-133.628	47.814	0	823.20	0	3.3960	0	34.2930	0	27.289	0	814.689	0	-1e10	8	-1e10	8	-1E+10	1	-1E+10	1	-1E+10	1	-1E+10	1	-1E+10	1	-1E+10	1
4902554	97	C	10/16/2023	02:03	-133.628	47.814	0	828.30	0	3.3800	0	34.2960	0	27.293	0	819.726	0	-1e10	8	-1e10	8	-1E+10	1	-1E+10	1	-1E+10	1	-1E+10	1	-1E+10	1	-1E+10	1
4902554	97	C	10/16/2023	02:03	-133.628	47.814	0	833.00	0	3.3730	0	34.2970	0	27.295	0	824.368	0	-1e10	8	-1e10	8	-1E+10	1	-1E+10	1	-1E+10	1	-1E+10	1	-1E+10	1	-1E+10	1
4902554	97	C	10/16/2023	02:03	-133.628	47.814	0	837.60	0	3.3680	0	34.2980	0	27.296	0	828.912	0	-1e10	8	-1e10	8	-1E+10	1	-1E+10	1	-1E+10	1	-1E+10	1	-1E+10	1	-1E+10	1
4902554	97	C	10/16/2023	02:03	-133.628	47.814	0	842.90	0	3.3580	0	34.3010	0	27.299	0	834.146	0	-1e10	8	-1e10	8	-1E+10	1	-1E+10	1	-1E+10	1	-1E+10	1	-1E+10	1	-1E+10	1
4902554	97	C	10/16/2023	02:03	-133.628	47.814	0	848.10	0	3.3460	0	34.3040	0	27.303	0	839.282	0	-1e10	8	-1e10	8	-1E+10	1	-1E+10	1	-1E+10	1	-1E+10	1	-1E+10	1	-1E+10	1
4902554	97	C	10/16/2023	02:03	-133.628	47.814	0	853.30	0	3.3330	0	34.3060	0	27.306	0	844.417	0	-1e10	8	-1e10	8	-1E+10	1	-1E+10	1	-1E+10	1	-1E+10	1	-1E+10	1	-1E+10	1
4902554	97	C	10/16/2023	02:03	-133.628	47.814	0	858.00	0	3.3270	0	34.3080	0	27.308	0	849.059	0	-1e10	8	-1e10	8	-1E+10	1	-1E+10	1	-1E+10	1	-1E+10	1	-1E+10	1	-1E+10	1
4902554	97	C	10/16/2023	02:03	-133.628	47.814	0	862.60	0	3.3190	0	34.3090	0	27.310	0	853.601	0	-1e10	8	-1e10	8	-1E+10	1	-1E+10	1	-1E+10	1	-1E+10	1	-1E+10	1	-1E+10	1
4902554	97	C	10/16/2023	02:03	-133.628	47.814	0	867.90	0	3.3120	0	34.3110	0	27.312	0	858.835	0	-1e10	8	-1e10	8	-1E+10	1	-1E+10	1	-1E+10	1	-1E+10	1	-1E+10	1	-1E+10	1
4902554	97	C	10/16/2023	02:03	-133.628	47.814	0	873.10	0	3.3030	0	34.3130	0	27.314	0	863.970	0	-1e10	8	-1e10	8	-1E+10	1	-1E+10	1	-1E+10	1	-1E+10	1	-1E+10	1	-1E+10	1
4902554	97	C	10/16/2023	02:03	-133.628	47.814	0	877.90	0	3.2960	0	34.3150	0	27.317	0	868.710	0	-1e10	8	-1e10	8	-1E+10	1	-1E+10	1	-1E+10	1	-1E+10	1	-1E+10	1	-1E+10	1
4902554	97	C	10/16/2023	02:03	-133.628	47.814	0	882.60	0	3.2880	0	34.3160	0	27.318	0	873.351	0	-1e10	8	-1e10	8	-1E+10	1	-1E+10	1	-1E+10	1	-1E+10	1	-1E+10	1	-1E+10	1
4902554	97	C	10/16/2023	02:03	-133.628	47.814	0	888.20	0	3.2790	0	34.3180	0	27.321	0	878.880	0	-1e10	8	-1e10	8	-1E+10	1	-1E+10	1	-1E+10	1	-1E+10	1	-1E+10	1	-1E+10	1
4902554	97	C	10/16/2023	02:03	-133.628	47.814	0	893.20	0	3.2730	0	34.3200	0	27.323	0	883.817	0	-1e10	8	-1e10	8	-1E+10	1	-1E+10	1	-1E+10	1	-1E+10	1	-1E+10	1	-1E+10	1
4902554	97	C	10/16/2023	02:03	-133.628	47.814	0	898.00	0	3.2650	0	34.3220	0	27.325	0	888.557	0	-1e10	8	-1e10	8	-1E+10	1	-1E+10	1	-1E+10	1	-1E+10	1	-1E+10	1	-1E+10	1
4902554	97	C	10/16/2023	02:03	-133.628	47.814	0	902.90	0	3.2560	0	34.3240	0	27.328	0	893.395	0	-1e10	8	-1e10	8	-1E+10	1	-1E+10	1	-1E+10	1	-1E+10	1	-1E+10	1	-1E+10	1
4902554	97	C	10/16/2023	02:03	-133.628	47.814	0	907.80	0	3.2460	0	34.3280	0	27.332	0	898.233	0	-1e10	8	-1e10	8	-1E+10	1	-1E+10	1	-1E+10	1	-1E+10	1	-1E+10	1	-1E+10	1
4902554	97	C	10/16/2023	02:03	-133.628	47.814	0	912.80	0	3.2380	0	34.3310	0	27.335	0	903.169	0	-1e10	8	-1e10	8	-1E+10	1	-1E+10	1	-1E+10	1	-1E+10	1	-1E+10	1	-1E+10	1
4902554	97	C	10/16/2023	02:03	-133.628	47.814	0	917.80	0	3.2320	0	34.3320	0	27.336	0	908.106	0	-1e10	8	-1e10	8	-1E+10	1	-1E+10	1	-1E+10	1	-1E+10	1	-1E+10	1	-1E+10	1
4902554	97	C	10/16/2023	02:03	-133.628	47.814	0	922.90	0	3.2250	0	34.3320	0	27.337	0	913.141	0	-1e10	8	-1e10	8	-1E+10	1	-1E+10	1	-1E+10	1	-1E+10	1	-1E+10	1	-1E+10	1
4902554	97	C	10/16/2023	02:03	-133.628	47.814	0	928.00	0	3.2100	0	34.3340	0	27.340	0	918.176	0	-1e10	8	-1e10	8	-1E+10	1	-1E+10	1	-1E+10	1	-1E+10	1	-1E+10	1	-1E+10	1
4902554	97	C	10/16/2023	02:03	-133.628	47.814	0	932.80	0	3.2030	0	34.3360	0	27.342	0	922.914	0	-1e10	8	-1e10	8	-1E+10	1	-1E+10	1	-1E+10	1	-1E+10	1	-1E+10	1	-1E+10	1
4902554	97	C	10/16/2023	02:03	-133.628	47.814	0	937.70	0	3.1960	0	34.3370	0	27.344	0	927.751	0	-1e10	8	-1e10	8	-1E+10	1	-1E+10	1	-1E+10	1	-1E+10	1	-1E+10	1	-1E+10	1
4902554	97	C	10/16/2023	02:03	-133.628	47.814	0	943.00	0	3.1860	0	34.3390	0	27.346	0	932.983	0	-1e10	8	-1e10	8	-1E+10	1	-1E+10	1	-1E+10	1	-1E+10	1	-1E+10	1	-1E+10	1
4902554	97	C	10/16/2023	02:03	-133.628	47.814	0	948.00	0	3.1810	0	34.3410	0	27.348	0	937.919	0	-1e10	8	-1e10	8	-1E+10	1	-1E+10	1	-1E+10	1	-1E+10	1	-1E+10	1	-1E+10	1
4902554	97	C	10/16/2023	02:03	-133.628	47.814	0	952.90	0	3.1710	0	34.3430	0	27.351	0	942.756	0	-1e10	8	-1e10	8	-1E+10	1	-1E+10	1	-1E+10	1	-1E+10	1	-1E+10	1	-1E+10	1
4902554	97	C	10/16/2023	02:03	-133.628	47.814	0	958.20	0	3.1640	0	34.3440	0	27.352	0	947.988	0	-1e10	8	-1e10	8	-1E+10	1	-1E+10	1	-1E+10	1	-1E+10	1	-1E+10	1	-1E+10	1
4902554	97	C	10/16/2023	02:03	-133.628	47.814	0	962.70	0	3.1610	0	34.3450	0	27.354	0	952.429	0	-1e10	8	-1e10	8	-1E+10	1	-1E+10	1	-1E+10	1	-1E+10	1	-1E+10	1	-1E+10	1
4902554	97	C	10/16/2023	02:03	-133.628	47.814	0	967.90	0	3.1450	0	34.3490	0	27.358	0	957.562	0	-1e10	8	-1e10	8	-1E+10	1	-1E+10	1	-1E+10	1	-1E+10	1	-1E+10	1	-1E+10	1
4902554	97	C	10/16/2023	02:03	-133.628	47.814	0	973.10	0	3.1320	0	34.3530	0	27.363	0	962.694	0	-1e10	8	-1e10	8	-1E+10	1	-1E+10	1	-1E+10	1	-1E+10	1	-1E+10	1	-1E+10	1
4902554	97	C	10/16/2023	02:03	-133.628	47.814	0	977.80	0	3.1270	0	34.3540	0	27.364	0	967.333	0	-1e10	8	-1e10	8	-1E+10	1	-1E+10	1	-1E+10	1	-1E+10	1	-1E+10	1	-1E+10	1
4902554	97	C	10/16/2023	02:03	-133.628	47.814	0	982.60	0	3.1180	0	34.3560	0	27.366	0	972.071	0	-1e10	8	-1e10	8	-1E+10	1	-1E+10	1	-1E+10	1	-1E+10	1	-1E+10	1	-1E+10	1
4902554	97	C	10/16/2023	02:03	-133.628	47.814	0	987.90	0	3.1080	0	34.3580	0	27.369	0	977.302	0	-1e10	8	-1e10	8	-1E+10	1	-1E+10	1	-1E+10	1	-1E+10	1	-1E+10	1	-1E+10	1
4902554	97	C	10/16/2023	02:03	-133.628	47.814	0	993.20	0	3.1030	0	34.3600	0	27.371	0	982.532	0	-1e10	8	-1e10	8	-1E+10	1	-1E+10	1	-1E+10	1	-1E+10	1	-1E+10	1	-1E+10	1
4902554	97	C	10/16/2023	02:03	-133.628	47.814	0	997.90	0	3.0950	0	34.3610	0	27.373	0	987.171	0	-1e10	8	-1e10	8	-1E+10	1	-1E+10	1	-1E+10	1	-1E+10	1	-1E+10	1	-1E+10	1
4902554	97	C	10/16/2023	02:03	-133.628	47.814	0	1005.60	0	3.0750	0	34.3660	0	27.378	0	994.770	0	-1e10	8	-1e10	8	-1E+10	1	-1E+10	1	-1E+10	1	-1E+10	1	-1E+10	1	-1E+10	1
4902554	97	C	10/16/2023	02:03	-133.628	47.814	0	1015.80	0	3.0590	0	34.3700	0	27.383	0	1004.836	0	-1e10	8	-1e10	8	-1E+10	1	-1E+10	1	-1E+10	1	-1E+10	1	-1E+10	1	-1E+10	1
4902554	97	C	10/16/2023	02:03	-133.628	47.814	0	1025.60	0	3.0430	0	34.3740	0	27.388	0	1014.506	0	-1e10	8	-1e10	8	-1E+10	1	-1E+10	1	-1E+10	1	-1E+10	1	-1E+10	1	-1E+10	1
4902554	97	C	10/16/2023	02:03	-133.628	47.814	0	1035.30	0	3.0270	0	34.3770	0	27.392	0	1024.078	0	-1e10	8	-1e10	8	-1E+10	1	-1E+10	1	-1E+10	1	-1E+10	1	-1E+10	1	-1E+10	1
4902554	97	C	10/16/2023	02:03	-133.628	47.814	0	1045.40	0	3.0080	0	34.3820	0	27.398	0	1034.043	0	-1e10	8	-1e10	8	-1E+10	1	-1E+10	1	-1E+10	1	-1E+10	1	-1E+10	1	-1E+10	1
4902554	97	C	10/16/2023	02:03	-133.628	47.814	0	1055.80	0	2.9940	0	34.3860	0	27.402	0	1044.304	0	-1e10	8	-1e10	8	-1E+10	1	-1E+10	1	-1E+10	1	-1E+10	1	-1E+10	1	-1E+10	1
4902554	97	C	10/16/2023	02:03	-133.628	47.814	0	1065.70	0	2.9860	0	34.3890	0	27.405	0	1054.072	0	-1e10	8	-1e10	8	-1E+10	1	-1E+10	1	-1E+10	1	-1E+10	1	-1E+10	1	-1E+10	1
4902554	97	C	10/16/2023	02:03	-133.628	47.814	0	1075.40	0	2.9770	0	34.3930	0	27.409	0	1063.641	0	-1e10	8	-1e10	8	-1E+10	1	-1E+10	1	-1E+10	1	-1E+10	1	-1E+10	1	-1E+10	1
4902554	97	C	10/16/2023	02:03	-133.628	47.814	0	1085.10	0	2.9650	0	34.3970	0	27.414	0	1073.210	0	-1e10	8	-1e10	8	-1E+10	1	-1E+10	1	-1E+10	1	-1E+10	1	-1E+10	1	-1E+10	1
4902554	97	C	10/16/2023	02:03	-133.628	47.814	0	1095.40	0	2.9490	0	34.4010	0	27.418	0	1083.371	0	-1e10	8	-1e10	8	-1E+10	1	-1E+10	1	-1E+10	1	-1E+10	1	-1E+10	1	-1E+10	1
4902554	97	C	10/16/2023	02:03	-133.628	47.814	0	1105.40	0	2.9350	0	34.4050	0	27.423	0	1093.235	0	-1e10	8	-1e10	8	-1E+10	1	-1E+10	1	-1E+10	1	-1E+10	1	-1E+10	1	-1E+10	1
4902554	97	C	10/16/2023	02:03	-133.628	47.814	0	1115.10	0	2.9190	0	34.4080	0	27.427	0	1102.803	0	-1e10	8	-1e10	8	-1E+10	1	-1E+10	1	-1E+10	1	-1E+10	1	-1E+10	1	-1E+10	1
4902554	97	C	10/16/2023	02:03	-133.628	47.814	0	1125.50	0	2.9060	0	34.4120	0	27.431	0	1113.061	0	-1e10	8	-1e10	8	-1E+10	1	-1E+10	1	-1E+10	1	-1E+10	1	-1E+10	1	-1E+10	1
4902554	97	C	10/16/2023	02:03	-133.628	47.814	0	1135.50	0	2.8910	0	34.4150	0	27.435	0	1122.923	0	-1e10	8	-1e10	8	-1E+10	1	-1E+10	1	-1E+10	1	-1E+10	1	-1E+10	1	-1E+10	1
4902554	97	C	10/16/2023	02:03	-133.628	47.814	0	1145.70	0	2.8830	0	34.4190	0	27.439	0	1132.983	0	-1e10	8	-1e10	8	-1E+10	1	-1E+10	1	-1E+10	1	-1E+10	1	-1E+10	1	-1E+10	1
4902554	97	C	10/16/2023	02:03	-133.628	47.814	0	1155.40	0	2.8780	0	34.4220	0	27.442	0	1142.549	0	-1e10	8	-1e10	8	-1E+10	1	-1E+10	1	-1E+10	1	-1E+10	1	-1E+10	1	-1E+10	1
4902554	97	C	10/16/2023	02:03	-133.628	47.814	0	1165.40	0	2.8670	0	34.4230	0	27.444	0	1152.410	0	-1e10	8	-1e10	8	-1E+10	1	-1E+10	1	-1E+10	1	-1E+10	1	-1E+10	1	-1E+10	1
4902554	97	C	10/16/2023	02:03	-133.628	47.814	0	1175.70	0	2.8680	0	34.4280	0	27.448	0	1162.567	0	-1e10	8	-1e10	8	-1E+10	1	-1E+10	1	-1E+10	1	-1E+10	1	-1E+10	1	-1E+10	1
4902554	97	C	10/16/2023	02:03	-133.628	47.814	0	1185.50	0	2.8500	0	34.4310	0	27.452	0	1172.230	0	-1e10	8	-1e10	8	-1E+10	1	-1E+10	1	-1E+10	1	-1E+10	1	-1E+10	1	-1E+10	1
4902554	97	C	10/16/2023	02:03	-133.628	47.814	0	1195.50	0	2.8380	0	34.4340	0	27.455	0	1182.090	0	-1e10	8	-1e10	8	-1E+10	1	-1E+10	1	-1E+10	1	-1E+10	1	-1E+10	1	-1E+10	1
4902554	97	C	10/16/2023	02:03	-133.628	47.814	0	1205.60	0	2.8330	0	34.4370	0	27.458	0	1192.048	0	-1e10	8	-1e10	8	-1E+10	1	-1E+10	1	-1E+10	1	-1E+10	1	-1E+10	1	-1E+10	1
4902554	97	C	10/16/2023	02:03	-133.628	47.814	0	1215.70	0	2.8270	0	34.4400	0	27.461	0	1202.006	0	-1e10	8	-1e10	8	-1E+10	1	-1E+10	1	-1E+10	1	-1E+10	1	-1E+10	1	-1E+10	1
4902554	97	C	10/16/2023	02:03	-133.628	47.814	0	1225.60	0	2.8110	0	34.4420	0	27.464	0	1211.766	0	-1e10	8	-1e10	8	-1E+10	1	-1E+10	1	-1E+10	1	-1E+10	1	-1E+10	1	-1E+10	1
4902554	97	C	10/16/2023	02:03	-133.628	47.814	0	1235.10	0	2.7900	0	34.4440	0	27.468	0	1221.131	0	-1e10	8	-1e10	8	-1E+10	1	-1E+10	1	-1E+10	1	-1E+10	1	-1E+10	1	-1E+10	1
4902554	97	C	10/16/2023	02:03	-133.628	47.814	0	1245.20	0	2.7720	0	34.4490	0	27.473	0	1231.087	0	-1e10	8	-1e10	8	-1E+10	1	-1E+10	1	-1E+10	1	-1E+10	1	-1E+10	1	-1E+10	1
4902554	97	C	10/16/2023	02:03	-133.628	47.814	0	1255.40	0	2.7420	0	34.4510	0	27.477	0	1241.142	0	-1e10	8	-1e10	8	-1E+10	1	-1E+10	1	-1E+10	1	-1E+10	1	-1E+10	1	-1E+10	1
4902554	97	C	10/16/2023	02:03	-133.628	47.814	0	1265.30	0	2.7150	0	34.4510	0	27.480	0	1250.900	0	-1e10	8	-1e10	8	-1E+10	1	-1E+10	1	-1E+10	1	-1E+10	1	-1E+10	1	-1E+10	1
4902554	97	C	10/16/2023	02:03	-133.628	47.814	0	1275.50	0	2.6920	0	34.4530	0	27.483	0	1260.953	0	-1e10	8	-1e10	8	-1E+10	1	-1E+10	1	-1E+10	1	-1E+10	1	-1E+10	1	-1E+10	1
4902554	97	C	10/16/2023	02:03	-133.628	47.814	0	1285.60	0	2.6750	0	34.4570	0	27.488	0	1270.907	0	-1e10	8	-1e10	8	-1E+10	1	-1E+10	1	-1E+10	1	-1E+10	1	-1E+10	1	-1E+10	1
4902554	97	C	10/16/2023	02:03	-133.628	47.814	0	1295.20	0	2.6670	0	34.4590	0	27.491	0	1280.369	0	-1e10	8	-1e10	8	-1E+10	1	-1E+10	1	-1E+10	1	-1E+10	1	-1E+10	1	-1E+10	1
4902554	97	C	10/16/2023	02:03	-133.628	47.814	0	1305.10	0	2.6510	0	34.4620	0	27.494	0	1290.125	0	-1e10	8	-1e10	8	-1E+10	1	-1E+10	1	-1E+10	1	-1E+10	1	-1E+10	1	-1E+10	1
4902554	97	C	10/16/2023	02:03	-133.628	47.814	0	1315.40	0	2.6400	0	34.4630	0	27.496	0	1300.275	0	-1e10	8	-1e10	8	-1E+10	1	-1E+10	1	-1E+10	1	-1E+10	1	-1E+10	1	-1E+10	1
4902554	97	C	10/16/2023	02:03	-133.628	47.814	0	1325.60	0	2.6130	0	34.4660	0	27.501	0	1310.326	0	-1e10	8	-1e10	8	-1E+10	1	-1E+10	1	-1E+10	1	-1E+10	1	-1E+10	1	-1E+10	1
4902554	97	C	10/16/2023	02:03	-133.628	47.814	0	1335.40	0	2.5960	0	34.4690	0	27.505	0	1319.982	0	-1e10	8	-1e10	8	-1E+10	1	-1E+10	1	-1E+10	1	-1E+10	1	-1E+10	1	-1E+10	1
4902554	97	C	10/16/2023	02:03	-133.628	47.814	0	1345.30	0	2.5730	0	34.4720	0	27.509	0	1329.737	0	-1e10	8	-1e10	8	-1E+10	1	-1E+10	1	-1E+10	1	-1E+10	1	-1E+10	1	-1E+10	1
4902554	97	C	10/16/2023	02:03	-133.628	47.814	0	1355.20	0	2.5580	0	34.4750	0	27.513	0	1339.491	0	-1e10	8	-1e10	8	-1E+10	1	-1E+10	1	-1E+10	1	-1E+10	1	-1E+10	1	-1E+10	1
4902554	97	C	10/16/2023	02:03	-133.628	47.814	0	1365.20	0	2.5450	0	34.4780	0	27.517	0	1349.343	0	-1e10	8	-1e10	8	-1E+10	1	-1E+10	1	-1E+10	1	-1E+10	1	-1E+10	1	-1E+10	1
4902554	97	C	10/16/2023	02:03	-133.628	47.814	0	1375.50	0	2.5280	0	34.4790	0	27.519	0	1359.490	0	-1e10	8	-1e10	8	-1E+10	1	-1E+10	1	-1E+10	1	-1E+10	1	-1E+10	1	-1E+10	1
4902554	97	C	10/16/2023	02:03	-133.628	47.814	0	1385.70	0	2.5100	0	34.4810	0	27.522	0	1369.538	0	-1e10	8	-1e10	8	-1E+10	1	-1E+10	1	-1E+10	1	-1E+10	1	-1E+10	1	-1E+10	1
4902554	97	C	10/16/2023	02:03	-133.628	47.814	0	1395.40	0	2.4920	0	34.4850	0	27.527	0	1379.094	0	-1e10	8	-1e10	8	-1E+10	1	-1E+10	1	-1E+10	1	-1E+10	1	-1E+10	1	-1E+10	1
4902554	97	C	10/16/2023	02:03	-133.628	47.814	0	1405.30	0	2.4870	0	34.4890	0	27.530	0	1388.845	0	-1e10	8	-1e10	8	-1E+10	1	-1E+10	1	-1E+10	1	-1E+10	1	-1E+10	1	-1E+10	1
4902554	97	C	10/16/2023	02:03	-133.628	47.814	0	1415.70	0	2.4750	0	34.4910	0	27.533	0	1399.089	0	-1e10	8	-1e10	8	-1E+10	1	-1E+10	1	-1E+10	1	-1E+10	1	-1E+10	1	-1E+10	1
4902554	97	C	10/16/2023	02:03	-133.628	47.814	0	1425.60	0	2.4490	0	34.4930	0	27.537	0	1408.840	0	-1e10	8	-1e10	8	-1E+10	1	-1E+10	1	-1E+10	1	-1E+10	1	-1E+10	1	-1E+10	1
4902554	97	C	10/16/2023	02:03	-133.628	47.814	0	1435.40	0	2.4300	0	34.4960	0	27.541	0	1418.492	0	-1e10	8	-1e10	8	-1E+10	1	-1E+10	1	-1E+10	1	-1E+10	1	-1E+10	1	-1E+10	1
4902554	97	C	10/16/2023	02:03	-133.628	47.814	0	1445.40	0	2.4160	0	34.4980	0	27.544	0	1428.340	0	-1e10	8	-1e10	8	-1E+10	1	-1E+10	1	-1E+10	1	-1E+10	1	-1E+10	1	-1E+10	1
4902554	97	C	10/16/2023	02:03	-133.628	47.814	0	1455.50	0	2.4040	0	34.5000	0	27.546	0	1438.287	0	-1e10	8	-1e10	8	-1E+10	1	-1E+10	1	-1E+10	1	-1E+10	1	-1E+10	1	-1E+10	1
4902554	97	C	10/16/2023	02:03	-133.628	47.814	0	1465.40	0	2.3900	0	34.5030	0	27.550	0	1448.036	0	-1e10	8	-1e10	8	-1E+10	1	-1E+10	1	-1E+10	1	-1E+10	1	-1E+10	1	-1E+10	1
4902554	97	C	10/16/2023	02:03	-133.628	47.814	0	1475.40	0	2.3840	0	34.5060	0	27.553	0	1457.883	0	-1e10	8	-1e10	8	-1E+10	1	-1E+10	1	-1E+10	1	-1E+10	1	-1E+10	1	-1E+10	1
4902554	97	C	10/16/2023	02:03	-133.628	47.814	0	1486.00	0	2.3750	0	34.5090	0	27.556	0	1468.320	0	-1e10	8	-1e10	8	-1E+10	1	-1E+10	1	-1E+10	1	-1E+10	1	-1E+10	1	-1E+10	1
4902554	97	C	10/16/2023	02:03	-133.628	47.814	0	1495.50	0	2.3700	0	34.5130	0	27.560	0	1477.674	0	-1e10	8	-1e10	8	-1E+10	1	-1E+10	1	-1E+10	1	-1E+10	1	-1E+10	1	-1E+10	1
4902554	97	C	10/16/2023	02:03	-133.628	47.814	0	1505.40	0	2.3590	0	34.5150	0	27.562	0	1487.421	0	-1e10	8	-1e10	8	-1E+10	1	-1E+10	1	-1E+10	1	-1E+10	1	-1E+10	1	-1E+10	1
4902554	97	C	10/16/2023	02:03	-133.628	47.814	0	1515.30	0	2.3450	0	34.5170	0	27.565	0	1497.168	0	-1e10	8	-1e10	8	-1E+10	1	-1E+10	1	-1E+10	1	-1E+10	1	-1E+10	1	-1E+10	1
4902554	97	C	10/16/2023	02:03	-133.628	47.814	0	1525.60	0	2.3320	0	34.5180	0	27.567	0	1507.308	0	-1e10	8	-1e10	8	-1E+10	1	-1E+10	1	-1E+10	1	-1E+10	1	-1E+10	1	-1E+10	1
4902554	97	C	10/16/2023	02:03	-133.628	47.814	0	1535.60	0	2.3240	0	34.5180	0	27.568	0	1517.152	0	-1e10	8	-1e10	8	-1E+10	1	-1E+10	1	-1E+10	1	-1E+10	1	-1E+10	1	-1E+10	1
4902554	97	C	10/16/2023	02:03	-133.628	47.814	0	1545.30	0	2.3070	0	34.5200	0	27.571	0	1526.700	0	-1e10	8	-1e10	8	-1E+10	1	-1E+10	1	-1E+10	1	-1E+10	1	-1E+10	1	-1E+10	1
4902554	97	C	10/16/2023	02:03	-133.628	47.814	0	1555.10	0	2.2960	0	34.5220	0	27.573	0	1536.347	0	-1e10	8	-1e10	8	-1E+10	1	-1E+10	1	-1E+10	1	-1E+10	1	-1E+10	1	-1E+10	1
4902554	97	C	10/16/2023	02:03	-133.628	47.814	0	1565.20	0	2.2860	0	34.5230	0	27.575	0	1546.288	0	-1e10	8	-1e10	8	-1E+10	1	-1E+10	1	-1E+10	1	-1E+10	1	-1E+10	1	-1E+10	1
4902554	97	C	10/16/2023	02:03	-133.628	47.814	0	1575.30	0	2.2710	0	34.5250	0	27.578	0	1556.229	0	-1e10	8	-1e10	8	-1E+10	1	-1E+10	1	-1E+10	1	-1E+10	1	-1E+10	1	-1E+10	1
4902554	97	C	10/16/2023	02:03	-133.628	47.814	0	1585.50	0	2.2590	0	34.5270	0	27.581	0	1566.268	0	-1e10	8	-1e10	8	-1E+10	1	-1E+10	1	-1E+10	1	-1E+10	1	-1E+10	1	-1E+10	1
4902554	97	C	10/16/2023	02:03	-133.628	47.814	0	1595.30	0	2.2520	0	34.5280	0	27.582	0	1575.913	0	-1e10	8	-1e10	8	-1E+10	1	-1E+10	1	-1E+10	1	-1E+10	1	-1E+10	1	-1E+10	1
4902554	97	C	10/16/2023	02:03	-133.628	47.814	0	1605.10	0	2.2450	0	34.5300	0	27.584	0	1585.557	0	-1e10	8	-1e10	8	-1E+10	1	-1E+10	1	-1E+10	1	-1E+10	1	-1E+10	1	-1E+10	1
4902554	97	C	10/16/2023	02:03	-133.628	47.814	0	1615.50	0	2.2350	0	34.5320	0	27.587	0	1595.791	0	-1e10	8	-1e10	8	-1E+10	1	-1E+10	1	-1E+10	1	-1E+10	1	-1E+10	1	-1E+10	1
4902554	97	C	10/16/2023	02:03	-133.628	47.814	0	1625.50	0	2.2240	0	34.5340	0	27.589	0	1605.631	0	-1e10	8	-1e10	8	-1E+10	1	-1E+10	1	-1E+10	1	-1E+10	1	-1E+10	1	-1E+10	1
4902554	97	C	10/16/2023	02:03	-133.628	47.814	0	1635.10	0	2.2130	0	34.5360	0	27.592	0	1615.077	0	-1e10	8	-1e10	8	-1E+10	1	-1E+10	1	-1E+10	1	-1E+10	1	-1E+10	1	-1E+10	1
4902554	97	C	10/16/2023	02:03	-133.628	47.814	0	1645.40	0	2.2040	0	34.5370	0	27.593	0	1625.211	0	-1e10	8	-1e10	8	-1E+10	1	-1E+10	1	-1E+10	1	-1E+10	1	-1E+10	1	-1E+10	1
4902554	97	C	10/16/2023	02:03	-133.628	47.814	0	1655.90	0	2.1910	0	34.5400	0	27.597	0	1635.542	0	-1e10	8	-1e10	8	-1E+10	1	-1E+10	1	-1E+10	1	-1E+10	1	-1E+10	1	-1E+10	1
4902554	97	C	10/16/2023	02:03	-133.628	47.814	0	1665.40	0	2.1820	0	34.5410	0	27.598	0	1644.889	0	-1e10	8	-1e10	8	-1E+10	1	-1E+10	1	-1E+10	1	-1E+10	1	-1E+10	1	-1E+10	1
4902554	97	C	10/16/2023	02:03	-133.628	47.814	0	1675.10	0	2.1720	0	34.5440	0	27.602	0	1654.431	0	-1e10	8	-1e10	8	-1E+10	1	-1E+10	1	-1E+10	1	-1E+10	1	-1E+10	1	-1E+10	1
4902554	97	C	10/16/2023	02:03	-133.628	47.814	0	1685.20	0	2.1630	0	34.5450	0	27.603	0	1664.367	0	-1e10	8	-1e10	8	-1E+10	1	-1E+10	1	-1E+10	1	-1E+10	1	-1E+10	1	-1E+10	1
4902554	97	C	10/16/2023	02:03	-133.628	47.814	0	1695.50	0	2.1500	0	34.5480	0	27.607	0	1674.499	0	-1e10	8	-1e10	8	-1E+10	1	-1E+10	1	-1E+10	1	-1E+10	1	-1E+10	1	-1E+10	1
4902554	97	C	10/16/2023	02:03	-133.628	47.814	0	1705.30	0	2.1380	0	34.5500	0	27.609	0	1684.139	0	-1e10	8	-1e10	8	-1E+10	1	-1E+10	1	-1E+10	1	-1E+10	1	-1E+10	1	-1E+10	1
4902554	97	C	10/16/2023	02:03	-133.628	47.814	0	1715.20	0	2.1280	0	34.5520	0	27.612	0	1693.876	0	-1e10	8	-1e10	8	-1E+10	1	-1E+10	1	-1E+10	1	-1E+10	1	-1E+10	1	-1E+10	1
4902554	97	C	10/16/2023	02:03	-133.628	47.814	0	1725.50	0	2.1150	0	34.5540	0	27.614	0	1704.007	0	-1e10	8	-1e10	8	-1E+10	1	-1E+10	1	-1E+10	1	-1E+10	1	-1E+10	1	-1E+10	1
4902554	97	C	10/16/2023	02:03	-133.628	47.814	0	1735.40	0	2.1050	0	34.5560	0	27.617	0	1713.744	0	-1e10	8	-1e10	8	-1E+10	1	-1E+10	1	-1E+10	1	-1E+10	1	-1E+10	1	-1E+10	1
4902554	97	C	10/16/2023	02:03	-133.628	47.814	0	1745.40	0	2.0890	0	34.5580	0	27.620	0	1723.578	0	-1e10	8	-1e10	8	-1E+10	1	-1E+10	1	-1E+10	1	-1E+10	1	-1E+10	1	-1E+10	1
4902554	97	C	10/16/2023	02:03	-133.628	47.814	0	1755.40	0	2.0760	0	34.5600	0	27.622	0	1733.412	0	-1e10	8	-1e10	8	-1E+10	1	-1E+10	1	-1E+10	1	-1E+10	1	-1E+10	1	-1E+10	1
4902554	97	C	10/16/2023	02:03	-133.628	47.814	0	1765.50	0	2.0640	0	34.5620	0	27.625	0	1743.344	0	-1e10	8	-1e10	8	-1E+10	1	-1E+10	1	-1E+10	1	-1E+10	1	-1E+10	1	-1E+10	1
4902554	97	C	10/16/2023	02:03	-133.628	47.814	0	1775.40	0	2.0570	0	34.5630	0	27.626	0	1753.079	0	-1e10	8	-1e10	8	-1E+10	1	-1E+10	1	-1E+10	1	-1E+10	1	-1E+10	1	-1E+10	1
4902554	97	C	10/16/2023	02:03	-133.628	47.814	0	1785.50	0	2.0480	0	34.5640	0	27.628	0	1763.011	0	-1e10	8	-1e10	8	-1E+10	1	-1E+10	1	-1E+10	1	-1E+10	1	-1E+10	1	-1E+10	1
4902554	97	C	10/16/2023	02:03	-133.628	47.814	0	1795.50	0	2.0440	0	34.5660	0	27.630	0	1772.843	0	-1e10	8	-1e10	8	-1E+10	1	-1E+10	1	-1E+10	1	-1E+10	1	-1E+10	1	-1E+10	1
4902554	97	C	10/16/2023	02:03	-133.628	47.814	0	1805.20	0	2.0340	0	34.5680	0	27.632	0	1782.380	0	-1e10	8	-1e10	8	-1E+10	1	-1E+10	1	-1E+10	1	-1E+10	1	-1E+10	1	-1E+10	1
4902554	97	C	10/16/2023	02:03	-133.628	47.814	0	1815.10	0	2.0260	0	34.5690	0	27.634	0	1792.113	0	-1e10	8	-1e10	8	-1E+10	1	-1E+10	1	-1E+10	1	-1E+10	1	-1E+10	1	-1E+10	1
4902554	97	C	10/16/2023	02:03	-133.628	47.814	0	1825.10	0	2.0200	0	34.5700	0	27.635	0	1801.944	0	-1e10	8	-1e10	8	-1E+10	1	-1E+10	1	-1E+10	1	-1E+10	1	-1E+10	1	-1E+10	1
4902554	97	C	10/16/2023	02:03	-133.628	47.814	0	1835.20	0	2.0120	0	34.5720	0	27.637	0	1811.873	0	-1e10	8	-1e10	8	-1E+10	1	-1E+10	1	-1E+10	1	-1E+10	1	-1E+10	1	-1E+10	1
4902554	97	C	10/16/2023	02:03	-133.628	47.814	0	1845.40	0	2.0020	0	34.5740	0	27.640	0	1821.899	0	-1e10	8	-1e10	8	-1E+10	1	-1E+10	1	-1E+10	1	-1E+10	1	-1E+10	1	-1E+10	1
4902554	97	C	10/16/2023	02:03	-133.628	47.814	0	1855.30	0	1.9920	0	34.5750	0	27.642	0	1831.631	0	-1e10	8	-1e10	8	-1E+10	1	-1E+10	1	-1E+10	1	-1E+10	1	-1E+10	1	-1E+10	1
4902554	97	C	10/16/2023	02:03	-133.628	47.814	0	1865.30	0	1.9890	0	34.5760	0	27.643	0	1841.460	0	-1e10	8	-1e10	8	-1E+10	1	-1E+10	1	-1E+10	1	-1E+10	1	-1E+10	1	-1E+10	1
4902554	97	C	10/16/2023	02:03	-133.628	47.814	0	1875.50	0	1.9820	0	34.5770	0	27.644	0	1851.485	0	-1e10	8	-1e10	8	-1E+10	1	-1E+10	1	-1E+10	1	-1E+10	1	-1E+10	1	-1E+10	1
4902554	97	C	10/16/2023	02:03	-133.628	47.814	0	1885.30	0	1.9740	0	34.5790	0	27.646	0	1861.117	0	-1e10	8	-1e10	8	-1E+10	1	-1E+10	1	-1E+10	1	-1E+10	1	-1E+10	1	-1E+10	1
4902554	97	C	10/16/2023	02:03	-133.628	47.814	0	1895.30	0	1.9680	0	34.5800	0	27.648	0	1870.945	0	-1e10	8	-1e10	8	-1E+10	1	-1E+10	1	-1E+10	1	-1E+10	1	-1E+10	1	-1E+10	1
4902554	97	C	10/16/2023	02:03	-133.628	47.814	0	1905.30	0	1.9650	0	34.5810	0	27.649	0	1880.772	0	-1e10	8	-1e10	8	-1E+10	1	-1E+10	1	-1E+10	1	-1E+10	1	-1E+10	1	-1E+10	1
4902554	97	C	10/16/2023	02:03	-133.628	47.814	0	1915.40	0	1.9590	0	34.5820	0	27.650	0	1890.697	0	-1e10	8	-1e10	8	-1E+10	1	-1E+10	1	-1E+10	1	-1E+10	1	-1E+10	1	-1E+10	1
4902554	97	C	10/16/2023	02:03	-133.628	47.814	0	1925.40	0	1.9540	0	34.5830	0	27.651	0	1900.523	0	-1e10	8	-1e10	8	-1E+10	1	-1E+10	1	-1E+10	1	-1E+10	1	-1E+10	1	-1E+10	1
4902554	97	C	10/16/2023	02:03	-133.628	47.814	0	1935.30	0	1.9490	0	34.5840	0	27.653	0	1910.251	0	-1e10	8	-1e10	8	-1E+10	1	-1E+10	1	-1E+10	1	-1E+10	1	-1E+10	1	-1E+10	1
4902554	97	C	10/16/2023	02:03	-133.628	47.814	0	1945.40	0	1.9420	0	34.5860	0	27.655	0	1920.175	0	-1e10	8	-1e10	8	-1E+10	1	-1E+10	1	-1E+10	1	-1E+10	1	-1E+10	1	-1E+10	1
4902554	97	C	10/16/2023	02:03	-133.628	47.814	0	1955.50	0	1.9340	0	34.5870	0	27.656	0	1930.098	0	-1e10	8	-1e10	8	-1E+10	1	-1E+10	1	-1E+10	1	-1E+10	1	-1E+10	1	-1E+10	1
4902554	97	C	10/16/2023	02:03	-133.628	47.814	0	1965.70	0	1.9310	0	34.5880	0	27.657	0	1940.119	0	-1e10	8	-1e10	8	-1E+10	1	-1E+10	1	-1E+10	1	-1E+10	1	-1E+10	1	-1E+10	1
4902554	97	C	10/16/2023	02:03	-133.628	47.814	0	1975.50	0	1.9270	0	34.5890	0	27.658	0	1949.747	0	-1e10	8	-1e10	8	-1E+10	1	-1E+10	1	-1E+10	1	-1E+10	1	-1E+10	1	-1E+10	1
4902554	97	C	10/16/2023	02:03	-133.628	47.814	0	1985.50	0	1.9220	0	34.5900	0	27.660	0	1959.571	0	-1e10	8	-1e10	8	-1E+10	1	-1E+10	1	-1E+10	1	-1E+10	1	-1E+10	1	-1E+10	1
4902554	97	C	10/16/2023	02:03	-133.628	47.814	0	1995.60	0	1.9180	0	34.5900	0	27.660	0	1969.492	0	-1e10	8	-1e10	8	-1E+10	1	-1E+10	1	-1E+10	1	-1E+10	1	-1E+10	1	-1E+10	1
4902554	97	C	10/16/2023	02:03	-133.628	47.814	0	2005.40	0	1.9130	0	34.5920	0	27.662	0	1979.118	0	-1e10	8	-1e10	8	-1E+10	1	-1E+10	1	-1E+10	1	-1E+10	1	-1E+10	1	-1E+10	1
4902554	97	C	10/16/2023	02:03	-133.628	47.814	0	2013.90	0	1.9110	0	34.5920	0	27.662	0	1987.467	0	-1e10	8	-1e10	8	-1E+10	1	-1E+10	1	-1E+10	1	-1E+10	1	-1E+10	1	-1E+10	1
4902554	97	C	10/16/2023	02:03	-133.628	47.814	0																										
4902554	98	C	10/26/2023	07:09	-133.615	47.845	0	0.40	0	13.2300	0	32.3690	0	24.311	0	0.397	0	-1e10	8	-1e10	8	-1E+10	1	-1E+10	1	-1E+10	1	-1E+10	1	-1E+10	1	-1E+10	1
4902554	98	C	10/26/2023	07:09	-133.615	47.845	0	0.50	0	13.2296	0	32.3697	0	24.311	0	0.496	0	-1e10	8	-1e10	8	-1E+10	1	-1E+10	1	-1E+10	1	-1E+10	1	-1E+10	1	-1E+10	1
4902554	98	C	10/26/2023	07:09	-133.615	47.845	0	1.10	0	13.2270	0	32.3740	0	24.315	0	1.091	0	-1e10	8	-1e10	8	-1E+10	1	-1E+10	1	-1E+10	1	-1E+10	1	-1E+10	1	-1E+10	1
4902554	98	C	10/26/2023	07:09	-133.615	47.845	0	2.10	0	13.2180	0	32.3840	0	24.325	0	2.082	0	-1e10	8	-1e10	8	-1E+10	1	-1E+10	1	-1E+10	1	-1E+10	1	-1E+10	1	-1E+10	1
4902554	98	C	10/26/2023	07:09	-133.615	47.845	0	3.00	0	13.2370	0	32.3700	0	24.310	0	2.975	0	-1e10	8	-1e10	8	-1E+10	1	-1E+10	1	-1E+10	1	-1E+10	1	-1E+10	1	-1E+10	1
4902554	98	C	10/26/2023	07:09	-133.615	47.845	0	4.00	0	13.2410	0	32.3670	0	24.307	0	3.966	0	-1e10	8	-1e10	8	-1E+10	1	-1E+10	1	-1E+10	1	-1E+10	1	-1E+10	1	-1E+10	1
4902554	98	C	10/26/2023	07:09	-133.615	47.845	0	5.00	0	13.2430	0	32.3670	0	24.307	0	4.958	0	-1e10	8	-1e10	8	-1E+10	1	-1E+10	1	-1E+10	1	-1E+10	1	-1E+10	1	-1E+10	1
4902554	98	C	10/26/2023	07:09	-133.615	47.845	0	6.10	0	13.2440	0	32.3670	0	24.307	0	6.049	0	-1e10	8	-1e10	8	-1E+10	1	-1E+10	1	-1E+10	1	-1E+10	1	-1E+10	1	-1E+10	1
4902554	98	C	10/26/2023	07:09	-133.615	47.845	0	7.00	0	13.2440	0	32.3670	0	24.307	0	6.941	0	-1e10	8	-1e10	8	-1E+10	1	-1E+10	1	-1E+10	1	-1E+10	1	-1E+10	1	-1E+10	1
4902554	98	C	10/26/2023	07:09	-133.615	47.845	0	7.70	0	13.2440	0	32.3680	0	24.307	0	7.635	0	-1e10	8	-1e10	8	-1E+10	1	-1E+10	1	-1E+10	1	-1E+10	1	-1E+10	1	-1E+10	1
4902554	98	C	10/26/2023	07:09	-133.615	47.845	0	8.80	0	13.2440	0	32.3680	0	24.307	0	8.726	0	-1e10	8	-1e10	8	-1E+10	1	-1E+10	1	-1E+10	1	-1E+10	1	-1E+10	1	-1E+10	1
4902554	98	C	10/26/2023	07:09	-133.615	47.845	0	9.90	0	13.2440	0	32.3680	0	24.307	0	9.817	0	-1e10	8	-1e10	8	-1E+10	1	-1E+10	1	-1E+10	1	-1E+10	1	-1E+10	1	-1E+10	1
4902554	98	C	10/26/2023	07:09	-133.615	47.845	0	10.90	0	13.2440	0	32.3670	0	24.307	0	10.808	0	-1e10	8	-1e10	8	-1E+10	1	-1E+10	1	-1E+10	1	-1E+10	1	-1E+10	1	-1E+10	1
4902554	98	C	10/26/2023	07:09	-133.615	47.845	0	11.80	0	13.2440	0	32.3670	0	24.307	0	11.701	0	-1e10	8	-1e10	8	-1E+10	1	-1E+10	1	-1E+10	1	-1E+10	1	-1E+10	1	-1E+10	1
4902554	98	C	10/26/2023	07:09	-133.615	47.845	0	12.90	0	13.2420	0	32.3680	0	24.308	0	12.792	0	-1e10	8	-1e10	8	-1E+10	1	-1E+10	1	-1E+10	1	-1E+10	1	-1E+10	1	-1E+10	1
4902554	98	C	10/26/2023	07:09	-133.615	47.845	0	13.90	0	13.2420	0	32.3680	0	24.308	0	13.783	0	-1e10	8	-1e10	8	-1E+10	1	-1E+10	1	-1E+10	1	-1E+10	1	-1E+10	1	-1E+10	1
4902554	98	C	10/26/2023	07:09	-133.615	47.845	0	15.10	0	13.2450	0	32.3680	0	24.307	0	14.973	0	-1e10	8	-1e10	8	-1E+10	1	-1E+10	1	-1E+10	1	-1E+10	1	-1E+10	1	-1E+10	1
4902554	98	C	10/26/2023	07:09	-133.615	47.845	0	16.00	0	13.2450	0	32.3680	0	24.307	0	15.865	0	-1e10	8	-1e10	8	-1E+10	1	-1E+10	1	-1E+10	1	-1E+10	1	-1E+10	1	-1E+10	1
4902554	98	C	10/26/2023	07:09	-133.615	47.845	0	16.80	0	13.2450	0	32.3690	0	24.308	0	16.659	0	-1e10	8	-1e10	8	-1E+10	1	-1E+10	1	-1E+10	1	-1E+10	1	-1E+10	1	-1E+10	1
4902554	98	C	10/26/2023	07:09	-133.615	47.845	0	18.00	0	13.2450	0	32.3680	0	24.307	0	17.848	0	-1e10	8	-1e10	8	-1E+10	1	-1E+10	1	-1E+10	1	-1E+10	1	-1E+10	1	-1E+10	1
4902554	98	C	10/26/2023	07:09	-133.615	47.845	0	18.90	0	13.2460	0	32.3680	0	24.307	0	18.741	0	-1e10	8	-1e10	8	-1E+10	1	-1E+10	1	-1E+10	1	-1E+10	1	-1E+10	1	-1E+10	1
4902554	98	C	10/26/2023	07:09	-133.615	47.845	0	19.80	0	13.2460	0	32.3680	0	24.307	0	19.633	0	-1e10	8	-1e10	8	-1E+10	1	-1E+10	1	-1E+10	1	-1E+10	1	-1E+10	1	-1E+10	1
4902554	98	C	10/26/2023	07:09	-133.615	47.845	0	21.10	0	13.2460	0	32.3690	0	24.308	0	20.922	0	-1e10	8	-1e10	8	-1E+10	1	-1E+10	1	-1E+10	1	-1E+10	1	-1E+10	1	-1E+10	1
4902554	98	C	10/26/2023	07:09	-133.615	47.845	0	22.00	0	13.2460	0	32.3680	0	24.307	0	21.815	0	-1e10	8	-1e10	8	-1E+10	1	-1E+10	1	-1E+10	1	-1E+10	1	-1E+10	1	-1E+10	1
4902554	98	C	10/26/2023	07:09	-133.615	47.845	0	23.00	0	13.2460	0	32.3680	0	24.307	0	22.806	0	-1e10	8	-1e10	8	-1E+10	1	-1E+10	1	-1E+10	1	-1E+10	1	-1E+10	1	-1E+10	1
4902554	98	C	10/26/2023	07:09	-133.615	47.845	0	23.90	0	13.2450	0	32.3680	0	24.308	0	23.698	0	-1e10	8	-1e10	8	-1E+10	1	-1E+10	1	-1E+10	1	-1E+10	1	-1E+10	1	-1E+10	1
4902554	98	C	10/26/2023	07:09	-133.615	47.845	0	24.90	0	13.2440	0	32.3690	0	24.309	0	24.690	0	-1e10	8	-1e10	8	-1E+10	1	-1E+10	1	-1E+10	1	-1E+10	1	-1E+10	1	-1E+10	1
4902554	98	C	10/26/2023	07:09	-133.615	47.845	0	25.90	0	13.2460	0	32.3690	0	24.308	0	25.681	0	-1e10	8	-1e10	8	-1E+10	1	-1E+10	1	-1E+10	1	-1E+10	1	-1E+10	1	-1E+10	1
4902554	98	C	10/26/2023	07:09	-133.615	47.845	0	27.00	0	13.2460	0	32.3680	0	24.307	0	26.772	0	-1e10	8	-1e10	8	-1E+10	1	-1E+10	1	-1E+10	1	-1E+10	1	-1E+10	1	-1E+10	1
4902554	98	C	10/26/2023	07:09	-133.615	47.845	0	28.10	0	13.2460	0	32.3680	0	24.308	0	27.863	0	-1e10	8	-1e10	8	-1E+10	1	-1E+10	1	-1E+10	1	-1E+10	1	-1E+10	1	-1E+10	1
4902554	98	C	10/26/2023	07:09	-133.615	47.845	0	28.90	0	13.2460	0	32.3690	0	24.308	0	28.656	0	-1e10	8	-1e10	8	-1E+10	1	-1E+10	1	-1E+10	1	-1E+10	1	-1E+10	1	-1E+10	1
4902554	98	C	10/26/2023	07:09	-133.615	47.845	0	30.00	0	13.2470	0	32.3680	0	24.307	0	29.747	0	-1e10	8	-1e10	8	-1E+10	1	-1E+10	1	-1E+10	1	-1E+10	1	-1E+10	1	-1E+10	1
4902554	98	C	10/26/2023	07:09	-133.615	47.845	0	31.10	0	13.2470	0	32.3680	0	24.307	0	30.837	0	-1e10	8	-1e10	8	-1E+10	1	-1E+10	1	-1E+10	1	-1E+10	1	-1E+10	1	-1E+10	1
4902554	98	C	10/26/2023	07:09	-133.615	47.845	0	31.80	0	13.2480	0	32.3680	0	24.307	0	31.531	0	-1e10	8	-1e10	8	-1E+10	1	-1E+10	1	-1E+10	1	-1E+10	1	-1E+10	1	-1E+10	1
4902554	98	C	10/26/2023	07:09	-133.615	47.845	0	32.90	0	13.2470	0	32.3680	0	24.307	0	32.622	0	-1e10	8	-1e10	8	-1E+10	1	-1E+10	1	-1E+10	1	-1E+10	1	-1E+10	1	-1E+10	1
4902554	98	C	10/26/2023	07:09	-133.615	47.845	0	34.10	0	13.2470	0	32.3680	0	24.307	0	33.812	0	-1e10	8	-1e10	8	-1E+10	1	-1E+10	1	-1E+10	1	-1E+10	1	-1E+10	1	-1E+10	1
4902554	98	C	10/26/2023	07:09	-133.615	47.845	0	34.80	0	13.2460	0	32.3690	0	24.308	0	34.506	0	-1e10	8	-1e10	8	-1E+10	1	-1E+10	1	-1E+10	1	-1E+10	1	-1E+10	1	-1E+10	1
4902554	98	C	10/26/2023	07:09	-133.615	47.845	0	35.80	0	13.2460	0	32.3680	0	24.308	0	35.497	0	-1e10	8	-1e10	8	-1E+10	1	-1E+10	1	-1E+10	1	-1E+10	1	-1E+10	1	-1E+10	1
4902554	98	C	10/26/2023	07:09	-133.615	47.845	0	36.90	0	13.2470	0	32.3690	0	24.308	0	36.588	0	-1e10	8	-1e10	8	-1E+10	1	-1E+10	1	-1E+10	1	-1E+10	1	-1E+10	1	-1E+10	1
4902554	98	C	10/26/2023	07:09	-133.615	47.845	0	37.90	0	13.2470	0	32.3680	0	24.308	0	37.579	0	-1e10	8	-1e10	8	-1E+10	1	-1E+10	1	-1E+10	1	-1E+10	1	-1E+10	1	-1E+10	1
4902554	98	C	10/26/2023	07:09	-133.615	47.845	0	38.90	0	13.2470	0	32.3680	0	24.308	0	38.570	0	-1e10	8	-1e10	8	-1E+10	1	-1E+10	1	-1E+10	1	-1E+10	1	-1E+10	1	-1E+10	1
4902554	98	C	10/26/2023	07:09	-133.615	47.845	0	39.90	0	13.2470	0	32.3680	0	24.308	0	39.562	0	-1e10	8	-1e10	8	-1E+10	1	-1E+10	1	-1E+10	1	-1E+10	1	-1E+10	1	-1E+10	1
4902554	98	C	10/26/2023	07:09	-133.615	47.845	0	40.80	0	13.2460	0	32.3690	0	24.309	0	40.454	0	-1e10	8	-1e10	8	-1E+10	1	-1E+10	1	-1E+10	1	-1E+10	1	-1E+10	1	-1E+10	1
4902554	98	C	10/26/2023	07:09	-133.615	47.845	0	41.80	0	13.2450	0	32.3680	0	24.308	0	41.446	0	-1e10	8	-1e10	8	-1E+10	1	-1E+10	1	-1E+10	1	-1E+10	1	-1E+10	1	-1E+10	1
4902554	98	C	10/26/2023	07:09	-133.615	47.845	0	43.00	0	13.2450	0	32.3680	0	24.308	0	42.635	0	-1e10	8	-1e10	8	-1E+10	1	-1E+10	1	-1E+10	1	-1E+10	1	-1E+10	1	-1E+10	1
4902554	98	C	10/26/2023	07:09	-133.615	47.845	0	44.10	0	13.2460	0	32.3680	0	24.308	0	43.726	0	-1e10	8	-1e10	8	-1E+10	1	-1E+10	1	-1E+10	1	-1E+10	1	-1E+10	1	-1E+10	1
4902554	98	C	10/26/2023	07:09	-133.615	47.845	0	45.00	0	13.2480	0	32.3670	0	24.307	0	44.618	0	-1e10	8	-1e10	8	-1E+10	1	-1E+10	1	-1E+10	1	-1E+10	1	-1E+10	1	-1E+10	1
4902554	98	C	10/26/2023	07:09	-133.615	47.845	0	45.80	0	13.2470	0	32.3690	0	24.309	0	45.411	0	-1e10	8	-1e10	8	-1E+10	1	-1E+10	1	-1E+10	1	-1E+10	1	-1E+10	1	-1E+10	1
4902554	98	C	10/26/2023	07:09	-133.615	47.845	0	46.90	0	13.2470	0	32.3680	0	24.308	0	46.502	0	-1e10	8	-1e10	8	-1E+10	1	-1E+10	1	-1E+10	1	-1E+10	1	-1E+10	1	-1E+10	1
4902554	98	C	10/26/2023	07:09	-133.615	47.845	0	48.00	0	13.2460	0	32.3680	0	24.308	0	47.592	0	-1e10	8	-1e10	8	-1E+10	1	-1E+10	1	-1E+10	1	-1E+10	1	-1E+10	1	-1E+10	1
4902554	98	C	10/26/2023	07:09	-133.615	47.845	0	49.00	0	13.2450	0	32.3680	0	24.308	0	48.584	0	-1e10	8	-1e10	8	-1E+10	1	-1E+10	1	-1E+10	1	-1E+10	1	-1E+10	1	-1E+10	1
4902554	98	C	10/26/2023	07:09	-133.615	47.845	0	50.20	0	13.2440	0	32.3680	0	24.308	0	49.773	0	-1e10	8	-1e10	8	-1E+10	1	-1E+10	1	-1E+10	1	-1E+10	1	-1E+10	1	-1E+10	1
4902554	98	C	10/26/2023	07:09	-133.615	47.845	0	51.00	0	13.2390	0	32.3680	0	24.310	0	50.567	0	-1e10	8	-1e10	8	-1E+10	1	-1E+10	1	-1E+10	1	-1E+10	1	-1E+10	1	-1E+10	1
4902554	98	C	10/26/2023	07:09	-133.615	47.845	0	52.00	0	13.2450	0	32.3660	0	24.307	0	51.558	0	-1e10	8	-1e10	8	-1E+10	1	-1E+10	1	-1E+10	1	-1E+10	1	-1E+10	1	-1E+10	1
4902554	98	C	10/26/2023	07:09	-133.615	47.845	0	52.90	0	13.1890	0	32.3490	0	24.305	0	52.450	0	-1e10	8	-1e10	8	-1E+10	1	-1E+10	1	-1E+10	1	-1E+10	1	-1E+10	1	-1E+10	1
4902554	98	C	10/26/2023	07:09	-133.615	47.845	0	54.00	0	10.8010	0	32.4130	0	24.798	0	53.541	0	-1e10	8	-1e10	8	-1E+10	1	-1E+10	1	-1E+10	1	-1E+10	1	-1E+10	1	-1E+10	1
4902554	98	C	10/26/2023	07:09	-133.615	47.845	0	55.00	0	9.3560	0	32.4340	0	25.055	0	54.532	0	-1e10	8	-1e10	8	-1E+10	1	-1E+10	1	-1E+10	1	-1E+10	1	-1E+10	1	-1E+10	1
4902554	98	C	10/26/2023	07:09	-133.615	47.845	0	56.10	0	8.7690	0	32.4430	0	25.153	0	55.622	0	-1e10	8	-1e10	8	-1E+10	1	-1E+10	1	-1E+10	1	-1E+10	1	-1E+10	1	-1E+10	1
4902554	98	C	10/26/2023	07:09	-133.615	47.845	0	57.00	0	8.6090	0	32.4430	0	25.177	0	56.515	0	-1e10	8	-1e10	8	-1E+10	1	-1E+10	1	-1E+10	1	-1E+10	1	-1E+10	1	-1E+10	1
4902554	98	C	10/26/2023	07:09	-133.615	47.845	0	58.20	0	8.4750	0	32.4420	0	25.197	0	57.704	0	-1e10	8	-1e10	8	-1E+10	1	-1E+10	1	-1E+10	1	-1E+10	1	-1E+10	1	-1E+10	1
4902554	98	C	10/26/2023	07:09	-133.615	47.845	0	58.90	0	8.4250	0	32.4440	0	25.206	0	58.398	0	-1e10	8	-1e10	8	-1E+10	1	-1E+10	1	-1E+10	1	-1E+10	1	-1E+10	1	-1E+10	1
4902554	98	C	10/26/2023	07:09	-133.615	47.845	0	59.90	0	8.3610	0	32.4460	0	25.217	0	59.390	0	-1e10	8	-1e10	8	-1E+10	1	-1E+10	1	-1E+10	1	-1E+10	1	-1E+10	1	-1E+10	1
4902554	98	C	10/26/2023	07:09	-133.615	47.845	0	61.00	0	8.2500	0	32.4500	0	25.236	0	60.480	0	-1e10	8	-1e10	8	-1E+10	1	-1E+10	1	-1E+10	1	-1E+10	1	-1E+10	1	-1E+10	1
4902554	98	C	10/26/2023	07:09	-133.615	47.845	0	62.00	0	8.0900	0	32.4540	0	25.263	0	61.471	0	-1e10	8	-1e10	8	-1E+10	1	-1E+10	1	-1E+10	1	-1E+10	1	-1E+10	1	-1E+10	1
4902554	98	C	10/26/2023	07:09	-133.615	47.845	0	62.90	0	7.9840	0	32.4500	0	25.275	0	62.364	0	-1e10	8	-1e10	8	-1E+10	1	-1E+10	1	-1E+10	1	-1E+10	1	-1E+10	1	-1E+10	1
4902554	98	C	10/26/2023	07:09	-133.615	47.845	0	63.90	0	7.8960	0	32.4520	0	25.289	0	63.355	0	-1e10	8	-1e10	8	-1E+10	1	-1E+10	1	-1E+10	1	-1E+10	1	-1E+10	1	-1E+10	1
4902554	98	C	10/26/2023	07:09	-133.615	47.845	0	64.80	0	7.8260	0	32.4530	0	25.300	0	64.247	0	-1e10	8	-1e10	8	-1E+10	1	-1E+10	1	-1E+10	1	-1E+10	1	-1E+10	1	-1E+10	1
4902554	98	C	10/26/2023	07:09	-133.615	47.845	0	66.10	0	7.7940	0	32.4530	0	25.305	0	65.536	0	-1e10	8	-1e10	8	-1E+10	1	-1E+10	1	-1E+10	1	-1E+10	1	-1E+10	1	-1E+10	1
4902554	98	C	10/26/2023	07:09	-133.615	47.845	0	67.00	0	7.7530	0	32.4570	0	25.314	0	66.428	0	-1e10	8	-1e10	8	-1E+10	1	-1E+10	1	-1E+10	1	-1E+10	1	-1E+10	1	-1E+10	1
4902554	98	C	10/26/2023	07:09	-133.615	47.845	0	68.00	0	7.7080	0	32.4580	0	25.321	0	67.419	0	-1e10	8	-1e10	8	-1E+10	1	-1E+10	1	-1E+10	1	-1E+10	1	-1E+10	1	-1E+10	1
4902554	98	C	10/26/2023	07:09	-133.615	47.845	0	69.00	0	7.6830	0	32.4600	0	25.326	0	68.411	0	-1e10	8	-1e10	8	-1E+10	1	-1E+10	1	-1E+10	1	-1E+10	1	-1E+10	1	-1E+10	1
4902554	98	C	10/26/2023	07:09	-133.615	47.845	0	70.00	0	7.6730	0	32.4600	0	25.327	0	69.402	0	-1e10	8	-1e10	8	-1E+10	1	-1E+10	1	-1E+10	1	-1E+10	1	-1E+10	1	-1E+10	1
4902554	98	C	10/26/2023	07:09	-133.615	47.845	0	71.10	0	7.6500	0	32.4620	0	25.332	0	70.492	0	-1e10	8	-1e10	8	-1E+10	1	-1E+10	1	-1E+10	1	-1E+10	1	-1E+10	1	-1E+10	1
4902554	98	C	10/26/2023	07:09	-133.615	47.845	0	72.10	0	7.6170	0	32.4650	0	25.339	0	71.483	0	-1e10	8	-1e10	8	-1E+10	1	-1E+10	1	-1E+10	1	-1E+10	1	-1E+10	1	-1E+10	1
4902554	98	C	10/26/2023	07:09	-133.615	47.845	0	73.20	0	7.5940	0	32.4670	0	25.344	0	72.574	0	-1e10	8	-1e10	8	-1E+10	1	-1E+10	1	-1E+10	1	-1E+10	1	-1E+10	1	-1E+10	1
4902554	98	C	10/26/2023	07:09	-133.615	47.845	0	73.80	0	7.5780	0	32.4660	0	25.345	0	73.169	0	-1e10	8	-1e10	8	-1E+10	1	-1E+10	1	-1E+10	1	-1E+10	1	-1E+10	1	-1E+10	1
4902554	98	C	10/26/2023	07:09	-133.615	47.845	0	74.90	0	7.5640	0	32.4660	0	25.347	0	74.259	0	-1e10	8	-1e10	8	-1E+10	1	-1E+10	1	-1E+10	1	-1E+10	1	-1E+10	1	-1E+10	1
4902554	98	C	10/26/2023	07:09	-133.615	47.845	0	76.30	0	7.5430	0	32.4690	0	25.353	0	75.647	0	-1e10	8	-1e10	8	-1E+10	1	-1E+10	1	-1E+10	1	-1E+10	1	-1E+10	1	-1E+10	1
4902554	98	C	10/26/2023	07:09	-133.615	47.845	0	77.00	0	7.5350	0	32.4700	0	25.355	0	76.341	0	-1e10	8	-1e10	8	-1E+10	1	-1E+10	1	-1E+10	1	-1E+10	1	-1E+10	1	-1E+10	1
4902554	98	C	10/26/2023	07:09	-133.615	47.845	0	77.90	0	7.5290	0	32.4720	0	25.357	0	77.233	0	-1e10	8	-1e10	8	-1E+10	1	-1E+10	1	-1E+10	1	-1E+10	1	-1E+10	1	-1E+10	1
4902554	98	C	10/26/2023	07:09	-133.615	47.845	0	78.90	0	7.5070	0	32.4740	0	25.362	0	78.224	0	-1e10	8	-1e10	8	-1E+10	1	-1E+10	1	-1E+10	1	-1E+10	1	-1E+10	1	-1E+10	1
4902554	98	C	10/26/2023	07:09	-133.615	47.845	0	79.90	0	7.4970	0	32.4780	0	25.366	0	79.215	0	-1e10	8	-1e10	8	-1E+10	1	-1E+10	1	-1E+10	1	-1E+10	1	-1E+10	1	-1E+10	1
4902554	98	C	10/26/2023	07:09	-133.615	47.845	0	80.90	0	7.4890	0	32.4800	0	25.369	0	80.207	0	-1e10	8	-1e10	8	-1E+10	1	-1E+10	1	-1E+10	1	-1E+10	1	-1E+10	1	-1E+10	1
4902554	98	C	10/26/2023	07:09	-133.615	47.845	0	82.10	0	7.4830	0	32.4810	0	25.371	0	81.396	0	-1e10	8	-1e10	8	-1E+10	1	-1E+10	1	-1E+10	1	-1E+10	1	-1E+10	1	-1E+10	1
4902554	98	C	10/26/2023	07:09	-133.615	47.845	0	82.80	0	7.4820	0	32.4810	0	25.371	0	82.090	0	-1e10	8	-1e10	8	-1E+10	1	-1E+10	1	-1E+10	1	-1E+10	1	-1E+10	1	-1E+10	1
4902554	98	C	10/26/2023	07:09	-133.615	47.845	0	83.80	0	7.4790	0	32.4830	0	25.373	0	83.081	0	-1e10	8	-1e10	8	-1E+10	1	-1E+10	1	-1E+10	1	-1E+10	1	-1E+10	1	-1E+10	1
4902554	98	C	10/26/2023	07:09	-133.615	47.845	0	84.80	0	7.4760	0	32.4830	0	25.373	0	84.072	0	-1e10	8	-1e10	8	-1E+10	1	-1E+10	1	-1E+10	1	-1E+10	1	-1E+10	1	-1E+10	1
4902554	98	C	10/26/2023	07:09	-133.615	47.845	0	85.70	0	7.4730	0	32.4840	0	25.374	0	84.964	0	-1e10	8	-1e10	8	-1E+10	1	-1E+10	1	-1E+10	1	-1E+10	1	-1E+10	1	-1E+10	1
4902554	98	C	10/26/2023	07:09	-133.615	47.845	0	86.90	0	7.4600	0	32.4860	0	25.378	0	86.154	0	-1e10	8	-1e10	8	-1E+10	1	-1E+10	1	-1E+10	1	-1E+10	1	-1E+10	1	-1E+10	1
4902554	98	C	10/26/2023	07:09	-133.615	47.845	0	88.10	0	7.4470	0	32.4910	0	25.383	0	87.343	0	-1e10	8	-1e10	8	-1E+10	1	-1E+10	1	-1E+10	1	-1E+10	1	-1E+10	1	-1E+10	1
4902554	98	C	10/26/2023	07:09	-133.615	47.845	0	89.30	0	7.4360	0	32.4960	0	25.389	0	88.533	0	-1e10	8	-1e10	8	-1E+10	1	-1E+10	1	-1E+10	1	-1E+10	1	-1E+10	1	-1E+10	1
4902554	98	C	10/26/2023	07:09	-133.615	47.845	0	90.00	0	7.4290	0	32.4980	0	25.391	0	89.227	0	-1e10	8	-1e10	8	-1E+10	1	-1E+10	1	-1E+10	1	-1E+10	1	-1E+10	1	-1E+10	1
4902554	98	C	10/26/2023	07:09	-133.615	47.845	0	90.90	0	7.4240	0	32.4980	0	25.392	0	90.119	0	-1e10	8	-1e10	8	-1E+10	1	-1E+10	1	-1E+10	1	-1E+10	1	-1E+10	1	-1E+10	1
4902554	98	C	10/26/2023	07:09	-133.615	47.845	0	91.80	0	7.4060	0	32.5000	0	25.396	0	91.011	0	-1e10	8	-1e10	8	-1E+10	1	-1E+10	1	-1E+10	1	-1E+10	1	-1E+10	1	-1E+10	1
4902554	98	C	10/26/2023	07:09	-133.615	47.845	0	93.00	0	7.3970	0	32.5040	0	25.401	0	92.200	0	-1e10	8	-1e10	8	-1E+10	1	-1E+10	1	-1E+10	1	-1E+10	1	-1E+10	1	-1E+10	1
4902554	98	C	10/26/2023	07:09	-133.615	47.845	0	93.90	0	7.3900	0	32.5110	0	25.407	0	93.092	0	-1e10	8	-1e10	8	-1E+10	1	-1E+10	1	-1E+10	1	-1E+10	1	-1E+10	1	-1E+10	1
4902554	98	C	10/26/2023	07:09	-133.615	47.845	0	95.10	0	7.3650	0	32.5120	0	25.411	0	94.282	0	-1e10	8	-1e10	8	-1E+10	1	-1E+10	1	-1E+10	1	-1E+10	1	-1E+10	1	-1E+10	1
4902554	98	C	10/26/2023	07:09	-133.615	47.845	0	96.10	0	7.3560	0	32.5200	0	25.419	0	95.273	0	-1e10	8	-1e10	8	-1E+10	1	-1E+10	1	-1E+10	1	-1E+10	1	-1E+10	1	-1E+10	1
4902554	98	C	10/26/2023	07:09	-133.615	47.845	0	97.10	0	7.3480	0	32.5200	0	25.420	0	96.264	0	-1e10	8	-1e10	8	-1E+10	1	-1E+10	1	-1E+10	1	-1E+10	1	-1E+10	1	-1E+10	1
4902554	98	C	10/26/2023	07:09	-133.615	47.845	0	98.10	0	7.3340	0	32.5230	0	25.424	0	97.255	0	-1e10	8	-1e10	8	-1E+10	1	-1E+10	1	-1E+10	1	-1E+10	1	-1E+10	1	-1E+10	1
4902554	98	C	10/26/2023	07:09	-133.615	47.845	0	99.00	0	7.3040	0	32.5250	0	25.430	0	98.147	0	-1e10	8	-1e10	8	-1E+10	1	-1E+10	1	-1E+10	1	-1E+10	1	-1E+10	1	-1E+10	1
4902554	98	C	10/26/2023	07:09	-133.615	47.845	0	99.80	0	7.2960	0	32.5300	0	25.435	0	98.940	0	-1e10	8	-1e10	8	-1E+10	1	-1E+10	1	-1E+10	1	-1E+10	1	-1E+10	1	-1E+10	1
4902554	98	C	10/26/2023	07:09	-133.615	47.845	0	100.90	0	7.2900	0	32.5330	0	25.438	0	100.030	0	-1e10	8	-1e10	8	-1E+10	1	-1E+10	1	-1E+10	1	-1E+10	1	-1E+10	1	-1E+10	1
4902554	98	C	10/26/2023	07:09	-133.615	47.845	0	102.00	0	7.2870	0	32.5340	0	25.439	0	101.121	0	-1e10	8	-1e10	8	-1E+10	1	-1E+10	1	-1E+10	1	-1E+10	1	-1E+10	1	-1E+10	1
4902554	98	C	10/26/2023	07:09	-133.615	47.845	0	103.10	0	7.2790	0	32.5410	0	25.446	0	102.211	0	-1e10	8	-1e10	8	-1E+10	1	-1E+10	1	-1E+10	1	-1E+10	1	-1E+10	1	-1E+10	1
4902554	98	C	10/26/2023	07:09	-133.615	47.845	0	104.00	0	7.2680	0	32.5520	0	25.456	0	103.103	0	-1e10	8	-1e10	8	-1E+10	1	-1E+10	1	-1E+10	1	-1E+10	1	-1E+10	1	-1E+10	1
4902554	98	C	10/26/2023	07:09	-133.615	47.845	0	104.90	0	7.2560	0	32.5610	0	25.465	0	103.995	0	-1e10	8	-1e10	8	-1E+10	1	-1E+10	1	-1E+10	1	-1E+10	1	-1E+10	1	-1E+10	1
4902554	98	C	10/26/2023	07:09	-133.615	47.845	0	105.90	0	7.2460	0	32.5690	0	25.473	0	104.986	0	-1e10	8	-1e10	8	-1E+10	1	-1E+10	1	-1E+10	1	-1E+10	1	-1E+10	1	-1E+10	1
4902554	98	C	10/26/2023	07:09	-133.615	47.845	0	106.80	0	7.2400	0	32.5730	0	25.477	0	105.878	0	-1e10	8	-1e10	8	-1E+10	1	-1E+10	1	-1E+10	1	-1E+10	1	-1E+10	1	-1E+10	1
4902554	98	C	10/26/2023	07:09	-133.615	47.845	0	108.00	0	7.2300	0	32.5790	0	25.483	0	107.067	0	-1e10	8	-1e10	8	-1E+10	1	-1E+10	1	-1E+10	1	-1E+10	1	-1E+10	1	-1E+10	1
4902554	98	C	10/26/2023	07:09	-133.615	47.845	0	109.00	0	7.2140	0	32.5890	0	25.493	0	108.058	0	-1e10	8	-1e10	8	-1E+10	1	-1E+10	1	-1E+10	1	-1E+10	1	-1E+10	1	-1E+10	1
4902554	98	C	10/26/2023	07:09	-133.615	47.845	0	109.90	0	7.2060	0	32.5950	0	25.498	0	108.950	0	-1e10	8	-1e10	8	-1E+10	1	-1E+10	1	-1E+10	1	-1E+10	1	-1E+10	1	-1E+10	1
4902554	98	C	10/26/2023	07:09	-133.615	47.845	0	111.00	0	7.1960	0	32.6020	0	25.505	0	110.041	0	-1e10	8	-1e10	8	-1E+10	1	-1E+10	1	-1E+10	1	-1E+10	1	-1E+10	1	-1E+10	1
4902554	98	C	10/26/2023	07:09	-133.615	47.845	0	112.00	0	7.1910	0	32.6040	0	25.508	0	111.032	0	-1e10	8	-1e10	8	-1E+10	1	-1E+10	1	-1E+10	1	-1E+10	1	-1E+10	1	-1E+10	1
4902554	98	C	10/26/2023	07:09	-133.615	47.845	0	112.90	0	7.1810	0	32.6110	0	25.514	0	111.924	0	-1e10	8	-1e10	8	-1E+10	1	-1E+10	1	-1E+10	1	-1E+10	1	-1E+10	1	-1E+10	1
4902554	98	C	10/26/2023	07:09	-133.615	47.845	0	113.90	0	7.1310	0	32.6330	0	25.539	0	112.915	0	-1e10	8	-1e10	8	-1E+10	1	-1E+10	1	-1E+10	1	-1E+10	1	-1E+10	1	-1E+10	1
4902554	98	C	10/26/2023	07:09	-133.615	47.845	0	115.10	0	7.0740	0	32.6700	0	25.575	0	114.104	0	-1e10	8	-1e10	8	-1E+10	1	-1E+10	1	-1E+10	1	-1E+10	1	-1E+10	1	-1E+10	1
4902554	98	C	10/26/2023	07:09	-133.615	47.845	0	116.00	0	7.0600	0	32.6800	0	25.585	0	114.996	0	-1e10	8	-1e10	8	-1E+10	1	-1E+10	1	-1E+10	1	-1E+10	1	-1E+10	1	-1E+10	1
4902554	98	C	10/26/2023	07:09	-133.615	47.845	0	116.90	0	7.0480	0	32.6880	0	25.593	0	115.888	0	-1e10	8	-1e10	8	-1E+10	1	-1E+10	1	-1E+10	1	-1E+10	1	-1E+10	1	-1E+10	1
4902554	98	C	10/26/2023	07:09	-133.615	47.845	0	117.80	0	7.0430	0	32.6940	0	25.598	0	116.780	0	-1e10	8	-1e10	8	-1E+10	1	-1E+10	1	-1E+10	1	-1E+10	1	-1E+10	1	-1E+10	1
4902554	98	C	10/26/2023	07:09	-133.615	47.845	0	118.80	0	7.0390	0	32.7020	0	25.605	0	117.771	0	-1e10	8	-1e10	8	-1E+10	1	-1E+10	1	-1E+10	1	-1E+10	1	-1E+10	1	-1E+10	1
4902554	98	C	10/26/2023	07:09	-133.615	47.845	0	119.80	0	6.9990	0	32.7200	0	25.625	0	118.762	0	-1e10	8	-1e10	8	-1E+10	1	-1E+10	1	-1E+10	1	-1E+10	1	-1E+10	1	-1E+10	1
4902554	98	C	10/26/2023	07:09	-133.615	47.845	0	120.80	0	6.9760	0	32.7350	0	25.640	0	119.753	0	-1e10	8	-1e10	8	-1E+10	1	-1E+10	1	-1E+10	1	-1E+10	1	-1E+10	1	-1E+10	1
4902554	98	C	10/26/2023	07:09	-133.615	47.845	0	121.90	0	6.9560	0	32.7490	0	25.653	0	120.843	0	-1e10	8	-1e10	8	-1E+10	1	-1E+10	1	-1E+10	1	-1E+10	1	-1E+10	1	-1E+10	1
4902554	98	C	10/26/2023	07:09	-133.615	47.845	0	123.10	0	6.9010	0	32.8010	0	25.702	0	122.032	0	-1e10	8	-1e10	8	-1E+10	1	-1E+10	1	-1E+10	1	-1E+10	1	-1E+10	1	-1E+10	1
4902554	98	C	10/26/2023	07:09	-133.615	47.845	0	123.90	0	6.8720	0	32.8170	0	25.718	0	122.825	0	-1e10	8	-1e10	8	-1E+10	1	-1E+10	1	-1E+10	1	-1E+10	1	-1E+10	1	-1E+10	1
4902554	98	C	10/26/2023	07:09	-133.615	47.845	0	125.10	0	6.8150	0	32.8480	0	25.750	0	124.014	0	-1e10	8	-1e10	8	-1E+10	1	-1E+10	1	-1E+10	1	-1E+10	1	-1E+10	1	-1E+10	1
4902554	98	C	10/26/2023	07:09	-133.615	47.845	0	125.90	0	6.7750	0	32.8650	0	25.769	0	124.807	0	-1e10	8	-1e10	8	-1E+10	1	-1E+10	1	-1E+10	1	-1E+10	1	-1E+10	1	-1E+10	1
4902554	98	C	10/26/2023	07:09	-133.615	47.845	0	127.30	0	6.7210	0	32.9000	0	25.803	0	126.195	0	-1e10	8	-1e10	8	-1E+10	1	-1E+10	1	-1E+10	1	-1E+10	1	-1E+10	1	-1E+10	1
4902554	98	C	10/26/2023	07:09	-133.615	47.845	0	128.20	0	6.6970	0	32.9260	0	25.827	0	127.087	0	-1e10	8	-1e10	8	-1E+10	1	-1E+10	1	-1E+10	1	-1E+10	1	-1E+10	1	-1E+10	1
4902554	98	C	10/26/2023	07:09	-133.615	47.845	0	128.90	0	6.6330	0	32.9560	0	25.859	0	127.780	0	-1e10	8	-1e10	8	-1E+10	1	-1E+10	1	-1E+10	1	-1E+10	1	-1E+10	1	-1E+10	1
4902554	98	C	10/26/2023	07:09	-133.615	47.845	0	130.00	0	6.5860	0	32.9820	0	25.886	0	128.870	0	-1e10	8	-1e10	8	-1E+10	1	-1E+10	1	-1E+10	1	-1E+10	1	-1E+10	1	-1E+10	1
4902554	98	C	10/26/2023	07:09	-133.615	47.845	0	131.10	0	6.5530	0	33.0050	0	25.908	0	129.960	0	-1e10	8	-1e10	8	-1E+10	1	-1E+10	1	-1E+10	1	-1E+10	1	-1E+10	1	-1E+10	1
4902554	98	C	10/26/2023	07:09	-133.615	47.845	0	132.00	0	6.5330	0	33.0190	0	25.922	0	130.852	0	-1e10	8	-1e10	8	-1E+10	1	-1E+10	1	-1E+10	1	-1E+10	1	-1E+10	1	-1E+10	1
4902554	98	C	10/26/2023	07:09	-133.615	47.845	0	132.80	0	6.5160	0	33.0300	0	25.933	0	131.645	0	-1e10	8	-1e10	8	-1E+10	1	-1E+10	1	-1E+10	1	-1E+10	1	-1E+10	1	-1E+10	1
4902554	98	C	10/26/2023	07:09	-133.615	47.845	0	133.90	0	6.4920	0	33.0420	0	25.945	0	132.735	0	-1e10	8	-1e10	8	-1E+10	1	-1E+10	1	-1E+10	1	-1E+10	1	-1E+10	1	-1E+10	1
4902554	98	C	10/26/2023	07:09	-133.615	47.845	0	135.00	0	6.4170	0	33.0790	0	25.984	0	133.825	0	-1e10	8	-1e10	8	-1E+10	1	-1E+10	1	-1E+10	1	-1E+10	1	-1E+10	1	-1E+10	1
4902554	98	C	10/26/2023	07:09	-133.615	47.845	0	135.90	0	6.3950	0	33.0870	0	25.993	0	134.717	0	-1e10	8	-1e10	8	-1E+10	1	-1E+10	1	-1E+10	1	-1E+10	1	-1E+10	1	-1E+10	1
4902554	98	C	10/26/2023	07:09	-133.615	47.845	0	136.80	0	6.3400	0	33.1160	0	26.023	0	135.609	0	-1e10	8	-1e10	8	-1E+10	1	-1E+10	1	-1E+10	1	-1E+10	1	-1E+10	1	-1E+10	1
4902554	98	C	10/26/2023	07:09	-133.615	47.845	0	138.10	0	6.2490	0	33.1840	0	26.088	0	136.897	0	-1e10	8	-1e10	8	-1E+10	1	-1E+10	1	-1E+10	1	-1E+10	1	-1E+10	1	-1E+10	1
4902554	98	C	10/26/2023	07:09	-133.615	47.845	0	139.10	0	6.2240	0	33.2040	0	26.107	0	137.888	0	-1e10	8	-1e10	8	-1E+10	1	-1E+10	1	-1E+10	1	-1E+10	1	-1E+10	1	-1E+10	1
4902554	98	C	10/26/2023	07:09	-133.615	47.845	0	140.00	0	6.1550	0	33.2380	0	26.143	0	138.780	0	-1e10	8	-1e10	8	-1E+10	1	-1E+10	1	-1E+10	1	-1E+10	1	-1E+10	1	-1E+10	1
4902554	98	C	10/26/2023	07:09	-133.615	47.845	0	141.10	0	6.1170	0	33.2660	0	26.170	0	139.870	0	-1e10	8	-1e10	8	-1E+10	1	-1E+10	1	-1E+10	1	-1E+10	1	-1E+10	1	-1E+10	1
4902554	98	C	10/26/2023	07:09	-133.615	47.845	0	141.90	0	6.0820	0	33.2930	0	26.195	0	140.663	0	-1e10	8	-1e10	8	-1E+10	1	-1E+10	1	-1E+10	1	-1E+10	1	-1E+10	1	-1E+10	1
4902554	98	C	10/26/2023	07:09	-133.615	47.845	0	142.90	0	6.0570	0	33.3110	0	26.213	0	141.654	0	-1e10	8	-1e10	8	-1E+10	1	-1E+10	1	-1E+10	1	-1E+10	1	-1E+10	1	-1E+10	1
4902554	98	C	10/26/2023	07:09	-133.615	47.845	0	144.10	0	6.0260	0	33.3380	0	26.238	0	142.843	0	-1e10	8	-1e10	8	-1E+10	1	-1E+10	1	-1E+10	1	-1E+10	1	-1E+10	1	-1E+10	1
4902554	98	C	10/26/2023	07:09	-133.615	47.845	0	144.90	0	6.0130	0	33.3430	0	26.243	0	143.636	0	-1e10	8	-1e10	8	-1E+10	1	-1E+10	1	-1E+10	1	-1E+10	1	-1E+10	1	-1E+10	1
4902554	98	C	10/26/2023	07:09	-133.615	47.845	0	145.70	0	5.9880	0	33.3510	0	26.253	0	144.428	0	-1e10	8	-1e10	8	-1E+10	1	-1E+10	1	-1E+10	1	-1E+10	1	-1E+10	1	-1E+10	1
4902554	98	C	10/26/2023	07:09	-133.615	47.845	0	146.90	0	5.9430	0	33.3710	0	26.274	0	145.618	0	-1e10	8	-1e10	8	-1E+10	1	-1E+10	1	-1E+10	1	-1E+10	1	-1E+10	1	-1E+10	1
4902554	98	C	10/26/2023	07:09	-133.615	47.845	0	148.10	0	5.9460	0	33.3850	0	26.285	0	146.807	0	-1e10	8	-1e10	8	-1E+10	1	-1E+10	1	-1E+10	1	-1E+10	1	-1E+10	1	-1E+10	1
4902554	98	C	10/26/2023	07:09	-133.615	47.845	0	148.90	0	5.9490	0	33.3910	0	26.289	0	147.599	0	-1e10	8	-1e10	8	-1E+10	1	-1E+10	1	-1E+10	1	-1E+10	1	-1E+10	1	-1E+10	1
4902554	98	C	10/26/2023	07:09	-133.615	47.845	0	149.70	0	5.9410	0	33.4220	0	26.315	0	148.392	0	-1e10	8	-1e10	8	-1E+10	1	-1E+10	1	-1E+10	1	-1E+10	1	-1E+10	1	-1E+10	1
4902554	98	C	10/26/2023	07:09	-133.615	47.845	0	151.00	0	5.9010	0	33.4490	0	26.341	0	149.680	0	-1e10	8	-1e10	8	-1E+10	1	-1E+10	1	-1E+10	1	-1E+10	1	-1E+10	1	-1E+10	1
4902554	98	C	10/26/2023	07:09	-133.615	47.845	0	152.30	0	5.8740	0	33.4630	0	26.355	0	150.968	0	-1e10	8	-1e10	8	-1E+10	1	-1E+10	1	-1E+10	1	-1E+10	1	-1E+10	1	-1E+10	1
4902554	98	C	10/26/2023	07:09	-133.615	47.845	0	153.20	0	5.8550	0	33.4720	0	26.365	0	151.860	0	-1e10	8	-1e10	8	-1E+10	1	-1E+10	1	-1E+10	1	-1E+10	1	-1E+10	1	-1E+10	1
4902554	98	C	10/26/2023	07:09	-133.615	47.845	0	154.10	0	5.8520	0	33.4950	0	26.383	0	152.752	0	-1e10	8	-1e10	8	-1E+10	1	-1E+10	1	-1E+10	1	-1E+10	1	-1E+10	1	-1E+10	1
4902554	98	C	10/26/2023	07:09	-133.615	47.845	0	155.00	0	5.8350	0	33.5090	0	26.397	0	153.644	0	-1e10	8	-1e10	8	-1E+10	1	-1E+10	1	-1E+10	1	-1E+10	1	-1E+10	1	-1E+10	1
4902554	98	C	10/26/2023	07:09	-133.615	47.845	0	155.90	0	5.8460	0	33.5300	0	26.412	0	154.536	0	-1e10	8	-1e10	8	-1E+10	1	-1E+10	1	-1E+10	1	-1E+10	1	-1E+10	1	-1E+10	1
4902554	98	C	10/26/2023	07:09	-133.615	47.845	0	156.90	0	5.8220	0	33.5410	0	26.424	0	155.526	0	-1e10	8	-1e10	8	-1E+10	1	-1E+10	1	-1E+10	1	-1E+10	1	-1E+10	1	-1E+10	1
4902554	98	C	10/26/2023	07:09	-133.615	47.845	0	157.80	0	5.7980	0	33.5530	0	26.436	0	156.418	0	-1e10	8	-1e10	8	-1E+10	1	-1E+10	1	-1E+10	1	-1E+10	1	-1E+10	1	-1E+10	1
4902554	98	C	10/26/2023	07:09	-133.615	47.845	0	158.70	0	5.7850	0	33.5570	0	26.441	0	157.310	0	-1e10	8	-1e10	8	-1E+10	1	-1E+10	1	-1E+10	1	-1E+10	1	-1E+10	1	-1E+10	1
4902554	98	C	10/26/2023	07:09	-133.615	47.845	0	159.70	0	5.7700	0	33.5600	0	26.445	0	158.301	0	-1e10	8	-1e10	8	-1E+10	1	-1E+10	1	-1E+10	1	-1E+10	1	-1E+10	1	-1E+10	1
4902554	98	C	10/26/2023	07:09	-133.615	47.845	0	160.70	0	5.7610	0	33.5680	0	26.452	0	159.292	0	-1e10	8	-1e10	8	-1E+10	1	-1E+10	1	-1E+10	1	-1E+10	1	-1E+10	1	-1E+10	1
4902554	98	C	10/26/2023	07:09	-133.615	47.845	0	161.60	0	5.7610	0	33.5720	0	26.456	0	160.184	0	-1e10	8	-1e10	8	-1E+10	1	-1E+10	1	-1E+10	1	-1E+10	1	-1E+10	1	-1E+10	1
4902554	98	C	10/26/2023	07:09	-133.615	47.845	0	162.60	0	5.7610	0	33.5730	0	26.456	0	161.174	0	-1e10	8	-1e10	8	-1E+10	1	-1E+10	1	-1E+10	1	-1E+10	1	-1E+10	1	-1E+10	1
4902554	98	C	10/26/2023	07:09	-133.615	47.845	0	163.60	0	5.7590	0	33.5760	0	26.459	0	162.165	0	-1e10	8	-1e10	8	-1E+10	1	-1E+10	1	-1E+10	1	-1E+10	1	-1E+10	1	-1E+10	1
4902554	98	C	10/26/2023	07:09	-133.615	47.845	0	164.50	0	5.7490	0	33.5870	0	26.469	0	163.057	0	-1e10	8	-1e10	8	-1E+10	1	-1E+10	1	-1E+10	1	-1E+10	1	-1E+10	1	-1E+10	1
4902554	98	C	10/26/2023	07:09	-133.615	47.845	0	165.50	0	5.7410	0	33.5900	0	26.472	0	164.048	0	-1e10	8	-1e10	8	-1E+10	1	-1E+10	1	-1E+10	1	-1E+10	1	-1E+10	1	-1E+10	1
4902554	98	C	10/26/2023	07:09	-133.615	47.845	0	166.90	0	5.7210	0	33.6040	0	26.486	0	165.435	0	-1e10	8	-1e10	8	-1E+10	1	-1E+10	1	-1E+10	1	-1E+10	1	-1E+10	1	-1E+10	1
4902554	98	C	10/26/2023	07:09	-133.615	47.845	0	168.40	0	5.7150	0	33.6090	0	26.490	0	166.921	0	-1e10	8	-1e10	8	-1E+10	1	-1E+10	1	-1E+10	1	-1E+10	1	-1E+10	1	-1E+10	1
4902554	98	C	10/26/2023	07:09	-133.615	47.845	0	169.40	0	5.7150	0	33.6100	0	26.491	0	167.912	0	-1e10	8	-1e10	8	-1E+10	1	-1E+10	1	-1E+10	1	-1E+10	1	-1E+10	1	-1E+10	1
4902554	98	C	10/26/2023	07:09	-133.615	47.845	0	170.30	0	5.7170	0	33.6120	0	26.493	0	168.804	0	-1e10	8	-1e10	8	-1E+10	1	-1E+10	1	-1E+10	1	-1E+10	1	-1E+10	1	-1E+10	1
4902554	98	C	10/26/2023	07:09	-133.615	47.845	0	171.30	0	5.7120	0	33.6200	0	26.500	0	169.794	0	-1e10	8	-1e10	8	-1E+10	1	-1E+10	1	-1E+10	1	-1E+10	1	-1E+10	1	-1E+10	1
4902554	98	C	10/26/2023	07:09	-133.615	47.845	0	172.20	0	5.7040	0	33.6250	0	26.504	0	170.686	0	-1e10	8	-1e10	8	-1E+10	1	-1E+10	1	-1E+10	1	-1E+10	1	-1E+10	1	-1E+10	1
4902554	98	C	10/26/2023	07:09	-133.615	47.845	0	173.20	0	5.6960	0	33.6280	0	26.508	0	171.677	0	-1e10	8	-1e10	8	-1E+10	1	-1E+10	1	-1E+10	1	-1E+10	1	-1E+10	1	-1E+10	1
4902554	98	C	10/26/2023	07:09	-133.615	47.845	0	174.10	0	5.6910	0	33.6320	0	26.512	0	172.569	0	-1e10	8	-1e10	8	-1E+10	1	-1E+10	1	-1E+10	1	-1E+10	1	-1E+10	1	-1E+10	1
4902554	98	C	10/26/2023	07:09	-133.615	47.845	0	175.10	0	5.6920	0	33.6310	0	26.511	0	173.560	0	-1e10	8	-1e10	8	-1E+10	1	-1E+10	1	-1E+10	1	-1E+10	1	-1E+10	1	-1E+10	1
4902554	98	C	10/26/2023	07:09	-133.615	47.845	0	176.10	0	5.6790	0	33.6410	0	26.520	0	174.550	0	-1e10	8	-1e10	8	-1E+10	1	-1E+10	1	-1E+10	1	-1E+10	1	-1E+10	1	-1E+10	1
4902554	98	C	10/26/2023	07:09	-133.615	47.845	0	177.00	0	5.6660	0	33.6460	0	26.526	0	175.442	0	-1e10	8	-1e10	8	-1E+10	1	-1E+10	1	-1E+10	1	-1E+10	1	-1E+10	1	-1E+10	1
4902554	98	C	10/26/2023	07:09	-133.615	47.845	0	178.10	0	5.6550	0	33.6530	0	26.533	0	176.532	0	-1e10	8	-1e10	8	-1E+10	1	-1E+10	1	-1E+10	1	-1E+10	1	-1E+10	1	-1E+10	1
4902554	98	C	10/26/2023	07:09	-133.615	47.845	0	179.00	0	5.6450	0	33.6580	0	26.538	0	177.424	0	-1e10	8	-1e10	8	-1E+10	1	-1E+10	1	-1E+10	1	-1E+10	1	-1E+10	1	-1E+10	1
4902554	98	C	10/26/2023	07:09	-133.615	47.845	0	180.00	0	5.6180	0	33.6680	0	26.549	0	178.414	0	-1e10	8	-1e10	8	-1E+10	1	-1E+10	1	-1E+10	1	-1E+10	1	-1E+10	1	-1E+10	1
4902554	98	C	10/26/2023	07:09	-133.615	47.845	0	181.00	0	5.6070	0	33.6720	0	26.553	0	179.405	0	-1e10	8	-1e10	8	-1E+10	1	-1E+10	1	-1E+10	1	-1E+10	1	-1E+10	1	-1E+10	1
4902554	98	C	10/26/2023	07:09	-133.615	47.845	0	182.00	0	5.6000	0	33.6760	0	26.557	0	180.396	0	-1e10	8	-1e10	8	-1E+10	1	-1E+10	1	-1E+10	1	-1E+10	1	-1E+10	1	-1E+10	1
4902554	98	C	10/26/2023	07:09	-133.615	47.845	0	183.10	0	5.5810	0	33.6850	0	26.567	0	181.486	0	-1e10	8	-1e10	8	-1E+10	1	-1E+10	1	-1E+10	1	-1E+10	1	-1E+10	1	-1E+10	1
4902554	98	C	10/26/2023	07:09	-133.615	47.845	0	184.10	0	5.5680	0	33.6890	0	26.572	0	182.476	0	-1e10	8	-1e10	8	-1E+10	1	-1E+10	1	-1E+10	1	-1E+10	1	-1E+10	1	-1E+10	1
4902554	98	C	10/26/2023	07:09	-133.615	47.845	0	185.10	0	5.5630	0	33.6920	0	26.575	0	183.467	0	-1e10	8	-1e10	8	-1E+10	1	-1E+10	1	-1E+10	1	-1E+10	1	-1E+10	1	-1E+10	1
4902554	98	C	10/26/2023	07:09	-133.615	47.845	0	186.10	0	5.5550	0	33.6950	0	26.578	0	184.458	0	-1e10	8	-1e10	8	-1E+10	1	-1E+10	1	-1E+10	1	-1E+10	1	-1E+10	1	-1E+10	1
4902554	98	C	10/26/2023	07:09	-133.615	47.845	0	187.20	0	5.5440	0	33.6980	0	26.582	0	185.548	0	-1e10	8	-1e10	8	-1E+10	1	-1E+10	1	-1E+10	1	-1E+10	1	-1E+10	1	-1E+10	1
4902554	98	C	10/26/2023	07:09	-133.615	47.845	0	188.20	0	5.5300	0	33.7020	0	26.586	0	186.538	0	-1e10	8	-1e10	8	-1E+10	1	-1E+10	1	-1E+10	1	-1E+10	1	-1E+10	1	-1E+10	1
4902554	98	C	10/26/2023	07:09	-133.615	47.845	0	189.20	0	5.5140	0	33.7050	0	26.591	0	187.529	0	-1e10	8	-1e10	8	-1E+10	1	-1E+10	1	-1E+10	1	-1E+10	1	-1E+10	1	-1E+10	1
4902554	98	C	10/26/2023	07:09	-133.615	47.845	0	190.20	0	5.5000	0	33.7080	0	26.595	0	188.520	0	-1e10	8	-1e10	8	-1E+10	1	-1E+10	1	-1E+10	1	-1E+10	1	-1E+10	1	-1E+10	1
4902554	98	C	10/26/2023	07:09	-133.615	47.845	0	191.20	0	5.4920	0	33.7100	0	26.597	0	189.510	0	-1e10	8	-1e10	8	-1E+10	1	-1E+10	1	-1E+10	1	-1E+10	1	-1E+10	1	-1E+10	1
4902554	98	C	10/26/2023	07:09	-133.615	47.845	0	192.30	0	5.4850	0	33.7110	0	26.599	0	190.600	0	-1e10	8	-1e10	8	-1E+10	1	-1E+10	1	-1E+10	1	-1E+10	1	-1E+10	1	-1E+10	1
4902554	98	C	10/26/2023	07:09	-133.615	47.845	0	193.30	0	5.4800	0	33.7120	0	26.600	0	191.591	0	-1e10	8	-1e10	8	-1E+10	1	-1E+10	1	-1E+10	1	-1E+10	1	-1E+10	1	-1E+10	1
4902554	98	C	10/26/2023	07:09	-133.615	47.845	0	194.30	0	5.4740	0	33.7140	0	26.603	0	192.582	0	-1e10	8	-1e10	8	-1E+10	1	-1E+10	1	-1E+10	1	-1E+10	1	-1E+10	1	-1E+10	1
4902554	98	C	10/26/2023	07:09	-133.615	47.845	0	195.30	0	5.4670	0	33.7140	0	26.603	0	193.572	0	-1e10	8	-1e10	8	-1E+10	1	-1E+10	1	-1E+10	1	-1E+10	1	-1E+10	1	-1E+10	1
4902554	98	C	10/26/2023	07:09	-133.615	47.845	0	196.30	0	5.4600	0	33.7160	0	26.606	0	194.563	0	-1e10	8	-1e10	8	-1E+10	1	-1E+10	1	-1E+10	1	-1E+10	1	-1E+10	1	-1E+10	1
4902554	98	C	10/26/2023	07:09	-133.615	47.845	0	197.30	0	5.4510	0	33.7170	0	26.608	0	195.554	0	-1e10	8	-1e10	8	-1E+10	1	-1E+10	1	-1E+10	1	-1E+10	1	-1E+10	1	-1E+10	1
4902554	98	C	10/26/2023	07:09	-133.615	47.845	0	198.20	0	5.4350	0	33.7200	0	26.612	0	196.445	0	-1e10	8	-1e10	8	-1E+10	1	-1E+10	1	-1E+10	1	-1E+10	1	-1E+10	1	-1E+10	1
4902554	98	C	10/26/2023	07:09	-133.615	47.845	0	199.20	0	5.4200	0	33.7240	0	26.617	0	197.436	0	-1e10	8	-1e10	8	-1E+10	1	-1E+10	1	-1E+10	1	-1E+10	1	-1E+10	1	-1E+10	1
4902554	98	C	10/26/2023	07:09	-133.615	47.845	0	199.90	0	5.4060	0	33.7240	0	26.619	0	198.129	0	-1e10	8	-1e10	8	-1E+10	1	-1E+10	1	-1E+10	1	-1E+10	1	-1E+10	1	-1E+10	1
4902554	98	C	10/26/2023	07:09	-133.615	47.845	0	201.00	0	5.3910	0	33.7260	0	26.622	0	199.219	0	-1e10	8	-1e10	8	-1E+10	1	-1E+10	1	-1E+10	1	-1E+10	1	-1E+10	1	-1E+10	1
4902554	98	C	10/26/2023	07:09	-133.615	47.845	0	202.20	0	5.3710	0	33.7300	0	26.628	0	200.408	0	-1e10	8	-1e10	8	-1E+10	1	-1E+10	1	-1E+10	1	-1E+10	1	-1E+10	1	-1E+10	1
4902554	98	C	10/26/2023	07:09	-133.615	47.845	0	202.90	0	5.3460	0	33.7370	0	26.636	0	201.101	0	-1e10	8	-1e10	8	-1E+10	1	-1E+10	1	-1E+10	1	-1E+10	1	-1E+10	1	-1E+10	1
4902554	98	C	10/26/2023	07:09	-133.615	47.845	0	203.70	0	5.3370	0	33.7330	0	26.634	0	201.894	0	-1e10	8	-1e10	8	-1E+10	1	-1E+10	1	-1E+10	1	-1E+10	1	-1E+10	1	-1E+10	1
4902554	98	C	10/26/2023	07:09	-133.615	47.845	0	204.80	0	5.3280	0	33.7340	0	26.636	0	202.984	0	-1e10	8	-1e10	8	-1E+10	1	-1E+10	1	-1E+10	1	-1E+10	1	-1E+10	1	-1E+10	1
4902554	98	C	10/26/2023	07:09	-133.615	47.845	0	206.00	0	5.3240	0	33.7350	0	26.637	0	204.172	0	-1e10	8	-1e10	8	-1E+10	1	-1E+10	1	-1E+10	1	-1E+10	1	-1E+10	1	-1E+10	1
4902554	98	C	10/26/2023	07:09	-133.615	47.845	0	207.00	0	5.3170	0	33.7360	0	26.639	0	205.163	0	-1e10	8	-1e10	8	-1E+10	1	-1E+10	1	-1E+10	1	-1E+10	1	-1E+10	1	-1E+10	1
4902554	98	C	10/26/2023	07:09	-133.615	47.845	0	208.20	0	5.3030	0	33.7390	0	26.643	0	206.352	0	-1e10	8	-1e10	8	-1E+10	1	-1E+10	1	-1E+10	1	-1E+10	1	-1E+10	1	-1E+10	1
4902554	98	C	10/26/2023	07:09	-133.615	47.845	0	209.00	0	5.2990	0	33.7390	0	26.643	0	207.144	0	-1e10	8	-1e10	8	-1E+10	1	-1E+10	1	-1E+10	1	-1E+10	1	-1E+10	1	-1E+10	1
4902554	98	C	10/26/2023	07:09	-133.615	47.845	0	209.80	0	5.2940	0	33.7390	0	26.644	0	207.937	0	-1e10	8	-1e10	8	-1E+10	1	-1E+10	1	-1E+10	1	-1E+10	1	-1E+10	1	-1E+10	1
4902554	98	C	10/26/2023	07:09	-133.615	47.845	0	211.00	0	5.2770	0	33.7410	0	26.647	0	209.126	0	-1e10	8	-1e10	8	-1E+10	1	-1E+10	1	-1E+10	1	-1E+10	1	-1E+10	1	-1E+10	1
4902554	98	C	10/26/2023	07:09	-133.615	47.845	0	212.10	0	5.2660	0	33.7430	0	26.650	0	210.215	0	-1e10	8	-1e10	8	-1E+10	1	-1E+10	1	-1E+10	1	-1E+10	1	-1E+10	1	-1E+10	1
4902554	98	C	10/26/2023	07:09	-133.615	47.845	0	212.90	0	5.2620	0	33.7430	0	26.651	0	211.008	0	-1e10	8	-1e10	8	-1E+10	1	-1E+10	1	-1E+10	1	-1E+10	1	-1E+10	1	-1E+10	1
4902554	98	C	10/26/2023	07:09	-133.615	47.845	0	213.70	0	5.2600	0	33.7430	0	26.651	0	211.800	0	-1e10	8	-1e10	8	-1E+10	1	-1E+10	1	-1E+10	1	-1E+10	1	-1E+10	1	-1E+10	1
4902554	98	C	10/26/2023	07:09	-133.615	47.845	0	214.90	0	5.2530	0	33.7440	0	26.653	0	212.989	0	-1e10	8	-1e10	8	-1E+10	1	-1E+10	1	-1E+10	1	-1E+10	1	-1E+10	1	-1E+10	1
4902554	98	C	10/26/2023	07:09	-133.615	47.845	0	216.10	0	5.2450	0	33.7450	0	26.654	0	214.178	0	-1e10	8	-1e10	8	-1E+10	1	-1E+10	1	-1E+10	1	-1E+10	1	-1E+10	1	-1E+10	1
4902554	98	C	10/26/2023	07:09	-133.615	47.845	0	216.90	0	5.2200	0	33.7500	0	26.661	0	214.970	0	-1e10	8	-1e10	8	-1E+10	1	-1E+10	1	-1E+10	1	-1E+10	1	-1E+10	1	-1E+10	1
4902554	98	C	10/26/2023	07:09	-133.615	47.845	0	217.80	0	5.2140	0	33.7490	0	26.661	0	215.862	0	-1e10	8	-1e10	8	-1E+10	1	-1E+10	1	-1E+10	1	-1E+10	1	-1E+10	1	-1E+10	1
4902554	98	C	10/26/2023	07:09	-133.615	47.845	0	219.00	0	5.2070	0	33.7490	0	26.662	0	217.050	0	-1e10	8	-1e10	8	-1E+10	1	-1E+10	1	-1E+10	1	-1E+10	1	-1E+10	1	-1E+10	1
4902554	98	C	10/26/2023	07:09	-133.615	47.845	0	220.20	0	5.2010	0	33.7520	0	26.665	0	218.239	0	-1e10	8	-1e10	8	-1E+10	1	-1E+10	1	-1E+10	1	-1E+10	1	-1E+10	1	-1E+10	1
4902554	98	C	10/26/2023	07:09	-133.615	47.845	0	221.00	0	5.1940	0	33.7520	0	26.666	0	219.031	0	-1e10	8	-1e10	8	-1E+10	1	-1E+10	1	-1E+10	1	-1E+10	1	-1E+10	1	-1E+10	1
4902554	98	C	10/26/2023	07:09	-133.615	47.845	0	221.80	0	5.1920	0	33.7520	0	26.666	0	219.824	0	-1e10	8	-1e10	8	-1E+10	1	-1E+10	1	-1E+10	1	-1E+10	1	-1E+10	1	-1E+10	1
4902554	98	C	10/26/2023	07:09	-133.615	47.845	0	222.60	0	5.1890	0	33.7530	0	26.667	0	220.616	0	-1e10	8	-1e10	8	-1E+10	1	-1E+10	1	-1E+10	1	-1E+10	1	-1E+10	1	-1E+10	1
4902554	98	C	10/26/2023	07:09	-133.615	47.845	0	223.90	0	5.1720	0	33.7550	0	26.671	0	221.904	0	-1e10	8	-1e10	8	-1E+10	1	-1E+10	1	-1E+10	1	-1E+10	1	-1E+10	1	-1E+10	1
4902554	98	C	10/26/2023	07:09	-133.615	47.845	0	225.20	0	5.1640	0	33.7560	0	26.672	0	223.192	0	-1e10	8	-1e10	8	-1E+10	1	-1E+10	1	-1E+10	1	-1E+10	1	-1E+10	1	-1E+10	1
4902554	98	C	10/26/2023	07:09	-133.615	47.845	0	226.00	0	5.1620	0	33.7570	0	26.673	0	223.984	0	-1e10	8	-1e10	8	-1E+10	1	-1E+10	1	-1E+10	1	-1E+10	1	-1E+10	1	-1E+10	1
4902554	98	C	10/26/2023	07:09	-133.615	47.845	0	226.90	0	5.1600	0	33.7590	0	26.675	0	224.876	0	-1e10	8	-1e10	8	-1E+10	1	-1E+10	1	-1E+10	1	-1E+10	1	-1E+10	1	-1E+10	1
4902554	98	C	10/26/2023	07:09	-133.615	47.845	0	227.70	0	5.1580	0	33.7610	0	26.677	0	225.668	0	-1e10	8	-1e10	8	-1E+10	1	-1E+10	1	-1E+10	1	-1E+10	1	-1E+10	1	-1E+10	1
4902554	98	C	10/26/2023	07:09	-133.615	47.845	0	229.00	0	5.1530	0	33.7620	0	26.678	0	226.956	0	-1e10	8	-1e10	8	-1E+10	1	-1E+10	1	-1E+10	1	-1E+10	1	-1E+10	1	-1E+10	1
4902554	98	C	10/26/2023	07:09	-133.615	47.845	0	230.30	0	5.1510	0	33.7630	0	26.679	0	228.243	0	-1e10	8	-1e10	8	-1E+10	1	-1E+10	1	-1E+10	1	-1E+10	1	-1E+10	1	-1E+10	1
4902554	98	C	10/26/2023	07:09	-133.615	47.845	0	231.10	0	5.1510	0	33.7630	0	26.679	0	229.036	0	-1e10	8	-1e10	8	-1E+10	1	-1E+10	1	-1E+10	1	-1E+10	1	-1E+10	1	-1E+10	1
4902554	98	C	10/26/2023	07:09	-133.615	47.845	0	232.00	0	5.1480	0	33.7630	0	26.680	0	229.927	0	-1e10	8	-1e10	8	-1E+10	1	-1E+10	1	-1E+10	1	-1E+10	1	-1E+10	1	-1E+10	1
4902554	98	C	10/26/2023	07:09	-133.615	47.845	0	232.80	0	5.1400	0	33.7640	0	26.682	0	230.720	0	-1e10	8	-1e10	8	-1E+10	1	-1E+10	1	-1E+10	1	-1E+10	1	-1E+10	1	-1E+10	1
4902554	98	C	10/26/2023	07:09	-133.615	47.845	0	233.70	0	5.1350	0	33.7650	0	26.683	0	231.611	0	-1e10	8	-1e10	8	-1E+10	1	-1E+10	1	-1E+10	1	-1E+10	1	-1E+10	1	-1E+10	1
4902554	98	C	10/26/2023	07:09	-133.615	47.845	0	235.00	0	5.1170	0	33.7680	0	26.687	0	232.899	0	-1e10	8	-1e10	8	-1E+10	1	-1E+10	1	-1E+10	1	-1E+10	1	-1E+10	1	-1E+10	1
4902554	98	C	10/26/2023	07:09	-133.615	47.845	0	236.30	0	5.1090	0	33.7680	0	26.688	0	234.186	0	-1e10	8	-1e10	8	-1E+10	1	-1E+10	1	-1E+10	1	-1E+10	1	-1E+10	1	-1E+10	1
4902554	98	C	10/26/2023	07:09	-133.615	47.845	0	237.20	0	5.1100	0	33.7700	0	26.690	0	235.078	0	-1e10	8	-1e10	8	-1E+10	1	-1E+10	1	-1E+10	1	-1E+10	1	-1E+10	1	-1E+10	1
4902554	98	C	10/26/2023	07:09	-133.615	47.845	0	238.10	0	5.1070	0	33.7710	0	26.691	0	235.969	0	-1e10	8	-1e10	8	-1E+10	1	-1E+10	1	-1E+10	1	-1E+10	1	-1E+10	1	-1E+10	1
4902554	98	C	10/26/2023	07:09	-133.615	47.845	0	239.00	0	5.1040	0	33.7710	0	26.691	0	236.861	0	-1e10	8	-1e10	8	-1E+10	1	-1E+10	1	-1E+10	1	-1E+10	1	-1E+10	1	-1E+10	1
4902554	98	C	10/26/2023	07:09	-133.615	47.845	0	239.80	0	5.0980	0	33.7710	0	26.692	0	237.653	0	-1e10	8	-1e10	8	-1E+10	1	-1E+10	1	-1E+10	1	-1E+10	1	-1E+10	1	-1E+10	1
4902554	98	C	10/26/2023	07:09	-133.615	47.845	0	240.70	0	5.0920	0	33.7720	0	26.693	0	238.545	0	-1e10	8	-1e10	8	-1E+10	1	-1E+10	1	-1E+10	1	-1E+10	1	-1E+10	1	-1E+10	1
4902554	98	C	10/26/2023	07:09	-133.615	47.845	0	241.60	0	5.0860	0	33.7720	0	26.694	0	239.436	0	-1e10	8	-1e10	8	-1E+10	1	-1E+10	1	-1E+10	1	-1E+10	1	-1E+10	1	-1E+10	1
4902554	98	C	10/26/2023	07:09	-133.615	47.845	0	242.90	0	5.0780	0	33.7730	0	26.696	0	240.724	0	-1e10	8	-1e10	8	-1E+10	1	-1E+10	1	-1E+10	1	-1E+10	1	-1E+10	1	-1E+10	1
4902554	98	C	10/26/2023	07:09	-133.615	47.845	0	244.20	0	5.0750	0	33.7750	0	26.698	0	242.011	0	-1e10	8	-1e10	8	-1E+10	1	-1E+10	1	-1E+10	1	-1E+10	1	-1E+10	1	-1E+10	1
4902554	98	C	10/26/2023	07:09	-133.615	47.845	0	245.10	0	5.0720	0	33.7750	0	26.698	0	242.903	0	-1e10	8	-1e10	8	-1E+10	1	-1E+10	1	-1E+10	1	-1E+10	1	-1E+10	1	-1E+10	1
4902554	98	C	10/26/2023	07:09	-133.615	47.845	0	246.00	0	5.0660	0	33.7760	0	26.700	0	243.794	0	-1e10	8	-1e10	8	-1E+10	1	-1E+10	1	-1E+10	1	-1E+10	1	-1E+10	1	-1E+10	1
4902554	98	C	10/26/2023	07:09	-133.615	47.845	0	246.90	0	5.0650	0	33.7760	0	26.700	0	244.685	0	-1e10	8	-1e10	8	-1E+10	1	-1E+10	1	-1E+10	1	-1E+10	1	-1E+10	1	-1E+10	1
4902554	98	C	10/26/2023	07:09	-133.615	47.845	0	247.80	0	5.0530	0	33.7790	0	26.704	0	245.577	0	-1e10	8	-1e10	8	-1E+10	1	-1E+10	1	-1E+10	1	-1E+10	1	-1E+10	1	-1E+10	1
4902554	98	C	10/26/2023	07:09	-133.615	47.845	0	248.70	0	5.0330	0	33.7810	0	26.707	0	246.468	0	-1e10	8	-1e10	8	-1E+10	1	-1E+10	1	-1E+10	1	-1E+10	1	-1E+10	1	-1E+10	1
4902554	98	C	10/26/2023	07:09	-133.615	47.845	0	249.90	0	5.0170	0	33.7830	0	26.711	0	247.657	0	-1e10	8	-1e10	8	-1E+10	1	-1E+10	1	-1E+10	1	-1E+10	1	-1E+10	1	-1E+10	1
4902554	98	C	10/26/2023	07:09	-133.615	47.845	0	251.30	0	5.0150	0	33.7820	0	26.710	0	249.043	0	-1e10	8	-1e10	8	-1E+10	1	-1E+10	1	-1E+10	1	-1E+10	1	-1E+10	1	-1E+10	1
4902554	98	C	10/26/2023	07:09	-133.615	47.845	0	252.20	0	5.0100	0	33.7830	0	26.712	0	249.935	0	-1e10	8	-1e10	8	-1E+10	1	-1E+10	1	-1E+10	1	-1E+10	1	-1E+10	1	-1E+10	1
4902554	98	C	10/26/2023	07:09	-133.615	47.845	0	253.10	0	5.0040	0	33.7830	0	26.712	0	250.826	0	-1e10	8	-1e10	8	-1E+10	1	-1E+10	1	-1E+10	1	-1E+10	1	-1E+10	1	-1E+10	1
4902554	98	C	10/26/2023	07:09	-133.615	47.845	0	254.00	0	4.9990	0	33.7840	0	26.714	0	251.717	0	-1e10	8	-1e10	8	-1E+10	1	-1E+10	1	-1E+10	1	-1E+10	1	-1E+10	1	-1E+10	1
4902554	98	C	10/26/2023	07:09	-133.615	47.845	0	254.90	0	4.9880	0	33.7860	0	26.717	0	252.609	0	-1e10	8	-1e10	8	-1E+10	1	-1E+10	1	-1E+10	1	-1E+10	1	-1E+10	1	-1E+10	1
4902554	98	C	10/26/2023	07:09	-133.615	47.845	0	255.80	0	4.9850	0	33.7860	0	26.717	0	253.500	0	-1e10	8	-1e10	8	-1E+10	1	-1E+10	1	-1E+10	1	-1E+10	1	-1E+10	1	-1E+10	1
4902554	98	C	10/26/2023	07:09	-133.615	47.845	0	256.70	0	4.9850	0	33.7860	0	26.717	0	254.391	0	-1e10	8	-1e10	8	-1E+10	1	-1E+10	1	-1E+10	1	-1E+10	1	-1E+10	1	-1E+10	1
4902554	98	C	10/26/2023	07:09	-133.615	47.845	0	257.60	0	4.9850	0	33.7860	0	26.717	0	255.283	0	-1e10	8	-1e10	8	-1E+10	1	-1E+10	1	-1E+10	1	-1E+10	1	-1E+10	1	-1E+10	1
4902554	98	C	10/26/2023	07:09	-133.615	47.845	0	258.90	0	4.9720	0	33.7870	0	26.719	0	256.570	0	-1e10	8	-1e10	8	-1E+10	1	-1E+10	1	-1E+10	1	-1E+10	1	-1E+10	1	-1E+10	1
4902554	98	C	10/26/2023	07:09	-133.615	47.845	0	260.30	0	4.9500	0	33.7910	0	26.725	0	257.957	0	-1e10	8	-1e10	8	-1E+10	1	-1E+10	1	-1E+10	1	-1E+10	1	-1E+10	1	-1E+10	1
4902554	98	C	10/26/2023	07:09	-133.615	47.845	0	261.20	0	4.9470	0	33.7910	0	26.725	0	258.848	0	-1e10	8	-1e10	8	-1E+10	1	-1E+10	1	-1E+10	1	-1E+10	1	-1E+10	1	-1E+10	1
4902554	98	C	10/26/2023	07:09	-133.615	47.845	0	262.10	0	4.9460	0	33.7910	0	26.725	0	259.739	0	-1e10	8	-1e10	8	-1E+10	1	-1E+10	1	-1E+10	1	-1E+10	1	-1E+10	1	-1E+10	1
4902554	98	C	10/26/2023	07:09	-133.615	47.845	0	263.10	0	4.9360	0	33.7940	0	26.729	0	260.730	0	-1e10	8	-1e10	8	-1E+10	1	-1E+10	1	-1E+10	1	-1E+10	1	-1E+10	1	-1E+10	1
4902554	98	C	10/26/2023	07:09	-133.615	47.845	0	264.00	0	4.9290	0	33.7940	0	26.730	0	261.621	0	-1e10	8	-1e10	8	-1E+10	1	-1E+10	1	-1E+10	1	-1E+10	1	-1E+10	1	-1E+10	1
4902554	98	C	10/26/2023	07:09	-133.615	47.845	0	264.80	0	4.9310	0	33.7940	0	26.729	0	262.413	0	-1e10	8	-1e10	8	-1E+10	1	-1E+10	1	-1E+10	1	-1E+10	1	-1E+10	1	-1E+10	1
4902554	98	C	10/26/2023	07:09	-133.615	47.845	0	265.80	0	4.9300	0	33.7970	0	26.732	0	263.404	0	-1e10	8	-1e10	8	-1E+10	1	-1E+10	1	-1E+10	1	-1E+10	1	-1E+10	1	-1E+10	1
4902554	98	C	10/26/2023	07:09	-133.615	47.845	0	266.70	0	4.9050	0	33.8000	0	26.737	0	264.295	0	-1e10	8	-1e10	8	-1E+10	1	-1E+10	1	-1E+10	1	-1E+10	1	-1E+10	1	-1E+10	1
4902554	98	C	10/26/2023	07:09	-133.615	47.845	0	267.60	0	4.8910	0	33.8030	0	26.741	0	265.186	0	-1e10	8	-1e10	8	-1E+10	1	-1E+10	1	-1E+10	1	-1E+10	1	-1E+10	1	-1E+10	1
4902554	98	C	10/26/2023	07:09	-133.615	47.845	0	268.90	0	4.8800	0	33.8020	0	26.741	0	266.474	0	-1e10	8	-1e10	8	-1E+10	1	-1E+10	1	-1E+10	1	-1E+10	1	-1E+10	1	-1E+10	1
4902554	98	C	10/26/2023	07:09	-133.615	47.845	0	270.30	0	4.8750	0	33.8020	0	26.742	0	267.860	0	-1e10	8	-1e10	8	-1E+10	1	-1E+10	1	-1E+10	1	-1E+10	1	-1E+10	1	-1E+10	1
4902554	98	C	10/26/2023	07:09	-133.615	47.845	0	271.30	0	4.8730	0	33.8010	0	26.741	0	268.851	0	-1e10	8	-1e10	8	-1E+10	1	-1E+10	1	-1E+10	1	-1E+10	1	-1E+10	1	-1E+10	1
4902554	98	C	10/26/2023	07:09	-133.615	47.845	0	272.20	0	4.8720	0	33.8010	0	26.742	0	269.742	0	-1e10	8	-1e10	8	-1E+10	1	-1E+10	1	-1E+10	1	-1E+10	1	-1E+10	1	-1E+10	1
4902554	98	C	10/26/2023	07:09	-133.615	47.845	0	273.10	0	4.8700	0	33.8010	0	26.742	0	270.633	0	-1e10	8	-1e10	8	-1E+10	1	-1E+10	1	-1E+10	1	-1E+10	1	-1E+10	1	-1E+10	1
4902554	98	C	10/26/2023	07:09	-133.615	47.845	0	274.00	0	4.8650	0	33.8040	0	26.745	0	271.524	0	-1e10	8	-1e10	8	-1E+10	1	-1E+10	1	-1E+10	1	-1E+10	1	-1E+10	1	-1E+10	1
4902554	98	C	10/26/2023	07:09	-133.615	47.845	0	274.90	0	4.8640	0	33.8020	0	26.743	0	272.416	0	-1e10	8	-1e10	8	-1E+10	1	-1E+10	1	-1E+10	1	-1E+10	1	-1E+10	1	-1E+10	1
4902554	98	C	10/26/2023	07:09	-133.615	47.845	0	275.80	0	4.8620	0	33.8030	0	26.744	0	273.307	0	-1e10	8	-1e10	8	-1E+10	1	-1E+10	1	-1E+10	1	-1E+10	1	-1E+10	1	-1E+10	1
4902554	98	C	10/26/2023	07:09	-133.615	47.845	0	276.70	0	4.8590	0	33.8040	0	26.745	0	274.198	0	-1e10	8	-1e10	8	-1E+10	1	-1E+10	1	-1E+10	1	-1E+10	1	-1E+10	1	-1E+10	1
4902554	98	C	10/26/2023	07:09	-133.615	47.845	0	277.60	0	4.8500	0	33.8050	0	26.747	0	275.090	0	-1e10	8	-1e10	8	-1E+10	1	-1E+10	1	-1E+10	1	-1E+10	1	-1E+10	1	-1E+10	1
4902554	98	C	10/26/2023	07:09	-133.615	47.845	0	278.50	0	4.8450	0	33.8060	0	26.749	0	275.981	0	-1e10	8	-1e10	8	-1E+10	1	-1E+10	1	-1E+10	1	-1E+10	1	-1E+10	1	-1E+10	1
4902554	98	C	10/26/2023	07:09	-133.615	47.845	0	279.90	0	4.8410	0	33.8070	0	26.750	0	277.367	0	-1e10	8	-1e10	8	-1E+10	1	-1E+10	1	-1E+10	1	-1E+10	1	-1E+10	1	-1E+10	1
4902554	98	C	10/26/2023	07:09	-133.615	47.845	0	281.30	0	4.8290	0	33.8080	0	26.752	0	278.754	0	-1e10	8	-1e10	8	-1E+10	1	-1E+10	1	-1E+10	1	-1E+10	1	-1E+10	1	-1E+10	1
4902554	98	C	10/26/2023	07:09	-133.615	47.845	0	282.20	0	4.8220	0	33.8090	0	26.754	0	279.645	0	-1e10	8	-1e10	8	-1E+10	1	-1E+10	1	-1E+10	1	-1E+10	1	-1E+10	1	-1E+10	1
4902554	98	C	10/26/2023	07:09	-133.615	47.845	0	283.10	0	4.8140	0	33.8090	0	26.754	0	280.536	0	-1e10	8	-1e10	8	-1E+10	1	-1E+10	1	-1E+10	1	-1E+10	1	-1E+10	1	-1E+10	1
4902554	98	C	10/26/2023	07:09	-133.615	47.845	0	284.00	0	4.8130	0	33.8090	0	26.755	0	281.427	0	-1e10	8	-1e10	8	-1E+10	1	-1E+10	1	-1E+10	1	-1E+10	1	-1E+10	1	-1E+10	1
4902554	98	C	10/26/2023	07:09	-133.615	47.845	0	284.90	0	4.8030	0	33.8130	0	26.759	0	282.319	0	-1e10	8	-1e10	8	-1E+10	1	-1E+10	1	-1E+10	1	-1E+10	1	-1E+10	1	-1E+10	1
4902554	98	C	10/26/2023	07:09	-133.615	47.845	0	285.80	0	4.7890	0	33.8130	0	26.760	0	283.210	0	-1e10	8	-1e10	8	-1E+10	1	-1E+10	1	-1E+10	1	-1E+10	1	-1E+10	1	-1E+10	1
4902554	98	C	10/26/2023	07:09	-133.615	47.845	0	286.70	0	4.7790	0	33.8130	0	26.762	0	284.101	0	-1e10	8	-1e10	8	-1E+10	1	-1E+10	1	-1E+10	1	-1E+10	1	-1E+10	1	-1E+10	1
4902554	98	C	10/26/2023	07:09	-133.615	47.845	0	287.60	0	4.7720	0	33.8140	0	26.763	0	284.992	0	-1e10	8	-1e10	8	-1E+10	1	-1E+10	1	-1E+10	1	-1E+10	1	-1E+10	1	-1E+10	1
4902554	98	C	10/26/2023	07:09	-133.615	47.845	0	288.60	0	4.7640	0	33.8160	0	26.766	0	285.983	0	-1e10	8	-1e10	8	-1E+10	1	-1E+10	1	-1E+10	1	-1E+10	1	-1E+10	1	-1E+10	1
4902554	98	C	10/26/2023	07:09	-133.615	47.845	0	289.90	0	4.7390	0	33.8190	0	26.771	0	287.270	0	-1e10	8	-1e10	8	-1E+10	1	-1E+10	1	-1E+10	1	-1E+10	1	-1E+10	1	-1E+10	1
4902554	98	C	10/26/2023	07:09	-133.615	47.845	0	291.30	0	4.7190	0	33.8200	0	26.774	0	288.656	0	-1e10	8	-1e10	8	-1E+10	1	-1E+10	1	-1E+10	1	-1E+10	1	-1E+10	1	-1E+10	1
4902554	98	C	10/26/2023	07:09	-133.615	47.845	0	292.20	0	4.7110	0	33.8210	0	26.775	0	289.547	0	-1e10	8	-1e10	8	-1E+10	1	-1E+10	1	-1E+10	1	-1E+10	1	-1E+10	1	-1E+10	1
4902554	98	C	10/26/2023	07:09	-133.615	47.845	0	293.10	0	4.7020	0	33.8220	0	26.777	0	290.439	0	-1e10	8	-1e10	8	-1E+10	1	-1E+10	1	-1E+10	1	-1E+10	1	-1E+10	1	-1E+10	1
4902554	98	C	10/26/2023	07:09	-133.615	47.845	0	294.00	0	4.6750	0	33.8240	0	26.782	0	291.330	0	-1e10	8	-1e10	8	-1E+10	1	-1E+10	1	-1E+10	1	-1E+10	1	-1E+10	1	-1E+10	1
4902554	98	C	10/26/2023	07:09	-133.615	47.845	0	295.00	0	4.6770	0	33.8240	0	26.782	0	292.320	0	-1e10	8	-1e10	8	-1E+10	1	-1E+10	1	-1E+10	1	-1E+10	1	-1E+10	1	-1E+10	1
4902554	98	C	10/26/2023	07:09	-133.615	47.845	0	295.90	0	4.6860	0	33.8250	0	26.781	0	293.211	0	-1e10	8	-1e10	8	-1E+10	1	-1E+10	1	-1E+10	1	-1E+10	1	-1E+10	1	-1E+10	1
4902554	98	C	10/26/2023	07:09	-133.615	47.845	0	296.80	0	4.6790	0	33.8260	0	26.783	0	294.102	0	-1e10	8	-1e10	8	-1E+10	1	-1E+10	1	-1E+10	1	-1E+10	1	-1E+10	1	-1E+10	1
4902554	98	C	10/26/2023	07:09	-133.615	47.845	0	297.70	0	4.6640	0	33.8290	0	26.787	0	294.994	0	-1e10	8	-1e10	8	-1E+10	1	-1E+10	1	-1E+10	1	-1E+10	1	-1E+10	1	-1E+10	1
4902554	98	C	10/26/2023	07:09	-133.615	47.845	0	299.00	0	4.6580	0	33.8290	0	26.788	0	296.281	0	-1e10	8	-1e10	8	-1E+10	1	-1E+10	1	-1E+10	1	-1E+10	1	-1E+10	1	-1E+10	1
4902554	98	C	10/26/2023	07:09	-133.615	47.845	0	300.30	0	4.6510	0	33.8300	0	26.789	0	297.568	0	-1e10	8	-1e10	8	-1E+10	1	-1E+10	1	-1E+10	1	-1E+10	1	-1E+10	1	-1E+10	1
4902554	98	C	10/26/2023	07:09	-133.615	47.845	0	301.20	0	4.6470	0	33.8310	0	26.790	0	298.459	0	-1e10	8	-1e10	8	-1E+10	1	-1E+10	1	-1E+10	1	-1E+10	1	-1E+10	1	-1E+10	1
4902554	98	C	10/26/2023	07:09	-133.615	47.845	0	302.10	0	4.6380	0	33.8320	0	26.792	0	299.350	0	-1e10	8	-1e10	8	-1E+10	1	-1E+10	1	-1E+10	1	-1E+10	1	-1E+10	1	-1E+10	1
4902554	98	C	10/26/2023	07:09	-133.615	47.845	0	303.00	0	4.6250	0	33.8350	0	26.796	0	300.241	0	-1e10	8	-1e10	8	-1E+10	1	-1E+10	1	-1E+10	1	-1E+10	1	-1E+10	1	-1E+10	1
4902554	98	C	10/26/2023	07:09	-133.615	47.845	0	303.90	0	4.5990	0	33.8360	0	26.800	0	301.133	0	-1e10	8	-1e10	8	-1E+10	1	-1E+10	1	-1E+10	1	-1E+10	1	-1E+10	1	-1E+10	1
4902554	98	C	10/26/2023	07:09	-133.615	47.845	0	304.80	0	4.5770	0	33.8320	0	26.799	0	302.024	0	-1e10	8	-1e10	8	-1E+10	1	-1E+10	1	-1E+10	1	-1E+10	1	-1E+10	1	-1E+10	1
4902554	98	C	10/26/2023	07:09	-133.615	47.845	0	305.60	0	4.5880	0	33.8350	0	26.800	0	302.816	0	-1e10	8	-1e10	8	-1E+10	1	-1E+10	1	-1E+10	1	-1E+10	1	-1E+10	1	-1E+10	1
4902554	98	C	10/26/2023	07:09	-133.615	47.845	0	306.90	0	4.5870	0	33.8380	0	26.803	0	304.103	0	-1e10	8	-1e10	8	-1E+10	1	-1E+10	1	-1E+10	1	-1E+10	1	-1E+10	1	-1E+10	1
4902554	98	C	10/26/2023	07:09	-133.615	47.845	0	308.30	0	4.5450	0	33.8340	0	26.804	0	305.489	0	-1e10	8	-1e10	8	-1E+10	1	-1E+10	1	-1E+10	1	-1E+10	1	-1E+10	1	-1E+10	1
4902554	98	C	10/26/2023	07:09	-133.615	47.845	0	309.20	0	4.5500	0	33.8370	0	26.806	0	306.380	0	-1e10	8	-1e10	8	-1E+10	1	-1E+10	1	-1E+10	1	-1E+10	1	-1E+10	1	-1E+10	1
4902554	98	C	10/26/2023	07:09	-133.615	47.845	0	310.10	0	4.5610	0	33.8410	0	26.808	0	307.272	0	-1e10	8	-1e10	8	-1E+10	1	-1E+10	1	-1E+10	1	-1E+10	1	-1E+10	1	-1E+10	1
4902554	98	C	10/26/2023	07:09	-133.615	47.845	0	310.90	0	4.5440	0	33.8430	0	26.811	0	308.064	0	-1e10	8	-1e10	8	-1E+10	1	-1E+10	1	-1E+10	1	-1E+10	1	-1E+10	1	-1E+10	1
4902554	98	C	10/26/2023	07:09	-133.615	47.845	0	311.80	0	4.5250	0	33.8420	0	26.812	0	308.955	0	-1e10	8	-1e10	8	-1E+10	1	-1E+10	1	-1E+10	1	-1E+10	1	-1E+10	1	-1E+10	1
4902554	98	C	10/26/2023	07:09	-133.615	47.845	0	312.70	0	4.5190	0	33.8410	0	26.812	0	309.846	0	-1e10	8	-1e10	8	-1E+10	1	-1E+10	1	-1E+10	1	-1E+10	1	-1E+10	1	-1E+10	1
4902554	98	C	10/26/2023	07:09	-133.615	47.845	0	313.60	0	4.5160	0	33.8420	0	26.813	0	310.737	0	-1e10	8	-1e10	8	-1E+10	1	-1E+10	1	-1E+10	1	-1E+10	1	-1E+10	1	-1E+10	1
4902554	98	C	10/26/2023	07:09	-133.615	47.845	0	314.90	0	4.5180	0	33.8430	0	26.814	0	312.024	0	-1e10	8	-1e10	8	-1E+10	1	-1E+10	1	-1E+10	1	-1E+10	1	-1E+10	1	-1E+10	1
4902554	98	C	10/26/2023	07:09	-133.615	47.845	0	316.30	0	4.5490	0	33.8530	0	26.819	0	313.410	0	-1e10	8	-1e10	8	-1E+10	1	-1E+10	1	-1E+10	1	-1E+10	1	-1E+10	1	-1E+10	1
4902554	98	C	10/26/2023	07:09	-133.615	47.845	0	317.20	0	4.5390	0	33.8550	0	26.821	0	314.301	0	-1e10	8	-1e10	8	-1E+10	1	-1E+10	1	-1E+10	1	-1E+10	1	-1E+10	1	-1E+10	1
4902554	98	C	10/26/2023	07:09	-133.615	47.845	0	318.10	0	4.5170	0	33.8540	0	26.823	0	315.193	0	-1e10	8	-1e10	8	-1E+10	1	-1E+10	1	-1E+10	1	-1E+10	1	-1E+10	1	-1E+10	1
4902554	98	C	10/26/2023	07:09	-133.615	47.845	0	319.00	0	4.4910	0	33.8520	0	26.824	0	316.084	0	-1e10	8	-1e10	8	-1E+10	1	-1E+10	1	-1E+10	1	-1E+10	1	-1E+10	1	-1E+10	1
4902554	98	C	10/26/2023	07:09	-133.615	47.845	0	319.90	0	4.4890	0	33.8520	0	26.824	0	316.975	0	-1e10	8	-1e10	8	-1E+10	1	-1E+10	1	-1E+10	1	-1E+10	1	-1E+10	1	-1E+10	1
4902554	98	C	10/26/2023	07:09	-133.615	47.845	0	320.80	0	4.4890	0	33.8510	0	26.824	0	317.866	0	-1e10	8	-1e10	8	-1E+10	1	-1E+10	1	-1E+10	1	-1E+10	1	-1E+10	1	-1E+10	1
4902554	98	C	10/26/2023	07:09	-133.615	47.845	0	321.70	0	4.4870	0	33.8520	0	26.825	0	318.757	0	-1e10	8	-1e10	8	-1E+10	1	-1E+10	1	-1E+10	1	-1E+10	1	-1E+10	1	-1E+10	1
4902554	98	C	10/26/2023	07:09	-133.615	47.845	0	322.60	0	4.4880	0	33.8530	0	26.825	0	319.648	0	-1e10	8	-1e10	8	-1E+10	1	-1E+10	1	-1E+10	1	-1E+10	1	-1E+10	1	-1E+10	1
4902554	98	C	10/26/2023	07:09	-133.615	47.845	0	323.90	0	4.4880	0	33.8540	0	26.826	0	320.935	0	-1e10	8	-1e10	8	-1E+10	1	-1E+10	1	-1E+10	1	-1E+10	1	-1E+10	1	-1E+10	1
4902554	98	C	10/26/2023	07:09	-133.615	47.845	0	325.30	0	4.4850	0	33.8560	0	26.828	0	322.321	0	-1e10	8	-1e10	8	-1E+10	1	-1E+10	1	-1E+10	1	-1E+10	1	-1E+10	1	-1E+10	1
4902554	98	C	10/26/2023	07:09	-133.615	47.845	0	326.20	0	4.4790	0	33.8550	0	26.828	0	323.212	0	-1e10	8	-1e10	8	-1E+10	1	-1E+10	1	-1E+10	1	-1E+10	1	-1E+10	1	-1E+10	1
4902554	98	C	10/26/2023	07:09	-133.615	47.845	0	327.10	0	4.4790	0	33.8570	0	26.829	0	324.103	0	-1e10	8	-1e10	8	-1E+10	1	-1E+10	1	-1E+10	1	-1E+10	1	-1E+10	1	-1E+10	1
4902554	98	C	10/26/2023	07:09	-133.615	47.845	0	328.00	0	4.4780	0	33.8610	0	26.833	0	324.994	0	-1e10	8	-1e10	8	-1E+10	1	-1E+10	1	-1E+10	1	-1E+10	1	-1E+10	1	-1E+10	1
4902554	98	C	10/26/2023	07:09	-133.615	47.845	0	328.90	0	4.4800	0	33.8630	0	26.834	0	325.885	0	-1e10	8	-1e10	8	-1E+10	1	-1E+10	1	-1E+10	1	-1E+10	1	-1E+10	1	-1E+10	1
4902554	98	C	10/26/2023	07:09	-133.615	47.845	0	329.80	0	4.4760	0	33.8660	0	26.837	0	326.776	0	-1e10	8	-1e10	8	-1E+10	1	-1E+10	1	-1E+10	1	-1E+10	1	-1E+10	1	-1E+10	1
4902554	98	C	10/26/2023	07:09	-133.615	47.845	0	330.70	0	4.4730	0	33.8650	0	26.836	0	327.667	0	-1e10	8	-1e10	8	-1E+10	1	-1E+10	1	-1E+10	1	-1E+10	1	-1E+10	1	-1E+10	1
4902554	98	C	10/26/2023	07:09	-133.615	47.845	0	331.60	0	4.4720	0	33.8670	0	26.838	0	328.558	0	-1e10	8	-1e10	8	-1E+10	1	-1E+10	1	-1E+10	1	-1E+10	1	-1E+10	1	-1E+10	1
4902554	98	C	10/26/2023	07:09	-133.615	47.845	0	332.90	0	4.4450	0	33.8660	0	26.840	0	329.845	0	-1e10	8	-1e10	8	-1E+10	1	-1E+10	1	-1E+10	1	-1E+10	1	-1E+10	1	-1E+10	1
4902554	98	C	10/26/2023	07:09	-133.615	47.845	0	334.30	0	4.4260	0	33.8650	0	26.842	0	331.231	0	-1e10	8	-1e10	8	-1E+10	1	-1E+10	1	-1E+10	1	-1E+10	1	-1E+10	1	-1E+10	1
4902554	98	C	10/26/2023	07:09	-133.615	47.845	0	335.20	0	4.4230	0	33.8660	0	26.843	0	332.123	0	-1e10	8	-1e10	8	-1E+10	1	-1E+10	1	-1E+10	1	-1E+10	1	-1E+10	1	-1E+10	1
4902554	98	C	10/26/2023	07:09	-133.615	47.845	0	336.10	0	4.4270	0	33.8680	0	26.844	0	333.014	0	-1e10	8	-1e10	8	-1E+10	1	-1E+10	1	-1E+10	1	-1E+10	1	-1E+10	1	-1E+10	1
4902554	98	C	10/26/2023	07:09	-133.615	47.845	0	337.00	0	4.4260	0	33.8700	0	26.846	0	333.905	0	-1e10	8	-1e10	8	-1E+10	1	-1E+10	1	-1E+10	1	-1E+10	1	-1E+10	1	-1E+10	1
4902554	98	C	10/26/2023	07:09	-133.615	47.845	0	337.90	0	4.4250	0	33.8710	0	26.846	0	334.796	0	-1e10	8	-1e10	8	-1E+10	1	-1E+10	1	-1E+10	1	-1E+10	1	-1E+10	1	-1E+10	1
4902554	98	C	10/26/2023	07:09	-133.615	47.845	0	338.80	0	4.4230	0	33.8720	0	26.847	0	335.687	0	-1e10	8	-1e10	8	-1E+10	1	-1E+10	1	-1E+10	1	-1E+10	1	-1E+10	1	-1E+10	1
4902554	98	C	10/26/2023	07:09	-133.615	47.845	0	339.70	0	4.4210	0	33.8730	0	26.848	0	336.578	0	-1e10	8	-1e10	8	-1E+10	1	-1E+10	1	-1E+10	1	-1E+10	1	-1E+10	1	-1E+10	1
4902554	98	C	10/26/2023	07:09	-133.615	47.845	0	340.60	0	4.4210	0	33.8740	0	26.849	0	337.469	0	-1e10	8	-1e10	8	-1E+10	1	-1E+10	1	-1E+10	1	-1E+10	1	-1E+10	1	-1E+10	1
4902554	98	C	10/26/2023	07:09	-133.615	47.845	0	341.50	0	4.4200	0	33.8740	0	26.849	0	338.360	0	-1e10	8	-1e10	8	-1E+10	1	-1E+10	1	-1E+10	1	-1E+10	1	-1E+10	1	-1E+10	1
4902554	98	C	10/26/2023	07:09	-133.615	47.845	0	342.90	0	4.4110	0	33.8780	0	26.853	0	339.746	0	-1e10	8	-1e10	8	-1E+10	1	-1E+10	1	-1E+10	1	-1E+10	1	-1E+10	1	-1E+10	1
4902554	98	C	10/26/2023	07:09	-133.615	47.845	0	344.40	0	4.3990	0	33.8820	0	26.858	0	341.230	0	-1e10	8	-1e10	8	-1E+10	1	-1E+10	1	-1E+10	1	-1E+10	1	-1E+10	1	-1E+10	1
4902554	98	C	10/26/2023	07:09	-133.615	47.845	0	345.30	0	4.3980	0	33.8830	0	26.859	0	342.121	0	-1e10	8	-1e10	8	-1E+10	1	-1E+10	1	-1E+10	1	-1E+10	1	-1E+10	1	-1E+10	1
4902554	98	C	10/26/2023	07:09	-133.615	47.845	0	346.30	0	4.3970	0	33.8850	0	26.861	0	343.111	0	-1e10	8	-1e10	8	-1E+10	1	-1E+10	1	-1E+10	1	-1E+10	1	-1E+10	1	-1E+10	1
4902554	98	C	10/26/2023	07:09	-133.615	47.845	0	347.20	0	4.3970	0	33.8870	0	26.862	0	344.002	0	-1e10	8	-1e10	8	-1E+10	1	-1E+10	1	-1E+10	1	-1E+10	1	-1E+10	1	-1E+10	1
4902554	98	C	10/26/2023	07:09	-133.615	47.845	0	348.20	0	4.3950	0	33.8880	0	26.863	0	344.992	0	-1e10	8	-1e10	8	-1E+10	1	-1E+10	1	-1E+10	1	-1E+10	1	-1E+10	1	-1E+10	1
4902554	98	C	10/26/2023	07:09	-133.615	47.845	0	349.10	0	4.3920	0	33.8890	0	26.864	0	345.883	0	-1e10	8	-1e10	8	-1E+10	1	-1E+10	1	-1E+10	1	-1E+10	1	-1E+10	1	-1E+10	1
4902554	98	C	10/26/2023	07:09	-133.615	47.845	0	350.10	0	4.3840	0	33.8910	0	26.867	0	346.873	0	-1e10	8	-1e10	8	-1E+10	1	-1E+10	1	-1E+10	1	-1E+10	1	-1E+10	1	-1E+10	1
4902554	98	C	10/26/2023	07:09	-133.615	47.845	0	352.90	0	4.3780	0	33.8960	0	26.871	0	349.645	0	-1e10	8	-1e10	8	-1E+10	1	-1E+10	1	-1E+10	1	-1E+10	1	-1E+10	1	-1E+10	1
4902554	98	C	10/26/2023	07:09	-133.615	47.845	0	357.90	0	4.3850	0	33.9040	0	26.877	0	354.595	0	-1e10	8	-1e10	8	-1E+10	1	-1E+10	1	-1E+10	1	-1E+10	1	-1E+10	1	-1E+10	1
4902554	98	C	10/26/2023	07:09	-133.615	47.845	0	362.90	0	4.3790	0	33.9120	0	26.884	0	359.544	0	-1e10	8	-1e10	8	-1E+10	1	-1E+10	1	-1E+10	1	-1E+10	1	-1E+10	1	-1E+10	1
4902554	98	C	10/26/2023	07:09	-133.615	47.845	0	367.90	0	4.3710	0	33.9180	0	26.890	0	364.494	0	-1e10	8	-1e10	8	-1E+10	1	-1E+10	1	-1E+10	1	-1E+10	1	-1E+10	1	-1E+10	1
4902554	98	C	10/26/2023	07:09	-133.615	47.845	0	372.90	0	4.3570	0	33.9220	0	26.894	0	369.443	0	-1e10	8	-1e10	8	-1E+10	1	-1E+10	1	-1E+10	1	-1E+10	1	-1E+10	1	-1E+10	1
4902554	98	C	10/26/2023	07:09	-133.615	47.845	0	378.10	0	4.3570	0	33.9280	0	26.899	0	374.590	0	-1e10	8	-1e10	8	-1E+10	1	-1E+10	1	-1E+10	1	-1E+10	1	-1E+10	1	-1E+10	1
4902554	98	C	10/26/2023	07:09	-133.615	47.845	0	383.00	0	4.3760	0	33.9360	0	26.904	0	379.440	0	-1e10	8	-1e10	8	-1E+10	1	-1E+10	1	-1E+10	1	-1E+10	1	-1E+10	1	-1E+10	1
4902554	98	C	10/26/2023	07:09	-133.615	47.845	0	388.10	0	4.3530	0	33.9370	0	26.907	0	384.488	0	-1e10	8	-1e10	8	-1E+10	1	-1E+10	1	-1E+10	1	-1E+10	1	-1E+10	1	-1E+10	1
4902554	98	C	10/26/2023	07:09	-133.615	47.845	0	393.20	0	4.3520	0	33.9400	0	26.909	0	389.536	0	-1e10	8	-1e10	8	-1E+10	1	-1E+10	1	-1E+10	1	-1E+10	1	-1E+10	1	-1E+10	1
4902554	98	C	10/26/2023	07:09	-133.615	47.845	0	398.00	0	4.3420	0	33.9430	0	26.913	0	394.286	0	-1e10	8	-1e10	8	-1E+10	1	-1E+10	1	-1E+10	1	-1E+10	1	-1E+10	1	-1E+10	1
4902554	98	C	10/26/2023	07:09	-133.615	47.845	0	402.70	0	4.3180	0	33.9460	0	26.918	0	398.938	0	-1e10	8	-1e10	8	-1E+10	1	-1E+10	1	-1E+10	1	-1E+10	1	-1E+10	1	-1E+10	1
4902554	98	C	10/26/2023	07:09	-133.615	47.845	0	408.00	0	4.3000	0	33.9480	0	26.921	0	404.183	0	-1e10	8	-1e10	8	-1E+10	1	-1E+10	1	-1E+10	1	-1E+10	1	-1E+10	1	-1E+10	1
4902554	98	C	10/26/2023	07:09	-133.615	47.845	0	412.90	0	4.2870	0	33.9510	0	26.925	0	409.033	0	-1e10	8	-1e10	8	-1E+10	1	-1E+10	1	-1E+10	1	-1E+10	1	-1E+10	1	-1E+10	1
4902554	98	C	10/26/2023	07:09	-133.615	47.845	0	417.80	0	4.2760	0	33.9540	0	26.929	0	413.882	0	-1e10	8	-1e10	8	-1E+10	1	-1E+10	1	-1E+10	1	-1E+10	1	-1E+10	1	-1E+10	1
4902554	98	C	10/26/2023	07:09	-133.615	47.845	0	423.10	0	4.2660	0	33.9560	0	26.931	0	419.127	0	-1e10	8	-1e10	8	-1E+10	1	-1E+10	1	-1E+10	1	-1E+10	1	-1E+10	1	-1E+10	1
4902554	98	C	10/26/2023	07:09	-133.615	47.845	0	428.10	0	4.2500	0	33.9590	0	26.936	0	424.075	0	-1e10	8	-1e10	8	-1E+10	1	-1E+10	1	-1E+10	1	-1E+10	1	-1E+10	1	-1E+10	1
4902554	98	C	10/26/2023	07:09	-133.615	47.845	0	433.00	0	4.2360	0	33.9690	0	26.945	0	428.924	0	-1e10	8	-1e10	8	-1E+10	1	-1E+10	1	-1E+10	1	-1E+10	1	-1E+10	1	-1E+10	1
4902554	98	C	10/26/2023	07:09	-133.615	47.845	0	438.10	0	4.2280	0	33.9760	0	26.951	0	433.970	0	-1e10	8	-1e10	8	-1E+10	1	-1E+10	1	-1E+10	1	-1E+10	1	-1E+10	1	-1E+10	1
4902554	98	C	10/26/2023	07:09	-133.615	47.845	0	443.00	0	4.2190	0	33.9810	0	26.956	0	438.819	0	-1e10	8	-1e10	8	-1E+10	1	-1E+10	1	-1E+10	1	-1E+10	1	-1E+10	1	-1E+10	1
4902554	98	C	10/26/2023	07:09	-133.615	47.845	0	448.00	0	4.2110	0	33.9870	0	26.962	0	443.766	0	-1e10	8	-1e10	8	-1E+10	1	-1E+10	1	-1E+10	1	-1E+10	1	-1E+10	1	-1E+10	1
4902554	98	C	10/26/2023	07:09	-133.615	47.845	0	452.90	0	4.1980	0	33.9910	0	26.967	0	448.615	0	-1e10	8	-1e10	8	-1E+10	1	-1E+10	1	-1E+10	1	-1E+10	1	-1E+10	1	-1E+10	1
4902554	98	C	10/26/2023	07:09	-133.615	47.845	0	458.20	0	4.1970	0	33.9940	0	26.969	0	453.859	0	-1e10	8	-1e10	8	-1E+10	1	-1E+10	1	-1E+10	1	-1E+10	1	-1E+10	1	-1E+10	1
4902554	98	C	10/26/2023	07:09	-133.615	47.845	0	463.10	0	4.2010	0	34.0040	0	26.977	0	458.707	0	-1e10	8	-1e10	8	-1E+10	1	-1E+10	1	-1E+10	1	-1E+10	1	-1E+10	1	-1E+10	1
4902554	98	C	10/26/2023	07:09	-133.615	47.845	0	468.00	0	4.1930	0	34.0140	0	26.985	0	463.555	0	-1e10	8	-1e10	8	-1E+10	1	-1E+10	1	-1E+10	1	-1E+10	1	-1E+10	1	-1E+10	1
4902554	98	C	10/26/2023	07:09	-133.615	47.845	0	472.90	0	4.1870	0	34.0190	0	26.990	0	468.403	0	-1e10	8	-1e10	8	-1E+10	1	-1E+10	1	-1E+10	1	-1E+10	1	-1E+10	1	-1E+10	1
4902554	98	C	10/26/2023	07:09	-133.615	47.845	0	477.70	0	4.1790	0	34.0230	0	26.994	0	473.152	0	-1e10	8	-1e10	8	-1E+10	1	-1E+10	1	-1E+10	1	-1E+10	1	-1E+10	1	-1E+10	1
4902554	98	C	10/26/2023	07:09	-133.615	47.845	0	483.00	0	4.1630	0	34.0300	0	27.001	0	478.395	0	-1e10	8	-1e10	8	-1E+10	1	-1E+10	1	-1E+10	1	-1E+10	1	-1E+10	1	-1E+10	1
4902554	98	C	10/26/2023	07:09	-133.615	47.845	0	487.90	0	4.1440	0	34.0370	0	27.009	0	483.243	0	-1e10	8	-1e10	8	-1E+10	1	-1E+10	1	-1E+10	1	-1E+10	1	-1E+10	1	-1E+10	1
4902554	98	C	10/26/2023	07:09	-133.615	47.845	0	492.90	0	4.1340	0	34.0430	0	27.015	0	488.189	0	-1e10	8	-1e10	8	-1E+10	1	-1E+10	1	-1E+10	1	-1E+10	1	-1E+10	1	-1E+10	1
4902554	98	C	10/26/2023	07:09	-133.615	47.845	0	497.90	0	4.1240	0	34.0480	0	27.020	0	493.135	0	-1e10	8	-1e10	8	-1E+10	1	-1E+10	1	-1E+10	1	-1E+10	1	-1E+10	1	-1E+10	1
4902554	98	C	10/26/2023	07:09	-133.615	47.845	0	503.00	0	4.1140	0	34.0530	0	27.025	0	498.181	0	-1e10	8	-1e10	8	-1E+10	1	-1E+10	1	-1E+10	1	-1E+10	1	-1E+10	1	-1E+10	1
4902554	98	C	10/26/2023	07:09	-133.615	47.845	0	508.00	0	4.0980	0	34.0620	0	27.034	0	503.127	0	-1e10	8	-1e10	8	-1E+10	1	-1E+10	1	-1E+10	1	-1E+10	1	-1E+10	1	-1E+10	1
4902554	98	C	10/26/2023	07:09	-133.615	47.845	0	512.70	0	4.0880	0	34.0680	0	27.040	0	507.776	0	-1e10	8	-1e10	8	-1E+10	1	-1E+10	1	-1E+10	1	-1E+10	1	-1E+10	1	-1E+10	1
4902554	98	C	10/26/2023	07:09	-133.615	47.845	0	517.90	0	4.0760	0	34.0750	0	27.046	0	512.919	0	-1e10	8	-1e10	8	-1E+10	1	-1E+10	1	-1E+10	1	-1E+10	1	-1E+10	1	-1E+10	1
4902554	98	C	10/26/2023	07:09	-133.615	47.845	0	523.40	0	4.0600	0	34.0810	0	27.053	0	518.360	0	-1e10	8	-1e10	8	-1E+10	1	-1E+10	1	-1E+10	1	-1E+10	1	-1E+10	1	-1E+10	1
4902554	98	C	10/26/2023	07:09	-133.615	47.845	0	528.20	0	4.0550	0	34.0840	0	27.056	0	523.107	0	-1e10	8	-1e10	8	-1E+10	1	-1E+10	1	-1E+10	1	-1E+10	1	-1E+10	1	-1E+10	1
4902554	98	C	10/26/2023	07:09	-133.615	47.845	0	533.10	0	4.0440	0	34.0900	0	27.062	0	527.954	0	-1e10	8	-1e10	8	-1E+10	1	-1E+10	1	-1E+10	1	-1E+10	1	-1E+10	1	-1E+10	1
4902554	98	C	10/26/2023	07:09	-133.615	47.845	0	538.00	0	4.0320	0	34.0950	0	27.067	0	532.800	0	-1e10	8	-1e10	8	-1E+10	1	-1E+10	1	-1E+10	1	-1E+10	1	-1E+10	1	-1E+10	1
4902554	98	C	10/26/2023	07:09	-133.615	47.845	0	542.80	0	4.0230	0	34.0990	0	27.071	0	537.548	0	-1e10	8	-1e10	8	-1E+10	1	-1E+10	1	-1E+10	1	-1E+10	1	-1E+10	1	-1E+10	1
4902554	98	C	10/26/2023	07:09	-133.615	47.845	0	547.60	0	4.0170	0	34.1010	0	27.073	0	542.295	0	-1e10	8	-1e10	8	-1E+10	1	-1E+10	1	-1E+10	1	-1E+10	1	-1E+10	1	-1E+10	1
4902554	98	C	10/26/2023	07:09	-133.615	47.845	0	552.50	0	4.0020	0	34.1060	0	27.079	0	547.141	0	-1e10	8	-1e10	8	-1E+10	1	-1E+10	1	-1E+10	1	-1E+10	1	-1E+10	1	-1E+10	1
4902554	98	C	10/26/2023	07:09	-133.615	47.845	0	557.60	0	3.9910	0	34.1110	0	27.084	0	552.185	0	-1e10	8	-1e10	8	-1E+10	1	-1E+10	1	-1E+10	1	-1E+10	1	-1E+10	1	-1E+10	1
4902554	98	C	10/26/2023	07:09	-133.615	47.845	0	562.90	0	3.9840	0	34.1140	0	27.087	0	557.426	0	-1e10	8	-1e10	8	-1E+10	1	-1E+10	1	-1E+10	1	-1E+10	1	-1E+10	1	-1E+10	1
4902554	98	C	10/26/2023	07:09	-133.615	47.845	0	568.10	0	3.9770	0	34.1170	0	27.090	0	562.569	0	-1e10	8	-1e10	8	-1E+10	1	-1E+10	1	-1E+10	1	-1E+10	1	-1E+10	1	-1E+10	1
4902554	98	C	10/26/2023	07:09	-133.615	47.845	0	573.10	0	3.9670	0	34.1200	0	27.094	0	567.513	0	-1e10	8	-1e10	8	-1E+10	1	-1E+10	1	-1E+10	1	-1E+10	1	-1E+10	1	-1E+10	1
4902554	98	C	10/26/2023	07:09	-133.615	47.845	0	578.10	0	3.9590	0	34.1250	0	27.099	0	572.458	0	-1e10	8	-1e10	8	-1E+10	1	-1E+10	1	-1E+10	1	-1E+10	1	-1E+10	1	-1E+10	1
4902554	98	C	10/26/2023	07:09	-133.615	47.845	0	583.10	0	3.9520	0	34.1300	0	27.103	0	577.402	0	-1e10	8	-1e10	8	-1E+10	1	-1E+10	1	-1E+10	1	-1E+10	1	-1E+10	1	-1E+10	1
4902554	98	C	10/26/2023	07:09	-133.615	47.845	0	587.80	0	3.9420	0	34.1330	0	27.107	0	582.049	0	-1e10	8	-1e10	8	-1E+10	1	-1E+10	1	-1E+10	1	-1E+10	1	-1E+10	1	-1E+10	1
4902554	98	C	10/26/2023	07:09	-133.615	47.845	0	593.00	0	3.9280	0	34.1380	0	27.112	0	587.191	0	-1e10	8	-1e10	8	-1E+10	1	-1E+10	1	-1E+10	1	-1E+10	1	-1E+10	1	-1E+10	1
4902554	98	C	10/26/2023	07:09	-133.615	47.845	0	598.20	0	3.9200	0	34.1410	0	27.115	0	592.333	0	-1e10	8	-1e10	8	-1E+10	1	-1E+10	1	-1E+10	1	-1E+10	1	-1E+10	1	-1E+10	1
4902554	98	C	10/26/2023	07:09	-133.615	47.845	0	603.10	0	3.9100	0	34.1450	0	27.120	0	597.178	0	-1e10	8	-1e10	8	-1E+10	1	-1E+10	1	-1E+10	1	-1E+10	1	-1E+10	1	-1E+10	1
4902554	98	C	10/26/2023	07:09	-133.615	47.845	0	607.90	0	3.8990	0	34.1490	0	27.124	0	601.924	0	-1e10	8	-1e10	8	-1E+10	1	-1E+10	1	-1E+10	1	-1E+10	1	-1E+10	1	-1E+10	1
4902554	98	C	10/26/2023	07:09	-133.615	47.845	0	612.90	0	3.8960	0	34.1500	0	27.125	0	606.867	0	-1e10	8	-1e10	8	-1E+10	1	-1E+10	1	-1E+10	1	-1E+10	1	-1E+10	1	-1E+10	1
4902554	98	C	10/26/2023	07:09	-133.615	47.845	0	617.90	0	3.8880	0	34.1530	0	27.128	0	611.811	0	-1e10	8	-1e10	8	-1E+10	1	-1E+10	1	-1E+10	1	-1E+10	1	-1E+10	1	-1E+10	1
4902554	98	C	10/26/2023	07:09	-133.615	47.845	0	622.80	0	3.8810	0	34.1560	0	27.131	0	616.655	0	-1e10	8	-1e10	8	-1E+10	1	-1E+10	1	-1E+10	1	-1E+10	1	-1E+10	1	-1E+10	1
4902554	98	C	10/26/2023	07:09	-133.615	47.845	0	627.90	0	3.8700	0	34.1610	0	27.137	0	621.697	0	-1e10	8	-1e10	8	-1E+10	1	-1E+10	1	-1E+10	1	-1E+10	1	-1E+10	1	-1E+10	1
4902554	98	C	10/26/2023	07:09	-133.615	47.845	0	632.90	0	3.8590	0	34.1650	0	27.141	0	626.640	0	-1e10	8	-1e10	8	-1E+10	1	-1E+10	1	-1E+10	1	-1E+10	1	-1E+10	1	-1E+10	1
4902554	98	C	10/26/2023	07:09	-133.615	47.845	0	637.90	0	3.8480	0	34.1680	0	27.144	0	631.583	0	-1e10	8	-1e10	8	-1E+10	1	-1E+10	1	-1E+10	1	-1E+10	1	-1E+10	1	-1E+10	1
4902554	98	C	10/26/2023	07:09	-133.615	47.845	0	643.00	0	3.8330	0	34.1730	0	27.150	0	636.625	0	-1e10	8	-1e10	8	-1E+10	1	-1E+10	1	-1E+10	1	-1E+10	1	-1E+10	1	-1E+10	1
4902554	98	C	10/26/2023	07:09	-133.615	47.845	0	648.00	0	3.8210	0	34.1770	0	27.154	0	641.568	0	-1e10	8	-1e10	8	-1E+10	1	-1E+10	1	-1E+10	1	-1E+10	1	-1E+10	1	-1E+10	1
4902554	98	C	10/26/2023	07:09	-133.615	47.845	0	653.10	0	3.8110	0	34.1800	0	27.158	0	646.609	0	-1e10	8	-1e10	8	-1E+10	1	-1E+10	1	-1E+10	1	-1E+10	1	-1E+10	1	-1E+10	1
4902554	98	C	10/26/2023	07:09	-133.615	47.845	0	658.10	0	3.7940	0	34.1850	0	27.163	0	651.552	0	-1e10	8	-1e10	8	-1E+10	1	-1E+10	1	-1E+10	1	-1E+10	1	-1E+10	1	-1E+10	1
4902554	98	C	10/26/2023	07:09	-133.615	47.845	0	663.20	0	3.7770	0	34.1900	0	27.169	0	656.593	0	-1e10	8	-1e10	8	-1E+10	1	-1E+10	1	-1E+10	1	-1E+10	1	-1E+10	1	-1E+10	1
4902554	98	C	10/26/2023	07:09	-133.615	47.845	0	668.20	0	3.7680	0	34.1930	0	27.173	0	661.535	0	-1e10	8	-1e10	8	-1E+10	1	-1E+10	1	-1E+10	1	-1E+10	1	-1E+10	1	-1E+10	1
4902554	98	C	10/26/2023	07:09	-133.615	47.845	0	673.20	0	3.7580	0	34.1960	0	27.176	0	666.477	0	-1e10	8	-1e10	8	-1E+10	1	-1E+10	1	-1E+10	1	-1E+10	1	-1E+10	1	-1E+10	1
4902554	98	C	10/26/2023	07:09	-133.615	47.845	0	678.30	0	3.7400	0	34.2000	0	27.181	0	671.518	0	-1e10	8	-1e10	8	-1E+10	1	-1E+10	1	-1E+10	1	-1E+10	1	-1E+10	1	-1E+10	1
4902554	98	C	10/26/2023	07:09	-133.615	47.845	0	683.40	0	3.7240	0	34.2050	0	27.187	0	676.559	0	-1e10	8	-1e10	8	-1E+10	1	-1E+10	1	-1E+10	1	-1E+10	1	-1E+10	1	-1E+10	1
4902554	98	C	10/26/2023	07:09	-133.615	47.845	0	688.30	0	3.7090	0	34.2090	0	27.191	0	681.402	0	-1e10	8	-1e10	8	-1E+10	1	-1E+10	1	-1E+10	1	-1E+10	1	-1E+10	1	-1E+10	1
4902554	98	C	10/26/2023	07:09	-133.615	47.845	0	692.80	0	3.6960	0	34.2130	0	27.196	0	685.849	0	-1e10	8	-1e10	8	-1E+10	1	-1E+10	1	-1E+10	1	-1E+10	1	-1E+10	1	-1E+10	1
4902554	98	C	10/26/2023	07:09	-133.615	47.845	0	697.80	0	3.6860	0	34.2160	0	27.199	0	690.791	0	-1e10	8	-1e10	8	-1E+10	1	-1E+10	1	-1E+10	1	-1E+10	1	-1E+10	1	-1E+10	1
4902554	98	C	10/26/2023	07:09	-133.615	47.845	0	703.00	0	3.6660	0	34.2220	0	27.206	0	695.930	0	-1e10	8	-1e10	8	-1E+10	1	-1E+10	1	-1E+10	1	-1E+10	1	-1E+10	1	-1E+10	1
4902554	98	C	10/26/2023	07:09	-133.615	47.845	0	707.80	0	3.6570	0	34.2240	0	27.208	0	700.674	0	-1e10	8	-1e10	8	-1E+10	1	-1E+10	1	-1E+10	1	-1E+10	1	-1E+10	1	-1E+10	1
4902554	98	C	10/26/2023	07:09	-133.615	47.845	0	712.80	0	3.6430	0	34.2270	0	27.212	0	705.615	0	-1e10	8	-1e10	8	-1E+10	1	-1E+10	1	-1E+10	1	-1E+10	1	-1E+10	1	-1E+10	1
4902554	98	C	10/26/2023	07:09	-133.615	47.845	0	717.80	0	3.6340	0	34.2290	0	27.215	0	710.556	0	-1e10	8	-1e10	8	-1E+10	1	-1E+10	1	-1E+10	1	-1E+10	1	-1E+10	1	-1E+10	1
4902554	98	C	10/26/2023	07:09	-133.615	47.845	0	723.10	0	3.6260	0	34.2310	0	27.217	0	715.793	0	-1e10	8	-1e10	8	-1E+10	1	-1E+10	1	-1E+10	1	-1E+10	1	-1E+10	1	-1E+10	1
4902554	98	C	10/26/2023	07:09	-133.615	47.845	0	728.00	0	3.6280	0	34.2340	0	27.219	0	720.635	0	-1e10	8	-1e10	8	-1E+10	1	-1E+10	1	-1E+10	1	-1E+10	1	-1E+10	1	-1E+10	1
4902554	98	C	10/26/2023	07:09	-133.615	47.845	0	732.90	0	3.6200	0	34.2350	0	27.221	0	725.477	0	-1e10	8	-1e10	8	-1E+10	1	-1E+10	1	-1E+10	1	-1E+10	1	-1E+10	1	-1E+10	1
4902554	98	C	10/26/2023	07:09	-133.615	47.845	0	738.00	0	3.6110	0	34.2370	0	27.223	0	730.517	0	-1e10	8	-1e10	8	-1E+10	1	-1E+10	1	-1E+10	1	-1E+10	1	-1E+10	1	-1E+10	1
4902554	98	C	10/26/2023	07:09	-133.615	47.845	0	743.00	0	3.6030	0	34.2380	0	27.225	0	735.457	0	-1e10	8	-1e10	8	-1E+10	1	-1E+10	1	-1E+10	1	-1E+10	1	-1E+10	1	-1E+10	1
4902554	98	C	10/26/2023	07:09	-133.615	47.845	0	748.10	0	3.5960	0	34.2400	0	27.227	0	740.496	0	-1e10	8	-1e10	8	-1E+10	1	-1E+10	1	-1E+10	1	-1E+10	1	-1E+10	1	-1E+10	1
4902554	98	C	10/26/2023	07:09	-133.615	47.845	0	752.70	0	3.5930	0	34.2400	0	27.228	0	745.042	0	-1e10	8	-1e10	8	-1E+10	1	-1E+10	1	-1E+10	1	-1E+10	1	-1E+10	1	-1E+10	1
4902554	98	C	10/26/2023	07:09	-133.615	47.845	0	757.80	0	3.5870	0	34.2420	0	27.230	0	750.080	0	-1e10	8	-1e10	8	-1E+10	1	-1E+10	1	-1E+10	1	-1E+10	1	-1E+10	1	-1E+10	1
4902554	98	C	10/26/2023	07:09	-133.615	47.845	0	763.00	0	3.5730	0	34.2460	0	27.234	0	755.218	0	-1e10	8	-1e10	8	-1E+10	1	-1E+10	1	-1E+10	1	-1E+10	1	-1E+10	1	-1E+10	1
4902554	98	C	10/26/2023	07:09	-133.615	47.845	0	767.70	0	3.5620	0	34.2490	0	27.238	0	759.862	0	-1e10	8	-1e10	8	-1E+10	1	-1E+10	1	-1E+10	1	-1E+10	1	-1E+10	1	-1E+10	1
4902554	98	C	10/26/2023	07:09	-133.615	47.845	0	772.90	0	3.5520	0	34.2510	0	27.241	0	764.999	0	-1e10	8	-1e10	8	-1E+10	1	-1E+10	1	-1E+10	1	-1E+10	1	-1E+10	1	-1E+10	1
4902554	98	C	10/26/2023	07:09	-133.615	47.845	0	778.10	0	3.5400	0	34.2560	0	27.246	0	770.136	0	-1e10	8	-1e10	8	-1E+10	1	-1E+10	1	-1E+10	1	-1E+10	1	-1E+10	1	-1E+10	1
4902554	98	C	10/26/2023	07:09	-133.615	47.845	0	782.90	0	3.5260	0	34.2600	0	27.250	0	774.878	0	-1e10	8	-1e10	8	-1E+10	1	-1E+10	1	-1E+10	1	-1E+10	1	-1E+10	1	-1E+10	1
4902554	98	C	10/26/2023	07:09	-133.615	47.845	0	787.70	0	3.5120	0	34.2630	0	27.254	0	779.620	0	-1e10	8	-1e10	8	-1E+10	1	-1E+10	1	-1E+10	1	-1E+10	1	-1E+10	1	-1E+10	1
4902554	98	C	10/26/2023	07:09	-133.615	47.845	0	792.90	0	3.4950	0	34.2690	0	27.261	0	784.757	0	-1e10	8	-1e10	8	-1E+10	1	-1E+10	1	-1E+10	1	-1E+10	1	-1E+10	1	-1E+10	1
4902554	98	C	10/26/2023	07:09	-133.615	47.845	0	798.20	0	3.4790	0	34.2730	0	27.265	0	789.993	0	-1e10	8	-1e10	8	-1E+10	1	-1E+10	1	-1E+10	1	-1E+10	1	-1E+10	1	-1E+10	1
4902554	98	C	10/26/2023	07:09	-133.615	47.845	0	802.90	0	3.4640	0	34.2760	0	27.269	0	794.635	0	-1e10	8	-1e10	8	-1E+10	1	-1E+10	1	-1E+10	1	-1E+10	1	-1E+10	1	-1E+10	1
4902554	98	C	10/26/2023	07:09	-133.615	47.845	0	807.70	0	3.4540	0	34.2780	0	27.272	0	799.377	0	-1e10	8	-1e10	8	-1E+10	1	-1E+10	1	-1E+10	1	-1E+10	1	-1E+10	1	-1E+10	1
4902554	98	C	10/26/2023	07:09	-133.615	47.845	0	813.00	0	3.4390	0	34.2810	0	27.276	0	804.612	0	-1e10	8	-1e10	8	-1E+10	1	-1E+10	1	-1E+10	1	-1E+10	1	-1E+10	1	-1E+10	1
4902554	98	C	10/26/2023	07:09	-133.615	47.845	0	818.30	0	3.4340	0	34.2840	0	27.278	0	809.847	0	-1e10	8	-1e10	8	-1E+10	1	-1E+10	1	-1E+10	1	-1E+10	1	-1E+10	1	-1E+10	1
4902554	98	C	10/26/2023	07:09	-133.615	47.845	0	823.10	0	3.4290	0	34.2860	0	27.281	0	814.588	0	-1e10	8	-1e10	8	-1E+10	1	-1E+10	1	-1E+10	1	-1E+10	1	-1E+10	1	-1E+10	1
4902554	98	C	10/26/2023	07:09	-133.615	47.845	0	827.90	0	3.4230	0	34.2870	0	27.282	0	819.329	0	-1e10	8	-1e10	8	-1E+10	1	-1E+10	1	-1E+10	1	-1E+10	1	-1E+10	1	-1E+10	1
4902554	98	C	10/26/2023	07:09	-133.615	47.845	0	832.60	0	3.4150	0	34.2890	0	27.284	0	823.971	0	-1e10	8	-1e10	8	-1E+10	1	-1E+10	1	-1E+10	1	-1E+10	1	-1E+10	1	-1E+10	1
4902554	98	C	10/26/2023	07:09	-133.615	47.845	0	837.90	0	3.4040	0	34.2930	0	27.289	0	829.206	0	-1e10	8	-1e10	8	-1E+10	1	-1E+10	1	-1E+10	1	-1E+10	1	-1E+10	1	-1E+10	1
4902554	98	C	10/26/2023	07:09	-133.615	47.845	0	843.30	0	3.3960	0	34.2960	0	27.292	0	834.539	0	-1e10	8	-1e10	8	-1E+10	1	-1E+10	1	-1E+10	1	-1E+10	1	-1E+10	1	-1E+10	1
4902554	98	C	10/26/2023	07:09	-133.615	47.845	0	848.20	0	3.3840	0	34.2980	0	27.295	0	839.378	0	-1e10	8	-1e10	8	-1E+10	1	-1E+10	1	-1E+10	1	-1E+10	1	-1E+10	1	-1E+10	1
4902554	98	C	10/26/2023	07:09	-133.615	47.845	0	853.10	0	3.3740	0	34.3010	0	27.298	0	844.217	0	-1e10	8	-1e10	8	-1E+10	1	-1E+10	1	-1E+10	1	-1E+10	1	-1E+10	1	-1E+10	1
4902554	98	C	10/26/2023	07:09	-133.615	47.845	0	858.10	0	3.3700	0	34.3020	0	27.299	0	849.155	0	-1e10	8	-1e10	8	-1E+10	1	-1E+10	1	-1E+10	1	-1E+10	1	-1E+10	1	-1E+10	1
4902554	98	C	10/26/2023	07:09	-133.615	47.845	0	863.10	0	3.3620	0	34.3040	0	27.302	0	854.093	0	-1e10	8	-1e10	8	-1E+10	1	-1E+10	1	-1E+10	1	-1E+10	1	-1E+10	1	-1E+10	1
4902554	98	C	10/26/2023	07:09	-133.615	47.845	0	868.10	0	3.3550	0	34.3040	0	27.302	0	859.030	0	-1e10	8	-1e10	8	-1E+10	1	-1E+10	1	-1E+10	1	-1E+10	1	-1E+10	1	-1E+10	1
4902554	98	C	10/26/2023	07:09	-133.615	47.845	0	873.10	0	3.3390	0	34.3060	0	27.305	0	863.968	0	-1e10	8	-1e10	8	-1E+10	1	-1E+10	1	-1E+10	1	-1E+10	1	-1E+10	1	-1E+10	1
4902554	98	C	10/26/2023	07:09	-133.615	47.845	0	878.20	0	3.3340	0	34.3080	0	27.307	0	869.004	0	-1e10	8	-1e10	8	-1E+10	1	-1E+10	1	-1E+10	1	-1E+10	1	-1E+10	1	-1E+10	1
4902554	98	C	10/26/2023	07:09	-133.615	47.845	0	883.30	0	3.3280	0	34.3100	0	27.310	0	874.040	0	-1e10	8	-1e10	8	-1E+10	1	-1E+10	1	-1E+10	1	-1E+10	1	-1E+10	1	-1E+10	1
4902554	98	C	10/26/2023	07:09	-133.615	47.845	0	887.90	0	3.3230	0	34.3110	0	27.311	0	878.582	0	-1e10	8	-1e10	8	-1E+10	1	-1E+10	1	-1E+10	1	-1E+10	1	-1E+10	1	-1E+10	1
4902554	98	C	10/26/2023	07:09	-133.615	47.845	0	892.60	0	3.3090	0	34.3130	0	27.314	0	883.222	0	-1e10	8	-1e10	8	-1E+10	1	-1E+10	1	-1E+10	1	-1E+10	1	-1E+10	1	-1E+10	1
4902554	98	C	10/26/2023	07:09	-133.615	47.845	0	897.90	0	3.3000	0	34.3150	0	27.316	0	888.456	0	-1e10	8	-1e10	8	-1E+10	1	-1E+10	1	-1E+10	1	-1E+10	1	-1E+10	1	-1E+10	1
4902554	98	C	10/26/2023	07:09	-133.615	47.845	0	903.10	0	3.2950	0	34.3160	0	27.318	0	893.590	0	-1e10	8	-1e10	8	-1E+10	1	-1E+10	1	-1E+10	1	-1E+10	1	-1E+10	1	-1E+10	1
4902554	98	C	10/26/2023	07:09	-133.615	47.845	0	907.90	0	3.2870	0	34.3200	0	27.322	0	898.329	0	-1e10	8	-1e10	8	-1E+10	1	-1E+10	1	-1E+10	1	-1E+10	1	-1E+10	1	-1E+10	1
4902554	98	C	10/26/2023	07:09	-133.615	47.845	0	912.60	0	3.2780	0	34.3220	0	27.324	0	902.969	0	-1e10	8	-1e10	8	-1E+10	1	-1E+10	1	-1E+10	1	-1E+10	1	-1E+10	1	-1E+10	1
4902554	98	C	10/26/2023	07:09	-133.615	47.845	0	917.80	0	3.2660	0	34.3230	0	27.326	0	908.103	0	-1e10	8	-1e10	8	-1E+10	1	-1E+10	1	-1E+10	1	-1E+10	1	-1E+10	1	-1E+10	1
4902554	98	C	10/26/2023	07:09	-133.615	47.845	0	923.00	0	3.2610	0	34.3250	0	27.328	0	913.237	0	-1e10	8	-1e10	8	-1E+10	1	-1E+10	1	-1E+10	1	-1E+10	1	-1E+10	1	-1E+10	1
4902554	98	C	10/26/2023	07:09	-133.615	47.845	0	928.20	0	3.2520	0	34.3270	0	27.331	0	918.370	0	-1e10	8	-1e10	8	-1E+10	1	-1E+10	1	-1E+10	1	-1E+10	1	-1E+10	1	-1E+10	1
4902554	98	C	10/26/2023	07:09	-133.615	47.845	0	932.90	0	3.2440	0	34.3290	0	27.333	0	923.010	0	-1e10	8	-1e10	8	-1E+10	1	-1E+10	1	-1E+10	1	-1E+10	1	-1E+10	1	-1E+10	1
4902554	98	C	10/26/2023	07:09	-133.615	47.845	0	937.70	0	3.2340	0	34.3320	0	27.336	0	927.749	0	-1e10	8	-1e10	8	-1E+10	1	-1E+10	1	-1E+10	1	-1E+10	1	-1E+10	1	-1E+10	1
4902554	98	C	10/26/2023	07:09	-133.615	47.845	0	943.00	0	3.2210	0	34.3350	0	27.340	0	932.981	0	-1e10	8	-1e10	8	-1E+10	1	-1E+10	1	-1E+10	1	-1E+10	1	-1E+10	1	-1E+10	1
4902554	98	C	10/26/2023	07:09	-133.615	47.845	0	948.20	0	3.2120	0	34.3370	0	27.342	0	938.114	0	-1e10	8	-1e10	8	-1E+10	1	-1E+10	1	-1E+10	1	-1E+10	1	-1E+10	1	-1E+10	1
4902554	98	C	10/26/2023	07:09	-133.615	47.845	0	953.00	0	3.2010	0	34.3400	0	27.346	0	942.852	0	-1e10	8	-1e10	8	-1E+10	1	-1E+10	1	-1E+10	1	-1E+10	1	-1E+10	1	-1E+10	1
4902554	98	C	10/26/2023	07:09	-133.615	47.845	0	957.70	0	3.1890	0	34.3430	0	27.349	0	947.491	0	-1e10	8	-1e10	8	-1E+10	1	-1E+10	1	-1E+10	1	-1E+10	1	-1E+10	1	-1E+10	1
4902554	98	C	10/26/2023	07:09	-133.615	47.845	0	963.00	0	3.1810	0	34.3440	0	27.351	0	952.723	0	-1e10	8	-1e10	8	-1E+10	1	-1E+10	1	-1E+10	1	-1E+10	1	-1E+10	1	-1E+10	1
4902554	98	C	10/26/2023	07:09	-133.615	47.845	0	967.80	0	3.1760	0	34.3450	0	27.352	0	957.460	0	-1e10	8	-1e10	8	-1E+10	1	-1E+10	1	-1E+10	1	-1E+10	1	-1E+10	1	-1E+10	1
4902554	98	C	10/26/2023	07:09	-133.615	47.845	0	972.50	0	3.1720	0	34.3460	0	27.353	0	962.099	0	-1e10	8	-1e10	8	-1E+10	1	-1E+10	1	-1E+10	1	-1E+10	1	-1E+10	1	-1E+10	1
4902554	98	C	10/26/2023	07:09	-133.615	47.845	0	977.60	0	3.1600	0	34.3490	0	27.357	0	967.133	0	-1e10	8	-1e10	8	-1E+10	1	-1E+10	1	-1E+10	1	-1E+10	1	-1E+10	1	-1E+10	1
4902554	98	C	10/26/2023	07:09	-133.615	47.845	0	982.90	0	3.1530	0	34.3510	0	27.359	0	972.364	0	-1e10	8	-1e10	8	-1E+10	1	-1E+10	1	-1E+10	1	-1E+10	1	-1E+10	1	-1E+10	1
4902554	98	C	10/26/2023	07:09	-133.615	47.845	0	988.30	0	3.1400	0	34.3530	0	27.362	0	977.694	0	-1e10	8	-1e10	8	-1E+10	1	-1E+10	1	-1E+10	1	-1E+10	1	-1E+10	1	-1E+10	1
4902554	98	C	10/26/2023	07:09	-133.615	47.845	0	992.90	0	3.1300	0	34.3550	0	27.365	0	982.234	0	-1e10	8	-1e10	8	-1E+10	1	-1E+10	1	-1E+10	1	-1E+10	1	-1E+10	1	-1E+10	1
4902554	98	C	10/26/2023	07:09	-133.615	47.845	0	997.60	0	3.1220	0	34.3570	0	27.367	0	986.872	0	-1e10	8	-1e10	8	-1E+10	1	-1E+10	1	-1E+10	1	-1E+10	1	-1E+10	1	-1E+10	1
4902554	98	C	10/26/2023	07:09	-133.615	47.845	0	1005.30	0	3.0990	0	34.3630	0	27.374	0	994.471	0	-1e10	8	-1e10	8	-1E+10	1	-1E+10	1	-1E+10	1	-1E+10	1	-1E+10	1	-1E+10	1
4902554	98	C	10/26/2023	07:09	-133.615	47.845	0	1015.40	0	3.0720	0	34.3700	0	27.382	0	1004.438	0	-1e10	8	-1e10	8	-1E+10	1	-1E+10	1	-1E+10	1	-1E+10	1	-1E+10	1	-1E+10	1
4902554	98	C	10/26/2023	07:09	-133.615	47.845	0	1025.20	0	3.0500	0	34.3750	0	27.388	0	1014.108	0	-1e10	8	-1e10	8	-1E+10	1	-1E+10	1	-1E+10	1	-1E+10	1	-1E+10	1	-1E+10	1
4902554	98	C	10/26/2023	07:09	-133.615	47.845	0	1035.20	0	3.0320	0	34.3790	0	27.393	0	1023.976	0	-1e10	8	-1e10	8	-1E+10	1	-1E+10	1	-1E+10	1	-1E+10	1	-1E+10	1	-1E+10	1
4902554	98	C	10/26/2023	07:09	-133.615	47.845	0	1045.50	0	3.0210	0	34.3820	0	27.396	0	1034.139	0	-1e10	8	-1e10	8	-1E+10	1	-1E+10	1	-1E+10	1	-1E+10	1	-1E+10	1	-1E+10	1
4902554	98	C	10/26/2023	07:09	-133.615	47.845	0	1055.50	0	3.0030	0	34.3850	0	27.400	0	1044.005	0	-1e10	8	-1e10	8	-1E+10	1	-1E+10	1	-1E+10	1	-1E+10	1	-1E+10	1	-1E+10	1
4902554	98	C	10/26/2023	07:09	-133.615	47.845	0	1065.10	0	2.9950	0	34.3880	0	27.404	0	1053.477	0	-1e10	8	-1e10	8	-1E+10	1	-1E+10	1	-1E+10	1	-1E+10	1	-1E+10	1	-1E+10	1
4902554	98	C	10/26/2023	07:09	-133.615	47.845	0	1075.00	0	2.9810	0	34.3920	0	27.408	0	1063.243	0	-1e10	8	-1e10	8	-1E+10	1	-1E+10	1	-1E+10	1	-1E+10	1	-1E+10	1	-1E+10	1
4902554	98	C	10/26/2023	07:09	-133.615	47.845	0	1085.10	0	2.9640	0	34.3950	0	27.412	0	1073.207	0	-1e10	8	-1e10	8	-1E+10	1	-1E+10	1	-1E+10	1	-1E+10	1	-1E+10	1	-1E+10	1
4902554	98	C	10/26/2023	07:09	-133.615	47.845	0	1095.50	0	2.9530	0	34.3990	0	27.416	0	1083.466	0	-1e10	8	-1e10	8	-1E+10	1	-1E+10	1	-1E+10	1	-1E+10	1	-1E+10	1	-1E+10	1
4902554	98	C	10/26/2023	07:09	-133.615	47.845	0	1105.40	0	2.9430	0	34.4020	0	27.420	0	1093.232	0	-1e10	8	-1e10	8	-1E+10	1	-1E+10	1	-1E+10	1	-1E+10	1	-1E+10	1	-1E+10	1
4902554	98	C	10/26/2023	07:09	-133.615	47.845	0	1115.30	0	2.9250	0	34.4070	0	27.425	0	1102.997	0	-1e10	8	-1e10	8	-1E+10	1	-1E+10	1	-1E+10	1	-1E+10	1	-1E+10	1	-1E+10	1
4902554	98	C	10/26/2023	07:09	-133.615	47.845	0	1125.40	0	2.9140	0	34.4090	0	27.428	0	1112.959	0	-1e10	8	-1e10	8	-1E+10	1	-1E+10	1	-1E+10	1	-1E+10	1	-1E+10	1	-1E+10	1
4902554	98	C	10/26/2023	07:09	-133.615	47.845	0	1135.70	0	2.9000	0	34.4120	0	27.432	0	1123.117	0	-1e10	8	-1e10	8	-1E+10	1	-1E+10	1	-1E+10	1	-1E+10	1	-1E+10	1	-1E+10	1
4902554	98	C	10/26/2023	07:09	-133.615	47.845	0	1145.40	0	2.8910	0	34.4140	0	27.434	0	1132.684	0	-1e10	8	-1e10	8	-1E+10	1	-1E+10	1	-1E+10	1	-1E+10	1	-1E+10	1	-1E+10	1
4902554	98	C	10/26/2023	07:09	-133.615	47.845	0	1155.20	0	2.8770	0	34.4170	0	27.438	0	1142.348	0	-1e10	8	-1e10	8	-1E+10	1	-1E+10	1	-1E+10	1	-1E+10	1	-1E+10	1	-1E+10	1
4902554	98	C	10/26/2023	07:09	-133.615	47.845	0	1165.40	0	2.8680	0	34.4190	0	27.440	0	1152.407	0	-1e10	8	-1e10	8	-1E+10	1	-1E+10	1	-1E+10	1	-1E+10	1	-1E+10	1	-1E+10	1
4902554	98	C	10/26/2023	07:09	-133.615	47.845	0	1175.50	0	2.8610	0	34.4210	0	27.443	0	1162.366	0	-1e10	8	-1e10	8	-1E+10	1	-1E+10	1	-1E+10	1	-1E+10	1	-1E+10	1	-1E+10	1
4902554	98	C	10/26/2023	07:09	-133.615	47.845	0	1185.60	0	2.8530	0	34.4240	0	27.446	0	1172.325	0	-1e10	8	-1e10	8	-1E+10	1	-1E+10	1	-1E+10	1	-1E+10	1	-1E+10	1	-1E+10	1
4902554	98	C	10/26/2023	07:09	-133.615	47.845	0	1195.70	0	2.8510	0	34.4280	0	27.449	0	1182.284	0	-1e10	8	-1e10	8	-1E+10	1	-1E+10	1	-1E+10	1	-1E+10	1	-1E+10	1	-1E+10	1
4902554	98	C	10/26/2023	07:09	-133.615	47.845	0	1205.70	0	2.8350	0	34.4320	0	27.454	0	1192.143	0	-1e10	8	-1e10	8	-1E+10	1	-1E+10	1	-1E+10	1	-1E+10	1	-1E+10	1	-1E+10	1
4902554	98	C	10/26/2023	07:09	-133.615	47.845	0	1215.50	0	2.7970	0	34.4320	0	27.457	0	1201.805	0	-1e10	8	-1e10	8	-1E+10	1	-1E+10	1	-1E+10	1	-1E+10	1	-1E+10	1	-1E+10	1
4902554	98	C	10/26/2023	07:09	-133.615	47.845	0	1225.60	0	2.7850	0	34.4330	0	27.459	0	1211.762	0	-1e10	8	-1e10	8	-1E+10	1	-1E+10	1	-1E+10	1	-1E+10	1	-1E+10	1	-1E+10	1
4902554	98	C	10/26/2023	07:09	-133.615	47.845	0	1235.50	0	2.7650	0	34.4370	0	27.464	0	1221.522	0	-1e10	8	-1e10	8	-1E+10	1	-1E+10	1	-1E+10	1	-1E+10	1	-1E+10	1	-1E+10	1
4902554	98	C	10/26/2023	07:09	-133.615	47.845	0	1245.30	0	2.7550	0	34.4410	0	27.468	0	1231.182	0	-1e10	8	-1e10	8	-1E+10	1	-1E+10	1	-1E+10	1	-1E+10	1	-1E+10	1	-1E+10	1
4902554	98	C	10/26/2023	07:09	-133.615	47.845	0	1255.50	0	2.7470	0	34.4440	0	27.471	0	1241.237	0	-1e10	8	-1e10	8	-1E+10	1	-1E+10	1	-1E+10	1	-1E+10	1	-1E+10	1	-1E+10	1
4902554	98	C	10/26/2023	07:09	-133.615	47.845	0	1265.30	0	2.7370	0	34.4490	0	27.476	0	1250.896	0	-1e10	8	-1e10	8	-1E+10	1	-1E+10	1	-1E+10	1	-1E+10	1	-1E+10	1	-1E+10	1
4902554	98	C	10/26/2023	07:09	-133.615	47.845	0	1275.10	0	2.7310	0	34.4510	0	27.479	0	1260.555	0	-1e10	8	-1e10	8	-1E+10	1	-1E+10	1	-1E+10	1	-1E+10	1	-1E+10	1	-1E+10	1
4902554	98	C	10/26/2023	07:09	-133.615	47.845	0	1285.40	0	2.7170	0	34.4520	0	27.481	0	1270.707	0	-1e10	8	-1e10	8	-1E+10	1	-1E+10	1	-1E+10	1	-1E+10	1	-1E+10	1	-1E+10	1
4902554	98	C	10/26/2023	07:09	-133.615	47.845	0	1295.60	0	2.6930	0	34.4530	0	27.484	0	1280.759	0	-1e10	8	-1e10	8	-1E+10	1	-1E+10	1	-1E+10	1	-1E+10	1	-1E+10	1	-1E+10	1
4902554	98	C	10/26/2023	07:09	-133.615	47.845	0	1305.60	0	2.6830	0	34.4580	0	27.488	0	1290.614	0	-1e10	8	-1e10	8	-1E+10	1	-1E+10	1	-1E+10	1	-1E+10	1	-1E+10	1	-1E+10	1
4902554	98	C	10/26/2023	07:09	-133.615	47.845	0	1315.60	0	2.6660	0	34.4600	0	27.492	0	1300.468	0	-1e10	8	-1e10	8	-1E+10	1	-1E+10	1	-1E+10	1	-1E+10	1	-1E+10	1	-1E+10	1
4902554	98	C	10/26/2023	07:09	-133.615	47.845	0	1325.70	0	2.6460	0	34.4630	0	27.496	0	1310.421	0	-1e10	8	-1e10	8	-1E+10	1	-1E+10	1	-1E+10	1	-1E+10	1	-1E+10	1	-1E+10	1
4902554	98	C	10/26/2023	07:09	-133.615	47.845	0	1335.60	0	2.6270	0	34.4670	0	27.501	0	1320.176	0	-1e10	8	-1e10	8	-1E+10	1	-1E+10	1	-1E+10	1	-1E+10	1	-1E+10	1	-1E+10	1
4902554	98	C	10/26/2023	07:09	-133.615	47.845	0	1345.50	0	2.6090	0	34.4690	0	27.504	0	1329.930	0	-1e10	8	-1e10	8	-1E+10	1	-1E+10	1	-1E+10	1	-1E+10	1	-1E+10	1	-1E+10	1
4902554	98	C	10/26/2023	07:09	-133.615	47.845	0	1355.60	0	2.5840	0	34.4730	0	27.509	0	1339.881	0	-1e10	8	-1e10	8	-1E+10	1	-1E+10	1	-1E+10	1	-1E+10	1	-1E+10	1	-1E+10	1
4902554	98	C	10/26/2023	07:09	-133.615	47.845	0	1365.80	0	2.5590	0	34.4760	0	27.514	0	1349.930	0	-1e10	8	-1e10	8	-1E+10	1	-1E+10	1	-1E+10	1	-1E+10	1	-1E+10	1	-1E+10	1
4902554	98	C	10/26/2023	07:09	-133.615	47.845	0	1375.40	0	2.5430	0	34.4800	0	27.518	0	1359.388	0	-1e10	8	-1e10	8	-1E+10	1	-1E+10	1	-1E+10	1	-1E+10	1	-1E+10	1	-1E+10	1
4902554	98	C	10/26/2023	07:09	-133.615	47.845	0	1385.20	0	2.5330	0	34.4830	0	27.522	0	1369.042	0	-1e10	8	-1e10	8	-1E+10	1	-1E+10	1	-1E+10	1	-1E+10	1	-1E+10	1	-1E+10	1
4902554	98	C	10/26/2023	07:09	-133.615	47.845	0	1395.50	0	2.5100	0	34.4840	0	27.524	0	1379.188	0	-1e10	8	-1e10	8	-1E+10	1	-1E+10	1	-1E+10	1	-1E+10	1	-1E+10	1	-1E+10	1
4902554	98	C	10/26/2023	07:09	-133.615	47.845	0	1405.60	0	2.4900	0	34.4860	0	27.528	0	1389.137	0	-1e10	8	-1e10	8	-1E+10	1	-1E+10	1	-1E+10	1	-1E+10	1	-1E+10	1	-1E+10	1
4902554	98	C	10/26/2023	07:09	-133.615	47.845	0	1415.50	0	2.4760	0	34.4890	0	27.531	0	1398.888	0	-1e10	8	-1e10	8	-1E+10	1	-1E+10	1	-1E+10	1	-1E+10	1	-1E+10	1	-1E+10	1
4902554	98	C	10/26/2023	07:09	-133.615	47.845	0	1425.60	0	2.4710	0	34.4910	0	27.533	0	1408.836	0	-1e10	8	-1e10	8	-1E+10	1	-1E+10	1	-1E+10	1	-1E+10	1	-1E+10	1	-1E+10	1
4902554	98	C	10/26/2023	07:09	-133.615	47.845	0	1435.50	0	2.4620	0	34.4930	0	27.536	0	1418.586	0	-1e10	8	-1e10	8	-1E+10	1	-1E+10	1	-1E+10	1	-1E+10	1	-1E+10	1	-1E+10	1
4902554	98	C	10/26/2023	07:09	-133.615	47.845	0	1445.50	0	2.4510	0	34.4950	0	27.538	0	1428.435	0	-1e10	8	-1e10	8	-1E+10	1	-1E+10	1	-1E+10	1	-1E+10	1	-1E+10	1	-1E+10	1
4902554	98	C	10/26/2023	07:09	-133.615	47.845	0	1455.60	0	2.4350	0	34.4970	0	27.541	0	1438.381	0	-1e10	8	-1e10	8	-1E+10	1	-1E+10	1	-1E+10	1	-1E+10	1	-1E+10	1	-1E+10	1
4902554	98	C	10/26/2023	07:09	-133.615	47.845	0	1465.30	0	2.4180	0	34.4990	0	27.544	0	1447.933	0	-1e10	8	-1e10	8	-1E+10	1	-1E+10	1	-1E+10	1	-1E+10	1	-1E+10	1	-1E+10	1
4902554	98	C	10/26/2023	07:09	-133.615	47.845	0	1475.10	0	2.4110	0	34.5000	0	27.546	0	1457.583	0	-1e10	8	-1e10	8	-1E+10	1	-1E+10	1	-1E+10	1	-1E+10	1	-1E+10	1	-1E+10	1
4902554	98	C	10/26/2023	07:09	-133.615	47.845	0	1485.40	0	2.3990	0	34.5010	0	27.548	0	1467.725	0	-1e10	8	-1e10	8	-1E+10	1	-1E+10	1	-1E+10	1	-1E+10	1	-1E+10	1	-1E+10	1
4902554	98	C	10/26/2023	07:09	-133.615	47.845	0	1495.70	0	2.3890	0	34.5040	0	27.551	0	1477.866	0	-1e10	8	-1e10	8	-1E+10	1	-1E+10	1	-1E+10	1	-1E+10	1	-1E+10	1	-1E+10	1
4902554	98	C	10/26/2023	07:09	-133.615	47.845	0	1505.40	0	2.3780	0	34.5060	0	27.554	0	1487.417	0	-1e10	8	-1e10	8	-1E+10	1	-1E+10	1	-1E+10	1	-1E+10	1	-1E+10	1	-1E+10	1
4902554	98	C	10/26/2023	07:09	-133.615	47.845	0	1515.10	0	2.3650	0	34.5090	0	27.557	0	1496.966	0	-1e10	8	-1e10	8	-1E+10	1	-1E+10	1	-1E+10	1	-1E+10	1	-1E+10	1	-1E+10	1
4902554	98	C	10/26/2023	07:09	-133.615	47.845	0	1525.10	0	2.3540	0	34.5120	0	27.560	0	1506.811	0	-1e10	8	-1e10	8	-1E+10	1	-1E+10	1	-1E+10	1	-1E+10	1	-1E+10	1	-1E+10	1
4902554	98	C	10/26/2023	07:09	-133.615	47.845	0	1535.10	0	2.3400	0	34.5150	0	27.564	0	1516.655	0	-1e10	8	-1e10	8	-1E+10	1	-1E+10	1	-1E+10	1	-1E+10	1	-1E+10	1	-1E+10	1
4902554	98	C	10/26/2023	07:09	-133.615	47.845	0	1545.20	0	2.3200	0	34.5170	0	27.567	0	1526.597	0	-1e10	8	-1e10	8	-1E+10	1	-1E+10	1	-1E+10	1	-1E+10	1	-1E+10	1	-1E+10	1
4902554	98	C	10/26/2023	07:09	-133.615	47.845	0	1555.50	0	2.3030	0	34.5200	0	27.571	0	1536.736	0	-1e10	8	-1e10	8	-1E+10	1	-1E+10	1	-1E+10	1	-1E+10	1	-1E+10	1	-1E+10	1
4902554	98	C	10/26/2023	07:09	-133.615	47.845	0	1565.80	0	2.2930	0	34.5230	0	27.574	0	1546.874	0	-1e10	8	-1e10	8	-1E+10	1	-1E+10	1	-1E+10	1	-1E+10	1	-1E+10	1	-1E+10	1
4902554	98	C	10/26/2023	07:09	-133.615	47.845	0	1575.40	0	2.2900	0	34.5240	0	27.576	0	1556.323	0	-1e10	8	-1e10	8	-1E+10	1	-1E+10	1	-1E+10	1	-1E+10	1	-1E+10	1	-1E+10	1
4902554	98	C	10/26/2023	07:09	-133.615	47.845	0	1585.40	0	2.2800	0	34.5260	0	27.578	0	1566.165	0	-1e10	8	-1e10	8	-1E+10	1	-1E+10	1	-1E+10	1	-1E+10	1	-1E+10	1	-1E+10	1
4902554	98	C	10/26/2023	07:09	-133.615	47.845	0	1595.20	0	2.2630	0	34.5290	0	27.582	0	1575.809	0	-1e10	8	-1e10	8	-1E+10	1	-1E+10	1	-1E+10	1	-1E+10	1	-1E+10	1	-1E+10	1
4902554	98	C	10/26/2023	07:09	-133.615	47.845	0	1605.10	0	2.2470	0	34.5310	0	27.585	0	1585.552	0	-1e10	8	-1e10	8	-1E+10	1	-1E+10	1	-1E+10	1	-1E+10	1	-1E+10	1	-1E+10	1
4902554	98	C	10/26/2023	07:09	-133.615	47.845	0	1615.10	0	2.2380	0	34.5330	0	27.587	0	1595.393	0	-1e10	8	-1e10	8	-1E+10	1	-1E+10	1	-1E+10	1	-1E+10	1	-1E+10	1	-1E+10	1
4902554	98	C	10/26/2023	07:09	-133.615	47.845	0	1625.20	0	2.2270	0	34.5340	0	27.589	0	1605.331	0	-1e10	8	-1e10	8	-1E+10	1	-1E+10	1	-1E+10	1	-1E+10	1	-1E+10	1	-1E+10	1
4902554	98	C	10/26/2023	07:09	-133.615	47.845	0	1635.30	0	2.2190	0	34.5360	0	27.591	0	1615.269	0	-1e10	8	-1e10	8	-1E+10	1	-1E+10	1	-1E+10	1	-1E+10	1	-1E+10	1	-1E+10	1
4902554	98	C	10/26/2023	07:09	-133.615	47.845	0	1645.60	0	2.2110	0	34.5380	0	27.594	0	1625.404	0	-1e10	8	-1e10	8	-1E+10	1	-1E+10	1	-1E+10	1	-1E+10	1	-1E+10	1	-1E+10	1
4902554	98	C	10/26/2023	07:09	-133.615	47.845	0	1655.60	0	2.2010	0	34.5390	0	27.595	0	1635.242	0	-1e10	8	-1e10	8	-1E+10	1	-1E+10	1	-1E+10	1	-1E+10	1	-1E+10	1	-1E+10	1
4902554	98	C	10/26/2023	07:09	-133.615	47.845	0	1665.40	0	2.1880	0	34.5420	0	27.599	0	1644.884	0	-1e10	8	-1e10	8	-1E+10	1	-1E+10	1	-1E+10	1	-1E+10	1	-1E+10	1	-1E+10	1
4902554	98	C	10/26/2023	07:09	-133.615	47.845	0	1675.30	0	2.1780	0	34.5430	0	27.600	0	1654.623	0	-1e10	8	-1e10	8	-1E+10	1	-1E+10	1	-1E+10	1	-1E+10	1	-1E+10	1	-1E+10	1
4902554	98	C	10/26/2023	07:09	-133.615	47.845	0	1685.20	0	2.1660	0	34.5450	0	27.603	0	1664.362	0	-1e10	8	-1e10	8	-1E+10	1	-1E+10	1	-1E+10	1	-1E+10	1	-1E+10	1	-1E+10	1
4902554	98	C	10/26/2023	07:09	-133.615	47.845	0	1695.10	0	2.1580	0	34.5470	0	27.605	0	1674.101	0	-1e10	8	-1e10	8	-1E+10	1	-1E+10	1	-1E+10	1	-1E+10	1	-1E+10	1	-1E+10	1
4902554	98	C	10/26/2023	07:09	-133.615	47.845	0	1705.50	0	2.1470	0	34.5490	0	27.608	0	1684.331	0	-1e10	8	-1e10	8	-1E+10	1	-1E+10	1	-1E+10	1	-1E+10	1	-1E+10	1	-1E+10	1
4902554	98	C	10/26/2023	07:09	-133.615	47.845	0	1715.70	0	2.1390	0	34.5500	0	27.609	0	1694.363	0	-1e10	8	-1e10	8	-1E+10	1	-1E+10	1	-1E+10	1	-1E+10	1	-1E+10	1	-1E+10	1
4902554	98	C	10/26/2023	07:09	-133.615	47.845	0	1725.70	0	2.1290	0	34.5520	0	27.612	0	1704.199	0	-1e10	8	-1e10	8	-1E+10	1	-1E+10	1	-1E+10	1	-1E+10	1	-1E+10	1	-1E+10	1
4902554	98	C	10/26/2023	07:09	-133.615	47.845	0	1735.40	0	2.1220	0	34.5530	0	27.613	0	1713.739	0	-1e10	8	-1e10	8	-1E+10	1	-1E+10	1	-1E+10	1	-1E+10	1	-1E+10	1	-1E+10	1
4902554	98	C	10/26/2023	07:09	-133.615	47.845	0	1745.30	0	2.1160	0	34.5550	0	27.615	0	1723.475	0	-1e10	8	-1e10	8	-1E+10	1	-1E+10	1	-1E+10	1	-1E+10	1	-1E+10	1	-1E+10	1
4902554	98	C	10/26/2023	07:09	-133.615	47.845	0	1755.30	0	2.1100	0	34.5560	0	27.617	0	1733.309	0	-1e10	8	-1e10	8	-1E+10	1	-1E+10	1	-1E+10	1	-1E+10	1	-1E+10	1	-1E+10	1
4902554	98	C	10/26/2023	07:09	-133.615	47.845	0	1765.40	0	2.1000	0	34.5580	0	27.619	0	1743.241	0	-1e10	8	-1e10	8	-1E+10	1	-1E+10	1	-1E+10	1	-1E+10	1	-1E+10	1	-1E+10	1
4902554	98	C	10/26/2023	07:09	-133.615	47.845	0	1775.70	0	2.0880	0	34.5600	0	27.622	0	1753.369	0	-1e10	8	-1e10	8	-1E+10	1	-1E+10	1	-1E+10	1	-1E+10	1	-1E+10	1	-1E+10	1
4902554	98	C	10/26/2023	07:09	-133.615	47.845	0	1785.70	0	2.0770	0	34.5620	0	27.624	0	1763.202	0	-1e10	8	-1e10	8	-1E+10	1	-1E+10	1	-1E+10	1	-1E+10	1	-1E+10	1	-1E+10	1
4902554	98	C	10/26/2023	07:09	-133.615	47.845	0	1795.60	0	2.0670	0	34.5640	0	27.627	0	1772.936	0	-1e10	8	-1e10	8	-1E+10	1	-1E+10	1	-1E+10	1	-1E+10	1	-1E+10	1	-1E+10	1
4902554	98	C	10/26/2023	07:09	-133.615	47.845	0	1805.20	0	2.0560	0	34.5660	0	27.629	0	1782.375	0	-1e10	8	-1e10	8	-1E+10	1	-1E+10	1	-1E+10	1	-1E+10	1	-1E+10	1	-1E+10	1
4902554	98	C	10/26/2023	07:09	-133.615	47.845	0	1815.10	0	2.0440	0	34.5680	0	27.632	0	1792.108	0	-1e10	8	-1e10	8	-1E+10	1	-1E+10	1	-1E+10	1	-1E+10	1	-1E+10	1	-1E+10	1
4902554	98	C	10/26/2023	07:09	-133.615	47.845	0	1825.20	0	2.0400	0	34.5680	0	27.632	0	1802.037	0	-1e10	8	-1e10	8	-1E+10	1	-1E+10	1	-1E+10	1	-1E+10	1	-1E+10	1	-1E+10	1
4902554	98	C	10/26/2023	07:09	-133.615	47.845	0	1835.40	0	2.0330	0	34.5690	0	27.633	0	1812.064	0	-1e10	8	-1e10	8	-1E+10	1	-1E+10	1	-1E+10	1	-1E+10	1	-1E+10	1	-1E+10	1
4902554	98	C	10/26/2023	07:09	-133.615	47.845	0	1845.30	0	2.0270	0	34.5700	0	27.635	0	1821.796	0	-1e10	8	-1e10	8	-1E+10	1	-1E+10	1	-1E+10	1	-1E+10	1	-1E+10	1	-1E+10	1
4902554	98	C	10/26/2023	07:09	-133.615	47.845	0	1855.50	0	2.0230	0	34.5710	0	27.636	0	1831.822	0	-1e10	8	-1e10	8	-1E+10	1	-1E+10	1	-1E+10	1	-1E+10	1	-1E+10	1	-1E+10	1
4902554	98	C	10/26/2023	07:09	-133.615	47.845	0	1865.70	0	2.0210	0	34.5720	0	27.637	0	1841.848	0	-1e10	8	-1e10	8	-1E+10	1	-1E+10	1	-1E+10	1	-1E+10	1	-1E+10	1	-1E+10	1
4902554	98	C	10/26/2023	07:09	-133.615	47.845	0	1875.30	0	2.0140	0	34.5730	0	27.638	0	1851.283	0	-1e10	8	-1e10	8	-1E+10	1	-1E+10	1	-1E+10	1	-1E+10	1	-1E+10	1	-1E+10	1
4902554	98	C	10/26/2023	07:09	-133.615	47.845	0	1885.20	0	2.0100	0	34.5730	0	27.639	0	1861.013	0	-1e10	8	-1e10	8	-1E+10	1	-1E+10	1	-1E+10	1	-1E+10	1	-1E+10	1	-1E+10	1
4902554	98	C	10/26/2023	07:09	-133.615	47.845	0	1895.60	0	2.0030	0	34.5750	0	27.641	0	1871.234	0	-1e10	8	-1e10	8	-1E+10	1	-1E+10	1	-1E+10	1	-1E+10	1	-1E+10	1	-1E+10	1
4902554	98	C	10/26/2023	07:09	-133.615	47.845	0	1905.40	0	1.9970	0	34.5760	0	27.642	0	1880.865	0	-1e10	8	-1e10	8	-1E+10	1	-1E+10	1	-1E+10	1	-1E+10	1	-1E+10	1	-1E+10	1
4902554	98	C	10/26/2023	07:09	-133.615	47.845	0	1915.30	0	1.9890	0	34.5780	0	27.645	0	1890.593	0	-1e10	8	-1e10	8	-1E+10	1	-1E+10	1	-1E+10	1	-1E+10	1	-1E+10	1	-1E+10	1
4902554	98	C	10/26/2023	07:09	-133.615	47.845	0	1925.70	0	1.9810	0	34.5790	0	27.646	0	1900.813	0	-1e10	8	-1e10	8	-1E+10	1	-1E+10	1	-1E+10	1	-1E+10	1	-1E+10	1	-1E+10	1
4902554	98	C	10/26/2023	07:09	-133.615	47.845	0	1935.60	0	1.9760	0	34.5800	0	27.647	0	1910.540	0	-1e10	8	-1e10	8	-1E+10	1	-1E+10	1	-1E+10	1	-1E+10	1	-1E+10	1	-1E+10	1
4902554	98	C	10/26/2023	07:09	-133.615	47.845	0	1945.50	0	1.9710	0	34.5810	0	27.649	0	1920.268	0	-1e10	8	-1e10	8	-1E+10	1	-1E+10	1	-1E+10	1	-1E+10	1	-1E+10	1	-1E+10	1
4902554	98	C	10/26/2023	07:09	-133.615	47.845	0	1955.60	0	1.9630	0	34.5830	0	27.651	0	1930.191	0	-1e10	8	-1e10	8	-1E+10	1	-1E+10	1	-1E+10	1	-1E+10	1	-1E+10	1	-1E+10	1
4902554	98	C	10/26/2023	07:09	-133.615	47.845	0	1965.40	0	1.9580	0	34.5840	0	27.652	0	1939.819	0	-1e10	8	-1e10	8	-1E+10	1	-1E+10	1	-1E+10	1	-1E+10	1	-1E+10	1	-1E+10	1
4902554	98	C	10/26/2023	07:09	-133.615	47.845	0	1975.30	0	1.9480	0	34.5860	0	27.654	0	1949.545	0	-1e10	8	-1e10	8	-1E+10	1	-1E+10	1	-1E+10	1	-1E+10	1	-1E+10	1	-1E+10	1
4902554	98	C	10/26/2023	07:09	-133.615	47.845	0	1985.20	0	1.9410	0	34.5880	0	27.657	0	1959.270	0	-1e10	8	-1e10	8	-1E+10	1	-1E+10	1	-1E+10	1	-1E+10	1	-1E+10	1	-1E+10	1
4902554	98	C	10/26/2023	07:09	-133.615	47.845	0	1995.30	0	1.9370	0	34.5890	0	27.658	0	1969.192	0	-1e10	8	-1e10	8	-1E+10	1	-1E+10	1	-1E+10	1	-1E+10	1	-1E+10	1	-1E+10	1
4902554	98	C	10/26/2023	07:09	-133.615	47.845	0	2005.50	0	1.9320	0	34.5900	0	27.659	0	1979.211	0	-1e10	8	-1e10	8	-1E+10	1	-1E+10	1	-1E+10	1	-1E+10	1	-1E+10	1	-1E+10	1
4902554	98	C	10/26/2023	07:09	-133.615	47.845	0	2015.60	0	1.9270	0	34.5910	0	27.660	0	1989.131	0	-1e10	8	-1e10	8	-1E+10	1	-1E+10	1	-1E+10	1	-1E+10	1	-1E+10	1	-1E+10	1
4902554	98	C	10/26/2023	07:09	-133.615	47.845	0	2023.10	0	1.9220	0	34.5920	0	27.662	0	1996.498	0	-1e10	8	-1e10	8	-1E+10	1	-1E+10	1	-1E+10	1	-1E+10	1	-1E+10	1	-1E+10	1
4902554	98	C	10/26/2023	07:09	-133.615	47.845	0																										
4902554	99	C	11/05/2023	12:05	-133.542	47.803	0	0.10	0	12.7540	0	32.3440	0	24.385	0	0.099	0	-1e10	8	-1e10	8	-1E+10	1	-1E+10	1	-1E+10	1	-1E+10	1	-1E+10	1	-1E+10	1
4902554	99	C	11/05/2023	12:05	-133.542	47.803	0	0.20	0	12.7540	0	32.3300	0	24.374	0	0.198	0	-1e10	1	-1e10	1	-1E+10	1	-1E+10	1	-1E+10	1	-1E+10	1	-1E+10	1	-1E+10	1
4902554	99	C	11/05/2023	12:05	-133.542	47.803	0	0.30	0	12.7620	0	32.3390	0	24.379	0	0.297	0	-1e10	8	-1e10	8	-1E+10	1	-1E+10	1	-1E+10	1	-1E+10	1	-1E+10	1	-1E+10	1
4902554	99	C	11/05/2023	12:05	-133.542	47.803	0	1.10	0	12.7620	0	32.3380	0	24.378	0	1.091	0	-1e10	8	-1e10	8	-1E+10	1	-1E+10	1	-1E+10	1	-1E+10	1	-1E+10	1	-1E+10	1
4902554	99	C	11/05/2023	12:05	-133.542	47.803	0	2.10	0	12.7630	0	32.3370	0	24.377	0	2.082	0	-1e10	8	-1e10	8	-1E+10	1	-1E+10	1	-1E+10	1	-1E+10	1	-1E+10	1	-1E+10	1
4902554	99	C	11/05/2023	12:05	-133.542	47.803	0	3.00	0	12.7630	0	32.3420	0	24.381	0	2.975	0	-1e10	8	-1e10	8	-1E+10	1	-1E+10	1	-1E+10	1	-1E+10	1	-1E+10	1	-1E+10	1
4902554	99	C	11/05/2023	12:05	-133.542	47.803	0	4.20	0	12.7640	0	32.3440	0	24.383	0	4.165	0	-1e10	8	-1e10	8	-1E+10	1	-1E+10	1	-1E+10	1	-1E+10	1	-1E+10	1	-1E+10	1
4902554	99	C	11/05/2023	12:05	-133.542	47.803	0	4.80	0	12.7640	0	32.3450	0	24.383	0	4.760	0	-1e10	8	-1e10	8	-1E+10	1	-1E+10	1	-1E+10	1	-1E+10	1	-1E+10	1	-1E+10	1
4902554	99	C	11/05/2023	12:05	-133.542	47.803	0	5.80	0	12.7640	0	32.3450	0	24.383	0	5.751	0	-1e10	8	-1e10	8	-1E+10	1	-1E+10	1	-1E+10	1	-1E+10	1	-1E+10	1	-1E+10	1
4902554	99	C	11/05/2023	12:05	-133.542	47.803	0	6.90	0	12.7640	0	32.3450	0	24.384	0	6.842	0	-1e10	8	-1e10	8	-1E+10	1	-1E+10	1	-1E+10	1	-1E+10	1	-1E+10	1	-1E+10	1
4902554	99	C	11/05/2023	12:05	-133.542	47.803	0	7.90	0	12.7640	0	32.3450	0	24.384	0	7.834	0	-1e10	8	-1e10	8	-1E+10	1	-1E+10	1	-1E+10	1	-1E+10	1	-1E+10	1	-1E+10	1
4902554	99	C	11/05/2023	12:05	-133.542	47.803	0	9.00	0	12.7640	0	32.3450	0	24.384	0	8.924	0	-1e10	8	-1e10	8	-1E+10	1	-1E+10	1	-1E+10	1	-1E+10	1	-1E+10	1	-1E+10	1
4902554	99	C	11/05/2023	12:05	-133.542	47.803	0	10.00	0	12.7640	0	32.3450	0	24.384	0	9.916	0	-1e10	8	-1e10	8	-1E+10	1	-1E+10	1	-1E+10	1	-1E+10	1	-1E+10	1	-1E+10	1
4902554	99	C	11/05/2023	12:05	-133.542	47.803	0	11.00	0	12.7640	0	32.3450	0	24.384	0	10.908	0	-1e10	8	-1e10	8	-1E+10	1	-1E+10	1	-1E+10	1	-1E+10	1	-1E+10	1	-1E+10	1
4902554	99	C	11/05/2023	12:05	-133.542	47.803	0	12.10	0	12.7660	0	32.3450	0	24.383	0	11.998	0	-1e10	8	-1e10	8	-1E+10	1	-1E+10	1	-1E+10	1	-1E+10	1	-1E+10	1	-1E+10	1
4902554	99	C	11/05/2023	12:05	-133.542	47.803	0	12.90	0	12.7660	0	32.3450	0	24.383	0	12.792	0	-1e10	8	-1e10	8	-1E+10	1	-1E+10	1	-1E+10	1	-1E+10	1	-1E+10	1	-1E+10	1
4902554	99	C	11/05/2023	12:05	-133.542	47.803	0	13.80	0	12.7660	0	32.3450	0	24.383	0	13.684	0	-1e10	8	-1e10	8	-1E+10	1	-1E+10	1	-1E+10	1	-1E+10	1	-1E+10	1	-1E+10	1
4902554	99	C	11/05/2023	12:05	-133.542	47.803	0	14.90	0	12.7650	0	32.3440	0	24.383	0	14.775	0	-1e10	8	-1e10	8	-1E+10	1	-1E+10	1	-1E+10	1	-1E+10	1	-1E+10	1	-1E+10	1
4902554	99	C	11/05/2023	12:05	-133.542	47.803	0	16.00	0	12.7660	0	32.3450	0	24.383	0	15.865	0	-1e10	8	-1e10	8	-1E+10	1	-1E+10	1	-1E+10	1	-1E+10	1	-1E+10	1	-1E+10	1
4902554	99	C	11/05/2023	12:05	-133.542	47.803	0	16.90	0	12.7660	0	32.3450	0	24.383	0	16.758	0	-1e10	8	-1e10	8	-1E+10	1	-1E+10	1	-1E+10	1	-1E+10	1	-1E+10	1	-1E+10	1
4902554	99	C	11/05/2023	12:05	-133.542	47.803	0	17.80	0	12.7660	0	32.3450	0	24.383	0	17.650	0	-1e10	8	-1e10	8	-1E+10	1	-1E+10	1	-1E+10	1	-1E+10	1	-1E+10	1	-1E+10	1
4902554	99	C	11/05/2023	12:05	-133.542	47.803	0	18.90	0	12.7660	0	32.3450	0	24.383	0	18.741	0	-1e10	8	-1e10	8	-1E+10	1	-1E+10	1	-1E+10	1	-1E+10	1	-1E+10	1	-1E+10	1
4902554	99	C	11/05/2023	12:05	-133.542	47.803	0	19.80	0	12.7660	0	32.3450	0	24.383	0	19.633	0	-1e10	8	-1e10	8	-1E+10	1	-1E+10	1	-1E+10	1	-1E+10	1	-1E+10	1	-1E+10	1
4902554	99	C	11/05/2023	12:05	-133.542	47.803	0	20.90	0	12.7650	0	32.3460	0	24.384	0	20.724	0	-1e10	8	-1e10	8	-1E+10	1	-1E+10	1	-1E+10	1	-1E+10	1	-1E+10	1	-1E+10	1
4902554	99	C	11/05/2023	12:05	-133.542	47.803	0	21.90	0	12.7660	0	32.3450	0	24.384	0	21.715	0	-1e10	8	-1e10	8	-1E+10	1	-1E+10	1	-1E+10	1	-1E+10	1	-1E+10	1	-1E+10	1
4902554	99	C	11/05/2023	12:05	-133.542	47.803	0	22.90	0	12.7660	0	32.3460	0	24.384	0	22.707	0	-1e10	8	-1e10	8	-1E+10	1	-1E+10	1	-1E+10	1	-1E+10	1	-1E+10	1	-1E+10	1
4902554	99	C	11/05/2023	12:05	-133.542	47.803	0	23.80	0	12.7660	0	32.3450	0	24.384	0	23.599	0	-1e10	8	-1e10	8	-1E+10	1	-1E+10	1	-1E+10	1	-1E+10	1	-1E+10	1	-1E+10	1
4902554	99	C	11/05/2023	12:05	-133.542	47.803	0	25.00	0	12.7660	0	32.3450	0	24.384	0	24.789	0	-1e10	8	-1e10	8	-1E+10	1	-1E+10	1	-1E+10	1	-1E+10	1	-1E+10	1	-1E+10	1
4902554	99	C	11/05/2023	12:05	-133.542	47.803	0	26.00	0	12.7660	0	32.3460	0	24.384	0	25.781	0	-1e10	8	-1e10	8	-1E+10	1	-1E+10	1	-1E+10	1	-1E+10	1	-1E+10	1	-1E+10	1
4902554	99	C	11/05/2023	12:05	-133.542	47.803	0	26.90	0	12.7660	0	32.3460	0	24.384	0	26.673	0	-1e10	8	-1e10	8	-1E+10	1	-1E+10	1	-1E+10	1	-1E+10	1	-1E+10	1	-1E+10	1
4902554	99	C	11/05/2023	12:05	-133.542	47.803	0	27.90	0	12.7660	0	32.3460	0	24.384	0	27.665	0	-1e10	8	-1e10	8	-1E+10	1	-1E+10	1	-1E+10	1	-1E+10	1	-1E+10	1	-1E+10	1
4902554	99	C	11/05/2023	12:05	-133.542	47.803	0	28.90	0	12.7660	0	32.3460	0	24.384	0	28.656	0	-1e10	8	-1e10	8	-1E+10	1	-1E+10	1	-1E+10	1	-1E+10	1	-1E+10	1	-1E+10	1
4902554	99	C	11/05/2023	12:05	-133.542	47.803	0	29.90	0	12.7660	0	32.3460	0	24.384	0	29.647	0	-1e10	8	-1e10	8	-1E+10	1	-1E+10	1	-1E+10	1	-1E+10	1	-1E+10	1	-1E+10	1
4902554	99	C	11/05/2023	12:05	-133.542	47.803	0	30.80	0	12.7660	0	32.3450	0	24.384	0	30.540	0	-1e10	8	-1e10	8	-1E+10	1	-1E+10	1	-1E+10	1	-1E+10	1	-1E+10	1	-1E+10	1
4902554	99	C	11/05/2023	12:05	-133.542	47.803	0	31.80	0	12.7660	0	32.3450	0	24.384	0	31.531	0	-1e10	8	-1e10	8	-1E+10	1	-1E+10	1	-1E+10	1	-1E+10	1	-1E+10	1	-1E+10	1
4902554	99	C	11/05/2023	12:05	-133.542	47.803	0	32.80	0	12.7660	0	32.3460	0	24.385	0	32.523	0	-1e10	8	-1e10	8	-1E+10	1	-1E+10	1	-1E+10	1	-1E+10	1	-1E+10	1	-1E+10	1
4902554	99	C	11/05/2023	12:05	-133.542	47.803	0	33.80	0	12.7670	0	32.3450	0	24.384	0	33.514	0	-1e10	8	-1e10	8	-1E+10	1	-1E+10	1	-1E+10	1	-1E+10	1	-1E+10	1	-1E+10	1
4902554	99	C	11/05/2023	12:05	-133.542	47.803	0	34.80	0	12.7660	0	32.3460	0	24.385	0	34.506	0	-1e10	8	-1e10	8	-1E+10	1	-1E+10	1	-1E+10	1	-1E+10	1	-1E+10	1	-1E+10	1
4902554	99	C	11/05/2023	12:05	-133.542	47.803	0	36.10	0	12.7660	0	32.3460	0	24.385	0	35.795	0	-1e10	8	-1e10	8	-1E+10	1	-1E+10	1	-1E+10	1	-1E+10	1	-1E+10	1	-1E+10	1
4902554	99	C	11/05/2023	12:05	-133.542	47.803	0	37.00	0	12.7650	0	32.3460	0	24.385	0	36.687	0	-1e10	8	-1e10	8	-1E+10	1	-1E+10	1	-1E+10	1	-1E+10	1	-1E+10	1	-1E+10	1
4902554	99	C	11/05/2023	12:05	-133.542	47.803	0	38.00	0	12.7650	0	32.3450	0	24.384	0	37.678	0	-1e10	8	-1e10	8	-1E+10	1	-1E+10	1	-1E+10	1	-1E+10	1	-1E+10	1	-1E+10	1
4902554	99	C	11/05/2023	12:05	-133.542	47.803	0	39.00	0	12.7660	0	32.3450	0	24.384	0	38.670	0	-1e10	8	-1e10	8	-1E+10	1	-1E+10	1	-1E+10	1	-1E+10	1	-1E+10	1	-1E+10	1
4902554	99	C	11/05/2023	12:05	-133.542	47.803	0	39.90	0	12.7640	0	32.3450	0	24.384	0	39.562	0	-1e10	8	-1e10	8	-1E+10	1	-1E+10	1	-1E+10	1	-1E+10	1	-1E+10	1	-1E+10	1
4902554	99	C	11/05/2023	12:05	-133.542	47.803	0	41.10	0	12.7620	0	32.3450	0	24.385	0	40.752	0	-1e10	8	-1e10	8	-1E+10	1	-1E+10	1	-1E+10	1	-1E+10	1	-1E+10	1	-1E+10	1
4902554	99	C	11/05/2023	12:05	-133.542	47.803	0	42.00	0	12.7600	0	32.3460	0	24.386	0	41.644	0	-1e10	8	-1e10	8	-1E+10	1	-1E+10	1	-1E+10	1	-1E+10	1	-1E+10	1	-1E+10	1
4902554	99	C	11/05/2023	12:05	-133.542	47.803	0	42.80	0	12.7630	0	32.3450	0	24.385	0	42.437	0	-1e10	8	-1e10	8	-1E+10	1	-1E+10	1	-1E+10	1	-1E+10	1	-1E+10	1	-1E+10	1
4902554	99	C	11/05/2023	12:05	-133.542	47.803	0	44.00	0	12.7650	0	32.3450	0	24.384	0	43.627	0	-1e10	8	-1e10	8	-1E+10	1	-1E+10	1	-1E+10	1	-1E+10	1	-1E+10	1	-1E+10	1
4902554	99	C	11/05/2023	12:05	-133.542	47.803	0	45.10	0	12.7610	0	32.3450	0	24.385	0	44.717	0	-1e10	8	-1e10	8	-1E+10	1	-1E+10	1	-1E+10	1	-1E+10	1	-1E+10	1	-1E+10	1
4902554	99	C	11/05/2023	12:05	-133.542	47.803	0	46.00	0	12.7560	0	32.3440	0	24.385	0	45.610	0	-1e10	8	-1e10	8	-1E+10	1	-1E+10	1	-1E+10	1	-1E+10	1	-1E+10	1	-1E+10	1
4902554	99	C	11/05/2023	12:05	-133.542	47.803	0	46.80	0	12.7550	0	32.3440	0	24.386	0	46.403	0	-1e10	8	-1e10	8	-1E+10	1	-1E+10	1	-1E+10	1	-1E+10	1	-1E+10	1	-1E+10	1
4902554	99	C	11/05/2023	12:05	-133.542	47.803	0	47.80	0	12.7370	0	32.3430	0	24.388	0	47.394	0	-1e10	8	-1e10	8	-1E+10	1	-1E+10	1	-1E+10	1	-1E+10	1	-1E+10	1	-1E+10	1
4902554	99	C	11/05/2023	12:05	-133.542	47.803	0	49.00	0	12.6860	0	32.3640	0	24.414	0	48.584	0	-1e10	8	-1e10	8	-1E+10	1	-1E+10	1	-1E+10	1	-1E+10	1	-1E+10	1	-1E+10	1
4902554	99	C	11/05/2023	12:05	-133.542	47.803	0	50.10	0	12.6280	0	32.3390	0	24.406	0	49.674	0	-1e10	8	-1e10	8	-1E+10	1	-1E+10	1	-1E+10	1	-1E+10	1	-1E+10	1	-1E+10	1
4902554	99	C	11/05/2023	12:05	-133.542	47.803	0	51.40	0	11.7820	0	32.3650	0	24.585	0	50.963	0	-1e10	8	-1e10	8	-1E+10	1	-1E+10	1	-1E+10	1	-1E+10	1	-1E+10	1	-1E+10	1
4902554	99	C	11/05/2023	12:05	-133.542	47.803	0	52.20	0	11.6430	0	32.3580	0	24.605	0	51.756	0	-1e10	8	-1e10	8	-1E+10	1	-1E+10	1	-1E+10	1	-1E+10	1	-1E+10	1	-1E+10	1
4902554	99	C	11/05/2023	12:05	-133.542	47.803	0	53.00	0	11.3730	0	32.3600	0	24.656	0	52.549	0	-1e10	8	-1e10	8	-1E+10	1	-1E+10	1	-1E+10	1	-1E+10	1	-1E+10	1	-1E+10	1
4902554	99	C	11/05/2023	12:05	-133.542	47.803	0	54.00	0	10.8450	0	32.3820	0	24.766	0	53.541	0	-1e10	8	-1e10	8	-1E+10	1	-1E+10	1	-1E+10	1	-1E+10	1	-1E+10	1	-1E+10	1
4902554	99	C	11/05/2023	12:05	-133.542	47.803	0	55.10	0	9.2790	0	32.4590	0	25.086	0	54.631	0	-1e10	8	-1e10	8	-1E+10	1	-1E+10	1	-1E+10	1	-1E+10	1	-1E+10	1	-1E+10	1
4902554	99	C	11/05/2023	12:05	-133.542	47.803	0	56.00	0	8.6060	0	32.4990	0	25.222	0	55.524	0	-1e10	8	-1e10	8	-1E+10	1	-1E+10	1	-1E+10	1	-1E+10	1	-1E+10	1	-1E+10	1
4902554	99	C	11/05/2023	12:05	-133.542	47.803	0	57.10	0	8.3870	0	32.4940	0	25.251	0	56.614	0	-1e10	8	-1e10	8	-1E+10	1	-1E+10	1	-1E+10	1	-1E+10	1	-1E+10	1	-1E+10	1
4902554	99	C	11/05/2023	12:05	-133.542	47.803	0	57.90	0	8.2790	0	32.5010	0	25.272	0	57.407	0	-1e10	8	-1e10	8	-1E+10	1	-1E+10	1	-1E+10	1	-1E+10	1	-1E+10	1	-1E+10	1
4902554	99	C	11/05/2023	12:05	-133.542	47.803	0	59.20	0	8.1160	0	32.5130	0	25.305	0	58.696	0	-1e10	8	-1e10	8	-1E+10	1	-1E+10	1	-1E+10	1	-1E+10	1	-1E+10	1	-1E+10	1
4902554	99	C	11/05/2023	12:05	-133.542	47.803	0	59.90	0	8.0970	0	32.5140	0	25.309	0	59.390	0	-1e10	8	-1e10	8	-1E+10	1	-1E+10	1	-1E+10	1	-1E+10	1	-1E+10	1	-1E+10	1
4902554	99	C	11/05/2023	12:05	-133.542	47.803	0	60.90	0	8.0480	0	32.5170	0	25.318	0	60.381	0	-1e10	8	-1e10	8	-1E+10	1	-1E+10	1	-1E+10	1	-1E+10	1	-1E+10	1	-1E+10	1
4902554	99	C	11/05/2023	12:05	-133.542	47.803	0	61.90	0	8.0330	0	32.5190	0	25.322	0	61.372	0	-1e10	8	-1e10	8	-1E+10	1	-1E+10	1	-1E+10	1	-1E+10	1	-1E+10	1	-1E+10	1
4902554	99	C	11/05/2023	12:05	-133.542	47.803	0	62.90	0	8.0150	0	32.5220	0	25.327	0	62.364	0	-1e10	8	-1e10	8	-1E+10	1	-1E+10	1	-1E+10	1	-1E+10	1	-1E+10	1	-1E+10	1
4902554	99	C	11/05/2023	12:05	-133.542	47.803	0	63.90	0	7.9950	0	32.5230	0	25.331	0	63.355	0	-1e10	8	-1e10	8	-1E+10	1	-1E+10	1	-1E+10	1	-1E+10	1	-1E+10	1	-1E+10	1
4902554	99	C	11/05/2023	12:05	-133.542	47.803	0	64.90	0	7.9770	0	32.5210	0	25.332	0	64.346	0	-1e10	8	-1e10	8	-1E+10	1	-1E+10	1	-1E+10	1	-1E+10	1	-1E+10	1	-1E+10	1
4902554	99	C	11/05/2023	12:05	-133.542	47.803	0	65.90	0	7.9450	0	32.5170	0	25.333	0	65.338	0	-1e10	8	-1e10	8	-1E+10	1	-1E+10	1	-1E+10	1	-1E+10	1	-1E+10	1	-1E+10	1
4902554	99	C	11/05/2023	12:05	-133.542	47.803	0	66.90	0	7.8300	0	32.5040	0	25.340	0	66.329	0	-1e10	8	-1e10	8	-1E+10	1	-1E+10	1	-1E+10	1	-1E+10	1	-1E+10	1	-1E+10	1
4902554	99	C	11/05/2023	12:05	-133.542	47.803	0	67.90	0	7.7620	0	32.4970	0	25.344	0	67.320	0	-1e10	8	-1e10	8	-1E+10	1	-1E+10	1	-1E+10	1	-1E+10	1	-1E+10	1	-1E+10	1
4902554	99	C	11/05/2023	12:05	-133.542	47.803	0	69.10	0	7.7320	0	32.4950	0	25.346	0	68.510	0	-1e10	8	-1e10	8	-1E+10	1	-1E+10	1	-1E+10	1	-1E+10	1	-1E+10	1	-1E+10	1
4902554	99	C	11/05/2023	12:05	-133.542	47.803	0	69.90	0	7.7230	0	32.4960	0	25.349	0	69.303	0	-1e10	8	-1e10	8	-1E+10	1	-1E+10	1	-1E+10	1	-1E+10	1	-1E+10	1	-1E+10	1
4902554	99	C	11/05/2023	12:05	-133.542	47.803	0	71.20	0	7.6770	0	32.4950	0	25.354	0	70.592	0	-1e10	8	-1e10	8	-1E+10	1	-1E+10	1	-1E+10	1	-1E+10	1	-1E+10	1	-1E+10	1
4902554	99	C	11/05/2023	12:05	-133.542	47.803	0	72.00	0	7.6520	0	32.4960	0	25.359	0	71.385	0	-1e10	8	-1e10	8	-1E+10	1	-1E+10	1	-1E+10	1	-1E+10	1	-1E+10	1	-1E+10	1
4902554	99	C	11/05/2023	12:05	-133.542	47.803	0	73.30	0	7.6500	0	32.5010	0	25.363	0	72.673	0	-1e10	8	-1e10	8	-1E+10	1	-1E+10	1	-1E+10	1	-1E+10	1	-1E+10	1	-1E+10	1
4902554	99	C	11/05/2023	12:05	-133.542	47.803	0	74.00	0	7.6500	0	32.5020	0	25.364	0	73.367	0	-1e10	8	-1e10	8	-1E+10	1	-1E+10	1	-1E+10	1	-1E+10	1	-1E+10	1	-1E+10	1
4902554	99	C	11/05/2023	12:05	-133.542	47.803	0	75.20	0	7.6430	0	32.5060	0	25.368	0	74.557	0	-1e10	8	-1e10	8	-1E+10	1	-1E+10	1	-1E+10	1	-1E+10	1	-1E+10	1	-1E+10	1
4902554	99	C	11/05/2023	12:05	-133.542	47.803	0	76.00	0	7.6290	0	32.5060	0	25.370	0	75.350	0	-1e10	8	-1e10	8	-1E+10	1	-1E+10	1	-1E+10	1	-1E+10	1	-1E+10	1	-1E+10	1
4902554	99	C	11/05/2023	12:05	-133.542	47.803	0	77.20	0	7.6200	0	32.5100	0	25.374	0	76.539	0	-1e10	8	-1e10	8	-1E+10	1	-1E+10	1	-1E+10	1	-1E+10	1	-1E+10	1	-1E+10	1
4902554	99	C	11/05/2023	12:05	-133.542	47.803	0	78.10	0	7.6130	0	32.5140	0	25.378	0	77.431	0	-1e10	8	-1e10	8	-1E+10	1	-1E+10	1	-1E+10	1	-1E+10	1	-1E+10	1	-1E+10	1
4902554	99	C	11/05/2023	12:05	-133.542	47.803	0	78.90	0	7.6120	0	32.5140	0	25.378	0	78.224	0	-1e10	8	-1e10	8	-1E+10	1	-1E+10	1	-1E+10	1	-1E+10	1	-1E+10	1	-1E+10	1
4902554	99	C	11/05/2023	12:05	-133.542	47.803	0	80.20	0	7.6080	0	32.5160	0	25.381	0	79.513	0	-1e10	8	-1e10	8	-1E+10	1	-1E+10	1	-1E+10	1	-1E+10	1	-1E+10	1	-1E+10	1
4902554	99	C	11/05/2023	12:05	-133.542	47.803	0	80.90	0	7.5590	0	32.5200	0	25.391	0	80.207	0	-1e10	8	-1e10	8	-1E+10	1	-1E+10	1	-1E+10	1	-1E+10	1	-1E+10	1	-1E+10	1
4902554	99	C	11/05/2023	12:05	-133.542	47.803	0	81.80	0	7.5250	0	32.5190	0	25.395	0	81.099	0	-1e10	8	-1e10	8	-1E+10	1	-1E+10	1	-1E+10	1	-1E+10	1	-1E+10	1	-1E+10	1
4902554	99	C	11/05/2023	12:05	-133.542	47.803	0	82.80	0	7.5040	0	32.5190	0	25.397	0	82.090	0	-1e10	8	-1e10	8	-1E+10	1	-1E+10	1	-1E+10	1	-1E+10	1	-1E+10	1	-1E+10	1
4902554	99	C	11/05/2023	12:05	-133.542	47.803	0	83.80	0	7.4700	0	32.5180	0	25.401	0	83.081	0	-1e10	8	-1e10	8	-1E+10	1	-1E+10	1	-1E+10	1	-1E+10	1	-1E+10	1	-1E+10	1
4902554	99	C	11/05/2023	12:05	-133.542	47.803	0	84.80	0	7.4480	0	32.5170	0	25.404	0	84.073	0	-1e10	8	-1e10	8	-1E+10	1	-1E+10	1	-1E+10	1	-1E+10	1	-1E+10	1	-1E+10	1
4902554	99	C	11/05/2023	12:05	-133.542	47.803	0	85.90	0	7.4310	0	32.5170	0	25.406	0	85.163	0	-1e10	8	-1e10	8	-1E+10	1	-1E+10	1	-1E+10	1	-1E+10	1	-1E+10	1	-1E+10	1
4902554	99	C	11/05/2023	12:05	-133.542	47.803	0	87.00	0	7.4340	0	32.5210	0	25.409	0	86.253	0	-1e10	8	-1e10	8	-1E+10	1	-1E+10	1	-1E+10	1	-1E+10	1	-1E+10	1	-1E+10	1
4902554	99	C	11/05/2023	12:05	-133.542	47.803	0	88.10	0	7.4230	0	32.5260	0	25.414	0	87.344	0	-1e10	8	-1e10	8	-1E+10	1	-1E+10	1	-1E+10	1	-1E+10	1	-1E+10	1	-1E+10	1
4902554	99	C	11/05/2023	12:05	-133.542	47.803	0	88.90	0	7.4050	0	32.5260	0	25.417	0	88.137	0	-1e10	8	-1e10	8	-1E+10	1	-1E+10	1	-1E+10	1	-1E+10	1	-1E+10	1	-1E+10	1
4902554	99	C	11/05/2023	12:05	-133.542	47.803	0	89.80	0	7.4010	0	32.5270	0	25.418	0	89.029	0	-1e10	8	-1e10	8	-1E+10	1	-1E+10	1	-1E+10	1	-1E+10	1	-1E+10	1	-1E+10	1
4902554	99	C	11/05/2023	12:05	-133.542	47.803	0	90.90	0	7.4190	0	32.5270	0	25.416	0	90.119	0	-1e10	8	-1e10	8	-1E+10	1	-1E+10	1	-1E+10	1	-1E+10	1	-1E+10	1	-1E+10	1
4902554	99	C	11/05/2023	12:05	-133.542	47.803	0	92.10	0	7.4260	0	32.5370	0	25.423	0	91.308	0	-1e10	8	-1e10	8	-1E+10	1	-1E+10	1	-1E+10	1	-1E+10	1	-1E+10	1	-1E+10	1
4902554	99	C	11/05/2023	12:05	-133.542	47.803	0	92.90	0	7.4350	0	32.5470	0	25.429	0	92.101	0	-1e10	8	-1e10	8	-1E+10	1	-1E+10	1	-1E+10	1	-1E+10	1	-1E+10	1	-1E+10	1
4902554	99	C	11/05/2023	12:05	-133.542	47.803	0	93.80	0	7.4330	0	32.5510	0	25.433	0	92.993	0	-1e10	8	-1e10	8	-1E+10	1	-1E+10	1	-1E+10	1	-1E+10	1	-1E+10	1	-1E+10	1
4902554	99	C	11/05/2023	12:05	-133.542	47.803	0	94.90	0	7.4280	0	32.5550	0	25.436	0	94.084	0	-1e10	8	-1e10	8	-1E+10	1	-1E+10	1	-1E+10	1	-1E+10	1	-1E+10	1	-1E+10	1
4902554	99	C	11/05/2023	12:05	-133.542	47.803	0	96.10	0	7.4170	0	32.5620	0	25.443	0	95.273	0	-1e10	8	-1e10	8	-1E+10	1	-1E+10	1	-1E+10	1	-1E+10	1	-1E+10	1	-1E+10	1
4902554	99	C	11/05/2023	12:05	-133.542	47.803	0	97.10	0	7.4120	0	32.5650	0	25.447	0	96.264	0	-1e10	8	-1e10	8	-1E+10	1	-1E+10	1	-1E+10	1	-1E+10	1	-1E+10	1	-1E+10	1
4902554	99	C	11/05/2023	12:05	-133.542	47.803	0	98.00	0	7.3910	0	32.5780	0	25.460	0	97.156	0	-1e10	8	-1e10	8	-1E+10	1	-1E+10	1	-1E+10	1	-1E+10	1	-1E+10	1	-1E+10	1
4902554	99	C	11/05/2023	12:05	-133.542	47.803	0	98.80	0	7.3740	0	32.5910	0	25.472	0	97.949	0	-1e10	8	-1e10	8	-1E+10	1	-1E+10	1	-1E+10	1	-1E+10	1	-1E+10	1	-1E+10	1
4902554	99	C	11/05/2023	12:05	-133.542	47.803	0	100.00	0	7.3530	0	32.6050	0	25.486	0	99.139	0	-1e10	8	-1e10	8	-1E+10	1	-1E+10	1	-1E+10	1	-1E+10	1	-1E+10	1	-1E+10	1
4902554	99	C	11/05/2023	12:05	-133.542	47.803	0	101.10	0	7.3350	0	32.6130	0	25.495	0	100.229	0	-1e10	8	-1e10	8	-1E+10	1	-1E+10	1	-1E+10	1	-1E+10	1	-1E+10	1	-1E+10	1
4902554	99	C	11/05/2023	12:05	-133.542	47.803	0	102.00	0	7.3260	0	32.6200	0	25.502	0	101.121	0	-1e10	8	-1e10	8	-1E+10	1	-1E+10	1	-1E+10	1	-1E+10	1	-1E+10	1	-1E+10	1
4902554	99	C	11/05/2023	12:05	-133.542	47.803	0	102.70	0	7.3230	0	32.6220	0	25.504	0	101.815	0	-1e10	8	-1e10	8	-1E+10	1	-1E+10	1	-1E+10	1	-1E+10	1	-1E+10	1	-1E+10	1
4902554	99	C	11/05/2023	12:05	-133.542	47.803	0	103.80	0	7.3010	0	32.6340	0	25.516	0	102.905	0	-1e10	8	-1e10	8	-1E+10	1	-1E+10	1	-1E+10	1	-1E+10	1	-1E+10	1	-1E+10	1
4902554	99	C	11/05/2023	12:05	-133.542	47.803	0	104.80	0	7.2870	0	32.6400	0	25.523	0	103.896	0	-1e10	8	-1e10	8	-1E+10	1	-1E+10	1	-1E+10	1	-1E+10	1	-1E+10	1	-1E+10	1
4902554	99	C	11/05/2023	12:05	-133.542	47.803	0	105.80	0	7.2750	0	32.6470	0	25.530	0	104.887	0	-1e10	8	-1e10	8	-1E+10	1	-1E+10	1	-1E+10	1	-1E+10	1	-1E+10	1	-1E+10	1
4902554	99	C	11/05/2023	12:05	-133.542	47.803	0	106.90	0	7.2660	0	32.6550	0	25.537	0	105.977	0	-1e10	8	-1e10	8	-1E+10	1	-1E+10	1	-1E+10	1	-1E+10	1	-1E+10	1	-1E+10	1
4902554	99	C	11/05/2023	12:05	-133.542	47.803	0	107.80	0	7.2540	0	32.6660	0	25.548	0	106.869	0	-1e10	8	-1e10	8	-1E+10	1	-1E+10	1	-1E+10	1	-1E+10	1	-1E+10	1	-1E+10	1
4902554	99	C	11/05/2023	12:05	-133.542	47.803	0	108.90	0	7.2170	0	32.6840	0	25.567	0	107.960	0	-1e10	8	-1e10	8	-1E+10	1	-1E+10	1	-1E+10	1	-1E+10	1	-1E+10	1	-1E+10	1
4902554	99	C	11/05/2023	12:05	-133.542	47.803	0	110.10	0	7.1170	0	32.7370	0	25.622	0	109.149	0	-1e10	8	-1e10	8	-1E+10	1	-1E+10	1	-1E+10	1	-1E+10	1	-1E+10	1	-1E+10	1
4902554	99	C	11/05/2023	12:05	-133.542	47.803	0	110.90	0	7.0990	0	32.7470	0	25.633	0	109.942	0	-1e10	8	-1e10	8	-1E+10	1	-1E+10	1	-1E+10	1	-1E+10	1	-1E+10	1	-1E+10	1
4902554	99	C	11/05/2023	12:05	-133.542	47.803	0	111.80	0	7.0920	0	32.7500	0	25.636	0	110.834	0	-1e10	8	-1e10	8	-1E+10	1	-1E+10	1	-1E+10	1	-1E+10	1	-1E+10	1	-1E+10	1
4902554	99	C	11/05/2023	12:05	-133.542	47.803	0	112.80	0	7.0870	0	32.7520	0	25.638	0	111.825	0	-1e10	8	-1e10	8	-1E+10	1	-1E+10	1	-1E+10	1	-1E+10	1	-1E+10	1	-1E+10	1
4902554	99	C	11/05/2023	12:05	-133.542	47.803	0	114.00	0	7.0570	0	32.7610	0	25.649	0	113.014	0	-1e10	8	-1e10	8	-1E+10	1	-1E+10	1	-1E+10	1	-1E+10	1	-1E+10	1	-1E+10	1
4902554	99	C	11/05/2023	12:05	-133.542	47.803	0	115.10	0	6.9290	0	32.8060	0	25.702	0	114.104	0	-1e10	8	-1e10	8	-1E+10	1	-1E+10	1	-1E+10	1	-1E+10	1	-1E+10	1	-1E+10	1
4902554	99	C	11/05/2023	12:05	-133.542	47.803	0	116.00	0	6.8990	0	32.8160	0	25.714	0	114.996	0	-1e10	8	-1e10	8	-1E+10	1	-1E+10	1	-1E+10	1	-1E+10	1	-1E+10	1	-1E+10	1
4902554	99	C	11/05/2023	12:05	-133.542	47.803	0	116.90	0	6.8890	0	32.8190	0	25.717	0	115.888	0	-1e10	8	-1e10	8	-1E+10	1	-1E+10	1	-1E+10	1	-1E+10	1	-1E+10	1	-1E+10	1
4902554	99	C	11/05/2023	12:05	-133.542	47.803	0	118.00	0	6.8600	0	32.8290	0	25.729	0	116.978	0	-1e10	8	-1e10	8	-1E+10	1	-1E+10	1	-1E+10	1	-1E+10	1	-1E+10	1	-1E+10	1
4902554	99	C	11/05/2023	12:05	-133.542	47.803	0	119.10	0	6.7040	0	32.9080	0	25.812	0	118.069	0	-1e10	8	-1e10	8	-1E+10	1	-1E+10	1	-1E+10	1	-1E+10	1	-1E+10	1	-1E+10	1
4902554	99	C	11/05/2023	12:05	-133.542	47.803	0	120.10	0	6.5930	0	32.9670	0	25.873	0	119.060	0	-1e10	8	-1e10	8	-1E+10	1	-1E+10	1	-1E+10	1	-1E+10	1	-1E+10	1	-1E+10	1
4902554	99	C	11/05/2023	12:05	-133.542	47.803	0	120.90	0	6.5390	0	32.9990	0	25.905	0	119.853	0	-1e10	8	-1e10	8	-1E+10	1	-1E+10	1	-1E+10	1	-1E+10	1	-1E+10	1	-1E+10	1
4902554	99	C	11/05/2023	12:05	-133.542	47.803	0	121.70	0	6.4860	0	33.0320	0	25.938	0	120.645	0	-1e10	8	-1e10	8	-1E+10	1	-1E+10	1	-1E+10	1	-1E+10	1	-1E+10	1	-1E+10	1
4902554	99	C	11/05/2023	12:05	-133.542	47.803	0	122.90	0	6.4500	0	33.0520	0	25.958	0	121.835	0	-1e10	8	-1e10	8	-1E+10	1	-1E+10	1	-1E+10	1	-1E+10	1	-1E+10	1	-1E+10	1
4902554	99	C	11/05/2023	12:05	-133.542	47.803	0	124.10	0	6.3820	0	33.0890	0	25.996	0	123.024	0	-1e10	8	-1e10	8	-1E+10	1	-1E+10	1	-1E+10	1	-1E+10	1	-1E+10	1	-1E+10	1
4902554	99	C	11/05/2023	12:05	-133.542	47.803	0	125.00	0	6.3440	0	33.1050	0	26.014	0	123.916	0	-1e10	8	-1e10	8	-1E+10	1	-1E+10	1	-1E+10	1	-1E+10	1	-1E+10	1	-1E+10	1
4902554	99	C	11/05/2023	12:05	-133.542	47.803	0	125.90	0	6.3240	0	33.1140	0	26.023	0	124.808	0	-1e10	8	-1e10	8	-1E+10	1	-1E+10	1	-1E+10	1	-1E+10	1	-1E+10	1	-1E+10	1
4902554	99	C	11/05/2023	12:05	-133.542	47.803	0	126.90	0	6.2980	0	33.1300	0	26.039	0	125.799	0	-1e10	8	-1e10	8	-1E+10	1	-1E+10	1	-1E+10	1	-1E+10	1	-1E+10	1	-1E+10	1
4902554	99	C	11/05/2023	12:05	-133.542	47.803	0	127.90	0	6.2690	0	33.1590	0	26.066	0	126.790	0	-1e10	8	-1e10	8	-1E+10	1	-1E+10	1	-1E+10	1	-1E+10	1	-1E+10	1	-1E+10	1
4902554	99	C	11/05/2023	12:05	-133.542	47.803	0	129.00	0	6.2060	0	33.2020	0	26.108	0	127.880	0	-1e10	8	-1e10	8	-1E+10	1	-1E+10	1	-1E+10	1	-1E+10	1	-1E+10	1	-1E+10	1
4902554	99	C	11/05/2023	12:05	-133.542	47.803	0	130.00	0	6.1720	0	33.2200	0	26.126	0	128.871	0	-1e10	8	-1e10	8	-1E+10	1	-1E+10	1	-1E+10	1	-1E+10	1	-1E+10	1	-1E+10	1
4902554	99	C	11/05/2023	12:05	-133.542	47.803	0	131.20	0	6.1640	0	33.2240	0	26.130	0	130.060	0	-1e10	8	-1e10	8	-1E+10	1	-1E+10	1	-1E+10	1	-1E+10	1	-1E+10	1	-1E+10	1
4902554	99	C	11/05/2023	12:05	-133.542	47.803	0	131.90	0	6.1550	0	33.2280	0	26.135	0	130.754	0	-1e10	8	-1e10	8	-1E+10	1	-1E+10	1	-1E+10	1	-1E+10	1	-1E+10	1	-1E+10	1
4902554	99	C	11/05/2023	12:05	-133.542	47.803	0	133.00	0	6.1250	0	33.2450	0	26.152	0	131.844	0	-1e10	8	-1e10	8	-1E+10	1	-1E+10	1	-1E+10	1	-1E+10	1	-1E+10	1	-1E+10	1
4902554	99	C	11/05/2023	12:05	-133.542	47.803	0	134.20	0	6.0910	0	33.2630	0	26.170	0	133.033	0	-1e10	8	-1e10	8	-1E+10	1	-1E+10	1	-1E+10	1	-1E+10	1	-1E+10	1	-1E+10	1
4902554	99	C	11/05/2023	12:05	-133.542	47.803	0	135.00	0	6.0840	0	33.2670	0	26.174	0	133.826	0	-1e10	8	-1e10	8	-1E+10	1	-1E+10	1	-1E+10	1	-1E+10	1	-1E+10	1	-1E+10	1
4902554	99	C	11/05/2023	12:05	-133.542	47.803	0	135.70	0	6.0810	0	33.2670	0	26.175	0	134.519	0	-1e10	8	-1e10	8	-1E+10	1	-1E+10	1	-1E+10	1	-1E+10	1	-1E+10	1	-1E+10	1
4902554	99	C	11/05/2023	12:05	-133.542	47.803	0	137.00	0	6.0490	0	33.2830	0	26.191	0	135.808	0	-1e10	8	-1e10	8	-1E+10	1	-1E+10	1	-1E+10	1	-1E+10	1	-1E+10	1	-1E+10	1
4902554	99	C	11/05/2023	12:05	-133.542	47.803	0	138.20	0	6.0270	0	33.2950	0	26.204	0	136.997	0	-1e10	8	-1e10	8	-1E+10	1	-1E+10	1	-1E+10	1	-1E+10	1	-1E+10	1	-1E+10	1
4902554	99	C	11/05/2023	12:05	-133.542	47.803	0	139.00	0	6.0160	0	33.3010	0	26.210	0	137.790	0	-1e10	8	-1e10	8	-1E+10	1	-1E+10	1	-1E+10	1	-1E+10	1	-1E+10	1	-1E+10	1
4902554	99	C	11/05/2023	12:05	-133.542	47.803	0	139.90	0	6.0130	0	33.3030	0	26.212	0	138.682	0	-1e10	8	-1e10	8	-1E+10	1	-1E+10	1	-1E+10	1	-1E+10	1	-1E+10	1	-1E+10	1
4902554	99	C	11/05/2023	12:05	-133.542	47.803	0	140.80	0	6.0010	0	33.3110	0	26.220	0	139.573	0	-1e10	8	-1e10	8	-1E+10	1	-1E+10	1	-1E+10	1	-1E+10	1	-1E+10	1	-1E+10	1
4902554	99	C	11/05/2023	12:05	-133.542	47.803	0	141.60	0	5.9890	0	33.3180	0	26.227	0	140.366	0	-1e10	8	-1e10	8	-1E+10	1	-1E+10	1	-1E+10	1	-1E+10	1	-1E+10	1	-1E+10	1
4902554	99	C	11/05/2023	12:05	-133.542	47.803	0	142.90	0	5.9770	0	33.3250	0	26.234	0	141.654	0	-1e10	8	-1e10	8	-1E+10	1	-1E+10	1	-1E+10	1	-1E+10	1	-1E+10	1	-1E+10	1
4902554	99	C	11/05/2023	12:05	-133.542	47.803	0	144.40	0	5.9270	0	33.3590	0	26.267	0	143.141	0	-1e10	8	-1e10	8	-1E+10	1	-1E+10	1	-1E+10	1	-1E+10	1	-1E+10	1	-1E+10	1
4902554	99	C	11/05/2023	12:05	-133.542	47.803	0	145.30	0	5.9200	0	33.3630	0	26.271	0	144.033	0	-1e10	8	-1e10	8	-1E+10	1	-1E+10	1	-1E+10	1	-1E+10	1	-1E+10	1	-1E+10	1
4902554	99	C	11/05/2023	12:05	-133.542	47.803	0	146.30	0	5.9100	0	33.3730	0	26.280	0	145.024	0	-1e10	8	-1e10	8	-1E+10	1	-1E+10	1	-1E+10	1	-1E+10	1	-1E+10	1	-1E+10	1
4902554	99	C	11/05/2023	12:05	-133.542	47.803	0	147.20	0	5.8900	0	33.3850	0	26.292	0	145.915	0	-1e10	8	-1e10	8	-1E+10	1	-1E+10	1	-1E+10	1	-1E+10	1	-1E+10	1	-1E+10	1
4902554	99	C	11/05/2023	12:05	-133.542	47.803	0	148.10	0	5.8830	0	33.3900	0	26.297	0	146.807	0	-1e10	8	-1e10	8	-1E+10	1	-1E+10	1	-1E+10	1	-1E+10	1	-1E+10	1	-1E+10	1
4902554	99	C	11/05/2023	12:05	-133.542	47.803	0	149.10	0	5.8530	0	33.4160	0	26.321	0	147.798	0	-1e10	8	-1e10	8	-1E+10	1	-1E+10	1	-1E+10	1	-1E+10	1	-1E+10	1	-1E+10	1
4902554	99	C	11/05/2023	12:05	-133.542	47.803	0	150.00	0	5.8440	0	33.4310	0	26.334	0	148.690	0	-1e10	8	-1e10	8	-1E+10	1	-1E+10	1	-1E+10	1	-1E+10	1	-1E+10	1	-1E+10	1
4902554	99	C	11/05/2023	12:05	-133.542	47.803	0	151.00	0	5.8460	0	33.4370	0	26.338	0	149.681	0	-1e10	8	-1e10	8	-1E+10	1	-1E+10	1	-1E+10	1	-1E+10	1	-1E+10	1	-1E+10	1
4902554	99	C	11/05/2023	12:05	-133.542	47.803	0	151.90	0	5.8480	0	33.4420	0	26.342	0	150.573	0	-1e10	8	-1e10	8	-1E+10	1	-1E+10	1	-1E+10	1	-1E+10	1	-1E+10	1	-1E+10	1
4902554	99	C	11/05/2023	12:05	-133.542	47.803	0	152.80	0	5.8210	0	33.4540	0	26.355	0	151.464	0	-1e10	8	-1e10	8	-1E+10	1	-1E+10	1	-1E+10	1	-1E+10	1	-1E+10	1	-1E+10	1
4902554	99	C	11/05/2023	12:05	-133.542	47.803	0	153.80	0	5.8150	0	33.4610	0	26.361	0	152.455	0	-1e10	8	-1e10	8	-1E+10	1	-1E+10	1	-1E+10	1	-1E+10	1	-1E+10	1	-1E+10	1
4902554	99	C	11/05/2023	12:05	-133.542	47.803	0	154.70	0	5.8120	0	33.4650	0	26.365	0	153.347	0	-1e10	8	-1e10	8	-1E+10	1	-1E+10	1	-1E+10	1	-1E+10	1	-1E+10	1	-1E+10	1
4902554	99	C	11/05/2023	12:05	-133.542	47.803	0	155.60	0	5.8110	0	33.4660	0	26.366	0	154.239	0	-1e10	8	-1e10	8	-1E+10	1	-1E+10	1	-1E+10	1	-1E+10	1	-1E+10	1	-1E+10	1
4902554	99	C	11/05/2023	12:05	-133.542	47.803	0	156.90	0	5.8100	0	33.4660	0	26.366	0	155.527	0	-1e10	8	-1e10	8	-1E+10	1	-1E+10	1	-1E+10	1	-1E+10	1	-1E+10	1	-1E+10	1
4902554	99	C	11/05/2023	12:05	-133.542	47.803	0	158.30	0	5.7990	0	33.4750	0	26.374	0	156.914	0	-1e10	8	-1e10	8	-1E+10	1	-1E+10	1	-1E+10	1	-1E+10	1	-1E+10	1	-1E+10	1
4902554	99	C	11/05/2023	12:05	-133.542	47.803	0	159.20	0	5.7970	0	33.4760	0	26.375	0	157.806	0	-1e10	8	-1e10	8	-1E+10	1	-1E+10	1	-1E+10	1	-1E+10	1	-1E+10	1	-1E+10	1
4902554	99	C	11/05/2023	12:05	-133.542	47.803	0	160.10	0	5.7870	0	33.4860	0	26.384	0	158.698	0	-1e10	8	-1e10	8	-1E+10	1	-1E+10	1	-1E+10	1	-1E+10	1	-1E+10	1	-1E+10	1
4902554	99	C	11/05/2023	12:05	-133.542	47.803	0	161.00	0	5.7760	0	33.4980	0	26.395	0	159.590	0	-1e10	8	-1e10	8	-1E+10	1	-1E+10	1	-1E+10	1	-1E+10	1	-1E+10	1	-1E+10	1
4902554	99	C	11/05/2023	12:05	-133.542	47.803	0	162.00	0	5.7710	0	33.5030	0	26.400	0	160.580	0	-1e10	8	-1e10	8	-1E+10	1	-1E+10	1	-1E+10	1	-1E+10	1	-1E+10	1	-1E+10	1
4902554	99	C	11/05/2023	12:05	-133.542	47.803	0	162.90	0	5.7660	0	33.5080	0	26.404	0	161.472	0	-1e10	8	-1e10	8	-1E+10	1	-1E+10	1	-1E+10	1	-1E+10	1	-1E+10	1	-1E+10	1
4902554	99	C	11/05/2023	12:05	-133.542	47.803	0	163.80	0	5.7510	0	33.5240	0	26.419	0	162.364	0	-1e10	8	-1e10	8	-1E+10	1	-1E+10	1	-1E+10	1	-1E+10	1	-1E+10	1	-1E+10	1
4902554	99	C	11/05/2023	12:05	-133.542	47.803	0	164.70	0	5.7460	0	33.5320	0	26.426	0	163.256	0	-1e10	8	-1e10	8	-1E+10	1	-1E+10	1	-1E+10	1	-1E+10	1	-1E+10	1	-1E+10	1
4902554	99	C	11/05/2023	12:05	-133.542	47.803	0	165.60	0	5.7360	0	33.5450	0	26.437	0	164.147	0	-1e10	8	-1e10	8	-1E+10	1	-1E+10	1	-1E+10	1	-1E+10	1	-1E+10	1	-1E+10	1
4902554	99	C	11/05/2023	12:05	-133.542	47.803	0	166.60	0	5.7290	0	33.5590	0	26.449	0	165.138	0	-1e10	8	-1e10	8	-1E+10	1	-1E+10	1	-1E+10	1	-1E+10	1	-1E+10	1	-1E+10	1
4902554	99	C	11/05/2023	12:05	-133.542	47.803	0	167.90	0	5.7210	0	33.5680	0	26.457	0	166.426	0	-1e10	8	-1e10	8	-1E+10	1	-1E+10	1	-1E+10	1	-1E+10	1	-1E+10	1	-1E+10	1
4902554	99	C	11/05/2023	12:05	-133.542	47.803	0	169.30	0	5.7180	0	33.5700	0	26.459	0	167.814	0	-1e10	8	-1e10	8	-1E+10	1	-1E+10	1	-1E+10	1	-1E+10	1	-1E+10	1	-1E+10	1
4902554	99	C	11/05/2023	12:05	-133.542	47.803	0	170.30	0	5.7010	0	33.5890	0	26.476	0	168.804	0	-1e10	8	-1e10	8	-1E+10	1	-1E+10	1	-1E+10	1	-1E+10	1	-1E+10	1	-1E+10	1
4902554	99	C	11/05/2023	12:05	-133.542	47.803	0	171.20	0	5.6990	0	33.5920	0	26.479	0	169.696	0	-1e10	8	-1e10	8	-1E+10	1	-1E+10	1	-1E+10	1	-1E+10	1	-1E+10	1	-1E+10	1
4902554	99	C	11/05/2023	12:05	-133.542	47.803	0	172.10	0	5.6980	0	33.5930	0	26.480	0	170.588	0	-1e10	8	-1e10	8	-1E+10	1	-1E+10	1	-1E+10	1	-1E+10	1	-1E+10	1	-1E+10	1
4902554	99	C	11/05/2023	12:05	-133.542	47.803	0	173.00	0	5.6960	0	33.5960	0	26.482	0	171.480	0	-1e10	8	-1e10	8	-1E+10	1	-1E+10	1	-1E+10	1	-1E+10	1	-1E+10	1	-1E+10	1
4902554	99	C	11/05/2023	12:05	-133.542	47.803	0	173.90	0	5.6810	0	33.6120	0	26.497	0	172.371	0	-1e10	8	-1e10	8	-1E+10	1	-1E+10	1	-1E+10	1	-1E+10	1	-1E+10	1	-1E+10	1
4902554	99	C	11/05/2023	12:05	-133.542	47.803	0	174.90	0	5.6650	0	33.6270	0	26.511	0	173.362	0	-1e10	8	-1e10	8	-1E+10	1	-1E+10	1	-1E+10	1	-1E+10	1	-1E+10	1	-1E+10	1
4902554	99	C	11/05/2023	12:05	-133.542	47.803	0	175.80	0	5.6620	0	33.6290	0	26.513	0	174.254	0	-1e10	8	-1e10	8	-1E+10	1	-1E+10	1	-1E+10	1	-1E+10	1	-1E+10	1	-1E+10	1
4902554	99	C	11/05/2023	12:05	-133.542	47.803	0	176.80	0	5.6490	0	33.6380	0	26.521	0	175.245	0	-1e10	8	-1e10	8	-1E+10	1	-1E+10	1	-1E+10	1	-1E+10	1	-1E+10	1	-1E+10	1
4902554	99	C	11/05/2023	12:05	-133.542	47.803	0	177.70	0	5.6340	0	33.6490	0	26.532	0	176.136	0	-1e10	8	-1e10	8	-1E+10	1	-1E+10	1	-1E+10	1	-1E+10	1	-1E+10	1	-1E+10	1
4902554	99	C	11/05/2023	12:05	-133.542	47.803	0	178.70	0	5.6220	0	33.6570	0	26.540	0	177.127	0	-1e10	8	-1e10	8	-1E+10	1	-1E+10	1	-1E+10	1	-1E+10	1	-1E+10	1	-1E+10	1
4902554	99	C	11/05/2023	12:05	-133.542	47.803	0	179.70	0	5.6210	0	33.6560	0	26.539	0	178.118	0	-1e10	8	-1e10	8	-1E+10	1	-1E+10	1	-1E+10	1	-1E+10	1	-1E+10	1	-1E+10	1
4902554	99	C	11/05/2023	12:05	-133.542	47.803	0	180.60	0	5.6090	0	33.6620	0	26.545	0	179.009	0	-1e10	8	-1e10	8	-1E+10	1	-1E+10	1	-1E+10	1	-1E+10	1	-1E+10	1	-1E+10	1
4902554	99	C	11/05/2023	12:05	-133.542	47.803	0	181.70	0	5.5980	0	33.6680	0	26.551	0	180.099	0	-1e10	8	-1e10	8	-1E+10	1	-1E+10	1	-1E+10	1	-1E+10	1	-1E+10	1	-1E+10	1
4902554	99	C	11/05/2023	12:05	-133.542	47.803	0	182.60	0	5.5920	0	33.6710	0	26.554	0	180.991	0	-1e10	8	-1e10	8	-1E+10	1	-1E+10	1	-1E+10	1	-1E+10	1	-1E+10	1	-1E+10	1
4902554	99	C	11/05/2023	12:05	-133.542	47.803	0	183.60	0	5.5780	0	33.6790	0	26.562	0	181.982	0	-1e10	8	-1e10	8	-1E+10	1	-1E+10	1	-1E+10	1	-1E+10	1	-1E+10	1	-1E+10	1
4902554	99	C	11/05/2023	12:05	-133.542	47.803	0	184.90	0	5.5640	0	33.6840	0	26.568	0	183.270	0	-1e10	8	-1e10	8	-1E+10	1	-1E+10	1	-1E+10	1	-1E+10	1	-1E+10	1	-1E+10	1
4902554	99	C	11/05/2023	12:05	-133.542	47.803	0	186.10	0	5.5570	0	33.6860	0	26.571	0	184.459	0	-1e10	8	-1e10	8	-1E+10	1	-1E+10	1	-1E+10	1	-1E+10	1	-1E+10	1	-1E+10	1
4902554	99	C	11/05/2023	12:05	-133.542	47.803	0	186.90	0	5.5480	0	33.6920	0	26.576	0	185.251	0	-1e10	8	-1e10	8	-1E+10	1	-1E+10	1	-1E+10	1	-1E+10	1	-1E+10	1	-1E+10	1
4902554	99	C	11/05/2023	12:05	-133.542	47.803	0	188.00	0	5.5380	0	33.6950	0	26.580	0	186.341	0	-1e10	8	-1e10	8	-1E+10	1	-1E+10	1	-1E+10	1	-1E+10	1	-1E+10	1	-1E+10	1
4902554	99	C	11/05/2023	12:05	-133.542	47.803	0	189.10	0	5.5310	0	33.6960	0	26.582	0	187.431	0	-1e10	8	-1e10	8	-1E+10	1	-1E+10	1	-1E+10	1	-1E+10	1	-1E+10	1	-1E+10	1
4902554	99	C	11/05/2023	12:05	-133.542	47.803	0	189.80	0	5.5160	0	33.7020	0	26.588	0	188.124	0	-1e10	8	-1e10	8	-1E+10	1	-1E+10	1	-1E+10	1	-1E+10	1	-1E+10	1	-1E+10	1
4902554	99	C	11/05/2023	12:05	-133.542	47.803	0	190.90	0	5.5070	0	33.7040	0	26.591	0	189.214	0	-1e10	8	-1e10	8	-1E+10	1	-1E+10	1	-1E+10	1	-1E+10	1	-1E+10	1	-1E+10	1
4902554	99	C	11/05/2023	12:05	-133.542	47.803	0	192.10	0	5.5030	0	33.7050	0	26.592	0	190.403	0	-1e10	8	-1e10	8	-1E+10	1	-1E+10	1	-1E+10	1	-1E+10	1	-1E+10	1	-1E+10	1
4902554	99	C	11/05/2023	12:05	-133.542	47.803	0	192.80	0	5.4990	0	33.7070	0	26.594	0	191.096	0	-1e10	8	-1e10	8	-1E+10	1	-1E+10	1	-1E+10	1	-1E+10	1	-1E+10	1	-1E+10	1
4902554	99	C	11/05/2023	12:05	-133.542	47.803	0	193.90	0	5.4920	0	33.7090	0	26.597	0	192.186	0	-1e10	8	-1e10	8	-1E+10	1	-1E+10	1	-1E+10	1	-1E+10	1	-1E+10	1	-1E+10	1
4902554	99	C	11/05/2023	12:05	-133.542	47.803	0	195.10	0	5.4840	0	33.7120	0	26.600	0	193.375	0	-1e10	8	-1e10	8	-1E+10	1	-1E+10	1	-1E+10	1	-1E+10	1	-1E+10	1	-1E+10	1
4902554	99	C	11/05/2023	12:05	-133.542	47.803	0	195.90	0	5.4740	0	33.7150	0	26.603	0	194.167	0	-1e10	8	-1e10	8	-1E+10	1	-1E+10	1	-1E+10	1	-1E+10	1	-1E+10	1	-1E+10	1
4902554	99	C	11/05/2023	12:05	-133.542	47.803	0	196.70	0	5.4670	0	33.7180	0	26.607	0	194.960	0	-1e10	8	-1e10	8	-1E+10	1	-1E+10	1	-1E+10	1	-1E+10	1	-1E+10	1	-1E+10	1
4902554	99	C	11/05/2023	12:05	-133.542	47.803	0	197.90	0	5.4560	0	33.7210	0	26.610	0	196.149	0	-1e10	8	-1e10	8	-1E+10	1	-1E+10	1	-1E+10	1	-1E+10	1	-1E+10	1	-1E+10	1
4902554	99	C	11/05/2023	12:05	-133.542	47.803	0	199.10	0	5.4460	0	33.7240	0	26.614	0	197.338	0	-1e10	8	-1e10	8	-1E+10	1	-1E+10	1	-1E+10	1	-1E+10	1	-1E+10	1	-1E+10	1
4902554	99	C	11/05/2023	12:05	-133.542	47.803	0	199.90	0	5.4450	0	33.7240	0	26.614	0	198.130	0	-1e10	8	-1e10	8	-1E+10	1	-1E+10	1	-1E+10	1	-1E+10	1	-1E+10	1	-1E+10	1
4902554	99	C	11/05/2023	12:05	-133.542	47.803	0	200.70	0	5.4380	0	33.7260	0	26.616	0	198.923	0	-1e10	8	-1e10	8	-1E+10	1	-1E+10	1	-1E+10	1	-1E+10	1	-1E+10	1	-1E+10	1
4902554	99	C	11/05/2023	12:05	-133.542	47.803	0	201.90	0	5.4290	0	33.7280	0	26.619	0	200.112	0	-1e10	8	-1e10	8	-1E+10	1	-1E+10	1	-1E+10	1	-1E+10	1	-1E+10	1	-1E+10	1
4902554	99	C	11/05/2023	12:05	-133.542	47.803	0	203.10	0	5.4140	0	33.7320	0	26.624	0	201.300	0	-1e10	8	-1e10	8	-1E+10	1	-1E+10	1	-1E+10	1	-1E+10	1	-1E+10	1	-1E+10	1
4902554	99	C	11/05/2023	12:05	-133.542	47.803	0	203.90	0	5.4130	0	33.7320	0	26.624	0	202.093	0	-1e10	8	-1e10	8	-1E+10	1	-1E+10	1	-1E+10	1	-1E+10	1	-1E+10	1	-1E+10	1
4902554	99	C	11/05/2023	12:05	-133.542	47.803	0	204.70	0	5.4090	0	33.7330	0	26.625	0	202.885	0	-1e10	8	-1e10	8	-1E+10	1	-1E+10	1	-1E+10	1	-1E+10	1	-1E+10	1	-1E+10	1
4902554	99	C	11/05/2023	12:05	-133.542	47.803	0	206.00	0	5.3980	0	33.7350	0	26.628	0	204.173	0	-1e10	8	-1e10	8	-1E+10	1	-1E+10	1	-1E+10	1	-1E+10	1	-1E+10	1	-1E+10	1
4902554	99	C	11/05/2023	12:05	-133.542	47.803	0	207.20	0	5.3830	0	33.7390	0	26.633	0	205.362	0	-1e10	8	-1e10	8	-1E+10	1	-1E+10	1	-1E+10	1	-1E+10	1	-1E+10	1	-1E+10	1
4902554	99	C	11/05/2023	12:05	-133.542	47.803	0	208.00	0	5.3700	0	33.7410	0	26.636	0	206.154	0	-1e10	8	-1e10	8	-1E+10	1	-1E+10	1	-1E+10	1	-1E+10	1	-1E+10	1	-1E+10	1
4902554	99	C	11/05/2023	12:05	-133.542	47.803	0	208.90	0	5.3640	0	33.7430	0	26.639	0	207.046	0	-1e10	8	-1e10	8	-1E+10	1	-1E+10	1	-1E+10	1	-1E+10	1	-1E+10	1	-1E+10	1
4902554	99	C	11/05/2023	12:05	-133.542	47.803	0	209.70	0	5.3500	0	33.7460	0	26.643	0	207.839	0	-1e10	8	-1e10	8	-1E+10	1	-1E+10	1	-1E+10	1	-1E+10	1	-1E+10	1	-1E+10	1
4902554	99	C	11/05/2023	12:05	-133.542	47.803	0	210.90	0	5.3420	0	33.7470	0	26.644	0	209.027	0	-1e10	8	-1e10	8	-1E+10	1	-1E+10	1	-1E+10	1	-1E+10	1	-1E+10	1	-1E+10	1
4902554	99	C	11/05/2023	12:05	-133.542	47.803	0	212.20	0	5.3370	0	33.7480	0	26.646	0	210.315	0	-1e10	8	-1e10	8	-1E+10	1	-1E+10	1	-1E+10	1	-1E+10	1	-1E+10	1	-1E+10	1
4902554	99	C	11/05/2023	12:05	-133.542	47.803	0	213.10	0	5.3340	0	33.7490	0	26.647	0	211.207	0	-1e10	8	-1e10	8	-1E+10	1	-1E+10	1	-1E+10	1	-1E+10	1	-1E+10	1	-1E+10	1
4902554	99	C	11/05/2023	12:05	-133.542	47.803	0	213.90	0	5.3280	0	33.7500	0	26.649	0	211.999	0	-1e10	8	-1e10	8	-1E+10	1	-1E+10	1	-1E+10	1	-1E+10	1	-1E+10	1	-1E+10	1
4902554	99	C	11/05/2023	12:05	-133.542	47.803	0	214.70	0	5.3170	0	33.7510	0	26.651	0	212.792	0	-1e10	8	-1e10	8	-1E+10	1	-1E+10	1	-1E+10	1	-1E+10	1	-1E+10	1	-1E+10	1
4902554	99	C	11/05/2023	12:05	-133.542	47.803	0	216.00	0	5.3070	0	33.7530	0	26.653	0	214.079	0	-1e10	8	-1e10	8	-1E+10	1	-1E+10	1	-1E+10	1	-1E+10	1	-1E+10	1	-1E+10	1
4902554	99	C	11/05/2023	12:05	-133.542	47.803	0	217.20	0	5.2970	0	33.7560	0	26.657	0	215.268	0	-1e10	8	-1e10	8	-1E+10	1	-1E+10	1	-1E+10	1	-1E+10	1	-1E+10	1	-1E+10	1
4902554	99	C	11/05/2023	12:05	-133.542	47.803	0	218.10	0	5.2900	0	33.7560	0	26.658	0	216.160	0	-1e10	8	-1e10	8	-1E+10	1	-1E+10	1	-1E+10	1	-1E+10	1	-1E+10	1	-1E+10	1
4902554	99	C	11/05/2023	12:05	-133.542	47.803	0	218.90	0	5.2680	0	33.7600	0	26.663	0	216.952	0	-1e10	8	-1e10	8	-1E+10	1	-1E+10	1	-1E+10	1	-1E+10	1	-1E+10	1	-1E+10	1
4902554	99	C	11/05/2023	12:05	-133.542	47.803	0	219.80	0	5.2600	0	33.7620	0	26.666	0	217.844	0	-1e10	8	-1e10	8	-1E+10	1	-1E+10	1	-1E+10	1	-1E+10	1	-1E+10	1	-1E+10	1
4902554	99	C	11/05/2023	12:05	-133.542	47.803	0	221.00	0	5.2450	0	33.7630	0	26.669	0	219.032	0	-1e10	8	-1e10	8	-1E+10	1	-1E+10	1	-1E+10	1	-1E+10	1	-1E+10	1	-1E+10	1
4902554	99	C	11/05/2023	12:05	-133.542	47.803	0	222.30	0	5.2330	0	33.7640	0	26.671	0	220.320	0	-1e10	8	-1e10	8	-1E+10	1	-1E+10	1	-1E+10	1	-1E+10	1	-1E+10	1	-1E+10	1
4902554	99	C	11/05/2023	12:05	-133.542	47.803	0	223.10	0	5.2240	0	33.7660	0	26.673	0	221.112	0	-1e10	8	-1e10	8	-1E+10	1	-1E+10	1	-1E+10	1	-1E+10	1	-1E+10	1	-1E+10	1
4902554	99	C	11/05/2023	12:05	-133.542	47.803	0	224.00	0	5.1980	0	33.7690	0	26.679	0	222.004	0	-1e10	8	-1e10	8	-1E+10	1	-1E+10	1	-1E+10	1	-1E+10	1	-1E+10	1	-1E+10	1
4902554	99	C	11/05/2023	12:05	-133.542	47.803	0	224.80	0	5.1910	0	33.7680	0	26.679	0	222.796	0	-1e10	8	-1e10	8	-1E+10	1	-1E+10	1	-1E+10	1	-1E+10	1	-1E+10	1	-1E+10	1
4902554	99	C	11/05/2023	12:05	-133.542	47.803	0	225.60	0	5.1750	0	33.7690	0	26.681	0	223.589	0	-1e10	8	-1e10	8	-1E+10	1	-1E+10	1	-1E+10	1	-1E+10	1	-1E+10	1	-1E+10	1
4902554	99	C	11/05/2023	12:05	-133.542	47.803	0	226.90	0	5.1600	0	33.7700	0	26.684	0	224.876	0	-1e10	8	-1e10	8	-1E+10	1	-1E+10	1	-1E+10	1	-1E+10	1	-1E+10	1	-1E+10	1
4902554	99	C	11/05/2023	12:05	-133.542	47.803	0	228.20	0	5.1480	0	33.7720	0	26.687	0	226.164	0	-1e10	8	-1e10	8	-1E+10	1	-1E+10	1	-1E+10	1	-1E+10	1	-1E+10	1	-1E+10	1
4902554	99	C	11/05/2023	12:05	-133.542	47.803	0	229.00	0	5.1450	0	33.7720	0	26.687	0	226.957	0	-1e10	8	-1e10	8	-1E+10	1	-1E+10	1	-1E+10	1	-1E+10	1	-1E+10	1	-1E+10	1
4902554	99	C	11/05/2023	12:05	-133.542	47.803	0	229.90	0	5.1400	0	33.7720	0	26.688	0	227.848	0	-1e10	8	-1e10	8	-1E+10	1	-1E+10	1	-1E+10	1	-1E+10	1	-1E+10	1	-1E+10	1
4902554	99	C	11/05/2023	12:05	-133.542	47.803	0	230.80	0	5.1370	0	33.7730	0	26.689	0	228.740	0	-1e10	8	-1e10	8	-1E+10	1	-1E+10	1	-1E+10	1	-1E+10	1	-1E+10	1	-1E+10	1
4902554	99	C	11/05/2023	12:05	-133.542	47.803	0	231.60	0	5.1150	0	33.7760	0	26.694	0	229.532	0	-1e10	8	-1e10	8	-1E+10	1	-1E+10	1	-1E+10	1	-1E+10	1	-1E+10	1	-1E+10	1
4902554	99	C	11/05/2023	12:05	-133.542	47.803	0	232.90	0	5.0980	0	33.7760	0	26.696	0	230.820	0	-1e10	8	-1e10	8	-1E+10	1	-1E+10	1	-1E+10	1	-1E+10	1	-1E+10	1	-1E+10	1
4902554	99	C	11/05/2023	12:05	-133.542	47.803	0	234.20	0	5.0830	0	33.7780	0	26.699	0	232.107	0	-1e10	8	-1e10	8	-1E+10	1	-1E+10	1	-1E+10	1	-1E+10	1	-1E+10	1	-1E+10	1
4902554	99	C	11/05/2023	12:05	-133.542	47.803	0	235.00	0	5.0710	0	33.7800	0	26.702	0	232.900	0	-1e10	8	-1e10	8	-1E+10	1	-1E+10	1	-1E+10	1	-1E+10	1	-1E+10	1	-1E+10	1
4902554	99	C	11/05/2023	12:05	-133.542	47.803	0	235.90	0	5.0300	0	33.7810	0	26.708	0	233.791	0	-1e10	8	-1e10	8	-1E+10	1	-1E+10	1	-1E+10	1	-1E+10	1	-1E+10	1	-1E+10	1
4902554	99	C	11/05/2023	12:05	-133.542	47.803	0	236.70	0	5.0150	0	33.7810	0	26.709	0	234.584	0	-1e10	8	-1e10	8	-1E+10	1	-1E+10	1	-1E+10	1	-1E+10	1	-1E+10	1	-1E+10	1
4902554	99	C	11/05/2023	12:05	-133.542	47.803	0	238.00	0	5.0020	0	33.7820	0	26.712	0	235.871	0	-1e10	8	-1e10	8	-1E+10	1	-1E+10	1	-1E+10	1	-1E+10	1	-1E+10	1	-1E+10	1
4902554	99	C	11/05/2023	12:05	-133.542	47.803	0	239.30	0	4.9880	0	33.7830	0	26.714	0	237.159	0	-1e10	8	-1e10	8	-1E+10	1	-1E+10	1	-1E+10	1	-1E+10	1	-1E+10	1	-1E+10	1
4902554	99	C	11/05/2023	12:05	-133.542	47.803	0	240.10	0	4.9580	0	33.7850	0	26.719	0	237.951	0	-1e10	8	-1e10	8	-1E+10	1	-1E+10	1	-1E+10	1	-1E+10	1	-1E+10	1	-1E+10	1
4902554	99	C	11/05/2023	12:05	-133.542	47.803	0	241.00	0	4.9530	0	33.7880	0	26.722	0	238.843	0	-1e10	8	-1e10	8	-1E+10	1	-1E+10	1	-1E+10	1	-1E+10	1	-1E+10	1	-1E+10	1
4902554	99	C	11/05/2023	12:05	-133.542	47.803	0	241.80	0	4.9630	0	33.7950	0	26.726	0	239.635	0	-1e10	8	-1e10	8	-1E+10	1	-1E+10	1	-1E+10	1	-1E+10	1	-1E+10	1	-1E+10	1
4902554	99	C	11/05/2023	12:05	-133.542	47.803	0	242.70	0	4.9590	0	33.7950	0	26.727	0	240.526	0	-1e10	8	-1e10	8	-1E+10	1	-1E+10	1	-1E+10	1	-1E+10	1	-1E+10	1	-1E+10	1
4902554	99	C	11/05/2023	12:05	-133.542	47.803	0	244.00	0	4.9490	0	33.7970	0	26.730	0	241.814	0	-1e10	8	-1e10	8	-1E+10	1	-1E+10	1	-1E+10	1	-1E+10	1	-1E+10	1	-1E+10	1
4902554	99	C	11/05/2023	12:05	-133.542	47.803	0	245.30	0	4.9420	0	33.7960	0	26.730	0	243.102	0	-1e10	8	-1e10	8	-1E+10	1	-1E+10	1	-1E+10	1	-1E+10	1	-1E+10	1	-1E+10	1
4902554	99	C	11/05/2023	12:05	-133.542	47.803	0	246.10	0	4.9350	0	33.7970	0	26.731	0	243.894	0	-1e10	8	-1e10	8	-1E+10	1	-1E+10	1	-1E+10	1	-1E+10	1	-1E+10	1	-1E+10	1
4902554	99	C	11/05/2023	12:05	-133.542	47.803	0	247.00	0	4.9010	0	33.7960	0	26.734	0	244.785	0	-1e10	8	-1e10	8	-1E+10	1	-1E+10	1	-1E+10	1	-1E+10	1	-1E+10	1	-1E+10	1
4902554	99	C	11/05/2023	12:05	-133.542	47.803	0	247.90	0	4.8960	0	33.7950	0	26.734	0	245.677	0	-1e10	8	-1e10	8	-1E+10	1	-1E+10	1	-1E+10	1	-1E+10	1	-1E+10	1	-1E+10	1
4902554	99	C	11/05/2023	12:05	-133.542	47.803	0	248.70	0	4.8910	0	33.7960	0	26.735	0	246.469	0	-1e10	8	-1e10	8	-1E+10	1	-1E+10	1	-1E+10	1	-1E+10	1	-1E+10	1	-1E+10	1
4902554	99	C	11/05/2023	12:05	-133.542	47.803	0	249.60	0	4.8850	0	33.8000	0	26.739	0	247.360	0	-1e10	8	-1e10	8	-1E+10	1	-1E+10	1	-1E+10	1	-1E+10	1	-1E+10	1	-1E+10	1
4902554	99	C	11/05/2023	12:05	-133.542	47.803	0	250.90	0	4.8760	0	33.8000	0	26.740	0	248.648	0	-1e10	8	-1e10	8	-1E+10	1	-1E+10	1	-1E+10	1	-1E+10	1	-1E+10	1	-1E+10	1
4902554	99	C	11/05/2023	12:05	-133.542	47.803	0	252.20	0	4.8730	0	33.7990	0	26.740	0	249.936	0	-1e10	8	-1e10	8	-1E+10	1	-1E+10	1	-1E+10	1	-1E+10	1	-1E+10	1	-1E+10	1
4902554	99	C	11/05/2023	12:05	-133.542	47.803	0	253.10	0	4.8640	0	33.8000	0	26.742	0	250.827	0	-1e10	8	-1e10	8	-1E+10	1	-1E+10	1	-1E+10	1	-1E+10	1	-1E+10	1	-1E+10	1
4902554	99	C	11/05/2023	12:05	-133.542	47.803	0	254.00	0	4.8600	0	33.8010	0	26.743	0	251.718	0	-1e10	8	-1e10	8	-1E+10	1	-1E+10	1	-1E+10	1	-1E+10	1	-1E+10	1	-1E+10	1
4902554	99	C	11/05/2023	12:05	-133.542	47.803	0	254.90	0	4.8570	0	33.8020	0	26.744	0	252.610	0	-1e10	8	-1e10	8	-1E+10	1	-1E+10	1	-1E+10	1	-1E+10	1	-1E+10	1	-1E+10	1
4902554	99	C	11/05/2023	12:05	-133.542	47.803	0	255.70	0	4.8520	0	33.8020	0	26.744	0	253.402	0	-1e10	8	-1e10	8	-1E+10	1	-1E+10	1	-1E+10	1	-1E+10	1	-1E+10	1	-1E+10	1
4902554	99	C	11/05/2023	12:05	-133.542	47.803	0	256.60	0	4.8490	0	33.8020	0	26.745	0	254.293	0	-1e10	8	-1e10	8	-1E+10	1	-1E+10	1	-1E+10	1	-1E+10	1	-1E+10	1	-1E+10	1
4902554	99	C	11/05/2023	12:05	-133.542	47.803	0	257.90	0	4.8480	0	33.8070	0	26.749	0	255.581	0	-1e10	8	-1e10	8	-1E+10	1	-1E+10	1	-1E+10	1	-1E+10	1	-1E+10	1	-1E+10	1
4902554	99	C	11/05/2023	12:05	-133.542	47.803	0	259.30	0	4.8460	0	33.8110	0	26.752	0	256.967	0	-1e10	8	-1e10	8	-1E+10	1	-1E+10	1	-1E+10	1	-1E+10	1	-1E+10	1	-1E+10	1
4902554	99	C	11/05/2023	12:05	-133.542	47.803	0	260.10	0	4.8400	0	33.8120	0	26.754	0	257.760	0	-1e10	8	-1e10	8	-1E+10	1	-1E+10	1	-1E+10	1	-1E+10	1	-1E+10	1	-1E+10	1
4902554	99	C	11/05/2023	12:05	-133.542	47.803	0	261.00	0	4.8230	0	33.8140	0	26.757	0	258.651	0	-1e10	8	-1e10	8	-1E+10	1	-1E+10	1	-1E+10	1	-1E+10	1	-1E+10	1	-1E+10	1
4902554	99	C	11/05/2023	12:05	-133.542	47.803	0	261.90	0	4.8200	0	33.8140	0	26.758	0	259.542	0	-1e10	8	-1e10	8	-1E+10	1	-1E+10	1	-1E+10	1	-1E+10	1	-1E+10	1	-1E+10	1
4902554	99	C	11/05/2023	12:05	-133.542	47.803	0	262.80	0	4.8180	0	33.8140	0	26.758	0	260.434	0	-1e10	8	-1e10	8	-1E+10	1	-1E+10	1	-1E+10	1	-1E+10	1	-1E+10	1	-1E+10	1
4902554	99	C	11/05/2023	12:05	-133.542	47.803	0	263.70	0	4.8150	0	33.8150	0	26.759	0	261.325	0	-1e10	8	-1e10	8	-1E+10	1	-1E+10	1	-1E+10	1	-1E+10	1	-1E+10	1	-1E+10	1
4902554	99	C	11/05/2023	12:05	-133.542	47.803	0	264.60	0	4.8090	0	33.8160	0	26.760	0	262.216	0	-1e10	8	-1e10	8	-1E+10	1	-1E+10	1	-1E+10	1	-1E+10	1	-1E+10	1	-1E+10	1
4902554	99	C	11/05/2023	12:05	-133.542	47.803	0	265.90	0	4.7860	0	33.8210	0	26.767	0	263.504	0	-1e10	8	-1e10	8	-1E+10	1	-1E+10	1	-1E+10	1	-1E+10	1	-1E+10	1	-1E+10	1
4902554	99	C	11/05/2023	12:05	-133.542	47.803	0	267.30	0	4.7760	0	33.8220	0	26.769	0	264.890	0	-1e10	8	-1e10	8	-1E+10	1	-1E+10	1	-1E+10	1	-1E+10	1	-1E+10	1	-1E+10	1
4902554	99	C	11/05/2023	12:05	-133.542	47.803	0	268.20	0	4.7750	0	33.8220	0	26.769	0	265.782	0	-1e10	8	-1e10	8	-1E+10	1	-1E+10	1	-1E+10	1	-1E+10	1	-1E+10	1	-1E+10	1
4902554	99	C	11/05/2023	12:05	-133.542	47.803	0	269.00	0	4.7750	0	33.8210	0	26.768	0	266.574	0	-1e10	8	-1e10	8	-1E+10	1	-1E+10	1	-1E+10	1	-1E+10	1	-1E+10	1	-1E+10	1
4902554	99	C	11/05/2023	12:05	-133.542	47.803	0	270.00	0	4.7680	0	33.8220	0	26.770	0	267.564	0	-1e10	8	-1e10	8	-1E+10	1	-1E+10	1	-1E+10	1	-1E+10	1	-1E+10	1	-1E+10	1
4902554	99	C	11/05/2023	12:05	-133.542	47.803	0	270.90	0	4.7510	0	33.8230	0	26.772	0	268.456	0	-1e10	8	-1e10	8	-1E+10	1	-1E+10	1	-1E+10	1	-1E+10	1	-1E+10	1	-1E+10	1
4902554	99	C	11/05/2023	12:05	-133.542	47.803	0	271.80	0	4.7430	0	33.8230	0	26.773	0	269.347	0	-1e10	8	-1e10	8	-1E+10	1	-1E+10	1	-1E+10	1	-1E+10	1	-1E+10	1	-1E+10	1
4902554	99	C	11/05/2023	12:05	-133.542	47.803	0	272.70	0	4.7390	0	33.8230	0	26.774	0	270.238	0	-1e10	8	-1e10	8	-1E+10	1	-1E+10	1	-1E+10	1	-1E+10	1	-1E+10	1	-1E+10	1
4902554	99	C	11/05/2023	12:05	-133.542	47.803	0	273.60	0	4.7320	0	33.8240	0	26.775	0	271.129	0	-1e10	8	-1e10	8	-1E+10	1	-1E+10	1	-1E+10	1	-1E+10	1	-1E+10	1	-1E+10	1
4902554	99	C	11/05/2023	12:05	-133.542	47.803	0	274.90	0	4.7150	0	33.8240	0	26.777	0	272.417	0	-1e10	8	-1e10	8	-1E+10	1	-1E+10	1	-1E+10	1	-1E+10	1	-1E+10	1	-1E+10	1
4902554	99	C	11/05/2023	12:05	-133.542	47.803	0	276.40	0	4.7100	0	33.8270	0	26.780	0	273.902	0	-1e10	8	-1e10	8	-1E+10	1	-1E+10	1	-1E+10	1	-1E+10	1	-1E+10	1	-1E+10	1
4902554	99	C	11/05/2023	12:05	-133.542	47.803	0	277.30	0	4.7100	0	33.8270	0	26.780	0	274.794	0	-1e10	8	-1e10	8	-1E+10	1	-1E+10	1	-1E+10	1	-1E+10	1	-1E+10	1	-1E+10	1
4902554	99	C	11/05/2023	12:05	-133.542	47.803	0	278.20	0	4.7080	0	33.8290	0	26.782	0	275.685	0	-1e10	8	-1e10	8	-1E+10	1	-1E+10	1	-1E+10	1	-1E+10	1	-1E+10	1	-1E+10	1
4902554	99	C	11/05/2023	12:05	-133.542	47.803	0	279.10	0	4.7040	0	33.8300	0	26.783	0	276.576	0	-1e10	8	-1e10	8	-1E+10	1	-1E+10	1	-1E+10	1	-1E+10	1	-1E+10	1	-1E+10	1
4902554	99	C	11/05/2023	12:05	-133.542	47.803	0	280.00	0	4.7040	0	33.8300	0	26.783	0	277.467	0	-1e10	8	-1e10	8	-1E+10	1	-1E+10	1	-1E+10	1	-1E+10	1	-1E+10	1	-1E+10	1
4902554	99	C	11/05/2023	12:05	-133.542	47.803	0	281.00	0	4.7000	0	33.8300	0	26.784	0	278.458	0	-1e10	8	-1e10	8	-1E+10	1	-1E+10	1	-1E+10	1	-1E+10	1	-1E+10	1	-1E+10	1
4902554	99	C	11/05/2023	12:05	-133.542	47.803	0	281.90	0	4.6900	0	33.8300	0	26.785	0	279.349	0	-1e10	8	-1e10	8	-1E+10	1	-1E+10	1	-1E+10	1	-1E+10	1	-1E+10	1	-1E+10	1
4902554	99	C	11/05/2023	12:05	-133.542	47.803	0	282.80	0	4.6800	0	33.8280	0	26.784	0	280.240	0	-1e10	8	-1e10	8	-1E+10	1	-1E+10	1	-1E+10	1	-1E+10	1	-1E+10	1	-1E+10	1
4902554	99	C	11/05/2023	12:05	-133.542	47.803	0	283.70	0	4.6550	0	33.8290	0	26.788	0	281.131	0	-1e10	8	-1e10	8	-1E+10	1	-1E+10	1	-1E+10	1	-1E+10	1	-1E+10	1	-1E+10	1
4902554	99	C	11/05/2023	12:05	-133.542	47.803	0	284.60	0	4.6500	0	33.8300	0	26.789	0	282.023	0	-1e10	8	-1e10	8	-1E+10	1	-1E+10	1	-1E+10	1	-1E+10	1	-1E+10	1	-1E+10	1
4902554	99	C	11/05/2023	12:05	-133.542	47.803	0	285.60	0	4.6420	0	33.8290	0	26.789	0	283.013	0	-1e10	8	-1e10	8	-1E+10	1	-1E+10	1	-1E+10	1	-1E+10	1	-1E+10	1	-1E+10	1
4902554	99	C	11/05/2023	12:05	-133.542	47.803	0	286.50	0	4.6420	0	33.8290	0	26.789	0	283.904	0	-1e10	8	-1e10	8	-1E+10	1	-1E+10	1	-1E+10	1	-1E+10	1	-1E+10	1	-1E+10	1
4902554	99	C	11/05/2023	12:05	-133.542	47.803	0	287.90	0	4.6350	0	33.8310	0	26.792	0	285.290	0	-1e10	8	-1e10	8	-1E+10	1	-1E+10	1	-1E+10	1	-1E+10	1	-1E+10	1	-1E+10	1
4902554	99	C	11/05/2023	12:05	-133.542	47.803	0	289.30	0	4.6310	0	33.8330	0	26.794	0	286.677	0	-1e10	8	-1e10	8	-1E+10	1	-1E+10	1	-1E+10	1	-1E+10	1	-1E+10	1	-1E+10	1
4902554	99	C	11/05/2023	12:05	-133.542	47.803	0	290.30	0	4.6310	0	33.8330	0	26.794	0	287.667	0	-1e10	8	-1e10	8	-1E+10	1	-1E+10	1	-1E+10	1	-1E+10	1	-1E+10	1	-1E+10	1
4902554	99	C	11/05/2023	12:05	-133.542	47.803	0	291.20	0	4.6360	0	33.8360	0	26.796	0	288.558	0	-1e10	8	-1e10	8	-1E+10	1	-1E+10	1	-1E+10	1	-1E+10	1	-1E+10	1	-1E+10	1
4902554	99	C	11/05/2023	12:05	-133.542	47.803	0	292.10	0	4.6260	0	33.8380	0	26.798	0	289.449	0	-1e10	8	-1e10	8	-1E+10	1	-1E+10	1	-1E+10	1	-1E+10	1	-1E+10	1	-1E+10	1
4902554	99	C	11/05/2023	12:05	-133.542	47.803	0	293.10	0	4.6260	0	33.8390	0	26.799	0	290.440	0	-1e10	8	-1e10	8	-1E+10	1	-1E+10	1	-1E+10	1	-1E+10	1	-1E+10	1	-1E+10	1
4902554	99	C	11/05/2023	12:05	-133.542	47.803	0	294.10	0	4.6250	0	33.8390	0	26.799	0	291.430	0	-1e10	8	-1e10	8	-1E+10	1	-1E+10	1	-1E+10	1	-1E+10	1	-1E+10	1	-1E+10	1
4902554	99	C	11/05/2023	12:05	-133.542	47.803	0	295.00	0	4.6320	0	33.8430	0	26.802	0	292.321	0	-1e10	8	-1e10	8	-1E+10	1	-1E+10	1	-1E+10	1	-1E+10	1	-1E+10	1	-1E+10	1
4902554	99	C	11/05/2023	12:05	-133.542	47.803	0	295.90	0	4.6300	0	33.8420	0	26.801	0	293.212	0	-1e10	8	-1e10	8	-1E+10	1	-1E+10	1	-1E+10	1	-1E+10	1	-1E+10	1	-1E+10	1
4902554	99	C	11/05/2023	12:05	-133.542	47.803	0	296.90	0	4.6260	0	33.8440	0	26.803	0	294.202	0	-1e10	8	-1e10	8	-1E+10	1	-1E+10	1	-1E+10	1	-1E+10	1	-1E+10	1	-1E+10	1
4902554	99	C	11/05/2023	12:05	-133.542	47.803	0	297.90	0	4.6230	0	33.8450	0	26.804	0	295.193	0	-1e10	8	-1e10	8	-1E+10	1	-1E+10	1	-1E+10	1	-1E+10	1	-1E+10	1	-1E+10	1
4902554	99	C	11/05/2023	12:05	-133.542	47.803	0	298.80	0	4.6190	0	33.8440	0	26.804	0	296.084	0	-1e10	8	-1e10	8	-1E+10	1	-1E+10	1	-1E+10	1	-1E+10	1	-1E+10	1	-1E+10	1
4902554	99	C	11/05/2023	12:05	-133.542	47.803	0	299.80	0	4.6080	0	33.8450	0	26.806	0	297.074	0	-1e10	8	-1e10	8	-1E+10	1	-1E+10	1	-1E+10	1	-1E+10	1	-1E+10	1	-1E+10	1
4902554	99	C	11/05/2023	12:05	-133.542	47.803	0	300.80	0	4.5930	0	33.8440	0	26.807	0	298.064	0	-1e10	8	-1e10	8	-1E+10	1	-1E+10	1	-1E+10	1	-1E+10	1	-1E+10	1	-1E+10	1
4902554	99	C	11/05/2023	12:05	-133.542	47.803	0	301.80	0	4.5900	0	33.8490	0	26.811	0	299.054	0	-1e10	8	-1e10	8	-1E+10	1	-1E+10	1	-1E+10	1	-1E+10	1	-1E+10	1	-1E+10	1
4902554	99	C	11/05/2023	12:05	-133.542	47.803	0	302.70	0	4.5780	0	33.8470	0	26.811	0	299.946	0	-1e10	8	-1e10	8	-1E+10	1	-1E+10	1	-1E+10	1	-1E+10	1	-1E+10	1	-1E+10	1
4902554	99	C	11/05/2023	12:05	-133.542	47.803	0	303.70	0	4.5740	0	33.8490	0	26.813	0	300.936	0	-1e10	8	-1e10	8	-1E+10	1	-1E+10	1	-1E+10	1	-1E+10	1	-1E+10	1	-1E+10	1
4902554	99	C	11/05/2023	12:05	-133.542	47.803	0	304.70	0	4.5660	0	33.8490	0	26.814	0	301.926	0	-1e10	8	-1e10	8	-1E+10	1	-1E+10	1	-1E+10	1	-1E+10	1	-1E+10	1	-1E+10	1
4902554	99	C	11/05/2023	12:05	-133.542	47.803	0	305.70	0	4.5640	0	33.8500	0	26.815	0	302.916	0	-1e10	8	-1e10	8	-1E+10	1	-1E+10	1	-1E+10	1	-1E+10	1	-1E+10	1	-1E+10	1
4902554	99	C	11/05/2023	12:05	-133.542	47.803	0	306.70	0	4.5600	0	33.8500	0	26.815	0	303.906	0	-1e10	8	-1e10	8	-1E+10	1	-1E+10	1	-1E+10	1	-1E+10	1	-1E+10	1	-1E+10	1
4902554	99	C	11/05/2023	12:05	-133.542	47.803	0	307.70	0	4.5620	0	33.8520	0	26.816	0	304.896	0	-1e10	8	-1e10	8	-1E+10	1	-1E+10	1	-1E+10	1	-1E+10	1	-1E+10	1	-1E+10	1
4902554	99	C	11/05/2023	12:05	-133.542	47.803	0	308.70	0	4.5660	0	33.8550	0	26.818	0	305.887	0	-1e10	8	-1e10	8	-1E+10	1	-1E+10	1	-1E+10	1	-1E+10	1	-1E+10	1	-1E+10	1
4902554	99	C	11/05/2023	12:05	-133.542	47.803	0	309.70	0	4.5630	0	33.8570	0	26.820	0	306.877	0	-1e10	8	-1e10	8	-1E+10	1	-1E+10	1	-1E+10	1	-1E+10	1	-1E+10	1	-1E+10	1
4902554	99	C	11/05/2023	12:05	-133.542	47.803	0	310.70	0	4.5600	0	33.8570	0	26.821	0	307.867	0	-1e10	8	-1e10	8	-1E+10	1	-1E+10	1	-1E+10	1	-1E+10	1	-1E+10	1	-1E+10	1
4902554	99	C	11/05/2023	12:05	-133.542	47.803	0	311.80	0	4.5530	0	33.8590	0	26.823	0	308.956	0	-1e10	8	-1e10	8	-1E+10	1	-1E+10	1	-1E+10	1	-1E+10	1	-1E+10	1	-1E+10	1
4902554	99	C	11/05/2023	12:05	-133.542	47.803	0	312.80	0	4.5510	0	33.8600	0	26.824	0	309.946	0	-1e10	8	-1e10	8	-1E+10	1	-1E+10	1	-1E+10	1	-1E+10	1	-1E+10	1	-1E+10	1
4902554	99	C	11/05/2023	12:05	-133.542	47.803	0	313.80	0	4.5470	0	33.8610	0	26.825	0	310.936	0	-1e10	8	-1e10	8	-1E+10	1	-1E+10	1	-1E+10	1	-1E+10	1	-1E+10	1	-1E+10	1
4902554	99	C	11/05/2023	12:05	-133.542	47.803	0	314.80	0	4.5420	0	33.8630	0	26.827	0	311.926	0	-1e10	8	-1e10	8	-1E+10	1	-1E+10	1	-1E+10	1	-1E+10	1	-1E+10	1	-1E+10	1
4902554	99	C	11/05/2023	12:05	-133.542	47.803	0	315.90	0	4.5380	0	33.8640	0	26.829	0	313.015	0	-1e10	8	-1e10	8	-1E+10	1	-1E+10	1	-1E+10	1	-1E+10	1	-1E+10	1	-1E+10	1
4902554	99	C	11/05/2023	12:05	-133.542	47.803	0	316.90	0	4.5350	0	33.8650	0	26.830	0	314.006	0	-1e10	8	-1e10	8	-1E+10	1	-1E+10	1	-1E+10	1	-1E+10	1	-1E+10	1	-1E+10	1
4902554	99	C	11/05/2023	12:05	-133.542	47.803	0	318.00	0	4.5300	0	33.8670	0	26.832	0	315.095	0	-1e10	8	-1e10	8	-1E+10	1	-1E+10	1	-1E+10	1	-1E+10	1	-1E+10	1	-1E+10	1
4902554	99	C	11/05/2023	12:05	-133.542	47.803	0	319.00	0	4.5280	0	33.8670	0	26.832	0	316.085	0	-1e10	8	-1e10	8	-1E+10	1	-1E+10	1	-1E+10	1	-1E+10	1	-1E+10	1	-1E+10	1
4902554	99	C	11/05/2023	12:05	-133.542	47.803	0	320.00	0	4.5270	0	33.8670	0	26.832	0	317.075	0	-1e10	8	-1e10	8	-1E+10	1	-1E+10	1	-1E+10	1	-1E+10	1	-1E+10	1	-1E+10	1
4902554	99	C	11/05/2023	12:05	-133.542	47.803	0	321.00	0	4.5250	0	33.8680	0	26.833	0	318.065	0	-1e10	8	-1e10	8	-1E+10	1	-1E+10	1	-1E+10	1	-1E+10	1	-1E+10	1	-1E+10	1
4902554	99	C	11/05/2023	12:05	-133.542	47.803	0	321.90	0	4.5210	0	33.8690	0	26.834	0	318.956	0	-1e10	8	-1e10	8	-1E+10	1	-1E+10	1	-1E+10	1	-1E+10	1	-1E+10	1	-1E+10	1
4902554	99	C	11/05/2023	12:05	-133.542	47.803	0	322.90	0	4.5200	0	33.8690	0	26.835	0	319.946	0	-1e10	8	-1e10	8	-1E+10	1	-1E+10	1	-1E+10	1	-1E+10	1	-1E+10	1	-1E+10	1
4902554	99	C	11/05/2023	12:05	-133.542	47.803	0	324.00	0	4.5170	0	33.8710	0	26.836	0	321.035	0	-1e10	8	-1e10	8	-1E+10	1	-1E+10	1	-1E+10	1	-1E+10	1	-1E+10	1	-1E+10	1
4902554	99	C	11/05/2023	12:05	-133.542	47.803	0	325.20	0	4.5140	0	33.8720	0	26.838	0	322.223	0	-1e10	8	-1e10	8	-1E+10	1	-1E+10	1	-1E+10	1	-1E+10	1	-1E+10	1	-1E+10	1
4902554	99	C	11/05/2023	12:05	-133.542	47.803	0	326.00	0	4.5120	0	33.8720	0	26.838	0	323.015	0	-1e10	8	-1e10	8	-1E+10	1	-1E+10	1	-1E+10	1	-1E+10	1	-1E+10	1	-1E+10	1
4902554	99	C	11/05/2023	12:05	-133.542	47.803	0	326.70	0	4.5090	0	33.8730	0	26.839	0	323.708	0	-1e10	8	-1e10	8	-1E+10	1	-1E+10	1	-1E+10	1	-1E+10	1	-1E+10	1	-1E+10	1
4902554	99	C	11/05/2023	12:05	-133.542	47.803	0	327.90	0	4.5050	0	33.8740	0	26.840	0	324.897	0	-1e10	8	-1e10	8	-1E+10	1	-1E+10	1	-1E+10	1	-1E+10	1	-1E+10	1	-1E+10	1
4902554	99	C	11/05/2023	12:05	-133.542	47.803	0	329.00	0	4.5010	0	33.8760	0	26.842	0	325.986	0	-1e10	8	-1e10	8	-1E+10	1	-1E+10	1	-1E+10	1	-1E+10	1	-1E+10	1	-1E+10	1
4902554	99	C	11/05/2023	12:05	-133.542	47.803	0	329.80	0	4.5000	0	33.8770	0	26.843	0	326.778	0	-1e10	8	-1e10	8	-1E+10	1	-1E+10	1	-1E+10	1	-1E+10	1	-1E+10	1	-1E+10	1
4902554	99	C	11/05/2023	12:05	-133.542	47.803	0	331.00	0	4.4980	0	33.8770	0	26.843	0	327.966	0	-1e10	8	-1e10	8	-1E+10	1	-1E+10	1	-1E+10	1	-1E+10	1	-1E+10	1	-1E+10	1
4902554	99	C	11/05/2023	12:05	-133.542	47.803	0	332.20	0	4.4960	0	33.8790	0	26.845	0	329.154	0	-1e10	8	-1e10	8	-1E+10	1	-1E+10	1	-1E+10	1	-1E+10	1	-1E+10	1	-1E+10	1
4902554	99	C	11/05/2023	12:05	-133.542	47.803	0	333.00	0	4.4950	0	33.8790	0	26.845	0	329.946	0	-1e10	8	-1e10	8	-1E+10	1	-1E+10	1	-1E+10	1	-1E+10	1	-1E+10	1	-1E+10	1
4902554	99	C	11/05/2023	12:05	-133.542	47.803	0	333.80	0	4.4910	0	33.8810	0	26.847	0	330.738	0	-1e10	8	-1e10	8	-1E+10	1	-1E+10	1	-1E+10	1	-1E+10	1	-1E+10	1	-1E+10	1
4902554	99	C	11/05/2023	12:05	-133.542	47.803	0	335.00	0	4.4860	0	33.8820	0	26.849	0	331.926	0	-1e10	8	-1e10	8	-1E+10	1	-1E+10	1	-1E+10	1	-1E+10	1	-1E+10	1	-1E+10	1
4902554	99	C	11/05/2023	12:05	-133.542	47.803	0	336.20	0	4.4840	0	33.8840	0	26.850	0	333.114	0	-1e10	8	-1e10	8	-1E+10	1	-1E+10	1	-1E+10	1	-1E+10	1	-1E+10	1	-1E+10	1
4902554	99	C	11/05/2023	12:05	-133.542	47.803	0	336.90	0	4.4780	0	33.8860	0	26.853	0	333.807	0	-1e10	8	-1e10	8	-1E+10	1	-1E+10	1	-1E+10	1	-1E+10	1	-1E+10	1	-1E+10	1
4902554	99	C	11/05/2023	12:05	-133.542	47.803	0	337.70	0	4.4780	0	33.8860	0	26.853	0	334.599	0	-1e10	8	-1e10	8	-1E+10	1	-1E+10	1	-1E+10	1	-1E+10	1	-1E+10	1	-1E+10	1
4902554	99	C	11/05/2023	12:05	-133.542	47.803	0	338.90	0	4.4760	0	33.8860	0	26.853	0	335.787	0	-1e10	8	-1e10	8	-1E+10	1	-1E+10	1	-1E+10	1	-1E+10	1	-1E+10	1	-1E+10	1
4902554	99	C	11/05/2023	12:05	-133.542	47.803	0	340.10	0	4.4730	0	33.8870	0	26.854	0	336.975	0	-1e10	8	-1e10	8	-1E+10	1	-1E+10	1	-1E+10	1	-1E+10	1	-1E+10	1	-1E+10	1
4902554	99	C	11/05/2023	12:05	-133.542	47.803	0	340.90	0	4.4720	0	33.8880	0	26.855	0	337.767	0	-1e10	8	-1e10	8	-1E+10	1	-1E+10	1	-1E+10	1	-1E+10	1	-1E+10	1	-1E+10	1
4902554	99	C	11/05/2023	12:05	-133.542	47.803	0	341.70	0	4.4710	0	33.8880	0	26.855	0	338.559	0	-1e10	8	-1e10	8	-1E+10	1	-1E+10	1	-1E+10	1	-1E+10	1	-1E+10	1	-1E+10	1
4902554	99	C	11/05/2023	12:05	-133.542	47.803	0	342.90	0	4.4710	0	33.8880	0	26.855	0	339.747	0	-1e10	8	-1e10	8	-1E+10	1	-1E+10	1	-1E+10	1	-1E+10	1	-1E+10	1	-1E+10	1
4902554	99	C	11/05/2023	12:05	-133.542	47.803	0	344.20	0	4.4700	0	33.8880	0	26.855	0	341.034	0	-1e10	8	-1e10	8	-1E+10	1	-1E+10	1	-1E+10	1	-1E+10	1	-1E+10	1	-1E+10	1
4902554	99	C	11/05/2023	12:05	-133.542	47.803	0	345.00	0	4.4650	0	33.8900	0	26.857	0	341.826	0	-1e10	8	-1e10	8	-1E+10	1	-1E+10	1	-1E+10	1	-1E+10	1	-1E+10	1	-1E+10	1
4902554	99	C	11/05/2023	12:05	-133.542	47.803	0	345.80	0	4.4640	0	33.8910	0	26.858	0	342.618	0	-1e10	8	-1e10	8	-1E+10	1	-1E+10	1	-1E+10	1	-1E+10	1	-1E+10	1	-1E+10	1
4902554	99	C	11/05/2023	12:05	-133.542	47.803	0	346.70	0	4.4570	0	33.8930	0	26.861	0	343.509	0	-1e10	8	-1e10	8	-1E+10	1	-1E+10	1	-1E+10	1	-1E+10	1	-1E+10	1	-1E+10	1
4902554	99	C	11/05/2023	12:05	-133.542	47.803	0	347.90	0	4.4540	0	33.8940	0	26.862	0	344.697	0	-1e10	8	-1e10	8	-1E+10	1	-1E+10	1	-1E+10	1	-1E+10	1	-1E+10	1	-1E+10	1
4902554	99	C	11/05/2023	12:05	-133.542	47.803	0	349.20	0	4.4520	0	33.8950	0	26.863	0	345.984	0	-1e10	8	-1e10	8	-1E+10	1	-1E+10	1	-1E+10	1	-1E+10	1	-1E+10	1	-1E+10	1
4902554	99	C	11/05/2023	12:05	-133.542	47.803	0	350.00	0	4.4500	0	33.8960	0	26.864	0	346.776	0	-1e10	8	-1e10	8	-1E+10	1	-1E+10	1	-1E+10	1	-1E+10	1	-1E+10	1	-1E+10	1
4902554	99	C	11/05/2023	12:05	-133.542	47.803	0	352.90	0	4.4430	0	33.8980	0	26.866	0	349.646	0	-1e10	8	-1e10	8	-1E+10	1	-1E+10	1	-1E+10	1	-1E+10	1	-1E+10	1	-1E+10	1
4902554	99	C	11/05/2023	12:05	-133.542	47.803	0	358.00	0	4.4220	0	33.9060	0	26.875	0	354.695	0	-1e10	8	-1e10	8	-1E+10	1	-1E+10	1	-1E+10	1	-1E+10	1	-1E+10	1	-1E+10	1
4902554	99	C	11/05/2023	12:05	-133.542	47.803	0	363.00	0	4.3970	0	33.9140	0	26.884	0	359.645	0	-1e10	8	-1e10	8	-1E+10	1	-1E+10	1	-1E+10	1	-1E+10	1	-1E+10	1	-1E+10	1
4902554	99	C	11/05/2023	12:05	-133.542	47.803	0	368.00	0	4.3830	0	33.9200	0	26.890	0	364.594	0	-1e10	8	-1e10	8	-1E+10	1	-1E+10	1	-1E+10	1	-1E+10	1	-1E+10	1	-1E+10	1
4902554	99	C	11/05/2023	12:05	-133.542	47.803	0	373.00	0	4.3750	0	33.9280	0	26.897	0	369.543	0	-1e10	8	-1e10	8	-1E+10	1	-1E+10	1	-1E+10	1	-1E+10	1	-1E+10	1	-1E+10	1
4902554	99	C	11/05/2023	12:05	-133.542	47.803	0	378.00	0	4.3550	0	33.9330	0	26.903	0	374.492	0	-1e10	8	-1e10	8	-1E+10	1	-1E+10	1	-1E+10	1	-1E+10	1	-1E+10	1	-1E+10	1
4902554	99	C	11/05/2023	12:05	-133.542	47.803	0	383.10	0	4.3430	0	33.9390	0	26.909	0	379.540	0	-1e10	8	-1e10	8	-1E+10	1	-1E+10	1	-1E+10	1	-1E+10	1	-1E+10	1	-1E+10	1
4902554	99	C	11/05/2023	12:05	-133.542	47.803	0	388.20	0	4.3280	0	33.9460	0	26.917	0	384.588	0	-1e10	8	-1e10	8	-1E+10	1	-1E+10	1	-1E+10	1	-1E+10	1	-1E+10	1	-1E+10	1
4902554	99	C	11/05/2023	12:05	-133.542	47.803	0	392.90	0	4.3110	0	33.9480	0	26.920	0	389.240	0	-1e10	8	-1e10	8	-1E+10	1	-1E+10	1	-1E+10	1	-1E+10	1	-1E+10	1	-1E+10	1
4902554	99	C	11/05/2023	12:05	-133.542	47.803	0	397.60	0	4.3080	0	33.9530	0	26.924	0	393.892	0	-1e10	8	-1e10	8	-1E+10	1	-1E+10	1	-1E+10	1	-1E+10	1	-1E+10	1	-1E+10	1
4902554	99	C	11/05/2023	12:05	-133.542	47.803	0	402.80	0	4.3050	0	33.9630	0	26.933	0	399.038	0	-1e10	8	-1e10	8	-1E+10	1	-1E+10	1	-1E+10	1	-1E+10	1	-1E+10	1	-1E+10	1
4902554	99	C	11/05/2023	12:05	-133.542	47.803	0	408.10	0	4.2870	0	33.9690	0	26.939	0	404.284	0	-1e10	8	-1e10	8	-1E+10	1	-1E+10	1	-1E+10	1	-1E+10	1	-1E+10	1	-1E+10	1
4902554	99	C	11/05/2023	12:05	-133.542	47.803	0	413.10	0	4.2780	0	33.9750	0	26.945	0	409.232	0	-1e10	8	-1e10	8	-1E+10	1	-1E+10	1	-1E+10	1	-1E+10	1	-1E+10	1	-1E+10	1
4902554	99	C	11/05/2023	12:05	-133.542	47.803	0	417.70	0	4.2710	0	33.9800	0	26.950	0	413.784	0	-1e10	8	-1e10	8	-1E+10	1	-1E+10	1	-1E+10	1	-1E+10	1	-1E+10	1	-1E+10	1
4902554	99	C	11/05/2023	12:05	-133.542	47.803	0	422.80	0	4.2630	0	33.9840	0	26.954	0	418.831	0	-1e10	8	-1e10	8	-1E+10	1	-1E+10	1	-1E+10	1	-1E+10	1	-1E+10	1	-1E+10	1
4902554	99	C	11/05/2023	12:05	-133.542	47.803	0	427.90	0	4.2540	0	33.9870	0	26.957	0	423.878	0	-1e10	8	-1e10	8	-1E+10	1	-1E+10	1	-1E+10	1	-1E+10	1	-1E+10	1	-1E+10	1
4902554	99	C	11/05/2023	12:05	-133.542	47.803	0	432.90	0	4.2450	0	33.9940	0	26.964	0	428.826	0	-1e10	8	-1e10	8	-1E+10	1	-1E+10	1	-1E+10	1	-1E+10	1	-1E+10	1	-1E+10	1
4902554	99	C	11/05/2023	12:05	-133.542	47.803	0	438.00	0	4.2330	0	34.0000	0	26.970	0	433.873	0	-1e10	8	-1e10	8	-1E+10	1	-1E+10	1	-1E+10	1	-1E+10	1	-1E+10	1	-1E+10	1
4902554	99	C	11/05/2023	12:05	-133.542	47.803	0	443.00	0	4.2290	0	34.0020	0	26.972	0	438.821	0	-1e10	8	-1e10	8	-1E+10	1	-1E+10	1	-1E+10	1	-1E+10	1	-1E+10	1	-1E+10	1
4902554	99	C	11/05/2023	12:05	-133.542	47.803	0	448.10	0	4.2250	0	34.0070	0	26.976	0	443.867	0	-1e10	8	-1e10	8	-1E+10	1	-1E+10	1	-1E+10	1	-1E+10	1	-1E+10	1	-1E+10	1
4902554	99	C	11/05/2023	12:05	-133.542	47.803	0	452.70	0	4.2190	0	34.0110	0	26.980	0	448.419	0	-1e10	8	-1e10	8	-1E+10	1	-1E+10	1	-1E+10	1	-1E+10	1	-1E+10	1	-1E+10	1
4902554	99	C	11/05/2023	12:05	-133.542	47.803	0	457.90	0	4.2100	0	34.0170	0	26.986	0	453.564	0	-1e10	8	-1e10	8	-1E+10	1	-1E+10	1	-1E+10	1	-1E+10	1	-1E+10	1	-1E+10	1
4902554	99	C	11/05/2023	12:05	-133.542	47.803	0	463.00	0	4.1980	0	34.0200	0	26.990	0	458.610	0	-1e10	8	-1e10	8	-1E+10	1	-1E+10	1	-1E+10	1	-1E+10	1	-1E+10	1	-1E+10	1
4902554	99	C	11/05/2023	12:05	-133.542	47.803	0	467.80	0	4.1880	0	34.0240	0	26.994	0	463.359	0	-1e10	8	-1e10	8	-1E+10	1	-1E+10	1	-1E+10	1	-1E+10	1	-1E+10	1	-1E+10	1
4902554	99	C	11/05/2023	12:05	-133.542	47.803	0	473.00	0	4.1800	0	34.0330	0	27.002	0	468.504	0	-1e10	8	-1e10	8	-1E+10	1	-1E+10	1	-1E+10	1	-1E+10	1	-1E+10	1	-1E+10	1
4902554	99	C	11/05/2023	12:05	-133.542	47.803	0	478.30	0	4.1750	0	34.0360	0	27.005	0	473.747	0	-1e10	8	-1e10	8	-1E+10	1	-1E+10	1	-1E+10	1	-1E+10	1	-1E+10	1	-1E+10	1
4902554	99	C	11/05/2023	12:05	-133.542	47.803	0	483.10	0	4.1750	0	34.0430	0	27.011	0	478.496	0	-1e10	8	-1e10	8	-1E+10	1	-1E+10	1	-1E+10	1	-1E+10	1	-1E+10	1	-1E+10	1
4902554	99	C	11/05/2023	12:05	-133.542	47.803	0	488.00	0	4.1720	0	34.0490	0	27.016	0	483.344	0	-1e10	8	-1e10	8	-1E+10	1	-1E+10	1	-1E+10	1	-1E+10	1	-1E+10	1	-1E+10	1
4902554	99	C	11/05/2023	12:05	-133.542	47.803	0	492.90	0	4.1690	0	34.0560	0	27.022	0	488.191	0	-1e10	8	-1e10	8	-1E+10	1	-1E+10	1	-1E+10	1	-1E+10	1	-1E+10	1	-1E+10	1
4902554	99	C	11/05/2023	12:05	-133.542	47.803	0	497.90	0	4.1600	0	34.0660	0	27.030	0	493.137	0	-1e10	8	-1e10	8	-1E+10	1	-1E+10	1	-1E+10	1	-1E+10	1	-1E+10	1	-1E+10	1
4902554	99	C	11/05/2023	12:05	-133.542	47.803	0	503.10	0	4.1470	0	34.0720	0	27.037	0	498.281	0	-1e10	8	-1e10	8	-1E+10	1	-1E+10	1	-1E+10	1	-1E+10	1	-1E+10	1	-1E+10	1
4902554	99	C	11/05/2023	12:05	-133.542	47.803	0	507.90	0	4.1340	0	34.0740	0	27.040	0	503.030	0	-1e10	8	-1e10	8	-1E+10	1	-1E+10	1	-1E+10	1	-1E+10	1	-1E+10	1	-1E+10	1
4902554	99	C	11/05/2023	12:05	-133.542	47.803	0	512.60	0	4.1080	0	34.0760	0	27.044	0	507.679	0	-1e10	8	-1e10	8	-1E+10	1	-1E+10	1	-1E+10	1	-1E+10	1	-1E+10	1	-1E+10	1
4902554	99	C	11/05/2023	12:05	-133.542	47.803	0	517.90	0	4.0990	0	34.0810	0	27.049	0	512.921	0	-1e10	8	-1e10	8	-1E+10	1	-1E+10	1	-1E+10	1	-1E+10	1	-1E+10	1	-1E+10	1
4902554	99	C	11/05/2023	12:05	-133.542	47.803	0	522.80	0	4.0880	0	34.0830	0	27.052	0	517.768	0	-1e10	8	-1e10	8	-1E+10	1	-1E+10	1	-1E+10	1	-1E+10	1	-1E+10	1	-1E+10	1
4902554	99	C	11/05/2023	12:05	-133.542	47.803	0	527.60	0	4.0830	0	34.0860	0	27.055	0	522.516	0	-1e10	8	-1e10	8	-1E+10	1	-1E+10	1	-1E+10	1	-1E+10	1	-1E+10	1	-1E+10	1
4902554	99	C	11/05/2023	12:05	-133.542	47.803	0	533.00	0	4.0710	0	34.0910	0	27.060	0	527.857	0	-1e10	8	-1e10	8	-1E+10	1	-1E+10	1	-1E+10	1	-1E+10	1	-1E+10	1	-1E+10	1
4902554	99	C	11/05/2023	12:05	-133.542	47.803	0	537.90	0	4.0620	0	34.0940	0	27.063	0	532.704	0	-1e10	8	-1e10	8	-1E+10	1	-1E+10	1	-1E+10	1	-1E+10	1	-1E+10	1	-1E+10	1
4902554	99	C	11/05/2023	12:05	-133.542	47.803	0	542.90	0	4.0500	0	34.0990	0	27.068	0	537.649	0	-1e10	8	-1e10	8	-1E+10	1	-1E+10	1	-1E+10	1	-1E+10	1	-1E+10	1	-1E+10	1
4902554	99	C	11/05/2023	12:05	-133.542	47.803	0	547.90	0	4.0310	0	34.1050	0	27.075	0	542.594	0	-1e10	8	-1e10	8	-1E+10	1	-1E+10	1	-1E+10	1	-1E+10	1	-1E+10	1	-1E+10	1
4902554	99	C	11/05/2023	12:05	-133.542	47.803	0	552.80	0	4.0070	0	34.1110	0	27.082	0	547.440	0	-1e10	8	-1e10	8	-1E+10	1	-1E+10	1	-1E+10	1	-1E+10	1	-1E+10	1	-1E+10	1
4902554	99	C	11/05/2023	12:05	-133.542	47.803	0	557.70	0	3.9980	0	34.1130	0	27.085	0	552.286	0	-1e10	8	-1e10	8	-1E+10	1	-1E+10	1	-1E+10	1	-1E+10	1	-1E+10	1	-1E+10	1
4902554	99	C	11/05/2023	12:05	-133.542	47.803	0	562.70	0	3.9880	0	34.1170	0	27.089	0	557.231	0	-1e10	8	-1e10	8	-1E+10	1	-1E+10	1	-1E+10	1	-1E+10	1	-1E+10	1	-1E+10	1
4902554	99	C	11/05/2023	12:05	-133.542	47.803	0	567.70	0	3.9780	0	34.1220	0	27.094	0	562.175	0	-1e10	8	-1e10	8	-1E+10	1	-1E+10	1	-1E+10	1	-1E+10	1	-1E+10	1	-1E+10	1
4902554	99	C	11/05/2023	12:05	-133.542	47.803	0	572.80	0	3.9680	0	34.1250	0	27.098	0	567.219	0	-1e10	8	-1e10	8	-1E+10	1	-1E+10	1	-1E+10	1	-1E+10	1	-1E+10	1	-1E+10	1
4902554	99	C	11/05/2023	12:05	-133.542	47.803	0	577.70	0	3.9520	0	34.1310	0	27.104	0	572.064	0	-1e10	8	-1e10	8	-1E+10	1	-1E+10	1	-1E+10	1	-1E+10	1	-1E+10	1	-1E+10	1
4902554	99	C	11/05/2023	12:05	-133.542	47.803	0	582.70	0	3.9450	0	34.1330	0	27.106	0	577.009	0	-1e10	8	-1e10	8	-1E+10	1	-1E+10	1	-1E+10	1	-1E+10	1	-1E+10	1	-1E+10	1
4902554	99	C	11/05/2023	12:05	-133.542	47.803	0	587.70	0	3.9380	0	34.1360	0	27.110	0	581.953	0	-1e10	8	-1e10	8	-1E+10	1	-1E+10	1	-1E+10	1	-1E+10	1	-1E+10	1	-1E+10	1
4902554	99	C	11/05/2023	12:05	-133.542	47.803	0	592.60	0	3.9250	0	34.1410	0	27.115	0	586.798	0	-1e10	8	-1e10	8	-1E+10	1	-1E+10	1	-1E+10	1	-1E+10	1	-1E+10	1	-1E+10	1
4902554	99	C	11/05/2023	12:05	-133.542	47.803	0	597.60	0	3.9130	0	34.1450	0	27.119	0	591.742	0	-1e10	8	-1e10	8	-1E+10	1	-1E+10	1	-1E+10	1	-1E+10	1	-1E+10	1	-1E+10	1
4902554	99	C	11/05/2023	12:05	-133.542	47.803	0	602.70	0	3.9030	0	34.1490	0	27.124	0	596.785	0	-1e10	8	-1e10	8	-1E+10	1	-1E+10	1	-1E+10	1	-1E+10	1	-1E+10	1	-1E+10	1
4902554	99	C	11/05/2023	12:05	-133.542	47.803	0	607.80	0	3.8890	0	34.1540	0	27.129	0	601.827	0	-1e10	8	-1e10	8	-1E+10	1	-1E+10	1	-1E+10	1	-1E+10	1	-1E+10	1	-1E+10	1
4902554	99	C	11/05/2023	12:05	-133.542	47.803	0	613.00	0	3.8790	0	34.1590	0	27.134	0	606.969	0	-1e10	8	-1e10	8	-1E+10	1	-1E+10	1	-1E+10	1	-1E+10	1	-1E+10	1	-1E+10	1
4902554	99	C	11/05/2023	12:05	-133.542	47.803	0	618.20	0	3.8650	0	34.1630	0	27.139	0	612.110	0	-1e10	8	-1e10	8	-1E+10	1	-1E+10	1	-1E+10	1	-1E+10	1	-1E+10	1	-1E+10	1
4902554	99	C	11/05/2023	12:05	-133.542	47.803	0	623.10	0	3.8540	0	34.1670	0	27.143	0	616.954	0	-1e10	8	-1e10	8	-1E+10	1	-1E+10	1	-1E+10	1	-1E+10	1	-1E+10	1	-1E+10	1
4902554	99	C	11/05/2023	12:05	-133.542	47.803	0	628.00	0	3.8450	0	34.1710	0	27.147	0	621.799	0	-1e10	8	-1e10	8	-1E+10	1	-1E+10	1	-1E+10	1	-1E+10	1	-1E+10	1	-1E+10	1
4902554	99	C	11/05/2023	12:05	-133.542	47.803	0	632.80	0	3.8360	0	34.1740	0	27.150	0	626.544	0	-1e10	8	-1e10	8	-1E+10	1	-1E+10	1	-1E+10	1	-1E+10	1	-1E+10	1	-1E+10	1
4902554	99	C	11/05/2023	12:05	-133.542	47.803	0	637.60	0	3.8290	0	34.1760	0	27.153	0	631.289	0	-1e10	8	-1e10	8	-1E+10	1	-1E+10	1	-1E+10	1	-1E+10	1	-1E+10	1	-1E+10	1
4902554	99	C	11/05/2023	12:05	-133.542	47.803	0	642.90	0	3.8140	0	34.1810	0	27.158	0	636.529	0	-1e10	8	-1e10	8	-1E+10	1	-1E+10	1	-1E+10	1	-1E+10	1	-1E+10	1	-1E+10	1
4902554	99	C	11/05/2023	12:05	-133.542	47.803	0	647.90	0	3.7990	0	34.1860	0	27.164	0	641.471	0	-1e10	8	-1e10	8	-1E+10	1	-1E+10	1	-1E+10	1	-1E+10	1	-1E+10	1	-1E+10	1
4902554	99	C	11/05/2023	12:05	-133.542	47.803	0	652.80	0	3.7830	0	34.1900	0	27.169	0	646.315	0	-1e10	8	-1e10	8	-1E+10	1	-1E+10	1	-1E+10	1	-1E+10	1	-1E+10	1	-1E+10	1
4902554	99	C	11/05/2023	12:05	-133.542	47.803	0	657.80	0	3.7740	0	34.1930	0	27.172	0	651.258	0	-1e10	8	-1e10	8	-1E+10	1	-1E+10	1	-1E+10	1	-1E+10	1	-1E+10	1	-1E+10	1
4902554	99	C	11/05/2023	12:05	-133.542	47.803	0	662.80	0	3.7540	0	34.1980	0	27.178	0	656.200	0	-1e10	8	-1e10	8	-1E+10	1	-1E+10	1	-1E+10	1	-1E+10	1	-1E+10	1	-1E+10	1
4902554	99	C	11/05/2023	12:05	-133.542	47.803	0	667.90	0	3.7370	0	34.2030	0	27.184	0	661.241	0	-1e10	8	-1e10	8	-1E+10	1	-1E+10	1	-1E+10	1	-1E+10	1	-1E+10	1	-1E+10	1
4902554	99	C	11/05/2023	12:05	-133.542	47.803	0	672.60	0	3.7310	0	34.2060	0	27.187	0	665.887	0	-1e10	8	-1e10	8	-1E+10	1	-1E+10	1	-1E+10	1	-1E+10	1	-1E+10	1	-1E+10	1
4902554	99	C	11/05/2023	12:05	-133.542	47.803	0	677.90	0	3.7210	0	34.2080	0	27.189	0	671.125	0	-1e10	8	-1e10	8	-1E+10	1	-1E+10	1	-1E+10	1	-1E+10	1	-1E+10	1	-1E+10	1
4902554	99	C	11/05/2023	12:05	-133.542	47.803	0	683.40	0	3.7070	0	34.2120	0	27.194	0	676.562	0	-1e10	8	-1e10	8	-1E+10	1	-1E+10	1	-1E+10	1	-1E+10	1	-1E+10	1	-1E+10	1
4902554	99	C	11/05/2023	12:05	-133.542	47.803	0	688.20	0	3.6930	0	34.2160	0	27.198	0	681.306	0	-1e10	8	-1e10	8	-1E+10	1	-1E+10	1	-1E+10	1	-1E+10	1	-1E+10	1	-1E+10	1
4902554	99	C	11/05/2023	12:05	-133.542	47.803	0	693.10	0	3.6820	0	34.2190	0	27.202	0	686.149	0	-1e10	8	-1e10	8	-1E+10	1	-1E+10	1	-1E+10	1	-1E+10	1	-1E+10	1	-1E+10	1
4902554	99	C	11/05/2023	12:05	-133.542	47.803	0	698.00	0	3.6720	0	34.2240	0	27.207	0	690.991	0	-1e10	8	-1e10	8	-1E+10	1	-1E+10	1	-1E+10	1	-1E+10	1	-1E+10	1	-1E+10	1
4902554	99	C	11/05/2023	12:05	-133.542	47.803	0	703.00	0	3.6650	0	34.2270	0	27.210	0	695.933	0	-1e10	8	-1e10	8	-1E+10	1	-1E+10	1	-1E+10	1	-1E+10	1	-1E+10	1	-1E+10	1
4902554	99	C	11/05/2023	12:05	-133.542	47.803	0	707.90	0	3.6530	0	34.2330	0	27.216	0	700.775	0	-1e10	8	-1e10	8	-1E+10	1	-1E+10	1	-1E+10	1	-1E+10	1	-1E+10	1	-1E+10	1
4902554	99	C	11/05/2023	12:05	-133.542	47.803	0	713.00	0	3.6440	0	34.2360	0	27.219	0	705.815	0	-1e10	8	-1e10	8	-1E+10	1	-1E+10	1	-1E+10	1	-1E+10	1	-1E+10	1	-1E+10	1
4902554	99	C	11/05/2023	12:05	-133.542	47.803	0	717.70	0	3.6320	0	34.2380	0	27.222	0	710.460	0	-1e10	8	-1e10	8	-1E+10	1	-1E+10	1	-1E+10	1	-1E+10	1	-1E+10	1	-1E+10	1
4902554	99	C	11/05/2023	12:05	-133.542	47.803	0	722.80	0	3.6090	0	34.2410	0	27.227	0	715.500	0	-1e10	8	-1e10	8	-1E+10	1	-1E+10	1	-1E+10	1	-1E+10	1	-1E+10	1	-1E+10	1
4902554	99	C	11/05/2023	12:05	-133.542	47.803	0	728.20	0	3.5800	0	34.2450	0	27.233	0	720.836	0	-1e10	8	-1e10	8	-1E+10	1	-1E+10	1	-1E+10	1	-1E+10	1	-1E+10	1	-1E+10	1
4902554	99	C	11/05/2023	12:05	-133.542	47.803	0	732.80	0	3.5750	0	34.2480	0	27.236	0	725.381	0	-1e10	8	-1e10	8	-1E+10	1	-1E+10	1	-1E+10	1	-1E+10	1	-1E+10	1	-1E+10	1
4902554	99	C	11/05/2023	12:05	-133.542	47.803	0	737.60	0	3.5590	0	34.2520	0	27.240	0	730.124	0	-1e10	8	-1e10	8	-1E+10	1	-1E+10	1	-1E+10	1	-1E+10	1	-1E+10	1	-1E+10	1
4902554	99	C	11/05/2023	12:05	-133.542	47.803	0	743.10	0	3.5380	0	34.2550	0	27.245	0	735.559	0	-1e10	8	-1e10	8	-1E+10	1	-1E+10	1	-1E+10	1	-1E+10	1	-1E+10	1	-1E+10	1
4902554	99	C	11/05/2023	12:05	-133.542	47.803	0	748.20	0	3.5320	0	34.2570	0	27.247	0	740.598	0	-1e10	8	-1e10	8	-1E+10	1	-1E+10	1	-1E+10	1	-1E+10	1	-1E+10	1	-1E+10	1
4902554	99	C	11/05/2023	12:05	-133.542	47.803	0	752.90	0	3.5250	0	34.2600	0	27.250	0	745.242	0	-1e10	8	-1e10	8	-1E+10	1	-1E+10	1	-1E+10	1	-1E+10	1	-1E+10	1	-1E+10	1
4902554	99	C	11/05/2023	12:05	-133.542	47.803	0	757.70	0	3.5180	0	34.2620	0	27.252	0	749.985	0	-1e10	8	-1e10	8	-1E+10	1	-1E+10	1	-1E+10	1	-1E+10	1	-1E+10	1	-1E+10	1
4902554	99	C	11/05/2023	12:05	-133.542	47.803	0	762.60	0	3.5020	0	34.2660	0	27.257	0	754.826	0	-1e10	8	-1e10	8	-1E+10	1	-1E+10	1	-1E+10	1	-1E+10	1	-1E+10	1	-1E+10	1
4902554	99	C	11/05/2023	12:05	-133.542	47.803	0	767.50	0	3.4920	0	34.2680	0	27.260	0	759.667	0	-1e10	8	-1e10	8	-1E+10	1	-1E+10	1	-1E+10	1	-1E+10	1	-1E+10	1	-1E+10	1
4902554	99	C	11/05/2023	12:05	-133.542	47.803	0	772.90	0	3.4850	0	34.2700	0	27.262	0	765.002	0	-1e10	8	-1e10	8	-1E+10	1	-1E+10	1	-1E+10	1	-1E+10	1	-1E+10	1	-1E+10	1
4902554	99	C	11/05/2023	12:05	-133.542	47.803	0	777.90	0	3.4780	0	34.2710	0	27.264	0	769.942	0	-1e10	8	-1e10	8	-1E+10	1	-1E+10	1	-1E+10	1	-1E+10	1	-1E+10	1	-1E+10	1
4902554	99	C	11/05/2023	12:05	-133.542	47.803	0	782.50	0	3.4730	0	34.2730	0	27.266	0	774.486	0	-1e10	8	-1e10	8	-1E+10	1	-1E+10	1	-1E+10	1	-1E+10	1	-1E+10	1	-1E+10	1
4902554	99	C	11/05/2023	12:05	-133.542	47.803	0	787.60	0	3.4650	0	34.2760	0	27.269	0	779.524	0	-1e10	8	-1e10	8	-1E+10	1	-1E+10	1	-1E+10	1	-1E+10	1	-1E+10	1	-1E+10	1
4902554	99	C	11/05/2023	12:05	-133.542	47.803	0	792.80	0	3.4530	0	34.2780	0	27.272	0	784.661	0	-1e10	8	-1e10	8	-1E+10	1	-1E+10	1	-1E+10	1	-1E+10	1	-1E+10	1	-1E+10	1
4902554	99	C	11/05/2023	12:05	-133.542	47.803	0	798.00	0	3.4350	0	34.2820	0	27.277	0	789.798	0	-1e10	8	-1e10	8	-1E+10	1	-1E+10	1	-1E+10	1	-1E+10	1	-1E+10	1	-1E+10	1
4902554	99	C	11/05/2023	12:05	-133.542	47.803	0	803.20	0	3.4280	0	34.2840	0	27.279	0	794.935	0	-1e10	8	-1e10	8	-1E+10	1	-1E+10	1	-1E+10	1	-1E+10	1	-1E+10	1	-1E+10	1
4902554	99	C	11/05/2023	12:05	-133.542	47.803	0	808.00	0	3.4260	0	34.2850	0	27.280	0	799.676	0	-1e10	8	-1e10	8	-1E+10	1	-1E+10	1	-1E+10	1	-1E+10	1	-1E+10	1	-1E+10	1
4902554	99	C	11/05/2023	12:05	-133.542	47.803	0	812.70	0	3.4160	0	34.2870	0	27.283	0	804.319	0	-1e10	8	-1e10	8	-1E+10	1	-1E+10	1	-1E+10	1	-1E+10	1	-1E+10	1	-1E+10	1
4902554	99	C	11/05/2023	12:05	-133.542	47.803	0	817.90	0	3.4050	0	34.2890	0	27.285	0	809.455	0	-1e10	8	-1e10	8	-1E+10	1	-1E+10	1	-1E+10	1	-1E+10	1	-1E+10	1	-1E+10	1
4902554	99	C	11/05/2023	12:05	-133.542	47.803	0	823.20	0	3.3970	0	34.2920	0	27.288	0	814.690	0	-1e10	8	-1e10	8	-1E+10	1	-1E+10	1	-1E+10	1	-1E+10	1	-1E+10	1	-1E+10	1
4902554	99	C	11/05/2023	12:05	-133.542	47.803	0	828.30	0	3.3870	0	34.2940	0	27.291	0	819.727	0	-1e10	8	-1e10	8	-1E+10	1	-1E+10	1	-1E+10	1	-1E+10	1	-1E+10	1	-1E+10	1
4902554	99	C	11/05/2023	12:05	-133.542	47.803	0	833.00	0	3.3770	0	34.2970	0	27.294	0	824.369	0	-1e10	8	-1e10	8	-1E+10	1	-1E+10	1	-1E+10	1	-1E+10	1	-1E+10	1	-1E+10	1
4902554	99	C	11/05/2023	12:05	-133.542	47.803	0	837.60	0	3.3730	0	34.2970	0	27.295	0	828.912	0	-1e10	8	-1e10	8	-1E+10	1	-1E+10	1	-1E+10	1	-1E+10	1	-1E+10	1	-1E+10	1
4902554	99	C	11/05/2023	12:05	-133.542	47.803	0	842.80	0	3.3700	0	34.2980	0	27.296	0	834.048	0	-1e10	8	-1e10	8	-1E+10	1	-1E+10	1	-1E+10	1	-1E+10	1	-1E+10	1	-1E+10	1
4902554	99	C	11/05/2023	12:05	-133.542	47.803	0	848.10	0	3.3640	0	34.2990	0	27.297	0	839.282	0	-1e10	8	-1e10	8	-1E+10	1	-1E+10	1	-1E+10	1	-1E+10	1	-1E+10	1	-1E+10	1
4902554	99	C	11/05/2023	12:05	-133.542	47.803	0	852.90	0	3.3560	0	34.3010	0	27.300	0	844.023	0	-1e10	8	-1e10	8	-1E+10	1	-1E+10	1	-1E+10	1	-1E+10	1	-1E+10	1	-1E+10	1
4902554	99	C	11/05/2023	12:05	-133.542	47.803	0	857.70	0	3.3460	0	34.3040	0	27.303	0	848.763	0	-1e10	8	-1e10	8	-1E+10	1	-1E+10	1	-1E+10	1	-1E+10	1	-1E+10	1	-1E+10	1
4902554	99	C	11/05/2023	12:05	-133.542	47.803	0	863.00	0	3.3390	0	34.3060	0	27.305	0	853.997	0	-1e10	8	-1e10	8	-1E+10	1	-1E+10	1	-1E+10	1	-1E+10	1	-1E+10	1	-1E+10	1
4902554	99	C	11/05/2023	12:05	-133.542	47.803	0	867.80	0	3.3300	0	34.3070	0	27.307	0	858.737	0	-1e10	8	-1e10	8	-1E+10	1	-1E+10	1	-1E+10	1	-1E+10	1	-1E+10	1	-1E+10	1
4902554	99	C	11/05/2023	12:05	-133.542	47.803	0	872.50	0	3.3130	0	34.3110	0	27.312	0	863.378	0	-1e10	8	-1e10	8	-1E+10	1	-1E+10	1	-1E+10	1	-1E+10	1	-1E+10	1	-1E+10	1
4902554	99	C	11/05/2023	12:05	-133.542	47.803	0	877.70	0	3.3050	0	34.3140	0	27.315	0	868.513	0	-1e10	8	-1e10	8	-1E+10	1	-1E+10	1	-1E+10	1	-1E+10	1	-1E+10	1	-1E+10	1
4902554	99	C	11/05/2023	12:05	-133.542	47.803	0	883.00	0	3.2990	0	34.3160	0	27.317	0	873.747	0	-1e10	8	-1e10	8	-1E+10	1	-1E+10	1	-1E+10	1	-1E+10	1	-1E+10	1	-1E+10	1
4902554	99	C	11/05/2023	12:05	-133.542	47.803	0	888.20	0	3.2850	0	34.3200	0	27.322	0	878.881	0	-1e10	8	-1e10	8	-1E+10	1	-1E+10	1	-1E+10	1	-1E+10	1	-1E+10	1	-1E+10	1
4902554	99	C	11/05/2023	12:05	-133.542	47.803	0	892.80	0	3.2690	0	34.3240	0	27.326	0	883.423	0	-1e10	8	-1e10	8	-1E+10	1	-1E+10	1	-1E+10	1	-1E+10	1	-1E+10	1	-1E+10	1
4902554	99	C	11/05/2023	12:05	-133.542	47.803	0	897.50	0	3.2600	0	34.3260	0	27.329	0	888.064	0	-1e10	8	-1e10	8	-1E+10	1	-1E+10	1	-1E+10	1	-1E+10	1	-1E+10	1	-1E+10	1
4902554	99	C	11/05/2023	12:05	-133.542	47.803	0	902.90	0	3.2540	0	34.3270	0	27.330	0	893.396	0	-1e10	8	-1e10	8	-1E+10	1	-1E+10	1	-1E+10	1	-1E+10	1	-1E+10	1	-1E+10	1
4902554	99	C	11/05/2023	12:05	-133.542	47.803	0	907.70	0	3.2450	0	34.3290	0	27.333	0	898.135	0	-1e10	8	-1e10	8	-1E+10	1	-1E+10	1	-1E+10	1	-1E+10	1	-1E+10	1	-1E+10	1
4902554	99	C	11/05/2023	12:05	-133.542	47.803	0	912.90	0	3.2360	0	34.3310	0	27.335	0	903.269	0	-1e10	8	-1e10	8	-1E+10	1	-1E+10	1	-1E+10	1	-1E+10	1	-1E+10	1	-1E+10	1
4902554	99	C	11/05/2023	12:05	-133.542	47.803	0	918.10	0	3.2280	0	34.3330	0	27.338	0	908.403	0	-1e10	8	-1e10	8	-1E+10	1	-1E+10	1	-1E+10	1	-1E+10	1	-1E+10	1	-1E+10	1
4902554	99	C	11/05/2023	12:05	-133.542	47.803	0	923.00	0	3.2220	0	34.3340	0	27.339	0	913.240	0	-1e10	8	-1e10	8	-1E+10	1	-1E+10	1	-1E+10	1	-1E+10	1	-1E+10	1	-1E+10	1
4902554	99	C	11/05/2023	12:05	-133.542	47.803	0	927.90	0	3.2170	0	34.3360	0	27.341	0	918.078	0	-1e10	8	-1e10	8	-1E+10	1	-1E+10	1	-1E+10	1	-1E+10	1	-1E+10	1	-1E+10	1
4902554	99	C	11/05/2023	12:05	-133.542	47.803	0	932.80	0	3.2110	0	34.3380	0	27.343	0	922.915	0	-1e10	8	-1e10	8	-1E+10	1	-1E+10	1	-1E+10	1	-1E+10	1	-1E+10	1	-1E+10	1
4902554	99	C	11/05/2023	12:05	-133.542	47.803	0	937.80	0	3.1990	0	34.3400	0	27.346	0	927.851	0	-1e10	8	-1e10	8	-1E+10	1	-1E+10	1	-1E+10	1	-1E+10	1	-1E+10	1	-1E+10	1
4902554	99	C	11/05/2023	12:05	-133.542	47.803	0	942.80	0	3.1900	0	34.3420	0	27.348	0	932.787	0	-1e10	8	-1e10	8	-1E+10	1	-1E+10	1	-1E+10	1	-1E+10	1	-1E+10	1	-1E+10	1
4902554	99	C	11/05/2023	12:05	-133.542	47.803	0	948.00	0	3.1740	0	34.3450	0	27.352	0	937.920	0	-1e10	8	-1e10	8	-1E+10	1	-1E+10	1	-1E+10	1	-1E+10	1	-1E+10	1	-1E+10	1
4902554	99	C	11/05/2023	12:05	-133.542	47.803	0	953.20	0	3.1650	0	34.3480	0	27.356	0	943.053	0	-1e10	8	-1e10	8	-1E+10	1	-1E+10	1	-1E+10	1	-1E+10	1	-1E+10	1	-1E+10	1
4902554	99	C	11/05/2023	12:05	-133.542	47.803	0	958.00	0	3.1600	0	34.3490	0	27.357	0	947.791	0	-1e10	8	-1e10	8	-1E+10	1	-1E+10	1	-1E+10	1	-1E+10	1	-1E+10	1	-1E+10	1
4902554	99	C	11/05/2023	12:05	-133.542	47.803	0	962.80	0	3.1530	0	34.3510	0	27.359	0	952.529	0	-1e10	8	-1e10	8	-1E+10	1	-1E+10	1	-1E+10	1	-1E+10	1	-1E+10	1	-1E+10	1
4902554	99	C	11/05/2023	12:05	-133.542	47.803	0	968.00	0	3.1400	0	34.3540	0	27.363	0	957.662	0	-1e10	8	-1e10	8	-1E+10	1	-1E+10	1	-1E+10	1	-1E+10	1	-1E+10	1	-1E+10	1
4902554	99	C	11/05/2023	12:05	-133.542	47.803	0	973.20	0	3.1290	0	34.3560	0	27.365	0	962.794	0	-1e10	8	-1e10	8	-1E+10	1	-1E+10	1	-1E+10	1	-1E+10	1	-1E+10	1	-1E+10	1
4902554	99	C	11/05/2023	12:05	-133.542	47.803	0	978.00	0	3.1260	0	34.3580	0	27.367	0	967.532	0	-1e10	8	-1e10	8	-1E+10	1	-1E+10	1	-1E+10	1	-1E+10	1	-1E+10	1	-1E+10	1
4902554	99	C	11/05/2023	12:05	-133.542	47.803	0	982.80	0	3.1190	0	34.3590	0	27.369	0	972.269	0	-1e10	8	-1e10	8	-1E+10	1	-1E+10	1	-1E+10	1	-1E+10	1	-1E+10	1	-1E+10	1
4902554	99	C	11/05/2023	12:05	-133.542	47.803	0	988.00	0	3.1050	0	34.3610	0	27.372	0	977.401	0	-1e10	8	-1e10	8	-1E+10	1	-1E+10	1	-1E+10	1	-1E+10	1	-1E+10	1	-1E+10	1
4902554	99	C	11/05/2023	12:05	-133.542	47.803	0	993.20	0	3.0970	0	34.3630	0	27.374	0	982.533	0	-1e10	8	-1e10	8	-1E+10	1	-1E+10	1	-1E+10	1	-1E+10	1	-1E+10	1	-1E+10	1
4902554	99	C	11/05/2023	12:05	-133.542	47.803	0	998.00	0	3.0890	0	34.3660	0	27.377	0	987.271	0	-1e10	8	-1e10	8	-1E+10	1	-1E+10	1	-1E+10	1	-1E+10	1	-1E+10	1	-1E+10	1
4902554	99	C	11/05/2023	12:05	-133.542	47.803	0	1005.40	0	3.0810	0	34.3670	0	27.379	0	994.573	0	-1e10	8	-1e10	8	-1E+10	1	-1E+10	1	-1E+10	1	-1E+10	1	-1E+10	1	-1E+10	1
4902554	99	C	11/05/2023	12:05	-133.542	47.803	0	1015.60	0	3.0680	0	34.3690	0	27.382	0	1004.639	0	-1e10	8	-1e10	8	-1E+10	1	-1E+10	1	-1E+10	1	-1E+10	1	-1E+10	1	-1E+10	1
4902554	99	C	11/05/2023	12:05	-133.542	47.803	0	1025.40	0	3.0450	0	34.3730	0	27.387	0	1014.310	0	-1e10	8	-1e10	8	-1E+10	1	-1E+10	1	-1E+10	1	-1E+10	1	-1E+10	1	-1E+10	1
4902554	99	C	11/05/2023	12:05	-133.542	47.803	0	1035.50	0	3.0310	0	34.3770	0	27.391	0	1024.276	0	-1e10	8	-1e10	8	-1E+10	1	-1E+10	1	-1E+10	1	-1E+10	1	-1E+10	1	-1E+10	1
4902554	99	C	11/05/2023	12:05	-133.542	47.803	0	1045.30	0	3.0220	0	34.3800	0	27.395	0	1033.945	0	-1e10	8	-1e10	8	-1E+10	1	-1E+10	1	-1E+10	1	-1E+10	1	-1E+10	1	-1E+10	1
4902554	99	C	11/05/2023	12:05	-133.542	47.803	0	1055.30	0	3.0040	0	34.3850	0	27.400	0	1043.812	0	-1e10	8	-1e10	8	-1E+10	1	-1E+10	1	-1E+10	1	-1E+10	1	-1E+10	1	-1E+10	1
4902554	99	C	11/05/2023	12:05	-133.542	47.803	0	1065.50	0	2.9930	0	34.3890	0	27.405	0	1053.875	0	-1e10	8	-1e10	8	-1E+10	1	-1E+10	1	-1E+10	1	-1E+10	1	-1E+10	1	-1E+10	1
4902554	99	C	11/05/2023	12:05	-133.542	47.803	0	1075.30	0	2.9790	0	34.3940	0	27.410	0	1063.544	0	-1e10	8	-1e10	8	-1E+10	1	-1E+10	1	-1E+10	1	-1E+10	1	-1E+10	1	-1E+10	1
4902554	99	C	11/05/2023	12:05	-133.542	47.803	0	1085.30	0	2.9620	0	34.3970	0	27.414	0	1073.409	0	-1e10	8	-1e10	8	-1E+10	1	-1E+10	1	-1E+10	1	-1E+10	1	-1E+10	1	-1E+10	1
4902554	99	C	11/05/2023	12:05	-133.542	47.803	0	1095.70	0	2.9460	0	34.4020	0	27.419	0	1083.668	0	-1e10	8	-1e10	8	-1E+10	1	-1E+10	1	-1E+10	1	-1E+10	1	-1E+10	1	-1E+10	1
4902554	99	C	11/05/2023	12:05	-133.542	47.803	0	1105.40	0	2.9300	0	34.4030	0	27.422	0	1093.236	0	-1e10	8	-1e10	8	-1E+10	1	-1E+10	1	-1E+10	1	-1E+10	1	-1E+10	1	-1E+10	1
4902554	99	C	11/05/2023	12:05	-133.542	47.803	0	1115.10	0	2.9060	0	34.4050	0	27.425	0	1102.804	0	-1e10	8	-1e10	8	-1E+10	1	-1E+10	1	-1E+10	1	-1E+10	1	-1E+10	1	-1E+10	1
4902554	99	C	11/05/2023	12:05	-133.542	47.803	0	1125.20	0	2.8980	0	34.4080	0	27.429	0	1112.766	0	-1e10	8	-1e10	8	-1E+10	1	-1E+10	1	-1E+10	1	-1E+10	1	-1E+10	1	-1E+10	1
4902554	99	C	11/05/2023	12:05	-133.542	47.803	0	1135.50	0	2.8840	0	34.4120	0	27.433	0	1122.924	0	-1e10	8	-1e10	8	-1E+10	1	-1E+10	1	-1E+10	1	-1E+10	1	-1E+10	1	-1E+10	1
4902554	99	C	11/05/2023	12:05	-133.542	47.803	0	1145.90	0	2.8720	0	34.4150	0	27.437	0	1133.181	0	-1e10	8	-1e10	8	-1E+10	1	-1E+10	1	-1E+10	1	-1E+10	1	-1E+10	1	-1E+10	1
4902554	99	C	11/05/2023	12:05	-133.542	47.803	0	1155.50	0	2.8560	0	34.4160	0	27.439	0	1142.649	0	-1e10	8	-1e10	8	-1E+10	1	-1E+10	1	-1E+10	1	-1E+10	1	-1E+10	1	-1E+10	1
4902554	99	C	11/05/2023	12:05	-133.542	47.803	0	1165.30	0	2.8370	0	34.4190	0	27.443	0	1152.313	0	-1e10	8	-1e10	8	-1E+10	1	-1E+10	1	-1E+10	1	-1E+10	1	-1E+10	1	-1E+10	1
4902554	99	C	11/05/2023	12:05	-133.542	47.803	0	1175.40	0	2.8270	0	34.4230	0	27.447	0	1162.272	0	-1e10	8	-1e10	8	-1E+10	1	-1E+10	1	-1E+10	1	-1E+10	1	-1E+10	1	-1E+10	1
4902554	99	C	11/05/2023	12:05	-133.542	47.803	0	1185.10	0	2.8190	0	34.4260	0	27.450	0	1171.837	0	-1e10	8	-1e10	8	-1E+10	1	-1E+10	1	-1E+10	1	-1E+10	1	-1E+10	1	-1E+10	1
4902554	99	C	11/05/2023	12:05	-133.542	47.803	0	1195.30	0	2.7950	0	34.4270	0	27.453	0	1181.894	0	-1e10	8	-1e10	8	-1E+10	1	-1E+10	1	-1E+10	1	-1E+10	1	-1E+10	1	-1E+10	1
4902554	99	C	11/05/2023	12:05	-133.542	47.803	0	1205.50	0	2.7720	0	34.4300	0	27.458	0	1191.951	0	-1e10	8	-1e10	8	-1E+10	1	-1E+10	1	-1E+10	1	-1E+10	1	-1E+10	1	-1E+10	1
4902554	99	C	11/05/2023	12:05	-133.542	47.803	0	1215.30	0	2.7540	0	34.4330	0	27.462	0	1201.613	0	-1e10	8	-1e10	8	-1E+10	1	-1E+10	1	-1E+10	1	-1E+10	1	-1E+10	1	-1E+10	1
4902554	99	C	11/05/2023	12:05	-133.542	47.803	0	1225.10	0	2.7380	0	34.4350	0	27.465	0	1211.274	0	-1e10	8	-1e10	8	-1E+10	1	-1E+10	1	-1E+10	1	-1E+10	1	-1E+10	1	-1E+10	1
4902554	99	C	11/05/2023	12:05	-133.542	47.803	0	1235.40	0	2.7310	0	34.4380	0	27.468	0	1221.428	0	-1e10	8	-1e10	8	-1E+10	1	-1E+10	1	-1E+10	1	-1E+10	1	-1E+10	1	-1E+10	1
4902554	99	C	11/05/2023	12:05	-133.542	47.803	0	1245.80	0	2.7260	0	34.4420	0	27.472	0	1231.680	0	-1e10	8	-1e10	8	-1E+10	1	-1E+10	1	-1E+10	1	-1E+10	1	-1E+10	1	-1E+10	1
4902554	99	C	11/05/2023	12:05	-133.542	47.803	0	1255.60	0	2.7160	0	34.4430	0	27.473	0	1241.340	0	-1e10	8	-1e10	8	-1E+10	1	-1E+10	1	-1E+10	1	-1E+10	1	-1E+10	1	-1E+10	1
4902554	99	C	11/05/2023	12:05	-133.542	47.803	0	1265.50	0	2.7090	0	34.4480	0	27.478	0	1251.098	0	-1e10	8	-1e10	8	-1E+10	1	-1E+10	1	-1E+10	1	-1E+10	1	-1E+10	1	-1E+10	1
4902554	99	C	11/05/2023	12:05	-133.542	47.803	0	1275.40	0	2.6960	0	34.4500	0	27.481	0	1260.856	0	-1e10	8	-1e10	8	-1E+10	1	-1E+10	1	-1E+10	1	-1E+10	1	-1E+10	1	-1E+10	1
4902554	99	C	11/05/2023	12:05	-133.542	47.803	0	1285.20	0	2.6860	0	34.4520	0	27.483	0	1270.514	0	-1e10	8	-1e10	8	-1E+10	1	-1E+10	1	-1E+10	1	-1E+10	1	-1E+10	1	-1E+10	1
4902554	99	C	11/05/2023	12:05	-133.542	47.803	0	1295.00	0	2.6710	0	34.4570	0	27.489	0	1280.173	0	-1e10	8	-1e10	8	-1E+10	1	-1E+10	1	-1E+10	1	-1E+10	1	-1E+10	1	-1E+10	1
4902554	99	C	11/05/2023	12:05	-133.542	47.803	0	1305.40	0	2.6560	0	34.4600	0	27.492	0	1290.422	0	-1e10	8	-1e10	8	-1E+10	1	-1E+10	1	-1E+10	1	-1E+10	1	-1E+10	1	-1E+10	1
4902554	99	C	11/05/2023	12:05	-133.542	47.803	0	1315.80	0	2.6390	0	34.4630	0	27.496	0	1300.670	0	-1e10	8	-1e10	8	-1E+10	1	-1E+10	1	-1E+10	1	-1E+10	1	-1E+10	1	-1E+10	1
4902554	99	C	11/05/2023	12:05	-133.542	47.803	0	1325.70	0	2.6240	0	34.4660	0	27.500	0	1310.426	0	-1e10	8	-1e10	8	-1E+10	1	-1E+10	1	-1E+10	1	-1E+10	1	-1E+10	1	-1E+10	1
4902554	99	C	11/05/2023	12:05	-133.542	47.803	0	1335.50	0	2.6120	0	34.4690	0	27.503	0	1320.082	0	-1e10	8	-1e10	8	-1E+10	1	-1E+10	1	-1E+10	1	-1E+10	1	-1E+10	1	-1E+10	1
4902554	99	C	11/05/2023	12:05	-133.542	47.803	0	1345.50	0	2.5970	0	34.4720	0	27.507	0	1329.935	0	-1e10	8	-1e10	8	-1E+10	1	-1E+10	1	-1E+10	1	-1E+10	1	-1E+10	1	-1E+10	1
4902554	99	C	11/05/2023	12:05	-133.542	47.803	0	1355.50	0	2.5780	0	34.4730	0	27.510	0	1339.788	0	-1e10	8	-1e10	8	-1E+10	1	-1E+10	1	-1E+10	1	-1E+10	1	-1E+10	1	-1E+10	1
4902554	99	C	11/05/2023	12:05	-133.542	47.803	0	1365.50	0	2.5530	0	34.4770	0	27.515	0	1349.640	0	-1e10	8	-1e10	8	-1E+10	1	-1E+10	1	-1E+10	1	-1E+10	1	-1E+10	1	-1E+10	1
4902554	99	C	11/05/2023	12:05	-133.542	47.803	0	1375.50	0	2.5320	0	34.4800	0	27.519	0	1359.492	0	-1e10	8	-1e10	8	-1E+10	1	-1E+10	1	-1E+10	1	-1E+10	1	-1E+10	1	-1E+10	1
4902554	99	C	11/05/2023	12:05	-133.542	47.803	0	1385.40	0	2.5100	0	34.4840	0	27.524	0	1369.244	0	-1e10	8	-1e10	8	-1E+10	1	-1E+10	1	-1E+10	1	-1E+10	1	-1E+10	1	-1E+10	1
4902554	99	C	11/05/2023	12:05	-133.542	47.803	0	1395.30	0	2.5010	0	34.4860	0	27.527	0	1378.996	0	-1e10	8	-1e10	8	-1E+10	1	-1E+10	1	-1E+10	1	-1E+10	1	-1E+10	1	-1E+10	1
4902554	99	C	11/05/2023	12:05	-133.542	47.803	0	1405.10	0	2.4880	0	34.4890	0	27.530	0	1388.650	0	-1e10	8	-1e10	8	-1E+10	1	-1E+10	1	-1E+10	1	-1E+10	1	-1E+10	1	-1E+10	1
4902554	99	C	11/05/2023	12:05	-133.542	47.803	0	1415.20	0	2.4680	0	34.4910	0	27.534	0	1398.598	0	-1e10	8	-1e10	8	-1E+10	1	-1E+10	1	-1E+10	1	-1E+10	1	-1E+10	1	-1E+10	1
4902554	99	C	11/05/2023	12:05	-133.542	47.803	0	1425.10	0	2.4610	0	34.4930	0	27.536	0	1408.349	0	-1e10	8	-1e10	8	-1E+10	1	-1E+10	1	-1E+10	1	-1E+10	1	-1E+10	1	-1E+10	1
4902554	99	C	11/05/2023	12:05	-133.542	47.803	0	1435.00	0	2.4490	0	34.4960	0	27.539	0	1418.099	0	-1e10	8	-1e10	8	-1E+10	1	-1E+10	1	-1E+10	1	-1E+10	1	-1E+10	1	-1E+10	1
4902554	99	C	11/05/2023	12:05	-133.542	47.803	0	1445.10	0	2.4380	0	34.4980	0	27.542	0	1428.046	0	-1e10	8	-1e10	8	-1E+10	1	-1E+10	1	-1E+10	1	-1E+10	1	-1E+10	1	-1E+10	1
4902554	99	C	11/05/2023	12:05	-133.542	47.803	0	1455.40	0	2.4280	0	34.5000	0	27.544	0	1438.190	0	-1e10	8	-1e10	8	-1E+10	1	-1E+10	1	-1E+10	1	-1E+10	1	-1E+10	1	-1E+10	1
4902554	99	C	11/05/2023	12:05	-133.542	47.803	0	1465.70	0	2.4110	0	34.5020	0	27.547	0	1448.332	0	-1e10	8	-1e10	8	-1E+10	1	-1E+10	1	-1E+10	1	-1E+10	1	-1E+10	1	-1E+10	1
4902554	99	C	11/05/2023	12:05	-133.542	47.803	0	1475.60	0	2.4010	0	34.5040	0	27.550	0	1458.081	0	-1e10	8	-1e10	8	-1E+10	1	-1E+10	1	-1E+10	1	-1E+10	1	-1E+10	1	-1E+10	1
4902554	99	C	11/05/2023	12:05	-133.542	47.803	0	1485.60	0	2.3850	0	34.5070	0	27.554	0	1467.928	0	-1e10	8	-1e10	8	-1E+10	1	-1E+10	1	-1E+10	1	-1E+10	1	-1E+10	1	-1E+10	1
4902554	99	C	11/05/2023	12:05	-133.542	47.803	0	1495.30	0	2.3710	0	34.5080	0	27.556	0	1477.478	0	-1e10	8	-1e10	8	-1E+10	1	-1E+10	1	-1E+10	1	-1E+10	1	-1E+10	1	-1E+10	1
4902554	99	C	11/05/2023	12:05	-133.542	47.803	0	1505.10	0	2.3560	0	34.5100	0	27.559	0	1487.127	0	-1e10	8	-1e10	8	-1E+10	1	-1E+10	1	-1E+10	1	-1E+10	1	-1E+10	1	-1E+10	1
4902554	99	C	11/05/2023	12:05	-133.542	47.803	0	1515.50	0	2.3460	0	34.5130	0	27.562	0	1497.366	0	-1e10	8	-1e10	8	-1E+10	1	-1E+10	1	-1E+10	1	-1E+10	1	-1E+10	1	-1E+10	1
4902554	99	C	11/05/2023	12:05	-133.542	47.803	0	1525.50	0	2.3320	0	34.5150	0	27.565	0	1507.211	0	-1e10	8	-1e10	8	-1E+10	1	-1E+10	1	-1E+10	1	-1E+10	1	-1E+10	1	-1E+10	1
4902554	99	C	11/05/2023	12:05	-133.542	47.803	0	1535.40	0	2.3140	0	34.5190	0	27.569	0	1516.957	0	-1e10	8	-1e10	8	-1E+10	1	-1E+10	1	-1E+10	1	-1E+10	1	-1E+10	1	-1E+10	1
4902554	99	C	11/05/2023	12:05	-133.542	47.803	0	1545.70	0	2.3020	0	34.5200	0	27.571	0	1527.096	0	-1e10	8	-1e10	8	-1E+10	1	-1E+10	1	-1E+10	1	-1E+10	1	-1E+10	1	-1E+10	1
4902554	99	C	11/05/2023	12:05	-133.542	47.803	0	1555.50	0	2.2940	0	34.5230	0	27.574	0	1536.742	0	-1e10	8	-1e10	8	-1E+10	1	-1E+10	1	-1E+10	1	-1E+10	1	-1E+10	1	-1E+10	1
4902554	99	C	11/05/2023	12:05	-133.542	47.803	0	1565.20	0	2.2790	0	34.5260	0	27.578	0	1546.290	0	-1e10	8	-1e10	8	-1E+10	1	-1E+10	1	-1E+10	1	-1E+10	1	-1E+10	1	-1E+10	1
4902554	99	C	11/05/2023	12:05	-133.542	47.803	0	1575.30	0	2.2640	0	34.5290	0	27.582	0	1556.231	0	-1e10	8	-1e10	8	-1E+10	1	-1E+10	1	-1E+10	1	-1E+10	1	-1E+10	1	-1E+10	1
4902554	99	C	11/05/2023	12:05	-133.542	47.803	0	1585.50	0	2.2550	0	34.5300	0	27.583	0	1566.269	0	-1e10	8	-1e10	8	-1E+10	1	-1E+10	1	-1E+10	1	-1E+10	1	-1E+10	1	-1E+10	1
4902554	99	C	11/05/2023	12:05	-133.542	47.803	0	1595.20	0	2.2420	0	34.5330	0	27.587	0	1575.816	0	-1e10	8	-1e10	8	-1E+10	1	-1E+10	1	-1E+10	1	-1E+10	1	-1E+10	1	-1E+10	1
4902554	99	C	11/05/2023	12:05	-133.542	47.803	0	1605.10	0	2.2300	0	34.5340	0	27.589	0	1585.558	0	-1e10	8	-1e10	8	-1E+10	1	-1E+10	1	-1E+10	1	-1E+10	1	-1E+10	1	-1E+10	1
4902554	99	C	11/05/2023	12:05	-133.542	47.803	0	1615.10	0	2.2190	0	34.5350	0	27.590	0	1595.399	0	-1e10	8	-1e10	8	-1E+10	1	-1E+10	1	-1E+10	1	-1E+10	1	-1E+10	1	-1E+10	1
4902554	99	C	11/05/2023	12:05	-133.542	47.803	0	1625.10	0	2.2120	0	34.5370	0	27.593	0	1605.239	0	-1e10	8	-1e10	8	-1E+10	1	-1E+10	1	-1E+10	1	-1E+10	1	-1E+10	1	-1E+10	1
4902554	99	C	11/05/2023	12:05	-133.542	47.803	0	1635.20	0	2.1990	0	34.5380	0	27.594	0	1615.177	0	-1e10	8	-1e10	8	-1E+10	1	-1E+10	1	-1E+10	1	-1E+10	1	-1E+10	1	-1E+10	1
4902554	99	C	11/05/2023	12:05	-133.542	47.803	0	1645.40	0	2.1870	0	34.5400	0	27.597	0	1625.213	0	-1e10	8	-1e10	8	-1E+10	1	-1E+10	1	-1E+10	1	-1E+10	1	-1E+10	1	-1E+10	1
4902554	99	C	11/05/2023	12:05	-133.542	47.803	0	1655.30	0	2.1740	0	34.5420	0	27.600	0	1634.953	0	-1e10	8	-1e10	8	-1E+10	1	-1E+10	1	-1E+10	1	-1E+10	1	-1E+10	1	-1E+10	1
4902554	99	C	11/05/2023	12:05	-133.542	47.803	0	1665.30	0	2.1640	0	34.5440	0	27.602	0	1644.792	0	-1e10	8	-1e10	8	-1E+10	1	-1E+10	1	-1E+10	1	-1E+10	1	-1E+10	1	-1E+10	1
4902554	99	C	11/05/2023	12:05	-133.542	47.803	0	1675.40	0	2.1560	0	34.5460	0	27.604	0	1654.728	0	-1e10	8	-1e10	8	-1E+10	1	-1E+10	1	-1E+10	1	-1E+10	1	-1E+10	1	-1E+10	1
4902554	99	C	11/05/2023	12:05	-133.542	47.803	0	1685.30	0	2.1460	0	34.5470	0	27.606	0	1664.467	0	-1e10	8	-1e10	8	-1E+10	1	-1E+10	1	-1E+10	1	-1E+10	1	-1E+10	1	-1E+10	1
4902554	99	C	11/05/2023	12:05	-133.542	47.803	0	1695.20	0	2.1360	0	34.5490	0	27.609	0	1674.205	0	-1e10	8	-1e10	8	-1E+10	1	-1E+10	1	-1E+10	1	-1E+10	1	-1E+10	1	-1E+10	1
4902554	99	C	11/05/2023	12:05	-133.542	47.803	0	1705.30	0	2.1240	0	34.5510	0	27.611	0	1684.140	0	-1e10	8	-1e10	8	-1E+10	1	-1E+10	1	-1E+10	1	-1E+10	1	-1E+10	1	-1E+10	1
4902554	99	C	11/05/2023	12:05	-133.542	47.803	0	1715.20	0	2.1150	0	34.5530	0	27.614	0	1693.878	0	-1e10	8	-1e10	8	-1E+10	1	-1E+10	1	-1E+10	1	-1E+10	1	-1E+10	1	-1E+10	1
4902554	99	C	11/05/2023	12:05	-133.542	47.803	0	1725.00	0	2.1020	0	34.5550	0	27.616	0	1703.517	0	-1e10	8	-1e10	8	-1E+10	1	-1E+10	1	-1E+10	1	-1E+10	1	-1E+10	1	-1E+10	1
4902554	99	C	11/05/2023	12:05	-133.542	47.803	0	1735.50	0	2.0890	0	34.5580	0	27.620	0	1713.844	0	-1e10	8	-1e10	8	-1E+10	1	-1E+10	1	-1E+10	1	-1E+10	1	-1E+10	1	-1E+10	1
4902554	99	C	11/05/2023	12:05	-133.542	47.803	0	1745.60	0	2.0820	0	34.5590	0	27.621	0	1723.777	0	-1e10	8	-1e10	8	-1E+10	1	-1E+10	1	-1E+10	1	-1E+10	1	-1E+10	1	-1E+10	1
4902554	99	C	11/05/2023	12:05	-133.542	47.803	0	1755.50	0	2.0720	0	34.5610	0	27.624	0	1733.512	0	-1e10	8	-1e10	8	-1E+10	1	-1E+10	1	-1E+10	1	-1E+10	1	-1E+10	1	-1E+10	1
4902554	99	C	11/05/2023	12:05	-133.542	47.803	0	1765.60	0	2.0630	0	34.5630	0	27.626	0	1743.444	0	-1e10	8	-1e10	8	-1E+10	1	-1E+10	1	-1E+10	1	-1E+10	1	-1E+10	1	-1E+10	1
4902554	99	C	11/05/2023	12:05	-133.542	47.803	0	1775.70	0	2.0570	0	34.5640	0	27.627	0	1753.376	0	-1e10	8	-1e10	8	-1E+10	1	-1E+10	1	-1E+10	1	-1E+10	1	-1E+10	1	-1E+10	1
4902554	99	C	11/05/2023	12:05	-133.542	47.803	0	1785.60	0	2.0500	0	34.5660	0	27.629	0	1763.111	0	-1e10	8	-1e10	8	-1E+10	1	-1E+10	1	-1E+10	1	-1E+10	1	-1E+10	1	-1E+10	1
4902554	99	C	11/05/2023	12:05	-133.542	47.803	0	1795.70	0	2.0390	0	34.5680	0	27.632	0	1773.041	0	-1e10	8	-1e10	8	-1E+10	1	-1E+10	1	-1E+10	1	-1E+10	1	-1E+10	1	-1E+10	1
4902554	99	C	11/05/2023	12:05	-133.542	47.803	0	1805.60	0	2.0350	0	34.5690	0	27.633	0	1782.775	0	-1e10	8	-1e10	8	-1E+10	1	-1E+10	1	-1E+10	1	-1E+10	1	-1E+10	1	-1E+10	1
4902554	99	C	11/05/2023	12:05	-133.542	47.803	0	1815.30	0	2.0320	0	34.5700	0	27.634	0	1792.311	0	-1e10	8	-1e10	8	-1E+10	1	-1E+10	1	-1E+10	1	-1E+10	1	-1E+10	1	-1E+10	1
4902554	99	C	11/05/2023	12:05	-133.542	47.803	0	1825.10	0	2.0260	0	34.5710	0	27.636	0	1801.946	0	-1e10	8	-1e10	8	-1E+10	1	-1E+10	1	-1E+10	1	-1E+10	1	-1E+10	1	-1E+10	1
4902554	99	C	11/05/2023	12:05	-133.542	47.803	0	1835.10	0	2.0210	0	34.5720	0	27.637	0	1811.776	0	-1e10	8	-1e10	8	-1E+10	1	-1E+10	1	-1E+10	1	-1E+10	1	-1E+10	1	-1E+10	1
4902554	99	C	11/05/2023	12:05	-133.542	47.803	0	1845.20	0	2.0140	0	34.5730	0	27.638	0	1821.705	0	-1e10	8	-1e10	8	-1E+10	1	-1E+10	1	-1E+10	1	-1E+10	1	-1E+10	1	-1E+10	1
4902554	99	C	11/05/2023	12:05	-133.542	47.803	0	1855.40	0	2.0070	0	34.5740	0	27.640	0	1831.731	0	-1e10	8	-1e10	8	-1E+10	1	-1E+10	1	-1E+10	1	-1E+10	1	-1E+10	1	-1E+10	1
4902554	99	C	11/05/2023	12:05	-133.542	47.803	0	1865.40	0	1.9970	0	34.5760	0	27.642	0	1841.560	0	-1e10	8	-1e10	8	-1E+10	1	-1E+10	1	-1E+10	1	-1E+10	1	-1E+10	1	-1E+10	1
4902554	99	C	11/05/2023	12:05	-133.542	47.803	0	1875.40	0	1.9890	0	34.5770	0	27.644	0	1851.389	0	-1e10	8	-1e10	8	-1E+10	1	-1E+10	1	-1E+10	1	-1E+10	1	-1E+10	1	-1E+10	1
4902554	99	C	11/05/2023	12:05	-133.542	47.803	0	1885.50	0	1.9820	0	34.5790	0	27.646	0	1861.315	0	-1e10	8	-1e10	8	-1E+10	1	-1E+10	1	-1E+10	1	-1E+10	1	-1E+10	1	-1E+10	1
4902554	99	C	11/05/2023	12:05	-133.542	47.803	0	1895.30	0	1.9770	0	34.5800	0	27.647	0	1870.946	0	-1e10	8	-1e10	8	-1E+10	1	-1E+10	1	-1E+10	1	-1E+10	1	-1E+10	1	-1E+10	1
4902554	99	C	11/05/2023	12:05	-133.542	47.803	0	1905.20	0	1.9730	0	34.5800	0	27.647	0	1880.675	0	-1e10	8	-1e10	8	-1E+10	1	-1E+10	1	-1E+10	1	-1E+10	1	-1E+10	1	-1E+10	1
4902554	99	C	11/05/2023	12:05	-133.542	47.803	0	1915.30	0	1.9680	0	34.5810	0	27.649	0	1890.601	0	-1e10	8	-1e10	8	-1E+10	1	-1E+10	1	-1E+10	1	-1E+10	1	-1E+10	1	-1E+10	1
4902554	99	C	11/05/2023	12:05	-133.542	47.803	0	1925.50	0	1.9630	0	34.5820	0	27.650	0	1900.624	0	-1e10	8	-1e10	8	-1E+10	1	-1E+10	1	-1E+10	1	-1E+10	1	-1E+10	1	-1E+10	1
4902554	99	C	11/05/2023	12:05	-133.542	47.803	0	1935.70	0	1.9580	0	34.5830	0	27.651	0	1910.646	0	-1e10	8	-1e10	8	-1E+10	1	-1E+10	1	-1E+10	1	-1E+10	1	-1E+10	1	-1E+10	1
4902554	99	C	11/05/2023	12:05	-133.542	47.803	0	1945.50	0	1.9530	0	34.5840	0	27.652	0	1920.275	0	-1e10	8	-1e10	8	-1E+10	1	-1E+10	1	-1E+10	1	-1E+10	1	-1E+10	1	-1E+10	1
4902554	99	C	11/05/2023	12:05	-133.542	47.803	0	1955.20	0	1.9490	0	34.5860	0	27.654	0	1929.805	0	-1e10	8	-1e10	8	-1E+10	1	-1E+10	1	-1E+10	1	-1E+10	1	-1E+10	1	-1E+10	1
4902554	99	C	11/05/2023	12:05	-133.542	47.803	0	1965.30	0	1.9440	0	34.5860	0	27.655	0	1939.728	0	-1e10	8	-1e10	8	-1E+10	1	-1E+10	1	-1E+10	1	-1E+10	1	-1E+10	1	-1E+10	1
4902554	99	C	11/05/2023	12:05	-133.542	47.803	0	1975.30	0	1.9380	0	34.5870	0	27.656	0	1949.552	0	-1e10	8	-1e10	8	-1E+10	1	-1E+10	1	-1E+10	1	-1E+10	1	-1E+10	1	-1E+10	1
4902554	99	C	11/05/2023	12:05	-133.542	47.803	0	1985.40	0	1.9350	0	34.5880	0	27.657	0	1959.474	0	-1e10	8	-1e10	8	-1E+10	1	-1E+10	1	-1E+10	1	-1E+10	1	-1E+10	1	-1E+10	1
4902554	99	C	11/05/2023	12:05	-133.542	47.803	0	1995.50	0	1.9320	0	34.5890	0	27.658	0	1969.396	0	-1e10	8	-1e10	8	-1E+10	1	-1E+10	1	-1E+10	1	-1E+10	1	-1E+10	1	-1E+10	1
4902554	99	C	11/05/2023	12:05	-133.542	47.803	0	2005.50	0	1.9250	0	34.5900	0	27.660	0	1979.219	0	-1e10	8	-1e10	8	-1E+10	1	-1E+10	1	-1E+10	1	-1E+10	1	-1E+10	1	-1E+10	1
4902554	99	C	11/05/2023	12:05	-133.542	47.803	0	2013.80	0	1.9220	0	34.5910	0	27.661	0	1987.371	0	-1e10	8	-1e10	8	-1E+10	1	-1E+10	1	-1E+10	1	-1E+10	1	-1E+10	1	-1E+10	1
4902554	99	C	11/05/2023	12:05	-133.542	47.803	0																										
4902554	100	C	11/15/2023	17:06	-133.515	47.699	0	0.40	0	12.1320	0	32.3580	0	24.514	0	0.397	0	-1e10	8	-1e10	8	-1E+10	1	-1E+10	1	-1E+10	1	-1E+10	1	-1E+10	1	-1E+10	1
4902554	100	C	11/15/2023	17:06	-133.515	47.699	0	0.70	0	12.1320	0	32.3590	0	24.515	0	0.694	0	-1e10	8	-1e10	8	-1E+10	1	-1E+10	1	-1E+10	1	-1E+10	1	-1E+10	1	-1E+10	1
4902554	100	C	11/15/2023	17:06	-133.515	47.699	0	1.80	0	12.1300	0	32.3600	0	24.516	0	1.785	0	-1e10	8	-1e10	8	-1E+10	1	-1E+10	1	-1E+10	1	-1E+10	1	-1E+10	1	-1E+10	1
4902554	100	C	11/15/2023	17:06	-133.515	47.699	0	2.80	0	12.1330	0	32.3580	0	24.514	0	2.777	0	-1e10	8	-1e10	8	-1E+10	1	-1E+10	1	-1E+10	1	-1E+10	1	-1E+10	1	-1E+10	1
4902554	100	C	11/15/2023	17:06	-133.515	47.699	0	3.80	0	12.1320	0	32.3600	0	24.515	0	3.768	0	-1e10	8	-1e10	8	-1E+10	1	-1E+10	1	-1E+10	1	-1E+10	1	-1E+10	1	-1E+10	1
4902554	100	C	11/15/2023	17:06	-133.515	47.699	0	4.80	0	12.1320	0	32.3610	0	24.516	0	4.760	0	-1e10	8	-1e10	8	-1E+10	1	-1E+10	1	-1E+10	1	-1E+10	1	-1E+10	1	-1E+10	1
4902554	100	C	11/15/2023	17:06	-133.515	47.699	0	5.80	0	12.1310	0	32.3610	0	24.516	0	5.751	0	-1e10	8	-1e10	8	-1E+10	1	-1E+10	1	-1E+10	1	-1E+10	1	-1E+10	1	-1E+10	1
4902554	100	C	11/15/2023	17:06	-133.515	47.699	0	6.90	0	12.1300	0	32.3610	0	24.517	0	6.842	0	-1e10	8	-1e10	8	-1E+10	1	-1E+10	1	-1E+10	1	-1E+10	1	-1E+10	1	-1E+10	1
4902554	100	C	11/15/2023	17:06	-133.515	47.699	0	8.00	0	12.1290	0	32.3610	0	24.517	0	7.933	0	-1e10	8	-1e10	8	-1E+10	1	-1E+10	1	-1E+10	1	-1E+10	1	-1E+10	1	-1E+10	1
4902554	100	C	11/15/2023	17:06	-133.515	47.699	0	9.10	0	12.1320	0	32.3610	0	24.516	0	9.024	0	-1e10	8	-1e10	8	-1E+10	1	-1E+10	1	-1E+10	1	-1E+10	1	-1E+10	1	-1E+10	1
4902554	100	C	11/15/2023	17:06	-133.515	47.699	0	10.10	0	12.1310	0	32.3610	0	24.516	0	10.015	0	-1e10	8	-1e10	8	-1E+10	1	-1E+10	1	-1E+10	1	-1E+10	1	-1E+10	1	-1E+10	1
4902554	100	C	11/15/2023	17:06	-133.515	47.699	0	11.20	0	12.1330	0	32.3610	0	24.516	0	11.106	0	-1e10	8	-1e10	8	-1E+10	1	-1E+10	1	-1E+10	1	-1E+10	1	-1E+10	1	-1E+10	1
4902554	100	C	11/15/2023	17:06	-133.515	47.699	0	11.90	0	12.1320	0	32.3620	0	24.517	0	11.800	0	-1e10	8	-1e10	8	-1E+10	1	-1E+10	1	-1E+10	1	-1E+10	1	-1E+10	1	-1E+10	1
4902554	100	C	11/15/2023	17:06	-133.515	47.699	0	12.90	0	12.1290	0	32.3630	0	24.518	0	12.792	0	-1e10	8	-1e10	8	-1E+10	1	-1E+10	1	-1E+10	1	-1E+10	1	-1E+10	1	-1E+10	1
4902554	100	C	11/15/2023	17:06	-133.515	47.699	0	14.00	0	12.1340	0	32.3600	0	24.515	0	13.882	0	-1e10	8	-1e10	8	-1E+10	1	-1E+10	1	-1E+10	1	-1E+10	1	-1E+10	1	-1E+10	1
4902554	100	C	11/15/2023	17:06	-133.515	47.699	0	14.90	0	12.1350	0	32.3620	0	24.517	0	14.775	0	-1e10	8	-1e10	8	-1E+10	1	-1E+10	1	-1E+10	1	-1E+10	1	-1E+10	1	-1E+10	1
4902554	100	C	11/15/2023	17:06	-133.515	47.699	0	15.90	0	12.1340	0	32.3620	0	24.517	0	15.766	0	-1e10	8	-1e10	8	-1E+10	1	-1E+10	1	-1E+10	1	-1E+10	1	-1E+10	1	-1E+10	1
4902554	100	C	11/15/2023	17:06	-133.515	47.699	0	16.90	0	12.1370	0	32.3610	0	24.516	0	16.758	0	-1e10	8	-1e10	8	-1E+10	1	-1E+10	1	-1E+10	1	-1E+10	1	-1E+10	1	-1E+10	1
4902554	100	C	11/15/2023	17:06	-133.515	47.699	0	17.90	0	12.1370	0	32.3610	0	24.516	0	17.750	0	-1e10	8	-1e10	8	-1E+10	1	-1E+10	1	-1E+10	1	-1E+10	1	-1E+10	1	-1E+10	1
4902554	100	C	11/15/2023	17:06	-133.515	47.699	0	19.00	0	12.1360	0	32.3620	0	24.517	0	18.840	0	-1e10	8	-1e10	8	-1E+10	1	-1E+10	1	-1E+10	1	-1E+10	1	-1E+10	1	-1E+10	1
4902554	100	C	11/15/2023	17:06	-133.515	47.699	0	20.00	0	12.1360	0	32.3620	0	24.517	0	19.832	0	-1e10	8	-1e10	8	-1E+10	1	-1E+10	1	-1E+10	1	-1E+10	1	-1E+10	1	-1E+10	1
4902554	100	C	11/15/2023	17:06	-133.515	47.699	0	21.10	0	12.1370	0	32.3610	0	24.516	0	20.922	0	-1e10	8	-1e10	8	-1E+10	1	-1E+10	1	-1E+10	1	-1E+10	1	-1E+10	1	-1E+10	1
4902554	100	C	11/15/2023	17:06	-133.515	47.699	0	21.80	0	12.1380	0	32.3610	0	24.515	0	21.617	0	-1e10	8	-1e10	8	-1E+10	1	-1E+10	1	-1E+10	1	-1E+10	1	-1E+10	1	-1E+10	1
4902554	100	C	11/15/2023	17:06	-133.515	47.699	0	22.80	0	12.1350	0	32.3630	0	24.518	0	22.608	0	-1e10	8	-1e10	8	-1E+10	1	-1E+10	1	-1E+10	1	-1E+10	1	-1E+10	1	-1E+10	1
4902554	100	C	11/15/2023	17:06	-133.515	47.699	0	23.80	0	12.1380	0	32.3610	0	24.515	0	23.600	0	-1e10	8	-1e10	8	-1E+10	1	-1E+10	1	-1E+10	1	-1E+10	1	-1E+10	1	-1E+10	1
4902554	100	C	11/15/2023	17:06	-133.515	47.699	0	24.80	0	12.1360	0	32.3620	0	24.517	0	24.591	0	-1e10	8	-1e10	8	-1E+10	1	-1E+10	1	-1E+10	1	-1E+10	1	-1E+10	1	-1E+10	1
4902554	100	C	11/15/2023	17:06	-133.515	47.699	0	26.00	0	12.1360	0	32.3610	0	24.516	0	25.781	0	-1e10	8	-1e10	8	-1E+10	1	-1E+10	1	-1E+10	1	-1E+10	1	-1E+10	1	-1E+10	1
4902554	100	C	11/15/2023	17:06	-133.515	47.699	0	27.10	0	12.1350	0	32.3610	0	24.516	0	26.872	0	-1e10	8	-1e10	8	-1E+10	1	-1E+10	1	-1E+10	1	-1E+10	1	-1E+10	1	-1E+10	1
4902554	100	C	11/15/2023	17:06	-133.515	47.699	0	28.10	0	12.1340	0	32.3620	0	24.517	0	27.863	0	-1e10	8	-1e10	8	-1E+10	1	-1E+10	1	-1E+10	1	-1E+10	1	-1E+10	1	-1E+10	1
4902554	100	C	11/15/2023	17:06	-133.515	47.699	0	29.00	0	12.1340	0	32.3620	0	24.517	0	28.755	0	-1e10	8	-1e10	8	-1E+10	1	-1E+10	1	-1E+10	1	-1E+10	1	-1E+10	1	-1E+10	1
4902554	100	C	11/15/2023	17:06	-133.515	47.699	0	29.70	0	12.1330	0	32.3620	0	24.517	0	29.449	0	-1e10	8	-1e10	8	-1E+10	1	-1E+10	1	-1E+10	1	-1E+10	1	-1E+10	1	-1E+10	1
4902554	100	C	11/15/2023	17:06	-133.515	47.699	0	30.70	0	12.1330	0	32.3610	0	24.517	0	30.441	0	-1e10	8	-1e10	8	-1E+10	1	-1E+10	1	-1E+10	1	-1E+10	1	-1E+10	1	-1E+10	1
4902554	100	C	11/15/2023	17:06	-133.515	47.699	0	31.70	0	12.1330	0	32.3620	0	24.517	0	31.432	0	-1e10	8	-1e10	8	-1E+10	1	-1E+10	1	-1E+10	1	-1E+10	1	-1E+10	1	-1E+10	1
4902554	100	C	11/15/2023	17:06	-133.515	47.699	0	32.80	0	12.1330	0	32.3610	0	24.517	0	32.523	0	-1e10	8	-1e10	8	-1E+10	1	-1E+10	1	-1E+10	1	-1E+10	1	-1E+10	1	-1E+10	1
4902554	100	C	11/15/2023	17:06	-133.515	47.699	0	33.80	0	12.1320	0	32.3620	0	24.518	0	33.515	0	-1e10	8	-1e10	8	-1E+10	1	-1E+10	1	-1E+10	1	-1E+10	1	-1E+10	1	-1E+10	1
4902554	100	C	11/15/2023	17:06	-133.515	47.699	0	34.80	0	12.1330	0	32.3620	0	24.517	0	34.506	0	-1e10	8	-1e10	8	-1E+10	1	-1E+10	1	-1E+10	1	-1E+10	1	-1E+10	1	-1E+10	1
4902554	100	C	11/15/2023	17:06	-133.515	47.699	0	35.90	0	12.1330	0	32.3610	0	24.517	0	35.597	0	-1e10	8	-1e10	8	-1E+10	1	-1E+10	1	-1E+10	1	-1E+10	1	-1E+10	1	-1E+10	1
4902554	100	C	11/15/2023	17:06	-133.515	47.699	0	37.00	0	12.1360	0	32.3610	0	24.516	0	36.687	0	-1e10	8	-1e10	8	-1E+10	1	-1E+10	1	-1E+10	1	-1E+10	1	-1E+10	1	-1E+10	1
4902554	100	C	11/15/2023	17:06	-133.515	47.699	0	38.00	0	12.1350	0	32.3620	0	24.517	0	37.679	0	-1e10	8	-1e10	8	-1E+10	1	-1E+10	1	-1E+10	1	-1E+10	1	-1E+10	1	-1E+10	1
4902554	100	C	11/15/2023	17:06	-133.515	47.699	0	38.90	0	12.1370	0	32.3610	0	24.516	0	38.571	0	-1e10	8	-1e10	8	-1E+10	1	-1E+10	1	-1E+10	1	-1E+10	1	-1E+10	1	-1E+10	1
4902554	100	C	11/15/2023	17:06	-133.515	47.699	0	40.10	0	12.1370	0	32.3620	0	24.517	0	39.761	0	-1e10	8	-1e10	8	-1E+10	1	-1E+10	1	-1E+10	1	-1E+10	1	-1E+10	1	-1E+10	1
4902554	100	C	11/15/2023	17:06	-133.515	47.699	0	40.80	0	12.1370	0	32.3620	0	24.517	0	40.455	0	-1e10	8	-1e10	8	-1E+10	1	-1E+10	1	-1E+10	1	-1E+10	1	-1E+10	1	-1E+10	1
4902554	100	C	11/15/2023	17:06	-133.515	47.699	0	41.80	0	12.1370	0	32.3620	0	24.517	0	41.446	0	-1e10	8	-1e10	8	-1E+10	1	-1E+10	1	-1E+10	1	-1E+10	1	-1E+10	1	-1E+10	1
4902554	100	C	11/15/2023	17:06	-133.515	47.699	0	42.90	0	12.1370	0	32.3620	0	24.517	0	42.537	0	-1e10	8	-1e10	8	-1E+10	1	-1E+10	1	-1E+10	1	-1E+10	1	-1E+10	1	-1E+10	1
4902554	100	C	11/15/2023	17:06	-133.515	47.699	0	43.90	0	12.1370	0	32.3610	0	24.516	0	43.528	0	-1e10	8	-1e10	8	-1E+10	1	-1E+10	1	-1E+10	1	-1E+10	1	-1E+10	1	-1E+10	1
4902554	100	C	11/15/2023	17:06	-133.515	47.699	0	45.10	0	12.1380	0	32.3620	0	24.517	0	44.718	0	-1e10	8	-1e10	8	-1E+10	1	-1E+10	1	-1E+10	1	-1E+10	1	-1E+10	1	-1E+10	1
4902554	100	C	11/15/2023	17:06	-133.515	47.699	0	46.00	0	12.1370	0	32.3610	0	24.516	0	45.610	0	-1e10	8	-1e10	8	-1E+10	1	-1E+10	1	-1E+10	1	-1E+10	1	-1E+10	1	-1E+10	1
4902554	100	C	11/15/2023	17:06	-133.515	47.699	0	46.80	0	12.1410	0	32.3610	0	24.515	0	46.403	0	-1e10	8	-1e10	8	-1E+10	1	-1E+10	1	-1E+10	1	-1E+10	1	-1E+10	1	-1E+10	1
4902554	100	C	11/15/2023	17:06	-133.515	47.699	0	47.90	0	12.1420	0	32.3620	0	24.516	0	47.494	0	-1e10	8	-1e10	8	-1E+10	1	-1E+10	1	-1E+10	1	-1E+10	1	-1E+10	1	-1E+10	1
4902554	100	C	11/15/2023	17:06	-133.515	47.699	0	49.00	0	12.1410	0	32.3610	0	24.516	0	48.584	0	-1e10	8	-1e10	8	-1E+10	1	-1E+10	1	-1E+10	1	-1E+10	1	-1E+10	1	-1E+10	1
4902554	100	C	11/15/2023	17:06	-133.515	47.699	0	50.00	0	12.1400	0	32.3620	0	24.517	0	49.576	0	-1e10	8	-1e10	8	-1E+10	1	-1E+10	1	-1E+10	1	-1E+10	1	-1E+10	1	-1E+10	1
4902554	100	C	11/15/2023	17:06	-133.515	47.699	0	50.90	0	12.1380	0	32.3620	0	24.517	0	50.468	0	-1e10	8	-1e10	8	-1E+10	1	-1E+10	1	-1E+10	1	-1E+10	1	-1E+10	1	-1E+10	1
4902554	100	C	11/15/2023	17:06	-133.515	47.699	0	52.10	0	12.1390	0	32.3610	0	24.516	0	51.658	0	-1e10	8	-1e10	8	-1E+10	1	-1E+10	1	-1E+10	1	-1E+10	1	-1E+10	1	-1E+10	1
4902554	100	C	11/15/2023	17:06	-133.515	47.699	0	53.00	0	12.1370	0	32.3620	0	24.517	0	52.550	0	-1e10	8	-1e10	8	-1E+10	1	-1E+10	1	-1E+10	1	-1E+10	1	-1E+10	1	-1E+10	1
4902554	100	C	11/15/2023	17:06	-133.515	47.699	0	53.80	0	12.1380	0	32.3610	0	24.516	0	53.343	0	-1e10	8	-1e10	8	-1E+10	1	-1E+10	1	-1E+10	1	-1E+10	1	-1E+10	1	-1E+10	1
4902554	100	C	11/15/2023	17:06	-133.515	47.699	0	55.10	0	12.1330	0	32.3610	0	24.517	0	54.632	0	-1e10	8	-1e10	8	-1E+10	1	-1E+10	1	-1E+10	1	-1E+10	1	-1E+10	1	-1E+10	1
4902554	100	C	11/15/2023	17:06	-133.515	47.699	0	56.00	0	12.0680	0	32.3560	0	24.525	0	55.524	0	-1e10	8	-1e10	8	-1E+10	1	-1E+10	1	-1E+10	1	-1E+10	1	-1E+10	1	-1E+10	1
4902554	100	C	11/15/2023	17:06	-133.515	47.699	0	57.00	0	11.6640	0	32.3600	0	24.603	0	56.515	0	-1e10	8	-1e10	8	-1E+10	1	-1E+10	1	-1E+10	1	-1E+10	1	-1E+10	1	-1E+10	1
4902554	100	C	11/15/2023	17:06	-133.515	47.699	0	57.80	0	11.1700	0	32.3720	0	24.701	0	57.309	0	-1e10	8	-1e10	8	-1E+10	1	-1E+10	1	-1E+10	1	-1E+10	1	-1E+10	1	-1E+10	1
4902554	100	C	11/15/2023	17:06	-133.515	47.699	0	59.00	0	10.4700	0	32.4080	0	24.851	0	58.498	0	-1e10	8	-1e10	8	-1E+10	1	-1E+10	1	-1E+10	1	-1E+10	1	-1E+10	1	-1E+10	1
4902554	100	C	11/15/2023	17:06	-133.515	47.699	0	60.00	0	9.9040	0	32.4310	0	24.964	0	59.490	0	-1e10	8	-1e10	8	-1E+10	1	-1E+10	1	-1E+10	1	-1E+10	1	-1E+10	1	-1E+10	1
4902554	100	C	11/15/2023	17:06	-133.515	47.699	0	61.00	0	9.5840	0	32.4510	0	25.032	0	60.481	0	-1e10	8	-1e10	8	-1E+10	1	-1E+10	1	-1E+10	1	-1E+10	1	-1E+10	1	-1E+10	1
4902554	100	C	11/15/2023	17:06	-133.515	47.699	0	62.10	0	9.2440	0	32.4450	0	25.081	0	61.571	0	-1e10	8	-1e10	8	-1E+10	1	-1E+10	1	-1E+10	1	-1E+10	1	-1E+10	1	-1E+10	1
4902554	100	C	11/15/2023	17:06	-133.515	47.699	0	63.10	0	8.9930	0	32.4590	0	25.131	0	62.563	0	-1e10	8	-1e10	8	-1E+10	1	-1E+10	1	-1E+10	1	-1E+10	1	-1E+10	1	-1E+10	1
4902554	100	C	11/15/2023	17:06	-133.515	47.699	0	63.90	0	8.5100	0	32.4900	0	25.229	0	63.356	0	-1e10	8	-1e10	8	-1E+10	1	-1E+10	1	-1E+10	1	-1E+10	1	-1E+10	1	-1E+10	1
4902554	100	C	11/15/2023	17:06	-133.515	47.699	0	65.10	0	8.1230	0	32.5000	0	25.294	0	64.545	0	-1e10	8	-1e10	8	-1E+10	1	-1E+10	1	-1E+10	1	-1E+10	1	-1E+10	1	-1E+10	1
4902554	100	C	11/15/2023	17:06	-133.515	47.699	0	65.90	0	8.1100	0	32.5000	0	25.296	0	65.338	0	-1e10	8	-1e10	8	-1E+10	1	-1E+10	1	-1E+10	1	-1E+10	1	-1E+10	1	-1E+10	1
4902554	100	C	11/15/2023	17:06	-133.515	47.699	0	66.90	0	8.0720	0	32.5000	0	25.302	0	66.330	0	-1e10	8	-1e10	8	-1E+10	1	-1E+10	1	-1E+10	1	-1E+10	1	-1E+10	1	-1E+10	1
4902554	100	C	11/15/2023	17:06	-133.515	47.699	0	68.00	0	8.0440	0	32.4980	0	25.304	0	67.420	0	-1e10	8	-1e10	8	-1E+10	1	-1E+10	1	-1E+10	1	-1E+10	1	-1E+10	1	-1E+10	1
4902554	100	C	11/15/2023	17:06	-133.515	47.699	0	69.00	0	7.9300	0	32.5000	0	25.322	0	68.411	0	-1e10	8	-1e10	8	-1E+10	1	-1E+10	1	-1E+10	1	-1E+10	1	-1E+10	1	-1E+10	1
4902554	100	C	11/15/2023	17:06	-133.515	47.699	0	70.10	0	7.8680	0	32.4880	0	25.322	0	69.502	0	-1e10	8	-1e10	8	-1E+10	1	-1E+10	1	-1E+10	1	-1E+10	1	-1E+10	1	-1E+10	1
4902554	100	C	11/15/2023	17:06	-133.515	47.699	0	70.90	0	7.8380	0	32.4930	0	25.330	0	70.295	0	-1e10	8	-1e10	8	-1E+10	1	-1E+10	1	-1E+10	1	-1E+10	1	-1E+10	1	-1E+10	1
4902554	100	C	11/15/2023	17:06	-133.515	47.699	0	72.10	0	7.7700	0	32.5000	0	25.345	0	71.484	0	-1e10	8	-1e10	8	-1E+10	1	-1E+10	1	-1E+10	1	-1E+10	1	-1E+10	1	-1E+10	1
4902554	100	C	11/15/2023	17:06	-133.515	47.699	0	73.10	0	7.6870	0	32.4940	0	25.352	0	72.476	0	-1e10	8	-1e10	8	-1E+10	1	-1E+10	1	-1E+10	1	-1E+10	1	-1E+10	1	-1E+10	1
4902554	100	C	11/15/2023	17:06	-133.515	47.699	0	74.20	0	7.6820	0	32.4920	0	25.351	0	73.566	0	-1e10	8	-1e10	8	-1E+10	1	-1E+10	1	-1E+10	1	-1E+10	1	-1E+10	1	-1E+10	1
4902554	100	C	11/15/2023	17:06	-133.515	47.699	0	75.10	0	7.6730	0	32.5050	0	25.363	0	74.458	0	-1e10	8	-1e10	8	-1E+10	1	-1E+10	1	-1E+10	1	-1E+10	1	-1E+10	1	-1E+10	1
4902554	100	C	11/15/2023	17:06	-133.515	47.699	0	75.80	0	7.6370	0	32.5090	0	25.371	0	75.152	0	-1e10	8	-1e10	8	-1E+10	1	-1E+10	1	-1E+10	1	-1E+10	1	-1E+10	1	-1E+10	1
4902554	100	C	11/15/2023	17:06	-133.515	47.699	0	76.70	0	7.6120	0	32.5110	0	25.376	0	76.044	0	-1e10	8	-1e10	8	-1E+10	1	-1E+10	1	-1E+10	1	-1E+10	1	-1E+10	1	-1E+10	1
4902554	100	C	11/15/2023	17:06	-133.515	47.699	0	78.10	0	7.5860	0	32.5100	0	25.379	0	77.432	0	-1e10	8	-1e10	8	-1E+10	1	-1E+10	1	-1E+10	1	-1E+10	1	-1E+10	1	-1E+10	1
4902554	100	C	11/15/2023	17:06	-133.515	47.699	0	79.10	0	7.5530	0	32.5100	0	25.384	0	78.423	0	-1e10	8	-1e10	8	-1E+10	1	-1E+10	1	-1E+10	1	-1E+10	1	-1E+10	1	-1E+10	1
4902554	100	C	11/15/2023	17:06	-133.515	47.699	0	80.10	0	7.5350	0	32.5120	0	25.388	0	79.415	0	-1e10	8	-1e10	8	-1E+10	1	-1E+10	1	-1E+10	1	-1E+10	1	-1E+10	1	-1E+10	1
4902554	100	C	11/15/2023	17:06	-133.515	47.699	0	81.10	0	7.5260	0	32.5130	0	25.390	0	80.406	0	-1e10	8	-1e10	8	-1E+10	1	-1E+10	1	-1E+10	1	-1E+10	1	-1E+10	1	-1E+10	1
4902554	100	C	11/15/2023	17:06	-133.515	47.699	0	82.10	0	7.5160	0	32.5150	0	25.393	0	81.397	0	-1e10	8	-1e10	8	-1E+10	1	-1E+10	1	-1E+10	1	-1E+10	1	-1E+10	1	-1E+10	1
4902554	100	C	11/15/2023	17:06	-133.515	47.699	0	83.10	0	7.5090	0	32.5160	0	25.394	0	82.388	0	-1e10	8	-1e10	8	-1E+10	1	-1E+10	1	-1E+10	1	-1E+10	1	-1E+10	1	-1E+10	1
4902554	100	C	11/15/2023	17:06	-133.515	47.699	0	84.00	0	7.5050	0	32.5160	0	25.395	0	83.280	0	-1e10	8	-1e10	8	-1E+10	1	-1E+10	1	-1E+10	1	-1E+10	1	-1E+10	1	-1E+10	1
4902554	100	C	11/15/2023	17:06	-133.515	47.699	0	84.70	0	7.5020	0	32.5170	0	25.396	0	83.974	0	-1e10	8	-1e10	8	-1E+10	1	-1E+10	1	-1E+10	1	-1E+10	1	-1E+10	1	-1E+10	1
4902554	100	C	11/15/2023	17:06	-133.515	47.699	0	86.10	0	7.4840	0	32.5260	0	25.406	0	85.362	0	-1e10	8	-1e10	8	-1E+10	1	-1E+10	1	-1E+10	1	-1E+10	1	-1E+10	1	-1E+10	1
4902554	100	C	11/15/2023	17:06	-133.515	47.699	0	87.10	0	7.4410	0	32.5220	0	25.409	0	86.353	0	-1e10	8	-1e10	8	-1E+10	1	-1E+10	1	-1E+10	1	-1E+10	1	-1E+10	1	-1E+10	1
4902554	100	C	11/15/2023	17:06	-133.515	47.699	0	88.10	0	7.4270	0	32.5230	0	25.411	0	87.344	0	-1e10	8	-1e10	8	-1E+10	1	-1E+10	1	-1E+10	1	-1E+10	1	-1E+10	1	-1E+10	1
4902554	100	C	11/15/2023	17:06	-133.515	47.699	0	89.10	0	7.4230	0	32.5290	0	25.417	0	88.336	0	-1e10	8	-1e10	8	-1E+10	1	-1E+10	1	-1E+10	1	-1E+10	1	-1E+10	1	-1E+10	1
4902554	100	C	11/15/2023	17:06	-133.515	47.699	0	90.30	0	7.4240	0	32.5350	0	25.421	0	89.525	0	-1e10	8	-1e10	8	-1E+10	1	-1E+10	1	-1E+10	1	-1E+10	1	-1E+10	1	-1E+10	1
4902554	100	C	11/15/2023	17:06	-133.515	47.699	0	91.00	0	7.4330	0	32.5390	0	25.423	0	90.219	0	-1e10	8	-1e10	8	-1E+10	1	-1E+10	1	-1E+10	1	-1E+10	1	-1E+10	1	-1E+10	1
4902554	100	C	11/15/2023	17:06	-133.515	47.699	0	92.20	0	7.4010	0	32.5450	0	25.432	0	91.408	0	-1e10	8	-1e10	8	-1E+10	1	-1E+10	1	-1E+10	1	-1E+10	1	-1E+10	1	-1E+10	1
4902554	100	C	11/15/2023	17:06	-133.515	47.699	0	92.90	0	7.3750	0	32.5500	0	25.440	0	92.102	0	-1e10	8	-1e10	8	-1E+10	1	-1E+10	1	-1E+10	1	-1E+10	1	-1E+10	1	-1E+10	1
4902554	100	C	11/15/2023	17:06	-133.515	47.699	0	93.80	0	7.3730	0	32.5540	0	25.443	0	92.994	0	-1e10	8	-1e10	8	-1E+10	1	-1E+10	1	-1E+10	1	-1E+10	1	-1E+10	1	-1E+10	1
4902554	100	C	11/15/2023	17:06	-133.515	47.699	0	95.00	0	7.3640	0	32.5580	0	25.448	0	94.184	0	-1e10	8	-1e10	8	-1E+10	1	-1E+10	1	-1E+10	1	-1E+10	1	-1E+10	1	-1E+10	1
4902554	100	C	11/15/2023	17:06	-133.515	47.699	0	95.90	0	7.3620	0	32.5610	0	25.450	0	95.076	0	-1e10	8	-1e10	8	-1E+10	1	-1E+10	1	-1E+10	1	-1E+10	1	-1E+10	1	-1E+10	1
4902554	100	C	11/15/2023	17:06	-133.515	47.699	0	97.10	0	7.3600	0	32.5680	0	25.456	0	96.265	0	-1e10	8	-1e10	8	-1E+10	1	-1E+10	1	-1E+10	1	-1E+10	1	-1E+10	1	-1E+10	1
4902554	100	C	11/15/2023	17:06	-133.515	47.699	0	98.10	0	7.3510	0	32.5760	0	25.464	0	97.256	0	-1e10	8	-1e10	8	-1E+10	1	-1E+10	1	-1E+10	1	-1E+10	1	-1E+10	1	-1E+10	1
4902554	100	C	11/15/2023	17:06	-133.515	47.699	0	99.10	0	7.3400	0	32.5960	0	25.481	0	98.248	0	-1e10	8	-1e10	8	-1E+10	1	-1E+10	1	-1E+10	1	-1E+10	1	-1E+10	1	-1E+10	1
4902554	100	C	11/15/2023	17:06	-133.515	47.699	0	100.10	0	7.3610	0	32.6280	0	25.503	0	99.239	0	-1e10	8	-1e10	8	-1E+10	1	-1E+10	1	-1E+10	1	-1E+10	1	-1E+10	1	-1E+10	1
4902554	100	C	11/15/2023	17:06	-133.515	47.699	0	101.10	0	7.3440	0	32.6600	0	25.531	0	100.230	0	-1e10	8	-1e10	8	-1E+10	1	-1E+10	1	-1E+10	1	-1E+10	1	-1E+10	1	-1E+10	1
4902554	100	C	11/15/2023	17:06	-133.515	47.699	0	102.00	0	7.3140	0	32.6810	0	25.551	0	101.122	0	-1e10	8	-1e10	8	-1E+10	1	-1E+10	1	-1E+10	1	-1E+10	1	-1E+10	1	-1E+10	1
4902554	100	C	11/15/2023	17:06	-133.515	47.699	0	102.90	0	7.3000	0	32.6970	0	25.566	0	102.014	0	-1e10	8	-1e10	8	-1E+10	1	-1E+10	1	-1E+10	1	-1E+10	1	-1E+10	1	-1E+10	1
4902554	100	C	11/15/2023	17:06	-133.515	47.699	0	104.10	0	7.2300	0	32.7310	0	25.602	0	103.203	0	-1e10	8	-1e10	8	-1E+10	1	-1E+10	1	-1E+10	1	-1E+10	1	-1E+10	1	-1E+10	1
4902554	100	C	11/15/2023	17:06	-133.515	47.699	0	105.00	0	7.2090	0	32.7380	0	25.611	0	104.095	0	-1e10	8	-1e10	8	-1E+10	1	-1E+10	1	-1E+10	1	-1E+10	1	-1E+10	1	-1E+10	1
4902554	100	C	11/15/2023	17:06	-133.515	47.699	0	105.90	0	7.1800	0	32.7540	0	25.627	0	104.987	0	-1e10	8	-1e10	8	-1E+10	1	-1E+10	1	-1E+10	1	-1E+10	1	-1E+10	1	-1E+10	1
4902554	100	C	11/15/2023	17:06	-133.515	47.699	0	107.10	0	7.0850	0	32.7830	0	25.663	0	106.177	0	-1e10	8	-1e10	8	-1E+10	1	-1E+10	1	-1E+10	1	-1E+10	1	-1E+10	1	-1E+10	1
4902554	100	C	11/15/2023	17:06	-133.515	47.699	0	108.10	0	7.0500	0	32.7960	0	25.678	0	107.168	0	-1e10	8	-1e10	8	-1E+10	1	-1E+10	1	-1E+10	1	-1E+10	1	-1E+10	1	-1E+10	1
4902554	100	C	11/15/2023	17:06	-133.515	47.699	0	109.10	0	7.0390	0	32.8020	0	25.684	0	108.159	0	-1e10	8	-1e10	8	-1E+10	1	-1E+10	1	-1E+10	1	-1E+10	1	-1E+10	1	-1E+10	1
4902554	100	C	11/15/2023	17:06	-133.515	47.699	0	109.90	0	7.0080	0	32.8140	0	25.698	0	108.952	0	-1e10	8	-1e10	8	-1E+10	1	-1E+10	1	-1E+10	1	-1E+10	1	-1E+10	1	-1E+10	1
4902554	100	C	11/15/2023	17:06	-133.515	47.699	0	111.10	0	6.9110	0	32.8410	0	25.732	0	110.141	0	-1e10	8	-1e10	8	-1E+10	1	-1E+10	1	-1E+10	1	-1E+10	1	-1E+10	1	-1E+10	1
4902554	100	C	11/15/2023	17:06	-133.515	47.699	0	111.80	0	6.8160	0	32.8700	0	25.767	0	110.835	0	-1e10	8	-1e10	8	-1E+10	1	-1E+10	1	-1E+10	1	-1E+10	1	-1E+10	1	-1E+10	1
4902554	100	C	11/15/2023	17:06	-133.515	47.699	0	112.80	0	6.7830	0	32.8840	0	25.783	0	111.826	0	-1e10	8	-1e10	8	-1E+10	1	-1E+10	1	-1E+10	1	-1E+10	1	-1E+10	1	-1E+10	1
4902554	100	C	11/15/2023	17:06	-133.515	47.699	0	113.90	0	6.6910	0	32.9310	0	25.832	0	112.916	0	-1e10	8	-1e10	8	-1E+10	1	-1E+10	1	-1E+10	1	-1E+10	1	-1E+10	1	-1E+10	1
4902554	100	C	11/15/2023	17:06	-133.515	47.699	0	115.10	0	6.6610	0	32.9460	0	25.847	0	114.105	0	-1e10	8	-1e10	8	-1E+10	1	-1E+10	1	-1E+10	1	-1E+10	1	-1E+10	1	-1E+10	1
4902554	100	C	11/15/2023	17:06	-133.515	47.699	0	116.00	0	6.6380	0	32.9570	0	25.859	0	114.997	0	-1e10	8	-1e10	8	-1E+10	1	-1E+10	1	-1E+10	1	-1E+10	1	-1E+10	1	-1E+10	1
4902554	100	C	11/15/2023	17:06	-133.515	47.699	0	116.90	0	6.6120	0	32.9720	0	25.874	0	115.889	0	-1e10	8	-1e10	8	-1E+10	1	-1E+10	1	-1E+10	1	-1E+10	1	-1E+10	1	-1E+10	1
4902554	100	C	11/15/2023	17:06	-133.515	47.699	0	117.80	0	6.6020	0	32.9780	0	25.880	0	116.781	0	-1e10	8	-1e10	8	-1E+10	1	-1E+10	1	-1E+10	1	-1E+10	1	-1E+10	1	-1E+10	1
4902554	100	C	11/15/2023	17:06	-133.515	47.699	0	118.70	0	6.5980	0	32.9790	0	25.882	0	117.673	0	-1e10	8	-1e10	8	-1E+10	1	-1E+10	1	-1E+10	1	-1E+10	1	-1E+10	1	-1E+10	1
4902554	100	C	11/15/2023	17:06	-133.515	47.699	0	119.90	0	6.5960	0	32.9800	0	25.883	0	118.863	0	-1e10	8	-1e10	8	-1E+10	1	-1E+10	1	-1E+10	1	-1E+10	1	-1E+10	1	-1E+10	1
4902554	100	C	11/15/2023	17:06	-133.515	47.699	0	121.00	0	6.5950	0	32.9800	0	25.883	0	119.953	0	-1e10	8	-1e10	8	-1E+10	1	-1E+10	1	-1E+10	1	-1E+10	1	-1E+10	1	-1E+10	1
4902554	100	C	11/15/2023	17:06	-133.515	47.699	0	122.10	0	6.5880	0	32.9840	0	25.887	0	121.043	0	-1e10	8	-1e10	8	-1E+10	1	-1E+10	1	-1E+10	1	-1E+10	1	-1E+10	1	-1E+10	1
4902554	100	C	11/15/2023	17:06	-133.515	47.699	0	123.00	0	6.5740	0	32.9910	0	25.894	0	121.935	0	-1e10	8	-1e10	8	-1E+10	1	-1E+10	1	-1E+10	1	-1E+10	1	-1E+10	1	-1E+10	1
4902554	100	C	11/15/2023	17:06	-133.515	47.699	0	123.90	0	6.5190	0	33.0290	0	25.931	0	122.827	0	-1e10	8	-1e10	8	-1E+10	1	-1E+10	1	-1E+10	1	-1E+10	1	-1E+10	1	-1E+10	1
4902554	100	C	11/15/2023	17:06	-133.515	47.699	0	124.90	0	6.4860	0	33.0650	0	25.964	0	123.818	0	-1e10	8	-1e10	8	-1E+10	1	-1E+10	1	-1E+10	1	-1E+10	1	-1E+10	1	-1E+10	1
4902554	100	C	11/15/2023	17:06	-133.515	47.699	0	125.90	0	6.4730	0	33.0710	0	25.970	0	124.809	0	-1e10	8	-1e10	8	-1E+10	1	-1E+10	1	-1E+10	1	-1E+10	1	-1E+10	1	-1E+10	1
4902554	100	C	11/15/2023	17:06	-133.515	47.699	0	126.90	0	6.4510	0	33.0760	0	25.977	0	125.800	0	-1e10	8	-1e10	8	-1E+10	1	-1E+10	1	-1E+10	1	-1E+10	1	-1E+10	1	-1E+10	1
4902554	100	C	11/15/2023	17:06	-133.515	47.699	0	127.80	0	6.4390	0	33.0760	0	25.979	0	126.692	0	-1e10	8	-1e10	8	-1E+10	1	-1E+10	1	-1E+10	1	-1E+10	1	-1E+10	1	-1E+10	1
4902554	100	C	11/15/2023	17:06	-133.515	47.699	0	129.10	0	6.4010	0	33.0920	0	25.996	0	127.980	0	-1e10	8	-1e10	8	-1E+10	1	-1E+10	1	-1E+10	1	-1E+10	1	-1E+10	1	-1E+10	1
4902554	100	C	11/15/2023	17:06	-133.515	47.699	0	130.10	0	6.3430	0	33.1210	0	26.027	0	128.971	0	-1e10	8	-1e10	8	-1E+10	1	-1E+10	1	-1E+10	1	-1E+10	1	-1E+10	1	-1E+10	1
4902554	100	C	11/15/2023	17:06	-133.515	47.699	0	131.10	0	6.2790	0	33.1540	0	26.061	0	129.962	0	-1e10	8	-1e10	8	-1E+10	1	-1E+10	1	-1E+10	1	-1E+10	1	-1E+10	1	-1E+10	1
4902554	100	C	11/15/2023	17:06	-133.515	47.699	0	132.10	0	6.2650	0	33.1590	0	26.066	0	130.953	0	-1e10	8	-1e10	8	-1E+10	1	-1E+10	1	-1E+10	1	-1E+10	1	-1E+10	1	-1E+10	1
4902554	100	C	11/15/2023	17:06	-133.515	47.699	0	132.80	0	6.2580	0	33.1630	0	26.071	0	131.647	0	-1e10	8	-1e10	8	-1E+10	1	-1E+10	1	-1E+10	1	-1E+10	1	-1E+10	1	-1E+10	1
4902554	100	C	11/15/2023	17:06	-133.515	47.699	0	133.80	0	6.2480	0	33.1680	0	26.076	0	132.638	0	-1e10	8	-1e10	8	-1E+10	1	-1E+10	1	-1E+10	1	-1E+10	1	-1E+10	1	-1E+10	1
4902554	100	C	11/15/2023	17:06	-133.515	47.699	0	135.00	0	6.2140	0	33.1920	0	26.099	0	133.827	0	-1e10	8	-1e10	8	-1E+10	1	-1E+10	1	-1E+10	1	-1E+10	1	-1E+10	1	-1E+10	1
4902554	100	C	11/15/2023	17:06	-133.515	47.699	0	135.70	0	6.1970	0	33.2030	0	26.110	0	134.521	0	-1e10	8	-1e10	8	-1E+10	1	-1E+10	1	-1E+10	1	-1E+10	1	-1E+10	1	-1E+10	1
4902554	100	C	11/15/2023	17:06	-133.515	47.699	0	136.90	0	6.1750	0	33.2140	0	26.121	0	135.710	0	-1e10	8	-1e10	8	-1E+10	1	-1E+10	1	-1E+10	1	-1E+10	1	-1E+10	1	-1E+10	1
4902554	100	C	11/15/2023	17:06	-133.515	47.699	0	138.00	0	6.1680	0	33.2190	0	26.126	0	136.800	0	-1e10	8	-1e10	8	-1E+10	1	-1E+10	1	-1E+10	1	-1E+10	1	-1E+10	1	-1E+10	1
4902554	100	C	11/15/2023	17:06	-133.515	47.699	0	138.80	0	6.1640	0	33.2200	0	26.127	0	137.593	0	-1e10	8	-1e10	8	-1E+10	1	-1E+10	1	-1E+10	1	-1E+10	1	-1E+10	1	-1E+10	1
4902554	100	C	11/15/2023	17:06	-133.515	47.699	0	139.80	0	6.1240	0	33.2450	0	26.152	0	138.584	0	-1e10	8	-1e10	8	-1E+10	1	-1E+10	1	-1E+10	1	-1E+10	1	-1E+10	1	-1E+10	1
4902554	100	C	11/15/2023	17:06	-133.515	47.699	0	141.00	0	6.0700	0	33.2860	0	26.191	0	139.773	0	-1e10	8	-1e10	8	-1E+10	1	-1E+10	1	-1E+10	1	-1E+10	1	-1E+10	1	-1E+10	1
4902554	100	C	11/15/2023	17:06	-133.515	47.699	0	141.70	0	6.0570	0	33.2950	0	26.200	0	140.467	0	-1e10	8	-1e10	8	-1E+10	1	-1E+10	1	-1E+10	1	-1E+10	1	-1E+10	1	-1E+10	1
4902554	100	C	11/15/2023	17:06	-133.515	47.699	0	142.90	0	6.0350	0	33.3090	0	26.214	0	141.656	0	-1e10	8	-1e10	8	-1E+10	1	-1E+10	1	-1E+10	1	-1E+10	1	-1E+10	1	-1E+10	1
4902554	100	C	11/15/2023	17:06	-133.515	47.699	0	144.20	0	6.0060	0	33.3310	0	26.235	0	142.944	0	-1e10	8	-1e10	8	-1E+10	1	-1E+10	1	-1E+10	1	-1E+10	1	-1E+10	1	-1E+10	1
4902554	100	C	11/15/2023	17:06	-133.515	47.699	0	145.00	0	5.9930	0	33.3410	0	26.244	0	143.737	0	-1e10	8	-1e10	8	-1E+10	1	-1E+10	1	-1E+10	1	-1E+10	1	-1E+10	1	-1E+10	1
4902554	100	C	11/15/2023	17:06	-133.515	47.699	0	145.90	0	5.9880	0	33.3440	0	26.247	0	144.629	0	-1e10	8	-1e10	8	-1E+10	1	-1E+10	1	-1E+10	1	-1E+10	1	-1E+10	1	-1E+10	1
4902554	100	C	11/15/2023	17:06	-133.515	47.699	0	146.70	0	5.9560	0	33.3680	0	26.270	0	145.421	0	-1e10	8	-1e10	8	-1E+10	1	-1E+10	1	-1E+10	1	-1E+10	1	-1E+10	1	-1E+10	1
4902554	100	C	11/15/2023	17:06	-133.515	47.699	0	147.60	0	5.9500	0	33.3890	0	26.288	0	146.313	0	-1e10	8	-1e10	8	-1E+10	1	-1E+10	1	-1E+10	1	-1E+10	1	-1E+10	1	-1E+10	1
4902554	100	C	11/15/2023	17:06	-133.515	47.699	0	148.90	0	5.9320	0	33.3940	0	26.294	0	147.601	0	-1e10	8	-1e10	8	-1E+10	1	-1E+10	1	-1E+10	1	-1E+10	1	-1E+10	1	-1E+10	1
4902554	100	C	11/15/2023	17:06	-133.515	47.699	0	150.20	0	5.9140	0	33.4060	0	26.305	0	148.890	0	-1e10	8	-1e10	8	-1E+10	1	-1E+10	1	-1E+10	1	-1E+10	1	-1E+10	1	-1E+10	1
4902554	100	C	11/15/2023	17:06	-133.515	47.699	0	151.10	0	5.9050	0	33.4110	0	26.311	0	149.781	0	-1e10	8	-1e10	8	-1E+10	1	-1E+10	1	-1E+10	1	-1E+10	1	-1E+10	1	-1E+10	1
4902554	100	C	11/15/2023	17:06	-133.515	47.699	0	152.00	0	5.8940	0	33.4210	0	26.320	0	150.673	0	-1e10	8	-1e10	8	-1E+10	1	-1E+10	1	-1E+10	1	-1E+10	1	-1E+10	1	-1E+10	1
4902554	100	C	11/15/2023	17:06	-133.515	47.699	0	152.80	0	5.8920	0	33.4230	0	26.322	0	151.466	0	-1e10	8	-1e10	8	-1E+10	1	-1E+10	1	-1E+10	1	-1E+10	1	-1E+10	1	-1E+10	1
4902554	100	C	11/15/2023	17:06	-133.515	47.699	0	153.70	0	5.8810	0	33.4370	0	26.334	0	152.358	0	-1e10	8	-1e10	8	-1E+10	1	-1E+10	1	-1E+10	1	-1E+10	1	-1E+10	1	-1E+10	1
4902554	100	C	11/15/2023	17:06	-133.515	47.699	0	154.60	0	5.8710	0	33.4500	0	26.346	0	153.250	0	-1e10	8	-1e10	8	-1E+10	1	-1E+10	1	-1E+10	1	-1E+10	1	-1E+10	1	-1E+10	1
4902554	100	C	11/15/2023	17:06	-133.515	47.699	0	155.90	0	5.8650	0	33.4600	0	26.354	0	154.538	0	-1e10	8	-1e10	8	-1E+10	1	-1E+10	1	-1E+10	1	-1E+10	1	-1E+10	1	-1E+10	1
4902554	100	C	11/15/2023	17:06	-133.515	47.699	0	157.20	0	5.8600	0	33.4810	0	26.371	0	155.826	0	-1e10	8	-1e10	8	-1E+10	1	-1E+10	1	-1E+10	1	-1E+10	1	-1E+10	1	-1E+10	1
4902554	100	C	11/15/2023	17:06	-133.515	47.699	0	158.10	0	5.8540	0	33.5000	0	26.387	0	156.718	0	-1e10	8	-1e10	8	-1E+10	1	-1E+10	1	-1E+10	1	-1E+10	1	-1E+10	1	-1E+10	1
4902554	100	C	11/15/2023	17:06	-133.515	47.699	0	159.00	0	5.8400	0	33.5180	0	26.403	0	157.609	0	-1e10	8	-1e10	8	-1E+10	1	-1E+10	1	-1E+10	1	-1E+10	1	-1E+10	1	-1E+10	1
4902554	100	C	11/15/2023	17:06	-133.515	47.699	0	159.90	0	5.8270	0	33.5280	0	26.413	0	158.501	0	-1e10	8	-1e10	8	-1E+10	1	-1E+10	1	-1E+10	1	-1E+10	1	-1E+10	1	-1E+10	1
4902554	100	C	11/15/2023	17:06	-133.515	47.699	0	160.70	0	5.8210	0	33.5320	0	26.417	0	159.294	0	-1e10	8	-1e10	8	-1E+10	1	-1E+10	1	-1E+10	1	-1E+10	1	-1E+10	1	-1E+10	1
4902554	100	C	11/15/2023	17:06	-133.515	47.699	0	161.60	0	5.8130	0	33.5390	0	26.423	0	160.186	0	-1e10	8	-1e10	8	-1E+10	1	-1E+10	1	-1E+10	1	-1E+10	1	-1E+10	1	-1E+10	1
4902554	100	C	11/15/2023	17:06	-133.515	47.699	0	162.90	0	5.8070	0	33.5430	0	26.427	0	161.474	0	-1e10	8	-1e10	8	-1E+10	1	-1E+10	1	-1E+10	1	-1E+10	1	-1E+10	1	-1E+10	1
4902554	100	C	11/15/2023	17:06	-133.515	47.699	0	164.20	0	5.7770	0	33.5610	0	26.445	0	162.762	0	-1e10	8	-1e10	8	-1E+10	1	-1E+10	1	-1E+10	1	-1E+10	1	-1E+10	1	-1E+10	1
4902554	100	C	11/15/2023	17:06	-133.515	47.699	0	165.10	0	5.7610	0	33.5680	0	26.452	0	163.654	0	-1e10	8	-1e10	8	-1E+10	1	-1E+10	1	-1E+10	1	-1E+10	1	-1E+10	1	-1E+10	1
4902554	100	C	11/15/2023	17:06	-133.515	47.699	0	166.00	0	5.7460	0	33.5770	0	26.461	0	164.545	0	-1e10	8	-1e10	8	-1E+10	1	-1E+10	1	-1E+10	1	-1E+10	1	-1E+10	1	-1E+10	1
4902554	100	C	11/15/2023	17:06	-133.515	47.699	0	166.90	0	5.7420	0	33.5840	0	26.467	0	165.437	0	-1e10	8	-1e10	8	-1E+10	1	-1E+10	1	-1E+10	1	-1E+10	1	-1E+10	1	-1E+10	1
4902554	100	C	11/15/2023	17:06	-133.515	47.699	0	167.80	0	5.7430	0	33.5860	0	26.469	0	166.329	0	-1e10	8	-1e10	8	-1E+10	1	-1E+10	1	-1E+10	1	-1E+10	1	-1E+10	1	-1E+10	1
4902554	100	C	11/15/2023	17:06	-133.515	47.699	0	168.70	0	5.7460	0	33.5870	0	26.469	0	167.221	0	-1e10	8	-1e10	8	-1E+10	1	-1E+10	1	-1E+10	1	-1E+10	1	-1E+10	1	-1E+10	1
4902554	100	C	11/15/2023	17:06	-133.515	47.699	0	169.90	0	5.7440	0	33.5900	0	26.472	0	168.410	0	-1e10	8	-1e10	8	-1E+10	1	-1E+10	1	-1E+10	1	-1E+10	1	-1E+10	1	-1E+10	1
4902554	100	C	11/15/2023	17:06	-133.515	47.699	0	171.20	0	5.7320	0	33.6100	0	26.489	0	169.698	0	-1e10	8	-1e10	8	-1E+10	1	-1E+10	1	-1E+10	1	-1E+10	1	-1E+10	1	-1E+10	1
4902554	100	C	11/15/2023	17:06	-133.515	47.699	0	172.10	0	5.7150	0	33.6220	0	26.501	0	170.589	0	-1e10	8	-1e10	8	-1E+10	1	-1E+10	1	-1E+10	1	-1E+10	1	-1E+10	1	-1E+10	1
4902554	100	C	11/15/2023	17:06	-133.515	47.699	0	173.00	0	5.7080	0	33.6250	0	26.504	0	171.481	0	-1e10	8	-1e10	8	-1E+10	1	-1E+10	1	-1E+10	1	-1E+10	1	-1E+10	1	-1E+10	1
4902554	100	C	11/15/2023	17:06	-133.515	47.699	0	173.90	0	5.7040	0	33.6290	0	26.508	0	172.373	0	-1e10	8	-1e10	8	-1E+10	1	-1E+10	1	-1E+10	1	-1E+10	1	-1E+10	1	-1E+10	1
4902554	100	C	11/15/2023	17:06	-133.515	47.699	0	174.80	0	5.6920	0	33.6360	0	26.515	0	173.265	0	-1e10	8	-1e10	8	-1E+10	1	-1E+10	1	-1E+10	1	-1E+10	1	-1E+10	1	-1E+10	1
4902554	100	C	11/15/2023	17:06	-133.515	47.699	0	175.70	0	5.6880	0	33.6370	0	26.516	0	174.156	0	-1e10	8	-1e10	8	-1E+10	1	-1E+10	1	-1E+10	1	-1E+10	1	-1E+10	1	-1E+10	1
4902554	100	C	11/15/2023	17:06	-133.515	47.699	0	176.70	0	5.6690	0	33.6520	0	26.530	0	175.147	0	-1e10	8	-1e10	8	-1E+10	1	-1E+10	1	-1E+10	1	-1E+10	1	-1E+10	1	-1E+10	1
4902554	100	C	11/15/2023	17:06	-133.515	47.699	0	177.60	0	5.6580	0	33.6590	0	26.537	0	176.039	0	-1e10	8	-1e10	8	-1E+10	1	-1E+10	1	-1E+10	1	-1E+10	1	-1E+10	1	-1E+10	1
4902554	100	C	11/15/2023	17:06	-133.515	47.699	0	178.90	0	5.6410	0	33.6670	0	26.545	0	177.327	0	-1e10	8	-1e10	8	-1E+10	1	-1E+10	1	-1E+10	1	-1E+10	1	-1E+10	1	-1E+10	1
4902554	100	C	11/15/2023	17:06	-133.515	47.699	0	180.30	0	5.6350	0	33.6710	0	26.549	0	178.714	0	-1e10	8	-1e10	8	-1E+10	1	-1E+10	1	-1E+10	1	-1E+10	1	-1E+10	1	-1E+10	1
4902554	100	C	11/15/2023	17:06	-133.515	47.699	0	181.30	0	5.6280	0	33.6740	0	26.552	0	179.705	0	-1e10	8	-1e10	8	-1E+10	1	-1E+10	1	-1E+10	1	-1E+10	1	-1E+10	1	-1E+10	1
4902554	100	C	11/15/2023	17:06	-133.515	47.699	0	182.20	0	5.6220	0	33.6760	0	26.555	0	180.596	0	-1e10	8	-1e10	8	-1E+10	1	-1E+10	1	-1E+10	1	-1E+10	1	-1E+10	1	-1E+10	1
4902554	100	C	11/15/2023	17:06	-133.515	47.699	0	183.10	0	5.6180	0	33.6770	0	26.556	0	181.488	0	-1e10	8	-1e10	8	-1E+10	1	-1E+10	1	-1E+10	1	-1E+10	1	-1E+10	1	-1E+10	1
4902554	100	C	11/15/2023	17:06	-133.515	47.699	0	184.10	0	5.5990	0	33.6840	0	26.564	0	182.479	0	-1e10	8	-1e10	8	-1E+10	1	-1E+10	1	-1E+10	1	-1E+10	1	-1E+10	1	-1E+10	1
4902554	100	C	11/15/2023	17:06	-133.515	47.699	0	185.00	0	5.5740	0	33.6910	0	26.572	0	183.370	0	-1e10	8	-1e10	8	-1E+10	1	-1E+10	1	-1E+10	1	-1E+10	1	-1E+10	1	-1E+10	1
4902554	100	C	11/15/2023	17:06	-133.515	47.699	0	186.00	0	5.5660	0	33.6960	0	26.577	0	184.361	0	-1e10	8	-1e10	8	-1E+10	1	-1E+10	1	-1E+10	1	-1E+10	1	-1E+10	1	-1E+10	1
4902554	100	C	11/15/2023	17:06	-133.515	47.699	0	187.00	0	5.5640	0	33.7020	0	26.582	0	185.352	0	-1e10	8	-1e10	8	-1E+10	1	-1E+10	1	-1E+10	1	-1E+10	1	-1E+10	1	-1E+10	1
4902554	100	C	11/15/2023	17:06	-133.515	47.699	0	188.00	0	5.5560	0	33.7030	0	26.584	0	186.343	0	-1e10	8	-1e10	8	-1E+10	1	-1E+10	1	-1E+10	1	-1E+10	1	-1E+10	1	-1E+10	1
4902554	100	C	11/15/2023	17:06	-133.515	47.699	0	188.90	0	5.5490	0	33.7040	0	26.586	0	187.234	0	-1e10	8	-1e10	8	-1E+10	1	-1E+10	1	-1E+10	1	-1E+10	1	-1E+10	1	-1E+10	1
4902554	100	C	11/15/2023	17:06	-133.515	47.699	0	189.90	0	5.5500	0	33.7050	0	26.586	0	188.225	0	-1e10	8	-1e10	8	-1E+10	1	-1E+10	1	-1E+10	1	-1E+10	1	-1E+10	1	-1E+10	1
4902554	100	C	11/15/2023	17:06	-133.515	47.699	0	190.90	0	5.5510	0	33.7050	0	26.586	0	189.216	0	-1e10	8	-1e10	8	-1E+10	1	-1E+10	1	-1E+10	1	-1E+10	1	-1E+10	1	-1E+10	1
4902554	100	C	11/15/2023	17:06	-133.515	47.699	0	191.90	0	5.5530	0	33.7170	0	26.596	0	190.207	0	-1e10	8	-1e10	8	-1E+10	1	-1E+10	1	-1E+10	1	-1E+10	1	-1E+10	1	-1E+10	1
4902554	100	C	11/15/2023	17:06	-133.515	47.699	0	192.90	0	5.5550	0	33.7180	0	26.596	0	191.197	0	-1e10	8	-1e10	8	-1E+10	1	-1E+10	1	-1E+10	1	-1E+10	1	-1E+10	1	-1E+10	1
4902554	100	C	11/15/2023	17:06	-133.515	47.699	0	193.80	0	5.5510	0	33.7200	0	26.598	0	192.089	0	-1e10	8	-1e10	8	-1E+10	1	-1E+10	1	-1E+10	1	-1E+10	1	-1E+10	1	-1E+10	1
4902554	100	C	11/15/2023	17:06	-133.515	47.699	0	194.80	0	5.5420	0	33.7230	0	26.602	0	193.080	0	-1e10	8	-1e10	8	-1E+10	1	-1E+10	1	-1E+10	1	-1E+10	1	-1E+10	1	-1E+10	1
4902554	100	C	11/15/2023	17:06	-133.515	47.699	0	195.80	0	5.5140	0	33.7200	0	26.603	0	194.070	0	-1e10	8	-1e10	8	-1E+10	1	-1E+10	1	-1E+10	1	-1E+10	1	-1E+10	1	-1E+10	1
4902554	100	C	11/15/2023	17:06	-133.515	47.699	0	197.00	0	5.4790	0	33.7210	0	26.608	0	195.259	0	-1e10	8	-1e10	8	-1E+10	1	-1E+10	1	-1E+10	1	-1E+10	1	-1E+10	1	-1E+10	1
4902554	100	C	11/15/2023	17:06	-133.515	47.699	0	197.80	0	5.4780	0	33.7190	0	26.606	0	196.052	0	-1e10	8	-1e10	8	-1E+10	1	-1E+10	1	-1E+10	1	-1E+10	1	-1E+10	1	-1E+10	1
4902554	100	C	11/15/2023	17:06	-133.515	47.699	0	198.90	0	5.4800	0	33.7240	0	26.610	0	197.141	0	-1e10	8	-1e10	8	-1E+10	1	-1E+10	1	-1E+10	1	-1E+10	1	-1E+10	1	-1E+10	1
4902554	100	C	11/15/2023	17:06	-133.515	47.699	0	200.00	0	5.4810	0	33.7270	0	26.612	0	198.231	0	-1e10	8	-1e10	8	-1E+10	1	-1E+10	1	-1E+10	1	-1E+10	1	-1E+10	1	-1E+10	1
4902554	100	C	11/15/2023	17:06	-133.515	47.699	0	200.80	0	5.4790	0	33.7280	0	26.613	0	199.024	0	-1e10	8	-1e10	8	-1E+10	1	-1E+10	1	-1E+10	1	-1E+10	1	-1E+10	1	-1E+10	1
4902554	100	C	11/15/2023	17:06	-133.515	47.699	0	202.00	0	5.4670	0	33.7270	0	26.614	0	200.213	0	-1e10	8	-1e10	8	-1E+10	1	-1E+10	1	-1E+10	1	-1E+10	1	-1E+10	1	-1E+10	1
4902554	100	C	11/15/2023	17:06	-133.515	47.699	0	203.10	0	5.4430	0	33.7270	0	26.617	0	201.302	0	-1e10	8	-1e10	8	-1E+10	1	-1E+10	1	-1E+10	1	-1E+10	1	-1E+10	1	-1E+10	1
4902554	100	C	11/15/2023	17:06	-133.515	47.699	0	203.90	0	5.4260	0	33.7280	0	26.619	0	202.095	0	-1e10	8	-1e10	8	-1E+10	1	-1E+10	1	-1E+10	1	-1E+10	1	-1E+10	1	-1E+10	1
4902554	100	C	11/15/2023	17:06	-133.515	47.699	0	204.70	0	5.4130	0	33.7310	0	26.623	0	202.887	0	-1e10	8	-1e10	8	-1E+10	1	-1E+10	1	-1E+10	1	-1E+10	1	-1E+10	1	-1E+10	1
4902554	100	C	11/15/2023	17:06	-133.515	47.699	0	205.90	0	5.4030	0	33.7340	0	26.627	0	204.076	0	-1e10	8	-1e10	8	-1E+10	1	-1E+10	1	-1E+10	1	-1E+10	1	-1E+10	1	-1E+10	1
4902554	100	C	11/15/2023	17:06	-133.515	47.699	0	207.10	0	5.3930	0	33.7360	0	26.630	0	205.265	0	-1e10	8	-1e10	8	-1E+10	1	-1E+10	1	-1E+10	1	-1E+10	1	-1E+10	1	-1E+10	1
4902554	100	C	11/15/2023	17:06	-133.515	47.699	0	207.90	0	5.3870	0	33.7380	0	26.632	0	206.057	0	-1e10	8	-1e10	8	-1E+10	1	-1E+10	1	-1E+10	1	-1E+10	1	-1E+10	1	-1E+10	1
4902554	100	C	11/15/2023	17:06	-133.515	47.699	0	208.70	0	5.3800	0	33.7380	0	26.633	0	206.850	0	-1e10	8	-1e10	8	-1E+10	1	-1E+10	1	-1E+10	1	-1E+10	1	-1E+10	1	-1E+10	1
4902554	100	C	11/15/2023	17:06	-133.515	47.699	0	209.90	0	5.3670	0	33.7410	0	26.637	0	208.039	0	-1e10	8	-1e10	8	-1E+10	1	-1E+10	1	-1E+10	1	-1E+10	1	-1E+10	1	-1E+10	1
4902554	100	C	11/15/2023	17:06	-133.515	47.699	0	211.20	0	5.3590	0	33.7430	0	26.639	0	209.326	0	-1e10	8	-1e10	8	-1E+10	1	-1E+10	1	-1E+10	1	-1E+10	1	-1E+10	1	-1E+10	1
4902554	100	C	11/15/2023	17:06	-133.515	47.699	0	212.00	0	5.3590	0	33.7430	0	26.639	0	210.119	0	-1e10	8	-1e10	8	-1E+10	1	-1E+10	1	-1E+10	1	-1E+10	1	-1E+10	1	-1E+10	1
4902554	100	C	11/15/2023	17:06	-133.515	47.699	0	212.80	0	5.3580	0	33.7440	0	26.640	0	210.911	0	-1e10	8	-1e10	8	-1E+10	1	-1E+10	1	-1E+10	1	-1E+10	1	-1E+10	1	-1E+10	1
4902554	100	C	11/15/2023	17:06	-133.515	47.699	0	214.00	0	5.3550	0	33.7440	0	26.641	0	212.100	0	-1e10	8	-1e10	8	-1E+10	1	-1E+10	1	-1E+10	1	-1E+10	1	-1E+10	1	-1E+10	1
4902554	100	C	11/15/2023	17:06	-133.515	47.699	0	215.30	0	5.3480	0	33.7480	0	26.645	0	213.388	0	-1e10	8	-1e10	8	-1E+10	1	-1E+10	1	-1E+10	1	-1E+10	1	-1E+10	1	-1E+10	1
4902554	100	C	11/15/2023	17:06	-133.515	47.699	0	216.10	0	5.3240	0	33.7490	0	26.648	0	214.180	0	-1e10	8	-1e10	8	-1E+10	1	-1E+10	1	-1E+10	1	-1E+10	1	-1E+10	1	-1E+10	1
4902554	100	C	11/15/2023	17:06	-133.515	47.699	0	216.90	0	5.3220	0	33.7450	0	26.645	0	214.973	0	-1e10	8	-1e10	8	-1E+10	1	-1E+10	1	-1E+10	1	-1E+10	1	-1E+10	1	-1E+10	1
4902554	100	C	11/15/2023	17:06	-133.515	47.699	0	217.70	0	5.3180	0	33.7460	0	26.647	0	215.765	0	-1e10	8	-1e10	8	-1E+10	1	-1E+10	1	-1E+10	1	-1E+10	1	-1E+10	1	-1E+10	1
4902554	100	C	11/15/2023	17:06	-133.515	47.699	0	219.00	0	5.3130	0	33.7460	0	26.647	0	217.053	0	-1e10	8	-1e10	8	-1E+10	1	-1E+10	1	-1E+10	1	-1E+10	1	-1E+10	1	-1E+10	1
4902554	100	C	11/15/2023	17:06	-133.515	47.699	0	220.20	0	5.3070	0	33.7470	0	26.649	0	218.242	0	-1e10	8	-1e10	8	-1E+10	1	-1E+10	1	-1E+10	1	-1E+10	1	-1E+10	1	-1E+10	1
4902554	100	C	11/15/2023	17:06	-133.515	47.699	0	221.00	0	5.2940	0	33.7480	0	26.651	0	219.034	0	-1e10	8	-1e10	8	-1E+10	1	-1E+10	1	-1E+10	1	-1E+10	1	-1E+10	1	-1E+10	1
4902554	100	C	11/15/2023	17:06	-133.515	47.699	0	221.90	0	5.2910	0	33.7490	0	26.652	0	219.926	0	-1e10	8	-1e10	8	-1E+10	1	-1E+10	1	-1E+10	1	-1E+10	1	-1E+10	1	-1E+10	1
4902554	100	C	11/15/2023	17:06	-133.515	47.699	0	222.70	0	5.2880	0	33.7500	0	26.653	0	220.718	0	-1e10	8	-1e10	8	-1E+10	1	-1E+10	1	-1E+10	1	-1E+10	1	-1E+10	1	-1E+10	1
4902554	100	C	11/15/2023	17:06	-133.515	47.699	0	223.90	0	5.2890	0	33.7560	0	26.658	0	221.907	0	-1e10	8	-1e10	8	-1E+10	1	-1E+10	1	-1E+10	1	-1E+10	1	-1E+10	1	-1E+10	1
4902554	100	C	11/15/2023	17:06	-133.515	47.699	0	225.20	0	5.2870	0	33.7570	0	26.659	0	223.195	0	-1e10	8	-1e10	8	-1E+10	1	-1E+10	1	-1E+10	1	-1E+10	1	-1E+10	1	-1E+10	1
4902554	100	C	11/15/2023	17:06	-133.515	47.699	0	226.00	0	5.2820	0	33.7590	0	26.661	0	223.987	0	-1e10	8	-1e10	8	-1E+10	1	-1E+10	1	-1E+10	1	-1E+10	1	-1E+10	1	-1E+10	1
4902554	100	C	11/15/2023	17:06	-133.515	47.699	0	226.90	0	5.2700	0	33.7600	0	26.663	0	224.879	0	-1e10	8	-1e10	8	-1E+10	1	-1E+10	1	-1E+10	1	-1E+10	1	-1E+10	1	-1E+10	1
4902554	100	C	11/15/2023	17:06	-133.515	47.699	0	227.70	0	5.2560	0	33.7620	0	26.667	0	225.671	0	-1e10	8	-1e10	8	-1E+10	1	-1E+10	1	-1E+10	1	-1E+10	1	-1E+10	1	-1E+10	1
4902554	100	C	11/15/2023	17:06	-133.515	47.699	0	229.00	0	5.2310	0	33.7650	0	26.672	0	226.959	0	-1e10	8	-1e10	8	-1E+10	1	-1E+10	1	-1E+10	1	-1E+10	1	-1E+10	1	-1E+10	1
4902554	100	C	11/15/2023	17:06	-133.515	47.699	0	230.20	0	5.2250	0	33.7650	0	26.673	0	228.147	0	-1e10	8	-1e10	8	-1E+10	1	-1E+10	1	-1E+10	1	-1E+10	1	-1E+10	1	-1E+10	1
4902554	100	C	11/15/2023	17:06	-133.515	47.699	0	231.10	0	5.2220	0	33.7650	0	26.673	0	229.039	0	-1e10	8	-1e10	8	-1E+10	1	-1E+10	1	-1E+10	1	-1E+10	1	-1E+10	1	-1E+10	1
4902554	100	C	11/15/2023	17:06	-133.515	47.699	0	232.00	0	5.2190	0	33.7640	0	26.672	0	229.930	0	-1e10	8	-1e10	8	-1E+10	1	-1E+10	1	-1E+10	1	-1E+10	1	-1E+10	1	-1E+10	1
4902554	100	C	11/15/2023	17:06	-133.515	47.699	0	232.80	0	5.1860	0	33.7640	0	26.676	0	230.723	0	-1e10	8	-1e10	8	-1E+10	1	-1E+10	1	-1E+10	1	-1E+10	1	-1E+10	1	-1E+10	1
4902554	100	C	11/15/2023	17:06	-133.515	47.699	0	233.70	0	5.1760	0	33.7650	0	26.678	0	231.614	0	-1e10	8	-1e10	8	-1E+10	1	-1E+10	1	-1E+10	1	-1E+10	1	-1E+10	1	-1E+10	1
4902554	100	C	11/15/2023	17:06	-133.515	47.699	0	234.90	0	5.1460	0	33.7680	0	26.684	0	232.803	0	-1e10	8	-1e10	8	-1E+10	1	-1E+10	1	-1E+10	1	-1E+10	1	-1E+10	1	-1E+10	1
4902554	100	C	11/15/2023	17:06	-133.515	47.699	0	236.20	0	5.1280	0	33.7700	0	26.688	0	234.091	0	-1e10	8	-1e10	8	-1E+10	1	-1E+10	1	-1E+10	1	-1E+10	1	-1E+10	1	-1E+10	1
4902554	100	C	11/15/2023	17:06	-133.515	47.699	0	237.10	0	5.1240	0	33.7720	0	26.690	0	234.982	0	-1e10	8	-1e10	8	-1E+10	1	-1E+10	1	-1E+10	1	-1E+10	1	-1E+10	1	-1E+10	1
4902554	100	C	11/15/2023	17:06	-133.515	47.699	0	238.00	0	5.1230	0	33.7730	0	26.691	0	235.873	0	-1e10	8	-1e10	8	-1E+10	1	-1E+10	1	-1E+10	1	-1E+10	1	-1E+10	1	-1E+10	1
4902554	100	C	11/15/2023	17:06	-133.515	47.699	0	238.90	0	5.1160	0	33.7740	0	26.692	0	236.765	0	-1e10	8	-1e10	8	-1E+10	1	-1E+10	1	-1E+10	1	-1E+10	1	-1E+10	1	-1E+10	1
4902554	100	C	11/15/2023	17:06	-133.515	47.699	0	239.70	0	5.1130	0	33.7740	0	26.693	0	237.557	0	-1e10	8	-1e10	8	-1E+10	1	-1E+10	1	-1E+10	1	-1E+10	1	-1E+10	1	-1E+10	1
4902554	100	C	11/15/2023	17:06	-133.515	47.699	0	240.60	0	5.1000	0	33.7750	0	26.695	0	238.449	0	-1e10	8	-1e10	8	-1E+10	1	-1E+10	1	-1E+10	1	-1E+10	1	-1E+10	1	-1E+10	1
4902554	100	C	11/15/2023	17:06	-133.515	47.699	0	241.90	0	5.0800	0	33.7760	0	26.698	0	239.736	0	-1e10	8	-1e10	8	-1E+10	1	-1E+10	1	-1E+10	1	-1E+10	1	-1E+10	1	-1E+10	1
4902554	100	C	11/15/2023	17:06	-133.515	47.699	0	243.20	0	5.0700	0	33.7750	0	26.698	0	241.024	0	-1e10	8	-1e10	8	-1E+10	1	-1E+10	1	-1E+10	1	-1E+10	1	-1E+10	1	-1E+10	1
4902554	100	C	11/15/2023	17:06	-133.515	47.699	0	244.10	0	5.0600	0	33.7770	0	26.701	0	241.915	0	-1e10	8	-1e10	8	-1E+10	1	-1E+10	1	-1E+10	1	-1E+10	1	-1E+10	1	-1E+10	1
4902554	100	C	11/15/2023	17:06	-133.515	47.699	0	245.00	0	5.0550	0	33.7780	0	26.702	0	242.807	0	-1e10	8	-1e10	8	-1E+10	1	-1E+10	1	-1E+10	1	-1E+10	1	-1E+10	1	-1E+10	1
4902554	100	C	11/15/2023	17:06	-133.515	47.699	0	245.80	0	5.0520	0	33.7780	0	26.703	0	243.599	0	-1e10	8	-1e10	8	-1E+10	1	-1E+10	1	-1E+10	1	-1E+10	1	-1E+10	1	-1E+10	1
4902554	100	C	11/15/2023	17:06	-133.515	47.699	0	246.70	0	5.0440	0	33.7800	0	26.705	0	244.491	0	-1e10	8	-1e10	8	-1E+10	1	-1E+10	1	-1E+10	1	-1E+10	1	-1E+10	1	-1E+10	1
4902554	100	C	11/15/2023	17:06	-133.515	47.699	0	247.60	0	5.0400	0	33.7800	0	26.706	0	245.382	0	-1e10	8	-1e10	8	-1E+10	1	-1E+10	1	-1E+10	1	-1E+10	1	-1E+10	1	-1E+10	1
4902554	100	C	11/15/2023	17:06	-133.515	47.699	0	248.90	0	5.0300	0	33.7810	0	26.708	0	246.670	0	-1e10	8	-1e10	8	-1E+10	1	-1E+10	1	-1E+10	1	-1E+10	1	-1E+10	1	-1E+10	1
4902554	100	C	11/15/2023	17:06	-133.515	47.699	0	250.20	0	5.0200	0	33.7840	0	26.711	0	247.957	0	-1e10	8	-1e10	8	-1E+10	1	-1E+10	1	-1E+10	1	-1E+10	1	-1E+10	1	-1E+10	1
4902554	100	C	11/15/2023	17:06	-133.515	47.699	0	251.20	0	5.0000	0	33.7840	0	26.714	0	248.948	0	-1e10	8	-1e10	8	-1E+10	1	-1E+10	1	-1E+10	1	-1E+10	1	-1E+10	1	-1E+10	1
4902554	100	C	11/15/2023	17:06	-133.515	47.699	0	252.10	0	4.9870	0	33.7850	0	26.716	0	249.839	0	-1e10	8	-1e10	8	-1E+10	1	-1E+10	1	-1E+10	1	-1E+10	1	-1E+10	1	-1E+10	1
4902554	100	C	11/15/2023	17:06	-133.515	47.699	0	253.00	0	4.9820	0	33.7850	0	26.716	0	250.730	0	-1e10	8	-1e10	8	-1E+10	1	-1E+10	1	-1E+10	1	-1E+10	1	-1E+10	1	-1E+10	1
4902554	100	C	11/15/2023	17:06	-133.515	47.699	0	253.90	0	4.9790	0	33.7860	0	26.718	0	251.622	0	-1e10	8	-1e10	8	-1E+10	1	-1E+10	1	-1E+10	1	-1E+10	1	-1E+10	1	-1E+10	1
4902554	100	C	11/15/2023	17:06	-133.515	47.699	0	254.80	0	4.9780	0	33.7850	0	26.717	0	252.513	0	-1e10	8	-1e10	8	-1E+10	1	-1E+10	1	-1E+10	1	-1E+10	1	-1E+10	1	-1E+10	1
4902554	100	C	11/15/2023	17:06	-133.515	47.699	0	255.70	0	4.9760	0	33.7860	0	26.718	0	253.404	0	-1e10	8	-1e10	8	-1E+10	1	-1E+10	1	-1E+10	1	-1E+10	1	-1E+10	1	-1E+10	1
4902554	100	C	11/15/2023	17:06	-133.515	47.699	0	256.60	0	4.9710	0	33.7870	0	26.719	0	254.296	0	-1e10	8	-1e10	8	-1E+10	1	-1E+10	1	-1E+10	1	-1E+10	1	-1E+10	1	-1E+10	1
4902554	100	C	11/15/2023	17:06	-133.515	47.699	0	257.90	0	4.9680	0	33.7870	0	26.720	0	255.583	0	-1e10	8	-1e10	8	-1E+10	1	-1E+10	1	-1E+10	1	-1E+10	1	-1E+10	1	-1E+10	1
4902554	100	C	11/15/2023	17:06	-133.515	47.699	0	259.40	0	4.9630	0	33.7880	0	26.721	0	257.069	0	-1e10	8	-1e10	8	-1E+10	1	-1E+10	1	-1E+10	1	-1E+10	1	-1E+10	1	-1E+10	1
4902554	100	C	11/15/2023	17:06	-133.515	47.699	0	260.30	0	4.9610	0	33.7880	0	26.721	0	257.960	0	-1e10	8	-1e10	8	-1E+10	1	-1E+10	1	-1E+10	1	-1E+10	1	-1E+10	1	-1E+10	1
4902554	100	C	11/15/2023	17:06	-133.515	47.699	0	261.20	0	4.9560	0	33.7890	0	26.723	0	258.852	0	-1e10	8	-1e10	8	-1E+10	1	-1E+10	1	-1E+10	1	-1E+10	1	-1E+10	1	-1E+10	1
4902554	100	C	11/15/2023	17:06	-133.515	47.699	0	262.10	0	4.9500	0	33.7890	0	26.723	0	259.743	0	-1e10	8	-1e10	8	-1E+10	1	-1E+10	1	-1E+10	1	-1E+10	1	-1E+10	1	-1E+10	1
4902554	100	C	11/15/2023	17:06	-133.515	47.699	0	263.10	0	4.9480	0	33.7890	0	26.723	0	260.733	0	-1e10	8	-1e10	8	-1E+10	1	-1E+10	1	-1E+10	1	-1E+10	1	-1E+10	1	-1E+10	1
4902554	100	C	11/15/2023	17:06	-133.515	47.699	0	264.00	0	4.9450	0	33.7900	0	26.725	0	261.625	0	-1e10	8	-1e10	8	-1E+10	1	-1E+10	1	-1E+10	1	-1E+10	1	-1E+10	1	-1E+10	1
4902554	100	C	11/15/2023	17:06	-133.515	47.699	0	264.90	0	4.9410	0	33.7900	0	26.725	0	262.516	0	-1e10	8	-1e10	8	-1E+10	1	-1E+10	1	-1E+10	1	-1E+10	1	-1E+10	1	-1E+10	1
4902554	100	C	11/15/2023	17:06	-133.515	47.699	0	265.90	0	4.9390	0	33.7920	0	26.727	0	263.506	0	-1e10	8	-1e10	8	-1E+10	1	-1E+10	1	-1E+10	1	-1E+10	1	-1E+10	1	-1E+10	1
4902554	100	C	11/15/2023	17:06	-133.515	47.699	0	266.80	0	4.9330	0	33.7920	0	26.728	0	264.398	0	-1e10	8	-1e10	8	-1E+10	1	-1E+10	1	-1E+10	1	-1E+10	1	-1E+10	1	-1E+10	1
4902554	100	C	11/15/2023	17:06	-133.515	47.699	0	267.70	0	4.9280	0	33.7920	0	26.728	0	265.289	0	-1e10	8	-1e10	8	-1E+10	1	-1E+10	1	-1E+10	1	-1E+10	1	-1E+10	1	-1E+10	1
4902554	100	C	11/15/2023	17:06	-133.515	47.699	0	268.60	0	4.9230	0	33.7930	0	26.729	0	266.180	0	-1e10	8	-1e10	8	-1E+10	1	-1E+10	1	-1E+10	1	-1E+10	1	-1E+10	1	-1E+10	1
4902554	100	C	11/15/2023	17:06	-133.515	47.699	0	269.60	0	4.9190	0	33.7930	0	26.730	0	267.171	0	-1e10	8	-1e10	8	-1E+10	1	-1E+10	1	-1E+10	1	-1E+10	1	-1E+10	1	-1E+10	1
4902554	100	C	11/15/2023	17:06	-133.515	47.699	0	270.90	0	4.9170	0	33.7940	0	26.731	0	268.458	0	-1e10	8	-1e10	8	-1E+10	1	-1E+10	1	-1E+10	1	-1E+10	1	-1E+10	1	-1E+10	1
4902554	100	C	11/15/2023	17:06	-133.515	47.699	0	272.30	0	4.9100	0	33.7960	0	26.733	0	269.845	0	-1e10	8	-1e10	8	-1E+10	1	-1E+10	1	-1E+10	1	-1E+10	1	-1E+10	1	-1E+10	1
4902554	100	C	11/15/2023	17:06	-133.515	47.699	0	273.20	0	4.9070	0	33.7950	0	26.733	0	270.736	0	-1e10	8	-1e10	8	-1E+10	1	-1E+10	1	-1E+10	1	-1E+10	1	-1E+10	1	-1E+10	1
4902554	100	C	11/15/2023	17:06	-133.515	47.699	0	274.10	0	4.8830	0	33.8010	0	26.740	0	271.627	0	-1e10	8	-1e10	8	-1E+10	1	-1E+10	1	-1E+10	1	-1E+10	1	-1E+10	1	-1E+10	1
4902554	100	C	11/15/2023	17:06	-133.515	47.699	0	275.00	0	4.8730	0	33.7990	0	26.740	0	272.518	0	-1e10	8	-1e10	8	-1E+10	1	-1E+10	1	-1E+10	1	-1E+10	1	-1E+10	1	-1E+10	1
4902554	100	C	11/15/2023	17:06	-133.515	47.699	0	275.90	0	4.8760	0	33.8000	0	26.740	0	273.410	0	-1e10	8	-1e10	8	-1E+10	1	-1E+10	1	-1E+10	1	-1E+10	1	-1E+10	1	-1E+10	1
4902554	100	C	11/15/2023	17:06	-133.515	47.699	0	276.90	0	4.8780	0	33.8020	0	26.742	0	274.400	0	-1e10	8	-1e10	8	-1E+10	1	-1E+10	1	-1E+10	1	-1E+10	1	-1E+10	1	-1E+10	1
4902554	100	C	11/15/2023	17:06	-133.515	47.699	0	277.80	0	4.8770	0	33.8070	0	26.746	0	275.291	0	-1e10	8	-1e10	8	-1E+10	1	-1E+10	1	-1E+10	1	-1E+10	1	-1E+10	1	-1E+10	1
4902554	100	C	11/15/2023	17:06	-133.515	47.699	0	278.70	0	4.8730	0	33.8080	0	26.747	0	276.183	0	-1e10	8	-1e10	8	-1E+10	1	-1E+10	1	-1E+10	1	-1E+10	1	-1E+10	1	-1E+10	1
4902554	100	C	11/15/2023	17:06	-133.515	47.699	0	279.70	0	4.8710	0	33.8080	0	26.747	0	277.173	0	-1e10	8	-1e10	8	-1E+10	1	-1E+10	1	-1E+10	1	-1E+10	1	-1E+10	1	-1E+10	1
4902554	100	C	11/15/2023	17:06	-133.515	47.699	0	280.60	0	4.8660	0	33.8090	0	26.749	0	278.064	0	-1e10	8	-1e10	8	-1E+10	1	-1E+10	1	-1E+10	1	-1E+10	1	-1E+10	1	-1E+10	1
4902554	100	C	11/15/2023	17:06	-133.515	47.699	0	281.90	0	4.8550	0	33.8120	0	26.752	0	279.352	0	-1e10	8	-1e10	8	-1E+10	1	-1E+10	1	-1E+10	1	-1E+10	1	-1E+10	1	-1E+10	1
4902554	100	C	11/15/2023	17:06	-133.515	47.699	0	283.40	0	4.8460	0	33.8150	0	26.756	0	280.837	0	-1e10	8	-1e10	8	-1E+10	1	-1E+10	1	-1E+10	1	-1E+10	1	-1E+10	1	-1E+10	1
4902554	100	C	11/15/2023	17:06	-133.515	47.699	0	284.30	0	4.8460	0	33.8180	0	26.758	0	281.728	0	-1e10	8	-1e10	8	-1E+10	1	-1E+10	1	-1E+10	1	-1E+10	1	-1E+10	1	-1E+10	1
4902554	100	C	11/15/2023	17:06	-133.515	47.699	0	285.20	0	4.8440	0	33.8200	0	26.760	0	282.619	0	-1e10	8	-1e10	8	-1E+10	1	-1E+10	1	-1E+10	1	-1E+10	1	-1E+10	1	-1E+10	1
4902554	100	C	11/15/2023	17:06	-133.515	47.699	0	286.10	0	4.8310	0	33.8200	0	26.761	0	283.511	0	-1e10	8	-1e10	8	-1E+10	1	-1E+10	1	-1E+10	1	-1E+10	1	-1E+10	1	-1E+10	1
4902554	100	C	11/15/2023	17:06	-133.515	47.699	0	287.00	0	4.8230	0	33.8200	0	26.762	0	284.402	0	-1e10	8	-1e10	8	-1E+10	1	-1E+10	1	-1E+10	1	-1E+10	1	-1E+10	1	-1E+10	1
4902554	100	C	11/15/2023	17:06	-133.515	47.699	0	288.00	0	4.8230	0	33.8210	0	26.763	0	285.392	0	-1e10	8	-1e10	8	-1E+10	1	-1E+10	1	-1E+10	1	-1E+10	1	-1E+10	1	-1E+10	1
4902554	100	C	11/15/2023	17:06	-133.515	47.699	0	288.90	0	4.8240	0	33.8230	0	26.765	0	286.283	0	-1e10	8	-1e10	8	-1E+10	1	-1E+10	1	-1E+10	1	-1E+10	1	-1E+10	1	-1E+10	1
4902554	100	C	11/15/2023	17:06	-133.515	47.699	0	289.80	0	4.8210	0	33.8250	0	26.766	0	287.175	0	-1e10	8	-1e10	8	-1E+10	1	-1E+10	1	-1E+10	1	-1E+10	1	-1E+10	1	-1E+10	1
4902554	100	C	11/15/2023	17:06	-133.515	47.699	0	290.70	0	4.8040	0	33.8290	0	26.772	0	288.066	0	-1e10	8	-1e10	8	-1E+10	1	-1E+10	1	-1E+10	1	-1E+10	1	-1E+10	1	-1E+10	1
4902554	100	C	11/15/2023	17:06	-133.515	47.699	0	291.60	0	4.7820	0	33.8260	0	26.772	0	288.957	0	-1e10	8	-1e10	8	-1E+10	1	-1E+10	1	-1E+10	1	-1E+10	1	-1E+10	1	-1E+10	1
4902554	100	C	11/15/2023	17:06	-133.515	47.699	0	292.50	0	4.7760	0	33.8260	0	26.772	0	289.848	0	-1e10	8	-1e10	8	-1E+10	1	-1E+10	1	-1E+10	1	-1E+10	1	-1E+10	1	-1E+10	1
4902554	100	C	11/15/2023	17:06	-133.515	47.699	0	293.90	0	4.7560	0	33.8280	0	26.776	0	291.235	0	-1e10	8	-1e10	8	-1E+10	1	-1E+10	1	-1E+10	1	-1E+10	1	-1E+10	1	-1E+10	1
4902554	100	C	11/15/2023	17:06	-133.515	47.699	0	295.30	0	4.7470	0	33.8330	0	26.781	0	292.621	0	-1e10	8	-1e10	8	-1E+10	1	-1E+10	1	-1E+10	1	-1E+10	1	-1E+10	1	-1E+10	1
4902554	100	C	11/15/2023	17:06	-133.515	47.699	0	296.20	0	4.7440	0	33.8360	0	26.784	0	293.512	0	-1e10	8	-1e10	8	-1E+10	1	-1E+10	1	-1E+10	1	-1E+10	1	-1E+10	1	-1E+10	1
4902554	100	C	11/15/2023	17:06	-133.515	47.699	0	297.10	0	4.7370	0	33.8370	0	26.785	0	294.403	0	-1e10	8	-1e10	8	-1E+10	1	-1E+10	1	-1E+10	1	-1E+10	1	-1E+10	1	-1E+10	1
4902554	100	C	11/15/2023	17:06	-133.515	47.699	0	298.00	0	4.7320	0	33.8390	0	26.787	0	295.295	0	-1e10	8	-1e10	8	-1E+10	1	-1E+10	1	-1E+10	1	-1E+10	1	-1E+10	1	-1E+10	1
4902554	100	C	11/15/2023	17:06	-133.515	47.699	0	298.90	0	4.7170	0	33.8380	0	26.788	0	296.186	0	-1e10	8	-1e10	8	-1E+10	1	-1E+10	1	-1E+10	1	-1E+10	1	-1E+10	1	-1E+10	1
4902554	100	C	11/15/2023	17:06	-133.515	47.699	0	299.90	0	4.7110	0	33.8390	0	26.790	0	297.176	0	-1e10	8	-1e10	8	-1E+10	1	-1E+10	1	-1E+10	1	-1E+10	1	-1E+10	1	-1E+10	1
4902554	100	C	11/15/2023	17:06	-133.515	47.699	0	300.80	0	4.7060	0	33.8400	0	26.791	0	298.067	0	-1e10	8	-1e10	8	-1E+10	1	-1E+10	1	-1E+10	1	-1E+10	1	-1E+10	1	-1E+10	1
4902554	100	C	11/15/2023	17:06	-133.515	47.699	0	301.70	0	4.7050	0	33.8400	0	26.791	0	298.958	0	-1e10	8	-1e10	8	-1E+10	1	-1E+10	1	-1E+10	1	-1E+10	1	-1E+10	1	-1E+10	1
4902554	100	C	11/15/2023	17:06	-133.515	47.699	0	302.70	0	4.7030	0	33.8400	0	26.791	0	299.948	0	-1e10	8	-1e10	8	-1E+10	1	-1E+10	1	-1E+10	1	-1E+10	1	-1E+10	1	-1E+10	1
4902554	100	C	11/15/2023	17:06	-133.515	47.699	0	303.60	0	4.7000	0	33.8410	0	26.793	0	300.840	0	-1e10	8	-1e10	8	-1E+10	1	-1E+10	1	-1E+10	1	-1E+10	1	-1E+10	1	-1E+10	1
4902554	100	C	11/15/2023	17:06	-133.515	47.699	0	304.90	0	4.6880	0	33.8430	0	26.796	0	302.127	0	-1e10	8	-1e10	8	-1E+10	1	-1E+10	1	-1E+10	1	-1E+10	1	-1E+10	1	-1E+10	1
4902554	100	C	11/15/2023	17:06	-133.515	47.699	0	306.40	0	4.6830	0	33.8440	0	26.797	0	303.612	0	-1e10	8	-1e10	8	-1E+10	1	-1E+10	1	-1E+10	1	-1E+10	1	-1E+10	1	-1E+10	1
4902554	100	C	11/15/2023	17:06	-133.515	47.699	0	307.30	0	4.6810	0	33.8440	0	26.797	0	304.503	0	-1e10	8	-1e10	8	-1E+10	1	-1E+10	1	-1E+10	1	-1E+10	1	-1E+10	1	-1E+10	1
4902554	100	C	11/15/2023	17:06	-133.515	47.699	0	308.20	0	4.6760	0	33.8450	0	26.798	0	305.394	0	-1e10	8	-1e10	8	-1E+10	1	-1E+10	1	-1E+10	1	-1E+10	1	-1E+10	1	-1E+10	1
4902554	100	C	11/15/2023	17:06	-133.515	47.699	0	309.10	0	4.6710	0	33.8460	0	26.800	0	306.286	0	-1e10	8	-1e10	8	-1E+10	1	-1E+10	1	-1E+10	1	-1E+10	1	-1E+10	1	-1E+10	1
4902554	100	C	11/15/2023	17:06	-133.515	47.699	0	310.10	0	4.6670	0	33.8460	0	26.800	0	307.276	0	-1e10	8	-1e10	8	-1E+10	1	-1E+10	1	-1E+10	1	-1E+10	1	-1E+10	1	-1E+10	1
4902554	100	C	11/15/2023	17:06	-133.515	47.699	0	311.00	0	4.6630	0	33.8470	0	26.801	0	308.167	0	-1e10	8	-1e10	8	-1E+10	1	-1E+10	1	-1E+10	1	-1E+10	1	-1E+10	1	-1E+10	1
4902554	100	C	11/15/2023	17:06	-133.515	47.699	0	311.90	0	4.6570	0	33.8470	0	26.802	0	309.058	0	-1e10	8	-1e10	8	-1E+10	1	-1E+10	1	-1E+10	1	-1E+10	1	-1E+10	1	-1E+10	1
4902554	100	C	11/15/2023	17:06	-133.515	47.699	0	312.90	0	4.6490	0	33.8480	0	26.804	0	310.048	0	-1e10	8	-1e10	8	-1E+10	1	-1E+10	1	-1E+10	1	-1E+10	1	-1E+10	1	-1E+10	1
4902554	100	C	11/15/2023	17:06	-133.515	47.699	0	313.80	0	4.6450	0	33.8490	0	26.805	0	310.939	0	-1e10	8	-1e10	8	-1E+10	1	-1E+10	1	-1E+10	1	-1E+10	1	-1E+10	1	-1E+10	1
4902554	100	C	11/15/2023	17:06	-133.515	47.699	0	314.70	0	4.6370	0	33.8500	0	26.807	0	311.830	0	-1e10	8	-1e10	8	-1E+10	1	-1E+10	1	-1E+10	1	-1E+10	1	-1E+10	1	-1E+10	1
4902554	100	C	11/15/2023	17:06	-133.515	47.699	0	315.70	0	4.6270	0	33.8490	0	26.807	0	312.820	0	-1e10	8	-1e10	8	-1E+10	1	-1E+10	1	-1E+10	1	-1E+10	1	-1E+10	1	-1E+10	1
4902554	100	C	11/15/2023	17:06	-133.515	47.699	0	316.60	0	4.6250	0	33.8500	0	26.808	0	313.712	0	-1e10	8	-1e10	8	-1E+10	1	-1E+10	1	-1E+10	1	-1E+10	1	-1E+10	1	-1E+10	1
4902554	100	C	11/15/2023	17:06	-133.515	47.699	0	317.50	0	4.6160	0	33.8500	0	26.809	0	314.603	0	-1e10	8	-1e10	8	-1E+10	1	-1E+10	1	-1E+10	1	-1E+10	1	-1E+10	1	-1E+10	1
4902554	100	C	11/15/2023	17:06	-133.515	47.699	0	318.50	0	4.6080	0	33.8510	0	26.811	0	315.593	0	-1e10	8	-1e10	8	-1E+10	1	-1E+10	1	-1E+10	1	-1E+10	1	-1E+10	1	-1E+10	1
4902554	100	C	11/15/2023	17:06	-133.515	47.699	0	319.90	0	4.5720	0	33.8520	0	26.815	0	316.979	0	-1e10	8	-1e10	8	-1E+10	1	-1E+10	1	-1E+10	1	-1E+10	1	-1E+10	1	-1E+10	1
4902554	100	C	11/15/2023	17:06	-133.515	47.699	0	321.30	0	4.5530	0	33.8530	0	26.818	0	318.365	0	-1e10	8	-1e10	8	-1E+10	1	-1E+10	1	-1E+10	1	-1E+10	1	-1E+10	1	-1E+10	1
4902554	100	C	11/15/2023	17:06	-133.515	47.699	0	322.30	0	4.5600	0	33.8610	0	26.824	0	319.355	0	-1e10	8	-1e10	8	-1E+10	1	-1E+10	1	-1E+10	1	-1E+10	1	-1E+10	1	-1E+10	1
4902554	100	C	11/15/2023	17:06	-133.515	47.699	0	323.30	0	4.5600	0	33.8600	0	26.823	0	320.345	0	-1e10	8	-1e10	8	-1E+10	1	-1E+10	1	-1E+10	1	-1E+10	1	-1E+10	1	-1E+10	1
4902554	100	C	11/15/2023	17:06	-133.515	47.699	0	324.30	0	4.5560	0	33.8610	0	26.824	0	321.335	0	-1e10	8	-1e10	8	-1E+10	1	-1E+10	1	-1E+10	1	-1E+10	1	-1E+10	1	-1E+10	1
4902554	100	C	11/15/2023	17:06	-133.515	47.699	0	325.20	0	4.5540	0	33.8610	0	26.825	0	322.226	0	-1e10	8	-1e10	8	-1E+10	1	-1E+10	1	-1E+10	1	-1E+10	1	-1E+10	1	-1E+10	1
4902554	100	C	11/15/2023	17:06	-133.515	47.699	0	326.20	0	4.5500	0	33.8590	0	26.823	0	323.217	0	-1e10	8	-1e10	8	-1E+10	1	-1E+10	1	-1E+10	1	-1E+10	1	-1E+10	1	-1E+10	1
4902554	100	C	11/15/2023	17:06	-133.515	47.699	0	327.20	0	4.5400	0	33.8580	0	26.824	0	324.207	0	-1e10	8	-1e10	8	-1E+10	1	-1E+10	1	-1E+10	1	-1E+10	1	-1E+10	1	-1E+10	1
4902554	100	C	11/15/2023	17:06	-133.515	47.699	0	328.10	0	4.5200	0	33.8590	0	26.827	0	325.098	0	-1e10	8	-1e10	8	-1E+10	1	-1E+10	1	-1E+10	1	-1E+10	1	-1E+10	1	-1E+10	1
4902554	100	C	11/15/2023	17:06	-133.515	47.699	0	329.10	0	4.4930	0	33.8600	0	26.830	0	326.088	0	-1e10	8	-1e10	8	-1E+10	1	-1E+10	1	-1E+10	1	-1E+10	1	-1E+10	1	-1E+10	1
4902554	100	C	11/15/2023	17:06	-133.515	47.699	0	330.10	0	4.4850	0	33.8600	0	26.831	0	327.078	0	-1e10	8	-1e10	8	-1E+10	1	-1E+10	1	-1E+10	1	-1E+10	1	-1E+10	1	-1E+10	1
4902554	100	C	11/15/2023	17:06	-133.515	47.699	0	331.10	0	4.4830	0	33.8620	0	26.833	0	328.068	0	-1e10	8	-1e10	8	-1E+10	1	-1E+10	1	-1E+10	1	-1E+10	1	-1E+10	1	-1E+10	1
4902554	100	C	11/15/2023	17:06	-133.515	47.699	0	332.10	0	4.4810	0	33.8630	0	26.834	0	329.058	0	-1e10	8	-1e10	8	-1E+10	1	-1E+10	1	-1E+10	1	-1E+10	1	-1E+10	1	-1E+10	1
4902554	100	C	11/15/2023	17:06	-133.515	47.699	0	333.10	0	4.4820	0	33.8640	0	26.835	0	330.048	0	-1e10	8	-1e10	8	-1E+10	1	-1E+10	1	-1E+10	1	-1E+10	1	-1E+10	1	-1E+10	1
4902554	100	C	11/15/2023	17:06	-133.515	47.699	0	334.10	0	4.4810	0	33.8650	0	26.836	0	331.038	0	-1e10	8	-1e10	8	-1E+10	1	-1E+10	1	-1E+10	1	-1E+10	1	-1E+10	1	-1E+10	1
4902554	100	C	11/15/2023	17:06	-133.515	47.699	0	335.10	0	4.4810	0	33.8650	0	26.836	0	332.028	0	-1e10	8	-1e10	8	-1E+10	1	-1E+10	1	-1E+10	1	-1E+10	1	-1E+10	1	-1E+10	1
4902554	100	C	11/15/2023	17:06	-133.515	47.699	0	336.10	0	4.4810	0	33.8650	0	26.836	0	333.018	0	-1e10	8	-1e10	8	-1E+10	1	-1E+10	1	-1E+10	1	-1E+10	1	-1E+10	1	-1E+10	1
4902554	100	C	11/15/2023	17:06	-133.515	47.699	0	337.00	0	4.4760	0	33.8660	0	26.837	0	333.909	0	-1e10	8	-1e10	8	-1E+10	1	-1E+10	1	-1E+10	1	-1E+10	1	-1E+10	1	-1E+10	1
4902554	100	C	11/15/2023	17:06	-133.515	47.699	0	338.00	0	4.4730	0	33.8660	0	26.837	0	334.899	0	-1e10	8	-1e10	8	-1E+10	1	-1E+10	1	-1E+10	1	-1E+10	1	-1E+10	1	-1E+10	1
4902554	100	C	11/15/2023	17:06	-133.515	47.699	0	339.00	0	4.4700	0	33.8680	0	26.839	0	335.889	0	-1e10	8	-1e10	8	-1E+10	1	-1E+10	1	-1E+10	1	-1E+10	1	-1E+10	1	-1E+10	1
4902554	100	C	11/15/2023	17:06	-133.515	47.699	0	340.00	0	4.4640	0	33.8690	0	26.841	0	336.879	0	-1e10	8	-1e10	8	-1E+10	1	-1E+10	1	-1E+10	1	-1E+10	1	-1E+10	1	-1E+10	1
4902554	100	C	11/15/2023	17:06	-133.515	47.699	0	341.00	0	4.4490	0	33.8700	0	26.843	0	337.869	0	-1e10	8	-1e10	8	-1E+10	1	-1E+10	1	-1E+10	1	-1E+10	1	-1E+10	1	-1E+10	1
4902554	100	C	11/15/2023	17:06	-133.515	47.699	0	342.10	0	4.4470	0	33.8710	0	26.844	0	338.958	0	-1e10	8	-1e10	8	-1E+10	1	-1E+10	1	-1E+10	1	-1E+10	1	-1E+10	1	-1E+10	1
4902554	100	C	11/15/2023	17:06	-133.515	47.699	0	343.10	0	4.4420	0	33.8710	0	26.845	0	339.948	0	-1e10	8	-1e10	8	-1E+10	1	-1E+10	1	-1E+10	1	-1E+10	1	-1E+10	1	-1E+10	1
4902554	100	C	11/15/2023	17:06	-133.515	47.699	0	344.10	0	4.4360	0	33.8730	0	26.847	0	340.938	0	-1e10	8	-1e10	8	-1E+10	1	-1E+10	1	-1E+10	1	-1E+10	1	-1E+10	1	-1E+10	1
4902554	100	C	11/15/2023	17:06	-133.515	47.699	0	345.20	0	4.4330	0	33.8750	0	26.849	0	342.027	0	-1e10	8	-1e10	8	-1E+10	1	-1E+10	1	-1E+10	1	-1E+10	1	-1E+10	1	-1E+10	1
4902554	100	C	11/15/2023	17:06	-133.515	47.699	0	346.20	0	4.4300	0	33.8740	0	26.848	0	343.017	0	-1e10	8	-1e10	8	-1E+10	1	-1E+10	1	-1E+10	1	-1E+10	1	-1E+10	1	-1E+10	1
4902554	100	C	11/15/2023	17:06	-133.515	47.699	0	347.20	0	4.4290	0	33.8740	0	26.848	0	344.007	0	-1e10	8	-1e10	8	-1E+10	1	-1E+10	1	-1E+10	1	-1E+10	1	-1E+10	1	-1E+10	1
4902554	100	C	11/15/2023	17:06	-133.515	47.699	0	348.30	0	4.4280	0	33.8750	0	26.849	0	345.096	0	-1e10	8	-1e10	8	-1E+10	1	-1E+10	1	-1E+10	1	-1E+10	1	-1E+10	1	-1E+10	1
4902554	100	C	11/15/2023	17:06	-133.515	47.699	0	349.30	0	4.4260	0	33.8750	0	26.850	0	346.086	0	-1e10	8	-1e10	8	-1E+10	1	-1E+10	1	-1E+10	1	-1E+10	1	-1E+10	1	-1E+10	1
4902554	100	C	11/15/2023	17:06	-133.515	47.699	0	350.40	0	4.4220	0	33.8760	0	26.851	0	347.175	0	-1e10	8	-1e10	8	-1E+10	1	-1E+10	1	-1E+10	1	-1E+10	1	-1E+10	1	-1E+10	1
4902554	100	C	11/15/2023	17:06	-133.515	47.699	0	352.90	0	4.4110	0	33.8810	0	26.856	0	349.650	0	-1e10	8	-1e10	8	-1E+10	1	-1E+10	1	-1E+10	1	-1E+10	1	-1E+10	1	-1E+10	1
4902554	100	C	11/15/2023	17:06	-133.515	47.699	0	357.80	0	4.3840	0	33.8850	0	26.862	0	354.500	0	-1e10	8	-1e10	8	-1E+10	1	-1E+10	1	-1E+10	1	-1E+10	1	-1E+10	1	-1E+10	1
4902554	100	C	11/15/2023	17:06	-133.515	47.699	0	362.70	0	4.3610	0	33.8910	0	26.869	0	359.351	0	-1e10	8	-1e10	8	-1E+10	1	-1E+10	1	-1E+10	1	-1E+10	1	-1E+10	1	-1E+10	1
4902554	100	C	11/15/2023	17:06	-133.515	47.699	0	367.70	0	4.3460	0	33.8990	0	26.877	0	364.300	0	-1e10	8	-1e10	8	-1E+10	1	-1E+10	1	-1E+10	1	-1E+10	1	-1E+10	1	-1E+10	1
4902554	100	C	11/15/2023	17:06	-133.515	47.699	0	372.80	0	4.3320	0	33.9030	0	26.882	0	369.349	0	-1e10	8	-1e10	8	-1E+10	1	-1E+10	1	-1E+10	1	-1E+10	1	-1E+10	1	-1E+10	1
4902554	100	C	11/15/2023	17:06	-133.515	47.699	0	378.10	0	4.3000	0	33.9100	0	26.891	0	374.595	0	-1e10	8	-1e10	8	-1E+10	1	-1E+10	1	-1E+10	1	-1E+10	1	-1E+10	1	-1E+10	1
4902554	100	C	11/15/2023	17:06	-133.515	47.699	0	383.10	0	4.2960	0	33.9180	0	26.898	0	379.544	0	-1e10	8	-1e10	8	-1E+10	1	-1E+10	1	-1E+10	1	-1E+10	1	-1E+10	1	-1E+10	1
4902554	100	C	11/15/2023	17:06	-133.515	47.699	0	388.00	0	4.2950	0	33.9240	0	26.903	0	384.394	0	-1e10	8	-1e10	8	-1E+10	1	-1E+10	1	-1E+10	1	-1E+10	1	-1E+10	1	-1E+10	1
4902554	100	C	11/15/2023	17:06	-133.515	47.699	0	393.10	0	4.2930	0	33.9300	0	26.908	0	389.442	0	-1e10	8	-1e10	8	-1E+10	1	-1E+10	1	-1E+10	1	-1E+10	1	-1E+10	1	-1E+10	1
4902554	100	C	11/15/2023	17:06	-133.515	47.699	0	398.10	0	4.2880	0	33.9340	0	26.911	0	394.391	0	-1e10	8	-1e10	8	-1E+10	1	-1E+10	1	-1E+10	1	-1E+10	1	-1E+10	1	-1E+10	1
4902554	100	C	11/15/2023	17:06	-133.515	47.699	0	403.10	0	4.2790	0	33.9370	0	26.915	0	399.339	0	-1e10	8	-1e10	8	-1E+10	1	-1E+10	1	-1E+10	1	-1E+10	1	-1E+10	1	-1E+10	1
4902554	100	C	11/15/2023	17:06	-133.515	47.699	0	407.70	0	4.2710	0	33.9420	0	26.920	0	403.892	0	-1e10	8	-1e10	8	-1E+10	1	-1E+10	1	-1E+10	1	-1E+10	1	-1E+10	1	-1E+10	1
4902554	100	C	11/15/2023	17:06	-133.515	47.699	0	412.70	0	4.2650	0	33.9460	0	26.923	0	408.840	0	-1e10	8	-1e10	8	-1E+10	1	-1E+10	1	-1E+10	1	-1E+10	1	-1E+10	1	-1E+10	1
4902554	100	C	11/15/2023	17:06	-133.515	47.699	0	417.70	0	4.2580	0	33.9510	0	26.928	0	413.788	0	-1e10	8	-1e10	8	-1E+10	1	-1E+10	1	-1E+10	1	-1E+10	1	-1E+10	1	-1E+10	1
4902554	100	C	11/15/2023	17:06	-133.515	47.699	0	422.70	0	4.2560	0	33.9570	0	26.933	0	418.736	0	-1e10	8	-1e10	8	-1E+10	1	-1E+10	1	-1E+10	1	-1E+10	1	-1E+10	1	-1E+10	1
4902554	100	C	11/15/2023	17:06	-133.515	47.699	0	428.10	0	4.2420	0	33.9620	0	26.939	0	424.080	0	-1e10	8	-1e10	8	-1E+10	1	-1E+10	1	-1E+10	1	-1E+10	1	-1E+10	1	-1E+10	1
4902554	100	C	11/15/2023	17:06	-133.515	47.699	0	433.10	0	4.2310	0	33.9710	0	26.947	0	429.028	0	-1e10	8	-1e10	8	-1E+10	1	-1E+10	1	-1E+10	1	-1E+10	1	-1E+10	1	-1E+10	1
4902554	100	C	11/15/2023	17:06	-133.515	47.699	0	438.10	0	4.2180	0	33.9780	0	26.954	0	433.976	0	-1e10	8	-1e10	8	-1E+10	1	-1E+10	1	-1E+10	1	-1E+10	1	-1E+10	1	-1E+10	1
4902554	100	C	11/15/2023	17:06	-133.515	47.699	0	443.10	0	4.2120	0	33.9840	0	26.959	0	438.924	0	-1e10	8	-1e10	8	-1E+10	1	-1E+10	1	-1E+10	1	-1E+10	1	-1E+10	1	-1E+10	1
4902554	100	C	11/15/2023	17:06	-133.515	47.699	0	448.10	0	4.1990	0	33.9910	0	26.966	0	443.871	0	-1e10	8	-1e10	8	-1E+10	1	-1E+10	1	-1E+10	1	-1E+10	1	-1E+10	1	-1E+10	1
4902554	100	C	11/15/2023	17:06	-133.515	47.699	0	453.10	0	4.1860	0	33.9980	0	26.973	0	448.819	0	-1e10	8	-1e10	8	-1E+10	1	-1E+10	1	-1E+10	1	-1E+10	1	-1E+10	1	-1E+10	1
4902554	100	C	11/15/2023	17:06	-133.515	47.699	0	458.00	0	4.1770	0	34.0040	0	26.979	0	453.667	0	-1e10	8	-1e10	8	-1E+10	1	-1E+10	1	-1E+10	1	-1E+10	1	-1E+10	1	-1E+10	1
4902554	100	C	11/15/2023	17:06	-133.515	47.699	0	463.00	0	4.1700	0	34.0100	0	26.985	0	458.614	0	-1e10	8	-1e10	8	-1E+10	1	-1E+10	1	-1E+10	1	-1E+10	1	-1E+10	1	-1E+10	1
4902554	100	C	11/15/2023	17:06	-133.515	47.699	0	468.00	0	4.1670	0	34.0140	0	26.988	0	463.561	0	-1e10	8	-1e10	8	-1E+10	1	-1E+10	1	-1E+10	1	-1E+10	1	-1E+10	1	-1E+10	1
4902554	100	C	11/15/2023	17:06	-133.515	47.699	0	472.90	0	4.1680	0	34.0210	0	26.994	0	468.409	0	-1e10	8	-1e10	8	-1E+10	1	-1E+10	1	-1E+10	1	-1E+10	1	-1E+10	1	-1E+10	1
4902554	100	C	11/15/2023	17:06	-133.515	47.699	0	477.80	0	4.1650	0	34.0310	0	27.002	0	473.257	0	-1e10	8	-1e10	8	-1E+10	1	-1E+10	1	-1E+10	1	-1E+10	1	-1E+10	1	-1E+10	1
4902554	100	C	11/15/2023	17:06	-133.515	47.699	0	483.20	0	4.1520	0	34.0370	0	27.008	0	478.600	0	-1e10	8	-1e10	8	-1E+10	1	-1E+10	1	-1E+10	1	-1E+10	1	-1E+10	1	-1E+10	1
4902554	100	C	11/15/2023	17:06	-133.515	47.699	0	488.00	0	4.1360	0	34.0440	0	27.015	0	483.348	0	-1e10	8	-1e10	8	-1E+10	1	-1E+10	1	-1E+10	1	-1E+10	1	-1E+10	1	-1E+10	1
4902554	100	C	11/15/2023	17:06	-133.515	47.699	0	492.80	0	4.1330	0	34.0480	0	27.019	0	488.097	0	-1e10	8	-1e10	8	-1E+10	1	-1E+10	1	-1E+10	1	-1E+10	1	-1E+10	1	-1E+10	1
4902554	100	C	11/15/2023	17:06	-133.515	47.699	0	498.00	0	4.1160	0	34.0550	0	27.026	0	493.241	0	-1e10	8	-1e10	8	-1E+10	1	-1E+10	1	-1E+10	1	-1E+10	1	-1E+10	1	-1E+10	1
4902554	100	C	11/15/2023	17:06	-133.515	47.699	0	503.20	0	4.1040	0	34.0600	0	27.032	0	498.385	0	-1e10	8	-1e10	8	-1E+10	1	-1E+10	1	-1E+10	1	-1E+10	1	-1E+10	1	-1E+10	1
4902554	100	C	11/15/2023	17:06	-133.515	47.699	0	508.00	0	4.0900	0	34.0640	0	27.036	0	503.133	0	-1e10	8	-1e10	8	-1E+10	1	-1E+10	1	-1E+10	1	-1E+10	1	-1E+10	1	-1E+10	1
4902554	100	C	11/15/2023	17:06	-133.515	47.699	0	512.90	0	4.0780	0	34.0710	0	27.043	0	507.980	0	-1e10	8	-1e10	8	-1E+10	1	-1E+10	1	-1E+10	1	-1E+10	1	-1E+10	1	-1E+10	1
4902554	100	C	11/15/2023	17:06	-133.515	47.699	0	517.90	0	4.0740	0	34.0770	0	27.048	0	512.926	0	-1e10	8	-1e10	8	-1E+10	1	-1E+10	1	-1E+10	1	-1E+10	1	-1E+10	1	-1E+10	1
4902554	100	C	11/15/2023	17:06	-133.515	47.699	0	522.80	0	4.0700	0	34.0840	0	27.054	0	517.773	0	-1e10	8	-1e10	8	-1E+10	1	-1E+10	1	-1E+10	1	-1E+10	1	-1E+10	1	-1E+10	1
4902554	100	C	11/15/2023	17:06	-133.515	47.699	0	527.80	0	4.0580	0	34.0900	0	27.060	0	522.719	0	-1e10	8	-1e10	8	-1E+10	1	-1E+10	1	-1E+10	1	-1E+10	1	-1E+10	1	-1E+10	1
4902554	100	C	11/15/2023	17:06	-133.515	47.699	0	532.90	0	4.0540	0	34.0940	0	27.064	0	527.763	0	-1e10	8	-1e10	8	-1E+10	1	-1E+10	1	-1E+10	1	-1E+10	1	-1E+10	1	-1E+10	1
4902554	100	C	11/15/2023	17:06	-133.515	47.699	0	538.00	0	4.0370	0	34.1020	0	27.072	0	532.808	0	-1e10	8	-1e10	8	-1E+10	1	-1E+10	1	-1E+10	1	-1E+10	1	-1E+10	1	-1E+10	1
4902554	100	C	11/15/2023	17:06	-133.515	47.699	0	542.70	0	4.0350	0	34.1100	0	27.079	0	537.456	0	-1e10	8	-1e10	8	-1E+10	1	-1E+10	1	-1E+10	1	-1E+10	1	-1E+10	1	-1E+10	1
4902554	100	C	11/15/2023	17:06	-133.515	47.699	0	547.90	0	4.0300	0	34.1150	0	27.083	0	542.599	0	-1e10	8	-1e10	8	-1E+10	1	-1E+10	1	-1E+10	1	-1E+10	1	-1E+10	1	-1E+10	1
4902554	100	C	11/15/2023	17:06	-133.515	47.699	0	553.20	0	4.0130	0	34.1200	0	27.089	0	547.841	0	-1e10	8	-1e10	8	-1E+10	1	-1E+10	1	-1E+10	1	-1E+10	1	-1E+10	1	-1E+10	1
4902554	100	C	11/15/2023	17:06	-133.515	47.699	0	558.10	0	4.0000	0	34.1270	0	27.096	0	552.687	0	-1e10	8	-1e10	8	-1E+10	1	-1E+10	1	-1E+10	1	-1E+10	1	-1E+10	1	-1E+10	1
4902554	100	C	11/15/2023	17:06	-133.515	47.699	0	563.20	0	3.9830	0	34.1320	0	27.102	0	557.731	0	-1e10	8	-1e10	8	-1E+10	1	-1E+10	1	-1E+10	1	-1E+10	1	-1E+10	1	-1E+10	1
4902554	100	C	11/15/2023	17:06	-133.515	47.699	0	567.80	0	3.9720	0	34.1360	0	27.106	0	562.280	0	-1e10	8	-1e10	8	-1E+10	1	-1E+10	1	-1E+10	1	-1E+10	1	-1E+10	1	-1E+10	1
4902554	100	C	11/15/2023	17:06	-133.515	47.699	0	573.00	0	3.9520	0	34.1410	0	27.112	0	567.422	0	-1e10	8	-1e10	8	-1E+10	1	-1E+10	1	-1E+10	1	-1E+10	1	-1E+10	1	-1E+10	1
4902554	100	C	11/15/2023	17:06	-133.515	47.699	0	578.20	0	3.9370	0	34.1440	0	27.116	0	572.564	0	-1e10	8	-1e10	8	-1E+10	1	-1E+10	1	-1E+10	1	-1E+10	1	-1E+10	1	-1E+10	1
4902554	100	C	11/15/2023	17:06	-133.515	47.699	0	583.20	0	3.9320	0	34.1480	0	27.120	0	577.509	0	-1e10	8	-1e10	8	-1E+10	1	-1E+10	1	-1E+10	1	-1E+10	1	-1E+10	1	-1E+10	1
4902554	100	C	11/15/2023	17:06	-133.515	47.699	0	587.90	0	3.9230	0	34.1510	0	27.123	0	582.156	0	-1e10	8	-1e10	8	-1E+10	1	-1E+10	1	-1E+10	1	-1E+10	1	-1E+10	1	-1E+10	1
4902554	100	C	11/15/2023	17:06	-133.515	47.699	0	592.70	0	3.9140	0	34.1530	0	27.126	0	586.902	0	-1e10	8	-1e10	8	-1E+10	1	-1E+10	1	-1E+10	1	-1E+10	1	-1E+10	1	-1E+10	1
4902554	100	C	11/15/2023	17:06	-133.515	47.699	0	598.10	0	3.9050	0	34.1570	0	27.130	0	592.242	0	-1e10	8	-1e10	8	-1E+10	1	-1E+10	1	-1E+10	1	-1E+10	1	-1E+10	1	-1E+10	1
4902554	100	C	11/15/2023	17:06	-133.515	47.699	0	603.10	0	3.8930	0	34.1610	0	27.134	0	597.186	0	-1e10	8	-1e10	8	-1E+10	1	-1E+10	1	-1E+10	1	-1E+10	1	-1E+10	1	-1E+10	1
4902554	100	C	11/15/2023	17:06	-133.515	47.699	0	607.80	0	3.8780	0	34.1660	0	27.140	0	601.833	0	-1e10	8	-1e10	8	-1E+10	1	-1E+10	1	-1E+10	1	-1E+10	1	-1E+10	1	-1E+10	1
4902554	100	C	11/15/2023	17:06	-133.515	47.699	0	612.60	0	3.8660	0	34.1710	0	27.145	0	606.579	0	-1e10	8	-1e10	8	-1E+10	1	-1E+10	1	-1E+10	1	-1E+10	1	-1E+10	1	-1E+10	1
4902554	100	C	11/15/2023	17:06	-133.515	47.699	0	617.90	0	3.8600	0	34.1730	0	27.147	0	611.819	0	-1e10	8	-1e10	8	-1E+10	1	-1E+10	1	-1E+10	1	-1E+10	1	-1E+10	1	-1E+10	1
4902554	100	C	11/15/2023	17:06	-133.515	47.699	0	622.90	0	3.8480	0	34.1750	0	27.150	0	616.762	0	-1e10	8	-1e10	8	-1E+10	1	-1E+10	1	-1E+10	1	-1E+10	1	-1E+10	1	-1E+10	1
4902554	100	C	11/15/2023	17:06	-133.515	47.699	0	627.50	0	3.8390	0	34.1780	0	27.153	0	621.310	0	-1e10	8	-1e10	8	-1E+10	1	-1E+10	1	-1E+10	1	-1E+10	1	-1E+10	1	-1E+10	1
4902554	100	C	11/15/2023	17:06	-133.515	47.699	0	632.70	0	3.8240	0	34.1820	0	27.158	0	626.451	0	-1e10	8	-1e10	8	-1E+10	1	-1E+10	1	-1E+10	1	-1E+10	1	-1E+10	1	-1E+10	1
4902554	100	C	11/15/2023	17:06	-133.515	47.699	0	637.90	0	3.8090	0	34.1880	0	27.164	0	631.592	0	-1e10	8	-1e10	8	-1E+10	1	-1E+10	1	-1E+10	1	-1E+10	1	-1E+10	1	-1E+10	1
4902554	100	C	11/15/2023	17:06	-133.515	47.699	0	643.20	0	3.7980	0	34.1930	0	27.169	0	636.831	0	-1e10	8	-1e10	8	-1E+10	1	-1E+10	1	-1E+10	1	-1E+10	1	-1E+10	1	-1E+10	1
4902554	100	C	11/15/2023	17:06	-133.515	47.699	0	647.90	0	3.7850	0	34.1990	0	27.175	0	641.478	0	-1e10	8	-1e10	8	-1E+10	1	-1E+10	1	-1E+10	1	-1E+10	1	-1E+10	1	-1E+10	1
4902554	100	C	11/15/2023	17:06	-133.515	47.699	0	652.60	0	3.7770	0	34.2020	0	27.179	0	646.124	0	-1e10	8	-1e10	8	-1E+10	1	-1E+10	1	-1E+10	1	-1E+10	1	-1E+10	1	-1E+10	1
4902554	100	C	11/15/2023	17:06	-133.515	47.699	0	657.90	0	3.7720	0	34.2050	0	27.182	0	651.363	0	-1e10	8	-1e10	8	-1E+10	1	-1E+10	1	-1E+10	1	-1E+10	1	-1E+10	1	-1E+10	1
4902554	100	C	11/15/2023	17:06	-133.515	47.699	0	663.20	0	3.7650	0	34.2090	0	27.186	0	656.602	0	-1e10	8	-1e10	8	-1E+10	1	-1E+10	1	-1E+10	1	-1E+10	1	-1E+10	1	-1E+10	1
4902554	100	C	11/15/2023	17:06	-133.515	47.699	0	668.10	0	3.7600	0	34.2120	0	27.188	0	661.445	0	-1e10	8	-1e10	8	-1E+10	1	-1E+10	1	-1E+10	1	-1E+10	1	-1E+10	1	-1E+10	1
4902554	100	C	11/15/2023	17:06	-133.515	47.699	0	673.20	0	3.7510	0	34.2150	0	27.192	0	666.486	0	-1e10	8	-1e10	8	-1E+10	1	-1E+10	1	-1E+10	1	-1E+10	1	-1E+10	1	-1E+10	1
4902554	100	C	11/15/2023	17:06	-133.515	47.699	0	678.30	0	3.7420	0	34.2180	0	27.195	0	671.527	0	-1e10	8	-1e10	8	-1E+10	1	-1E+10	1	-1E+10	1	-1E+10	1	-1E+10	1	-1E+10	1
4902554	100	C	11/15/2023	17:06	-133.515	47.699	0	683.00	0	3.7240	0	34.2190	0	27.198	0	676.173	0	-1e10	8	-1e10	8	-1E+10	1	-1E+10	1	-1E+10	1	-1E+10	1	-1E+10	1	-1E+10	1
4902554	100	C	11/15/2023	17:06	-133.515	47.699	0	687.70	0	3.7110	0	34.2240	0	27.203	0	680.818	0	-1e10	8	-1e10	8	-1E+10	1	-1E+10	1	-1E+10	1	-1E+10	1	-1E+10	1	-1E+10	1
4902554	100	C	11/15/2023	17:06	-133.515	47.699	0	692.90	0	3.6950	0	34.2240	0	27.205	0	685.957	0	-1e10	8	-1e10	8	-1E+10	1	-1E+10	1	-1E+10	1	-1E+10	1	-1E+10	1	-1E+10	1
4902554	100	C	11/15/2023	17:06	-133.515	47.699	0	698.10	0	3.6770	0	34.2280	0	27.210	0	691.097	0	-1e10	8	-1e10	8	-1E+10	1	-1E+10	1	-1E+10	1	-1E+10	1	-1E+10	1	-1E+10	1
4902554	100	C	11/15/2023	17:06	-133.515	47.699	0	703.00	0	3.6680	0	34.2320	0	27.214	0	695.939	0	-1e10	8	-1e10	8	-1E+10	1	-1E+10	1	-1E+10	1	-1E+10	1	-1E+10	1	-1E+10	1
4902554	100	C	11/15/2023	17:06	-133.515	47.699	0	707.90	0	3.6490	0	34.2310	0	27.215	0	700.782	0	-1e10	8	-1e10	8	-1E+10	1	-1E+10	1	-1E+10	1	-1E+10	1	-1E+10	1	-1E+10	1
4902554	100	C	11/15/2023	17:06	-133.515	47.699	0	712.90	0	3.6420	0	34.2320	0	27.216	0	705.723	0	-1e10	8	-1e10	8	-1E+10	1	-1E+10	1	-1E+10	1	-1E+10	1	-1E+10	1	-1E+10	1
4902554	100	C	11/15/2023	17:06	-133.515	47.699	0	717.80	0	3.6430	0	34.2330	0	27.217	0	710.566	0	-1e10	8	-1e10	8	-1E+10	1	-1E+10	1	-1E+10	1	-1E+10	1	-1E+10	1	-1E+10	1
4902554	100	C	11/15/2023	17:06	-133.515	47.699	0	723.10	0	3.6370	0	34.2340	0	27.218	0	715.803	0	-1e10	8	-1e10	8	-1E+10	1	-1E+10	1	-1E+10	1	-1E+10	1	-1E+10	1	-1E+10	1
4902554	100	C	11/15/2023	17:06	-133.515	47.699	0	728.00	0	3.6240	0	34.2370	0	27.222	0	720.645	0	-1e10	8	-1e10	8	-1E+10	1	-1E+10	1	-1E+10	1	-1E+10	1	-1E+10	1	-1E+10	1
4902554	100	C	11/15/2023	17:06	-133.515	47.699	0	732.90	0	3.6120	0	34.2400	0	27.226	0	725.487	0	-1e10	8	-1e10	8	-1E+10	1	-1E+10	1	-1E+10	1	-1E+10	1	-1E+10	1	-1E+10	1
4902554	100	C	11/15/2023	17:06	-133.515	47.699	0	737.80	0	3.6070	0	34.2400	0	27.226	0	730.329	0	-1e10	8	-1e10	8	-1E+10	1	-1E+10	1	-1E+10	1	-1E+10	1	-1E+10	1	-1E+10	1
4902554	100	C	11/15/2023	17:06	-133.515	47.699	0	742.60	0	3.6050	0	34.2420	0	27.228	0	735.072	0	-1e10	8	-1e10	8	-1E+10	1	-1E+10	1	-1E+10	1	-1E+10	1	-1E+10	1	-1E+10	1
4902554	100	C	11/15/2023	17:06	-133.515	47.699	0	747.70	0	3.6020	0	34.2450	0	27.231	0	740.111	0	-1e10	8	-1e10	8	-1E+10	1	-1E+10	1	-1E+10	1	-1E+10	1	-1E+10	1	-1E+10	1
4902554	100	C	11/15/2023	17:06	-133.515	47.699	0	752.80	0	3.5930	0	34.2500	0	27.236	0	745.150	0	-1e10	8	-1e10	8	-1E+10	1	-1E+10	1	-1E+10	1	-1E+10	1	-1E+10	1	-1E+10	1
4902554	100	C	11/15/2023	17:06	-133.515	47.699	0	758.00	0	3.5910	0	34.2520	0	27.237	0	750.288	0	-1e10	8	-1e10	8	-1E+10	1	-1E+10	1	-1E+10	1	-1E+10	1	-1E+10	1	-1E+10	1
4902554	100	C	11/15/2023	17:06	-133.515	47.699	0	763.10	0	3.5980	0	34.2570	0	27.241	0	755.327	0	-1e10	8	-1e10	8	-1E+10	1	-1E+10	1	-1E+10	1	-1E+10	1	-1E+10	1	-1E+10	1
4902554	100	C	11/15/2023	17:06	-133.515	47.699	0	768.20	0	3.5810	0	34.2610	0	27.246	0	760.366	0	-1e10	8	-1e10	8	-1E+10	1	-1E+10	1	-1E+10	1	-1E+10	1	-1E+10	1	-1E+10	1
4902554	100	C	11/15/2023	17:06	-133.515	47.699	0	772.90	0	3.5730	0	34.2640	0	27.249	0	765.009	0	-1e10	8	-1e10	8	-1E+10	1	-1E+10	1	-1E+10	1	-1E+10	1	-1E+10	1	-1E+10	1
4902554	100	C	11/15/2023	17:06	-133.515	47.699	0	777.70	0	3.5410	0	34.2640	0	27.252	0	769.751	0	-1e10	8	-1e10	8	-1E+10	1	-1E+10	1	-1E+10	1	-1E+10	1	-1E+10	1	-1E+10	1
4902554	100	C	11/15/2023	17:06	-133.515	47.699	0	782.90	0	3.5340	0	34.2680	0	27.256	0	774.889	0	-1e10	8	-1e10	8	-1E+10	1	-1E+10	1	-1E+10	1	-1E+10	1	-1E+10	1	-1E+10	1
4902554	100	C	11/15/2023	17:06	-133.515	47.699	0	788.10	0	3.5310	0	34.2720	0	27.259	0	780.026	0	-1e10	8	-1e10	8	-1E+10	1	-1E+10	1	-1E+10	1	-1E+10	1	-1E+10	1	-1E+10	1
4902554	100	C	11/15/2023	17:06	-133.515	47.699	0	792.80	0	3.5260	0	34.2760	0	27.263	0	784.669	0	-1e10	8	-1e10	8	-1E+10	1	-1E+10	1	-1E+10	1	-1E+10	1	-1E+10	1	-1E+10	1
4902554	100	C	11/15/2023	17:06	-133.515	47.699	0	797.70	0	3.5080	0	34.2830	0	27.270	0	789.509	0	-1e10	8	-1e10	8	-1E+10	1	-1E+10	1	-1E+10	1	-1E+10	1	-1E+10	1	-1E+10	1
4902554	100	C	11/15/2023	17:06	-133.515	47.699	0	802.90	0	3.4990	0	34.2880	0	27.275	0	794.646	0	-1e10	8	-1e10	8	-1E+10	1	-1E+10	1	-1E+10	1	-1E+10	1	-1E+10	1	-1E+10	1
4902554	100	C	11/15/2023	17:06	-133.515	47.699	0	807.90	0	3.4960	0	34.2920	0	27.279	0	799.585	0	-1e10	8	-1e10	8	-1E+10	1	-1E+10	1	-1E+10	1	-1E+10	1	-1E+10	1	-1E+10	1
4902554	100	C	11/15/2023	17:06	-133.515	47.699	0	812.80	0	3.4860	0	34.2940	0	27.281	0	804.425	0	-1e10	8	-1e10	8	-1E+10	1	-1E+10	1	-1E+10	1	-1E+10	1	-1E+10	1	-1E+10	1
4902554	100	C	11/15/2023	17:06	-133.515	47.699	0	817.70	0	3.4690	0	34.2990	0	27.287	0	809.265	0	-1e10	8	-1e10	8	-1E+10	1	-1E+10	1	-1E+10	1	-1E+10	1	-1E+10	1	-1E+10	1
4902554	100	C	11/15/2023	17:06	-133.515	47.699	0	822.70	0	3.4470	0	34.3010	0	27.291	0	814.204	0	-1e10	8	-1e10	8	-1E+10	1	-1E+10	1	-1E+10	1	-1E+10	1	-1E+10	1	-1E+10	1
4902554	100	C	11/15/2023	17:06	-133.515	47.699	0	828.10	0	3.4360	0	34.3040	0	27.294	0	819.537	0	-1e10	8	-1e10	8	-1E+10	1	-1E+10	1	-1E+10	1	-1E+10	1	-1E+10	1	-1E+10	1
4902554	100	C	11/15/2023	17:06	-133.515	47.699	0	833.10	0	3.4260	0	34.3080	0	27.298	0	824.476	0	-1e10	8	-1e10	8	-1E+10	1	-1E+10	1	-1E+10	1	-1E+10	1	-1E+10	1	-1E+10	1
4902554	100	C	11/15/2023	17:06	-133.515	47.699	0	837.80	0	3.4150	0	34.3100	0	27.301	0	829.118	0	-1e10	8	-1e10	8	-1E+10	1	-1E+10	1	-1E+10	1	-1E+10	1	-1E+10	1	-1E+10	1
4902554	100	C	11/15/2023	17:06	-133.515	47.699	0	842.90	0	3.4030	0	34.3110	0	27.303	0	834.155	0	-1e10	8	-1e10	8	-1E+10	1	-1E+10	1	-1E+10	1	-1E+10	1	-1E+10	1	-1E+10	1
4902554	100	C	11/15/2023	17:06	-133.515	47.699	0	848.10	0	3.3840	0	34.3140	0	27.307	0	839.290	0	-1e10	8	-1e10	8	-1E+10	1	-1E+10	1	-1E+10	1	-1E+10	1	-1E+10	1	-1E+10	1
4902554	100	C	11/15/2023	17:06	-133.515	47.699	0	852.80	0	3.3860	0	34.3160	0	27.309	0	843.932	0	-1e10	8	-1e10	8	-1E+10	1	-1E+10	1	-1E+10	1	-1E+10	1	-1E+10	1	-1E+10	1
4902554	100	C	11/15/2023	17:06	-133.515	47.699	0	858.00	0	3.3610	0	34.3160	0	27.311	0	849.068	0	-1e10	8	-1e10	8	-1E+10	1	-1E+10	1	-1E+10	1	-1E+10	1	-1E+10	1	-1E+10	1
4902554	100	C	11/15/2023	17:06	-133.515	47.699	0	863.20	0	3.3290	0	34.3150	0	27.313	0	854.203	0	-1e10	8	-1e10	8	-1E+10	1	-1E+10	1	-1E+10	1	-1E+10	1	-1E+10	1	-1E+10	1
4902554	100	C	11/15/2023	17:06	-133.515	47.699	0	868.10	0	3.3130	0	34.3150	0	27.315	0	859.042	0	-1e10	8	-1e10	8	-1E+10	1	-1E+10	1	-1E+10	1	-1E+10	1	-1E+10	1	-1E+10	1
4902554	100	C	11/15/2023	17:06	-133.515	47.699	0	873.00	0	3.2980	0	34.3160	0	27.317	0	863.880	0	-1e10	8	-1e10	8	-1E+10	1	-1E+10	1	-1E+10	1	-1E+10	1	-1E+10	1	-1E+10	1
4902554	100	C	11/15/2023	17:06	-133.515	47.699	0	878.00	0	3.2860	0	34.3190	0	27.321	0	868.818	0	-1e10	8	-1e10	8	-1E+10	1	-1E+10	1	-1E+10	1	-1E+10	1	-1E+10	1	-1E+10	1
4902554	100	C	11/15/2023	17:06	-133.515	47.699	0	883.00	0	3.2710	0	34.3220	0	27.325	0	873.755	0	-1e10	8	-1e10	8	-1E+10	1	-1E+10	1	-1E+10	1	-1E+10	1	-1E+10	1	-1E+10	1
4902554	100	C	11/15/2023	17:06	-133.515	47.699	0	887.80	0	3.2580	0	34.3240	0	27.327	0	878.495	0	-1e10	8	-1e10	8	-1E+10	1	-1E+10	1	-1E+10	1	-1E+10	1	-1E+10	1	-1E+10	1
4902554	100	C	11/15/2023	17:06	-133.515	47.699	0	892.90	0	3.2510	0	34.3250	0	27.329	0	883.531	0	-1e10	8	-1e10	8	-1E+10	1	-1E+10	1	-1E+10	1	-1E+10	1	-1E+10	1	-1E+10	1
4902554	100	C	11/15/2023	17:06	-133.515	47.699	0	898.00	0	3.2420	0	34.3280	0	27.332	0	888.566	0	-1e10	8	-1e10	8	-1E+10	1	-1E+10	1	-1E+10	1	-1E+10	1	-1E+10	1	-1E+10	1
4902554	100	C	11/15/2023	17:06	-133.515	47.699	0	902.90	0	3.2280	0	34.3300	0	27.335	0	893.404	0	-1e10	8	-1e10	8	-1E+10	1	-1E+10	1	-1E+10	1	-1E+10	1	-1E+10	1	-1E+10	1
4902554	100	C	11/15/2023	17:06	-133.515	47.699	0	907.90	0	3.2200	0	34.3320	0	27.337	0	898.341	0	-1e10	8	-1e10	8	-1E+10	1	-1E+10	1	-1E+10	1	-1E+10	1	-1E+10	1	-1E+10	1
4902554	100	C	11/15/2023	17:06	-133.515	47.699	0	913.10	0	3.2130	0	34.3330	0	27.339	0	903.475	0	-1e10	8	-1e10	8	-1E+10	1	-1E+10	1	-1E+10	1	-1E+10	1	-1E+10	1	-1E+10	1
4902554	100	C	11/15/2023	17:06	-133.515	47.699	0	917.80	0	3.2070	0	34.3360	0	27.342	0	908.115	0	-1e10	8	-1e10	8	-1E+10	1	-1E+10	1	-1E+10	1	-1E+10	1	-1E+10	1	-1E+10	1
4902554	100	C	11/15/2023	17:06	-133.515	47.699	0	922.60	0	3.1990	0	34.3380	0	27.344	0	912.854	0	-1e10	8	-1e10	8	-1E+10	1	-1E+10	1	-1E+10	1	-1E+10	1	-1E+10	1	-1E+10	1
4902554	100	C	11/15/2023	17:06	-133.515	47.699	0	927.90	0	3.1930	0	34.3390	0	27.346	0	918.087	0	-1e10	8	-1e10	8	-1E+10	1	-1E+10	1	-1E+10	1	-1E+10	1	-1E+10	1	-1E+10	1
4902554	100	C	11/15/2023	17:06	-133.515	47.699	0	932.90	0	3.1890	0	34.3400	0	27.347	0	923.023	0	-1e10	8	-1e10	8	-1E+10	1	-1E+10	1	-1E+10	1	-1E+10	1	-1E+10	1	-1E+10	1
4902554	100	C	11/15/2023	17:06	-133.515	47.699	0	937.80	0	3.1830	0	34.3420	0	27.349	0	927.860	0	-1e10	8	-1e10	8	-1E+10	1	-1E+10	1	-1E+10	1	-1E+10	1	-1E+10	1	-1E+10	1
4902554	100	C	11/15/2023	17:06	-133.515	47.699	0	942.90	0	3.1750	0	34.3440	0	27.351	0	932.894	0	-1e10	8	-1e10	8	-1E+10	1	-1E+10	1	-1E+10	1	-1E+10	1	-1E+10	1	-1E+10	1
4902554	100	C	11/15/2023	17:06	-133.515	47.699	0	947.60	0	3.1650	0	34.3460	0	27.354	0	937.534	0	-1e10	8	-1e10	8	-1E+10	1	-1E+10	1	-1E+10	1	-1E+10	1	-1E+10	1	-1E+10	1
4902554	100	C	11/15/2023	17:06	-133.515	47.699	0	952.80	0	3.1590	0	34.3470	0	27.355	0	942.667	0	-1e10	8	-1e10	8	-1E+10	1	-1E+10	1	-1E+10	1	-1E+10	1	-1E+10	1	-1E+10	1
4902554	100	C	11/15/2023	17:06	-133.515	47.699	0	958.10	0	3.1550	0	34.3490	0	27.357	0	947.899	0	-1e10	8	-1e10	8	-1E+10	1	-1E+10	1	-1E+10	1	-1E+10	1	-1E+10	1	-1E+10	1
4902554	100	C	11/15/2023	17:06	-133.515	47.699	0	963.00	0	3.1470	0	34.3510	0	27.360	0	952.735	0	-1e10	8	-1e10	8	-1E+10	1	-1E+10	1	-1E+10	1	-1E+10	1	-1E+10	1	-1E+10	1
4902554	100	C	11/15/2023	17:06	-133.515	47.699	0	968.00	0	3.1420	0	34.3530	0	27.362	0	957.671	0	-1e10	8	-1e10	8	-1E+10	1	-1E+10	1	-1E+10	1	-1E+10	1	-1E+10	1	-1E+10	1
4902554	100	C	11/15/2023	17:06	-133.515	47.699	0	972.90	0	3.1340	0	34.3540	0	27.363	0	962.507	0	-1e10	8	-1e10	8	-1E+10	1	-1E+10	1	-1E+10	1	-1E+10	1	-1E+10	1	-1E+10	1
4902554	100	C	11/15/2023	17:06	-133.515	47.699	0	977.90	0	3.1300	0	34.3550	0	27.364	0	967.442	0	-1e10	8	-1e10	8	-1E+10	1	-1E+10	1	-1E+10	1	-1E+10	1	-1E+10	1	-1E+10	1
4902554	100	C	11/15/2023	17:06	-133.515	47.699	0	982.80	0	3.1200	0	34.3570	0	27.367	0	972.278	0	-1e10	8	-1e10	8	-1E+10	1	-1E+10	1	-1E+10	1	-1E+10	1	-1E+10	1	-1E+10	1
4902554	100	C	11/15/2023	17:06	-133.515	47.699	0	987.80	0	3.1130	0	34.3590	0	27.369	0	977.213	0	-1e10	8	-1e10	8	-1E+10	1	-1E+10	1	-1E+10	1	-1E+10	1	-1E+10	1	-1E+10	1
4902554	100	C	11/15/2023	17:06	-133.515	47.699	0	992.80	0	3.1070	0	34.3590	0	27.370	0	982.148	0	-1e10	8	-1e10	8	-1E+10	1	-1E+10	1	-1E+10	1	-1E+10	1	-1E+10	1	-1E+10	1
4902554	100	C	11/15/2023	17:06	-133.515	47.699	0	997.80	0	3.0930	0	34.3630	0	27.374	0	987.083	0	-1e10	8	-1e10	8	-1E+10	1	-1E+10	1	-1E+10	1	-1E+10	1	-1E+10	1	-1E+10	1
4902554	100	C	11/15/2023	17:06	-133.515	47.699	0	1005.40	0	3.0770	0	34.3670	0	27.379	0	994.583	0	-1e10	8	-1e10	8	-1E+10	1	-1E+10	1	-1E+10	1	-1E+10	1	-1E+10	1	-1E+10	1
4902554	100	C	11/15/2023	17:06	-133.515	47.699	0	1015.30	0	3.0610	0	34.3710	0	27.384	0	1004.353	0	-1e10	8	-1e10	8	-1E+10	1	-1E+10	1	-1E+10	1	-1E+10	1	-1E+10	1	-1E+10	1
4902554	100	C	11/15/2023	17:06	-133.515	47.699	0	1025.20	0	3.0560	0	34.3720	0	27.385	0	1014.122	0	-1e10	8	-1e10	8	-1E+10	1	-1E+10	1	-1E+10	1	-1E+10	1	-1E+10	1	-1E+10	1
4902554	100	C	11/15/2023	17:06	-133.515	47.699	0	1035.20	0	3.0400	0	34.3770	0	27.391	0	1023.990	0	-1e10	8	-1e10	8	-1E+10	1	-1E+10	1	-1E+10	1	-1E+10	1	-1E+10	1	-1E+10	1
4902554	100	C	11/15/2023	17:06	-133.515	47.699	0	1045.30	0	3.0260	0	34.3800	0	27.394	0	1033.955	0	-1e10	8	-1e10	8	-1E+10	1	-1E+10	1	-1E+10	1	-1E+10	1	-1E+10	1	-1E+10	1
4902554	100	C	11/15/2023	17:06	-133.515	47.699	0	1055.30	0	3.0000	0	34.3850	0	27.401	0	1043.822	0	-1e10	8	-1e10	8	-1E+10	1	-1E+10	1	-1E+10	1	-1E+10	1	-1E+10	1	-1E+10	1
4902554	100	C	11/15/2023	17:06	-133.515	47.699	0	1065.30	0	2.9780	0	34.3890	0	27.406	0	1053.688	0	-1e10	8	-1e10	8	-1E+10	1	-1E+10	1	-1E+10	1	-1E+10	1	-1E+10	1	-1E+10	1
4902554	100	C	11/15/2023	17:06	-133.515	47.699	0	1075.70	0	2.9610	0	34.3930	0	27.411	0	1063.948	0	-1e10	8	-1e10	8	-1E+10	1	-1E+10	1	-1E+10	1	-1E+10	1	-1E+10	1	-1E+10	1
4902554	100	C	11/15/2023	17:06	-133.515	47.699	0	1085.50	0	2.9310	0	34.3960	0	27.416	0	1073.616	0	-1e10	8	-1e10	8	-1E+10	1	-1E+10	1	-1E+10	1	-1E+10	1	-1E+10	1	-1E+10	1
4902554	100	C	11/15/2023	17:06	-133.515	47.699	0	1095.30	0	2.9090	0	34.3990	0	27.420	0	1083.284	0	-1e10	8	-1e10	8	-1E+10	1	-1E+10	1	-1E+10	1	-1E+10	1	-1E+10	1	-1E+10	1
4902554	100	C	11/15/2023	17:06	-133.515	47.699	0	1105.60	0	2.8970	0	34.4060	0	27.427	0	1093.444	0	-1e10	8	-1e10	8	-1E+10	1	-1E+10	1	-1E+10	1	-1E+10	1	-1E+10	1	-1E+10	1
4902554	100	C	11/15/2023	17:06	-133.515	47.699	0	1115.80	0	2.8820	0	34.4090	0	27.431	0	1103.505	0	-1e10	8	-1e10	8	-1E+10	1	-1E+10	1	-1E+10	1	-1E+10	1	-1E+10	1	-1E+10	1
4902554	100	C	11/15/2023	17:06	-133.515	47.699	0	1125.80	0	2.8810	0	34.4120	0	27.433	0	1113.368	0	-1e10	8	-1e10	8	-1E+10	1	-1E+10	1	-1E+10	1	-1E+10	1	-1E+10	1	-1E+10	1
4902554	100	C	11/15/2023	17:06	-133.515	47.699	0	1135.50	0	2.8770	0	34.4150	0	27.436	0	1122.935	0	-1e10	8	-1e10	8	-1E+10	1	-1E+10	1	-1E+10	1	-1E+10	1	-1E+10	1	-1E+10	1
4902554	100	C	11/15/2023	17:06	-133.515	47.699	0	1145.40	0	2.8440	0	34.4190	0	27.442	0	1132.699	0	-1e10	8	-1e10	8	-1E+10	1	-1E+10	1	-1E+10	1	-1E+10	1	-1E+10	1	-1E+10	1
4902554	100	C	11/15/2023	17:06	-133.515	47.699	0	1155.50	0	2.8300	0	34.4250	0	27.448	0	1142.659	0	-1e10	8	-1e10	8	-1E+10	1	-1E+10	1	-1E+10	1	-1E+10	1	-1E+10	1	-1E+10	1
4902554	100	C	11/15/2023	17:06	-133.515	47.699	0	1165.70	0	2.8260	0	34.4300	0	27.453	0	1152.718	0	-1e10	8	-1e10	8	-1E+10	1	-1E+10	1	-1E+10	1	-1E+10	1	-1E+10	1	-1E+10	1
4902554	100	C	11/15/2023	17:06	-133.515	47.699	0	1175.50	0	2.8130	0	34.4330	0	27.456	0	1162.382	0	-1e10	8	-1e10	8	-1E+10	1	-1E+10	1	-1E+10	1	-1E+10	1	-1E+10	1	-1E+10	1
4902554	100	C	11/15/2023	17:06	-133.515	47.699	0	1185.50	0	2.7890	0	34.4340	0	27.459	0	1172.242	0	-1e10	8	-1e10	8	-1E+10	1	-1E+10	1	-1E+10	1	-1E+10	1	-1E+10	1	-1E+10	1
4902554	100	C	11/15/2023	17:06	-133.515	47.699	0	1195.80	0	2.7780	0	34.4360	0	27.462	0	1182.398	0	-1e10	8	-1e10	8	-1E+10	1	-1E+10	1	-1E+10	1	-1E+10	1	-1E+10	1	-1E+10	1
4902554	100	C	11/15/2023	17:06	-133.515	47.699	0	1205.40	0	2.7690	0	34.4400	0	27.466	0	1191.864	0	-1e10	8	-1e10	8	-1E+10	1	-1E+10	1	-1E+10	1	-1E+10	1	-1E+10	1	-1E+10	1
4902554	100	C	11/15/2023	17:06	-133.515	47.699	0	1215.20	0	2.7530	0	34.4430	0	27.470	0	1201.525	0	-1e10	8	-1e10	8	-1E+10	1	-1E+10	1	-1E+10	1	-1E+10	1	-1E+10	1	-1E+10	1
4902554	100	C	11/15/2023	17:06	-133.515	47.699	0	1225.30	0	2.7340	0	34.4460	0	27.474	0	1211.483	0	-1e10	8	-1e10	8	-1E+10	1	-1E+10	1	-1E+10	1	-1E+10	1	-1E+10	1	-1E+10	1
4902554	100	C	11/15/2023	17:06	-133.515	47.699	0	1235.10	0	2.7270	0	34.4490	0	27.477	0	1221.144	0	-1e10	8	-1e10	8	-1E+10	1	-1E+10	1	-1E+10	1	-1E+10	1	-1E+10	1	-1E+10	1
4902554	100	C	11/15/2023	17:06	-133.515	47.699	0	1245.20	0	2.7150	0	34.4520	0	27.481	0	1231.100	0	-1e10	8	-1e10	8	-1E+10	1	-1E+10	1	-1E+10	1	-1E+10	1	-1E+10	1	-1E+10	1
4902554	100	C	11/15/2023	17:06	-133.515	47.699	0	1255.50	0	2.6940	0	34.4540	0	27.484	0	1241.253	0	-1e10	8	-1e10	8	-1E+10	1	-1E+10	1	-1E+10	1	-1E+10	1	-1E+10	1	-1E+10	1
4902554	100	C	11/15/2023	17:06	-133.515	47.699	0	1265.40	0	2.6770	0	34.4570	0	27.488	0	1251.011	0	-1e10	8	-1e10	8	-1E+10	1	-1E+10	1	-1E+10	1	-1E+10	1	-1E+10	1	-1E+10	1
4902554	100	C	11/15/2023	17:06	-133.515	47.699	0	1275.40	0	2.6470	0	34.4570	0	27.491	0	1260.868	0	-1e10	8	-1e10	8	-1E+10	1	-1E+10	1	-1E+10	1	-1E+10	1	-1E+10	1	-1E+10	1
4902554	100	C	11/15/2023	17:06	-133.515	47.699	0	1285.90	0	2.6300	0	34.4590	0	27.494	0	1271.217	0	-1e10	8	-1e10	8	-1E+10	1	-1E+10	1	-1E+10	1	-1E+10	1	-1E+10	1	-1E+10	1
4902554	100	C	11/15/2023	17:06	-133.515	47.699	0	1295.70	0	2.6140	0	34.4620	0	27.497	0	1280.875	0	-1e10	8	-1e10	8	-1E+10	1	-1E+10	1	-1E+10	1	-1E+10	1	-1E+10	1	-1E+10	1
4902554	100	C	11/15/2023	17:06	-133.515	47.699	0	1305.50	0	2.5990	0	34.4660	0	27.502	0	1290.533	0	-1e10	8	-1e10	8	-1E+10	1	-1E+10	1	-1E+10	1	-1E+10	1	-1E+10	1	-1E+10	1
4902554	100	C	11/15/2023	17:06	-133.515	47.699	0	1315.60	0	2.5890	0	34.4690	0	27.505	0	1300.486	0	-1e10	8	-1e10	8	-1E+10	1	-1E+10	1	-1E+10	1	-1E+10	1	-1E+10	1	-1E+10	1
4902554	100	C	11/15/2023	17:06	-133.515	47.699	0	1325.60	0	2.5720	0	34.4720	0	27.509	0	1310.340	0	-1e10	8	-1e10	8	-1E+10	1	-1E+10	1	-1E+10	1	-1E+10	1	-1E+10	1	-1E+10	1
4902554	100	C	11/15/2023	17:06	-133.515	47.699	0	1335.70	0	2.5650	0	34.4740	0	27.511	0	1320.292	0	-1e10	8	-1e10	8	-1E+10	1	-1E+10	1	-1E+10	1	-1E+10	1	-1E+10	1	-1E+10	1
4902554	100	C	11/15/2023	17:06	-133.515	47.699	0	1345.40	0	2.5530	0	34.4760	0	27.514	0	1329.849	0	-1e10	8	-1e10	8	-1E+10	1	-1E+10	1	-1E+10	1	-1E+10	1	-1E+10	1	-1E+10	1
4902554	100	C	11/15/2023	17:06	-133.515	47.699	0	1355.20	0	2.5420	0	34.4780	0	27.517	0	1339.505	0	-1e10	8	-1e10	8	-1E+10	1	-1E+10	1	-1E+10	1	-1E+10	1	-1E+10	1	-1E+10	1
4902554	100	C	11/15/2023	17:06	-133.515	47.699	0	1365.50	0	2.5290	0	34.4820	0	27.521	0	1349.653	0	-1e10	8	-1e10	8	-1E+10	1	-1E+10	1	-1E+10	1	-1E+10	1	-1E+10	1	-1E+10	1
4902554	100	C	11/15/2023	17:06	-133.515	47.699	0	1375.40	0	2.5150	0	34.4840	0	27.524	0	1359.406	0	-1e10	8	-1e10	8	-1E+10	1	-1E+10	1	-1E+10	1	-1E+10	1	-1E+10	1	-1E+10	1
4902554	100	C	11/15/2023	17:06	-133.515	47.699	0	1385.40	0	2.5020	0	34.4870	0	27.527	0	1369.257	0	-1e10	8	-1e10	8	-1E+10	1	-1E+10	1	-1E+10	1	-1E+10	1	-1E+10	1	-1E+10	1
4902554	100	C	11/15/2023	17:06	-133.515	47.699	0	1395.50	0	2.4920	0	34.4880	0	27.529	0	1379.207	0	-1e10	8	-1e10	8	-1E+10	1	-1E+10	1	-1E+10	1	-1E+10	1	-1E+10	1	-1E+10	1
4902554	100	C	11/15/2023	17:06	-133.515	47.699	0	1405.30	0	2.4810	0	34.4920	0	27.533	0	1388.860	0	-1e10	8	-1e10	8	-1E+10	1	-1E+10	1	-1E+10	1	-1E+10	1	-1E+10	1	-1E+10	1
4902554	100	C	11/15/2023	17:06	-133.515	47.699	0	1415.30	0	2.4570	0	34.4960	0	27.539	0	1398.710	0	-1e10	8	-1e10	8	-1E+10	1	-1E+10	1	-1E+10	1	-1E+10	1	-1E+10	1	-1E+10	1
4902554	100	C	11/15/2023	17:06	-133.515	47.699	0	1425.40	0	2.4360	0	34.4990	0	27.543	0	1408.658	0	-1e10	8	-1e10	8	-1E+10	1	-1E+10	1	-1E+10	1	-1E+10	1	-1E+10	1	-1E+10	1
4902554	100	C	11/15/2023	17:06	-133.515	47.699	0	1435.70	0	2.4290	0	34.5020	0	27.546	0	1418.802	0	-1e10	8	-1e10	8	-1E+10	1	-1E+10	1	-1E+10	1	-1E+10	1	-1E+10	1	-1E+10	1
4902554	100	C	11/15/2023	17:06	-133.515	47.699	0	1445.60	0	2.4160	0	34.5050	0	27.549	0	1428.552	0	-1e10	8	-1e10	8	-1E+10	1	-1E+10	1	-1E+10	1	-1E+10	1	-1E+10	1	-1E+10	1
4902554	100	C	11/15/2023	17:06	-133.515	47.699	0	1455.20	0	2.4050	0	34.5070	0	27.552	0	1438.006	0	-1e10	8	-1e10	8	-1E+10	1	-1E+10	1	-1E+10	1	-1E+10	1	-1E+10	1	-1E+10	1
4902554	100	C	11/15/2023	17:06	-133.515	47.699	0	1465.30	0	2.3870	0	34.5100	0	27.556	0	1447.952	0	-1e10	8	-1e10	8	-1E+10	1	-1E+10	1	-1E+10	1	-1E+10	1	-1E+10	1	-1E+10	1
4902554	100	C	11/15/2023	17:06	-133.515	47.699	0	1475.60	0	2.3700	0	34.5120	0	27.559	0	1458.095	0	-1e10	8	-1e10	8	-1E+10	1	-1E+10	1	-1E+10	1	-1E+10	1	-1E+10	1	-1E+10	1
4902554	100	C	11/15/2023	17:06	-133.515	47.699	0	1485.50	0	2.3470	0	34.5140	0	27.562	0	1467.843	0	-1e10	8	-1e10	8	-1E+10	1	-1E+10	1	-1E+10	1	-1E+10	1	-1E+10	1	-1E+10	1
4902554	100	C	11/15/2023	17:06	-133.515	47.699	0	1495.60	0	2.3190	0	34.5170	0	27.567	0	1477.788	0	-1e10	8	-1e10	8	-1E+10	1	-1E+10	1	-1E+10	1	-1E+10	1	-1E+10	1	-1E+10	1
4902554	100	C	11/15/2023	17:06	-133.515	47.699	0	1505.40	0	2.2940	0	34.5190	0	27.571	0	1487.437	0	-1e10	8	-1e10	8	-1E+10	1	-1E+10	1	-1E+10	1	-1E+10	1	-1E+10	1	-1E+10	1
4902554	100	C	11/15/2023	17:06	-133.515	47.699	0	1515.40	0	2.2870	0	34.5210	0	27.573	0	1497.282	0	-1e10	8	-1e10	8	-1E+10	1	-1E+10	1	-1E+10	1	-1E+10	1	-1E+10	1	-1E+10	1
4902554	100	C	11/15/2023	17:06	-133.515	47.699	0	1525.50	0	2.2790	0	34.5220	0	27.575	0	1507.225	0	-1e10	8	-1e10	8	-1E+10	1	-1E+10	1	-1E+10	1	-1E+10	1	-1E+10	1	-1E+10	1
4902554	100	C	11/15/2023	17:06	-133.515	47.699	0	1535.60	0	2.2700	0	34.5240	0	27.577	0	1517.168	0	-1e10	8	-1e10	8	-1E+10	1	-1E+10	1	-1E+10	1	-1E+10	1	-1E+10	1	-1E+10	1
4902554	100	C	11/15/2023	17:06	-133.515	47.699	0	1545.60	0	2.2640	0	34.5250	0	27.578	0	1527.012	0	-1e10	8	-1e10	8	-1E+10	1	-1E+10	1	-1E+10	1	-1E+10	1	-1E+10	1	-1E+10	1
4902554	100	C	11/15/2023	17:06	-133.515	47.699	0	1555.20	0	2.2580	0	34.5260	0	27.580	0	1536.461	0	-1e10	8	-1e10	8	-1E+10	1	-1E+10	1	-1E+10	1	-1E+10	1	-1E+10	1	-1E+10	1
4902554	100	C	11/15/2023	17:06	-133.515	47.699	0	1565.20	0	2.2530	0	34.5270	0	27.581	0	1546.304	0	-1e10	8	-1e10	8	-1E+10	1	-1E+10	1	-1E+10	1	-1E+10	1	-1E+10	1	-1E+10	1
4902554	100	C	11/15/2023	17:06	-133.515	47.699	0	1575.30	0	2.2480	0	34.5280	0	27.582	0	1556.245	0	-1e10	8	-1e10	8	-1E+10	1	-1E+10	1	-1E+10	1	-1E+10	1	-1E+10	1	-1E+10	1
4902554	100	C	11/15/2023	17:06	-133.515	47.699	0	1585.20	0	2.2390	0	34.5300	0	27.585	0	1565.989	0	-1e10	8	-1e10	8	-1E+10	1	-1E+10	1	-1E+10	1	-1E+10	1	-1E+10	1	-1E+10	1
4902554	100	C	11/15/2023	17:06	-133.515	47.699	0	1595.20	0	2.2300	0	34.5310	0	27.586	0	1575.831	0	-1e10	8	-1e10	8	-1E+10	1	-1E+10	1	-1E+10	1	-1E+10	1	-1E+10	1	-1E+10	1
4902554	100	C	11/15/2023	17:06	-133.515	47.699	0	1605.40	0	2.2260	0	34.5320	0	27.587	0	1585.869	0	-1e10	8	-1e10	8	-1E+10	1	-1E+10	1	-1E+10	1	-1E+10	1	-1E+10	1	-1E+10	1
4902554	100	C	11/15/2023	17:06	-133.515	47.699	0	1615.20	0	2.2210	0	34.5330	0	27.589	0	1595.512	0	-1e10	8	-1e10	8	-1E+10	1	-1E+10	1	-1E+10	1	-1E+10	1	-1E+10	1	-1E+10	1
4902554	100	C	11/15/2023	17:06	-133.515	47.699	0	1625.10	0	2.2170	0	34.5330	0	27.589	0	1605.254	0	-1e10	8	-1e10	8	-1E+10	1	-1E+10	1	-1E+10	1	-1E+10	1	-1E+10	1	-1E+10	1
4902554	100	C	11/15/2023	17:06	-133.515	47.699	0	1635.10	0	2.2100	0	34.5350	0	27.591	0	1615.094	0	-1e10	8	-1e10	8	-1E+10	1	-1E+10	1	-1E+10	1	-1E+10	1	-1E+10	1	-1E+10	1
4902554	100	C	11/15/2023	17:06	-133.515	47.699	0	1645.10	0	2.1980	0	34.5360	0	27.593	0	1624.933	0	-1e10	8	-1e10	8	-1E+10	1	-1E+10	1	-1E+10	1	-1E+10	1	-1E+10	1	-1E+10	1
4902554	100	C	11/15/2023	17:06	-133.515	47.699	0	1655.20	0	2.1850	0	34.5390	0	27.596	0	1634.871	0	-1e10	8	-1e10	8	-1E+10	1	-1E+10	1	-1E+10	1	-1E+10	1	-1E+10	1	-1E+10	1
4902554	100	C	11/15/2023	17:06	-133.515	47.699	0	1665.30	0	2.1700	0	34.5420	0	27.600	0	1644.807	0	-1e10	8	-1e10	8	-1E+10	1	-1E+10	1	-1E+10	1	-1E+10	1	-1E+10	1	-1E+10	1
4902554	100	C	11/15/2023	17:06	-133.515	47.699	0	1675.60	0	2.1570	0	34.5450	0	27.604	0	1654.940	0	-1e10	8	-1e10	8	-1E+10	1	-1E+10	1	-1E+10	1	-1E+10	1	-1E+10	1	-1E+10	1
4902554	100	C	11/15/2023	17:06	-133.515	47.699	0	1685.40	0	2.1440	0	34.5470	0	27.606	0	1664.581	0	-1e10	8	-1e10	8	-1E+10	1	-1E+10	1	-1E+10	1	-1E+10	1	-1E+10	1	-1E+10	1
4902554	100	C	11/15/2023	17:06	-133.515	47.699	0	1695.30	0	2.1350	0	34.5490	0	27.609	0	1674.320	0	-1e10	8	-1e10	8	-1E+10	1	-1E+10	1	-1E+10	1	-1E+10	1	-1E+10	1	-1E+10	1
4902554	100	C	11/15/2023	17:06	-133.515	47.699	0	1705.60	0	2.1190	0	34.5520	0	27.612	0	1684.451	0	-1e10	8	-1e10	8	-1E+10	1	-1E+10	1	-1E+10	1	-1E+10	1	-1E+10	1	-1E+10	1
4902554	100	C	11/15/2023	17:06	-133.515	47.699	0	1716.00	0	2.1090	0	34.5540	0	27.615	0	1694.681	0	-1e10	8	-1e10	8	-1E+10	1	-1E+10	1	-1E+10	1	-1E+10	1	-1E+10	1	-1E+10	1
4902554	100	C	11/15/2023	17:06	-133.515	47.699	0	1725.40	0	2.1030	0	34.5550	0	27.616	0	1703.927	0	-1e10	8	-1e10	8	-1E+10	1	-1E+10	1	-1E+10	1	-1E+10	1	-1E+10	1	-1E+10	1
4902554	100	C	11/15/2023	17:06	-133.515	47.699	0	1735.20	0	2.0940	0	34.5570	0	27.619	0	1713.565	0	-1e10	8	-1e10	8	-1E+10	1	-1E+10	1	-1E+10	1	-1E+10	1	-1E+10	1	-1E+10	1
4902554	100	C	11/15/2023	17:06	-133.515	47.699	0	1745.20	0	2.0810	0	34.5590	0	27.621	0	1723.400	0	-1e10	8	-1e10	8	-1E+10	1	-1E+10	1	-1E+10	1	-1E+10	1	-1E+10	1	-1E+10	1
4902554	100	C	11/15/2023	17:06	-133.515	47.699	0	1755.10	0	2.0720	0	34.5600	0	27.623	0	1733.136	0	-1e10	8	-1e10	8	-1E+10	1	-1E+10	1	-1E+10	1	-1E+10	1	-1E+10	1	-1E+10	1
4902554	100	C	11/15/2023	17:06	-133.515	47.699	0	1765.30	0	2.0630	0	34.5620	0	27.625	0	1743.166	0	-1e10	8	-1e10	8	-1E+10	1	-1E+10	1	-1E+10	1	-1E+10	1	-1E+10	1	-1E+10	1
4902554	100	C	11/15/2023	17:06	-133.515	47.699	0	1775.50	0	2.0560	0	34.5640	0	27.627	0	1753.196	0	-1e10	8	-1e10	8	-1E+10	1	-1E+10	1	-1E+10	1	-1E+10	1	-1E+10	1	-1E+10	1
4902554	100	C	11/15/2023	17:06	-133.515	47.699	0	1785.40	0	2.0490	0	34.5650	0	27.629	0	1762.931	0	-1e10	8	-1e10	8	-1E+10	1	-1E+10	1	-1E+10	1	-1E+10	1	-1E+10	1	-1E+10	1
4902554	100	C	11/15/2023	17:06	-133.515	47.699	0	1795.40	0	2.0410	0	34.5660	0	27.630	0	1772.763	0	-1e10	8	-1e10	8	-1E+10	1	-1E+10	1	-1E+10	1	-1E+10	1	-1E+10	1	-1E+10	1
4902554	100	C	11/15/2023	17:06	-133.515	47.699	0	1805.60	0	2.0340	0	34.5680	0	27.632	0	1782.792	0	-1e10	8	-1e10	8	-1E+10	1	-1E+10	1	-1E+10	1	-1E+10	1	-1E+10	1	-1E+10	1
4902554	100	C	11/15/2023	17:06	-133.515	47.699	0	1815.60	0	2.0260	0	34.5700	0	27.635	0	1792.623	0	-1e10	8	-1e10	8	-1E+10	1	-1E+10	1	-1E+10	1	-1E+10	1	-1E+10	1	-1E+10	1
4902554	100	C	11/15/2023	17:06	-133.515	47.699	0	1825.30	0	2.0190	0	34.5710	0	27.636	0	1802.159	0	-1e10	8	-1e10	8	-1E+10	1	-1E+10	1	-1E+10	1	-1E+10	1	-1E+10	1	-1E+10	1
4902554	100	C	11/15/2023	17:06	-133.515	47.699	0	1835.10	0	2.0120	0	34.5720	0	27.637	0	1811.793	0	-1e10	8	-1e10	8	-1E+10	1	-1E+10	1	-1E+10	1	-1E+10	1	-1E+10	1	-1E+10	1
4902554	100	C	11/15/2023	17:06	-133.515	47.699	0	1845.70	0	2.0030	0	34.5740	0	27.640	0	1822.213	0	-1e10	8	-1e10	8	-1E+10	1	-1E+10	1	-1E+10	1	-1E+10	1	-1E+10	1	-1E+10	1
4902554	100	C	11/15/2023	17:06	-133.515	47.699	0	1855.50	0	1.9990	0	34.5750	0	27.641	0	1831.847	0	-1e10	8	-1e10	8	-1E+10	1	-1E+10	1	-1E+10	1	-1E+10	1	-1E+10	1	-1E+10	1
4902554	100	C	11/15/2023	17:06	-133.515	47.699	0	1865.10	0	1.9940	0	34.5760	0	27.642	0	1841.283	0	-1e10	8	-1e10	8	-1E+10	1	-1E+10	1	-1E+10	1	-1E+10	1	-1E+10	1	-1E+10	1
4902554	100	C	11/15/2023	17:06	-133.515	47.699	0	1875.00	0	1.9900	0	34.5770	0	27.643	0	1851.013	0	-1e10	8	-1e10	8	-1E+10	1	-1E+10	1	-1E+10	1	-1E+10	1	-1E+10	1	-1E+10	1
4902554	100	C	11/15/2023	17:06	-133.515	47.699	0	1885.10	0	1.9880	0	34.5770	0	27.644	0	1860.940	0	-1e10	8	-1e10	8	-1E+10	1	-1E+10	1	-1E+10	1	-1E+10	1	-1E+10	1	-1E+10	1
4902554	100	C	11/15/2023	17:06	-133.515	47.699	0	1895.30	0	1.9810	0	34.5790	0	27.646	0	1870.964	0	-1e10	8	-1e10	8	-1E+10	1	-1E+10	1	-1E+10	1	-1E+10	1	-1E+10	1	-1E+10	1
4902554	100	C	11/15/2023	17:06	-133.515	47.699	0	1905.20	0	1.9750	0	34.5800	0	27.647	0	1880.693	0	-1e10	8	-1e10	8	-1E+10	1	-1E+10	1	-1E+10	1	-1E+10	1	-1E+10	1	-1E+10	1
4902554	100	C	11/15/2023	17:06	-133.515	47.699	0	1915.30	0	1.9710	0	34.5810	0	27.648	0	1890.619	0	-1e10	8	-1e10	8	-1E+10	1	-1E+10	1	-1E+10	1	-1E+10	1	-1E+10	1	-1E+10	1
4902554	100	C	11/15/2023	17:06	-133.515	47.699	0	1925.60	0	1.9640	0	34.5820	0	27.650	0	1900.740	0	-1e10	8	-1e10	8	-1E+10	1	-1E+10	1	-1E+10	1	-1E+10	1	-1E+10	1	-1E+10	1
4902554	100	C	11/15/2023	17:06	-133.515	47.699	0	1935.60	0	1.9580	0	34.5830	0	27.651	0	1910.566	0	-1e10	8	-1e10	8	-1E+10	1	-1E+10	1	-1E+10	1	-1E+10	1	-1E+10	1	-1E+10	1
4902554	100	C	11/15/2023	17:06	-133.515	47.699	0	1945.30	0	1.9530	0	34.5840	0	27.652	0	1920.097	0	-1e10	8	-1e10	8	-1E+10	1	-1E+10	1	-1E+10	1	-1E+10	1	-1E+10	1	-1E+10	1
4902554	100	C	11/15/2023	17:06	-133.515	47.699	0	1955.10	0	1.9500	0	34.5850	0	27.653	0	1929.725	0	-1e10	8	-1e10	8	-1E+10	1	-1E+10	1	-1E+10	1	-1E+10	1	-1E+10	1	-1E+10	1
4902554	100	C	11/15/2023	17:06	-133.515	47.699	0	1965.40	0	1.9440	0	34.5860	0	27.655	0	1939.845	0	-1e10	8	-1e10	8	-1E+10	1	-1E+10	1	-1E+10	1	-1E+10	1	-1E+10	1	-1E+10	1
4902554	100	C	11/15/2023	17:06	-133.515	47.699	0	1975.70	0	1.9390	0	34.5870	0	27.656	0	1949.964	0	-1e10	8	-1e10	8	-1E+10	1	-1E+10	1	-1E+10	1	-1E+10	1	-1E+10	1	-1E+10	1
4902554	100	C	11/15/2023	17:06	-133.515	47.699	0	1985.60	0	1.9350	0	34.5880	0	27.657	0	1959.689	0	-1e10	8	-1e10	8	-1E+10	1	-1E+10	1	-1E+10	1	-1E+10	1	-1E+10	1	-1E+10	1
4902554	100	C	11/15/2023	17:06	-133.515	47.699	0	1995.60	0	1.9320	0	34.5890	0	27.658	0	1969.513	0	-1e10	8	-1e10	8	-1E+10	1	-1E+10	1	-1E+10	1	-1E+10	1	-1E+10	1	-1E+10	1
4902554	100	C	11/15/2023	17:06	-133.515	47.699	0	2005.70	0	1.9280	0	34.5890	0	27.659	0	1979.434	0	-1e10	8	-1e10	8	-1E+10	1	-1E+10	1	-1E+10	1	-1E+10	1	-1E+10	1	-1E+10	1
4902554	100	C	11/15/2023	17:06	-133.515	47.699	0																										
4902554	102	C	12/06/2023	02:59	-133.631	47.549	0	0.40	0	10.7800	0	32.3470	0	24.749	0	0.397	0	-1e10	8	-1e10	8	-1E+10	1	-1E+10	1	-1E+10	1	-1E+10	1	-1E+10	1	-1E+10	1
4902554	102	C	12/06/2023	02:59	-133.631	47.549	0	0.90	0	10.7783	0	32.3545	0	24.755	0	0.892	0	-1e10	8	-1e10	8	-1E+10	1	-1E+10	1	-1E+10	1	-1E+10	1	-1E+10	1	-1E+10	1
4902554	102	C	12/06/2023	02:59	-133.631	47.549	0	1.00	0	10.7780	0	32.3560	0	24.757	0	0.992	0	-1e10	8	-1e10	8	-1E+10	1	-1E+10	1	-1E+10	1	-1E+10	1	-1E+10	1	-1E+10	1
4902554	102	C	12/06/2023	02:59	-133.631	47.549	0	2.10	0	10.7840	0	32.3530	0	24.753	0	2.082	0	-1e10	8	-1e10	8	-1E+10	1	-1E+10	1	-1E+10	1	-1E+10	1	-1E+10	1	-1E+10	1
4902554	102	C	12/06/2023	02:59	-133.631	47.549	0	3.00	0	10.7850	0	32.3550	0	24.755	0	2.975	0	-1e10	8	-1e10	8	-1E+10	1	-1E+10	1	-1E+10	1	-1E+10	1	-1E+10	1	-1E+10	1
4902554	102	C	12/06/2023	02:59	-133.631	47.549	0	4.10	0	10.7850	0	32.3560	0	24.755	0	4.066	0	-1e10	8	-1e10	8	-1E+10	1	-1E+10	1	-1E+10	1	-1E+10	1	-1E+10	1	-1E+10	1
4902554	102	C	12/06/2023	02:59	-133.631	47.549	0	5.10	0	10.7850	0	32.3560	0	24.755	0	5.057	0	-1e10	8	-1e10	8	-1E+10	1	-1E+10	1	-1E+10	1	-1E+10	1	-1E+10	1	-1E+10	1
4902554	102	C	12/06/2023	02:59	-133.631	47.549	0	5.70	0	10.7860	0	32.3560	0	24.755	0	5.652	0	-1e10	8	-1e10	8	-1E+10	1	-1E+10	1	-1E+10	1	-1E+10	1	-1E+10	1	-1E+10	1
4902554	102	C	12/06/2023	02:59	-133.631	47.549	0	6.80	0	10.7880	0	32.3560	0	24.755	0	6.743	0	-1e10	8	-1e10	8	-1E+10	1	-1E+10	1	-1E+10	1	-1E+10	1	-1E+10	1	-1E+10	1
4902554	102	C	12/06/2023	02:59	-133.631	47.549	0	7.70	0	10.7880	0	32.3560	0	24.755	0	7.636	0	-1e10	8	-1e10	8	-1E+10	1	-1E+10	1	-1E+10	1	-1E+10	1	-1E+10	1	-1E+10	1
4902554	102	C	12/06/2023	02:59	-133.631	47.549	0	8.80	0	10.7880	0	32.3560	0	24.755	0	8.726	0	-1e10	8	-1e10	8	-1E+10	1	-1E+10	1	-1E+10	1	-1E+10	1	-1E+10	1	-1E+10	1
4902554	102	C	12/06/2023	02:59	-133.631	47.549	0	10.00	0	10.7880	0	32.3560	0	24.755	0	9.916	0	-1e10	8	-1e10	8	-1E+10	1	-1E+10	1	-1E+10	1	-1E+10	1	-1E+10	1	-1E+10	1
4902554	102	C	12/06/2023	02:59	-133.631	47.549	0	10.80	0	10.7880	0	32.3560	0	24.755	0	10.710	0	-1e10	8	-1e10	8	-1E+10	1	-1E+10	1	-1E+10	1	-1E+10	1	-1E+10	1	-1E+10	1
4902554	102	C	12/06/2023	02:59	-133.631	47.549	0	11.70	0	10.7880	0	32.3560	0	24.755	0	11.602	0	-1e10	8	-1e10	8	-1E+10	1	-1E+10	1	-1E+10	1	-1E+10	1	-1E+10	1	-1E+10	1
4902554	102	C	12/06/2023	02:59	-133.631	47.549	0	12.90	0	10.7880	0	32.3560	0	24.755	0	12.792	0	-1e10	8	-1e10	8	-1E+10	1	-1E+10	1	-1E+10	1	-1E+10	1	-1E+10	1	-1E+10	1
4902554	102	C	12/06/2023	02:59	-133.631	47.549	0	14.10	0	10.7880	0	32.3560	0	24.755	0	13.982	0	-1e10	8	-1e10	8	-1E+10	1	-1E+10	1	-1E+10	1	-1E+10	1	-1E+10	1	-1E+10	1
4902554	102	C	12/06/2023	02:59	-133.631	47.549	0	15.10	0	10.7880	0	32.3570	0	24.756	0	14.973	0	-1e10	8	-1e10	8	-1E+10	1	-1E+10	1	-1E+10	1	-1E+10	1	-1E+10	1	-1E+10	1
4902554	102	C	12/06/2023	02:59	-133.631	47.549	0	16.00	0	10.7880	0	32.3570	0	24.756	0	15.866	0	-1e10	8	-1e10	8	-1E+10	1	-1E+10	1	-1E+10	1	-1E+10	1	-1E+10	1	-1E+10	1
4902554	102	C	12/06/2023	02:59	-133.631	47.549	0	16.90	0	10.7880	0	32.3570	0	24.756	0	16.758	0	-1e10	8	-1e10	8	-1E+10	1	-1E+10	1	-1E+10	1	-1E+10	1	-1E+10	1	-1E+10	1
4902554	102	C	12/06/2023	02:59	-133.631	47.549	0	17.80	0	10.7880	0	32.3570	0	24.756	0	17.651	0	-1e10	8	-1e10	8	-1E+10	1	-1E+10	1	-1E+10	1	-1E+10	1	-1E+10	1	-1E+10	1
4902554	102	C	12/06/2023	02:59	-133.631	47.549	0	19.00	0	10.7880	0	32.3560	0	24.755	0	18.840	0	-1e10	8	-1e10	8	-1E+10	1	-1E+10	1	-1E+10	1	-1E+10	1	-1E+10	1	-1E+10	1
4902554	102	C	12/06/2023	02:59	-133.631	47.549	0	20.00	0	10.7890	0	32.3570	0	24.756	0	19.832	0	-1e10	8	-1e10	8	-1E+10	1	-1E+10	1	-1E+10	1	-1E+10	1	-1E+10	1	-1E+10	1
4902554	102	C	12/06/2023	02:59	-133.631	47.549	0	20.80	0	10.7880	0	32.3560	0	24.755	0	20.625	0	-1e10	8	-1e10	8	-1E+10	1	-1E+10	1	-1E+10	1	-1E+10	1	-1E+10	1	-1E+10	1
4902554	102	C	12/06/2023	02:59	-133.631	47.549	0	21.90	0	10.7890	0	32.3570	0	24.756	0	21.716	0	-1e10	8	-1e10	8	-1E+10	1	-1E+10	1	-1E+10	1	-1E+10	1	-1E+10	1	-1E+10	1
4902554	102	C	12/06/2023	02:59	-133.631	47.549	0	22.80	0	10.7890	0	32.3570	0	24.756	0	22.608	0	-1e10	8	-1e10	8	-1E+10	1	-1E+10	1	-1E+10	1	-1E+10	1	-1E+10	1	-1E+10	1
4902554	102	C	12/06/2023	02:59	-133.631	47.549	0	23.80	0	10.7890	0	32.3570	0	24.756	0	23.600	0	-1e10	8	-1e10	8	-1E+10	1	-1E+10	1	-1E+10	1	-1E+10	1	-1E+10	1	-1E+10	1
4902554	102	C	12/06/2023	02:59	-133.631	47.549	0	24.80	0	10.7880	0	32.3570	0	24.756	0	24.591	0	-1e10	8	-1e10	8	-1E+10	1	-1E+10	1	-1E+10	1	-1E+10	1	-1E+10	1	-1E+10	1
4902554	102	C	12/06/2023	02:59	-133.631	47.549	0	25.90	0	10.7890	0	32.3560	0	24.755	0	25.682	0	-1e10	8	-1e10	8	-1E+10	1	-1E+10	1	-1E+10	1	-1E+10	1	-1E+10	1	-1E+10	1
4902554	102	C	12/06/2023	02:59	-133.631	47.549	0	26.90	0	10.7890	0	32.3560	0	24.755	0	26.674	0	-1e10	8	-1e10	8	-1E+10	1	-1E+10	1	-1E+10	1	-1E+10	1	-1E+10	1	-1E+10	1
4902554	102	C	12/06/2023	02:59	-133.631	47.549	0	28.00	0	10.7890	0	32.3570	0	24.756	0	27.764	0	-1e10	8	-1e10	8	-1E+10	1	-1E+10	1	-1E+10	1	-1E+10	1	-1E+10	1	-1E+10	1
4902554	102	C	12/06/2023	02:59	-133.631	47.549	0	28.90	0	10.7890	0	32.3570	0	24.756	0	28.657	0	-1e10	8	-1e10	8	-1E+10	1	-1E+10	1	-1E+10	1	-1E+10	1	-1E+10	1	-1E+10	1
4902554	102	C	12/06/2023	02:59	-133.631	47.549	0	29.90	0	10.7890	0	32.3570	0	24.756	0	29.648	0	-1e10	8	-1e10	8	-1E+10	1	-1E+10	1	-1E+10	1	-1E+10	1	-1E+10	1	-1E+10	1
4902554	102	C	12/06/2023	02:59	-133.631	47.549	0	30.80	0	10.7890	0	32.3560	0	24.755	0	30.541	0	-1e10	8	-1e10	8	-1E+10	1	-1E+10	1	-1E+10	1	-1E+10	1	-1E+10	1	-1E+10	1
4902554	102	C	12/06/2023	02:59	-133.631	47.549	0	32.10	0	10.7890	0	32.3560	0	24.755	0	31.829	0	-1e10	8	-1e10	8	-1E+10	1	-1E+10	1	-1E+10	1	-1E+10	1	-1E+10	1	-1E+10	1
4902554	102	C	12/06/2023	02:59	-133.631	47.549	0	33.20	0	10.7900	0	32.3570	0	24.756	0	32.920	0	-1e10	8	-1e10	8	-1E+10	1	-1E+10	1	-1E+10	1	-1E+10	1	-1E+10	1	-1E+10	1
4902554	102	C	12/06/2023	02:59	-133.631	47.549	0	33.80	0	10.7900	0	32.3560	0	24.755	0	33.515	0	-1e10	8	-1e10	8	-1E+10	1	-1E+10	1	-1E+10	1	-1E+10	1	-1E+10	1	-1E+10	1
4902554	102	C	12/06/2023	02:59	-133.631	47.549	0	34.80	0	10.7890	0	32.3570	0	24.756	0	34.506	0	-1e10	8	-1e10	8	-1E+10	1	-1E+10	1	-1E+10	1	-1E+10	1	-1E+10	1	-1E+10	1
4902554	102	C	12/06/2023	02:59	-133.631	47.549	0	35.90	0	10.7900	0	32.3560	0	24.755	0	35.597	0	-1e10	8	-1e10	8	-1E+10	1	-1E+10	1	-1E+10	1	-1E+10	1	-1E+10	1	-1E+10	1
4902554	102	C	12/06/2023	02:59	-133.631	47.549	0	37.00	0	10.7900	0	32.3560	0	24.755	0	36.688	0	-1e10	8	-1e10	8	-1E+10	1	-1E+10	1	-1E+10	1	-1E+10	1	-1E+10	1	-1E+10	1
4902554	102	C	12/06/2023	02:59	-133.631	47.549	0	38.10	0	10.7900	0	32.3560	0	24.755	0	37.778	0	-1e10	8	-1e10	8	-1E+10	1	-1E+10	1	-1E+10	1	-1E+10	1	-1E+10	1	-1E+10	1
4902554	102	C	12/06/2023	02:59	-133.631	47.549	0	38.80	0	10.7900	0	32.3570	0	24.756	0	38.472	0	-1e10	8	-1e10	8	-1E+10	1	-1E+10	1	-1E+10	1	-1E+10	1	-1E+10	1	-1E+10	1
4902554	102	C	12/06/2023	02:59	-133.631	47.549	0	39.90	0	10.7890	0	32.3560	0	24.755	0	39.563	0	-1e10	8	-1e10	8	-1E+10	1	-1E+10	1	-1E+10	1	-1E+10	1	-1E+10	1	-1E+10	1
4902554	102	C	12/06/2023	02:59	-133.631	47.549	0	41.00	0	10.7900	0	32.3570	0	24.756	0	40.654	0	-1e10	8	-1e10	8	-1E+10	1	-1E+10	1	-1E+10	1	-1E+10	1	-1E+10	1	-1E+10	1
4902554	102	C	12/06/2023	02:59	-133.631	47.549	0	41.90	0	10.7900	0	32.3570	0	24.756	0	41.546	0	-1e10	8	-1e10	8	-1E+10	1	-1E+10	1	-1E+10	1	-1E+10	1	-1E+10	1	-1E+10	1
4902554	102	C	12/06/2023	02:59	-133.631	47.549	0	43.00	0	10.7910	0	32.3570	0	24.756	0	42.636	0	-1e10	8	-1e10	8	-1E+10	1	-1E+10	1	-1E+10	1	-1E+10	1	-1E+10	1	-1E+10	1
4902554	102	C	12/06/2023	02:59	-133.631	47.549	0	43.90	0	10.7900	0	32.3570	0	24.756	0	43.529	0	-1e10	8	-1e10	8	-1E+10	1	-1E+10	1	-1E+10	1	-1E+10	1	-1E+10	1	-1E+10	1
4902554	102	C	12/06/2023	02:59	-133.631	47.549	0	45.00	0	10.7900	0	32.3570	0	24.756	0	44.619	0	-1e10	8	-1e10	8	-1E+10	1	-1E+10	1	-1E+10	1	-1E+10	1	-1E+10	1	-1E+10	1
4902554	102	C	12/06/2023	02:59	-133.631	47.549	0	45.90	0	10.7900	0	32.3530	0	24.753	0	45.512	0	-1e10	8	-1e10	8	-1E+10	1	-1E+10	1	-1E+10	1	-1E+10	1	-1E+10	1	-1E+10	1
4902554	102	C	12/06/2023	02:59	-133.631	47.549	0	46.90	0	10.7900	0	32.3570	0	24.756	0	46.503	0	-1e10	8	-1e10	8	-1E+10	1	-1E+10	1	-1E+10	1	-1E+10	1	-1E+10	1	-1E+10	1
4902554	102	C	12/06/2023	02:59	-133.631	47.549	0	47.70	0	10.7910	0	32.3570	0	24.756	0	47.296	0	-1e10	8	-1e10	8	-1E+10	1	-1E+10	1	-1E+10	1	-1E+10	1	-1E+10	1	-1E+10	1
4902554	102	C	12/06/2023	02:59	-133.631	47.549	0	48.70	0	10.7900	0	32.3570	0	24.756	0	48.288	0	-1e10	8	-1e10	8	-1E+10	1	-1E+10	1	-1E+10	1	-1E+10	1	-1E+10	1	-1E+10	1
4902554	102	C	12/06/2023	02:59	-133.631	47.549	0	49.90	0	10.7900	0	32.3570	0	24.756	0	49.477	0	-1e10	8	-1e10	8	-1E+10	1	-1E+10	1	-1E+10	1	-1E+10	1	-1E+10	1	-1E+10	1
4902554	102	C	12/06/2023	02:59	-133.631	47.549	0	51.10	0	10.7910	0	32.3570	0	24.756	0	50.667	0	-1e10	8	-1e10	8	-1E+10	1	-1E+10	1	-1E+10	1	-1E+10	1	-1E+10	1	-1E+10	1
4902554	102	C	12/06/2023	02:59	-133.631	47.549	0	51.80	0	10.7900	0	32.3570	0	24.756	0	51.361	0	-1e10	8	-1e10	8	-1E+10	1	-1E+10	1	-1E+10	1	-1E+10	1	-1E+10	1	-1E+10	1
4902554	102	C	12/06/2023	02:59	-133.631	47.549	0	52.70	0	10.7890	0	32.3570	0	24.756	0	52.253	0	-1e10	8	-1e10	8	-1E+10	1	-1E+10	1	-1E+10	1	-1E+10	1	-1E+10	1	-1E+10	1
4902554	102	C	12/06/2023	02:59	-133.631	47.549	0	53.80	0	10.7910	0	32.3570	0	24.756	0	53.344	0	-1e10	8	-1e10	8	-1E+10	1	-1E+10	1	-1E+10	1	-1E+10	1	-1E+10	1	-1E+10	1
4902554	102	C	12/06/2023	02:59	-133.631	47.549	0	55.00	0	10.7900	0	32.3560	0	24.756	0	54.533	0	-1e10	8	-1e10	8	-1E+10	1	-1E+10	1	-1E+10	1	-1E+10	1	-1E+10	1	-1E+10	1
4902554	102	C	12/06/2023	02:59	-133.631	47.549	0	56.10	0	10.7890	0	32.3570	0	24.756	0	55.624	0	-1e10	8	-1e10	8	-1E+10	1	-1E+10	1	-1E+10	1	-1E+10	1	-1E+10	1	-1E+10	1
4902554	102	C	12/06/2023	02:59	-133.631	47.549	0	56.90	0	10.7910	0	32.3570	0	24.756	0	56.417	0	-1e10	8	-1e10	8	-1E+10	1	-1E+10	1	-1E+10	1	-1E+10	1	-1E+10	1	-1E+10	1
4902554	102	C	12/06/2023	02:59	-133.631	47.549	0	57.80	0	10.7880	0	32.3570	0	24.757	0	57.309	0	-1e10	8	-1e10	8	-1E+10	1	-1E+10	1	-1E+10	1	-1E+10	1	-1E+10	1	-1E+10	1
4902554	102	C	12/06/2023	02:59	-133.631	47.549	0	58.90	0	10.7900	0	32.3560	0	24.756	0	58.400	0	-1e10	8	-1e10	8	-1E+10	1	-1E+10	1	-1E+10	1	-1E+10	1	-1E+10	1	-1E+10	1
4902554	102	C	12/06/2023	02:59	-133.631	47.549	0	60.10	0	10.7870	0	32.3570	0	24.757	0	59.589	0	-1e10	8	-1e10	8	-1E+10	1	-1E+10	1	-1E+10	1	-1E+10	1	-1E+10	1	-1E+10	1
4902554	102	C	12/06/2023	02:59	-133.631	47.549	0	60.90	0	10.7860	0	32.3570	0	24.757	0	60.383	0	-1e10	8	-1e10	8	-1E+10	1	-1E+10	1	-1E+10	1	-1E+10	1	-1E+10	1	-1E+10	1
4902554	102	C	12/06/2023	02:59	-133.631	47.549	0	61.70	0	10.7850	0	32.3560	0	24.757	0	61.176	0	-1e10	8	-1e10	8	-1E+10	1	-1E+10	1	-1E+10	1	-1E+10	1	-1E+10	1	-1E+10	1
4902554	102	C	12/06/2023	02:59	-133.631	47.549	0	62.70	0	10.7720	0	32.3550	0	24.758	0	62.167	0	-1e10	8	-1e10	8	-1E+10	1	-1E+10	1	-1E+10	1	-1E+10	1	-1E+10	1	-1E+10	1
4902554	102	C	12/06/2023	02:59	-133.631	47.549	0	63.90	0	10.7640	0	32.3540	0	24.759	0	63.357	0	-1e10	8	-1e10	8	-1E+10	1	-1E+10	1	-1E+10	1	-1E+10	1	-1E+10	1	-1E+10	1
4902554	102	C	12/06/2023	02:59	-133.631	47.549	0	65.20	0	10.7450	0	32.3530	0	24.761	0	64.645	0	-1e10	8	-1e10	8	-1E+10	1	-1E+10	1	-1E+10	1	-1E+10	1	-1E+10	1	-1E+10	1
4902554	102	C	12/06/2023	02:59	-133.631	47.549	0	66.10	0	10.4550	0	32.3670	0	24.822	0	65.538	0	-1e10	8	-1e10	8	-1E+10	1	-1E+10	1	-1E+10	1	-1E+10	1	-1E+10	1	-1E+10	1
4902554	102	C	12/06/2023	02:59	-133.631	47.549	0	67.00	0	10.0560	0	32.3790	0	24.898	0	66.430	0	-1e10	8	-1e10	8	-1E+10	1	-1E+10	1	-1E+10	1	-1E+10	1	-1E+10	1	-1E+10	1
4902554	102	C	12/06/2023	02:59	-133.631	47.549	0	67.80	0	9.0550	0	32.4690	0	25.130	0	67.223	0	-1e10	8	-1e10	8	-1E+10	1	-1E+10	1	-1E+10	1	-1E+10	1	-1E+10	1	-1E+10	1
4902554	102	C	12/06/2023	02:59	-133.631	47.549	0	69.00	0	8.1790	0	32.5040	0	25.289	0	68.412	0	-1e10	8	-1e10	8	-1E+10	1	-1E+10	1	-1E+10	1	-1E+10	1	-1E+10	1	-1E+10	1
4902554	102	C	12/06/2023	02:59	-133.631	47.549	0	69.80	0	7.9430	0	32.5250	0	25.340	0	69.205	0	-1e10	8	-1e10	8	-1E+10	1	-1E+10	1	-1E+10	1	-1E+10	1	-1E+10	1	-1E+10	1
4902554	102	C	12/06/2023	02:59	-133.631	47.549	0	70.90	0	7.7690	0	32.5310	0	25.370	0	70.296	0	-1e10	8	-1e10	8	-1E+10	1	-1E+10	1	-1E+10	1	-1E+10	1	-1E+10	1	-1E+10	1
4902554	102	C	12/06/2023	02:59	-133.631	47.549	0	71.90	0	7.7060	0	32.5330	0	25.380	0	71.287	0	-1e10	8	-1e10	8	-1E+10	1	-1E+10	1	-1E+10	1	-1E+10	1	-1E+10	1	-1E+10	1
4902554	102	C	12/06/2023	02:59	-133.631	47.549	0	72.90	0	7.6690	0	32.5300	0	25.383	0	72.278	0	-1e10	8	-1e10	8	-1E+10	1	-1E+10	1	-1E+10	1	-1E+10	1	-1E+10	1	-1E+10	1
4902554	102	C	12/06/2023	02:59	-133.631	47.549	0	73.90	0	7.6170	0	32.5270	0	25.388	0	73.270	0	-1e10	8	-1e10	8	-1E+10	1	-1E+10	1	-1E+10	1	-1E+10	1	-1E+10	1	-1E+10	1
4902554	102	C	12/06/2023	02:59	-133.631	47.549	0	74.90	0	7.5830	0	32.5270	0	25.393	0	74.261	0	-1e10	8	-1e10	8	-1E+10	1	-1E+10	1	-1E+10	1	-1E+10	1	-1E+10	1	-1E+10	1
4902554	102	C	12/06/2023	02:59	-133.631	47.549	0	76.00	0	7.5320	0	32.5270	0	25.400	0	75.351	0	-1e10	8	-1e10	8	-1E+10	1	-1E+10	1	-1E+10	1	-1E+10	1	-1E+10	1	-1E+10	1
4902554	102	C	12/06/2023	02:59	-133.631	47.549	0	77.10	0	7.5050	0	32.5270	0	25.404	0	76.442	0	-1e10	8	-1e10	8	-1E+10	1	-1E+10	1	-1E+10	1	-1E+10	1	-1E+10	1	-1E+10	1
4902554	102	C	12/06/2023	02:59	-133.631	47.549	0	78.10	0	7.4770	0	32.5250	0	25.406	0	77.433	0	-1e10	8	-1e10	8	-1E+10	1	-1E+10	1	-1E+10	1	-1E+10	1	-1E+10	1	-1E+10	1
4902554	102	C	12/06/2023	02:59	-133.631	47.549	0	79.00	0	7.4630	0	32.5250	0	25.408	0	78.325	0	-1e10	8	-1e10	8	-1E+10	1	-1E+10	1	-1E+10	1	-1E+10	1	-1E+10	1	-1E+10	1
4902554	102	C	12/06/2023	02:59	-133.631	47.549	0	79.80	0	7.4520	0	32.5250	0	25.409	0	79.118	0	-1e10	8	-1e10	8	-1E+10	1	-1E+10	1	-1E+10	1	-1E+10	1	-1E+10	1	-1E+10	1
4902554	102	C	12/06/2023	02:59	-133.631	47.549	0	80.90	0	7.4100	0	32.5260	0	25.416	0	80.209	0	-1e10	8	-1e10	8	-1E+10	1	-1E+10	1	-1E+10	1	-1E+10	1	-1E+10	1	-1E+10	1
4902554	102	C	12/06/2023	02:59	-133.631	47.549	0	82.10	0	7.3820	0	32.5260	0	25.420	0	81.398	0	-1e10	8	-1e10	8	-1E+10	1	-1E+10	1	-1E+10	1	-1E+10	1	-1E+10	1	-1E+10	1
4902554	102	C	12/06/2023	02:59	-133.631	47.549	0	83.00	0	7.3680	0	32.5260	0	25.422	0	82.290	0	-1e10	8	-1e10	8	-1E+10	1	-1E+10	1	-1E+10	1	-1E+10	1	-1E+10	1	-1E+10	1
4902554	102	C	12/06/2023	02:59	-133.631	47.549	0	83.90	0	7.3630	0	32.5270	0	25.423	0	83.182	0	-1e10	8	-1e10	8	-1E+10	1	-1E+10	1	-1E+10	1	-1E+10	1	-1E+10	1	-1E+10	1
4902554	102	C	12/06/2023	02:59	-133.631	47.549	0	85.10	0	7.3590	0	32.5290	0	25.425	0	84.372	0	-1e10	8	-1e10	8	-1E+10	1	-1E+10	1	-1E+10	1	-1E+10	1	-1E+10	1	-1E+10	1
4902554	102	C	12/06/2023	02:59	-133.631	47.549	0	86.00	0	7.3320	0	32.5290	0	25.429	0	85.264	0	-1e10	8	-1e10	8	-1E+10	1	-1E+10	1	-1E+10	1	-1E+10	1	-1E+10	1	-1E+10	1
4902554	102	C	12/06/2023	02:59	-133.631	47.549	0	86.90	0	7.3300	0	32.5290	0	25.429	0	86.156	0	-1e10	8	-1e10	8	-1E+10	1	-1E+10	1	-1E+10	1	-1E+10	1	-1E+10	1	-1E+10	1
4902554	102	C	12/06/2023	02:59	-133.631	47.549	0	88.10	0	7.3170	0	32.5310	0	25.433	0	87.346	0	-1e10	8	-1e10	8	-1E+10	1	-1E+10	1	-1E+10	1	-1E+10	1	-1E+10	1	-1E+10	1
4902554	102	C	12/06/2023	02:59	-133.631	47.549	0	89.10	0	7.3030	0	32.5350	0	25.438	0	88.337	0	-1e10	8	-1e10	8	-1E+10	1	-1E+10	1	-1E+10	1	-1E+10	1	-1E+10	1	-1E+10	1
4902554	102	C	12/06/2023	02:59	-133.631	47.549	0	90.00	0	7.3040	0	32.5330	0	25.436	0	89.229	0	-1e10	8	-1e10	8	-1E+10	1	-1E+10	1	-1E+10	1	-1E+10	1	-1E+10	1	-1E+10	1
4902554	102	C	12/06/2023	02:59	-133.631	47.549	0	91.00	0	7.3170	0	32.5340	0	25.435	0	90.220	0	-1e10	8	-1e10	8	-1E+10	1	-1E+10	1	-1E+10	1	-1E+10	1	-1E+10	1	-1E+10	1
4902554	102	C	12/06/2023	02:59	-133.631	47.549	0	91.90	0	7.3250	0	32.5380	0	25.437	0	91.112	0	-1e10	8	-1e10	8	-1E+10	1	-1E+10	1	-1E+10	1	-1E+10	1	-1E+10	1	-1E+10	1
4902554	102	C	12/06/2023	02:59	-133.631	47.549	0	93.10	0	7.2970	0	32.5400	0	25.443	0	92.302	0	-1e10	8	-1e10	8	-1E+10	1	-1E+10	1	-1E+10	1	-1E+10	1	-1E+10	1	-1E+10	1
4902554	102	C	12/06/2023	02:59	-133.631	47.549	0	94.00	0	7.2880	0	32.5430	0	25.446	0	93.194	0	-1e10	8	-1e10	8	-1E+10	1	-1E+10	1	-1E+10	1	-1E+10	1	-1E+10	1	-1E+10	1
4902554	102	C	12/06/2023	02:59	-133.631	47.549	0	94.90	0	7.2860	0	32.5490	0	25.451	0	94.086	0	-1e10	8	-1e10	8	-1E+10	1	-1E+10	1	-1E+10	1	-1E+10	1	-1E+10	1	-1E+10	1
4902554	102	C	12/06/2023	02:59	-133.631	47.549	0	96.00	0	7.2850	0	32.5670	0	25.466	0	95.176	0	-1e10	8	-1e10	8	-1E+10	1	-1E+10	1	-1E+10	1	-1E+10	1	-1E+10	1	-1E+10	1
4902554	102	C	12/06/2023	02:59	-133.631	47.549	0	97.10	0	7.2640	0	32.5670	0	25.468	0	96.267	0	-1e10	8	-1e10	8	-1E+10	1	-1E+10	1	-1E+10	1	-1E+10	1	-1E+10	1	-1E+10	1
4902554	102	C	12/06/2023	02:59	-133.631	47.549	0	98.30	0	7.2590	0	32.5720	0	25.473	0	97.456	0	-1e10	8	-1e10	8	-1E+10	1	-1E+10	1	-1E+10	1	-1E+10	1	-1E+10	1	-1E+10	1
4902554	102	C	12/06/2023	02:59	-133.631	47.549	0	99.10	0	7.2460	0	32.5810	0	25.482	0	98.249	0	-1e10	8	-1e10	8	-1E+10	1	-1E+10	1	-1E+10	1	-1E+10	1	-1E+10	1	-1E+10	1
4902554	102	C	12/06/2023	02:59	-133.631	47.549	0	99.90	0	7.2370	0	32.6020	0	25.500	0	99.042	0	-1e10	8	-1e10	8	-1E+10	1	-1E+10	1	-1E+10	1	-1E+10	1	-1E+10	1	-1E+10	1
4902554	102	C	12/06/2023	02:59	-133.631	47.549	0	101.10	0	7.2300	0	32.6270	0	25.520	0	100.231	0	-1e10	8	-1e10	8	-1E+10	1	-1E+10	1	-1E+10	1	-1E+10	1	-1E+10	1	-1E+10	1
4902554	102	C	12/06/2023	02:59	-133.631	47.549	0	102.10	0	7.1960	0	32.6410	0	25.536	0	101.222	0	-1e10	8	-1e10	8	-1E+10	1	-1E+10	1	-1E+10	1	-1E+10	1	-1E+10	1	-1E+10	1
4902554	102	C	12/06/2023	02:59	-133.631	47.549	0	103.00	0	7.1660	0	32.6470	0	25.545	0	102.114	0	-1e10	8	-1e10	8	-1E+10	1	-1E+10	1	-1E+10	1	-1E+10	1	-1E+10	1	-1E+10	1
4902554	102	C	12/06/2023	02:59	-133.631	47.549	0	104.20	0	7.1040	0	32.6870	0	25.585	0	103.304	0	-1e10	8	-1e10	8	-1E+10	1	-1E+10	1	-1E+10	1	-1E+10	1	-1E+10	1	-1E+10	1
4902554	102	C	12/06/2023	02:59	-133.631	47.549	0	104.90	0	7.0900	0	32.6930	0	25.591	0	103.998	0	-1e10	8	-1e10	8	-1E+10	1	-1E+10	1	-1E+10	1	-1E+10	1	-1E+10	1	-1E+10	1
4902554	102	C	12/06/2023	02:59	-133.631	47.549	0	105.90	0	7.0820	0	32.6990	0	25.597	0	104.989	0	-1e10	8	-1e10	8	-1E+10	1	-1E+10	1	-1E+10	1	-1E+10	1	-1E+10	1	-1E+10	1
4902554	102	C	12/06/2023	02:59	-133.631	47.549	0	107.10	0	7.0740	0	32.7040	0	25.602	0	106.178	0	-1e10	8	-1e10	8	-1E+10	1	-1E+10	1	-1E+10	1	-1E+10	1	-1E+10	1	-1E+10	1
4902554	102	C	12/06/2023	02:59	-133.631	47.549	0	108.20	0	7.0700	0	32.7090	0	25.607	0	107.268	0	-1e10	8	-1e10	8	-1E+10	1	-1E+10	1	-1E+10	1	-1E+10	1	-1E+10	1	-1E+10	1
4902554	102	C	12/06/2023	02:59	-133.631	47.549	0	109.10	0	7.0620	0	32.7160	0	25.613	0	108.160	0	-1e10	8	-1e10	8	-1E+10	1	-1E+10	1	-1E+10	1	-1E+10	1	-1E+10	1	-1E+10	1
4902554	102	C	12/06/2023	02:59	-133.631	47.549	0	110.00	0	7.0490	0	32.7280	0	25.624	0	109.052	0	-1e10	8	-1e10	8	-1E+10	1	-1E+10	1	-1E+10	1	-1E+10	1	-1E+10	1	-1E+10	1
4902554	102	C	12/06/2023	02:59	-133.631	47.549	0	111.10	0	7.0350	0	32.7440	0	25.639	0	110.143	0	-1e10	8	-1e10	8	-1E+10	1	-1E+10	1	-1E+10	1	-1E+10	1	-1E+10	1	-1E+10	1
4902554	102	C	12/06/2023	02:59	-133.631	47.549	0	112.30	0	6.9850	0	32.7850	0	25.678	0	111.332	0	-1e10	8	-1e10	8	-1E+10	1	-1E+10	1	-1E+10	1	-1E+10	1	-1E+10	1	-1E+10	1
4902554	102	C	12/06/2023	02:59	-133.631	47.549	0	113.10	0	6.9530	0	32.8040	0	25.697	0	112.125	0	-1e10	8	-1e10	8	-1E+10	1	-1E+10	1	-1E+10	1	-1E+10	1	-1E+10	1	-1E+10	1
4902554	102	C	12/06/2023	02:59	-133.631	47.549	0	113.90	0	6.9140	0	32.8300	0	25.723	0	112.918	0	-1e10	8	-1e10	8	-1E+10	1	-1E+10	1	-1E+10	1	-1E+10	1	-1E+10	1	-1E+10	1
4902554	102	C	12/06/2023	02:59	-133.631	47.549	0	114.80	0	6.8250	0	32.8960	0	25.787	0	113.810	0	-1e10	8	-1e10	8	-1E+10	1	-1E+10	1	-1E+10	1	-1E+10	1	-1E+10	1	-1E+10	1
4902554	102	C	12/06/2023	02:59	-133.631	47.549	0	115.90	0	6.7970	0	32.9160	0	25.806	0	114.900	0	-1e10	8	-1e10	8	-1E+10	1	-1E+10	1	-1E+10	1	-1E+10	1	-1E+10	1	-1E+10	1
4902554	102	C	12/06/2023	02:59	-133.631	47.549	0	117.10	0	6.7640	0	32.9370	0	25.827	0	116.089	0	-1e10	8	-1e10	8	-1E+10	1	-1E+10	1	-1E+10	1	-1E+10	1	-1E+10	1	-1E+10	1
4902554	102	C	12/06/2023	02:59	-133.631	47.549	0	118.00	0	6.7310	0	32.9640	0	25.853	0	116.981	0	-1e10	8	-1e10	8	-1E+10	1	-1E+10	1	-1E+10	1	-1E+10	1	-1E+10	1	-1E+10	1
4902554	102	C	12/06/2023	02:59	-133.631	47.549	0	118.90	0	6.7110	0	32.9720	0	25.861	0	117.873	0	-1e10	8	-1e10	8	-1E+10	1	-1E+10	1	-1E+10	1	-1E+10	1	-1E+10	1	-1E+10	1
4902554	102	C	12/06/2023	02:59	-133.631	47.549	0	120.10	0	6.6560	0	33.0030	0	25.893	0	119.062	0	-1e10	8	-1e10	8	-1E+10	1	-1E+10	1	-1E+10	1	-1E+10	1	-1E+10	1	-1E+10	1
4902554	102	C	12/06/2023	02:59	-133.631	47.549	0	121.00	0	6.6350	0	33.0170	0	25.907	0	119.954	0	-1e10	8	-1e10	8	-1E+10	1	-1E+10	1	-1E+10	1	-1E+10	1	-1E+10	1	-1E+10	1
4902554	102	C	12/06/2023	02:59	-133.631	47.549	0	121.90	0	6.5420	0	33.0700	0	25.961	0	120.846	0	-1e10	8	-1e10	8	-1E+10	1	-1E+10	1	-1E+10	1	-1E+10	1	-1E+10	1	-1E+10	1
4902554	102	C	12/06/2023	02:59	-133.631	47.549	0	122.90	0	6.4910	0	33.1050	0	25.995	0	121.837	0	-1e10	8	-1e10	8	-1E+10	1	-1E+10	1	-1E+10	1	-1E+10	1	-1E+10	1	-1E+10	1
4902554	102	C	12/06/2023	02:59	-133.631	47.549	0	123.80	0	6.4400	0	33.1430	0	26.031	0	122.729	0	-1e10	8	-1e10	8	-1E+10	1	-1E+10	1	-1E+10	1	-1E+10	1	-1E+10	1	-1E+10	1
4902554	102	C	12/06/2023	02:59	-133.631	47.549	0	124.90	0	6.3850	0	33.1850	0	26.072	0	123.820	0	-1e10	8	-1e10	8	-1E+10	1	-1E+10	1	-1E+10	1	-1E+10	1	-1E+10	1	-1E+10	1
4902554	102	C	12/06/2023	02:59	-133.631	47.549	0	125.80	0	6.3790	0	33.1890	0	26.076	0	124.712	0	-1e10	8	-1e10	8	-1E+10	1	-1E+10	1	-1E+10	1	-1E+10	1	-1E+10	1	-1E+10	1
4902554	102	C	12/06/2023	02:59	-133.631	47.549	0	126.90	0	6.3510	0	33.2170	0	26.101	0	125.802	0	-1e10	8	-1e10	8	-1E+10	1	-1E+10	1	-1E+10	1	-1E+10	1	-1E+10	1	-1E+10	1
4902554	102	C	12/06/2023	02:59	-133.631	47.549	0	127.80	0	6.3450	0	33.2230	0	26.107	0	126.694	0	-1e10	8	-1e10	8	-1E+10	1	-1E+10	1	-1E+10	1	-1E+10	1	-1E+10	1	-1E+10	1
4902554	102	C	12/06/2023	02:59	-133.631	47.549	0	128.90	0	6.3200	0	33.2480	0	26.130	0	127.784	0	-1e10	8	-1e10	8	-1E+10	1	-1E+10	1	-1E+10	1	-1E+10	1	-1E+10	1	-1E+10	1
4902554	102	C	12/06/2023	02:59	-133.631	47.549	0	129.90	0	6.2890	0	33.2920	0	26.168	0	128.775	0	-1e10	8	-1e10	8	-1E+10	1	-1E+10	1	-1E+10	1	-1E+10	1	-1E+10	1	-1E+10	1
4902554	102	C	12/06/2023	02:59	-133.631	47.549	0	131.00	0	6.2680	0	33.3280	0	26.199	0	129.865	0	-1e10	8	-1e10	8	-1E+10	1	-1E+10	1	-1E+10	1	-1E+10	1	-1E+10	1	-1E+10	1
4902554	102	C	12/06/2023	02:59	-133.631	47.549	0	131.80	0	6.2570	0	33.3410	0	26.211	0	130.658	0	-1e10	8	-1e10	8	-1E+10	1	-1E+10	1	-1E+10	1	-1E+10	1	-1E+10	1	-1E+10	1
4902554	102	C	12/06/2023	02:59	-133.631	47.549	0	132.90	0	6.2210	0	33.3680	0	26.237	0	131.748	0	-1e10	8	-1e10	8	-1E+10	1	-1E+10	1	-1E+10	1	-1E+10	1	-1E+10	1	-1E+10	1
4902554	102	C	12/06/2023	02:59	-133.631	47.549	0	134.00	0	6.1990	0	33.3770	0	26.247	0	132.838	0	-1e10	8	-1e10	8	-1E+10	1	-1E+10	1	-1E+10	1	-1E+10	1	-1E+10	1	-1E+10	1
4902554	102	C	12/06/2023	02:59	-133.631	47.549	0	134.70	0	6.1950	0	33.3820	0	26.251	0	133.532	0	-1e10	8	-1e10	8	-1E+10	1	-1E+10	1	-1E+10	1	-1E+10	1	-1E+10	1	-1E+10	1
4902554	102	C	12/06/2023	02:59	-133.631	47.549	0	135.90	0	6.1880	0	33.4060	0	26.271	0	134.721	0	-1e10	8	-1e10	8	-1E+10	1	-1E+10	1	-1E+10	1	-1E+10	1	-1E+10	1	-1E+10	1
4902554	102	C	12/06/2023	02:59	-133.631	47.549	0	137.20	0	6.1860	0	33.4230	0	26.285	0	136.009	0	-1e10	8	-1e10	8	-1E+10	1	-1E+10	1	-1E+10	1	-1E+10	1	-1E+10	1	-1E+10	1
4902554	102	C	12/06/2023	02:59	-133.631	47.549	0	138.00	0	6.1910	0	33.4260	0	26.287	0	136.802	0	-1e10	8	-1e10	8	-1E+10	1	-1E+10	1	-1E+10	1	-1E+10	1	-1E+10	1	-1E+10	1
4902554	102	C	12/06/2023	02:59	-133.631	47.549	0	138.90	0	6.2120	0	33.4430	0	26.297	0	137.694	0	-1e10	8	-1e10	8	-1E+10	1	-1E+10	1	-1E+10	1	-1E+10	1	-1E+10	1	-1E+10	1
4902554	102	C	12/06/2023	02:59	-133.631	47.549	0	139.80	0	6.2260	0	33.4520	0	26.303	0	138.586	0	-1e10	8	-1e10	8	-1E+10	1	-1E+10	1	-1E+10	1	-1E+10	1	-1E+10	1	-1E+10	1
4902554	102	C	12/06/2023	02:59	-133.631	47.549	0	140.70	0	6.2240	0	33.4640	0	26.313	0	139.478	0	-1e10	8	-1e10	8	-1E+10	1	-1E+10	1	-1E+10	1	-1E+10	1	-1E+10	1	-1E+10	1
4902554	102	C	12/06/2023	02:59	-133.631	47.549	0	141.60	0	6.1930	0	33.4700	0	26.321	0	140.369	0	-1e10	8	-1e10	8	-1E+10	1	-1E+10	1	-1E+10	1	-1E+10	1	-1E+10	1	-1E+10	1
4902554	102	C	12/06/2023	02:59	-133.631	47.549	0	142.90	0	6.1980	0	33.4710	0	26.321	0	141.658	0	-1e10	8	-1e10	8	-1E+10	1	-1E+10	1	-1E+10	1	-1E+10	1	-1E+10	1	-1E+10	1
4902554	102	C	12/06/2023	02:59	-133.631	47.549	0	144.30	0	6.1640	0	33.4790	0	26.332	0	143.045	0	-1e10	8	-1e10	8	-1E+10	1	-1E+10	1	-1E+10	1	-1E+10	1	-1E+10	1	-1E+10	1
4902554	102	C	12/06/2023	02:59	-133.631	47.549	0	145.20	0	6.1590	0	33.4960	0	26.346	0	143.937	0	-1e10	8	-1e10	8	-1E+10	1	-1E+10	1	-1E+10	1	-1E+10	1	-1E+10	1	-1E+10	1
4902554	102	C	12/06/2023	02:59	-133.631	47.549	0	146.20	0	6.2000	0	33.5080	0	26.350	0	144.928	0	-1e10	8	-1e10	8	-1E+10	1	-1E+10	1	-1E+10	1	-1E+10	1	-1E+10	1	-1E+10	1
4902554	102	C	12/06/2023	02:59	-133.631	47.549	0	147.10	0	6.2140	0	33.5190	0	26.357	0	145.820	0	-1e10	8	-1e10	8	-1E+10	1	-1E+10	1	-1E+10	1	-1E+10	1	-1E+10	1	-1E+10	1
4902554	102	C	12/06/2023	02:59	-133.631	47.549	0	148.00	0	6.2070	0	33.5160	0	26.356	0	146.712	0	-1e10	8	-1e10	8	-1E+10	1	-1E+10	1	-1E+10	1	-1E+10	1	-1E+10	1	-1E+10	1
4902554	102	C	12/06/2023	02:59	-133.631	47.549	0	149.00	0	6.2290	0	33.5270	0	26.362	0	147.702	0	-1e10	8	-1e10	8	-1E+10	1	-1E+10	1	-1E+10	1	-1E+10	1	-1E+10	1	-1E+10	1
4902554	102	C	12/06/2023	02:59	-133.631	47.549	0	149.90	0	6.1870	0	33.5340	0	26.373	0	148.594	0	-1e10	8	-1e10	8	-1E+10	1	-1E+10	1	-1E+10	1	-1E+10	1	-1E+10	1	-1E+10	1
4902554	102	C	12/06/2023	02:59	-133.631	47.549	0	150.90	0	6.2170	0	33.5440	0	26.377	0	149.585	0	-1e10	8	-1e10	8	-1E+10	1	-1E+10	1	-1E+10	1	-1E+10	1	-1E+10	1	-1E+10	1
4902554	102	C	12/06/2023	02:59	-133.631	47.549	0	151.90	0	6.2150	0	33.5450	0	26.378	0	150.576	0	-1e10	8	-1e10	8	-1E+10	1	-1E+10	1	-1E+10	1	-1E+10	1	-1E+10	1	-1E+10	1
4902554	102	C	12/06/2023	02:59	-133.631	47.549	0	153.00	0	6.2090	0	33.5630	0	26.393	0	151.666	0	-1e10	8	-1e10	8	-1E+10	1	-1E+10	1	-1E+10	1	-1E+10	1	-1E+10	1	-1E+10	1
4902554	102	C	12/06/2023	02:59	-133.631	47.549	0	154.00	0	6.2030	0	33.5680	0	26.397	0	152.657	0	-1e10	8	-1e10	8	-1E+10	1	-1E+10	1	-1E+10	1	-1E+10	1	-1E+10	1	-1E+10	1
4902554	102	C	12/06/2023	02:59	-133.631	47.549	0	155.10	0	6.2040	0	33.5790	0	26.406	0	153.747	0	-1e10	8	-1e10	8	-1E+10	1	-1E+10	1	-1E+10	1	-1E+10	1	-1E+10	1	-1E+10	1
4902554	102	C	12/06/2023	02:59	-133.631	47.549	0	156.10	0	6.1970	0	33.5790	0	26.407	0	154.738	0	-1e10	8	-1e10	8	-1E+10	1	-1E+10	1	-1E+10	1	-1E+10	1	-1E+10	1	-1E+10	1
4902554	102	C	12/06/2023	02:59	-133.631	47.549	0	157.10	0	6.1940	0	33.5780	0	26.406	0	155.729	0	-1e10	8	-1e10	8	-1E+10	1	-1E+10	1	-1E+10	1	-1E+10	1	-1E+10	1	-1E+10	1
4902554	102	C	12/06/2023	02:59	-133.631	47.549	0	158.10	0	6.1930	0	33.5880	0	26.415	0	156.720	0	-1e10	8	-1e10	8	-1E+10	1	-1E+10	1	-1E+10	1	-1E+10	1	-1E+10	1	-1E+10	1
4902554	102	C	12/06/2023	02:59	-133.631	47.549	0	159.20	0	6.1920	0	33.5930	0	26.419	0	157.810	0	-1e10	8	-1e10	8	-1E+10	1	-1E+10	1	-1E+10	1	-1E+10	1	-1E+10	1	-1E+10	1
4902554	102	C	12/06/2023	02:59	-133.631	47.549	0	160.20	0	6.1790	0	33.6010	0	26.427	0	158.801	0	-1e10	8	-1e10	8	-1E+10	1	-1E+10	1	-1E+10	1	-1E+10	1	-1E+10	1	-1E+10	1
4902554	102	C	12/06/2023	02:59	-133.631	47.549	0	161.20	0	6.1820	0	33.6050	0	26.429	0	159.792	0	-1e10	8	-1e10	8	-1E+10	1	-1E+10	1	-1E+10	1	-1E+10	1	-1E+10	1	-1E+10	1
4902554	102	C	12/06/2023	02:59	-133.631	47.549	0	162.20	0	6.2010	0	33.6090	0	26.430	0	160.782	0	-1e10	8	-1e10	8	-1E+10	1	-1E+10	1	-1E+10	1	-1E+10	1	-1E+10	1	-1E+10	1
4902554	102	C	12/06/2023	02:59	-133.631	47.549	0	163.20	0	6.1540	0	33.6190	0	26.444	0	161.773	0	-1e10	8	-1e10	8	-1E+10	1	-1E+10	1	-1E+10	1	-1E+10	1	-1E+10	1	-1E+10	1
4902554	102	C	12/06/2023	02:59	-133.631	47.549	0	164.10	0	6.1510	0	33.6210	0	26.446	0	162.665	0	-1e10	8	-1e10	8	-1E+10	1	-1E+10	1	-1E+10	1	-1E+10	1	-1E+10	1	-1E+10	1
4902554	102	C	12/06/2023	02:59	-133.631	47.549	0	164.90	0	6.1470	0	33.6260	0	26.450	0	163.458	0	-1e10	8	-1e10	8	-1E+10	1	-1E+10	1	-1E+10	1	-1E+10	1	-1E+10	1	-1E+10	1
4902554	102	C	12/06/2023	02:59	-133.631	47.549	0	166.00	0	6.1470	0	33.6270	0	26.451	0	164.548	0	-1e10	8	-1e10	8	-1E+10	1	-1E+10	1	-1E+10	1	-1E+10	1	-1E+10	1	-1E+10	1
4902554	102	C	12/06/2023	02:59	-133.631	47.549	0	167.20	0	6.1470	0	33.6290	0	26.453	0	165.737	0	-1e10	8	-1e10	8	-1E+10	1	-1E+10	1	-1E+10	1	-1E+10	1	-1E+10	1	-1E+10	1
4902554	102	C	12/06/2023	02:59	-133.631	47.549	0	167.90	0	6.1250	0	33.6340	0	26.460	0	166.430	0	-1e10	8	-1e10	8	-1E+10	1	-1E+10	1	-1E+10	1	-1E+10	1	-1E+10	1	-1E+10	1
4902554	102	C	12/06/2023	02:59	-133.631	47.549	0	169.00	0	6.1150	0	33.6400	0	26.466	0	167.520	0	-1e10	8	-1e10	8	-1E+10	1	-1E+10	1	-1E+10	1	-1E+10	1	-1E+10	1	-1E+10	1
4902554	102	C	12/06/2023	02:59	-133.631	47.549	0	170.20	0	6.1230	0	33.6460	0	26.469	0	168.709	0	-1e10	8	-1e10	8	-1E+10	1	-1E+10	1	-1E+10	1	-1E+10	1	-1E+10	1	-1E+10	1
4902554	102	C	12/06/2023	02:59	-133.631	47.549	0	171.00	0	6.1130	0	33.6530	0	26.476	0	169.502	0	-1e10	8	-1e10	8	-1E+10	1	-1E+10	1	-1E+10	1	-1E+10	1	-1E+10	1	-1E+10	1
4902554	102	C	12/06/2023	02:59	-133.631	47.549	0	171.70	0	6.0950	0	33.6560	0	26.481	0	170.195	0	-1e10	8	-1e10	8	-1E+10	1	-1E+10	1	-1E+10	1	-1E+10	1	-1E+10	1	-1E+10	1
4902554	102	C	12/06/2023	02:59	-133.631	47.549	0	172.90	0	6.0870	0	33.6600	0	26.485	0	171.384	0	-1e10	8	-1e10	8	-1E+10	1	-1E+10	1	-1E+10	1	-1E+10	1	-1E+10	1	-1E+10	1
4902554	102	C	12/06/2023	02:59	-133.631	47.549	0	174.10	0	6.0730	0	33.6670	0	26.492	0	172.573	0	-1e10	8	-1e10	8	-1E+10	1	-1E+10	1	-1E+10	1	-1E+10	1	-1E+10	1	-1E+10	1
4902554	102	C	12/06/2023	02:59	-133.631	47.549	0	174.80	0	6.0620	0	33.6720	0	26.498	0	173.267	0	-1e10	8	-1e10	8	-1E+10	1	-1E+10	1	-1E+10	1	-1E+10	1	-1E+10	1	-1E+10	1
4902554	102	C	12/06/2023	02:59	-133.631	47.549	0	176.00	0	6.0600	0	33.6760	0	26.501	0	174.456	0	-1e10	8	-1e10	8	-1E+10	1	-1E+10	1	-1E+10	1	-1E+10	1	-1E+10	1	-1E+10	1
4902554	102	C	12/06/2023	02:59	-133.631	47.549	0	177.30	0	6.0640	0	33.6820	0	26.505	0	175.744	0	-1e10	8	-1e10	8	-1E+10	1	-1E+10	1	-1E+10	1	-1E+10	1	-1E+10	1	-1E+10	1
4902554	102	C	12/06/2023	02:59	-133.631	47.549	0	178.10	0	6.0650	0	33.6830	0	26.506	0	176.537	0	-1e10	8	-1e10	8	-1E+10	1	-1E+10	1	-1E+10	1	-1E+10	1	-1E+10	1	-1E+10	1
4902554	102	C	12/06/2023	02:59	-133.631	47.549	0	178.90	0	6.0680	0	33.6860	0	26.508	0	177.329	0	-1e10	8	-1e10	8	-1E+10	1	-1E+10	1	-1E+10	1	-1E+10	1	-1E+10	1	-1E+10	1
4902554	102	C	12/06/2023	02:59	-133.631	47.549	0	179.70	0	6.0640	0	33.6880	0	26.510	0	178.122	0	-1e10	8	-1e10	8	-1E+10	1	-1E+10	1	-1E+10	1	-1E+10	1	-1E+10	1	-1E+10	1
4902554	102	C	12/06/2023	02:59	-133.631	47.549	0	180.90	0	6.0620	0	33.6890	0	26.511	0	179.311	0	-1e10	8	-1e10	8	-1E+10	1	-1E+10	1	-1E+10	1	-1E+10	1	-1E+10	1	-1E+10	1
4902554	102	C	12/06/2023	02:59	-133.631	47.549	0	182.10	0	6.0660	0	33.6910	0	26.512	0	180.500	0	-1e10	8	-1e10	8	-1E+10	1	-1E+10	1	-1E+10	1	-1E+10	1	-1E+10	1	-1E+10	1
4902554	102	C	12/06/2023	02:59	-133.631	47.549	0	183.00	0	6.0710	0	33.7020	0	26.520	0	181.391	0	-1e10	8	-1e10	8	-1E+10	1	-1E+10	1	-1E+10	1	-1E+10	1	-1E+10	1	-1E+10	1
4902554	102	C	12/06/2023	02:59	-133.631	47.549	0	183.80	0	5.9890	0	33.6980	0	26.527	0	182.184	0	-1e10	8	-1e10	8	-1E+10	1	-1E+10	1	-1E+10	1	-1E+10	1	-1E+10	1	-1E+10	1
4902554	102	C	12/06/2023	02:59	-133.631	47.549	0	185.00	0	5.9720	0	33.7060	0	26.536	0	183.373	0	-1e10	8	-1e10	8	-1E+10	1	-1E+10	1	-1E+10	1	-1E+10	1	-1E+10	1	-1E+10	1
4902554	102	C	12/06/2023	02:59	-133.631	47.549	0	186.30	0	6.0530	0	33.7260	0	26.541	0	184.661	0	-1e10	8	-1e10	8	-1E+10	1	-1E+10	1	-1E+10	1	-1E+10	1	-1E+10	1	-1E+10	1
4902554	102	C	12/06/2023	02:59	-133.631	47.549	0	187.10	0	6.0520	0	33.7240	0	26.540	0	185.454	0	-1e10	8	-1e10	8	-1E+10	1	-1E+10	1	-1E+10	1	-1E+10	1	-1E+10	1	-1E+10	1
4902554	102	C	12/06/2023	02:59	-133.631	47.549	0	187.90	0	6.0390	0	33.7260	0	26.543	0	186.246	0	-1e10	8	-1e10	8	-1E+10	1	-1E+10	1	-1E+10	1	-1E+10	1	-1E+10	1	-1E+10	1
4902554	102	C	12/06/2023	02:59	-133.631	47.549	0	188.70	0	6.0190	0	33.7240	0	26.544	0	187.039	0	-1e10	8	-1e10	8	-1E+10	1	-1E+10	1	-1E+10	1	-1E+10	1	-1E+10	1	-1E+10	1
4902554	102	C	12/06/2023	02:59	-133.631	47.549	0	189.90	0	5.9410	0	33.7200	0	26.551	0	188.228	0	-1e10	8	-1e10	8	-1E+10	1	-1E+10	1	-1E+10	1	-1E+10	1	-1E+10	1	-1E+10	1
4902554	102	C	12/06/2023	02:59	-133.631	47.549	0	191.20	0	5.9100	0	33.7170	0	26.552	0	189.516	0	-1e10	8	-1e10	8	-1E+10	1	-1E+10	1	-1E+10	1	-1E+10	1	-1E+10	1	-1E+10	1
4902554	102	C	12/06/2023	02:59	-133.631	47.549	0	192.00	0	5.9070	0	33.7220	0	26.557	0	190.308	0	-1e10	8	-1e10	8	-1E+10	1	-1E+10	1	-1E+10	1	-1E+10	1	-1E+10	1	-1E+10	1
4902554	102	C	12/06/2023	02:59	-133.631	47.549	0	192.90	0	5.8980	0	33.7220	0	26.558	0	191.200	0	-1e10	8	-1e10	8	-1E+10	1	-1E+10	1	-1E+10	1	-1E+10	1	-1E+10	1	-1E+10	1
4902554	102	C	12/06/2023	02:59	-133.631	47.549	0	193.70	0	5.8710	0	33.7210	0	26.560	0	191.992	0	-1e10	8	-1e10	8	-1E+10	1	-1E+10	1	-1E+10	1	-1E+10	1	-1E+10	1	-1E+10	1
4902554	102	C	12/06/2023	02:59	-133.631	47.549	0	195.00	0	5.8690	0	33.7270	0	26.565	0	193.280	0	-1e10	8	-1e10	8	-1E+10	1	-1E+10	1	-1E+10	1	-1E+10	1	-1E+10	1	-1E+10	1
4902554	102	C	12/06/2023	02:59	-133.631	47.549	0	196.30	0	5.8660	0	33.7340	0	26.571	0	194.568	0	-1e10	8	-1e10	8	-1E+10	1	-1E+10	1	-1E+10	1	-1E+10	1	-1E+10	1	-1E+10	1
4902554	102	C	12/06/2023	02:59	-133.631	47.549	0	197.10	0	5.8470	0	33.7330	0	26.573	0	195.361	0	-1e10	8	-1e10	8	-1E+10	1	-1E+10	1	-1E+10	1	-1E+10	1	-1E+10	1	-1E+10	1
4902554	102	C	12/06/2023	02:59	-133.631	47.549	0	198.00	0	5.8430	0	33.7330	0	26.573	0	196.253	0	-1e10	8	-1e10	8	-1E+10	1	-1E+10	1	-1E+10	1	-1E+10	1	-1E+10	1	-1E+10	1
4902554	102	C	12/06/2023	02:59	-133.631	47.549	0	198.80	0	5.8340	0	33.7340	0	26.575	0	197.045	0	-1e10	8	-1e10	8	-1E+10	1	-1E+10	1	-1E+10	1	-1E+10	1	-1E+10	1	-1E+10	1
4902554	102	C	12/06/2023	02:59	-133.631	47.549	0	200.00	0	5.8320	0	33.7350	0	26.576	0	198.234	0	-1e10	8	-1e10	8	-1E+10	1	-1E+10	1	-1E+10	1	-1E+10	1	-1E+10	1	-1E+10	1
4902554	102	C	12/06/2023	02:59	-133.631	47.549	0	201.30	0	5.8310	0	33.7370	0	26.578	0	199.522	0	-1e10	8	-1e10	8	-1E+10	1	-1E+10	1	-1E+10	1	-1E+10	1	-1E+10	1	-1E+10	1
4902554	102	C	12/06/2023	02:59	-133.631	47.549	0	202.10	0	5.8290	0	33.7380	0	26.579	0	200.314	0	-1e10	8	-1e10	8	-1E+10	1	-1E+10	1	-1E+10	1	-1E+10	1	-1E+10	1	-1E+10	1
4902554	102	C	12/06/2023	02:59	-133.631	47.549	0	202.90	0	5.8270	0	33.7390	0	26.580	0	201.107	0	-1e10	8	-1e10	8	-1E+10	1	-1E+10	1	-1E+10	1	-1E+10	1	-1E+10	1	-1E+10	1
4902554	102	C	12/06/2023	02:59	-133.631	47.549	0	203.70	0	5.8260	0	33.7420	0	26.582	0	201.899	0	-1e10	8	-1e10	8	-1E+10	1	-1E+10	1	-1E+10	1	-1E+10	1	-1E+10	1	-1E+10	1
4902554	102	C	12/06/2023	02:59	-133.631	47.549	0	204.90	0	5.8260	0	33.7470	0	26.586	0	203.088	0	-1e10	8	-1e10	8	-1E+10	1	-1E+10	1	-1E+10	1	-1E+10	1	-1E+10	1	-1E+10	1
4902554	102	C	12/06/2023	02:59	-133.631	47.549	0	206.10	0	5.8210	0	33.7500	0	26.589	0	204.277	0	-1e10	8	-1e10	8	-1E+10	1	-1E+10	1	-1E+10	1	-1E+10	1	-1E+10	1	-1E+10	1
4902554	102	C	12/06/2023	02:59	-133.631	47.549	0	207.00	0	5.8220	0	33.7510	0	26.590	0	205.169	0	-1e10	8	-1e10	8	-1E+10	1	-1E+10	1	-1E+10	1	-1E+10	1	-1E+10	1	-1E+10	1
4902554	102	C	12/06/2023	02:59	-133.631	47.549	0	207.80	0	5.8280	0	33.7540	0	26.592	0	205.961	0	-1e10	8	-1e10	8	-1E+10	1	-1E+10	1	-1E+10	1	-1E+10	1	-1E+10	1	-1E+10	1
4902554	102	C	12/06/2023	02:59	-133.631	47.549	0	209.00	0	5.8400	0	33.7580	0	26.593	0	207.150	0	-1e10	8	-1e10	8	-1E+10	1	-1E+10	1	-1E+10	1	-1E+10	1	-1E+10	1	-1E+10	1
4902554	102	C	12/06/2023	02:59	-133.631	47.549	0	210.20	0	5.8590	0	33.7690	0	26.600	0	208.339	0	-1e10	8	-1e10	8	-1E+10	1	-1E+10	1	-1E+10	1	-1E+10	1	-1E+10	1	-1E+10	1
4902554	102	C	12/06/2023	02:59	-133.631	47.549	0	211.10	0	5.8530	0	33.7690	0	26.601	0	209.230	0	-1e10	8	-1e10	8	-1E+10	1	-1E+10	1	-1E+10	1	-1E+10	1	-1E+10	1	-1E+10	1
4902554	102	C	12/06/2023	02:59	-133.631	47.549	0	211.90	0	5.8740	0	33.7710	0	26.600	0	210.023	0	-1e10	8	-1e10	8	-1E+10	1	-1E+10	1	-1E+10	1	-1E+10	1	-1E+10	1	-1E+10	1
4902554	102	C	12/06/2023	02:59	-133.631	47.549	0	212.70	0	5.7810	0	33.7680	0	26.609	0	210.815	0	-1e10	8	-1e10	8	-1E+10	1	-1E+10	1	-1E+10	1	-1E+10	1	-1E+10	1	-1E+10	1
4902554	102	C	12/06/2023	02:59	-133.631	47.549	0	214.00	0	5.7720	0	33.7740	0	26.614	0	212.103	0	-1e10	8	-1e10	8	-1E+10	1	-1E+10	1	-1E+10	1	-1E+10	1	-1E+10	1	-1E+10	1
4902554	102	C	12/06/2023	02:59	-133.631	47.549	0	215.20	0	5.7460	0	33.7680	0	26.613	0	213.292	0	-1e10	8	-1e10	8	-1E+10	1	-1E+10	1	-1E+10	1	-1E+10	1	-1E+10	1	-1E+10	1
4902554	102	C	12/06/2023	02:59	-133.631	47.549	0	216.10	0	5.7910	0	33.7790	0	26.616	0	214.183	0	-1e10	8	-1e10	8	-1E+10	1	-1E+10	1	-1E+10	1	-1E+10	1	-1E+10	1	-1E+10	1
4902554	102	C	12/06/2023	02:59	-133.631	47.549	0	216.90	0	5.8440	0	33.7870	0	26.616	0	214.976	0	-1e10	8	-1e10	8	-1E+10	1	-1E+10	1	-1E+10	1	-1E+10	1	-1E+10	1	-1E+10	1
4902554	102	C	12/06/2023	02:59	-133.631	47.549	0	217.70	0	5.8250	0	33.7870	0	26.618	0	215.768	0	-1e10	8	-1e10	8	-1E+10	1	-1E+10	1	-1E+10	1	-1E+10	1	-1E+10	1	-1E+10	1
4902554	102	C	12/06/2023	02:59	-133.631	47.549	0	219.00	0	5.7990	0	33.7830	0	26.618	0	217.056	0	-1e10	8	-1e10	8	-1E+10	1	-1E+10	1	-1E+10	1	-1E+10	1	-1E+10	1	-1E+10	1
4902554	102	C	12/06/2023	02:59	-133.631	47.549	0	220.20	0	5.7990	0	33.7850	0	26.620	0	218.245	0	-1e10	8	-1e10	8	-1E+10	1	-1E+10	1	-1E+10	1	-1E+10	1	-1E+10	1	-1E+10	1
4902554	102	C	12/06/2023	02:59	-133.631	47.549	0	221.00	0	5.8090	0	33.7860	0	26.619	0	219.037	0	-1e10	8	-1e10	8	-1E+10	1	-1E+10	1	-1E+10	1	-1E+10	1	-1E+10	1	-1E+10	1
4902554	102	C	12/06/2023	02:59	-133.631	47.549	0	221.90	0	5.7120	0	33.7820	0	26.628	0	219.929	0	-1e10	8	-1e10	8	-1E+10	1	-1E+10	1	-1E+10	1	-1E+10	1	-1E+10	1	-1E+10	1
4902554	102	C	12/06/2023	02:59	-133.631	47.549	0	222.70	0	5.7140	0	33.7840	0	26.630	0	220.721	0	-1e10	8	-1e10	8	-1E+10	1	-1E+10	1	-1E+10	1	-1E+10	1	-1E+10	1	-1E+10	1
4902554	102	C	12/06/2023	02:59	-133.631	47.549	0	223.90	0	5.7130	0	33.7850	0	26.630	0	221.910	0	-1e10	8	-1e10	8	-1E+10	1	-1E+10	1	-1E+10	1	-1E+10	1	-1E+10	1	-1E+10	1
4902554	102	C	12/06/2023	02:59	-133.631	47.549	0	225.20	0	5.7230	0	33.7870	0	26.631	0	223.198	0	-1e10	8	-1e10	8	-1E+10	1	-1E+10	1	-1E+10	1	-1E+10	1	-1E+10	1	-1E+10	1
4902554	102	C	12/06/2023	02:59	-133.631	47.549	0	226.00	0	5.7010	0	33.7900	0	26.636	0	223.990	0	-1e10	8	-1e10	8	-1E+10	1	-1E+10	1	-1E+10	1	-1E+10	1	-1E+10	1	-1E+10	1
4902554	102	C	12/06/2023	02:59	-133.631	47.549	0	226.90	0	5.6830	0	33.7890	0	26.637	0	224.882	0	-1e10	8	-1e10	8	-1E+10	1	-1E+10	1	-1E+10	1	-1E+10	1	-1E+10	1	-1E+10	1
4902554	102	C	12/06/2023	02:59	-133.631	47.549	0	227.70	0	5.6620	0	33.7870	0	26.638	0	225.674	0	-1e10	8	-1e10	8	-1E+10	1	-1E+10	1	-1E+10	1	-1E+10	1	-1E+10	1	-1E+10	1
4902554	102	C	12/06/2023	02:59	-133.631	47.549	0	229.00	0	5.6270	0	33.7840	0	26.640	0	226.962	0	-1e10	8	-1e10	8	-1E+10	1	-1E+10	1	-1E+10	1	-1E+10	1	-1E+10	1	-1E+10	1
4902554	102	C	12/06/2023	02:59	-133.631	47.549	0	230.30	0	5.6030	0	33.7830	0	26.642	0	228.250	0	-1e10	8	-1e10	8	-1E+10	1	-1E+10	1	-1E+10	1	-1E+10	1	-1E+10	1	-1E+10	1
4902554	102	C	12/06/2023	02:59	-133.631	47.549	0	231.20	0	5.5890	0	33.7830	0	26.644	0	229.141	0	-1e10	8	-1e10	8	-1E+10	1	-1E+10	1	-1E+10	1	-1E+10	1	-1E+10	1	-1E+10	1
4902554	102	C	12/06/2023	02:59	-133.631	47.549	0	232.00	0	5.5650	0	33.7820	0	26.646	0	229.934	0	-1e10	8	-1e10	8	-1E+10	1	-1E+10	1	-1E+10	1	-1E+10	1	-1E+10	1	-1E+10	1
4902554	102	C	12/06/2023	02:59	-133.631	47.549	0	232.90	0	5.5420	0	33.7800	0	26.647	0	230.825	0	-1e10	8	-1e10	8	-1E+10	1	-1E+10	1	-1E+10	1	-1E+10	1	-1E+10	1	-1E+10	1
4902554	102	C	12/06/2023	02:59	-133.631	47.549	0	233.70	0	5.5110	0	33.7780	0	26.649	0	231.617	0	-1e10	8	-1e10	8	-1E+10	1	-1E+10	1	-1E+10	1	-1E+10	1	-1E+10	1	-1E+10	1
4902554	102	C	12/06/2023	02:59	-133.631	47.549	0	234.60	0	5.4950	0	33.7760	0	26.650	0	232.509	0	-1e10	8	-1e10	8	-1E+10	1	-1E+10	1	-1E+10	1	-1E+10	1	-1E+10	1	-1E+10	1
4902554	102	C	12/06/2023	02:59	-133.631	47.549	0	235.90	0	5.4660	0	33.7740	0	26.651	0	233.797	0	-1e10	8	-1e10	8	-1E+10	1	-1E+10	1	-1E+10	1	-1E+10	1	-1E+10	1	-1E+10	1
4902554	102	C	12/06/2023	02:59	-133.631	47.549	0	237.30	0	5.4330	0	33.7720	0	26.654	0	235.183	0	-1e10	8	-1e10	8	-1E+10	1	-1E+10	1	-1E+10	1	-1E+10	1	-1E+10	1	-1E+10	1
4902554	102	C	12/06/2023	02:59	-133.631	47.549	0	238.20	0	5.4030	0	33.7700	0	26.656	0	236.075	0	-1e10	8	-1e10	8	-1E+10	1	-1E+10	1	-1E+10	1	-1E+10	1	-1E+10	1	-1E+10	1
4902554	102	C	12/06/2023	02:59	-133.631	47.549	0	239.10	0	5.3880	0	33.7710	0	26.658	0	236.966	0	-1e10	8	-1e10	8	-1E+10	1	-1E+10	1	-1E+10	1	-1E+10	1	-1E+10	1	-1E+10	1
4902554	102	C	12/06/2023	02:59	-133.631	47.549	0	240.00	0	5.3890	0	33.7730	0	26.660	0	237.858	0	-1e10	8	-1e10	8	-1E+10	1	-1E+10	1	-1E+10	1	-1E+10	1	-1E+10	1	-1E+10	1
4902554	102	C	12/06/2023	02:59	-133.631	47.549	0	240.90	0	5.3820	0	33.7730	0	26.661	0	238.749	0	-1e10	8	-1e10	8	-1E+10	1	-1E+10	1	-1E+10	1	-1E+10	1	-1E+10	1	-1E+10	1
4902554	102	C	12/06/2023	02:59	-133.631	47.549	0	241.90	0	5.3860	0	33.7770	0	26.663	0	239.740	0	-1e10	8	-1e10	8	-1E+10	1	-1E+10	1	-1E+10	1	-1E+10	1	-1E+10	1	-1E+10	1
4902554	102	C	12/06/2023	02:59	-133.631	47.549	0	242.70	0	5.3730	0	33.7760	0	26.664	0	240.532	0	-1e10	8	-1e10	8	-1E+10	1	-1E+10	1	-1E+10	1	-1E+10	1	-1E+10	1	-1E+10	1
4902554	102	C	12/06/2023	02:59	-133.631	47.549	0	243.70	0	5.3710	0	33.7760	0	26.664	0	241.522	0	-1e10	8	-1e10	8	-1E+10	1	-1E+10	1	-1E+10	1	-1E+10	1	-1E+10	1	-1E+10	1
4902554	102	C	12/06/2023	02:59	-133.631	47.549	0	244.60	0	5.3460	0	33.7770	0	26.668	0	242.414	0	-1e10	8	-1e10	8	-1E+10	1	-1E+10	1	-1E+10	1	-1E+10	1	-1E+10	1	-1E+10	1
4902554	102	C	12/06/2023	02:59	-133.631	47.549	0	245.90	0	5.3310	0	33.7790	0	26.671	0	243.702	0	-1e10	8	-1e10	8	-1E+10	1	-1E+10	1	-1E+10	1	-1E+10	1	-1E+10	1	-1E+10	1
4902554	102	C	12/06/2023	02:59	-133.631	47.549	0	247.30	0	5.3220	0	33.7800	0	26.673	0	245.088	0	-1e10	8	-1e10	8	-1E+10	1	-1E+10	1	-1E+10	1	-1E+10	1	-1E+10	1	-1E+10	1
4902554	102	C	12/06/2023	02:59	-133.631	47.549	0	248.20	0	5.3090	0	33.7810	0	26.676	0	245.980	0	-1e10	8	-1e10	8	-1E+10	1	-1E+10	1	-1E+10	1	-1E+10	1	-1E+10	1	-1E+10	1
4902554	102	C	12/06/2023	02:59	-133.631	47.549	0	249.10	0	5.3030	0	33.7810	0	26.676	0	246.871	0	-1e10	8	-1e10	8	-1E+10	1	-1E+10	1	-1E+10	1	-1E+10	1	-1E+10	1	-1E+10	1
4902554	102	C	12/06/2023	02:59	-133.631	47.549	0	250.10	0	5.2840	0	33.7810	0	26.679	0	247.861	0	-1e10	8	-1e10	8	-1E+10	1	-1E+10	1	-1E+10	1	-1E+10	1	-1E+10	1	-1E+10	1
4902554	102	C	12/06/2023	02:59	-133.631	47.549	0	251.00	0	5.2670	0	33.7790	0	26.679	0	248.753	0	-1e10	8	-1e10	8	-1E+10	1	-1E+10	1	-1E+10	1	-1E+10	1	-1E+10	1	-1E+10	1
4902554	102	C	12/06/2023	02:59	-133.631	47.549	0	251.90	0	5.2540	0	33.7800	0	26.681	0	249.644	0	-1e10	8	-1e10	8	-1E+10	1	-1E+10	1	-1E+10	1	-1E+10	1	-1E+10	1	-1E+10	1
4902554	102	C	12/06/2023	02:59	-133.631	47.549	0	252.80	0	5.2400	0	33.7800	0	26.683	0	250.536	0	-1e10	8	-1e10	8	-1E+10	1	-1E+10	1	-1E+10	1	-1E+10	1	-1E+10	1	-1E+10	1
4902554	102	C	12/06/2023	02:59	-133.631	47.549	0	253.70	0	5.2280	0	33.7810	0	26.685	0	251.427	0	-1e10	8	-1e10	8	-1E+10	1	-1E+10	1	-1E+10	1	-1E+10	1	-1E+10	1	-1E+10	1
4902554	102	C	12/06/2023	02:59	-133.631	47.549	0	254.70	0	5.2300	0	33.7810	0	26.685	0	252.417	0	-1e10	8	-1e10	8	-1E+10	1	-1E+10	1	-1E+10	1	-1E+10	1	-1E+10	1	-1E+10	1
4902554	102	C	12/06/2023	02:59	-133.631	47.549	0	255.60	0	5.2260	0	33.7820	0	26.686	0	253.309	0	-1e10	8	-1e10	8	-1E+10	1	-1E+10	1	-1E+10	1	-1E+10	1	-1E+10	1	-1E+10	1
4902554	102	C	12/06/2023	02:59	-133.631	47.549	0	256.90	0	5.2150	0	33.7810	0	26.687	0	254.596	0	-1e10	8	-1e10	8	-1E+10	1	-1E+10	1	-1E+10	1	-1E+10	1	-1E+10	1	-1E+10	1
4902554	102	C	12/06/2023	02:59	-133.631	47.549	0	258.30	0	5.1950	0	33.7800	0	26.688	0	255.983	0	-1e10	8	-1e10	8	-1E+10	1	-1E+10	1	-1E+10	1	-1E+10	1	-1E+10	1	-1E+10	1
4902554	102	C	12/06/2023	02:59	-133.631	47.549	0	259.20	0	5.1560	0	33.7800	0	26.693	0	256.874	0	-1e10	8	-1e10	8	-1E+10	1	-1E+10	1	-1E+10	1	-1E+10	1	-1E+10	1	-1E+10	1
4902554	102	C	12/06/2023	02:59	-133.631	47.549	0	260.20	0	5.1370	0	33.7830	0	26.697	0	257.865	0	-1e10	8	-1e10	8	-1E+10	1	-1E+10	1	-1E+10	1	-1E+10	1	-1E+10	1	-1E+10	1
4902554	102	C	12/06/2023	02:59	-133.631	47.549	0	261.10	0	5.1260	0	33.7830	0	26.698	0	258.756	0	-1e10	8	-1e10	8	-1E+10	1	-1E+10	1	-1E+10	1	-1E+10	1	-1E+10	1	-1E+10	1
4902554	102	C	12/06/2023	02:59	-133.631	47.549	0	262.00	0	5.1220	0	33.7820	0	26.698	0	259.648	0	-1e10	8	-1e10	8	-1E+10	1	-1E+10	1	-1E+10	1	-1E+10	1	-1E+10	1	-1E+10	1
4902554	102	C	12/06/2023	02:59	-133.631	47.549	0	263.00	0	5.1150	0	33.7850	0	26.701	0	260.638	0	-1e10	8	-1e10	8	-1E+10	1	-1E+10	1	-1E+10	1	-1E+10	1	-1E+10	1	-1E+10	1
4902554	102	C	12/06/2023	02:59	-133.631	47.549	0	263.90	0	5.0980	0	33.7840	0	26.703	0	261.529	0	-1e10	8	-1e10	8	-1E+10	1	-1E+10	1	-1E+10	1	-1E+10	1	-1E+10	1	-1E+10	1
4902554	102	C	12/06/2023	02:59	-133.631	47.549	0	264.80	0	5.0950	0	33.7850	0	26.704	0	262.421	0	-1e10	8	-1e10	8	-1E+10	1	-1E+10	1	-1E+10	1	-1E+10	1	-1E+10	1	-1E+10	1
4902554	102	C	12/06/2023	02:59	-133.631	47.549	0	265.80	0	5.0840	0	33.7870	0	26.706	0	263.411	0	-1e10	8	-1e10	8	-1E+10	1	-1E+10	1	-1E+10	1	-1E+10	1	-1E+10	1	-1E+10	1
4902554	102	C	12/06/2023	02:59	-133.631	47.549	0	266.70	0	5.0810	0	33.7890	0	26.708	0	264.302	0	-1e10	8	-1e10	8	-1E+10	1	-1E+10	1	-1E+10	1	-1E+10	1	-1E+10	1	-1E+10	1
4902554	102	C	12/06/2023	02:59	-133.631	47.549	0	267.60	0	5.0940	0	33.7910	0	26.709	0	265.194	0	-1e10	8	-1e10	8	-1E+10	1	-1E+10	1	-1E+10	1	-1E+10	1	-1E+10	1	-1E+10	1
4902554	102	C	12/06/2023	02:59	-133.631	47.549	0	268.90	0	5.0630	0	33.7910	0	26.712	0	266.481	0	-1e10	8	-1e10	8	-1E+10	1	-1E+10	1	-1E+10	1	-1E+10	1	-1E+10	1	-1E+10	1
4902554	102	C	12/06/2023	02:59	-133.631	47.549	0	270.30	0	5.0460	0	33.7900	0	26.713	0	267.868	0	-1e10	8	-1e10	8	-1E+10	1	-1E+10	1	-1E+10	1	-1E+10	1	-1E+10	1	-1E+10	1
4902554	102	C	12/06/2023	02:59	-133.631	47.549	0	271.30	0	5.0470	0	33.7920	0	26.715	0	268.858	0	-1e10	8	-1e10	8	-1E+10	1	-1E+10	1	-1E+10	1	-1E+10	1	-1E+10	1	-1E+10	1
4902554	102	C	12/06/2023	02:59	-133.631	47.549	0	272.20	0	5.0400	0	33.7940	0	26.717	0	269.749	0	-1e10	8	-1e10	8	-1E+10	1	-1E+10	1	-1E+10	1	-1E+10	1	-1E+10	1	-1E+10	1
4902554	102	C	12/06/2023	02:59	-133.631	47.549	0	273.10	0	5.0310	0	33.7930	0	26.717	0	270.641	0	-1e10	8	-1e10	8	-1E+10	1	-1E+10	1	-1E+10	1	-1E+10	1	-1E+10	1	-1E+10	1
4902554	102	C	12/06/2023	02:59	-133.631	47.549	0	274.00	0	5.0200	0	33.7940	0	26.719	0	271.532	0	-1e10	8	-1e10	8	-1E+10	1	-1E+10	1	-1E+10	1	-1E+10	1	-1E+10	1	-1E+10	1
4902554	102	C	12/06/2023	02:59	-133.631	47.549	0	274.90	0	5.0130	0	33.7970	0	26.723	0	272.423	0	-1e10	8	-1e10	8	-1E+10	1	-1E+10	1	-1E+10	1	-1E+10	1	-1E+10	1	-1E+10	1
4902554	102	C	12/06/2023	02:59	-133.631	47.549	0	275.80	0	5.0220	0	33.7980	0	26.722	0	273.314	0	-1e10	8	-1e10	8	-1E+10	1	-1E+10	1	-1E+10	1	-1E+10	1	-1E+10	1	-1E+10	1
4902554	102	C	12/06/2023	02:59	-133.631	47.549	0	276.70	0	5.0290	0	33.8020	0	26.725	0	274.206	0	-1e10	8	-1e10	8	-1E+10	1	-1E+10	1	-1E+10	1	-1E+10	1	-1E+10	1	-1E+10	1
4902554	102	C	12/06/2023	02:59	-133.631	47.549	0	277.70	0	5.0040	0	33.8040	0	26.729	0	275.196	0	-1e10	8	-1e10	8	-1E+10	1	-1E+10	1	-1E+10	1	-1E+10	1	-1E+10	1	-1E+10	1
4902554	102	C	12/06/2023	02:59	-133.631	47.549	0	278.60	0	4.9980	0	33.8030	0	26.729	0	276.087	0	-1e10	8	-1e10	8	-1E+10	1	-1E+10	1	-1E+10	1	-1E+10	1	-1E+10	1	-1E+10	1
4902554	102	C	12/06/2023	02:59	-133.631	47.549	0	279.90	0	4.9810	0	33.8040	0	26.732	0	277.375	0	-1e10	8	-1e10	8	-1E+10	1	-1E+10	1	-1E+10	1	-1E+10	1	-1E+10	1	-1E+10	1
4902554	102	C	12/06/2023	02:59	-133.631	47.549	0	281.30	0	4.9490	0	33.8050	0	26.736	0	278.761	0	-1e10	8	-1e10	8	-1E+10	1	-1E+10	1	-1E+10	1	-1E+10	1	-1E+10	1	-1E+10	1
4902554	102	C	12/06/2023	02:59	-133.631	47.549	0	282.20	0	4.9460	0	33.8060	0	26.737	0	279.653	0	-1e10	8	-1e10	8	-1E+10	1	-1E+10	1	-1E+10	1	-1E+10	1	-1E+10	1	-1E+10	1
4902554	102	C	12/06/2023	02:59	-133.631	47.549	0	283.10	0	4.9440	0	33.8070	0	26.738	0	280.544	0	-1e10	8	-1e10	8	-1E+10	1	-1E+10	1	-1E+10	1	-1E+10	1	-1E+10	1	-1E+10	1
4902554	102	C	12/06/2023	02:59	-133.631	47.549	0	284.00	0	4.9390	0	33.8060	0	26.738	0	281.435	0	-1e10	8	-1e10	8	-1E+10	1	-1E+10	1	-1E+10	1	-1E+10	1	-1E+10	1	-1E+10	1
4902554	102	C	12/06/2023	02:59	-133.631	47.549	0	284.90	0	4.9630	0	33.8120	0	26.740	0	282.326	0	-1e10	8	-1e10	8	-1E+10	1	-1E+10	1	-1E+10	1	-1E+10	1	-1E+10	1	-1E+10	1
4902554	102	C	12/06/2023	02:59	-133.631	47.549	0	285.80	0	4.9660	0	33.8150	0	26.742	0	283.218	0	-1e10	8	-1e10	8	-1E+10	1	-1E+10	1	-1E+10	1	-1E+10	1	-1E+10	1	-1E+10	1
4902554	102	C	12/06/2023	02:59	-133.631	47.549	0	286.70	0	4.9610	0	33.8180	0	26.745	0	284.109	0	-1e10	8	-1e10	8	-1E+10	1	-1E+10	1	-1E+10	1	-1E+10	1	-1E+10	1	-1E+10	1
4902554	102	C	12/06/2023	02:59	-133.631	47.549	0	287.60	0	4.9550	0	33.8190	0	26.747	0	285.000	0	-1e10	8	-1e10	8	-1E+10	1	-1E+10	1	-1E+10	1	-1E+10	1	-1E+10	1	-1E+10	1
4902554	102	C	12/06/2023	02:59	-133.631	47.549	0	288.60	0	4.9390	0	33.8200	0	26.749	0	285.990	0	-1e10	8	-1e10	8	-1E+10	1	-1E+10	1	-1E+10	1	-1E+10	1	-1E+10	1	-1E+10	1
4902554	102	C	12/06/2023	02:59	-133.631	47.549	0	289.90	0	4.9280	0	33.8190	0	26.750	0	287.278	0	-1e10	8	-1e10	8	-1E+10	1	-1E+10	1	-1E+10	1	-1E+10	1	-1E+10	1	-1E+10	1
4902554	102	C	12/06/2023	02:59	-133.631	47.549	0	291.30	0	4.9170	0	33.8190	0	26.751	0	288.664	0	-1e10	8	-1e10	8	-1E+10	1	-1E+10	1	-1E+10	1	-1E+10	1	-1E+10	1	-1E+10	1
4902554	102	C	12/06/2023	02:59	-133.631	47.549	0	292.30	0	4.8990	0	33.8200	0	26.754	0	289.654	0	-1e10	8	-1e10	8	-1E+10	1	-1E+10	1	-1E+10	1	-1E+10	1	-1E+10	1	-1E+10	1
4902554	102	C	12/06/2023	02:59	-133.631	47.549	0	293.20	0	4.8930	0	33.8200	0	26.754	0	290.545	0	-1e10	8	-1e10	8	-1E+10	1	-1E+10	1	-1E+10	1	-1E+10	1	-1E+10	1	-1E+10	1
4902554	102	C	12/06/2023	02:59	-133.631	47.549	0	294.10	0	4.8890	0	33.8200	0	26.755	0	291.437	0	-1e10	8	-1e10	8	-1E+10	1	-1E+10	1	-1E+10	1	-1E+10	1	-1E+10	1	-1E+10	1
4902554	102	C	12/06/2023	02:59	-133.631	47.549	0	295.00	0	4.8830	0	33.8190	0	26.755	0	292.328	0	-1e10	8	-1e10	8	-1E+10	1	-1E+10	1	-1E+10	1	-1E+10	1	-1E+10	1	-1E+10	1
4902554	102	C	12/06/2023	02:59	-133.631	47.549	0	295.90	0	4.8800	0	33.8180	0	26.754	0	293.219	0	-1e10	8	-1e10	8	-1E+10	1	-1E+10	1	-1E+10	1	-1E+10	1	-1E+10	1	-1E+10	1
4902554	102	C	12/06/2023	02:59	-133.631	47.549	0	296.80	0	4.8580	0	33.8200	0	26.758	0	294.110	0	-1e10	8	-1e10	8	-1E+10	1	-1E+10	1	-1E+10	1	-1E+10	1	-1E+10	1	-1E+10	1
4902554	102	C	12/06/2023	02:59	-133.631	47.549	0	297.70	0	4.8380	0	33.8240	0	26.764	0	295.002	0	-1e10	8	-1e10	8	-1E+10	1	-1E+10	1	-1E+10	1	-1E+10	1	-1E+10	1	-1E+10	1
4902554	102	C	12/06/2023	02:59	-133.631	47.549	0	298.70	0	4.8360	0	33.8230	0	26.763	0	295.992	0	-1e10	8	-1e10	8	-1E+10	1	-1E+10	1	-1E+10	1	-1E+10	1	-1E+10	1	-1E+10	1
4902554	102	C	12/06/2023	02:59	-133.631	47.549	0	299.60	0	4.8360	0	33.8240	0	26.764	0	296.883	0	-1e10	8	-1e10	8	-1E+10	1	-1E+10	1	-1E+10	1	-1E+10	1	-1E+10	1	-1E+10	1
4902554	102	C	12/06/2023	02:59	-133.631	47.549	0	300.60	0	4.8310	0	33.8250	0	26.765	0	297.873	0	-1e10	8	-1e10	8	-1E+10	1	-1E+10	1	-1E+10	1	-1E+10	1	-1E+10	1	-1E+10	1
4902554	102	C	12/06/2023	02:59	-133.631	47.549	0	301.50	0	4.8220	0	33.8270	0	26.768	0	298.764	0	-1e10	8	-1e10	8	-1E+10	1	-1E+10	1	-1E+10	1	-1E+10	1	-1E+10	1	-1E+10	1
4902554	102	C	12/06/2023	02:59	-133.631	47.549	0	302.90	0	4.8160	0	33.8270	0	26.769	0	300.151	0	-1e10	8	-1e10	8	-1E+10	1	-1E+10	1	-1E+10	1	-1E+10	1	-1E+10	1	-1E+10	1
4902554	102	C	12/06/2023	02:59	-133.631	47.549	0	304.40	0	4.7990	0	33.8260	0	26.770	0	301.636	0	-1e10	8	-1e10	8	-1E+10	1	-1E+10	1	-1E+10	1	-1E+10	1	-1E+10	1	-1E+10	1
4902554	102	C	12/06/2023	02:59	-133.631	47.549	0	305.30	0	4.7890	0	33.8270	0	26.772	0	302.527	0	-1e10	8	-1e10	8	-1E+10	1	-1E+10	1	-1E+10	1	-1E+10	1	-1E+10	1	-1E+10	1
4902554	102	C	12/06/2023	02:59	-133.631	47.549	0	306.30	0	4.7840	0	33.8260	0	26.771	0	303.517	0	-1e10	8	-1e10	8	-1E+10	1	-1E+10	1	-1E+10	1	-1E+10	1	-1E+10	1	-1E+10	1
4902554	102	C	12/06/2023	02:59	-133.631	47.549	0	307.30	0	4.7690	0	33.8270	0	26.774	0	304.507	0	-1e10	8	-1e10	8	-1E+10	1	-1E+10	1	-1E+10	1	-1E+10	1	-1E+10	1	-1E+10	1
4902554	102	C	12/06/2023	02:59	-133.631	47.549	0	308.30	0	4.7590	0	33.8270	0	26.775	0	305.498	0	-1e10	8	-1e10	8	-1E+10	1	-1E+10	1	-1E+10	1	-1E+10	1	-1E+10	1	-1E+10	1
4902554	102	C	12/06/2023	02:59	-133.631	47.549	0	309.20	0	4.7590	0	33.8280	0	26.776	0	306.389	0	-1e10	8	-1e10	8	-1E+10	1	-1E+10	1	-1E+10	1	-1E+10	1	-1E+10	1	-1E+10	1
4902554	102	C	12/06/2023	02:59	-133.631	47.549	0	310.20	0	4.7760	0	33.8360	0	26.780	0	307.379	0	-1e10	8	-1e10	8	-1E+10	1	-1E+10	1	-1E+10	1	-1E+10	1	-1E+10	1	-1E+10	1
4902554	102	C	12/06/2023	02:59	-133.631	47.549	0	311.20	0	4.7740	0	33.8380	0	26.782	0	308.369	0	-1e10	8	-1e10	8	-1E+10	1	-1E+10	1	-1E+10	1	-1E+10	1	-1E+10	1	-1E+10	1
4902554	102	C	12/06/2023	02:59	-133.631	47.549	0	312.20	0	4.7700	0	33.8380	0	26.783	0	309.359	0	-1e10	8	-1e10	8	-1E+10	1	-1E+10	1	-1E+10	1	-1E+10	1	-1E+10	1	-1E+10	1
4902554	102	C	12/06/2023	02:59	-133.631	47.549	0	313.20	0	4.7660	0	33.8390	0	26.784	0	310.349	0	-1e10	8	-1e10	8	-1E+10	1	-1E+10	1	-1E+10	1	-1E+10	1	-1E+10	1	-1E+10	1
4902554	102	C	12/06/2023	02:59	-133.631	47.549	0	314.20	0	4.7710	0	33.8390	0	26.783	0	311.340	0	-1e10	8	-1e10	8	-1E+10	1	-1E+10	1	-1E+10	1	-1E+10	1	-1E+10	1	-1E+10	1
4902554	102	C	12/06/2023	02:59	-133.631	47.549	0	315.20	0	4.7740	0	33.8410	0	26.785	0	312.330	0	-1e10	8	-1e10	8	-1E+10	1	-1E+10	1	-1E+10	1	-1E+10	1	-1E+10	1	-1E+10	1
4902554	102	C	12/06/2023	02:59	-133.631	47.549	0	316.20	0	4.7800	0	33.8450	0	26.787	0	313.320	0	-1e10	8	-1e10	8	-1E+10	1	-1E+10	1	-1E+10	1	-1E+10	1	-1E+10	1	-1E+10	1
4902554	102	C	12/06/2023	02:59	-133.631	47.549	0	317.20	0	4.7740	0	33.8460	0	26.789	0	314.310	0	-1e10	8	-1e10	8	-1E+10	1	-1E+10	1	-1E+10	1	-1E+10	1	-1E+10	1	-1E+10	1
4902554	102	C	12/06/2023	02:59	-133.631	47.549	0	318.20	0	4.7570	0	33.8440	0	26.789	0	315.300	0	-1e10	8	-1e10	8	-1E+10	1	-1E+10	1	-1E+10	1	-1E+10	1	-1E+10	1	-1E+10	1
4902554	102	C	12/06/2023	02:59	-133.631	47.549	0	319.20	0	4.7210	0	33.8430	0	26.792	0	316.290	0	-1e10	8	-1e10	8	-1E+10	1	-1E+10	1	-1E+10	1	-1E+10	1	-1E+10	1	-1E+10	1
4902554	102	C	12/06/2023	02:59	-133.631	47.549	0	320.30	0	4.7050	0	33.8410	0	26.792	0	317.379	0	-1e10	8	-1e10	8	-1E+10	1	-1E+10	1	-1E+10	1	-1E+10	1	-1E+10	1	-1E+10	1
4902554	102	C	12/06/2023	02:59	-133.631	47.549	0	321.20	0	4.7010	0	33.8410	0	26.793	0	318.270	0	-1e10	8	-1e10	8	-1E+10	1	-1E+10	1	-1E+10	1	-1E+10	1	-1E+10	1	-1E+10	1
4902554	102	C	12/06/2023	02:59	-133.631	47.549	0	322.20	0	4.6810	0	33.8450	0	26.798	0	319.261	0	-1e10	8	-1e10	8	-1E+10	1	-1E+10	1	-1E+10	1	-1E+10	1	-1E+10	1	-1E+10	1
4902554	102	C	12/06/2023	02:59	-133.631	47.549	0	323.10	0	4.6740	0	33.8460	0	26.800	0	320.152	0	-1e10	8	-1e10	8	-1E+10	1	-1E+10	1	-1E+10	1	-1E+10	1	-1E+10	1	-1E+10	1
4902554	102	C	12/06/2023	02:59	-133.631	47.549	0	323.80	0	4.6730	0	33.8460	0	26.800	0	320.845	0	-1e10	8	-1e10	8	-1E+10	1	-1E+10	1	-1E+10	1	-1E+10	1	-1E+10	1	-1E+10	1
4902554	102	C	12/06/2023	02:59	-133.631	47.549	0	325.00	0	4.6730	0	33.8460	0	26.800	0	322.033	0	-1e10	8	-1e10	8	-1E+10	1	-1E+10	1	-1E+10	1	-1E+10	1	-1E+10	1	-1E+10	1
4902554	102	C	12/06/2023	02:59	-133.631	47.549	0	326.10	0	4.6760	0	33.8480	0	26.801	0	323.122	0	-1e10	8	-1e10	8	-1E+10	1	-1E+10	1	-1E+10	1	-1E+10	1	-1E+10	1	-1E+10	1
4902554	102	C	12/06/2023	02:59	-133.631	47.549	0	326.90	0	4.6770	0	33.8480	0	26.801	0	323.914	0	-1e10	8	-1e10	8	-1E+10	1	-1E+10	1	-1E+10	1	-1E+10	1	-1E+10	1	-1E+10	1
4902554	102	C	12/06/2023	02:59	-133.631	47.549	0	327.70	0	4.6760	0	33.8490	0	26.802	0	324.706	0	-1e10	8	-1e10	8	-1E+10	1	-1E+10	1	-1E+10	1	-1E+10	1	-1E+10	1	-1E+10	1
4902554	102	C	12/06/2023	02:59	-133.631	47.549	0	328.80	0	4.6780	0	33.8510	0	26.803	0	325.795	0	-1e10	8	-1e10	8	-1E+10	1	-1E+10	1	-1E+10	1	-1E+10	1	-1E+10	1	-1E+10	1
4902554	102	C	12/06/2023	02:59	-133.631	47.549	0	330.00	0	4.6770	0	33.8510	0	26.803	0	326.983	0	-1e10	8	-1e10	8	-1E+10	1	-1E+10	1	-1E+10	1	-1E+10	1	-1E+10	1	-1E+10	1
4902554	102	C	12/06/2023	02:59	-133.631	47.549	0	330.70	0	4.6760	0	33.8510	0	26.803	0	327.676	0	-1e10	8	-1e10	8	-1E+10	1	-1E+10	1	-1E+10	1	-1E+10	1	-1E+10	1	-1E+10	1
4902554	102	C	12/06/2023	02:59	-133.631	47.549	0	331.90	0	4.6760	0	33.8510	0	26.803	0	328.864	0	-1e10	8	-1e10	8	-1E+10	1	-1E+10	1	-1E+10	1	-1E+10	1	-1E+10	1	-1E+10	1
4902554	102	C	12/06/2023	02:59	-133.631	47.549	0	333.10	0	4.6780	0	33.8510	0	26.803	0	330.052	0	-1e10	8	-1e10	8	-1E+10	1	-1E+10	1	-1E+10	1	-1E+10	1	-1E+10	1	-1E+10	1
4902554	102	C	12/06/2023	02:59	-133.631	47.549	0	333.90	0	4.6730	0	33.8530	0	26.805	0	330.844	0	-1e10	8	-1e10	8	-1E+10	1	-1E+10	1	-1E+10	1	-1E+10	1	-1E+10	1	-1E+10	1
4902554	102	C	12/06/2023	02:59	-133.631	47.549	0	334.60	0	4.6700	0	33.8550	0	26.807	0	331.538	0	-1e10	8	-1e10	8	-1E+10	1	-1E+10	1	-1E+10	1	-1E+10	1	-1E+10	1	-1E+10	1
4902554	102	C	12/06/2023	02:59	-133.631	47.549	0	335.90	0	4.6580	0	33.8580	0	26.811	0	332.825	0	-1e10	8	-1e10	8	-1E+10	1	-1E+10	1	-1E+10	1	-1E+10	1	-1E+10	1	-1E+10	1
4902554	102	C	12/06/2023	02:59	-133.631	47.549	0	337.10	0	4.6420	0	33.8630	0	26.817	0	334.013	0	-1e10	8	-1e10	8	-1E+10	1	-1E+10	1	-1E+10	1	-1E+10	1	-1E+10	1	-1E+10	1
4902554	102	C	12/06/2023	02:59	-133.631	47.549	0	337.90	0	4.6370	0	33.8660	0	26.820	0	334.805	0	-1e10	8	-1e10	8	-1E+10	1	-1E+10	1	-1E+10	1	-1E+10	1	-1E+10	1	-1E+10	1
4902554	102	C	12/06/2023	02:59	-133.631	47.549	0	338.70	0	4.6270	0	33.8660	0	26.821	0	335.597	0	-1e10	8	-1e10	8	-1E+10	1	-1E+10	1	-1E+10	1	-1E+10	1	-1E+10	1	-1E+10	1
4902554	102	C	12/06/2023	02:59	-133.631	47.549	0	339.90	0	4.6160	0	33.8650	0	26.821	0	336.785	0	-1e10	8	-1e10	8	-1E+10	1	-1E+10	1	-1E+10	1	-1E+10	1	-1E+10	1	-1E+10	1
4902554	102	C	12/06/2023	02:59	-133.631	47.549	0	341.20	0	4.6210	0	33.8670	0	26.822	0	338.072	0	-1e10	8	-1e10	8	-1E+10	1	-1E+10	1	-1E+10	1	-1E+10	1	-1E+10	1	-1E+10	1
4902554	102	C	12/06/2023	02:59	-133.631	47.549	0	342.00	0	4.6200	0	33.8670	0	26.822	0	338.864	0	-1e10	8	-1e10	8	-1E+10	1	-1E+10	1	-1E+10	1	-1E+10	1	-1E+10	1	-1E+10	1
4902554	102	C	12/06/2023	02:59	-133.631	47.549	0	342.80	0	4.6180	0	33.8670	0	26.823	0	339.656	0	-1e10	8	-1e10	8	-1E+10	1	-1E+10	1	-1E+10	1	-1E+10	1	-1E+10	1	-1E+10	1
4902554	102	C	12/06/2023	02:59	-133.631	47.549	0	343.70	0	4.6130	0	33.8680	0	26.824	0	340.547	0	-1e10	8	-1e10	8	-1E+10	1	-1E+10	1	-1E+10	1	-1E+10	1	-1E+10	1	-1E+10	1
4902554	102	C	12/06/2023	02:59	-133.631	47.549	0	344.90	0	4.6130	0	33.8670	0	26.823	0	341.735	0	-1e10	8	-1e10	8	-1E+10	1	-1E+10	1	-1E+10	1	-1E+10	1	-1E+10	1	-1E+10	1
4902554	102	C	12/06/2023	02:59	-133.631	47.549	0	346.20	0	4.6220	0	33.8720	0	26.826	0	343.022	0	-1e10	8	-1e10	8	-1E+10	1	-1E+10	1	-1E+10	1	-1E+10	1	-1E+10	1	-1E+10	1
4902554	102	C	12/06/2023	02:59	-133.631	47.549	0	347.00	0	4.6250	0	33.8730	0	26.827	0	343.814	0	-1e10	8	-1e10	8	-1E+10	1	-1E+10	1	-1E+10	1	-1E+10	1	-1E+10	1	-1E+10	1
4902554	102	C	12/06/2023	02:59	-133.631	47.549	0	347.90	0	4.6240	0	33.8720	0	26.826	0	344.705	0	-1e10	8	-1e10	8	-1E+10	1	-1E+10	1	-1E+10	1	-1E+10	1	-1E+10	1	-1E+10	1
4902554	102	C	12/06/2023	02:59	-133.631	47.549	0	348.70	0	4.6270	0	33.8720	0	26.826	0	345.497	0	-1e10	8	-1e10	8	-1E+10	1	-1E+10	1	-1E+10	1	-1E+10	1	-1E+10	1	-1E+10	1
4902554	102	C	12/06/2023	02:59	-133.631	47.549	0	350.00	0	4.6190	0	33.8740	0	26.828	0	346.784	0	-1e10	8	-1e10	8	-1E+10	1	-1E+10	1	-1E+10	1	-1E+10	1	-1E+10	1	-1E+10	1
4902554	102	C	12/06/2023	02:59	-133.631	47.549	0	353.00	0	4.5880	0	33.8780	0	26.835	0	349.754	0	-1e10	8	-1e10	8	-1E+10	1	-1E+10	1	-1E+10	1	-1E+10	1	-1E+10	1	-1E+10	1
4902554	102	C	12/06/2023	02:59	-133.631	47.549	0	357.70	0	4.5920	0	33.8850	0	26.840	0	354.406	0	-1e10	8	-1e10	8	-1E+10	1	-1E+10	1	-1E+10	1	-1E+10	1	-1E+10	1	-1E+10	1
4902554	102	C	12/06/2023	02:59	-133.631	47.549	0	363.00	0	4.5990	0	33.8940	0	26.846	0	359.653	0	-1e10	8	-1e10	8	-1E+10	1	-1E+10	1	-1E+10	1	-1E+10	1	-1E+10	1	-1E+10	1
4902554	102	C	12/06/2023	02:59	-133.631	47.549	0	368.00	0	4.6260	0	33.9020	0	26.850	0	364.602	0	-1e10	8	-1e10	8	-1E+10	1	-1E+10	1	-1E+10	1	-1E+10	1	-1E+10	1	-1E+10	1
4902554	102	C	12/06/2023	02:59	-133.631	47.549	0	373.00	0	4.6330	0	33.9050	0	26.851	0	369.552	0	-1e10	8	-1e10	8	-1E+10	1	-1E+10	1	-1E+10	1	-1E+10	1	-1E+10	1	-1E+10	1
4902554	102	C	12/06/2023	02:59	-133.631	47.549	0	378.00	0	4.5680	0	33.9020	0	26.856	0	374.501	0	-1e10	8	-1e10	8	-1E+10	1	-1E+10	1	-1E+10	1	-1E+10	1	-1E+10	1	-1E+10	1
4902554	102	C	12/06/2023	02:59	-133.631	47.549	0	382.90	0	4.5500	0	33.9070	0	26.862	0	379.351	0	-1e10	8	-1e10	8	-1E+10	1	-1E+10	1	-1E+10	1	-1E+10	1	-1E+10	1	-1E+10	1
4902554	102	C	12/06/2023	02:59	-133.631	47.549	0	387.90	0	4.4710	0	33.9090	0	26.872	0	384.300	0	-1e10	8	-1e10	8	-1E+10	1	-1E+10	1	-1E+10	1	-1E+10	1	-1E+10	1	-1E+10	1
4902554	102	C	12/06/2023	02:59	-133.631	47.549	0	392.90	0	4.4580	0	33.9160	0	26.879	0	389.249	0	-1e10	8	-1e10	8	-1E+10	1	-1E+10	1	-1E+10	1	-1E+10	1	-1E+10	1	-1E+10	1
4902554	102	C	12/06/2023	02:59	-133.631	47.549	0	397.90	0	4.4400	0	33.9210	0	26.885	0	394.198	0	-1e10	8	-1e10	8	-1E+10	1	-1E+10	1	-1E+10	1	-1E+10	1	-1E+10	1	-1E+10	1
4902554	102	C	12/06/2023	02:59	-133.631	47.549	0	402.80	0	4.3970	0	33.9260	0	26.894	0	399.048	0	-1e10	8	-1e10	8	-1E+10	1	-1E+10	1	-1E+10	1	-1E+10	1	-1E+10	1	-1E+10	1
4902554	102	C	12/06/2023	02:59	-133.631	47.549	0	407.70	0	4.4410	0	33.9400	0	26.900	0	403.897	0	-1e10	8	-1e10	8	-1E+10	1	-1E+10	1	-1E+10	1	-1E+10	1	-1E+10	1	-1E+10	1
4902554	102	C	12/06/2023	02:59	-133.631	47.549	0	412.60	0	4.4530	0	33.9510	0	26.908	0	408.747	0	-1e10	8	-1e10	8	-1E+10	1	-1E+10	1	-1E+10	1	-1E+10	1	-1E+10	1	-1E+10	1
4902554	102	C	12/06/2023	02:59	-133.631	47.549	0	418.00	0	4.4320	0	33.9590	0	26.916	0	414.091	0	-1e10	8	-1e10	8	-1E+10	1	-1E+10	1	-1E+10	1	-1E+10	1	-1E+10	1	-1E+10	1
4902554	102	C	12/06/2023	02:59	-133.631	47.549	0	422.90	0	4.4110	0	33.9620	0	26.921	0	418.940	0	-1e10	8	-1e10	8	-1E+10	1	-1E+10	1	-1E+10	1	-1E+10	1	-1E+10	1	-1E+10	1
4902554	102	C	12/06/2023	02:59	-133.631	47.549	0	427.90	0	4.3900	0	33.9690	0	26.929	0	423.888	0	-1e10	8	-1e10	8	-1E+10	1	-1E+10	1	-1E+10	1	-1E+10	1	-1E+10	1	-1E+10	1
4902554	102	C	12/06/2023	02:59	-133.631	47.549	0	432.80	0	4.4140	0	33.9820	0	26.937	0	428.737	0	-1e10	8	-1e10	8	-1E+10	1	-1E+10	1	-1E+10	1	-1E+10	1	-1E+10	1	-1E+10	1
4902554	102	C	12/06/2023	02:59	-133.631	47.549	0	437.80	0	4.4100	0	33.9880	0	26.942	0	433.685	0	-1e10	8	-1e10	8	-1E+10	1	-1E+10	1	-1E+10	1	-1E+10	1	-1E+10	1	-1E+10	1
4902554	102	C	12/06/2023	02:59	-133.631	47.549	0	442.80	0	4.4100	0	33.9930	0	26.946	0	438.633	0	-1e10	8	-1e10	8	-1E+10	1	-1E+10	1	-1E+10	1	-1E+10	1	-1E+10	1	-1E+10	1
4902554	102	C	12/06/2023	02:59	-133.631	47.549	0	447.80	0	4.3750	0	34.0000	0	26.955	0	443.580	0	-1e10	8	-1e10	8	-1E+10	1	-1E+10	1	-1E+10	1	-1E+10	1	-1E+10	1	-1E+10	1
4902554	102	C	12/06/2023	02:59	-133.631	47.549	0	452.90	0	4.3590	0	34.0040	0	26.960	0	448.627	0	-1e10	8	-1e10	8	-1E+10	1	-1E+10	1	-1E+10	1	-1E+10	1	-1E+10	1	-1E+10	1
4902554	102	C	12/06/2023	02:59	-133.631	47.549	0	457.60	0	4.3490	0	34.0090	0	26.965	0	453.277	0	-1e10	8	-1e10	8	-1E+10	1	-1E+10	1	-1E+10	1	-1E+10	1	-1E+10	1	-1E+10	1
4902554	102	C	12/06/2023	02:59	-133.631	47.549	0	462.90	0	4.3640	0	34.0190	0	26.971	0	458.521	0	-1e10	8	-1e10	8	-1E+10	1	-1E+10	1	-1E+10	1	-1E+10	1	-1E+10	1	-1E+10	1
4902554	102	C	12/06/2023	02:59	-133.631	47.549	0	468.30	0	4.3530	0	34.0240	0	26.977	0	463.864	0	-1e10	8	-1e10	8	-1E+10	1	-1E+10	1	-1E+10	1	-1E+10	1	-1E+10	1	-1E+10	1
4902554	102	C	12/06/2023	02:59	-133.631	47.549	0	473.20	0	4.3210	0	34.0250	0	26.981	0	468.712	0	-1e10	8	-1e10	8	-1E+10	1	-1E+10	1	-1E+10	1	-1E+10	1	-1E+10	1	-1E+10	1
4902554	102	C	12/06/2023	02:59	-133.631	47.549	0	478.20	0	4.2960	0	34.0300	0	26.988	0	473.659	0	-1e10	8	-1e10	8	-1E+10	1	-1E+10	1	-1E+10	1	-1E+10	1	-1E+10	1	-1E+10	1
4902554	102	C	12/06/2023	02:59	-133.631	47.549	0	483.20	0	4.2900	0	34.0370	0	26.994	0	478.606	0	-1e10	8	-1e10	8	-1E+10	1	-1E+10	1	-1E+10	1	-1E+10	1	-1E+10	1	-1E+10	1
4902554	102	C	12/06/2023	02:59	-133.631	47.549	0	488.30	0	4.2860	0	34.0420	0	26.998	0	483.652	0	-1e10	8	-1e10	8	-1E+10	1	-1E+10	1	-1E+10	1	-1E+10	1	-1E+10	1	-1E+10	1
4902554	102	C	12/06/2023	02:59	-133.631	47.549	0	492.90	0	4.2720	0	34.0470	0	27.004	0	488.202	0	-1e10	8	-1e10	8	-1E+10	1	-1E+10	1	-1E+10	1	-1E+10	1	-1E+10	1	-1E+10	1
4902554	102	C	12/06/2023	02:59	-133.631	47.549	0	497.50	0	4.2640	0	34.0510	0	27.008	0	492.753	0	-1e10	8	-1e10	8	-1E+10	1	-1E+10	1	-1E+10	1	-1E+10	1	-1E+10	1	-1E+10	1
4902554	102	C	12/06/2023	02:59	-133.631	47.549	0	502.50	0	4.2540	0	34.0560	0	27.013	0	497.700	0	-1e10	8	-1e10	8	-1E+10	1	-1E+10	1	-1E+10	1	-1E+10	1	-1E+10	1	-1E+10	1
4902554	102	C	12/06/2023	02:59	-133.631	47.549	0	507.50	0	4.2440	0	34.0600	0	27.017	0	502.646	0	-1e10	8	-1e10	8	-1E+10	1	-1E+10	1	-1E+10	1	-1E+10	1	-1E+10	1	-1E+10	1
4902554	102	C	12/06/2023	02:59	-133.631	47.549	0	512.60	0	4.2390	0	34.0630	0	27.020	0	507.691	0	-1e10	8	-1e10	8	-1E+10	1	-1E+10	1	-1E+10	1	-1E+10	1	-1E+10	1	-1E+10	1
4902554	102	C	12/06/2023	02:59	-133.631	47.549	0	517.60	0	4.2280	0	34.0660	0	27.024	0	512.637	0	-1e10	8	-1e10	8	-1E+10	1	-1E+10	1	-1E+10	1	-1E+10	1	-1E+10	1	-1E+10	1
4902554	102	C	12/06/2023	02:59	-133.631	47.549	0	522.70	0	4.2100	0	34.0680	0	27.027	0	517.681	0	-1e10	8	-1e10	8	-1E+10	1	-1E+10	1	-1E+10	1	-1E+10	1	-1E+10	1	-1E+10	1
4902554	102	C	12/06/2023	02:59	-133.631	47.549	0	527.80	0	4.1980	0	34.0700	0	27.030	0	522.726	0	-1e10	8	-1e10	8	-1E+10	1	-1E+10	1	-1E+10	1	-1E+10	1	-1E+10	1	-1E+10	1
4902554	102	C	12/06/2023	02:59	-133.631	47.549	0	532.80	0	4.1710	0	34.0700	0	27.033	0	527.672	0	-1e10	8	-1e10	8	-1E+10	1	-1E+10	1	-1E+10	1	-1E+10	1	-1E+10	1	-1E+10	1
4902554	102	C	12/06/2023	02:59	-133.631	47.549	0	537.90	0	4.1360	0	34.0710	0	27.037	0	532.716	0	-1e10	8	-1e10	8	-1E+10	1	-1E+10	1	-1E+10	1	-1E+10	1	-1E+10	1	-1E+10	1
4902554	102	C	12/06/2023	02:59	-133.631	47.549	0	542.90	0	4.1140	0	34.0780	0	27.045	0	537.661	0	-1e10	8	-1e10	8	-1E+10	1	-1E+10	1	-1E+10	1	-1E+10	1	-1E+10	1	-1E+10	1
4902554	102	C	12/06/2023	02:59	-133.631	47.549	0	547.90	0	4.0930	0	34.0830	0	27.051	0	542.607	0	-1e10	8	-1e10	8	-1E+10	1	-1E+10	1	-1E+10	1	-1E+10	1	-1E+10	1	-1E+10	1
4902554	102	C	12/06/2023	02:59	-133.631	47.549	0	552.90	0	4.0800	0	34.0890	0	27.057	0	547.552	0	-1e10	8	-1e10	8	-1E+10	1	-1E+10	1	-1E+10	1	-1E+10	1	-1E+10	1	-1E+10	1
4902554	102	C	12/06/2023	02:59	-133.631	47.549	0	558.00	0	4.0740	0	34.0940	0	27.062	0	552.596	0	-1e10	8	-1e10	8	-1E+10	1	-1E+10	1	-1E+10	1	-1E+10	1	-1E+10	1	-1E+10	1
4902554	102	C	12/06/2023	02:59	-133.631	47.549	0	563.20	0	4.0680	0	34.0980	0	27.066	0	557.738	0	-1e10	8	-1e10	8	-1E+10	1	-1E+10	1	-1E+10	1	-1E+10	1	-1E+10	1	-1E+10	1
4902554	102	C	12/06/2023	02:59	-133.631	47.549	0	568.10	0	4.0570	0	34.1030	0	27.071	0	562.584	0	-1e10	8	-1e10	8	-1E+10	1	-1E+10	1	-1E+10	1	-1E+10	1	-1E+10	1	-1E+10	1
4902554	102	C	12/06/2023	02:59	-133.631	47.549	0	573.10	0	4.0490	0	34.1050	0	27.074	0	567.529	0	-1e10	8	-1e10	8	-1E+10	1	-1E+10	1	-1E+10	1	-1E+10	1	-1E+10	1	-1E+10	1
4902554	102	C	12/06/2023	02:59	-133.631	47.549	0	577.80	0	4.0390	0	34.1090	0	27.078	0	572.177	0	-1e10	8	-1e10	8	-1E+10	1	-1E+10	1	-1E+10	1	-1E+10	1	-1E+10	1	-1E+10	1
4902554	102	C	12/06/2023	02:59	-133.631	47.549	0	582.70	0	4.0340	0	34.1130	0	27.081	0	577.022	0	-1e10	8	-1e10	8	-1E+10	1	-1E+10	1	-1E+10	1	-1E+10	1	-1E+10	1	-1E+10	1
4902554	102	C	12/06/2023	02:59	-133.631	47.549	0	588.10	0	4.0130	0	34.1220	0	27.091	0	582.362	0	-1e10	8	-1e10	8	-1E+10	1	-1E+10	1	-1E+10	1	-1E+10	1	-1E+10	1	-1E+10	1
4902554	102	C	12/06/2023	02:59	-133.631	47.549	0	593.20	0	4.0050	0	34.1260	0	27.095	0	587.405	0	-1e10	8	-1e10	8	-1E+10	1	-1E+10	1	-1E+10	1	-1E+10	1	-1E+10	1	-1E+10	1
4902554	102	C	12/06/2023	02:59	-133.631	47.549	0	597.90	0	3.9980	0	34.1300	0	27.099	0	592.052	0	-1e10	8	-1e10	8	-1E+10	1	-1E+10	1	-1E+10	1	-1E+10	1	-1E+10	1	-1E+10	1
4902554	102	C	12/06/2023	02:59	-133.631	47.549	0	602.70	0	3.9890	0	34.1330	0	27.102	0	596.799	0	-1e10	8	-1e10	8	-1E+10	1	-1E+10	1	-1E+10	1	-1E+10	1	-1E+10	1	-1E+10	1
4902554	102	C	12/06/2023	02:59	-133.631	47.549	0	607.50	0	3.9850	0	34.1370	0	27.106	0	601.545	0	-1e10	8	-1e10	8	-1E+10	1	-1E+10	1	-1E+10	1	-1E+10	1	-1E+10	1	-1E+10	1
4902554	102	C	12/06/2023	02:59	-133.631	47.549	0	612.50	0	3.9770	0	34.1400	0	27.109	0	606.488	0	-1e10	8	-1e10	8	-1E+10	1	-1E+10	1	-1E+10	1	-1E+10	1	-1E+10	1	-1E+10	1
4902554	102	C	12/06/2023	02:59	-133.631	47.549	0	617.50	0	3.9600	0	34.1440	0	27.114	0	611.432	0	-1e10	8	-1e10	8	-1E+10	1	-1E+10	1	-1E+10	1	-1E+10	1	-1E+10	1	-1E+10	1
4902554	102	C	12/06/2023	02:59	-133.631	47.549	0	622.60	0	3.9530	0	34.1460	0	27.116	0	616.474	0	-1e10	8	-1e10	8	-1E+10	1	-1E+10	1	-1E+10	1	-1E+10	1	-1E+10	1	-1E+10	1
4902554	102	C	12/06/2023	02:59	-133.631	47.549	0	627.80	0	3.9360	0	34.1490	0	27.120	0	621.615	0	-1e10	8	-1e10	8	-1E+10	1	-1E+10	1	-1E+10	1	-1E+10	1	-1E+10	1	-1E+10	1
4902554	102	C	12/06/2023	02:59	-133.631	47.549	0	632.90	0	3.9240	0	34.1530	0	27.125	0	626.657	0	-1e10	8	-1e10	8	-1E+10	1	-1E+10	1	-1E+10	1	-1E+10	1	-1E+10	1	-1E+10	1
4902554	102	C	12/06/2023	02:59	-133.631	47.549	0	638.10	0	3.9070	0	34.1570	0	27.130	0	631.798	0	-1e10	8	-1e10	8	-1E+10	1	-1E+10	1	-1E+10	1	-1E+10	1	-1E+10	1	-1E+10	1
4902554	102	C	12/06/2023	02:59	-133.631	47.549	0	643.30	0	3.8860	0	34.1630	0	27.137	0	636.939	0	-1e10	8	-1e10	8	-1E+10	1	-1E+10	1	-1E+10	1	-1E+10	1	-1E+10	1	-1E+10	1
4902554	102	C	12/06/2023	02:59	-133.631	47.549	0	647.90	0	3.8730	0	34.1680	0	27.142	0	641.486	0	-1e10	8	-1e10	8	-1E+10	1	-1E+10	1	-1E+10	1	-1E+10	1	-1E+10	1	-1E+10	1
4902554	102	C	12/06/2023	02:59	-133.631	47.549	0	652.70	0	3.8640	0	34.1710	0	27.145	0	646.231	0	-1e10	8	-1e10	8	-1E+10	1	-1E+10	1	-1E+10	1	-1E+10	1	-1E+10	1	-1E+10	1
4902554	102	C	12/06/2023	02:59	-133.631	47.549	0	657.90	0	3.8510	0	34.1750	0	27.150	0	651.372	0	-1e10	8	-1e10	8	-1E+10	1	-1E+10	1	-1E+10	1	-1E+10	1	-1E+10	1	-1E+10	1
4902554	102	C	12/06/2023	02:59	-133.631	47.549	0	663.20	0	3.8390	0	34.1780	0	27.153	0	656.611	0	-1e10	8	-1e10	8	-1E+10	1	-1E+10	1	-1E+10	1	-1E+10	1	-1E+10	1	-1E+10	1
4902554	102	C	12/06/2023	02:59	-133.631	47.549	0	667.90	0	3.8230	0	34.1820	0	27.158	0	661.257	0	-1e10	8	-1e10	8	-1E+10	1	-1E+10	1	-1E+10	1	-1E+10	1	-1E+10	1	-1E+10	1
4902554	102	C	12/06/2023	02:59	-133.631	47.549	0	672.60	0	3.8070	0	34.1860	0	27.163	0	665.902	0	-1e10	8	-1e10	8	-1E+10	1	-1E+10	1	-1E+10	1	-1E+10	1	-1E+10	1	-1E+10	1
4902554	102	C	12/06/2023	02:59	-133.631	47.549	0	677.90	0	3.7960	0	34.1880	0	27.166	0	671.141	0	-1e10	8	-1e10	8	-1E+10	1	-1E+10	1	-1E+10	1	-1E+10	1	-1E+10	1	-1E+10	1
4902554	102	C	12/06/2023	02:59	-133.631	47.549	0	683.30	0	3.7850	0	34.1920	0	27.170	0	676.479	0	-1e10	8	-1e10	8	-1E+10	1	-1E+10	1	-1E+10	1	-1E+10	1	-1E+10	1	-1E+10	1
4902554	102	C	12/06/2023	02:59	-133.631	47.549	0	688.00	0	3.7760	0	34.1940	0	27.173	0	681.124	0	-1e10	8	-1e10	8	-1E+10	1	-1E+10	1	-1E+10	1	-1E+10	1	-1E+10	1	-1E+10	1
4902554	102	C	12/06/2023	02:59	-133.631	47.549	0	692.80	0	3.7710	0	34.1960	0	27.175	0	685.868	0	-1e10	8	-1e10	8	-1E+10	1	-1E+10	1	-1E+10	1	-1E+10	1	-1E+10	1	-1E+10	1
4902554	102	C	12/06/2023	02:59	-133.631	47.549	0	698.10	0	3.7610	0	34.1970	0	27.177	0	691.106	0	-1e10	8	-1e10	8	-1E+10	1	-1E+10	1	-1E+10	1	-1E+10	1	-1E+10	1	-1E+10	1
4902554	102	C	12/06/2023	02:59	-133.631	47.549	0	702.90	0	3.7400	0	34.2020	0	27.183	0	695.850	0	-1e10	8	-1e10	8	-1E+10	1	-1E+10	1	-1E+10	1	-1E+10	1	-1E+10	1	-1E+10	1
4902554	102	C	12/06/2023	02:59	-133.631	47.549	0	707.60	0	3.7280	0	34.2060	0	27.187	0	700.495	0	-1e10	8	-1e10	8	-1E+10	1	-1E+10	1	-1E+10	1	-1E+10	1	-1E+10	1	-1E+10	1
4902554	102	C	12/06/2023	02:59	-133.631	47.549	0	712.70	0	3.7240	0	34.2090	0	27.190	0	705.535	0	-1e10	8	-1e10	8	-1E+10	1	-1E+10	1	-1E+10	1	-1E+10	1	-1E+10	1	-1E+10	1
4902554	102	C	12/06/2023	02:59	-133.631	47.549	0	717.80	0	3.7140	0	34.2130	0	27.194	0	710.575	0	-1e10	8	-1e10	8	-1E+10	1	-1E+10	1	-1E+10	1	-1E+10	1	-1E+10	1	-1E+10	1
4902554	102	C	12/06/2023	02:59	-133.631	47.549	0	722.90	0	3.6980	0	34.2160	0	27.198	0	715.615	0	-1e10	8	-1e10	8	-1E+10	1	-1E+10	1	-1E+10	1	-1E+10	1	-1E+10	1	-1E+10	1
4902554	102	C	12/06/2023	02:59	-133.631	47.549	0	727.90	0	3.6850	0	34.2190	0	27.202	0	720.556	0	-1e10	8	-1e10	8	-1E+10	1	-1E+10	1	-1E+10	1	-1E+10	1	-1E+10	1	-1E+10	1
4902554	102	C	12/06/2023	02:59	-133.631	47.549	0	732.90	0	3.6650	0	34.2260	0	27.209	0	725.497	0	-1e10	8	-1e10	8	-1E+10	1	-1E+10	1	-1E+10	1	-1E+10	1	-1E+10	1	-1E+10	1
4902554	102	C	12/06/2023	02:59	-133.631	47.549	0	738.00	0	3.6570	0	34.2300	0	27.213	0	730.537	0	-1e10	8	-1e10	8	-1E+10	1	-1E+10	1	-1E+10	1	-1E+10	1	-1E+10	1	-1E+10	1
4902554	102	C	12/06/2023	02:59	-133.631	47.549	0	743.00	0	3.6550	0	34.2320	0	27.215	0	735.477	0	-1e10	8	-1e10	8	-1E+10	1	-1E+10	1	-1E+10	1	-1E+10	1	-1E+10	1	-1E+10	1
4902554	102	C	12/06/2023	02:59	-133.631	47.549	0	747.90	0	3.6500	0	34.2360	0	27.219	0	740.319	0	-1e10	8	-1e10	8	-1E+10	1	-1E+10	1	-1E+10	1	-1E+10	1	-1E+10	1	-1E+10	1
4902554	102	C	12/06/2023	02:59	-133.631	47.549	0	752.90	0	3.6380	0	34.2400	0	27.223	0	745.259	0	-1e10	8	-1e10	8	-1E+10	1	-1E+10	1	-1E+10	1	-1E+10	1	-1E+10	1	-1E+10	1
4902554	102	C	12/06/2023	02:59	-133.631	47.549	0	757.80	0	3.6280	0	34.2440	0	27.228	0	750.101	0	-1e10	8	-1e10	8	-1E+10	1	-1E+10	1	-1E+10	1	-1E+10	1	-1E+10	1	-1E+10	1
4902554	102	C	12/06/2023	02:59	-133.631	47.549	0	762.80	0	3.6170	0	34.2480	0	27.232	0	755.041	0	-1e10	8	-1e10	8	-1E+10	1	-1E+10	1	-1E+10	1	-1E+10	1	-1E+10	1	-1E+10	1
4902554	102	C	12/06/2023	02:59	-133.631	47.549	0	767.80	0	3.6070	0	34.2500	0	27.234	0	759.981	0	-1e10	8	-1e10	8	-1E+10	1	-1E+10	1	-1E+10	1	-1E+10	1	-1E+10	1	-1E+10	1
4902554	102	C	12/06/2023	02:59	-133.631	47.549	0	773.00	0	3.5780	0	34.2560	0	27.242	0	765.119	0	-1e10	8	-1e10	8	-1E+10	1	-1E+10	1	-1E+10	1	-1E+10	1	-1E+10	1	-1E+10	1
4902554	102	C	12/06/2023	02:59	-133.631	47.549	0	778.20	0	3.5630	0	34.2580	0	27.245	0	770.256	0	-1e10	8	-1e10	8	-1E+10	1	-1E+10	1	-1E+10	1	-1E+10	1	-1E+10	1	-1E+10	1
4902554	102	C	12/06/2023	02:59	-133.631	47.549	0	783.20	0	3.5650	0	34.2620	0	27.248	0	775.196	0	-1e10	8	-1e10	8	-1E+10	1	-1E+10	1	-1E+10	1	-1E+10	1	-1E+10	1	-1E+10	1
4902554	102	C	12/06/2023	02:59	-133.631	47.549	0	788.10	0	3.5710	0	34.2630	0	27.248	0	780.036	0	-1e10	8	-1e10	8	-1E+10	1	-1E+10	1	-1E+10	1	-1E+10	1	-1E+10	1	-1E+10	1
4902554	102	C	12/06/2023	02:59	-133.631	47.549	0	793.10	0	3.5660	0	34.2640	0	27.250	0	784.976	0	-1e10	8	-1e10	8	-1E+10	1	-1E+10	1	-1E+10	1	-1E+10	1	-1E+10	1	-1E+10	1
4902554	102	C	12/06/2023	02:59	-133.631	47.549	0	797.80	0	3.5490	0	34.2660	0	27.253	0	789.619	0	-1e10	8	-1e10	8	-1E+10	1	-1E+10	1	-1E+10	1	-1E+10	1	-1E+10	1	-1E+10	1
4902554	102	C	12/06/2023	02:59	-133.631	47.549	0	802.70	0	3.5240	0	34.2680	0	27.257	0	794.459	0	-1e10	8	-1e10	8	-1E+10	1	-1E+10	1	-1E+10	1	-1E+10	1	-1E+10	1	-1E+10	1
4902554	102	C	12/06/2023	02:59	-133.631	47.549	0	808.00	0	3.5060	0	34.2700	0	27.260	0	799.695	0	-1e10	8	-1e10	8	-1E+10	1	-1E+10	1	-1E+10	1	-1E+10	1	-1E+10	1	-1E+10	1
4902554	102	C	12/06/2023	02:59	-133.631	47.549	0	813.10	0	3.5000	0	34.2740	0	27.264	0	804.732	0	-1e10	8	-1e10	8	-1E+10	1	-1E+10	1	-1E+10	1	-1E+10	1	-1E+10	1	-1E+10	1
4902554	102	C	12/06/2023	02:59	-133.631	47.549	0	817.80	0	3.5050	0	34.2790	0	27.268	0	809.375	0	-1e10	8	-1e10	8	-1E+10	1	-1E+10	1	-1E+10	1	-1E+10	1	-1E+10	1	-1E+10	1
4902554	102	C	12/06/2023	02:59	-133.631	47.549	0	822.60	0	3.4770	0	34.2820	0	27.273	0	814.116	0	-1e10	8	-1e10	8	-1E+10	1	-1E+10	1	-1E+10	1	-1E+10	1	-1E+10	1	-1E+10	1
4902554	102	C	12/06/2023	02:59	-133.631	47.549	0	827.80	0	3.4740	0	34.2880	0	27.278	0	819.252	0	-1e10	8	-1e10	8	-1E+10	1	-1E+10	1	-1E+10	1	-1E+10	1	-1E+10	1	-1E+10	1
4902554	102	C	12/06/2023	02:59	-133.631	47.549	0	832.90	0	3.4710	0	34.2930	0	27.282	0	824.290	0	-1e10	8	-1e10	8	-1E+10	1	-1E+10	1	-1E+10	1	-1E+10	1	-1E+10	1	-1E+10	1
4902554	102	C	12/06/2023	02:59	-133.631	47.549	0	837.80	0	3.4660	0	34.2950	0	27.284	0	829.129	0	-1e10	8	-1e10	8	-1E+10	1	-1E+10	1	-1E+10	1	-1E+10	1	-1E+10	1	-1E+10	1
4902554	102	C	12/06/2023	02:59	-133.631	47.549	0	843.00	0	3.4620	0	34.3000	0	27.289	0	834.265	0	-1e10	8	-1e10	8	-1E+10	1	-1E+10	1	-1E+10	1	-1E+10	1	-1E+10	1	-1E+10	1
4902554	102	C	12/06/2023	02:59	-133.631	47.549	0	848.30	0	3.4560	0	34.3020	0	27.291	0	839.500	0	-1e10	8	-1e10	8	-1E+10	1	-1E+10	1	-1E+10	1	-1E+10	1	-1E+10	1	-1E+10	1
4902554	102	C	12/06/2023	02:59	-133.631	47.549	0	853.20	0	3.4510	0	34.3040	0	27.293	0	844.339	0	-1e10	8	-1e10	8	-1E+10	1	-1E+10	1	-1E+10	1	-1E+10	1	-1E+10	1	-1E+10	1
4902554	102	C	12/06/2023	02:59	-133.631	47.549	0	858.30	0	3.4450	0	34.3060	0	27.295	0	849.376	0	-1e10	8	-1e10	8	-1E+10	1	-1E+10	1	-1E+10	1	-1E+10	1	-1E+10	1	-1E+10	1
4902554	102	C	12/06/2023	02:59	-133.631	47.549	0	863.00	0	3.4360	0	34.3080	0	27.298	0	854.017	0	-1e10	8	-1e10	8	-1E+10	1	-1E+10	1	-1E+10	1	-1E+10	1	-1E+10	1	-1E+10	1
4902554	102	C	12/06/2023	02:59	-133.631	47.549	0	867.80	0	3.4260	0	34.3100	0	27.300	0	858.757	0	-1e10	8	-1e10	8	-1E+10	1	-1E+10	1	-1E+10	1	-1E+10	1	-1E+10	1	-1E+10	1
4902554	102	C	12/06/2023	02:59	-133.631	47.549	0	873.00	0	3.4190	0	34.3110	0	27.302	0	863.892	0	-1e10	8	-1e10	8	-1E+10	1	-1E+10	1	-1E+10	1	-1E+10	1	-1E+10	1	-1E+10	1
4902554	102	C	12/06/2023	02:59	-133.631	47.549	0	877.90	0	3.4180	0	34.3120	0	27.303	0	868.731	0	-1e10	8	-1e10	8	-1E+10	1	-1E+10	1	-1E+10	1	-1E+10	1	-1E+10	1	-1E+10	1
4902554	102	C	12/06/2023	02:59	-133.631	47.549	0	882.80	0	3.4080	0	34.3150	0	27.306	0	873.570	0	-1e10	8	-1e10	8	-1E+10	1	-1E+10	1	-1E+10	1	-1E+10	1	-1E+10	1	-1E+10	1
4902554	102	C	12/06/2023	02:59	-133.631	47.549	0	887.80	0	3.3970	0	34.3190	0	27.310	0	878.507	0	-1e10	8	-1e10	8	-1E+10	1	-1E+10	1	-1E+10	1	-1E+10	1	-1E+10	1	-1E+10	1
4902554	102	C	12/06/2023	02:59	-133.631	47.549	0	892.70	0	3.3950	0	34.3200	0	27.311	0	883.345	0	-1e10	8	-1e10	8	-1E+10	1	-1E+10	1	-1E+10	1	-1E+10	1	-1E+10	1	-1E+10	1
4902554	102	C	12/06/2023	02:59	-133.631	47.549	0	898.10	0	3.3820	0	34.3210	0	27.313	0	888.677	0	-1e10	8	-1e10	8	-1E+10	1	-1E+10	1	-1E+10	1	-1E+10	1	-1E+10	1	-1E+10	1
4902554	102	C	12/06/2023	02:59	-133.631	47.549	0	903.00	0	3.3760	0	34.3220	0	27.315	0	893.515	0	-1e10	8	-1e10	8	-1E+10	1	-1E+10	1	-1E+10	1	-1E+10	1	-1E+10	1	-1E+10	1
4902554	102	C	12/06/2023	02:59	-133.631	47.549	0	907.90	0	3.3590	0	34.3240	0	27.318	0	898.353	0	-1e10	8	-1e10	8	-1E+10	1	-1E+10	1	-1E+10	1	-1E+10	1	-1E+10	1	-1E+10	1
4902554	102	C	12/06/2023	02:59	-133.631	47.549	0	913.20	0	3.3380	0	34.3270	0	27.322	0	903.586	0	-1e10	8	-1e10	8	-1E+10	1	-1E+10	1	-1E+10	1	-1E+10	1	-1E+10	1	-1E+10	1
4902554	102	C	12/06/2023	02:59	-133.631	47.549	0	918.00	0	3.3310	0	34.3290	0	27.325	0	908.325	0	-1e10	8	-1e10	8	-1E+10	1	-1E+10	1	-1E+10	1	-1E+10	1	-1E+10	1	-1E+10	1
4902554	102	C	12/06/2023	02:59	-133.631	47.549	0	922.90	0	3.3220	0	34.3310	0	27.327	0	913.163	0	-1e10	8	-1e10	8	-1E+10	1	-1E+10	1	-1E+10	1	-1E+10	1	-1E+10	1	-1E+10	1
4902554	102	C	12/06/2023	02:59	-133.631	47.549	0	927.70	0	3.3080	0	34.3330	0	27.330	0	917.902	0	-1e10	8	-1e10	8	-1E+10	1	-1E+10	1	-1E+10	1	-1E+10	1	-1E+10	1	-1E+10	1
4902554	102	C	12/06/2023	02:59	-133.631	47.549	0	932.70	0	3.2950	0	34.3330	0	27.331	0	922.838	0	-1e10	8	-1e10	8	-1E+10	1	-1E+10	1	-1E+10	1	-1E+10	1	-1E+10	1	-1E+10	1
4902554	102	C	12/06/2023	02:59	-133.631	47.549	0	938.10	0	3.2880	0	34.3330	0	27.332	0	928.169	0	-1e10	8	-1e10	8	-1E+10	1	-1E+10	1	-1E+10	1	-1E+10	1	-1E+10	1	-1E+10	1
4902554	102	C	12/06/2023	02:59	-133.631	47.549	0	943.10	0	3.2590	0	34.3340	0	27.336	0	933.105	0	-1e10	8	-1e10	8	-1E+10	1	-1E+10	1	-1E+10	1	-1E+10	1	-1E+10	1	-1E+10	1
4902554	102	C	12/06/2023	02:59	-133.631	47.549	0	948.00	0	3.2390	0	34.3380	0	27.341	0	937.942	0	-1e10	8	-1e10	8	-1E+10	1	-1E+10	1	-1E+10	1	-1E+10	1	-1E+10	1	-1E+10	1
4902554	102	C	12/06/2023	02:59	-133.631	47.549	0	953.10	0	3.2350	0	34.3390	0	27.342	0	942.976	0	-1e10	8	-1e10	8	-1E+10	1	-1E+10	1	-1E+10	1	-1E+10	1	-1E+10	1	-1E+10	1
4902554	102	C	12/06/2023	02:59	-133.631	47.549	0	958.00	0	3.2320	0	34.3400	0	27.343	0	947.813	0	-1e10	8	-1e10	8	-1E+10	1	-1E+10	1	-1E+10	1	-1E+10	1	-1E+10	1	-1E+10	1
4902554	102	C	12/06/2023	02:59	-133.631	47.549	0	963.00	0	3.2200	0	34.3420	0	27.346	0	952.749	0	-1e10	8	-1e10	8	-1E+10	1	-1E+10	1	-1E+10	1	-1E+10	1	-1E+10	1	-1E+10	1
4902554	102	C	12/06/2023	02:59	-133.631	47.549	0	967.80	0	3.2160	0	34.3430	0	27.347	0	957.487	0	-1e10	8	-1e10	8	-1E+10	1	-1E+10	1	-1E+10	1	-1E+10	1	-1E+10	1	-1E+10	1
4902554	102	C	12/06/2023	02:59	-133.631	47.549	0	973.00	0	3.2080	0	34.3430	0	27.348	0	962.619	0	-1e10	8	-1e10	8	-1E+10	1	-1E+10	1	-1E+10	1	-1E+10	1	-1E+10	1	-1E+10	1
4902554	102	C	12/06/2023	02:59	-133.631	47.549	0	978.20	0	3.1900	0	34.3440	0	27.350	0	967.752	0	-1e10	8	-1e10	8	-1E+10	1	-1E+10	1	-1E+10	1	-1E+10	1	-1E+10	1	-1E+10	1
4902554	102	C	12/06/2023	02:59	-133.631	47.549	0	983.00	0	3.1790	0	34.3450	0	27.352	0	972.489	0	-1e10	8	-1e10	8	-1E+10	1	-1E+10	1	-1E+10	1	-1E+10	1	-1E+10	1	-1E+10	1
4902554	102	C	12/06/2023	02:59	-133.631	47.549	0	987.70	0	3.1660	0	34.3480	0	27.356	0	977.128	0	-1e10	8	-1e10	8	-1E+10	1	-1E+10	1	-1E+10	1	-1E+10	1	-1E+10	1	-1E+10	1
4902554	102	C	12/06/2023	02:59	-133.631	47.549	0	992.90	0	3.1470	0	34.3510	0	27.360	0	982.260	0	-1e10	8	-1e10	8	-1E+10	1	-1E+10	1	-1E+10	1	-1E+10	1	-1E+10	1	-1E+10	1
4902554	102	C	12/06/2023	02:59	-133.631	47.549	0	998.10	0	3.1380	0	34.3530	0	27.362	0	987.392	0	-1e10	8	-1e10	8	-1E+10	1	-1E+10	1	-1E+10	1	-1E+10	1	-1E+10	1	-1E+10	1
4902554	102	C	12/06/2023	02:59	-133.631	47.549	0	1005.80	0	3.1250	0	34.3570	0	27.367	0	994.991	0	-1e10	8	-1e10	8	-1E+10	1	-1E+10	1	-1E+10	1	-1E+10	1	-1E+10	1	-1E+10	1
4902554	102	C	12/06/2023	02:59	-133.631	47.549	0	1015.60	0	3.1130	0	34.3590	0	27.370	0	1004.663	0	-1e10	8	-1e10	8	-1E+10	1	-1E+10	1	-1E+10	1	-1E+10	1	-1E+10	1	-1E+10	1
4902554	102	C	12/06/2023	02:59	-133.631	47.549	0	1025.40	0	3.0990	0	34.3620	0	27.373	0	1014.333	0	-1e10	8	-1e10	8	-1E+10	1	-1E+10	1	-1E+10	1	-1E+10	1	-1E+10	1	-1E+10	1
4902554	102	C	12/06/2023	02:59	-133.631	47.549	0	1035.50	0	3.0830	0	34.3660	0	27.378	0	1024.300	0	-1e10	8	-1e10	8	-1E+10	1	-1E+10	1	-1E+10	1	-1E+10	1	-1E+10	1	-1E+10	1
4902554	102	C	12/06/2023	02:59	-133.631	47.549	0	1045.70	0	3.0660	0	34.3700	0	27.383	0	1034.364	0	-1e10	8	-1e10	8	-1E+10	1	-1E+10	1	-1E+10	1	-1E+10	1	-1E+10	1	-1E+10	1
4902554	102	C	12/06/2023	02:59	-133.631	47.549	0	1055.60	0	3.0400	0	34.3760	0	27.390	0	1044.132	0	-1e10	8	-1e10	8	-1E+10	1	-1E+10	1	-1E+10	1	-1E+10	1	-1E+10	1	-1E+10	1
4902554	102	C	12/06/2023	02:59	-133.631	47.549	0	1065.70	0	3.0190	0	34.3820	0	27.397	0	1054.097	0	-1e10	8	-1e10	8	-1E+10	1	-1E+10	1	-1E+10	1	-1E+10	1	-1E+10	1	-1E+10	1
4902554	102	C	12/06/2023	02:59	-133.631	47.549	0	1075.50	0	3.0060	0	34.3850	0	27.400	0	1063.766	0	-1e10	8	-1e10	8	-1E+10	1	-1E+10	1	-1E+10	1	-1E+10	1	-1E+10	1	-1E+10	1
4902554	102	C	12/06/2023	02:59	-133.631	47.549	0	1085.60	0	2.9900	0	34.3890	0	27.405	0	1073.730	0	-1e10	8	-1e10	8	-1E+10	1	-1E+10	1	-1E+10	1	-1E+10	1	-1E+10	1	-1E+10	1
4902554	102	C	12/06/2023	02:59	-133.631	47.549	0	1095.50	0	2.9750	0	34.3910	0	27.408	0	1083.496	0	-1e10	8	-1e10	8	-1E+10	1	-1E+10	1	-1E+10	1	-1E+10	1	-1E+10	1	-1E+10	1
4902554	102	C	12/06/2023	02:59	-133.631	47.549	0	1105.20	0	2.9600	0	34.3940	0	27.412	0	1093.064	0	-1e10	8	-1e10	8	-1E+10	1	-1E+10	1	-1E+10	1	-1E+10	1	-1E+10	1	-1E+10	1
4902554	102	C	12/06/2023	02:59	-133.631	47.549	0	1115.30	0	2.9440	0	34.3960	0	27.415	0	1103.027	0	-1e10	8	-1e10	8	-1E+10	1	-1E+10	1	-1E+10	1	-1E+10	1	-1E+10	1	-1E+10	1
4902554	102	C	12/06/2023	02:59	-133.631	47.549	0	1125.40	0	2.9310	0	34.4020	0	27.421	0	1112.989	0	-1e10	8	-1e10	8	-1E+10	1	-1E+10	1	-1E+10	1	-1E+10	1	-1E+10	1	-1E+10	1
4902554	102	C	12/06/2023	02:59	-133.631	47.549	0	1135.30	0	2.9150	0	34.4080	0	27.427	0	1122.753	0	-1e10	8	-1e10	8	-1E+10	1	-1E+10	1	-1E+10	1	-1E+10	1	-1E+10	1	-1E+10	1
4902554	102	C	12/06/2023	02:59	-133.631	47.549	0	1145.40	0	2.8930	0	34.4130	0	27.433	0	1132.715	0	-1e10	8	-1e10	8	-1E+10	1	-1E+10	1	-1E+10	1	-1E+10	1	-1E+10	1	-1E+10	1
4902554	102	C	12/06/2023	02:59	-133.631	47.549	0	1155.50	0	2.8870	0	34.4150	0	27.435	0	1142.675	0	-1e10	8	-1e10	8	-1E+10	1	-1E+10	1	-1E+10	1	-1E+10	1	-1E+10	1	-1E+10	1
4902554	102	C	12/06/2023	02:59	-133.631	47.549	0	1165.60	0	2.8720	0	34.4180	0	27.439	0	1152.635	0	-1e10	8	-1e10	8	-1E+10	1	-1E+10	1	-1E+10	1	-1E+10	1	-1E+10	1	-1E+10	1
4902554	102	C	12/06/2023	02:59	-133.631	47.549	0	1175.70	0	2.8620	0	34.4200	0	27.442	0	1162.595	0	-1e10	8	-1e10	8	-1E+10	1	-1E+10	1	-1E+10	1	-1E+10	1	-1E+10	1	-1E+10	1
4902554	102	C	12/06/2023	02:59	-133.631	47.549	0	1185.80	0	2.8490	0	34.4230	0	27.445	0	1172.555	0	-1e10	8	-1e10	8	-1E+10	1	-1E+10	1	-1E+10	1	-1E+10	1	-1E+10	1	-1E+10	1
4902554	102	C	12/06/2023	02:59	-133.631	47.549	0	1195.80	0	2.8320	0	34.4260	0	27.449	0	1182.415	0	-1e10	8	-1e10	8	-1E+10	1	-1E+10	1	-1E+10	1	-1E+10	1	-1E+10	1	-1E+10	1
4902554	102	C	12/06/2023	02:59	-133.631	47.549	0	1205.70	0	2.8270	0	34.4300	0	27.453	0	1192.176	0	-1e10	8	-1e10	8	-1E+10	1	-1E+10	1	-1E+10	1	-1E+10	1	-1E+10	1	-1E+10	1
4902554	102	C	12/06/2023	02:59	-133.631	47.549	0	1215.70	0	2.8080	0	34.4340	0	27.458	0	1202.035	0	-1e10	8	-1e10	8	-1E+10	1	-1E+10	1	-1E+10	1	-1E+10	1	-1E+10	1	-1E+10	1
4902554	102	C	12/06/2023	02:59	-133.631	47.549	0	1225.70	0	2.7760	0	34.4350	0	27.462	0	1211.894	0	-1e10	8	-1e10	8	-1E+10	1	-1E+10	1	-1E+10	1	-1E+10	1	-1E+10	1	-1E+10	1
4902554	102	C	12/06/2023	02:59	-133.631	47.549	0	1235.80	0	2.7520	0	34.4370	0	27.465	0	1221.851	0	-1e10	8	-1e10	8	-1E+10	1	-1E+10	1	-1E+10	1	-1E+10	1	-1E+10	1	-1E+10	1
4902554	102	C	12/06/2023	02:59	-133.631	47.549	0	1245.40	0	2.7300	0	34.4400	0	27.470	0	1231.314	0	-1e10	8	-1e10	8	-1E+10	1	-1E+10	1	-1E+10	1	-1E+10	1	-1E+10	1	-1E+10	1
4902554	102	C	12/06/2023	02:59	-133.631	47.549	0	1255.30	0	2.7070	0	34.4440	0	27.475	0	1241.073	0	-1e10	8	-1e10	8	-1E+10	1	-1E+10	1	-1E+10	1	-1E+10	1	-1E+10	1	-1E+10	1
4902554	102	C	12/06/2023	02:59	-133.631	47.549	0	1265.30	0	2.6910	0	34.4480	0	27.480	0	1250.930	0	-1e10	8	-1e10	8	-1E+10	1	-1E+10	1	-1E+10	1	-1E+10	1	-1E+10	1	-1E+10	1
4902554	102	C	12/06/2023	02:59	-133.631	47.549	0	1275.00	0	2.6700	0	34.4540	0	27.486	0	1260.491	0	-1e10	8	-1e10	8	-1E+10	1	-1E+10	1	-1E+10	1	-1E+10	1	-1E+10	1	-1E+10	1
4902554	102	C	12/06/2023	02:59	-133.631	47.549	0	1285.00	0	2.6520	0	34.4580	0	27.491	0	1270.347	0	-1e10	8	-1e10	8	-1E+10	1	-1E+10	1	-1E+10	1	-1E+10	1	-1E+10	1	-1E+10	1
4902554	102	C	12/06/2023	02:59	-133.631	47.549	0	1295.30	0	2.6390	0	34.4600	0	27.494	0	1280.498	0	-1e10	8	-1e10	8	-1E+10	1	-1E+10	1	-1E+10	1	-1E+10	1	-1E+10	1	-1E+10	1
4902554	102	C	12/06/2023	02:59	-133.631	47.549	0	1305.60	0	2.6210	0	34.4620	0	27.497	0	1290.649	0	-1e10	8	-1e10	8	-1E+10	1	-1E+10	1	-1E+10	1	-1E+10	1	-1E+10	1	-1E+10	1
4902554	102	C	12/06/2023	02:59	-133.631	47.549	0	1315.60	0	2.6050	0	34.4650	0	27.501	0	1300.504	0	-1e10	8	-1e10	8	-1E+10	1	-1E+10	1	-1E+10	1	-1E+10	1	-1E+10	1	-1E+10	1
4902554	102	C	12/06/2023	02:59	-133.631	47.549	0	1325.30	0	2.5930	0	34.4670	0	27.503	0	1310.062	0	-1e10	8	-1e10	8	-1E+10	1	-1E+10	1	-1E+10	1	-1E+10	1	-1E+10	1	-1E+10	1
4902554	102	C	12/06/2023	02:59	-133.631	47.549	0	1335.40	0	2.5840	0	34.4700	0	27.507	0	1320.015	0	-1e10	8	-1e10	8	-1E+10	1	-1E+10	1	-1E+10	1	-1E+10	1	-1E+10	1	-1E+10	1
4902554	102	C	12/06/2023	02:59	-133.631	47.549	0	1345.80	0	2.5740	0	34.4720	0	27.509	0	1330.262	0	-1e10	8	-1e10	8	-1E+10	1	-1E+10	1	-1E+10	1	-1E+10	1	-1E+10	1	-1E+10	1
4902554	102	C	12/06/2023	02:59	-133.631	47.549	0	1355.50	0	2.5590	0	34.4740	0	27.512	0	1339.819	0	-1e10	8	-1e10	8	-1E+10	1	-1E+10	1	-1E+10	1	-1E+10	1	-1E+10	1	-1E+10	1
4902554	102	C	12/06/2023	02:59	-133.631	47.549	0	1365.30	0	2.5540	0	34.4760	0	27.514	0	1349.474	0	-1e10	8	-1e10	8	-1E+10	1	-1E+10	1	-1E+10	1	-1E+10	1	-1E+10	1	-1E+10	1
4902554	102	C	12/06/2023	02:59	-133.631	47.549	0	1375.60	0	2.5480	0	34.4770	0	27.516	0	1359.622	0	-1e10	8	-1e10	8	-1E+10	1	-1E+10	1	-1E+10	1	-1E+10	1	-1E+10	1	-1E+10	1
4902554	102	C	12/06/2023	02:59	-133.631	47.549	0	1385.50	0	2.5460	0	34.4780	0	27.517	0	1369.375	0	-1e10	8	-1e10	8	-1E+10	1	-1E+10	1	-1E+10	1	-1E+10	1	-1E+10	1	-1E+10	1
4902554	102	C	12/06/2023	02:59	-133.631	47.549	0	1395.30	0	2.5380	0	34.4790	0	27.518	0	1379.029	0	-1e10	8	-1e10	8	-1E+10	1	-1E+10	1	-1E+10	1	-1E+10	1	-1E+10	1	-1E+10	1
4902554	102	C	12/06/2023	02:59	-133.631	47.549	0	1405.70	0	2.5220	0	34.4810	0	27.521	0	1389.273	0	-1e10	8	-1e10	8	-1E+10	1	-1E+10	1	-1E+10	1	-1E+10	1	-1E+10	1	-1E+10	1
4902554	102	C	12/06/2023	02:59	-133.631	47.549	0	1415.90	0	2.5110	0	34.4830	0	27.524	0	1399.320	0	-1e10	8	-1e10	8	-1E+10	1	-1E+10	1	-1E+10	1	-1E+10	1	-1E+10	1	-1E+10	1
4902554	102	C	12/06/2023	02:59	-133.631	47.549	0	1425.70	0	2.5030	0	34.4850	0	27.526	0	1408.973	0	-1e10	8	-1e10	8	-1E+10	1	-1E+10	1	-1E+10	1	-1E+10	1	-1E+10	1	-1E+10	1
4902554	102	C	12/06/2023	02:59	-133.631	47.549	0	1435.30	0	2.4920	0	34.4880	0	27.529	0	1418.428	0	-1e10	8	-1e10	8	-1E+10	1	-1E+10	1	-1E+10	1	-1E+10	1	-1E+10	1	-1E+10	1
4902554	102	C	12/06/2023	02:59	-133.631	47.549	0	1445.20	0	2.4720	0	34.4920	0	27.534	0	1428.178	0	-1e10	8	-1e10	8	-1E+10	1	-1E+10	1	-1E+10	1	-1E+10	1	-1E+10	1	-1E+10	1
4902554	102	C	12/06/2023	02:59	-133.631	47.549	0	1455.60	0	2.4570	0	34.4940	0	27.537	0	1438.420	0	-1e10	8	-1e10	8	-1E+10	1	-1E+10	1	-1E+10	1	-1E+10	1	-1E+10	1	-1E+10	1
4902554	102	C	12/06/2023	02:59	-133.631	47.549	0	1465.60	0	2.4430	0	34.4970	0	27.541	0	1448.268	0	-1e10	8	-1e10	8	-1E+10	1	-1E+10	1	-1E+10	1	-1E+10	1	-1E+10	1	-1E+10	1
4902554	102	C	12/06/2023	02:59	-133.631	47.549	0	1475.50	0	2.4270	0	34.5000	0	27.545	0	1458.017	0	-1e10	8	-1e10	8	-1E+10	1	-1E+10	1	-1E+10	1	-1E+10	1	-1E+10	1	-1E+10	1
4902554	102	C	12/06/2023	02:59	-133.631	47.549	0	1485.30	0	2.4110	0	34.5030	0	27.548	0	1467.666	0	-1e10	8	-1e10	8	-1E+10	1	-1E+10	1	-1E+10	1	-1E+10	1	-1E+10	1	-1E+10	1
4902554	102	C	12/06/2023	02:59	-133.631	47.549	0	1495.00	0	2.3950	0	34.5050	0	27.551	0	1477.217	0	-1e10	8	-1e10	8	-1E+10	1	-1E+10	1	-1E+10	1	-1E+10	1	-1E+10	1	-1E+10	1
4902554	102	C	12/06/2023	02:59	-133.631	47.549	0	1505.10	0	2.3720	0	34.5090	0	27.556	0	1487.162	0	-1e10	8	-1e10	8	-1E+10	1	-1E+10	1	-1E+10	1	-1E+10	1	-1E+10	1	-1E+10	1
4902554	102	C	12/06/2023	02:59	-133.631	47.549	0	1515.40	0	2.3460	0	34.5130	0	27.562	0	1497.302	0	-1e10	8	-1e10	8	-1E+10	1	-1E+10	1	-1E+10	1	-1E+10	1	-1E+10	1	-1E+10	1
4902554	102	C	12/06/2023	02:59	-133.631	47.549	0	1525.80	0	2.3280	0	34.5160	0	27.566	0	1507.541	0	-1e10	8	-1e10	8	-1E+10	1	-1E+10	1	-1E+10	1	-1E+10	1	-1E+10	1	-1E+10	1
4902554	102	C	12/06/2023	02:59	-133.631	47.549	0	1535.80	0	2.3130	0	34.5190	0	27.569	0	1517.386	0	-1e10	8	-1e10	8	-1E+10	1	-1E+10	1	-1E+10	1	-1E+10	1	-1E+10	1	-1E+10	1
4902554	102	C	12/06/2023	02:59	-133.631	47.549	0	1545.50	0	2.2970	0	34.5220	0	27.573	0	1526.934	0	-1e10	8	-1e10	8	-1E+10	1	-1E+10	1	-1E+10	1	-1E+10	1	-1E+10	1	-1E+10	1
4902554	102	C	12/06/2023	02:59	-133.631	47.549	0	1555.30	0	2.2820	0	34.5240	0	27.576	0	1536.581	0	-1e10	8	-1e10	8	-1E+10	1	-1E+10	1	-1E+10	1	-1E+10	1	-1E+10	1	-1E+10	1
4902554	102	C	12/06/2023	02:59	-133.631	47.549	0	1565.20	0	2.2640	0	34.5270	0	27.580	0	1546.326	0	-1e10	8	-1e10	8	-1E+10	1	-1E+10	1	-1E+10	1	-1E+10	1	-1E+10	1	-1E+10	1
4902554	102	C	12/06/2023	02:59	-133.631	47.549	0	1575.30	0	2.2530	0	34.5300	0	27.583	0	1556.267	0	-1e10	8	-1e10	8	-1E+10	1	-1E+10	1	-1E+10	1	-1E+10	1	-1E+10	1	-1E+10	1
4902554	102	C	12/06/2023	02:59	-133.631	47.549	0	1585.40	0	2.2460	0	34.5310	0	27.585	0	1566.208	0	-1e10	8	-1e10	8	-1E+10	1	-1E+10	1	-1E+10	1	-1E+10	1	-1E+10	1	-1E+10	1
4902554	102	C	12/06/2023	02:59	-133.631	47.549	0	1595.30	0	2.2350	0	34.5320	0	27.587	0	1575.951	0	-1e10	8	-1e10	8	-1E+10	1	-1E+10	1	-1E+10	1	-1E+10	1	-1E+10	1	-1E+10	1
4902554	102	C	12/06/2023	02:59	-133.631	47.549	0	1605.10	0	2.2230	0	34.5340	0	27.589	0	1585.595	0	-1e10	8	-1e10	8	-1E+10	1	-1E+10	1	-1E+10	1	-1E+10	1	-1E+10	1	-1E+10	1
4902554	102	C	12/06/2023	02:59	-133.631	47.549	0	1615.20	0	2.2110	0	34.5350	0	27.591	0	1595.534	0	-1e10	8	-1e10	8	-1E+10	1	-1E+10	1	-1E+10	1	-1E+10	1	-1E+10	1	-1E+10	1
4902554	102	C	12/06/2023	02:59	-133.631	47.549	0	1625.40	0	2.2030	0	34.5370	0	27.593	0	1605.572	0	-1e10	8	-1e10	8	-1E+10	1	-1E+10	1	-1E+10	1	-1E+10	1	-1E+10	1	-1E+10	1
4902554	102	C	12/06/2023	02:59	-133.631	47.549	0	1635.50	0	2.1970	0	34.5380	0	27.595	0	1615.510	0	-1e10	8	-1e10	8	-1E+10	1	-1E+10	1	-1E+10	1	-1E+10	1	-1E+10	1	-1E+10	1
4902554	102	C	12/06/2023	02:59	-133.631	47.549	0	1645.60	0	2.1830	0	34.5410	0	27.598	0	1625.448	0	-1e10	8	-1e10	8	-1E+10	1	-1E+10	1	-1E+10	1	-1E+10	1	-1E+10	1	-1E+10	1
4902554	102	C	12/06/2023	02:59	-133.631	47.549	0	1655.10	0	2.1710	0	34.5430	0	27.601	0	1634.795	0	-1e10	8	-1e10	8	-1E+10	1	-1E+10	1	-1E+10	1	-1E+10	1	-1E+10	1	-1E+10	1
4902554	102	C	12/06/2023	02:59	-133.631	47.549	0	1665.10	0	2.1600	0	34.5450	0	27.603	0	1644.633	0	-1e10	8	-1e10	8	-1E+10	1	-1E+10	1	-1E+10	1	-1E+10	1	-1E+10	1	-1E+10	1
4902554	102	C	12/06/2023	02:59	-133.631	47.549	0	1675.20	0	2.1490	0	34.5470	0	27.606	0	1654.570	0	-1e10	8	-1e10	8	-1E+10	1	-1E+10	1	-1E+10	1	-1E+10	1	-1E+10	1	-1E+10	1
4902554	102	C	12/06/2023	02:59	-133.631	47.549	0	1685.30	0	2.1370	0	34.5490	0	27.608	0	1664.506	0	-1e10	8	-1e10	8	-1E+10	1	-1E+10	1	-1E+10	1	-1E+10	1	-1E+10	1	-1E+10	1
4902554	102	C	12/06/2023	02:59	-133.631	47.549	0	1695.20	0	2.1300	0	34.5500	0	27.610	0	1674.245	0	-1e10	8	-1e10	8	-1E+10	1	-1E+10	1	-1E+10	1	-1E+10	1	-1E+10	1	-1E+10	1
4902554	102	C	12/06/2023	02:59	-133.631	47.549	0	1705.50	0	2.1250	0	34.5510	0	27.611	0	1684.376	0	-1e10	8	-1e10	8	-1E+10	1	-1E+10	1	-1E+10	1	-1E+10	1	-1E+10	1	-1E+10	1
4902554	102	C	12/06/2023	02:59	-133.631	47.549	0	1715.50	0	2.1180	0	34.5530	0	27.613	0	1694.213	0	-1e10	8	-1e10	8	-1E+10	1	-1E+10	1	-1E+10	1	-1E+10	1	-1E+10	1	-1E+10	1
4902554	102	C	12/06/2023	02:59	-133.631	47.549	0	1725.10	0	2.1100	0	34.5540	0	27.615	0	1703.655	0	-1e10	8	-1e10	8	-1E+10	1	-1E+10	1	-1E+10	1	-1E+10	1	-1E+10	1	-1E+10	1
4902554	102	C	12/06/2023	02:59	-133.631	47.549	0	1735.30	0	2.1040	0	34.5550	0	27.616	0	1713.687	0	-1e10	8	-1e10	8	-1E+10	1	-1E+10	1	-1E+10	1	-1E+10	1	-1E+10	1	-1E+10	1
4902554	102	C	12/06/2023	02:59	-133.631	47.549	0	1745.70	0	2.0930	0	34.5570	0	27.619	0	1723.915	0	-1e10	8	-1e10	8	-1E+10	1	-1E+10	1	-1E+10	1	-1E+10	1	-1E+10	1	-1E+10	1
4902554	102	C	12/06/2023	02:59	-133.631	47.549	0	1755.70	0	2.0890	0	34.5580	0	27.620	0	1733.750	0	-1e10	8	-1e10	8	-1E+10	1	-1E+10	1	-1E+10	1	-1E+10	1	-1E+10	1	-1E+10	1
4902554	102	C	12/06/2023	02:59	-133.631	47.549	0	1765.50	0	2.0850	0	34.5590	0	27.621	0	1743.387	0	-1e10	8	-1e10	8	-1E+10	1	-1E+10	1	-1E+10	1	-1E+10	1	-1E+10	1	-1E+10	1
4902554	102	C	12/06/2023	02:59	-133.631	47.549	0	1775.40	0	2.0760	0	34.5600	0	27.623	0	1753.122	0	-1e10	8	-1e10	8	-1E+10	1	-1E+10	1	-1E+10	1	-1E+10	1	-1E+10	1	-1E+10	1
4902554	102	C	12/06/2023	02:59	-133.631	47.549	0	1785.30	0	2.0720	0	34.5610	0	27.624	0	1762.857	0	-1e10	8	-1e10	8	-1E+10	1	-1E+10	1	-1E+10	1	-1E+10	1	-1E+10	1	-1E+10	1
4902554	102	C	12/06/2023	02:59	-133.631	47.549	0	1795.00	0	2.0670	0	34.5620	0	27.625	0	1772.394	0	-1e10	8	-1e10	8	-1E+10	1	-1E+10	1	-1E+10	1	-1E+10	1	-1E+10	1	-1E+10	1
4902554	102	C	12/06/2023	02:59	-133.631	47.549	0	1805.10	0	2.0620	0	34.5630	0	27.626	0	1782.325	0	-1e10	8	-1e10	8	-1E+10	1	-1E+10	1	-1E+10	1	-1E+10	1	-1E+10	1	-1E+10	1
4902554	102	C	12/06/2023	02:59	-133.631	47.549	0	1815.10	0	2.0490	0	34.5650	0	27.629	0	1792.156	0	-1e10	8	-1e10	8	-1E+10	1	-1E+10	1	-1E+10	1	-1E+10	1	-1E+10	1	-1E+10	1
4902554	102	C	12/06/2023	02:59	-133.631	47.549	0	1825.50	0	2.0420	0	34.5670	0	27.631	0	1802.381	0	-1e10	8	-1e10	8	-1E+10	1	-1E+10	1	-1E+10	1	-1E+10	1	-1E+10	1	-1E+10	1
4902554	102	C	12/06/2023	02:59	-133.631	47.549	0	1835.70	0	2.0350	0	34.5680	0	27.633	0	1812.408	0	-1e10	8	-1e10	8	-1E+10	1	-1E+10	1	-1E+10	1	-1E+10	1	-1E+10	1	-1E+10	1
4902554	102	C	12/06/2023	02:59	-133.631	47.549	0	1845.20	0	2.0240	0	34.5700	0	27.635	0	1821.747	0	-1e10	8	-1e10	8	-1E+10	1	-1E+10	1	-1E+10	1	-1E+10	1	-1E+10	1	-1E+10	1
4902554	102	C	12/06/2023	02:59	-133.631	47.549	0	1855.10	0	2.0150	0	34.5710	0	27.637	0	1831.479	0	-1e10	8	-1e10	8	-1E+10	1	-1E+10	1	-1E+10	1	-1E+10	1	-1E+10	1	-1E+10	1
4902554	102	C	12/06/2023	02:59	-133.631	47.549	0	1865.50	0	2.0040	0	34.5740	0	27.640	0	1841.701	0	-1e10	8	-1e10	8	-1E+10	1	-1E+10	1	-1E+10	1	-1E+10	1	-1E+10	1	-1E+10	1
4902554	102	C	12/06/2023	02:59	-133.631	47.549	0	1875.40	0	1.9950	0	34.5750	0	27.641	0	1851.432	0	-1e10	8	-1e10	8	-1E+10	1	-1E+10	1	-1E+10	1	-1E+10	1	-1E+10	1	-1E+10	1
4902554	102	C	12/06/2023	02:59	-133.631	47.549	0	1885.40	0	1.9880	0	34.5770	0	27.644	0	1861.260	0	-1e10	8	-1e10	8	-1E+10	1	-1E+10	1	-1E+10	1	-1E+10	1	-1E+10	1	-1E+10	1
4902554	102	C	12/06/2023	02:59	-133.631	47.549	0	1895.50	0	1.9800	0	34.5780	0	27.645	0	1871.187	0	-1e10	8	-1e10	8	-1E+10	1	-1E+10	1	-1E+10	1	-1E+10	1	-1E+10	1	-1E+10	1
4902554	102	C	12/06/2023	02:59	-133.631	47.549	0	1905.40	0	1.9740	0	34.5800	0	27.647	0	1880.916	0	-1e10	8	-1e10	8	-1E+10	1	-1E+10	1	-1E+10	1	-1E+10	1	-1E+10	1	-1E+10	1
4902554	102	C	12/06/2023	02:59	-133.631	47.549	0	1915.40	0	1.9700	0	34.5810	0	27.648	0	1890.743	0	-1e10	8	-1e10	8	-1E+10	1	-1E+10	1	-1E+10	1	-1E+10	1	-1E+10	1	-1E+10	1
4902554	102	C	12/06/2023	02:59	-133.631	47.549	0	1925.20	0	1.9640	0	34.5820	0	27.650	0	1900.373	0	-1e10	8	-1e10	8	-1E+10	1	-1E+10	1	-1E+10	1	-1E+10	1	-1E+10	1	-1E+10	1
4902554	102	C	12/06/2023	02:59	-133.631	47.549	0	1935.20	0	1.9590	0	34.5830	0	27.651	0	1910.199	0	-1e10	8	-1e10	8	-1E+10	1	-1E+10	1	-1E+10	1	-1E+10	1	-1E+10	1	-1E+10	1
4902554	102	C	12/06/2023	02:59	-133.631	47.549	0	1945.10	0	1.9520	0	34.5840	0	27.652	0	1919.927	0	-1e10	8	-1e10	8	-1E+10	1	-1E+10	1	-1E+10	1	-1E+10	1	-1E+10	1	-1E+10	1
4902554	102	C	12/06/2023	02:59	-133.631	47.549	0	1955.20	0	1.9440	0	34.5860	0	27.655	0	1929.850	0	-1e10	8	-1e10	8	-1E+10	1	-1E+10	1	-1E+10	1	-1E+10	1	-1E+10	1	-1E+10	1
4902554	102	C	12/06/2023	02:59	-133.631	47.549	0	1965.20	0	1.9400	0	34.5870	0	27.656	0	1939.675	0	-1e10	8	-1e10	8	-1E+10	1	-1E+10	1	-1E+10	1	-1E+10	1	-1E+10	1	-1E+10	1
4902554	102	C	12/06/2023	02:59	-133.631	47.549	0	1975.20	0	1.9340	0	34.5880	0	27.657	0	1949.500	0	-1e10	8	-1e10	8	-1E+10	1	-1E+10	1	-1E+10	1	-1E+10	1	-1E+10	1	-1E+10	1
4902554	102	C	12/06/2023	02:59	-133.631	47.549	0	1985.50	0	1.9280	0	34.5890	0	27.658	0	1959.618	0	-1e10	8	-1e10	8	-1E+10	1	-1E+10	1	-1E+10	1	-1E+10	1	-1E+10	1	-1E+10	1
4902554	102	C	12/06/2023	02:59	-133.631	47.549	0	1992.70	0	1.9220	0	34.5900	0	27.660	0	1966.691	0	-1e10	8	-1e10	8	-1E+10	1	-1E+10	1	-1E+10	1	-1E+10	1	-1E+10	1	-1E+10	1
4902554	102	C	12/06/2023	02:59	-133.631	47.549	0																										
4902554	103	C	12/16/2023	08:07	-133.724	47.508	0	1.60	0	10.0050	0	32.3020	0	24.845	0	1.587	0	-1e10	8	-1e10	8	-1E+10	1	-1E+10	1	-1E+10	1	-1E+10	1	-1E+10	1	-1E+10	1
4902554	103	C	12/16/2023	08:07	-133.724	47.508	0	1.80	0	10.0060	0	32.3040	0	24.847	0	1.785	0	-1e10	8	-1e10	8	-1E+10	1	-1E+10	1	-1E+10	1	-1E+10	1	-1E+10	1	-1E+10	1
4902554	103	C	12/16/2023	08:07	-133.724	47.508	0	2.30	0	10.0080	0	32.2990	0	24.843	0	2.281	0	-1e10	8	-1e10	8	-1E+10	1	-1E+10	1	-1E+10	1	-1E+10	1	-1E+10	1	-1E+10	1
4902554	103	C	12/16/2023	08:07	-133.724	47.508	0	2.90	0	10.0070	0	32.2990	0	24.843	0	2.876	0	-1e10	8	-1e10	8	-1E+10	1	-1E+10	1	-1E+10	1	-1E+10	1	-1E+10	1	-1E+10	1
4902554	103	C	12/16/2023	08:07	-133.724	47.508	0	3.50	0	10.0100	0	32.2990	0	24.842	0	3.471	0	-1e10	8	-1e10	8	-1E+10	1	-1E+10	1	-1E+10	1	-1E+10	1	-1E+10	1	-1E+10	1
4902554	103	C	12/16/2023	08:07	-133.724	47.508	0	3.90	0	10.0100	0	32.3070	0	24.849	0	3.867	0	-1e10	1	-1e10	1	-1E+10	1	-1E+10	1	-1E+10	1	-1E+10	1	-1E+10	1	-1E+10	1
4902554	103	C	12/16/2023	08:07	-133.724	47.508	0	4.10	0	10.0105	0	32.3068	0	24.848	0	4.066	0	-1e10	8	-1e10	8	-1E+10	1	-1E+10	1	-1E+10	1	-1E+10	1	-1E+10	1	-1E+10	1
4902554	103	C	12/16/2023	08:07	-133.724	47.508	0	5.10	0	10.0130	0	32.3060	0	24.847	0	5.057	0	-1e10	8	-1e10	8	-1E+10	1	-1E+10	1	-1E+10	1	-1E+10	1	-1E+10	1	-1E+10	1
4902554	103	C	12/16/2023	08:07	-133.724	47.508	0	6.00	0	10.0120	0	32.3050	0	24.847	0	5.950	0	-1e10	8	-1e10	8	-1E+10	1	-1E+10	1	-1E+10	1	-1E+10	1	-1E+10	1	-1E+10	1
4902554	103	C	12/16/2023	08:07	-133.724	47.508	0	7.00	0	10.0120	0	32.3060	0	24.848	0	6.941	0	-1e10	8	-1e10	8	-1E+10	1	-1E+10	1	-1E+10	1	-1E+10	1	-1E+10	1	-1E+10	1
4902554	103	C	12/16/2023	08:07	-133.724	47.508	0	8.10	0	10.0120	0	32.3060	0	24.848	0	8.032	0	-1e10	8	-1e10	8	-1E+10	1	-1E+10	1	-1E+10	1	-1E+10	1	-1E+10	1	-1E+10	1
4902554	103	C	12/16/2023	08:07	-133.724	47.508	0	9.10	0	10.0120	0	32.3060	0	24.848	0	9.024	0	-1e10	8	-1e10	8	-1E+10	1	-1E+10	1	-1E+10	1	-1E+10	1	-1E+10	1	-1E+10	1
4902554	103	C	12/16/2023	08:07	-133.724	47.508	0	10.00	0	10.0110	0	32.3060	0	24.848	0	9.916	0	-1e10	8	-1e10	8	-1E+10	1	-1E+10	1	-1E+10	1	-1E+10	1	-1E+10	1	-1E+10	1
4902554	103	C	12/16/2023	08:07	-133.724	47.508	0	11.10	0	10.0110	0	32.3060	0	24.848	0	11.007	0	-1e10	8	-1e10	8	-1E+10	1	-1E+10	1	-1E+10	1	-1E+10	1	-1E+10	1	-1E+10	1
4902554	103	C	12/16/2023	08:07	-133.724	47.508	0	11.90	0	10.0120	0	32.3060	0	24.848	0	11.800	0	-1e10	8	-1e10	8	-1E+10	1	-1E+10	1	-1E+10	1	-1E+10	1	-1E+10	1	-1E+10	1
4902554	103	C	12/16/2023	08:07	-133.724	47.508	0	13.10	0	10.0130	0	32.3060	0	24.847	0	12.990	0	-1e10	8	-1e10	8	-1E+10	1	-1E+10	1	-1E+10	1	-1E+10	1	-1E+10	1	-1E+10	1
4902554	103	C	12/16/2023	08:07	-133.724	47.508	0	14.10	0	10.0140	0	32.3060	0	24.847	0	13.982	0	-1e10	8	-1e10	8	-1E+10	1	-1E+10	1	-1E+10	1	-1E+10	1	-1E+10	1	-1E+10	1
4902554	103	C	12/16/2023	08:07	-133.724	47.508	0	15.00	0	10.0130	0	32.3060	0	24.848	0	14.874	0	-1e10	8	-1e10	8	-1E+10	1	-1E+10	1	-1E+10	1	-1E+10	1	-1E+10	1	-1E+10	1
4902554	103	C	12/16/2023	08:07	-133.724	47.508	0	16.10	0	10.0120	0	32.3060	0	24.848	0	15.965	0	-1e10	8	-1e10	8	-1E+10	1	-1E+10	1	-1E+10	1	-1E+10	1	-1E+10	1	-1E+10	1
4902554	103	C	12/16/2023	08:07	-133.724	47.508	0	17.00	0	10.0150	0	32.3050	0	24.846	0	16.857	0	-1e10	8	-1e10	8	-1E+10	1	-1E+10	1	-1E+10	1	-1E+10	1	-1E+10	1	-1E+10	1
4902554	103	C	12/16/2023	08:07	-133.724	47.508	0	17.90	0	10.0140	0	32.3050	0	24.847	0	17.750	0	-1e10	8	-1e10	8	-1E+10	1	-1E+10	1	-1E+10	1	-1E+10	1	-1E+10	1	-1E+10	1
4902554	103	C	12/16/2023	08:07	-133.724	47.508	0	18.90	0	10.0150	0	32.3060	0	24.847	0	18.741	0	-1e10	8	-1e10	8	-1E+10	1	-1E+10	1	-1E+10	1	-1E+10	1	-1E+10	1	-1E+10	1
4902554	103	C	12/16/2023	08:07	-133.724	47.508	0	19.90	0	10.0160	0	32.3060	0	24.847	0	19.733	0	-1e10	8	-1e10	8	-1E+10	1	-1E+10	1	-1E+10	1	-1E+10	1	-1E+10	1	-1E+10	1
4902554	103	C	12/16/2023	08:07	-133.724	47.508	0	20.90	0	10.0160	0	32.3050	0	24.846	0	20.725	0	-1e10	8	-1e10	8	-1E+10	1	-1E+10	1	-1E+10	1	-1E+10	1	-1E+10	1	-1E+10	1
4902554	103	C	12/16/2023	08:07	-133.724	47.508	0	21.90	0	10.0160	0	32.3060	0	24.847	0	21.716	0	-1e10	8	-1e10	8	-1E+10	1	-1E+10	1	-1E+10	1	-1E+10	1	-1E+10	1	-1E+10	1
4902554	103	C	12/16/2023	08:07	-133.724	47.508	0	23.10	0	10.0160	0	32.3060	0	24.847	0	22.906	0	-1e10	8	-1e10	8	-1E+10	1	-1E+10	1	-1E+10	1	-1E+10	1	-1E+10	1	-1E+10	1
4902554	103	C	12/16/2023	08:07	-133.724	47.508	0	23.80	0	10.0160	0	32.3060	0	24.847	0	23.600	0	-1e10	8	-1e10	8	-1E+10	1	-1E+10	1	-1E+10	1	-1E+10	1	-1E+10	1	-1E+10	1
4902554	103	C	12/16/2023	08:07	-133.724	47.508	0	24.80	0	10.0160	0	32.3050	0	24.846	0	24.592	0	-1e10	8	-1e10	8	-1E+10	1	-1E+10	1	-1E+10	1	-1E+10	1	-1E+10	1	-1E+10	1
4902554	103	C	12/16/2023	08:07	-133.724	47.508	0	25.90	0	10.0170	0	32.3060	0	24.847	0	25.682	0	-1e10	8	-1e10	8	-1E+10	1	-1E+10	1	-1E+10	1	-1E+10	1	-1E+10	1	-1E+10	1
4902554	103	C	12/16/2023	08:07	-133.724	47.508	0	26.80	0	10.0170	0	32.3050	0	24.846	0	26.575	0	-1e10	8	-1e10	8	-1E+10	1	-1E+10	1	-1E+10	1	-1E+10	1	-1E+10	1	-1E+10	1
4902554	103	C	12/16/2023	08:07	-133.724	47.508	0	28.10	0	10.0170	0	32.3060	0	24.847	0	27.864	0	-1e10	8	-1e10	8	-1E+10	1	-1E+10	1	-1E+10	1	-1E+10	1	-1E+10	1	-1E+10	1
4902554	103	C	12/16/2023	08:07	-133.724	47.508	0	29.00	0	10.0170	0	32.3060	0	24.847	0	28.756	0	-1e10	8	-1e10	8	-1E+10	1	-1E+10	1	-1E+10	1	-1E+10	1	-1E+10	1	-1E+10	1
4902554	103	C	12/16/2023	08:07	-133.724	47.508	0	29.90	0	10.0170	0	32.3050	0	24.846	0	29.648	0	-1e10	8	-1e10	8	-1E+10	1	-1E+10	1	-1E+10	1	-1E+10	1	-1E+10	1	-1E+10	1
4902554	103	C	12/16/2023	08:07	-133.724	47.508	0	31.10	0	10.0170	0	32.3060	0	24.847	0	30.838	0	-1e10	8	-1e10	8	-1E+10	1	-1E+10	1	-1E+10	1	-1E+10	1	-1E+10	1	-1E+10	1
4902554	103	C	12/16/2023	08:07	-133.724	47.508	0	32.00	0	10.0170	0	32.3060	0	24.847	0	31.730	0	-1e10	8	-1e10	8	-1E+10	1	-1E+10	1	-1E+10	1	-1E+10	1	-1E+10	1	-1E+10	1
4902554	103	C	12/16/2023	08:07	-133.724	47.508	0	32.70	0	10.0170	0	32.3060	0	24.847	0	32.424	0	-1e10	8	-1e10	8	-1E+10	1	-1E+10	1	-1E+10	1	-1E+10	1	-1E+10	1	-1E+10	1
4902554	103	C	12/16/2023	08:07	-133.724	47.508	0	33.90	0	10.0180	0	32.3060	0	24.847	0	33.614	0	-1e10	8	-1e10	8	-1E+10	1	-1E+10	1	-1E+10	1	-1E+10	1	-1E+10	1	-1E+10	1
4902554	103	C	12/16/2023	08:07	-133.724	47.508	0	35.30	0	10.0180	0	32.3050	0	24.846	0	35.002	0	-1e10	8	-1e10	8	-1E+10	1	-1E+10	1	-1E+10	1	-1E+10	1	-1E+10	1	-1E+10	1
4902554	103	C	12/16/2023	08:07	-133.724	47.508	0	36.10	0	10.0180	0	32.3060	0	24.847	0	35.796	0	-1e10	8	-1e10	8	-1E+10	1	-1E+10	1	-1E+10	1	-1E+10	1	-1E+10	1	-1E+10	1
4902554	103	C	12/16/2023	08:07	-133.724	47.508	0	36.90	0	10.0180	0	32.3060	0	24.847	0	36.589	0	-1e10	8	-1e10	8	-1E+10	1	-1E+10	1	-1E+10	1	-1E+10	1	-1E+10	1	-1E+10	1
4902554	103	C	12/16/2023	08:07	-133.724	47.508	0	38.10	0	10.0180	0	32.3060	0	24.847	0	37.779	0	-1e10	8	-1e10	8	-1E+10	1	-1E+10	1	-1E+10	1	-1E+10	1	-1E+10	1	-1E+10	1
4902554	103	C	12/16/2023	08:07	-133.724	47.508	0	38.80	0	10.0180	0	32.3060	0	24.847	0	38.473	0	-1e10	8	-1e10	8	-1E+10	1	-1E+10	1	-1E+10	1	-1E+10	1	-1E+10	1	-1E+10	1
4902554	103	C	12/16/2023	08:07	-133.724	47.508	0	39.90	0	10.0190	0	32.3060	0	24.847	0	39.563	0	-1e10	8	-1e10	8	-1E+10	1	-1E+10	1	-1E+10	1	-1E+10	1	-1E+10	1	-1E+10	1
4902554	103	C	12/16/2023	08:07	-133.724	47.508	0	41.10	0	10.0190	0	32.3060	0	24.847	0	40.753	0	-1e10	8	-1e10	8	-1E+10	1	-1E+10	1	-1E+10	1	-1E+10	1	-1E+10	1	-1E+10	1
4902554	103	C	12/16/2023	08:07	-133.724	47.508	0	42.10	0	10.0190	0	32.3060	0	24.847	0	41.744	0	-1e10	8	-1e10	8	-1E+10	1	-1E+10	1	-1E+10	1	-1E+10	1	-1E+10	1	-1E+10	1
4902554	103	C	12/16/2023	08:07	-133.724	47.508	0	42.80	0	10.0190	0	32.3060	0	24.847	0	42.438	0	-1e10	8	-1e10	8	-1E+10	1	-1E+10	1	-1E+10	1	-1E+10	1	-1E+10	1	-1E+10	1
4902554	103	C	12/16/2023	08:07	-133.724	47.508	0	44.00	0	10.0190	0	32.3060	0	24.847	0	43.628	0	-1e10	8	-1e10	8	-1E+10	1	-1E+10	1	-1E+10	1	-1E+10	1	-1E+10	1	-1E+10	1
4902554	103	C	12/16/2023	08:07	-133.724	47.508	0	45.10	0	10.0190	0	32.3070	0	24.848	0	44.719	0	-1e10	8	-1e10	8	-1E+10	1	-1E+10	1	-1E+10	1	-1E+10	1	-1E+10	1	-1E+10	1
4902554	103	C	12/16/2023	08:07	-133.724	47.508	0	46.10	0	10.0190	0	32.3070	0	24.848	0	45.710	0	-1e10	8	-1e10	8	-1E+10	1	-1E+10	1	-1E+10	1	-1E+10	1	-1E+10	1	-1E+10	1
4902554	103	C	12/16/2023	08:07	-133.724	47.508	0	47.00	0	10.0190	0	32.3070	0	24.848	0	46.602	0	-1e10	8	-1e10	8	-1E+10	1	-1E+10	1	-1E+10	1	-1E+10	1	-1E+10	1	-1E+10	1
4902554	103	C	12/16/2023	08:07	-133.724	47.508	0	47.80	0	10.0190	0	32.3060	0	24.847	0	47.396	0	-1e10	8	-1e10	8	-1E+10	1	-1E+10	1	-1E+10	1	-1E+10	1	-1E+10	1	-1E+10	1
4902554	103	C	12/16/2023	08:07	-133.724	47.508	0	49.00	0	10.0200	0	32.3060	0	24.847	0	48.585	0	-1e10	8	-1e10	8	-1E+10	1	-1E+10	1	-1E+10	1	-1E+10	1	-1E+10	1	-1E+10	1
4902554	103	C	12/16/2023	08:07	-133.724	47.508	0	49.90	0	10.0190	0	32.3060	0	24.847	0	49.478	0	-1e10	8	-1e10	8	-1E+10	1	-1E+10	1	-1E+10	1	-1E+10	1	-1E+10	1	-1E+10	1
4902554	103	C	12/16/2023	08:07	-133.724	47.508	0	51.10	0	10.0190	0	32.3070	0	24.848	0	50.667	0	-1e10	8	-1e10	8	-1E+10	1	-1E+10	1	-1E+10	1	-1E+10	1	-1E+10	1	-1E+10	1
4902554	103	C	12/16/2023	08:07	-133.724	47.508	0	52.10	0	10.0190	0	32.3060	0	24.847	0	51.659	0	-1e10	8	-1e10	8	-1E+10	1	-1E+10	1	-1E+10	1	-1E+10	1	-1E+10	1	-1E+10	1
4902554	103	C	12/16/2023	08:07	-133.724	47.508	0	53.00	0	10.0180	0	32.3070	0	24.848	0	52.551	0	-1e10	8	-1e10	8	-1E+10	1	-1E+10	1	-1E+10	1	-1E+10	1	-1E+10	1	-1E+10	1
4902554	103	C	12/16/2023	08:07	-133.724	47.508	0	53.80	0	10.0190	0	32.3060	0	24.847	0	53.344	0	-1e10	8	-1e10	8	-1E+10	1	-1E+10	1	-1E+10	1	-1E+10	1	-1E+10	1	-1E+10	1
4902554	103	C	12/16/2023	08:07	-133.724	47.508	0	55.00	0	10.0200	0	32.3060	0	24.847	0	54.534	0	-1e10	8	-1e10	8	-1E+10	1	-1E+10	1	-1E+10	1	-1E+10	1	-1E+10	1	-1E+10	1
4902554	103	C	12/16/2023	08:07	-133.724	47.508	0	56.10	0	10.0190	0	32.3070	0	24.848	0	55.624	0	-1e10	8	-1e10	8	-1E+10	1	-1E+10	1	-1E+10	1	-1E+10	1	-1E+10	1	-1E+10	1
4902554	103	C	12/16/2023	08:07	-133.724	47.508	0	57.00	0	10.0190	0	32.3070	0	24.848	0	56.516	0	-1e10	8	-1e10	8	-1E+10	1	-1E+10	1	-1E+10	1	-1E+10	1	-1E+10	1	-1E+10	1
4902554	103	C	12/16/2023	08:07	-133.724	47.508	0	57.80	0	10.0200	0	32.3070	0	24.848	0	57.310	0	-1e10	8	-1e10	8	-1E+10	1	-1E+10	1	-1E+10	1	-1E+10	1	-1E+10	1	-1E+10	1
4902554	103	C	12/16/2023	08:07	-133.724	47.508	0	59.00	0	10.0190	0	32.3070	0	24.848	0	58.499	0	-1e10	8	-1e10	8	-1E+10	1	-1E+10	1	-1E+10	1	-1E+10	1	-1E+10	1	-1E+10	1
4902554	103	C	12/16/2023	08:07	-133.724	47.508	0	60.00	0	10.0200	0	32.3070	0	24.848	0	59.491	0	-1e10	8	-1e10	8	-1E+10	1	-1E+10	1	-1E+10	1	-1E+10	1	-1E+10	1	-1E+10	1
4902554	103	C	12/16/2023	08:07	-133.724	47.508	0	61.10	0	10.0190	0	32.3070	0	24.848	0	60.581	0	-1e10	8	-1e10	8	-1E+10	1	-1E+10	1	-1E+10	1	-1E+10	1	-1E+10	1	-1E+10	1
4902554	103	C	12/16/2023	08:07	-133.724	47.508	0	62.10	0	10.0190	0	32.3070	0	24.848	0	61.572	0	-1e10	8	-1e10	8	-1E+10	1	-1E+10	1	-1E+10	1	-1E+10	1	-1E+10	1	-1E+10	1
4902554	103	C	12/16/2023	08:07	-133.724	47.508	0	63.30	0	10.0200	0	32.3070	0	24.848	0	62.762	0	-1e10	8	-1e10	8	-1E+10	1	-1E+10	1	-1E+10	1	-1E+10	1	-1E+10	1	-1E+10	1
4902554	103	C	12/16/2023	08:07	-133.724	47.508	0	64.20	0	10.0190	0	32.3070	0	24.848	0	63.654	0	-1e10	8	-1e10	8	-1E+10	1	-1E+10	1	-1E+10	1	-1E+10	1	-1E+10	1	-1E+10	1
4902554	103	C	12/16/2023	08:07	-133.724	47.508	0	65.00	0	10.0200	0	32.3070	0	24.848	0	64.447	0	-1e10	8	-1e10	8	-1E+10	1	-1E+10	1	-1E+10	1	-1E+10	1	-1E+10	1	-1E+10	1
4902554	103	C	12/16/2023	08:07	-133.724	47.508	0	66.20	0	10.0200	0	32.3060	0	24.847	0	65.637	0	-1e10	8	-1e10	8	-1E+10	1	-1E+10	1	-1E+10	1	-1E+10	1	-1E+10	1	-1E+10	1
4902554	103	C	12/16/2023	08:07	-133.724	47.508	0	66.90	0	10.0150	0	32.3070	0	24.849	0	66.331	0	-1e10	8	-1e10	8	-1E+10	1	-1E+10	1	-1E+10	1	-1E+10	1	-1E+10	1	-1E+10	1
4902554	103	C	12/16/2023	08:07	-133.724	47.508	0	68.10	0	9.9950	0	32.3140	0	24.858	0	67.520	0	-1e10	8	-1e10	8	-1E+10	1	-1E+10	1	-1E+10	1	-1E+10	1	-1E+10	1	-1E+10	1
4902554	103	C	12/16/2023	08:07	-133.724	47.508	0	68.90	0	9.9170	0	32.3240	0	24.878	0	68.314	0	-1e10	8	-1e10	8	-1E+10	1	-1E+10	1	-1E+10	1	-1E+10	1	-1E+10	1	-1E+10	1
4902554	103	C	12/16/2023	08:07	-133.724	47.508	0	70.10	0	9.8390	0	32.3340	0	24.899	0	69.503	0	-1e10	8	-1e10	8	-1E+10	1	-1E+10	1	-1E+10	1	-1E+10	1	-1E+10	1	-1E+10	1
4902554	103	C	12/16/2023	08:07	-133.724	47.508	0	70.80	0	9.7970	0	32.3350	0	24.907	0	70.197	0	-1e10	8	-1e10	8	-1E+10	1	-1E+10	1	-1E+10	1	-1E+10	1	-1E+10	1	-1E+10	1
4902554	103	C	12/16/2023	08:07	-133.724	47.508	0	72.00	0	9.3180	0	32.4040	0	25.038	0	71.387	0	-1e10	8	-1e10	8	-1E+10	1	-1E+10	1	-1E+10	1	-1E+10	1	-1E+10	1	-1E+10	1
4902554	103	C	12/16/2023	08:07	-133.724	47.508	0	73.10	0	9.0650	0	32.4310	0	25.098	0	72.477	0	-1e10	8	-1e10	8	-1E+10	1	-1E+10	1	-1E+10	1	-1E+10	1	-1E+10	1	-1E+10	1
4902554	103	C	12/16/2023	08:07	-133.724	47.508	0	74.00	0	8.8660	0	32.4440	0	25.139	0	73.369	0	-1e10	8	-1e10	8	-1E+10	1	-1E+10	1	-1E+10	1	-1E+10	1	-1E+10	1	-1E+10	1
4902554	103	C	12/16/2023	08:07	-133.724	47.508	0	75.10	0	8.5030	0	32.4890	0	25.230	0	74.460	0	-1e10	8	-1e10	8	-1E+10	1	-1E+10	1	-1E+10	1	-1E+10	1	-1E+10	1	-1E+10	1
4902554	103	C	12/16/2023	08:07	-133.724	47.508	0	75.80	0	8.3770	0	32.5030	0	25.259	0	75.154	0	-1e10	8	-1e10	8	-1E+10	1	-1E+10	1	-1E+10	1	-1E+10	1	-1E+10	1	-1E+10	1
4902554	103	C	12/16/2023	08:07	-133.724	47.508	0	76.90	0	8.2020	0	32.5120	0	25.292	0	76.244	0	-1e10	8	-1e10	8	-1E+10	1	-1E+10	1	-1E+10	1	-1E+10	1	-1E+10	1	-1E+10	1
4902554	103	C	12/16/2023	08:07	-133.724	47.508	0	78.00	0	8.0170	0	32.5310	0	25.334	0	77.334	0	-1e10	8	-1e10	8	-1E+10	1	-1E+10	1	-1E+10	1	-1E+10	1	-1E+10	1	-1E+10	1
4902554	103	C	12/16/2023	08:07	-133.724	47.508	0	78.90	0	7.8820	0	32.5400	0	25.361	0	78.226	0	-1e10	8	-1e10	8	-1E+10	1	-1E+10	1	-1E+10	1	-1E+10	1	-1E+10	1	-1E+10	1
4902554	103	C	12/16/2023	08:07	-133.724	47.508	0	79.90	0	7.7740	0	32.5490	0	25.383	0	79.218	0	-1e10	8	-1e10	8	-1E+10	1	-1E+10	1	-1E+10	1	-1E+10	1	-1E+10	1	-1E+10	1
4902554	103	C	12/16/2023	08:07	-133.724	47.508	0	80.80	0	7.6990	0	32.5490	0	25.394	0	80.110	0	-1e10	8	-1e10	8	-1E+10	1	-1E+10	1	-1E+10	1	-1E+10	1	-1E+10	1	-1E+10	1
4902554	103	C	12/16/2023	08:07	-133.724	47.508	0	81.90	0	7.6420	0	32.5470	0	25.400	0	81.200	0	-1e10	8	-1e10	8	-1E+10	1	-1E+10	1	-1E+10	1	-1E+10	1	-1E+10	1	-1E+10	1
4902554	103	C	12/16/2023	08:07	-133.724	47.508	0	83.00	0	7.6070	0	32.5520	0	25.409	0	82.291	0	-1e10	8	-1e10	8	-1E+10	1	-1E+10	1	-1E+10	1	-1E+10	1	-1E+10	1	-1E+10	1
4902554	103	C	12/16/2023	08:07	-133.724	47.508	0	83.70	0	7.5600	0	32.5530	0	25.416	0	82.985	0	-1e10	8	-1e10	8	-1E+10	1	-1E+10	1	-1E+10	1	-1E+10	1	-1E+10	1	-1E+10	1
4902554	103	C	12/16/2023	08:07	-133.724	47.508	0	84.70	0	7.5420	0	32.5570	0	25.422	0	83.976	0	-1e10	8	-1e10	8	-1E+10	1	-1E+10	1	-1E+10	1	-1E+10	1	-1E+10	1	-1E+10	1
4902554	103	C	12/16/2023	08:07	-133.724	47.508	0	85.70	0	7.5320	0	32.5580	0	25.424	0	84.967	0	-1e10	8	-1e10	8	-1E+10	1	-1E+10	1	-1E+10	1	-1E+10	1	-1E+10	1	-1E+10	1
4902554	103	C	12/16/2023	08:07	-133.724	47.508	0	86.80	0	7.5030	0	32.5600	0	25.430	0	86.057	0	-1e10	8	-1e10	8	-1E+10	1	-1E+10	1	-1E+10	1	-1E+10	1	-1E+10	1	-1E+10	1
4902554	103	C	12/16/2023	08:07	-133.724	47.508	0	87.90	0	7.4620	0	32.5560	0	25.432	0	87.148	0	-1e10	8	-1e10	8	-1E+10	1	-1E+10	1	-1E+10	1	-1E+10	1	-1E+10	1	-1E+10	1
4902554	103	C	12/16/2023	08:07	-133.724	47.508	0	89.10	0	7.4090	0	32.5500	0	25.435	0	88.337	0	-1e10	8	-1e10	8	-1E+10	1	-1E+10	1	-1E+10	1	-1E+10	1	-1E+10	1	-1E+10	1
4902554	103	C	12/16/2023	08:07	-133.724	47.508	0	90.00	0	7.3560	0	32.5490	0	25.442	0	89.229	0	-1e10	8	-1e10	8	-1E+10	1	-1E+10	1	-1E+10	1	-1E+10	1	-1E+10	1	-1E+10	1
4902554	103	C	12/16/2023	08:07	-133.724	47.508	0	91.00	0	7.3310	0	32.5440	0	25.441	0	90.221	0	-1e10	8	-1e10	8	-1E+10	1	-1E+10	1	-1E+10	1	-1E+10	1	-1E+10	1	-1E+10	1
4902554	103	C	12/16/2023	08:07	-133.724	47.508	0	92.00	0	7.2900	0	32.5420	0	25.445	0	91.212	0	-1e10	8	-1e10	8	-1E+10	1	-1E+10	1	-1E+10	1	-1E+10	1	-1E+10	1	-1E+10	1
4902554	103	C	12/16/2023	08:07	-133.724	47.508	0	93.00	0	7.2940	0	32.5480	0	25.449	0	92.203	0	-1e10	8	-1e10	8	-1E+10	1	-1E+10	1	-1E+10	1	-1E+10	1	-1E+10	1	-1E+10	1
4902554	103	C	12/16/2023	08:07	-133.724	47.508	0	94.10	0	7.2750	0	32.5480	0	25.452	0	93.293	0	-1e10	8	-1e10	8	-1E+10	1	-1E+10	1	-1E+10	1	-1E+10	1	-1E+10	1	-1E+10	1
4902554	103	C	12/16/2023	08:07	-133.724	47.508	0	94.80	0	7.2670	0	32.5500	0	25.455	0	93.987	0	-1e10	8	-1e10	8	-1E+10	1	-1E+10	1	-1E+10	1	-1E+10	1	-1E+10	1	-1E+10	1
4902554	103	C	12/16/2023	08:07	-133.724	47.508	0	95.80	0	7.2460	0	32.5510	0	25.458	0	94.978	0	-1e10	8	-1e10	8	-1E+10	1	-1E+10	1	-1E+10	1	-1E+10	1	-1E+10	1	-1E+10	1
4902554	103	C	12/16/2023	08:07	-133.724	47.508	0	96.90	0	7.2260	0	32.5540	0	25.463	0	96.069	0	-1e10	8	-1e10	8	-1E+10	1	-1E+10	1	-1E+10	1	-1E+10	1	-1E+10	1	-1E+10	1
4902554	103	C	12/16/2023	08:07	-133.724	47.508	0	97.90	0	7.2030	0	32.5570	0	25.469	0	97.060	0	-1e10	8	-1e10	8	-1E+10	1	-1E+10	1	-1E+10	1	-1E+10	1	-1E+10	1	-1E+10	1
4902554	103	C	12/16/2023	08:07	-133.724	47.508	0	98.90	0	7.2020	0	32.5600	0	25.471	0	98.051	0	-1e10	8	-1e10	8	-1E+10	1	-1E+10	1	-1E+10	1	-1E+10	1	-1E+10	1	-1E+10	1
4902554	103	C	12/16/2023	08:07	-133.724	47.508	0	99.80	0	7.2000	0	32.5630	0	25.474	0	98.943	0	-1e10	8	-1e10	8	-1E+10	1	-1E+10	1	-1E+10	1	-1E+10	1	-1E+10	1	-1E+10	1
4902554	103	C	12/16/2023	08:07	-133.724	47.508	0	100.90	0	7.1980	0	32.5660	0	25.477	0	100.033	0	-1e10	8	-1e10	8	-1E+10	1	-1E+10	1	-1E+10	1	-1E+10	1	-1E+10	1	-1E+10	1
4902554	103	C	12/16/2023	08:07	-133.724	47.508	0	102.10	0	7.2140	0	32.5720	0	25.479	0	101.223	0	-1e10	8	-1e10	8	-1E+10	1	-1E+10	1	-1E+10	1	-1E+10	1	-1E+10	1	-1E+10	1
4902554	103	C	12/16/2023	08:07	-133.724	47.508	0	102.90	0	7.2190	0	32.5750	0	25.481	0	102.016	0	-1e10	8	-1e10	8	-1E+10	1	-1E+10	1	-1E+10	1	-1E+10	1	-1E+10	1	-1E+10	1
4902554	103	C	12/16/2023	08:07	-133.724	47.508	0	103.80	0	7.2320	0	32.5840	0	25.486	0	102.908	0	-1e10	8	-1e10	8	-1E+10	1	-1E+10	1	-1E+10	1	-1E+10	1	-1E+10	1	-1E+10	1
4902554	103	C	12/16/2023	08:07	-133.724	47.508	0	105.00	0	7.2320	0	32.6000	0	25.499	0	104.097	0	-1e10	8	-1e10	8	-1E+10	1	-1E+10	1	-1E+10	1	-1E+10	1	-1E+10	1	-1E+10	1
4902554	103	C	12/16/2023	08:07	-133.724	47.508	0	105.90	0	7.2340	0	32.6110	0	25.507	0	104.989	0	-1e10	8	-1e10	8	-1E+10	1	-1E+10	1	-1E+10	1	-1E+10	1	-1E+10	1	-1E+10	1
4902554	103	C	12/16/2023	08:07	-133.724	47.508	0	106.70	0	7.2290	0	32.6170	0	25.513	0	105.782	0	-1e10	8	-1e10	8	-1E+10	1	-1E+10	1	-1E+10	1	-1E+10	1	-1E+10	1	-1E+10	1
4902554	103	C	12/16/2023	08:07	-133.724	47.508	0	107.80	0	7.2310	0	32.6430	0	25.533	0	106.872	0	-1e10	8	-1e10	8	-1E+10	1	-1E+10	1	-1E+10	1	-1E+10	1	-1E+10	1	-1E+10	1
4902554	103	C	12/16/2023	08:07	-133.724	47.508	0	108.90	0	7.1950	0	32.6550	0	25.547	0	107.963	0	-1e10	8	-1e10	8	-1E+10	1	-1E+10	1	-1E+10	1	-1E+10	1	-1E+10	1	-1E+10	1
4902554	103	C	12/16/2023	08:07	-133.724	47.508	0	110.00	0	7.0830	0	32.6710	0	25.575	0	109.053	0	-1e10	8	-1e10	8	-1E+10	1	-1E+10	1	-1E+10	1	-1E+10	1	-1E+10	1	-1E+10	1
4902554	103	C	12/16/2023	08:07	-133.724	47.508	0	111.10	0	7.0800	0	32.6830	0	25.585	0	110.143	0	-1e10	8	-1e10	8	-1E+10	1	-1E+10	1	-1E+10	1	-1E+10	1	-1E+10	1	-1E+10	1
4902554	103	C	12/16/2023	08:07	-133.724	47.508	0	111.90	0	7.0750	0	32.6900	0	25.591	0	110.936	0	-1e10	8	-1e10	8	-1E+10	1	-1E+10	1	-1E+10	1	-1E+10	1	-1E+10	1	-1E+10	1
4902554	103	C	12/16/2023	08:07	-133.724	47.508	0	112.80	0	7.0820	0	32.7130	0	25.608	0	111.828	0	-1e10	8	-1e10	8	-1E+10	1	-1E+10	1	-1E+10	1	-1E+10	1	-1E+10	1	-1E+10	1
4902554	103	C	12/16/2023	08:07	-133.724	47.508	0	113.90	0	7.0660	0	32.7470	0	25.637	0	112.918	0	-1e10	8	-1e10	8	-1E+10	1	-1E+10	1	-1E+10	1	-1E+10	1	-1E+10	1	-1E+10	1
4902554	103	C	12/16/2023	08:07	-133.724	47.508	0	115.00	0	7.0110	0	32.8090	0	25.693	0	114.008	0	-1e10	8	-1e10	8	-1E+10	1	-1E+10	1	-1E+10	1	-1E+10	1	-1E+10	1	-1E+10	1
4902554	103	C	12/16/2023	08:07	-133.724	47.508	0	116.00	0	6.9920	0	32.8350	0	25.716	0	114.999	0	-1e10	8	-1e10	8	-1E+10	1	-1E+10	1	-1E+10	1	-1E+10	1	-1E+10	1	-1E+10	1
4902554	103	C	12/16/2023	08:07	-133.724	47.508	0	117.00	0	6.9810	0	32.8510	0	25.730	0	115.991	0	-1e10	8	-1e10	8	-1E+10	1	-1E+10	1	-1E+10	1	-1E+10	1	-1E+10	1	-1E+10	1
4902554	103	C	12/16/2023	08:07	-133.724	47.508	0	118.00	0	6.9650	0	32.8570	0	25.737	0	116.982	0	-1e10	8	-1e10	8	-1E+10	1	-1E+10	1	-1E+10	1	-1E+10	1	-1E+10	1	-1E+10	1
4902554	103	C	12/16/2023	08:07	-133.724	47.508	0	119.10	0	6.9430	0	32.8750	0	25.754	0	118.072	0	-1e10	8	-1e10	8	-1E+10	1	-1E+10	1	-1E+10	1	-1E+10	1	-1E+10	1	-1E+10	1
4902554	103	C	12/16/2023	08:07	-133.724	47.508	0	120.10	0	6.8520	0	32.9100	0	25.794	0	119.063	0	-1e10	8	-1e10	8	-1E+10	1	-1E+10	1	-1E+10	1	-1E+10	1	-1E+10	1	-1E+10	1
4902554	103	C	12/16/2023	08:07	-133.724	47.508	0	121.00	0	6.8480	0	32.9240	0	25.806	0	119.955	0	-1e10	8	-1e10	8	-1E+10	1	-1E+10	1	-1E+10	1	-1E+10	1	-1E+10	1	-1E+10	1
4902554	103	C	12/16/2023	08:07	-133.724	47.508	0	121.90	0	6.8520	0	32.9330	0	25.812	0	120.847	0	-1e10	8	-1e10	8	-1E+10	1	-1E+10	1	-1E+10	1	-1E+10	1	-1E+10	1	-1E+10	1
4902554	103	C	12/16/2023	08:07	-133.724	47.508	0	122.70	0	6.8280	0	32.9500	0	25.829	0	121.640	0	-1e10	8	-1e10	8	-1E+10	1	-1E+10	1	-1E+10	1	-1E+10	1	-1E+10	1	-1E+10	1
4902554	103	C	12/16/2023	08:07	-133.724	47.508	0	123.90	0	6.7980	0	32.9600	0	25.841	0	122.829	0	-1e10	8	-1e10	8	-1E+10	1	-1E+10	1	-1E+10	1	-1E+10	1	-1E+10	1	-1E+10	1
4902554	103	C	12/16/2023	08:07	-133.724	47.508	0	124.80	0	6.7810	0	32.9620	0	25.844	0	123.721	0	-1e10	8	-1e10	8	-1E+10	1	-1E+10	1	-1E+10	1	-1E+10	1	-1E+10	1	-1E+10	1
4902554	103	C	12/16/2023	08:07	-133.724	47.508	0	125.80	0	6.5620	0	33.0370	0	25.932	0	124.712	0	-1e10	8	-1e10	8	-1E+10	1	-1E+10	1	-1E+10	1	-1E+10	1	-1E+10	1	-1E+10	1
4902554	103	C	12/16/2023	08:07	-133.724	47.508	0	127.10	0	6.4140	0	33.0840	0	25.988	0	126.000	0	-1e10	8	-1e10	8	-1E+10	1	-1E+10	1	-1E+10	1	-1E+10	1	-1E+10	1	-1E+10	1
4902554	103	C	12/16/2023	08:07	-133.724	47.508	0	128.20	0	6.3160	0	33.1240	0	26.032	0	127.090	0	-1e10	8	-1e10	8	-1E+10	1	-1E+10	1	-1E+10	1	-1E+10	1	-1E+10	1	-1E+10	1
4902554	103	C	12/16/2023	08:07	-133.724	47.508	0	128.90	0	6.2950	0	33.1370	0	26.045	0	127.784	0	-1e10	8	-1e10	8	-1E+10	1	-1E+10	1	-1E+10	1	-1E+10	1	-1E+10	1	-1E+10	1
4902554	103	C	12/16/2023	08:07	-133.724	47.508	0	129.90	0	6.2890	0	33.1420	0	26.050	0	128.775	0	-1e10	8	-1e10	8	-1E+10	1	-1E+10	1	-1E+10	1	-1E+10	1	-1E+10	1	-1E+10	1
4902554	103	C	12/16/2023	08:07	-133.724	47.508	0	131.00	0	6.2780	0	33.1470	0	26.055	0	129.865	0	-1e10	8	-1e10	8	-1E+10	1	-1E+10	1	-1E+10	1	-1E+10	1	-1E+10	1	-1E+10	1
4902554	103	C	12/16/2023	08:07	-133.724	47.508	0	132.00	0	6.2710	0	33.1500	0	26.059	0	130.856	0	-1e10	8	-1e10	8	-1E+10	1	-1E+10	1	-1E+10	1	-1E+10	1	-1E+10	1	-1E+10	1
4902554	103	C	12/16/2023	08:07	-133.724	47.508	0	133.10	0	6.2680	0	33.1520	0	26.061	0	131.947	0	-1e10	8	-1e10	8	-1E+10	1	-1E+10	1	-1E+10	1	-1E+10	1	-1E+10	1	-1E+10	1
4902554	103	C	12/16/2023	08:07	-133.724	47.508	0	134.10	0	6.2610	0	33.1540	0	26.063	0	132.938	0	-1e10	8	-1e10	8	-1E+10	1	-1E+10	1	-1E+10	1	-1E+10	1	-1E+10	1	-1E+10	1
4902554	103	C	12/16/2023	08:07	-133.724	47.508	0	135.10	0	6.2520	0	33.1620	0	26.071	0	133.929	0	-1e10	8	-1e10	8	-1E+10	1	-1E+10	1	-1E+10	1	-1E+10	1	-1E+10	1	-1E+10	1
4902554	103	C	12/16/2023	08:07	-133.724	47.508	0	136.10	0	6.2470	0	33.1630	0	26.072	0	134.920	0	-1e10	8	-1e10	8	-1E+10	1	-1E+10	1	-1E+10	1	-1E+10	1	-1E+10	1	-1E+10	1
4902554	103	C	12/16/2023	08:07	-133.724	47.508	0	137.10	0	6.2360	0	33.1690	0	26.078	0	135.911	0	-1e10	8	-1e10	8	-1E+10	1	-1E+10	1	-1E+10	1	-1E+10	1	-1E+10	1	-1E+10	1
4902554	103	C	12/16/2023	08:07	-133.724	47.508	0	138.00	0	6.2300	0	33.1880	0	26.094	0	136.802	0	-1e10	8	-1e10	8	-1E+10	1	-1E+10	1	-1E+10	1	-1E+10	1	-1E+10	1	-1E+10	1
4902554	103	C	12/16/2023	08:07	-133.724	47.508	0	139.00	0	6.2290	0	33.1960	0	26.100	0	137.793	0	-1e10	8	-1e10	8	-1E+10	1	-1E+10	1	-1E+10	1	-1E+10	1	-1E+10	1	-1E+10	1
4902554	103	C	12/16/2023	08:07	-133.724	47.508	0	139.90	0	6.2010	0	33.2050	0	26.111	0	138.685	0	-1e10	8	-1e10	8	-1E+10	1	-1E+10	1	-1E+10	1	-1E+10	1	-1E+10	1	-1E+10	1
4902554	103	C	12/16/2023	08:07	-133.724	47.508	0	140.80	0	6.2190	0	33.2300	0	26.128	0	139.577	0	-1e10	8	-1e10	8	-1E+10	1	-1E+10	1	-1E+10	1	-1E+10	1	-1E+10	1	-1E+10	1
4902554	103	C	12/16/2023	08:07	-133.724	47.508	0	141.90	0	6.1850	0	33.3020	0	26.190	0	140.667	0	-1e10	8	-1e10	8	-1E+10	1	-1E+10	1	-1E+10	1	-1E+10	1	-1E+10	1	-1E+10	1
4902554	103	C	12/16/2023	08:07	-133.724	47.508	0	143.00	0	6.2010	0	33.3400	0	26.218	0	141.757	0	-1e10	8	-1e10	8	-1E+10	1	-1E+10	1	-1E+10	1	-1E+10	1	-1E+10	1	-1E+10	1
4902554	103	C	12/16/2023	08:07	-133.724	47.508	0	143.70	0	6.2190	0	33.3550	0	26.227	0	142.451	0	-1e10	8	-1e10	8	-1E+10	1	-1E+10	1	-1E+10	1	-1E+10	1	-1E+10	1	-1E+10	1
4902554	103	C	12/16/2023	08:07	-133.724	47.508	0	144.80	0	6.2110	0	33.3760	0	26.245	0	143.541	0	-1e10	8	-1e10	8	-1E+10	1	-1E+10	1	-1E+10	1	-1E+10	1	-1E+10	1	-1E+10	1
4902554	103	C	12/16/2023	08:07	-133.724	47.508	0	146.00	0	6.2090	0	33.3990	0	26.263	0	144.730	0	-1e10	8	-1e10	8	-1E+10	1	-1E+10	1	-1E+10	1	-1E+10	1	-1E+10	1	-1E+10	1
4902554	103	C	12/16/2023	08:07	-133.724	47.508	0	146.70	0	6.1950	0	33.4120	0	26.275	0	145.424	0	-1e10	8	-1e10	8	-1E+10	1	-1E+10	1	-1E+10	1	-1E+10	1	-1E+10	1	-1E+10	1
4902554	103	C	12/16/2023	08:07	-133.724	47.508	0	147.90	0	6.1910	0	33.4320	0	26.291	0	146.613	0	-1e10	8	-1e10	8	-1E+10	1	-1E+10	1	-1E+10	1	-1E+10	1	-1E+10	1	-1E+10	1
4902554	103	C	12/16/2023	08:07	-133.724	47.508	0	149.10	0	6.1890	0	33.4440	0	26.301	0	147.802	0	-1e10	8	-1e10	8	-1E+10	1	-1E+10	1	-1E+10	1	-1E+10	1	-1E+10	1	-1E+10	1
4902554	103	C	12/16/2023	08:07	-133.724	47.508	0	149.90	0	6.1860	0	33.4510	0	26.307	0	148.595	0	-1e10	8	-1e10	8	-1E+10	1	-1E+10	1	-1E+10	1	-1E+10	1	-1E+10	1	-1E+10	1
4902554	103	C	12/16/2023	08:07	-133.724	47.508	0	150.70	0	6.1800	0	33.4710	0	26.324	0	149.388	0	-1e10	8	-1e10	8	-1E+10	1	-1E+10	1	-1E+10	1	-1E+10	1	-1E+10	1	-1E+10	1
4902554	103	C	12/16/2023	08:07	-133.724	47.508	0	151.90	0	6.1800	0	33.4840	0	26.334	0	150.577	0	-1e10	8	-1e10	8	-1E+10	1	-1E+10	1	-1E+10	1	-1E+10	1	-1E+10	1	-1E+10	1
4902554	103	C	12/16/2023	08:07	-133.724	47.508	0	153.10	0	6.1790	0	33.4950	0	26.343	0	151.766	0	-1e10	8	-1e10	8	-1E+10	1	-1E+10	1	-1E+10	1	-1E+10	1	-1E+10	1	-1E+10	1
4902554	103	C	12/16/2023	08:07	-133.724	47.508	0	154.00	0	6.1780	0	33.5080	0	26.353	0	152.658	0	-1e10	8	-1e10	8	-1E+10	1	-1E+10	1	-1E+10	1	-1E+10	1	-1E+10	1	-1E+10	1
4902554	103	C	12/16/2023	08:07	-133.724	47.508	0	154.80	0	6.1750	0	33.5170	0	26.361	0	153.450	0	-1e10	8	-1e10	8	-1E+10	1	-1E+10	1	-1E+10	1	-1E+10	1	-1E+10	1	-1E+10	1
4902554	103	C	12/16/2023	08:07	-133.724	47.508	0	155.70	0	6.1710	0	33.5270	0	26.369	0	154.342	0	-1e10	8	-1e10	8	-1E+10	1	-1E+10	1	-1E+10	1	-1E+10	1	-1E+10	1	-1E+10	1
4902554	103	C	12/16/2023	08:07	-133.724	47.508	0	156.90	0	6.1620	0	33.5510	0	26.389	0	155.531	0	-1e10	8	-1e10	8	-1E+10	1	-1E+10	1	-1E+10	1	-1E+10	1	-1E+10	1	-1E+10	1
4902554	103	C	12/16/2023	08:07	-133.724	47.508	0	158.30	0	6.1550	0	33.5680	0	26.404	0	156.919	0	-1e10	8	-1e10	8	-1E+10	1	-1E+10	1	-1E+10	1	-1E+10	1	-1E+10	1	-1E+10	1
4902554	103	C	12/16/2023	08:07	-133.724	47.508	0	159.20	0	6.1530	0	33.5750	0	26.409	0	157.810	0	-1e10	8	-1e10	8	-1E+10	1	-1E+10	1	-1E+10	1	-1E+10	1	-1E+10	1	-1E+10	1
4902554	103	C	12/16/2023	08:07	-133.724	47.508	0	160.00	0	6.1530	0	33.5780	0	26.412	0	158.603	0	-1e10	8	-1e10	8	-1E+10	1	-1E+10	1	-1E+10	1	-1E+10	1	-1E+10	1	-1E+10	1
4902554	103	C	12/16/2023	08:07	-133.724	47.508	0	160.90	0	6.1530	0	33.5840	0	26.416	0	159.495	0	-1e10	8	-1e10	8	-1E+10	1	-1E+10	1	-1E+10	1	-1E+10	1	-1E+10	1	-1E+10	1
4902554	103	C	12/16/2023	08:07	-133.724	47.508	0	161.80	0	6.1550	0	33.5890	0	26.420	0	160.387	0	-1e10	8	-1e10	8	-1E+10	1	-1E+10	1	-1E+10	1	-1E+10	1	-1E+10	1	-1E+10	1
4902554	103	C	12/16/2023	08:07	-133.724	47.508	0	162.70	0	6.1570	0	33.5930	0	26.423	0	161.278	0	-1e10	8	-1e10	8	-1E+10	1	-1E+10	1	-1E+10	1	-1E+10	1	-1E+10	1	-1E+10	1
4902554	103	C	12/16/2023	08:07	-133.724	47.508	0	164.00	0	6.1550	0	33.6040	0	26.432	0	162.567	0	-1e10	8	-1e10	8	-1E+10	1	-1E+10	1	-1E+10	1	-1E+10	1	-1E+10	1	-1E+10	1
4902554	103	C	12/16/2023	08:07	-133.724	47.508	0	165.30	0	6.1500	0	33.6110	0	26.438	0	163.855	0	-1e10	8	-1e10	8	-1E+10	1	-1E+10	1	-1E+10	1	-1E+10	1	-1E+10	1	-1E+10	1
4902554	103	C	12/16/2023	08:07	-133.724	47.508	0	166.30	0	6.1320	0	33.6210	0	26.448	0	164.846	0	-1e10	8	-1e10	8	-1E+10	1	-1E+10	1	-1E+10	1	-1E+10	1	-1E+10	1	-1E+10	1
4902554	103	C	12/16/2023	08:07	-133.724	47.508	0	167.10	0	6.1430	0	33.6300	0	26.454	0	165.638	0	-1e10	8	-1e10	8	-1E+10	1	-1E+10	1	-1E+10	1	-1E+10	1	-1E+10	1	-1E+10	1
4902554	103	C	12/16/2023	08:07	-133.724	47.508	0	168.10	0	6.1370	0	33.6310	0	26.456	0	166.629	0	-1e10	8	-1e10	8	-1E+10	1	-1E+10	1	-1E+10	1	-1E+10	1	-1E+10	1	-1E+10	1
4902554	103	C	12/16/2023	08:07	-133.724	47.508	0	169.00	0	6.1290	0	33.6360	0	26.461	0	167.521	0	-1e10	8	-1e10	8	-1E+10	1	-1E+10	1	-1E+10	1	-1E+10	1	-1E+10	1	-1E+10	1
4902554	103	C	12/16/2023	08:07	-133.724	47.508	0	169.90	0	6.1180	0	33.6390	0	26.464	0	168.413	0	-1e10	8	-1e10	8	-1E+10	1	-1E+10	1	-1E+10	1	-1E+10	1	-1E+10	1	-1E+10	1
4902554	103	C	12/16/2023	08:07	-133.724	47.508	0	170.80	0	6.1130	0	33.6380	0	26.464	0	169.304	0	-1e10	8	-1e10	8	-1E+10	1	-1E+10	1	-1E+10	1	-1E+10	1	-1E+10	1	-1E+10	1
4902554	103	C	12/16/2023	08:07	-133.724	47.508	0	171.80	0	6.1160	0	33.6510	0	26.474	0	170.295	0	-1e10	8	-1e10	8	-1E+10	1	-1E+10	1	-1E+10	1	-1E+10	1	-1E+10	1	-1E+10	1
4902554	103	C	12/16/2023	08:07	-133.724	47.508	0	172.70	0	6.0930	0	33.6530	0	26.479	0	171.187	0	-1e10	8	-1e10	8	-1E+10	1	-1E+10	1	-1E+10	1	-1E+10	1	-1E+10	1	-1E+10	1
4902554	103	C	12/16/2023	08:07	-133.724	47.508	0	173.70	0	6.1030	0	33.6610	0	26.484	0	172.178	0	-1e10	8	-1e10	8	-1E+10	1	-1E+10	1	-1E+10	1	-1E+10	1	-1E+10	1	-1E+10	1
4902554	103	C	12/16/2023	08:07	-133.724	47.508	0	174.60	0	6.0770	0	33.6620	0	26.488	0	173.069	0	-1e10	8	-1e10	8	-1E+10	1	-1E+10	1	-1E+10	1	-1E+10	1	-1E+10	1	-1E+10	1
4902554	103	C	12/16/2023	08:07	-133.724	47.508	0	175.60	0	6.1060	0	33.6690	0	26.490	0	174.060	0	-1e10	8	-1e10	8	-1E+10	1	-1E+10	1	-1E+10	1	-1E+10	1	-1E+10	1	-1E+10	1
4902554	103	C	12/16/2023	08:07	-133.724	47.508	0	176.60	0	6.0710	0	33.6730	0	26.497	0	175.051	0	-1e10	8	-1e10	8	-1E+10	1	-1E+10	1	-1E+10	1	-1E+10	1	-1E+10	1	-1E+10	1
4902554	103	C	12/16/2023	08:07	-133.724	47.508	0	177.50	0	6.0660	0	33.6740	0	26.499	0	175.943	0	-1e10	8	-1e10	8	-1E+10	1	-1E+10	1	-1E+10	1	-1E+10	1	-1E+10	1	-1E+10	1
4902554	103	C	12/16/2023	08:07	-133.724	47.508	0	178.50	0	6.0410	0	33.6790	0	26.506	0	176.934	0	-1e10	8	-1e10	8	-1E+10	1	-1E+10	1	-1E+10	1	-1E+10	1	-1E+10	1	-1E+10	1
4902554	103	C	12/16/2023	08:07	-133.724	47.508	0	179.50	0	6.0150	0	33.6780	0	26.508	0	177.924	0	-1e10	8	-1e10	8	-1E+10	1	-1E+10	1	-1E+10	1	-1E+10	1	-1E+10	1	-1E+10	1
4902554	103	C	12/16/2023	08:07	-133.724	47.508	0	180.50	0	6.0090	0	33.6790	0	26.510	0	178.915	0	-1e10	8	-1e10	8	-1E+10	1	-1E+10	1	-1E+10	1	-1E+10	1	-1E+10	1	-1E+10	1
4902554	103	C	12/16/2023	08:07	-133.724	47.508	0	181.60	0	6.0050	0	33.6810	0	26.512	0	180.005	0	-1e10	8	-1e10	8	-1E+10	1	-1E+10	1	-1E+10	1	-1E+10	1	-1E+10	1	-1E+10	1
4902554	103	C	12/16/2023	08:07	-133.724	47.508	0	182.60	0	5.9990	0	33.6880	0	26.518	0	180.996	0	-1e10	8	-1e10	8	-1E+10	1	-1E+10	1	-1E+10	1	-1E+10	1	-1E+10	1	-1E+10	1
4902554	103	C	12/16/2023	08:07	-133.724	47.508	0	183.60	0	5.9960	0	33.6990	0	26.527	0	181.987	0	-1e10	8	-1e10	8	-1E+10	1	-1E+10	1	-1E+10	1	-1E+10	1	-1E+10	1	-1E+10	1
4902554	103	C	12/16/2023	08:07	-133.724	47.508	0	184.60	0	6.0080	0	33.7050	0	26.530	0	182.977	0	-1e10	8	-1e10	8	-1E+10	1	-1E+10	1	-1E+10	1	-1E+10	1	-1E+10	1	-1E+10	1
4902554	103	C	12/16/2023	08:07	-133.724	47.508	0	185.70	0	6.0500	0	33.7170	0	26.535	0	184.067	0	-1e10	8	-1e10	8	-1E+10	1	-1E+10	1	-1E+10	1	-1E+10	1	-1E+10	1	-1E+10	1
4902554	103	C	12/16/2023	08:07	-133.724	47.508	0	186.70	0	6.0650	0	33.7340	0	26.546	0	185.058	0	-1e10	8	-1e10	8	-1E+10	1	-1E+10	1	-1E+10	1	-1E+10	1	-1E+10	1	-1E+10	1
4902554	103	C	12/16/2023	08:07	-133.724	47.508	0	187.80	0	6.0220	0	33.7300	0	26.549	0	186.148	0	-1e10	8	-1e10	8	-1E+10	1	-1E+10	1	-1E+10	1	-1E+10	1	-1E+10	1	-1E+10	1
4902554	103	C	12/16/2023	08:07	-133.724	47.508	0	188.80	0	6.0110	0	33.7290	0	26.549	0	187.139	0	-1e10	8	-1e10	8	-1E+10	1	-1E+10	1	-1E+10	1	-1E+10	1	-1E+10	1	-1E+10	1
4902554	103	C	12/16/2023	08:07	-133.724	47.508	0	189.90	0	5.9870	0	33.7290	0	26.552	0	188.228	0	-1e10	8	-1e10	8	-1E+10	1	-1E+10	1	-1E+10	1	-1E+10	1	-1E+10	1	-1E+10	1
4902554	103	C	12/16/2023	08:07	-133.724	47.508	0	191.00	0	5.9460	0	33.7260	0	26.555	0	189.318	0	-1e10	8	-1e10	8	-1E+10	1	-1E+10	1	-1E+10	1	-1E+10	1	-1E+10	1	-1E+10	1
4902554	103	C	12/16/2023	08:07	-133.724	47.508	0	192.10	0	5.9430	0	33.7380	0	26.565	0	190.408	0	-1e10	8	-1e10	8	-1E+10	1	-1E+10	1	-1E+10	1	-1E+10	1	-1E+10	1	-1E+10	1
4902554	103	C	12/16/2023	08:07	-133.724	47.508	0	193.10	0	5.9340	0	33.7360	0	26.564	0	191.399	0	-1e10	8	-1e10	8	-1E+10	1	-1E+10	1	-1E+10	1	-1E+10	1	-1E+10	1	-1E+10	1
4902554	103	C	12/16/2023	08:07	-133.724	47.508	0	194.30	0	5.9430	0	33.7420	0	26.568	0	192.588	0	-1e10	8	-1e10	8	-1E+10	1	-1E+10	1	-1E+10	1	-1E+10	1	-1E+10	1	-1E+10	1
4902554	103	C	12/16/2023	08:07	-133.724	47.508	0	195.40	0	5.9570	0	33.7560	0	26.577	0	193.677	0	-1e10	8	-1e10	8	-1E+10	1	-1E+10	1	-1E+10	1	-1E+10	1	-1E+10	1	-1E+10	1
4902554	103	C	12/16/2023	08:07	-133.724	47.508	0	196.50	0	5.9400	0	33.7560	0	26.579	0	194.767	0	-1e10	8	-1e10	8	-1E+10	1	-1E+10	1	-1E+10	1	-1E+10	1	-1E+10	1	-1E+10	1
4902554	103	C	12/16/2023	08:07	-133.724	47.508	0	197.60	0	5.8590	0	33.7580	0	26.591	0	195.857	0	-1e10	8	-1e10	8	-1E+10	1	-1E+10	1	-1E+10	1	-1E+10	1	-1E+10	1	-1E+10	1
4902554	103	C	12/16/2023	08:07	-133.724	47.508	0	198.70	0	5.8290	0	33.7470	0	26.586	0	196.947	0	-1e10	8	-1e10	8	-1E+10	1	-1E+10	1	-1E+10	1	-1E+10	1	-1E+10	1	-1E+10	1
4902554	103	C	12/16/2023	08:07	-133.724	47.508	0	199.80	0	5.8150	0	33.7520	0	26.592	0	198.037	0	-1e10	8	-1e10	8	-1E+10	1	-1E+10	1	-1E+10	1	-1E+10	1	-1E+10	1	-1E+10	1
4902554	103	C	12/16/2023	08:07	-133.724	47.508	0	200.90	0	5.8100	0	33.7550	0	26.595	0	199.126	0	-1e10	8	-1e10	8	-1E+10	1	-1E+10	1	-1E+10	1	-1E+10	1	-1E+10	1	-1E+10	1
4902554	103	C	12/16/2023	08:07	-133.724	47.508	0	202.00	0	5.7970	0	33.7570	0	26.598	0	200.216	0	-1e10	8	-1e10	8	-1E+10	1	-1E+10	1	-1E+10	1	-1E+10	1	-1E+10	1	-1E+10	1
4902554	103	C	12/16/2023	08:07	-133.724	47.508	0	203.10	0	5.7810	0	33.7600	0	26.602	0	201.306	0	-1e10	8	-1e10	8	-1E+10	1	-1E+10	1	-1E+10	1	-1E+10	1	-1E+10	1	-1E+10	1
4902554	103	C	12/16/2023	08:07	-133.724	47.508	0	204.30	0	5.7890	0	33.7700	0	26.609	0	202.495	0	-1e10	8	-1e10	8	-1E+10	1	-1E+10	1	-1E+10	1	-1E+10	1	-1E+10	1	-1E+10	1
4902554	103	C	12/16/2023	08:07	-133.724	47.508	0	205.40	0	5.8040	0	33.7700	0	26.607	0	203.584	0	-1e10	8	-1e10	8	-1E+10	1	-1E+10	1	-1E+10	1	-1E+10	1	-1E+10	1	-1E+10	1
4902554	103	C	12/16/2023	08:07	-133.724	47.508	0	206.50	0	5.7850	0	33.7750	0	26.614	0	204.674	0	-1e10	8	-1e10	8	-1E+10	1	-1E+10	1	-1E+10	1	-1E+10	1	-1E+10	1	-1E+10	1
4902554	103	C	12/16/2023	08:07	-133.724	47.508	0	207.60	0	5.7590	0	33.7780	0	26.619	0	205.764	0	-1e10	8	-1e10	8	-1E+10	1	-1E+10	1	-1E+10	1	-1E+10	1	-1E+10	1	-1E+10	1
4902554	103	C	12/16/2023	08:07	-133.724	47.508	0	208.70	0	5.7310	0	33.7740	0	26.619	0	206.854	0	-1e10	8	-1e10	8	-1E+10	1	-1E+10	1	-1E+10	1	-1E+10	1	-1E+10	1	-1E+10	1
4902554	103	C	12/16/2023	08:07	-133.724	47.508	0	209.80	0	5.7030	0	33.7780	0	26.626	0	207.943	0	-1e10	8	-1e10	8	-1E+10	1	-1E+10	1	-1E+10	1	-1E+10	1	-1E+10	1	-1E+10	1
4902554	103	C	12/16/2023	08:07	-133.724	47.508	0	210.90	0	5.7040	0	33.7690	0	26.619	0	209.033	0	-1e10	8	-1e10	8	-1E+10	1	-1E+10	1	-1E+10	1	-1E+10	1	-1E+10	1	-1E+10	1
4902554	103	C	12/16/2023	08:07	-133.724	47.508	0	212.00	0	5.7280	0	33.7840	0	26.628	0	210.123	0	-1e10	8	-1e10	8	-1E+10	1	-1E+10	1	-1E+10	1	-1E+10	1	-1E+10	1	-1E+10	1
4902554	103	C	12/16/2023	08:07	-133.724	47.508	0	213.10	0	5.7180	0	33.7850	0	26.630	0	211.212	0	-1e10	8	-1e10	8	-1E+10	1	-1E+10	1	-1E+10	1	-1E+10	1	-1E+10	1	-1E+10	1
4902554	103	C	12/16/2023	08:07	-133.724	47.508	0	214.20	0	5.6490	0	33.7900	0	26.642	0	212.302	0	-1e10	8	-1e10	8	-1E+10	1	-1E+10	1	-1E+10	1	-1E+10	1	-1E+10	1	-1E+10	1
4902554	103	C	12/16/2023	08:07	-133.724	47.508	0	215.30	0	5.6440	0	33.7800	0	26.635	0	213.392	0	-1e10	8	-1e10	8	-1E+10	1	-1E+10	1	-1E+10	1	-1E+10	1	-1E+10	1	-1E+10	1
4902554	103	C	12/16/2023	08:07	-133.724	47.508	0	216.40	0	5.6250	0	33.7790	0	26.636	0	214.481	0	-1e10	8	-1e10	8	-1E+10	1	-1E+10	1	-1E+10	1	-1E+10	1	-1E+10	1	-1E+10	1
4902554	103	C	12/16/2023	08:07	-133.724	47.508	0	217.50	0	5.6430	0	33.7860	0	26.640	0	215.571	0	-1e10	8	-1e10	8	-1E+10	1	-1E+10	1	-1E+10	1	-1E+10	1	-1E+10	1	-1E+10	1
4902554	103	C	12/16/2023	08:07	-133.724	47.508	0	218.60	0	5.6470	0	33.7900	0	26.642	0	216.661	0	-1e10	8	-1e10	8	-1E+10	1	-1E+10	1	-1E+10	1	-1E+10	1	-1E+10	1	-1E+10	1
4902554	103	C	12/16/2023	08:07	-133.724	47.508	0	219.60	0	5.6410	0	33.7920	0	26.645	0	217.651	0	-1e10	8	-1e10	8	-1E+10	1	-1E+10	1	-1E+10	1	-1E+10	1	-1E+10	1	-1E+10	1
4902554	103	C	12/16/2023	08:07	-133.724	47.508	0	220.60	0	5.6390	0	33.7890	0	26.643	0	218.642	0	-1e10	8	-1e10	8	-1E+10	1	-1E+10	1	-1E+10	1	-1E+10	1	-1E+10	1	-1E+10	1
4902554	103	C	12/16/2023	08:07	-133.724	47.508	0	221.90	0	5.6180	0	33.7880	0	26.644	0	219.930	0	-1e10	8	-1e10	8	-1E+10	1	-1E+10	1	-1E+10	1	-1E+10	1	-1E+10	1	-1E+10	1
4902554	103	C	12/16/2023	08:07	-133.724	47.508	0	223.10	0	5.6110	0	33.7930	0	26.649	0	221.118	0	-1e10	8	-1e10	8	-1E+10	1	-1E+10	1	-1E+10	1	-1E+10	1	-1E+10	1	-1E+10	1
4902554	103	C	12/16/2023	08:07	-133.724	47.508	0	223.90	0	5.5900	0	33.7940	0	26.652	0	221.911	0	-1e10	8	-1e10	8	-1E+10	1	-1E+10	1	-1E+10	1	-1E+10	1	-1E+10	1	-1E+10	1
4902554	103	C	12/16/2023	08:07	-133.724	47.508	0	224.70	0	5.5610	0	33.7870	0	26.650	0	222.703	0	-1e10	8	-1e10	8	-1E+10	1	-1E+10	1	-1E+10	1	-1E+10	1	-1E+10	1	-1E+10	1
4902554	103	C	12/16/2023	08:07	-133.724	47.508	0	226.00	0	5.5510	0	33.7890	0	26.653	0	223.991	0	-1e10	8	-1e10	8	-1E+10	1	-1E+10	1	-1E+10	1	-1E+10	1	-1E+10	1	-1E+10	1
4902554	103	C	12/16/2023	08:07	-133.724	47.508	0	227.20	0	5.5150	0	33.7880	0	26.657	0	225.180	0	-1e10	8	-1e10	8	-1E+10	1	-1E+10	1	-1E+10	1	-1E+10	1	-1E+10	1	-1E+10	1
4902554	103	C	12/16/2023	08:07	-133.724	47.508	0	228.00	0	5.4860	0	33.7890	0	26.661	0	225.972	0	-1e10	8	-1e10	8	-1E+10	1	-1E+10	1	-1E+10	1	-1E+10	1	-1E+10	1	-1E+10	1
4902554	103	C	12/16/2023	08:07	-133.724	47.508	0	228.80	0	5.4700	0	33.7890	0	26.663	0	226.765	0	-1e10	8	-1e10	8	-1E+10	1	-1E+10	1	-1E+10	1	-1E+10	1	-1E+10	1	-1E+10	1
4902554	103	C	12/16/2023	08:07	-133.724	47.508	0	229.90	0	5.4600	0	33.7900	0	26.665	0	227.854	0	-1e10	8	-1e10	8	-1E+10	1	-1E+10	1	-1E+10	1	-1E+10	1	-1E+10	1	-1E+10	1
4902554	103	C	12/16/2023	08:07	-133.724	47.508	0	231.10	0	5.4480	0	33.7890	0	26.665	0	229.043	0	-1e10	8	-1e10	8	-1E+10	1	-1E+10	1	-1E+10	1	-1E+10	1	-1E+10	1	-1E+10	1
4902554	103	C	12/16/2023	08:07	-133.724	47.508	0	231.90	0	5.4220	0	33.7870	0	26.667	0	229.835	0	-1e10	8	-1e10	8	-1E+10	1	-1E+10	1	-1E+10	1	-1E+10	1	-1E+10	1	-1E+10	1
4902554	103	C	12/16/2023	08:07	-133.724	47.508	0	233.00	0	5.4100	0	33.7860	0	26.668	0	230.925	0	-1e10	8	-1e10	8	-1E+10	1	-1E+10	1	-1E+10	1	-1E+10	1	-1E+10	1	-1E+10	1
4902554	103	C	12/16/2023	08:07	-133.724	47.508	0	234.20	0	5.3990	0	33.7810	0	26.665	0	232.114	0	-1e10	8	-1e10	8	-1E+10	1	-1E+10	1	-1E+10	1	-1E+10	1	-1E+10	1	-1E+10	1
4902554	103	C	12/16/2023	08:07	-133.724	47.508	0	235.00	0	5.3710	0	33.7840	0	26.671	0	232.906	0	-1e10	8	-1e10	8	-1E+10	1	-1E+10	1	-1E+10	1	-1E+10	1	-1E+10	1	-1E+10	1
4902554	103	C	12/16/2023	08:07	-133.724	47.508	0	235.80	0	5.3430	0	33.7840	0	26.674	0	233.698	0	-1e10	8	-1e10	8	-1E+10	1	-1E+10	1	-1E+10	1	-1E+10	1	-1E+10	1	-1E+10	1
4902554	103	C	12/16/2023	08:07	-133.724	47.508	0	237.00	0	5.3050	0	33.7850	0	26.679	0	234.887	0	-1e10	8	-1e10	8	-1E+10	1	-1E+10	1	-1E+10	1	-1E+10	1	-1E+10	1	-1E+10	1
4902554	103	C	12/16/2023	08:07	-133.724	47.508	0	238.20	0	5.2950	0	33.7860	0	26.681	0	236.076	0	-1e10	8	-1e10	8	-1E+10	1	-1E+10	1	-1E+10	1	-1E+10	1	-1E+10	1	-1E+10	1
4902554	103	C	12/16/2023	08:07	-133.724	47.508	0	239.10	0	5.2880	0	33.7870	0	26.683	0	236.967	0	-1e10	8	-1e10	8	-1E+10	1	-1E+10	1	-1E+10	1	-1E+10	1	-1E+10	1	-1E+10	1
4902554	103	C	12/16/2023	08:07	-133.724	47.508	0	239.90	0	5.2790	0	33.7870	0	26.684	0	237.760	0	-1e10	8	-1e10	8	-1E+10	1	-1E+10	1	-1E+10	1	-1E+10	1	-1E+10	1	-1E+10	1
4902554	103	C	12/16/2023	08:07	-133.724	47.508	0	240.70	0	5.2770	0	33.7870	0	26.684	0	238.552	0	-1e10	8	-1e10	8	-1E+10	1	-1E+10	1	-1E+10	1	-1E+10	1	-1E+10	1	-1E+10	1
4902554	103	C	12/16/2023	08:07	-133.724	47.508	0	241.90	0	5.2820	0	33.7870	0	26.683	0	239.741	0	-1e10	8	-1e10	8	-1E+10	1	-1E+10	1	-1E+10	1	-1E+10	1	-1E+10	1	-1E+10	1
4902554	103	C	12/16/2023	08:07	-133.724	47.508	0	243.20	0	5.2730	0	33.7900	0	26.687	0	241.028	0	-1e10	8	-1e10	8	-1E+10	1	-1E+10	1	-1E+10	1	-1E+10	1	-1E+10	1	-1E+10	1
4902554	103	C	12/16/2023	08:07	-133.724	47.508	0	244.00	0	5.2710	0	33.7920	0	26.689	0	241.821	0	-1e10	8	-1e10	8	-1E+10	1	-1E+10	1	-1E+10	1	-1E+10	1	-1E+10	1	-1E+10	1
4902554	103	C	12/16/2023	08:07	-133.724	47.508	0	244.80	0	5.2710	0	33.7970	0	26.693	0	242.613	0	-1e10	8	-1e10	8	-1E+10	1	-1E+10	1	-1E+10	1	-1E+10	1	-1E+10	1	-1E+10	1
4902554	103	C	12/16/2023	08:07	-133.724	47.508	0	245.70	0	5.2680	0	33.7980	0	26.694	0	243.504	0	-1e10	8	-1e10	8	-1E+10	1	-1E+10	1	-1E+10	1	-1E+10	1	-1E+10	1	-1E+10	1
4902554	103	C	12/16/2023	08:07	-133.724	47.508	0	246.90	0	5.2620	0	33.7980	0	26.695	0	244.693	0	-1e10	8	-1e10	8	-1E+10	1	-1E+10	1	-1E+10	1	-1E+10	1	-1E+10	1	-1E+10	1
4902554	103	C	12/16/2023	08:07	-133.724	47.508	0	248.20	0	5.2530	0	33.8000	0	26.697	0	245.981	0	-1e10	8	-1e10	8	-1E+10	1	-1E+10	1	-1E+10	1	-1E+10	1	-1E+10	1	-1E+10	1
4902554	103	C	12/16/2023	08:07	-133.724	47.508	0	249.00	0	5.2480	0	33.7980	0	26.696	0	246.773	0	-1e10	8	-1e10	8	-1E+10	1	-1E+10	1	-1E+10	1	-1E+10	1	-1E+10	1	-1E+10	1
4902554	103	C	12/16/2023	08:07	-133.724	47.508	0	249.90	0	5.2440	0	33.7990	0	26.697	0	247.664	0	-1e10	8	-1e10	8	-1E+10	1	-1E+10	1	-1E+10	1	-1E+10	1	-1E+10	1	-1E+10	1
4902554	103	C	12/16/2023	08:07	-133.724	47.508	0	250.80	0	5.2380	0	33.7990	0	26.698	0	248.556	0	-1e10	8	-1e10	8	-1E+10	1	-1E+10	1	-1E+10	1	-1E+10	1	-1E+10	1	-1E+10	1
4902554	103	C	12/16/2023	08:07	-133.724	47.508	0	251.60	0	5.2340	0	33.7990	0	26.699	0	249.348	0	-1e10	8	-1e10	8	-1E+10	1	-1E+10	1	-1E+10	1	-1E+10	1	-1E+10	1	-1E+10	1
4902554	103	C	12/16/2023	08:07	-133.724	47.508	0	252.90	0	5.2290	0	33.7990	0	26.699	0	250.636	0	-1e10	8	-1e10	8	-1E+10	1	-1E+10	1	-1E+10	1	-1E+10	1	-1E+10	1	-1E+10	1
4902554	103	C	12/16/2023	08:07	-133.724	47.508	0	254.20	0	5.2240	0	33.8000	0	26.701	0	251.923	0	-1e10	8	-1e10	8	-1E+10	1	-1E+10	1	-1E+10	1	-1E+10	1	-1E+10	1	-1E+10	1
4902554	103	C	12/16/2023	08:07	-133.724	47.508	0	255.00	0	5.2210	0	33.8000	0	26.701	0	252.716	0	-1e10	8	-1e10	8	-1E+10	1	-1E+10	1	-1E+10	1	-1E+10	1	-1E+10	1	-1E+10	1
4902554	103	C	12/16/2023	08:07	-133.724	47.508	0	255.90	0	5.2150	0	33.8000	0	26.702	0	253.607	0	-1e10	8	-1e10	8	-1E+10	1	-1E+10	1	-1E+10	1	-1E+10	1	-1E+10	1	-1E+10	1
4902554	103	C	12/16/2023	08:07	-133.724	47.508	0	256.80	0	5.1890	0	33.8020	0	26.706	0	254.498	0	-1e10	8	-1e10	8	-1E+10	1	-1E+10	1	-1E+10	1	-1E+10	1	-1E+10	1	-1E+10	1
4902554	103	C	12/16/2023	08:07	-133.724	47.508	0	257.70	0	5.1590	0	33.8010	0	26.709	0	255.390	0	-1e10	8	-1e10	8	-1E+10	1	-1E+10	1	-1E+10	1	-1E+10	1	-1E+10	1	-1E+10	1
4902554	103	C	12/16/2023	08:07	-133.724	47.508	0	258.90	0	5.1400	0	33.8020	0	26.712	0	256.578	0	-1e10	8	-1e10	8	-1E+10	1	-1E+10	1	-1E+10	1	-1E+10	1	-1E+10	1	-1E+10	1
4902554	103	C	12/16/2023	08:07	-133.724	47.508	0	260.30	0	5.1410	0	33.8040	0	26.713	0	257.965	0	-1e10	8	-1e10	8	-1E+10	1	-1E+10	1	-1E+10	1	-1E+10	1	-1E+10	1	-1E+10	1
4902554	103	C	12/16/2023	08:07	-133.724	47.508	0	261.10	0	5.1300	0	33.8040	0	26.715	0	258.757	0	-1e10	8	-1e10	8	-1E+10	1	-1E+10	1	-1E+10	1	-1E+10	1	-1E+10	1	-1E+10	1
4902554	103	C	12/16/2023	08:07	-133.724	47.508	0	262.00	0	5.1110	0	33.8060	0	26.718	0	259.648	0	-1e10	8	-1e10	8	-1E+10	1	-1E+10	1	-1E+10	1	-1E+10	1	-1E+10	1	-1E+10	1
4902554	103	C	12/16/2023	08:07	-133.724	47.508	0	262.90	0	5.1060	0	33.8030	0	26.717	0	260.540	0	-1e10	8	-1e10	8	-1E+10	1	-1E+10	1	-1E+10	1	-1E+10	1	-1E+10	1	-1E+10	1
4902554	103	C	12/16/2023	08:07	-133.724	47.508	0	263.70	0	5.1010	0	33.8040	0	26.718	0	261.332	0	-1e10	8	-1e10	8	-1E+10	1	-1E+10	1	-1E+10	1	-1E+10	1	-1E+10	1	-1E+10	1
4902554	103	C	12/16/2023	08:07	-133.724	47.508	0	264.60	0	5.0970	0	33.8040	0	26.718	0	262.224	0	-1e10	8	-1e10	8	-1E+10	1	-1E+10	1	-1E+10	1	-1E+10	1	-1E+10	1	-1E+10	1
4902554	103	C	12/16/2023	08:07	-133.724	47.508	0	265.90	0	5.0910	0	33.8060	0	26.721	0	263.511	0	-1e10	8	-1e10	8	-1E+10	1	-1E+10	1	-1E+10	1	-1E+10	1	-1E+10	1	-1E+10	1
4902554	103	C	12/16/2023	08:07	-133.724	47.508	0	267.20	0	5.0840	0	33.8060	0	26.722	0	264.799	0	-1e10	8	-1e10	8	-1E+10	1	-1E+10	1	-1E+10	1	-1E+10	1	-1E+10	1	-1E+10	1
4902554	103	C	12/16/2023	08:07	-133.724	47.508	0	268.10	0	5.0740	0	33.8090	0	26.725	0	265.690	0	-1e10	8	-1e10	8	-1E+10	1	-1E+10	1	-1E+10	1	-1E+10	1	-1E+10	1	-1E+10	1
4902554	103	C	12/16/2023	08:07	-133.724	47.508	0	269.00	0	5.0740	0	33.8090	0	26.725	0	266.581	0	-1e10	8	-1e10	8	-1E+10	1	-1E+10	1	-1E+10	1	-1E+10	1	-1E+10	1	-1E+10	1
4902554	103	C	12/16/2023	08:07	-133.724	47.508	0	269.90	0	5.0820	0	33.8120	0	26.727	0	267.472	0	-1e10	8	-1e10	8	-1E+10	1	-1E+10	1	-1E+10	1	-1E+10	1	-1E+10	1	-1E+10	1
4902554	103	C	12/16/2023	08:07	-133.724	47.508	0	270.80	0	5.0760	0	33.8130	0	26.728	0	268.364	0	-1e10	8	-1e10	8	-1E+10	1	-1E+10	1	-1E+10	1	-1E+10	1	-1E+10	1	-1E+10	1
4902554	103	C	12/16/2023	08:07	-133.724	47.508	0	271.70	0	5.0920	0	33.8190	0	26.731	0	269.255	0	-1e10	8	-1e10	8	-1E+10	1	-1E+10	1	-1E+10	1	-1E+10	1	-1E+10	1	-1E+10	1
4902554	103	C	12/16/2023	08:07	-133.724	47.508	0	272.90	0	5.0870	0	33.8210	0	26.733	0	270.444	0	-1e10	8	-1e10	8	-1E+10	1	-1E+10	1	-1E+10	1	-1E+10	1	-1E+10	1	-1E+10	1
4902554	103	C	12/16/2023	08:07	-133.724	47.508	0	274.30	0	5.0430	0	33.8200	0	26.737	0	271.830	0	-1e10	8	-1e10	8	-1E+10	1	-1E+10	1	-1E+10	1	-1E+10	1	-1E+10	1	-1E+10	1
4902554	103	C	12/16/2023	08:07	-133.724	47.508	0	275.20	0	5.0280	0	33.8190	0	26.738	0	272.721	0	-1e10	8	-1e10	8	-1E+10	1	-1E+10	1	-1E+10	1	-1E+10	1	-1E+10	1	-1E+10	1
4902554	103	C	12/16/2023	08:07	-133.724	47.508	0	276.10	0	5.0080	0	33.8180	0	26.740	0	273.613	0	-1e10	8	-1e10	8	-1E+10	1	-1E+10	1	-1E+10	1	-1E+10	1	-1E+10	1	-1E+10	1
4902554	103	C	12/16/2023	08:07	-133.724	47.508	0	277.00	0	4.9840	0	33.8170	0	26.742	0	274.504	0	-1e10	8	-1e10	8	-1E+10	1	-1E+10	1	-1E+10	1	-1E+10	1	-1E+10	1	-1E+10	1
4902554	103	C	12/16/2023	08:07	-133.724	47.508	0	277.90	0	4.9800	0	33.8160	0	26.741	0	275.395	0	-1e10	8	-1e10	8	-1E+10	1	-1E+10	1	-1E+10	1	-1E+10	1	-1E+10	1	-1E+10	1
4902554	103	C	12/16/2023	08:07	-133.724	47.508	0	278.80	0	4.9690	0	33.8170	0	26.743	0	276.286	0	-1e10	8	-1e10	8	-1E+10	1	-1E+10	1	-1E+10	1	-1E+10	1	-1E+10	1	-1E+10	1
4902554	103	C	12/16/2023	08:07	-133.724	47.508	0	279.70	0	4.9620	0	33.8170	0	26.744	0	277.178	0	-1e10	8	-1e10	8	-1E+10	1	-1E+10	1	-1E+10	1	-1E+10	1	-1E+10	1	-1E+10	1
4902554	103	C	12/16/2023	08:07	-133.724	47.508	0	280.60	0	4.9590	0	33.8170	0	26.745	0	278.069	0	-1e10	8	-1e10	8	-1E+10	1	-1E+10	1	-1E+10	1	-1E+10	1	-1E+10	1	-1E+10	1
4902554	103	C	12/16/2023	08:07	-133.724	47.508	0	281.90	0	4.9350	0	33.8180	0	26.748	0	279.356	0	-1e10	8	-1e10	8	-1E+10	1	-1E+10	1	-1E+10	1	-1E+10	1	-1E+10	1	-1E+10	1
4902554	103	C	12/16/2023	08:07	-133.724	47.508	0	283.40	0	4.9270	0	33.8230	0	26.753	0	280.842	0	-1e10	8	-1e10	8	-1E+10	1	-1E+10	1	-1E+10	1	-1E+10	1	-1E+10	1	-1E+10	1
4902554	103	C	12/16/2023	08:07	-133.724	47.508	0	284.30	0	4.9280	0	33.8240	0	26.754	0	281.733	0	-1e10	8	-1e10	8	-1E+10	1	-1E+10	1	-1E+10	1	-1E+10	1	-1E+10	1	-1E+10	1
4902554	103	C	12/16/2023	08:07	-133.724	47.508	0	285.20	0	4.9250	0	33.8240	0	26.754	0	282.624	0	-1e10	8	-1e10	8	-1E+10	1	-1E+10	1	-1E+10	1	-1E+10	1	-1E+10	1	-1E+10	1
4902554	103	C	12/16/2023	08:07	-133.724	47.508	0	286.10	0	4.9240	0	33.8240	0	26.754	0	283.516	0	-1e10	8	-1e10	8	-1E+10	1	-1E+10	1	-1E+10	1	-1E+10	1	-1E+10	1	-1E+10	1
4902554	103	C	12/16/2023	08:07	-133.724	47.508	0	287.00	0	4.9190	0	33.8240	0	26.755	0	284.407	0	-1e10	8	-1e10	8	-1E+10	1	-1E+10	1	-1E+10	1	-1E+10	1	-1E+10	1	-1E+10	1
4902554	103	C	12/16/2023	08:07	-133.724	47.508	0	287.90	0	4.9140	0	33.8250	0	26.756	0	285.298	0	-1e10	8	-1e10	8	-1E+10	1	-1E+10	1	-1E+10	1	-1E+10	1	-1E+10	1	-1E+10	1
4902554	103	C	12/16/2023	08:07	-133.724	47.508	0	288.80	0	4.9100	0	33.8260	0	26.757	0	286.189	0	-1e10	8	-1e10	8	-1E+10	1	-1E+10	1	-1E+10	1	-1E+10	1	-1E+10	1	-1E+10	1
4902554	103	C	12/16/2023	08:07	-133.724	47.508	0	289.80	0	4.9040	0	33.8250	0	26.757	0	287.180	0	-1e10	8	-1e10	8	-1E+10	1	-1E+10	1	-1E+10	1	-1E+10	1	-1E+10	1	-1E+10	1
4902554	103	C	12/16/2023	08:07	-133.724	47.508	0	290.70	0	4.8800	0	33.8270	0	26.761	0	288.071	0	-1e10	8	-1e10	8	-1E+10	1	-1E+10	1	-1E+10	1	-1E+10	1	-1E+10	1	-1E+10	1
4902554	103	C	12/16/2023	08:07	-133.724	47.508	0	291.60	0	4.8600	0	33.8240	0	26.761	0	288.962	0	-1e10	8	-1e10	8	-1E+10	1	-1E+10	1	-1E+10	1	-1E+10	1	-1E+10	1	-1E+10	1
4902554	103	C	12/16/2023	08:07	-133.724	47.508	0	292.90	0	4.8340	0	33.8260	0	26.766	0	290.249	0	-1e10	8	-1e10	8	-1E+10	1	-1E+10	1	-1E+10	1	-1E+10	1	-1E+10	1	-1E+10	1
4902554	103	C	12/16/2023	08:07	-133.724	47.508	0	294.30	0	4.8100	0	33.8260	0	26.768	0	291.636	0	-1e10	8	-1e10	8	-1E+10	1	-1E+10	1	-1E+10	1	-1E+10	1	-1E+10	1	-1E+10	1
4902554	103	C	12/16/2023	08:07	-133.724	47.508	0	295.20	0	4.8010	0	33.8270	0	26.770	0	292.527	0	-1e10	8	-1e10	8	-1E+10	1	-1E+10	1	-1E+10	1	-1E+10	1	-1E+10	1	-1E+10	1
4902554	103	C	12/16/2023	08:07	-133.724	47.508	0	296.20	0	4.7960	0	33.8280	0	26.772	0	293.517	0	-1e10	8	-1e10	8	-1E+10	1	-1E+10	1	-1E+10	1	-1E+10	1	-1E+10	1	-1E+10	1
4902554	103	C	12/16/2023	08:07	-133.724	47.508	0	297.10	0	4.7890	0	33.8270	0	26.772	0	294.409	0	-1e10	8	-1e10	8	-1E+10	1	-1E+10	1	-1E+10	1	-1E+10	1	-1E+10	1	-1E+10	1
4902554	103	C	12/16/2023	08:07	-133.724	47.508	0	298.00	0	4.7600	0	33.8290	0	26.776	0	295.300	0	-1e10	8	-1e10	8	-1E+10	1	-1E+10	1	-1E+10	1	-1E+10	1	-1E+10	1	-1E+10	1
4902554	103	C	12/16/2023	08:07	-133.724	47.508	0	298.90	0	4.7600	0	33.8310	0	26.778	0	296.191	0	-1e10	8	-1e10	8	-1E+10	1	-1E+10	1	-1E+10	1	-1E+10	1	-1E+10	1	-1E+10	1
4902554	103	C	12/16/2023	08:07	-133.724	47.508	0	299.80	0	4.7600	0	33.8310	0	26.778	0	297.082	0	-1e10	8	-1e10	8	-1E+10	1	-1E+10	1	-1E+10	1	-1E+10	1	-1E+10	1	-1E+10	1
4902554	103	C	12/16/2023	08:07	-133.724	47.508	0	300.80	0	4.7670	0	33.8340	0	26.780	0	298.072	0	-1e10	8	-1e10	8	-1E+10	1	-1E+10	1	-1E+10	1	-1E+10	1	-1E+10	1	-1E+10	1
4902554	103	C	12/16/2023	08:07	-133.724	47.508	0	301.70	0	4.7680	0	33.8350	0	26.780	0	298.964	0	-1e10	8	-1e10	8	-1E+10	1	-1E+10	1	-1E+10	1	-1E+10	1	-1E+10	1	-1E+10	1
4902554	103	C	12/16/2023	08:07	-133.724	47.508	0	302.60	0	4.7700	0	33.8360	0	26.781	0	299.855	0	-1e10	8	-1e10	8	-1E+10	1	-1E+10	1	-1E+10	1	-1E+10	1	-1E+10	1	-1E+10	1
4902554	103	C	12/16/2023	08:07	-133.724	47.508	0	303.90	0	4.7730	0	33.8370	0	26.781	0	301.142	0	-1e10	8	-1e10	8	-1E+10	1	-1E+10	1	-1E+10	1	-1E+10	1	-1E+10	1	-1E+10	1
4902554	103	C	12/16/2023	08:07	-133.724	47.508	0	305.30	0	4.7730	0	33.8390	0	26.783	0	302.528	0	-1e10	8	-1e10	8	-1E+10	1	-1E+10	1	-1E+10	1	-1E+10	1	-1E+10	1	-1E+10	1
4902554	103	C	12/16/2023	08:07	-133.724	47.508	0	306.30	0	4.7560	0	33.8380	0	26.784	0	303.518	0	-1e10	8	-1e10	8	-1E+10	1	-1E+10	1	-1E+10	1	-1E+10	1	-1E+10	1	-1E+10	1
4902554	103	C	12/16/2023	08:07	-133.724	47.508	0	307.20	0	4.7570	0	33.8420	0	26.787	0	304.410	0	-1e10	8	-1e10	8	-1E+10	1	-1E+10	1	-1E+10	1	-1E+10	1	-1E+10	1	-1E+10	1
4902554	103	C	12/16/2023	08:07	-133.724	47.508	0	308.10	0	4.7050	0	33.8400	0	26.791	0	305.301	0	-1e10	8	-1e10	8	-1E+10	1	-1E+10	1	-1E+10	1	-1E+10	1	-1E+10	1	-1E+10	1
4902554	103	C	12/16/2023	08:07	-133.724	47.508	0	309.00	0	4.7040	0	33.8440	0	26.795	0	306.192	0	-1e10	8	-1e10	8	-1E+10	1	-1E+10	1	-1E+10	1	-1E+10	1	-1E+10	1	-1E+10	1
4902554	103	C	12/16/2023	08:07	-133.724	47.508	0	310.00	0	4.7000	0	33.8440	0	26.795	0	307.182	0	-1e10	8	-1e10	8	-1E+10	1	-1E+10	1	-1E+10	1	-1E+10	1	-1E+10	1	-1E+10	1
4902554	103	C	12/16/2023	08:07	-133.724	47.508	0	310.90	0	4.6920	0	33.8440	0	26.796	0	308.073	0	-1e10	8	-1e10	8	-1E+10	1	-1E+10	1	-1E+10	1	-1E+10	1	-1E+10	1	-1E+10	1
4902554	103	C	12/16/2023	08:07	-133.724	47.508	0	311.80	0	4.6900	0	33.8440	0	26.796	0	308.964	0	-1e10	8	-1e10	8	-1E+10	1	-1E+10	1	-1E+10	1	-1E+10	1	-1E+10	1	-1E+10	1
4902554	103	C	12/16/2023	08:07	-133.724	47.508	0	312.70	0	4.6860	0	33.8440	0	26.797	0	309.856	0	-1e10	8	-1e10	8	-1E+10	1	-1E+10	1	-1E+10	1	-1E+10	1	-1E+10	1	-1E+10	1
4902554	103	C	12/16/2023	08:07	-133.724	47.508	0	313.70	0	4.6720	0	33.8450	0	26.799	0	310.846	0	-1e10	8	-1e10	8	-1E+10	1	-1E+10	1	-1E+10	1	-1E+10	1	-1E+10	1	-1E+10	1
4902554	103	C	12/16/2023	08:07	-133.724	47.508	0	314.60	0	4.6710	0	33.8460	0	26.800	0	311.737	0	-1e10	8	-1e10	8	-1E+10	1	-1E+10	1	-1E+10	1	-1E+10	1	-1E+10	1	-1E+10	1
4902554	103	C	12/16/2023	08:07	-133.724	47.508	0	315.50	0	4.6760	0	33.8470	0	26.800	0	312.628	0	-1e10	8	-1e10	8	-1E+10	1	-1E+10	1	-1E+10	1	-1E+10	1	-1E+10	1	-1E+10	1
4902554	103	C	12/16/2023	08:07	-133.724	47.508	0	316.90	0	4.6530	0	33.8470	0	26.803	0	314.014	0	-1e10	8	-1e10	8	-1E+10	1	-1E+10	1	-1E+10	1	-1E+10	1	-1E+10	1	-1E+10	1
4902554	103	C	12/16/2023	08:07	-133.724	47.508	0	318.40	0	4.6410	0	33.8490	0	26.806	0	315.499	0	-1e10	8	-1e10	8	-1E+10	1	-1E+10	1	-1E+10	1	-1E+10	1	-1E+10	1	-1E+10	1
4902554	103	C	12/16/2023	08:07	-133.724	47.508	0	319.30	0	4.6410	0	33.8520	0	26.808	0	316.390	0	-1e10	8	-1e10	8	-1E+10	1	-1E+10	1	-1E+10	1	-1E+10	1	-1E+10	1	-1E+10	1
4902554	103	C	12/16/2023	08:07	-133.724	47.508	0	320.30	0	4.6460	0	33.8550	0	26.810	0	317.381	0	-1e10	8	-1e10	8	-1E+10	1	-1E+10	1	-1E+10	1	-1E+10	1	-1E+10	1	-1E+10	1
4902554	103	C	12/16/2023	08:07	-133.724	47.508	0	321.20	0	4.6430	0	33.8550	0	26.810	0	318.272	0	-1e10	8	-1e10	8	-1E+10	1	-1E+10	1	-1E+10	1	-1E+10	1	-1E+10	1	-1E+10	1
4902554	103	C	12/16/2023	08:07	-133.724	47.508	0	322.10	0	4.6390	0	33.8540	0	26.810	0	319.163	0	-1e10	8	-1e10	8	-1E+10	1	-1E+10	1	-1E+10	1	-1E+10	1	-1E+10	1	-1E+10	1
4902554	103	C	12/16/2023	08:07	-133.724	47.508	0	323.10	0	4.6310	0	33.8540	0	26.811	0	320.153	0	-1e10	8	-1e10	8	-1E+10	1	-1E+10	1	-1E+10	1	-1E+10	1	-1E+10	1	-1E+10	1
4902554	103	C	12/16/2023	08:07	-133.724	47.508	0	324.10	0	4.6170	0	33.8550	0	26.813	0	321.143	0	-1e10	8	-1e10	8	-1E+10	1	-1E+10	1	-1E+10	1	-1E+10	1	-1E+10	1	-1E+10	1
4902554	103	C	12/16/2023	08:07	-133.724	47.508	0	325.00	0	4.6140	0	33.8550	0	26.813	0	322.034	0	-1e10	8	-1e10	8	-1E+10	1	-1E+10	1	-1E+10	1	-1E+10	1	-1E+10	1	-1E+10	1
4902554	103	C	12/16/2023	08:07	-133.724	47.508	0	326.00	0	4.6150	0	33.8550	0	26.813	0	323.024	0	-1e10	8	-1e10	8	-1E+10	1	-1E+10	1	-1E+10	1	-1E+10	1	-1E+10	1	-1E+10	1
4902554	103	C	12/16/2023	08:07	-133.724	47.508	0	326.90	0	4.6020	0	33.8570	0	26.816	0	323.915	0	-1e10	8	-1e10	8	-1E+10	1	-1E+10	1	-1E+10	1	-1E+10	1	-1E+10	1	-1E+10	1
4902554	103	C	12/16/2023	08:07	-133.724	47.508	0	327.90	0	4.5930	0	33.8580	0	26.818	0	324.905	0	-1e10	8	-1e10	8	-1E+10	1	-1E+10	1	-1E+10	1	-1E+10	1	-1E+10	1	-1E+10	1
4902554	103	C	12/16/2023	08:07	-133.724	47.508	0	328.80	0	4.5860	0	33.8600	0	26.820	0	325.796	0	-1e10	8	-1e10	8	-1E+10	1	-1E+10	1	-1E+10	1	-1E+10	1	-1E+10	1	-1E+10	1
4902554	103	C	12/16/2023	08:07	-133.724	47.508	0	329.80	0	4.5820	0	33.8610	0	26.822	0	326.786	0	-1e10	8	-1e10	8	-1E+10	1	-1E+10	1	-1E+10	1	-1E+10	1	-1E+10	1	-1E+10	1
4902554	103	C	12/16/2023	08:07	-133.724	47.508	0	330.70	0	4.5800	0	33.8620	0	26.823	0	327.678	0	-1e10	8	-1e10	8	-1E+10	1	-1E+10	1	-1E+10	1	-1E+10	1	-1E+10	1	-1E+10	1
4902554	103	C	12/16/2023	08:07	-133.724	47.508	0	331.70	0	4.5670	0	33.8620	0	26.824	0	328.668	0	-1e10	8	-1e10	8	-1E+10	1	-1E+10	1	-1E+10	1	-1E+10	1	-1E+10	1	-1E+10	1
4902554	103	C	12/16/2023	08:07	-133.724	47.508	0	332.60	0	4.5590	0	33.8650	0	26.827	0	329.559	0	-1e10	8	-1e10	8	-1E+10	1	-1E+10	1	-1E+10	1	-1E+10	1	-1E+10	1	-1E+10	1
4902554	103	C	12/16/2023	08:07	-133.724	47.508	0	333.60	0	4.5680	0	33.8680	0	26.829	0	330.549	0	-1e10	8	-1e10	8	-1E+10	1	-1E+10	1	-1E+10	1	-1E+10	1	-1E+10	1	-1E+10	1
4902554	103	C	12/16/2023	08:07	-133.724	47.508	0	334.50	0	4.5620	0	33.8700	0	26.831	0	331.440	0	-1e10	8	-1e10	8	-1E+10	1	-1E+10	1	-1E+10	1	-1E+10	1	-1E+10	1	-1E+10	1
4902554	103	C	12/16/2023	08:07	-133.724	47.508	0	335.90	0	4.5450	0	33.8710	0	26.834	0	332.826	0	-1e10	8	-1e10	8	-1E+10	1	-1E+10	1	-1E+10	1	-1E+10	1	-1E+10	1	-1E+10	1
4902554	103	C	12/16/2023	08:07	-133.724	47.508	0	337.40	0	4.5450	0	33.8710	0	26.834	0	334.311	0	-1e10	8	-1e10	8	-1E+10	1	-1E+10	1	-1E+10	1	-1E+10	1	-1E+10	1	-1E+10	1
4902554	103	C	12/16/2023	08:07	-133.724	47.508	0	338.40	0	4.5620	0	33.8730	0	26.833	0	335.301	0	-1e10	8	-1e10	8	-1E+10	1	-1E+10	1	-1E+10	1	-1E+10	1	-1E+10	1	-1E+10	1
4902554	103	C	12/16/2023	08:07	-133.724	47.508	0	339.30	0	4.5590	0	33.8770	0	26.837	0	336.192	0	-1e10	8	-1e10	8	-1E+10	1	-1E+10	1	-1E+10	1	-1E+10	1	-1E+10	1	-1E+10	1
4902554	103	C	12/16/2023	08:07	-133.724	47.508	0	340.30	0	4.5620	0	33.8790	0	26.838	0	337.182	0	-1e10	8	-1e10	8	-1E+10	1	-1E+10	1	-1E+10	1	-1E+10	1	-1E+10	1	-1E+10	1
4902554	103	C	12/16/2023	08:07	-133.724	47.508	0	341.30	0	4.5660	0	33.8800	0	26.838	0	338.172	0	-1e10	8	-1e10	8	-1E+10	1	-1E+10	1	-1E+10	1	-1E+10	1	-1E+10	1	-1E+10	1
4902554	103	C	12/16/2023	08:07	-133.724	47.508	0	342.20	0	4.5580	0	33.8820	0	26.841	0	339.063	0	-1e10	8	-1e10	8	-1E+10	1	-1E+10	1	-1E+10	1	-1E+10	1	-1E+10	1	-1E+10	1
4902554	103	C	12/16/2023	08:07	-133.724	47.508	0	343.20	0	4.5410	0	33.8850	0	26.845	0	340.053	0	-1e10	8	-1e10	8	-1E+10	1	-1E+10	1	-1E+10	1	-1E+10	1	-1E+10	1	-1E+10	1
4902554	103	C	12/16/2023	08:07	-133.724	47.508	0	344.20	0	4.5440	0	33.8860	0	26.846	0	341.043	0	-1e10	8	-1e10	8	-1E+10	1	-1E+10	1	-1E+10	1	-1E+10	1	-1E+10	1	-1E+10	1
4902554	103	C	12/16/2023	08:07	-133.724	47.508	0	345.20	0	4.5450	0	33.8880	0	26.847	0	342.033	0	-1e10	8	-1e10	8	-1E+10	1	-1E+10	1	-1E+10	1	-1E+10	1	-1E+10	1	-1E+10	1
4902554	103	C	12/16/2023	08:07	-133.724	47.508	0	346.10	0	4.5500	0	33.8900	0	26.848	0	342.924	0	-1e10	8	-1e10	8	-1E+10	1	-1E+10	1	-1E+10	1	-1E+10	1	-1E+10	1	-1E+10	1
4902554	103	C	12/16/2023	08:07	-133.724	47.508	0	347.10	0	4.5510	0	33.8910	0	26.849	0	343.914	0	-1e10	8	-1e10	8	-1E+10	1	-1E+10	1	-1E+10	1	-1E+10	1	-1E+10	1	-1E+10	1
4902554	103	C	12/16/2023	08:07	-133.724	47.508	0	348.10	0	4.5490	0	33.8920	0	26.850	0	344.904	0	-1e10	8	-1e10	8	-1E+10	1	-1E+10	1	-1E+10	1	-1E+10	1	-1E+10	1	-1E+10	1
4902554	103	C	12/16/2023	08:07	-133.724	47.508	0	349.10	0	4.5450	0	33.8960	0	26.854	0	345.894	0	-1e10	8	-1e10	8	-1E+10	1	-1E+10	1	-1E+10	1	-1E+10	1	-1E+10	1	-1E+10	1
4902554	103	C	12/16/2023	08:07	-133.724	47.508	0	350.10	0	4.5450	0	33.8960	0	26.854	0	346.884	0	-1e10	8	-1e10	8	-1E+10	1	-1E+10	1	-1E+10	1	-1E+10	1	-1E+10	1	-1E+10	1
4902554	103	C	12/16/2023	08:07	-133.724	47.508	0	353.00	0	4.5320	0	33.9000	0	26.858	0	349.755	0	-1e10	8	-1e10	8	-1E+10	1	-1E+10	1	-1E+10	1	-1E+10	1	-1E+10	1	-1E+10	1
4902554	103	C	12/16/2023	08:07	-133.724	47.508	0	358.00	0	4.5220	0	33.9080	0	26.866	0	354.705	0	-1e10	8	-1e10	8	-1E+10	1	-1E+10	1	-1E+10	1	-1E+10	1	-1E+10	1	-1E+10	1
4902554	103	C	12/16/2023	08:07	-133.724	47.508	0	363.10	0	4.5500	0	33.9200	0	26.872	0	359.753	0	-1e10	8	-1e10	8	-1E+10	1	-1E+10	1	-1E+10	1	-1E+10	1	-1E+10	1	-1E+10	1
4902554	103	C	12/16/2023	08:07	-133.724	47.508	0	368.30	0	4.5470	0	33.9270	0	26.878	0	364.901	0	-1e10	8	-1e10	8	-1E+10	1	-1E+10	1	-1E+10	1	-1E+10	1	-1E+10	1	-1E+10	1
4902554	103	C	12/16/2023	08:07	-133.724	47.508	0	372.90	0	4.5360	0	33.9290	0	26.881	0	369.454	0	-1e10	8	-1e10	8	-1E+10	1	-1E+10	1	-1E+10	1	-1E+10	1	-1E+10	1	-1E+10	1
4902554	103	C	12/16/2023	08:07	-133.724	47.508	0	377.60	0	4.5270	0	33.9340	0	26.886	0	374.107	0	-1e10	8	-1e10	8	-1E+10	1	-1E+10	1	-1E+10	1	-1E+10	1	-1E+10	1	-1E+10	1
4902554	103	C	12/16/2023	08:07	-133.724	47.508	0	382.80	0	4.5160	0	33.9420	0	26.893	0	379.254	0	-1e10	8	-1e10	8	-1E+10	1	-1E+10	1	-1E+10	1	-1E+10	1	-1E+10	1	-1E+10	1
4902554	103	C	12/16/2023	08:07	-133.724	47.508	0	387.70	0	4.4810	0	33.9470	0	26.901	0	384.104	0	-1e10	8	-1e10	8	-1E+10	1	-1E+10	1	-1E+10	1	-1E+10	1	-1E+10	1	-1E+10	1
4902554	103	C	12/16/2023	08:07	-133.724	47.508	0	392.80	0	4.4490	0	33.9510	0	26.908	0	389.152	0	-1e10	8	-1e10	8	-1E+10	1	-1E+10	1	-1E+10	1	-1E+10	1	-1E+10	1	-1E+10	1
4902554	103	C	12/16/2023	08:07	-133.724	47.508	0	397.90	0	4.4300	0	33.9550	0	26.913	0	394.200	0	-1e10	8	-1e10	8	-1E+10	1	-1E+10	1	-1E+10	1	-1E+10	1	-1E+10	1	-1E+10	1
4902554	103	C	12/16/2023	08:07	-133.724	47.508	0	402.70	0	4.4140	0	33.9580	0	26.917	0	398.950	0	-1e10	8	-1e10	8	-1E+10	1	-1E+10	1	-1E+10	1	-1E+10	1	-1E+10	1	-1E+10	1
4902554	103	C	12/16/2023	08:07	-133.724	47.508	0	407.60	0	4.3650	0	33.9600	0	26.924	0	403.800	0	-1e10	8	-1e10	8	-1E+10	1	-1E+10	1	-1E+10	1	-1E+10	1	-1E+10	1	-1E+10	1
4902554	103	C	12/16/2023	08:07	-133.724	47.508	0	412.50	0	4.3530	0	33.9630	0	26.928	0	408.649	0	-1e10	8	-1e10	8	-1E+10	1	-1E+10	1	-1E+10	1	-1E+10	1	-1E+10	1	-1E+10	1
4902554	103	C	12/16/2023	08:07	-133.724	47.508	0	417.60	0	4.3230	0	33.9690	0	26.936	0	413.697	0	-1e10	8	-1e10	8	-1E+10	1	-1E+10	1	-1E+10	1	-1E+10	1	-1E+10	1	-1E+10	1
4902554	103	C	12/16/2023	08:07	-133.724	47.508	0	422.80	0	4.2620	0	33.9690	0	26.942	0	418.843	0	-1e10	8	-1e10	8	-1E+10	1	-1E+10	1	-1E+10	1	-1E+10	1	-1E+10	1	-1E+10	1
4902554	103	C	12/16/2023	08:07	-133.724	47.508	0	428.00	0	4.2740	0	33.9780	0	26.948	0	423.989	0	-1e10	8	-1e10	8	-1E+10	1	-1E+10	1	-1E+10	1	-1E+10	1	-1E+10	1	-1E+10	1
4902554	103	C	12/16/2023	08:07	-133.724	47.508	0	432.90	0	4.3020	0	33.9890	0	26.954	0	428.838	0	-1e10	8	-1e10	8	-1E+10	1	-1E+10	1	-1E+10	1	-1E+10	1	-1E+10	1	-1E+10	1
4902554	103	C	12/16/2023	08:07	-133.724	47.508	0	437.80	0	4.3170	0	33.9990	0	26.960	0	433.687	0	-1e10	8	-1e10	8	-1E+10	1	-1E+10	1	-1E+10	1	-1E+10	1	-1E+10	1	-1E+10	1
4902554	103	C	12/16/2023	08:07	-133.724	47.508	0	442.90	0	4.3230	0	34.0120	0	26.970	0	438.733	0	-1e10	8	-1e10	8	-1E+10	1	-1E+10	1	-1E+10	1	-1E+10	1	-1E+10	1	-1E+10	1
4902554	103	C	12/16/2023	08:07	-133.724	47.508	0	448.00	0	4.3060	0	34.0170	0	26.976	0	443.780	0	-1e10	8	-1e10	8	-1E+10	1	-1E+10	1	-1E+10	1	-1E+10	1	-1E+10	1	-1E+10	1
4902554	103	C	12/16/2023	08:07	-133.724	47.508	0	453.10	0	4.3010	0	34.0210	0	26.980	0	448.826	0	-1e10	8	-1e10	8	-1E+10	1	-1E+10	1	-1E+10	1	-1E+10	1	-1E+10	1	-1E+10	1
4902554	103	C	12/16/2023	08:07	-133.724	47.508	0	457.80	0	4.2990	0	34.0320	0	26.989	0	453.477	0	-1e10	8	-1e10	8	-1E+10	1	-1E+10	1	-1E+10	1	-1E+10	1	-1E+10	1	-1E+10	1
4902554	103	C	12/16/2023	08:07	-133.724	47.508	0	463.00	0	4.2990	0	34.0390	0	26.994	0	458.622	0	-1e10	8	-1e10	8	-1E+10	1	-1E+10	1	-1E+10	1	-1E+10	1	-1E+10	1	-1E+10	1
4902554	103	C	12/16/2023	08:07	-133.724	47.508	0	468.20	0	4.3020	0	34.0450	0	26.999	0	463.767	0	-1e10	8	-1e10	8	-1E+10	1	-1E+10	1	-1E+10	1	-1E+10	1	-1E+10	1	-1E+10	1
4902554	103	C	12/16/2023	08:07	-133.724	47.508	0	473.00	0	4.2980	0	34.0510	0	27.004	0	468.516	0	-1e10	8	-1e10	8	-1E+10	1	-1E+10	1	-1E+10	1	-1E+10	1	-1E+10	1	-1E+10	1
4902554	103	C	12/16/2023	08:07	-133.724	47.508	0	477.80	0	4.2880	0	34.0550	0	27.008	0	473.265	0	-1e10	8	-1e10	8	-1E+10	1	-1E+10	1	-1E+10	1	-1E+10	1	-1E+10	1	-1E+10	1
4902554	103	C	12/16/2023	08:07	-133.724	47.508	0	482.70	0	4.2690	0	34.0610	0	27.015	0	478.113	0	-1e10	8	-1e10	8	-1E+10	1	-1E+10	1	-1E+10	1	-1E+10	1	-1E+10	1	-1E+10	1
4902554	103	C	12/16/2023	08:07	-133.724	47.508	0	487.70	0	4.2480	0	34.0660	0	27.021	0	483.060	0	-1e10	8	-1e10	8	-1E+10	1	-1E+10	1	-1E+10	1	-1E+10	1	-1E+10	1	-1E+10	1
4902554	103	C	12/16/2023	08:07	-133.724	47.508	0	492.70	0	4.2290	0	34.0710	0	27.027	0	488.006	0	-1e10	8	-1e10	8	-1E+10	1	-1E+10	1	-1E+10	1	-1E+10	1	-1E+10	1	-1E+10	1
4902554	103	C	12/16/2023	08:07	-133.724	47.508	0	497.60	0	4.2210	0	34.0760	0	27.032	0	492.854	0	-1e10	8	-1e10	8	-1E+10	1	-1E+10	1	-1E+10	1	-1E+10	1	-1E+10	1	-1E+10	1
4902554	103	C	12/16/2023	08:07	-133.724	47.508	0	502.60	0	4.2200	0	34.0800	0	27.035	0	497.800	0	-1e10	8	-1e10	8	-1E+10	1	-1E+10	1	-1E+10	1	-1E+10	1	-1E+10	1	-1E+10	1
4902554	103	C	12/16/2023	08:07	-133.724	47.508	0	507.60	0	4.2110	0	34.0860	0	27.041	0	502.747	0	-1e10	8	-1e10	8	-1E+10	1	-1E+10	1	-1E+10	1	-1E+10	1	-1E+10	1	-1E+10	1
4902554	103	C	12/16/2023	08:07	-133.724	47.508	0	512.70	0	4.2050	0	34.0900	0	27.045	0	507.792	0	-1e10	8	-1e10	8	-1E+10	1	-1E+10	1	-1E+10	1	-1E+10	1	-1E+10	1	-1E+10	1
4902554	103	C	12/16/2023	08:07	-133.724	47.508	0	517.70	0	4.2050	0	34.0940	0	27.048	0	512.738	0	-1e10	8	-1e10	8	-1E+10	1	-1E+10	1	-1E+10	1	-1E+10	1	-1E+10	1	-1E+10	1
4902554	103	C	12/16/2023	08:07	-133.724	47.508	0	522.80	0	4.1830	0	34.1000	0	27.055	0	517.782	0	-1e10	8	-1e10	8	-1E+10	1	-1E+10	1	-1E+10	1	-1E+10	1	-1E+10	1	-1E+10	1
4902554	103	C	12/16/2023	08:07	-133.724	47.508	0	528.10	0	4.1560	0	34.1050	0	27.062	0	523.025	0	-1e10	8	-1e10	8	-1E+10	1	-1E+10	1	-1E+10	1	-1E+10	1	-1E+10	1	-1E+10	1
4902554	103	C	12/16/2023	08:07	-133.724	47.508	0	533.00	0	4.1460	0	34.1100	0	27.067	0	527.871	0	-1e10	8	-1e10	8	-1E+10	1	-1E+10	1	-1E+10	1	-1E+10	1	-1E+10	1	-1E+10	1
4902554	103	C	12/16/2023	08:07	-133.724	47.508	0	537.70	0	4.1400	0	34.1150	0	27.072	0	532.520	0	-1e10	8	-1e10	8	-1E+10	1	-1E+10	1	-1E+10	1	-1E+10	1	-1E+10	1	-1E+10	1
4902554	103	C	12/16/2023	08:07	-133.724	47.508	0	542.90	0	4.1360	0	34.1180	0	27.075	0	537.663	0	-1e10	8	-1e10	8	-1E+10	1	-1E+10	1	-1E+10	1	-1E+10	1	-1E+10	1	-1E+10	1
4902554	103	C	12/16/2023	08:07	-133.724	47.508	0	548.20	0	4.1240	0	34.1220	0	27.079	0	542.905	0	-1e10	8	-1e10	8	-1E+10	1	-1E+10	1	-1E+10	1	-1E+10	1	-1E+10	1	-1E+10	1
4902554	103	C	12/16/2023	08:07	-133.724	47.508	0	553.20	0	4.1190	0	34.1250	0	27.082	0	547.850	0	-1e10	8	-1e10	8	-1E+10	1	-1E+10	1	-1E+10	1	-1E+10	1	-1E+10	1	-1E+10	1
4902554	103	C	12/16/2023	08:07	-133.724	47.508	0	558.30	0	4.1210	0	34.1270	0	27.083	0	552.894	0	-1e10	8	-1e10	8	-1E+10	1	-1E+10	1	-1E+10	1	-1E+10	1	-1E+10	1	-1E+10	1
4902554	103	C	12/16/2023	08:07	-133.724	47.508	0	562.90	0	4.1200	0	34.1280	0	27.084	0	557.444	0	-1e10	8	-1e10	8	-1E+10	1	-1E+10	1	-1E+10	1	-1E+10	1	-1E+10	1	-1E+10	1
4902554	103	C	12/16/2023	08:07	-133.724	47.508	0	567.60	0	4.1030	0	34.1290	0	27.087	0	562.092	0	-1e10	8	-1e10	8	-1E+10	1	-1E+10	1	-1E+10	1	-1E+10	1	-1E+10	1	-1E+10	1
4902554	103	C	12/16/2023	08:07	-133.724	47.508	0	572.80	0	4.0760	0	34.1340	0	27.094	0	567.234	0	-1e10	8	-1e10	8	-1E+10	1	-1E+10	1	-1E+10	1	-1E+10	1	-1E+10	1	-1E+10	1
4902554	103	C	12/16/2023	08:07	-133.724	47.508	0	578.00	0	4.0460	0	34.1370	0	27.099	0	572.377	0	-1e10	8	-1e10	8	-1E+10	1	-1E+10	1	-1E+10	1	-1E+10	1	-1E+10	1	-1E+10	1
4902554	103	C	12/16/2023	08:07	-133.724	47.508	0	582.90	0	4.0200	0	34.1410	0	27.105	0	577.222	0	-1e10	8	-1e10	8	-1E+10	1	-1E+10	1	-1E+10	1	-1E+10	1	-1E+10	1	-1E+10	1
4902554	103	C	12/16/2023	08:07	-133.724	47.508	0	587.90	0	3.9990	0	34.1440	0	27.110	0	582.166	0	-1e10	8	-1e10	8	-1E+10	1	-1E+10	1	-1E+10	1	-1E+10	1	-1E+10	1	-1E+10	1
4902554	103	C	12/16/2023	08:07	-133.724	47.508	0	593.00	0	3.9830	0	34.1500	0	27.116	0	587.209	0	-1e10	8	-1e10	8	-1E+10	1	-1E+10	1	-1E+10	1	-1E+10	1	-1E+10	1	-1E+10	1
4902554	103	C	12/16/2023	08:07	-133.724	47.508	0	597.80	0	3.9530	0	34.1520	0	27.121	0	591.956	0	-1e10	8	-1e10	8	-1E+10	1	-1E+10	1	-1E+10	1	-1E+10	1	-1E+10	1	-1E+10	1
4902554	103	C	12/16/2023	08:07	-133.724	47.508	0	603.00	0	3.9530	0	34.1550	0	27.123	0	597.097	0	-1e10	8	-1e10	8	-1E+10	1	-1E+10	1	-1E+10	1	-1E+10	1	-1E+10	1	-1E+10	1
4902554	103	C	12/16/2023	08:07	-133.724	47.508	0	608.20	0	3.9580	0	34.1600	0	27.127	0	602.239	0	-1e10	8	-1e10	8	-1E+10	1	-1E+10	1	-1E+10	1	-1E+10	1	-1E+10	1	-1E+10	1
4902554	103	C	12/16/2023	08:07	-133.724	47.508	0	613.00	0	3.9570	0	34.1630	0	27.129	0	606.985	0	-1e10	8	-1e10	8	-1E+10	1	-1E+10	1	-1E+10	1	-1E+10	1	-1E+10	1	-1E+10	1
4902554	103	C	12/16/2023	08:07	-133.724	47.508	0	617.80	0	3.9520	0	34.1690	0	27.135	0	611.731	0	-1e10	8	-1e10	8	-1E+10	1	-1E+10	1	-1E+10	1	-1E+10	1	-1E+10	1	-1E+10	1
4902554	103	C	12/16/2023	08:07	-133.724	47.508	0	622.60	0	3.9440	0	34.1720	0	27.138	0	616.477	0	-1e10	8	-1e10	8	-1E+10	1	-1E+10	1	-1E+10	1	-1E+10	1	-1E+10	1	-1E+10	1
4902554	103	C	12/16/2023	08:07	-133.724	47.508	0	627.90	0	3.9150	0	34.1770	0	27.145	0	621.717	0	-1e10	8	-1e10	8	-1E+10	1	-1E+10	1	-1E+10	1	-1E+10	1	-1E+10	1	-1E+10	1
4902554	103	C	12/16/2023	08:07	-133.724	47.508	0	633.20	0	3.9020	0	34.1810	0	27.149	0	626.956	0	-1e10	8	-1e10	8	-1E+10	1	-1E+10	1	-1E+10	1	-1E+10	1	-1E+10	1	-1E+10	1
4902554	103	C	12/16/2023	08:07	-133.724	47.508	0	638.20	0	3.8920	0	34.1850	0	27.154	0	631.900	0	-1e10	8	-1e10	8	-1E+10	1	-1E+10	1	-1E+10	1	-1E+10	1	-1E+10	1	-1E+10	1
4902554	103	C	12/16/2023	08:07	-133.724	47.508	0	643.10	0	3.8900	0	34.1880	0	27.156	0	636.744	0	-1e10	8	-1e10	8	-1E+10	1	-1E+10	1	-1E+10	1	-1E+10	1	-1E+10	1	-1E+10	1
4902554	103	C	12/16/2023	08:07	-133.724	47.508	0	647.90	0	3.8680	0	34.1900	0	27.160	0	641.489	0	-1e10	8	-1e10	8	-1E+10	1	-1E+10	1	-1E+10	1	-1E+10	1	-1E+10	1	-1E+10	1
4902554	103	C	12/16/2023	08:07	-133.724	47.508	0	652.80	0	3.8260	0	34.1900	0	27.164	0	646.333	0	-1e10	8	-1e10	8	-1E+10	1	-1E+10	1	-1E+10	1	-1E+10	1	-1E+10	1	-1E+10	1
4902554	103	C	12/16/2023	08:07	-133.724	47.508	0	657.80	0	3.8330	0	34.1960	0	27.168	0	651.275	0	-1e10	8	-1e10	8	-1E+10	1	-1E+10	1	-1E+10	1	-1E+10	1	-1E+10	1	-1E+10	1
4902554	103	C	12/16/2023	08:07	-133.724	47.508	0	662.70	0	3.8320	0	34.2000	0	27.172	0	656.119	0	-1e10	8	-1e10	8	-1E+10	1	-1E+10	1	-1E+10	1	-1E+10	1	-1E+10	1	-1E+10	1
4902554	103	C	12/16/2023	08:07	-133.724	47.508	0	667.60	0	3.8380	0	34.2060	0	27.176	0	660.963	0	-1e10	8	-1e10	8	-1E+10	1	-1E+10	1	-1E+10	1	-1E+10	1	-1E+10	1	-1E+10	1
4902554	103	C	12/16/2023	08:07	-133.724	47.508	0	672.60	0	3.8580	0	34.2170	0	27.183	0	665.905	0	-1e10	8	-1e10	8	-1E+10	1	-1E+10	1	-1E+10	1	-1E+10	1	-1E+10	1	-1E+10	1
4902554	103	C	12/16/2023	08:07	-133.724	47.508	0	677.60	0	3.8440	0	34.2190	0	27.186	0	670.847	0	-1e10	8	-1e10	8	-1E+10	1	-1E+10	1	-1E+10	1	-1E+10	1	-1E+10	1	-1E+10	1
4902554	103	C	12/16/2023	08:07	-133.724	47.508	0	682.70	0	3.8170	0	34.2220	0	27.191	0	675.888	0	-1e10	8	-1e10	8	-1E+10	1	-1E+10	1	-1E+10	1	-1E+10	1	-1E+10	1	-1E+10	1
4902554	103	C	12/16/2023	08:07	-133.724	47.508	0	687.70	0	3.7940	0	34.2240	0	27.195	0	680.830	0	-1e10	8	-1e10	8	-1E+10	1	-1E+10	1	-1E+10	1	-1E+10	1	-1E+10	1	-1E+10	1
4902554	103	C	12/16/2023	08:07	-133.724	47.508	0	692.70	0	3.7690	0	34.2280	0	27.200	0	685.772	0	-1e10	8	-1e10	8	-1E+10	1	-1E+10	1	-1E+10	1	-1E+10	1	-1E+10	1	-1E+10	1
4902554	103	C	12/16/2023	08:07	-133.724	47.508	0	697.70	0	3.7200	0	34.2280	0	27.205	0	690.714	0	-1e10	8	-1e10	8	-1E+10	1	-1E+10	1	-1E+10	1	-1E+10	1	-1E+10	1	-1E+10	1
4902554	103	C	12/16/2023	08:07	-133.724	47.508	0	702.70	0	3.7250	0	34.2340	0	27.210	0	695.655	0	-1e10	8	-1e10	8	-1E+10	1	-1E+10	1	-1E+10	1	-1E+10	1	-1E+10	1	-1E+10	1
4902554	103	C	12/16/2023	08:07	-133.724	47.508	0	707.70	0	3.7270	0	34.2380	0	27.213	0	700.597	0	-1e10	8	-1e10	8	-1E+10	1	-1E+10	1	-1E+10	1	-1E+10	1	-1E+10	1	-1E+10	1
4902554	103	C	12/16/2023	08:07	-133.724	47.508	0	712.70	0	3.6990	0	34.2370	0	27.215	0	705.538	0	-1e10	8	-1e10	8	-1E+10	1	-1E+10	1	-1E+10	1	-1E+10	1	-1E+10	1	-1E+10	1
4902554	103	C	12/16/2023	08:07	-133.724	47.508	0	717.70	0	3.6690	0	34.2370	0	27.218	0	710.479	0	-1e10	8	-1e10	8	-1E+10	1	-1E+10	1	-1E+10	1	-1E+10	1	-1E+10	1	-1E+10	1
4902554	103	C	12/16/2023	08:07	-133.724	47.508	0	722.60	0	3.6520	0	34.2390	0	27.221	0	715.321	0	-1e10	8	-1e10	8	-1E+10	1	-1E+10	1	-1E+10	1	-1E+10	1	-1E+10	1	-1E+10	1
4902554	103	C	12/16/2023	08:07	-133.724	47.508	0	727.60	0	3.6350	0	34.2400	0	27.223	0	720.262	0	-1e10	8	-1e10	8	-1E+10	1	-1E+10	1	-1E+10	1	-1E+10	1	-1E+10	1	-1E+10	1
4902554	103	C	12/16/2023	08:07	-133.724	47.508	0	732.60	0	3.6240	0	34.2420	0	27.226	0	725.203	0	-1e10	8	-1e10	8	-1E+10	1	-1E+10	1	-1E+10	1	-1E+10	1	-1E+10	1	-1E+10	1
4902554	103	C	12/16/2023	08:07	-133.724	47.508	0	737.60	0	3.6280	0	34.2460	0	27.229	0	730.144	0	-1e10	8	-1e10	8	-1E+10	1	-1E+10	1	-1E+10	1	-1E+10	1	-1E+10	1	-1E+10	1
4902554	103	C	12/16/2023	08:07	-133.724	47.508	0	742.60	0	3.6260	0	34.2510	0	27.233	0	735.085	0	-1e10	8	-1e10	8	-1E+10	1	-1E+10	1	-1E+10	1	-1E+10	1	-1E+10	1	-1E+10	1
4902554	103	C	12/16/2023	08:07	-133.724	47.508	0	747.70	0	3.6030	0	34.2530	0	27.237	0	740.124	0	-1e10	8	-1e10	8	-1E+10	1	-1E+10	1	-1E+10	1	-1E+10	1	-1E+10	1	-1E+10	1
4902554	103	C	12/16/2023	08:07	-133.724	47.508	0	752.80	0	3.5840	0	34.2580	0	27.243	0	745.163	0	-1e10	8	-1e10	8	-1E+10	1	-1E+10	1	-1E+10	1	-1E+10	1	-1E+10	1	-1E+10	1
4902554	103	C	12/16/2023	08:07	-133.724	47.508	0	757.90	0	3.5780	0	34.2600	0	27.245	0	750.203	0	-1e10	8	-1e10	8	-1E+10	1	-1E+10	1	-1E+10	1	-1E+10	1	-1E+10	1	-1E+10	1
4902554	103	C	12/16/2023	08:07	-133.724	47.508	0	763.00	0	3.5460	0	34.2650	0	27.252	0	755.241	0	-1e10	8	-1e10	8	-1E+10	1	-1E+10	1	-1E+10	1	-1E+10	1	-1E+10	1	-1E+10	1
4902554	103	C	12/16/2023	08:07	-133.724	47.508	0	767.80	0	3.5290	0	34.2680	0	27.256	0	759.984	0	-1e10	8	-1e10	8	-1E+10	1	-1E+10	1	-1E+10	1	-1E+10	1	-1E+10	1	-1E+10	1
4902554	103	C	12/16/2023	08:07	-133.724	47.508	0	772.80	0	3.5160	0	34.2700	0	27.259	0	764.924	0	-1e10	8	-1e10	8	-1E+10	1	-1E+10	1	-1E+10	1	-1E+10	1	-1E+10	1	-1E+10	1
4902554	103	C	12/16/2023	08:07	-133.724	47.508	0	777.80	0	3.5160	0	34.2740	0	27.262	0	769.864	0	-1e10	8	-1e10	8	-1E+10	1	-1E+10	1	-1E+10	1	-1E+10	1	-1E+10	1	-1E+10	1
4902554	103	C	12/16/2023	08:07	-133.724	47.508	0	782.80	0	3.5170	0	34.2760	0	27.264	0	774.803	0	-1e10	8	-1e10	8	-1E+10	1	-1E+10	1	-1E+10	1	-1E+10	1	-1E+10	1	-1E+10	1
4902554	103	C	12/16/2023	08:07	-133.724	47.508	0	788.00	0	3.5070	0	34.2800	0	27.268	0	779.941	0	-1e10	8	-1e10	8	-1E+10	1	-1E+10	1	-1E+10	1	-1E+10	1	-1E+10	1	-1E+10	1
4902554	103	C	12/16/2023	08:07	-133.724	47.508	0	792.80	0	3.4990	0	34.2830	0	27.271	0	784.682	0	-1e10	8	-1e10	8	-1E+10	1	-1E+10	1	-1E+10	1	-1E+10	1	-1E+10	1	-1E+10	1
4902554	103	C	12/16/2023	08:07	-133.724	47.508	0	797.70	0	3.4870	0	34.2850	0	27.274	0	789.523	0	-1e10	8	-1e10	8	-1E+10	1	-1E+10	1	-1E+10	1	-1E+10	1	-1E+10	1	-1E+10	1
4902554	103	C	12/16/2023	08:07	-133.724	47.508	0	802.70	0	3.4710	0	34.2890	0	27.279	0	794.462	0	-1e10	8	-1e10	8	-1E+10	1	-1E+10	1	-1E+10	1	-1E+10	1	-1E+10	1	-1E+10	1
4902554	103	C	12/16/2023	08:07	-133.724	47.508	0	807.80	0	3.4590	0	34.2920	0	27.282	0	799.500	0	-1e10	8	-1e10	8	-1E+10	1	-1E+10	1	-1E+10	1	-1E+10	1	-1E+10	1	-1E+10	1
4902554	103	C	12/16/2023	08:07	-133.724	47.508	0	812.90	0	3.4500	0	34.2950	0	27.286	0	804.538	0	-1e10	8	-1e10	8	-1E+10	1	-1E+10	1	-1E+10	1	-1E+10	1	-1E+10	1	-1E+10	1
4902554	103	C	12/16/2023	08:07	-133.724	47.508	0	817.60	0	3.4380	0	34.3000	0	27.291	0	809.181	0	-1e10	8	-1e10	8	-1E+10	1	-1E+10	1	-1E+10	1	-1E+10	1	-1E+10	1	-1E+10	1
4902554	103	C	12/16/2023	08:07	-133.724	47.508	0	822.90	0	3.4200	0	34.3030	0	27.295	0	814.416	0	-1e10	8	-1e10	8	-1E+10	1	-1E+10	1	-1E+10	1	-1E+10	1	-1E+10	1	-1E+10	1
4902554	103	C	12/16/2023	08:07	-133.724	47.508	0	828.30	0	3.4090	0	34.3060	0	27.298	0	819.749	0	-1e10	8	-1e10	8	-1E+10	1	-1E+10	1	-1E+10	1	-1E+10	1	-1E+10	1	-1E+10	1
4902554	103	C	12/16/2023	08:07	-133.724	47.508	0	833.20	0	3.4030	0	34.3080	0	27.301	0	824.589	0	-1e10	8	-1e10	8	-1E+10	1	-1E+10	1	-1E+10	1	-1E+10	1	-1E+10	1	-1E+10	1
4902554	103	C	12/16/2023	08:07	-133.724	47.508	0	838.20	0	3.3900	0	34.3100	0	27.304	0	829.528	0	-1e10	8	-1e10	8	-1E+10	1	-1E+10	1	-1E+10	1	-1E+10	1	-1E+10	1	-1E+10	1
4902554	103	C	12/16/2023	08:07	-133.724	47.508	0	843.20	0	3.3860	0	34.3110	0	27.305	0	834.466	0	-1e10	8	-1e10	8	-1E+10	1	-1E+10	1	-1E+10	1	-1E+10	1	-1E+10	1	-1E+10	1
4902554	103	C	12/16/2023	08:07	-133.724	47.508	0	848.30	0	3.3780	0	34.3140	0	27.308	0	839.503	0	-1e10	8	-1e10	8	-1E+10	1	-1E+10	1	-1E+10	1	-1E+10	1	-1E+10	1	-1E+10	1
4902554	103	C	12/16/2023	08:07	-133.724	47.508	0	853.20	0	3.3810	0	34.3160	0	27.309	0	844.342	0	-1e10	8	-1e10	8	-1E+10	1	-1E+10	1	-1E+10	1	-1E+10	1	-1E+10	1	-1E+10	1
4902554	103	C	12/16/2023	08:07	-133.724	47.508	0	857.80	0	3.3770	0	34.3190	0	27.312	0	848.885	0	-1e10	8	-1e10	8	-1E+10	1	-1E+10	1	-1E+10	1	-1E+10	1	-1E+10	1	-1E+10	1
4902554	103	C	12/16/2023	08:07	-133.724	47.508	0	863.00	0	3.3680	0	34.3220	0	27.315	0	854.020	0	-1e10	8	-1e10	8	-1E+10	1	-1E+10	1	-1E+10	1	-1E+10	1	-1E+10	1	-1E+10	1
4902554	103	C	12/16/2023	08:07	-133.724	47.508	0	868.20	0	3.3620	0	34.3250	0	27.318	0	859.156	0	-1e10	8	-1e10	8	-1E+10	1	-1E+10	1	-1E+10	1	-1E+10	1	-1E+10	1	-1E+10	1
4902554	103	C	12/16/2023	08:07	-133.724	47.508	0	873.00	0	3.3550	0	34.3270	0	27.321	0	863.896	0	-1e10	8	-1e10	8	-1E+10	1	-1E+10	1	-1E+10	1	-1E+10	1	-1E+10	1	-1E+10	1
4902554	103	C	12/16/2023	08:07	-133.724	47.508	0	878.00	0	3.3480	0	34.3290	0	27.323	0	868.833	0	-1e10	8	-1e10	8	-1E+10	1	-1E+10	1	-1E+10	1	-1E+10	1	-1E+10	1	-1E+10	1
4902554	103	C	12/16/2023	08:07	-133.724	47.508	0	883.00	0	3.3440	0	34.3310	0	27.325	0	873.770	0	-1e10	8	-1e10	8	-1E+10	1	-1E+10	1	-1E+10	1	-1E+10	1	-1E+10	1	-1E+10	1
4902554	103	C	12/16/2023	08:07	-133.724	47.508	0	888.00	0	3.3510	0	34.3370	0	27.329	0	878.708	0	-1e10	8	-1e10	8	-1E+10	1	-1E+10	1	-1E+10	1	-1E+10	1	-1E+10	1	-1E+10	1
4902554	103	C	12/16/2023	08:07	-133.724	47.508	0	893.10	0	3.3450	0	34.3400	0	27.332	0	883.744	0	-1e10	8	-1e10	8	-1E+10	1	-1E+10	1	-1E+10	1	-1E+10	1	-1E+10	1	-1E+10	1
4902554	103	C	12/16/2023	08:07	-133.724	47.508	0	898.10	0	3.3340	0	34.3420	0	27.335	0	888.681	0	-1e10	8	-1e10	8	-1E+10	1	-1E+10	1	-1E+10	1	-1E+10	1	-1E+10	1	-1E+10	1
4902554	103	C	12/16/2023	08:07	-133.724	47.508	0	903.20	0	3.3240	0	34.3440	0	27.337	0	893.716	0	-1e10	8	-1e10	8	-1E+10	1	-1E+10	1	-1E+10	1	-1E+10	1	-1E+10	1	-1E+10	1
4902554	103	C	12/16/2023	08:07	-133.724	47.508	0	907.90	0	3.3100	0	34.3460	0	27.340	0	898.357	0	-1e10	8	-1e10	8	-1E+10	1	-1E+10	1	-1E+10	1	-1E+10	1	-1E+10	1	-1E+10	1
4902554	103	C	12/16/2023	08:07	-133.724	47.508	0	912.70	0	3.2970	0	34.3470	0	27.342	0	903.096	0	-1e10	8	-1e10	8	-1E+10	1	-1E+10	1	-1E+10	1	-1E+10	1	-1E+10	1	-1E+10	1
4902554	103	C	12/16/2023	08:07	-133.724	47.508	0	917.80	0	3.2950	0	34.3480	0	27.343	0	908.131	0	-1e10	8	-1e10	8	-1E+10	1	-1E+10	1	-1E+10	1	-1E+10	1	-1E+10	1	-1E+10	1
4902554	103	C	12/16/2023	08:07	-133.724	47.508	0	923.00	0	3.2810	0	34.3500	0	27.346	0	913.265	0	-1e10	8	-1e10	8	-1E+10	1	-1E+10	1	-1E+10	1	-1E+10	1	-1E+10	1	-1E+10	1
4902554	103	C	12/16/2023	08:07	-133.724	47.508	0	928.20	0	3.2600	0	34.3500	0	27.348	0	918.399	0	-1e10	8	-1e10	8	-1E+10	1	-1E+10	1	-1E+10	1	-1E+10	1	-1E+10	1	-1E+10	1
4902554	103	C	12/16/2023	08:07	-133.724	47.508	0	932.90	0	3.2190	0	34.3500	0	27.352	0	923.039	0	-1e10	8	-1e10	8	-1E+10	1	-1E+10	1	-1E+10	1	-1E+10	1	-1E+10	1	-1E+10	1
4902554	103	C	12/16/2023	08:07	-133.724	47.508	0	937.70	0	3.2040	0	34.3490	0	27.353	0	927.777	0	-1e10	8	-1e10	8	-1E+10	1	-1E+10	1	-1E+10	1	-1E+10	1	-1E+10	1	-1E+10	1
4902554	103	C	12/16/2023	08:07	-133.724	47.508	0	942.90	0	3.2090	0	34.3530	0	27.355	0	932.911	0	-1e10	8	-1e10	8	-1E+10	1	-1E+10	1	-1E+10	1	-1E+10	1	-1E+10	1	-1E+10	1
4902554	103	C	12/16/2023	08:07	-133.724	47.508	0	948.10	0	3.1960	0	34.3550	0	27.358	0	938.044	0	-1e10	8	-1e10	8	-1E+10	1	-1E+10	1	-1E+10	1	-1E+10	1	-1E+10	1	-1E+10	1
4902554	103	C	12/16/2023	08:07	-133.724	47.508	0	952.90	0	3.1930	0	34.3590	0	27.362	0	942.782	0	-1e10	8	-1e10	8	-1E+10	1	-1E+10	1	-1E+10	1	-1E+10	1	-1E+10	1	-1E+10	1
4902554	103	C	12/16/2023	08:07	-133.724	47.508	0	957.70	0	3.1910	0	34.3610	0	27.364	0	947.521	0	-1e10	8	-1e10	8	-1E+10	1	-1E+10	1	-1E+10	1	-1E+10	1	-1E+10	1	-1E+10	1
4902554	103	C	12/16/2023	08:07	-133.724	47.508	0	962.90	0	3.1700	0	34.3620	0	27.366	0	952.654	0	-1e10	8	-1e10	8	-1E+10	1	-1E+10	1	-1E+10	1	-1E+10	1	-1E+10	1	-1E+10	1
4902554	103	C	12/16/2023	08:07	-133.724	47.508	0	968.10	0	3.1520	0	34.3630	0	27.369	0	957.786	0	-1e10	8	-1e10	8	-1E+10	1	-1E+10	1	-1E+10	1	-1E+10	1	-1E+10	1	-1E+10	1
4902554	103	C	12/16/2023	08:07	-133.724	47.508	0	973.30	0	3.1250	0	34.3650	0	27.373	0	962.919	0	-1e10	8	-1e10	8	-1E+10	1	-1E+10	1	-1E+10	1	-1E+10	1	-1E+10	1	-1E+10	1
4902554	103	C	12/16/2023	08:07	-133.724	47.508	0	977.90	0	3.1030	0	34.3660	0	27.376	0	967.459	0	-1e10	8	-1e10	8	-1E+10	1	-1E+10	1	-1E+10	1	-1E+10	1	-1E+10	1	-1E+10	1
4902554	103	C	12/16/2023	08:07	-133.724	47.508	0	982.60	0	3.0960	0	34.3680	0	27.378	0	972.098	0	-1e10	8	-1e10	8	-1E+10	1	-1E+10	1	-1E+10	1	-1E+10	1	-1E+10	1	-1E+10	1
4902554	103	C	12/16/2023	08:07	-133.724	47.508	0	987.60	0	3.0870	0	34.3690	0	27.380	0	977.033	0	-1e10	8	-1e10	8	-1E+10	1	-1E+10	1	-1E+10	1	-1E+10	1	-1E+10	1	-1E+10	1
4902554	103	C	12/16/2023	08:07	-133.724	47.508	0	992.70	0	3.0820	0	34.3700	0	27.381	0	982.067	0	-1e10	8	-1e10	8	-1E+10	1	-1E+10	1	-1E+10	1	-1E+10	1	-1E+10	1	-1E+10	1
4902554	103	C	12/16/2023	08:07	-133.724	47.508	0	997.70	0	3.0690	0	34.3710	0	27.383	0	987.001	0	-1e10	8	-1e10	8	-1E+10	1	-1E+10	1	-1E+10	1	-1E+10	1	-1E+10	1	-1E+10	1
4902554	103	C	12/16/2023	08:07	-133.724	47.508	0	1005.30	0	3.0510	0	34.3740	0	27.387	0	994.502	0	-1e10	8	-1e10	8	-1E+10	1	-1E+10	1	-1E+10	1	-1E+10	1	-1E+10	1	-1E+10	1
4902554	103	C	12/16/2023	08:07	-133.724	47.508	0	1015.20	0	3.0290	0	34.3780	0	27.392	0	1004.272	0	-1e10	8	-1e10	8	-1E+10	1	-1E+10	1	-1E+10	1	-1E+10	1	-1E+10	1	-1E+10	1
4902554	103	C	12/16/2023	08:07	-133.724	47.508	0	1025.30	0	3.0100	0	34.3830	0	27.398	0	1014.239	0	-1e10	8	-1e10	8	-1E+10	1	-1E+10	1	-1E+10	1	-1E+10	1	-1E+10	1	-1E+10	1
4902554	103	C	12/16/2023	08:07	-133.724	47.508	0	1035.60	0	2.9940	0	34.3860	0	27.402	0	1024.402	0	-1e10	8	-1e10	8	-1E+10	1	-1E+10	1	-1E+10	1	-1E+10	1	-1E+10	1	-1E+10	1
4902554	103	C	12/16/2023	08:07	-133.724	47.508	0	1045.60	0	2.9810	0	34.3900	0	27.406	0	1034.269	0	-1e10	8	-1e10	8	-1E+10	1	-1E+10	1	-1E+10	1	-1E+10	1	-1E+10	1	-1E+10	1
4902554	103	C	12/16/2023	08:07	-133.724	47.508	0	1055.40	0	2.9640	0	34.3940	0	27.411	0	1043.939	0	-1e10	8	-1e10	8	-1E+10	1	-1E+10	1	-1E+10	1	-1E+10	1	-1E+10	1	-1E+10	1
4902554	103	C	12/16/2023	08:07	-133.724	47.508	0	1065.10	0	2.9490	0	34.3970	0	27.415	0	1053.509	0	-1e10	8	-1e10	8	-1E+10	1	-1E+10	1	-1E+10	1	-1E+10	1	-1E+10	1	-1E+10	1
4902554	103	C	12/16/2023	08:07	-133.724	47.508	0	1075.00	0	2.9330	0	34.4010	0	27.420	0	1063.276	0	-1e10	8	-1e10	8	-1E+10	1	-1E+10	1	-1E+10	1	-1E+10	1	-1E+10	1	-1E+10	1
4902554	103	C	12/16/2023	08:07	-133.724	47.508	0	1085.20	0	2.9250	0	34.4040	0	27.423	0	1073.339	0	-1e10	8	-1e10	8	-1E+10	1	-1E+10	1	-1E+10	1	-1E+10	1	-1E+10	1	-1E+10	1
4902554	103	C	12/16/2023	08:07	-133.724	47.508	0	1095.60	0	2.9110	0	34.4070	0	27.426	0	1083.599	0	-1e10	8	-1e10	8	-1E+10	1	-1E+10	1	-1E+10	1	-1E+10	1	-1E+10	1	-1E+10	1
4902554	103	C	12/16/2023	08:07	-133.724	47.508	0	1105.80	0	2.8960	0	34.4120	0	27.432	0	1093.660	0	-1e10	8	-1e10	8	-1E+10	1	-1E+10	1	-1E+10	1	-1E+10	1	-1E+10	1	-1E+10	1
4902554	103	C	12/16/2023	08:07	-133.724	47.508	0	1115.10	0	2.8870	0	34.4140	0	27.434	0	1102.834	0	-1e10	8	-1e10	8	-1E+10	1	-1E+10	1	-1E+10	1	-1E+10	1	-1E+10	1	-1E+10	1
4902554	103	C	12/16/2023	08:07	-133.724	47.508	0	1125.10	0	2.8710	0	34.4170	0	27.438	0	1112.697	0	-1e10	8	-1e10	8	-1E+10	1	-1E+10	1	-1E+10	1	-1E+10	1	-1E+10	1	-1E+10	1
4902554	103	C	12/16/2023	08:07	-133.724	47.508	0	1135.30	0	2.8550	0	34.4190	0	27.441	0	1122.758	0	-1e10	8	-1e10	8	-1E+10	1	-1E+10	1	-1E+10	1	-1E+10	1	-1E+10	1	-1E+10	1
4902554	103	C	12/16/2023	08:07	-133.724	47.508	0	1145.50	0	2.8410	0	34.4210	0	27.444	0	1132.817	0	-1e10	8	-1e10	8	-1E+10	1	-1E+10	1	-1E+10	1	-1E+10	1	-1E+10	1	-1E+10	1
4902554	103	C	12/16/2023	08:07	-133.724	47.508	0	1155.60	0	2.8230	0	34.4260	0	27.450	0	1142.778	0	-1e10	8	-1e10	8	-1E+10	1	-1E+10	1	-1E+10	1	-1E+10	1	-1E+10	1	-1E+10	1
4902554	103	C	12/16/2023	08:07	-133.724	47.508	0	1165.60	0	2.8090	0	34.4320	0	27.456	0	1152.640	0	-1e10	8	-1e10	8	-1E+10	1	-1E+10	1	-1E+10	1	-1E+10	1	-1E+10	1	-1E+10	1
4902554	103	C	12/16/2023	08:07	-133.724	47.508	0	1175.60	0	2.7940	0	34.4340	0	27.459	0	1162.501	0	-1e10	8	-1e10	8	-1E+10	1	-1E+10	1	-1E+10	1	-1E+10	1	-1E+10	1	-1E+10	1
4902554	103	C	12/16/2023	08:07	-133.724	47.508	0	1185.50	0	2.7820	0	34.4360	0	27.462	0	1172.263	0	-1e10	8	-1e10	8	-1E+10	1	-1E+10	1	-1E+10	1	-1E+10	1	-1E+10	1	-1E+10	1
4902554	103	C	12/16/2023	08:07	-133.724	47.508	0	1195.10	0	2.7590	0	34.4390	0	27.466	0	1181.729	0	-1e10	8	-1e10	8	-1E+10	1	-1E+10	1	-1E+10	1	-1E+10	1	-1E+10	1	-1E+10	1
4902554	103	C	12/16/2023	08:07	-133.724	47.508	0	1205.30	0	2.7460	0	34.4420	0	27.470	0	1191.786	0	-1e10	8	-1e10	8	-1E+10	1	-1E+10	1	-1E+10	1	-1E+10	1	-1E+10	1	-1E+10	1
4902554	103	C	12/16/2023	08:07	-133.724	47.508	0	1215.70	0	2.7250	0	34.4460	0	27.475	0	1202.040	0	-1e10	8	-1e10	8	-1E+10	1	-1E+10	1	-1E+10	1	-1E+10	1	-1E+10	1	-1E+10	1
4902554	103	C	12/16/2023	08:07	-133.724	47.508	0	1225.30	0	2.7060	0	34.4490	0	27.479	0	1211.504	0	-1e10	8	-1e10	8	-1E+10	1	-1E+10	1	-1E+10	1	-1E+10	1	-1E+10	1	-1E+10	1
4902554	103	C	12/16/2023	08:07	-133.724	47.508	0	1235.20	0	2.6870	0	34.4530	0	27.484	0	1221.264	0	-1e10	8	-1e10	8	-1E+10	1	-1E+10	1	-1E+10	1	-1E+10	1	-1E+10	1	-1E+10	1
4902554	103	C	12/16/2023	08:07	-133.724	47.508	0	1245.50	0	2.6740	0	34.4560	0	27.487	0	1231.418	0	-1e10	8	-1e10	8	-1E+10	1	-1E+10	1	-1E+10	1	-1E+10	1	-1E+10	1	-1E+10	1
4902554	103	C	12/16/2023	08:07	-133.724	47.508	0	1255.60	0	2.6600	0	34.4580	0	27.490	0	1241.374	0	-1e10	8	-1e10	8	-1E+10	1	-1E+10	1	-1E+10	1	-1E+10	1	-1E+10	1	-1E+10	1
4902554	103	C	12/16/2023	08:07	-133.724	47.508	0	1265.30	0	2.6460	0	34.4600	0	27.493	0	1250.935	0	-1e10	8	-1e10	8	-1E+10	1	-1E+10	1	-1E+10	1	-1E+10	1	-1E+10	1	-1E+10	1
4902554	103	C	12/16/2023	08:07	-133.724	47.508	0	1275.10	0	2.6380	0	34.4620	0	27.495	0	1260.594	0	-1e10	8	-1e10	8	-1E+10	1	-1E+10	1	-1E+10	1	-1E+10	1	-1E+10	1	-1E+10	1
4902554	103	C	12/16/2023	08:07	-133.724	47.508	0	1285.50	0	2.6300	0	34.4630	0	27.497	0	1270.845	0	-1e10	8	-1e10	8	-1E+10	1	-1E+10	1	-1E+10	1	-1E+10	1	-1E+10	1	-1E+10	1
4902554	103	C	12/16/2023	08:07	-133.724	47.508	0	1295.40	0	2.6170	0	34.4650	0	27.500	0	1280.602	0	-1e10	8	-1e10	8	-1E+10	1	-1E+10	1	-1E+10	1	-1E+10	1	-1E+10	1	-1E+10	1
4902554	103	C	12/16/2023	08:07	-133.724	47.508	0	1305.60	0	2.6030	0	34.4680	0	27.503	0	1290.654	0	-1e10	8	-1e10	8	-1E+10	1	-1E+10	1	-1E+10	1	-1E+10	1	-1E+10	1	-1E+10	1
4902554	103	C	12/16/2023	08:07	-133.724	47.508	0	1315.30	0	2.5970	0	34.4700	0	27.505	0	1300.213	0	-1e10	8	-1e10	8	-1E+10	1	-1E+10	1	-1E+10	1	-1E+10	1	-1E+10	1	-1E+10	1
4902554	103	C	12/16/2023	08:07	-133.724	47.508	0	1325.10	0	2.5810	0	34.4730	0	27.509	0	1309.870	0	-1e10	8	-1e10	8	-1E+10	1	-1E+10	1	-1E+10	1	-1E+10	1	-1E+10	1	-1E+10	1
4902554	103	C	12/16/2023	08:07	-133.724	47.508	0	1335.00	0	2.5690	0	34.4770	0	27.513	0	1319.625	0	-1e10	8	-1e10	8	-1E+10	1	-1E+10	1	-1E+10	1	-1E+10	1	-1E+10	1	-1E+10	1
4902554	103	C	12/16/2023	08:07	-133.724	47.508	0	1345.30	0	2.5470	0	34.4790	0	27.517	0	1329.774	0	-1e10	8	-1e10	8	-1E+10	1	-1E+10	1	-1E+10	1	-1E+10	1	-1E+10	1	-1E+10	1
4902554	103	C	12/16/2023	08:07	-133.724	47.508	0	1355.70	0	2.5250	0	34.4810	0	27.521	0	1340.021	0	-1e10	8	-1e10	8	-1E+10	1	-1E+10	1	-1E+10	1	-1E+10	1	-1E+10	1	-1E+10	1
4902554	103	C	12/16/2023	08:07	-133.724	47.508	0	1365.60	0	2.5120	0	34.4840	0	27.524	0	1349.775	0	-1e10	8	-1e10	8	-1E+10	1	-1E+10	1	-1E+10	1	-1E+10	1	-1E+10	1	-1E+10	1
4902554	103	C	12/16/2023	08:07	-133.724	47.508	0	1375.60	0	2.4940	0	34.4850	0	27.526	0	1359.627	0	-1e10	8	-1e10	8	-1E+10	1	-1E+10	1	-1E+10	1	-1E+10	1	-1E+10	1	-1E+10	1
4902554	103	C	12/16/2023	08:07	-133.724	47.508	0	1385.70	0	2.4780	0	34.4880	0	27.530	0	1369.577	0	-1e10	8	-1e10	8	-1E+10	1	-1E+10	1	-1E+10	1	-1E+10	1	-1E+10	1	-1E+10	1
4902554	103	C	12/16/2023	08:07	-133.724	47.508	0	1395.50	0	2.4620	0	34.4920	0	27.535	0	1379.231	0	-1e10	8	-1e10	8	-1E+10	1	-1E+10	1	-1E+10	1	-1E+10	1	-1E+10	1	-1E+10	1
4902554	103	C	12/16/2023	08:07	-133.724	47.508	0	1405.30	0	2.4500	0	34.4940	0	27.537	0	1388.884	0	-1e10	8	-1e10	8	-1E+10	1	-1E+10	1	-1E+10	1	-1E+10	1	-1E+10	1	-1E+10	1
4902554	103	C	12/16/2023	08:07	-133.724	47.508	0	1415.30	0	2.4380	0	34.4960	0	27.540	0	1398.734	0	-1e10	8	-1e10	8	-1E+10	1	-1E+10	1	-1E+10	1	-1E+10	1	-1E+10	1	-1E+10	1
4902554	103	C	12/16/2023	08:07	-133.724	47.508	0	1425.40	0	2.4230	0	34.4990	0	27.544	0	1408.683	0	-1e10	8	-1e10	8	-1E+10	1	-1E+10	1	-1E+10	1	-1E+10	1	-1E+10	1	-1E+10	1
4902554	103	C	12/16/2023	08:07	-133.724	47.508	0	1435.80	0	2.4060	0	34.5020	0	27.548	0	1418.926	0	-1e10	8	-1e10	8	-1E+10	1	-1E+10	1	-1E+10	1	-1E+10	1	-1E+10	1	-1E+10	1
4902554	103	C	12/16/2023	08:07	-133.724	47.508	0	1445.30	0	2.3900	0	34.5060	0	27.552	0	1428.282	0	-1e10	8	-1e10	8	-1E+10	1	-1E+10	1	-1E+10	1	-1E+10	1	-1E+10	1	-1E+10	1
4902554	103	C	12/16/2023	08:07	-133.724	47.508	0	1455.10	0	2.3800	0	34.5080	0	27.555	0	1437.933	0	-1e10	8	-1e10	8	-1E+10	1	-1E+10	1	-1E+10	1	-1E+10	1	-1E+10	1	-1E+10	1
4902554	103	C	12/16/2023	08:07	-133.724	47.508	0	1465.50	0	2.3730	0	34.5110	0	27.558	0	1448.175	0	-1e10	8	-1e10	8	-1E+10	1	-1E+10	1	-1E+10	1	-1E+10	1	-1E+10	1	-1E+10	1
4902554	103	C	12/16/2023	08:07	-133.724	47.508	0	1475.70	0	2.3590	0	34.5130	0	27.561	0	1458.219	0	-1e10	8	-1e10	8	-1E+10	1	-1E+10	1	-1E+10	1	-1E+10	1	-1E+10	1	-1E+10	1
4902554	103	C	12/16/2023	08:07	-133.724	47.508	0	1485.60	0	2.3430	0	34.5140	0	27.563	0	1467.967	0	-1e10	8	-1e10	8	-1E+10	1	-1E+10	1	-1E+10	1	-1E+10	1	-1E+10	1	-1E+10	1
4902554	103	C	12/16/2023	08:07	-133.724	47.508	0	1495.50	0	2.3340	0	34.5160	0	27.565	0	1477.715	0	-1e10	8	-1e10	8	-1E+10	1	-1E+10	1	-1E+10	1	-1E+10	1	-1E+10	1	-1E+10	1
4902554	103	C	12/16/2023	08:07	-133.724	47.508	0	1505.30	0	2.3260	0	34.5180	0	27.567	0	1487.364	0	-1e10	8	-1e10	8	-1E+10	1	-1E+10	1	-1E+10	1	-1E+10	1	-1E+10	1	-1E+10	1
4902554	103	C	12/16/2023	08:07	-133.724	47.508	0	1515.30	0	2.3150	0	34.5190	0	27.569	0	1497.210	0	-1e10	8	-1e10	8	-1E+10	1	-1E+10	1	-1E+10	1	-1E+10	1	-1E+10	1	-1E+10	1
4902554	103	C	12/16/2023	08:07	-133.724	47.508	0	1525.00	0	2.3010	0	34.5210	0	27.572	0	1506.759	0	-1e10	8	-1e10	8	-1E+10	1	-1E+10	1	-1E+10	1	-1E+10	1	-1E+10	1	-1E+10	1
4902554	103	C	12/16/2023	08:07	-133.724	47.508	0	1535.10	0	2.2920	0	34.5240	0	27.575	0	1516.702	0	-1e10	8	-1e10	8	-1E+10	1	-1E+10	1	-1E+10	1	-1E+10	1	-1E+10	1	-1E+10	1
4902554	103	C	12/16/2023	08:07	-133.724	47.508	0	1545.40	0	2.2810	0	34.5250	0	27.577	0	1526.842	0	-1e10	8	-1e10	8	-1E+10	1	-1E+10	1	-1E+10	1	-1E+10	1	-1E+10	1	-1E+10	1
4902554	103	C	12/16/2023	08:07	-133.724	47.508	0	1555.70	0	2.2660	0	34.5260	0	27.579	0	1536.981	0	-1e10	8	-1e10	8	-1E+10	1	-1E+10	1	-1E+10	1	-1E+10	1	-1E+10	1	-1E+10	1
4902554	103	C	12/16/2023	08:07	-133.724	47.508	0	1565.60	0	2.2570	0	34.5270	0	27.581	0	1546.725	0	-1e10	8	-1e10	8	-1E+10	1	-1E+10	1	-1E+10	1	-1E+10	1	-1E+10	1	-1E+10	1
4902554	103	C	12/16/2023	08:07	-133.724	47.508	0	1575.40	0	2.2500	0	34.5290	0	27.583	0	1556.371	0	-1e10	8	-1e10	8	-1E+10	1	-1E+10	1	-1E+10	1	-1E+10	1	-1E+10	1	-1E+10	1
4902554	103	C	12/16/2023	08:07	-133.724	47.508	0	1585.10	0	2.2430	0	34.5310	0	27.585	0	1565.918	0	-1e10	8	-1e10	8	-1E+10	1	-1E+10	1	-1E+10	1	-1E+10	1	-1E+10	1	-1E+10	1
4902554	103	C	12/16/2023	08:07	-133.724	47.508	0	1595.40	0	2.2280	0	34.5330	0	27.588	0	1576.055	0	-1e10	8	-1e10	8	-1E+10	1	-1E+10	1	-1E+10	1	-1E+10	1	-1E+10	1	-1E+10	1
4902554	103	C	12/16/2023	08:07	-133.724	47.508	0	1605.40	0	2.2160	0	34.5350	0	27.590	0	1585.897	0	-1e10	8	-1e10	8	-1E+10	1	-1E+10	1	-1E+10	1	-1E+10	1	-1E+10	1	-1E+10	1
4902554	103	C	12/16/2023	08:07	-133.724	47.508	0	1615.10	0	2.2070	0	34.5360	0	27.592	0	1595.442	0	-1e10	8	-1e10	8	-1E+10	1	-1E+10	1	-1E+10	1	-1E+10	1	-1E+10	1	-1E+10	1
4902554	103	C	12/16/2023	08:07	-133.724	47.508	0	1625.00	0	2.1970	0	34.5380	0	27.595	0	1605.184	0	-1e10	8	-1e10	8	-1E+10	1	-1E+10	1	-1E+10	1	-1E+10	1	-1E+10	1	-1E+10	1
4902554	103	C	12/16/2023	08:07	-133.724	47.508	0	1635.00	0	2.1920	0	34.5390	0	27.596	0	1615.024	0	-1e10	8	-1e10	8	-1E+10	1	-1E+10	1	-1E+10	1	-1E+10	1	-1E+10	1	-1E+10	1
4902554	103	C	12/16/2023	08:07	-133.724	47.508	0	1645.20	0	2.1790	0	34.5410	0	27.598	0	1625.060	0	-1e10	8	-1e10	8	-1E+10	1	-1E+10	1	-1E+10	1	-1E+10	1	-1E+10	1	-1E+10	1
4902554	103	C	12/16/2023	08:07	-133.724	47.508	0	1655.40	0	2.1690	0	34.5430	0	27.601	0	1635.096	0	-1e10	8	-1e10	8	-1E+10	1	-1E+10	1	-1E+10	1	-1E+10	1	-1E+10	1	-1E+10	1
4902554	103	C	12/16/2023	08:07	-133.724	47.508	0	1665.30	0	2.1570	0	34.5460	0	27.604	0	1644.836	0	-1e10	8	-1e10	8	-1E+10	1	-1E+10	1	-1E+10	1	-1E+10	1	-1E+10	1	-1E+10	1
4902554	103	C	12/16/2023	08:07	-133.724	47.508	0	1675.20	0	2.1490	0	34.5470	0	27.606	0	1654.576	0	-1e10	8	-1e10	8	-1E+10	1	-1E+10	1	-1E+10	1	-1E+10	1	-1E+10	1	-1E+10	1
4902554	103	C	12/16/2023	08:07	-133.724	47.508	0	1685.40	0	2.1400	0	34.5490	0	27.608	0	1664.611	0	-1e10	8	-1e10	8	-1E+10	1	-1E+10	1	-1E+10	1	-1E+10	1	-1E+10	1	-1E+10	1
4902554	103	C	12/16/2023	08:07	-133.724	47.508	0	1695.40	0	2.1340	0	34.5500	0	27.610	0	1674.448	0	-1e10	8	-1e10	8	-1E+10	1	-1E+10	1	-1E+10	1	-1E+10	1	-1E+10	1	-1E+10	1
4902554	103	C	12/16/2023	08:07	-133.724	47.508	0	1705.10	0	2.1240	0	34.5510	0	27.611	0	1683.989	0	-1e10	8	-1e10	8	-1E+10	1	-1E+10	1	-1E+10	1	-1E+10	1	-1E+10	1	-1E+10	1
4902554	103	C	12/16/2023	08:07	-133.724	47.508	0	1715.00	0	2.1160	0	34.5530	0	27.613	0	1693.727	0	-1e10	8	-1e10	8	-1E+10	1	-1E+10	1	-1E+10	1	-1E+10	1	-1E+10	1	-1E+10	1
4902554	103	C	12/16/2023	08:07	-133.724	47.508	0	1725.10	0	2.1080	0	34.5540	0	27.615	0	1703.661	0	-1e10	8	-1e10	8	-1E+10	1	-1E+10	1	-1E+10	1	-1E+10	1	-1E+10	1	-1E+10	1
4902554	103	C	12/16/2023	08:07	-133.724	47.508	0	1735.30	0	2.1010	0	34.5560	0	27.617	0	1713.694	0	-1e10	8	-1e10	8	-1E+10	1	-1E+10	1	-1E+10	1	-1E+10	1	-1E+10	1	-1E+10	1
4902554	103	C	12/16/2023	08:07	-133.724	47.508	0	1745.50	0	2.0940	0	34.5570	0	27.619	0	1723.725	0	-1e10	8	-1e10	8	-1E+10	1	-1E+10	1	-1E+10	1	-1E+10	1	-1E+10	1	-1E+10	1
4902554	103	C	12/16/2023	08:07	-133.724	47.508	0	1755.40	0	2.0840	0	34.5590	0	27.621	0	1733.461	0	-1e10	8	-1e10	8	-1E+10	1	-1E+10	1	-1E+10	1	-1E+10	1	-1E+10	1	-1E+10	1
4902554	103	C	12/16/2023	08:07	-133.724	47.508	0	1765.50	0	2.0740	0	34.5600	0	27.623	0	1743.393	0	-1e10	8	-1e10	8	-1E+10	1	-1E+10	1	-1E+10	1	-1E+10	1	-1E+10	1	-1E+10	1
4902554	103	C	12/16/2023	08:07	-133.724	47.508	0	1775.70	0	2.0650	0	34.5620	0	27.625	0	1753.424	0	-1e10	8	-1e10	8	-1E+10	1	-1E+10	1	-1E+10	1	-1E+10	1	-1E+10	1	-1E+10	1
4902554	103	C	12/16/2023	08:07	-133.724	47.508	0	1785.50	0	2.0580	0	34.5630	0	27.626	0	1763.060	0	-1e10	8	-1e10	8	-1E+10	1	-1E+10	1	-1E+10	1	-1E+10	1	-1E+10	1	-1E+10	1
4902554	103	C	12/16/2023	08:07	-133.724	47.508	0	1795.50	0	2.0490	0	34.5650	0	27.629	0	1772.893	0	-1e10	8	-1e10	8	-1E+10	1	-1E+10	1	-1E+10	1	-1E+10	1	-1E+10	1	-1E+10	1
4902554	103	C	12/16/2023	08:07	-133.724	47.508	0	1805.60	0	2.0440	0	34.5660	0	27.630	0	1782.823	0	-1e10	8	-1e10	8	-1E+10	1	-1E+10	1	-1E+10	1	-1E+10	1	-1E+10	1	-1E+10	1
4902554	103	C	12/16/2023	08:07	-133.724	47.508	0	1815.30	0	2.0370	0	34.5670	0	27.631	0	1792.360	0	-1e10	8	-1e10	8	-1E+10	1	-1E+10	1	-1E+10	1	-1E+10	1	-1E+10	1	-1E+10	1
4902554	103	C	12/16/2023	08:07	-133.724	47.508	0	1825.10	0	2.0290	0	34.5690	0	27.634	0	1801.995	0	-1e10	8	-1e10	8	-1E+10	1	-1E+10	1	-1E+10	1	-1E+10	1	-1E+10	1	-1E+10	1
4902554	103	C	12/16/2023	08:07	-133.724	47.508	0	1835.40	0	2.0220	0	34.5700	0	27.635	0	1812.120	0	-1e10	8	-1e10	8	-1E+10	1	-1E+10	1	-1E+10	1	-1E+10	1	-1E+10	1	-1E+10	1
4902554	103	C	12/16/2023	08:07	-133.724	47.508	0	1845.30	0	2.0150	0	34.5710	0	27.637	0	1821.852	0	-1e10	8	-1e10	8	-1E+10	1	-1E+10	1	-1E+10	1	-1E+10	1	-1E+10	1	-1E+10	1
4902554	103	C	12/16/2023	08:07	-133.724	47.508	0	1855.20	0	2.0080	0	34.5730	0	27.639	0	1831.584	0	-1e10	8	-1e10	8	-1E+10	1	-1E+10	1	-1E+10	1	-1E+10	1	-1E+10	1	-1E+10	1
4902554	103	C	12/16/2023	08:07	-133.724	47.508	0	1865.60	0	2.0040	0	34.5740	0	27.640	0	1841.806	0	-1e10	8	-1e10	8	-1E+10	1	-1E+10	1	-1E+10	1	-1E+10	1	-1E+10	1	-1E+10	1
4902554	103	C	12/16/2023	08:07	-133.724	47.508	0	1875.60	0	2.0000	0	34.5750	0	27.641	0	1851.635	0	-1e10	8	-1e10	8	-1E+10	1	-1E+10	1	-1E+10	1	-1E+10	1	-1E+10	1	-1E+10	1
4902554	103	C	12/16/2023	08:07	-133.724	47.508	0	1885.20	0	1.9930	0	34.5760	0	27.642	0	1861.071	0	-1e10	8	-1e10	8	-1E+10	1	-1E+10	1	-1E+10	1	-1E+10	1	-1E+10	1	-1E+10	1
4902554	103	C	12/16/2023	08:07	-133.724	47.508	0	1895.30	0	1.9870	0	34.5770	0	27.644	0	1870.997	0	-1e10	8	-1e10	8	-1E+10	1	-1E+10	1	-1E+10	1	-1E+10	1	-1E+10	1	-1E+10	1
4902554	103	C	12/16/2023	08:07	-133.724	47.508	0	1905.50	0	1.9790	0	34.5780	0	27.645	0	1881.021	0	-1e10	8	-1e10	8	-1E+10	1	-1E+10	1	-1E+10	1	-1E+10	1	-1E+10	1	-1E+10	1
4902554	103	C	12/16/2023	08:07	-133.724	47.508	0	1915.40	0	1.9710	0	34.5800	0	27.648	0	1890.750	0	-1e10	8	-1e10	8	-1E+10	1	-1E+10	1	-1E+10	1	-1E+10	1	-1E+10	1	-1E+10	1
4902554	103	C	12/16/2023	08:07	-133.724	47.508	0	1925.80	0	1.9670	0	34.5810	0	27.649	0	1900.970	0	-1e10	8	-1e10	8	-1E+10	1	-1E+10	1	-1E+10	1	-1E+10	1	-1E+10	1	-1E+10	1
4902554	103	C	12/16/2023	08:07	-133.724	47.508	0	1935.50	0	1.9610	0	34.5830	0	27.651	0	1910.501	0	-1e10	8	-1e10	8	-1E+10	1	-1E+10	1	-1E+10	1	-1E+10	1	-1E+10	1	-1E+10	1
4902554	103	C	12/16/2023	08:07	-133.724	47.508	0	1945.20	0	1.9520	0	34.5840	0	27.652	0	1920.032	0	-1e10	8	-1e10	8	-1E+10	1	-1E+10	1	-1E+10	1	-1E+10	1	-1E+10	1	-1E+10	1
4902554	103	C	12/16/2023	08:07	-133.724	47.508	0	1955.40	0	1.9460	0	34.5850	0	27.654	0	1930.054	0	-1e10	8	-1e10	8	-1E+10	1	-1E+10	1	-1E+10	1	-1E+10	1	-1E+10	1	-1E+10	1
4902554	103	C	12/16/2023	08:07	-133.724	47.508	0	1965.50	0	1.9390	0	34.5860	0	27.655	0	1939.977	0	-1e10	8	-1e10	8	-1E+10	1	-1E+10	1	-1E+10	1	-1E+10	1	-1E+10	1	-1E+10	1
4902554	103	C	12/16/2023	08:07	-133.724	47.508	0	1975.50	0	1.9340	0	34.5880	0	27.657	0	1949.802	0	-1e10	8	-1e10	8	-1E+10	1	-1E+10	1	-1E+10	1	-1E+10	1	-1E+10	1	-1E+10	1
4902554	103	C	12/16/2023	08:07	-133.724	47.508	0	1985.70	0	1.9280	0	34.5890	0	27.658	0	1959.822	0	-1e10	8	-1e10	8	-1E+10	1	-1E+10	1	-1E+10	1	-1E+10	1	-1E+10	1	-1E+10	1
4902554	103	C	12/16/2023	08:07	-133.724	47.508	0	1995.70	0	1.9230	0	34.5900	0	27.660	0	1969.646	0	-1e10	8	-1e10	8	-1E+10	1	-1E+10	1	-1E+10	1	-1E+10	1	-1E+10	1	-1E+10	1
4902554	103	C	12/16/2023	08:07	-133.724	47.508	0	2005.80	0	1.9190	0	34.5910	0	27.661	0	1979.567	0	-1e10	8	-1e10	8	-1E+10	1	-1E+10	1	-1E+10	1	-1E+10	1	-1E+10	1	-1E+10	1
4902554	103	C	12/16/2023	08:07	-133.724	47.508	0	2014.00	0	1.9160	0	34.5920	0	27.662	0	1987.621	0	-1e10	8	-1e10	8	-1E+10	1	-1E+10	1	-1E+10	1	-1E+10	1	-1E+10	1	-1E+10	1
4902554	103	C	12/16/2023	08:07	-133.724	47.508	0																										
4902554	104	C	12/26/2023	12:58	-133.765	47.546	0	0.20	0	9.2750	0	32.2870	0	24.952	0	0.198	0	-1e10	8	-1e10	8	-1E+10	1	-1E+10	1	-1E+10	1	-1E+10	1	-1E+10	1	-1E+10	1
4902554	104	C	12/26/2023	12:58	-133.765	47.546	0	0.40	0	9.2860	0	32.2830	0	24.947	0	0.397	0	-1e10	8	-1e10	8	-1E+10	1	-1E+10	1	-1E+10	1	-1E+10	1	-1E+10	1	-1E+10	1
4902554	104	C	12/26/2023	12:58	-133.765	47.546	0	1.10	0	9.2840	0	32.2870	0	24.950	0	1.091	0	-1e10	8	-1e10	8	-1E+10	1	-1E+10	1	-1E+10	1	-1E+10	1	-1E+10	1	-1E+10	1
4902554	104	C	12/26/2023	12:58	-133.765	47.546	0	2.00	0	9.2890	0	32.2890	0	24.951	0	1.983	0	-1e10	8	-1e10	8	-1E+10	1	-1E+10	1	-1E+10	1	-1E+10	1	-1E+10	1	-1E+10	1
4902554	104	C	12/26/2023	12:58	-133.765	47.546	0	3.10	0	9.2940	0	32.2860	0	24.948	0	3.074	0	-1e10	8	-1e10	8	-1E+10	1	-1E+10	1	-1E+10	1	-1E+10	1	-1E+10	1	-1E+10	1
4902554	104	C	12/26/2023	12:58	-133.765	47.546	0	4.00	0	9.2940	0	32.2870	0	24.949	0	3.967	0	-1e10	8	-1e10	8	-1E+10	1	-1E+10	1	-1E+10	1	-1E+10	1	-1E+10	1	-1E+10	1
4902554	104	C	12/26/2023	12:58	-133.765	47.546	0	5.10	0	9.2950	0	32.2860	0	24.948	0	5.057	0	-1e10	8	-1e10	8	-1E+10	1	-1E+10	1	-1E+10	1	-1E+10	1	-1E+10	1	-1E+10	1
4902554	104	C	12/26/2023	12:58	-133.765	47.546	0	6.10	0	9.2970	0	32.2870	0	24.948	0	6.049	0	-1e10	8	-1e10	8	-1E+10	1	-1E+10	1	-1E+10	1	-1E+10	1	-1E+10	1	-1E+10	1
4902554	104	C	12/26/2023	12:58	-133.765	47.546	0	7.00	0	9.2960	0	32.2870	0	24.948	0	6.941	0	-1e10	8	-1e10	8	-1E+10	1	-1E+10	1	-1E+10	1	-1E+10	1	-1E+10	1	-1E+10	1
4902554	104	C	12/26/2023	12:58	-133.765	47.546	0	8.00	0	9.2990	0	32.2860	0	24.947	0	7.933	0	-1e10	8	-1e10	8	-1E+10	1	-1E+10	1	-1E+10	1	-1E+10	1	-1E+10	1	-1E+10	1
4902554	104	C	12/26/2023	12:58	-133.765	47.546	0	8.90	0	9.2990	0	32.2860	0	24.947	0	8.825	0	-1e10	8	-1e10	8	-1E+10	1	-1E+10	1	-1E+10	1	-1E+10	1	-1E+10	1	-1E+10	1
4902554	104	C	12/26/2023	12:58	-133.765	47.546	0	9.80	0	9.2980	0	32.2870	0	24.948	0	9.718	0	-1e10	8	-1e10	8	-1E+10	1	-1E+10	1	-1E+10	1	-1E+10	1	-1E+10	1	-1E+10	1
4902554	104	C	12/26/2023	12:58	-133.765	47.546	0	10.90	0	9.3020	0	32.2860	0	24.947	0	10.809	0	-1e10	8	-1e10	8	-1E+10	1	-1E+10	1	-1E+10	1	-1E+10	1	-1E+10	1	-1E+10	1
4902554	104	C	12/26/2023	12:58	-133.765	47.546	0	12.20	0	9.2980	0	32.2870	0	24.948	0	12.098	0	-1e10	8	-1e10	8	-1E+10	1	-1E+10	1	-1E+10	1	-1E+10	1	-1E+10	1	-1E+10	1
4902554	104	C	12/26/2023	12:58	-133.765	47.546	0	13.00	0	9.2980	0	32.2860	0	24.947	0	12.891	0	-1e10	8	-1e10	8	-1E+10	1	-1E+10	1	-1E+10	1	-1E+10	1	-1E+10	1	-1E+10	1
4902554	104	C	12/26/2023	12:58	-133.765	47.546	0	14.10	0	9.3050	0	32.2870	0	24.947	0	13.982	0	-1e10	8	-1e10	8	-1E+10	1	-1E+10	1	-1E+10	1	-1E+10	1	-1E+10	1	-1E+10	1
4902554	104	C	12/26/2023	12:58	-133.765	47.546	0	15.30	0	9.3060	0	32.2860	0	24.946	0	15.172	0	-1e10	8	-1e10	8	-1E+10	1	-1E+10	1	-1E+10	1	-1E+10	1	-1E+10	1	-1E+10	1
4902554	104	C	12/26/2023	12:58	-133.765	47.546	0	16.00	0	9.3030	0	32.2870	0	24.948	0	15.866	0	-1e10	8	-1e10	8	-1E+10	1	-1E+10	1	-1E+10	1	-1E+10	1	-1E+10	1	-1E+10	1
4902554	104	C	12/26/2023	12:58	-133.765	47.546	0	17.10	0	9.3050	0	32.2870	0	24.947	0	16.957	0	-1e10	8	-1e10	8	-1E+10	1	-1E+10	1	-1E+10	1	-1E+10	1	-1E+10	1	-1E+10	1
4902554	104	C	12/26/2023	12:58	-133.765	47.546	0	18.00	0	9.3060	0	32.2870	0	24.947	0	17.849	0	-1e10	8	-1e10	8	-1E+10	1	-1E+10	1	-1E+10	1	-1E+10	1	-1E+10	1	-1E+10	1
4902554	104	C	12/26/2023	12:58	-133.765	47.546	0	19.00	0	9.3070	0	32.2870	0	24.947	0	18.840	0	-1e10	8	-1e10	8	-1E+10	1	-1E+10	1	-1E+10	1	-1E+10	1	-1E+10	1	-1E+10	1
4902554	104	C	12/26/2023	12:58	-133.765	47.546	0	20.00	0	9.3070	0	32.2860	0	24.946	0	19.832	0	-1e10	8	-1e10	8	-1E+10	1	-1E+10	1	-1E+10	1	-1E+10	1	-1E+10	1	-1E+10	1
4902554	104	C	12/26/2023	12:58	-133.765	47.546	0	21.00	0	9.3060	0	32.2870	0	24.947	0	20.824	0	-1e10	8	-1e10	8	-1E+10	1	-1E+10	1	-1E+10	1	-1E+10	1	-1E+10	1	-1E+10	1
4902554	104	C	12/26/2023	12:58	-133.765	47.546	0	22.10	0	9.3060	0	32.2870	0	24.947	0	21.914	0	-1e10	8	-1e10	8	-1E+10	1	-1E+10	1	-1E+10	1	-1E+10	1	-1E+10	1	-1E+10	1
4902554	104	C	12/26/2023	12:58	-133.765	47.546	0	23.00	0	9.3060	0	32.2870	0	24.947	0	22.807	0	-1e10	8	-1e10	8	-1E+10	1	-1E+10	1	-1E+10	1	-1E+10	1	-1E+10	1	-1E+10	1
4902554	104	C	12/26/2023	12:58	-133.765	47.546	0	23.90	0	9.3060	0	32.2870	0	24.947	0	23.699	0	-1e10	8	-1e10	8	-1E+10	1	-1E+10	1	-1E+10	1	-1E+10	1	-1E+10	1	-1E+10	1
4902554	104	C	12/26/2023	12:58	-133.765	47.546	0	25.00	0	9.3070	0	32.2870	0	24.947	0	24.790	0	-1e10	8	-1e10	8	-1E+10	1	-1E+10	1	-1E+10	1	-1E+10	1	-1E+10	1	-1E+10	1
4902554	104	C	12/26/2023	12:58	-133.765	47.546	0	25.90	0	9.3070	0	32.2870	0	24.947	0	25.682	0	-1e10	8	-1e10	8	-1E+10	1	-1E+10	1	-1E+10	1	-1E+10	1	-1E+10	1	-1E+10	1
4902554	104	C	12/26/2023	12:58	-133.765	47.546	0	26.80	0	9.3070	0	32.2870	0	24.947	0	26.574	0	-1e10	8	-1e10	8	-1E+10	1	-1E+10	1	-1E+10	1	-1E+10	1	-1E+10	1	-1E+10	1
4902554	104	C	12/26/2023	12:58	-133.765	47.546	0	28.00	0	9.3070	0	32.2870	0	24.947	0	27.764	0	-1e10	8	-1e10	8	-1E+10	1	-1E+10	1	-1E+10	1	-1E+10	1	-1E+10	1	-1E+10	1
4902554	104	C	12/26/2023	12:58	-133.765	47.546	0	29.00	0	9.3070	0	32.2870	0	24.947	0	28.756	0	-1e10	8	-1e10	8	-1E+10	1	-1E+10	1	-1E+10	1	-1E+10	1	-1E+10	1	-1E+10	1
4902554	104	C	12/26/2023	12:58	-133.765	47.546	0	29.90	0	9.3060	0	32.2870	0	24.947	0	29.648	0	-1e10	8	-1e10	8	-1E+10	1	-1E+10	1	-1E+10	1	-1E+10	1	-1E+10	1	-1E+10	1
4902554	104	C	12/26/2023	12:58	-133.765	47.546	0	31.10	0	9.3060	0	32.2870	0	24.947	0	30.838	0	-1e10	8	-1e10	8	-1E+10	1	-1E+10	1	-1E+10	1	-1E+10	1	-1E+10	1	-1E+10	1
4902554	104	C	12/26/2023	12:58	-133.765	47.546	0	31.80	0	9.3110	0	32.2870	0	24.947	0	31.532	0	-1e10	8	-1e10	8	-1E+10	1	-1E+10	1	-1E+10	1	-1E+10	1	-1E+10	1	-1E+10	1
4902554	104	C	12/26/2023	12:58	-133.765	47.546	0	33.00	0	9.3120	0	32.2870	0	24.946	0	32.722	0	-1e10	8	-1e10	8	-1E+10	1	-1E+10	1	-1E+10	1	-1E+10	1	-1E+10	1	-1E+10	1
4902554	104	C	12/26/2023	12:58	-133.765	47.546	0	34.10	0	9.3110	0	32.2870	0	24.947	0	33.812	0	-1e10	8	-1e10	8	-1E+10	1	-1E+10	1	-1E+10	1	-1E+10	1	-1E+10	1	-1E+10	1
4902554	104	C	12/26/2023	12:58	-133.765	47.546	0	34.90	0	9.3120	0	32.2870	0	24.946	0	34.606	0	-1e10	8	-1e10	8	-1E+10	1	-1E+10	1	-1E+10	1	-1E+10	1	-1E+10	1	-1E+10	1
4902554	104	C	12/26/2023	12:58	-133.765	47.546	0	35.90	0	9.3110	0	32.2870	0	24.947	0	35.597	0	-1e10	8	-1e10	8	-1E+10	1	-1E+10	1	-1E+10	1	-1E+10	1	-1E+10	1	-1E+10	1
4902554	104	C	12/26/2023	12:58	-133.765	47.546	0	37.00	0	9.3110	0	32.2870	0	24.947	0	36.688	0	-1e10	8	-1e10	8	-1E+10	1	-1E+10	1	-1E+10	1	-1E+10	1	-1E+10	1	-1E+10	1
4902554	104	C	12/26/2023	12:58	-133.765	47.546	0	37.80	0	9.3110	0	32.2870	0	24.947	0	37.481	0	-1e10	8	-1e10	8	-1E+10	1	-1E+10	1	-1E+10	1	-1E+10	1	-1E+10	1	-1E+10	1
4902554	104	C	12/26/2023	12:58	-133.765	47.546	0	38.80	0	9.3110	0	32.2870	0	24.947	0	38.472	0	-1e10	8	-1e10	8	-1E+10	1	-1E+10	1	-1E+10	1	-1E+10	1	-1E+10	1	-1E+10	1
4902554	104	C	12/26/2023	12:58	-133.765	47.546	0	39.90	0	9.3110	0	32.2860	0	24.946	0	39.563	0	-1e10	8	-1e10	8	-1E+10	1	-1E+10	1	-1E+10	1	-1E+10	1	-1E+10	1	-1E+10	1
4902554	104	C	12/26/2023	12:58	-133.765	47.546	0	40.70	0	9.3090	0	32.2870	0	24.947	0	40.356	0	-1e10	8	-1e10	8	-1E+10	1	-1E+10	1	-1E+10	1	-1E+10	1	-1E+10	1	-1E+10	1
4902554	104	C	12/26/2023	12:58	-133.765	47.546	0	41.80	0	9.3110	0	32.2860	0	24.946	0	41.447	0	-1e10	8	-1e10	8	-1E+10	1	-1E+10	1	-1E+10	1	-1E+10	1	-1E+10	1	-1E+10	1
4902554	104	C	12/26/2023	12:58	-133.765	47.546	0	42.90	0	9.3120	0	32.2870	0	24.947	0	42.537	0	-1e10	8	-1e10	8	-1E+10	1	-1E+10	1	-1E+10	1	-1E+10	1	-1E+10	1	-1E+10	1
4902554	104	C	12/26/2023	12:58	-133.765	47.546	0	43.90	0	9.3120	0	32.2870	0	24.947	0	43.529	0	-1e10	8	-1e10	8	-1E+10	1	-1E+10	1	-1E+10	1	-1E+10	1	-1E+10	1	-1E+10	1
4902554	104	C	12/26/2023	12:58	-133.765	47.546	0	45.00	0	9.3120	0	32.2870	0	24.947	0	44.619	0	-1e10	8	-1e10	8	-1E+10	1	-1E+10	1	-1E+10	1	-1E+10	1	-1E+10	1	-1E+10	1
4902554	104	C	12/26/2023	12:58	-133.765	47.546	0	45.80	0	9.3130	0	32.2870	0	24.946	0	45.413	0	-1e10	8	-1e10	8	-1E+10	1	-1E+10	1	-1E+10	1	-1E+10	1	-1E+10	1	-1E+10	1
4902554	104	C	12/26/2023	12:58	-133.765	47.546	0	46.80	0	9.3120	0	32.2870	0	24.947	0	46.404	0	-1e10	8	-1e10	8	-1E+10	1	-1E+10	1	-1E+10	1	-1E+10	1	-1E+10	1	-1E+10	1
4902554	104	C	12/26/2023	12:58	-133.765	47.546	0	47.80	0	9.3130	0	32.2870	0	24.946	0	47.395	0	-1e10	8	-1e10	8	-1E+10	1	-1E+10	1	-1E+10	1	-1E+10	1	-1E+10	1	-1E+10	1
4902554	104	C	12/26/2023	12:58	-133.765	47.546	0	48.80	0	9.3120	0	32.2870	0	24.947	0	48.387	0	-1e10	8	-1e10	8	-1E+10	1	-1E+10	1	-1E+10	1	-1E+10	1	-1E+10	1	-1E+10	1
4902554	104	C	12/26/2023	12:58	-133.765	47.546	0	50.10	0	9.3120	0	32.2870	0	24.947	0	49.676	0	-1e10	8	-1e10	8	-1E+10	1	-1E+10	1	-1E+10	1	-1E+10	1	-1E+10	1	-1E+10	1
4902554	104	C	12/26/2023	12:58	-133.765	47.546	0	51.00	0	9.3120	0	32.2870	0	24.947	0	50.568	0	-1e10	8	-1e10	8	-1E+10	1	-1E+10	1	-1E+10	1	-1E+10	1	-1E+10	1	-1E+10	1
4902554	104	C	12/26/2023	12:58	-133.765	47.546	0	51.90	0	9.3120	0	32.2870	0	24.947	0	51.460	0	-1e10	8	-1e10	8	-1E+10	1	-1E+10	1	-1E+10	1	-1E+10	1	-1E+10	1	-1E+10	1
4902554	104	C	12/26/2023	12:58	-133.765	47.546	0	52.80	0	9.3130	0	32.2870	0	24.947	0	52.352	0	-1e10	8	-1e10	8	-1E+10	1	-1E+10	1	-1E+10	1	-1E+10	1	-1E+10	1	-1E+10	1
4902554	104	C	12/26/2023	12:58	-133.765	47.546	0	53.80	0	9.3130	0	32.2870	0	24.947	0	53.344	0	-1e10	8	-1e10	8	-1E+10	1	-1E+10	1	-1E+10	1	-1E+10	1	-1E+10	1	-1E+10	1
4902554	104	C	12/26/2023	12:58	-133.765	47.546	0	55.00	0	9.3130	0	32.2870	0	24.947	0	54.533	0	-1e10	8	-1e10	8	-1E+10	1	-1E+10	1	-1E+10	1	-1E+10	1	-1E+10	1	-1E+10	1
4902554	104	C	12/26/2023	12:58	-133.765	47.546	0	56.00	0	9.3130	0	32.2870	0	24.947	0	55.525	0	-1e10	8	-1e10	8	-1E+10	1	-1E+10	1	-1E+10	1	-1E+10	1	-1E+10	1	-1E+10	1
4902554	104	C	12/26/2023	12:58	-133.765	47.546	0	56.80	0	9.3140	0	32.2870	0	24.946	0	56.318	0	-1e10	8	-1e10	8	-1E+10	1	-1E+10	1	-1E+10	1	-1E+10	1	-1E+10	1	-1E+10	1
4902554	104	C	12/26/2023	12:58	-133.765	47.546	0	58.00	0	9.3130	0	32.2870	0	24.947	0	57.508	0	-1e10	8	-1e10	8	-1E+10	1	-1E+10	1	-1E+10	1	-1E+10	1	-1E+10	1	-1E+10	1
4902554	104	C	12/26/2023	12:58	-133.765	47.546	0	59.00	0	9.3120	0	32.2870	0	24.947	0	58.499	0	-1e10	8	-1e10	8	-1E+10	1	-1E+10	1	-1E+10	1	-1E+10	1	-1E+10	1	-1E+10	1
4902554	104	C	12/26/2023	12:58	-133.765	47.546	0	59.90	0	9.3120	0	32.2870	0	24.947	0	59.391	0	-1e10	8	-1e10	8	-1E+10	1	-1E+10	1	-1E+10	1	-1E+10	1	-1E+10	1	-1E+10	1
4902554	104	C	12/26/2023	12:58	-133.765	47.546	0	60.90	0	9.3130	0	32.2870	0	24.947	0	60.383	0	-1e10	8	-1e10	8	-1E+10	1	-1E+10	1	-1E+10	1	-1E+10	1	-1E+10	1	-1E+10	1
4902554	104	C	12/26/2023	12:58	-133.765	47.546	0	61.90	0	9.3130	0	32.2870	0	24.947	0	61.374	0	-1e10	8	-1e10	8	-1E+10	1	-1E+10	1	-1E+10	1	-1E+10	1	-1E+10	1	-1E+10	1
4902554	104	C	12/26/2023	12:58	-133.765	47.546	0	62.90	0	9.3130	0	32.2870	0	24.947	0	62.365	0	-1e10	8	-1e10	8	-1E+10	1	-1E+10	1	-1E+10	1	-1E+10	1	-1E+10	1	-1E+10	1
4902554	104	C	12/26/2023	12:58	-133.765	47.546	0	63.90	0	9.3130	0	32.2870	0	24.947	0	63.357	0	-1e10	8	-1e10	8	-1E+10	1	-1E+10	1	-1E+10	1	-1E+10	1	-1E+10	1	-1E+10	1
4902554	104	C	12/26/2023	12:58	-133.765	47.546	0	65.00	0	9.3130	0	32.2870	0	24.947	0	64.447	0	-1e10	8	-1e10	8	-1E+10	1	-1E+10	1	-1E+10	1	-1E+10	1	-1E+10	1	-1E+10	1
4902554	104	C	12/26/2023	12:58	-133.765	47.546	0	65.80	0	9.3130	0	32.2870	0	24.947	0	65.240	0	-1e10	8	-1e10	8	-1E+10	1	-1E+10	1	-1E+10	1	-1E+10	1	-1E+10	1	-1E+10	1
4902554	104	C	12/26/2023	12:58	-133.765	47.546	0	66.90	0	9.3130	0	32.2870	0	24.947	0	66.331	0	-1e10	8	-1e10	8	-1E+10	1	-1E+10	1	-1E+10	1	-1E+10	1	-1E+10	1	-1E+10	1
4902554	104	C	12/26/2023	12:58	-133.765	47.546	0	67.90	0	9.3140	0	32.2870	0	24.947	0	67.322	0	-1e10	8	-1e10	8	-1E+10	1	-1E+10	1	-1E+10	1	-1E+10	1	-1E+10	1	-1E+10	1
4902554	104	C	12/26/2023	12:58	-133.765	47.546	0	68.90	0	9.3130	0	32.2870	0	24.947	0	68.313	0	-1e10	8	-1e10	8	-1E+10	1	-1E+10	1	-1E+10	1	-1E+10	1	-1E+10	1	-1E+10	1
4902554	104	C	12/26/2023	12:58	-133.765	47.546	0	70.00	0	9.3130	0	32.2870	0	24.947	0	69.404	0	-1e10	8	-1e10	8	-1E+10	1	-1E+10	1	-1E+10	1	-1E+10	1	-1E+10	1	-1E+10	1
4902554	104	C	12/26/2023	12:58	-133.765	47.546	0	71.20	0	9.3130	0	32.2870	0	24.947	0	70.593	0	-1e10	8	-1e10	8	-1E+10	1	-1E+10	1	-1E+10	1	-1E+10	1	-1E+10	1	-1E+10	1
4902554	104	C	12/26/2023	12:58	-133.765	47.546	0	72.00	0	9.3120	0	32.2870	0	24.947	0	71.386	0	-1e10	8	-1e10	8	-1E+10	1	-1E+10	1	-1E+10	1	-1E+10	1	-1E+10	1	-1E+10	1
4902554	104	C	12/26/2023	12:58	-133.765	47.546	0	72.80	0	9.3120	0	32.2870	0	24.947	0	72.179	0	-1e10	8	-1e10	8	-1E+10	1	-1E+10	1	-1E+10	1	-1E+10	1	-1E+10	1	-1E+10	1
4902554	104	C	12/26/2023	12:58	-133.765	47.546	0	73.90	0	9.3120	0	32.2870	0	24.947	0	73.270	0	-1e10	8	-1e10	8	-1E+10	1	-1E+10	1	-1E+10	1	-1E+10	1	-1E+10	1	-1E+10	1
4902554	104	C	12/26/2023	12:58	-133.765	47.546	0	75.10	0	9.3140	0	32.2860	0	24.946	0	74.459	0	-1e10	8	-1e10	8	-1E+10	1	-1E+10	1	-1E+10	1	-1E+10	1	-1E+10	1	-1E+10	1
4902554	104	C	12/26/2023	12:58	-133.765	47.546	0	75.90	0	9.3140	0	32.2870	0	24.947	0	75.252	0	-1e10	8	-1e10	8	-1E+10	1	-1E+10	1	-1E+10	1	-1E+10	1	-1E+10	1	-1E+10	1
4902554	104	C	12/26/2023	12:58	-133.765	47.546	0	77.00	0	9.3150	0	32.2870	0	24.947	0	76.343	0	-1e10	8	-1e10	8	-1E+10	1	-1E+10	1	-1E+10	1	-1E+10	1	-1E+10	1	-1E+10	1
4902554	104	C	12/26/2023	12:58	-133.765	47.546	0	78.10	0	9.3150	0	32.2870	0	24.947	0	77.433	0	-1e10	8	-1e10	8	-1E+10	1	-1E+10	1	-1E+10	1	-1E+10	1	-1E+10	1	-1E+10	1
4902554	104	C	12/26/2023	12:58	-133.765	47.546	0	78.90	0	9.3140	0	32.2870	0	24.947	0	78.226	0	-1e10	8	-1e10	8	-1E+10	1	-1E+10	1	-1E+10	1	-1E+10	1	-1E+10	1	-1E+10	1
4902554	104	C	12/26/2023	12:58	-133.765	47.546	0	79.80	0	9.3150	0	32.2860	0	24.946	0	79.118	0	-1e10	8	-1e10	8	-1E+10	1	-1E+10	1	-1E+10	1	-1E+10	1	-1E+10	1	-1E+10	1
4902554	104	C	12/26/2023	12:58	-133.765	47.546	0	81.00	0	9.3140	0	32.2850	0	24.945	0	80.308	0	-1e10	8	-1e10	8	-1E+10	1	-1E+10	1	-1E+10	1	-1E+10	1	-1E+10	1	-1E+10	1
4902554	104	C	12/26/2023	12:58	-133.765	47.546	0	82.10	0	9.2830	0	32.2920	0	24.956	0	81.398	0	-1e10	8	-1e10	8	-1E+10	1	-1E+10	1	-1E+10	1	-1E+10	1	-1E+10	1	-1E+10	1
4902554	104	C	12/26/2023	12:58	-133.765	47.546	0	83.10	0	9.2490	0	32.2980	0	24.966	0	82.390	0	-1e10	8	-1e10	8	-1E+10	1	-1E+10	1	-1E+10	1	-1E+10	1	-1E+10	1	-1E+10	1
4902554	104	C	12/26/2023	12:58	-133.765	47.546	0	84.20	0	9.1890	0	32.3070	0	24.982	0	83.480	0	-1e10	8	-1e10	8	-1E+10	1	-1E+10	1	-1E+10	1	-1E+10	1	-1E+10	1	-1E+10	1
4902554	104	C	12/26/2023	12:58	-133.765	47.546	0	85.00	0	9.1300	0	32.3170	0	24.999	0	84.273	0	-1e10	8	-1e10	8	-1E+10	1	-1E+10	1	-1E+10	1	-1E+10	1	-1E+10	1	-1E+10	1
4902554	104	C	12/26/2023	12:58	-133.765	47.546	0	86.00	0	8.9880	0	32.3320	0	25.033	0	85.264	0	-1e10	8	-1e10	8	-1E+10	1	-1E+10	1	-1E+10	1	-1E+10	1	-1E+10	1	-1E+10	1
4902554	104	C	12/26/2023	12:58	-133.765	47.546	0	86.90	0	8.7110	0	32.3610	0	25.098	0	86.156	0	-1e10	8	-1e10	8	-1E+10	1	-1E+10	1	-1E+10	1	-1E+10	1	-1E+10	1	-1E+10	1
4902554	104	C	12/26/2023	12:58	-133.765	47.546	0	88.10	0	8.3850	0	32.4000	0	25.178	0	87.346	0	-1e10	8	-1e10	8	-1E+10	1	-1E+10	1	-1E+10	1	-1E+10	1	-1E+10	1	-1E+10	1
4902554	104	C	12/26/2023	12:58	-133.765	47.546	0	89.10	0	8.0810	0	32.4260	0	25.243	0	88.337	0	-1e10	8	-1e10	8	-1E+10	1	-1E+10	1	-1E+10	1	-1E+10	1	-1E+10	1	-1E+10	1
4902554	104	C	12/26/2023	12:58	-133.765	47.546	0	89.80	0	7.7530	0	32.4750	0	25.328	0	89.031	0	-1e10	8	-1e10	8	-1E+10	1	-1E+10	1	-1E+10	1	-1E+10	1	-1E+10	1	-1E+10	1
4902554	104	C	12/26/2023	12:58	-133.765	47.546	0	90.80	0	7.5560	0	32.4930	0	25.370	0	90.022	0	-1e10	8	-1e10	8	-1E+10	1	-1E+10	1	-1E+10	1	-1E+10	1	-1E+10	1	-1E+10	1
4902554	104	C	12/26/2023	12:58	-133.765	47.546	0	91.90	0	7.4030	0	32.5120	0	25.406	0	91.112	0	-1e10	8	-1e10	8	-1E+10	1	-1E+10	1	-1E+10	1	-1E+10	1	-1E+10	1	-1E+10	1
4902554	104	C	12/26/2023	12:58	-133.765	47.546	0	93.10	0	7.2840	0	32.5270	0	25.434	0	92.302	0	-1e10	8	-1e10	8	-1E+10	1	-1E+10	1	-1E+10	1	-1E+10	1	-1E+10	1	-1E+10	1
4902554	104	C	12/26/2023	12:58	-133.765	47.546	0	94.00	0	7.1920	0	32.5350	0	25.453	0	93.194	0	-1e10	8	-1e10	8	-1E+10	1	-1E+10	1	-1E+10	1	-1E+10	1	-1E+10	1	-1E+10	1
4902554	104	C	12/26/2023	12:58	-133.765	47.546	0	94.90	0	7.1300	0	32.5420	0	25.467	0	94.086	0	-1e10	8	-1e10	8	-1E+10	1	-1E+10	1	-1E+10	1	-1E+10	1	-1E+10	1	-1E+10	1
4902554	104	C	12/26/2023	12:58	-133.765	47.546	0	96.00	0	7.0880	0	32.5470	0	25.476	0	95.176	0	-1e10	8	-1e10	8	-1E+10	1	-1E+10	1	-1E+10	1	-1E+10	1	-1E+10	1	-1E+10	1
4902554	104	C	12/26/2023	12:58	-133.765	47.546	0	96.90	0	7.0790	0	32.5480	0	25.478	0	96.068	0	-1e10	8	-1e10	8	-1E+10	1	-1E+10	1	-1E+10	1	-1E+10	1	-1E+10	1	-1E+10	1
4902554	104	C	12/26/2023	12:58	-133.765	47.546	0	97.80	0	7.0480	0	32.5500	0	25.484	0	96.960	0	-1e10	8	-1e10	8	-1E+10	1	-1E+10	1	-1E+10	1	-1E+10	1	-1E+10	1	-1E+10	1
4902554	104	C	12/26/2023	12:58	-133.765	47.546	0	99.00	0	7.0170	0	32.5540	0	25.492	0	98.150	0	-1e10	8	-1e10	8	-1E+10	1	-1E+10	1	-1E+10	1	-1E+10	1	-1E+10	1	-1E+10	1
4902554	104	C	12/26/2023	12:58	-133.765	47.546	0	99.90	0	6.9550	0	32.5660	0	25.509	0	99.042	0	-1e10	8	-1e10	8	-1E+10	1	-1E+10	1	-1E+10	1	-1E+10	1	-1E+10	1	-1E+10	1
4902554	104	C	12/26/2023	12:58	-133.765	47.546	0	100.80	0	6.9440	0	32.5670	0	25.511	0	99.934	0	-1e10	8	-1e10	8	-1E+10	1	-1E+10	1	-1E+10	1	-1E+10	1	-1E+10	1	-1E+10	1
4902554	104	C	12/26/2023	12:58	-133.765	47.546	0	101.90	0	6.9410	0	32.5660	0	25.511	0	101.024	0	-1e10	8	-1e10	8	-1E+10	1	-1E+10	1	-1E+10	1	-1E+10	1	-1E+10	1	-1E+10	1
4902554	104	C	12/26/2023	12:58	-133.765	47.546	0	103.00	0	6.8950	0	32.5740	0	25.523	0	102.114	0	-1e10	8	-1e10	8	-1E+10	1	-1E+10	1	-1E+10	1	-1E+10	1	-1E+10	1	-1E+10	1
4902554	104	C	12/26/2023	12:58	-133.765	47.546	0	104.30	0	6.8410	0	32.5900	0	25.543	0	103.403	0	-1e10	8	-1e10	8	-1E+10	1	-1E+10	1	-1E+10	1	-1E+10	1	-1E+10	1	-1E+10	1
4902554	104	C	12/26/2023	12:58	-133.765	47.546	0	105.00	0	6.7880	0	32.6050	0	25.562	0	104.097	0	-1e10	8	-1e10	8	-1E+10	1	-1E+10	1	-1E+10	1	-1E+10	1	-1E+10	1	-1E+10	1
4902554	104	C	12/26/2023	12:58	-133.765	47.546	0	106.10	0	6.7550	0	32.6180	0	25.577	0	105.187	0	-1e10	8	-1e10	8	-1E+10	1	-1E+10	1	-1E+10	1	-1E+10	1	-1E+10	1	-1E+10	1
4902554	104	C	12/26/2023	12:58	-133.765	47.546	0	107.00	0	6.7420	0	32.6560	0	25.608	0	106.079	0	-1e10	8	-1e10	8	-1E+10	1	-1E+10	1	-1E+10	1	-1E+10	1	-1E+10	1	-1E+10	1
4902554	104	C	12/26/2023	12:58	-133.765	47.546	0	107.90	0	6.8090	0	32.7810	0	25.698	0	106.971	0	-1e10	8	-1e10	8	-1E+10	1	-1E+10	1	-1E+10	1	-1E+10	1	-1E+10	1	-1E+10	1
4902554	104	C	12/26/2023	12:58	-133.765	47.546	0	108.90	0	6.7520	0	32.8040	0	25.724	0	107.962	0	-1e10	8	-1e10	8	-1E+10	1	-1E+10	1	-1E+10	1	-1E+10	1	-1E+10	1	-1E+10	1
4902554	104	C	12/26/2023	12:58	-133.765	47.546	0	109.90	0	6.6650	0	32.8280	0	25.754	0	108.953	0	-1e10	8	-1e10	8	-1E+10	1	-1E+10	1	-1E+10	1	-1E+10	1	-1E+10	1	-1E+10	1
4902554	104	C	12/26/2023	12:58	-133.765	47.546	0	111.00	0	6.5530	0	32.8630	0	25.796	0	110.044	0	-1e10	8	-1e10	8	-1E+10	1	-1E+10	1	-1E+10	1	-1E+10	1	-1E+10	1	-1E+10	1
4902554	104	C	12/26/2023	12:58	-133.765	47.546	0	111.90	0	6.5060	0	32.8990	0	25.830	0	110.936	0	-1e10	8	-1e10	8	-1E+10	1	-1E+10	1	-1E+10	1	-1E+10	1	-1E+10	1	-1E+10	1
4902554	104	C	12/26/2023	12:58	-133.765	47.546	0	112.80	0	6.4860	0	32.9110	0	25.842	0	111.828	0	-1e10	8	-1e10	8	-1E+10	1	-1E+10	1	-1E+10	1	-1E+10	1	-1E+10	1	-1E+10	1
4902554	104	C	12/26/2023	12:58	-133.765	47.546	0	114.10	0	6.4640	0	32.9890	0	25.907	0	113.116	0	-1e10	8	-1e10	8	-1E+10	1	-1E+10	1	-1E+10	1	-1E+10	1	-1E+10	1	-1E+10	1
4902554	104	C	12/26/2023	12:58	-133.765	47.546	0	115.20	0	6.4950	0	33.0850	0	25.979	0	114.206	0	-1e10	8	-1e10	8	-1E+10	1	-1E+10	1	-1E+10	1	-1E+10	1	-1E+10	1	-1E+10	1
4902554	104	C	12/26/2023	12:58	-133.765	47.546	0	115.90	0	6.4450	0	33.1000	0	25.997	0	114.900	0	-1e10	8	-1e10	8	-1E+10	1	-1E+10	1	-1E+10	1	-1E+10	1	-1E+10	1	-1E+10	1
4902554	104	C	12/26/2023	12:58	-133.765	47.546	0	116.90	0	6.3870	0	33.0970	0	26.002	0	115.891	0	-1e10	8	-1e10	8	-1E+10	1	-1E+10	1	-1E+10	1	-1E+10	1	-1E+10	1	-1E+10	1
4902554	104	C	12/26/2023	12:58	-133.765	47.546	0	118.10	0	6.3070	0	33.1190	0	26.029	0	117.080	0	-1e10	8	-1e10	8	-1E+10	1	-1E+10	1	-1E+10	1	-1E+10	1	-1E+10	1	-1E+10	1
4902554	104	C	12/26/2023	12:58	-133.765	47.546	0	118.80	0	6.2620	0	33.1210	0	26.037	0	117.774	0	-1e10	8	-1e10	8	-1E+10	1	-1E+10	1	-1E+10	1	-1E+10	1	-1E+10	1	-1E+10	1
4902554	104	C	12/26/2023	12:58	-133.765	47.546	0	119.90	0	6.2250	0	33.1520	0	26.066	0	118.864	0	-1e10	8	-1e10	8	-1E+10	1	-1E+10	1	-1E+10	1	-1E+10	1	-1E+10	1	-1E+10	1
4902554	104	C	12/26/2023	12:58	-133.765	47.546	0	121.10	0	6.2460	0	33.1740	0	26.081	0	120.054	0	-1e10	8	-1e10	8	-1E+10	1	-1E+10	1	-1E+10	1	-1E+10	1	-1E+10	1	-1E+10	1
4902554	104	C	12/26/2023	12:58	-133.765	47.546	0	121.90	0	6.3320	0	33.2130	0	26.100	0	120.846	0	-1e10	8	-1e10	8	-1E+10	1	-1E+10	1	-1E+10	1	-1E+10	1	-1E+10	1	-1E+10	1
4902554	104	C	12/26/2023	12:58	-133.765	47.546	0	123.00	0	6.2860	0	33.2330	0	26.122	0	121.937	0	-1e10	8	-1e10	8	-1E+10	1	-1E+10	1	-1E+10	1	-1E+10	1	-1E+10	1	-1E+10	1
4902554	104	C	12/26/2023	12:58	-133.765	47.546	0	124.20	0	6.2620	0	33.2440	0	26.134	0	123.126	0	-1e10	8	-1e10	8	-1E+10	1	-1E+10	1	-1E+10	1	-1E+10	1	-1E+10	1	-1E+10	1
4902554	104	C	12/26/2023	12:58	-133.765	47.546	0	124.90	0	6.2350	0	33.2440	0	26.137	0	123.820	0	-1e10	8	-1e10	8	-1E+10	1	-1E+10	1	-1E+10	1	-1E+10	1	-1E+10	1	-1E+10	1
4902554	104	C	12/26/2023	12:58	-133.765	47.546	0	126.00	0	6.2150	0	33.2450	0	26.141	0	124.910	0	-1e10	8	-1e10	8	-1E+10	1	-1E+10	1	-1E+10	1	-1E+10	1	-1E+10	1	-1E+10	1
4902554	104	C	12/26/2023	12:58	-133.765	47.546	0	127.20	0	6.1980	0	33.2440	0	26.142	0	126.099	0	-1e10	8	-1e10	8	-1E+10	1	-1E+10	1	-1E+10	1	-1E+10	1	-1E+10	1	-1E+10	1
4902554	104	C	12/26/2023	12:58	-133.765	47.546	0	127.90	0	6.1830	0	33.2430	0	26.143	0	126.793	0	-1e10	8	-1e10	8	-1E+10	1	-1E+10	1	-1E+10	1	-1E+10	1	-1E+10	1	-1E+10	1
4902554	104	C	12/26/2023	12:58	-133.765	47.546	0	129.00	0	6.0920	0	33.2460	0	26.157	0	127.883	0	-1e10	8	-1e10	8	-1E+10	1	-1E+10	1	-1E+10	1	-1E+10	1	-1E+10	1	-1E+10	1
4902554	104	C	12/26/2023	12:58	-133.765	47.546	0	130.20	0	6.0410	0	33.2530	0	26.169	0	129.072	0	-1e10	8	-1e10	8	-1E+10	1	-1E+10	1	-1E+10	1	-1E+10	1	-1E+10	1	-1E+10	1
4902554	104	C	12/26/2023	12:58	-133.765	47.546	0	131.00	0	5.9930	0	33.2630	0	26.183	0	129.865	0	-1e10	8	-1e10	8	-1E+10	1	-1E+10	1	-1E+10	1	-1E+10	1	-1E+10	1	-1E+10	1
4902554	104	C	12/26/2023	12:58	-133.765	47.546	0	131.70	0	5.9730	0	33.2680	0	26.189	0	130.559	0	-1e10	8	-1e10	8	-1E+10	1	-1E+10	1	-1E+10	1	-1E+10	1	-1E+10	1	-1E+10	1
4902554	104	C	12/26/2023	12:58	-133.765	47.546	0	132.90	0	5.9640	0	33.2750	0	26.196	0	131.748	0	-1e10	8	-1e10	8	-1E+10	1	-1E+10	1	-1E+10	1	-1E+10	1	-1E+10	1	-1E+10	1
4902554	104	C	12/26/2023	12:58	-133.765	47.546	0	134.10	0	5.9560	0	33.3120	0	26.226	0	132.937	0	-1e10	8	-1e10	8	-1E+10	1	-1E+10	1	-1E+10	1	-1E+10	1	-1E+10	1	-1E+10	1
4902554	104	C	12/26/2023	12:58	-133.765	47.546	0	135.00	0	5.9260	0	33.3280	0	26.242	0	133.829	0	-1e10	8	-1e10	8	-1E+10	1	-1E+10	1	-1E+10	1	-1E+10	1	-1E+10	1	-1E+10	1
4902554	104	C	12/26/2023	12:58	-133.765	47.546	0	135.80	0	5.8740	0	33.3540	0	26.269	0	134.622	0	-1e10	8	-1e10	8	-1E+10	1	-1E+10	1	-1E+10	1	-1E+10	1	-1E+10	1	-1E+10	1
4902554	104	C	12/26/2023	12:58	-133.765	47.546	0	136.60	0	5.8390	0	33.3750	0	26.290	0	135.415	0	-1e10	8	-1e10	8	-1E+10	1	-1E+10	1	-1E+10	1	-1E+10	1	-1E+10	1	-1E+10	1
4902554	104	C	12/26/2023	12:58	-133.765	47.546	0	137.90	0	5.8070	0	33.3740	0	26.293	0	136.703	0	-1e10	8	-1e10	8	-1E+10	1	-1E+10	1	-1E+10	1	-1E+10	1	-1E+10	1	-1E+10	1
4902554	104	C	12/26/2023	12:58	-133.765	47.546	0	139.20	0	5.7940	0	33.3810	0	26.300	0	137.991	0	-1e10	8	-1e10	8	-1E+10	1	-1E+10	1	-1E+10	1	-1E+10	1	-1E+10	1	-1E+10	1
4902554	104	C	12/26/2023	12:58	-133.765	47.546	0	140.00	0	5.7980	0	33.3850	0	26.303	0	138.784	0	-1e10	8	-1e10	8	-1E+10	1	-1E+10	1	-1E+10	1	-1E+10	1	-1E+10	1	-1E+10	1
4902554	104	C	12/26/2023	12:58	-133.765	47.546	0	140.90	0	5.7970	0	33.3900	0	26.307	0	139.676	0	-1e10	8	-1e10	8	-1E+10	1	-1E+10	1	-1E+10	1	-1E+10	1	-1E+10	1	-1E+10	1
4902554	104	C	12/26/2023	12:58	-133.765	47.546	0	141.70	0	5.7960	0	33.3920	0	26.309	0	140.469	0	-1e10	8	-1e10	8	-1E+10	1	-1E+10	1	-1E+10	1	-1E+10	1	-1E+10	1	-1E+10	1
4902554	104	C	12/26/2023	12:58	-133.765	47.546	0	143.00	0	5.8220	0	33.4070	0	26.317	0	141.757	0	-1e10	8	-1e10	8	-1E+10	1	-1E+10	1	-1E+10	1	-1E+10	1	-1E+10	1	-1E+10	1
4902554	104	C	12/26/2023	12:58	-133.765	47.546	0	144.30	0	5.8070	0	33.4360	0	26.342	0	143.045	0	-1e10	8	-1e10	8	-1E+10	1	-1E+10	1	-1E+10	1	-1E+10	1	-1E+10	1	-1E+10	1
4902554	104	C	12/26/2023	12:58	-133.765	47.546	0	145.20	0	5.8040	0	33.4490	0	26.353	0	143.937	0	-1e10	8	-1e10	8	-1E+10	1	-1E+10	1	-1E+10	1	-1E+10	1	-1E+10	1	-1E+10	1
4902554	104	C	12/26/2023	12:58	-133.765	47.546	0	146.10	0	5.8390	0	33.4630	0	26.360	0	144.829	0	-1e10	8	-1e10	8	-1E+10	1	-1E+10	1	-1E+10	1	-1E+10	1	-1E+10	1	-1E+10	1
4902554	104	C	12/26/2023	12:58	-133.765	47.546	0	146.90	0	5.8560	0	33.4740	0	26.366	0	145.622	0	-1e10	8	-1e10	8	-1E+10	1	-1E+10	1	-1E+10	1	-1E+10	1	-1E+10	1	-1E+10	1
4902554	104	C	12/26/2023	12:58	-133.765	47.546	0	147.80	0	5.8590	0	33.4780	0	26.369	0	146.513	0	-1e10	8	-1e10	8	-1E+10	1	-1E+10	1	-1E+10	1	-1E+10	1	-1E+10	1	-1E+10	1
4902554	104	C	12/26/2023	12:58	-133.765	47.546	0	148.70	0	5.8610	0	33.4790	0	26.370	0	147.405	0	-1e10	8	-1e10	8	-1E+10	1	-1E+10	1	-1E+10	1	-1E+10	1	-1E+10	1	-1E+10	1
4902554	104	C	12/26/2023	12:58	-133.765	47.546	0	149.60	0	5.8740	0	33.4940	0	26.380	0	148.297	0	-1e10	8	-1e10	8	-1E+10	1	-1E+10	1	-1E+10	1	-1E+10	1	-1E+10	1	-1E+10	1
4902554	104	C	12/26/2023	12:58	-133.765	47.546	0	150.90	0	5.8730	0	33.4990	0	26.384	0	149.585	0	-1e10	8	-1e10	8	-1E+10	1	-1E+10	1	-1E+10	1	-1E+10	1	-1E+10	1	-1E+10	1
4902554	104	C	12/26/2023	12:58	-133.765	47.546	0	152.30	0	5.8690	0	33.5040	0	26.388	0	150.973	0	-1e10	8	-1e10	8	-1E+10	1	-1E+10	1	-1E+10	1	-1E+10	1	-1E+10	1	-1E+10	1
4902554	104	C	12/26/2023	12:58	-133.765	47.546	0	153.20	0	5.8710	0	33.5070	0	26.391	0	151.864	0	-1e10	8	-1e10	8	-1E+10	1	-1E+10	1	-1E+10	1	-1E+10	1	-1E+10	1	-1E+10	1
4902554	104	C	12/26/2023	12:58	-133.765	47.546	0	154.10	0	5.8680	0	33.5150	0	26.397	0	152.756	0	-1e10	8	-1e10	8	-1E+10	1	-1E+10	1	-1E+10	1	-1E+10	1	-1E+10	1	-1E+10	1
4902554	104	C	12/26/2023	12:58	-133.765	47.546	0	155.10	0	5.8810	0	33.5190	0	26.399	0	153.747	0	-1e10	8	-1e10	8	-1E+10	1	-1E+10	1	-1E+10	1	-1E+10	1	-1E+10	1	-1E+10	1
4902554	104	C	12/26/2023	12:58	-133.765	47.546	0	156.00	0	5.8950	0	33.5260	0	26.403	0	154.639	0	-1e10	8	-1e10	8	-1E+10	1	-1E+10	1	-1E+10	1	-1E+10	1	-1E+10	1	-1E+10	1
4902554	104	C	12/26/2023	12:58	-133.765	47.546	0	156.90	0	5.8880	0	33.5310	0	26.408	0	155.531	0	-1e10	8	-1e10	8	-1E+10	1	-1E+10	1	-1E+10	1	-1E+10	1	-1E+10	1	-1E+10	1
4902554	104	C	12/26/2023	12:58	-133.765	47.546	0	157.80	0	5.8930	0	33.5330	0	26.409	0	156.423	0	-1e10	8	-1e10	8	-1E+10	1	-1E+10	1	-1E+10	1	-1E+10	1	-1E+10	1	-1E+10	1
4902554	104	C	12/26/2023	12:58	-133.765	47.546	0	158.70	0	5.8760	0	33.5410	0	26.417	0	157.314	0	-1e10	8	-1e10	8	-1E+10	1	-1E+10	1	-1E+10	1	-1E+10	1	-1E+10	1	-1E+10	1
4902554	104	C	12/26/2023	12:58	-133.765	47.546	0	159.60	0	5.8700	0	33.5530	0	26.427	0	158.206	0	-1e10	8	-1e10	8	-1E+10	1	-1E+10	1	-1E+10	1	-1E+10	1	-1E+10	1	-1E+10	1
4902554	104	C	12/26/2023	12:58	-133.765	47.546	0	160.60	0	5.8800	0	33.5590	0	26.431	0	159.197	0	-1e10	8	-1e10	8	-1E+10	1	-1E+10	1	-1E+10	1	-1E+10	1	-1E+10	1	-1E+10	1
4902554	104	C	12/26/2023	12:58	-133.765	47.546	0	161.90	0	5.9070	0	33.5700	0	26.436	0	160.485	0	-1e10	8	-1e10	8	-1E+10	1	-1E+10	1	-1E+10	1	-1E+10	1	-1E+10	1	-1E+10	1
4902554	104	C	12/26/2023	12:58	-133.765	47.546	0	163.40	0	5.9340	0	33.5880	0	26.447	0	161.971	0	-1e10	8	-1e10	8	-1E+10	1	-1E+10	1	-1E+10	1	-1E+10	1	-1E+10	1	-1E+10	1
4902554	104	C	12/26/2023	12:58	-133.765	47.546	0	164.30	0	5.9640	0	33.6040	0	26.456	0	162.863	0	-1e10	8	-1e10	8	-1E+10	1	-1E+10	1	-1E+10	1	-1E+10	1	-1E+10	1	-1E+10	1
4902554	104	C	12/26/2023	12:58	-133.765	47.546	0	165.30	0	5.9840	0	33.6190	0	26.465	0	163.854	0	-1e10	8	-1e10	8	-1E+10	1	-1E+10	1	-1E+10	1	-1E+10	1	-1E+10	1	-1E+10	1
4902554	104	C	12/26/2023	12:58	-133.765	47.546	0	166.30	0	5.9990	0	33.6150	0	26.460	0	164.845	0	-1e10	8	-1e10	8	-1E+10	1	-1E+10	1	-1E+10	1	-1E+10	1	-1E+10	1	-1E+10	1
4902554	104	C	12/26/2023	12:58	-133.765	47.546	0	167.20	0	5.9380	0	33.6390	0	26.487	0	165.737	0	-1e10	8	-1e10	8	-1E+10	1	-1E+10	1	-1E+10	1	-1E+10	1	-1E+10	1	-1E+10	1
4902554	104	C	12/26/2023	12:58	-133.765	47.546	0	168.20	0	6.0030	0	33.6530	0	26.490	0	166.728	0	-1e10	8	-1e10	8	-1E+10	1	-1E+10	1	-1E+10	1	-1E+10	1	-1E+10	1	-1E+10	1
4902554	104	C	12/26/2023	12:58	-133.765	47.546	0	169.20	0	6.0440	0	33.6530	0	26.485	0	167.718	0	-1e10	8	-1e10	8	-1E+10	1	-1E+10	1	-1E+10	1	-1E+10	1	-1E+10	1	-1E+10	1
4902554	104	C	12/26/2023	12:58	-133.765	47.546	0	170.20	0	6.0570	0	33.6690	0	26.496	0	168.709	0	-1e10	8	-1e10	8	-1E+10	1	-1E+10	1	-1E+10	1	-1E+10	1	-1E+10	1	-1E+10	1
4902554	104	C	12/26/2023	12:58	-133.765	47.546	0	171.10	0	6.0440	0	33.6720	0	26.500	0	169.601	0	-1e10	8	-1e10	8	-1E+10	1	-1E+10	1	-1E+10	1	-1E+10	1	-1E+10	1	-1E+10	1
4902554	104	C	12/26/2023	12:58	-133.765	47.546	0	172.00	0	6.0430	0	33.6750	0	26.502	0	170.493	0	-1e10	8	-1e10	8	-1E+10	1	-1E+10	1	-1E+10	1	-1E+10	1	-1E+10	1	-1E+10	1
4902554	104	C	12/26/2023	12:58	-133.765	47.546	0	172.80	0	6.0460	0	33.6770	0	26.503	0	171.285	0	-1e10	8	-1e10	8	-1E+10	1	-1E+10	1	-1E+10	1	-1E+10	1	-1E+10	1	-1E+10	1
4902554	104	C	12/26/2023	12:58	-133.765	47.546	0	173.90	0	6.0500	0	33.6820	0	26.507	0	172.375	0	-1e10	8	-1e10	8	-1E+10	1	-1E+10	1	-1E+10	1	-1E+10	1	-1E+10	1	-1E+10	1
4902554	104	C	12/26/2023	12:58	-133.765	47.546	0	175.00	0	6.0450	0	33.6910	0	26.515	0	173.465	0	-1e10	8	-1e10	8	-1E+10	1	-1E+10	1	-1E+10	1	-1E+10	1	-1E+10	1	-1E+10	1
4902554	104	C	12/26/2023	12:58	-133.765	47.546	0	175.80	0	6.0410	0	33.6930	0	26.517	0	174.258	0	-1e10	8	-1e10	8	-1E+10	1	-1E+10	1	-1E+10	1	-1E+10	1	-1E+10	1	-1E+10	1
4902554	104	C	12/26/2023	12:58	-133.765	47.546	0	176.90	0	6.0270	0	33.6960	0	26.521	0	175.348	0	-1e10	8	-1e10	8	-1E+10	1	-1E+10	1	-1E+10	1	-1E+10	1	-1E+10	1	-1E+10	1
4902554	104	C	12/26/2023	12:58	-133.765	47.546	0	178.10	0	6.0170	0	33.6990	0	26.525	0	176.537	0	-1e10	8	-1e10	8	-1E+10	1	-1E+10	1	-1E+10	1	-1E+10	1	-1E+10	1	-1E+10	1
4902554	104	C	12/26/2023	12:58	-133.765	47.546	0	178.90	0	5.9820	0	33.7030	0	26.532	0	177.329	0	-1e10	8	-1e10	8	-1E+10	1	-1E+10	1	-1E+10	1	-1E+10	1	-1E+10	1	-1E+10	1
4902554	104	C	12/26/2023	12:58	-133.765	47.546	0	179.70	0	5.9780	0	33.7060	0	26.535	0	178.122	0	-1e10	8	-1e10	8	-1E+10	1	-1E+10	1	-1E+10	1	-1E+10	1	-1E+10	1	-1E+10	1
4902554	104	C	12/26/2023	12:58	-133.765	47.546	0	180.90	0	5.9600	0	33.7120	0	26.542	0	179.311	0	-1e10	8	-1e10	8	-1E+10	1	-1E+10	1	-1E+10	1	-1E+10	1	-1E+10	1	-1E+10	1
4902554	104	C	12/26/2023	12:58	-133.765	47.546	0	182.20	0	5.9540	0	33.7140	0	26.544	0	180.599	0	-1e10	8	-1e10	8	-1E+10	1	-1E+10	1	-1E+10	1	-1E+10	1	-1E+10	1	-1E+10	1
4902554	104	C	12/26/2023	12:58	-133.765	47.546	0	183.10	0	5.9520	0	33.7130	0	26.544	0	181.491	0	-1e10	8	-1e10	8	-1E+10	1	-1E+10	1	-1E+10	1	-1E+10	1	-1E+10	1	-1E+10	1
4902554	104	C	12/26/2023	12:58	-133.765	47.546	0	183.90	0	5.9480	0	33.7150	0	26.546	0	182.283	0	-1e10	8	-1e10	8	-1E+10	1	-1E+10	1	-1E+10	1	-1E+10	1	-1E+10	1	-1E+10	1
4902554	104	C	12/26/2023	12:58	-133.765	47.546	0	184.80	0	5.9430	0	33.7160	0	26.547	0	183.175	0	-1e10	8	-1e10	8	-1E+10	1	-1E+10	1	-1E+10	1	-1E+10	1	-1E+10	1	-1E+10	1
4902554	104	C	12/26/2023	12:58	-133.765	47.546	0	185.60	0	5.9400	0	33.7160	0	26.548	0	183.968	0	-1e10	8	-1e10	8	-1E+10	1	-1E+10	1	-1E+10	1	-1E+10	1	-1E+10	1	-1E+10	1
4902554	104	C	12/26/2023	12:58	-133.765	47.546	0	186.90	0	5.9340	0	33.7180	0	26.550	0	185.255	0	-1e10	8	-1e10	8	-1E+10	1	-1E+10	1	-1E+10	1	-1E+10	1	-1E+10	1	-1E+10	1
4902554	104	C	12/26/2023	12:58	-133.765	47.546	0	188.10	0	5.9300	0	33.7190	0	26.551	0	186.444	0	-1e10	8	-1e10	8	-1E+10	1	-1E+10	1	-1E+10	1	-1E+10	1	-1E+10	1	-1E+10	1
4902554	104	C	12/26/2023	12:58	-133.765	47.546	0	189.00	0	5.9260	0	33.7190	0	26.552	0	187.336	0	-1e10	8	-1e10	8	-1E+10	1	-1E+10	1	-1E+10	1	-1E+10	1	-1E+10	1	-1E+10	1
4902554	104	C	12/26/2023	12:58	-133.765	47.546	0	189.80	0	5.9160	0	33.7230	0	26.556	0	188.129	0	-1e10	8	-1e10	8	-1E+10	1	-1E+10	1	-1E+10	1	-1E+10	1	-1E+10	1	-1E+10	1
4902554	104	C	12/26/2023	12:58	-133.765	47.546	0	190.70	0	5.9000	0	33.7240	0	26.559	0	189.020	0	-1e10	8	-1e10	8	-1E+10	1	-1E+10	1	-1E+10	1	-1E+10	1	-1E+10	1	-1E+10	1
4902554	104	C	12/26/2023	12:58	-133.765	47.546	0	191.60	0	5.8830	0	33.7280	0	26.564	0	189.912	0	-1e10	8	-1e10	8	-1E+10	1	-1E+10	1	-1E+10	1	-1E+10	1	-1E+10	1	-1E+10	1
4902554	104	C	12/26/2023	12:58	-133.765	47.546	0	192.90	0	5.8570	0	33.7310	0	26.570	0	191.200	0	-1e10	8	-1e10	8	-1E+10	1	-1E+10	1	-1E+10	1	-1E+10	1	-1E+10	1	-1E+10	1
4902554	104	C	12/26/2023	12:58	-133.765	47.546	0	194.30	0	5.8350	0	33.7350	0	26.576	0	192.587	0	-1e10	8	-1e10	8	-1E+10	1	-1E+10	1	-1E+10	1	-1E+10	1	-1E+10	1	-1E+10	1
4902554	104	C	12/26/2023	12:58	-133.765	47.546	0	195.20	0	5.8320	0	33.7340	0	26.575	0	193.479	0	-1e10	8	-1e10	8	-1E+10	1	-1E+10	1	-1E+10	1	-1E+10	1	-1E+10	1	-1E+10	1
4902554	104	C	12/26/2023	12:58	-133.765	47.546	0	196.10	0	5.8110	0	33.7380	0	26.581	0	194.370	0	-1e10	8	-1e10	8	-1E+10	1	-1E+10	1	-1E+10	1	-1E+10	1	-1E+10	1	-1E+10	1
4902554	104	C	12/26/2023	12:58	-133.765	47.546	0	197.00	0	5.7850	0	33.7420	0	26.587	0	195.262	0	-1e10	8	-1e10	8	-1E+10	1	-1E+10	1	-1E+10	1	-1E+10	1	-1E+10	1	-1E+10	1
4902554	104	C	12/26/2023	12:58	-133.765	47.546	0	197.90	0	5.7760	0	33.7420	0	26.588	0	196.153	0	-1e10	8	-1e10	8	-1E+10	1	-1E+10	1	-1E+10	1	-1E+10	1	-1E+10	1	-1E+10	1
4902554	104	C	12/26/2023	12:58	-133.765	47.546	0	198.80	0	5.7590	0	33.7450	0	26.593	0	197.045	0	-1e10	8	-1e10	8	-1E+10	1	-1E+10	1	-1E+10	1	-1E+10	1	-1E+10	1	-1E+10	1
4902554	104	C	12/26/2023	12:58	-133.765	47.546	0	199.80	0	5.7410	0	33.7460	0	26.596	0	198.036	0	-1e10	8	-1e10	8	-1E+10	1	-1E+10	1	-1E+10	1	-1E+10	1	-1E+10	1	-1E+10	1
4902554	104	C	12/26/2023	12:58	-133.765	47.546	0	200.70	0	5.7340	0	33.7460	0	26.597	0	198.927	0	-1e10	8	-1e10	8	-1E+10	1	-1E+10	1	-1E+10	1	-1E+10	1	-1E+10	1	-1E+10	1
4902554	104	C	12/26/2023	12:58	-133.765	47.546	0	201.60	0	5.7330	0	33.7470	0	26.598	0	199.819	0	-1e10	8	-1e10	8	-1E+10	1	-1E+10	1	-1E+10	1	-1E+10	1	-1E+10	1	-1E+10	1
4902554	104	C	12/26/2023	12:58	-133.765	47.546	0	202.90	0	5.7250	0	33.7490	0	26.600	0	201.107	0	-1e10	8	-1e10	8	-1E+10	1	-1E+10	1	-1E+10	1	-1E+10	1	-1E+10	1	-1E+10	1
4902554	104	C	12/26/2023	12:58	-133.765	47.546	0	204.40	0	5.7160	0	33.7500	0	26.602	0	202.593	0	-1e10	8	-1e10	8	-1E+10	1	-1E+10	1	-1E+10	1	-1E+10	1	-1E+10	1	-1E+10	1
4902554	104	C	12/26/2023	12:58	-133.765	47.546	0	205.30	0	5.7110	0	33.7510	0	26.604	0	203.485	0	-1e10	8	-1e10	8	-1E+10	1	-1E+10	1	-1E+10	1	-1E+10	1	-1E+10	1	-1E+10	1
4902554	104	C	12/26/2023	12:58	-133.765	47.546	0	206.20	0	5.7080	0	33.7520	0	26.605	0	204.376	0	-1e10	8	-1e10	8	-1E+10	1	-1E+10	1	-1E+10	1	-1E+10	1	-1E+10	1	-1E+10	1
4902554	104	C	12/26/2023	12:58	-133.765	47.546	0	207.10	0	5.7060	0	33.7540	0	26.607	0	205.268	0	-1e10	8	-1e10	8	-1E+10	1	-1E+10	1	-1E+10	1	-1E+10	1	-1E+10	1	-1E+10	1
4902554	104	C	12/26/2023	12:58	-133.765	47.546	0	208.10	0	5.6920	0	33.7580	0	26.611	0	206.258	0	-1e10	8	-1e10	8	-1E+10	1	-1E+10	1	-1E+10	1	-1E+10	1	-1E+10	1	-1E+10	1
4902554	104	C	12/26/2023	12:58	-133.765	47.546	0	209.00	0	5.6890	0	33.7580	0	26.612	0	207.150	0	-1e10	8	-1e10	8	-1E+10	1	-1E+10	1	-1E+10	1	-1E+10	1	-1E+10	1	-1E+10	1
4902554	104	C	12/26/2023	12:58	-133.765	47.546	0	209.90	0	5.6890	0	33.7580	0	26.612	0	208.042	0	-1e10	8	-1e10	8	-1E+10	1	-1E+10	1	-1E+10	1	-1E+10	1	-1E+10	1	-1E+10	1
4902554	104	C	12/26/2023	12:58	-133.765	47.546	0	210.80	0	5.6790	0	33.7590	0	26.614	0	208.933	0	-1e10	8	-1e10	8	-1E+10	1	-1E+10	1	-1E+10	1	-1E+10	1	-1E+10	1	-1E+10	1
4902554	104	C	12/26/2023	12:58	-133.765	47.546	0	211.80	0	5.6690	0	33.7610	0	26.617	0	209.924	0	-1e10	8	-1e10	8	-1E+10	1	-1E+10	1	-1E+10	1	-1E+10	1	-1E+10	1	-1E+10	1
4902554	104	C	12/26/2023	12:58	-133.765	47.546	0	212.70	0	5.6550	0	33.7610	0	26.618	0	210.815	0	-1e10	8	-1e10	8	-1E+10	1	-1E+10	1	-1E+10	1	-1E+10	1	-1E+10	1	-1E+10	1
4902554	104	C	12/26/2023	12:58	-133.765	47.546	0	213.60	0	5.6180	0	33.7670	0	26.628	0	211.707	0	-1e10	8	-1e10	8	-1E+10	1	-1E+10	1	-1E+10	1	-1E+10	1	-1E+10	1	-1E+10	1
4902554	104	C	12/26/2023	12:58	-133.765	47.546	0	214.60	0	5.6010	0	33.7610	0	26.625	0	212.698	0	-1e10	8	-1e10	8	-1E+10	1	-1E+10	1	-1E+10	1	-1E+10	1	-1E+10	1	-1E+10	1
4902554	104	C	12/26/2023	12:58	-133.765	47.546	0	215.90	0	5.5960	0	33.7600	0	26.625	0	213.985	0	-1e10	8	-1e10	8	-1E+10	1	-1E+10	1	-1E+10	1	-1E+10	1	-1E+10	1	-1E+10	1
4902554	104	C	12/26/2023	12:58	-133.765	47.546	0	217.30	0	5.5680	0	33.7590	0	26.627	0	215.372	0	-1e10	8	-1e10	8	-1E+10	1	-1E+10	1	-1E+10	1	-1E+10	1	-1E+10	1	-1E+10	1
4902554	104	C	12/26/2023	12:58	-133.765	47.546	0	218.20	0	5.5610	0	33.7600	0	26.629	0	216.264	0	-1e10	8	-1e10	8	-1E+10	1	-1E+10	1	-1E+10	1	-1E+10	1	-1E+10	1	-1E+10	1
4902554	104	C	12/26/2023	12:58	-133.765	47.546	0	219.20	0	5.5580	0	33.7600	0	26.629	0	217.254	0	-1e10	8	-1e10	8	-1E+10	1	-1E+10	1	-1E+10	1	-1E+10	1	-1E+10	1	-1E+10	1
4902554	104	C	12/26/2023	12:58	-133.765	47.546	0	220.00	0	5.5570	0	33.7610	0	26.630	0	218.047	0	-1e10	8	-1e10	8	-1E+10	1	-1E+10	1	-1E+10	1	-1E+10	1	-1E+10	1	-1E+10	1
4902554	104	C	12/26/2023	12:58	-133.765	47.546	0	220.90	0	5.5580	0	33.7620	0	26.631	0	218.938	0	-1e10	8	-1e10	8	-1E+10	1	-1E+10	1	-1E+10	1	-1E+10	1	-1E+10	1	-1E+10	1
4902554	104	C	12/26/2023	12:58	-133.765	47.546	0	221.80	0	5.5560	0	33.7630	0	26.632	0	219.830	0	-1e10	8	-1e10	8	-1E+10	1	-1E+10	1	-1E+10	1	-1E+10	1	-1E+10	1	-1E+10	1
4902554	104	C	12/26/2023	12:58	-133.765	47.546	0	222.70	0	5.5330	0	33.7610	0	26.633	0	220.721	0	-1e10	8	-1e10	8	-1E+10	1	-1E+10	1	-1E+10	1	-1E+10	1	-1E+10	1	-1E+10	1
4902554	104	C	12/26/2023	12:58	-133.765	47.546	0	223.60	0	5.5170	0	33.7620	0	26.636	0	221.613	0	-1e10	8	-1e10	8	-1E+10	1	-1E+10	1	-1E+10	1	-1E+10	1	-1E+10	1	-1E+10	1
4902554	104	C	12/26/2023	12:58	-133.765	47.546	0	224.90	0	5.5090	0	33.7620	0	26.637	0	222.901	0	-1e10	8	-1e10	8	-1E+10	1	-1E+10	1	-1E+10	1	-1E+10	1	-1E+10	1	-1E+10	1
4902554	104	C	12/26/2023	12:58	-133.765	47.546	0	226.30	0	5.5000	0	33.7630	0	26.639	0	224.287	0	-1e10	8	-1e10	8	-1E+10	1	-1E+10	1	-1E+10	1	-1E+10	1	-1E+10	1	-1E+10	1
4902554	104	C	12/26/2023	12:58	-133.765	47.546	0	227.20	0	5.4880	0	33.7670	0	26.643	0	225.179	0	-1e10	8	-1e10	8	-1E+10	1	-1E+10	1	-1E+10	1	-1E+10	1	-1E+10	1	-1E+10	1
4902554	104	C	12/26/2023	12:58	-133.765	47.546	0	228.10	0	5.4840	0	33.7670	0	26.644	0	226.070	0	-1e10	8	-1e10	8	-1E+10	1	-1E+10	1	-1E+10	1	-1E+10	1	-1E+10	1	-1E+10	1
4902554	104	C	12/26/2023	12:58	-133.765	47.546	0	229.00	0	5.4810	0	33.7670	0	26.644	0	226.962	0	-1e10	8	-1e10	8	-1E+10	1	-1E+10	1	-1E+10	1	-1E+10	1	-1E+10	1	-1E+10	1
4902554	104	C	12/26/2023	12:58	-133.765	47.546	0	229.90	0	5.4850	0	33.7700	0	26.646	0	227.853	0	-1e10	8	-1e10	8	-1E+10	1	-1E+10	1	-1E+10	1	-1E+10	1	-1E+10	1	-1E+10	1
4902554	104	C	12/26/2023	12:58	-133.765	47.546	0	230.80	0	5.4750	0	33.7710	0	26.648	0	228.745	0	-1e10	8	-1e10	8	-1E+10	1	-1E+10	1	-1E+10	1	-1E+10	1	-1E+10	1	-1E+10	1
4902554	104	C	12/26/2023	12:58	-133.765	47.546	0	231.70	0	5.4660	0	33.7710	0	26.649	0	229.636	0	-1e10	8	-1e10	8	-1E+10	1	-1E+10	1	-1E+10	1	-1E+10	1	-1E+10	1	-1E+10	1
4902554	104	C	12/26/2023	12:58	-133.765	47.546	0	232.70	0	5.4630	0	33.7700	0	26.649	0	230.627	0	-1e10	8	-1e10	8	-1E+10	1	-1E+10	1	-1E+10	1	-1E+10	1	-1E+10	1	-1E+10	1
4902554	104	C	12/26/2023	12:58	-133.765	47.546	0	233.60	0	5.4540	0	33.7700	0	26.650	0	231.518	0	-1e10	8	-1e10	8	-1E+10	1	-1E+10	1	-1E+10	1	-1E+10	1	-1E+10	1	-1E+10	1
4902554	104	C	12/26/2023	12:58	-133.765	47.546	0	234.90	0	5.4300	0	33.7720	0	26.654	0	232.806	0	-1e10	8	-1e10	8	-1E+10	1	-1E+10	1	-1E+10	1	-1E+10	1	-1E+10	1	-1E+10	1
4902554	104	C	12/26/2023	12:58	-133.765	47.546	0	236.30	0	5.4350	0	33.7730	0	26.654	0	234.193	0	-1e10	8	-1e10	8	-1E+10	1	-1E+10	1	-1E+10	1	-1E+10	1	-1E+10	1	-1E+10	1
4902554	104	C	12/26/2023	12:58	-133.765	47.546	0	237.20	0	5.4160	0	33.7790	0	26.661	0	235.084	0	-1e10	8	-1e10	8	-1E+10	1	-1E+10	1	-1E+10	1	-1E+10	1	-1E+10	1	-1E+10	1
4902554	104	C	12/26/2023	12:58	-133.765	47.546	0	238.10	0	5.3820	0	33.7730	0	26.661	0	235.976	0	-1e10	8	-1e10	8	-1E+10	1	-1E+10	1	-1E+10	1	-1E+10	1	-1E+10	1	-1E+10	1
4902554	104	C	12/26/2023	12:58	-133.765	47.546	0	239.00	0	5.3650	0	33.7730	0	26.663	0	236.867	0	-1e10	8	-1e10	8	-1E+10	1	-1E+10	1	-1E+10	1	-1E+10	1	-1E+10	1	-1E+10	1
4902554	104	C	12/26/2023	12:58	-133.765	47.546	0	240.00	0	5.3700	0	33.7750	0	26.664	0	237.858	0	-1e10	8	-1e10	8	-1E+10	1	-1E+10	1	-1E+10	1	-1E+10	1	-1E+10	1	-1E+10	1
4902554	104	C	12/26/2023	12:58	-133.765	47.546	0	240.90	0	5.3810	0	33.7790	0	26.666	0	238.749	0	-1e10	8	-1e10	8	-1E+10	1	-1E+10	1	-1E+10	1	-1E+10	1	-1E+10	1	-1E+10	1
4902554	104	C	12/26/2023	12:58	-133.765	47.546	0	241.80	0	5.3760	0	33.7800	0	26.667	0	239.641	0	-1e10	8	-1e10	8	-1E+10	1	-1E+10	1	-1E+10	1	-1E+10	1	-1E+10	1	-1E+10	1
4902554	104	C	12/26/2023	12:58	-133.765	47.546	0	242.70	0	5.3760	0	33.7800	0	26.667	0	240.532	0	-1e10	8	-1e10	8	-1E+10	1	-1E+10	1	-1E+10	1	-1E+10	1	-1E+10	1	-1E+10	1
4902554	104	C	12/26/2023	12:58	-133.765	47.546	0	243.70	0	5.3500	0	33.7790	0	26.669	0	241.523	0	-1e10	8	-1e10	8	-1E+10	1	-1E+10	1	-1E+10	1	-1E+10	1	-1E+10	1	-1E+10	1
4902554	104	C	12/26/2023	12:58	-133.765	47.546	0	244.60	0	5.3370	0	33.7790	0	26.671	0	242.414	0	-1e10	8	-1e10	8	-1E+10	1	-1E+10	1	-1E+10	1	-1E+10	1	-1E+10	1	-1E+10	1
4902554	104	C	12/26/2023	12:58	-133.765	47.546	0	245.60	0	5.3190	0	33.7790	0	26.673	0	243.404	0	-1e10	8	-1e10	8	-1E+10	1	-1E+10	1	-1E+10	1	-1E+10	1	-1E+10	1	-1E+10	1
4902554	104	C	12/26/2023	12:58	-133.765	47.546	0	246.90	0	5.3140	0	33.7810	0	26.675	0	244.692	0	-1e10	8	-1e10	8	-1E+10	1	-1E+10	1	-1E+10	1	-1E+10	1	-1E+10	1	-1E+10	1
4902554	104	C	12/26/2023	12:58	-133.765	47.546	0	248.40	0	5.3140	0	33.7810	0	26.675	0	246.178	0	-1e10	8	-1e10	8	-1E+10	1	-1E+10	1	-1E+10	1	-1E+10	1	-1E+10	1	-1E+10	1
4902554	104	C	12/26/2023	12:58	-133.765	47.546	0	249.30	0	5.3100	0	33.7860	0	26.679	0	247.069	0	-1e10	8	-1e10	8	-1E+10	1	-1E+10	1	-1E+10	1	-1E+10	1	-1E+10	1	-1E+10	1
4902554	104	C	12/26/2023	12:58	-133.765	47.546	0	250.30	0	5.3000	0	33.7850	0	26.680	0	248.060	0	-1e10	8	-1e10	8	-1E+10	1	-1E+10	1	-1E+10	1	-1E+10	1	-1E+10	1	-1E+10	1
4902554	104	C	12/26/2023	12:58	-133.765	47.546	0	251.20	0	5.2950	0	33.7850	0	26.680	0	248.951	0	-1e10	8	-1e10	8	-1E+10	1	-1E+10	1	-1E+10	1	-1E+10	1	-1E+10	1	-1E+10	1
4902554	104	C	12/26/2023	12:58	-133.765	47.546	0	252.20	0	5.2930	0	33.7860	0	26.681	0	249.941	0	-1e10	8	-1e10	8	-1E+10	1	-1E+10	1	-1E+10	1	-1E+10	1	-1E+10	1	-1E+10	1
4902554	104	C	12/26/2023	12:58	-133.765	47.546	0	253.20	0	5.2940	0	33.7870	0	26.682	0	250.932	0	-1e10	8	-1e10	8	-1E+10	1	-1E+10	1	-1E+10	1	-1E+10	1	-1E+10	1	-1E+10	1
4902554	104	C	12/26/2023	12:58	-133.765	47.546	0	254.10	0	5.2970	0	33.7880	0	26.683	0	251.823	0	-1e10	8	-1e10	8	-1E+10	1	-1E+10	1	-1E+10	1	-1E+10	1	-1E+10	1	-1E+10	1
4902554	104	C	12/26/2023	12:58	-133.765	47.546	0	255.10	0	5.2640	0	33.7950	0	26.692	0	252.814	0	-1e10	8	-1e10	8	-1E+10	1	-1E+10	1	-1E+10	1	-1E+10	1	-1E+10	1	-1E+10	1
4902554	104	C	12/26/2023	12:58	-133.765	47.546	0	256.10	0	5.2380	0	33.7930	0	26.693	0	253.804	0	-1e10	8	-1e10	8	-1E+10	1	-1E+10	1	-1E+10	1	-1E+10	1	-1E+10	1	-1E+10	1
4902554	104	C	12/26/2023	12:58	-133.765	47.546	0	257.10	0	5.2220	0	33.7930	0	26.695	0	254.795	0	-1e10	8	-1e10	8	-1E+10	1	-1E+10	1	-1E+10	1	-1E+10	1	-1E+10	1	-1E+10	1
4902554	104	C	12/26/2023	12:58	-133.765	47.546	0	258.10	0	5.2110	0	33.7930	0	26.697	0	255.785	0	-1e10	8	-1e10	8	-1E+10	1	-1E+10	1	-1E+10	1	-1E+10	1	-1E+10	1	-1E+10	1
4902554	104	C	12/26/2023	12:58	-133.765	47.546	0	259.10	0	5.1950	0	33.7930	0	26.698	0	256.775	0	-1e10	8	-1e10	8	-1E+10	1	-1E+10	1	-1E+10	1	-1E+10	1	-1E+10	1	-1E+10	1
4902554	104	C	12/26/2023	12:58	-133.765	47.546	0	260.10	0	5.1900	0	33.7920	0	26.698	0	257.766	0	-1e10	8	-1e10	8	-1E+10	1	-1E+10	1	-1E+10	1	-1E+10	1	-1E+10	1	-1E+10	1
4902554	104	C	12/26/2023	12:58	-133.765	47.546	0	261.10	0	5.1920	0	33.7940	0	26.700	0	258.756	0	-1e10	8	-1e10	8	-1E+10	1	-1E+10	1	-1E+10	1	-1E+10	1	-1E+10	1	-1E+10	1
4902554	104	C	12/26/2023	12:58	-133.765	47.546	0	262.10	0	5.1730	0	33.7960	0	26.703	0	259.747	0	-1e10	8	-1e10	8	-1E+10	1	-1E+10	1	-1E+10	1	-1E+10	1	-1E+10	1	-1E+10	1
4902554	104	C	12/26/2023	12:58	-133.765	47.546	0	263.10	0	5.1530	0	33.7960	0	26.706	0	260.737	0	-1e10	8	-1e10	8	-1E+10	1	-1E+10	1	-1E+10	1	-1E+10	1	-1E+10	1	-1E+10	1
4902554	104	C	12/26/2023	12:58	-133.765	47.546	0	264.20	0	5.1440	0	33.7950	0	26.706	0	261.826	0	-1e10	8	-1e10	8	-1E+10	1	-1E+10	1	-1E+10	1	-1E+10	1	-1E+10	1	-1E+10	1
4902554	104	C	12/26/2023	12:58	-133.765	47.546	0	265.20	0	5.1220	0	33.7970	0	26.710	0	262.817	0	-1e10	8	-1e10	8	-1E+10	1	-1E+10	1	-1E+10	1	-1E+10	1	-1E+10	1	-1E+10	1
4902554	104	C	12/26/2023	12:58	-133.765	47.546	0	266.20	0	5.1010	0	33.8010	0	26.716	0	263.807	0	-1e10	8	-1e10	8	-1E+10	1	-1E+10	1	-1E+10	1	-1E+10	1	-1E+10	1	-1E+10	1
4902554	104	C	12/26/2023	12:58	-133.765	47.546	0	267.20	0	5.0970	0	33.7970	0	26.713	0	264.798	0	-1e10	8	-1e10	8	-1E+10	1	-1E+10	1	-1E+10	1	-1E+10	1	-1E+10	1	-1E+10	1
4902554	104	C	12/26/2023	12:58	-133.765	47.546	0	268.20	0	5.0800	0	33.7980	0	26.716	0	265.788	0	-1e10	8	-1e10	8	-1E+10	1	-1E+10	1	-1E+10	1	-1E+10	1	-1E+10	1	-1E+10	1
4902554	104	C	12/26/2023	12:58	-133.765	47.546	0	269.20	0	5.0720	0	33.7990	0	26.717	0	266.778	0	-1e10	8	-1e10	8	-1E+10	1	-1E+10	1	-1E+10	1	-1E+10	1	-1E+10	1	-1E+10	1
4902554	104	C	12/26/2023	12:58	-133.765	47.546	0	270.20	0	5.0640	0	33.7990	0	26.718	0	267.769	0	-1e10	8	-1e10	8	-1E+10	1	-1E+10	1	-1E+10	1	-1E+10	1	-1E+10	1	-1E+10	1
4902554	104	C	12/26/2023	12:58	-133.765	47.546	0	271.20	0	5.0590	0	33.8000	0	26.720	0	268.759	0	-1e10	8	-1e10	8	-1E+10	1	-1E+10	1	-1E+10	1	-1E+10	1	-1E+10	1	-1E+10	1
4902554	104	C	12/26/2023	12:58	-133.765	47.546	0	272.20	0	5.0430	0	33.8000	0	26.722	0	269.749	0	-1e10	8	-1e10	8	-1E+10	1	-1E+10	1	-1E+10	1	-1E+10	1	-1E+10	1	-1E+10	1
4902554	104	C	12/26/2023	12:58	-133.765	47.546	0	273.20	0	5.0290	0	33.8010	0	26.724	0	270.740	0	-1e10	8	-1e10	8	-1E+10	1	-1E+10	1	-1E+10	1	-1E+10	1	-1E+10	1	-1E+10	1
4902554	104	C	12/26/2023	12:58	-133.765	47.546	0	274.20	0	5.0190	0	33.8010	0	26.725	0	271.730	0	-1e10	8	-1e10	8	-1E+10	1	-1E+10	1	-1E+10	1	-1E+10	1	-1E+10	1	-1E+10	1
4902554	104	C	12/26/2023	12:58	-133.765	47.546	0	275.20	0	5.0140	0	33.8010	0	26.726	0	272.720	0	-1e10	8	-1e10	8	-1E+10	1	-1E+10	1	-1E+10	1	-1E+10	1	-1E+10	1	-1E+10	1
4902554	104	C	12/26/2023	12:58	-133.765	47.546	0	276.20	0	5.0080	0	33.8020	0	26.727	0	273.711	0	-1e10	8	-1e10	8	-1E+10	1	-1E+10	1	-1E+10	1	-1E+10	1	-1E+10	1	-1E+10	1
4902554	104	C	12/26/2023	12:58	-133.765	47.546	0	277.20	0	4.9930	0	33.8030	0	26.730	0	274.701	0	-1e10	8	-1e10	8	-1E+10	1	-1E+10	1	-1E+10	1	-1E+10	1	-1E+10	1	-1E+10	1
4902554	104	C	12/26/2023	12:58	-133.765	47.546	0	278.20	0	4.9860	0	33.8040	0	26.731	0	275.691	0	-1e10	8	-1e10	8	-1E+10	1	-1E+10	1	-1E+10	1	-1E+10	1	-1E+10	1	-1E+10	1
4902554	104	C	12/26/2023	12:58	-133.765	47.546	0	279.20	0	4.9820	0	33.8040	0	26.732	0	276.682	0	-1e10	8	-1e10	8	-1E+10	1	-1E+10	1	-1E+10	1	-1E+10	1	-1E+10	1	-1E+10	1
4902554	104	C	12/26/2023	12:58	-133.765	47.546	0	280.20	0	4.9780	0	33.8040	0	26.732	0	277.672	0	-1e10	8	-1e10	8	-1E+10	1	-1E+10	1	-1E+10	1	-1E+10	1	-1E+10	1	-1E+10	1
4902554	104	C	12/26/2023	12:58	-133.765	47.546	0	281.20	0	4.9720	0	33.8050	0	26.734	0	278.662	0	-1e10	8	-1e10	8	-1E+10	1	-1E+10	1	-1E+10	1	-1E+10	1	-1E+10	1	-1E+10	1
4902554	104	C	12/26/2023	12:58	-133.765	47.546	0	282.20	0	4.9660	0	33.8050	0	26.734	0	279.653	0	-1e10	8	-1e10	8	-1E+10	1	-1E+10	1	-1E+10	1	-1E+10	1	-1E+10	1	-1E+10	1
4902554	104	C	12/26/2023	12:58	-133.765	47.546	0	283.20	0	4.9600	0	33.8060	0	26.736	0	280.643	0	-1e10	8	-1e10	8	-1E+10	1	-1E+10	1	-1E+10	1	-1E+10	1	-1E+10	1	-1E+10	1
4902554	104	C	12/26/2023	12:58	-133.765	47.546	0	284.20	0	4.9440	0	33.8090	0	26.740	0	281.633	0	-1e10	8	-1e10	8	-1E+10	1	-1E+10	1	-1E+10	1	-1E+10	1	-1E+10	1	-1E+10	1
4902554	104	C	12/26/2023	12:58	-133.765	47.546	0	285.20	0	4.9400	0	33.8080	0	26.740	0	282.623	0	-1e10	8	-1e10	8	-1E+10	1	-1E+10	1	-1E+10	1	-1E+10	1	-1E+10	1	-1E+10	1
4902554	104	C	12/26/2023	12:58	-133.765	47.546	0	286.20	0	4.9360	0	33.8080	0	26.740	0	283.614	0	-1e10	8	-1e10	8	-1E+10	1	-1E+10	1	-1E+10	1	-1E+10	1	-1E+10	1	-1E+10	1
4902554	104	C	12/26/2023	12:58	-133.765	47.546	0	287.20	0	4.9180	0	33.8100	0	26.744	0	284.604	0	-1e10	8	-1e10	8	-1E+10	1	-1E+10	1	-1E+10	1	-1E+10	1	-1E+10	1	-1E+10	1
4902554	104	C	12/26/2023	12:58	-133.765	47.546	0	288.20	0	4.9130	0	33.8110	0	26.745	0	285.594	0	-1e10	8	-1e10	8	-1E+10	1	-1E+10	1	-1E+10	1	-1E+10	1	-1E+10	1	-1E+10	1
4902554	104	C	12/26/2023	12:58	-133.765	47.546	0	289.20	0	4.9050	0	33.8120	0	26.747	0	286.585	0	-1e10	8	-1e10	8	-1E+10	1	-1E+10	1	-1E+10	1	-1E+10	1	-1E+10	1	-1E+10	1
4902554	104	C	12/26/2023	12:58	-133.765	47.546	0	290.20	0	4.9010	0	33.8120	0	26.747	0	287.575	0	-1e10	8	-1e10	8	-1E+10	1	-1E+10	1	-1E+10	1	-1E+10	1	-1E+10	1	-1E+10	1
4902554	104	C	12/26/2023	12:58	-133.765	47.546	0	291.20	0	4.8940	0	33.8130	0	26.749	0	288.565	0	-1e10	8	-1e10	8	-1E+10	1	-1E+10	1	-1E+10	1	-1E+10	1	-1E+10	1	-1E+10	1
4902554	104	C	12/26/2023	12:58	-133.765	47.546	0	292.20	0	4.8890	0	33.8140	0	26.750	0	289.555	0	-1e10	8	-1e10	8	-1E+10	1	-1E+10	1	-1E+10	1	-1E+10	1	-1E+10	1	-1E+10	1
4902554	104	C	12/26/2023	12:58	-133.765	47.546	0	293.20	0	4.8810	0	33.8160	0	26.753	0	290.546	0	-1e10	8	-1e10	8	-1E+10	1	-1E+10	1	-1E+10	1	-1E+10	1	-1E+10	1	-1E+10	1
4902554	104	C	12/26/2023	12:58	-133.765	47.546	0	294.20	0	4.8740	0	33.8160	0	26.753	0	291.536	0	-1e10	8	-1e10	8	-1E+10	1	-1E+10	1	-1E+10	1	-1E+10	1	-1E+10	1	-1E+10	1
4902554	104	C	12/26/2023	12:58	-133.765	47.546	0	295.20	0	4.8680	0	33.8170	0	26.755	0	292.526	0	-1e10	8	-1e10	8	-1E+10	1	-1E+10	1	-1E+10	1	-1E+10	1	-1E+10	1	-1E+10	1
4902554	104	C	12/26/2023	12:58	-133.765	47.546	0	296.20	0	4.8670	0	33.8200	0	26.757	0	293.516	0	-1e10	8	-1e10	8	-1E+10	1	-1E+10	1	-1E+10	1	-1E+10	1	-1E+10	1	-1E+10	1
4902554	104	C	12/26/2023	12:58	-133.765	47.546	0	297.20	0	4.8720	0	33.8240	0	26.760	0	294.507	0	-1e10	8	-1e10	8	-1E+10	1	-1E+10	1	-1E+10	1	-1E+10	1	-1E+10	1	-1E+10	1
4902554	104	C	12/26/2023	12:58	-133.765	47.546	0	298.20	0	4.8830	0	33.8250	0	26.760	0	295.497	0	-1e10	8	-1e10	8	-1E+10	1	-1E+10	1	-1E+10	1	-1E+10	1	-1E+10	1	-1E+10	1
4902554	104	C	12/26/2023	12:58	-133.765	47.546	0	299.20	0	4.8850	0	33.8270	0	26.761	0	296.487	0	-1e10	8	-1e10	8	-1E+10	1	-1E+10	1	-1E+10	1	-1E+10	1	-1E+10	1	-1E+10	1
4902554	104	C	12/26/2023	12:58	-133.765	47.546	0	300.20	0	4.8770	0	33.8290	0	26.763	0	297.477	0	-1e10	8	-1e10	8	-1E+10	1	-1E+10	1	-1E+10	1	-1E+10	1	-1E+10	1	-1E+10	1
4902554	104	C	12/26/2023	12:58	-133.765	47.546	0	301.10	0	4.8740	0	33.8300	0	26.765	0	298.368	0	-1e10	8	-1e10	8	-1E+10	1	-1E+10	1	-1E+10	1	-1E+10	1	-1E+10	1	-1E+10	1
4902554	104	C	12/26/2023	12:58	-133.765	47.546	0	302.10	0	4.8710	0	33.8310	0	26.766	0	299.359	0	-1e10	8	-1e10	8	-1E+10	1	-1E+10	1	-1E+10	1	-1E+10	1	-1E+10	1	-1E+10	1
4902554	104	C	12/26/2023	12:58	-133.765	47.546	0	303.10	0	4.8570	0	33.8350	0	26.770	0	300.349	0	-1e10	8	-1e10	8	-1E+10	1	-1E+10	1	-1E+10	1	-1E+10	1	-1E+10	1	-1E+10	1
4902554	104	C	12/26/2023	12:58	-133.765	47.546	0	304.10	0	4.8470	0	33.8360	0	26.772	0	301.339	0	-1e10	8	-1e10	8	-1E+10	1	-1E+10	1	-1E+10	1	-1E+10	1	-1E+10	1	-1E+10	1
4902554	104	C	12/26/2023	12:58	-133.765	47.546	0	305.00	0	4.8710	0	33.8390	0	26.772	0	302.230	0	-1e10	8	-1e10	8	-1E+10	1	-1E+10	1	-1E+10	1	-1E+10	1	-1E+10	1	-1E+10	1
4902554	104	C	12/26/2023	12:58	-133.765	47.546	0	306.00	0	4.8720	0	33.8390	0	26.772	0	303.220	0	-1e10	8	-1e10	8	-1E+10	1	-1E+10	1	-1E+10	1	-1E+10	1	-1E+10	1	-1E+10	1
4902554	104	C	12/26/2023	12:58	-133.765	47.546	0	307.00	0	4.8400	0	33.8390	0	26.776	0	304.210	0	-1e10	8	-1e10	8	-1E+10	1	-1E+10	1	-1E+10	1	-1E+10	1	-1E+10	1	-1E+10	1
4902554	104	C	12/26/2023	12:58	-133.765	47.546	0	308.00	0	4.8270	0	33.8440	0	26.781	0	305.201	0	-1e10	8	-1e10	8	-1E+10	1	-1E+10	1	-1E+10	1	-1E+10	1	-1E+10	1	-1E+10	1
4902554	104	C	12/26/2023	12:58	-133.765	47.546	0	309.00	0	4.8170	0	33.8460	0	26.784	0	306.191	0	-1e10	8	-1e10	8	-1E+10	1	-1E+10	1	-1E+10	1	-1E+10	1	-1E+10	1	-1E+10	1
4902554	104	C	12/26/2023	12:58	-133.765	47.546	0	310.00	0	4.8040	0	33.8490	0	26.788	0	307.181	0	-1e10	8	-1e10	8	-1E+10	1	-1E+10	1	-1E+10	1	-1E+10	1	-1E+10	1	-1E+10	1
4902554	104	C	12/26/2023	12:58	-133.765	47.546	0	311.00	0	4.8070	0	33.8510	0	26.789	0	308.171	0	-1e10	8	-1e10	8	-1E+10	1	-1E+10	1	-1E+10	1	-1E+10	1	-1E+10	1	-1E+10	1
4902554	104	C	12/26/2023	12:58	-133.765	47.546	0	311.90	0	4.8060	0	33.8510	0	26.789	0	309.062	0	-1e10	8	-1e10	8	-1E+10	1	-1E+10	1	-1E+10	1	-1E+10	1	-1E+10	1	-1E+10	1
4902554	104	C	12/26/2023	12:58	-133.765	47.546	0	312.90	0	4.8040	0	33.8510	0	26.789	0	310.052	0	-1e10	8	-1e10	8	-1E+10	1	-1E+10	1	-1E+10	1	-1E+10	1	-1E+10	1	-1E+10	1
4902554	104	C	12/26/2023	12:58	-133.765	47.546	0	313.90	0	4.7990	0	33.8510	0	26.790	0	311.043	0	-1e10	8	-1e10	8	-1E+10	1	-1E+10	1	-1E+10	1	-1E+10	1	-1E+10	1	-1E+10	1
4902554	104	C	12/26/2023	12:58	-133.765	47.546	0	314.80	0	4.7930	0	33.8510	0	26.790	0	311.934	0	-1e10	8	-1e10	8	-1E+10	1	-1E+10	1	-1E+10	1	-1E+10	1	-1E+10	1	-1E+10	1
4902554	104	C	12/26/2023	12:58	-133.765	47.546	0	315.80	0	4.7910	0	33.8510	0	26.791	0	312.924	0	-1e10	8	-1e10	8	-1E+10	1	-1E+10	1	-1E+10	1	-1E+10	1	-1E+10	1	-1E+10	1
4902554	104	C	12/26/2023	12:58	-133.765	47.546	0	316.80	0	4.7750	0	33.8520	0	26.793	0	313.914	0	-1e10	8	-1e10	8	-1E+10	1	-1E+10	1	-1E+10	1	-1E+10	1	-1E+10	1	-1E+10	1
4902554	104	C	12/26/2023	12:58	-133.765	47.546	0	317.80	0	4.7740	0	33.8550	0	26.796	0	314.904	0	-1e10	8	-1e10	8	-1E+10	1	-1E+10	1	-1E+10	1	-1E+10	1	-1E+10	1	-1E+10	1
4902554	104	C	12/26/2023	12:58	-133.765	47.546	0	318.80	0	4.7750	0	33.8560	0	26.796	0	315.894	0	-1e10	8	-1e10	8	-1E+10	1	-1E+10	1	-1E+10	1	-1E+10	1	-1E+10	1	-1E+10	1
4902554	104	C	12/26/2023	12:58	-133.765	47.546	0	319.80	0	4.7740	0	33.8560	0	26.797	0	316.884	0	-1e10	8	-1e10	8	-1E+10	1	-1E+10	1	-1E+10	1	-1E+10	1	-1E+10	1	-1E+10	1
4902554	104	C	12/26/2023	12:58	-133.765	47.546	0	320.80	0	4.7660	0	33.8560	0	26.797	0	317.875	0	-1e10	8	-1e10	8	-1E+10	1	-1E+10	1	-1E+10	1	-1E+10	1	-1E+10	1	-1E+10	1
4902554	104	C	12/26/2023	12:58	-133.765	47.546	0	321.80	0	4.7630	0	33.8560	0	26.798	0	318.865	0	-1e10	8	-1e10	8	-1E+10	1	-1E+10	1	-1E+10	1	-1E+10	1	-1E+10	1	-1E+10	1
4902554	104	C	12/26/2023	12:58	-133.765	47.546	0	322.80	0	4.7640	0	33.8570	0	26.798	0	319.855	0	-1e10	8	-1e10	8	-1E+10	1	-1E+10	1	-1E+10	1	-1E+10	1	-1E+10	1	-1E+10	1
4902554	104	C	12/26/2023	12:58	-133.765	47.546	0	323.70	0	4.7610	0	33.8590	0	26.800	0	320.746	0	-1e10	8	-1e10	8	-1E+10	1	-1E+10	1	-1E+10	1	-1E+10	1	-1E+10	1	-1E+10	1
4902554	104	C	12/26/2023	12:58	-133.765	47.546	0	324.70	0	4.7610	0	33.8600	0	26.801	0	321.736	0	-1e10	8	-1e10	8	-1E+10	1	-1E+10	1	-1E+10	1	-1E+10	1	-1E+10	1	-1E+10	1
4902554	104	C	12/26/2023	12:58	-133.765	47.546	0	325.70	0	4.7600	0	33.8600	0	26.801	0	322.726	0	-1e10	8	-1e10	8	-1E+10	1	-1E+10	1	-1E+10	1	-1E+10	1	-1E+10	1	-1E+10	1
4902554	104	C	12/26/2023	12:58	-133.765	47.546	0	326.70	0	4.7510	0	33.8630	0	26.805	0	323.716	0	-1e10	8	-1e10	8	-1E+10	1	-1E+10	1	-1E+10	1	-1E+10	1	-1E+10	1	-1E+10	1
4902554	104	C	12/26/2023	12:58	-133.765	47.546	0	327.70	0	4.7480	0	33.8630	0	26.805	0	324.706	0	-1e10	8	-1e10	8	-1E+10	1	-1E+10	1	-1E+10	1	-1E+10	1	-1E+10	1	-1E+10	1
4902554	104	C	12/26/2023	12:58	-133.765	47.546	0	328.70	0	4.7410	0	33.8640	0	26.807	0	325.696	0	-1e10	8	-1e10	8	-1E+10	1	-1E+10	1	-1E+10	1	-1E+10	1	-1E+10	1	-1E+10	1
4902554	104	C	12/26/2023	12:58	-133.765	47.546	0	329.70	0	4.7330	0	33.8650	0	26.808	0	326.686	0	-1e10	8	-1e10	8	-1E+10	1	-1E+10	1	-1E+10	1	-1E+10	1	-1E+10	1	-1E+10	1
4902554	104	C	12/26/2023	12:58	-133.765	47.546	0	330.70	0	4.7250	0	33.8660	0	26.810	0	327.676	0	-1e10	8	-1e10	8	-1E+10	1	-1E+10	1	-1E+10	1	-1E+10	1	-1E+10	1	-1E+10	1
4902554	104	C	12/26/2023	12:58	-133.765	47.546	0	331.70	0	4.7070	0	33.8690	0	26.814	0	328.666	0	-1e10	8	-1e10	8	-1E+10	1	-1E+10	1	-1E+10	1	-1E+10	1	-1E+10	1	-1E+10	1
4902554	104	C	12/26/2023	12:58	-133.765	47.546	0	332.70	0	4.7050	0	33.8690	0	26.815	0	329.657	0	-1e10	8	-1e10	8	-1E+10	1	-1E+10	1	-1E+10	1	-1E+10	1	-1E+10	1	-1E+10	1
4902554	104	C	12/26/2023	12:58	-133.765	47.546	0	333.70	0	4.6960	0	33.8690	0	26.816	0	330.647	0	-1e10	8	-1e10	8	-1E+10	1	-1E+10	1	-1E+10	1	-1E+10	1	-1E+10	1	-1E+10	1
4902554	104	C	12/26/2023	12:58	-133.765	47.546	0	334.60	0	4.6920	0	33.8690	0	26.816	0	331.538	0	-1e10	8	-1e10	8	-1E+10	1	-1E+10	1	-1E+10	1	-1E+10	1	-1E+10	1	-1E+10	1
4902554	104	C	12/26/2023	12:58	-133.765	47.546	0	335.70	0	4.6810	0	33.8690	0	26.817	0	332.627	0	-1e10	8	-1e10	8	-1E+10	1	-1E+10	1	-1E+10	1	-1E+10	1	-1E+10	1	-1E+10	1
4902554	104	C	12/26/2023	12:58	-133.765	47.546	0	336.70	0	4.6700	0	33.8710	0	26.820	0	333.617	0	-1e10	8	-1e10	8	-1E+10	1	-1E+10	1	-1E+10	1	-1E+10	1	-1E+10	1	-1E+10	1
4902554	104	C	12/26/2023	12:58	-133.765	47.546	0	337.60	0	4.6680	0	33.8710	0	26.820	0	334.508	0	-1e10	8	-1e10	8	-1E+10	1	-1E+10	1	-1E+10	1	-1E+10	1	-1E+10	1	-1E+10	1
4902554	104	C	12/26/2023	12:58	-133.765	47.546	0	338.60	0	4.6680	0	33.8700	0	26.819	0	335.498	0	-1e10	8	-1e10	8	-1E+10	1	-1E+10	1	-1E+10	1	-1E+10	1	-1E+10	1	-1E+10	1
4902554	104	C	12/26/2023	12:58	-133.765	47.546	0	339.60	0	4.6620	0	33.8710	0	26.821	0	336.488	0	-1e10	8	-1e10	8	-1E+10	1	-1E+10	1	-1E+10	1	-1E+10	1	-1E+10	1	-1E+10	1
4902554	104	C	12/26/2023	12:58	-133.765	47.546	0	340.60	0	4.6390	0	33.8720	0	26.824	0	337.478	0	-1e10	8	-1e10	8	-1E+10	1	-1E+10	1	-1E+10	1	-1E+10	1	-1E+10	1	-1E+10	1
4902554	104	C	12/26/2023	12:58	-133.765	47.546	0	341.60	0	4.6170	0	33.8740	0	26.828	0	338.468	0	-1e10	8	-1e10	8	-1E+10	1	-1E+10	1	-1E+10	1	-1E+10	1	-1E+10	1	-1E+10	1
4902554	104	C	12/26/2023	12:58	-133.765	47.546	0	342.60	0	4.6140	0	33.8740	0	26.829	0	339.458	0	-1e10	8	-1e10	8	-1E+10	1	-1E+10	1	-1E+10	1	-1E+10	1	-1E+10	1	-1E+10	1
4902554	104	C	12/26/2023	12:58	-133.765	47.546	0	343.60	0	4.6110	0	33.8740	0	26.829	0	340.448	0	-1e10	8	-1e10	8	-1E+10	1	-1E+10	1	-1E+10	1	-1E+10	1	-1E+10	1	-1E+10	1
4902554	104	C	12/26/2023	12:58	-133.765	47.546	0	344.60	0	4.6090	0	33.8750	0	26.830	0	341.438	0	-1e10	8	-1e10	8	-1E+10	1	-1E+10	1	-1E+10	1	-1E+10	1	-1E+10	1	-1E+10	1
4902554	104	C	12/26/2023	12:58	-133.765	47.546	0	345.60	0	4.6080	0	33.8750	0	26.830	0	342.428	0	-1e10	8	-1e10	8	-1E+10	1	-1E+10	1	-1E+10	1	-1E+10	1	-1E+10	1	-1E+10	1
4902554	104	C	12/26/2023	12:58	-133.765	47.546	0	346.60	0	4.6070	0	33.8750	0	26.830	0	343.418	0	-1e10	8	-1e10	8	-1E+10	1	-1E+10	1	-1E+10	1	-1E+10	1	-1E+10	1	-1E+10	1
4902554	104	C	12/26/2023	12:58	-133.765	47.546	0	347.70	0	4.5980	0	33.8770	0	26.833	0	344.507	0	-1e10	8	-1e10	8	-1E+10	1	-1E+10	1	-1E+10	1	-1E+10	1	-1E+10	1	-1E+10	1
4902554	104	C	12/26/2023	12:58	-133.765	47.546	0	348.70	0	4.5970	0	33.8750	0	26.831	0	345.497	0	-1e10	8	-1e10	8	-1E+10	1	-1E+10	1	-1E+10	1	-1E+10	1	-1E+10	1	-1E+10	1
4902554	104	C	12/26/2023	12:58	-133.765	47.546	0	349.70	0	4.5910	0	33.8770	0	26.833	0	346.487	0	-1e10	8	-1e10	8	-1E+10	1	-1E+10	1	-1E+10	1	-1E+10	1	-1E+10	1	-1E+10	1
4902554	104	C	12/26/2023	12:58	-133.765	47.546	0	352.90	0	4.5680	0	33.8780	0	26.837	0	349.655	0	-1e10	8	-1e10	8	-1E+10	1	-1E+10	1	-1E+10	1	-1E+10	1	-1E+10	1	-1E+10	1
4902554	104	C	12/26/2023	12:58	-133.765	47.546	0	357.80	0	4.5300	0	33.8820	0	26.844	0	354.505	0	-1e10	8	-1e10	8	-1E+10	1	-1E+10	1	-1E+10	1	-1E+10	1	-1E+10	1	-1E+10	1
4902554	104	C	12/26/2023	12:58	-133.765	47.546	0	362.70	0	4.4920	0	33.8890	0	26.854	0	359.356	0	-1e10	8	-1e10	8	-1E+10	1	-1E+10	1	-1E+10	1	-1E+10	1	-1E+10	1	-1E+10	1
4902554	104	C	12/26/2023	12:58	-133.765	47.546	0	367.80	0	4.4650	0	33.8950	0	26.861	0	364.405	0	-1e10	8	-1e10	8	-1E+10	1	-1E+10	1	-1E+10	1	-1E+10	1	-1E+10	1	-1E+10	1
4902554	104	C	12/26/2023	12:58	-133.765	47.546	0	373.00	0	4.4400	0	33.9000	0	26.868	0	369.552	0	-1e10	8	-1e10	8	-1E+10	1	-1E+10	1	-1E+10	1	-1E+10	1	-1E+10	1	-1E+10	1
4902554	104	C	12/26/2023	12:58	-133.765	47.546	0	377.80	0	4.4200	0	33.9040	0	26.873	0	374.303	0	-1e10	8	-1e10	8	-1E+10	1	-1E+10	1	-1E+10	1	-1E+10	1	-1E+10	1	-1E+10	1
4902554	104	C	12/26/2023	12:58	-133.765	47.546	0	382.80	0	4.3920	0	33.9110	0	26.882	0	379.252	0	-1e10	8	-1e10	8	-1E+10	1	-1E+10	1	-1E+10	1	-1E+10	1	-1E+10	1	-1E+10	1
4902554	104	C	12/26/2023	12:58	-133.765	47.546	0	387.80	0	4.3760	0	33.9150	0	26.887	0	384.201	0	-1e10	8	-1e10	8	-1E+10	1	-1E+10	1	-1E+10	1	-1E+10	1	-1E+10	1	-1E+10	1
4902554	104	C	12/26/2023	12:58	-133.765	47.546	0	392.90	0	4.3580	0	33.9200	0	26.893	0	389.249	0	-1e10	8	-1e10	8	-1E+10	1	-1E+10	1	-1E+10	1	-1E+10	1	-1E+10	1	-1E+10	1
4902554	104	C	12/26/2023	12:58	-133.765	47.546	0	398.10	0	4.3450	0	33.9230	0	26.897	0	394.396	0	-1e10	8	-1e10	8	-1E+10	1	-1E+10	1	-1E+10	1	-1E+10	1	-1E+10	1	-1E+10	1
4902554	104	C	12/26/2023	12:58	-133.765	47.546	0	402.80	0	4.3280	0	33.9290	0	26.903	0	399.048	0	-1e10	8	-1e10	8	-1E+10	1	-1E+10	1	-1E+10	1	-1E+10	1	-1E+10	1	-1E+10	1
4902554	104	C	12/26/2023	12:58	-133.765	47.546	0	407.70	0	4.3010	0	33.9340	0	26.910	0	403.897	0	-1e10	8	-1e10	8	-1E+10	1	-1E+10	1	-1E+10	1	-1E+10	1	-1E+10	1	-1E+10	1
4902554	104	C	12/26/2023	12:58	-133.765	47.546	0	412.90	0	4.2790	0	33.9400	0	26.917	0	409.044	0	-1e10	8	-1e10	8	-1E+10	1	-1E+10	1	-1E+10	1	-1E+10	1	-1E+10	1	-1E+10	1
4902554	104	C	12/26/2023	12:58	-133.765	47.546	0	417.90	0	4.2570	0	33.9460	0	26.924	0	413.992	0	-1e10	8	-1e10	8	-1E+10	1	-1E+10	1	-1E+10	1	-1E+10	1	-1E+10	1	-1E+10	1
4902554	104	C	12/26/2023	12:58	-133.765	47.546	0	423.00	0	4.2420	0	33.9510	0	26.930	0	419.039	0	-1e10	8	-1e10	8	-1E+10	1	-1E+10	1	-1E+10	1	-1E+10	1	-1E+10	1	-1E+10	1
4902554	104	C	12/26/2023	12:58	-133.765	47.546	0	428.00	0	4.2210	0	33.9600	0	26.939	0	423.987	0	-1e10	8	-1e10	8	-1E+10	1	-1E+10	1	-1E+10	1	-1E+10	1	-1E+10	1	-1E+10	1
4902554	104	C	12/26/2023	12:58	-133.765	47.546	0	433.00	0	4.2140	0	33.9640	0	26.943	0	428.935	0	-1e10	8	-1e10	8	-1E+10	1	-1E+10	1	-1E+10	1	-1E+10	1	-1E+10	1	-1E+10	1
4902554	104	C	12/26/2023	12:58	-133.765	47.546	0	438.00	0	4.2060	0	33.9690	0	26.948	0	433.883	0	-1e10	8	-1e10	8	-1E+10	1	-1E+10	1	-1E+10	1	-1E+10	1	-1E+10	1	-1E+10	1
4902554	104	C	12/26/2023	12:58	-133.765	47.546	0	442.70	0	4.2050	0	33.9730	0	26.951	0	438.534	0	-1e10	8	-1e10	8	-1E+10	1	-1E+10	1	-1E+10	1	-1E+10	1	-1E+10	1	-1E+10	1
4902554	104	C	12/26/2023	12:58	-133.765	47.546	0	447.80	0	4.2020	0	33.9810	0	26.958	0	443.581	0	-1e10	8	-1e10	8	-1E+10	1	-1E+10	1	-1E+10	1	-1E+10	1	-1E+10	1	-1E+10	1
4902554	104	C	12/26/2023	12:58	-133.765	47.546	0	453.00	0	4.2130	0	33.9900	0	26.964	0	448.726	0	-1e10	8	-1e10	8	-1E+10	1	-1E+10	1	-1E+10	1	-1E+10	1	-1E+10	1	-1E+10	1
4902554	104	C	12/26/2023	12:58	-133.765	47.546	0	457.70	0	4.2520	0	34.0030	0	26.971	0	453.376	0	-1e10	8	-1e10	8	-1E+10	1	-1E+10	1	-1E+10	1	-1E+10	1	-1E+10	1	-1E+10	1
4902554	104	C	12/26/2023	12:58	-133.765	47.546	0	462.90	0	4.2480	0	34.0160	0	26.981	0	458.522	0	-1e10	8	-1e10	8	-1E+10	1	-1E+10	1	-1E+10	1	-1E+10	1	-1E+10	1	-1E+10	1
4902554	104	C	12/26/2023	12:58	-133.765	47.546	0	468.20	0	4.2360	0	34.0250	0	26.990	0	463.766	0	-1e10	8	-1e10	8	-1E+10	1	-1E+10	1	-1E+10	1	-1E+10	1	-1E+10	1	-1E+10	1
4902554	104	C	12/26/2023	12:58	-133.765	47.546	0	473.00	0	4.2210	0	34.0300	0	26.995	0	468.515	0	-1e10	8	-1e10	8	-1E+10	1	-1E+10	1	-1E+10	1	-1E+10	1	-1E+10	1	-1E+10	1
4902554	104	C	12/26/2023	12:58	-133.765	47.546	0	477.80	0	4.1860	0	34.0330	0	27.001	0	473.264	0	-1e10	8	-1e10	8	-1E+10	1	-1E+10	1	-1E+10	1	-1E+10	1	-1E+10	1	-1E+10	1
4902554	104	C	12/26/2023	12:58	-133.765	47.546	0	482.70	0	4.1730	0	34.0360	0	27.005	0	478.112	0	-1e10	8	-1e10	8	-1E+10	1	-1E+10	1	-1E+10	1	-1E+10	1	-1E+10	1	-1E+10	1
4902554	104	C	12/26/2023	12:58	-133.765	47.546	0	487.60	0	4.1640	0	34.0390	0	27.009	0	482.959	0	-1e10	8	-1e10	8	-1E+10	1	-1E+10	1	-1E+10	1	-1E+10	1	-1E+10	1	-1E+10	1
4902554	104	C	12/26/2023	12:58	-133.765	47.546	0	492.90	0	4.1560	0	34.0430	0	27.013	0	488.203	0	-1e10	8	-1e10	8	-1E+10	1	-1E+10	1	-1E+10	1	-1E+10	1	-1E+10	1	-1E+10	1
4902554	104	C	12/26/2023	12:58	-133.765	47.546	0	498.30	0	4.1400	0	34.0490	0	27.019	0	493.545	0	-1e10	8	-1e10	8	-1E+10	1	-1E+10	1	-1E+10	1	-1E+10	1	-1E+10	1	-1E+10	1
4902554	104	C	12/26/2023	12:58	-133.765	47.546	0	503.10	0	4.1350	0	34.0550	0	27.024	0	498.293	0	-1e10	8	-1e10	8	-1E+10	1	-1E+10	1	-1E+10	1	-1E+10	1	-1E+10	1	-1E+10	1
4902554	104	C	12/26/2023	12:58	-133.765	47.546	0	507.90	0	4.1520	0	34.0640	0	27.030	0	503.042	0	-1e10	8	-1e10	8	-1E+10	1	-1E+10	1	-1E+10	1	-1E+10	1	-1E+10	1	-1E+10	1
4902554	104	C	12/26/2023	12:58	-133.765	47.546	0	512.80	0	4.1230	0	34.0660	0	27.034	0	507.889	0	-1e10	8	-1e10	8	-1E+10	1	-1E+10	1	-1E+10	1	-1E+10	1	-1E+10	1	-1E+10	1
4902554	104	C	12/26/2023	12:58	-133.765	47.546	0	517.60	0	4.1170	0	34.0720	0	27.040	0	512.637	0	-1e10	8	-1e10	8	-1E+10	1	-1E+10	1	-1E+10	1	-1E+10	1	-1E+10	1	-1E+10	1
4902554	104	C	12/26/2023	12:58	-133.765	47.546	0	522.60	0	4.1200	0	34.0790	0	27.045	0	517.583	0	-1e10	8	-1e10	8	-1E+10	1	-1E+10	1	-1E+10	1	-1E+10	1	-1E+10	1	-1E+10	1
4902554	104	C	12/26/2023	12:58	-133.765	47.546	0	527.50	0	4.0970	0	34.0810	0	27.049	0	522.429	0	-1e10	8	-1e10	8	-1E+10	1	-1E+10	1	-1E+10	1	-1E+10	1	-1E+10	1	-1E+10	1
4902554	104	C	12/26/2023	12:58	-133.765	47.546	0	532.50	0	4.0870	0	34.0840	0	27.053	0	527.375	0	-1e10	8	-1e10	8	-1E+10	1	-1E+10	1	-1E+10	1	-1E+10	1	-1E+10	1	-1E+10	1
4902554	104	C	12/26/2023	12:58	-133.765	47.546	0	537.90	0	4.0820	0	34.0910	0	27.059	0	532.716	0	-1e10	8	-1e10	8	-1E+10	1	-1E+10	1	-1E+10	1	-1E+10	1	-1E+10	1	-1E+10	1
4902554	104	C	12/26/2023	12:58	-133.765	47.546	0	542.80	0	4.0700	0	34.0920	0	27.061	0	537.563	0	-1e10	8	-1e10	8	-1E+10	1	-1E+10	1	-1E+10	1	-1E+10	1	-1E+10	1	-1E+10	1
4902554	104	C	12/26/2023	12:58	-133.765	47.546	0	547.90	0	4.0460	0	34.0950	0	27.066	0	542.607	0	-1e10	8	-1e10	8	-1E+10	1	-1E+10	1	-1E+10	1	-1E+10	1	-1E+10	1	-1E+10	1
4902554	104	C	12/26/2023	12:58	-133.765	47.546	0	553.20	0	4.0390	0	34.0980	0	27.069	0	547.849	0	-1e10	8	-1e10	8	-1E+10	1	-1E+10	1	-1E+10	1	-1E+10	1	-1E+10	1	-1E+10	1
4902554	104	C	12/26/2023	12:58	-133.765	47.546	0	558.00	0	4.0240	0	34.1040	0	27.075	0	552.596	0	-1e10	8	-1e10	8	-1E+10	1	-1E+10	1	-1E+10	1	-1E+10	1	-1E+10	1	-1E+10	1
4902554	104	C	12/26/2023	12:58	-133.765	47.546	0	563.10	0	4.0160	0	34.1090	0	27.080	0	557.639	0	-1e10	8	-1e10	8	-1E+10	1	-1E+10	1	-1E+10	1	-1E+10	1	-1E+10	1	-1E+10	1
4902554	104	C	12/26/2023	12:58	-133.765	47.546	0	568.20	0	4.0020	0	34.1140	0	27.085	0	562.683	0	-1e10	8	-1e10	8	-1E+10	1	-1E+10	1	-1E+10	1	-1E+10	1	-1E+10	1	-1E+10	1
4902554	104	C	12/26/2023	12:58	-133.765	47.546	0	573.10	0	3.9950	0	34.1220	0	27.093	0	567.529	0	-1e10	8	-1e10	8	-1E+10	1	-1E+10	1	-1E+10	1	-1E+10	1	-1E+10	1	-1E+10	1
4902554	104	C	12/26/2023	12:58	-133.765	47.546	0	578.00	0	3.9970	0	34.1280	0	27.097	0	572.375	0	-1e10	8	-1e10	8	-1E+10	1	-1E+10	1	-1E+10	1	-1E+10	1	-1E+10	1	-1E+10	1
4902554	104	C	12/26/2023	12:58	-133.765	47.546	0	583.00	0	4.0020	0	34.1340	0	27.101	0	577.319	0	-1e10	8	-1e10	8	-1E+10	1	-1E+10	1	-1E+10	1	-1E+10	1	-1E+10	1	-1E+10	1
4902554	104	C	12/26/2023	12:58	-133.765	47.546	0	588.00	0	3.9810	0	34.1360	0	27.105	0	582.263	0	-1e10	8	-1e10	8	-1E+10	1	-1E+10	1	-1E+10	1	-1E+10	1	-1E+10	1	-1E+10	1
4902554	104	C	12/26/2023	12:58	-133.765	47.546	0	593.10	0	3.9780	0	34.1410	0	27.110	0	587.306	0	-1e10	8	-1e10	8	-1E+10	1	-1E+10	1	-1E+10	1	-1E+10	1	-1E+10	1	-1E+10	1
4902554	104	C	12/26/2023	12:58	-133.765	47.546	0	597.70	0	3.9620	0	34.1440	0	27.114	0	591.855	0	-1e10	8	-1e10	8	-1E+10	1	-1E+10	1	-1E+10	1	-1E+10	1	-1E+10	1	-1E+10	1
4902554	104	C	12/26/2023	12:58	-133.765	47.546	0	602.90	0	3.9600	0	34.1510	0	27.119	0	596.997	0	-1e10	8	-1e10	8	-1E+10	1	-1E+10	1	-1E+10	1	-1E+10	1	-1E+10	1	-1E+10	1
4902554	104	C	12/26/2023	12:58	-133.765	47.546	0	608.10	0	3.9560	0	34.1550	0	27.123	0	602.138	0	-1e10	8	-1e10	8	-1E+10	1	-1E+10	1	-1E+10	1	-1E+10	1	-1E+10	1	-1E+10	1
4902554	104	C	12/26/2023	12:58	-133.765	47.546	0	612.90	0	3.9540	0	34.1590	0	27.126	0	606.884	0	-1e10	8	-1e10	8	-1E+10	1	-1E+10	1	-1E+10	1	-1E+10	1	-1E+10	1	-1E+10	1
4902554	104	C	12/26/2023	12:58	-133.765	47.546	0	617.70	0	3.9280	0	34.1640	0	27.133	0	611.630	0	-1e10	8	-1e10	8	-1E+10	1	-1E+10	1	-1E+10	1	-1E+10	1	-1E+10	1	-1E+10	1
4902554	104	C	12/26/2023	12:58	-133.765	47.546	0	622.70	0	3.9240	0	34.1700	0	27.138	0	616.573	0	-1e10	8	-1e10	8	-1E+10	1	-1E+10	1	-1E+10	1	-1E+10	1	-1E+10	1	-1E+10	1
4902554	104	C	12/26/2023	12:58	-133.765	47.546	0	627.70	0	3.9270	0	34.1740	0	27.141	0	621.517	0	-1e10	8	-1e10	8	-1E+10	1	-1E+10	1	-1E+10	1	-1E+10	1	-1E+10	1	-1E+10	1
4902554	104	C	12/26/2023	12:58	-133.765	47.546	0	632.70	0	3.9440	0	34.1800	0	27.144	0	626.460	0	-1e10	8	-1e10	8	-1E+10	1	-1E+10	1	-1E+10	1	-1E+10	1	-1E+10	1	-1E+10	1
4902554	104	C	12/26/2023	12:58	-133.765	47.546	0	637.80	0	3.9420	0	34.1860	0	27.149	0	631.502	0	-1e10	8	-1e10	8	-1E+10	1	-1E+10	1	-1E+10	1	-1E+10	1	-1E+10	1	-1E+10	1
4902554	104	C	12/26/2023	12:58	-133.765	47.546	0	643.00	0	3.9280	0	34.1880	0	27.152	0	636.643	0	-1e10	8	-1e10	8	-1E+10	1	-1E+10	1	-1E+10	1	-1E+10	1	-1E+10	1	-1E+10	1
4902554	104	C	12/26/2023	12:58	-133.765	47.546	0	648.20	0	3.9080	0	34.1910	0	27.157	0	641.783	0	-1e10	8	-1e10	8	-1E+10	1	-1E+10	1	-1E+10	1	-1E+10	1	-1E+10	1	-1E+10	1
4902554	104	C	12/26/2023	12:58	-133.765	47.546	0	652.80	0	3.9030	0	34.1910	0	27.157	0	646.330	0	-1e10	8	-1e10	8	-1E+10	1	-1E+10	1	-1E+10	1	-1E+10	1	-1E+10	1	-1E+10	1
4902554	104	C	12/26/2023	12:58	-133.765	47.546	0	657.50	0	3.9050	0	34.1930	0	27.159	0	650.977	0	-1e10	8	-1e10	8	-1E+10	1	-1E+10	1	-1E+10	1	-1E+10	1	-1E+10	1	-1E+10	1
4902554	104	C	12/26/2023	12:58	-133.765	47.546	0	662.70	0	3.8970	0	34.1970	0	27.163	0	656.117	0	-1e10	8	-1e10	8	-1E+10	1	-1E+10	1	-1E+10	1	-1E+10	1	-1E+10	1	-1E+10	1
4902554	104	C	12/26/2023	12:58	-133.765	47.546	0	668.00	0	3.8910	0	34.2030	0	27.168	0	661.356	0	-1e10	8	-1e10	8	-1E+10	1	-1E+10	1	-1E+10	1	-1E+10	1	-1E+10	1	-1E+10	1
4902554	104	C	12/26/2023	12:58	-133.765	47.546	0	672.80	0	3.8730	0	34.2050	0	27.172	0	666.100	0	-1e10	8	-1e10	8	-1E+10	1	-1E+10	1	-1E+10	1	-1E+10	1	-1E+10	1	-1E+10	1
4902554	104	C	12/26/2023	12:58	-133.765	47.546	0	677.60	0	3.8510	0	34.2030	0	27.172	0	670.845	0	-1e10	8	-1e10	8	-1E+10	1	-1E+10	1	-1E+10	1	-1E+10	1	-1E+10	1	-1E+10	1
4902554	104	C	12/26/2023	12:58	-133.765	47.546	0	682.90	0	3.8460	0	34.2040	0	27.174	0	676.083	0	-1e10	8	-1e10	8	-1E+10	1	-1E+10	1	-1E+10	1	-1E+10	1	-1E+10	1	-1E+10	1
4902554	104	C	12/26/2023	12:58	-133.765	47.546	0	687.80	0	3.8520	0	34.2090	0	27.177	0	680.926	0	-1e10	8	-1e10	8	-1E+10	1	-1E+10	1	-1E+10	1	-1E+10	1	-1E+10	1	-1E+10	1
4902554	104	C	12/26/2023	12:58	-133.765	47.546	0	692.60	0	3.8470	0	34.2120	0	27.180	0	685.671	0	-1e10	8	-1e10	8	-1E+10	1	-1E+10	1	-1E+10	1	-1E+10	1	-1E+10	1	-1E+10	1
4902554	104	C	12/26/2023	12:58	-133.765	47.546	0	698.20	0	3.8340	0	34.2190	0	27.187	0	691.205	0	-1e10	8	-1e10	8	-1E+10	1	-1E+10	1	-1E+10	1	-1E+10	1	-1E+10	1	-1E+10	1
4902554	104	C	12/26/2023	12:58	-133.765	47.546	0	703.10	0	3.8070	0	34.2200	0	27.190	0	696.048	0	-1e10	8	-1e10	8	-1E+10	1	-1E+10	1	-1E+10	1	-1E+10	1	-1E+10	1	-1E+10	1
4902554	104	C	12/26/2023	12:58	-133.765	47.546	0	707.90	0	3.7630	0	34.2210	0	27.196	0	700.792	0	-1e10	8	-1e10	8	-1E+10	1	-1E+10	1	-1E+10	1	-1E+10	1	-1E+10	1	-1E+10	1
4902554	104	C	12/26/2023	12:58	-133.765	47.546	0	712.70	0	3.7420	0	34.2230	0	27.199	0	705.536	0	-1e10	8	-1e10	8	-1E+10	1	-1E+10	1	-1E+10	1	-1E+10	1	-1E+10	1	-1E+10	1
4902554	104	C	12/26/2023	12:58	-133.765	47.546	0	717.90	0	3.7350	0	34.2280	0	27.204	0	710.674	0	-1e10	8	-1e10	8	-1E+10	1	-1E+10	1	-1E+10	1	-1E+10	1	-1E+10	1	-1E+10	1
4902554	104	C	12/26/2023	12:58	-133.765	47.546	0	723.20	0	3.7280	0	34.2340	0	27.210	0	715.912	0	-1e10	8	-1e10	8	-1E+10	1	-1E+10	1	-1E+10	1	-1E+10	1	-1E+10	1	-1E+10	1
4902554	104	C	12/26/2023	12:58	-133.765	47.546	0	727.90	0	3.7130	0	34.2390	0	27.215	0	720.556	0	-1e10	8	-1e10	8	-1E+10	1	-1E+10	1	-1E+10	1	-1E+10	1	-1E+10	1	-1E+10	1
4902554	104	C	12/26/2023	12:58	-133.765	47.546	0	732.60	0	3.7060	0	34.2410	0	27.217	0	725.201	0	-1e10	8	-1e10	8	-1E+10	1	-1E+10	1	-1E+10	1	-1E+10	1	-1E+10	1	-1E+10	1
4902554	104	C	12/26/2023	12:58	-133.765	47.546	0	737.80	0	3.7340	0	34.2480	0	27.220	0	730.339	0	-1e10	8	-1e10	8	-1E+10	1	-1E+10	1	-1E+10	1	-1E+10	1	-1E+10	1	-1E+10	1
4902554	104	C	12/26/2023	12:58	-133.765	47.546	0	743.00	0	3.7280	0	34.2520	0	27.224	0	735.478	0	-1e10	8	-1e10	8	-1E+10	1	-1E+10	1	-1E+10	1	-1E+10	1	-1E+10	1	-1E+10	1
4902554	104	C	12/26/2023	12:58	-133.765	47.546	0	747.80	0	3.6840	0	34.2500	0	27.227	0	740.220	0	-1e10	8	-1e10	8	-1E+10	1	-1E+10	1	-1E+10	1	-1E+10	1	-1E+10	1	-1E+10	1
4902554	104	C	12/26/2023	12:58	-133.765	47.546	0	752.70	0	3.6620	0	34.2510	0	27.230	0	745.062	0	-1e10	8	-1e10	8	-1E+10	1	-1E+10	1	-1E+10	1	-1E+10	1	-1E+10	1	-1E+10	1
4902554	104	C	12/26/2023	12:58	-133.765	47.546	0	758.00	0	3.6520	0	34.2530	0	27.232	0	750.299	0	-1e10	8	-1e10	8	-1E+10	1	-1E+10	1	-1E+10	1	-1E+10	1	-1E+10	1	-1E+10	1
4902554	104	C	12/26/2023	12:58	-133.765	47.546	0	763.00	0	3.6450	0	34.2550	0	27.235	0	755.239	0	-1e10	8	-1e10	8	-1E+10	1	-1E+10	1	-1E+10	1	-1E+10	1	-1E+10	1	-1E+10	1
4902554	104	C	12/26/2023	12:58	-133.765	47.546	0	767.90	0	3.6320	0	34.2570	0	27.238	0	760.080	0	-1e10	8	-1e10	8	-1E+10	1	-1E+10	1	-1E+10	1	-1E+10	1	-1E+10	1	-1E+10	1
4902554	104	C	12/26/2023	12:58	-133.765	47.546	0	773.00	0	3.6200	0	34.2580	0	27.240	0	765.119	0	-1e10	8	-1e10	8	-1E+10	1	-1E+10	1	-1E+10	1	-1E+10	1	-1E+10	1	-1E+10	1
4902554	104	C	12/26/2023	12:58	-133.765	47.546	0	778.10	0	3.6150	0	34.2610	0	27.242	0	770.157	0	-1e10	8	-1e10	8	-1E+10	1	-1E+10	1	-1E+10	1	-1E+10	1	-1E+10	1	-1E+10	1
4902554	104	C	12/26/2023	12:58	-133.765	47.546	0	783.20	0	3.6190	0	34.2650	0	27.245	0	775.196	0	-1e10	8	-1e10	8	-1E+10	1	-1E+10	1	-1E+10	1	-1E+10	1	-1E+10	1	-1E+10	1
4902554	104	C	12/26/2023	12:58	-133.765	47.546	0	787.90	0	3.6020	0	34.2650	0	27.247	0	779.839	0	-1e10	8	-1e10	8	-1E+10	1	-1E+10	1	-1E+10	1	-1E+10	1	-1E+10	1	-1E+10	1
4902554	104	C	12/26/2023	12:58	-133.765	47.546	0	793.00	0	3.6060	0	34.2710	0	27.251	0	784.877	0	-1e10	8	-1e10	8	-1E+10	1	-1E+10	1	-1E+10	1	-1E+10	1	-1E+10	1	-1E+10	1
4902554	104	C	12/26/2023	12:58	-133.765	47.546	0	798.10	0	3.5770	0	34.2750	0	27.257	0	789.915	0	-1e10	8	-1e10	8	-1E+10	1	-1E+10	1	-1E+10	1	-1E+10	1	-1E+10	1	-1E+10	1
4902554	104	C	12/26/2023	12:58	-133.765	47.546	0	802.90	0	3.5510	0	34.2720	0	27.258	0	794.657	0	-1e10	8	-1e10	8	-1E+10	1	-1E+10	1	-1E+10	1	-1E+10	1	-1E+10	1	-1E+10	1
4902554	104	C	12/26/2023	12:58	-133.765	47.546	0	808.00	0	3.5230	0	34.2740	0	27.262	0	799.695	0	-1e10	8	-1e10	8	-1E+10	1	-1E+10	1	-1E+10	1	-1E+10	1	-1E+10	1	-1E+10	1
4902554	104	C	12/26/2023	12:58	-133.765	47.546	0	813.20	0	3.5100	0	34.2760	0	27.265	0	804.832	0	-1e10	8	-1e10	8	-1E+10	1	-1E+10	1	-1E+10	1	-1E+10	1	-1E+10	1	-1E+10	1
4902554	104	C	12/26/2023	12:58	-133.765	47.546	0	818.00	0	3.4980	0	34.2790	0	27.268	0	809.573	0	-1e10	8	-1e10	8	-1E+10	1	-1E+10	1	-1E+10	1	-1E+10	1	-1E+10	1	-1E+10	1
4902554	104	C	12/26/2023	12:58	-133.765	47.546	0	822.80	0	3.4850	0	34.2830	0	27.273	0	814.314	0	-1e10	8	-1e10	8	-1E+10	1	-1E+10	1	-1E+10	1	-1E+10	1	-1E+10	1	-1E+10	1
4902554	104	C	12/26/2023	12:58	-133.765	47.546	0	827.60	0	3.4760	0	34.2850	0	27.275	0	819.055	0	-1e10	8	-1e10	8	-1E+10	1	-1E+10	1	-1E+10	1	-1E+10	1	-1E+10	1	-1E+10	1
4902554	104	C	12/26/2023	12:58	-133.765	47.546	0	832.90	0	3.4600	0	34.2880	0	27.279	0	824.290	0	-1e10	8	-1e10	8	-1E+10	1	-1E+10	1	-1E+10	1	-1E+10	1	-1E+10	1	-1E+10	1
4902554	104	C	12/26/2023	12:58	-133.765	47.546	0	838.20	0	3.4510	0	34.2890	0	27.281	0	829.525	0	-1e10	8	-1e10	8	-1E+10	1	-1E+10	1	-1E+10	1	-1E+10	1	-1E+10	1	-1E+10	1
4902554	104	C	12/26/2023	12:58	-133.765	47.546	0	843.00	0	3.4410	0	34.2910	0	27.284	0	834.265	0	-1e10	8	-1e10	8	-1E+10	1	-1E+10	1	-1E+10	1	-1E+10	1	-1E+10	1	-1E+10	1
4902554	104	C	12/26/2023	12:58	-133.765	47.546	0	847.80	0	3.4200	0	34.2920	0	27.286	0	839.006	0	-1e10	8	-1e10	8	-1E+10	1	-1E+10	1	-1E+10	1	-1E+10	1	-1E+10	1	-1E+10	1
4902554	104	C	12/26/2023	12:58	-133.765	47.546	0	852.60	0	3.4130	0	34.2940	0	27.289	0	843.747	0	-1e10	8	-1e10	8	-1E+10	1	-1E+10	1	-1E+10	1	-1E+10	1	-1E+10	1	-1E+10	1
4902554	104	C	12/26/2023	12:58	-133.765	47.546	0	857.90	0	3.3970	0	34.2970	0	27.293	0	848.981	0	-1e10	8	-1e10	8	-1E+10	1	-1E+10	1	-1E+10	1	-1E+10	1	-1E+10	1	-1E+10	1
4902554	104	C	12/26/2023	12:58	-133.765	47.546	0	863.20	0	3.3770	0	34.3010	0	27.298	0	854.215	0	-1e10	8	-1e10	8	-1E+10	1	-1E+10	1	-1E+10	1	-1E+10	1	-1E+10	1	-1E+10	1
4902554	104	C	12/26/2023	12:58	-133.765	47.546	0	868.00	0	3.3680	0	34.3040	0	27.301	0	858.955	0	-1e10	8	-1e10	8	-1E+10	1	-1E+10	1	-1E+10	1	-1E+10	1	-1E+10	1	-1E+10	1
4902554	104	C	12/26/2023	12:58	-133.765	47.546	0	872.90	0	3.3720	0	34.3100	0	27.305	0	863.794	0	-1e10	8	-1e10	8	-1E+10	1	-1E+10	1	-1E+10	1	-1E+10	1	-1E+10	1	-1E+10	1
4902554	104	C	12/26/2023	12:58	-133.765	47.546	0	877.80	0	3.3580	0	34.3130	0	27.309	0	868.633	0	-1e10	8	-1e10	8	-1E+10	1	-1E+10	1	-1E+10	1	-1E+10	1	-1E+10	1	-1E+10	1
4902554	104	C	12/26/2023	12:58	-133.765	47.546	0	882.70	0	3.3460	0	34.3160	0	27.313	0	873.471	0	-1e10	8	-1e10	8	-1E+10	1	-1E+10	1	-1E+10	1	-1E+10	1	-1E+10	1	-1E+10	1
4902554	104	C	12/26/2023	12:58	-133.765	47.546	0	887.70	0	3.3380	0	34.3210	0	27.318	0	878.408	0	-1e10	8	-1e10	8	-1E+10	1	-1E+10	1	-1E+10	1	-1E+10	1	-1E+10	1	-1E+10	1
4902554	104	C	12/26/2023	12:58	-133.765	47.546	0	892.70	0	3.3380	0	34.3240	0	27.320	0	883.345	0	-1e10	8	-1e10	8	-1E+10	1	-1E+10	1	-1E+10	1	-1E+10	1	-1E+10	1	-1E+10	1
4902554	104	C	12/26/2023	12:58	-133.765	47.546	0	897.70	0	3.3270	0	34.3270	0	27.323	0	888.282	0	-1e10	8	-1e10	8	-1E+10	1	-1E+10	1	-1E+10	1	-1E+10	1	-1E+10	1	-1E+10	1
4902554	104	C	12/26/2023	12:58	-133.765	47.546	0	902.70	0	3.3200	0	34.3290	0	27.326	0	893.219	0	-1e10	8	-1e10	8	-1E+10	1	-1E+10	1	-1E+10	1	-1E+10	1	-1E+10	1	-1E+10	1
4902554	104	C	12/26/2023	12:58	-133.765	47.546	0	908.10	0	3.3040	0	34.3310	0	27.329	0	898.551	0	-1e10	8	-1e10	8	-1E+10	1	-1E+10	1	-1E+10	1	-1E+10	1	-1E+10	1	-1E+10	1
4902554	104	C	12/26/2023	12:58	-133.765	47.546	0	912.90	0	3.2930	0	34.3340	0	27.332	0	903.290	0	-1e10	8	-1e10	8	-1E+10	1	-1E+10	1	-1E+10	1	-1E+10	1	-1E+10	1	-1E+10	1
4902554	104	C	12/26/2023	12:58	-133.765	47.546	0	917.90	0	3.2890	0	34.3370	0	27.335	0	908.227	0	-1e10	8	-1e10	8	-1E+10	1	-1E+10	1	-1E+10	1	-1E+10	1	-1E+10	1	-1E+10	1
4902554	104	C	12/26/2023	12:58	-133.765	47.546	0	923.10	0	3.2800	0	34.3410	0	27.339	0	913.361	0	-1e10	8	-1e10	8	-1E+10	1	-1E+10	1	-1E+10	1	-1E+10	1	-1E+10	1	-1E+10	1
4902554	104	C	12/26/2023	12:58	-133.765	47.546	0	928.00	0	3.2750	0	34.3430	0	27.341	0	918.198	0	-1e10	8	-1e10	8	-1E+10	1	-1E+10	1	-1E+10	1	-1E+10	1	-1E+10	1	-1E+10	1
4902554	104	C	12/26/2023	12:58	-133.765	47.546	0	933.00	0	3.2700	0	34.3440	0	27.343	0	923.134	0	-1e10	8	-1e10	8	-1E+10	1	-1E+10	1	-1E+10	1	-1E+10	1	-1E+10	1	-1E+10	1
4902554	104	C	12/26/2023	12:58	-133.765	47.546	0	938.00	0	3.2500	0	34.3460	0	27.346	0	928.070	0	-1e10	8	-1e10	8	-1E+10	1	-1E+10	1	-1E+10	1	-1E+10	1	-1E+10	1	-1E+10	1
4902554	104	C	12/26/2023	12:58	-133.765	47.546	0	943.10	0	3.2290	0	34.3490	0	27.350	0	933.105	0	-1e10	8	-1e10	8	-1E+10	1	-1E+10	1	-1E+10	1	-1E+10	1	-1E+10	1	-1E+10	1
4902554	104	C	12/26/2023	12:58	-133.765	47.546	0	948.10	0	3.2250	0	34.3500	0	27.352	0	938.041	0	-1e10	8	-1e10	8	-1E+10	1	-1E+10	1	-1E+10	1	-1E+10	1	-1E+10	1	-1E+10	1
4902554	104	C	12/26/2023	12:58	-133.765	47.546	0	953.20	0	3.2240	0	34.3530	0	27.354	0	943.075	0	-1e10	8	-1e10	8	-1E+10	1	-1E+10	1	-1E+10	1	-1E+10	1	-1E+10	1	-1E+10	1
4902554	104	C	12/26/2023	12:58	-133.765	47.546	0	958.20	0	3.2230	0	34.3560	0	27.357	0	948.011	0	-1e10	8	-1e10	8	-1E+10	1	-1E+10	1	-1E+10	1	-1E+10	1	-1E+10	1	-1E+10	1
4902554	104	C	12/26/2023	12:58	-133.765	47.546	0	962.90	0	3.2140	0	34.3590	0	27.360	0	952.650	0	-1e10	8	-1e10	8	-1E+10	1	-1E+10	1	-1E+10	1	-1E+10	1	-1E+10	1	-1E+10	1
4902554	104	C	12/26/2023	12:58	-133.765	47.546	0	967.60	0	3.1980	0	34.3620	0	27.364	0	957.289	0	-1e10	8	-1e10	8	-1E+10	1	-1E+10	1	-1E+10	1	-1E+10	1	-1E+10	1	-1E+10	1
4902554	104	C	12/26/2023	12:58	-133.765	47.546	0	972.70	0	3.1670	0	34.3640	0	27.368	0	962.323	0	-1e10	8	-1e10	8	-1E+10	1	-1E+10	1	-1E+10	1	-1E+10	1	-1E+10	1	-1E+10	1
4902554	104	C	12/26/2023	12:58	-133.765	47.546	0	978.00	0	3.1430	0	34.3650	0	27.371	0	967.555	0	-1e10	8	-1e10	8	-1E+10	1	-1E+10	1	-1E+10	1	-1E+10	1	-1E+10	1	-1E+10	1
4902554	104	C	12/26/2023	12:58	-133.765	47.546	0	982.90	0	3.1390	0	34.3660	0	27.372	0	972.391	0	-1e10	8	-1e10	8	-1E+10	1	-1E+10	1	-1E+10	1	-1E+10	1	-1E+10	1	-1E+10	1
4902554	104	C	12/26/2023	12:58	-133.765	47.546	0	987.80	0	3.1210	0	34.3670	0	27.375	0	977.227	0	-1e10	8	-1e10	8	-1E+10	1	-1E+10	1	-1E+10	1	-1E+10	1	-1E+10	1	-1E+10	1
4902554	104	C	12/26/2023	12:58	-133.765	47.546	0	992.80	0	3.0950	0	34.3700	0	27.380	0	982.162	0	-1e10	8	-1e10	8	-1E+10	1	-1E+10	1	-1E+10	1	-1E+10	1	-1E+10	1	-1E+10	1
4902554	104	C	12/26/2023	12:58	-133.765	47.546	0	997.80	0	3.0840	0	34.3720	0	27.382	0	987.096	0	-1e10	8	-1e10	8	-1E+10	1	-1E+10	1	-1E+10	1	-1E+10	1	-1E+10	1	-1E+10	1
4902554	104	C	12/26/2023	12:58	-133.765	47.546	0	1005.50	0	3.0720	0	34.3740	0	27.385	0	994.696	0	-1e10	8	-1e10	8	-1E+10	1	-1E+10	1	-1E+10	1	-1E+10	1	-1E+10	1	-1E+10	1
4902554	104	C	12/26/2023	12:58	-133.765	47.546	0	1015.70	0	3.0560	0	34.3780	0	27.390	0	1004.762	0	-1e10	8	-1e10	8	-1E+10	1	-1E+10	1	-1E+10	1	-1E+10	1	-1E+10	1	-1E+10	1
4902554	104	C	12/26/2023	12:58	-133.765	47.546	0	1025.70	0	3.0390	0	34.3810	0	27.394	0	1014.630	0	-1e10	8	-1e10	8	-1E+10	1	-1E+10	1	-1E+10	1	-1E+10	1	-1E+10	1	-1E+10	1
4902554	104	C	12/26/2023	12:58	-133.765	47.546	0	1035.50	0	3.0120	0	34.3850	0	27.400	0	1024.300	0	-1e10	8	-1e10	8	-1E+10	1	-1E+10	1	-1E+10	1	-1E+10	1	-1E+10	1	-1E+10	1
4902554	104	C	12/26/2023	12:58	-133.765	47.546	0	1045.40	0	2.9920	0	34.3880	0	27.404	0	1034.069	0	-1e10	8	-1e10	8	-1E+10	1	-1E+10	1	-1E+10	1	-1E+10	1	-1E+10	1	-1E+10	1
4902554	104	C	12/26/2023	12:58	-133.765	47.546	0	1055.40	0	2.9700	0	34.3920	0	27.409	0	1043.935	0	-1e10	8	-1e10	8	-1E+10	1	-1E+10	1	-1E+10	1	-1E+10	1	-1E+10	1	-1E+10	1
4902554	104	C	12/26/2023	12:58	-133.765	47.546	0	1065.70	0	2.9590	0	34.3950	0	27.412	0	1054.097	0	-1e10	8	-1e10	8	-1E+10	1	-1E+10	1	-1E+10	1	-1E+10	1	-1E+10	1	-1E+10	1
4902554	104	C	12/26/2023	12:58	-133.765	47.546	0	1075.50	0	2.9490	0	34.4000	0	27.417	0	1063.766	0	-1e10	8	-1e10	8	-1E+10	1	-1E+10	1	-1E+10	1	-1E+10	1	-1E+10	1	-1E+10	1
4902554	104	C	12/26/2023	12:58	-133.765	47.546	0	1085.40	0	2.9370	0	34.4020	0	27.420	0	1073.533	0	-1e10	8	-1e10	8	-1E+10	1	-1E+10	1	-1E+10	1	-1E+10	1	-1E+10	1	-1E+10	1
4902554	104	C	12/26/2023	12:58	-133.765	47.546	0	1095.20	0	2.9300	0	34.4040	0	27.422	0	1083.200	0	-1e10	8	-1e10	8	-1E+10	1	-1E+10	1	-1E+10	1	-1E+10	1	-1E+10	1	-1E+10	1
4902554	104	C	12/26/2023	12:58	-133.765	47.546	0	1105.10	0	2.9160	0	34.4090	0	27.428	0	1092.966	0	-1e10	8	-1e10	8	-1E+10	1	-1E+10	1	-1E+10	1	-1E+10	1	-1E+10	1	-1E+10	1
4902554	104	C	12/26/2023	12:58	-133.765	47.546	0	1115.30	0	2.9100	0	34.4130	0	27.431	0	1103.027	0	-1e10	8	-1e10	8	-1E+10	1	-1E+10	1	-1E+10	1	-1E+10	1	-1E+10	1	-1E+10	1
4902554	104	C	12/26/2023	12:58	-133.765	47.546	0	1125.40	0	2.8950	0	34.4180	0	27.437	0	1112.989	0	-1e10	8	-1e10	8	-1E+10	1	-1E+10	1	-1E+10	1	-1E+10	1	-1E+10	1	-1E+10	1
4902554	104	C	12/26/2023	12:58	-133.765	47.546	0	1135.50	0	2.8880	0	34.4210	0	27.440	0	1122.951	0	-1e10	8	-1e10	8	-1E+10	1	-1E+10	1	-1E+10	1	-1E+10	1	-1E+10	1	-1E+10	1
4902554	104	C	12/26/2023	12:58	-133.765	47.546	0	1145.50	0	2.8800	0	34.4230	0	27.442	0	1132.814	0	-1e10	8	-1e10	8	-1E+10	1	-1E+10	1	-1E+10	1	-1E+10	1	-1E+10	1	-1E+10	1
4902554	104	C	12/26/2023	12:58	-133.765	47.546	0	1155.50	0	2.8670	0	34.4250	0	27.445	0	1142.676	0	-1e10	8	-1e10	8	-1E+10	1	-1E+10	1	-1E+10	1	-1E+10	1	-1E+10	1	-1E+10	1
4902554	104	C	12/26/2023	12:58	-133.765	47.546	0	1165.50	0	2.8620	0	34.4260	0	27.446	0	1152.537	0	-1e10	8	-1e10	8	-1E+10	1	-1E+10	1	-1E+10	1	-1E+10	1	-1E+10	1	-1E+10	1
4902554	104	C	12/26/2023	12:58	-133.765	47.546	0	1175.30	0	2.8460	0	34.4290	0	27.450	0	1162.201	0	-1e10	8	-1e10	8	-1E+10	1	-1E+10	1	-1E+10	1	-1E+10	1	-1E+10	1	-1E+10	1
4902554	104	C	12/26/2023	12:58	-133.765	47.546	0	1185.50	0	2.8110	0	34.4330	0	27.457	0	1172.259	0	-1e10	8	-1e10	8	-1E+10	1	-1E+10	1	-1E+10	1	-1E+10	1	-1E+10	1	-1E+10	1
4902554	104	C	12/26/2023	12:58	-133.765	47.546	0	1195.30	0	2.7860	0	34.4360	0	27.461	0	1181.922	0	-1e10	8	-1e10	8	-1E+10	1	-1E+10	1	-1E+10	1	-1E+10	1	-1E+10	1	-1E+10	1
4902554	104	C	12/26/2023	12:58	-133.765	47.546	0	1205.30	0	2.7720	0	34.4380	0	27.464	0	1191.782	0	-1e10	8	-1e10	8	-1E+10	1	-1E+10	1	-1E+10	1	-1E+10	1	-1E+10	1	-1E+10	1
4902554	104	C	12/26/2023	12:58	-133.765	47.546	0	1215.30	0	2.7520	0	34.4410	0	27.468	0	1201.641	0	-1e10	8	-1e10	8	-1E+10	1	-1E+10	1	-1E+10	1	-1E+10	1	-1E+10	1	-1E+10	1
4902554	104	C	12/26/2023	12:58	-133.765	47.546	0	1225.40	0	2.7300	0	34.4440	0	27.473	0	1211.598	0	-1e10	8	-1e10	8	-1E+10	1	-1E+10	1	-1E+10	1	-1E+10	1	-1E+10	1	-1E+10	1
4902554	104	C	12/26/2023	12:58	-133.765	47.546	0	1235.70	0	2.7150	0	34.4480	0	27.477	0	1221.753	0	-1e10	8	-1e10	8	-1E+10	1	-1E+10	1	-1E+10	1	-1E+10	1	-1E+10	1	-1E+10	1
4902554	104	C	12/26/2023	12:58	-133.765	47.546	0	1245.70	0	2.7040	0	34.4520	0	27.481	0	1231.610	0	-1e10	8	-1e10	8	-1E+10	1	-1E+10	1	-1E+10	1	-1E+10	1	-1E+10	1	-1E+10	1
4902554	104	C	12/26/2023	12:58	-133.765	47.546	0	1255.20	0	2.6950	0	34.4550	0	27.485	0	1240.975	0	-1e10	8	-1e10	8	-1E+10	1	-1E+10	1	-1E+10	1	-1E+10	1	-1E+10	1	-1E+10	1
4902554	104	C	12/26/2023	12:58	-133.765	47.546	0	1265.20	0	2.6820	0	34.4570	0	27.487	0	1250.832	0	-1e10	8	-1e10	8	-1E+10	1	-1E+10	1	-1E+10	1	-1E+10	1	-1E+10	1	-1E+10	1
4902554	104	C	12/26/2023	12:58	-133.765	47.546	0	1275.40	0	2.6690	0	34.4590	0	27.490	0	1260.886	0	-1e10	8	-1e10	8	-1E+10	1	-1E+10	1	-1E+10	1	-1E+10	1	-1E+10	1	-1E+10	1
4902554	104	C	12/26/2023	12:58	-133.765	47.546	0	1285.80	0	2.6490	0	34.4610	0	27.494	0	1271.136	0	-1e10	8	-1e10	8	-1E+10	1	-1E+10	1	-1E+10	1	-1E+10	1	-1E+10	1	-1E+10	1
4902554	104	C	12/26/2023	12:58	-133.765	47.546	0	1295.80	0	2.6270	0	34.4650	0	27.499	0	1280.991	0	-1e10	8	-1e10	8	-1E+10	1	-1E+10	1	-1E+10	1	-1E+10	1	-1E+10	1	-1E+10	1
4902554	104	C	12/26/2023	12:58	-133.765	47.546	0	1305.40	0	2.6090	0	34.4680	0	27.503	0	1290.452	0	-1e10	8	-1e10	8	-1E+10	1	-1E+10	1	-1E+10	1	-1E+10	1	-1E+10	1	-1E+10	1
4902554	104	C	12/26/2023	12:58	-133.765	47.546	0	1315.20	0	2.5920	0	34.4710	0	27.507	0	1300.110	0	-1e10	8	-1e10	8	-1E+10	1	-1E+10	1	-1E+10	1	-1E+10	1	-1E+10	1	-1E+10	1
4902554	104	C	12/26/2023	12:58	-133.765	47.546	0	1325.40	0	2.5760	0	34.4730	0	27.510	0	1310.161	0	-1e10	8	-1e10	8	-1E+10	1	-1E+10	1	-1E+10	1	-1E+10	1	-1E+10	1	-1E+10	1
4902554	104	C	12/26/2023	12:58	-133.765	47.546	0	1335.50	0	2.5550	0	34.4760	0	27.514	0	1320.113	0	-1e10	8	-1e10	8	-1E+10	1	-1E+10	1	-1E+10	1	-1E+10	1	-1E+10	1	-1E+10	1
4902554	104	C	12/26/2023	12:58	-133.765	47.546	0	1345.50	0	2.5330	0	34.4800	0	27.519	0	1329.967	0	-1e10	8	-1e10	8	-1E+10	1	-1E+10	1	-1E+10	1	-1E+10	1	-1E+10	1	-1E+10	1
4902554	104	C	12/26/2023	12:58	-133.765	47.546	0	1355.60	0	2.5240	0	34.4820	0	27.521	0	1339.918	0	-1e10	8	-1e10	8	-1E+10	1	-1E+10	1	-1E+10	1	-1E+10	1	-1E+10	1	-1E+10	1
4902554	104	C	12/26/2023	12:58	-133.765	47.546	0	1365.30	0	2.5040	0	34.4860	0	27.526	0	1349.475	0	-1e10	8	-1e10	8	-1E+10	1	-1E+10	1	-1E+10	1	-1E+10	1	-1E+10	1	-1E+10	1
4902554	104	C	12/26/2023	12:58	-133.765	47.546	0	1375.50	0	2.4830	0	34.4890	0	27.531	0	1359.524	0	-1e10	8	-1e10	8	-1E+10	1	-1E+10	1	-1E+10	1	-1E+10	1	-1E+10	1	-1E+10	1
4902554	104	C	12/26/2023	12:58	-133.765	47.546	0	1385.80	0	2.4710	0	34.4900	0	27.532	0	1369.671	0	-1e10	8	-1e10	8	-1E+10	1	-1E+10	1	-1E+10	1	-1E+10	1	-1E+10	1	-1E+10	1
4902554	104	C	12/26/2023	12:58	-133.765	47.546	0	1395.40	0	2.4550	0	34.4910	0	27.535	0	1379.128	0	-1e10	8	-1e10	8	-1E+10	1	-1E+10	1	-1E+10	1	-1E+10	1	-1E+10	1	-1E+10	1
4902554	104	C	12/26/2023	12:58	-133.765	47.546	0	1405.10	0	2.4420	0	34.4940	0	27.538	0	1388.682	0	-1e10	8	-1e10	8	-1E+10	1	-1E+10	1	-1E+10	1	-1E+10	1	-1E+10	1	-1E+10	1
4902554	104	C	12/26/2023	12:58	-133.765	47.546	0	1415.50	0	2.4260	0	34.4980	0	27.543	0	1398.927	0	-1e10	8	-1e10	8	-1E+10	1	-1E+10	1	-1E+10	1	-1E+10	1	-1E+10	1	-1E+10	1
4902554	104	C	12/26/2023	12:58	-133.765	47.546	0	1425.50	0	2.4160	0	34.5000	0	27.545	0	1408.776	0	-1e10	8	-1e10	8	-1E+10	1	-1E+10	1	-1E+10	1	-1E+10	1	-1E+10	1	-1E+10	1
4902554	104	C	12/26/2023	12:58	-133.765	47.546	0	1435.50	0	2.4060	0	34.5020	0	27.548	0	1418.625	0	-1e10	8	-1e10	8	-1E+10	1	-1E+10	1	-1E+10	1	-1E+10	1	-1E+10	1	-1E+10	1
4902554	104	C	12/26/2023	12:58	-133.765	47.546	0	1445.60	0	2.3920	0	34.5050	0	27.551	0	1428.572	0	-1e10	8	-1e10	8	-1E+10	1	-1E+10	1	-1E+10	1	-1E+10	1	-1E+10	1	-1E+10	1
4902554	104	C	12/26/2023	12:58	-133.765	47.546	0	1455.20	0	2.3800	0	34.5070	0	27.554	0	1438.027	0	-1e10	8	-1e10	8	-1E+10	1	-1E+10	1	-1E+10	1	-1E+10	1	-1E+10	1	-1E+10	1
4902554	104	C	12/26/2023	12:58	-133.765	47.546	0	1465.30	0	2.3670	0	34.5090	0	27.557	0	1447.973	0	-1e10	8	-1e10	8	-1E+10	1	-1E+10	1	-1E+10	1	-1E+10	1	-1E+10	1	-1E+10	1
4902554	104	C	12/26/2023	12:58	-133.765	47.546	0	1475.50	0	2.3580	0	34.5110	0	27.559	0	1458.017	0	-1e10	8	-1e10	8	-1E+10	1	-1E+10	1	-1E+10	1	-1E+10	1	-1E+10	1	-1E+10	1
4902554	104	C	12/26/2023	12:58	-133.765	47.546	0	1485.40	0	2.3470	0	34.5130	0	27.562	0	1467.765	0	-1e10	8	-1e10	8	-1E+10	1	-1E+10	1	-1E+10	1	-1E+10	1	-1E+10	1	-1E+10	1
4902554	104	C	12/26/2023	12:58	-133.765	47.546	0	1495.40	0	2.3350	0	34.5150	0	27.564	0	1477.612	0	-1e10	8	-1e10	8	-1E+10	1	-1E+10	1	-1E+10	1	-1E+10	1	-1E+10	1	-1E+10	1
4902554	104	C	12/26/2023	12:58	-133.765	47.546	0	1505.70	0	2.3240	0	34.5160	0	27.566	0	1487.753	0	-1e10	8	-1e10	8	-1E+10	1	-1E+10	1	-1E+10	1	-1E+10	1	-1E+10	1	-1E+10	1
4902554	104	C	12/26/2023	12:58	-133.765	47.546	0	1515.40	0	2.3170	0	34.5180	0	27.568	0	1497.303	0	-1e10	8	-1e10	8	-1E+10	1	-1E+10	1	-1E+10	1	-1E+10	1	-1E+10	1	-1E+10	1
4902554	104	C	12/26/2023	12:58	-133.765	47.546	0	1525.50	0	2.3070	0	34.5200	0	27.571	0	1507.246	0	-1e10	8	-1e10	8	-1E+10	1	-1E+10	1	-1E+10	1	-1E+10	1	-1E+10	1	-1E+10	1
4902554	104	C	12/26/2023	12:58	-133.765	47.546	0	1535.40	0	2.2950	0	34.5220	0	27.573	0	1516.992	0	-1e10	8	-1e10	8	-1E+10	1	-1E+10	1	-1E+10	1	-1E+10	1	-1E+10	1	-1E+10	1
4902554	104	C	12/26/2023	12:58	-133.765	47.546	0	1545.40	0	2.2820	0	34.5240	0	27.576	0	1526.836	0	-1e10	8	-1e10	8	-1E+10	1	-1E+10	1	-1E+10	1	-1E+10	1	-1E+10	1	-1E+10	1
4902554	104	C	12/26/2023	12:58	-133.765	47.546	0	1555.70	0	2.2710	0	34.5260	0	27.579	0	1536.975	0	-1e10	8	-1e10	8	-1E+10	1	-1E+10	1	-1E+10	1	-1E+10	1	-1E+10	1	-1E+10	1
4902554	104	C	12/26/2023	12:58	-133.765	47.546	0	1565.50	0	2.2580	0	34.5280	0	27.581	0	1546.622	0	-1e10	8	-1e10	8	-1E+10	1	-1E+10	1	-1E+10	1	-1E+10	1	-1E+10	1	-1E+10	1
4902554	104	C	12/26/2023	12:58	-133.765	47.546	0	1575.50	0	2.2440	0	34.5300	0	27.584	0	1556.464	0	-1e10	8	-1e10	8	-1E+10	1	-1E+10	1	-1E+10	1	-1E+10	1	-1E+10	1	-1E+10	1
4902554	104	C	12/26/2023	12:58	-133.765	47.546	0	1585.60	0	2.2300	0	34.5330	0	27.588	0	1566.405	0	-1e10	8	-1e10	8	-1E+10	1	-1E+10	1	-1E+10	1	-1E+10	1	-1E+10	1	-1E+10	1
4902554	104	C	12/26/2023	12:58	-133.765	47.546	0	1595.50	0	2.2170	0	34.5340	0	27.590	0	1576.148	0	-1e10	8	-1e10	8	-1E+10	1	-1E+10	1	-1E+10	1	-1E+10	1	-1E+10	1	-1E+10	1
4902554	104	C	12/26/2023	12:58	-133.765	47.546	0	1605.30	0	2.2030	0	34.5370	0	27.593	0	1585.793	0	-1e10	8	-1e10	8	-1E+10	1	-1E+10	1	-1E+10	1	-1E+10	1	-1E+10	1	-1E+10	1
4902554	104	C	12/26/2023	12:58	-133.765	47.546	0	1615.10	0	2.1910	0	34.5390	0	27.596	0	1595.437	0	-1e10	8	-1e10	8	-1E+10	1	-1E+10	1	-1E+10	1	-1E+10	1	-1E+10	1	-1E+10	1
4902554	104	C	12/26/2023	12:58	-133.765	47.546	0	1625.10	0	2.1820	0	34.5410	0	27.598	0	1605.277	0	-1e10	8	-1e10	8	-1E+10	1	-1E+10	1	-1E+10	1	-1E+10	1	-1E+10	1	-1E+10	1
4902554	104	C	12/26/2023	12:58	-133.765	47.546	0	1635.50	0	2.1680	0	34.5430	0	27.601	0	1615.510	0	-1e10	8	-1e10	8	-1E+10	1	-1E+10	1	-1E+10	1	-1E+10	1	-1E+10	1	-1E+10	1
4902554	104	C	12/26/2023	12:58	-133.765	47.546	0	1645.20	0	2.1600	0	34.5450	0	27.603	0	1625.055	0	-1e10	8	-1e10	8	-1E+10	1	-1E+10	1	-1E+10	1	-1E+10	1	-1E+10	1	-1E+10	1
4902554	104	C	12/26/2023	12:58	-133.765	47.546	0	1655.00	0	2.1540	0	34.5460	0	27.605	0	1634.697	0	-1e10	8	-1e10	8	-1E+10	1	-1E+10	1	-1E+10	1	-1E+10	1	-1E+10	1	-1E+10	1
4902554	104	C	12/26/2023	12:58	-133.765	47.546	0	1665.20	0	2.1420	0	34.5480	0	27.607	0	1644.732	0	-1e10	8	-1e10	8	-1E+10	1	-1E+10	1	-1E+10	1	-1E+10	1	-1E+10	1	-1E+10	1
4902554	104	C	12/26/2023	12:58	-133.765	47.546	0	1675.20	0	2.1310	0	34.5500	0	27.610	0	1654.570	0	-1e10	8	-1e10	8	-1E+10	1	-1E+10	1	-1E+10	1	-1E+10	1	-1E+10	1	-1E+10	1
4902554	104	C	12/26/2023	12:58	-133.765	47.546	0	1685.40	0	2.1240	0	34.5510	0	27.611	0	1664.605	0	-1e10	8	-1e10	8	-1E+10	1	-1E+10	1	-1E+10	1	-1E+10	1	-1E+10	1	-1E+10	1
4902554	104	C	12/26/2023	12:58	-133.765	47.546	0	1695.40	0	2.1150	0	34.5530	0	27.613	0	1674.442	0	-1e10	8	-1e10	8	-1E+10	1	-1E+10	1	-1E+10	1	-1E+10	1	-1E+10	1	-1E+10	1
4902554	104	C	12/26/2023	12:58	-133.765	47.546	0	1705.10	0	2.1060	0	34.5540	0	27.615	0	1683.983	0	-1e10	8	-1e10	8	-1E+10	1	-1E+10	1	-1E+10	1	-1E+10	1	-1E+10	1	-1E+10	1
4902554	104	C	12/26/2023	12:58	-133.765	47.546	0	1715.40	0	2.0970	0	34.5560	0	27.617	0	1694.115	0	-1e10	8	-1e10	8	-1E+10	1	-1E+10	1	-1E+10	1	-1E+10	1	-1E+10	1	-1E+10	1
4902554	104	C	12/26/2023	12:58	-133.765	47.546	0	1725.40	0	2.0900	0	34.5570	0	27.619	0	1703.951	0	-1e10	8	-1e10	8	-1E+10	1	-1E+10	1	-1E+10	1	-1E+10	1	-1E+10	1	-1E+10	1
4902554	104	C	12/26/2023	12:58	-133.765	47.546	0	1735.50	0	2.0800	0	34.5590	0	27.621	0	1713.884	0	-1e10	8	-1e10	8	-1E+10	1	-1E+10	1	-1E+10	1	-1E+10	1	-1E+10	1	-1E+10	1
4902554	104	C	12/26/2023	12:58	-133.765	47.546	0	1745.70	0	2.0720	0	34.5610	0	27.623	0	1723.916	0	-1e10	8	-1e10	8	-1E+10	1	-1E+10	1	-1E+10	1	-1E+10	1	-1E+10	1	-1E+10	1
4902554	104	C	12/26/2023	12:58	-133.765	47.546	0	1755.60	0	2.0650	0	34.5620	0	27.625	0	1733.652	0	-1e10	8	-1e10	8	-1E+10	1	-1E+10	1	-1E+10	1	-1E+10	1	-1E+10	1	-1E+10	1
4902554	104	C	12/26/2023	12:58	-133.765	47.546	0	1765.60	0	2.0600	0	34.5630	0	27.626	0	1743.486	0	-1e10	8	-1e10	8	-1E+10	1	-1E+10	1	-1E+10	1	-1E+10	1	-1E+10	1	-1E+10	1
4902554	104	C	12/26/2023	12:58	-133.765	47.546	0	1775.70	0	2.0540	0	34.5640	0	27.627	0	1753.417	0	-1e10	8	-1e10	8	-1E+10	1	-1E+10	1	-1E+10	1	-1E+10	1	-1E+10	1	-1E+10	1
4902554	104	C	12/26/2023	12:58	-133.765	47.546	0	1785.50	0	2.0490	0	34.5650	0	27.629	0	1763.054	0	-1e10	8	-1e10	8	-1E+10	1	-1E+10	1	-1E+10	1	-1E+10	1	-1E+10	1	-1E+10	1
4902554	104	C	12/26/2023	12:58	-133.765	47.546	0	1795.40	0	2.0450	0	34.5660	0	27.630	0	1772.788	0	-1e10	8	-1e10	8	-1E+10	1	-1E+10	1	-1E+10	1	-1E+10	1	-1E+10	1	-1E+10	1
4902554	104	C	12/26/2023	12:58	-133.765	47.546	0	1805.30	0	2.0400	0	34.5670	0	27.631	0	1782.522	0	-1e10	8	-1e10	8	-1E+10	1	-1E+10	1	-1E+10	1	-1E+10	1	-1E+10	1	-1E+10	1
4902554	104	C	12/26/2023	12:58	-133.765	47.546	0	1815.70	0	2.0350	0	34.5680	0	27.632	0	1792.747	0	-1e10	8	-1e10	8	-1E+10	1	-1E+10	1	-1E+10	1	-1E+10	1	-1E+10	1	-1E+10	1
4902554	104	C	12/26/2023	12:58	-133.765	47.546	0	1825.60	0	2.0280	0	34.5690	0	27.634	0	1802.480	0	-1e10	8	-1e10	8	-1E+10	1	-1E+10	1	-1E+10	1	-1E+10	1	-1E+10	1	-1E+10	1
4902554	104	C	12/26/2023	12:58	-133.765	47.546	0	1835.50	0	2.0220	0	34.5700	0	27.635	0	1812.212	0	-1e10	8	-1e10	8	-1E+10	1	-1E+10	1	-1E+10	1	-1E+10	1	-1E+10	1	-1E+10	1
4902554	104	C	12/26/2023	12:58	-133.765	47.546	0	1845.50	0	2.0180	0	34.5710	0	27.636	0	1822.043	0	-1e10	8	-1e10	8	-1E+10	1	-1E+10	1	-1E+10	1	-1E+10	1	-1E+10	1	-1E+10	1
4902554	104	C	12/26/2023	12:58	-133.765	47.546	0	1855.70	0	2.0130	0	34.5720	0	27.638	0	1832.069	0	-1e10	8	-1e10	8	-1E+10	1	-1E+10	1	-1E+10	1	-1E+10	1	-1E+10	1	-1E+10	1
4902554	104	C	12/26/2023	12:58	-133.765	47.546	0	1865.80	0	2.0070	0	34.5730	0	27.639	0	1841.997	0	-1e10	8	-1e10	8	-1E+10	1	-1E+10	1	-1E+10	1	-1E+10	1	-1E+10	1	-1E+10	1
4902554	104	C	12/26/2023	12:58	-133.765	47.546	0	1875.40	0	2.0000	0	34.5750	0	27.641	0	1851.432	0	-1e10	8	-1e10	8	-1E+10	1	-1E+10	1	-1E+10	1	-1E+10	1	-1E+10	1	-1E+10	1
4902554	104	C	12/26/2023	12:58	-133.765	47.546	0	1885.10	0	1.9940	0	34.5760	0	27.642	0	1860.966	0	-1e10	8	-1e10	8	-1E+10	1	-1E+10	1	-1E+10	1	-1E+10	1	-1E+10	1	-1E+10	1
4902554	104	C	12/26/2023	12:58	-133.765	47.546	0	1895.20	0	1.9850	0	34.5780	0	27.645	0	1870.892	0	-1e10	8	-1e10	8	-1E+10	1	-1E+10	1	-1E+10	1	-1E+10	1	-1E+10	1	-1E+10	1
4902554	104	C	12/26/2023	12:58	-133.765	47.546	0	1905.40	0	1.9760	0	34.5790	0	27.646	0	1880.916	0	-1e10	8	-1e10	8	-1E+10	1	-1E+10	1	-1E+10	1	-1E+10	1	-1E+10	1	-1E+10	1
4902554	104	C	12/26/2023	12:58	-133.765	47.546	0	1915.60	0	1.9720	0	34.5800	0	27.647	0	1890.940	0	-1e10	8	-1e10	8	-1E+10	1	-1E+10	1	-1E+10	1	-1E+10	1	-1E+10	1	-1E+10	1
4902554	104	C	12/26/2023	12:58	-133.765	47.546	0	1925.50	0	1.9650	0	34.5820	0	27.650	0	1900.668	0	-1e10	8	-1e10	8	-1E+10	1	-1E+10	1	-1E+10	1	-1E+10	1	-1E+10	1	-1E+10	1
4902554	104	C	12/26/2023	12:58	-133.765	47.546	0	1935.50	0	1.9600	0	34.5830	0	27.651	0	1910.495	0	-1e10	8	-1e10	8	-1E+10	1	-1E+10	1	-1E+10	1	-1E+10	1	-1E+10	1	-1E+10	1
4902554	104	C	12/26/2023	12:58	-133.765	47.546	0	1945.70	0	1.9530	0	34.5840	0	27.652	0	1920.517	0	-1e10	8	-1e10	8	-1E+10	1	-1E+10	1	-1E+10	1	-1E+10	1	-1E+10	1	-1E+10	1
4902554	104	C	12/26/2023	12:58	-133.765	47.546	0	1955.70	0	1.9440	0	34.5860	0	27.655	0	1930.342	0	-1e10	8	-1e10	8	-1E+10	1	-1E+10	1	-1E+10	1	-1E+10	1	-1E+10	1	-1E+10	1
4902554	104	C	12/26/2023	12:58	-133.765	47.546	0	1966.10	0	1.9380	0	34.5870	0	27.656	0	1940.560	0	-1e10	8	-1e10	8	-1E+10	1	-1E+10	1	-1E+10	1	-1E+10	1	-1E+10	1	-1E+10	1
4902554	104	C	12/26/2023	12:58	-133.765	47.546	0	1972.80	0	1.9360	0	34.5880	0	27.657	0	1947.142	0	-1e10	8	-1e10	8	-1E+10	1	-1E+10	1	-1E+10	1	-1E+10	1	-1E+10	1	-1E+10	1
4902554	104	C	12/26/2023	12:58	-133.765	47.546	0																										
4902554	105	C	01/05/2024	17:57	-133.819	47.598	0	0.30	0	8.8480	0	32.3300	0	25.052	0	0.297	0	-1e10	8	-1e10	8	-1E+10	1	-1E+10	1	-1E+10	1	-1E+10	1	-1E+10	1	-1E+10	1
4902554	105	C	01/05/2024	17:57	-133.819	47.598	0	1.00	0	8.8510	0	32.3270	0	25.049	0	0.992	0	-1e10	8	-1e10	8	-1E+10	1	-1E+10	1	-1E+10	1	-1E+10	1	-1E+10	1	-1E+10	1
4902554	105	C	01/05/2024	17:57	-133.819	47.598	0	1.90	0	8.8520	0	32.3280	0	25.050	0	1.884	0	-1e10	8	-1e10	8	-1E+10	1	-1E+10	1	-1E+10	1	-1E+10	1	-1E+10	1	-1E+10	1
4902554	105	C	01/05/2024	17:57	-133.819	47.598	0	2.90	0	8.8520	0	32.3280	0	25.050	0	2.876	0	-1e10	8	-1e10	8	-1E+10	1	-1E+10	1	-1E+10	1	-1E+10	1	-1E+10	1	-1E+10	1
4902554	105	C	01/05/2024	17:57	-133.819	47.598	0	4.10	0	8.8540	0	32.3280	0	25.049	0	4.066	0	-1e10	8	-1e10	8	-1E+10	1	-1E+10	1	-1E+10	1	-1E+10	1	-1E+10	1	-1E+10	1
4902554	105	C	01/05/2024	17:57	-133.819	47.598	0	5.10	0	8.8540	0	32.3280	0	25.049	0	5.057	0	-1e10	8	-1e10	8	-1E+10	1	-1E+10	1	-1E+10	1	-1E+10	1	-1E+10	1	-1E+10	1
4902554	105	C	01/05/2024	17:57	-133.819	47.598	0	6.10	0	8.8540	0	32.3280	0	25.049	0	6.049	0	-1e10	8	-1e10	8	-1E+10	1	-1E+10	1	-1E+10	1	-1E+10	1	-1E+10	1	-1E+10	1
4902554	105	C	01/05/2024	17:57	-133.819	47.598	0	6.90	0	8.8550	0	32.3280	0	25.049	0	6.842	0	-1e10	8	-1e10	8	-1E+10	1	-1E+10	1	-1E+10	1	-1E+10	1	-1E+10	1	-1E+10	1
4902554	105	C	01/05/2024	17:57	-133.819	47.598	0	7.80	0	8.8540	0	32.3280	0	25.049	0	7.735	0	-1e10	8	-1e10	8	-1E+10	1	-1E+10	1	-1E+10	1	-1E+10	1	-1E+10	1	-1E+10	1
4902554	105	C	01/05/2024	17:57	-133.819	47.598	0	8.80	0	8.8540	0	32.3280	0	25.049	0	8.726	0	-1e10	8	-1e10	8	-1E+10	1	-1E+10	1	-1E+10	1	-1E+10	1	-1E+10	1	-1E+10	1
4902554	105	C	01/05/2024	17:57	-133.819	47.598	0	10.00	0	8.8540	0	32.3280	0	25.049	0	9.916	0	-1e10	8	-1e10	8	-1E+10	1	-1E+10	1	-1E+10	1	-1E+10	1	-1E+10	1	-1E+10	1
4902554	105	C	01/05/2024	17:57	-133.819	47.598	0	11.40	0	8.8540	0	32.3280	0	25.049	0	11.304	0	-1e10	8	-1e10	8	-1E+10	1	-1E+10	1	-1E+10	1	-1E+10	1	-1E+10	1	-1E+10	1
4902554	105	C	01/05/2024	17:57	-133.819	47.598	0	12.00	0	8.8540	0	32.3280	0	25.049	0	11.899	0	-1e10	8	-1e10	8	-1E+10	1	-1E+10	1	-1E+10	1	-1E+10	1	-1E+10	1	-1E+10	1
4902554	105	C	01/05/2024	17:57	-133.819	47.598	0	12.90	0	8.8550	0	32.3290	0	25.050	0	12.792	0	-1e10	8	-1e10	8	-1E+10	1	-1E+10	1	-1E+10	1	-1E+10	1	-1E+10	1	-1E+10	1
4902554	105	C	01/05/2024	17:57	-133.819	47.598	0	13.80	0	8.8540	0	32.3280	0	25.049	0	13.684	0	-1e10	8	-1e10	8	-1E+10	1	-1E+10	1	-1E+10	1	-1E+10	1	-1E+10	1	-1E+10	1
4902554	105	C	01/05/2024	17:57	-133.819	47.598	0	14.80	0	8.8540	0	32.3280	0	25.049	0	14.676	0	-1e10	8	-1e10	8	-1E+10	1	-1E+10	1	-1E+10	1	-1E+10	1	-1E+10	1	-1E+10	1
4902554	105	C	01/05/2024	17:57	-133.819	47.598	0	15.90	0	8.8550	0	32.3280	0	25.049	0	15.767	0	-1e10	8	-1e10	8	-1E+10	1	-1E+10	1	-1E+10	1	-1E+10	1	-1E+10	1	-1E+10	1
4902554	105	C	01/05/2024	17:57	-133.819	47.598	0	16.90	0	8.8550	0	32.3280	0	25.049	0	16.758	0	-1e10	8	-1e10	8	-1E+10	1	-1E+10	1	-1E+10	1	-1E+10	1	-1E+10	1	-1E+10	1
4902554	105	C	01/05/2024	17:57	-133.819	47.598	0	17.80	0	8.8540	0	32.3270	0	25.049	0	17.651	0	-1e10	8	-1e10	8	-1E+10	1	-1E+10	1	-1E+10	1	-1E+10	1	-1E+10	1	-1E+10	1
4902554	105	C	01/05/2024	17:57	-133.819	47.598	0	19.10	0	8.8530	0	32.3270	0	25.049	0	18.940	0	-1e10	8	-1e10	8	-1E+10	1	-1E+10	1	-1E+10	1	-1E+10	1	-1E+10	1	-1E+10	1
4902554	105	C	01/05/2024	17:57	-133.819	47.598	0	20.00	0	8.8520	0	32.3280	0	25.050	0	19.832	0	-1e10	8	-1e10	8	-1E+10	1	-1E+10	1	-1E+10	1	-1E+10	1	-1E+10	1	-1E+10	1
4902554	105	C	01/05/2024	17:57	-133.819	47.598	0	21.00	0	8.8520	0	32.3270	0	25.049	0	20.823	0	-1e10	8	-1e10	8	-1E+10	1	-1E+10	1	-1E+10	1	-1E+10	1	-1E+10	1	-1E+10	1
4902554	105	C	01/05/2024	17:57	-133.819	47.598	0	22.10	0	8.8530	0	32.3280	0	25.050	0	21.914	0	-1e10	8	-1e10	8	-1E+10	1	-1E+10	1	-1E+10	1	-1E+10	1	-1E+10	1	-1E+10	1
4902554	105	C	01/05/2024	17:57	-133.819	47.598	0	23.00	0	8.8530	0	32.3280	0	25.050	0	22.807	0	-1e10	8	-1e10	8	-1E+10	1	-1E+10	1	-1E+10	1	-1E+10	1	-1E+10	1	-1E+10	1
4902554	105	C	01/05/2024	17:57	-133.819	47.598	0	24.00	0	8.8550	0	32.3280	0	25.049	0	23.798	0	-1e10	8	-1e10	8	-1E+10	1	-1E+10	1	-1E+10	1	-1E+10	1	-1E+10	1	-1E+10	1
4902554	105	C	01/05/2024	17:57	-133.819	47.598	0	24.90	0	8.8530	0	32.3280	0	25.050	0	24.690	0	-1e10	8	-1e10	8	-1E+10	1	-1E+10	1	-1E+10	1	-1E+10	1	-1E+10	1	-1E+10	1
4902554	105	C	01/05/2024	17:57	-133.819	47.598	0	26.10	0	8.8520	0	32.3270	0	25.049	0	25.880	0	-1e10	8	-1e10	8	-1E+10	1	-1E+10	1	-1E+10	1	-1E+10	1	-1E+10	1	-1E+10	1
4902554	105	C	01/05/2024	17:57	-133.819	47.598	0	27.10	0	8.8530	0	32.3270	0	25.049	0	26.872	0	-1e10	8	-1e10	8	-1E+10	1	-1E+10	1	-1E+10	1	-1E+10	1	-1E+10	1	-1E+10	1
4902554	105	C	01/05/2024	17:57	-133.819	47.598	0	27.90	0	8.8520	0	32.3280	0	25.050	0	27.665	0	-1e10	8	-1e10	8	-1E+10	1	-1E+10	1	-1E+10	1	-1E+10	1	-1E+10	1	-1E+10	1
4902554	105	C	01/05/2024	17:57	-133.819	47.598	0	29.00	0	8.8520	0	32.3280	0	25.050	0	28.756	0	-1e10	8	-1e10	8	-1E+10	1	-1E+10	1	-1E+10	1	-1E+10	1	-1E+10	1	-1E+10	1
4902554	105	C	01/05/2024	17:57	-133.819	47.598	0	30.10	0	8.8530	0	32.3270	0	25.049	0	29.846	0	-1e10	8	-1e10	8	-1E+10	1	-1E+10	1	-1E+10	1	-1E+10	1	-1E+10	1	-1E+10	1
4902554	105	C	01/05/2024	17:57	-133.819	47.598	0	31.40	0	8.8520	0	32.3280	0	25.050	0	31.135	0	-1e10	8	-1e10	8	-1E+10	1	-1E+10	1	-1E+10	1	-1E+10	1	-1E+10	1	-1E+10	1
4902554	105	C	01/05/2024	17:57	-133.819	47.598	0	32.10	0	8.8530	0	32.3280	0	25.050	0	31.829	0	-1e10	8	-1e10	8	-1E+10	1	-1E+10	1	-1E+10	1	-1E+10	1	-1E+10	1	-1E+10	1
4902554	105	C	01/05/2024	17:57	-133.819	47.598	0	33.10	0	8.8540	0	32.3280	0	25.050	0	32.821	0	-1e10	8	-1e10	8	-1E+10	1	-1E+10	1	-1E+10	1	-1E+10	1	-1E+10	1	-1E+10	1
4902554	105	C	01/05/2024	17:57	-133.819	47.598	0	34.10	0	8.8540	0	32.3280	0	25.050	0	33.812	0	-1e10	8	-1e10	8	-1E+10	1	-1E+10	1	-1E+10	1	-1E+10	1	-1E+10	1	-1E+10	1
4902554	105	C	01/05/2024	17:57	-133.819	47.598	0	35.10	0	8.8540	0	32.3260	0	25.048	0	34.804	0	-1e10	8	-1e10	8	-1E+10	1	-1E+10	1	-1E+10	1	-1E+10	1	-1E+10	1	-1E+10	1
4902554	105	C	01/05/2024	17:57	-133.819	47.598	0	36.00	0	8.8540	0	32.3280	0	25.050	0	35.696	0	-1e10	8	-1e10	8	-1E+10	1	-1E+10	1	-1E+10	1	-1E+10	1	-1E+10	1	-1E+10	1
4902554	105	C	01/05/2024	17:57	-133.819	47.598	0	37.10	0	8.8550	0	32.3280	0	25.050	0	36.787	0	-1e10	8	-1e10	8	-1E+10	1	-1E+10	1	-1E+10	1	-1E+10	1	-1E+10	1	-1E+10	1
4902554	105	C	01/05/2024	17:57	-133.819	47.598	0	38.30	0	8.8560	0	32.3290	0	25.050	0	37.976	0	-1e10	8	-1e10	8	-1E+10	1	-1E+10	1	-1E+10	1	-1E+10	1	-1E+10	1	-1E+10	1
4902554	105	C	01/05/2024	17:57	-133.819	47.598	0	39.10	0	8.8560	0	32.3280	0	25.050	0	38.770	0	-1e10	8	-1e10	8	-1E+10	1	-1E+10	1	-1E+10	1	-1E+10	1	-1E+10	1	-1E+10	1
4902554	105	C	01/05/2024	17:57	-133.819	47.598	0	40.10	0	8.8550	0	32.3280	0	25.050	0	39.761	0	-1e10	8	-1e10	8	-1E+10	1	-1E+10	1	-1E+10	1	-1E+10	1	-1E+10	1	-1E+10	1
4902554	105	C	01/05/2024	17:57	-133.819	47.598	0	41.10	0	8.8550	0	32.3280	0	25.050	0	40.753	0	-1e10	8	-1e10	8	-1E+10	1	-1E+10	1	-1E+10	1	-1E+10	1	-1E+10	1	-1E+10	1
4902554	105	C	01/05/2024	17:57	-133.819	47.598	0	42.10	0	8.8560	0	32.3280	0	25.050	0	41.744	0	-1e10	8	-1e10	8	-1E+10	1	-1E+10	1	-1E+10	1	-1E+10	1	-1E+10	1	-1E+10	1
4902554	105	C	01/05/2024	17:57	-133.819	47.598	0	43.10	0	8.8560	0	32.3280	0	25.050	0	42.735	0	-1e10	8	-1e10	8	-1E+10	1	-1E+10	1	-1E+10	1	-1E+10	1	-1E+10	1	-1E+10	1
4902554	105	C	01/05/2024	17:57	-133.819	47.598	0	44.10	0	8.8560	0	32.3270	0	25.049	0	43.727	0	-1e10	8	-1e10	8	-1E+10	1	-1E+10	1	-1E+10	1	-1E+10	1	-1E+10	1	-1E+10	1
4902554	105	C	01/05/2024	17:57	-133.819	47.598	0	45.10	0	8.8560	0	32.3280	0	25.050	0	44.718	0	-1e10	8	-1e10	8	-1E+10	1	-1E+10	1	-1E+10	1	-1E+10	1	-1E+10	1	-1E+10	1
4902554	105	C	01/05/2024	17:57	-133.819	47.598	0	46.40	0	8.8560	0	32.3280	0	25.050	0	46.007	0	-1e10	8	-1e10	8	-1E+10	1	-1E+10	1	-1E+10	1	-1E+10	1	-1E+10	1	-1E+10	1
4902554	105	C	01/05/2024	17:57	-133.819	47.598	0	47.10	0	8.8560	0	32.3280	0	25.050	0	46.701	0	-1e10	8	-1e10	8	-1E+10	1	-1E+10	1	-1E+10	1	-1E+10	1	-1E+10	1	-1E+10	1
4902554	105	C	01/05/2024	17:57	-133.819	47.598	0	47.90	0	8.8570	0	32.3290	0	25.050	0	47.494	0	-1e10	8	-1e10	8	-1E+10	1	-1E+10	1	-1E+10	1	-1E+10	1	-1E+10	1	-1E+10	1
4902554	105	C	01/05/2024	17:57	-133.819	47.598	0	48.80	0	8.8570	0	32.3290	0	25.050	0	48.387	0	-1e10	8	-1e10	8	-1E+10	1	-1E+10	1	-1E+10	1	-1E+10	1	-1E+10	1	-1E+10	1
4902554	105	C	01/05/2024	17:57	-133.819	47.598	0	49.90	0	8.8570	0	32.3280	0	25.050	0	49.477	0	-1e10	8	-1e10	8	-1E+10	1	-1E+10	1	-1E+10	1	-1E+10	1	-1E+10	1	-1E+10	1
4902554	105	C	01/05/2024	17:57	-133.819	47.598	0	51.20	0	8.8520	0	32.3300	0	25.052	0	50.766	0	-1e10	8	-1e10	8	-1E+10	1	-1E+10	1	-1E+10	1	-1E+10	1	-1E+10	1	-1E+10	1
4902554	105	C	01/05/2024	17:57	-133.819	47.598	0	52.00	0	8.8540	0	32.3290	0	25.051	0	51.559	0	-1e10	8	-1e10	8	-1E+10	1	-1E+10	1	-1E+10	1	-1E+10	1	-1E+10	1	-1E+10	1
4902554	105	C	01/05/2024	17:57	-133.819	47.598	0	52.90	0	8.8560	0	32.3290	0	25.051	0	52.451	0	-1e10	8	-1e10	8	-1E+10	1	-1E+10	1	-1E+10	1	-1E+10	1	-1E+10	1	-1E+10	1
4902554	105	C	01/05/2024	17:57	-133.819	47.598	0	53.70	0	8.8510	0	32.3280	0	25.051	0	53.244	0	-1e10	8	-1e10	8	-1E+10	1	-1E+10	1	-1E+10	1	-1E+10	1	-1E+10	1	-1E+10	1
4902554	105	C	01/05/2024	17:57	-133.819	47.598	0	54.90	0	8.8510	0	32.3270	0	25.050	0	54.434	0	-1e10	8	-1e10	8	-1E+10	1	-1E+10	1	-1E+10	1	-1E+10	1	-1E+10	1	-1E+10	1
4902554	105	C	01/05/2024	17:57	-133.819	47.598	0	55.90	0	8.8450	0	32.3290	0	25.052	0	55.425	0	-1e10	8	-1e10	8	-1E+10	1	-1E+10	1	-1E+10	1	-1E+10	1	-1E+10	1	-1E+10	1
4902554	105	C	01/05/2024	17:57	-133.819	47.598	0	56.90	0	8.8460	0	32.3270	0	25.051	0	56.417	0	-1e10	8	-1e10	8	-1E+10	1	-1E+10	1	-1E+10	1	-1E+10	1	-1E+10	1	-1E+10	1
4902554	105	C	01/05/2024	17:57	-133.819	47.598	0	58.00	0	8.8450	0	32.3280	0	25.052	0	57.507	0	-1e10	8	-1e10	8	-1E+10	1	-1E+10	1	-1E+10	1	-1E+10	1	-1E+10	1	-1E+10	1
4902554	105	C	01/05/2024	17:57	-133.819	47.598	0	59.00	0	8.8410	0	32.3270	0	25.051	0	58.499	0	-1e10	8	-1e10	8	-1E+10	1	-1E+10	1	-1E+10	1	-1E+10	1	-1E+10	1	-1E+10	1
4902554	105	C	01/05/2024	17:57	-133.819	47.598	0	60.00	0	8.8390	0	32.3280	0	25.052	0	59.490	0	-1e10	8	-1e10	8	-1E+10	1	-1E+10	1	-1E+10	1	-1E+10	1	-1E+10	1	-1E+10	1
4902554	105	C	01/05/2024	17:57	-133.819	47.598	0	61.00	0	8.8400	0	32.3270	0	25.052	0	60.481	0	-1e10	8	-1e10	8	-1E+10	1	-1E+10	1	-1E+10	1	-1E+10	1	-1E+10	1	-1E+10	1
4902554	105	C	01/05/2024	17:57	-133.819	47.598	0	62.10	0	8.8450	0	32.3280	0	25.052	0	61.572	0	-1e10	8	-1e10	8	-1E+10	1	-1E+10	1	-1E+10	1	-1E+10	1	-1E+10	1	-1E+10	1
4902554	105	C	01/05/2024	17:57	-133.819	47.598	0	63.00	0	8.8480	0	32.3280	0	25.051	0	62.464	0	-1e10	8	-1e10	8	-1E+10	1	-1E+10	1	-1E+10	1	-1E+10	1	-1E+10	1	-1E+10	1
4902554	105	C	01/05/2024	17:57	-133.819	47.598	0	64.00	0	8.8480	0	32.3270	0	25.050	0	63.455	0	-1e10	8	-1e10	8	-1E+10	1	-1E+10	1	-1E+10	1	-1E+10	1	-1E+10	1	-1E+10	1
4902554	105	C	01/05/2024	17:57	-133.819	47.598	0	65.00	0	8.8490	0	32.3280	0	25.051	0	64.447	0	-1e10	8	-1e10	8	-1E+10	1	-1E+10	1	-1E+10	1	-1E+10	1	-1E+10	1	-1E+10	1
4902554	105	C	01/05/2024	17:57	-133.819	47.598	0	66.00	0	8.8480	0	32.3280	0	25.051	0	65.438	0	-1e10	8	-1e10	8	-1E+10	1	-1E+10	1	-1E+10	1	-1E+10	1	-1E+10	1	-1E+10	1
4902554	105	C	01/05/2024	17:57	-133.819	47.598	0	67.00	0	8.8490	0	32.3280	0	25.051	0	66.429	0	-1e10	8	-1e10	8	-1E+10	1	-1E+10	1	-1E+10	1	-1E+10	1	-1E+10	1	-1E+10	1
4902554	105	C	01/05/2024	17:57	-133.819	47.598	0	68.00	0	8.8530	0	32.3270	0	25.050	0	67.421	0	-1e10	8	-1e10	8	-1E+10	1	-1E+10	1	-1E+10	1	-1E+10	1	-1E+10	1	-1E+10	1
4902554	105	C	01/05/2024	17:57	-133.819	47.598	0	68.90	0	8.8520	0	32.3270	0	25.050	0	68.313	0	-1e10	8	-1e10	8	-1E+10	1	-1E+10	1	-1E+10	1	-1E+10	1	-1E+10	1	-1E+10	1
4902554	105	C	01/05/2024	17:57	-133.819	47.598	0	70.10	0	8.8490	0	32.3280	0	25.051	0	69.503	0	-1e10	8	-1e10	8	-1E+10	1	-1E+10	1	-1E+10	1	-1E+10	1	-1E+10	1	-1E+10	1
4902554	105	C	01/05/2024	17:57	-133.819	47.598	0	71.10	0	8.8480	0	32.3280	0	25.051	0	70.494	0	-1e10	8	-1e10	8	-1E+10	1	-1E+10	1	-1E+10	1	-1E+10	1	-1E+10	1	-1E+10	1
4902554	105	C	01/05/2024	17:57	-133.819	47.598	0	71.90	0	8.8500	0	32.3270	0	25.050	0	71.287	0	-1e10	8	-1e10	8	-1E+10	1	-1E+10	1	-1E+10	1	-1E+10	1	-1E+10	1	-1E+10	1
4902554	105	C	01/05/2024	17:57	-133.819	47.598	0	73.10	0	8.8500	0	32.3270	0	25.050	0	72.476	0	-1e10	8	-1e10	8	-1E+10	1	-1E+10	1	-1E+10	1	-1E+10	1	-1E+10	1	-1E+10	1
4902554	105	C	01/05/2024	17:57	-133.819	47.598	0	74.10	0	8.8510	0	32.3270	0	25.050	0	73.468	0	-1e10	8	-1e10	8	-1E+10	1	-1E+10	1	-1E+10	1	-1E+10	1	-1E+10	1	-1E+10	1
4902554	105	C	01/05/2024	17:57	-133.819	47.598	0	75.00	0	8.8410	0	32.3280	0	25.052	0	74.360	0	-1e10	8	-1e10	8	-1E+10	1	-1E+10	1	-1E+10	1	-1E+10	1	-1E+10	1	-1E+10	1
4902554	105	C	01/05/2024	17:57	-133.819	47.598	0	75.90	0	8.8400	0	32.3270	0	25.052	0	75.252	0	-1e10	8	-1e10	8	-1E+10	1	-1E+10	1	-1E+10	1	-1E+10	1	-1E+10	1	-1E+10	1
4902554	105	C	01/05/2024	17:57	-133.819	47.598	0	76.80	0	8.8360	0	32.3300	0	25.055	0	76.144	0	-1e10	8	-1e10	8	-1E+10	1	-1E+10	1	-1E+10	1	-1E+10	1	-1E+10	1	-1E+10	1
4902554	105	C	01/05/2024	17:57	-133.819	47.598	0	77.90	0	8.8340	0	32.3320	0	25.057	0	77.235	0	-1e10	8	-1e10	8	-1E+10	1	-1E+10	1	-1E+10	1	-1E+10	1	-1E+10	1	-1E+10	1
4902554	105	C	01/05/2024	17:57	-133.819	47.598	0	79.10	0	8.8300	0	32.3330	0	25.058	0	78.424	0	-1e10	8	-1e10	8	-1E+10	1	-1E+10	1	-1E+10	1	-1E+10	1	-1E+10	1	-1E+10	1
4902554	105	C	01/05/2024	17:57	-133.819	47.598	0	80.00	0	8.8210	0	32.3380	0	25.063	0	79.316	0	-1e10	8	-1e10	8	-1E+10	1	-1E+10	1	-1E+10	1	-1E+10	1	-1E+10	1	-1E+10	1
4902554	105	C	01/05/2024	17:57	-133.819	47.598	0	80.80	0	8.8210	0	32.3360	0	25.062	0	80.109	0	-1e10	8	-1e10	8	-1E+10	1	-1E+10	1	-1E+10	1	-1E+10	1	-1E+10	1	-1E+10	1
4902554	105	C	01/05/2024	17:57	-133.819	47.598	0	81.80	0	8.8210	0	32.3360	0	25.062	0	81.100	0	-1e10	8	-1e10	8	-1E+10	1	-1E+10	1	-1E+10	1	-1E+10	1	-1E+10	1	-1E+10	1
4902554	105	C	01/05/2024	17:57	-133.819	47.598	0	82.90	0	8.8170	0	32.3370	0	25.063	0	82.191	0	-1e10	8	-1e10	8	-1E+10	1	-1E+10	1	-1E+10	1	-1E+10	1	-1E+10	1	-1E+10	1
4902554	105	C	01/05/2024	17:57	-133.819	47.598	0	83.90	0	8.8060	0	32.3410	0	25.068	0	83.182	0	-1e10	8	-1e10	8	-1E+10	1	-1E+10	1	-1E+10	1	-1E+10	1	-1E+10	1	-1E+10	1
4902554	105	C	01/05/2024	17:57	-133.819	47.598	0	84.90	0	8.8030	0	32.3400	0	25.068	0	84.173	0	-1e10	8	-1e10	8	-1E+10	1	-1E+10	1	-1E+10	1	-1E+10	1	-1E+10	1	-1E+10	1
4902554	105	C	01/05/2024	17:57	-133.819	47.598	0	85.90	0	8.7850	0	32.3440	0	25.074	0	85.165	0	-1e10	8	-1e10	8	-1E+10	1	-1E+10	1	-1E+10	1	-1E+10	1	-1E+10	1	-1E+10	1
4902554	105	C	01/05/2024	17:57	-133.819	47.598	0	87.00	0	8.7660	0	32.3470	0	25.079	0	86.255	0	-1e10	8	-1e10	8	-1E+10	1	-1E+10	1	-1E+10	1	-1E+10	1	-1E+10	1	-1E+10	1
4902554	105	C	01/05/2024	17:57	-133.819	47.598	0	88.00	0	8.7340	0	32.3500	0	25.086	0	87.246	0	-1e10	8	-1e10	8	-1E+10	1	-1E+10	1	-1E+10	1	-1E+10	1	-1E+10	1	-1E+10	1
4902554	105	C	01/05/2024	17:57	-133.819	47.598	0	89.10	0	8.6900	0	32.3550	0	25.097	0	88.337	0	-1e10	8	-1e10	8	-1E+10	1	-1E+10	1	-1E+10	1	-1E+10	1	-1E+10	1	-1E+10	1
4902554	105	C	01/05/2024	17:57	-133.819	47.598	0	89.90	0	8.6320	0	32.3690	0	25.116	0	89.129	0	-1e10	8	-1e10	8	-1E+10	1	-1E+10	1	-1E+10	1	-1E+10	1	-1E+10	1	-1E+10	1
4902554	105	C	01/05/2024	17:57	-133.819	47.598	0	90.80	0	8.5810	0	32.3690	0	25.124	0	90.022	0	-1e10	8	-1e10	8	-1E+10	1	-1E+10	1	-1E+10	1	-1E+10	1	-1E+10	1	-1E+10	1
4902554	105	C	01/05/2024	17:57	-133.819	47.598	0	91.90	0	8.4490	0	32.3890	0	25.160	0	91.112	0	-1e10	8	-1e10	8	-1E+10	1	-1E+10	1	-1E+10	1	-1E+10	1	-1E+10	1	-1E+10	1
4902554	105	C	01/05/2024	17:57	-133.819	47.598	0	93.20	0	8.2860	0	32.4140	0	25.203	0	92.400	0	-1e10	8	-1e10	8	-1E+10	1	-1E+10	1	-1E+10	1	-1E+10	1	-1E+10	1	-1E+10	1
4902554	105	C	01/05/2024	17:57	-133.819	47.598	0	94.10	0	8.2480	0	32.4230	0	25.216	0	93.293	0	-1e10	8	-1e10	8	-1E+10	1	-1E+10	1	-1E+10	1	-1E+10	1	-1E+10	1	-1E+10	1
4902554	105	C	01/05/2024	17:57	-133.819	47.598	0	94.90	0	8.2060	0	32.4280	0	25.226	0	94.085	0	-1e10	8	-1e10	8	-1E+10	1	-1E+10	1	-1E+10	1	-1E+10	1	-1E+10	1	-1E+10	1
4902554	105	C	01/05/2024	17:57	-133.819	47.598	0	96.10	0	8.1130	0	32.4420	0	25.251	0	95.275	0	-1e10	8	-1e10	8	-1E+10	1	-1E+10	1	-1E+10	1	-1E+10	1	-1E+10	1	-1E+10	1
4902554	105	C	01/05/2024	17:57	-133.819	47.598	0	97.00	0	7.9780	0	32.4660	0	25.289	0	96.167	0	-1e10	8	-1e10	8	-1E+10	1	-1E+10	1	-1E+10	1	-1E+10	1	-1E+10	1	-1E+10	1
4902554	105	C	01/05/2024	17:57	-133.819	47.598	0	98.00	0	7.8410	0	32.4890	0	25.327	0	97.158	0	-1e10	8	-1e10	8	-1E+10	1	-1E+10	1	-1E+10	1	-1E+10	1	-1E+10	1	-1E+10	1
4902554	105	C	01/05/2024	17:57	-133.819	47.598	0	99.00	0	7.7340	0	32.5090	0	25.358	0	98.149	0	-1e10	8	-1e10	8	-1E+10	1	-1E+10	1	-1E+10	1	-1E+10	1	-1E+10	1	-1E+10	1
4902554	105	C	01/05/2024	17:57	-133.819	47.598	0	100.00	0	7.6740	0	32.5200	0	25.375	0	99.140	0	-1e10	8	-1e10	8	-1E+10	1	-1E+10	1	-1E+10	1	-1E+10	1	-1E+10	1	-1E+10	1
4902554	105	C	01/05/2024	17:57	-133.819	47.598	0	101.10	0	7.6070	0	32.5320	0	25.394	0	100.231	0	-1e10	8	-1e10	8	-1E+10	1	-1E+10	1	-1E+10	1	-1E+10	1	-1E+10	1	-1E+10	1
4902554	105	C	01/05/2024	17:57	-133.819	47.598	0	102.00	0	7.4960	0	32.5520	0	25.425	0	101.123	0	-1e10	8	-1e10	8	-1E+10	1	-1E+10	1	-1E+10	1	-1E+10	1	-1E+10	1	-1E+10	1
4902554	105	C	01/05/2024	17:57	-133.819	47.598	0	102.90	0	7.4090	0	32.5800	0	25.459	0	102.015	0	-1e10	8	-1e10	8	-1E+10	1	-1E+10	1	-1E+10	1	-1E+10	1	-1E+10	1	-1E+10	1
4902554	105	C	01/05/2024	17:57	-133.819	47.598	0	104.00	0	7.3610	0	32.5880	0	25.472	0	103.105	0	-1e10	8	-1e10	8	-1E+10	1	-1E+10	1	-1E+10	1	-1E+10	1	-1E+10	1	-1E+10	1
4902554	105	C	01/05/2024	17:57	-133.819	47.598	0	105.00	0	7.2880	0	32.6100	0	25.499	0	104.096	0	-1e10	8	-1e10	8	-1E+10	1	-1E+10	1	-1E+10	1	-1E+10	1	-1E+10	1	-1E+10	1
4902554	105	C	01/05/2024	17:57	-133.819	47.598	0	106.00	0	7.2020	0	32.6310	0	25.527	0	105.087	0	-1e10	8	-1e10	8	-1E+10	1	-1E+10	1	-1E+10	1	-1E+10	1	-1E+10	1	-1E+10	1
4902554	105	C	01/05/2024	17:57	-133.819	47.598	0	107.00	0	7.1450	0	32.6470	0	25.548	0	106.079	0	-1e10	8	-1e10	8	-1E+10	1	-1E+10	1	-1E+10	1	-1E+10	1	-1E+10	1	-1E+10	1
4902554	105	C	01/05/2024	17:57	-133.819	47.598	0	108.10	0	7.0840	0	32.6650	0	25.570	0	107.169	0	-1e10	8	-1e10	8	-1E+10	1	-1E+10	1	-1E+10	1	-1E+10	1	-1E+10	1	-1E+10	1
4902554	105	C	01/05/2024	17:57	-133.819	47.598	0	109.00	0	7.0270	0	32.6830	0	25.592	0	108.061	0	-1e10	8	-1e10	8	-1E+10	1	-1E+10	1	-1E+10	1	-1E+10	1	-1E+10	1	-1E+10	1
4902554	105	C	01/05/2024	17:57	-133.819	47.598	0	109.70	0	7.0040	0	32.6900	0	25.600	0	108.755	0	-1e10	8	-1e10	8	-1E+10	1	-1E+10	1	-1E+10	1	-1E+10	1	-1E+10	1	-1E+10	1
4902554	105	C	01/05/2024	17:57	-133.819	47.598	0	110.70	0	6.9590	0	32.7050	0	25.618	0	109.746	0	-1e10	8	-1e10	8	-1E+10	1	-1E+10	1	-1E+10	1	-1E+10	1	-1E+10	1	-1E+10	1
4902554	105	C	01/05/2024	17:57	-133.819	47.598	0	112.00	0	6.9150	0	32.7170	0	25.634	0	111.034	0	-1e10	8	-1e10	8	-1E+10	1	-1E+10	1	-1E+10	1	-1E+10	1	-1E+10	1	-1E+10	1
4902554	105	C	01/05/2024	17:57	-133.819	47.598	0	112.90	0	6.8650	0	32.7350	0	25.654	0	111.926	0	-1e10	8	-1e10	8	-1E+10	1	-1E+10	1	-1E+10	1	-1E+10	1	-1E+10	1	-1E+10	1
4902554	105	C	01/05/2024	17:57	-133.819	47.598	0	114.10	0	6.7590	0	32.7740	0	25.699	0	113.115	0	-1e10	8	-1e10	8	-1E+10	1	-1E+10	1	-1E+10	1	-1E+10	1	-1E+10	1	-1E+10	1
4902554	105	C	01/05/2024	17:57	-133.819	47.598	0	115.00	0	6.6690	0	32.8120	0	25.741	0	114.007	0	-1e10	8	-1e10	8	-1E+10	1	-1E+10	1	-1E+10	1	-1E+10	1	-1E+10	1	-1E+10	1
4902554	105	C	01/05/2024	17:57	-133.819	47.598	0	116.10	0	6.5780	0	32.8470	0	25.780	0	115.098	0	-1e10	8	-1e10	8	-1E+10	1	-1E+10	1	-1E+10	1	-1E+10	1	-1E+10	1	-1E+10	1
4902554	105	C	01/05/2024	17:57	-133.819	47.598	0	117.00	0	6.5040	0	32.8720	0	25.809	0	115.990	0	-1e10	8	-1e10	8	-1E+10	1	-1E+10	1	-1E+10	1	-1E+10	1	-1E+10	1	-1E+10	1
4902554	105	C	01/05/2024	17:57	-133.819	47.598	0	118.00	0	6.4210	0	32.9020	0	25.844	0	116.981	0	-1e10	8	-1e10	8	-1E+10	1	-1E+10	1	-1E+10	1	-1E+10	1	-1E+10	1	-1E+10	1
4902554	105	C	01/05/2024	17:57	-133.819	47.598	0	119.00	0	6.3430	0	32.9230	0	25.870	0	117.972	0	-1e10	8	-1e10	8	-1E+10	1	-1E+10	1	-1E+10	1	-1E+10	1	-1E+10	1	-1E+10	1
4902554	105	C	01/05/2024	17:57	-133.819	47.598	0	120.00	0	6.2420	0	32.9530	0	25.907	0	118.963	0	-1e10	8	-1e10	8	-1E+10	1	-1E+10	1	-1E+10	1	-1E+10	1	-1E+10	1	-1E+10	1
4902554	105	C	01/05/2024	17:57	-133.819	47.598	0	121.20	0	6.1070	0	32.9970	0	25.958	0	120.152	0	-1e10	8	-1e10	8	-1E+10	1	-1E+10	1	-1E+10	1	-1E+10	1	-1E+10	1	-1E+10	1
4902554	105	C	01/05/2024	17:57	-133.819	47.598	0	121.90	0	6.0060	0	33.0520	0	26.014	0	120.846	0	-1e10	8	-1e10	8	-1E+10	1	-1E+10	1	-1E+10	1	-1E+10	1	-1E+10	1	-1E+10	1
4902554	105	C	01/05/2024	17:57	-133.819	47.598	0	122.80	0	5.9740	0	33.0670	0	26.030	0	121.738	0	-1e10	8	-1e10	8	-1E+10	1	-1E+10	1	-1E+10	1	-1E+10	1	-1E+10	1	-1E+10	1
4902554	105	C	01/05/2024	17:57	-133.819	47.598	0	123.90	0	5.9210	0	33.1010	0	26.063	0	122.828	0	-1e10	8	-1e10	8	-1E+10	1	-1E+10	1	-1E+10	1	-1E+10	1	-1E+10	1	-1E+10	1
4902554	105	C	01/05/2024	17:57	-133.819	47.598	0	125.00	0	5.8850	0	33.1380	0	26.097	0	123.918	0	-1e10	8	-1e10	8	-1E+10	1	-1E+10	1	-1E+10	1	-1E+10	1	-1E+10	1	-1E+10	1
4902554	105	C	01/05/2024	17:57	-133.819	47.598	0	125.90	0	5.8720	0	33.1550	0	26.112	0	124.810	0	-1e10	8	-1e10	8	-1E+10	1	-1E+10	1	-1E+10	1	-1E+10	1	-1E+10	1	-1E+10	1
4902554	105	C	01/05/2024	17:57	-133.819	47.598	0	126.90	0	5.8670	0	33.1670	0	26.122	0	125.801	0	-1e10	8	-1e10	8	-1E+10	1	-1E+10	1	-1E+10	1	-1E+10	1	-1E+10	1	-1E+10	1
4902554	105	C	01/05/2024	17:57	-133.819	47.598	0	127.90	0	5.8340	0	33.1980	0	26.151	0	126.792	0	-1e10	8	-1e10	8	-1E+10	1	-1E+10	1	-1E+10	1	-1E+10	1	-1E+10	1	-1E+10	1
4902554	105	C	01/05/2024	17:57	-133.819	47.598	0	128.90	0	5.8270	0	33.2050	0	26.157	0	127.783	0	-1e10	8	-1e10	8	-1E+10	1	-1E+10	1	-1E+10	1	-1E+10	1	-1E+10	1	-1E+10	1
4902554	105	C	01/05/2024	17:57	-133.819	47.598	0	129.90	0	5.8180	0	33.2130	0	26.164	0	128.774	0	-1e10	8	-1e10	8	-1E+10	1	-1E+10	1	-1E+10	1	-1E+10	1	-1E+10	1	-1E+10	1
4902554	105	C	01/05/2024	17:57	-133.819	47.598	0	131.00	0	5.8070	0	33.2270	0	26.177	0	129.864	0	-1e10	8	-1e10	8	-1E+10	1	-1E+10	1	-1E+10	1	-1E+10	1	-1E+10	1	-1E+10	1
4902554	105	C	01/05/2024	17:57	-133.819	47.598	0	132.00	0	5.7990	0	33.2430	0	26.191	0	130.855	0	-1e10	8	-1e10	8	-1E+10	1	-1E+10	1	-1E+10	1	-1E+10	1	-1E+10	1	-1E+10	1
4902554	105	C	01/05/2024	17:57	-133.819	47.598	0	133.00	0	5.7940	0	33.2510	0	26.197	0	131.846	0	-1e10	8	-1e10	8	-1E+10	1	-1E+10	1	-1E+10	1	-1E+10	1	-1E+10	1	-1E+10	1
4902554	105	C	01/05/2024	17:57	-133.819	47.598	0	134.20	0	5.7820	0	33.2600	0	26.206	0	133.036	0	-1e10	8	-1e10	8	-1E+10	1	-1E+10	1	-1E+10	1	-1E+10	1	-1E+10	1	-1E+10	1
4902554	105	C	01/05/2024	17:57	-133.819	47.598	0	134.90	0	5.7690	0	33.2740	0	26.219	0	133.729	0	-1e10	8	-1e10	8	-1E+10	1	-1E+10	1	-1E+10	1	-1E+10	1	-1E+10	1	-1E+10	1
4902554	105	C	01/05/2024	17:57	-133.819	47.598	0	135.90	0	5.7230	0	33.3100	0	26.253	0	134.720	0	-1e10	8	-1e10	8	-1E+10	1	-1E+10	1	-1E+10	1	-1E+10	1	-1E+10	1	-1E+10	1
4902554	105	C	01/05/2024	17:57	-133.819	47.598	0	137.10	0	5.7090	0	33.3200	0	26.262	0	135.909	0	-1e10	8	-1e10	8	-1E+10	1	-1E+10	1	-1E+10	1	-1E+10	1	-1E+10	1	-1E+10	1
4902554	105	C	01/05/2024	17:57	-133.819	47.598	0	137.90	0	5.7020	0	33.3250	0	26.267	0	136.702	0	-1e10	8	-1e10	8	-1E+10	1	-1E+10	1	-1E+10	1	-1E+10	1	-1E+10	1	-1E+10	1
4902554	105	C	01/05/2024	17:57	-133.819	47.598	0	138.70	0	5.6890	0	33.3380	0	26.279	0	137.495	0	-1e10	8	-1e10	8	-1E+10	1	-1E+10	1	-1E+10	1	-1E+10	1	-1E+10	1	-1E+10	1
4902554	105	C	01/05/2024	17:57	-133.819	47.598	0	139.90	0	5.6830	0	33.3450	0	26.285	0	138.684	0	-1e10	8	-1e10	8	-1E+10	1	-1E+10	1	-1E+10	1	-1E+10	1	-1E+10	1	-1E+10	1
4902554	105	C	01/05/2024	17:57	-133.819	47.598	0	141.00	0	5.6790	0	33.3510	0	26.290	0	139.774	0	-1e10	8	-1e10	8	-1E+10	1	-1E+10	1	-1E+10	1	-1E+10	1	-1E+10	1	-1E+10	1
4902554	105	C	01/05/2024	17:57	-133.819	47.598	0	141.80	0	5.6770	0	33.3540	0	26.293	0	140.567	0	-1e10	8	-1e10	8	-1E+10	1	-1E+10	1	-1E+10	1	-1E+10	1	-1E+10	1	-1E+10	1
4902554	105	C	01/05/2024	17:57	-133.819	47.598	0	143.00	0	5.6760	0	33.3630	0	26.300	0	141.756	0	-1e10	8	-1e10	8	-1E+10	1	-1E+10	1	-1E+10	1	-1E+10	1	-1E+10	1	-1E+10	1
4902554	105	C	01/05/2024	17:57	-133.819	47.598	0	144.20	0	5.6740	0	33.3720	0	26.308	0	142.945	0	-1e10	8	-1e10	8	-1E+10	1	-1E+10	1	-1E+10	1	-1E+10	1	-1E+10	1	-1E+10	1
4902554	105	C	01/05/2024	17:57	-133.819	47.598	0	145.00	0	5.6740	0	33.3790	0	26.313	0	143.738	0	-1e10	8	-1e10	8	-1E+10	1	-1E+10	1	-1E+10	1	-1E+10	1	-1E+10	1	-1E+10	1
4902554	105	C	01/05/2024	17:57	-133.819	47.598	0	145.90	0	5.6720	0	33.3870	0	26.320	0	144.630	0	-1e10	8	-1e10	8	-1E+10	1	-1E+10	1	-1E+10	1	-1E+10	1	-1E+10	1	-1E+10	1
4902554	105	C	01/05/2024	17:57	-133.819	47.598	0	146.70	0	5.6610	0	33.4090	0	26.339	0	145.423	0	-1e10	8	-1e10	8	-1E+10	1	-1E+10	1	-1E+10	1	-1E+10	1	-1E+10	1	-1E+10	1
4902554	105	C	01/05/2024	17:57	-133.819	47.598	0	148.00	0	5.6650	0	33.4210	0	26.348	0	146.711	0	-1e10	8	-1e10	8	-1E+10	1	-1E+10	1	-1E+10	1	-1E+10	1	-1E+10	1	-1E+10	1
4902554	105	C	01/05/2024	17:57	-133.819	47.598	0	149.30	0	5.6750	0	33.4400	0	26.361	0	147.999	0	-1e10	8	-1e10	8	-1E+10	1	-1E+10	1	-1E+10	1	-1E+10	1	-1E+10	1	-1E+10	1
4902554	105	C	01/05/2024	17:57	-133.819	47.598	0	150.20	0	5.6770	0	33.4430	0	26.364	0	148.891	0	-1e10	8	-1e10	8	-1E+10	1	-1E+10	1	-1E+10	1	-1E+10	1	-1E+10	1	-1E+10	1
4902554	105	C	01/05/2024	17:57	-133.819	47.598	0	151.00	0	5.6780	0	33.4470	0	26.367	0	149.684	0	-1e10	8	-1e10	8	-1E+10	1	-1E+10	1	-1E+10	1	-1E+10	1	-1E+10	1	-1E+10	1
4902554	105	C	01/05/2024	17:57	-133.819	47.598	0	151.90	0	5.6720	0	33.4530	0	26.372	0	150.575	0	-1e10	8	-1e10	8	-1E+10	1	-1E+10	1	-1E+10	1	-1E+10	1	-1E+10	1	-1E+10	1
4902554	105	C	01/05/2024	17:57	-133.819	47.598	0	152.80	0	5.6880	0	33.4780	0	26.390	0	151.467	0	-1e10	8	-1e10	8	-1E+10	1	-1E+10	1	-1E+10	1	-1E+10	1	-1E+10	1	-1E+10	1
4902554	105	C	01/05/2024	17:57	-133.819	47.598	0	153.70	0	5.7040	0	33.4910	0	26.398	0	152.359	0	-1e10	8	-1e10	8	-1E+10	1	-1E+10	1	-1E+10	1	-1E+10	1	-1E+10	1	-1E+10	1
4902554	105	C	01/05/2024	17:57	-133.819	47.598	0	154.60	0	5.6990	0	33.4960	0	26.403	0	153.251	0	-1e10	8	-1e10	8	-1E+10	1	-1E+10	1	-1E+10	1	-1E+10	1	-1E+10	1	-1E+10	1
4902554	105	C	01/05/2024	17:57	-133.819	47.598	0	155.60	0	5.7470	0	33.5270	0	26.422	0	154.242	0	-1e10	8	-1e10	8	-1E+10	1	-1E+10	1	-1E+10	1	-1E+10	1	-1E+10	1	-1E+10	1
4902554	105	C	01/05/2024	17:57	-133.819	47.598	0	156.90	0	5.7740	0	33.5430	0	26.431	0	155.530	0	-1e10	8	-1e10	8	-1E+10	1	-1E+10	1	-1E+10	1	-1E+10	1	-1E+10	1	-1E+10	1
4902554	105	C	01/05/2024	17:57	-133.819	47.598	0	158.30	0	5.7910	0	33.5550	0	26.438	0	156.917	0	-1e10	8	-1e10	8	-1E+10	1	-1E+10	1	-1E+10	1	-1E+10	1	-1E+10	1	-1E+10	1
4902554	105	C	01/05/2024	17:57	-133.819	47.598	0	159.20	0	5.8050	0	33.5650	0	26.445	0	157.809	0	-1e10	8	-1e10	8	-1E+10	1	-1E+10	1	-1E+10	1	-1E+10	1	-1E+10	1	-1E+10	1
4902554	105	C	01/05/2024	17:57	-133.819	47.598	0	160.10	0	5.7910	0	33.5680	0	26.449	0	158.701	0	-1e10	8	-1e10	8	-1E+10	1	-1E+10	1	-1E+10	1	-1E+10	1	-1E+10	1	-1E+10	1
4902554	105	C	01/05/2024	17:57	-133.819	47.598	0	161.00	0	5.7740	0	33.5720	0	26.454	0	159.593	0	-1e10	8	-1e10	8	-1E+10	1	-1E+10	1	-1E+10	1	-1E+10	1	-1E+10	1	-1E+10	1
4902554	105	C	01/05/2024	17:57	-133.819	47.598	0	162.00	0	5.7840	0	33.5830	0	26.461	0	160.583	0	-1e10	8	-1e10	8	-1E+10	1	-1E+10	1	-1E+10	1	-1E+10	1	-1E+10	1	-1E+10	1
4902554	105	C	01/05/2024	17:57	-133.819	47.598	0	162.90	0	5.7990	0	33.5960	0	26.470	0	161.475	0	-1e10	8	-1e10	8	-1E+10	1	-1E+10	1	-1E+10	1	-1E+10	1	-1E+10	1	-1E+10	1
4902554	105	C	01/05/2024	17:57	-133.819	47.598	0	163.80	0	5.8070	0	33.6110	0	26.481	0	162.367	0	-1e10	8	-1e10	8	-1E+10	1	-1E+10	1	-1E+10	1	-1E+10	1	-1E+10	1	-1E+10	1
4902554	105	C	01/05/2024	17:57	-133.819	47.598	0	164.80	0	5.8190	0	33.6240	0	26.490	0	163.358	0	-1e10	8	-1e10	8	-1E+10	1	-1E+10	1	-1E+10	1	-1E+10	1	-1E+10	1	-1E+10	1
4902554	105	C	01/05/2024	17:57	-133.819	47.598	0	165.70	0	5.8270	0	33.6280	0	26.492	0	164.250	0	-1e10	8	-1e10	8	-1E+10	1	-1E+10	1	-1E+10	1	-1E+10	1	-1E+10	1	-1E+10	1
4902554	105	C	01/05/2024	17:57	-133.819	47.598	0	166.60	0	5.8270	0	33.6300	0	26.493	0	165.141	0	-1e10	8	-1e10	8	-1E+10	1	-1E+10	1	-1E+10	1	-1E+10	1	-1E+10	1	-1E+10	1
4902554	105	C	01/05/2024	17:57	-133.819	47.598	0	167.60	0	5.8270	0	33.6360	0	26.498	0	166.132	0	-1e10	8	-1e10	8	-1E+10	1	-1E+10	1	-1E+10	1	-1E+10	1	-1E+10	1	-1E+10	1
4902554	105	C	01/05/2024	17:57	-133.819	47.598	0	168.50	0	5.8250	0	33.6480	0	26.508	0	167.024	0	-1e10	8	-1e10	8	-1E+10	1	-1E+10	1	-1E+10	1	-1E+10	1	-1E+10	1	-1E+10	1
4902554	105	C	01/05/2024	17:57	-133.819	47.598	0	169.50	0	5.8410	0	33.6570	0	26.513	0	168.015	0	-1e10	8	-1e10	8	-1E+10	1	-1E+10	1	-1E+10	1	-1E+10	1	-1E+10	1	-1E+10	1
4902554	105	C	01/05/2024	17:57	-133.819	47.598	0	170.50	0	5.8350	0	33.6740	0	26.527	0	169.006	0	-1e10	8	-1e10	8	-1E+10	1	-1E+10	1	-1E+10	1	-1E+10	1	-1E+10	1	-1E+10	1
4902554	105	C	01/05/2024	17:57	-133.819	47.598	0	171.90	0	5.8350	0	33.6750	0	26.528	0	170.393	0	-1e10	8	-1e10	8	-1E+10	1	-1E+10	1	-1E+10	1	-1E+10	1	-1E+10	1	-1E+10	1
4902554	105	C	01/05/2024	17:57	-133.819	47.598	0	173.40	0	5.8340	0	33.6770	0	26.530	0	171.879	0	-1e10	8	-1e10	8	-1E+10	1	-1E+10	1	-1E+10	1	-1E+10	1	-1E+10	1	-1E+10	1
4902554	105	C	01/05/2024	17:57	-133.819	47.598	0	174.40	0	5.8290	0	33.6830	0	26.535	0	172.870	0	-1e10	8	-1e10	8	-1E+10	1	-1E+10	1	-1E+10	1	-1E+10	1	-1E+10	1	-1E+10	1
4902554	105	C	01/05/2024	17:57	-133.819	47.598	0	175.40	0	5.8270	0	33.6850	0	26.537	0	173.861	0	-1e10	8	-1e10	8	-1E+10	1	-1E+10	1	-1E+10	1	-1E+10	1	-1E+10	1	-1E+10	1
4902554	105	C	01/05/2024	17:57	-133.819	47.598	0	176.40	0	5.8230	0	33.6880	0	26.540	0	174.851	0	-1e10	8	-1e10	8	-1E+10	1	-1E+10	1	-1E+10	1	-1E+10	1	-1E+10	1	-1E+10	1
4902554	105	C	01/05/2024	17:57	-133.819	47.598	0	177.40	0	5.7890	0	33.7050	0	26.557	0	175.842	0	-1e10	8	-1e10	8	-1E+10	1	-1E+10	1	-1E+10	1	-1E+10	1	-1E+10	1	-1E+10	1
4902554	105	C	01/05/2024	17:57	-133.819	47.598	0	178.40	0	5.7830	0	33.7070	0	26.560	0	176.833	0	-1e10	8	-1e10	8	-1E+10	1	-1E+10	1	-1E+10	1	-1E+10	1	-1E+10	1	-1E+10	1
4902554	105	C	01/05/2024	17:57	-133.819	47.598	0	179.40	0	5.7790	0	33.7080	0	26.561	0	177.824	0	-1e10	8	-1e10	8	-1E+10	1	-1E+10	1	-1E+10	1	-1E+10	1	-1E+10	1	-1E+10	1
4902554	105	C	01/05/2024	17:57	-133.819	47.598	0	180.30	0	5.7710	0	33.7110	0	26.564	0	178.716	0	-1e10	8	-1e10	8	-1E+10	1	-1E+10	1	-1E+10	1	-1E+10	1	-1E+10	1	-1E+10	1
4902554	105	C	01/05/2024	17:57	-133.819	47.598	0	181.40	0	5.7660	0	33.7130	0	26.567	0	179.805	0	-1e10	8	-1e10	8	-1E+10	1	-1E+10	1	-1E+10	1	-1E+10	1	-1E+10	1	-1E+10	1
4902554	105	C	01/05/2024	17:57	-133.819	47.598	0	182.40	0	5.7660	0	33.7140	0	26.567	0	180.796	0	-1e10	8	-1e10	8	-1E+10	1	-1E+10	1	-1E+10	1	-1E+10	1	-1E+10	1	-1E+10	1
4902554	105	C	01/05/2024	17:57	-133.819	47.598	0	183.40	0	5.7650	0	33.7150	0	26.568	0	181.787	0	-1e10	8	-1e10	8	-1E+10	1	-1E+10	1	-1E+10	1	-1E+10	1	-1E+10	1	-1E+10	1
4902554	105	C	01/05/2024	17:57	-133.819	47.598	0	184.40	0	5.7650	0	33.7160	0	26.569	0	182.778	0	-1e10	8	-1e10	8	-1E+10	1	-1E+10	1	-1E+10	1	-1E+10	1	-1E+10	1	-1E+10	1
4902554	105	C	01/05/2024	17:57	-133.819	47.598	0	185.40	0	5.7650	0	33.7160	0	26.569	0	183.768	0	-1e10	8	-1e10	8	-1E+10	1	-1E+10	1	-1E+10	1	-1E+10	1	-1E+10	1	-1E+10	1
4902554	105	C	01/05/2024	17:57	-133.819	47.598	0	186.50	0	5.7650	0	33.7160	0	26.569	0	184.858	0	-1e10	8	-1e10	8	-1E+10	1	-1E+10	1	-1E+10	1	-1E+10	1	-1E+10	1	-1E+10	1
4902554	105	C	01/05/2024	17:57	-133.819	47.598	0	187.50	0	5.7660	0	33.7160	0	26.569	0	185.849	0	-1e10	8	-1e10	8	-1E+10	1	-1E+10	1	-1E+10	1	-1E+10	1	-1E+10	1	-1E+10	1
4902554	105	C	01/05/2024	17:57	-133.819	47.598	0	188.60	0	5.7650	0	33.7170	0	26.570	0	186.939	0	-1e10	8	-1e10	8	-1E+10	1	-1E+10	1	-1E+10	1	-1E+10	1	-1E+10	1	-1E+10	1
4902554	105	C	01/05/2024	17:57	-133.819	47.598	0	189.60	0	5.7620	0	33.7190	0	26.572	0	187.930	0	-1e10	8	-1e10	8	-1E+10	1	-1E+10	1	-1E+10	1	-1E+10	1	-1E+10	1	-1E+10	1
4902554	105	C	01/05/2024	17:57	-133.819	47.598	0	190.70	0	5.7540	0	33.7220	0	26.575	0	189.019	0	-1e10	8	-1e10	8	-1E+10	1	-1E+10	1	-1E+10	1	-1E+10	1	-1E+10	1	-1E+10	1
4902554	105	C	01/05/2024	17:57	-133.819	47.598	0	191.80	0	5.7450	0	33.7260	0	26.580	0	190.109	0	-1e10	8	-1e10	8	-1E+10	1	-1E+10	1	-1E+10	1	-1E+10	1	-1E+10	1	-1E+10	1
4902554	105	C	01/05/2024	17:57	-133.819	47.598	0	192.80	0	5.7440	0	33.7270	0	26.580	0	191.100	0	-1e10	8	-1e10	8	-1E+10	1	-1E+10	1	-1E+10	1	-1E+10	1	-1E+10	1	-1E+10	1
4902554	105	C	01/05/2024	17:57	-133.819	47.598	0	193.90	0	5.7420	0	33.7290	0	26.582	0	192.190	0	-1e10	8	-1e10	8	-1E+10	1	-1E+10	1	-1E+10	1	-1E+10	1	-1E+10	1	-1E+10	1
4902554	105	C	01/05/2024	17:57	-133.819	47.598	0	194.90	0	5.7330	0	33.7330	0	26.587	0	193.180	0	-1e10	8	-1e10	8	-1E+10	1	-1E+10	1	-1E+10	1	-1E+10	1	-1E+10	1	-1E+10	1
4902554	105	C	01/05/2024	17:57	-133.819	47.598	0	195.90	0	5.7250	0	33.7350	0	26.589	0	194.171	0	-1e10	8	-1e10	8	-1E+10	1	-1E+10	1	-1E+10	1	-1E+10	1	-1E+10	1	-1E+10	1
4902554	105	C	01/05/2024	17:57	-133.819	47.598	0	196.90	0	5.7140	0	33.7360	0	26.591	0	195.162	0	-1e10	8	-1e10	8	-1E+10	1	-1E+10	1	-1E+10	1	-1E+10	1	-1E+10	1	-1E+10	1
4902554	105	C	01/05/2024	17:57	-133.819	47.598	0	198.00	0	5.7070	0	33.7360	0	26.592	0	196.252	0	-1e10	8	-1e10	8	-1E+10	1	-1E+10	1	-1E+10	1	-1E+10	1	-1E+10	1	-1E+10	1
4902554	105	C	01/05/2024	17:57	-133.819	47.598	0	199.00	0	5.6980	0	33.7380	0	26.595	0	197.242	0	-1e10	8	-1e10	8	-1E+10	1	-1E+10	1	-1E+10	1	-1E+10	1	-1E+10	1	-1E+10	1
4902554	105	C	01/05/2024	17:57	-133.819	47.598	0	200.10	0	5.6850	0	33.7420	0	26.600	0	198.332	0	-1e10	8	-1e10	8	-1E+10	1	-1E+10	1	-1E+10	1	-1E+10	1	-1E+10	1	-1E+10	1
4902554	105	C	01/05/2024	17:57	-133.819	47.598	0	201.20	0	5.6690	0	33.7430	0	26.602	0	199.422	0	-1e10	8	-1e10	8	-1E+10	1	-1E+10	1	-1E+10	1	-1E+10	1	-1E+10	1	-1E+10	1
4902554	105	C	01/05/2024	17:57	-133.819	47.598	0	202.20	0	5.6650	0	33.7440	0	26.604	0	200.412	0	-1e10	8	-1e10	8	-1E+10	1	-1E+10	1	-1E+10	1	-1E+10	1	-1E+10	1	-1E+10	1
4902554	105	C	01/05/2024	17:57	-133.819	47.598	0	203.30	0	5.6580	0	33.7450	0	26.605	0	201.502	0	-1e10	8	-1e10	8	-1E+10	1	-1E+10	1	-1E+10	1	-1E+10	1	-1E+10	1	-1E+10	1
4902554	105	C	01/05/2024	17:57	-133.819	47.598	0	204.30	0	5.6520	0	33.7460	0	26.607	0	202.493	0	-1e10	8	-1e10	8	-1E+10	1	-1E+10	1	-1E+10	1	-1E+10	1	-1E+10	1	-1E+10	1
4902554	105	C	01/05/2024	17:57	-133.819	47.598	0	205.30	0	5.6470	0	33.7470	0	26.608	0	203.484	0	-1e10	8	-1e10	8	-1E+10	1	-1E+10	1	-1E+10	1	-1E+10	1	-1E+10	1	-1E+10	1
4902554	105	C	01/05/2024	17:57	-133.819	47.598	0	206.40	0	5.6370	0	33.7480	0	26.610	0	204.573	0	-1e10	8	-1e10	8	-1E+10	1	-1E+10	1	-1E+10	1	-1E+10	1	-1E+10	1	-1E+10	1
4902554	105	C	01/05/2024	17:57	-133.819	47.598	0	207.40	0	5.6230	0	33.7510	0	26.614	0	205.564	0	-1e10	8	-1e10	8	-1E+10	1	-1E+10	1	-1E+10	1	-1E+10	1	-1E+10	1	-1E+10	1
4902554	105	C	01/05/2024	17:57	-133.819	47.598	0	208.50	0	5.6110	0	33.7510	0	26.616	0	206.654	0	-1e10	8	-1e10	8	-1E+10	1	-1E+10	1	-1E+10	1	-1E+10	1	-1E+10	1	-1E+10	1
4902554	105	C	01/05/2024	17:57	-133.819	47.598	0	209.50	0	5.6090	0	33.7510	0	26.616	0	207.644	0	-1e10	8	-1e10	8	-1E+10	1	-1E+10	1	-1E+10	1	-1E+10	1	-1E+10	1	-1E+10	1
4902554	105	C	01/05/2024	17:57	-133.819	47.598	0	210.60	0	5.5930	0	33.7550	0	26.621	0	208.734	0	-1e10	8	-1e10	8	-1E+10	1	-1E+10	1	-1E+10	1	-1E+10	1	-1E+10	1	-1E+10	1
4902554	105	C	01/05/2024	17:57	-133.819	47.598	0	211.60	0	5.5750	0	33.7560	0	26.624	0	209.725	0	-1e10	8	-1e10	8	-1E+10	1	-1E+10	1	-1E+10	1	-1E+10	1	-1E+10	1	-1E+10	1
4902554	105	C	01/05/2024	17:57	-133.819	47.598	0	212.60	0	5.5630	0	33.7580	0	26.627	0	210.715	0	-1e10	8	-1e10	8	-1E+10	1	-1E+10	1	-1E+10	1	-1E+10	1	-1E+10	1	-1E+10	1
4902554	105	C	01/05/2024	17:57	-133.819	47.598	0	213.60	0	5.5540	0	33.7590	0	26.629	0	211.706	0	-1e10	8	-1e10	8	-1E+10	1	-1E+10	1	-1E+10	1	-1E+10	1	-1E+10	1	-1E+10	1
4902554	105	C	01/05/2024	17:57	-133.819	47.598	0	214.70	0	5.5430	0	33.7600	0	26.631	0	212.796	0	-1e10	8	-1e10	8	-1E+10	1	-1E+10	1	-1E+10	1	-1E+10	1	-1E+10	1	-1E+10	1
4902554	105	C	01/05/2024	17:57	-133.819	47.598	0	215.70	0	5.5280	0	33.7610	0	26.634	0	213.786	0	-1e10	8	-1e10	8	-1E+10	1	-1E+10	1	-1E+10	1	-1E+10	1	-1E+10	1	-1E+10	1
4902554	105	C	01/05/2024	17:57	-133.819	47.598	0	216.80	0	5.5090	0	33.7640	0	26.638	0	214.876	0	-1e10	8	-1e10	8	-1E+10	1	-1E+10	1	-1E+10	1	-1E+10	1	-1E+10	1	-1E+10	1
4902554	105	C	01/05/2024	17:57	-133.819	47.598	0	217.80	0	5.5010	0	33.7630	0	26.638	0	215.866	0	-1e10	8	-1e10	8	-1E+10	1	-1E+10	1	-1E+10	1	-1E+10	1	-1E+10	1	-1E+10	1
4902554	105	C	01/05/2024	17:57	-133.819	47.598	0	218.90	0	5.4910	0	33.7640	0	26.640	0	216.956	0	-1e10	8	-1e10	8	-1E+10	1	-1E+10	1	-1E+10	1	-1E+10	1	-1E+10	1	-1E+10	1
4902554	105	C	01/05/2024	17:57	-133.819	47.598	0	219.90	0	5.4670	0	33.7660	0	26.645	0	217.947	0	-1e10	8	-1e10	8	-1E+10	1	-1E+10	1	-1E+10	1	-1E+10	1	-1E+10	1	-1E+10	1
4902554	105	C	01/05/2024	17:57	-133.819	47.598	0	220.90	0	5.4410	0	33.7680	0	26.650	0	218.937	0	-1e10	8	-1e10	8	-1E+10	1	-1E+10	1	-1E+10	1	-1E+10	1	-1E+10	1	-1E+10	1
4902554	105	C	01/05/2024	17:57	-133.819	47.598	0	222.00	0	5.4390	0	33.7680	0	26.650	0	220.027	0	-1e10	8	-1e10	8	-1E+10	1	-1E+10	1	-1E+10	1	-1E+10	1	-1E+10	1	-1E+10	1
4902554	105	C	01/05/2024	17:57	-133.819	47.598	0	223.10	0	5.4360	0	33.7690	0	26.651	0	221.117	0	-1e10	8	-1e10	8	-1E+10	1	-1E+10	1	-1E+10	1	-1E+10	1	-1E+10	1	-1E+10	1
4902554	105	C	01/05/2024	17:57	-133.819	47.598	0	224.10	0	5.4200	0	33.7700	0	26.654	0	222.107	0	-1e10	8	-1e10	8	-1E+10	1	-1E+10	1	-1E+10	1	-1E+10	1	-1E+10	1	-1E+10	1
4902554	105	C	01/05/2024	17:57	-133.819	47.598	0	225.20	0	5.3970	0	33.7730	0	26.659	0	223.197	0	-1e10	8	-1e10	8	-1E+10	1	-1E+10	1	-1E+10	1	-1E+10	1	-1E+10	1	-1E+10	1
4902554	105	C	01/05/2024	17:57	-133.819	47.598	0	226.30	0	5.3880	0	33.7720	0	26.659	0	224.286	0	-1e10	8	-1e10	8	-1E+10	1	-1E+10	1	-1E+10	1	-1E+10	1	-1E+10	1	-1E+10	1
4902554	105	C	01/05/2024	17:57	-133.819	47.598	0	227.40	0	5.3850	0	33.7720	0	26.659	0	225.376	0	-1e10	8	-1e10	8	-1E+10	1	-1E+10	1	-1E+10	1	-1E+10	1	-1E+10	1	-1E+10	1
4902554	105	C	01/05/2024	17:57	-133.819	47.598	0	228.40	0	5.3820	0	33.7720	0	26.660	0	226.367	0	-1e10	8	-1e10	8	-1E+10	1	-1E+10	1	-1E+10	1	-1E+10	1	-1E+10	1	-1E+10	1
4902554	105	C	01/05/2024	17:57	-133.819	47.598	0	229.50	0	5.3760	0	33.7720	0	26.660	0	227.456	0	-1e10	8	-1e10	8	-1E+10	1	-1E+10	1	-1E+10	1	-1E+10	1	-1E+10	1	-1E+10	1
4902554	105	C	01/05/2024	17:57	-133.819	47.598	0	230.50	0	5.3690	0	33.7740	0	26.663	0	228.447	0	-1e10	8	-1e10	8	-1E+10	1	-1E+10	1	-1E+10	1	-1E+10	1	-1E+10	1	-1E+10	1
4902554	105	C	01/05/2024	17:57	-133.819	47.598	0	231.60	0	5.3620	0	33.7740	0	26.664	0	229.536	0	-1e10	8	-1e10	8	-1E+10	1	-1E+10	1	-1E+10	1	-1E+10	1	-1E+10	1	-1E+10	1
4902554	105	C	01/05/2024	17:57	-133.819	47.598	0	232.60	0	5.3610	0	33.7740	0	26.664	0	230.527	0	-1e10	8	-1e10	8	-1E+10	1	-1E+10	1	-1E+10	1	-1E+10	1	-1E+10	1	-1E+10	1
4902554	105	C	01/05/2024	17:57	-133.819	47.598	0	233.70	0	5.3590	0	33.7750	0	26.665	0	231.616	0	-1e10	8	-1e10	8	-1E+10	1	-1E+10	1	-1E+10	1	-1E+10	1	-1E+10	1	-1E+10	1
4902554	105	C	01/05/2024	17:57	-133.819	47.598	0	234.80	0	5.3570	0	33.7740	0	26.664	0	232.706	0	-1e10	8	-1e10	8	-1E+10	1	-1E+10	1	-1E+10	1	-1E+10	1	-1E+10	1	-1E+10	1
4902554	105	C	01/05/2024	17:57	-133.819	47.598	0	235.80	0	5.3540	0	33.7750	0	26.665	0	233.696	0	-1e10	8	-1e10	8	-1E+10	1	-1E+10	1	-1E+10	1	-1E+10	1	-1E+10	1	-1E+10	1
4902554	105	C	01/05/2024	17:57	-133.819	47.598	0	236.70	0	5.3440	0	33.7760	0	26.667	0	234.588	0	-1e10	8	-1e10	8	-1E+10	1	-1E+10	1	-1E+10	1	-1E+10	1	-1E+10	1	-1E+10	1
4902554	105	C	01/05/2024	17:57	-133.819	47.598	0	237.70	0	5.3340	0	33.7760	0	26.669	0	235.578	0	-1e10	8	-1e10	8	-1E+10	1	-1E+10	1	-1E+10	1	-1E+10	1	-1E+10	1	-1E+10	1
4902554	105	C	01/05/2024	17:57	-133.819	47.598	0	238.90	0	5.3190	0	33.7770	0	26.671	0	236.767	0	-1e10	8	-1e10	8	-1E+10	1	-1E+10	1	-1E+10	1	-1E+10	1	-1E+10	1	-1E+10	1
4902554	105	C	01/05/2024	17:57	-133.819	47.598	0	240.10	0	5.3060	0	33.7790	0	26.674	0	237.956	0	-1e10	8	-1e10	8	-1E+10	1	-1E+10	1	-1E+10	1	-1E+10	1	-1E+10	1	-1E+10	1
4902554	105	C	01/05/2024	17:57	-133.819	47.598	0	240.90	0	5.2980	0	33.7800	0	26.676	0	238.748	0	-1e10	8	-1e10	8	-1E+10	1	-1E+10	1	-1E+10	1	-1E+10	1	-1E+10	1	-1E+10	1
4902554	105	C	01/05/2024	17:57	-133.819	47.598	0	241.80	0	5.2910	0	33.7800	0	26.677	0	239.639	0	-1e10	8	-1e10	8	-1E+10	1	-1E+10	1	-1E+10	1	-1E+10	1	-1E+10	1	-1E+10	1
4902554	105	C	01/05/2024	17:57	-133.819	47.598	0	242.90	0	5.2910	0	33.7790	0	26.676	0	240.729	0	-1e10	8	-1e10	8	-1E+10	1	-1E+10	1	-1E+10	1	-1E+10	1	-1E+10	1	-1E+10	1
4902554	105	C	01/05/2024	17:57	-133.819	47.598	0	244.10	0	5.2840	0	33.7800	0	26.678	0	241.918	0	-1e10	8	-1e10	8	-1E+10	1	-1E+10	1	-1E+10	1	-1E+10	1	-1E+10	1	-1E+10	1
4902554	105	C	01/05/2024	17:57	-133.819	47.598	0	244.90	0	5.2710	0	33.7790	0	26.678	0	242.710	0	-1e10	8	-1e10	8	-1E+10	1	-1E+10	1	-1E+10	1	-1E+10	1	-1E+10	1	-1E+10	1
4902554	105	C	01/05/2024	17:57	-133.819	47.598	0	245.70	0	5.2660	0	33.7800	0	26.680	0	243.502	0	-1e10	8	-1e10	8	-1E+10	1	-1E+10	1	-1E+10	1	-1E+10	1	-1E+10	1	-1E+10	1
4902554	105	C	01/05/2024	17:57	-133.819	47.598	0	247.00	0	5.2550	0	33.7820	0	26.683	0	244.790	0	-1e10	8	-1e10	8	-1E+10	1	-1E+10	1	-1E+10	1	-1E+10	1	-1E+10	1	-1E+10	1
4902554	105	C	01/05/2024	17:57	-133.819	47.598	0	248.20	0	5.2430	0	33.7840	0	26.686	0	245.978	0	-1e10	8	-1e10	8	-1E+10	1	-1E+10	1	-1E+10	1	-1E+10	1	-1E+10	1	-1E+10	1
4902554	105	C	01/05/2024	17:57	-133.819	47.598	0	249.00	0	5.2380	0	33.7840	0	26.686	0	246.771	0	-1e10	8	-1e10	8	-1E+10	1	-1E+10	1	-1E+10	1	-1E+10	1	-1E+10	1	-1E+10	1
4902554	105	C	01/05/2024	17:57	-133.819	47.598	0	249.80	0	5.2330	0	33.7850	0	26.688	0	247.563	0	-1e10	8	-1e10	8	-1E+10	1	-1E+10	1	-1E+10	1	-1E+10	1	-1E+10	1	-1E+10	1
4902554	105	C	01/05/2024	17:57	-133.819	47.598	0	250.70	0	5.2270	0	33.7850	0	26.688	0	248.455	0	-1e10	8	-1e10	8	-1E+10	1	-1E+10	1	-1E+10	1	-1E+10	1	-1E+10	1	-1E+10	1
4902554	105	C	01/05/2024	17:57	-133.819	47.598	0	251.90	0	5.2130	0	33.7860	0	26.691	0	249.643	0	-1e10	8	-1e10	8	-1E+10	1	-1E+10	1	-1E+10	1	-1E+10	1	-1E+10	1	-1E+10	1
4902554	105	C	01/05/2024	17:57	-133.819	47.598	0	253.10	0	5.2060	0	33.7870	0	26.692	0	250.832	0	-1e10	8	-1e10	8	-1E+10	1	-1E+10	1	-1E+10	1	-1E+10	1	-1E+10	1	-1E+10	1
4902554	105	C	01/05/2024	17:57	-133.819	47.598	0	254.00	0	5.2030	0	33.7870	0	26.693	0	251.723	0	-1e10	8	-1e10	8	-1E+10	1	-1E+10	1	-1E+10	1	-1E+10	1	-1E+10	1	-1E+10	1
4902554	105	C	01/05/2024	17:57	-133.819	47.598	0	254.80	0	5.1900	0	33.7880	0	26.695	0	252.515	0	-1e10	8	-1e10	8	-1E+10	1	-1E+10	1	-1E+10	1	-1E+10	1	-1E+10	1	-1E+10	1
4902554	105	C	01/05/2024	17:57	-133.819	47.598	0	255.60	0	5.1720	0	33.7900	0	26.699	0	253.308	0	-1e10	8	-1e10	8	-1E+10	1	-1E+10	1	-1E+10	1	-1E+10	1	-1E+10	1	-1E+10	1
4902554	105	C	01/05/2024	17:57	-133.819	47.598	0	256.90	0	5.1480	0	33.7920	0	26.703	0	254.595	0	-1e10	8	-1e10	8	-1E+10	1	-1E+10	1	-1E+10	1	-1E+10	1	-1E+10	1	-1E+10	1
4902554	105	C	01/05/2024	17:57	-133.819	47.598	0	258.10	0	5.1370	0	33.7930	0	26.705	0	255.784	0	-1e10	8	-1e10	8	-1E+10	1	-1E+10	1	-1E+10	1	-1E+10	1	-1E+10	1	-1E+10	1
4902554	105	C	01/05/2024	17:57	-133.819	47.598	0	259.00	0	5.1320	0	33.7930	0	26.706	0	256.675	0	-1e10	8	-1e10	8	-1E+10	1	-1E+10	1	-1E+10	1	-1E+10	1	-1E+10	1	-1E+10	1
4902554	105	C	01/05/2024	17:57	-133.819	47.598	0	259.90	0	5.1270	0	33.7930	0	26.706	0	257.566	0	-1e10	8	-1e10	8	-1E+10	1	-1E+10	1	-1E+10	1	-1E+10	1	-1E+10	1	-1E+10	1
4902554	105	C	01/05/2024	17:57	-133.819	47.598	0	260.70	0	5.1150	0	33.7950	0	26.709	0	258.359	0	-1e10	8	-1e10	8	-1E+10	1	-1E+10	1	-1E+10	1	-1E+10	1	-1E+10	1	-1E+10	1
4902554	105	C	01/05/2024	17:57	-133.819	47.598	0	262.00	0	5.1050	0	33.7950	0	26.710	0	259.646	0	-1e10	8	-1e10	8	-1E+10	1	-1E+10	1	-1E+10	1	-1E+10	1	-1E+10	1	-1E+10	1
4902554	105	C	01/05/2024	17:57	-133.819	47.598	0	263.30	0	5.0950	0	33.7960	0	26.712	0	260.934	0	-1e10	8	-1e10	8	-1E+10	1	-1E+10	1	-1E+10	1	-1E+10	1	-1E+10	1	-1E+10	1
4902554	105	C	01/05/2024	17:57	-133.819	47.598	0	264.20	0	5.0870	0	33.7970	0	26.714	0	261.825	0	-1e10	8	-1e10	8	-1E+10	1	-1E+10	1	-1E+10	1	-1E+10	1	-1E+10	1	-1E+10	1
4902554	105	C	01/05/2024	17:57	-133.819	47.598	0	265.10	0	5.0790	0	33.7970	0	26.715	0	262.717	0	-1e10	8	-1e10	8	-1E+10	1	-1E+10	1	-1E+10	1	-1E+10	1	-1E+10	1	-1E+10	1
4902554	105	C	01/05/2024	17:57	-133.819	47.598	0	266.00	0	5.0520	0	33.7990	0	26.720	0	263.608	0	-1e10	8	-1e10	8	-1E+10	1	-1E+10	1	-1E+10	1	-1E+10	1	-1E+10	1	-1E+10	1
4902554	105	C	01/05/2024	17:57	-133.819	47.598	0	266.90	0	5.0300	0	33.7990	0	26.722	0	264.499	0	-1e10	8	-1e10	8	-1E+10	1	-1E+10	1	-1E+10	1	-1E+10	1	-1E+10	1	-1E+10	1
4902554	105	C	01/05/2024	17:57	-133.819	47.598	0	267.80	0	5.0080	0	33.8020	0	26.727	0	265.390	0	-1e10	8	-1e10	8	-1E+10	1	-1E+10	1	-1E+10	1	-1E+10	1	-1E+10	1	-1E+10	1
4902554	105	C	01/05/2024	17:57	-133.819	47.598	0	268.70	0	5.0050	0	33.8000	0	26.726	0	266.282	0	-1e10	8	-1e10	8	-1E+10	1	-1E+10	1	-1E+10	1	-1E+10	1	-1E+10	1	-1E+10	1
4902554	105	C	01/05/2024	17:57	-133.819	47.598	0	269.60	0	5.0020	0	33.8010	0	26.727	0	267.173	0	-1e10	8	-1e10	8	-1E+10	1	-1E+10	1	-1E+10	1	-1E+10	1	-1E+10	1	-1E+10	1
4902554	105	C	01/05/2024	17:57	-133.819	47.598	0	270.60	0	4.9970	0	33.8020	0	26.728	0	268.164	0	-1e10	8	-1e10	8	-1E+10	1	-1E+10	1	-1E+10	1	-1E+10	1	-1E+10	1	-1E+10	1
4902554	105	C	01/05/2024	17:57	-133.819	47.598	0	271.90	0	4.9860	0	33.8020	0	26.730	0	269.451	0	-1e10	8	-1e10	8	-1E+10	1	-1E+10	1	-1E+10	1	-1E+10	1	-1E+10	1	-1E+10	1
4902554	105	C	01/05/2024	17:57	-133.819	47.598	0	273.30	0	4.9700	0	33.8040	0	26.733	0	270.837	0	-1e10	8	-1e10	8	-1E+10	1	-1E+10	1	-1E+10	1	-1E+10	1	-1E+10	1	-1E+10	1
4902554	105	C	01/05/2024	17:57	-133.819	47.598	0	274.20	0	4.9680	0	33.8040	0	26.733	0	271.729	0	-1e10	8	-1e10	8	-1E+10	1	-1E+10	1	-1E+10	1	-1E+10	1	-1E+10	1	-1E+10	1
4902554	105	C	01/05/2024	17:57	-133.819	47.598	0	275.10	0	4.9640	0	33.8050	0	26.734	0	272.620	0	-1e10	8	-1e10	8	-1E+10	1	-1E+10	1	-1E+10	1	-1E+10	1	-1E+10	1	-1E+10	1
4902554	105	C	01/05/2024	17:57	-133.819	47.598	0	276.10	0	4.9610	0	33.8040	0	26.734	0	273.610	0	-1e10	8	-1e10	8	-1E+10	1	-1E+10	1	-1E+10	1	-1E+10	1	-1E+10	1	-1E+10	1
4902554	105	C	01/05/2024	17:57	-133.819	47.598	0	277.00	0	4.9520	0	33.8050	0	26.736	0	274.502	0	-1e10	8	-1e10	8	-1E+10	1	-1E+10	1	-1E+10	1	-1E+10	1	-1E+10	1	-1E+10	1
4902554	105	C	01/05/2024	17:57	-133.819	47.598	0	277.90	0	4.9260	0	33.8100	0	26.743	0	275.393	0	-1e10	8	-1e10	8	-1E+10	1	-1E+10	1	-1E+10	1	-1E+10	1	-1E+10	1	-1E+10	1
4902554	105	C	01/05/2024	17:57	-133.819	47.598	0	278.80	0	4.9150	0	33.8090	0	26.743	0	276.284	0	-1e10	8	-1e10	8	-1E+10	1	-1E+10	1	-1E+10	1	-1E+10	1	-1E+10	1	-1E+10	1
4902554	105	C	01/05/2024	17:57	-133.819	47.598	0	279.80	0	4.9090	0	33.8100	0	26.745	0	277.274	0	-1e10	8	-1e10	8	-1E+10	1	-1E+10	1	-1E+10	1	-1E+10	1	-1E+10	1	-1E+10	1
4902554	105	C	01/05/2024	17:57	-133.819	47.598	0	280.70	0	4.9020	0	33.8110	0	26.746	0	278.166	0	-1e10	8	-1e10	8	-1E+10	1	-1E+10	1	-1E+10	1	-1E+10	1	-1E+10	1	-1E+10	1
4902554	105	C	01/05/2024	17:57	-133.819	47.598	0	281.60	0	4.8830	0	33.8130	0	26.750	0	279.057	0	-1e10	8	-1e10	8	-1E+10	1	-1E+10	1	-1E+10	1	-1E+10	1	-1E+10	1	-1E+10	1
4902554	105	C	01/05/2024	17:57	-133.819	47.598	0	282.60	0	4.8780	0	33.8130	0	26.751	0	280.047	0	-1e10	8	-1e10	8	-1E+10	1	-1E+10	1	-1E+10	1	-1E+10	1	-1E+10	1	-1E+10	1
4902554	105	C	01/05/2024	17:57	-133.819	47.598	0	283.90	0	4.8760	0	33.8140	0	26.752	0	281.335	0	-1e10	8	-1e10	8	-1E+10	1	-1E+10	1	-1E+10	1	-1E+10	1	-1E+10	1	-1E+10	1
4902554	105	C	01/05/2024	17:57	-133.819	47.598	0	285.40	0	4.8710	0	33.8140	0	26.752	0	282.820	0	-1e10	8	-1e10	8	-1E+10	1	-1E+10	1	-1E+10	1	-1E+10	1	-1E+10	1	-1E+10	1
4902554	105	C	01/05/2024	17:57	-133.819	47.598	0	286.30	0	4.8670	0	33.8160	0	26.754	0	283.711	0	-1e10	8	-1e10	8	-1E+10	1	-1E+10	1	-1E+10	1	-1E+10	1	-1E+10	1	-1E+10	1
4902554	105	C	01/05/2024	17:57	-133.819	47.598	0	287.30	0	4.8560	0	33.8150	0	26.755	0	284.702	0	-1e10	8	-1e10	8	-1E+10	1	-1E+10	1	-1E+10	1	-1E+10	1	-1E+10	1	-1E+10	1
4902554	105	C	01/05/2024	17:57	-133.819	47.598	0	288.20	0	4.8500	0	33.8150	0	26.755	0	285.593	0	-1e10	8	-1e10	8	-1E+10	1	-1E+10	1	-1E+10	1	-1E+10	1	-1E+10	1	-1E+10	1
4902554	105	C	01/05/2024	17:57	-133.819	47.598	0	289.20	0	4.8400	0	33.8170	0	26.758	0	286.583	0	-1e10	8	-1e10	8	-1E+10	1	-1E+10	1	-1E+10	1	-1E+10	1	-1E+10	1	-1E+10	1
4902554	105	C	01/05/2024	17:57	-133.819	47.598	0	290.10	0	4.8340	0	33.8180	0	26.759	0	287.474	0	-1e10	8	-1e10	8	-1E+10	1	-1E+10	1	-1E+10	1	-1E+10	1	-1E+10	1	-1E+10	1
4902554	105	C	01/05/2024	17:57	-133.819	47.598	0	291.10	0	4.8230	0	33.8210	0	26.763	0	288.465	0	-1e10	8	-1e10	8	-1E+10	1	-1E+10	1	-1E+10	1	-1E+10	1	-1E+10	1	-1E+10	1
4902554	105	C	01/05/2024	17:57	-133.819	47.598	0	292.00	0	4.8210	0	33.8210	0	26.763	0	289.356	0	-1e10	8	-1e10	8	-1E+10	1	-1E+10	1	-1E+10	1	-1E+10	1	-1E+10	1	-1E+10	1
4902554	105	C	01/05/2024	17:57	-133.819	47.598	0	293.00	0	4.8170	0	33.8220	0	26.765	0	290.346	0	-1e10	8	-1e10	8	-1E+10	1	-1E+10	1	-1E+10	1	-1E+10	1	-1E+10	1	-1E+10	1
4902554	105	C	01/05/2024	17:57	-133.819	47.598	0	294.00	0	4.8110	0	33.8230	0	26.766	0	291.336	0	-1e10	8	-1e10	8	-1E+10	1	-1E+10	1	-1E+10	1	-1E+10	1	-1E+10	1	-1E+10	1
4902554	105	C	01/05/2024	17:57	-133.819	47.598	0	294.90	0	4.8010	0	33.8230	0	26.767	0	292.228	0	-1e10	8	-1e10	8	-1E+10	1	-1E+10	1	-1E+10	1	-1E+10	1	-1E+10	1	-1E+10	1
4902554	105	C	01/05/2024	17:57	-133.819	47.598	0	295.90	0	4.8010	0	33.8230	0	26.767	0	293.218	0	-1e10	8	-1e10	8	-1E+10	1	-1E+10	1	-1E+10	1	-1E+10	1	-1E+10	1	-1E+10	1
4902554	105	C	01/05/2024	17:57	-133.819	47.598	0	296.80	0	4.8000	0	33.8240	0	26.768	0	294.109	0	-1e10	8	-1e10	8	-1E+10	1	-1E+10	1	-1E+10	1	-1E+10	1	-1E+10	1	-1E+10	1
4902554	105	C	01/05/2024	17:57	-133.819	47.598	0	297.80	0	4.7990	0	33.8240	0	26.768	0	295.099	0	-1e10	8	-1e10	8	-1E+10	1	-1E+10	1	-1E+10	1	-1E+10	1	-1E+10	1	-1E+10	1
4902554	105	C	01/05/2024	17:57	-133.819	47.598	0	298.80	0	4.7970	0	33.8240	0	26.768	0	296.089	0	-1e10	8	-1e10	8	-1E+10	1	-1E+10	1	-1E+10	1	-1E+10	1	-1E+10	1	-1E+10	1
4902554	105	C	01/05/2024	17:57	-133.819	47.598	0	299.70	0	4.7960	0	33.8240	0	26.769	0	296.981	0	-1e10	8	-1e10	8	-1E+10	1	-1E+10	1	-1E+10	1	-1E+10	1	-1E+10	1	-1E+10	1
4902554	105	C	01/05/2024	17:57	-133.819	47.598	0	300.70	0	4.7940	0	33.8250	0	26.770	0	297.971	0	-1e10	8	-1e10	8	-1E+10	1	-1E+10	1	-1E+10	1	-1E+10	1	-1E+10	1	-1E+10	1
4902554	105	C	01/05/2024	17:57	-133.819	47.598	0	301.60	0	4.7900	0	33.8250	0	26.770	0	298.862	0	-1e10	8	-1e10	8	-1E+10	1	-1E+10	1	-1E+10	1	-1E+10	1	-1E+10	1	-1E+10	1
4902554	105	C	01/05/2024	17:57	-133.819	47.598	0	302.60	0	4.7850	0	33.8260	0	26.771	0	299.852	0	-1e10	8	-1e10	8	-1E+10	1	-1E+10	1	-1E+10	1	-1E+10	1	-1E+10	1	-1E+10	1
4902554	105	C	01/05/2024	17:57	-133.819	47.598	0	303.60	0	4.7800	0	33.8270	0	26.773	0	300.842	0	-1e10	8	-1e10	8	-1E+10	1	-1E+10	1	-1E+10	1	-1E+10	1	-1E+10	1	-1E+10	1
4902554	105	C	01/05/2024	17:57	-133.819	47.598	0	304.50	0	4.7730	0	33.8280	0	26.774	0	301.734	0	-1e10	8	-1e10	8	-1E+10	1	-1E+10	1	-1E+10	1	-1E+10	1	-1E+10	1	-1E+10	1
4902554	105	C	01/05/2024	17:57	-133.819	47.598	0	305.50	0	4.7690	0	33.8280	0	26.775	0	302.724	0	-1e10	8	-1e10	8	-1E+10	1	-1E+10	1	-1E+10	1	-1E+10	1	-1E+10	1	-1E+10	1
4902554	105	C	01/05/2024	17:57	-133.819	47.598	0	306.50	0	4.7650	0	33.8290	0	26.776	0	303.714	0	-1e10	8	-1e10	8	-1E+10	1	-1E+10	1	-1E+10	1	-1E+10	1	-1E+10	1	-1E+10	1
4902554	105	C	01/05/2024	17:57	-133.819	47.598	0	307.90	0	4.7540	0	33.8310	0	26.779	0	305.100	0	-1e10	8	-1e10	8	-1E+10	1	-1E+10	1	-1E+10	1	-1E+10	1	-1E+10	1	-1E+10	1
4902554	105	C	01/05/2024	17:57	-133.819	47.598	0	309.40	0	4.7420	0	33.8320	0	26.781	0	306.585	0	-1e10	8	-1e10	8	-1E+10	1	-1E+10	1	-1E+10	1	-1E+10	1	-1E+10	1	-1E+10	1
4902554	105	C	01/05/2024	17:57	-133.819	47.598	0	310.40	0	4.7340	0	33.8330	0	26.783	0	307.576	0	-1e10	8	-1e10	8	-1E+10	1	-1E+10	1	-1E+10	1	-1E+10	1	-1E+10	1	-1E+10	1
4902554	105	C	01/05/2024	17:57	-133.819	47.598	0	311.40	0	4.7270	0	33.8340	0	26.784	0	308.566	0	-1e10	8	-1e10	8	-1E+10	1	-1E+10	1	-1E+10	1	-1E+10	1	-1E+10	1	-1E+10	1
4902554	105	C	01/05/2024	17:57	-133.819	47.598	0	312.40	0	4.7120	0	33.8420	0	26.792	0	309.556	0	-1e10	8	-1e10	8	-1E+10	1	-1E+10	1	-1E+10	1	-1E+10	1	-1E+10	1	-1E+10	1
4902554	105	C	01/05/2024	17:57	-133.819	47.598	0	313.40	0	4.7040	0	33.8420	0	26.793	0	310.546	0	-1e10	8	-1e10	8	-1E+10	1	-1E+10	1	-1E+10	1	-1E+10	1	-1E+10	1	-1E+10	1
4902554	105	C	01/05/2024	17:57	-133.819	47.598	0	314.40	0	4.7000	0	33.8450	0	26.796	0	311.536	0	-1e10	8	-1e10	8	-1E+10	1	-1E+10	1	-1E+10	1	-1E+10	1	-1E+10	1	-1E+10	1
4902554	105	C	01/05/2024	17:57	-133.819	47.598	0	315.40	0	4.6940	0	33.8460	0	26.797	0	312.526	0	-1e10	8	-1e10	8	-1E+10	1	-1E+10	1	-1E+10	1	-1E+10	1	-1E+10	1	-1E+10	1
4902554	105	C	01/05/2024	17:57	-133.819	47.598	0	316.40	0	4.6840	0	33.8470	0	26.799	0	313.516	0	-1e10	8	-1e10	8	-1E+10	1	-1E+10	1	-1E+10	1	-1E+10	1	-1E+10	1	-1E+10	1
4902554	105	C	01/05/2024	17:57	-133.819	47.598	0	317.40	0	4.6800	0	33.8480	0	26.800	0	314.507	0	-1e10	8	-1e10	8	-1E+10	1	-1E+10	1	-1E+10	1	-1E+10	1	-1E+10	1	-1E+10	1
4902554	105	C	01/05/2024	17:57	-133.819	47.598	0	318.40	0	4.6700	0	33.8490	0	26.802	0	315.497	0	-1e10	8	-1e10	8	-1E+10	1	-1E+10	1	-1E+10	1	-1E+10	1	-1E+10	1	-1E+10	1
4902554	105	C	01/05/2024	17:57	-133.819	47.598	0	319.40	0	4.6610	0	33.8500	0	26.804	0	316.487	0	-1e10	8	-1e10	8	-1E+10	1	-1E+10	1	-1E+10	1	-1E+10	1	-1E+10	1	-1E+10	1
4902554	105	C	01/05/2024	17:57	-133.819	47.598	0	320.40	0	4.6570	0	33.8500	0	26.805	0	317.477	0	-1e10	8	-1e10	8	-1E+10	1	-1E+10	1	-1E+10	1	-1E+10	1	-1E+10	1	-1E+10	1
4902554	105	C	01/05/2024	17:57	-133.819	47.598	0	321.50	0	4.6560	0	33.8510	0	26.806	0	318.566	0	-1e10	8	-1e10	8	-1E+10	1	-1E+10	1	-1E+10	1	-1E+10	1	-1E+10	1	-1E+10	1
4902554	105	C	01/05/2024	17:57	-133.819	47.598	0	322.50	0	4.6520	0	33.8520	0	26.807	0	319.556	0	-1e10	8	-1e10	8	-1E+10	1	-1E+10	1	-1E+10	1	-1E+10	1	-1E+10	1	-1E+10	1
4902554	105	C	01/05/2024	17:57	-133.819	47.598	0	323.50	0	4.6450	0	33.8550	0	26.810	0	320.546	0	-1e10	8	-1e10	8	-1E+10	1	-1E+10	1	-1E+10	1	-1E+10	1	-1E+10	1	-1E+10	1
4902554	105	C	01/05/2024	17:57	-133.819	47.598	0	324.50	0	4.6430	0	33.8550	0	26.810	0	321.536	0	-1e10	8	-1e10	8	-1E+10	1	-1E+10	1	-1E+10	1	-1E+10	1	-1E+10	1	-1E+10	1
4902554	105	C	01/05/2024	17:57	-133.819	47.598	0	325.60	0	4.6430	0	33.8560	0	26.811	0	322.625	0	-1e10	8	-1e10	8	-1E+10	1	-1E+10	1	-1E+10	1	-1E+10	1	-1E+10	1	-1E+10	1
4902554	105	C	01/05/2024	17:57	-133.819	47.598	0	326.50	0	4.6420	0	33.8560	0	26.811	0	323.517	0	-1e10	8	-1e10	8	-1E+10	1	-1E+10	1	-1E+10	1	-1E+10	1	-1E+10	1	-1E+10	1
4902554	105	C	01/05/2024	17:57	-133.819	47.598	0	327.60	0	4.6310	0	33.8570	0	26.813	0	324.606	0	-1e10	8	-1e10	8	-1E+10	1	-1E+10	1	-1E+10	1	-1E+10	1	-1E+10	1	-1E+10	1
4902554	105	C	01/05/2024	17:57	-133.819	47.598	0	328.60	0	4.6300	0	33.8570	0	26.813	0	325.596	0	-1e10	8	-1e10	8	-1E+10	1	-1E+10	1	-1E+10	1	-1E+10	1	-1E+10	1	-1E+10	1
4902554	105	C	01/05/2024	17:57	-133.819	47.598	0	329.60	0	4.6260	0	33.8590	0	26.815	0	326.586	0	-1e10	8	-1e10	8	-1E+10	1	-1E+10	1	-1E+10	1	-1E+10	1	-1E+10	1	-1E+10	1
4902554	105	C	01/05/2024	17:57	-133.819	47.598	0	330.60	0	4.6240	0	33.8600	0	26.816	0	327.576	0	-1e10	8	-1e10	8	-1E+10	1	-1E+10	1	-1E+10	1	-1E+10	1	-1E+10	1	-1E+10	1
4902554	105	C	01/05/2024	17:57	-133.819	47.598	0	331.60	0	4.6160	0	33.8610	0	26.818	0	328.566	0	-1e10	8	-1e10	8	-1E+10	1	-1E+10	1	-1E+10	1	-1E+10	1	-1E+10	1	-1E+10	1
4902554	105	C	01/05/2024	17:57	-133.819	47.598	0	332.70	0	4.5930	0	33.8660	0	26.824	0	329.655	0	-1e10	8	-1e10	8	-1E+10	1	-1E+10	1	-1E+10	1	-1E+10	1	-1E+10	1	-1E+10	1
4902554	105	C	01/05/2024	17:57	-133.819	47.598	0	333.70	0	4.5820	0	33.8670	0	26.826	0	330.645	0	-1e10	8	-1e10	8	-1E+10	1	-1E+10	1	-1E+10	1	-1E+10	1	-1E+10	1	-1E+10	1
4902554	105	C	01/05/2024	17:57	-133.819	47.598	0	334.70	0	4.5800	0	33.8680	0	26.827	0	331.635	0	-1e10	8	-1e10	8	-1E+10	1	-1E+10	1	-1E+10	1	-1E+10	1	-1E+10	1	-1E+10	1
4902554	105	C	01/05/2024	17:57	-133.819	47.598	0	335.70	0	4.5760	0	33.8690	0	26.829	0	332.625	0	-1e10	8	-1e10	8	-1E+10	1	-1E+10	1	-1E+10	1	-1E+10	1	-1E+10	1	-1E+10	1
4902554	105	C	01/05/2024	17:57	-133.819	47.598	0	336.70	0	4.5700	0	33.8700	0	26.830	0	333.615	0	-1e10	8	-1e10	8	-1E+10	1	-1E+10	1	-1E+10	1	-1E+10	1	-1E+10	1	-1E+10	1
4902554	105	C	01/05/2024	17:57	-133.819	47.598	0	337.80	0	4.5640	0	33.8720	0	26.832	0	334.704	0	-1e10	8	-1e10	8	-1E+10	1	-1E+10	1	-1E+10	1	-1E+10	1	-1E+10	1	-1E+10	1
4902554	105	C	01/05/2024	17:57	-133.819	47.598	0	338.80	0	4.5590	0	33.8720	0	26.833	0	335.694	0	-1e10	8	-1e10	8	-1E+10	1	-1E+10	1	-1E+10	1	-1E+10	1	-1E+10	1	-1E+10	1
4902554	105	C	01/05/2024	17:57	-133.819	47.598	0	339.80	0	4.5570	0	33.8730	0	26.834	0	336.684	0	-1e10	8	-1e10	8	-1E+10	1	-1E+10	1	-1E+10	1	-1E+10	1	-1E+10	1	-1E+10	1
4902554	105	C	01/05/2024	17:57	-133.819	47.598	0	340.80	0	4.5480	0	33.8730	0	26.835	0	337.674	0	-1e10	8	-1e10	8	-1E+10	1	-1E+10	1	-1E+10	1	-1E+10	1	-1E+10	1	-1E+10	1
4902554	105	C	01/05/2024	17:57	-133.819	47.598	0	341.90	0	4.5430	0	33.8730	0	26.835	0	338.763	0	-1e10	8	-1e10	8	-1E+10	1	-1E+10	1	-1E+10	1	-1E+10	1	-1E+10	1	-1E+10	1
4902554	105	C	01/05/2024	17:57	-133.819	47.598	0	342.90	0	4.5370	0	33.8740	0	26.837	0	339.753	0	-1e10	8	-1e10	8	-1E+10	1	-1E+10	1	-1E+10	1	-1E+10	1	-1E+10	1	-1E+10	1
4902554	105	C	01/05/2024	17:57	-133.819	47.598	0	343.90	0	4.5410	0	33.8750	0	26.837	0	340.743	0	-1e10	8	-1e10	8	-1E+10	1	-1E+10	1	-1E+10	1	-1E+10	1	-1E+10	1	-1E+10	1
4902554	105	C	01/05/2024	17:57	-133.819	47.598	0	345.00	0	4.5400	0	33.8760	0	26.838	0	341.832	0	-1e10	8	-1e10	8	-1E+10	1	-1E+10	1	-1E+10	1	-1E+10	1	-1E+10	1	-1E+10	1
4902554	105	C	01/05/2024	17:57	-133.819	47.598	0	346.00	0	4.5370	0	33.8760	0	26.838	0	342.822	0	-1e10	8	-1e10	8	-1E+10	1	-1E+10	1	-1E+10	1	-1E+10	1	-1E+10	1	-1E+10	1
4902554	105	C	01/05/2024	17:57	-133.819	47.598	0	347.00	0	4.5300	0	33.8770	0	26.840	0	343.812	0	-1e10	8	-1e10	8	-1E+10	1	-1E+10	1	-1E+10	1	-1E+10	1	-1E+10	1	-1E+10	1
4902554	105	C	01/05/2024	17:57	-133.819	47.598	0	348.00	0	4.5060	0	33.8780	0	26.843	0	344.802	0	-1e10	8	-1e10	8	-1E+10	1	-1E+10	1	-1E+10	1	-1E+10	1	-1E+10	1	-1E+10	1
4902554	105	C	01/05/2024	17:57	-133.819	47.598	0	349.10	0	4.5050	0	33.8790	0	26.844	0	345.891	0	-1e10	8	-1e10	8	-1E+10	1	-1E+10	1	-1E+10	1	-1E+10	1	-1E+10	1	-1E+10	1
4902554	105	C	01/05/2024	17:57	-133.819	47.598	0	350.10	0	4.4920	0	33.8810	0	26.847	0	346.881	0	-1e10	8	-1e10	8	-1E+10	1	-1E+10	1	-1E+10	1	-1E+10	1	-1E+10	1	-1E+10	1
4902554	105	C	01/05/2024	17:57	-133.819	47.598	0	353.10	0	4.4610	0	33.8800	0	26.850	0	349.851	0	-1e10	8	-1e10	8	-1E+10	1	-1E+10	1	-1E+10	1	-1E+10	1	-1E+10	1	-1E+10	1
4902554	105	C	01/05/2024	17:57	-133.819	47.598	0	358.30	0	4.4270	0	33.8810	0	26.854	0	354.999	0	-1e10	8	-1e10	8	-1E+10	1	-1E+10	1	-1E+10	1	-1E+10	1	-1E+10	1	-1E+10	1
4902554	105	C	01/05/2024	17:57	-133.819	47.598	0	363.00	0	4.3820	0	33.8850	0	26.862	0	359.651	0	-1e10	8	-1e10	8	-1E+10	1	-1E+10	1	-1E+10	1	-1E+10	1	-1E+10	1	-1E+10	1
4902554	105	C	01/05/2024	17:57	-133.819	47.598	0	367.70	0	4.3660	0	33.8890	0	26.867	0	364.304	0	-1e10	8	-1e10	8	-1E+10	1	-1E+10	1	-1E+10	1	-1E+10	1	-1E+10	1	-1E+10	1
4902554	105	C	01/05/2024	17:57	-133.819	47.598	0	372.80	0	4.3560	0	33.8920	0	26.871	0	369.352	0	-1e10	8	-1e10	8	-1E+10	1	-1E+10	1	-1E+10	1	-1E+10	1	-1E+10	1	-1E+10	1
4902554	105	C	01/05/2024	17:57	-133.819	47.598	0	377.80	0	4.3170	0	33.8990	0	26.880	0	374.301	0	-1e10	8	-1e10	8	-1E+10	1	-1E+10	1	-1E+10	1	-1E+10	1	-1E+10	1	-1E+10	1
4902554	105	C	01/05/2024	17:57	-133.819	47.598	0	383.00	0	4.2900	0	33.9100	0	26.892	0	379.449	0	-1e10	8	-1e10	8	-1E+10	1	-1E+10	1	-1E+10	1	-1E+10	1	-1E+10	1	-1E+10	1
4902554	105	C	01/05/2024	17:57	-133.819	47.598	0	387.80	0	4.2880	0	33.9130	0	26.895	0	384.200	0	-1e10	8	-1e10	8	-1E+10	1	-1E+10	1	-1E+10	1	-1E+10	1	-1E+10	1	-1E+10	1
4902554	105	C	01/05/2024	17:57	-133.819	47.598	0	393.00	0	4.2870	0	33.9150	0	26.896	0	389.346	0	-1e10	8	-1e10	8	-1E+10	1	-1E+10	1	-1E+10	1	-1E+10	1	-1E+10	1	-1E+10	1
4902554	105	C	01/05/2024	17:57	-133.819	47.598	0	398.20	0	4.2950	0	33.9300	0	26.908	0	394.493	0	-1e10	8	-1e10	8	-1E+10	1	-1E+10	1	-1E+10	1	-1E+10	1	-1E+10	1	-1E+10	1
4902554	105	C	01/05/2024	17:57	-133.819	47.598	0	403.20	0	4.3610	0	33.9500	0	26.916	0	399.442	0	-1e10	8	-1e10	8	-1E+10	1	-1E+10	1	-1E+10	1	-1E+10	1	-1E+10	1	-1E+10	1
4902554	105	C	01/05/2024	17:57	-133.819	47.598	0	408.30	0	4.3720	0	33.9590	0	26.923	0	404.489	0	-1e10	8	-1e10	8	-1E+10	1	-1E+10	1	-1E+10	1	-1E+10	1	-1E+10	1	-1E+10	1
4902554	105	C	01/05/2024	17:57	-133.819	47.598	0	412.90	0	4.3680	0	33.9640	0	26.927	0	409.042	0	-1e10	8	-1e10	8	-1E+10	1	-1E+10	1	-1E+10	1	-1E+10	1	-1E+10	1	-1E+10	1
4902554	105	C	01/05/2024	17:57	-133.819	47.598	0	417.60	0	4.3460	0	33.9730	0	26.936	0	413.693	0	-1e10	8	-1e10	8	-1E+10	1	-1E+10	1	-1E+10	1	-1E+10	1	-1E+10	1	-1E+10	1
4902554	105	C	01/05/2024	17:57	-133.819	47.598	0	422.90	0	4.3240	0	33.9780	0	26.943	0	418.938	0	-1e10	8	-1e10	8	-1E+10	1	-1E+10	1	-1E+10	1	-1E+10	1	-1E+10	1	-1E+10	1
4902554	105	C	01/05/2024	17:57	-133.819	47.598	0	427.80	0	4.3210	0	33.9830	0	26.947	0	423.787	0	-1e10	8	-1e10	8	-1E+10	1	-1E+10	1	-1E+10	1	-1E+10	1	-1E+10	1	-1E+10	1
4902554	105	C	01/05/2024	17:57	-133.819	47.598	0	432.60	0	4.3060	0	33.9890	0	26.954	0	428.537	0	-1e10	8	-1e10	8	-1E+10	1	-1E+10	1	-1E+10	1	-1E+10	1	-1E+10	1	-1E+10	1
4902554	105	C	01/05/2024	17:57	-133.819	47.598	0	438.10	0	4.2890	0	33.9940	0	26.959	0	433.980	0	-1e10	8	-1e10	8	-1E+10	1	-1E+10	1	-1E+10	1	-1E+10	1	-1E+10	1	-1E+10	1
4902554	105	C	01/05/2024	17:57	-133.819	47.598	0	443.10	0	4.2670	0	33.9970	0	26.964	0	438.928	0	-1e10	8	-1e10	8	-1E+10	1	-1E+10	1	-1E+10	1	-1E+10	1	-1E+10	1	-1E+10	1
4902554	105	C	01/05/2024	17:57	-133.819	47.598	0	447.80	0	4.2500	0	34.0020	0	26.970	0	443.578	0	-1e10	8	-1e10	8	-1E+10	1	-1E+10	1	-1E+10	1	-1E+10	1	-1E+10	1	-1E+10	1
4902554	105	C	01/05/2024	17:57	-133.819	47.598	0	452.90	0	4.2480	0	34.0030	0	26.971	0	448.625	0	-1e10	8	-1e10	8	-1E+10	1	-1E+10	1	-1E+10	1	-1E+10	1	-1E+10	1	-1E+10	1
4902554	105	C	01/05/2024	17:57	-133.819	47.598	0	458.00	0	4.2150	0	34.0060	0	26.977	0	453.671	0	-1e10	8	-1e10	8	-1E+10	1	-1E+10	1	-1E+10	1	-1E+10	1	-1E+10	1	-1E+10	1
4902554	105	C	01/05/2024	17:57	-133.819	47.598	0	462.70	0	4.1940	0	34.0080	0	26.981	0	458.322	0	-1e10	8	-1e10	8	-1E+10	1	-1E+10	1	-1E+10	1	-1E+10	1	-1E+10	1	-1E+10	1
4902554	105	C	01/05/2024	17:57	-133.819	47.598	0	467.80	0	4.1980	0	34.0160	0	26.987	0	463.368	0	-1e10	8	-1e10	8	-1E+10	1	-1E+10	1	-1E+10	1	-1E+10	1	-1E+10	1	-1E+10	1
4902554	105	C	01/05/2024	17:57	-133.819	47.598	0	473.00	0	4.1820	0	34.0190	0	26.991	0	468.512	0	-1e10	8	-1e10	8	-1E+10	1	-1E+10	1	-1E+10	1	-1E+10	1	-1E+10	1	-1E+10	1
4902554	105	C	01/05/2024	17:57	-133.819	47.598	0	477.70	0	4.1710	0	34.0240	0	26.996	0	473.163	0	-1e10	8	-1e10	8	-1E+10	1	-1E+10	1	-1E+10	1	-1E+10	1	-1E+10	1	-1E+10	1
4902554	105	C	01/05/2024	17:57	-133.819	47.598	0	482.90	0	4.1460	0	34.0320	0	27.005	0	478.307	0	-1e10	8	-1e10	8	-1E+10	1	-1E+10	1	-1E+10	1	-1E+10	1	-1E+10	1	-1E+10	1
4902554	105	C	01/05/2024	17:57	-133.819	47.598	0	488.20	0	4.1300	0	34.0370	0	27.010	0	483.551	0	-1e10	8	-1e10	8	-1E+10	1	-1E+10	1	-1E+10	1	-1E+10	1	-1E+10	1	-1E+10	1
4902554	105	C	01/05/2024	17:57	-133.819	47.598	0	493.00	0	4.1160	0	34.0440	0	27.017	0	488.299	0	-1e10	8	-1e10	8	-1E+10	1	-1E+10	1	-1E+10	1	-1E+10	1	-1E+10	1	-1E+10	1
4902554	105	C	01/05/2024	17:57	-133.819	47.598	0	497.90	0	4.1070	0	34.0500	0	27.023	0	493.147	0	-1e10	8	-1e10	8	-1E+10	1	-1E+10	1	-1E+10	1	-1E+10	1	-1E+10	1	-1E+10	1
4902554	105	C	01/05/2024	17:57	-133.819	47.598	0	502.90	0	4.1000	0	34.0560	0	27.029	0	498.093	0	-1e10	8	-1e10	8	-1E+10	1	-1E+10	1	-1E+10	1	-1E+10	1	-1E+10	1	-1E+10	1
4902554	105	C	01/05/2024	17:57	-133.819	47.598	0	507.80	0	4.0990	0	34.0650	0	27.036	0	502.940	0	-1e10	8	-1e10	8	-1E+10	1	-1E+10	1	-1E+10	1	-1E+10	1	-1E+10	1	-1E+10	1
4902554	105	C	01/05/2024	17:57	-133.819	47.598	0	512.80	0	4.1050	0	34.0720	0	27.041	0	507.886	0	-1e10	8	-1e10	8	-1E+10	1	-1E+10	1	-1E+10	1	-1E+10	1	-1E+10	1	-1E+10	1
4902554	105	C	01/05/2024	17:57	-133.819	47.598	0	518.00	0	4.1120	0	34.0760	0	27.044	0	513.030	0	-1e10	8	-1e10	8	-1E+10	1	-1E+10	1	-1E+10	1	-1E+10	1	-1E+10	1	-1E+10	1
4902554	105	C	01/05/2024	17:57	-133.819	47.598	0	523.10	0	4.1100	0	34.0820	0	27.049	0	518.075	0	-1e10	8	-1e10	8	-1E+10	1	-1E+10	1	-1E+10	1	-1E+10	1	-1E+10	1	-1E+10	1
4902554	105	C	01/05/2024	17:57	-133.819	47.598	0	528.20	0	4.1210	0	34.0910	0	27.055	0	523.119	0	-1e10	8	-1e10	8	-1E+10	1	-1E+10	1	-1E+10	1	-1E+10	1	-1E+10	1	-1E+10	1
4902554	105	C	01/05/2024	17:57	-133.819	47.598	0	533.30	0	4.1220	0	34.0970	0	27.059	0	528.164	0	-1e10	8	-1e10	8	-1E+10	1	-1E+10	1	-1E+10	1	-1E+10	1	-1E+10	1	-1E+10	1
4902554	105	C	01/05/2024	17:57	-133.819	47.598	0	538.40	0	4.1180	0	34.1050	0	27.066	0	533.208	0	-1e10	8	-1e10	8	-1E+10	1	-1E+10	1	-1E+10	1	-1E+10	1	-1E+10	1	-1E+10	1
4902554	105	C	01/05/2024	17:57	-133.819	47.598	0	543.00	0	4.1030	0	34.1080	0	27.070	0	537.758	0	-1e10	8	-1e10	8	-1E+10	1	-1E+10	1	-1E+10	1	-1E+10	1	-1E+10	1	-1E+10	1
4902554	105	C	01/05/2024	17:57	-133.819	47.598	0	547.60	0	4.0900	0	34.1110	0	27.074	0	542.307	0	-1e10	8	-1e10	8	-1E+10	1	-1E+10	1	-1E+10	1	-1E+10	1	-1E+10	1	-1E+10	1
4902554	105	C	01/05/2024	17:57	-133.819	47.598	0	552.60	0	4.0630	0	34.1120	0	27.077	0	547.252	0	-1e10	8	-1e10	8	-1E+10	1	-1E+10	1	-1E+10	1	-1E+10	1	-1E+10	1	-1E+10	1
4902554	105	C	01/05/2024	17:57	-133.819	47.598	0	557.70	0	4.0610	0	34.1180	0	27.082	0	552.296	0	-1e10	8	-1e10	8	-1E+10	1	-1E+10	1	-1E+10	1	-1E+10	1	-1E+10	1	-1E+10	1
4902554	105	C	01/05/2024	17:57	-133.819	47.598	0	562.70	0	4.0600	0	34.1270	0	27.090	0	557.241	0	-1e10	8	-1e10	8	-1E+10	1	-1E+10	1	-1E+10	1	-1E+10	1	-1E+10	1	-1E+10	1
4902554	105	C	01/05/2024	17:57	-133.819	47.598	0	567.80	0	4.0410	0	34.1300	0	27.094	0	562.285	0	-1e10	8	-1e10	8	-1E+10	1	-1E+10	1	-1E+10	1	-1E+10	1	-1E+10	1	-1E+10	1
4902554	105	C	01/05/2024	17:57	-133.819	47.598	0	572.80	0	4.0340	0	34.1360	0	27.100	0	567.229	0	-1e10	8	-1e10	8	-1E+10	1	-1E+10	1	-1E+10	1	-1E+10	1	-1E+10	1	-1E+10	1
4902554	105	C	01/05/2024	17:57	-133.819	47.598	0	577.70	0	4.0400	0	34.1420	0	27.104	0	572.075	0	-1e10	8	-1e10	8	-1E+10	1	-1E+10	1	-1E+10	1	-1E+10	1	-1E+10	1	-1E+10	1
4902554	105	C	01/05/2024	17:57	-133.819	47.598	0	582.80	0	4.0300	0	34.1470	0	27.109	0	577.118	0	-1e10	8	-1e10	8	-1E+10	1	-1E+10	1	-1E+10	1	-1E+10	1	-1E+10	1	-1E+10	1
4902554	105	C	01/05/2024	17:57	-133.819	47.598	0	588.00	0	3.9940	0	34.1500	0	27.115	0	582.260	0	-1e10	8	-1e10	8	-1E+10	1	-1E+10	1	-1E+10	1	-1E+10	1	-1E+10	1	-1E+10	1
4902554	105	C	01/05/2024	17:57	-133.819	47.598	0	593.00	0	3.9580	0	34.1520	0	27.120	0	587.205	0	-1e10	8	-1e10	8	-1E+10	1	-1E+10	1	-1E+10	1	-1E+10	1	-1E+10	1	-1E+10	1
4902554	105	C	01/05/2024	17:57	-133.819	47.598	0	598.10	0	3.9380	0	34.1540	0	27.124	0	592.247	0	-1e10	8	-1e10	8	-1E+10	1	-1E+10	1	-1E+10	1	-1E+10	1	-1E+10	1	-1E+10	1
4902554	105	C	01/05/2024	17:57	-133.819	47.598	0	603.20	0	3.9080	0	34.1570	0	27.129	0	597.290	0	-1e10	8	-1e10	8	-1E+10	1	-1E+10	1	-1E+10	1	-1E+10	1	-1E+10	1	-1E+10	1
4902554	105	C	01/05/2024	17:57	-133.819	47.598	0	608.00	0	3.8860	0	34.1620	0	27.136	0	602.036	0	-1e10	8	-1e10	8	-1E+10	1	-1E+10	1	-1E+10	1	-1E+10	1	-1E+10	1	-1E+10	1
4902554	105	C	01/05/2024	17:57	-133.819	47.598	0	612.80	0	3.8730	0	34.1660	0	27.140	0	606.782	0	-1e10	8	-1e10	8	-1E+10	1	-1E+10	1	-1E+10	1	-1E+10	1	-1E+10	1	-1E+10	1
4902554	105	C	01/05/2024	17:57	-133.819	47.598	0	617.80	0	3.8690	0	34.1690	0	27.143	0	611.726	0	-1e10	8	-1e10	8	-1E+10	1	-1E+10	1	-1E+10	1	-1E+10	1	-1E+10	1	-1E+10	1
4902554	105	C	01/05/2024	17:57	-133.819	47.598	0	622.90	0	3.8600	0	34.1730	0	27.147	0	616.768	0	-1e10	8	-1e10	8	-1E+10	1	-1E+10	1	-1E+10	1	-1E+10	1	-1E+10	1	-1E+10	1
4902554	105	C	01/05/2024	17:57	-133.819	47.598	0	628.10	0	3.8370	0	34.1800	0	27.155	0	621.909	0	-1e10	8	-1e10	8	-1E+10	1	-1E+10	1	-1E+10	1	-1E+10	1	-1E+10	1	-1E+10	1
4902554	105	C	01/05/2024	17:57	-133.819	47.598	0	632.90	0	3.8300	0	34.1820	0	27.157	0	626.655	0	-1e10	8	-1e10	8	-1E+10	1	-1E+10	1	-1E+10	1	-1E+10	1	-1E+10	1	-1E+10	1
4902554	105	C	01/05/2024	17:57	-133.819	47.598	0	637.90	0	3.8100	0	34.1850	0	27.162	0	631.598	0	-1e10	8	-1e10	8	-1E+10	1	-1E+10	1	-1E+10	1	-1E+10	1	-1E+10	1	-1E+10	1
4902554	105	C	01/05/2024	17:57	-133.819	47.598	0	642.90	0	3.8110	0	34.1880	0	27.164	0	636.541	0	-1e10	8	-1e10	8	-1E+10	1	-1E+10	1	-1E+10	1	-1E+10	1	-1E+10	1	-1E+10	1
4902554	105	C	01/05/2024	17:57	-133.819	47.598	0	647.90	0	3.8070	0	34.1910	0	27.167	0	641.483	0	-1e10	8	-1e10	8	-1E+10	1	-1E+10	1	-1E+10	1	-1E+10	1	-1E+10	1	-1E+10	1
4902554	105	C	01/05/2024	17:57	-133.819	47.598	0	653.00	0	3.8060	0	34.1950	0	27.170	0	646.525	0	-1e10	8	-1e10	8	-1E+10	1	-1E+10	1	-1E+10	1	-1E+10	1	-1E+10	1	-1E+10	1
4902554	105	C	01/05/2024	17:57	-133.819	47.598	0	658.10	0	3.7960	0	34.1960	0	27.172	0	651.566	0	-1e10	8	-1e10	8	-1E+10	1	-1E+10	1	-1E+10	1	-1E+10	1	-1E+10	1	-1E+10	1
4902554	105	C	01/05/2024	17:57	-133.819	47.598	0	663.20	0	3.7880	0	34.1970	0	27.174	0	656.608	0	-1e10	8	-1e10	8	-1E+10	1	-1E+10	1	-1E+10	1	-1E+10	1	-1E+10	1	-1E+10	1
4902554	105	C	01/05/2024	17:57	-133.819	47.598	0	667.80	0	3.7860	0	34.1970	0	27.174	0	661.155	0	-1e10	8	-1e10	8	-1E+10	1	-1E+10	1	-1E+10	1	-1E+10	1	-1E+10	1	-1E+10	1
4902554	105	C	01/05/2024	17:57	-133.819	47.598	0	672.50	0	3.7780	0	34.2020	0	27.179	0	665.801	0	-1e10	8	-1e10	8	-1E+10	1	-1E+10	1	-1E+10	1	-1E+10	1	-1E+10	1	-1E+10	1
4902554	105	C	01/05/2024	17:57	-133.819	47.598	0	677.80	0	3.7710	0	34.2050	0	27.182	0	671.039	0	-1e10	8	-1e10	8	-1E+10	1	-1E+10	1	-1E+10	1	-1E+10	1	-1E+10	1	-1E+10	1
4902554	105	C	01/05/2024	17:57	-133.819	47.598	0	683.10	0	3.7730	0	34.2100	0	27.186	0	676.278	0	-1e10	8	-1e10	8	-1E+10	1	-1E+10	1	-1E+10	1	-1E+10	1	-1E+10	1	-1E+10	1
4902554	105	C	01/05/2024	17:57	-133.819	47.598	0	687.80	0	3.7740	0	34.2120	0	27.187	0	680.923	0	-1e10	8	-1e10	8	-1E+10	1	-1E+10	1	-1E+10	1	-1E+10	1	-1E+10	1	-1E+10	1
4902554	105	C	01/05/2024	17:57	-133.819	47.598	0	692.60	0	3.7580	0	34.2170	0	27.193	0	685.667	0	-1e10	8	-1e10	8	-1E+10	1	-1E+10	1	-1E+10	1	-1E+10	1	-1E+10	1	-1E+10	1
4902554	105	C	01/05/2024	17:57	-133.819	47.598	0	697.90	0	3.7630	0	34.2210	0	27.196	0	690.905	0	-1e10	8	-1e10	8	-1E+10	1	-1E+10	1	-1E+10	1	-1E+10	1	-1E+10	1	-1E+10	1
4902554	105	C	01/05/2024	17:57	-133.819	47.598	0	702.90	0	3.7580	0	34.2250	0	27.199	0	695.847	0	-1e10	8	-1e10	8	-1E+10	1	-1E+10	1	-1E+10	1	-1E+10	1	-1E+10	1	-1E+10	1
4902554	105	C	01/05/2024	17:57	-133.819	47.598	0	708.00	0	3.7630	0	34.2310	0	27.204	0	700.887	0	-1e10	8	-1e10	8	-1E+10	1	-1E+10	1	-1E+10	1	-1E+10	1	-1E+10	1	-1E+10	1
4902554	105	C	01/05/2024	17:57	-133.819	47.598	0	713.30	0	3.7610	0	34.2350	0	27.207	0	706.125	0	-1e10	8	-1e10	8	-1E+10	1	-1E+10	1	-1E+10	1	-1E+10	1	-1E+10	1	-1E+10	1
4902554	105	C	01/05/2024	17:57	-133.819	47.598	0	718.20	0	3.7440	0	34.2390	0	27.212	0	710.967	0	-1e10	8	-1e10	8	-1E+10	1	-1E+10	1	-1E+10	1	-1E+10	1	-1E+10	1	-1E+10	1
4902554	105	C	01/05/2024	17:57	-133.819	47.598	0	723.10	0	3.7370	0	34.2400	0	27.213	0	715.810	0	-1e10	8	-1e10	8	-1E+10	1	-1E+10	1	-1E+10	1	-1E+10	1	-1E+10	1	-1E+10	1
4902554	105	C	01/05/2024	17:57	-133.819	47.598	0	728.20	0	3.7330	0	34.2410	0	27.215	0	720.849	0	-1e10	8	-1e10	8	-1E+10	1	-1E+10	1	-1E+10	1	-1E+10	1	-1E+10	1	-1E+10	1
4902554	105	C	01/05/2024	17:57	-133.819	47.598	0	733.20	0	3.7290	0	34.2420	0	27.216	0	725.790	0	-1e10	8	-1e10	8	-1E+10	1	-1E+10	1	-1E+10	1	-1E+10	1	-1E+10	1	-1E+10	1
4902554	105	C	01/05/2024	17:57	-133.819	47.598	0	738.20	0	3.7260	0	34.2490	0	27.222	0	730.731	0	-1e10	8	-1e10	8	-1E+10	1	-1E+10	1	-1E+10	1	-1E+10	1	-1E+10	1	-1E+10	1
4902554	105	C	01/05/2024	17:57	-133.819	47.598	0	742.90	0	3.7210	0	34.2570	0	27.229	0	735.375	0	-1e10	8	-1e10	8	-1E+10	1	-1E+10	1	-1E+10	1	-1E+10	1	-1E+10	1	-1E+10	1
4902554	105	C	01/05/2024	17:57	-133.819	47.598	0	747.50	0	3.7120	0	34.2600	0	27.232	0	739.920	0	-1e10	8	-1e10	8	-1E+10	1	-1E+10	1	-1E+10	1	-1E+10	1	-1E+10	1	-1E+10	1
4902554	105	C	01/05/2024	17:57	-133.819	47.598	0	752.60	0	3.7030	0	34.2630	0	27.235	0	744.960	0	-1e10	8	-1e10	8	-1E+10	1	-1E+10	1	-1E+10	1	-1E+10	1	-1E+10	1	-1E+10	1
4902554	105	C	01/05/2024	17:57	-133.819	47.598	0	757.70	0	3.6980	0	34.2670	0	27.239	0	749.999	0	-1e10	8	-1e10	8	-1E+10	1	-1E+10	1	-1E+10	1	-1E+10	1	-1E+10	1	-1E+10	1
4902554	105	C	01/05/2024	17:57	-133.819	47.598	0	762.90	0	3.6900	0	34.2690	0	27.241	0	755.136	0	-1e10	8	-1e10	8	-1E+10	1	-1E+10	1	-1E+10	1	-1E+10	1	-1E+10	1	-1E+10	1
4902554	105	C	01/05/2024	17:57	-133.819	47.598	0	768.00	0	3.6790	0	34.2720	0	27.245	0	760.175	0	-1e10	8	-1e10	8	-1E+10	1	-1E+10	1	-1E+10	1	-1E+10	1	-1E+10	1	-1E+10	1
4902554	105	C	01/05/2024	17:57	-133.819	47.598	0	773.10	0	3.6610	0	34.2740	0	27.248	0	765.214	0	-1e10	8	-1e10	8	-1E+10	1	-1E+10	1	-1E+10	1	-1E+10	1	-1E+10	1	-1E+10	1
4902554	105	C	01/05/2024	17:57	-133.819	47.598	0	777.90	0	3.6360	0	34.2750	0	27.252	0	769.956	0	-1e10	8	-1e10	8	-1E+10	1	-1E+10	1	-1E+10	1	-1E+10	1	-1E+10	1	-1E+10	1
4902554	105	C	01/05/2024	17:57	-133.819	47.598	0	782.70	0	3.6180	0	34.2780	0	27.256	0	774.698	0	-1e10	8	-1e10	8	-1E+10	1	-1E+10	1	-1E+10	1	-1E+10	1	-1E+10	1	-1E+10	1
4902554	105	C	01/05/2024	17:57	-133.819	47.598	0	788.00	0	3.5810	0	34.2780	0	27.259	0	779.934	0	-1e10	8	-1e10	8	-1E+10	1	-1E+10	1	-1E+10	1	-1E+10	1	-1E+10	1	-1E+10	1
4902554	105	C	01/05/2024	17:57	-133.819	47.598	0	793.00	0	3.5700	0	34.2810	0	27.263	0	784.874	0	-1e10	8	-1e10	8	-1E+10	1	-1E+10	1	-1E+10	1	-1E+10	1	-1E+10	1	-1E+10	1
4902554	105	C	01/05/2024	17:57	-133.819	47.598	0	798.00	0	3.5530	0	34.2850	0	27.268	0	789.813	0	-1e10	8	-1e10	8	-1E+10	1	-1E+10	1	-1E+10	1	-1E+10	1	-1E+10	1	-1E+10	1
4902554	105	C	01/05/2024	17:57	-133.819	47.598	0	803.10	0	3.5560	0	34.2890	0	27.271	0	794.851	0	-1e10	8	-1e10	8	-1E+10	1	-1E+10	1	-1E+10	1	-1E+10	1	-1E+10	1	-1E+10	1
4902554	105	C	01/05/2024	17:57	-133.819	47.598	0	807.80	0	3.5500	0	34.2920	0	27.274	0	799.494	0	-1e10	8	-1e10	8	-1E+10	1	-1E+10	1	-1E+10	1	-1E+10	1	-1E+10	1	-1E+10	1
4902554	105	C	01/05/2024	17:57	-133.819	47.598	0	813.00	0	3.5190	0	34.2900	0	27.275	0	804.630	0	-1e10	8	-1e10	8	-1E+10	1	-1E+10	1	-1E+10	1	-1E+10	1	-1E+10	1	-1E+10	1
4902554	105	C	01/05/2024	17:57	-133.819	47.598	0	818.20	0	3.4900	0	34.2900	0	27.278	0	809.766	0	-1e10	8	-1e10	8	-1E+10	1	-1E+10	1	-1E+10	1	-1E+10	1	-1E+10	1	-1E+10	1
4902554	105	C	01/05/2024	17:57	-133.819	47.598	0	823.00	0	3.4610	0	34.2910	0	27.282	0	814.508	0	-1e10	8	-1e10	8	-1E+10	1	-1E+10	1	-1E+10	1	-1E+10	1	-1E+10	1	-1E+10	1
4902554	105	C	01/05/2024	17:57	-133.819	47.598	0	827.90	0	3.4470	0	34.2930	0	27.284	0	819.347	0	-1e10	8	-1e10	8	-1E+10	1	-1E+10	1	-1E+10	1	-1E+10	1	-1E+10	1	-1E+10	1
4902554	105	C	01/05/2024	17:57	-133.819	47.598	0	832.80	0	3.4310	0	34.2950	0	27.288	0	824.187	0	-1e10	8	-1e10	8	-1E+10	1	-1E+10	1	-1E+10	1	-1E+10	1	-1E+10	1	-1E+10	1
4902554	105	C	01/05/2024	17:57	-133.819	47.598	0	837.80	0	3.4200	0	34.2970	0	27.290	0	829.126	0	-1e10	8	-1e10	8	-1E+10	1	-1E+10	1	-1E+10	1	-1E+10	1	-1E+10	1	-1E+10	1
4902554	105	C	01/05/2024	17:57	-133.819	47.598	0	842.80	0	3.4120	0	34.3010	0	27.294	0	834.064	0	-1e10	8	-1e10	8	-1E+10	1	-1E+10	1	-1E+10	1	-1E+10	1	-1E+10	1	-1E+10	1
4902554	105	C	01/05/2024	17:57	-133.819	47.598	0	847.80	0	3.4090	0	34.3040	0	27.297	0	839.002	0	-1e10	8	-1e10	8	-1E+10	1	-1E+10	1	-1E+10	1	-1E+10	1	-1E+10	1	-1E+10	1
4902554	105	C	01/05/2024	17:57	-133.819	47.598	0	852.80	0	3.4050	0	34.3050	0	27.298	0	843.940	0	-1e10	8	-1e10	8	-1E+10	1	-1E+10	1	-1E+10	1	-1E+10	1	-1E+10	1	-1E+10	1
4902554	105	C	01/05/2024	17:57	-133.819	47.598	0	857.90	0	3.3840	0	34.3060	0	27.301	0	848.977	0	-1e10	8	-1e10	8	-1E+10	1	-1E+10	1	-1E+10	1	-1E+10	1	-1E+10	1	-1E+10	1
4902554	105	C	01/05/2024	17:57	-133.819	47.598	0	863.00	0	3.3500	0	34.3080	0	27.306	0	854.013	0	-1e10	8	-1e10	8	-1E+10	1	-1E+10	1	-1E+10	1	-1E+10	1	-1E+10	1	-1E+10	1
4902554	105	C	01/05/2024	17:57	-133.819	47.598	0	868.10	0	3.3400	0	34.3090	0	27.308	0	859.050	0	-1e10	8	-1e10	8	-1E+10	1	-1E+10	1	-1E+10	1	-1E+10	1	-1E+10	1	-1E+10	1
4902554	105	C	01/05/2024	17:57	-133.819	47.598	0	873.20	0	3.3260	0	34.3120	0	27.311	0	864.086	0	-1e10	8	-1e10	8	-1E+10	1	-1E+10	1	-1E+10	1	-1E+10	1	-1E+10	1	-1E+10	1
4902554	105	C	01/05/2024	17:57	-133.819	47.598	0	877.90	0	3.3150	0	34.3150	0	27.315	0	868.727	0	-1e10	8	-1e10	8	-1E+10	1	-1E+10	1	-1E+10	1	-1E+10	1	-1E+10	1	-1E+10	1
4902554	105	C	01/05/2024	17:57	-133.819	47.598	0	882.50	0	3.3140	0	34.3150	0	27.315	0	873.269	0	-1e10	8	-1e10	8	-1E+10	1	-1E+10	1	-1E+10	1	-1E+10	1	-1E+10	1	-1E+10	1
4902554	105	C	01/05/2024	17:57	-133.819	47.598	0	887.60	0	3.3030	0	34.3180	0	27.318	0	878.305	0	-1e10	8	-1e10	8	-1E+10	1	-1E+10	1	-1E+10	1	-1E+10	1	-1E+10	1	-1E+10	1
4902554	105	C	01/05/2024	17:57	-133.819	47.598	0	892.90	0	3.2930	0	34.3190	0	27.320	0	883.539	0	-1e10	8	-1e10	8	-1E+10	1	-1E+10	1	-1E+10	1	-1E+10	1	-1E+10	1	-1E+10	1
4902554	105	C	01/05/2024	17:57	-133.819	47.598	0	898.10	0	3.2860	0	34.3210	0	27.322	0	888.673	0	-1e10	8	-1e10	8	-1E+10	1	-1E+10	1	-1E+10	1	-1E+10	1	-1E+10	1	-1E+10	1
4902554	105	C	01/05/2024	17:57	-133.819	47.598	0	903.00	0	3.2850	0	34.3210	0	27.323	0	893.511	0	-1e10	8	-1e10	8	-1E+10	1	-1E+10	1	-1E+10	1	-1E+10	1	-1E+10	1	-1E+10	1
4902554	105	C	01/05/2024	17:57	-133.819	47.598	0	908.00	0	3.2780	0	34.3220	0	27.324	0	898.448	0	-1e10	8	-1e10	8	-1E+10	1	-1E+10	1	-1E+10	1	-1E+10	1	-1E+10	1	-1E+10	1
4902554	105	C	01/05/2024	17:57	-133.819	47.598	0	913.10	0	3.2670	0	34.3280	0	27.330	0	903.483	0	-1e10	8	-1e10	8	-1E+10	1	-1E+10	1	-1E+10	1	-1E+10	1	-1E+10	1	-1E+10	1
4902554	105	C	01/05/2024	17:57	-133.819	47.598	0	917.90	0	3.2640	0	34.3300	0	27.332	0	908.222	0	-1e10	8	-1e10	8	-1E+10	1	-1E+10	1	-1E+10	1	-1E+10	1	-1E+10	1	-1E+10	1
4902554	105	C	01/05/2024	17:57	-133.819	47.598	0	922.60	0	3.2610	0	34.3310	0	27.333	0	912.863	0	-1e10	8	-1e10	8	-1E+10	1	-1E+10	1	-1E+10	1	-1E+10	1	-1E+10	1	-1E+10	1
4902554	105	C	01/05/2024	17:57	-133.819	47.598	0	927.90	0	3.2500	0	34.3330	0	27.336	0	918.095	0	-1e10	8	-1e10	8	-1E+10	1	-1E+10	1	-1E+10	1	-1E+10	1	-1E+10	1	-1E+10	1
4902554	105	C	01/05/2024	17:57	-133.819	47.598	0	932.90	0	3.2360	0	34.3360	0	27.339	0	923.031	0	-1e10	8	-1e10	8	-1E+10	1	-1E+10	1	-1E+10	1	-1E+10	1	-1E+10	1	-1E+10	1
4902554	105	C	01/05/2024	17:57	-133.819	47.598	0	937.80	0	3.2320	0	34.3390	0	27.342	0	927.868	0	-1e10	8	-1e10	8	-1E+10	1	-1E+10	1	-1E+10	1	-1E+10	1	-1E+10	1	-1E+10	1
4902554	105	C	01/05/2024	17:57	-133.819	47.598	0	942.80	0	3.2320	0	34.3440	0	27.346	0	932.804	0	-1e10	8	-1e10	8	-1E+10	1	-1E+10	1	-1E+10	1	-1E+10	1	-1E+10	1	-1E+10	1
4902554	105	C	01/05/2024	17:57	-133.819	47.598	0	947.80	0	3.2310	0	34.3470	0	27.349	0	937.740	0	-1e10	8	-1e10	8	-1E+10	1	-1E+10	1	-1E+10	1	-1E+10	1	-1E+10	1	-1E+10	1
4902554	105	C	01/05/2024	17:57	-133.819	47.598	0	952.90	0	3.2240	0	34.3500	0	27.352	0	942.775	0	-1e10	8	-1e10	8	-1E+10	1	-1E+10	1	-1E+10	1	-1E+10	1	-1E+10	1	-1E+10	1
4902554	105	C	01/05/2024	17:57	-133.819	47.598	0	957.60	0	3.2200	0	34.3510	0	27.353	0	947.414	0	-1e10	8	-1e10	8	-1E+10	1	-1E+10	1	-1E+10	1	-1E+10	1	-1E+10	1	-1E+10	1
4902554	105	C	01/05/2024	17:57	-133.819	47.598	0	962.90	0	3.2130	0	34.3520	0	27.354	0	952.646	0	-1e10	8	-1e10	8	-1E+10	1	-1E+10	1	-1E+10	1	-1E+10	1	-1E+10	1	-1E+10	1
4902554	105	C	01/05/2024	17:57	-133.819	47.598	0	968.10	0	3.2060	0	34.3530	0	27.356	0	957.778	0	-1e10	8	-1e10	8	-1E+10	1	-1E+10	1	-1E+10	1	-1E+10	1	-1E+10	1	-1E+10	1
4902554	105	C	01/05/2024	17:57	-133.819	47.598	0	972.80	0	3.1980	0	34.3540	0	27.357	0	962.417	0	-1e10	8	-1e10	8	-1E+10	1	-1E+10	1	-1E+10	1	-1E+10	1	-1E+10	1	-1E+10	1
4902554	105	C	01/05/2024	17:57	-133.819	47.598	0	978.00	0	3.1950	0	34.3570	0	27.360	0	967.550	0	-1e10	8	-1e10	8	-1E+10	1	-1E+10	1	-1E+10	1	-1E+10	1	-1E+10	1	-1E+10	1
4902554	105	C	01/05/2024	17:57	-133.819	47.598	0	983.20	0	3.1880	0	34.3610	0	27.364	0	972.682	0	-1e10	8	-1e10	8	-1E+10	1	-1E+10	1	-1E+10	1	-1E+10	1	-1E+10	1	-1E+10	1
4902554	105	C	01/05/2024	17:57	-133.819	47.598	0	988.00	0	3.1760	0	34.3630	0	27.367	0	977.420	0	-1e10	8	-1e10	8	-1E+10	1	-1E+10	1	-1E+10	1	-1E+10	1	-1E+10	1	-1E+10	1
4902554	105	C	01/05/2024	17:57	-133.819	47.598	0	992.70	0	3.1620	0	34.3640	0	27.369	0	982.058	0	-1e10	8	-1e10	8	-1E+10	1	-1E+10	1	-1E+10	1	-1E+10	1	-1E+10	1	-1E+10	1
4902554	105	C	01/05/2024	17:57	-133.819	47.598	0	998.00	0	3.1540	0	34.3660	0	27.371	0	987.289	0	-1e10	8	-1e10	8	-1E+10	1	-1E+10	1	-1E+10	1	-1E+10	1	-1E+10	1	-1E+10	1
4902554	105	C	01/05/2024	17:57	-133.819	47.598	0	1005.80	0	3.1380	0	34.3680	0	27.374	0	994.987	0	-1e10	8	-1e10	8	-1E+10	1	-1E+10	1	-1E+10	1	-1E+10	1	-1E+10	1	-1E+10	1
4902554	105	C	01/05/2024	17:57	-133.819	47.598	0	1015.50	0	3.1140	0	34.3690	0	27.377	0	1004.559	0	-1e10	8	-1e10	8	-1E+10	1	-1E+10	1	-1E+10	1	-1E+10	1	-1E+10	1	-1E+10	1
4902554	105	C	01/05/2024	17:57	-133.819	47.598	0	1025.20	0	3.0990	0	34.3710	0	27.380	0	1014.131	0	-1e10	8	-1e10	8	-1E+10	1	-1E+10	1	-1E+10	1	-1E+10	1	-1E+10	1	-1E+10	1
4902554	105	C	01/05/2024	17:57	-133.819	47.598	0	1035.00	0	3.0810	0	34.3740	0	27.385	0	1023.802	0	-1e10	8	-1e10	8	-1E+10	1	-1E+10	1	-1E+10	1	-1E+10	1	-1E+10	1	-1E+10	1
4902554	105	C	01/05/2024	17:57	-133.819	47.598	0	1045.40	0	3.0620	0	34.3760	0	27.388	0	1034.064	0	-1e10	8	-1e10	8	-1E+10	1	-1E+10	1	-1E+10	1	-1E+10	1	-1E+10	1	-1E+10	1
4902554	105	C	01/05/2024	17:57	-133.819	47.598	0	1055.40	0	3.0450	0	34.3790	0	27.392	0	1043.930	0	-1e10	8	-1e10	8	-1E+10	1	-1E+10	1	-1E+10	1	-1E+10	1	-1E+10	1	-1E+10	1
4902554	105	C	01/05/2024	17:57	-133.819	47.598	0	1065.00	0	3.0300	0	34.3830	0	27.396	0	1053.402	0	-1e10	8	-1e10	8	-1E+10	1	-1E+10	1	-1E+10	1	-1E+10	1	-1E+10	1	-1E+10	1
4902554	105	C	01/05/2024	17:57	-133.819	47.598	0	1075.20	0	3.0140	0	34.3870	0	27.401	0	1063.465	0	-1e10	8	-1e10	8	-1E+10	1	-1E+10	1	-1E+10	1	-1E+10	1	-1E+10	1	-1E+10	1
4902554	105	C	01/05/2024	17:57	-133.819	47.598	0	1085.50	0	2.9890	0	34.3900	0	27.406	0	1073.626	0	-1e10	8	-1e10	8	-1E+10	1	-1E+10	1	-1E+10	1	-1E+10	1	-1E+10	1	-1E+10	1
4902554	105	C	01/05/2024	17:57	-133.819	47.598	0	1095.50	0	2.9600	0	34.3960	0	27.413	0	1083.491	0	-1e10	8	-1e10	8	-1E+10	1	-1E+10	1	-1E+10	1	-1E+10	1	-1E+10	1	-1E+10	1
4902554	105	C	01/05/2024	17:57	-133.819	47.598	0	1105.30	0	2.9490	0	34.4010	0	27.418	0	1093.158	0	-1e10	8	-1e10	8	-1E+10	1	-1E+10	1	-1E+10	1	-1E+10	1	-1E+10	1	-1E+10	1
4902554	105	C	01/05/2024	17:57	-133.819	47.598	0	1115.40	0	2.9380	0	34.4060	0	27.423	0	1103.121	0	-1e10	8	-1e10	8	-1E+10	1	-1E+10	1	-1E+10	1	-1E+10	1	-1E+10	1	-1E+10	1
4902554	105	C	01/05/2024	17:57	-133.819	47.598	0	1125.50	0	2.9270	0	34.4110	0	27.428	0	1113.083	0	-1e10	8	-1e10	8	-1E+10	1	-1E+10	1	-1E+10	1	-1E+10	1	-1E+10	1	-1E+10	1
4902554	105	C	01/05/2024	17:57	-133.819	47.598	0	1135.60	0	2.9160	0	34.4140	0	27.432	0	1123.044	0	-1e10	8	-1e10	8	-1E+10	1	-1E+10	1	-1E+10	1	-1E+10	1	-1E+10	1	-1E+10	1
4902554	105	C	01/05/2024	17:57	-133.819	47.598	0	1145.40	0	2.8960	0	34.4180	0	27.437	0	1132.709	0	-1e10	8	-1e10	8	-1E+10	1	-1E+10	1	-1E+10	1	-1E+10	1	-1E+10	1	-1E+10	1
4902554	105	C	01/05/2024	17:57	-133.819	47.598	0	1155.20	0	2.8770	0	34.4210	0	27.441	0	1142.374	0	-1e10	8	-1e10	8	-1E+10	1	-1E+10	1	-1E+10	1	-1E+10	1	-1E+10	1	-1E+10	1
4902554	105	C	01/05/2024	17:57	-133.819	47.598	0	1165.30	0	2.8540	0	34.4250	0	27.446	0	1152.334	0	-1e10	8	-1e10	8	-1E+10	1	-1E+10	1	-1E+10	1	-1E+10	1	-1E+10	1	-1E+10	1
4902554	105	C	01/05/2024	17:57	-133.819	47.598	0	1175.60	0	2.8460	0	34.4270	0	27.449	0	1162.491	0	-1e10	8	-1e10	8	-1E+10	1	-1E+10	1	-1E+10	1	-1E+10	1	-1E+10	1	-1E+10	1
4902554	105	C	01/05/2024	17:57	-133.819	47.598	0	1185.80	0	2.8350	0	34.4290	0	27.451	0	1172.549	0	-1e10	8	-1e10	8	-1E+10	1	-1E+10	1	-1E+10	1	-1E+10	1	-1E+10	1	-1E+10	1
4902554	105	C	01/05/2024	17:57	-133.819	47.598	0	1195.60	0	2.8220	0	34.4300	0	27.453	0	1182.212	0	-1e10	8	-1e10	8	-1E+10	1	-1E+10	1	-1E+10	1	-1E+10	1	-1E+10	1	-1E+10	1
4902554	105	C	01/05/2024	17:57	-133.819	47.598	0	1205.60	0	2.8140	0	34.4310	0	27.455	0	1192.072	0	-1e10	8	-1e10	8	-1E+10	1	-1E+10	1	-1E+10	1	-1E+10	1	-1E+10	1	-1E+10	1
4902554	105	C	01/05/2024	17:57	-133.819	47.598	0	1215.70	0	2.7940	0	34.4360	0	27.461	0	1202.030	0	-1e10	8	-1e10	8	-1E+10	1	-1E+10	1	-1E+10	1	-1E+10	1	-1E+10	1	-1E+10	1
4902554	105	C	01/05/2024	17:57	-133.819	47.598	0	1225.80	0	2.7740	0	34.4390	0	27.465	0	1211.987	0	-1e10	8	-1e10	8	-1E+10	1	-1E+10	1	-1E+10	1	-1E+10	1	-1E+10	1	-1E+10	1
4902554	105	C	01/05/2024	17:57	-133.819	47.598	0	1235.40	0	2.7570	0	34.4430	0	27.470	0	1221.451	0	-1e10	8	-1e10	8	-1E+10	1	-1E+10	1	-1E+10	1	-1E+10	1	-1E+10	1	-1E+10	1
4902554	105	C	01/05/2024	17:57	-133.819	47.598	0	1245.10	0	2.7440	0	34.4450	0	27.472	0	1231.013	0	-1e10	8	-1e10	8	-1E+10	1	-1E+10	1	-1E+10	1	-1E+10	1	-1E+10	1	-1E+10	1
4902554	105	C	01/05/2024	17:57	-133.819	47.598	0	1255.40	0	2.7240	0	34.4480	0	27.477	0	1241.166	0	-1e10	8	-1e10	8	-1E+10	1	-1E+10	1	-1E+10	1	-1E+10	1	-1E+10	1	-1E+10	1
4902554	105	C	01/05/2024	17:57	-133.819	47.598	0	1265.80	0	2.7070	0	34.4500	0	27.480	0	1251.417	0	-1e10	8	-1e10	8	-1E+10	1	-1E+10	1	-1E+10	1	-1E+10	1	-1E+10	1	-1E+10	1
4902554	105	C	01/05/2024	17:57	-133.819	47.598	0	1275.50	0	2.6930	0	34.4510	0	27.482	0	1260.978	0	-1e10	8	-1e10	8	-1E+10	1	-1E+10	1	-1E+10	1	-1E+10	1	-1E+10	1	-1E+10	1
4902554	105	C	01/05/2024	17:57	-133.819	47.598	0	1285.20	0	2.6760	0	34.4540	0	27.486	0	1270.538	0	-1e10	8	-1e10	8	-1E+10	1	-1E+10	1	-1E+10	1	-1E+10	1	-1E+10	1	-1E+10	1
4902554	105	C	01/05/2024	17:57	-133.819	47.598	0	1295.40	0	2.6670	0	34.4560	0	27.488	0	1280.591	0	-1e10	8	-1e10	8	-1E+10	1	-1E+10	1	-1E+10	1	-1E+10	1	-1E+10	1	-1E+10	1
4902554	105	C	01/05/2024	17:57	-133.819	47.598	0	1305.50	0	2.6580	0	34.4570	0	27.490	0	1290.545	0	-1e10	8	-1e10	8	-1E+10	1	-1E+10	1	-1E+10	1	-1E+10	1	-1E+10	1	-1E+10	1
4902554	105	C	01/05/2024	17:57	-133.819	47.598	0	1315.70	0	2.6460	0	34.4600	0	27.493	0	1300.596	0	-1e10	8	-1e10	8	-1E+10	1	-1E+10	1	-1E+10	1	-1E+10	1	-1E+10	1	-1E+10	1
4902554	105	C	01/05/2024	17:57	-133.819	47.598	0	1325.40	0	2.6380	0	34.4630	0	27.496	0	1310.155	0	-1e10	8	-1e10	8	-1E+10	1	-1E+10	1	-1E+10	1	-1E+10	1	-1E+10	1	-1E+10	1
4902554	105	C	01/05/2024	17:57	-133.819	47.598	0	1335.10	0	2.6280	0	34.4660	0	27.500	0	1319.713	0	-1e10	8	-1e10	8	-1E+10	1	-1E+10	1	-1E+10	1	-1E+10	1	-1E+10	1	-1E+10	1
4902554	105	C	01/05/2024	17:57	-133.819	47.598	0	1345.20	0	2.6120	0	34.4680	0	27.503	0	1329.665	0	-1e10	8	-1e10	8	-1E+10	1	-1E+10	1	-1E+10	1	-1E+10	1	-1E+10	1	-1E+10	1
4902554	105	C	01/05/2024	17:57	-133.819	47.598	0	1355.20	0	2.5920	0	34.4720	0	27.508	0	1339.517	0	-1e10	8	-1e10	8	-1E+10	1	-1E+10	1	-1E+10	1	-1E+10	1	-1E+10	1	-1E+10	1
4902554	105	C	01/05/2024	17:57	-133.819	47.598	0	1365.20	0	2.5770	0	34.4740	0	27.511	0	1349.370	0	-1e10	8	-1e10	8	-1E+10	1	-1E+10	1	-1E+10	1	-1E+10	1	-1E+10	1	-1E+10	1
4902554	105	C	01/05/2024	17:57	-133.819	47.598	0	1375.30	0	2.5570	0	34.4780	0	27.516	0	1359.320	0	-1e10	8	-1e10	8	-1E+10	1	-1E+10	1	-1E+10	1	-1E+10	1	-1E+10	1	-1E+10	1
4902554	105	C	01/05/2024	17:57	-133.819	47.598	0	1385.30	0	2.5350	0	34.4810	0	27.520	0	1369.171	0	-1e10	8	-1e10	8	-1E+10	1	-1E+10	1	-1E+10	1	-1E+10	1	-1E+10	1	-1E+10	1
4902554	105	C	01/05/2024	17:57	-133.819	47.598	0	1395.60	0	2.5230	0	34.4830	0	27.523	0	1379.318	0	-1e10	8	-1e10	8	-1E+10	1	-1E+10	1	-1E+10	1	-1E+10	1	-1E+10	1	-1E+10	1
4902554	105	C	01/05/2024	17:57	-133.819	47.598	0	1405.60	0	2.5020	0	34.4870	0	27.528	0	1389.168	0	-1e10	8	-1e10	8	-1E+10	1	-1E+10	1	-1E+10	1	-1E+10	1	-1E+10	1	-1E+10	1
4902554	105	C	01/05/2024	17:57	-133.819	47.598	0	1415.40	0	2.4870	0	34.4890	0	27.530	0	1398.821	0	-1e10	8	-1e10	8	-1E+10	1	-1E+10	1	-1E+10	1	-1E+10	1	-1E+10	1	-1E+10	1
4902554	105	C	01/05/2024	17:57	-133.819	47.598	0	1425.50	0	2.4700	0	34.4910	0	27.534	0	1408.769	0	-1e10	8	-1e10	8	-1E+10	1	-1E+10	1	-1E+10	1	-1E+10	1	-1E+10	1	-1E+10	1
4902554	105	C	01/05/2024	17:57	-133.819	47.598	0	1435.50	0	2.4570	0	34.4930	0	27.536	0	1418.618	0	-1e10	8	-1e10	8	-1E+10	1	-1E+10	1	-1E+10	1	-1E+10	1	-1E+10	1	-1E+10	1
4902554	105	C	01/05/2024	17:57	-133.819	47.598	0	1445.40	0	2.4470	0	34.4950	0	27.539	0	1428.368	0	-1e10	8	-1e10	8	-1E+10	1	-1E+10	1	-1E+10	1	-1E+10	1	-1E+10	1	-1E+10	1
4902554	105	C	01/05/2024	17:57	-133.819	47.598	0	1455.50	0	2.4330	0	34.4990	0	27.543	0	1438.315	0	-1e10	8	-1e10	8	-1E+10	1	-1E+10	1	-1E+10	1	-1E+10	1	-1E+10	1	-1E+10	1
4902554	105	C	01/05/2024	17:57	-133.819	47.598	0	1465.60	0	2.4100	0	34.5040	0	27.549	0	1448.261	0	-1e10	8	-1e10	8	-1E+10	1	-1E+10	1	-1E+10	1	-1E+10	1	-1E+10	1	-1E+10	1
4902554	105	C	01/05/2024	17:57	-133.819	47.598	0	1475.50	0	2.3950	0	34.5060	0	27.552	0	1458.010	0	-1e10	8	-1e10	8	-1E+10	1	-1E+10	1	-1E+10	1	-1E+10	1	-1E+10	1	-1E+10	1
4902554	105	C	01/05/2024	17:57	-133.819	47.598	0	1485.60	0	2.3840	0	34.5080	0	27.555	0	1467.955	0	-1e10	8	-1e10	8	-1E+10	1	-1E+10	1	-1E+10	1	-1E+10	1	-1E+10	1	-1E+10	1
4902554	105	C	01/05/2024	17:57	-133.819	47.598	0	1495.70	0	2.3710	0	34.5100	0	27.557	0	1477.900	0	-1e10	8	-1e10	8	-1E+10	1	-1E+10	1	-1E+10	1	-1E+10	1	-1E+10	1	-1E+10	1
4902554	105	C	01/05/2024	17:57	-133.819	47.598	0	1505.90	0	2.3570	0	34.5130	0	27.561	0	1487.943	0	-1e10	8	-1e10	8	-1E+10	1	-1E+10	1	-1E+10	1	-1E+10	1	-1E+10	1	-1E+10	1
4902554	105	C	01/05/2024	17:57	-133.819	47.598	0	1515.70	0	2.3400	0	34.5150	0	27.564	0	1497.591	0	-1e10	8	-1e10	8	-1E+10	1	-1E+10	1	-1E+10	1	-1E+10	1	-1E+10	1	-1E+10	1
4902554	105	C	01/05/2024	17:57	-133.819	47.598	0	1525.60	0	2.3260	0	34.5170	0	27.567	0	1507.337	0	-1e10	8	-1e10	8	-1E+10	1	-1E+10	1	-1E+10	1	-1E+10	1	-1E+10	1	-1E+10	1
4902554	105	C	01/05/2024	17:57	-133.819	47.598	0	1535.40	0	2.3110	0	34.5200	0	27.570	0	1516.985	0	-1e10	8	-1e10	8	-1E+10	1	-1E+10	1	-1E+10	1	-1E+10	1	-1E+10	1	-1E+10	1
4902554	105	C	01/05/2024	17:57	-133.819	47.598	0	1545.50	0	2.2990	0	34.5220	0	27.573	0	1526.927	0	-1e10	8	-1e10	8	-1E+10	1	-1E+10	1	-1E+10	1	-1E+10	1	-1E+10	1	-1E+10	1
4902554	105	C	01/05/2024	17:57	-133.819	47.598	0	1555.40	0	2.2870	0	34.5230	0	27.575	0	1536.673	0	-1e10	8	-1e10	8	-1E+10	1	-1E+10	1	-1E+10	1	-1E+10	1	-1E+10	1	-1E+10	1
4902554	105	C	01/05/2024	17:57	-133.819	47.598	0	1565.20	0	2.2680	0	34.5260	0	27.579	0	1546.319	0	-1e10	8	-1e10	8	-1E+10	1	-1E+10	1	-1E+10	1	-1E+10	1	-1E+10	1	-1E+10	1
4902554	105	C	01/05/2024	17:57	-133.819	47.598	0	1575.20	0	2.2540	0	34.5280	0	27.582	0	1556.161	0	-1e10	8	-1e10	8	-1E+10	1	-1E+10	1	-1E+10	1	-1E+10	1	-1E+10	1	-1E+10	1
4902554	105	C	01/05/2024	17:57	-133.819	47.598	0	1585.50	0	2.2430	0	34.5300	0	27.584	0	1566.299	0	-1e10	8	-1e10	8	-1E+10	1	-1E+10	1	-1E+10	1	-1E+10	1	-1E+10	1	-1E+10	1
4902554	105	C	01/05/2024	17:57	-133.819	47.598	0	1595.70	0	2.2320	0	34.5310	0	27.586	0	1576.337	0	-1e10	8	-1e10	8	-1E+10	1	-1E+10	1	-1E+10	1	-1E+10	1	-1E+10	1	-1E+10	1
4902554	105	C	01/05/2024	17:57	-133.819	47.598	0	1605.60	0	2.2190	0	34.5330	0	27.589	0	1586.080	0	-1e10	8	-1e10	8	-1E+10	1	-1E+10	1	-1E+10	1	-1E+10	1	-1E+10	1	-1E+10	1
4902554	105	C	01/05/2024	17:57	-133.819	47.598	0	1615.60	0	2.2110	0	34.5350	0	27.591	0	1595.921	0	-1e10	8	-1e10	8	-1E+10	1	-1E+10	1	-1E+10	1	-1E+10	1	-1E+10	1	-1E+10	1
4902554	105	C	01/05/2024	17:57	-133.819	47.598	0	1625.70	0	2.2030	0	34.5360	0	27.592	0	1605.860	0	-1e10	8	-1e10	8	-1E+10	1	-1E+10	1	-1E+10	1	-1E+10	1	-1E+10	1	-1E+10	1
4902554	105	C	01/05/2024	17:57	-133.819	47.598	0	1635.50	0	2.1950	0	34.5380	0	27.595	0	1615.503	0	-1e10	8	-1e10	8	-1E+10	1	-1E+10	1	-1E+10	1	-1E+10	1	-1E+10	1	-1E+10	1
4902554	105	C	01/05/2024	17:57	-133.819	47.598	0	1645.40	0	2.1850	0	34.5400	0	27.597	0	1625.244	0	-1e10	8	-1e10	8	-1E+10	1	-1E+10	1	-1E+10	1	-1E+10	1	-1E+10	1	-1E+10	1
4902554	105	C	01/05/2024	17:57	-133.819	47.598	0	1655.30	0	2.1820	0	34.5410	0	27.598	0	1634.984	0	-1e10	8	-1e10	8	-1E+10	1	-1E+10	1	-1E+10	1	-1E+10	1	-1E+10	1	-1E+10	1
4902554	105	C	01/05/2024	17:57	-133.819	47.598	0	1665.70	0	2.1750	0	34.5430	0	27.601	0	1645.216	0	-1e10	8	-1e10	8	-1E+10	1	-1E+10	1	-1E+10	1	-1E+10	1	-1E+10	1	-1E+10	1
4902554	105	C	01/05/2024	17:57	-133.819	47.598	0	1675.50	0	2.1660	0	34.5440	0	27.602	0	1654.857	0	-1e10	8	-1e10	8	-1E+10	1	-1E+10	1	-1E+10	1	-1E+10	1	-1E+10	1	-1E+10	1
4902554	105	C	01/05/2024	17:57	-133.819	47.598	0	1685.30	0	2.1570	0	34.5460	0	27.604	0	1664.498	0	-1e10	8	-1e10	8	-1E+10	1	-1E+10	1	-1E+10	1	-1E+10	1	-1E+10	1	-1E+10	1
4902554	105	C	01/05/2024	17:57	-133.819	47.598	0	1695.40	0	2.1480	0	34.5470	0	27.606	0	1674.434	0	-1e10	8	-1e10	8	-1E+10	1	-1E+10	1	-1E+10	1	-1E+10	1	-1E+10	1	-1E+10	1
4902554	105	C	01/05/2024	17:57	-133.819	47.598	0	1705.20	0	2.1360	0	34.5490	0	27.609	0	1684.074	0	-1e10	8	-1e10	8	-1E+10	1	-1E+10	1	-1E+10	1	-1E+10	1	-1E+10	1	-1E+10	1
4902554	105	C	01/05/2024	17:57	-133.819	47.598	0	1715.30	0	2.1250	0	34.5510	0	27.611	0	1694.008	0	-1e10	8	-1e10	8	-1E+10	1	-1E+10	1	-1E+10	1	-1E+10	1	-1E+10	1	-1E+10	1
4902554	105	C	01/05/2024	17:57	-133.819	47.598	0	1725.60	0	2.1160	0	34.5530	0	27.614	0	1704.139	0	-1e10	8	-1e10	8	-1E+10	1	-1E+10	1	-1E+10	1	-1E+10	1	-1E+10	1	-1E+10	1
4902554	105	C	01/05/2024	17:57	-133.819	47.598	0	1735.40	0	2.1090	0	34.5540	0	27.615	0	1713.778	0	-1e10	8	-1e10	8	-1E+10	1	-1E+10	1	-1E+10	1	-1E+10	1	-1E+10	1	-1E+10	1
4902554	105	C	01/05/2024	17:57	-133.819	47.598	0	1745.40	0	2.0990	0	34.5560	0	27.617	0	1723.612	0	-1e10	8	-1e10	8	-1E+10	1	-1E+10	1	-1E+10	1	-1E+10	1	-1E+10	1	-1E+10	1
4902554	105	C	01/05/2024	17:57	-133.819	47.598	0	1755.30	0	2.0920	0	34.5570	0	27.619	0	1733.348	0	-1e10	8	-1e10	8	-1E+10	1	-1E+10	1	-1E+10	1	-1E+10	1	-1E+10	1	-1E+10	1
4902554	105	C	01/05/2024	17:57	-133.819	47.598	0	1765.30	0	2.0830	0	34.5590	0	27.621	0	1743.182	0	-1e10	8	-1e10	8	-1E+10	1	-1E+10	1	-1E+10	1	-1E+10	1	-1E+10	1	-1E+10	1
4902554	105	C	01/05/2024	17:57	-133.819	47.598	0	1775.20	0	2.0710	0	34.5610	0	27.624	0	1752.917	0	-1e10	8	-1e10	8	-1E+10	1	-1E+10	1	-1E+10	1	-1E+10	1	-1E+10	1	-1E+10	1
4902554	105	C	01/05/2024	17:57	-133.819	47.598	0	1785.10	0	2.0620	0	34.5620	0	27.625	0	1762.652	0	-1e10	8	-1e10	8	-1E+10	1	-1E+10	1	-1E+10	1	-1E+10	1	-1E+10	1	-1E+10	1
4902554	105	C	01/05/2024	17:57	-133.819	47.598	0	1795.00	0	2.0540	0	34.5640	0	27.628	0	1772.386	0	-1e10	8	-1e10	8	-1E+10	1	-1E+10	1	-1E+10	1	-1E+10	1	-1E+10	1	-1E+10	1
4902554	105	C	01/05/2024	17:57	-133.819	47.598	0	1805.30	0	2.0500	0	34.5650	0	27.629	0	1782.513	0	-1e10	8	-1e10	8	-1E+10	1	-1E+10	1	-1E+10	1	-1E+10	1	-1E+10	1	-1E+10	1
4902554	105	C	01/05/2024	17:57	-133.819	47.598	0	1815.60	0	2.0400	0	34.5660	0	27.630	0	1792.640	0	-1e10	8	-1e10	8	-1E+10	1	-1E+10	1	-1E+10	1	-1E+10	1	-1E+10	1	-1E+10	1
4902554	105	C	01/05/2024	17:57	-133.819	47.598	0	1825.60	0	2.0290	0	34.5690	0	27.634	0	1802.471	0	-1e10	8	-1e10	8	-1E+10	1	-1E+10	1	-1E+10	1	-1E+10	1	-1E+10	1	-1E+10	1
4902554	105	C	01/05/2024	17:57	-133.819	47.598	0	1835.30	0	2.0200	0	34.5700	0	27.635	0	1812.007	0	-1e10	8	-1e10	8	-1E+10	1	-1E+10	1	-1E+10	1	-1E+10	1	-1E+10	1	-1E+10	1
4902554	105	C	01/05/2024	17:57	-133.819	47.598	0	1845.10	0	2.0140	0	34.5720	0	27.637	0	1821.640	0	-1e10	8	-1e10	8	-1E+10	1	-1E+10	1	-1E+10	1	-1E+10	1	-1E+10	1	-1E+10	1
4902554	105	C	01/05/2024	17:57	-133.819	47.598	0	1855.30	0	2.0070	0	34.5730	0	27.639	0	1831.667	0	-1e10	8	-1e10	8	-1E+10	1	-1E+10	1	-1E+10	1	-1E+10	1	-1E+10	1	-1E+10	1
4902554	105	C	01/05/2024	17:57	-133.819	47.598	0	1865.60	0	2.0000	0	34.5750	0	27.641	0	1841.791	0	-1e10	8	-1e10	8	-1E+10	1	-1E+10	1	-1E+10	1	-1E+10	1	-1E+10	1	-1E+10	1
4902554	105	C	01/05/2024	17:57	-133.819	47.598	0	1875.50	0	1.9950	0	34.5750	0	27.641	0	1851.522	0	-1e10	8	-1e10	8	-1E+10	1	-1E+10	1	-1E+10	1	-1E+10	1	-1E+10	1	-1E+10	1
4902554	105	C	01/05/2024	17:57	-133.819	47.598	0	1885.40	0	1.9870	0	34.5770	0	27.644	0	1861.252	0	-1e10	8	-1e10	8	-1E+10	1	-1E+10	1	-1E+10	1	-1E+10	1	-1E+10	1	-1E+10	1
4902554	105	C	01/05/2024	17:57	-133.819	47.598	0	1895.10	0	1.9810	0	34.5780	0	27.645	0	1870.785	0	-1e10	8	-1e10	8	-1E+10	1	-1E+10	1	-1E+10	1	-1E+10	1	-1E+10	1	-1E+10	1
4902554	105	C	01/05/2024	17:57	-133.819	47.598	0	1905.40	0	1.9730	0	34.5800	0	27.647	0	1880.907	0	-1e10	8	-1e10	8	-1E+10	1	-1E+10	1	-1E+10	1	-1E+10	1	-1E+10	1	-1E+10	1
4902554	105	C	01/05/2024	17:57	-133.819	47.598	0	1916.10	0	1.9650	0	34.5810	0	27.649	0	1891.422	0	-1e10	8	-1e10	8	-1E+10	1	-1E+10	1	-1E+10	1	-1E+10	1	-1E+10	1	-1E+10	1
4902554	105	C	01/05/2024	17:57	-133.819	47.598	0	1925.40	0	1.9570	0	34.5830	0	27.651	0	1900.561	0	-1e10	8	-1e10	8	-1E+10	1	-1E+10	1	-1E+10	1	-1E+10	1	-1E+10	1	-1E+10	1
4902554	105	C	01/05/2024	17:57	-133.819	47.598	0	1935.30	0	1.9520	0	34.5840	0	27.652	0	1910.289	0	-1e10	8	-1e10	8	-1E+10	1	-1E+10	1	-1E+10	1	-1E+10	1	-1E+10	1	-1E+10	1
4902554	105	C	01/05/2024	17:57	-133.819	47.598	0	1945.40	0	1.9470	0	34.5850	0	27.654	0	1920.213	0	-1e10	8	-1e10	8	-1E+10	1	-1E+10	1	-1E+10	1	-1E+10	1	-1E+10	1	-1E+10	1
4902554	105	C	01/05/2024	17:57	-133.819	47.598	0	1955.20	0	1.9430	0	34.5860	0	27.655	0	1929.842	0	-1e10	8	-1e10	8	-1E+10	1	-1E+10	1	-1E+10	1	-1E+10	1	-1E+10	1	-1E+10	1
4902554	105	C	01/05/2024	17:57	-133.819	47.598	0	1965.20	0	1.9370	0	34.5870	0	27.656	0	1939.666	0	-1e10	8	-1e10	8	-1E+10	1	-1E+10	1	-1E+10	1	-1E+10	1	-1E+10	1	-1E+10	1
4902554	105	C	01/05/2024	17:57	-133.819	47.598	0	1975.30	0	1.9320	0	34.5880	0	27.657	0	1949.589	0	-1e10	8	-1e10	8	-1E+10	1	-1E+10	1	-1E+10	1	-1E+10	1	-1E+10	1	-1E+10	1
4902554	105	C	01/05/2024	17:57	-133.819	47.598	0	1985.60	0	1.9260	0	34.5890	0	27.659	0	1959.708	0	-1e10	8	-1e10	8	-1E+10	1	-1E+10	1	-1E+10	1	-1E+10	1	-1E+10	1	-1E+10	1
4902554	105	C	01/05/2024	17:57	-133.819	47.598	0	1995.70	0	1.9220	0	34.5900	0	27.660	0	1969.629	0	-1e10	8	-1e10	8	-1E+10	1	-1E+10	1	-1E+10	1	-1E+10	1	-1E+10	1	-1E+10	1
4902554	105	C	01/05/2024	17:57	-133.819	47.598	0	2005.50	0	1.9170	0	34.5910	0	27.661	0	1979.256	0	-1e10	8	-1e10	8	-1E+10	1	-1E+10	1	-1E+10	1	-1E+10	1	-1E+10	1	-1E+10	1
4902554	105	C	01/05/2024	17:57	-133.819	47.598	0	2015.80	0	1.9120	0	34.5920	0	27.662	0	1989.373	0	-1e10	8	-1e10	8	-1E+10	1	-1E+10	1	-1E+10	1	-1E+10	1	-1E+10	1	-1E+10	1
4902554	105	C	01/05/2024	17:57	-133.819	47.598	0	2022.90	0	1.9090	0	34.5930	0	27.663	0	1996.347	0	-1e10	8	-1e10	8	-1E+10	1	-1E+10	1	-1E+10	1	-1E+10	1	-1E+10	1	-1E+10	1
4902554	105	C	01/05/2024	17:57	-133.819	47.598	0																										
4902554	106	C	01/15/2024	23:03	-133.848	47.604	0	0.30	0	8.6050	0	32.3570	0	25.110	0	0.297	0	-1e10	8	-1e10	8	-1E+10	1	-1E+10	1	-1E+10	1	-1E+10	1	-1E+10	1	-1E+10	1
4902554	106	C	01/15/2024	23:03	-133.848	47.604	0	0.40	0	8.6090	0	32.3530	0	25.106	0	0.397	0	-1e10	8	-1e10	8	-1E+10	1	-1E+10	1	-1E+10	1	-1E+10	1	-1E+10	1	-1E+10	1
4902554	106	C	01/15/2024	23:03	-133.848	47.604	0	1.00	0	8.6070	0	32.3540	0	25.107	0	0.992	0	-1e10	8	-1e10	8	-1E+10	1	-1E+10	1	-1E+10	1	-1E+10	1	-1E+10	1	-1E+10	1
4902554	106	C	01/15/2024	23:03	-133.848	47.604	0	2.00	0	8.6060	0	32.3540	0	25.107	0	1.983	0	-1e10	8	-1e10	8	-1E+10	1	-1E+10	1	-1E+10	1	-1E+10	1	-1E+10	1	-1E+10	1
4902554	106	C	01/15/2024	23:03	-133.848	47.604	0	3.00	0	8.6070	0	32.3540	0	25.107	0	2.975	0	-1e10	8	-1e10	8	-1E+10	1	-1E+10	1	-1E+10	1	-1E+10	1	-1E+10	1	-1E+10	1
4902554	106	C	01/15/2024	23:03	-133.848	47.604	0	4.00	0	8.6060	0	32.3550	0	25.108	0	3.967	0	-1e10	8	-1e10	8	-1E+10	1	-1E+10	1	-1E+10	1	-1E+10	1	-1E+10	1	-1E+10	1
4902554	106	C	01/15/2024	23:03	-133.848	47.604	0	5.00	0	8.6050	0	32.3560	0	25.109	0	4.958	0	-1e10	8	-1e10	8	-1E+10	1	-1E+10	1	-1E+10	1	-1E+10	1	-1E+10	1	-1E+10	1
4902554	106	C	01/15/2024	23:03	-133.848	47.604	0	6.10	0	8.6060	0	32.3560	0	25.109	0	6.049	0	-1e10	8	-1e10	8	-1E+10	1	-1E+10	1	-1E+10	1	-1E+10	1	-1E+10	1	-1E+10	1
4902554	106	C	01/15/2024	23:03	-133.848	47.604	0	7.20	0	8.6060	0	32.3560	0	25.109	0	7.140	0	-1e10	8	-1e10	8	-1E+10	1	-1E+10	1	-1E+10	1	-1E+10	1	-1E+10	1	-1E+10	1
4902554	106	C	01/15/2024	23:03	-133.848	47.604	0	8.10	0	8.6060	0	32.3560	0	25.109	0	8.032	0	-1e10	8	-1e10	8	-1E+10	1	-1E+10	1	-1E+10	1	-1E+10	1	-1E+10	1	-1E+10	1
4902554	106	C	01/15/2024	23:03	-133.848	47.604	0	8.70	0	8.6050	0	32.3560	0	25.109	0	8.627	0	-1e10	8	-1e10	8	-1E+10	1	-1E+10	1	-1E+10	1	-1E+10	1	-1E+10	1	-1E+10	1
4902554	106	C	01/15/2024	23:03	-133.848	47.604	0	10.00	0	8.6050	0	32.3560	0	25.109	0	9.916	0	-1e10	8	-1e10	8	-1E+10	1	-1E+10	1	-1E+10	1	-1E+10	1	-1E+10	1	-1E+10	1
4902554	106	C	01/15/2024	23:03	-133.848	47.604	0	11.00	0	8.6050	0	32.3560	0	25.109	0	10.908	0	-1e10	8	-1e10	8	-1E+10	1	-1E+10	1	-1E+10	1	-1E+10	1	-1E+10	1	-1E+10	1
4902554	106	C	01/15/2024	23:03	-133.848	47.604	0	12.00	0	8.6050	0	32.3550	0	25.108	0	11.899	0	-1e10	8	-1e10	8	-1E+10	1	-1E+10	1	-1E+10	1	-1E+10	1	-1E+10	1	-1E+10	1
4902554	106	C	01/15/2024	23:03	-133.848	47.604	0	12.90	0	8.6060	0	32.3560	0	25.109	0	12.792	0	-1e10	8	-1e10	8	-1E+10	1	-1E+10	1	-1E+10	1	-1E+10	1	-1E+10	1	-1E+10	1
4902554	106	C	01/15/2024	23:03	-133.848	47.604	0	14.10	0	8.6060	0	32.3560	0	25.109	0	13.982	0	-1e10	8	-1e10	8	-1E+10	1	-1E+10	1	-1E+10	1	-1E+10	1	-1E+10	1	-1E+10	1
4902554	106	C	01/15/2024	23:03	-133.848	47.604	0	15.00	0	8.6060	0	32.3560	0	25.109	0	14.874	0	-1e10	8	-1e10	8	-1E+10	1	-1E+10	1	-1E+10	1	-1E+10	1	-1E+10	1	-1E+10	1
4902554	106	C	01/15/2024	23:03	-133.848	47.604	0	16.10	0	8.6060	0	32.3560	0	25.109	0	15.965	0	-1e10	8	-1e10	8	-1E+10	1	-1E+10	1	-1E+10	1	-1E+10	1	-1E+10	1	-1E+10	1
4902554	106	C	01/15/2024	23:03	-133.848	47.604	0	17.00	0	8.6060	0	32.3560	0	25.109	0	16.857	0	-1e10	8	-1e10	8	-1E+10	1	-1E+10	1	-1E+10	1	-1E+10	1	-1E+10	1	-1E+10	1
4902554	106	C	01/15/2024	23:03	-133.848	47.604	0	18.00	0	8.6050	0	32.3560	0	25.109	0	17.849	0	-1e10	8	-1e10	8	-1E+10	1	-1E+10	1	-1E+10	1	-1E+10	1	-1E+10	1	-1E+10	1
4902554	106	C	01/15/2024	23:03	-133.848	47.604	0	19.30	0	8.6040	0	32.3560	0	25.109	0	19.138	0	-1e10	8	-1e10	8	-1E+10	1	-1E+10	1	-1E+10	1	-1E+10	1	-1E+10	1	-1E+10	1
4902554	106	C	01/15/2024	23:03	-133.848	47.604	0	19.90	0	8.6050	0	32.3560	0	25.109	0	19.733	0	-1e10	8	-1e10	8	-1E+10	1	-1E+10	1	-1E+10	1	-1E+10	1	-1E+10	1	-1E+10	1
4902554	106	C	01/15/2024	23:03	-133.848	47.604	0	20.90	0	8.6040	0	32.3560	0	25.109	0	20.724	0	-1e10	8	-1e10	8	-1E+10	1	-1E+10	1	-1E+10	1	-1E+10	1	-1E+10	1	-1E+10	1
4902554	106	C	01/15/2024	23:03	-133.848	47.604	0	21.90	0	8.6030	0	32.3560	0	25.110	0	21.716	0	-1e10	8	-1e10	8	-1E+10	1	-1E+10	1	-1E+10	1	-1E+10	1	-1E+10	1	-1E+10	1
4902554	106	C	01/15/2024	23:03	-133.848	47.604	0	22.90	0	8.6040	0	32.3560	0	25.109	0	22.707	0	-1e10	8	-1e10	8	-1E+10	1	-1E+10	1	-1E+10	1	-1E+10	1	-1E+10	1	-1E+10	1
4902554	106	C	01/15/2024	23:03	-133.848	47.604	0	23.90	0	8.6040	0	32.3560	0	25.110	0	23.699	0	-1e10	8	-1e10	8	-1E+10	1	-1E+10	1	-1E+10	1	-1E+10	1	-1E+10	1	-1E+10	1
4902554	106	C	01/15/2024	23:03	-133.848	47.604	0	24.90	0	8.6040	0	32.3560	0	25.110	0	24.690	0	-1e10	8	-1e10	8	-1E+10	1	-1E+10	1	-1E+10	1	-1E+10	1	-1E+10	1	-1E+10	1
4902554	106	C	01/15/2024	23:03	-133.848	47.604	0	25.90	0	8.6040	0	32.3560	0	25.110	0	25.682	0	-1e10	8	-1e10	8	-1E+10	1	-1E+10	1	-1E+10	1	-1E+10	1	-1E+10	1	-1E+10	1
4902554	106	C	01/15/2024	23:03	-133.848	47.604	0	27.00	0	8.6050	0	32.3560	0	25.109	0	26.773	0	-1e10	8	-1e10	8	-1E+10	1	-1E+10	1	-1E+10	1	-1E+10	1	-1E+10	1	-1E+10	1
4902554	106	C	01/15/2024	23:03	-133.848	47.604	0	27.90	0	8.6050	0	32.3550	0	25.109	0	27.665	0	-1e10	8	-1e10	8	-1E+10	1	-1E+10	1	-1E+10	1	-1E+10	1	-1E+10	1	-1E+10	1
4902554	106	C	01/15/2024	23:03	-133.848	47.604	0	29.10	0	8.6050	0	32.3560	0	25.109	0	28.855	0	-1e10	8	-1e10	8	-1E+10	1	-1E+10	1	-1E+10	1	-1E+10	1	-1E+10	1	-1E+10	1
4902554	106	C	01/15/2024	23:03	-133.848	47.604	0	29.90	0	8.6030	0	32.3560	0	25.110	0	29.648	0	-1e10	8	-1e10	8	-1E+10	1	-1E+10	1	-1E+10	1	-1E+10	1	-1E+10	1	-1E+10	1
4902554	106	C	01/15/2024	23:03	-133.848	47.604	0	31.00	0	8.6010	0	32.3550	0	25.109	0	30.739	0	-1e10	8	-1e10	8	-1E+10	1	-1E+10	1	-1E+10	1	-1E+10	1	-1E+10	1	-1E+10	1
4902554	106	C	01/15/2024	23:03	-133.848	47.604	0	32.10	0	8.6000	0	32.3550	0	25.109	0	31.829	0	-1e10	8	-1e10	8	-1E+10	1	-1E+10	1	-1E+10	1	-1E+10	1	-1E+10	1	-1E+10	1
4902554	106	C	01/15/2024	23:03	-133.848	47.604	0	33.10	0	8.6030	0	32.3560	0	25.110	0	32.821	0	-1e10	8	-1e10	8	-1E+10	1	-1E+10	1	-1E+10	1	-1E+10	1	-1E+10	1	-1E+10	1
4902554	106	C	01/15/2024	23:03	-133.848	47.604	0	34.00	0	8.6030	0	32.3550	0	25.109	0	33.713	0	-1e10	8	-1e10	8	-1E+10	1	-1E+10	1	-1E+10	1	-1E+10	1	-1E+10	1	-1E+10	1
4902554	106	C	01/15/2024	23:03	-133.848	47.604	0	34.90	0	8.6060	0	32.3550	0	25.109	0	34.605	0	-1e10	8	-1e10	8	-1E+10	1	-1E+10	1	-1E+10	1	-1E+10	1	-1E+10	1	-1E+10	1
4902554	106	C	01/15/2024	23:03	-133.848	47.604	0	36.00	0	8.6050	0	32.3560	0	25.110	0	35.696	0	-1e10	8	-1e10	8	-1E+10	1	-1E+10	1	-1E+10	1	-1E+10	1	-1E+10	1	-1E+10	1
4902554	106	C	01/15/2024	23:03	-133.848	47.604	0	37.10	0	8.5970	0	32.3580	0	25.112	0	36.787	0	-1e10	8	-1e10	8	-1E+10	1	-1E+10	1	-1E+10	1	-1E+10	1	-1E+10	1	-1E+10	1
4902554	106	C	01/15/2024	23:03	-133.848	47.604	0	37.90	0	8.6000	0	32.3540	0	25.109	0	37.580	0	-1e10	8	-1e10	8	-1E+10	1	-1E+10	1	-1E+10	1	-1E+10	1	-1E+10	1	-1E+10	1
4902554	106	C	01/15/2024	23:03	-133.848	47.604	0	39.10	0	8.6000	0	32.3540	0	25.109	0	38.770	0	-1e10	8	-1e10	8	-1E+10	1	-1E+10	1	-1E+10	1	-1E+10	1	-1E+10	1	-1E+10	1
4902554	106	C	01/15/2024	23:03	-133.848	47.604	0	39.90	0	8.5960	0	32.3540	0	25.109	0	39.563	0	-1e10	8	-1e10	8	-1E+10	1	-1E+10	1	-1E+10	1	-1E+10	1	-1E+10	1	-1E+10	1
4902554	106	C	01/15/2024	23:03	-133.848	47.604	0	41.00	0	8.5900	0	32.3540	0	25.110	0	40.653	0	-1e10	8	-1e10	8	-1E+10	1	-1E+10	1	-1E+10	1	-1E+10	1	-1E+10	1	-1E+10	1
4902554	106	C	01/15/2024	23:03	-133.848	47.604	0	42.10	0	8.5890	0	32.3530	0	25.110	0	41.744	0	-1e10	8	-1e10	8	-1E+10	1	-1E+10	1	-1E+10	1	-1E+10	1	-1E+10	1	-1E+10	1
4902554	106	C	01/15/2024	23:03	-133.848	47.604	0	42.90	0	8.5890	0	32.3540	0	25.110	0	42.537	0	-1e10	8	-1e10	8	-1E+10	1	-1E+10	1	-1E+10	1	-1E+10	1	-1E+10	1	-1E+10	1
4902554	106	C	01/15/2024	23:03	-133.848	47.604	0	43.90	0	8.5890	0	32.3540	0	25.111	0	43.529	0	-1e10	8	-1e10	8	-1E+10	1	-1E+10	1	-1E+10	1	-1E+10	1	-1E+10	1	-1E+10	1
4902554	106	C	01/15/2024	23:03	-133.848	47.604	0	44.80	0	8.5880	0	32.3540	0	25.111	0	44.421	0	-1e10	8	-1e10	8	-1E+10	1	-1E+10	1	-1E+10	1	-1E+10	1	-1E+10	1	-1E+10	1
4902554	106	C	01/15/2024	23:03	-133.848	47.604	0	45.90	0	8.5890	0	32.3540	0	25.111	0	45.511	0	-1e10	8	-1e10	8	-1E+10	1	-1E+10	1	-1E+10	1	-1E+10	1	-1E+10	1	-1E+10	1
4902554	106	C	01/15/2024	23:03	-133.848	47.604	0	47.30	0	8.5890	0	32.3540	0	25.111	0	46.899	0	-1e10	8	-1e10	8	-1E+10	1	-1E+10	1	-1E+10	1	-1E+10	1	-1E+10	1	-1E+10	1
4902554	106	C	01/15/2024	23:03	-133.848	47.604	0	48.00	0	8.5890	0	32.3540	0	25.111	0	47.593	0	-1e10	8	-1e10	8	-1E+10	1	-1E+10	1	-1E+10	1	-1E+10	1	-1E+10	1	-1E+10	1
4902554	106	C	01/15/2024	23:03	-133.848	47.604	0	49.00	0	8.5870	0	32.3530	0	25.110	0	48.585	0	-1e10	8	-1e10	8	-1E+10	1	-1E+10	1	-1E+10	1	-1E+10	1	-1E+10	1	-1E+10	1
4902554	106	C	01/15/2024	23:03	-133.848	47.604	0	50.00	0	8.5880	0	32.3540	0	25.111	0	49.576	0	-1e10	8	-1e10	8	-1E+10	1	-1E+10	1	-1E+10	1	-1E+10	1	-1E+10	1	-1E+10	1
4902554	106	C	01/15/2024	23:03	-133.848	47.604	0	51.10	0	8.5880	0	32.3540	0	25.111	0	50.667	0	-1e10	8	-1e10	8	-1E+10	1	-1E+10	1	-1E+10	1	-1E+10	1	-1E+10	1	-1E+10	1
4902554	106	C	01/15/2024	23:03	-133.848	47.604	0	52.10	0	8.5850	0	32.3530	0	25.110	0	51.658	0	-1e10	8	-1e10	8	-1E+10	1	-1E+10	1	-1E+10	1	-1E+10	1	-1E+10	1	-1E+10	1
4902554	106	C	01/15/2024	23:03	-133.848	47.604	0	53.00	0	8.5860	0	32.3550	0	25.112	0	52.550	0	-1e10	8	-1e10	8	-1E+10	1	-1E+10	1	-1E+10	1	-1E+10	1	-1E+10	1	-1E+10	1
4902554	106	C	01/15/2024	23:03	-133.848	47.604	0	53.80	0	8.5890	0	32.3510	0	25.108	0	53.344	0	-1e10	8	-1e10	8	-1E+10	1	-1E+10	1	-1E+10	1	-1E+10	1	-1E+10	1	-1E+10	1
4902554	106	C	01/15/2024	23:03	-133.848	47.604	0	54.90	0	8.5790	0	32.3550	0	25.113	0	54.434	0	-1e10	8	-1e10	8	-1E+10	1	-1E+10	1	-1E+10	1	-1E+10	1	-1E+10	1	-1E+10	1
4902554	106	C	01/15/2024	23:03	-133.848	47.604	0	55.90	0	8.5790	0	32.3520	0	25.111	0	55.425	0	-1e10	8	-1e10	8	-1E+10	1	-1E+10	1	-1E+10	1	-1E+10	1	-1E+10	1	-1E+10	1
4902554	106	C	01/15/2024	23:03	-133.848	47.604	0	57.00	0	8.5820	0	32.3520	0	25.110	0	56.516	0	-1e10	8	-1e10	8	-1E+10	1	-1E+10	1	-1E+10	1	-1E+10	1	-1E+10	1	-1E+10	1
4902554	106	C	01/15/2024	23:03	-133.848	47.604	0	58.10	0	8.5790	0	32.3520	0	25.111	0	57.606	0	-1e10	8	-1e10	8	-1E+10	1	-1E+10	1	-1E+10	1	-1E+10	1	-1E+10	1	-1E+10	1
4902554	106	C	01/15/2024	23:03	-133.848	47.604	0	59.00	0	8.5760	0	32.3510	0	25.110	0	58.499	0	-1e10	8	-1e10	8	-1E+10	1	-1E+10	1	-1E+10	1	-1E+10	1	-1E+10	1	-1E+10	1
4902554	106	C	01/15/2024	23:03	-133.848	47.604	0	59.80	0	8.5530	0	32.3480	0	25.111	0	59.292	0	-1e10	8	-1e10	8	-1E+10	1	-1E+10	1	-1E+10	1	-1E+10	1	-1E+10	1	-1E+10	1
4902554	106	C	01/15/2024	23:03	-133.848	47.604	0	60.80	0	8.5360	0	32.3470	0	25.113	0	60.283	0	-1e10	8	-1e10	8	-1E+10	1	-1E+10	1	-1E+10	1	-1E+10	1	-1E+10	1	-1E+10	1
4902554	106	C	01/15/2024	23:03	-133.848	47.604	0	61.90	0	8.5280	0	32.3470	0	25.114	0	61.374	0	-1e10	8	-1e10	8	-1E+10	1	-1E+10	1	-1E+10	1	-1E+10	1	-1E+10	1	-1E+10	1
4902554	106	C	01/15/2024	23:03	-133.848	47.604	0	62.90	0	8.5240	0	32.3480	0	25.116	0	62.365	0	-1e10	8	-1e10	8	-1E+10	1	-1E+10	1	-1E+10	1	-1E+10	1	-1E+10	1	-1E+10	1
4902554	106	C	01/15/2024	23:03	-133.848	47.604	0	64.00	0	8.5140	0	32.3450	0	25.115	0	63.455	0	-1e10	8	-1e10	8	-1E+10	1	-1E+10	1	-1E+10	1	-1E+10	1	-1E+10	1	-1E+10	1
4902554	106	C	01/15/2024	23:03	-133.848	47.604	0	65.10	0	8.5000	0	32.3420	0	25.115	0	64.546	0	-1e10	8	-1e10	8	-1E+10	1	-1E+10	1	-1E+10	1	-1E+10	1	-1E+10	1	-1E+10	1
4902554	106	C	01/15/2024	23:03	-133.848	47.604	0	66.10	0	8.4590	0	32.3400	0	25.119	0	65.537	0	-1e10	8	-1e10	8	-1E+10	1	-1E+10	1	-1E+10	1	-1E+10	1	-1E+10	1	-1E+10	1
4902554	106	C	01/15/2024	23:03	-133.848	47.604	0	66.90	0	8.4490	0	32.3380	0	25.119	0	66.330	0	-1e10	8	-1e10	8	-1E+10	1	-1E+10	1	-1E+10	1	-1E+10	1	-1E+10	1	-1E+10	1
4902554	106	C	01/15/2024	23:03	-133.848	47.604	0	67.70	0	8.4450	0	32.3370	0	25.119	0	67.123	0	-1e10	8	-1e10	8	-1E+10	1	-1E+10	1	-1E+10	1	-1E+10	1	-1E+10	1	-1E+10	1
4902554	106	C	01/15/2024	23:03	-133.848	47.604	0	68.90	0	8.4390	0	32.3360	0	25.119	0	68.313	0	-1e10	8	-1e10	8	-1E+10	1	-1E+10	1	-1E+10	1	-1E+10	1	-1E+10	1	-1E+10	1
4902554	106	C	01/15/2024	23:03	-133.848	47.604	0	70.10	0	8.4150	0	32.3360	0	25.123	0	69.502	0	-1e10	8	-1e10	8	-1E+10	1	-1E+10	1	-1E+10	1	-1E+10	1	-1E+10	1	-1E+10	1
4902554	106	C	01/15/2024	23:03	-133.848	47.604	0	71.10	0	8.3860	0	32.3310	0	25.123	0	70.494	0	-1e10	8	-1e10	8	-1E+10	1	-1E+10	1	-1E+10	1	-1E+10	1	-1E+10	1	-1E+10	1
4902554	106	C	01/15/2024	23:03	-133.848	47.604	0	72.00	0	8.3810	0	32.3310	0	25.124	0	71.386	0	-1e10	8	-1e10	8	-1E+10	1	-1E+10	1	-1E+10	1	-1E+10	1	-1E+10	1	-1E+10	1
4902554	106	C	01/15/2024	23:03	-133.848	47.604	0	73.20	0	8.3720	0	32.3320	0	25.126	0	72.576	0	-1e10	8	-1e10	8	-1E+10	1	-1E+10	1	-1E+10	1	-1E+10	1	-1E+10	1	-1E+10	1
4902554	106	C	01/15/2024	23:03	-133.848	47.604	0	73.90	0	8.3670	0	32.3320	0	25.127	0	73.269	0	-1e10	8	-1e10	8	-1E+10	1	-1E+10	1	-1E+10	1	-1E+10	1	-1E+10	1	-1E+10	1
4902554	106	C	01/15/2024	23:03	-133.848	47.604	0	74.80	0	8.3600	0	32.3310	0	25.127	0	74.162	0	-1e10	8	-1e10	8	-1E+10	1	-1E+10	1	-1E+10	1	-1E+10	1	-1E+10	1	-1E+10	1
4902554	106	C	01/15/2024	23:03	-133.848	47.604	0	75.70	0	8.3570	0	32.3310	0	25.128	0	75.054	0	-1e10	8	-1e10	8	-1E+10	1	-1E+10	1	-1E+10	1	-1E+10	1	-1E+10	1	-1E+10	1
4902554	106	C	01/15/2024	23:03	-133.848	47.604	0	77.10	0	8.3510	0	32.3300	0	25.128	0	76.442	0	-1e10	8	-1e10	8	-1E+10	1	-1E+10	1	-1E+10	1	-1E+10	1	-1E+10	1	-1E+10	1
4902554	106	C	01/15/2024	23:03	-133.848	47.604	0	78.30	0	8.3450	0	32.3310	0	25.129	0	77.631	0	-1e10	8	-1e10	8	-1E+10	1	-1E+10	1	-1E+10	1	-1E+10	1	-1E+10	1	-1E+10	1
4902554	106	C	01/15/2024	23:03	-133.848	47.604	0	79.00	0	8.3410	0	32.3300	0	25.129	0	78.325	0	-1e10	8	-1e10	8	-1E+10	1	-1E+10	1	-1E+10	1	-1E+10	1	-1E+10	1	-1E+10	1
4902554	106	C	01/15/2024	23:03	-133.848	47.604	0	80.00	0	8.3400	0	32.3300	0	25.129	0	79.316	0	-1e10	8	-1e10	8	-1E+10	1	-1E+10	1	-1E+10	1	-1E+10	1	-1E+10	1	-1E+10	1
4902554	106	C	01/15/2024	23:03	-133.848	47.604	0	81.00	0	8.3390	0	32.3300	0	25.130	0	80.307	0	-1e10	8	-1e10	8	-1E+10	1	-1E+10	1	-1E+10	1	-1E+10	1	-1E+10	1	-1E+10	1
4902554	106	C	01/15/2024	23:03	-133.848	47.604	0	82.20	0	8.3360	0	32.3300	0	25.130	0	81.497	0	-1e10	8	-1e10	8	-1E+10	1	-1E+10	1	-1E+10	1	-1E+10	1	-1E+10	1	-1E+10	1
4902554	106	C	01/15/2024	23:03	-133.848	47.604	0	82.90	0	8.3330	0	32.3300	0	25.130	0	82.191	0	-1e10	8	-1e10	8	-1E+10	1	-1E+10	1	-1E+10	1	-1E+10	1	-1E+10	1	-1E+10	1
4902554	106	C	01/15/2024	23:03	-133.848	47.604	0	83.90	0	8.3320	0	32.3290	0	25.130	0	83.182	0	-1e10	8	-1e10	8	-1E+10	1	-1E+10	1	-1E+10	1	-1E+10	1	-1E+10	1	-1E+10	1
4902554	106	C	01/15/2024	23:03	-133.848	47.604	0	84.90	0	8.3300	0	32.3290	0	25.130	0	84.173	0	-1e10	8	-1e10	8	-1E+10	1	-1E+10	1	-1E+10	1	-1E+10	1	-1E+10	1	-1E+10	1
4902554	106	C	01/15/2024	23:03	-133.848	47.604	0	85.90	0	8.3280	0	32.3300	0	25.131	0	85.165	0	-1e10	8	-1e10	8	-1E+10	1	-1E+10	1	-1E+10	1	-1E+10	1	-1E+10	1	-1E+10	1
4902554	106	C	01/15/2024	23:03	-133.848	47.604	0	87.20	0	8.3250	0	32.3300	0	25.132	0	86.453	0	-1e10	8	-1e10	8	-1E+10	1	-1E+10	1	-1E+10	1	-1E+10	1	-1E+10	1	-1E+10	1
4902554	106	C	01/15/2024	23:03	-133.848	47.604	0	88.00	0	8.3230	0	32.3300	0	25.132	0	87.246	0	-1e10	8	-1e10	8	-1E+10	1	-1E+10	1	-1E+10	1	-1E+10	1	-1E+10	1	-1E+10	1
4902554	106	C	01/15/2024	23:03	-133.848	47.604	0	89.10	0	8.3220	0	32.3300	0	25.132	0	88.336	0	-1e10	8	-1e10	8	-1E+10	1	-1E+10	1	-1E+10	1	-1E+10	1	-1E+10	1	-1E+10	1
4902554	106	C	01/15/2024	23:03	-133.848	47.604	0	90.10	0	8.3210	0	32.3300	0	25.132	0	89.328	0	-1e10	8	-1e10	8	-1E+10	1	-1E+10	1	-1E+10	1	-1E+10	1	-1E+10	1	-1E+10	1
4902554	106	C	01/15/2024	23:03	-133.848	47.604	0	90.90	0	8.3220	0	32.3300	0	25.132	0	90.121	0	-1e10	8	-1e10	8	-1E+10	1	-1E+10	1	-1E+10	1	-1E+10	1	-1E+10	1	-1E+10	1
4902554	106	C	01/15/2024	23:03	-133.848	47.604	0	91.70	0	8.3200	0	32.3310	0	25.133	0	90.914	0	-1e10	8	-1e10	8	-1E+10	1	-1E+10	1	-1E+10	1	-1E+10	1	-1E+10	1	-1E+10	1
4902554	106	C	01/15/2024	23:03	-133.848	47.604	0	92.80	0	8.3170	0	32.3310	0	25.134	0	92.004	0	-1e10	8	-1e10	8	-1E+10	1	-1E+10	1	-1E+10	1	-1E+10	1	-1E+10	1	-1E+10	1
4902554	106	C	01/15/2024	23:03	-133.848	47.604	0	93.80	0	8.3070	0	32.3330	0	25.137	0	92.995	0	-1e10	8	-1e10	8	-1E+10	1	-1E+10	1	-1E+10	1	-1E+10	1	-1E+10	1	-1E+10	1
4902554	106	C	01/15/2024	23:03	-133.848	47.604	0	94.90	0	8.3030	0	32.3320	0	25.137	0	94.085	0	-1e10	8	-1e10	8	-1E+10	1	-1E+10	1	-1E+10	1	-1E+10	1	-1E+10	1	-1E+10	1
4902554	106	C	01/15/2024	23:03	-133.848	47.604	0	95.90	0	8.2970	0	32.3330	0	25.138	0	95.077	0	-1e10	8	-1e10	8	-1E+10	1	-1E+10	1	-1E+10	1	-1E+10	1	-1E+10	1	-1E+10	1
4902554	106	C	01/15/2024	23:03	-133.848	47.604	0	97.00	0	8.2800	0	32.3390	0	25.145	0	96.167	0	-1e10	8	-1e10	8	-1E+10	1	-1E+10	1	-1E+10	1	-1E+10	1	-1E+10	1	-1E+10	1
4902554	106	C	01/15/2024	23:03	-133.848	47.604	0	98.00	0	8.2490	0	32.3520	0	25.160	0	97.158	0	-1e10	8	-1e10	8	-1E+10	1	-1E+10	1	-1E+10	1	-1E+10	1	-1E+10	1	-1E+10	1
4902554	106	C	01/15/2024	23:03	-133.848	47.604	0	99.00	0	8.2190	0	32.3640	0	25.174	0	98.149	0	-1e10	8	-1e10	8	-1E+10	1	-1E+10	1	-1E+10	1	-1E+10	1	-1E+10	1	-1E+10	1
4902554	106	C	01/15/2024	23:03	-133.848	47.604	0	100.00	0	8.1790	0	32.3780	0	25.191	0	99.140	0	-1e10	8	-1e10	8	-1E+10	1	-1E+10	1	-1E+10	1	-1E+10	1	-1E+10	1	-1E+10	1
4902554	106	C	01/15/2024	23:03	-133.848	47.604	0	101.00	0	8.1600	0	32.3840	0	25.198	0	100.132	0	-1e10	8	-1e10	8	-1E+10	1	-1E+10	1	-1E+10	1	-1E+10	1	-1E+10	1	-1E+10	1
4902554	106	C	01/15/2024	23:03	-133.848	47.604	0	102.00	0	8.0710	0	32.4170	0	25.237	0	101.123	0	-1e10	8	-1e10	8	-1E+10	1	-1E+10	1	-1E+10	1	-1E+10	1	-1E+10	1	-1E+10	1
4902554	106	C	01/15/2024	23:03	-133.848	47.604	0	103.10	0	7.9390	0	32.4570	0	25.288	0	102.213	0	-1e10	8	-1e10	8	-1E+10	1	-1E+10	1	-1E+10	1	-1E+10	1	-1E+10	1	-1E+10	1
4902554	106	C	01/15/2024	23:03	-133.848	47.604	0	104.10	0	7.7360	0	32.5210	0	25.367	0	103.204	0	-1e10	8	-1e10	8	-1E+10	1	-1E+10	1	-1E+10	1	-1E+10	1	-1E+10	1	-1E+10	1
4902554	106	C	01/15/2024	23:03	-133.848	47.604	0	104.90	0	7.4590	0	32.6050	0	25.472	0	103.997	0	-1e10	8	-1e10	8	-1E+10	1	-1E+10	1	-1E+10	1	-1E+10	1	-1E+10	1	-1E+10	1
4902554	106	C	01/15/2024	23:03	-133.848	47.604	0	105.70	0	7.2720	0	32.6660	0	25.545	0	104.790	0	-1e10	8	-1e10	8	-1E+10	1	-1E+10	1	-1E+10	1	-1E+10	1	-1E+10	1	-1E+10	1
4902554	106	C	01/15/2024	23:03	-133.848	47.604	0	106.90	0	7.2570	0	32.6710	0	25.551	0	105.979	0	-1e10	8	-1e10	8	-1E+10	1	-1E+10	1	-1E+10	1	-1E+10	1	-1E+10	1	-1E+10	1
4902554	106	C	01/15/2024	23:03	-133.848	47.604	0	108.10	0	7.2330	0	32.6770	0	25.559	0	107.169	0	-1e10	8	-1e10	8	-1E+10	1	-1E+10	1	-1E+10	1	-1E+10	1	-1E+10	1	-1E+10	1
4902554	106	C	01/15/2024	23:03	-133.848	47.604	0	108.90	0	7.1940	0	32.6900	0	25.575	0	107.962	0	-1e10	8	-1e10	8	-1E+10	1	-1E+10	1	-1E+10	1	-1E+10	1	-1E+10	1	-1E+10	1
4902554	106	C	01/15/2024	23:03	-133.848	47.604	0	109.80	0	7.1460	0	32.7110	0	25.598	0	108.854	0	-1e10	8	-1e10	8	-1E+10	1	-1E+10	1	-1E+10	1	-1E+10	1	-1E+10	1	-1E+10	1
4902554	106	C	01/15/2024	23:03	-133.848	47.604	0	110.60	0	7.0740	0	32.7270	0	25.620	0	109.647	0	-1e10	8	-1e10	8	-1E+10	1	-1E+10	1	-1E+10	1	-1E+10	1	-1E+10	1	-1E+10	1
4902554	106	C	01/15/2024	23:03	-133.848	47.604	0	111.90	0	7.0250	0	32.7410	0	25.638	0	110.935	0	-1e10	8	-1e10	8	-1E+10	1	-1E+10	1	-1E+10	1	-1E+10	1	-1E+10	1	-1E+10	1
4902554	106	C	01/15/2024	23:03	-133.848	47.604	0	113.20	0	6.9920	0	32.7660	0	25.662	0	112.223	0	-1e10	8	-1e10	8	-1E+10	1	-1E+10	1	-1E+10	1	-1E+10	1	-1E+10	1	-1E+10	1
4902554	106	C	01/15/2024	23:03	-133.848	47.604	0	114.10	0	6.9690	0	32.7760	0	25.673	0	113.115	0	-1e10	8	-1e10	8	-1E+10	1	-1E+10	1	-1E+10	1	-1E+10	1	-1E+10	1	-1E+10	1
4902554	106	C	01/15/2024	23:03	-133.848	47.604	0	114.90	0	6.9650	0	32.7790	0	25.676	0	113.908	0	-1e10	8	-1e10	8	-1E+10	1	-1E+10	1	-1E+10	1	-1E+10	1	-1E+10	1	-1E+10	1
4902554	106	C	01/15/2024	23:03	-133.848	47.604	0	115.80	0	6.9570	0	32.7850	0	25.682	0	114.800	0	-1e10	8	-1e10	8	-1E+10	1	-1E+10	1	-1E+10	1	-1E+10	1	-1E+10	1	-1E+10	1
4902554	106	C	01/15/2024	23:03	-133.848	47.604	0	116.80	0	6.9350	0	32.7980	0	25.695	0	115.791	0	-1e10	8	-1e10	8	-1E+10	1	-1E+10	1	-1E+10	1	-1E+10	1	-1E+10	1	-1E+10	1
4902554	106	C	01/15/2024	23:03	-133.848	47.604	0	117.70	0	6.9240	0	32.8040	0	25.701	0	116.683	0	-1e10	8	-1e10	8	-1E+10	1	-1E+10	1	-1E+10	1	-1E+10	1	-1E+10	1	-1E+10	1
4902554	106	C	01/15/2024	23:03	-133.848	47.604	0	118.60	0	6.9140	0	32.8090	0	25.706	0	117.575	0	-1e10	8	-1e10	8	-1E+10	1	-1E+10	1	-1E+10	1	-1E+10	1	-1E+10	1	-1E+10	1
4902554	106	C	01/15/2024	23:03	-133.848	47.604	0	119.50	0	6.8890	0	32.8220	0	25.720	0	118.467	0	-1e10	8	-1e10	8	-1E+10	1	-1E+10	1	-1E+10	1	-1E+10	1	-1E+10	1	-1E+10	1
4902554	106	C	01/15/2024	23:03	-133.848	47.604	0	120.50	0	6.8410	0	32.8450	0	25.744	0	119.458	0	-1e10	8	-1e10	8	-1E+10	1	-1E+10	1	-1E+10	1	-1E+10	1	-1E+10	1	-1E+10	1
4902554	106	C	01/15/2024	23:03	-133.848	47.604	0	121.50	0	6.8200	0	32.8550	0	25.755	0	120.449	0	-1e10	8	-1e10	8	-1E+10	1	-1E+10	1	-1E+10	1	-1E+10	1	-1E+10	1	-1E+10	1
4902554	106	C	01/15/2024	23:03	-133.848	47.604	0	122.50	0	6.7860	0	32.8740	0	25.774	0	121.440	0	-1e10	8	-1e10	8	-1E+10	1	-1E+10	1	-1E+10	1	-1E+10	1	-1E+10	1	-1E+10	1
4902554	106	C	01/15/2024	23:03	-133.848	47.604	0	123.50	0	6.7640	0	32.8830	0	25.784	0	122.431	0	-1e10	8	-1e10	8	-1E+10	1	-1E+10	1	-1E+10	1	-1E+10	1	-1E+10	1	-1E+10	1
4902554	106	C	01/15/2024	23:03	-133.848	47.604	0	124.50	0	6.7440	0	32.8910	0	25.793	0	123.423	0	-1e10	8	-1e10	8	-1E+10	1	-1E+10	1	-1E+10	1	-1E+10	1	-1E+10	1	-1E+10	1
4902554	106	C	01/15/2024	23:03	-133.848	47.604	0	125.90	0	6.7060	0	32.9020	0	25.807	0	124.810	0	-1e10	8	-1e10	8	-1E+10	1	-1E+10	1	-1E+10	1	-1E+10	1	-1E+10	1	-1E+10	1
4902554	106	C	01/15/2024	23:03	-133.848	47.604	0	127.50	0	6.6580	0	32.9180	0	25.826	0	126.396	0	-1e10	8	-1e10	8	-1E+10	1	-1E+10	1	-1E+10	1	-1E+10	1	-1E+10	1	-1E+10	1
4902554	106	C	01/15/2024	23:03	-133.848	47.604	0	128.50	0	6.5830	0	32.9450	0	25.857	0	127.387	0	-1e10	8	-1e10	8	-1E+10	1	-1E+10	1	-1E+10	1	-1E+10	1	-1E+10	1	-1E+10	1
4902554	106	C	01/15/2024	23:03	-133.848	47.604	0	129.60	0	6.4300	0	33.0250	0	25.940	0	128.477	0	-1e10	8	-1e10	8	-1E+10	1	-1E+10	1	-1E+10	1	-1E+10	1	-1E+10	1	-1E+10	1
4902554	106	C	01/15/2024	23:03	-133.848	47.604	0	130.60	0	6.3970	0	33.0340	0	25.951	0	129.468	0	-1e10	8	-1e10	8	-1E+10	1	-1E+10	1	-1E+10	1	-1E+10	1	-1E+10	1	-1E+10	1
4902554	106	C	01/15/2024	23:03	-133.848	47.604	0	131.70	0	6.3730	0	33.0420	0	25.960	0	130.558	0	-1e10	8	-1e10	8	-1E+10	1	-1E+10	1	-1E+10	1	-1E+10	1	-1E+10	1	-1E+10	1
4902554	106	C	01/15/2024	23:03	-133.848	47.604	0	132.80	0	6.3340	0	33.0640	0	25.983	0	131.648	0	-1e10	8	-1e10	8	-1E+10	1	-1E+10	1	-1E+10	1	-1E+10	1	-1E+10	1	-1E+10	1
4902554	106	C	01/15/2024	23:03	-133.848	47.604	0	133.90	0	6.3210	0	33.0720	0	25.991	0	132.738	0	-1e10	8	-1e10	8	-1E+10	1	-1E+10	1	-1E+10	1	-1E+10	1	-1E+10	1	-1E+10	1
4902554	106	C	01/15/2024	23:03	-133.848	47.604	0	135.00	0	6.3210	0	33.0720	0	25.991	0	133.828	0	-1e10	8	-1e10	8	-1E+10	1	-1E+10	1	-1E+10	1	-1E+10	1	-1E+10	1	-1E+10	1
4902554	106	C	01/15/2024	23:03	-133.848	47.604	0	136.00	0	6.3180	0	33.0750	0	25.994	0	134.819	0	-1e10	8	-1e10	8	-1E+10	1	-1E+10	1	-1E+10	1	-1E+10	1	-1E+10	1	-1E+10	1
4902554	106	C	01/15/2024	23:03	-133.848	47.604	0	137.10	0	6.3170	0	33.0820	0	25.999	0	135.909	0	-1e10	8	-1e10	8	-1E+10	1	-1E+10	1	-1E+10	1	-1E+10	1	-1E+10	1	-1E+10	1
4902554	106	C	01/15/2024	23:03	-133.848	47.604	0	138.20	0	6.3140	0	33.1000	0	26.014	0	136.999	0	-1e10	8	-1e10	8	-1E+10	1	-1E+10	1	-1E+10	1	-1E+10	1	-1E+10	1	-1E+10	1
4902554	106	C	01/15/2024	23:03	-133.848	47.604	0	139.30	0	6.3100	0	33.1060	0	26.019	0	138.089	0	-1e10	8	-1e10	8	-1E+10	1	-1E+10	1	-1E+10	1	-1E+10	1	-1E+10	1	-1E+10	1
4902554	106	C	01/15/2024	23:03	-133.848	47.604	0	140.30	0	6.3070	0	33.1110	0	26.023	0	139.080	0	-1e10	8	-1e10	8	-1E+10	1	-1E+10	1	-1E+10	1	-1E+10	1	-1E+10	1	-1E+10	1
4902554	106	C	01/15/2024	23:03	-133.848	47.604	0	141.40	0	6.3000	0	33.1150	0	26.027	0	140.171	0	-1e10	8	-1e10	8	-1E+10	1	-1E+10	1	-1E+10	1	-1E+10	1	-1E+10	1	-1E+10	1
4902554	106	C	01/15/2024	23:03	-133.848	47.604	0	142.40	0	6.2910	0	33.1250	0	26.036	0	141.161	0	-1e10	8	-1e10	8	-1E+10	1	-1E+10	1	-1E+10	1	-1E+10	1	-1E+10	1	-1E+10	1
4902554	106	C	01/15/2024	23:03	-133.848	47.604	0	143.40	0	6.2830	0	33.1240	0	26.037	0	142.152	0	-1e10	8	-1e10	8	-1E+10	1	-1E+10	1	-1E+10	1	-1E+10	1	-1E+10	1	-1E+10	1
4902554	106	C	01/15/2024	23:03	-133.848	47.604	0	144.40	0	6.2700	0	33.1400	0	26.051	0	143.143	0	-1e10	8	-1e10	8	-1E+10	1	-1E+10	1	-1E+10	1	-1E+10	1	-1E+10	1	-1E+10	1
4902554	106	C	01/15/2024	23:03	-133.848	47.604	0	145.40	0	6.2670	0	33.1480	0	26.058	0	144.134	0	-1e10	8	-1e10	8	-1E+10	1	-1E+10	1	-1E+10	1	-1E+10	1	-1E+10	1	-1E+10	1
4902554	106	C	01/15/2024	23:03	-133.848	47.604	0	146.40	0	6.2160	0	33.1800	0	26.089	0	145.125	0	-1e10	8	-1e10	8	-1E+10	1	-1E+10	1	-1E+10	1	-1E+10	1	-1E+10	1	-1E+10	1
4902554	106	C	01/15/2024	23:03	-133.848	47.604	0	147.50	0	6.1270	0	33.2070	0	26.122	0	146.215	0	-1e10	8	-1e10	8	-1E+10	1	-1E+10	1	-1E+10	1	-1E+10	1	-1E+10	1	-1E+10	1
4902554	106	C	01/15/2024	23:03	-133.848	47.604	0	148.50	0	6.0670	0	33.2230	0	26.142	0	147.206	0	-1e10	8	-1e10	8	-1E+10	1	-1E+10	1	-1E+10	1	-1E+10	1	-1E+10	1	-1E+10	1
4902554	106	C	01/15/2024	23:03	-133.848	47.604	0	149.60	0	5.9860	0	33.2360	0	26.162	0	148.296	0	-1e10	8	-1e10	8	-1E+10	1	-1E+10	1	-1E+10	1	-1E+10	1	-1E+10	1	-1E+10	1
4902554	106	C	01/15/2024	23:03	-133.848	47.604	0	150.60	0	5.9450	0	33.2460	0	26.175	0	149.287	0	-1e10	8	-1e10	8	-1E+10	1	-1E+10	1	-1E+10	1	-1E+10	1	-1E+10	1	-1E+10	1
4902554	106	C	01/15/2024	23:03	-133.848	47.604	0	151.90	0	5.9050	0	33.2640	0	26.194	0	150.575	0	-1e10	8	-1e10	8	-1E+10	1	-1E+10	1	-1E+10	1	-1E+10	1	-1E+10	1	-1E+10	1
4902554	106	C	01/15/2024	23:03	-133.848	47.604	0	153.10	0	5.8790	0	33.2880	0	26.217	0	151.764	0	-1e10	8	-1e10	8	-1E+10	1	-1E+10	1	-1E+10	1	-1E+10	1	-1E+10	1	-1E+10	1
4902554	106	C	01/15/2024	23:03	-133.848	47.604	0	153.90	0	5.8720	0	33.3010	0	26.228	0	152.557	0	-1e10	8	-1e10	8	-1E+10	1	-1E+10	1	-1E+10	1	-1E+10	1	-1E+10	1	-1E+10	1
4902554	106	C	01/15/2024	23:03	-133.848	47.604	0	155.00	0	5.8640	0	33.3110	0	26.237	0	153.647	0	-1e10	8	-1e10	8	-1E+10	1	-1E+10	1	-1E+10	1	-1E+10	1	-1E+10	1	-1E+10	1
4902554	106	C	01/15/2024	23:03	-133.848	47.604	0	156.20	0	5.8660	0	33.3160	0	26.240	0	154.836	0	-1e10	8	-1e10	8	-1E+10	1	-1E+10	1	-1E+10	1	-1E+10	1	-1E+10	1	-1E+10	1
4902554	106	C	01/15/2024	23:03	-133.848	47.604	0	157.00	0	5.8660	0	33.3360	0	26.256	0	155.629	0	-1e10	8	-1e10	8	-1E+10	1	-1E+10	1	-1E+10	1	-1E+10	1	-1E+10	1	-1E+10	1
4902554	106	C	01/15/2024	23:03	-133.848	47.604	0	157.80	0	5.8180	0	33.3700	0	26.289	0	156.422	0	-1e10	8	-1e10	8	-1E+10	1	-1E+10	1	-1E+10	1	-1E+10	1	-1E+10	1	-1E+10	1
4902554	106	C	01/15/2024	23:03	-133.848	47.604	0	159.00	0	5.7660	0	33.3800	0	26.303	0	157.611	0	-1e10	8	-1e10	8	-1E+10	1	-1E+10	1	-1E+10	1	-1E+10	1	-1E+10	1	-1E+10	1
4902554	106	C	01/15/2024	23:03	-133.848	47.604	0	160.20	0	5.7530	0	33.3870	0	26.310	0	158.800	0	-1e10	8	-1e10	8	-1E+10	1	-1E+10	1	-1E+10	1	-1E+10	1	-1E+10	1	-1E+10	1
4902554	106	C	01/15/2024	23:03	-133.848	47.604	0	161.10	0	5.7470	0	33.3940	0	26.316	0	159.692	0	-1e10	8	-1e10	8	-1E+10	1	-1E+10	1	-1E+10	1	-1E+10	1	-1E+10	1	-1E+10	1
4902554	106	C	01/15/2024	23:03	-133.848	47.604	0	162.00	0	5.7470	0	33.3960	0	26.318	0	160.583	0	-1e10	8	-1e10	8	-1E+10	1	-1E+10	1	-1E+10	1	-1E+10	1	-1E+10	1	-1E+10	1
4902554	106	C	01/15/2024	23:03	-133.848	47.604	0	162.80	0	5.7500	0	33.4020	0	26.322	0	161.376	0	-1e10	8	-1e10	8	-1E+10	1	-1E+10	1	-1E+10	1	-1E+10	1	-1E+10	1	-1E+10	1
4902554	106	C	01/15/2024	23:03	-133.848	47.604	0	163.70	0	5.7540	0	33.4050	0	26.324	0	162.268	0	-1e10	8	-1e10	8	-1E+10	1	-1E+10	1	-1E+10	1	-1E+10	1	-1E+10	1	-1E+10	1
4902554	106	C	01/15/2024	23:03	-133.848	47.604	0	164.90	0	5.7660	0	33.4120	0	26.328	0	163.457	0	-1e10	8	-1e10	8	-1E+10	1	-1E+10	1	-1E+10	1	-1E+10	1	-1E+10	1	-1E+10	1
4902554	106	C	01/15/2024	23:03	-133.848	47.604	0	166.20	0	5.7770	0	33.4180	0	26.332	0	164.745	0	-1e10	8	-1e10	8	-1E+10	1	-1E+10	1	-1E+10	1	-1E+10	1	-1E+10	1	-1E+10	1
4902554	106	C	01/15/2024	23:03	-133.848	47.604	0	167.10	0	5.7860	0	33.4440	0	26.351	0	165.637	0	-1e10	8	-1e10	8	-1E+10	1	-1E+10	1	-1E+10	1	-1E+10	1	-1E+10	1	-1E+10	1
4902554	106	C	01/15/2024	23:03	-133.848	47.604	0	168.00	0	5.7920	0	33.4560	0	26.360	0	166.529	0	-1e10	8	-1e10	8	-1E+10	1	-1E+10	1	-1E+10	1	-1E+10	1	-1E+10	1	-1E+10	1
4902554	106	C	01/15/2024	23:03	-133.848	47.604	0	169.00	0	5.8170	0	33.4720	0	26.370	0	167.519	0	-1e10	8	-1e10	8	-1E+10	1	-1E+10	1	-1E+10	1	-1E+10	1	-1E+10	1	-1E+10	1
4902554	106	C	01/15/2024	23:03	-133.848	47.604	0	169.90	0	5.8350	0	33.4880	0	26.380	0	168.411	0	-1e10	8	-1e10	8	-1E+10	1	-1E+10	1	-1E+10	1	-1E+10	1	-1E+10	1	-1E+10	1
4902554	106	C	01/15/2024	23:03	-133.848	47.604	0	170.80	0	5.8440	0	33.4980	0	26.387	0	169.303	0	-1e10	8	-1e10	8	-1E+10	1	-1E+10	1	-1E+10	1	-1E+10	1	-1E+10	1	-1E+10	1
4902554	106	C	01/15/2024	23:03	-133.848	47.604	0	171.80	0	5.8430	0	33.5010	0	26.389	0	170.294	0	-1e10	8	-1e10	8	-1E+10	1	-1E+10	1	-1E+10	1	-1E+10	1	-1E+10	1	-1E+10	1
4902554	106	C	01/15/2024	23:03	-133.848	47.604	0	172.70	0	5.8430	0	33.5100	0	26.397	0	171.185	0	-1e10	8	-1e10	8	-1E+10	1	-1E+10	1	-1E+10	1	-1E+10	1	-1E+10	1	-1E+10	1
4902554	106	C	01/15/2024	23:03	-133.848	47.604	0	173.70	0	5.8480	0	33.5150	0	26.400	0	172.176	0	-1e10	8	-1e10	8	-1E+10	1	-1E+10	1	-1E+10	1	-1E+10	1	-1E+10	1	-1E+10	1
4902554	106	C	01/15/2024	23:03	-133.848	47.604	0	174.70	0	5.8530	0	33.5230	0	26.406	0	173.167	0	-1e10	8	-1e10	8	-1E+10	1	-1E+10	1	-1E+10	1	-1E+10	1	-1E+10	1	-1E+10	1
4902554	106	C	01/15/2024	23:03	-133.848	47.604	0	175.70	0	5.8830	0	33.5470	0	26.421	0	174.158	0	-1e10	8	-1e10	8	-1E+10	1	-1E+10	1	-1E+10	1	-1E+10	1	-1E+10	1	-1E+10	1
4902554	106	C	01/15/2024	23:03	-133.848	47.604	0	176.70	0	5.8910	0	33.5650	0	26.434	0	175.149	0	-1e10	8	-1e10	8	-1E+10	1	-1E+10	1	-1E+10	1	-1E+10	1	-1E+10	1	-1E+10	1
4902554	106	C	01/15/2024	23:03	-133.848	47.604	0	177.70	0	5.8760	0	33.5710	0	26.441	0	176.139	0	-1e10	8	-1e10	8	-1E+10	1	-1E+10	1	-1E+10	1	-1E+10	1	-1E+10	1	-1E+10	1
4902554	106	C	01/15/2024	23:03	-133.848	47.604	0	178.60	0	5.8910	0	33.5810	0	26.447	0	177.031	0	-1e10	8	-1e10	8	-1E+10	1	-1E+10	1	-1E+10	1	-1E+10	1	-1E+10	1	-1E+10	1
4902554	106	C	01/15/2024	23:03	-133.848	47.604	0	179.60	0	5.8940	0	33.5940	0	26.457	0	178.022	0	-1e10	8	-1e10	8	-1E+10	1	-1E+10	1	-1E+10	1	-1E+10	1	-1E+10	1	-1E+10	1
4902554	106	C	01/15/2024	23:03	-133.848	47.604	0	180.60	0	5.8910	0	33.5980	0	26.460	0	179.013	0	-1e10	8	-1e10	8	-1E+10	1	-1E+10	1	-1E+10	1	-1E+10	1	-1E+10	1	-1E+10	1
4902554	106	C	01/15/2024	23:03	-133.848	47.604	0	181.90	0	5.8920	0	33.6060	0	26.467	0	180.301	0	-1e10	8	-1e10	8	-1E+10	1	-1E+10	1	-1E+10	1	-1E+10	1	-1E+10	1	-1E+10	1
4902554	106	C	01/15/2024	23:03	-133.848	47.604	0	183.20	0	5.8990	0	33.6080	0	26.467	0	181.589	0	-1e10	8	-1e10	8	-1E+10	1	-1E+10	1	-1E+10	1	-1E+10	1	-1E+10	1	-1E+10	1
4902554	106	C	01/15/2024	23:03	-133.848	47.604	0	184.00	0	5.9020	0	33.6130	0	26.471	0	182.381	0	-1e10	8	-1e10	8	-1E+10	1	-1E+10	1	-1E+10	1	-1E+10	1	-1E+10	1	-1E+10	1
4902554	106	C	01/15/2024	23:03	-133.848	47.604	0	185.00	0	5.9030	0	33.6260	0	26.481	0	183.372	0	-1e10	8	-1e10	8	-1E+10	1	-1E+10	1	-1E+10	1	-1E+10	1	-1E+10	1	-1E+10	1
4902554	106	C	01/15/2024	23:03	-133.848	47.604	0	186.20	0	5.9050	0	33.6340	0	26.487	0	184.561	0	-1e10	8	-1e10	8	-1E+10	1	-1E+10	1	-1E+10	1	-1E+10	1	-1E+10	1	-1E+10	1
4902554	106	C	01/15/2024	23:03	-133.848	47.604	0	186.90	0	5.9060	0	33.6370	0	26.489	0	185.254	0	-1e10	8	-1e10	8	-1E+10	1	-1E+10	1	-1E+10	1	-1E+10	1	-1E+10	1	-1E+10	1
4902554	106	C	01/15/2024	23:03	-133.848	47.604	0	188.00	0	5.9070	0	33.6430	0	26.494	0	186.344	0	-1e10	8	-1e10	8	-1E+10	1	-1E+10	1	-1E+10	1	-1E+10	1	-1E+10	1	-1E+10	1
4902554	106	C	01/15/2024	23:03	-133.848	47.604	0	189.20	0	5.9050	0	33.6490	0	26.499	0	187.533	0	-1e10	8	-1e10	8	-1E+10	1	-1E+10	1	-1E+10	1	-1E+10	1	-1E+10	1	-1E+10	1
4902554	106	C	01/15/2024	23:03	-133.848	47.604	0	189.90	0	5.9040	0	33.6500	0	26.500	0	188.227	0	-1e10	8	-1e10	8	-1E+10	1	-1E+10	1	-1E+10	1	-1E+10	1	-1E+10	1	-1E+10	1
4902554	106	C	01/15/2024	23:03	-133.848	47.604	0	191.00	0	5.8860	0	33.6640	0	26.513	0	189.317	0	-1e10	8	-1e10	8	-1E+10	1	-1E+10	1	-1E+10	1	-1E+10	1	-1E+10	1	-1E+10	1
4902554	106	C	01/15/2024	23:03	-133.848	47.604	0	192.10	0	5.8770	0	33.6750	0	26.523	0	190.406	0	-1e10	8	-1e10	8	-1E+10	1	-1E+10	1	-1E+10	1	-1E+10	1	-1E+10	1	-1E+10	1
4902554	106	C	01/15/2024	23:03	-133.848	47.604	0	192.90	0	5.8730	0	33.6800	0	26.528	0	191.199	0	-1e10	8	-1e10	8	-1E+10	1	-1E+10	1	-1E+10	1	-1E+10	1	-1E+10	1	-1E+10	1
4902554	106	C	01/15/2024	23:03	-133.848	47.604	0	193.70	0	5.8710	0	33.6900	0	26.536	0	191.991	0	-1e10	8	-1e10	8	-1E+10	1	-1E+10	1	-1E+10	1	-1E+10	1	-1E+10	1	-1E+10	1
4902554	106	C	01/15/2024	23:03	-133.848	47.604	0	194.90	0	5.8670	0	33.6940	0	26.539	0	193.180	0	-1e10	8	-1e10	8	-1E+10	1	-1E+10	1	-1E+10	1	-1E+10	1	-1E+10	1	-1E+10	1
4902554	106	C	01/15/2024	23:03	-133.848	47.604	0	196.10	0	5.8580	0	33.7020	0	26.547	0	194.369	0	-1e10	8	-1e10	8	-1E+10	1	-1E+10	1	-1E+10	1	-1E+10	1	-1E+10	1	-1E+10	1
4902554	106	C	01/15/2024	23:03	-133.848	47.604	0	196.90	0	5.8540	0	33.7030	0	26.548	0	195.162	0	-1e10	8	-1e10	8	-1E+10	1	-1E+10	1	-1E+10	1	-1E+10	1	-1E+10	1	-1E+10	1
4902554	106	C	01/15/2024	23:03	-133.848	47.604	0	197.80	0	5.8450	0	33.7110	0	26.556	0	196.053	0	-1e10	8	-1e10	8	-1E+10	1	-1E+10	1	-1E+10	1	-1E+10	1	-1E+10	1	-1E+10	1
4902554	106	C	01/15/2024	23:03	-133.848	47.604	0	199.00	0	5.8380	0	33.7140	0	26.559	0	197.242	0	-1e10	8	-1e10	8	-1E+10	1	-1E+10	1	-1E+10	1	-1E+10	1	-1E+10	1	-1E+10	1
4902554	106	C	01/15/2024	23:03	-133.848	47.604	0	200.20	0	5.8270	0	33.7170	0	26.563	0	198.431	0	-1e10	8	-1e10	8	-1E+10	1	-1E+10	1	-1E+10	1	-1E+10	1	-1E+10	1	-1E+10	1
4902554	106	C	01/15/2024	23:03	-133.848	47.604	0	201.10	0	5.8080	0	33.7180	0	26.566	0	199.323	0	-1e10	8	-1e10	8	-1E+10	1	-1E+10	1	-1E+10	1	-1E+10	1	-1E+10	1	-1E+10	1
4902554	106	C	01/15/2024	23:03	-133.848	47.604	0	201.90	0	5.7780	0	33.7220	0	26.572	0	200.115	0	-1e10	8	-1e10	8	-1E+10	1	-1E+10	1	-1E+10	1	-1E+10	1	-1E+10	1	-1E+10	1
4902554	106	C	01/15/2024	23:03	-133.848	47.604	0	202.70	0	5.7600	0	33.7260	0	26.578	0	200.908	0	-1e10	8	-1e10	8	-1E+10	1	-1E+10	1	-1E+10	1	-1E+10	1	-1E+10	1	-1E+10	1
4902554	106	C	01/15/2024	23:03	-133.848	47.604	0	204.00	0	5.7220	0	33.7300	0	26.586	0	202.196	0	-1e10	8	-1e10	8	-1E+10	1	-1E+10	1	-1E+10	1	-1E+10	1	-1E+10	1	-1E+10	1
4902554	106	C	01/15/2024	23:03	-133.848	47.604	0	205.30	0	5.6930	0	33.7320	0	26.591	0	203.483	0	-1e10	8	-1e10	8	-1E+10	1	-1E+10	1	-1E+10	1	-1E+10	1	-1E+10	1	-1E+10	1
4902554	106	C	01/15/2024	23:03	-133.848	47.604	0	206.20	0	5.6870	0	33.7320	0	26.591	0	204.375	0	-1e10	8	-1e10	8	-1E+10	1	-1E+10	1	-1E+10	1	-1E+10	1	-1E+10	1	-1E+10	1
4902554	106	C	01/15/2024	23:03	-133.848	47.604	0	207.10	0	5.6700	0	33.7340	0	26.595	0	205.267	0	-1e10	8	-1e10	8	-1E+10	1	-1E+10	1	-1E+10	1	-1E+10	1	-1E+10	1	-1E+10	1
4902554	106	C	01/15/2024	23:03	-133.848	47.604	0	208.00	0	5.6650	0	33.7350	0	26.597	0	206.158	0	-1e10	8	-1e10	8	-1E+10	1	-1E+10	1	-1E+10	1	-1E+10	1	-1E+10	1	-1E+10	1
4902554	106	C	01/15/2024	23:03	-133.848	47.604	0	208.80	0	5.6610	0	33.7360	0	26.598	0	206.951	0	-1e10	8	-1e10	8	-1E+10	1	-1E+10	1	-1E+10	1	-1E+10	1	-1E+10	1	-1E+10	1
4902554	106	C	01/15/2024	23:03	-133.848	47.604	0	209.80	0	5.6570	0	33.7360	0	26.598	0	207.941	0	-1e10	8	-1e10	8	-1E+10	1	-1E+10	1	-1E+10	1	-1E+10	1	-1E+10	1	-1E+10	1
4902554	106	C	01/15/2024	23:03	-133.848	47.604	0	210.60	0	5.6570	0	33.7360	0	26.598	0	208.734	0	-1e10	8	-1e10	8	-1E+10	1	-1E+10	1	-1E+10	1	-1E+10	1	-1E+10	1	-1E+10	1
4902554	106	C	01/15/2024	23:03	-133.848	47.604	0	211.50	0	5.6560	0	33.7370	0	26.599	0	209.625	0	-1e10	8	-1e10	8	-1E+10	1	-1E+10	1	-1E+10	1	-1E+10	1	-1E+10	1	-1E+10	1
4902554	106	C	01/15/2024	23:03	-133.848	47.604	0	212.90	0	5.6550	0	33.7360	0	26.599	0	211.012	0	-1e10	8	-1e10	8	-1E+10	1	-1E+10	1	-1E+10	1	-1E+10	1	-1E+10	1	-1E+10	1
4902554	106	C	01/15/2024	23:03	-133.848	47.604	0	214.20	0	5.6510	0	33.7370	0	26.600	0	212.300	0	-1e10	8	-1e10	8	-1E+10	1	-1E+10	1	-1E+10	1	-1E+10	1	-1E+10	1	-1E+10	1
4902554	106	C	01/15/2024	23:03	-133.848	47.604	0	215.20	0	5.6460	0	33.7380	0	26.601	0	213.291	0	-1e10	8	-1e10	8	-1E+10	1	-1E+10	1	-1E+10	1	-1E+10	1	-1E+10	1	-1E+10	1
4902554	106	C	01/15/2024	23:03	-133.848	47.604	0	216.00	0	5.6420	0	33.7380	0	26.602	0	214.083	0	-1e10	8	-1e10	8	-1E+10	1	-1E+10	1	-1E+10	1	-1E+10	1	-1E+10	1	-1E+10	1
4902554	106	C	01/15/2024	23:03	-133.848	47.604	0	216.90	0	5.6340	0	33.7390	0	26.604	0	214.975	0	-1e10	8	-1e10	8	-1E+10	1	-1E+10	1	-1E+10	1	-1E+10	1	-1E+10	1	-1E+10	1
4902554	106	C	01/15/2024	23:03	-133.848	47.604	0	217.80	0	5.6300	0	33.7390	0	26.604	0	215.866	0	-1e10	8	-1e10	8	-1E+10	1	-1E+10	1	-1E+10	1	-1E+10	1	-1E+10	1	-1E+10	1
4902554	106	C	01/15/2024	23:03	-133.848	47.604	0	218.70	0	5.6240	0	33.7400	0	26.606	0	216.758	0	-1e10	8	-1e10	8	-1E+10	1	-1E+10	1	-1E+10	1	-1E+10	1	-1E+10	1	-1E+10	1
4902554	106	C	01/15/2024	23:03	-133.848	47.604	0	219.60	0	5.6210	0	33.7400	0	26.606	0	217.649	0	-1e10	8	-1e10	8	-1E+10	1	-1E+10	1	-1E+10	1	-1E+10	1	-1E+10	1	-1E+10	1
4902554	106	C	01/15/2024	23:03	-133.848	47.604	0	220.90	0	5.6000	0	33.7410	0	26.609	0	218.937	0	-1e10	8	-1e10	8	-1E+10	1	-1E+10	1	-1E+10	1	-1E+10	1	-1E+10	1	-1E+10	1
4902554	106	C	01/15/2024	23:03	-133.848	47.604	0	222.30	0	5.5650	0	33.7440	0	26.616	0	220.324	0	-1e10	8	-1e10	8	-1E+10	1	-1E+10	1	-1E+10	1	-1E+10	1	-1E+10	1	-1E+10	1
4902554	106	C	01/15/2024	23:03	-133.848	47.604	0	223.20	0	5.5480	0	33.7490	0	26.622	0	221.215	0	-1e10	8	-1e10	8	-1E+10	1	-1E+10	1	-1E+10	1	-1E+10	1	-1E+10	1	-1E+10	1
4902554	106	C	01/15/2024	23:03	-133.848	47.604	0	224.20	0	5.5310	0	33.7480	0	26.623	0	222.206	0	-1e10	8	-1e10	8	-1E+10	1	-1E+10	1	-1E+10	1	-1E+10	1	-1E+10	1	-1E+10	1
4902554	106	C	01/15/2024	23:03	-133.848	47.604	0	225.10	0	5.5280	0	33.7490	0	26.624	0	223.098	0	-1e10	8	-1e10	8	-1E+10	1	-1E+10	1	-1E+10	1	-1E+10	1	-1E+10	1	-1E+10	1
4902554	106	C	01/15/2024	23:03	-133.848	47.604	0	226.00	0	5.5270	0	33.7490	0	26.624	0	223.989	0	-1e10	8	-1e10	8	-1E+10	1	-1E+10	1	-1E+10	1	-1E+10	1	-1E+10	1	-1E+10	1
4902554	106	C	01/15/2024	23:03	-133.848	47.604	0	226.90	0	5.5260	0	33.7490	0	26.624	0	224.881	0	-1e10	8	-1e10	8	-1E+10	1	-1E+10	1	-1E+10	1	-1E+10	1	-1E+10	1	-1E+10	1
4902554	106	C	01/15/2024	23:03	-133.848	47.604	0	227.90	0	5.5250	0	33.7490	0	26.625	0	225.871	0	-1e10	8	-1e10	8	-1E+10	1	-1E+10	1	-1E+10	1	-1E+10	1	-1E+10	1	-1E+10	1
4902554	106	C	01/15/2024	23:03	-133.848	47.604	0	228.80	0	5.5210	0	33.7500	0	26.626	0	226.763	0	-1e10	8	-1e10	8	-1E+10	1	-1E+10	1	-1E+10	1	-1E+10	1	-1E+10	1	-1E+10	1
4902554	106	C	01/15/2024	23:03	-133.848	47.604	0	229.70	0	5.5170	0	33.7500	0	26.626	0	227.654	0	-1e10	8	-1e10	8	-1E+10	1	-1E+10	1	-1E+10	1	-1E+10	1	-1E+10	1	-1E+10	1
4902554	106	C	01/15/2024	23:03	-133.848	47.604	0	230.60	0	5.5050	0	33.7520	0	26.629	0	228.546	0	-1e10	8	-1e10	8	-1E+10	1	-1E+10	1	-1E+10	1	-1E+10	1	-1E+10	1	-1E+10	1
4902554	106	C	01/15/2024	23:03	-133.848	47.604	0	231.90	0	5.4910	0	33.7530	0	26.632	0	229.833	0	-1e10	8	-1e10	8	-1E+10	1	-1E+10	1	-1E+10	1	-1E+10	1	-1E+10	1	-1E+10	1
4902554	106	C	01/15/2024	23:03	-133.848	47.604	0	233.20	0	5.4860	0	33.7530	0	26.632	0	231.121	0	-1e10	8	-1e10	8	-1E+10	1	-1E+10	1	-1E+10	1	-1E+10	1	-1E+10	1	-1E+10	1
4902554	106	C	01/15/2024	23:03	-133.848	47.604	0	234.10	0	5.4740	0	33.7560	0	26.636	0	232.012	0	-1e10	8	-1e10	8	-1E+10	1	-1E+10	1	-1E+10	1	-1E+10	1	-1E+10	1	-1E+10	1
4902554	106	C	01/15/2024	23:03	-133.848	47.604	0	235.00	0	5.4600	0	33.7570	0	26.639	0	232.904	0	-1e10	8	-1e10	8	-1E+10	1	-1E+10	1	-1E+10	1	-1E+10	1	-1E+10	1	-1E+10	1
4902554	106	C	01/15/2024	23:03	-133.848	47.604	0	235.90	0	5.4480	0	33.7580	0	26.641	0	233.795	0	-1e10	8	-1e10	8	-1E+10	1	-1E+10	1	-1E+10	1	-1E+10	1	-1E+10	1	-1E+10	1
4902554	106	C	01/15/2024	23:03	-133.848	47.604	0	236.80	0	5.4430	0	33.7590	0	26.642	0	234.687	0	-1e10	8	-1e10	8	-1E+10	1	-1E+10	1	-1E+10	1	-1E+10	1	-1E+10	1	-1E+10	1
4902554	106	C	01/15/2024	23:03	-133.848	47.604	0	237.70	0	5.4400	0	33.7600	0	26.643	0	235.578	0	-1e10	8	-1e10	8	-1E+10	1	-1E+10	1	-1E+10	1	-1E+10	1	-1E+10	1	-1E+10	1
4902554	106	C	01/15/2024	23:03	-133.848	47.604	0	238.60	0	5.4370	0	33.7600	0	26.644	0	236.470	0	-1e10	8	-1e10	8	-1E+10	1	-1E+10	1	-1E+10	1	-1E+10	1	-1E+10	1	-1E+10	1
4902554	106	C	01/15/2024	23:03	-133.848	47.604	0	239.90	0	5.4290	0	33.7620	0	26.646	0	237.757	0	-1e10	8	-1e10	8	-1E+10	1	-1E+10	1	-1E+10	1	-1E+10	1	-1E+10	1	-1E+10	1
4902554	106	C	01/15/2024	23:03	-133.848	47.604	0	241.30	0	5.4000	0	33.7670	0	26.654	0	239.144	0	-1e10	8	-1e10	8	-1E+10	1	-1E+10	1	-1E+10	1	-1E+10	1	-1E+10	1	-1E+10	1
4902554	106	C	01/15/2024	23:03	-133.848	47.604	0	242.10	0	5.3920	0	33.7680	0	26.656	0	239.937	0	-1e10	8	-1e10	8	-1E+10	1	-1E+10	1	-1E+10	1	-1E+10	1	-1E+10	1	-1E+10	1
4902554	106	C	01/15/2024	23:03	-133.848	47.604	0	243.00	0	5.3830	0	33.7690	0	26.657	0	240.828	0	-1e10	8	-1e10	8	-1E+10	1	-1E+10	1	-1E+10	1	-1E+10	1	-1E+10	1	-1E+10	1
4902554	106	C	01/15/2024	23:03	-133.848	47.604	0	243.90	0	5.3750	0	33.7700	0	26.659	0	241.719	0	-1e10	8	-1e10	8	-1E+10	1	-1E+10	1	-1E+10	1	-1E+10	1	-1E+10	1	-1E+10	1
4902554	106	C	01/15/2024	23:03	-133.848	47.604	0	244.80	0	5.3640	0	33.7710	0	26.661	0	242.611	0	-1e10	8	-1e10	8	-1E+10	1	-1E+10	1	-1E+10	1	-1E+10	1	-1E+10	1	-1E+10	1
4902554	106	C	01/15/2024	23:03	-133.848	47.604	0	245.70	0	5.3610	0	33.7720	0	26.662	0	243.502	0	-1e10	8	-1e10	8	-1E+10	1	-1E+10	1	-1E+10	1	-1E+10	1	-1E+10	1	-1E+10	1
4902554	106	C	01/15/2024	23:03	-133.848	47.604	0	247.00	0	5.3440	0	33.7730	0	26.665	0	244.790	0	-1e10	8	-1e10	8	-1E+10	1	-1E+10	1	-1E+10	1	-1E+10	1	-1E+10	1	-1E+10	1
4902554	106	C	01/15/2024	23:03	-133.848	47.604	0	248.30	0	5.3210	0	33.7750	0	26.669	0	246.077	0	-1e10	8	-1e10	8	-1E+10	1	-1E+10	1	-1E+10	1	-1E+10	1	-1E+10	1	-1E+10	1
4902554	106	C	01/15/2024	23:03	-133.848	47.604	0	249.20	0	5.3130	0	33.7750	0	26.670	0	246.969	0	-1e10	8	-1e10	8	-1E+10	1	-1E+10	1	-1E+10	1	-1E+10	1	-1E+10	1	-1E+10	1
4902554	106	C	01/15/2024	23:03	-133.848	47.604	0	250.10	0	5.3010	0	33.7760	0	26.673	0	247.860	0	-1e10	8	-1e10	8	-1E+10	1	-1E+10	1	-1E+10	1	-1E+10	1	-1E+10	1	-1E+10	1
4902554	106	C	01/15/2024	23:03	-133.848	47.604	0	251.00	0	5.2950	0	33.7770	0	26.674	0	248.752	0	-1e10	8	-1e10	8	-1E+10	1	-1E+10	1	-1E+10	1	-1E+10	1	-1E+10	1	-1E+10	1
4902554	106	C	01/15/2024	23:03	-133.848	47.604	0	251.90	0	5.2870	0	33.7770	0	26.675	0	249.643	0	-1e10	8	-1e10	8	-1E+10	1	-1E+10	1	-1E+10	1	-1E+10	1	-1E+10	1	-1E+10	1
4902554	106	C	01/15/2024	23:03	-133.848	47.604	0	252.70	0	5.2820	0	33.7770	0	26.676	0	250.435	0	-1e10	8	-1e10	8	-1E+10	1	-1E+10	1	-1E+10	1	-1E+10	1	-1E+10	1	-1E+10	1
4902554	106	C	01/15/2024	23:03	-133.848	47.604	0	253.60	0	5.2780	0	33.7770	0	26.676	0	251.327	0	-1e10	8	-1e10	8	-1E+10	1	-1E+10	1	-1E+10	1	-1E+10	1	-1E+10	1	-1E+10	1
4902554	106	C	01/15/2024	23:03	-133.848	47.604	0	254.90	0	5.2730	0	33.7760	0	26.676	0	252.614	0	-1e10	8	-1e10	8	-1E+10	1	-1E+10	1	-1E+10	1	-1E+10	1	-1E+10	1	-1E+10	1
4902554	106	C	01/15/2024	23:03	-133.848	47.604	0	256.20	0	5.2670	0	33.7770	0	26.677	0	253.902	0	-1e10	8	-1e10	8	-1E+10	1	-1E+10	1	-1E+10	1	-1E+10	1	-1E+10	1	-1E+10	1
4902554	106	C	01/15/2024	23:03	-133.848	47.604	0	257.10	0	5.2420	0	33.7810	0	26.683	0	254.793	0	-1e10	8	-1e10	8	-1E+10	1	-1E+10	1	-1E+10	1	-1E+10	1	-1E+10	1	-1E+10	1
4902554	106	C	01/15/2024	23:03	-133.848	47.604	0	258.00	0	5.2320	0	33.7820	0	26.685	0	255.685	0	-1e10	8	-1e10	8	-1E+10	1	-1E+10	1	-1E+10	1	-1E+10	1	-1E+10	1	-1E+10	1
4902554	106	C	01/15/2024	23:03	-133.848	47.604	0	258.80	0	5.2270	0	33.7820	0	26.686	0	256.477	0	-1e10	8	-1e10	8	-1E+10	1	-1E+10	1	-1E+10	1	-1E+10	1	-1E+10	1	-1E+10	1
4902554	106	C	01/15/2024	23:03	-133.848	47.604	0	259.70	0	5.2230	0	33.7830	0	26.687	0	257.368	0	-1e10	8	-1e10	8	-1E+10	1	-1E+10	1	-1E+10	1	-1E+10	1	-1E+10	1	-1E+10	1
4902554	106	C	01/15/2024	23:03	-133.848	47.604	0	260.60	0	5.2130	0	33.7850	0	26.690	0	258.260	0	-1e10	8	-1e10	8	-1E+10	1	-1E+10	1	-1E+10	1	-1E+10	1	-1E+10	1	-1E+10	1
4902554	106	C	01/15/2024	23:03	-133.848	47.604	0	261.90	0	5.2010	0	33.7850	0	26.691	0	259.547	0	-1e10	8	-1e10	8	-1E+10	1	-1E+10	1	-1E+10	1	-1E+10	1	-1E+10	1	-1E+10	1
4902554	106	C	01/15/2024	23:03	-133.848	47.604	0	263.30	0	5.1880	0	33.7870	0	26.695	0	260.934	0	-1e10	8	-1e10	8	-1E+10	1	-1E+10	1	-1E+10	1	-1E+10	1	-1E+10	1	-1E+10	1
4902554	106	C	01/15/2024	23:03	-133.848	47.604	0	264.20	0	5.1840	0	33.7880	0	26.696	0	261.825	0	-1e10	8	-1e10	8	-1E+10	1	-1E+10	1	-1E+10	1	-1E+10	1	-1E+10	1	-1E+10	1
4902554	106	C	01/15/2024	23:03	-133.848	47.604	0	265.10	0	5.1840	0	33.7870	0	26.695	0	262.716	0	-1e10	8	-1e10	8	-1E+10	1	-1E+10	1	-1E+10	1	-1E+10	1	-1E+10	1	-1E+10	1
4902554	106	C	01/15/2024	23:03	-133.848	47.604	0	266.00	0	5.1830	0	33.7890	0	26.697	0	263.608	0	-1e10	8	-1e10	8	-1E+10	1	-1E+10	1	-1E+10	1	-1E+10	1	-1E+10	1	-1E+10	1
4902554	106	C	01/15/2024	23:03	-133.848	47.604	0	266.90	0	5.1740	0	33.7900	0	26.699	0	264.499	0	-1e10	8	-1e10	8	-1E+10	1	-1E+10	1	-1E+10	1	-1E+10	1	-1E+10	1	-1E+10	1
4902554	106	C	01/15/2024	23:03	-133.848	47.604	0	267.80	0	5.1670	0	33.7910	0	26.700	0	265.390	0	-1e10	8	-1e10	8	-1E+10	1	-1E+10	1	-1E+10	1	-1E+10	1	-1E+10	1	-1E+10	1
4902554	106	C	01/15/2024	23:03	-133.848	47.604	0	268.80	0	5.1630	0	33.7920	0	26.701	0	266.381	0	-1e10	8	-1e10	8	-1E+10	1	-1E+10	1	-1E+10	1	-1E+10	1	-1E+10	1	-1E+10	1
4902554	106	C	01/15/2024	23:03	-133.848	47.604	0	269.70	0	5.1600	0	33.7920	0	26.702	0	267.272	0	-1e10	8	-1e10	8	-1E+10	1	-1E+10	1	-1E+10	1	-1E+10	1	-1E+10	1	-1E+10	1
4902554	106	C	01/15/2024	23:03	-133.848	47.604	0	270.60	0	5.1580	0	33.7930	0	26.703	0	268.163	0	-1e10	8	-1e10	8	-1E+10	1	-1E+10	1	-1E+10	1	-1E+10	1	-1E+10	1	-1E+10	1
4902554	106	C	01/15/2024	23:03	-133.848	47.604	0	271.90	0	5.1480	0	33.7940	0	26.705	0	269.451	0	-1e10	8	-1e10	8	-1E+10	1	-1E+10	1	-1E+10	1	-1E+10	1	-1E+10	1	-1E+10	1
4902554	106	C	01/15/2024	23:03	-133.848	47.604	0	273.30	0	5.1260	0	33.7970	0	26.710	0	270.837	0	-1e10	8	-1e10	8	-1E+10	1	-1E+10	1	-1E+10	1	-1E+10	1	-1E+10	1	-1E+10	1
4902554	106	C	01/15/2024	23:03	-133.848	47.604	0	274.20	0	5.1180	0	33.7970	0	26.711	0	271.729	0	-1e10	8	-1e10	8	-1E+10	1	-1E+10	1	-1E+10	1	-1E+10	1	-1E+10	1	-1E+10	1
4902554	106	C	01/15/2024	23:03	-133.848	47.604	0	275.10	0	5.1120	0	33.7970	0	26.711	0	272.620	0	-1e10	8	-1e10	8	-1E+10	1	-1E+10	1	-1E+10	1	-1E+10	1	-1E+10	1	-1E+10	1
4902554	106	C	01/15/2024	23:03	-133.848	47.604	0	276.00	0	5.1040	0	33.7980	0	26.713	0	273.511	0	-1e10	8	-1e10	8	-1E+10	1	-1E+10	1	-1E+10	1	-1E+10	1	-1E+10	1	-1E+10	1
4902554	106	C	01/15/2024	23:03	-133.848	47.604	0	276.90	0	5.0980	0	33.7990	0	26.715	0	274.402	0	-1e10	8	-1e10	8	-1E+10	1	-1E+10	1	-1E+10	1	-1E+10	1	-1E+10	1	-1E+10	1
4902554	106	C	01/15/2024	23:03	-133.848	47.604	0	277.80	0	5.0830	0	33.7990	0	26.716	0	275.294	0	-1e10	8	-1e10	8	-1E+10	1	-1E+10	1	-1E+10	1	-1E+10	1	-1E+10	1	-1E+10	1
4902554	106	C	01/15/2024	23:03	-133.848	47.604	0	278.70	0	5.0640	0	33.8000	0	26.719	0	276.185	0	-1e10	8	-1e10	8	-1E+10	1	-1E+10	1	-1E+10	1	-1E+10	1	-1E+10	1	-1E+10	1
4902554	106	C	01/15/2024	23:03	-133.848	47.604	0	279.70	0	5.0580	0	33.8010	0	26.721	0	277.175	0	-1e10	8	-1e10	8	-1E+10	1	-1E+10	1	-1E+10	1	-1E+10	1	-1E+10	1	-1E+10	1
4902554	106	C	01/15/2024	23:03	-133.848	47.604	0	280.60	0	5.0520	0	33.8030	0	26.723	0	278.067	0	-1e10	8	-1e10	8	-1E+10	1	-1E+10	1	-1E+10	1	-1E+10	1	-1E+10	1	-1E+10	1
4902554	106	C	01/15/2024	23:03	-133.848	47.604	0	281.90	0	5.0420	0	33.8020	0	26.723	0	279.354	0	-1e10	8	-1e10	8	-1E+10	1	-1E+10	1	-1E+10	1	-1E+10	1	-1E+10	1	-1E+10	1
4902554	106	C	01/15/2024	23:03	-133.848	47.604	0	283.30	0	5.0200	0	33.8040	0	26.727	0	280.740	0	-1e10	8	-1e10	8	-1E+10	1	-1E+10	1	-1E+10	1	-1E+10	1	-1E+10	1	-1E+10	1
4902554	106	C	01/15/2024	23:03	-133.848	47.604	0	284.30	0	4.9960	0	33.8090	0	26.734	0	281.731	0	-1e10	8	-1e10	8	-1E+10	1	-1E+10	1	-1E+10	1	-1E+10	1	-1E+10	1	-1E+10	1
4902554	106	C	01/15/2024	23:03	-133.848	47.604	0	285.20	0	4.9940	0	33.8050	0	26.731	0	282.622	0	-1e10	8	-1e10	8	-1E+10	1	-1E+10	1	-1E+10	1	-1E+10	1	-1E+10	1	-1E+10	1
4902554	106	C	01/15/2024	23:03	-133.848	47.604	0	286.10	0	4.9900	0	33.8050	0	26.732	0	283.513	0	-1e10	8	-1e10	8	-1E+10	1	-1E+10	1	-1E+10	1	-1E+10	1	-1E+10	1	-1E+10	1
4902554	106	C	01/15/2024	23:03	-133.848	47.604	0	287.10	0	4.9810	0	33.8060	0	26.733	0	284.503	0	-1e10	8	-1e10	8	-1E+10	1	-1E+10	1	-1E+10	1	-1E+10	1	-1E+10	1	-1E+10	1
4902554	106	C	01/15/2024	23:03	-133.848	47.604	0	288.00	0	4.9780	0	33.8070	0	26.735	0	285.395	0	-1e10	8	-1e10	8	-1E+10	1	-1E+10	1	-1E+10	1	-1E+10	1	-1E+10	1	-1E+10	1
4902554	106	C	01/15/2024	23:03	-133.848	47.604	0	289.00	0	4.9780	0	33.8060	0	26.734	0	286.385	0	-1e10	8	-1e10	8	-1E+10	1	-1E+10	1	-1E+10	1	-1E+10	1	-1E+10	1	-1E+10	1
4902554	106	C	01/15/2024	23:03	-133.848	47.604	0	289.90	0	4.9650	0	33.8090	0	26.738	0	287.276	0	-1e10	8	-1e10	8	-1E+10	1	-1E+10	1	-1E+10	1	-1E+10	1	-1E+10	1	-1E+10	1
4902554	106	C	01/15/2024	23:03	-133.848	47.604	0	290.90	0	4.9630	0	33.8070	0	26.736	0	288.266	0	-1e10	8	-1e10	8	-1E+10	1	-1E+10	1	-1E+10	1	-1E+10	1	-1E+10	1	-1E+10	1
4902554	106	C	01/15/2024	23:03	-133.848	47.604	0	291.80	0	4.9540	0	33.8100	0	26.740	0	289.158	0	-1e10	8	-1e10	8	-1E+10	1	-1E+10	1	-1E+10	1	-1E+10	1	-1E+10	1	-1E+10	1
4902554	106	C	01/15/2024	23:03	-133.848	47.604	0	292.80	0	4.9460	0	33.8090	0	26.740	0	290.148	0	-1e10	8	-1e10	8	-1E+10	1	-1E+10	1	-1E+10	1	-1E+10	1	-1E+10	1	-1E+10	1
4902554	106	C	01/15/2024	23:03	-133.848	47.604	0	293.80	0	4.9410	0	33.8100	0	26.741	0	291.138	0	-1e10	8	-1e10	8	-1E+10	1	-1E+10	1	-1E+10	1	-1E+10	1	-1E+10	1	-1E+10	1
4902554	106	C	01/15/2024	23:03	-133.848	47.604	0	294.70	0	4.9280	0	33.8120	0	26.744	0	292.029	0	-1e10	8	-1e10	8	-1E+10	1	-1E+10	1	-1E+10	1	-1E+10	1	-1E+10	1	-1E+10	1
4902554	106	C	01/15/2024	23:03	-133.848	47.604	0	295.70	0	4.9130	0	33.8130	0	26.747	0	293.020	0	-1e10	8	-1e10	8	-1E+10	1	-1E+10	1	-1E+10	1	-1E+10	1	-1E+10	1	-1E+10	1
4902554	106	C	01/15/2024	23:03	-133.848	47.604	0	296.70	0	4.9090	0	33.8130	0	26.747	0	294.010	0	-1e10	8	-1e10	8	-1E+10	1	-1E+10	1	-1E+10	1	-1E+10	1	-1E+10	1	-1E+10	1
4902554	106	C	01/15/2024	23:03	-133.848	47.604	0	297.70	0	4.8960	0	33.8160	0	26.751	0	295.000	0	-1e10	8	-1e10	8	-1E+10	1	-1E+10	1	-1E+10	1	-1E+10	1	-1E+10	1	-1E+10	1
4902554	106	C	01/15/2024	23:03	-133.848	47.604	0	298.60	0	4.8920	0	33.8160	0	26.751	0	295.891	0	-1e10	8	-1e10	8	-1E+10	1	-1E+10	1	-1E+10	1	-1E+10	1	-1E+10	1	-1E+10	1
4902554	106	C	01/15/2024	23:03	-133.848	47.604	0	299.60	0	4.8870	0	33.8170	0	26.753	0	296.881	0	-1e10	8	-1e10	8	-1E+10	1	-1E+10	1	-1E+10	1	-1E+10	1	-1E+10	1	-1E+10	1
4902554	106	C	01/15/2024	23:03	-133.848	47.604	0	300.60	0	4.8830	0	33.8170	0	26.753	0	297.872	0	-1e10	8	-1e10	8	-1E+10	1	-1E+10	1	-1E+10	1	-1E+10	1	-1E+10	1	-1E+10	1
4902554	106	C	01/15/2024	23:03	-133.848	47.604	0	301.60	0	4.8800	0	33.8180	0	26.754	0	298.862	0	-1e10	8	-1e10	8	-1E+10	1	-1E+10	1	-1E+10	1	-1E+10	1	-1E+10	1	-1E+10	1
4902554	106	C	01/15/2024	23:03	-133.848	47.604	0	302.60	0	4.8780	0	33.8180	0	26.755	0	299.852	0	-1e10	8	-1e10	8	-1E+10	1	-1E+10	1	-1E+10	1	-1E+10	1	-1E+10	1	-1E+10	1
4902554	106	C	01/15/2024	23:03	-133.848	47.604	0	303.60	0	4.8760	0	33.8180	0	26.755	0	300.842	0	-1e10	8	-1e10	8	-1E+10	1	-1E+10	1	-1E+10	1	-1E+10	1	-1E+10	1	-1E+10	1
4902554	106	C	01/15/2024	23:03	-133.848	47.604	0	304.60	0	4.8570	0	33.8230	0	26.761	0	301.832	0	-1e10	8	-1e10	8	-1E+10	1	-1E+10	1	-1E+10	1	-1E+10	1	-1E+10	1	-1E+10	1
4902554	106	C	01/15/2024	23:03	-133.848	47.604	0	305.60	0	4.8480	0	33.8220	0	26.761	0	302.823	0	-1e10	8	-1e10	8	-1E+10	1	-1E+10	1	-1E+10	1	-1E+10	1	-1E+10	1	-1E+10	1
4902554	106	C	01/15/2024	23:03	-133.848	47.604	0	306.60	0	4.8430	0	33.8230	0	26.763	0	303.813	0	-1e10	8	-1e10	8	-1E+10	1	-1E+10	1	-1E+10	1	-1E+10	1	-1E+10	1	-1E+10	1
4902554	106	C	01/15/2024	23:03	-133.848	47.604	0	307.60	0	4.8380	0	33.8240	0	26.764	0	304.803	0	-1e10	8	-1e10	8	-1E+10	1	-1E+10	1	-1E+10	1	-1E+10	1	-1E+10	1	-1E+10	1
4902554	106	C	01/15/2024	23:03	-133.848	47.604	0	308.60	0	4.8290	0	33.8240	0	26.765	0	305.793	0	-1e10	8	-1e10	8	-1E+10	1	-1E+10	1	-1E+10	1	-1E+10	1	-1E+10	1	-1E+10	1
4902554	106	C	01/15/2024	23:03	-133.848	47.604	0	309.60	0	4.8180	0	33.8250	0	26.767	0	306.783	0	-1e10	8	-1e10	8	-1E+10	1	-1E+10	1	-1E+10	1	-1E+10	1	-1E+10	1	-1E+10	1
4902554	106	C	01/15/2024	23:03	-133.848	47.604	0	310.60	0	4.8020	0	33.8280	0	26.771	0	307.773	0	-1e10	8	-1e10	8	-1E+10	1	-1E+10	1	-1E+10	1	-1E+10	1	-1E+10	1	-1E+10	1
4902554	106	C	01/15/2024	23:03	-133.848	47.604	0	311.70	0	4.8000	0	33.8280	0	26.771	0	308.863	0	-1e10	8	-1e10	8	-1E+10	1	-1E+10	1	-1E+10	1	-1E+10	1	-1E+10	1	-1E+10	1
4902554	106	C	01/15/2024	23:03	-133.848	47.604	0	312.70	0	4.7970	0	33.8280	0	26.772	0	309.853	0	-1e10	8	-1e10	8	-1E+10	1	-1E+10	1	-1E+10	1	-1E+10	1	-1E+10	1	-1E+10	1
4902554	106	C	01/15/2024	23:03	-133.848	47.604	0	313.70	0	4.7900	0	33.8290	0	26.773	0	310.843	0	-1e10	8	-1e10	8	-1E+10	1	-1E+10	1	-1E+10	1	-1E+10	1	-1E+10	1	-1E+10	1
4902554	106	C	01/15/2024	23:03	-133.848	47.604	0	314.70	0	4.7730	0	33.8310	0	26.777	0	311.833	0	-1e10	8	-1e10	8	-1E+10	1	-1E+10	1	-1E+10	1	-1E+10	1	-1E+10	1	-1E+10	1
4902554	106	C	01/15/2024	23:03	-133.848	47.604	0	315.80	0	4.7630	0	33.8310	0	26.778	0	312.922	0	-1e10	8	-1e10	8	-1E+10	1	-1E+10	1	-1E+10	1	-1E+10	1	-1E+10	1	-1E+10	1
4902554	106	C	01/15/2024	23:03	-133.848	47.604	0	316.90	0	4.7570	0	33.8320	0	26.779	0	314.011	0	-1e10	8	-1e10	8	-1E+10	1	-1E+10	1	-1E+10	1	-1E+10	1	-1E+10	1	-1E+10	1
4902554	106	C	01/15/2024	23:03	-133.848	47.604	0	317.90	0	4.7500	0	33.8340	0	26.782	0	315.001	0	-1e10	8	-1e10	8	-1E+10	1	-1E+10	1	-1E+10	1	-1E+10	1	-1E+10	1	-1E+10	1
4902554	106	C	01/15/2024	23:03	-133.848	47.604	0	318.90	0	4.7470	0	33.8340	0	26.782	0	315.992	0	-1e10	8	-1e10	8	-1E+10	1	-1E+10	1	-1E+10	1	-1E+10	1	-1E+10	1	-1E+10	1
4902554	106	C	01/15/2024	23:03	-133.848	47.604	0	320.00	0	4.7380	0	33.8380	0	26.786	0	317.081	0	-1e10	8	-1e10	8	-1E+10	1	-1E+10	1	-1E+10	1	-1E+10	1	-1E+10	1	-1E+10	1
4902554	106	C	01/15/2024	23:03	-133.848	47.604	0	321.00	0	4.7250	0	33.8400	0	26.789	0	318.071	0	-1e10	8	-1e10	8	-1E+10	1	-1E+10	1	-1E+10	1	-1E+10	1	-1E+10	1	-1E+10	1
4902554	106	C	01/15/2024	23:03	-133.848	47.604	0	322.00	0	4.7180	0	33.8400	0	26.790	0	319.061	0	-1e10	8	-1e10	8	-1E+10	1	-1E+10	1	-1E+10	1	-1E+10	1	-1E+10	1	-1E+10	1
4902554	106	C	01/15/2024	23:03	-133.848	47.604	0	323.00	0	4.7160	0	33.8400	0	26.790	0	320.051	0	-1e10	8	-1e10	8	-1E+10	1	-1E+10	1	-1E+10	1	-1E+10	1	-1E+10	1	-1E+10	1
4902554	106	C	01/15/2024	23:03	-133.848	47.604	0	323.90	0	4.7160	0	33.8400	0	26.790	0	320.942	0	-1e10	8	-1e10	8	-1E+10	1	-1E+10	1	-1E+10	1	-1E+10	1	-1E+10	1	-1E+10	1
4902554	106	C	01/15/2024	23:03	-133.848	47.604	0	325.00	0	4.7140	0	33.8400	0	26.790	0	322.031	0	-1e10	8	-1e10	8	-1E+10	1	-1E+10	1	-1E+10	1	-1E+10	1	-1E+10	1	-1E+10	1
4902554	106	C	01/15/2024	23:03	-133.848	47.604	0	326.10	0	4.7050	0	33.8440	0	26.795	0	323.120	0	-1e10	8	-1e10	8	-1E+10	1	-1E+10	1	-1E+10	1	-1E+10	1	-1E+10	1	-1E+10	1
4902554	106	C	01/15/2024	23:03	-133.848	47.604	0	326.80	0	4.6940	0	33.8480	0	26.799	0	323.813	0	-1e10	8	-1e10	8	-1E+10	1	-1E+10	1	-1E+10	1	-1E+10	1	-1E+10	1	-1E+10	1
4902554	106	C	01/15/2024	23:03	-133.848	47.604	0	327.90	0	4.6810	0	33.8510	0	26.803	0	324.902	0	-1e10	8	-1e10	8	-1E+10	1	-1E+10	1	-1E+10	1	-1E+10	1	-1E+10	1	-1E+10	1
4902554	106	C	01/15/2024	23:03	-133.848	47.604	0	329.10	0	4.6770	0	33.8540	0	26.806	0	326.091	0	-1e10	8	-1e10	8	-1E+10	1	-1E+10	1	-1E+10	1	-1E+10	1	-1E+10	1	-1E+10	1
4902554	106	C	01/15/2024	23:03	-133.848	47.604	0	329.80	0	4.6780	0	33.8530	0	26.805	0	326.784	0	-1e10	8	-1e10	8	-1E+10	1	-1E+10	1	-1E+10	1	-1E+10	1	-1E+10	1	-1E+10	1
4902554	106	C	01/15/2024	23:03	-133.848	47.604	0	331.00	0	4.6730	0	33.8550	0	26.807	0	327.972	0	-1e10	8	-1e10	8	-1E+10	1	-1E+10	1	-1E+10	1	-1E+10	1	-1E+10	1	-1E+10	1
4902554	106	C	01/15/2024	23:03	-133.848	47.604	0	332.20	0	4.6720	0	33.8550	0	26.807	0	329.160	0	-1e10	8	-1e10	8	-1E+10	1	-1E+10	1	-1E+10	1	-1E+10	1	-1E+10	1	-1E+10	1
4902554	106	C	01/15/2024	23:03	-133.848	47.604	0	333.00	0	4.6670	0	33.8570	0	26.809	0	329.952	0	-1e10	8	-1e10	8	-1E+10	1	-1E+10	1	-1E+10	1	-1E+10	1	-1E+10	1	-1E+10	1
4902554	106	C	01/15/2024	23:03	-133.848	47.604	0	333.70	0	4.6630	0	33.8570	0	26.810	0	330.645	0	-1e10	8	-1e10	8	-1E+10	1	-1E+10	1	-1E+10	1	-1E+10	1	-1E+10	1	-1E+10	1
4902554	106	C	01/15/2024	23:03	-133.848	47.604	0	335.00	0	4.6540	0	33.8610	0	26.814	0	331.932	0	-1e10	8	-1e10	8	-1E+10	1	-1E+10	1	-1E+10	1	-1E+10	1	-1E+10	1	-1E+10	1
4902554	106	C	01/15/2024	23:03	-133.848	47.604	0	336.20	0	4.6490	0	33.8640	0	26.817	0	333.120	0	-1e10	8	-1e10	8	-1E+10	1	-1E+10	1	-1E+10	1	-1E+10	1	-1E+10	1	-1E+10	1
4902554	106	C	01/15/2024	23:03	-133.848	47.604	0	337.00	0	4.6440	0	33.8670	0	26.820	0	333.912	0	-1e10	8	-1e10	8	-1E+10	1	-1E+10	1	-1E+10	1	-1E+10	1	-1E+10	1	-1E+10	1
4902554	106	C	01/15/2024	23:03	-133.848	47.604	0	337.80	0	4.6380	0	33.8690	0	26.822	0	334.704	0	-1e10	8	-1e10	8	-1E+10	1	-1E+10	1	-1E+10	1	-1E+10	1	-1E+10	1	-1E+10	1
4902554	106	C	01/15/2024	23:03	-133.848	47.604	0	338.60	0	4.6270	0	33.8730	0	26.826	0	335.496	0	-1e10	8	-1e10	8	-1E+10	1	-1E+10	1	-1E+10	1	-1E+10	1	-1E+10	1	-1E+10	1
4902554	106	C	01/15/2024	23:03	-133.848	47.604	0	339.90	0	4.6190	0	33.8740	0	26.828	0	336.783	0	-1e10	8	-1e10	8	-1E+10	1	-1E+10	1	-1E+10	1	-1E+10	1	-1E+10	1	-1E+10	1
4902554	106	C	01/15/2024	23:03	-133.848	47.604	0	341.10	0	4.6160	0	33.8740	0	26.828	0	337.971	0	-1e10	8	-1e10	8	-1E+10	1	-1E+10	1	-1E+10	1	-1E+10	1	-1E+10	1	-1E+10	1
4902554	106	C	01/15/2024	23:03	-133.848	47.604	0	342.00	0	4.6160	0	33.8740	0	26.828	0	338.862	0	-1e10	8	-1e10	8	-1E+10	1	-1E+10	1	-1E+10	1	-1E+10	1	-1E+10	1	-1E+10	1
4902554	106	C	01/15/2024	23:03	-133.848	47.604	0	342.80	0	4.6110	0	33.8760	0	26.830	0	339.654	0	-1e10	8	-1e10	8	-1E+10	1	-1E+10	1	-1E+10	1	-1E+10	1	-1E+10	1	-1E+10	1
4902554	106	C	01/15/2024	23:03	-133.848	47.604	0	343.60	0	4.6060	0	33.8760	0	26.831	0	340.446	0	-1e10	8	-1e10	8	-1E+10	1	-1E+10	1	-1E+10	1	-1E+10	1	-1E+10	1	-1E+10	1
4902554	106	C	01/15/2024	23:03	-133.848	47.604	0	344.90	0	4.6000	0	33.8770	0	26.832	0	341.733	0	-1e10	8	-1e10	8	-1E+10	1	-1E+10	1	-1E+10	1	-1E+10	1	-1E+10	1	-1E+10	1
4902554	106	C	01/15/2024	23:03	-133.848	47.604	0	346.30	0	4.5870	0	33.8800	0	26.836	0	343.119	0	-1e10	8	-1e10	8	-1E+10	1	-1E+10	1	-1E+10	1	-1E+10	1	-1E+10	1	-1E+10	1
4902554	106	C	01/15/2024	23:03	-133.848	47.604	0	347.10	0	4.5820	0	33.8800	0	26.837	0	343.911	0	-1e10	8	-1e10	8	-1E+10	1	-1E+10	1	-1E+10	1	-1E+10	1	-1E+10	1	-1E+10	1
4902554	106	C	01/15/2024	23:03	-133.848	47.604	0	348.00	0	4.5720	0	33.8810	0	26.839	0	344.802	0	-1e10	8	-1e10	8	-1E+10	1	-1E+10	1	-1E+10	1	-1E+10	1	-1E+10	1	-1E+10	1
4902554	106	C	01/15/2024	23:03	-133.848	47.604	0	348.90	0	4.5670	0	33.8800	0	26.838	0	345.693	0	-1e10	8	-1e10	8	-1E+10	1	-1E+10	1	-1E+10	1	-1E+10	1	-1E+10	1	-1E+10	1
4902554	106	C	01/15/2024	23:03	-133.848	47.604	0	349.80	0	4.5640	0	33.8800	0	26.839	0	346.584	0	-1e10	8	-1e10	8	-1E+10	1	-1E+10	1	-1E+10	1	-1E+10	1	-1E+10	1	-1E+10	1
4902554	106	C	01/15/2024	23:03	-133.848	47.604	0	352.80	0	4.5420	0	33.8840	0	26.844	0	349.554	0	-1e10	8	-1e10	8	-1E+10	1	-1E+10	1	-1E+10	1	-1E+10	1	-1E+10	1	-1E+10	1
4902554	106	C	01/15/2024	23:03	-133.848	47.604	0	358.10	0	4.5240	0	33.8880	0	26.849	0	354.801	0	-1e10	8	-1e10	8	-1E+10	1	-1E+10	1	-1E+10	1	-1E+10	1	-1E+10	1	-1E+10	1
4902554	106	C	01/15/2024	23:03	-133.848	47.604	0	363.20	0	4.5000	0	33.8910	0	26.854	0	359.849	0	-1e10	8	-1e10	8	-1E+10	1	-1E+10	1	-1E+10	1	-1E+10	1	-1E+10	1	-1E+10	1
4902554	106	C	01/15/2024	23:03	-133.848	47.604	0	367.80	0	4.4750	0	33.8960	0	26.861	0	364.403	0	-1e10	8	-1e10	8	-1E+10	1	-1E+10	1	-1E+10	1	-1E+10	1	-1E+10	1	-1E+10	1
4902554	106	C	01/15/2024	23:03	-133.848	47.604	0	373.00	0	4.4550	0	33.9000	0	26.867	0	369.550	0	-1e10	8	-1e10	8	-1E+10	1	-1E+10	1	-1E+10	1	-1E+10	1	-1E+10	1	-1E+10	1
4902554	106	C	01/15/2024	23:03	-133.848	47.604	0	378.20	0	4.4210	0	33.9050	0	26.874	0	374.697	0	-1e10	8	-1e10	8	-1E+10	1	-1E+10	1	-1E+10	1	-1E+10	1	-1E+10	1	-1E+10	1
4902554	106	C	01/15/2024	23:03	-133.848	47.604	0	383.00	0	4.3950	0	33.9070	0	26.879	0	379.448	0	-1e10	8	-1e10	8	-1E+10	1	-1E+10	1	-1E+10	1	-1E+10	1	-1E+10	1	-1E+10	1
4902554	106	C	01/15/2024	23:03	-133.848	47.604	0	387.80	0	4.3930	0	33.9120	0	26.883	0	384.199	0	-1e10	8	-1e10	8	-1E+10	1	-1E+10	1	-1E+10	1	-1E+10	1	-1E+10	1	-1E+10	1
4902554	106	C	01/15/2024	23:03	-133.848	47.604	0	393.00	0	4.3990	0	33.9190	0	26.888	0	389.346	0	-1e10	8	-1e10	8	-1E+10	1	-1E+10	1	-1E+10	1	-1E+10	1	-1E+10	1	-1E+10	1
4902554	106	C	01/15/2024	23:03	-133.848	47.604	0	398.10	0	4.3830	0	33.9230	0	26.893	0	394.394	0	-1e10	8	-1e10	8	-1E+10	1	-1E+10	1	-1E+10	1	-1E+10	1	-1E+10	1	-1E+10	1
4902554	106	C	01/15/2024	23:03	-133.848	47.604	0	402.70	0	4.3630	0	33.9220	0	26.894	0	398.947	0	-1e10	8	-1e10	8	-1E+10	1	-1E+10	1	-1E+10	1	-1E+10	1	-1E+10	1	-1E+10	1
4902554	106	C	01/15/2024	23:03	-133.848	47.604	0	407.70	0	4.3450	0	33.9240	0	26.898	0	403.895	0	-1e10	8	-1e10	8	-1E+10	1	-1E+10	1	-1E+10	1	-1E+10	1	-1E+10	1	-1E+10	1
4902554	106	C	01/15/2024	23:03	-133.848	47.604	0	413.10	0	4.3390	0	33.9260	0	26.900	0	409.240	0	-1e10	8	-1e10	8	-1E+10	1	-1E+10	1	-1E+10	1	-1E+10	1	-1E+10	1	-1E+10	1
4902554	106	C	01/15/2024	23:03	-133.848	47.604	0	418.00	0	4.3250	0	33.9280	0	26.903	0	414.089	0	-1e10	8	-1e10	8	-1E+10	1	-1E+10	1	-1E+10	1	-1E+10	1	-1E+10	1	-1E+10	1
4902554	106	C	01/15/2024	23:03	-133.848	47.604	0	422.80	0	4.2960	0	33.9300	0	26.908	0	418.839	0	-1e10	8	-1e10	8	-1E+10	1	-1E+10	1	-1E+10	1	-1E+10	1	-1E+10	1	-1E+10	1
4902554	106	C	01/15/2024	23:03	-133.848	47.604	0	428.00	0	4.2770	0	33.9330	0	26.912	0	423.985	0	-1e10	8	-1e10	8	-1E+10	1	-1E+10	1	-1E+10	1	-1E+10	1	-1E+10	1	-1E+10	1
4902554	106	C	01/15/2024	23:03	-133.848	47.604	0	433.10	0	4.2610	0	33.9370	0	26.917	0	429.032	0	-1e10	8	-1e10	8	-1E+10	1	-1E+10	1	-1E+10	1	-1E+10	1	-1E+10	1	-1E+10	1
4902554	106	C	01/15/2024	23:03	-133.848	47.604	0	437.90	0	4.2470	0	33.9400	0	26.921	0	433.782	0	-1e10	8	-1e10	8	-1E+10	1	-1E+10	1	-1E+10	1	-1E+10	1	-1E+10	1	-1E+10	1
4902554	106	C	01/15/2024	23:03	-133.848	47.604	0	442.70	0	4.2260	0	33.9500	0	26.931	0	438.532	0	-1e10	8	-1e10	8	-1E+10	1	-1E+10	1	-1E+10	1	-1E+10	1	-1E+10	1	-1E+10	1
4902554	106	C	01/15/2024	23:03	-133.848	47.604	0	448.00	0	4.2140	0	33.9590	0	26.939	0	443.776	0	-1e10	8	-1e10	8	-1E+10	1	-1E+10	1	-1E+10	1	-1E+10	1	-1E+10	1	-1E+10	1
4902554	106	C	01/15/2024	23:03	-133.848	47.604	0	452.90	0	4.2080	0	33.9650	0	26.945	0	448.625	0	-1e10	8	-1e10	8	-1E+10	1	-1E+10	1	-1E+10	1	-1E+10	1	-1E+10	1	-1E+10	1
4902554	106	C	01/15/2024	23:03	-133.848	47.604	0	457.90	0	4.1990	0	33.9750	0	26.954	0	453.572	0	-1e10	8	-1e10	8	-1E+10	1	-1E+10	1	-1E+10	1	-1E+10	1	-1E+10	1	-1E+10	1
4902554	106	C	01/15/2024	23:03	-133.848	47.604	0	462.90	0	4.1900	0	33.9830	0	26.961	0	458.519	0	-1e10	8	-1e10	8	-1E+10	1	-1E+10	1	-1E+10	1	-1E+10	1	-1E+10	1	-1E+10	1
4902554	106	C	01/15/2024	23:03	-133.848	47.604	0	468.00	0	4.1880	0	33.9850	0	26.963	0	463.565	0	-1e10	8	-1e10	8	-1E+10	1	-1E+10	1	-1E+10	1	-1E+10	1	-1E+10	1	-1E+10	1
4902554	106	C	01/15/2024	23:03	-133.848	47.604	0	473.10	0	4.1860	0	33.9890	0	26.966	0	468.611	0	-1e10	8	-1e10	8	-1E+10	1	-1E+10	1	-1E+10	1	-1E+10	1	-1E+10	1	-1E+10	1
4902554	106	C	01/15/2024	23:03	-133.848	47.604	0	477.90	0	4.1850	0	33.9960	0	26.972	0	473.360	0	-1e10	8	-1e10	8	-1E+10	1	-1E+10	1	-1E+10	1	-1E+10	1	-1E+10	1	-1E+10	1
4902554	106	C	01/15/2024	23:03	-133.848	47.604	0	482.70	0	4.1850	0	34.0040	0	26.978	0	478.109	0	-1e10	8	-1e10	8	-1E+10	1	-1E+10	1	-1E+10	1	-1E+10	1	-1E+10	1	-1E+10	1
4902554	106	C	01/15/2024	23:03	-133.848	47.604	0	487.50	0	4.1900	0	34.0120	0	26.984	0	482.858	0	-1e10	8	-1e10	8	-1E+10	1	-1E+10	1	-1E+10	1	-1E+10	1	-1E+10	1	-1E+10	1
4902554	106	C	01/15/2024	23:03	-133.848	47.604	0	492.80	0	4.1830	0	34.0250	0	26.995	0	488.101	0	-1e10	8	-1e10	8	-1E+10	1	-1E+10	1	-1E+10	1	-1E+10	1	-1E+10	1	-1E+10	1
4902554	106	C	01/15/2024	23:03	-133.848	47.604	0	497.80	0	4.1670	0	34.0340	0	27.004	0	493.047	0	-1e10	8	-1e10	8	-1E+10	1	-1E+10	1	-1E+10	1	-1E+10	1	-1E+10	1	-1E+10	1
4902554	106	C	01/15/2024	23:03	-133.848	47.604	0	502.70	0	4.1620	0	34.0380	0	27.008	0	497.895	0	-1e10	8	-1e10	8	-1E+10	1	-1E+10	1	-1E+10	1	-1E+10	1	-1E+10	1	-1E+10	1
4902554	106	C	01/15/2024	23:03	-133.848	47.604	0	507.80	0	4.1540	0	34.0440	0	27.014	0	502.940	0	-1e10	8	-1e10	8	-1E+10	1	-1E+10	1	-1E+10	1	-1E+10	1	-1E+10	1	-1E+10	1
4902554	106	C	01/15/2024	23:03	-133.848	47.604	0	513.00	0	4.1490	0	34.0480	0	27.017	0	508.084	0	-1e10	8	-1e10	8	-1E+10	1	-1E+10	1	-1E+10	1	-1E+10	1	-1E+10	1	-1E+10	1
4902554	106	C	01/15/2024	23:03	-133.848	47.604	0	518.30	0	4.1430	0	34.0520	0	27.021	0	513.326	0	-1e10	8	-1e10	8	-1E+10	1	-1E+10	1	-1E+10	1	-1E+10	1	-1E+10	1	-1E+10	1
4902554	106	C	01/15/2024	23:03	-133.848	47.604	0	522.90	0	4.1320	0	34.0590	0	27.028	0	517.877	0	-1e10	8	-1e10	8	-1E+10	1	-1E+10	1	-1E+10	1	-1E+10	1	-1E+10	1	-1E+10	1
4902554	106	C	01/15/2024	23:03	-133.848	47.604	0	527.70	0	4.1270	0	34.0610	0	27.030	0	522.624	0	-1e10	8	-1e10	8	-1E+10	1	-1E+10	1	-1E+10	1	-1E+10	1	-1E+10	1	-1E+10	1
4902554	106	C	01/15/2024	23:03	-133.848	47.604	0	533.00	0	4.1180	0	34.0640	0	27.033	0	527.867	0	-1e10	8	-1e10	8	-1E+10	1	-1E+10	1	-1E+10	1	-1E+10	1	-1E+10	1	-1E+10	1
4902554	106	C	01/15/2024	23:03	-133.848	47.604	0	538.20	0	4.1150	0	34.0650	0	27.035	0	533.010	0	-1e10	8	-1e10	8	-1E+10	1	-1E+10	1	-1E+10	1	-1E+10	1	-1E+10	1	-1E+10	1
4902554	106	C	01/15/2024	23:03	-133.848	47.604	0	543.00	0	4.1070	0	34.0690	0	27.039	0	537.758	0	-1e10	8	-1e10	8	-1E+10	1	-1E+10	1	-1E+10	1	-1E+10	1	-1E+10	1	-1E+10	1
4902554	106	C	01/15/2024	23:03	-133.848	47.604	0	547.90	0	4.1020	0	34.0700	0	27.040	0	542.604	0	-1e10	8	-1e10	8	-1E+10	1	-1E+10	1	-1E+10	1	-1E+10	1	-1E+10	1	-1E+10	1
4902554	106	C	01/15/2024	23:03	-133.848	47.604	0	552.90	0	4.0730	0	34.0740	0	27.046	0	547.549	0	-1e10	8	-1e10	8	-1E+10	1	-1E+10	1	-1E+10	1	-1E+10	1	-1E+10	1	-1E+10	1
4902554	106	C	01/15/2024	23:03	-133.848	47.604	0	557.80	0	4.0480	0	34.0790	0	27.053	0	552.395	0	-1e10	8	-1e10	8	-1E+10	1	-1E+10	1	-1E+10	1	-1E+10	1	-1E+10	1	-1E+10	1
4902554	106	C	01/15/2024	23:03	-133.848	47.604	0	562.70	0	4.0400	0	34.0860	0	27.059	0	557.241	0	-1e10	8	-1e10	8	-1E+10	1	-1E+10	1	-1E+10	1	-1E+10	1	-1E+10	1	-1E+10	1
4902554	106	C	01/15/2024	23:03	-133.848	47.604	0	567.70	0	4.0460	0	34.0910	0	27.063	0	562.186	0	-1e10	8	-1e10	8	-1E+10	1	-1E+10	1	-1E+10	1	-1E+10	1	-1E+10	1	-1E+10	1
4902554	106	C	01/15/2024	23:03	-133.848	47.604	0	573.00	0	4.0260	0	34.0950	0	27.068	0	567.427	0	-1e10	8	-1e10	8	-1E+10	1	-1E+10	1	-1E+10	1	-1E+10	1	-1E+10	1	-1E+10	1
4902554	106	C	01/15/2024	23:03	-133.848	47.604	0	578.10	0	4.0060	0	34.0980	0	27.072	0	572.470	0	-1e10	8	-1e10	8	-1E+10	1	-1E+10	1	-1E+10	1	-1E+10	1	-1E+10	1	-1E+10	1
4902554	106	C	01/15/2024	23:03	-133.848	47.604	0	582.70	0	3.9970	0	34.1010	0	27.076	0	577.019	0	-1e10	8	-1e10	8	-1E+10	1	-1E+10	1	-1E+10	1	-1E+10	1	-1E+10	1	-1E+10	1
4902554	106	C	01/15/2024	23:03	-133.848	47.604	0	587.70	0	3.9850	0	34.1040	0	27.079	0	581.963	0	-1e10	8	-1e10	8	-1E+10	1	-1E+10	1	-1E+10	1	-1E+10	1	-1E+10	1	-1E+10	1
4902554	106	C	01/15/2024	23:03	-133.848	47.604	0	592.80	0	3.9670	0	34.1100	0	27.086	0	587.006	0	-1e10	8	-1e10	8	-1E+10	1	-1E+10	1	-1E+10	1	-1E+10	1	-1E+10	1	-1E+10	1
4902554	106	C	01/15/2024	23:03	-133.848	47.604	0	597.80	0	3.9540	0	34.1160	0	27.092	0	591.950	0	-1e10	8	-1e10	8	-1E+10	1	-1E+10	1	-1E+10	1	-1E+10	1	-1E+10	1	-1E+10	1
4902554	106	C	01/15/2024	23:03	-133.848	47.604	0	602.90	0	3.9440	0	34.1200	0	27.096	0	596.993	0	-1e10	8	-1e10	8	-1E+10	1	-1E+10	1	-1E+10	1	-1E+10	1	-1E+10	1	-1E+10	1
4902554	106	C	01/15/2024	23:03	-133.848	47.604	0	607.90	0	3.9390	0	34.1250	0	27.101	0	601.937	0	-1e10	8	-1e10	8	-1E+10	1	-1E+10	1	-1E+10	1	-1E+10	1	-1E+10	1	-1E+10	1
4902554	106	C	01/15/2024	23:03	-133.848	47.604	0	613.00	0	3.9280	0	34.1290	0	27.105	0	606.980	0	-1e10	8	-1e10	8	-1E+10	1	-1E+10	1	-1E+10	1	-1E+10	1	-1E+10	1	-1E+10	1
4902554	106	C	01/15/2024	23:03	-133.848	47.604	0	618.10	0	3.9200	0	34.1330	0	27.109	0	612.022	0	-1e10	8	-1e10	8	-1E+10	1	-1E+10	1	-1E+10	1	-1E+10	1	-1E+10	1	-1E+10	1
4902554	106	C	01/15/2024	23:03	-133.848	47.604	0	623.20	0	3.9110	0	34.1370	0	27.113	0	617.064	0	-1e10	8	-1e10	8	-1E+10	1	-1E+10	1	-1E+10	1	-1E+10	1	-1E+10	1	-1E+10	1
4902554	106	C	01/15/2024	23:03	-133.848	47.604	0	627.80	0	3.9000	0	34.1420	0	27.118	0	621.612	0	-1e10	8	-1e10	8	-1E+10	1	-1E+10	1	-1E+10	1	-1E+10	1	-1E+10	1	-1E+10	1
4902554	106	C	01/15/2024	23:03	-133.848	47.604	0	632.90	0	3.8990	0	34.1470	0	27.123	0	626.654	0	-1e10	8	-1e10	8	-1E+10	1	-1E+10	1	-1E+10	1	-1E+10	1	-1E+10	1	-1E+10	1
4902554	106	C	01/15/2024	23:03	-133.848	47.604	0	638.10	0	3.8920	0	34.1540	0	27.129	0	631.795	0	-1e10	8	-1e10	8	-1E+10	1	-1E+10	1	-1E+10	1	-1E+10	1	-1E+10	1	-1E+10	1
4902554	106	C	01/15/2024	23:03	-133.848	47.604	0	642.80	0	3.8810	0	34.1590	0	27.134	0	636.441	0	-1e10	8	-1e10	8	-1E+10	1	-1E+10	1	-1E+10	1	-1E+10	1	-1E+10	1	-1E+10	1
4902554	106	C	01/15/2024	23:03	-133.848	47.604	0	647.60	0	3.8990	0	34.1660	0	27.138	0	641.187	0	-1e10	8	-1e10	8	-1E+10	1	-1E+10	1	-1E+10	1	-1E+10	1	-1E+10	1	-1E+10	1
4902554	106	C	01/15/2024	23:03	-133.848	47.604	0	652.80	0	3.8670	0	34.1640	0	27.139	0	646.327	0	-1e10	8	-1e10	8	-1E+10	1	-1E+10	1	-1E+10	1	-1E+10	1	-1E+10	1	-1E+10	1
4902554	106	C	01/15/2024	23:03	-133.848	47.604	0	658.00	0	3.8370	0	34.1700	0	27.147	0	651.467	0	-1e10	8	-1e10	8	-1E+10	1	-1E+10	1	-1E+10	1	-1E+10	1	-1E+10	1	-1E+10	1
4902554	106	C	01/15/2024	23:03	-133.848	47.604	0	662.80	0	3.8360	0	34.1730	0	27.150	0	656.212	0	-1e10	8	-1e10	8	-1E+10	1	-1E+10	1	-1E+10	1	-1E+10	1	-1E+10	1	-1E+10	1
4902554	106	C	01/15/2024	23:03	-133.848	47.604	0	667.70	0	3.8450	0	34.1810	0	27.155	0	661.056	0	-1e10	8	-1e10	8	-1E+10	1	-1E+10	1	-1E+10	1	-1E+10	1	-1E+10	1	-1E+10	1
4902554	106	C	01/15/2024	23:03	-133.848	47.604	0	672.50	0	3.8740	0	34.1930	0	27.162	0	665.800	0	-1e10	8	-1e10	8	-1E+10	1	-1E+10	1	-1E+10	1	-1E+10	1	-1E+10	1	-1E+10	1
4902554	106	C	01/15/2024	23:03	-133.848	47.604	0	677.90	0	3.8450	0	34.1920	0	27.164	0	671.138	0	-1e10	8	-1e10	8	-1E+10	1	-1E+10	1	-1E+10	1	-1E+10	1	-1E+10	1	-1E+10	1
4902554	106	C	01/15/2024	23:03	-133.848	47.604	0	683.20	0	3.8120	0	34.1920	0	27.167	0	676.376	0	-1e10	8	-1e10	8	-1E+10	1	-1E+10	1	-1E+10	1	-1E+10	1	-1E+10	1	-1E+10	1
4902554	106	C	01/15/2024	23:03	-133.848	47.604	0	688.20	0	3.7900	0	34.1960	0	27.173	0	681.318	0	-1e10	8	-1e10	8	-1E+10	1	-1E+10	1	-1E+10	1	-1E+10	1	-1E+10	1	-1E+10	1
4902554	106	C	01/15/2024	23:03	-133.848	47.604	0	693.10	0	3.7710	0	34.2000	0	27.178	0	686.161	0	-1e10	8	-1e10	8	-1E+10	1	-1E+10	1	-1E+10	1	-1E+10	1	-1E+10	1	-1E+10	1
4902554	106	C	01/15/2024	23:03	-133.848	47.604	0	698.20	0	3.7490	0	34.2010	0	27.181	0	691.202	0	-1e10	8	-1e10	8	-1E+10	1	-1E+10	1	-1E+10	1	-1E+10	1	-1E+10	1	-1E+10	1
4902554	106	C	01/15/2024	23:03	-133.848	47.604	0	703.20	0	3.7330	0	34.2040	0	27.185	0	696.143	0	-1e10	8	-1e10	8	-1E+10	1	-1E+10	1	-1E+10	1	-1E+10	1	-1E+10	1	-1E+10	1
4902554	106	C	01/15/2024	23:03	-133.848	47.604	0	708.30	0	3.7270	0	34.2060	0	27.187	0	701.183	0	-1e10	8	-1e10	8	-1E+10	1	-1E+10	1	-1E+10	1	-1E+10	1	-1E+10	1	-1E+10	1
4902554	106	C	01/15/2024	23:03	-133.848	47.604	0	713.30	0	3.7160	0	34.2100	0	27.192	0	706.125	0	-1e10	8	-1e10	8	-1E+10	1	-1E+10	1	-1E+10	1	-1E+10	1	-1E+10	1	-1E+10	1
4902554	106	C	01/15/2024	23:03	-133.848	47.604	0	717.80	0	3.7010	0	34.2150	0	27.197	0	710.572	0	-1e10	8	-1e10	8	-1E+10	1	-1E+10	1	-1E+10	1	-1E+10	1	-1E+10	1	-1E+10	1
4902554	106	C	01/15/2024	23:03	-133.848	47.604	0	722.80	0	3.6900	0	34.2210	0	27.203	0	715.513	0	-1e10	8	-1e10	8	-1E+10	1	-1E+10	1	-1E+10	1	-1E+10	1	-1E+10	1	-1E+10	1
4902554	106	C	01/15/2024	23:03	-133.848	47.604	0	727.80	0	3.6710	0	34.2260	0	27.209	0	720.454	0	-1e10	8	-1e10	8	-1E+10	1	-1E+10	1	-1E+10	1	-1E+10	1	-1E+10	1	-1E+10	1
4902554	106	C	01/15/2024	23:03	-133.848	47.604	0	733.00	0	3.6580	0	34.2310	0	27.214	0	725.592	0	-1e10	8	-1e10	8	-1E+10	1	-1E+10	1	-1E+10	1	-1E+10	1	-1E+10	1	-1E+10	1
4902554	106	C	01/15/2024	23:03	-133.848	47.604	0	738.20	0	3.6590	0	34.2350	0	27.217	0	730.731	0	-1e10	8	-1e10	8	-1E+10	1	-1E+10	1	-1E+10	1	-1E+10	1	-1E+10	1	-1E+10	1
4902554	106	C	01/15/2024	23:03	-133.848	47.604	0	743.10	0	3.6580	0	34.2390	0	27.221	0	735.572	0	-1e10	8	-1e10	8	-1E+10	1	-1E+10	1	-1E+10	1	-1E+10	1	-1E+10	1	-1E+10	1
4902554	106	C	01/15/2024	23:03	-133.848	47.604	0	748.00	0	3.6500	0	34.2420	0	27.224	0	740.414	0	-1e10	8	-1e10	8	-1E+10	1	-1E+10	1	-1E+10	1	-1E+10	1	-1E+10	1	-1E+10	1
4902554	106	C	01/15/2024	23:03	-133.848	47.604	0	753.00	0	3.6470	0	34.2460	0	27.227	0	745.354	0	-1e10	8	-1e10	8	-1E+10	1	-1E+10	1	-1E+10	1	-1E+10	1	-1E+10	1	-1E+10	1
4902554	106	C	01/15/2024	23:03	-133.848	47.604	0	758.10	0	3.6590	0	34.2510	0	27.230	0	750.393	0	-1e10	8	-1e10	8	-1E+10	1	-1E+10	1	-1E+10	1	-1E+10	1	-1E+10	1	-1E+10	1
4902554	106	C	01/15/2024	23:03	-133.848	47.604	0	762.80	0	3.6770	0	34.2560	0	27.232	0	755.037	0	-1e10	8	-1e10	8	-1E+10	1	-1E+10	1	-1E+10	1	-1E+10	1	-1E+10	1	-1E+10	1
4902554	106	C	01/15/2024	23:03	-133.848	47.604	0	767.60	0	3.6790	0	34.2610	0	27.236	0	759.780	0	-1e10	8	-1e10	8	-1E+10	1	-1E+10	1	-1E+10	1	-1E+10	1	-1E+10	1	-1E+10	1
4902554	106	C	01/15/2024	23:03	-133.848	47.604	0	772.90	0	3.6580	0	34.2650	0	27.241	0	765.016	0	-1e10	8	-1e10	8	-1E+10	1	-1E+10	1	-1E+10	1	-1E+10	1	-1E+10	1	-1E+10	1
4902554	106	C	01/15/2024	23:03	-133.848	47.604	0	778.10	0	3.6290	0	34.2680	0	27.247	0	770.153	0	-1e10	8	-1e10	8	-1E+10	1	-1E+10	1	-1E+10	1	-1E+10	1	-1E+10	1	-1E+10	1
4902554	106	C	01/15/2024	23:03	-133.848	47.604	0	782.90	0	3.6370	0	34.2720	0	27.249	0	774.895	0	-1e10	8	-1e10	8	-1E+10	1	-1E+10	1	-1E+10	1	-1E+10	1	-1E+10	1	-1E+10	1
4902554	106	C	01/15/2024	23:03	-133.848	47.604	0	787.80	0	3.6460	0	34.2820	0	27.256	0	779.736	0	-1e10	8	-1e10	8	-1E+10	1	-1E+10	1	-1E+10	1	-1E+10	1	-1E+10	1	-1E+10	1
4902554	106	C	01/15/2024	23:03	-133.848	47.604	0	793.20	0	3.6360	0	34.2850	0	27.260	0	785.071	0	-1e10	8	-1e10	8	-1E+10	1	-1E+10	1	-1E+10	1	-1E+10	1	-1E+10	1	-1E+10	1
4902554	106	C	01/15/2024	23:03	-133.848	47.604	0	798.10	0	3.6260	0	34.2880	0	27.263	0	789.911	0	-1e10	8	-1e10	8	-1E+10	1	-1E+10	1	-1E+10	1	-1E+10	1	-1E+10	1	-1E+10	1
4902554	106	C	01/15/2024	23:03	-133.848	47.604	0	803.10	0	3.6160	0	34.2910	0	27.266	0	794.850	0	-1e10	8	-1e10	8	-1E+10	1	-1E+10	1	-1E+10	1	-1E+10	1	-1E+10	1	-1E+10	1
4902554	106	C	01/15/2024	23:03	-133.848	47.604	0	808.10	0	3.6040	0	34.2950	0	27.271	0	799.789	0	-1e10	8	-1e10	8	-1E+10	1	-1E+10	1	-1E+10	1	-1E+10	1	-1E+10	1	-1E+10	1
4902554	106	C	01/15/2024	23:03	-133.848	47.604	0	812.80	0	3.5910	0	34.2990	0	27.275	0	804.432	0	-1e10	8	-1e10	8	-1E+10	1	-1E+10	1	-1E+10	1	-1E+10	1	-1E+10	1	-1E+10	1
4902554	106	C	01/15/2024	23:03	-133.848	47.604	0	818.00	0	3.5860	0	34.3000	0	27.277	0	809.568	0	-1e10	8	-1e10	8	-1E+10	1	-1E+10	1	-1E+10	1	-1E+10	1	-1E+10	1	-1E+10	1
4902554	106	C	01/15/2024	23:03	-133.848	47.604	0	823.20	0	3.5820	0	34.3010	0	27.278	0	814.705	0	-1e10	8	-1e10	8	-1E+10	1	-1E+10	1	-1E+10	1	-1E+10	1	-1E+10	1	-1E+10	1
4902554	106	C	01/15/2024	23:03	-133.848	47.604	0	827.90	0	3.5670	0	34.3020	0	27.280	0	819.347	0	-1e10	8	-1e10	8	-1E+10	1	-1E+10	1	-1E+10	1	-1E+10	1	-1E+10	1	-1E+10	1
4902554	106	C	01/15/2024	23:03	-133.848	47.604	0	832.70	0	3.5590	0	34.3030	0	27.282	0	824.088	0	-1e10	8	-1e10	8	-1E+10	1	-1E+10	1	-1E+10	1	-1E+10	1	-1E+10	1	-1E+10	1
4902554	106	C	01/15/2024	23:03	-133.848	47.604	0	838.00	0	3.5250	0	34.3020	0	27.284	0	829.323	0	-1e10	8	-1e10	8	-1E+10	1	-1E+10	1	-1E+10	1	-1E+10	1	-1E+10	1	-1E+10	1
4902554	106	C	01/15/2024	23:03	-133.848	47.604	0	843.30	0	3.4780	0	34.3010	0	27.288	0	834.557	0	-1e10	8	-1e10	8	-1E+10	1	-1E+10	1	-1E+10	1	-1E+10	1	-1E+10	1	-1E+10	1
4902554	106	C	01/15/2024	23:03	-133.848	47.604	0	848.10	0	3.4570	0	34.3030	0	27.292	0	839.298	0	-1e10	8	-1e10	8	-1E+10	1	-1E+10	1	-1E+10	1	-1E+10	1	-1E+10	1	-1E+10	1
4902554	106	C	01/15/2024	23:03	-133.848	47.604	0	852.90	0	3.4460	0	34.3040	0	27.294	0	844.038	0	-1e10	8	-1e10	8	-1E+10	1	-1E+10	1	-1E+10	1	-1E+10	1	-1E+10	1	-1E+10	1
4902554	106	C	01/15/2024	23:03	-133.848	47.604	0	857.80	0	3.4220	0	34.3050	0	27.297	0	848.877	0	-1e10	8	-1e10	8	-1E+10	1	-1E+10	1	-1E+10	1	-1E+10	1	-1E+10	1	-1E+10	1
4902554	106	C	01/15/2024	23:03	-133.848	47.604	0	862.70	0	3.4100	0	34.3080	0	27.300	0	853.716	0	-1e10	8	-1e10	8	-1E+10	1	-1E+10	1	-1E+10	1	-1E+10	1	-1E+10	1	-1E+10	1
4902554	106	C	01/15/2024	23:03	-133.848	47.604	0	867.50	0	3.3940	0	34.3090	0	27.303	0	858.457	0	-1e10	8	-1e10	8	-1E+10	1	-1E+10	1	-1E+10	1	-1E+10	1	-1E+10	1	-1E+10	1
4902554	106	C	01/15/2024	23:03	-133.848	47.604	0	872.90	0	3.3890	0	34.3140	0	27.307	0	863.789	0	-1e10	8	-1e10	8	-1E+10	1	-1E+10	1	-1E+10	1	-1E+10	1	-1E+10	1	-1E+10	1
4902554	106	C	01/15/2024	23:03	-133.848	47.604	0	878.30	0	3.3720	0	34.3190	0	27.313	0	869.122	0	-1e10	8	-1e10	8	-1E+10	1	-1E+10	1	-1E+10	1	-1E+10	1	-1E+10	1	-1E+10	1
4902554	106	C	01/15/2024	23:03	-133.848	47.604	0	883.10	0	3.3480	0	34.3220	0	27.317	0	873.861	0	-1e10	8	-1e10	8	-1E+10	1	-1E+10	1	-1E+10	1	-1E+10	1	-1E+10	1	-1E+10	1
4902554	106	C	01/15/2024	23:03	-133.848	47.604	0	888.10	0	3.3370	0	34.3230	0	27.319	0	878.799	0	-1e10	8	-1e10	8	-1E+10	1	-1E+10	1	-1E+10	1	-1E+10	1	-1E+10	1	-1E+10	1
4902554	106	C	01/15/2024	23:03	-133.848	47.604	0	893.00	0	3.3340	0	34.3250	0	27.321	0	883.637	0	-1e10	8	-1e10	8	-1E+10	1	-1E+10	1	-1E+10	1	-1E+10	1	-1E+10	1	-1E+10	1
4902554	106	C	01/15/2024	23:03	-133.848	47.604	0	898.00	0	3.3210	0	34.3300	0	27.326	0	888.574	0	-1e10	8	-1e10	8	-1E+10	1	-1E+10	1	-1E+10	1	-1E+10	1	-1E+10	1	-1E+10	1
4902554	106	C	01/15/2024	23:03	-133.848	47.604	0	903.10	0	3.3060	0	34.3320	0	27.329	0	893.609	0	-1e10	8	-1e10	8	-1E+10	1	-1E+10	1	-1E+10	1	-1E+10	1	-1E+10	1	-1E+10	1
4902554	106	C	01/15/2024	23:03	-133.848	47.604	0	908.00	0	3.2900	0	34.3350	0	27.333	0	898.448	0	-1e10	8	-1e10	8	-1E+10	1	-1E+10	1	-1E+10	1	-1E+10	1	-1E+10	1	-1E+10	1
4902554	106	C	01/15/2024	23:03	-133.848	47.604	0	912.90	0	3.2920	0	34.3390	0	27.336	0	903.285	0	-1e10	8	-1e10	8	-1E+10	1	-1E+10	1	-1E+10	1	-1E+10	1	-1E+10	1	-1E+10	1
4902554	106	C	01/15/2024	23:03	-133.848	47.604	0	918.00	0	3.2800	0	34.3430	0	27.341	0	908.321	0	-1e10	8	-1e10	8	-1E+10	1	-1E+10	1	-1E+10	1	-1E+10	1	-1E+10	1	-1E+10	1
4902554	106	C	01/15/2024	23:03	-133.848	47.604	0	923.10	0	3.2720	0	34.3460	0	27.344	0	913.356	0	-1e10	8	-1e10	8	-1E+10	1	-1E+10	1	-1E+10	1	-1E+10	1	-1E+10	1	-1E+10	1
4902554	106	C	01/15/2024	23:03	-133.848	47.604	0	927.90	0	3.2630	0	34.3490	0	27.347	0	918.095	0	-1e10	8	-1e10	8	-1E+10	1	-1E+10	1	-1E+10	1	-1E+10	1	-1E+10	1	-1E+10	1
4902554	106	C	01/15/2024	23:03	-133.848	47.604	0	932.80	0	3.2630	0	34.3510	0	27.349	0	922.932	0	-1e10	8	-1e10	8	-1E+10	1	-1E+10	1	-1E+10	1	-1E+10	1	-1E+10	1	-1E+10	1
4902554	106	C	01/15/2024	23:03	-133.848	47.604	0	937.70	0	3.2430	0	34.3530	0	27.352	0	927.769	0	-1e10	8	-1e10	8	-1E+10	1	-1E+10	1	-1E+10	1	-1E+10	1	-1E+10	1	-1E+10	1
4902554	106	C	01/15/2024	23:03	-133.848	47.604	0	942.80	0	3.2380	0	34.3550	0	27.354	0	932.804	0	-1e10	8	-1e10	8	-1E+10	1	-1E+10	1	-1E+10	1	-1E+10	1	-1E+10	1	-1E+10	1
4902554	106	C	01/15/2024	23:03	-133.848	47.604	0	947.90	0	3.2300	0	34.3590	0	27.358	0	937.838	0	-1e10	8	-1e10	8	-1E+10	1	-1E+10	1	-1E+10	1	-1E+10	1	-1E+10	1	-1E+10	1
4902554	106	C	01/15/2024	23:03	-133.848	47.604	0	953.10	0	3.2140	0	34.3600	0	27.361	0	942.971	0	-1e10	8	-1e10	8	-1E+10	1	-1E+10	1	-1E+10	1	-1E+10	1	-1E+10	1	-1E+10	1
4902554	106	C	01/15/2024	23:03	-133.848	47.604	0	958.00	0	3.2070	0	34.3600	0	27.361	0	947.808	0	-1e10	8	-1e10	8	-1E+10	1	-1E+10	1	-1E+10	1	-1E+10	1	-1E+10	1	-1E+10	1
4902554	106	C	01/15/2024	23:03	-133.848	47.604	0	962.90	0	3.1880	0	34.3620	0	27.365	0	952.645	0	-1e10	8	-1e10	8	-1E+10	1	-1E+10	1	-1E+10	1	-1E+10	1	-1E+10	1	-1E+10	1
4902554	106	C	01/15/2024	23:03	-133.848	47.604	0	967.90	0	3.1790	0	34.3630	0	27.366	0	957.580	0	-1e10	8	-1e10	8	-1E+10	1	-1E+10	1	-1E+10	1	-1E+10	1	-1E+10	1	-1E+10	1
4902554	106	C	01/15/2024	23:03	-133.848	47.604	0	972.80	0	3.1730	0	34.3630	0	27.367	0	962.417	0	-1e10	8	-1e10	8	-1E+10	1	-1E+10	1	-1E+10	1	-1E+10	1	-1E+10	1	-1E+10	1
4902554	106	C	01/15/2024	23:03	-133.848	47.604	0	977.90	0	3.1640	0	34.3630	0	27.368	0	967.451	0	-1e10	8	-1e10	8	-1E+10	1	-1E+10	1	-1E+10	1	-1E+10	1	-1E+10	1	-1E+10	1
4902554	106	C	01/15/2024	23:03	-133.848	47.604	0	982.90	0	3.1430	0	34.3630	0	27.370	0	972.386	0	-1e10	8	-1e10	8	-1E+10	1	-1E+10	1	-1E+10	1	-1E+10	1	-1E+10	1	-1E+10	1
4902554	106	C	01/15/2024	23:03	-133.848	47.604	0	988.00	0	3.1390	0	34.3650	0	27.372	0	977.419	0	-1e10	8	-1e10	8	-1E+10	1	-1E+10	1	-1E+10	1	-1E+10	1	-1E+10	1	-1E+10	1
4902554	106	C	01/15/2024	23:03	-133.848	47.604	0	992.80	0	3.1240	0	34.3650	0	27.373	0	982.157	0	-1e10	8	-1e10	8	-1E+10	1	-1E+10	1	-1E+10	1	-1E+10	1	-1E+10	1	-1E+10	1
4902554	106	C	01/15/2024	23:03	-133.848	47.604	0	997.60	0	3.1210	0	34.3680	0	27.376	0	986.894	0	-1e10	8	-1e10	8	-1E+10	1	-1E+10	1	-1E+10	1	-1E+10	1	-1E+10	1	-1E+10	1
4902554	106	C	01/15/2024	23:03	-133.848	47.604	0	1005.50	0	3.1130	0	34.3690	0	27.377	0	994.690	0	-1e10	8	-1e10	8	-1E+10	1	-1E+10	1	-1E+10	1	-1E+10	1	-1E+10	1	-1E+10	1
4902554	106	C	01/15/2024	23:03	-133.848	47.604	0	1015.40	0	3.0910	0	34.3710	0	27.381	0	1004.460	0	-1e10	8	-1e10	8	-1E+10	1	-1E+10	1	-1E+10	1	-1E+10	1	-1E+10	1	-1E+10	1
4902554	106	C	01/15/2024	23:03	-133.848	47.604	0	1025.00	0	3.0580	0	34.3740	0	27.387	0	1013.934	0	-1e10	8	-1e10	8	-1E+10	1	-1E+10	1	-1E+10	1	-1E+10	1	-1E+10	1	-1E+10	1
4902554	106	C	01/15/2024	23:03	-133.848	47.604	0	1035.10	0	3.0330	0	34.3780	0	27.392	0	1023.900	0	-1e10	8	-1e10	8	-1E+10	1	-1E+10	1	-1E+10	1	-1E+10	1	-1E+10	1	-1E+10	1
4902554	106	C	01/15/2024	23:03	-133.848	47.604	0	1045.20	0	3.0160	0	34.3820	0	27.397	0	1033.866	0	-1e10	8	-1e10	8	-1E+10	1	-1E+10	1	-1E+10	1	-1E+10	1	-1E+10	1	-1E+10	1
4902554	106	C	01/15/2024	23:03	-133.848	47.604	0	1055.40	0	3.0070	0	34.3850	0	27.400	0	1043.930	0	-1e10	8	-1e10	8	-1E+10	1	-1E+10	1	-1E+10	1	-1E+10	1	-1E+10	1	-1E+10	1
4902554	106	C	01/15/2024	23:03	-133.848	47.604	0	1065.50	0	2.9960	0	34.3880	0	27.404	0	1053.895	0	-1e10	8	-1e10	8	-1E+10	1	-1E+10	1	-1E+10	1	-1E+10	1	-1E+10	1	-1E+10	1
4902554	106	C	01/15/2024	23:03	-133.848	47.604	0	1075.60	0	2.9840	0	34.3910	0	27.407	0	1063.859	0	-1e10	8	-1e10	8	-1E+10	1	-1E+10	1	-1E+10	1	-1E+10	1	-1E+10	1	-1E+10	1
4902554	106	C	01/15/2024	23:03	-133.848	47.604	0	1085.30	0	2.9780	0	34.3930	0	27.409	0	1073.428	0	-1e10	8	-1e10	8	-1E+10	1	-1E+10	1	-1E+10	1	-1E+10	1	-1E+10	1	-1E+10	1
4902554	106	C	01/15/2024	23:03	-133.848	47.604	0	1095.00	0	2.9650	0	34.3990	0	27.415	0	1082.997	0	-1e10	8	-1e10	8	-1E+10	1	-1E+10	1	-1E+10	1	-1E+10	1	-1E+10	1	-1E+10	1
4902554	106	C	01/15/2024	23:03	-133.848	47.604	0	1105.20	0	2.9500	0	34.4040	0	27.421	0	1093.059	0	-1e10	8	-1e10	8	-1E+10	1	-1E+10	1	-1E+10	1	-1E+10	1	-1E+10	1	-1E+10	1
4902554	106	C	01/15/2024	23:03	-133.848	47.604	0	1115.40	0	2.9400	0	34.4060	0	27.423	0	1103.120	0	-1e10	8	-1e10	8	-1E+10	1	-1E+10	1	-1E+10	1	-1E+10	1	-1E+10	1	-1E+10	1
4902554	106	C	01/15/2024	23:03	-133.848	47.604	0	1125.50	0	2.9280	0	34.4100	0	27.428	0	1113.082	0	-1e10	8	-1e10	8	-1E+10	1	-1E+10	1	-1E+10	1	-1E+10	1	-1E+10	1	-1E+10	1
4902554	106	C	01/15/2024	23:03	-133.848	47.604	0	1135.50	0	2.9060	0	34.4150	0	27.434	0	1122.945	0	-1e10	8	-1e10	8	-1E+10	1	-1E+10	1	-1E+10	1	-1E+10	1	-1E+10	1	-1E+10	1
4902554	106	C	01/15/2024	23:03	-133.848	47.604	0	1145.70	0	2.8970	0	34.4180	0	27.437	0	1133.005	0	-1e10	8	-1e10	8	-1E+10	1	-1E+10	1	-1E+10	1	-1E+10	1	-1E+10	1	-1E+10	1
4902554	106	C	01/15/2024	23:03	-133.848	47.604	0	1155.40	0	2.8830	0	34.4200	0	27.440	0	1142.571	0	-1e10	8	-1e10	8	-1E+10	1	-1E+10	1	-1E+10	1	-1E+10	1	-1E+10	1	-1E+10	1
4902554	106	C	01/15/2024	23:03	-133.848	47.604	0	1165.10	0	2.8660	0	34.4230	0	27.444	0	1152.137	0	-1e10	8	-1e10	8	-1E+10	1	-1E+10	1	-1E+10	1	-1E+10	1	-1E+10	1	-1E+10	1
4902554	106	C	01/15/2024	23:03	-133.848	47.604	0	1175.50	0	2.8400	0	34.4270	0	27.449	0	1162.392	0	-1e10	8	-1e10	8	-1E+10	1	-1E+10	1	-1E+10	1	-1E+10	1	-1E+10	1	-1E+10	1
4902554	106	C	01/15/2024	23:03	-133.848	47.604	0	1185.40	0	2.8150	0	34.4320	0	27.455	0	1172.154	0	-1e10	8	-1e10	8	-1E+10	1	-1E+10	1	-1E+10	1	-1E+10	1	-1E+10	1	-1E+10	1
4902554	106	C	01/15/2024	23:03	-133.848	47.604	0	1195.70	0	2.7860	0	34.4390	0	27.464	0	1182.310	0	-1e10	8	-1e10	8	-1E+10	1	-1E+10	1	-1E+10	1	-1E+10	1	-1E+10	1	-1E+10	1
4902554	106	C	01/15/2024	23:03	-133.848	47.604	0	1205.50	0	2.7680	0	34.4440	0	27.469	0	1191.973	0	-1e10	8	-1e10	8	-1E+10	1	-1E+10	1	-1E+10	1	-1E+10	1	-1E+10	1	-1E+10	1
4902554	106	C	01/15/2024	23:03	-133.848	47.604	0	1215.20	0	2.7450	0	34.4460	0	27.473	0	1201.536	0	-1e10	8	-1e10	8	-1E+10	1	-1E+10	1	-1E+10	1	-1E+10	1	-1E+10	1	-1E+10	1
4902554	106	C	01/15/2024	23:03	-133.848	47.604	0	1225.10	0	2.7200	0	34.4490	0	27.478	0	1211.296	0	-1e10	8	-1e10	8	-1E+10	1	-1E+10	1	-1E+10	1	-1E+10	1	-1E+10	1	-1E+10	1
4902554	106	C	01/15/2024	23:03	-133.848	47.604	0	1235.40	0	2.7180	0	34.4500	0	27.479	0	1221.450	0	-1e10	8	-1e10	8	-1E+10	1	-1E+10	1	-1E+10	1	-1E+10	1	-1E+10	1	-1E+10	1
4902554	106	C	01/15/2024	23:03	-133.848	47.604	0	1245.60	0	2.7030	0	34.4510	0	27.481	0	1231.505	0	-1e10	8	-1e10	8	-1E+10	1	-1E+10	1	-1E+10	1	-1E+10	1	-1E+10	1	-1E+10	1
4902554	106	C	01/15/2024	23:03	-133.848	47.604	0	1255.60	0	2.6800	0	34.4540	0	27.485	0	1241.363	0	-1e10	8	-1e10	8	-1E+10	1	-1E+10	1	-1E+10	1	-1E+10	1	-1E+10	1	-1E+10	1
4902554	106	C	01/15/2024	23:03	-133.848	47.604	0	1265.20	0	2.6680	0	34.4570	0	27.489	0	1250.825	0	-1e10	8	-1e10	8	-1E+10	1	-1E+10	1	-1E+10	1	-1E+10	1	-1E+10	1	-1E+10	1
4902554	106	C	01/15/2024	23:03	-133.848	47.604	0	1275.00	0	2.6530	0	34.4610	0	27.493	0	1260.485	0	-1e10	8	-1e10	8	-1E+10	1	-1E+10	1	-1E+10	1	-1E+10	1	-1E+10	1	-1E+10	1
4902554	106	C	01/15/2024	23:03	-133.848	47.604	0	1285.10	0	2.6300	0	34.4650	0	27.498	0	1270.439	0	-1e10	8	-1e10	8	-1E+10	1	-1E+10	1	-1E+10	1	-1E+10	1	-1E+10	1	-1E+10	1
4902554	106	C	01/15/2024	23:03	-133.848	47.604	0	1295.40	0	2.6220	0	34.4660	0	27.500	0	1280.590	0	-1e10	8	-1e10	8	-1E+10	1	-1E+10	1	-1E+10	1	-1E+10	1	-1E+10	1	-1E+10	1
4902554	106	C	01/15/2024	23:03	-133.848	47.604	0	1305.40	0	2.6000	0	34.4680	0	27.503	0	1290.445	0	-1e10	8	-1e10	8	-1E+10	1	-1E+10	1	-1E+10	1	-1E+10	1	-1E+10	1	-1E+10	1
4902554	106	C	01/15/2024	23:03	-133.848	47.604	0	1315.70	0	2.5760	0	34.4720	0	27.509	0	1300.596	0	-1e10	8	-1e10	8	-1E+10	1	-1E+10	1	-1E+10	1	-1E+10	1	-1E+10	1	-1E+10	1
4902554	106	C	01/15/2024	23:03	-133.848	47.604	0	1325.40	0	2.5590	0	34.4760	0	27.513	0	1310.154	0	-1e10	8	-1e10	8	-1E+10	1	-1E+10	1	-1E+10	1	-1E+10	1	-1E+10	1	-1E+10	1
4902554	106	C	01/15/2024	23:03	-133.848	47.604	0	1335.40	0	2.5550	0	34.4760	0	27.514	0	1320.008	0	-1e10	8	-1e10	8	-1E+10	1	-1E+10	1	-1E+10	1	-1E+10	1	-1E+10	1	-1E+10	1
4902554	106	C	01/15/2024	23:03	-133.848	47.604	0	1345.70	0	2.5410	0	34.4780	0	27.517	0	1330.157	0	-1e10	8	-1e10	8	-1E+10	1	-1E+10	1	-1E+10	1	-1E+10	1	-1E+10	1	-1E+10	1
4902554	106	C	01/15/2024	23:03	-133.848	47.604	0	1355.60	0	2.5270	0	34.4810	0	27.520	0	1339.911	0	-1e10	8	-1e10	8	-1E+10	1	-1E+10	1	-1E+10	1	-1E+10	1	-1E+10	1	-1E+10	1
4902554	106	C	01/15/2024	23:03	-133.848	47.604	0	1365.30	0	2.5100	0	34.4840	0	27.524	0	1349.468	0	-1e10	8	-1e10	8	-1E+10	1	-1E+10	1	-1E+10	1	-1E+10	1	-1E+10	1	-1E+10	1
4902554	106	C	01/15/2024	23:03	-133.848	47.604	0	1375.10	0	2.5010	0	34.4860	0	27.527	0	1359.122	0	-1e10	8	-1e10	8	-1E+10	1	-1E+10	1	-1E+10	1	-1E+10	1	-1E+10	1	-1E+10	1
4902554	106	C	01/15/2024	23:03	-133.848	47.604	0	1385.50	0	2.4780	0	34.4890	0	27.531	0	1369.368	0	-1e10	8	-1e10	8	-1E+10	1	-1E+10	1	-1E+10	1	-1E+10	1	-1E+10	1	-1E+10	1
4902554	106	C	01/15/2024	23:03	-133.848	47.604	0	1395.80	0	2.4670	0	34.4910	0	27.534	0	1379.514	0	-1e10	8	-1e10	8	-1E+10	1	-1E+10	1	-1E+10	1	-1E+10	1	-1E+10	1	-1E+10	1
4902554	106	C	01/15/2024	23:03	-133.848	47.604	0	1405.70	0	2.4620	0	34.4920	0	27.535	0	1389.266	0	-1e10	8	-1e10	8	-1E+10	1	-1E+10	1	-1E+10	1	-1E+10	1	-1E+10	1	-1E+10	1
4902554	106	C	01/15/2024	23:03	-133.848	47.604	0	1415.70	0	2.4430	0	34.4960	0	27.540	0	1399.116	0	-1e10	8	-1e10	8	-1E+10	1	-1E+10	1	-1E+10	1	-1E+10	1	-1E+10	1	-1E+10	1
4902554	106	C	01/15/2024	23:03	-133.848	47.604	0	1425.80	0	2.4290	0	34.4980	0	27.543	0	1409.064	0	-1e10	8	-1e10	8	-1E+10	1	-1E+10	1	-1E+10	1	-1E+10	1	-1E+10	1	-1E+10	1
4902554	106	C	01/15/2024	23:03	-133.848	47.604	0	1435.50	0	2.4140	0	34.5000	0	27.545	0	1418.618	0	-1e10	8	-1e10	8	-1E+10	1	-1E+10	1	-1E+10	1	-1E+10	1	-1E+10	1	-1E+10	1
4902554	106	C	01/15/2024	23:03	-133.848	47.604	0	1445.20	0	2.4020	0	34.5030	0	27.549	0	1428.171	0	-1e10	8	-1e10	8	-1E+10	1	-1E+10	1	-1E+10	1	-1E+10	1	-1E+10	1	-1E+10	1
4902554	106	C	01/15/2024	23:03	-133.848	47.604	0	1455.60	0	2.3860	0	34.5050	0	27.552	0	1438.413	0	-1e10	8	-1e10	8	-1E+10	1	-1E+10	1	-1E+10	1	-1E+10	1	-1E+10	1	-1E+10	1
4902554	106	C	01/15/2024	23:03	-133.848	47.604	0	1465.50	0	2.3760	0	34.5070	0	27.554	0	1448.162	0	-1e10	8	-1e10	8	-1E+10	1	-1E+10	1	-1E+10	1	-1E+10	1	-1E+10	1	-1E+10	1
4902554	106	C	01/15/2024	23:03	-133.848	47.604	0	1475.60	0	2.3620	0	34.5090	0	27.557	0	1458.108	0	-1e10	8	-1e10	8	-1E+10	1	-1E+10	1	-1E+10	1	-1E+10	1	-1E+10	1	-1E+10	1
4902554	106	C	01/15/2024	23:03	-133.848	47.604	0	1485.40	0	2.3510	0	34.5110	0	27.560	0	1467.757	0	-1e10	8	-1e10	8	-1E+10	1	-1E+10	1	-1E+10	1	-1E+10	1	-1E+10	1	-1E+10	1
4902554	106	C	01/15/2024	23:03	-133.848	47.604	0	1495.10	0	2.3380	0	34.5140	0	27.563	0	1477.308	0	-1e10	8	-1e10	8	-1E+10	1	-1E+10	1	-1E+10	1	-1E+10	1	-1E+10	1	-1E+10	1
4902554	106	C	01/15/2024	23:03	-133.848	47.604	0	1505.30	0	2.3310	0	34.5150	0	27.565	0	1487.351	0	-1e10	8	-1e10	8	-1E+10	1	-1E+10	1	-1E+10	1	-1E+10	1	-1E+10	1	-1E+10	1
4902554	106	C	01/15/2024	23:03	-133.848	47.604	0	1515.80	0	2.3210	0	34.5170	0	27.567	0	1497.689	0	-1e10	8	-1e10	8	-1E+10	1	-1E+10	1	-1E+10	1	-1E+10	1	-1E+10	1	-1E+10	1
4902554	106	C	01/15/2024	23:03	-133.848	47.604	0	1525.50	0	2.3130	0	34.5190	0	27.569	0	1507.238	0	-1e10	8	-1e10	8	-1E+10	1	-1E+10	1	-1E+10	1	-1E+10	1	-1E+10	1	-1E+10	1
4902554	106	C	01/15/2024	23:03	-133.848	47.604	0	1535.10	0	2.2930	0	34.5220	0	27.573	0	1516.689	0	-1e10	8	-1e10	8	-1E+10	1	-1E+10	1	-1E+10	1	-1E+10	1	-1E+10	1	-1E+10	1
4902554	106	C	01/15/2024	23:03	-133.848	47.604	0	1545.00	0	2.2780	0	34.5250	0	27.577	0	1526.434	0	-1e10	8	-1e10	8	-1E+10	1	-1E+10	1	-1E+10	1	-1E+10	1	-1E+10	1	-1E+10	1
4902554	106	C	01/15/2024	23:03	-133.848	47.604	0	1555.10	0	2.2660	0	34.5270	0	27.580	0	1536.376	0	-1e10	8	-1e10	8	-1E+10	1	-1E+10	1	-1E+10	1	-1E+10	1	-1E+10	1	-1E+10	1
4902554	106	C	01/15/2024	23:03	-133.848	47.604	0	1565.10	0	2.2480	0	34.5300	0	27.584	0	1546.219	0	-1e10	8	-1e10	8	-1E+10	1	-1E+10	1	-1E+10	1	-1E+10	1	-1E+10	1	-1E+10	1
4902554	106	C	01/15/2024	23:03	-133.848	47.604	0	1575.20	0	2.2350	0	34.5320	0	27.586	0	1556.161	0	-1e10	8	-1e10	8	-1E+10	1	-1E+10	1	-1E+10	1	-1E+10	1	-1E+10	1	-1E+10	1
4902554	106	C	01/15/2024	23:03	-133.848	47.604	0	1585.40	0	2.2170	0	34.5350	0	27.590	0	1566.200	0	-1e10	8	-1e10	8	-1E+10	1	-1E+10	1	-1E+10	1	-1E+10	1	-1E+10	1	-1E+10	1
4902554	106	C	01/15/2024	23:03	-133.848	47.604	0	1595.20	0	2.2020	0	34.5370	0	27.593	0	1575.844	0	-1e10	8	-1e10	8	-1E+10	1	-1E+10	1	-1E+10	1	-1E+10	1	-1E+10	1	-1E+10	1
4902554	106	C	01/15/2024	23:03	-133.848	47.604	0	1605.20	0	2.1890	0	34.5390	0	27.596	0	1585.686	0	-1e10	8	-1e10	8	-1E+10	1	-1E+10	1	-1E+10	1	-1E+10	1	-1E+10	1	-1E+10	1
4902554	106	C	01/15/2024	23:03	-133.848	47.604	0	1615.40	0	2.1790	0	34.5400	0	27.597	0	1595.723	0	-1e10	8	-1e10	8	-1E+10	1	-1E+10	1	-1E+10	1	-1E+10	1	-1E+10	1	-1E+10	1
4902554	106	C	01/15/2024	23:03	-133.848	47.604	0	1625.20	0	2.1710	0	34.5410	0	27.599	0	1605.367	0	-1e10	8	-1e10	8	-1E+10	1	-1E+10	1	-1E+10	1	-1E+10	1	-1E+10	1	-1E+10	1
4902554	106	C	01/15/2024	23:03	-133.848	47.604	0	1635.10	0	2.1640	0	34.5430	0	27.601	0	1615.108	0	-1e10	8	-1e10	8	-1E+10	1	-1E+10	1	-1E+10	1	-1E+10	1	-1E+10	1	-1E+10	1
4902554	106	C	01/15/2024	23:03	-133.848	47.604	0	1645.30	0	2.1540	0	34.5450	0	27.604	0	1625.144	0	-1e10	8	-1e10	8	-1E+10	1	-1E+10	1	-1E+10	1	-1E+10	1	-1E+10	1	-1E+10	1
4902554	106	C	01/15/2024	23:03	-133.848	47.604	0	1655.50	0	2.1480	0	34.5460	0	27.605	0	1635.180	0	-1e10	8	-1e10	8	-1E+10	1	-1E+10	1	-1E+10	1	-1E+10	1	-1E+10	1	-1E+10	1
4902554	106	C	01/15/2024	23:03	-133.848	47.604	0	1665.40	0	2.1400	0	34.5470	0	27.606	0	1644.920	0	-1e10	8	-1e10	8	-1E+10	1	-1E+10	1	-1E+10	1	-1E+10	1	-1E+10	1	-1E+10	1
4902554	106	C	01/15/2024	23:03	-133.848	47.604	0	1675.50	0	2.1370	0	34.5480	0	27.608	0	1654.857	0	-1e10	8	-1e10	8	-1E+10	1	-1E+10	1	-1E+10	1	-1E+10	1	-1E+10	1	-1E+10	1
4902554	106	C	01/15/2024	23:03	-133.848	47.604	0	1685.80	0	2.1320	0	34.5490	0	27.609	0	1664.989	0	-1e10	8	-1e10	8	-1E+10	1	-1E+10	1	-1E+10	1	-1E+10	1	-1E+10	1	-1E+10	1
4902554	106	C	01/15/2024	23:03	-133.848	47.604	0	1695.80	0	2.1180	0	34.5520	0	27.612	0	1674.826	0	-1e10	8	-1e10	8	-1E+10	1	-1E+10	1	-1E+10	1	-1E+10	1	-1E+10	1	-1E+10	1
4902554	106	C	01/15/2024	23:03	-133.848	47.604	0	1705.50	0	2.1080	0	34.5530	0	27.614	0	1684.368	0	-1e10	8	-1e10	8	-1E+10	1	-1E+10	1	-1E+10	1	-1E+10	1	-1E+10	1	-1E+10	1
4902554	106	C	01/15/2024	23:03	-133.848	47.604	0	1715.30	0	2.0950	0	34.5560	0	27.618	0	1694.007	0	-1e10	8	-1e10	8	-1E+10	1	-1E+10	1	-1E+10	1	-1E+10	1	-1E+10	1	-1E+10	1
4902554	106	C	01/15/2024	23:03	-133.848	47.604	0	1725.60	0	2.0860	0	34.5570	0	27.619	0	1704.138	0	-1e10	8	-1e10	8	-1E+10	1	-1E+10	1	-1E+10	1	-1E+10	1	-1E+10	1	-1E+10	1
4902554	106	C	01/15/2024	23:03	-133.848	47.604	0	1735.40	0	2.0770	0	34.5590	0	27.621	0	1713.777	0	-1e10	8	-1e10	8	-1E+10	1	-1E+10	1	-1E+10	1	-1E+10	1	-1E+10	1	-1E+10	1
4902554	106	C	01/15/2024	23:03	-133.848	47.604	0	1745.40	0	2.0630	0	34.5620	0	27.625	0	1723.611	0	-1e10	8	-1e10	8	-1E+10	1	-1E+10	1	-1E+10	1	-1E+10	1	-1E+10	1	-1E+10	1
4902554	106	C	01/15/2024	23:03	-133.848	47.604	0	1755.70	0	2.0510	0	34.5640	0	27.628	0	1733.741	0	-1e10	8	-1e10	8	-1E+10	1	-1E+10	1	-1E+10	1	-1E+10	1	-1E+10	1	-1E+10	1
4902554	106	C	01/15/2024	23:03	-133.848	47.604	0	1765.70	0	2.0410	0	34.5660	0	27.630	0	1743.575	0	-1e10	8	-1e10	8	-1E+10	1	-1E+10	1	-1E+10	1	-1E+10	1	-1E+10	1	-1E+10	1
4902554	106	C	01/15/2024	23:03	-133.848	47.604	0	1775.70	0	2.0360	0	34.5670	0	27.631	0	1753.408	0	-1e10	8	-1e10	8	-1E+10	1	-1E+10	1	-1E+10	1	-1E+10	1	-1E+10	1	-1E+10	1
4902554	106	C	01/15/2024	23:03	-133.848	47.604	0	1785.50	0	2.0290	0	34.5680	0	27.633	0	1763.044	0	-1e10	8	-1e10	8	-1E+10	1	-1E+10	1	-1E+10	1	-1E+10	1	-1E+10	1	-1E+10	1
4902554	106	C	01/15/2024	23:03	-133.848	47.604	0	1795.50	0	2.0170	0	34.5710	0	27.636	0	1772.877	0	-1e10	8	-1e10	8	-1E+10	1	-1E+10	1	-1E+10	1	-1E+10	1	-1E+10	1	-1E+10	1
4902554	106	C	01/15/2024	23:03	-133.848	47.604	0	1805.80	0	2.0040	0	34.5730	0	27.639	0	1783.004	0	-1e10	8	-1e10	8	-1E+10	1	-1E+10	1	-1E+10	1	-1E+10	1	-1E+10	1	-1E+10	1
4902554	106	C	01/15/2024	23:03	-133.848	47.604	0	1815.60	0	1.9970	0	34.5740	0	27.640	0	1792.639	0	-1e10	8	-1e10	8	-1E+10	1	-1E+10	1	-1E+10	1	-1E+10	1	-1E+10	1	-1E+10	1
4902554	106	C	01/15/2024	23:03	-133.848	47.604	0	1825.10	0	1.9910	0	34.5760	0	27.642	0	1801.979	0	-1e10	8	-1e10	8	-1E+10	1	-1E+10	1	-1E+10	1	-1E+10	1	-1E+10	1	-1E+10	1
4902554	106	C	01/15/2024	23:03	-133.848	47.604	0	1835.40	0	1.9840	0	34.5770	0	27.644	0	1812.104	0	-1e10	8	-1e10	8	-1E+10	1	-1E+10	1	-1E+10	1	-1E+10	1	-1E+10	1	-1E+10	1
4902554	106	C	01/15/2024	23:03	-133.848	47.604	0	1845.60	0	1.9780	0	34.5780	0	27.645	0	1822.131	0	-1e10	8	-1e10	8	-1E+10	1	-1E+10	1	-1E+10	1	-1E+10	1	-1E+10	1	-1E+10	1
4902554	106	C	01/15/2024	23:03	-133.848	47.604	0	1855.50	0	1.9710	0	34.5800	0	27.647	0	1831.863	0	-1e10	8	-1e10	8	-1E+10	1	-1E+10	1	-1E+10	1	-1E+10	1	-1E+10	1	-1E+10	1
4902554	106	C	01/15/2024	23:03	-133.848	47.604	0	1865.60	0	1.9680	0	34.5800	0	27.647	0	1841.790	0	-1e10	8	-1e10	8	-1E+10	1	-1E+10	1	-1E+10	1	-1E+10	1	-1E+10	1	-1E+10	1
4902554	106	C	01/15/2024	23:03	-133.848	47.604	0	1875.30	0	1.9610	0	34.5820	0	27.650	0	1851.324	0	-1e10	8	-1e10	8	-1E+10	1	-1E+10	1	-1E+10	1	-1E+10	1	-1E+10	1	-1E+10	1
4902554	106	C	01/15/2024	23:03	-133.848	47.604	0	1885.30	0	1.9550	0	34.5830	0	27.651	0	1861.153	0	-1e10	8	-1e10	8	-1E+10	1	-1E+10	1	-1E+10	1	-1E+10	1	-1E+10	1	-1E+10	1
4902554	106	C	01/15/2024	23:03	-133.848	47.604	0	1895.30	0	1.9520	0	34.5840	0	27.652	0	1870.981	0	-1e10	8	-1e10	8	-1E+10	1	-1E+10	1	-1E+10	1	-1E+10	1	-1E+10	1	-1E+10	1
4902554	106	C	01/15/2024	23:03	-133.848	47.604	0	1905.50	0	1.9450	0	34.5850	0	27.653	0	1881.005	0	-1e10	8	-1e10	8	-1E+10	1	-1E+10	1	-1E+10	1	-1E+10	1	-1E+10	1	-1E+10	1
4902554	106	C	01/15/2024	23:03	-133.848	47.604	0	1915.80	0	1.9390	0	34.5860	0	27.655	0	1891.127	0	-1e10	8	-1e10	8	-1E+10	1	-1E+10	1	-1E+10	1	-1E+10	1	-1E+10	1	-1E+10	1
4902554	106	C	01/15/2024	23:03	-133.848	47.604	0	1925.60	0	1.9360	0	34.5870	0	27.656	0	1900.756	0	-1e10	8	-1e10	8	-1E+10	1	-1E+10	1	-1E+10	1	-1E+10	1	-1E+10	1	-1E+10	1
4902554	106	C	01/15/2024	23:03	-133.848	47.604	0	1935.40	0	1.9310	0	34.5880	0	27.657	0	1910.386	0	-1e10	8	-1e10	8	-1E+10	1	-1E+10	1	-1E+10	1	-1E+10	1	-1E+10	1	-1E+10	1
4902554	106	C	01/15/2024	23:03	-133.848	47.604	0	1945.30	0	1.9250	0	34.5890	0	27.658	0	1920.114	0	-1e10	8	-1e10	8	-1E+10	1	-1E+10	1	-1E+10	1	-1E+10	1	-1E+10	1	-1E+10	1
4902554	106	C	01/15/2024	23:03	-133.848	47.604	0	1955.30	0	1.9200	0	34.5900	0	27.660	0	1929.939	0	-1e10	8	-1e10	8	-1E+10	1	-1E+10	1	-1E+10	1	-1E+10	1	-1E+10	1	-1E+10	1
4902554	106	C	01/15/2024	23:03	-133.848	47.604	0	1965.30	0	1.9160	0	34.5910	0	27.661	0	1939.764	0	-1e10	8	-1e10	8	-1E+10	1	-1E+10	1	-1E+10	1	-1E+10	1	-1E+10	1	-1E+10	1
4902554	106	C	01/15/2024	23:03	-133.848	47.604	0	1975.80	0	1.9080	0	34.5920	0	27.662	0	1950.079	0	-1e10	8	-1e10	8	-1E+10	1	-1E+10	1	-1E+10	1	-1E+10	1	-1E+10	1	-1E+10	1
4902554	106	C	01/15/2024	23:03	-133.848	47.604	0																										
4902554	116	C	04/27/2024	00:52	-134.272	47.494	0	0.10	0	8.9370	0	32.3880	0	25.083	0	0.099	0	-1e10	8	-1e10	8	-1E+10	1	-1E+10	1	-1E+10	1	-1E+10	1	-1E+10	1	-1E+10	1
4902554	116	C	04/27/2024	00:52	-134.272	47.494	0	0.20	0	8.9340	0	32.3910	0	25.086	0	0.198	0	-1e10	1	-1e10	1	-1E+10	1	-1E+10	1	-1E+10	1	-1E+10	1	-1E+10	1	-1E+10	1
4902554	116	C	04/27/2024	00:52	-134.272	47.494	0	0.40	0	8.9420	0	32.3790	0	25.076	0	0.397	0	-1e10	8	-1e10	8	-1E+10	1	-1E+10	1	-1E+10	1	-1E+10	1	-1E+10	1	-1E+10	1
4902554	116	C	04/27/2024	00:52	-134.272	47.494	0	1.10	0	8.9420	0	32.3760	0	25.073	0	1.091	0	-1e10	8	-1e10	8	-1E+10	1	-1E+10	1	-1E+10	1	-1E+10	1	-1E+10	1	-1E+10	1
4902554	116	C	04/27/2024	00:52	-134.272	47.494	0	2.10	0	8.9430	0	32.3820	0	25.078	0	2.082	0	-1e10	8	-1e10	8	-1E+10	1	-1E+10	1	-1E+10	1	-1E+10	1	-1E+10	1	-1E+10	1
4902554	116	C	04/27/2024	00:52	-134.272	47.494	0	2.90	0	8.9410	0	32.3780	0	25.075	0	2.876	0	-1e10	8	-1e10	8	-1E+10	1	-1E+10	1	-1E+10	1	-1E+10	1	-1E+10	1	-1E+10	1
4902554	116	C	04/27/2024	00:52	-134.272	47.494	0	3.90	0	8.9320	0	32.3820	0	25.080	0	3.867	0	-1e10	8	-1e10	8	-1E+10	1	-1E+10	1	-1E+10	1	-1E+10	1	-1E+10	1	-1E+10	1
4902554	116	C	04/27/2024	00:52	-134.272	47.494	0	5.20	0	8.9280	8	32.3890	8	25.086	0	5.157	0	-1e10	8	-1e10	8	-1E+10	1	-1E+10	1	-1E+10	1	-1E+10	1	-1E+10	1	-1E+10	1
4902554	116	C	04/27/2024	00:52	-134.272	47.494	0	6.00	0	8.9260	8	32.3300	8	25.040	0	5.950	0	-1e10	8	-1e10	8	-1E+10	1	-1E+10	1	-1E+10	1	-1E+10	1	-1E+10	1	-1E+10	1
4902554	116	C	04/27/2024	00:52	-134.272	47.494	0	7.20	0	8.9230	0	32.3420	0	25.050	0	7.140	0	-1e10	8	-1e10	8	-1E+10	1	-1E+10	1	-1E+10	1	-1E+10	1	-1E+10	1	-1E+10	1
4902554	116	C	04/27/2024	00:52	-134.272	47.494	0	8.00	0	8.9210	0	32.3500	0	25.056	0	7.933	0	-1e10	8	-1e10	8	-1E+10	1	-1E+10	1	-1E+10	1	-1E+10	1	-1E+10	1	-1E+10	1
4902554	116	C	04/27/2024	00:52	-134.272	47.494	0	8.70	0	8.9240	0	32.3890	0	25.086	0	8.627	0	-1e10	8	-1e10	8	-1E+10	1	-1E+10	1	-1E+10	1	-1E+10	1	-1E+10	1	-1E+10	1
4902554	116	C	04/27/2024	00:52	-134.272	47.494	0	10.10	0	8.9270	0	32.3900	0	25.087	0	10.015	0	-1e10	8	-1e10	8	-1E+10	1	-1E+10	1	-1E+10	1	-1E+10	1	-1E+10	1	-1E+10	1
4902554	116	C	04/27/2024	00:52	-134.272	47.494	0	11.10	0	8.9250	0	32.3880	0	25.085	0	11.007	0	-1e10	8	-1e10	8	-1E+10	1	-1E+10	1	-1E+10	1	-1E+10	1	-1E+10	1	-1E+10	1
4902554	116	C	04/27/2024	00:52	-134.272	47.494	0	11.90	0	8.9320	0	32.3870	0	25.084	0	11.800	0	-1e10	8	-1e10	8	-1E+10	1	-1E+10	1	-1E+10	1	-1E+10	1	-1E+10	1	-1E+10	1
4902554	116	C	04/27/2024	00:52	-134.272	47.494	0	12.80	0	8.9050	0	32.3900	0	25.090	0	12.693	0	-1e10	8	-1e10	8	-1E+10	1	-1E+10	1	-1E+10	1	-1E+10	1	-1E+10	1	-1E+10	1
4902554	116	C	04/27/2024	00:52	-134.272	47.494	0	14.00	0	8.8980	0	32.3880	0	25.090	0	13.883	0	-1e10	8	-1e10	8	-1E+10	1	-1E+10	1	-1E+10	1	-1E+10	1	-1E+10	1	-1E+10	1
4902554	116	C	04/27/2024	00:52	-134.272	47.494	0	15.10	0	8.8870	0	32.3880	0	25.091	0	14.973	0	-1e10	8	-1e10	8	-1E+10	1	-1E+10	1	-1E+10	1	-1E+10	1	-1E+10	1	-1E+10	1
4902554	116	C	04/27/2024	00:52	-134.272	47.494	0	16.00	0	8.8390	0	32.3900	0	25.100	0	15.866	0	-1e10	8	-1e10	8	-1E+10	1	-1E+10	1	-1E+10	1	-1E+10	1	-1E+10	1	-1E+10	1
4902554	116	C	04/27/2024	00:52	-134.272	47.494	0	16.80	0	8.8320	0	32.3890	0	25.101	0	16.659	0	-1e10	8	-1e10	8	-1E+10	1	-1E+10	1	-1E+10	1	-1E+10	1	-1E+10	1	-1E+10	1
4902554	116	C	04/27/2024	00:52	-134.272	47.494	0	18.00	0	8.8240	0	32.3890	0	25.102	0	17.849	0	-1e10	8	-1e10	8	-1E+10	1	-1E+10	1	-1E+10	1	-1E+10	1	-1E+10	1	-1E+10	1
4902554	116	C	04/27/2024	00:52	-134.272	47.494	0	19.10	0	8.8210	0	32.3890	0	25.102	0	18.940	0	-1e10	8	-1e10	8	-1E+10	1	-1E+10	1	-1E+10	1	-1E+10	1	-1E+10	1	-1E+10	1
4902554	116	C	04/27/2024	00:52	-134.272	47.494	0	20.00	0	8.8180	0	32.3890	0	25.103	0	19.832	0	-1e10	8	-1e10	8	-1E+10	1	-1E+10	1	-1E+10	1	-1E+10	1	-1E+10	1	-1E+10	1
4902554	116	C	04/27/2024	00:52	-134.272	47.494	0	20.80	0	8.8160	0	32.3880	0	25.102	0	20.625	0	-1e10	8	-1e10	8	-1E+10	1	-1E+10	1	-1E+10	1	-1E+10	1	-1E+10	1	-1E+10	1
4902554	116	C	04/27/2024	00:52	-134.272	47.494	0	21.90	0	8.8090	0	32.3880	0	25.103	0	21.716	0	-1e10	8	-1e10	8	-1E+10	1	-1E+10	1	-1E+10	1	-1E+10	1	-1E+10	1	-1E+10	1
4902554	116	C	04/27/2024	00:52	-134.272	47.494	0	22.90	0	8.7960	0	32.3880	0	25.105	0	22.708	0	-1e10	8	-1e10	8	-1E+10	1	-1E+10	1	-1E+10	1	-1E+10	1	-1E+10	1	-1E+10	1
4902554	116	C	04/27/2024	00:52	-134.272	47.494	0	24.00	0	8.7820	0	32.3880	0	25.108	0	23.798	0	-1e10	8	-1e10	8	-1E+10	1	-1E+10	1	-1E+10	1	-1E+10	1	-1E+10	1	-1E+10	1
4902554	116	C	04/27/2024	00:52	-134.272	47.494	0	25.00	0	8.7710	0	32.3880	0	25.109	0	24.790	0	-1e10	8	-1e10	8	-1E+10	1	-1E+10	1	-1E+10	1	-1E+10	1	-1E+10	1	-1E+10	1
4902554	116	C	04/27/2024	00:52	-134.272	47.494	0	26.10	0	8.7420	0	32.3900	0	25.115	0	25.881	0	-1e10	8	-1e10	8	-1E+10	1	-1E+10	1	-1E+10	1	-1E+10	1	-1E+10	1	-1E+10	1
4902554	116	C	04/27/2024	00:52	-134.272	47.494	0	27.10	0	8.7120	0	32.3890	0	25.119	0	26.872	0	-1e10	8	-1e10	8	-1E+10	1	-1E+10	1	-1E+10	1	-1E+10	1	-1E+10	1	-1E+10	1
4902554	116	C	04/27/2024	00:52	-134.272	47.494	0	28.00	0	8.7060	0	32.3890	0	25.120	0	27.764	0	-1e10	8	-1e10	8	-1E+10	1	-1E+10	1	-1E+10	1	-1E+10	1	-1E+10	1	-1E+10	1
4902554	116	C	04/27/2024	00:52	-134.272	47.494	0	28.70	0	8.6920	0	32.3890	0	25.122	0	28.459	0	-1e10	8	-1e10	8	-1E+10	1	-1E+10	1	-1E+10	1	-1E+10	1	-1E+10	1	-1E+10	1
4902554	116	C	04/27/2024	00:52	-134.272	47.494	0	29.80	0	8.6580	0	32.3890	0	25.127	0	29.549	0	-1e10	8	-1e10	8	-1E+10	1	-1E+10	1	-1E+10	1	-1E+10	1	-1E+10	1	-1E+10	1
4902554	116	C	04/27/2024	00:52	-134.272	47.494	0	30.80	0	8.6230	0	32.3900	0	25.133	0	30.541	0	-1e10	8	-1e10	8	-1E+10	1	-1E+10	1	-1E+10	1	-1E+10	1	-1E+10	1	-1E+10	1
4902554	116	C	04/27/2024	00:52	-134.272	47.494	0	32.00	0	8.5710	0	32.3900	0	25.141	0	31.730	0	-1e10	8	-1e10	8	-1E+10	1	-1E+10	1	-1E+10	1	-1E+10	1	-1E+10	1	-1E+10	1
4902554	116	C	04/27/2024	00:52	-134.272	47.494	0	32.90	0	8.5420	0	32.3910	0	25.146	0	32.623	0	-1e10	8	-1e10	8	-1E+10	1	-1E+10	1	-1E+10	1	-1E+10	1	-1E+10	1	-1E+10	1
4902554	116	C	04/27/2024	00:52	-134.272	47.494	0	33.80	0	8.5200	0	32.3900	0	25.149	0	33.515	0	-1e10	8	-1e10	8	-1E+10	1	-1E+10	1	-1E+10	1	-1E+10	1	-1E+10	1	-1E+10	1
4902554	116	C	04/27/2024	00:52	-134.272	47.494	0	35.00	0	8.4920	0	32.3900	0	25.153	0	34.705	0	-1e10	8	-1e10	8	-1E+10	1	-1E+10	1	-1E+10	1	-1E+10	1	-1E+10	1	-1E+10	1
4902554	116	C	04/27/2024	00:52	-134.272	47.494	0	35.90	0	8.4880	0	32.3920	0	25.155	0	35.597	0	-1e10	8	-1e10	8	-1E+10	1	-1E+10	1	-1E+10	1	-1E+10	1	-1E+10	1	-1E+10	1
4902554	116	C	04/27/2024	00:52	-134.272	47.494	0	36.80	0	8.4820	0	32.3920	0	25.156	0	36.490	0	-1e10	8	-1e10	8	-1E+10	1	-1E+10	1	-1E+10	1	-1E+10	1	-1E+10	1	-1E+10	1
4902554	116	C	04/27/2024	00:52	-134.272	47.494	0	38.00	0	8.4810	0	32.3930	0	25.157	0	37.679	0	-1e10	8	-1e10	8	-1E+10	1	-1E+10	1	-1E+10	1	-1E+10	1	-1E+10	1	-1E+10	1
4902554	116	C	04/27/2024	00:52	-134.272	47.494	0	39.00	0	8.4760	0	32.3930	0	25.158	0	38.671	0	-1e10	8	-1e10	8	-1E+10	1	-1E+10	1	-1E+10	1	-1E+10	1	-1E+10	1	-1E+10	1
4902554	116	C	04/27/2024	00:52	-134.272	47.494	0	39.90	0	8.4710	0	32.3930	0	25.159	0	39.563	0	-1e10	8	-1e10	8	-1E+10	1	-1E+10	1	-1E+10	1	-1E+10	1	-1E+10	1	-1E+10	1
4902554	116	C	04/27/2024	00:52	-134.272	47.494	0	41.10	0	8.4690	0	32.3930	0	25.159	0	40.753	0	-1e10	8	-1e10	8	-1E+10	1	-1E+10	1	-1E+10	1	-1E+10	1	-1E+10	1	-1E+10	1
4902554	116	C	04/27/2024	00:52	-134.272	47.494	0	42.00	0	8.4650	0	32.3940	0	25.160	0	41.645	0	-1e10	8	-1e10	8	-1E+10	1	-1E+10	1	-1E+10	1	-1E+10	1	-1E+10	1	-1E+10	1
4902554	116	C	04/27/2024	00:52	-134.272	47.494	0	42.90	0	8.4550	0	32.3940	0	25.162	0	42.538	0	-1e10	8	-1e10	8	-1E+10	1	-1E+10	1	-1E+10	1	-1E+10	1	-1E+10	1	-1E+10	1
4902554	116	C	04/27/2024	00:52	-134.272	47.494	0	43.90	0	8.4430	0	32.3950	0	25.164	0	43.529	0	-1e10	8	-1e10	8	-1E+10	1	-1E+10	1	-1E+10	1	-1E+10	1	-1E+10	1	-1E+10	1
4902554	116	C	04/27/2024	00:52	-134.272	47.494	0	44.80	0	8.4340	0	32.3950	0	25.166	0	44.421	0	-1e10	8	-1e10	8	-1E+10	1	-1E+10	1	-1E+10	1	-1E+10	1	-1E+10	1	-1E+10	1
4902554	116	C	04/27/2024	00:52	-134.272	47.494	0	46.00	0	8.4260	0	32.3940	0	25.166	0	45.611	0	-1e10	8	-1e10	8	-1E+10	1	-1E+10	1	-1E+10	1	-1E+10	1	-1E+10	1	-1E+10	1
4902554	116	C	04/27/2024	00:52	-134.272	47.494	0	46.90	0	8.4160	0	32.3950	0	25.169	0	46.503	0	-1e10	8	-1e10	8	-1E+10	1	-1E+10	1	-1E+10	1	-1E+10	1	-1E+10	1	-1E+10	1
4902554	116	C	04/27/2024	00:52	-134.272	47.494	0	47.80	0	8.4070	0	32.3940	0	25.169	0	47.396	0	-1e10	8	-1e10	8	-1E+10	1	-1E+10	1	-1E+10	1	-1E+10	1	-1E+10	1	-1E+10	1
4902554	116	C	04/27/2024	00:52	-134.272	47.494	0	49.00	0	8.3700	0	32.3960	0	25.176	0	48.585	0	-1e10	8	-1e10	8	-1E+10	1	-1E+10	1	-1E+10	1	-1E+10	1	-1E+10	1	-1E+10	1
4902554	116	C	04/27/2024	00:52	-134.272	47.494	0	50.00	0	8.3400	0	32.3960	0	25.181	0	49.577	0	-1e10	8	-1e10	8	-1E+10	1	-1E+10	1	-1E+10	1	-1E+10	1	-1E+10	1	-1E+10	1
4902554	116	C	04/27/2024	00:52	-134.272	47.494	0	50.90	0	8.3090	0	32.3990	0	25.188	0	50.469	0	-1e10	8	-1e10	8	-1E+10	1	-1E+10	1	-1E+10	1	-1E+10	1	-1E+10	1	-1E+10	1
4902554	116	C	04/27/2024	00:52	-134.272	47.494	0	51.90	0	8.2880	0	32.3970	0	25.189	0	51.460	0	-1e10	8	-1e10	8	-1E+10	1	-1E+10	1	-1E+10	1	-1E+10	1	-1E+10	1	-1E+10	1
4902554	116	C	04/27/2024	00:52	-134.272	47.494	0	52.90	0	8.2820	0	32.3970	0	25.190	0	52.452	0	-1e10	8	-1e10	8	-1E+10	1	-1E+10	1	-1E+10	1	-1E+10	1	-1E+10	1	-1E+10	1
4902554	116	C	04/27/2024	00:52	-134.272	47.494	0	53.90	0	8.2770	0	32.3970	0	25.191	0	53.443	0	-1e10	8	-1e10	8	-1E+10	1	-1E+10	1	-1E+10	1	-1E+10	1	-1E+10	1	-1E+10	1
4902554	116	C	04/27/2024	00:52	-134.272	47.494	0	54.80	0	8.2710	0	32.3970	0	25.192	0	54.335	0	-1e10	8	-1e10	8	-1E+10	1	-1E+10	1	-1E+10	1	-1E+10	1	-1E+10	1	-1E+10	1
4902554	116	C	04/27/2024	00:52	-134.272	47.494	0	55.90	0	8.2670	0	32.3970	0	25.192	0	55.426	0	-1e10	8	-1e10	8	-1E+10	1	-1E+10	1	-1E+10	1	-1E+10	1	-1E+10	1	-1E+10	1
4902554	116	C	04/27/2024	00:52	-134.272	47.494	0	56.80	0	8.2650	0	32.3960	0	25.192	0	56.318	0	-1e10	8	-1e10	8	-1E+10	1	-1E+10	1	-1E+10	1	-1E+10	1	-1E+10	1	-1E+10	1
4902554	116	C	04/27/2024	00:52	-134.272	47.494	0	57.80	0	8.2610	0	32.3960	0	25.192	0	57.310	0	-1e10	8	-1e10	8	-1E+10	1	-1E+10	1	-1E+10	1	-1E+10	1	-1E+10	1	-1E+10	1
4902554	116	C	04/27/2024	00:52	-134.272	47.494	0	58.80	0	8.2370	0	32.3960	0	25.196	0	58.301	0	-1e10	8	-1e10	8	-1E+10	1	-1E+10	1	-1E+10	1	-1E+10	1	-1E+10	1	-1E+10	1
4902554	116	C	04/27/2024	00:52	-134.272	47.494	0	59.90	0	8.2050	0	32.3980	0	25.202	0	59.391	0	-1e10	8	-1e10	8	-1E+10	1	-1E+10	1	-1E+10	1	-1E+10	1	-1E+10	1	-1E+10	1
4902554	116	C	04/27/2024	00:52	-134.272	47.494	0	60.90	0	8.1750	0	32.3970	0	25.206	0	60.383	0	-1e10	8	-1e10	8	-1E+10	1	-1E+10	1	-1E+10	1	-1E+10	1	-1E+10	1	-1E+10	1
4902554	116	C	04/27/2024	00:52	-134.272	47.494	0	62.00	0	8.0910	0	32.3960	0	25.217	0	61.473	0	-1e10	8	-1e10	8	-1E+10	1	-1E+10	1	-1E+10	1	-1E+10	1	-1E+10	1	-1E+10	1
4902554	116	C	04/27/2024	00:52	-134.272	47.494	0	63.00	0	8.0500	0	32.3920	0	25.220	0	62.465	0	-1e10	8	-1e10	8	-1E+10	1	-1E+10	1	-1E+10	1	-1E+10	1	-1E+10	1	-1E+10	1
4902554	116	C	04/27/2024	00:52	-134.272	47.494	0	64.10	0	8.0420	0	32.3930	0	25.222	0	63.555	0	-1e10	8	-1e10	8	-1E+10	1	-1E+10	1	-1E+10	1	-1E+10	1	-1E+10	1	-1E+10	1
4902554	116	C	04/27/2024	00:52	-134.272	47.494	0	64.80	0	8.0250	0	32.3910	0	25.223	0	64.249	0	-1e10	8	-1e10	8	-1E+10	1	-1E+10	1	-1E+10	1	-1E+10	1	-1E+10	1	-1E+10	1
4902554	116	C	04/27/2024	00:52	-134.272	47.494	0	65.80	0	8.0080	0	32.3910	0	25.225	0	65.240	0	-1e10	8	-1e10	8	-1E+10	1	-1E+10	1	-1E+10	1	-1E+10	1	-1E+10	1	-1E+10	1
4902554	116	C	04/27/2024	00:52	-134.272	47.494	0	66.90	0	8.0030	0	32.3960	0	25.230	0	66.331	0	-1e10	8	-1e10	8	-1E+10	1	-1E+10	1	-1E+10	1	-1E+10	1	-1E+10	1	-1E+10	1
4902554	116	C	04/27/2024	00:52	-134.272	47.494	0	67.90	0	8.0020	0	32.3980	0	25.232	0	67.322	0	-1e10	8	-1e10	8	-1E+10	1	-1E+10	1	-1E+10	1	-1E+10	1	-1E+10	1	-1E+10	1
4902554	116	C	04/27/2024	00:52	-134.272	47.494	0	68.80	0	8.0010	0	32.4000	0	25.234	0	68.214	0	-1e10	8	-1e10	8	-1E+10	1	-1E+10	1	-1E+10	1	-1E+10	1	-1E+10	1	-1E+10	1
4902554	116	C	04/27/2024	00:52	-134.272	47.494	0	70.10	0	7.9980	0	32.4020	0	25.236	0	69.503	0	-1e10	8	-1e10	8	-1E+10	1	-1E+10	1	-1E+10	1	-1E+10	1	-1E+10	1	-1E+10	1
4902554	116	C	04/27/2024	00:52	-134.272	47.494	0	71.10	0	7.9930	0	32.4020	0	25.236	0	70.494	0	-1e10	8	-1e10	8	-1E+10	1	-1E+10	1	-1E+10	1	-1E+10	1	-1E+10	1	-1E+10	1
4902554	116	C	04/27/2024	00:52	-134.272	47.494	0	72.00	0	7.9930	0	32.4020	0	25.236	0	71.387	0	-1e10	8	-1e10	8	-1E+10	1	-1E+10	1	-1E+10	1	-1E+10	1	-1E+10	1	-1E+10	1
4902554	116	C	04/27/2024	00:52	-134.272	47.494	0	72.90	0	7.9880	0	32.4030	0	25.238	0	72.279	0	-1e10	8	-1e10	8	-1E+10	1	-1E+10	1	-1E+10	1	-1E+10	1	-1E+10	1	-1E+10	1
4902554	116	C	04/27/2024	00:52	-134.272	47.494	0	74.10	0	7.9170	0	32.4000	0	25.246	0	73.468	0	-1e10	8	-1e10	8	-1E+10	1	-1E+10	1	-1E+10	1	-1E+10	1	-1E+10	1	-1E+10	1
4902554	116	C	04/27/2024	00:52	-134.272	47.494	0	75.00	0	7.8950	0	32.3990	0	25.248	0	74.361	0	-1e10	8	-1e10	8	-1E+10	1	-1E+10	1	-1E+10	1	-1E+10	1	-1E+10	1	-1E+10	1
4902554	116	C	04/27/2024	00:52	-134.272	47.494	0	75.90	0	7.8590	0	32.4040	0	25.257	0	75.253	0	-1e10	8	-1e10	8	-1E+10	1	-1E+10	1	-1E+10	1	-1E+10	1	-1E+10	1	-1E+10	1
4902554	116	C	04/27/2024	00:52	-134.272	47.494	0	76.90	0	7.8440	0	32.4120	0	25.266	0	76.244	0	-1e10	8	-1e10	8	-1E+10	1	-1E+10	1	-1E+10	1	-1E+10	1	-1E+10	1	-1E+10	1
4902554	116	C	04/27/2024	00:52	-134.272	47.494	0	77.90	0	7.8450	0	32.4160	0	25.269	0	77.235	0	-1e10	8	-1e10	8	-1E+10	1	-1E+10	1	-1E+10	1	-1E+10	1	-1E+10	1	-1E+10	1
4902554	116	C	04/27/2024	00:52	-134.272	47.494	0	78.90	0	7.8360	0	32.4150	0	25.269	0	78.227	0	-1e10	8	-1e10	8	-1E+10	1	-1E+10	1	-1E+10	1	-1E+10	1	-1E+10	1	-1E+10	1
4902554	116	C	04/27/2024	00:52	-134.272	47.494	0	79.90	0	7.8270	0	32.4160	0	25.271	0	79.218	0	-1e10	8	-1e10	8	-1E+10	1	-1E+10	1	-1E+10	1	-1E+10	1	-1E+10	1	-1E+10	1
4902554	116	C	04/27/2024	00:52	-134.272	47.494	0	80.90	0	7.8160	0	32.4190	0	25.275	0	80.209	0	-1e10	8	-1e10	8	-1E+10	1	-1E+10	1	-1E+10	1	-1E+10	1	-1E+10	1	-1E+10	1
4902554	116	C	04/27/2024	00:52	-134.272	47.494	0	82.00	0	7.7810	0	32.4240	0	25.284	0	81.300	0	-1e10	8	-1e10	8	-1E+10	1	-1E+10	1	-1E+10	1	-1E+10	1	-1E+10	1	-1E+10	1
4902554	116	C	04/27/2024	00:52	-134.272	47.494	0	83.00	0	7.7480	0	32.4260	0	25.290	0	82.291	0	-1e10	8	-1e10	8	-1E+10	1	-1E+10	1	-1E+10	1	-1E+10	1	-1E+10	1	-1E+10	1
4902554	116	C	04/27/2024	00:52	-134.272	47.494	0	84.00	0	7.7350	0	32.4300	0	25.295	0	83.282	0	-1e10	8	-1e10	8	-1E+10	1	-1E+10	1	-1E+10	1	-1E+10	1	-1E+10	1	-1E+10	1
4902554	116	C	04/27/2024	00:52	-134.272	47.494	0	85.00	0	7.7190	0	32.4320	0	25.299	0	84.273	0	-1e10	8	-1e10	8	-1E+10	1	-1E+10	1	-1E+10	1	-1E+10	1	-1E+10	1	-1E+10	1
4902554	116	C	04/27/2024	00:52	-134.272	47.494	0	86.00	0	7.6950	0	32.4390	0	25.308	0	85.265	0	-1e10	8	-1e10	8	-1E+10	1	-1E+10	1	-1E+10	1	-1E+10	1	-1E+10	1	-1E+10	1
4902554	116	C	04/27/2024	00:52	-134.272	47.494	0	86.90	0	7.6680	0	32.4450	0	25.316	0	86.157	0	-1e10	8	-1e10	8	-1E+10	1	-1E+10	1	-1E+10	1	-1E+10	1	-1E+10	1	-1E+10	1
4902554	116	C	04/27/2024	00:52	-134.272	47.494	0	87.90	0	7.6500	0	32.4520	0	25.325	0	87.148	0	-1e10	8	-1e10	8	-1E+10	1	-1E+10	1	-1E+10	1	-1E+10	1	-1E+10	1	-1E+10	1
4902554	116	C	04/27/2024	00:52	-134.272	47.494	0	88.80	0	7.6400	0	32.4600	0	25.332	0	88.040	0	-1e10	8	-1e10	8	-1E+10	1	-1E+10	1	-1E+10	1	-1E+10	1	-1E+10	1	-1E+10	1
4902554	116	C	04/27/2024	00:52	-134.272	47.494	0	89.80	0	7.6380	0	32.4630	0	25.335	0	89.031	0	-1e10	8	-1e10	8	-1E+10	1	-1E+10	1	-1E+10	1	-1E+10	1	-1E+10	1	-1E+10	1
4902554	116	C	04/27/2024	00:52	-134.272	47.494	0	90.90	0	7.6280	0	32.4810	0	25.350	0	90.122	0	-1e10	8	-1e10	8	-1E+10	1	-1E+10	1	-1E+10	1	-1E+10	1	-1E+10	1	-1E+10	1
4902554	116	C	04/27/2024	00:52	-134.272	47.494	0	92.10	0	7.6090	0	32.5050	0	25.372	0	91.311	0	-1e10	8	-1e10	8	-1E+10	1	-1E+10	1	-1E+10	1	-1E+10	1	-1E+10	1	-1E+10	1
4902554	116	C	04/27/2024	00:52	-134.272	47.494	0	92.90	0	7.5910	0	32.5210	0	25.387	0	92.104	0	-1e10	8	-1e10	8	-1E+10	1	-1E+10	1	-1E+10	1	-1E+10	1	-1E+10	1	-1E+10	1
4902554	116	C	04/27/2024	00:52	-134.272	47.494	0	93.90	0	7.5610	0	32.5800	0	25.438	0	93.095	0	-1e10	8	-1e10	8	-1E+10	1	-1E+10	1	-1E+10	1	-1E+10	1	-1E+10	1	-1E+10	1
4902554	116	C	04/27/2024	00:52	-134.272	47.494	0	95.10	0	7.6690	0	32.6560	0	25.482	0	94.285	0	-1e10	8	-1e10	8	-1E+10	1	-1E+10	1	-1E+10	1	-1E+10	1	-1E+10	1	-1E+10	1
4902554	116	C	04/27/2024	00:52	-134.272	47.494	0	96.00	0	7.6710	0	32.7400	0	25.548	0	95.177	0	-1e10	8	-1e10	8	-1E+10	1	-1E+10	1	-1E+10	1	-1E+10	1	-1E+10	1	-1E+10	1
4902554	116	C	04/27/2024	00:52	-134.272	47.494	0	97.00	0	7.5450	0	32.8090	0	25.620	0	96.168	0	-1e10	8	-1e10	8	-1E+10	1	-1E+10	1	-1E+10	1	-1E+10	1	-1E+10	1	-1E+10	1
4902554	116	C	04/27/2024	00:52	-134.272	47.494	0	97.90	0	7.4020	0	32.8410	0	25.665	0	97.060	0	-1e10	8	-1e10	8	-1E+10	1	-1E+10	1	-1E+10	1	-1E+10	1	-1E+10	1	-1E+10	1
4902554	116	C	04/27/2024	00:52	-134.272	47.494	0	98.90	0	7.2840	0	32.8580	0	25.695	0	98.051	0	-1e10	8	-1e10	8	-1E+10	1	-1E+10	1	-1E+10	1	-1E+10	1	-1E+10	1	-1E+10	1
4902554	116	C	04/27/2024	00:52	-134.272	47.494	0	100.00	0	7.1790	0	32.9620	0	25.791	0	99.141	0	-1e10	8	-1e10	8	-1E+10	1	-1E+10	1	-1E+10	1	-1E+10	1	-1E+10	1	-1E+10	1
4902554	116	C	04/27/2024	00:52	-134.272	47.494	0	101.10	0	7.2320	0	33.0020	0	25.815	0	100.232	0	-1e10	8	-1e10	8	-1E+10	1	-1E+10	1	-1E+10	1	-1E+10	1	-1E+10	1	-1E+10	1
4902554	116	C	04/27/2024	00:52	-134.272	47.494	0	102.10	0	7.1320	0	33.0260	0	25.848	0	101.223	0	-1e10	8	-1e10	8	-1E+10	1	-1E+10	1	-1E+10	1	-1E+10	1	-1E+10	1	-1E+10	1
4902554	116	C	04/27/2024	00:52	-134.272	47.494	0	103.10	0	7.1300	0	33.0630	0	25.877	0	102.214	0	-1e10	8	-1e10	8	-1E+10	1	-1E+10	1	-1E+10	1	-1E+10	1	-1E+10	1	-1E+10	1
4902554	116	C	04/27/2024	00:52	-134.272	47.494	0	104.10	0	7.1360	0	33.0660	0	25.879	0	103.205	0	-1e10	8	-1e10	8	-1E+10	1	-1E+10	1	-1E+10	1	-1E+10	1	-1E+10	1	-1E+10	1
4902554	116	C	04/27/2024	00:52	-134.272	47.494	0	105.10	0	7.1000	0	33.1030	0	25.913	0	104.196	0	-1e10	8	-1e10	8	-1E+10	1	-1E+10	1	-1E+10	1	-1E+10	1	-1E+10	1	-1E+10	1
4902554	116	C	04/27/2024	00:52	-134.272	47.494	0	106.00	0	6.9980	0	33.1180	0	25.938	0	105.088	0	-1e10	8	-1e10	8	-1E+10	1	-1E+10	1	-1E+10	1	-1E+10	1	-1E+10	1	-1E+10	1
4902554	116	C	04/27/2024	00:52	-134.272	47.494	0	106.80	0	6.9260	0	33.1420	0	25.967	0	105.881	0	-1e10	8	-1e10	8	-1E+10	1	-1E+10	1	-1E+10	1	-1E+10	1	-1E+10	1	-1E+10	1
4902554	116	C	04/27/2024	00:52	-134.272	47.494	0	108.00	0	6.9300	0	33.1840	0	25.999	0	107.071	0	-1e10	8	-1e10	8	-1E+10	1	-1E+10	1	-1E+10	1	-1E+10	1	-1E+10	1	-1E+10	1
4902554	116	C	04/27/2024	00:52	-134.272	47.494	0	109.00	0	6.9310	0	33.2280	0	26.034	0	108.062	0	-1e10	8	-1e10	8	-1E+10	1	-1E+10	1	-1E+10	1	-1E+10	1	-1E+10	1	-1E+10	1
4902554	116	C	04/27/2024	00:52	-134.272	47.494	0	109.90	0	6.9160	0	33.2470	0	26.051	0	108.954	0	-1e10	8	-1e10	8	-1E+10	1	-1E+10	1	-1E+10	1	-1E+10	1	-1E+10	1	-1E+10	1
4902554	116	C	04/27/2024	00:52	-134.272	47.494	0	110.90	0	6.9040	0	33.2550	0	26.059	0	109.945	0	-1e10	8	-1e10	8	-1E+10	1	-1E+10	1	-1E+10	1	-1E+10	1	-1E+10	1	-1E+10	1
4902554	116	C	04/27/2024	00:52	-134.272	47.494	0	111.90	0	6.8760	0	33.2730	0	26.077	0	110.936	0	-1e10	8	-1e10	8	-1E+10	1	-1E+10	1	-1E+10	1	-1E+10	1	-1E+10	1	-1E+10	1
4902554	116	C	04/27/2024	00:52	-134.272	47.494	0	112.90	0	6.8720	0	33.2800	0	26.083	0	111.927	0	-1e10	8	-1e10	8	-1E+10	1	-1E+10	1	-1E+10	1	-1E+10	1	-1E+10	1	-1E+10	1
4902554	116	C	04/27/2024	00:52	-134.272	47.494	0	113.80	0	6.8620	0	33.2840	0	26.087	0	112.819	0	-1e10	8	-1e10	8	-1E+10	1	-1E+10	1	-1E+10	1	-1E+10	1	-1E+10	1	-1E+10	1
4902554	116	C	04/27/2024	00:52	-134.272	47.494	0	115.00	0	6.8550	0	33.2870	0	26.091	0	114.009	0	-1e10	8	-1e10	8	-1E+10	1	-1E+10	1	-1E+10	1	-1E+10	1	-1E+10	1	-1E+10	1
4902554	116	C	04/27/2024	00:52	-134.272	47.494	0	116.00	0	6.8400	0	33.2970	0	26.100	0	115.000	0	-1e10	8	-1e10	8	-1E+10	1	-1E+10	1	-1E+10	1	-1E+10	1	-1E+10	1	-1E+10	1
4902554	116	C	04/27/2024	00:52	-134.272	47.494	0	117.00	0	6.8010	0	33.3260	0	26.129	0	115.991	0	-1e10	8	-1e10	8	-1E+10	1	-1E+10	1	-1E+10	1	-1E+10	1	-1E+10	1	-1E+10	1
4902554	116	C	04/27/2024	00:52	-134.272	47.494	0	118.00	0	6.7540	0	33.3330	0	26.140	0	116.982	0	-1e10	8	-1e10	8	-1E+10	1	-1E+10	1	-1E+10	1	-1E+10	1	-1E+10	1	-1E+10	1
4902554	116	C	04/27/2024	00:52	-134.272	47.494	0	119.00	0	6.5880	0	33.3400	0	26.168	0	117.973	0	-1e10	8	-1e10	8	-1E+10	1	-1E+10	1	-1E+10	1	-1E+10	1	-1E+10	1	-1E+10	1
4902554	116	C	04/27/2024	00:52	-134.272	47.494	0	120.10	0	6.5110	0	33.3390	0	26.177	0	119.063	0	-1e10	8	-1e10	8	-1E+10	1	-1E+10	1	-1E+10	1	-1E+10	1	-1E+10	1	-1E+10	1
4902554	116	C	04/27/2024	00:52	-134.272	47.494	0	120.80	0	6.5130	0	33.3420	0	26.179	0	119.757	0	-1e10	8	-1e10	8	-1E+10	1	-1E+10	1	-1E+10	1	-1E+10	1	-1E+10	1	-1E+10	1
4902554	116	C	04/27/2024	00:52	-134.272	47.494	0	121.80	0	6.4600	0	33.3370	0	26.182	0	120.748	0	-1e10	8	-1e10	8	-1E+10	1	-1E+10	1	-1E+10	1	-1E+10	1	-1E+10	1	-1E+10	1
4902554	116	C	04/27/2024	00:52	-134.272	47.494	0	122.90	0	6.3510	0	33.3280	0	26.189	0	121.838	0	-1e10	8	-1e10	8	-1E+10	1	-1E+10	1	-1E+10	1	-1E+10	1	-1E+10	1	-1E+10	1
4902554	116	C	04/27/2024	00:52	-134.272	47.494	0	124.00	0	6.3520	0	33.3300	0	26.190	0	122.928	0	-1e10	8	-1e10	8	-1E+10	1	-1E+10	1	-1E+10	1	-1E+10	1	-1E+10	1	-1E+10	1
4902554	116	C	04/27/2024	00:52	-134.272	47.494	0	125.10	0	6.3840	0	33.3420	0	26.196	0	124.018	0	-1e10	8	-1e10	8	-1E+10	1	-1E+10	1	-1E+10	1	-1E+10	1	-1E+10	1	-1E+10	1
4902554	116	C	04/27/2024	00:52	-134.272	47.494	0	125.90	0	6.4290	0	33.3740	0	26.215	0	124.811	0	-1e10	8	-1e10	8	-1E+10	1	-1E+10	1	-1E+10	1	-1E+10	1	-1E+10	1	-1E+10	1
4902554	116	C	04/27/2024	00:52	-134.272	47.494	0	127.00	0	6.3610	0	33.3760	0	26.225	0	125.901	0	-1e10	8	-1e10	8	-1E+10	1	-1E+10	1	-1E+10	1	-1E+10	1	-1E+10	1	-1E+10	1
4902554	116	C	04/27/2024	00:52	-134.272	47.494	0	128.20	0	6.2810	0	33.3730	0	26.233	0	127.091	0	-1e10	8	-1e10	8	-1E+10	1	-1E+10	1	-1E+10	1	-1E+10	1	-1E+10	1	-1E+10	1
4902554	116	C	04/27/2024	00:52	-134.272	47.494	0	129.00	0	6.2440	0	33.3810	0	26.244	0	127.883	0	-1e10	8	-1e10	8	-1E+10	1	-1E+10	1	-1E+10	1	-1E+10	1	-1E+10	1	-1E+10	1
4902554	116	C	04/27/2024	00:52	-134.272	47.494	0	129.80	0	6.0780	0	33.3750	0	26.260	0	128.676	0	-1e10	8	-1e10	8	-1E+10	1	-1E+10	1	-1E+10	1	-1E+10	1	-1E+10	1	-1E+10	1
4902554	116	C	04/27/2024	00:52	-134.272	47.494	0	130.90	0	5.9720	0	33.3820	0	26.279	0	129.766	0	-1e10	8	-1e10	8	-1E+10	1	-1E+10	1	-1E+10	1	-1E+10	1	-1E+10	1	-1E+10	1
4902554	116	C	04/27/2024	00:52	-134.272	47.494	0	132.10	0	5.8840	0	33.4030	0	26.307	0	130.956	0	-1e10	8	-1e10	8	-1E+10	1	-1E+10	1	-1E+10	1	-1E+10	1	-1E+10	1	-1E+10	1
4902554	116	C	04/27/2024	00:52	-134.272	47.494	0	133.00	0	5.8480	0	33.4170	0	26.322	0	131.848	0	-1e10	8	-1e10	8	-1E+10	1	-1E+10	1	-1E+10	1	-1E+10	1	-1E+10	1	-1E+10	1
4902554	116	C	04/27/2024	00:52	-134.272	47.494	0	133.90	0	5.8270	0	33.4250	0	26.331	0	132.739	0	-1e10	8	-1e10	8	-1E+10	1	-1E+10	1	-1E+10	1	-1E+10	1	-1E+10	1	-1E+10	1
4902554	116	C	04/27/2024	00:52	-134.272	47.494	0	134.80	0	5.8250	0	33.4290	0	26.334	0	133.631	0	-1e10	8	-1e10	8	-1E+10	1	-1E+10	1	-1E+10	1	-1E+10	1	-1E+10	1	-1E+10	1
4902554	116	C	04/27/2024	00:52	-134.272	47.494	0	135.60	0	5.8030	0	33.4370	0	26.343	0	134.424	0	-1e10	8	-1e10	8	-1E+10	1	-1E+10	1	-1E+10	1	-1E+10	1	-1E+10	1	-1E+10	1
4902554	116	C	04/27/2024	00:52	-134.272	47.494	0	136.90	0	5.7910	0	33.4420	0	26.349	0	135.712	0	-1e10	8	-1e10	8	-1E+10	1	-1E+10	1	-1E+10	1	-1E+10	1	-1E+10	1	-1E+10	1
4902554	116	C	04/27/2024	00:52	-134.272	47.494	0	138.30	0	5.7590	0	33.4510	0	26.360	0	137.100	0	-1e10	8	-1e10	8	-1E+10	1	-1E+10	1	-1E+10	1	-1E+10	1	-1E+10	1	-1E+10	1
4902554	116	C	04/27/2024	00:52	-134.272	47.494	0	139.20	0	5.7430	0	33.4570	0	26.367	0	137.992	0	-1e10	8	-1e10	8	-1E+10	1	-1E+10	1	-1E+10	1	-1E+10	1	-1E+10	1	-1E+10	1
4902554	116	C	04/27/2024	00:52	-134.272	47.494	0	140.10	0	5.7270	0	33.4590	0	26.370	0	138.884	0	-1e10	8	-1e10	8	-1E+10	1	-1E+10	1	-1E+10	1	-1E+10	1	-1E+10	1	-1E+10	1
4902554	116	C	04/27/2024	00:52	-134.272	47.494	0	141.10	0	5.7210	0	33.4610	0	26.372	0	139.875	0	-1e10	8	-1e10	8	-1E+10	1	-1E+10	1	-1E+10	1	-1E+10	1	-1E+10	1	-1E+10	1
4902554	116	C	04/27/2024	00:52	-134.272	47.494	0	142.00	0	5.6970	0	33.4670	0	26.380	0	140.767	0	-1e10	8	-1e10	8	-1E+10	1	-1E+10	1	-1E+10	1	-1E+10	1	-1E+10	1	-1E+10	1
4902554	116	C	04/27/2024	00:52	-134.272	47.494	0	142.80	0	5.6900	0	33.4710	0	26.384	0	141.559	0	-1e10	8	-1e10	8	-1E+10	1	-1E+10	1	-1E+10	1	-1E+10	1	-1E+10	1	-1E+10	1
4902554	116	C	04/27/2024	00:52	-134.272	47.494	0	143.70	0	5.6880	0	33.4720	0	26.385	0	142.451	0	-1e10	8	-1e10	8	-1E+10	1	-1E+10	1	-1E+10	1	-1E+10	1	-1E+10	1	-1E+10	1
4902554	116	C	04/27/2024	00:52	-134.272	47.494	0	144.60	0	5.6710	0	33.4790	0	26.393	0	143.343	0	-1e10	8	-1e10	8	-1E+10	1	-1E+10	1	-1E+10	1	-1E+10	1	-1E+10	1	-1E+10	1
4902554	116	C	04/27/2024	00:52	-134.272	47.494	0	145.90	0	5.6570	0	33.5000	0	26.411	0	144.631	0	-1e10	8	-1e10	8	-1E+10	1	-1E+10	1	-1E+10	1	-1E+10	1	-1E+10	1	-1E+10	1
4902554	116	C	04/27/2024	00:52	-134.272	47.494	0	147.30	0	5.6540	0	33.5120	0	26.421	0	146.019	0	-1e10	8	-1e10	8	-1E+10	1	-1E+10	1	-1E+10	1	-1E+10	1	-1E+10	1	-1E+10	1
4902554	116	C	04/27/2024	00:52	-134.272	47.494	0	148.20	0	5.6650	0	33.5260	0	26.431	0	146.910	0	-1e10	8	-1e10	8	-1E+10	1	-1E+10	1	-1E+10	1	-1E+10	1	-1E+10	1	-1E+10	1
4902554	116	C	04/27/2024	00:52	-134.272	47.494	0	149.20	0	5.6730	0	33.5340	0	26.436	0	147.901	0	-1e10	8	-1e10	8	-1E+10	1	-1E+10	1	-1E+10	1	-1E+10	1	-1E+10	1	-1E+10	1
4902554	116	C	04/27/2024	00:52	-134.272	47.494	0	150.10	0	5.6890	0	33.5410	0	26.440	0	148.793	0	-1e10	8	-1e10	8	-1E+10	1	-1E+10	1	-1E+10	1	-1E+10	1	-1E+10	1	-1E+10	1
4902554	116	C	04/27/2024	00:52	-134.272	47.494	0	151.00	0	5.6880	0	33.5510	0	26.448	0	149.685	0	-1e10	8	-1e10	8	-1E+10	1	-1E+10	1	-1E+10	1	-1E+10	1	-1E+10	1	-1E+10	1
4902554	116	C	04/27/2024	00:52	-134.272	47.494	0	152.00	0	5.6940	0	33.5560	0	26.451	0	150.676	0	-1e10	8	-1e10	8	-1E+10	1	-1E+10	1	-1E+10	1	-1E+10	1	-1E+10	1	-1E+10	1
4902554	116	C	04/27/2024	00:52	-134.272	47.494	0	153.00	0	5.7150	0	33.5740	0	26.463	0	151.667	0	-1e10	8	-1e10	8	-1E+10	1	-1E+10	1	-1E+10	1	-1E+10	1	-1E+10	1	-1E+10	1
4902554	116	C	04/27/2024	00:52	-134.272	47.494	0	153.90	0	5.7320	0	33.5880	0	26.472	0	152.559	0	-1e10	8	-1e10	8	-1E+10	1	-1E+10	1	-1E+10	1	-1E+10	1	-1E+10	1	-1E+10	1
4902554	116	C	04/27/2024	00:52	-134.272	47.494	0	154.90	0	5.7640	0	33.5970	0	26.475	0	153.550	0	-1e10	8	-1e10	8	-1E+10	1	-1E+10	1	-1E+10	1	-1E+10	1	-1E+10	1	-1E+10	1
4902554	116	C	04/27/2024	00:52	-134.272	47.494	0	155.90	0	5.7820	0	33.6040	0	26.478	0	154.541	0	-1e10	8	-1e10	8	-1E+10	1	-1E+10	1	-1E+10	1	-1E+10	1	-1E+10	1	-1E+10	1
4902554	116	C	04/27/2024	00:52	-134.272	47.494	0	156.90	0	5.7860	0	33.6060	0	26.479	0	155.531	0	-1e10	8	-1e10	8	-1E+10	1	-1E+10	1	-1E+10	1	-1E+10	1	-1E+10	1	-1E+10	1
4902554	116	C	04/27/2024	00:52	-134.272	47.494	0	157.80	0	5.8280	0	33.6100	0	26.477	0	156.423	0	-1e10	8	-1e10	8	-1E+10	1	-1E+10	1	-1E+10	1	-1E+10	1	-1E+10	1	-1E+10	1
4902554	116	C	04/27/2024	00:52	-134.272	47.494	0	158.80	0	5.8800	0	33.6270	0	26.484	0	157.414	0	-1e10	8	-1e10	8	-1E+10	1	-1E+10	1	-1E+10	1	-1E+10	1	-1E+10	1	-1E+10	1
4902554	116	C	04/27/2024	00:52	-134.272	47.494	0	159.70	0	5.9650	0	33.6490	0	26.491	0	158.306	0	-1e10	8	-1e10	8	-1E+10	1	-1E+10	1	-1E+10	1	-1E+10	1	-1E+10	1	-1E+10	1
4902554	116	C	04/27/2024	00:52	-134.272	47.494	0	160.60	0	6.0270	0	33.6600	0	26.492	0	159.198	0	-1e10	8	-1e10	8	-1E+10	1	-1E+10	1	-1E+10	1	-1E+10	1	-1E+10	1	-1E+10	1
4902554	116	C	04/27/2024	00:52	-134.272	47.494	0	161.60	0	6.0490	0	33.6640	0	26.493	0	160.189	0	-1e10	8	-1e10	8	-1E+10	1	-1E+10	1	-1E+10	1	-1E+10	1	-1E+10	1	-1E+10	1
4902554	116	C	04/27/2024	00:52	-134.272	47.494	0	162.90	0	6.0550	0	33.6690	0	26.496	0	161.477	0	-1e10	8	-1e10	8	-1E+10	1	-1E+10	1	-1E+10	1	-1E+10	1	-1E+10	1	-1E+10	1
4902554	116	C	04/27/2024	00:52	-134.272	47.494	0	164.30	0	6.0640	0	33.6810	0	26.504	0	162.864	0	-1e10	8	-1e10	8	-1E+10	1	-1E+10	1	-1E+10	1	-1E+10	1	-1E+10	1	-1E+10	1
4902554	116	C	04/27/2024	00:52	-134.272	47.494	0	165.30	0	6.0920	0	33.6970	0	26.513	0	163.855	0	-1e10	8	-1e10	8	-1E+10	1	-1E+10	1	-1E+10	1	-1E+10	1	-1E+10	1	-1E+10	1
4902554	116	C	04/27/2024	00:52	-134.272	47.494	0	166.20	0	6.0910	0	33.6980	0	26.514	0	164.747	0	-1e10	8	-1e10	8	-1E+10	1	-1E+10	1	-1E+10	1	-1E+10	1	-1E+10	1	-1E+10	1
4902554	116	C	04/27/2024	00:52	-134.272	47.494	0	167.20	0	6.0770	0	33.7050	0	26.522	0	165.738	0	-1e10	8	-1e10	8	-1E+10	1	-1E+10	1	-1E+10	1	-1E+10	1	-1E+10	1	-1E+10	1
4902554	116	C	04/27/2024	00:52	-134.272	47.494	0	168.20	0	6.0800	0	33.7090	0	26.524	0	166.728	0	-1e10	8	-1e10	8	-1E+10	1	-1E+10	1	-1E+10	1	-1E+10	1	-1E+10	1	-1E+10	1
4902554	116	C	04/27/2024	00:52	-134.272	47.494	0	169.20	0	6.0790	0	33.7100	0	26.525	0	167.719	0	-1e10	8	-1e10	8	-1E+10	1	-1E+10	1	-1E+10	1	-1E+10	1	-1E+10	1	-1E+10	1
4902554	116	C	04/27/2024	00:52	-134.272	47.494	0	170.20	0	6.0790	0	33.7110	0	26.526	0	168.710	0	-1e10	8	-1e10	8	-1E+10	1	-1E+10	1	-1E+10	1	-1E+10	1	-1E+10	1	-1E+10	1
4902554	116	C	04/27/2024	00:52	-134.272	47.494	0	171.20	0	6.0790	0	33.7120	0	26.527	0	169.701	0	-1e10	8	-1e10	8	-1E+10	1	-1E+10	1	-1E+10	1	-1E+10	1	-1E+10	1	-1E+10	1
4902554	116	C	04/27/2024	00:52	-134.272	47.494	0	172.20	0	6.0800	0	33.7140	0	26.528	0	170.692	0	-1e10	8	-1e10	8	-1E+10	1	-1E+10	1	-1E+10	1	-1E+10	1	-1E+10	1	-1E+10	1
4902554	116	C	04/27/2024	00:52	-134.272	47.494	0	173.20	0	6.0740	0	33.7170	0	26.532	0	171.683	0	-1e10	8	-1e10	8	-1E+10	1	-1E+10	1	-1E+10	1	-1E+10	1	-1E+10	1	-1E+10	1
4902554	116	C	04/27/2024	00:52	-134.272	47.494	0	174.20	0	6.0460	0	33.7170	0	26.535	0	172.673	0	-1e10	8	-1e10	8	-1E+10	1	-1E+10	1	-1E+10	1	-1E+10	1	-1E+10	1	-1E+10	1
4902554	116	C	04/27/2024	00:52	-134.272	47.494	0	175.10	0	6.0440	0	33.7210	0	26.539	0	173.565	0	-1e10	8	-1e10	8	-1E+10	1	-1E+10	1	-1E+10	1	-1E+10	1	-1E+10	1	-1E+10	1
4902554	116	C	04/27/2024	00:52	-134.272	47.494	0	176.10	0	6.0200	0	33.7190	0	26.540	0	174.556	0	-1e10	8	-1e10	8	-1E+10	1	-1E+10	1	-1E+10	1	-1E+10	1	-1E+10	1	-1E+10	1
4902554	116	C	04/27/2024	00:52	-134.272	47.494	0	177.10	0	5.9860	0	33.7180	0	26.543	0	175.547	0	-1e10	8	-1e10	8	-1E+10	1	-1E+10	1	-1E+10	1	-1E+10	1	-1E+10	1	-1E+10	1
4902554	116	C	04/27/2024	00:52	-134.272	47.494	0	178.10	0	5.9750	0	33.7170	0	26.544	0	176.538	0	-1e10	8	-1e10	8	-1E+10	1	-1E+10	1	-1E+10	1	-1E+10	1	-1E+10	1	-1E+10	1
4902554	116	C	04/27/2024	00:52	-134.272	47.494	0	179.10	0	5.9450	0	33.7230	0	26.552	0	177.528	0	-1e10	8	-1e10	8	-1E+10	1	-1E+10	1	-1E+10	1	-1E+10	1	-1E+10	1	-1E+10	1
4902554	116	C	04/27/2024	00:52	-134.272	47.494	0	180.10	0	5.9450	0	33.7190	0	26.549	0	178.519	0	-1e10	8	-1e10	8	-1E+10	1	-1E+10	1	-1E+10	1	-1E+10	1	-1E+10	1	-1E+10	1
4902554	116	C	04/27/2024	00:52	-134.272	47.494	0	181.00	0	5.9070	0	33.7150	0	26.551	0	179.411	0	-1e10	8	-1e10	8	-1E+10	1	-1E+10	1	-1E+10	1	-1E+10	1	-1E+10	1	-1E+10	1
4902554	116	C	04/27/2024	00:52	-134.272	47.494	0	182.00	0	5.9640	0	33.7340	0	26.559	0	180.402	0	-1e10	8	-1e10	8	-1E+10	1	-1E+10	1	-1E+10	1	-1E+10	1	-1E+10	1	-1E+10	1
4902554	116	C	04/27/2024	00:52	-134.272	47.494	0	183.00	0	5.9630	0	33.7360	0	26.561	0	181.392	0	-1e10	8	-1e10	8	-1E+10	1	-1E+10	1	-1E+10	1	-1E+10	1	-1E+10	1	-1E+10	1
4902554	116	C	04/27/2024	00:52	-134.272	47.494	0	184.00	0	5.9310	0	33.7340	0	26.563	0	182.383	0	-1e10	8	-1e10	8	-1E+10	1	-1E+10	1	-1E+10	1	-1E+10	1	-1E+10	1	-1E+10	1
4902554	116	C	04/27/2024	00:52	-134.272	47.494	0	185.00	0	5.8070	0	33.7270	0	26.573	0	183.374	0	-1e10	8	-1e10	8	-1E+10	1	-1E+10	1	-1E+10	1	-1E+10	1	-1E+10	1	-1E+10	1
4902554	116	C	04/27/2024	00:52	-134.272	47.494	0	186.00	0	5.8460	0	33.7360	0	26.575	0	184.365	0	-1e10	8	-1e10	8	-1E+10	1	-1E+10	1	-1E+10	1	-1E+10	1	-1E+10	1	-1E+10	1
4902554	116	C	04/27/2024	00:52	-134.272	47.494	0	187.00	0	5.7870	0	33.7380	0	26.584	0	185.355	0	-1e10	8	-1e10	8	-1E+10	1	-1E+10	1	-1E+10	1	-1E+10	1	-1E+10	1	-1E+10	1
4902554	116	C	04/27/2024	00:52	-134.272	47.494	0	188.00	0	5.7250	0	33.7340	0	26.588	0	186.346	0	-1e10	8	-1e10	8	-1E+10	1	-1E+10	1	-1E+10	1	-1E+10	1	-1E+10	1	-1E+10	1
4902554	116	C	04/27/2024	00:52	-134.272	47.494	0	189.00	0	5.7000	0	33.7280	0	26.587	0	187.337	0	-1e10	8	-1e10	8	-1E+10	1	-1E+10	1	-1E+10	1	-1E+10	1	-1E+10	1	-1E+10	1
4902554	116	C	04/27/2024	00:52	-134.272	47.494	0	189.90	0	5.6750	0	33.7260	0	26.588	0	188.229	0	-1e10	8	-1e10	8	-1E+10	1	-1E+10	1	-1E+10	1	-1E+10	1	-1E+10	1	-1E+10	1
4902554	116	C	04/27/2024	00:52	-134.272	47.494	0	191.00	0	5.6810	0	33.7350	0	26.594	0	189.318	0	-1e10	8	-1e10	8	-1E+10	1	-1E+10	1	-1E+10	1	-1E+10	1	-1E+10	1	-1E+10	1
4902554	116	C	04/27/2024	00:52	-134.272	47.494	0	192.00	0	5.6560	0	33.7360	0	26.598	0	190.309	0	-1e10	8	-1e10	8	-1E+10	1	-1E+10	1	-1E+10	1	-1E+10	1	-1E+10	1	-1E+10	1
4902554	116	C	04/27/2024	00:52	-134.272	47.494	0	193.00	0	5.6400	0	33.7410	0	26.604	0	191.300	0	-1e10	8	-1e10	8	-1E+10	1	-1E+10	1	-1E+10	1	-1E+10	1	-1E+10	1	-1E+10	1
4902554	116	C	04/27/2024	00:52	-134.272	47.494	0	194.00	0	5.6240	0	33.7400	0	26.605	0	192.291	0	-1e10	8	-1e10	8	-1E+10	1	-1E+10	1	-1E+10	1	-1E+10	1	-1E+10	1	-1E+10	1
4902554	116	C	04/27/2024	00:52	-134.272	47.494	0	195.00	0	5.5870	0	33.7410	0	26.611	0	193.281	0	-1e10	8	-1e10	8	-1E+10	1	-1E+10	1	-1E+10	1	-1E+10	1	-1E+10	1	-1E+10	1
4902554	116	C	04/27/2024	00:52	-134.272	47.494	0	196.00	0	5.5660	0	33.7400	0	26.612	0	194.272	0	-1e10	8	-1e10	8	-1E+10	1	-1E+10	1	-1E+10	1	-1E+10	1	-1E+10	1	-1E+10	1
4902554	116	C	04/27/2024	00:52	-134.272	47.494	0	197.00	0	5.5360	0	33.7410	0	26.617	0	195.263	0	-1e10	8	-1e10	8	-1E+10	1	-1E+10	1	-1E+10	1	-1E+10	1	-1E+10	1	-1E+10	1
4902554	116	C	04/27/2024	00:52	-134.272	47.494	0	198.00	0	5.5210	0	33.7390	0	26.617	0	196.253	0	-1e10	8	-1e10	8	-1E+10	1	-1E+10	1	-1E+10	1	-1E+10	1	-1E+10	1	-1E+10	1
4902554	116	C	04/27/2024	00:52	-134.272	47.494	0	199.00	0	5.5000	0	33.7400	0	26.620	0	197.244	0	-1e10	8	-1e10	8	-1E+10	1	-1E+10	1	-1E+10	1	-1E+10	1	-1E+10	1	-1E+10	1
4902554	116	C	04/27/2024	00:52	-134.272	47.494	0	200.10	0	5.4740	0	33.7410	0	26.624	0	198.334	0	-1e10	8	-1e10	8	-1E+10	1	-1E+10	1	-1E+10	1	-1E+10	1	-1E+10	1	-1E+10	1
4902554	116	C	04/27/2024	00:52	-134.272	47.494	0	201.10	0	5.4590	0	33.7410	0	26.626	0	199.325	0	-1e10	8	-1e10	8	-1E+10	1	-1E+10	1	-1E+10	1	-1E+10	1	-1E+10	1	-1E+10	1
4902554	116	C	04/27/2024	00:52	-134.272	47.494	0	202.10	0	5.4440	0	33.7440	0	26.630	0	200.315	0	-1e10	8	-1e10	8	-1E+10	1	-1E+10	1	-1E+10	1	-1E+10	1	-1E+10	1	-1E+10	1
4902554	116	C	04/27/2024	00:52	-134.272	47.494	0	203.10	0	5.4370	0	33.7430	0	26.630	0	201.306	0	-1e10	8	-1e10	8	-1E+10	1	-1E+10	1	-1E+10	1	-1E+10	1	-1E+10	1	-1E+10	1
4902554	116	C	04/27/2024	00:52	-134.272	47.494	0	204.10	0	5.4390	0	33.7440	0	26.631	0	202.297	0	-1e10	8	-1e10	8	-1E+10	1	-1E+10	1	-1E+10	1	-1E+10	1	-1E+10	1	-1E+10	1
4902554	116	C	04/27/2024	00:52	-134.272	47.494	0	205.10	0	5.4460	0	33.7500	0	26.635	0	203.287	0	-1e10	8	-1e10	8	-1E+10	1	-1E+10	1	-1E+10	1	-1E+10	1	-1E+10	1	-1E+10	1
4902554	116	C	04/27/2024	00:52	-134.272	47.494	0	206.10	0	5.4410	0	33.7510	0	26.636	0	204.278	0	-1e10	8	-1e10	8	-1E+10	1	-1E+10	1	-1E+10	1	-1E+10	1	-1E+10	1	-1E+10	1
4902554	116	C	04/27/2024	00:52	-134.272	47.494	0	207.10	0	5.4420	0	33.7510	0	26.636	0	205.269	0	-1e10	8	-1e10	8	-1E+10	1	-1E+10	1	-1E+10	1	-1E+10	1	-1E+10	1	-1E+10	1
4902554	116	C	04/27/2024	00:52	-134.272	47.494	0	208.10	0	5.4130	0	33.7500	0	26.638	0	206.259	0	-1e10	8	-1e10	8	-1E+10	1	-1E+10	1	-1E+10	1	-1E+10	1	-1E+10	1	-1E+10	1
4902554	116	C	04/27/2024	00:52	-134.272	47.494	0	209.10	0	5.3900	0	33.7500	0	26.641	0	207.250	0	-1e10	8	-1e10	8	-1E+10	1	-1E+10	1	-1E+10	1	-1E+10	1	-1E+10	1	-1E+10	1
4902554	116	C	04/27/2024	00:52	-134.272	47.494	0	210.10	0	5.3650	0	33.7530	0	26.647	0	208.241	0	-1e10	8	-1e10	8	-1E+10	1	-1E+10	1	-1E+10	1	-1E+10	1	-1E+10	1	-1E+10	1
4902554	116	C	04/27/2024	00:52	-134.272	47.494	0	211.10	0	5.3620	0	33.7560	0	26.649	0	209.231	0	-1e10	8	-1e10	8	-1E+10	1	-1E+10	1	-1E+10	1	-1E+10	1	-1E+10	1	-1E+10	1
4902554	116	C	04/27/2024	00:52	-134.272	47.494	0	212.10	0	5.3600	0	33.7550	0	26.649	0	210.222	0	-1e10	8	-1e10	8	-1E+10	1	-1E+10	1	-1E+10	1	-1E+10	1	-1E+10	1	-1E+10	1
4902554	116	C	04/27/2024	00:52	-134.272	47.494	0	213.10	0	5.3580	0	33.7550	0	26.649	0	211.213	0	-1e10	8	-1e10	8	-1E+10	1	-1E+10	1	-1E+10	1	-1E+10	1	-1E+10	1	-1E+10	1
4902554	116	C	04/27/2024	00:52	-134.272	47.494	0	214.10	0	5.3560	0	33.7550	0	26.649	0	212.203	0	-1e10	8	-1e10	8	-1E+10	1	-1E+10	1	-1E+10	1	-1E+10	1	-1E+10	1	-1E+10	1
4902554	116	C	04/27/2024	00:52	-134.272	47.494	0	215.10	0	5.3550	0	33.7570	0	26.651	0	213.194	0	-1e10	8	-1e10	8	-1E+10	1	-1E+10	1	-1E+10	1	-1E+10	1	-1E+10	1	-1E+10	1
4902554	116	C	04/27/2024	00:52	-134.272	47.494	0	216.20	0	5.3630	0	33.7580	0	26.651	0	214.284	0	-1e10	8	-1e10	8	-1E+10	1	-1E+10	1	-1E+10	1	-1E+10	1	-1E+10	1	-1E+10	1
4902554	116	C	04/27/2024	00:52	-134.272	47.494	0	217.20	0	5.3460	0	33.7620	0	26.656	0	215.274	0	-1e10	8	-1e10	8	-1E+10	1	-1E+10	1	-1E+10	1	-1E+10	1	-1E+10	1	-1E+10	1
4902554	116	C	04/27/2024	00:52	-134.272	47.494	0	218.20	0	5.3350	0	33.7600	0	26.656	0	216.265	0	-1e10	8	-1e10	8	-1E+10	1	-1E+10	1	-1E+10	1	-1E+10	1	-1E+10	1	-1E+10	1
4902554	116	C	04/27/2024	00:52	-134.272	47.494	0	219.20	0	5.3040	0	33.7640	0	26.662	0	217.255	0	-1e10	8	-1e10	8	-1E+10	1	-1E+10	1	-1E+10	1	-1E+10	1	-1E+10	1	-1E+10	1
4902554	116	C	04/27/2024	00:52	-134.272	47.494	0	220.20	0	5.2860	0	33.7620	0	26.663	0	218.246	0	-1e10	8	-1e10	8	-1E+10	1	-1E+10	1	-1E+10	1	-1E+10	1	-1E+10	1	-1E+10	1
4902554	116	C	04/27/2024	00:52	-134.272	47.494	0	221.20	0	5.2800	0	33.7640	0	26.665	0	219.237	0	-1e10	8	-1e10	8	-1E+10	1	-1E+10	1	-1E+10	1	-1E+10	1	-1E+10	1	-1E+10	1
4902554	116	C	04/27/2024	00:52	-134.272	47.494	0	222.20	0	5.2700	0	33.7660	0	26.668	0	220.227	0	-1e10	8	-1e10	8	-1E+10	1	-1E+10	1	-1E+10	1	-1E+10	1	-1E+10	1	-1E+10	1
4902554	116	C	04/27/2024	00:52	-134.272	47.494	0	223.20	0	5.2470	0	33.7680	0	26.672	0	221.218	0	-1e10	8	-1e10	8	-1E+10	1	-1E+10	1	-1E+10	1	-1E+10	1	-1E+10	1	-1E+10	1
4902554	116	C	04/27/2024	00:52	-134.272	47.494	0	224.10	0	5.2370	0	33.7680	0	26.673	0	222.109	0	-1e10	8	-1e10	8	-1E+10	1	-1E+10	1	-1E+10	1	-1E+10	1	-1E+10	1	-1E+10	1
4902554	116	C	04/27/2024	00:52	-134.272	47.494	0	225.10	0	5.2290	0	33.7690	0	26.675	0	223.100	0	-1e10	8	-1e10	8	-1E+10	1	-1E+10	1	-1E+10	1	-1E+10	1	-1E+10	1	-1E+10	1
4902554	116	C	04/27/2024	00:52	-134.272	47.494	0	225.90	0	5.2220	0	33.7700	0	26.677	0	223.892	0	-1e10	8	-1e10	8	-1E+10	1	-1E+10	1	-1E+10	1	-1E+10	1	-1E+10	1	-1E+10	1
4902554	116	C	04/27/2024	00:52	-134.272	47.494	0	227.00	0	5.2290	0	33.7720	0	26.678	0	224.982	0	-1e10	8	-1e10	8	-1E+10	1	-1E+10	1	-1E+10	1	-1E+10	1	-1E+10	1	-1E+10	1
4902554	116	C	04/27/2024	00:52	-134.272	47.494	0	228.20	0	5.2450	0	33.7770	0	26.680	0	226.171	0	-1e10	8	-1e10	8	-1E+10	1	-1E+10	1	-1E+10	1	-1E+10	1	-1E+10	1	-1E+10	1
4902554	116	C	04/27/2024	00:52	-134.272	47.494	0	228.90	0	5.2450	0	33.7780	0	26.681	0	226.864	0	-1e10	8	-1e10	8	-1E+10	1	-1E+10	1	-1E+10	1	-1E+10	1	-1E+10	1	-1E+10	1
4902554	116	C	04/27/2024	00:52	-134.272	47.494	0	230.00	0	5.2260	0	33.7790	0	26.684	0	227.954	0	-1e10	8	-1e10	8	-1E+10	1	-1E+10	1	-1E+10	1	-1E+10	1	-1E+10	1	-1E+10	1
4902554	116	C	04/27/2024	00:52	-134.272	47.494	0	231.20	0	5.2160	0	33.7800	0	26.685	0	229.142	0	-1e10	8	-1e10	8	-1E+10	1	-1E+10	1	-1E+10	1	-1E+10	1	-1E+10	1	-1E+10	1
4902554	116	C	04/27/2024	00:52	-134.272	47.494	0	232.00	0	5.1850	0	33.7850	0	26.693	0	229.935	0	-1e10	8	-1e10	8	-1E+10	1	-1E+10	1	-1E+10	1	-1E+10	1	-1E+10	1	-1E+10	1
4902554	116	C	04/27/2024	00:52	-134.272	47.494	0	232.80	0	5.1770	0	33.7840	0	26.693	0	230.727	0	-1e10	8	-1e10	8	-1E+10	1	-1E+10	1	-1E+10	1	-1E+10	1	-1E+10	1	-1E+10	1
4902554	116	C	04/27/2024	00:52	-134.272	47.494	0	234.00	0	5.1730	0	33.7850	0	26.694	0	231.916	0	-1e10	8	-1e10	8	-1E+10	1	-1E+10	1	-1E+10	1	-1E+10	1	-1E+10	1	-1E+10	1
4902554	116	C	04/27/2024	00:52	-134.272	47.494	0	235.20	0	5.1730	0	33.7840	0	26.694	0	233.104	0	-1e10	8	-1e10	8	-1E+10	1	-1E+10	1	-1E+10	1	-1E+10	1	-1E+10	1	-1E+10	1
4902554	116	C	04/27/2024	00:52	-134.272	47.494	0	236.00	0	5.1710	0	33.7880	0	26.697	0	233.897	0	-1e10	8	-1e10	8	-1E+10	1	-1E+10	1	-1E+10	1	-1E+10	1	-1E+10	1	-1E+10	1
4902554	116	C	04/27/2024	00:52	-134.272	47.494	0	236.80	0	5.1690	0	33.7880	0	26.697	0	234.689	0	-1e10	8	-1e10	8	-1E+10	1	-1E+10	1	-1E+10	1	-1E+10	1	-1E+10	1	-1E+10	1
4902554	116	C	04/27/2024	00:52	-134.272	47.494	0	238.00	0	5.1650	0	33.7880	0	26.698	0	235.878	0	-1e10	8	-1e10	8	-1E+10	1	-1E+10	1	-1E+10	1	-1E+10	1	-1E+10	1	-1E+10	1
4902554	116	C	04/27/2024	00:52	-134.272	47.494	0	239.20	0	5.1650	0	33.7890	0	26.699	0	237.066	0	-1e10	8	-1e10	8	-1E+10	1	-1E+10	1	-1E+10	1	-1E+10	1	-1E+10	1	-1E+10	1
4902554	116	C	04/27/2024	00:52	-134.272	47.494	0	240.00	0	5.1590	0	33.7900	0	26.700	0	237.859	0	-1e10	8	-1e10	8	-1E+10	1	-1E+10	1	-1E+10	1	-1E+10	1	-1E+10	1	-1E+10	1
4902554	116	C	04/27/2024	00:52	-134.272	47.494	0	240.80	0	5.1490	0	33.7910	0	26.702	0	238.651	0	-1e10	8	-1e10	8	-1E+10	1	-1E+10	1	-1E+10	1	-1E+10	1	-1E+10	1	-1E+10	1
4902554	116	C	04/27/2024	00:52	-134.272	47.494	0	242.00	0	5.1390	0	33.7900	0	26.702	0	239.840	0	-1e10	8	-1e10	8	-1E+10	1	-1E+10	1	-1E+10	1	-1E+10	1	-1E+10	1	-1E+10	1
4902554	116	C	04/27/2024	00:52	-134.272	47.494	0	243.30	0	5.1290	0	33.7930	0	26.706	0	241.128	0	-1e10	8	-1e10	8	-1E+10	1	-1E+10	1	-1E+10	1	-1E+10	1	-1E+10	1	-1E+10	1
4902554	116	C	04/27/2024	00:52	-134.272	47.494	0	244.10	0	5.1170	0	33.7930	0	26.707	0	241.920	0	-1e10	8	-1e10	8	-1E+10	1	-1E+10	1	-1E+10	1	-1E+10	1	-1E+10	1	-1E+10	1
4902554	116	C	04/27/2024	00:52	-134.272	47.494	0	244.90	0	5.1070	0	33.7950	0	26.710	0	242.712	0	-1e10	8	-1e10	8	-1E+10	1	-1E+10	1	-1E+10	1	-1E+10	1	-1E+10	1	-1E+10	1
4902554	116	C	04/27/2024	00:52	-134.272	47.494	0	245.70	0	5.0950	0	33.7970	0	26.713	0	243.505	0	-1e10	8	-1e10	8	-1E+10	1	-1E+10	1	-1E+10	1	-1E+10	1	-1E+10	1	-1E+10	1
4902554	116	C	04/27/2024	00:52	-134.272	47.494	0	247.00	0	5.0800	0	33.7980	0	26.715	0	244.792	0	-1e10	8	-1e10	8	-1E+10	1	-1E+10	1	-1E+10	1	-1E+10	1	-1E+10	1	-1E+10	1
4902554	116	C	04/27/2024	00:52	-134.272	47.494	0	248.20	0	5.0710	0	33.7980	0	26.717	0	245.981	0	-1e10	8	-1e10	8	-1E+10	1	-1E+10	1	-1E+10	1	-1E+10	1	-1E+10	1	-1E+10	1
4902554	116	C	04/27/2024	00:52	-134.272	47.494	0	249.00	0	5.0580	0	33.7990	0	26.719	0	246.773	0	-1e10	8	-1e10	8	-1E+10	1	-1E+10	1	-1E+10	1	-1E+10	1	-1E+10	1	-1E+10	1
4902554	116	C	04/27/2024	00:52	-134.272	47.494	0	249.90	0	5.0510	0	33.8000	0	26.720	0	247.665	0	-1e10	8	-1e10	8	-1E+10	1	-1E+10	1	-1E+10	1	-1E+10	1	-1E+10	1	-1E+10	1
4902554	116	C	04/27/2024	00:52	-134.272	47.494	0	250.70	0	5.0320	0	33.8010	0	26.723	0	248.457	0	-1e10	8	-1e10	8	-1E+10	1	-1E+10	1	-1E+10	1	-1E+10	1	-1E+10	1	-1E+10	1
4902554	116	C	04/27/2024	00:52	-134.272	47.494	0	252.00	0	5.0280	0	33.8010	0	26.724	0	249.745	0	-1e10	8	-1e10	8	-1E+10	1	-1E+10	1	-1E+10	1	-1E+10	1	-1E+10	1	-1E+10	1
4902554	116	C	04/27/2024	00:52	-134.272	47.494	0	253.30	0	5.0070	0	33.8040	0	26.729	0	251.032	0	-1e10	8	-1e10	8	-1E+10	1	-1E+10	1	-1E+10	1	-1E+10	1	-1E+10	1	-1E+10	1
4902554	116	C	04/27/2024	00:52	-134.272	47.494	0	254.20	0	5.0030	0	33.8040	0	26.729	0	251.924	0	-1e10	8	-1e10	8	-1E+10	1	-1E+10	1	-1E+10	1	-1E+10	1	-1E+10	1	-1E+10	1
4902554	116	C	04/27/2024	00:52	-134.272	47.494	0	255.10	0	4.9960	0	33.8050	0	26.731	0	252.815	0	-1e10	8	-1e10	8	-1E+10	1	-1E+10	1	-1E+10	1	-1E+10	1	-1E+10	1	-1E+10	1
4902554	116	C	04/27/2024	00:52	-134.272	47.494	0	256.00	0	4.9840	0	33.8060	0	26.733	0	253.706	0	-1e10	8	-1e10	8	-1E+10	1	-1E+10	1	-1E+10	1	-1E+10	1	-1E+10	1	-1E+10	1
4902554	116	C	04/27/2024	00:52	-134.272	47.494	0	256.90	0	4.9770	0	33.8100	0	26.737	0	254.598	0	-1e10	8	-1e10	8	-1E+10	1	-1E+10	1	-1E+10	1	-1E+10	1	-1E+10	1	-1E+10	1
4902554	116	C	04/27/2024	00:52	-134.272	47.494	0	257.80	0	4.9730	0	33.8120	0	26.739	0	255.489	0	-1e10	8	-1e10	8	-1E+10	1	-1E+10	1	-1E+10	1	-1E+10	1	-1E+10	1	-1E+10	1
4902554	116	C	04/27/2024	00:52	-134.272	47.494	0	258.70	0	4.9720	0	33.8120	0	26.739	0	256.380	0	-1e10	8	-1e10	8	-1E+10	1	-1E+10	1	-1E+10	1	-1E+10	1	-1E+10	1	-1E+10	1
4902554	116	C	04/27/2024	00:52	-134.272	47.494	0	259.50	0	4.9710	0	33.8120	0	26.739	0	257.173	0	-1e10	8	-1e10	8	-1E+10	1	-1E+10	1	-1E+10	1	-1E+10	1	-1E+10	1	-1E+10	1
4902554	116	C	04/27/2024	00:52	-134.272	47.494	0	260.90	0	4.9690	0	33.8130	0	26.740	0	258.559	0	-1e10	8	-1e10	8	-1E+10	1	-1E+10	1	-1E+10	1	-1E+10	1	-1E+10	1	-1E+10	1
4902554	116	C	04/27/2024	00:52	-134.272	47.494	0	262.30	0	4.9680	0	33.8130	0	26.740	0	259.946	0	-1e10	8	-1e10	8	-1E+10	1	-1E+10	1	-1E+10	1	-1E+10	1	-1E+10	1	-1E+10	1
4902554	116	C	04/27/2024	00:52	-134.272	47.494	0	263.20	0	4.9660	0	33.8140	0	26.741	0	260.837	0	-1e10	8	-1e10	8	-1E+10	1	-1E+10	1	-1E+10	1	-1E+10	1	-1E+10	1	-1E+10	1
4902554	116	C	04/27/2024	00:52	-134.272	47.494	0	264.10	0	4.9630	0	33.8140	0	26.742	0	261.729	0	-1e10	8	-1e10	8	-1E+10	1	-1E+10	1	-1E+10	1	-1E+10	1	-1E+10	1	-1E+10	1
4902554	116	C	04/27/2024	00:52	-134.272	47.494	0	265.10	0	4.9600	0	33.8150	0	26.743	0	262.719	0	-1e10	8	-1e10	8	-1E+10	1	-1E+10	1	-1E+10	1	-1E+10	1	-1E+10	1	-1E+10	1
4902554	116	C	04/27/2024	00:52	-134.272	47.494	0	266.00	0	4.9580	0	33.8160	0	26.744	0	263.610	0	-1e10	8	-1e10	8	-1E+10	1	-1E+10	1	-1E+10	1	-1E+10	1	-1E+10	1	-1E+10	1
4902554	116	C	04/27/2024	00:52	-134.272	47.494	0	266.90	0	4.9560	0	33.8170	0	26.745	0	264.502	0	-1e10	8	-1e10	8	-1E+10	1	-1E+10	1	-1E+10	1	-1E+10	1	-1E+10	1	-1E+10	1
4902554	116	C	04/27/2024	00:52	-134.272	47.494	0	267.90	0	4.9540	0	33.8180	0	26.746	0	265.492	0	-1e10	8	-1e10	8	-1E+10	1	-1E+10	1	-1E+10	1	-1E+10	1	-1E+10	1	-1E+10	1
4902554	116	C	04/27/2024	00:52	-134.272	47.494	0	268.80	0	4.9500	0	33.8180	0	26.746	0	266.383	0	-1e10	8	-1e10	8	-1E+10	1	-1E+10	1	-1E+10	1	-1E+10	1	-1E+10	1	-1E+10	1
4902554	116	C	04/27/2024	00:52	-134.272	47.494	0	269.80	0	4.9390	0	33.8190	0	26.748	0	267.374	0	-1e10	8	-1e10	8	-1E+10	1	-1E+10	1	-1E+10	1	-1E+10	1	-1E+10	1	-1E+10	1
4902554	116	C	04/27/2024	00:52	-134.272	47.494	0	270.70	0	4.9310	0	33.8270	0	26.756	0	268.265	0	-1e10	8	-1e10	8	-1E+10	1	-1E+10	1	-1E+10	1	-1E+10	1	-1E+10	1	-1E+10	1
4902554	116	C	04/27/2024	00:52	-134.272	47.494	0	271.70	0	4.9310	0	33.8270	0	26.756	0	269.255	0	-1e10	8	-1e10	8	-1E+10	1	-1E+10	1	-1E+10	1	-1E+10	1	-1E+10	1	-1E+10	1
4902554	116	C	04/27/2024	00:52	-134.272	47.494	0	272.60	0	4.9320	0	33.8280	0	26.756	0	270.147	0	-1e10	8	-1e10	8	-1E+10	1	-1E+10	1	-1E+10	1	-1E+10	1	-1E+10	1	-1E+10	1
4902554	116	C	04/27/2024	00:52	-134.272	47.494	0	273.60	0	4.9330	0	33.8300	0	26.758	0	271.137	0	-1e10	8	-1e10	8	-1E+10	1	-1E+10	1	-1E+10	1	-1E+10	1	-1E+10	1	-1E+10	1
4902554	116	C	04/27/2024	00:52	-134.272	47.494	0	274.60	0	4.9400	0	33.8300	0	26.757	0	272.127	0	-1e10	8	-1e10	8	-1E+10	1	-1E+10	1	-1E+10	1	-1E+10	1	-1E+10	1	-1E+10	1
4902554	116	C	04/27/2024	00:52	-134.272	47.494	0	275.50	0	4.9390	0	33.8300	0	26.757	0	273.019	0	-1e10	8	-1e10	8	-1E+10	1	-1E+10	1	-1E+10	1	-1E+10	1	-1E+10	1	-1E+10	1
4902554	116	C	04/27/2024	00:52	-134.272	47.494	0	276.50	0	4.9250	0	33.8300	0	26.759	0	274.009	0	-1e10	8	-1e10	8	-1E+10	1	-1E+10	1	-1E+10	1	-1E+10	1	-1E+10	1	-1E+10	1
4902554	116	C	04/27/2024	00:52	-134.272	47.494	0	277.50	0	4.9190	0	33.8300	0	26.759	0	274.999	0	-1e10	8	-1e10	8	-1E+10	1	-1E+10	1	-1E+10	1	-1E+10	1	-1E+10	1	-1E+10	1
4902554	116	C	04/27/2024	00:52	-134.272	47.494	0	278.90	0	4.9030	0	33.8320	0	26.763	0	276.386	0	-1e10	8	-1e10	8	-1E+10	1	-1E+10	1	-1E+10	1	-1E+10	1	-1E+10	1	-1E+10	1
4902554	116	C	04/27/2024	00:52	-134.272	47.494	0	280.40	0	4.8960	0	33.8320	0	26.764	0	277.871	0	-1e10	8	-1e10	8	-1E+10	1	-1E+10	1	-1E+10	1	-1E+10	1	-1E+10	1	-1E+10	1
4902554	116	C	04/27/2024	00:52	-134.272	47.494	0	281.40	0	4.8930	0	33.8340	0	26.765	0	278.862	0	-1e10	8	-1e10	8	-1E+10	1	-1E+10	1	-1E+10	1	-1E+10	1	-1E+10	1	-1E+10	1
4902554	116	C	04/27/2024	00:52	-134.272	47.494	0	282.40	0	4.9050	0	33.8360	0	26.766	0	279.852	0	-1e10	8	-1e10	8	-1E+10	1	-1E+10	1	-1E+10	1	-1E+10	1	-1E+10	1	-1E+10	1
4902554	116	C	04/27/2024	00:52	-134.272	47.494	0	283.30	0	4.9010	0	33.8400	0	26.769	0	280.743	0	-1e10	8	-1e10	8	-1E+10	1	-1E+10	1	-1E+10	1	-1E+10	1	-1E+10	1	-1E+10	1
4902554	116	C	04/27/2024	00:52	-134.272	47.494	0	284.30	0	4.8970	0	33.8410	0	26.771	0	281.734	0	-1e10	8	-1e10	8	-1E+10	1	-1E+10	1	-1E+10	1	-1E+10	1	-1E+10	1	-1E+10	1
4902554	116	C	04/27/2024	00:52	-134.272	47.494	0	285.30	0	4.8960	0	33.8420	0	26.772	0	282.724	0	-1e10	8	-1e10	8	-1E+10	1	-1E+10	1	-1E+10	1	-1E+10	1	-1E+10	1	-1E+10	1
4902554	116	C	04/27/2024	00:52	-134.272	47.494	0	286.30	0	4.8890	0	33.8420	0	26.772	0	283.714	0	-1e10	8	-1e10	8	-1E+10	1	-1E+10	1	-1E+10	1	-1E+10	1	-1E+10	1	-1E+10	1
4902554	116	C	04/27/2024	00:52	-134.272	47.494	0	287.30	0	4.8940	0	33.8480	0	26.777	0	284.704	0	-1e10	8	-1e10	8	-1E+10	1	-1E+10	1	-1E+10	1	-1E+10	1	-1E+10	1	-1E+10	1
4902554	116	C	04/27/2024	00:52	-134.272	47.494	0	288.20	0	4.8930	0	33.8490	0	26.777	0	285.596	0	-1e10	8	-1e10	8	-1E+10	1	-1E+10	1	-1E+10	1	-1E+10	1	-1E+10	1	-1E+10	1
4902554	116	C	04/27/2024	00:52	-134.272	47.494	0	289.20	0	4.8890	0	33.8490	0	26.778	0	286.586	0	-1e10	8	-1e10	8	-1E+10	1	-1E+10	1	-1E+10	1	-1E+10	1	-1E+10	1	-1E+10	1
4902554	116	C	04/27/2024	00:52	-134.272	47.494	0	290.10	0	4.8860	0	33.8470	0	26.777	0	287.477	0	-1e10	8	-1e10	8	-1E+10	1	-1E+10	1	-1E+10	1	-1E+10	1	-1E+10	1	-1E+10	1
4902554	116	C	04/27/2024	00:52	-134.272	47.494	0	291.10	0	4.8820	0	33.8470	0	26.777	0	288.467	0	-1e10	8	-1e10	8	-1E+10	1	-1E+10	1	-1E+10	1	-1E+10	1	-1E+10	1	-1E+10	1
4902554	116	C	04/27/2024	00:52	-134.272	47.494	0	292.10	0	4.8650	0	33.8460	0	26.778	0	289.458	0	-1e10	8	-1e10	8	-1E+10	1	-1E+10	1	-1E+10	1	-1E+10	1	-1E+10	1	-1E+10	1
4902554	116	C	04/27/2024	00:52	-134.272	47.494	0	293.10	0	4.8550	0	33.8480	0	26.781	0	290.448	0	-1e10	8	-1e10	8	-1E+10	1	-1E+10	1	-1E+10	1	-1E+10	1	-1E+10	1	-1E+10	1
4902554	116	C	04/27/2024	00:52	-134.272	47.494	0	294.10	0	4.8420	0	33.8520	0	26.786	0	291.438	0	-1e10	8	-1e10	8	-1E+10	1	-1E+10	1	-1E+10	1	-1E+10	1	-1E+10	1	-1E+10	1
4902554	116	C	04/27/2024	00:52	-134.272	47.494	0	295.00	0	4.8300	0	33.8550	0	26.789	0	292.329	0	-1e10	8	-1e10	8	-1E+10	1	-1E+10	1	-1E+10	1	-1E+10	1	-1E+10	1	-1E+10	1
4902554	116	C	04/27/2024	00:52	-134.272	47.494	0	296.00	0	4.8260	0	33.8560	0	26.791	0	293.320	0	-1e10	8	-1e10	8	-1E+10	1	-1E+10	1	-1E+10	1	-1E+10	1	-1E+10	1	-1E+10	1
4902554	116	C	04/27/2024	00:52	-134.272	47.494	0	297.00	0	4.8250	0	33.8560	0	26.791	0	294.310	0	-1e10	8	-1e10	8	-1E+10	1	-1E+10	1	-1E+10	1	-1E+10	1	-1E+10	1	-1E+10	1
4902554	116	C	04/27/2024	00:52	-134.272	47.494	0	298.00	0	4.8220	0	33.8570	0	26.792	0	295.300	0	-1e10	8	-1e10	8	-1E+10	1	-1E+10	1	-1E+10	1	-1E+10	1	-1E+10	1	-1E+10	1
4902554	116	C	04/27/2024	00:52	-134.272	47.494	0	298.90	0	4.8180	0	33.8590	0	26.794	0	296.191	0	-1e10	8	-1e10	8	-1E+10	1	-1E+10	1	-1E+10	1	-1E+10	1	-1E+10	1	-1E+10	1
4902554	116	C	04/27/2024	00:52	-134.272	47.494	0	299.90	0	4.8160	0	33.8590	0	26.794	0	297.181	0	-1e10	8	-1e10	8	-1E+10	1	-1E+10	1	-1E+10	1	-1E+10	1	-1E+10	1	-1E+10	1
4902554	116	C	04/27/2024	00:52	-134.272	47.494	0	300.90	0	4.8130	0	33.8590	0	26.794	0	298.172	0	-1e10	8	-1e10	8	-1E+10	1	-1E+10	1	-1E+10	1	-1E+10	1	-1E+10	1	-1E+10	1
4902554	116	C	04/27/2024	00:52	-134.272	47.494	0	301.80	0	4.8090	0	33.8600	0	26.796	0	299.063	0	-1e10	8	-1e10	8	-1E+10	1	-1E+10	1	-1E+10	1	-1E+10	1	-1E+10	1	-1E+10	1
4902554	116	C	04/27/2024	00:52	-134.272	47.494	0	302.80	0	4.8070	0	33.8600	0	26.796	0	300.053	0	-1e10	8	-1e10	8	-1E+10	1	-1E+10	1	-1E+10	1	-1E+10	1	-1E+10	1	-1E+10	1
4902554	116	C	04/27/2024	00:52	-134.272	47.494	0	303.80	0	4.8060	0	33.8600	0	26.796	0	301.043	0	-1e10	8	-1e10	8	-1E+10	1	-1E+10	1	-1E+10	1	-1E+10	1	-1E+10	1	-1E+10	1
4902554	116	C	04/27/2024	00:52	-134.272	47.494	0	304.70	0	4.8020	0	33.8610	0	26.797	0	301.934	0	-1e10	8	-1e10	8	-1E+10	1	-1E+10	1	-1E+10	1	-1E+10	1	-1E+10	1	-1E+10	1
4902554	116	C	04/27/2024	00:52	-134.272	47.494	0	305.70	0	4.8000	0	33.8610	0	26.797	0	302.925	0	-1e10	8	-1e10	8	-1E+10	1	-1E+10	1	-1E+10	1	-1E+10	1	-1E+10	1	-1E+10	1
4902554	116	C	04/27/2024	00:52	-134.272	47.494	0	306.70	0	4.7980	0	33.8620	0	26.798	0	303.915	0	-1e10	8	-1e10	8	-1E+10	1	-1E+10	1	-1E+10	1	-1E+10	1	-1E+10	1	-1E+10	1
4902554	116	C	04/27/2024	00:52	-134.272	47.494	0	307.60	0	4.7930	0	33.8630	0	26.800	0	304.806	0	-1e10	8	-1e10	8	-1E+10	1	-1E+10	1	-1E+10	1	-1E+10	1	-1E+10	1	-1E+10	1
4902554	116	C	04/27/2024	00:52	-134.272	47.494	0	308.60	0	4.7850	0	33.8660	0	26.803	0	305.796	0	-1e10	8	-1e10	8	-1E+10	1	-1E+10	1	-1E+10	1	-1E+10	1	-1E+10	1	-1E+10	1
4902554	116	C	04/27/2024	00:52	-134.272	47.494	0	309.50	0	4.7850	0	33.8660	0	26.803	0	306.687	0	-1e10	8	-1e10	8	-1E+10	1	-1E+10	1	-1E+10	1	-1E+10	1	-1E+10	1	-1E+10	1
4902554	116	C	04/27/2024	00:52	-134.272	47.494	0	310.50	0	4.7850	0	33.8660	0	26.803	0	307.678	0	-1e10	8	-1e10	8	-1E+10	1	-1E+10	1	-1E+10	1	-1E+10	1	-1E+10	1	-1E+10	1
4902554	116	C	04/27/2024	00:52	-134.272	47.494	0	311.90	0	4.7840	0	33.8660	0	26.803	0	309.064	0	-1e10	8	-1e10	8	-1E+10	1	-1E+10	1	-1E+10	1	-1E+10	1	-1E+10	1	-1E+10	1
4902554	116	C	04/27/2024	00:52	-134.272	47.494	0	313.30	0	4.7840	0	33.8660	0	26.803	0	310.450	0	-1e10	8	-1e10	8	-1E+10	1	-1E+10	1	-1E+10	1	-1E+10	1	-1E+10	1	-1E+10	1
4902554	116	C	04/27/2024	00:52	-134.272	47.494	0	314.30	0	4.7860	0	33.8650	0	26.802	0	311.440	0	-1e10	8	-1e10	8	-1E+10	1	-1E+10	1	-1E+10	1	-1E+10	1	-1E+10	1	-1E+10	1
4902554	116	C	04/27/2024	00:52	-134.272	47.494	0	315.20	0	4.7850	0	33.8660	0	26.803	0	312.331	0	-1e10	8	-1e10	8	-1E+10	1	-1E+10	1	-1E+10	1	-1E+10	1	-1E+10	1	-1E+10	1
4902554	116	C	04/27/2024	00:52	-134.272	47.494	0	316.20	0	4.7690	0	33.8710	0	26.809	0	313.321	0	-1e10	8	-1e10	8	-1E+10	1	-1E+10	1	-1E+10	1	-1E+10	1	-1E+10	1	-1E+10	1
4902554	116	C	04/27/2024	00:52	-134.272	47.494	0	317.10	0	4.7610	0	33.8720	0	26.811	0	314.213	0	-1e10	8	-1e10	8	-1E+10	1	-1E+10	1	-1E+10	1	-1E+10	1	-1E+10	1	-1E+10	1
4902554	116	C	04/27/2024	00:52	-134.272	47.494	0	318.00	0	4.7530	0	33.8720	0	26.812	0	315.104	0	-1e10	8	-1e10	8	-1E+10	1	-1E+10	1	-1E+10	1	-1E+10	1	-1E+10	1	-1E+10	1
4902554	116	C	04/27/2024	00:52	-134.272	47.494	0	319.00	0	4.7460	0	33.8730	0	26.813	0	316.094	0	-1e10	8	-1e10	8	-1E+10	1	-1E+10	1	-1E+10	1	-1E+10	1	-1E+10	1	-1E+10	1
4902554	116	C	04/27/2024	00:52	-134.272	47.494	0	319.90	0	4.7280	0	33.8730	0	26.815	0	316.985	0	-1e10	8	-1e10	8	-1E+10	1	-1E+10	1	-1E+10	1	-1E+10	1	-1E+10	1	-1E+10	1
4902554	116	C	04/27/2024	00:52	-134.272	47.494	0	320.90	0	4.7270	0	33.8730	0	26.815	0	317.975	0	-1e10	8	-1e10	8	-1E+10	1	-1E+10	1	-1E+10	1	-1E+10	1	-1E+10	1	-1E+10	1
4902554	116	C	04/27/2024	00:52	-134.272	47.494	0	321.80	0	4.7190	0	33.8730	0	26.816	0	318.866	0	-1e10	8	-1e10	8	-1E+10	1	-1E+10	1	-1E+10	1	-1E+10	1	-1E+10	1	-1E+10	1
4902554	116	C	04/27/2024	00:52	-134.272	47.494	0	322.80	0	4.7020	0	33.8740	0	26.819	0	319.856	0	-1e10	8	-1e10	8	-1E+10	1	-1E+10	1	-1E+10	1	-1E+10	1	-1E+10	1	-1E+10	1
4902554	116	C	04/27/2024	00:52	-134.272	47.494	0	323.70	0	4.6940	0	33.8750	0	26.820	0	320.747	0	-1e10	8	-1e10	8	-1E+10	1	-1E+10	1	-1E+10	1	-1E+10	1	-1E+10	1	-1E+10	1
4902554	116	C	04/27/2024	00:52	-134.272	47.494	0	324.60	0	4.6900	0	33.8750	0	26.821	0	321.638	0	-1e10	8	-1e10	8	-1E+10	1	-1E+10	1	-1E+10	1	-1E+10	1	-1E+10	1	-1E+10	1
4902554	116	C	04/27/2024	00:52	-134.272	47.494	0	325.60	0	4.6840	0	33.8750	0	26.822	0	322.629	0	-1e10	8	-1e10	8	-1E+10	1	-1E+10	1	-1E+10	1	-1E+10	1	-1E+10	1	-1E+10	1
4902554	116	C	04/27/2024	00:52	-134.272	47.494	0	326.60	0	4.6740	0	33.8750	0	26.823	0	323.619	0	-1e10	8	-1e10	8	-1E+10	1	-1E+10	1	-1E+10	1	-1E+10	1	-1E+10	1	-1E+10	1
4902554	116	C	04/27/2024	00:52	-134.272	47.494	0	327.50	0	4.6720	0	33.8750	0	26.823	0	324.510	0	-1e10	8	-1e10	8	-1E+10	1	-1E+10	1	-1E+10	1	-1E+10	1	-1E+10	1	-1E+10	1
4902554	116	C	04/27/2024	00:52	-134.272	47.494	0	328.50	0	4.6690	0	33.8750	0	26.823	0	325.500	0	-1e10	8	-1e10	8	-1E+10	1	-1E+10	1	-1E+10	1	-1E+10	1	-1E+10	1	-1E+10	1
4902554	116	C	04/27/2024	00:52	-134.272	47.494	0	329.90	0	4.6600	0	33.8750	0	26.824	0	326.886	0	-1e10	8	-1e10	8	-1E+10	1	-1E+10	1	-1E+10	1	-1E+10	1	-1E+10	1	-1E+10	1
4902554	116	C	04/27/2024	00:52	-134.272	47.494	0	331.40	0	4.6580	0	33.8770	0	26.826	0	328.371	0	-1e10	8	-1e10	8	-1E+10	1	-1E+10	1	-1E+10	1	-1E+10	1	-1E+10	1	-1E+10	1
4902554	116	C	04/27/2024	00:52	-134.272	47.494	0	332.30	0	4.6470	0	33.8770	0	26.827	0	329.262	0	-1e10	8	-1e10	8	-1E+10	1	-1E+10	1	-1E+10	1	-1E+10	1	-1E+10	1	-1E+10	1
4902554	116	C	04/27/2024	00:52	-134.272	47.494	0	333.30	0	4.6450	0	33.8790	0	26.829	0	330.252	0	-1e10	8	-1e10	8	-1E+10	1	-1E+10	1	-1E+10	1	-1E+10	1	-1E+10	1	-1E+10	1
4902554	116	C	04/27/2024	00:52	-134.272	47.494	0	334.30	0	4.6330	0	33.8790	0	26.830	0	331.242	0	-1e10	8	-1e10	8	-1E+10	1	-1E+10	1	-1E+10	1	-1E+10	1	-1E+10	1	-1E+10	1
4902554	116	C	04/27/2024	00:52	-134.272	47.494	0	335.30	0	4.6150	0	33.8770	0	26.831	0	332.232	0	-1e10	8	-1e10	8	-1E+10	1	-1E+10	1	-1E+10	1	-1E+10	1	-1E+10	1	-1E+10	1
4902554	116	C	04/27/2024	00:52	-134.272	47.494	0	336.20	0	4.6070	0	33.8800	0	26.834	0	333.123	0	-1e10	8	-1e10	8	-1E+10	1	-1E+10	1	-1E+10	1	-1E+10	1	-1E+10	1	-1E+10	1
4902554	116	C	04/27/2024	00:52	-134.272	47.494	0	337.20	0	4.5990	0	33.8790	0	26.834	0	334.113	0	-1e10	8	-1e10	8	-1E+10	1	-1E+10	1	-1E+10	1	-1E+10	1	-1E+10	1	-1E+10	1
4902554	116	C	04/27/2024	00:52	-134.272	47.494	0	338.20	0	4.5950	0	33.8790	0	26.835	0	335.103	0	-1e10	8	-1e10	8	-1E+10	1	-1E+10	1	-1E+10	1	-1E+10	1	-1E+10	1	-1E+10	1
4902554	116	C	04/27/2024	00:52	-134.272	47.494	0	339.20	0	4.5880	0	33.8810	0	26.837	0	336.093	0	-1e10	8	-1e10	8	-1E+10	1	-1E+10	1	-1E+10	1	-1E+10	1	-1E+10	1	-1E+10	1
4902554	116	C	04/27/2024	00:52	-134.272	47.494	0	340.20	0	4.5820	0	33.8820	0	26.838	0	337.083	0	-1e10	8	-1e10	8	-1E+10	1	-1E+10	1	-1E+10	1	-1E+10	1	-1E+10	1	-1E+10	1
4902554	116	C	04/27/2024	00:52	-134.272	47.494	0	341.20	0	4.5770	0	33.8820	0	26.839	0	338.073	0	-1e10	8	-1e10	8	-1E+10	1	-1E+10	1	-1E+10	1	-1E+10	1	-1E+10	1	-1E+10	1
4902554	116	C	04/27/2024	00:52	-134.272	47.494	0	342.10	0	4.5670	0	33.8850	0	26.842	0	338.964	0	-1e10	8	-1e10	8	-1E+10	1	-1E+10	1	-1E+10	1	-1E+10	1	-1E+10	1	-1E+10	1
4902554	116	C	04/27/2024	00:52	-134.272	47.494	0	343.20	0	4.5650	0	33.8860	0	26.843	0	340.053	0	-1e10	8	-1e10	8	-1E+10	1	-1E+10	1	-1E+10	1	-1E+10	1	-1E+10	1	-1E+10	1
4902554	116	C	04/27/2024	00:52	-134.272	47.494	0	344.20	0	4.5640	0	33.8870	0	26.844	0	341.043	0	-1e10	8	-1e10	8	-1E+10	1	-1E+10	1	-1E+10	1	-1E+10	1	-1E+10	1	-1E+10	1
4902554	116	C	04/27/2024	00:52	-134.272	47.494	0	345.20	0	4.5600	0	33.8870	0	26.845	0	342.033	0	-1e10	8	-1e10	8	-1E+10	1	-1E+10	1	-1E+10	1	-1E+10	1	-1E+10	1	-1E+10	1
4902554	116	C	04/27/2024	00:52	-134.272	47.494	0	346.20	0	4.5570	0	33.8870	0	26.845	0	343.023	0	-1e10	8	-1e10	8	-1E+10	1	-1E+10	1	-1E+10	1	-1E+10	1	-1E+10	1	-1E+10	1
4902554	116	C	04/27/2024	00:52	-134.272	47.494	0	347.20	0	4.5550	0	33.8870	0	26.845	0	344.013	0	-1e10	8	-1e10	8	-1E+10	1	-1E+10	1	-1E+10	1	-1E+10	1	-1E+10	1	-1E+10	1
4902554	116	C	04/27/2024	00:52	-134.272	47.494	0	348.30	0	4.5550	0	33.8880	0	26.846	0	345.102	0	-1e10	8	-1e10	8	-1E+10	1	-1E+10	1	-1E+10	1	-1E+10	1	-1E+10	1	-1E+10	1
4902554	116	C	04/27/2024	00:52	-134.272	47.494	0	349.30	0	4.5520	0	33.8890	0	26.847	0	346.092	0	-1e10	8	-1e10	8	-1E+10	1	-1E+10	1	-1E+10	1	-1E+10	1	-1E+10	1	-1E+10	1
4902554	116	C	04/27/2024	00:52	-134.272	47.494	0	350.30	0	4.5480	0	33.8900	0	26.848	0	347.082	0	-1e10	8	-1e10	8	-1E+10	1	-1E+10	1	-1E+10	1	-1E+10	1	-1E+10	1	-1E+10	1
4902554	116	C	04/27/2024	00:52	-134.272	47.494	0	352.90	0	4.5390	0	33.8920	0	26.851	0	349.656	0	-1e10	8	-1e10	8	-1E+10	1	-1E+10	1	-1E+10	1	-1E+10	1	-1E+10	1	-1E+10	1
4902554	116	C	04/27/2024	00:52	-134.272	47.494	0	357.50	0	4.5100	0	33.8950	0	26.857	0	354.210	0	-1e10	8	-1e10	8	-1E+10	1	-1E+10	1	-1E+10	1	-1E+10	1	-1E+10	1	-1E+10	1
4902554	116	C	04/27/2024	00:52	-134.272	47.494	0	362.80	0	4.4900	0	33.9010	0	26.864	0	359.457	0	-1e10	8	-1e10	8	-1E+10	1	-1E+10	1	-1E+10	1	-1E+10	1	-1E+10	1	-1E+10	1
4902554	116	C	04/27/2024	00:52	-134.272	47.494	0	368.00	0	4.4630	0	33.9090	0	26.873	0	364.604	0	-1e10	8	-1e10	8	-1E+10	1	-1E+10	1	-1E+10	1	-1E+10	1	-1E+10	1	-1E+10	1
4902554	116	C	04/27/2024	00:52	-134.272	47.494	0	373.20	0	4.4360	0	33.9130	0	26.879	0	369.752	0	-1e10	8	-1e10	8	-1E+10	1	-1E+10	1	-1E+10	1	-1E+10	1	-1E+10	1	-1E+10	1
4902554	116	C	04/27/2024	00:52	-134.272	47.494	0	377.90	0	4.4030	0	33.9190	0	26.887	0	374.404	0	-1e10	8	-1e10	8	-1E+10	1	-1E+10	1	-1E+10	1	-1E+10	1	-1E+10	1	-1E+10	1
4902554	116	C	04/27/2024	00:52	-134.272	47.494	0	382.60	0	4.3820	0	33.9240	0	26.893	0	379.056	0	-1e10	8	-1e10	8	-1E+10	1	-1E+10	1	-1E+10	1	-1E+10	1	-1E+10	1	-1E+10	1
4902554	116	C	04/27/2024	00:52	-134.272	47.494	0	387.80	0	4.3500	0	33.9270	0	26.899	0	384.203	0	-1e10	8	-1e10	8	-1E+10	1	-1E+10	1	-1E+10	1	-1E+10	1	-1E+10	1	-1E+10	1
4902554	116	C	04/27/2024	00:52	-134.272	47.494	0	393.10	0	4.3380	0	33.9290	0	26.902	0	389.449	0	-1e10	8	-1e10	8	-1E+10	1	-1E+10	1	-1E+10	1	-1E+10	1	-1E+10	1	-1E+10	1
4902554	116	C	04/27/2024	00:52	-134.272	47.494	0	397.80	0	4.3260	0	33.9320	0	26.906	0	394.101	0	-1e10	8	-1e10	8	-1E+10	1	-1E+10	1	-1E+10	1	-1E+10	1	-1E+10	1	-1E+10	1
4902554	116	C	04/27/2024	00:52	-134.272	47.494	0	402.50	0	4.3010	0	33.9390	0	26.914	0	398.753	0	-1e10	8	-1e10	8	-1E+10	1	-1E+10	1	-1E+10	1	-1E+10	1	-1E+10	1	-1E+10	1
4902554	116	C	04/27/2024	00:52	-134.272	47.494	0	407.80	0	4.2800	0	33.9470	0	26.923	0	403.998	0	-1e10	8	-1e10	8	-1E+10	1	-1E+10	1	-1E+10	1	-1E+10	1	-1E+10	1	-1E+10	1
4902554	116	C	04/27/2024	00:52	-134.272	47.494	0	413.00	0	4.2650	0	33.9530	0	26.929	0	409.145	0	-1e10	8	-1e10	8	-1E+10	1	-1E+10	1	-1E+10	1	-1E+10	1	-1E+10	1	-1E+10	1
4902554	116	C	04/27/2024	00:52	-134.272	47.494	0	418.20	0	4.2460	0	33.9590	0	26.936	0	414.291	0	-1e10	8	-1e10	8	-1E+10	1	-1E+10	1	-1E+10	1	-1E+10	1	-1E+10	1	-1E+10	1
4902554	116	C	04/27/2024	00:52	-134.272	47.494	0	422.90	0	4.2310	0	33.9640	0	26.941	0	418.942	0	-1e10	8	-1e10	8	-1E+10	1	-1E+10	1	-1E+10	1	-1E+10	1	-1E+10	1	-1E+10	1
4902554	116	C	04/27/2024	00:52	-134.272	47.494	0	427.70	0	4.2190	0	33.9690	0	26.947	0	423.692	0	-1e10	8	-1e10	8	-1E+10	1	-1E+10	1	-1E+10	1	-1E+10	1	-1E+10	1	-1E+10	1
4902554	116	C	04/27/2024	00:52	-134.272	47.494	0	433.20	0	4.2060	0	33.9750	0	26.953	0	429.135	0	-1e10	8	-1e10	8	-1E+10	1	-1E+10	1	-1E+10	1	-1E+10	1	-1E+10	1	-1E+10	1
4902554	116	C	04/27/2024	00:52	-134.272	47.494	0	438.10	0	4.1940	0	33.9820	0	26.960	0	433.984	0	-1e10	8	-1e10	8	-1E+10	1	-1E+10	1	-1E+10	1	-1E+10	1	-1E+10	1	-1E+10	1
4902554	116	C	04/27/2024	00:52	-134.272	47.494	0	442.90	0	4.1990	0	33.9920	0	26.967	0	438.734	0	-1e10	8	-1e10	8	-1E+10	1	-1E+10	1	-1E+10	1	-1E+10	1	-1E+10	1	-1E+10	1
4902554	116	C	04/27/2024	00:52	-134.272	47.494	0	447.70	0	4.1950	0	34.0010	0	26.975	0	443.484	0	-1e10	8	-1e10	8	-1E+10	1	-1E+10	1	-1E+10	1	-1E+10	1	-1E+10	1	-1E+10	1
4902554	116	C	04/27/2024	00:52	-134.272	47.494	0	452.50	0	4.1970	0	34.0100	0	26.982	0	448.233	0	-1e10	8	-1e10	8	-1E+10	1	-1E+10	1	-1E+10	1	-1E+10	1	-1E+10	1	-1E+10	1
4902554	116	C	04/27/2024	00:52	-134.272	47.494	0	457.90	0	4.2090	0	34.0230	0	26.991	0	453.577	0	-1e10	8	-1e10	8	-1E+10	1	-1E+10	1	-1E+10	1	-1E+10	1	-1E+10	1	-1E+10	1
4902554	116	C	04/27/2024	00:52	-134.272	47.494	0	462.90	0	4.2150	0	34.0300	0	26.996	0	458.524	0	-1e10	8	-1e10	8	-1E+10	1	-1E+10	1	-1E+10	1	-1E+10	1	-1E+10	1	-1E+10	1
4902554	116	C	04/27/2024	00:52	-134.272	47.494	0	467.60	0	4.2140	0	34.0360	0	27.001	0	463.174	0	-1e10	8	-1e10	8	-1E+10	1	-1E+10	1	-1E+10	1	-1E+10	1	-1E+10	1	-1E+10	1
4902554	116	C	04/27/2024	00:52	-134.272	47.494	0	472.70	0	4.2080	0	34.0390	0	27.004	0	468.220	0	-1e10	8	-1e10	8	-1E+10	1	-1E+10	1	-1E+10	1	-1E+10	1	-1E+10	1	-1E+10	1
4902554	116	C	04/27/2024	00:52	-134.272	47.494	0	477.90	0	4.1710	0	34.0410	0	27.009	0	473.365	0	-1e10	8	-1e10	8	-1E+10	1	-1E+10	1	-1E+10	1	-1E+10	1	-1E+10	1	-1E+10	1
4902554	116	C	04/27/2024	00:52	-134.272	47.494	0	482.80	0	4.1550	0	34.0470	0	27.016	0	478.213	0	-1e10	8	-1e10	8	-1E+10	1	-1E+10	1	-1E+10	1	-1E+10	1	-1E+10	1	-1E+10	1
4902554	116	C	04/27/2024	00:52	-134.272	47.494	0	487.70	0	4.1630	0	34.0540	0	27.021	0	483.061	0	-1e10	8	-1e10	8	-1E+10	1	-1E+10	1	-1E+10	1	-1E+10	1	-1E+10	1	-1E+10	1
4902554	116	C	04/27/2024	00:52	-134.272	47.494	0	492.80	0	4.1680	0	34.0570	0	27.022	0	488.106	0	-1e10	8	-1e10	8	-1E+10	1	-1E+10	1	-1E+10	1	-1E+10	1	-1E+10	1	-1E+10	1
4902554	116	C	04/27/2024	00:52	-134.272	47.494	0	497.80	0	4.1660	0	34.0620	0	27.027	0	493.052	0	-1e10	8	-1e10	8	-1E+10	1	-1E+10	1	-1E+10	1	-1E+10	1	-1E+10	1	-1E+10	1
4902554	116	C	04/27/2024	00:52	-134.272	47.494	0	503.00	0	4.1570	0	34.0660	0	27.031	0	498.197	0	-1e10	8	-1e10	8	-1E+10	1	-1E+10	1	-1E+10	1	-1E+10	1	-1E+10	1	-1E+10	1
4902554	116	C	04/27/2024	00:52	-134.272	47.494	0	507.90	0	4.1480	0	34.0710	0	27.036	0	503.044	0	-1e10	8	-1e10	8	-1E+10	1	-1E+10	1	-1E+10	1	-1E+10	1	-1E+10	1	-1E+10	1
4902554	116	C	04/27/2024	00:52	-134.272	47.494	0	512.80	0	4.1380	0	34.0740	0	27.039	0	507.891	0	-1e10	8	-1e10	8	-1E+10	1	-1E+10	1	-1E+10	1	-1E+10	1	-1E+10	1	-1E+10	1
4902554	116	C	04/27/2024	00:52	-134.272	47.494	0	518.00	0	4.1250	0	34.0770	0	27.043	0	513.035	0	-1e10	8	-1e10	8	-1E+10	1	-1E+10	1	-1E+10	1	-1E+10	1	-1E+10	1	-1E+10	1
4902554	116	C	04/27/2024	00:52	-134.272	47.494	0	523.00	0	4.1060	0	34.0820	0	27.049	0	517.981	0	-1e10	8	-1e10	8	-1E+10	1	-1E+10	1	-1E+10	1	-1E+10	1	-1E+10	1	-1E+10	1
4902554	116	C	04/27/2024	00:52	-134.272	47.494	0	528.00	0	4.0960	0	34.0870	0	27.054	0	522.926	0	-1e10	8	-1e10	8	-1E+10	1	-1E+10	1	-1E+10	1	-1E+10	1	-1E+10	1	-1E+10	1
4902554	116	C	04/27/2024	00:52	-134.272	47.494	0	532.80	0	4.0880	0	34.0900	0	27.057	0	527.674	0	-1e10	8	-1e10	8	-1E+10	1	-1E+10	1	-1E+10	1	-1E+10	1	-1E+10	1	-1E+10	1
4902554	116	C	04/27/2024	00:52	-134.272	47.494	0	537.60	0	4.0730	0	34.0950	0	27.063	0	532.422	0	-1e10	8	-1e10	8	-1E+10	1	-1E+10	1	-1E+10	1	-1E+10	1	-1E+10	1	-1E+10	1
4902554	116	C	04/27/2024	00:52	-134.272	47.494	0	542.60	0	4.0540	0	34.1000	0	27.069	0	537.367	0	-1e10	8	-1e10	8	-1E+10	1	-1E+10	1	-1E+10	1	-1E+10	1	-1E+10	1	-1E+10	1
4902554	116	C	04/27/2024	00:52	-134.272	47.494	0	547.90	0	4.0410	0	34.1030	0	27.073	0	542.609	0	-1e10	8	-1e10	8	-1E+10	1	-1E+10	1	-1E+10	1	-1E+10	1	-1E+10	1	-1E+10	1
4902554	116	C	04/27/2024	00:52	-134.272	47.494	0	552.90	0	4.0350	0	34.1070	0	27.076	0	547.554	0	-1e10	8	-1e10	8	-1E+10	1	-1E+10	1	-1E+10	1	-1E+10	1	-1E+10	1	-1E+10	1
4902554	116	C	04/27/2024	00:52	-134.272	47.494	0	557.90	0	4.0270	0	34.1110	0	27.080	0	552.499	0	-1e10	8	-1e10	8	-1E+10	1	-1E+10	1	-1E+10	1	-1E+10	1	-1E+10	1	-1E+10	1
4902554	116	C	04/27/2024	00:52	-134.272	47.494	0	563.10	0	4.0190	0	34.1170	0	27.086	0	557.642	0	-1e10	8	-1e10	8	-1E+10	1	-1E+10	1	-1E+10	1	-1E+10	1	-1E+10	1	-1E+10	1
4902554	116	C	04/27/2024	00:52	-134.272	47.494	0	567.90	0	4.0070	0	34.1230	0	27.092	0	562.389	0	-1e10	8	-1e10	8	-1E+10	1	-1E+10	1	-1E+10	1	-1E+10	1	-1E+10	1	-1E+10	1
4902554	116	C	04/27/2024	00:52	-134.272	47.494	0	572.90	0	4.0010	0	34.1240	0	27.094	0	567.334	0	-1e10	8	-1e10	8	-1E+10	1	-1E+10	1	-1E+10	1	-1E+10	1	-1E+10	1	-1E+10	1
4902554	116	C	04/27/2024	00:52	-134.272	47.494	0	577.90	0	3.9930	0	34.1260	0	27.096	0	572.278	0	-1e10	8	-1e10	8	-1E+10	1	-1E+10	1	-1E+10	1	-1E+10	1	-1E+10	1	-1E+10	1
4902554	116	C	04/27/2024	00:52	-134.272	47.494	0	582.90	0	3.9840	0	34.1280	0	27.098	0	577.223	0	-1e10	8	-1e10	8	-1E+10	1	-1E+10	1	-1E+10	1	-1E+10	1	-1E+10	1	-1E+10	1
4902554	116	C	04/27/2024	00:52	-134.272	47.494	0	587.90	0	3.9720	0	34.1310	0	27.102	0	582.167	0	-1e10	8	-1e10	8	-1E+10	1	-1E+10	1	-1E+10	1	-1E+10	1	-1E+10	1	-1E+10	1
4902554	116	C	04/27/2024	00:52	-134.272	47.494	0	593.00	0	3.9650	0	34.1330	0	27.104	0	587.210	0	-1e10	8	-1e10	8	-1E+10	1	-1E+10	1	-1E+10	1	-1E+10	1	-1E+10	1	-1E+10	1
4902554	116	C	04/27/2024	00:52	-134.272	47.494	0	598.00	0	3.9510	0	34.1370	0	27.109	0	592.154	0	-1e10	8	-1e10	8	-1E+10	1	-1E+10	1	-1E+10	1	-1E+10	1	-1E+10	1	-1E+10	1
4902554	116	C	04/27/2024	00:52	-134.272	47.494	0	603.10	0	3.9350	0	34.1390	0	27.112	0	597.197	0	-1e10	8	-1e10	8	-1E+10	1	-1E+10	1	-1E+10	1	-1E+10	1	-1E+10	1	-1E+10	1
4902554	116	C	04/27/2024	00:52	-134.272	47.494	0	608.20	0	3.9110	0	34.1440	0	27.119	0	602.240	0	-1e10	8	-1e10	8	-1E+10	1	-1E+10	1	-1E+10	1	-1E+10	1	-1E+10	1	-1E+10	1
4902554	116	C	04/27/2024	00:52	-134.272	47.494	0	612.80	0	3.9020	0	34.1450	0	27.121	0	606.788	0	-1e10	8	-1e10	8	-1E+10	1	-1E+10	1	-1E+10	1	-1E+10	1	-1E+10	1	-1E+10	1
4902554	116	C	04/27/2024	00:52	-134.272	47.494	0	617.50	0	3.8940	0	34.1490	0	27.125	0	611.435	0	-1e10	8	-1e10	8	-1E+10	1	-1E+10	1	-1E+10	1	-1E+10	1	-1E+10	1	-1E+10	1
4902554	116	C	04/27/2024	00:52	-134.272	47.494	0	622.70	0	3.8950	0	34.1540	0	27.128	0	616.576	0	-1e10	8	-1e10	8	-1E+10	1	-1E+10	1	-1E+10	1	-1E+10	1	-1E+10	1	-1E+10	1
4902554	116	C	04/27/2024	00:52	-134.272	47.494	0	627.90	0	3.8760	0	34.1580	0	27.134	0	621.717	0	-1e10	8	-1e10	8	-1E+10	1	-1E+10	1	-1E+10	1	-1E+10	1	-1E+10	1	-1E+10	1
4902554	116	C	04/27/2024	00:52	-134.272	47.494	0	633.10	0	3.8590	0	34.1610	0	27.138	0	626.858	0	-1e10	8	-1e10	8	-1E+10	1	-1E+10	1	-1E+10	1	-1E+10	1	-1E+10	1	-1E+10	1
4902554	116	C	04/27/2024	00:52	-134.272	47.494	0	637.80	0	3.8510	0	34.1610	0	27.139	0	631.505	0	-1e10	8	-1e10	8	-1E+10	1	-1E+10	1	-1E+10	1	-1E+10	1	-1E+10	1	-1E+10	1
4902554	116	C	04/27/2024	00:52	-134.272	47.494	0	642.50	0	3.8380	0	34.1640	0	27.142	0	636.151	0	-1e10	8	-1e10	8	-1E+10	1	-1E+10	1	-1E+10	1	-1E+10	1	-1E+10	1	-1E+10	1
4902554	116	C	04/27/2024	00:52	-134.272	47.494	0	647.60	0	3.8440	0	34.1690	0	27.146	0	641.193	0	-1e10	8	-1e10	8	-1E+10	1	-1E+10	1	-1E+10	1	-1E+10	1	-1E+10	1	-1E+10	1
4902554	116	C	04/27/2024	00:52	-134.272	47.494	0	652.80	0	3.8560	0	34.1750	0	27.149	0	646.333	0	-1e10	8	-1e10	8	-1E+10	1	-1E+10	1	-1E+10	1	-1E+10	1	-1E+10	1	-1E+10	1
4902554	116	C	04/27/2024	00:52	-134.272	47.494	0	658.00	0	3.8550	0	34.1820	0	27.155	0	651.474	0	-1e10	8	-1e10	8	-1E+10	1	-1E+10	1	-1E+10	1	-1E+10	1	-1E+10	1	-1E+10	1
4902554	116	C	04/27/2024	00:52	-134.272	47.494	0	663.20	0	3.8460	0	34.1870	0	27.160	0	656.614	0	-1e10	8	-1e10	8	-1E+10	1	-1E+10	1	-1E+10	1	-1E+10	1	-1E+10	1	-1E+10	1
4902554	116	C	04/27/2024	00:52	-134.272	47.494	0	668.30	0	3.8340	0	34.1900	0	27.164	0	661.655	0	-1e10	8	-1e10	8	-1E+10	1	-1E+10	1	-1E+10	1	-1E+10	1	-1E+10	1	-1E+10	1
4902554	116	C	04/27/2024	00:52	-134.272	47.494	0	672.90	0	3.8260	0	34.1940	0	27.168	0	666.202	0	-1e10	8	-1e10	8	-1E+10	1	-1E+10	1	-1E+10	1	-1E+10	1	-1E+10	1	-1E+10	1
4902554	116	C	04/27/2024	00:52	-134.272	47.494	0	677.50	0	3.8170	0	34.1960	0	27.170	0	670.749	0	-1e10	8	-1e10	8	-1E+10	1	-1E+10	1	-1E+10	1	-1E+10	1	-1E+10	1	-1E+10	1
4902554	116	C	04/27/2024	00:52	-134.272	47.494	0	682.60	0	3.8050	0	34.2010	0	27.175	0	675.790	0	-1e10	8	-1e10	8	-1E+10	1	-1E+10	1	-1E+10	1	-1E+10	1	-1E+10	1	-1E+10	1
4902554	116	C	04/27/2024	00:52	-134.272	47.494	0	687.50	0	3.7970	0	34.2050	0	27.179	0	680.633	0	-1e10	8	-1e10	8	-1E+10	1	-1E+10	1	-1E+10	1	-1E+10	1	-1E+10	1	-1E+10	1
4902554	116	C	04/27/2024	00:52	-134.272	47.494	0	692.90	0	3.7880	0	34.2070	0	27.182	0	685.970	0	-1e10	8	-1e10	8	-1E+10	1	-1E+10	1	-1E+10	1	-1E+10	1	-1E+10	1	-1E+10	1
4902554	116	C	04/27/2024	00:52	-134.272	47.494	0	698.20	0	3.7750	0	34.2120	0	27.187	0	691.209	0	-1e10	8	-1e10	8	-1E+10	1	-1E+10	1	-1E+10	1	-1E+10	1	-1E+10	1	-1E+10	1
4902554	116	C	04/27/2024	00:52	-134.272	47.494	0	702.90	0	3.7660	0	34.2140	0	27.190	0	695.854	0	-1e10	8	-1e10	8	-1E+10	1	-1E+10	1	-1E+10	1	-1E+10	1	-1E+10	1	-1E+10	1
4902554	116	C	04/27/2024	00:52	-134.272	47.494	0	707.60	0	3.7520	0	34.2180	0	27.194	0	700.499	0	-1e10	8	-1e10	8	-1E+10	1	-1E+10	1	-1E+10	1	-1E+10	1	-1E+10	1	-1E+10	1
4902554	116	C	04/27/2024	00:52	-134.272	47.494	0	712.80	0	3.7400	0	34.2220	0	27.199	0	705.638	0	-1e10	8	-1e10	8	-1E+10	1	-1E+10	1	-1E+10	1	-1E+10	1	-1E+10	1	-1E+10	1
4902554	116	C	04/27/2024	00:52	-134.272	47.494	0	717.90	0	3.7310	0	34.2250	0	27.202	0	710.678	0	-1e10	8	-1e10	8	-1E+10	1	-1E+10	1	-1E+10	1	-1E+10	1	-1E+10	1	-1E+10	1
4902554	116	C	04/27/2024	00:52	-134.272	47.494	0	722.80	0	3.7090	0	34.2310	0	27.209	0	715.520	0	-1e10	8	-1e10	8	-1E+10	1	-1E+10	1	-1E+10	1	-1E+10	1	-1E+10	1	-1E+10	1
4902554	116	C	04/27/2024	00:52	-134.272	47.494	0	728.10	0	3.6960	0	34.2360	0	27.214	0	720.757	0	-1e10	8	-1e10	8	-1E+10	1	-1E+10	1	-1E+10	1	-1E+10	1	-1E+10	1	-1E+10	1
4902554	116	C	04/27/2024	00:52	-134.272	47.494	0	733.00	0	3.6800	0	34.2400	0	27.219	0	725.600	0	-1e10	8	-1e10	8	-1E+10	1	-1E+10	1	-1E+10	1	-1E+10	1	-1E+10	1	-1E+10	1
4902554	116	C	04/27/2024	00:52	-134.272	47.494	0	737.80	0	3.6680	0	34.2430	0	27.223	0	730.343	0	-1e10	8	-1e10	8	-1E+10	1	-1E+10	1	-1E+10	1	-1E+10	1	-1E+10	1	-1E+10	1
4902554	116	C	04/27/2024	00:52	-134.272	47.494	0	743.10	0	3.6510	0	34.2460	0	27.227	0	735.580	0	-1e10	8	-1e10	8	-1E+10	1	-1E+10	1	-1E+10	1	-1E+10	1	-1E+10	1	-1E+10	1
4902554	116	C	04/27/2024	00:52	-134.272	47.494	0	748.10	0	3.6410	0	34.2490	0	27.230	0	740.520	0	-1e10	8	-1e10	8	-1E+10	1	-1E+10	1	-1E+10	1	-1E+10	1	-1E+10	1	-1E+10	1
4902554	116	C	04/27/2024	00:52	-134.272	47.494	0	753.00	0	3.6260	0	34.2530	0	27.235	0	745.362	0	-1e10	8	-1e10	8	-1E+10	1	-1E+10	1	-1E+10	1	-1E+10	1	-1E+10	1	-1E+10	1
4902554	116	C	04/27/2024	00:52	-134.272	47.494	0	758.10	0	3.6170	0	34.2560	0	27.238	0	750.401	0	-1e10	8	-1e10	8	-1E+10	1	-1E+10	1	-1E+10	1	-1E+10	1	-1E+10	1	-1E+10	1
4902554	116	C	04/27/2024	00:52	-134.272	47.494	0	762.80	0	3.6090	0	34.2580	0	27.241	0	755.045	0	-1e10	8	-1e10	8	-1E+10	1	-1E+10	1	-1E+10	1	-1E+10	1	-1E+10	1	-1E+10	1
4902554	116	C	04/27/2024	00:52	-134.272	47.494	0	768.00	0	3.6030	0	34.2600	0	27.243	0	760.182	0	-1e10	8	-1e10	8	-1E+10	1	-1E+10	1	-1E+10	1	-1E+10	1	-1E+10	1	-1E+10	1
4902554	116	C	04/27/2024	00:52	-134.272	47.494	0	773.20	0	3.5850	0	34.2650	0	27.249	0	765.320	0	-1e10	8	-1e10	8	-1E+10	1	-1E+10	1	-1E+10	1	-1E+10	1	-1E+10	1	-1E+10	1
4902554	116	C	04/27/2024	00:52	-134.272	47.494	0	778.30	0	3.5690	0	34.2700	0	27.254	0	770.359	0	-1e10	8	-1e10	8	-1E+10	1	-1E+10	1	-1E+10	1	-1E+10	1	-1E+10	1	-1E+10	1
4902554	116	C	04/27/2024	00:52	-134.272	47.494	0	783.00	0	3.5650	0	34.2710	0	27.255	0	775.002	0	-1e10	8	-1e10	8	-1E+10	1	-1E+10	1	-1E+10	1	-1E+10	1	-1E+10	1	-1E+10	1
4902554	116	C	04/27/2024	00:52	-134.272	47.494	0	788.00	0	3.5580	0	34.2730	0	27.258	0	779.942	0	-1e10	8	-1e10	8	-1E+10	1	-1E+10	1	-1E+10	1	-1E+10	1	-1E+10	1	-1E+10	1
4902554	116	C	04/27/2024	00:52	-134.272	47.494	0	793.20	0	3.5460	0	34.2760	0	27.261	0	785.079	0	-1e10	8	-1e10	8	-1E+10	1	-1E+10	1	-1E+10	1	-1E+10	1	-1E+10	1	-1E+10	1
4902554	116	C	04/27/2024	00:52	-134.272	47.494	0	798.20	0	3.5370	0	34.2790	0	27.265	0	790.018	0	-1e10	8	-1e10	8	-1E+10	1	-1E+10	1	-1E+10	1	-1E+10	1	-1E+10	1	-1E+10	1
4902554	116	C	04/27/2024	00:52	-134.272	47.494	0	802.90	0	3.5200	0	34.2830	0	27.269	0	794.661	0	-1e10	8	-1e10	8	-1E+10	1	-1E+10	1	-1E+10	1	-1E+10	1	-1E+10	1	-1E+10	1
4902554	116	C	04/27/2024	00:52	-134.272	47.494	0	807.80	0	3.5030	0	34.2870	0	27.274	0	799.501	0	-1e10	8	-1e10	8	-1E+10	1	-1E+10	1	-1E+10	1	-1E+10	1	-1E+10	1	-1E+10	1
4902554	116	C	04/27/2024	00:52	-134.272	47.494	0	812.90	0	3.4880	0	34.2890	0	27.277	0	804.539	0	-1e10	8	-1e10	8	-1E+10	1	-1E+10	1	-1E+10	1	-1E+10	1	-1E+10	1	-1E+10	1
4902554	116	C	04/27/2024	00:52	-134.272	47.494	0	817.70	0	3.4700	0	34.2910	0	27.281	0	809.280	0	-1e10	8	-1e10	8	-1E+10	1	-1E+10	1	-1E+10	1	-1E+10	1	-1E+10	1	-1E+10	1
4902554	116	C	04/27/2024	00:52	-134.272	47.494	0	822.50	0	3.4340	0	34.2910	0	27.284	0	814.022	0	-1e10	8	-1e10	8	-1E+10	1	-1E+10	1	-1E+10	1	-1E+10	1	-1E+10	1	-1E+10	1
4902554	116	C	04/27/2024	00:52	-134.272	47.494	0	827.40	0	3.4170	0	34.2910	0	27.286	0	818.861	0	-1e10	8	-1e10	8	-1E+10	1	-1E+10	1	-1E+10	1	-1E+10	1	-1E+10	1	-1E+10	1
4902554	116	C	04/27/2024	00:52	-134.272	47.494	0	832.50	0	3.4010	0	34.2940	0	27.290	0	823.899	0	-1e10	8	-1e10	8	-1E+10	1	-1E+10	1	-1E+10	1	-1E+10	1	-1E+10	1	-1E+10	1
4902554	116	C	04/27/2024	00:52	-134.272	47.494	0	837.60	0	3.3950	0	34.2950	0	27.291	0	828.936	0	-1e10	8	-1e10	8	-1E+10	1	-1E+10	1	-1E+10	1	-1E+10	1	-1E+10	1	-1E+10	1
4902554	116	C	04/27/2024	00:52	-134.272	47.494	0	842.80	0	3.3870	0	34.2970	0	27.293	0	834.072	0	-1e10	8	-1e10	8	-1E+10	1	-1E+10	1	-1E+10	1	-1E+10	1	-1E+10	1	-1E+10	1
4902554	116	C	04/27/2024	00:52	-134.272	47.494	0	848.20	0	3.3770	0	34.2980	0	27.295	0	839.405	0	-1e10	8	-1e10	8	-1E+10	1	-1E+10	1	-1E+10	1	-1E+10	1	-1E+10	1	-1E+10	1
4902554	116	C	04/27/2024	00:52	-134.272	47.494	0	853.10	0	3.3730	0	34.3000	0	27.297	0	844.244	0	-1e10	8	-1e10	8	-1E+10	1	-1E+10	1	-1E+10	1	-1E+10	1	-1E+10	1	-1E+10	1
4902554	116	C	04/27/2024	00:52	-134.272	47.494	0	858.10	0	3.3620	0	34.3030	0	27.301	0	849.182	0	-1e10	8	-1e10	8	-1E+10	1	-1E+10	1	-1E+10	1	-1E+10	1	-1E+10	1	-1E+10	1
4902554	116	C	04/27/2024	00:52	-134.272	47.494	0	863.10	0	3.3580	0	34.3040	0	27.302	0	854.120	0	-1e10	8	-1e10	8	-1E+10	1	-1E+10	1	-1E+10	1	-1E+10	1	-1E+10	1	-1E+10	1
4902554	116	C	04/27/2024	00:52	-134.272	47.494	0	868.10	0	3.3380	0	34.3040	0	27.304	0	859.058	0	-1e10	8	-1e10	8	-1E+10	1	-1E+10	1	-1E+10	1	-1E+10	1	-1E+10	1	-1E+10	1
4902554	116	C	04/27/2024	00:52	-134.272	47.494	0	873.20	0	3.3270	0	34.3050	0	27.306	0	864.094	0	-1e10	8	-1e10	8	-1E+10	1	-1E+10	1	-1E+10	1	-1E+10	1	-1E+10	1	-1E+10	1
4902554	116	C	04/27/2024	00:52	-134.272	47.494	0	877.70	0	3.3260	0	34.3060	0	27.307	0	868.538	0	-1e10	8	-1e10	8	-1E+10	1	-1E+10	1	-1E+10	1	-1E+10	1	-1E+10	1	-1E+10	1
4902554	116	C	04/27/2024	00:52	-134.272	47.494	0	882.90	0	3.3240	0	34.3070	0	27.308	0	873.673	0	-1e10	8	-1e10	8	-1E+10	1	-1E+10	1	-1E+10	1	-1E+10	1	-1E+10	1	-1E+10	1
4902554	116	C	04/27/2024	00:52	-134.272	47.494	0	888.00	0	3.3340	0	34.3120	0	27.311	0	878.709	0	-1e10	8	-1e10	8	-1E+10	1	-1E+10	1	-1E+10	1	-1E+10	1	-1E+10	1	-1E+10	1
4902554	116	C	04/27/2024	00:52	-134.272	47.494	0	893.10	0	3.3260	0	34.3140	0	27.313	0	883.745	0	-1e10	8	-1e10	8	-1E+10	1	-1E+10	1	-1E+10	1	-1E+10	1	-1E+10	1	-1E+10	1
4902554	116	C	04/27/2024	00:52	-134.272	47.494	0	898.20	0	3.3190	0	34.3160	0	27.315	0	888.780	0	-1e10	8	-1e10	8	-1E+10	1	-1E+10	1	-1E+10	1	-1E+10	1	-1E+10	1	-1E+10	1
4902554	116	C	04/27/2024	00:52	-134.272	47.494	0	902.80	0	3.3150	0	34.3170	0	27.317	0	893.322	0	-1e10	8	-1e10	8	-1E+10	1	-1E+10	1	-1E+10	1	-1E+10	1	-1E+10	1	-1E+10	1
4902554	116	C	04/27/2024	00:52	-134.272	47.494	0	907.80	0	3.3020	0	34.3190	0	27.319	0	898.259	0	-1e10	8	-1e10	8	-1E+10	1	-1E+10	1	-1E+10	1	-1E+10	1	-1E+10	1	-1E+10	1
4902554	116	C	04/27/2024	00:52	-134.272	47.494	0	912.90	0	3.2870	0	34.3220	0	27.323	0	903.295	0	-1e10	8	-1e10	8	-1E+10	1	-1E+10	1	-1E+10	1	-1E+10	1	-1E+10	1	-1E+10	1
4902554	116	C	04/27/2024	00:52	-134.272	47.494	0	918.00	0	3.2830	0	34.3250	0	27.326	0	908.330	0	-1e10	8	-1e10	8	-1E+10	1	-1E+10	1	-1E+10	1	-1E+10	1	-1E+10	1	-1E+10	1
4902554	116	C	04/27/2024	00:52	-134.272	47.494	0	923.10	0	3.2790	0	34.3270	0	27.328	0	913.365	0	-1e10	8	-1e10	8	-1E+10	1	-1E+10	1	-1E+10	1	-1E+10	1	-1E+10	1	-1E+10	1
4902554	116	C	04/27/2024	00:52	-134.272	47.494	0	927.60	0	3.2740	0	34.3290	0	27.330	0	917.808	0	-1e10	8	-1e10	8	-1E+10	1	-1E+10	1	-1E+10	1	-1E+10	1	-1E+10	1	-1E+10	1
4902554	116	C	04/27/2024	00:52	-134.272	47.494	0	932.70	0	3.2670	0	34.3320	0	27.333	0	922.843	0	-1e10	8	-1e10	8	-1E+10	1	-1E+10	1	-1E+10	1	-1E+10	1	-1E+10	1	-1E+10	1
4902554	116	C	04/27/2024	00:52	-134.272	47.494	0	937.80	0	3.2550	0	34.3360	0	27.338	0	927.877	0	-1e10	8	-1e10	8	-1E+10	1	-1E+10	1	-1E+10	1	-1E+10	1	-1E+10	1	-1E+10	1
4902554	116	C	04/27/2024	00:52	-134.272	47.494	0	942.80	0	3.2450	0	34.3370	0	27.339	0	932.813	0	-1e10	8	-1e10	8	-1E+10	1	-1E+10	1	-1E+10	1	-1E+10	1	-1E+10	1	-1E+10	1
4902554	116	C	04/27/2024	00:52	-134.272	47.494	0	947.90	0	3.2410	0	34.3380	0	27.341	0	937.848	0	-1e10	8	-1e10	8	-1E+10	1	-1E+10	1	-1E+10	1	-1E+10	1	-1E+10	1	-1E+10	1
4902554	116	C	04/27/2024	00:52	-134.272	47.494	0	952.80	0	3.2320	0	34.3390	0	27.342	0	942.685	0	-1e10	8	-1e10	8	-1E+10	1	-1E+10	1	-1E+10	1	-1E+10	1	-1E+10	1	-1E+10	1
4902554	116	C	04/27/2024	00:52	-134.272	47.494	0	957.70	0	3.2190	0	34.3410	0	27.345	0	947.522	0	-1e10	8	-1e10	8	-1E+10	1	-1E+10	1	-1E+10	1	-1E+10	1	-1E+10	1	-1E+10	1
4902554	116	C	04/27/2024	00:52	-134.272	47.494	0	962.60	0	3.2130	0	34.3420	0	27.346	0	952.359	0	-1e10	8	-1e10	8	-1E+10	1	-1E+10	1	-1E+10	1	-1E+10	1	-1E+10	1	-1E+10	1
4902554	116	C	04/27/2024	00:52	-134.272	47.494	0	968.00	0	3.2030	0	34.3430	0	27.348	0	957.689	0	-1e10	8	-1e10	8	-1E+10	1	-1E+10	1	-1E+10	1	-1E+10	1	-1E+10	1	-1E+10	1
4902554	116	C	04/27/2024	00:52	-134.272	47.494	0	973.30	0	3.1910	0	34.3440	0	27.350	0	962.920	0	-1e10	8	-1e10	8	-1E+10	1	-1E+10	1	-1E+10	1	-1E+10	1	-1E+10	1	-1E+10	1
4902554	116	C	04/27/2024	00:52	-134.272	47.494	0	978.00	0	3.1710	0	34.3470	0	27.354	0	967.559	0	-1e10	8	-1e10	8	-1E+10	1	-1E+10	1	-1E+10	1	-1E+10	1	-1E+10	1	-1E+10	1
4902554	116	C	04/27/2024	00:52	-134.272	47.494	0	982.80	0	3.1510	0	34.3500	0	27.359	0	972.297	0	-1e10	8	-1e10	8	-1E+10	1	-1E+10	1	-1E+10	1	-1E+10	1	-1E+10	1	-1E+10	1
4902554	116	C	04/27/2024	00:52	-134.272	47.494	0	988.00	0	3.1430	0	34.3560	0	27.364	0	977.429	0	-1e10	8	-1e10	8	-1E+10	1	-1E+10	1	-1E+10	1	-1E+10	1	-1E+10	1	-1E+10	1
4902554	116	C	04/27/2024	00:52	-134.272	47.494	0	993.20	0	3.1480	0	34.3610	0	27.368	0	982.561	0	-1e10	8	-1e10	8	-1E+10	1	-1E+10	1	-1E+10	1	-1E+10	1	-1E+10	1	-1E+10	1
4902554	116	C	04/27/2024	00:52	-134.272	47.494	0	997.90	0	3.1420	0	34.3630	0	27.370	0	987.200	0	-1e10	8	-1e10	8	-1E+10	1	-1E+10	1	-1E+10	1	-1E+10	1	-1E+10	1	-1E+10	1
4902554	116	C	04/27/2024	00:52	-134.272	47.494	0	1005.10	0	3.1300	0	34.3660	0	27.373	0	994.306	0	-1e10	8	-1e10	8	-1E+10	1	-1E+10	1	-1E+10	1	-1E+10	1	-1E+10	1	-1E+10	1
4902554	116	C	04/27/2024	00:52	-134.272	47.494	0	1015.40	0	3.0970	0	34.3690	0	27.379	0	1004.470	0	-1e10	8	-1e10	8	-1E+10	1	-1E+10	1	-1E+10	1	-1E+10	1	-1E+10	1	-1E+10	1
4902554	116	C	04/27/2024	00:52	-134.272	47.494	0	1025.70	0	3.0750	0	34.3760	0	27.387	0	1014.634	0	-1e10	8	-1e10	8	-1E+10	1	-1E+10	1	-1E+10	1	-1E+10	1	-1E+10	1	-1E+10	1
4902554	116	C	04/27/2024	00:52	-134.272	47.494	0	1035.50	0	3.0740	0	34.3840	0	27.393	0	1024.305	0	-1e10	8	-1e10	8	-1E+10	1	-1E+10	1	-1E+10	1	-1E+10	1	-1E+10	1	-1E+10	1
4902554	116	C	04/27/2024	00:52	-134.272	47.494	0	1045.20	0	3.0610	0	34.3860	0	27.396	0	1033.876	0	-1e10	8	-1e10	8	-1E+10	1	-1E+10	1	-1E+10	1	-1E+10	1	-1E+10	1	-1E+10	1
4902554	116	C	04/27/2024	00:52	-134.272	47.494	0	1055.20	0	3.0420	0	34.3910	0	27.402	0	1043.743	0	-1e10	8	-1e10	8	-1E+10	1	-1E+10	1	-1E+10	1	-1E+10	1	-1E+10	1	-1E+10	1
4902554	116	C	04/27/2024	00:52	-134.272	47.494	0	1065.30	0	3.0170	0	34.3960	0	27.408	0	1053.708	0	-1e10	8	-1e10	8	-1E+10	1	-1E+10	1	-1E+10	1	-1E+10	1	-1E+10	1	-1E+10	1
4902554	116	C	04/27/2024	00:52	-134.272	47.494	0	1075.40	0	2.9970	0	34.4010	0	27.414	0	1063.672	0	-1e10	8	-1e10	8	-1E+10	1	-1E+10	1	-1E+10	1	-1E+10	1	-1E+10	1	-1E+10	1
4902554	116	C	04/27/2024	00:52	-134.272	47.494	0	1085.40	0	2.9810	0	34.4050	0	27.419	0	1073.538	0	-1e10	8	-1e10	8	-1E+10	1	-1E+10	1	-1E+10	1	-1E+10	1	-1E+10	1	-1E+10	1
4902554	116	C	04/27/2024	00:52	-134.272	47.494	0	1095.60	0	2.9650	0	34.4080	0	27.422	0	1083.600	0	-1e10	8	-1e10	8	-1E+10	1	-1E+10	1	-1E+10	1	-1E+10	1	-1E+10	1	-1E+10	1
4902554	116	C	04/27/2024	00:52	-134.272	47.494	0	1105.70	0	2.9510	0	34.4110	0	27.426	0	1093.563	0	-1e10	8	-1e10	8	-1E+10	1	-1E+10	1	-1E+10	1	-1E+10	1	-1E+10	1	-1E+10	1
4902554	116	C	04/27/2024	00:52	-134.272	47.494	0	1115.50	0	2.9390	0	34.4130	0	27.429	0	1103.230	0	-1e10	8	-1e10	8	-1E+10	1	-1E+10	1	-1E+10	1	-1E+10	1	-1E+10	1	-1E+10	1
4902554	116	C	04/27/2024	00:52	-134.272	47.494	0	1125.30	0	2.9090	0	34.4180	0	27.436	0	1112.896	0	-1e10	8	-1e10	8	-1E+10	1	-1E+10	1	-1E+10	1	-1E+10	1	-1E+10	1	-1E+10	1
4902554	116	C	04/27/2024	00:52	-134.272	47.494	0	1135.10	0	2.8890	0	34.4210	0	27.440	0	1122.562	0	-1e10	8	-1e10	8	-1E+10	1	-1E+10	1	-1E+10	1	-1E+10	1	-1E+10	1	-1E+10	1
4902554	116	C	04/27/2024	00:52	-134.272	47.494	0	1145.20	0	2.8760	0	34.4240	0	27.443	0	1132.523	0	-1e10	8	-1e10	8	-1E+10	1	-1E+10	1	-1E+10	1	-1E+10	1	-1E+10	1	-1E+10	1
4902554	116	C	04/27/2024	00:52	-134.272	47.494	0	1155.80	0	2.8550	0	34.4270	0	27.448	0	1142.977	0	-1e10	8	-1e10	8	-1E+10	1	-1E+10	1	-1E+10	1	-1E+10	1	-1E+10	1	-1E+10	1
4902554	116	C	04/27/2024	00:52	-134.272	47.494	0	1165.50	0	2.8400	0	34.4280	0	27.450	0	1152.543	0	-1e10	8	-1e10	8	-1E+10	1	-1E+10	1	-1E+10	1	-1E+10	1	-1E+10	1	-1E+10	1
4902554	116	C	04/27/2024	00:52	-134.272	47.494	0	1175.30	0	2.8200	0	34.4310	0	27.454	0	1162.207	0	-1e10	8	-1e10	8	-1E+10	1	-1E+10	1	-1E+10	1	-1E+10	1	-1E+10	1	-1E+10	1
4902554	116	C	04/27/2024	00:52	-134.272	47.494	0	1185.40	0	2.8050	0	34.4350	0	27.459	0	1172.166	0	-1e10	8	-1e10	8	-1E+10	1	-1E+10	1	-1E+10	1	-1E+10	1	-1E+10	1	-1E+10	1
4902554	116	C	04/27/2024	00:52	-134.272	47.494	0	1195.40	0	2.7930	0	34.4370	0	27.461	0	1182.026	0	-1e10	8	-1e10	8	-1E+10	1	-1E+10	1	-1E+10	1	-1E+10	1	-1E+10	1	-1E+10	1
4902554	116	C	04/27/2024	00:52	-134.272	47.494	0	1205.30	0	2.7770	0	34.4400	0	27.465	0	1191.787	0	-1e10	8	-1e10	8	-1E+10	1	-1E+10	1	-1E+10	1	-1E+10	1	-1E+10	1	-1E+10	1
4902554	116	C	04/27/2024	00:52	-134.272	47.494	0	1215.40	0	2.7540	0	34.4440	0	27.471	0	1201.745	0	-1e10	8	-1e10	8	-1E+10	1	-1E+10	1	-1E+10	1	-1E+10	1	-1E+10	1	-1E+10	1
4902554	116	C	04/27/2024	00:52	-134.272	47.494	0	1225.30	0	2.7400	0	34.4480	0	27.475	0	1211.506	0	-1e10	8	-1e10	8	-1E+10	1	-1E+10	1	-1E+10	1	-1E+10	1	-1E+10	1	-1E+10	1
4902554	116	C	04/27/2024	00:52	-134.272	47.494	0	1235.20	0	2.7310	0	34.4510	0	27.478	0	1221.265	0	-1e10	8	-1e10	8	-1E+10	1	-1E+10	1	-1E+10	1	-1E+10	1	-1E+10	1	-1E+10	1
4902554	116	C	04/27/2024	00:52	-134.272	47.494	0	1245.30	0	2.7150	0	34.4540	0	27.482	0	1231.222	0	-1e10	8	-1e10	8	-1E+10	1	-1E+10	1	-1E+10	1	-1E+10	1	-1E+10	1	-1E+10	1
4902554	116	C	04/27/2024	00:52	-134.272	47.494	0	1255.20	0	2.6970	0	34.4590	0	27.488	0	1240.981	0	-1e10	8	-1e10	8	-1E+10	1	-1E+10	1	-1E+10	1	-1E+10	1	-1E+10	1	-1E+10	1
4902554	116	C	04/27/2024	00:52	-134.272	47.494	0	1265.40	0	2.6850	0	34.4610	0	27.490	0	1251.035	0	-1e10	8	-1e10	8	-1E+10	1	-1E+10	1	-1E+10	1	-1E+10	1	-1E+10	1	-1E+10	1
4902554	116	C	04/27/2024	00:52	-134.272	47.494	0	1275.70	0	2.6720	0	34.4620	0	27.492	0	1261.187	0	-1e10	8	-1e10	8	-1E+10	1	-1E+10	1	-1E+10	1	-1E+10	1	-1E+10	1	-1E+10	1
4902554	116	C	04/27/2024	00:52	-134.272	47.494	0	1285.30	0	2.6480	0	34.4650	0	27.497	0	1270.649	0	-1e10	8	-1e10	8	-1E+10	1	-1E+10	1	-1E+10	1	-1E+10	1	-1E+10	1	-1E+10	1
4902554	116	C	04/27/2024	00:52	-134.272	47.494	0	1295.10	0	2.6320	0	34.4670	0	27.500	0	1280.308	0	-1e10	8	-1e10	8	-1E+10	1	-1E+10	1	-1E+10	1	-1E+10	1	-1E+10	1	-1E+10	1
4902554	116	C	04/27/2024	00:52	-134.272	47.494	0	1305.00	0	2.6200	0	34.4690	0	27.503	0	1290.064	0	-1e10	8	-1e10	8	-1E+10	1	-1E+10	1	-1E+10	1	-1E+10	1	-1E+10	1	-1E+10	1
4902554	116	C	04/27/2024	00:52	-134.272	47.494	0	1315.10	0	2.6070	0	34.4710	0	27.505	0	1300.017	0	-1e10	8	-1e10	8	-1E+10	1	-1E+10	1	-1E+10	1	-1E+10	1	-1E+10	1	-1E+10	1
4902554	116	C	04/27/2024	00:52	-134.272	47.494	0	1325.30	0	2.5910	0	34.4730	0	27.508	0	1310.069	0	-1e10	8	-1e10	8	-1E+10	1	-1E+10	1	-1E+10	1	-1E+10	1	-1E+10	1	-1E+10	1
4902554	116	C	04/27/2024	00:52	-134.272	47.494	0	1335.50	0	2.5850	0	34.4750	0	27.511	0	1320.120	0	-1e10	8	-1e10	8	-1E+10	1	-1E+10	1	-1E+10	1	-1E+10	1	-1E+10	1	-1E+10	1
4902554	116	C	04/27/2024	00:52	-134.272	47.494	0	1345.40	0	2.5730	0	34.4770	0	27.513	0	1329.874	0	-1e10	8	-1e10	8	-1E+10	1	-1E+10	1	-1E+10	1	-1E+10	1	-1E+10	1	-1E+10	1
4902554	116	C	04/27/2024	00:52	-134.272	47.494	0	1355.40	0	2.5560	0	34.4810	0	27.518	0	1339.727	0	-1e10	8	-1e10	8	-1E+10	1	-1E+10	1	-1E+10	1	-1E+10	1	-1E+10	1	-1E+10	1
4902554	116	C	04/27/2024	00:52	-134.272	47.494	0	1365.30	0	2.5410	0	34.4840	0	27.522	0	1349.481	0	-1e10	8	-1e10	8	-1E+10	1	-1E+10	1	-1E+10	1	-1E+10	1	-1E+10	1	-1E+10	1
4902554	116	C	04/27/2024	00:52	-134.272	47.494	0	1375.10	0	2.5270	0	34.4860	0	27.524	0	1359.136	0	-1e10	8	-1e10	8	-1E+10	1	-1E+10	1	-1E+10	1	-1E+10	1	-1E+10	1	-1E+10	1
4902554	116	C	04/27/2024	00:52	-134.272	47.494	0	1385.40	0	2.5130	0	34.4880	0	27.527	0	1369.283	0	-1e10	8	-1e10	8	-1E+10	1	-1E+10	1	-1E+10	1	-1E+10	1	-1E+10	1	-1E+10	1
4902554	116	C	04/27/2024	00:52	-134.272	47.494	0	1395.70	0	2.4960	0	34.4900	0	27.530	0	1379.429	0	-1e10	8	-1e10	8	-1E+10	1	-1E+10	1	-1E+10	1	-1E+10	1	-1E+10	1	-1E+10	1
4902554	116	C	04/27/2024	00:52	-134.272	47.494	0	1405.50	0	2.4840	0	34.4920	0	27.533	0	1389.083	0	-1e10	8	-1e10	8	-1E+10	1	-1E+10	1	-1E+10	1	-1E+10	1	-1E+10	1	-1E+10	1
4902554	116	C	04/27/2024	00:52	-134.272	47.494	0	1415.40	0	2.4660	0	34.4940	0	27.536	0	1398.835	0	-1e10	8	-1e10	8	-1E+10	1	-1E+10	1	-1E+10	1	-1E+10	1	-1E+10	1	-1E+10	1
4902554	116	C	04/27/2024	00:52	-134.272	47.494	0	1425.80	0	2.4540	0	34.4960	0	27.539	0	1409.078	0	-1e10	8	-1e10	8	-1E+10	1	-1E+10	1	-1E+10	1	-1E+10	1	-1E+10	1	-1E+10	1
4902554	116	C	04/27/2024	00:52	-134.272	47.494	0	1435.50	0	2.4390	0	34.4980	0	27.542	0	1418.632	0	-1e10	8	-1e10	8	-1E+10	1	-1E+10	1	-1E+10	1	-1E+10	1	-1E+10	1	-1E+10	1
4902554	116	C	04/27/2024	00:52	-134.272	47.494	0	1445.40	0	2.4220	0	34.5010	0	27.546	0	1428.382	0	-1e10	8	-1e10	8	-1E+10	1	-1E+10	1	-1E+10	1	-1E+10	1	-1E+10	1	-1E+10	1
4902554	116	C	04/27/2024	00:52	-134.272	47.494	0	1455.50	0	2.4080	0	34.5040	0	27.549	0	1438.329	0	-1e10	8	-1e10	8	-1E+10	1	-1E+10	1	-1E+10	1	-1E+10	1	-1E+10	1	-1E+10	1
4902554	116	C	04/27/2024	00:52	-134.272	47.494	0	1465.30	0	2.3970	0	34.5060	0	27.552	0	1447.980	0	-1e10	8	-1e10	8	-1E+10	1	-1E+10	1	-1E+10	1	-1E+10	1	-1E+10	1	-1E+10	1
4902554	116	C	04/27/2024	00:52	-134.272	47.494	0	1475.60	0	2.3830	0	34.5080	0	27.555	0	1458.122	0	-1e10	8	-1e10	8	-1E+10	1	-1E+10	1	-1E+10	1	-1E+10	1	-1E+10	1	-1E+10	1
4902554	116	C	04/27/2024	00:52	-134.272	47.494	0	1485.80	0	2.3700	0	34.5110	0	27.558	0	1468.166	0	-1e10	8	-1e10	8	-1E+10	1	-1E+10	1	-1E+10	1	-1E+10	1	-1E+10	1	-1E+10	1
4902554	116	C	04/27/2024	00:52	-134.272	47.494	0	1495.70	0	2.3580	0	34.5120	0	27.560	0	1477.914	0	-1e10	8	-1e10	8	-1E+10	1	-1E+10	1	-1E+10	1	-1E+10	1	-1E+10	1	-1E+10	1
4902554	116	C	04/27/2024	00:52	-134.272	47.494	0	1505.80	0	2.3400	0	34.5150	0	27.564	0	1487.858	0	-1e10	8	-1e10	8	-1E+10	1	-1E+10	1	-1E+10	1	-1E+10	1	-1E+10	1	-1E+10	1
4902554	116	C	04/27/2024	00:52	-134.272	47.494	0	1515.50	0	2.3240	0	34.5180	0	27.568	0	1497.408	0	-1e10	8	-1e10	8	-1E+10	1	-1E+10	1	-1E+10	1	-1E+10	1	-1E+10	1	-1E+10	1
4902554	116	C	04/27/2024	00:52	-134.272	47.494	0	1525.40	0	2.3150	0	34.5190	0	27.569	0	1507.155	0	-1e10	8	-1e10	8	-1E+10	1	-1E+10	1	-1E+10	1	-1E+10	1	-1E+10	1	-1E+10	1
4902554	116	C	04/27/2024	00:52	-134.272	47.494	0	1535.50	0	2.3080	0	34.5210	0	27.571	0	1517.098	0	-1e10	8	-1e10	8	-1E+10	1	-1E+10	1	-1E+10	1	-1E+10	1	-1E+10	1	-1E+10	1
4902554	116	C	04/27/2024	00:52	-134.272	47.494	0	1545.40	0	2.2940	0	34.5230	0	27.574	0	1526.844	0	-1e10	8	-1e10	8	-1E+10	1	-1E+10	1	-1E+10	1	-1E+10	1	-1E+10	1	-1E+10	1
4902554	116	C	04/27/2024	00:52	-134.272	47.494	0	1555.70	0	2.2800	0	34.5250	0	27.577	0	1536.982	0	-1e10	8	-1e10	8	-1E+10	1	-1E+10	1	-1E+10	1	-1E+10	1	-1E+10	1	-1E+10	1
4902554	116	C	04/27/2024	00:52	-134.272	47.494	0	1565.50	0	2.2660	0	34.5270	0	27.580	0	1546.629	0	-1e10	8	-1e10	8	-1E+10	1	-1E+10	1	-1E+10	1	-1E+10	1	-1E+10	1	-1E+10	1
4902554	116	C	04/27/2024	00:52	-134.272	47.494	0	1575.50	0	2.2560	0	34.5290	0	27.582	0	1556.471	0	-1e10	8	-1e10	8	-1E+10	1	-1E+10	1	-1E+10	1	-1E+10	1	-1E+10	1	-1E+10	1
4902554	116	C	04/27/2024	00:52	-134.272	47.494	0	1585.40	0	2.2430	0	34.5310	0	27.585	0	1566.215	0	-1e10	8	-1e10	8	-1E+10	1	-1E+10	1	-1E+10	1	-1E+10	1	-1E+10	1	-1E+10	1
4902554	116	C	04/27/2024	00:52	-134.272	47.494	0	1595.40	0	2.2220	0	34.5350	0	27.590	0	1576.057	0	-1e10	8	-1e10	8	-1E+10	1	-1E+10	1	-1E+10	1	-1E+10	1	-1E+10	1	-1E+10	1
4902554	116	C	04/27/2024	00:52	-134.272	47.494	0	1605.50	0	2.2120	0	34.5360	0	27.592	0	1585.997	0	-1e10	8	-1e10	8	-1E+10	1	-1E+10	1	-1E+10	1	-1E+10	1	-1E+10	1	-1E+10	1
4902554	116	C	04/27/2024	00:52	-134.272	47.494	0	1615.10	0	2.1950	0	34.5390	0	27.595	0	1595.444	0	-1e10	8	-1e10	8	-1E+10	1	-1E+10	1	-1E+10	1	-1E+10	1	-1E+10	1	-1E+10	1
4902554	116	C	04/27/2024	00:52	-134.272	47.494	0	1625.40	0	2.1860	0	34.5410	0	27.598	0	1605.580	0	-1e10	8	-1e10	8	-1E+10	1	-1E+10	1	-1E+10	1	-1E+10	1	-1E+10	1	-1E+10	1
4902554	116	C	04/27/2024	00:52	-134.272	47.494	0	1635.80	0	2.1720	0	34.5430	0	27.601	0	1615.813	0	-1e10	8	-1e10	8	-1E+10	1	-1E+10	1	-1E+10	1	-1E+10	1	-1E+10	1	-1E+10	1
4902554	116	C	04/27/2024	00:52	-134.272	47.494	0	1645.60	0	2.1600	0	34.5450	0	27.603	0	1625.456	0	-1e10	8	-1e10	8	-1E+10	1	-1E+10	1	-1E+10	1	-1E+10	1	-1E+10	1	-1E+10	1
4902554	116	C	04/27/2024	00:52	-134.272	47.494	0	1655.60	0	2.1500	0	34.5470	0	27.606	0	1635.295	0	-1e10	8	-1e10	8	-1E+10	1	-1E+10	1	-1E+10	1	-1E+10	1	-1E+10	1	-1E+10	1
4902554	116	C	04/27/2024	00:52	-134.272	47.494	0	1665.70	0	2.1460	0	34.5480	0	27.607	0	1645.232	0	-1e10	8	-1e10	8	-1E+10	1	-1E+10	1	-1E+10	1	-1E+10	1	-1E+10	1	-1E+10	1
4902554	116	C	04/27/2024	00:52	-134.272	47.494	0	1675.50	0	2.1370	0	34.5490	0	27.608	0	1654.873	0	-1e10	8	-1e10	8	-1E+10	1	-1E+10	1	-1E+10	1	-1E+10	1	-1E+10	1	-1E+10	1
4902554	116	C	04/27/2024	00:52	-134.272	47.494	0	1685.30	0	2.1250	0	34.5510	0	27.611	0	1664.514	0	-1e10	8	-1e10	8	-1E+10	1	-1E+10	1	-1E+10	1	-1E+10	1	-1E+10	1	-1E+10	1
4902554	116	C	04/27/2024	00:52	-134.272	47.494	0	1695.30	0	2.1150	0	34.5530	0	27.613	0	1674.351	0	-1e10	8	-1e10	8	-1E+10	1	-1E+10	1	-1E+10	1	-1E+10	1	-1E+10	1	-1E+10	1
4902554	116	C	04/27/2024	00:52	-134.272	47.494	0	1705.30	0	2.1020	0	34.5560	0	27.617	0	1684.188	0	-1e10	8	-1e10	8	-1E+10	1	-1E+10	1	-1E+10	1	-1E+10	1	-1E+10	1	-1E+10	1
4902554	116	C	04/27/2024	00:52	-134.272	47.494	0	1715.50	0	2.0910	0	34.5580	0	27.619	0	1694.221	0	-1e10	8	-1e10	8	-1E+10	1	-1E+10	1	-1E+10	1	-1E+10	1	-1E+10	1	-1E+10	1
4902554	116	C	04/27/2024	00:52	-134.272	47.494	0	1725.20	0	2.0800	0	34.5590	0	27.621	0	1703.762	0	-1e10	8	-1e10	8	-1E+10	1	-1E+10	1	-1E+10	1	-1E+10	1	-1E+10	1	-1E+10	1
4902554	116	C	04/27/2024	00:52	-134.272	47.494	0	1735.10	0	2.0680	0	34.5620	0	27.625	0	1713.499	0	-1e10	8	-1e10	8	-1E+10	1	-1E+10	1	-1E+10	1	-1E+10	1	-1E+10	1	-1E+10	1
4902554	116	C	04/27/2024	00:52	-134.272	47.494	0	1745.30	0	2.0580	0	34.5640	0	27.627	0	1723.531	0	-1e10	8	-1e10	8	-1E+10	1	-1E+10	1	-1E+10	1	-1E+10	1	-1E+10	1	-1E+10	1
4902554	116	C	04/27/2024	00:52	-134.272	47.494	0	1755.20	0	2.0520	0	34.5640	0	27.627	0	1733.267	0	-1e10	8	-1e10	8	-1E+10	1	-1E+10	1	-1E+10	1	-1E+10	1	-1E+10	1	-1E+10	1
4902554	116	C	04/27/2024	00:52	-134.272	47.494	0	1765.00	0	2.0430	0	34.5660	0	27.630	0	1742.904	0	-1e10	8	-1e10	8	-1E+10	1	-1E+10	1	-1E+10	1	-1E+10	1	-1E+10	1	-1E+10	1
4902554	116	C	04/27/2024	00:52	-134.272	47.494	0	1775.00	0	2.0350	0	34.5680	0	27.632	0	1752.737	0	-1e10	8	-1e10	8	-1E+10	1	-1E+10	1	-1E+10	1	-1E+10	1	-1E+10	1	-1E+10	1
4902554	116	C	04/27/2024	00:52	-134.272	47.494	0	1785.30	0	2.0260	0	34.5690	0	27.634	0	1762.866	0	-1e10	8	-1e10	8	-1E+10	1	-1E+10	1	-1E+10	1	-1E+10	1	-1E+10	1	-1E+10	1
4902554	116	C	04/27/2024	00:52	-134.272	47.494	0	1795.20	0	2.0230	0	34.5700	0	27.635	0	1772.600	0	-1e10	8	-1e10	8	-1E+10	1	-1E+10	1	-1E+10	1	-1E+10	1	-1E+10	1	-1E+10	1
4902554	116	C	04/27/2024	00:52	-134.272	47.494	0	1805.20	0	2.0170	0	34.5710	0	27.636	0	1782.432	0	-1e10	8	-1e10	8	-1E+10	1	-1E+10	1	-1E+10	1	-1E+10	1	-1E+10	1	-1E+10	1
4902554	116	C	04/27/2024	00:52	-134.272	47.494	0	1815.40	0	2.0120	0	34.5720	0	27.637	0	1792.460	0	-1e10	8	-1e10	8	-1E+10	1	-1E+10	1	-1E+10	1	-1E+10	1	-1E+10	1	-1E+10	1
4902554	116	C	04/27/2024	00:52	-134.272	47.494	0	1825.20	0	2.0050	0	34.5730	0	27.639	0	1802.095	0	-1e10	8	-1e10	8	-1E+10	1	-1E+10	1	-1E+10	1	-1E+10	1	-1E+10	1	-1E+10	1
4902554	116	C	04/27/2024	00:52	-134.272	47.494	0	1835.20	0	1.9980	0	34.5750	0	27.641	0	1811.926	0	-1e10	8	-1e10	8	-1E+10	1	-1E+10	1	-1E+10	1	-1E+10	1	-1E+10	1	-1E+10	1
4902554	116	C	04/27/2024	00:52	-134.272	47.494	0	1845.30	0	1.9920	0	34.5760	0	27.642	0	1821.855	0	-1e10	8	-1e10	8	-1E+10	1	-1E+10	1	-1E+10	1	-1E+10	1	-1E+10	1	-1E+10	1
4902554	116	C	04/27/2024	00:52	-134.272	47.494	0	1855.40	0	1.9870	0	34.5770	0	27.644	0	1831.783	0	-1e10	8	-1e10	8	-1E+10	1	-1E+10	1	-1E+10	1	-1E+10	1	-1E+10	1	-1E+10	1
4902554	116	C	04/27/2024	00:52	-134.272	47.494	0	1865.60	0	1.9780	0	34.5790	0	27.646	0	1841.809	0	-1e10	8	-1e10	8	-1E+10	1	-1E+10	1	-1E+10	1	-1E+10	1	-1E+10	1	-1E+10	1
4902554	116	C	04/27/2024	00:52	-134.272	47.494	0	1875.30	0	1.9720	0	34.5800	0	27.647	0	1851.343	0	-1e10	8	-1e10	8	-1E+10	1	-1E+10	1	-1E+10	1	-1E+10	1	-1E+10	1	-1E+10	1
4902554	116	C	04/27/2024	00:52	-134.272	47.494	0	1885.00	0	1.9660	0	34.5810	0	27.649	0	1860.876	0	-1e10	8	-1e10	8	-1E+10	1	-1E+10	1	-1E+10	1	-1E+10	1	-1E+10	1	-1E+10	1
4902554	116	C	04/27/2024	00:52	-134.272	47.494	0	1895.30	0	1.9620	0	34.5820	0	27.650	0	1870.999	0	-1e10	8	-1e10	8	-1E+10	1	-1E+10	1	-1E+10	1	-1E+10	1	-1E+10	1	-1E+10	1
4902554	116	C	04/27/2024	00:52	-134.272	47.494	0	1905.30	0	1.9590	0	34.5820	0	27.650	0	1880.827	0	-1e10	8	-1e10	8	-1E+10	1	-1E+10	1	-1E+10	1	-1E+10	1	-1E+10	1	-1E+10	1
4902554	116	C	04/27/2024	00:52	-134.272	47.494	0	1915.30	0	1.9530	0	34.5840	0	27.652	0	1890.654	0	-1e10	8	-1e10	8	-1E+10	1	-1E+10	1	-1E+10	1	-1E+10	1	-1E+10	1	-1E+10	1
4902554	116	C	04/27/2024	00:52	-134.272	47.494	0	1925.70	0	1.9500	0	34.5850	0	27.653	0	1900.874	0	-1e10	8	-1e10	8	-1E+10	1	-1E+10	1	-1E+10	1	-1E+10	1	-1E+10	1	-1E+10	1
4902554	116	C	04/27/2024	00:52	-134.272	47.494	0	1935.30	0	1.9460	0	34.5850	0	27.654	0	1910.307	0	-1e10	8	-1e10	8	-1E+10	1	-1E+10	1	-1E+10	1	-1E+10	1	-1E+10	1	-1E+10	1
4902554	116	C	04/27/2024	00:52	-134.272	47.494	0	1945.10	0	1.9420	0	34.5860	0	27.655	0	1919.936	0	-1e10	8	-1e10	8	-1E+10	1	-1E+10	1	-1E+10	1	-1E+10	1	-1E+10	1	-1E+10	1
4902554	116	C	04/27/2024	00:52	-134.272	47.494	0	1955.40	0	1.9370	0	34.5870	0	27.656	0	1930.057	0	-1e10	8	-1e10	8	-1E+10	1	-1E+10	1	-1E+10	1	-1E+10	1	-1E+10	1	-1E+10	1
4902554	116	C	04/27/2024	00:52	-134.272	47.494	0	1965.30	0	1.9320	0	34.5880	0	27.657	0	1939.783	0	-1e10	8	-1e10	8	-1E+10	1	-1E+10	1	-1E+10	1	-1E+10	1	-1E+10	1	-1E+10	1
4902554	116	C	04/27/2024	00:52	-134.272	47.494	0	1975.30	0	1.9240	0	34.5900	0	27.659	0	1949.608	0	-1e10	8	-1e10	8	-1E+10	1	-1E+10	1	-1E+10	1	-1E+10	1	-1E+10	1	-1E+10	1
4902554	116	C	04/27/2024	00:52	-134.272	47.494	0	1985.20	0	1.9190	0	34.5910	0	27.661	0	1959.333	0	-1e10	8	-1e10	8	-1E+10	1	-1E+10	1	-1E+10	1	-1E+10	1	-1E+10	1	-1E+10	1
4902554	116	C	04/27/2024	00:52	-134.272	47.494	0	1995.10	0	1.9150	0	34.5920	0	27.662	0	1969.059	0	-1e10	8	-1e10	8	-1E+10	1	-1E+10	1	-1E+10	1	-1E+10	1	-1E+10	1	-1E+10	1
4902554	116	C	04/27/2024	00:52	-134.272	47.494	0	2005.10	0	1.9120	0	34.5920	0	27.662	0	1978.882	0	-1e10	8	-1e10	8	-1E+10	1	-1E+10	1	-1E+10	1	-1E+10	1	-1E+10	1	-1E+10	1
4902554	116	C	04/27/2024	00:52	-134.272	47.494	0	2015.30	0	1.9090	0	34.5930	0	27.663	0	1988.901	0	-1e10	8	-1e10	8	-1E+10	1	-1E+10	1	-1E+10	1	-1E+10	1	-1E+10	1	-1E+10	1
4902554	116	C	04/27/2024	00:52	-134.272	47.494	0																										
